﻿<?xml version="1.0" encoding="utf-8"?><gpx creator="Garmin Desktop App" version="1.1" xsi:schemaLocation="http://www.topografix.com/GPX/1/1 http://www.topografix.com/GPX/1/1/gpx.xsd http://www.garmin.com/xmlschemas/WaypointExtension/v1 http://www8.garmin.com/xmlschemas/WaypointExtensionv1.xsd http://www.garmin.com/xmlschemas/TrackPointExtension/v1 http://www.garmin.com/xmlschemas/TrackPointExtensionv1.xsd http://www.garmin.com/xmlschemas/GpxExtensions/v3 http://www8.garmin.com/xmlschemas/GpxExtensionsv3.xsd http://www.garmin.com/xmlschemas/ActivityExtension/v1 http://www8.garmin.com/xmlschemas/ActivityExtensionv1.xsd http://www.garmin.com/xmlschemas/AdventuresExtensions/v1 http://www8.garmin.com/xmlschemas/AdventuresExtensionv1.xsd http://www.garmin.com/xmlschemas/PressureExtension/v1 http://www.garmin.com/xmlschemas/PressureExtensionv1.xsd http://www.garmin.com/xmlschemas/TripExtensions/v1 http://www.garmin.com/xmlschemas/TripExtensionsv1.xsd http://www.garmin.com/xmlschemas/TripMetaDataExtensions/v1 http://www.garmin.com/xmlschemas/TripMetaDataExtensionsv1.xsd http://www.garmin.com/xmlschemas/ViaPointTransportationModeExtensions/v1 http://www.garmin.com/xmlschemas/ViaPointTransportationModeExtensionsv1.xsd http://www.garmin.com/xmlschemas/CreationTimeExtension/v1 http://www.garmin.com/xmlschemas/CreationTimeExtensionsv1.xsd http://www.garmin.com/xmlschemas/AccelerationExtension/v1 http://www.garmin.com/xmlschemas/AccelerationExtensionv1.xsd http://www.garmin.com/xmlschemas/PowerExtension/v1 http://www.garmin.com/xmlschemas/PowerExtensionv1.xsd http://www.garmin.com/xmlschemas/VideoExtension/v1 http://www.garmin.com/xmlschemas/VideoExtensionv1.xsd" xmlns="http://www.topografix.com/GPX/1/1" xmlns:xsi="http://www.w3.org/2001/XMLSchema-instance" xmlns:wptx1="http://www.garmin.com/xmlschemas/WaypointExtension/v1" xmlns:gpxtrx="http://www.garmin.com/xmlschemas/GpxExtensions/v3" xmlns:gpxtpx="http://www.garmin.com/xmlschemas/TrackPointExtension/v1" xmlns:gpxx="http://www.garmin.com/xmlschemas/GpxExtensions/v3" xmlns:trp="http://www.garmin.com/xmlschemas/TripExtensions/v1" xmlns:adv="http://www.garmin.com/xmlschemas/AdventuresExtensions/v1" xmlns:prs="http://www.garmin.com/xmlschemas/PressureExtension/v1" xmlns:tmd="http://www.garmin.com/xmlschemas/TripMetaDataExtensions/v1" xmlns:vptm="http://www.garmin.com/xmlschemas/ViaPointTransportationModeExtensions/v1" xmlns:ctx="http://www.garmin.com/xmlschemas/CreationTimeExtension/v1" xmlns:gpxacc="http://www.garmin.com/xmlschemas/AccelerationExtension/v1" xmlns:gpxpx="http://www.garmin.com/xmlschemas/PowerExtension/v1" xmlns:vidx1="http://www.garmin.com/xmlschemas/VideoExtension/v1">

  <metadata>
    <link href="http://www.garmin.com">
      <text>Garmin International</text>
    </link>
    <time>2025-05-26T12:49:39Z</time>
    <bounds maxlat="43.058462971821427" maxlon="3.316148025915027" minlat="36.008621994405985" minlon="-9.497704971581698" />
  </metadata>

  <trk>
    <name>Track 009</name>
    <extensions>
      <gpxx:TrackExtension>
        <gpxx:DisplayColor>DarkGray</gpxx:DisplayColor>
      </gpxx:TrackExtension>
    </extensions>
    <trkseg>
      <trkpt lat="42.905203979462385" lon="-9.262224035337567">
        <ele>3.5</ele>
        <time>2025-05-01T08:24:55Z</time>
      </trkpt>
      <trkpt lat="42.905196016654372" lon="-9.262192016467452">
        <ele>13.6</ele>
        <time>2025-05-01T08:25:31Z</time>
      </trkpt>
      <trkpt lat="42.905202973634005" lon="-9.262183969840407">
        <ele>13.119999999999999</ele>
        <time>2025-05-01T08:26:11Z</time>
      </trkpt>
      <trkpt lat="42.905202973634005" lon="-9.262190004810691">
        <ele>12.630000000000001</ele>
        <time>2025-05-01T08:26:37Z</time>
      </trkpt>
      <trkpt lat="42.905209008604288" lon="-9.262198973447084">
        <ele>13.6</ele>
        <time>2025-05-01T08:27:15Z</time>
      </trkpt>
      <trkpt lat="42.90521202608943" lon="-9.262198973447084">
        <ele>14.56</ele>
        <time>2025-05-01T08:27:56Z</time>
      </trkpt>
      <trkpt lat="42.90521495975554" lon="-9.262196039780974">
        <ele>15.039999999999999</ele>
        <time>2025-05-01T08:28:31Z</time>
      </trkpt>
      <trkpt lat="42.905225018039346" lon="-9.262159997597337">
        <ele>14.56</ele>
        <time>2025-05-01T08:29:10Z</time>
      </trkpt>
      <trkpt lat="42.905225018039346" lon="-9.262136025354266">
        <ele>14.08</ele>
        <time>2025-05-01T08:29:12Z</time>
      </trkpt>
      <trkpt lat="42.905238009989262" lon="-9.261990012601018">
        <ele>15.039999999999999</ele>
        <time>2025-05-01T08:29:15Z</time>
      </trkpt>
      <trkpt lat="42.905302969738841" lon="-9.261861015111208">
        <ele>15.52</ele>
        <time>2025-05-01T08:29:19Z</time>
      </trkpt>
      <trkpt lat="42.905302969738841" lon="-9.261861015111208">
        <ele>15.52</ele>
        <time>2025-05-01T08:29:20Z</time>
      </trkpt>
      <trkpt lat="42.905400032177567" lon="-9.26173897460103">
        <ele>16</ele>
        <time>2025-05-01T08:29:22Z</time>
      </trkpt>
      <trkpt lat="42.905432973057032" lon="-9.261697987094522">
        <ele>16</ele>
        <time>2025-05-01T08:29:23Z</time>
      </trkpt>
      <trkpt lat="42.905646041035652" lon="-9.261432029306889">
        <ele>16.48</ele>
        <time>2025-05-01T08:29:28Z</time>
      </trkpt>
      <trkpt lat="42.905646041035652" lon="-9.261432029306889">
        <ele>16</ele>
        <time>2025-05-01T08:29:29Z</time>
      </trkpt>
      <trkpt lat="42.905646041035652" lon="-9.261432029306889">
        <ele>16.48</ele>
        <time>2025-05-01T08:29:30Z</time>
      </trkpt>
      <trkpt lat="42.905597006902099" lon="-9.261492965742946">
        <ele>16</ele>
        <time>2025-05-01T08:29:31Z</time>
      </trkpt>
      <trkpt lat="42.905572028830647" lon="-9.26152397878468">
        <ele>16</ele>
        <time>2025-05-01T08:29:32Z</time>
      </trkpt>
      <trkpt lat="42.905544033274055" lon="-9.261559015139937">
        <ele>16</ele>
        <time>2025-05-01T08:29:33Z</time>
      </trkpt>
      <trkpt lat="42.905516037717462" lon="-9.261593967676163">
        <ele>16</ele>
        <time>2025-05-01T08:29:34Z</time>
      </trkpt>
      <trkpt lat="42.905486030504107" lon="-9.261632021516562">
        <ele>16</ele>
        <time>2025-05-01T08:29:35Z</time>
      </trkpt>
      <trkpt lat="42.905454011633992" lon="-9.26167200319469">
        <ele>16</ele>
        <time>2025-05-01T08:29:36Z</time>
      </trkpt>
      <trkpt lat="42.905416963621974" lon="-9.261717014014721">
        <ele>16</ele>
        <time>2025-05-01T08:29:37Z</time>
      </trkpt>
      <trkpt lat="42.905376981943846" lon="-9.261767975986004">
        <ele>16.48</ele>
        <time>2025-05-01T08:29:38Z</time>
      </trkpt>
      <trkpt lat="42.905334988608956" lon="-9.261820027604699">
        <ele>16.48</ele>
        <time>2025-05-01T08:29:39Z</time>
      </trkpt>
      <trkpt lat="42.905151005834341" lon="-9.262077016755939">
        <ele>16.960000000000001</ele>
        <time>2025-05-01T08:29:44Z</time>
      </trkpt>
      <trkpt lat="42.905109012499452" lon="-9.262118004262447">
        <ele>17.440000000000001</ele>
        <time>2025-05-01T08:29:45Z</time>
      </trkpt>
      <trkpt lat="42.905109012499452" lon="-9.262118004262447">
        <ele>17.440000000000001</ele>
        <time>2025-05-01T08:29:46Z</time>
      </trkpt>
      <trkpt lat="42.905032988637686" lon="-9.262130996212363">
        <ele>17.920000000000002</ele>
        <time>2025-05-01T08:29:47Z</time>
      </trkpt>
      <trkpt lat="42.904988983646035" lon="-9.262138037011027">
        <ele>17.920000000000002</ele>
        <time>2025-05-01T08:29:48Z</time>
      </trkpt>
      <trkpt lat="42.904981020838022" lon="-9.262139964848757">
        <ele>17.920000000000002</ele>
        <time>2025-05-01T08:29:49Z</time>
      </trkpt>
      <trkpt lat="42.904820004478097" lon="-9.262197967618704">
        <ele>16.960000000000001</ele>
        <time>2025-05-01T08:29:53Z</time>
      </trkpt>
      <trkpt lat="42.904754038900137" lon="-9.262262005358934">
        <ele>16.48</ele>
        <time>2025-05-01T08:29:56Z</time>
      </trkpt>
      <trkpt lat="42.904705004766583" lon="-9.262282960116863">
        <ele>16.48</ele>
        <time>2025-05-01T08:29:57Z</time>
      </trkpt>
      <trkpt lat="42.904576007276773" lon="-9.262340040877461">
        <ele>16.48</ele>
        <time>2025-05-01T08:29:59Z</time>
      </trkpt>
      <trkpt lat="42.904511969536543" lon="-9.262368036434054">
        <ele>16.48</ele>
        <time>2025-05-01T08:30:00Z</time>
      </trkpt>
      <trkpt lat="42.904455978423357" lon="-9.262392008677125">
        <ele>16.960000000000001</ele>
        <time>2025-05-01T08:30:01Z</time>
      </trkpt>
      <trkpt lat="42.904365034773946" lon="-9.262511031702161">
        <ele>16.960000000000001</ele>
        <time>2025-05-01T08:30:03Z</time>
      </trkpt>
      <trkpt lat="42.904262021183968" lon="-9.262643968686461">
        <ele>16.960000000000001</ele>
        <time>2025-05-01T08:30:05Z</time>
      </trkpt>
      <trkpt lat="42.903926996514201" lon="-9.262978993356228">
        <ele>16.960000000000001</ele>
        <time>2025-05-01T08:30:10Z</time>
      </trkpt>
      <trkpt lat="42.903892965987325" lon="-9.263059040531516">
        <ele>16.960000000000001</ele>
        <time>2025-05-01T08:30:11Z</time>
      </trkpt>
      <trkpt lat="42.903872011229396" lon="-9.263148978352547">
        <ele>16.960000000000001</ele>
        <time>2025-05-01T08:30:12Z</time>
      </trkpt>
      <trkpt lat="42.903853990137577" lon="-9.263225002214313">
        <ele>17.440000000000001</ele>
        <time>2025-05-01T08:30:13Z</time>
      </trkpt>
      <trkpt lat="42.9038389865309" lon="-9.263287028297782">
        <ele>18.399999999999999</ele>
        <time>2025-05-01T08:30:14Z</time>
      </trkpt>
      <trkpt lat="42.903829012066126" lon="-9.263331033289433">
        <ele>19.359999999999999</ele>
        <time>2025-05-01T08:30:15Z</time>
      </trkpt>
      <trkpt lat="42.903821971267462" lon="-9.263359028846026">
        <ele>20.809999999999999</ele>
        <time>2025-05-01T08:30:16Z</time>
      </trkpt>
      <trkpt lat="42.903801016509533" lon="-9.263448966667056">
        <ele>21.77</ele>
        <time>2025-05-01T08:30:17Z</time>
      </trkpt>
      <trkpt lat="42.903801016509533" lon="-9.263449972495437">
        <ele>22.73</ele>
        <time>2025-05-01T08:30:18Z</time>
      </trkpt>
      <trkpt lat="42.903817025944591" lon="-9.26349900662899">
        <ele>23.690000000000001</ele>
        <time>2025-05-01T08:30:19Z</time>
      </trkpt>
      <trkpt lat="42.903835969045758" lon="-9.26356203854084">
        <ele>24.649999999999999</ele>
        <time>2025-05-01T08:30:20Z</time>
      </trkpt>
      <trkpt lat="42.90385901927948" lon="-9.263634039089084">
        <ele>26.09</ele>
        <time>2025-05-01T08:30:21Z</time>
      </trkpt>
      <trkpt lat="42.90390201844275" lon="-9.263766976073384">
        <ele>28.02</ele>
        <time>2025-05-01T08:30:23Z</time>
      </trkpt>
      <trkpt lat="42.903933031484485" lon="-9.263864038512111">
        <ele>30.420000000000002</ele>
        <time>2025-05-01T08:30:25Z</time>
      </trkpt>
      <trkpt lat="42.903974018990993" lon="-9.26392799243331">
        <ele>31.379999999999999</ele>
        <time>2025-05-01T08:30:26Z</time>
      </trkpt>
      <trkpt lat="42.904549017548561" lon="-9.26414399407804">
        <ele>37.149999999999999</ele>
        <time>2025-05-01T08:30:34Z</time>
      </trkpt>
      <trkpt lat="42.90463300421834" lon="-9.264179030433297">
        <ele>37.630000000000003</ele>
        <time>2025-05-01T08:30:35Z</time>
      </trkpt>
      <trkpt lat="42.904936010017991" lon="-9.264351027086377">
        <ele>39.07</ele>
        <time>2025-05-01T08:30:39Z</time>
      </trkpt>
      <trkpt lat="42.904989989474416" lon="-9.264390002936125">
        <ele>40.509999999999998</ele>
        <time>2025-05-01T08:30:40Z</time>
      </trkpt>
      <trkpt lat="42.905027037486434" lon="-9.264415986835957">
        <ele>41.950000000000003</ele>
        <time>2025-05-01T08:30:41Z</time>
      </trkpt>
      <trkpt lat="42.905056038871408" lon="-9.264433002099395">
        <ele>43.399999999999999</ele>
        <time>2025-05-01T08:30:42Z</time>
      </trkpt>
      <trkpt lat="42.90508302859962" lon="-9.264449011534452">
        <ele>44.359999999999999</ele>
        <time>2025-05-01T08:30:43Z</time>
      </trkpt>
      <trkpt lat="42.905116975307465" lon="-9.264468960464001">
        <ele>45.799999999999997</ele>
        <time>2025-05-01T08:30:44Z</time>
      </trkpt>
      <trkpt lat="42.905224012210965" lon="-9.264531992375851">
        <ele>48.200000000000003</ele>
        <time>2025-05-01T08:30:46Z</time>
      </trkpt>
      <trkpt lat="42.905426016077399" lon="-9.264649003744125">
        <ele>50.609999999999999</ele>
        <time>2025-05-01T08:30:49Z</time>
      </trkpt>
      <trkpt lat="42.906106961891055" lon="-9.264934994280338">
        <ele>52.049999999999997</ele>
        <time>2025-05-01T08:30:58Z</time>
      </trkpt>
      <trkpt lat="42.906766030937433" lon="-9.265157030895352">
        <ele>54.450000000000003</ele>
        <time>2025-05-01T08:31:07Z</time>
      </trkpt>
      <trkpt lat="42.90716702118516" lon="-9.26526197232306">
        <ele>54.93</ele>
        <time>2025-05-01T08:31:12Z</time>
      </trkpt>
      <trkpt lat="42.907248996198177" lon="-9.265272030606866">
        <ele>54.93</ele>
        <time>2025-05-01T08:31:13Z</time>
      </trkpt>
      <trkpt lat="42.907333988696337" lon="-9.265251997858286">
        <ele>54.93</ele>
        <time>2025-05-01T08:31:14Z</time>
      </trkpt>
      <trkpt lat="42.907419987022877" lon="-9.265229031443596">
        <ele>54.450000000000003</ele>
        <time>2025-05-01T08:31:15Z</time>
      </trkpt>
      <trkpt lat="42.907505985349417" lon="-9.265205981209874">
        <ele>53.969999999999999</ele>
        <time>2025-05-01T08:31:16Z</time>
      </trkpt>
      <trkpt lat="42.90757698006928" lon="-9.265187038108707">
        <ele>53.969999999999999</ele>
        <time>2025-05-01T08:31:17Z</time>
      </trkpt>
      <trkpt lat="42.90766297839582" lon="-9.265123000368476">
        <ele>53.969999999999999</ele>
        <time>2025-05-01T08:31:18Z</time>
      </trkpt>
      <trkpt lat="42.907735984772444" lon="-9.265068015083671">
        <ele>53.969999999999999</ele>
        <time>2025-05-01T08:31:19Z</time>
      </trkpt>
      <trkpt lat="42.907793987542391" lon="-9.265000959858298">
        <ele>54.450000000000003</ele>
        <time>2025-05-01T08:31:20Z</time>
      </trkpt>
      <trkpt lat="42.907854001969099" lon="-9.264927031472325">
        <ele>54.93</ele>
        <time>2025-05-01T08:31:21Z</time>
      </trkpt>
      <trkpt lat="42.907909993082285" lon="-9.264856036752462">
        <ele>55.409999999999997</ele>
        <time>2025-05-01T08:31:22Z</time>
      </trkpt>
      <trkpt lat="42.907962966710329" lon="-9.264783030375838">
        <ele>55.890000000000001</ele>
        <time>2025-05-01T08:31:23Z</time>
      </trkpt>
      <trkpt lat="42.908018035814166" lon="-9.264707006514072">
        <ele>55.890000000000001</ele>
        <time>2025-05-01T08:31:24Z</time>
      </trkpt>
      <trkpt lat="42.908723959699273" lon="-9.263695981353521">
        <ele>56.859999999999999</ele>
        <time>2025-05-01T08:31:37Z</time>
      </trkpt>
      <trkpt lat="42.908834014087915" lon="-9.263547034934163">
        <ele>57.340000000000003</ele>
        <time>2025-05-01T08:31:39Z</time>
      </trkpt>
      <trkpt lat="42.908894028514624" lon="-9.263484003022313">
        <ele>57.340000000000003</ele>
        <time>2025-05-01T08:31:40Z</time>
      </trkpt>
      <trkpt lat="42.908955970779061" lon="-9.263446033000946">
        <ele>56.859999999999999</ele>
        <time>2025-05-01T08:31:41Z</time>
      </trkpt>
      <trkpt lat="42.90903601795435" lon="-9.263405967503786">
        <ele>58.299999999999997</ele>
        <time>2025-05-01T08:31:42Z</time>
      </trkpt>
      <trkpt lat="42.909089997410774" lon="-9.26339196972549">
        <ele>61.18</ele>
        <time>2025-05-01T08:31:43Z</time>
      </trkpt>
      <trkpt lat="42.909164009615779" lon="-9.26339004188776">
        <ele>64.069999999999993</ele>
        <time>2025-05-01T08:31:44Z</time>
      </trkpt>
      <trkpt lat="42.909249002113938" lon="-9.263400016352534">
        <ele>66.469999999999999</ele>
        <time>2025-05-01T08:31:45Z</time>
      </trkpt>
      <trkpt lat="42.909332988783717" lon="-9.263417031615973">
        <ele>68.870000000000005</ele>
        <time>2025-05-01T08:31:46Z</time>
      </trkpt>
      <trkpt lat="42.909414041787386" lon="-9.263441003859043">
        <ele>70.790000000000006</ele>
        <time>2025-05-01T08:31:47Z</time>
      </trkpt>
      <trkpt lat="42.909904969856143" lon="-9.263582993298769">
        <ele>80.409999999999997</ele>
        <time>2025-05-01T08:31:53Z</time>
      </trkpt>
      <trkpt lat="42.909973030909896" lon="-9.263599002733827">
        <ele>81.849999999999994</ele>
        <time>2025-05-01T08:31:54Z</time>
      </trkpt>
      <trkpt lat="42.910047965124249" lon="-9.263533959165216">
        <ele>83.290000000000006</ele>
        <time>2025-05-01T08:31:55Z</time>
      </trkpt>
      <trkpt lat="42.910100016742945" lon="-9.263461958616972">
        <ele>84.730000000000004</ele>
        <time>2025-05-01T08:31:56Z</time>
      </trkpt>
      <trkpt lat="42.910137986764312" lon="-9.263380989432335">
        <ele>85.209999999999994</ele>
        <time>2025-05-01T08:31:57Z</time>
      </trkpt>
      <trkpt lat="42.910173023119569" lon="-9.263299014419317">
        <ele>85.209999999999994</ele>
        <time>2025-05-01T08:31:58Z</time>
      </trkpt>
      <trkpt lat="42.91019800119102" lon="-9.263226008042693">
        <ele>85.209999999999994</ele>
        <time>2025-05-01T08:31:59Z</time>
      </trkpt>
      <trkpt lat="42.9102180339396" lon="-9.263165993615985">
        <ele>85.209999999999994</ele>
        <time>2025-05-01T08:32:00Z</time>
      </trkpt>
      <trkpt lat="42.910233959555626" lon="-9.263116037473083">
        <ele>85.209999999999994</ele>
        <time>2025-05-01T08:32:01Z</time>
      </trkpt>
      <trkpt lat="42.910248041152954" lon="-9.263073960319161">
        <ele>84.730000000000004</ele>
        <time>2025-05-01T08:32:02Z</time>
      </trkpt>
      <trkpt lat="42.910259021446109" lon="-9.263041019439697">
        <ele>84.25</ele>
        <time>2025-05-01T08:32:03Z</time>
      </trkpt>
      <trkpt lat="42.910259021446109" lon="-9.263041019439697">
        <ele>79.930000000000007</ele>
        <time>2025-05-01T08:32:08Z</time>
      </trkpt>
      <trkpt lat="42.910290034487844" lon="-9.263062980026007">
        <ele>79.450000000000003</ele>
        <time>2025-05-01T08:32:09Z</time>
      </trkpt>
      <trkpt lat="42.910345019772649" lon="-9.263102039694786">
        <ele>79.450000000000003</ele>
        <time>2025-05-01T08:32:10Z</time>
      </trkpt>
      <trkpt lat="42.910406962037086" lon="-9.263145960867405">
        <ele>79.450000000000003</ele>
        <time>2025-05-01T08:32:11Z</time>
      </trkpt>
      <trkpt lat="42.910470999777317" lon="-9.263194995000958">
        <ele>79.930000000000007</ele>
        <time>2025-05-01T08:32:12Z</time>
      </trkpt>
      <trkpt lat="42.910764031112194" lon="-9.263418037444353">
        <ele>79.930000000000007</ele>
        <time>2025-05-01T08:32:16Z</time>
      </trkpt>
      <trkpt lat="42.910936027765274" lon="-9.263533037155867">
        <ele>79.450000000000003</ele>
        <time>2025-05-01T08:32:18Z</time>
      </trkpt>
      <trkpt lat="42.911030994728208" lon="-9.26358500495553">
        <ele>79.450000000000003</ele>
        <time>2025-05-01T08:32:19Z</time>
      </trkpt>
      <trkpt lat="42.911133002489805" lon="-9.263632027432323">
        <ele>79.450000000000003</ele>
        <time>2025-05-01T08:32:20Z</time>
      </trkpt>
      <trkpt lat="42.912289034575224" lon="-9.264065036550164">
        <ele>68.870000000000005</ele>
        <time>2025-05-01T08:32:31Z</time>
      </trkpt>
      <trkpt lat="42.91288398206234" lon="-9.26425295881927">
        <ele>59.740000000000002</ele>
        <time>2025-05-01T08:32:38Z</time>
      </trkpt>
      <trkpt lat="42.912931004539132" lon="-9.264280032366514">
        <ele>58.780000000000001</ele>
        <time>2025-05-01T08:32:39Z</time>
      </trkpt>
      <trkpt lat="42.912989007309079" lon="-9.264312973245978">
        <ele>57.82</ele>
        <time>2025-05-01T08:32:40Z</time>
      </trkpt>
      <trkpt lat="42.913053967058659" lon="-9.264350021257997">
        <ele>56.369999999999997</ele>
        <time>2025-05-01T08:32:41Z</time>
      </trkpt>
      <trkpt lat="42.913100989535451" lon="-9.264392014592886">
        <ele>55.890000000000001</ele>
        <time>2025-05-01T08:32:42Z</time>
      </trkpt>
      <trkpt lat="42.913147006183863" lon="-9.264496034011245">
        <ele>55.409999999999997</ele>
        <time>2025-05-01T08:32:43Z</time>
      </trkpt>
      <trkpt lat="42.913195034489036" lon="-9.264603992924094">
        <ele>54.93</ele>
        <time>2025-05-01T08:32:44Z</time>
      </trkpt>
      <trkpt lat="42.91324901394546" lon="-9.264725027605891">
        <ele>54.450000000000003</ele>
        <time>2025-05-01T08:32:45Z</time>
      </trkpt>
      <trkpt lat="42.913594013080001" lon="-9.266199991106987">
        <ele>52.530000000000001</ele>
        <time>2025-05-01T08:32:55Z</time>
      </trkpt>
      <trkpt lat="42.913811020553112" lon="-9.267181009054184">
        <ele>47.719999999999999</ele>
        <time>2025-05-01T08:33:02Z</time>
      </trkpt>
      <trkpt lat="42.913882015272975" lon="-9.267309000715613">
        <ele>46.759999999999998</ele>
        <time>2025-05-01T08:33:03Z</time>
      </trkpt>
      <trkpt lat="42.913963990285993" lon="-9.267383012920618">
        <ele>45.32</ele>
        <time>2025-05-01T08:33:04Z</time>
      </trkpt>
      <trkpt lat="42.914069015532732" lon="-9.267434980720282">
        <ele>43.880000000000003</ele>
        <time>2025-05-01T08:33:05Z</time>
      </trkpt>
      <trkpt lat="42.91417496278882" lon="-9.267488038167357">
        <ele>42.920000000000002</ele>
        <time>2025-05-01T08:33:06Z</time>
      </trkpt>
      <trkpt lat="42.914297003298998" lon="-9.267526008188725">
        <ele>42.439999999999998</ele>
        <time>2025-05-01T08:33:07Z</time>
      </trkpt>
      <trkpt lat="42.914421977475286" lon="-9.267526008188725">
        <ele>41.469999999999999</ele>
        <time>2025-05-01T08:33:08Z</time>
      </trkpt>
      <trkpt lat="42.914544017985463" lon="-9.267526008188725">
        <ele>40.990000000000002</ele>
        <time>2025-05-01T08:33:09Z</time>
      </trkpt>
      <trkpt lat="42.915802979841828" lon="-9.26751796156168">
        <ele>40.509999999999998</ele>
        <time>2025-05-01T08:33:20Z</time>
      </trkpt>
      <trkpt lat="42.917309040203691" lon="-9.267503963783383">
        <ele>43.399999999999999</ele>
        <time>2025-05-01T08:33:33Z</time>
      </trkpt>
      <trkpt lat="42.918589040637016" lon="-9.267503963783383">
        <ele>39.07</ele>
        <time>2025-05-01T08:33:44Z</time>
      </trkpt>
      <trkpt lat="42.919057002291083" lon="-9.267440009862185">
        <ele>37.149999999999999</ele>
        <time>2025-05-01T08:33:48Z</time>
      </trkpt>
      <trkpt lat="42.919175019487739" lon="-9.267364991828799">
        <ele>36.189999999999998</ele>
        <time>2025-05-01T08:33:49Z</time>
      </trkpt>
      <trkpt lat="42.919280966743827" lon="-9.267298020422459">
        <ele>35.229999999999997</ele>
        <time>2025-05-01T08:33:50Z</time>
      </trkpt>
      <trkpt lat="42.919374005869031" lon="-9.267209004610777">
        <ele>34.259999999999998</ele>
        <time>2025-05-01T08:33:51Z</time>
      </trkpt>
      <trkpt lat="42.919467967003584" lon="-9.267114959657192">
        <ele>33.299999999999997</ele>
        <time>2025-05-01T08:33:52Z</time>
      </trkpt>
      <trkpt lat="42.919562011957169" lon="-9.267019992694259">
        <ele>32.82</ele>
        <time>2025-05-01T08:33:53Z</time>
      </trkpt>
      <trkpt lat="42.920463988557458" lon="-9.266039980575442">
        <ele>27.050000000000001</ele>
        <time>2025-05-01T08:34:03Z</time>
      </trkpt>
      <trkpt lat="42.921570986509323" lon="-9.264862993732095">
        <ele>21.77</ele>
        <time>2025-05-01T08:34:15Z</time>
      </trkpt>
      <trkpt lat="42.922677984461188" lon="-9.263661028817296">
        <ele>17.920000000000002</ele>
        <time>2025-05-01T08:34:27Z</time>
      </trkpt>
      <trkpt lat="42.924098968505859" lon="-9.262138037011027">
        <ele>17.440000000000001</ele>
        <time>2025-05-01T08:34:42Z</time>
      </trkpt>
      <trkpt lat="42.925465973094106" lon="-9.260646980255842">
        <ele>17.440000000000001</ele>
        <time>2025-05-01T08:34:56Z</time>
      </trkpt>
      <trkpt lat="42.926671039313078" lon="-9.259354993700981">
        <ele>16.960000000000001</ele>
        <time>2025-05-01T08:35:04Z</time>
      </trkpt>
      <trkpt lat="42.927950033918023" lon="-9.257730999961495">
        <ele>16</ele>
        <time>2025-05-01T08:35:13Z</time>
      </trkpt>
      <trkpt lat="42.928233006969094" lon="-9.257033038884401">
        <ele>16.960000000000001</ele>
        <time>2025-05-01T08:35:16Z</time>
      </trkpt>
      <trkpt lat="42.928291009739041" lon="-9.25677496008575">
        <ele>17.440000000000001</ele>
        <time>2025-05-01T08:35:17Z</time>
      </trkpt>
      <trkpt lat="42.928540958091617" lon="-9.254877967759967">
        <ele>20.32</ele>
        <time>2025-05-01T08:35:24Z</time>
      </trkpt>
      <trkpt lat="42.928479015827179" lon="-9.254344962537289">
        <ele>21.77</ele>
        <time>2025-05-01T08:35:26Z</time>
      </trkpt>
      <trkpt lat="42.928439034149051" lon="-9.254085039719939">
        <ele>22.25</ele>
        <time>2025-05-01T08:35:27Z</time>
      </trkpt>
      <trkpt lat="42.928120018914342" lon="-9.252700014039874">
        <ele>28.5</ele>
        <time>2025-05-01T08:35:33Z</time>
      </trkpt>
      <trkpt lat="42.928111972287297" lon="-9.252488035708666">
        <ele>29.940000000000001</ele>
        <time>2025-05-01T08:35:34Z</time>
      </trkpt>
      <trkpt lat="42.928123958408833" lon="-9.252267004922032">
        <ele>30.899999999999999</ele>
        <time>2025-05-01T08:35:35Z</time>
      </trkpt>
      <trkpt lat="42.928167041391134" lon="-9.251548005267978">
        <ele>34.259999999999998</ele>
        <time>2025-05-01T08:35:38Z</time>
      </trkpt>
      <trkpt lat="42.928154971450567" lon="-9.251301996409893">
        <ele>35.710000000000001</ele>
        <time>2025-05-01T08:35:39Z</time>
      </trkpt>
      <trkpt lat="42.928103003650904" lon="-9.251068979501724">
        <ele>36.670000000000002</ele>
        <time>2025-05-01T08:35:40Z</time>
      </trkpt>
      <trkpt lat="42.928037038072944" lon="-9.250831017270684">
        <ele>38.109999999999999</ele>
        <time>2025-05-01T08:35:41Z</time>
      </trkpt>
      <trkpt lat="42.927950033918023" lon="-9.250600012019277">
        <ele>39.07</ele>
        <time>2025-05-01T08:35:42Z</time>
      </trkpt>
      <trkpt lat="42.927318038418889" lon="-9.248375035822392">
        <ele>45.32</ele>
        <time>2025-05-01T08:35:51Z</time>
      </trkpt>
      <trkpt lat="42.927249977365136" lon="-9.246124997735024">
        <ele>49.649999999999999</ele>
        <time>2025-05-01T08:35:59Z</time>
      </trkpt>
      <trkpt lat="42.927335975691676" lon="-9.245587969198823">
        <ele>50.609999999999999</ele>
        <time>2025-05-01T08:36:01Z</time>
      </trkpt>
      <trkpt lat="42.927401019260287" lon="-9.245337015017867">
        <ele>51.090000000000003</ele>
        <time>2025-05-01T08:36:02Z</time>
      </trkpt>
      <trkpt lat="42.92749498039484" lon="-9.245099974796176">
        <ele>51.57</ele>
        <time>2025-05-01T08:36:03Z</time>
      </trkpt>
      <trkpt lat="42.927594976499677" lon="-9.244869975373149">
        <ele>52.049999999999997</ele>
        <time>2025-05-01T08:36:04Z</time>
      </trkpt>
      <trkpt lat="42.92773000895977" lon="-9.244662020355463">
        <ele>52.530000000000001</ele>
        <time>2025-05-01T08:36:05Z</time>
      </trkpt>
      <trkpt lat="42.927865041419864" lon="-9.244454987347126">
        <ele>53.009999999999998</ele>
        <time>2025-05-01T08:36:06Z</time>
      </trkpt>
      <trkpt lat="42.9292550124228" lon="-9.242298994213343">
        <ele>55.890000000000001</ele>
        <time>2025-05-01T08:36:17Z</time>
      </trkpt>
      <trkpt lat="42.929610991850495" lon="-9.241472035646439">
        <ele>58.299999999999997</ele>
        <time>2025-05-01T08:36:21Z</time>
      </trkpt>
      <trkpt lat="42.929657008498907" lon="-9.241269025951624">
        <ele>59.259999999999998</ele>
        <time>2025-05-01T08:36:22Z</time>
      </trkpt>
      <trkpt lat="42.929677963256836" lon="-9.241056963801384">
        <ele>60.700000000000003</ele>
        <time>2025-05-01T08:36:23Z</time>
      </trkpt>
      <trkpt lat="42.929648961871862" lon="-9.240835011005402">
        <ele>61.18</ele>
        <time>2025-05-01T08:36:24Z</time>
      </trkpt>
      <trkpt lat="42.929590037092566" lon="-9.240622026845813">
        <ele>62.140000000000001</ele>
        <time>2025-05-01T08:36:25Z</time>
      </trkpt>
      <trkpt lat="42.929491968825459" lon="-9.240419017150998">
        <ele>62.619999999999997</ele>
        <time>2025-05-01T08:36:26Z</time>
      </trkpt>
      <trkpt lat="42.929375963285565" lon="-9.240223970264196">
        <ele>63.100000000000001</ele>
        <time>2025-05-01T08:36:27Z</time>
      </trkpt>
      <trkpt lat="42.929260041564703" lon="-9.240029007196426">
        <ele>63.579999999999998</ele>
        <time>2025-05-01T08:36:28Z</time>
      </trkpt>
      <trkpt lat="42.928805993869901" lon="-9.239238006994128">
        <ele>66.469999999999999</ele>
        <time>2025-05-01T08:36:32Z</time>
      </trkpt>
      <trkpt lat="42.928703986108303" lon="-9.239034997299314">
        <ele>66.950000000000003</ele>
        <time>2025-05-01T08:36:33Z</time>
      </trkpt>
      <trkpt lat="42.928656041622162" lon="-9.238818995654583">
        <ele>67.909999999999997</ele>
        <time>2025-05-01T08:36:34Z</time>
      </trkpt>
      <trkpt lat="42.928627040237188" lon="-9.238605005666614">
        <ele>68.870000000000005</ele>
        <time>2025-05-01T08:36:35Z</time>
      </trkpt>
      <trkpt lat="42.928627040237188" lon="-9.238408030942082">
        <ele>69.829999999999998</ele>
        <time>2025-05-01T08:36:36Z</time>
      </trkpt>
      <trkpt lat="42.928685965016484" lon="-9.238184988498688">
        <ele>70.310000000000002</ele>
        <time>2025-05-01T08:36:37Z</time>
      </trkpt>
      <trkpt lat="42.928743967786431" lon="-9.237982984632254">
        <ele>70.310000000000002</ele>
        <time>2025-05-01T08:36:38Z</time>
      </trkpt>
      <trkpt lat="42.928843963891268" lon="-9.237799001857638">
        <ele>71.269999999999996</ele>
        <time>2025-05-01T08:36:39Z</time>
      </trkpt>
      <trkpt lat="42.928973967209458" lon="-9.237656006589532">
        <ele>72.719999999999999</ele>
        <time>2025-05-01T08:36:40Z</time>
      </trkpt>
      <trkpt lat="42.929120985791087" lon="-9.237512005493045">
        <ele>73.680000000000007</ele>
        <time>2025-05-01T08:36:41Z</time>
      </trkpt>
      <trkpt lat="42.929272027686238" lon="-9.237363981083036">
        <ele>74.159999999999997</ele>
        <time>2025-05-01T08:36:42Z</time>
      </trkpt>
      <trkpt lat="42.92942700907588" lon="-9.237212017178536">
        <ele>75.120000000000005</ele>
        <time>2025-05-01T08:36:43Z</time>
      </trkpt>
      <trkpt lat="42.930918987840414" lon="-9.235758008435369">
        <ele>76.079999999999998</ele>
        <time>2025-05-01T08:36:52Z</time>
      </trkpt>
      <trkpt lat="42.931111017242074" lon="-9.235671004280448">
        <ele>75.120000000000005</ele>
        <time>2025-05-01T08:36:53Z</time>
      </trkpt>
      <trkpt lat="42.931303968653083" lon="-9.235621970146895">
        <ele>74.640000000000001</ele>
        <time>2025-05-01T08:36:54Z</time>
      </trkpt>
      <trkpt lat="42.931502033025026" lon="-9.235593974590302">
        <ele>73.680000000000007</ele>
        <time>2025-05-01T08:36:55Z</time>
      </trkpt>
      <trkpt lat="42.931701019406319" lon="-9.23559196293354">
        <ele>72.719999999999999</ele>
        <time>2025-05-01T08:36:56Z</time>
      </trkpt>
      <trkpt lat="42.931902017444372" lon="-9.235638985410333">
        <ele>71.760000000000005</ele>
        <time>2025-05-01T08:36:57Z</time>
      </trkpt>
      <trkpt lat="42.932099997997284" lon="-9.235705034807324">
        <ele>70.790000000000006</ele>
        <time>2025-05-01T08:36:58Z</time>
      </trkpt>
      <trkpt lat="42.932296972721815" lon="-9.235788015648723">
        <ele>70.310000000000002</ele>
        <time>2025-05-01T08:36:59Z</time>
      </trkpt>
      <trkpt lat="42.932896027341485" lon="-9.235956994816661">
        <ele>67.430000000000007</ele>
        <time>2025-05-01T08:37:02Z</time>
      </trkpt>
      <trkpt lat="42.933097025379539" lon="-9.235969986766577">
        <ele>66.469999999999999</ele>
        <time>2025-05-01T08:37:03Z</time>
      </trkpt>
      <trkpt lat="42.933298023417592" lon="-9.235918018966913">
        <ele>65.989999999999995</ele>
        <time>2025-05-01T08:37:04Z</time>
      </trkpt>
      <trkpt lat="42.933504972606897" lon="-9.235864961519837">
        <ele>65.030000000000001</ele>
        <time>2025-05-01T08:37:05Z</time>
      </trkpt>
      <trkpt lat="42.933714017271996" lon="-9.235815005376935">
        <ele>64.069999999999993</ele>
        <time>2025-05-01T08:37:06Z</time>
      </trkpt>
      <trkpt lat="42.934129005298018" lon="-9.235726995393634">
        <ele>60.700000000000003</ele>
        <time>2025-05-01T08:37:08Z</time>
      </trkpt>
      <trkpt lat="42.934339977800846" lon="-9.235682990401983">
        <ele>58.780000000000001</ele>
        <time>2025-05-01T08:37:09Z</time>
      </trkpt>
      <trkpt lat="42.936064973473549" lon="-9.236024972051382">
        <ele>46.759999999999998</ele>
        <time>2025-05-01T08:37:17Z</time>
      </trkpt>
      <trkpt lat="42.93748302385211" lon="-9.236788982525468">
        <ele>38.109999999999999</ele>
        <time>2025-05-01T08:37:24Z</time>
      </trkpt>
      <trkpt lat="42.937679998576641" lon="-9.236819995567203">
        <ele>36.670000000000002</ele>
        <time>2025-05-01T08:37:25Z</time>
      </trkpt>
      <trkpt lat="42.937855012714863" lon="-9.236782025545836">
        <ele>35.229999999999997</ele>
        <time>2025-05-01T08:37:26Z</time>
      </trkpt>
      <trkpt lat="42.938033966347575" lon="-9.236737014725804">
        <ele>34.259999999999998</ele>
        <time>2025-05-01T08:37:27Z</time>
      </trkpt>
      <trkpt lat="42.938208980485797" lon="-9.236666020005941">
        <ele>33.299999999999997</ele>
        <time>2025-05-01T08:37:28Z</time>
      </trkpt>
      <trkpt lat="42.938389023765922" lon="-9.23655697144568">
        <ele>32.340000000000003</ele>
        <time>2025-05-01T08:37:29Z</time>
      </trkpt>
      <trkpt lat="42.938572000712156" lon="-9.236445995047689">
        <ele>30.899999999999999</ele>
        <time>2025-05-01T08:37:30Z</time>
      </trkpt>
      <trkpt lat="42.939108023419976" lon="-9.236120022833347">
        <ele>27.530000000000001</ele>
        <time>2025-05-01T08:37:33Z</time>
      </trkpt>
      <trkpt lat="42.939274990931153" lon="-9.23599898815155">
        <ele>26.57</ele>
        <time>2025-05-01T08:37:34Z</time>
      </trkpt>
      <trkpt lat="42.939411029219627" lon="-9.235844006761909">
        <ele>25.609999999999999</ele>
        <time>2025-05-01T08:37:35Z</time>
      </trkpt>
      <trkpt lat="42.939527034759521" lon="-9.235686007887125">
        <ele>24.649999999999999</ele>
        <time>2025-05-01T08:37:36Z</time>
      </trkpt>
      <trkpt lat="42.93963398784399" lon="-9.235541000962257">
        <ele>24.170000000000002</ele>
        <time>2025-05-01T08:37:37Z</time>
      </trkpt>
      <trkpt lat="42.939948979765177" lon="-9.235183009877801">
        <ele>21.289999999999999</ele>
        <time>2025-05-01T08:37:40Z</time>
      </trkpt>
      <trkpt lat="42.940068002790213" lon="-9.235129030421376">
        <ele>20.32</ele>
        <time>2025-05-01T08:37:41Z</time>
      </trkpt>
      <trkpt lat="42.940181996673346" lon="-9.235083013772965">
        <ele>19.359999999999999</ele>
        <time>2025-05-01T08:37:42Z</time>
      </trkpt>
      <trkpt lat="42.940292973071337" lon="-9.235100029036403">
        <ele>18.399999999999999</ele>
        <time>2025-05-01T08:37:43Z</time>
      </trkpt>
      <trkpt lat="42.94040403328836" lon="-9.235116960480809">
        <ele>17.440000000000001</ele>
        <time>2025-05-01T08:37:44Z</time>
      </trkpt>
      <trkpt lat="42.940519032999873" lon="-9.235133975744247">
        <ele>16.960000000000001</ele>
        <time>2025-05-01T08:37:45Z</time>
      </trkpt>
      <trkpt lat="42.940765041857958" lon="-9.235168006271124">
        <ele>16</ele>
        <time>2025-05-01T08:37:47Z</time>
      </trkpt>
      <trkpt lat="42.941239038482308" lon="-9.23511897213757">
        <ele>15.039999999999999</ele>
        <time>2025-05-01T08:37:51Z</time>
      </trkpt>
      <trkpt lat="42.941346997395158" lon="-9.23507303930819">
        <ele>14.56</ele>
        <time>2025-05-01T08:37:52Z</time>
      </trkpt>
      <trkpt lat="42.941453028470278" lon="-9.234990980476141">
        <ele>14.56</ele>
        <time>2025-05-01T08:37:53Z</time>
      </trkpt>
      <trkpt lat="42.94154497794807" lon="-9.234897019341588">
        <ele>14.56</ele>
        <time>2025-05-01T08:37:54Z</time>
      </trkpt>
      <trkpt lat="42.94163198210299" lon="-9.234785959124565">
        <ele>14.08</ele>
        <time>2025-05-01T08:37:55Z</time>
      </trkpt>
      <trkpt lat="42.94171697460115" lon="-9.234669031575322">
        <ele>14.08</ele>
        <time>2025-05-01T08:37:56Z</time>
      </trkpt>
      <trkpt lat="42.942695980891585" lon="-9.233204964548349">
        <ele>11.19</ele>
        <time>2025-05-01T08:38:08Z</time>
      </trkpt>
      <trkpt lat="42.94285599142313" lon="-9.232962979003787">
        <ele>10.710000000000001</ele>
        <time>2025-05-01T08:38:10Z</time>
      </trkpt>
      <trkpt lat="42.942983983084559" lon="-9.232672965154052">
        <ele>9.75</ele>
        <time>2025-05-01T08:38:12Z</time>
      </trkpt>
      <trkpt lat="42.943031005561352" lon="-9.232516977936029">
        <ele>9.27</ele>
        <time>2025-05-01T08:38:13Z</time>
      </trkpt>
      <trkpt lat="42.943056989461184" lon="-9.232356967404485">
        <ele>9.27</ele>
        <time>2025-05-01T08:38:14Z</time>
      </trkpt>
      <trkpt lat="42.943082973361015" lon="-9.232200980186462">
        <ele>8.789999999999999</ele>
        <time>2025-05-01T08:38:15Z</time>
      </trkpt>
      <trkpt lat="42.943109963089228" lon="-9.232042981311679">
        <ele>8.310000000000001</ele>
        <time>2025-05-01T08:38:16Z</time>
      </trkpt>
      <trkpt lat="42.943339962512255" lon="-9.230451006442308">
        <ele>9.27</ele>
        <time>2025-05-01T08:38:26Z</time>
      </trkpt>
      <trkpt lat="42.943335017189384" lon="-9.23028102144599">
        <ele>10.23</ele>
        <time>2025-05-01T08:38:27Z</time>
      </trkpt>
      <trkpt lat="42.943310961127281" lon="-9.230120005086064">
        <ele>10.710000000000001</ele>
        <time>2025-05-01T08:38:28Z</time>
      </trkpt>
      <trkpt lat="42.943278020247817" lon="-9.229967035353184">
        <ele>11.67</ele>
        <time>2025-05-01T08:38:29Z</time>
      </trkpt>
      <trkpt lat="42.943233009427786" lon="-9.229807024821639">
        <ele>12.15</ele>
        <time>2025-05-01T08:38:30Z</time>
      </trkpt>
      <trkpt lat="42.943181041628122" lon="-9.229661012068391">
        <ele>13.119999999999999</ele>
        <time>2025-05-01T08:38:31Z</time>
      </trkpt>
      <trkpt lat="42.943034023046494" lon="-9.229215011000633">
        <ele>15.039999999999999</ele>
        <time>2025-05-01T08:38:34Z</time>
      </trkpt>
      <trkpt lat="42.942995969206095" lon="-9.229060029610992">
        <ele>16</ele>
        <time>2025-05-01T08:38:35Z</time>
      </trkpt>
      <trkpt lat="42.942918017506599" lon="-9.227908020839095">
        <ele>22.25</ele>
        <time>2025-05-01T08:38:42Z</time>
      </trkpt>
      <trkpt lat="42.94319998472929" lon="-9.226137008517981">
        <ele>32.82</ele>
        <time>2025-05-01T08:38:52Z</time>
      </trkpt>
      <trkpt lat="42.943679010495543" lon="-9.224850973114371">
        <ele>37.630000000000003</ele>
        <time>2025-05-01T08:39:00Z</time>
      </trkpt>
      <trkpt lat="42.943743970245123" lon="-9.224416958168149">
        <ele>37.149999999999999</ele>
        <time>2025-05-01T08:39:03Z</time>
      </trkpt>
      <trkpt lat="42.943814964964986" lon="-9.224292989820242">
        <ele>36.670000000000002</ele>
        <time>2025-05-01T08:39:04Z</time>
      </trkpt>
      <trkpt lat="42.943911021575332" lon="-9.224273040890694">
        <ele>36.189999999999998</ele>
        <time>2025-05-01T08:39:05Z</time>
      </trkpt>
      <trkpt lat="42.943991990759969" lon="-9.224302964285016">
        <ele>36.189999999999998</ele>
        <time>2025-05-01T08:39:06Z</time>
      </trkpt>
      <trkpt lat="42.944055022671819" lon="-9.22435300424695">
        <ele>36.189999999999998</ele>
        <time>2025-05-01T08:39:07Z</time>
      </trkpt>
      <trkpt lat="42.944141020998359" lon="-9.224516032263637">
        <ele>36.670000000000002</ele>
        <time>2025-05-01T08:39:08Z</time>
      </trkpt>
      <trkpt lat="42.944248979911208" lon="-9.224537992849946">
        <ele>37.149999999999999</ele>
        <time>2025-05-01T08:39:09Z</time>
      </trkpt>
      <trkpt lat="42.94438099488616" lon="-9.224538998678327">
        <ele>37.630000000000003</ele>
        <time>2025-05-01T08:39:10Z</time>
      </trkpt>
      <trkpt lat="42.944512004032731" lon="-9.224528018385172">
        <ele>38.109999999999999</ele>
        <time>2025-05-01T08:39:11Z</time>
      </trkpt>
      <trkpt lat="42.944653993472457" lon="-9.22446196898818">
        <ele>38.109999999999999</ele>
        <time>2025-05-01T08:39:12Z</time>
      </trkpt>
      <trkpt lat="42.944786008447409" lon="-9.224354010075331">
        <ele>38.590000000000003</ele>
        <time>2025-05-01T08:39:13Z</time>
      </trkpt>
      <trkpt lat="42.944926992058754" lon="-9.224239010363817">
        <ele>38.590000000000003</ele>
        <time>2025-05-01T08:39:14Z</time>
      </trkpt>
      <trkpt lat="42.94635602273047" lon="-9.222921961918473">
        <ele>41.950000000000003</ele>
        <time>2025-05-01T08:39:23Z</time>
      </trkpt>
      <trkpt lat="42.947633005678654" lon="-9.22123602591455">
        <ele>47.240000000000002</ele>
        <time>2025-05-01T08:39:31Z</time>
      </trkpt>
      <trkpt lat="42.949798973277211" lon="-9.218084011226893">
        <ele>64.549999999999997</ele>
        <time>2025-05-01T08:39:44Z</time>
      </trkpt>
      <trkpt lat="42.952259983867407" lon="-9.214460011571646">
        <ele>90.019999999999996</ele>
        <time>2025-05-01T08:39:59Z</time>
      </trkpt>
      <trkpt lat="42.954258983954787" lon="-9.212012998759747">
        <ele>107.81</ele>
        <time>2025-05-01T08:40:10Z</time>
      </trkpt>
      <trkpt lat="42.956078024581075" lon="-9.210756970569491">
        <ele>118.38</ele>
        <time>2025-05-01T08:40:18Z</time>
      </trkpt>
      <trkpt lat="42.958123041316867" lon="-9.21015003696084">
        <ele>129.91999999999999</ele>
        <time>2025-05-01T08:40:26Z</time>
      </trkpt>
      <trkpt lat="42.961060982197523" lon="-9.209513012319803">
        <ele>144.81999999999999</ele>
        <time>2025-05-01T08:40:37Z</time>
      </trkpt>
      <trkpt lat="42.963434988632798" lon="-9.208742966875434">
        <ele>151.53999999999999</ele>
        <time>2025-05-01T08:40:46Z</time>
      </trkpt>
      <trkpt lat="42.96500701457262" lon="-9.207498002797365">
        <ele>150.09999999999999</ele>
        <time>2025-05-01T08:40:53Z</time>
      </trkpt>
      <trkpt lat="42.966301012784243" lon="-9.205836039036512">
        <ele>148.18000000000001</ele>
        <time>2025-05-01T08:41:00Z</time>
      </trkpt>
      <trkpt lat="42.968698991462588" lon="-9.202501969411969">
        <ele>134.24000000000001</ele>
        <time>2025-05-01T08:41:13Z</time>
      </trkpt>
      <trkpt lat="42.971234014257789" lon="-9.198985006660223">
        <ele>114.05</ele>
        <time>2025-05-01T08:41:27Z</time>
      </trkpt>
      <trkpt lat="42.973157996311784" lon="-9.196321992203593">
        <ele>99.150000000000006</ele>
        <time>2025-05-01T08:41:38Z</time>
      </trkpt>
      <trkpt lat="42.975203013047576" lon="-9.193431995809078">
        <ele>88.099999999999994</ele>
        <time>2025-05-01T08:41:50Z</time>
      </trkpt>
      <trkpt lat="42.976761041209102" lon="-9.190990012139082">
        <ele>84.730000000000004</ele>
        <time>2025-05-01T08:42:01Z</time>
      </trkpt>
      <trkpt lat="42.977109979838133" lon="-9.189974963665009">
        <ele>85.689999999999998</ele>
        <time>2025-05-01T08:42:07Z</time>
      </trkpt>
      <trkpt lat="42.977308966219425" lon="-9.189304998144507">
        <ele>85.689999999999998</ele>
        <time>2025-05-01T08:42:12Z</time>
      </trkpt>
      <trkpt lat="42.977350037544966" lon="-9.189196033403277">
        <ele>85.689999999999998</ele>
        <time>2025-05-01T08:42:13Z</time>
      </trkpt>
      <trkpt lat="42.977250041440129" lon="-9.18896896764636">
        <ele>85.689999999999998</ele>
        <time>2025-05-01T08:42:14Z</time>
      </trkpt>
      <trkpt lat="42.977235037833452" lon="-9.188895039260387">
        <ele>85.689999999999998</ele>
        <time>2025-05-01T08:42:15Z</time>
      </trkpt>
      <trkpt lat="42.977215005084872" lon="-9.188728993758559">
        <ele>86.180000000000007</ele>
        <time>2025-05-01T08:42:16Z</time>
      </trkpt>
      <trkpt lat="42.977250963449478" lon="-9.18860100209713">
        <ele>86.180000000000007</ele>
        <time>2025-05-01T08:42:17Z</time>
      </trkpt>
      <trkpt lat="42.977324975654483" lon="-9.188432022929192">
        <ele>86.180000000000007</ele>
        <time>2025-05-01T08:42:18Z</time>
      </trkpt>
      <trkpt lat="42.977412985637784" lon="-9.188368991017342">
        <ele>86.180000000000007</ele>
        <time>2025-05-01T08:42:19Z</time>
      </trkpt>
      <trkpt lat="42.977552963420749" lon="-9.188368991017342">
        <ele>86.659999999999997</ele>
        <time>2025-05-01T08:42:20Z</time>
      </trkpt>
      <trkpt lat="42.977657988667488" lon="-9.188390029594302">
        <ele>86.659999999999997</ele>
        <time>2025-05-01T08:42:21Z</time>
      </trkpt>
      <trkpt lat="42.977825962007046" lon="-9.188496982678771">
        <ele>86.180000000000007</ele>
        <time>2025-05-01T08:42:22Z</time>
      </trkpt>
      <trkpt lat="42.977980021387339" lon="-9.188390029594302">
        <ele>85.689999999999998</ele>
        <time>2025-05-01T08:42:23Z</time>
      </trkpt>
      <trkpt lat="42.979205036535859" lon="-9.187915027141571">
        <ele>83.769999999999996</ele>
        <time>2025-05-01T08:42:31Z</time>
      </trkpt>
      <trkpt lat="42.980831963941455" lon="-9.187265010550618">
        <ele>88.579999999999998</ele>
        <time>2025-05-01T08:42:41Z</time>
      </trkpt>
      <trkpt lat="42.982359984889627" lon="-9.186638966202736">
        <ele>90.980000000000004</ele>
        <time>2025-05-01T08:42:52Z</time>
      </trkpt>
      <trkpt lat="42.984396032989025" lon="-9.185815025120974">
        <ele>87.620000000000005</ele>
        <time>2025-05-01T08:43:06Z</time>
      </trkpt>
      <trkpt lat="42.986080041155219" lon="-9.185175988823175">
        <ele>85.689999999999998</ele>
        <time>2025-05-01T08:43:16Z</time>
      </trkpt>
      <trkpt lat="42.986421016976237" lon="-9.185041962191463">
        <ele>85.209999999999994</ele>
        <time>2025-05-01T08:43:19Z</time>
      </trkpt>
      <trkpt lat="42.986488994210958" lon="-9.185012960806489">
        <ele>85.689999999999998</ele>
        <time>2025-05-01T08:43:20Z</time>
      </trkpt>
      <trkpt lat="42.98653400503099" lon="-9.185101976618171">
        <ele>85.689999999999998</ele>
        <time>2025-05-01T08:43:21Z</time>
      </trkpt>
      <trkpt lat="42.986544985324144" lon="-9.185178000479937">
        <ele>85.689999999999998</ele>
        <time>2025-05-01T08:43:22Z</time>
      </trkpt>
      <trkpt lat="42.986559988930821" lon="-9.185283025726676">
        <ele>85.209999999999994</ele>
        <time>2025-05-01T08:43:23Z</time>
      </trkpt>
      <trkpt lat="42.986579015851021" lon="-9.185413029044867">
        <ele>85.209999999999994</ele>
        <time>2025-05-01T08:43:24Z</time>
      </trkpt>
      <trkpt lat="42.98677196726203" lon="-9.186549028381705">
        <ele>82.329999999999998</ele>
        <time>2025-05-01T08:43:30Z</time>
      </trkpt>
      <trkpt lat="42.986828964203596" lon="-9.186746003106237">
        <ele>82.329999999999998</ele>
        <time>2025-05-01T08:43:31Z</time>
      </trkpt>
      <trkpt lat="42.98689803108573" lon="-9.186935015022755">
        <ele>82.810000000000002</ele>
        <time>2025-05-01T08:43:32Z</time>
      </trkpt>
      <trkpt lat="42.986986041069031" lon="-9.187112962827086">
        <ele>83.769999999999996</ele>
        <time>2025-05-01T08:43:33Z</time>
      </trkpt>
      <trkpt lat="42.987086037173867" lon="-9.187275990843773">
        <ele>84.730000000000004</ele>
        <time>2025-05-01T08:43:34Z</time>
      </trkpt>
      <trkpt lat="42.988065965473652" lon="-9.188970979303122">
        <ele>86.659999999999997</ele>
        <time>2025-05-01T08:43:43Z</time>
      </trkpt>
      <trkpt lat="42.988300994038582" lon="-9.189376998692751">
        <ele>85.689999999999998</ele>
        <time>2025-05-01T08:43:45Z</time>
      </trkpt>
      <trkpt lat="42.988446000963449" lon="-9.189473977312446">
        <ele>85.209999999999994</ele>
        <time>2025-05-01T08:43:46Z</time>
      </trkpt>
      <trkpt lat="42.988607017323375" lon="-9.189557963982225">
        <ele>84.730000000000004</ele>
        <time>2025-05-01T08:43:47Z</time>
      </trkpt>
      <trkpt lat="42.989138010889292" lon="-9.18984898366034">
        <ele>84.25</ele>
        <time>2025-05-01T08:43:50Z</time>
      </trkpt>
      <trkpt lat="42.989285029470921" lon="-9.190006982535124">
        <ele>84.25</ele>
        <time>2025-05-01T08:43:51Z</time>
      </trkpt>
      <trkpt lat="42.989441016688943" lon="-9.190175039693713">
        <ele>84.25</ele>
        <time>2025-05-01T08:43:52Z</time>
      </trkpt>
      <trkpt lat="42.990092039108276" lon="-9.191139964386821">
        <ele>88.579999999999998</ele>
        <time>2025-05-01T08:43:58Z</time>
      </trkpt>
      <trkpt lat="42.990250959992409" lon="-9.191342974081636">
        <ele>90.5</ele>
        <time>2025-05-01T08:44:00Z</time>
      </trkpt>
      <trkpt lat="42.990324972197413" lon="-9.19143601320684">
        <ele>90.980000000000004</ele>
        <time>2025-05-01T08:44:01Z</time>
      </trkpt>
      <trkpt lat="42.990414993837476" lon="-9.191487981006503">
        <ele>91.939999999999998</ele>
        <time>2025-05-01T08:44:02Z</time>
      </trkpt>
      <trkpt lat="42.990528987720609" lon="-9.191504996269941">
        <ele>92.420000000000002</ele>
        <time>2025-05-01T08:44:03Z</time>
      </trkpt>
      <trkpt lat="42.990651028230786" lon="-9.19152301736176">
        <ele>92.900000000000006</ele>
        <time>2025-05-01T08:44:04Z</time>
      </trkpt>
      <trkpt lat="42.990777008235455" lon="-9.191541960462928">
        <ele>93.390000000000001</ele>
        <time>2025-05-01T08:44:05Z</time>
      </trkpt>
      <trkpt lat="42.991271959617734" lon="-9.191464008763433">
        <ele>93.390000000000001</ele>
        <time>2025-05-01T08:44:09Z</time>
      </trkpt>
      <trkpt lat="42.991389976814389" lon="-9.191443976014853">
        <ele>93.390000000000001</ele>
        <time>2025-05-01T08:44:10Z</time>
      </trkpt>
      <trkpt lat="42.99207704141736" lon="-9.19113602489233">
        <ele>95.310000000000002</ele>
        <time>2025-05-01T08:44:16Z</time>
      </trkpt>
      <trkpt lat="42.992198998108506" lon="-9.191152034327388">
        <ele>96.269999999999996</ele>
        <time>2025-05-01T08:44:17Z</time>
      </trkpt>
      <trkpt lat="42.992317015305161" lon="-9.191166032105684">
        <ele>96.75</ele>
        <time>2025-05-01T08:44:18Z</time>
      </trkpt>
      <trkpt lat="42.99304598942399" lon="-9.191337022930384">
        <ele>98.189999999999998</ele>
        <time>2025-05-01T08:44:24Z</time>
      </trkpt>
      <trkpt lat="42.99317398108542" lon="-9.191345991566777">
        <ele>97.709999999999994</ele>
        <time>2025-05-01T08:44:25Z</time>
      </trkpt>
      <trkpt lat="42.993299039080739" lon="-9.191323025152087">
        <ele>97.709999999999994</ele>
        <time>2025-05-01T08:44:26Z</time>
      </trkpt>
      <trkpt lat="42.993414960801601" lon="-9.191245995461941">
        <ele>97.709999999999994</ele>
        <time>2025-05-01T08:44:27Z</time>
      </trkpt>
      <trkpt lat="42.993528032675385" lon="-9.191170977428556">
        <ele>97.709999999999994</ele>
        <time>2025-05-01T08:44:28Z</time>
      </trkpt>
      <trkpt lat="42.993633979931474" lon="-9.191073998808861">
        <ele>98.189999999999998</ele>
        <time>2025-05-01T08:44:29Z</time>
      </trkpt>
      <trkpt lat="42.993727019056678" lon="-9.190967967733741">
        <ele>97.709999999999994</ele>
        <time>2025-05-01T08:44:30Z</time>
      </trkpt>
      <trkpt lat="42.993817962706089" lon="-9.19087702408433">
        <ele>97.230000000000004</ele>
        <time>2025-05-01T08:44:31Z</time>
      </trkpt>
      <trkpt lat="42.993922987952828" lon="-9.19077199883759">
        <ele>97.230000000000004</ele>
        <time>2025-05-01T08:44:32Z</time>
      </trkpt>
      <trkpt lat="42.994006974622607" lon="-9.190730005502701">
        <ele>97.709999999999994</ele>
        <time>2025-05-01T08:44:33Z</time>
      </trkpt>
      <trkpt lat="42.994111999869347" lon="-9.190696980804205">
        <ele>98.189999999999998</ele>
        <time>2025-05-01T08:44:34Z</time>
      </trkpt>
      <trkpt lat="42.994207972660661" lon="-9.190693041309714">
        <ele>98.189999999999998</ele>
        <time>2025-05-01T08:44:35Z</time>
      </trkpt>
      <trkpt lat="42.994306962937117" lon="-9.190720031037927">
        <ele>98.670000000000002</ele>
        <time>2025-05-01T08:44:36Z</time>
      </trkpt>
      <trkpt lat="42.994416011497378" lon="-9.190750038251281">
        <ele>99.150000000000006</ele>
        <time>2025-05-01T08:44:37Z</time>
      </trkpt>
      <trkpt lat="42.995284963399172" lon="-9.191151028499007">
        <ele>101.08</ele>
        <time>2025-05-01T08:44:46Z</time>
      </trkpt>
      <trkpt lat="42.995359981432557" lon="-9.191183969378471">
        <ele>101.08</ele>
        <time>2025-05-01T08:44:47Z</time>
      </trkpt>
      <trkpt lat="42.995427036657929" lon="-9.191213976591826">
        <ele>101.08</ele>
        <time>2025-05-01T08:44:48Z</time>
      </trkpt>
      <trkpt lat="42.995459977537394" lon="-9.191236020997167">
        <ele>101.08</ele>
        <time>2025-05-01T08:44:49Z</time>
      </trkpt>
      <trkpt lat="42.995468024164438" lon="-9.19124398380518">
        <ele>100.59999999999999</ele>
        <time>2025-05-01T08:44:50Z</time>
      </trkpt>
      <trkpt lat="42.995468024164438" lon="-9.19124398380518">
        <ele>100.59999999999999</ele>
        <time>2025-05-01T08:44:51Z</time>
      </trkpt>
      <trkpt lat="42.995448997244239" lon="-9.19130701571703">
        <ele>100.11</ele>
        <time>2025-05-01T08:44:52Z</time>
      </trkpt>
      <trkpt lat="42.99543097615242" lon="-9.191369041800499">
        <ele>100.11</ele>
        <time>2025-05-01T08:44:53Z</time>
      </trkpt>
      <trkpt lat="42.995409015566111" lon="-9.191442970186472">
        <ele>100.11</ele>
        <time>2025-05-01T08:44:54Z</time>
      </trkpt>
      <trkpt lat="42.995381020009518" lon="-9.191539026796818">
        <ele>100.11</ele>
        <time>2025-05-01T08:44:55Z</time>
      </trkpt>
      <trkpt lat="42.995330980047584" lon="-9.191796015948057">
        <ele>101.08</ele>
        <time>2025-05-01T08:44:57Z</time>
      </trkpt>
      <trkpt lat="42.995307007804513" lon="-9.191946974024177">
        <ele>101.56</ele>
        <time>2025-05-01T08:44:58Z</time>
      </trkpt>
      <trkpt lat="42.99515001475811" lon="-9.192591961473227">
        <ele>103</ele>
        <time>2025-05-01T08:45:02Z</time>
      </trkpt>
      <trkpt lat="42.995098968967795" lon="-9.192752977833152">
        <ele>103.48</ele>
        <time>2025-05-01T08:45:03Z</time>
      </trkpt>
      <trkpt lat="42.995037026703358" lon="-9.192910976707935">
        <ele>103.95999999999999</ele>
        <time>2025-05-01T08:45:04Z</time>
      </trkpt>
      <trkpt lat="42.994949016720057" lon="-9.193054977804422">
        <ele>104.44</ele>
        <time>2025-05-01T08:45:05Z</time>
      </trkpt>
      <trkpt lat="42.994856983423233" lon="-9.193200990557671">
        <ele>104.92</ele>
        <time>2025-05-01T08:45:06Z</time>
      </trkpt>
      <trkpt lat="42.994704013690352" lon="-9.193527968600392">
        <ele>105.88</ele>
        <time>2025-05-01T08:45:08Z</time>
      </trkpt>
      <trkpt lat="42.994637964293361" lon="-9.193692002445459">
        <ele>106.36</ele>
        <time>2025-05-01T08:45:09Z</time>
      </trkpt>
      <trkpt lat="42.994602005928755" lon="-9.193874979391694">
        <ele>106.36</ele>
        <time>2025-05-01T08:45:10Z</time>
      </trkpt>
      <trkpt lat="42.994366977363825" lon="-9.195509031414986">
        <ele>106.36</ele>
        <time>2025-05-01T08:45:17Z</time>
      </trkpt>
      <trkpt lat="42.994136977940798" lon="-9.197509959340096">
        <ele>106.84</ele>
        <time>2025-05-01T08:45:26Z</time>
      </trkpt>
      <trkpt lat="42.994144018739462" lon="-9.197723027318716">
        <ele>106.84</ele>
        <time>2025-05-01T08:45:27Z</time>
      </trkpt>
      <trkpt lat="42.994154999032617" lon="-9.197940034791827">
        <ele>106.84</ele>
        <time>2025-05-01T08:45:28Z</time>
      </trkpt>
      <trkpt lat="42.994187017902732" lon="-9.198154024779797">
        <ele>107.31999999999999</ele>
        <time>2025-05-01T08:45:29Z</time>
      </trkpt>
      <trkpt lat="42.994688004255295" lon="-9.20097797177732">
        <ele>116.45999999999999</ele>
        <time>2025-05-01T08:45:41Z</time>
      </trkpt>
      <trkpt lat="42.994673000648618" lon="-9.201224986463785">
        <ele>116.94</ele>
        <time>2025-05-01T08:45:42Z</time>
      </trkpt>
      <trkpt lat="42.994651040062308" lon="-9.201482981443405">
        <ele>116.94</ele>
        <time>2025-05-01T08:45:43Z</time>
      </trkpt>
      <trkpt lat="42.994533022865653" lon="-9.203504025936127">
        <ele>114.05</ele>
        <time>2025-05-01T08:45:50Z</time>
      </trkpt>
      <trkpt lat="42.994565963745117" lon="-9.205319965258241">
        <ele>109.73</ele>
        <time>2025-05-01T08:45:57Z</time>
      </trkpt>
      <trkpt lat="42.994608040899038" lon="-9.206163017079234">
        <ele>107.31999999999999</ele>
        <time>2025-05-01T08:46:01Z</time>
      </trkpt>
      <trkpt lat="42.994647016748786" lon="-9.20636803843081">
        <ele>107.31999999999999</ele>
        <time>2025-05-01T08:46:02Z</time>
      </trkpt>
      <trkpt lat="42.995092011988163" lon="-9.208308029919863">
        <ele>104.92</ele>
        <time>2025-05-01T08:46:11Z</time>
      </trkpt>
      <trkpt lat="42.995125958696008" lon="-9.208520008251071">
        <ele>104.44</ele>
        <time>2025-05-01T08:46:12Z</time>
      </trkpt>
      <trkpt lat="42.995156971737742" lon="-9.208726035431027">
        <ele>103.48</ele>
        <time>2025-05-01T08:46:13Z</time>
      </trkpt>
      <trkpt lat="42.995227966457605" lon="-9.209299022331834">
        <ele>101.08</ele>
        <time>2025-05-01T08:46:16Z</time>
      </trkpt>
      <trkpt lat="42.995307007804513" lon="-9.209432965144515">
        <ele>99.629999999999995</ele>
        <time>2025-05-01T08:46:17Z</time>
      </trkpt>
      <trkpt lat="42.995395017787814" lon="-9.20954997651279">
        <ele>98.670000000000002</ele>
        <time>2025-05-01T08:46:18Z</time>
      </trkpt>
      <trkpt lat="42.995554022490978" lon="-9.20976203866303">
        <ele>96.75</ele>
        <time>2025-05-01T08:46:20Z</time>
      </trkpt>
      <trkpt lat="42.995586963370442" lon="-9.209896987304092">
        <ele>95.790000000000006</ele>
        <time>2025-05-01T08:46:21Z</time>
      </trkpt>
      <trkpt lat="42.995617976412177" lon="-9.210019027814269">
        <ele>94.829999999999998</ele>
        <time>2025-05-01T08:46:22Z</time>
      </trkpt>
      <trkpt lat="42.995611019432545" lon="-9.210115000605583">
        <ele>93.870000000000005</ele>
        <time>2025-05-01T08:46:23Z</time>
      </trkpt>
      <trkpt lat="42.9956029728055" lon="-9.210207033902407">
        <ele>92.900000000000006</ele>
        <time>2025-05-01T08:46:24Z</time>
      </trkpt>
      <trkpt lat="42.995648989453912" lon="-9.210311975330114">
        <ele>92.420000000000002</ele>
        <time>2025-05-01T08:46:25Z</time>
      </trkpt>
      <trkpt lat="42.995703974738717" lon="-9.210327984765172">
        <ele>91.459999999999994</ele>
        <time>2025-05-01T08:46:26Z</time>
      </trkpt>
      <trkpt lat="42.995784021914005" lon="-9.210350029170513">
        <ele>90.5</ele>
        <time>2025-05-01T08:46:27Z</time>
      </trkpt>
      <trkpt lat="42.995882006362081" lon="-9.210377018898726">
        <ele>89.540000000000006</ele>
        <time>2025-05-01T08:46:28Z</time>
      </trkpt>
      <trkpt lat="42.996911974623799" lon="-9.21066896058619">
        <ele>88.099999999999994</ele>
        <time>2025-05-01T08:46:36Z</time>
      </trkpt>
      <trkpt lat="42.997959963977337" lon="-9.21096702106297">
        <ele>89.060000000000002</ele>
        <time>2025-05-01T08:46:45Z</time>
      </trkpt>
      <trkpt lat="42.999010970816016" lon="-9.211300034075975">
        <ele>88.579999999999998</ele>
        <time>2025-05-01T08:46:55Z</time>
      </trkpt>
      <trkpt lat="43.000106988474727" lon="-9.211990032345057">
        <ele>89.540000000000006</ele>
        <time>2025-05-01T08:47:05Z</time>
      </trkpt>
      <trkpt lat="43.001370979472995" lon="-9.21296501532197">
        <ele>85.209999999999994</ele>
        <time>2025-05-01T08:47:17Z</time>
      </trkpt>
      <trkpt lat="43.002578979358077" lon="-9.213901022449136">
        <ele>83.290000000000006</ele>
        <time>2025-05-01T08:47:28Z</time>
      </trkpt>
      <trkpt lat="43.004356026649475" lon="-9.215281018987298">
        <ele>81.849999999999994</ele>
        <time>2025-05-01T08:47:43Z</time>
      </trkpt>
      <trkpt lat="43.005740968510509" lon="-9.216355998069048">
        <ele>77.519999999999996</ele>
        <time>2025-05-01T08:47:55Z</time>
      </trkpt>
      <trkpt lat="43.005864014849067" lon="-9.21642498113215">
        <ele>77.040000000000006</ele>
        <time>2025-05-01T08:47:56Z</time>
      </trkpt>
      <trkpt lat="43.005992006510496" lon="-9.216479966416955">
        <ele>76.560000000000002</ele>
        <time>2025-05-01T08:47:57Z</time>
      </trkpt>
      <trkpt lat="43.006127960979939" lon="-9.216492036357522">
        <ele>76.079999999999998</ele>
        <time>2025-05-01T08:47:58Z</time>
      </trkpt>
      <trkpt lat="43.007378960028291" lon="-9.216387011110783">
        <ele>69.349999999999994</ele>
        <time>2025-05-01T08:48:06Z</time>
      </trkpt>
      <trkpt lat="43.008073987439275" lon="-9.216358009725809">
        <ele>65.030000000000001</ele>
        <time>2025-05-01T08:48:10Z</time>
      </trkpt>
      <trkpt lat="43.008238021284342" lon="-9.216365972533822">
        <ele>64.069999999999993</ele>
        <time>2025-05-01T08:48:11Z</time>
      </trkpt>
      <trkpt lat="43.008402977138758" lon="-9.216418024152517">
        <ele>62.619999999999997</ele>
        <time>2025-05-01T08:48:12Z</time>
      </trkpt>
      <trkpt lat="43.00855603069067" lon="-9.216505028307438">
        <ele>61.659999999999997</ele>
        <time>2025-05-01T08:48:13Z</time>
      </trkpt>
      <trkpt lat="43.008689973503351" lon="-9.216642994433641">
        <ele>60.700000000000003</ele>
        <time>2025-05-01T08:48:14Z</time>
      </trkpt>
      <trkpt lat="43.008806984871626" lon="-9.216813985258341">
        <ele>59.259999999999998</ele>
        <time>2025-05-01T08:48:15Z</time>
      </trkpt>
      <trkpt lat="43.008911004289985" lon="-9.217002997174859">
        <ele>57.82</ele>
        <time>2025-05-01T08:48:16Z</time>
      </trkpt>
      <trkpt lat="43.008958026766777" lon="-9.217228973284364">
        <ele>56.369999999999997</ele>
        <time>2025-05-01T08:48:17Z</time>
      </trkpt>
      <trkpt lat="43.009006977081299" lon="-9.217465007677674">
        <ele>55.409999999999997</ele>
        <time>2025-05-01T08:48:18Z</time>
      </trkpt>
      <trkpt lat="43.00902902148664" lon="-9.217703975737095">
        <ele>54.450000000000003</ele>
        <time>2025-05-01T08:48:19Z</time>
      </trkpt>
      <trkpt lat="43.00905198790133" lon="-9.21795099042356">
        <ele>53.490000000000002</ele>
        <time>2025-05-01T08:48:20Z</time>
      </trkpt>
      <trkpt lat="43.009079983457923" lon="-9.218773003667593">
        <ele>51.090000000000003</ele>
        <time>2025-05-01T08:48:24Z</time>
      </trkpt>
      <trkpt lat="43.009074032306671" lon="-9.218953968957067">
        <ele>50.130000000000003</ele>
        <time>2025-05-01T08:48:25Z</time>
      </trkpt>
      <trkpt lat="43.009011000394821" lon="-9.219129988923669">
        <ele>49.649999999999999</ele>
        <time>2025-05-01T08:48:26Z</time>
      </trkpt>
      <trkpt lat="43.008920978754759" lon="-9.219307014718652">
        <ele>49.159999999999997</ele>
        <time>2025-05-01T08:48:27Z</time>
      </trkpt>
      <trkpt lat="43.008829029276967" lon="-9.219486974179745">
        <ele>49.159999999999997</ele>
        <time>2025-05-01T08:48:28Z</time>
      </trkpt>
      <trkpt lat="43.00827800296247" lon="-9.220619034022093">
        <ele>46.759999999999998</ele>
        <time>2025-05-01T08:48:35Z</time>
      </trkpt>
      <trkpt lat="43.008265011012554" lon="-9.220791030675173">
        <ele>46.759999999999998</ele>
        <time>2025-05-01T08:48:36Z</time>
      </trkpt>
      <trkpt lat="43.008251013234258" lon="-9.220965038985014">
        <ele>46.280000000000001</ele>
        <time>2025-05-01T08:48:37Z</time>
      </trkpt>
      <trkpt lat="43.008246989920735" lon="-9.221335016191006">
        <ele>45.799999999999997</ele>
        <time>2025-05-01T08:48:39Z</time>
      </trkpt>
      <trkpt lat="43.008342040702701" lon="-9.222745019942522">
        <ele>44.840000000000003</ele>
        <time>2025-05-01T08:48:46Z</time>
      </trkpt>
      <trkpt lat="43.008355032652617" lon="-9.222961021587253">
        <ele>44.840000000000003</ele>
        <time>2025-05-01T08:48:47Z</time>
      </trkpt>
      <trkpt lat="43.008458968251944" lon="-9.224422993138433">
        <ele>50.609999999999999</ele>
        <time>2025-05-01T08:48:55Z</time>
      </trkpt>
      <trkpt lat="43.008491992950439" lon="-9.224632037803531">
        <ele>51.57</ele>
        <time>2025-05-01T08:48:56Z</time>
      </trkpt>
      <trkpt lat="43.008546978235245" lon="-9.22473999671638">
        <ele>53.009999999999998</ele>
        <time>2025-05-01T08:48:57Z</time>
      </trkpt>
      <trkpt lat="43.008613027632236" lon="-9.224874023348093">
        <ele>54.450000000000003</ele>
        <time>2025-05-01T08:48:58Z</time>
      </trkpt>
      <trkpt lat="43.008700031787157" lon="-9.224990028887987">
        <ele>55.409999999999997</ele>
        <time>2025-05-01T08:48:59Z</time>
      </trkpt>
      <trkpt lat="43.008788963779807" lon="-9.22510301694274">
        <ele>56.369999999999997</ele>
        <time>2025-05-01T08:49:00Z</time>
      </trkpt>
      <trkpt lat="43.008885020390153" lon="-9.225218016654253">
        <ele>57.340000000000003</ele>
        <time>2025-05-01T08:49:01Z</time>
      </trkpt>
      <trkpt lat="43.010097965598106" lon="-9.226452000439167">
        <ele>57.340000000000003</ele>
        <time>2025-05-01T08:49:13Z</time>
      </trkpt>
      <trkpt lat="43.011603020131588" lon="-9.227881031110883">
        <ele>59.740000000000002</ele>
        <time>2025-05-01T08:49:27Z</time>
      </trkpt>
      <trkpt lat="43.011725982651114" lon="-9.227940961718559">
        <ele>59.740000000000002</ele>
        <time>2025-05-01T08:49:28Z</time>
      </trkpt>
      <trkpt lat="43.013661028817296" lon="-9.228696003556252">
        <ele>64.549999999999997</ele>
        <time>2025-05-01T08:49:43Z</time>
      </trkpt>
      <trkpt lat="43.015014035627246" lon="-9.229348031803966">
        <ele>71.269999999999996</ele>
        <time>2025-05-01T08:49:52Z</time>
      </trkpt>
      <trkpt lat="43.015155019238591" lon="-9.229439981281757">
        <ele>71.269999999999996</ele>
        <time>2025-05-01T08:49:53Z</time>
      </trkpt>
      <trkpt lat="43.015263983979821" lon="-9.229548024013639">
        <ele>71.760000000000005</ele>
        <time>2025-05-01T08:49:54Z</time>
      </trkpt>
      <trkpt lat="43.015335984528065" lon="-9.229694036766887">
        <ele>72.239999999999995</ele>
        <time>2025-05-01T08:49:55Z</time>
      </trkpt>
      <trkpt lat="43.015406979247928" lon="-9.229847006499767">
        <ele>73.680000000000007</ele>
        <time>2025-05-01T08:49:56Z</time>
      </trkpt>
      <trkpt lat="43.015449978411198" lon="-9.23004699870944">
        <ele>75.120000000000005</ele>
        <time>2025-05-01T08:49:57Z</time>
      </trkpt>
      <trkpt lat="43.015499012544751" lon="-9.230267023667693">
        <ele>76.560000000000002</ele>
        <time>2025-05-01T08:49:58Z</time>
      </trkpt>
      <trkpt lat="43.015751978382468" lon="-9.231428001075983">
        <ele>88.099999999999994</ele>
        <time>2025-05-01T08:50:04Z</time>
      </trkpt>
      <trkpt lat="43.015889022499323" lon="-9.23198196105659">
        <ele>93.870000000000005</ele>
        <time>2025-05-01T08:50:07Z</time>
      </trkpt>
      <trkpt lat="43.015951970592141" lon="-9.232149012386799">
        <ele>95.790000000000006</ele>
        <time>2025-05-01T08:50:08Z</time>
      </trkpt>
      <trkpt lat="43.016030006110668" lon="-9.232298964634538">
        <ele>97.709999999999994</ele>
        <time>2025-05-01T08:50:09Z</time>
      </trkpt>
      <trkpt lat="43.016735007986426" lon="-9.233292974531651">
        <ele>104.92</ele>
        <time>2025-05-01T08:50:14Z</time>
      </trkpt>
      <trkpt lat="43.017312018200755" lon="-9.234029995277524">
        <ele>109.25</ele>
        <time>2025-05-01T08:50:18Z</time>
      </trkpt>
      <trkpt lat="43.017617035657167" lon="-9.234206015244126">
        <ele>112.13</ele>
        <time>2025-05-01T08:50:20Z</time>
      </trkpt>
      <trkpt lat="43.017995981499553" lon="-9.234424028545618">
        <ele>115.5</ele>
        <time>2025-05-01T08:50:23Z</time>
      </trkpt>
      <trkpt lat="43.018083991482854" lon="-9.234524024650455">
        <ele>116.45999999999999</ele>
        <time>2025-05-01T08:50:24Z</time>
      </trkpt>
      <trkpt lat="43.018108969554305" lon="-9.234685963019729">
        <ele>116.94</ele>
        <time>2025-05-01T08:50:25Z</time>
      </trkpt>
      <trkpt lat="43.018125984817743" lon="-9.234840022400022">
        <ele>117.42</ele>
        <time>2025-05-01T08:50:26Z</time>
      </trkpt>
      <trkpt lat="43.018119027838111" lon="-9.235013024881482">
        <ele>118.38</ele>
        <time>2025-05-01T08:50:27Z</time>
      </trkpt>
      <trkpt lat="43.018111987039447" lon="-9.235194995999336">
        <ele>119.81999999999999</ele>
        <time>2025-05-01T08:50:28Z</time>
      </trkpt>
      <trkpt lat="43.018116010352969" lon="-9.235552987083793">
        <ele>121.26000000000001</ele>
        <time>2025-05-01T08:50:30Z</time>
      </trkpt>
      <trkpt lat="43.018123973160982" lon="-9.23571802675724">
        <ele>122.22</ele>
        <time>2025-05-01T08:50:31Z</time>
      </trkpt>
      <trkpt lat="43.018193040043116" lon="-9.235882982611656">
        <ele>122.70999999999999</ele>
        <time>2025-05-01T08:50:32Z</time>
      </trkpt>
      <trkpt lat="43.018971970304847" lon="-9.237225009128451">
        <ele>121.73999999999999</ele>
        <time>2025-05-01T08:50:40Z</time>
      </trkpt>
      <trkpt lat="43.020129008218646" lon="-9.239266002550721">
        <ele>115.5</ele>
        <time>2025-05-01T08:50:50Z</time>
      </trkpt>
      <trkpt lat="43.021889040246606" lon="-9.242369988933206">
        <ele>108.77</ele>
        <time>2025-05-01T08:51:04Z</time>
      </trkpt>
      <trkpt lat="43.023260990157723" lon="-9.244761010631919">
        <ele>104.44</ele>
        <time>2025-05-01T08:51:15Z</time>
      </trkpt>
      <trkpt lat="43.024839973077178" lon="-9.24751597456634">
        <ele>108.77</ele>
        <time>2025-05-01T08:51:28Z</time>
      </trkpt>
      <trkpt lat="43.026321977376938" lon="-9.250064995139837">
        <ele>117.90000000000001</ele>
        <time>2025-05-01T08:51:40Z</time>
      </trkpt>
      <trkpt lat="43.026567986235023" lon="-9.250373030081391">
        <ele>120.3</ele>
        <time>2025-05-01T08:51:42Z</time>
      </trkpt>
      <trkpt lat="43.02668902091682" lon="-9.250509990379214">
        <ele>121.26000000000001</ele>
        <time>2025-05-01T08:51:43Z</time>
      </trkpt>
      <trkpt lat="43.026875015348196" lon="-9.250562964007258">
        <ele>122.70999999999999</ele>
        <time>2025-05-01T08:51:44Z</time>
      </trkpt>
      <trkpt lat="43.028671005740762" lon="-9.251828966662288">
        <ele>133.75999999999999</ele>
        <time>2025-05-01T08:51:54Z</time>
      </trkpt>
      <trkpt lat="43.030286030843854" lon="-9.25316596403718">
        <ele>141.93000000000001</ele>
        <time>2025-05-01T08:52:03Z</time>
      </trkpt>
      <trkpt lat="43.031366039067507" lon="-9.254393996670842">
        <ele>152.50999999999999</ele>
        <time>2025-05-01T08:52:10Z</time>
      </trkpt>
      <trkpt lat="43.031564019620419" lon="-9.25447697751224">
        <ele>154.43000000000001</ele>
        <time>2025-05-01T08:52:11Z</time>
      </trkpt>
      <trkpt lat="43.031745990738273" lon="-9.254554007202387">
        <ele>155.87</ele>
        <time>2025-05-01T08:52:12Z</time>
      </trkpt>
      <trkpt lat="43.032859023660421" lon="-9.255024986341596">
        <ele>166.44999999999999</ele>
        <time>2025-05-01T08:52:18Z</time>
      </trkpt>
      <trkpt lat="43.033148031681776" lon="-9.255196982994676">
        <ele>170.28999999999999</ele>
        <time>2025-05-01T08:52:20Z</time>
      </trkpt>
      <trkpt lat="43.03326697088778" lon="-9.255299996584654">
        <ele>171.72999999999999</ele>
        <time>2025-05-01T08:52:21Z</time>
      </trkpt>
      <trkpt lat="43.033378031104803" lon="-9.255397981032729">
        <ele>173.66</ele>
        <time>2025-05-01T08:52:22Z</time>
      </trkpt>
      <trkpt lat="43.033451959490776" lon="-9.255522033199668">
        <ele>175.58000000000001</ele>
        <time>2025-05-01T08:52:23Z</time>
      </trkpt>
      <trkpt lat="43.033527983352542" lon="-9.255655976012349">
        <ele>177.02000000000001</ele>
        <time>2025-05-01T08:52:24Z</time>
      </trkpt>
      <trkpt lat="43.033566037192941" lon="-9.255797965452075">
        <ele>178.46000000000001</ele>
        <time>2025-05-01T08:52:25Z</time>
      </trkpt>
      <trkpt lat="43.033585986122489" lon="-9.255965016782284">
        <ele>179.90000000000001</ele>
        <time>2025-05-01T08:52:26Z</time>
      </trkpt>
      <trkpt lat="43.03360803052783" lon="-9.256147993728519">
        <ele>180.87</ele>
        <time>2025-05-01T08:52:27Z</time>
      </trkpt>
      <trkpt lat="43.033601995557547" lon="-9.256347985938191">
        <ele>182.31</ele>
        <time>2025-05-01T08:52:28Z</time>
      </trkpt>
      <trkpt lat="43.03356695920229" lon="-9.25656097009778">
        <ele>183.75</ele>
        <time>2025-05-01T08:52:29Z</time>
      </trkpt>
      <trkpt lat="43.033531000837684" lon="-9.25677596591413">
        <ele>184.71000000000001</ele>
        <time>2025-05-01T08:52:30Z</time>
      </trkpt>
      <trkpt lat="43.033494958654046" lon="-9.257001020014286">
        <ele>186.15000000000001</ele>
        <time>2025-05-01T08:52:31Z</time>
      </trkpt>
      <trkpt lat="43.033417006954551" lon="-9.257473004981875">
        <ele>188.08000000000001</ele>
        <time>2025-05-01T08:52:33Z</time>
      </trkpt>
      <trkpt lat="43.033384988084435" lon="-9.257714990526438">
        <ele>189.03999999999999</ele>
        <time>2025-05-01T08:52:34Z</time>
      </trkpt>
      <trkpt lat="43.03322003223002" lon="-9.259133962914348">
        <ele>190</ele>
        <time>2025-05-01T08:52:40Z</time>
      </trkpt>
      <trkpt lat="43.033283986151218" lon="-9.26034196279943">
        <ele>187.11000000000001</ele>
        <time>2025-05-01T08:52:45Z</time>
      </trkpt>
      <trkpt lat="43.033304018899798" lon="-9.26057699136436">
        <ele>186.15000000000001</ele>
        <time>2025-05-01T08:52:46Z</time>
      </trkpt>
      <trkpt lat="43.033345006406307" lon="-9.260753011330962">
        <ele>185.19</ele>
        <time>2025-05-01T08:52:47Z</time>
      </trkpt>
      <trkpt lat="43.033476015552878" lon="-9.261074038222432">
        <ele>183.27000000000001</ele>
        <time>2025-05-01T08:52:49Z</time>
      </trkpt>
      <trkpt lat="43.033575005829334" lon="-9.261173028498888">
        <ele>182.31</ele>
        <time>2025-05-01T08:52:50Z</time>
      </trkpt>
      <trkpt lat="43.03369302302599" lon="-9.261266989633441">
        <ele>181.83000000000001</ele>
        <time>2025-05-01T08:52:51Z</time>
      </trkpt>
      <trkpt lat="43.033831994980574" lon="-9.261342007666826">
        <ele>180.87</ele>
        <time>2025-05-01T08:52:52Z</time>
      </trkpt>
      <trkpt lat="43.033979013562202" lon="-9.261419959366322">
        <ele>180.38</ele>
        <time>2025-05-01T08:52:53Z</time>
      </trkpt>
      <trkpt lat="43.035201011225581" lon="-9.262077016755939">
        <ele>175.58000000000001</ele>
        <time>2025-05-01T08:53:00Z</time>
      </trkpt>
      <trkpt lat="43.036351008340716" lon="-9.26272502169013">
        <ele>169.81</ele>
        <time>2025-05-01T08:53:07Z</time>
      </trkpt>
      <trkpt lat="43.036473970860243" lon="-9.262838009744883">
        <ele>168.84999999999999</ele>
        <time>2025-05-01T08:53:08Z</time>
      </trkpt>
      <trkpt lat="43.036583019420505" lon="-9.263001037761569">
        <ele>168.37</ele>
        <time>2025-05-01T08:53:09Z</time>
      </trkpt>
      <trkpt lat="43.037491030991077" lon="-9.264383967965841">
        <ele>160.68000000000001</ele>
        <time>2025-05-01T08:53:16Z</time>
      </trkpt>
      <trkpt lat="43.038479005917907" lon="-9.266120027750731">
        <ele>150.09999999999999</ele>
        <time>2025-05-01T08:53:25Z</time>
      </trkpt>
      <trkpt lat="43.039055010303855" lon="-9.267158964648843">
        <ele>140.00999999999999</ele>
        <time>2025-05-01T08:53:31Z</time>
      </trkpt>
      <trkpt lat="43.039174033328891" lon="-9.267270024865866">
        <ele>139.05000000000001</ele>
        <time>2025-05-01T08:53:32Z</time>
      </trkpt>
      <trkpt lat="43.039306970313191" lon="-9.26732299849391">
        <ele>137.61000000000001</ele>
        <time>2025-05-01T08:53:33Z</time>
      </trkpt>
      <trkpt lat="43.039439991116524" lon="-9.267362980172038">
        <ele>136.63999999999999</ele>
        <time>2025-05-01T08:53:34Z</time>
      </trkpt>
      <trkpt lat="43.039567982777953" lon="-9.267402039840818">
        <ele>135.68000000000001</ele>
        <time>2025-05-01T08:53:35Z</time>
      </trkpt>
      <trkpt lat="43.039685999974608" lon="-9.267437998205423">
        <ele>134.72</ele>
        <time>2025-05-01T08:53:36Z</time>
      </trkpt>
      <trkpt lat="43.039779961109161" lon="-9.26751896739006">
        <ele>134.24000000000001</ele>
        <time>2025-05-01T08:53:37Z</time>
      </trkpt>
      <trkpt lat="43.039870988577604" lon="-9.26760102622211">
        <ele>133.28</ele>
        <time>2025-05-01T08:53:38Z</time>
      </trkpt>
      <trkpt lat="43.039943994954228" lon="-9.267719965428114">
        <ele>132.31999999999999</ele>
        <time>2025-05-01T08:53:39Z</time>
      </trkpt>
      <trkpt lat="43.039998980239034" lon="-9.267848962917924">
        <ele>131.36000000000001</ele>
        <time>2025-05-01T08:53:40Z</time>
      </trkpt>
      <trkpt lat="43.040039967745543" lon="-9.267997993156314">
        <ele>130.40000000000001</ele>
        <time>2025-05-01T08:53:41Z</time>
      </trkpt>
      <trkpt lat="43.040051031857729" lon="-9.268158003687859">
        <ele>129.43000000000001</ele>
        <time>2025-05-01T08:53:42Z</time>
      </trkpt>
      <trkpt lat="43.040038039907813" lon="-9.268337041139603">
        <ele>128.94999999999999</ele>
        <time>2025-05-01T08:53:43Z</time>
      </trkpt>
      <trkpt lat="43.040006021037698" lon="-9.268512977287173">
        <ele>127.98999999999999</ele>
        <time>2025-05-01T08:53:44Z</time>
      </trkpt>
      <trkpt lat="43.039776021614671" lon="-9.270547013729811">
        <ele>118.86</ele>
        <time>2025-05-01T08:53:54Z</time>
      </trkpt>
      <trkpt lat="43.039177972823381" lon="-9.272417016327381">
        <ele>109.25</ele>
        <time>2025-05-01T08:54:03Z</time>
      </trkpt>
      <trkpt lat="43.039103960618377" lon="-9.27256403490901">
        <ele>108.77</ele>
        <time>2025-05-01T08:54:04Z</time>
      </trkpt>
      <trkpt lat="43.038931963965297" lon="-9.27280199714005">
        <ele>106.84</ele>
        <time>2025-05-01T08:54:06Z</time>
      </trkpt>
      <trkpt lat="43.038835991173983" lon="-9.272902999073267">
        <ele>106.36</ele>
        <time>2025-05-01T08:54:07Z</time>
      </trkpt>
      <trkpt lat="43.038363000378013" lon="-9.273325027897954">
        <ele>102.04000000000001</ele>
        <time>2025-05-01T08:54:13Z</time>
      </trkpt>
      <trkpt lat="43.038327964022756" lon="-9.273356040939689">
        <ele>101.08</ele>
        <time>2025-05-01T08:54:14Z</time>
      </trkpt>
      <trkpt lat="43.038312960416079" lon="-9.273428041487932">
        <ele>100.59999999999999</ele>
        <time>2025-05-01T08:54:15Z</time>
      </trkpt>
      <trkpt lat="43.038341039791703" lon="-9.27351001650095">
        <ele>100.11</ele>
        <time>2025-05-01T08:54:16Z</time>
      </trkpt>
      <trkpt lat="43.038382027298212" lon="-9.273627027869225">
        <ele>98.670000000000002</ele>
        <time>2025-05-01T08:54:17Z</time>
      </trkpt>
      <trkpt lat="43.038432989269495" lon="-9.273776980116963">
        <ele>96.75</ele>
        <time>2025-05-01T08:54:18Z</time>
      </trkpt>
      <trkpt lat="43.038834985345602" lon="-9.275185978040099">
        <ele>83.769999999999996</ele>
        <time>2025-05-01T08:54:25Z</time>
      </trkpt>
      <trkpt lat="43.039519032463431" lon="-9.277471974492073">
        <ele>74.159999999999997</ele>
        <time>2025-05-01T08:54:36Z</time>
      </trkpt>
      <trkpt lat="43.040044996887445" lon="-9.279372990131378">
        <ele>74.640000000000001</ele>
        <time>2025-05-01T08:54:46Z</time>
      </trkpt>
      <trkpt lat="43.04054799489677" lon="-9.281109971925616">
        <ele>64.069999999999993</ele>
        <time>2025-05-01T08:54:56Z</time>
      </trkpt>
      <trkpt lat="43.04078696295619" lon="-9.281813967972994">
        <ele>60.219999999999999</ele>
        <time>2025-05-01T08:55:02Z</time>
      </trkpt>
      <trkpt lat="43.040916966274381" lon="-9.281964004039764">
        <ele>58.780000000000001</ele>
        <time>2025-05-01T08:55:04Z</time>
      </trkpt>
      <trkpt lat="43.041631020605564" lon="-9.28279297426343">
        <ele>54.450000000000003</ele>
        <time>2025-05-01T08:55:11Z</time>
      </trkpt>
      <trkpt lat="43.042446998879313" lon="-9.283695034682751">
        <ele>45.32</ele>
        <time>2025-05-01T08:55:19Z</time>
      </trkpt>
      <trkpt lat="43.043691962957382" lon="-9.284741012379527">
        <ele>35.710000000000001</ele>
        <time>2025-05-01T08:55:29Z</time>
      </trkpt>
      <trkpt lat="43.044954026117921" lon="-9.285551961511374">
        <ele>32.340000000000003</ele>
        <time>2025-05-01T08:55:39Z</time>
      </trkpt>
      <trkpt lat="43.04607099853456" lon="-9.286395013332367">
        <ele>25.129999999999999</ele>
        <time>2025-05-01T08:55:52Z</time>
      </trkpt>
      <trkpt lat="43.047392992302775" lon="-9.287527995184064">
        <ele>25.129999999999999</ele>
        <time>2025-05-01T08:56:09Z</time>
      </trkpt>
      <trkpt lat="43.048528991639614" lon="-9.288499960675836">
        <ele>25.129999999999999</ele>
        <time>2025-05-01T08:56:25Z</time>
      </trkpt>
      <trkpt lat="43.049669014289975" lon="-9.289477039128542">
        <ele>26.09</ele>
        <time>2025-05-01T08:56:38Z</time>
      </trkpt>
      <trkpt lat="43.050750028342009" lon="-9.290426038205624">
        <ele>30.899999999999999</ele>
        <time>2025-05-01T08:56:47Z</time>
      </trkpt>
      <trkpt lat="43.050850024446845" lon="-9.290593005716801">
        <ele>31.859999999999999</ele>
        <time>2025-05-01T08:56:48Z</time>
      </trkpt>
      <trkpt lat="43.050875002518296" lon="-9.290730971843004">
        <ele>33.299999999999997</ele>
        <time>2025-05-01T08:56:49Z</time>
      </trkpt>
      <trkpt lat="43.05088497698307" lon="-9.290910009294748">
        <ele>34.259999999999998</ele>
        <time>2025-05-01T08:56:50Z</time>
      </trkpt>
      <trkpt lat="43.050842983648181" lon="-9.291094997897744">
        <ele>34.740000000000002</ele>
        <time>2025-05-01T08:56:51Z</time>
      </trkpt>
      <trkpt lat="43.050767965614796" lon="-9.29123598150909">
        <ele>35.710000000000001</ele>
        <time>2025-05-01T08:56:52Z</time>
      </trkpt>
      <trkpt lat="43.050663024187088" lon="-9.291366990655661">
        <ele>36.670000000000002</ele>
        <time>2025-05-01T08:56:53Z</time>
      </trkpt>
      <trkpt lat="43.050536960363388" lon="-9.291462963446975">
        <ele>38.109999999999999</ele>
        <time>2025-05-01T08:56:54Z</time>
      </trkpt>
      <trkpt lat="43.050406035035849" lon="-9.291562037542462">
        <ele>39.07</ele>
        <time>2025-05-01T08:56:55Z</time>
      </trkpt>
      <trkpt lat="43.049741014838219" lon="-9.292022958397865">
        <ele>46.280000000000001</ele>
        <time>2025-05-01T08:57:00Z</time>
      </trkpt>
      <trkpt lat="43.049600031226873" lon="-9.292076015844941">
        <ele>47.719999999999999</ele>
        <time>2025-05-01T08:57:01Z</time>
      </trkpt>
      <trkpt lat="43.048274014145136" lon="-9.292578008025885">
        <ele>49.649999999999999</ele>
        <time>2025-05-01T08:57:11Z</time>
      </trkpt>
      <trkpt lat="43.04817502386868" lon="-9.29265302605927">
        <ele>49.649999999999999</ele>
        <time>2025-05-01T08:57:12Z</time>
      </trkpt>
      <trkpt lat="43.048095982521772" lon="-9.292774982750416">
        <ele>49.649999999999999</ele>
        <time>2025-05-01T08:57:13Z</time>
      </trkpt>
      <trkpt lat="43.048032028600574" lon="-9.292902974411845">
        <ele>49.649999999999999</ele>
        <time>2025-05-01T08:57:14Z</time>
      </trkpt>
      <trkpt lat="43.048037979751825" lon="-9.293074971064925">
        <ele>50.130000000000003</ele>
        <time>2025-05-01T08:57:15Z</time>
      </trkpt>
      <trkpt lat="43.048060024157166" lon="-9.293231964111328">
        <ele>50.130000000000003</ele>
        <time>2025-05-01T08:57:16Z</time>
      </trkpt>
      <trkpt lat="43.04809195920825" lon="-9.293400021269918">
        <ele>50.130000000000003</ele>
        <time>2025-05-01T08:57:17Z</time>
      </trkpt>
      <trkpt lat="43.048177035525441" lon="-9.293544022366405">
        <ele>50.130000000000003</ele>
        <time>2025-05-01T08:57:18Z</time>
      </trkpt>
      <trkpt lat="43.048282982781529" lon="-9.293673019856215">
        <ele>50.609999999999999</ele>
        <time>2025-05-01T08:57:19Z</time>
      </trkpt>
      <trkpt lat="43.048966024070978" lon="-9.294499978423119">
        <ele>56.369999999999997</ele>
        <time>2025-05-01T08:57:25Z</time>
      </trkpt>
      <trkpt lat="43.049109019339085" lon="-9.294582037255168">
        <ele>57.340000000000003</ele>
        <time>2025-05-01T08:57:26Z</time>
      </trkpt>
      <trkpt lat="43.051081029698253" lon="-9.2956199683249">
        <ele>64.069999999999993</ele>
        <time>2025-05-01T08:57:39Z</time>
      </trkpt>
      <trkpt lat="43.052803007885814" lon="-9.296579025685787">
        <ele>62.140000000000001</ele>
        <time>2025-05-01T08:57:50Z</time>
      </trkpt>
      <trkpt lat="43.052920019254088" lon="-9.296731995418668">
        <ele>62.140000000000001</ele>
        <time>2025-05-01T08:57:51Z</time>
      </trkpt>
      <trkpt lat="43.052994031459093" lon="-9.296827968209982">
        <ele>62.619999999999997</ele>
        <time>2025-05-01T08:57:52Z</time>
      </trkpt>
      <trkpt lat="43.053049016743898" lon="-9.296926036477089">
        <ele>62.140000000000001</ele>
        <time>2025-05-01T08:57:53Z</time>
      </trkpt>
      <trkpt lat="43.053088998422027" lon="-9.297011028975248">
        <ele>61.18</ele>
        <time>2025-05-01T08:57:54Z</time>
      </trkpt>
      <trkpt lat="43.053340036422014" lon="-9.297545040026307">
        <ele>56.859999999999999</ele>
        <time>2025-05-01T08:58:04Z</time>
      </trkpt>
      <trkpt lat="43.05337599478662" lon="-9.297748971730471">
        <ele>57.82</ele>
        <time>2025-05-01T09:09:18Z</time>
      </trkpt>
      <trkpt lat="43.053372977301478" lon="-9.29774696007371">
        <ele>58.299999999999997</ele>
        <time>2025-05-01T09:10:13Z</time>
      </trkpt>
      <trkpt lat="43.053380018100142" lon="-9.297754000872374">
        <ele>57.82</ele>
        <time>2025-05-01T09:11:16Z</time>
      </trkpt>
      <trkpt lat="43.053382029756904" lon="-9.297751989215612">
        <ele>57.82</ele>
        <time>2025-05-01T09:11:32Z</time>
      </trkpt>
      <trkpt lat="43.053340036422014" lon="-9.297544034197927">
        <ele>57.82</ele>
        <time>2025-05-01T09:11:37Z</time>
      </trkpt>
      <trkpt lat="43.053088998422027" lon="-9.297011028975248">
        <ele>58.780000000000001</ele>
        <time>2025-05-01T09:11:48Z</time>
      </trkpt>
      <trkpt lat="43.052980033680797" lon="-9.296810030937195">
        <ele>60.219999999999999</ele>
        <time>2025-05-01T09:11:52Z</time>
      </trkpt>
      <trkpt lat="43.052841983735561" lon="-9.296630993485451">
        <ele>60.700000000000003</ele>
        <time>2025-05-01T09:11:55Z</time>
      </trkpt>
      <trkpt lat="43.052740981802344" lon="-9.296544995158911">
        <ele>60.700000000000003</ele>
        <time>2025-05-01T09:11:56Z</time>
      </trkpt>
      <trkpt lat="43.052635034546256" lon="-9.296485986560583">
        <ele>60.700000000000003</ele>
        <time>2025-05-01T09:11:57Z</time>
      </trkpt>
      <trkpt lat="43.051625015214086" lon="-9.295923979952931">
        <ele>60.700000000000003</ele>
        <time>2025-05-01T09:12:04Z</time>
      </trkpt>
      <trkpt lat="43.04946499876678" lon="-9.294752022251487">
        <ele>61.659999999999997</ele>
        <time>2025-05-01T09:12:17Z</time>
      </trkpt>
      <trkpt lat="43.048898968845606" lon="-9.294422026723623">
        <ele>59.740000000000002</ele>
        <time>2025-05-01T09:12:21Z</time>
      </trkpt>
      <trkpt lat="43.048786986619234" lon="-9.294285988435149">
        <ele>58.780000000000001</ele>
        <time>2025-05-01T09:12:22Z</time>
      </trkpt>
      <trkpt lat="43.048671986907721" lon="-9.294146010652185">
        <ele>58.299999999999997</ele>
        <time>2025-05-01T09:12:23Z</time>
      </trkpt>
      <trkpt lat="43.048110986128449" lon="-9.293432962149382">
        <ele>54.450000000000003</ele>
        <time>2025-05-01T09:12:28Z</time>
      </trkpt>
      <trkpt lat="43.048064969480038" lon="-9.293267000466585">
        <ele>53.490000000000002</ele>
        <time>2025-05-01T09:12:29Z</time>
      </trkpt>
      <trkpt lat="43.048045020550489" lon="-9.293121993541718">
        <ele>53.009999999999998</ele>
        <time>2025-05-01T09:12:30Z</time>
      </trkpt>
      <trkpt lat="43.048023981973529" lon="-9.292977992445231">
        <ele>53.009999999999998</ele>
        <time>2025-05-01T09:12:31Z</time>
      </trkpt>
      <trkpt lat="43.048071004450321" lon="-9.292824016883969">
        <ele>52.530000000000001</ele>
        <time>2025-05-01T09:12:32Z</time>
      </trkpt>
      <trkpt lat="43.048129007220268" lon="-9.292708011344075">
        <ele>52.049999999999997</ele>
        <time>2025-05-01T09:12:33Z</time>
      </trkpt>
      <trkpt lat="43.048210982233286" lon="-9.292625030502677">
        <ele>51.57</ele>
        <time>2025-05-01T09:12:34Z</time>
      </trkpt>
      <trkpt lat="43.048307038843632" lon="-9.292554035782814">
        <ele>51.57</ele>
        <time>2025-05-01T09:12:35Z</time>
      </trkpt>
      <trkpt lat="43.04841298609972" lon="-9.292515981942415">
        <ele>51.090000000000003</ele>
        <time>2025-05-01T09:12:36Z</time>
      </trkpt>
      <trkpt lat="43.048531003296375" lon="-9.292480023577809">
        <ele>50.609999999999999</ele>
        <time>2025-05-01T09:12:37Z</time>
      </trkpt>
      <trkpt lat="43.049975959584117" lon="-9.291870994493365">
        <ele>50.609999999999999</ele>
        <time>2025-05-01T09:12:48Z</time>
      </trkpt>
      <trkpt lat="43.050713986158371" lon="-9.291328014805913">
        <ele>45.32</ele>
        <time>2025-05-01T09:12:54Z</time>
      </trkpt>
      <trkpt lat="43.050791015848517" lon="-9.29119298234582">
        <ele>44.359999999999999</ele>
        <time>2025-05-01T09:12:55Z</time>
      </trkpt>
      <trkpt lat="43.050848012790084" lon="-9.291088040918112">
        <ele>43.399999999999999</ele>
        <time>2025-05-01T09:12:56Z</time>
      </trkpt>
      <trkpt lat="43.050879025831819" lon="-9.290970023721457">
        <ele>42.439999999999998</ele>
        <time>2025-05-01T09:12:57Z</time>
      </trkpt>
      <trkpt lat="43.050890006124973" lon="-9.290861980989575">
        <ele>41.469999999999999</ele>
        <time>2025-05-01T09:12:58Z</time>
      </trkpt>
      <trkpt lat="43.05088103748858" lon="-9.290765002369881">
        <ele>40.990000000000002</ele>
        <time>2025-05-01T09:12:59Z</time>
      </trkpt>
      <trkpt lat="43.050865028053522" lon="-9.290675986558199">
        <ele>40.030000000000001</ele>
        <time>2025-05-01T09:13:00Z</time>
      </trkpt>
      <trkpt lat="43.050850024446845" lon="-9.290593005716801">
        <ele>39.07</ele>
        <time>2025-05-01T09:13:01Z</time>
      </trkpt>
      <trkpt lat="43.05081901140511" lon="-9.290540032088757">
        <ele>38.109999999999999</ele>
        <time>2025-05-01T09:13:02Z</time>
      </trkpt>
      <trkpt lat="43.050785986706614" lon="-9.290486974641681">
        <ele>37.149999999999999</ele>
        <time>2025-05-01T09:13:03Z</time>
      </trkpt>
      <trkpt lat="43.050750028342009" lon="-9.290426960214973">
        <ele>36.189999999999998</ele>
        <time>2025-05-01T09:13:04Z</time>
      </trkpt>
      <trkpt lat="43.05071298032999" lon="-9.290370969101787">
        <ele>35.710000000000001</ele>
        <time>2025-05-01T09:13:05Z</time>
      </trkpt>
      <trkpt lat="43.050651960074902" lon="-9.290319001302123">
        <ele>34.740000000000002</ele>
        <time>2025-05-01T09:13:06Z</time>
      </trkpt>
      <trkpt lat="43.050051983445883" lon="-9.289805022999644">
        <ele>29.940000000000001</ele>
        <time>2025-05-01T09:13:13Z</time>
      </trkpt>
      <trkpt lat="43.049238016828895" lon="-9.289107983931899">
        <ele>26.57</ele>
        <time>2025-05-01T09:13:19Z</time>
      </trkpt>
      <trkpt lat="43.047950975596905" lon="-9.288005009293556">
        <ele>24.649999999999999</ele>
        <time>2025-05-01T09:13:28Z</time>
      </trkpt>
      <trkpt lat="43.045782996341586" lon="-9.286147998645902">
        <ele>25.609999999999999</ele>
        <time>2025-05-01T09:13:42Z</time>
      </trkpt>
      <trkpt lat="43.043895978480577" lon="-9.284872021526098">
        <ele>34.740000000000002</ele>
        <time>2025-05-01T09:13:54Z</time>
      </trkpt>
      <trkpt lat="43.042387990280986" lon="-9.28362999111414">
        <ele>40.990000000000002</ele>
        <time>2025-05-01T09:14:04Z</time>
      </trkpt>
      <trkpt lat="43.039951035752892" lon="-9.280894976109266">
        <ele>65.030000000000001</ele>
        <time>2025-05-01T09:14:21Z</time>
      </trkpt>
      <trkpt lat="43.038799026980996" lon="-9.279411965981126">
        <ele>77.040000000000006</ele>
        <time>2025-05-01T09:14:30Z</time>
      </trkpt>
      <trkpt lat="43.038704982027411" lon="-9.279198981821537">
        <ele>78</ele>
        <time>2025-05-01T09:14:31Z</time>
      </trkpt>
      <trkpt lat="43.03865603171289" lon="-9.279001001268625">
        <ele>78.969999999999999</ele>
        <time>2025-05-01T09:14:32Z</time>
      </trkpt>
      <trkpt lat="43.038117997348309" lon="-9.276817012578249">
        <ele>85.689999999999998</ele>
        <time>2025-05-01T09:14:40Z</time>
      </trkpt>
      <trkpt lat="43.037639977410436" lon="-9.274766966700554">
        <ele>94.349999999999994</ele>
        <time>2025-05-01T09:14:48Z</time>
      </trkpt>
      <trkpt lat="43.037592032924294" lon="-9.274557000026107">
        <ele>95.310000000000002</ele>
        <time>2025-05-01T09:14:49Z</time>
      </trkpt>
      <trkpt lat="43.037589015439153" lon="-9.274352984502912">
        <ele>96.269999999999996</ele>
        <time>2025-05-01T09:14:50Z</time>
      </trkpt>
      <trkpt lat="43.037609970197082" lon="-9.274161960929632">
        <ele>97.230000000000004</ele>
        <time>2025-05-01T09:14:51Z</time>
      </trkpt>
      <trkpt lat="43.037659004330635" lon="-9.273978983983398">
        <ele>97.709999999999994</ele>
        <time>2025-05-01T09:14:52Z</time>
      </trkpt>
      <trkpt lat="43.037761012092233" lon="-9.273813022300601">
        <ele>98.189999999999998</ele>
        <time>2025-05-01T09:14:53Z</time>
      </trkpt>
      <trkpt lat="43.037909958511591" lon="-9.273692993447185">
        <ele>98.670000000000002</ele>
        <time>2025-05-01T09:14:54Z</time>
      </trkpt>
      <trkpt lat="43.038072986528277" lon="-9.273562990128994">
        <ele>99.150000000000006</ele>
        <time>2025-05-01T09:14:55Z</time>
      </trkpt>
      <trkpt lat="43.038930958136916" lon="-9.272803002968431">
        <ele>102.04000000000001</ele>
        <time>2025-05-01T09:15:00Z</time>
      </trkpt>
      <trkpt lat="43.039048975333571" lon="-9.272646009922028">
        <ele>103</ele>
        <time>2025-05-01T09:15:01Z</time>
      </trkpt>
      <trkpt lat="43.039145031943917" lon="-9.272481976076961">
        <ele>103.48</ele>
        <time>2025-05-01T09:15:02Z</time>
      </trkpt>
      <trkpt lat="43.039232958108187" lon="-9.27230603992939">
        <ele>104.44</ele>
        <time>2025-05-01T09:15:03Z</time>
      </trkpt>
      <trkpt lat="43.039305964484811" lon="-9.272089032456279">
        <ele>105.40000000000001</ele>
        <time>2025-05-01T09:15:04Z</time>
      </trkpt>
      <trkpt lat="43.039373019710183" lon="-9.271846041083336">
        <ele>106.36</ele>
        <time>2025-05-01T09:15:05Z</time>
      </trkpt>
      <trkpt lat="43.039846010506153" lon="-9.270159015432">
        <ele>112.13</ele>
        <time>2025-05-01T09:15:12Z</time>
      </trkpt>
      <trkpt lat="43.040050026029348" lon="-9.26813998259604">
        <ele>121.73999999999999</ele>
        <time>2025-05-01T09:15:21Z</time>
      </trkpt>
      <trkpt lat="43.040037034079432" lon="-9.267951976507902">
        <ele>122.22</ele>
        <time>2025-05-01T09:15:22Z</time>
      </trkpt>
      <trkpt lat="43.039966961368918" lon="-9.267775034531951">
        <ele>122.70999999999999</ele>
        <time>2025-05-01T09:15:23Z</time>
      </trkpt>
      <trkpt lat="43.039884986355901" lon="-9.267614018172026">
        <ele>123.19</ele>
        <time>2025-05-01T09:15:24Z</time>
      </trkpt>
      <trkpt lat="43.039779039099813" lon="-9.26751796156168">
        <ele>124.15000000000001</ele>
        <time>2025-05-01T09:15:25Z</time>
      </trkpt>
      <trkpt lat="43.039652975276113" lon="-9.267428023740649">
        <ele>124.63</ele>
        <time>2025-05-01T09:15:26Z</time>
      </trkpt>
      <trkpt lat="43.039511991664767" lon="-9.267385024577379">
        <ele>125.11</ele>
        <time>2025-05-01T09:15:27Z</time>
      </trkpt>
      <trkpt lat="43.039372013881803" lon="-9.26734303124249">
        <ele>125.59</ele>
        <time>2025-05-01T09:15:28Z</time>
      </trkpt>
      <trkpt lat="43.039198005571961" lon="-9.267289973795414">
        <ele>126.06999999999999</ele>
        <time>2025-05-01T09:15:29Z</time>
      </trkpt>
      <trkpt lat="43.039092980325222" lon="-9.267201963812113">
        <ele>126.55</ele>
        <time>2025-05-01T09:15:30Z</time>
      </trkpt>
      <trkpt lat="43.038973035290837" lon="-9.267028039321303">
        <ele>127.03</ele>
        <time>2025-05-01T09:15:31Z</time>
      </trkpt>
      <trkpt lat="43.038855018094182" lon="-9.266839027404785">
        <ele>127.98999999999999</ele>
        <time>2025-05-01T09:15:32Z</time>
      </trkpt>
      <trkpt lat="43.03874303586781" lon="-9.266625959426165">
        <ele>128.94999999999999</ele>
        <time>2025-05-01T09:15:33Z</time>
      </trkpt>
      <trkpt lat="43.037705020979047" lon="-9.264828963205218">
        <ele>139.05000000000001</ele>
        <time>2025-05-01T09:15:41Z</time>
      </trkpt>
      <trkpt lat="43.036751998588443" lon="-9.263255009427667">
        <ele>143.37</ele>
        <time>2025-05-01T09:15:48Z</time>
      </trkpt>
      <trkpt lat="43.036377998068929" lon="-9.262745976448059">
        <ele>146.74000000000001</ele>
        <time>2025-05-01T09:15:51Z</time>
      </trkpt>
      <trkpt lat="43.036243971437216" lon="-9.26263902336359">
        <ele>147.69999999999999</ele>
        <time>2025-05-01T09:15:52Z</time>
      </trkpt>
      <trkpt lat="43.036092007532716" lon="-9.262555036693811">
        <ele>148.66</ele>
        <time>2025-05-01T09:15:53Z</time>
      </trkpt>
      <trkpt lat="43.035935014486313" lon="-9.262470966205001">
        <ele>150.09999999999999</ele>
        <time>2025-05-01T09:15:54Z</time>
      </trkpt>
      <trkpt lat="43.035767963156104" lon="-9.26238102838397">
        <ele>151.53999999999999</ele>
        <time>2025-05-01T09:15:55Z</time>
      </trkpt>
      <trkpt lat="43.034545965492725" lon="-9.261724976822734">
        <ele>160.68000000000001</ele>
        <time>2025-05-01T09:16:02Z</time>
      </trkpt>
      <trkpt lat="43.033871976658702" lon="-9.261362962424755">
        <ele>166.44999999999999</ele>
        <time>2025-05-01T09:16:07Z</time>
      </trkpt>
      <trkpt lat="43.033766029402614" lon="-9.261305965483189">
        <ele>167.88999999999999</ele>
        <time>2025-05-01T09:16:08Z</time>
      </trkpt>
      <trkpt lat="43.033658992499113" lon="-9.261248968541622">
        <ele>168.84999999999999</ele>
        <time>2025-05-01T09:16:09Z</time>
      </trkpt>
      <trkpt lat="43.03356695920229" lon="-9.261164981871843">
        <ele>169.81</ele>
        <time>2025-05-01T09:16:10Z</time>
      </trkpt>
      <trkpt lat="43.033474003896117" lon="-9.261072026565671">
        <ele>170.77000000000001</ele>
        <time>2025-05-01T09:16:11Z</time>
      </trkpt>
      <trkpt lat="43.033389011397958" lon="-9.260934982448816">
        <ele>172.21000000000001</ele>
        <time>2025-05-01T09:16:12Z</time>
      </trkpt>
      <trkpt lat="43.03335296921432" lon="-9.260785030201078">
        <ele>173.16999999999999</ele>
        <time>2025-05-01T09:16:13Z</time>
      </trkpt>
      <trkpt lat="43.033319022506475" lon="-9.260642034932971">
        <ele>173.66</ele>
        <time>2025-05-01T09:16:14Z</time>
      </trkpt>
      <trkpt lat="43.033292032778263" lon="-9.26046802662313">
        <ele>174.13999999999999</ele>
        <time>2025-05-01T09:16:15Z</time>
      </trkpt>
      <trkpt lat="43.033280968666077" lon="-9.260294018313289">
        <ele>174.62</ele>
        <time>2025-05-01T09:16:16Z</time>
      </trkpt>
      <trkpt lat="43.033236963674426" lon="-9.259599996730685">
        <ele>177.02000000000001</ele>
        <time>2025-05-01T09:16:20Z</time>
      </trkpt>
      <trkpt lat="43.033226989209652" lon="-9.25943898037076">
        <ele>177.5</ele>
        <time>2025-05-01T09:16:21Z</time>
      </trkpt>
      <trkpt lat="43.033216008916497" lon="-9.259272012859583">
        <ele>178.46000000000001</ele>
        <time>2025-05-01T09:16:22Z</time>
      </trkpt>
      <trkpt lat="43.03322296589613" lon="-9.259100016206503">
        <ele>178.94</ele>
        <time>2025-05-01T09:16:23Z</time>
      </trkpt>
      <trkpt lat="43.03324400447309" lon="-9.258926007896662">
        <ele>179.41999999999999</ele>
        <time>2025-05-01T09:16:24Z</time>
      </trkpt>
      <trkpt lat="43.033405020833015" lon="-9.257548023015261">
        <ele>184.71000000000001</ele>
        <time>2025-05-01T09:16:31Z</time>
      </trkpt>
      <trkpt lat="43.033591015264392" lon="-9.256415041163564">
        <ele>189.52000000000001</ele>
        <time>2025-05-01T09:16:37Z</time>
      </trkpt>
      <trkpt lat="43.033601995557547" lon="-9.256092002615333">
        <ele>190.96000000000001</ele>
        <time>2025-05-01T09:16:39Z</time>
      </trkpt>
      <trkpt lat="43.033584980294108" lon="-9.255953030660749">
        <ele>190.96000000000001</ele>
        <time>2025-05-01T09:16:40Z</time>
      </trkpt>
      <trkpt lat="43.033569976687431" lon="-9.25582897849381">
        <ele>191.44</ele>
        <time>2025-05-01T09:16:41Z</time>
      </trkpt>
      <trkpt lat="43.033558996394277" lon="-9.255738034844399">
        <ele>190.96000000000001</ele>
        <time>2025-05-01T09:16:42Z</time>
      </trkpt>
      <trkpt lat="43.033534018322825" lon="-9.255665028467774">
        <ele>190.47999999999999</ele>
        <time>2025-05-01T09:16:43Z</time>
      </trkpt>
      <trkpt lat="43.033498981967568" lon="-9.255604008212686">
        <ele>189.52000000000001</ele>
        <time>2025-05-01T09:16:44Z</time>
      </trkpt>
      <trkpt lat="43.03345799446106" lon="-9.255532007664442">
        <ele>189.03999999999999</ele>
        <time>2025-05-01T09:16:45Z</time>
      </trkpt>
      <trkpt lat="43.033405020833015" lon="-9.255440980195999">
        <ele>188.56</ele>
        <time>2025-05-01T09:16:46Z</time>
      </trkpt>
      <trkpt lat="43.033333020284772" lon="-9.255357999354601">
        <ele>188.08000000000001</ele>
        <time>2025-05-01T09:16:47Z</time>
      </trkpt>
      <trkpt lat="43.033251967281103" lon="-9.255287004634738">
        <ele>187.11000000000001</ele>
        <time>2025-05-01T09:16:48Z</time>
      </trkpt>
      <trkpt lat="43.033068990334868" lon="-9.255126994103193">
        <ele>186.15000000000001</ele>
        <time>2025-05-01T09:16:50Z</time>
      </trkpt>
      <trkpt lat="43.032948961481452" lon="-9.255063040181994">
        <ele>185.66999999999999</ele>
        <time>2025-05-01T09:16:51Z</time>
      </trkpt>
      <trkpt lat="43.031817991286516" lon="-9.254585020244122">
        <ele>178.46000000000001</ele>
        <time>2025-05-01T09:16:59Z</time>
      </trkpt>
      <trkpt lat="43.0315269716084" lon="-9.254461973905563">
        <ele>176.53999999999999</ele>
        <time>2025-05-01T09:17:01Z</time>
      </trkpt>
      <trkpt lat="43.031366039067507" lon="-9.254393996670842">
        <ele>175.09999999999999</ele>
        <time>2025-05-01T09:17:02Z</time>
      </trkpt>
      <trkpt lat="43.031243998557329" lon="-9.254255024716258">
        <ele>174.13999999999999</ele>
        <time>2025-05-01T09:17:03Z</time>
      </trkpt>
      <trkpt lat="43.030217969790101" lon="-9.253090023994446">
        <ele>165.47999999999999</ele>
        <time>2025-05-01T09:17:10Z</time>
      </trkpt>
      <trkpt lat="43.028637981042266" lon="-9.251801976934075">
        <ele>153.47</ele>
        <time>2025-05-01T09:17:19Z</time>
      </trkpt>
      <trkpt lat="43.027294026687741" lon="-9.250814002007246">
        <ele>144.81999999999999</ele>
        <time>2025-05-01T09:17:27Z</time>
      </trkpt>
      <trkpt lat="43.026543008163571" lon="-9.250345034524798">
        <ele>137.61000000000001</ele>
        <time>2025-05-01T09:17:33Z</time>
      </trkpt>
      <trkpt lat="43.026450974866748" lon="-9.25024101510644">
        <ele>136.16</ele>
        <time>2025-05-01T09:17:34Z</time>
      </trkpt>
      <trkpt lat="43.026351984590292" lon="-9.250118974596262">
        <ele>134.72</ele>
        <time>2025-05-01T09:17:35Z</time>
      </trkpt>
      <trkpt lat="43.025630973279476" lon="-9.248823970556259">
        <ele>123.19</ele>
        <time>2025-05-01T09:17:42Z</time>
      </trkpt>
      <trkpt lat="43.02415500395" lon="-9.246298000216484">
        <ele>108.77</ele>
        <time>2025-05-01T09:17:54Z</time>
      </trkpt>
      <trkpt lat="43.022591024637222" lon="-9.243610007688403">
        <ele>100.11</ele>
        <time>2025-05-01T09:18:08Z</time>
      </trkpt>
      <trkpt lat="43.021113965660334" lon="-9.240969959646463">
        <ele>100.59999999999999</ele>
        <time>2025-05-01T09:18:21Z</time>
      </trkpt>
      <trkpt lat="43.019741009920835" lon="-9.238595031201839">
        <ele>101.56</ele>
        <time>2025-05-01T09:18:33Z</time>
      </trkpt>
      <trkpt lat="43.018586989492178" lon="-9.236563006415963">
        <ele>103.95999999999999</ele>
        <time>2025-05-01T09:18:43Z</time>
      </trkpt>
      <trkpt lat="43.018126990646124" lon="-9.235767982900143">
        <ele>104.44</ele>
        <time>2025-05-01T09:18:48Z</time>
      </trkpt>
      <trkpt lat="43.018116010352969" lon="-9.235560027882457">
        <ele>104.44</ele>
        <time>2025-05-01T09:18:49Z</time>
      </trkpt>
      <trkpt lat="43.018107041716576" lon="-9.235389959067106">
        <ele>103.95999999999999</ele>
        <time>2025-05-01T09:18:50Z</time>
      </trkpt>
      <trkpt lat="43.018109975382686" lon="-9.235231038182974">
        <ele>103.95999999999999</ele>
        <time>2025-05-01T09:18:51Z</time>
      </trkpt>
      <trkpt lat="43.01811701618135" lon="-9.235069015994668">
        <ele>103.48</ele>
        <time>2025-05-01T09:18:52Z</time>
      </trkpt>
      <trkpt lat="43.018122967332602" lon="-9.234900958836079">
        <ele>102.52</ele>
        <time>2025-05-01T09:18:53Z</time>
      </trkpt>
      <trkpt lat="43.01811701618135" lon="-9.234737008810043">
        <ele>101.56</ele>
        <time>2025-05-01T09:18:54Z</time>
      </trkpt>
      <trkpt lat="43.018092038109899" lon="-9.234576998278499">
        <ele>100.59999999999999</ele>
        <time>2025-05-01T09:18:55Z</time>
      </trkpt>
      <trkpt lat="43.018020037561655" lon="-9.234438026323915">
        <ele>99.629999999999995</ele>
        <time>2025-05-01T09:18:56Z</time>
      </trkpt>
      <trkpt lat="43.017900008708239" lon="-9.234368959441781">
        <ele>98.670000000000002</ele>
        <time>2025-05-01T09:18:57Z</time>
      </trkpt>
      <trkpt lat="43.017775034531951" lon="-9.234296958893538">
        <ele>97.709999999999994</ele>
        <time>2025-05-01T09:18:58Z</time>
      </trkpt>
      <trkpt lat="43.01764402538538" lon="-9.234222024679184">
        <ele>97.230000000000004</ele>
        <time>2025-05-01T09:18:59Z</time>
      </trkpt>
      <trkpt lat="43.017512010410428" lon="-9.234146000817418">
        <ele>96.269999999999996</ele>
        <time>2025-05-01T09:19:00Z</time>
      </trkpt>
      <trkpt lat="43.017375972121954" lon="-9.234067965298891">
        <ele>95.310000000000002</ele>
        <time>2025-05-01T09:19:01Z</time>
      </trkpt>
      <trkpt lat="43.017241023480892" lon="-9.233960006386042">
        <ele>94.829999999999998</ele>
        <time>2025-05-01T09:19:02Z</time>
      </trkpt>
      <trkpt lat="43.017116971313953" lon="-9.233819022774696">
        <ele>93.870000000000005</ele>
        <time>2025-05-01T09:19:03Z</time>
      </trkpt>
      <trkpt lat="43.016997026279569" lon="-9.233653983101249">
        <ele>93.390000000000001</ele>
        <time>2025-05-01T09:19:04Z</time>
      </trkpt>
      <trkpt lat="43.015889022499323" lon="-9.231981039047241">
        <ele>85.689999999999998</ele>
        <time>2025-05-01T09:19:14Z</time>
      </trkpt>
      <trkpt lat="43.015837976709008" lon="-9.231817005202174">
        <ele>85.209999999999994</ele>
        <time>2025-05-01T09:19:15Z</time>
      </trkpt>
      <trkpt lat="43.015438998118043" lon="-9.229996036738157">
        <ele>79.450000000000003</ele>
        <time>2025-05-01T09:19:23Z</time>
      </trkpt>
      <trkpt lat="43.015316035598516" lon="-9.229652965441346">
        <ele>78</ele>
        <time>2025-05-01T09:19:25Z</time>
      </trkpt>
      <trkpt lat="43.015251997858286" lon="-9.229523967951536">
        <ele>77.040000000000006</ele>
        <time>2025-05-01T09:19:26Z</time>
      </trkpt>
      <trkpt lat="43.015161976218224" lon="-9.229446016252041">
        <ele>76.560000000000002</ele>
        <time>2025-05-01T09:19:27Z</time>
      </trkpt>
      <trkpt lat="43.015071032568812" lon="-9.229370998218656">
        <ele>75.599999999999994</ele>
        <time>2025-05-01T09:19:28Z</time>
      </trkpt>
      <trkpt lat="43.014936000108719" lon="-9.229318024590612">
        <ele>75.120000000000005</ele>
        <time>2025-05-01T09:19:29Z</time>
      </trkpt>
      <trkpt lat="43.013770999386907" lon="-9.228708995506167">
        <ele>69.829999999999998</ele>
        <time>2025-05-01T09:19:37Z</time>
      </trkpt>
      <trkpt lat="43.011784991249442" lon="-9.227969963103533">
        <ele>61.18</ele>
        <time>2025-05-01T09:19:52Z</time>
      </trkpt>
      <trkpt lat="43.011567983776331" lon="-9.227864015847445">
        <ele>60.219999999999999</ele>
        <time>2025-05-01T09:19:54Z</time>
      </trkpt>
      <trkpt lat="43.011463964357972" lon="-9.227806013077498">
        <ele>59.740000000000002</ele>
        <time>2025-05-01T09:19:55Z</time>
      </trkpt>
      <trkpt lat="43.011346030980349" lon="-9.227722026407719">
        <ele>58.780000000000001</ele>
        <time>2025-05-01T09:19:56Z</time>
      </trkpt>
      <trkpt lat="43.01029896363616" lon="-9.226657021790743">
        <ele>53.490000000000002</ele>
        <time>2025-05-01T09:20:06Z</time>
      </trkpt>
      <trkpt lat="43.009167993441224" lon="-9.225506018847227">
        <ele>53.009999999999998</ele>
        <time>2025-05-01T09:20:16Z</time>
      </trkpt>
      <trkpt lat="43.008677987381816" lon="-9.224961027503014">
        <ele>54.450000000000003</ele>
        <time>2025-05-01T09:20:21Z</time>
      </trkpt>
      <trkpt lat="43.008592994883657" lon="-9.224833035841584">
        <ele>54.93</ele>
        <time>2025-05-01T09:20:22Z</time>
      </trkpt>
      <trkpt lat="43.008522000163794" lon="-9.224690962582827">
        <ele>55.409999999999997</ele>
        <time>2025-05-01T09:20:23Z</time>
      </trkpt>
      <trkpt lat="43.008474977687001" lon="-9.224522989243269">
        <ele>55.409999999999997</ele>
        <time>2025-05-01T09:20:24Z</time>
      </trkpt>
      <trkpt lat="43.008446982130408" lon="-9.224345963448286">
        <ele>55.890000000000001</ele>
        <time>2025-05-01T09:20:25Z</time>
      </trkpt>
      <trkpt lat="43.008424015715718" lon="-9.22416097484529">
        <ele>56.369999999999997</ele>
        <time>2025-05-01T09:20:26Z</time>
      </trkpt>
      <trkpt lat="43.008376993238926" lon="-9.223340973258019">
        <ele>56.859999999999999</ele>
        <time>2025-05-01T09:20:30Z</time>
      </trkpt>
      <trkpt lat="43.008365007117391" lon="-9.223135029897094">
        <ele>56.859999999999999</ele>
        <time>2025-05-01T09:20:31Z</time>
      </trkpt>
      <trkpt lat="43.008352015167475" lon="-9.222924979403615">
        <ele>56.369999999999997</ele>
        <time>2025-05-01T09:20:32Z</time>
      </trkpt>
      <trkpt lat="43.008244978263974" lon="-9.221310038119555">
        <ele>53.969999999999999</ele>
        <time>2025-05-01T09:20:40Z</time>
      </trkpt>
      <trkpt lat="43.008261993527412" lon="-9.220825983211398">
        <ele>52.530000000000001</ele>
        <time>2025-05-01T09:20:43Z</time>
      </trkpt>
      <trkpt lat="43.008274985477328" lon="-9.220654992386699">
        <ele>52.049999999999997</ele>
        <time>2025-05-01T09:20:44Z</time>
      </trkpt>
      <trkpt lat="43.008334999904037" lon="-9.220486013218761">
        <ele>51.090000000000003</ele>
        <time>2025-05-01T09:20:45Z</time>
      </trkpt>
      <trkpt lat="43.00840700045228" lon="-9.220318961888552">
        <ele>50.609999999999999</ele>
        <time>2025-05-01T09:20:46Z</time>
      </trkpt>
      <trkpt lat="43.008494004607201" lon="-9.220146965235472">
        <ele>50.609999999999999</ele>
        <time>2025-05-01T09:20:47Z</time>
      </trkpt>
      <trkpt lat="43.009019969031215" lon="-9.21911196783185">
        <ele>48.68</ele>
        <time>2025-05-01T09:20:53Z</time>
      </trkpt>
      <trkpt lat="43.009074032306671" lon="-9.218961009755731">
        <ele>48.200000000000003</ele>
        <time>2025-05-01T09:20:54Z</time>
      </trkpt>
      <trkpt lat="43.009078977629542" lon="-9.218800999224186">
        <ele>47.719999999999999</ele>
        <time>2025-05-01T09:20:55Z</time>
      </trkpt>
      <trkpt lat="43.009085012599826" lon="-9.218629002571106">
        <ele>46.759999999999998</ele>
        <time>2025-05-01T09:20:56Z</time>
      </trkpt>
      <trkpt lat="43.009092975407839" lon="-9.218408977612853">
        <ele>46.280000000000001</ele>
        <time>2025-05-01T09:20:57Z</time>
      </trkpt>
      <trkpt lat="43.008956015110016" lon="-9.217216987162828">
        <ele>46.759999999999998</ele>
        <time>2025-05-01T09:21:03Z</time>
      </trkpt>
      <trkpt lat="43.008916033431888" lon="-9.21702403575182">
        <ele>46.759999999999998</ele>
        <time>2025-05-01T09:21:04Z</time>
      </trkpt>
      <trkpt lat="43.008839003741741" lon="-9.216861007735133">
        <ele>47.240000000000002</ele>
        <time>2025-05-01T09:21:05Z</time>
      </trkpt>
      <trkpt lat="43.008742025122046" lon="-9.216719018295407">
        <ele>47.240000000000002</ele>
        <time>2025-05-01T09:21:06Z</time>
      </trkpt>
      <trkpt lat="43.008644040673971" lon="-9.216576023027301">
        <ele>47.719999999999999</ele>
        <time>2025-05-01T09:21:07Z</time>
      </trkpt>
      <trkpt lat="43.00851596519351" lon="-9.216481978073716">
        <ele>48.200000000000003</ele>
        <time>2025-05-01T09:21:08Z</time>
      </trkpt>
      <trkpt lat="43.008381016552448" lon="-9.216405032202601">
        <ele>49.159999999999997</ele>
        <time>2025-05-01T09:21:09Z</time>
      </trkpt>
      <trkpt lat="43.008238021284342" lon="-9.216366978362203">
        <ele>50.130000000000003</ele>
        <time>2025-05-01T09:21:10Z</time>
      </trkpt>
      <trkpt lat="43.008083961904049" lon="-9.21635901555419">
        <ele>51.090000000000003</ele>
        <time>2025-05-01T09:21:11Z</time>
      </trkpt>
      <trkpt lat="43.007923029363155" lon="-9.216350968927145">
        <ele>51.57</ele>
        <time>2025-05-01T09:21:12Z</time>
      </trkpt>
      <trkpt lat="43.007752960547805" lon="-9.21635901555419">
        <ele>52.530000000000001</ele>
        <time>2025-05-01T09:21:13Z</time>
      </trkpt>
      <trkpt lat="43.006286965683103" lon="-9.216492958366871">
        <ele>62.140000000000001</ele>
        <time>2025-05-01T09:21:21Z</time>
      </trkpt>
      <trkpt lat="43.006127960979939" lon="-9.216492036357522">
        <ele>64.069999999999993</ele>
        <time>2025-05-01T09:21:22Z</time>
      </trkpt>
      <trkpt lat="43.005977002903819" lon="-9.216478960588574">
        <ele>65.510000000000005</ele>
        <time>2025-05-01T09:21:23Z</time>
      </trkpt>
      <trkpt lat="43.00582897849381" lon="-9.216405032202601">
        <ele>66.950000000000003</ele>
        <time>2025-05-01T09:21:24Z</time>
      </trkpt>
      <trkpt lat="43.004833040758967" lon="-9.215668011456728">
        <ele>76.560000000000002</ele>
        <time>2025-05-01T09:21:31Z</time>
      </trkpt>
      <trkpt lat="43.003384983167052" lon="-9.21453301794827">
        <ele>84.730000000000004</ele>
        <time>2025-05-01T09:21:43Z</time>
      </trkpt>
      <trkpt lat="43.001825027167797" lon="-9.213317977264524">
        <ele>83.769999999999996</ele>
        <time>2025-05-01T09:21:56Z</time>
      </trkpt>
      <trkpt lat="43.000053009018302" lon="-9.211950972676277">
        <ele>88.579999999999998</ele>
        <time>2025-05-01T09:22:11Z</time>
      </trkpt>
      <trkpt lat="42.998955985531211" lon="-9.211278995499015">
        <ele>91.459999999999994</ele>
        <time>2025-05-01T09:22:20Z</time>
      </trkpt>
      <trkpt lat="42.997400974854827" lon="-9.210812961682677">
        <ele>96.269999999999996</ele>
        <time>2025-05-01T09:22:32Z</time>
      </trkpt>
      <trkpt lat="42.996089039370418" lon="-9.210435021668673">
        <ele>100.11</ele>
        <time>2025-05-01T09:22:44Z</time>
      </trkpt>
      <trkpt lat="42.99564303830266" lon="-9.210310969501734">
        <ele>102.52</ele>
        <time>2025-05-01T09:22:52Z</time>
      </trkpt>
      <trkpt lat="42.995598027482629" lon="-9.210276016965509">
        <ele>102.52</ele>
        <time>2025-05-01T09:22:53Z</time>
      </trkpt>
      <trkpt lat="42.9956029728055" lon="-9.210209967568517">
        <ele>102.52</ele>
        <time>2025-05-01T09:22:54Z</time>
      </trkpt>
      <trkpt lat="42.995590986683965" lon="-9.209911990910769">
        <ele>103.48</ele>
        <time>2025-05-01T09:22:57Z</time>
      </trkpt>
      <trkpt lat="42.995554022490978" lon="-9.20976203866303">
        <ele>103.95999999999999</ele>
        <time>2025-05-01T09:22:58Z</time>
      </trkpt>
      <trkpt lat="42.995498031377792" lon="-9.209687020629644">
        <ele>104.44</ele>
        <time>2025-05-01T09:22:59Z</time>
      </trkpt>
      <trkpt lat="42.995417984202504" lon="-9.209580989554524">
        <ele>104.92</ele>
        <time>2025-05-01T09:23:00Z</time>
      </trkpt>
      <trkpt lat="42.995336009189487" lon="-9.209472024813294">
        <ele>105.40000000000001</ele>
        <time>2025-05-01T09:23:01Z</time>
      </trkpt>
      <trkpt lat="42.995254034176469" lon="-9.209361970424652">
        <ele>106.36</ele>
        <time>2025-05-01T09:23:02Z</time>
      </trkpt>
      <trkpt lat="42.995218997821212" lon="-9.209217969328165">
        <ele>107.31999999999999</ele>
        <time>2025-05-01T09:23:03Z</time>
      </trkpt>
      <trkpt lat="42.995200976729393" lon="-9.209056030958891">
        <ele>107.81</ele>
        <time>2025-05-01T09:23:04Z</time>
      </trkpt>
      <trkpt lat="42.995179016143084" lon="-9.208880010992289">
        <ele>108.77</ele>
        <time>2025-05-01T09:23:05Z</time>
      </trkpt>
      <trkpt lat="42.995053958147764" lon="-9.208127986639738">
        <ele>112.61</ele>
        <time>2025-05-01T09:23:09Z</time>
      </trkpt>
      <trkpt lat="42.995011964812875" lon="-9.207940986379981">
        <ele>113.56999999999999</ele>
        <time>2025-05-01T09:23:10Z</time>
      </trkpt>
      <trkpt lat="42.994723962619901" lon="-9.206769028678536">
        <ele>117.90000000000001</ele>
        <time>2025-05-01T09:23:18Z</time>
      </trkpt>
      <trkpt lat="42.994667971506715" lon="-9.20649996958673">
        <ele>117.42</ele>
        <time>2025-05-01T09:23:24Z</time>
      </trkpt>
      <trkpt lat="42.994564035907388" lon="-9.206546992063522">
        <ele>122.70999999999999</ele>
        <time>2025-05-01T09:29:21Z</time>
      </trkpt>
      <trkpt lat="42.994619021192193" lon="-9.206518996506929">
        <ele>117.42</ele>
        <time>2025-05-01T09:29:33Z</time>
      </trkpt>
      <trkpt lat="42.994651040062308" lon="-9.206395028159022">
        <ele>117.90000000000001</ele>
        <time>2025-05-01T09:29:36Z</time>
      </trkpt>
      <trkpt lat="42.994638970121741" lon="-9.206312969326973">
        <ele>117.90000000000001</ele>
        <time>2025-05-01T09:29:37Z</time>
      </trkpt>
      <trkpt lat="42.994565963745117" lon="-9.20522902160883">
        <ele>116.45999999999999</ele>
        <time>2025-05-01T09:29:45Z</time>
      </trkpt>
      <trkpt lat="42.994538974016905" lon="-9.203720027580857">
        <ele>115.5</ele>
        <time>2025-05-01T09:29:52Z</time>
      </trkpt>
      <trkpt lat="42.994560012593865" lon="-9.202555026859045">
        <ele>115.01000000000001</ele>
        <time>2025-05-01T09:29:57Z</time>
      </trkpt>
      <trkpt lat="42.994579961523414" lon="-9.202327039092779">
        <ele>114.53</ele>
        <time>2025-05-01T09:29:58Z</time>
      </trkpt>
      <trkpt lat="42.994599994271994" lon="-9.202098967507482">
        <ele>113.56999999999999</ele>
        <time>2025-05-01T09:29:59Z</time>
      </trkpt>
      <trkpt lat="42.994620027020574" lon="-9.201855976134539">
        <ele>112.61</ele>
        <time>2025-05-01T09:30:00Z</time>
      </trkpt>
      <trkpt lat="42.994638970121741" lon="-9.201617008075118">
        <ele>111.65000000000001</ele>
        <time>2025-05-01T09:30:01Z</time>
      </trkpt>
      <trkpt lat="42.994684986770153" lon="-9.200950982049108">
        <ele>109.25</ele>
        <time>2025-05-01T09:30:04Z</time>
      </trkpt>
      <trkpt lat="42.994662020355463" lon="-9.200743027031422">
        <ele>108.29000000000001</ele>
        <time>2025-05-01T09:30:05Z</time>
      </trkpt>
      <trkpt lat="42.994638970121741" lon="-9.200529959052801">
        <ele>107.81</ele>
        <time>2025-05-01T09:30:06Z</time>
      </trkpt>
      <trkpt lat="42.994174025952816" lon="-9.198082024231553">
        <ele>102.52</ele>
        <time>2025-05-01T09:30:17Z</time>
      </trkpt>
      <trkpt lat="42.994142007082701" lon="-9.197678016498685">
        <ele>103.48</ele>
        <time>2025-05-01T09:30:19Z</time>
      </trkpt>
      <trkpt lat="42.994136977940798" lon="-9.197485987097025">
        <ele>103.48</ele>
        <time>2025-05-01T09:30:20Z</time>
      </trkpt>
      <trkpt lat="42.994407964870334" lon="-9.195214994251728">
        <ele>105.40000000000001</ele>
        <time>2025-05-01T09:30:31Z</time>
      </trkpt>
      <trkpt lat="42.994618015363812" lon="-9.193783029913902">
        <ele>106.36</ele>
        <time>2025-05-01T09:30:38Z</time>
      </trkpt>
      <trkpt lat="42.994670988991857" lon="-9.193610027432442">
        <ele>106.36</ele>
        <time>2025-05-01T09:30:39Z</time>
      </trkpt>
      <trkpt lat="42.994737038388848" lon="-9.193446999415755">
        <ele>106.84</ele>
        <time>2025-05-01T09:30:40Z</time>
      </trkpt>
      <trkpt lat="42.995108021423221" lon="-9.192723976448178">
        <ele>107.31999999999999</ele>
        <time>2025-05-01T09:30:45Z</time>
      </trkpt>
      <trkpt lat="42.995157977566123" lon="-9.192567989230156">
        <ele>106.84</ele>
        <time>2025-05-01T09:30:46Z</time>
      </trkpt>
      <trkpt lat="42.995207011699677" lon="-9.192414013668895">
        <ele>105.88</ele>
        <time>2025-05-01T09:30:47Z</time>
      </trkpt>
      <trkpt lat="42.995404992252588" lon="-9.191456967964768">
        <ele>103</ele>
        <time>2025-05-01T09:30:54Z</time>
      </trkpt>
      <trkpt lat="42.995428964495659" lon="-9.19137398712337">
        <ele>102.52</ele>
        <time>2025-05-01T09:30:55Z</time>
      </trkpt>
      <trkpt lat="42.995445979759097" lon="-9.19122202321887">
        <ele>101.56</ele>
        <time>2025-05-01T09:30:56Z</time>
      </trkpt>
      <trkpt lat="42.995328968390822" lon="-9.191169971600175">
        <ele>101.08</ele>
        <time>2025-05-01T09:30:57Z</time>
      </trkpt>
      <trkpt lat="42.995261996984482" lon="-9.191139964386821">
        <ele>100.59999999999999</ele>
        <time>2025-05-01T09:30:58Z</time>
      </trkpt>
      <trkpt lat="42.995184967294335" lon="-9.191106017678976">
        <ele>100.11</ele>
        <time>2025-05-01T09:30:59Z</time>
      </trkpt>
      <trkpt lat="42.995100980624557" lon="-9.191068969666958">
        <ele>99.150000000000006</ele>
        <time>2025-05-01T09:31:00Z</time>
      </trkpt>
      <trkpt lat="42.99431199207902" lon="-9.190721958875656">
        <ele>99.150000000000006</ele>
        <time>2025-05-01T09:31:08Z</time>
      </trkpt>
      <trkpt lat="42.994179977104068" lon="-9.19068600051105">
        <ele>99.150000000000006</ele>
        <time>2025-05-01T09:31:09Z</time>
      </trkpt>
      <trkpt lat="42.994101019576192" lon="-9.190698992460966">
        <ele>99.629999999999995</ele>
        <time>2025-05-01T09:31:10Z</time>
      </trkpt>
      <trkpt lat="42.993993982672691" lon="-9.190736040472984">
        <ele>99.629999999999995</ele>
        <time>2025-05-01T09:31:11Z</time>
      </trkpt>
      <trkpt lat="42.993887029588223" lon="-9.190807035192847">
        <ele>99.629999999999995</ele>
        <time>2025-05-01T09:31:12Z</time>
      </trkpt>
      <trkpt lat="42.993793990463018" lon="-9.1909009963274">
        <ele>99.150000000000006</ele>
        <time>2025-05-01T09:31:13Z</time>
      </trkpt>
      <trkpt lat="42.993697011843324" lon="-9.191001998260617">
        <ele>98.670000000000002</ele>
        <time>2025-05-01T09:31:14Z</time>
      </trkpt>
      <trkpt lat="42.9936049785465" lon="-9.191107023507357">
        <ele>98.189999999999998</ele>
        <time>2025-05-01T09:31:15Z</time>
      </trkpt>
      <trkpt lat="42.993506994098425" lon="-9.191184975206852">
        <ele>98.189999999999998</ele>
        <time>2025-05-01T09:31:16Z</time>
      </trkpt>
      <trkpt lat="42.993398029357195" lon="-9.191257981583476">
        <ele>97.709999999999994</ele>
        <time>2025-05-01T09:31:17Z</time>
      </trkpt>
      <trkpt lat="42.993286969140172" lon="-9.1913309879601">
        <ele>97.709999999999994</ele>
        <time>2025-05-01T09:31:18Z</time>
      </trkpt>
      <trkpt lat="42.993183033540845" lon="-9.191345991566777">
        <ele>97.709999999999994</ele>
        <time>2025-05-01T09:31:19Z</time>
      </trkpt>
      <trkpt lat="42.993059987202287" lon="-9.191338028758764">
        <ele>97.709999999999994</ele>
        <time>2025-05-01T09:31:20Z</time>
      </trkpt>
      <trkpt lat="42.992931995540857" lon="-9.191328976303339">
        <ele>98.189999999999998</ele>
        <time>2025-05-01T09:31:21Z</time>
      </trkpt>
      <trkpt lat="42.992796963080764" lon="-9.191292012110353">
        <ele>98.670000000000002</ele>
        <time>2025-05-01T09:31:22Z</time>
      </trkpt>
      <trkpt lat="42.992665031924844" lon="-9.191254964098334">
        <ele>99.150000000000006</ele>
        <time>2025-05-01T09:31:23Z</time>
      </trkpt>
      <trkpt lat="42.99214300699532" lon="-9.191144993528724">
        <ele>99.629999999999995</ele>
        <time>2025-05-01T09:31:27Z</time>
      </trkpt>
      <trkpt lat="42.992018032819033" lon="-9.191152034327388">
        <ele>99.629999999999995</ele>
        <time>2025-05-01T09:31:28Z</time>
      </trkpt>
      <trkpt lat="42.991890041157603" lon="-9.191187992691994">
        <ele>99.150000000000006</ele>
        <time>2025-05-01T09:31:29Z</time>
      </trkpt>
      <trkpt lat="42.99175500869751" lon="-9.191251024603844">
        <ele>98.670000000000002</ele>
        <time>2025-05-01T09:31:30Z</time>
      </trkpt>
      <trkpt lat="42.991621987894177" lon="-9.191327970474958">
        <ele>98.670000000000002</ele>
        <time>2025-05-01T09:31:31Z</time>
      </trkpt>
      <trkpt lat="42.99119995906949" lon="-9.191475994884968">
        <ele>97.709999999999994</ele>
        <time>2025-05-01T09:31:34Z</time>
      </trkpt>
      <trkpt lat="42.991057969629765" lon="-9.191498961299658">
        <ele>97.230000000000004</ele>
        <time>2025-05-01T09:31:35Z</time>
      </trkpt>
      <trkpt lat="42.990550026297569" lon="-9.191508013755083">
        <ele>98.670000000000002</ele>
        <time>2025-05-01T09:31:39Z</time>
      </trkpt>
      <trkpt lat="42.990441983565688" lon="-9.191492004320025">
        <ele>98.670000000000002</ele>
        <time>2025-05-01T09:31:40Z</time>
      </trkpt>
      <trkpt lat="42.99033896997571" lon="-9.191453028470278">
        <ele>98.670000000000002</ele>
        <time>2025-05-01T09:31:41Z</time>
      </trkpt>
      <trkpt lat="42.990259006619453" lon="-9.191353032365441">
        <ele>98.670000000000002</ele>
        <time>2025-05-01T09:31:42Z</time>
      </trkpt>
      <trkpt lat="42.990176025778055" lon="-9.191249012947083">
        <ele>98.670000000000002</ele>
        <time>2025-05-01T09:31:43Z</time>
      </trkpt>
      <trkpt lat="42.990089021623135" lon="-9.19113501906395">
        <ele>98.670000000000002</ele>
        <time>2025-05-01T09:31:44Z</time>
      </trkpt>
      <trkpt lat="42.989437999203801" lon="-9.190171016380191">
        <ele>95.790000000000006</ele>
        <time>2025-05-01T09:31:51Z</time>
      </trkpt>
      <trkpt lat="42.989230966195464" lon="-9.189948979765177">
        <ele>94.349999999999994</ele>
        <time>2025-05-01T09:31:53Z</time>
      </trkpt>
      <trkpt lat="42.98911202698946" lon="-9.189834985882044">
        <ele>93.390000000000001</ele>
        <time>2025-05-01T09:31:54Z</time>
      </trkpt>
      <trkpt lat="42.988981017842889" lon="-9.18976197950542">
        <ele>92.900000000000006</ele>
        <time>2025-05-01T09:31:55Z</time>
      </trkpt>
      <trkpt lat="42.988845985382795" lon="-9.189686961472035">
        <ele>91.939999999999998</ele>
        <time>2025-05-01T09:31:56Z</time>
      </trkpt>
      <trkpt lat="42.988709025084972" lon="-9.189612027257681">
        <ele>90.980000000000004</ele>
        <time>2025-05-01T09:31:57Z</time>
      </trkpt>
      <trkpt lat="42.988452035933733" lon="-9.189476994797587">
        <ele>89.060000000000002</ele>
        <time>2025-05-01T09:31:59Z</time>
      </trkpt>
      <trkpt lat="42.988343993201852" lon="-9.189419997856021">
        <ele>88.099999999999994</ele>
        <time>2025-05-01T09:32:00Z</time>
      </trkpt>
      <trkpt lat="42.988264029845595" lon="-9.18931296095252">
        <ele>87.620000000000005</ele>
        <time>2025-05-01T09:32:01Z</time>
      </trkpt>
      <trkpt lat="42.988190017640591" lon="-9.189184969291091">
        <ele>87.140000000000001</ele>
        <time>2025-05-01T09:32:02Z</time>
      </trkpt>
      <trkpt lat="42.988113993778825" lon="-9.1890549659729">
        <ele>86.659999999999997</ele>
        <time>2025-05-01T09:32:03Z</time>
      </trkpt>
      <trkpt lat="42.987634968012571" lon="-9.188198000192642">
        <ele>88.579999999999998</ele>
        <time>2025-05-01T09:32:09Z</time>
      </trkpt>
      <trkpt lat="42.986862994730473" lon="-9.186866031959653">
        <ele>90.980000000000004</ele>
        <time>2025-05-01T09:32:17Z</time>
      </trkpt>
      <trkpt lat="42.986802980303764" lon="-9.186655981466174">
        <ele>90.5</ele>
        <time>2025-05-01T09:32:18Z</time>
      </trkpt>
      <trkpt lat="42.986743971705437" lon="-9.186450960114598">
        <ele>89.540000000000006</ele>
        <time>2025-05-01T09:32:19Z</time>
      </trkpt>
      <trkpt lat="42.98670600168407" lon="-9.186243005096912">
        <ele>89.060000000000002</ele>
        <time>2025-05-01T09:32:20Z</time>
      </trkpt>
      <trkpt lat="42.986583961173892" lon="-9.185449993237853">
        <ele>89.540000000000006</ele>
        <time>2025-05-01T09:32:25Z</time>
      </trkpt>
      <trkpt lat="42.986438032239676" lon="-9.185303980484605">
        <ele>90.5</ele>
        <time>2025-05-01T09:32:28Z</time>
      </trkpt>
      <trkpt lat="42.986400984227657" lon="-9.185267016291618">
        <ele>90.980000000000004</ele>
        <time>2025-05-01T09:32:29Z</time>
      </trkpt>
      <trkpt lat="42.986357985064387" lon="-9.185234997421503">
        <ele>91.459999999999994</ele>
        <time>2025-05-01T09:32:30Z</time>
      </trkpt>
      <trkpt lat="42.986275004222989" lon="-9.185230974107981">
        <ele>91.939999999999998</ele>
        <time>2025-05-01T09:32:31Z</time>
      </trkpt>
      <trkpt lat="42.986175008118153" lon="-9.18522602878511">
        <ele>91.939999999999998</ele>
        <time>2025-05-01T09:32:32Z</time>
      </trkpt>
      <trkpt lat="42.9860620200634" lon="-9.185219993814826">
        <ele>91.939999999999998</ele>
        <time>2025-05-01T09:32:33Z</time>
      </trkpt>
      <trkpt lat="42.985004978254437" lon="-9.185586031526327">
        <ele>92.420000000000002</ele>
        <time>2025-05-01T09:32:40Z</time>
      </trkpt>
      <trkpt lat="42.983179986476898" lon="-9.18630201369524">
        <ele>93.390000000000001</ele>
        <time>2025-05-01T09:32:51Z</time>
      </trkpt>
      <trkpt lat="42.981739975512028" lon="-9.186897967010737">
        <ele>93.390000000000001</ele>
        <time>2025-05-01T09:33:00Z</time>
      </trkpt>
      <trkpt lat="42.979377033188939" lon="-9.187846966087818">
        <ele>91.939999999999998</ele>
        <time>2025-05-01T09:33:14Z</time>
      </trkpt>
      <trkpt lat="42.978119999170303" lon="-9.188339989632368">
        <ele>90.5</ele>
        <time>2025-05-01T09:33:23Z</time>
      </trkpt>
      <trkpt lat="42.978026960045099" lon="-9.188373014330864">
        <ele>90.5</ele>
        <time>2025-05-01T09:33:24Z</time>
      </trkpt>
      <trkpt lat="42.97794003970921" lon="-9.188418025150895">
        <ele>90.5</ele>
        <time>2025-05-01T09:33:25Z</time>
      </trkpt>
      <trkpt lat="42.977862004190683" lon="-9.18847200460732">
        <ele>90.5</ele>
        <time>2025-05-01T09:33:26Z</time>
      </trkpt>
      <trkpt lat="42.977808024734259" lon="-9.188754977658391">
        <ele>90.980000000000004</ele>
        <time>2025-05-01T09:33:27Z</time>
      </trkpt>
      <trkpt lat="42.977808024734259" lon="-9.188755983486772">
        <ele>90.980000000000004</ele>
        <time>2025-05-01T09:33:28Z</time>
      </trkpt>
      <trkpt lat="42.977771982550621" lon="-9.18888196349144">
        <ele>90.980000000000004</ele>
        <time>2025-05-01T09:33:29Z</time>
      </trkpt>
      <trkpt lat="42.977736024186015" lon="-9.189005009829998">
        <ele>91.459999999999994</ele>
        <time>2025-05-01T09:33:30Z</time>
      </trkpt>
      <trkpt lat="42.977634016424417" lon="-9.189113974571228">
        <ele>91.459999999999994</ele>
        <time>2025-05-01T09:33:31Z</time>
      </trkpt>
      <trkpt lat="42.977593028917909" lon="-9.18914096429944">
        <ele>91.459999999999994</ele>
        <time>2025-05-01T09:33:32Z</time>
      </trkpt>
      <trkpt lat="42.977358000352979" lon="-9.189173988997936">
        <ele>91.459999999999994</ele>
        <time>2025-05-01T09:33:33Z</time>
      </trkpt>
      <trkpt lat="42.97731801867485" lon="-9.189282031729817">
        <ele>91.459999999999994</ele>
        <time>2025-05-01T09:33:34Z</time>
      </trkpt>
      <trkpt lat="42.977276025339961" lon="-9.189394013956189">
        <ele>91.459999999999994</ele>
        <time>2025-05-01T09:33:35Z</time>
      </trkpt>
      <trkpt lat="42.977234032005072" lon="-9.189523011445999">
        <ele>91.459999999999994</ele>
        <time>2025-05-01T09:33:36Z</time>
      </trkpt>
      <trkpt lat="42.976838992908597" lon="-9.19079496525228">
        <ele>91.939999999999998</ele>
        <time>2025-05-01T09:33:43Z</time>
      </trkpt>
      <trkpt lat="42.975997030735016" lon="-9.192332038655877">
        <ele>92.420000000000002</ele>
        <time>2025-05-01T09:33:51Z</time>
      </trkpt>
      <trkpt lat="42.97439600341022" lon="-9.194541005417705">
        <ele>94.829999999999998</ele>
        <time>2025-05-01T09:34:03Z</time>
      </trkpt>
      <trkpt lat="42.972791958600283" lon="-9.19680898077786">
        <ele>101.56</ele>
        <time>2025-05-01T09:34:14Z</time>
      </trkpt>
      <trkpt lat="42.971025975421071" lon="-9.199274014681578">
        <ele>110.20999999999999</ele>
        <time>2025-05-01T09:34:24Z</time>
      </trkpt>
      <trkpt lat="42.968611987307668" lon="-9.202624009922147">
        <ele>127.98999999999999</ele>
        <time>2025-05-01T09:34:38Z</time>
      </trkpt>
      <trkpt lat="42.966177966445684" lon="-9.206007029861212">
        <ele>150.09999999999999</ele>
        <time>2025-05-01T09:34:52Z</time>
      </trkpt>
      <trkpt lat="42.964511979371309" lon="-9.207994965836406">
        <ele>159.72</ele>
        <time>2025-05-01T09:35:01Z</time>
      </trkpt>
      <trkpt lat="42.962959986180067" lon="-9.208956034854055">
        <ele>162.59999999999999</ele>
        <time>2025-05-01T09:35:08Z</time>
      </trkpt>
      <trkpt lat="42.96055899001658" lon="-9.209600016474724">
        <ele>157.31</ele>
        <time>2025-05-01T09:35:18Z</time>
      </trkpt>
      <trkpt lat="42.959067011252046" lon="-9.209931017830968">
        <ele>147.69999999999999</ele>
        <time>2025-05-01T09:35:25Z</time>
      </trkpt>
      <trkpt lat="42.95632797293365" lon="-9.210664015263319">
        <ele>132.80000000000001</ele>
        <time>2025-05-01T09:35:38Z</time>
      </trkpt>
      <trkpt lat="42.954575987532735" lon="-9.211734971031547">
        <ele>121.26000000000001</ele>
        <time>2025-05-01T09:35:47Z</time>
      </trkpt>
      <trkpt lat="42.953069005161524" lon="-9.213343039155006">
        <ele>110.20999999999999</ele>
        <time>2025-05-01T09:35:56Z</time>
      </trkpt>
      <trkpt lat="42.951667970046401" lon="-9.215331980958581">
        <ele>100.11</ele>
        <time>2025-05-01T09:36:04Z</time>
      </trkpt>
      <trkpt lat="42.949769971892238" lon="-9.218126004561782">
        <ele>86.180000000000007</ele>
        <time>2025-05-01T09:36:14Z</time>
      </trkpt>
      <trkpt lat="42.948413025587797" lon="-9.220104971900582">
        <ele>77.519999999999996</ele>
        <time>2025-05-01T09:36:21Z</time>
      </trkpt>
      <trkpt lat="42.94622702524066" lon="-9.22306596301496">
        <ele>59.259999999999998</ele>
        <time>2025-05-01T09:36:32Z</time>
      </trkpt>
      <trkpt lat="42.944840993732214" lon="-9.2243089992553">
        <ele>47.719999999999999</ele>
        <time>2025-05-01T09:36:39Z</time>
      </trkpt>
      <trkpt lat="42.944707972928882" lon="-9.22441796399653">
        <ele>45.799999999999997</ele>
        <time>2025-05-01T09:36:40Z</time>
      </trkpt>
      <trkpt lat="42.944591967388988" lon="-9.224498011171818">
        <ele>44.359999999999999</ele>
        <time>2025-05-01T09:36:41Z</time>
      </trkpt>
      <trkpt lat="42.94448803178966" lon="-9.224530030041933">
        <ele>42.439999999999998</ele>
        <time>2025-05-01T09:36:42Z</time>
      </trkpt>
      <trkpt lat="42.94438200071454" lon="-9.224537992849946">
        <ele>40.990000000000002</ele>
        <time>2025-05-01T09:36:43Z</time>
      </trkpt>
      <trkpt lat="42.944290973246098" lon="-9.224546039476991">
        <ele>39.549999999999997</ele>
        <time>2025-05-01T09:36:44Z</time>
      </trkpt>
      <trkpt lat="42.944197012111545" lon="-9.224527012556791">
        <ele>38.590000000000003</ele>
        <time>2025-05-01T09:36:45Z</time>
      </trkpt>
      <trkpt lat="42.944098021835089" lon="-9.224507985636592">
        <ele>37.630000000000003</ele>
        <time>2025-05-01T09:36:46Z</time>
      </trkpt>
      <trkpt lat="42.943990984931588" lon="-9.224675036966801">
        <ele>37.149999999999999</ele>
        <time>2025-05-01T09:36:47Z</time>
      </trkpt>
      <trkpt lat="42.943904986605048" lon="-9.224718036130071">
        <ele>36.670000000000002</ele>
        <time>2025-05-01T09:36:48Z</time>
      </trkpt>
      <trkpt lat="42.943726032972336" lon="-9.224773021414876">
        <ele>35.710000000000001</ele>
        <time>2025-05-01T09:36:49Z</time>
      </trkpt>
      <trkpt lat="42.943632993847132" lon="-9.224926996976137">
        <ele>35.229999999999997</ele>
        <time>2025-05-01T09:36:50Z</time>
      </trkpt>
      <trkpt lat="42.943540038540959" lon="-9.22508298419416">
        <ele>35.229999999999997</ele>
        <time>2025-05-01T09:36:51Z</time>
      </trkpt>
      <trkpt lat="42.943452028557658" lon="-9.225304014980793">
        <ele>34.740000000000002</ele>
        <time>2025-05-01T09:36:52Z</time>
      </trkpt>
      <trkpt lat="42.943368041887879" lon="-9.225511969998479">
        <ele>34.740000000000002</ele>
        <time>2025-05-01T09:36:53Z</time>
      </trkpt>
      <trkpt lat="42.943315990269184" lon="-9.225723026320338">
        <ele>34.259999999999998</ele>
        <time>2025-05-01T09:36:54Z</time>
      </trkpt>
      <trkpt lat="42.942947018891573" lon="-9.227461013942957">
        <ele>30.420000000000002</ele>
        <time>2025-05-01T09:37:03Z</time>
      </trkpt>
      <trkpt lat="42.942975014448166" lon="-9.228784013539553">
        <ele>24.170000000000002</ele>
        <time>2025-05-01T09:37:11Z</time>
      </trkpt>
      <trkpt lat="42.943127984181046" lon="-9.229508964344859">
        <ele>20.809999999999999</ele>
        <time>2025-05-01T09:37:16Z</time>
      </trkpt>
      <trkpt lat="42.943270979449153" lon="-9.22993702813983">
        <ele>20.809999999999999</ele>
        <time>2025-05-01T09:37:19Z</time>
      </trkpt>
      <trkpt lat="42.943301992490888" lon="-9.230081029236317">
        <ele>20.32</ele>
        <time>2025-05-01T09:37:20Z</time>
      </trkpt>
      <trkpt lat="42.9433289822191" lon="-9.230226036161184">
        <ele>19.84</ele>
        <time>2025-05-01T09:37:21Z</time>
      </trkpt>
      <trkpt lat="42.943342979997396" lon="-9.23036802560091">
        <ele>18.879999999999999</ele>
        <time>2025-05-01T09:37:22Z</time>
      </trkpt>
      <trkpt lat="42.9433289822191" lon="-9.230524012818933">
        <ele>18.399999999999999</ele>
        <time>2025-05-01T09:37:23Z</time>
      </trkpt>
      <trkpt lat="42.943307021632791" lon="-9.230667008087039">
        <ele>17.440000000000001</ele>
        <time>2025-05-01T09:37:24Z</time>
      </trkpt>
      <trkpt lat="42.943286988884211" lon="-9.230806985870004">
        <ele>16.960000000000001</ele>
        <time>2025-05-01T09:37:25Z</time>
      </trkpt>
      <trkpt lat="42.943064030259848" lon="-9.232317991554737">
        <ele>12.630000000000001</ele>
        <time>2025-05-01T09:37:36Z</time>
      </trkpt>
      <trkpt lat="42.943011978641152" lon="-9.232587972655892">
        <ele>11.67</ele>
        <time>2025-05-01T09:37:38Z</time>
      </trkpt>
      <trkpt lat="42.942969985306263" lon="-9.232714036479592">
        <ele>11.67</ele>
        <time>2025-05-01T09:37:39Z</time>
      </trkpt>
      <trkpt lat="42.942917011678219" lon="-9.23283901065588">
        <ele>11.67</ele>
        <time>2025-05-01T09:37:40Z</time>
      </trkpt>
      <trkpt lat="42.94285599142313" lon="-9.232961973175407">
        <ele>12.15</ele>
        <time>2025-05-01T09:37:41Z</time>
      </trkpt>
      <trkpt lat="42.94279002584517" lon="-9.233055012300611">
        <ele>12.15</ele>
        <time>2025-05-01T09:37:42Z</time>
      </trkpt>
      <trkpt lat="42.942316029220819" lon="-9.233758002519608">
        <ele>14.08</ele>
        <time>2025-05-01T09:37:49Z</time>
      </trkpt>
      <trkpt lat="42.941969018429518" lon="-9.234281033277512">
        <ele>16.960000000000001</ele>
        <time>2025-05-01T09:37:54Z</time>
      </trkpt>
      <trkpt lat="42.941905986517668" lon="-9.234385974705219">
        <ele>16.960000000000001</ele>
        <time>2025-05-01T09:37:55Z</time>
      </trkpt>
      <trkpt lat="42.941484963521361" lon="-9.23496600240469">
        <ele>17.920000000000002</ele>
        <time>2025-05-01T09:38:01Z</time>
      </trkpt>
      <trkpt lat="42.941309027373791" lon="-9.235102962702513">
        <ele>17.440000000000001</ele>
        <time>2025-05-01T09:38:03Z</time>
      </trkpt>
      <trkpt lat="42.941211964935064" lon="-9.235125007107854">
        <ele>17.440000000000001</ele>
        <time>2025-05-01T09:38:04Z</time>
      </trkpt>
      <trkpt lat="42.941112974658608" lon="-9.235145961865783">
        <ele>17.440000000000001</ele>
        <time>2025-05-01T09:38:05Z</time>
      </trkpt>
      <trkpt lat="42.94070603325963" lon="-9.235163982957602">
        <ele>17.440000000000001</ele>
        <time>2025-05-01T09:38:09Z</time>
      </trkpt>
      <trkpt lat="42.940273024141788" lon="-9.235097011551261">
        <ele>19.84</ele>
        <time>2025-05-01T09:38:13Z</time>
      </trkpt>
      <trkpt lat="42.940147966146469" lon="-9.235091982409358">
        <ele>20.32</ele>
        <time>2025-05-01T09:38:14Z</time>
      </trkpt>
      <trkpt lat="42.940030032768846" lon="-9.235145961865783">
        <ele>20.809999999999999</ele>
        <time>2025-05-01T09:38:15Z</time>
      </trkpt>
      <trkpt lat="42.939914027228951" lon="-9.235213017091155">
        <ele>21.289999999999999</ele>
        <time>2025-05-01T09:38:16Z</time>
      </trkpt>
      <trkpt lat="42.939815036952496" lon="-9.235328016802669">
        <ele>21.77</ele>
        <time>2025-05-01T09:38:17Z</time>
      </trkpt>
      <trkpt lat="42.939710011705756" lon="-9.235448967665434">
        <ele>22.73</ele>
        <time>2025-05-01T09:38:18Z</time>
      </trkpt>
      <trkpt lat="42.939603980630636" lon="-9.235581988468766">
        <ele>23.690000000000001</ele>
        <time>2025-05-01T09:38:19Z</time>
      </trkpt>
      <trkpt lat="42.939263004809618" lon="-9.236010974273086">
        <ele>26.09</ele>
        <time>2025-05-01T09:38:22Z</time>
      </trkpt>
      <trkpt lat="42.939122021198273" lon="-9.236110970377922">
        <ele>27.050000000000001</ele>
        <time>2025-05-01T09:38:23Z</time>
      </trkpt>
      <trkpt lat="42.938970979303122" lon="-9.236203003674746">
        <ele>28.02</ele>
        <time>2025-05-01T09:38:24Z</time>
      </trkpt>
      <trkpt lat="42.93799901381135" lon="-9.236745983362198">
        <ele>32.340000000000003</ele>
        <time>2025-05-01T09:38:30Z</time>
      </trkpt>
      <trkpt lat="42.93782802298665" lon="-9.236788982525468">
        <ele>33.299999999999997</ele>
        <time>2025-05-01T09:38:31Z</time>
      </trkpt>
      <trkpt lat="42.937660971656442" lon="-9.236819995567203">
        <ele>33.780000000000001</ele>
        <time>2025-05-01T09:38:32Z</time>
      </trkpt>
      <trkpt lat="42.937489980831742" lon="-9.23679200001061">
        <ele>34.740000000000002</ele>
        <time>2025-05-01T09:38:33Z</time>
      </trkpt>
      <trkpt lat="42.937325024977326" lon="-9.236712958663702">
        <ele>35.710000000000001</ele>
        <time>2025-05-01T09:38:34Z</time>
      </trkpt>
      <trkpt lat="42.937158979475498" lon="-9.236612962558866">
        <ele>36.189999999999998</ele>
        <time>2025-05-01T09:38:35Z</time>
      </trkpt>
      <trkpt lat="42.935910997912288" lon="-9.235946014523506">
        <ele>42.920000000000002</ele>
        <time>2025-05-01T09:38:42Z</time>
      </trkpt>
      <trkpt lat="42.935725003480911" lon="-9.235858004540205">
        <ele>44.359999999999999</ele>
        <time>2025-05-01T09:38:43Z</time>
      </trkpt>
      <trkpt lat="42.935535991564393" lon="-9.235790027305484">
        <ele>45.32</ele>
        <time>2025-05-01T09:38:44Z</time>
      </trkpt>
      <trkpt lat="42.934074020013213" lon="-9.235738981515169">
        <ele>53.969999999999999</ele>
        <time>2025-05-01T09:38:51Z</time>
      </trkpt>
      <trkpt lat="42.933858018368483" lon="-9.2357839923352">
        <ele>54.450000000000003</ele>
        <time>2025-05-01T09:38:52Z</time>
      </trkpt>
      <trkpt lat="42.933635981753469" lon="-9.235831014811993">
        <ele>55.409999999999997</ele>
        <time>2025-05-01T09:38:53Z</time>
      </trkpt>
      <trkpt lat="42.932982025668025" lon="-9.235971998423338">
        <ele>57.340000000000003</ele>
        <time>2025-05-01T09:38:56Z</time>
      </trkpt>
      <trkpt lat="42.932783961296082" lon="-9.235936962068081">
        <ele>57.82</ele>
        <time>2025-05-01T09:38:57Z</time>
      </trkpt>
      <trkpt lat="42.932583969086409" lon="-9.235903015360236">
        <ele>58.780000000000001</ele>
        <time>2025-05-01T09:38:58Z</time>
      </trkpt>
      <trkpt lat="42.932386994361877" lon="-9.23582699149847">
        <ele>59.259999999999998</ele>
        <time>2025-05-01T09:38:59Z</time>
      </trkpt>
      <trkpt lat="42.932197982445359" lon="-9.235747028142214">
        <ele>59.740000000000002</ele>
        <time>2025-05-01T09:39:00Z</time>
      </trkpt>
      <trkpt lat="42.931995978578925" lon="-9.235661029815674">
        <ele>60.219999999999999</ele>
        <time>2025-05-01T09:39:01Z</time>
      </trkpt>
      <trkpt lat="42.931809984147549" lon="-9.235617024824023">
        <ele>60.700000000000003</ele>
        <time>2025-05-01T09:39:02Z</time>
      </trkpt>
      <trkpt lat="42.931601023301482" lon="-9.235578970983625">
        <ele>61.659999999999997</ele>
        <time>2025-05-01T09:39:03Z</time>
      </trkpt>
      <trkpt lat="42.931393990293145" lon="-9.235608978196979">
        <ele>62.140000000000001</ele>
        <time>2025-05-01T09:39:04Z</time>
      </trkpt>
      <trkpt lat="42.93118704110384" lon="-9.235638985410333">
        <ele>62.619999999999997</ele>
        <time>2025-05-01T09:39:05Z</time>
      </trkpt>
      <trkpt lat="42.930984031409025" lon="-9.235728001222014">
        <ele>63.100000000000001</ele>
        <time>2025-05-01T09:39:06Z</time>
      </trkpt>
      <trkpt lat="42.930784961208701" lon="-9.235818022862077">
        <ele>63.579999999999998</ele>
        <time>2025-05-01T09:39:07Z</time>
      </trkpt>
      <trkpt lat="42.930611958727241" lon="-9.235994964838028">
        <ele>64.069999999999993</ele>
        <time>2025-05-01T09:39:08Z</time>
      </trkpt>
      <trkpt lat="42.930441973730922" lon="-9.236188000068069">
        <ele>64.069999999999993</ele>
        <time>2025-05-01T09:39:09Z</time>
      </trkpt>
      <trkpt lat="42.930265031754971" lon="-9.236378017812967">
        <ele>64.549999999999997</ele>
        <time>2025-05-01T09:39:10Z</time>
      </trkpt>
      <trkpt lat="42.930085994303226" lon="-9.236562000587583">
        <ele>64.549999999999997</ele>
        <time>2025-05-01T09:39:11Z</time>
      </trkpt>
      <trkpt lat="42.928905989974737" lon="-9.237721972167492">
        <ele>63.579999999999998</ele>
        <time>2025-05-01T09:39:18Z</time>
      </trkpt>
      <trkpt lat="42.928785039111972" lon="-9.237906038761139">
        <ele>63.100000000000001</ele>
        <time>2025-05-01T09:39:19Z</time>
      </trkpt>
      <trkpt lat="42.928702980279922" lon="-9.238117011263967">
        <ele>62.619999999999997</ele>
        <time>2025-05-01T09:39:20Z</time>
      </trkpt>
      <trkpt lat="42.928646989166737" lon="-9.238333012908697">
        <ele>62.140000000000001</ele>
        <time>2025-05-01T09:39:21Z</time>
      </trkpt>
      <trkpt lat="42.928627040237188" lon="-9.238551026210189">
        <ele>61.18</ele>
        <time>2025-05-01T09:39:22Z</time>
      </trkpt>
      <trkpt lat="42.928646989166737" lon="-9.23876996152103">
        <ele>60.700000000000003</ele>
        <time>2025-05-01T09:39:23Z</time>
      </trkpt>
      <trkpt lat="42.928690994158387" lon="-9.239009013399482">
        <ele>59.740000000000002</ele>
        <time>2025-05-01T09:39:24Z</time>
      </trkpt>
      <trkpt lat="42.928783027455211" lon="-9.239191990345717">
        <ele>59.259999999999998</ele>
        <time>2025-05-01T09:39:25Z</time>
      </trkpt>
      <trkpt lat="42.928886963054538" lon="-9.239399023354054">
        <ele>58.780000000000001</ele>
        <time>2025-05-01T09:39:26Z</time>
      </trkpt>
      <trkpt lat="42.929586013779044" lon="-9.240608029067516">
        <ele>55.890000000000001</ele>
        <time>2025-05-01T09:39:32Z</time>
      </trkpt>
      <trkpt lat="42.92964200489223" lon="-9.240808021277189">
        <ele>55.409999999999997</ele>
        <time>2025-05-01T09:39:33Z</time>
      </trkpt>
      <trkpt lat="42.929677963256836" lon="-9.241008013486862">
        <ele>54.93</ele>
        <time>2025-05-01T09:39:34Z</time>
      </trkpt>
      <trkpt lat="42.929670000448823" lon="-9.241211023181677">
        <ele>54.450000000000003</ele>
        <time>2025-05-01T09:39:35Z</time>
      </trkpt>
      <trkpt lat="42.92962197214365" lon="-9.241426018998027">
        <ele>53.969999999999999</ele>
        <time>2025-05-01T09:39:36Z</time>
      </trkpt>
      <trkpt lat="42.929571010172367" lon="-9.241647971794009">
        <ele>53.490000000000002</ele>
        <time>2025-05-01T09:39:37Z</time>
      </trkpt>
      <trkpt lat="42.929474031552672" lon="-9.241860033944249">
        <ele>52.530000000000001</ele>
        <time>2025-05-01T09:39:38Z</time>
      </trkpt>
      <trkpt lat="42.929368000477552" lon="-9.242091961205006">
        <ele>52.049999999999997</ele>
        <time>2025-05-01T09:39:39Z</time>
      </trkpt>
      <trkpt lat="42.929243026301265" lon="-9.242320032790303">
        <ele>51.090000000000003</ele>
        <time>2025-05-01T09:39:40Z</time>
      </trkpt>
      <trkpt lat="42.927934024482965" lon="-9.244349040091038">
        <ele>41.950000000000003</ele>
        <time>2025-05-01T09:39:49Z</time>
      </trkpt>
      <trkpt lat="42.927533034235239" lon="-9.245011964812875">
        <ele>38.590000000000003</ele>
        <time>2025-05-01T09:39:52Z</time>
      </trkpt>
      <trkpt lat="42.927434965968132" lon="-9.245241964235902">
        <ele>38.109999999999999</ele>
        <time>2025-05-01T09:39:53Z</time>
      </trkpt>
      <trkpt lat="42.927353996783495" lon="-9.245484033599496">
        <ele>37.149999999999999</ele>
        <time>2025-05-01T09:39:54Z</time>
      </trkpt>
      <trkpt lat="42.927305968478322" lon="-9.24575200304389">
        <ele>36.189999999999998</ele>
        <time>2025-05-01T09:39:55Z</time>
      </trkpt>
      <trkpt lat="42.927258023992181" lon="-9.246022989973426">
        <ele>35.710000000000001</ele>
        <time>2025-05-01T09:39:56Z</time>
      </trkpt>
      <trkpt lat="42.927242014557123" lon="-9.246301017701626">
        <ele>35.229999999999997</ele>
        <time>2025-05-01T09:39:57Z</time>
      </trkpt>
      <trkpt lat="42.927228016778827" lon="-9.246593965217471">
        <ele>34.740000000000002</ele>
        <time>2025-05-01T09:39:58Z</time>
      </trkpt>
      <trkpt lat="42.927215024828911" lon="-9.24689001403749">
        <ele>34.740000000000002</ele>
        <time>2025-05-01T09:39:59Z</time>
      </trkpt>
      <trkpt lat="42.927222987636924" lon="-9.247171981260181">
        <ele>34.740000000000002</ele>
        <time>2025-05-01T09:40:00Z</time>
      </trkpt>
      <trkpt lat="42.927258023992181" lon="-9.247754020616412">
        <ele>34.259999999999998</ele>
        <time>2025-05-01T09:40:02Z</time>
      </trkpt>
      <trkpt lat="42.927564969286323" lon="-9.249481027945876">
        <ele>31.379999999999999</ele>
        <time>2025-05-01T09:40:08Z</time>
      </trkpt>
      <trkpt lat="42.928085988387465" lon="-9.25099303945899">
        <ele>28.98</ele>
        <time>2025-05-01T09:40:15Z</time>
      </trkpt>
      <trkpt lat="42.928130999207497" lon="-9.251194959506393">
        <ele>28.5</ele>
        <time>2025-05-01T09:40:16Z</time>
      </trkpt>
      <trkpt lat="42.92816000059247" lon="-9.251399980857968">
        <ele>28.02</ele>
        <time>2025-05-01T09:40:17Z</time>
      </trkpt>
      <trkpt lat="42.928169975057244" lon="-9.251606008037925">
        <ele>28.02</ele>
        <time>2025-05-01T09:40:18Z</time>
      </trkpt>
      <trkpt lat="42.928170980885625" lon="-9.251802982762456">
        <ele>27.530000000000001</ele>
        <time>2025-05-01T09:40:19Z</time>
      </trkpt>
      <trkpt lat="42.928153965622187" lon="-9.251996017992497">
        <ele>27.530000000000001</ele>
        <time>2025-05-01T09:40:20Z</time>
      </trkpt>
      <trkpt lat="42.928111972287297" lon="-9.252590965479612">
        <ele>26.57</ele>
        <time>2025-05-01T09:40:23Z</time>
      </trkpt>
      <trkpt lat="42.92813896201551" lon="-9.252802021801472">
        <ele>25.609999999999999</ele>
        <time>2025-05-01T09:40:24Z</time>
      </trkpt>
      <trkpt lat="42.928185984492302" lon="-9.253010982647538">
        <ele>25.129999999999999</ele>
        <time>2025-05-01T09:40:25Z</time>
      </trkpt>
      <trkpt lat="42.928240969777107" lon="-9.253226984292269">
        <ele>24.649999999999999</ele>
        <time>2025-05-01T09:40:26Z</time>
      </trkpt>
      <trkpt lat="42.928297966718674" lon="-9.253447009250522">
        <ele>24.170000000000002</ele>
        <time>2025-05-01T09:40:27Z</time>
      </trkpt>
      <trkpt lat="42.928540958091617" lon="-9.255207041278482">
        <ele>17.440000000000001</ele>
        <time>2025-05-01T09:40:35Z</time>
      </trkpt>
      <trkpt lat="42.928252033889294" lon="-9.256960032507777">
        <ele>11.67</ele>
        <time>2025-05-01T09:40:43Z</time>
      </trkpt>
      <trkpt lat="42.927918015047908" lon="-9.25778397358954">
        <ele>7.83</ele>
        <time>2025-05-01T09:40:47Z</time>
      </trkpt>
      <trkpt lat="42.927806032821536" lon="-9.257967034354806">
        <ele>7.35</ele>
        <time>2025-05-01T09:40:48Z</time>
      </trkpt>
      <trkpt lat="42.92661395855248" lon="-9.259418025612831">
        <ele>0.62</ele>
        <time>2025-05-01T09:40:58Z</time>
      </trkpt>
      <trkpt lat="42.925867969170213" lon="-9.260207014158368">
        <ele>1.1</ele>
        <time>2025-05-01T09:41:05Z</time>
      </trkpt>
      <trkpt lat="42.925768978893757" lon="-9.260312961414456">
        <ele>1.58</ele>
        <time>2025-05-01T09:41:06Z</time>
      </trkpt>
      <trkpt lat="42.92493799701333" lon="-9.26122298464179">
        <ele>3.98</ele>
        <time>2025-05-01T09:41:15Z</time>
      </trkpt>
      <trkpt lat="42.923608040437102" lon="-9.2626609839499">
        <ele>4.46</ele>
        <time>2025-05-01T09:41:29Z</time>
      </trkpt>
      <trkpt lat="42.922468017786741" lon="-9.263889016583562">
        <ele>4.94</ele>
        <time>2025-05-01T09:41:41Z</time>
      </trkpt>
      <trkpt lat="42.921609040349722" lon="-9.264821000397205">
        <ele>7.83</ele>
        <time>2025-05-01T09:41:50Z</time>
      </trkpt>
      <trkpt lat="42.920559039339423" lon="-9.265937972813845">
        <ele>13.119999999999999</ele>
        <time>2025-05-01T09:42:01Z</time>
      </trkpt>
      <trkpt lat="42.919217012822628" lon="-9.267338002100587">
        <ele>19.84</ele>
        <time>2025-05-01T09:42:15Z</time>
      </trkpt>
      <trkpt lat="42.919108970090747" lon="-9.267406985163689">
        <ele>20.32</ele>
        <time>2025-05-01T09:42:16Z</time>
      </trkpt>
      <trkpt lat="42.918997993692756" lon="-9.267449984326959">
        <ele>20.809999999999999</ele>
        <time>2025-05-01T09:42:17Z</time>
      </trkpt>
      <trkpt lat="42.91887897066772" lon="-9.267470017075539">
        <ele>21.289999999999999</ele>
        <time>2025-05-01T09:42:18Z</time>
      </trkpt>
      <trkpt lat="42.918758019804955" lon="-9.267489966005087">
        <ele>21.77</ele>
        <time>2025-05-01T09:42:19Z</time>
      </trkpt>
      <trkpt lat="42.918638996779919" lon="-9.267503963783383">
        <ele>22.25</ele>
        <time>2025-05-01T09:42:20Z</time>
      </trkpt>
      <trkpt lat="42.9171790368855" lon="-9.267503963783383">
        <ele>24.170000000000002</ele>
        <time>2025-05-01T09:42:32Z</time>
      </trkpt>
      <trkpt lat="42.915729973465204" lon="-9.267519973218441">
        <ele>25.609999999999999</ele>
        <time>2025-05-01T09:42:44Z</time>
      </trkpt>
      <trkpt lat="42.914079995825887" lon="-9.267441015690565">
        <ele>26.09</ele>
        <time>2025-05-01T09:42:58Z</time>
      </trkpt>
      <trkpt lat="42.913977988064289" lon="-9.26738996990025">
        <ele>26.09</ele>
        <time>2025-05-01T09:42:59Z</time>
      </trkpt>
      <trkpt lat="42.91389299556613" lon="-9.267329033464193">
        <ele>26.09</ele>
        <time>2025-05-01T09:43:00Z</time>
      </trkpt>
      <trkpt lat="42.913824012503028" lon="-9.267204981297255">
        <ele>26.09</ele>
        <time>2025-05-01T09:43:01Z</time>
      </trkpt>
      <trkpt lat="42.913777995854616" lon="-9.267082018777728">
        <ele>26.09</ele>
        <time>2025-05-01T09:43:02Z</time>
      </trkpt>
      <trkpt lat="42.913738014176488" lon="-9.266935000196099">
        <ele>26.09</ele>
        <time>2025-05-01T09:43:03Z</time>
      </trkpt>
      <trkpt lat="42.91370197199285" lon="-9.266788987442851">
        <ele>26.09</ele>
        <time>2025-05-01T09:43:04Z</time>
      </trkpt>
      <trkpt lat="42.913669031113386" lon="-9.266651021316648">
        <ele>26.09</ele>
        <time>2025-05-01T09:43:05Z</time>
      </trkpt>
      <trkpt lat="42.913381028920412" lon="-9.265129035338759">
        <ele>29.460000000000001</ele>
        <time>2025-05-01T09:43:15Z</time>
      </trkpt>
      <trkpt lat="42.913234010338783" lon="-9.264690997079015">
        <ele>29.460000000000001</ele>
        <time>2025-05-01T09:43:18Z</time>
      </trkpt>
      <trkpt lat="42.913105012848973" lon="-9.264402994886041">
        <ele>28.98</ele>
        <time>2025-05-01T09:43:20Z</time>
      </trkpt>
      <trkpt lat="42.912993030622602" lon="-9.26431498490274">
        <ele>28.02</ele>
        <time>2025-05-01T09:43:21Z</time>
      </trkpt>
      <trkpt lat="42.91288498789072" lon="-9.264253964647651">
        <ele>27.530000000000001</ele>
        <time>2025-05-01T09:43:22Z</time>
      </trkpt>
      <trkpt lat="42.912774011492729" lon="-9.264195039868355">
        <ele>27.530000000000001</ele>
        <time>2025-05-01T09:43:23Z</time>
      </trkpt>
      <trkpt lat="42.912650965154171" lon="-9.264162015169859">
        <ele>27.050000000000001</ele>
        <time>2025-05-01T09:43:24Z</time>
      </trkpt>
      <trkpt lat="42.911649998277426" lon="-9.263796983286738">
        <ele>26.57</ele>
        <time>2025-05-01T09:43:33Z</time>
      </trkpt>
      <trkpt lat="42.911027977243066" lon="-9.263582993298769">
        <ele>28.98</ele>
        <time>2025-05-01T09:43:39Z</time>
      </trkpt>
      <trkpt lat="42.910933010280132" lon="-9.263531025499106">
        <ele>29.940000000000001</ele>
        <time>2025-05-01T09:43:40Z</time>
      </trkpt>
      <trkpt lat="42.91084298864007" lon="-9.26347796805203">
        <ele>30.420000000000002</ele>
        <time>2025-05-01T09:43:41Z</time>
      </trkpt>
      <trkpt lat="42.910763025283813" lon="-9.263418037444353">
        <ele>30.899999999999999</ele>
        <time>2025-05-01T09:43:42Z</time>
      </trkpt>
      <trkpt lat="42.910689013078809" lon="-9.263361040502787">
        <ele>31.859999999999999</ele>
        <time>2025-05-01T09:43:43Z</time>
      </trkpt>
      <trkpt lat="42.910548029467463" lon="-9.263254003599286">
        <ele>32.82</ele>
        <time>2025-05-01T09:43:45Z</time>
      </trkpt>
      <trkpt lat="42.910481980070472" lon="-9.263203963637352">
        <ele>33.299999999999997</ele>
        <time>2025-05-01T09:43:46Z</time>
      </trkpt>
      <trkpt lat="42.910420037806034" lon="-9.263157024979591">
        <ele>34.259999999999998</ele>
        <time>2025-05-01T09:43:47Z</time>
      </trkpt>
      <trkpt lat="42.910329010337591" lon="-9.2630909755826">
        <ele>35.710000000000001</ele>
        <time>2025-05-01T09:43:49Z</time>
      </trkpt>
      <trkpt lat="42.910288022831082" lon="-9.263061974197626">
        <ele>36.670000000000002</ele>
        <time>2025-05-01T09:43:50Z</time>
      </trkpt>
      <trkpt lat="42.910244017839432" lon="-9.263029033318162">
        <ele>37.149999999999999</ele>
        <time>2025-05-01T09:43:51Z</time>
      </trkpt>
      <trkpt lat="42.910206969827414" lon="-9.262998020276427">
        <ele>38.109999999999999</ele>
        <time>2025-05-01T09:43:52Z</time>
      </trkpt>
      <trkpt lat="42.910170005634427" lon="-9.262967007234693">
        <ele>38.590000000000003</ele>
        <time>2025-05-01T09:43:53Z</time>
      </trkpt>
      <trkpt lat="42.910051988437772" lon="-9.262890983372927">
        <ele>40.990000000000002</ele>
        <time>2025-05-01T09:43:56Z</time>
      </trkpt>
      <trkpt lat="42.909934977069497" lon="-9.262826023623347">
        <ele>41.950000000000003</ele>
        <time>2025-05-01T09:43:58Z</time>
      </trkpt>
      <trkpt lat="42.909874962642789" lon="-9.262791993096471">
        <ele>42.920000000000002</ele>
        <time>2025-05-01T09:43:59Z</time>
      </trkpt>
      <trkpt lat="42.909814026206732" lon="-9.262758968397975">
        <ele>43.399999999999999</ele>
        <time>2025-05-01T09:44:00Z</time>
      </trkpt>
      <trkpt lat="42.909755017608404" lon="-9.262726027518511">
        <ele>44.359999999999999</ele>
        <time>2025-05-01T09:44:01Z</time>
      </trkpt>
      <trkpt lat="42.909703971818089" lon="-9.262698031961918">
        <ele>44.840000000000003</ele>
        <time>2025-05-01T09:44:02Z</time>
      </trkpt>
      <trkpt lat="42.9096619784832" lon="-9.262674981728196">
        <ele>44.840000000000003</ele>
        <time>2025-05-01T09:44:03Z</time>
      </trkpt>
      <trkpt lat="42.909623002633452" lon="-9.262653021141887">
        <ele>45.32</ele>
        <time>2025-05-01T09:44:04Z</time>
      </trkpt>
      <trkpt lat="42.909584026783705" lon="-9.262631982564926">
        <ele>45.799999999999997</ele>
        <time>2025-05-01T09:44:05Z</time>
      </trkpt>
      <trkpt lat="42.909533986821771" lon="-9.262603987008333">
        <ele>46.280000000000001</ele>
        <time>2025-05-01T09:44:06Z</time>
      </trkpt>
      <trkpt lat="42.909481013193727" lon="-9.26257498562336">
        <ele>47.240000000000002</ele>
        <time>2025-05-01T09:44:07Z</time>
      </trkpt>
      <trkpt lat="42.909426027908921" lon="-9.262544978410006">
        <ele>47.240000000000002</ele>
        <time>2025-05-01T09:44:08Z</time>
      </trkpt>
      <trkpt lat="42.909370958805084" lon="-9.262513965368271">
        <ele>47.719999999999999</ele>
        <time>2025-05-01T09:44:09Z</time>
      </trkpt>
      <trkpt lat="42.909311028197408" lon="-9.262482030317187">
        <ele>47.719999999999999</ele>
        <time>2025-05-01T09:44:10Z</time>
      </trkpt>
      <trkpt lat="42.909153029322624" lon="-9.262442970648408">
        <ele>48.200000000000003</ele>
        <time>2025-05-01T09:44:13Z</time>
      </trkpt>
      <trkpt lat="42.909094020724297" lon="-9.262463003396988">
        <ele>48.200000000000003</ele>
        <time>2025-05-01T09:44:14Z</time>
      </trkpt>
      <trkpt lat="42.909046998247504" lon="-9.262484963983297">
        <ele>47.719999999999999</ele>
        <time>2025-05-01T09:44:15Z</time>
      </trkpt>
      <trkpt lat="42.9089539591223" lon="-9.262528968974948">
        <ele>48.200000000000003</ele>
        <time>2025-05-01T09:44:17Z</time>
      </trkpt>
      <trkpt lat="42.90890802629292" lon="-9.262550007551909">
        <ele>48.200000000000003</ele>
        <time>2025-05-01T09:44:18Z</time>
      </trkpt>
      <trkpt lat="42.908866032958031" lon="-9.262570040300489">
        <ele>48.200000000000003</ele>
        <time>2025-05-01T09:44:19Z</time>
      </trkpt>
      <trkpt lat="42.908824039623141" lon="-9.262588983401656">
        <ele>48.68</ele>
        <time>2025-05-01T09:44:20Z</time>
      </trkpt>
      <trkpt lat="42.90882202796638" lon="-9.262590995058417">
        <ele>48.68</ele>
        <time>2025-05-01T09:44:21Z</time>
      </trkpt>
      <trkpt lat="42.908764025196433" lon="-9.262640029191971">
        <ele>48.68</ele>
        <time>2025-05-01T09:44:22Z</time>
      </trkpt>
      <trkpt lat="42.908728988841176" lon="-9.262670036405325">
        <ele>48.68</ele>
        <time>2025-05-01T09:44:23Z</time>
      </trkpt>
      <trkpt lat="42.908691018819809" lon="-9.262701971456409">
        <ele>48.68</ele>
        <time>2025-05-01T09:44:24Z</time>
      </trkpt>
      <trkpt lat="42.908581970259547" lon="-9.262796016409993">
        <ele>48.68</ele>
        <time>2025-05-01T09:44:27Z</time>
      </trkpt>
      <trkpt lat="42.908549029380083" lon="-9.262824011966586">
        <ele>48.68</ele>
        <time>2025-05-01T09:44:28Z</time>
      </trkpt>
      <trkpt lat="42.908482979983091" lon="-9.262880003079772">
        <ele>47.719999999999999</ele>
        <time>2025-05-01T09:44:30Z</time>
      </trkpt>
      <trkpt lat="42.908447021618485" lon="-9.262912021949887">
        <ele>47.719999999999999</ele>
        <time>2025-05-01T09:44:31Z</time>
      </trkpt>
      <trkpt lat="42.908410979434848" lon="-9.262943034991622">
        <ele>47.719999999999999</ele>
        <time>2025-05-01T09:44:32Z</time>
      </trkpt>
      <trkpt lat="42.908332021906972" lon="-9.263010006397963">
        <ele>46.280000000000001</ele>
        <time>2025-05-01T09:44:34Z</time>
      </trkpt>
      <trkpt lat="42.908251974731684" lon="-9.263078989461064">
        <ele>45.32</ele>
        <time>2025-05-01T09:44:36Z</time>
      </trkpt>
      <trkpt lat="42.908177962526679" lon="-9.263143027201295">
        <ele>44.359999999999999</ele>
        <time>2025-05-01T09:44:38Z</time>
      </trkpt>
      <trkpt lat="42.908144015818834" lon="-9.263171022757888">
        <ele>43.880000000000003</ele>
        <time>2025-05-01T09:44:39Z</time>
      </trkpt>
      <trkpt lat="42.908107973635197" lon="-9.263202035799623">
        <ele>42.920000000000002</ele>
        <time>2025-05-01T09:44:40Z</time>
      </trkpt>
      <trkpt lat="42.908075032755733" lon="-9.263231037184596">
        <ele>42.439999999999998</ele>
        <time>2025-05-01T09:44:41Z</time>
      </trkpt>
      <trkpt lat="42.908058017492294" lon="-9.263238999992609">
        <ele>41.950000000000003</ele>
        <time>2025-05-01T09:44:42Z</time>
      </trkpt>
      <trkpt lat="42.907820977270603" lon="-9.263330027461052">
        <ele>36.189999999999998</ele>
        <time>2025-05-01T09:44:50Z</time>
      </trkpt>
      <trkpt lat="42.907809996977448" lon="-9.263268001377583">
        <ele>35.229999999999997</ele>
        <time>2025-05-01T09:44:51Z</time>
      </trkpt>
      <trkpt lat="42.907828018069267" lon="-9.263194995000958">
        <ele>34.740000000000002</ele>
        <time>2025-05-01T09:44:52Z</time>
      </trkpt>
      <trkpt lat="42.907847966998816" lon="-9.263116959482431">
        <ele>33.780000000000001</ele>
        <time>2025-05-01T09:44:53Z</time>
      </trkpt>
      <trkpt lat="42.907864982262254" lon="-9.263053005561233">
        <ele>32.82</ele>
        <time>2025-05-01T09:44:54Z</time>
      </trkpt>
      <trkpt lat="42.907903036102653" lon="-9.262927025556564">
        <ele>31.379999999999999</ele>
        <time>2025-05-01T09:44:56Z</time>
      </trkpt>
      <trkpt lat="42.907913010567427" lon="-9.262718986719847">
        <ele>29.460000000000001</ele>
        <time>2025-05-01T09:44:59Z</time>
      </trkpt>
      <trkpt lat="42.90789800696075" lon="-9.262672970071435">
        <ele>28.5</ele>
        <time>2025-05-01T09:45:00Z</time>
      </trkpt>
      <trkpt lat="42.907818965613842" lon="-9.262602981179953">
        <ele>28.02</ele>
        <time>2025-05-01T09:45:01Z</time>
      </trkpt>
      <trkpt lat="42.90776900947094" lon="-9.26259501837194">
        <ele>27.530000000000001</ele>
        <time>2025-05-01T09:45:02Z</time>
      </trkpt>
      <trkpt lat="42.907688962295651" lon="-9.262582026422024">
        <ele>26.57</ele>
        <time>2025-05-01T09:45:03Z</time>
      </trkpt>
      <trkpt lat="42.907606987282634" lon="-9.262569034472108">
        <ele>26.09</ele>
        <time>2025-05-01T09:45:04Z</time>
      </trkpt>
      <trkpt lat="42.906724959611893" lon="-9.262413969263434">
        <ele>19.359999999999999</ele>
        <time>2025-05-01T09:45:15Z</time>
      </trkpt>
      <trkpt lat="42.906633010134101" lon="-9.262397037819028">
        <ele>19.359999999999999</ele>
        <time>2025-05-01T09:45:16Z</time>
      </trkpt>
      <trkpt lat="42.906600991263986" lon="-9.262335011735559">
        <ele>18.879999999999999</ele>
        <time>2025-05-01T09:45:17Z</time>
      </trkpt>
      <trkpt lat="42.906558997929096" lon="-9.26225395873189">
        <ele>18.879999999999999</ele>
        <time>2025-05-01T09:45:18Z</time>
      </trkpt>
      <trkpt lat="42.906515998765826" lon="-9.262170977890492">
        <ele>18.399999999999999</ele>
        <time>2025-05-01T09:45:19Z</time>
      </trkpt>
      <trkpt lat="42.906232019886374" lon="-9.26160997711122">
        <ele>16.960000000000001</ele>
        <time>2025-05-01T09:45:26Z</time>
      </trkpt>
      <trkpt lat="42.906179968267679" lon="-9.261559015139937">
        <ele>16.48</ele>
        <time>2025-05-01T09:45:27Z</time>
      </trkpt>
      <trkpt lat="42.906128000468016" lon="-9.261506963521242">
        <ele>16.48</ele>
        <time>2025-05-01T09:45:28Z</time>
      </trkpt>
      <trkpt lat="42.906032027676702" lon="-9.261409984901547">
        <ele>16</ele>
        <time>2025-05-01T09:45:29Z</time>
      </trkpt>
      <trkpt lat="42.905990034341812" lon="-9.261404033750296">
        <ele>16</ele>
        <time>2025-05-01T09:45:30Z</time>
      </trkpt>
      <trkpt lat="42.905898001044989" lon="-9.26139104180038">
        <ele>16</ele>
        <time>2025-05-01T09:45:32Z</time>
      </trkpt>
      <trkpt lat="42.905844021588564" lon="-9.261395987123251">
        <ele>15.52</ele>
        <time>2025-05-01T09:45:33Z</time>
      </trkpt>
      <trkpt lat="42.905715024098754" lon="-9.261419037356973">
        <ele>15.52</ele>
        <time>2025-05-01T09:45:36Z</time>
      </trkpt>
      <trkpt lat="42.905652998015285" lon="-9.261430017650127">
        <ele>15.52</ele>
        <time>2025-05-01T09:45:37Z</time>
      </trkpt>
      <trkpt lat="42.905580997467041" lon="-9.261512998491526">
        <ele>15.52</ele>
        <time>2025-05-01T09:45:38Z</time>
      </trkpt>
      <trkpt lat="42.905541015788913" lon="-9.26156303845346">
        <ele>15.52</ele>
        <time>2025-05-01T09:45:39Z</time>
      </trkpt>
      <trkpt lat="42.905502961948514" lon="-9.26160997711122">
        <ele>15.52</ele>
        <time>2025-05-01T09:45:40Z</time>
      </trkpt>
      <trkpt lat="42.905441019684076" lon="-9.261688012629747">
        <ele>15.039999999999999</ele>
        <time>2025-05-01T09:45:42Z</time>
      </trkpt>
      <trkpt lat="42.905405983328819" lon="-9.261731011793017">
        <ele>15.039999999999999</ele>
        <time>2025-05-01T09:45:43Z</time>
      </trkpt>
      <trkpt lat="42.905373964458704" lon="-9.261771999299526">
        <ele>14.56</ele>
        <time>2025-05-01T09:45:44Z</time>
      </trkpt>
      <trkpt lat="42.90534496307373" lon="-9.261808041483164">
        <ele>14.56</ele>
        <time>2025-05-01T09:45:45Z</time>
      </trkpt>
      <trkpt lat="42.905315039679408" lon="-9.26184500567615">
        <ele>14.08</ele>
        <time>2025-05-01T09:45:46Z</time>
      </trkpt>
      <trkpt lat="42.905284026637673" lon="-9.261896973475814">
        <ele>14.08</ele>
        <time>2025-05-01T09:45:47Z</time>
      </trkpt>
      <trkpt lat="42.90525896474719" lon="-9.261947013437748">
        <ele>13.6</ele>
        <time>2025-05-01T09:45:48Z</time>
      </trkpt>
      <trkpt lat="42.905238009989262" lon="-9.261990012601018">
        <ele>13.6</ele>
        <time>2025-05-01T09:45:50Z</time>
      </trkpt>
      <trkpt lat="42.905238009989262" lon="-9.261990012601018">
        <ele>13.119999999999999</ele>
        <time>2025-05-01T09:45:52Z</time>
      </trkpt>
      <trkpt lat="42.905238009989262" lon="-9.261990012601018">
        <ele>13.119999999999999</ele>
        <time>2025-05-01T09:46:05Z</time>
      </trkpt>
      <trkpt lat="42.906285999342799" lon="-9.262279020622373">
        <ele>16.48</ele>
        <time>2025-05-01T11:11:16Z</time>
      </trkpt>
      <trkpt lat="42.906289016827941" lon="-9.262280026450753">
        <ele>16.960000000000001</ele>
        <time>2025-05-01T11:12:06Z</time>
      </trkpt>
      <trkpt lat="42.906290022656322" lon="-9.262276003137231">
        <ele>16.960000000000001</ele>
        <time>2025-05-01T11:12:53Z</time>
      </trkpt>
      <trkpt lat="42.906293962150812" lon="-9.262280026450753">
        <ele>16.960000000000001</ele>
        <time>2025-05-01T11:13:34Z</time>
      </trkpt>
      <trkpt lat="42.906291028484702" lon="-9.262280026450753">
        <ele>17.440000000000001</ele>
        <time>2025-05-01T11:14:32Z</time>
      </trkpt>
      <trkpt lat="42.906291028484702" lon="-9.262280026450753">
        <ele>17.440000000000001</ele>
        <time>2025-05-01T11:14:36Z</time>
      </trkpt>
      <trkpt lat="42.906497977674007" lon="-9.262136025354266">
        <ele>16.48</ele>
        <time>2025-05-01T11:14:39Z</time>
      </trkpt>
      <trkpt lat="42.906515998765826" lon="-9.262170977890492">
        <ele>16</ele>
        <time>2025-05-01T11:14:40Z</time>
      </trkpt>
      <trkpt lat="42.906536031514406" lon="-9.262210037559271">
        <ele>16</ele>
        <time>2025-05-01T11:14:41Z</time>
      </trkpt>
      <trkpt lat="42.906555980443954" lon="-9.262248007580638">
        <ele>15.52</ele>
        <time>2025-05-01T11:14:42Z</time>
      </trkpt>
      <trkpt lat="42.906572995707393" lon="-9.262281032279134">
        <ele>15.52</ele>
        <time>2025-05-01T11:14:43Z</time>
      </trkpt>
      <trkpt lat="42.906633010134101" lon="-9.262397037819028">
        <ele>15.039999999999999</ele>
        <time>2025-05-01T11:14:52Z</time>
      </trkpt>
      <trkpt lat="42.906661005690694" lon="-9.262401983141899">
        <ele>15.039999999999999</ele>
        <time>2025-05-01T11:14:56Z</time>
      </trkpt>
      <trkpt lat="42.906682966277003" lon="-9.262406006455421">
        <ele>15.039999999999999</ele>
        <time>2025-05-01T11:14:57Z</time>
      </trkpt>
      <trkpt lat="42.906719008460641" lon="-9.262412963435054">
        <ele>15.039999999999999</ele>
        <time>2025-05-01T11:14:58Z</time>
      </trkpt>
      <trkpt lat="42.906768964603543" lon="-9.262422015890479">
        <ele>15.039999999999999</ele>
        <time>2025-05-01T11:14:59Z</time>
      </trkpt>
      <trkpt lat="42.90682596154511" lon="-9.262431990355253">
        <ele>15.039999999999999</ele>
        <time>2025-05-01T11:15:00Z</time>
      </trkpt>
      <trkpt lat="42.906885975971818" lon="-9.262442970648408">
        <ele>15.039999999999999</ele>
        <time>2025-05-01T11:15:01Z</time>
      </trkpt>
      <trkpt lat="42.906943978741765" lon="-9.262453028932214">
        <ele>15.039999999999999</ele>
        <time>2025-05-01T11:15:02Z</time>
      </trkpt>
      <trkpt lat="42.907171966508031" lon="-9.262494016438723">
        <ele>14.56</ele>
        <time>2025-05-01T11:15:06Z</time>
      </trkpt>
      <trkpt lat="42.907228963449597" lon="-9.262503990903497">
        <ele>14.56</ele>
        <time>2025-05-01T11:15:07Z</time>
      </trkpt>
      <trkpt lat="42.907284032553434" lon="-9.262513965368271">
        <ele>14.56</ele>
        <time>2025-05-01T11:15:08Z</time>
      </trkpt>
      <trkpt lat="42.907568011432886" lon="-9.262562999501824">
        <ele>14.08</ele>
        <time>2025-05-01T11:15:14Z</time>
      </trkpt>
      <trkpt lat="42.907876968383789" lon="-9.262612033635378">
        <ele>15.039999999999999</ele>
        <time>2025-05-01T11:15:23Z</time>
      </trkpt>
      <trkpt lat="42.907919967547059" lon="-9.262741031125188">
        <ele>14.56</ele>
        <time>2025-05-01T11:15:24Z</time>
      </trkpt>
      <trkpt lat="42.907919967547059" lon="-9.262741031125188">
        <ele>15.039999999999999</ele>
        <time>2025-05-01T11:15:25Z</time>
      </trkpt>
      <trkpt lat="42.907919967547059" lon="-9.262787969782949">
        <ele>14.56</ele>
        <time>2025-05-01T11:15:26Z</time>
      </trkpt>
      <trkpt lat="42.907919967547059" lon="-9.262838009744883">
        <ele>14.56</ele>
        <time>2025-05-01T11:15:27Z</time>
      </trkpt>
      <trkpt lat="42.907919967547059" lon="-9.262869022786617">
        <ele>14.56</ele>
        <time>2025-05-01T11:15:28Z</time>
      </trkpt>
      <trkpt lat="42.907916028052568" lon="-9.262885032221675">
        <ele>14.56</ele>
        <time>2025-05-01T11:15:29Z</time>
      </trkpt>
      <trkpt lat="42.907904963940382" lon="-9.262921996414661">
        <ele>14.56</ele>
        <time>2025-05-01T11:15:30Z</time>
      </trkpt>
      <trkpt lat="42.907892977818847" lon="-9.26296197809279">
        <ele>14.08</ele>
        <time>2025-05-01T11:15:31Z</time>
      </trkpt>
      <trkpt lat="42.907879985868931" lon="-9.26300598308444">
        <ele>14.08</ele>
        <time>2025-05-01T11:15:32Z</time>
      </trkpt>
      <trkpt lat="42.907865988090634" lon="-9.263049988076091">
        <ele>14.08</ele>
        <time>2025-05-01T11:15:33Z</time>
      </trkpt>
      <trkpt lat="42.90779197588563" lon="-9.263342013582587">
        <ele>13.119999999999999</ele>
        <time>2025-05-01T11:15:40Z</time>
      </trkpt>
      <trkpt lat="42.907774960622191" lon="-9.263381995260716">
        <ele>13.119999999999999</ele>
        <time>2025-05-01T11:15:41Z</time>
      </trkpt>
      <trkpt lat="42.90774897672236" lon="-9.263448966667056">
        <ele>13.119999999999999</ele>
        <time>2025-05-01T11:15:42Z</time>
      </trkpt>
      <trkpt lat="42.907717963680625" lon="-9.263501018285751">
        <ele>13.119999999999999</ele>
        <time>2025-05-01T11:15:43Z</time>
      </trkpt>
      <trkpt lat="42.9076830111444" lon="-9.26356203854084">
        <ele>13.119999999999999</ele>
        <time>2025-05-01T11:15:44Z</time>
      </trkpt>
      <trkpt lat="42.907482013106346" lon="-9.263835037127137">
        <ele>14.08</ele>
        <time>2025-05-01T11:15:49Z</time>
      </trkpt>
      <trkpt lat="42.907228963449597" lon="-9.264091020449996">
        <ele>15.52</ele>
        <time>2025-05-01T11:15:55Z</time>
      </trkpt>
      <trkpt lat="42.906721020117402" lon="-9.264540961012244">
        <ele>19.359999999999999</ele>
        <time>2025-05-01T11:16:05Z</time>
      </trkpt>
      <trkpt lat="42.906672991812229" lon="-9.26459401845932">
        <ele>19.359999999999999</ele>
        <time>2025-05-01T11:16:06Z</time>
      </trkpt>
      <trkpt lat="42.906627980992198" lon="-9.264730978757143">
        <ele>20.32</ele>
        <time>2025-05-01T11:16:08Z</time>
      </trkpt>
      <trkpt lat="42.90661096572876" lon="-9.264813959598541">
        <ele>20.32</ele>
        <time>2025-05-01T11:16:09Z</time>
      </trkpt>
      <trkpt lat="42.90661096572876" lon="-9.264880008995533">
        <ele>20.809999999999999</ele>
        <time>2025-05-01T11:16:10Z</time>
      </trkpt>
      <trkpt lat="42.906640972942114" lon="-9.26498000510037">
        <ele>21.289999999999999</ele>
        <time>2025-05-01T11:16:11Z</time>
      </trkpt>
      <trkpt lat="42.906676009297371" lon="-9.265015041455627">
        <ele>21.77</ele>
        <time>2025-05-01T11:16:12Z</time>
      </trkpt>
      <trkpt lat="42.906676009297371" lon="-9.265015041455627">
        <ele>21.77</ele>
        <time>2025-05-01T11:16:13Z</time>
      </trkpt>
      <trkpt lat="42.906771982088685" lon="-9.265159964561462">
        <ele>22.25</ele>
        <time>2025-05-01T11:16:14Z</time>
      </trkpt>
      <trkpt lat="42.906827973201871" lon="-9.265181003138423">
        <ele>22.73</ele>
        <time>2025-05-01T11:16:15Z</time>
      </trkpt>
      <trkpt lat="42.906885975971818" lon="-9.265202963724732">
        <ele>23.210000000000001</ele>
        <time>2025-05-01T11:16:16Z</time>
      </trkpt>
      <trkpt lat="42.906943978741765" lon="-9.265226013958454">
        <ele>23.690000000000001</ele>
        <time>2025-05-01T11:16:17Z</time>
      </trkpt>
      <trkpt lat="42.907002987340093" lon="-9.265238000079989">
        <ele>24.170000000000002</ele>
        <time>2025-05-01T11:16:18Z</time>
      </trkpt>
      <trkpt lat="42.907065013423562" lon="-9.265247974544764">
        <ele>24.649999999999999</ele>
        <time>2025-05-01T11:16:19Z</time>
      </trkpt>
      <trkpt lat="42.907136008143425" lon="-9.265258032828569">
        <ele>25.129999999999999</ele>
        <time>2025-05-01T11:16:20Z</time>
      </trkpt>
      <trkpt lat="42.907205997034907" lon="-9.265267001464963">
        <ele>25.129999999999999</ele>
        <time>2025-05-01T11:16:21Z</time>
      </trkpt>
      <trkpt lat="42.907255031168461" lon="-9.265273036435247">
        <ele>25.609999999999999</ele>
        <time>2025-05-01T11:16:22Z</time>
      </trkpt>
      <trkpt lat="42.907346980646253" lon="-9.265247974544764">
        <ele>25.609999999999999</ele>
        <time>2025-05-01T11:16:23Z</time>
      </trkpt>
      <trkpt lat="42.907415963709354" lon="-9.265230037271977">
        <ele>26.09</ele>
        <time>2025-05-01T11:16:24Z</time>
      </trkpt>
      <trkpt lat="42.907483018934727" lon="-9.265212016180158">
        <ele>26.09</ele>
        <time>2025-05-01T11:16:25Z</time>
      </trkpt>
      <trkpt lat="42.907547978684306" lon="-9.265195000916719">
        <ele>26.09</ele>
        <time>2025-05-01T11:16:26Z</time>
      </trkpt>
      <trkpt lat="42.907613022252917" lon="-9.265159964561462">
        <ele>26.09</ele>
        <time>2025-05-01T11:16:27Z</time>
      </trkpt>
      <trkpt lat="42.907660966739058" lon="-9.265124006196857">
        <ele>26.57</ele>
        <time>2025-05-01T11:16:28Z</time>
      </trkpt>
      <trkpt lat="42.907735984772444" lon="-9.265068015083671">
        <ele>27.050000000000001</ele>
        <time>2025-05-01T11:16:30Z</time>
      </trkpt>
      <trkpt lat="42.907757023349404" lon="-9.265070026740432">
        <ele>27.050000000000001</ele>
        <time>2025-05-01T11:16:31Z</time>
      </trkpt>
      <trkpt lat="42.907789964228868" lon="-9.265123000368476">
        <ele>27.050000000000001</ele>
        <time>2025-05-01T11:16:32Z</time>
      </trkpt>
      <trkpt lat="42.907910998910666" lon="-9.265307988971472">
        <ele>28.02</ele>
        <time>2025-05-01T11:16:35Z</time>
      </trkpt>
      <trkpt lat="42.907955003902316" lon="-9.265376972034574">
        <ele>28.98</ele>
        <time>2025-05-01T11:16:36Z</time>
      </trkpt>
      <trkpt lat="42.908340990543365" lon="-9.265734041109681">
        <ele>34.740000000000002</ele>
        <time>2025-05-01T11:16:42Z</time>
      </trkpt>
      <trkpt lat="42.90865195915103" lon="-9.265952976420522">
        <ele>39.07</ele>
        <time>2025-05-01T11:16:46Z</time>
      </trkpt>
      <trkpt lat="42.908731000497937" lon="-9.265994969755411">
        <ele>40.030000000000001</ele>
        <time>2025-05-01T11:16:47Z</time>
      </trkpt>
      <trkpt lat="42.908898973837495" lon="-9.266082979738712">
        <ele>41.950000000000003</ele>
        <time>2025-05-01T11:16:49Z</time>
      </trkpt>
      <trkpt lat="42.909071976318955" lon="-9.266189010813832">
        <ele>43.880000000000003</ele>
        <time>2025-05-01T11:16:51Z</time>
      </trkpt>
      <trkpt lat="42.909354027360678" lon="-9.266372993588448">
        <ele>47.719999999999999</ele>
        <time>2025-05-01T11:16:55Z</time>
      </trkpt>
      <trkpt lat="42.909401971846819" lon="-9.266404006630182">
        <ele>48.68</ele>
        <time>2025-05-01T11:16:56Z</time>
      </trkpt>
      <trkpt lat="42.909429967403412" lon="-9.266469972208142">
        <ele>49.159999999999997</ele>
        <time>2025-05-01T11:16:57Z</time>
      </trkpt>
      <trkpt lat="42.909413035959005" lon="-9.266515988856554">
        <ele>49.649999999999999</ele>
        <time>2025-05-01T11:16:58Z</time>
      </trkpt>
      <trkpt lat="42.909393003210425" lon="-9.266570974141359">
        <ele>50.609999999999999</ele>
        <time>2025-05-01T11:16:59Z</time>
      </trkpt>
      <trkpt lat="42.909371964633465" lon="-9.266628976911306">
        <ele>51.090000000000003</ele>
        <time>2025-05-01T11:17:00Z</time>
      </trkpt>
      <trkpt lat="42.909357966855168" lon="-9.266712041571736">
        <ele>51.090000000000003</ele>
        <time>2025-05-01T11:17:01Z</time>
      </trkpt>
      <trkpt lat="42.909357966855168" lon="-9.266784964129329">
        <ele>51.57</ele>
        <time>2025-05-01T11:17:02Z</time>
      </trkpt>
      <trkpt lat="42.909357966855168" lon="-9.266868028789759">
        <ele>52.049999999999997</ele>
        <time>2025-05-01T11:17:03Z</time>
      </trkpt>
      <trkpt lat="42.909357966855168" lon="-9.266954027116299">
        <ele>52.530000000000001</ele>
        <time>2025-05-01T11:17:04Z</time>
      </trkpt>
      <trkpt lat="42.909365007653832" lon="-9.267046982422471">
        <ele>53.009999999999998</ele>
        <time>2025-05-01T11:17:05Z</time>
      </trkpt>
      <trkpt lat="42.909380011260509" lon="-9.267133986577392">
        <ele>53.490000000000002</ele>
        <time>2025-05-01T11:17:06Z</time>
      </trkpt>
      <trkpt lat="42.909396020695567" lon="-9.267219984903932">
        <ele>53.969999999999999</ele>
        <time>2025-05-01T11:17:07Z</time>
      </trkpt>
      <trkpt lat="42.909396020695567" lon="-9.267296008765698">
        <ele>54.450000000000003</ele>
        <time>2025-05-01T11:17:08Z</time>
      </trkpt>
      <trkpt lat="42.909387974068522" lon="-9.267375972121954">
        <ele>54.93</ele>
        <time>2025-05-01T11:17:09Z</time>
      </trkpt>
      <trkpt lat="42.909380011260509" lon="-9.267460964620113">
        <ele>55.409999999999997</ele>
        <time>2025-05-01T11:17:10Z</time>
      </trkpt>
      <trkpt lat="42.909344974905252" lon="-9.267530031502247">
        <ele>55.409999999999997</ele>
        <time>2025-05-01T11:17:11Z</time>
      </trkpt>
      <trkpt lat="42.909305999055505" lon="-9.267608989030123">
        <ele>55.890000000000001</ele>
        <time>2025-05-01T11:17:12Z</time>
      </trkpt>
      <trkpt lat="42.909271968528628" lon="-9.267675960436463">
        <ele>55.890000000000001</ele>
        <time>2025-05-01T11:17:13Z</time>
      </trkpt>
      <trkpt lat="42.909226035699248" lon="-9.267798000946641">
        <ele>55.890000000000001</ele>
        <time>2025-05-01T11:17:14Z</time>
      </trkpt>
      <trkpt lat="42.909217989072204" lon="-9.267906965687871">
        <ele>55.890000000000001</ele>
        <time>2025-05-01T11:17:15Z</time>
      </trkpt>
      <trkpt lat="42.90920902043581" lon="-9.268020959571004">
        <ele>55.409999999999997</ele>
        <time>2025-05-01T11:17:16Z</time>
      </trkpt>
      <trkpt lat="42.909181024879217" lon="-9.268360007554293">
        <ele>53.490000000000002</ele>
        <time>2025-05-01T11:17:19Z</time>
      </trkpt>
      <trkpt lat="42.909173984080553" lon="-9.268457992002368">
        <ele>53.009999999999998</ele>
        <time>2025-05-01T11:17:20Z</time>
      </trkpt>
      <trkpt lat="42.909159986302257" lon="-9.26863300614059">
        <ele>51.090000000000003</ele>
        <time>2025-05-01T11:17:22Z</time>
      </trkpt>
      <trkpt lat="42.909154035151005" lon="-9.268708024173975">
        <ele>50.130000000000003</ele>
        <time>2025-05-01T11:17:23Z</time>
      </trkpt>
      <trkpt lat="42.909149006009102" lon="-9.268772983923554">
        <ele>49.649999999999999</ele>
        <time>2025-05-01T11:17:24Z</time>
      </trkpt>
      <trkpt lat="42.909199967980385" lon="-9.26884900778532">
        <ele>49.159999999999997</ele>
        <time>2025-05-01T11:17:25Z</time>
      </trkpt>
      <trkpt lat="42.909255959093571" lon="-9.268863005563617">
        <ele>48.68</ele>
        <time>2025-05-01T11:17:26Z</time>
      </trkpt>
      <trkpt lat="42.909326031804085" lon="-9.268880020827055">
        <ele>48.200000000000003</ele>
        <time>2025-05-01T11:17:27Z</time>
      </trkpt>
      <trkpt lat="42.909411024302244" lon="-9.268901981413364">
        <ele>47.719999999999999</ele>
        <time>2025-05-01T11:17:28Z</time>
      </trkpt>
      <trkpt lat="42.909503979608417" lon="-9.268925031647086">
        <ele>47.719999999999999</ele>
        <time>2025-05-01T11:17:29Z</time>
      </trkpt>
      <trkpt lat="42.909599030390382" lon="-9.268939029425383">
        <ele>47.240000000000002</ele>
        <time>2025-05-01T11:17:30Z</time>
      </trkpt>
      <trkpt lat="42.909697014838457" lon="-9.268927965313196">
        <ele>47.240000000000002</ele>
        <time>2025-05-01T11:17:31Z</time>
      </trkpt>
      <trkpt lat="42.909802040085196" lon="-9.268916985020042">
        <ele>47.240000000000002</ele>
        <time>2025-05-01T11:17:32Z</time>
      </trkpt>
      <trkpt lat="42.909912010654807" lon="-9.268903993070126">
        <ele>46.759999999999998</ele>
        <time>2025-05-01T11:17:33Z</time>
      </trkpt>
      <trkpt lat="42.910023992881179" lon="-9.26889200694859">
        <ele>46.280000000000001</ele>
        <time>2025-05-01T11:17:34Z</time>
      </trkpt>
      <trkpt lat="42.910483991727233" lon="-9.268799973651767">
        <ele>44.359999999999999</ele>
        <time>2025-05-01T11:17:38Z</time>
      </trkpt>
      <trkpt lat="42.910581976175308" lon="-9.268759991973639">
        <ele>43.880000000000003</ele>
        <time>2025-05-01T11:17:39Z</time>
      </trkpt>
      <trkpt lat="42.910881964489818" lon="-9.268638035282493">
        <ele>40.990000000000002</ele>
        <time>2025-05-01T11:17:43Z</time>
      </trkpt>
      <trkpt lat="42.910948013886809" lon="-9.268645998090506">
        <ele>40.030000000000001</ele>
        <time>2025-05-01T11:17:44Z</time>
      </trkpt>
      <trkpt lat="42.910997970029712" lon="-9.26869997754693">
        <ele>39.07</ele>
        <time>2025-05-01T11:17:45Z</time>
      </trkpt>
      <trkpt lat="42.911101989448071" lon="-9.268811959773302">
        <ele>37.149999999999999</ele>
        <time>2025-05-01T11:17:47Z</time>
      </trkpt>
      <trkpt lat="42.911159992218018" lon="-9.268874991685152">
        <ele>36.670000000000002</ele>
        <time>2025-05-01T11:17:48Z</time>
      </trkpt>
      <trkpt lat="42.911239033564925" lon="-9.268924025818706">
        <ele>35.710000000000001</ele>
        <time>2025-05-01T11:17:49Z</time>
      </trkpt>
      <trkpt lat="42.912159031257033" lon="-9.269300037994981">
        <ele>32.340000000000003</ele>
        <time>2025-05-01T11:17:58Z</time>
      </trkpt>
      <trkpt lat="42.912384001538157" lon="-9.269371032714844">
        <ele>32.340000000000003</ele>
        <time>2025-05-01T11:18:00Z</time>
      </trkpt>
      <trkpt lat="42.912491960451007" lon="-9.26936499774456">
        <ele>32.340000000000003</ele>
        <time>2025-05-01T11:18:01Z</time>
      </trkpt>
      <trkpt lat="42.912607965990901" lon="-9.269357034936547">
        <ele>32.340000000000003</ele>
        <time>2025-05-01T11:18:02Z</time>
      </trkpt>
      <trkpt lat="42.913230992853642" lon="-9.269257038831711">
        <ele>32.82</ele>
        <time>2025-05-01T11:18:10Z</time>
      </trkpt>
      <trkpt lat="42.913293018937111" lon="-9.269246980547905">
        <ele>32.82</ele>
        <time>2025-05-01T11:18:11Z</time>
      </trkpt>
      <trkpt lat="42.91335797868669" lon="-9.269257038831711">
        <ele>33.299999999999997</ele>
        <time>2025-05-01T11:18:12Z</time>
      </trkpt>
      <trkpt lat="42.913670958951116" lon="-9.269220996648073">
        <ele>33.299999999999997</ele>
        <time>2025-05-01T11:18:18Z</time>
      </trkpt>
      <trkpt lat="42.913726028054953" lon="-9.26921303384006">
        <ele>33.780000000000001</ele>
        <time>2025-05-01T11:18:19Z</time>
      </trkpt>
      <trkpt lat="42.913785958662629" lon="-9.269204987213016">
        <ele>33.780000000000001</ele>
        <time>2025-05-01T11:18:20Z</time>
      </trkpt>
      <trkpt lat="42.913862988352776" lon="-9.26921303384006">
        <ele>34.259999999999998</ele>
        <time>2025-05-01T11:18:21Z</time>
      </trkpt>
      <trkpt lat="42.913941023871303" lon="-9.269239017739892">
        <ele>34.259999999999998</ele>
        <time>2025-05-01T11:18:22Z</time>
      </trkpt>
      <trkpt lat="42.914026016369462" lon="-9.269268019124866">
        <ele>34.259999999999998</ele>
        <time>2025-05-01T11:18:23Z</time>
      </trkpt>
      <trkpt lat="42.914939979091287" lon="-9.269506987184286">
        <ele>33.780000000000001</ele>
        <time>2025-05-01T11:18:33Z</time>
      </trkpt>
      <trkpt lat="42.915917979553342" lon="-9.269670015200973">
        <ele>32.340000000000003</ele>
        <time>2025-05-01T11:18:43Z</time>
      </trkpt>
      <trkpt lat="42.916618958115578" lon="-9.269633973017335">
        <ele>32.82</ele>
        <time>2025-05-01T11:18:52Z</time>
      </trkpt>
      <trkpt lat="42.916661035269499" lon="-9.269631961360574">
        <ele>32.82</ele>
        <time>2025-05-01T11:18:53Z</time>
      </trkpt>
      <trkpt lat="42.916727000847459" lon="-9.269634978845716">
        <ele>33.299999999999997</ele>
        <time>2025-05-01T11:18:54Z</time>
      </trkpt>
      <trkpt lat="42.916773017495871" lon="-9.269669009372592">
        <ele>33.299999999999997</ele>
        <time>2025-05-01T11:18:55Z</time>
      </trkpt>
      <trkpt lat="42.916825991123915" lon="-9.26970798522234">
        <ele>33.299999999999997</ele>
        <time>2025-05-01T11:18:56Z</time>
      </trkpt>
      <trkpt lat="42.916889023035765" lon="-9.269754001870751">
        <ele>33.299999999999997</ele>
        <time>2025-05-01T11:18:57Z</time>
      </trkpt>
      <trkpt lat="42.917036041617393" lon="-9.269861960783601">
        <ele>33.780000000000001</ele>
        <time>2025-05-01T11:18:59Z</time>
      </trkpt>
      <trkpt lat="42.917107958346605" lon="-9.269875036552548">
        <ele>34.259999999999998</ele>
        <time>2025-05-01T11:19:00Z</time>
      </trkpt>
      <trkpt lat="42.917197979986668" lon="-9.269889034330845">
        <ele>34.740000000000002</ele>
        <time>2025-05-01T11:19:01Z</time>
      </trkpt>
      <trkpt lat="42.918090987950563" lon="-9.269972015172243">
        <ele>41.469999999999999</ele>
        <time>2025-05-01T11:19:10Z</time>
      </trkpt>
      <trkpt lat="42.918957006186247" lon="-9.269875036552548">
        <ele>42.920000000000002</ele>
        <time>2025-05-01T11:19:19Z</time>
      </trkpt>
      <trkpt lat="42.919078040868044" lon="-9.269864978268743">
        <ele>43.399999999999999</ele>
        <time>2025-05-01T11:19:20Z</time>
      </trkpt>
      <trkpt lat="42.919138977304101" lon="-9.269887022674084">
        <ele>43.399999999999999</ele>
        <time>2025-05-01T11:19:21Z</time>
      </trkpt>
      <trkpt lat="42.919912040233612" lon="-9.270169995725155">
        <ele>45.799999999999997</ele>
        <time>2025-05-01T11:19:30Z</time>
      </trkpt>
      <trkpt lat="42.919967025518417" lon="-9.270198997110128">
        <ele>46.280000000000001</ele>
        <time>2025-05-01T11:19:31Z</time>
      </trkpt>
      <trkpt lat="42.920012036338449" lon="-9.270258005708456">
        <ele>46.280000000000001</ele>
        <time>2025-05-01T11:19:32Z</time>
      </trkpt>
      <trkpt lat="42.920057969167829" lon="-9.270319025963545">
        <ele>46.280000000000001</ele>
        <time>2025-05-01T11:19:33Z</time>
      </trkpt>
      <trkpt lat="42.920101974159479" lon="-9.270379040390253">
        <ele>46.280000000000001</ele>
        <time>2025-05-01T11:19:34Z</time>
      </trkpt>
      <trkpt lat="42.920191995799541" lon="-9.270498985424638">
        <ele>46.280000000000001</ele>
        <time>2025-05-01T11:19:36Z</time>
      </trkpt>
      <trkpt lat="42.920243041589856" lon="-9.270543996244669">
        <ele>46.280000000000001</ele>
        <time>2025-05-01T11:19:37Z</time>
      </trkpt>
      <trkpt lat="42.920302972197533" lon="-9.270575009286404">
        <ele>46.759999999999998</ele>
        <time>2025-05-01T11:19:38Z</time>
      </trkpt>
      <trkpt lat="42.920369021594524" lon="-9.2706080339849">
        <ele>47.240000000000002</ele>
        <time>2025-05-01T11:19:39Z</time>
      </trkpt>
      <trkpt lat="42.920431969687343" lon="-9.270640974864364">
        <ele>47.719999999999999</ele>
        <time>2025-05-01T11:19:40Z</time>
      </trkpt>
      <trkpt lat="42.92049097828567" lon="-9.270670982077718">
        <ele>48.200000000000003</ele>
        <time>2025-05-01T11:19:41Z</time>
      </trkpt>
      <trkpt lat="42.920546969398856" lon="-9.270699983462691">
        <ele>48.200000000000003</ele>
        <time>2025-05-01T11:19:42Z</time>
      </trkpt>
      <trkpt lat="42.92059600353241" lon="-9.270724961534143">
        <ele>48.68</ele>
        <time>2025-05-01T11:19:43Z</time>
      </trkpt>
      <trkpt lat="42.92064000852406" lon="-9.270747005939484">
        <ele>48.68</ele>
        <time>2025-05-01T11:19:44Z</time>
      </trkpt>
      <trkpt lat="42.920686025172472" lon="-9.270770978182554">
        <ele>49.159999999999997</ele>
        <time>2025-05-01T11:19:45Z</time>
      </trkpt>
      <trkpt lat="42.920734975486994" lon="-9.270796040073037">
        <ele>49.159999999999997</ele>
        <time>2025-05-01T11:19:46Z</time>
      </trkpt>
      <trkpt lat="42.920780992135406" lon="-9.270820012316108">
        <ele>49.159999999999997</ele>
        <time>2025-05-01T11:19:47Z</time>
      </trkpt>
      <trkpt lat="42.920819967985153" lon="-9.270839961245656">
        <ele>49.159999999999997</ele>
        <time>2025-05-01T11:19:48Z</time>
      </trkpt>
      <trkpt lat="42.920849975198507" lon="-9.270854964852333">
        <ele>49.159999999999997</ele>
        <time>2025-05-01T11:19:49Z</time>
      </trkpt>
      <trkpt lat="42.92087696492672" lon="-9.27086896263063">
        <ele>49.649999999999999</ele>
        <time>2025-05-01T11:19:50Z</time>
      </trkpt>
      <trkpt lat="42.921019038185477" lon="-9.270941969007254">
        <ele>50.609999999999999</ele>
        <time>2025-05-01T11:19:55Z</time>
      </trkpt>
      <trkpt lat="42.921059019863605" lon="-9.270928977057338">
        <ele>50.609999999999999</ele>
        <time>2025-05-01T11:19:56Z</time>
      </trkpt>
      <trkpt lat="42.921066982671618" lon="-9.270891007035971">
        <ele>51.090000000000003</ele>
        <time>2025-05-01T11:19:57Z</time>
      </trkpt>
      <trkpt lat="42.921077040955424" lon="-9.270842978730798">
        <ele>51.57</ele>
        <time>2025-05-01T11:19:58Z</time>
      </trkpt>
      <trkpt lat="42.92109003290534" lon="-9.270779024809599">
        <ele>51.090000000000003</ele>
        <time>2025-05-01T11:19:59Z</time>
      </trkpt>
      <trkpt lat="42.921104030683637" lon="-9.270714987069368">
        <ele>51.090000000000003</ele>
        <time>2025-05-01T11:20:00Z</time>
      </trkpt>
      <trkpt lat="42.921137977391481" lon="-9.270551037043333">
        <ele>51.090000000000003</ele>
        <time>2025-05-01T11:20:02Z</time>
      </trkpt>
      <trkpt lat="42.921125991269946" lon="-9.27047903649509">
        <ele>50.609999999999999</ele>
        <time>2025-05-01T11:20:03Z</time>
      </trkpt>
      <trkpt lat="42.921101013198495" lon="-9.270329000428319">
        <ele>49.649999999999999</ele>
        <time>2025-05-01T11:20:05Z</time>
      </trkpt>
      <trkpt lat="42.921138983219862" lon="-9.270291030406952">
        <ele>49.159999999999997</ele>
        <time>2025-05-01T11:20:06Z</time>
      </trkpt>
      <trkpt lat="42.921194974333048" lon="-9.270286001265049">
        <ele>48.200000000000003</ele>
        <time>2025-05-01T11:20:07Z</time>
      </trkpt>
      <trkpt lat="42.921260017901659" lon="-9.270280972123146">
        <ele>47.719999999999999</ele>
        <time>2025-05-01T11:20:08Z</time>
      </trkpt>
      <trkpt lat="42.921325983479619" lon="-9.270276026800275">
        <ele>46.759999999999998</ele>
        <time>2025-05-01T11:20:09Z</time>
      </trkpt>
      <trkpt lat="42.921387003734708" lon="-9.270254988223314">
        <ele>46.280000000000001</ele>
        <time>2025-05-01T11:20:10Z</time>
      </trkpt>
      <trkpt lat="42.921426985412836" lon="-9.27020201459527">
        <ele>45.799999999999997</ele>
        <time>2025-05-01T11:20:11Z</time>
      </trkpt>
      <trkpt lat="42.921442994847894" lon="-9.270119033753872">
        <ele>44.840000000000003</ele>
        <time>2025-05-01T11:20:12Z</time>
      </trkpt>
      <trkpt lat="42.921450035646558" lon="-9.270018031820655">
        <ele>43.880000000000003</ele>
        <time>2025-05-01T11:20:13Z</time>
      </trkpt>
      <trkpt lat="42.92145699262619" lon="-9.269912000745535">
        <ele>43.399999999999999</ele>
        <time>2025-05-01T11:20:14Z</time>
      </trkpt>
      <trkpt lat="42.92147601954639" lon="-9.269626010209322">
        <ele>40.509999999999998</ele>
        <time>2025-05-01T11:20:17Z</time>
      </trkpt>
      <trkpt lat="42.921486999839544" lon="-9.269532971084118">
        <ele>39.549999999999997</ele>
        <time>2025-05-01T11:20:18Z</time>
      </trkpt>
      <trkpt lat="42.921527987346053" lon="-9.269459964707494">
        <ele>38.590000000000003</ele>
        <time>2025-05-01T11:20:19Z</time>
      </trkpt>
      <trkpt lat="42.921931995078921" lon="-9.268730990588665">
        <ele>33.299999999999997</ele>
        <time>2025-05-01T11:20:25Z</time>
      </trkpt>
      <trkpt lat="42.922731041908264" lon="-9.267288967967033">
        <ele>25.129999999999999</ele>
        <time>2025-05-01T11:20:36Z</time>
      </trkpt>
      <trkpt lat="42.923138989135623" lon="-9.266550019383431">
        <ele>21.289999999999999</ele>
        <time>2025-05-01T11:20:44Z</time>
      </trkpt>
      <trkpt lat="42.923249965533614" lon="-9.266349021345377">
        <ele>19.84</ele>
        <time>2025-05-01T11:20:47Z</time>
      </trkpt>
      <trkpt lat="42.923297993838787" lon="-9.266261011362076">
        <ele>19.359999999999999</ele>
        <time>2025-05-01T11:20:48Z</time>
      </trkpt>
      <trkpt lat="42.923871986567974" lon="-9.26521603949368">
        <ele>16</ele>
        <time>2025-05-01T11:20:58Z</time>
      </trkpt>
      <trkpt lat="42.924364004284143" lon="-9.264320014044642">
        <ele>15.039999999999999</ele>
        <time>2025-05-01T11:21:06Z</time>
      </trkpt>
      <trkpt lat="42.924429969862103" lon="-9.264199985191226">
        <ele>15.039999999999999</ele>
        <time>2025-05-01T11:21:07Z</time>
      </trkpt>
      <trkpt lat="42.925058025866747" lon="-9.263057028874755">
        <ele>15.039999999999999</ele>
        <time>2025-05-01T11:21:18Z</time>
      </trkpt>
      <trkpt lat="42.925247037783265" lon="-9.26289601251483">
        <ele>16</ele>
        <time>2025-05-01T11:21:24Z</time>
      </trkpt>
      <trkpt lat="42.925282996147871" lon="-9.26291897892952">
        <ele>16</ele>
        <time>2025-05-01T11:21:25Z</time>
      </trkpt>
      <trkpt lat="42.92532398365438" lon="-9.262944962829351">
        <ele>16</ele>
        <time>2025-05-01T11:21:26Z</time>
      </trkpt>
      <trkpt lat="42.925527999177575" lon="-9.263059040531516">
        <ele>16</ele>
        <time>2025-05-01T11:21:30Z</time>
      </trkpt>
      <trkpt lat="42.925594970583916" lon="-9.263082006946206">
        <ele>16.48</ele>
        <time>2025-05-01T11:21:31Z</time>
      </trkpt>
      <trkpt lat="42.925823964178562" lon="-9.263165993615985">
        <ele>17.440000000000001</ele>
        <time>2025-05-01T11:21:34Z</time>
      </trkpt>
      <trkpt lat="42.925907028838992" lon="-9.263215027749538">
        <ele>17.920000000000002</ele>
        <time>2025-05-01T11:21:35Z</time>
      </trkpt>
      <trkpt lat="42.926278011873364" lon="-9.263438992202282">
        <ele>20.32</ele>
        <time>2025-05-01T11:21:40Z</time>
      </trkpt>
      <trkpt lat="42.926350012421608" lon="-9.263464976102114">
        <ele>20.809999999999999</ele>
        <time>2025-05-01T11:21:41Z</time>
      </trkpt>
      <trkpt lat="42.92642000131309" lon="-9.263446033000946">
        <ele>20.809999999999999</ele>
        <time>2025-05-01T11:21:42Z</time>
      </trkpt>
      <trkpt lat="42.92702098377049" lon="-9.263365985825658">
        <ele>23.210000000000001</ele>
        <time>2025-05-01T11:21:49Z</time>
      </trkpt>
      <trkpt lat="42.927182000130415" lon="-9.263320975005627">
        <ele>23.690000000000001</ele>
        <time>2025-05-01T11:21:51Z</time>
      </trkpt>
      <trkpt lat="42.927682986482978" lon="-9.263182003051043">
        <ele>24.170000000000002</ele>
        <time>2025-05-01T11:22:00Z</time>
      </trkpt>
      <trkpt lat="42.927727997303009" lon="-9.263172028586268">
        <ele>24.170000000000002</ele>
        <time>2025-05-01T11:22:02Z</time>
      </trkpt>
      <trkpt lat="42.92775004170835" lon="-9.2631980124861">
        <ele>23.690000000000001</ele>
        <time>2025-05-01T11:22:03Z</time>
      </trkpt>
      <trkpt lat="42.927787005901337" lon="-9.26324101164937">
        <ele>23.690000000000001</ele>
        <time>2025-05-01T11:22:04Z</time>
      </trkpt>
      <trkpt lat="42.927836962044239" lon="-9.263301026076078">
        <ele>23.210000000000001</ele>
        <time>2025-05-01T11:22:05Z</time>
      </trkpt>
      <trkpt lat="42.927893958985806" lon="-9.263367997482419">
        <ele>22.73</ele>
        <time>2025-05-01T11:22:06Z</time>
      </trkpt>
      <trkpt lat="42.928547998890281" lon="-9.264149023219943">
        <ele>21.289999999999999</ele>
        <time>2025-05-01T11:22:14Z</time>
      </trkpt>
      <trkpt lat="42.928902972489595" lon="-9.264612961560488">
        <ele>21.77</ele>
        <time>2025-05-01T11:22:18Z</time>
      </trkpt>
      <trkpt lat="42.929865969344974" lon="-9.265869995579124">
        <ele>24.649999999999999</ele>
        <time>2025-05-01T11:22:28Z</time>
      </trkpt>
      <trkpt lat="42.930961987003684" lon="-9.267301959916949">
        <ele>31.859999999999999</ele>
        <time>2025-05-01T11:22:38Z</time>
      </trkpt>
      <trkpt lat="42.931306986138225" lon="-9.267733041197062">
        <ele>34.740000000000002</ele>
        <time>2025-05-01T11:22:43Z</time>
      </trkpt>
      <trkpt lat="42.931844014674425" lon="-9.268382973968983">
        <ele>41.469999999999999</ele>
        <time>2025-05-01T11:22:53Z</time>
      </trkpt>
      <trkpt lat="42.931974017992616" lon="-9.268512977287173">
        <ele>42.920000000000002</ele>
        <time>2025-05-01T11:22:55Z</time>
      </trkpt>
      <trkpt lat="42.932040989398956" lon="-9.268556982278824">
        <ele>43.399999999999999</ele>
        <time>2025-05-01T11:22:56Z</time>
      </trkpt>
      <trkpt lat="42.9321129899472" lon="-9.268605010583997">
        <ele>43.880000000000003</ele>
        <time>2025-05-01T11:22:57Z</time>
      </trkpt>
      <trkpt lat="42.932185996323824" lon="-9.268650021404028">
        <ele>44.359999999999999</ele>
        <time>2025-05-01T11:22:58Z</time>
      </trkpt>
      <trkpt lat="42.932276017963886" lon="-9.268692014738917">
        <ele>44.359999999999999</ele>
        <time>2025-05-01T11:22:59Z</time>
      </trkpt>
      <trkpt lat="42.933258041739464" lon="-9.269151007756591">
        <ele>42.920000000000002</ele>
        <time>2025-05-01T11:23:09Z</time>
      </trkpt>
      <trkpt lat="42.933778977021575" lon="-9.269371032714844">
        <ele>41.469999999999999</ele>
        <time>2025-05-01T11:23:15Z</time>
      </trkpt>
      <trkpt lat="42.934783967211843" lon="-9.26977101713419">
        <ele>40.030000000000001</ele>
        <time>2025-05-01T11:23:21Z</time>
      </trkpt>
      <trkpt lat="42.936807023361325" lon="-9.270535027608275">
        <ele>44.359999999999999</ele>
        <time>2025-05-01T11:23:31Z</time>
      </trkpt>
      <trkpt lat="42.939357971772552" lon="-9.27151101641357">
        <ele>50.609999999999999</ele>
        <time>2025-05-01T11:23:45Z</time>
      </trkpt>
      <trkpt lat="42.941425032913685" lon="-9.272302016615868">
        <ele>59.740000000000002</ele>
        <time>2025-05-01T11:23:57Z</time>
      </trkpt>
      <trkpt lat="42.942879963666201" lon="-9.272857988253236">
        <ele>66.469999999999999</ele>
        <time>2025-05-01T11:24:06Z</time>
      </trkpt>
      <trkpt lat="42.943974975496531" lon="-9.273276999592781">
        <ele>73.680000000000007</ele>
        <time>2025-05-01T11:24:16Z</time>
      </trkpt>
      <trkpt lat="42.944342019036412" lon="-9.273353023454547">
        <ele>75.599999999999994</ele>
        <time>2025-05-01T11:24:19Z</time>
      </trkpt>
      <trkpt lat="42.945745987817645" lon="-9.273438015952706">
        <ele>79.930000000000007</ele>
        <time>2025-05-01T11:24:28Z</time>
      </trkpt>
      <trkpt lat="42.947883037850261" lon="-9.273533988744021">
        <ele>76.079999999999998</ele>
        <time>2025-05-01T11:24:40Z</time>
      </trkpt>
      <trkpt lat="42.950948970392346" lon="-9.273648988455534">
        <ele>72.719999999999999</ele>
        <time>2025-05-01T11:24:55Z</time>
      </trkpt>
      <trkpt lat="42.952298037707806" lon="-9.27376801148057">
        <ele>71.269999999999996</ele>
        <time>2025-05-01T11:25:03Z</time>
      </trkpt>
      <trkpt lat="42.952315974980593" lon="-9.273770023137331">
        <ele>70.790000000000006</ele>
        <time>2025-05-01T11:25:04Z</time>
      </trkpt>
      <trkpt lat="42.952429968863726" lon="-9.273713026195765">
        <ele>70.310000000000002</ele>
        <time>2025-05-01T11:25:05Z</time>
      </trkpt>
      <trkpt lat="42.952489983290434" lon="-9.27368201315403">
        <ele>69.829999999999998</ele>
        <time>2025-05-01T11:25:06Z</time>
      </trkpt>
      <trkpt lat="42.952554021030664" lon="-9.273586040362716">
        <ele>69.829999999999998</ele>
        <time>2025-05-01T11:25:07Z</time>
      </trkpt>
      <trkpt lat="42.952628033235669" lon="-9.273473974317312">
        <ele>69.349999999999994</ele>
        <time>2025-05-01T11:25:08Z</time>
      </trkpt>
      <trkpt lat="42.9534259904176" lon="-9.272303022444248">
        <ele>62.140000000000001</ele>
        <time>2025-05-01T11:25:16Z</time>
      </trkpt>
      <trkpt lat="42.954562995582819" lon="-9.270655978471041">
        <ele>50.609999999999999</ele>
        <time>2025-05-01T11:25:25Z</time>
      </trkpt>
      <trkpt lat="42.955752974376082" lon="-9.268946992233396">
        <ele>40.990000000000002</ele>
        <time>2025-05-01T11:25:35Z</time>
      </trkpt>
      <trkpt lat="42.956822002306581" lon="-9.26738603040576">
        <ele>48.200000000000003</ele>
        <time>2025-05-01T11:25:45Z</time>
      </trkpt>
      <trkpt lat="42.957376968115568" lon="-9.266654960811138">
        <ele>53.969999999999999</ele>
        <time>2025-05-01T11:25:50Z</time>
      </trkpt>
      <trkpt lat="42.957495991140604" lon="-9.266509031876922">
        <ele>55.409999999999997</ele>
        <time>2025-05-01T11:25:51Z</time>
      </trkpt>
      <trkpt lat="42.958997022360563" lon="-9.26558299921453">
        <ele>65.030000000000001</ele>
        <time>2025-05-01T11:26:01Z</time>
      </trkpt>
      <trkpt lat="42.959973011165857" lon="-9.264954021200538">
        <ele>65.030000000000001</ele>
        <time>2025-05-01T11:26:07Z</time>
      </trkpt>
      <trkpt lat="42.961229039356112" lon="-9.263979038223624">
        <ele>62.619999999999997</ele>
        <time>2025-05-01T11:26:15Z</time>
      </trkpt>
      <trkpt lat="42.962954035028815" lon="-9.262609016150236">
        <ele>51.57</ele>
        <time>2025-05-01T11:26:26Z</time>
      </trkpt>
      <trkpt lat="42.964623961597681" lon="-9.261261038482189">
        <ele>43.880000000000003</ele>
        <time>2025-05-01T11:26:37Z</time>
      </trkpt>
      <trkpt lat="42.965879989787936" lon="-9.260221011936665">
        <ele>39.07</ele>
        <time>2025-05-01T11:26:46Z</time>
      </trkpt>
      <trkpt lat="42.967395018786192" lon="-9.258692990988493">
        <ele>34.740000000000002</ele>
        <time>2025-05-01T11:26:57Z</time>
      </trkpt>
      <trkpt lat="42.968668984249234" lon="-9.25739798694849">
        <ele>52.049999999999997</ele>
        <time>2025-05-01T11:27:07Z</time>
      </trkpt>
      <trkpt lat="42.969403993338346" lon="-9.256734978407621">
        <ele>62.140000000000001</ele>
        <time>2025-05-01T11:27:13Z</time>
      </trkpt>
      <trkpt lat="42.969506001099944" lon="-9.25664696842432">
        <ele>63.579999999999998</ele>
        <time>2025-05-01T11:27:14Z</time>
      </trkpt>
      <trkpt lat="42.969617983326316" lon="-9.256633976474404">
        <ele>65.030000000000001</ele>
        <time>2025-05-01T11:27:15Z</time>
      </trkpt>
      <trkpt lat="42.969728959724307" lon="-9.256635988131166">
        <ele>65.989999999999995</ele>
        <time>2025-05-01T11:27:16Z</time>
      </trkpt>
      <trkpt lat="42.969823004677892" lon="-9.2566670011729">
        <ele>66.950000000000003</ele>
        <time>2025-05-01T11:27:17Z</time>
      </trkpt>
      <trkpt lat="42.969898022711277" lon="-9.256691979244351">
        <ele>67.909999999999997</ele>
        <time>2025-05-01T11:27:18Z</time>
      </trkpt>
      <trkpt lat="42.969954013824463" lon="-9.256711006164551">
        <ele>68.870000000000005</ele>
        <time>2025-05-01T11:27:19Z</time>
      </trkpt>
      <trkpt lat="42.970029031857848" lon="-9.25664302892983">
        <ele>69.349999999999994</ele>
        <time>2025-05-01T11:27:20Z</time>
      </trkpt>
      <trkpt lat="42.970038000494242" lon="-9.256570022553206">
        <ele>69.829999999999998</ele>
        <time>2025-05-01T11:27:21Z</time>
      </trkpt>
      <trkpt lat="42.970049986615777" lon="-9.256468014791608">
        <ele>70.790000000000006</ele>
        <time>2025-05-01T11:27:22Z</time>
      </trkpt>
      <trkpt lat="42.970064990222454" lon="-9.256335999816656">
        <ele>70.790000000000006</ele>
        <time>2025-05-01T11:27:23Z</time>
      </trkpt>
      <trkpt lat="42.970234975218773" lon="-9.254878973588347">
        <ele>70.310000000000002</ele>
        <time>2025-05-01T11:27:31Z</time>
      </trkpt>
      <trkpt lat="42.970420969650149" lon="-9.253205023705959">
        <ele>65.989999999999995</ele>
        <time>2025-05-01T11:27:40Z</time>
      </trkpt>
      <trkpt lat="42.970561031252146" lon="-9.251898033544421">
        <ele>65.989999999999995</ele>
        <time>2025-05-01T11:27:48Z</time>
      </trkpt>
      <trkpt lat="42.970603024587035" lon="-9.251500982791185">
        <ele>67.909999999999997</ele>
        <time>2025-05-01T11:27:52Z</time>
      </trkpt>
      <trkpt lat="42.970608975738287" lon="-9.251450020819902">
        <ele>68.870000000000005</ele>
        <time>2025-05-01T11:27:53Z</time>
      </trkpt>
      <trkpt lat="42.970611993223429" lon="-9.251415990293026">
        <ele>69.349999999999994</ele>
        <time>2025-05-01T11:27:54Z</time>
      </trkpt>
      <trkpt lat="42.970638982951641" lon="-9.251350024715066">
        <ele>69.829999999999998</ele>
        <time>2025-05-01T11:27:55Z</time>
      </trkpt>
      <trkpt lat="42.970660021528602" lon="-9.251353964209557">
        <ele>70.310000000000002</ele>
        <time>2025-05-01T11:27:56Z</time>
      </trkpt>
      <trkpt lat="42.97070100903511" lon="-9.251361005008221">
        <ele>70.790000000000006</ele>
        <time>2025-05-01T11:27:57Z</time>
      </trkpt>
      <trkpt lat="42.97076404094696" lon="-9.251371985301375">
        <ele>71.269999999999996</ele>
        <time>2025-05-01T11:27:58Z</time>
      </trkpt>
      <trkpt lat="42.970844004303217" lon="-9.251386988908052">
        <ele>71.269999999999996</ele>
        <time>2025-05-01T11:27:59Z</time>
      </trkpt>
      <trkpt lat="42.97093796543777" lon="-9.251404004171491">
        <ele>71.269999999999996</ele>
        <time>2025-05-01T11:28:00Z</time>
      </trkpt>
      <trkpt lat="42.971038967370987" lon="-9.25142202526331">
        <ele>71.760000000000005</ele>
        <time>2025-05-01T11:28:01Z</time>
      </trkpt>
      <trkpt lat="42.971140975132585" lon="-9.251439962536097">
        <ele>71.760000000000005</ele>
        <time>2025-05-01T11:28:02Z</time>
      </trkpt>
      <trkpt lat="42.97123895958066" lon="-9.251457983627915">
        <ele>72.239999999999995</ele>
        <time>2025-05-01T11:28:03Z</time>
      </trkpt>
      <trkpt lat="42.97132596373558" lon="-9.251472987234592">
        <ele>72.239999999999995</ele>
        <time>2025-05-01T11:28:04Z</time>
      </trkpt>
      <trkpt lat="42.971411040052772" lon="-9.25148899666965">
        <ele>72.719999999999999</ele>
        <time>2025-05-01T11:28:05Z</time>
      </trkpt>
      <trkpt lat="42.971496032550931" lon="-9.251483967527747">
        <ele>72.719999999999999</ele>
        <time>2025-05-01T11:28:06Z</time>
      </trkpt>
      <trkpt lat="42.971592005342245" lon="-9.251452032476664">
        <ele>73.200000000000003</ele>
        <time>2025-05-01T11:28:07Z</time>
      </trkpt>
      <trkpt lat="42.971693007275462" lon="-9.251418001949787">
        <ele>74.159999999999997</ele>
        <time>2025-05-01T11:28:08Z</time>
      </trkpt>
      <trkpt lat="42.972181001678109" lon="-9.251255979761481">
        <ele>80.409999999999997</ele>
        <time>2025-05-01T11:28:13Z</time>
      </trkpt>
      <trkpt lat="42.973132012411952" lon="-9.250947022810578">
        <ele>88.579999999999998</ele>
        <time>2025-05-01T11:28:23Z</time>
      </trkpt>
      <trkpt lat="42.974273040890694" lon="-9.250611998140812">
        <ele>96.75</ele>
        <time>2025-05-01T11:28:32Z</time>
      </trkpt>
      <trkpt lat="42.974971001967788" lon="-9.250360038131475">
        <ele>101.56</ele>
        <time>2025-05-01T11:28:37Z</time>
      </trkpt>
      <trkpt lat="42.975849006325006" lon="-9.249557973816991">
        <ele>107.31999999999999</ele>
        <time>2025-05-01T11:28:44Z</time>
      </trkpt>
      <trkpt lat="42.975963000208139" lon="-9.249372985213995">
        <ele>109.25</ele>
        <time>2025-05-01T11:28:45Z</time>
      </trkpt>
      <trkpt lat="42.976075988262892" lon="-9.249222027137876">
        <ele>110.69</ele>
        <time>2025-05-01T11:28:46Z</time>
      </trkpt>
      <trkpt lat="42.976192999631166" lon="-9.249067967757583">
        <ele>112.13</ele>
        <time>2025-05-01T11:28:47Z</time>
      </trkpt>
      <trkpt lat="42.976313028484583" lon="-9.248908963054419">
        <ele>113.09</ele>
        <time>2025-05-01T11:28:48Z</time>
      </trkpt>
      <trkpt lat="42.976433979347348" lon="-9.248748030513525">
        <ele>114.53</ele>
        <time>2025-05-01T11:28:49Z</time>
      </trkpt>
      <trkpt lat="42.97718801535666" lon="-9.247344983741641">
        <ele>124.15000000000001</ele>
        <time>2025-05-01T11:28:57Z</time>
      </trkpt>
      <trkpt lat="42.977250963449478" lon="-9.247185979038477">
        <ele>124.63</ele>
        <time>2025-05-01T11:28:58Z</time>
      </trkpt>
      <trkpt lat="42.977336039766669" lon="-9.246968971565366">
        <ele>124.63</ele>
        <time>2025-05-01T11:28:59Z</time>
      </trkpt>
      <trkpt lat="42.977433018386364" lon="-9.246299006044865">
        <ele>122.70999999999999</ele>
        <time>2025-05-01T11:29:03Z</time>
      </trkpt>
      <trkpt lat="42.977427989244461" lon="-9.246141007170081">
        <ele>122.22</ele>
        <time>2025-05-01T11:29:04Z</time>
      </trkpt>
      <trkpt lat="42.977422960102558" lon="-9.246003041043878">
        <ele>121.73999999999999</ele>
        <time>2025-05-01T11:29:05Z</time>
      </trkpt>
      <trkpt lat="42.977449027821422" lon="-9.245878988876939">
        <ele>121.26000000000001</ele>
        <time>2025-05-01T11:29:06Z</time>
      </trkpt>
      <trkpt lat="42.977478029206395" lon="-9.245790978893638">
        <ele>120.78</ele>
        <time>2025-05-01T11:29:07Z</time>
      </trkpt>
      <trkpt lat="42.977531002834439" lon="-9.245631974190474">
        <ele>118.38</ele>
        <time>2025-05-01T11:29:11Z</time>
      </trkpt>
      <trkpt lat="42.977615995332599" lon="-9.245652006939054">
        <ele>117.42</ele>
        <time>2025-05-01T11:29:12Z</time>
      </trkpt>
      <trkpt lat="42.977663017809391" lon="-9.245706992223859">
        <ele>116.94</ele>
        <time>2025-05-01T11:29:13Z</time>
      </trkpt>
      <trkpt lat="42.977721020579338" lon="-9.24577496945858">
        <ele>115.98</ele>
        <time>2025-05-01T11:29:14Z</time>
      </trkpt>
      <trkpt lat="42.977785980328918" lon="-9.245851999148727">
        <ele>115.01000000000001</ele>
        <time>2025-05-01T11:29:15Z</time>
      </trkpt>
      <trkpt lat="42.978373970836401" lon="-9.246547026559711">
        <ele>106.36</ele>
        <time>2025-05-01T11:29:21Z</time>
      </trkpt>
      <trkpt lat="42.978774961084127" lon="-9.246940976008773">
        <ele>100.11</ele>
        <time>2025-05-01T11:29:24Z</time>
      </trkpt>
      <trkpt lat="42.978922985494137" lon="-9.247039966285229">
        <ele>98.189999999999998</ele>
        <time>2025-05-01T11:29:25Z</time>
      </trkpt>
      <trkpt lat="42.979559004306793" lon="-9.247259991243482">
        <ele>88.579999999999998</ele>
        <time>2025-05-01T11:29:29Z</time>
      </trkpt>
      <trkpt lat="42.97972597181797" lon="-9.247255967929959">
        <ele>86.180000000000007</ele>
        <time>2025-05-01T11:29:30Z</time>
      </trkpt>
      <trkpt lat="42.979904003441334" lon="-9.247207017615438">
        <ele>84.25</ele>
        <time>2025-05-01T11:29:31Z</time>
      </trkpt>
      <trkpt lat="42.980078011751175" lon="-9.247097969055176">
        <ele>81.849999999999994</ele>
        <time>2025-05-01T11:29:32Z</time>
      </trkpt>
      <trkpt lat="42.980255959555507" lon="-9.246983975172043">
        <ele>79.450000000000003</ele>
        <time>2025-05-01T11:29:33Z</time>
      </trkpt>
      <trkpt lat="42.98112097196281" lon="-9.246446024626494">
        <ele>68.870000000000005</ele>
        <time>2025-05-01T11:29:38Z</time>
      </trkpt>
      <trkpt lat="42.982188994064927" lon="-9.246158022433519">
        <ele>57.82</ele>
        <time>2025-05-01T11:29:44Z</time>
      </trkpt>
      <trkpt lat="42.982364008203149" lon="-9.246126003563404">
        <ele>55.890000000000001</ele>
        <time>2025-05-01T11:29:45Z</time>
      </trkpt>
      <trkpt lat="42.983611989766359" lon="-9.246204039081931">
        <ele>49.159999999999997</ele>
        <time>2025-05-01T11:29:53Z</time>
      </trkpt>
      <trkpt lat="42.984181959182024" lon="-9.246248966082931">
        <ele>43.880000000000003</ele>
        <time>2025-05-01T11:30:01Z</time>
      </trkpt>
      <trkpt lat="42.984970025718212" lon="-9.246282996609807">
        <ele>40.990000000000002</ele>
        <time>2025-05-01T11:30:08Z</time>
      </trkpt>
      <trkpt lat="42.985102962702513" lon="-9.246231028810144">
        <ele>40.509999999999998</ele>
        <time>2025-05-01T11:30:09Z</time>
      </trkpt>
      <trkpt lat="42.985241012647748" lon="-9.246164979413152">
        <ele>39.549999999999997</ele>
        <time>2025-05-01T11:30:10Z</time>
      </trkpt>
      <trkpt lat="42.986560994759202" lon="-9.245327962562442">
        <ele>30.420000000000002</ele>
        <time>2025-05-01T11:30:18Z</time>
      </trkpt>
      <trkpt lat="42.988626966252923" lon="-9.244039999321103">
        <ele>19.84</ele>
        <time>2025-05-01T11:30:29Z</time>
      </trkpt>
      <trkpt lat="42.988795023411512" lon="-9.243961041793227">
        <ele>19.359999999999999</ele>
        <time>2025-05-01T11:30:30Z</time>
      </trkpt>
      <trkpt lat="42.988982023671269" lon="-9.243944026529789">
        <ele>19.359999999999999</ele>
        <time>2025-05-01T11:30:31Z</time>
      </trkpt>
      <trkpt lat="42.990940036252141" lon="-9.243889963254333">
        <ele>18.879999999999999</ele>
        <time>2025-05-01T11:30:40Z</time>
      </trkpt>
      <trkpt lat="42.992983041331172" lon="-9.243869008496404">
        <ele>17.920000000000002</ele>
        <time>2025-05-01T11:30:50Z</time>
      </trkpt>
      <trkpt lat="42.994789006188512" lon="-9.243820980191231">
        <ele>23.210000000000001</ele>
        <time>2025-05-01T11:30:59Z</time>
      </trkpt>
      <trkpt lat="42.995470035821199" lon="-9.24379600211978">
        <ele>30.899999999999999</ele>
        <time>2025-05-01T11:31:03Z</time>
      </trkpt>
      <trkpt lat="42.99562300555408" lon="-9.243761971592903">
        <ele>32.82</ele>
        <time>2025-05-01T11:31:04Z</time>
      </trkpt>
      <trkpt lat="42.995766000822186" lon="-9.24371100962162">
        <ele>34.259999999999998</ele>
        <time>2025-05-01T11:31:05Z</time>
      </trkpt>
      <trkpt lat="42.997119007632136" lon="-9.243024028837681">
        <ele>44.359999999999999</ele>
        <time>2025-05-01T11:31:14Z</time>
      </trkpt>
      <trkpt lat="42.997551010921597" lon="-9.242797968909144">
        <ele>47.240000000000002</ele>
        <time>2025-05-01T11:31:19Z</time>
      </trkpt>
      <trkpt lat="42.997585041448474" lon="-9.242780031636357">
        <ele>47.719999999999999</ele>
        <time>2025-05-01T11:31:20Z</time>
      </trkpt>
      <trkpt lat="42.997591998428106" lon="-9.242663020268083">
        <ele>48.200000000000003</ele>
        <time>2025-05-01T11:31:21Z</time>
      </trkpt>
      <trkpt lat="42.99755796790123" lon="-9.242621026933193">
        <ele>48.68</ele>
        <time>2025-05-01T11:31:22Z</time>
      </trkpt>
      <trkpt lat="42.997511029243469" lon="-9.242563024163246">
        <ele>49.159999999999997</ele>
        <time>2025-05-01T11:31:23Z</time>
      </trkpt>
      <trkpt lat="42.997456965968013" lon="-9.242496974766254">
        <ele>49.649999999999999</ele>
        <time>2025-05-01T11:31:24Z</time>
      </trkpt>
      <trkpt lat="42.9972970392555" lon="-9.242236968129873">
        <ele>51.57</ele>
        <time>2025-05-01T11:31:27Z</time>
      </trkpt>
      <trkpt lat="42.997249010950327" lon="-9.242140995338559">
        <ele>52.530000000000001</ele>
        <time>2025-05-01T11:31:28Z</time>
      </trkpt>
      <trkpt lat="42.997237024828792" lon="-9.242005962878466">
        <ele>53.009999999999998</ele>
        <time>2025-05-01T11:31:29Z</time>
      </trkpt>
      <trkpt lat="42.997225038707256" lon="-9.241870008409023">
        <ele>53.490000000000002</ele>
        <time>2025-05-01T11:31:30Z</time>
      </trkpt>
      <trkpt lat="42.997212968766689" lon="-9.241730030626059">
        <ele>54.450000000000003</ele>
        <time>2025-05-01T11:31:31Z</time>
      </trkpt>
      <trkpt lat="42.997207017615438" lon="-9.241588041186333">
        <ele>54.93</ele>
        <time>2025-05-01T11:31:32Z</time>
      </trkpt>
      <trkpt lat="42.997239036485553" lon="-9.24025297164917">
        <ele>58.299999999999997</ele>
        <time>2025-05-01T11:31:39Z</time>
      </trkpt>
      <trkpt lat="42.997245993465185" lon="-9.238108964636922">
        <ele>65.989999999999995</ele>
        <time>2025-05-01T11:31:48Z</time>
      </trkpt>
      <trkpt lat="42.997222021222115" lon="-9.237631028518081">
        <ele>66.950000000000003</ele>
        <time>2025-05-01T11:31:50Z</time>
      </trkpt>
      <trkpt lat="42.997174998745322" lon="-9.237406980246306">
        <ele>67.430000000000007</ele>
        <time>2025-05-01T11:31:51Z</time>
      </trkpt>
      <trkpt lat="42.997116995975375" lon="-9.237195001915097">
        <ele>67.430000000000007</ele>
        <time>2025-05-01T11:31:52Z</time>
      </trkpt>
      <trkpt lat="42.997026974335313" lon="-9.236988974735141">
        <ele>67.430000000000007</ele>
        <time>2025-05-01T11:31:53Z</time>
      </trkpt>
      <trkpt lat="42.99693301320076" lon="-9.236776996403933">
        <ele>67.909999999999997</ele>
        <time>2025-05-01T11:31:54Z</time>
      </trkpt>
      <trkpt lat="42.995683019980788" lon="-9.233927987515926">
        <ele>79.450000000000003</ele>
        <time>2025-05-01T11:32:07Z</time>
      </trkpt>
      <trkpt lat="42.994562024250627" lon="-9.231371004134417">
        <ele>91.939999999999998</ele>
        <time>2025-05-01T11:32:18Z</time>
      </trkpt>
      <trkpt lat="42.994125997647643" lon="-9.23026098869741">
        <ele>90.5</ele>
        <time>2025-05-01T11:32:23Z</time>
      </trkpt>
      <trkpt lat="42.994064977392554" lon="-9.230028977617621">
        <ele>89.540000000000006</ele>
        <time>2025-05-01T11:32:24Z</time>
      </trkpt>
      <trkpt lat="42.994018960744143" lon="-9.229778023436666">
        <ele>89.540000000000006</ele>
        <time>2025-05-01T11:32:25Z</time>
      </trkpt>
      <trkpt lat="42.993932040408254" lon="-9.228953998535872">
        <ele>89.540000000000006</ele>
        <time>2025-05-01T11:32:28Z</time>
      </trkpt>
      <trkpt lat="42.993879988789558" lon="-9.228708995506167">
        <ele>90.019999999999996</ele>
        <time>2025-05-01T11:32:29Z</time>
      </trkpt>
      <trkpt lat="42.993788961321115" lon="-9.228452006354928">
        <ele>90.5</ele>
        <time>2025-05-01T11:32:30Z</time>
      </trkpt>
      <trkpt lat="42.993675973266363" lon="-9.228231981396675">
        <ele>90.980000000000004</ele>
        <time>2025-05-01T11:32:31Z</time>
      </trkpt>
      <trkpt lat="42.99353901296854" lon="-9.22802603803575">
        <ele>91.459999999999994</ele>
        <time>2025-05-01T11:32:32Z</time>
      </trkpt>
      <trkpt lat="42.993400041013956" lon="-9.227816993370652">
        <ele>91.939999999999998</ele>
        <time>2025-05-01T11:32:33Z</time>
      </trkpt>
      <trkpt lat="42.993261991068721" lon="-9.227610966190696">
        <ele>92.420000000000002</ele>
        <time>2025-05-01T11:32:34Z</time>
      </trkpt>
      <trkpt lat="42.992475014179945" lon="-9.226375976577401">
        <ele>92.900000000000006</ele>
        <time>2025-05-01T11:32:41Z</time>
      </trkpt>
      <trkpt lat="42.992454981431365" lon="-9.226216971874237">
        <ele>92.900000000000006</ele>
        <time>2025-05-01T11:32:42Z</time>
      </trkpt>
      <trkpt lat="42.992450036108494" lon="-9.226094009354711">
        <ele>92.420000000000002</ele>
        <time>2025-05-01T11:32:43Z</time>
      </trkpt>
      <trkpt lat="42.992510972544551" lon="-9.225953025743365">
        <ele>92.420000000000002</ele>
        <time>2025-05-01T11:32:44Z</time>
      </trkpt>
      <trkpt lat="42.992579033598304" lon="-9.22579200938344">
        <ele>91.939999999999998</ele>
        <time>2025-05-01T11:32:45Z</time>
      </trkpt>
      <trkpt lat="42.99265899695456" lon="-9.225613977760077">
        <ele>91.939999999999998</ele>
        <time>2025-05-01T11:32:46Z</time>
      </trkpt>
      <trkpt lat="42.993143973872066" lon="-9.224642012268305">
        <ele>95.790000000000006</ele>
        <time>2025-05-01T11:32:51Z</time>
      </trkpt>
      <trkpt lat="42.993223015218973" lon="-9.224447971209884">
        <ele>97.230000000000004</ele>
        <time>2025-05-01T11:32:52Z</time>
      </trkpt>
      <trkpt lat="42.993295015767217" lon="-9.224231969565153">
        <ele>98.189999999999998</ele>
        <time>2025-05-01T11:32:53Z</time>
      </trkpt>
      <trkpt lat="42.993784015998244" lon="-9.221930969506502">
        <ele>106.36</ele>
        <time>2025-05-01T11:33:02Z</time>
      </trkpt>
      <trkpt lat="42.993837995454669" lon="-9.22168898396194">
        <ele>107.31999999999999</ele>
        <time>2025-05-01T11:33:03Z</time>
      </trkpt>
      <trkpt lat="42.993934974074364" lon="-9.221464013680816">
        <ele>107.81</ele>
        <time>2025-05-01T11:33:04Z</time>
      </trkpt>
      <trkpt lat="42.994050979614258" lon="-9.221252035349608">
        <ele>108.29000000000001</ele>
        <time>2025-05-01T11:33:05Z</time>
      </trkpt>
      <trkpt lat="42.995135011151433" lon="-9.219530979171395">
        <ele>110.20999999999999</ele>
        <time>2025-05-01T11:33:13Z</time>
      </trkpt>
      <trkpt lat="42.995656030252576" lon="-9.218652974814177">
        <ele>112.13</ele>
        <time>2025-05-01T11:33:17Z</time>
      </trkpt>
      <trkpt lat="42.995753008872271" lon="-9.218410989269614">
        <ele>113.09</ele>
        <time>2025-05-01T11:33:18Z</time>
      </trkpt>
      <trkpt lat="42.99598703160882" lon="-9.217694001272321">
        <ele>114.53</ele>
        <time>2025-05-01T11:33:21Z</time>
      </trkpt>
      <trkpt lat="42.996013015508652" lon="-9.217461990192533">
        <ele>114.53</ele>
        <time>2025-05-01T11:33:22Z</time>
      </trkpt>
      <trkpt lat="42.996025001630187" lon="-9.217245988547802">
        <ele>115.01000000000001</ele>
        <time>2025-05-01T11:33:23Z</time>
      </trkpt>
      <trkpt lat="42.995979990810156" lon="-9.217030992731452">
        <ele>115.01000000000001</ele>
        <time>2025-05-01T11:33:24Z</time>
      </trkpt>
      <trkpt lat="42.995929028838873" lon="-9.216808034107089">
        <ele>114.53</ele>
        <time>2025-05-01T11:33:25Z</time>
      </trkpt>
      <trkpt lat="42.995712021365762" lon="-9.216129016131163">
        <ele>113.56999999999999</ele>
        <time>2025-05-01T11:33:28Z</time>
      </trkpt>
      <trkpt lat="42.995609007775784" lon="-9.215903962031007">
        <ele>112.61</ele>
        <time>2025-05-01T11:33:29Z</time>
      </trkpt>
      <trkpt lat="42.995502976700664" lon="-9.21567102894187">
        <ele>111.65000000000001</ele>
        <time>2025-05-01T11:33:30Z</time>
      </trkpt>
      <trkpt lat="42.995093017816544" lon="-9.214796964079142">
        <ele>107.31999999999999</ele>
        <time>2025-05-01T11:33:34Z</time>
      </trkpt>
      <trkpt lat="42.995051024481654" lon="-9.214568976312876">
        <ele>106.36</ele>
        <time>2025-05-01T11:33:35Z</time>
      </trkpt>
      <trkpt lat="42.995016993954778" lon="-9.2143190279603">
        <ele>105.40000000000001</ele>
        <time>2025-05-01T11:33:36Z</time>
      </trkpt>
      <trkpt lat="42.995073990896344" lon="-9.212958980351687">
        <ele>100.59999999999999</ele>
        <time>2025-05-01T11:33:41Z</time>
      </trkpt>
      <trkpt lat="42.995120007544756" lon="-9.212682964280248">
        <ele>99.629999999999995</ele>
        <time>2025-05-01T11:33:42Z</time>
      </trkpt>
      <trkpt lat="42.9956029728055" lon="-9.210211979225278">
        <ele>106.36</ele>
        <time>2025-05-01T11:33:52Z</time>
      </trkpt>
      <trkpt lat="42.995616970583797" lon="-9.210036965087056">
        <ele>107.31999999999999</ele>
        <time>2025-05-01T11:33:53Z</time>
      </trkpt>
      <trkpt lat="42.995585035532713" lon="-9.209889024496079">
        <ele>108.29000000000001</ele>
        <time>2025-05-01T11:33:54Z</time>
      </trkpt>
      <trkpt lat="42.995547987520695" lon="-9.209753992035985">
        <ele>109.25</ele>
        <time>2025-05-01T11:33:55Z</time>
      </trkpt>
      <trkpt lat="42.995477998629212" lon="-9.209661036729813">
        <ele>109.73</ele>
        <time>2025-05-01T11:33:56Z</time>
      </trkpt>
      <trkpt lat="42.995413038879633" lon="-9.209574032574892">
        <ele>110.20999999999999</ele>
        <time>2025-05-01T11:33:57Z</time>
      </trkpt>
      <trkpt lat="42.995349001139402" lon="-9.209489040076733">
        <ele>110.69</ele>
        <time>2025-05-01T11:33:58Z</time>
      </trkpt>
      <trkpt lat="42.995285969227552" lon="-9.209404969587922">
        <ele>111.65000000000001</ele>
        <time>2025-05-01T11:33:59Z</time>
      </trkpt>
      <trkpt lat="42.995229978114367" lon="-9.209321988746524">
        <ele>112.13</ele>
        <time>2025-05-01T11:34:00Z</time>
      </trkpt>
      <trkpt lat="42.99521598033607" lon="-9.209195002913475">
        <ele>113.09</ele>
        <time>2025-05-01T11:34:01Z</time>
      </trkpt>
      <trkpt lat="42.995201982557774" lon="-9.209067011252046">
        <ele>114.05</ele>
        <time>2025-05-01T11:34:02Z</time>
      </trkpt>
      <trkpt lat="42.995186978951097" lon="-9.208932984620333">
        <ele>115.01000000000001</ele>
        <time>2025-05-01T11:34:03Z</time>
      </trkpt>
      <trkpt lat="42.994981035590172" lon="-9.207797991111875">
        <ele>120.3</ele>
        <time>2025-05-01T11:34:11Z</time>
      </trkpt>
      <trkpt lat="42.994679035618901" lon="-9.206571970134974">
        <ele>123.67</ele>
        <time>2025-05-01T11:34:21Z</time>
      </trkpt>
      <trkpt lat="42.994635030627251" lon="-9.206288997083902">
        <ele>124.15000000000001</ele>
        <time>2025-05-01T11:34:27Z</time>
      </trkpt>
      <trkpt lat="42.994618015363812" lon="-9.206211967393756">
        <ele>124.15000000000001</ele>
        <time>2025-05-01T11:34:28Z</time>
      </trkpt>
      <trkpt lat="42.994605023413897" lon="-9.206118006259203">
        <ele>124.15000000000001</ele>
        <time>2025-05-01T11:34:29Z</time>
      </trkpt>
      <trkpt lat="42.994595970958471" lon="-9.206000994890928">
        <ele>123.67</ele>
        <time>2025-05-01T11:34:30Z</time>
      </trkpt>
      <trkpt lat="42.994580967351794" lon="-9.205865040421486">
        <ele>123.67</ele>
        <time>2025-05-01T11:34:31Z</time>
      </trkpt>
      <trkpt lat="42.994565963745117" lon="-9.205716010183096">
        <ele>123.19</ele>
        <time>2025-05-01T11:34:32Z</time>
      </trkpt>
      <trkpt lat="42.994565963745117" lon="-9.20555398799479">
        <ele>122.70999999999999</ele>
        <time>2025-05-01T11:34:33Z</time>
      </trkpt>
      <trkpt lat="42.994565963745117" lon="-9.20538199134171">
        <ele>122.22</ele>
        <time>2025-05-01T11:34:34Z</time>
      </trkpt>
      <trkpt lat="42.994565963745117" lon="-9.205011008307338">
        <ele>122.22</ele>
        <time>2025-05-01T11:34:36Z</time>
      </trkpt>
      <trkpt lat="42.994565963745117" lon="-9.204812021926045">
        <ele>122.22</ele>
        <time>2025-05-01T11:34:37Z</time>
      </trkpt>
      <trkpt lat="42.994549032300711" lon="-9.202672960236669">
        <ele>122.70999999999999</ele>
        <time>2025-05-01T11:34:47Z</time>
      </trkpt>
      <trkpt lat="42.994568981230259" lon="-9.202442960813642">
        <ele>122.22</ele>
        <time>2025-05-01T11:34:48Z</time>
      </trkpt>
      <trkpt lat="42.99459001980722" lon="-9.202214973047376">
        <ele>122.22</ele>
        <time>2025-05-01T11:34:49Z</time>
      </trkpt>
      <trkpt lat="42.994651040062308" lon="-9.20063397847116">
        <ele>122.70999999999999</ele>
        <time>2025-05-01T11:34:56Z</time>
      </trkpt>
      <trkpt lat="42.994621032848954" lon="-9.200397022068501">
        <ele>122.22</ele>
        <time>2025-05-01T11:34:57Z</time>
      </trkpt>
      <trkpt lat="42.994156004860997" lon="-9.197942968457937">
        <ele>113.09</ele>
        <time>2025-05-01T11:35:07Z</time>
      </trkpt>
      <trkpt lat="42.994144018739462" lon="-9.197728978469968">
        <ele>112.13</ele>
        <time>2025-05-01T11:35:08Z</time>
      </trkpt>
      <trkpt lat="42.994136977940798" lon="-9.197532003745437">
        <ele>111.65000000000001</ele>
        <time>2025-05-01T11:35:09Z</time>
      </trkpt>
      <trkpt lat="42.994274022057652" lon="-9.19627396389842">
        <ele>106.84</ele>
        <time>2025-05-01T11:35:17Z</time>
      </trkpt>
      <trkpt lat="42.994552971795201" lon="-9.194153007119894">
        <ele>106.36</ele>
        <time>2025-05-01T11:35:30Z</time>
      </trkpt>
      <trkpt lat="42.994640981778502" lon="-9.193684961646795">
        <ele>107.31999999999999</ele>
        <time>2025-05-01T11:35:33Z</time>
      </trkpt>
      <trkpt lat="42.99469898454845" lon="-9.193541966378689">
        <ele>107.81</ele>
        <time>2025-05-01T11:35:34Z</time>
      </trkpt>
      <trkpt lat="42.994760004803538" lon="-9.193390002474189">
        <ele>107.81</ele>
        <time>2025-05-01T11:35:35Z</time>
      </trkpt>
      <trkpt lat="42.994909035041928" lon="-9.193120021373034">
        <ele>108.29000000000001</ele>
        <time>2025-05-01T11:35:37Z</time>
      </trkpt>
      <trkpt lat="42.994992015883327" lon="-9.192985994741321">
        <ele>108.29000000000001</ele>
        <time>2025-05-01T11:35:38Z</time>
      </trkpt>
      <trkpt lat="42.995059993118048" lon="-9.192875018343329">
        <ele>107.81</ele>
        <time>2025-05-01T11:35:39Z</time>
      </trkpt>
      <trkpt lat="42.995114978402853" lon="-9.19270402751863">
        <ele>107.81</ele>
        <time>2025-05-01T11:35:40Z</time>
      </trkpt>
      <trkpt lat="42.995163006708026" lon="-9.192550973966718">
        <ele>107.31999999999999</ele>
        <time>2025-05-01T11:35:41Z</time>
      </trkpt>
      <trkpt lat="42.995211035013199" lon="-9.19240202754736">
        <ele>106.84</ele>
        <time>2025-05-01T11:35:42Z</time>
      </trkpt>
      <trkpt lat="42.995390994474292" lon="-9.19150298461318">
        <ele>102.52</ele>
        <time>2025-05-01T11:35:49Z</time>
      </trkpt>
      <trkpt lat="42.995456960052252" lon="-9.191280025988817">
        <ele>99.629999999999995</ele>
        <time>2025-05-01T11:35:53Z</time>
      </trkpt>
      <trkpt lat="42.995482021942735" lon="-9.191229986026883">
        <ele>99.150000000000006</ele>
        <time>2025-05-01T11:35:54Z</time>
      </trkpt>
      <trkpt lat="42.995542958378792" lon="-9.191171983256936">
        <ele>99.150000000000006</ele>
        <time>2025-05-01T11:35:55Z</time>
      </trkpt>
      <trkpt lat="42.995609007775784" lon="-9.191109035164118">
        <ele>98.670000000000002</ele>
        <time>2025-05-01T11:35:56Z</time>
      </trkpt>
      <trkpt lat="42.995683019980788" lon="-9.191038040444255">
        <ele>98.670000000000002</ele>
        <time>2025-05-01T11:35:57Z</time>
      </trkpt>
      <trkpt lat="42.995768012478948" lon="-9.190956987440586">
        <ele>98.189999999999998</ele>
        <time>2025-05-01T11:35:58Z</time>
      </trkpt>
      <trkpt lat="42.99585803411901" lon="-9.190870989114046">
        <ele>98.189999999999998</ele>
        <time>2025-05-01T11:35:59Z</time>
      </trkpt>
      <trkpt lat="42.995953001081944" lon="-9.190780967473984">
        <ele>97.709999999999994</ele>
        <time>2025-05-01T11:36:00Z</time>
      </trkpt>
      <trkpt lat="42.996434038504958" lon="-9.190300013870001">
        <ele>95.790000000000006</ele>
        <time>2025-05-01T11:36:05Z</time>
      </trkpt>
      <trkpt lat="42.99650302156806" lon="-9.190167998895049">
        <ele>95.310000000000002</ele>
        <time>2025-05-01T11:36:06Z</time>
      </trkpt>
      <trkpt lat="42.996576027944684" lon="-9.190030032768846">
        <ele>94.829999999999998</ele>
        <time>2025-05-01T11:36:07Z</time>
      </trkpt>
      <trkpt lat="42.996648028492928" lon="-9.18989198282361">
        <ele>93.870000000000005</ele>
        <time>2025-05-01T11:36:08Z</time>
      </trkpt>
      <trkpt lat="42.996573010459542" lon="-9.189772959798574">
        <ele>93.390000000000001</ele>
        <time>2025-05-01T11:36:09Z</time>
      </trkpt>
      <trkpt lat="42.996512996032834" lon="-9.18967698700726">
        <ele>92.420000000000002</ele>
        <time>2025-05-01T11:36:10Z</time>
      </trkpt>
      <trkpt lat="42.996433032676578" lon="-9.189548995345831">
        <ele>91.939999999999998</ele>
        <time>2025-05-01T11:36:11Z</time>
      </trkpt>
      <trkpt lat="42.996347034350038" lon="-9.189465008676052">
        <ele>91.459999999999994</ele>
        <time>2025-05-01T11:36:12Z</time>
      </trkpt>
      <trkpt lat="42.996237985789776" lon="-9.189358977600932">
        <ele>90.980000000000004</ele>
        <time>2025-05-01T11:36:13Z</time>
      </trkpt>
      <trkpt lat="42.995754014700651" lon="-9.188886992633343">
        <ele>87.140000000000001</ele>
        <time>2025-05-01T11:36:18Z</time>
      </trkpt>
      <trkpt lat="42.995676985010505" lon="-9.188811974599958">
        <ele>86.659999999999997</ele>
        <time>2025-05-01T11:36:19Z</time>
      </trkpt>
      <trkpt lat="42.995617976412177" lon="-9.188711978495121">
        <ele>86.659999999999997</ele>
        <time>2025-05-01T11:36:20Z</time>
      </trkpt>
      <trkpt lat="42.995617976412177" lon="-9.188584992662072">
        <ele>86.180000000000007</ele>
        <time>2025-05-01T11:36:21Z</time>
      </trkpt>
      <trkpt lat="42.995642032474279" lon="-9.188434034585953">
        <ele>86.180000000000007</ele>
        <time>2025-05-01T11:36:22Z</time>
      </trkpt>
      <trkpt lat="42.995674973353744" lon="-9.188261032104492">
        <ele>85.689999999999998</ele>
        <time>2025-05-01T11:36:23Z</time>
      </trkpt>
      <trkpt lat="42.995990971103311" lon="-9.186697974801064">
        <ele>78.480000000000004</ele>
        <time>2025-05-01T11:36:30Z</time>
      </trkpt>
      <trkpt lat="42.996272016316652" lon="-9.185497015714645">
        <ele>75.599999999999994</ele>
        <time>2025-05-01T11:36:37Z</time>
      </trkpt>
      <trkpt lat="42.996239997446537" lon="-9.1853560321033">
        <ele>75.599999999999994</ele>
        <time>2025-05-01T11:36:38Z</time>
      </trkpt>
      <trkpt lat="42.996183000504971" lon="-9.185232985764742">
        <ele>76.079999999999998</ele>
        <time>2025-05-01T11:36:39Z</time>
      </trkpt>
      <trkpt lat="42.99611602909863" lon="-9.185086973011494">
        <ele>76.079999999999998</ele>
        <time>2025-05-01T11:36:40Z</time>
      </trkpt>
      <trkpt lat="42.996044028550386" lon="-9.184929979965091">
        <ele>76.560000000000002</ele>
        <time>2025-05-01T11:36:41Z</time>
      </trkpt>
      <trkpt lat="42.995045995339751" lon="-9.182770969346166">
        <ele>83.769999999999996</ele>
        <time>2025-05-01T11:36:53Z</time>
      </trkpt>
      <trkpt lat="42.994493963196874" lon="-9.181618960574269">
        <ele>94.349999999999994</ele>
        <time>2025-05-01T11:37:00Z</time>
      </trkpt>
      <trkpt lat="42.994450964033604" lon="-9.181529022753239">
        <ele>95.310000000000002</ele>
        <time>2025-05-01T11:37:01Z</time>
      </trkpt>
      <trkpt lat="42.994437972083688" lon="-9.181502033025026">
        <ele>95.790000000000006</ele>
        <time>2025-05-01T11:37:02Z</time>
      </trkpt>
      <trkpt lat="42.994392039254308" lon="-9.181388961151242">
        <ele>99.150000000000006</ele>
        <time>2025-05-01T11:37:10Z</time>
      </trkpt>
      <trkpt lat="42.994374018162489" lon="-9.181342022493482">
        <ele>100.59999999999999</ele>
        <time>2025-05-01T11:37:22Z</time>
      </trkpt>
      <trkpt lat="42.994360020384192" lon="-9.181281002238393">
        <ele>101.08</ele>
        <time>2025-05-01T11:37:23Z</time>
      </trkpt>
      <trkpt lat="42.994415005668998" lon="-9.181239008903503">
        <ele>101.56</ele>
        <time>2025-05-01T11:37:24Z</time>
      </trkpt>
      <trkpt lat="42.9944839887321" lon="-9.181186035275459">
        <ele>101.56</ele>
        <time>2025-05-01T11:37:25Z</time>
      </trkpt>
      <trkpt lat="42.994564035907388" lon="-9.18112400919199">
        <ele>102.04000000000001</ele>
        <time>2025-05-01T11:37:26Z</time>
      </trkpt>
      <trkpt lat="42.995284963399172" lon="-9.180576000362635">
        <ele>102.52</ele>
        <time>2025-05-01T11:37:32Z</time>
      </trkpt>
      <trkpt lat="42.996332030743361" lon="-9.179560029879212">
        <ele>101.56</ele>
        <time>2025-05-01T11:37:39Z</time>
      </trkpt>
      <trkpt lat="42.996662026271224" lon="-9.17931703850627">
        <ele>101.56</ele>
        <time>2025-05-01T11:37:41Z</time>
      </trkpt>
      <trkpt lat="42.996841985732317" lon="-9.17923104017973">
        <ele>101.08</ele>
        <time>2025-05-01T11:37:42Z</time>
      </trkpt>
      <trkpt lat="42.997024962678552" lon="-9.17914898134768">
        <ele>101.08</ele>
        <time>2025-05-01T11:37:43Z</time>
      </trkpt>
      <trkpt lat="42.998237991705537" lon="-9.17865302413702">
        <ele>98.189999999999998</ele>
        <time>2025-05-01T11:37:49Z</time>
      </trkpt>
      <trkpt lat="42.998442007228732" lon="-9.178508017212153">
        <ele>97.709999999999994</ele>
        <time>2025-05-01T11:37:50Z</time>
      </trkpt>
      <trkpt lat="43.000467997044325" lon="-9.177053002640605">
        <ele>97.230000000000004</ele>
        <time>2025-05-01T11:38:00Z</time>
      </trkpt>
      <trkpt lat="43.001867020502687" lon="-9.17631397023797">
        <ele>99.150000000000006</ele>
        <time>2025-05-01T11:38:07Z</time>
      </trkpt>
      <trkpt lat="43.003667034208775" lon="-9.175663031637669">
        <ele>103.48</ele>
        <time>2025-05-01T11:38:16Z</time>
      </trkpt>
      <trkpt lat="43.003866020590067" lon="-9.175584996119142">
        <ele>104.44</ele>
        <time>2025-05-01T11:38:17Z</time>
      </trkpt>
      <trkpt lat="43.004041034728289" lon="-9.175438983365893">
        <ele>104.92</ele>
        <time>2025-05-01T11:38:18Z</time>
      </trkpt>
      <trkpt lat="43.004200961440802" lon="-9.17530101723969">
        <ele>105.40000000000001</ele>
        <time>2025-05-01T11:38:19Z</time>
      </trkpt>
      <trkpt lat="43.004363989457488" lon="-9.175097001716495">
        <ele>105.40000000000001</ele>
        <time>2025-05-01T11:38:20Z</time>
      </trkpt>
      <trkpt lat="43.004512013867497" lon="-9.174898015335202">
        <ele>105.88</ele>
        <time>2025-05-01T11:38:21Z</time>
      </trkpt>
      <trkpt lat="43.004640005528927" lon="-9.174666004255414">
        <ele>106.36</ele>
        <time>2025-05-01T11:38:22Z</time>
      </trkpt>
      <trkpt lat="43.004764979705215" lon="-9.174425024539232">
        <ele>106.84</ele>
        <time>2025-05-01T11:38:23Z</time>
      </trkpt>
      <trkpt lat="43.00488299690187" lon="-9.174170969054103">
        <ele>107.81</ele>
        <time>2025-05-01T11:38:24Z</time>
      </trkpt>
      <trkpt lat="43.004994979128242" lon="-9.173900987952948">
        <ele>108.29000000000001</ele>
        <time>2025-05-01T11:38:25Z</time>
      </trkpt>
      <trkpt lat="43.005361016839743" lon="-9.173119040206075">
        <ele>109.25</ele>
        <time>2025-05-01T11:38:28Z</time>
      </trkpt>
      <trkpt lat="43.005518009886146" lon="-9.172877976670861">
        <ele>109.25</ele>
        <time>2025-05-01T11:38:29Z</time>
      </trkpt>
      <trkpt lat="43.005679026246071" lon="-9.172634985297918">
        <ele>109.25</ele>
        <time>2025-05-01T11:38:30Z</time>
      </trkpt>
      <trkpt lat="43.007027003914118" lon="-9.171273009851575">
        <ele>114.53</ele>
        <time>2025-05-01T11:38:37Z</time>
      </trkpt>
      <trkpt lat="43.007559003308415" lon="-9.170676972717047">
        <ele>117.42</ele>
        <time>2025-05-01T11:38:40Z</time>
      </trkpt>
      <trkpt lat="43.007705016061664" lon="-9.1704479791224">
        <ele>118.38</ele>
        <time>2025-05-01T11:38:41Z</time>
      </trkpt>
      <trkpt lat="43.007832001894712" lon="-9.170191995799542">
        <ele>119.34</ele>
        <time>2025-05-01T11:38:42Z</time>
      </trkpt>
      <trkpt lat="43.008600035682321" lon="-9.16868501342833">
        <ele>123.67</ele>
        <time>2025-05-01T11:38:48Z</time>
      </trkpt>
      <trkpt lat="43.00875099375844" lon="-9.168487032875419">
        <ele>124.63</ele>
        <time>2025-05-01T11:38:49Z</time>
      </trkpt>
      <trkpt lat="43.009492037817836" lon="-9.167507020756602">
        <ele>129.43000000000001</ele>
        <time>2025-05-01T11:38:54Z</time>
      </trkpt>
      <trkpt lat="43.009564960375428" lon="-9.167253971099854">
        <ele>130.40000000000001</ele>
        <time>2025-05-01T11:38:55Z</time>
      </trkpt>
      <trkpt lat="43.009638972580433" lon="-9.166983989998698">
        <ele>131.84</ele>
        <time>2025-05-01T11:38:56Z</time>
      </trkpt>
      <trkpt lat="43.009695969521999" lon="-9.166723983362317">
        <ele>132.80000000000001</ele>
        <time>2025-05-01T11:38:57Z</time>
      </trkpt>
      <trkpt lat="43.009705021977425" lon="-9.166435981169343">
        <ele>133.28</ele>
        <time>2025-05-01T11:38:58Z</time>
      </trkpt>
      <trkpt lat="43.009716002270579" lon="-9.166116965934634">
        <ele>133.75999999999999</ele>
        <time>2025-05-01T11:38:59Z</time>
      </trkpt>
      <trkpt lat="43.009716002270579" lon="-9.165861988440156">
        <ele>134.24000000000001</ele>
        <time>2025-05-01T11:39:00Z</time>
      </trkpt>
      <trkpt lat="43.009637966752052" lon="-9.162407973781228">
        <ele>135.19999999999999</ele>
        <time>2025-05-01T11:39:12Z</time>
      </trkpt>
      <trkpt lat="43.009810969233513" lon="-9.160577030852437">
        <ele>135.19999999999999</ele>
        <time>2025-05-01T11:39:19Z</time>
      </trkpt>
      <trkpt lat="43.01004096865654" lon="-9.159097960218787">
        <ele>136.63999999999999</ele>
        <time>2025-05-01T11:39:26Z</time>
      </trkpt>
      <trkpt lat="43.010521000251174" lon="-9.157585026696324">
        <ele>141.44999999999999</ele>
        <time>2025-05-01T11:39:35Z</time>
      </trkpt>
      <trkpt lat="43.010671958327293" lon="-9.156700987368822">
        <ele>145.78</ele>
        <time>2025-05-01T11:39:40Z</time>
      </trkpt>
      <trkpt lat="43.010681010782719" lon="-9.156517004594207">
        <ele>146.74000000000001</ele>
        <time>2025-05-01T11:39:41Z</time>
      </trkpt>
      <trkpt lat="43.010681010782719" lon="-9.156336961314082">
        <ele>147.22</ele>
        <time>2025-05-01T11:39:42Z</time>
      </trkpt>
      <trkpt lat="43.010665001347661" lon="-9.15615800768137">
        <ele>148.18000000000001</ele>
        <time>2025-05-01T11:39:43Z</time>
      </trkpt>
      <trkpt lat="43.01064002327621" lon="-9.15598601102829">
        <ele>148.66</ele>
        <time>2025-05-01T11:39:44Z</time>
      </trkpt>
      <trkpt lat="43.010611021891236" lon="-9.155809991061688">
        <ele>149.62</ele>
        <time>2025-05-01T11:39:45Z</time>
      </trkpt>
      <trkpt lat="43.010573973879218" lon="-9.155634976923466">
        <ele>150.09999999999999</ele>
        <time>2025-05-01T11:39:46Z</time>
      </trkpt>
      <trkpt lat="43.010093020275235" lon="-9.153633965179324">
        <ele>152.03</ele>
        <time>2025-05-01T11:39:57Z</time>
      </trkpt>
      <trkpt lat="43.010092014446855" lon="-9.152553034946322">
        <ele>149.62</ele>
        <time>2025-05-01T11:40:02Z</time>
      </trkpt>
      <trkpt lat="43.010123027488589" lon="-9.152339966967702">
        <ele>149.62</ele>
        <time>2025-05-01T11:40:03Z</time>
      </trkpt>
      <trkpt lat="43.010173989459872" lon="-9.152126982808113">
        <ele>149.13999999999999</ele>
        <time>2025-05-01T11:40:04Z</time>
      </trkpt>
      <trkpt lat="43.010781006887555" lon="-9.150308026000857">
        <ele>148.18000000000001</ele>
        <time>2025-05-01T11:40:13Z</time>
      </trkpt>
      <trkpt lat="43.01126598380506" lon="-9.148164018988609">
        <ele>151.53999999999999</ele>
        <time>2025-05-01T11:40:23Z</time>
      </trkpt>
      <trkpt lat="43.011352987959981" lon="-9.147963020950556">
        <ele>152.03</ele>
        <time>2025-05-01T11:40:24Z</time>
      </trkpt>
      <trkpt lat="43.011439992114902" lon="-9.147760011255741">
        <ele>152.50999999999999</ele>
        <time>2025-05-01T11:40:25Z</time>
      </trkpt>
      <trkpt lat="43.011549040675163" lon="-9.147572005167604">
        <ele>153.47</ele>
        <time>2025-05-01T11:40:26Z</time>
      </trkpt>
      <trkpt lat="43.011670997366309" lon="-9.147392967715859">
        <ele>153.94999999999999</ele>
        <time>2025-05-01T11:40:27Z</time>
      </trkpt>
      <trkpt lat="43.011805023998022" lon="-9.147232035174966">
        <ele>154.43000000000001</ele>
        <time>2025-05-01T11:40:28Z</time>
      </trkpt>
      <trkpt lat="43.012656960636377" lon="-9.145999979227781">
        <ele>157.31</ele>
        <time>2025-05-01T11:40:35Z</time>
      </trkpt>
      <trkpt lat="43.012737007811666" lon="-9.14578003808856">
        <ele>157.78999999999999</ele>
        <time>2025-05-01T11:40:36Z</time>
      </trkpt>
      <trkpt lat="43.012799033895135" lon="-9.145556995645165">
        <ele>158.27000000000001</ele>
        <time>2025-05-01T11:40:37Z</time>
      </trkpt>
      <trkpt lat="43.012856030836701" lon="-9.145322972908616">
        <ele>158.75</ele>
        <time>2025-05-01T11:40:38Z</time>
      </trkpt>
      <trkpt lat="43.01289701834321" lon="-9.145079981535673">
        <ele>159.24000000000001</ele>
        <time>2025-05-01T11:40:39Z</time>
      </trkpt>
      <trkpt lat="43.012911016121507" lon="-9.144818969070911">
        <ele>160.19999999999999</ele>
        <time>2025-05-01T11:40:40Z</time>
      </trkpt>
      <trkpt lat="43.012926019728184" lon="-9.144544964656234">
        <ele>161.16</ele>
        <time>2025-05-01T11:40:41Z</time>
      </trkpt>
      <trkpt lat="43.012909004464746" lon="-9.144265009090304">
        <ele>161.63999999999999</ele>
        <time>2025-05-01T11:40:42Z</time>
      </trkpt>
      <trkpt lat="43.012856030836701" lon="-9.143983963876963">
        <ele>162.59999999999999</ele>
        <time>2025-05-01T11:40:43Z</time>
      </trkpt>
      <trkpt lat="43.012801967561245" lon="-9.14369503967464">
        <ele>163.56</ele>
        <time>2025-05-01T11:40:44Z</time>
      </trkpt>
      <trkpt lat="43.012551013380289" lon="-9.142175987362862">
        <ele>169.33000000000001</ele>
        <time>2025-05-01T11:40:49Z</time>
      </trkpt>
      <trkpt lat="43.012533998116851" lon="-9.141856972128153">
        <ele>170.77000000000001</ele>
        <time>2025-05-01T11:40:50Z</time>
      </trkpt>
      <trkpt lat="43.012565011158586" lon="-9.141537034884095">
        <ele>172.21000000000001</ele>
        <time>2025-05-01T11:40:51Z</time>
      </trkpt>
      <trkpt lat="43.012602981179953" lon="-9.141220031306148">
        <ele>173.66</ele>
        <time>2025-05-01T11:40:52Z</time>
      </trkpt>
      <trkpt lat="43.01268202252686" lon="-9.140919037163258">
        <ele>175.09999999999999</ele>
        <time>2025-05-01T11:40:53Z</time>
      </trkpt>
      <trkpt lat="43.012769026681781" lon="-9.140623994171619">
        <ele>176.53999999999999</ele>
        <time>2025-05-01T11:40:54Z</time>
      </trkpt>
      <trkpt lat="43.012886038050056" lon="-9.14034596644342">
        <ele>178.46000000000001</ele>
        <time>2025-05-01T11:40:55Z</time>
      </trkpt>
      <trkpt lat="43.013014029711485" lon="-9.140072967857122">
        <ele>179.90000000000001</ele>
        <time>2025-05-01T11:40:56Z</time>
      </trkpt>
      <trkpt lat="43.013169011101127" lon="-9.139826958999038">
        <ele>181.34999999999999</ele>
        <time>2025-05-01T11:40:57Z</time>
      </trkpt>
      <trkpt lat="43.013323992490768" lon="-9.139580028131604">
        <ele>183.27000000000001</ele>
        <time>2025-05-01T11:40:58Z</time>
      </trkpt>
      <trkpt lat="43.013494983315468" lon="-9.139346005395055">
        <ele>184.71000000000001</ele>
        <time>2025-05-01T11:40:59Z</time>
      </trkpt>
      <trkpt lat="43.014065036550164" lon="-9.138317964971066">
        <ele>190</ele>
        <time>2025-05-01T11:41:03Z</time>
      </trkpt>
      <trkpt lat="43.014168972149491" lon="-9.138027029111981">
        <ele>190.96000000000001</ele>
        <time>2025-05-01T11:41:04Z</time>
      </trkpt>
      <trkpt lat="43.014467032626271" lon="-9.1368000023067">
        <ele>194.31999999999999</ele>
        <time>2025-05-01T11:41:08Z</time>
      </trkpt>
      <trkpt lat="43.014661995694041" lon="-9.136213017627597">
        <ele>195.77000000000001</ele>
        <time>2025-05-01T11:41:10Z</time>
      </trkpt>
      <trkpt lat="43.015129035338759" lon="-9.135128986090422">
        <ele>198.65000000000001</ele>
        <time>2025-05-01T11:41:14Z</time>
      </trkpt>
      <trkpt lat="43.015199024230242" lon="-9.134834026917815">
        <ele>199.13</ele>
        <time>2025-05-01T11:41:15Z</time>
      </trkpt>
      <trkpt lat="43.015259960666299" lon="-9.13454401306808">
        <ele>199.61000000000001</ele>
        <time>2025-05-01T11:41:16Z</time>
      </trkpt>
      <trkpt lat="43.015294997021556" lon="-9.13424301892519">
        <ele>200.09</ele>
        <time>2025-05-01T11:41:17Z</time>
      </trkpt>
      <trkpt lat="43.015290973708034" lon="-9.133941018953919">
        <ele>200.56999999999999</ele>
        <time>2025-05-01T11:41:18Z</time>
      </trkpt>
      <trkpt lat="43.015259960666299" lon="-9.133646981790662">
        <ele>201.05000000000001</ele>
        <time>2025-05-01T11:41:19Z</time>
      </trkpt>
      <trkpt lat="43.015220984816551" lon="-9.133347999304533">
        <ele>201.05000000000001</ele>
        <time>2025-05-01T11:41:20Z</time>
      </trkpt>
      <trkpt lat="43.015126017853618" lon="-9.133097967132926">
        <ele>201.05000000000001</ele>
        <time>2025-05-01T11:41:21Z</time>
      </trkpt>
      <trkpt lat="43.015029961243272" lon="-9.13284600712359">
        <ele>200.56999999999999</ele>
        <time>2025-05-01T11:41:22Z</time>
      </trkpt>
      <trkpt lat="43.0149179790169" lon="-9.132612990215421">
        <ele>200.09</ele>
        <time>2025-05-01T11:41:23Z</time>
      </trkpt>
      <trkpt lat="43.014797028154135" lon="-9.132394976913929">
        <ele>200.09</ele>
        <time>2025-05-01T11:41:24Z</time>
      </trkpt>
      <trkpt lat="43.014655038714409" lon="-9.13220202550292">
        <ele>199.13</ele>
        <time>2025-05-01T11:41:25Z</time>
      </trkpt>
      <trkpt lat="43.014512965455651" lon="-9.132019970566034">
        <ele>198.16999999999999</ele>
        <time>2025-05-01T11:41:26Z</time>
      </trkpt>
      <trkpt lat="43.014226974919438" lon="-9.131662985309959">
        <ele>195.77000000000001</ele>
        <time>2025-05-01T11:41:28Z</time>
      </trkpt>
      <trkpt lat="43.014108035713434" lon="-9.131454024463892">
        <ele>194.31999999999999</ele>
        <time>2025-05-01T11:41:29Z</time>
      </trkpt>
      <trkpt lat="43.01399203017354" lon="-9.131231987848878">
        <ele>193.36000000000001</ele>
        <time>2025-05-01T11:41:30Z</time>
      </trkpt>
      <trkpt lat="43.01388499327004" lon="-9.130993019789457">
        <ele>191.91999999999999</ele>
        <time>2025-05-01T11:41:31Z</time>
      </trkpt>
      <trkpt lat="43.013801006600261" lon="-9.130748016759753">
        <ele>190.47999999999999</ele>
        <time>2025-05-01T11:41:32Z</time>
      </trkpt>
      <trkpt lat="43.01373302936554" lon="-9.130489015951753">
        <ele>189.52000000000001</ele>
        <time>2025-05-01T11:41:33Z</time>
      </trkpt>
      <trkpt lat="43.013681983575225" lon="-9.130233032628894">
        <ele>188.08000000000001</ele>
        <time>2025-05-01T11:41:34Z</time>
      </trkpt>
      <trkpt lat="43.013668991625309" lon="-9.129959028214216">
        <ele>187.11000000000001</ele>
        <time>2025-05-01T11:41:35Z</time>
      </trkpt>
      <trkpt lat="43.013672009110451" lon="-9.12968804128468">
        <ele>185.66999999999999</ele>
        <time>2025-05-01T11:41:36Z</time>
      </trkpt>
      <trkpt lat="43.013685001060367" lon="-9.129414036870003">
        <ele>184.71000000000001</ele>
        <time>2025-05-01T11:41:37Z</time>
      </trkpt>
      <trkpt lat="43.013753984123468" lon="-9.129161993041635">
        <ele>182.78999999999999</ele>
        <time>2025-05-01T11:41:38Z</time>
      </trkpt>
      <trkpt lat="43.013825984671712" lon="-9.128909027203918">
        <ele>181.34999999999999</ele>
        <time>2025-05-01T11:41:39Z</time>
      </trkpt>
      <trkpt lat="43.013899996876717" lon="-9.128652038052678">
        <ele>179.90000000000001</ele>
        <time>2025-05-01T11:41:40Z</time>
      </trkpt>
      <trkpt lat="43.014009967446327" lon="-9.128441987559199">
        <ele>177.97999999999999</ele>
        <time>2025-05-01T11:41:41Z</time>
      </trkpt>
      <trkpt lat="43.01412396132946" lon="-9.128232020884752">
        <ele>176.53999999999999</ele>
        <time>2025-05-01T11:41:42Z</time>
      </trkpt>
      <trkpt lat="43.014265028759837" lon="-9.128047032281756">
        <ele>175.09999999999999</ele>
        <time>2025-05-01T11:41:43Z</time>
      </trkpt>
      <trkpt lat="43.014416992664337" lon="-9.127874029800296">
        <ele>173.66</ele>
        <time>2025-05-01T11:41:44Z</time>
      </trkpt>
      <trkpt lat="43.015572018921375" lon="-9.126327987760305">
        <ele>164.03999999999999</ele>
        <time>2025-05-01T11:41:52Z</time>
      </trkpt>
      <trkpt lat="43.015858009457588" lon="-9.125605970621109">
        <ele>164.03999999999999</ele>
        <time>2025-05-01T11:41:55Z</time>
      </trkpt>
      <trkpt lat="43.016414986923337" lon="-9.122910015285015">
        <ele>176.06</ele>
        <time>2025-05-01T11:42:06Z</time>
      </trkpt>
      <trkpt lat="43.016919996589422" lon="-9.120886037126184">
        <ele>189.03999999999999</ele>
        <time>2025-05-01T11:42:14Z</time>
      </trkpt>
      <trkpt lat="43.017046982422471" lon="-9.12064396776259">
        <ele>190.47999999999999</ele>
        <time>2025-05-01T11:42:15Z</time>
      </trkpt>
      <trkpt lat="43.017186960205436" lon="-9.120412040501833">
        <ele>192.40000000000001</ele>
        <time>2025-05-01T11:42:16Z</time>
      </trkpt>
      <trkpt lat="43.017336996272206" lon="-9.120185980573297">
        <ele>193.84</ele>
        <time>2025-05-01T11:42:17Z</time>
      </trkpt>
      <trkpt lat="43.017506981268525" lon="-9.119984982535243">
        <ele>195.28</ele>
        <time>2025-05-01T11:42:18Z</time>
      </trkpt>
      <trkpt lat="43.017700016498566" lon="-9.119813991710544">
        <ele>196.72999999999999</ele>
        <time>2025-05-01T11:42:19Z</time>
      </trkpt>
      <trkpt lat="43.017897997051477" lon="-9.119649035856128">
        <ele>198.16999999999999</ele>
        <time>2025-05-01T11:42:20Z</time>
      </trkpt>
      <trkpt lat="43.018111987039447" lon="-9.11950696259737">
        <ele>200.09</ele>
        <time>2025-05-01T11:42:21Z</time>
      </trkpt>
      <trkpt lat="43.019473040476441" lon="-9.118363000452519">
        <ele>211.15000000000001</ele>
        <time>2025-05-01T11:42:28Z</time>
      </trkpt>
      <trkpt lat="43.019649982452393" lon="-9.118158984929323">
        <ele>212.59</ele>
        <time>2025-05-01T11:42:29Z</time>
      </trkpt>
      <trkpt lat="43.019781997427344" lon="-9.117914987728">
        <ele>213.55000000000001</ele>
        <time>2025-05-01T11:42:30Z</time>
      </trkpt>
      <trkpt lat="43.019916024059057" lon="-9.117662021890283">
        <ele>214.50999999999999</ele>
        <time>2025-05-01T11:42:31Z</time>
      </trkpt>
      <trkpt lat="43.020038986578584" lon="-9.11740000359714">
        <ele>215.47</ele>
        <time>2025-05-01T11:42:32Z</time>
      </trkpt>
      <trkpt lat="43.020134037360549" lon="-9.117110995575786">
        <ele>216.43000000000001</ele>
        <time>2025-05-01T11:42:33Z</time>
      </trkpt>
      <trkpt lat="43.020787993445992" lon="-9.114982997998595">
        <ele>222.68000000000001</ele>
        <time>2025-05-01T11:42:40Z</time>
      </trkpt>
      <trkpt lat="43.020946998149157" lon="-9.114725003018975">
        <ele>223.63999999999999</ele>
        <time>2025-05-01T11:42:41Z</time>
      </trkpt>
      <trkpt lat="43.021100973710418" lon="-9.114472959190607">
        <ele>224.12</ele>
        <time>2025-05-01T11:42:42Z</time>
      </trkpt>
      <trkpt lat="43.02127699367702" lon="-9.114246983081102">
        <ele>225.09</ele>
        <time>2025-05-01T11:42:43Z</time>
      </trkpt>
      <trkpt lat="43.021463993936777" lon="-9.114050008356571">
        <ele>225.09</ele>
        <time>2025-05-01T11:42:44Z</time>
      </trkpt>
      <trkpt lat="43.021672032773495" lon="-9.113895026966929">
        <ele>225.56999999999999</ele>
        <time>2025-05-01T11:42:45Z</time>
      </trkpt>
      <trkpt lat="43.021887028589845" lon="-9.113754965364933">
        <ele>226.05000000000001</ele>
        <time>2025-05-01T11:42:46Z</time>
      </trkpt>
      <trkpt lat="43.022111998870969" lon="-9.113630997017026">
        <ele>226.53</ele>
        <time>2025-05-01T11:42:47Z</time>
      </trkpt>
      <trkpt lat="43.024179982021451" lon="-9.112611003220081">
        <ele>229.41</ele>
        <time>2025-05-01T11:42:56Z</time>
      </trkpt>
      <trkpt lat="43.026292975991964" lon="-9.111613975837827">
        <ele>238.06</ele>
        <time>2025-05-01T11:43:06Z</time>
      </trkpt>
      <trkpt lat="43.026936035603285" lon="-9.111549016088247">
        <ele>237.58000000000001</ele>
        <time>2025-05-01T11:43:09Z</time>
      </trkpt>
      <trkpt lat="43.027154970914125" lon="-9.111568965017796">
        <ele>237.58000000000001</ele>
        <time>2025-05-01T11:43:10Z</time>
      </trkpt>
      <trkpt lat="43.027366027235985" lon="-9.111636020243168">
        <ele>237.09999999999999</ele>
        <time>2025-05-01T11:43:11Z</time>
      </trkpt>
      <trkpt lat="43.027579011395574" lon="-9.111723024398089">
        <ele>236.62</ele>
        <time>2025-05-01T11:43:12Z</time>
      </trkpt>
      <trkpt lat="43.027781015262008" lon="-9.111867025494576">
        <ele>236.13999999999999</ele>
        <time>2025-05-01T11:43:13Z</time>
      </trkpt>
      <trkpt lat="43.028990020975471" lon="-9.11286598071456">
        <ele>230.84999999999999</ele>
        <time>2025-05-01T11:43:19Z</time>
      </trkpt>
      <trkpt lat="43.030248982831836" lon="-9.113758988678455">
        <ele>227.49000000000001</ele>
        <time>2025-05-01T11:43:25Z</time>
      </trkpt>
      <trkpt lat="43.030483005568385" lon="-9.113792013376951">
        <ele>227.00999999999999</ele>
        <time>2025-05-01T11:43:26Z</time>
      </trkpt>
      <trkpt lat="43.030711999163032" lon="-9.113823026418686">
        <ele>227.00999999999999</ele>
        <time>2025-05-01T11:43:27Z</time>
      </trkpt>
      <trkpt lat="43.030938981100917" lon="-9.113781033083797">
        <ele>226.05000000000001</ele>
        <time>2025-05-01T11:43:28Z</time>
      </trkpt>
      <trkpt lat="43.031169986352324" lon="-9.113735016435385">
        <ele>225.56999999999999</ele>
        <time>2025-05-01T11:43:29Z</time>
      </trkpt>
      <trkpt lat="43.031391017138958" lon="-9.11368296481669">
        <ele>225.09</ele>
        <time>2025-05-01T11:43:30Z</time>
      </trkpt>
      <trkpt lat="43.031610958278179" lon="-9.113580035045743">
        <ele>224.61000000000001</ele>
        <time>2025-05-01T11:43:31Z</time>
      </trkpt>
      <trkpt lat="43.031820002943277" lon="-9.113461012020707">
        <ele>224.12</ele>
        <time>2025-05-01T11:43:32Z</time>
      </trkpt>
      <trkpt lat="43.033552961423993" lon="-9.112353008240461">
        <ele>220.28</ele>
        <time>2025-05-01T11:43:41Z</time>
      </trkpt>
      <trkpt lat="43.035741979256272" lon="-9.11097502335906">
        <ele>214.03</ele>
        <time>2025-05-01T11:43:52Z</time>
      </trkpt>
      <trkpt lat="43.037365972995758" lon="-9.110301034525037">
        <ele>208.25999999999999</ele>
        <time>2025-05-01T11:43:59Z</time>
      </trkpt>
      <trkpt lat="43.040264016017318" lon="-9.109425041824579">
        <ele>199.61000000000001</ele>
        <time>2025-05-01T11:44:11Z</time>
      </trkpt>
      <trkpt lat="43.041474027559161" lon="-9.108466990292072">
        <ele>196.72999999999999</ele>
        <time>2025-05-01T11:44:17Z</time>
      </trkpt>
      <trkpt lat="43.043002970516682" lon="-9.107038965448737">
        <ele>191.91999999999999</ele>
        <time>2025-05-01T11:44:26Z</time>
      </trkpt>
      <trkpt lat="43.044328987598419" lon="-9.106366988271475">
        <ele>188.08000000000001</ele>
        <time>2025-05-01T11:44:33Z</time>
      </trkpt>
      <trkpt lat="43.04512501694262" lon="-9.106059037148953">
        <ele>186.15000000000001</ele>
        <time>2025-05-01T11:44:37Z</time>
      </trkpt>
      <trkpt lat="43.045307993888855" lon="-9.105921993032098">
        <ele>185.66999999999999</ele>
        <time>2025-05-01T11:44:38Z</time>
      </trkpt>
      <trkpt lat="43.045477978885174" lon="-9.105784026905894">
        <ele>185.19</ele>
        <time>2025-05-01T11:44:39Z</time>
      </trkpt>
      <trkpt lat="43.045638995245099" lon="-9.105618987232447">
        <ele>185.19</ele>
        <time>2025-05-01T11:44:40Z</time>
      </trkpt>
      <trkpt lat="43.045800011605024" lon="-9.10545302554965">
        <ele>184.71000000000001</ele>
        <time>2025-05-01T11:44:41Z</time>
      </trkpt>
      <trkpt lat="43.047331972047687" lon="-9.103684024885297">
        <ele>184.22999999999999</ele>
        <time>2025-05-01T11:44:51Z</time>
      </trkpt>
      <trkpt lat="43.048744993284345" lon="-9.101787032559514">
        <ele>189.52000000000001</ele>
        <time>2025-05-01T11:45:00Z</time>
      </trkpt>
      <trkpt lat="43.050206964835525" lon="-9.099196018651128">
        <ele>203.94</ele>
        <time>2025-05-01T11:45:11Z</time>
      </trkpt>
      <trkpt lat="43.051199968904257" lon="-9.098014002665877">
        <ele>214.03</ele>
        <time>2025-05-01T11:45:17Z</time>
      </trkpt>
      <trkpt lat="43.05292597040534" lon="-9.096930976957083">
        <ele>222.19999999999999</ele>
        <time>2025-05-01T11:45:25Z</time>
      </trkpt>
      <trkpt lat="43.053892990574241" lon="-9.096233015879989">
        <ele>227.00999999999999</ele>
        <time>2025-05-01T11:45:30Z</time>
      </trkpt>
      <trkpt lat="43.054065993055701" lon="-9.096061019226909">
        <ele>227.97</ele>
        <time>2025-05-01T11:45:31Z</time>
      </trkpt>
      <trkpt lat="43.054214017465711" lon="-9.095847029238939">
        <ele>228.93000000000001</ele>
        <time>2025-05-01T11:45:32Z</time>
      </trkpt>
      <trkpt lat="43.054351983591914" lon="-9.095617029815912">
        <ele>229.41</ele>
        <time>2025-05-01T11:45:33Z</time>
      </trkpt>
      <trkpt lat="43.054461032152176" lon="-9.095357023179531">
        <ele>229.88999999999999</ele>
        <time>2025-05-01T11:45:34Z</time>
      </trkpt>
      <trkpt lat="43.054573014378548" lon="-9.095089975744486">
        <ele>230.37</ele>
        <time>2025-05-01T11:45:35Z</time>
      </trkpt>
      <trkpt lat="43.054677033796906" lon="-9.094805996865034">
        <ele>230.84999999999999</ele>
        <time>2025-05-01T11:45:36Z</time>
      </trkpt>
      <trkpt lat="43.05569501593709" lon="-9.091619029641151">
        <ele>236.62</ele>
        <time>2025-05-01T11:45:47Z</time>
      </trkpt>
      <trkpt lat="43.056457014754415" lon="-9.088617973029614">
        <ele>235.18000000000001</ele>
        <time>2025-05-01T11:45:58Z</time>
      </trkpt>
      <trkpt lat="43.056803019717336" lon="-9.087393041700125">
        <ele>233.74000000000001</ele>
        <time>2025-05-01T11:46:04Z</time>
      </trkpt>
      <trkpt lat="43.05750198662281" lon="-9.086466003209353">
        <ele>231.33000000000001</ele>
        <time>2025-05-01T11:46:12Z</time>
      </trkpt>
      <trkpt lat="43.0583590362221" lon="-9.085920006036758">
        <ele>229.41</ele>
        <time>2025-05-01T11:46:20Z</time>
      </trkpt>
      <trkpt lat="43.058443022891879" lon="-9.08577399328351">
        <ele>228.93000000000001</ele>
        <time>2025-05-01T11:46:21Z</time>
      </trkpt>
      <trkpt lat="43.058462971821427" lon="-9.085656981915236">
        <ele>228.93000000000001</ele>
        <time>2025-05-01T11:46:22Z</time>
      </trkpt>
      <trkpt lat="43.058458026498556" lon="-9.085537036880851">
        <ele>228.44999999999999</ele>
        <time>2025-05-01T11:46:23Z</time>
      </trkpt>
      <trkpt lat="43.05844503454864" lon="-9.08540896140039">
        <ele>228.44999999999999</ele>
        <time>2025-05-01T11:46:24Z</time>
      </trkpt>
      <trkpt lat="43.05842399597168" lon="-9.085200000554323">
        <ele>228.44999999999999</ele>
        <time>2025-05-01T11:46:25Z</time>
      </trkpt>
      <trkpt lat="43.058364987373352" lon="-9.08512800000608">
        <ele>228.44999999999999</ele>
        <time>2025-05-01T11:46:26Z</time>
      </trkpt>
      <trkpt lat="43.058270020410419" lon="-9.085010988637805">
        <ele>228.44999999999999</ele>
        <time>2025-05-01T11:46:27Z</time>
      </trkpt>
      <trkpt lat="43.058150997385383" lon="-9.084900012239814">
        <ele>228.44999999999999</ele>
        <time>2025-05-01T11:46:28Z</time>
      </trkpt>
      <trkpt lat="43.056993959471583" lon="-9.083828972652555">
        <ele>226.05000000000001</ele>
        <time>2025-05-01T11:46:36Z</time>
      </trkpt>
      <trkpt lat="43.05681299418211" lon="-9.083707015961409">
        <ele>225.09</ele>
        <time>2025-05-01T11:46:37Z</time>
      </trkpt>
      <trkpt lat="43.055181037634611" lon="-9.082837980240583">
        <ele>221.24000000000001</ele>
        <time>2025-05-01T11:46:46Z</time>
      </trkpt>
      <trkpt lat="43.054999988526106" lon="-9.082796992734075">
        <ele>221.72</ele>
        <time>2025-05-01T11:46:47Z</time>
      </trkpt>
      <trkpt lat="43.054809970781207" lon="-9.082796992734075">
        <ele>222.19999999999999</ele>
        <time>2025-05-01T11:46:48Z</time>
      </trkpt>
      <trkpt lat="43.053834987804294" lon="-9.08274301327765">
        <ele>228.93000000000001</ele>
        <time>2025-05-01T11:46:53Z</time>
      </trkpt>
      <trkpt lat="43.053641030564904" lon="-9.082670006901026">
        <ele>230.37</ele>
        <time>2025-05-01T11:46:54Z</time>
      </trkpt>
      <trkpt lat="43.053451012820005" lon="-9.082590965554118">
        <ele>231.33000000000001</ele>
        <time>2025-05-01T11:46:55Z</time>
      </trkpt>
      <trkpt lat="43.053271975368261" lon="-9.082457022741437">
        <ele>232.78</ele>
        <time>2025-05-01T11:46:56Z</time>
      </trkpt>
      <trkpt lat="43.053098972886801" lon="-9.082312015816569">
        <ele>233.74000000000001</ele>
        <time>2025-05-01T11:46:57Z</time>
      </trkpt>
      <trkpt lat="43.052950026467443" lon="-9.082114035263658">
        <ele>235.66</ele>
        <time>2025-05-01T11:46:58Z</time>
      </trkpt>
      <trkpt lat="43.052798984572291" lon="-9.081912031397224">
        <ele>236.62</ele>
        <time>2025-05-01T11:46:59Z</time>
      </trkpt>
      <trkpt lat="43.05238600820303" lon="-9.081284981220961">
        <ele>240.47</ele>
        <time>2025-05-01T11:47:02Z</time>
      </trkpt>
      <trkpt lat="43.052275031805038" lon="-9.081050958484411">
        <ele>241.91</ele>
        <time>2025-05-01T11:47:03Z</time>
      </trkpt>
      <trkpt lat="43.052184004336596" lon="-9.080800004303455">
        <ele>243.34999999999999</ele>
        <time>2025-05-01T11:47:04Z</time>
      </trkpt>
      <trkpt lat="43.052102029323578" lon="-9.080538991838694">
        <ele>244.31</ele>
        <time>2025-05-01T11:47:05Z</time>
      </trkpt>
      <trkpt lat="43.052041009068489" lon="-9.080264987424016">
        <ele>245.27000000000001</ele>
        <time>2025-05-01T11:47:06Z</time>
      </trkpt>
      <trkpt lat="43.052006978541613" lon="-9.079982014372945">
        <ele>246.72</ele>
        <time>2025-05-01T11:47:07Z</time>
      </trkpt>
      <trkpt lat="43.051707996055484" lon="-9.077689982950687">
        <ele>255.84999999999999</ele>
        <time>2025-05-01T11:47:15Z</time>
      </trkpt>
      <trkpt lat="43.05161202326417" lon="-9.077425030991435">
        <ele>256.81</ele>
        <time>2025-05-01T11:47:16Z</time>
      </trkpt>
      <trkpt lat="43.051519989967346" lon="-9.077171981334686">
        <ele>257.76999999999998</ele>
        <time>2025-05-01T11:47:17Z</time>
      </trkpt>
      <trkpt lat="43.051415970548987" lon="-9.076927984133363">
        <ele>258.73000000000002</ele>
        <time>2025-05-01T11:47:18Z</time>
      </trkpt>
      <trkpt lat="43.051280016079545" lon="-9.076717011630535">
        <ele>259.20999999999998</ele>
        <time>2025-05-01T11:47:19Z</time>
      </trkpt>
      <trkpt lat="43.051111036911607" lon="-9.07655599527061">
        <ele>260.17000000000002</ele>
        <time>2025-05-01T11:47:20Z</time>
      </trkpt>
      <trkpt lat="43.050943985581398" lon="-9.076411994174123">
        <ele>261.13999999999999</ele>
        <time>2025-05-01T11:47:21Z</time>
      </trkpt>
      <trkpt lat="43.05077601224184" lon="-9.076267993077636">
        <ele>262.10000000000002</ele>
        <time>2025-05-01T11:47:22Z</time>
      </trkpt>
      <trkpt lat="43.049015980213881" lon="-9.075034009292722">
        <ele>275.56</ele>
        <time>2025-05-01T11:47:32Z</time>
      </trkpt>
      <trkpt lat="43.047537999227643" lon="-9.074222976341844">
        <ele>287.08999999999997</ele>
        <time>2025-05-01T11:47:39Z</time>
      </trkpt>
      <trkpt lat="43.04639495909214" lon="-9.073885018005967">
        <ele>295.25999999999999</ele>
        <time>2025-05-01T11:47:44Z</time>
      </trkpt>
      <trkpt lat="43.046174012124538" lon="-9.073759960010648">
        <ele>296.69999999999999</ele>
        <time>2025-05-01T11:47:45Z</time>
      </trkpt>
      <trkpt lat="43.045965973287821" lon="-9.073607996106148">
        <ele>298.14999999999998</ele>
        <time>2025-05-01T11:47:46Z</time>
      </trkpt>
      <trkpt lat="43.045766986906528" lon="-9.073427030816674">
        <ele>299.58999999999997</ele>
        <time>2025-05-01T11:47:47Z</time>
      </trkpt>
      <trkpt lat="43.045570012181997" lon="-9.07324698753655">
        <ele>300.55000000000001</ele>
        <time>2025-05-01T11:47:48Z</time>
      </trkpt>
      <trkpt lat="43.045388041064143" lon="-9.07303299754858">
        <ele>301.99000000000001</ele>
        <time>2025-05-01T11:47:49Z</time>
      </trkpt>
      <trkpt lat="43.045204980298877" lon="-9.07281800173223">
        <ele>302.94999999999999</ele>
        <time>2025-05-01T11:47:50Z</time>
      </trkpt>
      <trkpt lat="43.043972002342343" lon="-9.071321999654174">
        <ele>310.16000000000003</ele>
        <time>2025-05-01T11:47:57Z</time>
      </trkpt>
      <trkpt lat="43.043766980990767" lon="-9.071185039356351">
        <ele>311.12</ele>
        <time>2025-05-01T11:47:58Z</time>
      </trkpt>
      <trkpt lat="43.041893960908055" lon="-9.070170996710658">
        <ele>315.44999999999999</ele>
        <time>2025-05-01T11:48:07Z</time>
      </trkpt>
      <trkpt lat="43.040533997118473" lon="-9.069447973743081">
        <ele>315.93000000000001</ele>
        <time>2025-05-01T11:48:15Z</time>
      </trkpt>
      <trkpt lat="43.038730965927243" lon="-9.068291019648314">
        <ele>319.30000000000001</ele>
        <time>2025-05-01T11:48:27Z</time>
      </trkpt>
      <trkpt lat="43.038403987884521" lon="-9.068062026053667">
        <ele>320.74000000000001</ele>
        <time>2025-05-01T11:48:29Z</time>
      </trkpt>
      <trkpt lat="43.0382289737463" lon="-9.067957000806928">
        <ele>321.22000000000003</ele>
        <time>2025-05-01T11:48:30Z</time>
      </trkpt>
      <trkpt lat="43.038040967658162" lon="-9.067874019965529">
        <ele>322.18000000000001</ele>
        <time>2025-05-01T11:48:31Z</time>
      </trkpt>
      <trkpt lat="43.036732971668243" lon="-9.066966008394957">
        <ele>327.94999999999999</ele>
        <time>2025-05-01T11:48:38Z</time>
      </trkpt>
      <trkpt lat="43.036453016102314" lon="-9.066538028419018">
        <ele>330.35000000000002</ele>
        <time>2025-05-01T11:48:40Z</time>
      </trkpt>
      <trkpt lat="43.03534802980721" lon="-9.064516983926296">
        <ele>344.76999999999998</ele>
        <time>2025-05-01T11:48:49Z</time>
      </trkpt>
      <trkpt lat="43.034459967166185" lon="-9.062686040997505">
        <ele>356.31</ele>
        <time>2025-05-01T11:48:57Z</time>
      </trkpt>
      <trkpt lat="43.034012960270047" lon="-9.060740014538169">
        <ele>365.44</ele>
        <time>2025-05-01T11:49:04Z</time>
      </trkpt>
      <trkpt lat="43.033595038577914" lon="-9.057740969583392">
        <ele>381.77999999999997</ele>
        <time>2025-05-01T11:49:14Z</time>
      </trkpt>
      <trkpt lat="43.03350199945271" lon="-9.056561971083283">
        <ele>387.55000000000001</ele>
        <time>2025-05-01T11:49:18Z</time>
      </trkpt>
      <trkpt lat="43.033527983352542" lon="-9.056272963061929">
        <ele>389.47000000000003</ele>
        <time>2025-05-01T11:49:19Z</time>
      </trkpt>
      <trkpt lat="43.033553967252374" lon="-9.055982027202845">
        <ele>390.91000000000003</ele>
        <time>2025-05-01T11:49:20Z</time>
      </trkpt>
      <trkpt lat="43.033640971407294" lon="-9.054801017045975">
        <ele>397.16000000000003</ele>
        <time>2025-05-01T11:49:24Z</time>
      </trkpt>
      <trkpt lat="43.033619010820985" lon="-9.054499017074704">
        <ele>398.60000000000002</ele>
        <time>2025-05-01T11:49:25Z</time>
      </trkpt>
      <trkpt lat="43.033597972244024" lon="-9.054215038195252">
        <ele>400.05000000000001</ele>
        <time>2025-05-01T11:49:26Z</time>
      </trkpt>
      <trkpt lat="43.033541981130838" lon="-9.053895017132163">
        <ele>401.49000000000001</ele>
        <time>2025-05-01T11:49:27Z</time>
      </trkpt>
      <trkpt lat="43.033489007502794" lon="-9.053584970533848">
        <ele>402.93000000000001</ele>
        <time>2025-05-01T11:49:28Z</time>
      </trkpt>
      <trkpt lat="43.033211985602975" lon="-9.050797987729311">
        <ele>415.43000000000001</ele>
        <time>2025-05-01T11:49:37Z</time>
      </trkpt>
      <trkpt lat="43.033337965607643" lon="-9.049582025036216">
        <ele>418.79000000000002</ele>
        <time>2025-05-01T11:49:41Z</time>
      </trkpt>
      <trkpt lat="43.033409966155887" lon="-9.049284970387816">
        <ele>418.79000000000002</ele>
        <time>2025-05-01T11:49:42Z</time>
      </trkpt>
      <trkpt lat="43.033492024987936" lon="-9.048999985679984">
        <ele>418.31</ele>
        <time>2025-05-01T11:49:43Z</time>
      </trkpt>
      <trkpt lat="43.033624961972237" lon="-9.048745008185506">
        <ele>418.31</ele>
        <time>2025-05-01T11:49:44Z</time>
      </trkpt>
      <trkpt lat="43.033748008310795" lon="-9.048506962135434">
        <ele>417.35000000000002</ele>
        <time>2025-05-01T11:49:45Z</time>
      </trkpt>
      <trkpt lat="43.033940037712455" lon="-9.048294983804226">
        <ele>416.38999999999999</ele>
        <time>2025-05-01T11:49:46Z</time>
      </trkpt>
      <trkpt lat="43.034131983295083" lon="-9.048102032393217">
        <ele>415.43000000000001</ele>
        <time>2025-05-01T11:49:47Z</time>
      </trkpt>
      <trkpt lat="43.034333987161517" lon="-9.04791695997119">
        <ele>413.98000000000002</ele>
        <time>2025-05-01T11:49:48Z</time>
      </trkpt>
      <trkpt lat="43.034532973542809" lon="-9.047738006338477">
        <ele>412.54000000000002</ele>
        <time>2025-05-01T11:49:49Z</time>
      </trkpt>
      <trkpt lat="43.035252979025245" lon="-9.046921022236347">
        <ele>406.29000000000002</ele>
        <time>2025-05-01T11:49:53Z</time>
      </trkpt>
      <trkpt lat="43.035418018698692" lon="-9.046677025035024">
        <ele>404.37</ele>
        <time>2025-05-01T11:49:54Z</time>
      </trkpt>
      <trkpt lat="43.035556990653276" lon="-9.046391034498811">
        <ele>402.44999999999999</ele>
        <time>2025-05-01T11:49:55Z</time>
      </trkpt>
      <trkpt lat="43.035674002021551" lon="-9.04608802869916">
        <ele>400.52999999999997</ele>
        <time>2025-05-01T11:49:56Z</time>
      </trkpt>
      <trkpt lat="43.035789001733065" lon="-9.045788962393999">
        <ele>398.12</ele>
        <time>2025-05-01T11:49:57Z</time>
      </trkpt>
      <trkpt lat="43.035870976746082" lon="-9.045470030978322">
        <ele>395.72000000000003</ele>
        <time>2025-05-01T11:49:58Z</time>
      </trkpt>
      <trkpt lat="43.035924034193158" lon="-9.045134000480175">
        <ele>392.83999999999997</ele>
        <time>2025-05-01T11:49:59Z</time>
      </trkpt>
      <trkpt lat="43.035956975072622" lon="-9.044790007174015">
        <ele>389.94999999999999</ele>
        <time>2025-05-01T11:50:00Z</time>
      </trkpt>
      <trkpt lat="43.035988993942738" lon="-9.044448025524616">
        <ele>387.55000000000001</ele>
        <time>2025-05-01T11:50:01Z</time>
      </trkpt>
      <trkpt lat="43.035986982285976" lon="-9.044102020561695">
        <ele>384.66000000000003</ele>
        <time>2025-05-01T11:50:02Z</time>
      </trkpt>
      <trkpt lat="43.035963010042906" lon="-9.043755009770393">
        <ele>382.25999999999999</ele>
        <time>2025-05-01T11:50:03Z</time>
      </trkpt>
      <trkpt lat="43.035927973687649" lon="-9.043406993150711">
        <ele>379.86000000000001</ele>
        <time>2025-05-01T11:50:04Z</time>
      </trkpt>
      <trkpt lat="43.035291032865644" lon="-9.039672017097473">
        <ele>354.38</ele>
        <time>2025-05-01T11:50:15Z</time>
      </trkpt>
      <trkpt lat="43.034750986844301" lon="-9.036365021020174">
        <ele>343.81</ele>
        <time>2025-05-01T11:50:25Z</time>
      </trkpt>
      <trkpt lat="43.034137012436986" lon="-9.032916035503149">
        <ele>340.44</ele>
        <time>2025-05-01T11:50:36Z</time>
      </trkpt>
      <trkpt lat="43.034069035202265" lon="-9.032637001946569">
        <ele>340.44</ele>
        <time>2025-05-01T11:50:37Z</time>
      </trkpt>
      <trkpt lat="43.033966021612287" lon="-9.032379006966949">
        <ele>340.44</ele>
        <time>2025-05-01T11:50:38Z</time>
      </trkpt>
      <trkpt lat="43.03382596001029" lon="-9.032144984230399">
        <ele>339.95999999999998</ele>
        <time>2025-05-01T11:50:39Z</time>
      </trkpt>
      <trkpt lat="43.033667961135507" lon="-9.031944992020726">
        <ele>339.95999999999998</ele>
        <time>2025-05-01T11:50:40Z</time>
      </trkpt>
      <trkpt lat="43.033506022766232" lon="-9.031741982325912">
        <ele>339.95999999999998</ele>
        <time>2025-05-01T11:50:41Z</time>
      </trkpt>
      <trkpt lat="43.032736983150244" lon="-9.030841011554003">
        <ele>338.04000000000002</ele>
        <time>2025-05-01T11:50:46Z</time>
      </trkpt>
      <trkpt lat="43.032614020630717" lon="-9.030645964667201">
        <ele>337.07999999999998</ele>
        <time>2025-05-01T11:50:47Z</time>
      </trkpt>
      <trkpt lat="43.032527016475797" lon="-9.030409008264542">
        <ele>336.60000000000002</ele>
        <time>2025-05-01T11:50:48Z</time>
      </trkpt>
      <trkpt lat="43.032446969300508" lon="-9.030175991356373">
        <ele>335.63999999999999</ele>
        <time>2025-05-01T11:50:49Z</time>
      </trkpt>
      <trkpt lat="43.032379997894168" lon="-9.029935011640191">
        <ele>334.19999999999999</ele>
        <time>2025-05-01T11:50:50Z</time>
      </trkpt>
      <trkpt lat="43.032327024266124" lon="-9.029692020267248">
        <ele>333.23000000000002</ele>
        <time>2025-05-01T11:50:51Z</time>
      </trkpt>
      <trkpt lat="43.03210599347949" lon="-9.028748972341418">
        <ele>328.43000000000001</ele>
        <time>2025-05-01T11:50:55Z</time>
      </trkpt>
      <trkpt lat="43.032017983496189" lon="-9.028528025373817">
        <ele>326.99000000000001</ele>
        <time>2025-05-01T11:50:56Z</time>
      </trkpt>
      <trkpt lat="43.031898960471153" lon="-9.028324009850621">
        <ele>325.54000000000002</ele>
        <time>2025-05-01T11:50:57Z</time>
      </trkpt>
      <trkpt lat="43.031772980466485" lon="-9.028125023469329">
        <ele>324.10000000000002</ele>
        <time>2025-05-01T11:50:58Z</time>
      </trkpt>
      <trkpt lat="43.031626967713237" lon="-9.027942968532443">
        <ele>322.66000000000003</ele>
        <time>2025-05-01T11:50:59Z</time>
      </trkpt>
      <trkpt lat="43.031471986323595" lon="-9.027777006849647">
        <ele>321.22000000000003</ele>
        <time>2025-05-01T11:51:00Z</time>
      </trkpt>
      <trkpt lat="43.030376974493265" lon="-9.026547968387604">
        <ele>311.60000000000002</ele>
        <time>2025-05-01T11:51:07Z</time>
      </trkpt>
      <trkpt lat="43.030245965346694" lon="-9.026338001713157">
        <ele>310.63999999999999</ele>
        <time>2025-05-01T11:51:08Z</time>
      </trkpt>
      <trkpt lat="43.030148986726999" lon="-9.026102973148227">
        <ele>309.19999999999999</ele>
        <time>2025-05-01T11:51:09Z</time>
      </trkpt>
      <trkpt lat="43.030070029199123" lon="-9.025854030624032">
        <ele>308.24000000000001</ele>
        <time>2025-05-01T11:51:10Z</time>
      </trkpt>
      <trkpt lat="43.030012026429176" lon="-9.025605004280806">
        <ele>306.80000000000001</ele>
        <time>2025-05-01T11:51:11Z</time>
      </trkpt>
      <trkpt lat="43.029987970367074" lon="-9.025366036221385">
        <ele>305.36000000000001</ele>
        <time>2025-05-01T11:51:12Z</time>
      </trkpt>
      <trkpt lat="43.029980007559061" lon="-9.025135030969977">
        <ele>304.88</ele>
        <time>2025-05-01T11:51:13Z</time>
      </trkpt>
      <trkpt lat="43.029971960932016" lon="-9.02490402571857">
        <ele>303.43000000000001</ele>
        <time>2025-05-01T11:51:14Z</time>
      </trkpt>
      <trkpt lat="43.029971960932016" lon="-9.024667991325259">
        <ele>302.47000000000003</ele>
        <time>2025-05-01T11:51:15Z</time>
      </trkpt>
      <trkpt lat="43.029990987852216" lon="-9.024492977187038">
        <ele>301.50999999999999</ele>
        <time>2025-05-01T11:51:16Z</time>
      </trkpt>
      <trkpt lat="43.030224004760385" lon="-9.023008961230516">
        <ele>298.63</ele>
        <time>2025-05-01T11:51:25Z</time>
      </trkpt>
      <trkpt lat="43.030231967568398" lon="-9.022190971300006">
        <ele>299.11000000000001</ele>
        <time>2025-05-01T11:51:30Z</time>
      </trkpt>
      <trkpt lat="43.030206989496946" lon="-9.022029032930732">
        <ele>299.11000000000001</ele>
        <time>2025-05-01T11:51:31Z</time>
      </trkpt>
      <trkpt lat="43.030126020312309" lon="-9.021718986332417">
        <ele>300.06999999999999</ele>
        <time>2025-05-01T11:51:33Z</time>
      </trkpt>
      <trkpt lat="43.029571976512671" lon="-9.02043404057622">
        <ele>304.88</ele>
        <time>2025-05-01T11:51:42Z</time>
      </trkpt>
      <trkpt lat="43.029508022591472" lon="-9.020295990630984">
        <ele>305.36000000000001</ele>
        <time>2025-05-01T11:51:43Z</time>
      </trkpt>
      <trkpt lat="43.028821963816881" lon="-9.01876101270318">
        <ele>311.12</ele>
        <time>2025-05-01T11:51:54Z</time>
      </trkpt>
      <trkpt lat="43.028791034594178" lon="-9.018402015790343">
        <ele>312.56999999999999</ele>
        <time>2025-05-01T11:51:56Z</time>
      </trkpt>
      <trkpt lat="43.028791034594178" lon="-9.018262960016727">
        <ele>313.05000000000001</ele>
        <time>2025-05-01T11:51:57Z</time>
      </trkpt>
      <trkpt lat="43.028668994084001" lon="-9.016652964055538">
        <ele>317.85000000000002</ele>
        <time>2025-05-01T11:52:07Z</time>
      </trkpt>
      <trkpt lat="43.028507977724075" lon="-9.01553800329566">
        <ele>317.85000000000002</ele>
        <time>2025-05-01T11:52:15Z</time>
      </trkpt>
      <trkpt lat="43.028493979945779" lon="-9.01538603939116">
        <ele>317.85000000000002</ele>
        <time>2025-05-01T11:52:16Z</time>
      </trkpt>
      <trkpt lat="43.028507977724075" lon="-9.015219993889332">
        <ele>318.32999999999998</ele>
        <time>2025-05-01T11:52:17Z</time>
      </trkpt>
      <trkpt lat="43.028542008250952" lon="-9.015058977529407">
        <ele>318.32999999999998</ele>
        <time>2025-05-01T11:52:18Z</time>
      </trkpt>
      <trkpt lat="43.028580984100699" lon="-9.014894021674991">
        <ele>318.81</ele>
        <time>2025-05-01T11:52:19Z</time>
      </trkpt>
      <trkpt lat="43.028622977435589" lon="-9.014722025021911">
        <ele>319.30000000000001</ele>
        <time>2025-05-01T11:52:20Z</time>
      </trkpt>
      <trkpt lat="43.029171992093325" lon="-9.012769041582942">
        <ele>320.25999999999999</ele>
        <time>2025-05-01T11:52:31Z</time>
      </trkpt>
      <trkpt lat="43.029524032026529" lon="-9.011487029492855">
        <ele>318.81</ele>
        <time>2025-05-01T11:52:39Z</time>
      </trkpt>
      <trkpt lat="43.029541969299316" lon="-9.011300029233098">
        <ele>318.32999999999998</ele>
        <time>2025-05-01T11:52:40Z</time>
      </trkpt>
      <trkpt lat="43.029541969299316" lon="-9.011082015931606">
        <ele>317.85000000000002</ele>
        <time>2025-05-01T11:52:41Z</time>
      </trkpt>
      <trkpt lat="43.029541969299316" lon="-9.010864002630115">
        <ele>317.37</ele>
        <time>2025-05-01T11:52:42Z</time>
      </trkpt>
      <trkpt lat="43.029528977349401" lon="-9.010634003207088">
        <ele>316.88999999999999</ele>
        <time>2025-05-01T11:52:43Z</time>
      </trkpt>
      <trkpt lat="43.029480027034879" lon="-9.010395035147667">
        <ele>316.41000000000003</ele>
        <time>2025-05-01T11:52:44Z</time>
      </trkpt>
      <trkpt lat="43.029428981244564" lon="-9.01014500297606">
        <ele>315.44999999999999</ele>
        <time>2025-05-01T11:52:45Z</time>
      </trkpt>
      <trkpt lat="43.028831016272306" lon="-9.007289037108421">
        <ele>309.19999999999999</ele>
        <time>2025-05-01T11:52:55Z</time>
      </trkpt>
      <trkpt lat="43.027990981936455" lon="-9.003363037481904">
        <ele>307.75999999999999</ele>
        <time>2025-05-01T11:53:07Z</time>
      </trkpt>
      <trkpt lat="43.027127981185913" lon="-8.999418010935187">
        <ele>304.88</ele>
        <time>2025-05-01T11:53:18Z</time>
      </trkpt>
      <trkpt lat="43.026404036208987" lon="-8.99605100043118">
        <ele>308.72000000000003</ele>
        <time>2025-05-01T11:53:28Z</time>
      </trkpt>
      <trkpt lat="43.025593003258109" lon="-8.992322981357575">
        <ele>311.12</ele>
        <time>2025-05-01T11:53:40Z</time>
      </trkpt>
      <trkpt lat="43.02497299388051" lon="-8.989255959168077">
        <ele>305.83999999999997</ele>
        <time>2025-05-01T11:53:50Z</time>
      </trkpt>
      <trkpt lat="43.02443403750658" lon="-8.985145976766944">
        <ele>302.47000000000003</ele>
        <time>2025-05-01T11:54:03Z</time>
      </trkpt>
      <trkpt lat="43.023970015347004" lon="-8.982608020305634">
        <ele>300.55000000000001</ele>
        <time>2025-05-01T11:54:11Z</time>
      </trkpt>
      <trkpt lat="43.023142972961068" lon="-8.980959970504046">
        <ele>299.11000000000001</ele>
        <time>2025-05-01T11:54:17Z</time>
      </trkpt>
      <trkpt lat="43.021404985338449" lon="-8.97830399684608">
        <ele>300.06999999999999</ele>
        <time>2025-05-01T11:54:28Z</time>
      </trkpt>
      <trkpt lat="43.020022977143526" lon="-8.975627990439534">
        <ele>303.43000000000001</ele>
        <time>2025-05-01T11:54:38Z</time>
      </trkpt>
      <trkpt lat="43.018984962254763" lon="-8.973502004519105">
        <ele>309.68000000000001</ele>
        <time>2025-05-01T11:54:46Z</time>
      </trkpt>
      <trkpt lat="43.017464987933636" lon="-8.970362981781364">
        <ele>314.49000000000001</ele>
        <time>2025-05-01T11:54:58Z</time>
      </trkpt>
      <trkpt lat="43.016103012487292" lon="-8.96758203394711">
        <ele>316.88999999999999</ele>
        <time>2025-05-01T11:55:08Z</time>
      </trkpt>
      <trkpt lat="43.014860982075334" lon="-8.96502798423171">
        <ele>318.81</ele>
        <time>2025-05-01T11:55:17Z</time>
      </trkpt>
      <trkpt lat="43.014126978814602" lon="-8.962900992482901">
        <ele>323.13999999999999</ele>
        <time>2025-05-01T11:55:24Z</time>
      </trkpt>
      <trkpt lat="43.01351803354919" lon="-8.960092971101403">
        <ele>325.06</ele>
        <time>2025-05-01T11:55:33Z</time>
      </trkpt>
      <trkpt lat="43.013042025268078" lon="-8.957525007426739">
        <ele>320.74000000000001</ele>
        <time>2025-05-01T11:55:42Z</time>
      </trkpt>
      <trkpt lat="43.013073038309813" lon="-8.955640001222491">
        <ele>318.32999999999998</ele>
        <time>2025-05-01T11:55:48Z</time>
      </trkpt>
      <trkpt lat="43.013506969437003" lon="-8.953736973926425">
        <ele>316.88999999999999</ele>
        <time>2025-05-01T11:55:54Z</time>
      </trkpt>
      <trkpt lat="43.013739986345172" lon="-8.951759012416005">
        <ele>314.97000000000003</ele>
        <time>2025-05-01T11:56:00Z</time>
      </trkpt>
      <trkpt lat="43.013694975525141" lon="-8.951088041067123">
        <ele>314.49000000000001</ele>
        <time>2025-05-01T11:56:02Z</time>
      </trkpt>
      <trkpt lat="43.013148978352547" lon="-8.948932969942689">
        <ele>311.60000000000002</ele>
        <time>2025-05-01T11:56:09Z</time>
      </trkpt>
      <trkpt lat="43.012368958443403" lon="-8.946566004306078">
        <ele>309.19999999999999</ele>
        <time>2025-05-01T11:56:18Z</time>
      </trkpt>
      <trkpt lat="43.011623974889517" lon="-8.944352008402348">
        <ele>306.80000000000001</ele>
        <time>2025-05-01T11:56:26Z</time>
      </trkpt>
      <trkpt lat="43.010611021891236" lon="-8.941308036446571">
        <ele>303.43000000000001</ele>
        <time>2025-05-01T11:56:36Z</time>
      </trkpt>
      <trkpt lat="43.009791020303965" lon="-8.93883696757257">
        <ele>303.43000000000001</ele>
        <time>2025-05-01T11:56:44Z</time>
      </trkpt>
      <trkpt lat="43.009544005617499" lon="-8.937023961916566">
        <ele>307.75999999999999</ele>
        <time>2025-05-01T11:56:50Z</time>
      </trkpt>
      <trkpt lat="43.009814992547035" lon="-8.934742994606495">
        <ele>314.97000000000003</ele>
        <time>2025-05-01T11:56:57Z</time>
      </trkpt>
      <trkpt lat="43.010252024978399" lon="-8.932430008426309">
        <ele>320.74000000000001</ele>
        <time>2025-05-01T11:57:05Z</time>
      </trkpt>
      <trkpt lat="43.01096498966217" lon="-8.928506020456553">
        <ele>320.74000000000001</ele>
        <time>2025-05-01T11:57:20Z</time>
      </trkpt>
      <trkpt lat="43.011212004348636" lon="-8.926895018666983">
        <ele>314.49000000000001</ele>
        <time>2025-05-01T11:57:27Z</time>
      </trkpt>
      <trkpt lat="43.011207981035113" lon="-8.9266989659518">
        <ele>313.52999999999997</ele>
        <time>2025-05-01T11:57:28Z</time>
      </trkpt>
      <trkpt lat="43.011190965771675" lon="-8.926515989005566">
        <ele>312.56999999999999</ele>
        <time>2025-05-01T11:57:29Z</time>
      </trkpt>
      <trkpt lat="43.011155007407069" lon="-8.926350027322769">
        <ele>312.08999999999997</ele>
        <time>2025-05-01T11:57:30Z</time>
      </trkpt>
      <trkpt lat="43.011116031557322" lon="-8.926199991255999">
        <ele>311.60000000000002</ele>
        <time>2025-05-01T11:57:31Z</time>
      </trkpt>
      <trkpt lat="43.011061968281865" lon="-8.926060013473034">
        <ele>311.12</ele>
        <time>2025-05-01T11:57:32Z</time>
      </trkpt>
      <trkpt lat="43.010997008532286" lon="-8.925927998498082">
        <ele>310.63999999999999</ele>
        <time>2025-05-01T11:57:33Z</time>
      </trkpt>
      <trkpt lat="43.010913021862507" lon="-8.925806963816285">
        <ele>310.63999999999999</ele>
        <time>2025-05-01T11:57:34Z</time>
      </trkpt>
      <trkpt lat="43.010028982535005" lon="-8.924427973106504">
        <ele>311.12</ele>
        <time>2025-05-01T11:57:45Z</time>
      </trkpt>
      <trkpt lat="43.009934015572071" lon="-8.924318002536893">
        <ele>311.12</ele>
        <time>2025-05-01T11:57:46Z</time>
      </trkpt>
      <trkpt lat="43.009815998375416" lon="-8.924242984503508">
        <ele>310.63999999999999</ele>
        <time>2025-05-01T11:57:47Z</time>
      </trkpt>
      <trkpt lat="43.009385000914335" lon="-8.923950036987662">
        <ele>310.63999999999999</ele>
        <time>2025-05-01T11:57:51Z</time>
      </trkpt>
      <trkpt lat="43.00928701646626" lon="-8.923861021175981">
        <ele>310.63999999999999</ele>
        <time>2025-05-01T11:57:52Z</time>
      </trkpt>
      <trkpt lat="43.008952997624874" lon="-8.923383001238108">
        <ele>310.16000000000003</ele>
        <time>2025-05-01T11:57:56Z</time>
      </trkpt>
      <trkpt lat="43.008906980976462" lon="-8.923246040940285">
        <ele>309.68000000000001</ele>
        <time>2025-05-01T11:57:57Z</time>
      </trkpt>
      <trkpt lat="43.008861970156431" lon="-8.923094999045134">
        <ele>308.72000000000003</ele>
        <time>2025-05-01T11:57:58Z</time>
      </trkpt>
      <trkpt lat="43.008491992950439" lon="-8.92134896479547">
        <ele>304.88</ele>
        <time>2025-05-01T11:58:09Z</time>
      </trkpt>
      <trkpt lat="43.008438013494015" lon="-8.921212004497647">
        <ele>304.88</ele>
        <time>2025-05-01T11:58:10Z</time>
      </trkpt>
      <trkpt lat="43.008374981582165" lon="-8.921056017279625">
        <ele>304.38999999999999</ele>
        <time>2025-05-01T11:58:11Z</time>
      </trkpt>
      <trkpt lat="43.008299041539431" lon="-8.920890977606177">
        <ele>304.38999999999999</ele>
        <time>2025-05-01T11:58:12Z</time>
      </trkpt>
      <trkpt lat="43.008196027949452" lon="-8.920757034793496">
        <ele>303.91000000000003</ele>
        <time>2025-05-01T11:58:13Z</time>
      </trkpt>
      <trkpt lat="43.008088991045952" lon="-8.92061797901988">
        <ele>303.91000000000003</ele>
        <time>2025-05-01T11:58:14Z</time>
      </trkpt>
      <trkpt lat="43.007979020476341" lon="-8.920475989580154">
        <ele>303.91000000000003</ele>
        <time>2025-05-01T11:58:15Z</time>
      </trkpt>
      <trkpt lat="43.00784700550139" lon="-8.92033701762557">
        <ele>303.91000000000003</ele>
        <time>2025-05-01T11:58:16Z</time>
      </trkpt>
      <trkpt lat="43.00769898109138" lon="-8.920252025127411">
        <ele>303.91000000000003</ele>
        <time>2025-05-01T11:58:17Z</time>
      </trkpt>
      <trkpt lat="43.0075460113585" lon="-8.92016502097249">
        <ele>304.38999999999999</ele>
        <time>2025-05-01T11:58:18Z</time>
      </trkpt>
      <trkpt lat="43.007379965856671" lon="-8.920094026252627">
        <ele>304.38999999999999</ele>
        <time>2025-05-01T11:58:19Z</time>
      </trkpt>
      <trkpt lat="43.007201012223959" lon="-8.920065024867654">
        <ele>304.88</ele>
        <time>2025-05-01T11:58:20Z</time>
      </trkpt>
      <trkpt lat="43.007014011964202" lon="-8.920042980462313">
        <ele>305.36000000000001</ele>
        <time>2025-05-01T11:58:21Z</time>
      </trkpt>
      <trkpt lat="43.006199039518833" lon="-8.919904008507729">
        <ele>307.75999999999999</ele>
        <time>2025-05-01T11:58:25Z</time>
      </trkpt>
      <trkpt lat="43.005986977368593" lon="-8.919831002131105">
        <ele>308.72000000000003</ele>
        <time>2025-05-01T11:58:26Z</time>
      </trkpt>
      <trkpt lat="43.005781034007668" lon="-8.919697981327772">
        <ele>309.68000000000001</ele>
        <time>2025-05-01T11:58:27Z</time>
      </trkpt>
      <trkpt lat="43.005581041797996" lon="-8.919550962746143">
        <ele>310.63999999999999</ele>
        <time>2025-05-01T11:58:28Z</time>
      </trkpt>
      <trkpt lat="43.005408961325884" lon="-8.919337978586555">
        <ele>311.60000000000002</ele>
        <time>2025-05-01T11:58:29Z</time>
      </trkpt>
      <trkpt lat="43.005236964672804" lon="-8.919114014133811">
        <ele>313.05000000000001</ele>
        <time>2025-05-01T11:58:30Z</time>
      </trkpt>
      <trkpt lat="43.005088018253446" lon="-8.91885501332581">
        <ele>314.00999999999999</ele>
        <time>2025-05-01T11:58:31Z</time>
      </trkpt>
      <trkpt lat="43.004948040470481" lon="-8.918580003082752">
        <ele>315.44999999999999</ele>
        <time>2025-05-01T11:58:32Z</time>
      </trkpt>
      <trkpt lat="43.003133023157716" lon="-8.915048958733678">
        <ele>332.26999999999998</ele>
        <time>2025-05-01T11:58:45Z</time>
      </trkpt>
      <trkpt lat="43.002819959074259" lon="-8.914592983201146">
        <ele>335.16000000000003</ele>
        <time>2025-05-01T11:58:47Z</time>
      </trkpt>
      <trkpt lat="43.002645028755069" lon="-8.914399025961757">
        <ele>336.60000000000002</ele>
        <time>2025-05-01T11:58:48Z</time>
      </trkpt>
      <trkpt lat="43.002459034323692" lon="-8.914238009601831">
        <ele>337.56</ele>
        <time>2025-05-01T11:58:49Z</time>
      </trkpt>
      <trkpt lat="43.002261975780129" lon="-8.914116974920034">
        <ele>338.51999999999998</ele>
        <time>2025-05-01T11:58:50Z</time>
      </trkpt>
      <trkpt lat="43.002062989398837" lon="-8.914007004350424">
        <ele>339.48000000000002</ele>
        <time>2025-05-01T11:58:51Z</time>
      </trkpt>
      <trkpt lat="43.001855034381151" lon="-8.913941960781813">
        <ele>340.44</ele>
        <time>2025-05-01T11:58:52Z</time>
      </trkpt>
      <trkpt lat="43.001645989716053" lon="-8.913900973275304">
        <ele>341.41000000000003</ele>
        <time>2025-05-01T11:58:53Z</time>
      </trkpt>
      <trkpt lat="43.001444991677999" lon="-8.913863003253937">
        <ele>342.37</ele>
        <time>2025-05-01T11:58:54Z</time>
      </trkpt>
      <trkpt lat="43.001250028610229" lon="-8.913900973275304">
        <ele>343.32999999999998</ele>
        <time>2025-05-01T11:58:55Z</time>
      </trkpt>
      <trkpt lat="43.001062022522092" lon="-8.913942966610193">
        <ele>344.29000000000002</ele>
        <time>2025-05-01T11:58:56Z</time>
      </trkpt>
      <trkpt lat="43.000853983685374" lon="-8.913988983258605">
        <ele>344.76999999999998</ele>
        <time>2025-05-01T11:58:57Z</time>
      </trkpt>
      <trkpt lat="43.000692967325449" lon="-8.914059977978468">
        <ele>345.25</ele>
        <time>2025-05-01T11:58:58Z</time>
      </trkpt>
      <trkpt lat="43.000514013692737" lon="-8.914139019325376">
        <ele>346.20999999999998</ele>
        <time>2025-05-01T11:58:59Z</time>
      </trkpt>
      <trkpt lat="42.999785961583257" lon="-8.914416963234544">
        <ele>347.17000000000002</ele>
        <time>2025-05-01T11:59:03Z</time>
      </trkpt>
      <trkpt lat="42.999590998515487" lon="-8.914440013468266">
        <ele>347.64999999999998</ele>
        <time>2025-05-01T11:59:04Z</time>
      </trkpt>
      <trkpt lat="42.999398969113827" lon="-8.914410006254911">
        <ele>347.64999999999998</ele>
        <time>2025-05-01T11:59:05Z</time>
      </trkpt>
      <trkpt lat="42.999207023531199" lon="-8.914354015141726">
        <ele>348.13</ele>
        <time>2025-05-01T11:59:06Z</time>
      </trkpt>
      <trkpt lat="42.999019017443061" lon="-8.914300035685301">
        <ele>348.13</ele>
        <time>2025-05-01T11:59:07Z</time>
      </trkpt>
      <trkpt lat="42.998836962506175" lon="-8.914246978238225">
        <ele>348.13</ele>
        <time>2025-05-01T11:59:08Z</time>
      </trkpt>
      <trkpt lat="42.998663038015366" lon="-8.914152011275291">
        <ele>348.13</ele>
        <time>2025-05-01T11:59:09Z</time>
      </trkpt>
      <trkpt lat="42.997341966256499" lon="-8.913453966379166">
        <ele>349.57999999999998</ele>
        <time>2025-05-01T11:59:18Z</time>
      </trkpt>
      <trkpt lat="42.996612992137671" lon="-8.912992039695382">
        <ele>348.62</ele>
        <time>2025-05-01T11:59:26Z</time>
      </trkpt>
      <trkpt lat="42.996537974104285" lon="-8.912929007783532">
        <ele>348.13</ele>
        <time>2025-05-01T11:59:27Z</time>
      </trkpt>
      <trkpt lat="42.996475026011467" lon="-8.912848038598895">
        <ele>348.13</ele>
        <time>2025-05-01T11:59:28Z</time>
      </trkpt>
      <trkpt lat="42.996423980221152" lon="-8.912742007523775">
        <ele>347.64999999999998</ele>
        <time>2025-05-01T11:59:29Z</time>
      </trkpt>
      <trkpt lat="42.996371006593108" lon="-8.912631031125784">
        <ele>347.17000000000002</ele>
        <time>2025-05-01T11:59:30Z</time>
      </trkpt>
      <trkpt lat="42.996316021308303" lon="-8.91251603141427">
        <ele>346.69</ele>
        <time>2025-05-01T11:59:31Z</time>
      </trkpt>
      <trkpt lat="42.996262041851878" lon="-8.912401031702757">
        <ele>346.20999999999998</ele>
        <time>2025-05-01T11:59:32Z</time>
      </trkpt>
      <trkpt lat="42.99622499383986" lon="-8.912278991192579">
        <ele>345.73000000000002</ele>
        <time>2025-05-01T11:59:33Z</time>
      </trkpt>
      <trkpt lat="42.996133966371417" lon="-8.911891998723149">
        <ele>343.81</ele>
        <time>2025-05-01T11:59:37Z</time>
      </trkpt>
      <trkpt lat="42.996120974421501" lon="-8.911839025095105">
        <ele>343.32999999999998</ele>
        <time>2025-05-01T11:59:38Z</time>
      </trkpt>
      <trkpt lat="42.99607596360147" lon="-8.9116579759866">
        <ele>339.95999999999998</ele>
        <time>2025-05-01T11:59:44Z</time>
      </trkpt>
      <trkpt lat="42.996072024106979" lon="-8.911641966551542">
        <ele>339.48000000000002</ele>
        <time>2025-05-01T11:59:45Z</time>
      </trkpt>
      <trkpt lat="42.996072024106979" lon="-8.911641966551542">
        <ele>338.04000000000002</ele>
        <time>2025-05-01T11:59:59Z</time>
      </trkpt>
      <trkpt lat="42.996016032993793" lon="-8.911738023161888">
        <ele>327.94999999999999</ele>
        <time>2025-05-01T12:06:37Z</time>
      </trkpt>
      <trkpt lat="42.996071018278599" lon="-8.911640038713813">
        <ele>331.31</ele>
        <time>2025-05-01T12:06:49Z</time>
      </trkpt>
      <trkpt lat="42.996045034378767" lon="-8.911534007638693">
        <ele>332.75</ele>
        <time>2025-05-01T12:06:51Z</time>
      </trkpt>
      <trkpt lat="42.996035981923342" lon="-8.911496959626675">
        <ele>333.23000000000002</ele>
        <time>2025-05-01T12:06:52Z</time>
      </trkpt>
      <trkpt lat="42.99603003077209" lon="-8.911476004868746">
        <ele>334.19999999999999</ele>
        <time>2025-05-01T12:06:53Z</time>
      </trkpt>
      <trkpt lat="42.996027013286948" lon="-8.91146301291883">
        <ele>334.68000000000001</ele>
        <time>2025-05-01T12:07:04Z</time>
      </trkpt>
      <trkpt lat="42.996023995801806" lon="-8.911452032625675">
        <ele>334.19999999999999</ele>
        <time>2025-05-01T12:07:05Z</time>
      </trkpt>
      <trkpt lat="42.996015027165413" lon="-8.911414984613657">
        <ele>333.70999999999998</ele>
        <time>2025-05-01T12:07:06Z</time>
      </trkpt>
      <trkpt lat="42.995998011901975" lon="-8.911347007378936">
        <ele>333.23000000000002</ele>
        <time>2025-05-01T12:07:07Z</time>
      </trkpt>
      <trkpt lat="42.995974961668253" lon="-8.911251034587622">
        <ele>332.75</ele>
        <time>2025-05-01T12:07:08Z</time>
      </trkpt>
      <trkpt lat="42.995947971940041" lon="-8.911140980198979">
        <ele>332.26999999999998</ele>
        <time>2025-05-01T12:07:09Z</time>
      </trkpt>
      <trkpt lat="42.995628034695983" lon="-8.909823009744287">
        <ele>330.35000000000002</ele>
        <time>2025-05-01T12:07:18Z</time>
      </trkpt>
      <trkpt lat="42.995134005323052" lon="-8.907782016322017">
        <ele>330.82999999999998</ele>
        <time>2025-05-01T12:07:30Z</time>
      </trkpt>
      <trkpt lat="42.994595970958471" lon="-8.905439022928476">
        <ele>332.75</ele>
        <time>2025-05-01T12:07:43Z</time>
      </trkpt>
      <trkpt lat="42.994043016806245" lon="-8.902614992111921">
        <ele>330.35000000000002</ele>
        <time>2025-05-01T12:07:57Z</time>
      </trkpt>
      <trkpt lat="42.993466006591916" lon="-8.899558028206229">
        <ele>326.01999999999998</ele>
        <time>2025-05-01T12:08:11Z</time>
      </trkpt>
      <trkpt lat="42.993125030770898" lon="-8.897695988416672">
        <ele>326.01999999999998</ele>
        <time>2025-05-01T12:08:20Z</time>
      </trkpt>
      <trkpt lat="42.99272102303803" lon="-8.894999027252197">
        <ele>320.25999999999999</ele>
        <time>2025-05-01T12:08:32Z</time>
      </trkpt>
      <trkpt lat="42.99255196005106" lon="-8.892415976151824">
        <ele>317.37</ele>
        <time>2025-05-01T12:08:42Z</time>
      </trkpt>
      <trkpt lat="42.992307962849736" lon="-8.890426028519869">
        <ele>317.85000000000002</ele>
        <time>2025-05-01T12:08:49Z</time>
      </trkpt>
      <trkpt lat="42.991741010919213" lon="-8.8887959998101">
        <ele>319.30000000000001</ele>
        <time>2025-05-01T12:08:55Z</time>
      </trkpt>
      <trkpt lat="42.990548014640808" lon="-8.885888988152146">
        <ele>324.57999999999998</ele>
        <time>2025-05-01T12:09:07Z</time>
      </trkpt>
      <trkpt lat="42.989915013313293" lon="-8.883675998076797">
        <ele>329.38999999999999</ele>
        <time>2025-05-01T12:09:16Z</time>
      </trkpt>
      <trkpt lat="42.989488039165735" lon="-8.880324997007847">
        <ele>335.16000000000003</ele>
        <time>2025-05-01T12:09:28Z</time>
      </trkpt>
      <trkpt lat="42.989103980362415" lon="-8.877121014520526">
        <ele>343.81</ele>
        <time>2025-05-01T12:09:39Z</time>
      </trkpt>
      <trkpt lat="42.988827964290977" lon="-8.874835018068552">
        <ele>345.73000000000002</ele>
        <time>2025-05-01T12:09:48Z</time>
      </trkpt>
      <trkpt lat="42.988720005378127" lon="-8.873856011778116">
        <ele>348.13</ele>
        <time>2025-05-01T12:09:54Z</time>
      </trkpt>
      <trkpt lat="42.988710030913353" lon="-8.873746041208506">
        <ele>348.13</ele>
        <time>2025-05-01T12:09:55Z</time>
      </trkpt>
      <trkpt lat="42.988573992624879" lon="-8.873655013740063">
        <ele>348.62</ele>
        <time>2025-05-01T12:09:56Z</time>
      </trkpt>
      <trkpt lat="42.988643981516361" lon="-8.8734130281955">
        <ele>349.10000000000002</ele>
        <time>2025-05-01T12:09:57Z</time>
      </trkpt>
      <trkpt lat="42.988638030365109" lon="-8.87336902320385">
        <ele>349.10000000000002</ele>
        <time>2025-05-01T12:09:58Z</time>
      </trkpt>
      <trkpt lat="42.988621015101671" lon="-8.87324103154242">
        <ele>349.57999999999998</ele>
        <time>2025-05-01T12:09:59Z</time>
      </trkpt>
      <trkpt lat="42.988601988181472" lon="-8.873096024617553">
        <ele>350.06</ele>
        <time>2025-05-01T12:10:00Z</time>
      </trkpt>
      <trkpt lat="42.988580027595162" lon="-8.872931990772486">
        <ele>350.54000000000002</ele>
        <time>2025-05-01T12:10:01Z</time>
      </trkpt>
      <trkpt lat="42.988553959876299" lon="-8.872750019654632">
        <ele>351.01999999999998</ele>
        <time>2025-05-01T12:10:02Z</time>
      </trkpt>
      <trkpt lat="42.988507021218538" lon="-8.872562013566494">
        <ele>351.01999999999998</ele>
        <time>2025-05-01T12:10:03Z</time>
      </trkpt>
      <trkpt lat="42.988438960164785" lon="-8.872374007478356">
        <ele>351.5</ele>
        <time>2025-05-01T12:10:04Z</time>
      </trkpt>
      <trkpt lat="42.988251037895679" lon="-8.872018028050661">
        <ele>351.5</ele>
        <time>2025-05-01T12:10:06Z</time>
      </trkpt>
      <trkpt lat="42.988135032355785" lon="-8.87184401974082">
        <ele>351.5</ele>
        <time>2025-05-01T12:10:07Z</time>
      </trkpt>
      <trkpt lat="42.988003017380834" lon="-8.871699012815952">
        <ele>351.01999999999998</ele>
        <time>2025-05-01T12:10:08Z</time>
      </trkpt>
      <trkpt lat="42.987871002405882" lon="-8.871566997841001">
        <ele>351.01999999999998</ele>
        <time>2025-05-01T12:10:09Z</time>
      </trkpt>
      <trkpt lat="42.987730018794537" lon="-8.871455015614629">
        <ele>350.54000000000002</ele>
        <time>2025-05-01T12:10:10Z</time>
      </trkpt>
      <trkpt lat="42.986579015851021" lon="-8.870520014315844">
        <ele>347.17000000000002</ele>
        <time>2025-05-01T12:10:19Z</time>
      </trkpt>
      <trkpt lat="42.986186994239688" lon="-8.870213991031051">
        <ele>345.73000000000002</ele>
        <time>2025-05-01T12:10:23Z</time>
      </trkpt>
      <trkpt lat="42.986000999808311" lon="-8.870193036273122">
        <ele>345.73000000000002</ele>
        <time>2025-05-01T12:10:25Z</time>
      </trkpt>
      <trkpt lat="42.98591198399663" lon="-8.870101002976298">
        <ele>345.25</ele>
        <time>2025-05-01T12:10:26Z</time>
      </trkpt>
      <trkpt lat="42.985157025977969" lon="-8.869354007765651">
        <ele>344.29000000000002</ele>
        <time>2025-05-01T12:10:34Z</time>
      </trkpt>
      <trkpt lat="42.983692958950996" lon="-8.868153970688582">
        <ele>344.29000000000002</ele>
        <time>2025-05-01T12:10:44Z</time>
      </trkpt>
      <trkpt lat="42.981219040229917" lon="-8.866138039156795">
        <ele>350.06</ele>
        <time>2025-05-01T12:10:59Z</time>
      </trkpt>
      <trkpt lat="42.978141959756613" lon="-8.863649033010006">
        <ele>351.98000000000002</ele>
        <time>2025-05-01T12:11:17Z</time>
      </trkpt>
      <trkpt lat="42.975688995793462" lon="-8.861627988517284">
        <ele>353.89999999999998</ele>
        <time>2025-05-01T12:11:31Z</time>
      </trkpt>
      <trkpt lat="42.973653031513095" lon="-8.859724039211869">
        <ele>356.31</ele>
        <time>2025-05-01T12:11:43Z</time>
      </trkpt>
      <trkpt lat="42.97340601682663" lon="-8.859281977638602">
        <ele>355.82999999999998</ele>
        <time>2025-05-01T12:11:45Z</time>
      </trkpt>
      <trkpt lat="42.973306020721793" lon="-8.85906295850873">
        <ele>355.33999999999997</ele>
        <time>2025-05-01T12:11:46Z</time>
      </trkpt>
      <trkpt lat="42.97321499325335" lon="-8.858827007934451">
        <ele>355.33999999999997</ele>
        <time>2025-05-01T12:11:47Z</time>
      </trkpt>
      <trkpt lat="42.972536981105804" lon="-8.856770005077124">
        <ele>353.42000000000002</ele>
        <time>2025-05-01T12:11:56Z</time>
      </trkpt>
      <trkpt lat="42.972035994753242" lon="-8.855710029602051">
        <ele>351.01999999999998</ele>
        <time>2025-05-01T12:12:03Z</time>
      </trkpt>
      <trkpt lat="42.971927030012012" lon="-8.855600981041789">
        <ele>350.54000000000002</ele>
        <time>2025-05-01T12:12:04Z</time>
      </trkpt>
      <trkpt lat="42.971828039735556" lon="-8.855502996593714">
        <ele>350.06</ele>
        <time>2025-05-01T12:12:05Z</time>
      </trkpt>
      <trkpt lat="42.971730977296829" lon="-8.855406017974019">
        <ele>349.57999999999998</ele>
        <time>2025-05-01T12:12:06Z</time>
      </trkpt>
      <trkpt lat="42.970810979604721" lon="-8.855011984705925">
        <ele>344.29000000000002</ele>
        <time>2025-05-01T12:12:14Z</time>
      </trkpt>
      <trkpt lat="42.970108995214105" lon="-8.854711996391416">
        <ele>339</ele>
        <time>2025-05-01T12:12:20Z</time>
      </trkpt>
      <trkpt lat="42.969996007159352" lon="-8.854606971144676">
        <ele>338.51999999999998</ele>
        <time>2025-05-01T12:12:21Z</time>
      </trkpt>
      <trkpt lat="42.969889976084232" lon="-8.854508986696601">
        <ele>338.04000000000002</ele>
        <time>2025-05-01T12:12:22Z</time>
      </trkpt>
      <trkpt lat="42.969792997464538" lon="-8.854358028620482">
        <ele>337.56</ele>
        <time>2025-05-01T12:12:23Z</time>
      </trkpt>
      <trkpt lat="42.969702975824475" lon="-8.854217967018485">
        <ele>337.56</ele>
        <time>2025-05-01T12:12:24Z</time>
      </trkpt>
      <trkpt lat="42.969644973054528" lon="-8.854061979800463">
        <ele>337.07999999999998</ele>
        <time>2025-05-01T12:12:25Z</time>
      </trkpt>
      <trkpt lat="42.969587976112962" lon="-8.853900963440538">
        <ele>336.60000000000002</ele>
        <time>2025-05-01T12:12:26Z</time>
      </trkpt>
      <trkpt lat="42.969532990828156" lon="-8.853745982050896">
        <ele>336.12</ele>
        <time>2025-05-01T12:12:27Z</time>
      </trkpt>
      <trkpt lat="42.969479011371732" lon="-8.853595023974776">
        <ele>335.63999999999999</ele>
        <time>2025-05-01T12:12:28Z</time>
      </trkpt>
      <trkpt lat="42.969455039128661" lon="-8.853442976251245">
        <ele>335.16000000000003</ele>
        <time>2025-05-01T12:12:29Z</time>
      </trkpt>
      <trkpt lat="42.969444980844855" lon="-8.853281959891319">
        <ele>334.68000000000001</ele>
        <time>2025-05-01T12:12:30Z</time>
      </trkpt>
      <trkpt lat="42.969440035521984" lon="-8.853120021522045">
        <ele>334.19999999999999</ele>
        <time>2025-05-01T12:12:31Z</time>
      </trkpt>
      <trkpt lat="42.969440035521984" lon="-8.852950036525726">
        <ele>333.70999999999998</ele>
        <time>2025-05-01T12:12:32Z</time>
      </trkpt>
      <trkpt lat="42.969440035521984" lon="-8.852780973538756">
        <ele>333.23000000000002</ele>
        <time>2025-05-01T12:12:33Z</time>
      </trkpt>
      <trkpt lat="42.969523016363382" lon="-8.851136025041342">
        <ele>330.82999999999998</ele>
        <time>2025-05-01T12:12:41Z</time>
      </trkpt>
      <trkpt lat="42.969431988894939" lon="-8.849469032138586">
        <ele>327.94999999999999</ele>
        <time>2025-05-01T12:12:47Z</time>
      </trkpt>
      <trkpt lat="42.969351019710302" lon="-8.849183041602373">
        <ele>326.99000000000001</ele>
        <time>2025-05-01T12:12:48Z</time>
      </trkpt>
      <trkpt lat="42.969254963099957" lon="-8.848904008045793">
        <ele>326.5</ele>
        <time>2025-05-01T12:12:49Z</time>
      </trkpt>
      <trkpt lat="42.969157984480262" lon="-8.84861902333796">
        <ele>325.54000000000002</ele>
        <time>2025-05-01T12:12:50Z</time>
      </trkpt>
      <trkpt lat="42.969024041667581" lon="-8.848350970074534">
        <ele>325.06</ele>
        <time>2025-05-01T12:12:51Z</time>
      </trkpt>
      <trkpt lat="42.968877023085952" lon="-8.848099010065198">
        <ele>324.10000000000002</ele>
        <time>2025-05-01T12:12:52Z</time>
      </trkpt>
      <trkpt lat="42.968691028654575" lon="-8.8478899654001">
        <ele>323.13999999999999</ele>
        <time>2025-05-01T12:12:53Z</time>
      </trkpt>
      <trkpt lat="42.968500005081296" lon="-8.847676981240511">
        <ele>321.69999999999999</ele>
        <time>2025-05-01T12:12:54Z</time>
      </trkpt>
      <trkpt lat="42.968308981508017" lon="-8.847463997080922">
        <ele>320.74000000000001</ele>
        <time>2025-05-01T12:12:55Z</time>
      </trkpt>
      <trkpt lat="42.96810002066195" lon="-8.847279008477926">
        <ele>319.77999999999997</ele>
        <time>2025-05-01T12:12:56Z</time>
      </trkpt>
      <trkpt lat="42.967876978218555" lon="-8.847128972411156">
        <ele>318.32999999999998</ele>
        <time>2025-05-01T12:12:57Z</time>
      </trkpt>
      <trkpt lat="42.967642033472657" lon="-8.847009027376771">
        <ele>316.88999999999999</ele>
        <time>2025-05-01T12:12:58Z</time>
      </trkpt>
      <trkpt lat="42.967403987422585" lon="-8.846887992694974">
        <ele>315.44999999999999</ele>
        <time>2025-05-01T12:12:59Z</time>
      </trkpt>
      <trkpt lat="42.964485995471478" lon="-8.845285037532449">
        <ele>294.77999999999997</ele>
        <time>2025-05-01T12:13:11Z</time>
      </trkpt>
      <trkpt lat="42.964286003261805" lon="-8.845084961503744">
        <ele>293.81999999999999</ele>
        <time>2025-05-01T12:13:12Z</time>
      </trkpt>
      <trkpt lat="42.964133033528924" lon="-8.84483702480793">
        <ele>292.86000000000001</ele>
        <time>2025-05-01T12:13:13Z</time>
      </trkpt>
      <trkpt lat="42.963985009118915" lon="-8.844566959887743">
        <ele>292.38</ele>
        <time>2025-05-01T12:13:14Z</time>
      </trkpt>
      <trkpt lat="42.963851988315582" lon="-8.844295972958207">
        <ele>291.89999999999998</ele>
        <time>2025-05-01T12:13:15Z</time>
      </trkpt>
      <trkpt lat="42.963785016909242" lon="-8.843983998522162">
        <ele>290.94</ele>
        <time>2025-05-01T12:13:16Z</time>
      </trkpt>
      <trkpt lat="42.963729025796056" lon="-8.843673029914498">
        <ele>289.97000000000003</ele>
        <time>2025-05-01T12:13:17Z</time>
      </trkpt>
      <trkpt lat="42.96371603384614" lon="-8.843346973881126">
        <ele>289.49000000000001</ele>
        <time>2025-05-01T12:13:18Z</time>
      </trkpt>
      <trkpt lat="42.963737994432449" lon="-8.84303298778832">
        <ele>288.52999999999997</ele>
        <time>2025-05-01T12:13:19Z</time>
      </trkpt>
      <trkpt lat="42.963786022737622" lon="-8.842706009745598">
        <ele>287.08999999999997</ele>
        <time>2025-05-01T12:13:20Z</time>
      </trkpt>
      <trkpt lat="42.963833967223763" lon="-8.842375008389354">
        <ele>285.64999999999998</ele>
        <time>2025-05-01T12:13:21Z</time>
      </trkpt>
      <trkpt lat="42.963918037712574" lon="-8.842055993154645">
        <ele>284.20999999999998</ele>
        <time>2025-05-01T12:13:22Z</time>
      </trkpt>
      <trkpt lat="42.964006969705224" lon="-8.841731026768684">
        <ele>282.76999999999998</ele>
        <time>2025-05-01T12:13:23Z</time>
      </trkpt>
      <trkpt lat="42.964713983237743" lon="-8.839056026190519">
        <ele>270.26999999999998</ele>
        <time>2025-05-01T12:13:31Z</time>
      </trkpt>
      <trkpt lat="42.96479201875627" lon="-8.83837197907269">
        <ele>266.89999999999998</ele>
        <time>2025-05-01T12:13:33Z</time>
      </trkpt>
      <trkpt lat="42.964801993221045" lon="-8.838028991594911">
        <ele>265.45999999999998</ele>
        <time>2025-05-01T12:13:34Z</time>
      </trkpt>
      <trkpt lat="42.964676013216376" lon="-8.835482988506556">
        <ele>251.52000000000001</ele>
        <time>2025-05-01T12:13:42Z</time>
      </trkpt>
      <trkpt lat="42.964249961078167" lon="-8.833732008934021">
        <ele>241.43000000000001</ele>
        <time>2025-05-01T12:13:48Z</time>
      </trkpt>
      <trkpt lat="42.963079009205103" lon="-8.830436998978257">
        <ele>239.99000000000001</ele>
        <time>2025-05-01T12:14:00Z</time>
      </trkpt>
      <trkpt lat="42.962971972301602" lon="-8.830200964584947">
        <ele>240.47</ele>
        <time>2025-05-01T12:14:01Z</time>
      </trkpt>
      <trkpt lat="42.962830988690257" lon="-8.829998960718513">
        <ele>240.94999999999999</ele>
        <time>2025-05-01T12:14:02Z</time>
      </trkpt>
      <trkpt lat="42.962671983987093" lon="-8.829831993207336">
        <ele>241.91</ele>
        <time>2025-05-01T12:14:03Z</time>
      </trkpt>
      <trkpt lat="42.962500993162394" lon="-8.829666031524539">
        <ele>242.38999999999999</ele>
        <time>2025-05-01T12:14:04Z</time>
      </trkpt>
      <trkpt lat="42.962304018437862" lon="-8.829554971307516">
        <ele>242.87</ele>
        <time>2025-05-01T12:14:05Z</time>
      </trkpt>
      <trkpt lat="42.962108971551061" lon="-8.829446006566286">
        <ele>242.87</ele>
        <time>2025-05-01T12:14:06Z</time>
      </trkpt>
      <trkpt lat="42.961919959634542" lon="-8.829337963834405">
        <ele>243.83000000000001</ele>
        <time>2025-05-01T12:14:07Z</time>
      </trkpt>
      <trkpt lat="42.960932990536094" lon="-8.828454008325934">
        <ele>246.22999999999999</ele>
        <time>2025-05-01T12:14:13Z</time>
      </trkpt>
      <trkpt lat="42.960809022188187" lon="-8.828254016116262">
        <ele>246.72</ele>
        <time>2025-05-01T12:14:14Z</time>
      </trkpt>
      <trkpt lat="42.960683964192867" lon="-8.828048994764686">
        <ele>246.72</ele>
        <time>2025-05-01T12:14:15Z</time>
      </trkpt>
      <trkpt lat="42.96057902276516" lon="-8.827836010605097">
        <ele>246.72</ele>
        <time>2025-05-01T12:14:16Z</time>
      </trkpt>
      <trkpt lat="42.960494030267" lon="-8.827602993696928">
        <ele>246.22999999999999</ele>
        <time>2025-05-01T12:14:17Z</time>
      </trkpt>
      <trkpt lat="42.960422029718757" lon="-8.827364025637507">
        <ele>246.22999999999999</ele>
        <time>2025-05-01T12:14:18Z</time>
      </trkpt>
      <trkpt lat="42.959751980379224" lon="-8.825003011152148">
        <ele>242.87</ele>
        <time>2025-05-01T12:14:27Z</time>
      </trkpt>
      <trkpt lat="42.958996016532183" lon="-8.822540994733572">
        <ele>236.62</ele>
        <time>2025-05-01T12:14:36Z</time>
      </trkpt>
      <trkpt lat="42.958865007385612" lon="-8.822307977825403">
        <ele>235.66</ele>
        <time>2025-05-01T12:14:37Z</time>
      </trkpt>
      <trkpt lat="42.958698039874434" lon="-8.822131035849452">
        <ele>234.22</ele>
        <time>2025-05-01T12:14:38Z</time>
      </trkpt>
      <trkpt lat="42.958524031564593" lon="-8.821949986740947">
        <ele>232.78</ele>
        <time>2025-05-01T12:14:39Z</time>
      </trkpt>
      <trkpt lat="42.95834599994123" lon="-8.82176399230957">
        <ele>231.81</ele>
        <time>2025-05-01T12:14:40Z</time>
      </trkpt>
      <trkpt lat="42.958157993853092" lon="-8.821618985384703">
        <ele>230.84999999999999</ele>
        <time>2025-05-01T12:14:41Z</time>
      </trkpt>
      <trkpt lat="42.957459026947618" lon="-8.820971986278892">
        <ele>227.49000000000001</ele>
        <time>2025-05-01T12:14:45Z</time>
      </trkpt>
      <trkpt lat="42.957318965345621" lon="-8.820770988240838">
        <ele>227.00999999999999</ele>
        <time>2025-05-01T12:14:46Z</time>
      </trkpt>
      <trkpt lat="42.957188962027431" lon="-8.820556998252869">
        <ele>227.00999999999999</ele>
        <time>2025-05-01T12:14:47Z</time>
      </trkpt>
      <trkpt lat="42.957074968144298" lon="-8.820321969687939">
        <ele>227.00999999999999</ele>
        <time>2025-05-01T12:14:48Z</time>
      </trkpt>
      <trkpt lat="42.956967009231448" lon="-8.82008601911366">
        <ele>227.00999999999999</ele>
        <time>2025-05-01T12:14:49Z</time>
      </trkpt>
      <trkpt lat="42.956859972327948" lon="-8.819854008033872">
        <ele>227.49000000000001</ele>
        <time>2025-05-01T12:14:50Z</time>
      </trkpt>
      <trkpt lat="42.956202998757362" lon="-8.817735984921455">
        <ele>228.44999999999999</ele>
        <time>2025-05-01T12:14:59Z</time>
      </trkpt>
      <trkpt lat="42.95529599301517" lon="-8.814863003790379">
        <ele>219.80000000000001</ele>
        <time>2025-05-01T12:15:12Z</time>
      </trkpt>
      <trkpt lat="42.954612029716372" lon="-8.812755960971117">
        <ele>210.19</ele>
        <time>2025-05-01T12:15:22Z</time>
      </trkpt>
      <trkpt lat="42.954461993649602" lon="-8.811790030449629">
        <ele>209.22</ele>
        <time>2025-05-01T12:15:26Z</time>
      </trkpt>
      <trkpt lat="42.954462999477983" lon="-8.811537986621261">
        <ele>209.22</ele>
        <time>2025-05-01T12:15:27Z</time>
      </trkpt>
      <trkpt lat="42.954473979771137" lon="-8.811284014955163">
        <ele>209.69999999999999</ele>
        <time>2025-05-01T12:15:28Z</time>
      </trkpt>
      <trkpt lat="42.954492000862956" lon="-8.811016967520118">
        <ele>210.66999999999999</ele>
        <time>2025-05-01T12:15:29Z</time>
      </trkpt>
      <trkpt lat="42.954544974491" lon="-8.810765007510781">
        <ele>211.15000000000001</ele>
        <time>2025-05-01T12:15:30Z</time>
      </trkpt>
      <trkpt lat="42.954589985311031" lon="-8.810507012531161">
        <ele>212.11000000000001</ele>
        <time>2025-05-01T12:15:31Z</time>
      </trkpt>
      <trkpt lat="42.954890979453921" lon="-8.808632986620069">
        <ele>214.99000000000001</ele>
        <time>2025-05-01T12:15:38Z</time>
      </trkpt>
      <trkpt lat="42.954863989725709" lon="-8.808328974992037">
        <ele>214.99000000000001</ele>
        <time>2025-05-01T12:15:39Z</time>
      </trkpt>
      <trkpt lat="42.954489989206195" lon="-8.805340994149447">
        <ele>217.40000000000001</ele>
        <time>2025-05-01T12:15:48Z</time>
      </trkpt>
      <trkpt lat="42.953922031447291" lon="-8.801226988434792">
        <ele>231.33000000000001</ele>
        <time>2025-05-01T12:16:01Z</time>
      </trkpt>
      <trkpt lat="42.953871991485357" lon="-8.800964970141649">
        <ele>232.30000000000001</ele>
        <time>2025-05-01T12:16:02Z</time>
      </trkpt>
      <trkpt lat="42.953789010643959" lon="-8.80070898681879">
        <ele>232.78</ele>
        <time>2025-05-01T12:16:03Z</time>
      </trkpt>
      <trkpt lat="42.953681973740458" lon="-8.80047001875937">
        <ele>233.25999999999999</ele>
        <time>2025-05-01T12:16:04Z</time>
      </trkpt>
      <trkpt lat="42.95355599373579" lon="-8.800252005457878">
        <ele>233.74000000000001</ele>
        <time>2025-05-01T12:16:05Z</time>
      </trkpt>
      <trkpt lat="42.953416015952826" lon="-8.800056958571076">
        <ele>234.22</ele>
        <time>2025-05-01T12:16:06Z</time>
      </trkpt>
      <trkpt lat="42.953262962400913" lon="-8.799863001331687">
        <ele>234.69999999999999</ele>
        <time>2025-05-01T12:16:07Z</time>
      </trkpt>
      <trkpt lat="42.953079985454679" lon="-8.799702990800142">
        <ele>235.66</ele>
        <time>2025-05-01T12:16:08Z</time>
      </trkpt>
      <trkpt lat="42.952886028215289" lon="-8.79954700358212">
        <ele>236.62</ele>
        <time>2025-05-01T12:16:09Z</time>
      </trkpt>
      <trkpt lat="42.95267497189343" lon="-8.799403002485633">
        <ele>238.06</ele>
        <time>2025-05-01T12:16:10Z</time>
      </trkpt>
      <trkpt lat="42.950974032282829" lon="-8.798167007043958">
        <ele>251.03999999999999</ele>
        <time>2025-05-01T12:16:18Z</time>
      </trkpt>
      <trkpt lat="42.950804969295859" lon="-8.79795502871275">
        <ele>252.96000000000001</ele>
        <time>2025-05-01T12:16:19Z</time>
      </trkpt>
      <trkpt lat="42.949700988829136" lon="-8.796534966677427">
        <ele>264.98000000000002</ele>
        <time>2025-05-01T12:16:26Z</time>
      </trkpt>
      <trkpt lat="42.948932033032179" lon="-8.795829964801669">
        <ele>270.75</ele>
        <time>2025-05-01T12:16:31Z</time>
      </trkpt>
      <trkpt lat="42.948789037764072" lon="-8.795668026432395">
        <ele>272.19</ele>
        <time>2025-05-01T12:16:32Z</time>
      </trkpt>
      <trkpt lat="42.948674038052559" lon="-8.795468034222722">
        <ele>273.14999999999998</ele>
        <time>2025-05-01T12:16:33Z</time>
      </trkpt>
      <trkpt lat="42.948565995320678" lon="-8.795257983729243">
        <ele>273.63</ele>
        <time>2025-05-01T12:16:34Z</time>
      </trkpt>
      <trkpt lat="42.948491983115673" lon="-8.7950149923563">
        <ele>274.11000000000001</ele>
        <time>2025-05-01T12:16:35Z</time>
      </trkpt>
      <trkpt lat="42.948417970910668" lon="-8.794761020690203">
        <ele>274.11000000000001</ele>
        <time>2025-05-01T12:16:36Z</time>
      </trkpt>
      <trkpt lat="42.948051011189818" lon="-8.793748989701271">
        <ele>273.63</ele>
        <time>2025-05-01T12:16:40Z</time>
      </trkpt>
      <trkpt lat="42.947936011478305" lon="-8.793522007763386">
        <ele>273.14999999999998</ele>
        <time>2025-05-01T12:16:41Z</time>
      </trkpt>
      <trkpt lat="42.947800979018211" lon="-8.793326038867235">
        <ele>272.19</ele>
        <time>2025-05-01T12:16:42Z</time>
      </trkpt>
      <trkpt lat="42.947653038427234" lon="-8.793135015293956">
        <ele>271.23000000000002</ele>
        <time>2025-05-01T12:16:43Z</time>
      </trkpt>
      <trkpt lat="42.947490010410547" lon="-8.792977016419172">
        <ele>270.26999999999998</ele>
        <time>2025-05-01T12:16:44Z</time>
      </trkpt>
      <trkpt lat="42.945414986461401" lon="-8.791092010214925">
        <ele>254.41</ele>
        <time>2025-05-01T12:16:56Z</time>
      </trkpt>
      <trkpt lat="42.943567028269172" lon="-8.789411019533873">
        <ele>244.78999999999999</ele>
        <time>2025-05-01T12:17:06Z</time>
      </trkpt>
      <trkpt lat="42.943294029682875" lon="-8.788972981274128">
        <ele>244.31</ele>
        <time>2025-05-01T12:17:08Z</time>
      </trkpt>
      <trkpt lat="42.943181963637471" lon="-8.78873803652823">
        <ele>244.31</ele>
        <time>2025-05-01T12:17:09Z</time>
      </trkpt>
      <trkpt lat="42.94307098723948" lon="-8.788498984649777">
        <ele>244.78999999999999</ele>
        <time>2025-05-01T12:17:10Z</time>
      </trkpt>
      <trkpt lat="42.942979959771037" lon="-8.788244007155299">
        <ele>244.78999999999999</ele>
        <time>2025-05-01T12:17:11Z</time>
      </trkpt>
      <trkpt lat="42.942905025556684" lon="-8.787986012175679">
        <ele>244.78999999999999</ele>
        <time>2025-05-01T12:17:12Z</time>
      </trkpt>
      <trkpt lat="42.942225001752377" lon="-8.786154985427856">
        <ele>240.94999999999999</ele>
        <time>2025-05-01T12:17:20Z</time>
      </trkpt>
      <trkpt lat="42.941489992663264" lon="-8.785393992438912">
        <ele>233.25999999999999</ele>
        <time>2025-05-01T12:17:27Z</time>
      </trkpt>
      <trkpt lat="42.940795971080661" lon="-8.784809019416571">
        <ele>233.74000000000001</ele>
        <time>2025-05-01T12:17:34Z</time>
      </trkpt>
      <trkpt lat="42.94068600051105" lon="-8.784707011654973">
        <ele>233.74000000000001</ele>
        <time>2025-05-01T12:17:35Z</time>
      </trkpt>
      <trkpt lat="42.940623974427581" lon="-8.784582037478685">
        <ele>233.25999999999999</ele>
        <time>2025-05-01T12:17:36Z</time>
      </trkpt>
      <trkpt lat="42.940551973879337" lon="-8.784445999190211">
        <ele>232.78</ele>
        <time>2025-05-01T12:17:37Z</time>
      </trkpt>
      <trkpt lat="42.940480979159474" lon="-8.784309960901737">
        <ele>232.30000000000001</ele>
        <time>2025-05-01T12:17:38Z</time>
      </trkpt>
      <trkpt lat="42.939944034442306" lon="-8.782843966037035">
        <ele>225.09</ele>
        <time>2025-05-01T12:17:47Z</time>
      </trkpt>
      <trkpt lat="42.939515970647335" lon="-8.78203796222806">
        <ele>219.80000000000001</ele>
        <time>2025-05-01T12:17:51Z</time>
      </trkpt>
      <trkpt lat="42.939381022006273" lon="-8.781846016645432">
        <ele>218.84</ele>
        <time>2025-05-01T12:17:52Z</time>
      </trkpt>
      <trkpt lat="42.939230985939503" lon="-8.781667985022068">
        <ele>217.40000000000001</ele>
        <time>2025-05-01T12:17:53Z</time>
      </trkpt>
      <trkpt lat="42.937821988016367" lon="-8.779958998784423">
        <ele>209.22</ele>
        <time>2025-05-01T12:18:02Z</time>
      </trkpt>
      <trkpt lat="42.936917999759316" lon="-8.777943989261985">
        <ele>201.05000000000001</ele>
        <time>2025-05-01T12:18:10Z</time>
      </trkpt>
      <trkpt lat="42.93617301620543" lon="-8.775284998118877">
        <ele>195.77000000000001</ele>
        <time>2025-05-01T12:18:20Z</time>
      </trkpt>
      <trkpt lat="42.935718968510628" lon="-8.774309009313583">
        <ele>193.84</ele>
        <time>2025-05-01T12:18:24Z</time>
      </trkpt>
      <trkpt lat="42.934527983888984" lon="-8.772752992808819">
        <ele>191.91999999999999</ele>
        <time>2025-05-01T12:18:32Z</time>
      </trkpt>
      <trkpt lat="42.93335703201592" lon="-8.771340977400541">
        <ele>191.44</ele>
        <time>2025-05-01T12:18:40Z</time>
      </trkpt>
      <trkpt lat="42.932433011010289" lon="-8.769658980891109">
        <ele>193.84</ele>
        <time>2025-05-01T12:18:48Z</time>
      </trkpt>
      <trkpt lat="42.931249989196658" lon="-8.76716997474432">
        <ele>197.69</ele>
        <time>2025-05-01T12:18:58Z</time>
      </trkpt>
      <trkpt lat="42.929617026820779" lon="-8.763828026130796">
        <ele>204.41999999999999</ele>
        <time>2025-05-01T12:19:12Z</time>
      </trkpt>
      <trkpt lat="42.929263981059194" lon="-8.763170968741179">
        <ele>206.34</ele>
        <time>2025-05-01T12:19:15Z</time>
      </trkpt>
      <trkpt lat="42.928083976730704" lon="-8.761659041047096">
        <ele>206.34</ele>
        <time>2025-05-01T12:19:23Z</time>
      </trkpt>
      <trkpt lat="42.927939975634217" lon="-8.761425018310547">
        <ele>205.86000000000001</ele>
        <time>2025-05-01T12:19:24Z</time>
      </trkpt>
      <trkpt lat="42.927855988964438" lon="-8.761197030544281">
        <ele>205.38</ele>
        <time>2025-05-01T12:19:25Z</time>
      </trkpt>
      <trkpt lat="42.927211001515388" lon="-8.759358962997794">
        <ele>201.53</ele>
        <time>2025-05-01T12:19:33Z</time>
      </trkpt>
      <trkpt lat="42.926369039341807" lon="-8.756871968507767">
        <ele>200.56999999999999</ele>
        <time>2025-05-01T12:19:45Z</time>
      </trkpt>
      <trkpt lat="42.926253033801913" lon="-8.756554964929819">
        <ele>200.09</ele>
        <time>2025-05-01T12:19:47Z</time>
      </trkpt>
      <trkpt lat="42.926036026328802" lon="-8.756372993811965">
        <ele>200.09</ele>
        <time>2025-05-01T12:19:49Z</time>
      </trkpt>
      <trkpt lat="42.926015993580222" lon="-8.756228992715478">
        <ele>200.09</ele>
        <time>2025-05-01T12:19:50Z</time>
      </trkpt>
      <trkpt lat="42.926025968044996" lon="-8.756091026589274">
        <ele>200.09</ele>
        <time>2025-05-01T12:19:51Z</time>
      </trkpt>
      <trkpt lat="42.926086988300085" lon="-8.755949037149549">
        <ele>200.56999999999999</ele>
        <time>2025-05-01T12:19:52Z</time>
      </trkpt>
      <trkpt lat="42.926172986626625" lon="-8.755883993580937">
        <ele>201.05000000000001</ele>
        <time>2025-05-01T12:19:53Z</time>
      </trkpt>
      <trkpt lat="42.92622403241694" lon="-8.75584602355957">
        <ele>201.05000000000001</ele>
        <time>2025-05-01T12:19:54Z</time>
      </trkpt>
      <trkpt lat="42.92635302990675" lon="-8.755632033571601">
        <ele>201.05000000000001</ele>
        <time>2025-05-01T12:19:55Z</time>
      </trkpt>
      <trkpt lat="42.926378007978201" lon="-8.755491971969605">
        <ele>202.00999999999999</ele>
        <time>2025-05-01T12:19:56Z</time>
      </trkpt>
      <trkpt lat="42.926414972171187" lon="-8.755297008901835">
        <ele>202.49000000000001</ele>
        <time>2025-05-01T12:19:57Z</time>
      </trkpt>
      <trkpt lat="42.926455037668347" lon="-8.755080001428723">
        <ele>202.97999999999999</ele>
        <time>2025-05-01T12:19:58Z</time>
      </trkpt>
      <trkpt lat="42.926817974075675" lon="-8.752717981114984">
        <ele>205.86000000000001</ele>
        <time>2025-05-01T12:20:07Z</time>
      </trkpt>
      <trkpt lat="42.927259029820561" lon="-8.749460019171238">
        <ele>208.25999999999999</ele>
        <time>2025-05-01T12:20:18Z</time>
      </trkpt>
      <trkpt lat="42.927190968766809" lon="-8.747355993837118">
        <ele>212.59</ele>
        <time>2025-05-01T12:20:25Z</time>
      </trkpt>
      <trkpt lat="42.926685037091374" lon="-8.745365962386131">
        <ele>219.31999999999999</ele>
        <time>2025-05-01T12:20:32Z</time>
      </trkpt>
      <trkpt lat="42.925745006650686" lon="-8.743567038327456">
        <ele>222.19999999999999</ele>
        <time>2025-05-01T12:20:39Z</time>
      </trkpt>
      <trkpt lat="42.924495013430715" lon="-8.741750009357929">
        <ele>218.84</ele>
        <time>2025-05-01T12:20:47Z</time>
      </trkpt>
      <trkpt lat="42.923670988529921" lon="-8.740408988669515">
        <ele>215.47</ele>
        <time>2025-05-01T12:20:53Z</time>
      </trkpt>
      <trkpt lat="42.921810960397124" lon="-8.737171981483698">
        <ele>206.81999999999999</ele>
        <time>2025-05-01T12:21:07Z</time>
      </trkpt>
      <trkpt lat="42.920485027134418" lon="-8.734649028629065">
        <ele>205.86000000000001</ele>
        <time>2025-05-01T12:21:17Z</time>
      </trkpt>
      <trkpt lat="42.919613979756832" lon="-8.732712976634502">
        <ele>207.30000000000001</ele>
        <time>2025-05-01T12:21:24Z</time>
      </trkpt>
      <trkpt lat="42.918334985151887" lon="-8.729732036590576">
        <ele>207.30000000000001</ele>
        <time>2025-05-01T12:21:35Z</time>
      </trkpt>
      <trkpt lat="42.916974015533924" lon="-8.727369010448456">
        <ele>208.74000000000001</ele>
        <time>2025-05-01T12:21:45Z</time>
      </trkpt>
      <trkpt lat="42.915512965992093" lon="-8.725503031164408">
        <ele>215.94999999999999</ele>
        <time>2025-05-01T12:21:54Z</time>
      </trkpt>
      <trkpt lat="42.914664968848228" lon="-8.724638018757105">
        <ele>220.75999999999999</ele>
        <time>2025-05-01T12:21:59Z</time>
      </trkpt>
      <trkpt lat="42.913195034489036" lon="-8.723448039963841">
        <ele>226.05000000000001</ele>
        <time>2025-05-01T12:22:07Z</time>
      </trkpt>
      <trkpt lat="42.911480013281107" lon="-8.722126968204975">
        <ele>225.09</ele>
        <time>2025-05-01T12:22:16Z</time>
      </trkpt>
      <trkpt lat="42.910275030881166" lon="-8.720529964193702">
        <ele>219.80000000000001</ele>
        <time>2025-05-01T12:22:24Z</time>
      </trkpt>
      <trkpt lat="42.908840971067548" lon="-8.717753039672971">
        <ele>202.49000000000001</ele>
        <time>2025-05-01T12:22:35Z</time>
      </trkpt>
      <trkpt lat="42.907433984801173" lon="-8.714962033554912">
        <ele>193.84</ele>
        <time>2025-05-01T12:22:46Z</time>
      </trkpt>
      <trkpt lat="42.906274013221264" lon="-8.712690034881234">
        <ele>192.88</ele>
        <time>2025-05-01T12:22:55Z</time>
      </trkpt>
      <trkpt lat="42.904859986156225" lon="-8.709925012663007">
        <ele>188.08000000000001</ele>
        <time>2025-05-01T12:23:06Z</time>
      </trkpt>
      <trkpt lat="42.904269983991981" lon="-8.708923039957881">
        <ele>184.22999999999999</ele>
        <time>2025-05-01T12:23:11Z</time>
      </trkpt>
      <trkpt lat="42.903184024617076" lon="-8.707914026454091">
        <ele>176.06</ele>
        <time>2025-05-01T12:23:19Z</time>
      </trkpt>
      <trkpt lat="42.902899039909244" lon="-8.707867003977299">
        <ele>173.66</ele>
        <time>2025-05-01T12:23:21Z</time>
      </trkpt>
      <trkpt lat="42.902812035754323" lon="-8.707852000370622">
        <ele>172.21000000000001</ele>
        <time>2025-05-01T12:23:22Z</time>
      </trkpt>
      <trkpt lat="42.902702987194061" lon="-8.707744963467121">
        <ele>171.72999999999999</ele>
        <time>2025-05-01T12:23:23Z</time>
      </trkpt>
      <trkpt lat="42.902684966102242" lon="-8.707716967910528">
        <ele>170.77000000000001</ele>
        <time>2025-05-01T12:23:24Z</time>
      </trkpt>
      <trkpt lat="42.902638027444482" lon="-8.707445980980992">
        <ele>170.28999999999999</ele>
        <time>2025-05-01T12:23:25Z</time>
      </trkpt>
      <trkpt lat="42.901824982836843" lon="-8.7063870113343">
        <ele>166.44999999999999</ele>
        <time>2025-05-01T12:23:33Z</time>
      </trkpt>
      <trkpt lat="42.900350019335747" lon="-8.704623961821199">
        <ele>163.08000000000001</ele>
        <time>2025-05-01T12:23:44Z</time>
      </trkpt>
      <trkpt lat="42.898971028625965" lon="-8.703109016641974">
        <ele>163.08000000000001</ele>
        <time>2025-05-01T12:23:54Z</time>
      </trkpt>
      <trkpt lat="42.898260997608304" lon="-8.701947033405304">
        <ele>163.56</ele>
        <time>2025-05-01T12:24:02Z</time>
      </trkpt>
      <trkpt lat="42.898221015930176" lon="-8.701846031472087">
        <ele>163.56</ele>
        <time>2025-05-01T12:24:03Z</time>
      </trkpt>
      <trkpt lat="42.898070979863405" lon="-8.701816024258733">
        <ele>163.08000000000001</ele>
        <time>2025-05-01T12:24:04Z</time>
      </trkpt>
      <trkpt lat="42.898030998185277" lon="-8.701748969033361">
        <ele>163.08000000000001</ele>
        <time>2025-05-01T12:24:05Z</time>
      </trkpt>
      <trkpt lat="42.898007025942206" lon="-8.70161603204906">
        <ele>162.59999999999999</ele>
        <time>2025-05-01T12:24:06Z</time>
      </trkpt>
      <trkpt lat="42.898007025942206" lon="-8.701579989865422">
        <ele>162.59999999999999</ele>
        <time>2025-05-01T12:24:07Z</time>
      </trkpt>
      <trkpt lat="42.898042984306812" lon="-8.701363988220692">
        <ele>162.12</ele>
        <time>2025-05-01T12:24:08Z</time>
      </trkpt>
      <trkpt lat="42.898008031770587" lon="-8.701235996559262">
        <ele>162.12</ele>
        <time>2025-05-01T12:24:09Z</time>
      </trkpt>
      <trkpt lat="42.897894959896803" lon="-8.69983303360641">
        <ele>164.52000000000001</ele>
        <time>2025-05-01T12:24:17Z</time>
      </trkpt>
      <trkpt lat="42.89808196015656" lon="-8.698937008157373">
        <ele>166.44999999999999</ele>
        <time>2025-05-01T12:24:21Z</time>
      </trkpt>
      <trkpt lat="42.898162007331848" lon="-8.698713965713978">
        <ele>166.93000000000001</ele>
        <time>2025-05-01T12:24:22Z</time>
      </trkpt>
      <trkpt lat="42.898245994001627" lon="-8.698484972119331">
        <ele>167.41</ele>
        <time>2025-05-01T12:24:23Z</time>
      </trkpt>
      <trkpt lat="42.898364011198282" lon="-8.698281962424517">
        <ele>167.88999999999999</ele>
        <time>2025-05-01T12:24:24Z</time>
      </trkpt>
      <trkpt lat="42.898482028394938" lon="-8.698080964386463">
        <ele>168.37</ele>
        <time>2025-05-01T12:24:25Z</time>
      </trkpt>
      <trkpt lat="42.899261964485049" lon="-8.696859972551465">
        <ele>172.21000000000001</ele>
        <time>2025-05-01T12:24:32Z</time>
      </trkpt>
      <trkpt lat="42.899337988346815" lon="-8.696668026968837">
        <ele>173.16999999999999</ele>
        <time>2025-05-01T12:24:33Z</time>
      </trkpt>
      <trkpt lat="42.899403031915426" lon="-8.696467028930783">
        <ele>173.66</ele>
        <time>2025-05-01T12:24:34Z</time>
      </trkpt>
      <trkpt lat="42.899458017200232" lon="-8.69624700397253">
        <ele>174.13999999999999</ele>
        <time>2025-05-01T12:24:35Z</time>
      </trkpt>
      <trkpt lat="42.899516019970179" lon="-8.696018010377884">
        <ele>174.62</ele>
        <time>2025-05-01T12:24:36Z</time>
      </trkpt>
      <trkpt lat="42.899535968899727" lon="-8.695770995691419">
        <ele>175.09999999999999</ele>
        <time>2025-05-01T12:24:37Z</time>
      </trkpt>
      <trkpt lat="42.899544015526772" lon="-8.695514006540179">
        <ele>175.58000000000001</ele>
        <time>2025-05-01T12:24:38Z</time>
      </trkpt>
      <trkpt lat="42.899551978334785" lon="-8.695249976590276">
        <ele>175.58000000000001</ele>
        <time>2025-05-01T12:24:39Z</time>
      </trkpt>
      <trkpt lat="42.899536974728107" lon="-8.694988964125514">
        <ele>175.58000000000001</ele>
        <time>2025-05-01T12:24:40Z</time>
      </trkpt>
      <trkpt lat="42.899500010535121" lon="-8.694725017994642">
        <ele>175.58000000000001</ele>
        <time>2025-05-01T12:24:41Z</time>
      </trkpt>
      <trkpt lat="42.899445025250316" lon="-8.694468028843403">
        <ele>175.58000000000001</ele>
        <time>2025-05-01T12:24:42Z</time>
      </trkpt>
      <trkpt lat="42.899364978075027" lon="-8.694213973358274">
        <ele>175.58000000000001</ele>
        <time>2025-05-01T12:24:43Z</time>
      </trkpt>
      <trkpt lat="42.899274034425616" lon="-8.693966958671808">
        <ele>175.58000000000001</ele>
        <time>2025-05-01T12:24:44Z</time>
      </trkpt>
      <trkpt lat="42.899169009178877" lon="-8.69373201392591">
        <ele>175.58000000000001</ele>
        <time>2025-05-01T12:24:45Z</time>
      </trkpt>
      <trkpt lat="42.899035988375545" lon="-8.693532021716237">
        <ele>175.58000000000001</ele>
        <time>2025-05-01T12:24:46Z</time>
      </trkpt>
      <trkpt lat="42.898900033906102" lon="-8.693328006193042">
        <ele>176.06</ele>
        <time>2025-05-01T12:24:47Z</time>
      </trkpt>
      <trkpt lat="42.898762989789248" lon="-8.693122984841466">
        <ele>176.06</ele>
        <time>2025-05-01T12:24:48Z</time>
      </trkpt>
      <trkpt lat="42.897028019651771" lon="-8.690911000594497">
        <ele>182.78999999999999</ele>
        <time>2025-05-01T12:24:59Z</time>
      </trkpt>
      <trkpt lat="42.896828027442098" lon="-8.690772028639913">
        <ele>183.27000000000001</ele>
        <time>2025-05-01T12:25:00Z</time>
      </trkpt>
      <trkpt lat="42.895288020372391" lon="-8.689858987927437">
        <ele>191.44</ele>
        <time>2025-05-01T12:25:07Z</time>
      </trkpt>
      <trkpt lat="42.895100014284253" lon="-8.68965296074748">
        <ele>192.88</ele>
        <time>2025-05-01T12:25:08Z</time>
      </trkpt>
      <trkpt lat="42.894923994317651" lon="-8.689433019608259">
        <ele>193.84</ele>
        <time>2025-05-01T12:25:09Z</time>
      </trkpt>
      <trkpt lat="42.894767001271248" lon="-8.689191034063697">
        <ele>195.28</ele>
        <time>2025-05-01T12:25:10Z</time>
      </trkpt>
      <trkpt lat="42.894626017659903" lon="-8.688931027427316">
        <ele>196.72999999999999</ele>
        <time>2025-05-01T12:25:11Z</time>
      </trkpt>
      <trkpt lat="42.894497020170093" lon="-8.688657023012638">
        <ele>197.69</ele>
        <time>2025-05-01T12:25:12Z</time>
      </trkpt>
      <trkpt lat="42.893678024411201" lon="-8.687088014557958">
        <ele>204.41999999999999</ele>
        <time>2025-05-01T12:25:18Z</time>
      </trkpt>
      <trkpt lat="42.893511978909373" lon="-8.686858015134931">
        <ele>205.86000000000001</ele>
        <time>2025-05-01T12:25:19Z</time>
      </trkpt>
      <trkpt lat="42.893330007791519" lon="-8.686652993783355">
        <ele>206.81999999999999</ele>
        <time>2025-05-01T12:25:20Z</time>
      </trkpt>
      <trkpt lat="42.892743023112416" lon="-8.686177991330624">
        <ele>210.66999999999999</ele>
        <time>2025-05-01T12:25:23Z</time>
      </trkpt>
      <trkpt lat="42.891457993537188" lon="-8.685648003593087">
        <ele>214.99000000000001</ele>
        <time>2025-05-01T12:25:30Z</time>
      </trkpt>
      <trkpt lat="42.889497969299555" lon="-8.68513897061348">
        <ele>217.40000000000001</ele>
        <time>2025-05-01T12:25:41Z</time>
      </trkpt>
      <trkpt lat="42.888236995786428" lon="-8.684812998399139">
        <ele>222.19999999999999</ele>
        <time>2025-05-01T12:25:49Z</time>
      </trkpt>
      <trkpt lat="42.887042993679643" lon="-8.684459030628204">
        <ele>224.61000000000001</ele>
        <time>2025-05-01T12:25:57Z</time>
      </trkpt>
      <trkpt lat="42.885772967711091" lon="-8.683817982673645">
        <ele>227.49000000000001</ele>
        <time>2025-05-01T12:26:05Z</time>
      </trkpt>
      <trkpt lat="42.884187027812004" lon="-8.682597996667028">
        <ele>227.49000000000001</ele>
        <time>2025-05-01T12:26:16Z</time>
      </trkpt>
      <trkpt lat="42.882129019126296" lon="-8.680698992684484">
        <ele>230.84999999999999</ele>
        <time>2025-05-01T12:26:31Z</time>
      </trkpt>
      <trkpt lat="42.880898974835873" lon="-8.679211037233472">
        <ele>235.18000000000001</ele>
        <time>2025-05-01T12:26:40Z</time>
      </trkpt>
      <trkpt lat="42.879486037418246" lon="-8.677426027134061">
        <ele>239.02000000000001</ele>
        <time>2025-05-01T12:26:52Z</time>
      </trkpt>
      <trkpt lat="42.878391025587916" lon="-8.676075031980872">
        <ele>233.25999999999999</ele>
        <time>2025-05-01T12:27:01Z</time>
      </trkpt>
      <trkpt lat="42.876896029338241" lon="-8.674081983044744">
        <ele>222.68000000000001</ele>
        <time>2025-05-01T12:27:12Z</time>
      </trkpt>
      <trkpt lat="42.876412980258465" lon="-8.673155028373003">
        <ele>217.40000000000001</ele>
        <time>2025-05-01T12:27:17Z</time>
      </trkpt>
      <trkpt lat="42.876327987760305" lon="-8.672982025891542">
        <ele>216.43000000000001</ele>
        <time>2025-05-01T12:27:18Z</time>
      </trkpt>
      <trkpt lat="42.876174012199044" lon="-8.672595033422113">
        <ele>214.50999999999999</ele>
        <time>2025-05-01T12:27:20Z</time>
      </trkpt>
      <trkpt lat="42.876112991943955" lon="-8.672389006242156">
        <ele>213.55000000000001</ele>
        <time>2025-05-01T12:27:21Z</time>
      </trkpt>
      <trkpt lat="42.876055995002389" lon="-8.6721829790622">
        <ele>212.59</ele>
        <time>2025-05-01T12:27:22Z</time>
      </trkpt>
      <trkpt lat="42.876029005274177" lon="-8.671944011002779">
        <ele>211.15000000000001</ele>
        <time>2025-05-01T12:27:23Z</time>
      </trkpt>
      <trkpt lat="42.876003021374345" lon="-8.671704037114978">
        <ele>210.19</ele>
        <time>2025-05-01T12:27:24Z</time>
      </trkpt>
      <trkpt lat="42.876005033031106" lon="-8.671466996893287">
        <ele>209.22</ele>
        <time>2025-05-01T12:27:25Z</time>
      </trkpt>
      <trkpt lat="42.876029005274177" lon="-8.671227023005486">
        <ele>208.25999999999999</ele>
        <time>2025-05-01T12:27:26Z</time>
      </trkpt>
      <trkpt lat="42.876075021922588" lon="-8.67100297473371">
        <ele>207.30000000000001</ele>
        <time>2025-05-01T12:27:27Z</time>
      </trkpt>
      <trkpt lat="42.876130007207394" lon="-8.670771969482303">
        <ele>205.86000000000001</ele>
        <time>2025-05-01T12:27:28Z</time>
      </trkpt>
      <trkpt lat="42.876204019412398" lon="-8.670554039999843">
        <ele>204.41999999999999</ele>
        <time>2025-05-01T12:27:29Z</time>
      </trkpt>
      <trkpt lat="42.876282976940274" lon="-8.670338960364461">
        <ele>202.97999999999999</ele>
        <time>2025-05-01T12:27:30Z</time>
      </trkpt>
      <trkpt lat="42.876397976651788" lon="-8.67016302421689">
        <ele>201.05000000000001</ele>
        <time>2025-05-01T12:27:31Z</time>
      </trkpt>
      <trkpt lat="42.876520017161965" lon="-8.670001002028585">
        <ele>199.13</ele>
        <time>2025-05-01T12:27:32Z</time>
      </trkpt>
      <trkpt lat="42.876665024086833" lon="-8.669849038124085">
        <ele>197.69</ele>
        <time>2025-05-01T12:27:33Z</time>
      </trkpt>
      <trkpt lat="42.87680902518332" lon="-8.669697996228933">
        <ele>196.72999999999999</ele>
        <time>2025-05-01T12:27:34Z</time>
      </trkpt>
      <trkpt lat="42.876953026279807" lon="-8.669547038152814">
        <ele>195.28</ele>
        <time>2025-05-01T12:27:35Z</time>
      </trkpt>
      <trkpt lat="42.878628987818956" lon="-8.667866969481111">
        <ele>180.87</ele>
        <time>2025-05-01T12:27:46Z</time>
      </trkpt>
      <trkpt lat="42.879354022443295" lon="-8.667057026177645">
        <ele>172.69</ele>
        <time>2025-05-01T12:27:51Z</time>
      </trkpt>
      <trkpt lat="42.879481008276343" lon="-8.666857033967972">
        <ele>170.77000000000001</ele>
        <time>2025-05-01T12:27:52Z</time>
      </trkpt>
      <trkpt lat="42.879684017971158" lon="-8.666392005980015">
        <ele>167.88999999999999</ele>
        <time>2025-05-01T12:27:54Z</time>
      </trkpt>
      <trkpt lat="42.879768004640937" lon="-8.666147002950311">
        <ele>165.96000000000001</ele>
        <time>2025-05-01T12:27:55Z</time>
      </trkpt>
      <trkpt lat="42.879836987704039" lon="-8.665899988263845">
        <ele>164.52000000000001</ele>
        <time>2025-05-01T12:27:56Z</time>
      </trkpt>
      <trkpt lat="42.87986003793776" lon="-8.665638975799084">
        <ele>163.08000000000001</ele>
        <time>2025-05-01T12:27:57Z</time>
      </trkpt>
      <trkpt lat="42.879872024059296" lon="-8.665389027446508">
        <ele>161.63999999999999</ele>
        <time>2025-05-01T12:27:58Z</time>
      </trkpt>
      <trkpt lat="42.87986003793776" lon="-8.665129020810127">
        <ele>160.19999999999999</ele>
        <time>2025-05-01T12:27:59Z</time>
      </trkpt>
      <trkpt lat="42.879835981875658" lon="-8.664867002516985">
        <ele>158.27000000000001</ele>
        <time>2025-05-01T12:28:00Z</time>
      </trkpt>
      <trkpt lat="42.879788959398866" lon="-8.664543963968754">
        <ele>156.83000000000001</ele>
        <time>2025-05-01T12:28:01Z</time>
      </trkpt>
      <trkpt lat="42.879720982164145" lon="-8.664338020607829">
        <ele>155.87</ele>
        <time>2025-05-01T12:28:02Z</time>
      </trkpt>
      <trkpt lat="42.879610005766153" lon="-8.664094023406506">
        <ele>154.91</ele>
        <time>2025-05-01T12:28:03Z</time>
      </trkpt>
      <trkpt lat="42.879477990791202" lon="-8.663860000669956">
        <ele>153.47</ele>
        <time>2025-05-01T12:28:04Z</time>
      </trkpt>
      <trkpt lat="42.879331978037953" lon="-8.663643999025226">
        <ele>152.50999999999999</ele>
        <time>2025-05-01T12:28:05Z</time>
      </trkpt>
      <trkpt lat="42.879165010526776" lon="-8.663443000987172">
        <ele>151.53999999999999</ele>
        <time>2025-05-01T12:28:06Z</time>
      </trkpt>
      <trkpt lat="42.878986978903413" lon="-8.663278967142105">
        <ele>150.09999999999999</ele>
        <time>2025-05-01T12:28:07Z</time>
      </trkpt>
      <trkpt lat="42.878788998350501" lon="-8.663147035986185">
        <ele>149.13999999999999</ele>
        <time>2025-05-01T12:28:08Z</time>
      </trkpt>
      <trkpt lat="42.878589006140828" lon="-8.663020972162485">
        <ele>148.18000000000001</ele>
        <time>2025-05-01T12:28:09Z</time>
      </trkpt>
      <trkpt lat="42.878383984789252" lon="-8.662917958572507">
        <ele>147.22</ele>
        <time>2025-05-01T12:28:10Z</time>
      </trkpt>
      <trkpt lat="42.876945985481143" lon="-8.662196025252342">
        <ele>142.88999999999999</ele>
        <time>2025-05-01T12:28:18Z</time>
      </trkpt>
      <trkpt lat="42.876772982999682" lon="-8.662078008055687">
        <ele>142.41</ele>
        <time>2025-05-01T12:28:19Z</time>
      </trkpt>
      <trkpt lat="42.876604003831744" lon="-8.661959990859032">
        <ele>142.41</ele>
        <time>2025-05-01T12:28:20Z</time>
      </trkpt>
      <trkpt lat="42.876453967764974" lon="-8.661820013076067">
        <ele>141.93000000000001</ele>
        <time>2025-05-01T12:28:21Z</time>
      </trkpt>
      <trkpt lat="42.875554002821445" lon="-8.660510005429387">
        <ele>141.44999999999999</ele>
        <time>2025-05-01T12:28:28Z</time>
      </trkpt>
      <trkpt lat="42.875329032540321" lon="-8.660113960504532">
        <ele>140.49000000000001</ele>
        <time>2025-05-01T12:28:30Z</time>
      </trkpt>
      <trkpt lat="42.875081012025476" lon="-8.659749012440443">
        <ele>139.53</ele>
        <time>2025-05-01T12:28:32Z</time>
      </trkpt>
      <trkpt lat="42.87494002841413" lon="-8.659609034657478">
        <ele>138.56999999999999</ele>
        <time>2025-05-01T12:28:33Z</time>
      </trkpt>
      <trkpt lat="42.874787980690598" lon="-8.659456986933947">
        <ele>138.09</ele>
        <time>2025-05-01T12:28:34Z</time>
      </trkpt>
      <trkpt lat="42.874625036492944" lon="-8.659309968352318">
        <ele>137.61000000000001</ele>
        <time>2025-05-01T12:28:35Z</time>
      </trkpt>
      <trkpt lat="42.874448010697961" lon="-8.659216007217765">
        <ele>137.13</ele>
        <time>2025-05-01T12:28:36Z</time>
      </trkpt>
      <trkpt lat="42.874267967417836" lon="-8.659134032204747">
        <ele>136.16</ele>
        <time>2025-05-01T12:28:37Z</time>
      </trkpt>
      <trkpt lat="42.874087002128363" lon="-8.659074017778039">
        <ele>135.68000000000001</ele>
        <time>2025-05-01T12:28:38Z</time>
      </trkpt>
      <trkpt lat="42.873902013525367" lon="-8.659021966159344">
        <ele>134.72</ele>
        <time>2025-05-01T12:28:39Z</time>
      </trkpt>
      <trkpt lat="42.872460996732116" lon="-8.658878970891237">
        <ele>127.03</ele>
        <time>2025-05-01T12:28:47Z</time>
      </trkpt>
      <trkpt lat="42.870858041569591" lon="-8.658585017547011">
        <ele>116.45999999999999</ele>
        <time>2025-05-01T12:28:58Z</time>
      </trkpt>
      <trkpt lat="42.870111968368292" lon="-8.658406985923648">
        <ele>112.13</ele>
        <time>2025-05-01T12:29:05Z</time>
      </trkpt>
      <trkpt lat="42.870012978091836" lon="-8.65843003615737">
        <ele>111.65000000000001</ele>
        <time>2025-05-01T12:29:06Z</time>
      </trkpt>
      <trkpt lat="42.869917005300522" lon="-8.65845300257206">
        <ele>111.17</ele>
        <time>2025-05-01T12:29:07Z</time>
      </trkpt>
      <trkpt lat="42.869819020852447" lon="-8.65847596898675">
        <ele>110.69</ele>
        <time>2025-05-01T12:29:08Z</time>
      </trkpt>
      <trkpt lat="42.869721036404371" lon="-8.658536989241839">
        <ele>110.20999999999999</ele>
        <time>2025-05-01T12:29:09Z</time>
      </trkpt>
      <trkpt lat="42.869658004492521" lon="-8.658641008660197">
        <ele>109.73</ele>
        <time>2025-05-01T12:29:10Z</time>
      </trkpt>
      <trkpt lat="42.869576029479504" lon="-8.658728012815118">
        <ele>109.73</ele>
        <time>2025-05-01T12:29:11Z</time>
      </trkpt>
      <trkpt lat="42.869477961212397" lon="-8.65877696312964">
        <ele>109.25</ele>
        <time>2025-05-01T12:29:12Z</time>
      </trkpt>
      <trkpt lat="42.869361033663154" lon="-8.658835971727967">
        <ele>108.77</ele>
        <time>2025-05-01T12:29:13Z</time>
      </trkpt>
      <trkpt lat="42.869263971224427" lon="-8.658835971727967">
        <ele>107.81</ele>
        <time>2025-05-01T12:29:14Z</time>
      </trkpt>
      <trkpt lat="42.86915902979672" lon="-8.658791966736317">
        <ele>106.84</ele>
        <time>2025-05-01T12:29:15Z</time>
      </trkpt>
      <trkpt lat="42.869056016206741" lon="-8.65873103030026">
        <ele>106.36</ele>
        <time>2025-05-01T12:29:16Z</time>
      </trkpt>
      <trkpt lat="42.868977980688214" lon="-8.658634973689914">
        <ele>105.40000000000001</ele>
        <time>2025-05-01T12:29:17Z</time>
      </trkpt>
      <trkpt lat="42.868910003453493" lon="-8.658514022827148">
        <ele>104.92</ele>
        <time>2025-05-01T12:29:18Z</time>
      </trkpt>
      <trkpt lat="42.868869015946984" lon="-8.658374967053533">
        <ele>104.44</ele>
        <time>2025-05-01T12:29:19Z</time>
      </trkpt>
      <trkpt lat="42.868801038712263" lon="-8.65821897983551">
        <ele>103.95999999999999</ele>
        <time>2025-05-01T12:29:20Z</time>
      </trkpt>
      <trkpt lat="42.868723003193736" lon="-8.658083025366068">
        <ele>103.48</ele>
        <time>2025-05-01T12:29:21Z</time>
      </trkpt>
      <trkpt lat="42.868638010695577" lon="-8.657956039533019">
        <ele>103</ele>
        <time>2025-05-01T12:29:22Z</time>
      </trkpt>
      <trkpt lat="42.86853700876236" lon="-8.657825030386448">
        <ele>103</ele>
        <time>2025-05-01T12:29:23Z</time>
      </trkpt>
      <trkpt lat="42.86789302714169" lon="-8.657265035435557">
        <ele>99.150000000000006</ele>
        <time>2025-05-01T12:29:31Z</time>
      </trkpt>
      <trkpt lat="42.866866998374462" lon="-8.656508987769485">
        <ele>91.459999999999994</ele>
        <time>2025-05-01T12:29:44Z</time>
      </trkpt>
      <trkpt lat="42.866064012050629" lon="-8.655824018642306">
        <ele>85.689999999999998</ele>
        <time>2025-05-01T12:29:56Z</time>
      </trkpt>
      <trkpt lat="42.865568976849318" lon="-8.655049027875066">
        <ele>80.890000000000001</ele>
        <time>2025-05-01T12:30:04Z</time>
      </trkpt>
      <trkpt lat="42.865482978522778" lon="-8.654945008456707">
        <ele>79.930000000000007</ele>
        <time>2025-05-01T12:30:05Z</time>
      </trkpt>
      <trkpt lat="42.865384994074702" lon="-8.654855992645025">
        <ele>78.969999999999999</ele>
        <time>2025-05-01T12:30:06Z</time>
      </trkpt>
      <trkpt lat="42.865275023505092" lon="-8.654784997925162">
        <ele>78.480000000000004</ele>
        <time>2025-05-01T12:30:07Z</time>
      </trkpt>
      <trkpt lat="42.86516597494483" lon="-8.654714003205299">
        <ele>77.519999999999996</ele>
        <time>2025-05-01T12:30:08Z</time>
      </trkpt>
      <trkpt lat="42.864276990294456" lon="-8.654222991317511">
        <ele>70.790000000000006</ele>
        <time>2025-05-01T12:30:17Z</time>
      </trkpt>
      <trkpt lat="42.864185962826014" lon="-8.654172029346228">
        <ele>69.829999999999998</ele>
        <time>2025-05-01T12:30:18Z</time>
      </trkpt>
      <trkpt lat="42.863550027832389" lon="-8.653800962492824">
        <ele>66.950000000000003</ele>
        <time>2025-05-01T12:30:25Z</time>
      </trkpt>
      <trkpt lat="42.863405020907521" lon="-8.653670037165284">
        <ele>66.469999999999999</ele>
        <time>2025-05-01T12:30:27Z</time>
      </trkpt>
      <trkpt lat="42.862612009048462" lon="-8.652823967859149">
        <ele>62.140000000000001</ele>
        <time>2025-05-01T12:30:38Z</time>
      </trkpt>
      <trkpt lat="42.862560041248798" lon="-8.652766970917583">
        <ele>61.18</ele>
        <time>2025-05-01T12:30:39Z</time>
      </trkpt>
      <trkpt lat="42.862434983253479" lon="-8.652617018669844">
        <ele>58.780000000000001</ele>
        <time>2025-05-01T12:30:42Z</time>
      </trkpt>
      <trkpt lat="42.862401036545634" lon="-8.652580976486206">
        <ele>58.299999999999997</ele>
        <time>2025-05-01T12:30:43Z</time>
      </trkpt>
      <trkpt lat="42.862366000190377" lon="-8.6525450181216">
        <ele>57.82</ele>
        <time>2025-05-01T12:30:44Z</time>
      </trkpt>
      <trkpt lat="42.862224010750651" lon="-8.652393976226449">
        <ele>53.969999999999999</ele>
        <time>2025-05-01T12:30:50Z</time>
      </trkpt>
      <trkpt lat="42.862212024629116" lon="-8.652380984276533">
        <ele>53.490000000000002</ele>
        <time>2025-05-01T12:30:51Z</time>
      </trkpt>
      <trkpt lat="42.862054025754333" lon="-8.652210999280214">
        <ele>49.159999999999997</ele>
        <time>2025-05-01T12:31:02Z</time>
      </trkpt>
      <trkpt lat="42.86157600581646" lon="-8.65166399627924">
        <ele>42.920000000000002</ele>
        <time>2025-05-01T12:31:17Z</time>
      </trkpt>
      <trkpt lat="42.861363021656871" lon="-8.651413964107633">
        <ele>42.439999999999998</ele>
        <time>2025-05-01T12:31:27Z</time>
      </trkpt>
      <trkpt lat="42.861337037757039" lon="-8.65138404071331">
        <ele>41.950000000000003</ele>
        <time>2025-05-01T12:31:29Z</time>
      </trkpt>
      <trkpt lat="42.861314993351698" lon="-8.651356967166066">
        <ele>41.950000000000003</ele>
        <time>2025-05-01T12:31:30Z</time>
      </trkpt>
      <trkpt lat="42.861288003623486" lon="-8.651324026286602">
        <ele>41.950000000000003</ele>
        <time>2025-05-01T12:31:31Z</time>
      </trkpt>
      <trkpt lat="42.860815012827516" lon="-8.650853969156742">
        <ele>40.030000000000001</ele>
        <time>2025-05-01T12:31:45Z</time>
      </trkpt>
      <trkpt lat="42.8605049662292" lon="-8.650537971407175">
        <ele>39.07</ele>
        <time>2025-05-01T12:31:54Z</time>
      </trkpt>
      <trkpt lat="42.860474037006497" lon="-8.65050301887095">
        <ele>39.07</ele>
        <time>2025-05-01T12:31:55Z</time>
      </trkpt>
      <trkpt lat="42.86031000316143" lon="-8.65033496171236">
        <ele>39.07</ele>
        <time>2025-05-01T12:32:00Z</time>
      </trkpt>
      <trkpt lat="42.860241020098329" lon="-8.650360023602843">
        <ele>40.030000000000001</ele>
        <time>2025-05-01T12:32:01Z</time>
      </trkpt>
      <trkpt lat="42.860241020098329" lon="-8.650360023602843">
        <ele>40.509999999999998</ele>
        <time>2025-05-01T12:32:02Z</time>
      </trkpt>
      <trkpt lat="42.860115962103009" lon="-8.650376033037901">
        <ele>40.509999999999998</ele>
        <time>2025-05-01T12:32:03Z</time>
      </trkpt>
      <trkpt lat="42.860089978203177" lon="-8.650426995009184">
        <ele>40.030000000000001</ele>
        <time>2025-05-01T12:32:04Z</time>
      </trkpt>
      <trkpt lat="42.860018983483315" lon="-8.650597985833883">
        <ele>40.030000000000001</ele>
        <time>2025-05-01T12:32:07Z</time>
      </trkpt>
      <trkpt lat="42.860000040382147" lon="-8.65065498277545">
        <ele>40.030000000000001</ele>
        <time>2025-05-01T12:32:08Z</time>
      </trkpt>
      <trkpt lat="42.859958969056606" lon="-8.650779034942389">
        <ele>40.509999999999998</ele>
        <time>2025-05-01T12:32:10Z</time>
      </trkpt>
      <trkpt lat="42.859939020127058" lon="-8.650838965550065">
        <ele>40.509999999999998</ele>
        <time>2025-05-01T12:32:11Z</time>
      </trkpt>
      <trkpt lat="42.859897026792169" lon="-8.650964023545384">
        <ele>40.990000000000002</ele>
        <time>2025-05-01T12:32:13Z</time>
      </trkpt>
      <trkpt lat="42.85985997878015" lon="-8.65108204074204">
        <ele>40.509999999999998</ele>
        <time>2025-05-01T12:32:15Z</time>
      </trkpt>
      <trkpt lat="42.859808010980487" lon="-8.65125697106123">
        <ele>40.030000000000001</ele>
        <time>2025-05-01T12:32:19Z</time>
      </trkpt>
      <trkpt lat="42.859712960198522" lon="-8.651334000751376">
        <ele>40.030000000000001</ele>
        <time>2025-05-01T12:32:20Z</time>
      </trkpt>
      <trkpt lat="42.859679013490677" lon="-8.6512999702245">
        <ele>40.509999999999998</ele>
        <time>2025-05-01T12:32:21Z</time>
      </trkpt>
      <trkpt lat="42.859640037640929" lon="-8.651264011859894">
        <ele>40.509999999999998</ele>
        <time>2025-05-01T12:32:22Z</time>
      </trkpt>
      <trkpt lat="42.859597960487008" lon="-8.651226041838527">
        <ele>40.030000000000001</ele>
        <time>2025-05-01T12:32:23Z</time>
      </trkpt>
      <trkpt lat="42.859554039314389" lon="-8.651185976341367">
        <ele>40.030000000000001</ele>
        <time>2025-05-01T12:32:24Z</time>
      </trkpt>
      <trkpt lat="42.859509028494358" lon="-8.651144988834858">
        <ele>40.030000000000001</ele>
        <time>2025-05-01T12:32:25Z</time>
      </trkpt>
      <trkpt lat="42.859466029331088" lon="-8.65110500715673">
        <ele>39.549999999999997</ele>
        <time>2025-05-01T12:32:26Z</time>
      </trkpt>
      <trkpt lat="42.859423030167818" lon="-8.651065025478602">
        <ele>39.549999999999997</ele>
        <time>2025-05-01T12:32:27Z</time>
      </trkpt>
      <trkpt lat="42.859295038506389" lon="-8.650937033817172">
        <ele>38.590000000000003</ele>
        <time>2025-05-01T12:32:30Z</time>
      </trkpt>
      <trkpt lat="42.859008964151144" lon="-8.650673003867269">
        <ele>38.109999999999999</ele>
        <time>2025-05-01T12:32:37Z</time>
      </trkpt>
      <trkpt lat="42.858964959159493" lon="-8.650628998875618">
        <ele>38.109999999999999</ele>
        <time>2025-05-01T12:32:38Z</time>
      </trkpt>
      <trkpt lat="42.858918020501733" lon="-8.650580970570445">
        <ele>38.109999999999999</ele>
        <time>2025-05-01T12:32:39Z</time>
      </trkpt>
      <trkpt lat="42.858733031898737" lon="-8.65039698779583">
        <ele>37.149999999999999</ele>
        <time>2025-05-01T12:32:43Z</time>
      </trkpt>
      <trkpt lat="42.858639992773533" lon="-8.650304032489657">
        <ele>36.670000000000002</ele>
        <time>2025-05-01T12:32:45Z</time>
      </trkpt>
      <trkpt lat="42.858593976125121" lon="-8.650258015841246">
        <ele>36.189999999999998</ele>
        <time>2025-05-01T12:32:46Z</time>
      </trkpt>
      <trkpt lat="42.85854603163898" lon="-8.650214010849595">
        <ele>36.189999999999998</ele>
        <time>2025-05-01T12:32:47Z</time>
      </trkpt>
      <trkpt lat="42.858498003333807" lon="-8.650176040828228">
        <ele>36.189999999999998</ele>
        <time>2025-05-01T12:32:48Z</time>
      </trkpt>
      <trkpt lat="42.858449975028634" lon="-8.650136981159449">
        <ele>36.670000000000002</ele>
        <time>2025-05-01T12:32:49Z</time>
      </trkpt>
      <trkpt lat="42.858274960890412" lon="-8.649972025305033">
        <ele>36.189999999999998</ele>
        <time>2025-05-01T12:32:53Z</time>
      </trkpt>
      <trkpt lat="42.858232967555523" lon="-8.649940006434917">
        <ele>36.189999999999998</ele>
        <time>2025-05-01T12:32:54Z</time>
      </trkpt>
      <trkpt lat="42.857613964006305" lon="-8.649367019534111">
        <ele>38.109999999999999</ele>
        <time>2025-05-01T12:33:05Z</time>
      </trkpt>
      <trkpt lat="42.857130998745561" lon="-8.648909032344818">
        <ele>40.509999999999998</ele>
        <time>2025-05-01T12:33:12Z</time>
      </trkpt>
      <trkpt lat="42.857053969055414" lon="-8.648844994604588">
        <ele>40.990000000000002</ele>
        <time>2025-05-01T12:33:13Z</time>
      </trkpt>
      <trkpt lat="42.856567986309528" lon="-8.648392036557198">
        <ele>40.990000000000002</ele>
        <time>2025-05-01T12:33:19Z</time>
      </trkpt>
      <trkpt lat="42.855971027165651" lon="-8.647806979715824">
        <ele>40.509999999999998</ele>
        <time>2025-05-01T12:33:25Z</time>
      </trkpt>
      <trkpt lat="42.855893997475505" lon="-8.647643029689789">
        <ele>40.990000000000002</ele>
        <time>2025-05-01T12:33:26Z</time>
      </trkpt>
      <trkpt lat="42.855812022462487" lon="-8.647469021379948">
        <ele>41.469999999999999</ele>
        <time>2025-05-01T12:33:27Z</time>
      </trkpt>
      <trkpt lat="42.855734992772341" lon="-8.647286966443062">
        <ele>41.950000000000003</ele>
        <time>2025-05-01T12:33:28Z</time>
      </trkpt>
      <trkpt lat="42.855665003880858" lon="-8.647100972011685">
        <ele>42.439999999999998</ele>
        <time>2025-05-01T12:33:29Z</time>
      </trkpt>
      <trkpt lat="42.855386976152658" lon="-8.646302009001374">
        <ele>43.399999999999999</ele>
        <time>2025-05-01T12:33:33Z</time>
      </trkpt>
      <trkpt lat="42.855291003361344" lon="-8.64612297154963">
        <ele>43.399999999999999</ele>
        <time>2025-05-01T12:33:34Z</time>
      </trkpt>
      <trkpt lat="42.855182038620114" lon="-8.645975030958653">
        <ele>42.920000000000002</ele>
        <time>2025-05-01T12:33:35Z</time>
      </trkpt>
      <trkpt lat="42.855070978403091" lon="-8.645845027640462">
        <ele>42.920000000000002</ele>
        <time>2025-05-01T12:33:36Z</time>
      </trkpt>
      <trkpt lat="42.854961007833481" lon="-8.645729022100568">
        <ele>41.950000000000003</ele>
        <time>2025-05-01T12:33:37Z</time>
      </trkpt>
      <trkpt lat="42.854841984808445" lon="-8.645635982975364">
        <ele>40.990000000000002</ele>
        <time>2025-05-01T12:33:38Z</time>
      </trkpt>
      <trkpt lat="42.85472396761179" lon="-8.645547972992063">
        <ele>40.030000000000001</ele>
        <time>2025-05-01T12:33:39Z</time>
      </trkpt>
      <trkpt lat="42.854612991213799" lon="-8.645467003807426">
        <ele>39.549999999999997</ele>
        <time>2025-05-01T12:33:40Z</time>
      </trkpt>
      <trkpt lat="42.854503020644188" lon="-8.645406989380717">
        <ele>39.07</ele>
        <time>2025-05-01T12:33:41Z</time>
      </trkpt>
      <trkpt lat="42.854382991790771" lon="-8.645363990217447">
        <ele>38.590000000000003</ele>
        <time>2025-05-01T12:33:42Z</time>
      </trkpt>
      <trkpt lat="42.854262040928006" lon="-8.645321996882558">
        <ele>38.590000000000003</ele>
        <time>2025-05-01T12:33:43Z</time>
      </trkpt>
      <trkpt lat="42.854138994589448" lon="-8.645288972184062">
        <ele>38.109999999999999</ele>
        <time>2025-05-01T12:33:44Z</time>
      </trkpt>
      <trkpt lat="42.854005973786116" lon="-8.645271034911275">
        <ele>38.590000000000003</ele>
        <time>2025-05-01T12:33:45Z</time>
      </trkpt>
      <trkpt lat="42.852584989741445" lon="-8.645172966644168">
        <ele>40.030000000000001</ele>
        <time>2025-05-01T12:33:55Z</time>
      </trkpt>
      <trkpt lat="42.850542990490794" lon="-8.64506701938808">
        <ele>40.509999999999998</ele>
        <time>2025-05-01T12:34:06Z</time>
      </trkpt>
      <trkpt lat="42.848960990086198" lon="-8.644650019705296">
        <ele>39.549999999999997</ele>
        <time>2025-05-01T12:34:14Z</time>
      </trkpt>
      <trkpt lat="42.847533971071243" lon="-8.644260009750724">
        <ele>38.109999999999999</ele>
        <time>2025-05-01T12:34:22Z</time>
      </trkpt>
      <trkpt lat="42.846346003934741" lon="-8.644305020570755">
        <ele>37.630000000000003</ele>
        <time>2025-05-01T12:34:30Z</time>
      </trkpt>
      <trkpt lat="42.846092032268643" lon="-8.644265960901976">
        <ele>37.630000000000003</ele>
        <time>2025-05-01T12:34:32Z</time>
      </trkpt>
      <trkpt lat="42.845970997586846" lon="-8.64423000253737">
        <ele>37.149999999999999</ele>
        <time>2025-05-01T12:34:33Z</time>
      </trkpt>
      <trkpt lat="42.845868989825249" lon="-8.644150961190462">
        <ele>37.149999999999999</ele>
        <time>2025-05-01T12:34:34Z</time>
      </trkpt>
      <trkpt lat="42.845758013427258" lon="-8.644051970914006">
        <ele>36.670000000000002</ele>
        <time>2025-05-01T12:34:35Z</time>
      </trkpt>
      <trkpt lat="42.845689030364156" lon="-8.64394904114306">
        <ele>36.670000000000002</ele>
        <time>2025-05-01T12:34:36Z</time>
      </trkpt>
      <trkpt lat="42.845607977360487" lon="-8.643828006461263">
        <ele>37.149999999999999</ele>
        <time>2025-05-01T12:34:37Z</time>
      </trkpt>
      <trkpt lat="42.845543017610908" lon="-8.643691968172789">
        <ele>37.630000000000003</ele>
        <time>2025-05-01T12:34:38Z</time>
      </trkpt>
      <trkpt lat="42.845480991527438" lon="-8.64354302175343">
        <ele>37.630000000000003</ele>
        <time>2025-05-01T12:34:39Z</time>
      </trkpt>
      <trkpt lat="42.844791999086738" lon="-8.641798999160528">
        <ele>40.030000000000001</ele>
        <time>2025-05-01T12:34:51Z</time>
      </trkpt>
      <trkpt lat="42.844748999923468" lon="-8.641670001670718">
        <ele>40.030000000000001</ele>
        <time>2025-05-01T12:34:52Z</time>
      </trkpt>
      <trkpt lat="42.844601981341839" lon="-8.641537986695766">
        <ele>40.030000000000001</ele>
        <time>2025-05-01T12:34:54Z</time>
      </trkpt>
      <trkpt lat="42.844620002433658" lon="-8.641347968950868">
        <ele>40.030000000000001</ele>
        <time>2025-05-01T12:34:55Z</time>
      </trkpt>
      <trkpt lat="42.844467032700777" lon="-8.640998024493456">
        <ele>39.549999999999997</ele>
        <time>2025-05-01T12:34:58Z</time>
      </trkpt>
      <trkpt lat="42.844229992479086" lon="-8.640602985396981">
        <ele>38.109999999999999</ele>
        <time>2025-05-01T12:35:01Z</time>
      </trkpt>
      <trkpt lat="42.844020025804639" lon="-8.640357982367277">
        <ele>37.630000000000003</ele>
        <time>2025-05-01T12:35:03Z</time>
      </trkpt>
      <trkpt lat="42.843889016658068" lon="-8.640253962948918">
        <ele>37.149999999999999</ele>
        <time>2025-05-01T12:35:04Z</time>
      </trkpt>
      <trkpt lat="42.843749038875103" lon="-8.640142986550927">
        <ele>36.670000000000002</ele>
        <time>2025-05-01T12:35:05Z</time>
      </trkpt>
      <trkpt lat="42.842772966250777" lon="-8.639364978298545">
        <ele>35.710000000000001</ele>
        <time>2025-05-01T12:35:11Z</time>
      </trkpt>
      <trkpt lat="42.842641035094857" lon="-8.639165991917253">
        <ele>35.710000000000001</ele>
        <time>2025-05-01T12:35:12Z</time>
      </trkpt>
      <trkpt lat="42.842541038990021" lon="-8.638958036899567">
        <ele>35.229999999999997</ele>
        <time>2025-05-01T12:35:13Z</time>
      </trkpt>
      <trkpt lat="42.842446994036436" lon="-8.638740023598075">
        <ele>35.229999999999997</ele>
        <time>2025-05-01T12:35:14Z</time>
      </trkpt>
      <trkpt lat="42.842400977388024" lon="-8.638500971719623">
        <ele>35.229999999999997</ele>
        <time>2025-05-01T12:35:15Z</time>
      </trkpt>
      <trkpt lat="42.842365019023418" lon="-8.638249011710286">
        <ele>35.229999999999997</ele>
        <time>2025-05-01T12:35:16Z</time>
      </trkpt>
      <trkpt lat="42.842354960739613" lon="-8.637993028387427">
        <ele>35.710000000000001</ele>
        <time>2025-05-01T12:35:17Z</time>
      </trkpt>
      <trkpt lat="42.84232696518302" lon="-8.637208985164762">
        <ele>38.109999999999999</ele>
        <time>2025-05-01T12:35:20Z</time>
      </trkpt>
      <trkpt lat="42.842311961576343" lon="-8.636946966871619">
        <ele>39.07</ele>
        <time>2025-05-01T12:35:21Z</time>
      </trkpt>
      <trkpt lat="42.842249013483524" lon="-8.636124031618238">
        <ele>42.920000000000002</ele>
        <time>2025-05-01T12:35:24Z</time>
      </trkpt>
      <trkpt lat="42.841933015733957" lon="-8.633671989664435">
        <ele>51.090000000000003</ele>
        <time>2025-05-01T12:35:32Z</time>
      </trkpt>
      <trkpt lat="42.841780968010426" lon="-8.63142597489059">
        <ele>58.299999999999997</ele>
        <time>2025-05-01T12:35:39Z</time>
      </trkpt>
      <trkpt lat="42.841699998825788" lon="-8.631136966869235">
        <ele>59.259999999999998</ele>
        <time>2025-05-01T12:35:40Z</time>
      </trkpt>
      <trkpt lat="42.84159597940743" lon="-8.630857011303306">
        <ele>60.700000000000003</ele>
        <time>2025-05-01T12:35:41Z</time>
      </trkpt>
      <trkpt lat="42.841467987746" lon="-8.630591975525022">
        <ele>61.659999999999997</ele>
        <time>2025-05-01T12:35:42Z</time>
      </trkpt>
      <trkpt lat="42.841339996084571" lon="-8.630327023565769">
        <ele>63.100000000000001</ele>
        <time>2025-05-01T12:35:43Z</time>
      </trkpt>
      <trkpt lat="42.841181997209787" lon="-8.630079003050923">
        <ele>64.549999999999997</ele>
        <time>2025-05-01T12:35:44Z</time>
      </trkpt>
      <trkpt lat="42.84101502969861" lon="-8.629855960607529">
        <ele>65.989999999999995</ele>
        <time>2025-05-01T12:35:45Z</time>
      </trkpt>
      <trkpt lat="42.840327965095639" lon="-8.628922970965505">
        <ele>72.719999999999999</ele>
        <time>2025-05-01T12:35:50Z</time>
      </trkpt>
      <trkpt lat="42.840250013396144" lon="-8.628721972927451">
        <ele>74.640000000000001</ele>
        <time>2025-05-01T12:35:51Z</time>
      </trkpt>
      <trkpt lat="42.840173989534378" lon="-8.62852499820292">
        <ele>76.560000000000002</ele>
        <time>2025-05-01T12:35:52Z</time>
      </trkpt>
      <trkpt lat="42.840102994814515" lon="-8.628341015428305">
        <ele>78.480000000000004</ele>
        <time>2025-05-01T12:35:53Z</time>
      </trkpt>
      <trkpt lat="42.840054966509342" lon="-8.628159966319799">
        <ele>80.890000000000001</ele>
        <time>2025-05-01T12:35:54Z</time>
      </trkpt>
      <trkpt lat="42.839959999546409" lon="-8.627545991912484">
        <ele>89.060000000000002</ele>
        <time>2025-05-01T12:35:58Z</time>
      </trkpt>
      <trkpt lat="42.839936027303338" lon="-8.627413976937532">
        <ele>90.5</ele>
        <time>2025-05-01T12:35:59Z</time>
      </trkpt>
      <trkpt lat="42.8397480212152" lon="-8.627247009426355">
        <ele>92.420000000000002</ele>
        <time>2025-05-01T12:36:01Z</time>
      </trkpt>
      <trkpt lat="42.839712984859943" lon="-8.627113988623023">
        <ele>92.900000000000006</ele>
        <time>2025-05-01T12:36:02Z</time>
      </trkpt>
      <trkpt lat="42.839735029265285" lon="-8.626980967819691">
        <ele>93.870000000000005</ele>
        <time>2025-05-01T12:36:03Z</time>
      </trkpt>
      <trkpt lat="42.839797977358103" lon="-8.626882983371615">
        <ele>94.829999999999998</ele>
        <time>2025-05-01T12:36:04Z</time>
      </trkpt>
      <trkpt lat="42.839866038411856" lon="-8.626849036663771">
        <ele>95.310000000000002</ele>
        <time>2025-05-01T12:36:05Z</time>
      </trkpt>
      <trkpt lat="42.839969974011183" lon="-8.626904021948576">
        <ele>95.790000000000006</ele>
        <time>2025-05-01T12:36:06Z</time>
      </trkpt>
      <trkpt lat="42.840007022023201" lon="-8.626927994191647">
        <ele>96.269999999999996</ele>
        <time>2025-05-01T12:36:07Z</time>
      </trkpt>
      <trkpt lat="42.840164015069604" lon="-8.627055985853076">
        <ele>96.75</ele>
        <time>2025-05-01T12:36:08Z</time>
      </trkpt>
      <trkpt lat="42.840282032266259" lon="-8.627026984468103">
        <ele>96.75</ele>
        <time>2025-05-01T12:36:09Z</time>
      </trkpt>
      <trkpt lat="42.840425027534366" lon="-8.626994965597987">
        <ele>97.230000000000004</ele>
        <time>2025-05-01T12:36:10Z</time>
      </trkpt>
      <trkpt lat="42.840583026409149" lon="-8.626960013061762">
        <ele>97.709999999999994</ele>
        <time>2025-05-01T12:36:11Z</time>
      </trkpt>
      <trkpt lat="42.840717975050211" lon="-8.626898992806673">
        <ele>97.709999999999994</ele>
        <time>2025-05-01T12:36:12Z</time>
      </trkpt>
      <trkpt lat="42.840873962268233" lon="-8.626809976994991">
        <ele>98.189999999999998</ele>
        <time>2025-05-01T12:36:13Z</time>
      </trkpt>
      <trkpt lat="42.841031039133668" lon="-8.626720039173961">
        <ele>98.189999999999998</ele>
        <time>2025-05-01T12:36:14Z</time>
      </trkpt>
      <trkpt lat="42.841134974732995" lon="-8.626625994220376">
        <ele>98.670000000000002</ele>
        <time>2025-05-01T12:36:15Z</time>
      </trkpt>
      <trkpt lat="42.841242011636496" lon="-8.626498002558947">
        <ele>99.629999999999995</ele>
        <time>2025-05-01T12:36:16Z</time>
      </trkpt>
      <trkpt lat="42.841339996084571" lon="-8.626380991190672">
        <ele>100.59999999999999</ele>
        <time>2025-05-01T12:36:17Z</time>
      </trkpt>
      <trkpt lat="42.841435968875885" lon="-8.62626800313592">
        <ele>101.08</ele>
        <time>2025-05-01T12:36:18Z</time>
      </trkpt>
      <trkpt lat="42.841563960537314" lon="-8.626145040616393">
        <ele>102.04000000000001</ele>
        <time>2025-05-01T12:36:19Z</time>
      </trkpt>
      <trkpt lat="42.841679966077209" lon="-8.626105980947614">
        <ele>103</ele>
        <time>2025-05-01T12:36:20Z</time>
      </trkpt>
      <trkpt lat="42.841817010194063" lon="-8.626091983169317">
        <ele>103.95999999999999</ele>
        <time>2025-05-01T12:36:21Z</time>
      </trkpt>
      <trkpt lat="42.841937961056828" lon="-8.626091983169317">
        <ele>104.92</ele>
        <time>2025-05-01T12:36:22Z</time>
      </trkpt>
      <trkpt lat="42.842065030708909" lon="-8.626103969290853">
        <ele>105.88</ele>
        <time>2025-05-01T12:36:23Z</time>
      </trkpt>
      <trkpt lat="42.842181036248803" lon="-8.62613900564611">
        <ele>106.84</ele>
        <time>2025-05-01T12:36:24Z</time>
      </trkpt>
      <trkpt lat="42.842768020927906" lon="-8.626127019524574">
        <ele>110.69</ele>
        <time>2025-05-01T12:36:29Z</time>
      </trkpt>
      <trkpt lat="42.842874974012375" lon="-8.626073962077498">
        <ele>111.17</ele>
        <time>2025-05-01T12:36:30Z</time>
      </trkpt>
      <trkpt lat="42.842979999259114" lon="-8.626020988449454">
        <ele>111.65000000000001</ele>
        <time>2025-05-01T12:36:31Z</time>
      </trkpt>
      <trkpt lat="42.84307798370719" lon="-8.625953011214733">
        <ele>112.61</ele>
        <time>2025-05-01T12:36:32Z</time>
      </trkpt>
      <trkpt lat="42.843166999518871" lon="-8.625883022323251">
        <ele>113.09</ele>
        <time>2025-05-01T12:36:33Z</time>
      </trkpt>
      <trkpt lat="42.843311000615358" lon="-8.625770034268498">
        <ele>114.53</ele>
        <time>2025-05-01T12:36:35Z</time>
      </trkpt>
      <trkpt lat="42.843389958143234" lon="-8.625678000971675">
        <ele>117.90000000000001</ele>
        <time>2025-05-01T12:36:41Z</time>
      </trkpt>
      <trkpt lat="42.84361501224339" lon="-8.625357979908586">
        <ele>122.70999999999999</ele>
        <time>2025-05-01T12:36:46Z</time>
      </trkpt>
      <trkpt lat="42.843821039423347" lon="-8.625060003250837">
        <ele>124.63</ele>
        <time>2025-05-01T12:36:49Z</time>
      </trkpt>
      <trkpt lat="42.84389303997159" lon="-8.624955983832479">
        <ele>125.11</ele>
        <time>2025-05-01T12:36:50Z</time>
      </trkpt>
      <trkpt lat="42.843965040519834" lon="-8.624850958585739">
        <ele>125.59</ele>
        <time>2025-05-01T12:36:51Z</time>
      </trkpt>
      <trkpt lat="42.844249019399285" lon="-8.624563040211797">
        <ele>127.51000000000001</ele>
        <time>2025-05-01T12:36:54Z</time>
      </trkpt>
      <trkpt lat="42.844343986362219" lon="-8.62444200553">
        <ele>128.47</ele>
        <time>2025-05-01T12:36:55Z</time>
      </trkpt>
      <trkpt lat="42.844420010223985" lon="-8.624316025525332">
        <ele>129.43000000000001</ele>
        <time>2025-05-01T12:36:56Z</time>
      </trkpt>
      <trkpt lat="42.844486981630325" lon="-8.624169006943703">
        <ele>129.91999999999999</ele>
        <time>2025-05-01T12:36:57Z</time>
      </trkpt>
      <trkpt lat="42.844541966915131" lon="-8.624026011675596">
        <ele>130.88</ele>
        <time>2025-05-01T12:36:58Z</time>
      </trkpt>
      <trkpt lat="42.844579014927149" lon="-8.623871030285955">
        <ele>131.36000000000001</ele>
        <time>2025-05-01T12:36:59Z</time>
      </trkpt>
      <trkpt lat="42.844606004655361" lon="-8.623740021139383">
        <ele>131.84</ele>
        <time>2025-05-01T12:37:00Z</time>
      </trkpt>
      <trkpt lat="42.844741037115455" lon="-8.622814994305372">
        <ele>137.13</ele>
        <time>2025-05-01T12:37:09Z</time>
      </trkpt>
      <trkpt lat="42.844765009358525" lon="-8.622620031237602">
        <ele>138.09</ele>
        <time>2025-05-01T12:37:11Z</time>
      </trkpt>
      <trkpt lat="42.844789987429976" lon="-8.622533027082682">
        <ele>138.56999999999999</ele>
        <time>2025-05-01T12:37:12Z</time>
      </trkpt>
      <trkpt lat="42.844850001856685" lon="-8.622464966028929">
        <ele>139.05000000000001</ele>
        <time>2025-05-01T12:37:13Z</time>
      </trkpt>
      <trkpt lat="42.844920996576548" lon="-8.622420961037278">
        <ele>139.53</ele>
        <time>2025-05-01T12:37:14Z</time>
      </trkpt>
      <trkpt lat="42.844994002953172" lon="-8.622375028207898">
        <ele>139.05000000000001</ele>
        <time>2025-05-01T12:37:15Z</time>
      </trkpt>
      <trkpt lat="42.845069020986557" lon="-8.622329011559486">
        <ele>139.05000000000001</ele>
        <time>2025-05-01T12:37:16Z</time>
      </trkpt>
      <trkpt lat="42.845143033191562" lon="-8.622274026274681">
        <ele>138.56999999999999</ele>
        <time>2025-05-01T12:37:17Z</time>
      </trkpt>
      <trkpt lat="42.845211010426283" lon="-8.622219962999225">
        <ele>138.09</ele>
        <time>2025-05-01T12:37:18Z</time>
      </trkpt>
      <trkpt lat="42.8460200317204" lon="-8.621602971106768">
        <ele>133.28</ele>
        <time>2025-05-01T12:37:28Z</time>
      </trkpt>
      <trkpt lat="42.84657902084291" lon="-8.621243974193931">
        <ele>130.40000000000001</ele>
        <time>2025-05-01T12:37:34Z</time>
      </trkpt>
      <trkpt lat="42.846674993634224" lon="-8.621230982244015">
        <ele>129.43000000000001</ele>
        <time>2025-05-01T12:37:35Z</time>
      </trkpt>
      <trkpt lat="42.846799967810512" lon="-8.621254032477737">
        <ele>128.47</ele>
        <time>2025-05-01T12:37:36Z</time>
      </trkpt>
      <trkpt lat="42.846936006098986" lon="-8.621298959478736">
        <ele>127.51000000000001</ele>
        <time>2025-05-01T12:37:37Z</time>
      </trkpt>
      <trkpt lat="42.847067015245557" lon="-8.621355034410954">
        <ele>126.55</ele>
        <time>2025-05-01T12:37:38Z</time>
      </trkpt>
      <trkpt lat="42.847195006906986" lon="-8.621409013867378">
        <ele>126.06999999999999</ele>
        <time>2025-05-01T12:37:39Z</time>
      </trkpt>
      <trkpt lat="42.847319981083274" lon="-8.621461987495422">
        <ele>125.11</ele>
        <time>2025-05-01T12:37:40Z</time>
      </trkpt>
      <trkpt lat="42.84778400324285" lon="-8.621555026620626">
        <ele>121.73999999999999</ele>
        <time>2025-05-01T12:37:44Z</time>
      </trkpt>
      <trkpt lat="42.848555976524949" lon="-8.621495012193918">
        <ele>121.73999999999999</ele>
        <time>2025-05-01T12:37:51Z</time>
      </trkpt>
      <trkpt lat="42.849635984748602" lon="-8.621375989168882">
        <ele>127.51000000000001</ele>
        <time>2025-05-01T12:38:00Z</time>
      </trkpt>
      <trkpt lat="42.849750984460115" lon="-8.621323015540838">
        <ele>127.98999999999999</ele>
        <time>2025-05-01T12:38:01Z</time>
      </trkpt>
      <trkpt lat="42.849857015535235" lon="-8.621237017214298">
        <ele>127.51000000000001</ele>
        <time>2025-05-01T12:38:02Z</time>
      </trkpt>
      <trkpt lat="42.849956005811691" lon="-8.621121011674404">
        <ele>127.03</ele>
        <time>2025-05-01T12:38:03Z</time>
      </trkpt>
      <trkpt lat="42.850049966946244" lon="-8.621009029448032">
        <ele>127.03</ele>
        <time>2025-05-01T12:38:04Z</time>
      </trkpt>
      <trkpt lat="42.850387003272772" lon="-8.620624970644712">
        <ele>125.59</ele>
        <time>2025-05-01T12:38:08Z</time>
      </trkpt>
      <trkpt lat="42.850456992164254" lon="-8.620555987581611">
        <ele>126.06999999999999</ele>
        <time>2025-05-01T12:38:09Z</time>
      </trkpt>
      <trkpt lat="42.850497979670763" lon="-8.620515000075102">
        <ele>126.06999999999999</ele>
        <time>2025-05-01T12:38:10Z</time>
      </trkpt>
      <trkpt lat="42.850599987432361" lon="-8.620412992313504">
        <ele>126.06999999999999</ele>
        <time>2025-05-01T12:38:12Z</time>
      </trkpt>
      <trkpt lat="42.850661007687449" lon="-8.620350966230035">
        <ele>125.59</ele>
        <time>2025-05-01T12:38:13Z</time>
      </trkpt>
      <trkpt lat="42.850804002955556" lon="-8.620197996497154">
        <ele>125.59</ele>
        <time>2025-05-01T12:38:15Z</time>
      </trkpt>
      <trkpt lat="42.850870974361897" lon="-8.62010101787746">
        <ele>125.11</ele>
        <time>2025-05-01T12:38:16Z</time>
      </trkpt>
      <trkpt lat="42.850938029587269" lon="-8.620004039257765">
        <ele>125.11</ele>
        <time>2025-05-01T12:38:17Z</time>
      </trkpt>
      <trkpt lat="42.851533982902765" lon="-8.618996031582356">
        <ele>121.26000000000001</ele>
        <time>2025-05-01T12:38:28Z</time>
      </trkpt>
      <trkpt lat="42.851604977622628" lon="-8.618926964700222">
        <ele>121.26000000000001</ele>
        <time>2025-05-01T12:38:29Z</time>
      </trkpt>
      <trkpt lat="42.852475019171834" lon="-8.618287006393075">
        <ele>112.13</ele>
        <time>2025-05-01T12:38:40Z</time>
      </trkpt>
      <trkpt lat="42.853516973555088" lon="-8.617510003969073">
        <ele>99.629999999999995</ele>
        <time>2025-05-01T12:38:53Z</time>
      </trkpt>
      <trkpt lat="42.85450603812933" lon="-8.6167729832232">
        <ele>90.980000000000004</ele>
        <time>2025-05-01T12:39:06Z</time>
      </trkpt>
      <trkpt lat="42.855398962274194" lon="-8.616113997995853">
        <ele>93.390000000000001</ele>
        <time>2025-05-01T12:39:18Z</time>
      </trkpt>
      <trkpt lat="42.855708003044128" lon="-8.615904031321406">
        <ele>94.349999999999994</ele>
        <time>2025-05-01T12:39:22Z</time>
      </trkpt>
      <trkpt lat="42.856064988300204" lon="-8.615577975288034">
        <ele>95.310000000000002</ele>
        <time>2025-05-01T12:39:27Z</time>
      </trkpt>
      <trkpt lat="42.856126008555293" lon="-8.615493988618255">
        <ele>95.790000000000006</ele>
        <time>2025-05-01T12:39:28Z</time>
      </trkpt>
      <trkpt lat="42.85616397857666" lon="-8.615390975028276">
        <ele>95.790000000000006</ele>
        <time>2025-05-01T12:39:29Z</time>
      </trkpt>
      <trkpt lat="42.856192979961634" lon="-8.615278992801905">
        <ele>95.790000000000006</ele>
        <time>2025-05-01T12:39:30Z</time>
      </trkpt>
      <trkpt lat="42.856222987174988" lon="-8.615163993090391">
        <ele>96.269999999999996</ele>
        <time>2025-05-01T12:39:31Z</time>
      </trkpt>
      <trkpt lat="42.856559017673135" lon="-8.613878963515163">
        <ele>99.150000000000006</ele>
        <time>2025-05-01T12:39:43Z</time>
      </trkpt>
      <trkpt lat="42.856862023472786" lon="-8.612695019692183">
        <ele>106.84</ele>
        <time>2025-05-01T12:39:53Z</time>
      </trkpt>
      <trkpt lat="42.857197970151901" lon="-8.611275041475892">
        <ele>118.38</ele>
        <time>2025-05-01T12:40:02Z</time>
      </trkpt>
      <trkpt lat="42.857730975374579" lon="-8.60908099450171">
        <ele>129.43000000000001</ele>
        <time>2025-05-01T12:40:16Z</time>
      </trkpt>
      <trkpt lat="42.857730975374579" lon="-8.608921989798546">
        <ele>130.40000000000001</ele>
        <time>2025-05-01T12:40:17Z</time>
      </trkpt>
      <trkpt lat="42.857730975374579" lon="-8.608269961550832">
        <ele>135.19999999999999</ele>
        <time>2025-05-01T12:40:21Z</time>
      </trkpt>
      <trkpt lat="42.857730975374579" lon="-8.608088996261358">
        <ele>136.16</ele>
        <time>2025-05-01T12:40:22Z</time>
      </trkpt>
      <trkpt lat="42.857785960659385" lon="-8.607953963801265">
        <ele>137.13</ele>
        <time>2025-05-01T12:40:23Z</time>
      </trkpt>
      <trkpt lat="42.857843963429332" lon="-8.60781298018992">
        <ele>138.09</ele>
        <time>2025-05-01T12:40:24Z</time>
      </trkpt>
      <trkpt lat="42.857914958149195" lon="-8.607676019892097">
        <ele>139.05000000000001</ele>
        <time>2025-05-01T12:40:25Z</time>
      </trkpt>
      <trkpt lat="42.857998022809625" lon="-8.607559008523822">
        <ele>139.53</ele>
        <time>2025-05-01T12:40:26Z</time>
      </trkpt>
      <trkpt lat="42.858081003651023" lon="-8.607439985498786">
        <ele>140.00999999999999</ele>
        <time>2025-05-01T12:40:27Z</time>
      </trkpt>
      <trkpt lat="42.858327012509108" lon="-8.607076965272427">
        <ele>142.41</ele>
        <time>2025-05-01T12:40:30Z</time>
      </trkpt>
      <trkpt lat="42.859354969114065" lon="-8.60564399510622">
        <ele>153.94999999999999</ele>
        <time>2025-05-01T12:40:42Z</time>
      </trkpt>
      <trkpt lat="42.860167007893324" lon="-8.604427026584745">
        <ele>153.94999999999999</ele>
        <time>2025-05-01T12:40:52Z</time>
      </trkpt>
      <trkpt lat="42.860227022320032" lon="-8.604288976639509">
        <ele>153.47</ele>
        <time>2025-05-01T12:40:53Z</time>
      </trkpt>
      <trkpt lat="42.860254012048244" lon="-8.604131983593106">
        <ele>152.99000000000001</ele>
        <time>2025-05-01T12:40:54Z</time>
      </trkpt>
      <trkpt lat="42.860279995948076" lon="-8.603974990546703">
        <ele>152.03</ele>
        <time>2025-05-01T12:40:55Z</time>
      </trkpt>
      <trkpt lat="42.860304974019527" lon="-8.603809028863907">
        <ele>151.53999999999999</ele>
        <time>2025-05-01T12:40:56Z</time>
      </trkpt>
      <trkpt lat="42.86028703674674" lon="-8.60364499501884">
        <ele>151.06</ele>
        <time>2025-05-01T12:40:57Z</time>
      </trkpt>
      <trkpt lat="42.860269015654922" lon="-8.603482972830534">
        <ele>150.09999999999999</ele>
        <time>2025-05-01T12:40:58Z</time>
      </trkpt>
      <trkpt lat="42.860252000391483" lon="-8.603320028632879">
        <ele>149.62</ele>
        <time>2025-05-01T12:40:59Z</time>
      </trkpt>
      <trkpt lat="42.860163990408182" lon="-8.602830022573471">
        <ele>147.69999999999999</ele>
        <time>2025-05-01T12:41:02Z</time>
      </trkpt>
      <trkpt lat="42.860144963487983" lon="-8.602665988728404">
        <ele>147.22</ele>
        <time>2025-05-01T12:41:03Z</time>
      </trkpt>
      <trkpt lat="42.860149992629886" lon="-8.602511007338762">
        <ele>146.25999999999999</ele>
        <time>2025-05-01T12:41:04Z</time>
      </trkpt>
      <trkpt lat="42.860188968479633" lon="-8.602356025949121">
        <ele>145.78</ele>
        <time>2025-05-01T12:41:05Z</time>
      </trkpt>
      <trkpt lat="42.860248982906342" lon="-8.602215964347124">
        <ele>145.30000000000001</ele>
        <time>2025-05-01T12:41:06Z</time>
      </trkpt>
      <trkpt lat="42.860317965969443" lon="-8.602077998220921">
        <ele>144.34</ele>
        <time>2025-05-01T12:41:07Z</time>
      </trkpt>
      <trkpt lat="42.860391978174448" lon="-8.601929973810911">
        <ele>143.84999999999999</ele>
        <time>2025-05-01T12:41:08Z</time>
      </trkpt>
      <trkpt lat="42.860460039228201" lon="-8.601811034604907">
        <ele>143.37</ele>
        <time>2025-05-01T12:41:09Z</time>
      </trkpt>
      <trkpt lat="42.86052499897778" lon="-8.601697040721774">
        <ele>142.41</ele>
        <time>2025-05-01T12:41:10Z</time>
      </trkpt>
      <trkpt lat="42.86054402589798" lon="-8.601543987169862">
        <ele>141.93000000000001</ele>
        <time>2025-05-01T12:41:11Z</time>
      </trkpt>
      <trkpt lat="42.860498009249568" lon="-8.60141197219491">
        <ele>141.44999999999999</ele>
        <time>2025-05-01T12:41:12Z</time>
      </trkpt>
      <trkpt lat="42.860419973731041" lon="-8.601326979696751">
        <ele>140.97</ele>
        <time>2025-05-01T12:41:13Z</time>
      </trkpt>
      <trkpt lat="42.860333975404501" lon="-8.601234024390578">
        <ele>140.97</ele>
        <time>2025-05-01T12:41:14Z</time>
      </trkpt>
      <trkpt lat="42.860199026763439" lon="-8.601093040779233">
        <ele>140.97</ele>
        <time>2025-05-01T12:41:15Z</time>
      </trkpt>
      <trkpt lat="42.860105987638235" lon="-8.601077031344175">
        <ele>140.49000000000001</ele>
        <time>2025-05-01T12:41:16Z</time>
      </trkpt>
      <trkpt lat="42.85880696028471" lon="-8.600776959210634">
        <ele>139.05000000000001</ele>
        <time>2025-05-01T12:41:25Z</time>
      </trkpt>
      <trkpt lat="42.857480021193624" lon="-8.600600017234683">
        <ele>140.97</ele>
        <time>2025-05-01T12:41:32Z</time>
      </trkpt>
      <trkpt lat="42.855371972545981" lon="-8.600768996402621">
        <ele>147.22</ele>
        <time>2025-05-01T12:41:41Z</time>
      </trkpt>
      <trkpt lat="42.85350096412003" lon="-8.600691966712475">
        <ele>154.91</ele>
        <time>2025-05-01T12:41:49Z</time>
      </trkpt>
      <trkpt lat="42.851831959560513" lon="-8.600071035325527">
        <ele>164.52000000000001</ele>
        <time>2025-05-01T12:41:57Z</time>
      </trkpt>
      <trkpt lat="42.850177036598325" lon="-8.598717022687197">
        <ele>174.13999999999999</ele>
        <time>2025-05-01T12:42:06Z</time>
      </trkpt>
      <trkpt lat="42.849011030048132" lon="-8.597036032006145">
        <ele>180.87</ele>
        <time>2025-05-01T12:42:14Z</time>
      </trkpt>
      <trkpt lat="42.848168984055519" lon="-8.595617981627584">
        <ele>188.08000000000001</ele>
        <time>2025-05-01T12:42:21Z</time>
      </trkpt>
      <trkpt lat="42.847180003300309" lon="-8.594402018934488">
        <ele>194.31999999999999</ele>
        <time>2025-05-01T12:42:29Z</time>
      </trkpt>
      <trkpt lat="42.846857970580459" lon="-8.594241002574563">
        <ele>196.25</ele>
        <time>2025-05-01T12:42:31Z</time>
      </trkpt>
      <trkpt lat="42.846703995019197" lon="-8.594163972884417">
        <ele>196.72999999999999</ele>
        <time>2025-05-01T12:42:32Z</time>
      </trkpt>
      <trkpt lat="42.84602103754878" lon="-8.593994993716478">
        <ele>197.21000000000001</ele>
        <time>2025-05-01T12:42:37Z</time>
      </trkpt>
      <trkpt lat="42.845926992595196" lon="-8.59397697262466">
        <ele>197.21000000000001</ele>
        <time>2025-05-01T12:42:38Z</time>
      </trkpt>
      <trkpt lat="42.845833031460643" lon="-8.594075040891767">
        <ele>197.69</ele>
        <time>2025-05-01T12:42:39Z</time>
      </trkpt>
      <trkpt lat="42.845800006762147" lon="-8.594141006469727">
        <ele>198.16999999999999</ele>
        <time>2025-05-01T12:42:40Z</time>
      </trkpt>
      <trkpt lat="42.84580897539854" lon="-8.594258017838001">
        <ele>198.16999999999999</ele>
        <time>2025-05-01T12:42:41Z</time>
      </trkpt>
      <trkpt lat="42.845818027853966" lon="-8.59436497092247">
        <ele>198.16999999999999</ele>
        <time>2025-05-01T12:42:42Z</time>
      </trkpt>
      <trkpt lat="42.845858009532094" lon="-8.59447100199759">
        <ele>198.16999999999999</ele>
        <time>2025-05-01T12:42:43Z</time>
      </trkpt>
      <trkpt lat="42.845926992595196" lon="-8.594568986445665">
        <ele>198.65000000000001</ele>
        <time>2025-05-01T12:42:44Z</time>
      </trkpt>
      <trkpt lat="42.845998993143439" lon="-8.594672000035644">
        <ele>198.65000000000001</ele>
        <time>2025-05-01T12:42:45Z</time>
      </trkpt>
      <trkpt lat="42.846320020034909" lon="-8.595128981396556">
        <ele>199.13</ele>
        <time>2025-05-01T12:42:50Z</time>
      </trkpt>
      <trkpt lat="42.846342986449599" lon="-8.595162006095052">
        <ele>199.13</ele>
        <time>2025-05-01T12:42:51Z</time>
      </trkpt>
      <trkpt lat="42.846416998654604" lon="-8.595182960852981">
        <ele>199.13</ele>
        <time>2025-05-01T12:42:52Z</time>
      </trkpt>
      <trkpt lat="42.846452035009861" lon="-8.595153959468007">
        <ele>198.65000000000001</ele>
        <time>2025-05-01T12:42:53Z</time>
      </trkpt>
      <trkpt lat="42.846502996981144" lon="-8.595111966133118">
        <ele>198.65000000000001</ele>
        <time>2025-05-01T12:42:54Z</time>
      </trkpt>
      <trkpt lat="42.846562005579472" lon="-8.595062009990215">
        <ele>198.16999999999999</ele>
        <time>2025-05-01T12:42:55Z</time>
      </trkpt>
      <trkpt lat="42.847039019688964" lon="-8.594662025570869">
        <ele>195.28</ele>
        <time>2025-05-01T12:43:00Z</time>
      </trkpt>
      <trkpt lat="42.847259966656566" lon="-8.594442000612617">
        <ele>192.88</ele>
        <time>2025-05-01T12:43:02Z</time>
      </trkpt>
      <trkpt lat="42.847560038790107" lon="-8.593824002891779">
        <ele>188.56</ele>
        <time>2025-05-01T12:43:06Z</time>
      </trkpt>
      <trkpt lat="42.847608989104629" lon="-8.593644965440035">
        <ele>187.59</ele>
        <time>2025-05-01T12:43:07Z</time>
      </trkpt>
      <trkpt lat="42.847666991874576" lon="-8.593369033187628">
        <ele>187.11000000000001</ele>
        <time>2025-05-01T12:43:08Z</time>
      </trkpt>
      <trkpt lat="42.847578981891274" lon="-8.592318026348949">
        <ele>188.08000000000001</ele>
        <time>2025-05-01T12:43:15Z</time>
      </trkpt>
      <trkpt lat="42.847570013254881" lon="-8.592181988060474">
        <ele>189.52000000000001</ele>
        <time>2025-05-01T12:43:16Z</time>
      </trkpt>
      <trkpt lat="42.847471022978425" lon="-8.590823030099273">
        <ele>199.13</ele>
        <time>2025-05-01T12:43:26Z</time>
      </trkpt>
      <trkpt lat="42.84735300578177" lon="-8.58918403275311">
        <ele>207.30000000000001</ele>
        <time>2025-05-01T12:43:38Z</time>
      </trkpt>
      <trkpt lat="42.847307994961739" lon="-8.588515995070338">
        <ele>208.74000000000001</ele>
        <time>2025-05-01T12:43:46Z</time>
      </trkpt>
      <trkpt lat="42.847305983304977" lon="-8.588487999513745">
        <ele>209.22</ele>
        <time>2025-05-01T12:43:47Z</time>
      </trkpt>
      <trkpt lat="42.847304977476597" lon="-8.588434020057321">
        <ele>209.22</ele>
        <time>2025-05-01T12:43:48Z</time>
      </trkpt>
      <trkpt lat="42.847351999953389" lon="-8.588437959551811">
        <ele>209.22</ele>
        <time>2025-05-01T12:43:49Z</time>
      </trkpt>
      <trkpt lat="42.84741603769362" lon="-8.588443994522095">
        <ele>208.74000000000001</ele>
        <time>2025-05-01T12:43:50Z</time>
      </trkpt>
      <trkpt lat="42.847488038241863" lon="-8.588450029492378">
        <ele>208.74000000000001</ele>
        <time>2025-05-01T12:43:51Z</time>
      </trkpt>
      <trkpt lat="42.848223969340324" lon="-8.588520018383861">
        <ele>209.22</ele>
        <time>2025-05-01T12:43:58Z</time>
      </trkpt>
      <trkpt lat="42.848899969831109" lon="-8.588580032810569">
        <ele>209.22</ele>
        <time>2025-05-01T12:44:06Z</time>
      </trkpt>
      <trkpt lat="42.849793983623385" lon="-8.588656978681684">
        <ele>204.90000000000001</ele>
        <time>2025-05-01T12:44:17Z</time>
      </trkpt>
      <trkpt lat="42.850974993780255" lon="-8.588793016970158">
        <ele>201.05000000000001</ele>
        <time>2025-05-01T12:44:31Z</time>
      </trkpt>
      <trkpt lat="42.851215973496437" lon="-8.588853031396866">
        <ele>200.56999999999999</ele>
        <time>2025-05-01T12:44:34Z</time>
      </trkpt>
      <trkpt lat="42.851826008409262" lon="-8.589018993079662">
        <ele>200.09</ele>
        <time>2025-05-01T12:44:41Z</time>
      </trkpt>
      <trkpt lat="42.852095989510417" lon="-8.589059980586171">
        <ele>200.56999999999999</ele>
        <time>2025-05-01T12:44:44Z</time>
      </trkpt>
      <trkpt lat="42.852864023298025" lon="-8.589067021384835">
        <ele>200.56999999999999</ele>
        <time>2025-05-01T12:44:52Z</time>
      </trkpt>
      <trkpt lat="42.854103958234191" lon="-8.589024022221565">
        <ele>196.25</ele>
        <time>2025-05-01T12:45:05Z</time>
      </trkpt>
      <trkpt lat="42.854596981778741" lon="-8.588998038321734">
        <ele>194.80000000000001</ele>
        <time>2025-05-01T12:45:09Z</time>
      </trkpt>
      <trkpt lat="42.855037031695247" lon="-8.588879015296698">
        <ele>193.36000000000001</ele>
        <time>2025-05-01T12:45:13Z</time>
      </trkpt>
      <trkpt lat="42.855759970843792" lon="-8.588630994781852">
        <ele>188.56</ele>
        <time>2025-05-01T12:45:20Z</time>
      </trkpt>
      <trkpt lat="42.855855021625757" lon="-8.588596964254975">
        <ele>187.59</ele>
        <time>2025-05-01T12:45:21Z</time>
      </trkpt>
      <trkpt lat="42.856174036860466" lon="-8.588363025337458">
        <ele>186.63</ele>
        <time>2025-05-01T12:45:25Z</time>
      </trkpt>
      <trkpt lat="42.856215024366975" lon="-8.588256994262338">
        <ele>187.11000000000001</ele>
        <time>2025-05-01T12:45:26Z</time>
      </trkpt>
      <trkpt lat="42.856254000216722" lon="-8.588133025914431">
        <ele>187.59</ele>
        <time>2025-05-01T12:45:27Z</time>
      </trkpt>
      <trkpt lat="42.856431026011705" lon="-8.587363986298442">
        <ele>190.47999999999999</ele>
        <time>2025-05-01T12:45:33Z</time>
      </trkpt>
      <trkpt lat="42.856515012681484" lon="-8.587129041552544">
        <ele>190.47999999999999</ele>
        <time>2025-05-01T12:45:35Z</time>
      </trkpt>
      <trkpt lat="42.856546025723219" lon="-8.586996020749211">
        <ele>190.47999999999999</ele>
        <time>2025-05-01T12:45:36Z</time>
      </trkpt>
      <trkpt lat="42.856600005179644" lon="-8.586892001330853">
        <ele>190.47999999999999</ele>
        <time>2025-05-01T12:45:37Z</time>
      </trkpt>
      <trkpt lat="42.856648033484817" lon="-8.586812037974596">
        <ele>190</ele>
        <time>2025-05-01T12:45:38Z</time>
      </trkpt>
      <trkpt lat="42.856697989627719" lon="-8.586753029376268">
        <ele>190</ele>
        <time>2025-05-01T12:45:39Z</time>
      </trkpt>
      <trkpt lat="42.856778036803007" lon="-8.586725033819675">
        <ele>189.52000000000001</ele>
        <time>2025-05-01T12:45:40Z</time>
      </trkpt>
      <trkpt lat="42.856884989887476" lon="-8.586686979979277">
        <ele>189.52000000000001</ele>
        <time>2025-05-01T12:45:41Z</time>
      </trkpt>
      <trkpt lat="42.85704399459064" lon="-8.586630988866091">
        <ele>189.52000000000001</ele>
        <time>2025-05-01T12:45:42Z</time>
      </trkpt>
      <trkpt lat="42.857128987088799" lon="-8.586531998589635">
        <ele>189.52000000000001</ele>
        <time>2025-05-01T12:45:43Z</time>
      </trkpt>
      <trkpt lat="42.857225965708494" lon="-8.586419010534883">
        <ele>189.52000000000001</ele>
        <time>2025-05-01T12:45:44Z</time>
      </trkpt>
      <trkpt lat="42.857316993176937" lon="-8.586312979459763">
        <ele>190</ele>
        <time>2025-05-01T12:45:45Z</time>
      </trkpt>
      <trkpt lat="42.857403997331858" lon="-8.586211977526546">
        <ele>190</ele>
        <time>2025-05-01T12:45:46Z</time>
      </trkpt>
      <trkpt lat="42.857496030628681" lon="-8.58613695949316">
        <ele>190</ele>
        <time>2025-05-01T12:45:47Z</time>
      </trkpt>
      <trkpt lat="42.857598038390279" lon="-8.586068982258439">
        <ele>190</ele>
        <time>2025-05-01T12:45:48Z</time>
      </trkpt>
      <trkpt lat="42.857697028666735" lon="-8.586006034165621">
        <ele>190</ele>
        <time>2025-05-01T12:45:49Z</time>
      </trkpt>
      <trkpt lat="42.857809010893106" lon="-8.585978038609028">
        <ele>190</ele>
        <time>2025-05-01T12:45:50Z</time>
      </trkpt>
      <trkpt lat="42.857919987291098" lon="-8.585976026952267">
        <ele>190.47999999999999</ele>
        <time>2025-05-01T12:45:51Z</time>
      </trkpt>
      <trkpt lat="42.858018977567554" lon="-8.585992036387324">
        <ele>190.96000000000001</ele>
        <time>2025-05-01T12:45:52Z</time>
      </trkpt>
      <trkpt lat="42.85884995944798" lon="-8.586237039417028">
        <ele>191.44</ele>
        <time>2025-05-01T12:46:01Z</time>
      </trkpt>
      <trkpt lat="42.858936963602901" lon="-8.586265034973621">
        <ele>191.44</ele>
        <time>2025-05-01T12:46:02Z</time>
      </trkpt>
      <trkpt lat="42.85957901738584" lon="-8.586475001648068">
        <ele>190.47999999999999</ele>
        <time>2025-05-01T12:46:10Z</time>
      </trkpt>
      <trkpt lat="42.85957901738584" lon="-8.586475001648068">
        <ele>189.52000000000001</ele>
        <time>2025-05-01T12:46:19Z</time>
      </trkpt>
      <trkpt lat="42.85977297462523" lon="-8.586634006351233">
        <ele>189.03999999999999</ele>
        <time>2025-05-01T12:46:35Z</time>
      </trkpt>
      <trkpt lat="42.859829971566796" lon="-8.58669200912118">
        <ele>188.56</ele>
        <time>2025-05-01T12:46:36Z</time>
      </trkpt>
      <trkpt lat="42.859984030947089" lon="-8.586781024932861">
        <ele>187.59</ele>
        <time>2025-05-01T12:46:38Z</time>
      </trkpt>
      <trkpt lat="42.860057037323713" lon="-8.586812959983945">
        <ele>187.11000000000001</ele>
        <time>2025-05-01T12:46:39Z</time>
      </trkpt>
      <trkpt lat="42.860125014558434" lon="-8.586841961368918">
        <ele>186.63</ele>
        <time>2025-05-01T12:46:40Z</time>
      </trkpt>
      <trkpt lat="42.860284019261599" lon="-8.586910022422671">
        <ele>185.19</ele>
        <time>2025-05-01T12:46:42Z</time>
      </trkpt>
      <trkpt lat="42.860369011759758" lon="-8.586945980787277">
        <ele>184.71000000000001</ele>
        <time>2025-05-01T12:46:43Z</time>
      </trkpt>
      <trkpt lat="42.860946021974087" lon="-8.58707900159061">
        <ele>180.87</ele>
        <time>2025-05-01T12:46:49Z</time>
      </trkpt>
      <trkpt lat="42.861609030514956" lon="-8.587322998791933">
        <ele>179.41999999999999</ele>
        <time>2025-05-01T12:46:57Z</time>
      </trkpt>
      <trkpt lat="42.861787984147668" lon="-8.587361974641681">
        <ele>178.94</ele>
        <time>2025-05-01T12:46:59Z</time>
      </trkpt>
      <trkpt lat="42.861870964989066" lon="-8.587335990741849">
        <ele>179.41999999999999</ele>
        <time>2025-05-01T12:47:00Z</time>
      </trkpt>
      <trkpt lat="42.861958974972367" lon="-8.587309001013637">
        <ele>179.90000000000001</ele>
        <time>2025-05-01T12:47:01Z</time>
      </trkpt>
      <trkpt lat="42.862258041277528" lon="-8.587124012410641">
        <ele>180.87</ele>
        <time>2025-05-01T12:47:05Z</time>
      </trkpt>
      <trkpt lat="42.862303974106908" lon="-8.587069027125835">
        <ele>181.34999999999999</ele>
        <time>2025-05-01T12:47:06Z</time>
      </trkpt>
      <trkpt lat="42.862347979098558" lon="-8.58701697550714">
        <ele>181.34999999999999</ele>
        <time>2025-05-01T12:47:07Z</time>
      </trkpt>
      <trkpt lat="42.862384021282196" lon="-8.58697397634387">
        <ele>181.34999999999999</ele>
        <time>2025-05-01T12:47:08Z</time>
      </trkpt>
      <trkpt lat="42.86241302266717" lon="-8.586939023807645">
        <ele>181.83000000000001</ele>
        <time>2025-05-01T12:47:09Z</time>
      </trkpt>
      <trkpt lat="42.86247898824513" lon="-8.586875991895795">
        <ele>181.83000000000001</ele>
        <time>2025-05-01T12:47:10Z</time>
      </trkpt>
      <trkpt lat="42.862513018772006" lon="-8.58692703768611">
        <ele>181.83000000000001</ele>
        <time>2025-05-01T12:47:11Z</time>
      </trkpt>
      <trkpt lat="42.862554006278515" lon="-8.586988979950547">
        <ele>181.83000000000001</ele>
        <time>2025-05-01T12:47:12Z</time>
      </trkpt>
      <trkpt lat="42.862593987956643" lon="-8.587066009640694">
        <ele>182.31</ele>
        <time>2025-05-01T12:47:13Z</time>
      </trkpt>
      <trkpt lat="42.862621983513236" lon="-8.58712200075388">
        <ele>182.78999999999999</ele>
        <time>2025-05-01T12:47:18Z</time>
      </trkpt>
      <trkpt lat="42.862695995718241" lon="-8.587210010737181">
        <ele>182.78999999999999</ele>
        <time>2025-05-01T12:47:24Z</time>
      </trkpt>
      <trkpt lat="42.862747963517904" lon="-8.587210010737181">
        <ele>182.78999999999999</ele>
        <time>2025-05-01T12:47:25Z</time>
      </trkpt>
      <trkpt lat="42.862810995429754" lon="-8.587210010737181">
        <ele>182.31</ele>
        <time>2025-05-01T12:47:26Z</time>
      </trkpt>
      <trkpt lat="42.862881990149617" lon="-8.587201964110136">
        <ele>182.31</ele>
        <time>2025-05-01T12:47:27Z</time>
      </trkpt>
      <trkpt lat="42.862963965162635" lon="-8.587172962725163">
        <ele>182.31</ele>
        <time>2025-05-01T12:47:28Z</time>
      </trkpt>
      <trkpt lat="42.863048035651445" lon="-8.58714303933084">
        <ele>182.31</ele>
        <time>2025-05-01T12:47:29Z</time>
      </trkpt>
      <trkpt lat="42.863127999007702" lon="-8.587114037945867">
        <ele>182.31</ele>
        <time>2025-05-01T12:47:30Z</time>
      </trkpt>
      <trkpt lat="42.863191030919552" lon="-8.587047988548875">
        <ele>181.83000000000001</ele>
        <time>2025-05-01T12:47:31Z</time>
      </trkpt>
      <trkpt lat="42.863237969577312" lon="-8.586965007707477">
        <ele>181.34999999999999</ele>
        <time>2025-05-01T12:47:32Z</time>
      </trkpt>
      <trkpt lat="42.863282980397344" lon="-8.58688697218895">
        <ele>180.87</ele>
        <time>2025-05-01T12:47:33Z</time>
      </trkpt>
      <trkpt lat="42.863331008702517" lon="-8.586802985519171">
        <ele>180.38</ele>
        <time>2025-05-01T12:47:34Z</time>
      </trkpt>
      <trkpt lat="42.863349029794335" lon="-8.586744982749224">
        <ele>177.97999999999999</ele>
        <time>2025-05-01T12:47:40Z</time>
      </trkpt>
      <trkpt lat="42.863349029794335" lon="-8.586744982749224">
        <ele>177.5</ele>
        <time>2025-05-01T12:47:54Z</time>
      </trkpt>
      <trkpt lat="42.863375013694167" lon="-8.586666025221348">
        <ele>176.53999999999999</ele>
        <time>2025-05-01T12:48:02Z</time>
      </trkpt>
      <trkpt lat="42.863290021196008" lon="-8.586874986067414">
        <ele>174.62</ele>
        <time>2025-05-01T12:48:06Z</time>
      </trkpt>
      <trkpt lat="42.863236963748932" lon="-8.586967019364238">
        <ele>174.62</ele>
        <time>2025-05-01T12:48:07Z</time>
      </trkpt>
      <trkpt lat="42.863180972635746" lon="-8.587066009640694">
        <ele>174.62</ele>
        <time>2025-05-01T12:48:08Z</time>
      </trkpt>
      <trkpt lat="42.863110983744264" lon="-8.587119989097118">
        <ele>175.09999999999999</ele>
        <time>2025-05-01T12:48:09Z</time>
      </trkpt>
      <trkpt lat="42.863029008731246" lon="-8.587149996310473">
        <ele>175.09999999999999</ele>
        <time>2025-05-01T12:48:10Z</time>
      </trkpt>
      <trkpt lat="42.862957008183002" lon="-8.587174974381924">
        <ele>175.09999999999999</ele>
        <time>2025-05-01T12:48:11Z</time>
      </trkpt>
      <trkpt lat="42.862901017069817" lon="-8.587195007130504">
        <ele>175.58000000000001</ele>
        <time>2025-05-01T12:48:12Z</time>
      </trkpt>
      <trkpt lat="42.862859023734927" lon="-8.587210010737181">
        <ele>175.58000000000001</ele>
        <time>2025-05-01T12:48:13Z</time>
      </trkpt>
      <trkpt lat="42.862824993208051" lon="-8.587210010737181">
        <ele>176.06</ele>
        <time>2025-05-01T12:48:14Z</time>
      </trkpt>
      <trkpt lat="42.862778976559639" lon="-8.587210010737181">
        <ele>176.06</ele>
        <time>2025-05-01T12:48:15Z</time>
      </trkpt>
      <trkpt lat="42.862731032073498" lon="-8.587210010737181">
        <ele>176.53999999999999</ele>
        <time>2025-05-01T12:48:16Z</time>
      </trkpt>
      <trkpt lat="42.862687027081847" lon="-8.587210010737181">
        <ele>176.53999999999999</ele>
        <time>2025-05-01T12:48:17Z</time>
      </trkpt>
      <trkpt lat="42.862630030140281" lon="-8.587138010188937">
        <ele>177.02000000000001</ele>
        <time>2025-05-01T12:48:18Z</time>
      </trkpt>
      <trkpt lat="42.862601028755307" lon="-8.58707900159061">
        <ele>177.02000000000001</ele>
        <time>2025-05-01T12:48:19Z</time>
      </trkpt>
      <trkpt lat="42.862559035420418" lon="-8.586996020749211">
        <ele>177.02000000000001</ele>
        <time>2025-05-01T12:48:20Z</time>
      </trkpt>
      <trkpt lat="42.862530034035444" lon="-8.586952015757561">
        <ele>177.5</ele>
        <time>2025-05-01T12:48:21Z</time>
      </trkpt>
      <trkpt lat="42.86249902099371" lon="-8.586905999109149">
        <ele>177.97999999999999</ele>
        <time>2025-05-01T12:48:22Z</time>
      </trkpt>
      <trkpt lat="42.86247898824513" lon="-8.586876997724176">
        <ele>178.46000000000001</ele>
        <time>2025-05-01T12:48:23Z</time>
      </trkpt>
      <trkpt lat="42.862476976588368" lon="-8.586861994117498">
        <ele>178.46000000000001</ele>
        <time>2025-05-01T12:48:24Z</time>
      </trkpt>
      <trkpt lat="42.862508995458484" lon="-8.586824024096131">
        <ele>178.94</ele>
        <time>2025-05-01T12:48:25Z</time>
      </trkpt>
      <trkpt lat="42.862548977136612" lon="-8.586773984134197">
        <ele>178.94</ele>
        <time>2025-05-01T12:48:26Z</time>
      </trkpt>
      <trkpt lat="42.862599017098546" lon="-8.586712963879108">
        <ele>179.41999999999999</ele>
        <time>2025-05-01T12:48:27Z</time>
      </trkpt>
      <trkpt lat="42.862662971019745" lon="-8.586635012179613">
        <ele>179.41999999999999</ele>
        <time>2025-05-01T12:48:28Z</time>
      </trkpt>
      <trkpt lat="42.862732037901878" lon="-8.586551025509834">
        <ele>179.41999999999999</ele>
        <time>2025-05-01T12:48:29Z</time>
      </trkpt>
      <trkpt lat="42.86290998570621" lon="-8.586217006668448">
        <ele>179.41999999999999</ele>
        <time>2025-05-01T12:48:32Z</time>
      </trkpt>
      <trkpt lat="42.862948961555958" lon="-8.586080968379974">
        <ele>179.41999999999999</ele>
        <time>2025-05-01T12:48:33Z</time>
      </trkpt>
      <trkpt lat="42.863154988735914" lon="-8.585363980382681">
        <ele>178.94</ele>
        <time>2025-05-01T12:48:38Z</time>
      </trkpt>
      <trkpt lat="42.863192958757281" lon="-8.585235988721252">
        <ele>178.94</ele>
        <time>2025-05-01T12:48:39Z</time>
      </trkpt>
      <trkpt lat="42.863223971799016" lon="-8.585129035636783">
        <ele>178.46000000000001</ele>
        <time>2025-05-01T12:48:40Z</time>
      </trkpt>
      <trkpt lat="42.863223971799016" lon="-8.585129035636783">
        <ele>178.46000000000001</ele>
        <time>2025-05-01T12:48:41Z</time>
      </trkpt>
      <trkpt lat="42.863293960690498" lon="-8.584880009293556">
        <ele>178.46000000000001</ele>
        <time>2025-05-01T12:48:42Z</time>
      </trkpt>
      <trkpt lat="42.863282980397344" lon="-8.584750005975366">
        <ele>178.46000000000001</ele>
        <time>2025-05-01T12:48:43Z</time>
      </trkpt>
      <trkpt lat="42.863272000104189" lon="-8.584617991000414">
        <ele>178.94</ele>
        <time>2025-05-01T12:48:44Z</time>
      </trkpt>
      <trkpt lat="42.863261019811034" lon="-8.584488993510604">
        <ele>179.90000000000001</ele>
        <time>2025-05-01T12:48:45Z</time>
      </trkpt>
      <trkpt lat="42.863250039517879" lon="-8.584367036819458">
        <ele>180.38</ele>
        <time>2025-05-01T12:48:46Z</time>
      </trkpt>
      <trkpt lat="42.863224977627397" lon="-8.584248013794422">
        <ele>181.34999999999999</ele>
        <time>2025-05-01T12:48:47Z</time>
      </trkpt>
      <trkpt lat="42.863191030919552" lon="-8.58413603156805">
        <ele>182.31</ele>
        <time>2025-05-01T12:48:48Z</time>
      </trkpt>
      <trkpt lat="42.863160017877817" lon="-8.584035029634833">
        <ele>183.27000000000001</ele>
        <time>2025-05-01T12:48:49Z</time>
      </trkpt>
      <trkpt lat="42.863168986514211" lon="-8.583922041580081">
        <ele>184.71000000000001</ele>
        <time>2025-05-01T12:48:50Z</time>
      </trkpt>
      <trkpt lat="42.863178960978985" lon="-8.583805030211806">
        <ele>186.15000000000001</ele>
        <time>2025-05-01T12:48:51Z</time>
      </trkpt>
      <trkpt lat="42.863229000940919" lon="-8.583715008571744">
        <ele>188.08000000000001</ele>
        <time>2025-05-01T12:48:52Z</time>
      </trkpt>
      <trkpt lat="42.863298989832401" lon="-8.583623981103301">
        <ele>189.52000000000001</ele>
        <time>2025-05-01T12:48:53Z</time>
      </trkpt>
      <trkpt lat="42.863364033401012" lon="-8.583539994433522">
        <ele>190.96000000000001</ele>
        <time>2025-05-01T12:48:54Z</time>
      </trkpt>
      <trkpt lat="42.863432010635734" lon="-8.583479980006814">
        <ele>191.91999999999999</ele>
        <time>2025-05-01T12:48:55Z</time>
      </trkpt>
      <trkpt lat="42.863506022840738" lon="-8.583441004157066">
        <ele>192.88</ele>
        <time>2025-05-01T12:48:56Z</time>
      </trkpt>
      <trkpt lat="42.863579029217362" lon="-8.583403034135699">
        <ele>193.84</ele>
        <time>2025-05-01T12:48:57Z</time>
      </trkpt>
      <trkpt lat="42.863649018108845" lon="-8.583366991952062">
        <ele>194.31999999999999</ele>
        <time>2025-05-01T12:48:58Z</time>
      </trkpt>
      <trkpt lat="42.863713977858424" lon="-8.583332961425185">
        <ele>194.80000000000001</ele>
        <time>2025-05-01T12:48:59Z</time>
      </trkpt>
      <trkpt lat="42.863883962854743" lon="-8.583245035260916">
        <ele>196.25</ele>
        <time>2025-05-01T12:49:02Z</time>
      </trkpt>
      <trkpt lat="42.863937020301819" lon="-8.583217961713672">
        <ele>196.72999999999999</ele>
        <time>2025-05-01T12:49:03Z</time>
      </trkpt>
      <trkpt lat="42.863990999758244" lon="-8.583153001964092">
        <ele>197.21000000000001</ele>
        <time>2025-05-01T12:49:04Z</time>
      </trkpt>
      <trkpt lat="42.864022012799978" lon="-8.583065997809172">
        <ele>197.69</ele>
        <time>2025-05-01T12:49:05Z</time>
      </trkpt>
      <trkpt lat="42.864053025841713" lon="-8.582979999482632">
        <ele>198.16999999999999</ele>
        <time>2025-05-01T12:49:06Z</time>
      </trkpt>
      <trkpt lat="42.864078003913164" lon="-8.582910010591149">
        <ele>199.13</ele>
        <time>2025-05-01T12:49:07Z</time>
      </trkpt>
      <trkpt lat="42.864098036661744" lon="-8.582853013649583">
        <ele>199.61000000000001</ele>
        <time>2025-05-01T12:49:08Z</time>
      </trkpt>
      <trkpt lat="42.864118991419673" lon="-8.582794005051255">
        <ele>200.56999999999999</ele>
        <time>2025-05-01T12:49:09Z</time>
      </trkpt>
      <trkpt lat="42.864142963662744" lon="-8.582728039473295">
        <ele>201.05000000000001</ele>
        <time>2025-05-01T12:49:10Z</time>
      </trkpt>
      <trkpt lat="42.864194009453058" lon="-8.582515977323055">
        <ele>202.49000000000001</ele>
        <time>2025-05-01T12:49:13Z</time>
      </trkpt>
      <trkpt lat="42.864198032766581" lon="-8.582448000088334">
        <ele>203.46000000000001</ele>
        <time>2025-05-01T12:49:14Z</time>
      </trkpt>
      <trkpt lat="42.864201972261071" lon="-8.582382034510374">
        <ele>203.94</ele>
        <time>2025-05-01T12:49:15Z</time>
      </trkpt>
      <trkpt lat="42.864209013059735" lon="-8.582271980121732">
        <ele>206.81999999999999</ele>
        <time>2025-05-01T12:49:22Z</time>
      </trkpt>
      <trkpt lat="42.864209013059735" lon="-8.582271980121732">
        <ele>210.19</ele>
        <time>2025-05-01T12:49:34Z</time>
      </trkpt>
      <trkpt lat="42.864209013059735" lon="-8.582271980121732">
        <ele>210.66999999999999</ele>
        <time>2025-05-01T12:49:35Z</time>
      </trkpt>
      <trkpt lat="42.864209013059735" lon="-8.582271980121732">
        <ele>211.15000000000001</ele>
        <time>2025-05-01T12:49:36Z</time>
      </trkpt>
      <trkpt lat="42.864215970039368" lon="-8.582167038694024">
        <ele>211.15000000000001</ele>
        <time>2025-05-01T12:49:37Z</time>
      </trkpt>
      <trkpt lat="42.864243965595961" lon="-8.58215999789536">
        <ele>211.63</ele>
        <time>2025-05-01T12:49:38Z</time>
      </trkpt>
      <trkpt lat="42.864287970587611" lon="-8.582149017602205">
        <ele>211.63</ele>
        <time>2025-05-01T12:49:39Z</time>
      </trkpt>
      <trkpt lat="42.864514030516148" lon="-8.582092020660639">
        <ele>211.15000000000001</ele>
        <time>2025-05-01T12:49:44Z</time>
      </trkpt>
      <trkpt lat="42.864602962508798" lon="-8.582069976255298">
        <ele>210.66999999999999</ele>
        <time>2025-05-01T12:49:46Z</time>
      </trkpt>
      <trkpt lat="42.864699019119143" lon="-8.582046004012227">
        <ele>210.19</ele>
        <time>2025-05-01T12:49:48Z</time>
      </trkpt>
      <trkpt lat="42.864831034094095" lon="-8.582012979313731">
        <ele>210.19</ele>
        <time>2025-05-01T12:49:51Z</time>
      </trkpt>
      <trkpt lat="42.864955002442002" lon="-8.582009961828589">
        <ele>209.69999999999999</ele>
        <time>2025-05-01T12:49:54Z</time>
      </trkpt>
      <trkpt lat="42.865006970241666" lon="-8.582023037597537">
        <ele>209.22</ele>
        <time>2025-05-01T12:49:55Z</time>
      </trkpt>
      <trkpt lat="42.865059021860361" lon="-8.582036029547453">
        <ele>209.22</ele>
        <time>2025-05-01T12:49:56Z</time>
      </trkpt>
      <trkpt lat="42.865240992978215" lon="-8.582081962376833">
        <ele>207.78</ele>
        <time>2025-05-01T12:49:59Z</time>
      </trkpt>
      <trkpt lat="42.865261025726795" lon="-8.582093026489019">
        <ele>207.30000000000001</ele>
        <time>2025-05-01T12:50:00Z</time>
      </trkpt>
      <trkpt lat="42.865421958267689" lon="-8.582181958481669">
        <ele>205.86000000000001</ele>
        <time>2025-05-01T12:50:03Z</time>
      </trkpt>
      <trkpt lat="42.865459006279707" lon="-8.582179024815559">
        <ele>205.38</ele>
        <time>2025-05-01T12:50:04Z</time>
      </trkpt>
      <trkpt lat="42.865502005442977" lon="-8.582162009552121">
        <ele>204.90000000000001</ele>
        <time>2025-05-01T12:50:05Z</time>
      </trkpt>
      <trkpt lat="42.865535030141473" lon="-8.582149017602205">
        <ele>204.41999999999999</ele>
        <time>2025-05-01T12:50:06Z</time>
      </trkpt>
      <trkpt lat="42.865556990727782" lon="-8.58213996514678">
        <ele>203.46000000000001</ele>
        <time>2025-05-01T12:50:07Z</time>
      </trkpt>
      <trkpt lat="42.8655940387398" lon="-8.582125967368484">
        <ele>202.49000000000001</ele>
        <time>2025-05-01T12:50:16Z</time>
      </trkpt>
      <trkpt lat="42.865649024024606" lon="-8.582103000953794">
        <ele>202.00999999999999</ele>
        <time>2025-05-01T12:50:17Z</time>
      </trkpt>
      <trkpt lat="42.865668972954154" lon="-8.58205103315413">
        <ele>201.53</ele>
        <time>2025-05-01T12:50:18Z</time>
      </trkpt>
      <trkpt lat="42.865695962682366" lon="-8.581980038434267">
        <ele>201.05000000000001</ele>
        <time>2025-05-01T12:50:19Z</time>
      </trkpt>
      <trkpt lat="42.86572203040123" lon="-8.581909965723753">
        <ele>200.56999999999999</ele>
        <time>2025-05-01T12:50:20Z</time>
      </trkpt>
      <trkpt lat="42.865749020129442" lon="-8.58183897100389">
        <ele>200.56999999999999</ele>
        <time>2025-05-01T12:50:21Z</time>
      </trkpt>
      <trkpt lat="42.865778021514416" lon="-8.581764036789537">
        <ele>200.09</ele>
        <time>2025-05-01T12:50:22Z</time>
      </trkpt>
      <trkpt lat="42.866056971251965" lon="-8.580729039385915">
        <ele>195.28</ele>
        <time>2025-05-01T12:50:32Z</time>
      </trkpt>
      <trkpt lat="42.866210024803877" lon="-8.580145994201303">
        <ele>193.36000000000001</ele>
        <time>2025-05-01T12:50:37Z</time>
      </trkpt>
      <trkpt lat="42.866227962076664" lon="-8.579942984506488">
        <ele>192.88</ele>
        <time>2025-05-01T12:50:39Z</time>
      </trkpt>
      <trkpt lat="42.866227962076664" lon="-8.579699993133545">
        <ele>191.44</ele>
        <time>2025-05-01T12:50:42Z</time>
      </trkpt>
      <trkpt lat="42.866237014532089" lon="-8.579677026718855">
        <ele>191.44</ele>
        <time>2025-05-01T12:50:43Z</time>
      </trkpt>
      <trkpt lat="42.866280013695359" lon="-8.57966898009181">
        <ele>190.96000000000001</ele>
        <time>2025-05-01T12:50:44Z</time>
      </trkpt>
      <trkpt lat="42.866463996469975" lon="-8.579636039212346">
        <ele>189.52000000000001</ele>
        <time>2025-05-01T12:50:48Z</time>
      </trkpt>
      <trkpt lat="42.866533985361457" lon="-8.579487008973956">
        <ele>189.03999999999999</ele>
        <time>2025-05-01T12:50:49Z</time>
      </trkpt>
      <trkpt lat="42.866573967039585" lon="-8.579402016475797">
        <ele>188.56</ele>
        <time>2025-05-01T12:50:50Z</time>
      </trkpt>
      <trkpt lat="42.866615038365126" lon="-8.579316018149257">
        <ele>187.59</ele>
        <time>2025-05-01T12:50:51Z</time>
      </trkpt>
      <trkpt lat="42.866643033921719" lon="-8.579217027872801">
        <ele>186.15000000000001</ele>
        <time>2025-05-01T12:50:52Z</time>
      </trkpt>
      <trkpt lat="42.866658037528396" lon="-8.579112002626061">
        <ele>184.71000000000001</ele>
        <time>2025-05-01T12:50:53Z</time>
      </trkpt>
      <trkpt lat="42.866687960922718" lon="-8.578885020688176">
        <ele>182.31</ele>
        <time>2025-05-01T12:50:55Z</time>
      </trkpt>
      <trkpt lat="42.866679998114705" lon="-8.578731967136264">
        <ele>181.83000000000001</ele>
        <time>2025-05-01T12:50:56Z</time>
      </trkpt>
      <trkpt lat="42.866635993123055" lon="-8.578584026545286">
        <ele>180.87</ele>
        <time>2025-05-01T12:50:57Z</time>
      </trkpt>
      <trkpt lat="42.866576984524727" lon="-8.578489981591702">
        <ele>180.38</ele>
        <time>2025-05-01T12:50:58Z</time>
      </trkpt>
      <trkpt lat="42.866505989804864" lon="-8.578387973830104">
        <ele>179.90000000000001</ele>
        <time>2025-05-01T12:50:59Z</time>
      </trkpt>
      <trkpt lat="42.866436000913382" lon="-8.578311027958989">
        <ele>178.94</ele>
        <time>2025-05-01T12:51:00Z</time>
      </trkpt>
      <trkpt lat="42.866366012021899" lon="-8.578233998268843">
        <ele>177.5</ele>
        <time>2025-05-01T12:51:01Z</time>
      </trkpt>
      <trkpt lat="42.866308009251952" lon="-8.57816300354898">
        <ele>176.06</ele>
        <time>2025-05-01T12:51:02Z</time>
      </trkpt>
      <trkpt lat="42.866270039230585" lon="-8.578069964423776">
        <ele>174.62</ele>
        <time>2025-05-01T12:51:03Z</time>
      </trkpt>
      <trkpt lat="42.866229973733425" lon="-8.577976003289223">
        <ele>173.66</ele>
        <time>2025-05-01T12:51:04Z</time>
      </trkpt>
      <trkpt lat="42.86619896069169" lon="-8.577881036326289">
        <ele>172.21000000000001</ele>
        <time>2025-05-01T12:51:05Z</time>
      </trkpt>
      <trkpt lat="42.866123020648956" lon="-8.577456995844841">
        <ele>166.93000000000001</ele>
        <time>2025-05-01T12:51:09Z</time>
      </trkpt>
      <trkpt lat="42.866139030084014" lon="-8.577365968376398">
        <ele>165.96000000000001</ele>
        <time>2025-05-01T12:51:10Z</time>
      </trkpt>
      <trkpt lat="42.866154033690691" lon="-8.577280975878239">
        <ele>164.52000000000001</ele>
        <time>2025-05-01T12:51:11Z</time>
      </trkpt>
      <trkpt lat="42.866184962913394" lon="-8.577104033902288">
        <ele>163.56</ele>
        <time>2025-05-01T12:51:12Z</time>
      </trkpt>
      <trkpt lat="42.866223016753793" lon="-8.577085006982088">
        <ele>162.59999999999999</ele>
        <time>2025-05-01T12:51:13Z</time>
      </trkpt>
      <trkpt lat="42.866290993988514" lon="-8.577050976455212">
        <ele>161.16</ele>
        <time>2025-05-01T12:51:14Z</time>
      </trkpt>
      <trkpt lat="42.866365006193519" lon="-8.577014012262225">
        <ele>160.19999999999999</ele>
        <time>2025-05-01T12:51:15Z</time>
      </trkpt>
      <trkpt lat="42.866443963721395" lon="-8.576974030584097">
        <ele>159.24000000000001</ele>
        <time>2025-05-01T12:51:16Z</time>
      </trkpt>
      <trkpt lat="42.866524010896683" lon="-8.576933965086937">
        <ele>158.27000000000001</ele>
        <time>2025-05-01T12:51:17Z</time>
      </trkpt>
      <trkpt lat="42.866601040586829" lon="-8.57689599506557">
        <ele>157.31</ele>
        <time>2025-05-01T12:51:18Z</time>
      </trkpt>
      <trkpt lat="42.866630963981152" lon="-8.576780995354056">
        <ele>156.34999999999999</ele>
        <time>2025-05-01T12:51:19Z</time>
      </trkpt>
      <trkpt lat="42.866646973416209" lon="-8.576676975935698">
        <ele>155.38999999999999</ele>
        <time>2025-05-01T12:51:20Z</time>
      </trkpt>
      <trkpt lat="42.866653008386493" lon="-8.57657203450799">
        <ele>154.91</ele>
        <time>2025-05-01T12:51:21Z</time>
      </trkpt>
      <trkpt lat="42.866640016436577" lon="-8.576471032574773">
        <ele>153.94999999999999</ele>
        <time>2025-05-01T12:51:22Z</time>
      </trkpt>
      <trkpt lat="42.866620989516377" lon="-8.576358966529369">
        <ele>153.47</ele>
        <time>2025-05-01T12:51:23Z</time>
      </trkpt>
      <trkpt lat="42.866600034758449" lon="-8.576250001788139">
        <ele>152.99000000000001</ele>
        <time>2025-05-01T12:51:24Z</time>
      </trkpt>
      <trkpt lat="42.866580002009869" lon="-8.576150005683303">
        <ele>152.99000000000001</ele>
        <time>2025-05-01T12:51:25Z</time>
      </trkpt>
      <trkpt lat="42.86656298674643" lon="-8.57605897821486">
        <ele>152.50999999999999</ele>
        <time>2025-05-01T12:51:26Z</time>
      </trkpt>
      <trkpt lat="42.866546977311373" lon="-8.575975997373462">
        <ele>152.03</ele>
        <time>2025-05-01T12:51:27Z</time>
      </trkpt>
      <trkpt lat="42.866534991189837" lon="-8.575872983783484">
        <ele>152.03</ele>
        <time>2025-05-01T12:51:28Z</time>
      </trkpt>
      <trkpt lat="42.866569021716714" lon="-8.575833002105355">
        <ele>151.53999999999999</ele>
        <time>2025-05-01T12:51:29Z</time>
      </trkpt>
      <trkpt lat="42.866601040586829" lon="-8.575796037912369">
        <ele>151.06</ele>
        <time>2025-05-01T12:51:30Z</time>
      </trkpt>
      <trkpt lat="42.866657031700015" lon="-8.575729988515377">
        <ele>151.06</ele>
        <time>2025-05-01T12:51:31Z</time>
      </trkpt>
      <trkpt lat="42.866703970357776" lon="-8.575708027929068">
        <ele>150.58000000000001</ele>
        <time>2025-05-01T12:51:32Z</time>
      </trkpt>
      <trkpt lat="42.866761973127723" lon="-8.575680032372475">
        <ele>150.58000000000001</ele>
        <time>2025-05-01T12:51:33Z</time>
      </trkpt>
      <trkpt lat="42.866828022524714" lon="-8.575648013502359">
        <ele>150.58000000000001</ele>
        <time>2025-05-01T12:51:34Z</time>
      </trkpt>
      <trkpt lat="42.867513997480273" lon="-8.575371997430921">
        <ele>152.03</ele>
        <time>2025-05-01T12:51:45Z</time>
      </trkpt>
      <trkpt lat="42.867558002471924" lon="-8.575375014916062">
        <ele>152.50999999999999</ele>
        <time>2025-05-01T12:51:46Z</time>
      </trkpt>
      <trkpt lat="42.867607036605477" lon="-8.575396975502372">
        <ele>152.99000000000001</ele>
        <time>2025-05-01T12:51:47Z</time>
      </trkpt>
      <trkpt lat="42.867662021890283" lon="-8.575422037392855">
        <ele>153.47</ele>
        <time>2025-05-01T12:51:48Z</time>
      </trkpt>
      <trkpt lat="42.867717007175088" lon="-8.575447015464306">
        <ele>153.94999999999999</ele>
        <time>2025-05-01T12:51:49Z</time>
      </trkpt>
      <trkpt lat="42.867822032421827" lon="-8.575508035719395">
        <ele>154.91</ele>
        <time>2025-05-01T12:51:51Z</time>
      </trkpt>
      <trkpt lat="42.868084972724319" lon="-8.575690006837249">
        <ele>157.31</ele>
        <time>2025-05-01T12:51:55Z</time>
      </trkpt>
      <trkpt lat="42.868177006021142" lon="-8.575697969645262">
        <ele>157.78999999999999</ele>
        <time>2025-05-01T12:51:56Z</time>
      </trkpt>
      <trkpt lat="42.868265016004443" lon="-8.575681960210204">
        <ele>158.27000000000001</ele>
        <time>2025-05-01T12:51:57Z</time>
      </trkpt>
      <trkpt lat="42.868352020159364" lon="-8.575666034594178">
        <ele>158.75</ele>
        <time>2025-05-01T12:51:58Z</time>
      </trkpt>
      <trkpt lat="42.868432989344001" lon="-8.575710039585829">
        <ele>159.24000000000001</ele>
        <time>2025-05-01T12:51:59Z</time>
      </trkpt>
      <trkpt lat="42.868519993498921" lon="-8.57575798407197">
        <ele>160.19999999999999</ele>
        <time>2025-05-01T12:52:00Z</time>
      </trkpt>
      <trkpt lat="42.868597023189068" lon="-8.575815986841917">
        <ele>161.16</ele>
        <time>2025-05-01T12:52:01Z</time>
      </trkpt>
      <trkpt lat="42.868642034009099" lon="-8.575921012088656">
        <ele>162.12</ele>
        <time>2025-05-01T12:52:02Z</time>
      </trkpt>
      <trkpt lat="42.868686961010098" lon="-8.576026959344745">
        <ele>163.08000000000001</ele>
        <time>2025-05-01T12:52:03Z</time>
      </trkpt>
      <trkpt lat="42.868878990411758" lon="-8.576385034248233">
        <ele>166.93000000000001</ele>
        <time>2025-05-01T12:52:07Z</time>
      </trkpt>
      <trkpt lat="42.868931964039803" lon="-8.576416969299316">
        <ele>167.88999999999999</ele>
        <time>2025-05-01T12:52:08Z</time>
      </trkpt>
      <trkpt lat="42.868993990123272" lon="-8.576396014541388">
        <ele>169.33000000000001</ele>
        <time>2025-05-01T12:52:09Z</time>
      </trkpt>
      <trkpt lat="42.869060961529613" lon="-8.576373970136046">
        <ele>170.77000000000001</ele>
        <time>2025-05-01T12:52:10Z</time>
      </trkpt>
      <trkpt lat="42.869143020361662" lon="-8.576282020658255">
        <ele>172.21000000000001</ele>
        <time>2025-05-01T12:52:11Z</time>
      </trkpt>
      <trkpt lat="42.869132040068507" lon="-8.576191999018192">
        <ele>172.69</ele>
        <time>2025-05-01T12:52:12Z</time>
      </trkpt>
      <trkpt lat="42.869082000106573" lon="-8.576052021235228">
        <ele>173.16999999999999</ele>
        <time>2025-05-01T12:52:13Z</time>
      </trkpt>
      <trkpt lat="42.869046963751316" lon="-8.575954036787152">
        <ele>173.66</ele>
        <time>2025-05-01T12:52:14Z</time>
      </trkpt>
      <trkpt lat="42.869002036750317" lon="-8.575827972963452">
        <ele>173.66</ele>
        <time>2025-05-01T12:52:15Z</time>
      </trkpt>
      <trkpt lat="42.868955014273524" lon="-8.575699981302023">
        <ele>174.13999999999999</ele>
        <time>2025-05-01T12:52:16Z</time>
      </trkpt>
      <trkpt lat="42.868310026824474" lon="-8.574077999219298">
        <ele>173.66</ele>
        <time>2025-05-01T12:52:27Z</time>
      </trkpt>
      <trkpt lat="42.867477033287287" lon="-8.572188969701529">
        <ele>176.06</ele>
        <time>2025-05-01T12:52:37Z</time>
      </trkpt>
      <trkpt lat="42.866419991478324" lon="-8.570983987301588">
        <ele>179.90000000000001</ele>
        <time>2025-05-01T12:52:45Z</time>
      </trkpt>
      <trkpt lat="42.864966988563538" lon="-8.569730976596475">
        <ele>188.08000000000001</ele>
        <time>2025-05-01T12:52:55Z</time>
      </trkpt>
      <trkpt lat="42.864063000306487" lon="-8.568518031388521">
        <ele>197.69</ele>
        <time>2025-05-01T12:53:05Z</time>
      </trkpt>
      <trkpt lat="42.863675002008677" lon="-8.568005980923772">
        <ele>202.97999999999999</ele>
        <time>2025-05-01T12:53:12Z</time>
      </trkpt>
      <trkpt lat="42.863538963720202" lon="-8.56782702729106">
        <ele>204.41999999999999</ele>
        <time>2025-05-01T12:53:15Z</time>
      </trkpt>
      <trkpt lat="42.863503005355597" lon="-8.567712027579546">
        <ele>204.90000000000001</ele>
        <time>2025-05-01T12:53:16Z</time>
      </trkpt>
      <trkpt lat="42.863481966778636" lon="-8.567603984847665">
        <ele>205.38</ele>
        <time>2025-05-01T12:53:17Z</time>
      </trkpt>
      <trkpt lat="42.863481966778636" lon="-8.567471969872713">
        <ele>205.86000000000001</ele>
        <time>2025-05-01T12:53:18Z</time>
      </trkpt>
      <trkpt lat="42.863527983427048" lon="-8.567387983202934">
        <ele>205.86000000000001</ele>
        <time>2025-05-01T12:53:19Z</time>
      </trkpt>
      <trkpt lat="42.86357500590384" lon="-8.567231995984912">
        <ele>206.34</ele>
        <time>2025-05-01T12:53:20Z</time>
      </trkpt>
      <trkpt lat="42.863585986196995" lon="-8.567100986838341">
        <ele>206.34</ele>
        <time>2025-05-01T12:53:21Z</time>
      </trkpt>
      <trkpt lat="42.86359797231853" lon="-8.566960003226996">
        <ele>206.81999999999999</ele>
        <time>2025-05-01T12:53:22Z</time>
      </trkpt>
      <trkpt lat="42.863610964268446" lon="-8.566808961331844">
        <ele>206.81999999999999</ele>
        <time>2025-05-01T12:53:23Z</time>
      </trkpt>
      <trkpt lat="42.863638959825039" lon="-8.565141968429089">
        <ele>205.86000000000001</ele>
        <time>2025-05-01T12:53:32Z</time>
      </trkpt>
      <trkpt lat="42.863928973674774" lon="-8.563459971919656">
        <ele>206.81999999999999</ele>
        <time>2025-05-01T12:53:40Z</time>
      </trkpt>
      <trkpt lat="42.864146986976266" lon="-8.561471030116081">
        <ele>205.38</ele>
        <time>2025-05-01T12:53:49Z</time>
      </trkpt>
      <trkpt lat="42.863913970068097" lon="-8.559976033866406">
        <ele>206.81999999999999</ele>
        <time>2025-05-01T12:53:57Z</time>
      </trkpt>
      <trkpt lat="42.863523960113525" lon="-8.558109970763326">
        <ele>212.11000000000001</ele>
        <time>2025-05-01T12:54:10Z</time>
      </trkpt>
      <trkpt lat="42.863668967038393" lon="-8.556492011994124">
        <ele>214.03</ele>
        <time>2025-05-01T12:54:20Z</time>
      </trkpt>
      <trkpt lat="42.86374700255692" lon="-8.556111976504326">
        <ele>213.55000000000001</ele>
        <time>2025-05-01T12:54:22Z</time>
      </trkpt>
      <trkpt lat="42.863825038075447" lon="-8.555838977918029">
        <ele>213.55000000000001</ele>
        <time>2025-05-01T12:54:23Z</time>
      </trkpt>
      <trkpt lat="42.863873988389969" lon="-8.555723978206515">
        <ele>213.06999999999999</ele>
        <time>2025-05-01T12:54:24Z</time>
      </trkpt>
      <trkpt lat="42.863937020301819" lon="-8.555575031787157">
        <ele>213.06999999999999</ele>
        <time>2025-05-01T12:54:25Z</time>
      </trkpt>
      <trkpt lat="42.863994017243385" lon="-8.555437987670302">
        <ele>212.59</ele>
        <time>2025-05-01T12:54:26Z</time>
      </trkpt>
      <trkpt lat="42.864058976992965" lon="-8.555285017937422">
        <ele>212.59</ele>
        <time>2025-05-01T12:54:27Z</time>
      </trkpt>
      <trkpt lat="42.864136006683111" lon="-8.555145040154457">
        <ele>212.11000000000001</ele>
        <time>2025-05-01T12:54:28Z</time>
      </trkpt>
      <trkpt lat="42.864201972261071" lon="-8.555025011301041">
        <ele>212.11000000000001</ele>
        <time>2025-05-01T12:54:29Z</time>
      </trkpt>
      <trkpt lat="42.864268021658063" lon="-8.554905988276005">
        <ele>212.59</ele>
        <time>2025-05-01T12:54:30Z</time>
      </trkpt>
      <trkpt lat="42.864561975002289" lon="-8.554509021341801">
        <ele>215.47</ele>
        <time>2025-05-01T12:54:34Z</time>
      </trkpt>
      <trkpt lat="42.864982997998595" lon="-8.554101996123791">
        <ele>218.84</ele>
        <time>2025-05-01T12:54:39Z</time>
      </trkpt>
      <trkpt lat="42.865074025467038" lon="-8.554023960605264">
        <ele>219.80000000000001</ele>
        <time>2025-05-01T12:54:40Z</time>
      </trkpt>
      <trkpt lat="42.865167986601591" lon="-8.553941985592246">
        <ele>220.75999999999999</ele>
        <time>2025-05-01T12:54:41Z</time>
      </trkpt>
      <trkpt lat="42.865879023447633" lon="-8.55338903144002">
        <ele>224.12</ele>
        <time>2025-05-01T12:54:48Z</time>
      </trkpt>
      <trkpt lat="42.867104960605502" lon="-8.552728034555912">
        <ele>224.12</ele>
        <time>2025-05-01T12:54:58Z</time>
      </trkpt>
      <trkpt lat="42.868313966318965" lon="-8.552053039893508">
        <ele>221.24000000000001</ele>
        <time>2025-05-01T12:55:08Z</time>
      </trkpt>
      <trkpt lat="42.868698025122285" lon="-8.551702005788684">
        <ele>220.28</ele>
        <time>2025-05-01T12:55:12Z</time>
      </trkpt>
      <trkpt lat="42.868789974600077" lon="-8.551590023562312">
        <ele>219.80000000000001</ele>
        <time>2025-05-01T12:55:13Z</time>
      </trkpt>
      <trkpt lat="42.869435967877507" lon="-8.550411025062203">
        <ele>219.80000000000001</ele>
        <time>2025-05-01T12:55:22Z</time>
      </trkpt>
      <trkpt lat="42.869500005617738" lon="-8.550154035910964">
        <ele>220.28</ele>
        <time>2025-05-01T12:55:24Z</time>
      </trkpt>
      <trkpt lat="42.869516015052795" lon="-8.550031995400786">
        <ele>220.75999999999999</ele>
        <time>2025-05-01T12:55:25Z</time>
      </trkpt>
      <trkpt lat="42.869533030316234" lon="-8.549764025956392">
        <ele>221.72</ele>
        <time>2025-05-01T12:55:27Z</time>
      </trkpt>
      <trkpt lat="42.869548033922911" lon="-8.549514999613166">
        <ele>222.19999999999999</ele>
        <time>2025-05-01T12:55:29Z</time>
      </trkpt>
      <trkpt lat="42.869553985074162" lon="-8.549411986023188">
        <ele>222.68000000000001</ele>
        <time>2025-05-01T12:55:30Z</time>
      </trkpt>
      <trkpt lat="42.869649035856128" lon="-8.549310984089971">
        <ele>223.16</ele>
        <time>2025-05-01T12:55:31Z</time>
      </trkpt>
      <trkpt lat="42.869673008099198" lon="-8.548960033804178">
        <ele>224.61000000000001</ele>
        <time>2025-05-01T12:55:37Z</time>
      </trkpt>
      <trkpt lat="42.869682982563972" lon="-8.548779990524054">
        <ele>225.56999999999999</ele>
        <time>2025-05-01T12:55:40Z</time>
      </trkpt>
      <trkpt lat="42.869682982563972" lon="-8.548779990524054">
        <ele>226.05000000000001</ele>
        <time>2025-05-01T12:55:49Z</time>
      </trkpt>
      <trkpt lat="42.869682982563972" lon="-8.548745959997177">
        <ele>226.05000000000001</ele>
        <time>2025-05-01T12:56:18Z</time>
      </trkpt>
      <trkpt lat="42.869682982563972" lon="-8.548607993870974">
        <ele>227.49000000000001</ele>
        <time>2025-05-01T12:56:20Z</time>
      </trkpt>
      <trkpt lat="42.869715001434088" lon="-8.548334995284677">
        <ele>227.97</ele>
        <time>2025-05-01T12:56:23Z</time>
      </trkpt>
      <trkpt lat="42.869726987555623" lon="-8.548231981694698">
        <ele>228.44999999999999</ele>
        <time>2025-05-01T12:56:24Z</time>
      </trkpt>
      <trkpt lat="42.869787001982331" lon="-8.547914978116751">
        <ele>228.93000000000001</ele>
        <time>2025-05-01T12:56:27Z</time>
      </trkpt>
      <trkpt lat="42.86984802223742" lon="-8.547709034755826">
        <ele>229.41</ele>
        <time>2025-05-01T12:56:29Z</time>
      </trkpt>
      <trkpt lat="42.870210036635399" lon="-8.54677596129477">
        <ele>234.69999999999999</ele>
        <time>2025-05-01T12:56:39Z</time>
      </trkpt>
      <trkpt lat="42.870697025209665" lon="-8.545910026878119">
        <ele>238.53999999999999</ele>
        <time>2025-05-01T12:56:50Z</time>
      </trkpt>
      <trkpt lat="42.871375037357211" lon="-8.54511902667582">
        <ele>239.99000000000001</ele>
        <time>2025-05-01T12:57:02Z</time>
      </trkpt>
      <trkpt lat="42.871478972956538" lon="-8.544974019750953">
        <ele>240.47</ele>
        <time>2025-05-01T12:57:04Z</time>
      </trkpt>
      <trkpt lat="42.871549967676401" lon="-8.544874023646116">
        <ele>241.43000000000001</ele>
        <time>2025-05-01T12:57:06Z</time>
      </trkpt>
      <trkpt lat="42.871549967676401" lon="-8.544874023646116">
        <ele>241.43000000000001</ele>
        <time>2025-05-01T12:57:07Z</time>
      </trkpt>
      <trkpt lat="42.871634960174561" lon="-8.544723987579346">
        <ele>241.91</ele>
        <time>2025-05-01T12:57:08Z</time>
      </trkpt>
      <trkpt lat="42.871720958501101" lon="-8.544746031984687">
        <ele>241.91</ele>
        <time>2025-05-01T12:57:09Z</time>
      </trkpt>
      <trkpt lat="42.871720958501101" lon="-8.544746031984687">
        <ele>242.38999999999999</ele>
        <time>2025-05-01T12:57:10Z</time>
      </trkpt>
      <trkpt lat="42.871860014274716" lon="-8.544832030311227">
        <ele>242.38999999999999</ele>
        <time>2025-05-01T12:57:11Z</time>
      </trkpt>
      <trkpt lat="42.871956992894411" lon="-8.544809985905886">
        <ele>242.38999999999999</ele>
        <time>2025-05-01T12:57:12Z</time>
      </trkpt>
      <trkpt lat="42.872065035626292" lon="-8.544766986742616">
        <ele>242.87</ele>
        <time>2025-05-01T12:57:13Z</time>
      </trkpt>
      <trkpt lat="42.87240601144731" lon="-8.544746031984687">
        <ele>244.78999999999999</ele>
        <time>2025-05-01T12:57:19Z</time>
      </trkpt>
      <trkpt lat="42.872481029480696" lon="-8.544746031984687">
        <ele>244.78999999999999</ele>
        <time>2025-05-01T12:57:20Z</time>
      </trkpt>
      <trkpt lat="42.872889982536435" lon="-8.544746031984687">
        <ele>247.68000000000001</ele>
        <time>2025-05-01T12:57:26Z</time>
      </trkpt>
      <trkpt lat="42.873031971976161" lon="-8.544747959822416">
        <ele>249.12</ele>
        <time>2025-05-01T12:57:28Z</time>
      </trkpt>
      <trkpt lat="42.873288039118052" lon="-8.544757012277842">
        <ele>251.52000000000001</ele>
        <time>2025-05-01T12:57:33Z</time>
      </trkpt>
      <trkpt lat="42.873561959713697" lon="-8.544766986742616">
        <ele>252.47999999999999</ele>
        <time>2025-05-01T12:57:37Z</time>
      </trkpt>
      <trkpt lat="42.873631026595831" lon="-8.544766986742616">
        <ele>252.96000000000001</ele>
        <time>2025-05-01T12:57:38Z</time>
      </trkpt>
      <trkpt lat="42.873965967446566" lon="-8.544767992570996">
        <ele>253.93000000000001</ele>
        <time>2025-05-01T12:57:42Z</time>
      </trkpt>
      <trkpt lat="42.874011984094977" lon="-8.5447539947927">
        <ele>253.93000000000001</ele>
        <time>2025-05-01T12:57:43Z</time>
      </trkpt>
      <trkpt lat="42.87406001240015" lon="-8.544736979529262">
        <ele>254.41</ele>
        <time>2025-05-01T12:57:44Z</time>
      </trkpt>
      <trkpt lat="42.874204013496637" lon="-8.544687023386359">
        <ele>255.84999999999999</ele>
        <time>2025-05-01T12:57:53Z</time>
      </trkpt>
      <trkpt lat="42.874271990731359" lon="-8.544663973152638">
        <ele>256.32999999999998</ele>
        <time>2025-05-01T12:58:08Z</time>
      </trkpt>
      <trkpt lat="42.874349020421505" lon="-8.544636983424425">
        <ele>257.76999999999998</ele>
        <time>2025-05-01T12:58:11Z</time>
      </trkpt>
      <trkpt lat="42.874406017363071" lon="-8.544617034494877">
        <ele>258.73000000000002</ele>
        <time>2025-05-01T12:58:22Z</time>
      </trkpt>
      <trkpt lat="42.874438958242536" lon="-8.54460597038269">
        <ele>258.25</ele>
        <time>2025-05-01T12:58:23Z</time>
      </trkpt>
      <trkpt lat="42.874477012082934" lon="-8.544591972604394">
        <ele>258.25</ele>
        <time>2025-05-01T12:58:24Z</time>
      </trkpt>
      <trkpt lat="42.874803990125656" lon="-8.544445959851146">
        <ele>254.88999999999999</ele>
        <time>2025-05-01T12:58:30Z</time>
      </trkpt>
      <trkpt lat="42.8748569637537" lon="-8.544422993436456">
        <ele>254.41</ele>
        <time>2025-05-01T12:58:31Z</time>
      </trkpt>
      <trkpt lat="42.874904992058873" lon="-8.544401032850146">
        <ele>253.93000000000001</ele>
        <time>2025-05-01T12:58:32Z</time>
      </trkpt>
      <trkpt lat="42.875017980113626" lon="-8.544350992888212">
        <ele>252.47999999999999</ele>
        <time>2025-05-01T12:58:34Z</time>
      </trkpt>
      <trkpt lat="42.875087969005108" lon="-8.544319979846478">
        <ele>252</ele>
        <time>2025-05-01T12:58:35Z</time>
      </trkpt>
      <trkpt lat="42.875162987038493" lon="-8.544287038967013">
        <ele>251.52000000000001</ele>
        <time>2025-05-01T12:58:36Z</time>
      </trkpt>
      <trkpt lat="42.875264994800091" lon="-8.544241022318602">
        <ele>251.52000000000001</ele>
        <time>2025-05-01T12:58:37Z</time>
      </trkpt>
      <trkpt lat="42.875344036146998" lon="-8.544205985963345">
        <ele>251.03999999999999</ele>
        <time>2025-05-01T12:58:38Z</time>
      </trkpt>
      <trkpt lat="42.875497005879879" lon="-8.544137002900243">
        <ele>251.03999999999999</ele>
        <time>2025-05-01T12:58:40Z</time>
      </trkpt>
      <trkpt lat="42.875583004206419" lon="-8.544097021222115">
        <ele>250.56</ele>
        <time>2025-05-01T12:58:41Z</time>
      </trkpt>
      <trkpt lat="42.875755000859499" lon="-8.544015968218446">
        <ele>250.08000000000001</ele>
        <time>2025-05-01T12:58:42Z</time>
      </trkpt>
      <trkpt lat="42.875926997512579" lon="-8.543952014297247">
        <ele>250.08000000000001</ele>
        <time>2025-05-01T12:58:43Z</time>
      </trkpt>
      <trkpt lat="42.875926997512579" lon="-8.543952014297247">
        <ele>250.08000000000001</ele>
        <time>2025-05-01T12:58:44Z</time>
      </trkpt>
      <trkpt lat="42.875953987240791" lon="-8.543955031782389">
        <ele>250.08000000000001</ele>
        <time>2025-05-01T12:58:45Z</time>
      </trkpt>
      <trkpt lat="42.876576008275151" lon="-8.54408897459507">
        <ele>252.96000000000001</ele>
        <time>2025-05-01T12:58:54Z</time>
      </trkpt>
      <trkpt lat="42.87685202434659" lon="-8.544162986800075">
        <ele>254.41</ele>
        <time>2025-05-01T12:59:01Z</time>
      </trkpt>
      <trkpt lat="42.876913966611028" lon="-8.544080005958676">
        <ele>254.41</ele>
        <time>2025-05-01T12:59:02Z</time>
      </trkpt>
      <trkpt lat="42.876913966611028" lon="-8.544080005958676">
        <ele>253.93000000000001</ele>
        <time>2025-05-01T12:59:03Z</time>
      </trkpt>
      <trkpt lat="42.87696098908782" lon="-8.54395997710526">
        <ele>253.93000000000001</ele>
        <time>2025-05-01T12:59:04Z</time>
      </trkpt>
      <trkpt lat="42.876987978816032" lon="-8.543888982385397">
        <ele>253.44</ele>
        <time>2025-05-01T12:59:05Z</time>
      </trkpt>
      <trkpt lat="42.877017986029387" lon="-8.543812036514282">
        <ele>253.44</ele>
        <time>2025-05-01T12:59:06Z</time>
      </trkpt>
      <trkpt lat="42.87704698741436" lon="-8.543739030137658">
        <ele>253.44</ele>
        <time>2025-05-01T12:59:07Z</time>
      </trkpt>
      <trkpt lat="42.877064002677798" lon="-8.543694019317627">
        <ele>253.44</ele>
        <time>2025-05-01T12:59:08Z</time>
      </trkpt>
      <trkpt lat="42.877342030405998" lon="-8.543052971363068">
        <ele>252</ele>
        <time>2025-05-01T12:59:16Z</time>
      </trkpt>
      <trkpt lat="42.877415958791971" lon="-8.542874017730355">
        <ele>252</ele>
        <time>2025-05-01T12:59:18Z</time>
      </trkpt>
      <trkpt lat="42.877804040908813" lon="-8.542021997272968">
        <ele>257.29000000000002</ele>
        <time>2025-05-01T12:59:28Z</time>
      </trkpt>
      <trkpt lat="42.878034040331841" lon="-8.54163802228868">
        <ele>261.62</ele>
        <time>2025-05-01T12:59:33Z</time>
      </trkpt>
      <trkpt lat="42.878091037273407" lon="-8.541586976498365">
        <ele>262.10000000000002</ele>
        <time>2025-05-01T12:59:34Z</time>
      </trkpt>
      <trkpt lat="42.878150967881083" lon="-8.541532997041941">
        <ele>262.57999999999998</ele>
        <time>2025-05-01T12:59:35Z</time>
      </trkpt>
      <trkpt lat="42.878217017278075" lon="-8.54148798622191">
        <ele>263.06</ele>
        <time>2025-05-01T12:59:36Z</time>
      </trkpt>
      <trkpt lat="42.878281977027655" lon="-8.541443981230259">
        <ele>263.06</ele>
        <time>2025-05-01T12:59:37Z</time>
      </trkpt>
      <trkpt lat="42.878469983115792" lon="-8.541324958205223">
        <ele>263.54000000000002</ele>
        <time>2025-05-01T12:59:40Z</time>
      </trkpt>
      <trkpt lat="42.878664024174213" lon="-8.54122999124229">
        <ele>263.54000000000002</ele>
        <time>2025-05-01T12:59:43Z</time>
      </trkpt>
      <trkpt lat="42.878729989752173" lon="-8.541206018999219">
        <ele>264.01999999999998</ele>
        <time>2025-05-01T12:59:44Z</time>
      </trkpt>
      <trkpt lat="42.879160987213254" lon="-8.541041985154152">
        <ele>266.89999999999998</ele>
        <time>2025-05-01T12:59:50Z</time>
      </trkpt>
      <trkpt lat="42.879799017682672" lon="-8.540809974074364">
        <ele>271.23000000000002</ele>
        <time>2025-05-01T12:59:59Z</time>
      </trkpt>
      <trkpt lat="42.880321964621544" lon="-8.540574023500085">
        <ele>274.11000000000001</ele>
        <time>2025-05-01T13:00:07Z</time>
      </trkpt>
      <trkpt lat="42.880953960120678" lon="-8.540272023528814">
        <ele>277.48000000000002</ele>
        <time>2025-05-01T13:00:17Z</time>
      </trkpt>
      <trkpt lat="42.881015986204147" lon="-8.540245033800602">
        <ele>277.48000000000002</ele>
        <time>2025-05-01T13:00:18Z</time>
      </trkpt>
      <trkpt lat="42.881077006459236" lon="-8.540217960253358">
        <ele>277.95999999999998</ele>
        <time>2025-05-01T13:00:19Z</time>
      </trkpt>
      <trkpt lat="42.881744960322976" lon="-8.540174961090088">
        <ele>280.36000000000001</ele>
        <time>2025-05-01T13:00:28Z</time>
      </trkpt>
      <trkpt lat="42.88190103136003" lon="-8.54017898440361">
        <ele>281.31999999999999</ele>
        <time>2025-05-01T13:00:30Z</time>
      </trkpt>
      <trkpt lat="42.881969008594751" lon="-8.540188958868384">
        <ele>281.80000000000001</ele>
        <time>2025-05-01T13:00:31Z</time>
      </trkpt>
      <trkpt lat="42.882020976394415" lon="-8.540197005495429">
        <ele>282.76999999999998</ele>
        <time>2025-05-01T13:00:32Z</time>
      </trkpt>
      <trkpt lat="42.882069004699588" lon="-8.540216032415628">
        <ele>283.25</ele>
        <time>2025-05-01T13:00:33Z</time>
      </trkpt>
      <trkpt lat="42.882128013297915" lon="-8.540238998830319">
        <ele>283.73000000000002</ele>
        <time>2025-05-01T13:00:34Z</time>
      </trkpt>
      <trkpt lat="42.882166989147663" lon="-8.540281997993588">
        <ele>284.69</ele>
        <time>2025-05-01T13:00:35Z</time>
      </trkpt>
      <trkpt lat="42.88222398608923" lon="-8.540344024077058">
        <ele>285.17000000000002</ele>
        <time>2025-05-01T13:00:36Z</time>
      </trkpt>
      <trkpt lat="42.882281988859177" lon="-8.540407977998257">
        <ele>286.13</ele>
        <time>2025-05-01T13:00:37Z</time>
      </trkpt>
      <trkpt lat="42.882791021838784" lon="-8.541236026212573">
        <ele>292.86000000000001</ele>
        <time>2025-05-01T13:00:48Z</time>
      </trkpt>
      <trkpt lat="42.882958995178342" lon="-8.541628969833255">
        <ele>295.25999999999999</ele>
        <time>2025-05-01T13:00:53Z</time>
      </trkpt>
      <trkpt lat="42.883061002939939" lon="-8.54198201559484">
        <ele>296.22000000000003</ele>
        <time>2025-05-01T13:01:00Z</time>
      </trkpt>
      <trkpt lat="42.883077012374997" lon="-8.542038006708026">
        <ele>296.69999999999999</ele>
        <time>2025-05-01T13:01:01Z</time>
      </trkpt>
      <trkpt lat="42.883091010153294" lon="-8.542086035013199">
        <ele>296.69999999999999</ele>
        <time>2025-05-01T13:01:02Z</time>
      </trkpt>
      <trkpt lat="42.883102996274829" lon="-8.542129034176469">
        <ele>297.18000000000001</ele>
        <time>2025-05-01T13:01:03Z</time>
      </trkpt>
      <trkpt lat="42.883102996274829" lon="-8.542129034176469">
        <ele>297.67000000000002</ele>
        <time>2025-05-01T13:01:04Z</time>
      </trkpt>
      <trkpt lat="42.883114982396364" lon="-8.542171027511358">
        <ele>298.14999999999998</ele>
        <time>2025-05-01T13:01:05Z</time>
      </trkpt>
      <trkpt lat="42.883158987388015" lon="-8.542148983106017">
        <ele>298.63</ele>
        <time>2025-05-01T13:01:06Z</time>
      </trkpt>
      <trkpt lat="42.883404996246099" lon="-8.542026020586491">
        <ele>298.63</ele>
        <time>2025-05-01T13:01:11Z</time>
      </trkpt>
      <trkpt lat="42.883970020338893" lon="-8.541740030050278">
        <ele>295.74000000000001</ele>
        <time>2025-05-01T13:01:22Z</time>
      </trkpt>
      <trkpt lat="42.884138999506831" lon="-8.54163802228868">
        <ele>295.74000000000001</ele>
        <time>2025-05-01T13:01:29Z</time>
      </trkpt>
      <trkpt lat="42.884149979799986" lon="-8.541631987318397">
        <ele>295.25999999999999</ele>
        <time>2025-05-01T13:01:30Z</time>
      </trkpt>
      <trkpt lat="42.884149979799986" lon="-8.541631987318397">
        <ele>294.77999999999997</ele>
        <time>2025-05-01T13:01:43Z</time>
      </trkpt>
      <trkpt lat="42.884149979799986" lon="-8.541631987318397">
        <ele>294.77999999999997</ele>
        <time>2025-05-01T13:02:26Z</time>
      </trkpt>
      <trkpt lat="42.884149979799986" lon="-8.541631987318397">
        <ele>294.77999999999997</ele>
        <time>2025-05-01T13:03:10Z</time>
      </trkpt>
      <trkpt lat="42.884149979799986" lon="-8.541631987318397">
        <ele>294.77999999999997</ele>
        <time>2025-05-01T13:03:52Z</time>
      </trkpt>
      <trkpt lat="42.884149979799986" lon="-8.541631987318397">
        <ele>294.77999999999997</ele>
        <time>2025-05-01T13:04:26Z</time>
      </trkpt>
      <trkpt lat="42.884259028360248" lon="-8.541582031175494">
        <ele>295.25999999999999</ele>
        <time>2025-05-01T13:04:52Z</time>
      </trkpt>
      <trkpt lat="42.884312001988292" lon="-8.541556969285011">
        <ele>295.25999999999999</ele>
        <time>2025-05-01T13:04:53Z</time>
      </trkpt>
      <trkpt lat="42.884374028071761" lon="-8.541527967900038">
        <ele>295.25999999999999</ele>
        <time>2025-05-01T13:04:54Z</time>
      </trkpt>
      <trkpt lat="42.88467301055789" lon="-8.541381033137441">
        <ele>295.25999999999999</ele>
        <time>2025-05-01T13:04:58Z</time>
      </trkpt>
      <trkpt lat="42.884820029139519" lon="-8.541308026760817">
        <ele>295.25999999999999</ele>
        <time>2025-05-01T13:05:00Z</time>
      </trkpt>
      <trkpt lat="42.885453030467033" lon="-8.541005020961165">
        <ele>296.69999999999999</ele>
        <time>2025-05-01T13:05:11Z</time>
      </trkpt>
      <trkpt lat="42.885471973568201" lon="-8.540994040668011">
        <ele>296.69999999999999</ele>
        <time>2025-05-01T13:05:12Z</time>
      </trkpt>
      <trkpt lat="42.885459987446666" lon="-8.541114991530776">
        <ele>297.18000000000001</ele>
        <time>2025-05-01T13:05:17Z</time>
      </trkpt>
      <trkpt lat="42.885452024638653" lon="-8.541136030107737">
        <ele>297.18000000000001</ele>
        <time>2025-05-01T13:05:18Z</time>
      </trkpt>
      <trkpt lat="42.885374994948506" lon="-8.541233008727431">
        <ele>297.18000000000001</ele>
        <time>2025-05-01T13:05:29Z</time>
      </trkpt>
      <trkpt lat="42.885226970538497" lon="-8.541344990953803">
        <ele>295.74000000000001</ele>
        <time>2025-05-01T13:05:32Z</time>
      </trkpt>
      <trkpt lat="42.885173996910453" lon="-8.541377009823918">
        <ele>295.74000000000001</ele>
        <time>2025-05-01T13:05:33Z</time>
      </trkpt>
      <trkpt lat="42.885008035227656" lon="-8.541473988443613">
        <ele>294.30000000000001</ele>
        <time>2025-05-01T13:05:36Z</time>
      </trkpt>
      <trkpt lat="42.884948020800948" lon="-8.541510030627251">
        <ele>293.81999999999999</ele>
        <time>2025-05-01T13:05:37Z</time>
      </trkpt>
      <trkpt lat="42.884885994717479" lon="-8.541544983163476">
        <ele>293.33999999999997</ele>
        <time>2025-05-01T13:05:38Z</time>
      </trkpt>
      <trkpt lat="42.88478197529912" lon="-8.541606003418565">
        <ele>291.89999999999998</ele>
        <time>2025-05-01T13:05:40Z</time>
      </trkpt>
      <trkpt lat="42.884733024984598" lon="-8.541633998975158">
        <ele>291.42000000000002</ele>
        <time>2025-05-01T13:05:41Z</time>
      </trkpt>
      <trkpt lat="42.884614001959562" lon="-8.541739024221897">
        <ele>289.97000000000003</ele>
        <time>2025-05-01T13:05:44Z</time>
      </trkpt>
      <trkpt lat="42.884595980867743" lon="-8.541762996464968">
        <ele>289.49000000000001</ele>
        <time>2025-05-01T13:05:45Z</time>
      </trkpt>
      <trkpt lat="42.884574020281434" lon="-8.541828040033579">
        <ele>289.00999999999999</ele>
        <time>2025-05-01T13:05:46Z</time>
      </trkpt>
      <trkpt lat="42.884443011134863" lon="-8.542034989222884">
        <ele>286.61000000000001</ele>
        <time>2025-05-01T13:05:50Z</time>
      </trkpt>
      <trkpt lat="42.884373022243381" lon="-8.542125010862947">
        <ele>285.17000000000002</ele>
        <time>2025-05-01T13:05:52Z</time>
      </trkpt>
      <trkpt lat="42.884307978674769" lon="-8.542208997532725">
        <ele>283.73000000000002</ele>
        <time>2025-05-01T13:05:54Z</time>
      </trkpt>
      <trkpt lat="42.884241007268429" lon="-8.542297007516027">
        <ele>282.76999999999998</ele>
        <time>2025-05-01T13:05:56Z</time>
      </trkpt>
      <trkpt lat="42.884168000891805" lon="-8.54239096865058">
        <ele>281.31999999999999</ele>
        <time>2025-05-01T13:05:58Z</time>
      </trkpt>
      <trkpt lat="42.884126007556915" lon="-8.542446037754417">
        <ele>280.83999999999997</ele>
        <time>2025-05-01T13:05:59Z</time>
      </trkpt>
      <trkpt lat="42.884087031707168" lon="-8.542495993897319">
        <ele>279.88</ele>
        <time>2025-05-01T13:06:00Z</time>
      </trkpt>
      <trkpt lat="42.884053001180291" lon="-8.542539998888969">
        <ele>279.39999999999998</ele>
        <time>2025-05-01T13:06:01Z</time>
      </trkpt>
      <trkpt lat="42.883973959833384" lon="-8.542643012478948">
        <ele>278.44</ele>
        <time>2025-05-01T13:06:02Z</time>
      </trkpt>
      <trkpt lat="42.883815038949251" lon="-8.542781984433532">
        <ele>275.56</ele>
        <time>2025-05-01T13:06:07Z</time>
      </trkpt>
      <trkpt lat="42.883485965430737" lon="-8.543071998283267">
        <ele>272.67000000000002</ele>
        <time>2025-05-01T13:06:17Z</time>
      </trkpt>
      <trkpt lat="42.883468028157949" lon="-8.543088007718325">
        <ele>272.67000000000002</ele>
        <time>2025-05-01T13:06:18Z</time>
      </trkpt>
      <trkpt lat="42.883454030379653" lon="-8.54309999383986">
        <ele>272.19</ele>
        <time>2025-05-01T13:06:19Z</time>
      </trkpt>
      <trkpt lat="42.883437015116215" lon="-8.543114997446537">
        <ele>271.70999999999998</ele>
        <time>2025-05-01T13:06:20Z</time>
      </trkpt>
      <trkpt lat="42.883424023166299" lon="-8.543124971911311">
        <ele>271.23000000000002</ele>
        <time>2025-05-01T13:06:21Z</time>
      </trkpt>
      <trkpt lat="42.883339030668139" lon="-8.543121032416821">
        <ele>271.23000000000002</ele>
        <time>2025-05-01T13:06:22Z</time>
      </trkpt>
      <trkpt lat="42.883332995697856" lon="-8.543092031031847">
        <ele>271.23000000000002</ele>
        <time>2025-05-01T13:06:23Z</time>
      </trkpt>
      <trkpt lat="42.883325032889843" lon="-8.54305699467659">
        <ele>271.23000000000002</ele>
        <time>2025-05-01T13:06:24Z</time>
      </trkpt>
      <trkpt lat="42.883316986262798" lon="-8.543017012998462">
        <ele>271.23000000000002</ele>
        <time>2025-05-01T13:06:25Z</time>
      </trkpt>
      <trkpt lat="42.883309023454785" lon="-8.542978959158063">
        <ele>271.70999999999998</ele>
        <time>2025-05-01T13:06:26Z</time>
      </trkpt>
      <trkpt lat="42.883300976827741" lon="-8.542940989136696">
        <ele>271.70999999999998</ele>
        <time>2025-05-01T13:06:27Z</time>
      </trkpt>
      <trkpt lat="42.883292008191347" lon="-8.542897989973426">
        <ele>272.19</ele>
        <time>2025-05-01T13:06:28Z</time>
      </trkpt>
      <trkpt lat="42.883282033726573" lon="-8.542849961668253">
        <ele>272.67000000000002</ele>
        <time>2025-05-01T13:06:29Z</time>
      </trkpt>
      <trkpt lat="42.883208021521568" lon="-8.542504962533712">
        <ele>275.56</ele>
        <time>2025-05-01T13:06:40Z</time>
      </trkpt>
      <trkpt lat="42.883208021521568" lon="-8.542504962533712">
        <ele>275.56</ele>
        <time>2025-05-01T13:07:08Z</time>
      </trkpt>
      <trkpt lat="42.883208021521568" lon="-8.542504962533712">
        <ele>279.88</ele>
        <time>2025-05-01T13:07:25Z</time>
      </trkpt>
      <trkpt lat="42.883208021521568" lon="-8.542504962533712">
        <ele>279.88</ele>
        <time>2025-05-01T13:07:44Z</time>
      </trkpt>
      <trkpt lat="42.883208021521568" lon="-8.542504962533712">
        <ele>280.36000000000001</ele>
        <time>2025-05-01T13:08:04Z</time>
      </trkpt>
      <trkpt lat="42.883095033466816" lon="-8.542542010545731">
        <ele>308.24000000000001</ele>
        <time>2025-05-02T06:18:02Z</time>
      </trkpt>
      <trkpt lat="42.883222019299865" lon="-8.542405972257257">
        <ele>303.43000000000001</ele>
        <time>2025-05-02T06:18:40Z</time>
      </trkpt>
      <trkpt lat="42.883235011249781" lon="-8.542388034984469">
        <ele>305.83999999999997</ele>
        <time>2025-05-02T06:19:23Z</time>
      </trkpt>
      <trkpt lat="42.883241968229413" lon="-8.54238904081285">
        <ele>306.80000000000001</ele>
        <time>2025-05-02T06:19:59Z</time>
      </trkpt>
      <trkpt lat="42.883237022906542" lon="-8.54238904081285">
        <ele>306.80000000000001</ele>
        <time>2025-05-02T06:20:32Z</time>
      </trkpt>
      <trkpt lat="42.883237022906542" lon="-8.54238904081285">
        <ele>305.83999999999997</ele>
        <time>2025-05-02T06:21:12Z</time>
      </trkpt>
      <trkpt lat="42.883237022906542" lon="-8.54239096865058">
        <ele>305.83999999999997</ele>
        <time>2025-05-02T06:21:47Z</time>
      </trkpt>
      <trkpt lat="42.883237022906542" lon="-8.54239096865058">
        <ele>305.83999999999997</ele>
        <time>2025-05-02T06:22:12Z</time>
      </trkpt>
      <trkpt lat="42.8832340054214" lon="-8.54238904081285">
        <ele>305.36000000000001</ele>
        <time>2025-05-02T06:22:46Z</time>
      </trkpt>
      <trkpt lat="42.883232999593019" lon="-8.542386023327708">
        <ele>305.36000000000001</ele>
        <time>2025-05-02T06:23:18Z</time>
      </trkpt>
      <trkpt lat="42.8832340054214" lon="-8.542385017499328">
        <ele>304.88</ele>
        <time>2025-05-02T06:23:50Z</time>
      </trkpt>
      <trkpt lat="42.883229982107878" lon="-8.542383005842567">
        <ele>304.88</ele>
        <time>2025-05-02T06:24:29Z</time>
      </trkpt>
      <trkpt lat="42.883228976279497" lon="-8.542383005842567">
        <ele>304.88</ele>
        <time>2025-05-02T06:25:12Z</time>
      </trkpt>
      <trkpt lat="42.883228976279497" lon="-8.542383005842567">
        <ele>304.88</ele>
        <time>2025-05-02T06:25:16Z</time>
      </trkpt>
      <trkpt lat="42.883198969066143" lon="-8.542323997244239">
        <ele>302.47000000000003</ele>
        <time>2025-05-02T06:25:24Z</time>
      </trkpt>
      <trkpt lat="42.883114982396364" lon="-8.542171027511358">
        <ele>301.02999999999997</ele>
        <time>2025-05-02T06:25:37Z</time>
      </trkpt>
      <trkpt lat="42.882935022935271" lon="-8.541548000648618">
        <ele>297.18000000000001</ele>
        <time>2025-05-02T06:25:44Z</time>
      </trkpt>
      <trkpt lat="42.882541995495558" lon="-8.54073403403163">
        <ele>291.42000000000002</ele>
        <time>2025-05-02T06:25:53Z</time>
      </trkpt>
      <trkpt lat="42.882431019097567" lon="-8.540590032935143">
        <ele>289.49000000000001</ele>
        <time>2025-05-02T06:25:55Z</time>
      </trkpt>
      <trkpt lat="42.882377039641142" lon="-8.54051903821528">
        <ele>289.00999999999999</ele>
        <time>2025-05-02T06:25:56Z</time>
      </trkpt>
      <trkpt lat="42.882319958880544" lon="-8.540450977161527">
        <ele>288.05000000000001</ele>
        <time>2025-05-02T06:25:57Z</time>
      </trkpt>
      <trkpt lat="42.882203031331301" lon="-8.540321979671717">
        <ele>286.61000000000001</ele>
        <time>2025-05-02T06:25:59Z</time>
      </trkpt>
      <trkpt lat="42.882144022732973" lon="-8.540256014093757">
        <ele>286.13</ele>
        <time>2025-05-02T06:26:00Z</time>
      </trkpt>
      <trkpt lat="42.882061041891575" lon="-8.540213014930487">
        <ele>285.64999999999998</ele>
        <time>2025-05-02T06:26:01Z</time>
      </trkpt>
      <trkpt lat="42.881980994716287" lon="-8.540190970525146">
        <ele>285.17000000000002</ele>
        <time>2025-05-02T06:26:02Z</time>
      </trkpt>
      <trkpt lat="42.881898013874888" lon="-8.54017898440361">
        <ele>284.69</ele>
        <time>2025-05-02T06:26:03Z</time>
      </trkpt>
      <trkpt lat="42.881819978356361" lon="-8.540174961090088">
        <ele>284.20999999999998</ele>
        <time>2025-05-02T06:26:04Z</time>
      </trkpt>
      <trkpt lat="42.88143097423017" lon="-8.540174961090088">
        <ele>277.95999999999998</ele>
        <time>2025-05-02T06:26:10Z</time>
      </trkpt>
      <trkpt lat="42.88136500865221" lon="-8.54017898440361">
        <ele>277</ele>
        <time>2025-05-02T06:26:11Z</time>
      </trkpt>
      <trkpt lat="42.881303988397121" lon="-8.540187031030655">
        <ele>276.51999999999998</ele>
        <time>2025-05-02T06:26:12Z</time>
      </trkpt>
      <trkpt lat="42.880988996475935" lon="-8.540257019922137">
        <ele>272.19</ele>
        <time>2025-05-02T06:26:17Z</time>
      </trkpt>
      <trkpt lat="42.880928982049227" lon="-8.540283003821969">
        <ele>271.70999999999998</ele>
        <time>2025-05-02T06:26:18Z</time>
      </trkpt>
      <trkpt lat="42.880809959024191" lon="-8.540334971621633">
        <ele>270.26999999999998</ele>
        <time>2025-05-02T06:26:20Z</time>
      </trkpt>
      <trkpt lat="42.880747010931373" lon="-8.540361961349845">
        <ele>269.79000000000002</ele>
        <time>2025-05-02T06:26:21Z</time>
      </trkpt>
      <trkpt lat="42.880564033985138" lon="-8.540452988818288">
        <ele>268.82999999999998</ele>
        <time>2025-05-02T06:26:24Z</time>
      </trkpt>
      <trkpt lat="42.880437970161438" lon="-8.540516020730138">
        <ele>268.35000000000002</ele>
        <time>2025-05-02T06:26:26Z</time>
      </trkpt>
      <trkpt lat="42.880377033725381" lon="-8.540546027943492">
        <ele>267.86000000000001</ele>
        <time>2025-05-02T06:26:27Z</time>
      </trkpt>
      <trkpt lat="42.880317019298673" lon="-8.540576035156846">
        <ele>267.86000000000001</ele>
        <time>2025-05-02T06:26:28Z</time>
      </trkpt>
      <trkpt lat="42.880253987386823" lon="-8.540609981864691">
        <ele>267.38</ele>
        <time>2025-05-02T06:26:29Z</time>
      </trkpt>
      <trkpt lat="42.880190033465624" lon="-8.540645018219948">
        <ele>266.89999999999998</ele>
        <time>2025-05-02T06:26:30Z</time>
      </trkpt>
      <trkpt lat="42.879491988569498" lon="-8.540921034291387">
        <ele>265.45999999999998</ele>
        <time>2025-05-02T06:26:41Z</time>
      </trkpt>
      <trkpt lat="42.879428034648299" lon="-8.540944000706077">
        <ele>264.98000000000002</ele>
        <time>2025-05-02T06:26:42Z</time>
      </trkpt>
      <trkpt lat="42.879365002736449" lon="-8.540966967120767">
        <ele>264.98000000000002</ele>
        <time>2025-05-02T06:26:43Z</time>
      </trkpt>
      <trkpt lat="42.879301970824599" lon="-8.540990017354488">
        <ele>264.5</ele>
        <time>2025-05-02T06:26:44Z</time>
      </trkpt>
      <trkpt lat="42.879056967794895" lon="-8.541083978489041">
        <ele>264.01999999999998</ele>
        <time>2025-05-02T06:26:48Z</time>
      </trkpt>
      <trkpt lat="42.878997959196568" lon="-8.541109040379524">
        <ele>264.01999999999998</ele>
        <time>2025-05-02T06:26:49Z</time>
      </trkpt>
      <trkpt lat="42.878944985568523" lon="-8.541128989309073">
        <ele>263.54000000000002</ele>
        <time>2025-05-02T06:26:50Z</time>
      </trkpt>
      <trkpt lat="42.878725966438651" lon="-8.54120803065598">
        <ele>263.06</ele>
        <time>2025-05-02T06:26:54Z</time>
      </trkpt>
      <trkpt lat="42.878609038889408" lon="-8.541248012334108">
        <ele>262.57999999999998</ele>
        <time>2025-05-02T06:26:56Z</time>
      </trkpt>
      <trkpt lat="42.878209976479411" lon="-8.541493015363812">
        <ele>261.13999999999999</ele>
        <time>2025-05-02T06:27:05Z</time>
      </trkpt>
      <trkpt lat="42.87816203199327" lon="-8.541525034233928">
        <ele>261.13999999999999</ele>
        <time>2025-05-02T06:27:06Z</time>
      </trkpt>
      <trkpt lat="42.878112997859716" lon="-8.541567027568817">
        <ele>261.13999999999999</ele>
        <time>2025-05-02T06:27:07Z</time>
      </trkpt>
      <trkpt lat="42.878063041716814" lon="-8.541612038388848">
        <ele>261.13999999999999</ele>
        <time>2025-05-02T06:27:08Z</time>
      </trkpt>
      <trkpt lat="42.878015013411641" lon="-8.541654031723738">
        <ele>260.64999999999998</ele>
        <time>2025-05-02T06:27:09Z</time>
      </trkpt>
      <trkpt lat="42.877964973449707" lon="-8.541698958724737">
        <ele>260.64999999999998</ele>
        <time>2025-05-02T06:27:10Z</time>
      </trkpt>
      <trkpt lat="42.877937983721495" lon="-8.541753022000194">
        <ele>260.64999999999998</ele>
        <time>2025-05-02T06:27:11Z</time>
      </trkpt>
      <trkpt lat="42.877913005650043" lon="-8.541802978143096">
        <ele>260.64999999999998</ele>
        <time>2025-05-02T06:27:12Z</time>
      </trkpt>
      <trkpt lat="42.877885010093451" lon="-8.541859975084662">
        <ele>260.64999999999998</ele>
        <time>2025-05-02T06:27:13Z</time>
      </trkpt>
      <trkpt lat="42.877857014536858" lon="-8.541915966197848">
        <ele>260.17000000000002</ele>
        <time>2025-05-02T06:27:14Z</time>
      </trkpt>
      <trkpt lat="42.877830024808645" lon="-8.541971035301685">
        <ele>260.17000000000002</ele>
        <time>2025-05-02T06:27:15Z</time>
      </trkpt>
      <trkpt lat="42.877804040908813" lon="-8.542021997272968">
        <ele>260.17000000000002</ele>
        <time>2025-05-02T06:27:16Z</time>
      </trkpt>
      <trkpt lat="42.877750983461738" lon="-8.542128028348088">
        <ele>260.17000000000002</ele>
        <time>2025-05-02T06:27:18Z</time>
      </trkpt>
      <trkpt lat="42.87773204036057" lon="-8.542173039168119">
        <ele>260.17000000000002</ele>
        <time>2025-05-02T06:27:19Z</time>
      </trkpt>
      <trkpt lat="42.877625003457069" lon="-8.542401026934385">
        <ele>258.73000000000002</ele>
        <time>2025-05-02T06:27:26Z</time>
      </trkpt>
      <trkpt lat="42.877590972930193" lon="-8.542443020269275">
        <ele>258.25</ele>
        <time>2025-05-02T06:27:27Z</time>
      </trkpt>
      <trkpt lat="42.8775629773736" lon="-8.542421981692314">
        <ele>258.25</ele>
        <time>2025-05-02T06:27:28Z</time>
      </trkpt>
      <trkpt lat="42.877530036494136" lon="-8.542397003620863">
        <ele>257.76999999999998</ele>
        <time>2025-05-02T06:27:29Z</time>
      </trkpt>
      <trkpt lat="42.877491982653737" lon="-8.54236900806427">
        <ele>257.29000000000002</ele>
        <time>2025-05-02T06:27:30Z</time>
      </trkpt>
      <trkpt lat="42.877217978239059" lon="-8.542165998369455">
        <ele>254.88999999999999</ele>
        <time>2025-05-02T06:27:36Z</time>
      </trkpt>
      <trkpt lat="42.877008011564612" lon="-8.542010011151433">
        <ele>252.96000000000001</ele>
        <time>2025-05-02T06:27:40Z</time>
      </trkpt>
      <trkpt lat="42.876955959945917" lon="-8.541972041130066">
        <ele>252.96000000000001</ele>
        <time>2025-05-02T06:27:41Z</time>
      </trkpt>
      <trkpt lat="42.876936011016369" lon="-8.541956031695008">
        <ele>252.96000000000001</ele>
        <time>2025-05-02T06:27:42Z</time>
      </trkpt>
      <trkpt lat="42.87689502350986" lon="-8.541899034753442">
        <ele>252.47999999999999</ele>
        <time>2025-05-02T06:27:43Z</time>
      </trkpt>
      <trkpt lat="42.876864010468125" lon="-8.541854023933411">
        <ele>252</ele>
        <time>2025-05-02T06:27:44Z</time>
      </trkpt>
      <trkpt lat="42.876864010468125" lon="-8.541854023933411">
        <ele>251.52000000000001</ele>
        <time>2025-05-02T06:27:45Z</time>
      </trkpt>
      <trkpt lat="42.876789998263121" lon="-8.541747992858291">
        <ele>251.52000000000001</ele>
        <time>2025-05-02T06:27:46Z</time>
      </trkpt>
      <trkpt lat="42.876714980229735" lon="-8.541641039773822">
        <ele>250.56</ele>
        <time>2025-05-02T06:27:48Z</time>
      </trkpt>
      <trkpt lat="42.876669969409704" lon="-8.541577002033591">
        <ele>250.08000000000001</ele>
        <time>2025-05-02T06:27:49Z</time>
      </trkpt>
      <trkpt lat="42.876255987212062" lon="-8.540905024856329">
        <ele>248.63999999999999</ele>
        <time>2025-05-02T06:27:59Z</time>
      </trkpt>
      <trkpt lat="42.876175018027425" lon="-8.540770998224616">
        <ele>248.16</ele>
        <time>2025-05-02T06:28:01Z</time>
      </trkpt>
      <trkpt lat="42.876136964187026" lon="-8.540709977969527">
        <ele>247.68000000000001</ele>
        <time>2025-05-02T06:28:02Z</time>
      </trkpt>
      <trkpt lat="42.87605800665915" lon="-8.540579974651337">
        <ele>247.19999999999999</ele>
        <time>2025-05-02T06:28:04Z</time>
      </trkpt>
      <trkpt lat="42.875981982797384" lon="-8.54045600630343">
        <ele>246.72</ele>
        <time>2025-05-02T06:28:06Z</time>
      </trkpt>
      <trkpt lat="42.875946024432778" lon="-8.540395991876721">
        <ele>246.22999999999999</ele>
        <time>2025-05-02T06:28:07Z</time>
      </trkpt>
      <trkpt lat="42.875752989202738" lon="-8.540209997445345">
        <ele>243.83000000000001</ele>
        <time>2025-05-02T06:28:13Z</time>
      </trkpt>
      <trkpt lat="42.875730022788048" lon="-8.540238998830319">
        <ele>243.34999999999999</ele>
        <time>2025-05-02T06:28:14Z</time>
      </trkpt>
      <trkpt lat="42.875712001696229" lon="-8.540260959416628">
        <ele>243.34999999999999</ele>
        <time>2025-05-02T06:28:15Z</time>
      </trkpt>
      <trkpt lat="42.875669002532959" lon="-8.540324997156858">
        <ele>242.87</ele>
        <time>2025-05-02T06:28:16Z</time>
      </trkpt>
      <trkpt lat="42.875635977834463" lon="-8.540375959128141">
        <ele>242.87</ele>
        <time>2025-05-02T06:28:17Z</time>
      </trkpt>
      <trkpt lat="42.875603036954999" lon="-8.540424993261695">
        <ele>242.38999999999999</ele>
        <time>2025-05-02T06:28:18Z</time>
      </trkpt>
      <trkpt lat="42.875569006428123" lon="-8.540476961061359">
        <ele>241.91</ele>
        <time>2025-05-02T06:28:19Z</time>
      </trkpt>
      <trkpt lat="42.875501029193401" lon="-8.540581986308098">
        <ele>241.43000000000001</ele>
        <time>2025-05-02T06:28:21Z</time>
      </trkpt>
      <trkpt lat="42.875462975353003" lon="-8.540642000734806">
        <ele>240.94999999999999</ele>
        <time>2025-05-02T06:28:22Z</time>
      </trkpt>
      <trkpt lat="42.875429028645158" lon="-8.540702015161514">
        <ele>240.47</ele>
        <time>2025-05-02T06:28:23Z</time>
      </trkpt>
      <trkpt lat="42.875356022268534" lon="-8.540902007371187">
        <ele>239.02000000000001</ele>
        <time>2025-05-02T06:28:26Z</time>
      </trkpt>
      <trkpt lat="42.875321991741657" lon="-8.54097199626267">
        <ele>238.53999999999999</ele>
        <time>2025-05-02T06:28:27Z</time>
      </trkpt>
      <trkpt lat="42.875285027548671" lon="-8.54103502817452">
        <ele>238.53999999999999</ele>
        <time>2025-05-02T06:28:28Z</time>
      </trkpt>
      <trkpt lat="42.875261977314949" lon="-8.541076015681028">
        <ele>238.06</ele>
        <time>2025-05-02T06:28:29Z</time>
      </trkpt>
      <trkpt lat="42.875261977314949" lon="-8.541076015681028">
        <ele>237.58000000000001</ele>
        <time>2025-05-02T06:28:30Z</time>
      </trkpt>
      <trkpt lat="42.87519701756537" lon="-8.541215993463993">
        <ele>237.09999999999999</ele>
        <time>2025-05-02T06:28:31Z</time>
      </trkpt>
      <trkpt lat="42.875066008418798" lon="-8.541307020932436">
        <ele>236.13999999999999</ele>
        <time>2025-05-02T06:28:34Z</time>
      </trkpt>
      <trkpt lat="42.875046981498599" lon="-8.541268967092037">
        <ele>236.13999999999999</ele>
        <time>2025-05-02T06:28:35Z</time>
      </trkpt>
      <trkpt lat="42.875024015083909" lon="-8.541222028434277">
        <ele>235.66</ele>
        <time>2025-05-02T06:28:36Z</time>
      </trkpt>
      <trkpt lat="42.874990990385413" lon="-8.541156984865665">
        <ele>235.66</ele>
        <time>2025-05-02T06:28:37Z</time>
      </trkpt>
      <trkpt lat="42.874956037849188" lon="-8.541086995974183">
        <ele>235.18000000000001</ele>
        <time>2025-05-02T06:28:38Z</time>
      </trkpt>
      <trkpt lat="42.874448010697961" lon="-8.540294989943504">
        <ele>234.22</ele>
        <time>2025-05-02T06:28:49Z</time>
      </trkpt>
      <trkpt lat="42.874393025413156" lon="-8.540219971910119">
        <ele>234.22</ele>
        <time>2025-05-02T06:28:50Z</time>
      </trkpt>
      <trkpt lat="42.874045008793473" lon="-8.539902968332171">
        <ele>233.74000000000001</ele>
        <time>2025-05-02T06:28:56Z</time>
      </trkpt>
      <trkpt lat="42.873990023508668" lon="-8.539859969168901">
        <ele>233.25999999999999</ele>
        <time>2025-05-02T06:28:57Z</time>
      </trkpt>
      <trkpt lat="42.873938977718353" lon="-8.539823004975915">
        <ele>233.25999999999999</ele>
        <time>2025-05-02T06:28:58Z</time>
      </trkpt>
      <trkpt lat="42.873719036579132" lon="-8.53968302719295">
        <ele>231.81</ele>
        <time>2025-05-02T06:29:02Z</time>
      </trkpt>
      <trkpt lat="42.873493982478976" lon="-8.539559980854392">
        <ele>230.37</ele>
        <time>2025-05-02T06:29:06Z</time>
      </trkpt>
      <trkpt lat="42.87345802411437" lon="-8.539541959762573">
        <ele>229.88999999999999</ele>
        <time>2025-05-02T06:29:07Z</time>
      </trkpt>
      <trkpt lat="42.873374037444592" lon="-8.539499966427684">
        <ele>228.93000000000001</ele>
        <time>2025-05-02T06:29:17Z</time>
      </trkpt>
      <trkpt lat="42.87335098721087" lon="-8.539487980306149">
        <ele>228.93000000000001</ele>
        <time>2025-05-02T06:29:21Z</time>
      </trkpt>
      <trkpt lat="42.873334977775812" lon="-8.539480017498136">
        <ele>228.93000000000001</ele>
        <time>2025-05-02T06:29:22Z</time>
      </trkpt>
      <trkpt lat="42.873322991654277" lon="-8.539473982527852">
        <ele>228.93000000000001</ele>
        <time>2025-05-02T06:29:23Z</time>
      </trkpt>
      <trkpt lat="42.873159041628242" lon="-8.53955302387476">
        <ele>227.49000000000001</ele>
        <time>2025-05-02T06:29:31Z</time>
      </trkpt>
      <trkpt lat="42.873134985566139" lon="-8.539648996666074">
        <ele>227.00999999999999</ele>
        <time>2025-05-02T06:29:32Z</time>
      </trkpt>
      <trkpt lat="42.87311595864594" lon="-8.539724014699459">
        <ele>226.53</ele>
        <time>2025-05-02T06:29:33Z</time>
      </trkpt>
      <trkpt lat="42.873096009716392" lon="-8.539795009419322">
        <ele>226.05000000000001</ele>
        <time>2025-05-02T06:29:34Z</time>
      </trkpt>
      <trkpt lat="42.87307396531105" lon="-8.539869021624327">
        <ele>225.56999999999999</ele>
        <time>2025-05-02T06:29:35Z</time>
      </trkpt>
      <trkpt lat="42.873052004724741" lon="-8.539946973323822">
        <ele>225.09</ele>
        <time>2025-05-02T06:29:36Z</time>
      </trkpt>
      <trkpt lat="42.87277003750205" lon="-8.540925979614258">
        <ele>223.63999999999999</ele>
        <time>2025-05-02T06:29:46Z</time>
      </trkpt>
      <trkpt lat="42.872736006975174" lon="-8.541024969890714">
        <ele>223.63999999999999</ele>
        <time>2025-05-02T06:29:47Z</time>
      </trkpt>
      <trkpt lat="42.872419003397226" lon="-8.542121993377805">
        <ele>227.49000000000001</ele>
        <time>2025-05-02T06:29:57Z</time>
      </trkpt>
      <trkpt lat="42.87225597538054" lon="-8.542736973613501">
        <ele>230.84999999999999</ele>
        <time>2025-05-02T06:30:03Z</time>
      </trkpt>
      <trkpt lat="42.872016001492739" lon="-8.543626964092255">
        <ele>242.87</ele>
        <time>2025-05-02T06:30:13Z</time>
      </trkpt>
      <trkpt lat="42.871982976794243" lon="-8.543751016259193">
        <ele>247.19999999999999</ele>
        <time>2025-05-02T06:30:20Z</time>
      </trkpt>
      <trkpt lat="42.871913993731141" lon="-8.544012028723955">
        <ele>250.56</ele>
        <time>2025-05-02T06:30:34Z</time>
      </trkpt>
      <trkpt lat="42.871755994856358" lon="-8.544614017009735">
        <ele>251.52000000000001</ele>
        <time>2025-05-02T06:30:46Z</time>
      </trkpt>
      <trkpt lat="42.871720958501101" lon="-8.544746031984687">
        <ele>252</ele>
        <time>2025-05-02T06:30:54Z</time>
      </trkpt>
      <trkpt lat="42.871720958501101" lon="-8.544746031984687">
        <ele>252</ele>
        <time>2025-05-02T06:30:55Z</time>
      </trkpt>
      <trkpt lat="42.871668990701437" lon="-8.544827001169324">
        <ele>252.47999999999999</ele>
        <time>2025-05-02T06:30:56Z</time>
      </trkpt>
      <trkpt lat="42.871571006253362" lon="-8.544981982558966">
        <ele>251.52000000000001</ele>
        <time>2025-05-02T06:30:57Z</time>
      </trkpt>
      <trkpt lat="42.871571006253362" lon="-8.544981982558966">
        <ele>251.03999999999999</ele>
        <time>2025-05-02T06:30:58Z</time>
      </trkpt>
      <trkpt lat="42.871551979333162" lon="-8.545010983943939">
        <ele>251.03999999999999</ele>
        <time>2025-05-02T06:30:59Z</time>
      </trkpt>
      <trkpt lat="42.870976980775595" lon="-8.545682961121202">
        <ele>246.72</ele>
        <time>2025-05-02T06:31:11Z</time>
      </trkpt>
      <trkpt lat="42.870723009109497" lon="-8.54595897719264">
        <ele>244.78999999999999</ele>
        <time>2025-05-02T06:31:18Z</time>
      </trkpt>
      <trkpt lat="42.870641034096479" lon="-8.546085963025689">
        <ele>243.83000000000001</ele>
        <time>2025-05-02T06:31:20Z</time>
      </trkpt>
      <trkpt lat="42.870541037991643" lon="-8.546263994649053">
        <ele>242.87</ele>
        <time>2025-05-02T06:31:23Z</time>
      </trkpt>
      <trkpt lat="42.870469959452748" lon="-8.546392992138863">
        <ele>240.47</ele>
        <time>2025-05-02T06:31:30Z</time>
      </trkpt>
      <trkpt lat="42.870427966117859" lon="-8.546481002122164">
        <ele>239.50999999999999</ele>
        <time>2025-05-02T06:31:50Z</time>
      </trkpt>
      <trkpt lat="42.870403993874788" lon="-8.546534981578589">
        <ele>239.02000000000001</ele>
        <time>2025-05-02T06:31:51Z</time>
      </trkpt>
      <trkpt lat="42.870374992489815" lon="-8.5466000251472">
        <ele>238.53999999999999</ele>
        <time>2025-05-02T06:31:52Z</time>
      </trkpt>
      <trkpt lat="42.870066035538912" lon="-8.547256998717785">
        <ele>231.33000000000001</ele>
        <time>2025-05-02T06:32:03Z</time>
      </trkpt>
      <trkpt lat="42.870025970041752" lon="-8.547341991215944">
        <ele>230.37</ele>
        <time>2025-05-02T06:32:05Z</time>
      </trkpt>
      <trkpt lat="42.869983976706862" lon="-8.547480963170528">
        <ele>229.41</ele>
        <time>2025-05-02T06:32:06Z</time>
      </trkpt>
      <trkpt lat="42.869836958125234" lon="-8.547971975058317">
        <ele>225.56999999999999</ele>
        <time>2025-05-02T06:32:12Z</time>
      </trkpt>
      <trkpt lat="42.869833018630743" lon="-8.547985972836614">
        <ele>224.61000000000001</ele>
        <time>2025-05-02T06:32:13Z</time>
      </trkpt>
      <trkpt lat="42.869825977832079" lon="-8.548049004748464">
        <ele>224.12</ele>
        <time>2025-05-02T06:32:14Z</time>
      </trkpt>
      <trkpt lat="42.869810974225402" lon="-8.54817196726799">
        <ele>222.68000000000001</ele>
        <time>2025-05-02T06:32:26Z</time>
      </trkpt>
      <trkpt lat="42.869793036952615" lon="-8.548323009163141">
        <ele>222.19999999999999</ele>
        <time>2025-05-02T06:32:38Z</time>
      </trkpt>
      <trkpt lat="42.869728999212384" lon="-8.549447022378445">
        <ele>218.36000000000001</ele>
        <time>2025-05-02T06:32:48Z</time>
      </trkpt>
      <trkpt lat="42.869682982563972" lon="-8.549809958785772">
        <ele>217.40000000000001</ele>
        <time>2025-05-02T06:32:51Z</time>
      </trkpt>
      <trkpt lat="42.869167998433113" lon="-8.551268996670842">
        <ele>219.80000000000001</ele>
        <time>2025-05-02T06:33:02Z</time>
      </trkpt>
      <trkpt lat="42.868208019062877" lon="-8.552412036806345">
        <ele>230.84999999999999</ele>
        <time>2025-05-02T06:33:13Z</time>
      </trkpt>
      <trkpt lat="42.867733016610146" lon="-8.55276801623404">
        <ele>230.84999999999999</ele>
        <time>2025-05-02T06:33:18Z</time>
      </trkpt>
      <trkpt lat="42.867625979706645" lon="-8.552809003740549">
        <ele>230.37</ele>
        <time>2025-05-02T06:33:19Z</time>
      </trkpt>
      <trkpt lat="42.86752900108695" lon="-8.552834987640381">
        <ele>229.41</ele>
        <time>2025-05-02T06:33:20Z</time>
      </trkpt>
      <trkpt lat="42.867423975840211" lon="-8.552834987640381">
        <ele>228.44999999999999</ele>
        <time>2025-05-02T06:33:21Z</time>
      </trkpt>
      <trkpt lat="42.867320040240884" lon="-8.552834987640381">
        <ele>227.49000000000001</ele>
        <time>2025-05-02T06:33:22Z</time>
      </trkpt>
      <trkpt lat="42.867215014994144" lon="-8.552834987640381">
        <ele>226.53</ele>
        <time>2025-05-02T06:33:23Z</time>
      </trkpt>
      <trkpt lat="42.867138991132379" lon="-8.552821995690465">
        <ele>226.05000000000001</ele>
        <time>2025-05-02T06:33:24Z</time>
      </trkpt>
      <trkpt lat="42.867045029997826" lon="-8.552806992083788">
        <ele>225.09</ele>
        <time>2025-05-02T06:33:25Z</time>
      </trkpt>
      <trkpt lat="42.865455988794565" lon="-8.552427040413022">
        <ele>226.05000000000001</ele>
        <time>2025-05-02T06:33:39Z</time>
      </trkpt>
      <trkpt lat="42.864198032766581" lon="-8.551707034930587">
        <ele>230.37</ele>
        <time>2025-05-02T06:33:47Z</time>
      </trkpt>
      <trkpt lat="42.863084999844432" lon="-8.550416976213455">
        <ele>235.66</ele>
        <time>2025-05-02T06:33:56Z</time>
      </trkpt>
      <trkpt lat="42.861754959449172" lon="-8.548285961151123">
        <ele>237.58000000000001</ele>
        <time>2025-05-02T06:34:09Z</time>
      </trkpt>
      <trkpt lat="42.860283013433218" lon="-8.546777972951531">
        <ele>240.47</ele>
        <time>2025-05-02T06:34:20Z</time>
      </trkpt>
      <trkpt lat="42.859566025435925" lon="-8.545533008873463">
        <ele>242.38999999999999</ele>
        <time>2025-05-02T06:34:27Z</time>
      </trkpt>
      <trkpt lat="42.859309036284685" lon="-8.544313022866845">
        <ele>242.87</ele>
        <time>2025-05-02T06:34:33Z</time>
      </trkpt>
      <trkpt lat="42.859287997707725" lon="-8.544100960716605">
        <ele>242.38999999999999</ele>
        <time>2025-05-02T06:34:34Z</time>
      </trkpt>
      <trkpt lat="42.85942898131907" lon="-8.541948990896344">
        <ele>239.99000000000001</ele>
        <time>2025-05-02T06:34:44Z</time>
      </trkpt>
      <trkpt lat="42.859490001574159" lon="-8.540068008005619">
        <ele>238.53999999999999</ele>
        <time>2025-05-02T06:34:54Z</time>
      </trkpt>
      <trkpt lat="42.859395034611225" lon="-8.53979199193418">
        <ele>238.53999999999999</ele>
        <time>2025-05-02T06:34:55Z</time>
      </trkpt>
      <trkpt lat="42.859337031841278" lon="-8.539623012766242">
        <ele>238.53999999999999</ele>
        <time>2025-05-02T06:34:56Z</time>
      </trkpt>
      <trkpt lat="42.859276011586189" lon="-8.539444981142879">
        <ele>238.53999999999999</ele>
        <time>2025-05-02T06:34:57Z</time>
      </trkpt>
      <trkpt lat="42.858422985300422" lon="-8.53738403879106">
        <ele>239.50999999999999</ele>
        <time>2025-05-02T06:35:09Z</time>
      </trkpt>
      <trkpt lat="42.857743967324495" lon="-8.534626979380846">
        <ele>238.53999999999999</ele>
        <time>2025-05-02T06:35:23Z</time>
      </trkpt>
      <trkpt lat="42.85702396184206" lon="-8.533111028373241">
        <ele>234.22</ele>
        <time>2025-05-02T06:35:32Z</time>
      </trkpt>
      <trkpt lat="42.85646203905344" lon="-8.532431004568934">
        <ele>229.41</ele>
        <time>2025-05-02T06:35:39Z</time>
      </trkpt>
      <trkpt lat="42.856392972171307" lon="-8.532376019284129">
        <ele>228.44999999999999</ele>
        <time>2025-05-02T06:35:40Z</time>
      </trkpt>
      <trkpt lat="42.856208989396691" lon="-8.532376019284129">
        <ele>227.49000000000001</ele>
        <time>2025-05-02T06:35:42Z</time>
      </trkpt>
      <trkpt lat="42.856132965534925" lon="-8.532347017899156">
        <ele>227.49000000000001</ele>
        <time>2025-05-02T06:35:43Z</time>
      </trkpt>
      <trkpt lat="42.85607697442174" lon="-8.53220896795392">
        <ele>227.00999999999999</ele>
        <time>2025-05-02T06:35:44Z</time>
      </trkpt>
      <trkpt lat="42.856057025492191" lon="-8.532149959355593">
        <ele>227.00999999999999</ele>
        <time>2025-05-02T06:35:45Z</time>
      </trkpt>
      <trkpt lat="42.856016037985682" lon="-8.531936975196004">
        <ele>226.53</ele>
        <time>2025-05-02T06:35:46Z</time>
      </trkpt>
      <trkpt lat="42.855863990262151" lon="-8.531828010454774">
        <ele>226.05000000000001</ele>
        <time>2025-05-02T06:35:47Z</time>
      </trkpt>
      <trkpt lat="42.855863990262151" lon="-8.531828010454774">
        <ele>225.56999999999999</ele>
        <time>2025-05-02T06:35:48Z</time>
      </trkpt>
      <trkpt lat="42.855648994445801" lon="-8.531613014638424">
        <ele>223.16</ele>
        <time>2025-05-02T06:35:51Z</time>
      </trkpt>
      <trkpt lat="42.855502981692553" lon="-8.531613014638424">
        <ele>222.68000000000001</ele>
        <time>2025-05-02T06:35:52Z</time>
      </trkpt>
      <trkpt lat="42.855374990031123" lon="-8.531613014638424">
        <ele>220.75999999999999</ele>
        <time>2025-05-02T06:35:58Z</time>
      </trkpt>
      <trkpt lat="42.855317993089557" lon="-8.531629024073482">
        <ele>219.80000000000001</ele>
        <time>2025-05-02T06:36:00Z</time>
      </trkpt>
      <trkpt lat="42.855054968968034" lon="-8.531660037115216">
        <ele>218.36000000000001</ele>
        <time>2025-05-02T06:36:04Z</time>
      </trkpt>
      <trkpt lat="42.854991015046835" lon="-8.531623994931579">
        <ele>218.36000000000001</ele>
        <time>2025-05-02T06:36:05Z</time>
      </trkpt>
      <trkpt lat="42.854928988963366" lon="-8.531569009646773">
        <ele>218.36000000000001</ele>
        <time>2025-05-02T06:36:06Z</time>
      </trkpt>
      <trkpt lat="42.854864029213786" lon="-8.531511006876826">
        <ele>217.88</ele>
        <time>2025-05-02T06:36:07Z</time>
      </trkpt>
      <trkpt lat="42.854812983423471" lon="-8.531443029642105">
        <ele>217.88</ele>
        <time>2025-05-02T06:36:08Z</time>
      </trkpt>
      <trkpt lat="42.854782976210117" lon="-8.531355019658804">
        <ele>217.88</ele>
        <time>2025-05-02T06:36:09Z</time>
      </trkpt>
      <trkpt lat="42.854763027280569" lon="-8.531256029382348">
        <ele>217.88</ele>
        <time>2025-05-02T06:36:10Z</time>
      </trkpt>
      <trkpt lat="42.854751963168383" lon="-8.531160978600383">
        <ele>217.40000000000001</ele>
        <time>2025-05-02T06:36:11Z</time>
      </trkpt>
      <trkpt lat="42.85476797260344" lon="-8.531062994152308">
        <ele>216.91</ele>
        <time>2025-05-02T06:36:12Z</time>
      </trkpt>
      <trkpt lat="42.854784987866879" lon="-8.530965009704232">
        <ele>216.43000000000001</ele>
        <time>2025-05-02T06:36:13Z</time>
      </trkpt>
      <trkpt lat="42.854808960109949" lon="-8.530882028862834">
        <ele>215.94999999999999</ele>
        <time>2025-05-02T06:36:14Z</time>
      </trkpt>
      <trkpt lat="42.854842990636826" lon="-8.530795024707913">
        <ele>215.94999999999999</ele>
        <time>2025-05-02T06:36:15Z</time>
      </trkpt>
      <trkpt lat="42.85487400367856" lon="-8.530709026381373">
        <ele>215.47</ele>
        <time>2025-05-02T06:36:16Z</time>
      </trkpt>
      <trkpt lat="42.854904010891914" lon="-8.530625961720944">
        <ele>214.99000000000001</ele>
        <time>2025-05-02T06:36:17Z</time>
      </trkpt>
      <trkpt lat="42.854920020326972" lon="-8.530540969222784">
        <ele>214.99000000000001</ele>
        <time>2025-05-02T06:36:18Z</time>
      </trkpt>
      <trkpt lat="42.854920020326972" lon="-8.530452037230134">
        <ele>214.50999999999999</ele>
        <time>2025-05-02T06:36:19Z</time>
      </trkpt>
      <trkpt lat="42.854885989800096" lon="-8.530319016426802">
        <ele>214.50999999999999</ele>
        <time>2025-05-02T06:36:20Z</time>
      </trkpt>
      <trkpt lat="42.854822035878897" lon="-8.530265036970377">
        <ele>214.03</ele>
        <time>2025-05-02T06:36:21Z</time>
      </trkpt>
      <trkpt lat="42.85474400036037" lon="-8.530198987573385">
        <ele>213.06999999999999</ele>
        <time>2025-05-02T06:36:22Z</time>
      </trkpt>
      <trkpt lat="42.854640986770391" lon="-8.530110977590084">
        <ele>212.59</ele>
        <time>2025-05-02T06:36:23Z</time>
      </trkpt>
      <trkpt lat="42.854550965130329" lon="-8.530060015618801">
        <ele>212.11000000000001</ele>
        <time>2025-05-02T06:36:24Z</time>
      </trkpt>
      <trkpt lat="42.854102030396461" lon="-8.529756003990769">
        <ele>209.22</ele>
        <time>2025-05-02T06:36:28Z</time>
      </trkpt>
      <trkpt lat="42.854004967957735" lon="-8.529651984572411">
        <ele>208.74000000000001</ele>
        <time>2025-05-02T06:36:29Z</time>
      </trkpt>
      <trkpt lat="42.853911006823182" lon="-8.529532039538026">
        <ele>207.78</ele>
        <time>2025-05-02T06:36:30Z</time>
      </trkpt>
      <trkpt lat="42.8529810346663" lon="-8.528307024389505">
        <ele>198.65000000000001</ele>
        <time>2025-05-02T06:36:39Z</time>
      </trkpt>
      <trkpt lat="42.852308973670006" lon="-8.527033980935812">
        <ele>190.96000000000001</ele>
        <time>2025-05-02T06:36:47Z</time>
      </trkpt>
      <trkpt lat="42.851919969543815" lon="-8.525994038209319">
        <ele>185.66999999999999</ele>
        <time>2025-05-02T06:36:53Z</time>
      </trkpt>
      <trkpt lat="42.851834977045655" lon="-8.525818018242717">
        <ele>184.71000000000001</ele>
        <time>2025-05-02T06:36:54Z</time>
      </trkpt>
      <trkpt lat="42.851728023961186" lon="-8.525673011317849">
        <ele>183.27000000000001</ele>
        <time>2025-05-02T06:36:55Z</time>
      </trkpt>
      <trkpt lat="42.851618975400925" lon="-8.52552498690784">
        <ele>182.31</ele>
        <time>2025-05-02T06:36:56Z</time>
      </trkpt>
      <trkpt lat="42.851484026759863" lon="-8.525402024388313">
        <ele>181.34999999999999</ele>
        <time>2025-05-02T06:36:57Z</time>
      </trkpt>
      <trkpt lat="42.851344970986247" lon="-8.525294987484813">
        <ele>180.38</ele>
        <time>2025-05-02T06:36:58Z</time>
      </trkpt>
      <trkpt lat="42.851199964061379" lon="-8.525212006643415">
        <ele>179.41999999999999</ele>
        <time>2025-05-02T06:36:59Z</time>
      </trkpt>
      <trkpt lat="42.851050011813641" lon="-8.525140006095171">
        <ele>178.46000000000001</ele>
        <time>2025-05-02T06:37:00Z</time>
      </trkpt>
      <trkpt lat="42.850894024595618" lon="-8.52509600110352">
        <ele>177.02000000000001</ele>
        <time>2025-05-02T06:37:01Z</time>
      </trkpt>
      <trkpt lat="42.850734014064074" lon="-8.525076974183321">
        <ele>176.06</ele>
        <time>2025-05-02T06:37:02Z</time>
      </trkpt>
      <trkpt lat="42.85057601518929" lon="-8.525098012760282">
        <ele>175.09999999999999</ele>
        <time>2025-05-02T06:37:03Z</time>
      </trkpt>
      <trkpt lat="42.850419022142887" lon="-8.52511796168983">
        <ele>174.13999999999999</ele>
        <time>2025-05-02T06:37:04Z</time>
      </trkpt>
      <trkpt lat="42.850267980247736" lon="-8.52513799443841">
        <ele>173.66</ele>
        <time>2025-05-02T06:37:05Z</time>
      </trkpt>
      <trkpt lat="42.850118027999997" lon="-8.52515903301537">
        <ele>172.69</ele>
        <time>2025-05-02T06:37:06Z</time>
      </trkpt>
      <trkpt lat="42.849119994789362" lon="-8.525304961949587">
        <ele>165.47999999999999</ele>
        <time>2025-05-02T06:37:13Z</time>
      </trkpt>
      <trkpt lat="42.847555009648204" lon="-8.524979995563626">
        <ele>156.83000000000001</ele>
        <time>2025-05-02T06:37:24Z</time>
      </trkpt>
      <trkpt lat="42.845920035615563" lon="-8.524969015270472">
        <ele>146.25999999999999</ele>
        <time>2025-05-02T06:37:35Z</time>
      </trkpt>
      <trkpt lat="42.844828041270375" lon="-8.524524020031095">
        <ele>138.09</ele>
        <time>2025-05-02T06:37:43Z</time>
      </trkpt>
      <trkpt lat="42.844364019110799" lon="-8.523980034515262">
        <ele>133.75999999999999</ele>
        <time>2025-05-02T06:37:50Z</time>
      </trkpt>
      <trkpt lat="42.844025976955891" lon="-8.523778030648828">
        <ele>130.88</ele>
        <time>2025-05-02T06:37:57Z</time>
      </trkpt>
      <trkpt lat="42.843976020812988" lon="-8.523721033707261">
        <ele>130.40000000000001</ele>
        <time>2025-05-02T06:37:58Z</time>
      </trkpt>
      <trkpt lat="42.843954982236028" lon="-8.523596981540322">
        <ele>129.91999999999999</ele>
        <time>2025-05-02T06:37:59Z</time>
      </trkpt>
      <trkpt lat="42.843954982236028" lon="-8.523566974326968">
        <ele>129.43000000000001</ele>
        <time>2025-05-02T06:38:00Z</time>
      </trkpt>
      <trkpt lat="42.844004016369581" lon="-8.523336974903941">
        <ele>129.43000000000001</ele>
        <time>2025-05-02T06:38:01Z</time>
      </trkpt>
      <trkpt lat="42.84363797865808" lon="-8.522336008027196">
        <ele>126.06999999999999</ele>
        <time>2025-05-02T06:38:09Z</time>
      </trkpt>
      <trkpt lat="42.843092987313867" lon="-8.520644959062338">
        <ele>128.47</ele>
        <time>2025-05-02T06:38:19Z</time>
      </trkpt>
      <trkpt lat="42.842420004308224" lon="-8.519032029435039">
        <ele>135.68000000000001</ele>
        <time>2025-05-02T06:38:28Z</time>
      </trkpt>
      <trkpt lat="42.841420965269208" lon="-8.516904031857848">
        <ele>150.58000000000001</ele>
        <time>2025-05-02T06:38:38Z</time>
      </trkpt>
      <trkpt lat="42.840197961777449" lon="-8.514259960502386">
        <ele>159.72</ele>
        <time>2025-05-02T06:38:50Z</time>
      </trkpt>
      <trkpt lat="42.840062007308006" lon="-8.514092992991209">
        <ele>160.19999999999999</ele>
        <time>2025-05-02T06:38:51Z</time>
      </trkpt>
      <trkpt lat="42.839090963825583" lon="-8.513312973082066">
        <ele>161.63999999999999</ele>
        <time>2025-05-02T06:38:57Z</time>
      </trkpt>
      <trkpt lat="42.837755978107452" lon="-8.513083979487419">
        <ele>165</ele>
        <time>2025-05-02T06:39:04Z</time>
      </trkpt>
      <trkpt lat="42.836619978770614" lon="-8.512579975649715">
        <ele>168.84999999999999</ele>
        <time>2025-05-02T06:39:11Z</time>
      </trkpt>
      <trkpt lat="42.836476983502507" lon="-8.512432035058737">
        <ele>169.81</ele>
        <time>2025-05-02T06:39:12Z</time>
      </trkpt>
      <trkpt lat="42.83633197657764" lon="-8.512281998991966">
        <ele>170.77000000000001</ele>
        <time>2025-05-02T06:39:13Z</time>
      </trkpt>
      <trkpt lat="42.834860030561686" lon="-8.510587010532618">
        <ele>177.97999999999999</ele>
        <time>2025-05-02T06:39:23Z</time>
      </trkpt>
      <trkpt lat="42.8336660284549" lon="-8.508752966299653">
        <ele>183.27000000000001</ele>
        <time>2025-05-02T06:39:32Z</time>
      </trkpt>
      <trkpt lat="42.833285992965102" lon="-8.507812013849616">
        <ele>184.71000000000001</ele>
        <time>2025-05-02T06:39:36Z</time>
      </trkpt>
      <trkpt lat="42.833164958283305" lon="-8.507594000548124">
        <ele>184.71000000000001</ele>
        <time>2025-05-02T06:39:37Z</time>
      </trkpt>
      <trkpt lat="42.83188596367836" lon="-8.505433984100819">
        <ele>186.63</ele>
        <time>2025-05-02T06:39:47Z</time>
      </trkpt>
      <trkpt lat="42.831457983702421" lon="-8.503967989236116">
        <ele>186.15000000000001</ele>
        <time>2025-05-02T06:39:53Z</time>
      </trkpt>
      <trkpt lat="42.830870999023318" lon="-8.501359038054943">
        <ele>185.19</ele>
        <time>2025-05-02T06:40:04Z</time>
      </trkpt>
      <trkpt lat="42.830522982403636" lon="-8.498654030263424">
        <ele>182.78999999999999</ele>
        <time>2025-05-02T06:40:15Z</time>
      </trkpt>
      <trkpt lat="42.83033799380064" lon="-8.496421007439494">
        <ele>183.75</ele>
        <time>2025-05-02T06:40:24Z</time>
      </trkpt>
      <trkpt lat="42.83016499131918" lon="-8.495504027232528">
        <ele>187.11000000000001</ele>
        <time>2025-05-02T06:40:28Z</time>
      </trkpt>
      <trkpt lat="42.829707004129887" lon="-8.493868969380856">
        <ele>194.80000000000001</ele>
        <time>2025-05-02T06:40:35Z</time>
      </trkpt>
      <trkpt lat="42.829675991088152" lon="-8.49364198744297">
        <ele>195.77000000000001</ele>
        <time>2025-05-02T06:40:36Z</time>
      </trkpt>
      <trkpt lat="42.829580018296838" lon="-8.491651033982635">
        <ele>201.05000000000001</ele>
        <time>2025-05-02T06:40:44Z</time>
      </trkpt>
      <trkpt lat="42.82954003661871" lon="-8.491417011246085">
        <ele>202.00999999999999</ele>
        <time>2025-05-02T06:40:45Z</time>
      </trkpt>
      <trkpt lat="42.829483039677143" lon="-8.491181982681155">
        <ele>202.49000000000001</ele>
        <time>2025-05-02T06:40:46Z</time>
      </trkpt>
      <trkpt lat="42.829425958916545" lon="-8.490947959944606">
        <ele>203.46000000000001</ele>
        <time>2025-05-02T06:40:47Z</time>
      </trkpt>
      <trkpt lat="42.829364016652107" lon="-8.490672027692199">
        <ele>204.41999999999999</ele>
        <time>2025-05-02T06:40:48Z</time>
      </trkpt>
      <trkpt lat="42.8292849753052" lon="-8.490495001897216">
        <ele>205.38</ele>
        <time>2025-05-02T06:40:49Z</time>
      </trkpt>
      <trkpt lat="42.829182967543602" lon="-8.490288974717259">
        <ele>206.81999999999999</ele>
        <time>2025-05-02T06:40:50Z</time>
      </trkpt>
      <trkpt lat="42.829075008630753" lon="-8.490099962800741">
        <ele>208.25999999999999</ele>
        <time>2025-05-02T06:40:51Z</time>
      </trkpt>
      <trkpt lat="42.828957997262478" lon="-8.489920003339648">
        <ele>209.22</ele>
        <time>2025-05-02T06:40:52Z</time>
      </trkpt>
      <trkpt lat="42.828821036964655" lon="-8.489759992808104">
        <ele>210.19</ele>
        <time>2025-05-02T06:40:53Z</time>
      </trkpt>
      <trkpt lat="42.828681981191039" lon="-8.489609034731984">
        <ele>211.15000000000001</ele>
        <time>2025-05-02T06:40:54Z</time>
      </trkpt>
      <trkpt lat="42.82853496260941" lon="-8.489490011706948">
        <ele>212.11000000000001</ele>
        <time>2025-05-02T06:40:55Z</time>
      </trkpt>
      <trkpt lat="42.828390039503574" lon="-8.489390015602112">
        <ele>213.06999999999999</ele>
        <time>2025-05-02T06:40:56Z</time>
      </trkpt>
      <trkpt lat="42.828248972073197" lon="-8.489293036982417">
        <ele>214.03</ele>
        <time>2025-05-02T06:40:57Z</time>
      </trkpt>
      <trkpt lat="42.82810103148222" lon="-8.48921500146389">
        <ele>214.99000000000001</ele>
        <time>2025-05-02T06:40:58Z</time>
      </trkpt>
      <trkpt lat="42.82795300707221" lon="-8.489140989258885">
        <ele>215.94999999999999</ele>
        <time>2025-05-02T06:40:59Z</time>
      </trkpt>
      <trkpt lat="42.827810011804104" lon="-8.489076029509306">
        <ele>216.91</ele>
        <time>2025-05-02T06:41:00Z</time>
      </trkpt>
      <trkpt lat="42.826518025249243" lon="-8.488704040646553">
        <ele>222.68000000000001</ele>
        <time>2025-05-02T06:41:10Z</time>
      </trkpt>
      <trkpt lat="42.824424980208278" lon="-8.488167012110353">
        <ele>223.16</ele>
        <time>2025-05-02T06:41:26Z</time>
      </trkpt>
      <trkpt lat="42.82318202778697" lon="-8.487866017967463">
        <ele>223.16</ele>
        <time>2025-05-02T06:41:37Z</time>
      </trkpt>
      <trkpt lat="42.821615030989051" lon="-8.487263023853302">
        <ele>225.09</ele>
        <time>2025-05-02T06:41:51Z</time>
      </trkpt>
      <trkpt lat="42.820838028565049" lon="-8.486682996153832">
        <ele>227.00999999999999</ele>
        <time>2025-05-02T06:41:58Z</time>
      </trkpt>
      <trkpt lat="42.819838989526033" lon="-8.485311968252063">
        <ele>225.09</ele>
        <time>2025-05-02T06:42:08Z</time>
      </trkpt>
      <trkpt lat="42.819285029545426" lon="-8.483929960057139">
        <ele>221.24000000000001</ele>
        <time>2025-05-02T06:42:15Z</time>
      </trkpt>
      <trkpt lat="42.818698966875672" lon="-8.482218040153384">
        <ele>213.06999999999999</ele>
        <time>2025-05-02T06:42:23Z</time>
      </trkpt>
      <trkpt lat="42.817774023860693" lon="-8.480072021484375">
        <ele>200.56999999999999</ele>
        <time>2025-05-02T06:42:34Z</time>
      </trkpt>
      <trkpt lat="42.81692803837359" lon="-8.479355033487082">
        <ele>194.80000000000001</ele>
        <time>2025-05-02T06:42:40Z</time>
      </trkpt>
      <trkpt lat="42.81561803072691" lon="-8.47898899577558">
        <ele>188.56</ele>
        <time>2025-05-02T06:42:47Z</time>
      </trkpt>
      <trkpt lat="42.813777029514313" lon="-8.478608038276434">
        <ele>187.11000000000001</ele>
        <time>2025-05-02T06:42:57Z</time>
      </trkpt>
      <trkpt lat="42.813251987099648" lon="-8.478574007749558">
        <ele>188.56</ele>
        <time>2025-05-02T06:43:00Z</time>
      </trkpt>
      <trkpt lat="42.813092982396483" lon="-8.478610971942544">
        <ele>189.03999999999999</ele>
        <time>2025-05-02T06:43:01Z</time>
      </trkpt>
      <trkpt lat="42.812940012663603" lon="-8.478663023561239">
        <ele>190</ele>
        <time>2025-05-02T06:43:02Z</time>
      </trkpt>
      <trkpt lat="42.812792994081974" lon="-8.478744998574257">
        <ele>190.47999999999999</ele>
        <time>2025-05-02T06:43:03Z</time>
      </trkpt>
      <trkpt lat="42.812640024349093" lon="-8.478829991072416">
        <ele>191.44</ele>
        <time>2025-05-02T06:43:04Z</time>
      </trkpt>
      <trkpt lat="42.812491999939084" lon="-8.478949014097452">
        <ele>192.40000000000001</ele>
        <time>2025-05-02T06:43:05Z</time>
      </trkpt>
      <trkpt lat="42.811607038602233" lon="-8.479689974337816">
        <ele>199.13</ele>
        <time>2025-05-02T06:43:11Z</time>
      </trkpt>
      <trkpt lat="42.811454990878701" lon="-8.479787958785892">
        <ele>200.09</ele>
        <time>2025-05-02T06:43:12Z</time>
      </trkpt>
      <trkpt lat="42.811294980347157" lon="-8.479857025668025">
        <ele>201.05000000000001</ele>
        <time>2025-05-02T06:43:13Z</time>
      </trkpt>
      <trkpt lat="42.811133963987231" lon="-8.479925002902746">
        <ele>201.53</ele>
        <time>2025-05-02T06:43:14Z</time>
      </trkpt>
      <trkpt lat="42.810964984819293" lon="-8.479964984580874">
        <ele>202.49000000000001</ele>
        <time>2025-05-02T06:43:15Z</time>
      </trkpt>
      <trkpt lat="42.810791982337832" lon="-8.479964984580874">
        <ele>202.97999999999999</ele>
        <time>2025-05-02T06:43:16Z</time>
      </trkpt>
      <trkpt lat="42.81061596237123" lon="-8.479964984580874">
        <ele>203.46000000000001</ele>
        <time>2025-05-02T06:43:17Z</time>
      </trkpt>
      <trkpt lat="42.810438014566898" lon="-8.479964984580874">
        <ele>203.94</ele>
        <time>2025-05-02T06:43:18Z</time>
      </trkpt>
      <trkpt lat="42.810244979336858" lon="-8.479964984580874">
        <ele>204.90000000000001</ele>
        <time>2025-05-02T06:43:19Z</time>
      </trkpt>
      <trkpt lat="42.810081029310822" lon="-8.479875968769193">
        <ele>205.38</ele>
        <time>2025-05-02T06:43:20Z</time>
      </trkpt>
      <trkpt lat="42.809911966323853" lon="-8.47978301346302">
        <ele>206.34</ele>
        <time>2025-05-02T06:43:21Z</time>
      </trkpt>
      <trkpt lat="42.807944985106587" lon="-8.478431012481451">
        <ele>213.55000000000001</ele>
        <time>2025-05-02T06:43:33Z</time>
      </trkpt>
      <trkpt lat="42.805946990847588" lon="-8.476751027628779">
        <ele>216.91</ele>
        <time>2025-05-02T06:43:45Z</time>
      </trkpt>
      <trkpt lat="42.804603958502412" lon="-8.476261021569371">
        <ele>215.94999999999999</ele>
        <time>2025-05-02T06:43:52Z</time>
      </trkpt>
      <trkpt lat="42.804028037935495" lon="-8.476262027397752">
        <ele>216.43000000000001</ele>
        <time>2025-05-02T06:43:55Z</time>
      </trkpt>
      <trkpt lat="42.803839026018977" lon="-8.4762819763273">
        <ele>216.91</ele>
        <time>2025-05-02T06:43:56Z</time>
      </trkpt>
      <trkpt lat="42.802113024517894" lon="-8.477085968479514">
        <ele>222.68000000000001</ele>
        <time>2025-05-02T06:44:06Z</time>
      </trkpt>
      <trkpt lat="42.801241977140307" lon="-8.477487964555621">
        <ele>227.97</ele>
        <time>2025-05-02T06:44:11Z</time>
      </trkpt>
      <trkpt lat="42.801061011850834" lon="-8.477540016174316">
        <ele>228.93000000000001</ele>
        <time>2025-05-02T06:44:12Z</time>
      </trkpt>
      <trkpt lat="42.800890021026134" lon="-8.477521995082498">
        <ele>230.37</ele>
        <time>2025-05-02T06:44:13Z</time>
      </trkpt>
      <trkpt lat="42.800720036029816" lon="-8.477503973990679">
        <ele>231.33000000000001</ele>
        <time>2025-05-02T06:44:14Z</time>
      </trkpt>
      <trkpt lat="42.800561031326652" lon="-8.477445971220732">
        <ele>232.78</ele>
        <time>2025-05-02T06:44:15Z</time>
      </trkpt>
      <trkpt lat="42.800406971946359" lon="-8.477360978722572">
        <ele>233.74000000000001</ele>
        <time>2025-05-02T06:44:16Z</time>
      </trkpt>
      <trkpt lat="42.800249978899956" lon="-8.477274980396032">
        <ele>235.18000000000001</ele>
        <time>2025-05-02T06:44:17Z</time>
      </trkpt>
      <trkpt lat="42.800113018602133" lon="-8.4771419595927">
        <ele>236.62</ele>
        <time>2025-05-02T06:44:18Z</time>
      </trkpt>
      <trkpt lat="42.799984021112323" lon="-8.477001981809735">
        <ele>238.06</ele>
        <time>2025-05-02T06:44:19Z</time>
      </trkpt>
      <trkpt lat="42.799876984208822" lon="-8.4768380317837">
        <ele>239.50999999999999</ele>
        <time>2025-05-02T06:44:20Z</time>
      </trkpt>
      <trkpt lat="42.799780005589128" lon="-8.476663017645478">
        <ele>240.94999999999999</ele>
        <time>2025-05-02T06:44:21Z</time>
      </trkpt>
      <trkpt lat="42.799699958413839" lon="-8.476482974365354">
        <ele>241.91</ele>
        <time>2025-05-02T06:44:22Z</time>
      </trkpt>
      <trkpt lat="42.79963499866426" lon="-8.476288011297584">
        <ele>242.87</ele>
        <time>2025-05-02T06:44:23Z</time>
      </trkpt>
      <trkpt lat="42.799605997279286" lon="-8.476089024916291">
        <ele>244.31</ele>
        <time>2025-05-02T06:44:24Z</time>
      </trkpt>
      <trkpt lat="42.799584958702326" lon="-8.475882997736335">
        <ele>245.27000000000001</ele>
        <time>2025-05-02T06:44:25Z</time>
      </trkpt>
      <trkpt lat="42.799566015601158" lon="-8.47567898221314">
        <ele>245.75</ele>
        <time>2025-05-02T06:44:26Z</time>
      </trkpt>
      <trkpt lat="42.799565009772778" lon="-8.475488964468241">
        <ele>246.72</ele>
        <time>2025-05-02T06:44:27Z</time>
      </trkpt>
      <trkpt lat="42.799574984237552" lon="-8.475294001400471">
        <ele>247.19999999999999</ele>
        <time>2025-05-02T06:44:28Z</time>
      </trkpt>
      <trkpt lat="42.799589987844229" lon="-8.475104989483953">
        <ele>247.68000000000001</ele>
        <time>2025-05-02T06:44:29Z</time>
      </trkpt>
      <trkpt lat="42.799617983400822" lon="-8.474910026416183">
        <ele>248.16</ele>
        <time>2025-05-02T06:44:30Z</time>
      </trkpt>
      <trkpt lat="42.799795009195805" lon="-8.473587026819587">
        <ele>248.16</ele>
        <time>2025-05-02T06:44:36Z</time>
      </trkpt>
      <trkpt lat="42.799786040559411" lon="-8.473364990204573">
        <ele>248.16</ele>
        <time>2025-05-02T06:44:37Z</time>
      </trkpt>
      <trkpt lat="42.799753015860915" lon="-8.47316600382328">
        <ele>248.63999999999999</ele>
        <time>2025-05-02T06:44:38Z</time>
      </trkpt>
      <trkpt lat="42.799704987555742" lon="-8.472989983856678">
        <ele>249.12</ele>
        <time>2025-05-02T06:44:39Z</time>
      </trkpt>
      <trkpt lat="42.79965796507895" lon="-8.472818993031979">
        <ele>249.59999999999999</ele>
        <time>2025-05-02T06:44:40Z</time>
      </trkpt>
      <trkpt lat="42.799603985622525" lon="-8.472654959186912">
        <ele>250.56</ele>
        <time>2025-05-02T06:44:41Z</time>
      </trkpt>
      <trkpt lat="42.79952603392303" lon="-8.472514981403947">
        <ele>251.03999999999999</ele>
        <time>2025-05-02T06:44:42Z</time>
      </trkpt>
      <trkpt lat="42.799455961212516" lon="-8.472389001399279">
        <ele>251.52000000000001</ele>
        <time>2025-05-02T06:44:43Z</time>
      </trkpt>
      <trkpt lat="42.799389995634556" lon="-8.472278025001288">
        <ele>252.47999999999999</ele>
        <time>2025-05-02T06:44:44Z</time>
      </trkpt>
      <trkpt lat="42.79845398850739" lon="-8.471068013459444">
        <ele>257.76999999999998</ele>
        <time>2025-05-02T06:44:55Z</time>
      </trkpt>
      <trkpt lat="42.797663994133472" lon="-8.470050031319261">
        <ele>263.06</ele>
        <time>2025-05-02T06:45:04Z</time>
      </trkpt>
      <trkpt lat="42.796354992315173" lon="-8.46835495904088">
        <ele>268.82999999999998</ele>
        <time>2025-05-02T06:45:19Z</time>
      </trkpt>
      <trkpt lat="42.795695001259446" lon="-8.466976974159479">
        <ele>271.70999999999998</ele>
        <time>2025-05-02T06:45:29Z</time>
      </trkpt>
      <trkpt lat="42.795461984351277" lon="-8.465402014553547">
        <ele>269.31</ele>
        <time>2025-05-02T06:45:38Z</time>
      </trkpt>
      <trkpt lat="42.794947000220418" lon="-8.463510973379016">
        <ele>266.42000000000002</ele>
        <time>2025-05-02T06:45:47Z</time>
      </trkpt>
      <trkpt lat="42.794032031670213" lon="-8.46209803596139">
        <ele>267.86000000000001</ele>
        <time>2025-05-02T06:45:55Z</time>
      </trkpt>
      <trkpt lat="42.792558996006846" lon="-8.460266003385186">
        <ele>271.23000000000002</ele>
        <time>2025-05-02T06:46:06Z</time>
      </trkpt>
      <trkpt lat="42.792285997420549" lon="-8.459902983158827">
        <ele>270.75</ele>
        <time>2025-05-02T06:46:08Z</time>
      </trkpt>
      <trkpt lat="42.790967021137476" lon="-8.458240013569593">
        <ele>269.31</ele>
        <time>2025-05-02T06:46:18Z</time>
      </trkpt>
      <trkpt lat="42.790783038362861" lon="-8.457928039133549">
        <ele>268.82999999999998</ele>
        <time>2025-05-02T06:46:20Z</time>
      </trkpt>
      <trkpt lat="42.790711959823966" lon="-8.457743972539902">
        <ele>268.82999999999998</ele>
        <time>2025-05-02T06:46:21Z</time>
      </trkpt>
      <trkpt lat="42.790656974539161" lon="-8.457567030563951">
        <ele>268.82999999999998</ele>
        <time>2025-05-02T06:46:22Z</time>
      </trkpt>
      <trkpt lat="42.79061196371913" lon="-8.457372989505529">
        <ele>268.82999999999998</ele>
        <time>2025-05-02T06:46:23Z</time>
      </trkpt>
      <trkpt lat="42.790596960112453" lon="-8.45717903226614">
        <ele>268.82999999999998</ele>
        <time>2025-05-02T06:46:24Z</time>
      </trkpt>
      <trkpt lat="42.79059000313282" lon="-8.456980967894197">
        <ele>268.35000000000002</ele>
        <time>2025-05-02T06:46:25Z</time>
      </trkpt>
      <trkpt lat="42.790594026446342" lon="-8.456788016483188">
        <ele>267.86000000000001</ele>
        <time>2025-05-02T06:46:26Z</time>
      </trkpt>
      <trkpt lat="42.790628978982568" lon="-8.456587018445134">
        <ele>267.86000000000001</ele>
        <time>2025-05-02T06:46:27Z</time>
      </trkpt>
      <trkpt lat="42.790668038651347" lon="-8.456408986821771">
        <ele>267.38</ele>
        <time>2025-05-02T06:46:28Z</time>
      </trkpt>
      <trkpt lat="42.790736015886068" lon="-8.456226009875536">
        <ele>266.89999999999998</ele>
        <time>2025-05-02T06:46:29Z</time>
      </trkpt>
      <trkpt lat="42.79080399312079" lon="-8.45604001544416">
        <ele>265.94</ele>
        <time>2025-05-02T06:46:30Z</time>
      </trkpt>
      <trkpt lat="42.79091103002429" lon="-8.45589098520577">
        <ele>264.98000000000002</ele>
        <time>2025-05-02T06:46:31Z</time>
      </trkpt>
      <trkpt lat="42.791027035564184" lon="-8.455728041008115">
        <ele>264.01999999999998</ele>
        <time>2025-05-02T06:46:32Z</time>
      </trkpt>
      <trkpt lat="42.791146980598569" lon="-8.455559983849526">
        <ele>263.06</ele>
        <time>2025-05-02T06:46:33Z</time>
      </trkpt>
      <trkpt lat="42.792283985763788" lon="-8.453964991495013">
        <ele>251.03999999999999</ele>
        <time>2025-05-02T06:46:42Z</time>
      </trkpt>
      <trkpt lat="42.793054031208158" lon="-8.451739009469748">
        <ele>236.62</ele>
        <time>2025-05-02T06:46:52Z</time>
      </trkpt>
      <trkpt lat="42.793185962364078" lon="-8.451103996485472">
        <ele>231.33000000000001</ele>
        <time>2025-05-02T06:46:55Z</time>
      </trkpt>
      <trkpt lat="42.793176993727684" lon="-8.450866034254432">
        <ele>229.88999999999999</ele>
        <time>2025-05-02T06:46:56Z</time>
      </trkpt>
      <trkpt lat="42.793170036748052" lon="-8.450651960447431">
        <ele>228.44999999999999</ele>
        <time>2025-05-02T06:46:57Z</time>
      </trkpt>
      <trkpt lat="42.793141035363078" lon="-8.450454985722899">
        <ele>227.00999999999999</ele>
        <time>2025-05-02T06:46:58Z</time>
      </trkpt>
      <trkpt lat="42.793079009279609" lon="-8.450266979634762">
        <ele>226.05000000000001</ele>
        <time>2025-05-02T06:46:59Z</time>
      </trkpt>
      <trkpt lat="42.793015977367759" lon="-8.450078973546624">
        <ele>224.61000000000001</ele>
        <time>2025-05-02T06:47:00Z</time>
      </trkpt>
      <trkpt lat="42.792939031496644" lon="-8.449902031570673">
        <ele>224.12</ele>
        <time>2025-05-02T06:47:01Z</time>
      </trkpt>
      <trkpt lat="42.792839035391808" lon="-8.449732968583703">
        <ele>223.16</ele>
        <time>2025-05-02T06:47:02Z</time>
      </trkpt>
      <trkpt lat="42.792724035680294" lon="-8.449578993022442">
        <ele>222.19999999999999</ele>
        <time>2025-05-02T06:47:03Z</time>
      </trkpt>
      <trkpt lat="42.792596966028214" lon="-8.449434991925955">
        <ele>221.72</ele>
        <time>2025-05-02T06:47:04Z</time>
      </trkpt>
      <trkpt lat="42.791582001373172" lon="-8.448169995099306">
        <ele>217.40000000000001</ele>
        <time>2025-05-02T06:47:12Z</time>
      </trkpt>
      <trkpt lat="42.791499020531774" lon="-8.447975032031536">
        <ele>216.91</ele>
        <time>2025-05-02T06:47:13Z</time>
      </trkpt>
      <trkpt lat="42.791431965306401" lon="-8.447773028165102">
        <ele>216.43000000000001</ele>
        <time>2025-05-02T06:47:14Z</time>
      </trkpt>
      <trkpt lat="42.791374968364835" lon="-8.447565995156765">
        <ele>215.47</ele>
        <time>2025-05-02T06:47:15Z</time>
      </trkpt>
      <trkpt lat="42.791347978636622" lon="-8.447347981855273">
        <ele>214.50999999999999</ele>
        <time>2025-05-02T06:47:16Z</time>
      </trkpt>
      <trkpt lat="42.791330041363835" lon="-8.447118988260627">
        <ele>213.55000000000001</ele>
        <time>2025-05-02T06:47:17Z</time>
      </trkpt>
      <trkpt lat="42.791090989485383" lon="-8.444985039532185">
        <ele>207.78</ele>
        <time>2025-05-02T06:47:26Z</time>
      </trkpt>
      <trkpt lat="42.790930978953838" lon="-8.444545995444059">
        <ele>207.30000000000001</ele>
        <time>2025-05-02T06:47:28Z</time>
      </trkpt>
      <trkpt lat="42.790838023647666" lon="-8.444337034597993">
        <ele>207.30000000000001</ele>
        <time>2025-05-02T06:47:29Z</time>
      </trkpt>
      <trkpt lat="42.79071900062263" lon="-8.444131007418037">
        <ele>207.30000000000001</ele>
        <time>2025-05-02T06:47:30Z</time>
      </trkpt>
      <trkpt lat="42.790608024224639" lon="-8.443982983008027">
        <ele>207.78</ele>
        <time>2025-05-02T06:47:31Z</time>
      </trkpt>
      <trkpt lat="42.79050400480628" lon="-8.443830013275147">
        <ele>207.78</ele>
        <time>2025-05-02T06:47:32Z</time>
      </trkpt>
      <trkpt lat="42.790349023416638" lon="-8.443675031885505">
        <ele>208.25999999999999</ele>
        <time>2025-05-02T06:47:33Z</time>
      </trkpt>
      <trkpt lat="42.790211979299784" lon="-8.44353798776865">
        <ele>208.74000000000001</ele>
        <time>2025-05-02T06:47:34Z</time>
      </trkpt>
      <trkpt lat="42.790075019001961" lon="-8.443401027470827">
        <ele>209.22</ele>
        <time>2025-05-02T06:47:35Z</time>
      </trkpt>
      <trkpt lat="42.789917020127177" lon="-8.443305976688862">
        <ele>209.69999999999999</ele>
        <time>2025-05-02T06:47:36Z</time>
      </trkpt>
      <trkpt lat="42.789756003767252" lon="-8.443210003897548">
        <ele>210.66999999999999</ele>
        <time>2025-05-02T06:47:37Z</time>
      </trkpt>
      <trkpt lat="42.788799041882157" lon="-8.442603992298245">
        <ele>215.94999999999999</ele>
        <time>2025-05-02T06:47:43Z</time>
      </trkpt>
      <trkpt lat="42.788652023300529" lon="-8.442464014515281">
        <ele>216.91</ele>
        <time>2025-05-02T06:47:44Z</time>
      </trkpt>
      <trkpt lat="42.788499975576997" lon="-8.442318001762033">
        <ele>218.36000000000001</ele>
        <time>2025-05-02T06:47:45Z</time>
      </trkpt>
      <trkpt lat="42.788363015279174" lon="-8.442136030644178">
        <ele>219.31999999999999</ele>
        <time>2025-05-02T06:47:46Z</time>
      </trkpt>
      <trkpt lat="42.788235023617744" lon="-8.441948024556041">
        <ele>219.80000000000001</ele>
        <time>2025-05-02T06:47:47Z</time>
      </trkpt>
      <trkpt lat="42.787156021222472" lon="-8.440666012465954">
        <ele>224.12</ele>
        <time>2025-05-02T06:47:55Z</time>
      </trkpt>
      <trkpt lat="42.786997016519308" lon="-8.440557969734073">
        <ele>224.12</ele>
        <time>2025-05-02T06:47:56Z</time>
      </trkpt>
      <trkpt lat="42.785873003304005" lon="-8.439875012263656">
        <ele>226.53</ele>
        <time>2025-05-02T06:48:03Z</time>
      </trkpt>
      <trkpt lat="42.785736965015531" lon="-8.439738973975182">
        <ele>227.00999999999999</ele>
        <time>2025-05-02T06:48:04Z</time>
      </trkpt>
      <trkpt lat="42.785616014152765" lon="-8.439566977322102">
        <ele>227.00999999999999</ele>
        <time>2025-05-02T06:48:05Z</time>
      </trkpt>
      <trkpt lat="42.785489028319716" lon="-8.439395986497402">
        <ele>227.49000000000001</ele>
        <time>2025-05-02T06:48:06Z</time>
      </trkpt>
      <trkpt lat="42.785361958667636" lon="-8.439221978187561">
        <ele>227.97</ele>
        <time>2025-05-02T06:48:07Z</time>
      </trkpt>
      <trkpt lat="42.783963019028306" lon="-8.436916032806039">
        <ele>227.00999999999999</ele>
        <time>2025-05-02T06:48:19Z</time>
      </trkpt>
      <trkpt lat="42.782528037205338" lon="-8.434784011915326">
        <ele>219.80000000000001</ele>
        <time>2025-05-02T06:48:30Z</time>
      </trkpt>
      <trkpt lat="42.781497985124588" lon="-8.433614987879992">
        <ele>220.28</ele>
        <time>2025-05-02T06:48:37Z</time>
      </trkpt>
      <trkpt lat="42.781375022605062" lon="-8.433446008712053">
        <ele>220.75999999999999</ele>
        <time>2025-05-02T06:48:38Z</time>
      </trkpt>
      <trkpt lat="42.781274020671844" lon="-8.433244004845619">
        <ele>221.24000000000001</ele>
        <time>2025-05-02T06:48:39Z</time>
      </trkpt>
      <trkpt lat="42.781066987663507" lon="-8.432832034304738">
        <ele>222.19999999999999</ele>
        <time>2025-05-02T06:48:41Z</time>
      </trkpt>
      <trkpt lat="42.78098501265049" lon="-8.432611003518105">
        <ele>222.68000000000001</ele>
        <time>2025-05-02T06:48:42Z</time>
      </trkpt>
      <trkpt lat="42.780923992395401" lon="-8.432377986609936">
        <ele>223.16</ele>
        <time>2025-05-02T06:48:43Z</time>
      </trkpt>
      <trkpt lat="42.780880993232131" lon="-8.432140024378896">
        <ele>223.16</ele>
        <time>2025-05-02T06:48:44Z</time>
      </trkpt>
      <trkpt lat="42.780850986018777" lon="-8.431898960843682">
        <ele>223.16</ele>
        <time>2025-05-02T06:48:45Z</time>
      </trkpt>
      <trkpt lat="42.780820978805423" lon="-8.431662004441023">
        <ele>223.16</ele>
        <time>2025-05-02T06:48:46Z</time>
      </trkpt>
      <trkpt lat="42.780799018219113" lon="-8.431429993361235">
        <ele>223.16</ele>
        <time>2025-05-02T06:48:47Z</time>
      </trkpt>
      <trkpt lat="42.780688963830471" lon="-8.430240014567971">
        <ele>220.75999999999999</ele>
        <time>2025-05-02T06:48:52Z</time>
      </trkpt>
      <trkpt lat="42.780619980767369" lon="-8.430016972124577">
        <ele>219.80000000000001</ele>
        <time>2025-05-02T06:48:53Z</time>
      </trkpt>
      <trkpt lat="42.780544962733984" lon="-8.429803987964988">
        <ele>218.84</ele>
        <time>2025-05-02T06:48:54Z</time>
      </trkpt>
      <trkpt lat="42.780468016862869" lon="-8.42959301546216">
        <ele>217.88</ele>
        <time>2025-05-02T06:48:55Z</time>
      </trkpt>
      <trkpt lat="42.780369026586413" lon="-8.429383970797062">
        <ele>217.40000000000001</ele>
        <time>2025-05-02T06:48:56Z</time>
      </trkpt>
      <trkpt lat="42.780251009389758" lon="-8.429207028821111">
        <ele>216.43000000000001</ele>
        <time>2025-05-02T06:48:57Z</time>
      </trkpt>
      <trkpt lat="42.780120000243187" lon="-8.429051041603088">
        <ele>215.47</ele>
        <time>2025-05-02T06:48:58Z</time>
      </trkpt>
      <trkpt lat="42.7799759991467" lon="-8.428917014971376">
        <ele>214.99000000000001</ele>
        <time>2025-05-02T06:48:59Z</time>
      </trkpt>
      <trkpt lat="42.77982504107058" lon="-8.428786005824804">
        <ele>214.03</ele>
        <time>2025-05-02T06:49:00Z</time>
      </trkpt>
      <trkpt lat="42.779661007225513" lon="-8.428679974749684">
        <ele>213.06999999999999</ele>
        <time>2025-05-02T06:49:01Z</time>
      </trkpt>
      <trkpt lat="42.779495967552066" lon="-8.428572015836835">
        <ele>212.11000000000001</ele>
        <time>2025-05-02T06:49:02Z</time>
      </trkpt>
      <trkpt lat="42.778360974043608" lon="-8.427662998437882">
        <ele>202.49000000000001</ele>
        <time>2025-05-02T06:49:10Z</time>
      </trkpt>
      <trkpt lat="42.777227992191911" lon="-8.42639297246933">
        <ele>194.31999999999999</ele>
        <time>2025-05-02T06:49:20Z</time>
      </trkpt>
      <trkpt lat="42.776245968416333" lon="-8.425184972584248">
        <ele>189.03999999999999</ele>
        <time>2025-05-02T06:49:31Z</time>
      </trkpt>
      <trkpt lat="42.775948997586966" lon="-8.424467984586954">
        <ele>187.59</ele>
        <time>2025-05-02T06:49:36Z</time>
      </trkpt>
      <trkpt lat="42.775740958750248" lon="-8.423231989145279">
        <ele>182.78999999999999</ele>
        <time>2025-05-02T06:49:43Z</time>
      </trkpt>
      <trkpt lat="42.775740958750248" lon="-8.423035014420748">
        <ele>181.83000000000001</ele>
        <time>2025-05-02T06:49:44Z</time>
      </trkpt>
      <trkpt lat="42.776012029498816" lon="-8.421075996011496">
        <ele>169.33000000000001</ele>
        <time>2025-05-02T06:49:54Z</time>
      </trkpt>
      <trkpt lat="42.776447972282767" lon="-8.418990997597575">
        <ele>159.24000000000001</ele>
        <time>2025-05-02T06:50:03Z</time>
      </trkpt>
      <trkpt lat="42.777027999982238" lon="-8.416380034759641">
        <ele>147.69999999999999</ele>
        <time>2025-05-02T06:50:14Z</time>
      </trkpt>
      <trkpt lat="42.777745993807912" lon="-8.415109002962709">
        <ele>139.53</ele>
        <time>2025-05-02T06:50:21Z</time>
      </trkpt>
      <trkpt lat="42.778397016227245" lon="-8.413851968944073">
        <ele>131.84</ele>
        <time>2025-05-02T06:50:28Z</time>
      </trkpt>
      <trkpt lat="42.778461975976825" lon="-8.413633033633232">
        <ele>131.36000000000001</ele>
        <time>2025-05-02T06:50:29Z</time>
      </trkpt>
      <trkpt lat="42.778498018160462" lon="-8.413392975926399">
        <ele>130.40000000000001</ele>
        <time>2025-05-02T06:50:30Z</time>
      </trkpt>
      <trkpt lat="42.778530959039927" lon="-8.413166999816895">
        <ele>128.94999999999999</ele>
        <time>2025-05-02T06:50:31Z</time>
      </trkpt>
      <trkpt lat="42.778547974303365" lon="-8.412901964038611">
        <ele>127.98999999999999</ele>
        <time>2025-05-02T06:50:32Z</time>
      </trkpt>
      <trkpt lat="42.778563983738422" lon="-8.412652015686035">
        <ele>127.03</ele>
        <time>2025-05-02T06:50:33Z</time>
      </trkpt>
      <trkpt lat="42.7785599604249" lon="-8.412396032363176">
        <ele>126.06999999999999</ele>
        <time>2025-05-02T06:50:34Z</time>
      </trkpt>
      <trkpt lat="42.778527019545436" lon="-8.412141976878047">
        <ele>125.11</ele>
        <time>2025-05-02T06:50:35Z</time>
      </trkpt>
      <trkpt lat="42.778481002897024" lon="-8.41188901104033">
        <ele>123.67</ele>
        <time>2025-05-02T06:50:36Z</time>
      </trkpt>
      <trkpt lat="42.778419982641935" lon="-8.411636967211962">
        <ele>122.70999999999999</ele>
        <time>2025-05-02T06:50:37Z</time>
      </trkpt>
      <trkpt lat="42.778345970436931" lon="-8.411389030516148">
        <ele>121.26000000000001</ele>
        <time>2025-05-02T06:50:38Z</time>
      </trkpt>
      <trkpt lat="42.778246980160475" lon="-8.411167999729514">
        <ele>119.81999999999999</ele>
        <time>2025-05-02T06:50:39Z</time>
      </trkpt>
      <trkpt lat="42.778131980448961" lon="-8.410961972549558">
        <ele>118.38</ele>
        <time>2025-05-02T06:50:40Z</time>
      </trkpt>
      <trkpt lat="42.778016980737448" lon="-8.410757035017014">
        <ele>117.42</ele>
        <time>2025-05-02T06:50:41Z</time>
      </trkpt>
      <trkpt lat="42.777273003011942" lon="-8.409363962709904">
        <ele>107.81</ele>
        <time>2025-05-02T06:50:49Z</time>
      </trkpt>
      <trkpt lat="42.777012996375561" lon="-8.40795798227191">
        <ele>99.150000000000006</ele>
        <time>2025-05-02T06:50:58Z</time>
      </trkpt>
      <trkpt lat="42.777233021333814" lon="-8.406532974913716">
        <ele>92.900000000000006</ele>
        <time>2025-05-02T06:51:07Z</time>
      </trkpt>
      <trkpt lat="42.777522029355168" lon="-8.404745031148195">
        <ele>85.689999999999998</ele>
        <time>2025-05-02T06:51:18Z</time>
      </trkpt>
      <trkpt lat="42.777500990778208" lon="-8.404198028147221">
        <ele>83.769999999999996</ele>
        <time>2025-05-02T06:51:21Z</time>
      </trkpt>
      <trkpt lat="42.777476012706757" lon="-8.404037011787295">
        <ele>83.290000000000006</ele>
        <time>2025-05-02T06:51:22Z</time>
      </trkpt>
      <trkpt lat="42.776957005262375" lon="-8.402575040236116">
        <ele>79.450000000000003</ele>
        <time>2025-05-02T06:51:30Z</time>
      </trkpt>
      <trkpt lat="42.77604203671217" lon="-8.401508023962379">
        <ele>78.969999999999999</ele>
        <time>2025-05-02T06:51:37Z</time>
      </trkpt>
      <trkpt lat="42.774490965530276" lon="-8.400857001543045">
        <ele>82.329999999999998</ele>
        <time>2025-05-02T06:51:46Z</time>
      </trkpt>
      <trkpt lat="42.772847022861242" lon="-8.400390967726708">
        <ele>91.459999999999994</ele>
        <time>2025-05-02T06:51:56Z</time>
      </trkpt>
      <trkpt lat="42.772229025140405" lon="-8.400132972747088">
        <ele>95.310000000000002</ele>
        <time>2025-05-02T06:52:00Z</time>
      </trkpt>
      <trkpt lat="42.772089969366789" lon="-8.400042029097676">
        <ele>96.75</ele>
        <time>2025-05-02T06:52:01Z</time>
      </trkpt>
      <trkpt lat="42.771947979927063" lon="-8.399940021336079">
        <ele>97.709999999999994</ele>
        <time>2025-05-02T06:52:02Z</time>
      </trkpt>
      <trkpt lat="42.771823005750775" lon="-8.399803983047605">
        <ele>99.150000000000006</ele>
        <time>2025-05-02T06:52:03Z</time>
      </trkpt>
      <trkpt lat="42.77170498855412" lon="-8.399646990001202">
        <ele>100.11</ele>
        <time>2025-05-02T06:52:04Z</time>
      </trkpt>
      <trkpt lat="42.771578002721071" lon="-8.399477005004883">
        <ele>101.56</ele>
        <time>2025-05-02T06:52:05Z</time>
      </trkpt>
      <trkpt lat="42.771480018272996" lon="-8.399312971159816">
        <ele>102.52</ele>
        <time>2025-05-02T06:52:06Z</time>
      </trkpt>
      <trkpt lat="42.771373987197876" lon="-8.399138040840626">
        <ele>103.95999999999999</ele>
        <time>2025-05-02T06:52:07Z</time>
      </trkpt>
      <trkpt lat="42.771034017205238" lon="-8.398623978719115">
        <ele>108.77</ele>
        <time>2025-05-02T06:52:10Z</time>
      </trkpt>
      <trkpt lat="42.770774010568857" lon="-8.398349974304438">
        <ele>111.17</ele>
        <time>2025-05-02T06:52:12Z</time>
      </trkpt>
      <trkpt lat="42.770620035007596" lon="-8.398252995684743">
        <ele>112.61</ele>
        <time>2025-05-02T06:52:13Z</time>
      </trkpt>
      <trkpt lat="42.770477961748838" lon="-8.398165991529822">
        <ele>114.05</ele>
        <time>2025-05-02T06:52:14Z</time>
      </trkpt>
      <trkpt lat="42.770304037258029" lon="-8.398113017901778">
        <ele>115.01000000000001</ele>
        <time>2025-05-02T06:52:15Z</time>
      </trkpt>
      <trkpt lat="42.770133968442678" lon="-8.398082004860044">
        <ele>116.45999999999999</ele>
        <time>2025-05-02T06:52:16Z</time>
      </trkpt>
      <trkpt lat="42.76994101703167" lon="-8.398082004860044">
        <ele>117.42</ele>
        <time>2025-05-02T06:52:17Z</time>
      </trkpt>
      <trkpt lat="42.769743958488107" lon="-8.398082004860044">
        <ele>118.38</ele>
        <time>2025-05-02T06:52:18Z</time>
      </trkpt>
      <trkpt lat="42.767203990370035" lon="-8.398211002349854">
        <ele>132.80000000000001</ele>
        <time>2025-05-02T06:52:30Z</time>
      </trkpt>
      <trkpt lat="42.766419025138021" lon="-8.398359026759863">
        <ele>138.56999999999999</ele>
        <time>2025-05-02T06:52:34Z</time>
      </trkpt>
      <trkpt lat="42.766229007393122" lon="-8.398438990116119">
        <ele>140.00999999999999</ele>
        <time>2025-05-02T06:52:35Z</time>
      </trkpt>
      <trkpt lat="42.766050975769758" lon="-8.39856899343431">
        <ele>140.97</ele>
        <time>2025-05-02T06:52:36Z</time>
      </trkpt>
      <trkpt lat="42.765895994380116" lon="-8.398743001744151">
        <ele>142.41</ele>
        <time>2025-05-02T06:52:37Z</time>
      </trkpt>
      <trkpt lat="42.765741012990475" lon="-8.398916004225612">
        <ele>143.37</ele>
        <time>2025-05-02T06:52:38Z</time>
      </trkpt>
      <trkpt lat="42.764809029176831" lon="-8.399754026904702">
        <ele>153.94999999999999</ele>
        <time>2025-05-02T06:52:45Z</time>
      </trkpt>
      <trkpt lat="42.764466041699052" lon="-8.39985704049468">
        <ele>155.38999999999999</ele>
        <time>2025-05-02T06:52:46Z</time>
      </trkpt>
      <trkpt lat="42.764279041439295" lon="-8.399876989424229">
        <ele>156.34999999999999</ele>
        <time>2025-05-02T06:52:47Z</time>
      </trkpt>
      <trkpt lat="42.764095980674028" lon="-8.399896016344428">
        <ele>157.78999999999999</ele>
        <time>2025-05-02T06:52:48Z</time>
      </trkpt>
      <trkpt lat="42.763917027041316" lon="-8.399888975545764">
        <ele>158.75</ele>
        <time>2025-05-02T06:52:49Z</time>
      </trkpt>
      <trkpt lat="42.763742012903094" lon="-8.399833990260959">
        <ele>160.19999999999999</ele>
        <time>2025-05-02T06:52:50Z</time>
      </trkpt>
      <trkpt lat="42.763572027906775" lon="-8.399775987491012">
        <ele>161.16</ele>
        <time>2025-05-02T06:52:51Z</time>
      </trkpt>
      <trkpt lat="42.76341101154685" lon="-8.399679008871317">
        <ele>162.12</ele>
        <time>2025-05-02T06:52:52Z</time>
      </trkpt>
      <trkpt lat="42.763243960216641" lon="-8.399585969746113">
        <ele>163.56</ele>
        <time>2025-05-02T06:52:53Z</time>
      </trkpt>
      <trkpt lat="42.762392023578286" lon="-8.399203000590205">
        <ele>168.84999999999999</ele>
        <time>2025-05-02T06:52:58Z</time>
      </trkpt>
      <trkpt lat="42.762221032753587" lon="-8.399223033338785">
        <ele>169.81</ele>
        <time>2025-05-02T06:52:59Z</time>
      </trkpt>
      <trkpt lat="42.762050963938236" lon="-8.399254968389869">
        <ele>171.25</ele>
        <time>2025-05-02T06:53:00Z</time>
      </trkpt>
      <trkpt lat="42.761878967285156" lon="-8.399292016401887">
        <ele>172.21000000000001</ele>
        <time>2025-05-02T06:53:01Z</time>
      </trkpt>
      <trkpt lat="42.76171300560236" lon="-8.399352030828595">
        <ele>173.16999999999999</ele>
        <time>2025-05-02T06:53:02Z</time>
      </trkpt>
      <trkpt lat="42.761390972882509" lon="-8.399468036368489">
        <ele>175.09999999999999</ele>
        <time>2025-05-02T06:53:04Z</time>
      </trkpt>
      <trkpt lat="42.761226017028093" lon="-8.399468958377838">
        <ele>176.06</ele>
        <time>2025-05-02T06:53:05Z</time>
      </trkpt>
      <trkpt lat="42.761055026203394" lon="-8.399457978084683">
        <ele>177.02000000000001</ele>
        <time>2025-05-02T06:53:06Z</time>
      </trkpt>
      <trkpt lat="42.760895015671849" lon="-8.399390000849962">
        <ele>177.97999999999999</ele>
        <time>2025-05-02T06:53:07Z</time>
      </trkpt>
      <trkpt lat="42.760730981826782" lon="-8.399304002523422">
        <ele>179.41999999999999</ele>
        <time>2025-05-02T06:53:08Z</time>
      </trkpt>
      <trkpt lat="42.760567031800747" lon="-8.399216998368502">
        <ele>180.38</ele>
        <time>2025-05-02T06:53:09Z</time>
      </trkpt>
      <trkpt lat="42.759309997782111" lon="-8.398236986249685">
        <ele>188.56</ele>
        <time>2025-05-02T06:53:17Z</time>
      </trkpt>
      <trkpt lat="42.759211007505655" lon="-8.398076975718141">
        <ele>189.03999999999999</ele>
        <time>2025-05-02T06:53:18Z</time>
      </trkpt>
      <trkpt lat="42.759116962552071" lon="-8.397919982671738">
        <ele>190</ele>
        <time>2025-05-02T06:53:19Z</time>
      </trkpt>
      <trkpt lat="42.75904999114573" lon="-8.397757038474083">
        <ele>190.47999999999999</ele>
        <time>2025-05-02T06:53:20Z</time>
      </trkpt>
      <trkpt lat="42.758983019739389" lon="-8.397588981315494">
        <ele>190.96000000000001</ele>
        <time>2025-05-02T06:53:21Z</time>
      </trkpt>
      <trkpt lat="42.758960975334048" lon="-8.397393012419343">
        <ele>191.91999999999999</ele>
        <time>2025-05-02T06:53:22Z</time>
      </trkpt>
      <trkpt lat="42.758937003090978" lon="-8.397180028259754">
        <ele>192.40000000000001</ele>
        <time>2025-05-02T06:53:23Z</time>
      </trkpt>
      <trkpt lat="42.758910013362765" lon="-8.396952040493488">
        <ele>193.36000000000001</ele>
        <time>2025-05-02T06:53:24Z</time>
      </trkpt>
      <trkpt lat="42.758845975622535" lon="-8.39648399502039">
        <ele>194.31999999999999</ele>
        <time>2025-05-02T06:53:26Z</time>
      </trkpt>
      <trkpt lat="42.758789984509349" lon="-8.396259024739265">
        <ele>194.80000000000001</ele>
        <time>2025-05-02T06:53:27Z</time>
      </trkpt>
      <trkpt lat="42.758698035031557" lon="-8.396046040579677">
        <ele>195.28</ele>
        <time>2025-05-02T06:53:28Z</time>
      </trkpt>
      <trkpt lat="42.758585968986154" lon="-8.39586297981441">
        <ele>196.25</ele>
        <time>2025-05-02T06:53:29Z</time>
      </trkpt>
      <trkpt lat="42.758471975103021" lon="-8.395685032010078">
        <ele>196.72999999999999</ele>
        <time>2025-05-02T06:53:30Z</time>
      </trkpt>
      <trkpt lat="42.758317999541759" lon="-8.395572965964675">
        <ele>197.69</ele>
        <time>2025-05-02T06:53:31Z</time>
      </trkpt>
      <trkpt lat="42.75816997513175" lon="-8.395469030365348">
        <ele>198.16999999999999</ele>
        <time>2025-05-02T06:53:32Z</time>
      </trkpt>
      <trkpt lat="42.758011976256967" lon="-8.395400969311595">
        <ele>199.13</ele>
        <time>2025-05-02T06:53:33Z</time>
      </trkpt>
      <trkpt lat="42.757849032059312" lon="-8.395364005118609">
        <ele>200.09</ele>
        <time>2025-05-02T06:53:34Z</time>
      </trkpt>
      <trkpt lat="42.757692961022258" lon="-8.395328968763351">
        <ele>200.56999999999999</ele>
        <time>2025-05-02T06:53:35Z</time>
      </trkpt>
      <trkpt lat="42.757206978276372" lon="-8.395193014293909">
        <ele>204.41999999999999</ele>
        <time>2025-05-02T06:53:39Z</time>
      </trkpt>
      <trkpt lat="42.757107987999916" lon="-8.395129982382059">
        <ele>205.38</ele>
        <time>2025-05-02T06:53:40Z</time>
      </trkpt>
      <trkpt lat="42.757005980238318" lon="-8.395051024854183">
        <ele>206.34</ele>
        <time>2025-05-02T06:53:41Z</time>
      </trkpt>
      <trkpt lat="42.75690296664834" lon="-8.394971983507276">
        <ele>207.78</ele>
        <time>2025-05-02T06:53:42Z</time>
      </trkpt>
      <trkpt lat="42.756820991635323" lon="-8.394860001280904">
        <ele>208.74000000000001</ele>
        <time>2025-05-02T06:53:43Z</time>
      </trkpt>
      <trkpt lat="42.756733987480402" lon="-8.394739972427487">
        <ele>209.22</ele>
        <time>2025-05-02T06:53:44Z</time>
      </trkpt>
      <trkpt lat="42.756648994982243" lon="-8.394622039049864">
        <ele>210.19</ele>
        <time>2025-05-02T06:53:45Z</time>
      </trkpt>
      <trkpt lat="42.756597027182579" lon="-8.394490024074912">
        <ele>211.15000000000001</ele>
        <time>2025-05-02T06:53:46Z</time>
      </trkpt>
      <trkpt lat="42.75655603967607" lon="-8.39433797635138">
        <ele>212.11000000000001</ele>
        <time>2025-05-02T06:53:47Z</time>
      </trkpt>
      <trkpt lat="42.75651496835053" lon="-8.394187018275261">
        <ele>213.06999999999999</ele>
        <time>2025-05-02T06:53:48Z</time>
      </trkpt>
      <trkpt lat="42.75647196918726" lon="-8.394027007743716">
        <ele>213.55000000000001</ele>
        <time>2025-05-02T06:53:49Z</time>
      </trkpt>
      <trkpt lat="42.756463000550866" lon="-8.393880994990468">
        <ele>214.50999999999999</ele>
        <time>2025-05-02T06:53:50Z</time>
      </trkpt>
      <trkpt lat="42.756453026086092" lon="-8.393715033307672">
        <ele>214.99000000000001</ele>
        <time>2025-05-02T06:53:51Z</time>
      </trkpt>
      <trkpt lat="42.756456965580583" lon="-8.393549993634224">
        <ele>215.94999999999999</ele>
        <time>2025-05-02T06:53:52Z</time>
      </trkpt>
      <trkpt lat="42.756442967802286" lon="-8.39180001989007">
        <ele>222.19999999999999</ele>
        <time>2025-05-02T06:54:01Z</time>
      </trkpt>
      <trkpt lat="42.756408015266061" lon="-8.39158502407372">
        <ele>223.16</ele>
        <time>2025-05-02T06:54:02Z</time>
      </trkpt>
      <trkpt lat="42.756205005571246" lon="-8.390939030796289">
        <ele>226.05000000000001</ele>
        <time>2025-05-02T06:54:05Z</time>
      </trkpt>
      <trkpt lat="42.755584996193647" lon="-8.389692977070808">
        <ele>233.25999999999999</ele>
        <time>2025-05-02T06:54:11Z</time>
      </trkpt>
      <trkpt lat="42.755360025912523" lon="-8.389271032065153">
        <ele>235.66</ele>
        <time>2025-05-02T06:54:13Z</time>
      </trkpt>
      <trkpt lat="42.75524502620101" lon="-8.389055030420423">
        <ele>236.62</ele>
        <time>2025-05-02T06:54:14Z</time>
      </trkpt>
      <trkpt lat="42.755131032317877" lon="-8.388841040432453">
        <ele>238.06</ele>
        <time>2025-05-02T06:54:15Z</time>
      </trkpt>
      <trkpt lat="42.755015026777983" lon="-8.388622021302581">
        <ele>239.02000000000001</ele>
        <time>2025-05-02T06:54:16Z</time>
      </trkpt>
      <trkpt lat="42.754899021238089" lon="-8.38840601965785">
        <ele>240.47</ele>
        <time>2025-05-02T06:54:17Z</time>
      </trkpt>
      <trkpt lat="42.753803003579378" lon="-8.386546997353435">
        <ele>253.44</ele>
        <time>2025-05-02T06:54:26Z</time>
      </trkpt>
      <trkpt lat="42.753261029720306" lon="-8.385559022426605">
        <ele>259.20999999999998</ele>
        <time>2025-05-02T06:54:31Z</time>
      </trkpt>
      <trkpt lat="42.753167990595102" lon="-8.385358024388552">
        <ele>260.64999999999998</ele>
        <time>2025-05-02T06:54:32Z</time>
      </trkpt>
      <trkpt lat="42.75296900421381" lon="-8.384411036968231">
        <ele>264.98000000000002</ele>
        <time>2025-05-02T06:54:36Z</time>
      </trkpt>
      <trkpt lat="42.752961041405797" lon="-8.384157987311482">
        <ele>265.45999999999998</ele>
        <time>2025-05-02T06:54:37Z</time>
      </trkpt>
      <trkpt lat="42.752952994778752" lon="-8.383920025080442">
        <ele>266.42000000000002</ele>
        <time>2025-05-02T06:54:38Z</time>
      </trkpt>
      <trkpt lat="42.752981996163726" lon="-8.383672004565597">
        <ele>266.89999999999998</ele>
        <time>2025-05-02T06:54:39Z</time>
      </trkpt>
      <trkpt lat="42.753008985891938" lon="-8.383433958515525">
        <ele>267.38</ele>
        <time>2025-05-02T06:54:40Z</time>
      </trkpt>
      <trkpt lat="42.753053996711969" lon="-8.383202031254768">
        <ele>268.35000000000002</ele>
        <time>2025-05-02T06:54:41Z</time>
      </trkpt>
      <trkpt lat="42.753108981996775" lon="-8.382964991033077">
        <ele>268.82999999999998</ele>
        <time>2025-05-02T06:54:42Z</time>
      </trkpt>
      <trkpt lat="42.753176959231496" lon="-8.382732979953289">
        <ele>269.31</ele>
        <time>2025-05-02T06:54:43Z</time>
      </trkpt>
      <trkpt lat="42.753274021670222" lon="-8.382511027157307">
        <ele>269.79000000000002</ele>
        <time>2025-05-02T06:54:44Z</time>
      </trkpt>
      <trkpt lat="42.754412032663822" lon="-8.380007017403841">
        <ele>274.58999999999997</ele>
        <time>2025-05-02T06:54:55Z</time>
      </trkpt>
      <trkpt lat="42.754894997924566" lon="-8.378871018067002">
        <ele>279.39999999999998</ele>
        <time>2025-05-02T06:55:00Z</time>
      </trkpt>
      <trkpt lat="42.754954006522894" lon="-8.378640012815595">
        <ele>280.36000000000001</ele>
        <time>2025-05-02T06:55:01Z</time>
      </trkpt>
      <trkpt lat="42.75496699847281" lon="-8.378418982028961">
        <ele>281.31999999999999</ele>
        <time>2025-05-02T06:55:02Z</time>
      </trkpt>
      <trkpt lat="42.754980996251106" lon="-8.378193005919457">
        <ele>282.76999999999998</ele>
        <time>2025-05-02T06:55:03Z</time>
      </trkpt>
      <trkpt lat="42.754975967109203" lon="-8.377950014546514">
        <ele>283.73000000000002</ele>
        <time>2025-05-02T06:55:04Z</time>
      </trkpt>
      <trkpt lat="42.75492500513792" lon="-8.377722026780248">
        <ele>285.17000000000002</ele>
        <time>2025-05-02T06:55:05Z</time>
      </trkpt>
      <trkpt lat="42.754871025681496" lon="-8.377481969073415">
        <ele>286.13</ele>
        <time>2025-05-02T06:55:06Z</time>
      </trkpt>
      <trkpt lat="42.75481503456831" lon="-8.37723202072084">
        <ele>287.56999999999999</ele>
        <time>2025-05-02T06:55:07Z</time>
      </trkpt>
      <trkpt lat="42.754532983526587" lon="-8.375122966244817">
        <ele>297.67000000000002</ele>
        <time>2025-05-02T06:55:15Z</time>
      </trkpt>
      <trkpt lat="42.754412032663822" lon="-8.372441008687019">
        <ele>304.38999999999999</ele>
        <time>2025-05-02T06:55:25Z</time>
      </trkpt>
      <trkpt lat="42.754375990480185" lon="-8.370642000809312">
        <ele>307.75999999999999</ele>
        <time>2025-05-02T06:55:32Z</time>
      </trkpt>
      <trkpt lat="42.754415972158313" lon="-8.370414013043046">
        <ele>308.72000000000003</ele>
        <time>2025-05-02T06:55:33Z</time>
      </trkpt>
      <trkpt lat="42.754457965493202" lon="-8.370192982256413">
        <ele>309.19999999999999</ele>
        <time>2025-05-02T06:55:34Z</time>
      </trkpt>
      <trkpt lat="42.754528960213065" lon="-8.369981003925204">
        <ele>310.16000000000003</ele>
        <time>2025-05-02T06:55:35Z</time>
      </trkpt>
      <trkpt lat="42.754616970196366" lon="-8.369781011715531">
        <ele>311.12</ele>
        <time>2025-05-02T06:55:36Z</time>
      </trkpt>
      <trkpt lat="42.754720989614725" lon="-8.369599040597677">
        <ele>311.60000000000002</ele>
        <time>2025-05-02T06:55:37Z</time>
      </trkpt>
      <trkpt lat="42.754833977669477" lon="-8.369410028681159">
        <ele>312.08999999999997</ele>
        <time>2025-05-02T06:55:38Z</time>
      </trkpt>
      <trkpt lat="42.754948977380991" lon="-8.369215987622738">
        <ele>312.56999999999999</ele>
        <time>2025-05-02T06:55:39Z</time>
      </trkpt>
      <trkpt lat="42.756398962810636" lon="-8.366980031132698">
        <ele>316.41000000000003</ele>
        <time>2025-05-02T06:55:50Z</time>
      </trkpt>
      <trkpt lat="42.756501976400614" lon="-8.366742990911007">
        <ele>317.37</ele>
        <time>2025-05-02T06:55:51Z</time>
      </trkpt>
      <trkpt lat="42.756596021354198" lon="-8.366501005366445">
        <ele>317.85000000000002</ele>
        <time>2025-05-02T06:55:52Z</time>
      </trkpt>
      <trkpt lat="42.756670033559203" lon="-8.366239992901683">
        <ele>318.81</ele>
        <time>2025-05-02T06:55:53Z</time>
      </trkpt>
      <trkpt lat="42.756734993308783" lon="-8.365983003750444">
        <ele>319.30000000000001</ele>
        <time>2025-05-02T06:55:54Z</time>
      </trkpt>
      <trkpt lat="42.75677002966404" lon="-8.365706987679005">
        <ele>319.77999999999997</ele>
        <time>2025-05-02T06:55:55Z</time>
      </trkpt>
      <trkpt lat="42.75677296333015" lon="-8.365432983264327">
        <ele>320.25999999999999</ele>
        <time>2025-05-02T06:55:56Z</time>
      </trkpt>
      <trkpt lat="42.75677296333015" lon="-8.365164007991552">
        <ele>320.74000000000001</ele>
        <time>2025-05-02T06:55:57Z</time>
      </trkpt>
      <trkpt lat="42.75677296333015" lon="-8.364909030497074">
        <ele>321.22000000000003</ele>
        <time>2025-05-02T06:55:58Z</time>
      </trkpt>
      <trkpt lat="42.756731975823641" lon="-8.364633014425635">
        <ele>321.69999999999999</ele>
        <time>2025-05-02T06:55:59Z</time>
      </trkpt>
      <trkpt lat="42.756694005802274" lon="-8.364373007789254">
        <ele>322.18000000000001</ele>
        <time>2025-05-02T06:56:00Z</time>
      </trkpt>
      <trkpt lat="42.756181033328176" lon="-8.361368011683226">
        <ele>321.69999999999999</ele>
        <time>2025-05-02T06:56:11Z</time>
      </trkpt>
      <trkpt lat="42.755680968984962" lon="-8.358597960323095">
        <ele>318.32999999999998</ele>
        <time>2025-05-02T06:56:21Z</time>
      </trkpt>
      <trkpt lat="42.755135977640748" lon="-8.355688014999032">
        <ele>325.06</ele>
        <time>2025-05-02T06:56:32Z</time>
      </trkpt>
      <trkpt lat="42.755057020112872" lon="-8.355448041111231">
        <ele>326.01999999999998</ele>
        <time>2025-05-02T06:56:33Z</time>
      </trkpt>
      <trkpt lat="42.7548189740628" lon="-8.355021988973022">
        <ele>326.99000000000001</ele>
        <time>2025-05-02T06:56:35Z</time>
      </trkpt>
      <trkpt lat="42.754701962694526" lon="-8.354812022298574">
        <ele>327.47000000000003</ele>
        <time>2025-05-02T06:56:36Z</time>
      </trkpt>
      <trkpt lat="42.754561984911561" lon="-8.354626027867198">
        <ele>327.47000000000003</ele>
        <time>2025-05-02T06:56:37Z</time>
      </trkpt>
      <trkpt lat="42.754400968551636" lon="-8.354458976536989">
        <ele>327.94999999999999</ele>
        <time>2025-05-02T06:56:38Z</time>
      </trkpt>
      <trkpt lat="42.754240036010742" lon="-8.354291003197432">
        <ele>327.94999999999999</ele>
        <time>2025-05-02T06:56:39Z</time>
      </trkpt>
      <trkpt lat="42.75406502187252" lon="-8.354142978787422">
        <ele>327.94999999999999</ele>
        <time>2025-05-02T06:56:40Z</time>
      </trkpt>
      <trkpt lat="42.752483021467924" lon="-8.353011002764106">
        <ele>331.79000000000002</ele>
        <time>2025-05-02T06:56:49Z</time>
      </trkpt>
      <trkpt lat="42.751586996018887" lon="-8.351571997627616">
        <ele>336.60000000000002</ele>
        <time>2025-05-02T06:56:56Z</time>
      </trkpt>
      <trkpt lat="42.749433014541864" lon="-8.347910027951002">
        <ele>348.13</ele>
        <time>2025-05-02T06:57:13Z</time>
      </trkpt>
      <trkpt lat="42.748376978561282" lon="-8.346061985939741">
        <ele>350.06</ele>
        <time>2025-05-02T06:57:23Z</time>
      </trkpt>
      <trkpt lat="42.748297015205026" lon="-8.345841960981488">
        <ele>350.54000000000002</ele>
        <time>2025-05-02T06:57:24Z</time>
      </trkpt>
      <trkpt lat="42.74824102409184" lon="-8.345628976821899">
        <ele>350.54000000000002</ele>
        <time>2025-05-02T06:57:25Z</time>
      </trkpt>
      <trkpt lat="42.748207999393344" lon="-8.345378022640944">
        <ele>350.54000000000002</ele>
        <time>2025-05-02T06:57:26Z</time>
      </trkpt>
      <trkpt lat="42.748174974694848" lon="-8.345124972984195">
        <ele>351.01999999999998</ele>
        <time>2025-05-02T06:57:27Z</time>
      </trkpt>
      <trkpt lat="42.748148990795016" lon="-8.344880975782871">
        <ele>351.5</ele>
        <time>2025-05-02T06:57:28Z</time>
      </trkpt>
      <trkpt lat="42.748167011886835" lon="-8.344622980803251">
        <ele>351.98000000000002</ele>
        <time>2025-05-02T06:57:29Z</time>
      </trkpt>
      <trkpt lat="42.748185032978654" lon="-8.344365991652012">
        <ele>352.45999999999998</ele>
        <time>2025-05-02T06:57:30Z</time>
      </trkpt>
      <trkpt lat="42.74826399050653" lon="-8.342617023736239">
        <ele>356.79000000000002</ele>
        <time>2025-05-02T06:57:37Z</time>
      </trkpt>
      <trkpt lat="42.748225014656782" lon="-8.342401022091508">
        <ele>357.26999999999998</ele>
        <time>2025-05-02T06:57:38Z</time>
      </trkpt>
      <trkpt lat="42.748188972473145" lon="-8.342206981033087">
        <ele>357.75</ele>
        <time>2025-05-02T06:57:39Z</time>
      </trkpt>
      <trkpt lat="42.74811202660203" lon="-8.341996008530259">
        <ele>357.75</ele>
        <time>2025-05-02T06:57:40Z</time>
      </trkpt>
      <trkpt lat="42.748039020225406" lon="-8.341799033805728">
        <ele>358.23000000000002</ele>
        <time>2025-05-02T06:57:41Z</time>
      </trkpt>
      <trkpt lat="42.74794002994895" lon="-8.341628964990377">
        <ele>358.70999999999998</ele>
        <time>2025-05-02T06:57:42Z</time>
      </trkpt>
      <trkpt lat="42.747837016358972" lon="-8.341455040499568">
        <ele>359.19</ele>
        <time>2025-05-02T06:57:43Z</time>
      </trkpt>
      <trkpt lat="42.747713970020413" lon="-8.341324031352997">
        <ele>359.67000000000002</ele>
        <time>2025-05-02T06:57:44Z</time>
      </trkpt>
      <trkpt lat="42.747574998065829" lon="-8.341184975579381">
        <ele>359.67000000000002</ele>
        <time>2025-05-02T06:57:45Z</time>
      </trkpt>
      <trkpt lat="42.746690958738327" lon="-8.340284004807472">
        <ele>361.11000000000001</ele>
        <time>2025-05-02T06:57:51Z</time>
      </trkpt>
      <trkpt lat="42.746549975126982" lon="-8.340123994275928">
        <ele>361.58999999999997</ele>
        <time>2025-05-02T06:57:52Z</time>
      </trkpt>
      <trkpt lat="42.745713964104652" lon="-8.339066030457616">
        <ele>361.58999999999997</ele>
        <time>2025-05-02T06:57:58Z</time>
      </trkpt>
      <trkpt lat="42.745399978011847" lon="-8.338751960545778">
        <ele>361.58999999999997</ele>
        <time>2025-05-02T06:58:00Z</time>
      </trkpt>
      <trkpt lat="42.745218006893992" lon="-8.338644001632929">
        <ele>361.58999999999997</ele>
        <time>2025-05-02T06:58:01Z</time>
      </trkpt>
      <trkpt lat="42.745036035776138" lon="-8.338536964729428">
        <ele>361.58999999999997</ele>
        <time>2025-05-02T06:58:02Z</time>
      </trkpt>
      <trkpt lat="42.744002966210246" lon="-8.338049976155162">
        <ele>361.11000000000001</ele>
        <time>2025-05-02T06:58:08Z</time>
      </trkpt>
      <trkpt lat="42.743855025619268" lon="-8.337945034727454">
        <ele>361.11000000000001</ele>
        <time>2025-05-02T06:58:09Z</time>
      </trkpt>
      <trkpt lat="42.74373097345233" lon="-8.337802961468697">
        <ele>361.11000000000001</ele>
        <time>2025-05-02T06:58:10Z</time>
      </trkpt>
      <trkpt lat="42.743613040074706" lon="-8.337639011442661">
        <ele>361.11000000000001</ele>
        <time>2025-05-02T06:58:11Z</time>
      </trkpt>
      <trkpt lat="42.743511032313108" lon="-8.337481012567878">
        <ele>361.58999999999997</ele>
        <time>2025-05-02T06:58:12Z</time>
      </trkpt>
      <trkpt lat="42.743422016501427" lon="-8.337288983166218">
        <ele>361.58999999999997</ele>
        <time>2025-05-02T06:58:13Z</time>
      </trkpt>
      <trkpt lat="42.743357978761196" lon="-8.337087985128164">
        <ele>361.58999999999997</ele>
        <time>2025-05-02T06:58:14Z</time>
      </trkpt>
      <trkpt lat="42.743295030668378" lon="-8.336867038160563">
        <ele>361.11000000000001</ele>
        <time>2025-05-02T06:58:15Z</time>
      </trkpt>
      <trkpt lat="42.743228981271386" lon="-8.336635027080774">
        <ele>361.11000000000001</ele>
        <time>2025-05-02T06:58:16Z</time>
      </trkpt>
      <trkpt lat="42.742735035717487" lon="-8.334375014528632">
        <ele>356.79000000000002</ele>
        <time>2025-05-02T06:58:25Z</time>
      </trkpt>
      <trkpt lat="42.742188032716513" lon="-8.331754999235272">
        <ele>348.62</ele>
        <time>2025-05-02T06:58:36Z</time>
      </trkpt>
      <trkpt lat="42.741876980289817" lon="-8.33065202459693">
        <ele>343.32999999999998</ele>
        <time>2025-05-02T06:58:43Z</time>
      </trkpt>
      <trkpt lat="42.741126967594028" lon="-8.32958098500967">
        <ele>338.51999999999998</ele>
        <time>2025-05-02T06:58:52Z</time>
      </trkpt>
      <trkpt lat="42.739513032138348" lon="-8.328160000964999">
        <ele>328.91000000000003</ele>
        <time>2025-05-02T06:59:08Z</time>
      </trkpt>
      <trkpt lat="42.738425983116031" lon="-8.326743040233851">
        <ele>321.22000000000003</ele>
        <time>2025-05-02T06:59:20Z</time>
      </trkpt>
      <trkpt lat="42.73702897131443" lon="-8.324690982699394">
        <ele>314.00999999999999</ele>
        <time>2025-05-02T06:59:36Z</time>
      </trkpt>
      <trkpt lat="42.735476978123188" lon="-8.322428958490491">
        <ele>307.75999999999999</ele>
        <time>2025-05-02T06:59:54Z</time>
      </trkpt>
      <trkpt lat="42.734278030693531" lon="-8.320806976407766">
        <ele>302.94999999999999</ele>
        <time>2025-05-02T07:00:07Z</time>
      </trkpt>
      <trkpt lat="42.733174972236156" lon="-8.319967025890946">
        <ele>298.63</ele>
        <time>2025-05-02T07:00:15Z</time>
      </trkpt>
      <trkpt lat="42.73115904070437" lon="-8.318808982148767">
        <ele>293.33999999999997</ele>
        <time>2025-05-02T07:00:26Z</time>
      </trkpt>
      <trkpt lat="42.730443980544806" lon="-8.318365998566151">
        <ele>293.81999999999999</ele>
        <time>2025-05-02T07:00:30Z</time>
      </trkpt>
      <trkpt lat="42.730294028297067" lon="-8.318204982206225">
        <ele>294.30000000000001</ele>
        <time>2025-05-02T07:00:31Z</time>
      </trkpt>
      <trkpt lat="42.730143992230296" lon="-8.318044971674681">
        <ele>294.77999999999997</ele>
        <time>2025-05-02T07:00:32Z</time>
      </trkpt>
      <trkpt lat="42.730029998347163" lon="-8.31784799695015">
        <ele>294.77999999999997</ele>
        <time>2025-05-02T07:00:33Z</time>
      </trkpt>
      <trkpt lat="42.729913992807269" lon="-8.317646998912096">
        <ele>295.25999999999999</ele>
        <time>2025-05-02T07:00:34Z</time>
      </trkpt>
      <trkpt lat="42.72980896756053" lon="-8.317443989217281">
        <ele>295.74000000000001</ele>
        <time>2025-05-02T07:00:35Z</time>
      </trkpt>
      <trkpt lat="42.729740990325809" lon="-8.317211978137493">
        <ele>296.69999999999999</ele>
        <time>2025-05-02T07:00:36Z</time>
      </trkpt>
      <trkpt lat="42.729672007262707" lon="-8.316972004249692">
        <ele>297.67000000000002</ele>
        <time>2025-05-02T07:00:37Z</time>
      </trkpt>
      <trkpt lat="42.72963797673583" lon="-8.316729012876749">
        <ele>298.63</ele>
        <time>2025-05-02T07:00:38Z</time>
      </trkpt>
      <trkpt lat="42.729606963694096" lon="-8.31647202372551">
        <ele>300.06999999999999</ele>
        <time>2025-05-02T07:00:39Z</time>
      </trkpt>
      <trkpt lat="42.729606963694096" lon="-8.316205982118845">
        <ele>301.02999999999997</ele>
        <time>2025-05-02T07:00:40Z</time>
      </trkpt>
      <trkpt lat="42.729611992835999" lon="-8.315942035987973">
        <ele>302.47000000000003</ele>
        <time>2025-05-02T07:00:41Z</time>
      </trkpt>
      <trkpt lat="42.729642000049353" lon="-8.315671971067786">
        <ele>303.91000000000003</ele>
        <time>2025-05-02T07:00:42Z</time>
      </trkpt>
      <trkpt lat="42.729672007262707" lon="-8.315404001623392">
        <ele>305.36000000000001</ele>
        <time>2025-05-02T07:00:43Z</time>
      </trkpt>
      <trkpt lat="42.729942994192243" lon="-8.313029995188117">
        <ele>316.88999999999999</ele>
        <time>2025-05-02T07:00:52Z</time>
      </trkpt>
      <trkpt lat="42.729963026940823" lon="-8.311421005055308">
        <ele>326.99000000000001</ele>
        <time>2025-05-02T07:00:59Z</time>
      </trkpt>
      <trkpt lat="42.729989010840654" lon="-8.311213972046971">
        <ele>327.94999999999999</ele>
        <time>2025-05-02T07:01:00Z</time>
      </trkpt>
      <trkpt lat="42.730050031095743" lon="-8.311045998707414">
        <ele>329.38999999999999</ele>
        <time>2025-05-02T07:01:01Z</time>
      </trkpt>
      <trkpt lat="42.730120019987226" lon="-8.310883976519108">
        <ele>330.35000000000002</ele>
        <time>2025-05-02T07:01:02Z</time>
      </trkpt>
      <trkpt lat="42.730183973908424" lon="-8.310733018442988">
        <ele>331.79000000000002</ele>
        <time>2025-05-02T07:01:03Z</time>
      </trkpt>
      <trkpt lat="42.730251029133797" lon="-8.310578037053347">
        <ele>332.75</ele>
        <time>2025-05-02T07:01:04Z</time>
      </trkpt>
      <trkpt lat="42.730310959741473" lon="-8.3105010073632">
        <ele>333.70999999999998</ele>
        <time>2025-05-02T07:01:05Z</time>
      </trkpt>
      <trkpt lat="42.730390001088381" lon="-8.310401011258364">
        <ele>334.68000000000001</ele>
        <time>2025-05-02T07:01:06Z</time>
      </trkpt>
      <trkpt lat="42.730468958616257" lon="-8.310301015153527">
        <ele>335.16000000000003</ele>
        <time>2025-05-02T07:01:07Z</time>
      </trkpt>
      <trkpt lat="42.730544982478023" lon="-8.310204036533833">
        <ele>336.12</ele>
        <time>2025-05-02T07:01:08Z</time>
      </trkpt>
      <trkpt lat="42.730622012168169" lon="-8.310106974095106">
        <ele>336.60000000000002</ele>
        <time>2025-05-02T07:01:09Z</time>
      </trkpt>
      <trkpt lat="42.731246966868639" lon="-8.309284960851073">
        <ele>340.44</ele>
        <time>2025-05-02T07:01:17Z</time>
      </trkpt>
      <trkpt lat="42.731406977400184" lon="-8.309044986963272">
        <ele>340.44</ele>
        <time>2025-05-02T07:01:19Z</time>
      </trkpt>
      <trkpt lat="42.73146104067564" lon="-8.308899980038405">
        <ele>340.92000000000002</ele>
        <time>2025-05-02T07:01:20Z</time>
      </trkpt>
      <trkpt lat="42.731514014303684" lon="-8.308756984770298">
        <ele>340.92000000000002</ele>
        <time>2025-05-02T07:01:21Z</time>
      </trkpt>
      <trkpt lat="42.73154997266829" lon="-8.308606026694179">
        <ele>340.92000000000002</ele>
        <time>2025-05-02T07:01:22Z</time>
      </trkpt>
      <trkpt lat="42.73156899958849" lon="-8.308461019769311">
        <ele>341.88999999999999</ele>
        <time>2025-05-02T07:01:23Z</time>
      </trkpt>
      <trkpt lat="42.73158903233707" lon="-8.308318024501205">
        <ele>341.88999999999999</ele>
        <time>2025-05-02T07:01:24Z</time>
      </trkpt>
      <trkpt lat="42.731603030115366" lon="-8.308161031454802">
        <ele>342.37</ele>
        <time>2025-05-02T07:01:25Z</time>
      </trkpt>
      <trkpt lat="42.731603030115366" lon="-8.307998003438115">
        <ele>342.37</ele>
        <time>2025-05-02T07:01:26Z</time>
      </trkpt>
      <trkpt lat="42.731603030115366" lon="-8.307809997349978">
        <ele>342.85000000000002</ele>
        <time>2025-05-02T07:01:27Z</time>
      </trkpt>
      <trkpt lat="42.731470009312034" lon="-8.306804001331329">
        <ele>346.20999999999998</ele>
        <time>2025-05-02T07:01:34Z</time>
      </trkpt>
      <trkpt lat="42.73116197437048" lon="-8.305941000580788">
        <ele>351.01999999999998</ele>
        <time>2025-05-02T07:01:41Z</time>
      </trkpt>
      <trkpt lat="42.730657970532775" lon="-8.305159974843264">
        <ele>354.86000000000001</ele>
        <time>2025-05-02T07:01:48Z</time>
      </trkpt>
      <trkpt lat="42.730594016611576" lon="-8.30506400205195">
        <ele>354.86000000000001</ele>
        <time>2025-05-02T07:01:49Z</time>
      </trkpt>
      <trkpt lat="42.7304080221802" lon="-8.304794020950794">
        <ele>355.33999999999997</ele>
        <time>2025-05-02T07:01:52Z</time>
      </trkpt>
      <trkpt lat="42.730351025238633" lon="-8.304706010967493">
        <ele>355.33999999999997</ele>
        <time>2025-05-02T07:01:53Z</time>
      </trkpt>
      <trkpt lat="42.730080038309097" lon="-8.304280964657664">
        <ele>355.82999999999998</ele>
        <time>2025-05-02T07:01:58Z</time>
      </trkpt>
      <trkpt lat="42.729927990585566" lon="-8.304044008255005">
        <ele>356.31</ele>
        <time>2025-05-02T07:02:01Z</time>
      </trkpt>
      <trkpt lat="42.729375958442688" lon="-8.303240016102791">
        <ele>357.75</ele>
        <time>2025-05-02T07:02:13Z</time>
      </trkpt>
      <trkpt lat="42.729222988709807" lon="-8.30300398170948">
        <ele>356.31</ele>
        <time>2025-05-02T07:02:21Z</time>
      </trkpt>
      <trkpt lat="42.729214020073414" lon="-8.302991995587945">
        <ele>355.82999999999998</ele>
        <time>2025-05-02T07:02:22Z</time>
      </trkpt>
      <trkpt lat="42.72920697927475" lon="-8.302979003638029">
        <ele>355.82999999999998</ele>
        <time>2025-05-02T07:02:23Z</time>
      </trkpt>
      <trkpt lat="42.729193987324834" lon="-8.30296098254621">
        <ele>355.33999999999997</ele>
        <time>2025-05-02T07:02:24Z</time>
      </trkpt>
      <trkpt lat="42.729174960404634" lon="-8.302930975332856">
        <ele>354.86000000000001</ele>
        <time>2025-05-02T07:02:25Z</time>
      </trkpt>
      <trkpt lat="42.728861980140209" lon="-8.302501989528537">
        <ele>352.94</ele>
        <time>2025-05-02T07:02:33Z</time>
      </trkpt>
      <trkpt lat="42.72845403291285" lon="-8.302062023431063">
        <ele>353.89999999999998</ele>
        <time>2025-05-02T07:02:40Z</time>
      </trkpt>
      <trkpt lat="42.728320006281137" lon="-8.301973007619381">
        <ele>354.38</ele>
        <time>2025-05-02T07:02:42Z</time>
      </trkpt>
      <trkpt lat="42.728211041539907" lon="-8.301926990970969">
        <ele>354.86000000000001</ele>
        <time>2025-05-02T07:02:43Z</time>
      </trkpt>
      <trkpt lat="42.727325996384025" lon="-8.30151803791523">
        <ele>355.33999999999997</ele>
        <time>2025-05-02T07:02:51Z</time>
      </trkpt>
      <trkpt lat="42.726983008906245" lon="-8.301207991316915">
        <ele>353.89999999999998</ele>
        <time>2025-05-02T07:02:54Z</time>
      </trkpt>
      <trkpt lat="42.726983008906245" lon="-8.301207991316915">
        <ele>353.42000000000002</ele>
        <time>2025-05-02T07:02:55Z</time>
      </trkpt>
      <trkpt lat="42.726404992863536" lon="-8.299891026690602">
        <ele>349.57999999999998</ele>
        <time>2025-05-02T07:03:03Z</time>
      </trkpt>
      <trkpt lat="42.725936025381088" lon="-8.298710016533732">
        <ele>344.76999999999998</ele>
        <time>2025-05-02T07:03:10Z</time>
      </trkpt>
      <trkpt lat="42.725832005962729" lon="-8.298557968810201">
        <ele>343.81</ele>
        <time>2025-05-02T07:03:11Z</time>
      </trkpt>
      <trkpt lat="42.72488996386528" lon="-8.297306969761848">
        <ele>337.07999999999998</ele>
        <time>2025-05-02T07:03:18Z</time>
      </trkpt>
      <trkpt lat="42.724070968106389" lon="-8.296296028420329">
        <ele>332.26999999999998</ele>
        <time>2025-05-02T07:03:24Z</time>
      </trkpt>
      <trkpt lat="42.723805010318756" lon="-8.295886991545558">
        <ele>330.82999999999998</ele>
        <time>2025-05-02T07:03:27Z</time>
      </trkpt>
      <trkpt lat="42.72372898645699" lon="-8.295765034854412">
        <ele>330.82999999999998</ele>
        <time>2025-05-02T07:03:28Z</time>
      </trkpt>
      <trkpt lat="42.723613986745477" lon="-8.295492036268115">
        <ele>330.35000000000002</ele>
        <time>2025-05-02T07:03:30Z</time>
      </trkpt>
      <trkpt lat="42.723557995632291" lon="-8.295347029343247">
        <ele>330.35000000000002</ele>
        <time>2025-05-02T07:03:31Z</time>
      </trkpt>
      <trkpt lat="42.722967993468046" lon="-8.293565958738327">
        <ele>332.75</ele>
        <time>2025-05-02T07:03:43Z</time>
      </trkpt>
      <trkpt lat="42.722853999584913" lon="-8.292600028216839">
        <ele>335.63999999999999</ele>
        <time>2025-05-02T07:03:49Z</time>
      </trkpt>
      <trkpt lat="42.722413027659059" lon="-8.291147025302053">
        <ele>340.44</ele>
        <time>2025-05-02T07:03:57Z</time>
      </trkpt>
      <trkpt lat="42.722330968827009" lon="-8.290556017309427">
        <ele>341.88999999999999</ele>
        <time>2025-05-02T07:04:00Z</time>
      </trkpt>
      <trkpt lat="42.722228961065412" lon="-8.289541974663734">
        <ele>344.76999999999998</ele>
        <time>2025-05-02T07:04:05Z</time>
      </trkpt>
      <trkpt lat="42.722186967730522" lon="-8.289323039352894">
        <ele>345.73000000000002</ele>
        <time>2025-05-02T07:04:06Z</time>
      </trkpt>
      <trkpt lat="42.721522031351924" lon="-8.286720961332321">
        <ele>347.64999999999998</ele>
        <time>2025-05-02T07:04:18Z</time>
      </trkpt>
      <trkpt lat="42.720943009480834" lon="-8.285529976710677">
        <ele>344.76999999999998</ele>
        <time>2025-05-02T07:04:24Z</time>
      </trkpt>
      <trkpt lat="42.720812000334263" lon="-8.285369966179133">
        <ele>344.29000000000002</ele>
        <time>2025-05-02T07:04:25Z</time>
      </trkpt>
      <trkpt lat="42.72067797370255" lon="-8.285215990617871">
        <ele>343.81</ele>
        <time>2025-05-02T07:04:26Z</time>
      </trkpt>
      <trkpt lat="42.720528021454811" lon="-8.285091016441584">
        <ele>343.32999999999998</ele>
        <time>2025-05-02T07:04:27Z</time>
      </trkpt>
      <trkpt lat="42.720378991216421" lon="-8.284966964274645">
        <ele>342.85000000000002</ele>
        <time>2025-05-02T07:04:28Z</time>
      </trkpt>
      <trkpt lat="42.719171997159719" lon="-8.284106981009245">
        <ele>341.41000000000003</ele>
        <time>2025-05-02T07:04:36Z</time>
      </trkpt>
      <trkpt lat="42.717311969026923" lon="-8.282619025558233">
        <ele>341.41000000000003</ele>
        <time>2025-05-02T07:04:48Z</time>
      </trkpt>
      <trkpt lat="42.716307984665036" lon="-8.281271969899535">
        <ele>343.81</ele>
        <time>2025-05-02T07:04:56Z</time>
      </trkpt>
      <trkpt lat="42.715510027483106" lon="-8.280277960002422">
        <ele>344.29000000000002</ele>
        <time>2025-05-02T07:05:02Z</time>
      </trkpt>
      <trkpt lat="42.715345993638039" lon="-8.280188022181392">
        <ele>344.29000000000002</ele>
        <time>2025-05-02T07:05:03Z</time>
      </trkpt>
      <trkpt lat="42.715180031955242" lon="-8.280095988884568">
        <ele>344.29000000000002</ele>
        <time>2025-05-02T07:05:04Z</time>
      </trkpt>
      <trkpt lat="42.715008035302162" lon="-8.280039997771382">
        <ele>344.29000000000002</ele>
        <time>2025-05-02T07:05:05Z</time>
      </trkpt>
      <trkpt lat="42.714831009507179" lon="-8.280002027750015">
        <ele>344.76999999999998</ele>
        <time>2025-05-02T07:05:06Z</time>
      </trkpt>
      <trkpt lat="42.714654989540577" lon="-8.279963973909617">
        <ele>345.25</ele>
        <time>2025-05-02T07:05:07Z</time>
      </trkpt>
      <trkpt lat="42.714476035907865" lon="-8.279937990009785">
        <ele>346.20999999999998</ele>
        <time>2025-05-02T07:05:08Z</time>
      </trkpt>
      <trkpt lat="42.713585961610079" lon="-8.279746966436505">
        <ele>351.5</ele>
        <time>2025-05-02T07:05:13Z</time>
      </trkpt>
      <trkpt lat="42.713419999927282" lon="-8.279658034443855">
        <ele>352.45999999999998</ele>
        <time>2025-05-02T07:05:14Z</time>
      </trkpt>
      <trkpt lat="42.713259989395738" lon="-8.279547980055213">
        <ele>353.42000000000002</ele>
        <time>2025-05-02T07:05:15Z</time>
      </trkpt>
      <trkpt lat="42.713109031319618" lon="-8.279418982565403">
        <ele>354.86000000000001</ele>
        <time>2025-05-02T07:05:16Z</time>
      </trkpt>
      <trkpt lat="42.712967041879892" lon="-8.279264001175761">
        <ele>355.82999999999998</ele>
        <time>2025-05-02T07:05:17Z</time>
      </trkpt>
      <trkpt lat="42.712847013026476" lon="-8.279082030057907">
        <ele>356.79000000000002</ele>
        <time>2025-05-02T07:05:18Z</time>
      </trkpt>
      <trkpt lat="42.712733019143343" lon="-8.278892012313008">
        <ele>357.75</ele>
        <time>2025-05-02T07:05:19Z</time>
      </trkpt>
      <trkpt lat="42.712623970583081" lon="-8.278693025931716">
        <ele>359.19</ele>
        <time>2025-05-02T07:05:20Z</time>
      </trkpt>
      <trkpt lat="42.710984973236918" lon="-8.275282010436058">
        <ele>377.44999999999999</ele>
        <time>2025-05-02T07:05:36Z</time>
      </trkpt>
      <trkpt lat="42.709936983883381" lon="-8.272905992344022">
        <ele>388.50999999999999</ele>
        <time>2025-05-02T07:05:47Z</time>
      </trkpt>
      <trkpt lat="42.709073983132839" lon="-8.270700965076685">
        <ele>399.07999999999998</ele>
        <time>2025-05-02T07:05:57Z</time>
      </trkpt>
      <trkpt lat="42.707766992971301" lon="-8.267133040353656">
        <ele>412.06</ele>
        <time>2025-05-02T07:06:13Z</time>
      </trkpt>
      <trkpt lat="42.706887982785702" lon="-8.265212997794151">
        <ele>422.16000000000003</ele>
        <time>2025-05-02T07:06:22Z</time>
      </trkpt>
      <trkpt lat="42.706536026671529" lon="-8.264297023415566">
        <ele>426</ele>
        <time>2025-05-02T07:06:26Z</time>
      </trkpt>
      <trkpt lat="42.706466037780046" lon="-8.264054032042623">
        <ele>426.95999999999998</ele>
        <time>2025-05-02T07:06:27Z</time>
      </trkpt>
      <trkpt lat="42.706428989768028" lon="-8.263801988214254">
        <ele>427.92000000000002</ele>
        <time>2025-05-02T07:06:28Z</time>
      </trkpt>
      <trkpt lat="42.706403005868196" lon="-8.263543993234634">
        <ele>428.88999999999999</ele>
        <time>2025-05-02T07:06:29Z</time>
      </trkpt>
      <trkpt lat="42.706381967291236" lon="-8.263268982991576">
        <ele>429.85000000000002</ele>
        <time>2025-05-02T07:06:30Z</time>
      </trkpt>
      <trkpt lat="42.706472994759679" lon="-8.261317005380988">
        <ele>436.57999999999998</ele>
        <time>2025-05-02T07:06:37Z</time>
      </trkpt>
      <trkpt lat="42.706464026123285" lon="-8.261047024279833">
        <ele>437.54000000000002</ele>
        <time>2025-05-02T07:06:38Z</time>
      </trkpt>
      <trkpt lat="42.70645497366786" lon="-8.26078400015831">
        <ele>438.5</ele>
        <time>2025-05-02T07:06:39Z</time>
      </trkpt>
      <trkpt lat="42.706406023353338" lon="-8.260532962158322">
        <ele>439.45999999999998</ele>
        <time>2025-05-02T07:06:40Z</time>
      </trkpt>
      <trkpt lat="42.706352965906262" lon="-8.260288964956999">
        <ele>440.42000000000002</ele>
        <time>2025-05-02T07:06:41Z</time>
      </trkpt>
      <trkpt lat="42.706264033913612" lon="-8.260063994675875">
        <ele>441.38</ele>
        <time>2025-05-02T07:06:42Z</time>
      </trkpt>
      <trkpt lat="42.706172000616789" lon="-8.259844975546002">
        <ele>442.33999999999997</ele>
        <time>2025-05-02T07:06:43Z</time>
      </trkpt>
      <trkpt lat="42.706066975370049" lon="-8.259640038013458">
        <ele>443.31</ele>
        <time>2025-05-02T07:06:44Z</time>
      </trkpt>
      <trkpt lat="42.705935966223478" lon="-8.259456977248192">
        <ele>444.26999999999998</ele>
        <time>2025-05-02T07:06:45Z</time>
      </trkpt>
      <trkpt lat="42.705803029239178" lon="-8.259270982816815">
        <ele>445.23000000000002</ele>
        <time>2025-05-02T07:06:46Z</time>
      </trkpt>
      <trkpt lat="42.705645030364394" lon="-8.259124970063567">
        <ele>446.19</ele>
        <time>2025-05-02T07:06:47Z</time>
      </trkpt>
      <trkpt lat="42.705488037317991" lon="-8.258988009765744">
        <ele>446.67000000000002</ele>
        <time>2025-05-02T07:06:48Z</time>
      </trkpt>
      <trkpt lat="42.705319980159402" lon="-8.258888013660908">
        <ele>447.63</ele>
        <time>2025-05-02T07:06:49Z</time>
      </trkpt>
      <trkpt lat="42.705145971849561" lon="-8.258812995627523">
        <ele>448.58999999999997</ele>
        <time>2025-05-02T07:06:50Z</time>
      </trkpt>
      <trkpt lat="42.704968024045229" lon="-8.258776031434536">
        <ele>449.55000000000001</ele>
        <time>2025-05-02T07:06:51Z</time>
      </trkpt>
      <trkpt lat="42.704788986593485" lon="-8.258737977594137">
        <ele>450.51999999999998</ele>
        <time>2025-05-02T07:06:52Z</time>
      </trkpt>
      <trkpt lat="42.704616989940405" lon="-8.258726997300983">
        <ele>451.48000000000002</ele>
        <time>2025-05-02T07:06:53Z</time>
      </trkpt>
      <trkpt lat="42.704445999115705" lon="-8.258717022836208">
        <ele>452.44</ele>
        <time>2025-05-02T07:06:54Z</time>
      </trkpt>
      <trkpt lat="42.702903980389237" lon="-8.258703025057912">
        <ele>461.08999999999997</ele>
        <time>2025-05-02T07:07:03Z</time>
      </trkpt>
      <trkpt lat="42.70273600704968" lon="-8.258649967610836">
        <ele>462.05000000000001</ele>
        <time>2025-05-02T07:07:04Z</time>
      </trkpt>
      <trkpt lat="42.70256501622498" lon="-8.258580984547734">
        <ele>463.00999999999999</ele>
        <time>2025-05-02T07:07:05Z</time>
      </trkpt>
      <trkpt lat="42.702422020956874" lon="-8.258451987057924">
        <ele>463.97000000000003</ele>
        <time>2025-05-02T07:07:06Z</time>
      </trkpt>
      <trkpt lat="42.702293023467064" lon="-8.258308991789818">
        <ele>464.93000000000001</ele>
        <time>2025-05-02T07:07:07Z</time>
      </trkpt>
      <trkpt lat="42.702176012098789" lon="-8.258153004571796">
        <ele>465.42000000000002</ele>
        <time>2025-05-02T07:07:08Z</time>
      </trkpt>
      <trkpt lat="42.702057994902134" lon="-8.257995005697012">
        <ele>465.89999999999998</ele>
        <time>2025-05-02T07:07:09Z</time>
      </trkpt>
      <trkpt lat="42.701951963827014" lon="-8.257828038185835">
        <ele>466.86000000000001</ele>
        <time>2025-05-02T07:07:10Z</time>
      </trkpt>
      <trkpt lat="42.701884992420673" lon="-8.257638020440936">
        <ele>467.33999999999997</ele>
        <time>2025-05-02T07:07:11Z</time>
      </trkpt>
      <trkpt lat="42.701821960508823" lon="-8.25745596550405">
        <ele>467.33999999999997</ele>
        <time>2025-05-02T07:07:12Z</time>
      </trkpt>
      <trkpt lat="42.701778039336205" lon="-8.257272988557816">
        <ele>467.81999999999999</ele>
        <time>2025-05-02T07:07:13Z</time>
      </trkpt>
      <trkpt lat="42.701733028516173" lon="-8.257084982469678">
        <ele>467.81999999999999</ele>
        <time>2025-05-02T07:07:14Z</time>
      </trkpt>
      <trkpt lat="42.701510991901159" lon="-8.256091978400946">
        <ele>467.33999999999997</ele>
        <time>2025-05-02T07:07:19Z</time>
      </trkpt>
      <trkpt lat="42.701375037431717" lon="-8.255679002031684">
        <ele>466.86000000000001</ele>
        <time>2025-05-02T07:07:21Z</time>
      </trkpt>
      <trkpt lat="42.701278980821371" lon="-8.255488984286785">
        <ele>466.86000000000001</ele>
        <time>2025-05-02T07:07:22Z</time>
      </trkpt>
      <trkpt lat="42.701166998594999" lon="-8.255321010947228">
        <ele>466.86000000000001</ele>
        <time>2025-05-02T07:07:23Z</time>
      </trkpt>
      <trkpt lat="42.70104001276195" lon="-8.255168963223696">
        <ele>466.86000000000001</ele>
        <time>2025-05-02T07:07:24Z</time>
      </trkpt>
      <trkpt lat="42.70088997669518" lon="-8.255067961290479">
        <ele>467.33999999999997</ele>
        <time>2025-05-02T07:07:25Z</time>
      </trkpt>
      <trkpt lat="42.70073801279068" lon="-8.254964025691152">
        <ele>467.81999999999999</ele>
        <time>2025-05-02T07:07:26Z</time>
      </trkpt>
      <trkpt lat="42.700580013915896" lon="-8.254856988787651">
        <ele>468.30000000000001</ele>
        <time>2025-05-02T07:07:27Z</time>
      </trkpt>
      <trkpt lat="42.699702009558678" lon="-8.254005974158645">
        <ele>473.11000000000001</ele>
        <time>2025-05-02T07:07:33Z</time>
      </trkpt>
      <trkpt lat="42.699565971270204" lon="-8.253821991384029">
        <ele>473.58999999999997</ele>
        <time>2025-05-02T07:07:34Z</time>
      </trkpt>
      <trkpt lat="42.699492964893579" lon="-8.25363096781075">
        <ele>474.55000000000001</ele>
        <time>2025-05-02T07:07:35Z</time>
      </trkpt>
      <trkpt lat="42.699411995708942" lon="-8.253422006964684">
        <ele>475.02999999999997</ele>
        <time>2025-05-02T07:07:36Z</time>
      </trkpt>
      <trkpt lat="42.69934200681746" lon="-8.253202987834811">
        <ele>475.99000000000001</ele>
        <time>2025-05-02T07:07:37Z</time>
      </trkpt>
      <trkpt lat="42.699305964633822" lon="-8.252973994240165">
        <ele>476.47000000000003</ele>
        <time>2025-05-02T07:07:38Z</time>
      </trkpt>
      <trkpt lat="42.699273023754358" lon="-8.252760004252195">
        <ele>477.43000000000001</ele>
        <time>2025-05-02T07:07:39Z</time>
      </trkpt>
      <trkpt lat="42.699245028197765" lon="-8.252564035356045">
        <ele>477.91000000000003</ele>
        <time>2025-05-02T07:07:40Z</time>
      </trkpt>
      <trkpt lat="42.699245028197765" lon="-8.252381980419159">
        <ele>478.87</ele>
        <time>2025-05-02T07:07:41Z</time>
      </trkpt>
      <trkpt lat="42.699251985177398" lon="-8.252218030393124">
        <ele>479.35000000000002</ele>
        <time>2025-05-02T07:07:42Z</time>
      </trkpt>
      <trkpt lat="42.69931904040277" lon="-8.250582972541452">
        <ele>483.68000000000001</ele>
        <time>2025-05-02T07:07:52Z</time>
      </trkpt>
      <trkpt lat="42.699289033189416" lon="-8.250261023640633">
        <ele>484.16000000000003</ele>
        <time>2025-05-02T07:07:54Z</time>
      </trkpt>
      <trkpt lat="42.69923496991396" lon="-8.250111993402243">
        <ele>484.16000000000003</ele>
        <time>2025-05-02T07:07:55Z</time>
      </trkpt>
      <trkpt lat="42.699175961315632" lon="-8.249968998134136">
        <ele>484.63999999999999</ele>
        <time>2025-05-02T07:07:56Z</time>
      </trkpt>
      <trkpt lat="42.699117036536336" lon="-8.24982700869441">
        <ele>484.63999999999999</ele>
        <time>2025-05-02T07:07:57Z</time>
      </trkpt>
      <trkpt lat="42.699058027938008" lon="-8.249685019254684">
        <ele>485.12</ele>
        <time>2025-05-02T07:07:58Z</time>
      </trkpt>
      <trkpt lat="42.698986027389765" lon="-8.24954797513783">
        <ele>485.12</ele>
        <time>2025-05-02T07:07:59Z</time>
      </trkpt>
      <trkpt lat="42.698986027389765" lon="-8.249546969309449">
        <ele>485.12</ele>
        <time>2025-05-02T07:08:00Z</time>
      </trkpt>
      <trkpt lat="42.698806989938021" lon="-8.249315964058042">
        <ele>485.60000000000002</ele>
        <time>2025-05-02T07:08:01Z</time>
      </trkpt>
      <trkpt lat="42.697691023349762" lon="-8.248390015214682">
        <ele>488.97000000000003</ele>
        <time>2025-05-02T07:08:12Z</time>
      </trkpt>
      <trkpt lat="42.697587003931403" lon="-8.248292030766606">
        <ele>488.49000000000001</ele>
        <time>2025-05-02T07:08:13Z</time>
      </trkpt>
      <trkpt lat="42.697549033910036" lon="-8.248178036883473">
        <ele>488.49000000000001</ele>
        <time>2025-05-02T07:08:14Z</time>
      </trkpt>
      <trkpt lat="42.697511985898018" lon="-8.24806597083807">
        <ele>488.49000000000001</ele>
        <time>2025-05-02T07:08:15Z</time>
      </trkpt>
      <trkpt lat="42.697496982291341" lon="-8.247954994440079">
        <ele>488.49000000000001</ele>
        <time>2025-05-02T07:08:16Z</time>
      </trkpt>
      <trkpt lat="42.697487007826567" lon="-8.247858015820384">
        <ele>488.49000000000001</ele>
        <time>2025-05-02T07:08:17Z</time>
      </trkpt>
      <trkpt lat="42.697478961199522" lon="-8.247780986130238">
        <ele>488.97000000000003</ele>
        <time>2025-05-02T07:08:18Z</time>
      </trkpt>
      <trkpt lat="42.697474015876651" lon="-8.247727006673813">
        <ele>488.97000000000003</ele>
        <time>2025-05-02T07:08:19Z</time>
      </trkpt>
      <trkpt lat="42.697469992563128" lon="-8.247688030824065">
        <ele>488.97000000000003</ele>
        <time>2025-05-02T07:08:20Z</time>
      </trkpt>
      <trkpt lat="42.697466975077987" lon="-8.247651988640428">
        <ele>489.44999999999999</ele>
        <time>2025-05-02T07:08:21Z</time>
      </trkpt>
      <trkpt lat="42.697464041411877" lon="-8.247620975598693">
        <ele>489.44999999999999</ele>
        <time>2025-05-02T07:08:22Z</time>
      </trkpt>
      <trkpt lat="42.697462029755116" lon="-8.247580993920565">
        <ele>490.41000000000003</ele>
        <time>2025-05-02T07:08:30Z</time>
      </trkpt>
      <trkpt lat="42.697450965642929" lon="-8.247301038354635">
        <ele>492.32999999999998</ele>
        <time>2025-05-02T07:08:57Z</time>
      </trkpt>
      <trkpt lat="42.697394974529743" lon="-8.246254976838827">
        <ele>494.25999999999999</ele>
        <time>2025-05-02T07:09:08Z</time>
      </trkpt>
      <trkpt lat="42.697321968153119" lon="-8.245643014088273">
        <ele>495.22000000000003</ele>
        <time>2025-05-02T07:09:13Z</time>
      </trkpt>
      <trkpt lat="42.697291038930416" lon="-8.245386024937034">
        <ele>495.69999999999999</ele>
        <time>2025-05-02T07:09:15Z</time>
      </trkpt>
      <trkpt lat="42.697276035323739" lon="-8.245265996083617">
        <ele>495.69999999999999</ele>
        <time>2025-05-02T07:09:16Z</time>
      </trkpt>
      <trkpt lat="42.697231024503708" lon="-8.2449059933424">
        <ele>495.22000000000003</ele>
        <time>2025-05-02T07:09:19Z</time>
      </trkpt>
      <trkpt lat="42.697216020897031" lon="-8.244779007509351">
        <ele>495.22000000000003</ele>
        <time>2025-05-02T07:09:20Z</time>
      </trkpt>
      <trkpt lat="42.697200011461973" lon="-8.244655961170793">
        <ele>494.74000000000001</ele>
        <time>2025-05-02T07:09:21Z</time>
      </trkpt>
      <trkpt lat="42.697147959843278" lon="-8.24441003613174">
        <ele>493.76999999999998</ele>
        <time>2025-05-02T07:09:23Z</time>
      </trkpt>
      <trkpt lat="42.697098003700376" lon="-8.244285983964801">
        <ele>493.29000000000002</ele>
        <time>2025-05-02T07:09:24Z</time>
      </trkpt>
      <trkpt lat="42.697027008980513" lon="-8.244189005345106">
        <ele>492.81</ele>
        <time>2025-05-02T07:09:25Z</time>
      </trkpt>
      <trkpt lat="42.69695601426065" lon="-8.244091020897031">
        <ele>492.32999999999998</ele>
        <time>2025-05-02T07:09:26Z</time>
      </trkpt>
      <trkpt lat="42.69687102176249" lon="-8.244006028398871">
        <ele>491.85000000000002</ele>
        <time>2025-05-02T07:09:27Z</time>
      </trkpt>
      <trkpt lat="42.696788040921092" lon="-8.243926987051964">
        <ele>490.88999999999999</ele>
        <time>2025-05-02T07:09:28Z</time>
      </trkpt>
      <trkpt lat="42.696112962439656" lon="-8.24301403015852">
        <ele>485.60000000000002</ele>
        <time>2025-05-02T07:09:37Z</time>
      </trkpt>
      <trkpt lat="42.69592696800828" lon="-8.242441965267062">
        <ele>484.63999999999999</ele>
        <time>2025-05-02T07:09:41Z</time>
      </trkpt>
      <trkpt lat="42.695853961631656" lon="-8.242149017751217">
        <ele>483.68000000000001</ele>
        <time>2025-05-02T07:09:43Z</time>
      </trkpt>
      <trkpt lat="42.69566997885704" lon="-8.240675982087851">
        <ele>477.91000000000003</ele>
        <time>2025-05-02T07:09:53Z</time>
      </trkpt>
      <trkpt lat="42.695624968037009" lon="-8.240546984598041">
        <ele>477.43000000000001</ele>
        <time>2025-05-02T07:09:54Z</time>
      </trkpt>
      <trkpt lat="42.695425981655717" lon="-8.240073993802071">
        <ele>475.50999999999999</ele>
        <time>2025-05-02T07:09:58Z</time>
      </trkpt>
      <trkpt lat="42.695430004969239" lon="-8.239947007969022">
        <ele>475.02999999999997</ele>
        <time>2025-05-02T07:09:59Z</time>
      </trkpt>
      <trkpt lat="42.695467974990606" lon="-8.239832008257508">
        <ele>475.02999999999997</ele>
        <time>2025-05-02T07:10:00Z</time>
      </trkpt>
      <trkpt lat="42.695487001910806" lon="-8.239703010767698">
        <ele>474.55000000000001</ele>
        <time>2025-05-02T07:10:01Z</time>
      </trkpt>
      <trkpt lat="42.695508040487766" lon="-8.239564038813114">
        <ele>474.55000000000001</ele>
        <time>2025-05-02T07:10:02Z</time>
      </trkpt>
      <trkpt lat="42.695531006902456" lon="-8.239391036331654">
        <ele>474.06999999999999</ele>
        <time>2025-05-02T07:10:03Z</time>
      </trkpt>
      <trkpt lat="42.695512985810637" lon="-8.239225996658206">
        <ele>473.58999999999997</ele>
        <time>2025-05-02T07:10:04Z</time>
      </trkpt>
      <trkpt lat="42.695493036881089" lon="-8.239045031368733">
        <ele>473.58999999999997</ele>
        <time>2025-05-02T07:10:05Z</time>
      </trkpt>
      <trkpt lat="42.695464035496116" lon="-8.238851996138692">
        <ele>473.11000000000001</ele>
        <time>2025-05-02T07:10:06Z</time>
      </trkpt>
      <trkpt lat="42.695172009989619" lon="-8.236568011343479">
        <ele>468.77999999999997</ele>
        <time>2025-05-02T07:10:16Z</time>
      </trkpt>
      <trkpt lat="42.694557029753923" lon="-8.232521982863545">
        <ele>454.83999999999997</ele>
        <time>2025-05-02T07:10:33Z</time>
      </trkpt>
      <trkpt lat="42.693995023146272" lon="-8.228910975158215">
        <ele>451</ele>
        <time>2025-05-02T07:10:47Z</time>
      </trkpt>
      <trkpt lat="42.693470986559987" lon="-8.226609975099564">
        <ele>463.49000000000001</ele>
        <time>2025-05-02T07:10:56Z</time>
      </trkpt>
      <trkpt lat="42.693371996283531" lon="-8.226373018696904">
        <ele>464.44999999999999</ele>
        <time>2025-05-02T07:10:57Z</time>
      </trkpt>
      <trkpt lat="42.692125020548701" lon="-8.224475020542741">
        <ele>470.69999999999999</ele>
        <time>2025-05-02T07:11:06Z</time>
      </trkpt>
      <trkpt lat="42.690279996022582" lon="-8.221742017194629">
        <ele>463.00999999999999</ele>
        <time>2025-05-02T07:11:18Z</time>
      </trkpt>
      <trkpt lat="42.689918987452984" lon="-8.221372961997986">
        <ele>461.08999999999997</ele>
        <time>2025-05-02T07:11:20Z</time>
      </trkpt>
      <trkpt lat="42.689726036041975" lon="-8.221227033063769">
        <ele>460.13</ele>
        <time>2025-05-02T07:11:21Z</time>
      </trkpt>
      <trkpt lat="42.688358025625348" lon="-8.220359003171325">
        <ele>454.83999999999997</ele>
        <time>2025-05-02T07:11:28Z</time>
      </trkpt>
      <trkpt lat="42.687163017690182" lon="-8.219412015751004">
        <ele>454.83999999999997</ele>
        <time>2025-05-02T07:11:35Z</time>
      </trkpt>
      <trkpt lat="42.686336981132627" lon="-8.218096978962421">
        <ele>453.88</ele>
        <time>2025-05-02T07:11:42Z</time>
      </trkpt>
      <trkpt lat="42.686005979776382" lon="-8.216367959976196">
        <ele>448.11000000000001</ele>
        <time>2025-05-02T07:11:49Z</time>
      </trkpt>
      <trkpt lat="42.686134977266192" lon="-8.214531987905502">
        <ele>439.94</ele>
        <time>2025-05-02T07:11:56Z</time>
      </trkpt>
      <trkpt lat="42.686461033299565" lon="-8.211400005966425">
        <ele>426</ele>
        <time>2025-05-02T07:12:08Z</time>
      </trkpt>
      <trkpt lat="42.686874009668827" lon="-8.207506025210023">
        <ele>413.98000000000002</ele>
        <time>2025-05-02T07:12:23Z</time>
      </trkpt>
      <trkpt lat="42.686876021325588" lon="-8.205379033461213">
        <ele>408.69999999999999</ele>
        <time>2025-05-02T07:12:31Z</time>
      </trkpt>
      <trkpt lat="42.686337986961007" lon="-8.203437030315399">
        <ele>402.93000000000001</ele>
        <time>2025-05-02T07:12:38Z</time>
      </trkpt>
      <trkpt lat="42.685168040916324" lon="-8.200547033920884">
        <ele>401.97000000000003</ele>
        <time>2025-05-02T07:12:49Z</time>
      </trkpt>
      <trkpt lat="42.683902038261294" lon="-8.197440030053258">
        <ele>413.98000000000002</ele>
        <time>2025-05-02T07:13:02Z</time>
      </trkpt>
      <trkpt lat="42.683387976139784" lon="-8.195385960862041">
        <ele>425.04000000000002</ele>
        <time>2025-05-02T07:13:10Z</time>
      </trkpt>
      <trkpt lat="42.683415971696377" lon="-8.193837990984321">
        <ele>432.25</ele>
        <time>2025-05-02T07:13:16Z</time>
      </trkpt>
      <trkpt lat="42.683497024700046" lon="-8.192802993580699">
        <ele>436.57999999999998</ele>
        <time>2025-05-02T07:13:22Z</time>
      </trkpt>
      <trkpt lat="42.683674972504377" lon="-8.190670972689986">
        <ele>439.94</ele>
        <time>2025-05-02T07:13:35Z</time>
      </trkpt>
      <trkpt lat="42.683838000521064" lon="-8.188306018710136">
        <ele>438.98000000000002</ele>
        <time>2025-05-02T07:13:48Z</time>
      </trkpt>
      <trkpt lat="42.683826014399529" lon="-8.187502026557922">
        <ele>439.45999999999998</ele>
        <time>2025-05-02T07:13:52Z</time>
      </trkpt>
      <trkpt lat="42.683586962521076" lon="-8.185974005609751">
        <ele>445.23000000000002</ele>
        <time>2025-05-02T07:14:01Z</time>
      </trkpt>
      <trkpt lat="42.683525020256639" lon="-8.185654990375042">
        <ele>447.14999999999998</ele>
        <time>2025-05-02T07:14:03Z</time>
      </trkpt>
      <trkpt lat="42.683148002251983" lon="-8.183923959732056">
        <ele>454.36000000000001</ele>
        <time>2025-05-02T07:14:14Z</time>
      </trkpt>
      <trkpt lat="42.683103997260332" lon="-8.183767972514033">
        <ele>455.31999999999999</ele>
        <time>2025-05-02T07:14:15Z</time>
      </trkpt>
      <trkpt lat="42.682895036414266" lon="-8.183001028373838">
        <ele>457.72000000000003</ele>
        <time>2025-05-02T07:14:20Z</time>
      </trkpt>
      <trkpt lat="42.682813983410597" lon="-8.182698022574186">
        <ele>459.17000000000002</ele>
        <time>2025-05-02T07:14:22Z</time>
      </trkpt>
      <trkpt lat="42.682772995904088" lon="-8.182544969022274">
        <ele>460.13</ele>
        <time>2025-05-02T07:14:23Z</time>
      </trkpt>
      <trkpt lat="42.682209983468056" lon="-8.1805560272187">
        <ele>467.33999999999997</ele>
        <time>2025-05-02T07:14:36Z</time>
      </trkpt>
      <trkpt lat="42.681750990450382" lon="-8.178888028487563">
        <ele>475.99000000000001</ele>
        <time>2025-05-02T07:14:47Z</time>
      </trkpt>
      <trkpt lat="42.681519985198975" lon="-8.177317008376122">
        <ele>481.27999999999997</ele>
        <time>2025-05-02T07:14:54Z</time>
      </trkpt>
      <trkpt lat="42.681716037914157" lon="-8.174956999719143">
        <ele>487.05000000000001</ele>
        <time>2025-05-02T07:15:05Z</time>
      </trkpt>
      <trkpt lat="42.682103030383587" lon="-8.172620963305235">
        <ele>490.41000000000003</ele>
        <time>2025-05-02T07:15:14Z</time>
      </trkpt>
      <trkpt lat="42.682696972042322" lon="-8.170028021559119">
        <ele>487.05000000000001</ele>
        <time>2025-05-02T07:15:24Z</time>
      </trkpt>
      <trkpt lat="42.68269102089107" lon="-8.169763991609216">
        <ele>486.56</ele>
        <time>2025-05-02T07:15:25Z</time>
      </trkpt>
      <trkpt lat="42.682680962607265" lon="-8.169508008286357">
        <ele>486.56</ele>
        <time>2025-05-02T07:15:26Z</time>
      </trkpt>
      <trkpt lat="42.682637963443995" lon="-8.169260993599892">
        <ele>486.56</ele>
        <time>2025-05-02T07:15:27Z</time>
      </trkpt>
      <trkpt lat="42.682591024786234" lon="-8.169016996398568">
        <ele>486.56</ele>
        <time>2025-05-02T07:15:28Z</time>
      </trkpt>
      <trkpt lat="42.682544002309442" lon="-8.168775010854006">
        <ele>486.56</ele>
        <time>2025-05-02T07:15:29Z</time>
      </trkpt>
      <trkpt lat="42.682465966790915" lon="-8.168546017259359">
        <ele>486.56</ele>
        <time>2025-05-02T07:15:30Z</time>
      </trkpt>
      <trkpt lat="42.682376028969884" lon="-8.168322974815965">
        <ele>487.05000000000001</ele>
        <time>2025-05-02T07:15:31Z</time>
      </trkpt>
      <trkpt lat="42.682285001501441" lon="-8.168099010363221">
        <ele>487.52999999999997</ele>
        <time>2025-05-02T07:15:32Z</time>
      </trkpt>
      <trkpt lat="42.682170001789927" lon="-8.167896000668407">
        <ele>488.00999999999999</ele>
        <time>2025-05-02T07:15:33Z</time>
      </trkpt>
      <trkpt lat="42.682041004300117" lon="-8.167705982923508">
        <ele>488.97000000000003</ele>
        <time>2025-05-02T07:15:34Z</time>
      </trkpt>
      <trkpt lat="42.681904966011643" lon="-8.16751797683537">
        <ele>489.44999999999999</ele>
        <time>2025-05-02T07:15:35Z</time>
      </trkpt>
      <trkpt lat="42.681748978793621" lon="-8.167361989617348">
        <ele>490.41000000000003</ele>
        <time>2025-05-02T07:15:36Z</time>
      </trkpt>
      <trkpt lat="42.681584022939205" lon="-8.167228968814015">
        <ele>490.88999999999999</ele>
        <time>2025-05-02T07:15:37Z</time>
      </trkpt>
      <trkpt lat="42.681413032114506" lon="-8.167110029608011">
        <ele>491.85000000000002</ele>
        <time>2025-05-02T07:15:38Z</time>
      </trkpt>
      <trkpt lat="42.681241035461426" lon="-8.166996035724878">
        <ele>492.81</ele>
        <time>2025-05-02T07:15:39Z</time>
      </trkpt>
      <trkpt lat="42.681061998009682" lon="-8.166926968842745">
        <ele>493.76999999999998</ele>
        <time>2025-05-02T07:15:40Z</time>
      </trkpt>
      <trkpt lat="42.679903032258153" lon="-8.166481973603368">
        <ele>499.06</ele>
        <time>2025-05-02T07:15:48Z</time>
      </trkpt>
      <trkpt lat="42.677788026630878" lon="-8.165547978132963">
        <ele>500.01999999999998</ele>
        <time>2025-05-02T07:16:00Z</time>
      </trkpt>
      <trkpt lat="42.676005028188229" lon="-8.164715990424156">
        <ele>490.88999999999999</ele>
        <time>2025-05-02T07:16:11Z</time>
      </trkpt>
      <trkpt lat="42.674799961969256" lon="-8.163761040195823">
        <ele>484.16000000000003</ele>
        <time>2025-05-02T07:16:19Z</time>
      </trkpt>
      <trkpt lat="42.67407501116395" lon="-8.162658987566829">
        <ele>486.56</ele>
        <time>2025-05-02T07:16:26Z</time>
      </trkpt>
      <trkpt lat="42.673768987879157" lon="-8.161951974034309">
        <ele>488.49000000000001</ele>
        <time>2025-05-02T07:16:31Z</time>
      </trkpt>
      <trkpt lat="42.673531025648117" lon="-8.161655003204942">
        <ele>489.44999999999999</ele>
        <time>2025-05-02T07:16:34Z</time>
      </trkpt>
      <trkpt lat="42.673503030091524" lon="-8.161541009321809">
        <ele>489.93000000000001</ele>
        <time>2025-05-02T07:16:35Z</time>
      </trkpt>
      <trkpt lat="42.673474028706551" lon="-8.161427015438676">
        <ele>489.93000000000001</ele>
        <time>2025-05-02T07:16:36Z</time>
      </trkpt>
      <trkpt lat="42.673505963757634" lon="-8.161297012120485">
        <ele>490.41000000000003</ele>
        <time>2025-05-02T07:16:37Z</time>
      </trkpt>
      <trkpt lat="42.673580981791019" lon="-8.161143036559224">
        <ele>490.88999999999999</ele>
        <time>2025-05-02T07:16:38Z</time>
      </trkpt>
      <trkpt lat="42.673567989841104" lon="-8.161011021584272">
        <ele>490.88999999999999</ele>
        <time>2025-05-02T07:16:39Z</time>
      </trkpt>
      <trkpt lat="42.673553992062807" lon="-8.16087800078094">
        <ele>491.37</ele>
        <time>2025-05-02T07:16:40Z</time>
      </trkpt>
      <trkpt lat="42.673541000112891" lon="-8.160742968320847">
        <ele>491.85000000000002</ele>
        <time>2025-05-02T07:16:41Z</time>
      </trkpt>
      <trkpt lat="42.673345031216741" lon="-8.159432960674167">
        <ele>496.18000000000001</ele>
        <time>2025-05-02T07:16:51Z</time>
      </trkpt>
      <trkpt lat="42.673345031216741" lon="-8.159300023689866">
        <ele>496.66000000000003</ele>
        <time>2025-05-02T07:16:52Z</time>
      </trkpt>
      <trkpt lat="42.673380989581347" lon="-8.159156022593379">
        <ele>497.13999999999999</ele>
        <time>2025-05-02T07:16:53Z</time>
      </trkpt>
      <trkpt lat="42.673388030380011" lon="-8.159130038693547">
        <ele>497.62</ele>
        <time>2025-05-02T07:16:54Z</time>
      </trkpt>
      <trkpt lat="42.673580981791019" lon="-8.158828960731626">
        <ele>498.10000000000002</ele>
        <time>2025-05-02T07:16:55Z</time>
      </trkpt>
      <trkpt lat="42.673611994832754" lon="-8.158624023199081">
        <ele>498.57999999999998</ele>
        <time>2025-05-02T07:16:57Z</time>
      </trkpt>
      <trkpt lat="42.673636972904205" lon="-8.158459989354014">
        <ele>499.06</ele>
        <time>2025-05-02T07:16:58Z</time>
      </trkpt>
      <trkpt lat="42.673754990100861" lon="-8.156987959519029">
        <ele>501.94999999999999</ele>
        <time>2025-05-02T07:17:06Z</time>
      </trkpt>
      <trkpt lat="42.673748033121228" lon="-8.15527000464499">
        <ele>499.54000000000002</ele>
        <time>2025-05-02T07:17:14Z</time>
      </trkpt>
      <trkpt lat="42.673654993996024" lon="-8.154817968606949">
        <ele>498.57999999999998</ele>
        <time>2025-05-02T07:17:16Z</time>
      </trkpt>
      <trkpt lat="42.67276500351727" lon="-8.152307001873851">
        <ele>499.54000000000002</ele>
        <time>2025-05-02T07:17:27Z</time>
      </trkpt>
      <trkpt lat="42.671691030263901" lon="-8.149440977722406">
        <ele>499.54000000000002</ele>
        <time>2025-05-02T07:17:39Z</time>
      </trkpt>
      <trkpt lat="42.670841021463275" lon="-8.148019993677735">
        <ele>499.06</ele>
        <time>2025-05-02T07:17:46Z</time>
      </trkpt>
      <trkpt lat="42.670714035630226" lon="-8.14783500507474">
        <ele>499.06</ele>
        <time>2025-05-02T07:17:47Z</time>
      </trkpt>
      <trkpt lat="42.669453984126449" lon="-8.146054018288851">
        <ele>500.5</ele>
        <time>2025-05-02T07:17:58Z</time>
      </trkpt>
      <trkpt lat="42.668660972267389" lon="-8.144946014508605">
        <ele>506.26999999999998</ele>
        <time>2025-05-02T07:18:08Z</time>
      </trkpt>
      <trkpt lat="42.667927974835038" lon="-8.143709013238549">
        <ele>512.51999999999998</ele>
        <time>2025-05-02T07:18:17Z</time>
      </trkpt>
      <trkpt lat="42.667787997052073" lon="-8.143186988309026">
        <ele>513.96000000000004</ele>
        <time>2025-05-02T07:18:20Z</time>
      </trkpt>
      <trkpt lat="42.667766958475113" lon="-8.142985990270972">
        <ele>514.44000000000005</ele>
        <time>2025-05-02T07:18:21Z</time>
      </trkpt>
      <trkpt lat="42.667723037302494" lon="-8.142563961446285">
        <ele>514.91999999999996</ele>
        <time>2025-05-02T07:18:23Z</time>
      </trkpt>
      <trkpt lat="42.667738040909171" lon="-8.142394982278347">
        <ele>515.39999999999998</ele>
        <time>2025-05-02T07:18:24Z</time>
      </trkpt>
      <trkpt lat="42.667755978181958" lon="-8.142181998118758">
        <ele>515.39999999999998</ele>
        <time>2025-05-02T07:18:25Z</time>
      </trkpt>
      <trkpt lat="42.667791014537215" lon="-8.141975970938802">
        <ele>515.39999999999998</ele>
        <time>2025-05-02T07:18:26Z</time>
      </trkpt>
      <trkpt lat="42.667843988165259" lon="-8.141772039234638">
        <ele>515.39999999999998</ele>
        <time>2025-05-02T07:18:27Z</time>
      </trkpt>
      <trkpt lat="42.667898973450065" lon="-8.141567017883062">
        <ele>515.39999999999998</ele>
        <time>2025-05-02T07:18:28Z</time>
      </trkpt>
      <trkpt lat="42.667984971776605" lon="-8.141378005966544">
        <ele>515.39999999999998</ele>
        <time>2025-05-02T07:18:29Z</time>
      </trkpt>
      <trkpt lat="42.668079016730189" lon="-8.141195029020309">
        <ele>514.91999999999996</ele>
        <time>2025-05-02T07:18:30Z</time>
      </trkpt>
      <trkpt lat="42.668173983693123" lon="-8.141009034588933">
        <ele>514.91999999999996</ele>
        <time>2025-05-02T07:18:31Z</time>
      </trkpt>
      <trkpt lat="42.66904603689909" lon="-8.13934899866581">
        <ele>509.16000000000003</ele>
        <time>2025-05-02T07:18:40Z</time>
      </trkpt>
      <trkpt lat="42.670177007094026" lon="-8.137243967503309">
        <ele>507.70999999999998</ele>
        <time>2025-05-02T07:18:52Z</time>
      </trkpt>
      <trkpt lat="42.670605992898345" lon="-8.135692980140448">
        <ele>501.45999999999998</ele>
        <time>2025-05-02T07:18:59Z</time>
      </trkpt>
      <trkpt lat="42.670620996505022" lon="-8.134728977456689">
        <ele>499.06</ele>
        <time>2025-05-02T07:19:03Z</time>
      </trkpt>
      <trkpt lat="42.670596018433571" lon="-8.134491015225649">
        <ele>498.57999999999998</ele>
        <time>2025-05-02T07:19:04Z</time>
      </trkpt>
      <trkpt lat="42.670070976018906" lon="-8.132794015109539">
        <ele>499.54000000000002</ele>
        <time>2025-05-02T07:19:12Z</time>
      </trkpt>
      <trkpt lat="42.668918967247009" lon="-8.129871999844909">
        <ele>511.56</ele>
        <time>2025-05-02T07:19:27Z</time>
      </trkpt>
      <trkpt lat="42.668267022818327" lon="-8.127865958958864">
        <ele>516.85000000000002</ele>
        <time>2025-05-02T07:19:38Z</time>
      </trkpt>
      <trkpt lat="42.66812302172184" lon="-8.127449965104461">
        <ele>518.28999999999996</ele>
        <time>2025-05-02T07:19:41Z</time>
      </trkpt>
      <trkpt lat="42.667962005361915" lon="-8.127173027023673">
        <ele>519.25</ele>
        <time>2025-05-02T07:19:44Z</time>
      </trkpt>
      <trkpt lat="42.667898973450065" lon="-8.12710496596992">
        <ele>518.76999999999998</ele>
        <time>2025-05-02T07:19:45Z</time>
      </trkpt>
      <trkpt lat="42.667749021202326" lon="-8.126974040642381">
        <ele>519.25</ele>
        <time>2025-05-02T07:19:47Z</time>
      </trkpt>
      <trkpt lat="42.667616000398993" lon="-8.126900028437376">
        <ele>519.25</ele>
        <time>2025-05-02T07:19:48Z</time>
      </trkpt>
      <trkpt lat="42.667581969872117" lon="-8.126798020675778">
        <ele>519.25</ele>
        <time>2025-05-02T07:19:49Z</time>
      </trkpt>
      <trkpt lat="42.667551962658763" lon="-8.126706993207336">
        <ele>519.73000000000002</ele>
        <time>2025-05-02T07:19:50Z</time>
      </trkpt>
      <trkpt lat="42.667508041486144" lon="-8.126543965190649">
        <ele>519.73000000000002</ele>
        <time>2025-05-02T07:19:51Z</time>
      </trkpt>
      <trkpt lat="42.66745800152421" lon="-8.126419996842742">
        <ele>519.25</ele>
        <time>2025-05-02T07:19:52Z</time>
      </trkpt>
      <trkpt lat="42.667378960177302" lon="-8.126260992139578">
        <ele>519.25</ele>
        <time>2025-05-02T07:19:53Z</time>
      </trkpt>
      <trkpt lat="42.667284999042749" lon="-8.126191003248096">
        <ele>519.25</ele>
        <time>2025-05-02T07:19:54Z</time>
      </trkpt>
      <trkpt lat="42.667187014594674" lon="-8.126117996871471">
        <ele>519.25</ele>
        <time>2025-05-02T07:19:55Z</time>
      </trkpt>
      <trkpt lat="42.667086012661457" lon="-8.126041973009706">
        <ele>519.73000000000002</ele>
        <time>2025-05-02T07:19:56Z</time>
      </trkpt>
      <trkpt lat="42.666108012199402" lon="-8.124932963401079">
        <ele>525.5</ele>
        <time>2025-05-02T07:20:07Z</time>
      </trkpt>
      <trkpt lat="42.665686989203095" lon="-8.12355799600482">
        <ele>528.38</ele>
        <time>2025-05-02T07:20:16Z</time>
      </trkpt>
      <trkpt lat="42.665166975930333" lon="-8.121361015364528">
        <ele>532.23000000000002</ele>
        <time>2025-05-02T07:20:30Z</time>
      </trkpt>
      <trkpt lat="42.66494401730597" lon="-8.120419979095459">
        <ele>534.14999999999998</ele>
        <time>2025-05-02T07:20:36Z</time>
      </trkpt>
      <trkpt lat="42.664904035627842" lon="-8.119929973036051">
        <ele>534.14999999999998</ele>
        <time>2025-05-02T07:20:39Z</time>
      </trkpt>
      <trkpt lat="42.664911998435855" lon="-8.11889698728919">
        <ele>534.14999999999998</ele>
        <time>2025-05-02T07:20:46Z</time>
      </trkpt>
      <trkpt lat="42.664925996214151" lon="-8.118782993406057">
        <ele>534.63</ele>
        <time>2025-05-02T07:20:47Z</time>
      </trkpt>
      <trkpt lat="42.664939993992448" lon="-8.118673022836447">
        <ele>535.11000000000001</ele>
        <time>2025-05-02T07:20:48Z</time>
      </trkpt>
      <trkpt lat="42.664938988164067" lon="-8.118355013430119">
        <ele>537.50999999999999</ele>
        <time>2025-05-02T07:20:54Z</time>
      </trkpt>
      <trkpt lat="42.664929013699293" lon="-8.118290975689888">
        <ele>537.99000000000001</ele>
        <time>2025-05-02T07:20:57Z</time>
      </trkpt>
      <trkpt lat="42.664906969293952" lon="-8.118269015103579">
        <ele>537.99000000000001</ele>
        <time>2025-05-02T07:20:58Z</time>
      </trkpt>
      <trkpt lat="42.664890959858894" lon="-8.118253005668521">
        <ele>538.48000000000002</ele>
        <time>2025-05-02T07:20:59Z</time>
      </trkpt>
      <trkpt lat="42.664834968745708" lon="-8.118216963484883">
        <ele>538.48000000000002</ele>
        <time>2025-05-02T07:21:00Z</time>
      </trkpt>
      <trkpt lat="42.664790041744709" lon="-8.11818896792829">
        <ele>538.48000000000002</ele>
        <time>2025-05-02T07:21:01Z</time>
      </trkpt>
      <trkpt lat="42.664742013439536" lon="-8.118158038705587">
        <ele>538.96000000000004</ele>
        <time>2025-05-02T07:21:02Z</time>
      </trkpt>
      <trkpt lat="42.664655009284616" lon="-8.11810296960175">
        <ele>538.96000000000004</ele>
        <time>2025-05-02T07:21:03Z</time>
      </trkpt>
      <trkpt lat="42.6646229904145" lon="-8.11809903010726">
        <ele>539.44000000000005</ele>
        <time>2025-05-02T07:21:04Z</time>
      </trkpt>
      <trkpt lat="42.663780022412539" lon="-8.11801596544683">
        <ele>538.96000000000004</ele>
        <time>2025-05-02T07:21:13Z</time>
      </trkpt>
      <trkpt lat="42.663082983344793" lon="-8.117954023182392">
        <ele>536.54999999999995</ele>
        <time>2025-05-02T07:21:20Z</time>
      </trkpt>
      <trkpt lat="42.662202967330813" lon="-8.117858972400427">
        <ele>535.11000000000001</ele>
        <time>2025-05-02T07:21:27Z</time>
      </trkpt>
      <trkpt lat="42.660857001319528" lon="-8.117695022374392">
        <ele>537.02999999999997</ele>
        <time>2025-05-02T07:21:38Z</time>
      </trkpt>
      <trkpt lat="42.660750970244408" lon="-8.11784396879375">
        <ele>537.02999999999997</ele>
        <time>2025-05-02T07:21:39Z</time>
      </trkpt>
      <trkpt lat="42.660623984411359" lon="-8.117784038186073">
        <ele>537.50999999999999</ele>
        <time>2025-05-02T07:21:40Z</time>
      </trkpt>
      <trkpt lat="42.660595988854766" lon="-8.117608018219471">
        <ele>537.99000000000001</ele>
        <time>2025-05-02T07:21:41Z</time>
      </trkpt>
      <trkpt lat="42.66028200276196" lon="-8.117490001022816">
        <ele>539.44000000000005</ele>
        <time>2025-05-02T07:21:45Z</time>
      </trkpt>
      <trkpt lat="42.659323029220104" lon="-8.117172997444868">
        <ele>545.20000000000005</ele>
        <time>2025-05-02T07:21:54Z</time>
      </trkpt>
      <trkpt lat="42.65843203291297" lon="-8.116865968331695">
        <ele>555.77999999999997</ele>
        <time>2025-05-02T07:22:05Z</time>
      </trkpt>
      <trkpt lat="42.658298006281257" lon="-8.11700502410531">
        <ele>557.22000000000003</ele>
        <time>2025-05-02T07:22:07Z</time>
      </trkpt>
      <trkpt lat="42.658234974369407" lon="-8.116995971649885">
        <ele>557.70000000000005</ele>
        <time>2025-05-02T07:22:08Z</time>
      </trkpt>
      <trkpt lat="42.658131960779428" lon="-8.116836966946721">
        <ele>558.17999999999995</ele>
        <time>2025-05-02T07:22:09Z</time>
      </trkpt>
      <trkpt lat="42.65811201184988" lon="-8.116817018017173">
        <ele>559.13999999999999</ele>
        <time>2025-05-02T07:22:10Z</time>
      </trkpt>
      <trkpt lat="42.658037999644876" lon="-8.116743005812168">
        <ele>559.62</ele>
        <time>2025-05-02T07:22:11Z</time>
      </trkpt>
      <trkpt lat="42.657950995489955" lon="-8.116656001657248">
        <ele>560.11000000000001</ele>
        <time>2025-05-02T07:22:12Z</time>
      </trkpt>
      <trkpt lat="42.657843958586454" lon="-8.116582995280623">
        <ele>560.59000000000003</ele>
        <time>2025-05-02T07:22:13Z</time>
      </trkpt>
      <trkpt lat="42.656433032825589" lon="-8.115849997848272">
        <ele>572.60000000000002</ele>
        <time>2025-05-02T07:22:25Z</time>
      </trkpt>
      <trkpt lat="42.655800031498075" lon="-8.115498963743448">
        <ele>578.85000000000002</ele>
        <time>2025-05-02T07:22:30Z</time>
      </trkpt>
      <trkpt lat="42.65551102347672" lon="-8.115338031202555">
        <ele>581.73000000000002</ele>
        <time>2025-05-02T07:22:33Z</time>
      </trkpt>
      <trkpt lat="42.655321005731821" lon="-8.115378012880683">
        <ele>582.70000000000005</ele>
        <time>2025-05-02T07:22:34Z</time>
      </trkpt>
      <trkpt lat="42.655303990468383" lon="-8.11537298373878">
        <ele>583.65999999999997</ele>
        <time>2025-05-02T07:22:35Z</time>
      </trkpt>
      <trkpt lat="42.655218997970223" lon="-8.115349011495709">
        <ele>584.13999999999999</ele>
        <time>2025-05-02T07:22:36Z</time>
      </trkpt>
      <trkpt lat="42.65516996383667" lon="-8.115335013717413">
        <ele>584.62</ele>
        <time>2025-05-02T07:22:37Z</time>
      </trkpt>
      <trkpt lat="42.655158983543515" lon="-8.115196041762829">
        <ele>585.10000000000002</ele>
        <time>2025-05-02T07:22:38Z</time>
      </trkpt>
      <trkpt lat="42.655078014358878" lon="-8.115014992654324">
        <ele>585.58000000000004</ele>
        <time>2025-05-02T07:22:39Z</time>
      </trkpt>
      <trkpt lat="42.654282990843058" lon="-8.114217035472393">
        <ele>589.90999999999997</ele>
        <time>2025-05-02T07:22:47Z</time>
      </trkpt>
      <trkpt lat="42.653111033141613" lon="-8.113016998395324">
        <ele>599.03999999999996</ele>
        <time>2025-05-02T07:22:59Z</time>
      </trkpt>
      <trkpt lat="42.653001984581351" lon="-8.113079024478793">
        <ele>599.51999999999998</ele>
        <time>2025-05-02T07:23:00Z</time>
      </trkpt>
      <trkpt lat="42.652853038161993" lon="-8.113059997558594">
        <ele>600.48000000000002</ele>
        <time>2025-05-02T07:23:02Z</time>
      </trkpt>
      <trkpt lat="42.65278497710824" lon="-8.112910967320204">
        <ele>601.44000000000005</ele>
        <time>2025-05-02T07:23:03Z</time>
      </trkpt>
      <trkpt lat="42.652747007086873" lon="-8.112825974822044">
        <ele>601.91999999999996</ele>
        <time>2025-05-02T07:23:04Z</time>
      </trkpt>
      <trkpt lat="42.652694033458829" lon="-8.112679962068796">
        <ele>601.91999999999996</ele>
        <time>2025-05-02T07:23:05Z</time>
      </trkpt>
      <trkpt lat="42.652615997940302" lon="-8.112640986219049">
        <ele>602.39999999999998</ele>
        <time>2025-05-02T07:23:06Z</time>
      </trkpt>
      <trkpt lat="42.652536034584045" lon="-8.112596981227398">
        <ele>602.39999999999998</ele>
        <time>2025-05-02T07:23:07Z</time>
      </trkpt>
      <trkpt lat="42.652456993237138" lon="-8.11253503896296">
        <ele>602.88</ele>
        <time>2025-05-02T07:23:08Z</time>
      </trkpt>
      <trkpt lat="42.65237401239574" lon="-8.11247100122273">
        <ele>602.88</ele>
        <time>2025-05-02T07:23:09Z</time>
      </trkpt>
      <trkpt lat="42.651358963921666" lon="-8.111825007945299">
        <ele>602.39999999999998</ele>
        <time>2025-05-02T07:23:20Z</time>
      </trkpt>
      <trkpt lat="42.64998902566731" lon="-8.110896041616797">
        <ele>602.39999999999998</ele>
        <time>2025-05-02T07:23:31Z</time>
      </trkpt>
      <trkpt lat="42.648985041305423" lon="-8.110164972022176">
        <ele>602.88</ele>
        <time>2025-05-02T07:23:39Z</time>
      </trkpt>
      <trkpt lat="42.648031013086438" lon="-8.109354022890329">
        <ele>601.91999999999996</ele>
        <time>2025-05-02T07:23:50Z</time>
      </trkpt>
      <trkpt lat="42.64739197678864" lon="-8.108419021591544">
        <ele>599.03999999999996</ele>
        <time>2025-05-02T07:23:58Z</time>
      </trkpt>
      <trkpt lat="42.647319976240396" lon="-8.1082399841398">
        <ele>598.08000000000004</ele>
        <time>2025-05-02T07:23:59Z</time>
      </trkpt>
      <trkpt lat="42.646792000159621" lon="-8.1069690361619">
        <ele>592.78999999999996</ele>
        <time>2025-05-02T07:24:06Z</time>
      </trkpt>
      <trkpt lat="42.64612396247685" lon="-8.105862038210034">
        <ele>588.46000000000004</ele>
        <time>2025-05-02T07:24:12Z</time>
      </trkpt>
      <trkpt lat="42.645432036370039" lon="-8.105273963883519">
        <ele>585.58000000000004</ele>
        <time>2025-05-02T07:24:16Z</time>
      </trkpt>
      <trkpt lat="42.645235983654857" lon="-8.105162987485528">
        <ele>584.62</ele>
        <time>2025-05-02T07:24:17Z</time>
      </trkpt>
      <trkpt lat="42.645039008930326" lon="-8.105063997209072">
        <ele>584.13999999999999</ele>
        <time>2025-05-02T07:24:18Z</time>
      </trkpt>
      <trkpt lat="42.643421972170472" lon="-8.104772977530956">
        <ele>582.22000000000003</ele>
        <time>2025-05-02T07:24:26Z</time>
      </trkpt>
      <trkpt lat="42.641488015651703" lon="-8.104443987831473">
        <ele>587.01999999999998</ele>
        <time>2025-05-02T07:24:36Z</time>
      </trkpt>
      <trkpt lat="42.64113899320364" lon="-8.10419999063015">
        <ele>587.98000000000002</ele>
        <time>2025-05-02T07:24:38Z</time>
      </trkpt>
      <trkpt lat="42.640976971015334" lon="-8.104037968441844">
        <ele>588.46000000000004</ele>
        <time>2025-05-02T07:24:39Z</time>
      </trkpt>
      <trkpt lat="42.640826012939215" lon="-8.103871000930667">
        <ele>588.95000000000005</ele>
        <time>2025-05-02T07:24:40Z</time>
      </trkpt>
      <trkpt lat="42.640689974650741" lon="-8.103668997064233">
        <ele>588.95000000000005</ele>
        <time>2025-05-02T07:24:41Z</time>
      </trkpt>
      <trkpt lat="42.640553014352918" lon="-8.103463975712657">
        <ele>588.95000000000005</ele>
        <time>2025-05-02T07:24:42Z</time>
      </trkpt>
      <trkpt lat="42.640412030741572" lon="-8.103255014866591">
        <ele>588.95000000000005</ele>
        <time>2025-05-02T07:24:43Z</time>
      </trkpt>
      <trkpt lat="42.63826098293066" lon="-8.09985900297761">
        <ele>580.28999999999996</ele>
        <time>2025-05-02T07:24:58Z</time>
      </trkpt>
      <trkpt lat="42.636286960914731" lon="-8.096725009381771">
        <ele>573.08000000000004</ele>
        <time>2025-05-02T07:25:12Z</time>
      </trkpt>
      <trkpt lat="42.635588999837637" lon="-8.095783973112702">
        <ele>570.67999999999995</ele>
        <time>2025-05-02T07:25:17Z</time>
      </trkpt>
      <trkpt lat="42.635438041761518" lon="-8.095638966187835">
        <ele>570.67999999999995</ele>
        <time>2025-05-02T07:25:18Z</time>
      </trkpt>
      <trkpt lat="42.635092958807945" lon="-8.095401003956795">
        <ele>570.67999999999995</ele>
        <time>2025-05-02T07:25:20Z</time>
      </trkpt>
      <trkpt lat="42.634903024882078" lon="-8.095312993973494">
        <ele>571.15999999999997</ele>
        <time>2025-05-02T07:25:21Z</time>
      </trkpt>
      <trkpt lat="42.634710995480418" lon="-8.095229007303715">
        <ele>571.63999999999999</ele>
        <time>2025-05-02T07:25:22Z</time>
      </trkpt>
      <trkpt lat="42.634506979957223" lon="-8.095229007303715">
        <ele>572.12</ele>
        <time>2025-05-02T07:25:23Z</time>
      </trkpt>
      <trkpt lat="42.634301958605647" lon="-8.095229007303715">
        <ele>573.08000000000004</ele>
        <time>2025-05-02T07:25:24Z</time>
      </trkpt>
      <trkpt lat="42.634097021073103" lon="-8.095245016738772">
        <ele>574.03999999999996</ele>
        <time>2025-05-02T07:25:25Z</time>
      </trkpt>
      <trkpt lat="42.633887976408005" lon="-8.095321962609887">
        <ele>575.00999999999999</ele>
        <time>2025-05-02T07:25:26Z</time>
      </trkpt>
      <trkpt lat="42.63368496671319" lon="-8.095409972593188">
        <ele>576.92999999999995</ele>
        <time>2025-05-02T07:25:27Z</time>
      </trkpt>
      <trkpt lat="42.633491009473801" lon="-8.095534024760127">
        <ele>578.37</ele>
        <time>2025-05-02T07:25:28Z</time>
      </trkpt>
      <trkpt lat="42.63267201371491" lon="-8.096007015556097">
        <ele>586.05999999999995</ele>
        <time>2025-05-02T07:25:32Z</time>
      </trkpt>
      <trkpt lat="42.632469004020095" lon="-8.096073986962438">
        <ele>587.5</ele>
        <time>2025-05-02T07:25:33Z</time>
      </trkpt>
      <trkpt lat="42.630622973665595" lon="-8.096352014690638">
        <ele>600</ele>
        <time>2025-05-02T07:25:42Z</time>
      </trkpt>
      <trkpt lat="42.629297962412238" lon="-8.096097037196159">
        <ele>607.69000000000005</ele>
        <time>2025-05-02T07:25:49Z</time>
      </trkpt>
      <trkpt lat="42.627973034977913" lon="-8.095233030617237">
        <ele>609.61000000000001</ele>
        <time>2025-05-02T07:25:59Z</time>
      </trkpt>
      <trkpt lat="42.626246027648449" lon="-8.094242038205266">
        <ele>600.48000000000002</ele>
        <time>2025-05-02T07:26:12Z</time>
      </trkpt>
      <trkpt lat="42.624600995332003" lon="-8.093685982748866">
        <ele>591.83000000000004</ele>
        <time>2025-05-02T07:26:23Z</time>
      </trkpt>
      <trkpt lat="42.623631963506341" lon="-8.092976035550237">
        <ele>587.98000000000002</ele>
        <time>2025-05-02T07:26:29Z</time>
      </trkpt>
      <trkpt lat="42.622624039649963" lon="-8.091538958251476">
        <ele>578.85000000000002</ele>
        <time>2025-05-02T07:26:36Z</time>
      </trkpt>
      <trkpt lat="42.62197301723063" lon="-8.090748963877559">
        <ele>573.08000000000004</ele>
        <time>2025-05-02T07:26:40Z</time>
      </trkpt>
      <trkpt lat="42.621804038062692" lon="-8.090572021901608">
        <ele>572.12</ele>
        <time>2025-05-02T07:26:41Z</time>
      </trkpt>
      <trkpt lat="42.621588036417961" lon="-8.090460961684585">
        <ele>570.67999999999995</ele>
        <time>2025-05-02T07:26:42Z</time>
      </trkpt>
      <trkpt lat="42.621381003409624" lon="-8.090354008600116">
        <ele>569.24000000000001</ele>
        <time>2025-05-02T07:26:43Z</time>
      </trkpt>
      <trkpt lat="42.621173970401287" lon="-8.090246971696615">
        <ele>567.79999999999995</ele>
        <time>2025-05-02T07:26:44Z</time>
      </trkpt>
      <trkpt lat="42.619382003322244" lon="-8.089341977611184">
        <ele>558.17999999999995</ele>
        <time>2025-05-02T07:26:53Z</time>
      </trkpt>
      <trkpt lat="42.619214029982686" lon="-8.08918297290802">
        <ele>557.22000000000003</ele>
        <time>2025-05-02T07:26:54Z</time>
      </trkpt>
      <trkpt lat="42.619067011401057" lon="-8.088981974869967">
        <ele>556.74000000000001</ele>
        <time>2025-05-02T07:26:55Z</time>
      </trkpt>
      <trkpt lat="42.618926027789712" lon="-8.088776031509042">
        <ele>556.25999999999999</ele>
        <time>2025-05-02T07:26:56Z</time>
      </trkpt>
      <trkpt lat="42.618803987279534" lon="-8.088549971580505">
        <ele>556.25999999999999</ele>
        <time>2025-05-02T07:26:57Z</time>
      </trkpt>
      <trkpt lat="42.618697034195065" lon="-8.088308991864324">
        <ele>556.74000000000001</ele>
        <time>2025-05-02T07:26:58Z</time>
      </trkpt>
      <trkpt lat="42.618595026433468" lon="-8.088060971349478">
        <ele>557.22000000000003</ele>
        <time>2025-05-02T07:26:59Z</time>
      </trkpt>
      <trkpt lat="42.618523025885224" lon="-8.087799958884716">
        <ele>557.70000000000005</ele>
        <time>2025-05-02T07:27:00Z</time>
      </trkpt>
      <trkpt lat="42.618465023115277" lon="-8.0875279661268">
        <ele>558.65999999999997</ele>
        <time>2025-05-02T07:27:01Z</time>
      </trkpt>
      <trkpt lat="42.618430992588401" lon="-8.087244993075728">
        <ele>559.62</ele>
        <time>2025-05-02T07:27:02Z</time>
      </trkpt>
      <trkpt lat="42.618396040052176" lon="-8.086959002539516">
        <ele>560.11000000000001</ele>
        <time>2025-05-02T07:27:03Z</time>
      </trkpt>
      <trkpt lat="42.618381958454847" lon="-8.086663037538528">
        <ele>560.59000000000003</ele>
        <time>2025-05-02T07:27:04Z</time>
      </trkpt>
      <trkpt lat="42.618412971496582" lon="-8.08640998788178">
        <ele>561.07000000000005</ele>
        <time>2025-05-02T07:27:05Z</time>
      </trkpt>
      <trkpt lat="42.618469968438148" lon="-8.086117040365934">
        <ele>561.54999999999995</ele>
        <time>2025-05-02T07:27:06Z</time>
      </trkpt>
      <trkpt lat="42.618523025885224" lon="-8.085845969617367">
        <ele>561.54999999999995</ele>
        <time>2025-05-02T07:27:07Z</time>
      </trkpt>
      <trkpt lat="42.618612041696906" lon="-8.085586968809366">
        <ele>562.02999999999997</ele>
        <time>2025-05-02T07:27:08Z</time>
      </trkpt>
      <trkpt lat="42.618700973689556" lon="-8.085328973829746">
        <ele>562.02999999999997</ele>
        <time>2025-05-02T07:27:09Z</time>
      </trkpt>
      <trkpt lat="42.618809016421437" lon="-8.085090005770326">
        <ele>562.02999999999997</ele>
        <time>2025-05-02T07:27:10Z</time>
      </trkpt>
      <trkpt lat="42.618934996426105" lon="-8.084848020225763">
        <ele>562.02999999999997</ele>
        <time>2025-05-02T07:27:11Z</time>
      </trkpt>
      <trkpt lat="42.619083020836115" lon="-8.084632018581033">
        <ele>561.54999999999995</ele>
        <time>2025-05-02T07:27:12Z</time>
      </trkpt>
      <trkpt lat="42.619843007996678" lon="-8.083485960960388">
        <ele>555.77999999999997</ele>
        <time>2025-05-02T07:27:17Z</time>
      </trkpt>
      <trkpt lat="42.620105026289821" lon="-8.082725973799825">
        <ele>553.38</ele>
        <time>2025-05-02T07:27:20Z</time>
      </trkpt>
      <trkpt lat="42.620163029059768" lon="-8.082450963556767">
        <ele>552.89999999999998</ele>
        <time>2025-05-02T07:27:21Z</time>
      </trkpt>
      <trkpt lat="42.620208961889148" lon="-8.082162039354444">
        <ele>551.92999999999995</ele>
        <time>2025-05-02T07:27:22Z</time>
      </trkpt>
      <trkpt lat="42.620216002687812" lon="-8.08187797665596">
        <ele>551.45000000000005</ele>
        <time>2025-05-02T07:27:23Z</time>
      </trkpt>
      <trkpt lat="42.620216002687812" lon="-8.081600032746792">
        <ele>550.49000000000001</ele>
        <time>2025-05-02T07:27:24Z</time>
      </trkpt>
      <trkpt lat="42.620189012959599" lon="-8.081332985311747">
        <ele>550.00999999999999</ele>
        <time>2025-05-02T07:27:25Z</time>
      </trkpt>
      <trkpt lat="42.620152970775962" lon="-8.081066021695733">
        <ele>549.52999999999997</ele>
        <time>2025-05-02T07:27:26Z</time>
      </trkpt>
      <trkpt lat="42.620097985491157" lon="-8.080807020887733">
        <ele>549.52999999999997</ele>
        <time>2025-05-02T07:27:27Z</time>
      </trkpt>
      <trkpt lat="42.620007963851094" lon="-8.080559000372887">
        <ele>549.04999999999995</ele>
        <time>2025-05-02T07:27:28Z</time>
      </trkpt>
      <trkpt lat="42.619917020201683" lon="-8.08030997402966">
        <ele>549.04999999999995</ele>
        <time>2025-05-02T07:27:29Z</time>
      </trkpt>
      <trkpt lat="42.619809983298182" lon="-8.080080980435014">
        <ele>549.04999999999995</ele>
        <time>2025-05-02T07:27:30Z</time>
      </trkpt>
      <trkpt lat="42.619679979979992" lon="-8.079861961305141">
        <ele>549.04999999999995</ele>
        <time>2025-05-02T07:27:31Z</time>
      </trkpt>
      <trkpt lat="42.619550982490182" lon="-8.079645037651062">
        <ele>549.52999999999997</ele>
        <time>2025-05-02T07:27:32Z</time>
      </trkpt>
      <trkpt lat="42.619392983615398" lon="-8.079475974664092">
        <ele>549.52999999999997</ele>
        <time>2025-05-02T07:27:33Z</time>
      </trkpt>
      <trkpt lat="42.619225010275841" lon="-8.079314958304167">
        <ele>550.00999999999999</ele>
        <time>2025-05-02T07:27:34Z</time>
      </trkpt>
      <trkpt lat="42.619057958945632" lon="-8.079155031591654">
        <ele>550.49000000000001</ele>
        <time>2025-05-02T07:27:35Z</time>
      </trkpt>
      <trkpt lat="42.61887900531292" lon="-8.079023016616702">
        <ele>550.49000000000001</ele>
        <time>2025-05-02T07:27:36Z</time>
      </trkpt>
      <trkpt lat="42.61868697591126" lon="-8.078922014683485">
        <ele>550.97000000000003</ele>
        <time>2025-05-02T07:27:37Z</time>
      </trkpt>
      <trkpt lat="42.61849201284349" lon="-8.078828975558281">
        <ele>551.45000000000005</ele>
        <time>2025-05-02T07:27:38Z</time>
      </trkpt>
      <trkpt lat="42.618291014805436" lon="-8.07878103107214">
        <ele>551.92999999999995</ele>
        <time>2025-05-02T07:27:39Z</time>
      </trkpt>
      <trkpt lat="42.618089010939002" lon="-8.078735014423728">
        <ele>552.40999999999997</ele>
        <time>2025-05-02T07:27:40Z</time>
      </trkpt>
      <trkpt lat="42.615999989211559" lon="-8.078391021117568">
        <ele>559.13999999999999</ele>
        <time>2025-05-02T07:27:50Z</time>
      </trkpt>
      <trkpt lat="42.614076007157564" lon="-8.078184993937612">
        <ele>569.24000000000001</ele>
        <time>2025-05-02T07:27:59Z</time>
      </trkpt>
      <trkpt lat="42.612804975360632" lon="-8.078552959486842">
        <ele>577.88999999999999</ele>
        <time>2025-05-02T07:28:05Z</time>
      </trkpt>
      <trkpt lat="42.612610012292862" lon="-8.078670976683497">
        <ele>579.80999999999995</ele>
        <time>2025-05-02T07:28:06Z</time>
      </trkpt>
      <trkpt lat="42.611657995730639" lon="-8.079141033813357">
        <ele>588.95000000000005</ele>
        <time>2025-05-02T07:28:11Z</time>
      </trkpt>
      <trkpt lat="42.611465966328979" lon="-8.079166011884809">
        <ele>590.87</ele>
        <time>2025-05-02T07:28:12Z</time>
      </trkpt>
      <trkpt lat="42.611279971897602" lon="-8.079159976914525">
        <ele>592.30999999999995</ele>
        <time>2025-05-02T07:28:13Z</time>
      </trkpt>
      <trkpt lat="42.611104035750031" lon="-8.079107003286481">
        <ele>593.75</ele>
        <time>2025-05-02T07:28:14Z</time>
      </trkpt>
      <trkpt lat="42.610944025218487" lon="-8.079007007181644">
        <ele>595.19000000000005</ele>
        <time>2025-05-02T07:28:15Z</time>
      </trkpt>
      <trkpt lat="42.610791977494955" lon="-8.07886702939868">
        <ele>596.63999999999999</ele>
        <time>2025-05-02T07:28:16Z</time>
      </trkpt>
      <trkpt lat="42.610657028853893" lon="-8.07871799916029">
        <ele>597.60000000000002</ele>
        <time>2025-05-02T07:28:17Z</time>
      </trkpt>
      <trkpt lat="42.61054303497076" lon="-8.078527981415391">
        <ele>598.55999999999995</ele>
        <time>2025-05-02T07:28:18Z</time>
      </trkpt>
      <trkpt lat="42.610449995845556" lon="-8.078330000862479">
        <ele>599.51999999999998</ele>
        <time>2025-05-02T07:28:19Z</time>
      </trkpt>
      <trkpt lat="42.610387969762087" lon="-8.078169990330935">
        <ele>600.48000000000002</ele>
        <time>2025-05-02T07:28:20Z</time>
      </trkpt>
      <trkpt lat="42.610369026660919" lon="-8.077875031158328">
        <ele>601.44000000000005</ele>
        <time>2025-05-02T07:28:21Z</time>
      </trkpt>
      <trkpt lat="42.610352011397481" lon="-8.077617958188057">
        <ele>601.91999999999996</ele>
        <time>2025-05-02T07:28:22Z</time>
      </trkpt>
      <trkpt lat="42.610348993912339" lon="-8.077359963208437">
        <ele>602.88</ele>
        <time>2025-05-02T07:28:23Z</time>
      </trkpt>
      <trkpt lat="42.610354023054242" lon="-8.077087970450521">
        <ele>603.85000000000002</ele>
        <time>2025-05-02T07:28:24Z</time>
      </trkpt>
      <trkpt lat="42.610366009175777" lon="-8.076549014076591">
        <ele>605.76999999999998</ele>
        <time>2025-05-02T07:28:26Z</time>
      </trkpt>
      <trkpt lat="42.610267018899322" lon="-8.076037969440222">
        <ele>608.16999999999996</ele>
        <time>2025-05-02T07:28:28Z</time>
      </trkpt>
      <trkpt lat="42.610202981159091" lon="-8.075779974460602">
        <ele>609.61000000000001</ele>
        <time>2025-05-02T07:28:29Z</time>
      </trkpt>
      <trkpt lat="42.610094016417861" lon="-8.075552992522717">
        <ele>610.57000000000005</ele>
        <time>2025-05-02T07:28:30Z</time>
      </trkpt>
      <trkpt lat="42.609912967309356" lon="-8.075083019211888">
        <ele>612.98000000000002</ele>
        <time>2025-05-02T07:28:32Z</time>
      </trkpt>
      <trkpt lat="42.609842978417873" lon="-8.074842039495707">
        <ele>614.41999999999996</ele>
        <time>2025-05-02T07:28:33Z</time>
      </trkpt>
      <trkpt lat="42.609773995354772" lon="-8.074600975960493">
        <ele>615.38</ele>
        <time>2025-05-02T07:28:34Z</time>
      </trkpt>
      <trkpt lat="42.609744993969798" lon="-8.074337029829621">
        <ele>616.82000000000005</ele>
        <time>2025-05-02T07:28:35Z</time>
      </trkpt>
      <trkpt lat="42.609744993969798" lon="-8.074113987386227">
        <ele>617.77999999999997</ele>
        <time>2025-05-02T07:28:36Z</time>
      </trkpt>
      <trkpt lat="42.609798973426223" lon="-8.073832020163536">
        <ele>618.75</ele>
        <time>2025-05-02T07:28:37Z</time>
      </trkpt>
      <trkpt lat="42.609848007559776" lon="-8.073576958850026">
        <ele>620.19000000000005</ele>
        <time>2025-05-02T07:28:38Z</time>
      </trkpt>
      <trkpt lat="42.609903998672962" lon="-8.073313012719154">
        <ele>621.63</ele>
        <time>2025-05-02T07:28:39Z</time>
      </trkpt>
      <trkpt lat="42.610054034739733" lon="-8.072524024173617">
        <ele>624.99000000000001</ele>
        <time>2025-05-02T07:28:42Z</time>
      </trkpt>
      <trkpt lat="42.61007197201252" lon="-8.072264017537236">
        <ele>625.96000000000004</ele>
        <time>2025-05-02T07:28:43Z</time>
      </trkpt>
      <trkpt lat="42.610087981447577" lon="-8.072033012285829">
        <ele>626.91999999999996</ele>
        <time>2025-05-02T07:28:44Z</time>
      </trkpt>
      <trkpt lat="42.610025033354759" lon="-8.07177996262908">
        <ele>627.88</ele>
        <time>2025-05-02T07:28:45Z</time>
      </trkpt>
      <trkpt lat="42.609966024756432" lon="-8.071546023711562">
        <ele>629.32000000000005</ele>
        <time>2025-05-02T07:28:46Z</time>
      </trkpt>
      <trkpt lat="42.609869968146086" lon="-8.071375032886863">
        <ele>630.75999999999999</ele>
        <time>2025-05-02T07:28:47Z</time>
      </trkpt>
      <trkpt lat="42.609755974262953" lon="-8.071192977949977">
        <ele>632.67999999999995</ele>
        <time>2025-05-02T07:28:48Z</time>
      </trkpt>
      <trkpt lat="42.609628988429904" lon="-8.071059035137296">
        <ele>633.64999999999998</ele>
        <time>2025-05-02T07:28:49Z</time>
      </trkpt>
      <trkpt lat="42.609486998990178" lon="-8.070916961878538">
        <ele>635.09000000000003</ele>
        <time>2025-05-02T07:28:50Z</time>
      </trkpt>
      <trkpt lat="42.609320031479001" lon="-8.070841021835804">
        <ele>636.52999999999997</ele>
        <time>2025-05-02T07:28:51Z</time>
      </trkpt>
      <trkpt lat="42.609159015119076" lon="-8.070803973823786">
        <ele>637.49000000000001</ele>
        <time>2025-05-02T07:28:52Z</time>
      </trkpt>
      <trkpt lat="42.608967991545796" lon="-8.070791987702251">
        <ele>638.45000000000005</ele>
        <time>2025-05-02T07:28:53Z</time>
      </trkpt>
      <trkpt lat="42.608777973800898" lon="-8.070832975208759">
        <ele>639.88999999999999</ele>
        <time>2025-05-02T07:28:54Z</time>
      </trkpt>
      <trkpt lat="42.608570018783212" lon="-8.070905981585383">
        <ele>640.86000000000001</ele>
        <time>2025-05-02T07:28:55Z</time>
      </trkpt>
      <trkpt lat="42.608335996046662" lon="-8.071014024317265">
        <ele>640.86000000000001</ele>
        <time>2025-05-02T07:28:56Z</time>
      </trkpt>
      <trkpt lat="42.608112031593919" lon="-8.071170011535287">
        <ele>640.86000000000001</ele>
        <time>2025-05-02T07:28:57Z</time>
      </trkpt>
      <trkpt lat="42.607354978099465" lon="-8.07167200371623">
        <ele>643.74000000000001</ele>
        <time>2025-05-02T07:29:01Z</time>
      </trkpt>
      <trkpt lat="42.607183987274766" lon="-8.071754984557629">
        <ele>644.22000000000003</ele>
        <time>2025-05-02T07:29:02Z</time>
      </trkpt>
      <trkpt lat="42.607006961479783" lon="-8.071809969842434">
        <ele>644.70000000000005</ele>
        <time>2025-05-02T07:29:03Z</time>
      </trkpt>
      <trkpt lat="42.606839993968606" lon="-8.07182296179235">
        <ele>645.17999999999995</ele>
        <time>2025-05-02T07:29:04Z</time>
      </trkpt>
      <trkpt lat="42.606661962345243" lon="-8.071781974285841">
        <ele>645.65999999999997</ele>
        <time>2025-05-02T07:29:05Z</time>
      </trkpt>
      <trkpt lat="42.60650203563273" lon="-8.071698993444443">
        <ele>646.13999999999999</ele>
        <time>2025-05-02T07:29:06Z</time>
      </trkpt>
      <trkpt lat="42.60633297264576" lon="-8.071591034531593">
        <ele>646.62</ele>
        <time>2025-05-02T07:29:07Z</time>
      </trkpt>
      <trkpt lat="42.606164999306202" lon="-8.071451978757978">
        <ele>647.59000000000003</ele>
        <time>2025-05-02T07:29:08Z</time>
      </trkpt>
      <trkpt lat="42.605637023225427" lon="-8.071095999330282">
        <ele>649.99000000000001</ele>
        <time>2025-05-02T07:29:11Z</time>
      </trkpt>
      <trkpt lat="42.60545102879405" lon="-8.071012012660503">
        <ele>650.95000000000005</ele>
        <time>2025-05-02T07:29:12Z</time>
      </trkpt>
      <trkpt lat="42.605251958593726" lon="-8.071013018488884">
        <ele>651.90999999999997</ele>
        <time>2025-05-02T07:29:13Z</time>
      </trkpt>
      <trkpt lat="42.60506696999073" lon="-8.071025004610419">
        <ele>652.87</ele>
        <time>2025-05-02T07:29:14Z</time>
      </trkpt>
      <trkpt lat="42.604880975559354" lon="-8.071117037907243">
        <ele>653.83000000000004</ele>
        <time>2025-05-02T07:29:15Z</time>
      </trkpt>
      <trkpt lat="42.604688024148345" lon="-8.071214016526938">
        <ele>654.79999999999995</ele>
        <time>2025-05-02T07:29:16Z</time>
      </trkpt>
      <trkpt lat="42.604521978646517" lon="-8.071333961561322">
        <ele>655.75999999999999</ele>
        <time>2025-05-02T07:29:17Z</time>
      </trkpt>
      <trkpt lat="42.604360962286592" lon="-8.07147896848619">
        <ele>656.24000000000001</ele>
        <time>2025-05-02T07:29:18Z</time>
      </trkpt>
      <trkpt lat="42.604196006432176" lon="-8.071666974574328">
        <ele>656.72000000000003</ele>
        <time>2025-05-02T07:29:19Z</time>
      </trkpt>
      <trkpt lat="42.603626037016511" lon="-8.072087997570634">
        <ele>659.12</ele>
        <time>2025-05-02T07:29:22Z</time>
      </trkpt>
      <trkpt lat="42.603441970422864" lon="-8.072161003947258">
        <ele>660.08000000000004</ele>
        <time>2025-05-02T07:29:23Z</time>
      </trkpt>
      <trkpt lat="42.603251030668616" lon="-8.072190005332232">
        <ele>661.03999999999996</ele>
        <time>2025-05-02T07:29:24Z</time>
      </trkpt>
      <trkpt lat="42.603072999045253" lon="-8.072156980633736">
        <ele>661.51999999999998</ele>
        <time>2025-05-02T07:29:25Z</time>
      </trkpt>
      <trkpt lat="42.60289597325027" lon="-8.072090009227395">
        <ele>662.49000000000001</ele>
        <time>2025-05-02T07:29:26Z</time>
      </trkpt>
      <trkpt lat="42.602727999910712" lon="-8.071975009515882">
        <ele>662.97000000000003</ele>
        <time>2025-05-02T07:29:27Z</time>
      </trkpt>
      <trkpt lat="42.602562960237265" lon="-8.071828996762633">
        <ele>663.45000000000005</ele>
        <time>2025-05-02T07:29:28Z</time>
      </trkpt>
      <trkpt lat="42.602396998554468" lon="-8.071679966524243">
        <ele>663.92999999999995</ele>
        <time>2025-05-02T07:29:29Z</time>
      </trkpt>
      <trkpt lat="42.602046970278025" lon="-8.071400010958314">
        <ele>664.88999999999999</ele>
        <time>2025-05-02T07:29:31Z</time>
      </trkpt>
      <trkpt lat="42.601870028302073" lon="-8.071281993761659">
        <ele>665.37</ele>
        <time>2025-05-02T07:29:32Z</time>
      </trkpt>
      <trkpt lat="42.601658971980214" lon="-8.07122197933495">
        <ele>665.85000000000002</ele>
        <time>2025-05-02T07:29:33Z</time>
      </trkpt>
      <trkpt lat="42.601465014740825" lon="-8.071195995435119">
        <ele>666.33000000000004</ele>
        <time>2025-05-02T07:29:34Z</time>
      </trkpt>
      <trkpt lat="42.601256975904107" lon="-8.071195995435119">
        <ele>666.80999999999995</ele>
        <time>2025-05-02T07:29:35Z</time>
      </trkpt>
      <trkpt lat="42.601064024493098" lon="-8.071261961013079">
        <ele>667.28999999999996</ele>
        <time>2025-05-02T07:29:36Z</time>
      </trkpt>
      <trkpt lat="42.600857997313142" lon="-8.071346031501889">
        <ele>667.76999999999998</ele>
        <time>2025-05-02T07:29:37Z</time>
      </trkpt>
      <trkpt lat="42.600647024810314" lon="-8.071432029828429">
        <ele>668.25</ele>
        <time>2025-05-02T07:29:38Z</time>
      </trkpt>
      <trkpt lat="42.600478967651725" lon="-8.071615006774664">
        <ele>669.22000000000003</ele>
        <time>2025-05-02T07:29:39Z</time>
      </trkpt>
      <trkpt lat="42.600325997918844" lon="-8.071816004812717">
        <ele>670.17999999999995</ele>
        <time>2025-05-02T07:29:40Z</time>
      </trkpt>
      <trkpt lat="42.600198006257415" lon="-8.072041980922222">
        <ele>671.13999999999999</ele>
        <time>2025-05-02T07:29:41Z</time>
      </trkpt>
      <trkpt lat="42.600087029859424" lon="-8.072299975901842">
        <ele>672.10000000000002</ele>
        <time>2025-05-02T07:29:42Z</time>
      </trkpt>
      <trkpt lat="42.59997203014791" lon="-8.072565011680126">
        <ele>673.05999999999995</ele>
        <time>2025-05-02T07:29:43Z</time>
      </trkpt>
      <trkpt lat="42.599299969151616" lon="-8.074019020423293">
        <ele>675.46000000000004</ele>
        <time>2025-05-02T07:29:49Z</time>
      </trkpt>
      <trkpt lat="42.599151022732258" lon="-8.074155980721116">
        <ele>675.94000000000005</ele>
        <time>2025-05-02T07:29:50Z</time>
      </trkpt>
      <trkpt lat="42.598982965573668" lon="-8.074305010959506">
        <ele>675.94000000000005</ele>
        <time>2025-05-02T07:29:51Z</time>
      </trkpt>
      <trkpt lat="42.598819015547633" lon="-8.074410036206245">
        <ele>676.41999999999996</ele>
        <time>2025-05-02T07:29:52Z</time>
      </trkpt>
      <trkpt lat="42.598622962832451" lon="-8.074494022876024">
        <ele>676.90999999999997</ele>
        <time>2025-05-02T07:29:53Z</time>
      </trkpt>
      <trkpt lat="42.598427999764681" lon="-8.074541967362166">
        <ele>677.38999999999999</ele>
        <time>2025-05-02T07:29:54Z</time>
      </trkpt>
      <trkpt lat="42.598236976191401" lon="-8.074551019817591">
        <ele>677.87</ele>
        <time>2025-05-02T07:29:55Z</time>
      </trkpt>
      <trkpt lat="42.598027009516954" lon="-8.074516989290714">
        <ele>678.83000000000004</ele>
        <time>2025-05-02T07:29:56Z</time>
      </trkpt>
      <trkpt lat="42.597816037014127" lon="-8.074482958763838">
        <ele>679.30999999999995</ele>
        <time>2025-05-02T07:29:57Z</time>
      </trkpt>
      <trkpt lat="42.597639011219144" lon="-8.074379023164511">
        <ele>680.26999999999998</ele>
        <time>2025-05-02T07:29:58Z</time>
      </trkpt>
      <trkpt lat="42.597441030666232" lon="-8.074250025674701">
        <ele>680.75</ele>
        <time>2025-05-02T07:29:59Z</time>
      </trkpt>
      <trkpt lat="42.597247995436192" lon="-8.074123039841652">
        <ele>681.71000000000004</ele>
        <time>2025-05-02T07:30:00Z</time>
      </trkpt>
      <trkpt lat="42.595979981124401" lon="-8.073543012142181">
        <ele>687.96000000000004</ele>
        <time>2025-05-02T07:30:07Z</time>
      </trkpt>
      <trkpt lat="42.595793986693025" lon="-8.07356296107173">
        <ele>688.44000000000005</ele>
        <time>2025-05-02T07:30:08Z</time>
      </trkpt>
      <trkpt lat="42.595604974776506" lon="-8.07358399964869">
        <ele>689.39999999999998</ele>
        <time>2025-05-02T07:30:09Z</time>
      </trkpt>
      <trkpt lat="42.594811962917447" lon="-8.073588022962213">
        <ele>690.84000000000003</ele>
        <time>2025-05-02T07:30:13Z</time>
      </trkpt>
      <trkpt lat="42.594427987933159" lon="-8.073468999937177">
        <ele>691.33000000000004</ele>
        <time>2025-05-02T07:30:15Z</time>
      </trkpt>
      <trkpt lat="42.594246016815305" lon="-8.073360035195947">
        <ele>691.33000000000004</ele>
        <time>2025-05-02T07:30:16Z</time>
      </trkpt>
      <trkpt lat="42.594060022383928" lon="-8.073247969150543">
        <ele>690.84000000000003</ele>
        <time>2025-05-02T07:30:17Z</time>
      </trkpt>
      <trkpt lat="42.593879979103804" lon="-8.073115032166243">
        <ele>690.84000000000003</ele>
        <time>2025-05-02T07:30:18Z</time>
      </trkpt>
      <trkpt lat="42.593718962743878" lon="-8.07293800637126">
        <ele>690.84000000000003</ele>
        <time>2025-05-02T07:30:19Z</time>
      </trkpt>
      <trkpt lat="42.593555012717843" lon="-8.072757963091135">
        <ele>690.84000000000003</ele>
        <time>2025-05-02T07:30:20Z</time>
      </trkpt>
      <trkpt lat="42.593401037156582" lon="-8.072563000023365">
        <ele>690.36000000000001</ele>
        <time>2025-05-02T07:30:21Z</time>
      </trkpt>
      <trkpt lat="42.591848038136959" lon="-8.070719987154007">
        <ele>695.16999999999996</ele>
        <time>2025-05-02T07:30:31Z</time>
      </trkpt>
      <trkpt lat="42.590095968917012" lon="-8.069079983979464">
        <ele>696.13</ele>
        <time>2025-05-02T07:30:43Z</time>
      </trkpt>
      <trkpt lat="42.588228983804584" lon="-8.067425983026624">
        <ele>699.98000000000002</ele>
        <time>2025-05-02T07:30:55Z</time>
      </trkpt>
      <trkpt lat="42.587444018572569" lon="-8.066745037212968">
        <ele>704.77999999999997</ele>
        <time>2025-05-02T07:31:00Z</time>
      </trkpt>
      <trkpt lat="42.587303034961224" lon="-8.06655996479094">
        <ele>705.75</ele>
        <time>2025-05-02T07:31:01Z</time>
      </trkpt>
      <trkpt lat="42.587174959480762" lon="-8.066357038915157">
        <ele>707.19000000000005</ele>
        <time>2025-05-02T07:31:02Z</time>
      </trkpt>
      <trkpt lat="42.587067000567913" lon="-8.06612997315824">
        <ele>708.63</ele>
        <time>2025-05-02T07:31:03Z</time>
      </trkpt>
      <trkpt lat="42.586970021948218" lon="-8.065887987613678">
        <ele>710.07000000000005</ele>
        <time>2025-05-02T07:31:04Z</time>
      </trkpt>
      <trkpt lat="42.586892992258072" lon="-8.0656330101192">
        <ele>711.50999999999999</ele>
        <time>2025-05-02T07:31:05Z</time>
      </trkpt>
      <trkpt lat="42.586817974224687" lon="-8.06537602096796">
        <ele>712.95000000000005</ele>
        <time>2025-05-02T07:31:06Z</time>
      </trkpt>
      <trkpt lat="42.586260996758938" lon="-8.063889993354678">
        <ele>720.15999999999997</ele>
        <time>2025-05-02T07:31:12Z</time>
      </trkpt>
      <trkpt lat="42.586109032854438" lon="-8.06370098143816">
        <ele>721.13</ele>
        <time>2025-05-02T07:31:13Z</time>
      </trkpt>
      <trkpt lat="42.585957990959287" lon="-8.063514987006784">
        <ele>722.09000000000003</ele>
        <time>2025-05-02T07:31:14Z</time>
      </trkpt>
      <trkpt lat="42.585800997912884" lon="-8.063327986747026">
        <ele>723.52999999999997</ele>
        <time>2025-05-02T07:31:15Z</time>
      </trkpt>
      <trkpt lat="42.58562196046114" lon="-8.063183985650539">
        <ele>724.49000000000001</ele>
        <time>2025-05-02T07:31:16Z</time>
      </trkpt>
      <trkpt lat="42.583981035277247" lon="-8.061929969117045">
        <ele>727.86000000000001</ele>
        <time>2025-05-02T07:31:25Z</time>
      </trkpt>
      <trkpt lat="42.582415966317058" lon="-8.061251034960151">
        <ele>724.49000000000001</ele>
        <time>2025-05-02T07:31:33Z</time>
      </trkpt>
      <trkpt lat="42.580133993178606" lon="-8.060968983918428">
        <ele>716.32000000000005</ele>
        <time>2025-05-02T07:31:44Z</time>
      </trkpt>
      <trkpt lat="42.577643981203437" lon="-8.060732027515769">
        <ele>709.11000000000001</ele>
        <time>2025-05-02T07:31:56Z</time>
      </trkpt>
      <trkpt lat="42.574115032330155" lon="-8.060342017561197">
        <ele>709.11000000000001</ele>
        <time>2025-05-02T07:32:13Z</time>
      </trkpt>
      <trkpt lat="42.573365019634366" lon="-8.060158034786582">
        <ele>713.44000000000005</ele>
        <time>2025-05-02T07:32:17Z</time>
      </trkpt>
      <trkpt lat="42.573190005496144" lon="-8.060043035075069">
        <ele>714.88</ele>
        <time>2025-05-02T07:32:18Z</time>
      </trkpt>
      <trkpt lat="42.573025971651077" lon="-8.059899033978581">
        <ele>715.84000000000003</ele>
        <time>2025-05-02T07:32:19Z</time>
      </trkpt>
      <trkpt lat="42.572870990261436" lon="-8.059729970991612">
        <ele>717.27999999999997</ele>
        <time>2025-05-02T07:32:20Z</time>
      </trkpt>
      <trkpt lat="42.572741992771626" lon="-8.059518998488784">
        <ele>718.24000000000001</ele>
        <time>2025-05-02T07:32:21Z</time>
      </trkpt>
      <trkpt lat="42.572615006938577" lon="-8.059302996844053">
        <ele>719.67999999999995</ele>
        <time>2025-05-02T07:32:22Z</time>
      </trkpt>
      <trkpt lat="42.572520039975643" lon="-8.059063022956252">
        <ele>721.13</ele>
        <time>2025-05-02T07:32:23Z</time>
      </trkpt>
      <trkpt lat="42.572439992800355" lon="-8.05882497690618">
        <ele>722.09000000000003</ele>
        <time>2025-05-02T07:32:24Z</time>
      </trkpt>
      <trkpt lat="42.572388025000691" lon="-8.058575028553605">
        <ele>723.52999999999997</ele>
        <time>2025-05-02T07:32:25Z</time>
      </trkpt>
      <trkpt lat="42.572344020009041" lon="-8.058318039402366">
        <ele>724.49000000000001</ele>
        <time>2025-05-02T07:32:26Z</time>
      </trkpt>
      <trkpt lat="42.572344020009041" lon="-8.058047974482179">
        <ele>725.92999999999995</ele>
        <time>2025-05-02T07:32:27Z</time>
      </trkpt>
      <trkpt lat="42.572355000302196" lon="-8.057768018916249">
        <ele>727.37</ele>
        <time>2025-05-02T07:32:28Z</time>
      </trkpt>
      <trkpt lat="42.572394981980324" lon="-8.057485967874527">
        <ele>728.82000000000005</ele>
        <time>2025-05-02T07:32:29Z</time>
      </trkpt>
      <trkpt lat="42.572435969486833" lon="-8.057196037843823">
        <ele>730.25999999999999</ele>
        <time>2025-05-02T07:32:30Z</time>
      </trkpt>
      <trkpt lat="42.572867972776294" lon="-8.054154999554157">
        <ele>744.20000000000005</ele>
        <time>2025-05-02T07:32:40Z</time>
      </trkpt>
      <trkpt lat="42.57290200330317" lon="-8.053649989888072">
        <ele>746.60000000000002</ele>
        <time>2025-05-02T07:32:42Z</time>
      </trkpt>
      <trkpt lat="42.57288197055459" lon="-8.053394006565213">
        <ele>747.55999999999995</ele>
        <time>2025-05-02T07:32:43Z</time>
      </trkpt>
      <trkpt lat="42.572808964177966" lon="-8.053161995485425">
        <ele>748.51999999999998</ele>
        <time>2025-05-02T07:32:44Z</time>
      </trkpt>
      <trkpt lat="42.572734029963613" lon="-8.052927972748876">
        <ele>749.49000000000001</ele>
        <time>2025-05-02T07:32:45Z</time>
      </trkpt>
      <trkpt lat="42.572606038302183" lon="-8.052738038823009">
        <ele>750.92999999999995</ele>
        <time>2025-05-02T07:32:46Z</time>
      </trkpt>
      <trkpt lat="42.572473017498851" lon="-8.05254902690649">
        <ele>751.88999999999999</ele>
        <time>2025-05-02T07:32:47Z</time>
      </trkpt>
      <trkpt lat="42.572310995310545" lon="-8.052445007488132">
        <ele>752.85000000000002</ele>
        <time>2025-05-02T07:32:48Z</time>
      </trkpt>
      <trkpt lat="42.572144027799368" lon="-8.05233696475625">
        <ele>753.80999999999995</ele>
        <time>2025-05-02T07:32:49Z</time>
      </trkpt>
      <trkpt lat="42.571959961205721" lon="-8.052277034148574">
        <ele>755.25</ele>
        <time>2025-05-02T07:32:50Z</time>
      </trkpt>
      <trkpt lat="42.571766003966331" lon="-8.052239986136556">
        <ele>756.21000000000004</ele>
        <time>2025-05-02T07:32:51Z</time>
      </trkpt>
      <trkpt lat="42.5715690292418" lon="-8.052218025550246">
        <ele>757.17999999999995</ele>
        <time>2025-05-02T07:32:52Z</time>
      </trkpt>
      <trkpt lat="42.571202991530299" lon="-8.052177038043737">
        <ele>759.10000000000002</ele>
        <time>2025-05-02T07:32:54Z</time>
      </trkpt>
      <trkpt lat="42.571035018190742" lon="-8.052146025002003">
        <ele>759.58000000000004</ele>
        <time>2025-05-02T07:32:55Z</time>
      </trkpt>
      <trkpt lat="42.5708800368011" lon="-8.052083998918533">
        <ele>760.05999999999995</ele>
        <time>2025-05-02T07:32:56Z</time>
      </trkpt>
      <trkpt lat="42.570750033482909" lon="-8.051973022520542">
        <ele>760.53999999999996</ele>
        <time>2025-05-02T07:32:57Z</time>
      </trkpt>
      <trkpt lat="42.570631010457873" lon="-8.05186104029417">
        <ele>761.01999999999998</ele>
        <time>2025-05-02T07:32:58Z</time>
      </trkpt>
      <trkpt lat="42.570525985211134" lon="-8.051742017269135">
        <ele>761.5</ele>
        <time>2025-05-02T07:32:59Z</time>
      </trkpt>
      <trkpt lat="42.57043001241982" lon="-8.051599022001028">
        <ele>761.5</ele>
        <time>2025-05-02T07:33:00Z</time>
      </trkpt>
      <trkpt lat="42.570349965244532" lon="-8.051430964842439">
        <ele>761.5</ele>
        <time>2025-05-02T07:33:01Z</time>
      </trkpt>
      <trkpt lat="42.570272013545036" lon="-8.051241030916572">
        <ele>761.01999999999998</ele>
        <time>2025-05-02T07:33:02Z</time>
      </trkpt>
      <trkpt lat="42.570205964148045" lon="-8.051038021221757">
        <ele>761.01999999999998</ele>
        <time>2025-05-02T07:33:03Z</time>
      </trkpt>
      <trkpt lat="42.569768009707332" lon="-8.049650983884931">
        <ele>755.73000000000002</ele>
        <time>2025-05-02T07:33:11Z</time>
      </trkpt>
      <trkpt lat="42.569369031116366" lon="-8.04865999147296">
        <ele>750.45000000000005</ele>
        <time>2025-05-02T07:33:18Z</time>
      </trkpt>
      <trkpt lat="42.569294013082981" lon="-8.048534011468291">
        <ele>749.49000000000001</ele>
        <time>2025-05-02T07:33:19Z</time>
      </trkpt>
      <trkpt lat="42.568489015102386" lon="-8.047864967957139">
        <ele>745.15999999999997</ele>
        <time>2025-05-02T07:33:27Z</time>
      </trkpt>
      <trkpt lat="42.567166015505791" lon="-8.04713498800993">
        <ele>745.63999999999999</ele>
        <time>2025-05-02T07:33:39Z</time>
      </trkpt>
      <trkpt lat="42.567064007744193" lon="-8.047043960541487">
        <ele>745.63999999999999</ele>
        <time>2025-05-02T07:33:40Z</time>
      </trkpt>
      <trkpt lat="42.566957976669073" lon="-8.046948993578553">
        <ele>745.63999999999999</ele>
        <time>2025-05-02T07:33:41Z</time>
      </trkpt>
      <trkpt lat="42.566879019141197" lon="-8.046851009130478">
        <ele>745.63999999999999</ele>
        <time>2025-05-02T07:33:42Z</time>
      </trkpt>
      <trkpt lat="42.566785980015993" lon="-8.046733997762203">
        <ele>745.63999999999999</ele>
        <time>2025-05-02T07:33:43Z</time>
      </trkpt>
      <trkpt lat="42.566724037751555" lon="-8.046617992222309">
        <ele>746.12</ele>
        <time>2025-05-02T07:33:44Z</time>
      </trkpt>
      <trkpt lat="42.566653965041041" lon="-8.046487988904119">
        <ele>746.12</ele>
        <time>2025-05-02T07:33:45Z</time>
      </trkpt>
      <trkpt lat="42.565627014264464" lon="-8.044613040983677">
        <ele>753.80999999999995</ele>
        <time>2025-05-02T07:33:59Z</time>
      </trkpt>
      <trkpt lat="42.564800977706909" lon="-8.043064987286925">
        <ele>759.58000000000004</ele>
        <time>2025-05-02T07:34:07Z</time>
      </trkpt>
      <trkpt lat="42.564612971618772" lon="-8.042618986219168">
        <ele>761.5</ele>
        <time>2025-05-02T07:34:09Z</time>
      </trkpt>
      <trkpt lat="42.564523033797741" lon="-8.042404996231198">
        <ele>762.94000000000005</ele>
        <time>2025-05-02T07:34:10Z</time>
      </trkpt>
      <trkpt lat="42.564452039077878" lon="-8.042167034000158">
        <ele>763.89999999999998</ele>
        <time>2025-05-02T07:34:11Z</time>
      </trkpt>
      <trkpt lat="42.564412979409099" lon="-8.04191499017179">
        <ele>764.38999999999999</ele>
        <time>2025-05-02T07:34:12Z</time>
      </trkpt>
      <trkpt lat="42.564411973580718" lon="-8.041652971878648">
        <ele>765.35000000000002</ele>
        <time>2025-05-02T07:34:13Z</time>
      </trkpt>
      <trkpt lat="42.564421026036143" lon="-8.041396988555789">
        <ele>766.30999999999995</ele>
        <time>2025-05-02T07:34:14Z</time>
      </trkpt>
      <trkpt lat="42.564437035471201" lon="-8.041133964434266">
        <ele>766.78999999999996</ele>
        <time>2025-05-02T07:34:15Z</time>
      </trkpt>
      <trkpt lat="42.564491014927626" lon="-8.039561016485095">
        <ele>771.11000000000001</ele>
        <time>2025-05-02T07:34:21Z</time>
      </trkpt>
      <trkpt lat="42.564453966915607" lon="-8.039306038990617">
        <ele>771.60000000000002</ele>
        <time>2025-05-02T07:34:22Z</time>
      </trkpt>
      <trkpt lat="42.564404010772705" lon="-8.039061035960913">
        <ele>772.08000000000004</ele>
        <time>2025-05-02T07:34:23Z</time>
      </trkpt>
      <trkpt lat="42.56430996581912" lon="-8.038833970203996">
        <ele>772.55999999999995</ele>
        <time>2025-05-02T07:34:24Z</time>
      </trkpt>
      <trkpt lat="42.564197983592749" lon="-8.038622997701168">
        <ele>773.51999999999998</ele>
        <time>2025-05-02T07:34:25Z</time>
      </trkpt>
      <trkpt lat="42.564067980274558" lon="-8.038418982177973">
        <ele>774.48000000000002</ele>
        <time>2025-05-02T07:34:26Z</time>
      </trkpt>
      <trkpt lat="42.563925990834832" lon="-8.038224019110203">
        <ele>775.44000000000005</ele>
        <time>2025-05-02T07:34:27Z</time>
      </trkpt>
      <trkpt lat="42.563779978081584" lon="-8.03802402690053">
        <ele>776.39999999999998</ele>
        <time>2025-05-02T07:34:28Z</time>
      </trkpt>
      <trkpt lat="42.562794014811516" lon="-8.036166010424495">
        <ele>787.94000000000005</ele>
        <time>2025-05-02T07:34:36Z</time>
      </trkpt>
      <trkpt lat="42.56258899345994" lon="-8.034383011981845">
        <ele>798.99000000000001</ele>
        <time>2025-05-02T07:34:42Z</time>
      </trkpt>
      <trkpt lat="42.562578013166785" lon="-8.032492976635695">
        <ele>807.15999999999997</ele>
        <time>2025-05-02T07:34:48Z</time>
      </trkpt>
      <trkpt lat="42.562538031488657" lon="-8.032207991927862">
        <ele>808.13</ele>
        <time>2025-05-02T07:34:49Z</time>
      </trkpt>
      <trkpt lat="42.562440969049931" lon="-8.031928036361933">
        <ele>809.09000000000003</ele>
        <time>2025-05-02T07:34:50Z</time>
      </trkpt>
      <trkpt lat="42.562090018764138" lon="-8.031177017837763">
        <ele>811.97000000000003</ele>
        <time>2025-05-02T07:34:53Z</time>
      </trkpt>
      <trkpt lat="42.56194400601089" lon="-8.030947018414736">
        <ele>812.92999999999995</ele>
        <time>2025-05-02T07:34:54Z</time>
      </trkpt>
      <trkpt lat="42.561762034893036" lon="-8.030747026205063">
        <ele>813.40999999999997</ele>
        <time>2025-05-02T07:34:55Z</time>
      </trkpt>
      <trkpt lat="42.561581991612911" lon="-8.030544016510248">
        <ele>814.37</ele>
        <time>2025-05-02T07:34:56Z</time>
      </trkpt>
      <trkpt lat="42.561391973868012" lon="-8.030361039564014">
        <ele>814.85000000000002</ele>
        <time>2025-05-02T07:34:57Z</time>
      </trkpt>
      <trkpt lat="42.559606963768601" lon="-8.028696980327368">
        <ele>811.97000000000003</ele>
        <time>2025-05-02T07:35:07Z</time>
      </trkpt>
      <trkpt lat="42.558423019945621" lon="-8.027509013190866">
        <ele>804.75999999999999</ele>
        <time>2025-05-02T07:35:14Z</time>
      </trkpt>
      <trkpt lat="42.558289999142289" lon="-8.027313966304064">
        <ele>803.79999999999995</ele>
        <time>2025-05-02T07:35:15Z</time>
      </trkpt>
      <trkpt lat="42.558172987774014" lon="-8.02711196243763">
        <ele>802.84000000000003</ele>
        <time>2025-05-02T07:35:16Z</time>
      </trkpt>
      <trkpt lat="42.558079026639462" lon="-8.026876011863351">
        <ele>801.39999999999998</ele>
        <time>2025-05-02T07:35:17Z</time>
      </trkpt>
      <trkpt lat="42.557998979464173" lon="-8.026630003005266">
        <ele>800.44000000000005</ele>
        <time>2025-05-02T07:35:18Z</time>
      </trkpt>
      <trkpt lat="42.557920021936297" lon="-8.026368990540505">
        <ele>798.99000000000001</ele>
        <time>2025-05-02T07:35:19Z</time>
      </trkpt>
      <trkpt lat="42.557853972539306" lon="-8.026103032752872">
        <ele>797.54999999999995</ele>
        <time>2025-05-02T07:35:20Z</time>
      </trkpt>
      <trkpt lat="42.55779798142612" lon="-8.025820981711149">
        <ele>796.59000000000003</ele>
        <time>2025-05-02T07:35:21Z</time>
      </trkpt>
      <trkpt lat="42.55725902505219" lon="-8.023281013593078">
        <ele>783.13</ele>
        <time>2025-05-02T07:35:30Z</time>
      </trkpt>
      <trkpt lat="42.556353025138378" lon="-8.020326979458332">
        <ele>767.75</ele>
        <time>2025-05-02T07:35:40Z</time>
      </trkpt>
      <trkpt lat="42.55519799888134" lon="-8.017738983035088">
        <ele>753.80999999999995</ele>
        <time>2025-05-02T07:35:50Z</time>
      </trkpt>
      <trkpt lat="42.553824037313461" lon="-8.016146002337337">
        <ele>743.72000000000003</ele>
        <time>2025-05-02T07:35:58Z</time>
      </trkpt>
      <trkpt lat="42.552323006093502" lon="-8.015300016850233">
        <ele>735.54999999999995</ele>
        <time>2025-05-02T07:36:05Z</time>
      </trkpt>
      <trkpt lat="42.550700018182397" lon="-8.01495099440217">
        <ele>726.88999999999999</ele>
        <time>2025-05-02T07:36:12Z</time>
      </trkpt>
      <trkpt lat="42.550262985751033" lon="-8.014783021062613">
        <ele>724.49000000000001</ele>
        <time>2025-05-02T07:36:14Z</time>
      </trkpt>
      <trkpt lat="42.550048995763063" lon="-8.014666009694338">
        <ele>723.04999999999995</ele>
        <time>2025-05-02T07:36:15Z</time>
      </trkpt>
      <trkpt lat="42.547545991837978" lon="-8.013030029833317">
        <ele>708.14999999999998</ele>
        <time>2025-05-02T07:36:27Z</time>
      </trkpt>
      <trkpt lat="42.546696988865733" lon="-8.012635996565223">
        <ele>703.34000000000003</ele>
        <time>2025-05-02T07:36:31Z</time>
      </trkpt>
      <trkpt lat="42.544694971293211" lon="-8.012391999363899">
        <ele>697.09000000000003</ele>
        <time>2025-05-02T07:36:40Z</time>
      </trkpt>
      <trkpt lat="42.543470039963722" lon="-8.012263001874089">
        <ele>697.09000000000003</ele>
        <time>2025-05-02T07:36:47Z</time>
      </trkpt>
      <trkpt lat="42.542380979284644" lon="-8.012047000229359">
        <ele>697.09000000000003</ele>
        <time>2025-05-02T07:36:56Z</time>
      </trkpt>
      <trkpt lat="42.541379006579518" lon="-8.011485999450088">
        <ele>693.73000000000002</ele>
        <time>2025-05-02T07:37:05Z</time>
      </trkpt>
      <trkpt lat="42.541097961366177" lon="-8.011187016963959">
        <ele>692.28999999999996</ele>
        <time>2025-05-02T07:37:08Z</time>
      </trkpt>
      <trkpt lat="42.541019003838301" lon="-8.011061036959291">
        <ele>691.80999999999995</ele>
        <time>2025-05-02T07:37:09Z</time>
      </trkpt>
      <trkpt lat="42.540944991633296" lon="-8.010928016155958">
        <ele>691.33000000000004</ele>
        <time>2025-05-02T07:37:10Z</time>
      </trkpt>
      <trkpt lat="42.540030023083091" lon="-8.008917029947043">
        <ele>684.12</ele>
        <time>2025-05-02T07:37:23Z</time>
      </trkpt>
      <trkpt lat="42.539849979802966" lon="-8.008672026917338">
        <ele>683.14999999999998</ele>
        <time>2025-05-02T07:37:25Z</time>
      </trkpt>
      <trkpt lat="42.539747972041368" lon="-8.008560966700316">
        <ele>683.14999999999998</ele>
        <time>2025-05-02T07:37:26Z</time>
      </trkpt>
      <trkpt lat="42.539639007300138" lon="-8.008464993909001">
        <ele>682.66999999999996</ele>
        <time>2025-05-02T07:37:27Z</time>
      </trkpt>
      <trkpt lat="42.538163959980011" lon="-8.007458997890353">
        <ele>676.90999999999997</ele>
        <time>2025-05-02T07:37:38Z</time>
      </trkpt>
      <trkpt lat="42.537157963961363" lon="-8.006991958245635">
        <ele>674.01999999999998</ele>
        <time>2025-05-02T07:37:44Z</time>
      </trkpt>
      <trkpt lat="42.536955960094929" lon="-8.006959017366171">
        <ele>673.53999999999996</ele>
        <time>2025-05-02T07:37:45Z</time>
      </trkpt>
      <trkpt lat="42.536745993420482" lon="-8.00693697296083">
        <ele>672.58000000000004</ele>
        <time>2025-05-02T07:37:46Z</time>
      </trkpt>
      <trkpt lat="42.536538038402796" lon="-8.006972009316087">
        <ele>672.10000000000002</ele>
        <time>2025-05-02T07:37:47Z</time>
      </trkpt>
      <trkpt lat="42.536325976252556" lon="-8.00702297128737">
        <ele>671.62</ele>
        <time>2025-05-02T07:37:48Z</time>
      </trkpt>
      <trkpt lat="42.536115003749728" lon="-8.00708600319922">
        <ele>670.65999999999997</ele>
        <time>2025-05-02T07:37:49Z</time>
      </trkpt>
      <trkpt lat="42.535911994054914" lon="-8.007184993475676">
        <ele>670.17999999999995</ele>
        <time>2025-05-02T07:37:50Z</time>
      </trkpt>
      <trkpt lat="42.535713007673621" lon="-8.007295969873667">
        <ele>669.70000000000005</ele>
        <time>2025-05-02T07:37:51Z</time>
      </trkpt>
      <trkpt lat="42.533787013962865" lon="-8.00841998308897">
        <ele>667.28999999999996</ele>
        <time>2025-05-02T07:38:01Z</time>
      </trkpt>
      <trkpt lat="42.533343024551868" lon="-8.008688958361745">
        <ele>666.33000000000004</ele>
        <time>2025-05-02T07:38:04Z</time>
      </trkpt>
      <trkpt lat="42.533206986263394" lon="-8.008770011365414">
        <ele>665.85000000000002</ele>
        <time>2025-05-02T07:38:05Z</time>
      </trkpt>
      <trkpt lat="42.532040979713202" lon="-8.009422039613128">
        <ele>659.12</ele>
        <time>2025-05-02T07:38:15Z</time>
      </trkpt>
      <trkpt lat="42.530645979568362" lon="-8.009941969066858">
        <ele>652.87</ele>
        <time>2025-05-02T07:38:27Z</time>
      </trkpt>
      <trkpt lat="42.528380015864968" lon="-8.010484026744962">
        <ele>645.17999999999995</ele>
        <time>2025-05-02T07:38:46Z</time>
      </trkpt>
      <trkpt lat="42.52825596369803" lon="-8.010476985946298">
        <ele>644.70000000000005</ele>
        <time>2025-05-02T07:38:47Z</time>
      </trkpt>
      <trkpt lat="42.528136018663645" lon="-8.010469023138285">
        <ele>643.74000000000001</ele>
        <time>2025-05-02T07:38:48Z</time>
      </trkpt>
      <trkpt lat="42.526616966351867" lon="-8.009969964623451">
        <ele>634.61000000000001</ele>
        <time>2025-05-02T07:39:01Z</time>
      </trkpt>
      <trkpt lat="42.525334032252431" lon="-8.009542990475893">
        <ele>622.59000000000003</ele>
        <time>2025-05-02T07:39:18Z</time>
      </trkpt>
      <trkpt lat="42.524370029568672" lon="-8.009403012692928">
        <ele>622.11000000000001</ele>
        <time>2025-05-02T07:39:20Z</time>
      </trkpt>
      <trkpt lat="42.524250000715256" lon="-8.009404018521309">
        <ele>621.63</ele>
        <time>2025-05-02T07:39:21Z</time>
      </trkpt>
      <trkpt lat="42.524135001003742" lon="-8.009411981329322">
        <ele>621.14999999999998</ele>
        <time>2025-05-02T07:39:22Z</time>
      </trkpt>
      <trkpt lat="42.524021007120609" lon="-8.009569980204105">
        <ele>620.66999999999996</ele>
        <time>2025-05-02T07:39:23Z</time>
      </trkpt>
      <trkpt lat="42.523885974660516" lon="-8.009588001295924">
        <ele>620.19000000000005</ele>
        <time>2025-05-02T07:39:24Z</time>
      </trkpt>
      <trkpt lat="42.523773992434144" lon="-8.009467972442508">
        <ele>619.23000000000002</ele>
        <time>2025-05-02T07:39:25Z</time>
      </trkpt>
      <trkpt lat="42.523655975237489" lon="-8.009490016847849">
        <ele>618.75</ele>
        <time>2025-05-02T07:39:26Z</time>
      </trkpt>
      <trkpt lat="42.523535024374723" lon="-8.009512983262539">
        <ele>617.77999999999997</ele>
        <time>2025-05-02T07:39:27Z</time>
      </trkpt>
      <trkpt lat="42.523412983864546" lon="-8.00953502766788">
        <ele>617.29999999999995</ele>
        <time>2025-05-02T07:39:28Z</time>
      </trkpt>
      <trkpt lat="42.523173009976745" lon="-8.009591018781066">
        <ele>615.86000000000001</ele>
        <time>2025-05-02T07:39:30Z</time>
      </trkpt>
      <trkpt lat="42.521710032597184" lon="-8.010185966268182">
        <ele>607.21000000000004</ele>
        <time>2025-05-02T07:39:42Z</time>
      </trkpt>
      <trkpt lat="42.520345039665699" lon="-8.010945031419396">
        <ele>601.91999999999996</ele>
        <time>2025-05-02T07:39:53Z</time>
      </trkpt>
      <trkpt lat="42.520232973620296" lon="-8.011076962575316">
        <ele>601.44000000000005</ele>
        <time>2025-05-02T07:39:54Z</time>
      </trkpt>
      <trkpt lat="42.520115040242672" lon="-8.011216018348932">
        <ele>600.96000000000004</ele>
        <time>2025-05-02T07:39:55Z</time>
      </trkpt>
      <trkpt lat="42.520012026652694" lon="-8.011378962546587">
        <ele>600.48000000000002</ele>
        <time>2025-05-02T07:39:56Z</time>
      </trkpt>
      <trkpt lat="42.519910018891096" lon="-8.011569986119866">
        <ele>600</ele>
        <time>2025-05-02T07:39:57Z</time>
      </trkpt>
      <trkpt lat="42.519829971715808" lon="-8.011781964451075">
        <ele>599.51999999999998</ele>
        <time>2025-05-02T07:39:58Z</time>
      </trkpt>
      <trkpt lat="42.519740033894777" lon="-8.012025961652398">
        <ele>599.03999999999996</ele>
        <time>2025-05-02T07:39:59Z</time>
      </trkpt>
      <trkpt lat="42.519652023911476" lon="-8.012279011309147">
        <ele>598.55999999999995</ele>
        <time>2025-05-02T07:40:00Z</time>
      </trkpt>
      <trkpt lat="42.519578011706471" lon="-8.012553015723825">
        <ele>598.08000000000004</ele>
        <time>2025-05-02T07:40:01Z</time>
      </trkpt>
      <trkpt lat="42.519150031730533" lon="-8.013840978965163">
        <ele>594.23000000000002</ele>
        <time>2025-05-02T07:40:06Z</time>
      </trkpt>
      <trkpt lat="42.519020028412342" lon="-8.014035020023584">
        <ele>593.26999999999998</ele>
        <time>2025-05-02T07:40:07Z</time>
      </trkpt>
      <trkpt lat="42.518869992345572" lon="-8.014183966442943">
        <ele>592.30999999999995</ele>
        <time>2025-05-02T07:40:08Z</time>
      </trkpt>
      <trkpt lat="42.518719034269452" lon="-8.014309024438262">
        <ele>591.35000000000002</ele>
        <time>2025-05-02T07:40:09Z</time>
      </trkpt>
      <trkpt lat="42.51854402013123" lon="-8.014383958652616">
        <ele>589.90999999999997</ele>
        <time>2025-05-02T07:40:10Z</time>
      </trkpt>
      <trkpt lat="42.518363976851106" lon="-8.014458976686001">
        <ele>588.95000000000005</ele>
        <time>2025-05-02T07:40:11Z</time>
      </trkpt>
      <trkpt lat="42.518183011561632" lon="-8.014531983062625">
        <ele>587.5</ele>
        <time>2025-05-02T07:40:12Z</time>
      </trkpt>
      <trkpt lat="42.51798695884645" lon="-8.014575988054276">
        <ele>586.53999999999996</ele>
        <time>2025-05-02T07:40:13Z</time>
      </trkpt>
      <trkpt lat="42.516414010897279" lon="-8.015218963846564">
        <ele>577.40999999999997</ele>
        <time>2025-05-02T07:40:21Z</time>
      </trkpt>
      <trkpt lat="42.514981962740421" lon="-8.016465017572045">
        <ele>568.75999999999999</ele>
        <time>2025-05-02T07:40:29Z</time>
      </trkpt>
      <trkpt lat="42.513410020619631" lon="-8.017737977206707">
        <ele>557.70000000000005</ele>
        <time>2025-05-02T07:40:39Z</time>
      </trkpt>
      <trkpt lat="42.512090960517526" lon="-8.018278023228049">
        <ele>548.57000000000005</ele>
        <time>2025-05-02T07:40:46Z</time>
      </trkpt>
      <trkpt lat="42.509601032361388" lon="-8.018766017630696">
        <ele>533.66999999999996</ele>
        <time>2025-05-02T07:40:57Z</time>
      </trkpt>
      <trkpt lat="42.507186960428953" lon="-8.019187962636352">
        <ele>520.21000000000004</ele>
        <time>2025-05-02T07:41:07Z</time>
      </trkpt>
      <trkpt lat="42.506959978491068" lon="-8.01916197873652">
        <ele>519.25</ele>
        <time>2025-05-02T07:41:08Z</time>
      </trkpt>
      <trkpt lat="42.506742971017957" lon="-8.019129037857056">
        <ele>518.76999999999998</ele>
        <time>2025-05-02T07:41:09Z</time>
      </trkpt>
      <trkpt lat="42.506530992686749" lon="-8.019040022045374">
        <ele>518.28999999999996</ele>
        <time>2025-05-02T07:41:10Z</time>
      </trkpt>
      <trkpt lat="42.506327982991934" lon="-8.018941031768918">
        <ele>518.28999999999996</ele>
        <time>2025-05-02T07:41:11Z</time>
      </trkpt>
      <trkpt lat="42.506138971075416" lon="-8.018784960731864">
        <ele>518.28999999999996</ele>
        <time>2025-05-02T07:41:12Z</time>
      </trkpt>
      <trkpt lat="42.5059549883008" lon="-8.018621010705829">
        <ele>518.28999999999996</ele>
        <time>2025-05-02T07:41:13Z</time>
      </trkpt>
      <trkpt lat="42.505780979990959" lon="-8.018425041809678">
        <ele>519.25</ele>
        <time>2025-05-02T07:41:14Z</time>
      </trkpt>
      <trkpt lat="42.505605965852737" lon="-8.018227983266115">
        <ele>519.73000000000002</ele>
        <time>2025-05-02T07:41:15Z</time>
      </trkpt>
      <trkpt lat="42.504374999552965" lon="-8.016960974782705">
        <ele>519.73000000000002</ele>
        <time>2025-05-02T07:41:22Z</time>
      </trkpt>
      <trkpt lat="42.504163021221757" lon="-8.016863996163011">
        <ele>519.25</ele>
        <time>2025-05-02T07:41:23Z</time>
      </trkpt>
      <trkpt lat="42.503960011526942" lon="-8.016777997836471">
        <ele>519.25</ele>
        <time>2025-05-02T07:41:24Z</time>
      </trkpt>
      <trkpt lat="42.503744009882212" lon="-8.016761988401413">
        <ele>518.76999999999998</ele>
        <time>2025-05-02T07:41:25Z</time>
      </trkpt>
      <trkpt lat="42.503527002409101" lon="-8.016745978966355">
        <ele>518.76999999999998</ele>
        <time>2025-05-02T07:41:26Z</time>
      </trkpt>
      <trkpt lat="42.503320975229144" lon="-8.016764000058174">
        <ele>518.76999999999998</ele>
        <time>2025-05-02T07:41:27Z</time>
      </trkpt>
      <trkpt lat="42.503112014383078" lon="-8.016836000606418">
        <ele>518.76999999999998</ele>
        <time>2025-05-02T07:41:28Z</time>
      </trkpt>
      <trkpt lat="42.50290104188025" lon="-8.016910012811422">
        <ele>519.25</ele>
        <time>2025-05-02T07:41:29Z</time>
      </trkpt>
      <trkpt lat="42.500456040725112" lon="-8.017876027151942">
        <ele>522.61000000000001</ele>
        <time>2025-05-02T07:41:40Z</time>
      </trkpt>
      <trkpt lat="42.498461985960603" lon="-8.018928961828351">
        <ele>528.38</ele>
        <time>2025-05-02T07:41:49Z</time>
      </trkpt>
      <trkpt lat="42.496792981401086" lon="-8.020660998299718">
        <ele>537.02999999999997</ele>
        <time>2025-05-02T07:41:58Z</time>
      </trkpt>
      <trkpt lat="42.496322002261877" lon="-8.021122002974153">
        <ele>539.91999999999996</ele>
        <time>2025-05-02T07:42:01Z</time>
      </trkpt>
      <trkpt lat="42.496169032528996" lon="-8.02120003849268">
        <ele>540.39999999999998</ele>
        <time>2025-05-02T07:42:02Z</time>
      </trkpt>
      <trkpt lat="42.495979014784098" lon="-8.02124303765595">
        <ele>540.39999999999998</ele>
        <time>2025-05-02T07:42:03Z</time>
      </trkpt>
      <trkpt lat="42.495796959847212" lon="-8.021284025162458">
        <ele>540.88</ele>
        <time>2025-05-02T07:42:04Z</time>
      </trkpt>
      <trkpt lat="42.495623035356402" lon="-8.021284025162458">
        <ele>540.88</ele>
        <time>2025-05-02T07:42:05Z</time>
      </trkpt>
      <trkpt lat="42.495442992076278" lon="-8.021227028220892">
        <ele>540.88</ele>
        <time>2025-05-02T07:42:06Z</time>
      </trkpt>
      <trkpt lat="42.495280969887972" lon="-8.021171959117055">
        <ele>541.36000000000001</ele>
        <time>2025-05-02T07:42:07Z</time>
      </trkpt>
      <trkpt lat="42.495144009590149" lon="-8.021058971062303">
        <ele>541.36000000000001</ele>
        <time>2025-05-02T07:42:08Z</time>
      </trkpt>
      <trkpt lat="42.4950170237571" lon="-8.020954029634595">
        <ele>541.84000000000003</ele>
        <time>2025-05-02T07:42:09Z</time>
      </trkpt>
      <trkpt lat="42.494908981025219" lon="-8.020852021872997">
        <ele>541.84000000000003</ele>
        <time>2025-05-02T07:42:10Z</time>
      </trkpt>
      <trkpt lat="42.494829017668962" lon="-8.020715983584523">
        <ele>541.84000000000003</ele>
        <time>2025-05-02T07:42:11Z</time>
      </trkpt>
      <trkpt lat="42.494750982150435" lon="-8.020584974437952">
        <ele>541.84000000000003</ele>
        <time>2025-05-02T07:42:12Z</time>
      </trkpt>
      <trkpt lat="42.49467596411705" lon="-8.020457988604903">
        <ele>541.84000000000003</ele>
        <time>2025-05-02T07:42:13Z</time>
      </trkpt>
      <trkpt lat="42.493726965039968" lon="-8.018754031509161">
        <ele>535.11000000000001</ele>
        <time>2025-05-02T07:42:26Z</time>
      </trkpt>
      <trkpt lat="42.493078960105777" lon="-8.017531028017402">
        <ele>528.86000000000001</ele>
        <time>2025-05-02T07:42:32Z</time>
      </trkpt>
      <trkpt lat="42.492457022890449" lon="-8.015641998499632">
        <ele>521.64999999999998</ele>
        <time>2025-05-02T07:42:39Z</time>
      </trkpt>
      <trkpt lat="42.491980008780956" lon="-8.013570997864008">
        <ele>512.51999999999998</ele>
        <time>2025-05-02T07:42:46Z</time>
      </trkpt>
      <trkpt lat="42.491866014897823" lon="-8.013322977349162">
        <ele>511.07999999999998</ele>
        <time>2025-05-02T07:42:47Z</time>
      </trkpt>
      <trkpt lat="42.491728970780969" lon="-8.013095995411277">
        <ele>509.63999999999999</ele>
        <time>2025-05-02T07:42:48Z</time>
      </trkpt>
      <trkpt lat="42.491565020754933" lon="-8.012891979888082">
        <ele>508.19</ele>
        <time>2025-05-02T07:42:49Z</time>
      </trkpt>
      <trkpt lat="42.491380032151937" lon="-8.012739010155201">
        <ele>506.75</ele>
        <time>2025-05-02T07:42:50Z</time>
      </trkpt>
      <trkpt lat="42.491189008578658" lon="-8.012598026543856">
        <ele>505.79000000000002</ele>
        <time>2025-05-02T07:42:51Z</time>
      </trkpt>
      <trkpt lat="42.49100100249052" lon="-8.012473974376917">
        <ele>504.35000000000002</ele>
        <time>2025-05-02T07:42:52Z</time>
      </trkpt>
      <trkpt lat="42.490787012502551" lon="-8.012399040162563">
        <ele>502.91000000000003</ele>
        <time>2025-05-02T07:42:53Z</time>
      </trkpt>
      <trkpt lat="42.490576039999723" lon="-8.012336008250713">
        <ele>501.45999999999998</ele>
        <time>2025-05-02T07:42:54Z</time>
      </trkpt>
      <trkpt lat="42.490349980071187" lon="-8.012322010472417">
        <ele>500.5</ele>
        <time>2025-05-02T07:42:55Z</time>
      </trkpt>
      <trkpt lat="42.490118974819779" lon="-8.012309018522501">
        <ele>499.06</ele>
        <time>2025-05-02T07:42:56Z</time>
      </trkpt>
      <trkpt lat="42.487297039479017" lon="-8.012218996882439">
        <ele>496.18000000000001</ele>
        <time>2025-05-02T07:43:08Z</time>
      </trkpt>
      <trkpt lat="42.485809000208974" lon="-8.012187983840704">
        <ele>502.43000000000001</ele>
        <time>2025-05-02T07:43:15Z</time>
      </trkpt>
      <trkpt lat="42.484981035813689" lon="-8.012166023254395">
        <ele>507.70999999999998</ele>
        <time>2025-05-02T07:43:21Z</time>
      </trkpt>
      <trkpt lat="42.483402974903584" lon="-8.012108020484448">
        <ele>507.23000000000002</ele>
        <time>2025-05-02T07:43:34Z</time>
      </trkpt>
      <trkpt lat="42.482075029984117" lon="-8.012070972472429">
        <ele>508.67000000000002</ele>
        <time>2025-05-02T07:43:46Z</time>
      </trkpt>
      <trkpt lat="42.480005035176873" lon="-8.011972988024354">
        <ele>513</ele>
        <time>2025-05-02T07:44:02Z</time>
      </trkpt>
      <trkpt lat="42.479867991060019" lon="-8.011944992467761">
        <ele>513.48000000000002</ele>
        <time>2025-05-02T07:44:03Z</time>
      </trkpt>
      <trkpt lat="42.479726001620293" lon="-8.011884978041053">
        <ele>513.48000000000002</ele>
        <time>2025-05-02T07:44:04Z</time>
      </trkpt>
      <trkpt lat="42.479574959725142" lon="-8.011789005249739">
        <ele>513.96000000000004</ele>
        <time>2025-05-02T07:44:05Z</time>
      </trkpt>
      <trkpt lat="42.478288002312183" lon="-8.010831037536264">
        <ele>512.03999999999996</ele>
        <time>2025-05-02T07:44:12Z</time>
      </trkpt>
      <trkpt lat="42.476825024932623" lon="-8.009679028764367">
        <ele>508.19</ele>
        <time>2025-05-02T07:44:20Z</time>
      </trkpt>
      <trkpt lat="42.476681023836136" lon="-8.009520024061203">
        <ele>507.70999999999998</ele>
        <time>2025-05-02T07:44:21Z</time>
      </trkpt>
      <trkpt lat="42.47653903439641" lon="-8.009338974952698">
        <ele>507.23000000000002</ele>
        <time>2025-05-02T07:44:22Z</time>
      </trkpt>
      <trkpt lat="42.476427974179387" lon="-8.009119033813477">
        <ele>506.26999999999998</ele>
        <time>2025-05-02T07:44:23Z</time>
      </trkpt>
      <trkpt lat="42.476311968639493" lon="-8.008888028562069">
        <ele>505.79000000000002</ele>
        <time>2025-05-02T07:44:24Z</time>
      </trkpt>
      <trkpt lat="42.476228987798095" lon="-8.008635984733701">
        <ele>504.82999999999998</ele>
        <time>2025-05-02T07:44:25Z</time>
      </trkpt>
      <trkpt lat="42.476155981421471" lon="-8.008366003632546">
        <ele>503.87</ele>
        <time>2025-05-02T07:44:26Z</time>
      </trkpt>
      <trkpt lat="42.47611197642982" lon="-8.008091999217868">
        <ele>502.91000000000003</ele>
        <time>2025-05-02T07:44:27Z</time>
      </trkpt>
      <trkpt lat="42.476083980873227" lon="-8.007800979539752">
        <ele>501.94999999999999</ele>
        <time>2025-05-02T07:44:28Z</time>
      </trkpt>
      <trkpt lat="42.476054979488254" lon="-8.007501997053623">
        <ele>500.98000000000002</ele>
        <time>2025-05-02T07:44:29Z</time>
      </trkpt>
      <trkpt lat="42.476034024730325" lon="-8.007196979597211">
        <ele>500.01999999999998</ele>
        <time>2025-05-02T07:44:30Z</time>
      </trkpt>
      <trkpt lat="42.475908966735005" lon="-8.004535976797342">
        <ele>490.41000000000003</ele>
        <time>2025-05-02T07:44:39Z</time>
      </trkpt>
      <trkpt lat="42.475635968148708" lon="-8.002217961475253">
        <ele>483.19999999999999</ele>
        <time>2025-05-02T07:44:48Z</time>
      </trkpt>
      <trkpt lat="42.475547036156058" lon="-8.001989973708987">
        <ele>483.19999999999999</ele>
        <time>2025-05-02T07:44:49Z</time>
      </trkpt>
      <trkpt lat="42.475459026172757" lon="-8.001761985942721">
        <ele>483.19999999999999</ele>
        <time>2025-05-02T07:44:50Z</time>
      </trkpt>
      <trkpt lat="42.475344026461244" lon="-8.00156400538981">
        <ele>483.19999999999999</ele>
        <time>2025-05-02T07:44:51Z</time>
      </trkpt>
      <trkpt lat="42.475209999829531" lon="-8.001385973766446">
        <ele>483.68000000000001</ele>
        <time>2025-05-02T07:44:52Z</time>
      </trkpt>
      <trkpt lat="42.475067004561424" lon="-8.001219006255269">
        <ele>483.68000000000001</ele>
        <time>2025-05-02T07:44:53Z</time>
      </trkpt>
      <trkpt lat="42.474912023171782" lon="-8.001075005158782">
        <ele>484.16000000000003</ele>
        <time>2025-05-02T07:44:54Z</time>
      </trkpt>
      <trkpt lat="42.474751006811857" lon="-8.000937961041927">
        <ele>484.63999999999999</ele>
        <time>2025-05-02T07:44:55Z</time>
      </trkpt>
      <trkpt lat="42.472493005916476" lon="-7.9989879950881">
        <ele>494.25999999999999</ele>
        <time>2025-05-02T07:45:09Z</time>
      </trkpt>
      <trkpt lat="42.471047965809703" lon="-7.997621996328235">
        <ele>502.43000000000001</ele>
        <time>2025-05-02T07:45:18Z</time>
      </trkpt>
      <trkpt lat="42.47091100551188" lon="-7.997453017160296">
        <ele>503.38999999999999</ele>
        <time>2025-05-02T07:45:19Z</time>
      </trkpt>
      <trkpt lat="42.470794999971986" lon="-7.997259981930256">
        <ele>504.35000000000002</ele>
        <time>2025-05-02T07:45:20Z</time>
      </trkpt>
      <trkpt lat="42.470690980553627" lon="-7.997063007205725">
        <ele>504.82999999999998</ele>
        <time>2025-05-02T07:45:21Z</time>
      </trkpt>
      <trkpt lat="42.470602970570326" lon="-7.99685999751091">
        <ele>505.31</ele>
        <time>2025-05-02T07:45:22Z</time>
      </trkpt>
      <trkpt lat="42.470526024699211" lon="-7.996664028614759">
        <ele>505.31</ele>
        <time>2025-05-02T07:45:23Z</time>
      </trkpt>
      <trkpt lat="42.470452012494206" lon="-7.996467975899577">
        <ele>505.79000000000002</ele>
        <time>2025-05-02T07:45:24Z</time>
      </trkpt>
      <trkpt lat="42.469914983958006" lon="-7.994693024083972">
        <ele>509.63999999999999</ele>
        <time>2025-05-02T07:45:34Z</time>
      </trkpt>
      <trkpt lat="42.469201013445854" lon="-7.992401998490095">
        <ele>506.75</ele>
        <time>2025-05-02T07:45:47Z</time>
      </trkpt>
      <trkpt lat="42.468390986323357" lon="-7.989736972376704">
        <ele>502.43000000000001</ele>
        <time>2025-05-02T07:46:01Z</time>
      </trkpt>
      <trkpt lat="42.468024026602507" lon="-7.98854598775506">
        <ele>501.94999999999999</ele>
        <time>2025-05-02T07:46:09Z</time>
      </trkpt>
      <trkpt lat="42.467994019389153" lon="-7.988440040498972">
        <ele>501.94999999999999</ele>
        <time>2025-05-02T07:46:10Z</time>
      </trkpt>
      <trkpt lat="42.467954959720373" lon="-7.988301990553737">
        <ele>501.94999999999999</ele>
        <time>2025-05-02T07:46:12Z</time>
      </trkpt>
      <trkpt lat="42.467853035777807" lon="-7.987959003075957">
        <ele>500.01999999999998</ele>
        <time>2025-05-02T07:46:21Z</time>
      </trkpt>
      <trkpt lat="42.467853035777807" lon="-7.987959003075957">
        <ele>499.06</ele>
        <time>2025-05-02T07:46:33Z</time>
      </trkpt>
      <trkpt lat="42.467853035777807" lon="-7.987959003075957">
        <ele>498.10000000000002</ele>
        <time>2025-05-02T07:46:53Z</time>
      </trkpt>
      <trkpt lat="42.467600991949439" lon="-7.987717017531395">
        <ele>510.60000000000002</ele>
        <time>2025-05-02T07:54:25Z</time>
      </trkpt>
      <trkpt lat="42.467611972242594" lon="-7.98768600448966">
        <ele>513</ele>
        <time>2025-05-02T07:54:51Z</time>
      </trkpt>
      <trkpt lat="42.467672992497683" lon="-7.987424992024899">
        <ele>512.51999999999998</ele>
        <time>2025-05-02T07:54:53Z</time>
      </trkpt>
      <trkpt lat="42.467737030237913" lon="-7.987604029476643">
        <ele>512.03999999999996</ele>
        <time>2025-05-02T07:54:54Z</time>
      </trkpt>
      <trkpt lat="42.467726971954107" lon="-7.987575028091669">
        <ele>512.03999999999996</ele>
        <time>2025-05-02T07:54:55Z</time>
      </trkpt>
      <trkpt lat="42.467705011367798" lon="-7.987515013664961">
        <ele>511.56</ele>
        <time>2025-05-02T07:54:56Z</time>
      </trkpt>
      <trkpt lat="42.467672992497683" lon="-7.987424992024899">
        <ele>511.07999999999998</ele>
        <time>2025-05-02T07:54:57Z</time>
      </trkpt>
      <trkpt lat="42.46764600276947" lon="-7.987326001748443">
        <ele>510.60000000000002</ele>
        <time>2025-05-02T07:54:58Z</time>
      </trkpt>
      <trkpt lat="42.46728097088635" lon="-7.986154966056347">
        <ele>509.63999999999999</ele>
        <time>2025-05-02T07:55:06Z</time>
      </trkpt>
      <trkpt lat="42.466732962056994" lon="-7.984414966776967">
        <ele>513.48000000000002</ele>
        <time>2025-05-02T07:55:16Z</time>
      </trkpt>
      <trkpt lat="42.466039024293423" lon="-7.982060993090272">
        <ele>515.39999999999998</ele>
        <time>2025-05-02T07:55:29Z</time>
      </trkpt>
      <trkpt lat="42.465418009087443" lon="-7.980045983567834">
        <ele>512.03999999999996</ele>
        <time>2025-05-02T07:55:39Z</time>
      </trkpt>
      <trkpt lat="42.464568000286818" lon="-7.977295964956284">
        <ele>501.94999999999999</ele>
        <time>2025-05-02T07:55:53Z</time>
      </trkpt>
      <trkpt lat="42.464000964537263" lon="-7.975384974852204">
        <ele>499.06</ele>
        <time>2025-05-02T07:56:03Z</time>
      </trkpt>
      <trkpt lat="42.463252963498235" lon="-7.972943997010589">
        <ele>501.45999999999998</ele>
        <time>2025-05-02T07:56:17Z</time>
      </trkpt>
      <trkpt lat="42.462455006316304" lon="-7.970340996980667">
        <ele>500.98000000000002</ele>
        <time>2025-05-02T07:56:31Z</time>
      </trkpt>
      <trkpt lat="42.461820999160409" lon="-7.96821903437376">
        <ele>497.13999999999999</ele>
        <time>2025-05-02T07:56:39Z</time>
      </trkpt>
      <trkpt lat="42.460891027003527" lon="-7.965188976377249">
        <ele>492.81</ele>
        <time>2025-05-02T07:56:49Z</time>
      </trkpt>
      <trkpt lat="42.459636004641652" lon="-7.961154012009502">
        <ele>479.35000000000002</ele>
        <time>2025-05-02T07:57:03Z</time>
      </trkpt>
      <trkpt lat="42.458616010844707" lon="-7.957831006497145">
        <ele>475.50999999999999</ele>
        <time>2025-05-02T07:57:15Z</time>
      </trkpt>
      <trkpt lat="42.457888964563608" lon="-7.954808995127678">
        <ele>482.72000000000003</ele>
        <time>2025-05-02T07:57:26Z</time>
      </trkpt>
      <trkpt lat="42.457781005650759" lon="-7.953518014401197">
        <ele>485.60000000000002</ele>
        <time>2025-05-02T07:57:32Z</time>
      </trkpt>
      <trkpt lat="42.457672040909529" lon="-7.951489007100463">
        <ele>487.52999999999997</ele>
        <time>2025-05-02T07:57:44Z</time>
      </trkpt>
      <trkpt lat="42.457519993185997" lon="-7.948910985141993">
        <ele>487.52999999999997</ele>
        <time>2025-05-02T07:57:59Z</time>
      </trkpt>
      <trkpt lat="42.457393007352948" lon="-7.946707969531417">
        <ele>485.12</ele>
        <time>2025-05-02T07:58:10Z</time>
      </trkpt>
      <trkpt lat="42.457255041226745" lon="-7.944004973396659">
        <ele>480.80000000000001</ele>
        <time>2025-05-02T07:58:21Z</time>
      </trkpt>
      <trkpt lat="42.457115985453129" lon="-7.94123400002718">
        <ele>473.58999999999997</ele>
        <time>2025-05-02T07:58:32Z</time>
      </trkpt>
      <trkpt lat="42.457002997398376" lon="-7.939181020483375">
        <ele>467.33999999999997</ele>
        <time>2025-05-02T07:58:40Z</time>
      </trkpt>
      <trkpt lat="42.456991011276841" lon="-7.938925037160516">
        <ele>466.86000000000001</ele>
        <time>2025-05-02T07:58:41Z</time>
      </trkpt>
      <trkpt lat="42.456906018778682" lon="-7.937047993764281">
        <ele>464.44999999999999</ele>
        <time>2025-05-02T07:58:48Z</time>
      </trkpt>
      <trkpt lat="42.456792024895549" lon="-7.935086041688919">
        <ele>461.08999999999997</ele>
        <time>2025-05-02T07:58:57Z</time>
      </trkpt>
      <trkpt lat="42.456717006862164" lon="-7.933423994109035">
        <ele>455.80000000000001</ele>
        <time>2025-05-02T07:59:07Z</time>
      </trkpt>
      <trkpt lat="42.45653604157269" lon="-7.93178197927773">
        <ele>449.55000000000001</ele>
        <time>2025-05-02T07:59:17Z</time>
      </trkpt>
      <trkpt lat="42.45608601719141" lon="-7.930240966379643">
        <ele>442.81999999999999</ele>
        <time>2025-05-02T07:59:27Z</time>
      </trkpt>
      <trkpt lat="42.455371962860227" lon="-7.928643962368369">
        <ele>437.54000000000002</ele>
        <time>2025-05-02T07:59:37Z</time>
      </trkpt>
      <trkpt lat="42.454506028443575" lon="-7.9271399974823">
        <ele>431.29000000000002</ele>
        <time>2025-05-02T07:59:44Z</time>
      </trkpt>
      <trkpt lat="42.454322967678308" lon="-7.926970012485981">
        <ele>430.32999999999998</ele>
        <time>2025-05-02T07:59:45Z</time>
      </trkpt>
      <trkpt lat="42.454123981297016" lon="-7.926831962540746">
        <ele>429.37</ele>
        <time>2025-05-02T07:59:46Z</time>
      </trkpt>
      <trkpt lat="42.453910997137427" lon="-7.926703970879316">
        <ele>428.88999999999999</ele>
        <time>2025-05-02T07:59:47Z</time>
      </trkpt>
      <trkpt lat="42.453697007149458" lon="-7.92658201418817">
        <ele>427.44</ele>
        <time>2025-05-02T07:59:48Z</time>
      </trkpt>
      <trkpt lat="42.45346499606967" lon="-7.92651797644794">
        <ele>426.48000000000002</ele>
        <time>2025-05-02T07:59:49Z</time>
      </trkpt>
      <trkpt lat="42.453225022181869" lon="-7.926467014476657">
        <ele>425.51999999999998</ele>
        <time>2025-05-02T07:59:50Z</time>
      </trkpt>
      <trkpt lat="42.452982030808926" lon="-7.926463996991515">
        <ele>424.56</ele>
        <time>2025-05-02T07:59:51Z</time>
      </trkpt>
      <trkpt lat="42.452736021950841" lon="-7.926463996991515">
        <ele>423.12</ele>
        <time>2025-05-02T07:59:52Z</time>
      </trkpt>
      <trkpt lat="42.452493030577898" lon="-7.926463996991515">
        <ele>422.16000000000003</ele>
        <time>2025-05-02T07:59:53Z</time>
      </trkpt>
      <trkpt lat="42.452250961214304" lon="-7.926475983113051">
        <ele>421.19</ele>
        <time>2025-05-02T07:59:54Z</time>
      </trkpt>
      <trkpt lat="42.450119024142623" lon="-7.926571033895016">
        <ele>413.5</ele>
        <time>2025-05-02T08:00:03Z</time>
      </trkpt>
      <trkpt lat="42.449431959539652" lon="-7.92645301669836">
        <ele>413.01999999999998</ele>
        <time>2025-05-02T08:00:06Z</time>
      </trkpt>
      <trkpt lat="42.449204977601767" lon="-7.926375987008214">
        <ele>413.01999999999998</ele>
        <time>2025-05-02T08:00:07Z</time>
      </trkpt>
      <trkpt lat="42.44899501092732" lon="-7.926236009225249">
        <ele>413.5</ele>
        <time>2025-05-02T08:00:08Z</time>
      </trkpt>
      <trkpt lat="42.448790995404124" lon="-7.926098965108395">
        <ele>413.5</ele>
        <time>2025-05-02T08:00:09Z</time>
      </trkpt>
      <trkpt lat="42.448607012629509" lon="-7.925895033404231">
        <ele>414.47000000000003</ele>
        <time>2025-05-02T08:00:10Z</time>
      </trkpt>
      <trkpt lat="42.448429986834526" lon="-7.925718007609248">
        <ele>414.94999999999999</ele>
        <time>2025-05-02T08:00:11Z</time>
      </trkpt>
      <trkpt lat="42.448276011273265" lon="-7.925522960722446">
        <ele>415.43000000000001</ele>
        <time>2025-05-02T08:00:12Z</time>
      </trkpt>
      <trkpt lat="42.448143996298313" lon="-7.925326991826296">
        <ele>416.38999999999999</ele>
        <time>2025-05-02T08:00:13Z</time>
      </trkpt>
      <trkpt lat="42.448021033778787" lon="-7.925145020708442">
        <ele>417.35000000000002</ele>
        <time>2025-05-02T08:00:14Z</time>
      </trkpt>
      <trkpt lat="42.447486016899347" lon="-7.924332981929183">
        <ele>422.16000000000003</ele>
        <time>2025-05-02T08:00:20Z</time>
      </trkpt>
      <trkpt lat="42.446443978697062" lon="-7.922695996239781">
        <ele>431.76999999999998</ele>
        <time>2025-05-02T08:00:33Z</time>
      </trkpt>
      <trkpt lat="42.445069011300802" lon="-7.920551989227533">
        <ele>440.89999999999998</ele>
        <time>2025-05-02T08:00:50Z</time>
      </trkpt>
      <trkpt lat="42.44368901476264" lon="-7.918415023013949">
        <ele>448.58999999999997</ele>
        <time>2025-05-02T08:01:07Z</time>
      </trkpt>
      <trkpt lat="42.442769017070532" lon="-7.916984986513853">
        <ele>451.48000000000002</ele>
        <time>2025-05-02T08:01:17Z</time>
      </trkpt>
      <trkpt lat="42.441771989688277" lon="-7.915463000535965">
        <ele>451</ele>
        <time>2025-05-02T08:01:24Z</time>
      </trkpt>
      <trkpt lat="42.439936017617583" lon="-7.912760004401207">
        <ele>448.58999999999997</ele>
        <time>2025-05-02T08:01:35Z</time>
      </trkpt>
      <trkpt lat="42.438680995255709" lon="-7.911825003102422">
        <ele>447.14999999999998</ele>
        <time>2025-05-02T08:01:41Z</time>
      </trkpt>
      <trkpt lat="42.436219984665513" lon="-7.910413993522525">
        <ele>448.58999999999997</ele>
        <time>2025-05-02T08:01:53Z</time>
      </trkpt>
      <trkpt lat="42.435188004747033" lon="-7.909830026328564">
        <ele>451.48000000000002</ele>
        <time>2025-05-02T08:02:01Z</time>
      </trkpt>
      <trkpt lat="42.433845978230238" lon="-7.909037014469504">
        <ele>457.24000000000001</ele>
        <time>2025-05-02T08:02:13Z</time>
      </trkpt>
      <trkpt lat="42.431906992569566" lon="-7.907938985154033">
        <ele>460.13</ele>
        <time>2025-05-02T08:02:30Z</time>
      </trkpt>
      <trkpt lat="42.430616011843085" lon="-7.907190984115005">
        <ele>459.64999999999998</ele>
        <time>2025-05-02T08:02:39Z</time>
      </trkpt>
      <trkpt lat="42.428833013400435" lon="-7.906160010024905">
        <ele>458.69</ele>
        <time>2025-05-02T08:02:49Z</time>
      </trkpt>
      <trkpt lat="42.427738001570106" lon="-7.905520973727107">
        <ele>457.24000000000001</ele>
        <time>2025-05-02T08:02:58Z</time>
      </trkpt>
      <trkpt lat="42.42676000110805" lon="-7.904868023470044">
        <ele>456.27999999999997</ele>
        <time>2025-05-02T08:03:07Z</time>
      </trkpt>
      <trkpt lat="42.426666039973497" lon="-7.904759980738163">
        <ele>455.80000000000001</ele>
        <time>2025-05-02T08:03:08Z</time>
      </trkpt>
      <trkpt lat="42.426571995019913" lon="-7.904651015996933">
        <ele>454.83999999999997</ele>
        <time>2025-05-02T08:03:09Z</time>
      </trkpt>
      <trkpt lat="42.426484990864992" lon="-7.9045370221138">
        <ele>454.36000000000001</ele>
        <time>2025-05-02T08:03:10Z</time>
      </trkpt>
      <trkpt lat="42.426411984488368" lon="-7.904402995482087">
        <ele>453.88</ele>
        <time>2025-05-02T08:03:11Z</time>
      </trkpt>
      <trkpt lat="42.426337972283363" lon="-7.904267963021994">
        <ele>453.39999999999998</ele>
        <time>2025-05-02T08:03:12Z</time>
      </trkpt>
      <trkpt lat="42.426269995048642" lon="-7.904134020209312">
        <ele>452.92000000000002</ele>
        <time>2025-05-02T08:03:13Z</time>
      </trkpt>
      <trkpt lat="42.42622003890574" lon="-7.903983984142542">
        <ele>452.44</ele>
        <time>2025-05-02T08:03:14Z</time>
      </trkpt>
      <trkpt lat="42.426168993115425" lon="-7.903832020238042">
        <ele>451.95999999999998</ele>
        <time>2025-05-02T08:03:15Z</time>
      </trkpt>
      <trkpt lat="42.425712011754513" lon="-7.901755990460515">
        <ele>443.79000000000002</ele>
        <time>2025-05-02T08:03:28Z</time>
      </trkpt>
      <trkpt lat="42.425408000126481" lon="-7.900243978947401">
        <ele>438.01999999999998</ele>
        <time>2025-05-02T08:03:36Z</time>
      </trkpt>
      <trkpt lat="42.424767035990953" lon="-7.897071009501815">
        <ele>427.92000000000002</ele>
        <time>2025-05-02T08:03:48Z</time>
      </trkpt>
      <trkpt lat="42.424389012157917" lon="-7.89519396610558">
        <ele>422.16000000000003</ele>
        <time>2025-05-02T08:03:55Z</time>
      </trkpt>
      <trkpt lat="42.423808984458447" lon="-7.892448976635933">
        <ele>414.47000000000003</ele>
        <time>2025-05-02T08:04:06Z</time>
      </trkpt>
      <trkpt lat="42.423163997009397" lon="-7.889420008286834">
        <ele>411.57999999999998</ele>
        <time>2025-05-02T08:04:18Z</time>
      </trkpt>
      <trkpt lat="42.422711960971355" lon="-7.887382032349706">
        <ele>413.5</ele>
        <time>2025-05-02T08:04:26Z</time>
      </trkpt>
      <trkpt lat="42.422234024852514" lon="-7.885012971237302">
        <ele>415.91000000000003</ele>
        <time>2025-05-02T08:04:35Z</time>
      </trkpt>
      <trkpt lat="42.421529022976756" lon="-7.88167797960341">
        <ele>424.07999999999998</ele>
        <time>2025-05-02T08:04:47Z</time>
      </trkpt>
      <trkpt lat="42.421396002173424" lon="-7.881117984652519">
        <ele>425.51999999999998</ele>
        <time>2025-05-02T08:04:49Z</time>
      </trkpt>
      <trkpt lat="42.421336993575096" lon="-7.880827970802784">
        <ele>426.95999999999998</ele>
        <time>2025-05-02T08:04:50Z</time>
      </trkpt>
      <trkpt lat="42.421101965010166" lon="-7.879726001992822">
        <ele>430.32999999999998</ele>
        <time>2025-05-02T08:04:54Z</time>
      </trkpt>
      <trkpt lat="42.421013033017516" lon="-7.879459960386157">
        <ele>431.29000000000002</ele>
        <time>2025-05-02T08:04:55Z</time>
      </trkpt>
      <trkpt lat="42.42091303691268" lon="-7.879201965406537">
        <ele>432.25</ele>
        <time>2025-05-02T08:04:56Z</time>
      </trkpt>
      <trkpt lat="42.420795019716024" lon="-7.878953022882342">
        <ele>433.20999999999998</ele>
        <time>2025-05-02T08:04:57Z</time>
      </trkpt>
      <trkpt lat="42.420663004741073" lon="-7.878720005974174">
        <ele>434.17000000000002</ele>
        <time>2025-05-02T08:04:58Z</time>
      </trkpt>
      <trkpt lat="42.420522021129727" lon="-7.878495035693049">
        <ele>434.64999999999998</ele>
        <time>2025-05-02T08:04:59Z</time>
      </trkpt>
      <trkpt lat="42.418535007163882" lon="-7.87583596073091">
        <ele>448.58999999999997</ele>
        <time>2025-05-02T08:05:12Z</time>
      </trkpt>
      <trkpt lat="42.417806033045053" lon="-7.874880004674196">
        <ele>456.27999999999997</ele>
        <time>2025-05-02T08:05:19Z</time>
      </trkpt>
      <trkpt lat="42.416798025369644" lon="-7.873499002307653">
        <ele>464.93000000000001</ele>
        <time>2025-05-02T08:05:31Z</time>
      </trkpt>
      <trkpt lat="42.41556697525084" lon="-7.871849024668336">
        <ele>467.33999999999997</ele>
        <time>2025-05-02T08:05:45Z</time>
      </trkpt>
      <trkpt lat="42.414335003122687" lon="-7.870215978473425">
        <ele>467.33999999999997</ele>
        <time>2025-05-02T08:05:59Z</time>
      </trkpt>
      <trkpt lat="42.413038993254304" lon="-7.868445971980691">
        <ele>462.52999999999997</ele>
        <time>2025-05-02T08:06:13Z</time>
      </trkpt>
      <trkpt lat="42.411586996167898" lon="-7.866524001583457">
        <ele>454.36000000000001</ele>
        <time>2025-05-02T08:06:27Z</time>
      </trkpt>
      <trkpt lat="42.410505982115865" lon="-7.86509295925498">
        <ele>447.63</ele>
        <time>2025-05-02T08:06:40Z</time>
      </trkpt>
      <trkpt lat="42.40963401272893" lon="-7.863905997946858">
        <ele>443.79000000000002</ele>
        <time>2025-05-02T08:06:50Z</time>
      </trkpt>
      <trkpt lat="42.408383013680577" lon="-7.862247973680496">
        <ele>438.01999999999998</ele>
        <time>2025-05-02T08:06:59Z</time>
      </trkpt>
      <trkpt lat="42.406061980873346" lon="-7.859263010323048">
        <ele>427.44</ele>
        <time>2025-05-02T08:07:14Z</time>
      </trkpt>
      <trkpt lat="42.405867017805576" lon="-7.859145998954773">
        <ele>426.95999999999998</ele>
        <time>2025-05-02T08:07:15Z</time>
      </trkpt>
      <trkpt lat="42.405670965090394" lon="-7.859028987586498">
        <ele>426.48000000000002</ele>
        <time>2025-05-02T08:07:16Z</time>
      </trkpt>
      <trkpt lat="42.40546602755785" lon="-7.858941983431578">
        <ele>425.51999999999998</ele>
        <time>2025-05-02T08:07:17Z</time>
      </trkpt>
      <trkpt lat="42.405256982892752" lon="-7.85886000841856">
        <ele>424.56</ele>
        <time>2025-05-02T08:07:18Z</time>
      </trkpt>
      <trkpt lat="42.405037963762879" lon="-7.858830001205206">
        <ele>423.60000000000002</ele>
        <time>2025-05-02T08:07:19Z</time>
      </trkpt>
      <trkpt lat="42.404818022623658" lon="-7.858807034790516">
        <ele>422.63999999999999</ele>
        <time>2025-05-02T08:07:20Z</time>
      </trkpt>
      <trkpt lat="42.404595986008644" lon="-7.858788007870317">
        <ele>421.19</ele>
        <time>2025-05-02T08:07:21Z</time>
      </trkpt>
      <trkpt lat="42.402681978419423" lon="-7.858840981498361">
        <ele>413.01999999999998</ele>
        <time>2025-05-02T08:07:30Z</time>
      </trkpt>
      <trkpt lat="42.4009770154953" lon="-7.858848022297025">
        <ele>403.88999999999999</ele>
        <time>2025-05-02T08:07:40Z</time>
      </trkpt>
      <trkpt lat="42.400807030498981" lon="-7.858824972063303">
        <ele>402.44999999999999</ele>
        <time>2025-05-02T08:07:41Z</time>
      </trkpt>
      <trkpt lat="42.400628998875618" lon="-7.858778033405542">
        <ele>401.49000000000001</ele>
        <time>2025-05-02T08:07:42Z</time>
      </trkpt>
      <trkpt lat="42.400465970858932" lon="-7.85866697318852">
        <ele>400.52999999999997</ele>
        <time>2025-05-02T08:07:43Z</time>
      </trkpt>
      <trkpt lat="42.400315012782812" lon="-7.858540993183851">
        <ele>399.07999999999998</ele>
        <time>2025-05-02T08:07:44Z</time>
      </trkpt>
      <trkpt lat="42.400175034999847" lon="-7.858390035107732">
        <ele>398.12</ele>
        <time>2025-05-02T08:07:45Z</time>
      </trkpt>
      <trkpt lat="42.400038996711373" lon="-7.858229018747807">
        <ele>397.16000000000003</ele>
        <time>2025-05-02T08:07:46Z</time>
      </trkpt>
      <trkpt lat="42.399915028363466" lon="-7.858047969639301">
        <ele>395.72000000000003</ele>
        <time>2025-05-02T08:07:47Z</time>
      </trkpt>
      <trkpt lat="42.399785025045276" lon="-7.857859041541815">
        <ele>394.75999999999999</ele>
        <time>2025-05-02T08:07:48Z</time>
      </trkpt>
      <trkpt lat="42.39837896078825" lon="-7.855695001780987">
        <ele>382.25999999999999</ele>
        <time>2025-05-02T08:08:00Z</time>
      </trkpt>
      <trkpt lat="42.397268023341894" lon="-7.853947039693594">
        <ele>376.00999999999999</ele>
        <time>2025-05-02T08:08:11Z</time>
      </trkpt>
      <trkpt lat="42.396767036989331" lon="-7.852965015918016">
        <ele>376.49000000000001</ele>
        <time>2025-05-02T08:08:17Z</time>
      </trkpt>
      <trkpt lat="42.396708028391004" lon="-7.85277902148664">
        <ele>376.97000000000003</ele>
        <time>2025-05-02T08:08:18Z</time>
      </trkpt>
      <trkpt lat="42.39622900262475" lon="-7.850697040557861">
        <ele>377.94</ele>
        <time>2025-05-02T08:08:28Z</time>
      </trkpt>
      <trkpt lat="42.396048037335277" lon="-7.85031097009778">
        <ele>376.49000000000001</ele>
        <time>2025-05-02T08:08:30Z</time>
      </trkpt>
      <trkpt lat="42.39590797573328" lon="-7.850134028121829">
        <ele>376.00999999999999</ele>
        <time>2025-05-02T08:08:31Z</time>
      </trkpt>
      <trkpt lat="42.395779984071851" lon="-7.849971000105143">
        <ele>375.52999999999997</ele>
        <time>2025-05-02T08:08:32Z</time>
      </trkpt>
      <trkpt lat="42.395635982975364" lon="-7.849830016493797">
        <ele>375.05000000000001</ele>
        <time>2025-05-02T08:08:33Z</time>
      </trkpt>
      <trkpt lat="42.395479995757341" lon="-7.849703030660749">
        <ele>374.08999999999997</ele>
        <time>2025-05-02T08:08:34Z</time>
      </trkpt>
      <trkpt lat="42.395314034074545" lon="-7.849601022899151">
        <ele>373.13</ele>
        <time>2025-05-02T08:08:35Z</time>
      </trkpt>
      <trkpt lat="42.395139019936323" lon="-7.849544025957584">
        <ele>372.17000000000002</ele>
        <time>2025-05-02T08:08:36Z</time>
      </trkpt>
      <trkpt lat="42.39496098831296" lon="-7.84949398599565">
        <ele>371.69</ele>
        <time>2025-05-02T08:08:37Z</time>
      </trkpt>
      <trkpt lat="42.394779017195106" lon="-7.849468002095819">
        <ele>370.73000000000002</ele>
        <time>2025-05-02T08:08:38Z</time>
      </trkpt>
      <trkpt lat="42.39459503442049" lon="-7.849459033459425">
        <ele>370.24000000000001</ele>
        <time>2025-05-02T08:08:39Z</time>
      </trkpt>
      <trkpt lat="42.394407028332353" lon="-7.849474959075451">
        <ele>369.27999999999997</ele>
        <time>2025-05-02T08:08:40Z</time>
      </trkpt>
      <trkpt lat="42.394227990880609" lon="-7.849529022350907">
        <ele>368.31999999999999</ele>
        <time>2025-05-02T08:08:41Z</time>
      </trkpt>
      <trkpt lat="42.394041996449232" lon="-7.849587025120854">
        <ele>367.36000000000001</ele>
        <time>2025-05-02T08:08:42Z</time>
      </trkpt>
      <trkpt lat="42.392845982685685" lon="-7.850140985101461">
        <ele>361.11000000000001</ele>
        <time>2025-05-02T08:08:49Z</time>
      </trkpt>
      <trkpt lat="42.392667029052973" lon="-7.850199993699789">
        <ele>360.63</ele>
        <time>2025-05-02T08:08:50Z</time>
      </trkpt>
      <trkpt lat="42.392488997429609" lon="-7.850217008963227">
        <ele>359.67000000000002</ele>
        <time>2025-05-02T08:08:51Z</time>
      </trkpt>
      <trkpt lat="42.392307026311755" lon="-7.85020099952817">
        <ele>358.70999999999998</ele>
        <time>2025-05-02T08:08:52Z</time>
      </trkpt>
      <trkpt lat="42.392124971374869" lon="-7.850185995921493">
        <ele>358.23000000000002</ele>
        <time>2025-05-02T08:08:53Z</time>
      </trkpt>
      <trkpt lat="42.391941994428635" lon="-7.850170992314816">
        <ele>357.26999999999998</ele>
        <time>2025-05-02T08:08:54Z</time>
      </trkpt>
      <trkpt lat="42.390694012865424" lon="-7.849919032305479">
        <ele>350.54000000000002</ele>
        <time>2025-05-02T08:09:01Z</time>
      </trkpt>
      <trkpt lat="42.390524027869105" lon="-7.84983797930181">
        <ele>349.57999999999998</ele>
        <time>2025-05-02T08:09:02Z</time>
      </trkpt>
      <trkpt lat="42.390365023165941" lon="-7.849727002903819">
        <ele>348.62</ele>
        <time>2025-05-02T08:09:03Z</time>
      </trkpt>
      <trkpt lat="42.390223033726215" lon="-7.849567998200655">
        <ele>347.64999999999998</ele>
        <time>2025-05-02T08:09:04Z</time>
      </trkpt>
      <trkpt lat="42.390088001266122" lon="-7.849402036517859">
        <ele>346.69</ele>
        <time>2025-05-02T08:09:05Z</time>
      </trkpt>
      <trkpt lat="42.389952968806028" lon="-7.849236996844411">
        <ele>345.73000000000002</ele>
        <time>2025-05-02T08:09:06Z</time>
      </trkpt>
      <trkpt lat="42.389836041256785" lon="-7.849045973271132">
        <ele>344.76999999999998</ele>
        <time>2025-05-02T08:09:07Z</time>
      </trkpt>
      <trkpt lat="42.389444019645452" lon="-7.84856703132391">
        <ele>341.41000000000003</ele>
        <time>2025-05-02T08:09:10Z</time>
      </trkpt>
      <trkpt lat="42.389305969700217" lon="-7.848423030227423">
        <ele>339.95999999999998</ele>
        <time>2025-05-02T08:09:11Z</time>
      </trkpt>
      <trkpt lat="42.38918099552393" lon="-7.848294032737613">
        <ele>339</ele>
        <time>2025-05-02T08:09:12Z</time>
      </trkpt>
      <trkpt lat="42.388995001092553" lon="-7.848235024139285">
        <ele>337.56</ele>
        <time>2025-05-02T08:09:13Z</time>
      </trkpt>
      <trkpt lat="42.388824010267854" lon="-7.848180960863829">
        <ele>336.60000000000002</ele>
        <time>2025-05-02T08:09:14Z</time>
      </trkpt>
      <trkpt lat="42.388655031099916" lon="-7.848186995834112">
        <ele>335.16000000000003</ele>
        <time>2025-05-02T08:09:15Z</time>
      </trkpt>
      <trkpt lat="42.388480016961694" lon="-7.848220020532608">
        <ele>334.19999999999999</ele>
        <time>2025-05-02T08:09:16Z</time>
      </trkpt>
      <trkpt lat="42.38832101225853" lon="-7.848309958353639">
        <ele>332.75</ele>
        <time>2025-05-02T08:09:17Z</time>
      </trkpt>
      <trkpt lat="42.388163013383746" lon="-7.848425963893533">
        <ele>331.79000000000002</ele>
        <time>2025-05-02T08:09:18Z</time>
      </trkpt>
      <trkpt lat="42.38800099119544" lon="-7.848615981638432">
        <ele>330.35000000000002</ele>
        <time>2025-05-02T08:09:19Z</time>
      </trkpt>
      <trkpt lat="42.387903006747365" lon="-7.848771968856454">
        <ele>329.38999999999999</ele>
        <time>2025-05-02T08:09:20Z</time>
      </trkpt>
      <trkpt lat="42.387781972065568" lon="-7.848970033228397">
        <ele>327.94999999999999</ele>
        <time>2025-05-02T08:09:21Z</time>
      </trkpt>
      <trkpt lat="42.387687005102634" lon="-7.849195003509522">
        <ele>326.5</ele>
        <time>2025-05-02T08:09:22Z</time>
      </trkpt>
      <trkpt lat="42.38720596767962" lon="-7.850338965654373">
        <ele>322.18000000000001</ele>
        <time>2025-05-02T08:09:27Z</time>
      </trkpt>
      <trkpt lat="42.386962976306677" lon="-7.850730987265706">
        <ele>320.25999999999999</ele>
        <time>2025-05-02T08:09:29Z</time>
      </trkpt>
      <trkpt lat="42.38681604154408" lon="-7.850895021110773">
        <ele>319.30000000000001</ele>
        <time>2025-05-02T08:09:30Z</time>
      </trkpt>
      <trkpt lat="42.386657958850265" lon="-7.851052014157176">
        <ele>318.32999999999998</ele>
        <time>2025-05-02T08:09:31Z</time>
      </trkpt>
      <trkpt lat="42.384832967072725" lon="-7.852589003741741">
        <ele>306.80000000000001</ele>
        <time>2025-05-02T08:09:42Z</time>
      </trkpt>
      <trkpt lat="42.384670022875071" lon="-7.852686988189817">
        <ele>305.83999999999997</ele>
        <time>2025-05-02T08:09:43Z</time>
      </trkpt>
      <trkpt lat="42.384503977373242" lon="-7.85273602232337">
        <ele>304.88</ele>
        <time>2025-05-02T08:09:44Z</time>
      </trkpt>
      <trkpt lat="42.384328963235021" lon="-7.85273602232337">
        <ele>303.43000000000001</ele>
        <time>2025-05-02T08:09:45Z</time>
      </trkpt>
      <trkpt lat="42.384154032915831" lon="-7.85273602232337">
        <ele>302.47000000000003</ele>
        <time>2025-05-02T08:09:46Z</time>
      </trkpt>
      <trkpt lat="42.383993016555905" lon="-7.852696040645242">
        <ele>301.50999999999999</ele>
        <time>2025-05-02T08:09:47Z</time>
      </trkpt>
      <trkpt lat="42.383840968832374" lon="-7.852647006511688">
        <ele>300.55000000000001</ele>
        <time>2025-05-02T08:09:48Z</time>
      </trkpt>
      <trkpt lat="42.383257001638412" lon="-7.852535024285317">
        <ele>295.74000000000001</ele>
        <time>2025-05-02T08:09:52Z</time>
      </trkpt>
      <trkpt lat="42.383115012198687" lon="-7.852577017620206">
        <ele>294.77999999999997</ele>
        <time>2025-05-02T08:09:53Z</time>
      </trkpt>
      <trkpt lat="42.382973022758961" lon="-7.852620016783476">
        <ele>293.33999999999997</ele>
        <time>2025-05-02T08:09:54Z</time>
      </trkpt>
      <trkpt lat="42.382826004177332" lon="-7.852652035653591">
        <ele>292.38</ele>
        <time>2025-05-02T08:09:55Z</time>
      </trkpt>
      <trkpt lat="42.382691977545619" lon="-7.852725964039564">
        <ele>291.42000000000002</ele>
        <time>2025-05-02T08:09:56Z</time>
      </trkpt>
      <trkpt lat="42.382002985104918" lon="-7.85297398455441">
        <ele>289.00999999999999</ele>
        <time>2025-05-02T08:10:01Z</time>
      </trkpt>
      <trkpt lat="42.381859989836812" lon="-7.853002985939384">
        <ele>288.52999999999997</ele>
        <time>2025-05-02T08:10:02Z</time>
      </trkpt>
      <trkpt lat="42.381712971255183" lon="-7.852997034788132">
        <ele>288.05000000000001</ele>
        <time>2025-05-02T08:10:03Z</time>
      </trkpt>
      <trkpt lat="42.381584979593754" lon="-7.852971972897649">
        <ele>287.56999999999999</ele>
        <time>2025-05-02T08:10:04Z</time>
      </trkpt>
      <trkpt lat="42.381431004032493" lon="-7.852877005934715">
        <ele>287.08999999999997</ele>
        <time>2025-05-02T08:10:05Z</time>
      </trkpt>
      <trkpt lat="42.381299994885921" lon="-7.852795030921698">
        <ele>286.61000000000001</ele>
        <time>2025-05-02T08:10:06Z</time>
      </trkpt>
      <trkpt lat="42.381178960204124" lon="-7.852696040645242">
        <ele>285.64999999999998</ele>
        <time>2025-05-02T08:10:07Z</time>
      </trkpt>
      <trkpt lat="42.379785971716046" lon="-7.85153497941792">
        <ele>278.44</ele>
        <time>2025-05-02T08:10:18Z</time>
      </trkpt>
      <trkpt lat="42.378781987354159" lon="-7.850605007261038">
        <ele>273.63</ele>
        <time>2025-05-02T08:10:26Z</time>
      </trkpt>
      <trkpt lat="42.37863396294415" lon="-7.850526971742511">
        <ele>273.14999999999998</ele>
        <time>2025-05-02T08:10:27Z</time>
      </trkpt>
      <trkpt lat="42.378476969897747" lon="-7.85045899450779">
        <ele>272.67000000000002</ele>
        <time>2025-05-02T08:10:28Z</time>
      </trkpt>
      <trkpt lat="42.378306984901428" lon="-7.850423958152533">
        <ele>272.19</ele>
        <time>2025-05-02T08:10:29Z</time>
      </trkpt>
      <trkpt lat="42.37813800573349" lon="-7.850400991737843">
        <ele>271.70999999999998</ele>
        <time>2025-05-02T08:10:30Z</time>
      </trkpt>
      <trkpt lat="42.37639700062573" lon="-7.850189013406634">
        <ele>264.01999999999998</ele>
        <time>2025-05-02T08:10:40Z</time>
      </trkpt>
      <trkpt lat="42.376239001750946" lon="-7.850099997594953">
        <ele>263.54000000000002</ele>
        <time>2025-05-02T08:10:41Z</time>
      </trkpt>
      <trkpt lat="42.376089971512556" lon="-7.8499870095402">
        <ele>262.57999999999998</ele>
        <time>2025-05-02T08:10:42Z</time>
      </trkpt>
      <trkpt lat="42.375958962365985" lon="-7.849839990958571">
        <ele>262.10000000000002</ele>
        <time>2025-05-02T08:10:43Z</time>
      </trkpt>
      <trkpt lat="42.375852009281516" lon="-7.849667994305491">
        <ele>261.13999999999999</ele>
        <time>2025-05-02T08:10:44Z</time>
      </trkpt>
      <trkpt lat="42.375745978206396" lon="-7.849498009309173">
        <ele>260.17000000000002</ele>
        <time>2025-05-02T08:10:45Z</time>
      </trkpt>
      <trkpt lat="42.375639025121927" lon="-7.849324000999332">
        <ele>259.69</ele>
        <time>2025-05-02T08:10:46Z</time>
      </trkpt>
      <trkpt lat="42.375032007694244" lon="-7.84854699857533">
        <ele>254.88999999999999</ele>
        <time>2025-05-02T08:10:51Z</time>
      </trkpt>
      <trkpt lat="42.374879959970713" lon="-7.848436022177339">
        <ele>253.44</ele>
        <time>2025-05-02T08:10:52Z</time>
      </trkpt>
      <trkpt lat="42.374715004116297" lon="-7.848392017185688">
        <ele>252.47999999999999</ele>
        <time>2025-05-02T08:10:53Z</time>
      </trkpt>
      <trkpt lat="42.37454803660512" lon="-7.848359998315573">
        <ele>251.52000000000001</ele>
        <time>2025-05-02T08:10:54Z</time>
      </trkpt>
      <trkpt lat="42.374375034123659" lon="-7.848369972780347">
        <ele>250.56</ele>
        <time>2025-05-02T08:10:55Z</time>
      </trkpt>
      <trkpt lat="42.374181998893619" lon="-7.848380031064153">
        <ele>249.59999999999999</ele>
        <time>2025-05-02T08:10:56Z</time>
      </trkpt>
      <trkpt lat="42.374031962826848" lon="-7.848431998863816">
        <ele>248.63999999999999</ele>
        <time>2025-05-02T08:10:57Z</time>
      </trkpt>
      <trkpt lat="42.373859966173768" lon="-7.848492013290525">
        <ele>247.68000000000001</ele>
        <time>2025-05-02T08:10:58Z</time>
      </trkpt>
      <trkpt lat="42.372794039547443" lon="-7.848923010751605">
        <ele>239.50999999999999</ele>
        <time>2025-05-02T08:11:05Z</time>
      </trkpt>
      <trkpt lat="42.37255297601223" lon="-7.849037004634738">
        <ele>237.58000000000001</ele>
        <time>2025-05-02T08:11:07Z</time>
      </trkpt>
      <trkpt lat="42.37244501709938" lon="-7.849128032103181">
        <ele>237.09999999999999</ele>
        <time>2025-05-02T08:11:08Z</time>
      </trkpt>
      <trkpt lat="42.37233798019588" lon="-7.849218975752592">
        <ele>236.62</ele>
        <time>2025-05-02T08:11:09Z</time>
      </trkpt>
      <trkpt lat="42.372244019061327" lon="-7.849336992949247">
        <ele>235.66</ele>
        <time>2025-05-02T08:11:10Z</time>
      </trkpt>
      <trkpt lat="42.372151985764503" lon="-7.849464984610677">
        <ele>235.18000000000001</ele>
        <time>2025-05-02T08:11:11Z</time>
      </trkpt>
      <trkpt lat="42.372058024629951" lon="-7.849595993757248">
        <ele>234.22</ele>
        <time>2025-05-02T08:11:12Z</time>
      </trkpt>
      <trkpt lat="42.371960962191224" lon="-7.849730020388961">
        <ele>233.74000000000001</ele>
        <time>2025-05-02T08:11:13Z</time>
      </trkpt>
      <trkpt lat="42.371876975521445" lon="-7.849886007606983">
        <ele>233.25999999999999</ele>
        <time>2025-05-02T08:11:14Z</time>
      </trkpt>
      <trkpt lat="42.371801035478711" lon="-7.850046018138528">
        <ele>232.30000000000001</ele>
        <time>2025-05-02T08:11:15Z</time>
      </trkpt>
      <trkpt lat="42.371734986081719" lon="-7.850219020619988">
        <ele>231.81</ele>
        <time>2025-05-02T08:11:16Z</time>
      </trkpt>
      <trkpt lat="42.37169299274683" lon="-7.850405015051365">
        <ele>230.84999999999999</ele>
        <time>2025-05-02T08:11:17Z</time>
      </trkpt>
      <trkpt lat="42.371657034382224" lon="-7.850591009482741">
        <ele>230.37</ele>
        <time>2025-05-02T08:11:18Z</time>
      </trkpt>
      <trkpt lat="42.371284961700439" lon="-7.853122008964419">
        <ele>222.19999999999999</ele>
        <time>2025-05-02T08:11:30Z</time>
      </trkpt>
      <trkpt lat="42.371166022494435" lon="-7.853491986170411">
        <ele>221.24000000000001</ele>
        <time>2025-05-02T08:11:32Z</time>
      </trkpt>
      <trkpt lat="42.371084969490767" lon="-7.853664988651872">
        <ele>220.28</ele>
        <time>2025-05-02T08:11:33Z</time>
      </trkpt>
      <trkpt lat="42.371007017791271" lon="-7.853830028325319">
        <ele>219.80000000000001</ele>
        <time>2025-05-02T08:11:34Z</time>
      </trkpt>
      <trkpt lat="42.370867962017655" lon="-7.853950979188085">
        <ele>219.31999999999999</ele>
        <time>2025-05-02T08:11:35Z</time>
      </trkpt>
      <trkpt lat="42.370737958699465" lon="-7.854064973071218">
        <ele>218.84</ele>
        <time>2025-05-02T08:11:36Z</time>
      </trkpt>
      <trkpt lat="42.37059697508812" lon="-7.854149965569377">
        <ele>218.36000000000001</ele>
        <time>2025-05-02T08:11:37Z</time>
      </trkpt>
      <trkpt lat="42.370439982041717" lon="-7.85419799387455">
        <ele>218.36000000000001</ele>
        <time>2025-05-02T08:11:38Z</time>
      </trkpt>
      <trkpt lat="42.370287012308836" lon="-7.854245016351342">
        <ele>217.88</ele>
        <time>2025-05-02T08:11:39Z</time>
      </trkpt>
      <trkpt lat="42.370136976242065" lon="-7.854280974715948">
        <ele>217.40000000000001</ele>
        <time>2025-05-02T08:11:40Z</time>
      </trkpt>
      <trkpt lat="42.369978977367282" lon="-7.854280974715948">
        <ele>216.91</ele>
        <time>2025-05-02T08:11:41Z</time>
      </trkpt>
      <trkpt lat="42.369819972664118" lon="-7.854280974715948">
        <ele>216.43000000000001</ele>
        <time>2025-05-02T08:11:42Z</time>
      </trkpt>
      <trkpt lat="42.36900600604713" lon="-7.854341994971037">
        <ele>214.03</ele>
        <time>2025-05-02T08:11:47Z</time>
      </trkpt>
      <trkpt lat="42.368841972202063" lon="-7.854399997740984">
        <ele>213.06999999999999</ele>
        <time>2025-05-02T08:11:48Z</time>
      </trkpt>
      <trkpt lat="42.368683973327279" lon="-7.854487001895905">
        <ele>212.11000000000001</ele>
        <time>2025-05-02T08:11:49Z</time>
      </trkpt>
      <trkpt lat="42.368531003594398" lon="-7.85458498634398">
        <ele>211.15000000000001</ele>
        <time>2025-05-02T08:11:50Z</time>
      </trkpt>
      <trkpt lat="42.36838499084115" lon="-7.854705015197396">
        <ele>210.19</ele>
        <time>2025-05-02T08:11:51Z</time>
      </trkpt>
      <trkpt lat="42.366754962131381" lon="-7.855892982333899">
        <ele>200.09</ele>
        <time>2025-05-02T08:12:02Z</time>
      </trkpt>
      <trkpt lat="42.365863965824246" lon="-7.856655986979604">
        <ele>194.31999999999999</ele>
        <time>2025-05-02T08:12:09Z</time>
      </trkpt>
      <trkpt lat="42.365762963891029" lon="-7.856789007782936">
        <ele>193.36000000000001</ele>
        <time>2025-05-02T08:12:10Z</time>
      </trkpt>
      <trkpt lat="42.365681994706392" lon="-7.856940971687436">
        <ele>192.88</ele>
        <time>2025-05-02T08:12:11Z</time>
      </trkpt>
      <trkpt lat="42.365608988329768" lon="-7.857111040502787">
        <ele>192.40000000000001</ele>
        <time>2025-05-02T08:12:12Z</time>
      </trkpt>
      <trkpt lat="42.365533970296383" lon="-7.857287982478738">
        <ele>192.40000000000001</ele>
        <time>2025-05-02T08:12:13Z</time>
      </trkpt>
      <trkpt lat="42.365491976961493" lon="-7.85748596303165">
        <ele>191.91999999999999</ele>
        <time>2025-05-02T08:12:14Z</time>
      </trkpt>
      <trkpt lat="42.365449983626604" lon="-7.857688972726464">
        <ele>191.44</ele>
        <time>2025-05-02T08:12:15Z</time>
      </trkpt>
      <trkpt lat="42.364932987838984" lon="-7.859210958704352">
        <ele>184.71000000000001</ele>
        <time>2025-05-02T08:12:23Z</time>
      </trkpt>
      <trkpt lat="42.364706005901098" lon="-7.859493009746075">
        <ele>183.75</ele>
        <time>2025-05-02T08:12:25Z</time>
      </trkpt>
      <trkpt lat="42.364593017846346" lon="-7.859623013064265">
        <ele>182.78999999999999</ele>
        <time>2025-05-02T08:12:26Z</time>
      </trkpt>
      <trkpt lat="42.364484975114465" lon="-7.859746981412172">
        <ele>182.31</ele>
        <time>2025-05-02T08:12:27Z</time>
      </trkpt>
      <trkpt lat="42.364368969574571" lon="-7.859835997223854">
        <ele>181.34999999999999</ele>
        <time>2025-05-02T08:12:28Z</time>
      </trkpt>
      <trkpt lat="42.364251958206296" lon="-7.859914032742381">
        <ele>180.87</ele>
        <time>2025-05-02T08:12:29Z</time>
      </trkpt>
      <trkpt lat="42.364136958494782" lon="-7.859989972785115">
        <ele>179.90000000000001</ele>
        <time>2025-05-02T08:12:30Z</time>
      </trkpt>
      <trkpt lat="42.363634966313839" lon="-7.860406972467899">
        <ele>177.02000000000001</ele>
        <time>2025-05-02T08:12:35Z</time>
      </trkpt>
      <trkpt lat="42.36355097964406" lon="-7.860490959137678">
        <ele>176.53999999999999</ele>
        <time>2025-05-02T08:12:36Z</time>
      </trkpt>
      <trkpt lat="42.363495994359255" lon="-7.860589027404785">
        <ele>176.06</ele>
        <time>2025-05-02T08:12:37Z</time>
      </trkpt>
      <trkpt lat="42.363480990752578" lon="-7.860719030722976">
        <ele>175.58000000000001</ele>
        <time>2025-05-02T08:12:38Z</time>
      </trkpt>
      <trkpt lat="42.363465987145901" lon="-7.860850961878896">
        <ele>175.58000000000001</ele>
        <time>2025-05-02T08:12:39Z</time>
      </trkpt>
      <trkpt lat="42.363450983539224" lon="-7.86098700016737">
        <ele>175.58000000000001</ele>
        <time>2025-05-02T08:12:40Z</time>
      </trkpt>
      <trkpt lat="42.363417958840728" lon="-7.861270979046822">
        <ele>175.09999999999999</ele>
        <time>2025-05-02T08:12:42Z</time>
      </trkpt>
      <trkpt lat="42.363376971334219" lon="-7.861407017335296">
        <ele>174.13999999999999</ele>
        <time>2025-05-02T08:12:43Z</time>
      </trkpt>
      <trkpt lat="42.363319974392653" lon="-7.861521011218429">
        <ele>173.16999999999999</ele>
        <time>2025-05-02T08:12:44Z</time>
      </trkpt>
      <trkpt lat="42.363239005208015" lon="-7.861602986231446">
        <ele>172.21000000000001</ele>
        <time>2025-05-02T08:12:45Z</time>
      </trkpt>
      <trkpt lat="42.363145966082811" lon="-7.861618995666504">
        <ele>171.25</ele>
        <time>2025-05-02T08:12:46Z</time>
      </trkpt>
      <trkpt lat="42.363050999119878" lon="-7.861618995666504">
        <ele>170.28999999999999</ele>
        <time>2025-05-02T08:12:47Z</time>
      </trkpt>
      <trkpt lat="42.362952008843422" lon="-7.861607009544969">
        <ele>169.33000000000001</ele>
        <time>2025-05-02T08:12:48Z</time>
      </trkpt>
      <trkpt lat="42.362885037437081" lon="-7.861507013440132">
        <ele>168.37</ele>
        <time>2025-05-02T08:12:49Z</time>
      </trkpt>
      <trkpt lat="42.36281999386847" lon="-7.86139503121376">
        <ele>167.41</ele>
        <time>2025-05-02T08:12:50Z</time>
      </trkpt>
      <trkpt lat="42.362770959734917" lon="-7.861251030117273">
        <ele>166.44999999999999</ele>
        <time>2025-05-02T08:12:51Z</time>
      </trkpt>
      <trkpt lat="42.362718991935253" lon="-7.861101999878883">
        <ele>165.47999999999999</ele>
        <time>2025-05-02T08:12:52Z</time>
      </trkpt>
      <trkpt lat="42.362664006650448" lon="-7.860941989347339">
        <ele>165</ele>
        <time>2025-05-02T08:12:53Z</time>
      </trkpt>
      <trkpt lat="42.36260399222374" lon="-7.860764963552356">
        <ele>164.03999999999999</ele>
        <time>2025-05-02T08:12:54Z</time>
      </trkpt>
      <trkpt lat="42.362546995282173" lon="-7.860593972727656">
        <ele>163.08000000000001</ele>
        <time>2025-05-02T08:12:55Z</time>
      </trkpt>
      <trkpt lat="42.361870994791389" lon="-7.858573012053967">
        <ele>156.34999999999999</ele>
        <time>2025-05-02T08:13:07Z</time>
      </trkpt>
      <trkpt lat="42.361798994243145" lon="-7.858305964618921">
        <ele>155.87</ele>
        <time>2025-05-02T08:13:09Z</time>
      </trkpt>
      <trkpt lat="42.361544016748667" lon="-7.858143020421267">
        <ele>155.38999999999999</ele>
        <time>2025-05-02T08:13:10Z</time>
      </trkpt>
      <trkpt lat="42.361504035070539" lon="-7.858074037358165">
        <ele>155.38999999999999</ele>
        <time>2025-05-02T08:13:12Z</time>
      </trkpt>
      <trkpt lat="42.361458018422127" lon="-7.857992984354496">
        <ele>155.38999999999999</ele>
        <time>2025-05-02T08:13:13Z</time>
      </trkpt>
      <trkpt lat="42.361475033685565" lon="-7.857841020449996">
        <ele>155.87</ele>
        <time>2025-05-02T08:13:14Z</time>
      </trkpt>
      <trkpt lat="42.361490037292242" lon="-7.857546983286738">
        <ele>155.87</ele>
        <time>2025-05-02T08:13:16Z</time>
      </trkpt>
      <trkpt lat="42.361442008987069" lon="-7.857416979968548">
        <ele>155.38999999999999</ele>
        <time>2025-05-02T08:13:17Z</time>
      </trkpt>
      <trkpt lat="42.361389035359025" lon="-7.85727197304368">
        <ele>154.91</ele>
        <time>2025-05-02T08:13:18Z</time>
      </trkpt>
      <trkpt lat="42.360814036801457" lon="-7.855515964329243">
        <ele>152.99000000000001</ele>
        <time>2025-05-02T08:13:28Z</time>
      </trkpt>
      <trkpt lat="42.360729966312647" lon="-7.853877972811461">
        <ele>152.50999999999999</ele>
        <time>2025-05-02T08:13:36Z</time>
      </trkpt>
      <trkpt lat="42.360796015709639" lon="-7.851388966664672">
        <ele>150.58000000000001</ele>
        <time>2025-05-02T08:13:48Z</time>
      </trkpt>
      <trkpt lat="42.360877990722656" lon="-7.849216964095831">
        <ele>148.18000000000001</ele>
        <time>2025-05-02T08:13:58Z</time>
      </trkpt>
      <trkpt lat="42.360943034291267" lon="-7.848809016868472">
        <ele>148.18000000000001</ele>
        <time>2025-05-02T08:14:00Z</time>
      </trkpt>
      <trkpt lat="42.360973041504622" lon="-7.848710026592016">
        <ele>148.18000000000001</ele>
        <time>2025-05-02T08:14:01Z</time>
      </trkpt>
      <trkpt lat="42.361022997647524" lon="-7.84854699857533">
        <ele>148.18000000000001</ele>
        <time>2025-05-02T08:14:02Z</time>
      </trkpt>
      <trkpt lat="42.361102038994431" lon="-7.848401991650462">
        <ele>148.18000000000001</ele>
        <time>2025-05-02T08:14:03Z</time>
      </trkpt>
      <trkpt lat="42.361184014007449" lon="-7.848257990553975">
        <ele>148.18000000000001</ele>
        <time>2025-05-02T08:14:04Z</time>
      </trkpt>
      <trkpt lat="42.361285015940666" lon="-7.848135028034449">
        <ele>147.69999999999999</ele>
        <time>2025-05-02T08:14:05Z</time>
      </trkpt>
      <trkpt lat="42.361372020095587" lon="-7.848036037757993">
        <ele>147.69999999999999</ele>
        <time>2025-05-02T08:14:06Z</time>
      </trkpt>
      <trkpt lat="42.361496994271874" lon="-7.847994966432452">
        <ele>147.22</ele>
        <time>2025-05-02T08:14:07Z</time>
      </trkpt>
      <trkpt lat="42.361606964841485" lon="-7.847987003624439">
        <ele>147.22</ele>
        <time>2025-05-02T08:14:08Z</time>
      </trkpt>
      <trkpt lat="42.361718025058508" lon="-7.847979040816426">
        <ele>147.22</ele>
        <time>2025-05-02T08:14:09Z</time>
      </trkpt>
      <trkpt lat="42.361822966486216" lon="-7.847972000017762">
        <ele>146.74000000000001</ele>
        <time>2025-05-02T08:14:10Z</time>
      </trkpt>
      <trkpt lat="42.361922040581703" lon="-7.84803201444447">
        <ele>146.74000000000001</ele>
        <time>2025-05-02T08:14:11Z</time>
      </trkpt>
      <trkpt lat="42.36202597618103" lon="-7.84809404052794">
        <ele>146.74000000000001</ele>
        <time>2025-05-02T08:14:12Z</time>
      </trkpt>
      <trkpt lat="42.362094037234783" lon="-7.848213985562325">
        <ele>146.74000000000001</ele>
        <time>2025-05-02T08:14:13Z</time>
      </trkpt>
      <trkpt lat="42.362161008641124" lon="-7.848349018022418">
        <ele>146.74000000000001</ele>
        <time>2025-05-02T08:14:14Z</time>
      </trkpt>
      <trkpt lat="42.362209036946297" lon="-7.848443984985352">
        <ele>147.22</ele>
        <time>2025-05-02T08:14:15Z</time>
      </trkpt>
      <trkpt lat="42.362225968390703" lon="-7.848622016608715">
        <ele>147.69999999999999</ele>
        <time>2025-05-02T08:14:16Z</time>
      </trkpt>
      <trkpt lat="42.362239966169" lon="-7.848771968856454">
        <ele>148.66</ele>
        <time>2025-05-02T08:14:17Z</time>
      </trkpt>
      <trkpt lat="42.362250024452806" lon="-7.848917981609702">
        <ele>149.13999999999999</ele>
        <time>2025-05-02T08:14:18Z</time>
      </trkpt>
      <trkpt lat="42.36223703250289" lon="-7.849082015454769">
        <ele>149.13999999999999</ele>
        <time>2025-05-02T08:14:19Z</time>
      </trkpt>
      <trkpt lat="42.362115997821093" lon="-7.849840996786952">
        <ele>149.13999999999999</ele>
        <time>2025-05-02T08:14:24Z</time>
      </trkpt>
      <trkpt lat="42.362083978950977" lon="-7.849949961528182">
        <ele>148.66</ele>
        <time>2025-05-02T08:14:25Z</time>
      </trkpt>
      <trkpt lat="42.362018013373017" lon="-7.850044006481767">
        <ele>148.18000000000001</ele>
        <time>2025-05-02T08:14:26Z</time>
      </trkpt>
      <trkpt lat="42.361956993117929" lon="-7.850132016465068">
        <ele>147.69999999999999</ele>
        <time>2025-05-02T08:14:27Z</time>
      </trkpt>
      <trkpt lat="42.361881975084543" lon="-7.850144002586603">
        <ele>146.74000000000001</ele>
        <time>2025-05-02T08:14:28Z</time>
      </trkpt>
      <trkpt lat="42.361797988414764" lon="-7.850150037556887">
        <ele>146.25999999999999</ele>
        <time>2025-05-02T08:14:29Z</time>
      </trkpt>
      <trkpt lat="42.361712995916605" lon="-7.850155988708139">
        <ele>145.78</ele>
        <time>2025-05-02T08:14:30Z</time>
      </trkpt>
      <trkpt lat="42.361636972054839" lon="-7.850144002586603">
        <ele>144.81999999999999</ele>
        <time>2025-05-02T08:14:31Z</time>
      </trkpt>
      <trkpt lat="42.361570000648499" lon="-7.850064039230347">
        <ele>144.34</ele>
        <time>2025-05-02T08:14:32Z</time>
      </trkpt>
      <trkpt lat="42.361496994271874" lon="-7.849976029247046">
        <ele>143.37</ele>
        <time>2025-05-02T08:14:33Z</time>
      </trkpt>
      <trkpt lat="42.361425999552011" lon="-7.849877960979939">
        <ele>142.88999999999999</ele>
        <time>2025-05-02T08:14:34Z</time>
      </trkpt>
      <trkpt lat="42.361372020095587" lon="-7.849748963490129">
        <ele>142.41</ele>
        <time>2025-05-02T08:14:35Z</time>
      </trkpt>
      <trkpt lat="42.36131502315402" lon="-7.849614014849067">
        <ele>142.41</ele>
        <time>2025-05-02T08:14:36Z</time>
      </trkpt>
      <trkpt lat="42.361196000128984" lon="-7.849329030141234">
        <ele>141.93000000000001</ele>
        <time>2025-05-02T08:14:38Z</time>
      </trkpt>
      <trkpt lat="42.361128022894263" lon="-7.849195003509522">
        <ele>141.44999999999999</ele>
        <time>2025-05-02T08:14:39Z</time>
      </trkpt>
      <trkpt lat="42.361043030396104" lon="-7.849072040989995">
        <ele>141.44999999999999</ele>
        <time>2025-05-02T08:14:40Z</time>
      </trkpt>
      <trkpt lat="42.360000992193818" lon="-7.848194958642125">
        <ele>140.97</ele>
        <time>2025-05-02T08:14:49Z</time>
      </trkpt>
      <trkpt lat="42.35882299952209" lon="-7.847571009770036">
        <ele>140.97</ele>
        <time>2025-05-02T08:14:57Z</time>
      </trkpt>
      <trkpt lat="42.358646979555488" lon="-7.847549971193075">
        <ele>141.44999999999999</ele>
        <time>2025-05-02T08:14:58Z</time>
      </trkpt>
      <trkpt lat="42.358470959588885" lon="-7.847529016435146">
        <ele>141.44999999999999</ele>
        <time>2025-05-02T08:14:59Z</time>
      </trkpt>
      <trkpt lat="42.358292005956173" lon="-7.847532033920288">
        <ele>141.44999999999999</ele>
        <time>2025-05-02T08:15:00Z</time>
      </trkpt>
      <trkpt lat="42.358112968504429" lon="-7.847568998113275">
        <ele>141.44999999999999</ele>
        <time>2025-05-02T08:15:01Z</time>
      </trkpt>
      <trkpt lat="42.357939966022968" lon="-7.847640998661518">
        <ele>141.44999999999999</ele>
        <time>2025-05-02T08:15:02Z</time>
      </trkpt>
      <trkpt lat="42.357766963541508" lon="-7.847712999209762">
        <ele>141.44999999999999</ele>
        <time>2025-05-02T08:15:03Z</time>
      </trkpt>
      <trkpt lat="42.357601001858711" lon="-7.847794974222779">
        <ele>141.44999999999999</ele>
        <time>2025-05-02T08:15:04Z</time>
      </trkpt>
      <trkpt lat="42.357440991327167" lon="-7.847896981984377">
        <ele>141.44999999999999</ele>
        <time>2025-05-02T08:15:05Z</time>
      </trkpt>
      <trkpt lat="42.357295984402299" lon="-7.848030002787709">
        <ele>141.44999999999999</ele>
        <time>2025-05-02T08:15:06Z</time>
      </trkpt>
      <trkpt lat="42.357150977477431" lon="-7.848167968913913">
        <ele>140.97</ele>
        <time>2025-05-02T08:15:07Z</time>
      </trkpt>
      <trkpt lat="42.357008988037705" lon="-7.848304007202387">
        <ele>140.49000000000001</ele>
        <time>2025-05-02T08:15:08Z</time>
      </trkpt>
      <trkpt lat="42.356075998395681" lon="-7.84942701458931">
        <ele>137.61000000000001</ele>
        <time>2025-05-02T08:15:15Z</time>
      </trkpt>
      <trkpt lat="42.355782967060804" lon="-7.849674029275775">
        <ele>136.63999999999999</ele>
        <time>2025-05-02T08:15:17Z</time>
      </trkpt>
      <trkpt lat="42.355629997327924" lon="-7.849768996238709">
        <ele>136.63999999999999</ele>
        <time>2025-05-02T08:15:18Z</time>
      </trkpt>
      <trkpt lat="42.354099964722991" lon="-7.850410966202617">
        <ele>131.84</ele>
        <time>2025-05-02T08:15:27Z</time>
      </trkpt>
      <trkpt lat="42.351993005722761" lon="-7.851421991363168">
        <ele>125.11</ele>
        <time>2025-05-02T08:15:39Z</time>
      </trkpt>
      <trkpt lat="42.350691966712475" lon="-7.852621022611857">
        <ele>117.90000000000001</ele>
        <time>2025-05-02T08:15:47Z</time>
      </trkpt>
      <trkpt lat="42.349919993430376" lon="-7.853950979188085">
        <ele>114.05</ele>
        <time>2025-05-02T08:15:53Z</time>
      </trkpt>
      <trkpt lat="42.3498410359025" lon="-7.854196988046169">
        <ele>113.56999999999999</ele>
        <time>2025-05-02T08:15:54Z</time>
      </trkpt>
      <trkpt lat="42.349700974300504" lon="-7.854705015197396">
        <ele>113.09</ele>
        <time>2025-05-02T08:15:56Z</time>
      </trkpt>
      <trkpt lat="42.349210968241096" lon="-7.856815997511149">
        <ele>110.69</ele>
        <time>2025-05-02T08:16:05Z</time>
      </trkpt>
      <trkpt lat="42.348683997988701" lon="-7.858659010380507">
        <ele>109.73</ele>
        <time>2025-05-02T08:16:14Z</time>
      </trkpt>
      <trkpt lat="42.348027024418116" lon="-7.860324997454882">
        <ele>108.77</ele>
        <time>2025-05-02T08:16:23Z</time>
      </trkpt>
      <trkpt lat="42.347766011953354" lon="-7.86090200766921">
        <ele>108.29000000000001</ele>
        <time>2025-05-02T08:16:28Z</time>
      </trkpt>
      <trkpt lat="42.347739022225142" lon="-7.860961016267538">
        <ele>107.81</ele>
        <time>2025-05-02T08:16:29Z</time>
      </trkpt>
      <trkpt lat="42.34771597199142" lon="-7.86100996658206">
        <ele>107.81</ele>
        <time>2025-05-02T08:16:30Z</time>
      </trkpt>
      <trkpt lat="42.34769401140511" lon="-7.861057994887233">
        <ele>107.81</ele>
        <time>2025-05-02T08:16:31Z</time>
      </trkpt>
      <trkpt lat="42.347682025283575" lon="-7.861082972958684">
        <ele>107.81</ele>
        <time>2025-05-02T08:16:32Z</time>
      </trkpt>
      <trkpt lat="42.34773701056838" lon="-7.861279025673866">
        <ele>107.81</ele>
        <time>2025-05-02T08:16:34Z</time>
      </trkpt>
      <trkpt lat="42.347674984484911" lon="-7.861380027607083">
        <ele>107.81</ele>
        <time>2025-05-02T08:16:35Z</time>
      </trkpt>
      <trkpt lat="42.347637014463544" lon="-7.861411040648818">
        <ele>107.81</ele>
        <time>2025-05-02T08:16:36Z</time>
      </trkpt>
      <trkpt lat="42.347553027793765" lon="-7.861410034820437">
        <ele>107.81</ele>
        <time>2025-05-02T08:16:37Z</time>
      </trkpt>
      <trkpt lat="42.347531989216805" lon="-7.861405005678535">
        <ele>107.31999999999999</ele>
        <time>2025-05-02T08:16:38Z</time>
      </trkpt>
      <trkpt lat="42.347483038902283" lon="-7.861275002360344">
        <ele>107.31999999999999</ele>
        <time>2025-05-02T08:16:39Z</time>
      </trkpt>
      <trkpt lat="42.347413972020149" lon="-7.86120199598372">
        <ele>107.31999999999999</ele>
        <time>2025-05-02T08:16:40Z</time>
      </trkpt>
      <trkpt lat="42.34734901227057" lon="-7.861165031790733">
        <ele>107.31999999999999</ele>
        <time>2025-05-02T08:16:41Z</time>
      </trkpt>
      <trkpt lat="42.347276005893946" lon="-7.861161008477211">
        <ele>107.31999999999999</ele>
        <time>2025-05-02T08:16:42Z</time>
      </trkpt>
      <trkpt lat="42.347215991467237" lon="-7.861181041225791">
        <ele>107.81</ele>
        <time>2025-05-02T08:16:43Z</time>
      </trkpt>
      <trkpt lat="42.347168968990445" lon="-7.86122303456068">
        <ele>107.81</ele>
        <time>2025-05-02T08:16:44Z</time>
      </trkpt>
      <trkpt lat="42.347136028110981" lon="-7.861280031502247">
        <ele>108.29000000000001</ele>
        <time>2025-05-02T08:16:45Z</time>
      </trkpt>
      <trkpt lat="42.347106020897627" lon="-7.86133199930191">
        <ele>108.77</ele>
        <time>2025-05-02T08:16:46Z</time>
      </trkpt>
      <trkpt lat="42.347077019512653" lon="-7.861381033435464">
        <ele>108.77</ele>
        <time>2025-05-02T08:16:47Z</time>
      </trkpt>
      <trkpt lat="42.346978029236197" lon="-7.86139402538538">
        <ele>109.25</ele>
        <time>2025-05-02T08:16:48Z</time>
      </trkpt>
      <trkpt lat="42.346935030072927" lon="-7.861355971544981">
        <ele>109.25</ele>
        <time>2025-05-02T08:16:49Z</time>
      </trkpt>
      <trkpt lat="42.346891025081277" lon="-7.861316995695233">
        <ele>109.25</ele>
        <time>2025-05-02T08:16:50Z</time>
      </trkpt>
      <trkpt lat="42.346848025918007" lon="-7.861279025673866">
        <ele>109.73</ele>
        <time>2025-05-02T08:16:51Z</time>
      </trkpt>
      <trkpt lat="42.346753980964422" lon="-7.861195039004087">
        <ele>109.25</ele>
        <time>2025-05-02T08:16:53Z</time>
      </trkpt>
      <trkpt lat="42.346585001796484" lon="-7.861039973795414">
        <ele>109.25</ele>
        <time>2025-05-02T08:16:56Z</time>
      </trkpt>
      <trkpt lat="42.346522975713015" lon="-7.86105003207922">
        <ele>109.73</ele>
        <time>2025-05-02T08:16:57Z</time>
      </trkpt>
      <trkpt lat="42.346461033448577" lon="-7.861061012372375">
        <ele>109.73</ele>
        <time>2025-05-02T08:16:58Z</time>
      </trkpt>
      <trkpt lat="42.346419040113688" lon="-7.861109962686896">
        <ele>109.73</ele>
        <time>2025-05-02T08:16:59Z</time>
      </trkpt>
      <trkpt lat="42.34638299793005" lon="-7.861153967678547">
        <ele>109.25</ele>
        <time>2025-05-02T08:17:00Z</time>
      </trkpt>
      <trkpt lat="42.346344022080302" lon="-7.861200990155339">
        <ele>109.73</ele>
        <time>2025-05-02T08:17:01Z</time>
      </trkpt>
      <trkpt lat="42.346265986561775" lon="-7.861296962946653">
        <ele>109.73</ele>
        <time>2025-05-02T08:17:02Z</time>
      </trkpt>
      <trkpt lat="42.346217036247253" lon="-7.86131096072495">
        <ele>109.73</ele>
        <time>2025-05-02T08:17:03Z</time>
      </trkpt>
      <trkpt lat="42.346151992678642" lon="-7.861329987645149">
        <ele>109.73</ele>
        <time>2025-05-02T08:17:04Z</time>
      </trkpt>
      <trkpt lat="42.346051996573806" lon="-7.861281959339976">
        <ele>109.25</ele>
        <time>2025-05-02T08:17:05Z</time>
      </trkpt>
      <trkpt lat="42.345994999632239" lon="-7.861228985711932">
        <ele>109.25</ele>
        <time>2025-05-02T08:17:06Z</time>
      </trkpt>
      <trkpt lat="42.345931967720389" lon="-7.861171988770366">
        <ele>109.25</ele>
        <time>2025-05-02T08:17:07Z</time>
      </trkpt>
      <trkpt lat="42.345868013799191" lon="-7.861112980172038">
        <ele>109.25</ele>
        <time>2025-05-02T08:17:08Z</time>
      </trkpt>
      <trkpt lat="42.345802970230579" lon="-7.86105296574533">
        <ele>109.25</ele>
        <time>2025-05-02T08:17:09Z</time>
      </trkpt>
      <trkpt lat="42.345735998824239" lon="-7.860991023480892">
        <ele>109.73</ele>
        <time>2025-05-02T08:17:10Z</time>
      </trkpt>
      <trkpt lat="42.345417989417911" lon="-7.860727999359369">
        <ele>109.25</ele>
        <time>2025-05-02T08:17:15Z</time>
      </trkpt>
      <trkpt lat="42.345370966941118" lon="-7.860693968832493">
        <ele>109.73</ele>
        <time>2025-05-02T08:17:16Z</time>
      </trkpt>
      <trkpt lat="42.345331991091371" lon="-7.8606659732759">
        <ele>109.73</ele>
        <time>2025-05-02T08:17:17Z</time>
      </trkpt>
      <trkpt lat="42.345298966392875" lon="-7.860640995204449">
        <ele>109.73</ele>
        <time>2025-05-02T08:17:18Z</time>
      </trkpt>
      <trkpt lat="42.34513602219522" lon="-7.860701009631157">
        <ele>110.20999999999999</ele>
        <time>2025-05-02T08:17:19Z</time>
      </trkpt>
      <trkpt lat="42.345125963911414" lon="-7.860749959945679">
        <ele>110.69</ele>
        <time>2025-05-02T08:17:20Z</time>
      </trkpt>
      <trkpt lat="42.345114983618259" lon="-7.860797988250852">
        <ele>111.17</ele>
        <time>2025-05-02T08:17:21Z</time>
      </trkpt>
      <trkpt lat="42.345055975019932" lon="-7.861046008765698">
        <ele>118.86</ele>
        <time>2025-05-02T08:17:30Z</time>
      </trkpt>
      <trkpt lat="42.345128981396556" lon="-7.861415985971689">
        <ele>121.73999999999999</ele>
        <time>2025-05-02T08:17:37Z</time>
      </trkpt>
      <trkpt lat="42.345128981396556" lon="-7.861492009833455">
        <ele>121.73999999999999</ele>
        <time>2025-05-02T08:17:38Z</time>
      </trkpt>
      <trkpt lat="42.345048012211919" lon="-7.861575996503234">
        <ele>122.70999999999999</ele>
        <time>2025-05-02T08:17:39Z</time>
      </trkpt>
      <trkpt lat="42.345021022483706" lon="-7.861598040908575">
        <ele>123.19</ele>
        <time>2025-05-02T08:17:40Z</time>
      </trkpt>
      <trkpt lat="42.345021022483706" lon="-7.861598040908575">
        <ele>122.70999999999999</ele>
        <time>2025-05-02T08:17:41Z</time>
      </trkpt>
      <trkpt lat="42.344838967546821" lon="-7.861555963754654">
        <ele>122.70999999999999</ele>
        <time>2025-05-02T08:17:42Z</time>
      </trkpt>
      <trkpt lat="42.344789011403918" lon="-7.861591000109911">
        <ele>122.70999999999999</ele>
        <time>2025-05-02T08:17:43Z</time>
      </trkpt>
      <trkpt lat="42.344652973115444" lon="-7.861686972901225">
        <ele>122.70999999999999</ele>
        <time>2025-05-02T08:17:46Z</time>
      </trkpt>
      <trkpt lat="42.344616008922458" lon="-7.861713962629437">
        <ele>122.70999999999999</ele>
        <time>2025-05-02T08:17:47Z</time>
      </trkpt>
      <trkpt lat="42.344498997554183" lon="-7.861798033118248">
        <ele>122.22</ele>
        <time>2025-05-02T08:17:50Z</time>
      </trkpt>
      <trkpt lat="42.344464967027307" lon="-7.861831979826093">
        <ele>122.22</ele>
        <time>2025-05-02T08:17:51Z</time>
      </trkpt>
      <trkpt lat="42.344435965642333" lon="-7.861860981211066">
        <ele>122.22</ele>
        <time>2025-05-02T08:17:52Z</time>
      </trkpt>
      <trkpt lat="42.34440503641963" lon="-7.861891994252801">
        <ele>122.70999999999999</ele>
        <time>2025-05-02T08:17:53Z</time>
      </trkpt>
      <trkpt lat="42.344370000064373" lon="-7.861927030608058">
        <ele>122.22</ele>
        <time>2025-05-02T08:17:54Z</time>
      </trkpt>
      <trkpt lat="42.344284001737833" lon="-7.862013028934598">
        <ele>121.73999999999999</ele>
        <time>2025-05-02T08:17:56Z</time>
      </trkpt>
      <trkpt lat="42.344095995649695" lon="-7.862314023077488">
        <ele>120.3</ele>
        <time>2025-05-02T08:18:01Z</time>
      </trkpt>
      <trkpt lat="42.34412600286305" lon="-7.862369008362293">
        <ele>119.81999999999999</ele>
        <time>2025-05-02T08:18:02Z</time>
      </trkpt>
      <trkpt lat="42.344155004248023" lon="-7.862420976161957">
        <ele>119.34</ele>
        <time>2025-05-02T08:18:03Z</time>
      </trkpt>
      <trkpt lat="42.344181993976235" lon="-7.86247001029551">
        <ele>118.86</ele>
        <time>2025-05-02T08:18:04Z</time>
      </trkpt>
      <trkpt lat="42.344204038381577" lon="-7.862509991973639">
        <ele>118.38</ele>
        <time>2025-05-02T08:18:05Z</time>
      </trkpt>
      <trkpt lat="42.344399001449347" lon="-7.862863959744573">
        <ele>115.5</ele>
        <time>2025-05-02T08:18:13Z</time>
      </trkpt>
      <trkpt lat="42.344405958428979" lon="-7.862878041341901">
        <ele>114.53</ele>
        <time>2025-05-02T08:18:14Z</time>
      </trkpt>
      <trkpt lat="42.344464967027307" lon="-7.862995974719524">
        <ele>113.56999999999999</ele>
        <time>2025-05-02T08:18:16Z</time>
      </trkpt>
      <trkpt lat="42.344495980069041" lon="-7.863056994974613">
        <ele>113.56999999999999</ele>
        <time>2025-05-02T08:18:17Z</time>
      </trkpt>
      <trkpt lat="42.34455700032413" lon="-7.863180041313171">
        <ele>112.61</ele>
        <time>2025-05-02T08:18:19Z</time>
      </trkpt>
      <trkpt lat="42.344592036679387" lon="-7.863250030204654">
        <ele>112.13</ele>
        <time>2025-05-02T08:18:20Z</time>
      </trkpt>
      <trkpt lat="42.344594970345497" lon="-7.863290011882782">
        <ele>112.13</ele>
        <time>2025-05-02T08:18:21Z</time>
      </trkpt>
      <trkpt lat="42.344603016972542" lon="-7.863383973017335">
        <ele>112.61</ele>
        <time>2025-05-02T08:18:22Z</time>
      </trkpt>
      <trkpt lat="42.344613997265697" lon="-7.863507019355893">
        <ele>112.61</ele>
        <time>2025-05-02T08:18:23Z</time>
      </trkpt>
      <trkpt lat="42.344598993659019" lon="-7.863539960235357">
        <ele>113.09</ele>
        <time>2025-05-02T08:18:24Z</time>
      </trkpt>
      <trkpt lat="42.344572003930807" lon="-7.863601986318827">
        <ele>113.09</ele>
        <time>2025-05-02T08:18:25Z</time>
      </trkpt>
      <trkpt lat="42.344527998939157" lon="-7.863699970766902">
        <ele>113.09</ele>
        <time>2025-05-02T08:18:26Z</time>
      </trkpt>
      <trkpt lat="42.344501009210944" lon="-7.86373601295054">
        <ele>113.09</ele>
        <time>2025-05-02T08:18:27Z</time>
      </trkpt>
      <trkpt lat="42.344323983415961" lon="-7.863970035687089">
        <ele>114.05</ele>
        <time>2025-05-02T08:18:32Z</time>
      </trkpt>
      <trkpt lat="42.344290036708117" lon="-7.86401404067874">
        <ele>115.01000000000001</ele>
        <time>2025-05-02T08:18:33Z</time>
      </trkpt>
      <trkpt lat="42.344147963449359" lon="-7.864201962947846">
        <ele>113.56999999999999</ele>
        <time>2025-05-02T08:18:39Z</time>
      </trkpt>
      <trkpt lat="42.344136983156204" lon="-7.864216966554523">
        <ele>113.09</ele>
        <time>2025-05-02T08:18:53Z</time>
      </trkpt>
      <trkpt lat="42.343988036736846" lon="-7.864414025098085">
        <ele>115.98</ele>
        <time>2025-05-02T08:19:02Z</time>
      </trkpt>
      <trkpt lat="42.343915030360222" lon="-7.864527013152838">
        <ele>116.94</ele>
        <time>2025-05-02T08:19:05Z</time>
      </trkpt>
      <trkpt lat="42.343893991783261" lon="-7.864587027579546">
        <ele>116.45999999999999</ele>
        <time>2025-05-02T08:19:06Z</time>
      </trkpt>
      <trkpt lat="42.343811010941863" lon="-7.865092037245631">
        <ele>121.26000000000001</ele>
        <time>2025-05-02T08:19:14Z</time>
      </trkpt>
      <trkpt lat="42.343806987628341" lon="-7.865225980058312">
        <ele>122.70999999999999</ele>
        <time>2025-05-02T08:19:16Z</time>
      </trkpt>
      <trkpt lat="42.34380497597158" lon="-7.865293035283685">
        <ele>123.19</ele>
        <time>2025-05-02T08:19:17Z</time>
      </trkpt>
      <trkpt lat="42.343802964314818" lon="-7.865359000861645">
        <ele>123.67</ele>
        <time>2025-05-02T08:19:18Z</time>
      </trkpt>
      <trkpt lat="42.343801036477089" lon="-7.865424966439605">
        <ele>124.15000000000001</ele>
        <time>2025-05-02T08:19:19Z</time>
      </trkpt>
      <trkpt lat="42.343799024820328" lon="-7.865493027493358">
        <ele>124.15000000000001</ele>
        <time>2025-05-02T08:19:20Z</time>
      </trkpt>
      <trkpt lat="42.34378200955689" lon="-7.865555975586176">
        <ele>124.15000000000001</ele>
        <time>2025-05-02T08:19:21Z</time>
      </trkpt>
      <trkpt lat="42.343763988465071" lon="-7.865611966699362">
        <ele>124.15000000000001</ele>
        <time>2025-05-02T08:19:22Z</time>
      </trkpt>
      <trkpt lat="42.343630967661738" lon="-7.86603600718081">
        <ele>125.11</ele>
        <time>2025-05-02T08:19:29Z</time>
      </trkpt>
      <trkpt lat="42.34361101873219" lon="-7.866099961102009">
        <ele>125.59</ele>
        <time>2025-05-02T08:19:30Z</time>
      </trkpt>
      <trkpt lat="42.343551004305482" lon="-7.866291990503669">
        <ele>127.03</ele>
        <time>2025-05-02T08:19:33Z</time>
      </trkpt>
      <trkpt lat="42.343528959900141" lon="-7.866360973566771">
        <ele>127.03</ele>
        <time>2025-05-02T08:19:34Z</time>
      </trkpt>
      <trkpt lat="42.343442961573601" lon="-7.866633972153068">
        <ele>126.55</ele>
        <time>2025-05-02T08:19:38Z</time>
      </trkpt>
      <trkpt lat="42.343356963247061" lon="-7.866904959082604">
        <ele>128.94999999999999</ele>
        <time>2025-05-02T08:19:42Z</time>
      </trkpt>
      <trkpt lat="42.343337014317513" lon="-7.866970002651215">
        <ele>128.94999999999999</ele>
        <time>2025-05-02T08:19:43Z</time>
      </trkpt>
      <trkpt lat="42.343318993225694" lon="-7.867025993764401">
        <ele>129.43000000000001</ele>
        <time>2025-05-02T08:19:44Z</time>
      </trkpt>
      <trkpt lat="42.343301977962255" lon="-7.867081984877586">
        <ele>129.43000000000001</ele>
        <time>2025-05-02T08:19:45Z</time>
      </trkpt>
      <trkpt lat="42.343284040689468" lon="-7.867135964334011">
        <ele>129.43000000000001</ele>
        <time>2025-05-02T08:19:46Z</time>
      </trkpt>
      <trkpt lat="42.343212962150574" lon="-7.867362024262548">
        <ele>129.91999999999999</ele>
        <time>2025-05-02T08:19:50Z</time>
      </trkpt>
      <trkpt lat="42.343142973259091" lon="-7.867521028965712">
        <ele>129.43000000000001</ele>
        <time>2025-05-02T08:19:53Z</time>
      </trkpt>
      <trkpt lat="42.343041971325874" lon="-7.86779897287488">
        <ele>127.51000000000001</ele>
        <time>2025-05-02T08:19:58Z</time>
      </trkpt>
      <trkpt lat="42.343023028224707" lon="-7.867852030321956">
        <ele>127.03</ele>
        <time>2025-05-02T08:19:59Z</time>
      </trkpt>
      <trkpt lat="42.343004001304507" lon="-7.86790600977838">
        <ele>126.55</ele>
        <time>2025-05-02T08:20:00Z</time>
      </trkpt>
      <trkpt lat="42.34298799186945" lon="-7.86794800311327">
        <ele>126.06999999999999</ele>
        <time>2025-05-02T08:20:01Z</time>
      </trkpt>
      <trkpt lat="42.343037026003003" lon="-7.867996031418443">
        <ele>125.11</ele>
        <time>2025-05-02T08:20:02Z</time>
      </trkpt>
      <trkpt lat="42.343055969104171" lon="-7.868047999218106">
        <ele>124.63</ele>
        <time>2025-05-02T08:20:03Z</time>
      </trkpt>
      <trkpt lat="42.343076001852751" lon="-7.868101978674531">
        <ele>124.15000000000001</ele>
        <time>2025-05-02T08:20:04Z</time>
      </trkpt>
      <trkpt lat="42.34309796243906" lon="-7.868147995322943">
        <ele>123.67</ele>
        <time>2025-05-02T08:20:05Z</time>
      </trkpt>
      <trkpt lat="42.34313702210784" lon="-7.868174985051155">
        <ele>123.19</ele>
        <time>2025-05-02T08:20:06Z</time>
      </trkpt>
      <trkpt lat="42.343173986300826" lon="-7.868201974779367">
        <ele>122.70999999999999</ele>
        <time>2025-05-02T08:20:07Z</time>
      </trkpt>
      <trkpt lat="42.343209022656083" lon="-7.86822703666985">
        <ele>122.22</ele>
        <time>2025-05-02T08:20:08Z</time>
      </trkpt>
      <trkpt lat="42.343278005719185" lon="-7.868286967277527">
        <ele>120.78</ele>
        <time>2025-05-02T08:20:10Z</time>
      </trkpt>
      <trkpt lat="42.343382025137544" lon="-7.868641018867493">
        <ele>117.90000000000001</ele>
        <time>2025-05-02T08:20:18Z</time>
      </trkpt>
      <trkpt lat="42.343389987945557" lon="-7.86872198805213">
        <ele>117.42</ele>
        <time>2025-05-02T08:20:19Z</time>
      </trkpt>
      <trkpt lat="42.343370961025357" lon="-7.869133036583662">
        <ele>116.45999999999999</ele>
        <time>2025-05-02T08:20:24Z</time>
      </trkpt>
      <trkpt lat="42.343368027359247" lon="-7.869214005768299">
        <ele>116.45999999999999</ele>
        <time>2025-05-02T08:20:25Z</time>
      </trkpt>
      <trkpt lat="42.343366015702486" lon="-7.869277959689498">
        <ele>116.45999999999999</ele>
        <time>2025-05-02T08:20:26Z</time>
      </trkpt>
      <trkpt lat="42.343354029580951" lon="-7.869629999622703">
        <ele>116.45999999999999</ele>
        <time>2025-05-02T08:20:36Z</time>
      </trkpt>
      <trkpt lat="42.343347994610667" lon="-7.86983703263104">
        <ele>115.98</ele>
        <time>2025-05-02T08:20:51Z</time>
      </trkpt>
      <trkpt lat="42.343284962698817" lon="-7.870387975126505">
        <ele>113.56999999999999</ele>
        <time>2025-05-02T08:21:00Z</time>
      </trkpt>
      <trkpt lat="42.343271970748901" lon="-7.870446983724833">
        <ele>113.09</ele>
        <time>2025-05-02T08:21:01Z</time>
      </trkpt>
      <trkpt lat="42.343231989070773" lon="-7.870632978156209">
        <ele>111.65000000000001</ele>
        <time>2025-05-02T08:21:04Z</time>
      </trkpt>
      <trkpt lat="42.343218997120857" lon="-7.870689975097776">
        <ele>111.17</ele>
        <time>2025-05-02T08:21:05Z</time>
      </trkpt>
      <trkpt lat="42.343192007392645" lon="-7.870816960930824">
        <ele>109.73</ele>
        <time>2025-05-02T08:21:07Z</time>
      </trkpt>
      <trkpt lat="42.34315998852253" lon="-7.870971020311117">
        <ele>108.29000000000001</ele>
        <time>2025-05-02T08:21:09Z</time>
      </trkpt>
      <trkpt lat="42.343154037371278" lon="-7.871065987274051">
        <ele>108.29000000000001</ele>
        <time>2025-05-02T08:21:10Z</time>
      </trkpt>
      <trkpt lat="42.343154037371278" lon="-7.871138993650675">
        <ele>108.77</ele>
        <time>2025-05-02T08:21:11Z</time>
      </trkpt>
      <trkpt lat="42.343172980472445" lon="-7.871378967538476">
        <ele>109.25</ele>
        <time>2025-05-02T08:21:14Z</time>
      </trkpt>
      <trkpt lat="42.343188989907503" lon="-7.871446022763848">
        <ele>109.25</ele>
        <time>2025-05-02T08:21:15Z</time>
      </trkpt>
      <trkpt lat="42.3432029876858" lon="-7.871507965028286">
        <ele>109.73</ele>
        <time>2025-05-02T08:21:16Z</time>
      </trkpt>
      <trkpt lat="42.343271970748901" lon="-7.871808959171176">
        <ele>111.65000000000001</ele>
        <time>2025-05-02T08:21:21Z</time>
      </trkpt>
      <trkpt lat="42.34328898601234" lon="-7.871884983032942">
        <ele>111.65000000000001</ele>
        <time>2025-05-02T08:21:22Z</time>
      </trkpt>
      <trkpt lat="42.343307007104158" lon="-7.871962012723088">
        <ele>111.17</ele>
        <time>2025-05-02T08:21:23Z</time>
      </trkpt>
      <trkpt lat="42.343325028195977" lon="-7.872040970250964">
        <ele>111.17</ele>
        <time>2025-05-02T08:21:24Z</time>
      </trkpt>
      <trkpt lat="42.343498030677438" lon="-7.87205102853477">
        <ele>111.17</ele>
        <time>2025-05-02T08:21:25Z</time>
      </trkpt>
      <trkpt lat="42.343512028455734" lon="-7.872120011597872">
        <ele>111.65000000000001</ele>
        <time>2025-05-02T08:21:26Z</time>
      </trkpt>
      <trkpt lat="42.34352401457727" lon="-7.87218002602458">
        <ele>111.65000000000001</ele>
        <time>2025-05-02T08:21:27Z</time>
      </trkpt>
      <trkpt lat="42.343498030677438" lon="-7.872326038777828">
        <ele>111.65000000000001</ele>
        <time>2025-05-02T08:21:28Z</time>
      </trkpt>
      <trkpt lat="42.34341798350215" lon="-7.872357973828912">
        <ele>111.65000000000001</ele>
        <time>2025-05-02T08:21:29Z</time>
      </trkpt>
      <trkpt lat="42.343389987945557" lon="-7.872369037941098">
        <ele>111.65000000000001</ele>
        <time>2025-05-02T08:21:30Z</time>
      </trkpt>
      <trkpt lat="42.343326034024358" lon="-7.872305000200868">
        <ele>111.65000000000001</ele>
        <time>2025-05-02T08:21:31Z</time>
      </trkpt>
      <trkpt lat="42.343326034024358" lon="-7.872305000200868">
        <ele>111.17</ele>
        <time>2025-05-02T08:21:32Z</time>
      </trkpt>
      <trkpt lat="42.343304995447397" lon="-7.872240962460637">
        <ele>111.17</ele>
        <time>2025-05-02T08:21:33Z</time>
      </trkpt>
      <trkpt lat="42.343290997669101" lon="-7.872172985225916">
        <ele>110.69</ele>
        <time>2025-05-02T08:21:34Z</time>
      </trkpt>
      <trkpt lat="42.343283034861088" lon="-7.872133003547788">
        <ele>110.69</ele>
        <time>2025-05-02T08:21:35Z</time>
      </trkpt>
      <trkpt lat="42.343274988234043" lon="-7.872085981070995">
        <ele>110.20999999999999</ele>
        <time>2025-05-02T08:21:36Z</time>
      </trkpt>
      <trkpt lat="42.343197036534548" lon="-7.871919013559818">
        <ele>110.20999999999999</ele>
        <time>2025-05-02T08:21:38Z</time>
      </trkpt>
      <trkpt lat="42.343196030706167" lon="-7.871912978589535">
        <ele>110.20999999999999</ele>
        <time>2025-05-02T08:21:39Z</time>
      </trkpt>
      <trkpt lat="42.3431839607656" lon="-7.871872996911407">
        <ele>110.20999999999999</ele>
        <time>2025-05-02T08:21:40Z</time>
      </trkpt>
      <trkpt lat="42.343173986300826" lon="-7.87183896638453">
        <ele>110.20999999999999</ele>
        <time>2025-05-02T08:21:41Z</time>
      </trkpt>
      <trkpt lat="42.343163006007671" lon="-7.871803008019924">
        <ele>110.20999999999999</ele>
        <time>2025-05-02T08:21:42Z</time>
      </trkpt>
      <trkpt lat="42.343156971037388" lon="-7.871780041605234">
        <ele>110.20999999999999</ele>
        <time>2025-05-02T08:21:43Z</time>
      </trkpt>
      <trkpt lat="42.343156971037388" lon="-7.871780041605234">
        <ele>109.73</ele>
        <time>2025-05-02T08:21:44Z</time>
      </trkpt>
      <trkpt lat="42.343156971037388" lon="-7.871780041605234">
        <ele>109.73</ele>
        <time>2025-05-02T08:22:00Z</time>
      </trkpt>
      <trkpt lat="42.343121012672782" lon="-7.871779035776854">
        <ele>112.61</ele>
        <time>2025-05-02T09:05:58Z</time>
      </trkpt>
      <trkpt lat="42.343120006844401" lon="-7.871780963614583">
        <ele>112.13</ele>
        <time>2025-05-02T09:06:49Z</time>
      </trkpt>
      <trkpt lat="42.343111038208008" lon="-7.871777024120092">
        <ele>112.61</ele>
        <time>2025-05-02T09:07:39Z</time>
      </trkpt>
      <trkpt lat="42.343108020722866" lon="-7.871775012463331">
        <ele>112.61</ele>
        <time>2025-05-02T09:08:30Z</time>
      </trkpt>
      <trkpt lat="42.343107014894485" lon="-7.871778029948473">
        <ele>112.61</ele>
        <time>2025-05-02T09:08:55Z</time>
      </trkpt>
      <trkpt lat="42.343107014894485" lon="-7.871778029948473">
        <ele>112.61</ele>
        <time>2025-05-02T09:09:07Z</time>
      </trkpt>
      <trkpt lat="42.34311799518764" lon="-7.871647020801902">
        <ele>112.61</ele>
        <time>2025-05-02T09:09:10Z</time>
      </trkpt>
      <trkpt lat="42.343102991580963" lon="-7.871595975011587">
        <ele>112.61</ele>
        <time>2025-05-02T09:09:11Z</time>
      </trkpt>
      <trkpt lat="42.343086982145905" lon="-7.871539983898401">
        <ele>112.61</ele>
        <time>2025-05-02T09:09:12Z</time>
      </trkpt>
      <trkpt lat="42.343069966882467" lon="-7.871483992785215">
        <ele>112.13</ele>
        <time>2025-05-02T09:09:13Z</time>
      </trkpt>
      <trkpt lat="42.342964019626379" lon="-7.871121978387237">
        <ele>111.17</ele>
        <time>2025-05-02T09:09:24Z</time>
      </trkpt>
      <trkpt lat="42.342939963564277" lon="-7.871038997545838">
        <ele>111.17</ele>
        <time>2025-05-02T09:09:27Z</time>
      </trkpt>
      <trkpt lat="42.342939963564277" lon="-7.871038997545838">
        <ele>111.65000000000001</ele>
        <time>2025-05-02T09:09:28Z</time>
      </trkpt>
      <trkpt lat="42.343004001304507" lon="-7.870888961479068">
        <ele>111.65000000000001</ele>
        <time>2025-05-02T09:09:29Z</time>
      </trkpt>
      <trkpt lat="42.343004001304507" lon="-7.870888961479068">
        <ele>111.65000000000001</ele>
        <time>2025-05-02T09:09:30Z</time>
      </trkpt>
      <trkpt lat="42.343020010739565" lon="-7.870868006721139">
        <ele>111.65000000000001</ele>
        <time>2025-05-02T09:09:31Z</time>
      </trkpt>
      <trkpt lat="42.343068961054087" lon="-7.870802963152528">
        <ele>112.13</ele>
        <time>2025-05-02T09:09:32Z</time>
      </trkpt>
      <trkpt lat="42.343175997957587" lon="-7.870587967336178">
        <ele>112.61</ele>
        <time>2025-05-02T09:09:33Z</time>
      </trkpt>
      <trkpt lat="42.343221008777618" lon="-7.870508003979921">
        <ele>112.61</ele>
        <time>2025-05-02T09:09:34Z</time>
      </trkpt>
      <trkpt lat="42.343269037082791" lon="-7.87041999399662">
        <ele>112.61</ele>
        <time>2025-05-02T09:09:35Z</time>
      </trkpt>
      <trkpt lat="42.343301977962255" lon="-7.870298959314823">
        <ele>112.61</ele>
        <time>2025-05-02T09:09:36Z</time>
      </trkpt>
      <trkpt lat="42.34333198517561" lon="-7.870079018175602">
        <ele>112.13</ele>
        <time>2025-05-02T09:09:38Z</time>
      </trkpt>
      <trkpt lat="42.343386970460415" lon="-7.868793988600373">
        <ele>111.65000000000001</ele>
        <time>2025-05-02T09:09:50Z</time>
      </trkpt>
      <trkpt lat="42.343386970460415" lon="-7.868688963353634">
        <ele>111.65000000000001</ele>
        <time>2025-05-02T09:09:51Z</time>
      </trkpt>
      <trkpt lat="42.343369033187628" lon="-7.86850699223578">
        <ele>112.13</ele>
        <time>2025-05-02T09:09:53Z</time>
      </trkpt>
      <trkpt lat="42.343369033187628" lon="-7.86850699223578">
        <ele>112.13</ele>
        <time>2025-05-02T09:09:54Z</time>
      </trkpt>
      <trkpt lat="42.343270964920521" lon="-7.86842199973762">
        <ele>112.13</ele>
        <time>2025-05-02T09:09:55Z</time>
      </trkpt>
      <trkpt lat="42.343197036534548" lon="-7.868357039988041">
        <ele>112.13</ele>
        <time>2025-05-02T09:09:56Z</time>
      </trkpt>
      <trkpt lat="42.343197036534548" lon="-7.868357039988041">
        <ele>112.61</ele>
        <time>2025-05-02T09:09:57Z</time>
      </trkpt>
      <trkpt lat="42.343079019337893" lon="-7.868288978934288">
        <ele>112.61</ele>
        <time>2025-05-02T09:09:58Z</time>
      </trkpt>
      <trkpt lat="42.343017999082804" lon="-7.868254026398063">
        <ele>113.09</ele>
        <time>2025-05-02T09:09:59Z</time>
      </trkpt>
      <trkpt lat="42.342953961342573" lon="-7.868217984214425">
        <ele>113.09</ele>
        <time>2025-05-02T09:10:00Z</time>
      </trkpt>
      <trkpt lat="42.342565041035414" lon="-7.868022015318275">
        <ele>115.5</ele>
        <time>2025-05-02T09:10:08Z</time>
      </trkpt>
      <trkpt lat="42.342348033562303" lon="-7.867935011163354">
        <ele>116.45999999999999</ele>
        <time>2025-05-02T09:10:12Z</time>
      </trkpt>
      <trkpt lat="42.342298999428749" lon="-7.867911960929632">
        <ele>116.45999999999999</ele>
        <time>2025-05-02T09:10:13Z</time>
      </trkpt>
      <trkpt lat="42.342177964746952" lon="-7.867855969816446">
        <ele>116.45999999999999</ele>
        <time>2025-05-02T09:10:14Z</time>
      </trkpt>
      <trkpt lat="42.341774040833116" lon="-7.867662012577057">
        <ele>117.42</ele>
        <time>2025-05-02T09:10:20Z</time>
      </trkpt>
      <trkpt lat="42.341712014749646" lon="-7.867632005363703">
        <ele>117.42</ele>
        <time>2025-05-02T09:10:21Z</time>
      </trkpt>
      <trkpt lat="42.341598020866513" lon="-7.867578025907278">
        <ele>117.42</ele>
        <time>2025-05-02T09:10:23Z</time>
      </trkpt>
      <trkpt lat="42.341557033360004" lon="-7.867557993158698">
        <ele>117.42</ele>
        <time>2025-05-02T09:10:24Z</time>
      </trkpt>
      <trkpt lat="42.341294009238482" lon="-7.867426984012127">
        <ele>116.94</ele>
        <time>2025-05-02T09:10:30Z</time>
      </trkpt>
      <trkpt lat="42.340656984597445" lon="-7.867108974605799">
        <ele>114.05</ele>
        <time>2025-05-02T09:10:42Z</time>
      </trkpt>
      <trkpt lat="42.340391026809812" lon="-7.866979977115989">
        <ele>109.25</ele>
        <time>2025-05-02T09:10:55Z</time>
      </trkpt>
      <trkpt lat="42.340255994349718" lon="-7.866914011538029">
        <ele>106.84</ele>
        <time>2025-05-02T09:11:18Z</time>
      </trkpt>
      <trkpt lat="42.339755007997155" lon="-7.866661967709661">
        <ele>112.13</ele>
        <time>2025-05-02T09:11:28Z</time>
      </trkpt>
      <trkpt lat="42.339647971093655" lon="-7.866603964939714">
        <ele>118.86</ele>
        <time>2025-05-02T09:11:31Z</time>
      </trkpt>
      <trkpt lat="42.339631961658597" lon="-7.866559959948063">
        <ele>120.3</ele>
        <time>2025-05-02T09:11:32Z</time>
      </trkpt>
      <trkpt lat="42.339628022164106" lon="-7.866520984098315">
        <ele>122.22</ele>
        <time>2025-05-02T09:11:33Z</time>
      </trkpt>
      <trkpt lat="42.33967998996377" lon="-7.866396009922028">
        <ele>124.63</ele>
        <time>2025-05-02T09:11:34Z</time>
      </trkpt>
      <trkpt lat="42.339699016883969" lon="-7.86640003323555">
        <ele>126.55</ele>
        <time>2025-05-02T09:11:35Z</time>
      </trkpt>
      <trkpt lat="42.339699016883969" lon="-7.86640003323555">
        <ele>127.51000000000001</ele>
        <time>2025-05-02T09:11:48Z</time>
      </trkpt>
      <trkpt lat="42.339699016883969" lon="-7.86640003323555">
        <ele>128.47</ele>
        <time>2025-05-02T09:11:50Z</time>
      </trkpt>
      <trkpt lat="42.33974302187562" lon="-7.866407996043563">
        <ele>128.47</ele>
        <time>2025-05-02T09:11:51Z</time>
      </trkpt>
      <trkpt lat="42.339767999947071" lon="-7.866413025185466">
        <ele>128.94999999999999</ele>
        <time>2025-05-02T09:11:52Z</time>
      </trkpt>
      <trkpt lat="42.339793983846903" lon="-7.866418976336718">
        <ele>128.47</ele>
        <time>2025-05-02T09:11:53Z</time>
      </trkpt>
      <trkpt lat="42.339935973286629" lon="-7.866446971893311">
        <ele>128.47</ele>
        <time>2025-05-02T09:11:54Z</time>
      </trkpt>
      <trkpt lat="42.340005040168762" lon="-7.866401961073279">
        <ele>128.94999999999999</ele>
        <time>2025-05-02T09:11:57Z</time>
      </trkpt>
      <trkpt lat="42.340118028223515" lon="-7.866328032687306">
        <ele>128.94999999999999</ele>
        <time>2025-05-02T09:11:58Z</time>
      </trkpt>
      <trkpt lat="42.340380968526006" lon="-7.866155030205846">
        <ele>129.91999999999999</ele>
        <time>2025-05-02T09:12:04Z</time>
      </trkpt>
      <trkpt lat="42.340653967112303" lon="-7.86597297526896">
        <ele>130.40000000000001</ele>
        <time>2025-05-02T09:12:12Z</time>
      </trkpt>
      <trkpt lat="42.340698977932334" lon="-7.865941040217876">
        <ele>130.88</ele>
        <time>2025-05-02T09:12:24Z</time>
      </trkpt>
      <trkpt lat="42.340734014287591" lon="-7.865914972499013">
        <ele>130.88</ele>
        <time>2025-05-02T09:12:25Z</time>
      </trkpt>
      <trkpt lat="42.341132992878556" lon="-7.865616995841265">
        <ele>130.88</ele>
        <time>2025-05-02T09:12:34Z</time>
      </trkpt>
      <trkpt lat="42.341345977038145" lon="-7.86545597948134">
        <ele>129.91999999999999</ele>
        <time>2025-05-02T09:12:43Z</time>
      </trkpt>
      <trkpt lat="42.341559967026114" lon="-7.865294041112065">
        <ele>129.43000000000001</ele>
        <time>2025-05-02T09:12:53Z</time>
      </trkpt>
      <trkpt lat="42.34156901948154" lon="-7.86500696092844">
        <ele>134.24000000000001</ele>
        <time>2025-05-02T09:13:02Z</time>
      </trkpt>
      <trkpt lat="42.341469023376703" lon="-7.86474796012044">
        <ele>135.68000000000001</ele>
        <time>2025-05-02T09:13:07Z</time>
      </trkpt>
      <trkpt lat="42.341449996456504" lon="-7.864696998149157">
        <ele>135.68000000000001</ele>
        <time>2025-05-02T09:13:08Z</time>
      </trkpt>
      <trkpt lat="42.341501964256167" lon="-7.864607982337475">
        <ele>135.68000000000001</ele>
        <time>2025-05-02T09:13:09Z</time>
      </trkpt>
      <trkpt lat="42.341550998389721" lon="-7.864561965689063">
        <ele>136.16</ele>
        <time>2025-05-02T09:13:10Z</time>
      </trkpt>
      <trkpt lat="42.341600032523274" lon="-7.864517960697413">
        <ele>136.16</ele>
        <time>2025-05-02T09:13:11Z</time>
      </trkpt>
      <trkpt lat="42.341787032783031" lon="-7.864346969872713">
        <ele>135.68000000000001</ele>
        <time>2025-05-02T09:13:15Z</time>
      </trkpt>
      <trkpt lat="42.3418939858675" lon="-7.864248985424638">
        <ele>135.68000000000001</ele>
        <time>2025-05-02T09:13:17Z</time>
      </trkpt>
      <trkpt lat="42.342381980270147" lon="-7.86378001794219">
        <ele>133.75999999999999</ele>
        <time>2025-05-02T09:13:55Z</time>
      </trkpt>
      <trkpt lat="42.342381980270147" lon="-7.86378001794219">
        <ele>133.75999999999999</ele>
        <time>2025-05-02T09:14:29Z</time>
      </trkpt>
      <trkpt lat="42.342480970546603" lon="-7.863684967160225">
        <ele>135.68000000000001</ele>
        <time>2025-05-02T09:14:43Z</time>
      </trkpt>
      <trkpt lat="42.342490023002028" lon="-7.863677004352212">
        <ele>135.68000000000001</ele>
        <time>2025-05-02T09:14:49Z</time>
      </trkpt>
      <trkpt lat="42.342490023002028" lon="-7.863677004352212">
        <ele>135.68000000000001</ele>
        <time>2025-05-02T09:14:50Z</time>
      </trkpt>
      <trkpt lat="42.342541990801692" lon="-7.863731989637017">
        <ele>136.16</ele>
        <time>2025-05-02T09:14:51Z</time>
      </trkpt>
      <trkpt lat="42.342546014115214" lon="-7.863769959658384">
        <ele>136.63999999999999</ele>
        <time>2025-05-02T09:14:52Z</time>
      </trkpt>
      <trkpt lat="42.342550037428737" lon="-7.863818993791938">
        <ele>137.13</ele>
        <time>2025-05-02T09:14:53Z</time>
      </trkpt>
      <trkpt lat="42.342554982751608" lon="-7.863869033753872">
        <ele>137.61000000000001</ele>
        <time>2025-05-02T09:14:54Z</time>
      </trkpt>
      <trkpt lat="42.342560011893511" lon="-7.863916978240013">
        <ele>138.09</ele>
        <time>2025-05-02T09:14:55Z</time>
      </trkpt>
      <trkpt lat="42.342565041035414" lon="-7.863969029858708">
        <ele>138.56999999999999</ele>
        <time>2025-05-02T09:14:56Z</time>
      </trkpt>
      <trkpt lat="42.342553976923227" lon="-7.864333977922797">
        <ele>140.97</ele>
        <time>2025-05-02T09:15:04Z</time>
      </trkpt>
      <trkpt lat="42.342415004968643" lon="-7.864500023424625">
        <ele>141.44999999999999</ele>
        <time>2025-05-02T09:15:07Z</time>
      </trkpt>
      <trkpt lat="42.342297993600368" lon="-7.864603037014604">
        <ele>142.41</ele>
        <time>2025-05-02T09:15:09Z</time>
      </trkpt>
      <trkpt lat="42.342037986963987" lon="-7.864837981760502">
        <ele>142.88999999999999</ele>
        <time>2025-05-02T09:15:13Z</time>
      </trkpt>
      <trkpt lat="42.341610006988049" lon="-7.865255987271667">
        <ele>144.34</ele>
        <time>2025-05-02T09:15:20Z</time>
      </trkpt>
      <trkpt lat="42.340652039274573" lon="-7.865974986925721">
        <ele>145.30000000000001</ele>
        <time>2025-05-02T09:15:32Z</time>
      </trkpt>
      <trkpt lat="42.340334029868245" lon="-7.866185959428549">
        <ele>145.78</ele>
        <time>2025-05-02T09:15:40Z</time>
      </trkpt>
      <trkpt lat="42.340311985462904" lon="-7.866200041025877">
        <ele>145.78</ele>
        <time>2025-05-02T09:15:53Z</time>
      </trkpt>
      <trkpt lat="42.34011098742485" lon="-7.866331972181797">
        <ele>146.25999999999999</ele>
        <time>2025-05-02T09:16:22Z</time>
      </trkpt>
      <trkpt lat="42.339935973286629" lon="-7.866446971893311">
        <ele>143.37</ele>
        <time>2025-05-02T09:16:26Z</time>
      </trkpt>
      <trkpt lat="42.339935973286629" lon="-7.866446971893311">
        <ele>142.41</ele>
        <time>2025-05-02T09:16:27Z</time>
      </trkpt>
      <trkpt lat="42.339925998821855" lon="-7.866579992696643">
        <ele>139.05000000000001</ele>
        <time>2025-05-02T09:16:28Z</time>
      </trkpt>
      <trkpt lat="42.339923987165093" lon="-7.866614023223519">
        <ele>138.56999999999999</ele>
        <time>2025-05-02T09:16:29Z</time>
      </trkpt>
      <trkpt lat="42.339921975508332" lon="-7.866633972153068">
        <ele>138.09</ele>
        <time>2025-05-02T09:16:30Z</time>
      </trkpt>
      <trkpt lat="42.339821979403496" lon="-7.866698009893298">
        <ele>137.61000000000001</ele>
        <time>2025-05-02T09:16:31Z</time>
      </trkpt>
      <trkpt lat="42.339806975796819" lon="-7.866689963266254">
        <ele>137.13</ele>
        <time>2025-05-02T09:16:32Z</time>
      </trkpt>
      <trkpt lat="42.339790966361761" lon="-7.86668099462986">
        <ele>137.13</ele>
        <time>2025-05-02T09:16:33Z</time>
      </trkpt>
      <trkpt lat="42.339771017432213" lon="-7.866671020165086">
        <ele>137.13</ele>
        <time>2025-05-02T09:16:34Z</time>
      </trkpt>
      <trkpt lat="42.339770011603832" lon="-7.866670014336705">
        <ele>136.63999999999999</ele>
        <time>2025-05-02T09:16:35Z</time>
      </trkpt>
      <trkpt lat="42.339740004390478" lon="-7.866654004901648">
        <ele>136.16</ele>
        <time>2025-05-02T09:16:36Z</time>
      </trkpt>
      <trkpt lat="42.339703040197492" lon="-7.866633972153068">
        <ele>135.68000000000001</ele>
        <time>2025-05-02T09:16:37Z</time>
      </trkpt>
      <trkpt lat="42.339634979143739" lon="-7.866597007960081">
        <ele>135.19999999999999</ele>
        <time>2025-05-02T09:16:38Z</time>
      </trkpt>
      <trkpt lat="42.339616036042571" lon="-7.866588039323688">
        <ele>134.72</ele>
        <time>2025-05-02T09:16:39Z</time>
      </trkpt>
      <trkpt lat="42.339518973603845" lon="-7.866545040160418">
        <ele>134.24000000000001</ele>
        <time>2025-05-02T09:16:40Z</time>
      </trkpt>
      <trkpt lat="42.339465999975801" lon="-7.866520984098315">
        <ele>133.28</ele>
        <time>2025-05-02T09:16:41Z</time>
      </trkpt>
      <trkpt lat="42.339415960013866" lon="-7.866499023512006">
        <ele>132.80000000000001</ele>
        <time>2025-05-02T09:16:42Z</time>
      </trkpt>
      <trkpt lat="42.339050006121397" lon="-7.866333983838558">
        <ele>126.55</ele>
        <time>2025-05-02T09:16:53Z</time>
      </trkpt>
      <trkpt lat="42.338725039735436" lon="-7.86618797108531">
        <ele>121.73999999999999</ele>
        <time>2025-05-02T09:17:04Z</time>
      </trkpt>
      <trkpt lat="42.338668964803219" lon="-7.866161987185478">
        <ele>121.26000000000001</ele>
        <time>2025-05-02T09:17:05Z</time>
      </trkpt>
      <trkpt lat="42.338466038927436" lon="-7.866070959717035">
        <ele>119.34</ele>
        <time>2025-05-02T09:17:08Z</time>
      </trkpt>
      <trkpt lat="42.338466038927436" lon="-7.866070959717035">
        <ele>118.86</ele>
        <time>2025-05-02T09:17:09Z</time>
      </trkpt>
      <trkpt lat="42.338227992877364" lon="-7.86599300801754">
        <ele>116.94</ele>
        <time>2025-05-02T09:17:12Z</time>
      </trkpt>
      <trkpt lat="42.338075023144484" lon="-7.865960989147425">
        <ele>115.01000000000001</ele>
        <time>2025-05-02T09:17:15Z</time>
      </trkpt>
      <trkpt lat="42.338075023144484" lon="-7.865960989147425">
        <ele>114.53</ele>
        <time>2025-05-02T09:17:16Z</time>
      </trkpt>
      <trkpt lat="42.337707979604602" lon="-7.865931987762451">
        <ele>111.65000000000001</ele>
        <time>2025-05-02T09:17:21Z</time>
      </trkpt>
      <trkpt lat="42.337706973776221" lon="-7.865931987762451">
        <ele>111.65000000000001</ele>
        <time>2025-05-02T09:17:22Z</time>
      </trkpt>
      <trkpt lat="42.33748996630311" lon="-7.865931987762451">
        <ele>112.13</ele>
        <time>2025-05-02T09:17:27Z</time>
      </trkpt>
      <trkpt lat="42.337456019595265" lon="-7.865931987762451">
        <ele>112.13</ele>
        <time>2025-05-02T09:17:28Z</time>
      </trkpt>
      <trkpt lat="42.337456019595265" lon="-7.865931987762451">
        <ele>113.56999999999999</ele>
        <time>2025-05-02T09:17:35Z</time>
      </trkpt>
      <trkpt lat="42.337472029030323" lon="-7.865931987762451">
        <ele>113.56999999999999</ele>
        <time>2025-05-02T09:17:36Z</time>
      </trkpt>
      <trkpt lat="42.337502958253026" lon="-7.865931987762451">
        <ele>113.56999999999999</ele>
        <time>2025-05-02T09:17:37Z</time>
      </trkpt>
      <trkpt lat="42.337903026491404" lon="-7.865931987762451">
        <ele>115.01000000000001</ele>
        <time>2025-05-02T09:17:46Z</time>
      </trkpt>
      <trkpt lat="42.337978966534138" lon="-7.865940034389496">
        <ele>115.01000000000001</ele>
        <time>2025-05-02T09:17:48Z</time>
      </trkpt>
      <trkpt lat="42.338059013709426" lon="-7.865956965833902">
        <ele>115.5</ele>
        <time>2025-05-02T09:17:50Z</time>
      </trkpt>
      <trkpt lat="42.338185999542475" lon="-7.865984039381146">
        <ele>115.5</ele>
        <time>2025-05-02T09:17:53Z</time>
      </trkpt>
      <trkpt lat="42.338233022019267" lon="-7.865994013845921">
        <ele>115.5</ele>
        <time>2025-05-02T09:17:54Z</time>
      </trkpt>
      <trkpt lat="42.338263029232621" lon="-7.865999964997172">
        <ele>115.5</ele>
        <time>2025-05-02T09:17:55Z</time>
      </trkpt>
      <trkpt lat="42.338306028395891" lon="-7.866009017452598">
        <ele>115.5</ele>
        <time>2025-05-02T09:17:56Z</time>
      </trkpt>
      <trkpt lat="42.338338969275355" lon="-7.86601597443223">
        <ele>115.98</ele>
        <time>2025-05-02T09:17:57Z</time>
      </trkpt>
      <trkpt lat="42.338377023115754" lon="-7.866030978038907">
        <ele>116.45999999999999</ele>
        <time>2025-05-02T09:17:58Z</time>
      </trkpt>
      <trkpt lat="42.338377023115754" lon="-7.866030978038907">
        <ele>117.90000000000001</ele>
        <time>2025-05-02T09:18:12Z</time>
      </trkpt>
      <trkpt lat="42.338582966476679" lon="-7.866124017164111">
        <ele>126.06999999999999</ele>
        <time>2025-05-02T09:18:28Z</time>
      </trkpt>
      <trkpt lat="42.338895024731755" lon="-7.866263994947076">
        <ele>131.36000000000001</ele>
        <time>2025-05-02T09:18:38Z</time>
      </trkpt>
      <trkpt lat="42.338895024731755" lon="-7.866263994947076">
        <ele>131.84</ele>
        <time>2025-05-02T09:18:42Z</time>
      </trkpt>
      <trkpt lat="42.338986974209547" lon="-7.866305988281965">
        <ele>133.28</ele>
        <time>2025-05-02T09:18:56Z</time>
      </trkpt>
      <trkpt lat="42.338986974209547" lon="-7.866305988281965">
        <ele>133.75999999999999</ele>
        <time>2025-05-02T09:19:34Z</time>
      </trkpt>
      <trkpt lat="42.338986974209547" lon="-7.866305988281965">
        <ele>133.75999999999999</ele>
        <time>2025-05-02T09:19:56Z</time>
      </trkpt>
      <trkpt lat="42.339201970025897" lon="-7.866401961073279">
        <ele>135.68000000000001</ele>
        <time>2025-05-02T09:20:14Z</time>
      </trkpt>
      <trkpt lat="42.339261984452605" lon="-7.866429034620524">
        <ele>136.16</ele>
        <time>2025-05-02T09:20:16Z</time>
      </trkpt>
      <trkpt lat="42.339261984452605" lon="-7.866429034620524">
        <ele>137.61000000000001</ele>
        <time>2025-05-02T09:20:17Z</time>
      </trkpt>
      <trkpt lat="42.339319987222552" lon="-7.866455018520355">
        <ele>138.56999999999999</ele>
        <time>2025-05-02T09:20:18Z</time>
      </trkpt>
      <trkpt lat="42.339376984164119" lon="-7.866481002420187">
        <ele>139.53</ele>
        <time>2025-05-02T09:20:19Z</time>
      </trkpt>
      <trkpt lat="42.339425012469292" lon="-7.866502963006496">
        <ele>140.00999999999999</ele>
        <time>2025-05-02T09:20:20Z</time>
      </trkpt>
      <trkpt lat="42.339458959177136" lon="-7.866517966613174">
        <ele>140.00999999999999</ele>
        <time>2025-05-02T09:20:21Z</time>
      </trkpt>
      <trkpt lat="42.339493995532393" lon="-7.866533976048231">
        <ele>140.97</ele>
        <time>2025-05-02T09:20:22Z</time>
      </trkpt>
      <trkpt lat="42.339518973603845" lon="-7.866545040160418">
        <ele>141.44999999999999</ele>
        <time>2025-05-02T09:20:23Z</time>
      </trkpt>
      <trkpt lat="42.339543029665947" lon="-7.866556020453572">
        <ele>141.44999999999999</ele>
        <time>2025-05-02T09:20:24Z</time>
      </trkpt>
      <trkpt lat="42.339634979143739" lon="-7.866597007960081">
        <ele>142.41</ele>
        <time>2025-05-02T09:20:29Z</time>
      </trkpt>
      <trkpt lat="42.339634979143739" lon="-7.866597007960081">
        <ele>142.41</ele>
        <time>2025-05-02T09:20:30Z</time>
      </trkpt>
      <trkpt lat="42.339935973286629" lon="-7.866446971893311">
        <ele>142.88999999999999</ele>
        <time>2025-05-02T09:20:32Z</time>
      </trkpt>
      <trkpt lat="42.340284995734692" lon="-7.866217978298664">
        <ele>143.37</ele>
        <time>2025-05-02T09:20:39Z</time>
      </trkpt>
      <trkpt lat="42.341152019798756" lon="-7.865602998062968">
        <ele>142.88999999999999</ele>
        <time>2025-05-02T09:20:49Z</time>
      </trkpt>
      <trkpt lat="42.34148696064949" lon="-7.865349026396871">
        <ele>142.41</ele>
        <time>2025-05-02T09:20:53Z</time>
      </trkpt>
      <trkpt lat="42.34148696064949" lon="-7.865349026396871">
        <ele>142.41</ele>
        <time>2025-05-02T09:20:54Z</time>
      </trkpt>
      <trkpt lat="42.34161302447319" lon="-7.865253975614905">
        <ele>142.41</ele>
        <time>2025-05-02T09:20:55Z</time>
      </trkpt>
      <trkpt lat="42.341652000322938" lon="-7.865223968401551">
        <ele>142.41</ele>
        <time>2025-05-02T09:20:56Z</time>
      </trkpt>
      <trkpt lat="42.341652000322938" lon="-7.865223968401551">
        <ele>142.41</ele>
        <time>2025-05-02T09:20:57Z</time>
      </trkpt>
      <trkpt lat="42.341652000322938" lon="-7.865223968401551">
        <ele>143.37</ele>
        <time>2025-05-02T09:20:58Z</time>
      </trkpt>
      <trkpt lat="42.341610006988049" lon="-7.865113997831941">
        <ele>143.37</ele>
        <time>2025-05-02T09:20:59Z</time>
      </trkpt>
      <trkpt lat="42.341544041410089" lon="-7.864942001178861">
        <ele>143.84999999999999</ele>
        <time>2025-05-02T09:21:00Z</time>
      </trkpt>
      <trkpt lat="42.341517973691225" lon="-7.86487502977252">
        <ele>143.84999999999999</ele>
        <time>2025-05-02T09:21:01Z</time>
      </trkpt>
      <trkpt lat="42.341518979519606" lon="-7.864877041429281">
        <ele>144.34</ele>
        <time>2025-05-02T09:21:02Z</time>
      </trkpt>
      <trkpt lat="42.341495007276535" lon="-7.864815015345812">
        <ele>144.34</ele>
        <time>2025-05-02T09:21:03Z</time>
      </trkpt>
      <trkpt lat="42.341403979808092" lon="-7.864604964852333">
        <ele>142.88999999999999</ele>
        <time>2025-05-02T09:21:11Z</time>
      </trkpt>
      <trkpt lat="42.341327033936977" lon="-7.86446800455451">
        <ele>142.88999999999999</ele>
        <time>2025-05-02T09:21:18Z</time>
      </trkpt>
      <trkpt lat="42.341041965410113" lon="-7.86384497769177">
        <ele>144.81999999999999</ele>
        <time>2025-05-02T09:21:28Z</time>
      </trkpt>
      <trkpt lat="42.341017993167043" lon="-7.863794015720487">
        <ele>144.81999999999999</ele>
        <time>2025-05-02T09:21:29Z</time>
      </trkpt>
      <trkpt lat="42.34094699844718" lon="-7.863642973825336">
        <ele>144.81999999999999</ele>
        <time>2025-05-02T09:21:32Z</time>
      </trkpt>
      <trkpt lat="42.340873992070556" lon="-7.863487992435694">
        <ele>144.81999999999999</ele>
        <time>2025-05-02T09:21:35Z</time>
      </trkpt>
      <trkpt lat="42.340756980702281" lon="-7.863239971920848">
        <ele>144.34</ele>
        <time>2025-05-02T09:21:44Z</time>
      </trkpt>
      <trkpt lat="42.340660002082586" lon="-7.862940989434719">
        <ele>140.97</ele>
        <time>2025-05-02T09:21:56Z</time>
      </trkpt>
      <trkpt lat="42.340579032897949" lon="-7.862687017768621">
        <ele>138.09</ele>
        <time>2025-05-02T09:22:10Z</time>
      </trkpt>
      <trkpt lat="42.340482976287603" lon="-7.862385017797351">
        <ele>134.24000000000001</ele>
        <time>2025-05-02T09:22:15Z</time>
      </trkpt>
      <trkpt lat="42.340301005169749" lon="-7.861879002302885">
        <ele>130.88</ele>
        <time>2025-05-02T09:22:22Z</time>
      </trkpt>
      <trkpt lat="42.340265968814492" lon="-7.861785963177681">
        <ele>129.91999999999999</ele>
        <time>2025-05-02T09:22:23Z</time>
      </trkpt>
      <trkpt lat="42.340235961601138" lon="-7.861704993993044">
        <ele>129.91999999999999</ele>
        <time>2025-05-02T09:22:24Z</time>
      </trkpt>
      <trkpt lat="42.340202014893293" lon="-7.861651014536619">
        <ele>129.91999999999999</ele>
        <time>2025-05-02T09:22:25Z</time>
      </trkpt>
      <trkpt lat="42.340160021558404" lon="-7.861584965139628">
        <ele>129.91999999999999</ele>
        <time>2025-05-02T09:22:26Z</time>
      </trkpt>
      <trkpt lat="42.339693987742066" lon="-7.861048020422459">
        <ele>130.40000000000001</ele>
        <time>2025-05-02T09:22:35Z</time>
      </trkpt>
      <trkpt lat="42.339651994407177" lon="-7.861003009602428">
        <ele>130.40000000000001</ele>
        <time>2025-05-02T09:22:36Z</time>
      </trkpt>
      <trkpt lat="42.339590974152088" lon="-7.860936960205436">
        <ele>130.88</ele>
        <time>2025-05-02T09:22:37Z</time>
      </trkpt>
      <trkpt lat="42.339590974152088" lon="-7.860937966033816">
        <ele>130.88</ele>
        <time>2025-05-02T09:22:38Z</time>
      </trkpt>
      <trkpt lat="42.339590974152088" lon="-7.860937966033816">
        <ele>132.31999999999999</ele>
        <time>2025-05-02T09:22:39Z</time>
      </trkpt>
      <trkpt lat="42.339590974152088" lon="-7.860937966033816">
        <ele>133.75999999999999</ele>
        <time>2025-05-02T09:22:57Z</time>
      </trkpt>
      <trkpt lat="42.339538000524044" lon="-7.860879963263869">
        <ele>134.72</ele>
        <time>2025-05-02T09:23:23Z</time>
      </trkpt>
      <trkpt lat="42.339530037716031" lon="-7.860870994627476">
        <ele>138.56999999999999</ele>
        <time>2025-05-02T09:23:24Z</time>
      </trkpt>
      <trkpt lat="42.339506987482309" lon="-7.860847022384405">
        <ele>142.41</ele>
        <time>2025-05-02T09:23:25Z</time>
      </trkpt>
      <trkpt lat="42.339539006352425" lon="-7.860802011564374">
        <ele>144.34</ele>
        <time>2025-05-02T09:23:26Z</time>
      </trkpt>
      <trkpt lat="42.339577982202172" lon="-7.860748032107949">
        <ele>145.78</ele>
        <time>2025-05-02T09:23:27Z</time>
      </trkpt>
      <trkpt lat="42.339619975537062" lon="-7.860691035166383">
        <ele>146.25999999999999</ele>
        <time>2025-05-02T09:23:28Z</time>
      </trkpt>
      <trkpt lat="42.339668003842235" lon="-7.860624985769391">
        <ele>146.74000000000001</ele>
        <time>2025-05-02T09:23:29Z</time>
      </trkpt>
      <trkpt lat="42.339717037975788" lon="-7.860558014363051">
        <ele>146.74000000000001</ele>
        <time>2025-05-02T09:23:30Z</time>
      </trkpt>
      <trkpt lat="42.339817034080625" lon="-7.860419964417815">
        <ele>146.74000000000001</ele>
        <time>2025-05-02T09:23:32Z</time>
      </trkpt>
      <trkpt lat="42.339863972738385" lon="-7.860355004668236">
        <ele>146.25999999999999</ele>
        <time>2025-05-02T09:23:33Z</time>
      </trkpt>
      <trkpt lat="42.339914012700319" lon="-7.860286021605134">
        <ele>146.25999999999999</ele>
        <time>2025-05-02T09:23:34Z</time>
      </trkpt>
      <trkpt lat="42.339965980499983" lon="-7.860215026885271">
        <ele>145.78</ele>
        <time>2025-05-02T09:23:36Z</time>
      </trkpt>
      <trkpt lat="42.340021971613169" lon="-7.860139003023505">
        <ele>145.78</ele>
        <time>2025-05-02T09:23:37Z</time>
      </trkpt>
      <trkpt lat="42.340064970776439" lon="-7.860081000253558">
        <ele>145.30000000000001</ele>
        <time>2025-05-02T09:23:38Z</time>
      </trkpt>
      <trkpt lat="42.340116016566753" lon="-7.860014028847218">
        <ele>145.30000000000001</ele>
        <time>2025-05-02T09:23:39Z</time>
      </trkpt>
      <trkpt lat="42.340162033215165" lon="-7.859953008592129">
        <ele>145.30000000000001</ele>
        <time>2025-05-02T09:23:40Z</time>
      </trkpt>
      <trkpt lat="42.340202014893293" lon="-7.859901040792465">
        <ele>145.30000000000001</ele>
        <time>2025-05-02T09:23:41Z</time>
      </trkpt>
      <trkpt lat="42.340230010449886" lon="-7.859862986952066">
        <ele>145.30000000000001</ele>
        <time>2025-05-02T09:23:42Z</time>
      </trkpt>
      <trkpt lat="42.340249959379435" lon="-7.859837003052235">
        <ele>145.30000000000001</ele>
        <time>2025-05-02T09:23:53Z</time>
      </trkpt>
      <trkpt lat="42.340249959379435" lon="-7.859837003052235">
        <ele>145.30000000000001</ele>
        <time>2025-05-02T09:24:25Z</time>
      </trkpt>
      <trkpt lat="42.340249959379435" lon="-7.859837003052235">
        <ele>144.34</ele>
        <time>2025-05-02T09:24:32Z</time>
      </trkpt>
      <trkpt lat="42.340545002371073" lon="-7.859446993097663">
        <ele>148.66</ele>
        <time>2025-05-02T09:24:40Z</time>
      </trkpt>
      <trkpt lat="42.340585989877582" lon="-7.859392007812858">
        <ele>149.13999999999999</ele>
        <time>2025-05-02T09:24:41Z</time>
      </trkpt>
      <trkpt lat="42.34092797152698" lon="-7.858892027288675">
        <ele>147.69999999999999</ele>
        <time>2025-05-02T09:24:50Z</time>
      </trkpt>
      <trkpt lat="42.34099100343883" lon="-7.858798988163471">
        <ele>147.69999999999999</ele>
        <time>2025-05-02T09:25:00Z</time>
      </trkpt>
      <trkpt lat="42.34099100343883" lon="-7.858798988163471">
        <ele>147.69999999999999</ele>
        <time>2025-05-02T09:25:17Z</time>
      </trkpt>
      <trkpt lat="42.341003995388746" lon="-7.858779961243272">
        <ele>147.69999999999999</ele>
        <time>2025-05-02T09:25:18Z</time>
      </trkpt>
      <trkpt lat="42.341021010652184" lon="-7.85875397734344">
        <ele>147.69999999999999</ele>
        <time>2025-05-02T09:25:19Z</time>
      </trkpt>
      <trkpt lat="42.341055041179061" lon="-7.858704021200538">
        <ele>147.69999999999999</ele>
        <time>2025-05-02T09:25:20Z</time>
      </trkpt>
      <trkpt lat="42.341101979836822" lon="-7.858635038137436">
        <ele>147.69999999999999</ele>
        <time>2025-05-02T09:25:21Z</time>
      </trkpt>
      <trkpt lat="42.341345977038145" lon="-7.858319962397218">
        <ele>146.74000000000001</ele>
        <time>2025-05-02T09:25:25Z</time>
      </trkpt>
      <trkpt lat="42.341406997293234" lon="-7.858246034011245">
        <ele>146.74000000000001</ele>
        <time>2025-05-02T09:25:26Z</time>
      </trkpt>
      <trkpt lat="42.341465000063181" lon="-7.85817101597786">
        <ele>146.74000000000001</ele>
        <time>2025-05-02T09:25:27Z</time>
      </trkpt>
      <trkpt lat="42.341747973114252" lon="-7.857787040993571">
        <ele>146.25999999999999</ele>
        <time>2025-05-02T09:25:32Z</time>
      </trkpt>
      <trkpt lat="42.341804970055819" lon="-7.857709005475044">
        <ele>146.25999999999999</ele>
        <time>2025-05-02T09:25:33Z</time>
      </trkpt>
      <trkpt lat="42.342071011662483" lon="-7.85731203854084">
        <ele>145.30000000000001</ele>
        <time>2025-05-02T09:25:38Z</time>
      </trkpt>
      <trkpt lat="42.342109987512231" lon="-7.857212964445353">
        <ele>145.30000000000001</ele>
        <time>2025-05-02T09:25:39Z</time>
      </trkpt>
      <trkpt lat="42.342339986935258" lon="-7.85634602420032">
        <ele>146.25999999999999</ele>
        <time>2025-05-02T09:25:48Z</time>
      </trkpt>
      <trkpt lat="42.342358008027077" lon="-7.856261031702161">
        <ele>146.25999999999999</ele>
        <time>2025-05-02T09:25:49Z</time>
      </trkpt>
      <trkpt lat="42.342376029118896" lon="-7.856175033375621">
        <ele>146.25999999999999</ele>
        <time>2025-05-02T09:25:50Z</time>
      </trkpt>
      <trkpt lat="42.342380974441767" lon="-7.856089035049081">
        <ele>146.25999999999999</ele>
        <time>2025-05-02T09:25:51Z</time>
      </trkpt>
      <trkpt lat="42.342378962785006" lon="-7.856008987873793">
        <ele>146.25999999999999</ele>
        <time>2025-05-02T09:25:52Z</time>
      </trkpt>
      <trkpt lat="42.342364965006709" lon="-7.855463996529579">
        <ele>146.74000000000001</ele>
        <time>2025-05-02T09:26:03Z</time>
      </trkpt>
      <trkpt lat="42.342349039390683" lon="-7.855155039578676">
        <ele>145.30000000000001</ele>
        <time>2025-05-02T09:26:11Z</time>
      </trkpt>
      <trkpt lat="42.342320960015059" lon="-7.854809034615755">
        <ele>141.44999999999999</ele>
        <time>2025-05-02T09:26:24Z</time>
      </trkpt>
      <trkpt lat="42.342320960015059" lon="-7.854809034615755">
        <ele>140.97</ele>
        <time>2025-05-02T09:26:42Z</time>
      </trkpt>
      <trkpt lat="42.342295981943607" lon="-7.854518014937639">
        <ele>144.34</ele>
        <time>2025-05-02T09:27:01Z</time>
      </trkpt>
      <trkpt lat="42.342292964458466" lon="-7.85447602160275">
        <ele>144.81999999999999</ele>
        <time>2025-05-02T09:27:02Z</time>
      </trkpt>
      <trkpt lat="42.342249965295196" lon="-7.8539829980582">
        <ele>148.66</ele>
        <time>2025-05-02T09:27:09Z</time>
      </trkpt>
      <trkpt lat="42.34219397418201" lon="-7.853333987295628">
        <ele>149.62</ele>
        <time>2025-05-02T09:27:17Z</time>
      </trkpt>
      <trkpt lat="42.342189028859138" lon="-7.853271961212158">
        <ele>149.62</ele>
        <time>2025-05-02T09:27:18Z</time>
      </trkpt>
      <trkpt lat="42.342189028859138" lon="-7.853271961212158">
        <ele>149.62</ele>
        <time>2025-05-02T09:27:19Z</time>
      </trkpt>
      <trkpt lat="42.342141000553966" lon="-7.853170959278941">
        <ele>149.62</ele>
        <time>2025-05-02T09:27:20Z</time>
      </trkpt>
      <trkpt lat="42.342114010825753" lon="-7.853112034499645">
        <ele>149.62</ele>
        <time>2025-05-02T09:27:21Z</time>
      </trkpt>
      <trkpt lat="42.34208500944078" lon="-7.853052020072937">
        <ele>149.62</ele>
        <time>2025-05-02T09:27:22Z</time>
      </trkpt>
      <trkpt lat="42.342053996399045" lon="-7.852985970675945">
        <ele>149.62</ele>
        <time>2025-05-02T09:27:23Z</time>
      </trkpt>
      <trkpt lat="42.342020971700549" lon="-7.852914975956082">
        <ele>150.09999999999999</ele>
        <time>2025-05-02T09:27:24Z</time>
      </trkpt>
      <trkpt lat="42.341823996976018" lon="-7.8526930231601">
        <ele>150.09999999999999</ele>
        <time>2025-05-02T09:27:28Z</time>
      </trkpt>
      <trkpt lat="42.341760965064168" lon="-7.852655975148082">
        <ele>150.09999999999999</ele>
        <time>2025-05-02T09:27:29Z</time>
      </trkpt>
      <trkpt lat="42.341172974556684" lon="-7.852318016812205">
        <ele>150.09999999999999</ele>
        <time>2025-05-02T09:27:38Z</time>
      </trkpt>
      <trkpt lat="42.3407559748739" lon="-7.852077037096024">
        <ele>150.09999999999999</ele>
        <time>2025-05-02T09:27:45Z</time>
      </trkpt>
      <trkpt lat="42.340149963274598" lon="-7.85174896940589">
        <ele>149.62</ele>
        <time>2025-05-02T09:27:54Z</time>
      </trkpt>
      <trkpt lat="42.33987201936543" lon="-7.851449986919761">
        <ele>149.13999999999999</ele>
        <time>2025-05-02T09:27:59Z</time>
      </trkpt>
      <trkpt lat="42.339837988838553" lon="-7.85138200968504">
        <ele>149.13999999999999</ele>
        <time>2025-05-02T09:28:00Z</time>
      </trkpt>
      <trkpt lat="42.339802030473948" lon="-7.851310009136796">
        <ele>149.13999999999999</ele>
        <time>2025-05-02T09:28:01Z</time>
      </trkpt>
      <trkpt lat="42.339764982461929" lon="-7.851235996931791">
        <ele>149.62</ele>
        <time>2025-05-02T09:28:02Z</time>
      </trkpt>
      <trkpt lat="42.339728018268943" lon="-7.851109011098743">
        <ele>149.62</ele>
        <time>2025-05-02T09:28:03Z</time>
      </trkpt>
      <trkpt lat="42.339712008833885" lon="-7.851021001115441">
        <ele>149.62</ele>
        <time>2025-05-02T09:28:04Z</time>
      </trkpt>
      <trkpt lat="42.339650988578796" lon="-7.850002013146877">
        <ele>149.13999999999999</ele>
        <time>2025-05-02T09:28:14Z</time>
      </trkpt>
      <trkpt lat="42.339637996628881" lon="-7.849691966548562">
        <ele>150.58000000000001</ele>
        <time>2025-05-02T09:28:16Z</time>
      </trkpt>
      <trkpt lat="42.339634979143739" lon="-7.849623989313841">
        <ele>150.58000000000001</ele>
        <time>2025-05-02T09:28:17Z</time>
      </trkpt>
      <trkpt lat="42.339618969708681" lon="-7.849489962682128">
        <ele>150.58000000000001</ele>
        <time>2025-05-02T09:28:18Z</time>
      </trkpt>
      <trkpt lat="42.339589968323708" lon="-7.849403964355588">
        <ele>152.99000000000001</ele>
        <time>2025-05-02T09:28:19Z</time>
      </trkpt>
      <trkpt lat="42.339544035494328" lon="-7.849314026534557">
        <ele>154.91</ele>
        <time>2025-05-02T09:28:20Z</time>
      </trkpt>
      <trkpt lat="42.339506987482309" lon="-7.849238002672792">
        <ele>156.34999999999999</ele>
        <time>2025-05-02T09:28:21Z</time>
      </trkpt>
      <trkpt lat="42.339424006640911" lon="-7.849155021831393">
        <ele>157.31</ele>
        <time>2025-05-02T09:28:22Z</time>
      </trkpt>
      <trkpt lat="42.339362986385822" lon="-7.849094001576304">
        <ele>157.78999999999999</ele>
        <time>2025-05-02T09:28:23Z</time>
      </trkpt>
      <trkpt lat="42.339082024991512" lon="-7.848790995776653">
        <ele>162.59999999999999</ele>
        <time>2025-05-02T09:28:29Z</time>
      </trkpt>
      <trkpt lat="42.339027039706707" lon="-7.848727041855454">
        <ele>163.08000000000001</ele>
        <time>2025-05-02T09:28:30Z</time>
      </trkpt>
      <trkpt lat="42.338930983096361" lon="-7.848558984696865">
        <ele>163.56</ele>
        <time>2025-05-02T09:28:31Z</time>
      </trkpt>
      <trkpt lat="42.338909022510052" lon="-7.848428981378675">
        <ele>165</ele>
        <time>2025-05-02T09:28:32Z</time>
      </trkpt>
      <trkpt lat="42.338909022510052" lon="-7.848426969721913">
        <ele>165.96000000000001</ele>
        <time>2025-05-02T09:28:33Z</time>
      </trkpt>
      <trkpt lat="42.338955961167812" lon="-7.848200993612409">
        <ele>167.88999999999999</ele>
        <time>2025-05-02T09:28:34Z</time>
      </trkpt>
      <trkpt lat="42.33899200335145" lon="-7.848057998344302">
        <ele>169.33000000000001</ele>
        <time>2025-05-02T09:28:35Z</time>
      </trkpt>
      <trkpt lat="42.339036008343101" lon="-7.847776031121612">
        <ele>172.21000000000001</ele>
        <time>2025-05-02T09:28:37Z</time>
      </trkpt>
      <trkpt lat="42.339047994464636" lon="-7.847610991448164">
        <ele>173.66</ele>
        <time>2025-05-02T09:28:38Z</time>
      </trkpt>
      <trkpt lat="42.339017987251282" lon="-7.847460033372045">
        <ele>175.09999999999999</ele>
        <time>2025-05-02T09:28:39Z</time>
      </trkpt>
      <trkpt lat="42.338987980037928" lon="-7.847308991476893">
        <ele>176.53999999999999</ele>
        <time>2025-05-02T09:28:40Z</time>
      </trkpt>
      <trkpt lat="42.338957972824574" lon="-7.847161972895265">
        <ele>178.46000000000001</ele>
        <time>2025-05-02T09:28:41Z</time>
      </trkpt>
      <trkpt lat="42.3389289714396" lon="-7.847016965970397">
        <ele>179.41999999999999</ele>
        <time>2025-05-02T09:28:42Z</time>
      </trkpt>
      <trkpt lat="42.3389289714396" lon="-7.847015960142016">
        <ele>180.87</ele>
        <time>2025-05-02T09:28:43Z</time>
      </trkpt>
      <trkpt lat="42.338924026116729" lon="-7.846771040931344">
        <ele>182.31</ele>
        <time>2025-05-02T09:28:44Z</time>
      </trkpt>
      <trkpt lat="42.338924026116729" lon="-7.846770035102963">
        <ele>183.27000000000001</ele>
        <time>2025-05-02T09:28:45Z</time>
      </trkpt>
      <trkpt lat="42.338968031108379" lon="-7.846575994044542">
        <ele>184.22999999999999</ele>
        <time>2025-05-02T09:28:46Z</time>
      </trkpt>
      <trkpt lat="42.339056041091681" lon="-7.846469962969422">
        <ele>185.19</ele>
        <time>2025-05-02T09:28:47Z</time>
      </trkpt>
      <trkpt lat="42.339103985577822" lon="-7.846443979069591">
        <ele>186.15000000000001</ele>
        <time>2025-05-02T09:28:48Z</time>
      </trkpt>
      <trkpt lat="42.339182021096349" lon="-7.846402991563082">
        <ele>187.59</ele>
        <time>2025-05-02T09:28:49Z</time>
      </trkpt>
      <trkpt lat="42.339342031627893" lon="-7.846319004893303">
        <ele>189.03999999999999</ele>
        <time>2025-05-02T09:28:52Z</time>
      </trkpt>
      <trkpt lat="42.339470023289323" lon="-7.846155976876617">
        <ele>189.03999999999999</ele>
        <time>2025-05-02T09:28:53Z</time>
      </trkpt>
      <trkpt lat="42.339524002745748" lon="-7.846024967730045">
        <ele>189.52000000000001</ele>
        <time>2025-05-02T09:28:54Z</time>
      </trkpt>
      <trkpt lat="42.339576976373792" lon="-7.845895970240235">
        <ele>189.52000000000001</ele>
        <time>2025-05-02T09:28:55Z</time>
      </trkpt>
      <trkpt lat="42.339640008285642" lon="-7.845641998574138">
        <ele>190.47999999999999</ele>
        <time>2025-05-02T09:28:57Z</time>
      </trkpt>
      <trkpt lat="42.339663980528712" lon="-7.845497997477651">
        <ele>191.44</ele>
        <time>2025-05-02T09:28:58Z</time>
      </trkpt>
      <trkpt lat="42.339864978566766" lon="-7.844211962074041">
        <ele>195.28</ele>
        <time>2025-05-02T09:29:06Z</time>
      </trkpt>
      <trkpt lat="42.339886017143726" lon="-7.843886995688081">
        <ele>196.25</ele>
        <time>2025-05-02T09:29:08Z</time>
      </trkpt>
      <trkpt lat="42.33987201936543" lon="-7.843735031783581">
        <ele>197.21000000000001</ele>
        <time>2025-05-02T09:29:09Z</time>
      </trkpt>
      <trkpt lat="42.339812004938722" lon="-7.84309096634388">
        <ele>199.61000000000001</ele>
        <time>2025-05-02T09:29:13Z</time>
      </trkpt>
      <trkpt lat="42.33982902020216" lon="-7.842930033802986">
        <ele>200.09</ele>
        <time>2025-05-02T09:29:14Z</time>
      </trkpt>
      <trkpt lat="42.339860033243895" lon="-7.842772034928203">
        <ele>200.56999999999999</ele>
        <time>2025-05-02T09:29:15Z</time>
      </trkpt>
      <trkpt lat="42.339913006871939" lon="-7.842623004689813">
        <ele>201.53</ele>
        <time>2025-05-02T09:29:16Z</time>
      </trkpt>
      <trkpt lat="42.33998098410666" lon="-7.842475986108184">
        <ele>202.00999999999999</ele>
        <time>2025-05-02T09:29:17Z</time>
      </trkpt>
      <trkpt lat="42.340078968554735" lon="-7.842379007488489">
        <ele>202.49000000000001</ele>
        <time>2025-05-02T09:29:18Z</time>
      </trkpt>
      <trkpt lat="42.340175025165081" lon="-7.842282028868794">
        <ele>202.97999999999999</ele>
        <time>2025-05-02T09:29:19Z</time>
      </trkpt>
      <trkpt lat="42.340275021269917" lon="-7.842189995571971">
        <ele>203.46000000000001</ele>
        <time>2025-05-02T09:29:20Z</time>
      </trkpt>
      <trkpt lat="42.340383986011147" lon="-7.842131992802024">
        <ele>203.94</ele>
        <time>2025-05-02T09:29:21Z</time>
      </trkpt>
      <trkpt lat="42.340495968237519" lon="-7.842071978375316">
        <ele>204.41999999999999</ele>
        <time>2025-05-02T09:29:22Z</time>
      </trkpt>
      <trkpt lat="42.340607028454542" lon="-7.84201699309051">
        <ele>204.90000000000001</ele>
        <time>2025-05-02T09:29:23Z</time>
      </trkpt>
      <trkpt lat="42.341512022539973" lon="-7.841835021972656">
        <ele>204.90000000000001</ele>
        <time>2025-05-02T09:29:31Z</time>
      </trkpt>
      <trkpt lat="42.341862972825766" lon="-7.841793028637767">
        <ele>204.41999999999999</ele>
        <time>2025-05-02T09:29:34Z</time>
      </trkpt>
      <trkpt lat="42.341975038871169" lon="-7.841746006160975">
        <ele>203.94</ele>
        <time>2025-05-02T09:29:35Z</time>
      </trkpt>
      <trkpt lat="42.34206598252058" lon="-7.841645004227758">
        <ele>203.94</ele>
        <time>2025-05-02T09:29:36Z</time>
      </trkpt>
      <trkpt lat="42.342159021645784" lon="-7.841541990637779">
        <ele>203.94</ele>
        <time>2025-05-02T09:29:37Z</time>
      </trkpt>
      <trkpt lat="42.342252982780337" lon="-7.84143696539104">
        <ele>203.46000000000001</ele>
        <time>2025-05-02T09:29:38Z</time>
      </trkpt>
      <trkpt lat="42.342347027733922" lon="-7.841323977336288">
        <ele>203.46000000000001</ele>
        <time>2025-05-02T09:29:39Z</time>
      </trkpt>
      <trkpt lat="42.34240997582674" lon="-7.841185005381703">
        <ele>203.94</ele>
        <time>2025-05-02T09:29:40Z</time>
      </trkpt>
      <trkpt lat="42.342470996081829" lon="-7.841048967093229">
        <ele>204.41999999999999</ele>
        <time>2025-05-02T09:29:41Z</time>
      </trkpt>
      <trkpt lat="42.342534027993679" lon="-7.840904965996742">
        <ele>204.90000000000001</ele>
        <time>2025-05-02T09:29:42Z</time>
      </trkpt>
      <trkpt lat="42.342568980529904" lon="-7.840749984607101">
        <ele>205.38</ele>
        <time>2025-05-02T09:29:43Z</time>
      </trkpt>
      <trkpt lat="42.342655984684825" lon="-7.840259978547692">
        <ele>207.30000000000001</ele>
        <time>2025-05-02T09:29:46Z</time>
      </trkpt>
      <trkpt lat="42.342670988291502" lon="-7.840093011036515">
        <ele>208.25999999999999</ele>
        <time>2025-05-02T09:29:47Z</time>
      </trkpt>
      <trkpt lat="42.342680040746927" lon="-7.839923026040196">
        <ele>208.74000000000001</ele>
        <time>2025-05-02T09:29:48Z</time>
      </trkpt>
      <trkpt lat="42.342671994119883" lon="-7.839757986366749">
        <ele>209.22</ele>
        <time>2025-05-02T09:29:49Z</time>
      </trkpt>
      <trkpt lat="42.34266403131187" lon="-7.839592024683952">
        <ele>209.22</ele>
        <time>2025-05-02T09:29:50Z</time>
      </trkpt>
      <trkpt lat="42.342626983299851" lon="-7.839410975575447">
        <ele>209.69999999999999</ele>
        <time>2025-05-02T09:29:51Z</time>
      </trkpt>
      <trkpt lat="42.342531010508537" lon="-7.839114004746079">
        <ele>210.66999999999999</ele>
        <time>2025-05-02T09:29:53Z</time>
      </trkpt>
      <trkpt lat="42.342482982203364" lon="-7.83896497450769">
        <ele>211.15000000000001</ele>
        <time>2025-05-02T09:29:54Z</time>
      </trkpt>
      <trkpt lat="42.342303022742271" lon="-7.838538000360131">
        <ele>212.59</ele>
        <time>2025-05-02T09:29:58Z</time>
      </trkpt>
      <trkpt lat="42.342089032754302" lon="-7.838142961263657">
        <ele>213.55000000000001</ele>
        <time>2025-05-02T09:30:01Z</time>
      </trkpt>
      <trkpt lat="42.342030024155974" lon="-7.838025027886033">
        <ele>214.03</ele>
        <time>2025-05-02T09:30:02Z</time>
      </trkpt>
      <trkpt lat="42.34200001694262" lon="-7.837904999032617">
        <ele>214.50999999999999</ele>
        <time>2025-05-02T09:30:03Z</time>
      </trkpt>
      <trkpt lat="42.342007979750633" lon="-7.837819000706077">
        <ele>214.99000000000001</ele>
        <time>2025-05-02T09:30:04Z</time>
      </trkpt>
      <trkpt lat="42.342026000842452" lon="-7.837720010429621">
        <ele>215.47</ele>
        <time>2025-05-02T09:30:05Z</time>
      </trkpt>
      <trkpt lat="42.342029018327594" lon="-7.837580032646656">
        <ele>215.47</ele>
        <time>2025-05-02T09:30:06Z</time>
      </trkpt>
      <trkpt lat="42.34212800860405" lon="-7.837380962446332">
        <ele>215.94999999999999</ele>
        <time>2025-05-02T09:30:07Z</time>
      </trkpt>
      <trkpt lat="42.342173019424081" lon="-7.836134992539883">
        <ele>217.40000000000001</ele>
        <time>2025-05-02T09:30:17Z</time>
      </trkpt>
      <trkpt lat="42.342292964458466" lon="-7.834918024018407">
        <ele>219.31999999999999</ele>
        <time>2025-05-02T09:30:24Z</time>
      </trkpt>
      <trkpt lat="42.342292964458466" lon="-7.834918024018407">
        <ele>219.80000000000001</ele>
        <time>2025-05-02T09:30:25Z</time>
      </trkpt>
      <trkpt lat="42.342314003035426" lon="-7.834762958809733">
        <ele>220.28</ele>
        <time>2025-05-02T09:30:26Z</time>
      </trkpt>
      <trkpt lat="42.342335963621736" lon="-7.83460495993495">
        <ele>220.75999999999999</ele>
        <time>2025-05-02T09:30:27Z</time>
      </trkpt>
      <trkpt lat="42.342330012470484" lon="-7.834460958838463">
        <ele>221.24000000000001</ele>
        <time>2025-05-02T09:30:28Z</time>
      </trkpt>
      <trkpt lat="42.342318026348948" lon="-7.834296002984047">
        <ele>221.72</ele>
        <time>2025-05-02T09:30:29Z</time>
      </trkpt>
      <trkpt lat="42.34228097833693" lon="-7.833811026066542">
        <ele>222.68000000000001</ele>
        <time>2025-05-02T09:30:32Z</time>
      </trkpt>
      <trkpt lat="42.342275027185678" lon="-7.833641041070223">
        <ele>223.16</ele>
        <time>2025-05-02T09:30:33Z</time>
      </trkpt>
      <trkpt lat="42.342291958630085" lon="-7.83346401527524">
        <ele>223.16</ele>
        <time>2025-05-02T09:30:34Z</time>
      </trkpt>
      <trkpt lat="42.34232297167182" lon="-7.833312973380089">
        <ele>222.68000000000001</ele>
        <time>2025-05-02T09:30:35Z</time>
      </trkpt>
      <trkpt lat="42.342353984713554" lon="-7.833153968676925">
        <ele>222.19999999999999</ele>
        <time>2025-05-02T09:30:36Z</time>
      </trkpt>
      <trkpt lat="42.342381980270147" lon="-7.833016002550721">
        <ele>222.19999999999999</ele>
        <time>2025-05-02T09:30:37Z</time>
      </trkpt>
      <trkpt lat="42.342475019395351" lon="-7.832866972312331">
        <ele>221.72</ele>
        <time>2025-05-02T09:30:38Z</time>
      </trkpt>
      <trkpt lat="42.342551965266466" lon="-7.832741998136044">
        <ele>221.72</ele>
        <time>2025-05-02T09:30:39Z</time>
      </trkpt>
      <trkpt lat="42.342631006613374" lon="-7.832615012302995">
        <ele>221.72</ele>
        <time>2025-05-02T09:30:40Z</time>
      </trkpt>
      <trkpt lat="42.34270996414125" lon="-7.832488026469946">
        <ele>221.72</ele>
        <time>2025-05-02T09:30:41Z</time>
      </trkpt>
      <trkpt lat="42.342790011316538" lon="-7.832364980131388">
        <ele>221.72</ele>
        <time>2025-05-02T09:30:42Z</time>
      </trkpt>
      <trkpt lat="42.34288196079433" lon="-7.832246040925384">
        <ele>222.19999999999999</ele>
        <time>2025-05-02T09:30:43Z</time>
      </trkpt>
      <trkpt lat="42.343255039304495" lon="-7.831741031259298">
        <ele>222.68000000000001</ele>
        <time>2025-05-02T09:30:47Z</time>
      </trkpt>
      <trkpt lat="42.343498030677438" lon="-7.831341968849301">
        <ele>223.63999999999999</ele>
        <time>2025-05-02T09:30:50Z</time>
      </trkpt>
      <trkpt lat="42.343530971556902" lon="-7.831149017438293">
        <ele>224.12</ele>
        <time>2025-05-02T09:30:51Z</time>
      </trkpt>
      <trkpt lat="42.343558967113495" lon="-7.83099303022027">
        <ele>224.61000000000001</ele>
        <time>2025-05-02T09:30:52Z</time>
      </trkpt>
      <trkpt lat="42.343584029003978" lon="-7.830849029123783">
        <ele>225.09</ele>
        <time>2025-05-02T09:30:53Z</time>
      </trkpt>
      <trkpt lat="42.343559972941875" lon="-7.830725982785225">
        <ele>225.09</ele>
        <time>2025-05-02T09:30:54Z</time>
      </trkpt>
      <trkpt lat="42.343533989042044" lon="-7.830590028315783">
        <ele>225.56999999999999</ele>
        <time>2025-05-02T09:30:55Z</time>
      </trkpt>
      <trkpt lat="42.343509010970592" lon="-7.83045700751245">
        <ele>226.05000000000001</ele>
        <time>2025-05-02T09:30:56Z</time>
      </trkpt>
      <trkpt lat="42.343464000150561" lon="-7.830348964780569">
        <ele>226.53</ele>
        <time>2025-05-02T09:30:57Z</time>
      </trkpt>
      <trkpt lat="42.343344977125525" lon="-7.830175962299109">
        <ele>227.00999999999999</ele>
        <time>2025-05-02T09:30:58Z</time>
      </trkpt>
      <trkpt lat="42.343261996284127" lon="-7.830055011436343">
        <ele>228.44999999999999</ele>
        <time>2025-05-02T09:31:00Z</time>
      </trkpt>
      <trkpt lat="42.343227965757251" lon="-7.830020980909467">
        <ele>228.93000000000001</ele>
        <time>2025-05-02T09:31:01Z</time>
      </trkpt>
      <trkpt lat="42.34316099435091" lon="-7.829955015331507">
        <ele>229.41</ele>
        <time>2025-05-02T09:31:02Z</time>
      </trkpt>
      <trkpt lat="42.343045994639397" lon="-7.829968007281423">
        <ele>229.88999999999999</ele>
        <time>2025-05-02T09:31:03Z</time>
      </trkpt>
      <trkpt lat="42.34292596578598" lon="-7.8297049831599">
        <ele>231.33000000000001</ele>
        <time>2025-05-02T09:31:05Z</time>
      </trkpt>
      <trkpt lat="42.342633018270135" lon="-7.829525023698807">
        <ele>233.74000000000001</ele>
        <time>2025-05-02T09:31:08Z</time>
      </trkpt>
      <trkpt lat="42.342560011893511" lon="-7.829431984573603">
        <ele>234.69999999999999</ele>
        <time>2025-05-02T09:31:09Z</time>
      </trkpt>
      <trkpt lat="42.342499997466803" lon="-7.829323019832373">
        <ele>235.18000000000001</ele>
        <time>2025-05-02T09:31:10Z</time>
      </trkpt>
      <trkpt lat="42.342462027445436" lon="-7.829202990978956">
        <ele>236.13999999999999</ele>
        <time>2025-05-02T09:31:11Z</time>
      </trkpt>
      <trkpt lat="42.342440988868475" lon="-7.829063013195992">
        <ele>237.09999999999999</ele>
        <time>2025-05-02T09:31:12Z</time>
      </trkpt>
      <trkpt lat="42.342433026060462" lon="-7.828909959644079">
        <ele>238.06</ele>
        <time>2025-05-02T09:31:13Z</time>
      </trkpt>
      <trkpt lat="42.342456998303533" lon="-7.828756989911199">
        <ele>239.02000000000001</ele>
        <time>2025-05-02T09:31:14Z</time>
      </trkpt>
      <trkpt lat="42.342541990801692" lon="-7.828271007165313">
        <ele>241.43000000000001</ele>
        <time>2025-05-02T09:31:17Z</time>
      </trkpt>
      <trkpt lat="42.342576021328568" lon="-7.828109990805388">
        <ele>241.91</ele>
        <time>2025-05-02T09:31:18Z</time>
      </trkpt>
      <trkpt lat="42.342588007450104" lon="-7.826842982321978">
        <ele>247.68000000000001</ele>
        <time>2025-05-02T09:31:26Z</time>
      </trkpt>
      <trkpt lat="42.342575015500188" lon="-7.826689006760716">
        <ele>248.63999999999999</ele>
        <time>2025-05-02T09:31:27Z</time>
      </trkpt>
      <trkpt lat="42.342520030215383" lon="-7.826551040634513">
        <ele>249.12</ele>
        <time>2025-05-02T09:31:28Z</time>
      </trkpt>
      <trkpt lat="42.342293970286846" lon="-7.826000014320016">
        <ele>252</ele>
        <time>2025-05-02T09:31:32Z</time>
      </trkpt>
      <trkpt lat="42.342235967516899" lon="-7.825859030708671">
        <ele>252.47999999999999</ele>
        <time>2025-05-02T09:31:33Z</time>
      </trkpt>
      <trkpt lat="42.342202020809054" lon="-7.825712012127042">
        <ele>253.44</ele>
        <time>2025-05-02T09:31:34Z</time>
      </trkpt>
      <trkpt lat="42.342170001938939" lon="-7.82555895857513">
        <ele>253.93000000000001</ele>
        <time>2025-05-02T09:31:35Z</time>
      </trkpt>
      <trkpt lat="42.342183999717236" lon="-7.825410012155771">
        <ele>254.88999999999999</ele>
        <time>2025-05-02T09:31:36Z</time>
      </trkpt>
      <trkpt lat="42.342203026637435" lon="-7.825242038816214">
        <ele>255.37</ele>
        <time>2025-05-02T09:31:37Z</time>
      </trkpt>
      <trkpt lat="42.342222975566983" lon="-7.825075993314385">
        <ele>256.32999999999998</ele>
        <time>2025-05-02T09:31:38Z</time>
      </trkpt>
      <trkpt lat="42.342278966680169" lon="-7.824600990861654">
        <ele>257.76999999999998</ele>
        <time>2025-05-02T09:31:40Z</time>
      </trkpt>
      <trkpt lat="42.342278966680169" lon="-7.824600990861654">
        <ele>258.25</ele>
        <time>2025-05-02T09:31:41Z</time>
      </trkpt>
      <trkpt lat="42.342263963073492" lon="-7.824260015040636">
        <ele>260.17000000000002</ele>
        <time>2025-05-02T09:31:43Z</time>
      </trkpt>
      <trkpt lat="42.342218030244112" lon="-7.824100004509091">
        <ele>261.13999999999999</ele>
        <time>2025-05-02T09:31:44Z</time>
      </trkpt>
      <trkpt lat="42.342109987512231" lon="-7.823809990659356">
        <ele>263.06</ele>
        <time>2025-05-02T09:31:46Z</time>
      </trkpt>
      <trkpt lat="42.342057013884187" lon="-7.82366699539125">
        <ele>264.5</ele>
        <time>2025-05-02T09:31:47Z</time>
      </trkpt>
      <trkpt lat="42.342045027762651" lon="-7.823545960709453">
        <ele>265.94</ele>
        <time>2025-05-02T09:31:48Z</time>
      </trkpt>
      <trkpt lat="42.342055002227426" lon="-7.823426015675068">
        <ele>267.38</ele>
        <time>2025-05-02T09:31:49Z</time>
      </trkpt>
      <trkpt lat="42.342071011662483" lon="-7.823338005691767">
        <ele>268.35000000000002</ele>
        <time>2025-05-02T09:31:50Z</time>
      </trkpt>
      <trkpt lat="42.342121973633766" lon="-7.823235997930169">
        <ele>268.82999999999998</ele>
        <time>2025-05-02T09:31:51Z</time>
      </trkpt>
      <trkpt lat="42.342200009152293" lon="-7.823197022080421">
        <ele>269.79000000000002</ele>
        <time>2025-05-02T09:31:52Z</time>
      </trkpt>
      <trkpt lat="42.342415004968643" lon="-7.823117980733514">
        <ele>270.75</ele>
        <time>2025-05-02T09:31:53Z</time>
      </trkpt>
      <trkpt lat="42.342536961659789" lon="-7.823105994611979">
        <ele>271.23000000000002</ele>
        <time>2025-05-02T09:31:54Z</time>
      </trkpt>
      <trkpt lat="42.342536961659789" lon="-7.823105994611979">
        <ele>272.19</ele>
        <time>2025-05-02T09:31:55Z</time>
      </trkpt>
      <trkpt lat="42.343771029263735" lon="-7.822970962151885">
        <ele>277</ele>
        <time>2025-05-02T09:32:03Z</time>
      </trkpt>
      <trkpt lat="42.34389097429812" lon="-7.822925029322505">
        <ele>277</ele>
        <time>2025-05-02T09:32:04Z</time>
      </trkpt>
      <trkpt lat="42.343999017030001" lon="-7.822865014895797">
        <ele>276.51999999999998</ele>
        <time>2025-05-02T09:32:05Z</time>
      </trkpt>
      <trkpt lat="42.344103958457708" lon="-7.822805000469089">
        <ele>276.51999999999998</ele>
        <time>2025-05-02T09:32:06Z</time>
      </trkpt>
      <trkpt lat="42.344144023954868" lon="-7.822630992159247">
        <ele>276.51999999999998</ele>
        <time>2025-05-02T09:32:07Z</time>
      </trkpt>
      <trkpt lat="42.344204038381577" lon="-7.822513980790973">
        <ele>276.51999999999998</ele>
        <time>2025-05-02T09:32:08Z</time>
      </trkpt>
      <trkpt lat="42.344263968989253" lon="-7.822396969422698">
        <ele>277</ele>
        <time>2025-05-02T09:32:09Z</time>
      </trkpt>
      <trkpt lat="42.344329012557864" lon="-7.82227098941803">
        <ele>277.48000000000002</ele>
        <time>2025-05-02T09:32:10Z</time>
      </trkpt>
      <trkpt lat="42.344394978135824" lon="-7.82214199192822">
        <ele>277.95999999999998</ele>
        <time>2025-05-02T09:32:11Z</time>
      </trkpt>
      <trkpt lat="42.344394978135824" lon="-7.82214199192822">
        <ele>278.44</ele>
        <time>2025-05-02T09:32:12Z</time>
      </trkpt>
      <trkpt lat="42.344442000612617" lon="-7.821978963911533">
        <ele>278.92000000000002</ele>
        <time>2025-05-02T09:32:13Z</time>
      </trkpt>
      <trkpt lat="42.344453986734152" lon="-7.821805039420724">
        <ele>278.92000000000002</ele>
        <time>2025-05-02T09:32:14Z</time>
      </trkpt>
      <trkpt lat="42.344466978684068" lon="-7.821616027504206">
        <ele>279.39999999999998</ele>
        <time>2025-05-02T09:32:15Z</time>
      </trkpt>
      <trkpt lat="42.344669988378882" lon="-7.819735966622829">
        <ele>283.73000000000002</ele>
        <time>2025-05-02T09:32:24Z</time>
      </trkpt>
      <trkpt lat="42.344778031110764" lon="-7.819364983588457">
        <ele>284.69</ele>
        <time>2025-05-02T09:32:26Z</time>
      </trkpt>
      <trkpt lat="42.344842990860343" lon="-7.819202039390802">
        <ele>284.69</ele>
        <time>2025-05-02T09:32:27Z</time>
      </trkpt>
      <trkpt lat="42.344905016943812" lon="-7.81904898583889">
        <ele>285.17000000000002</ele>
        <time>2025-05-02T09:32:28Z</time>
      </trkpt>
      <trkpt lat="42.345560984686017" lon="-7.817902006208897">
        <ele>290.45999999999998</ele>
        <time>2025-05-02T09:32:37Z</time>
      </trkpt>
      <trkpt lat="42.345925010740757" lon="-7.816948983818293">
        <ele>295.25999999999999</ele>
        <time>2025-05-02T09:32:45Z</time>
      </trkpt>
      <trkpt lat="42.346031963825226" lon="-7.816483033820987">
        <ele>297.67000000000002</ele>
        <time>2025-05-02T09:32:48Z</time>
      </trkpt>
      <trkpt lat="42.346093989908695" lon="-7.816171981394291">
        <ele>299.58999999999997</ele>
        <time>2025-05-02T09:32:50Z</time>
      </trkpt>
      <trkpt lat="42.346076974645257" lon="-7.815994033589959">
        <ele>301.02999999999997</ele>
        <time>2025-05-02T09:32:51Z</time>
      </trkpt>
      <trkpt lat="42.34606197103858" lon="-7.815835028886795">
        <ele>301.99000000000001</ele>
        <time>2025-05-02T09:32:52Z</time>
      </trkpt>
      <trkpt lat="42.346041016280651" lon="-7.815690021961927">
        <ele>302.94999999999999</ele>
        <time>2025-05-02T09:32:53Z</time>
      </trkpt>
      <trkpt lat="42.345993993803859" lon="-7.815550966188312">
        <ele>303.91000000000003</ele>
        <time>2025-05-02T09:32:54Z</time>
      </trkpt>
      <trkpt lat="42.345626028254628" lon="-7.814657036215067">
        <ele>310.16000000000003</ele>
        <time>2025-05-02T09:33:02Z</time>
      </trkpt>
      <trkpt lat="42.345581017434597" lon="-7.814565002918243">
        <ele>311.12</ele>
        <time>2025-05-02T09:33:03Z</time>
      </trkpt>
      <trkpt lat="42.345535000786185" lon="-7.814474981278181">
        <ele>311.12</ele>
        <time>2025-05-02T09:33:04Z</time>
      </trkpt>
      <trkpt lat="42.345568025484681" lon="-7.8143410384655">
        <ele>311.60000000000002</ele>
        <time>2025-05-02T09:33:05Z</time>
      </trkpt>
      <trkpt lat="42.345574982464314" lon="-7.814230984076858">
        <ele>311.60000000000002</ele>
        <time>2025-05-02T09:33:06Z</time>
      </trkpt>
      <trkpt lat="42.345573976635933" lon="-7.814103998243809">
        <ele>311.60000000000002</ele>
        <time>2025-05-02T09:33:07Z</time>
      </trkpt>
      <trkpt lat="42.345561990514398" lon="-7.813983969390392">
        <ele>311.12</ele>
        <time>2025-05-02T09:33:08Z</time>
      </trkpt>
      <trkpt lat="42.345547992736101" lon="-7.813853966072202">
        <ele>310.63999999999999</ele>
        <time>2025-05-02T09:33:09Z</time>
      </trkpt>
      <trkpt lat="42.345482027158141" lon="-7.813116023316979">
        <ele>307.75999999999999</ele>
        <time>2025-05-02T09:33:14Z</time>
      </trkpt>
      <trkpt lat="42.345503987744451" lon="-7.812336003407836">
        <ele>304.88</ele>
        <time>2025-05-02T09:33:18Z</time>
      </trkpt>
      <trkpt lat="42.345512034371495" lon="-7.81217297539115">
        <ele>303.91000000000003</ele>
        <time>2025-05-02T09:33:19Z</time>
      </trkpt>
      <trkpt lat="42.345532989129424" lon="-7.811730997636914">
        <ele>301.02999999999997</ele>
        <time>2025-05-02T09:33:22Z</time>
      </trkpt>
      <trkpt lat="42.345556039363146" lon="-7.811598982661963">
        <ele>300.06999999999999</ele>
        <time>2025-05-02T09:33:23Z</time>
      </trkpt>
      <trkpt lat="42.345597026869655" lon="-7.811464034020901">
        <ele>299.11000000000001</ele>
        <time>2025-05-02T09:33:24Z</time>
      </trkpt>
      <trkpt lat="42.345666009932756" lon="-7.811340987682343">
        <ele>297.67000000000002</ele>
        <time>2025-05-02T09:33:25Z</time>
      </trkpt>
      <trkpt lat="42.345739016309381" lon="-7.811216013506055">
        <ele>296.69999999999999</ele>
        <time>2025-05-02T09:33:26Z</time>
      </trkpt>
      <trkpt lat="42.346108993515372" lon="-7.810642020776868">
        <ele>291.89999999999998</ele>
        <time>2025-05-02T09:33:31Z</time>
      </trkpt>
      <trkpt lat="42.346198009327054" lon="-7.810553004965186">
        <ele>290.94</ele>
        <time>2025-05-02T09:33:32Z</time>
      </trkpt>
      <trkpt lat="42.346287025138736" lon="-7.810464994981885">
        <ele>289.97000000000003</ele>
        <time>2025-05-02T09:33:33Z</time>
      </trkpt>
      <trkpt lat="42.346374029293656" lon="-7.810376984998584">
        <ele>289.00999999999999</ele>
        <time>2025-05-02T09:33:34Z</time>
      </trkpt>
      <trkpt lat="42.346462039276958" lon="-7.810289980843663">
        <ele>288.05000000000001</ele>
        <time>2025-05-02T09:33:35Z</time>
      </trkpt>
      <trkpt lat="42.346544014289975" lon="-7.810208005830646">
        <ele>287.08999999999997</ele>
        <time>2025-05-02T09:33:36Z</time>
      </trkpt>
      <trkpt lat="42.346611991524696" lon="-7.810125024989247">
        <ele>286.61000000000001</ele>
        <time>2025-05-02T09:33:37Z</time>
      </trkpt>
      <trkpt lat="42.346637975424528" lon="-7.809998039156199">
        <ele>285.64999999999998</ele>
        <time>2025-05-02T09:33:38Z</time>
      </trkpt>
      <trkpt lat="42.346663037315011" lon="-7.809870969504118">
        <ele>284.20999999999998</ele>
        <time>2025-05-02T09:33:40Z</time>
      </trkpt>
      <trkpt lat="42.346666976809502" lon="-7.809739038348198">
        <ele>283.73000000000002</ele>
        <time>2025-05-02T09:33:41Z</time>
      </trkpt>
      <trkpt lat="42.346651973202825" lon="-7.809111988171935">
        <ele>280.83999999999997</ele>
        <time>2025-05-02T09:33:45Z</time>
      </trkpt>
      <trkpt lat="42.346703018993139" lon="-7.809044010937214">
        <ele>279.88</ele>
        <time>2025-05-02T09:33:46Z</time>
      </trkpt>
      <trkpt lat="42.346755992621183" lon="-7.808973016217351">
        <ele>278.92000000000002</ele>
        <time>2025-05-02T09:33:47Z</time>
      </trkpt>
      <trkpt lat="42.34683402813971" lon="-7.808934962376952">
        <ele>278.44</ele>
        <time>2025-05-02T09:33:48Z</time>
      </trkpt>
      <trkpt lat="42.34692002646625" lon="-7.808924987912178">
        <ele>277.95999999999998</ele>
        <time>2025-05-02T09:33:49Z</time>
      </trkpt>
      <trkpt lat="42.347003007307649" lon="-7.808923982083798">
        <ele>277.48000000000002</ele>
        <time>2025-05-02T09:33:50Z</time>
      </trkpt>
      <trkpt lat="42.347103003412485" lon="-7.808940997347236">
        <ele>277</ele>
        <time>2025-05-02T09:33:51Z</time>
      </trkpt>
      <trkpt lat="42.347183972597122" lon="-7.808977961540222">
        <ele>277</ele>
        <time>2025-05-02T09:33:52Z</time>
      </trkpt>
      <trkpt lat="42.347272988408804" lon="-7.809018027037382">
        <ele>277.48000000000002</ele>
        <time>2025-05-02T09:33:53Z</time>
      </trkpt>
      <trkpt lat="42.347370972856879" lon="-7.80903697013855">
        <ele>277.48000000000002</ele>
        <time>2025-05-02T09:33:54Z</time>
      </trkpt>
      <trkpt lat="42.347455965355039" lon="-7.809008974581957">
        <ele>277.95999999999998</ele>
        <time>2025-05-02T09:33:55Z</time>
      </trkpt>
      <trkpt lat="42.347561996430159" lon="-7.808861033990979">
        <ele>278.44</ele>
        <time>2025-05-02T09:33:57Z</time>
      </trkpt>
      <trkpt lat="42.34758697450161" lon="-7.808755002915859">
        <ele>278.92000000000002</ele>
        <time>2025-05-02T09:33:58Z</time>
      </trkpt>
      <trkpt lat="42.347639026120305" lon="-7.808532966300845">
        <ele>279.88</ele>
        <time>2025-05-02T09:34:00Z</time>
      </trkpt>
      <trkpt lat="42.347688982263207" lon="-7.808432970196009">
        <ele>280.36000000000001</ele>
        <time>2025-05-02T09:34:01Z</time>
      </trkpt>
      <trkpt lat="42.347742961719632" lon="-7.808325011283159">
        <ele>280.83999999999997</ele>
        <time>2025-05-02T09:34:02Z</time>
      </trkpt>
      <trkpt lat="42.347808005288243" lon="-7.808216968551278">
        <ele>281.31999999999999</ele>
        <time>2025-05-02T09:34:03Z</time>
      </trkpt>
      <trkpt lat="42.347896015271544" lon="-7.808146979659796">
        <ele>282.76999999999998</ele>
        <time>2025-05-02T09:34:04Z</time>
      </trkpt>
      <trkpt lat="42.347987964749336" lon="-7.808072967454791">
        <ele>283.73000000000002</ele>
        <time>2025-05-02T09:34:05Z</time>
      </trkpt>
      <trkpt lat="42.348101958632469" lon="-7.808030974119902">
        <ele>284.69</ele>
        <time>2025-05-02T09:34:06Z</time>
      </trkpt>
      <trkpt lat="42.348202960565686" lon="-7.808000966906548">
        <ele>286.13</ele>
        <time>2025-05-02T09:34:07Z</time>
      </trkpt>
      <trkpt lat="42.348307985812426" lon="-7.807969031855464">
        <ele>287.56999999999999</ele>
        <time>2025-05-02T09:34:08Z</time>
      </trkpt>
      <trkpt lat="42.348417034372687" lon="-7.807937012985349">
        <ele>288.52999999999997</ele>
        <time>2025-05-02T09:34:09Z</time>
      </trkpt>
      <trkpt lat="42.348594982177019" lon="-7.807860989123583">
        <ele>291.42000000000002</ele>
        <time>2025-05-02T09:34:12Z</time>
      </trkpt>
      <trkpt lat="42.348662037402391" lon="-7.807803992182016">
        <ele>292.38</ele>
        <time>2025-05-02T09:34:13Z</time>
      </trkpt>
      <trkpt lat="42.348711993545294" lon="-7.807759987190366">
        <ele>292.86000000000001</ele>
        <time>2025-05-02T09:34:14Z</time>
      </trkpt>
      <trkpt lat="42.348711993545294" lon="-7.80768102966249">
        <ele>293.81999999999999</ele>
        <time>2025-05-02T09:34:15Z</time>
      </trkpt>
      <trkpt lat="42.348711993545294" lon="-7.807545997202396">
        <ele>294.30000000000001</ele>
        <time>2025-05-02T09:34:16Z</time>
      </trkpt>
      <trkpt lat="42.348671006038785" lon="-7.807498974725604">
        <ele>294.77999999999997</ele>
        <time>2025-05-02T09:34:17Z</time>
      </trkpt>
      <trkpt lat="42.348597999662161" lon="-7.807415993884206">
        <ele>295.74000000000001</ele>
        <time>2025-05-02T09:34:18Z</time>
      </trkpt>
      <trkpt lat="42.348219975829124" lon="-7.80688701197505">
        <ele>298.63</ele>
        <time>2025-05-02T09:34:23Z</time>
      </trkpt>
      <trkpt lat="42.347825020551682" lon="-7.806119984015822">
        <ele>303.43000000000001</ele>
        <time>2025-05-02T09:34:29Z</time>
      </trkpt>
      <trkpt lat="42.34687702730298" lon="-7.80491097830236">
        <ele>316.41000000000003</ele>
        <time>2025-05-02T09:34:40Z</time>
      </trkpt>
      <trkpt lat="42.346594976261258" lon="-7.804614007472992">
        <ele>319.77999999999997</ele>
        <time>2025-05-02T09:34:43Z</time>
      </trkpt>
      <trkpt lat="42.34653303399682" lon="-7.804495990276337">
        <ele>320.25999999999999</ele>
        <time>2025-05-02T09:34:44Z</time>
      </trkpt>
      <trkpt lat="42.346493974328041" lon="-7.804388031363487">
        <ele>320.74000000000001</ele>
        <time>2025-05-02T09:34:45Z</time>
      </trkpt>
      <trkpt lat="42.346474025398493" lon="-7.80426699668169">
        <ele>321.69999999999999</ele>
        <time>2025-05-02T09:34:46Z</time>
      </trkpt>
      <trkpt lat="42.346462961286306" lon="-7.804143028333783">
        <ele>321.69999999999999</ele>
        <time>2025-05-02T09:34:47Z</time>
      </trkpt>
      <trkpt lat="42.346480982378125" lon="-7.804001960903406">
        <ele>322.18000000000001</ele>
        <time>2025-05-02T09:34:48Z</time>
      </trkpt>
      <trkpt lat="42.346692038699985" lon="-7.803107025101781">
        <ele>322.18000000000001</ele>
        <time>2025-05-02T09:34:56Z</time>
      </trkpt>
      <trkpt lat="42.346751969307661" lon="-7.802936034277082">
        <ele>322.18000000000001</ele>
        <time>2025-05-02T09:34:58Z</time>
      </trkpt>
      <trkpt lat="42.346782982349396" lon="-7.802850035950542">
        <ele>322.18000000000001</ele>
        <time>2025-05-02T09:34:59Z</time>
      </trkpt>
      <trkpt lat="42.347425036132336" lon="-7.80175200663507">
        <ele>321.69999999999999</ele>
        <time>2025-05-02T09:35:10Z</time>
      </trkpt>
      <trkpt lat="42.347831977531314" lon="-7.801386974751949">
        <ele>322.18000000000001</ele>
        <time>2025-05-02T09:35:15Z</time>
      </trkpt>
      <trkpt lat="42.34788503497839" lon="-7.801282033324242">
        <ele>322.66000000000003</ele>
        <time>2025-05-02T09:35:16Z</time>
      </trkpt>
      <trkpt lat="42.347926022484899" lon="-7.801198968663812">
        <ele>322.66000000000003</ele>
        <time>2025-05-02T09:35:17Z</time>
      </trkpt>
      <trkpt lat="42.347940020263195" lon="-7.801114981994033">
        <ele>322.66000000000003</ele>
        <time>2025-05-02T09:35:18Z</time>
      </trkpt>
      <trkpt lat="42.347913030534983" lon="-7.801034012809396">
        <ele>323.13999999999999</ele>
        <time>2025-05-02T09:35:19Z</time>
      </trkpt>
      <trkpt lat="42.347781015560031" lon="-7.800918007269502">
        <ele>323.62</ele>
        <time>2025-05-02T09:35:20Z</time>
      </trkpt>
      <trkpt lat="42.347781015560031" lon="-7.800918007269502">
        <ele>323.62</ele>
        <time>2025-05-02T09:35:21Z</time>
      </trkpt>
      <trkpt lat="42.347582029178739" lon="-7.800843995064497">
        <ele>324.57999999999998</ele>
        <time>2025-05-02T09:35:23Z</time>
      </trkpt>
      <trkpt lat="42.347485972568393" lon="-7.800795966759324">
        <ele>325.54000000000002</ele>
        <time>2025-05-02T09:35:24Z</time>
      </trkpt>
      <trkpt lat="42.347408020868897" lon="-7.80072002671659">
        <ele>326.01999999999998</ele>
        <time>2025-05-02T09:35:25Z</time>
      </trkpt>
      <trkpt lat="42.347261002287269" lon="-7.800536965951324">
        <ele>326.5</ele>
        <time>2025-05-02T09:35:26Z</time>
      </trkpt>
      <trkpt lat="42.347197970375419" lon="-7.800433030351996">
        <ele>327.47000000000003</ele>
        <time>2025-05-02T09:35:27Z</time>
      </trkpt>
      <trkpt lat="42.347197970375419" lon="-7.800433030351996">
        <ele>327.94999999999999</ele>
        <time>2025-05-02T09:35:28Z</time>
      </trkpt>
      <trkpt lat="42.346969982609153" lon="-7.800007984042168">
        <ele>331.31</ele>
        <time>2025-05-02T09:35:32Z</time>
      </trkpt>
      <trkpt lat="42.346943998709321" lon="-7.799911005422473">
        <ele>331.79000000000002</ele>
        <time>2025-05-02T09:35:33Z</time>
      </trkpt>
      <trkpt lat="42.346931006759405" lon="-7.799812015146017">
        <ele>332.26999999999998</ele>
        <time>2025-05-02T09:35:34Z</time>
      </trkpt>
      <trkpt lat="42.346931006759405" lon="-7.799714030697942">
        <ele>333.23000000000002</ele>
        <time>2025-05-02T09:35:35Z</time>
      </trkpt>
      <trkpt lat="42.346980040892959" lon="-7.7996039763093">
        <ele>333.70999999999998</ele>
        <time>2025-05-02T09:35:36Z</time>
      </trkpt>
      <trkpt lat="42.347026979550719" lon="-7.799500962719321">
        <ele>334.19999999999999</ele>
        <time>2025-05-02T09:35:37Z</time>
      </trkpt>
      <trkpt lat="42.34730701893568" lon="-7.798966029658914">
        <ele>338.51999999999998</ele>
        <time>2025-05-02T09:35:42Z</time>
      </trkpt>
      <trkpt lat="42.347378013655543" lon="-7.798879025503993">
        <ele>339.48000000000002</ele>
        <time>2025-05-02T09:35:43Z</time>
      </trkpt>
      <trkpt lat="42.347450014203787" lon="-7.798792021349073">
        <ele>339.95999999999998</ele>
        <time>2025-05-02T09:35:44Z</time>
      </trkpt>
      <trkpt lat="42.347526960074902" lon="-7.798717003315687">
        <ele>340.92000000000002</ele>
        <time>2025-05-02T09:35:45Z</time>
      </trkpt>
      <trkpt lat="42.347684036940336" lon="-7.798579959198833">
        <ele>341.88999999999999</ele>
        <time>2025-05-02T09:35:46Z</time>
      </trkpt>
      <trkpt lat="42.347815968096256" lon="-7.798436963930726">
        <ele>343.81</ele>
        <time>2025-05-02T09:35:48Z</time>
      </trkpt>
      <trkpt lat="42.347836000844836" lon="-7.798319030553103">
        <ele>344.76999999999998</ele>
        <time>2025-05-02T09:35:49Z</time>
      </trkpt>
      <trkpt lat="42.347852010279894" lon="-7.798189027234912">
        <ele>346.20999999999998</ele>
        <time>2025-05-02T09:35:50Z</time>
      </trkpt>
      <trkpt lat="42.347840024158359" lon="-7.79805600643158">
        <ele>347.17000000000002</ele>
        <time>2025-05-02T09:35:51Z</time>
      </trkpt>
      <trkpt lat="42.347825020551682" lon="-7.797689968720079">
        <ele>350.54000000000002</ele>
        <time>2025-05-02T09:35:54Z</time>
      </trkpt>
      <trkpt lat="42.347849998623133" lon="-7.797601036727428">
        <ele>351.5</ele>
        <time>2025-05-02T09:35:55Z</time>
      </trkpt>
      <trkpt lat="42.347900960594416" lon="-7.797542028129101">
        <ele>352.45999999999998</ele>
        <time>2025-05-02T09:35:56Z</time>
      </trkpt>
      <trkpt lat="42.347953012213111" lon="-7.797505985945463">
        <ele>353.42000000000002</ele>
        <time>2025-05-02T09:35:57Z</time>
      </trkpt>
      <trkpt lat="42.347953012213111" lon="-7.797505985945463">
        <ele>353.89999999999998</ele>
        <time>2025-05-02T09:35:58Z</time>
      </trkpt>
      <trkpt lat="42.348095001652837" lon="-7.797544039785862">
        <ele>354.86000000000001</ele>
        <time>2025-05-02T09:35:59Z</time>
      </trkpt>
      <trkpt lat="42.348169013857841" lon="-7.797596007585526">
        <ele>355.33999999999997</ele>
        <time>2025-05-02T09:36:00Z</time>
      </trkpt>
      <trkpt lat="42.348327012732625" lon="-7.797707989811897">
        <ele>356.79000000000002</ele>
        <time>2025-05-02T09:36:02Z</time>
      </trkpt>
      <trkpt lat="42.348520969972014" lon="-7.797812009230256">
        <ele>358.70999999999998</ele>
        <time>2025-05-02T09:36:04Z</time>
      </trkpt>
      <trkpt lat="42.348622977733612" lon="-7.797846039757133">
        <ele>359.67000000000002</ele>
        <time>2025-05-02T09:36:05Z</time>
      </trkpt>
      <trkpt lat="42.348735965788364" lon="-7.797844028100371">
        <ele>360.63</ele>
        <time>2025-05-02T09:36:06Z</time>
      </trkpt>
      <trkpt lat="42.348735965788364" lon="-7.797844028100371">
        <ele>361.11000000000001</ele>
        <time>2025-05-02T09:36:07Z</time>
      </trkpt>
      <trkpt lat="42.34883202239871" lon="-7.797793988138437">
        <ele>362.06999999999999</ele>
        <time>2025-05-02T09:36:08Z</time>
      </trkpt>
      <trkpt lat="42.348934030160308" lon="-7.797740008682013">
        <ele>363.04000000000002</ele>
        <time>2025-05-02T09:36:09Z</time>
      </trkpt>
      <trkpt lat="42.349036037921906" lon="-7.797686029225588">
        <ele>364</ele>
        <time>2025-05-02T09:36:10Z</time>
      </trkpt>
      <trkpt lat="42.349137961864471" lon="-7.797646969556809">
        <ele>364.95999999999998</ele>
        <time>2025-05-02T09:36:11Z</time>
      </trkpt>
      <trkpt lat="42.349247010424733" lon="-7.797629032284021">
        <ele>365.44</ele>
        <time>2025-05-02T09:36:12Z</time>
      </trkpt>
      <trkpt lat="42.349355975165963" lon="-7.797611011192203">
        <ele>366.39999999999998</ele>
        <time>2025-05-02T09:36:13Z</time>
      </trkpt>
      <trkpt lat="42.349458988755941" lon="-7.797550996765494">
        <ele>366.88</ele>
        <time>2025-05-02T09:36:14Z</time>
      </trkpt>
      <trkpt lat="42.349566025659442" lon="-7.797487964853644">
        <ele>367.83999999999997</ele>
        <time>2025-05-02T09:36:15Z</time>
      </trkpt>
      <trkpt lat="42.349930973723531" lon="-7.797119999304414">
        <ele>372.17000000000002</ele>
        <time>2025-05-02T09:36:19Z</time>
      </trkpt>
      <trkpt lat="42.350003980100155" lon="-7.797017991542816">
        <ele>372.64999999999998</ele>
        <time>2025-05-02T09:36:20Z</time>
      </trkpt>
      <trkpt lat="42.350072963163257" lon="-7.796924030408263">
        <ele>373.61000000000001</ele>
        <time>2025-05-02T09:36:21Z</time>
      </trkpt>
      <trkpt lat="42.350129960104823" lon="-7.796843983232975">
        <ele>374.56999999999999</ele>
        <time>2025-05-02T09:36:22Z</time>
      </trkpt>
      <trkpt lat="42.35014203004539" lon="-7.796751027926803">
        <ele>375.05000000000001</ele>
        <time>2025-05-02T09:36:23Z</time>
      </trkpt>
      <trkpt lat="42.350133983418345" lon="-7.79668003320694">
        <ele>376.00999999999999</ele>
        <time>2025-05-02T09:36:24Z</time>
      </trkpt>
      <trkpt lat="42.350075980648398" lon="-7.796611972153187">
        <ele>376.49000000000001</ele>
        <time>2025-05-02T09:36:25Z</time>
      </trkpt>
      <trkpt lat="42.350004985928535" lon="-7.796595962718129">
        <ele>376.97000000000003</ele>
        <time>2025-05-02T09:36:26Z</time>
      </trkpt>
      <trkpt lat="42.349920999258757" lon="-7.796577019616962">
        <ele>377.94</ele>
        <time>2025-05-02T09:36:27Z</time>
      </trkpt>
      <trkpt lat="42.349827960133553" lon="-7.796555981040001">
        <ele>378.42000000000002</ele>
        <time>2025-05-02T09:36:28Z</time>
      </trkpt>
      <trkpt lat="42.349729975685477" lon="-7.796534020453692">
        <ele>378.89999999999998</ele>
        <time>2025-05-02T09:36:29Z</time>
      </trkpt>
      <trkpt lat="42.349635008722544" lon="-7.796503007411957">
        <ele>379.86000000000001</ele>
        <time>2025-05-02T09:36:30Z</time>
      </trkpt>
      <trkpt lat="42.34926201403141" lon="-7.796270996332169">
        <ele>382.74000000000001</ele>
        <time>2025-05-02T09:36:34Z</time>
      </trkpt>
      <trkpt lat="42.349169980734587" lon="-7.796212993562222">
        <ele>383.22000000000003</ele>
        <time>2025-05-02T09:36:35Z</time>
      </trkpt>
      <trkpt lat="42.34908901154995" lon="-7.796133030205965">
        <ele>383.69999999999999</ele>
        <time>2025-05-02T09:36:36Z</time>
      </trkpt>
      <trkpt lat="42.349010976031423" lon="-7.796040996909142">
        <ele>384.66000000000003</ele>
        <time>2025-05-02T09:36:37Z</time>
      </trkpt>
      <trkpt lat="42.348935035988688" lon="-7.79595198109746">
        <ele>385.63</ele>
        <time>2025-05-02T09:36:38Z</time>
      </trkpt>
      <trkpt lat="42.348880972713232" lon="-7.79584402218461">
        <ele>386.11000000000001</ele>
        <time>2025-05-02T09:36:39Z</time>
      </trkpt>
      <trkpt lat="42.348839985206723" lon="-7.795719970017672">
        <ele>387.06999999999999</ele>
        <time>2025-05-02T09:36:40Z</time>
      </trkpt>
      <trkpt lat="42.348795980215073" lon="-7.7955889608711">
        <ele>388.02999999999997</ele>
        <time>2025-05-02T09:36:41Z</time>
      </trkpt>
      <trkpt lat="42.348755998536944" lon="-7.795454012230039">
        <ele>388.99000000000001</ele>
        <time>2025-05-02T09:36:42Z</time>
      </trkpt>
      <trkpt lat="42.348717022687197" lon="-7.79530699364841">
        <ele>389.47000000000003</ele>
        <time>2025-05-02T09:36:43Z</time>
      </trkpt>
      <trkpt lat="42.348662037402391" lon="-7.795169027522206">
        <ele>390.43000000000001</ele>
        <time>2025-05-02T09:36:44Z</time>
      </trkpt>
      <trkpt lat="42.348577966913581" lon="-7.795056039467454">
        <ele>390.91000000000003</ele>
        <time>2025-05-02T09:36:45Z</time>
      </trkpt>
      <trkpt lat="42.348495991900563" lon="-7.794944979250431">
        <ele>391.87</ele>
        <time>2025-05-02T09:36:46Z</time>
      </trkpt>
      <trkpt lat="42.348418040201068" lon="-7.794839031994343">
        <ele>392.83999999999997</ele>
        <time>2025-05-02T09:36:47Z</time>
      </trkpt>
      <trkpt lat="42.348345033824444" lon="-7.794740963727236">
        <ele>393.80000000000001</ele>
        <time>2025-05-02T09:36:48Z</time>
      </trkpt>
      <trkpt lat="42.348308991640806" lon="-7.794628981500864">
        <ele>394.27999999999997</ele>
        <time>2025-05-02T09:36:49Z</time>
      </trkpt>
      <trkpt lat="42.348282001912594" lon="-7.794495960697532">
        <ele>395.24000000000001</ele>
        <time>2025-05-02T09:36:50Z</time>
      </trkpt>
      <trkpt lat="42.348261969164014" lon="-7.794359000399709">
        <ele>395.24000000000001</ele>
        <time>2025-05-02T09:36:51Z</time>
      </trkpt>
      <trkpt lat="42.348282001912594" lon="-7.79371602460742">
        <ele>394.75999999999999</ele>
        <time>2025-05-02T09:36:55Z</time>
      </trkpt>
      <trkpt lat="42.348347967490554" lon="-7.791921962052584">
        <ele>391.87</ele>
        <time>2025-05-02T09:37:06Z</time>
      </trkpt>
      <trkpt lat="42.348363976925611" lon="-7.791432039812207">
        <ele>391.38999999999999</ele>
        <time>2025-05-02T09:37:09Z</time>
      </trkpt>
      <trkpt lat="42.348365988582373" lon="-7.791271023452282">
        <ele>391.38999999999999</ele>
        <time>2025-05-02T09:37:10Z</time>
      </trkpt>
      <trkpt lat="42.348332041874528" lon="-7.791153006255627">
        <ele>391.38999999999999</ele>
        <time>2025-05-02T09:37:11Z</time>
      </trkpt>
      <trkpt lat="42.348274039104581" lon="-7.791067007929087">
        <ele>391.38999999999999</ele>
        <time>2025-05-02T09:37:12Z</time>
      </trkpt>
      <trkpt lat="42.348196003586054" lon="-7.791018979623914">
        <ele>391.87</ele>
        <time>2025-05-02T09:37:13Z</time>
      </trkpt>
      <trkpt lat="42.348107993602753" lon="-7.791011016815901">
        <ele>392.83999999999997</ele>
        <time>2025-05-02T09:37:14Z</time>
      </trkpt>
      <trkpt lat="42.348012020811439" lon="-7.791002970188856">
        <ele>393.31999999999999</ele>
        <time>2025-05-02T09:37:15Z</time>
      </trkpt>
      <trkpt lat="42.347919987514615" lon="-7.790987966582179">
        <ele>393.80000000000001</ele>
        <time>2025-05-02T09:37:16Z</time>
      </trkpt>
      <trkpt lat="42.347831977531314" lon="-7.790972962975502">
        <ele>394.75999999999999</ele>
        <time>2025-05-02T09:37:17Z</time>
      </trkpt>
      <trkpt lat="42.347745979204774" lon="-7.790958965197206">
        <ele>395.24000000000001</ele>
        <time>2025-05-02T09:37:18Z</time>
      </trkpt>
      <trkpt lat="42.347702980041504" lon="-7.790890987962484">
        <ele>396.19999999999999</ele>
        <time>2025-05-02T09:37:19Z</time>
      </trkpt>
      <trkpt lat="42.347639026120305" lon="-7.790793003514409">
        <ele>396.68000000000001</ele>
        <time>2025-05-02T09:37:20Z</time>
      </trkpt>
      <trkpt lat="42.347573982551694" lon="-7.790692001581192">
        <ele>397.16000000000003</ele>
        <time>2025-05-02T09:37:21Z</time>
      </trkpt>
      <trkpt lat="42.347365021705627" lon="-7.790233008563519">
        <ele>400.52999999999997</ele>
        <time>2025-05-02T09:37:25Z</time>
      </trkpt>
      <trkpt lat="42.347320010885596" lon="-7.79010602273047">
        <ele>401.00999999999999</ele>
        <time>2025-05-02T09:37:26Z</time>
      </trkpt>
      <trkpt lat="42.347075007855892" lon="-7.789415018633008">
        <ele>403.88999999999999</ele>
        <time>2025-05-02T09:37:32Z</time>
      </trkpt>
      <trkpt lat="42.347060004249215" lon="-7.789371013641357">
        <ele>404.85000000000002</ele>
        <time>2025-05-02T09:37:33Z</time>
      </trkpt>
      <trkpt lat="42.347072996199131" lon="-7.789237992838025">
        <ele>405.32999999999998</ele>
        <time>2025-05-02T09:37:34Z</time>
      </trkpt>
      <trkpt lat="42.347081964835525" lon="-7.789156017825007">
        <ele>405.32999999999998</ele>
        <time>2025-05-02T09:37:35Z</time>
      </trkpt>
      <trkpt lat="42.347144996747375" lon="-7.789086028933525">
        <ele>405.81</ele>
        <time>2025-05-02T09:37:36Z</time>
      </trkpt>
      <trkpt lat="42.347214985638857" lon="-7.789007993414998">
        <ele>405.81</ele>
        <time>2025-05-02T09:37:37Z</time>
      </trkpt>
      <trkpt lat="42.348325001075864" lon="-7.787908958271146">
        <ele>405.81</ele>
        <time>2025-05-02T09:37:48Z</time>
      </trkpt>
      <trkpt lat="42.348898993805051" lon="-7.78742004185915">
        <ele>405.81</ele>
        <time>2025-05-02T09:37:56Z</time>
      </trkpt>
      <trkpt lat="42.348923971876502" lon="-7.787329014390707">
        <ele>406.29000000000002</ele>
        <time>2025-05-02T09:37:57Z</time>
      </trkpt>
      <trkpt lat="42.348919026553631" lon="-7.787179984152317">
        <ele>406.29000000000002</ele>
        <time>2025-05-02T09:37:58Z</time>
      </trkpt>
      <trkpt lat="42.348905028775334" lon="-7.786049013957381">
        <ele>404.37</ele>
        <time>2025-05-02T09:38:07Z</time>
      </trkpt>
      <trkpt lat="42.348777959123254" lon="-7.784037021920085">
        <ele>400.52999999999997</ele>
        <time>2025-05-02T09:38:16Z</time>
      </trkpt>
      <trkpt lat="42.348744012415409" lon="-7.78383401222527">
        <ele>400.52999999999997</ele>
        <time>2025-05-02T09:38:18Z</time>
      </trkpt>
      <trkpt lat="42.348342016339302" lon="-7.781570982187986">
        <ele>401.49000000000001</ele>
        <time>2025-05-02T09:38:29Z</time>
      </trkpt>
      <trkpt lat="42.348313014954329" lon="-7.781383981928229">
        <ele>401.49000000000001</ele>
        <time>2025-05-02T09:38:30Z</time>
      </trkpt>
      <trkpt lat="42.348304968327284" lon="-7.781016016378999">
        <ele>401.49000000000001</ele>
        <time>2025-05-02T09:38:32Z</time>
      </trkpt>
      <trkpt lat="42.348398007452488" lon="-7.780328029766679">
        <ele>400.52999999999997</ele>
        <time>2025-05-02T09:38:37Z</time>
      </trkpt>
      <trkpt lat="42.348412005230784" lon="-7.780251000076532">
        <ele>400.52999999999997</ele>
        <time>2025-05-02T09:38:38Z</time>
      </trkpt>
      <trkpt lat="42.348421979695559" lon="-7.780198026448488">
        <ele>400.05000000000001</ele>
        <time>2025-05-02T09:38:39Z</time>
      </trkpt>
      <trkpt lat="42.348429020494223" lon="-7.780161984264851">
        <ele>400.05000000000001</ele>
        <time>2025-05-02T09:38:40Z</time>
      </trkpt>
      <trkpt lat="42.348434971645474" lon="-7.780128959566355">
        <ele>399.56999999999999</ele>
        <time>2025-05-02T09:38:41Z</time>
      </trkpt>
      <trkpt lat="42.348440000787377" lon="-7.780101969838142">
        <ele>399.56999999999999</ele>
        <time>2025-05-02T09:38:42Z</time>
      </trkpt>
      <trkpt lat="42.34844502992928" lon="-7.780076991766691">
        <ele>399.07999999999998</ele>
        <time>2025-05-02T09:38:43Z</time>
      </trkpt>
      <trkpt lat="42.348450981080532" lon="-7.780044972896576">
        <ele>399.07999999999998</ele>
        <time>2025-05-02T09:38:44Z</time>
      </trkpt>
      <trkpt lat="42.348461039364338" lon="-7.779985964298248">
        <ele>399.07999999999998</ele>
        <time>2025-05-02T09:38:45Z</time>
      </trkpt>
      <trkpt lat="42.348477970808744" lon="-7.779898038133979">
        <ele>398.60000000000002</ele>
        <time>2025-05-02T09:38:46Z</time>
      </trkpt>
      <trkpt lat="42.348495991900563" lon="-7.779786977916956">
        <ele>398.12</ele>
        <time>2025-05-02T09:38:47Z</time>
      </trkpt>
      <trkpt lat="42.348518036305904" lon="-7.779658986255527">
        <ele>398.12</ele>
        <time>2025-05-02T09:38:48Z</time>
      </trkpt>
      <trkpt lat="42.34876899048686" lon="-7.778221992775798">
        <ele>394.75999999999999</ele>
        <time>2025-05-02T09:38:55Z</time>
      </trkpt>
      <trkpt lat="42.349078031256795" lon="-7.776476964354515">
        <ele>393.31999999999999</ele>
        <time>2025-05-02T09:39:05Z</time>
      </trkpt>
      <trkpt lat="42.349511040374637" lon="-7.774163978174329">
        <ele>391.38999999999999</ele>
        <time>2025-05-02T09:39:17Z</time>
      </trkpt>
      <trkpt lat="42.349640959873796" lon="-7.773441039025784">
        <ele>390.91000000000003</ele>
        <time>2025-05-02T09:39:21Z</time>
      </trkpt>
      <trkpt lat="42.349903983995318" lon="-7.771961968392134">
        <ele>392.36000000000001</ele>
        <time>2025-05-02T09:39:31Z</time>
      </trkpt>
      <trkpt lat="42.350220987573266" lon="-7.770044021308422">
        <ele>395.24000000000001</ele>
        <time>2025-05-02T09:39:43Z</time>
      </trkpt>
      <trkpt lat="42.35052902251482" lon="-7.768312990665436">
        <ele>401.49000000000001</ele>
        <time>2025-05-02T09:39:54Z</time>
      </trkpt>
      <trkpt lat="42.350585013628006" lon="-7.767995987087488">
        <ele>401.97000000000003</ele>
        <time>2025-05-02T09:39:56Z</time>
      </trkpt>
      <trkpt lat="42.350612003356218" lon="-7.767837988212705">
        <ele>401.97000000000003</ele>
        <time>2025-05-02T09:39:57Z</time>
      </trkpt>
      <trkpt lat="42.350621977820992" lon="-7.767662974074483">
        <ele>402.44999999999999</ele>
        <time>2025-05-02T09:39:58Z</time>
      </trkpt>
      <trkpt lat="42.350608985871077" lon="-7.767487037926912">
        <ele>402.44999999999999</ele>
        <time>2025-05-02T09:39:59Z</time>
      </trkpt>
      <trkpt lat="42.350592976436019" lon="-7.767326021566987">
        <ele>401.97000000000003</ele>
        <time>2025-05-02T09:40:00Z</time>
      </trkpt>
      <trkpt lat="42.350577972829342" lon="-7.767174979671836">
        <ele>401.49000000000001</ele>
        <time>2025-05-02T09:40:01Z</time>
      </trkpt>
      <trkpt lat="42.350557018071413" lon="-7.766969036310911">
        <ele>401.00999999999999</ele>
        <time>2025-05-02T09:40:02Z</time>
      </trkpt>
      <trkpt lat="42.350585013628006" lon="-7.766866022720933">
        <ele>401.00999999999999</ele>
        <time>2025-05-02T09:40:03Z</time>
      </trkpt>
      <trkpt lat="42.350627006962895" lon="-7.766710035502911">
        <ele>400.52999999999997</ele>
        <time>2025-05-02T09:40:04Z</time>
      </trkpt>
      <trkpt lat="42.350669000297785" lon="-7.766553964465857">
        <ele>400.05000000000001</ele>
        <time>2025-05-02T09:40:05Z</time>
      </trkpt>
      <trkpt lat="42.350709987804294" lon="-7.766400994732976">
        <ele>400.05000000000001</ele>
        <time>2025-05-02T09:40:06Z</time>
      </trkpt>
      <trkpt lat="42.350750975310802" lon="-7.766246013343334">
        <ele>399.56999999999999</ele>
        <time>2025-05-02T09:40:07Z</time>
      </trkpt>
      <trkpt lat="42.350793974474072" lon="-7.766082985326648">
        <ele>399.56999999999999</ele>
        <time>2025-05-02T09:40:08Z</time>
      </trkpt>
      <trkpt lat="42.350806966423988" lon="-7.765913000330329">
        <ele>399.56999999999999</ele>
        <time>2025-05-02T09:40:09Z</time>
      </trkpt>
      <trkpt lat="42.350807972252369" lon="-7.765734968706965">
        <ele>399.07999999999998</ele>
        <time>2025-05-02T09:40:10Z</time>
      </trkpt>
      <trkpt lat="42.350792968645692" lon="-7.765572024509311">
        <ele>399.07999999999998</ele>
        <time>2025-05-02T09:40:11Z</time>
      </trkpt>
      <trkpt lat="42.350779976695776" lon="-7.765424000099301">
        <ele>399.07999999999998</ele>
        <time>2025-05-02T09:40:12Z</time>
      </trkpt>
      <trkpt lat="42.350772013887763" lon="-7.76527295820415">
        <ele>398.60000000000002</ele>
        <time>2025-05-02T09:40:13Z</time>
      </trkpt>
      <trkpt lat="42.350772013887763" lon="-7.765123005956411">
        <ele>398.60000000000002</ele>
        <time>2025-05-02T09:40:14Z</time>
      </trkpt>
      <trkpt lat="42.350776037201285" lon="-7.764973975718021">
        <ele>398.60000000000002</ele>
        <time>2025-05-02T09:40:15Z</time>
      </trkpt>
      <trkpt lat="42.350806966423988" lon="-7.764824023470283">
        <ele>398.60000000000002</ele>
        <time>2025-05-02T09:40:16Z</time>
      </trkpt>
      <trkpt lat="42.350838985294104" lon="-7.76467096991837">
        <ele>398.12</ele>
        <time>2025-05-02T09:40:17Z</time>
      </trkpt>
      <trkpt lat="42.35119697637856" lon="-7.763382000848651">
        <ele>398.60000000000002</ele>
        <time>2025-05-02T09:40:25Z</time>
      </trkpt>
      <trkpt lat="42.351280963048339" lon="-7.763118976727128">
        <ele>398.60000000000002</ele>
        <time>2025-05-02T09:40:27Z</time>
      </trkpt>
      <trkpt lat="42.351337037980556" lon="-7.763005988672376">
        <ele>398.60000000000002</ele>
        <time>2025-05-02T09:40:28Z</time>
      </trkpt>
      <trkpt lat="42.351468969136477" lon="-7.762781018391252">
        <ele>398.60000000000002</ele>
        <time>2025-05-02T09:40:29Z</time>
      </trkpt>
      <trkpt lat="42.351468969136477" lon="-7.762781018391252">
        <ele>398.12</ele>
        <time>2025-05-02T09:40:30Z</time>
      </trkpt>
      <trkpt lat="42.3515610024333" lon="-7.762706000357866">
        <ele>398.12</ele>
        <time>2025-05-02T09:40:31Z</time>
      </trkpt>
      <trkpt lat="42.351654963567853" lon="-7.7626299764961">
        <ele>397.63999999999999</ele>
        <time>2025-05-02T09:40:32Z</time>
      </trkpt>
      <trkpt lat="42.351843975484371" lon="-7.76247700676322">
        <ele>396.68000000000001</ele>
        <time>2025-05-02T09:40:34Z</time>
      </trkpt>
      <trkpt lat="42.35192796215415" lon="-7.762382039800286">
        <ele>396.19999999999999</ele>
        <time>2025-05-02T09:40:35Z</time>
      </trkpt>
      <trkpt lat="42.352192997932434" lon="-7.761907959356904">
        <ele>394.27999999999997</ele>
        <time>2025-05-02T09:40:39Z</time>
      </trkpt>
      <trkpt lat="42.352254018187523" lon="-7.761766975745559">
        <ele>393.80000000000001</ele>
        <time>2025-05-02T09:40:40Z</time>
      </trkpt>
      <trkpt lat="42.352392990142107" lon="-7.761326003819704">
        <ele>391.38999999999999</ele>
        <time>2025-05-02T09:40:43Z</time>
      </trkpt>
      <trkpt lat="42.352418974041939" lon="-7.761177979409695">
        <ele>390.91000000000003</ele>
        <time>2025-05-02T09:40:44Z</time>
      </trkpt>
      <trkpt lat="42.352443030104041" lon="-7.761042024940252">
        <ele>389.94999999999999</ele>
        <time>2025-05-02T09:40:45Z</time>
      </trkpt>
      <trkpt lat="42.352424003183842" lon="-7.760916966944933">
        <ele>389.47000000000003</ele>
        <time>2025-05-02T09:40:46Z</time>
      </trkpt>
      <trkpt lat="42.352401036769152" lon="-7.760800961405039">
        <ele>388.99000000000001</ele>
        <time>2025-05-02T09:40:47Z</time>
      </trkpt>
      <trkpt lat="42.352358037605882" lon="-7.760684033855796">
        <ele>388.02999999999997</ele>
        <time>2025-05-02T09:40:48Z</time>
      </trkpt>
      <trkpt lat="42.352176988497376" lon="-7.760529974475503">
        <ele>387.55000000000001</ele>
        <time>2025-05-02T09:40:49Z</time>
      </trkpt>
      <trkpt lat="42.352176988497376" lon="-7.760529974475503">
        <ele>386.58999999999997</ele>
        <time>2025-05-02T09:40:50Z</time>
      </trkpt>
      <trkpt lat="42.351801982149482" lon="-7.760210037231445">
        <ele>383.22000000000003</ele>
        <time>2025-05-02T09:40:54Z</time>
      </trkpt>
      <trkpt lat="42.351722018793225" lon="-7.760073998942971">
        <ele>382.25999999999999</ele>
        <time>2025-05-02T09:40:55Z</time>
      </trkpt>
      <trkpt lat="42.351637026295066" lon="-7.75983301922679">
        <ele>381.30000000000001</ele>
        <time>2025-05-02T09:40:56Z</time>
      </trkpt>
      <trkpt lat="42.351637026295066" lon="-7.75983301922679">
        <ele>380.33999999999997</ele>
        <time>2025-05-02T09:40:57Z</time>
      </trkpt>
      <trkpt lat="42.351640965789557" lon="-7.759694969281554">
        <ele>380.33999999999997</ele>
        <time>2025-05-02T09:40:58Z</time>
      </trkpt>
      <trkpt lat="42.351659992709756" lon="-7.759541999548674">
        <ele>379.38</ele>
        <time>2025-05-02T09:40:59Z</time>
      </trkpt>
      <trkpt lat="42.351680025458336" lon="-7.759385006502271">
        <ele>379.38</ele>
        <time>2025-05-02T09:41:00Z</time>
      </trkpt>
      <trkpt lat="42.351708021014929" lon="-7.759235976263881">
        <ele>379.38</ele>
        <time>2025-05-02T09:41:01Z</time>
      </trkpt>
      <trkpt lat="42.351769041270018" lon="-7.759094992652535">
        <ele>378.89999999999998</ele>
        <time>2025-05-02T09:41:02Z</time>
      </trkpt>
      <trkpt lat="42.351828971877694" lon="-7.758957026526332">
        <ele>378.42000000000002</ele>
        <time>2025-05-02T09:41:03Z</time>
      </trkpt>
      <trkpt lat="42.351890997961164" lon="-7.758813025429845">
        <ele>378.42000000000002</ele>
        <time>2025-05-02T09:41:04Z</time>
      </trkpt>
      <trkpt lat="42.351956963539124" lon="-7.758680004626513">
        <ele>377.94</ele>
        <time>2025-05-02T09:41:05Z</time>
      </trkpt>
      <trkpt lat="42.352025024592876" lon="-7.758551007136703">
        <ele>377.44999999999999</ele>
        <time>2025-05-02T09:41:06Z</time>
      </trkpt>
      <trkpt lat="42.352094007655978" lon="-7.75841798633337">
        <ele>377.44999999999999</ele>
        <time>2025-05-02T09:41:07Z</time>
      </trkpt>
      <trkpt lat="42.352643022313714" lon="-7.75736597366631">
        <ele>377.44999999999999</ele>
        <time>2025-05-02T09:41:15Z</time>
      </trkpt>
      <trkpt lat="42.352710999548435" lon="-7.757234964519739">
        <ele>377.44999999999999</ele>
        <time>2025-05-02T09:41:16Z</time>
      </trkpt>
      <trkpt lat="42.352779982611537" lon="-7.757103033363819">
        <ele>377.94</ele>
        <time>2025-05-02T09:41:17Z</time>
      </trkpt>
      <trkpt lat="42.352918032556772" lon="-7.756837997585535">
        <ele>378.42000000000002</ele>
        <time>2025-05-02T09:41:19Z</time>
      </trkpt>
      <trkpt lat="42.35298098064959" lon="-7.75669801980257">
        <ele>378.89999999999998</ele>
        <time>2025-05-02T09:41:20Z</time>
      </trkpt>
      <trkpt lat="42.353033032268286" lon="-7.756553012877703">
        <ele>378.89999999999998</ele>
        <time>2025-05-02T09:41:21Z</time>
      </trkpt>
      <trkpt lat="42.353075025603175" lon="-7.756402976810932">
        <ele>378.89999999999998</ele>
        <time>2025-05-02T09:41:22Z</time>
      </trkpt>
      <trkpt lat="42.353095980361104" lon="-7.756240032613277">
        <ele>379.38</ele>
        <time>2025-05-02T09:41:23Z</time>
      </trkpt>
      <trkpt lat="42.353110983967781" lon="-7.756080022081733">
        <ele>379.86000000000001</ele>
        <time>2025-05-02T09:41:24Z</time>
      </trkpt>
      <trkpt lat="42.352921972051263" lon="-7.754003992304206">
        <ele>385.14999999999998</ele>
        <time>2025-05-02T09:41:36Z</time>
      </trkpt>
      <trkpt lat="42.35278601758182" lon="-7.752693984657526">
        <ele>389.94999999999999</ele>
        <time>2025-05-02T09:41:47Z</time>
      </trkpt>
      <trkpt lat="42.352732960134745" lon="-7.752138013020158">
        <ele>391.38999999999999</ele>
        <time>2025-05-02T09:41:52Z</time>
      </trkpt>
      <trkpt lat="42.352730026468635" lon="-7.751982025802136">
        <ele>391.38999999999999</ele>
        <time>2025-05-02T09:41:53Z</time>
      </trkpt>
      <trkpt lat="42.352747041732073" lon="-7.75182100944221">
        <ele>391.38999999999999</ele>
        <time>2025-05-02T09:41:54Z</time>
      </trkpt>
      <trkpt lat="42.352907974272966" lon="-7.751064961776137">
        <ele>391.38999999999999</ele>
        <time>2025-05-02T09:41:59Z</time>
      </trkpt>
      <trkpt lat="42.353094974532723" lon="-7.750316960737109">
        <ele>390.91000000000003</ele>
        <time>2025-05-02T09:42:06Z</time>
      </trkpt>
      <trkpt lat="42.353149959817529" lon="-7.750097019597888">
        <ele>390.91000000000003</ele>
        <time>2025-05-02T09:42:07Z</time>
      </trkpt>
      <trkpt lat="42.353267977014184" lon="-7.749611958861351">
        <ele>390.91000000000003</ele>
        <time>2025-05-02T09:42:12Z</time>
      </trkpt>
      <trkpt lat="42.353298990055919" lon="-7.74947801604867">
        <ele>390.43000000000001</ele>
        <time>2025-05-02T09:42:13Z</time>
      </trkpt>
      <trkpt lat="42.353330003097653" lon="-7.749341977760196">
        <ele>390.43000000000001</ele>
        <time>2025-05-02T09:42:14Z</time>
      </trkpt>
      <trkpt lat="42.353363027796149" lon="-7.74920099414885">
        <ele>389.94999999999999</ele>
        <time>2025-05-02T09:42:15Z</time>
      </trkpt>
      <trkpt lat="42.353395968675613" lon="-7.749061016365886">
        <ele>389.94999999999999</ele>
        <time>2025-05-02T09:42:16Z</time>
      </trkpt>
      <trkpt lat="42.353428993374109" lon="-7.74891902692616">
        <ele>389.47000000000003</ele>
        <time>2025-05-02T09:42:17Z</time>
      </trkpt>
      <trkpt lat="42.353815985843539" lon="-7.747372984886169">
        <ele>393.31999999999999</ele>
        <time>2025-05-02T09:42:27Z</time>
      </trkpt>
      <trkpt lat="42.354039028286934" lon="-7.746537979692221">
        <ele>397.63999999999999</ele>
        <time>2025-05-02T09:42:33Z</time>
      </trkpt>
      <trkpt lat="42.354000974446535" lon="-7.746360031887889">
        <ele>398.12</ele>
        <time>2025-05-02T09:42:34Z</time>
      </trkpt>
      <trkpt lat="42.353950012475252" lon="-7.746250983327627">
        <ele>399.07999999999998</ele>
        <time>2025-05-02T09:42:36Z</time>
      </trkpt>
      <trkpt lat="42.353844987228513" lon="-7.746021989732981">
        <ele>399.56999999999999</ele>
        <time>2025-05-02T09:42:37Z</time>
      </trkpt>
      <trkpt lat="42.353598978370428" lon="-7.745685959234834">
        <ele>401.00999999999999</ele>
        <time>2025-05-02T09:42:40Z</time>
      </trkpt>
      <trkpt lat="42.353510968387127" lon="-7.745582023635507">
        <ele>401.49000000000001</ele>
        <time>2025-05-02T09:42:41Z</time>
      </trkpt>
      <trkpt lat="42.352533973753452" lon="-7.744424985721707">
        <ele>410.13999999999999</ele>
        <time>2025-05-02T09:42:53Z</time>
      </trkpt>
      <trkpt lat="42.352445963770151" lon="-7.744319960474968">
        <ele>411.10000000000002</ele>
        <time>2025-05-02T09:42:54Z</time>
      </trkpt>
      <trkpt lat="42.352354014292359" lon="-7.744212001562119">
        <ele>411.57999999999998</ele>
        <time>2025-05-02T09:42:55Z</time>
      </trkpt>
      <trkpt lat="42.352273967117071" lon="-7.744117034599185">
        <ele>412.54000000000002</ele>
        <time>2025-05-02T09:42:56Z</time>
      </trkpt>
      <trkpt lat="42.352177994325757" lon="-7.74380799382925">
        <ele>413.01999999999998</ele>
        <time>2025-05-02T09:42:57Z</time>
      </trkpt>
      <trkpt lat="42.352177994325757" lon="-7.74380799382925">
        <ele>413.01999999999998</ele>
        <time>2025-05-02T09:42:58Z</time>
      </trkpt>
      <trkpt lat="42.352157961577177" lon="-7.743651000782847">
        <ele>413.5</ele>
        <time>2025-05-02T09:42:59Z</time>
      </trkpt>
      <trkpt lat="42.352136000990868" lon="-7.743490990251303">
        <ele>413.5</ele>
        <time>2025-05-02T09:43:00Z</time>
      </trkpt>
      <trkpt lat="42.352114040404558" lon="-7.743327040225267">
        <ele>413.5</ele>
        <time>2025-05-02T09:43:01Z</time>
      </trkpt>
      <trkpt lat="42.352101970463991" lon="-7.743237018585205">
        <ele>413.5</ele>
        <time>2025-05-02T09:43:02Z</time>
      </trkpt>
      <trkpt lat="42.351935002952814" lon="-7.742973994463682">
        <ele>414.47000000000003</ele>
        <time>2025-05-02T09:43:04Z</time>
      </trkpt>
      <trkpt lat="42.351869037374854" lon="-7.742870980873704">
        <ele>414.94999999999999</ele>
        <time>2025-05-02T09:43:05Z</time>
      </trkpt>
      <trkpt lat="42.35179896466434" lon="-7.742749024182558">
        <ele>415.43000000000001</ele>
        <time>2025-05-02T09:43:06Z</time>
      </trkpt>
      <trkpt lat="42.351771974936128" lon="-7.742616003379226">
        <ele>415.43000000000001</ele>
        <time>2025-05-02T09:43:07Z</time>
      </trkpt>
      <trkpt lat="42.351738028228283" lon="-7.742437971755862">
        <ele>415.43000000000001</ele>
        <time>2025-05-02T09:43:08Z</time>
      </trkpt>
      <trkpt lat="42.351801982149482" lon="-7.741928016766906">
        <ele>415.43000000000001</ele>
        <time>2025-05-02T09:43:11Z</time>
      </trkpt>
      <trkpt lat="42.351801982149482" lon="-7.741758031770587">
        <ele>414.94999999999999</ele>
        <time>2025-05-02T09:43:12Z</time>
      </trkpt>
      <trkpt lat="42.351801982149482" lon="-7.741601960733533">
        <ele>414.94999999999999</ele>
        <time>2025-05-02T09:43:13Z</time>
      </trkpt>
      <trkpt lat="42.351799970492721" lon="-7.741496013477445">
        <ele>414.47000000000003</ele>
        <time>2025-05-02T09:43:14Z</time>
      </trkpt>
      <trkpt lat="42.351746996864676" lon="-7.741389982402325">
        <ele>414.47000000000003</ele>
        <time>2025-05-02T09:43:15Z</time>
      </trkpt>
      <trkpt lat="42.351627973839641" lon="-7.741262996569276">
        <ele>413.98000000000002</ele>
        <time>2025-05-02T09:43:16Z</time>
      </trkpt>
      <trkpt lat="42.351512974128127" lon="-7.741258973255754">
        <ele>413.98000000000002</ele>
        <time>2025-05-02T09:43:17Z</time>
      </trkpt>
      <trkpt lat="42.351512974128127" lon="-7.741258973255754">
        <ele>413.98000000000002</ele>
        <time>2025-05-02T09:43:18Z</time>
      </trkpt>
      <trkpt lat="42.351399986073375" lon="-7.741305995732546">
        <ele>413.5</ele>
        <time>2025-05-02T09:43:19Z</time>
      </trkpt>
      <trkpt lat="42.351179961115122" lon="-7.741430969908834">
        <ele>413.5</ele>
        <time>2025-05-02T09:43:20Z</time>
      </trkpt>
      <trkpt lat="42.351179961115122" lon="-7.741430969908834">
        <ele>413.5</ele>
        <time>2025-05-02T09:43:21Z</time>
      </trkpt>
      <trkpt lat="42.351066973060369" lon="-7.741496013477445">
        <ele>413.5</ele>
        <time>2025-05-02T09:43:22Z</time>
      </trkpt>
      <trkpt lat="42.350844014436007" lon="-7.741624005138874">
        <ele>413.5</ele>
        <time>2025-05-02T09:43:23Z</time>
      </trkpt>
      <trkpt lat="42.350535979494452" lon="-7.741799019277096">
        <ele>413.98000000000002</ele>
        <time>2025-05-02T09:43:26Z</time>
      </trkpt>
      <trkpt lat="42.350454004481435" lon="-7.741799019277096">
        <ele>414.47000000000003</ele>
        <time>2025-05-02T09:43:27Z</time>
      </trkpt>
      <trkpt lat="42.350363982841372" lon="-7.741799019277096">
        <ele>414.94999999999999</ele>
        <time>2025-05-02T09:43:28Z</time>
      </trkpt>
      <trkpt lat="42.350247977301478" lon="-7.741730958223343">
        <ele>415.91000000000003</ele>
        <time>2025-05-02T09:43:29Z</time>
      </trkpt>
      <trkpt lat="42.350247977301478" lon="-7.741730958223343">
        <ele>416.87</ele>
        <time>2025-05-02T09:43:30Z</time>
      </trkpt>
      <trkpt lat="42.350182011723518" lon="-7.741643032059073">
        <ele>417.82999999999998</ele>
        <time>2025-05-02T09:43:31Z</time>
      </trkpt>
      <trkpt lat="42.35009903088212" lon="-7.741523003205657">
        <ele>418.79000000000002</ele>
        <time>2025-05-02T09:43:32Z</time>
      </trkpt>
      <trkpt lat="42.349636014550924" lon="-7.740345010533929">
        <ele>427.44</ele>
        <time>2025-05-02T09:43:40Z</time>
      </trkpt>
      <trkpt lat="42.349574994295835" lon="-7.740210983902216">
        <ele>427.92000000000002</ele>
        <time>2025-05-02T09:43:41Z</time>
      </trkpt>
      <trkpt lat="42.349488995969296" lon="-7.740096990019083">
        <ele>428.39999999999998</ele>
        <time>2025-05-02T09:43:42Z</time>
      </trkpt>
      <trkpt lat="42.34941003844142" lon="-7.739990036934614">
        <ele>428.88999999999999</ele>
        <time>2025-05-02T09:43:43Z</time>
      </trkpt>
      <trkpt lat="42.349324962124228" lon="-7.739878976717591">
        <ele>429.37</ele>
        <time>2025-05-02T09:43:44Z</time>
      </trkpt>
      <trkpt lat="42.349233012646437" lon="-7.739772023633122">
        <ele>430.32999999999998</ele>
        <time>2025-05-02T09:43:45Z</time>
      </trkpt>
      <trkpt lat="42.34915497712791" lon="-7.739634979516268">
        <ele>431.29000000000002</ele>
        <time>2025-05-02T09:43:46Z</time>
      </trkpt>
      <trkpt lat="42.349088005721569" lon="-7.739495001733303">
        <ele>432.73000000000002</ele>
        <time>2025-05-02T09:43:47Z</time>
      </trkpt>
      <trkpt lat="42.348954984918237" lon="-7.739216974005103">
        <ele>434.64999999999998</ele>
        <time>2025-05-02T09:43:49Z</time>
      </trkpt>
      <trkpt lat="42.348891030997038" lon="-7.739084037020803">
        <ele>435.61000000000001</ele>
        <time>2025-05-02T09:43:50Z</time>
      </trkpt>
      <trkpt lat="42.348764967173338" lon="-7.73882101289928">
        <ele>437.06</ele>
        <time>2025-05-02T09:43:52Z</time>
      </trkpt>
      <trkpt lat="42.348711993545294" lon="-7.738710958510637">
        <ele>438.01999999999998</ele>
        <time>2025-05-02T09:43:53Z</time>
      </trkpt>
      <trkpt lat="42.348645022138953" lon="-7.73862898349762">
        <ele>438.98000000000002</ele>
        <time>2025-05-02T09:43:54Z</time>
      </trkpt>
      <trkpt lat="42.348360037431121" lon="-7.738547008484602">
        <ele>440.42000000000002</ele>
        <time>2025-05-02T09:43:57Z</time>
      </trkpt>
      <trkpt lat="42.347960975021124" lon="-7.738431002944708">
        <ele>441.86000000000001</ele>
        <time>2025-05-02T09:44:01Z</time>
      </trkpt>
      <trkpt lat="42.347862990573049" lon="-7.738324971869588">
        <ele>442.33999999999997</ele>
        <time>2025-05-02T09:44:02Z</time>
      </trkpt>
      <trkpt lat="42.347777998074889" lon="-7.738235034048557">
        <ele>442.33999999999997</ele>
        <time>2025-05-02T09:44:03Z</time>
      </trkpt>
      <trkpt lat="42.347691999748349" lon="-7.738141994923353">
        <ele>442.81999999999999</ele>
        <time>2025-05-02T09:44:04Z</time>
      </trkpt>
      <trkpt lat="42.347631985321641" lon="-7.738021966069937">
        <ele>442.81999999999999</ele>
        <time>2025-05-02T09:44:05Z</time>
      </trkpt>
      <trkpt lat="42.3475840408355" lon="-7.737879976630211">
        <ele>443.31</ele>
        <time>2025-05-02T09:44:06Z</time>
      </trkpt>
      <trkpt lat="42.347531989216805" lon="-7.737721977755427">
        <ele>443.31</ele>
        <time>2025-05-02T09:44:07Z</time>
      </trkpt>
      <trkpt lat="42.347514973953366" lon="-7.737571019679308">
        <ele>442.81999999999999</ele>
        <time>2025-05-02T09:44:08Z</time>
      </trkpt>
      <trkpt lat="42.347499970346689" lon="-7.73742500692606">
        <ele>442.81999999999999</ele>
        <time>2025-05-02T09:44:09Z</time>
      </trkpt>
      <trkpt lat="42.347483038902283" lon="-7.737266002222896">
        <ele>442.81999999999999</ele>
        <time>2025-05-02T09:44:10Z</time>
      </trkpt>
      <trkpt lat="42.347463006153703" lon="-7.737086964771152">
        <ele>442.33999999999997</ele>
        <time>2025-05-02T09:44:11Z</time>
      </trkpt>
      <trkpt lat="42.347444985061884" lon="-7.736923014745116">
        <ele>442.33999999999997</ele>
        <time>2025-05-02T09:44:12Z</time>
      </trkpt>
      <trkpt lat="42.347396034747362" lon="-7.73663098923862">
        <ele>441.86000000000001</ele>
        <time>2025-05-02T09:44:14Z</time>
      </trkpt>
      <trkpt lat="42.347353035584092" lon="-7.736507020890713">
        <ele>441.86000000000001</ele>
        <time>2025-05-02T09:44:15Z</time>
      </trkpt>
      <trkpt lat="42.347275000065565" lon="-7.736409036442637">
        <ele>441.86000000000001</ele>
        <time>2025-05-02T09:44:16Z</time>
      </trkpt>
      <trkpt lat="42.347210040315986" lon="-7.736327983438969">
        <ele>441.86000000000001</ele>
        <time>2025-05-02T09:44:17Z</time>
      </trkpt>
      <trkpt lat="42.347143990918994" lon="-7.736237039789558">
        <ele>441.86000000000001</ele>
        <time>2025-05-02T09:44:18Z</time>
      </trkpt>
      <trkpt lat="42.347037959843874" lon="-7.73609203286469">
        <ele>441.86000000000001</ele>
        <time>2025-05-02T09:44:19Z</time>
      </trkpt>
      <trkpt lat="42.347037959843874" lon="-7.73603000678122">
        <ele>442.33999999999997</ele>
        <time>2025-05-02T09:44:20Z</time>
      </trkpt>
      <trkpt lat="42.347037959843874" lon="-7.735906038433313">
        <ele>441.86000000000001</ele>
        <time>2025-05-02T09:44:21Z</time>
      </trkpt>
      <trkpt lat="42.347037959843874" lon="-7.735779974609613">
        <ele>441.86000000000001</ele>
        <time>2025-05-02T09:44:22Z</time>
      </trkpt>
      <trkpt lat="42.347082970663905" lon="-7.735617030411959">
        <ele>441.86000000000001</ele>
        <time>2025-05-02T09:44:23Z</time>
      </trkpt>
      <trkpt lat="42.347149020060897" lon="-7.735518962144852">
        <ele>441.86000000000001</ele>
        <time>2025-05-02T09:44:24Z</time>
      </trkpt>
      <trkpt lat="42.347226971760392" lon="-7.735409997403622">
        <ele>441.86000000000001</ele>
        <time>2025-05-02T09:44:25Z</time>
      </trkpt>
      <trkpt lat="42.347319005057216" lon="-7.735317964106798">
        <ele>441.86000000000001</ele>
        <time>2025-05-02T09:44:26Z</time>
      </trkpt>
      <trkpt lat="42.347421012818813" lon="-7.735216040164232">
        <ele>441.86000000000001</ele>
        <time>2025-05-02T09:44:27Z</time>
      </trkpt>
      <trkpt lat="42.3477169778198" lon="-7.734894007444382">
        <ele>442.33999999999997</ele>
        <time>2025-05-02T09:44:29Z</time>
      </trkpt>
      <trkpt lat="42.347789984196424" lon="-7.734770039096475">
        <ele>443.31</ele>
        <time>2025-05-02T09:44:30Z</time>
      </trkpt>
      <trkpt lat="42.347789984196424" lon="-7.734770039096475">
        <ele>444.26999999999998</ele>
        <time>2025-05-02T09:44:31Z</time>
      </trkpt>
      <trkpt lat="42.347923004999757" lon="-7.734310040250421">
        <ele>446.67000000000002</ele>
        <time>2025-05-02T09:44:33Z</time>
      </trkpt>
      <trkpt lat="42.347923004999757" lon="-7.734310040250421">
        <ele>447.63</ele>
        <time>2025-05-02T09:44:34Z</time>
      </trkpt>
      <trkpt lat="42.347999028861523" lon="-7.73392497561872">
        <ele>450.02999999999997</ele>
        <time>2025-05-02T09:44:36Z</time>
      </trkpt>
      <trkpt lat="42.347999028861523" lon="-7.73392497561872">
        <ele>450.51999999999998</ele>
        <time>2025-05-02T09:44:37Z</time>
      </trkpt>
      <trkpt lat="42.347988970577717" lon="-7.733832020312548">
        <ele>451</ele>
        <time>2025-05-02T09:44:38Z</time>
      </trkpt>
      <trkpt lat="42.347958041355014" lon="-7.733745016157627">
        <ele>451.95999999999998</ele>
        <time>2025-05-02T09:44:39Z</time>
      </trkpt>
      <trkpt lat="42.347874976694584" lon="-7.733646025881171">
        <ele>452.44</ele>
        <time>2025-05-02T09:44:40Z</time>
      </trkpt>
      <trkpt lat="42.347830971702933" lon="-7.733649965375662">
        <ele>453.39999999999998</ele>
        <time>2025-05-02T09:44:41Z</time>
      </trkpt>
      <trkpt lat="42.347632991150022" lon="-7.733695982024074">
        <ele>453.88</ele>
        <time>2025-05-02T09:44:42Z</time>
      </trkpt>
      <trkpt lat="42.347547998651862" lon="-7.733786003664136">
        <ele>454.36000000000001</ele>
        <time>2025-05-02T09:44:43Z</time>
      </trkpt>
      <trkpt lat="42.347547998651862" lon="-7.733786003664136">
        <ele>455.31999999999999</ele>
        <time>2025-05-02T09:44:44Z</time>
      </trkpt>
      <trkpt lat="42.347464011982083" lon="-7.733875019475818">
        <ele>455.80000000000001</ele>
        <time>2025-05-02T09:44:45Z</time>
      </trkpt>
      <trkpt lat="42.347315987572074" lon="-7.734032012522221">
        <ele>456.75999999999999</ele>
        <time>2025-05-02T09:44:46Z</time>
      </trkpt>
      <trkpt lat="42.347237030044198" lon="-7.734060008078814">
        <ele>457.24000000000001</ele>
        <time>2025-05-02T09:44:47Z</time>
      </trkpt>
      <trkpt lat="42.347168968990445" lon="-7.734068976715207">
        <ele>457.72000000000003</ele>
        <time>2025-05-02T09:44:48Z</time>
      </trkpt>
      <trkpt lat="42.347123958170414" lon="-7.734075011685491">
        <ele>458.69</ele>
        <time>2025-05-02T09:44:49Z</time>
      </trkpt>
      <trkpt lat="42.347123958170414" lon="-7.734075011685491">
        <ele>459.64999999999998</ele>
        <time>2025-05-02T09:44:50Z</time>
      </trkpt>
      <trkpt lat="42.347078025341034" lon="-7.733994964510202">
        <ele>460.13</ele>
        <time>2025-05-02T09:44:51Z</time>
      </trkpt>
      <trkpt lat="42.347009964287281" lon="-7.733791032806039">
        <ele>461.08999999999997</ele>
        <time>2025-05-02T09:44:52Z</time>
      </trkpt>
      <trkpt lat="42.346871998161077" lon="-7.733190972357988">
        <ele>461.56999999999999</ele>
        <time>2025-05-02T09:44:56Z</time>
      </trkpt>
      <trkpt lat="42.346871998161077" lon="-7.733190972357988">
        <ele>462.05000000000001</ele>
        <time>2025-05-02T09:44:57Z</time>
      </trkpt>
      <trkpt lat="42.346822964027524" lon="-7.733112014830113">
        <ele>462.52999999999997</ele>
        <time>2025-05-02T09:44:58Z</time>
      </trkpt>
      <trkpt lat="42.346692038699985" lon="-7.73304495960474">
        <ele>462.52999999999997</ele>
        <time>2025-05-02T09:44:59Z</time>
      </trkpt>
      <trkpt lat="42.346692038699985" lon="-7.73304495960474">
        <ele>462.52999999999997</ele>
        <time>2025-05-02T09:45:00Z</time>
      </trkpt>
      <trkpt lat="42.346579972654581" lon="-7.733200024813414">
        <ele>463.00999999999999</ele>
        <time>2025-05-02T09:45:01Z</time>
      </trkpt>
      <trkpt lat="42.346514007076621" lon="-7.733307983726263">
        <ele>463.00999999999999</ele>
        <time>2025-05-02T09:45:02Z</time>
      </trkpt>
      <trkpt lat="42.346299011260271" lon="-7.73366304114461">
        <ele>463.97000000000003</ele>
        <time>2025-05-02T09:45:05Z</time>
      </trkpt>
      <trkpt lat="42.346228016540408" lon="-7.733780974522233">
        <ele>463.97000000000003</ele>
        <time>2025-05-02T09:45:06Z</time>
      </trkpt>
      <trkpt lat="42.346128020435572" lon="-7.733908966183662">
        <ele>463.97000000000003</ele>
        <time>2025-05-02T09:45:07Z</time>
      </trkpt>
      <trkpt lat="42.345815040171146" lon="-7.73420300334692">
        <ele>464.93000000000001</ele>
        <time>2025-05-02T09:45:10Z</time>
      </trkpt>
      <trkpt lat="42.345723006874323" lon="-7.734261006116867">
        <ele>465.42000000000002</ele>
        <time>2025-05-02T09:45:11Z</time>
      </trkpt>
      <trkpt lat="42.345640026032925" lon="-7.734312973916531">
        <ele>465.89999999999998</ele>
        <time>2025-05-02T09:45:12Z</time>
      </trkpt>
      <trkpt lat="42.34556601382792" lon="-7.734358990564942">
        <ele>466.38</ele>
        <time>2025-05-02T09:45:13Z</time>
      </trkpt>
      <trkpt lat="42.345471968874335" lon="-7.73441799916327">
        <ele>467.81999999999999</ele>
        <time>2025-05-02T09:45:14Z</time>
      </trkpt>
      <trkpt lat="42.345466017723083" lon="-7.734439037740231">
        <ele>468.77999999999997</ele>
        <time>2025-05-02T09:45:15Z</time>
      </trkpt>
      <trkpt lat="42.345466017723083" lon="-7.734439037740231">
        <ele>470.22000000000003</ele>
        <time>2025-05-02T09:45:16Z</time>
      </trkpt>
      <trkpt lat="42.34543701633811" lon="-7.734551019966602">
        <ele>471.18000000000001</ele>
        <time>2025-05-02T09:45:17Z</time>
      </trkpt>
      <trkpt lat="42.345365015789866" lon="-7.734826030209661">
        <ele>472.13999999999999</ele>
        <time>2025-05-02T09:45:18Z</time>
      </trkpt>
      <trkpt lat="42.345299972221255" lon="-7.734932983294129">
        <ele>472.63</ele>
        <time>2025-05-02T09:45:19Z</time>
      </trkpt>
      <trkpt lat="42.345224032178521" lon="-7.734971037134528">
        <ele>473.58999999999997</ele>
        <time>2025-05-02T09:45:20Z</time>
      </trkpt>
      <trkpt lat="42.345081036910415" lon="-7.735012024641037">
        <ele>474.55000000000001</ele>
        <time>2025-05-02T09:45:21Z</time>
      </trkpt>
      <trkpt lat="42.345081036910415" lon="-7.735012024641037">
        <ele>475.50999999999999</ele>
        <time>2025-05-02T09:45:22Z</time>
      </trkpt>
      <trkpt lat="42.344957990571856" lon="-7.734995009377599">
        <ele>476.47000000000003</ele>
        <time>2025-05-02T09:45:23Z</time>
      </trkpt>
      <trkpt lat="42.344751041382551" lon="-7.734965002164245">
        <ele>476.94999999999999</ele>
        <time>2025-05-02T09:45:24Z</time>
      </trkpt>
      <trkpt lat="42.344678035005927" lon="-7.73495402187109">
        <ele>477.91000000000003</ele>
        <time>2025-05-02T09:45:25Z</time>
      </trkpt>
      <trkpt lat="42.344587007537484" lon="-7.734992997720838">
        <ele>478.38999999999999</ele>
        <time>2025-05-02T09:45:26Z</time>
      </trkpt>
      <trkpt lat="42.344587007537484" lon="-7.734992997720838">
        <ele>478.38999999999999</ele>
        <time>2025-05-02T09:45:27Z</time>
      </trkpt>
      <trkpt lat="42.344490028917789" lon="-7.735033985227346">
        <ele>478.87</ele>
        <time>2025-05-02T09:45:28Z</time>
      </trkpt>
      <trkpt lat="42.344401013106108" lon="-7.735071033239365">
        <ele>479.83999999999997</ele>
        <time>2025-05-02T09:45:29Z</time>
      </trkpt>
      <trkpt lat="42.344158021733165" lon="-7.735052006319165">
        <ele>480.31999999999999</ele>
        <time>2025-05-02T09:45:30Z</time>
      </trkpt>
      <trkpt lat="42.344158021733165" lon="-7.735052006319165">
        <ele>481.27999999999997</ele>
        <time>2025-05-02T09:45:31Z</time>
      </trkpt>
      <trkpt lat="42.343964986503124" lon="-7.734891995787621">
        <ele>482.24000000000001</ele>
        <time>2025-05-02T09:45:32Z</time>
      </trkpt>
      <trkpt lat="42.343867002055049" lon="-7.734799962490797">
        <ele>483.19999999999999</ele>
        <time>2025-05-02T09:45:33Z</time>
      </trkpt>
      <trkpt lat="42.343760970979929" lon="-7.734701978042722">
        <ele>484.16000000000003</ele>
        <time>2025-05-02T09:45:34Z</time>
      </trkpt>
      <trkpt lat="42.343655023723841" lon="-7.734635006636381">
        <ele>485.12</ele>
        <time>2025-05-02T09:45:35Z</time>
      </trkpt>
      <trkpt lat="42.343520997092128" lon="-7.734565017744899">
        <ele>486.07999999999998</ele>
        <time>2025-05-02T09:45:36Z</time>
      </trkpt>
      <trkpt lat="42.34339501708746" lon="-7.734499974176288">
        <ele>487.05000000000001</ele>
        <time>2025-05-02T09:45:37Z</time>
      </trkpt>
      <trkpt lat="42.343283034861088" lon="-7.734441971406341">
        <ele>488.97000000000003</ele>
        <time>2025-05-02T09:45:39Z</time>
      </trkpt>
      <trkpt lat="42.343079019337893" lon="-7.734298976138234">
        <ele>490.88999999999999</ele>
        <time>2025-05-02T09:45:40Z</time>
      </trkpt>
      <trkpt lat="42.342998972162604" lon="-7.734180958941579">
        <ele>492.81</ele>
        <time>2025-05-02T09:45:41Z</time>
      </trkpt>
      <trkpt lat="42.342947004362941" lon="-7.734054978936911">
        <ele>495.22000000000003</ele>
        <time>2025-05-02T09:45:42Z</time>
      </trkpt>
      <trkpt lat="42.342886989936233" lon="-7.733910977840424">
        <ele>497.13999999999999</ele>
        <time>2025-05-02T09:45:43Z</time>
      </trkpt>
      <trkpt lat="42.342829992994666" lon="-7.73377200588584">
        <ele>498.57999999999998</ele>
        <time>2025-05-02T09:45:44Z</time>
      </trkpt>
      <trkpt lat="42.342829992994666" lon="-7.73377200588584">
        <ele>500.5</ele>
        <time>2025-05-02T09:45:45Z</time>
      </trkpt>
      <trkpt lat="42.342223981395364" lon="-7.732738014310598">
        <ele>511.56</ele>
        <time>2025-05-02T09:45:52Z</time>
      </trkpt>
      <trkpt lat="42.342146029695868" lon="-7.732615973800421">
        <ele>513</ele>
        <time>2025-05-02T09:45:53Z</time>
      </trkpt>
      <trkpt lat="42.342099007219076" lon="-7.732450012117624">
        <ele>514.44000000000005</ele>
        <time>2025-05-02T09:45:54Z</time>
      </trkpt>
      <trkpt lat="42.342020971700549" lon="-7.732178019359708">
        <ele>516.85000000000002</ele>
        <time>2025-05-02T09:45:56Z</time>
      </trkpt>
      <trkpt lat="42.341989036649466" lon="-7.732066959142685">
        <ele>518.28999999999996</ele>
        <time>2025-05-02T09:45:57Z</time>
      </trkpt>
      <trkpt lat="42.341931033879519" lon="-7.731865039095283">
        <ele>519.25</ele>
        <time>2025-05-02T09:45:58Z</time>
      </trkpt>
      <trkpt lat="42.341917036101222" lon="-7.731851041316986">
        <ele>519.73000000000002</ele>
        <time>2025-05-02T09:45:59Z</time>
      </trkpt>
      <trkpt lat="42.341858027502894" lon="-7.731791026890278">
        <ele>520.69000000000005</ele>
        <time>2025-05-02T09:46:00Z</time>
      </trkpt>
      <trkpt lat="42.341726012527943" lon="-7.731807958334684">
        <ele>521.64999999999998</ele>
        <time>2025-05-02T09:46:01Z</time>
      </trkpt>
      <trkpt lat="42.341646971181035" lon="-7.731827991083264">
        <ele>522.13</ele>
        <time>2025-05-02T09:46:02Z</time>
      </trkpt>
      <trkpt lat="42.341587962582707" lon="-7.731842994689941">
        <ele>522.61000000000001</ele>
        <time>2025-05-02T09:46:03Z</time>
      </trkpt>
      <trkpt lat="42.341512022539973" lon="-7.73179697804153">
        <ele>523.58000000000004</ele>
        <time>2025-05-02T09:46:04Z</time>
      </trkpt>
      <trkpt lat="42.341452008113265" lon="-7.731724977493286">
        <ele>524.53999999999996</ele>
        <time>2025-05-02T09:46:05Z</time>
      </trkpt>
      <trkpt lat="42.341391993686557" lon="-7.731611989438534">
        <ele>525.5</ele>
        <time>2025-05-02T09:46:06Z</time>
      </trkpt>
      <trkpt lat="42.341331979259849" lon="-7.731497995555401">
        <ele>526.46000000000004</ele>
        <time>2025-05-02T09:46:07Z</time>
      </trkpt>
      <trkpt lat="42.341283028945327" lon="-7.731384001672268">
        <ele>527.89999999999998</ele>
        <time>2025-05-02T09:46:08Z</time>
      </trkpt>
      <trkpt lat="42.341260984539986" lon="-7.731246035546064">
        <ele>528.38</ele>
        <time>2025-05-02T09:46:09Z</time>
      </trkpt>
      <trkpt lat="42.341240029782057" lon="-7.731113014742732">
        <ele>529.34000000000003</ele>
        <time>2025-05-02T09:46:10Z</time>
      </trkpt>
      <trkpt lat="42.341215973719954" lon="-7.730992985889316">
        <ele>530.29999999999995</ele>
        <time>2025-05-02T09:46:11Z</time>
      </trkpt>
      <trkpt lat="42.341151013970375" lon="-7.730875974521041">
        <ele>530.78999999999996</ele>
        <time>2025-05-02T09:46:12Z</time>
      </trkpt>
      <trkpt lat="42.341052023693919" lon="-7.73085200227797">
        <ele>531.75</ele>
        <time>2025-05-02T09:46:13Z</time>
      </trkpt>
      <trkpt lat="42.340706018730998" lon="-7.730768015608192">
        <ele>533.19000000000005</ele>
        <time>2025-05-02T09:46:15Z</time>
      </trkpt>
      <trkpt lat="42.340588001534343" lon="-7.730739014223218">
        <ele>534.14999999999998</ele>
        <time>2025-05-02T09:46:16Z</time>
      </trkpt>
      <trkpt lat="42.34045104123652" lon="-7.730705989524722">
        <ele>534.63</ele>
        <time>2025-05-02T09:46:17Z</time>
      </trkpt>
      <trkpt lat="42.340348027646542" lon="-7.730602975934744">
        <ele>535.11000000000001</ele>
        <time>2025-05-02T09:46:18Z</time>
      </trkpt>
      <trkpt lat="42.340241996571422" lon="-7.730497028678656">
        <ele>536.07000000000005</ele>
        <time>2025-05-02T09:46:19Z</time>
      </trkpt>
      <trkpt lat="42.34015398658812" lon="-7.730409018695355">
        <ele>537.02999999999997</ele>
        <time>2025-05-02T09:46:20Z</time>
      </trkpt>
      <trkpt lat="42.340097995474935" lon="-7.730309022590518">
        <ele>537.50999999999999</ele>
        <time>2025-05-02T09:46:21Z</time>
      </trkpt>
      <trkpt lat="42.340051978826523" lon="-7.730198968201876">
        <ele>538.48000000000002</ele>
        <time>2025-05-02T09:46:22Z</time>
      </trkpt>
      <trkpt lat="42.339949971064925" lon="-7.729954971000552">
        <ele>539.44000000000005</ele>
        <time>2025-05-02T09:46:24Z</time>
      </trkpt>
      <trkpt lat="42.339891968294978" lon="-7.729850029572845">
        <ele>539.44000000000005</ele>
        <time>2025-05-02T09:46:25Z</time>
      </trkpt>
      <trkpt lat="42.339790966361761" lon="-7.729763025417924">
        <ele>539.91999999999996</ele>
        <time>2025-05-02T09:46:26Z</time>
      </trkpt>
      <trkpt lat="42.339688958600163" lon="-7.729676021263003">
        <ele>540.88</ele>
        <time>2025-05-02T09:46:27Z</time>
      </trkpt>
      <trkpt lat="42.339587034657598" lon="-7.729589017108083">
        <ele>541.36000000000001</ele>
        <time>2025-05-02T09:46:28Z</time>
      </trkpt>
      <trkpt lat="42.339482009410858" lon="-7.72949798963964">
        <ele>542.79999999999995</ele>
        <time>2025-05-02T09:46:29Z</time>
      </trkpt>
      <trkpt lat="42.339375978335738" lon="-7.729407967999578">
        <ele>543.75999999999999</ele>
        <time>2025-05-02T09:46:30Z</time>
      </trkpt>
      <trkpt lat="42.339263996109366" lon="-7.729334961622953">
        <ele>545.20000000000005</ele>
        <time>2025-05-02T09:46:31Z</time>
      </trkpt>
      <trkpt lat="42.338803997263312" lon="-7.729139998555183">
        <ele>552.40999999999997</ele>
        <time>2025-05-02T09:46:35Z</time>
      </trkpt>
      <trkpt lat="42.338610962033272" lon="-7.728998009115458">
        <ele>555.29999999999995</ele>
        <time>2025-05-02T09:46:37Z</time>
      </trkpt>
      <trkpt lat="42.338610962033272" lon="-7.728998009115458">
        <ele>556.74000000000001</ele>
        <time>2025-05-02T09:46:38Z</time>
      </trkpt>
      <trkpt lat="42.338517000898719" lon="-7.72893900051713">
        <ele>558.65999999999997</ele>
        <time>2025-05-02T09:46:39Z</time>
      </trkpt>
      <trkpt lat="42.338434020057321" lon="-7.728913016617298">
        <ele>560.11000000000001</ele>
        <time>2025-05-02T09:46:40Z</time>
      </trkpt>
      <trkpt lat="42.338365036994219" lon="-7.728891978040338">
        <ele>562.02999999999997</ele>
        <time>2025-05-02T09:46:41Z</time>
      </trkpt>
      <trkpt lat="42.338308962062001" lon="-7.728874962776899">
        <ele>563.47000000000003</ele>
        <time>2025-05-02T09:46:42Z</time>
      </trkpt>
      <trkpt lat="42.338262023404241" lon="-7.728859959170222">
        <ele>564.90999999999997</ele>
        <time>2025-05-02T09:46:43Z</time>
      </trkpt>
      <trkpt lat="42.338232016190886" lon="-7.728822994977236">
        <ele>566.83000000000004</ele>
        <time>2025-05-02T09:46:44Z</time>
      </trkpt>
      <trkpt lat="42.338001010939479" lon="-7.728293007239699">
        <ele>570.67999999999995</ele>
        <time>2025-05-02T09:46:49Z</time>
      </trkpt>
      <trkpt lat="42.337943008169532" lon="-7.728140959516168">
        <ele>570.67999999999995</ele>
        <time>2025-05-02T09:46:50Z</time>
      </trkpt>
      <trkpt lat="42.337880982086062" lon="-7.727979021146894">
        <ele>570.67999999999995</ele>
        <time>2025-05-02T09:46:51Z</time>
      </trkpt>
      <trkpt lat="42.337811999022961" lon="-7.727810963988304">
        <ele>570.67999999999995</ele>
        <time>2025-05-02T09:46:52Z</time>
      </trkpt>
      <trkpt lat="42.337729018181562" lon="-7.727645002305508">
        <ele>570.20000000000005</ele>
        <time>2025-05-02T09:46:53Z</time>
      </trkpt>
      <trkpt lat="42.337039019912481" lon="-7.726263999938965">
        <ele>565.38999999999999</ele>
        <time>2025-05-02T09:47:01Z</time>
      </trkpt>
      <trkpt lat="42.336867023259401" lon="-7.725889999419451">
        <ele>565.38999999999999</ele>
        <time>2025-05-02T09:47:03Z</time>
      </trkpt>
      <trkpt lat="42.336867023259401" lon="-7.725889999419451">
        <ele>565.38999999999999</ele>
        <time>2025-05-02T09:47:04Z</time>
      </trkpt>
      <trkpt lat="42.336824024096131" lon="-7.725749015808106">
        <ele>565.38999999999999</ele>
        <time>2025-05-02T09:47:05Z</time>
      </trkpt>
      <trkpt lat="42.336833998560905" lon="-7.725657988339663">
        <ele>565.38999999999999</ele>
        <time>2025-05-02T09:47:06Z</time>
      </trkpt>
      <trkpt lat="42.336868029087782" lon="-7.725514993071556">
        <ele>565.38999999999999</ele>
        <time>2025-05-02T09:47:07Z</time>
      </trkpt>
      <trkpt lat="42.336925026029348" lon="-7.725408039987087">
        <ele>565.38999999999999</ele>
        <time>2025-05-02T09:47:08Z</time>
      </trkpt>
      <trkpt lat="42.336982022970915" lon="-7.725301003083587">
        <ele>564.90999999999997</ele>
        <time>2025-05-02T09:47:09Z</time>
      </trkpt>
      <trkpt lat="42.337030973285437" lon="-7.725129006430507">
        <ele>564.90999999999997</ele>
        <time>2025-05-02T09:47:10Z</time>
      </trkpt>
      <trkpt lat="42.33701596967876" lon="-7.725023981183767">
        <ele>564.42999999999995</ele>
        <time>2025-05-02T09:47:11Z</time>
      </trkpt>
      <trkpt lat="42.336956961080432" lon="-7.724929014220834">
        <ele>563.95000000000005</ele>
        <time>2025-05-02T09:47:12Z</time>
      </trkpt>
      <trkpt lat="42.336888983845711" lon="-7.724818959832192">
        <ele>563.95000000000005</ele>
        <time>2025-05-02T09:47:13Z</time>
      </trkpt>
      <trkpt lat="42.336816983297467" lon="-7.724702032282949">
        <ele>563.47000000000003</ele>
        <time>2025-05-02T09:47:14Z</time>
      </trkpt>
      <trkpt lat="42.336745988577604" lon="-7.724586026743054">
        <ele>562.99000000000001</ele>
        <time>2025-05-02T09:47:15Z</time>
      </trkpt>
      <trkpt lat="42.336570974439383" lon="-7.724131979048252">
        <ele>559.62</ele>
        <time>2025-05-02T09:47:19Z</time>
      </trkpt>
      <trkpt lat="42.336524035781622" lon="-7.723989989608526">
        <ele>559.13999999999999</ele>
        <time>2025-05-02T09:47:20Z</time>
      </trkpt>
      <trkpt lat="42.336447006091475" lon="-7.72388999350369">
        <ele>558.17999999999995</ele>
        <time>2025-05-02T09:47:21Z</time>
      </trkpt>
      <trkpt lat="42.336309039965272" lon="-7.723711039870977">
        <ele>557.70000000000005</ele>
        <time>2025-05-02T09:47:22Z</time>
      </trkpt>
      <trkpt lat="42.336116004735231" lon="-7.723607020452619">
        <ele>557.22000000000003</ele>
        <time>2025-05-02T09:47:23Z</time>
      </trkpt>
      <trkpt lat="42.335993964225054" lon="-7.723541976884008">
        <ele>557.22000000000003</ele>
        <time>2025-05-02T09:47:24Z</time>
      </trkpt>
      <trkpt lat="42.33587603084743" lon="-7.723478022962809">
        <ele>557.22000000000003</ele>
        <time>2025-05-02T09:47:25Z</time>
      </trkpt>
      <trkpt lat="42.335750972852111" lon="-7.723411973565817">
        <ele>557.22000000000003</ele>
        <time>2025-05-02T09:47:26Z</time>
      </trkpt>
      <trkpt lat="42.335750972852111" lon="-7.723411973565817">
        <ele>557.70000000000005</ele>
        <time>2025-05-02T09:47:27Z</time>
      </trkpt>
      <trkpt lat="42.33563999645412" lon="-7.723326981067658">
        <ele>558.17999999999995</ele>
        <time>2025-05-02T09:47:28Z</time>
      </trkpt>
      <trkpt lat="42.335493983700871" lon="-7.723195971921086">
        <ele>558.65999999999997</ele>
        <time>2025-05-02T09:47:29Z</time>
      </trkpt>
      <trkpt lat="42.334682028740644" lon="-7.721951007843018">
        <ele>559.13999999999999</ele>
        <time>2025-05-02T09:47:39Z</time>
      </trkpt>
      <trkpt lat="42.334570968523622" lon="-7.721779011189938">
        <ele>558.65999999999997</ele>
        <time>2025-05-02T09:47:40Z</time>
      </trkpt>
      <trkpt lat="42.33439696021378" lon="-7.721605002880096">
        <ele>558.17999999999995</ele>
        <time>2025-05-02T09:47:42Z</time>
      </trkpt>
      <trkpt lat="42.334278021007776" lon="-7.721525961533189">
        <ele>558.17999999999995</ele>
        <time>2025-05-02T09:47:43Z</time>
      </trkpt>
      <trkpt lat="42.334184981882572" lon="-7.721479022875428">
        <ele>557.70000000000005</ele>
        <time>2025-05-02T09:47:44Z</time>
      </trkpt>
      <trkpt lat="42.334045004099607" lon="-7.721516992896795">
        <ele>556.74000000000001</ele>
        <time>2025-05-02T09:47:45Z</time>
      </trkpt>
      <trkpt lat="42.333892034366727" lon="-7.721623023971915">
        <ele>556.25999999999999</ele>
        <time>2025-05-02T09:47:46Z</time>
      </trkpt>
      <trkpt lat="42.333811987191439" lon="-7.721735006198287">
        <ele>555.29999999999995</ele>
        <time>2025-05-02T09:47:47Z</time>
      </trkpt>
      <trkpt lat="42.333716014400125" lon="-7.72186903283">
        <ele>554.82000000000005</ele>
        <time>2025-05-02T09:47:48Z</time>
      </trkpt>
      <trkpt lat="42.333283005282283" lon="-7.722460040822625">
        <ele>553.86000000000001</ele>
        <time>2025-05-02T09:47:52Z</time>
      </trkpt>
      <trkpt lat="42.333283005282283" lon="-7.722460040822625">
        <ele>553.86000000000001</ele>
        <time>2025-05-02T09:47:53Z</time>
      </trkpt>
      <trkpt lat="42.33314897865057" lon="-7.722555007785559">
        <ele>553.86000000000001</ele>
        <time>2025-05-02T09:47:54Z</time>
      </trkpt>
      <trkpt lat="42.333013024181128" lon="-7.722650980576873">
        <ele>554.34000000000003</ele>
        <time>2025-05-02T09:47:55Z</time>
      </trkpt>
      <trkpt lat="42.332845972850919" lon="-7.722717029973865">
        <ele>554.34000000000003</ele>
        <time>2025-05-02T09:47:56Z</time>
      </trkpt>
      <trkpt lat="42.332707000896335" lon="-7.722738990560174">
        <ele>554.82000000000005</ele>
        <time>2025-05-02T09:47:57Z</time>
      </trkpt>
      <trkpt lat="42.332383962348104" lon="-7.722722981125116">
        <ele>555.29999999999995</ele>
        <time>2025-05-02T09:47:58Z</time>
      </trkpt>
      <trkpt lat="42.332234010100365" lon="-7.722678976133466">
        <ele>555.77999999999997</ele>
        <time>2025-05-02T09:47:59Z</time>
      </trkpt>
      <trkpt lat="42.332081962376833" lon="-7.722633965313435">
        <ele>556.74000000000001</ele>
        <time>2025-05-02T09:48:00Z</time>
      </trkpt>
      <trkpt lat="42.331624981015921" lon="-7.722532041370869">
        <ele>560.59000000000003</ele>
        <time>2025-05-02T09:48:03Z</time>
      </trkpt>
      <trkpt lat="42.331462036818266" lon="-7.72251402027905">
        <ele>562.02999999999997</ele>
        <time>2025-05-02T09:48:04Z</time>
      </trkpt>
      <trkpt lat="42.331136986613274" lon="-7.722499016672373">
        <ele>566.35000000000002</ele>
        <time>2025-05-02T09:48:07Z</time>
      </trkpt>
      <trkpt lat="42.330974964424968" lon="-7.722492981702089">
        <ele>567.79999999999995</ele>
        <time>2025-05-02T09:48:08Z</time>
      </trkpt>
      <trkpt lat="42.329890010878444" lon="-7.721986966207624">
        <ele>575.49000000000001</ele>
        <time>2025-05-02T09:48:14Z</time>
      </trkpt>
      <trkpt lat="42.329890010878444" lon="-7.721986966207624">
        <ele>576.92999999999995</ele>
        <time>2025-05-02T09:48:15Z</time>
      </trkpt>
      <trkpt lat="42.329020975157619" lon="-7.720926990732551">
        <ele>586.05999999999995</ele>
        <time>2025-05-02T09:48:23Z</time>
      </trkpt>
      <trkpt lat="42.328677987679839" lon="-7.720514014363289">
        <ele>588.95000000000005</ele>
        <time>2025-05-02T09:48:26Z</time>
      </trkpt>
      <trkpt lat="42.328564999625087" lon="-7.720392979681492">
        <ele>589.42999999999995</ele>
        <time>2025-05-02T09:48:27Z</time>
      </trkpt>
      <trkpt lat="42.328476989641786" lon="-7.720299018546939">
        <ele>589.90999999999997</ele>
        <time>2025-05-02T09:48:28Z</time>
      </trkpt>
      <trkpt lat="42.32792504131794" lon="-7.718952968716621">
        <ele>591.35000000000002</ele>
        <time>2025-05-02T09:48:35Z</time>
      </trkpt>
      <trkpt lat="42.32764801941812" lon="-7.718420969322324">
        <ele>590.87</ele>
        <time>2025-05-02T09:48:37Z</time>
      </trkpt>
      <trkpt lat="42.32764801941812" lon="-7.718420969322324">
        <ele>590.38999999999999</ele>
        <time>2025-05-02T09:48:38Z</time>
      </trkpt>
      <trkpt lat="42.327473005279899" lon="-7.717797020450234">
        <ele>590.38999999999999</ele>
        <time>2025-05-02T09:48:40Z</time>
      </trkpt>
      <trkpt lat="42.327410979196429" lon="-7.717562997713685">
        <ele>590.38999999999999</ele>
        <time>2025-05-02T09:48:42Z</time>
      </trkpt>
      <trkpt lat="42.327225990593433" lon="-7.717162007465959">
        <ele>589.90999999999997</ele>
        <time>2025-05-02T09:48:43Z</time>
      </trkpt>
      <trkpt lat="42.327137980610132" lon="-7.716970983892679">
        <ele>589.90999999999997</ele>
        <time>2025-05-02T09:48:44Z</time>
      </trkpt>
      <trkpt lat="42.327050976455212" lon="-7.716783983632922">
        <ele>589.42999999999995</ele>
        <time>2025-05-02T09:48:45Z</time>
      </trkpt>
      <trkpt lat="42.32698199339211" lon="-7.716579968109727">
        <ele>589.42999999999995</ele>
        <time>2025-05-02T09:48:46Z</time>
      </trkpt>
      <trkpt lat="42.32691602781415" lon="-7.71637100726366">
        <ele>588.46000000000004</ele>
        <time>2025-05-02T09:48:47Z</time>
      </trkpt>
      <trkpt lat="42.326849978417158" lon="-7.716165985912085">
        <ele>587.5</ele>
        <time>2025-05-02T09:48:48Z</time>
      </trkpt>
      <trkpt lat="42.326782001182437" lon="-7.715956019237638">
        <ele>586.05999999999995</ele>
        <time>2025-05-02T09:48:49Z</time>
      </trkpt>
      <trkpt lat="42.326626013964415" lon="-7.715536002069712">
        <ele>583.65999999999997</ele>
        <time>2025-05-02T09:48:51Z</time>
      </trkpt>
      <trkpt lat="42.326517971232533" lon="-7.715345984324813">
        <ele>582.70000000000005</ele>
        <time>2025-05-02T09:48:52Z</time>
      </trkpt>
      <trkpt lat="42.326368018984795" lon="-7.715185973793268">
        <ele>580.76999999999998</ele>
        <time>2025-05-02T09:48:53Z</time>
      </trkpt>
      <trkpt lat="42.326226029545069" lon="-7.715042978525162">
        <ele>579.33000000000004</ele>
        <time>2025-05-02T09:48:54Z</time>
      </trkpt>
      <trkpt lat="42.326092002913356" lon="-7.714909035712481">
        <ele>577.88999999999999</ele>
        <time>2025-05-02T09:48:55Z</time>
      </trkpt>
      <trkpt lat="42.325965017080307" lon="-7.714782971888781">
        <ele>575.97000000000003</ele>
        <time>2025-05-02T09:48:56Z</time>
      </trkpt>
      <trkpt lat="42.325850017368793" lon="-7.714659003540874">
        <ele>574.52999999999997</ele>
        <time>2025-05-02T09:48:57Z</time>
      </trkpt>
      <trkpt lat="42.325765024870634" lon="-7.714504022151232">
        <ele>572.60000000000002</ele>
        <time>2025-05-02T09:48:58Z</time>
      </trkpt>
      <trkpt lat="42.325681960210204" lon="-7.7143519744277">
        <ele>570.67999999999995</ele>
        <time>2025-05-02T09:48:59Z</time>
      </trkpt>
      <trkpt lat="42.325603002682328" lon="-7.714206967502832">
        <ele>568.75999999999999</ele>
        <time>2025-05-02T09:49:00Z</time>
      </trkpt>
      <trkpt lat="42.325526978820562" lon="-7.714066989719868">
        <ele>567.32000000000005</ele>
        <time>2025-05-02T09:49:01Z</time>
      </trkpt>
      <trkpt lat="42.325418014079332" lon="-7.713925000280142">
        <ele>565.38999999999999</ele>
        <time>2025-05-02T09:49:02Z</time>
      </trkpt>
      <trkpt lat="42.325169993564487" lon="-7.713729031383991">
        <ele>562.50999999999999</ele>
        <time>2025-05-02T09:49:04Z</time>
      </trkpt>
      <trkpt lat="42.324806973338127" lon="-7.713302979245782">
        <ele>558.65999999999997</ele>
        <time>2025-05-02T09:49:07Z</time>
      </trkpt>
      <trkpt lat="42.324657021090388" lon="-7.713187979534268">
        <ele>557.22000000000003</ele>
        <time>2025-05-02T09:49:08Z</time>
      </trkpt>
      <trkpt lat="42.324260976165533" lon="-7.712884973734617">
        <ele>553.86000000000001</ele>
        <time>2025-05-02T09:49:11Z</time>
      </trkpt>
      <trkpt lat="42.324079005047679" lon="-7.712746001780033">
        <ele>552.40999999999997</ele>
        <time>2025-05-02T09:49:12Z</time>
      </trkpt>
      <trkpt lat="42.324030976742506" lon="-7.712657991796732">
        <ele>550.97000000000003</ele>
        <time>2025-05-02T09:49:13Z</time>
      </trkpt>
      <trkpt lat="42.323356987908483" lon="-7.711530039086938">
        <ele>541.84000000000003</ele>
        <time>2025-05-02T09:49:20Z</time>
      </trkpt>
      <trkpt lat="42.32326696626842" lon="-7.711388971656561">
        <ele>539.91999999999996</ele>
        <time>2025-05-02T09:49:21Z</time>
      </trkpt>
      <trkpt lat="42.323121037334204" lon="-7.711284030228853">
        <ele>538.96000000000004</ele>
        <time>2025-05-02T09:49:22Z</time>
      </trkpt>
      <trkpt lat="42.322419974952936" lon="-7.710899971425533">
        <ele>532.23000000000002</ele>
        <time>2025-05-02T09:49:28Z</time>
      </trkpt>
      <trkpt lat="42.322315033525229" lon="-7.710854038596153">
        <ele>530.78999999999996</ele>
        <time>2025-05-02T09:49:29Z</time>
      </trkpt>
      <trkpt lat="42.321898033842444" lon="-7.710721017792821">
        <ele>522.13</ele>
        <time>2025-05-02T09:49:36Z</time>
      </trkpt>
      <trkpt lat="42.321884036064148" lon="-7.710716994479299">
        <ele>521.16999999999996</ele>
        <time>2025-05-02T09:49:37Z</time>
      </trkpt>
      <trkpt lat="42.321870038285851" lon="-7.710712971165776">
        <ele>520.21000000000004</ele>
        <time>2025-05-02T09:49:38Z</time>
      </trkpt>
      <trkpt lat="42.321850005537271" lon="-7.710707020014525">
        <ele>519.25</ele>
        <time>2025-05-02T09:49:39Z</time>
      </trkpt>
      <trkpt lat="42.321797031909227" lon="-7.710641976445913">
        <ele>518.76999999999998</ele>
        <time>2025-05-02T09:49:40Z</time>
      </trkpt>
      <trkpt lat="42.321819998323917" lon="-7.710572993382812">
        <ele>518.76999999999998</ele>
        <time>2025-05-02T09:49:41Z</time>
      </trkpt>
      <trkpt lat="42.321872971951962" lon="-7.710391022264957">
        <ele>519.73000000000002</ele>
        <time>2025-05-02T09:49:43Z</time>
      </trkpt>
      <trkpt lat="42.321903984993696" lon="-7.710273005068302">
        <ele>519.73000000000002</ele>
        <time>2025-05-02T09:49:44Z</time>
      </trkpt>
      <trkpt lat="42.321939021348953" lon="-7.710135960951448">
        <ele>520.21000000000004</ele>
        <time>2025-05-02T09:49:45Z</time>
      </trkpt>
      <trkpt lat="42.321977997198701" lon="-7.709983997046948">
        <ele>520.21000000000004</ele>
        <time>2025-05-02T09:49:46Z</time>
      </trkpt>
      <trkpt lat="42.32201898470521" lon="-7.709828009828925">
        <ele>520.69000000000005</ele>
        <time>2025-05-02T09:49:47Z</time>
      </trkpt>
      <trkpt lat="42.322004986926913" lon="-7.709676967933774">
        <ele>521.16999999999996</ele>
        <time>2025-05-02T09:49:48Z</time>
      </trkpt>
      <trkpt lat="42.321988977491856" lon="-7.709503965452313">
        <ele>521.64999999999998</ele>
        <time>2025-05-02T09:49:49Z</time>
      </trkpt>
      <trkpt lat="42.321919994428754" lon="-7.709162989631295">
        <ele>521.64999999999998</ele>
        <time>2025-05-02T09:49:50Z</time>
      </trkpt>
      <trkpt lat="42.321869032457471" lon="-7.708989987149835">
        <ele>522.13</ele>
        <time>2025-05-02T09:49:51Z</time>
      </trkpt>
      <trkpt lat="42.321513975039124" lon="-7.707745023071766">
        <ele>525.98000000000002</ele>
        <time>2025-05-02T09:49:58Z</time>
      </trkpt>
      <trkpt lat="42.321482039988041" lon="-7.707532960921526">
        <ele>526.46000000000004</ele>
        <time>2025-05-02T09:49:59Z</time>
      </trkpt>
      <trkpt lat="42.321482039988041" lon="-7.707326011732221">
        <ele>526.94000000000005</ele>
        <time>2025-05-02T09:50:00Z</time>
      </trkpt>
      <trkpt lat="42.32150299474597" lon="-7.707105986773968">
        <ele>527.89999999999998</ele>
        <time>2025-05-02T09:50:01Z</time>
      </trkpt>
      <trkpt lat="42.32156996615231" lon="-7.706885961815715">
        <ele>528.86000000000001</ele>
        <time>2025-05-02T09:50:02Z</time>
      </trkpt>
      <trkpt lat="42.321636015549302" lon="-7.706671971827745">
        <ele>529.34000000000003</ele>
        <time>2025-05-02T09:50:03Z</time>
      </trkpt>
      <trkpt lat="42.321771970018744" lon="-7.706227982416749">
        <ele>531.26999999999998</ele>
        <time>2025-05-02T09:50:05Z</time>
      </trkpt>
      <trkpt lat="42.322498010471463" lon="-7.704028990119696">
        <ele>537.99000000000001</ele>
        <time>2025-05-02T09:50:15Z</time>
      </trkpt>
      <trkpt lat="42.323138974606991" lon="-7.702148007228971">
        <ele>547.61000000000001</ele>
        <time>2025-05-02T09:50:25Z</time>
      </trkpt>
      <trkpt lat="42.323616994544864" lon="-7.700698021799326">
        <ele>555.77999999999997</ele>
        <time>2025-05-02T09:50:35Z</time>
      </trkpt>
      <trkpt lat="42.324033994227648" lon="-7.699458003044128">
        <ele>561.07000000000005</ele>
        <time>2025-05-02T09:50:44Z</time>
      </trkpt>
      <trkpt lat="42.324454011395574" lon="-7.698227036744356">
        <ele>566.35000000000002</ele>
        <time>2025-05-02T09:50:53Z</time>
      </trkpt>
      <trkpt lat="42.324571022763848" lon="-7.697795033454895">
        <ele>568.27999999999997</ele>
        <time>2025-05-02T09:50:56Z</time>
      </trkpt>
      <trkpt lat="42.324601029977202" lon="-7.697646003216505">
        <ele>568.75999999999999</ele>
        <time>2025-05-02T09:50:57Z</time>
      </trkpt>
      <trkpt lat="42.324631037190557" lon="-7.697497978806496">
        <ele>569.24000000000001</ele>
        <time>2025-05-02T09:50:58Z</time>
      </trkpt>
      <trkpt lat="42.32461997307837" lon="-7.69733302295208">
        <ele>569.24000000000001</ele>
        <time>2025-05-02T09:50:59Z</time>
      </trkpt>
      <trkpt lat="42.324600024148822" lon="-7.697177035734057">
        <ele>569.72000000000003</ele>
        <time>2025-05-02T09:51:00Z</time>
      </trkpt>
      <trkpt lat="42.3245769739151" lon="-7.697017025202513">
        <ele>570.20000000000005</ele>
        <time>2025-05-02T09:51:01Z</time>
      </trkpt>
      <trkpt lat="42.324545960873365" lon="-7.695695031434298">
        <ele>574.52999999999997</ele>
        <time>2025-05-02T09:51:09Z</time>
      </trkpt>
      <trkpt lat="42.324550990015268" lon="-7.695514988154173">
        <ele>575.00999999999999</ele>
        <time>2025-05-02T09:51:10Z</time>
      </trkpt>
      <trkpt lat="42.324655009433627" lon="-7.693929970264435">
        <ele>578.85000000000002</ele>
        <time>2025-05-02T09:51:19Z</time>
      </trkpt>
      <trkpt lat="42.324249995872378" lon="-7.692403038963676">
        <ele>584.62</ele>
        <time>2025-05-02T09:51:28Z</time>
      </trkpt>
      <trkpt lat="42.324176989495754" lon="-7.692237999290228">
        <ele>585.58000000000004</ele>
        <time>2025-05-02T09:51:29Z</time>
      </trkpt>
      <trkpt lat="42.324084034189582" lon="-7.692086035385728">
        <ele>586.05999999999995</ele>
        <time>2025-05-02T09:51:30Z</time>
      </trkpt>
      <trkpt lat="42.323970962315798" lon="-7.691910015419126">
        <ele>587.01999999999998</ele>
        <time>2025-05-02T09:51:31Z</time>
      </trkpt>
      <trkpt lat="42.32386501505971" lon="-7.691813036799431">
        <ele>587.98000000000002</ele>
        <time>2025-05-02T09:51:32Z</time>
      </trkpt>
      <trkpt lat="42.323746997863054" lon="-7.69170599989593">
        <ele>588.46000000000004</ele>
        <time>2025-05-02T09:51:33Z</time>
      </trkpt>
      <trkpt lat="42.323626969009638" lon="-7.69159602932632">
        <ele>589.42999999999995</ele>
        <time>2025-05-02T09:51:34Z</time>
      </trkpt>
      <trkpt lat="42.323509035632014" lon="-7.691488992422819">
        <ele>590.38999999999999</ele>
        <time>2025-05-02T09:51:35Z</time>
      </trkpt>
      <trkpt lat="42.323390012606978" lon="-7.69138103350997">
        <ele>591.35000000000002</ele>
        <time>2025-05-02T09:51:36Z</time>
      </trkpt>
      <trkpt lat="42.322433972731233" lon="-7.690127016976476">
        <ele>600.96000000000004</ele>
        <time>2025-05-02T09:51:45Z</time>
      </trkpt>
      <trkpt lat="42.322347974404693" lon="-7.689981004223228">
        <ele>602.39999999999998</ele>
        <time>2025-05-02T09:51:46Z</time>
      </trkpt>
      <trkpt lat="42.32227697968483" lon="-7.689825017005205">
        <ele>603.36000000000001</ele>
        <time>2025-05-02T09:51:47Z</time>
      </trkpt>
      <trkpt lat="42.322225011885166" lon="-7.689656037837267">
        <ele>604.33000000000004</ele>
        <time>2025-05-02T09:51:48Z</time>
      </trkpt>
      <trkpt lat="42.322172960266471" lon="-7.689484041184187">
        <ele>605.28999999999996</ele>
        <time>2025-05-02T09:51:49Z</time>
      </trkpt>
      <trkpt lat="42.322128033265471" lon="-7.689308021217585">
        <ele>606.73000000000002</ele>
        <time>2025-05-02T09:51:50Z</time>
      </trkpt>
      <trkpt lat="42.321856962516904" lon="-7.687788968905807">
        <ele>614.41999999999996</ele>
        <time>2025-05-02T09:51:58Z</time>
      </trkpt>
      <trkpt lat="42.321879006922245" lon="-7.687590988352895">
        <ele>615.38</ele>
        <time>2025-05-02T09:51:59Z</time>
      </trkpt>
      <trkpt lat="42.321900967508554" lon="-7.687389990314841">
        <ele>616.34000000000003</ele>
        <time>2025-05-02T09:52:00Z</time>
      </trkpt>
      <trkpt lat="42.3219970241189" lon="-7.686389023438096">
        <ele>621.14999999999998</ele>
        <time>2025-05-02T09:52:05Z</time>
      </trkpt>
      <trkpt lat="42.321991994976997" lon="-7.686180984601378">
        <ele>622.11000000000001</ele>
        <time>2025-05-02T09:52:06Z</time>
      </trkpt>
      <trkpt lat="42.321946984156966" lon="-7.68598803319037">
        <ele>623.07000000000005</ele>
        <time>2025-05-02T09:52:07Z</time>
      </trkpt>
      <trkpt lat="42.32191102579236" lon="-7.685837997123599">
        <ele>624.02999999999997</ele>
        <time>2025-05-02T09:52:08Z</time>
      </trkpt>
      <trkpt lat="42.321802983060479" lon="-7.685650996863842">
        <ele>624.99000000000001</ele>
        <time>2025-05-02T09:52:09Z</time>
      </trkpt>
      <trkpt lat="42.321706004440784" lon="-7.685484029352665">
        <ele>625.47000000000003</ele>
        <time>2025-05-02T09:52:10Z</time>
      </trkpt>
      <trkpt lat="42.32158999890089" lon="-7.685336004942656">
        <ele>626.44000000000005</ele>
        <time>2025-05-02T09:52:11Z</time>
      </trkpt>
      <trkpt lat="42.321454966440797" lon="-7.685190998017788">
        <ele>627.39999999999998</ele>
        <time>2025-05-02T09:52:12Z</time>
      </trkpt>
      <trkpt lat="42.321289004758" lon="-7.685094019398093">
        <ele>628.36000000000001</ele>
        <time>2025-05-02T09:52:13Z</time>
      </trkpt>
      <trkpt lat="42.321104016155005" lon="-7.685036016628146">
        <ele>629.32000000000005</ele>
        <time>2025-05-02T09:52:14Z</time>
      </trkpt>
      <trkpt lat="42.321104016155005" lon="-7.685036016628146">
        <ele>630.27999999999997</ele>
        <time>2025-05-02T09:52:15Z</time>
      </trkpt>
      <trkpt lat="42.320722974836826" lon="-7.685003997758031">
        <ele>631.24000000000001</ele>
        <time>2025-05-02T09:52:16Z</time>
      </trkpt>
      <trkpt lat="42.320173038169742" lon="-7.684957981109619">
        <ele>634.13</ele>
        <time>2025-05-02T09:52:19Z</time>
      </trkpt>
      <trkpt lat="42.319983020424843" lon="-7.684853039681912">
        <ele>635.09000000000003</ele>
        <time>2025-05-02T09:52:20Z</time>
      </trkpt>
      <trkpt lat="42.319815969094634" lon="-7.684760000556707">
        <ele>636.04999999999995</ele>
        <time>2025-05-02T09:52:21Z</time>
      </trkpt>
      <trkpt lat="42.319684037938714" lon="-7.684629997238517">
        <ele>637.00999999999999</ele>
        <time>2025-05-02T09:52:22Z</time>
      </trkpt>
      <trkpt lat="42.319569038227201" lon="-7.684484990313649">
        <ele>637.97000000000003</ele>
        <time>2025-05-02T09:52:23Z</time>
      </trkpt>
      <trkpt lat="42.319569038227201" lon="-7.684484990313649">
        <ele>638.92999999999995</ele>
        <time>2025-05-02T09:52:24Z</time>
      </trkpt>
      <trkpt lat="42.319378014653921" lon="-7.684104032814503">
        <ele>639.88999999999999</ele>
        <time>2025-05-02T09:52:25Z</time>
      </trkpt>
      <trkpt lat="42.319291010499001" lon="-7.683881996199489">
        <ele>640.38</ele>
        <time>2025-05-02T09:52:26Z</time>
      </trkpt>
      <trkpt lat="42.319205012172461" lon="-7.683661971241236">
        <ele>641.34000000000003</ele>
        <time>2025-05-02T09:52:27Z</time>
      </trkpt>
      <trkpt lat="42.318801004439592" lon="-7.682808022946119">
        <ele>644.70000000000005</ele>
        <time>2025-05-02T09:52:31Z</time>
      </trkpt>
      <trkpt lat="42.318683993071318" lon="-7.682608030736446">
        <ele>645.65999999999997</ele>
        <time>2025-05-02T09:52:32Z</time>
      </trkpt>
      <trkpt lat="42.31791403144598" lon="-7.681526010856032">
        <ele>651.90999999999997</ele>
        <time>2025-05-02T09:52:38Z</time>
      </trkpt>
      <trkpt lat="42.317372979596257" lon="-7.680181972682476">
        <ele>658.15999999999997</ele>
        <time>2025-05-02T09:52:44Z</time>
      </trkpt>
      <trkpt lat="42.316799992695451" lon="-7.678541969507933">
        <ele>664.88999999999999</ele>
        <time>2025-05-02T09:52:51Z</time>
      </trkpt>
      <trkpt lat="42.316688010469079" lon="-7.678334014490247">
        <ele>665.85000000000002</ele>
        <time>2025-05-02T09:52:52Z</time>
      </trkpt>
      <trkpt lat="42.316688010469079" lon="-7.678334014490247">
        <ele>667.28999999999996</ele>
        <time>2025-05-02T09:52:53Z</time>
      </trkpt>
      <trkpt lat="42.31656001880765" lon="-7.678157994523644">
        <ele>668.25</ele>
        <time>2025-05-02T09:52:54Z</time>
      </trkpt>
      <trkpt lat="42.316258018836379" lon="-7.677920032292604">
        <ele>669.22000000000003</ele>
        <time>2025-05-02T09:52:55Z</time>
      </trkpt>
      <trkpt lat="42.316258018836379" lon="-7.677920032292604">
        <ele>670.17999999999995</ele>
        <time>2025-05-02T09:52:56Z</time>
      </trkpt>
      <trkpt lat="42.316091973334551" lon="-7.677857000380755">
        <ele>671.13999999999999</ele>
        <time>2025-05-02T09:52:57Z</time>
      </trkpt>
      <trkpt lat="42.315719984471798" lon="-7.677795980125666">
        <ele>672.10000000000002</ele>
        <time>2025-05-02T09:52:58Z</time>
      </trkpt>
      <trkpt lat="42.315718978643417" lon="-7.677795980125666">
        <ele>673.05999999999995</ele>
        <time>2025-05-02T09:52:59Z</time>
      </trkpt>
      <trkpt lat="42.315355958417058" lon="-7.67795599065721">
        <ele>674.01999999999998</ele>
        <time>2025-05-02T09:53:00Z</time>
      </trkpt>
      <trkpt lat="42.315182033926249" lon="-7.678059004247189">
        <ele>674.98000000000002</ele>
        <time>2025-05-02T09:53:01Z</time>
      </trkpt>
      <trkpt lat="42.314681969583035" lon="-7.67831901088357">
        <ele>677.38999999999999</ele>
        <time>2025-05-02T09:53:04Z</time>
      </trkpt>
      <trkpt lat="42.314510978758335" lon="-7.678343988955021">
        <ele>678.35000000000002</ele>
        <time>2025-05-02T09:53:05Z</time>
      </trkpt>
      <trkpt lat="42.314334036782384" lon="-7.678369972854853">
        <ele>679.30999999999995</ele>
        <time>2025-05-02T09:53:06Z</time>
      </trkpt>
      <trkpt lat="42.314170002937317" lon="-7.678311970084906">
        <ele>679.78999999999996</ele>
        <time>2025-05-02T09:53:07Z</time>
      </trkpt>
      <trkpt lat="42.314170002937317" lon="-7.678311970084906">
        <ele>680.75</ele>
        <time>2025-05-02T09:53:08Z</time>
      </trkpt>
      <trkpt lat="42.314007980749011" lon="-7.678254973143339">
        <ele>681.71000000000004</ele>
        <time>2025-05-02T09:53:09Z</time>
      </trkpt>
      <trkpt lat="42.313753003254533" lon="-7.678057998418808">
        <ele>682.66999999999996</ele>
        <time>2025-05-02T09:53:10Z</time>
      </trkpt>
      <trkpt lat="42.313642026856542" lon="-7.677941992878914">
        <ele>683.63</ele>
        <time>2025-05-02T09:53:11Z</time>
      </trkpt>
      <trkpt lat="42.313642026856542" lon="-7.677941992878914">
        <ele>685.08000000000004</ele>
        <time>2025-05-02T09:53:12Z</time>
      </trkpt>
      <trkpt lat="42.313530966639519" lon="-7.67782598733902">
        <ele>686.03999999999996</ele>
        <time>2025-05-02T09:53:13Z</time>
      </trkpt>
      <trkpt lat="42.313428036868572" lon="-7.677691038697958">
        <ele>687.48000000000002</ele>
        <time>2025-05-02T09:53:14Z</time>
      </trkpt>
      <trkpt lat="42.312698978930712" lon="-7.676502987742424">
        <ele>694.69000000000005</ele>
        <time>2025-05-02T09:53:21Z</time>
      </trkpt>
      <trkpt lat="42.312612980604172" lon="-7.676399974152446">
        <ele>695.64999999999998</ele>
        <time>2025-05-02T09:53:22Z</time>
      </trkpt>
      <trkpt lat="42.312524970620871" lon="-7.676302995532751">
        <ele>696.13</ele>
        <time>2025-05-02T09:53:23Z</time>
      </trkpt>
      <trkpt lat="42.312409970909357" lon="-7.676290003582835">
        <ele>697.09000000000003</ele>
        <time>2025-05-02T09:53:24Z</time>
      </trkpt>
      <trkpt lat="42.312315003946424" lon="-7.676263013854623">
        <ele>698.04999999999995</ele>
        <time>2025-05-02T09:53:25Z</time>
      </trkpt>
      <trkpt lat="42.312227999791503" lon="-7.676240969449282">
        <ele>698.52999999999997</ele>
        <time>2025-05-02T09:53:26Z</time>
      </trkpt>
      <trkpt lat="42.312143007293344" lon="-7.676224038004875">
        <ele>699.5</ele>
        <time>2025-05-02T09:53:27Z</time>
      </trkpt>
      <trkpt lat="42.312143007293344" lon="-7.676224038004875">
        <ele>699.98000000000002</ele>
        <time>2025-05-02T09:53:28Z</time>
      </trkpt>
      <trkpt lat="42.312039993703365" lon="-7.676204005256295">
        <ele>700.46000000000004</ele>
        <time>2025-05-02T09:53:29Z</time>
      </trkpt>
      <trkpt lat="42.311947038397193" lon="-7.676238035783172">
        <ele>700.46000000000004</ele>
        <time>2025-05-02T09:53:30Z</time>
      </trkpt>
      <trkpt lat="42.311844024807215" lon="-7.676280029118061">
        <ele>700.94000000000005</ele>
        <time>2025-05-02T09:53:31Z</time>
      </trkpt>
      <trkpt lat="42.310903994366527" lon="-7.676740027964115">
        <ele>700.94000000000005</ele>
        <time>2025-05-02T09:53:38Z</time>
      </trkpt>
      <trkpt lat="42.309311013668776" lon="-7.677415022626519">
        <ele>697.09000000000003</ele>
        <time>2025-05-02T09:53:47Z</time>
      </trkpt>
      <trkpt lat="42.30712803080678" lon="-7.678337031975389">
        <ele>685.08000000000004</ele>
        <time>2025-05-02T09:53:58Z</time>
      </trkpt>
      <trkpt lat="42.306933989748359" lon="-7.678412972018123">
        <ele>684.12</ele>
        <time>2025-05-02T09:53:59Z</time>
      </trkpt>
      <trkpt lat="42.306733997538686" lon="-7.678423030301929">
        <ele>683.14999999999998</ele>
        <time>2025-05-02T09:54:00Z</time>
      </trkpt>
      <trkpt lat="42.306542973965406" lon="-7.678431998938322">
        <ele>682.19000000000005</ele>
        <time>2025-05-02T09:54:01Z</time>
      </trkpt>
      <trkpt lat="42.306366031989455" lon="-7.678388999775052">
        <ele>681.71000000000004</ele>
        <time>2025-05-02T09:54:02Z</time>
      </trkpt>
      <trkpt lat="42.306182971224189" lon="-7.678318005055189">
        <ele>680.75</ele>
        <time>2025-05-02T09:54:03Z</time>
      </trkpt>
      <trkpt lat="42.30599001981318" lon="-7.678241981193423">
        <ele>680.26999999999998</ele>
        <time>2025-05-02T09:54:04Z</time>
      </trkpt>
      <trkpt lat="42.304082969203591" lon="-7.677113022655249">
        <ele>677.87</ele>
        <time>2025-05-02T09:54:15Z</time>
      </trkpt>
      <trkpt lat="42.303913990035653" lon="-7.677021995186806">
        <ele>677.87</ele>
        <time>2025-05-02T09:54:16Z</time>
      </trkpt>
      <trkpt lat="42.303721038624644" lon="-7.677018977701664">
        <ele>677.38999999999999</ele>
        <time>2025-05-02T09:54:17Z</time>
      </trkpt>
      <trkpt lat="42.303538983687758" lon="-7.677018977701664">
        <ele>677.38999999999999</ele>
        <time>2025-05-02T09:54:18Z</time>
      </trkpt>
      <trkpt lat="42.303353995084763" lon="-7.677058959379792">
        <ele>676.90999999999997</ele>
        <time>2025-05-02T09:54:19Z</time>
      </trkpt>
      <trkpt lat="42.30317504145205" lon="-7.677101036533713">
        <ele>676.41999999999996</ele>
        <time>2025-05-02T09:54:20Z</time>
      </trkpt>
      <trkpt lat="42.302688974887133" lon="-7.677254006266594">
        <ele>675.94000000000005</ele>
        <time>2025-05-02T09:54:23Z</time>
      </trkpt>
      <trkpt lat="42.302544973790646" lon="-7.677303040400147">
        <ele>675.46000000000004</ele>
        <time>2025-05-02T09:54:24Z</time>
      </trkpt>
      <trkpt lat="42.301820022985339" lon="-7.677533961832523">
        <ele>673.05999999999995</ele>
        <time>2025-05-02T09:54:30Z</time>
      </trkpt>
      <trkpt lat="42.301698988303542" lon="-7.677533961832523">
        <ele>672.58000000000004</ele>
        <time>2025-05-02T09:54:31Z</time>
      </trkpt>
      <trkpt lat="42.301577031612396" lon="-7.677533961832523">
        <ele>672.58000000000004</ele>
        <time>2025-05-02T09:54:32Z</time>
      </trkpt>
      <trkpt lat="42.301464965566993" lon="-7.677495991811156">
        <ele>672.10000000000002</ele>
        <time>2025-05-02T09:54:33Z</time>
      </trkpt>
      <trkpt lat="42.301357006654143" lon="-7.677430026233196">
        <ele>671.62</ele>
        <time>2025-05-02T09:54:34Z</time>
      </trkpt>
      <trkpt lat="42.301247958093882" lon="-7.677362971007824">
        <ele>671.13999999999999</ele>
        <time>2025-05-02T09:54:35Z</time>
      </trkpt>
      <trkpt lat="42.300916034728289" lon="-7.677159961313009">
        <ele>669.22000000000003</ele>
        <time>2025-05-02T09:54:38Z</time>
      </trkpt>
      <trkpt lat="42.300821989774704" lon="-7.677070023491979">
        <ele>668.73000000000002</ele>
        <time>2025-05-02T09:54:39Z</time>
      </trkpt>
      <trkpt lat="42.300740014761686" lon="-7.676954017952085">
        <ele>668.25</ele>
        <time>2025-05-02T09:54:40Z</time>
      </trkpt>
      <trkpt lat="42.300655022263527" lon="-7.676832983270288">
        <ele>668.25</ele>
        <time>2025-05-02T09:54:41Z</time>
      </trkpt>
      <trkpt lat="42.300569023936987" lon="-7.67670901492238">
        <ele>667.76999999999998</ele>
        <time>2025-05-02T09:54:42Z</time>
      </trkpt>
      <trkpt lat="42.300475984811783" lon="-7.676589991897345">
        <ele>667.28999999999996</ele>
        <time>2025-05-02T09:54:43Z</time>
      </trkpt>
      <trkpt lat="42.300380012020469" lon="-7.676510028541088">
        <ele>666.80999999999995</ele>
        <time>2025-05-02T09:54:44Z</time>
      </trkpt>
      <trkpt lat="42.300283033400774" lon="-7.676441967487335">
        <ele>666.33000000000004</ele>
        <time>2025-05-02T09:54:45Z</time>
      </trkpt>
      <trkpt lat="42.300179013982415" lon="-7.676368961110711">
        <ele>665.85000000000002</ele>
        <time>2025-05-02T09:54:46Z</time>
      </trkpt>
      <trkpt lat="42.299370998516679" lon="-7.675879038870335">
        <ele>661.51999999999998</ele>
        <time>2025-05-02T09:54:53Z</time>
      </trkpt>
      <trkpt lat="42.29795303195715" lon="-7.675059959292412">
        <ele>658.15999999999997</ele>
        <time>2025-05-02T09:55:02Z</time>
      </trkpt>
      <trkpt lat="42.297336962074041" lon="-7.674604989588261">
        <ele>658.63999999999999</ele>
        <time>2025-05-02T09:55:06Z</time>
      </trkpt>
      <trkpt lat="42.29662399739027" lon="-7.673710975795984">
        <ele>658.15999999999997</ele>
        <time>2025-05-02T09:55:12Z</time>
      </trkpt>
      <trkpt lat="42.296352004632354" lon="-7.673294981941581">
        <ele>658.15999999999997</ele>
        <time>2025-05-02T09:55:13Z</time>
      </trkpt>
      <trkpt lat="42.29529001750052" lon="-7.671670988202095">
        <ele>662.49000000000001</ele>
        <time>2025-05-02T09:55:21Z</time>
      </trkpt>
      <trkpt lat="42.294870000332594" lon="-7.671161033213139">
        <ele>663.92999999999995</ele>
        <time>2025-05-02T09:55:25Z</time>
      </trkpt>
      <trkpt lat="42.294723987579346" lon="-7.671039998531342">
        <ele>663.92999999999995</ele>
        <time>2025-05-02T09:55:26Z</time>
      </trkpt>
      <trkpt lat="42.294563977047801" lon="-7.670955006033182">
        <ele>663.92999999999995</ele>
        <time>2025-05-02T09:55:27Z</time>
      </trkpt>
      <trkpt lat="42.293858975172043" lon="-7.670626016333699">
        <ele>663.45000000000005</ele>
        <time>2025-05-02T09:55:32Z</time>
      </trkpt>
      <trkpt lat="42.293739030137658" lon="-7.670571031048894">
        <ele>663.45000000000005</ele>
        <time>2025-05-02T09:55:33Z</time>
      </trkpt>
      <trkpt lat="42.293648002669215" lon="-7.67045795917511">
        <ele>662.97000000000003</ele>
        <time>2025-05-02T09:55:34Z</time>
      </trkpt>
      <trkpt lat="42.293569967150688" lon="-7.670342037454248">
        <ele>662.49000000000001</ele>
        <time>2025-05-02T09:55:35Z</time>
      </trkpt>
      <trkpt lat="42.293531997129321" lon="-7.670198958367109">
        <ele>662.00999999999999</ele>
        <time>2025-05-02T09:55:36Z</time>
      </trkpt>
      <trkpt lat="42.293513976037502" lon="-7.670040959492326">
        <ele>661.51999999999998</ele>
        <time>2025-05-02T09:55:37Z</time>
      </trkpt>
      <trkpt lat="42.293496038764715" lon="-7.669882038608193">
        <ele>661.03999999999996</ele>
        <time>2025-05-02T09:55:38Z</time>
      </trkpt>
      <trkpt lat="42.293450022116303" lon="-7.669577021151781">
        <ele>660.08000000000004</ele>
        <time>2025-05-02T09:55:40Z</time>
      </trkpt>
      <trkpt lat="42.293424960225821" lon="-7.669430002570152">
        <ele>659.60000000000002</ele>
        <time>2025-05-02T09:55:41Z</time>
      </trkpt>
      <trkpt lat="42.293367041274905" lon="-7.669291030615568">
        <ele>659.12</ele>
        <time>2025-05-02T09:55:42Z</time>
      </trkpt>
      <trkpt lat="42.292962027713656" lon="-7.668916024267674">
        <ele>657.20000000000005</ele>
        <time>2025-05-02T09:55:46Z</time>
      </trkpt>
      <trkpt lat="42.292852979153395" lon="-7.668833965435624">
        <ele>656.72000000000003</ele>
        <time>2025-05-02T09:55:47Z</time>
      </trkpt>
      <trkpt lat="42.292216038331389" lon="-7.668381007388234">
        <ele>653.35000000000002</ele>
        <time>2025-05-02T09:55:52Z</time>
      </trkpt>
      <trkpt lat="42.292085029184818" lon="-7.668257039040327">
        <ele>652.38999999999999</ele>
        <time>2025-05-02T09:55:53Z</time>
      </trkpt>
      <trkpt lat="42.291949996724725" lon="-7.668112032115459">
        <ele>651.42999999999995</ele>
        <time>2025-05-02T09:55:54Z</time>
      </trkpt>
      <trkpt lat="42.291825022548437" lon="-7.667955039069057">
        <ele>650.47000000000003</ele>
        <time>2025-05-02T09:55:55Z</time>
      </trkpt>
      <trkpt lat="42.291700970381498" lon="-7.667782036587596">
        <ele>649.50999999999999</ele>
        <time>2025-05-02T09:55:56Z</time>
      </trkpt>
      <trkpt lat="42.291594017297029" lon="-7.667582966387272">
        <ele>648.54999999999995</ele>
        <time>2025-05-02T09:55:57Z</time>
      </trkpt>
      <trkpt lat="42.290810979902744" lon="-7.666172962635756">
        <ele>645.17999999999995</ele>
        <time>2025-05-02T09:56:03Z</time>
      </trkpt>
      <trkpt lat="42.290662033483386" lon="-7.666005995124579">
        <ele>644.22000000000003</ele>
        <time>2025-05-02T09:56:04Z</time>
      </trkpt>
      <trkpt lat="42.289751004427671" lon="-7.665315996855497">
        <ele>639.40999999999997</ele>
        <time>2025-05-02T09:56:10Z</time>
      </trkpt>
      <trkpt lat="42.289038961753249" lon="-7.66480503603816">
        <ele>635.09000000000003</ele>
        <time>2025-05-02T09:56:15Z</time>
      </trkpt>
      <trkpt lat="42.288934020325541" lon="-7.664663968607783">
        <ele>635.09000000000003</ele>
        <time>2025-05-02T09:56:16Z</time>
      </trkpt>
      <trkpt lat="42.288934020325541" lon="-7.664663968607783">
        <ele>634.61000000000001</ele>
        <time>2025-05-02T09:56:17Z</time>
      </trkpt>
      <trkpt lat="42.288834024220705" lon="-7.664513010531664">
        <ele>634.13</ele>
        <time>2025-05-02T09:56:18Z</time>
      </trkpt>
      <trkpt lat="42.288740985095501" lon="-7.664364986121655">
        <ele>634.13</ele>
        <time>2025-05-02T09:56:19Z</time>
      </trkpt>
      <trkpt lat="42.288662027567625" lon="-7.664201958104968">
        <ele>634.13</ele>
        <time>2025-05-02T09:56:20Z</time>
      </trkpt>
      <trkpt lat="42.288582986220717" lon="-7.664041025564075">
        <ele>634.61000000000001</ele>
        <time>2025-05-02T09:56:21Z</time>
      </trkpt>
      <trkpt lat="42.287819981575012" lon="-7.66282900236547">
        <ele>637.97000000000003</ele>
        <time>2025-05-02T09:56:29Z</time>
      </trkpt>
      <trkpt lat="42.287542037665844" lon="-7.662600008770824">
        <ele>637.00999999999999</ele>
        <time>2025-05-02T09:56:31Z</time>
      </trkpt>
      <trkpt lat="42.286261031404138" lon="-7.661802973598242">
        <ele>627.88</ele>
        <time>2025-05-02T09:56:38Z</time>
      </trkpt>
      <trkpt lat="42.284682970494032" lon="-7.660854980349541">
        <ele>617.77999999999997</ele>
        <time>2025-05-02T09:56:46Z</time>
      </trkpt>
      <trkpt lat="42.284510973840952" lon="-7.660712990909815">
        <ele>616.34000000000003</ele>
        <time>2025-05-02T09:56:47Z</time>
      </trkpt>
      <trkpt lat="42.284351969137788" lon="-7.660559015348554">
        <ele>615.38</ele>
        <time>2025-05-02T09:56:48Z</time>
      </trkpt>
      <trkpt lat="42.284078970551491" lon="-7.660170011222363">
        <ele>613.94000000000005</ele>
        <time>2025-05-02T09:56:50Z</time>
      </trkpt>
      <trkpt lat="42.283093007281423" lon="-7.658598991110921">
        <ele>607.69000000000005</ele>
        <time>2025-05-02T09:56:57Z</time>
      </trkpt>
      <trkpt lat="42.282048035413027" lon="-7.656918000429869">
        <ele>602.39999999999998</ele>
        <time>2025-05-02T09:57:04Z</time>
      </trkpt>
      <trkpt lat="42.280528983101249" lon="-7.654486997053027">
        <ele>605.28999999999996</ele>
        <time>2025-05-02T09:57:15Z</time>
      </trkpt>
      <trkpt lat="42.2802500333637" lon="-7.654075026512146">
        <ele>605.76999999999998</ele>
        <time>2025-05-02T09:57:17Z</time>
      </trkpt>
      <trkpt lat="42.280089017003775" lon="-7.653896994888783">
        <ele>606.25</ele>
        <time>2025-05-02T09:57:18Z</time>
      </trkpt>
      <trkpt lat="42.279733959585428" lon="-7.653671018779278">
        <ele>606.73000000000002</ele>
        <time>2025-05-02T09:57:19Z</time>
      </trkpt>
      <trkpt lat="42.279733959585428" lon="-7.653671018779278">
        <ele>606.73000000000002</ele>
        <time>2025-05-02T09:57:20Z</time>
      </trkpt>
      <trkpt lat="42.279361970722675" lon="-7.653541015461087">
        <ele>607.21000000000004</ele>
        <time>2025-05-02T09:57:21Z</time>
      </trkpt>
      <trkpt lat="42.279167007654905" lon="-7.653531963005662">
        <ele>607.69000000000005</ele>
        <time>2025-05-02T09:57:22Z</time>
      </trkpt>
      <trkpt lat="42.278969027101994" lon="-7.653522994369268">
        <ele>607.69000000000005</ele>
        <time>2025-05-02T09:57:23Z</time>
      </trkpt>
      <trkpt lat="42.277797991409898" lon="-7.653657021000981">
        <ele>608.64999999999998</ele>
        <time>2025-05-02T09:57:29Z</time>
      </trkpt>
      <trkpt lat="42.277796985581517" lon="-7.653657021000981">
        <ele>608.64999999999998</ele>
        <time>2025-05-02T09:57:30Z</time>
      </trkpt>
      <trkpt lat="42.277617026120424" lon="-7.653627013787627">
        <ele>608.64999999999998</ele>
        <time>2025-05-02T09:57:31Z</time>
      </trkpt>
      <trkpt lat="42.277273032814264" lon="-7.653450993821025">
        <ele>608.64999999999998</ele>
        <time>2025-05-02T09:57:32Z</time>
      </trkpt>
      <trkpt lat="42.277273032814264" lon="-7.653450993821025">
        <ele>608.16999999999996</ele>
        <time>2025-05-02T09:57:33Z</time>
      </trkpt>
      <trkpt lat="42.277126014232635" lon="-7.653309004381299">
        <ele>608.64999999999998</ele>
        <time>2025-05-02T09:57:34Z</time>
      </trkpt>
      <trkpt lat="42.277000034227967" lon="-7.653130972757936">
        <ele>608.64999999999998</ele>
        <time>2025-05-02T09:57:35Z</time>
      </trkpt>
      <trkpt lat="42.27690196596086" lon="-7.652937015518546">
        <ele>608.64999999999998</ele>
        <time>2025-05-02T09:57:36Z</time>
      </trkpt>
      <trkpt lat="42.276806998997927" lon="-7.652707016095519">
        <ele>608.64999999999998</ele>
        <time>2025-05-02T09:57:37Z</time>
      </trkpt>
      <trkpt lat="42.276711026206613" lon="-7.652218015864492">
        <ele>609.13</ele>
        <time>2025-05-02T09:57:38Z</time>
      </trkpt>
      <trkpt lat="42.276711026206613" lon="-7.652219021692872">
        <ele>609.13</ele>
        <time>2025-05-02T09:57:39Z</time>
      </trkpt>
      <trkpt lat="42.276530982926488" lon="-7.651030970737338">
        <ele>608.64999999999998</ele>
        <time>2025-05-02T09:57:44Z</time>
      </trkpt>
      <trkpt lat="42.276482032611966" lon="-7.6508429646492">
        <ele>608.64999999999998</ele>
        <time>2025-05-02T09:57:45Z</time>
      </trkpt>
      <trkpt lat="42.276429980993271" lon="-7.650673985481262">
        <ele>608.64999999999998</ele>
        <time>2025-05-02T09:57:46Z</time>
      </trkpt>
      <trkpt lat="42.276337025687099" lon="-7.650558985769749">
        <ele>608.16999999999996</ele>
        <time>2025-05-02T09:57:47Z</time>
      </trkpt>
      <trkpt lat="42.276248009875417" lon="-7.650447003543377">
        <ele>608.16999999999996</ele>
        <time>2025-05-02T09:57:48Z</time>
      </trkpt>
      <trkpt lat="42.276158994063735" lon="-7.650358993560076">
        <ele>608.16999999999996</ele>
        <time>2025-05-02T09:57:49Z</time>
      </trkpt>
      <trkpt lat="42.27593301795423" lon="-7.650274001061916">
        <ele>607.21000000000004</ele>
        <time>2025-05-02T09:57:51Z</time>
      </trkpt>
      <trkpt lat="42.275574021041393" lon="-7.650265032425523">
        <ele>606.25</ele>
        <time>2025-05-02T09:57:54Z</time>
      </trkpt>
      <trkpt lat="42.275449968874454" lon="-7.650277018547058">
        <ele>606.25</ele>
        <time>2025-05-02T09:57:55Z</time>
      </trkpt>
      <trkpt lat="42.274883016943932" lon="-7.650152966380119">
        <ele>603.36000000000001</ele>
        <time>2025-05-02T09:58:00Z</time>
      </trkpt>
      <trkpt lat="42.274768017232418" lon="-7.650132011622191">
        <ele>602.88</ele>
        <time>2025-05-02T09:58:01Z</time>
      </trkpt>
      <trkpt lat="42.274416983127594" lon="-7.650106027722359">
        <ele>600</ele>
        <time>2025-05-02T09:58:04Z</time>
      </trkpt>
      <trkpt lat="42.273937035351992" lon="-7.650175010785461">
        <ele>596.14999999999998</ele>
        <time>2025-05-02T09:58:08Z</time>
      </trkpt>
      <trkpt lat="42.273773001506925" lon="-7.650233013555408">
        <ele>595.19000000000005</ele>
        <time>2025-05-02T09:58:09Z</time>
      </trkpt>
      <trkpt lat="42.273561023175716" lon="-7.650338960811496">
        <ele>591.35000000000002</ele>
        <time>2025-05-02T09:58:13Z</time>
      </trkpt>
      <trkpt lat="42.273318031802773" lon="-7.650406016036868">
        <ele>589.90999999999997</ele>
        <time>2025-05-02T09:58:15Z</time>
      </trkpt>
      <trkpt lat="42.273231027647853" lon="-7.650416996330023">
        <ele>588.95000000000005</ele>
        <time>2025-05-02T09:58:16Z</time>
      </trkpt>
      <trkpt lat="42.273145029321313" lon="-7.650426970794797">
        <ele>588.46000000000004</ele>
        <time>2025-05-02T09:58:17Z</time>
      </trkpt>
      <trkpt lat="42.272756025195122" lon="-7.650413978844881">
        <ele>584.62</ele>
        <time>2025-05-02T09:58:22Z</time>
      </trkpt>
      <trkpt lat="42.27260397747159" lon="-7.650435017421842">
        <ele>583.65999999999997</ele>
        <time>2025-05-02T09:58:24Z</time>
      </trkpt>
      <trkpt lat="42.272518984973431" lon="-7.65045496635139">
        <ele>583.17999999999995</ele>
        <time>2025-05-02T09:58:25Z</time>
      </trkpt>
      <trkpt lat="42.272425023838878" lon="-7.650477010756731">
        <ele>583.17999999999995</ele>
        <time>2025-05-02T09:58:26Z</time>
      </trkpt>
      <trkpt lat="42.272242968901992" lon="-7.650507017970085">
        <ele>583.17999999999995</ele>
        <time>2025-05-02T09:58:29Z</time>
      </trkpt>
      <trkpt lat="42.272155964747071" lon="-7.650529984384775">
        <ele>583.17999999999995</ele>
        <time>2025-05-02T09:58:30Z</time>
      </trkpt>
      <trkpt lat="42.271636035293341" lon="-7.650669040158391">
        <ele>583.17999999999995</ele>
        <time>2025-05-02T09:58:36Z</time>
      </trkpt>
      <trkpt lat="42.271477030590177" lon="-7.650718996301293">
        <ele>583.17999999999995</ele>
        <time>2025-05-02T09:58:37Z</time>
      </trkpt>
      <trkpt lat="42.271392960101366" lon="-7.650744980201125">
        <ele>583.17999999999995</ele>
        <time>2025-05-02T09:58:38Z</time>
      </trkpt>
      <trkpt lat="42.271392960101366" lon="-7.650744980201125">
        <ele>583.17999999999995</ele>
        <time>2025-05-02T09:58:39Z</time>
      </trkpt>
      <trkpt lat="42.271221969276667" lon="-7.650787979364395">
        <ele>583.17999999999995</ele>
        <time>2025-05-02T09:58:40Z</time>
      </trkpt>
      <trkpt lat="42.271143011748791" lon="-7.650801977142692">
        <ele>583.17999999999995</ele>
        <time>2025-05-02T09:58:41Z</time>
      </trkpt>
      <trkpt lat="42.27114200592041" lon="-7.650801977142692">
        <ele>583.17999999999995</ele>
        <time>2025-05-02T09:58:42Z</time>
      </trkpt>
      <trkpt lat="42.270659962669015" lon="-7.650984032079577">
        <ele>583.65999999999997</ele>
        <time>2025-05-02T09:58:49Z</time>
      </trkpt>
      <trkpt lat="42.270577987655997" lon="-7.650984032079577">
        <ele>584.13999999999999</ele>
        <time>2025-05-02T09:58:50Z</time>
      </trkpt>
      <trkpt lat="42.270520990714431" lon="-7.650970034301281">
        <ele>584.62</ele>
        <time>2025-05-02T09:58:51Z</time>
      </trkpt>
      <trkpt lat="42.270448990166187" lon="-7.650927035138011">
        <ele>585.58000000000004</ele>
        <time>2025-05-02T09:58:52Z</time>
      </trkpt>
      <trkpt lat="42.270388975739479" lon="-7.650889987125993">
        <ele>586.05999999999995</ele>
        <time>2025-05-02T09:58:53Z</time>
      </trkpt>
      <trkpt lat="42.270327033475041" lon="-7.650853022933006">
        <ele>586.53999999999996</ele>
        <time>2025-05-02T09:58:54Z</time>
      </trkpt>
      <trkpt lat="42.27026198990643" lon="-7.650813963264227">
        <ele>587.01999999999998</ele>
        <time>2025-05-02T09:58:55Z</time>
      </trkpt>
      <trkpt lat="42.270192001014948" lon="-7.650771969929338">
        <ele>587.01999999999998</ele>
        <time>2025-05-02T09:58:56Z</time>
      </trkpt>
      <trkpt lat="42.270090999081731" lon="-7.650712039321661">
        <ele>587.5</ele>
        <time>2025-05-02T09:58:57Z</time>
      </trkpt>
      <trkpt lat="42.270018998533487" lon="-7.650694018229842">
        <ele>587.98000000000002</ele>
        <time>2025-05-02T09:58:59Z</time>
      </trkpt>
      <trkpt lat="42.26993702352047" lon="-7.650718996301293">
        <ele>588.46000000000004</ele>
        <time>2025-05-02T09:59:00Z</time>
      </trkpt>
      <trkpt lat="42.269643992185593" lon="-7.650853022933006">
        <ele>588.95000000000005</ele>
        <time>2025-05-02T09:59:03Z</time>
      </trkpt>
      <trkpt lat="42.269580960273743" lon="-7.650886969640851">
        <ele>588.95000000000005</ele>
        <time>2025-05-02T09:59:04Z</time>
      </trkpt>
      <trkpt lat="42.269235039129853" lon="-7.651078999042511">
        <ele>590.87</ele>
        <time>2025-05-02T09:59:10Z</time>
      </trkpt>
      <trkpt lat="42.269179970026016" lon="-7.651109006255865">
        <ele>590.87</ele>
        <time>2025-05-02T09:59:11Z</time>
      </trkpt>
      <trkpt lat="42.269133031368256" lon="-7.651133984327316">
        <ele>590.87</ele>
        <time>2025-05-02T09:59:12Z</time>
      </trkpt>
      <trkpt lat="42.269095983356237" lon="-7.651155022904277">
        <ele>591.35000000000002</ele>
        <time>2025-05-02T09:59:13Z</time>
      </trkpt>
      <trkpt lat="42.269053990021348" lon="-7.651113029569387">
        <ele>591.83000000000004</ele>
        <time>2025-05-02T09:59:14Z</time>
      </trkpt>
      <trkpt lat="42.269034963101149" lon="-7.651080004870892">
        <ele>592.30999999999995</ele>
        <time>2025-05-02T09:59:15Z</time>
      </trkpt>
      <trkpt lat="42.269004033878446" lon="-7.651026025414467">
        <ele>592.78999999999996</ele>
        <time>2025-05-02T09:59:16Z</time>
      </trkpt>
      <trkpt lat="42.268966985866427" lon="-7.650962993502617">
        <ele>592.78999999999996</ele>
        <time>2025-05-02T09:59:17Z</time>
      </trkpt>
      <trkpt lat="42.268930021673441" lon="-7.650898033753038">
        <ele>593.26999999999998</ele>
        <time>2025-05-02T09:59:18Z</time>
      </trkpt>
      <trkpt lat="42.268890039995313" lon="-7.650828966870904">
        <ele>593.26999999999998</ele>
        <time>2025-05-02T09:59:19Z</time>
      </trkpt>
      <trkpt lat="42.268849974498153" lon="-7.650759983807802">
        <ele>593.26999999999998</ele>
        <time>2025-05-02T09:59:20Z</time>
      </trkpt>
      <trkpt lat="42.268812004476786" lon="-7.650693012401462">
        <ele>593.75</ele>
        <time>2025-05-02T09:59:21Z</time>
      </trkpt>
      <trkpt lat="42.268734974786639" lon="-7.650559991598129">
        <ele>594.71000000000004</ele>
        <time>2025-05-02T09:59:24Z</time>
      </trkpt>
      <trkpt lat="42.268657023087144" lon="-7.650425964966416">
        <ele>594.71000000000004</ele>
        <time>2025-05-02T09:59:26Z</time>
      </trkpt>
      <trkpt lat="42.268616035580635" lon="-7.650353964418173">
        <ele>594.71000000000004</ele>
        <time>2025-05-02T09:59:27Z</time>
      </trkpt>
      <trkpt lat="42.26841202005744" lon="-7.650001002475619">
        <ele>595.19000000000005</ele>
        <time>2025-05-02T09:59:31Z</time>
      </trkpt>
      <trkpt lat="42.26841202005744" lon="-7.650001002475619">
        <ele>594.71000000000004</ele>
        <time>2025-05-02T09:59:32Z</time>
      </trkpt>
      <trkpt lat="42.268204987049103" lon="-7.649643011391163">
        <ele>593.26999999999998</ele>
        <time>2025-05-02T09:59:42Z</time>
      </trkpt>
      <trkpt lat="42.268202975392342" lon="-7.649638988077641">
        <ele>592.78999999999996</ele>
        <time>2025-05-02T09:59:45Z</time>
      </trkpt>
      <trkpt lat="42.268202975392342" lon="-7.649638988077641">
        <ele>592.78999999999996</ele>
        <time>2025-05-02T09:59:46Z</time>
      </trkpt>
      <trkpt lat="42.268224013969302" lon="-7.649623984470964">
        <ele>592.30999999999995</ele>
        <time>2025-05-02T09:59:47Z</time>
      </trkpt>
      <trkpt lat="42.268256032839417" lon="-7.649601018056274">
        <ele>591.83000000000004</ele>
        <time>2025-05-02T09:59:48Z</time>
      </trkpt>
      <trkpt lat="42.268296014517546" lon="-7.649571010842919">
        <ele>591.35000000000002</ele>
        <time>2025-05-02T09:59:49Z</time>
      </trkpt>
      <trkpt lat="42.268358040601015" lon="-7.649374958127737">
        <ele>588.46000000000004</ele>
        <time>2025-05-02T09:59:53Z</time>
      </trkpt>
      <trkpt lat="42.268334990367293" lon="-7.649348974227905">
        <ele>587.98000000000002</ele>
        <time>2025-05-02T09:59:54Z</time>
      </trkpt>
      <trkpt lat="42.268301965668797" lon="-7.649311004206538">
        <ele>587.5</ele>
        <time>2025-05-02T09:59:55Z</time>
      </trkpt>
      <trkpt lat="42.268257038667798" lon="-7.649259036406875">
        <ele>587.01999999999998</ele>
        <time>2025-05-02T09:59:56Z</time>
      </trkpt>
      <trkpt lat="42.268200041726232" lon="-7.649193992838264">
        <ele>586.53999999999996</ele>
        <time>2025-05-02T09:59:57Z</time>
      </trkpt>
      <trkpt lat="42.268126029521227" lon="-7.649110006168485">
        <ele>586.05999999999995</ele>
        <time>2025-05-02T09:59:58Z</time>
      </trkpt>
      <trkpt lat="42.268044976517558" lon="-7.649016967043281">
        <ele>585.10000000000002</ele>
        <time>2025-05-02T09:59:59Z</time>
      </trkpt>
      <trkpt lat="42.26794196292758" lon="-7.648963993415237">
        <ele>584.13999999999999</ele>
        <time>2025-05-02T10:00:00Z</time>
      </trkpt>
      <trkpt lat="42.26794196292758" lon="-7.648963993415237">
        <ele>583.65999999999997</ele>
        <time>2025-05-02T10:00:01Z</time>
      </trkpt>
      <trkpt lat="42.267849007621408" lon="-7.648986959829927">
        <ele>583.17999999999995</ele>
        <time>2025-05-02T10:00:02Z</time>
      </trkpt>
      <trkpt lat="42.267458997666836" lon="-7.649157028645277">
        <ele>582.22000000000003</ele>
        <time>2025-05-02T10:00:05Z</time>
      </trkpt>
      <trkpt lat="42.26716797798872" lon="-7.649307986721396">
        <ele>580.76999999999998</ele>
        <time>2025-05-02T10:00:09Z</time>
      </trkpt>
      <trkpt lat="42.266977038234472" lon="-7.649405971169472">
        <ele>579.80999999999995</ele>
        <time>2025-05-02T10:00:10Z</time>
      </trkpt>
      <trkpt lat="42.26592100225389" lon="-7.649952974170446">
        <ele>575.49000000000001</ele>
        <time>2025-05-02T10:00:22Z</time>
      </trkpt>
      <trkpt lat="42.26497502066195" lon="-7.650383971631527">
        <ele>569.72000000000003</ele>
        <time>2025-05-02T10:00:32Z</time>
      </trkpt>
      <trkpt lat="42.264897990971804" lon="-7.650410961359739">
        <ele>569.72000000000003</ele>
        <time>2025-05-02T10:00:33Z</time>
      </trkpt>
      <trkpt lat="42.264835964888334" lon="-7.650398975238204">
        <ele>568.75999999999999</ele>
        <time>2025-05-02T10:00:34Z</time>
      </trkpt>
      <trkpt lat="42.264791037887335" lon="-7.650390006601811">
        <ele>568.27999999999997</ele>
        <time>2025-05-02T10:00:35Z</time>
      </trkpt>
      <trkpt lat="42.264736974611878" lon="-7.650344995781779">
        <ele>567.32000000000005</ele>
        <time>2025-05-02T10:00:36Z</time>
      </trkpt>
      <trkpt lat="42.264668997377157" lon="-7.650287998840213">
        <ele>566.35000000000002</ele>
        <time>2025-05-02T10:00:37Z</time>
      </trkpt>
      <trkpt lat="42.264628009870648" lon="-7.650208035483956">
        <ele>565.38999999999999</ele>
        <time>2025-05-02T10:00:38Z</time>
      </trkpt>
      <trkpt lat="42.264575036242604" lon="-7.650093035772443">
        <ele>563.95000000000005</ele>
        <time>2025-05-02T10:00:39Z</time>
      </trkpt>
      <trkpt lat="42.26424596272409" lon="-7.649208996444941">
        <ele>557.22000000000003</ele>
        <time>2025-05-02T10:00:45Z</time>
      </trkpt>
      <trkpt lat="42.264187037944794" lon="-7.649070024490356">
        <ele>556.74000000000001</ele>
        <time>2025-05-02T10:00:46Z</time>
      </trkpt>
      <trkpt lat="42.263696026057005" lon="-7.647999990731478">
        <ele>556.74000000000001</ele>
        <time>2025-05-02T10:00:54Z</time>
      </trkpt>
      <trkpt lat="42.263070987537503" lon="-7.647231034934521">
        <ele>561.54999999999995</ele>
        <time>2025-05-02T10:01:01Z</time>
      </trkpt>
      <trkpt lat="42.262968979775906" lon="-7.64714696444571">
        <ele>562.50999999999999</ele>
        <time>2025-05-02T10:01:02Z</time>
      </trkpt>
      <trkpt lat="42.262863032519817" lon="-7.647089967504144">
        <ele>563.47000000000003</ele>
        <time>2025-05-02T10:01:03Z</time>
      </trkpt>
      <trkpt lat="42.262524990364909" lon="-7.646934986114502">
        <ele>565.87</ele>
        <time>2025-05-02T10:01:06Z</time>
      </trkpt>
      <trkpt lat="42.262415019795299" lon="-7.646889975294471">
        <ele>566.35000000000002</ele>
        <time>2025-05-02T10:01:07Z</time>
      </trkpt>
      <trkpt lat="42.262293985113502" lon="-7.646871032193303">
        <ele>567.32000000000005</ele>
        <time>2025-05-02T10:01:08Z</time>
      </trkpt>
      <trkpt lat="42.262176973745227" lon="-7.646853011101484">
        <ele>567.79999999999995</ele>
        <time>2025-05-02T10:01:09Z</time>
      </trkpt>
      <trkpt lat="42.262059040367603" lon="-7.646860973909497">
        <ele>568.27999999999997</ele>
        <time>2025-05-02T10:01:10Z</time>
      </trkpt>
      <trkpt lat="42.261950997635722" lon="-7.646882012486458">
        <ele>568.75999999999999</ele>
        <time>2025-05-02T10:01:11Z</time>
      </trkpt>
      <trkpt lat="42.26173298433423" lon="-7.646969016641378">
        <ele>569.72000000000003</ele>
        <time>2025-05-02T10:01:13Z</time>
      </trkpt>
      <trkpt lat="42.261613039299846" lon="-7.646999023854733">
        <ele>570.20000000000005</ele>
        <time>2025-05-02T10:01:14Z</time>
      </trkpt>
      <trkpt lat="42.261484963819385" lon="-7.646999023854733">
        <ele>571.15999999999997</ele>
        <time>2025-05-02T10:01:15Z</time>
      </trkpt>
      <trkpt lat="42.261362001299858" lon="-7.646991983056068">
        <ele>571.63999999999999</ele>
        <time>2025-05-02T10:01:16Z</time>
      </trkpt>
      <trkpt lat="42.261123033240438" lon="-7.646876983344555">
        <ele>572.12</ele>
        <time>2025-05-02T10:01:17Z</time>
      </trkpt>
      <trkpt lat="42.261006021872163" lon="-7.646788973361254">
        <ele>572.60000000000002</ele>
        <time>2025-05-02T10:01:18Z</time>
      </trkpt>
      <trkpt lat="42.261006021872163" lon="-7.646788973361254">
        <ele>573.08000000000004</ele>
        <time>2025-05-02T10:01:19Z</time>
      </trkpt>
      <trkpt lat="42.260533031076193" lon="-7.646473981440067">
        <ele>574.03999999999996</ele>
        <time>2025-05-02T10:01:22Z</time>
      </trkpt>
      <trkpt lat="42.260438986122608" lon="-7.646497031673789">
        <ele>574.03999999999996</ele>
        <time>2025-05-02T10:01:23Z</time>
      </trkpt>
      <trkpt lat="42.260349970310926" lon="-7.646547993645072">
        <ele>574.03999999999996</ele>
        <time>2025-05-02T10:01:24Z</time>
      </trkpt>
      <trkpt lat="42.260241005569696" lon="-7.646609013900161">
        <ele>573.55999999999995</ele>
        <time>2025-05-02T10:01:25Z</time>
      </trkpt>
      <trkpt lat="42.260119970887899" lon="-7.646676991134882">
        <ele>573.55999999999995</ele>
        <time>2025-05-02T10:01:26Z</time>
      </trkpt>
      <trkpt lat="42.259715041145682" lon="-7.646855022758246">
        <ele>572.12</ele>
        <time>2025-05-02T10:01:29Z</time>
      </trkpt>
      <trkpt lat="42.259159991517663" lon="-7.64705803245306">
        <ele>569.24000000000001</ele>
        <time>2025-05-02T10:01:34Z</time>
      </trkpt>
      <trkpt lat="42.25902303121984" lon="-7.647087033838034">
        <ele>569.24000000000001</ele>
        <time>2025-05-02T10:01:35Z</time>
      </trkpt>
      <trkpt lat="42.258882969617844" lon="-7.64710002578795">
        <ele>568.75999999999999</ele>
        <time>2025-05-02T10:01:36Z</time>
      </trkpt>
      <trkpt lat="42.258746009320021" lon="-7.647082004696131">
        <ele>568.27999999999997</ele>
        <time>2025-05-02T10:01:37Z</time>
      </trkpt>
      <trkpt lat="42.258607959374785" lon="-7.647062977775931">
        <ele>567.79999999999995</ele>
        <time>2025-05-02T10:01:38Z</time>
      </trkpt>
      <trkpt lat="42.258474016562104" lon="-7.6470179669559">
        <ele>567.79999999999995</ele>
        <time>2025-05-02T10:01:39Z</time>
      </trkpt>
      <trkpt lat="42.258339989930391" lon="-7.646962981671095">
        <ele>567.32000000000005</ele>
        <time>2025-05-02T10:01:40Z</time>
      </trkpt>
      <trkpt lat="42.258077971637249" lon="-7.646840019151568">
        <ele>566.35000000000002</ele>
        <time>2025-05-02T10:01:42Z</time>
      </trkpt>
      <trkpt lat="42.257831962779164" lon="-7.646724013611674">
        <ele>566.35000000000002</ele>
        <time>2025-05-02T10:01:44Z</time>
      </trkpt>
      <trkpt lat="42.256562020629644" lon="-7.646209029480815">
        <ele>563.47000000000003</ele>
        <time>2025-05-02T10:01:55Z</time>
      </trkpt>
      <trkpt lat="42.256449032574892" lon="-7.646171981468797">
        <ele>562.99000000000001</ele>
        <time>2025-05-02T10:01:56Z</time>
      </trkpt>
      <trkpt lat="42.256336966529489" lon="-7.646163012832403">
        <ele>562.50999999999999</ele>
        <time>2025-05-02T10:01:57Z</time>
      </trkpt>
      <trkpt lat="42.256214004009962" lon="-7.64617801643908">
        <ele>562.02999999999997</ele>
        <time>2025-05-02T10:01:58Z</time>
      </trkpt>
      <trkpt lat="42.256091041490436" lon="-7.646193020045757">
        <ele>562.02999999999997</ele>
        <time>2025-05-02T10:01:59Z</time>
      </trkpt>
      <trkpt lat="42.254438968375325" lon="-7.646613959223032">
        <ele>555.77999999999997</ele>
        <time>2025-05-02T10:02:13Z</time>
      </trkpt>
      <trkpt lat="42.253960026428103" lon="-7.646688977256417">
        <ele>553.38</ele>
        <time>2025-05-02T10:02:17Z</time>
      </trkpt>
      <trkpt lat="42.253718040883541" lon="-7.64667397364974">
        <ele>552.89999999999998</ele>
        <time>2025-05-02T10:02:18Z</time>
      </trkpt>
      <trkpt lat="42.253718040883541" lon="-7.64667397364974">
        <ele>552.40999999999997</ele>
        <time>2025-05-02T10:02:19Z</time>
      </trkpt>
      <trkpt lat="42.253598012030125" lon="-7.64662703499198">
        <ele>551.45000000000005</ele>
        <time>2025-05-02T10:02:20Z</time>
      </trkpt>
      <trkpt lat="42.253478989005089" lon="-7.646581018343568">
        <ele>550.97000000000003</ele>
        <time>2025-05-02T10:02:21Z</time>
      </trkpt>
      <trkpt lat="42.252460001036525" lon="-7.645912980660796">
        <ele>541.84000000000003</ele>
        <time>2025-05-02T10:02:30Z</time>
      </trkpt>
      <trkpt lat="42.252350030466914" lon="-7.645821031183004">
        <ele>540.39999999999998</ele>
        <time>2025-05-02T10:02:31Z</time>
      </trkpt>
      <trkpt lat="42.252241987735033" lon="-7.645732015371323">
        <ele>539.44000000000005</ele>
        <time>2025-05-02T10:02:32Z</time>
      </trkpt>
      <trkpt lat="42.251922972500324" lon="-7.645436972379684">
        <ele>537.02999999999997</ele>
        <time>2025-05-02T10:02:35Z</time>
      </trkpt>
      <trkpt lat="42.251843009144068" lon="-7.645304035395384">
        <ele>536.54999999999995</ele>
        <time>2025-05-02T10:02:36Z</time>
      </trkpt>
      <trkpt lat="42.25176396779716" lon="-7.645172020420432">
        <ele>536.07000000000005</ele>
        <time>2025-05-02T10:02:37Z</time>
      </trkpt>
      <trkpt lat="42.251694984734058" lon="-7.6450389996171">
        <ele>535.11000000000001</ele>
        <time>2025-05-02T10:02:38Z</time>
      </trkpt>
      <trkpt lat="42.251661038026214" lon="-7.644883012399077">
        <ele>534.63</ele>
        <time>2025-05-02T10:02:39Z</time>
      </trkpt>
      <trkpt lat="42.251624995842576" lon="-7.644720990210772">
        <ele>533.66999999999996</ele>
        <time>2025-05-02T10:02:40Z</time>
      </trkpt>
      <trkpt lat="42.251445958390832" lon="-7.643655985593796">
        <ele>528.38</ele>
        <time>2025-05-02T10:02:46Z</time>
      </trkpt>
      <trkpt lat="42.251402037218213" lon="-7.643474014475942">
        <ele>527.41999999999996</ele>
        <time>2025-05-02T10:02:47Z</time>
      </trkpt>
      <trkpt lat="42.25133003666997" lon="-7.643306963145733">
        <ele>526.46000000000004</ele>
        <time>2025-05-02T10:02:48Z</time>
      </trkpt>
      <trkpt lat="42.251259963959455" lon="-7.643143013119698">
        <ele>525.5</ele>
        <time>2025-05-02T10:02:49Z</time>
      </trkpt>
      <trkpt lat="42.25103197619319" lon="-7.642874959856272">
        <ele>524.53999999999996</ele>
        <time>2025-05-02T10:02:51Z</time>
      </trkpt>
      <trkpt lat="42.249647034332156" lon="-7.64171096496284">
        <ele>523.09000000000003</ele>
        <time>2025-05-02T10:02:59Z</time>
      </trkpt>
      <trkpt lat="42.247447036206722" lon="-7.639873987063766">
        <ele>524.05999999999995</ele>
        <time>2025-05-02T10:03:10Z</time>
      </trkpt>
      <trkpt lat="42.245074035599828" lon="-7.637896025553346">
        <ele>531.75</ele>
        <time>2025-05-02T10:03:22Z</time>
      </trkpt>
      <trkpt lat="42.243907023221254" lon="-7.636962030082941">
        <ele>537.99000000000001</ele>
        <time>2025-05-02T10:03:28Z</time>
      </trkpt>
      <trkpt lat="42.243723040446639" lon="-7.636818028986454">
        <ele>538.96000000000004</ele>
        <time>2025-05-02T10:03:29Z</time>
      </trkpt>
      <trkpt lat="42.24155698902905" lon="-7.636134987697005">
        <ele>549.04999999999995</ele>
        <time>2025-05-02T10:03:38Z</time>
      </trkpt>
      <trkpt lat="42.240880988538265" lon="-7.635991992428899">
        <ele>551.92999999999995</ele>
        <time>2025-05-02T10:03:41Z</time>
      </trkpt>
      <trkpt lat="42.240656018257141" lon="-7.635991992428899">
        <ele>552.89999999999998</ele>
        <time>2025-05-02T10:03:42Z</time>
      </trkpt>
      <trkpt lat="42.240432975813746" lon="-7.636063992977142">
        <ele>553.86000000000001</ele>
        <time>2025-05-02T10:03:43Z</time>
      </trkpt>
      <trkpt lat="42.2402039822191" lon="-7.636147979646921">
        <ele>554.82000000000005</ele>
        <time>2025-05-02T10:03:44Z</time>
      </trkpt>
      <trkpt lat="42.239967025816441" lon="-7.636235989630222">
        <ele>555.77999999999997</ele>
        <time>2025-05-02T10:03:45Z</time>
      </trkpt>
      <trkpt lat="42.237614979967475" lon="-7.637179037556052">
        <ele>563.95000000000005</ele>
        <time>2025-05-02T10:03:55Z</time>
      </trkpt>
      <trkpt lat="42.235825024545193" lon="-7.63788303360343">
        <ele>574.03999999999996</ele>
        <time>2025-05-02T10:04:04Z</time>
      </trkpt>
      <trkpt lat="42.23562796600163" lon="-7.637923015281558">
        <ele>575.00999999999999</ele>
        <time>2025-05-02T10:04:05Z</time>
      </trkpt>
      <trkpt lat="42.235438032075763" lon="-7.637933995574713">
        <ele>576.45000000000005</ele>
        <time>2025-05-02T10:04:06Z</time>
      </trkpt>
      <trkpt lat="42.235246002674103" lon="-7.637888984754682">
        <ele>577.40999999999997</ele>
        <time>2025-05-02T10:04:07Z</time>
      </trkpt>
      <trkpt lat="42.235054979100823" lon="-7.63784296810627">
        <ele>578.85000000000002</ele>
        <time>2025-05-02T10:04:08Z</time>
      </trkpt>
      <trkpt lat="42.234893962740898" lon="-7.637723023071885">
        <ele>580.28999999999996</ele>
        <time>2025-05-02T10:04:09Z</time>
      </trkpt>
      <trkpt lat="42.234735963866115" lon="-7.63758497312665">
        <ele>581.73000000000002</ele>
        <time>2025-05-02T10:04:10Z</time>
      </trkpt>
      <trkpt lat="42.234582994133234" lon="-7.637416999787092">
        <ele>582.70000000000005</ele>
        <time>2025-05-02T10:04:11Z</time>
      </trkpt>
      <trkpt lat="42.234446033835411" lon="-7.637225976213813">
        <ele>583.65999999999997</ele>
        <time>2025-05-02T10:04:12Z</time>
      </trkpt>
      <trkpt lat="42.233296036720276" lon="-7.635507015511394">
        <ele>589.42999999999995</ele>
        <time>2025-05-02T10:04:20Z</time>
      </trkpt>
      <trkpt lat="42.232784992083907" lon="-7.63474996201694">
        <ele>591.35000000000002</ele>
        <time>2025-05-02T10:04:24Z</time>
      </trkpt>
      <trkpt lat="42.232692958787084" lon="-7.634560028091073">
        <ele>592.30999999999995</ele>
        <time>2025-05-02T10:04:25Z</time>
      </trkpt>
      <trkpt lat="42.232614001259208" lon="-7.634375961497426">
        <ele>592.78999999999996</ele>
        <time>2025-05-02T10:04:26Z</time>
      </trkpt>
      <trkpt lat="42.232522973790765" lon="-7.634035991504788">
        <ele>594.71000000000004</ele>
        <time>2025-05-02T10:04:28Z</time>
      </trkpt>
      <trkpt lat="42.232496989890933" lon="-7.633683029562235">
        <ele>595.66999999999996</ele>
        <time>2025-05-02T10:04:29Z</time>
      </trkpt>
      <trkpt lat="42.232496989890933" lon="-7.633499968796969">
        <ele>596.14999999999998</ele>
        <time>2025-05-02T10:04:30Z</time>
      </trkpt>
      <trkpt lat="42.232485003769398" lon="-7.633177014067769">
        <ele>599.03999999999996</ele>
        <time>2025-05-02T10:04:33Z</time>
      </trkpt>
      <trkpt lat="42.232479974627495" lon="-7.633038964122534">
        <ele>599.51999999999998</ele>
        <time>2025-05-02T10:04:34Z</time>
      </trkpt>
      <trkpt lat="42.232226002961397" lon="-7.632478969171643">
        <ele>601.91999999999996</ele>
        <time>2025-05-02T10:04:38Z</time>
      </trkpt>
      <trkpt lat="42.23214796744287" lon="-7.632360029965639">
        <ele>602.88</ele>
        <time>2025-05-02T10:04:39Z</time>
      </trkpt>
      <trkpt lat="42.232068004086614" lon="-7.632236983627081">
        <ele>602.88</ele>
        <time>2025-05-02T10:04:40Z</time>
      </trkpt>
      <trkpt lat="42.231961973011494" lon="-7.632130030542612">
        <ele>603.36000000000001</ele>
        <time>2025-05-02T10:04:41Z</time>
      </trkpt>
      <trkpt lat="42.231788970530033" lon="-7.631958033889532">
        <ele>603.36000000000001</ele>
        <time>2025-05-02T10:04:42Z</time>
      </trkpt>
      <trkpt lat="42.231010962277651" lon="-7.631284967064858">
        <ele>601.91999999999996</ele>
        <time>2025-05-02T10:04:48Z</time>
      </trkpt>
      <trkpt lat="42.230750033631921" lon="-7.631000988185406">
        <ele>601.44000000000005</ele>
        <time>2025-05-02T10:04:49Z</time>
      </trkpt>
      <trkpt lat="42.230750033631921" lon="-7.631000988185406">
        <ele>600.48000000000002</ele>
        <time>2025-05-02T10:04:50Z</time>
      </trkpt>
      <trkpt lat="42.23062003031373" lon="-7.63085899874568">
        <ele>600</ele>
        <time>2025-05-02T10:04:51Z</time>
      </trkpt>
      <trkpt lat="42.230526991188526" lon="-7.630711980164051">
        <ele>599.51999999999998</ele>
        <time>2025-05-02T10:04:52Z</time>
      </trkpt>
      <trkpt lat="42.230439987033606" lon="-7.630519028753042">
        <ele>598.55999999999995</ele>
        <time>2025-05-02T10:04:53Z</time>
      </trkpt>
      <trkpt lat="42.23036496900022" lon="-7.630330016836524">
        <ele>598.08000000000004</ele>
        <time>2025-05-02T10:04:54Z</time>
      </trkpt>
      <trkpt lat="42.23032096400857" lon="-7.630103034898639">
        <ele>597.60000000000002</ele>
        <time>2025-05-02T10:04:55Z</time>
      </trkpt>
      <trkpt lat="42.230276959016919" lon="-7.629874963313341">
        <ele>597.12</ele>
        <time>2025-05-02T10:04:56Z</time>
      </trkpt>
      <trkpt lat="42.230215016752481" lon="-7.6293970271945">
        <ele>595.66999999999996</ele>
        <time>2025-05-02T10:04:58Z</time>
      </trkpt>
      <trkpt lat="42.23004000261426" lon="-7.626768965274096">
        <ele>588.46000000000004</ele>
        <time>2025-05-02T10:05:08Z</time>
      </trkpt>
      <trkpt lat="42.229973031207919" lon="-7.626534020528197">
        <ele>587.98000000000002</ele>
        <time>2025-05-02T10:05:09Z</time>
      </trkpt>
      <trkpt lat="42.229815032333136" lon="-7.626206958666444">
        <ele>586.53999999999996</ele>
        <time>2025-05-02T10:05:11Z</time>
      </trkpt>
      <trkpt lat="42.228277958929539" lon="-7.623979970812798">
        <ele>579.80999999999995</ele>
        <time>2025-05-02T10:05:22Z</time>
      </trkpt>
      <trkpt lat="42.226790003478527" lon="-7.621936965733767">
        <ele>570.67999999999995</ele>
        <time>2025-05-02T10:05:32Z</time>
      </trkpt>
      <trkpt lat="42.226628987118602" lon="-7.621739991009235">
        <ele>569.24000000000001</ele>
        <time>2025-05-02T10:05:33Z</time>
      </trkpt>
      <trkpt lat="42.226248029619455" lon="-7.621424999088049">
        <ele>566.83000000000004</ele>
        <time>2025-05-02T10:05:35Z</time>
      </trkpt>
      <trkpt lat="42.22447500564158" lon="-7.620302997529507">
        <ele>559.13999999999999</ele>
        <time>2025-05-02T10:05:43Z</time>
      </trkpt>
      <trkpt lat="42.223592977970839" lon="-7.619762029498816">
        <ele>556.74000000000001</ele>
        <time>2025-05-02T10:05:47Z</time>
      </trkpt>
      <trkpt lat="42.223375970497727" lon="-7.619629008695483">
        <ele>556.25999999999999</ele>
        <time>2025-05-02T10:05:48Z</time>
      </trkpt>
      <trkpt lat="42.222729977220297" lon="-7.619232041761279">
        <ele>554.82000000000005</ele>
        <time>2025-05-02T10:05:51Z</time>
      </trkpt>
      <trkpt lat="42.222309960052371" lon="-7.618973962962627">
        <ele>554.34000000000003</ele>
        <time>2025-05-02T10:05:52Z</time>
      </trkpt>
      <trkpt lat="42.221044963225722" lon="-7.618197966367006">
        <ele>555.77999999999997</ele>
        <time>2025-05-02T10:05:58Z</time>
      </trkpt>
      <trkpt lat="42.219805028289557" lon="-7.617436973378062">
        <ele>555.77999999999997</ele>
        <time>2025-05-02T10:06:05Z</time>
      </trkpt>
      <trkpt lat="42.21831195987761" lon="-7.616520998999476">
        <ele>555.29999999999995</ele>
        <time>2025-05-02T10:06:12Z</time>
      </trkpt>
      <trkpt lat="42.215963015332818" lon="-7.61508802883327">
        <ele>558.17999999999995</ele>
        <time>2025-05-02T10:06:22Z</time>
      </trkpt>
      <trkpt lat="42.21491502597928" lon="-7.614425020292401">
        <ele>562.99000000000001</ele>
        <time>2025-05-02T10:06:28Z</time>
      </trkpt>
      <trkpt lat="42.213979018852115" lon="-7.613856978714466">
        <ele>569.24000000000001</ele>
        <time>2025-05-02T10:06:36Z</time>
      </trkpt>
      <trkpt lat="42.212952990084887" lon="-7.613234035670757">
        <ele>569.24000000000001</ele>
        <time>2025-05-02T10:06:45Z</time>
      </trkpt>
      <trkpt lat="42.212305990979075" lon="-7.612841008231044">
        <ele>567.79999999999995</ele>
        <time>2025-05-02T10:06:50Z</time>
      </trkpt>
      <trkpt lat="42.212201971560717" lon="-7.612777976319194">
        <ele>567.79999999999995</ele>
        <time>2025-05-02T10:06:51Z</time>
      </trkpt>
      <trkpt lat="42.212090995162725" lon="-7.612709999084473">
        <ele>567.32000000000005</ele>
        <time>2025-05-02T10:06:52Z</time>
      </trkpt>
      <trkpt lat="42.212090995162725" lon="-7.612709999084473">
        <ele>567.32000000000005</ele>
        <time>2025-05-02T10:06:53Z</time>
      </trkpt>
      <trkpt lat="42.211881028488278" lon="-7.612611008808017">
        <ele>566.83000000000004</ele>
        <time>2025-05-02T10:06:54Z</time>
      </trkpt>
      <trkpt lat="42.211421029642224" lon="-7.612472036853433">
        <ele>565.87</ele>
        <time>2025-05-02T10:06:59Z</time>
      </trkpt>
      <trkpt lat="42.209855038672686" lon="-7.612343039363623">
        <ele>566.83000000000004</ele>
        <time>2025-05-02T10:07:12Z</time>
      </trkpt>
      <trkpt lat="42.209731992334127" lon="-7.612332981079817">
        <ele>566.83000000000004</ele>
        <time>2025-05-02T10:07:13Z</time>
      </trkpt>
      <trkpt lat="42.209609029814601" lon="-7.612323006615043">
        <ele>567.32000000000005</ele>
        <time>2025-05-02T10:07:14Z</time>
      </trkpt>
      <trkpt lat="42.208388959988952" lon="-7.612220998853445">
        <ele>571.15999999999997</ele>
        <time>2025-05-02T10:07:23Z</time>
      </trkpt>
      <trkpt lat="42.208388959988952" lon="-7.612220998853445">
        <ele>571.15999999999997</ele>
        <time>2025-05-02T10:07:24Z</time>
      </trkpt>
      <trkpt lat="42.208265997469425" lon="-7.612193003296852">
        <ele>571.63999999999999</ele>
        <time>2025-05-02T10:07:25Z</time>
      </trkpt>
      <trkpt lat="42.208143034949899" lon="-7.612152015790343">
        <ele>572.60000000000002</ele>
        <time>2025-05-02T10:07:26Z</time>
      </trkpt>
      <trkpt lat="42.208025017753243" lon="-7.612113039940596">
        <ele>573.08000000000004</ele>
        <time>2025-05-02T10:07:27Z</time>
      </trkpt>
      <trkpt lat="42.207789989188313" lon="-7.612012960016727">
        <ele>573.55999999999995</ele>
        <time>2025-05-02T10:07:28Z</time>
      </trkpt>
      <trkpt lat="42.207061015069485" lon="-7.611668966710568">
        <ele>573.08000000000004</ele>
        <time>2025-05-02T10:07:35Z</time>
      </trkpt>
      <trkpt lat="42.206947021186352" lon="-7.611613981425762">
        <ele>572.12</ele>
        <time>2025-05-02T10:07:36Z</time>
      </trkpt>
      <trkpt lat="42.206831015646458" lon="-7.611557990312576">
        <ele>571.15999999999997</ele>
        <time>2025-05-02T10:07:37Z</time>
      </trkpt>
      <trkpt lat="42.206714004278183" lon="-7.61150099337101">
        <ele>570.20000000000005</ele>
        <time>2025-05-02T10:07:38Z</time>
      </trkpt>
      <trkpt lat="42.206599004566669" lon="-7.611454976722598">
        <ele>569.72000000000003</ele>
        <time>2025-05-02T10:07:39Z</time>
      </trkpt>
      <trkpt lat="42.205177014693618" lon="-7.611036971211433">
        <ele>564.42999999999995</ele>
        <time>2025-05-02T10:07:51Z</time>
      </trkpt>
      <trkpt lat="42.205061009153724" lon="-7.611000007018447">
        <ele>562.99000000000001</ele>
        <time>2025-05-02T10:07:52Z</time>
      </trkpt>
      <trkpt lat="42.203737003728747" lon="-7.610822981223464">
        <ele>557.70000000000005</ele>
        <time>2025-05-02T10:08:02Z</time>
      </trkpt>
      <trkpt lat="42.203616974875331" lon="-7.610847037285566">
        <ele>557.22000000000003</ele>
        <time>2025-05-02T10:08:04Z</time>
      </trkpt>
      <trkpt lat="42.203499963507056" lon="-7.610871009528637">
        <ele>556.74000000000001</ele>
        <time>2025-05-02T10:08:05Z</time>
      </trkpt>
      <trkpt lat="42.203389992937446" lon="-7.610892970114946">
        <ele>556.74000000000001</ele>
        <time>2025-05-02T10:08:06Z</time>
      </trkpt>
      <trkpt lat="42.203280022367835" lon="-7.610896993428469">
        <ele>556.25999999999999</ele>
        <time>2025-05-02T10:08:07Z</time>
      </trkpt>
      <trkpt lat="42.203176002949476" lon="-7.610864974558353">
        <ele>555.77999999999997</ele>
        <time>2025-05-02T10:08:08Z</time>
      </trkpt>
      <trkpt lat="42.203070977702737" lon="-7.61083303950727">
        <ele>555.29999999999995</ele>
        <time>2025-05-02T10:08:09Z</time>
      </trkpt>
      <trkpt lat="42.202981039881706" lon="-7.610760033130646">
        <ele>555.29999999999995</ele>
        <time>2025-05-02T10:08:10Z</time>
      </trkpt>
      <trkpt lat="42.202895041555166" lon="-7.610665988177061">
        <ele>554.82000000000005</ele>
        <time>2025-05-02T10:08:11Z</time>
      </trkpt>
      <trkpt lat="42.202808959409595" lon="-7.610570015385747">
        <ele>554.82000000000005</ele>
        <time>2025-05-02T10:08:12Z</time>
      </trkpt>
      <trkpt lat="42.202724972739816" lon="-7.610476976260543">
        <ele>554.82000000000005</ele>
        <time>2025-05-02T10:08:13Z</time>
      </trkpt>
      <trkpt lat="42.20264702104032" lon="-7.610387960448861">
        <ele>554.82000000000005</ele>
        <time>2025-05-02T10:08:14Z</time>
      </trkpt>
      <trkpt lat="42.202586000785232" lon="-7.610280001536012">
        <ele>554.82000000000005</ele>
        <time>2025-05-02T10:08:15Z</time>
      </trkpt>
      <trkpt lat="42.202529003843665" lon="-7.610178999602795">
        <ele>554.82000000000005</ele>
        <time>2025-05-02T10:08:16Z</time>
      </trkpt>
      <trkpt lat="42.20221602357924" lon="-7.609549015760422">
        <ele>555.77999999999997</ele>
        <time>2025-05-02T10:08:21Z</time>
      </trkpt>
      <trkpt lat="42.20221602357924" lon="-7.609549015760422">
        <ele>556.25999999999999</ele>
        <time>2025-05-02T10:08:22Z</time>
      </trkpt>
      <trkpt lat="42.20217403024435" lon="-7.609427981078625">
        <ele>556.25999999999999</ele>
        <time>2025-05-02T10:08:23Z</time>
      </trkpt>
      <trkpt lat="42.202132036909461" lon="-7.609306024387479">
        <ele>556.74000000000001</ele>
        <time>2025-05-02T10:08:24Z</time>
      </trkpt>
      <trkpt lat="42.202091971412301" lon="-7.609191024675965">
        <ele>556.74000000000001</ele>
        <time>2025-05-02T10:08:25Z</time>
      </trkpt>
      <trkpt lat="42.202065987512469" lon="-7.609037971124053">
        <ele>556.74000000000001</ele>
        <time>2025-05-02T10:08:26Z</time>
      </trkpt>
      <trkpt lat="42.201970014721155" lon="-7.608641004189849">
        <ele>557.22000000000003</ele>
        <time>2025-05-02T10:08:29Z</time>
      </trkpt>
      <trkpt lat="42.201942019164562" lon="-7.608508989214897">
        <ele>557.70000000000005</ele>
        <time>2025-05-02T10:08:30Z</time>
      </trkpt>
      <trkpt lat="42.20182903110981" lon="-7.608316959813237">
        <ele>557.70000000000005</ele>
        <time>2025-05-02T10:08:32Z</time>
      </trkpt>
      <trkpt lat="42.201758036389947" lon="-7.60825602337718">
        <ele>557.70000000000005</ele>
        <time>2025-05-02T10:08:33Z</time>
      </trkpt>
      <trkpt lat="42.201661979779601" lon="-7.608197014778853">
        <ele>557.70000000000005</ele>
        <time>2025-05-02T10:08:34Z</time>
      </trkpt>
      <trkpt lat="42.201563995331526" lon="-7.608135994523764">
        <ele>557.70000000000005</ele>
        <time>2025-05-02T10:08:35Z</time>
      </trkpt>
      <trkpt lat="42.201456958428025" lon="-7.608070028945804">
        <ele>557.70000000000005</ele>
        <time>2025-05-02T10:08:36Z</time>
      </trkpt>
      <trkpt lat="42.201347993686795" lon="-7.608002973720431">
        <ele>557.70000000000005</ele>
        <time>2025-05-02T10:08:37Z</time>
      </trkpt>
      <trkpt lat="42.200217023491859" lon="-7.60735304094851">
        <ele>558.17999999999995</ele>
        <time>2025-05-02T10:08:48Z</time>
      </trkpt>
      <trkpt lat="42.200114009901881" lon="-7.607300989329815">
        <ele>558.17999999999995</ele>
        <time>2025-05-02T10:08:49Z</time>
      </trkpt>
      <trkpt lat="42.199911000207067" lon="-7.607198981568217">
        <ele>558.17999999999995</ele>
        <time>2025-05-02T10:08:51Z</time>
      </trkpt>
      <trkpt lat="42.19981100410223" lon="-7.607149025425315">
        <ele>558.17999999999995</ele>
        <time>2025-05-02T10:08:52Z</time>
      </trkpt>
      <trkpt lat="42.199708996340632" lon="-7.607121029868722">
        <ele>557.70000000000005</ele>
        <time>2025-05-02T10:08:53Z</time>
      </trkpt>
      <trkpt lat="42.199612017720938" lon="-7.607168974354863">
        <ele>557.70000000000005</ele>
        <time>2025-05-02T10:08:54Z</time>
      </trkpt>
      <trkpt lat="42.19951000995934" lon="-7.607220020145178">
        <ele>557.22000000000003</ele>
        <time>2025-05-02T10:08:55Z</time>
      </trkpt>
      <trkpt lat="42.199408002197742" lon="-7.607283974066377">
        <ele>557.22000000000003</ele>
        <time>2025-05-02T10:08:56Z</time>
      </trkpt>
      <trkpt lat="42.198657989501953" lon="-7.608011020347476">
        <ele>554.82000000000005</ele>
        <time>2025-05-02T10:09:03Z</time>
      </trkpt>
      <trkpt lat="42.198657989501953" lon="-7.608011020347476">
        <ele>554.82000000000005</ele>
        <time>2025-05-02T10:09:04Z</time>
      </trkpt>
      <trkpt lat="42.198548018932343" lon="-7.608042033389211">
        <ele>554.82000000000005</ele>
        <time>2025-05-02T10:09:05Z</time>
      </trkpt>
      <trkpt lat="42.198433019220829" lon="-7.608073968440294">
        <ele>554.82000000000005</ele>
        <time>2025-05-02T10:09:06Z</time>
      </trkpt>
      <trkpt lat="42.198310978710651" lon="-7.608107998967171">
        <ele>554.34000000000003</ele>
        <time>2025-05-02T10:09:07Z</time>
      </trkpt>
      <trkpt lat="42.198191033676267" lon="-7.608142029494047">
        <ele>554.34000000000003</ele>
        <time>2025-05-02T10:09:08Z</time>
      </trkpt>
      <trkpt lat="42.197849974036217" lon="-7.608205983415246">
        <ele>554.82000000000005</ele>
        <time>2025-05-02T10:09:11Z</time>
      </trkpt>
      <trkpt lat="42.19761704094708" lon="-7.608244959264994">
        <ele>555.77999999999997</ele>
        <time>2025-05-02T10:09:13Z</time>
      </trkpt>
      <trkpt lat="42.197496006265283" lon="-7.608264992013574">
        <ele>556.25999999999999</ele>
        <time>2025-05-02T10:09:14Z</time>
      </trkpt>
      <trkpt lat="42.196150040253997" lon="-7.608031975105405">
        <ele>559.62</ele>
        <time>2025-05-02T10:09:25Z</time>
      </trkpt>
      <trkpt lat="42.194697959348559" lon="-7.608291981741786">
        <ele>564.42999999999995</ele>
        <time>2025-05-02T10:09:37Z</time>
      </trkpt>
      <trkpt lat="42.193483002483845" lon="-7.608719961717725">
        <ele>568.27999999999997</ele>
        <time>2025-05-02T10:09:47Z</time>
      </trkpt>
      <trkpt lat="42.192895011976361" lon="-7.608972005546093">
        <ele>569.24000000000001</ele>
        <time>2025-05-02T10:09:53Z</time>
      </trkpt>
      <trkpt lat="42.192813036963344" lon="-7.609012993052602">
        <ele>569.72000000000003</ele>
        <time>2025-05-02T10:09:54Z</time>
      </trkpt>
      <trkpt lat="42.192745981737971" lon="-7.609080970287323">
        <ele>570.20000000000005</ele>
        <time>2025-05-02T10:09:55Z</time>
      </trkpt>
      <trkpt lat="42.192745981737971" lon="-7.609080970287323">
        <ele>570.20000000000005</ele>
        <time>2025-05-02T10:09:56Z</time>
      </trkpt>
      <trkpt lat="42.192679010331631" lon="-7.609155988320708">
        <ele>570.67999999999995</ele>
        <time>2025-05-02T10:09:57Z</time>
      </trkpt>
      <trkpt lat="42.192628970369697" lon="-7.609211979433894">
        <ele>571.15999999999997</ele>
        <time>2025-05-02T10:09:58Z</time>
      </trkpt>
      <trkpt lat="42.192578008398414" lon="-7.609467962756753">
        <ele>571.15999999999997</ele>
        <time>2025-05-02T10:09:59Z</time>
      </trkpt>
      <trkpt lat="42.192553030326962" lon="-7.609594026580453">
        <ele>571.15999999999997</ele>
        <time>2025-05-02T10:10:00Z</time>
      </trkpt>
      <trkpt lat="42.192553030326962" lon="-7.609594026580453">
        <ele>571.15999999999997</ele>
        <time>2025-05-02T10:10:01Z</time>
      </trkpt>
      <trkpt lat="42.192526962608099" lon="-7.609722018241882">
        <ele>571.15999999999997</ele>
        <time>2025-05-02T10:10:02Z</time>
      </trkpt>
      <trkpt lat="42.192501984536648" lon="-7.60984699241817">
        <ele>570.67999999999995</ele>
        <time>2025-05-02T10:10:03Z</time>
      </trkpt>
      <trkpt lat="42.192456973716617" lon="-7.609956962987781">
        <ele>570.20000000000005</ele>
        <time>2025-05-02T10:10:04Z</time>
      </trkpt>
      <trkpt lat="42.192402994260192" lon="-7.610044972971082">
        <ele>570.20000000000005</ele>
        <time>2025-05-02T10:10:05Z</time>
      </trkpt>
      <trkpt lat="42.192339040338993" lon="-7.610119991004467">
        <ele>569.72000000000003</ele>
        <time>2025-05-02T10:10:06Z</time>
      </trkpt>
      <trkpt lat="42.192277014255524" lon="-7.610157039016485">
        <ele>569.72000000000003</ele>
        <time>2025-05-02T10:10:07Z</time>
      </trkpt>
      <trkpt lat="42.192193027585745" lon="-7.610157039016485">
        <ele>569.24000000000001</ele>
        <time>2025-05-02T10:10:08Z</time>
      </trkpt>
      <trkpt lat="42.192111974582076" lon="-7.610146980732679">
        <ele>569.24000000000001</ele>
        <time>2025-05-02T10:10:09Z</time>
      </trkpt>
      <trkpt lat="42.192022958770394" lon="-7.610112028196454">
        <ele>568.75999999999999</ele>
        <time>2025-05-02T10:10:10Z</time>
      </trkpt>
      <trkpt lat="42.191936960443854" lon="-7.610076991841197">
        <ele>568.75999999999999</ele>
        <time>2025-05-02T10:10:11Z</time>
      </trkpt>
      <trkpt lat="42.191856997087598" lon="-7.610026029869914">
        <ele>568.27999999999997</ele>
        <time>2025-05-02T10:10:12Z</time>
      </trkpt>
      <trkpt lat="42.1917740162462" lon="-7.609966015443206">
        <ele>568.27999999999997</ele>
        <time>2025-05-02T10:10:13Z</time>
      </trkpt>
      <trkpt lat="42.191681982949376" lon="-7.609926033765078">
        <ele>568.27999999999997</ele>
        <time>2025-05-02T10:10:14Z</time>
      </trkpt>
      <trkpt lat="42.191591039299965" lon="-7.609886974096298">
        <ele>568.75999999999999</ele>
        <time>2025-05-02T10:10:15Z</time>
      </trkpt>
      <trkpt lat="42.191500011831522" lon="-7.609847998246551">
        <ele>568.75999999999999</ele>
        <time>2025-05-02T10:10:16Z</time>
      </trkpt>
      <trkpt lat="42.191403033211827" lon="-7.609845986589789">
        <ele>568.75999999999999</ele>
        <time>2025-05-02T10:10:17Z</time>
      </trkpt>
      <trkpt lat="42.191341007128358" lon="-7.609855961054564">
        <ele>568.75999999999999</ele>
        <time>2025-05-02T10:10:18Z</time>
      </trkpt>
      <trkpt lat="42.191251991316676" lon="-7.609945982694626">
        <ele>568.75999999999999</ele>
        <time>2025-05-02T10:10:19Z</time>
      </trkpt>
      <trkpt lat="42.191170016303658" lon="-7.610091995447874">
        <ele>568.75999999999999</ele>
        <time>2025-05-02T10:10:20Z</time>
      </trkpt>
      <trkpt lat="42.191115031018853" lon="-7.610186040401459">
        <ele>568.75999999999999</ele>
        <time>2025-05-02T10:10:21Z</time>
      </trkpt>
      <trkpt lat="42.191115031018853" lon="-7.610186962410808">
        <ele>568.27999999999997</ele>
        <time>2025-05-02T10:10:22Z</time>
      </trkpt>
      <trkpt lat="42.191063985228539" lon="-7.610273966565728">
        <ele>568.27999999999997</ele>
        <time>2025-05-02T10:10:23Z</time>
      </trkpt>
      <trkpt lat="42.191019980236888" lon="-7.610349990427494">
        <ele>568.75999999999999</ele>
        <time>2025-05-02T10:10:24Z</time>
      </trkpt>
      <trkpt lat="42.190925013273954" lon="-7.610377985984087">
        <ele>568.75999999999999</ele>
        <time>2025-05-02T10:10:25Z</time>
      </trkpt>
      <trkpt lat="42.190843038260937" lon="-7.610402964055538">
        <ele>569.24000000000001</ele>
        <time>2025-05-02T10:10:26Z</time>
      </trkpt>
      <trkpt lat="42.190767014399171" lon="-7.610388966277242">
        <ele>569.72000000000003</ele>
        <time>2025-05-02T10:10:27Z</time>
      </trkpt>
      <trkpt lat="42.190675986930728" lon="-7.610328029841185">
        <ele>570.67999999999995</ele>
        <time>2025-05-02T10:10:28Z</time>
      </trkpt>
      <trkpt lat="42.19061597250402" lon="-7.6102339848876">
        <ele>571.63999999999999</ele>
        <time>2025-05-02T10:10:29Z</time>
      </trkpt>
      <trkpt lat="42.190543971955776" lon="-7.610119991004467">
        <ele>572.12</ele>
        <time>2025-05-02T10:10:30Z</time>
      </trkpt>
      <trkpt lat="42.190251024439931" lon="-7.609553961083293">
        <ele>574.03999999999996</ele>
        <time>2025-05-02T10:10:34Z</time>
      </trkpt>
      <trkpt lat="42.190182963386178" lon="-7.609399985522032">
        <ele>574.03999999999996</ele>
        <time>2025-05-02T10:10:35Z</time>
      </trkpt>
      <trkpt lat="42.190118003636599" lon="-7.609254978597164">
        <ele>574.52999999999997</ele>
        <time>2025-05-02T10:10:36Z</time>
      </trkpt>
      <trkpt lat="42.190019013360143" lon="-7.609136961400509">
        <ele>574.52999999999997</ele>
        <time>2025-05-02T10:10:37Z</time>
      </trkpt>
      <trkpt lat="42.189924968406558" lon="-7.609023973345757">
        <ele>575.00999999999999</ele>
        <time>2025-05-02T10:10:38Z</time>
      </trkpt>
      <trkpt lat="42.189806029200554" lon="-7.608935963362455">
        <ele>575.00999999999999</ele>
        <time>2025-05-02T10:10:39Z</time>
      </trkpt>
      <trkpt lat="42.189678037539124" lon="-7.608853988349438">
        <ele>575.00999999999999</ele>
        <time>2025-05-02T10:10:40Z</time>
      </trkpt>
      <trkpt lat="42.18943202868104" lon="-7.608698001131415">
        <ele>575.97000000000003</ele>
        <time>2025-05-02T10:10:42Z</time>
      </trkpt>
      <trkpt lat="42.189270006492734" lon="-7.608657013624907">
        <ele>576.45000000000005</ele>
        <time>2025-05-02T10:10:43Z</time>
      </trkpt>
      <trkpt lat="42.189120976254344" lon="-7.608619965612888">
        <ele>577.40999999999997</ele>
        <time>2025-05-02T10:10:44Z</time>
      </trkpt>
      <trkpt lat="42.187421964481473" lon="-7.608476970344782">
        <ele>582.70000000000005</ele>
        <time>2025-05-02T10:10:55Z</time>
      </trkpt>
      <trkpt lat="42.185851028189063" lon="-7.60862298309803">
        <ele>585.10000000000002</ele>
        <time>2025-05-02T10:11:06Z</time>
      </trkpt>
      <trkpt lat="42.185730999335647" lon="-7.608576966449618">
        <ele>585.58000000000004</ele>
        <time>2025-05-02T10:11:07Z</time>
      </trkpt>
      <trkpt lat="42.185608958825469" lon="-7.608531033620238">
        <ele>586.05999999999995</ele>
        <time>2025-05-02T10:11:08Z</time>
      </trkpt>
      <trkpt lat="42.185488007962704" lon="-7.608485016971827">
        <ele>586.53999999999996</ele>
        <time>2025-05-02T10:11:09Z</time>
      </trkpt>
      <trkpt lat="42.185391029343009" lon="-7.608390972018242">
        <ele>587.01999999999998</ele>
        <time>2025-05-02T10:11:10Z</time>
      </trkpt>
      <trkpt lat="42.185292039066553" lon="-7.608290975913405">
        <ele>587.01999999999998</ele>
        <time>2025-05-02T10:11:11Z</time>
      </trkpt>
      <trkpt lat="42.185202017426491" lon="-7.608187962323427">
        <ele>587.01999999999998</ele>
        <time>2025-05-02T10:11:12Z</time>
      </trkpt>
      <trkpt lat="42.18502901494503" lon="-7.607965003699064">
        <ele>587.5</ele>
        <time>2025-05-02T10:11:14Z</time>
      </trkpt>
      <trkpt lat="42.184947039932013" lon="-7.607857966795564">
        <ele>587.98000000000002</ele>
        <time>2025-05-02T10:11:15Z</time>
      </trkpt>
      <trkpt lat="42.184861963614821" lon="-7.607768028974533">
        <ele>587.98000000000002</ele>
        <time>2025-05-02T10:11:16Z</time>
      </trkpt>
      <trkpt lat="42.184758028015494" lon="-7.607732992619276">
        <ele>588.46000000000004</ele>
        <time>2025-05-02T10:11:17Z</time>
      </trkpt>
      <trkpt lat="42.184647973626852" lon="-7.60769703425467">
        <ele>588.95000000000005</ele>
        <time>2025-05-02T10:11:18Z</time>
      </trkpt>
      <trkpt lat="42.184407999739051" lon="-7.607680018991232">
        <ele>589.90999999999997</ele>
        <time>2025-05-02T10:11:20Z</time>
      </trkpt>
      <trkpt lat="42.184067023918033" lon="-7.607753025367856">
        <ele>589.90999999999997</ele>
        <time>2025-05-02T10:11:21Z</time>
      </trkpt>
      <trkpt lat="42.184067023918033" lon="-7.607753025367856">
        <ele>590.38999999999999</ele>
        <time>2025-05-02T10:11:22Z</time>
      </trkpt>
      <trkpt lat="42.183894021436572" lon="-7.607884034514427">
        <ele>590.38999999999999</ele>
        <time>2025-05-02T10:11:23Z</time>
      </trkpt>
      <trkpt lat="42.183894021436572" lon="-7.607884034514427">
        <ele>590.87</ele>
        <time>2025-05-02T10:11:24Z</time>
      </trkpt>
      <trkpt lat="42.183772986754775" lon="-7.607973972335458">
        <ele>590.87</ele>
        <time>2025-05-02T10:11:25Z</time>
      </trkpt>
      <trkpt lat="42.18365496955812" lon="-7.60806298814714">
        <ele>591.35000000000002</ele>
        <time>2025-05-02T10:11:26Z</time>
      </trkpt>
      <trkpt lat="42.183539969846606" lon="-7.60814898647368">
        <ele>591.83000000000004</ele>
        <time>2025-05-02T10:11:27Z</time>
      </trkpt>
      <trkpt lat="42.182991039007902" lon="-7.608499014750123">
        <ele>593.75</ele>
        <time>2025-05-02T10:11:31Z</time>
      </trkpt>
      <trkpt lat="42.182896994054317" lon="-7.608565986156464">
        <ele>594.23000000000002</ele>
        <time>2025-05-02T10:11:32Z</time>
      </trkpt>
      <trkpt lat="42.182791968807578" lon="-7.608650978654623">
        <ele>594.71000000000004</ele>
        <time>2025-05-02T10:11:33Z</time>
      </trkpt>
      <trkpt lat="42.182791968807578" lon="-7.608650978654623">
        <ele>595.19000000000005</ele>
        <time>2025-05-02T10:11:34Z</time>
      </trkpt>
      <trkpt lat="42.182726003229618" lon="-7.608775030821562">
        <ele>595.66999999999996</ele>
        <time>2025-05-02T10:11:35Z</time>
      </trkpt>
      <trkpt lat="42.182297017425299" lon="-7.609585979953408">
        <ele>597.60000000000002</ele>
        <time>2025-05-02T10:11:41Z</time>
      </trkpt>
      <trkpt lat="42.182232979685068" lon="-7.609708020463586">
        <ele>598.08000000000004</ele>
        <time>2025-05-02T10:11:42Z</time>
      </trkpt>
      <trkpt lat="42.18217103742063" lon="-7.609826037660241">
        <ele>598.55999999999995</ele>
        <time>2025-05-02T10:11:43Z</time>
      </trkpt>
      <trkpt lat="42.182047991082072" lon="-7.610056959092617">
        <ele>599.51999999999998</ele>
        <time>2025-05-02T10:11:45Z</time>
      </trkpt>
      <trkpt lat="42.181981019675732" lon="-7.610163995996118">
        <ele>600.48000000000002</ele>
        <time>2025-05-02T10:11:46Z</time>
      </trkpt>
      <trkpt lat="42.181900972500443" lon="-7.610252005979419">
        <ele>600.48000000000002</ele>
        <time>2025-05-02T10:11:47Z</time>
      </trkpt>
      <trkpt lat="42.181659992784262" lon="-7.610518969595432">
        <ele>600.96000000000004</ele>
        <time>2025-05-02T10:11:49Z</time>
      </trkpt>
      <trkpt lat="42.181659992784262" lon="-7.610518969595432">
        <ele>600.96000000000004</ele>
        <time>2025-05-02T10:11:50Z</time>
      </trkpt>
      <trkpt lat="42.181467041373253" lon="-7.610664982348681">
        <ele>600.96000000000004</ele>
        <time>2025-05-02T10:11:51Z</time>
      </trkpt>
      <trkpt lat="42.181364027783275" lon="-7.610726002603769">
        <ele>600.96000000000004</ele>
        <time>2025-05-02T10:11:52Z</time>
      </trkpt>
      <trkpt lat="42.181364027783275" lon="-7.610726002603769">
        <ele>600.96000000000004</ele>
        <time>2025-05-02T10:11:53Z</time>
      </trkpt>
      <trkpt lat="42.181268977001309" lon="-7.610781993716955">
        <ele>600.96000000000004</ele>
        <time>2025-05-02T10:11:54Z</time>
      </trkpt>
      <trkpt lat="42.181171998381615" lon="-7.610838990658522">
        <ele>600.96000000000004</ele>
        <time>2025-05-02T10:11:55Z</time>
      </trkpt>
      <trkpt lat="42.181055992841721" lon="-7.61087897233665">
        <ele>601.44000000000005</ele>
        <time>2025-05-02T10:11:56Z</time>
      </trkpt>
      <trkpt lat="42.180806966498494" lon="-7.610873021185398">
        <ele>601.91999999999996</ele>
        <time>2025-05-02T10:11:57Z</time>
      </trkpt>
      <trkpt lat="42.180806966498494" lon="-7.610873021185398">
        <ele>602.88</ele>
        <time>2025-05-02T10:11:58Z</time>
      </trkpt>
      <trkpt lat="42.180685009807348" lon="-7.610819963738322">
        <ele>603.85000000000002</ele>
        <time>2025-05-02T10:11:59Z</time>
      </trkpt>
      <trkpt lat="42.18012903816998" lon="-7.610456021502614">
        <ele>608.16999999999996</ele>
        <time>2025-05-02T10:12:04Z</time>
      </trkpt>
      <trkpt lat="42.180032981559634" lon="-7.610392989590764">
        <ele>609.13</ele>
        <time>2025-05-02T10:12:05Z</time>
      </trkpt>
      <trkpt lat="42.17995896935463" lon="-7.610251000151038">
        <ele>610.09000000000003</ele>
        <time>2025-05-02T10:12:06Z</time>
      </trkpt>
      <trkpt lat="42.179517997428775" lon="-7.609446002170444">
        <ele>614.89999999999998</ele>
        <time>2025-05-02T10:12:12Z</time>
      </trkpt>
      <trkpt lat="42.179426969960332" lon="-7.609322033822537">
        <ele>615.86000000000001</ele>
        <time>2025-05-02T10:12:13Z</time>
      </trkpt>
      <trkpt lat="42.179160006344318" lon="-7.608957001939416">
        <ele>618.25999999999999</ele>
        <time>2025-05-02T10:12:16Z</time>
      </trkpt>
      <trkpt lat="42.178999995812774" lon="-7.608737982809544">
        <ele>620.19000000000005</ele>
        <time>2025-05-02T10:12:18Z</time>
      </trkpt>
      <trkpt lat="42.178930006921291" lon="-7.608603034168482">
        <ele>621.14999999999998</ele>
        <time>2025-05-02T10:12:19Z</time>
      </trkpt>
      <trkpt lat="42.178878039121628" lon="-7.608289970085025">
        <ele>623.07000000000005</ele>
        <time>2025-05-02T10:12:21Z</time>
      </trkpt>
      <trkpt lat="42.178845014423132" lon="-7.608138006180525">
        <ele>624.50999999999999</ele>
        <time>2025-05-02T10:12:22Z</time>
      </trkpt>
      <trkpt lat="42.178802015259862" lon="-7.608009008690715">
        <ele>625.96000000000004</ele>
        <time>2025-05-02T10:12:23Z</time>
      </trkpt>
      <trkpt lat="42.178745018318295" lon="-7.607882022857666">
        <ele>626.91999999999996</ele>
        <time>2025-05-02T10:12:24Z</time>
      </trkpt>
      <trkpt lat="42.17851703055203" lon="-7.607769034802914">
        <ele>627.88</ele>
        <time>2025-05-02T10:12:25Z</time>
      </trkpt>
      <trkpt lat="42.17851703055203" lon="-7.607769034802914">
        <ele>628.84000000000003</ele>
        <time>2025-05-02T10:12:26Z</time>
      </trkpt>
      <trkpt lat="42.178384009748697" lon="-7.607746990397573">
        <ele>629.79999999999995</ele>
        <time>2025-05-02T10:12:27Z</time>
      </trkpt>
      <trkpt lat="42.178116962313652" lon="-7.60769996792078">
        <ele>631.24000000000001</ele>
        <time>2025-05-02T10:12:29Z</time>
      </trkpt>
      <trkpt lat="42.17798100784421" lon="-7.607629979029298">
        <ele>632.20000000000005</ele>
        <time>2025-05-02T10:12:30Z</time>
      </trkpt>
      <trkpt lat="42.177861984819174" lon="-7.60752503760159">
        <ele>633.64999999999998</ele>
        <time>2025-05-02T10:12:31Z</time>
      </trkpt>
      <trkpt lat="42.177762994542718" lon="-7.607387993484736">
        <ele>635.09000000000003</ele>
        <time>2025-05-02T10:12:32Z</time>
      </trkpt>
      <trkpt lat="42.177665010094643" lon="-7.607252039015293">
        <ele>636.52999999999997</ele>
        <time>2025-05-02T10:12:33Z</time>
      </trkpt>
      <trkpt lat="42.177408020943403" lon="-7.606801008805633">
        <ele>641.82000000000005</ele>
        <time>2025-05-02T10:12:36Z</time>
      </trkpt>
      <trkpt lat="42.177308024838567" lon="-7.606616020202637">
        <ele>643.74000000000001</ele>
        <time>2025-05-02T10:12:37Z</time>
      </trkpt>
      <trkpt lat="42.17721096239984" lon="-7.606525998562574">
        <ele>645.17999999999995</ele>
        <time>2025-05-02T10:12:38Z</time>
      </trkpt>
      <trkpt lat="42.17710099183023" lon="-7.606421979144216">
        <ele>646.62</ele>
        <time>2025-05-02T10:12:39Z</time>
      </trkpt>
      <trkpt lat="42.176947016268969" lon="-7.606314020231366">
        <ele>648.07000000000005</ele>
        <time>2025-05-02T10:12:40Z</time>
      </trkpt>
      <trkpt lat="42.176808966323733" lon="-7.606307985261083">
        <ele>649.50999999999999</ele>
        <time>2025-05-02T10:12:41Z</time>
      </trkpt>
      <trkpt lat="42.17667100019753" lon="-7.60630102828145">
        <ele>650.95000000000005</ele>
        <time>2025-05-02T10:12:42Z</time>
      </trkpt>
      <trkpt lat="42.176261963322759" lon="-7.606206983327866">
        <ele>654.79999999999995</ele>
        <time>2025-05-02T10:12:45Z</time>
      </trkpt>
      <trkpt lat="42.176122991368175" lon="-7.606158033013344">
        <ele>655.75999999999999</ele>
        <time>2025-05-02T10:12:46Z</time>
      </trkpt>
      <trkpt lat="42.175996005535126" lon="-7.60610799305141">
        <ele>656.72000000000003</ele>
        <time>2025-05-02T10:12:47Z</time>
      </trkpt>
      <trkpt lat="42.175861978903413" lon="-7.606028029695153">
        <ele>657.67999999999995</ele>
        <time>2025-05-02T10:12:48Z</time>
      </trkpt>
      <trkpt lat="42.175723006948829" lon="-7.605943959206343">
        <ele>658.63999999999999</ele>
        <time>2025-05-02T10:12:49Z</time>
      </trkpt>
      <trkpt lat="42.175587974488735" lon="-7.605859972536564">
        <ele>659.12</ele>
        <time>2025-05-02T10:12:50Z</time>
      </trkpt>
      <trkpt lat="42.175473980605602" lon="-7.605713959783316">
        <ele>660.08000000000004</ele>
        <time>2025-05-02T10:12:51Z</time>
      </trkpt>
      <trkpt lat="42.175359986722469" lon="-7.605567025020719">
        <ele>661.03999999999996</ele>
        <time>2025-05-02T10:12:52Z</time>
      </trkpt>
      <trkpt lat="42.175255967304111" lon="-7.605403997004032">
        <ele>662.00999999999999</ele>
        <time>2025-05-02T10:12:53Z</time>
      </trkpt>
      <trkpt lat="42.174992021173239" lon="-7.604891024529934">
        <ele>664.88999999999999</ele>
        <time>2025-05-02T10:12:56Z</time>
      </trkpt>
      <trkpt lat="42.174898982048035" lon="-7.604722967371345">
        <ele>665.85000000000002</ele>
        <time>2025-05-02T10:12:57Z</time>
      </trkpt>
      <trkpt lat="42.174472007900476" lon="-7.604103041812778">
        <ele>670.17999999999995</ele>
        <time>2025-05-02T10:13:01Z</time>
      </trkpt>
      <trkpt lat="42.174361031502485" lon="-7.603950994089246">
        <ele>671.13999999999999</ele>
        <time>2025-05-02T10:13:02Z</time>
      </trkpt>
      <trkpt lat="42.173430975526571" lon="-7.602678034454584">
        <ele>679.30999999999995</ele>
        <time>2025-05-02T10:13:10Z</time>
      </trkpt>
      <trkpt lat="42.173333996906877" lon="-7.602602010592818">
        <ele>680.26999999999998</ele>
        <time>2025-05-02T10:13:11Z</time>
      </trkpt>
      <trkpt lat="42.173228971660137" lon="-7.602525986731052">
        <ele>681.23000000000002</ele>
        <time>2025-05-02T10:13:12Z</time>
      </trkpt>
      <trkpt lat="42.173111038282514" lon="-7.602473013103008">
        <ele>681.71000000000004</ele>
        <time>2025-05-02T10:13:13Z</time>
      </trkpt>
      <trkpt lat="42.172972988337278" lon="-7.602432025596499">
        <ele>682.66999999999996</ele>
        <time>2025-05-02T10:13:14Z</time>
      </trkpt>
      <trkpt lat="42.17282596975565" lon="-7.602388020604849">
        <ele>683.63</ele>
        <time>2025-05-02T10:13:15Z</time>
      </trkpt>
      <trkpt lat="42.171755013987422" lon="-7.602040003985167">
        <ele>691.33000000000004</ele>
        <time>2025-05-02T10:13:23Z</time>
      </trkpt>
      <trkpt lat="42.171756019815803" lon="-7.602040003985167">
        <ele>692.28999999999996</ele>
        <time>2025-05-02T10:13:24Z</time>
      </trkpt>
      <trkpt lat="42.171663986518979" lon="-7.602017959579825">
        <ele>692.76999999999998</ele>
        <time>2025-05-02T10:13:25Z</time>
      </trkpt>
      <trkpt lat="42.171573964878917" lon="-7.602019971236587">
        <ele>693.73000000000002</ele>
        <time>2025-05-02T10:13:26Z</time>
      </trkpt>
      <trkpt lat="42.171424012631178" lon="-7.602147040888667">
        <ele>695.64999999999998</ele>
        <time>2025-05-02T10:13:28Z</time>
      </trkpt>
      <trkpt lat="42.171201976016164" lon="-7.602420961484313">
        <ele>698.52999999999997</ele>
        <time>2025-05-02T10:13:31Z</time>
      </trkpt>
      <trkpt lat="42.171120001003146" lon="-7.602522969245911">
        <ele>699.5</ele>
        <time>2025-05-02T10:13:32Z</time>
      </trkpt>
      <trkpt lat="42.171022016555071" lon="-7.60260502807796">
        <ele>700.94000000000005</ele>
        <time>2025-05-02T10:13:33Z</time>
      </trkpt>
      <trkpt lat="42.170926965773106" lon="-7.602679040282965">
        <ele>701.89999999999998</ele>
        <time>2025-05-02T10:13:34Z</time>
      </trkpt>
      <trkpt lat="42.170691015198827" lon="-7.602679040282965">
        <ele>702.86000000000001</ele>
        <time>2025-05-02T10:13:35Z</time>
      </trkpt>
      <trkpt lat="42.170563023537397" lon="-7.602632017806172">
        <ele>704.77999999999997</ele>
        <time>2025-05-02T10:13:37Z</time>
      </trkpt>
      <trkpt lat="42.169501036405563" lon="-7.602364970371127">
        <ele>707.19000000000005</ele>
        <time>2025-05-02T10:13:45Z</time>
      </trkpt>
      <trkpt lat="42.169378995895386" lon="-7.602375028654933">
        <ele>707.19000000000005</ele>
        <time>2025-05-02T10:13:46Z</time>
      </trkpt>
      <trkpt lat="42.169256033375859" lon="-7.602383997291327">
        <ele>707.66999999999996</ele>
        <time>2025-05-02T10:13:47Z</time>
      </trkpt>
      <trkpt lat="42.169134998694062" lon="-7.602418027818203">
        <ele>707.66999999999996</ele>
        <time>2025-05-02T10:13:48Z</time>
      </trkpt>
      <trkpt lat="42.169013964012265" lon="-7.602474018931389">
        <ele>708.14999999999998</ele>
        <time>2025-05-02T10:13:49Z</time>
      </trkpt>
      <trkpt lat="42.168887984007597" lon="-7.602533027529717">
        <ele>708.14999999999998</ele>
        <time>2025-05-02T10:13:50Z</time>
      </trkpt>
      <trkpt lat="42.168385991826653" lon="-7.602765960618854">
        <ele>709.59000000000003</ele>
        <time>2025-05-02T10:13:54Z</time>
      </trkpt>
      <trkpt lat="42.167043965309858" lon="-7.603300977498293">
        <ele>713.91999999999996</ele>
        <time>2025-05-02T10:14:04Z</time>
      </trkpt>
      <trkpt lat="42.166494028642774" lon="-7.603343976661563">
        <ele>715.84000000000003</ele>
        <time>2025-05-02T10:14:08Z</time>
      </trkpt>
      <trkpt lat="42.16635899618268" lon="-7.603310029953718">
        <ele>716.32000000000005</ele>
        <time>2025-05-02T10:14:09Z</time>
      </trkpt>
      <trkpt lat="42.166223041713238" lon="-7.603275999426842">
        <ele>716.79999999999995</ele>
        <time>2025-05-02T10:14:10Z</time>
      </trkpt>
      <trkpt lat="42.164977993816137" lon="-7.602693038061261">
        <ele>720.64999999999998</ele>
        <time>2025-05-02T10:14:18Z</time>
      </trkpt>
      <trkpt lat="42.164831981062889" lon="-7.602679040282965">
        <ele>721.13</ele>
        <time>2025-05-02T10:14:19Z</time>
      </trkpt>
      <trkpt lat="42.164688985794783" lon="-7.602674011141062">
        <ele>722.09000000000003</ele>
        <time>2025-05-02T10:14:20Z</time>
      </trkpt>
      <trkpt lat="42.164250025525689" lon="-7.602797979488969">
        <ele>724.49000000000001</ele>
        <time>2025-05-02T10:14:23Z</time>
      </trkpt>
      <trkpt lat="42.164250025525689" lon="-7.602797979488969">
        <ele>725.45000000000005</ele>
        <time>2025-05-02T10:14:24Z</time>
      </trkpt>
      <trkpt lat="42.164095966145396" lon="-7.602822035551071">
        <ele>725.92999999999995</ele>
        <time>2025-05-02T10:14:25Z</time>
      </trkpt>
      <trkpt lat="42.163944002240896" lon="-7.602828992530704">
        <ele>726.88999999999999</ele>
        <time>2025-05-02T10:14:26Z</time>
      </trkpt>
      <trkpt lat="42.163792960345745" lon="-7.602836033329368">
        <ele>727.37</ele>
        <time>2025-05-02T10:14:27Z</time>
      </trkpt>
      <trkpt lat="42.163634039461613" lon="-7.602829998359084">
        <ele>728.34000000000003</ele>
        <time>2025-05-02T10:14:28Z</time>
      </trkpt>
      <trkpt lat="42.162497034296393" lon="-7.602710975334048">
        <ele>730.74000000000001</ele>
        <time>2025-05-02T10:14:35Z</time>
      </trkpt>
      <trkpt lat="42.161497995257378" lon="-7.602566974237561">
        <ele>731.22000000000003</ele>
        <time>2025-05-02T10:14:41Z</time>
      </trkpt>
      <trkpt lat="42.161333961412311" lon="-7.60254099033773">
        <ele>731.22000000000003</ele>
        <time>2025-05-02T10:14:42Z</time>
      </trkpt>
      <trkpt lat="42.161183003336191" lon="-7.602464966475964">
        <ele>731.22000000000003</ele>
        <time>2025-05-02T10:14:43Z</time>
      </trkpt>
      <trkpt lat="42.160166027024388" lon="-7.60191997513175">
        <ele>730.74000000000001</ele>
        <time>2025-05-02T10:14:51Z</time>
      </trkpt>
      <trkpt lat="42.160024959594011" lon="-7.601868007332087">
        <ele>730.25999999999999</ele>
        <time>2025-05-02T10:14:53Z</time>
      </trkpt>
      <trkpt lat="42.159971985965967" lon="-7.60185300372541">
        <ele>730.25999999999999</ele>
        <time>2025-05-02T10:14:54Z</time>
      </trkpt>
      <trkpt lat="42.159969974309206" lon="-7.60185300372541">
        <ele>730.25999999999999</ele>
        <time>2025-05-02T10:14:55Z</time>
      </trkpt>
      <trkpt lat="42.160010961815715" lon="-7.601772034540772">
        <ele>729.77999999999997</ele>
        <time>2025-05-02T10:14:56Z</time>
      </trkpt>
      <trkpt lat="42.16004197485745" lon="-7.601710008457303">
        <ele>729.29999999999995</ele>
        <time>2025-05-02T10:14:57Z</time>
      </trkpt>
      <trkpt lat="42.160167032852769" lon="-7.601642031222582">
        <ele>728.82000000000005</ele>
        <time>2025-05-02T10:14:58Z</time>
      </trkpt>
      <trkpt lat="42.160167032852769" lon="-7.601642031222582">
        <ele>728.82000000000005</ele>
        <time>2025-05-02T10:14:59Z</time>
      </trkpt>
      <trkpt lat="42.160265017300844" lon="-7.601606994867325">
        <ele>728.34000000000003</ele>
        <time>2025-05-02T10:15:00Z</time>
      </trkpt>
      <trkpt lat="42.160376999527216" lon="-7.601568019017577">
        <ele>728.34000000000003</ele>
        <time>2025-05-02T10:15:01Z</time>
      </trkpt>
      <trkpt lat="42.160503985360265" lon="-7.601523008197546">
        <ele>727.86000000000001</ele>
        <time>2025-05-02T10:15:02Z</time>
      </trkpt>
      <trkpt lat="42.160641029477119" lon="-7.601474979892373">
        <ele>727.86000000000001</ele>
        <time>2025-05-02T10:15:03Z</time>
      </trkpt>
      <trkpt lat="42.160783018916845" lon="-7.60142401792109">
        <ele>727.37</ele>
        <time>2025-05-02T10:15:04Z</time>
      </trkpt>
      <trkpt lat="42.160935988649726" lon="-7.601370960474014">
        <ele>726.88999999999999</ele>
        <time>2025-05-02T10:15:05Z</time>
      </trkpt>
      <trkpt lat="42.161275958642364" lon="-7.601198041811585">
        <ele>726.88999999999999</ele>
        <time>2025-05-02T10:15:06Z</time>
      </trkpt>
      <trkpt lat="42.162091014906764" lon="-7.600567974150181">
        <ele>723.04999999999995</ele>
        <time>2025-05-02T10:15:12Z</time>
      </trkpt>
      <trkpt lat="42.162429979071021" lon="-7.600426990538836">
        <ele>722.09000000000003</ele>
        <time>2025-05-02T10:15:13Z</time>
      </trkpt>
      <trkpt lat="42.16259803622961" lon="-7.600358007475734">
        <ele>721.13</ele>
        <time>2025-05-02T10:15:14Z</time>
      </trkpt>
      <trkpt lat="42.162752011790872" lon="-7.600294975563884">
        <ele>720.64999999999998</ele>
        <time>2025-05-02T10:15:15Z</time>
      </trkpt>
      <trkpt lat="42.162875980138779" lon="-7.600196991115809">
        <ele>719.67999999999995</ele>
        <time>2025-05-02T10:15:16Z</time>
      </trkpt>
      <trkpt lat="42.16296499595046" lon="-7.600081991404295">
        <ele>718.72000000000003</ele>
        <time>2025-05-02T10:15:17Z</time>
      </trkpt>
      <trkpt lat="42.163044959306717" lon="-7.599956011399627">
        <ele>718.24000000000001</ele>
        <time>2025-05-02T10:15:18Z</time>
      </trkpt>
      <trkpt lat="42.163079995661974" lon="-7.599802035838366">
        <ele>717.27999999999997</ele>
        <time>2025-05-02T10:15:19Z</time>
      </trkpt>
      <trkpt lat="42.163082007318735" lon="-7.599646970629692">
        <ele>716.32000000000005</ele>
        <time>2025-05-02T10:15:20Z</time>
      </trkpt>
      <trkpt lat="42.163082007318735" lon="-7.599646970629692">
        <ele>715.36000000000001</ele>
        <time>2025-05-02T10:15:21Z</time>
      </trkpt>
      <trkpt lat="42.163062980398536" lon="-7.599483020603657">
        <ele>714.39999999999998</ele>
        <time>2025-05-02T10:15:22Z</time>
      </trkpt>
      <trkpt lat="42.163016041740775" lon="-7.599301971495152">
        <ele>713.44000000000005</ele>
        <time>2025-05-02T10:15:23Z</time>
      </trkpt>
      <trkpt lat="42.162910010665655" lon="-7.598891006782651">
        <ele>712.95000000000005</ele>
        <time>2025-05-02T10:15:24Z</time>
      </trkpt>
      <trkpt lat="42.16285603120923" lon="-7.598662013188005">
        <ele>712.47000000000003</ele>
        <time>2025-05-02T10:15:25Z</time>
      </trkpt>
      <trkpt lat="42.162437019869685" lon="-7.596925031393766">
        <ele>710.54999999999995</ele>
        <time>2025-05-02T10:15:33Z</time>
      </trkpt>
      <trkpt lat="42.161888005211949" lon="-7.594624031335115">
        <ele>709.59000000000003</ele>
        <time>2025-05-02T10:15:42Z</time>
      </trkpt>
      <trkpt lat="42.161532025784254" lon="-7.593230037018657">
        <ele>715.84000000000003</ele>
        <time>2025-05-02T10:15:50Z</time>
      </trkpt>
      <trkpt lat="42.161450972780585" lon="-7.592920996248722">
        <ele>716.32000000000005</ele>
        <time>2025-05-02T10:15:51Z</time>
      </trkpt>
      <trkpt lat="42.161391964182258" lon="-7.5927650090307">
        <ele>716.79999999999995</ele>
        <time>2025-05-02T10:15:52Z</time>
      </trkpt>
      <trkpt lat="42.161391964182258" lon="-7.5927650090307">
        <ele>716.79999999999995</ele>
        <time>2025-05-02T10:15:53Z</time>
      </trkpt>
      <trkpt lat="42.161206975579262" lon="-7.592476001009345">
        <ele>716.79999999999995</ele>
        <time>2025-05-02T10:15:54Z</time>
      </trkpt>
      <trkpt lat="42.161206975579262" lon="-7.592476001009345">
        <ele>716.79999999999995</ele>
        <time>2025-05-02T10:15:55Z</time>
      </trkpt>
      <trkpt lat="42.159938039258122" lon="-7.590984022244811">
        <ele>721.61000000000001</ele>
        <time>2025-05-02T10:16:05Z</time>
      </trkpt>
      <trkpt lat="42.159277964383364" lon="-7.590204002335668">
        <ele>726.40999999999997</ele>
        <time>2025-05-02T10:16:09Z</time>
      </trkpt>
      <trkpt lat="42.159277964383364" lon="-7.590204002335668">
        <ele>727.86000000000001</ele>
        <time>2025-05-02T10:16:10Z</time>
      </trkpt>
      <trkpt lat="42.158606993034482" lon="-7.589405039325357">
        <ele>734.10000000000002</ele>
        <time>2025-05-02T10:16:17Z</time>
      </trkpt>
      <trkpt lat="42.157972985878587" lon="-7.588733984157443">
        <ele>739.87</ele>
        <time>2025-05-02T10:16:24Z</time>
      </trkpt>
      <trkpt lat="42.157880030572414" lon="-7.588689979165793">
        <ele>740.83000000000004</ele>
        <time>2025-05-02T10:16:25Z</time>
      </trkpt>
      <trkpt lat="42.157781040295959" lon="-7.588672041893005">
        <ele>741.30999999999995</ele>
        <time>2025-05-02T10:16:26Z</time>
      </trkpt>
      <trkpt lat="42.157781040295959" lon="-7.588672041893005">
        <ele>742.27999999999997</ele>
        <time>2025-05-02T10:16:27Z</time>
      </trkpt>
      <trkpt lat="42.157574007287621" lon="-7.588676987215877">
        <ele>742.75999999999999</ele>
        <time>2025-05-02T10:16:28Z</time>
      </trkpt>
      <trkpt lat="42.157466970384121" lon="-7.588696014136076">
        <ele>742.75999999999999</ele>
        <time>2025-05-02T10:16:29Z</time>
      </trkpt>
      <trkpt lat="42.157466970384121" lon="-7.588696014136076">
        <ele>743.24000000000001</ele>
        <time>2025-05-02T10:16:30Z</time>
      </trkpt>
      <trkpt lat="42.157263038679957" lon="-7.588744964450598">
        <ele>743.72000000000003</ele>
        <time>2025-05-02T10:16:31Z</time>
      </trkpt>
      <trkpt lat="42.156971013173461" lon="-7.588819982483983">
        <ele>745.15999999999997</ele>
        <time>2025-05-02T10:16:34Z</time>
      </trkpt>
      <trkpt lat="42.156971013173461" lon="-7.588819982483983">
        <ele>745.63999999999999</ele>
        <time>2025-05-02T10:16:35Z</time>
      </trkpt>
      <trkpt lat="42.15686003677547" lon="-7.588805984705687">
        <ele>746.60000000000002</ele>
        <time>2025-05-02T10:16:36Z</time>
      </trkpt>
      <trkpt lat="42.156182024627924" lon="-7.588624013587833">
        <ele>750.45000000000005</ele>
        <time>2025-05-02T10:16:41Z</time>
      </trkpt>
      <trkpt lat="42.15495097450912" lon="-7.588483029976487">
        <ele>758.62</ele>
        <time>2025-05-02T10:16:48Z</time>
      </trkpt>
      <trkpt lat="42.153082983568311" lon="-7.588062006980181">
        <ele>769.19000000000005</ele>
        <time>2025-05-02T10:16:56Z</time>
      </trkpt>
      <trkpt lat="42.152141025289893" lon="-7.587721031159163">
        <ele>779.28999999999996</ele>
        <time>2025-05-02T10:17:03Z</time>
      </trkpt>
      <trkpt lat="42.151231002062559" lon="-7.587432023137808">
        <ele>788.41999999999996</ele>
        <time>2025-05-02T10:17:10Z</time>
      </trkpt>
      <trkpt lat="42.151120025664568" lon="-7.587359016761184">
        <ele>789.38</ele>
        <time>2025-05-02T10:17:11Z</time>
      </trkpt>
      <trkpt lat="42.151013994589448" lon="-7.587252985686064">
        <ele>791.29999999999995</ele>
        <time>2025-05-02T10:17:12Z</time>
      </trkpt>
      <trkpt lat="42.150898994877934" lon="-7.587125999853015">
        <ele>792.74000000000001</ele>
        <time>2025-05-02T10:17:13Z</time>
      </trkpt>
      <trkpt lat="42.150796987116337" lon="-7.586945034563541">
        <ele>794.66999999999996</ele>
        <time>2025-05-02T10:17:14Z</time>
      </trkpt>
      <trkpt lat="42.150693973526359" lon="-7.586755016818643">
        <ele>796.11000000000001</ele>
        <time>2025-05-02T10:17:15Z</time>
      </trkpt>
      <trkpt lat="42.150592971593142" lon="-7.586571034044027">
        <ele>797.54999999999995</ele>
        <time>2025-05-02T10:17:16Z</time>
      </trkpt>
      <trkpt lat="42.150494987145066" lon="-7.586390990763903">
        <ele>798.99000000000001</ele>
        <time>2025-05-02T10:17:17Z</time>
      </trkpt>
      <trkpt lat="42.150419969111681" lon="-7.586194016039372">
        <ele>800.91999999999996</ele>
        <time>2025-05-02T10:17:18Z</time>
      </trkpt>
      <trkpt lat="42.150368001312017" lon="-7.585968961939216">
        <ele>802.36000000000001</ele>
        <time>2025-05-02T10:17:19Z</time>
      </trkpt>
      <trkpt lat="42.150317961350083" lon="-7.585752038285136">
        <ele>803.79999999999995</ele>
        <time>2025-05-02T10:17:20Z</time>
      </trkpt>
      <trkpt lat="42.150199022144079" lon="-7.585398992523551">
        <ele>805.24000000000001</ele>
        <time>2025-05-02T10:17:21Z</time>
      </trkpt>
      <trkpt lat="42.150089973583817" lon="-7.585290027782321">
        <ele>806.67999999999995</ele>
        <time>2025-05-02T10:17:22Z</time>
      </trkpt>
      <trkpt lat="42.150089973583817" lon="-7.585290027782321">
        <ele>808.13</ele>
        <time>2025-05-02T10:17:23Z</time>
      </trkpt>
      <trkpt lat="42.149832984432578" lon="-7.585133034735918">
        <ele>809.09000000000003</ele>
        <time>2025-05-02T10:17:24Z</time>
      </trkpt>
      <trkpt lat="42.14970700442791" lon="-7.585043013095856">
        <ele>810.52999999999997</ele>
        <time>2025-05-02T10:17:25Z</time>
      </trkpt>
      <trkpt lat="42.149590998888016" lon="-7.584917033091188">
        <ele>811.97000000000003</ele>
        <time>2025-05-02T10:17:26Z</time>
      </trkpt>
      <trkpt lat="42.149468036368489" lon="-7.584786023944616">
        <ele>813.40999999999997</ele>
        <time>2025-05-02T10:17:27Z</time>
      </trkpt>
      <trkpt lat="42.149272989481688" lon="-7.584413029253483">
        <ele>816.77999999999997</ele>
        <time>2025-05-02T10:17:29Z</time>
      </trkpt>
      <trkpt lat="42.148749958723783" lon="-7.583474004641175">
        <ele>823.99000000000001</ele>
        <time>2025-05-02T10:17:34Z</time>
      </trkpt>
      <trkpt lat="42.148749958723783" lon="-7.583474004641175">
        <ele>824.95000000000005</ele>
        <time>2025-05-02T10:17:35Z</time>
      </trkpt>
      <trkpt lat="42.148620961233974" lon="-7.583365039899945">
        <ele>826.38999999999999</ele>
        <time>2025-05-02T10:17:36Z</time>
      </trkpt>
      <trkpt lat="42.148358020931482" lon="-7.583207041025162">
        <ele>827.35000000000002</ele>
        <time>2025-05-02T10:17:37Z</time>
      </trkpt>
      <trkpt lat="42.148358020931482" lon="-7.583207041025162">
        <ele>828.30999999999995</ele>
        <time>2025-05-02T10:17:38Z</time>
      </trkpt>
      <trkpt lat="42.148135984316468" lon="-7.583311982452869">
        <ele>828.78999999999996</ele>
        <time>2025-05-02T10:17:39Z</time>
      </trkpt>
      <trkpt lat="42.148022996261716" lon="-7.583406027406454">
        <ele>829.75999999999999</ele>
        <time>2025-05-02T10:17:40Z</time>
      </trkpt>
      <trkpt lat="42.147890981286764" lon="-7.583497976884246">
        <ele>830.72000000000003</ele>
        <time>2025-05-02T10:17:41Z</time>
      </trkpt>
      <trkpt lat="42.147740023210645" lon="-7.583581963554025">
        <ele>831.20000000000005</ele>
        <time>2025-05-02T10:17:42Z</time>
      </trkpt>
      <trkpt lat="42.147575989365578" lon="-7.583671985194087">
        <ele>832.15999999999997</ele>
        <time>2025-05-02T10:17:43Z</time>
      </trkpt>
      <trkpt lat="42.147076008841395" lon="-7.583923023194075">
        <ele>835.51999999999998</ele>
        <time>2025-05-02T10:17:46Z</time>
      </trkpt>
      <trkpt lat="42.146906023845077" lon="-7.583950012922287">
        <ele>836.96000000000004</ele>
        <time>2025-05-02T10:17:47Z</time>
      </trkpt>
      <trkpt lat="42.146750958636403" lon="-7.583912964910269">
        <ele>838.40999999999997</ele>
        <time>2025-05-02T10:17:48Z</time>
      </trkpt>
      <trkpt lat="42.146595977246761" lon="-7.583852028474212">
        <ele>839.37</ele>
        <time>2025-05-02T10:17:49Z</time>
      </trkpt>
      <trkpt lat="42.14646496810019" lon="-7.583758989349008">
        <ele>840.80999999999995</ele>
        <time>2025-05-02T10:17:50Z</time>
      </trkpt>
      <trkpt lat="42.146333958953619" lon="-7.583635021001101">
        <ele>842.25</ele>
        <time>2025-05-02T10:17:51Z</time>
      </trkpt>
      <trkpt lat="42.14620697312057" lon="-7.583514992147684">
        <ele>843.21000000000004</ele>
        <time>2025-05-02T10:17:52Z</time>
      </trkpt>
      <trkpt lat="42.14605500921607" lon="-7.583427987992764">
        <ele>844.65999999999997</ele>
        <time>2025-05-02T10:17:53Z</time>
      </trkpt>
      <trkpt lat="42.14590203948319" lon="-7.583400998264551">
        <ele>846.10000000000002</ele>
        <time>2025-05-02T10:17:54Z</time>
      </trkpt>
      <trkpt lat="42.145736999809742" lon="-7.583370991051197">
        <ele>847.53999999999996</ele>
        <time>2025-05-02T10:17:55Z</time>
      </trkpt>
      <trkpt lat="42.145566008985043" lon="-7.583340983837843">
        <ele>848.98000000000002</ele>
        <time>2025-05-02T10:17:56Z</time>
      </trkpt>
      <trkpt lat="42.144280979409814" lon="-7.583135962486267">
        <ele>859.55999999999995</ele>
        <time>2025-05-02T10:18:04Z</time>
      </trkpt>
      <trkpt lat="42.144200010225177" lon="-7.583191031590104">
        <ele>860.51999999999998</ele>
        <time>2025-05-02T10:18:05Z</time>
      </trkpt>
      <trkpt lat="42.144124992191792" lon="-7.583240987733007">
        <ele>861.48000000000002</ele>
        <time>2025-05-02T10:18:06Z</time>
      </trkpt>
      <trkpt lat="42.144123986363411" lon="-7.583240987733007">
        <ele>862.44000000000005</ele>
        <time>2025-05-02T10:18:07Z</time>
      </trkpt>
      <trkpt lat="42.144105965271592" lon="-7.583349030464888">
        <ele>863.39999999999998</ele>
        <time>2025-05-02T10:18:08Z</time>
      </trkpt>
      <trkpt lat="42.144095990806818" lon="-7.58348498493433">
        <ele>863.88</ele>
        <time>2025-05-02T10:18:09Z</time>
      </trkpt>
      <trkpt lat="42.144115017727017" lon="-7.583606019616127">
        <ele>864.84000000000003</ele>
        <time>2025-05-02T10:18:10Z</time>
      </trkpt>
      <trkpt lat="42.144177965819836" lon="-7.583762006834149">
        <ele>865.32000000000005</ele>
        <time>2025-05-02T10:18:11Z</time>
      </trkpt>
      <trkpt lat="42.144248960539699" lon="-7.583937020972371">
        <ele>865.79999999999995</ele>
        <time>2025-05-02T10:18:12Z</time>
      </trkpt>
      <trkpt lat="42.144319033250213" lon="-7.584109017625451">
        <ele>865.79999999999995</ele>
        <time>2025-05-02T10:18:13Z</time>
      </trkpt>
      <trkpt lat="42.144371001049876" lon="-7.584309009835124">
        <ele>866.28999999999996</ele>
        <time>2025-05-02T10:18:14Z</time>
      </trkpt>
      <trkpt lat="42.144371001049876" lon="-7.584406994283199">
        <ele>866.76999999999998</ele>
        <time>2025-05-02T10:18:15Z</time>
      </trkpt>
      <trkpt lat="42.144307969138026" lon="-7.584659038111568">
        <ele>867.73000000000002</ele>
        <time>2025-05-02T10:18:16Z</time>
      </trkpt>
      <trkpt lat="42.144259018823504" lon="-7.584854001179338">
        <ele>868.21000000000004</ele>
        <time>2025-05-02T10:18:17Z</time>
      </trkpt>
      <trkpt lat="42.144210990518332" lon="-7.585044018924236">
        <ele>869.16999999999996</ele>
        <time>2025-05-02T10:18:18Z</time>
      </trkpt>
      <trkpt lat="42.144159022718668" lon="-7.585206963121891">
        <ele>870.13</ele>
        <time>2025-05-02T10:18:19Z</time>
      </trkpt>
      <trkpt lat="42.144091967493296" lon="-7.585308970883489">
        <ele>870.13</ele>
        <time>2025-05-02T10:18:20Z</time>
      </trkpt>
      <trkpt lat="42.143990965560079" lon="-7.585359010845423">
        <ele>870.61000000000001</ele>
        <time>2025-05-02T10:18:21Z</time>
      </trkpt>
      <trkpt lat="42.143905973061919" lon="-7.585347024723887">
        <ele>871.09000000000003</ele>
        <time>2025-05-02T10:18:22Z</time>
      </trkpt>
      <trkpt lat="42.143788961693645" lon="-7.585292961448431">
        <ele>871.57000000000005</ele>
        <time>2025-05-02T10:18:23Z</time>
      </trkpt>
      <trkpt lat="42.143684020265937" lon="-7.585244011133909">
        <ele>872.04999999999995</ele>
        <time>2025-05-02T10:18:24Z</time>
      </trkpt>
      <trkpt lat="42.143587963655591" lon="-7.585120964795351">
        <ele>872.52999999999997</ele>
        <time>2025-05-02T10:18:25Z</time>
      </trkpt>
      <trkpt lat="42.142807021737099" lon="-7.583814980462194">
        <ele>879.74000000000001</ele>
        <time>2025-05-02T10:18:32Z</time>
      </trkpt>
      <trkpt lat="42.142366971820593" lon="-7.583293039351702">
        <ele>883.59000000000003</ele>
        <time>2025-05-02T10:18:35Z</time>
      </trkpt>
      <trkpt lat="42.142097996547818" lon="-7.582981986925006">
        <ele>885.99000000000001</ele>
        <time>2025-05-02T10:18:37Z</time>
      </trkpt>
      <trkpt lat="42.141993977129459" lon="-7.582798004150391">
        <ele>887.42999999999995</ele>
        <time>2025-05-02T10:18:38Z</time>
      </trkpt>
      <trkpt lat="42.141924994066358" lon="-7.58260396309197">
        <ele>888.39999999999998</ele>
        <time>2025-05-02T10:18:39Z</time>
      </trkpt>
      <trkpt lat="42.141860034316778" lon="-7.582419980317354">
        <ele>890.32000000000005</ele>
        <time>2025-05-02T10:18:40Z</time>
      </trkpt>
      <trkpt lat="42.141795996576548" lon="-7.582240020856261">
        <ele>891.75999999999999</ele>
        <time>2025-05-02T10:18:41Z</time>
      </trkpt>
      <trkpt lat="42.141688037663698" lon="-7.582089984789491">
        <ele>893.67999999999995</ele>
        <time>2025-05-02T10:18:42Z</time>
      </trkpt>
      <trkpt lat="42.141587035730481" lon="-7.58204204030335">
        <ele>895.61000000000001</ele>
        <time>2025-05-02T10:18:43Z</time>
      </trkpt>
      <trkpt lat="42.141129970550537" lon="-7.581778010353446">
        <ele>898.49000000000001</ele>
        <time>2025-05-02T10:18:45Z</time>
      </trkpt>
      <trkpt lat="42.140977000817657" lon="-7.581655969843268">
        <ele>900.40999999999997</ele>
        <time>2025-05-02T10:18:46Z</time>
      </trkpt>
      <trkpt lat="42.14083400554955" lon="-7.581542981788516">
        <ele>902.33000000000004</ele>
        <time>2025-05-02T10:18:47Z</time>
      </trkpt>
      <trkpt lat="42.140707019716501" lon="-7.581441979855299">
        <ele>904.25999999999999</ele>
        <time>2025-05-02T10:18:48Z</time>
      </trkpt>
      <trkpt lat="42.140595959499478" lon="-7.581352964043617">
        <ele>906.17999999999995</ele>
        <time>2025-05-02T10:18:49Z</time>
      </trkpt>
      <trkpt lat="42.140482971444726" lon="-7.58129496127367">
        <ele>907.62</ele>
        <time>2025-05-02T10:18:50Z</time>
      </trkpt>
      <trkpt lat="42.140357997268438" lon="-7.581252967938781">
        <ele>909.53999999999996</ele>
        <time>2025-05-02T10:18:51Z</time>
      </trkpt>
      <trkpt lat="42.140260012820363" lon="-7.581315999850631">
        <ele>910.99000000000001</ele>
        <time>2025-05-02T10:18:52Z</time>
      </trkpt>
      <trkpt lat="42.140121962875128" lon="-7.581403004005551">
        <ele>912.90999999999997</ele>
        <time>2025-05-02T10:18:53Z</time>
      </trkpt>
      <trkpt lat="42.140036970376968" lon="-7.581536024808884">
        <ele>914.35000000000002</ele>
        <time>2025-05-02T10:18:54Z</time>
      </trkpt>
      <trkpt lat="42.139936974272132" lon="-7.581691006198525">
        <ele>915.78999999999996</ele>
        <time>2025-05-02T10:18:55Z</time>
      </trkpt>
      <trkpt lat="42.139841001480818" lon="-7.581840958446264">
        <ele>917.24000000000001</ele>
        <time>2025-05-02T10:18:56Z</time>
      </trkpt>
      <trkpt lat="42.139675039798021" lon="-7.58204597979784">
        <ele>919.63999999999999</ele>
        <time>2025-05-02T10:18:58Z</time>
      </trkpt>
      <trkpt lat="42.139675039798021" lon="-7.58204597979784">
        <ele>921.08000000000004</ele>
        <time>2025-05-02T10:18:59Z</time>
      </trkpt>
      <trkpt lat="42.139585018157959" lon="-7.58210901170969">
        <ele>922.03999999999996</ele>
        <time>2025-05-02T10:19:00Z</time>
      </trkpt>
      <trkpt lat="42.13950103148818" lon="-7.58215100504458">
        <ele>923</ele>
        <time>2025-05-02T10:19:01Z</time>
      </trkpt>
      <trkpt lat="42.139402041211724" lon="-7.582130972296">
        <ele>923.96000000000004</ele>
        <time>2025-05-02T10:19:02Z</time>
      </trkpt>
      <trkpt lat="42.139306990429759" lon="-7.582111023366451">
        <ele>924.92999999999995</ele>
        <time>2025-05-02T10:19:03Z</time>
      </trkpt>
      <trkpt lat="42.139215962961316" lon="-7.582016978412867">
        <ele>925.40999999999997</ele>
        <time>2025-05-02T10:19:04Z</time>
      </trkpt>
      <trkpt lat="42.13911596685648" lon="-7.581913964822888">
        <ele>926.37</ele>
        <time>2025-05-02T10:19:05Z</time>
      </trkpt>
      <trkpt lat="42.139005996286869" lon="-7.581798965111375">
        <ele>927.33000000000004</ele>
        <time>2025-05-02T10:19:06Z</time>
      </trkpt>
      <trkpt lat="42.138889990746975" lon="-7.58167801424861">
        <ele>928.76999999999998</ele>
        <time>2025-05-02T10:19:07Z</time>
      </trkpt>
      <trkpt lat="42.138769961893559" lon="-7.581553962081671">
        <ele>929.73000000000002</ele>
        <time>2025-05-02T10:19:08Z</time>
      </trkpt>
      <trkpt lat="42.138625960797071" lon="-7.581495959311724">
        <ele>931.16999999999996</ele>
        <time>2025-05-02T10:19:09Z</time>
      </trkpt>
      <trkpt lat="42.13849101215601" lon="-7.581441979855299">
        <ele>932.13999999999999</ele>
        <time>2025-05-02T10:19:10Z</time>
      </trkpt>
      <trkpt lat="42.138366959989071" lon="-7.581444997340441">
        <ele>933.58000000000004</ele>
        <time>2025-05-02T10:19:11Z</time>
      </trkpt>
      <trkpt lat="42.138243997469544" lon="-7.58148699067533">
        <ele>934.53999999999996</ele>
        <time>2025-05-02T10:19:12Z</time>
      </trkpt>
      <trkpt lat="42.138122040778399" lon="-7.581558991223574">
        <ele>935.98000000000002</ele>
        <time>2025-05-02T10:19:13Z</time>
      </trkpt>
      <trkpt lat="42.137991031631827" lon="-7.58163602091372">
        <ele>936.94000000000005</ele>
        <time>2025-05-02T10:19:14Z</time>
      </trkpt>
      <trkpt lat="42.137853987514973" lon="-7.581717995926738">
        <ele>938.38</ele>
        <time>2025-05-02T10:19:15Z</time>
      </trkpt>
      <trkpt lat="42.137682996690273" lon="-7.581735011190176">
        <ele>939.83000000000004</ele>
        <time>2025-05-02T10:19:16Z</time>
      </trkpt>
      <trkpt lat="42.137520974501967" lon="-7.581698969006538">
        <ele>940.78999999999996</ele>
        <time>2025-05-02T10:19:17Z</time>
      </trkpt>
      <trkpt lat="42.137368004769087" lon="-7.581639960408211">
        <ele>941.75</ele>
        <time>2025-05-02T10:19:18Z</time>
      </trkpt>
      <trkpt lat="42.137215035036206" lon="-7.581581035628915">
        <ele>943.19000000000005</ele>
        <time>2025-05-02T10:19:19Z</time>
      </trkpt>
      <trkpt lat="42.1370720397681" lon="-7.581525966525078">
        <ele>944.63</ele>
        <time>2025-05-02T10:19:20Z</time>
      </trkpt>
      <trkpt lat="42.136933989822865" lon="-7.581535018980503">
        <ele>945.59000000000003</ele>
        <time>2025-05-02T10:19:21Z</time>
      </trkpt>
      <trkpt lat="42.136799041181803" lon="-7.58159201592207">
        <ele>946.55999999999995</ele>
        <time>2025-05-02T10:19:22Z</time>
      </trkpt>
      <trkpt lat="42.136659985408187" lon="-7.58167902007699">
        <ele>947.51999999999998</ele>
        <time>2025-05-02T10:19:23Z</time>
      </trkpt>
      <trkpt lat="42.1365159843117" lon="-7.581769041717053">
        <ele>948.48000000000002</ele>
        <time>2025-05-02T10:19:24Z</time>
      </trkpt>
      <trkpt lat="42.136378018185496" lon="-7.581855040043593">
        <ele>949.44000000000005</ele>
        <time>2025-05-02T10:19:25Z</time>
      </trkpt>
      <trkpt lat="42.136232005432248" lon="-7.581898039206862">
        <ele>950.39999999999998</ele>
        <time>2025-05-02T10:19:26Z</time>
      </trkpt>
      <trkpt lat="42.136083981022239" lon="-7.581898039206862">
        <ele>951.84000000000003</ele>
        <time>2025-05-02T10:19:27Z</time>
      </trkpt>
      <trkpt lat="42.135941991582513" lon="-7.581835007295013">
        <ele>952.32000000000005</ele>
        <time>2025-05-02T10:19:28Z</time>
      </trkpt>
      <trkpt lat="42.13580503128469" lon="-7.581735011190176">
        <ele>953.27999999999997</ele>
        <time>2025-05-02T10:19:29Z</time>
      </trkpt>
      <trkpt lat="42.135386019945145" lon="-7.581426976248622">
        <ele>956.64999999999998</ele>
        <time>2025-05-02T10:19:32Z</time>
      </trkpt>
      <trkpt lat="42.135260039940476" lon="-7.58133402094245">
        <ele>957.61000000000001</ele>
        <time>2025-05-02T10:19:33Z</time>
      </trkpt>
      <trkpt lat="42.135174963623285" lon="-7.581201000139117">
        <ele>958.09000000000003</ele>
        <time>2025-05-02T10:19:34Z</time>
      </trkpt>
      <trkpt lat="42.135118972510099" lon="-7.581043001264334">
        <ele>959.04999999999995</ele>
        <time>2025-05-02T10:19:35Z</time>
      </trkpt>
      <trkpt lat="42.135063987225294" lon="-7.580886008217931">
        <ele>959.52999999999997</ele>
        <time>2025-05-02T10:19:36Z</time>
      </trkpt>
      <trkpt lat="42.134949993342161" lon="-7.580561963841319">
        <ele>960.49000000000001</ele>
        <time>2025-05-02T10:19:38Z</time>
      </trkpt>
      <trkpt lat="42.134857960045338" lon="-7.58043497800827">
        <ele>961.46000000000004</ele>
        <time>2025-05-02T10:19:39Z</time>
      </trkpt>
      <trkpt lat="42.134733991697431" lon="-7.580316960811615">
        <ele>961.94000000000005</ele>
        <time>2025-05-02T10:19:40Z</time>
      </trkpt>
      <trkpt lat="42.13460398837924" lon="-7.580192992463708">
        <ele>962.41999999999996</ele>
        <time>2025-05-02T10:19:41Z</time>
      </trkpt>
      <trkpt lat="42.134479014202952" lon="-7.580072963610292">
        <ele>962.89999999999998</ele>
        <time>2025-05-02T10:19:42Z</time>
      </trkpt>
      <trkpt lat="42.134383041411638" lon="-7.579908007755876">
        <ele>962.89999999999998</ele>
        <time>2025-05-02T10:19:43Z</time>
      </trkpt>
      <trkpt lat="42.134290002286434" lon="-7.579747997224331">
        <ele>963.38</ele>
        <time>2025-05-02T10:19:44Z</time>
      </trkpt>
      <trkpt lat="42.134229987859726" lon="-7.579571977257729">
        <ele>963.38</ele>
        <time>2025-05-02T10:19:45Z</time>
      </trkpt>
      <trkpt lat="42.134204003959894" lon="-7.579370979219675">
        <ele>963.86000000000001</ele>
        <time>2025-05-02T10:19:46Z</time>
      </trkpt>
      <trkpt lat="42.134178020060062" lon="-7.579171992838383">
        <ele>964.34000000000003</ele>
        <time>2025-05-02T10:19:47Z</time>
      </trkpt>
      <trkpt lat="42.13419402949512" lon="-7.57895196788013">
        <ele>964.34000000000003</ele>
        <time>2025-05-02T10:19:48Z</time>
      </trkpt>
      <trkpt lat="42.134209033101797" lon="-7.578739989548922">
        <ele>964.82000000000005</ele>
        <time>2025-05-02T10:19:49Z</time>
      </trkpt>
      <trkpt lat="42.134221019223332" lon="-7.578571010380983">
        <ele>964.82000000000005</ele>
        <time>2025-05-02T10:19:50Z</time>
      </trkpt>
      <trkpt lat="42.134305005893111" lon="-7.578433966264129">
        <ele>964.82000000000005</ele>
        <time>2025-05-02T10:19:51Z</time>
      </trkpt>
      <trkpt lat="42.134386980906129" lon="-7.578301029279828">
        <ele>964.34000000000003</ele>
        <time>2025-05-02T10:19:52Z</time>
      </trkpt>
      <trkpt lat="42.134502986446023" lon="-7.578223999589682">
        <ele>964.34000000000003</ele>
        <time>2025-05-02T10:19:53Z</time>
      </trkpt>
      <trkpt lat="42.13464698754251" lon="-7.578133977949619">
        <ele>964.34000000000003</ele>
        <time>2025-05-02T10:19:54Z</time>
      </trkpt>
      <trkpt lat="42.135130036622286" lon="-7.577846981585026">
        <ele>964.34000000000003</ele>
        <time>2025-05-02T10:19:57Z</time>
      </trkpt>
      <trkpt lat="42.135285018011928" lon="-7.577742962166667">
        <ele>964.34000000000003</ele>
        <time>2025-05-02T10:19:58Z</time>
      </trkpt>
      <trkpt lat="42.135413009673357" lon="-7.577614970505238">
        <ele>963.86000000000001</ele>
        <time>2025-05-02T10:19:59Z</time>
      </trkpt>
      <trkpt lat="42.135515017434955" lon="-7.577463006600738">
        <ele>963.86000000000001</ele>
        <time>2025-05-02T10:20:00Z</time>
      </trkpt>
      <trkpt lat="42.135602021589875" lon="-7.577288998290896">
        <ele>963.86000000000001</ele>
        <time>2025-05-02T10:20:01Z</time>
      </trkpt>
      <trkpt lat="42.135652983561158" lon="-7.577099986374378">
        <ele>963.38</ele>
        <time>2025-05-02T10:20:02Z</time>
      </trkpt>
      <trkpt lat="42.13567896746099" lon="-7.576905023306608">
        <ele>963.38</ele>
        <time>2025-05-02T10:20:03Z</time>
      </trkpt>
      <trkpt lat="42.1356560010463" lon="-7.576727997511625">
        <ele>962.89999999999998</ele>
        <time>2025-05-02T10:20:04Z</time>
      </trkpt>
      <trkpt lat="42.135618031024933" lon="-7.576543008908629">
        <ele>962.89999999999998</ele>
        <time>2025-05-02T10:20:05Z</time>
      </trkpt>
      <trkpt lat="42.135550975799561" lon="-7.576361037790775">
        <ele>962.41999999999996</ele>
        <time>2025-05-02T10:20:06Z</time>
      </trkpt>
      <trkpt lat="42.135432958602905" lon="-7.576212007552385">
        <ele>962.41999999999996</ele>
        <time>2025-05-02T10:20:07Z</time>
      </trkpt>
      <trkpt lat="42.135309996083379" lon="-7.576057026162744">
        <ele>962.41999999999996</ele>
        <time>2025-05-02T10:20:08Z</time>
      </trkpt>
      <trkpt lat="42.133676027879119" lon="-7.574112005531788">
        <ele>966.25999999999999</ele>
        <time>2025-05-02T10:20:20Z</time>
      </trkpt>
      <trkpt lat="42.13221799582243" lon="-7.572363959625363">
        <ele>963.86000000000001</ele>
        <time>2025-05-02T10:20:30Z</time>
      </trkpt>
      <trkpt lat="42.132096961140633" lon="-7.572192968800664">
        <ele>963.86000000000001</ele>
        <time>2025-05-02T10:20:31Z</time>
      </trkpt>
      <trkpt lat="42.131348960101604" lon="-7.570425979793072">
        <ele>963.86000000000001</ele>
        <time>2025-05-02T10:20:39Z</time>
      </trkpt>
      <trkpt lat="42.131318030878901" lon="-7.570197992026806">
        <ele>963.86000000000001</ele>
        <time>2025-05-02T10:20:40Z</time>
      </trkpt>
      <trkpt lat="42.131290035322309" lon="-7.569967992603779">
        <ele>963.86000000000001</ele>
        <time>2025-05-02T10:20:41Z</time>
      </trkpt>
      <trkpt lat="42.131121978163719" lon="-7.567603038623929">
        <ele>959.04999999999995</ele>
        <time>2025-05-02T10:20:50Z</time>
      </trkpt>
      <trkpt lat="42.130934977903962" lon="-7.564624026417732">
        <ele>956.16999999999996</ele>
        <time>2025-05-02T10:21:01Z</time>
      </trkpt>
      <trkpt lat="42.13088502176106" lon="-7.564070988446474">
        <ele>955.21000000000004</ele>
        <time>2025-05-02T10:21:03Z</time>
      </trkpt>
      <trkpt lat="42.130313040688634" lon="-7.562270974740386">
        <ele>953.76999999999998</ele>
        <time>2025-05-02T10:21:10Z</time>
      </trkpt>
      <trkpt lat="42.129846001043916" lon="-7.561047971248627">
        <ele>952.32000000000005</ele>
        <time>2025-05-02T10:21:15Z</time>
      </trkpt>
      <trkpt lat="42.129729995504022" lon="-7.560827024281025">
        <ele>952.32000000000005</ele>
        <time>2025-05-02T10:21:16Z</time>
      </trkpt>
      <trkpt lat="42.129600998014212" lon="-7.560622002929449">
        <ele>951.84000000000003</ele>
        <time>2025-05-02T10:21:17Z</time>
      </trkpt>
      <trkpt lat="42.128895996138453" lon="-7.559665963053703">
        <ele>949.91999999999996</ele>
        <time>2025-05-02T10:21:22Z</time>
      </trkpt>
      <trkpt lat="42.128764986991882" lon="-7.559488015249372">
        <ele>949.44000000000005</ele>
        <time>2025-05-02T10:21:23Z</time>
      </trkpt>
      <trkpt lat="42.128657028079033" lon="-7.559277964755893">
        <ele>948.48000000000002</ele>
        <time>2025-05-02T10:21:24Z</time>
      </trkpt>
      <trkpt lat="42.128567006438971" lon="-7.559036985039711">
        <ele>947.51999999999998</ele>
        <time>2025-05-02T10:21:25Z</time>
      </trkpt>
      <trkpt lat="42.128474973142147" lon="-7.558791982010007">
        <ele>946.07000000000005</ele>
        <time>2025-05-02T10:21:26Z</time>
      </trkpt>
      <trkpt lat="42.127566039562225" lon="-7.55634798668325">
        <ele>934.53999999999996</ele>
        <time>2025-05-02T10:21:35Z</time>
      </trkpt>
      <trkpt lat="42.127479035407305" lon="-7.55613399669528">
        <ele>932.62</ele>
        <time>2025-05-02T10:21:37Z</time>
      </trkpt>
      <trkpt lat="42.127397982403636" lon="-7.555932998657227">
        <ele>931.64999999999998</ele>
        <time>2025-05-02T10:21:38Z</time>
      </trkpt>
      <trkpt lat="42.127143004909158" lon="-7.55563703365624">
        <ele>929.73000000000002</ele>
        <time>2025-05-02T10:21:40Z</time>
      </trkpt>
      <trkpt lat="42.125740963965654" lon="-7.554060984402895">
        <ele>923</ele>
        <time>2025-05-02T10:21:49Z</time>
      </trkpt>
      <trkpt lat="42.12448401376605" lon="-7.552892966195941">
        <ele>916.26999999999998</ele>
        <time>2025-05-02T10:21:57Z</time>
      </trkpt>
      <trkpt lat="42.123720003291965" lon="-7.552293995395303">
        <ele>907.62</ele>
        <time>2025-05-02T10:22:03Z</time>
      </trkpt>
      <trkpt lat="42.123249024152756" lon="-7.55194497294724">
        <ele>903.29999999999995</ele>
        <time>2025-05-02T10:22:08Z</time>
      </trkpt>
      <trkpt lat="42.12297803722322" lon="-7.55168697796762">
        <ele>901.85000000000002</ele>
        <time>2025-05-02T10:22:11Z</time>
      </trkpt>
      <trkpt lat="42.122692968696356" lon="-7.551352037116885">
        <ele>899.45000000000005</ele>
        <time>2025-05-02T10:22:15Z</time>
      </trkpt>
      <trkpt lat="42.122600013390183" lon="-7.551240976899862">
        <ele>898.49000000000001</ele>
        <time>2025-05-02T10:22:16Z</time>
      </trkpt>
      <trkpt lat="42.122504962608218" lon="-7.551126983016729">
        <ele>898.00999999999999</ele>
        <time>2025-05-02T10:22:17Z</time>
      </trkpt>
      <trkpt lat="42.122391974553466" lon="-7.551066968590021">
        <ele>897.52999999999997</ele>
        <time>2025-05-02T10:22:18Z</time>
      </trkpt>
      <trkpt lat="42.122157029807568" lon="-7.550943000242114">
        <ele>897.04999999999995</ele>
        <time>2025-05-02T10:22:19Z</time>
      </trkpt>
      <trkpt lat="42.12108900770545" lon="-7.550504039973021">
        <ele>894.63999999999999</ele>
        <time>2025-05-02T10:22:28Z</time>
      </trkpt>
      <trkpt lat="42.119568027555943" lon="-7.549828039482236">
        <ele>894.15999999999997</ele>
        <time>2025-05-02T10:22:37Z</time>
      </trkpt>
      <trkpt lat="42.118358016014099" lon="-7.54927801899612">
        <ele>893.67999999999995</ele>
        <time>2025-05-02T10:22:44Z</time>
      </trkpt>
      <trkpt lat="42.118218960240483" lon="-7.549178022891283">
        <ele>893.20000000000005</ele>
        <time>2025-05-02T10:22:45Z</time>
      </trkpt>
      <trkpt lat="42.117526028305292" lon="-7.548088040202856">
        <ele>892.72000000000003</ele>
        <time>2025-05-02T10:22:51Z</time>
      </trkpt>
      <trkpt lat="42.117405999451876" lon="-7.547891987487674">
        <ele>893.20000000000005</ele>
        <time>2025-05-02T10:22:52Z</time>
      </trkpt>
      <trkpt lat="42.116182995960116" lon="-7.545844037085772">
        <ele>897.52999999999997</ele>
        <time>2025-05-02T10:23:02Z</time>
      </trkpt>
      <trkpt lat="42.114896960556507" lon="-7.543591987341642">
        <ele>910.02999999999997</ele>
        <time>2025-05-02T10:23:13Z</time>
      </trkpt>
      <trkpt lat="42.114172009751201" lon="-7.542077964171767">
        <ele>915.30999999999995</ele>
        <time>2025-05-02T10:23:20Z</time>
      </trkpt>
      <trkpt lat="42.114073019474745" lon="-7.541894987225533">
        <ele>915.30999999999995</ele>
        <time>2025-05-02T10:23:21Z</time>
      </trkpt>
      <trkpt lat="42.11395500227809" lon="-7.541750986129046">
        <ele>915.30999999999995</ele>
        <time>2025-05-02T10:23:22Z</time>
      </trkpt>
      <trkpt lat="42.113815024495125" lon="-7.541633974760771">
        <ele>914.83000000000004</ele>
        <time>2025-05-02T10:23:23Z</time>
      </trkpt>
      <trkpt lat="42.113660965114832" lon="-7.541548982262611">
        <ele>914.83000000000004</ele>
        <time>2025-05-02T10:23:24Z</time>
      </trkpt>
      <trkpt lat="42.113501038402319" lon="-7.541501959785819">
        <ele>914.35000000000002</ele>
        <time>2025-05-02T10:23:25Z</time>
      </trkpt>
      <trkpt lat="42.113335998728871" lon="-7.541454015299678">
        <ele>913.87</ele>
        <time>2025-05-02T10:23:26Z</time>
      </trkpt>
      <trkpt lat="42.113172970712185" lon="-7.54139400087297">
        <ele>913.38999999999999</ele>
        <time>2025-05-02T10:23:27Z</time>
      </trkpt>
      <trkpt lat="42.113004997372627" lon="-7.54133096896112">
        <ele>912.42999999999995</ele>
        <time>2025-05-02T10:23:28Z</time>
      </trkpt>
      <trkpt lat="42.112854039296508" lon="-7.541214963421226">
        <ele>911.95000000000005</ele>
        <time>2025-05-02T10:23:29Z</time>
      </trkpt>
      <trkpt lat="42.112701991572976" lon="-7.541085965931416">
        <ele>911.47000000000003</ele>
        <time>2025-05-02T10:23:30Z</time>
      </trkpt>
      <trkpt lat="42.112552039325237" lon="-7.540957974269986">
        <ele>910.50999999999999</ele>
        <time>2025-05-02T10:23:31Z</time>
      </trkpt>
      <trkpt lat="42.112441984936595" lon="-7.54077298566699">
        <ele>910.02999999999997</ele>
        <time>2025-05-02T10:23:32Z</time>
      </trkpt>
      <trkpt lat="42.112330002710223" lon="-7.540580034255981">
        <ele>909.05999999999995</ele>
        <time>2025-05-02T10:23:33Z</time>
      </trkpt>
      <trkpt lat="42.112006964161992" lon="-7.540028002113104">
        <ele>906.17999999999995</ele>
        <time>2025-05-02T10:23:36Z</time>
      </trkpt>
      <trkpt lat="42.111896993592381" lon="-7.539867991581559">
        <ele>905.22000000000003</ele>
        <time>2025-05-02T10:23:37Z</time>
      </trkpt>
      <trkpt lat="42.111774031072855" lon="-7.539743017405272">
        <ele>904.25999999999999</ele>
        <time>2025-05-02T10:23:38Z</time>
      </trkpt>
      <trkpt lat="42.111631035804749" lon="-7.539678979665041">
        <ele>903.29999999999995</ele>
        <time>2025-05-02T10:23:39Z</time>
      </trkpt>
      <trkpt lat="42.111473958939314" lon="-7.539608990773559">
        <ele>902.33000000000004</ele>
        <time>2025-05-02T10:23:40Z</time>
      </trkpt>
      <trkpt lat="42.110080970451236" lon="-7.538982024416328">
        <ele>897.04999999999995</ele>
        <time>2025-05-02T10:23:48Z</time>
      </trkpt>
      <trkpt lat="42.109921965748072" lon="-7.538879010826349">
        <ele>896.57000000000005</ele>
        <time>2025-05-02T10:23:49Z</time>
      </trkpt>
      <trkpt lat="42.109768996015191" lon="-7.538777003064752">
        <ele>895.61000000000001</ele>
        <time>2025-05-02T10:23:50Z</time>
      </trkpt>
      <trkpt lat="42.108143996447325" lon="-7.537031974643469">
        <ele>890.32000000000005</ele>
        <time>2025-05-02T10:24:01Z</time>
      </trkpt>
      <trkpt lat="42.107757003977895" lon="-7.536606006324291">
        <ele>888.88</ele>
        <time>2025-05-02T10:24:04Z</time>
      </trkpt>
      <trkpt lat="42.107656002044678" lon="-7.536492012441158">
        <ele>888.88</ele>
        <time>2025-05-02T10:24:05Z</time>
      </trkpt>
      <trkpt lat="42.107607973739505" lon="-7.536347005516291">
        <ele>888.39999999999998</ele>
        <time>2025-05-02T10:24:06Z</time>
      </trkpt>
      <trkpt lat="42.107571009546518" lon="-7.536235023289919">
        <ele>887.90999999999997</ele>
        <time>2025-05-02T10:24:07Z</time>
      </trkpt>
      <trkpt lat="42.107613002881408" lon="-7.53610703162849">
        <ele>886.95000000000005</ele>
        <time>2025-05-02T10:24:08Z</time>
      </trkpt>
      <trkpt lat="42.107656002044678" lon="-7.535977028310299">
        <ele>886.47000000000003</ele>
        <time>2025-05-02T10:24:09Z</time>
      </trkpt>
      <trkpt lat="42.107737977057695" lon="-7.53589597530663">
        <ele>885.99000000000001</ele>
        <time>2025-05-02T10:24:10Z</time>
      </trkpt>
      <trkpt lat="42.107845013961196" lon="-7.535819029435515">
        <ele>885.50999999999999</ele>
        <time>2025-05-02T10:24:11Z</time>
      </trkpt>
      <trkpt lat="42.108279028907418" lon="-7.535602021962404">
        <ele>884.54999999999995</ele>
        <time>2025-05-02T10:24:14Z</time>
      </trkpt>
      <trkpt lat="42.108444990590215" lon="-7.535481993108988">
        <ele>884.07000000000005</ele>
        <time>2025-05-02T10:24:15Z</time>
      </trkpt>
      <trkpt lat="42.108764005824924" lon="-7.53520698286593">
        <ele>884.07000000000005</ele>
        <time>2025-05-02T10:24:17Z</time>
      </trkpt>
      <trkpt lat="42.108916975557804" lon="-7.535074967890978">
        <ele>883.59000000000003</ele>
        <time>2025-05-02T10:24:18Z</time>
      </trkpt>
      <trkpt lat="42.109085032716393" lon="-7.535001961514354">
        <ele>883.59000000000003</ele>
        <time>2025-05-02T10:24:19Z</time>
      </trkpt>
      <trkpt lat="42.109263986349106" lon="-7.534956028684974">
        <ele>883.59000000000003</ele>
        <time>2025-05-02T10:24:20Z</time>
      </trkpt>
      <trkpt lat="42.109436988830566" lon="-7.534912023693323">
        <ele>883.59000000000003</ele>
        <time>2025-05-02T10:24:21Z</time>
      </trkpt>
      <trkpt lat="42.109898999333382" lon="-7.53479802981019">
        <ele>883.11000000000001</ele>
        <time>2025-05-02T10:24:24Z</time>
      </trkpt>
      <trkpt lat="42.110022967681289" lon="-7.534768022596836">
        <ele>882.63</ele>
        <time>2025-05-02T10:24:25Z</time>
      </trkpt>
      <trkpt lat="42.11013101041317" lon="-7.534687975421548">
        <ele>882.14999999999998</ele>
        <time>2025-05-02T10:24:26Z</time>
      </trkpt>
      <trkpt lat="42.110195970162749" lon="-7.534601977095008">
        <ele>881.66999999999996</ele>
        <time>2025-05-02T10:24:27Z</time>
      </trkpt>
      <trkpt lat="42.110187001526356" lon="-7.534468034282327">
        <ele>881.19000000000005</ele>
        <time>2025-05-02T10:24:28Z</time>
      </trkpt>
      <trkpt lat="42.110163029283285" lon="-7.53434699960053">
        <ele>880.71000000000004</ele>
        <time>2025-05-02T10:24:29Z</time>
      </trkpt>
      <trkpt lat="42.110120030120015" lon="-7.534223031252623">
        <ele>879.74000000000001</ele>
        <time>2025-05-02T10:24:30Z</time>
      </trkpt>
      <trkpt lat="42.110033025965095" lon="-7.534095961600542">
        <ele>878.77999999999997</ele>
        <time>2025-05-02T10:24:31Z</time>
      </trkpt>
      <trkpt lat="42.109716022387147" lon="-7.533630011603236">
        <ele>875.41999999999996</ele>
        <time>2025-05-02T10:24:34Z</time>
      </trkpt>
      <trkpt lat="42.109490968286991" lon="-7.533300016075373">
        <ele>872.52999999999997</ele>
        <time>2025-05-02T10:24:36Z</time>
      </trkpt>
      <trkpt lat="42.10935702547431" lon="-7.53318996168673">
        <ele>870.61000000000001</ele>
        <time>2025-05-02T10:24:37Z</time>
      </trkpt>
      <trkpt lat="42.109215036034584" lon="-7.533103041350842">
        <ele>869.16999999999996</ele>
        <time>2025-05-02T10:24:38Z</time>
      </trkpt>
      <trkpt lat="42.109082015231252" lon="-7.533019976690412">
        <ele>867.73000000000002</ele>
        <time>2025-05-02T10:24:39Z</time>
      </trkpt>
      <trkpt lat="42.108955029398203" lon="-7.532942024990916">
        <ele>866.28999999999996</ele>
        <time>2025-05-02T10:24:40Z</time>
      </trkpt>
      <trkpt lat="42.108862996101379" lon="-7.532829036936164">
        <ele>864.84000000000003</ele>
        <time>2025-05-02T10:24:41Z</time>
      </trkpt>
      <trkpt lat="42.108644982799888" lon="-7.532365014776588">
        <ele>860.51999999999998</ele>
        <time>2025-05-02T10:24:44Z</time>
      </trkpt>
      <trkpt lat="42.108566025272012" lon="-7.532197963446379">
        <ele>859.08000000000004</ele>
        <time>2025-05-02T10:24:45Z</time>
      </trkpt>
      <trkpt lat="42.108444990590215" lon="-7.532079024240375">
        <ele>857.63</ele>
        <time>2025-05-02T10:24:46Z</time>
      </trkpt>
      <trkpt lat="42.108313981443644" lon="-7.5319620128721">
        <ele>855.71000000000004</ele>
        <time>2025-05-02T10:24:47Z</time>
      </trkpt>
      <trkpt lat="42.108189007267356" lon="-7.531850030645728">
        <ele>854.26999999999998</ele>
        <time>2025-05-02T10:24:48Z</time>
      </trkpt>
      <trkpt lat="42.108040982857347" lon="-7.531791022047401">
        <ele>852.83000000000004</ele>
        <time>2025-05-02T10:24:49Z</time>
      </trkpt>
      <trkpt lat="42.107878038659692" lon="-7.531755985692143">
        <ele>851.38</ele>
        <time>2025-05-02T10:24:50Z</time>
      </trkpt>
      <trkpt lat="42.107718028128147" lon="-7.531721033155918">
        <ele>849.46000000000004</ele>
        <time>2025-05-02T10:24:51Z</time>
      </trkpt>
      <trkpt lat="42.107562040910125" lon="-7.531742993742228">
        <ele>848.01999999999998</ele>
        <time>2025-05-02T10:24:52Z</time>
      </trkpt>
      <trkpt lat="42.107428014278412" lon="-7.531813988462091">
        <ele>846.58000000000004</ele>
        <time>2025-05-02T10:24:53Z</time>
      </trkpt>
      <trkpt lat="42.107301028445363" lon="-7.531909961253405">
        <ele>845.13999999999999</ele>
        <time>2025-05-02T10:24:54Z</time>
      </trkpt>
      <trkpt lat="42.106697028502822" lon="-7.532165022566915">
        <ele>839.37</ele>
        <time>2025-05-02T10:24:58Z</time>
      </trkpt>
      <trkpt lat="42.106555961072445" lon="-7.532191006466746">
        <ele>838.40999999999997</ele>
        <time>2025-05-02T10:24:59Z</time>
      </trkpt>
      <trkpt lat="42.106427969411016" lon="-7.532184971496463">
        <ele>837.45000000000005</ele>
        <time>2025-05-02T10:25:00Z</time>
      </trkpt>
      <trkpt lat="42.10630601271987" lon="-7.532143983989954">
        <ele>836.48000000000002</ele>
        <time>2025-05-02T10:25:01Z</time>
      </trkpt>
      <trkpt lat="42.10620098747313" lon="-7.532038958743215">
        <ele>835.51999999999998</ele>
        <time>2025-05-02T10:25:02Z</time>
      </trkpt>
      <trkpt lat="42.105741994455457" lon="-7.531490027904511">
        <ele>831.20000000000005</ele>
        <time>2025-05-02T10:25:06Z</time>
      </trkpt>
      <trkpt lat="42.10561802610755" lon="-7.531343009322882">
        <ele>829.75999999999999</ele>
        <time>2025-05-02T10:25:07Z</time>
      </trkpt>
      <trkpt lat="42.10542700253427" lon="-7.53101896494627">
        <ele>828.78999999999996</ele>
        <time>2025-05-02T10:25:08Z</time>
      </trkpt>
      <trkpt lat="42.105235978960991" lon="-7.530693998560309">
        <ele>824.47000000000003</ele>
        <time>2025-05-02T10:25:11Z</time>
      </trkpt>
      <trkpt lat="42.105128020048141" lon="-7.530559971928597">
        <ele>823.50999999999999</ele>
        <time>2025-05-02T10:25:12Z</time>
      </trkpt>
      <trkpt lat="42.104988964274526" lon="-7.530448995530605">
        <ele>821.58000000000004</ele>
        <time>2025-05-02T10:25:13Z</time>
      </trkpt>
      <trkpt lat="42.104829959571362" lon="-7.530369032174349">
        <ele>820.13999999999999</ele>
        <time>2025-05-02T10:25:14Z</time>
      </trkpt>
      <trkpt lat="42.104677995666862" lon="-7.530293008312583">
        <ele>818.70000000000005</ele>
        <time>2025-05-02T10:25:15Z</time>
      </trkpt>
      <trkpt lat="42.104541035369039" lon="-7.530225031077862">
        <ele>817.25999999999999</ele>
        <time>2025-05-02T10:25:16Z</time>
      </trkpt>
      <trkpt lat="42.104413965716958" lon="-7.530134003609419">
        <ele>816.29999999999995</ele>
        <time>2025-05-02T10:25:17Z</time>
      </trkpt>
      <trkpt lat="42.104297038167715" lon="-7.53000601194799">
        <ele>814.85000000000002</ele>
        <time>2025-05-02T10:25:18Z</time>
      </trkpt>
      <trkpt lat="42.104170974344015" lon="-7.529867962002754">
        <ele>813.40999999999997</ele>
        <time>2025-05-02T10:25:19Z</time>
      </trkpt>
      <trkpt lat="42.104039965197444" lon="-7.529723960906267">
        <ele>811.97000000000003</ele>
        <time>2025-05-02T10:25:20Z</time>
      </trkpt>
      <trkpt lat="42.103886995464563" lon="-7.529637040570378">
        <ele>810.04999999999995</ele>
        <time>2025-05-02T10:25:21Z</time>
      </trkpt>
      <trkpt lat="42.103731008246541" lon="-7.529567973688245">
        <ele>809.09000000000003</ele>
        <time>2025-05-02T10:25:22Z</time>
      </trkpt>
      <trkpt lat="42.10357803851366" lon="-7.529501002281904">
        <ele>807.63999999999999</ele>
        <time>2025-05-02T10:25:23Z</time>
      </trkpt>
      <trkpt lat="42.103434959426522" lon="-7.529406035318971">
        <ele>806.20000000000005</ele>
        <time>2025-05-02T10:25:24Z</time>
      </trkpt>
      <trkpt lat="42.103319959715009" lon="-7.529258010908961">
        <ele>804.75999999999999</ele>
        <time>2025-05-02T10:25:25Z</time>
      </trkpt>
      <trkpt lat="42.102951994165778" lon="-7.528786025941372">
        <ele>800.44000000000005</ele>
        <time>2025-05-02T10:25:28Z</time>
      </trkpt>
      <trkpt lat="42.102673966437578" lon="-7.528497017920017">
        <ele>798.02999999999997</ele>
        <time>2025-05-02T10:25:30Z</time>
      </trkpt>
      <trkpt lat="42.102537006139755" lon="-7.528369026258588">
        <ele>797.07000000000005</ele>
        <time>2025-05-02T10:25:31Z</time>
      </trkpt>
      <trkpt lat="42.102413037791848" lon="-7.528253020718694">
        <ele>795.14999999999998</ele>
        <time>2025-05-02T10:25:32Z</time>
      </trkpt>
      <trkpt lat="42.102302983403206" lon="-7.528150007128716">
        <ele>793.71000000000004</ele>
        <time>2025-05-02T10:25:33Z</time>
      </trkpt>
      <trkpt lat="42.102187983691692" lon="-7.528059985488653">
        <ele>792.25999999999999</ele>
        <time>2025-05-02T10:25:34Z</time>
      </trkpt>
      <trkpt lat="42.102078013122082" lon="-7.528059985488653">
        <ele>790.82000000000005</ele>
        <time>2025-05-02T10:25:35Z</time>
      </trkpt>
      <trkpt lat="42.10196896456182" lon="-7.528100972995162">
        <ele>788.89999999999998</ele>
        <time>2025-05-02T10:25:36Z</time>
      </trkpt>
      <trkpt lat="42.101862011477351" lon="-7.528167022392154">
        <ele>787.46000000000004</ele>
        <time>2025-05-02T10:25:37Z</time>
      </trkpt>
      <trkpt lat="42.101742988452315" lon="-7.528242040425539">
        <ele>786.01999999999998</ele>
        <time>2025-05-02T10:25:38Z</time>
      </trkpt>
      <trkpt lat="42.101611979305744" lon="-7.528324015438557">
        <ele>784.09000000000003</ele>
        <time>2025-05-02T10:25:39Z</time>
      </trkpt>
      <trkpt lat="42.101477030664682" lon="-7.528408002108336">
        <ele>782.64999999999998</ele>
        <time>2025-05-02T10:25:40Z</time>
      </trkpt>
      <trkpt lat="42.101348033174872" lon="-7.528488971292973">
        <ele>781.69000000000005</ele>
        <time>2025-05-02T10:25:41Z</time>
      </trkpt>
      <trkpt lat="42.100990964099765" lon="-7.52893497236073">
        <ele>777.36000000000001</ele>
        <time>2025-05-02T10:25:44Z</time>
      </trkpt>
      <trkpt lat="42.100514033809304" lon="-7.529422966763377">
        <ele>771.60000000000002</ele>
        <time>2025-05-02T10:25:48Z</time>
      </trkpt>
      <trkpt lat="42.100410014390945" lon="-7.529519023373723">
        <ele>770.63</ele>
        <time>2025-05-02T10:25:49Z</time>
      </trkpt>
      <trkpt lat="42.10031102411449" lon="-7.529588006436825">
        <ele>769.66999999999996</ele>
        <time>2025-05-02T10:25:50Z</time>
      </trkpt>
      <trkpt lat="42.100203987210989" lon="-7.529602004215121">
        <ele>769.19000000000005</ele>
        <time>2025-05-02T10:25:51Z</time>
      </trkpt>
      <trkpt lat="42.100107008591294" lon="-7.529560010880232">
        <ele>768.71000000000004</ele>
        <time>2025-05-02T10:25:52Z</time>
      </trkpt>
      <trkpt lat="42.100023021921515" lon="-7.529450040310621">
        <ele>768.23000000000002</ele>
        <time>2025-05-02T10:25:53Z</time>
      </trkpt>
      <trkpt lat="42.09996803663671" lon="-7.529315007850528">
        <ele>768.23000000000002</ele>
        <time>2025-05-02T10:25:54Z</time>
      </trkpt>
      <trkpt lat="42.099853036925197" lon="-7.528964979574084">
        <ele>766.78999999999996</ele>
        <time>2025-05-02T10:25:56Z</time>
      </trkpt>
      <trkpt lat="42.099477024748921" lon="-7.527673998847604">
        <ele>762.94000000000005</ele>
        <time>2025-05-02T10:26:02Z</time>
      </trkpt>
      <trkpt lat="42.099406030029058" lon="-7.527459003031254">
        <ele>761.98000000000002</ele>
        <time>2025-05-02T10:26:03Z</time>
      </trkpt>
      <trkpt lat="42.099307961761951" lon="-7.527264039963484">
        <ele>761.01999999999998</ele>
        <time>2025-05-02T10:26:04Z</time>
      </trkpt>
      <trkpt lat="42.099211988970637" lon="-7.527071004733443">
        <ele>760.05999999999995</ele>
        <time>2025-05-02T10:26:05Z</time>
      </trkpt>
      <trkpt lat="42.099137976765633" lon="-7.526921974495053">
        <ele>759.58000000000004</ele>
        <time>2025-05-02T10:26:06Z</time>
      </trkpt>
      <trkpt lat="42.098976960405707" lon="-7.526736985892057">
        <ele>759.10000000000002</ele>
        <time>2025-05-02T10:26:07Z</time>
      </trkpt>
      <trkpt lat="42.098845029249787" lon="-7.526585021987557">
        <ele>758.62</ele>
        <time>2025-05-02T10:26:08Z</time>
      </trkpt>
      <trkpt lat="42.098726006224751" lon="-7.526447977870703">
        <ele>758.13999999999999</ele>
        <time>2025-05-02T10:26:09Z</time>
      </trkpt>
      <trkpt lat="42.09861796349287" lon="-7.526323003694415">
        <ele>757.17999999999995</ele>
        <time>2025-05-02T10:26:10Z</time>
      </trkpt>
      <trkpt lat="42.098546968773007" lon="-7.526158969849348">
        <ele>756.69000000000005</ele>
        <time>2025-05-02T10:26:11Z</time>
      </trkpt>
      <trkpt lat="42.09844596683979" lon="-7.525785975158215">
        <ele>756.21000000000004</ele>
        <time>2025-05-02T10:26:12Z</time>
      </trkpt>
      <trkpt lat="42.09844596683979" lon="-7.525785975158215">
        <ele>755.25</ele>
        <time>2025-05-02T10:26:13Z</time>
      </trkpt>
      <trkpt lat="42.098392993211746" lon="-7.525594029575586">
        <ele>754.76999999999998</ele>
        <time>2025-05-02T10:26:14Z</time>
      </trkpt>
      <trkpt lat="42.098340019583702" lon="-7.525396971032023">
        <ele>753.80999999999995</ele>
        <time>2025-05-02T10:26:15Z</time>
      </trkpt>
      <trkpt lat="42.098262989893556" lon="-7.525221034884453">
        <ele>753.33000000000004</ele>
        <time>2025-05-02T10:26:16Z</time>
      </trkpt>
      <trkpt lat="42.098166011273861" lon="-7.525037974119186">
        <ele>752.85000000000002</ele>
        <time>2025-05-02T10:26:17Z</time>
      </trkpt>
      <trkpt lat="42.098053023219109" lon="-7.524877963587642">
        <ele>751.88999999999999</ele>
        <time>2025-05-02T10:26:18Z</time>
      </trkpt>
      <trkpt lat="42.097914973273873" lon="-7.524755001068115">
        <ele>751.40999999999997</ele>
        <time>2025-05-02T10:26:19Z</time>
      </trkpt>
      <trkpt lat="42.09775697439909" lon="-7.524675959721208">
        <ele>750.45000000000005</ele>
        <time>2025-05-02T10:26:20Z</time>
      </trkpt>
      <trkpt lat="42.097593024373055" lon="-7.524602031335235">
        <ele>749.49000000000001</ele>
        <time>2025-05-02T10:26:21Z</time>
      </trkpt>
      <trkpt lat="42.096905959770083" lon="-7.524498011916876">
        <ele>745.63999999999999</ele>
        <time>2025-05-02T10:26:25Z</time>
      </trkpt>
      <trkpt lat="42.096756007522345" lon="-7.524403966963291">
        <ele>744.20000000000005</ele>
        <time>2025-05-02T10:26:26Z</time>
      </trkpt>
      <trkpt lat="42.096634972840548" lon="-7.524278992787004">
        <ele>743.24000000000001</ele>
        <time>2025-05-02T10:26:27Z</time>
      </trkpt>
      <trkpt lat="42.096514021977782" lon="-7.524143038317561">
        <ele>742.27999999999997</ele>
        <time>2025-05-02T10:26:28Z</time>
      </trkpt>
      <trkpt lat="42.096390975639224" lon="-7.524003982543945">
        <ele>741.30999999999995</ele>
        <time>2025-05-02T10:26:29Z</time>
      </trkpt>
      <trkpt lat="42.09625200368464" lon="-7.523937011137605">
        <ele>740.35000000000002</ele>
        <time>2025-05-02T10:26:30Z</time>
      </trkpt>
      <trkpt lat="42.096113031730056" lon="-7.523870039731264">
        <ele>738.90999999999997</ele>
        <time>2025-05-02T10:26:31Z</time>
      </trkpt>
      <trkpt lat="42.095974981784821" lon="-7.523802984505892">
        <ele>737.95000000000005</ele>
        <time>2025-05-02T10:26:32Z</time>
      </trkpt>
      <trkpt lat="42.095840033143759" lon="-7.523738024756312">
        <ele>736.99000000000001</ele>
        <time>2025-05-02T10:26:33Z</time>
      </trkpt>
      <trkpt lat="42.095730984583497" lon="-7.523651020601392">
        <ele>736.02999999999997</ele>
        <time>2025-05-02T10:26:34Z</time>
      </trkpt>
      <trkpt lat="42.095662001520395" lon="-7.523553036153317">
        <ele>735.07000000000005</ele>
        <time>2025-05-02T10:26:35Z</time>
      </trkpt>
      <trkpt lat="42.095613973215222" lon="-7.523405011743307">
        <ele>734.10000000000002</ele>
        <time>2025-05-02T10:26:36Z</time>
      </trkpt>
      <trkpt lat="42.095574997365475" lon="-7.523281965404749">
        <ele>733.13999999999999</ele>
        <time>2025-05-02T10:26:37Z</time>
      </trkpt>
      <trkpt lat="42.095475001260638" lon="-7.522973008453846">
        <ele>730.25999999999999</ele>
        <time>2025-05-02T10:26:40Z</time>
      </trkpt>
      <trkpt lat="42.095410041511059" lon="-7.522780979052186">
        <ele>725.92999999999995</ele>
        <time>2025-05-02T10:26:46Z</time>
      </trkpt>
      <trkpt lat="42.095410041511059" lon="-7.522780979052186">
        <ele>723.52999999999997</ele>
        <time>2025-05-02T10:26:55Z</time>
      </trkpt>
      <trkpt lat="42.09541498683393" lon="-7.522794976830483">
        <ele>723.04999999999995</ele>
        <time>2025-05-02T10:27:11Z</time>
      </trkpt>
      <trkpt lat="42.09541498683393" lon="-7.522734040394425">
        <ele>726.40999999999997</ele>
        <time>2025-05-02T10:41:12Z</time>
      </trkpt>
      <trkpt lat="42.095358995720744" lon="-7.5227440148592">
        <ele>729.29999999999995</ele>
        <time>2025-05-02T10:41:20Z</time>
      </trkpt>
      <trkpt lat="42.095331000164151" lon="-7.522710990160704">
        <ele>729.77999999999997</ele>
        <time>2025-05-02T10:41:21Z</time>
      </trkpt>
      <trkpt lat="42.095289006829262" lon="-7.522662039846182">
        <ele>729.77999999999997</ele>
        <time>2025-05-02T10:41:22Z</time>
      </trkpt>
      <trkpt lat="42.095313984900713" lon="-7.522506974637508">
        <ele>729.77999999999997</ele>
        <time>2025-05-02T10:41:23Z</time>
      </trkpt>
      <trkpt lat="42.095279032364488" lon="-7.522407984361053">
        <ele>729.29999999999995</ele>
        <time>2025-05-02T10:41:24Z</time>
      </trkpt>
      <trkpt lat="42.095102006569505" lon="-7.521995007991791">
        <ele>728.34000000000003</ele>
        <time>2025-05-02T10:41:28Z</time>
      </trkpt>
      <trkpt lat="42.095036963000894" lon="-7.521900041028857">
        <ele>727.37</ele>
        <time>2025-05-02T10:41:29Z</time>
      </trkpt>
      <trkpt lat="42.094959011301398" lon="-7.521834997460246">
        <ele>725.92999999999995</ele>
        <time>2025-05-02T10:41:30Z</time>
      </trkpt>
      <trkpt lat="42.094847029075027" lon="-7.521818988025188">
        <ele>724.49000000000001</ele>
        <time>2025-05-02T10:41:31Z</time>
      </trkpt>
      <trkpt lat="42.094759019091725" lon="-7.521855030208826">
        <ele>723.04999999999995</ele>
        <time>2025-05-02T10:41:32Z</time>
      </trkpt>
      <trkpt lat="42.09466296248138" lon="-7.521909009665251">
        <ele>722.09000000000003</ele>
        <time>2025-05-02T10:41:33Z</time>
      </trkpt>
      <trkpt lat="42.09457796998322" lon="-7.521986039355397">
        <ele>720.64999999999998</ele>
        <time>2025-05-02T10:41:34Z</time>
      </trkpt>
      <trkpt lat="42.0944909658283" lon="-7.522064996883273">
        <ele>719.20000000000005</ele>
        <time>2025-05-02T10:41:35Z</time>
      </trkpt>
      <trkpt lat="42.094389963895082" lon="-7.522113025188446">
        <ele>717.75999999999999</ele>
        <time>2025-05-02T10:41:36Z</time>
      </trkpt>
      <trkpt lat="42.094277981668711" lon="-7.522159041836858">
        <ele>716.79999999999995</ele>
        <time>2025-05-02T10:41:37Z</time>
      </trkpt>
      <trkpt lat="42.094143033027649" lon="-7.522159041836858">
        <ele>715.84000000000003</ele>
        <time>2025-05-02T10:41:38Z</time>
      </trkpt>
      <trkpt lat="42.094001965597272" lon="-7.522134985774756">
        <ele>714.88</ele>
        <time>2025-05-02T10:41:39Z</time>
      </trkpt>
      <trkpt lat="42.093855030834675" lon="-7.52209902741015">
        <ele>713.91999999999996</ele>
        <time>2025-05-02T10:41:40Z</time>
      </trkpt>
      <trkpt lat="42.093711029738188" lon="-7.522062985226512">
        <ele>712.95000000000005</ele>
        <time>2025-05-02T10:41:41Z</time>
      </trkpt>
      <trkpt lat="42.093574991449714" lon="-7.522029038518667">
        <ele>711.99000000000001</ele>
        <time>2025-05-02T10:41:42Z</time>
      </trkpt>
      <trkpt lat="42.093451023101807" lon="-7.522018980234861">
        <ele>711.02999999999997</ele>
        <time>2025-05-02T10:41:43Z</time>
      </trkpt>
      <trkpt lat="42.093328982591629" lon="-7.522047981619835">
        <ele>710.07000000000005</ele>
        <time>2025-05-02T10:41:44Z</time>
      </trkpt>
      <trkpt lat="42.093089008703828" lon="-7.522104978561401">
        <ele>708.63</ele>
        <time>2025-05-02T10:41:46Z</time>
      </trkpt>
      <trkpt lat="42.092997981235385" lon="-7.52208000048995">
        <ele>707.66999999999996</ele>
        <time>2025-05-02T10:41:47Z</time>
      </trkpt>
      <trkpt lat="42.092936960980296" lon="-7.522029960528016">
        <ele>706.71000000000004</ele>
        <time>2025-05-02T10:41:48Z</time>
      </trkpt>
      <trkpt lat="42.092909971252084" lon="-7.521901968866587">
        <ele>706.23000000000002</ele>
        <time>2025-05-02T10:41:49Z</time>
      </trkpt>
      <trkpt lat="42.092882981523871" lon="-7.521776994690299">
        <ele>705.75</ele>
        <time>2025-05-02T10:41:50Z</time>
      </trkpt>
      <trkpt lat="42.092855991795659" lon="-7.521645985543728">
        <ele>704.77999999999997</ele>
        <time>2025-05-02T10:41:51Z</time>
      </trkpt>
      <trkpt lat="42.09279203787446" lon="-7.521527968347073">
        <ele>703.82000000000005</ele>
        <time>2025-05-02T10:41:52Z</time>
      </trkpt>
      <trkpt lat="42.092704027891159" lon="-7.52143400721252">
        <ele>702.86000000000001</ele>
        <time>2025-05-02T10:41:53Z</time>
      </trkpt>
      <trkpt lat="42.092592967674136" lon="-7.521385978907347">
        <ele>701.41999999999996</ele>
        <time>2025-05-02T10:41:54Z</time>
      </trkpt>
      <trkpt lat="42.092464976012707" lon="-7.521385978907347">
        <ele>700.46000000000004</ele>
        <time>2025-05-02T10:41:55Z</time>
      </trkpt>
      <trkpt lat="42.092344025149941" lon="-7.521385978907347">
        <ele>699.01999999999998</ele>
        <time>2025-05-02T10:41:56Z</time>
      </trkpt>
      <trkpt lat="42.092229025438428" lon="-7.521377010270953">
        <ele>698.04999999999995</ele>
        <time>2025-05-02T10:41:57Z</time>
      </trkpt>
      <trkpt lat="42.092124000191689" lon="-7.521340968087316">
        <ele>697.09000000000003</ele>
        <time>2025-05-02T10:41:58Z</time>
      </trkpt>
      <trkpt lat="42.092057028785348" lon="-7.521256981417537">
        <ele>696.13</ele>
        <time>2025-05-02T10:41:59Z</time>
      </trkpt>
      <trkpt lat="42.092015035450459" lon="-7.521109962835908">
        <ele>695.16999999999996</ele>
        <time>2025-05-02T10:42:00Z</time>
      </trkpt>
      <trkpt lat="42.091974969953299" lon="-7.520965961739421">
        <ele>694.21000000000004</ele>
        <time>2025-05-02T10:42:01Z</time>
      </trkpt>
      <trkpt lat="42.09193398244679" lon="-7.520820032805204">
        <ele>693.25</ele>
        <time>2025-05-02T10:42:02Z</time>
      </trkpt>
      <trkpt lat="42.091878997161984" lon="-7.520693968981504">
        <ele>692.28999999999996</ele>
        <time>2025-05-02T10:42:03Z</time>
      </trkpt>
      <trkpt lat="42.091788975521922" lon="-7.520604031160474">
        <ele>690.84000000000003</ele>
        <time>2025-05-02T10:42:04Z</time>
      </trkpt>
      <trkpt lat="42.091587977483869" lon="-7.52040303312242">
        <ele>688.91999999999996</ele>
        <time>2025-05-02T10:42:06Z</time>
      </trkpt>
      <trkpt lat="42.091498961672187" lon="-7.520259032025933">
        <ele>687.96000000000004</ele>
        <time>2025-05-02T10:42:07Z</time>
      </trkpt>
      <trkpt lat="42.09128899499774" lon="-7.519777994602919">
        <ele>685.08000000000004</ele>
        <time>2025-05-02T10:42:10Z</time>
      </trkpt>
      <trkpt lat="42.09122403524816" lon="-7.519658971577883">
        <ele>684.12</ele>
        <time>2025-05-02T10:42:11Z</time>
      </trkpt>
      <trkpt lat="42.091132001951337" lon="-7.519604992121458">
        <ele>682.66999999999996</ele>
        <time>2025-05-02T10:42:12Z</time>
      </trkpt>
      <trkpt lat="42.091027982532978" lon="-7.519612032920122">
        <ele>681.71000000000004</ele>
        <time>2025-05-02T10:42:13Z</time>
      </trkpt>
      <trkpt lat="42.090917006134987" lon="-7.519618989899755">
        <ele>680.26999999999998</ele>
        <time>2025-05-02T10:42:14Z</time>
      </trkpt>
      <trkpt lat="42.090808963403106" lon="-7.519625024870038">
        <ele>679.30999999999995</ele>
        <time>2025-05-02T10:42:15Z</time>
      </trkpt>
      <trkpt lat="42.090717013925314" lon="-7.519553024321795">
        <ele>678.35000000000002</ele>
        <time>2025-05-02T10:42:16Z</time>
      </trkpt>
      <trkpt lat="42.09064400754869" lon="-7.519446993246675">
        <ele>677.38999999999999</ele>
        <time>2025-05-02T10:42:17Z</time>
      </trkpt>
      <trkpt lat="42.090487014502287" lon="-7.519224034622312">
        <ele>675.46000000000004</ele>
        <time>2025-05-02T10:42:19Z</time>
      </trkpt>
      <trkpt lat="42.090382995083928" lon="-7.519154967740178">
        <ele>674.01999999999998</ele>
        <time>2025-05-02T10:42:20Z</time>
      </trkpt>
      <trkpt lat="42.090246034786105" lon="-7.519154967740178">
        <ele>673.05999999999995</ele>
        <time>2025-05-02T10:42:21Z</time>
      </trkpt>
      <trkpt lat="42.090104967355728" lon="-7.519154967740178">
        <ele>672.10000000000002</ele>
        <time>2025-05-02T10:42:22Z</time>
      </trkpt>
      <trkpt lat="42.089959960430861" lon="-7.519154967740178">
        <ele>671.13999999999999</ele>
        <time>2025-05-02T10:42:23Z</time>
      </trkpt>
      <trkpt lat="42.089835992082953" lon="-7.519126972183585">
        <ele>670.65999999999997</ele>
        <time>2025-05-02T10:42:24Z</time>
      </trkpt>
      <trkpt lat="42.089731972664595" lon="-7.519090007990599">
        <ele>669.70000000000005</ele>
        <time>2025-05-02T10:42:25Z</time>
      </trkpt>
      <trkpt lat="42.089668018743396" lon="-7.519023036584258">
        <ele>669.22000000000003</ele>
        <time>2025-05-02T10:42:26Z</time>
      </trkpt>
      <trkpt lat="42.089648991823196" lon="-7.518898984417319">
        <ele>668.25</ele>
        <time>2025-05-02T10:42:27Z</time>
      </trkpt>
      <trkpt lat="42.089638011530042" lon="-7.518777027726173">
        <ele>667.76999999999998</ele>
        <time>2025-05-02T10:42:28Z</time>
      </trkpt>
      <trkpt lat="42.089696014299989" lon="-7.518655993044376">
        <ele>666.80999999999995</ele>
        <time>2025-05-02T10:42:29Z</time>
      </trkpt>
      <trkpt lat="42.089758962392807" lon="-7.518523978069425">
        <ele>665.85000000000002</ele>
        <time>2025-05-02T10:42:30Z</time>
      </trkpt>
      <trkpt lat="42.089825011789799" lon="-7.518387017771602">
        <ele>664.88999999999999</ele>
        <time>2025-05-02T10:42:31Z</time>
      </trkpt>
      <trkpt lat="42.089889971539378" lon="-7.518252991139889">
        <ele>663.92999999999995</ele>
        <time>2025-05-02T10:42:32Z</time>
      </trkpt>
      <trkpt lat="42.089903969317675" lon="-7.518097003921866">
        <ele>662.97000000000003</ele>
        <time>2025-05-02T10:42:33Z</time>
      </trkpt>
      <trkpt lat="42.089888965710998" lon="-7.517968006432056">
        <ele>662.00999999999999</ele>
        <time>2025-05-02T10:42:34Z</time>
      </trkpt>
      <trkpt lat="42.089844960719347" lon="-7.517870021983981">
        <ele>660.55999999999995</ele>
        <time>2025-05-02T10:42:35Z</time>
      </trkpt>
      <trkpt lat="42.089762985706329" lon="-7.517833979800344">
        <ele>659.60000000000002</ele>
        <time>2025-05-02T10:42:36Z</time>
      </trkpt>
      <trkpt lat="42.089671958237886" lon="-7.517849989235401">
        <ele>658.15999999999997</ele>
        <time>2025-05-02T10:42:37Z</time>
      </trkpt>
      <trkpt lat="42.08956902846694" lon="-7.517867004498839">
        <ele>657.20000000000005</ele>
        <time>2025-05-02T10:42:38Z</time>
      </trkpt>
      <trkpt lat="42.089470038190484" lon="-7.517883013933897">
        <ele>655.75999999999999</ele>
        <time>2025-05-02T10:42:39Z</time>
      </trkpt>
      <trkpt lat="42.08939703181386" lon="-7.517845965921879">
        <ele>654.79999999999995</ele>
        <time>2025-05-02T10:42:40Z</time>
      </trkpt>
      <trkpt lat="42.089310027658939" lon="-7.517759967595339">
        <ele>653.83000000000004</ele>
        <time>2025-05-02T10:42:41Z</time>
      </trkpt>
      <trkpt lat="42.089292006567121" lon="-7.517651002854109">
        <ele>652.87</ele>
        <time>2025-05-02T10:42:42Z</time>
      </trkpt>
      <trkpt lat="42.089294018223882" lon="-7.517507001757622">
        <ele>651.42999999999995</ele>
        <time>2025-05-02T10:42:43Z</time>
      </trkpt>
      <trkpt lat="42.089300975203514" lon="-7.517343973740935">
        <ele>650.47000000000003</ele>
        <time>2025-05-02T10:42:44Z</time>
      </trkpt>
      <trkpt lat="42.089308016002178" lon="-7.517181029543281">
        <ele>649.50999999999999</ele>
        <time>2025-05-02T10:42:45Z</time>
      </trkpt>
      <trkpt lat="42.089266022667289" lon="-7.51702998764813">
        <ele>649.02999999999997</ele>
        <time>2025-05-02T10:42:46Z</time>
      </trkpt>
      <trkpt lat="42.089206008240581" lon="-7.51688196323812">
        <ele>647.59000000000003</ele>
        <time>2025-05-02T10:42:47Z</time>
      </trkpt>
      <trkpt lat="42.089143982157111" lon="-7.51672899350524">
        <ele>646.62</ele>
        <time>2025-05-02T10:42:48Z</time>
      </trkpt>
      <trkpt lat="42.089079022407532" lon="-7.516568982973695">
        <ele>646.13999999999999</ele>
        <time>2025-05-02T10:42:49Z</time>
      </trkpt>
      <trkpt lat="42.089027976617217" lon="-7.516397992148995">
        <ele>645.17999999999995</ele>
        <time>2025-05-02T10:42:50Z</time>
      </trkpt>
      <trkpt lat="42.089014984667301" lon="-7.516211997717619">
        <ele>644.22000000000003</ele>
        <time>2025-05-02T10:42:51Z</time>
      </trkpt>
      <trkpt lat="42.089001992717385" lon="-7.516023991629481">
        <ele>643.74000000000001</ele>
        <time>2025-05-02T10:42:52Z</time>
      </trkpt>
      <trkpt lat="42.088989000767469" lon="-7.515845037996769">
        <ele>642.77999999999997</ele>
        <time>2025-05-02T10:42:53Z</time>
      </trkpt>
      <trkpt lat="42.088938960805535" lon="-7.515679998323321">
        <ele>641.82000000000005</ele>
        <time>2025-05-02T10:42:54Z</time>
      </trkpt>
      <trkpt lat="42.088885987177491" lon="-7.515521999448538">
        <ele>640.86000000000001</ele>
        <time>2025-05-02T10:42:55Z</time>
      </trkpt>
      <trkpt lat="42.088798983022571" lon="-7.515400964766741">
        <ele>639.88999999999999</ele>
        <time>2025-05-02T10:42:56Z</time>
      </trkpt>
      <trkpt lat="42.088707033544779" lon="-7.515283031389117">
        <ele>638.92999999999995</ele>
        <time>2025-05-02T10:42:57Z</time>
      </trkpt>
      <trkpt lat="42.088619023561478" lon="-7.515169959515333">
        <ele>637.00999999999999</ele>
        <time>2025-05-02T10:42:58Z</time>
      </trkpt>
      <trkpt lat="42.088518021628261" lon="-7.515100976452231">
        <ele>635.57000000000005</ele>
        <time>2025-05-02T10:42:59Z</time>
      </trkpt>
      <trkpt lat="42.088406961411238" lon="-7.515065018087626">
        <ele>634.13</ele>
        <time>2025-05-02T10:43:00Z</time>
      </trkpt>
      <trkpt lat="42.087896000593901" lon="-7.514898972585797">
        <ele>628.84000000000003</ele>
        <time>2025-05-02T10:43:04Z</time>
      </trkpt>
      <trkpt lat="42.087787035852671" lon="-7.514821020886302">
        <ele>627.88</ele>
        <time>2025-05-02T10:43:05Z</time>
      </trkpt>
      <trkpt lat="42.08767999894917" lon="-7.514713983982801">
        <ele>626.91999999999996</ele>
        <time>2025-05-02T10:43:06Z</time>
      </trkpt>
      <trkpt lat="42.08757103420794" lon="-7.514605019241571">
        <ele>625.96000000000004</ele>
        <time>2025-05-02T10:43:07Z</time>
      </trkpt>
      <trkpt lat="42.087459973990917" lon="-7.514481972903013">
        <ele>624.50999999999999</ele>
        <time>2025-05-02T10:43:08Z</time>
      </trkpt>
      <trkpt lat="42.08735603839159" lon="-7.51432397402823">
        <ele>623.54999999999995</ele>
        <time>2025-05-02T10:43:09Z</time>
      </trkpt>
      <trkpt lat="42.086680037900805" lon="-7.5132289621979">
        <ele>615.38</ele>
        <time>2025-05-02T10:43:15Z</time>
      </trkpt>
      <trkpt lat="42.086339984089136" lon="-7.512679025530815">
        <ele>612.01999999999998</ele>
        <time>2025-05-02T10:43:18Z</time>
      </trkpt>
      <trkpt lat="42.08598199300468" lon="-7.512020040303469">
        <ele>606.73000000000002</ele>
        <time>2025-05-02T10:43:22Z</time>
      </trkpt>
      <trkpt lat="42.085922984406352" lon="-7.511858018115163">
        <ele>605.28999999999996</ele>
        <time>2025-05-02T10:43:23Z</time>
      </trkpt>
      <trkpt lat="42.085883002728224" lon="-7.511668000370264">
        <ele>603.85000000000002</ele>
        <time>2025-05-02T10:43:24Z</time>
      </trkpt>
      <trkpt lat="42.085803039371967" lon="-7.511289976537228">
        <ele>601.44000000000005</ele>
        <time>2025-05-02T10:43:26Z</time>
      </trkpt>
      <trkpt lat="42.085719974711537" lon="-7.51112200319767">
        <ele>600.48000000000002</ele>
        <time>2025-05-02T10:43:27Z</time>
      </trkpt>
      <trkpt lat="42.085627019405365" lon="-7.510971967130899">
        <ele>599.51999999999998</ele>
        <time>2025-05-02T10:43:28Z</time>
      </trkpt>
      <trkpt lat="42.085453011095524" lon="-7.51069201156497">
        <ele>597.60000000000002</ele>
        <time>2025-05-02T10:43:30Z</time>
      </trkpt>
      <trkpt lat="42.085387967526913" lon="-7.510564019903541">
        <ele>596.63999999999999</ele>
        <time>2025-05-02T10:43:31Z</time>
      </trkpt>
      <trkpt lat="42.085341028869152" lon="-7.510417001321912">
        <ele>595.66999999999996</ele>
        <time>2025-05-02T10:43:32Z</time>
      </trkpt>
      <trkpt lat="42.085348991677165" lon="-7.510278029367328">
        <ele>595.19000000000005</ele>
        <time>2025-05-02T10:43:33Z</time>
      </trkpt>
      <trkpt lat="42.08535703830421" lon="-7.510128999128938">
        <ele>594.23000000000002</ele>
        <time>2025-05-02T10:43:34Z</time>
      </trkpt>
      <trkpt lat="42.085399031639099" lon="-7.509632036089897">
        <ele>591.35000000000002</ele>
        <time>2025-05-02T10:43:37Z</time>
      </trkpt>
      <trkpt lat="42.085459968075156" lon="-7.509483005851507">
        <ele>590.38999999999999</ele>
        <time>2025-05-02T10:43:38Z</time>
      </trkpt>
      <trkpt lat="42.085518976673484" lon="-7.50933900475502">
        <ele>589.42999999999995</ele>
        <time>2025-05-02T10:43:39Z</time>
      </trkpt>
      <trkpt lat="42.0857909694314" lon="-7.508800970390439">
        <ele>585.58000000000004</ele>
        <time>2025-05-02T10:43:43Z</time>
      </trkpt>
      <trkpt lat="42.08583396859467" lon="-7.508661998435855">
        <ele>584.62</ele>
        <time>2025-05-02T10:43:44Z</time>
      </trkpt>
      <trkpt lat="42.085818964987993" lon="-7.508511962369084">
        <ele>584.13999999999999</ele>
        <time>2025-05-02T10:43:45Z</time>
      </trkpt>
      <trkpt lat="42.085764985531569" lon="-7.508361004292965">
        <ele>583.17999999999995</ele>
        <time>2025-05-02T10:43:46Z</time>
      </trkpt>
      <trkpt lat="42.085677981376648" lon="-7.508208034560084">
        <ele>582.70000000000005</ele>
        <time>2025-05-02T10:43:47Z</time>
      </trkpt>
      <trkpt lat="42.08555200137198" lon="-7.508149025961757">
        <ele>581.73000000000002</ele>
        <time>2025-05-02T10:43:48Z</time>
      </trkpt>
      <trkpt lat="42.085412023589015" lon="-7.508083982393146">
        <ele>581.25</ele>
        <time>2025-05-02T10:43:49Z</time>
      </trkpt>
      <trkpt lat="42.085256036370993" lon="-7.50802899710834">
        <ele>580.76999999999998</ele>
        <time>2025-05-02T10:43:50Z</time>
      </trkpt>
      <trkpt lat="42.085106000304222" lon="-7.508004019036889">
        <ele>580.28999999999996</ele>
        <time>2025-05-02T10:43:51Z</time>
      </trkpt>
      <trkpt lat="42.084954958409071" lon="-7.508050035685301">
        <ele>580.28999999999996</ele>
        <time>2025-05-02T10:43:52Z</time>
      </trkpt>
      <trkpt lat="42.084812968969345" lon="-7.508121030405164">
        <ele>579.80999999999995</ele>
        <time>2025-05-02T10:43:53Z</time>
      </trkpt>
      <trkpt lat="42.084671985358" lon="-7.508191019296646">
        <ele>579.80999999999995</ele>
        <time>2025-05-02T10:43:54Z</time>
      </trkpt>
      <trkpt lat="42.084547011181712" lon="-7.508253967389464">
        <ele>579.33000000000004</ele>
        <time>2025-05-02T10:43:55Z</time>
      </trkpt>
      <trkpt lat="42.084432011470199" lon="-7.508253967389464">
        <ele>578.85000000000002</ele>
        <time>2025-05-02T10:43:56Z</time>
      </trkpt>
      <trkpt lat="42.084346013143659" lon="-7.508209962397814">
        <ele>578.37</ele>
        <time>2025-05-02T10:43:57Z</time>
      </trkpt>
      <trkpt lat="42.084224978461862" lon="-7.508104015141726">
        <ele>578.37</ele>
        <time>2025-05-02T10:43:58Z</time>
      </trkpt>
      <trkpt lat="42.084164964035153" lon="-7.508023967966437">
        <ele>578.37</ele>
        <time>2025-05-02T10:43:59Z</time>
      </trkpt>
      <trkpt lat="42.083758022636175" lon="-7.507467996329069">
        <ele>577.40999999999997</ele>
        <time>2025-05-02T10:44:03Z</time>
      </trkpt>
      <trkpt lat="42.083346974104643" lon="-7.506880005821586">
        <ele>575.00999999999999</ele>
        <time>2025-05-02T10:44:07Z</time>
      </trkpt>
      <trkpt lat="42.083303974941373" lon="-7.506732987239957">
        <ele>574.03999999999996</ele>
        <time>2025-05-02T10:44:08Z</time>
      </trkpt>
      <trkpt lat="42.083259969949722" lon="-7.506573982536793">
        <ele>573.08000000000004</ele>
        <time>2025-05-02T10:44:09Z</time>
      </trkpt>
      <trkpt lat="42.083289977163076" lon="-7.506410032510757">
        <ele>572.12</ele>
        <time>2025-05-02T10:44:10Z</time>
      </trkpt>
      <trkpt lat="42.083324007689953" lon="-7.50622596591711">
        <ele>571.63999999999999</ele>
        <time>2025-05-02T10:44:11Z</time>
      </trkpt>
      <trkpt lat="42.083360971882939" lon="-7.506026979535818">
        <ele>570.67999999999995</ele>
        <time>2025-05-02T10:44:12Z</time>
      </trkpt>
      <trkpt lat="42.083494998514652" lon="-7.505292976275086">
        <ele>566.35000000000002</ele>
        <time>2025-05-02T10:44:16Z</time>
      </trkpt>
      <trkpt lat="42.083478989079595" lon="-7.504991982132196">
        <ele>565.38999999999999</ele>
        <time>2025-05-02T10:44:17Z</time>
      </trkpt>
      <trkpt lat="42.083373041823506" lon="-7.504696017131209">
        <ele>562.99000000000001</ele>
        <time>2025-05-02T10:44:19Z</time>
      </trkpt>
      <trkpt lat="42.083286959677935" lon="-7.504532989114523">
        <ele>562.02999999999997</ele>
        <time>2025-05-02T10:44:20Z</time>
      </trkpt>
      <trkpt lat="42.083186041563749" lon="-7.504417989403009">
        <ele>561.07000000000005</ele>
        <time>2025-05-02T10:44:21Z</time>
      </trkpt>
      <trkpt lat="42.082663010805845" lon="-7.503819018602371">
        <ele>557.22000000000003</ele>
        <time>2025-05-02T10:44:25Z</time>
      </trkpt>
      <trkpt lat="42.082567038014531" lon="-7.503655990585685">
        <ele>556.25999999999999</ele>
        <time>2025-05-02T10:44:26Z</time>
      </trkpt>
      <trkpt lat="42.082485985010862" lon="-7.503477958962321">
        <ele>555.29999999999995</ele>
        <time>2025-05-02T10:44:27Z</time>
      </trkpt>
      <trkpt lat="42.082435023039579" lon="-7.50330101698637">
        <ele>554.34000000000003</ele>
        <time>2025-05-02T10:44:28Z</time>
      </trkpt>
      <trkpt lat="42.082422031089664" lon="-7.503095995634794">
        <ele>552.89999999999998</ele>
        <time>2025-05-02T10:44:29Z</time>
      </trkpt>
      <trkpt lat="42.082440974190831" lon="-7.502899020910263">
        <ele>551.92999999999995</ele>
        <time>2025-05-02T10:44:30Z</time>
      </trkpt>
      <trkpt lat="42.082464024424553" lon="-7.502709003165364">
        <ele>550.49000000000001</ele>
        <time>2025-05-02T10:44:31Z</time>
      </trkpt>
      <trkpt lat="42.082486990839243" lon="-7.502514040097594">
        <ele>549.04999999999995</ele>
        <time>2025-05-02T10:44:32Z</time>
      </trkpt>
      <trkpt lat="42.082511968910694" lon="-7.502298960462213">
        <ele>547.61000000000001</ele>
        <time>2025-05-02T10:44:33Z</time>
      </trkpt>
      <trkpt lat="42.082538036629558" lon="-7.502080025151372">
        <ele>546.16999999999996</ele>
        <time>2025-05-02T10:44:34Z</time>
      </trkpt>
      <trkpt lat="42.082590004429221" lon="-7.501637963578105">
        <ele>543.75999999999999</ele>
        <time>2025-05-02T10:44:36Z</time>
      </trkpt>
      <trkpt lat="42.082594027742743" lon="-7.501602005213499">
        <ele>542.32000000000005</ele>
        <time>2025-05-02T10:44:37Z</time>
      </trkpt>
      <trkpt lat="42.082519009709358" lon="-7.501363037154079">
        <ele>540.39999999999998</ele>
        <time>2025-05-02T10:44:38Z</time>
      </trkpt>
      <trkpt lat="42.082486990839243" lon="-7.50125901773572">
        <ele>538.96000000000004</ele>
        <time>2025-05-02T10:44:39Z</time>
      </trkpt>
      <trkpt lat="42.082368973642588" lon="-7.501091966405511">
        <ele>537.50999999999999</ele>
        <time>2025-05-02T10:44:40Z</time>
      </trkpt>
      <trkpt lat="42.082250034436584" lon="-7.500923993065953">
        <ele>536.54999999999995</ele>
        <time>2025-05-02T10:44:41Z</time>
      </trkpt>
      <trkpt lat="42.082121958956122" lon="-7.500771023333073">
        <ele>535.11000000000001</ele>
        <time>2025-05-02T10:44:42Z</time>
      </trkpt>
      <trkpt lat="42.081969995051622" lon="-7.500598020851612">
        <ele>533.66999999999996</ele>
        <time>2025-05-02T10:44:43Z</time>
      </trkpt>
      <trkpt lat="42.081275973469019" lon="-7.499672994017601">
        <ele>524.05999999999995</ele>
        <time>2025-05-02T10:44:48Z</time>
      </trkpt>
      <trkpt lat="42.080554040148854" lon="-7.498447978869081">
        <ele>513.48000000000002</ele>
        <time>2025-05-02T10:44:54Z</time>
      </trkpt>
      <trkpt lat="42.080409033223987" lon="-7.49827497638762">
        <ele>511.56</ele>
        <time>2025-05-02T10:44:55Z</time>
      </trkpt>
      <trkpt lat="42.079633036628366" lon="-7.497390015050769">
        <ele>500.01999999999998</ele>
        <time>2025-05-02T10:45:01Z</time>
      </trkpt>
      <trkpt lat="42.079504039138556" lon="-7.497246013954282">
        <ele>498.57999999999998</ele>
        <time>2025-05-02T10:45:02Z</time>
      </trkpt>
      <trkpt lat="42.079415023326874" lon="-7.497146017849445">
        <ele>497.13999999999999</ele>
        <time>2025-05-02T10:45:03Z</time>
      </trkpt>
      <trkpt lat="42.079313015565276" lon="-7.497033029794693">
        <ele>496.18000000000001</ele>
        <time>2025-05-02T10:45:04Z</time>
      </trkpt>
      <trkpt lat="42.079207990318537" lon="-7.496916018426418">
        <ele>495.22000000000003</ele>
        <time>2025-05-02T10:45:05Z</time>
      </trkpt>
      <trkpt lat="42.0791079942137" lon="-7.496804958209395">
        <ele>494.25999999999999</ele>
        <time>2025-05-02T10:45:06Z</time>
      </trkpt>
      <trkpt lat="42.079007998108864" lon="-7.496696999296546">
        <ele>493.29000000000002</ele>
        <time>2025-05-02T10:45:07Z</time>
      </trkpt>
      <trkpt lat="42.078911019489169" lon="-7.496590968221426">
        <ele>492.32999999999998</ele>
        <time>2025-05-02T10:45:08Z</time>
      </trkpt>
      <trkpt lat="42.078832983970642" lon="-7.496525002643466">
        <ele>491.37</ele>
        <time>2025-05-02T10:45:09Z</time>
      </trkpt>
      <trkpt lat="42.078731982037425" lon="-7.496451996266842">
        <ele>490.41000000000003</ele>
        <time>2025-05-02T10:45:10Z</time>
      </trkpt>
      <trkpt lat="42.078637015074492" lon="-7.496451996266842">
        <ele>489.44999999999999</ele>
        <time>2025-05-02T10:45:11Z</time>
      </trkpt>
      <trkpt lat="42.078513968735933" lon="-7.496454007923603">
        <ele>488.49000000000001</ele>
        <time>2025-05-02T10:45:12Z</time>
      </trkpt>
      <trkpt lat="42.078382959589362" lon="-7.496509999036789">
        <ele>487.52999999999997</ele>
        <time>2025-05-02T10:45:13Z</time>
      </trkpt>
      <trkpt lat="42.078266032040119" lon="-7.496560038998723">
        <ele>486.07999999999998</ele>
        <time>2025-05-02T10:45:14Z</time>
      </trkpt>
      <trkpt lat="42.078165030106902" lon="-7.496590968221426">
        <ele>485.12</ele>
        <time>2025-05-02T10:45:15Z</time>
      </trkpt>
      <trkpt lat="42.078002002090216" lon="-7.496623992919922">
        <ele>484.16000000000003</ele>
        <time>2025-05-02T10:45:16Z</time>
      </trkpt>
      <trkpt lat="42.077928995713592" lon="-7.496574958786368">
        <ele>483.19999999999999</ele>
        <time>2025-05-02T10:45:17Z</time>
      </trkpt>
      <trkpt lat="42.0778180193156" lon="-7.496455013751984">
        <ele>482.72000000000003</ele>
        <time>2025-05-02T10:45:18Z</time>
      </trkpt>
      <trkpt lat="42.077746018767357" lon="-7.49631897546351">
        <ele>482.24000000000001</ele>
        <time>2025-05-02T10:45:19Z</time>
      </trkpt>
      <trkpt lat="42.077088039368391" lon="-7.494961023330689">
        <ele>478.87</ele>
        <time>2025-05-02T10:45:30Z</time>
      </trkpt>
      <trkpt lat="42.076317993924022" lon="-7.493340969085693">
        <ele>477.91000000000003</ele>
        <time>2025-05-02T10:45:42Z</time>
      </trkpt>
      <trkpt lat="42.075689015910029" lon="-7.49199902638793">
        <ele>477.91000000000003</ele>
        <time>2025-05-02T10:45:52Z</time>
      </trkpt>
      <trkpt lat="42.075624978169799" lon="-7.491869023069739">
        <ele>477.91000000000003</ele>
        <time>2025-05-02T10:45:53Z</time>
      </trkpt>
      <trkpt lat="42.075121980160475" lon="-7.490802006796002">
        <ele>477.91000000000003</ele>
        <time>2025-05-02T10:46:01Z</time>
      </trkpt>
      <trkpt lat="42.075063977390528" lon="-7.490659011527896">
        <ele>478.38999999999999</ele>
        <time>2025-05-02T10:46:02Z</time>
      </trkpt>
      <trkpt lat="42.07500396296382" lon="-7.490511992946267">
        <ele>478.38999999999999</ele>
        <time>2025-05-02T10:46:03Z</time>
      </trkpt>
      <trkpt lat="42.074945960193872" lon="-7.490361034870148">
        <ele>478.38999999999999</ele>
        <time>2025-05-02T10:46:04Z</time>
      </trkpt>
      <trkpt lat="42.074888963252306" lon="-7.490204963833094">
        <ele>478.87</ele>
        <time>2025-05-02T10:46:05Z</time>
      </trkpt>
      <trkpt lat="42.074820986017585" lon="-7.490069009363651">
        <ele>478.87</ele>
        <time>2025-05-02T10:46:06Z</time>
      </trkpt>
      <trkpt lat="42.07474404014647" lon="-7.489927019923925">
        <ele>478.87</ele>
        <time>2025-05-02T10:46:07Z</time>
      </trkpt>
      <trkpt lat="42.07465804181993" lon="-7.489811014384031">
        <ele>478.87</ele>
        <time>2025-05-02T10:46:08Z</time>
      </trkpt>
      <trkpt lat="42.074570031836629" lon="-7.489692997187376">
        <ele>478.87</ele>
        <time>2025-05-02T10:46:09Z</time>
      </trkpt>
      <trkpt lat="42.074477998539805" lon="-7.489569028839469">
        <ele>478.87</ele>
        <time>2025-05-02T10:46:10Z</time>
      </trkpt>
      <trkpt lat="42.07427297718823" lon="-7.48929301276803">
        <ele>478.87</ele>
        <time>2025-05-02T10:46:12Z</time>
      </trkpt>
      <trkpt lat="42.074181027710438" lon="-7.489135013893247">
        <ele>478.87</ele>
        <time>2025-05-02T10:46:13Z</time>
      </trkpt>
      <trkpt lat="42.074109027162194" lon="-7.488933010026813">
        <ele>478.87</ele>
        <time>2025-05-02T10:46:14Z</time>
      </trkpt>
      <trkpt lat="42.073665959760547" lon="-7.487415969371796">
        <ele>473.58999999999997</ele>
        <time>2025-05-02T10:46:21Z</time>
      </trkpt>
      <trkpt lat="42.072932962328196" lon="-7.486081989482045">
        <ele>468.77999999999997</ele>
        <time>2025-05-02T10:46:28Z</time>
      </trkpt>
      <trkpt lat="42.072497019544244" lon="-7.485587038099766">
        <ele>467.33999999999997</ele>
        <time>2025-05-02T10:46:31Z</time>
      </trkpt>
      <trkpt lat="42.072026962414384" lon="-7.485152017325163">
        <ele>465.89999999999998</ele>
        <time>2025-05-02T10:46:34Z</time>
      </trkpt>
      <trkpt lat="42.071768967434764" lon="-7.484815986827016">
        <ele>463.97000000000003</ele>
        <time>2025-05-02T10:46:36Z</time>
      </trkpt>
      <trkpt lat="42.071637036278844" lon="-7.484632004052401">
        <ele>463.49000000000001</ele>
        <time>2025-05-02T10:46:37Z</time>
      </trkpt>
      <trkpt lat="42.071043010801077" lon="-7.483720974996686">
        <ele>461.08999999999997</ele>
        <time>2025-05-02T10:46:42Z</time>
      </trkpt>
      <trkpt lat="42.070905966684222" lon="-7.483585020527244">
        <ele>461.08999999999997</ele>
        <time>2025-05-02T10:46:43Z</time>
      </trkpt>
      <trkpt lat="42.069413987919688" lon="-7.48237400315702">
        <ele>464.93000000000001</ele>
        <time>2025-05-02T10:46:53Z</time>
      </trkpt>
      <trkpt lat="42.068080008029938" lon="-7.481331964954734">
        <ele>465.42000000000002</ele>
        <time>2025-05-02T10:47:02Z</time>
      </trkpt>
      <trkpt lat="42.067084992304444" lon="-7.480559991672635">
        <ele>467.33999999999997</ele>
        <time>2025-05-02T10:47:09Z</time>
      </trkpt>
      <trkpt lat="42.066952977329493" lon="-7.480457983911037">
        <ele>467.81999999999999</ele>
        <time>2025-05-02T10:47:10Z</time>
      </trkpt>
      <trkpt lat="42.066146973520517" lon="-7.479822970926762">
        <ele>469.74000000000001</ele>
        <time>2025-05-02T10:47:16Z</time>
      </trkpt>
      <trkpt lat="42.066018981859088" lon="-7.479686010628939">
        <ele>469.74000000000001</ele>
        <time>2025-05-02T10:47:17Z</time>
      </trkpt>
      <trkpt lat="42.065901970490813" lon="-7.479536980390549">
        <ele>469.74000000000001</ele>
        <time>2025-05-02T10:47:18Z</time>
      </trkpt>
      <trkpt lat="42.065770961344242" lon="-7.479372024536133">
        <ele>470.22000000000003</ele>
        <time>2025-05-02T10:47:19Z</time>
      </trkpt>
      <trkpt lat="42.06569803878665" lon="-7.479191981256008">
        <ele>470.22000000000003</ele>
        <time>2025-05-02T10:47:20Z</time>
      </trkpt>
      <trkpt lat="42.065618997439742" lon="-7.478998024016619">
        <ele>470.22000000000003</ele>
        <time>2025-05-02T10:47:21Z</time>
      </trkpt>
      <trkpt lat="42.065538028255105" lon="-7.478799959644675">
        <ele>470.22000000000003</ele>
        <time>2025-05-02T10:47:22Z</time>
      </trkpt>
      <trkpt lat="42.064881976693869" lon="-7.476330986246467">
        <ele>472.13999999999999</ele>
        <time>2025-05-02T10:47:33Z</time>
      </trkpt>
      <trkpt lat="42.064284011721611" lon="-7.474119001999497">
        <ele>474.06999999999999</ele>
        <time>2025-05-02T10:47:42Z</time>
      </trkpt>
      <trkpt lat="42.063631983473897" lon="-7.47216803021729">
        <ele>473.11000000000001</ele>
        <time>2025-05-02T10:47:50Z</time>
      </trkpt>
      <trkpt lat="42.063411036506295" lon="-7.471647011116147">
        <ele>471.66000000000003</ele>
        <time>2025-05-02T10:47:52Z</time>
      </trkpt>
      <trkpt lat="42.062707962468266" lon="-7.469736021012068">
        <ele>469.25999999999999</ele>
        <time>2025-05-02T10:48:00Z</time>
      </trkpt>
      <trkpt lat="42.062275037169456" lon="-7.468790039420128">
        <ele>467.81999999999999</ele>
        <time>2025-05-02T10:48:06Z</time>
      </trkpt>
      <trkpt lat="42.061539022251964" lon="-7.467213990166783">
        <ele>466.86000000000001</ele>
        <time>2025-05-02T10:48:18Z</time>
      </trkpt>
      <trkpt lat="42.060709968209267" lon="-7.465436020866036">
        <ele>466.86000000000001</ele>
        <time>2025-05-02T10:48:31Z</time>
      </trkpt>
      <trkpt lat="42.059940006583929" lon="-7.463766010478139">
        <ele>467.33999999999997</ele>
        <time>2025-05-02T10:48:43Z</time>
      </trkpt>
      <trkpt lat="42.059114975854754" lon="-7.46196398511529">
        <ele>465.89999999999998</ele>
        <time>2025-05-02T10:48:56Z</time>
      </trkpt>
      <trkpt lat="42.058220040053129" lon="-7.460042014718056">
        <ele>463.97000000000003</ele>
        <time>2025-05-02T10:49:10Z</time>
      </trkpt>
      <trkpt lat="42.058071009814739" lon="-7.459775973111391">
        <ele>463.49000000000001</ele>
        <time>2025-05-02T10:49:12Z</time>
      </trkpt>
      <trkpt lat="42.057988028973341" lon="-7.459657033905387">
        <ele>463.49000000000001</ele>
        <time>2025-05-02T10:49:13Z</time>
      </trkpt>
      <trkpt lat="42.057894989848137" lon="-7.459546979516745">
        <ele>463.00999999999999</ele>
        <time>2025-05-02T10:49:14Z</time>
      </trkpt>
      <trkpt lat="42.057797005400062" lon="-7.459455030038953">
        <ele>463.00999999999999</ele>
        <time>2025-05-02T10:49:15Z</time>
      </trkpt>
      <trkpt lat="42.057697009295225" lon="-7.459360985085368">
        <ele>463.00999999999999</ele>
        <time>2025-05-02T10:49:16Z</time>
      </trkpt>
      <trkpt lat="42.056439975276589" lon="-7.458179974928498">
        <ele>463.97000000000003</ele>
        <time>2025-05-02T10:49:28Z</time>
      </trkpt>
      <trkpt lat="42.056307960301638" lon="-7.458055000752211">
        <ele>464.93000000000001</ele>
        <time>2025-05-02T10:49:29Z</time>
      </trkpt>
      <trkpt lat="42.055887021124363" lon="-7.457648981362581">
        <ele>466.38</ele>
        <time>2025-05-02T10:49:32Z</time>
      </trkpt>
      <trkpt lat="42.055735979229212" lon="-7.457512021064758">
        <ele>466.86000000000001</ele>
        <time>2025-05-02T10:49:33Z</time>
      </trkpt>
      <trkpt lat="42.05465798266232" lon="-7.456481968984008">
        <ele>469.74000000000001</ele>
        <time>2025-05-02T10:49:40Z</time>
      </trkpt>
      <trkpt lat="42.054353971034288" lon="-7.456191033124924">
        <ele>470.22000000000003</ele>
        <time>2025-05-02T10:49:42Z</time>
      </trkpt>
      <trkpt lat="42.05334504134953" lon="-7.45517598465085">
        <ele>470.22000000000003</ele>
        <time>2025-05-02T10:49:49Z</time>
      </trkpt>
      <trkpt lat="42.053227024152875" lon="-7.455035001039505">
        <ele>470.22000000000003</ele>
        <time>2025-05-02T10:49:50Z</time>
      </trkpt>
      <trkpt lat="42.053027031943202" lon="-7.454757979139686">
        <ele>470.69999999999999</ele>
        <time>2025-05-02T10:49:52Z</time>
      </trkpt>
      <trkpt lat="42.052952013909817" lon="-7.454598974436522">
        <ele>470.69999999999999</ele>
        <time>2025-05-02T10:49:53Z</time>
      </trkpt>
      <trkpt lat="42.052884036675096" lon="-7.454440975561738">
        <ele>470.69999999999999</ele>
        <time>2025-05-02T10:49:54Z</time>
      </trkpt>
      <trkpt lat="42.0528319850564" lon="-7.454274008050561">
        <ele>470.69999999999999</ele>
        <time>2025-05-02T10:49:55Z</time>
      </trkpt>
      <trkpt lat="42.052783034741879" lon="-7.454105028882623">
        <ele>470.22000000000003</ele>
        <time>2025-05-02T10:49:56Z</time>
      </trkpt>
      <trkpt lat="42.052751015871763" lon="-7.453924985602498">
        <ele>470.22000000000003</ele>
        <time>2025-05-02T10:49:57Z</time>
      </trkpt>
      <trkpt lat="42.052716985344887" lon="-7.453739996999502">
        <ele>470.22000000000003</ele>
        <time>2025-05-02T10:49:58Z</time>
      </trkpt>
      <trkpt lat="42.052582036703825" lon="-7.451822971925139">
        <ele>467.81999999999999</ele>
        <time>2025-05-02T10:50:07Z</time>
      </trkpt>
      <trkpt lat="42.052466031163931" lon="-7.449561031535268">
        <ele>464.93000000000001</ele>
        <time>2025-05-02T10:50:16Z</time>
      </trkpt>
      <trkpt lat="42.052324963733554" lon="-7.447212003171444">
        <ele>465.89999999999998</ele>
        <time>2025-05-02T10:50:25Z</time>
      </trkpt>
      <trkpt lat="42.052103010937572" lon="-7.445589015260339">
        <ele>464.44999999999999</ele>
        <time>2025-05-02T10:50:32Z</time>
      </trkpt>
      <trkpt lat="42.051442014053464" lon="-7.443062039092183">
        <ele>462.52999999999997</ele>
        <time>2025-05-02T10:50:43Z</time>
      </trkpt>
      <trkpt lat="42.050732988864183" lon="-7.441344000399113">
        <ele>461.08999999999997</ele>
        <time>2025-05-02T10:50:51Z</time>
      </trkpt>
      <trkpt lat="42.050039973109961" lon="-7.440095013007522">
        <ele>462.52999999999997</ele>
        <time>2025-05-02T10:50:58Z</time>
      </trkpt>
      <trkpt lat="42.049956992268562" lon="-7.439954029396176">
        <ele>463.00999999999999</ele>
        <time>2025-05-02T10:50:59Z</time>
      </trkpt>
      <trkpt lat="42.049865964800119" lon="-7.439879011362791">
        <ele>463.49000000000001</ele>
        <time>2025-05-02T10:51:00Z</time>
      </trkpt>
      <trkpt lat="42.049748031422496" lon="-7.439827965572476">
        <ele>463.97000000000003</ele>
        <time>2025-05-02T10:51:01Z</time>
      </trkpt>
      <trkpt lat="42.049606963992119" lon="-7.439796030521393">
        <ele>464.44999999999999</ele>
        <time>2025-05-02T10:51:02Z</time>
      </trkpt>
      <trkpt lat="42.049455000087619" lon="-7.439759988337755">
        <ele>464.93000000000001</ele>
        <time>2025-05-02T10:51:03Z</time>
      </trkpt>
      <trkpt lat="42.049292977899313" lon="-7.439723024144769">
        <ele>465.42000000000002</ele>
        <time>2025-05-02T10:51:04Z</time>
      </trkpt>
      <trkpt lat="42.048239959403872" lon="-7.439345000311732">
        <ele>466.38</ele>
        <time>2025-05-02T10:51:11Z</time>
      </trkpt>
      <trkpt lat="42.04812403768301" lon="-7.439249027520418">
        <ele>466.38</ele>
        <time>2025-05-02T10:51:12Z</time>
      </trkpt>
      <trkpt lat="42.048021024093032" lon="-7.439123969525099">
        <ele>465.89999999999998</ele>
        <time>2025-05-02T10:51:13Z</time>
      </trkpt>
      <trkpt lat="42.047921027988195" lon="-7.438972005620599">
        <ele>465.42000000000002</ele>
        <time>2025-05-02T10:51:14Z</time>
      </trkpt>
      <trkpt lat="42.047833018004894" lon="-7.438795985653997">
        <ele>464.93000000000001</ele>
        <time>2025-05-02T10:51:15Z</time>
      </trkpt>
      <trkpt lat="42.04722298309207" lon="-7.43759703822434">
        <ele>462.05000000000001</ele>
        <time>2025-05-02T10:51:21Z</time>
      </trkpt>
      <trkpt lat="42.047119969502091" lon="-7.437392016872764">
        <ele>461.08999999999997</ele>
        <time>2025-05-02T10:51:22Z</time>
      </trkpt>
      <trkpt lat="42.046143980696797" lon="-7.435641959309578">
        <ele>457.24000000000001</ele>
        <time>2025-05-02T10:51:31Z</time>
      </trkpt>
      <trkpt lat="42.046004002913833" lon="-7.435498964041472">
        <ele>456.75999999999999</ele>
        <time>2025-05-02T10:51:32Z</time>
      </trkpt>
      <trkpt lat="42.045861007645726" lon="-7.435382036492229">
        <ele>456.27999999999997</ele>
        <time>2025-05-02T10:51:33Z</time>
      </trkpt>
      <trkpt lat="42.045694962143898" lon="-7.43530098348856">
        <ele>456.27999999999997</ele>
        <time>2025-05-02T10:51:34Z</time>
      </trkpt>
      <trkpt lat="42.045351974666119" lon="-7.435154970735312">
        <ele>454.83999999999997</ele>
        <time>2025-05-02T10:51:36Z</time>
      </trkpt>
      <trkpt lat="42.045176960527897" lon="-7.435080036520958">
        <ele>454.36000000000001</ele>
        <time>2025-05-02T10:51:37Z</time>
      </trkpt>
      <trkpt lat="42.044362993910909" lon="-7.434577038511634">
        <ele>451.95999999999998</ele>
        <time>2025-05-02T10:51:42Z</time>
      </trkpt>
      <trkpt lat="42.043829988688231" lon="-7.434042021632195">
        <ele>449.55000000000001</ele>
        <time>2025-05-02T10:51:46Z</time>
      </trkpt>
      <trkpt lat="42.043732004240155" lon="-7.433869019150734">
        <ele>449.55000000000001</ele>
        <time>2025-05-02T10:51:47Z</time>
      </trkpt>
      <trkpt lat="42.043669978156686" lon="-7.433694005012512">
        <ele>449.55000000000001</ele>
        <time>2025-05-02T10:51:48Z</time>
      </trkpt>
      <trkpt lat="42.043624967336655" lon="-7.433479009196162">
        <ele>449.06999999999999</ele>
        <time>2025-05-02T10:51:49Z</time>
      </trkpt>
      <trkpt lat="42.043583979830146" lon="-7.433281028643251">
        <ele>449.06999999999999</ele>
        <time>2025-05-02T10:51:50Z</time>
      </trkpt>
      <trkpt lat="42.043576017022133" lon="-7.433039965108037">
        <ele>449.06999999999999</ele>
        <time>2025-05-02T10:51:51Z</time>
      </trkpt>
      <trkpt lat="42.043569982051849" lon="-7.432828992605209">
        <ele>449.06999999999999</ele>
        <time>2025-05-02T10:51:52Z</time>
      </trkpt>
      <trkpt lat="42.043564030900598" lon="-7.432638974860311">
        <ele>449.06999999999999</ele>
        <time>2025-05-02T10:51:53Z</time>
      </trkpt>
      <trkpt lat="42.043536035344005" lon="-7.432477036491036">
        <ele>449.06999999999999</ele>
        <time>2025-05-02T10:51:54Z</time>
      </trkpt>
      <trkpt lat="42.043489012867212" lon="-7.432371005415916">
        <ele>448.58999999999997</ele>
        <time>2025-05-02T10:51:55Z</time>
      </trkpt>
      <trkpt lat="42.043409971520305" lon="-7.432291964069009">
        <ele>448.58999999999997</ele>
        <time>2025-05-02T10:51:56Z</time>
      </trkpt>
      <trkpt lat="42.043321961537004" lon="-7.432217029854655">
        <ele>448.58999999999997</ele>
        <time>2025-05-02T10:51:57Z</time>
      </trkpt>
      <trkpt lat="42.043202016502619" lon="-7.432160032913089">
        <ele>448.58999999999997</ele>
        <time>2025-05-02T10:51:58Z</time>
      </trkpt>
      <trkpt lat="42.042330969125032" lon="-7.431599032133818">
        <ele>447.63</ele>
        <time>2025-05-02T10:52:04Z</time>
      </trkpt>
      <trkpt lat="42.041720012202859" lon="-7.43091699667275">
        <ele>447.14999999999998</ele>
        <time>2025-05-02T10:52:09Z</time>
      </trkpt>
      <trkpt lat="42.041622027754784" lon="-7.430795039981604">
        <ele>447.14999999999998</ele>
        <time>2025-05-02T10:52:10Z</time>
      </trkpt>
      <trkpt lat="42.041417006403208" lon="-7.430571997538209">
        <ele>446.19</ele>
        <time>2025-05-02T10:52:12Z</time>
      </trkpt>
      <trkpt lat="42.04129396006465" lon="-7.430479964241386">
        <ele>445.70999999999998</ele>
        <time>2025-05-02T10:52:13Z</time>
      </trkpt>
      <trkpt lat="42.041170997545123" lon="-7.430426990613341">
        <ele>445.70999999999998</ele>
        <time>2025-05-02T10:52:14Z</time>
      </trkpt>
      <trkpt lat="42.041037976741791" lon="-7.430426990613341">
        <ele>445.23000000000002</ele>
        <time>2025-05-02T10:52:15Z</time>
      </trkpt>
      <trkpt lat="42.040891963988543" lon="-7.430426990613341">
        <ele>444.75</ele>
        <time>2025-05-02T10:52:16Z</time>
      </trkpt>
      <trkpt lat="42.040747040882707" lon="-7.430472001433373">
        <ele>443.79000000000002</ele>
        <time>2025-05-02T10:52:17Z</time>
      </trkpt>
      <trkpt lat="42.04058300703764" lon="-7.430536961182952">
        <ele>443.31</ele>
        <time>2025-05-02T10:52:18Z</time>
      </trkpt>
      <trkpt lat="42.039800975471735" lon="-7.430968964472413">
        <ele>440.89999999999998</ele>
        <time>2025-05-02T10:52:23Z</time>
      </trkpt>
      <trkpt lat="42.039652029052377" lon="-7.43110902607441">
        <ele>440.42000000000002</ele>
        <time>2025-05-02T10:52:24Z</time>
      </trkpt>
      <trkpt lat="42.039238968864083" lon="-7.431597020477057">
        <ele>439.94</ele>
        <time>2025-05-02T10:52:27Z</time>
      </trkpt>
      <trkpt lat="42.03912204131484" lon="-7.43179801851511">
        <ele>439.94</ele>
        <time>2025-05-02T10:52:28Z</time>
      </trkpt>
      <trkpt lat="42.039012992754579" lon="-7.432015025988221">
        <ele>439.94</ele>
        <time>2025-05-02T10:52:29Z</time>
      </trkpt>
      <trkpt lat="42.038946021348238" lon="-7.432225998491049">
        <ele>439.94</ele>
        <time>2025-05-02T10:52:30Z</time>
      </trkpt>
      <trkpt lat="42.038879971951246" lon="-7.432433031499386">
        <ele>439.94</ele>
        <time>2025-05-02T10:52:31Z</time>
      </trkpt>
      <trkpt lat="42.03852298669517" lon="-7.433571964502335">
        <ele>440.42000000000002</ele>
        <time>2025-05-02T10:52:38Z</time>
      </trkpt>
      <trkpt lat="42.038283012807369" lon="-7.43433203548193">
        <ele>441.38</ele>
        <time>2025-05-02T10:52:43Z</time>
      </trkpt>
      <trkpt lat="42.037640959024429" lon="-7.435529977083206">
        <ele>440.89999999999998</ele>
        <time>2025-05-02T10:52:52Z</time>
      </trkpt>
      <trkpt lat="42.037567030638456" lon="-7.435660986229777">
        <ele>440.42000000000002</ele>
        <time>2025-05-02T10:52:53Z</time>
      </trkpt>
      <trkpt lat="42.036520969122648" lon="-7.43747097440064">
        <ele>438.01999999999998</ele>
        <time>2025-05-02T10:53:07Z</time>
      </trkpt>
      <trkpt lat="42.035762993618846" lon="-7.438748041167855">
        <ele>441.38</ele>
        <time>2025-05-02T10:53:17Z</time>
      </trkpt>
      <trkpt lat="42.035609018057585" lon="-7.439004024490714">
        <ele>441.86000000000001</ele>
        <time>2025-05-02T10:53:19Z</time>
      </trkpt>
      <trkpt lat="42.034579971805215" lon="-7.44011202827096">
        <ele>442.33999999999997</ele>
        <time>2025-05-02T10:53:28Z</time>
      </trkpt>
      <trkpt lat="42.033184971660376" lon="-7.441469980403781">
        <ele>441.86000000000001</ele>
        <time>2025-05-02T10:53:38Z</time>
      </trkpt>
      <trkpt lat="42.031700033694506" lon="-7.442912003025413">
        <ele>439.45999999999998</ele>
        <time>2025-05-02T10:53:48Z</time>
      </trkpt>
      <trkpt lat="42.03145201317966" lon="-7.443223977461457">
        <ele>438.98000000000002</ele>
        <time>2025-05-02T10:53:50Z</time>
      </trkpt>
      <trkpt lat="42.031229976564646" lon="-7.443598983809352">
        <ele>438.5</ele>
        <time>2025-05-02T10:53:52Z</time>
      </trkpt>
      <trkpt lat="42.030427996069193" lon="-7.445024996995926">
        <ele>435.13</ele>
        <time>2025-05-02T10:53:59Z</time>
      </trkpt>
      <trkpt lat="42.030042009428144" lon="-7.446486968547106">
        <ele>431.76999999999998</ele>
        <time>2025-05-02T10:54:05Z</time>
      </trkpt>
      <trkpt lat="42.029838999733329" lon="-7.447429010644555">
        <ele>431.29000000000002</ele>
        <time>2025-05-02T10:54:09Z</time>
      </trkpt>
      <trkpt lat="42.029776973649859" lon="-7.447641994804144">
        <ele>430.81</ele>
        <time>2025-05-02T10:54:10Z</time>
      </trkpt>
      <trkpt lat="42.029686030000448" lon="-7.447850033640862">
        <ele>430.81</ele>
        <time>2025-05-02T10:54:11Z</time>
      </trkpt>
      <trkpt lat="42.029591985046864" lon="-7.44806201197207">
        <ele>430.81</ele>
        <time>2025-05-02T10:54:12Z</time>
      </trkpt>
      <trkpt lat="42.029498023912311" lon="-7.448274996131659">
        <ele>430.32999999999998</ele>
        <time>2025-05-02T10:54:13Z</time>
      </trkpt>
      <trkpt lat="42.028614990413189" lon="-7.450111974030733">
        <ele>429.85000000000002</ele>
        <time>2025-05-02T10:54:22Z</time>
      </trkpt>
      <trkpt lat="42.028293963521719" lon="-7.450874978676438">
        <ele>429.37</ele>
        <time>2025-05-02T10:54:27Z</time>
      </trkpt>
      <trkpt lat="42.028221962973475" lon="-7.450991990044713">
        <ele>428.88999999999999</ele>
        <time>2025-05-02T10:54:28Z</time>
      </trkpt>
      <trkpt lat="42.028133030980825" lon="-7.451102966442704">
        <ele>428.88999999999999</ele>
        <time>2025-05-02T10:54:29Z</time>
      </trkpt>
      <trkpt lat="42.028030017390847" lon="-7.451203968375921">
        <ele>428.88999999999999</ele>
        <time>2025-05-02T10:54:30Z</time>
      </trkpt>
      <trkpt lat="42.027920968830585" lon="-7.451289966702461">
        <ele>428.88999999999999</ele>
        <time>2025-05-02T10:54:31Z</time>
      </trkpt>
      <trkpt lat="42.027616035193205" lon="-7.451557014137507">
        <ele>429.37</ele>
        <time>2025-05-02T10:54:34Z</time>
      </trkpt>
      <trkpt lat="42.027404978871346" lon="-7.451756000518799">
        <ele>428.88999999999999</ele>
        <time>2025-05-02T10:54:36Z</time>
      </trkpt>
      <trkpt lat="42.027338007465005" lon="-7.451869994401932">
        <ele>428.88999999999999</ele>
        <time>2025-05-02T10:54:37Z</time>
      </trkpt>
      <trkpt lat="42.026690002530813" lon="-7.453246973454952">
        <ele>426.95999999999998</ele>
        <time>2025-05-02T10:54:47Z</time>
      </trkpt>
      <trkpt lat="42.02648900449276" lon="-7.453840998932719">
        <ele>427.44</ele>
        <time>2025-05-02T10:54:51Z</time>
      </trkpt>
      <trkpt lat="42.025963040068746" lon="-7.454930981621146">
        <ele>428.88999999999999</ele>
        <time>2025-05-02T10:54:59Z</time>
      </trkpt>
      <trkpt lat="42.025865977630019" lon="-7.455018991604447">
        <ele>428.39999999999998</ele>
        <time>2025-05-02T10:55:00Z</time>
      </trkpt>
      <trkpt lat="42.024757973849773" lon="-7.456014007329941">
        <ele>428.88999999999999</ele>
        <time>2025-05-02T10:55:11Z</time>
      </trkpt>
      <trkpt lat="42.024131007492542" lon="-7.456767037510872">
        <ele>427.92000000000002</ele>
        <time>2025-05-02T10:55:17Z</time>
      </trkpt>
      <trkpt lat="42.024032017216086" lon="-7.45689301751554">
        <ele>427.92000000000002</ele>
        <time>2025-05-02T10:55:18Z</time>
      </trkpt>
      <trkpt lat="42.023946018889546" lon="-7.457058979198337">
        <ele>427.44</ele>
        <time>2025-05-02T10:55:19Z</time>
      </trkpt>
      <trkpt lat="42.023892039433122" lon="-7.457248996943235">
        <ele>427.44</ele>
        <time>2025-05-02T10:55:20Z</time>
      </trkpt>
      <trkpt lat="42.023837976157665" lon="-7.457437003031373">
        <ele>426.95999999999998</ele>
        <time>2025-05-02T10:55:21Z</time>
      </trkpt>
      <trkpt lat="42.023789025843143" lon="-7.457616040483117">
        <ele>426.95999999999998</ele>
        <time>2025-05-02T10:55:22Z</time>
      </trkpt>
      <trkpt lat="42.023620968684554" lon="-7.458303021267057">
        <ele>426.95999999999998</ele>
        <time>2025-05-02T10:55:26Z</time>
      </trkpt>
      <trkpt lat="42.023576963692904" lon="-7.458470994606614">
        <ele>426.95999999999998</ele>
        <time>2025-05-02T10:55:27Z</time>
      </trkpt>
      <trkpt lat="42.023514015600085" lon="-7.458629999309778">
        <ele>427.44</ele>
        <time>2025-05-02T10:55:28Z</time>
      </trkpt>
      <trkpt lat="42.023446038365364" lon="-7.458789004012942">
        <ele>427.44</ele>
        <time>2025-05-02T10:55:29Z</time>
      </trkpt>
      <trkpt lat="42.023354005068541" lon="-7.458926970139146">
        <ele>427.44</ele>
        <time>2025-05-02T10:55:30Z</time>
      </trkpt>
      <trkpt lat="42.022660989314318" lon="-7.459911005571485">
        <ele>426.48000000000002</ele>
        <time>2025-05-02T10:55:37Z</time>
      </trkpt>
      <trkpt lat="42.022408023476601" lon="-7.460074033588171">
        <ele>426</ele>
        <time>2025-05-02T10:55:39Z</time>
      </trkpt>
      <trkpt lat="42.021883986890316" lon="-7.46043998748064">
        <ele>424.56</ele>
        <time>2025-05-02T10:55:43Z</time>
      </trkpt>
      <trkpt lat="42.021750966086984" lon="-7.460558004677296">
        <ele>424.07999999999998</ele>
        <time>2025-05-02T10:55:44Z</time>
      </trkpt>
      <trkpt lat="42.021517027169466" lon="-7.460794039070606">
        <ele>423.12</ele>
        <time>2025-05-02T10:55:46Z</time>
      </trkpt>
      <trkpt lat="42.021414013579488" lon="-7.460914989933372">
        <ele>422.63999999999999</ele>
        <time>2025-05-02T10:55:47Z</time>
      </trkpt>
      <trkpt lat="42.02124604023993" lon="-7.461111964657903">
        <ele>422.16000000000003</ele>
        <time>2025-05-02T10:55:48Z</time>
      </trkpt>
      <trkpt lat="42.021186025813222" lon="-7.461184971034527">
        <ele>421.68000000000001</ele>
        <time>2025-05-02T10:55:49Z</time>
      </trkpt>
      <trkpt lat="42.021073959767818" lon="-7.461322015151382">
        <ele>420.70999999999998</ele>
        <time>2025-05-02T10:55:50Z</time>
      </trkpt>
      <trkpt lat="42.020969018340111" lon="-7.46144900098443">
        <ele>419.75</ele>
        <time>2025-05-02T10:55:51Z</time>
      </trkpt>
      <trkpt lat="42.020871033892035" lon="-7.461569029837847">
        <ele>418.79000000000002</ele>
        <time>2025-05-02T10:55:52Z</time>
      </trkpt>
      <trkpt lat="42.020536009222269" lon="-7.46190195903182">
        <ele>416.38999999999999</ele>
        <time>2025-05-02T10:55:55Z</time>
      </trkpt>
      <trkpt lat="42.019367991015315" lon="-7.462533032521606">
        <ele>420.23000000000002</ele>
        <time>2025-05-02T10:56:04Z</time>
      </trkpt>
      <trkpt lat="42.01854002662003" lon="-7.462814999744296">
        <ele>423.12</ele>
        <time>2025-05-02T10:56:10Z</time>
      </trkpt>
      <trkpt lat="42.018399965018034" lon="-7.46282497420907">
        <ele>423.60000000000002</ele>
        <time>2025-05-02T10:56:11Z</time>
      </trkpt>
      <trkpt lat="42.018242971971631" lon="-7.462787004187703">
        <ele>423.60000000000002</ele>
        <time>2025-05-02T10:56:12Z</time>
      </trkpt>
      <trkpt lat="42.017448032274842" lon="-7.462420966476202">
        <ele>423.12</ele>
        <time>2025-05-02T10:56:17Z</time>
      </trkpt>
      <trkpt lat="42.017336972057819" lon="-7.462435970082879">
        <ele>422.16000000000003</ele>
        <time>2025-05-02T10:56:18Z</time>
      </trkpt>
      <trkpt lat="42.01585496775806" lon="-7.462667981162667">
        <ele>418.31</ele>
        <time>2025-05-02T10:56:27Z</time>
      </trkpt>
      <trkpt lat="42.015263959765434" lon="-7.462927987799048">
        <ele>416.38999999999999</ele>
        <time>2025-05-02T10:56:31Z</time>
      </trkpt>
      <trkpt lat="42.014164002612233" lon="-7.463240968063474">
        <ele>415.43000000000001</ele>
        <time>2025-05-02T10:56:39Z</time>
      </trkpt>
      <trkpt lat="42.013928974047303" lon="-7.463268041610718">
        <ele>415.91000000000003</ele>
        <time>2025-05-02T10:56:41Z</time>
      </trkpt>
      <trkpt lat="42.013757983222604" lon="-7.463279021903873">
        <ele>415.91000000000003</ele>
        <time>2025-05-02T10:56:42Z</time>
      </trkpt>
      <trkpt lat="42.01366301625967" lon="-7.463253038004041">
        <ele>415.91000000000003</ele>
        <time>2025-05-02T10:56:43Z</time>
      </trkpt>
      <trkpt lat="42.013289015740156" lon="-7.463161004707217">
        <ele>415.43000000000001</ele>
        <time>2025-05-02T10:56:46Z</time>
      </trkpt>
      <trkpt lat="42.01267302967608" lon="-7.463106019422412">
        <ele>417.35000000000002</ele>
        <time>2025-05-02T10:56:51Z</time>
      </trkpt>
      <trkpt lat="42.01256699860096" lon="-7.463094033300877">
        <ele>417.35000000000002</ele>
        <time>2025-05-02T10:56:52Z</time>
      </trkpt>
      <trkpt lat="42.012432971969247" lon="-7.463035024702549">
        <ele>418.31</ele>
        <time>2025-05-02T10:56:53Z</time>
      </trkpt>
      <trkpt lat="42.012316966429353" lon="-7.46293100528419">
        <ele>419.26999999999998</ele>
        <time>2025-05-02T10:56:54Z</time>
      </trkpt>
      <trkpt lat="42.012237003073096" lon="-7.4627819750458">
        <ele>419.75</ele>
        <time>2025-05-02T10:56:55Z</time>
      </trkpt>
      <trkpt lat="42.012148993089795" lon="-7.462590029463172">
        <ele>420.23000000000002</ele>
        <time>2025-05-02T10:56:56Z</time>
      </trkpt>
      <trkpt lat="42.011525966227055" lon="-7.461055973544717">
        <ele>421.19</ele>
        <time>2025-05-02T10:57:03Z</time>
      </trkpt>
      <trkpt lat="42.010770002380013" lon="-7.458720020949841">
        <ele>423.12</ele>
        <time>2025-05-02T10:57:13Z</time>
      </trkpt>
      <trkpt lat="42.010622983798385" lon="-7.458088025450707">
        <ele>422.16000000000003</ele>
        <time>2025-05-02T10:57:16Z</time>
      </trkpt>
      <trkpt lat="42.010613009333611" lon="-7.457863977178931">
        <ele>422.16000000000003</ele>
        <time>2025-05-02T10:57:17Z</time>
      </trkpt>
      <trkpt lat="42.010704036802053" lon="-7.456209976226091">
        <ele>422.16000000000003</ele>
        <time>2025-05-02T10:57:24Z</time>
      </trkpt>
      <trkpt lat="42.010699007660151" lon="-7.455993974581361">
        <ele>422.16000000000003</ele>
        <time>2025-05-02T10:57:25Z</time>
      </trkpt>
      <trkpt lat="42.010688027366996" lon="-7.455548979341984">
        <ele>422.63999999999999</ele>
        <time>2025-05-02T10:57:27Z</time>
      </trkpt>
      <trkpt lat="42.010621977970004" lon="-7.455342030152679">
        <ele>423.12</ele>
        <time>2025-05-02T10:57:28Z</time>
      </trkpt>
      <trkpt lat="42.010538997128606" lon="-7.455082023516297">
        <ele>423.60000000000002</ele>
        <time>2025-05-02T10:57:29Z</time>
      </trkpt>
      <trkpt lat="42.010452998802066" lon="-7.454946991056204">
        <ele>424.07999999999998</ele>
        <time>2025-05-02T10:57:30Z</time>
      </trkpt>
      <trkpt lat="42.010319977998734" lon="-7.454783963039517">
        <ele>424.56</ele>
        <time>2025-05-02T10:57:31Z</time>
      </trkpt>
      <trkpt lat="42.010172959417105" lon="-7.454650020226836">
        <ele>425.04000000000002</ele>
        <time>2025-05-02T10:57:32Z</time>
      </trkpt>
      <trkpt lat="42.009998029097915" lon="-7.454541977494955">
        <ele>425.51999999999998</ele>
        <time>2025-05-02T10:57:33Z</time>
      </trkpt>
      <trkpt lat="42.008733032271266" lon="-7.453632038086653">
        <ele>425.04000000000002</ele>
        <time>2025-05-02T10:57:41Z</time>
      </trkpt>
      <trkpt lat="42.007575994357467" lon="-7.452342985197902">
        <ele>423.12</ele>
        <time>2025-05-02T10:57:50Z</time>
      </trkpt>
      <trkpt lat="42.006598999723792" lon="-7.450841031968594">
        <ele>425.04000000000002</ele>
        <time>2025-05-02T10:57:59Z</time>
      </trkpt>
      <trkpt lat="42.006504032760859" lon="-7.450674986466765">
        <ele>425.04000000000002</ele>
        <time>2025-05-02T10:58:00Z</time>
      </trkpt>
      <trkpt lat="42.005825014784932" lon="-7.449494982138276">
        <ele>426</ele>
        <time>2025-05-02T10:58:07Z</time>
      </trkpt>
      <trkpt lat="42.004893030971289" lon="-7.448200983926654">
        <ele>427.44</ele>
        <time>2025-05-02T10:58:16Z</time>
      </trkpt>
      <trkpt lat="42.004435965791345" lon="-7.447669990360737">
        <ele>426.95999999999998</ele>
        <time>2025-05-02T10:58:20Z</time>
      </trkpt>
      <trkpt lat="42.004327001050115" lon="-7.447574017569423">
        <ele>427.44</ele>
        <time>2025-05-02T10:58:21Z</time>
      </trkpt>
      <trkpt lat="42.004217030480504" lon="-7.44750302284956">
        <ele>427.44</ele>
        <time>2025-05-02T10:58:22Z</time>
      </trkpt>
      <trkpt lat="42.003316981717944" lon="-7.446932969614863">
        <ele>426.48000000000002</ele>
        <time>2025-05-02T10:58:31Z</time>
      </trkpt>
      <trkpt lat="42.00236395932734" lon="-7.446327041834593">
        <ele>424.56</ele>
        <time>2025-05-02T10:58:40Z</time>
      </trkpt>
      <trkpt lat="42.002266980707645" lon="-7.446216987445951">
        <ele>424.07999999999998</ele>
        <time>2025-05-02T10:58:41Z</time>
      </trkpt>
      <trkpt lat="42.001511016860604" lon="-7.445244016125798">
        <ele>419.26999999999998</ele>
        <time>2025-05-02T10:58:49Z</time>
      </trkpt>
      <trkpt lat="42.001046994701028" lon="-7.444586036726832">
        <ele>417.82999999999998</ele>
        <time>2025-05-02T10:58:54Z</time>
      </trkpt>
      <trkpt lat="42.000946998596191" lon="-7.444439018145204">
        <ele>418.31</ele>
        <time>2025-05-02T10:58:55Z</time>
      </trkpt>
      <trkpt lat="42.000907016918063" lon="-7.444284036755562">
        <ele>418.31</ele>
        <time>2025-05-02T10:58:56Z</time>
      </trkpt>
      <trkpt lat="42.000862006098032" lon="-7.444112040102482">
        <ele>418.31</ele>
        <time>2025-05-02T10:58:57Z</time>
      </trkpt>
      <trkpt lat="42.000818001106381" lon="-7.443940965458751">
        <ele>418.31</ele>
        <time>2025-05-02T10:58:58Z</time>
      </trkpt>
      <trkpt lat="42.000337969511747" lon="-7.442181017249823">
        <ele>420.23000000000002</ele>
        <time>2025-05-02T10:59:08Z</time>
      </trkpt>
      <trkpt lat="42.000245014205575" lon="-7.442064005881548">
        <ele>419.75</ele>
        <time>2025-05-02T10:59:09Z</time>
      </trkpt>
      <trkpt lat="42.000122973695397" lon="-7.442010026425123">
        <ele>419.75</ele>
        <time>2025-05-02T10:59:10Z</time>
      </trkpt>
      <trkpt lat="41.999081019312143" lon="-7.441668966785073">
        <ele>419.26999999999998</ele>
        <time>2025-05-02T10:59:18Z</time>
      </trkpt>
      <trkpt lat="41.998721016570926" lon="-7.441552961245179">
        <ele>418.31</ele>
        <time>2025-05-02T10:59:21Z</time>
      </trkpt>
      <trkpt lat="41.998504009097815" lon="-7.441448019817472">
        <ele>417.82999999999998</ele>
        <time>2025-05-02T10:59:23Z</time>
      </trkpt>
      <trkpt lat="41.998398983851075" lon="-7.441385993734002">
        <ele>417.82999999999998</ele>
        <time>2025-05-02T10:59:24Z</time>
      </trkpt>
      <trkpt lat="41.998310973867774" lon="-7.441271999850869">
        <ele>417.82999999999998</ele>
        <time>2025-05-02T10:59:25Z</time>
      </trkpt>
      <trkpt lat="41.998141994699836" lon="-7.440993972122669">
        <ele>418.31</ele>
        <time>2025-05-02T10:59:27Z</time>
      </trkpt>
      <trkpt lat="41.997704962268472" lon="-7.440286036580801">
        <ele>419.26999999999998</ele>
        <time>2025-05-02T10:59:32Z</time>
      </trkpt>
      <trkpt lat="41.996677005663514" lon="-7.439200999215245">
        <ele>420.23000000000002</ele>
        <time>2025-05-02T10:59:41Z</time>
      </trkpt>
      <trkpt lat="41.995935039594769" lon="-7.438431037589908">
        <ele>419.26999999999998</ele>
        <time>2025-05-02T10:59:46Z</time>
      </trkpt>
      <trkpt lat="41.995355011895299" lon="-7.437841035425663">
        <ele>419.75</ele>
        <time>2025-05-02T10:59:50Z</time>
      </trkpt>
      <trkpt lat="41.994260000064969" lon="-7.436728002503514">
        <ele>422.16000000000003</ele>
        <time>2025-05-02T10:59:58Z</time>
      </trkpt>
      <trkpt lat="41.992838010191917" lon="-7.43527801707387">
        <ele>429.85000000000002</ele>
        <time>2025-05-02T11:00:08Z</time>
      </trkpt>
      <trkpt lat="41.992698032408953" lon="-7.435138039290905">
        <ele>430.32999999999998</ele>
        <time>2025-05-02T11:00:09Z</time>
      </trkpt>
      <trkpt lat="41.992546990513802" lon="-7.435051035135984">
        <ele>430.81</ele>
        <time>2025-05-02T11:00:10Z</time>
      </trkpt>
      <trkpt lat="41.992394020780921" lon="-7.434974005445838">
        <ele>431.29000000000002</ele>
        <time>2025-05-02T11:00:11Z</time>
      </trkpt>
      <trkpt lat="41.992226969450712" lon="-7.434949027374387">
        <ele>431.29000000000002</ele>
        <time>2025-05-02T11:00:12Z</time>
      </trkpt>
      <trkpt lat="41.992052961140871" lon="-7.434922959655523">
        <ele>431.29000000000002</ele>
        <time>2025-05-02T11:00:13Z</time>
      </trkpt>
      <trkpt lat="41.991207981482148" lon="-7.434783987700939">
        <ele>434.17000000000002</ele>
        <time>2025-05-02T11:00:18Z</time>
      </trkpt>
      <trkpt lat="41.991073032841086" lon="-7.43470000103116">
        <ele>435.13</ele>
        <time>2025-05-02T11:00:19Z</time>
      </trkpt>
      <trkpt lat="41.990946969017386" lon="-7.434585001319647">
        <ele>436.10000000000002</ele>
        <time>2025-05-02T11:00:20Z</time>
      </trkpt>
      <trkpt lat="41.990827023983002" lon="-7.434429014101625">
        <ele>437.06</ele>
        <time>2025-05-02T11:00:21Z</time>
      </trkpt>
      <trkpt lat="41.990697020664811" lon="-7.434233967214823">
        <ele>437.54000000000002</ele>
        <time>2025-05-02T11:00:22Z</time>
      </trkpt>
      <trkpt lat="41.990576991811395" lon="-7.434007991105318">
        <ele>438.5</ele>
        <time>2025-05-02T11:00:23Z</time>
      </trkpt>
      <trkpt lat="41.990464003756642" lon="-7.433760976418853">
        <ele>438.98000000000002</ele>
        <time>2025-05-02T11:00:24Z</time>
      </trkpt>
      <trkpt lat="41.990242972970009" lon="-7.433314975351095">
        <ele>440.42000000000002</ele>
        <time>2025-05-02T11:00:26Z</time>
      </trkpt>
      <trkpt lat="41.990133002400398" lon="-7.43317399173975">
        <ele>440.42000000000002</ele>
        <time>2025-05-02T11:00:27Z</time>
      </trkpt>
      <trkpt lat="41.989958994090557" lon="-7.433081036433578">
        <ele>440.89999999999998</ele>
        <time>2025-05-02T11:00:28Z</time>
      </trkpt>
      <trkpt lat="41.98979496024549" lon="-7.432992020621896">
        <ele>441.38</ele>
        <time>2025-05-02T11:00:29Z</time>
      </trkpt>
      <trkpt lat="41.989636961370707" lon="-7.432907028123736">
        <ele>441.38</ele>
        <time>2025-05-02T11:00:30Z</time>
      </trkpt>
      <trkpt lat="41.989516010507941" lon="-7.432808959856629">
        <ele>441.86000000000001</ele>
        <time>2025-05-02T11:00:31Z</time>
      </trkpt>
      <trkpt lat="41.989418026059866" lon="-7.432702006772161">
        <ele>441.86000000000001</ele>
        <time>2025-05-02T11:00:32Z</time>
      </trkpt>
      <trkpt lat="41.989335967227817" lon="-7.432605028152466">
        <ele>441.86000000000001</ele>
        <time>2025-05-02T11:00:33Z</time>
      </trkpt>
      <trkpt lat="41.989300008863211" lon="-7.432448035106063">
        <ele>441.86000000000001</ele>
        <time>2025-05-02T11:00:34Z</time>
      </trkpt>
      <trkpt lat="41.989276958629489" lon="-7.432300010696054">
        <ele>441.86000000000001</ele>
        <time>2025-05-02T11:00:35Z</time>
      </trkpt>
      <trkpt lat="41.989287016913295" lon="-7.432130025699735">
        <ele>441.86000000000001</ele>
        <time>2025-05-02T11:00:36Z</time>
      </trkpt>
      <trkpt lat="41.989304032176733" lon="-7.431955011561513">
        <ele>441.86000000000001</ele>
        <time>2025-05-02T11:00:37Z</time>
      </trkpt>
      <trkpt lat="41.989375026896596" lon="-7.431795001029968">
        <ele>441.86000000000001</ele>
        <time>2025-05-02T11:00:38Z</time>
      </trkpt>
      <trkpt lat="41.989451972767711" lon="-7.431623004376888">
        <ele>441.86000000000001</ele>
        <time>2025-05-02T11:00:39Z</time>
      </trkpt>
      <trkpt lat="41.989619024097919" lon="-7.431250009685755">
        <ele>441.38</ele>
        <time>2025-05-02T11:00:41Z</time>
      </trkpt>
      <trkpt lat="41.98968599550426" lon="-7.431042976677418">
        <ele>440.89999999999998</ele>
        <time>2025-05-02T11:00:42Z</time>
      </trkpt>
      <trkpt lat="41.989735029637814" lon="-7.430822029709816">
        <ele>440.42000000000002</ele>
        <time>2025-05-02T11:00:43Z</time>
      </trkpt>
      <trkpt lat="41.989755984395742" lon="-7.430594963952899">
        <ele>440.42000000000002</ele>
        <time>2025-05-02T11:00:44Z</time>
      </trkpt>
      <trkpt lat="41.989766964688897" lon="-7.43037804029882">
        <ele>440.42000000000002</ele>
        <time>2025-05-02T11:00:45Z</time>
      </trkpt>
      <trkpt lat="41.989797977730632" lon="-7.430176958441734">
        <ele>440.42000000000002</ele>
        <time>2025-05-02T11:00:46Z</time>
      </trkpt>
      <trkpt lat="41.989856986328959" lon="-7.429817039519548">
        <ele>439.94</ele>
        <time>2025-05-02T11:00:48Z</time>
      </trkpt>
      <trkpt lat="41.989913983270526" lon="-7.429653005674481">
        <ele>439.45999999999998</ele>
        <time>2025-05-02T11:00:49Z</time>
      </trkpt>
      <trkpt lat="41.990139959380031" lon="-7.429067026823759">
        <ele>438.5</ele>
        <time>2025-05-02T11:00:53Z</time>
      </trkpt>
      <trkpt lat="41.990189999341965" lon="-7.428924031555653">
        <ele>438.01999999999998</ele>
        <time>2025-05-02T11:00:54Z</time>
      </trkpt>
      <trkpt lat="41.990654021501541" lon="-7.427822984755039">
        <ele>432.73000000000002</ele>
        <time>2025-05-02T11:01:02Z</time>
      </trkpt>
      <trkpt lat="41.991466982290149" lon="-7.426420021802187">
        <ele>431.29000000000002</ele>
        <time>2025-05-02T11:01:13Z</time>
      </trkpt>
      <trkpt lat="41.991531020030379" lon="-7.426277026534081">
        <ele>431.29000000000002</ele>
        <time>2025-05-02T11:01:14Z</time>
      </trkpt>
      <trkpt lat="41.991547029465437" lon="-7.426121039316058">
        <ele>430.81</ele>
        <time>2025-05-02T11:01:15Z</time>
      </trkpt>
      <trkpt lat="41.991563960909843" lon="-7.425961028784514">
        <ele>430.81</ele>
        <time>2025-05-02T11:01:16Z</time>
      </trkpt>
      <trkpt lat="41.991574019193649" lon="-7.425798000767827">
        <ele>431.29000000000002</ele>
        <time>2025-05-02T11:01:17Z</time>
      </trkpt>
      <trkpt lat="41.991612995043397" lon="-7.425127029418945">
        <ele>430.81</ele>
        <time>2025-05-02T11:01:21Z</time>
      </trkpt>
      <trkpt lat="41.991612995043397" lon="-7.424982022494078">
        <ele>430.81</ele>
        <time>2025-05-02T11:01:22Z</time>
      </trkpt>
      <trkpt lat="41.991634033620358" lon="-7.424025982618332">
        <ele>429.37</ele>
        <time>2025-05-02T11:01:28Z</time>
      </trkpt>
      <trkpt lat="41.991611989215016" lon="-7.423879969865084">
        <ele>428.88999999999999</ele>
        <time>2025-05-02T11:01:29Z</time>
      </trkpt>
      <trkpt lat="41.991549963131547" lon="-7.423777040094137">
        <ele>428.88999999999999</ele>
        <time>2025-05-02T11:01:30Z</time>
      </trkpt>
      <trkpt lat="41.991454996168613" lon="-7.423723982647061">
        <ele>428.88999999999999</ele>
        <time>2025-05-02T11:01:31Z</time>
      </trkpt>
      <trkpt lat="41.991358017548919" lon="-7.423671009019017">
        <ele>428.39999999999998</ele>
        <time>2025-05-02T11:01:32Z</time>
      </trkpt>
      <trkpt lat="41.991252992302179" lon="-7.423617029562593">
        <ele>428.88999999999999</ele>
        <time>2025-05-02T11:01:33Z</time>
      </trkpt>
      <trkpt lat="41.991141010075808" lon="-7.423561038449407">
        <ele>428.88999999999999</ele>
        <time>2025-05-02T11:01:34Z</time>
      </trkpt>
      <trkpt lat="41.990706995129585" lon="-7.423372026532888">
        <ele>427.92000000000002</ele>
        <time>2025-05-02T11:01:38Z</time>
      </trkpt>
      <trkpt lat="41.990481019020081" lon="-7.423243029043078">
        <ele>427.92000000000002</ele>
        <time>2025-05-02T11:01:40Z</time>
      </trkpt>
      <trkpt lat="41.990387979894876" lon="-7.423150995746255">
        <ele>427.44</ele>
        <time>2025-05-02T11:01:41Z</time>
      </trkpt>
      <trkpt lat="41.990293012931943" lon="-7.423056028783321">
        <ele>427.44</ele>
        <time>2025-05-02T11:01:42Z</time>
      </trkpt>
      <trkpt lat="41.98970602825284" lon="-7.422487987205386">
        <ele>426.48000000000002</ele>
        <time>2025-05-02T11:01:48Z</time>
      </trkpt>
      <trkpt lat="41.989596979692578" lon="-7.422444988042116">
        <ele>426.48000000000002</ele>
        <time>2025-05-02T11:01:49Z</time>
      </trkpt>
      <trkpt lat="41.989482985809445" lon="-7.422426966950297">
        <ele>426.48000000000002</ele>
        <time>2025-05-02T11:01:50Z</time>
      </trkpt>
      <trkpt lat="41.989363040775061" lon="-7.422443982213736">
        <ele>426.48000000000002</ele>
        <time>2025-05-02T11:01:51Z</time>
      </trkpt>
      <trkpt lat="41.989239994436502" lon="-7.422462003305554">
        <ele>426.48000000000002</ele>
        <time>2025-05-02T11:01:52Z</time>
      </trkpt>
      <trkpt lat="41.987767964601517" lon="-7.422695020213723">
        <ele>426.48000000000002</ele>
        <time>2025-05-02T11:02:04Z</time>
      </trkpt>
      <trkpt lat="41.985596967861056" lon="-7.423090981319547">
        <ele>425.51999999999998</ele>
        <time>2025-05-02T11:02:19Z</time>
      </trkpt>
      <trkpt lat="41.983850011602044" lon="-7.423385018482804">
        <ele>424.56</ele>
        <time>2025-05-02T11:02:27Z</time>
      </trkpt>
      <trkpt lat="41.980320978909731" lon="-7.424001004546881">
        <ele>423.60000000000002</ele>
        <time>2025-05-02T11:02:42Z</time>
      </trkpt>
      <trkpt lat="41.976464968174696" lon="-7.424650015309453">
        <ele>422.16000000000003</ele>
        <time>2025-05-02T11:02:59Z</time>
      </trkpt>
      <trkpt lat="41.973516969010234" lon="-7.425148990005255">
        <ele>419.75</ele>
        <time>2025-05-02T11:03:11Z</time>
      </trkpt>
      <trkpt lat="41.97196003049612" lon="-7.425420982763171">
        <ele>417.35000000000002</ele>
        <time>2025-05-02T11:03:17Z</time>
      </trkpt>
      <trkpt lat="41.969870002940297" lon="-7.425786014646292">
        <ele>415.91000000000003</ele>
        <time>2025-05-02T11:03:27Z</time>
      </trkpt>
      <trkpt lat="41.967864967882633" lon="-7.426167977973819">
        <ele>416.38999999999999</ele>
        <time>2025-05-02T11:03:39Z</time>
      </trkpt>
      <trkpt lat="41.965266996994615" lon="-7.426935005933046">
        <ele>415.43000000000001</ele>
        <time>2025-05-02T11:03:55Z</time>
      </trkpt>
      <trkpt lat="41.963536972180009" lon="-7.427469016984105">
        <ele>412.06</ele>
        <time>2025-05-02T11:04:06Z</time>
      </trkpt>
      <trkpt lat="41.962006017565727" lon="-7.427928010001779">
        <ele>404.85000000000002</ele>
        <time>2025-05-02T11:04:15Z</time>
      </trkpt>
      <trkpt lat="41.96083003655076" lon="-7.428266974166036">
        <ele>401.00999999999999</ele>
        <time>2025-05-02T11:04:22Z</time>
      </trkpt>
      <trkpt lat="41.959336968138814" lon="-7.428450034931302">
        <ele>397.63999999999999</ele>
        <time>2025-05-02T11:04:31Z</time>
      </trkpt>
      <trkpt lat="41.957552041858435" lon="-7.428601998835802">
        <ele>395.24000000000001</ele>
        <time>2025-05-02T11:04:42Z</time>
      </trkpt>
      <trkpt lat="41.955700982362032" lon="-7.428796961903572">
        <ele>394.75999999999999</ele>
        <time>2025-05-02T11:04:54Z</time>
      </trkpt>
      <trkpt lat="41.95477101020515" lon="-7.42906903848052">
        <ele>393.80000000000001</ele>
        <time>2025-05-02T11:05:02Z</time>
      </trkpt>
      <trkpt lat="41.953510036692023" lon="-7.42963096126914">
        <ele>393.80000000000001</ele>
        <time>2025-05-02T11:05:13Z</time>
      </trkpt>
      <trkpt lat="41.95230396464467" lon="-7.430348033085465">
        <ele>393.31999999999999</ele>
        <time>2025-05-02T11:05:24Z</time>
      </trkpt>
      <trkpt lat="41.951772971078753" lon="-7.430737037211657">
        <ele>392.83999999999997</ele>
        <time>2025-05-02T11:05:29Z</time>
      </trkpt>
      <trkpt lat="41.951230997219682" lon="-7.431124029681087">
        <ele>391.87</ele>
        <time>2025-05-02T11:05:34Z</time>
      </trkpt>
      <trkpt lat="41.951124966144562" lon="-7.431198041886091">
        <ele>391.87</ele>
        <time>2025-05-02T11:05:35Z</time>
      </trkpt>
      <trkpt lat="41.950063984841108" lon="-7.431950988247991">
        <ele>390.91000000000003</ele>
        <time>2025-05-02T11:05:45Z</time>
      </trkpt>
      <trkpt lat="41.948875011876225" lon="-7.432742994278669">
        <ele>391.87</ele>
        <time>2025-05-02T11:05:56Z</time>
      </trkpt>
      <trkpt lat="41.947711016982794" lon="-7.433152031153441">
        <ele>394.27999999999997</ele>
        <time>2025-05-02T11:06:06Z</time>
      </trkpt>
      <trkpt lat="41.946777021512389" lon="-7.433458976447582">
        <ele>394.75999999999999</ele>
        <time>2025-05-02T11:06:14Z</time>
      </trkpt>
      <trkpt lat="41.946441996842623" lon="-7.433575987815857">
        <ele>394.75999999999999</ele>
        <time>2025-05-02T11:06:17Z</time>
      </trkpt>
      <trkpt lat="41.946326997131109" lon="-7.433617981150746">
        <ele>394.75999999999999</ele>
        <time>2025-05-02T11:06:18Z</time>
      </trkpt>
      <trkpt lat="41.946216020733118" lon="-7.433650000020862">
        <ele>394.75999999999999</ele>
        <time>2025-05-02T11:06:19Z</time>
      </trkpt>
      <trkpt lat="41.946112001314759" lon="-7.433680007234216">
        <ele>394.75999999999999</ele>
        <time>2025-05-02T11:06:20Z</time>
      </trkpt>
      <trkpt lat="41.946018962189555" lon="-7.433709008619189">
        <ele>394.75999999999999</ele>
        <time>2025-05-02T11:06:21Z</time>
      </trkpt>
      <trkpt lat="41.945371041074395" lon="-7.433945965021849">
        <ele>394.27999999999997</ele>
        <time>2025-05-02T11:06:28Z</time>
      </trkpt>
      <trkpt lat="41.945271966978908" lon="-7.433965997770429">
        <ele>394.75999999999999</ele>
        <time>2025-05-02T11:06:29Z</time>
      </trkpt>
      <trkpt lat="41.944222971796989" lon="-7.434315020218492">
        <ele>395.24000000000001</ele>
        <time>2025-05-02T11:06:39Z</time>
      </trkpt>
      <trkpt lat="41.943934969604015" lon="-7.434410993009806">
        <ele>395.24000000000001</ele>
        <time>2025-05-02T11:06:42Z</time>
      </trkpt>
      <trkpt lat="41.943840002641082" lon="-7.434430019930005">
        <ele>395.24000000000001</ele>
        <time>2025-05-02T11:06:43Z</time>
      </trkpt>
      <trkpt lat="41.943740006536245" lon="-7.434457009658217">
        <ele>395.24000000000001</ele>
        <time>2025-05-02T11:06:44Z</time>
      </trkpt>
      <trkpt lat="41.94323499687016" lon="-7.434640992432833">
        <ele>396.19999999999999</ele>
        <time>2025-05-02T11:06:50Z</time>
      </trkpt>
      <trkpt lat="41.943012038245797" lon="-7.43471902795136">
        <ele>396.68000000000001</ele>
        <time>2025-05-02T11:06:57Z</time>
      </trkpt>
      <trkpt lat="41.942554973065853" lon="-7.434834027662873">
        <ele>396.19999999999999</ele>
        <time>2025-05-02T11:07:10Z</time>
      </trkpt>
      <trkpt lat="41.942381970584393" lon="-7.434847019612789">
        <ele>394.75999999999999</ele>
        <time>2025-05-02T11:07:14Z</time>
      </trkpt>
      <trkpt lat="41.942146020010114" lon="-7.434855988249183">
        <ele>393.80000000000001</ele>
        <time>2025-05-02T11:07:19Z</time>
      </trkpt>
      <trkpt lat="41.942103020846844" lon="-7.434862023219466">
        <ele>393.31999999999999</ele>
        <time>2025-05-02T11:07:20Z</time>
      </trkpt>
      <trkpt lat="41.942057004198432" lon="-7.434867974370718">
        <ele>393.31999999999999</ele>
        <time>2025-05-02T11:07:21Z</time>
      </trkpt>
      <trkpt lat="41.94201098755002" lon="-7.434874009341002">
        <ele>392.83999999999997</ele>
        <time>2025-05-02T11:07:22Z</time>
      </trkpt>
      <trkpt lat="41.941964970901608" lon="-7.434879960492253">
        <ele>392.36000000000001</ele>
        <time>2025-05-02T11:07:23Z</time>
      </trkpt>
      <trkpt lat="41.9419239833951" lon="-7.434885995462537">
        <ele>391.87</ele>
        <time>2025-05-02T11:07:24Z</time>
      </trkpt>
      <trkpt lat="41.941895987838507" lon="-7.434890018776059">
        <ele>391.87</ele>
        <time>2025-05-02T11:07:25Z</time>
      </trkpt>
      <trkpt lat="41.94185801781714" lon="-7.434895969927311">
        <ele>391.38999999999999</ele>
        <time>2025-05-02T11:07:26Z</time>
      </trkpt>
      <trkpt lat="41.941647967323661" lon="-7.434925977140665">
        <ele>390.91000000000003</ele>
        <time>2025-05-02T11:07:32Z</time>
      </trkpt>
      <trkpt lat="41.941561968997121" lon="-7.434933017939329">
        <ele>390.43000000000001</ele>
        <time>2025-05-02T11:07:34Z</time>
      </trkpt>
      <trkpt lat="41.94151503033936" lon="-7.434933017939329">
        <ele>390.43000000000001</ele>
        <time>2025-05-02T11:07:35Z</time>
      </trkpt>
      <trkpt lat="41.94147395901382" lon="-7.434933017939329">
        <ele>390.43000000000001</ele>
        <time>2025-05-02T11:07:36Z</time>
      </trkpt>
      <trkpt lat="41.94143095985055" lon="-7.43493502959609">
        <ele>390.43000000000001</ele>
        <time>2025-05-02T11:07:37Z</time>
      </trkpt>
      <trkpt lat="41.94138896651566" lon="-7.434938969090581">
        <ele>389.94999999999999</ele>
        <time>2025-05-02T11:07:38Z</time>
      </trkpt>
      <trkpt lat="41.94134596735239" lon="-7.434942992404103">
        <ele>389.47000000000003</ele>
        <time>2025-05-02T11:07:39Z</time>
      </trkpt>
      <trkpt lat="41.941303974017501" lon="-7.434947015717626">
        <ele>389.47000000000003</ele>
        <time>2025-05-02T11:07:40Z</time>
      </trkpt>
      <trkpt lat="41.941260974854231" lon="-7.434951961040497">
        <ele>388.99000000000001</ele>
        <time>2025-05-02T11:07:41Z</time>
      </trkpt>
      <trkpt lat="41.941218981519341" lon="-7.4349569901824">
        <ele>388.99000000000001</ele>
        <time>2025-05-02T11:07:42Z</time>
      </trkpt>
      <trkpt lat="41.941181011497974" lon="-7.434963025152683">
        <ele>388.99000000000001</ele>
        <time>2025-05-02T11:07:43Z</time>
      </trkpt>
      <trkpt lat="41.94115100428462" lon="-7.434967970475555">
        <ele>388.50999999999999</ele>
        <time>2025-05-02T11:07:44Z</time>
      </trkpt>
      <trkpt lat="41.941124014556408" lon="-7.434971993789077">
        <ele>388.50999999999999</ele>
        <time>2025-05-02T11:07:45Z</time>
      </trkpt>
      <trkpt lat="41.941101970151067" lon="-7.434976017102599">
        <ele>388.02999999999997</ele>
        <time>2025-05-02T11:07:46Z</time>
      </trkpt>
      <trkpt lat="41.941090989857912" lon="-7.43497802875936">
        <ele>388.02999999999997</ele>
        <time>2025-05-02T11:07:47Z</time>
      </trkpt>
      <trkpt lat="41.9410449732095" lon="-7.434982974082232">
        <ele>387.06999999999999</ele>
        <time>2025-05-02T11:07:56Z</time>
      </trkpt>
      <trkpt lat="41.940620010718703" lon="-7.435023039579392">
        <ele>382.25999999999999</ele>
        <time>2025-05-02T11:08:07Z</time>
      </trkpt>
      <trkpt lat="41.940553961321712" lon="-7.435025973245502">
        <ele>380.81999999999999</ele>
        <time>2025-05-02T11:08:15Z</time>
      </trkpt>
      <trkpt lat="41.940553961321712" lon="-7.435025973245502">
        <ele>380.81999999999999</ele>
        <time>2025-05-02T11:08:51Z</time>
      </trkpt>
      <trkpt lat="41.940553961321712" lon="-7.435025973245502">
        <ele>380.33999999999997</ele>
        <time>2025-05-02T11:09:33Z</time>
      </trkpt>
      <trkpt lat="41.940501993522048" lon="-7.435028990730643">
        <ele>380.81999999999999</ele>
        <time>2025-05-02T11:09:52Z</time>
      </trkpt>
      <trkpt lat="41.94046201184392" lon="-7.435031002387404">
        <ele>381.30000000000001</ele>
        <time>2025-05-02T11:09:53Z</time>
      </trkpt>
      <trkpt lat="41.94042001850903" lon="-7.435034019872546">
        <ele>381.77999999999997</ele>
        <time>2025-05-02T11:09:54Z</time>
      </trkpt>
      <trkpt lat="41.940381964668632" lon="-7.435036031529307">
        <ele>381.77999999999997</ele>
        <time>2025-05-02T11:09:55Z</time>
      </trkpt>
      <trkpt lat="41.940283980220556" lon="-7.435078024864197">
        <ele>381.77999999999997</ele>
        <time>2025-05-02T11:09:56Z</time>
      </trkpt>
      <trkpt lat="41.940278029069304" lon="-7.43515002541244">
        <ele>381.77999999999997</ele>
        <time>2025-05-02T11:09:57Z</time>
      </trkpt>
      <trkpt lat="41.94027098827064" lon="-7.435237029567361">
        <ele>381.77999999999997</ele>
        <time>2025-05-02T11:09:58Z</time>
      </trkpt>
      <trkpt lat="41.940264031291008" lon="-7.435328979045153">
        <ele>381.30000000000001</ele>
        <time>2025-05-02T11:09:59Z</time>
      </trkpt>
      <trkpt lat="41.940222959965467" lon="-7.435910012573004">
        <ele>380.81999999999999</ele>
        <time>2025-05-02T11:10:09Z</time>
      </trkpt>
      <trkpt lat="41.940193958580494" lon="-7.43631100282073">
        <ele>379.38</ele>
        <time>2025-05-02T11:10:21Z</time>
      </trkpt>
      <trkpt lat="41.940179038792849" lon="-7.436572015285492">
        <ele>378.89999999999998</ele>
        <time>2025-05-02T11:10:25Z</time>
      </trkpt>
      <trkpt lat="41.940179038792849" lon="-7.436915002763271">
        <ele>376.97000000000003</ele>
        <time>2025-05-02T11:10:35Z</time>
      </trkpt>
      <trkpt lat="41.940179038792849" lon="-7.437008963897824">
        <ele>376.97000000000003</ele>
        <time>2025-05-02T11:10:44Z</time>
      </trkpt>
      <trkpt lat="41.940179038792849" lon="-7.4370620213449">
        <ele>376.97000000000003</ele>
        <time>2025-05-02T11:10:45Z</time>
      </trkpt>
      <trkpt lat="41.940179038792849" lon="-7.437266958877444">
        <ele>376.49000000000001</ele>
        <time>2025-05-02T11:10:48Z</time>
      </trkpt>
      <trkpt lat="41.940179038792849" lon="-7.437335019931197">
        <ele>376.97000000000003</ele>
        <time>2025-05-02T11:10:49Z</time>
      </trkpt>
      <trkpt lat="41.940170992165804" lon="-7.437445996329188">
        <ele>376.97000000000003</ele>
        <time>2025-05-02T11:10:50Z</time>
      </trkpt>
      <trkpt lat="41.940150959417224" lon="-7.437450019642711">
        <ele>376.97000000000003</ele>
        <time>2025-05-02T11:10:51Z</time>
      </trkpt>
      <trkpt lat="41.940131010487676" lon="-7.437453959137201">
        <ele>376.97000000000003</ele>
        <time>2025-05-02T11:10:52Z</time>
      </trkpt>
      <trkpt lat="41.940107960253954" lon="-7.437458988279104">
        <ele>376.97000000000003</ele>
        <time>2025-05-02T11:10:53Z</time>
      </trkpt>
      <trkpt lat="41.940107960253954" lon="-7.437458988279104">
        <ele>376.49000000000001</ele>
        <time>2025-05-02T11:10:54Z</time>
      </trkpt>
      <trkpt lat="41.939761033281684" lon="-7.437542974948883">
        <ele>372.64999999999998</ele>
        <time>2025-05-02T11:11:09Z</time>
      </trkpt>
      <trkpt lat="41.939316038042307" lon="-7.437674989923835">
        <ele>372.17000000000002</ele>
        <time>2025-05-02T11:11:17Z</time>
      </trkpt>
      <trkpt lat="41.939269015565515" lon="-7.437687981873751">
        <ele>372.64999999999998</ele>
        <time>2025-05-02T11:11:18Z</time>
      </trkpt>
      <trkpt lat="41.939222998917103" lon="-7.437701979652047">
        <ele>373.13</ele>
        <time>2025-05-02T11:11:19Z</time>
      </trkpt>
      <trkpt lat="41.939178993925452" lon="-7.437713965773583">
        <ele>373.13</ele>
        <time>2025-05-02T11:11:20Z</time>
      </trkpt>
      <trkpt lat="41.939133983105421" lon="-7.437727963551879">
        <ele>373.13</ele>
        <time>2025-05-02T11:11:21Z</time>
      </trkpt>
      <trkpt lat="41.939087966457009" lon="-7.437742967158556">
        <ele>373.13</ele>
        <time>2025-05-02T11:11:22Z</time>
      </trkpt>
      <trkpt lat="41.939035998657346" lon="-7.437759982421994">
        <ele>373.13</ele>
        <time>2025-05-02T11:11:23Z</time>
      </trkpt>
      <trkpt lat="41.938735004514456" lon="-7.437854027375579">
        <ele>372.64999999999998</ele>
        <time>2025-05-02T11:11:30Z</time>
      </trkpt>
      <trkpt lat="41.938693011179566" lon="-7.437868025153875">
        <ele>372.64999999999998</ele>
        <time>2025-05-02T11:11:31Z</time>
      </trkpt>
      <trkpt lat="41.938651017844677" lon="-7.437882022932172">
        <ele>372.17000000000002</ele>
        <time>2025-05-02T11:11:32Z</time>
      </trkpt>
      <trkpt lat="41.938602989539504" lon="-7.43789803236723">
        <ele>372.17000000000002</ele>
        <time>2025-05-02T11:11:33Z</time>
      </trkpt>
      <trkpt lat="41.93855001591146" lon="-7.437914963811636">
        <ele>372.17000000000002</ele>
        <time>2025-05-02T11:11:34Z</time>
      </trkpt>
      <trkpt lat="41.938496036455035" lon="-7.437932984903455">
        <ele>372.17000000000002</ele>
        <time>2025-05-02T11:11:35Z</time>
      </trkpt>
      <trkpt lat="41.938296966254711" lon="-7.43798797018826">
        <ele>372.64999999999998</ele>
        <time>2025-05-02T11:11:39Z</time>
      </trkpt>
      <trkpt lat="41.938197975978255" lon="-7.438015965744853">
        <ele>372.64999999999998</ele>
        <time>2025-05-02T11:11:41Z</time>
      </trkpt>
      <trkpt lat="41.937556006014347" lon="-7.438198020681739">
        <ele>374.08999999999997</ele>
        <time>2025-05-02T11:11:50Z</time>
      </trkpt>
      <trkpt lat="41.937444023787975" lon="-7.438229033723474">
        <ele>374.56999999999999</ele>
        <time>2025-05-02T11:11:52Z</time>
      </trkpt>
      <trkpt lat="41.937385015189648" lon="-7.4382449593395">
        <ele>375.05000000000001</ele>
        <time>2025-05-02T11:11:53Z</time>
      </trkpt>
      <trkpt lat="41.937082009389997" lon="-7.438328023999929">
        <ele>376.49000000000001</ele>
        <time>2025-05-02T11:11:58Z</time>
      </trkpt>
      <trkpt lat="41.93693901412189" lon="-7.438365994021297">
        <ele>376.97000000000003</ele>
        <time>2025-05-02T11:12:00Z</time>
      </trkpt>
      <trkpt lat="41.936886962503195" lon="-7.438375968486071">
        <ele>377.44999999999999</ele>
        <time>2025-05-02T11:12:01Z</time>
      </trkpt>
      <trkpt lat="41.936522014439106" lon="-7.438446041196585">
        <ele>378.42000000000002</ele>
        <time>2025-05-02T11:12:06Z</time>
      </trkpt>
      <trkpt lat="41.93638002499938" lon="-7.438471019268036">
        <ele>378.89999999999998</ele>
        <time>2025-05-02T11:12:08Z</time>
      </trkpt>
      <trkpt lat="41.935403030365705" lon="-7.438639998435974">
        <ele>378.89999999999998</ele>
        <time>2025-05-02T11:12:19Z</time>
      </trkpt>
      <trkpt lat="41.935001034289598" lon="-7.438723985105753">
        <ele>379.38</ele>
        <time>2025-05-02T11:12:24Z</time>
      </trkpt>
      <trkpt lat="41.934914030134678" lon="-7.438743012025952">
        <ele>379.38</ele>
        <time>2025-05-02T11:12:25Z</time>
      </trkpt>
      <trkpt lat="41.934825014322996" lon="-7.438762038946152">
        <ele>379.86000000000001</ele>
        <time>2025-05-02T11:12:26Z</time>
      </trkpt>
      <trkpt lat="41.934737004339695" lon="-7.438779976218939">
        <ele>379.86000000000001</ele>
        <time>2025-05-02T11:12:27Z</time>
      </trkpt>
      <trkpt lat="41.934650000184774" lon="-7.438797997310758">
        <ele>379.86000000000001</ele>
        <time>2025-05-02T11:12:28Z</time>
      </trkpt>
      <trkpt lat="41.93423300050199" lon="-7.438887013122439">
        <ele>379.38</ele>
        <time>2025-05-02T11:12:33Z</time>
      </trkpt>
      <trkpt lat="41.934140967205167" lon="-7.438912997022271">
        <ele>379.38</ele>
        <time>2025-05-02T11:12:34Z</time>
      </trkpt>
      <trkpt lat="41.933941980823874" lon="-7.438968988135457">
        <ele>379.86000000000001</ele>
        <time>2025-05-02T11:12:36Z</time>
      </trkpt>
      <trkpt lat="41.933302022516727" lon="-7.439307030290365">
        <ele>379.86000000000001</ele>
        <time>2025-05-02T11:12:43Z</time>
      </trkpt>
      <trkpt lat="41.933213006705046" lon="-7.439369978383184">
        <ele>380.33999999999997</ele>
        <time>2025-05-02T11:12:44Z</time>
      </trkpt>
      <trkpt lat="41.932284962385893" lon="-7.440002979710698">
        <ele>381.77999999999997</ele>
        <time>2025-05-02T11:12:55Z</time>
      </trkpt>
      <trkpt lat="41.932195024564862" lon="-7.440057964995503">
        <ele>381.77999999999997</ele>
        <time>2025-05-02T11:12:56Z</time>
      </trkpt>
      <trkpt lat="41.932107014581561" lon="-7.44011303409934">
        <ele>381.77999999999997</ele>
        <time>2025-05-02T11:12:57Z</time>
      </trkpt>
      <trkpt lat="41.930992975831032" lon="-7.440572027117014">
        <ele>380.33999999999997</ele>
        <time>2025-05-02T11:13:08Z</time>
      </trkpt>
      <trkpt lat="41.929959990084171" lon="-7.440874027088285">
        <ele>377.94</ele>
        <time>2025-05-02T11:13:18Z</time>
      </trkpt>
      <trkpt lat="41.928602959960699" lon="-7.44125297293067">
        <ele>375.52999999999997</ele>
        <time>2025-05-02T11:13:31Z</time>
      </trkpt>
      <trkpt lat="41.927372999489307" lon="-7.441591015085578">
        <ele>375.05000000000001</ele>
        <time>2025-05-02T11:13:41Z</time>
      </trkpt>
      <trkpt lat="41.926350994035602" lon="-7.441931990906596">
        <ele>377.94</ele>
        <time>2025-05-02T11:13:50Z</time>
      </trkpt>
      <trkpt lat="41.926267007365823" lon="-7.441959986463189">
        <ele>377.94</ele>
        <time>2025-05-02T11:13:51Z</time>
      </trkpt>
      <trkpt lat="41.926186038181186" lon="-7.441986976191402">
        <ele>378.42000000000002</ele>
        <time>2025-05-02T11:13:52Z</time>
      </trkpt>
      <trkpt lat="41.926105991005898" lon="-7.442016983404756">
        <ele>378.89999999999998</ele>
        <time>2025-05-02T11:13:53Z</time>
      </trkpt>
      <trkpt lat="41.926026027649641" lon="-7.442049002274871">
        <ele>379.38</ele>
        <time>2025-05-02T11:13:54Z</time>
      </trkpt>
      <trkpt lat="41.925940029323101" lon="-7.442083032801747">
        <ele>379.38</ele>
        <time>2025-05-02T11:13:55Z</time>
      </trkpt>
      <trkpt lat="41.925845984369516" lon="-7.442119996994734">
        <ele>379.38</ele>
        <time>2025-05-02T11:13:56Z</time>
      </trkpt>
      <trkpt lat="41.925749005749822" lon="-7.442157967016101">
        <ele>379.86000000000001</ele>
        <time>2025-05-02T11:13:57Z</time>
      </trkpt>
      <trkpt lat="41.924681989476085" lon="-7.442578990012407">
        <ele>378.89999999999998</ele>
        <time>2025-05-02T11:14:06Z</time>
      </trkpt>
      <trkpt lat="41.923177018761635" lon="-7.443173015490174">
        <ele>379.38</ele>
        <time>2025-05-02T11:14:18Z</time>
      </trkpt>
      <trkpt lat="41.921395026147366" lon="-7.443684982135892">
        <ele>380.33999999999997</ele>
        <time>2025-05-02T11:14:32Z</time>
      </trkpt>
      <trkpt lat="41.919598029926419" lon="-7.443795036524534">
        <ele>383.22000000000003</ele>
        <time>2025-05-02T11:14:46Z</time>
      </trkpt>
      <trkpt lat="41.918170005083084" lon="-7.443706020712853">
        <ele>382.25999999999999</ele>
        <time>2025-05-02T11:14:57Z</time>
      </trkpt>
      <trkpt lat="41.917068036273122" lon="-7.443409971892834">
        <ele>380.33999999999997</ele>
        <time>2025-05-02T11:15:06Z</time>
      </trkpt>
      <trkpt lat="41.915310015901923" lon="-7.443302012979984">
        <ele>381.30000000000001</ele>
        <time>2025-05-02T11:15:20Z</time>
      </trkpt>
      <trkpt lat="41.913583008572459" lon="-7.443226994946599">
        <ele>380.33999999999997</ele>
        <time>2025-05-02T11:15:35Z</time>
      </trkpt>
      <trkpt lat="41.913494998589158" lon="-7.443219032138586">
        <ele>380.33999999999997</ele>
        <time>2025-05-02T11:15:36Z</time>
      </trkpt>
      <trkpt lat="41.913406988605857" lon="-7.443364961072803">
        <ele>379.86000000000001</ele>
        <time>2025-05-02T11:15:37Z</time>
      </trkpt>
      <trkpt lat="41.91326298750937" lon="-7.443541986867786">
        <ele>379.86000000000001</ele>
        <time>2025-05-02T11:15:39Z</time>
      </trkpt>
      <trkpt lat="41.913140024989843" lon="-7.443546010181308">
        <ele>379.86000000000001</ele>
        <time>2025-05-02T11:15:40Z</time>
      </trkpt>
      <trkpt lat="41.913067018613219" lon="-7.443492030724883">
        <ele>379.86000000000001</ele>
        <time>2025-05-02T11:15:41Z</time>
      </trkpt>
      <trkpt lat="41.913013961166143" lon="-7.443451965227723">
        <ele>379.86000000000001</ele>
        <time>2025-05-02T11:15:42Z</time>
      </trkpt>
      <trkpt lat="41.912954030558467" lon="-7.443321039900184">
        <ele>379.86000000000001</ele>
        <time>2025-05-02T11:15:43Z</time>
      </trkpt>
      <trkpt lat="41.912845987826586" lon="-7.44320897385478">
        <ele>379.86000000000001</ele>
        <time>2025-05-02T11:15:44Z</time>
      </trkpt>
      <trkpt lat="41.912754960358143" lon="-7.443198999390006">
        <ele>379.38</ele>
        <time>2025-05-02T11:15:45Z</time>
      </trkpt>
      <trkpt lat="41.912656975910068" lon="-7.443188019096851">
        <ele>379.86000000000001</ele>
        <time>2025-05-02T11:15:46Z</time>
      </trkpt>
      <trkpt lat="41.912553962320089" lon="-7.443177038803697">
        <ele>379.86000000000001</ele>
        <time>2025-05-02T11:15:47Z</time>
      </trkpt>
      <trkpt lat="41.912451032549143" lon="-7.443173015490174">
        <ele>379.86000000000001</ele>
        <time>2025-05-02T11:15:48Z</time>
      </trkpt>
      <trkpt lat="41.912351036444306" lon="-7.443171003833413">
        <ele>379.86000000000001</ele>
        <time>2025-05-02T11:15:49Z</time>
      </trkpt>
      <trkpt lat="41.912249028682709" lon="-7.44316203519702">
        <ele>379.86000000000001</ele>
        <time>2025-05-02T11:15:50Z</time>
      </trkpt>
      <trkpt lat="41.912150960415602" lon="-7.443152982741594">
        <ele>379.86000000000001</ele>
        <time>2025-05-02T11:15:51Z</time>
      </trkpt>
      <trkpt lat="41.912065967917442" lon="-7.443145019933581">
        <ele>379.86000000000001</ele>
        <time>2025-05-02T11:15:52Z</time>
      </trkpt>
      <trkpt lat="41.911990027874708" lon="-7.443138984963298">
        <ele>379.86000000000001</ele>
        <time>2025-05-02T11:15:53Z</time>
      </trkpt>
      <trkpt lat="41.911854995414615" lon="-7.443345012143254">
        <ele>380.33999999999997</ele>
        <time>2025-05-02T11:15:54Z</time>
      </trkpt>
      <trkpt lat="41.911690961569548" lon="-7.443504016846418">
        <ele>380.81999999999999</ele>
        <time>2025-05-02T11:15:57Z</time>
      </trkpt>
      <trkpt lat="41.911604963243008" lon="-7.443519020453095">
        <ele>380.81999999999999</ele>
        <time>2025-05-02T11:15:58Z</time>
      </trkpt>
      <trkpt lat="41.911519970744848" lon="-7.443533018231392">
        <ele>380.81999999999999</ele>
        <time>2025-05-02T11:15:59Z</time>
      </trkpt>
      <trkpt lat="41.911417040973902" lon="-7.443438973277807">
        <ele>381.30000000000001</ele>
        <time>2025-05-02T11:16:00Z</time>
      </trkpt>
      <trkpt lat="41.911356020718813" lon="-7.443359009921551">
        <ele>381.30000000000001</ele>
        <time>2025-05-02T11:16:01Z</time>
      </trkpt>
      <trkpt lat="41.911297012120485" lon="-7.443279968574643">
        <ele>381.30000000000001</ele>
        <time>2025-05-02T11:16:02Z</time>
      </trkpt>
      <trkpt lat="41.911191986873746" lon="-7.443234035745263">
        <ele>381.30000000000001</ele>
        <time>2025-05-02T11:16:03Z</time>
      </trkpt>
      <trkpt lat="41.91109299659729" lon="-7.443191036581993">
        <ele>381.30000000000001</ele>
        <time>2025-05-02T11:16:04Z</time>
      </trkpt>
      <trkpt lat="41.910954024642706" lon="-7.443130016326904">
        <ele>381.30000000000001</ele>
        <time>2025-05-02T11:16:05Z</time>
      </trkpt>
      <trkpt lat="41.909854989498854" lon="-7.443063966929913">
        <ele>380.81999999999999</ele>
        <time>2025-05-02T11:16:15Z</time>
      </trkpt>
      <trkpt lat="41.908810017630458" lon="-7.443023985251784">
        <ele>381.30000000000001</ele>
        <time>2025-05-02T11:16:27Z</time>
      </trkpt>
      <trkpt lat="41.908379020169377" lon="-7.443007975816727">
        <ele>382.25999999999999</ele>
        <time>2025-05-02T11:16:32Z</time>
      </trkpt>
      <trkpt lat="41.908298972994089" lon="-7.443004958331585">
        <ele>382.25999999999999</ele>
        <time>2025-05-02T11:16:33Z</time>
      </trkpt>
      <trkpt lat="41.908185984939337" lon="-7.443130016326904">
        <ele>382.25999999999999</ele>
        <time>2025-05-02T11:16:34Z</time>
      </trkpt>
      <trkpt lat="41.908153966069221" lon="-7.44314300827682">
        <ele>382.25999999999999</ele>
        <time>2025-05-02T11:16:35Z</time>
      </trkpt>
      <trkpt lat="41.908068973571062" lon="-7.443173015490174">
        <ele>382.25999999999999</ele>
        <time>2025-05-02T11:16:36Z</time>
      </trkpt>
      <trkpt lat="41.907982975244522" lon="-7.443147031590343">
        <ele>382.25999999999999</ele>
        <time>2025-05-02T11:16:37Z</time>
      </trkpt>
      <trkpt lat="41.907950034365058" lon="-7.443130016326904">
        <ele>381.77999999999997</ele>
        <time>2025-05-02T11:16:38Z</time>
      </trkpt>
      <trkpt lat="41.907820031046867" lon="-7.442976040765643">
        <ele>381.77999999999997</ele>
        <time>2025-05-02T11:16:39Z</time>
      </trkpt>
      <trkpt lat="41.90772196277976" lon="-7.44297101162374">
        <ele>381.77999999999997</ele>
        <time>2025-05-02T11:16:40Z</time>
      </trkpt>
      <trkpt lat="41.907615009695292" lon="-7.442965982481837">
        <ele>381.77999999999997</ele>
        <time>2025-05-02T11:16:41Z</time>
      </trkpt>
      <trkpt lat="41.907494980841875" lon="-7.442960031330586">
        <ele>381.77999999999997</ele>
        <time>2025-05-02T11:16:42Z</time>
      </trkpt>
      <trkpt lat="41.906406003981829" lon="-7.442805971950293">
        <ele>382.25999999999999</ele>
        <time>2025-05-02T11:16:49Z</time>
      </trkpt>
      <trkpt lat="41.903729997575283" lon="-7.442324012517929">
        <ele>383.69999999999999</ele>
        <time>2025-05-02T11:17:04Z</time>
      </trkpt>
      <trkpt lat="41.900532972067595" lon="-7.441761000081897">
        <ele>383.22000000000003</ele>
        <time>2025-05-02T11:17:20Z</time>
      </trkpt>
      <trkpt lat="41.897808015346527" lon="-7.441472997888923">
        <ele>383.69999999999999</ele>
        <time>2025-05-02T11:17:34Z</time>
      </trkpt>
      <trkpt lat="41.894630016759038" lon="-7.441609958186746">
        <ele>384.66000000000003</ele>
        <time>2025-05-02T11:17:50Z</time>
      </trkpt>
      <trkpt lat="41.891357973217964" lon="-7.441737027838826">
        <ele>384.66000000000003</ele>
        <time>2025-05-02T11:18:06Z</time>
      </trkpt>
      <trkpt lat="41.889524012804031" lon="-7.441697968170047">
        <ele>384.66000000000003</ele>
        <time>2025-05-02T11:18:15Z</time>
      </trkpt>
      <trkpt lat="41.889330977573991" lon="-7.441615993157029">
        <ele>384.66000000000003</ele>
        <time>2025-05-02T11:18:16Z</time>
      </trkpt>
      <trkpt lat="41.887054033577442" lon="-7.440622989088297">
        <ele>387.06999999999999</ele>
        <time>2025-05-02T11:18:28Z</time>
      </trkpt>
      <trkpt lat="41.884078960865736" lon="-7.439501993358135">
        <ele>386.11000000000001</ele>
        <time>2025-05-02T11:18:43Z</time>
      </trkpt>
      <trkpt lat="41.881866976618767" lon="-7.438785005360842">
        <ele>388.99000000000001</ele>
        <time>2025-05-02T11:18:56Z</time>
      </trkpt>
      <trkpt lat="41.881387028843164" lon="-7.438668999820948">
        <ele>388.99000000000001</ele>
        <time>2025-05-02T11:18:59Z</time>
      </trkpt>
      <trkpt lat="41.881234981119633" lon="-7.438633963465691">
        <ele>388.50999999999999</ele>
        <time>2025-05-02T11:19:00Z</time>
      </trkpt>
      <trkpt lat="41.881075976416469" lon="-7.438636980950832">
        <ele>388.50999999999999</ele>
        <time>2025-05-02T11:19:01Z</time>
      </trkpt>
      <trkpt lat="41.880911020562053" lon="-7.438655002042651">
        <ele>388.50999999999999</ele>
        <time>2025-05-02T11:19:02Z</time>
      </trkpt>
      <trkpt lat="41.880741035565734" lon="-7.438678974285722">
        <ele>388.02999999999997</ele>
        <time>2025-05-02T11:19:03Z</time>
      </trkpt>
      <trkpt lat="41.878891987726092" lon="-7.439096979796886">
        <ele>389.94999999999999</ele>
        <time>2025-05-02T11:19:14Z</time>
      </trkpt>
      <trkpt lat="41.876346990466118" lon="-7.4396419711411">
        <ele>388.99000000000001</ele>
        <time>2025-05-02T11:19:29Z</time>
      </trkpt>
      <trkpt lat="41.874462990090251" lon="-7.440057964995503">
        <ele>387.06999999999999</ele>
        <time>2025-05-02T11:19:41Z</time>
      </trkpt>
      <trkpt lat="41.872553005814552" lon="-7.440338004380465">
        <ele>384.18000000000001</ele>
        <time>2025-05-02T11:19:54Z</time>
      </trkpt>
      <trkpt lat="41.871229000389576" lon="-7.440389972180128">
        <ele>382.25999999999999</ele>
        <time>2025-05-02T11:20:05Z</time>
      </trkpt>
      <trkpt lat="41.870013037696481" lon="-7.440443029627204">
        <ele>380.33999999999997</ele>
        <time>2025-05-02T11:20:15Z</time>
      </trkpt>
      <trkpt lat="41.868072040379047" lon="-7.44049902074039">
        <ele>376.00999999999999</ele>
        <time>2025-05-02T11:20:31Z</time>
      </trkpt>
      <trkpt lat="41.866750968620181" lon="-7.440361976623535">
        <ele>372.64999999999998</ele>
        <time>2025-05-02T11:20:42Z</time>
      </trkpt>
      <trkpt lat="41.865224959328771" lon="-7.439696034416556">
        <ele>371.69</ele>
        <time>2025-05-02T11:20:55Z</time>
      </trkpt>
      <trkpt lat="41.863381024450064" lon="-7.438876032829285">
        <ele>372.17000000000002</ele>
        <time>2025-05-02T11:21:08Z</time>
      </trkpt>
      <trkpt lat="41.861460981890559" lon="-7.438005991280079">
        <ele>374.56999999999999</ele>
        <time>2025-05-02T11:21:22Z</time>
      </trkpt>
      <trkpt lat="41.859437003731728" lon="-7.43710401467979">
        <ele>375.52999999999997</ele>
        <time>2025-05-02T11:21:36Z</time>
      </trkpt>
      <trkpt lat="41.858236966654658" lon="-7.436572015285492">
        <ele>374.56999999999999</ele>
        <time>2025-05-02T11:21:44Z</time>
      </trkpt>
      <trkpt lat="41.856080973520875" lon="-7.435598960146308">
        <ele>377.94</ele>
        <time>2025-05-02T11:21:59Z</time>
      </trkpt>
      <trkpt lat="41.854332005605102" lon="-7.434815000742674">
        <ele>383.22000000000003</ele>
        <time>2025-05-02T11:22:11Z</time>
      </trkpt>
      <trkpt lat="41.853236993774772" lon="-7.434229021891952">
        <ele>386.58999999999997</ele>
        <time>2025-05-02T11:22:20Z</time>
      </trkpt>
      <trkpt lat="41.851774016395211" lon="-7.433035019785166">
        <ele>383.69999999999999</ele>
        <time>2025-05-02T11:22:33Z</time>
      </trkpt>
      <trkpt lat="41.850427966564894" lon="-7.431643959134817">
        <ele>383.69999999999999</ele>
        <time>2025-05-02T11:22:46Z</time>
      </trkpt>
      <trkpt lat="41.850025970488787" lon="-7.431116988882422">
        <ele>384.66000000000003</ele>
        <time>2025-05-02T11:22:50Z</time>
      </trkpt>
      <trkpt lat="41.848975969478488" lon="-7.430283995345235">
        <ele>384.18000000000001</ele>
        <time>2025-05-02T11:22:58Z</time>
      </trkpt>
      <trkpt lat="41.846827017143369" lon="-7.429232988506556">
        <ele>379.38</ele>
        <time>2025-05-02T11:23:11Z</time>
      </trkpt>
      <trkpt lat="41.844088984653354" lon="-7.428004033863545">
        <ele>376.49000000000001</ele>
        <time>2025-05-02T11:23:28Z</time>
      </trkpt>
      <trkpt lat="41.841516997665167" lon="-7.426853030920029">
        <ele>375.05000000000001</ele>
        <time>2025-05-02T11:23:44Z</time>
      </trkpt>
      <trkpt lat="41.838948028162122" lon="-7.425562972202897">
        <ele>372.17000000000002</ele>
        <time>2025-05-02T11:24:00Z</time>
      </trkpt>
      <trkpt lat="41.836462039500475" lon="-7.424182975664735">
        <ele>372.64999999999998</ele>
        <time>2025-05-02T11:24:16Z</time>
      </trkpt>
      <trkpt lat="41.836058031767607" lon="-7.423895979300141">
        <ele>376.00999999999999</ele>
        <time>2025-05-02T11:24:21Z</time>
      </trkpt>
      <trkpt lat="41.835731975734234" lon="-7.423671009019017">
        <ele>378.89999999999998</ele>
        <time>2025-05-02T11:24:28Z</time>
      </trkpt>
      <trkpt lat="41.835511028766632" lon="-7.423559026792646">
        <ele>379.86000000000001</ele>
        <time>2025-05-02T11:24:31Z</time>
      </trkpt>
      <trkpt lat="41.835417989641428" lon="-7.42354704067111">
        <ele>379.86000000000001</ele>
        <time>2025-05-02T11:24:32Z</time>
      </trkpt>
      <trkpt lat="41.83531497605145" lon="-7.42354704067111">
        <ele>379.86000000000001</ele>
        <time>2025-05-02T11:24:33Z</time>
      </trkpt>
      <trkpt lat="41.834893031045794" lon="-7.423619963228703">
        <ele>379.86000000000001</ele>
        <time>2025-05-02T11:24:37Z</time>
      </trkpt>
      <trkpt lat="41.834785994142294" lon="-7.423599008470774">
        <ele>379.86000000000001</ele>
        <time>2025-05-02T11:24:38Z</time>
      </trkpt>
      <trkpt lat="41.834680968895555" lon="-7.423557015135884">
        <ele>379.86000000000001</ele>
        <time>2025-05-02T11:24:39Z</time>
      </trkpt>
      <trkpt lat="41.834570998325944" lon="-7.42350697517395">
        <ele>379.38</ele>
        <time>2025-05-02T11:24:40Z</time>
      </trkpt>
      <trkpt lat="41.834457004442811" lon="-7.423455007374287">
        <ele>378.89999999999998</ele>
        <time>2025-05-02T11:24:41Z</time>
      </trkpt>
      <trkpt lat="41.834337981417775" lon="-7.423400022089481">
        <ele>378.42000000000002</ele>
        <time>2025-05-02T11:24:42Z</time>
      </trkpt>
      <trkpt lat="41.833687964826822" lon="-7.423196006566286">
        <ele>376.00999999999999</ele>
        <time>2025-05-02T11:24:47Z</time>
      </trkpt>
      <trkpt lat="41.833545975387096" lon="-7.423196006566286">
        <ele>375.52999999999997</ele>
        <time>2025-05-02T11:24:48Z</time>
      </trkpt>
      <trkpt lat="41.832090960815549" lon="-7.423303965479136">
        <ele>374.08999999999997</ele>
        <time>2025-05-02T11:24:59Z</time>
      </trkpt>
      <trkpt lat="41.830810038372874" lon="-7.423500018194318">
        <ele>371.20999999999998</ele>
        <time>2025-05-02T11:25:11Z</time>
      </trkpt>
      <trkpt lat="41.830139989033341" lon="-7.423604959622026">
        <ele>370.73000000000002</ele>
        <time>2025-05-02T11:25:20Z</time>
      </trkpt>
      <trkpt lat="41.829629028216004" lon="-7.423750972375274">
        <ele>370.24000000000001</ele>
        <time>2025-05-02T11:25:27Z</time>
      </trkpt>
      <trkpt lat="41.828792011365294" lon="-7.423992035910487">
        <ele>369.75999999999999</ele>
        <time>2025-05-02T11:25:36Z</time>
      </trkpt>
      <trkpt lat="41.827964968979359" lon="-7.424248019233346">
        <ele>368.31999999999999</ele>
        <time>2025-05-02T11:25:43Z</time>
      </trkpt>
      <trkpt lat="41.826182976365089" lon="-7.424956960603595">
        <ele>368.31999999999999</ele>
        <time>2025-05-02T11:25:57Z</time>
      </trkpt>
      <trkpt lat="41.825544023886323" lon="-7.425307994708419">
        <ele>368.80000000000001</ele>
        <time>2025-05-02T11:26:06Z</time>
      </trkpt>
      <trkpt lat="41.825335985049605" lon="-7.425420982763171">
        <ele>368.80000000000001</ele>
        <time>2025-05-02T11:26:10Z</time>
      </trkpt>
      <trkpt lat="41.825288040563464" lon="-7.425445960834622">
        <ele>368.80000000000001</ele>
        <time>2025-05-02T11:26:11Z</time>
      </trkpt>
      <trkpt lat="41.825245963409543" lon="-7.425468005239964">
        <ele>368.80000000000001</ele>
        <time>2025-05-02T11:26:12Z</time>
      </trkpt>
      <trkpt lat="41.825210005044937" lon="-7.425487032160163">
        <ele>368.80000000000001</ele>
        <time>2025-05-02T11:26:13Z</time>
      </trkpt>
      <trkpt lat="41.825181003659964" lon="-7.42550203576684">
        <ele>368.80000000000001</ele>
        <time>2025-05-02T11:26:14Z</time>
      </trkpt>
      <trkpt lat="41.825161976739764" lon="-7.425512010231614">
        <ele>368.31999999999999</ele>
        <time>2025-05-02T11:26:15Z</time>
      </trkpt>
      <trkpt lat="41.824974976480007" lon="-7.42546197026968">
        <ele>368.31999999999999</ele>
        <time>2025-05-02T11:26:16Z</time>
      </trkpt>
      <trkpt lat="41.824972964823246" lon="-7.425448978319764">
        <ele>368.31999999999999</ele>
        <time>2025-05-02T11:26:17Z</time>
      </trkpt>
      <trkpt lat="41.824972964823246" lon="-7.425448978319764">
        <ele>367.83999999999997</ele>
        <time>2025-05-02T11:26:26Z</time>
      </trkpt>
      <trkpt lat="41.825011018663645" lon="-7.425321992486715">
        <ele>367.36000000000001</ele>
        <time>2025-05-02T11:26:32Z</time>
      </trkpt>
      <trkpt lat="41.825011018663645" lon="-7.425321992486715">
        <ele>366.39999999999998</ele>
        <time>2025-05-02T11:26:51Z</time>
      </trkpt>
      <trkpt lat="41.825011018663645" lon="-7.425321992486715">
        <ele>366.88</ele>
        <time>2025-05-02T11:27:34Z</time>
      </trkpt>
      <trkpt lat="41.825011018663645" lon="-7.425321992486715">
        <ele>366.88</ele>
        <time>2025-05-02T11:28:24Z</time>
      </trkpt>
      <trkpt lat="41.825011018663645" lon="-7.425321992486715">
        <ele>365.92000000000002</ele>
        <time>2025-05-02T11:29:25Z</time>
      </trkpt>
      <trkpt lat="41.825011018663645" lon="-7.425321992486715">
        <ele>365.92000000000002</ele>
        <time>2025-05-02T11:30:00Z</time>
      </trkpt>
      <trkpt lat="41.825011018663645" lon="-7.425321992486715">
        <ele>365.44</ele>
        <time>2025-05-02T11:30:50Z</time>
      </trkpt>
      <trkpt lat="41.825197013095021" lon="-7.425182014703751">
        <ele>354.38</ele>
        <time>2025-05-02T11:36:35Z</time>
      </trkpt>
      <trkpt lat="41.825250992551446" lon="-7.425110014155507">
        <ele>350.54000000000002</ele>
        <time>2025-05-02T11:36:56Z</time>
      </trkpt>
      <trkpt lat="41.825287034735084" lon="-7.425190983340144">
        <ele>347.64999999999998</ele>
        <time>2025-05-02T11:37:41Z</time>
      </trkpt>
      <trkpt lat="41.82532399892807" lon="-7.425169022753835">
        <ele>354.86000000000001</ele>
        <time>2025-05-02T11:38:22Z</time>
      </trkpt>
      <trkpt lat="41.825395999476314" lon="-7.425197018310428">
        <ele>362.55000000000001</ele>
        <time>2025-05-02T11:38:30Z</time>
      </trkpt>
      <trkpt lat="41.825415026396513" lon="-7.425226019695401">
        <ele>362.55000000000001</ele>
        <time>2025-05-02T11:38:31Z</time>
      </trkpt>
      <trkpt lat="41.825434975326061" lon="-7.425258038565517">
        <ele>364</ele>
        <time>2025-05-02T11:38:32Z</time>
      </trkpt>
      <trkpt lat="41.825450984761119" lon="-7.425283016636968">
        <ele>364.95999999999998</ele>
        <time>2025-05-02T11:38:33Z</time>
      </trkpt>
      <trkpt lat="41.825463976711035" lon="-7.425303971394897">
        <ele>365.92000000000002</ele>
        <time>2025-05-02T11:38:34Z</time>
      </trkpt>
      <trkpt lat="41.82543003000319" lon="-7.425372032448649">
        <ele>365.92000000000002</ele>
        <time>2025-05-02T11:38:35Z</time>
      </trkpt>
      <trkpt lat="41.825380995869637" lon="-7.425398016348481">
        <ele>365.92000000000002</ele>
        <time>2025-05-02T11:38:36Z</time>
      </trkpt>
      <trkpt lat="41.825315030291677" lon="-7.425431963056326">
        <ele>365.92000000000002</ele>
        <time>2025-05-02T11:38:37Z</time>
      </trkpt>
      <trkpt lat="41.825246969237924" lon="-7.425466999411583">
        <ele>365.44</ele>
        <time>2025-05-02T11:38:38Z</time>
      </trkpt>
      <trkpt lat="41.824438031762838" lon="-7.425880981609225">
        <ele>367.36000000000001</ele>
        <time>2025-05-02T11:38:47Z</time>
      </trkpt>
      <trkpt lat="41.823979038745165" lon="-7.426073011010885">
        <ele>369.27999999999997</ele>
        <time>2025-05-02T11:38:51Z</time>
      </trkpt>
      <trkpt lat="41.82287598028779" lon="-7.425955999642611">
        <ele>372.17000000000002</ele>
        <time>2025-05-02T11:39:00Z</time>
      </trkpt>
      <trkpt lat="41.821240000426769" lon="-7.425091993063688">
        <ele>370.73000000000002</ele>
        <time>2025-05-02T11:39:14Z</time>
      </trkpt>
      <trkpt lat="41.819790014997125" lon="-7.424317002296448">
        <ele>369.27999999999997</ele>
        <time>2025-05-02T11:39:26Z</time>
      </trkpt>
      <trkpt lat="41.818710006773472" lon="-7.423727000132203">
        <ele>371.20999999999998</ele>
        <time>2025-05-02T11:39:36Z</time>
      </trkpt>
      <trkpt lat="41.817023986950517" lon="-7.422919990494847">
        <ele>370.24000000000001</ele>
        <time>2025-05-02T11:39:51Z</time>
      </trkpt>
      <trkpt lat="41.815360011532903" lon="-7.422658978030086">
        <ele>371.69</ele>
        <time>2025-05-02T11:40:05Z</time>
      </trkpt>
      <trkpt lat="41.814155029132962" lon="-7.422735001891851">
        <ele>375.52999999999997</ele>
        <time>2025-05-02T11:40:15Z</time>
      </trkpt>
      <trkpt lat="41.814039023593068" lon="-7.422743970528245">
        <ele>375.05000000000001</ele>
        <time>2025-05-02T11:40:16Z</time>
      </trkpt>
      <trkpt lat="41.813538037240505" lon="-7.422724021598697">
        <ele>372.64999999999998</ele>
        <time>2025-05-02T11:40:21Z</time>
      </trkpt>
      <trkpt lat="41.813449021428823" lon="-7.422724021598697">
        <ele>371.69</ele>
        <time>2025-05-02T11:40:22Z</time>
      </trkpt>
      <trkpt lat="41.812501028180122" lon="-7.422701977193356">
        <ele>364</ele>
        <time>2025-05-02T11:40:32Z</time>
      </trkpt>
      <trkpt lat="41.812099032104015" lon="-7.422853019088507">
        <ele>362.06999999999999</ele>
        <time>2025-05-02T11:40:37Z</time>
      </trkpt>
      <trkpt lat="41.812043040990829" lon="-7.422842960804701">
        <ele>362.06999999999999</ele>
        <time>2025-05-02T11:40:38Z</time>
      </trkpt>
      <trkpt lat="41.811971962451935" lon="-7.422831980511546">
        <ele>361.58999999999997</ele>
        <time>2025-05-02T11:40:39Z</time>
      </trkpt>
      <trkpt lat="41.811905996873975" lon="-7.422821000218391">
        <ele>361.58999999999997</ele>
        <time>2025-05-02T11:40:40Z</time>
      </trkpt>
      <trkpt lat="41.811828967183828" lon="-7.422802979126573">
        <ele>361.11000000000001</ele>
        <time>2025-05-02T11:40:41Z</time>
      </trkpt>
      <trkpt lat="41.811756966635585" lon="-7.422758974134922">
        <ele>360.63</ele>
        <time>2025-05-02T11:40:42Z</time>
      </trkpt>
      <trkpt lat="41.811681026592851" lon="-7.422713963314891">
        <ele>360.63</ele>
        <time>2025-05-02T11:40:43Z</time>
      </trkpt>
      <trkpt lat="41.811519004404545" lon="-7.422616984695196">
        <ele>360.63</ele>
        <time>2025-05-02T11:40:45Z</time>
      </trkpt>
      <trkpt lat="41.811371985822916" lon="-7.422578008845449">
        <ele>360.14999999999998</ele>
        <time>2025-05-02T11:40:47Z</time>
      </trkpt>
      <trkpt lat="41.811291016638279" lon="-7.422556970268488">
        <ele>360.14999999999998</ele>
        <time>2025-05-02T11:40:48Z</time>
      </trkpt>
      <trkpt lat="41.81120996363461" lon="-7.422535009682179">
        <ele>360.14999999999998</ele>
        <time>2025-05-02T11:40:49Z</time>
      </trkpt>
      <trkpt lat="41.811130000278354" lon="-7.422513971105218">
        <ele>360.14999999999998</ele>
        <time>2025-05-02T11:40:50Z</time>
      </trkpt>
      <trkpt lat="41.811060011386871" lon="-7.422455968335271">
        <ele>360.14999999999998</ele>
        <time>2025-05-02T11:40:51Z</time>
      </trkpt>
      <trkpt lat="41.811002008616924" lon="-7.422396037727594">
        <ele>360.14999999999998</ele>
        <time>2025-05-02T11:40:52Z</time>
      </trkpt>
      <trkpt lat="41.810947023332119" lon="-7.422338034957647">
        <ele>360.14999999999998</ele>
        <time>2025-05-02T11:40:53Z</time>
      </trkpt>
      <trkpt lat="41.810849038884044" lon="-7.42223703302443">
        <ele>360.14999999999998</ele>
        <time>2025-05-02T11:40:55Z</time>
      </trkpt>
      <trkpt lat="41.810803022235632" lon="-7.422189004719257">
        <ele>360.14999999999998</ele>
        <time>2025-05-02T11:40:56Z</time>
      </trkpt>
      <trkpt lat="41.810619961470366" lon="-7.421998986974359">
        <ele>360.63</ele>
        <time>2025-05-02T11:41:03Z</time>
      </trkpt>
      <trkpt lat="41.810601018369198" lon="-7.421979960054159">
        <ele>360.63</ele>
        <time>2025-05-02T11:41:04Z</time>
      </trkpt>
      <trkpt lat="41.810427010059357" lon="-7.421804023906589">
        <ele>362.55000000000001</ele>
        <time>2025-05-02T11:41:14Z</time>
      </trkpt>
      <trkpt lat="41.810386022552848" lon="-7.421754989773035">
        <ele>363.51999999999998</ele>
        <time>2025-05-02T11:41:27Z</time>
      </trkpt>
      <trkpt lat="41.810386022552848" lon="-7.421754989773035">
        <ele>364.48000000000002</ele>
        <time>2025-05-02T11:42:13Z</time>
      </trkpt>
      <trkpt lat="41.810386022552848" lon="-7.421754989773035">
        <ele>364.48000000000002</ele>
        <time>2025-05-02T11:43:11Z</time>
      </trkpt>
      <trkpt lat="41.810386022552848" lon="-7.421754989773035">
        <ele>365.44</ele>
        <time>2025-05-02T11:44:12Z</time>
      </trkpt>
      <trkpt lat="41.810386022552848" lon="-7.421754989773035">
        <ele>365.44</ele>
        <time>2025-05-02T11:45:01Z</time>
      </trkpt>
      <trkpt lat="41.810386022552848" lon="-7.421754989773035">
        <ele>366.39999999999998</ele>
        <time>2025-05-02T11:45:53Z</time>
      </trkpt>
      <trkpt lat="41.810299018397927" lon="-7.422068975865841">
        <ele>371.20999999999998</ele>
        <time>2025-05-02T12:08:26Z</time>
      </trkpt>
      <trkpt lat="41.810251995921135" lon="-7.421934027224779">
        <ele>378.42000000000002</ele>
        <time>2025-05-02T12:09:09Z</time>
      </trkpt>
      <trkpt lat="41.810249984264374" lon="-7.421920029446483">
        <ele>373.61000000000001</ele>
        <time>2025-05-02T12:09:59Z</time>
      </trkpt>
      <trkpt lat="41.810271022841334" lon="-7.421629009768367">
        <ele>370.73000000000002</ele>
        <time>2025-05-02T12:10:37Z</time>
      </trkpt>
      <trkpt lat="41.810228023678064" lon="-7.421591039747">
        <ele>371.20999999999998</ele>
        <time>2025-05-02T12:10:38Z</time>
      </trkpt>
      <trkpt lat="41.810187036171556" lon="-7.421553991734982">
        <ele>371.20999999999998</ele>
        <time>2025-05-02T12:10:39Z</time>
      </trkpt>
      <trkpt lat="41.810146970674396" lon="-7.421518033370376">
        <ele>371.69</ele>
        <time>2025-05-02T12:10:40Z</time>
      </trkpt>
      <trkpt lat="41.81004798039794" lon="-7.42142197676003">
        <ele>371.69</ele>
        <time>2025-05-02T12:10:43Z</time>
      </trkpt>
      <trkpt lat="41.810015039518476" lon="-7.421387024223805">
        <ele>371.69</ele>
        <time>2025-05-02T12:10:44Z</time>
      </trkpt>
      <trkpt lat="41.809925017878413" lon="-7.421291973441839">
        <ele>372.64999999999998</ele>
        <time>2025-05-02T12:10:47Z</time>
      </trkpt>
      <trkpt lat="41.809785962104797" lon="-7.421145960688591">
        <ele>373.61000000000001</ele>
        <time>2025-05-02T12:10:50Z</time>
      </trkpt>
      <trkpt lat="41.80912303738296" lon="-7.420451017096639">
        <ele>377.94</ele>
        <time>2025-05-02T12:10:59Z</time>
      </trkpt>
      <trkpt lat="41.807991983368993" lon="-7.419286016374826">
        <ele>387.55000000000001</ele>
        <time>2025-05-02T12:11:10Z</time>
      </trkpt>
      <trkpt lat="41.806808039546013" lon="-7.418142976239324">
        <ele>394.27999999999997</ele>
        <time>2025-05-02T12:11:21Z</time>
      </trkpt>
      <trkpt lat="41.806705025956035" lon="-7.418076004832983">
        <ele>394.75999999999999</ele>
        <time>2025-05-02T12:11:22Z</time>
      </trkpt>
      <trkpt lat="41.806602012366056" lon="-7.418042980134487">
        <ele>394.75999999999999</ele>
        <time>2025-05-02T12:11:23Z</time>
      </trkpt>
      <trkpt lat="41.806495981290936" lon="-7.418013978749514">
        <ele>395.24000000000001</ele>
        <time>2025-05-02T12:11:24Z</time>
      </trkpt>
      <trkpt lat="41.806381987407804" lon="-7.418014984577894">
        <ele>395.24000000000001</ele>
        <time>2025-05-02T12:11:25Z</time>
      </trkpt>
      <trkpt lat="41.806267993524671" lon="-7.418050020933151">
        <ele>395.24000000000001</ele>
        <time>2025-05-02T12:11:26Z</time>
      </trkpt>
      <trkpt lat="41.806155005469918" lon="-7.418100982904434">
        <ele>394.75999999999999</ele>
        <time>2025-05-02T12:11:27Z</time>
      </trkpt>
      <trkpt lat="41.806036988273263" lon="-7.41815303452313">
        <ele>394.27999999999997</ele>
        <time>2025-05-02T12:11:28Z</time>
      </trkpt>
      <trkpt lat="41.805068962275982" lon="-7.418724009767175">
        <ele>391.38999999999999</ele>
        <time>2025-05-02T12:11:37Z</time>
      </trkpt>
      <trkpt lat="41.804982963949442" lon="-7.418810008093715">
        <ele>390.91000000000003</ele>
        <time>2025-05-02T12:11:38Z</time>
      </trkpt>
      <trkpt lat="41.804898977279663" lon="-7.418895000591874">
        <ele>390.43000000000001</ele>
        <time>2025-05-02T12:11:39Z</time>
      </trkpt>
      <trkpt lat="41.804780960083008" lon="-7.419183002784848">
        <ele>389.47000000000003</ele>
        <time>2025-05-02T12:11:41Z</time>
      </trkpt>
      <trkpt lat="41.804699990898371" lon="-7.419237988069654">
        <ele>389.47000000000003</ele>
        <time>2025-05-02T12:11:42Z</time>
      </trkpt>
      <trkpt lat="41.804609969258308" lon="-7.419298002496362">
        <ele>389.47000000000003</ele>
        <time>2025-05-02T12:11:43Z</time>
      </trkpt>
      <trkpt lat="41.804494969546795" lon="-7.419270006939769">
        <ele>388.99000000000001</ele>
        <time>2025-05-02T12:11:44Z</time>
      </trkpt>
      <trkpt lat="41.804395979270339" lon="-7.419224996119738">
        <ele>388.99000000000001</ele>
        <time>2025-05-02T12:11:45Z</time>
      </trkpt>
      <trkpt lat="41.804265975952148" lon="-7.419230025261641">
        <ele>388.50999999999999</ele>
        <time>2025-05-02T12:11:46Z</time>
      </trkpt>
      <trkpt lat="41.804150976240635" lon="-7.419261960312724">
        <ele>388.50999999999999</ele>
        <time>2025-05-02T12:11:47Z</time>
      </trkpt>
      <trkpt lat="41.80403002537787" lon="-7.419296996667981">
        <ele>388.02999999999997</ele>
        <time>2025-05-02T12:11:48Z</time>
      </trkpt>
      <trkpt lat="41.80390203371644" lon="-7.419333960860968">
        <ele>387.55000000000001</ele>
        <time>2025-05-02T12:11:49Z</time>
      </trkpt>
      <trkpt lat="41.802618009969592" lon="-7.420020019635558">
        <ele>391.38999999999999</ele>
        <time>2025-05-02T12:12:00Z</time>
      </trkpt>
      <trkpt lat="41.800851020962" lon="-7.42099299095571">
        <ele>397.16000000000003</ele>
        <time>2025-05-02T12:12:15Z</time>
      </trkpt>
      <trkpt lat="41.799080008640885" lon="-7.421963028609753">
        <ele>402.44999999999999</ele>
        <time>2025-05-02T12:12:30Z</time>
      </trkpt>
      <trkpt lat="41.797443022951484" lon="-7.422810019925237">
        <ele>402.93000000000001</ele>
        <time>2025-05-02T12:12:44Z</time>
      </trkpt>
      <trkpt lat="41.797335986047983" lon="-7.422853019088507">
        <ele>402.93000000000001</ele>
        <time>2025-05-02T12:12:45Z</time>
      </trkpt>
      <trkpt lat="41.79627500474453" lon="-7.423045970499516">
        <ele>400.05000000000001</ele>
        <time>2025-05-02T12:12:53Z</time>
      </trkpt>
      <trkpt lat="41.794631984084845" lon="-7.42326901294291">
        <ele>393.31999999999999</ele>
        <time>2025-05-02T12:13:06Z</time>
      </trkpt>
      <trkpt lat="41.793246958404779" lon="-7.423294996842742">
        <ele>388.50999999999999</ele>
        <time>2025-05-02T12:13:17Z</time>
      </trkpt>
      <trkpt lat="41.791915996000171" lon="-7.423185026273131">
        <ele>388.99000000000001</ele>
        <time>2025-05-02T12:13:28Z</time>
      </trkpt>
      <trkpt lat="41.791673004627228" lon="-7.423164993524551">
        <ele>388.02999999999997</ele>
        <time>2025-05-02T12:13:35Z</time>
      </trkpt>
      <trkpt lat="41.791510982438922" lon="-7.423156024888158">
        <ele>387.06999999999999</ele>
        <time>2025-05-02T12:13:42Z</time>
      </trkpt>
      <trkpt lat="41.791059030219913" lon="-7.423110008239746">
        <ele>386.58999999999997</ele>
        <time>2025-05-02T12:13:48Z</time>
      </trkpt>
      <trkpt lat="41.790971020236611" lon="-7.423110008239746">
        <ele>386.58999999999997</ele>
        <time>2025-05-02T12:13:49Z</time>
      </trkpt>
      <trkpt lat="41.78968096151948" lon="-7.422998026013374">
        <ele>383.69999999999999</ele>
        <time>2025-05-02T12:14:02Z</time>
      </trkpt>
      <trkpt lat="41.788430968299508" lon="-7.422932982444763">
        <ele>377.94</ele>
        <time>2025-05-02T12:14:13Z</time>
      </trkpt>
      <trkpt lat="41.788320997729897" lon="-7.422943962737918">
        <ele>377.44999999999999</ele>
        <time>2025-05-02T12:14:14Z</time>
      </trkpt>
      <trkpt lat="41.788209015503526" lon="-7.422956032678485">
        <ele>376.97000000000003</ele>
        <time>2025-05-02T12:14:15Z</time>
      </trkpt>
      <trkpt lat="41.788086974993348" lon="-7.422981010749936">
        <ele>376.49000000000001</ele>
        <time>2025-05-02T12:14:16Z</time>
      </trkpt>
      <trkpt lat="41.786991041153669" lon="-7.423459030687809">
        <ele>376.00999999999999</ele>
        <time>2025-05-02T12:14:26Z</time>
      </trkpt>
      <trkpt lat="41.786875035613775" lon="-7.423474034294486">
        <ele>375.52999999999997</ele>
        <time>2025-05-02T12:14:27Z</time>
      </trkpt>
      <trkpt lat="41.786759030073881" lon="-7.423488032072783">
        <ele>375.52999999999997</ele>
        <time>2025-05-02T12:14:28Z</time>
      </trkpt>
      <trkpt lat="41.785138975828886" lon="-7.423374960198999">
        <ele>370.24000000000001</ele>
        <time>2025-05-02T12:14:42Z</time>
      </trkpt>
      <trkpt lat="41.783747998997569" lon="-7.423301031813026">
        <ele>369.75999999999999</ele>
        <time>2025-05-02T12:14:54Z</time>
      </trkpt>
      <trkpt lat="41.781848995015025" lon="-7.423382000997663">
        <ele>369.27999999999997</ele>
        <time>2025-05-02T12:15:10Z</time>
      </trkpt>
      <trkpt lat="41.780073959380388" lon="-7.423476967960596">
        <ele>367.36000000000001</ele>
        <time>2025-05-02T12:15:25Z</time>
      </trkpt>
      <trkpt lat="41.778396992012858" lon="-7.423732029274106">
        <ele>365.44</ele>
        <time>2025-05-02T12:15:39Z</time>
      </trkpt>
      <trkpt lat="41.776946000754833" lon="-7.424281965941191">
        <ele>362.06999999999999</ele>
        <time>2025-05-02T12:15:50Z</time>
      </trkpt>
      <trkpt lat="41.774850022047758" lon="-7.425079001113772">
        <ele>357.75</ele>
        <time>2025-05-02T12:16:02Z</time>
      </trkpt>
      <trkpt lat="41.773427026346326" lon="-7.425961028784514">
        <ele>357.26999999999998</ele>
        <time>2025-05-02T12:16:10Z</time>
      </trkpt>
      <trkpt lat="41.770566031336784" lon="-7.429203987121582">
        <ele>357.26999999999998</ele>
        <time>2025-05-02T12:16:29Z</time>
      </trkpt>
      <trkpt lat="41.768739027902484" lon="-7.431295020505786">
        <ele>358.23000000000002</ele>
        <time>2025-05-02T12:16:42Z</time>
      </trkpt>
      <trkpt lat="41.767370011657476" lon="-7.432863023132086">
        <ele>357.75</ele>
        <time>2025-05-02T12:16:52Z</time>
      </trkpt>
      <trkpt lat="41.766343982890248" lon="-7.434029029682279">
        <ele>356.79000000000002</ele>
        <time>2025-05-02T12:17:01Z</time>
      </trkpt>
      <trkpt lat="41.765693966299295" lon="-7.434707963839173">
        <ele>356.31</ele>
        <time>2025-05-02T12:17:08Z</time>
      </trkpt>
      <trkpt lat="41.765635963529348" lon="-7.434755992144346">
        <ele>356.31</ele>
        <time>2025-05-02T12:17:09Z</time>
      </trkpt>
      <trkpt lat="41.765577960759401" lon="-7.4348050262779">
        <ele>356.31</ele>
        <time>2025-05-02T12:17:10Z</time>
      </trkpt>
      <trkpt lat="41.76555298268795" lon="-7.434733025729656">
        <ele>356.31</ele>
        <time>2025-05-02T12:17:11Z</time>
      </trkpt>
      <trkpt lat="41.765533033758402" lon="-7.43467703461647">
        <ele>356.79000000000002</ele>
        <time>2025-05-02T12:17:12Z</time>
      </trkpt>
      <trkpt lat="41.765506966039538" lon="-7.434605034068227">
        <ele>356.79000000000002</ele>
        <time>2025-05-02T12:17:13Z</time>
      </trkpt>
      <trkpt lat="41.7651860229671" lon="-7.433723006397486">
        <ele>359.19</ele>
        <time>2025-05-02T12:17:21Z</time>
      </trkpt>
      <trkpt lat="41.764484038576484" lon="-7.431800030171871">
        <ele>360.63</ele>
        <time>2025-05-02T12:17:36Z</time>
      </trkpt>
      <trkpt lat="41.763826981186867" lon="-7.430292963981628">
        <ele>364.48000000000002</ele>
        <time>2025-05-02T12:17:48Z</time>
      </trkpt>
      <trkpt lat="41.763351978734136" lon="-7.429081024602056">
        <ele>365.44</ele>
        <time>2025-05-02T12:17:58Z</time>
      </trkpt>
      <trkpt lat="41.76276097074151" lon="-7.427064003422856">
        <ele>368.31999999999999</ele>
        <time>2025-05-02T12:18:12Z</time>
      </trkpt>
      <trkpt lat="41.762141967192292" lon="-7.424898035824299">
        <ele>369.27999999999997</ele>
        <time>2025-05-02T12:18:27Z</time>
      </trkpt>
      <trkpt lat="41.761602004989982" lon="-7.423368003219366">
        <ele>371.20999999999998</ele>
        <time>2025-05-02T12:18:38Z</time>
      </trkpt>
      <trkpt lat="41.761123985052109" lon="-7.422254970297217">
        <ele>372.64999999999998</ele>
        <time>2025-05-02T12:18:47Z</time>
      </trkpt>
      <trkpt lat="41.761079980060458" lon="-7.422163020819426">
        <ele>373.13</ele>
        <time>2025-05-02T12:18:48Z</time>
      </trkpt>
      <trkpt lat="41.761023988947272" lon="-7.422082973644137">
        <ele>373.13</ele>
        <time>2025-05-02T12:18:49Z</time>
      </trkpt>
      <trkpt lat="41.760959029197693" lon="-7.422036034986377">
        <ele>373.61000000000001</ele>
        <time>2025-05-02T12:18:50Z</time>
      </trkpt>
      <trkpt lat="41.760887028649449" lon="-7.421988006681204">
        <ele>374.08999999999997</ele>
        <time>2025-05-02T12:18:51Z</time>
      </trkpt>
      <trkpt lat="41.760075995698571" lon="-7.421489031985402">
        <ele>378.42000000000002</ele>
        <time>2025-05-02T12:19:01Z</time>
      </trkpt>
      <trkpt lat="41.75985898822546" lon="-7.42133597843349">
        <ele>380.33999999999997</ele>
        <time>2025-05-02T12:19:04Z</time>
      </trkpt>
      <trkpt lat="41.759799979627132" lon="-7.421289039775729">
        <ele>380.81999999999999</ele>
        <time>2025-05-02T12:19:05Z</time>
      </trkpt>
      <trkpt lat="41.759669976308942" lon="-7.42118401452899">
        <ele>381.30000000000001</ele>
        <time>2025-05-02T12:19:07Z</time>
      </trkpt>
      <trkpt lat="41.759606022387743" lon="-7.421131962910295">
        <ele>381.77999999999997</ele>
        <time>2025-05-02T12:19:08Z</time>
      </trkpt>
      <trkpt lat="41.759543996304274" lon="-7.421082006767392">
        <ele>381.77999999999997</ele>
        <time>2025-05-02T12:19:09Z</time>
      </trkpt>
      <trkpt lat="41.759482976049185" lon="-7.421032972633839">
        <ele>382.25999999999999</ele>
        <time>2025-05-02T12:19:10Z</time>
      </trkpt>
      <trkpt lat="41.759397983551025" lon="-7.420963989570737">
        <ele>382.25999999999999</ele>
        <time>2025-05-02T12:19:11Z</time>
      </trkpt>
      <trkpt lat="41.759370993822813" lon="-7.420901963487268">
        <ele>382.74000000000001</ele>
        <time>2025-05-02T12:19:12Z</time>
      </trkpt>
      <trkpt lat="41.759312991052866" lon="-7.420771038159728">
        <ele>383.22000000000003</ele>
        <time>2025-05-02T12:19:13Z</time>
      </trkpt>
      <trkpt lat="41.759297987446189" lon="-7.420724015682936">
        <ele>383.69999999999999</ele>
        <time>2025-05-02T12:19:14Z</time>
      </trkpt>
      <trkpt lat="41.759270997717977" lon="-7.420632988214493">
        <ele>384.18000000000001</ele>
        <time>2025-05-02T12:19:15Z</time>
      </trkpt>
      <trkpt lat="41.759243002161384" lon="-7.42054196074605">
        <ele>384.18000000000001</ele>
        <time>2025-05-02T12:19:16Z</time>
      </trkpt>
      <trkpt lat="41.75921400077641" lon="-7.420449005439878">
        <ele>385.14999999999998</ele>
        <time>2025-05-02T12:19:17Z</time>
      </trkpt>
      <trkpt lat="41.759154992178082" lon="-7.420179024338722">
        <ele>387.06999999999999</ele>
        <time>2025-05-02T12:19:20Z</time>
      </trkpt>
      <trkpt lat="41.759140994399786" lon="-7.419991018250585">
        <ele>388.99000000000001</ele>
        <time>2025-05-02T12:19:22Z</time>
      </trkpt>
      <trkpt lat="41.759140994399786" lon="-7.41989403963089">
        <ele>389.47000000000003</ele>
        <time>2025-05-02T12:19:23Z</time>
      </trkpt>
      <trkpt lat="41.759152980521321" lon="-7.419780967757106">
        <ele>390.43000000000001</ele>
        <time>2025-05-02T12:19:24Z</time>
      </trkpt>
      <trkpt lat="41.759227998554707" lon="-7.419632021337748">
        <ele>392.36000000000001</ele>
        <time>2025-05-02T12:19:26Z</time>
      </trkpt>
      <trkpt lat="41.759264040738344" lon="-7.419561026617885">
        <ele>393.31999999999999</ele>
        <time>2025-05-02T12:19:27Z</time>
      </trkpt>
      <trkpt lat="41.759355990216136" lon="-7.419376038014889">
        <ele>396.19999999999999</ele>
        <time>2025-05-02T12:19:31Z</time>
      </trkpt>
      <trkpt lat="41.759423967450857" lon="-7.419234970584512">
        <ele>396.68000000000001</ele>
        <time>2025-05-02T12:19:32Z</time>
      </trkpt>
      <trkpt lat="41.759398989379406" lon="-7.419188031926751">
        <ele>397.16000000000003</ele>
        <time>2025-05-02T12:19:33Z</time>
      </trkpt>
      <trkpt lat="41.759373005479574" lon="-7.419136986136437">
        <ele>398.12</ele>
        <time>2025-05-02T12:19:34Z</time>
      </trkpt>
      <trkpt lat="41.75934299826622" lon="-7.419078983366489">
        <ele>398.60000000000002</ele>
        <time>2025-05-02T12:19:35Z</time>
      </trkpt>
      <trkpt lat="41.759305028244853" lon="-7.419005976989865">
        <ele>399.07999999999998</ele>
        <time>2025-05-02T12:19:36Z</time>
      </trkpt>
      <trkpt lat="41.759264962747693" lon="-7.418929031118751">
        <ele>400.05000000000001</ele>
        <time>2025-05-02T12:19:37Z</time>
      </trkpt>
      <trkpt lat="41.759227998554707" lon="-7.418857030570507">
        <ele>400.52999999999997</ele>
        <time>2025-05-02T12:19:38Z</time>
      </trkpt>
      <trkpt lat="41.758732041344047" lon="-7.417892022058368">
        <ele>407.74000000000001</ele>
        <time>2025-05-02T12:19:49Z</time>
      </trkpt>
      <trkpt lat="41.758228959515691" lon="-7.41686699911952">
        <ele>416.87</ele>
        <time>2025-05-02T12:19:59Z</time>
      </trkpt>
      <trkpt lat="41.758154025301337" lon="-7.416790975257754">
        <ele>417.82999999999998</ele>
        <time>2025-05-02T12:20:00Z</time>
      </trkpt>
      <trkpt lat="41.758065009489655" lon="-7.416769014671445">
        <ele>418.31</ele>
        <time>2025-05-02T12:20:01Z</time>
      </trkpt>
      <trkpt lat="41.75796995870769" lon="-7.416744958609343">
        <ele>419.26999999999998</ele>
        <time>2025-05-02T12:20:02Z</time>
      </trkpt>
      <trkpt lat="41.757854036986828" lon="-7.416716041043401">
        <ele>420.23000000000002</ele>
        <time>2025-05-02T12:20:03Z</time>
      </trkpt>
      <trkpt lat="41.757766027003527" lon="-7.416729032993317">
        <ele>421.19</ele>
        <time>2025-05-02T12:20:04Z</time>
      </trkpt>
      <trkpt lat="41.757482970133424" lon="-7.416771026328206">
        <ele>424.56</ele>
        <time>2025-05-02T12:20:07Z</time>
      </trkpt>
      <trkpt lat="41.757394960150123" lon="-7.416765997186303">
        <ele>425.51999999999998</ele>
        <time>2025-05-02T12:20:08Z</time>
      </trkpt>
      <trkpt lat="41.757308039814234" lon="-7.416721992194653">
        <ele>426.95999999999998</ele>
        <time>2025-05-02T12:20:09Z</time>
      </trkpt>
      <trkpt lat="41.757231010124087" lon="-7.416684022173286">
        <ele>427.92000000000002</ele>
        <time>2025-05-02T12:20:10Z</time>
      </trkpt>
      <trkpt lat="41.757162027060986" lon="-7.416619984433055">
        <ele>428.88999999999999</ele>
        <time>2025-05-02T12:20:11Z</time>
      </trkpt>
      <trkpt lat="41.75714903511107" lon="-7.416529040783644">
        <ele>429.85000000000002</ele>
        <time>2025-05-02T12:20:12Z</time>
      </trkpt>
      <trkpt lat="41.757205026224256" lon="-7.416434995830059">
        <ele>430.32999999999998</ele>
        <time>2025-05-02T12:20:13Z</time>
      </trkpt>
      <trkpt lat="41.757275015115738" lon="-7.416355032473803">
        <ele>431.76999999999998</ele>
        <time>2025-05-02T12:20:14Z</time>
      </trkpt>
      <trkpt lat="41.757360007613897" lon="-7.416259981691837">
        <ele>432.73000000000002</ele>
        <time>2025-05-02T12:20:15Z</time>
      </trkpt>
      <trkpt lat="41.757449023425579" lon="-7.416159985587001">
        <ele>434.17000000000002</ele>
        <time>2025-05-02T12:20:16Z</time>
      </trkpt>
      <trkpt lat="41.757577015087008" lon="-7.416087985038757">
        <ele>435.61000000000001</ele>
        <time>2025-05-02T12:20:17Z</time>
      </trkpt>
      <trkpt lat="41.757716992869973" lon="-7.416045991703868">
        <ele>437.54000000000002</ele>
        <time>2025-05-02T12:20:18Z</time>
      </trkpt>
      <trkpt lat="41.758314035832882" lon="-7.41579101420939">
        <ele>443.79000000000002</ele>
        <time>2025-05-02T12:20:23Z</time>
      </trkpt>
      <trkpt lat="41.758415959775448" lon="-7.415695963427424">
        <ele>444.75</ele>
        <time>2025-05-02T12:20:24Z</time>
      </trkpt>
      <trkpt lat="41.758506987243891" lon="-7.415610970929265">
        <ele>445.23000000000002</ele>
        <time>2025-05-02T12:20:25Z</time>
      </trkpt>
      <trkpt lat="41.758593991398811" lon="-7.41555598564446">
        <ele>445.70999999999998</ele>
        <time>2025-05-02T12:20:26Z</time>
      </trkpt>
      <trkpt lat="41.758671021088958" lon="-7.415510974824429">
        <ele>446.67000000000002</ele>
        <time>2025-05-02T12:20:27Z</time>
      </trkpt>
      <trkpt lat="41.758794989436865" lon="-7.415392035618424">
        <ele>447.63</ele>
        <time>2025-05-02T12:20:29Z</time>
      </trkpt>
      <trkpt lat="41.758824996650219" lon="-7.415302013978362">
        <ele>448.11000000000001</ele>
        <time>2025-05-02T12:20:30Z</time>
      </trkpt>
      <trkpt lat="41.758829019963741" lon="-7.415228001773357">
        <ele>448.58999999999997</ele>
        <time>2025-05-02T12:20:31Z</time>
      </trkpt>
      <trkpt lat="41.758789960294962" lon="-7.415131023153663">
        <ele>449.06999999999999</ele>
        <time>2025-05-02T12:20:32Z</time>
      </trkpt>
      <trkpt lat="41.75874000415206" lon="-7.415038989856839">
        <ele>449.55000000000001</ele>
        <time>2025-05-02T12:20:33Z</time>
      </trkpt>
      <trkpt lat="41.758652999997139" lon="-7.415021974593401">
        <ele>450.51999999999998</ele>
        <time>2025-05-02T12:20:34Z</time>
      </trkpt>
      <trkpt lat="41.758554009720683" lon="-7.415002025663853">
        <ele>451</ele>
        <time>2025-05-02T12:20:35Z</time>
      </trkpt>
      <trkpt lat="41.758449990302324" lon="-7.414980987086892">
        <ele>451.95999999999998</ele>
        <time>2025-05-02T12:20:36Z</time>
      </trkpt>
      <trkpt lat="41.758339013904333" lon="-7.414959026500583">
        <ele>452.92000000000002</ele>
        <time>2025-05-02T12:20:37Z</time>
      </trkpt>
      <trkpt lat="41.758223008364439" lon="-7.414935976266861">
        <ele>453.88</ele>
        <time>2025-05-02T12:20:38Z</time>
      </trkpt>
      <trkpt lat="41.75730099901557" lon="-7.41493103094399">
        <ele>458.69</ele>
        <time>2025-05-02T12:20:45Z</time>
      </trkpt>
      <trkpt lat="41.757182981818914" lon="-7.4149339646101">
        <ele>459.17000000000002</ele>
        <time>2025-05-02T12:20:46Z</time>
      </trkpt>
      <trkpt lat="41.757070999592543" lon="-7.414907980710268">
        <ele>459.64999999999998</ele>
        <time>2025-05-02T12:20:47Z</time>
      </trkpt>
      <trkpt lat="41.756488038226962" lon="-7.414534986019135">
        <ele>465.89999999999998</ele>
        <time>2025-05-02T12:20:55Z</time>
      </trkpt>
      <trkpt lat="41.756437998265028" lon="-7.414485029876232">
        <ele>467.33999999999997</ele>
        <time>2025-05-02T12:20:57Z</time>
      </trkpt>
      <trkpt lat="41.756416037678719" lon="-7.414462985470891">
        <ele>467.81999999999999</ele>
        <time>2025-05-02T12:20:58Z</time>
      </trkpt>
      <trkpt lat="41.756456019356847" lon="-7.414401965215802">
        <ele>468.77999999999997</ele>
        <time>2025-05-02T12:20:59Z</time>
      </trkpt>
      <trkpt lat="41.756508992984891" lon="-7.414322001859546">
        <ele>469.74000000000001</ele>
        <time>2025-05-02T12:21:00Z</time>
      </trkpt>
      <trkpt lat="41.756568001583219" lon="-7.414233991876245">
        <ele>470.22000000000003</ele>
        <time>2025-05-02T12:21:01Z</time>
      </trkpt>
      <trkpt lat="41.756778974086046" lon="-7.413911959156394">
        <ele>472.13999999999999</ele>
        <time>2025-05-02T12:21:04Z</time>
      </trkpt>
      <trkpt lat="41.757414992898703" lon="-7.412799010053277">
        <ele>476.47000000000003</ele>
        <time>2025-05-02T12:21:11Z</time>
      </trkpt>
      <trkpt lat="41.757949003949761" lon="-7.411686982959509">
        <ele>481.27999999999997</ele>
        <time>2025-05-02T12:21:17Z</time>
      </trkpt>
      <trkpt lat="41.758058974519372" lon="-7.411507023498416">
        <ele>482.24000000000001</ele>
        <time>2025-05-02T12:21:18Z</time>
      </trkpt>
      <trkpt lat="41.758172968402505" lon="-7.411329997703433">
        <ele>483.19999999999999</ele>
        <time>2025-05-02T12:21:19Z</time>
      </trkpt>
      <trkpt lat="41.758312024176121" lon="-7.411179039627314">
        <ele>484.16000000000003</ele>
        <time>2025-05-02T12:21:20Z</time>
      </trkpt>
      <trkpt lat="41.758449990302324" lon="-7.411031015217304">
        <ele>484.63999999999999</ele>
        <time>2025-05-02T12:21:21Z</time>
      </trkpt>
      <trkpt lat="41.758586028590798" lon="-7.410890031605959">
        <ele>485.60000000000002</ele>
        <time>2025-05-02T12:21:22Z</time>
      </trkpt>
      <trkpt lat="41.758718965575099" lon="-7.410749970003963">
        <ele>486.56</ele>
        <time>2025-05-02T12:21:23Z</time>
      </trkpt>
      <trkpt lat="41.758851986378431" lon="-7.410610998049378">
        <ele>487.05000000000001</ele>
        <time>2025-05-02T12:21:24Z</time>
      </trkpt>
      <trkpt lat="41.758949970826507" lon="-7.410432966426015">
        <ele>488.00999999999999</ele>
        <time>2025-05-02T12:21:25Z</time>
      </trkpt>
      <trkpt lat="41.759035969153047" lon="-7.410243032500148">
        <ele>488.49000000000001</ele>
        <time>2025-05-02T12:21:26Z</time>
      </trkpt>
      <trkpt lat="41.759101012721658" lon="-7.410039016976953">
        <ele>488.97000000000003</ele>
        <time>2025-05-02T12:21:27Z</time>
      </trkpt>
      <trkpt lat="41.759110987186432" lon="-7.4098189920187">
        <ele>489.93000000000001</ele>
        <time>2025-05-02T12:21:28Z</time>
      </trkpt>
      <trkpt lat="41.759120961651206" lon="-7.409597961232066">
        <ele>490.41000000000003</ele>
        <time>2025-05-02T12:21:29Z</time>
      </trkpt>
      <trkpt lat="41.759130014106631" lon="-7.409381959587336">
        <ele>491.37</ele>
        <time>2025-05-02T12:21:30Z</time>
      </trkpt>
      <trkpt lat="41.759139988571405" lon="-7.409167969599366">
        <ele>491.85000000000002</ele>
        <time>2025-05-02T12:21:31Z</time>
      </trkpt>
      <trkpt lat="41.759180976077914" lon="-7.40896001458168">
        <ele>492.81</ele>
        <time>2025-05-02T12:21:32Z</time>
      </trkpt>
      <trkpt lat="41.759226992726326" lon="-7.408754993230104">
        <ele>493.29000000000002</ele>
        <time>2025-05-02T12:21:33Z</time>
      </trkpt>
      <trkpt lat="41.759307961910963" lon="-7.408564975485206">
        <ele>493.76999999999998</ele>
        <time>2025-05-02T12:21:34Z</time>
      </trkpt>
      <trkpt lat="41.759395971894264" lon="-7.408403037115932">
        <ele>494.74000000000001</ele>
        <time>2025-05-02T12:21:35Z</time>
      </trkpt>
      <trkpt lat="41.759510971605778" lon="-7.408258030191064">
        <ele>495.22000000000003</ele>
        <time>2025-05-02T12:21:36Z</time>
      </trkpt>
      <trkpt lat="41.759627982974052" lon="-7.408111011609435">
        <ele>496.18000000000001</ele>
        <time>2025-05-02T12:21:37Z</time>
      </trkpt>
      <trkpt lat="41.759763015434146" lon="-7.407940020784736">
        <ele>496.66000000000003</ele>
        <time>2025-05-02T12:21:38Z</time>
      </trkpt>
      <trkpt lat="41.7609310336411" lon="-7.406480982899666">
        <ele>504.82999999999998</ele>
        <time>2025-05-02T12:21:47Z</time>
      </trkpt>
      <trkpt lat="41.76155699416995" lon="-7.405536007136107">
        <ele>510.60000000000002</ele>
        <time>2025-05-02T12:21:52Z</time>
      </trkpt>
      <trkpt lat="41.761675011366606" lon="-7.405335009098053">
        <ele>512.03999999999996</ele>
        <time>2025-05-02T12:21:53Z</time>
      </trkpt>
      <trkpt lat="41.761737959459424" lon="-7.405089000239968">
        <ele>513.48000000000002</ele>
        <time>2025-05-02T12:21:54Z</time>
      </trkpt>
      <trkpt lat="41.761929988861084" lon="-7.404328007251024">
        <ele>516.85000000000002</ele>
        <time>2025-05-02T12:21:57Z</time>
      </trkpt>
      <trkpt lat="41.761929988861084" lon="-7.40406003780663">
        <ele>517.80999999999995</ele>
        <time>2025-05-02T12:21:58Z</time>
      </trkpt>
      <trkpt lat="41.761929988861084" lon="-7.403788967058063">
        <ele>519.25</ele>
        <time>2025-05-02T12:21:59Z</time>
      </trkpt>
      <trkpt lat="41.761901993304491" lon="-7.403520997613668">
        <ele>520.21000000000004</ele>
        <time>2025-05-02T12:22:00Z</time>
      </trkpt>
      <trkpt lat="41.761869974434376" lon="-7.403240958228707">
        <ele>521.64999999999998</ele>
        <time>2025-05-02T12:22:01Z</time>
      </trkpt>
      <trkpt lat="41.761774001643062" lon="-7.401017993688583">
        <ele>532.71000000000004</ele>
        <time>2025-05-02T12:22:09Z</time>
      </trkpt>
      <trkpt lat="41.761882966384292" lon="-7.399976039305329">
        <ele>537.99000000000001</ele>
        <time>2025-05-02T12:22:13Z</time>
      </trkpt>
      <trkpt lat="41.761939963325858" lon="-7.399748973548412">
        <ele>539.44000000000005</ele>
        <time>2025-05-02T12:22:14Z</time>
      </trkpt>
      <trkpt lat="41.761995032429695" lon="-7.399528026580811">
        <ele>540.88</ele>
        <time>2025-05-02T12:22:15Z</time>
      </trkpt>
      <trkpt lat="41.762121012434363" lon="-7.399366004392505">
        <ele>542.32000000000005</ele>
        <time>2025-05-02T12:22:16Z</time>
      </trkpt>
      <trkpt lat="41.76224498078227" lon="-7.399206999689341">
        <ele>543.27999999999997</ele>
        <time>2025-05-02T12:22:17Z</time>
      </trkpt>
      <trkpt lat="41.762384958565235" lon="-7.399089988321066">
        <ele>544.72000000000003</ele>
        <time>2025-05-02T12:22:18Z</time>
      </trkpt>
      <trkpt lat="41.762547986581922" lon="-7.398996027186513">
        <ele>546.16999999999996</ele>
        <time>2025-05-02T12:22:19Z</time>
      </trkpt>
      <trkpt lat="41.76271503791213" lon="-7.398899970576167">
        <ele>547.61000000000001</ele>
        <time>2025-05-02T12:22:20Z</time>
      </trkpt>
      <trkpt lat="41.763894958421588" lon="-7.398226987570524">
        <ele>556.25999999999999</ele>
        <time>2025-05-02T12:22:27Z</time>
      </trkpt>
      <trkpt lat="41.764053041115403" lon="-7.398116011172533">
        <ele>557.70000000000005</ele>
        <time>2025-05-02T12:22:28Z</time>
      </trkpt>
      <trkpt lat="41.764183966442943" lon="-7.397965975105763">
        <ele>559.13999999999999</ele>
        <time>2025-05-02T12:22:29Z</time>
      </trkpt>
      <trkpt lat="41.764288991689682" lon="-7.397795990109444">
        <ele>560.11000000000001</ele>
        <time>2025-05-02T12:22:30Z</time>
      </trkpt>
      <trkpt lat="41.764357974752784" lon="-7.397613013163209">
        <ele>561.07000000000005</ele>
        <time>2025-05-02T12:22:31Z</time>
      </trkpt>
      <trkpt lat="41.764398040249944" lon="-7.397403968498111">
        <ele>562.50999999999999</ele>
        <time>2025-05-02T12:22:32Z</time>
      </trkpt>
      <trkpt lat="41.764398040249944" lon="-7.397177992388606">
        <ele>563.47000000000003</ele>
        <time>2025-05-02T12:22:33Z</time>
      </trkpt>
      <trkpt lat="41.764366021379828" lon="-7.396968025714159">
        <ele>564.42999999999995</ele>
        <time>2025-05-02T12:22:34Z</time>
      </trkpt>
      <trkpt lat="41.764309024438262" lon="-7.396769961342216">
        <ele>565.38999999999999</ele>
        <time>2025-05-02T12:22:35Z</time>
      </trkpt>
      <trkpt lat="41.764237023890018" lon="-7.396593019366264">
        <ele>566.83000000000004</ele>
        <time>2025-05-02T12:22:36Z</time>
      </trkpt>
      <trkpt lat="41.764138033613563" lon="-7.39647600799799">
        <ele>567.79999999999995</ele>
        <time>2025-05-02T12:22:37Z</time>
      </trkpt>
      <trkpt lat="41.764046000316739" lon="-7.396371988579631">
        <ele>568.75999999999999</ele>
        <time>2025-05-02T12:22:38Z</time>
      </trkpt>
      <trkpt lat="41.763958996161819" lon="-7.396280961111188">
        <ele>569.72000000000003</ele>
        <time>2025-05-02T12:22:39Z</time>
      </trkpt>
      <trkpt lat="41.763072023168206" lon="-7.395455008372665">
        <ele>574.52999999999997</ele>
        <time>2025-05-02T12:22:48Z</time>
      </trkpt>
      <trkpt lat="41.762982001528144" lon="-7.395364986732602">
        <ele>575.49000000000001</ele>
        <time>2025-05-02T12:22:49Z</time>
      </trkpt>
      <trkpt lat="41.762921987101436" lon="-7.395219979807735">
        <ele>575.97000000000003</ele>
        <time>2025-05-02T12:22:50Z</time>
      </trkpt>
      <trkpt lat="41.762864990159869" lon="-7.395082013681531">
        <ele>576.92999999999995</ele>
        <time>2025-05-02T12:22:51Z</time>
      </trkpt>
      <trkpt lat="41.76282400265336" lon="-7.394929965957999">
        <ele>577.40999999999997</ele>
        <time>2025-05-02T12:22:52Z</time>
      </trkpt>
      <trkpt lat="41.762807993218303" lon="-7.394770039245486">
        <ele>578.37</ele>
        <time>2025-05-02T12:22:53Z</time>
      </trkpt>
      <trkpt lat="41.76267396658659" lon="-7.393486015498638">
        <ele>582.22000000000003</ele>
        <time>2025-05-02T12:23:01Z</time>
      </trkpt>
      <trkpt lat="41.762753007933497" lon="-7.392053967341781">
        <ele>587.01999999999998</ele>
        <time>2025-05-02T12:23:10Z</time>
      </trkpt>
      <trkpt lat="41.763002034276724" lon="-7.389501007273793">
        <ele>597.60000000000002</ele>
        <time>2025-05-02T12:23:26Z</time>
      </trkpt>
      <trkpt lat="41.763097001239657" lon="-7.388696009293199">
        <ele>600</ele>
        <time>2025-05-02T12:23:31Z</time>
      </trkpt>
      <trkpt lat="41.763238990679383" lon="-7.387091964483261">
        <ele>604.80999999999995</ele>
        <time>2025-05-02T12:23:41Z</time>
      </trkpt>
      <trkpt lat="41.763222981244326" lon="-7.386919967830181">
        <ele>605.28999999999996</ele>
        <time>2025-05-02T12:23:42Z</time>
      </trkpt>
      <trkpt lat="41.7629290279001" lon="-7.384662972763181">
        <ele>616.34000000000003</ele>
        <time>2025-05-02T12:23:54Z</time>
      </trkpt>
      <trkpt lat="41.763042015954852" lon="-7.382809985429049">
        <ele>625.96000000000004</ele>
        <time>2025-05-02T12:24:04Z</time>
      </trkpt>
      <trkpt lat="41.763621037825942" lon="-7.380843004211783">
        <ele>634.61000000000001</ele>
        <time>2025-05-02T12:24:15Z</time>
      </trkpt>
      <trkpt lat="41.763636963441968" lon="-7.380657009780407">
        <ele>635.57000000000005</ele>
        <time>2025-05-02T12:24:16Z</time>
      </trkpt>
      <trkpt lat="41.763603016734123" lon="-7.380477972328663">
        <ele>636.04999999999995</ele>
        <time>2025-05-02T12:24:17Z</time>
      </trkpt>
      <trkpt lat="41.763357007876039" lon="-7.379189003258944">
        <ele>641.82000000000005</ele>
        <time>2025-05-02T12:24:25Z</time>
      </trkpt>
      <trkpt lat="41.763336975127459" lon="-7.379081966355443">
        <ele>642.77999999999997</ele>
        <time>2025-05-02T12:24:26Z</time>
      </trkpt>
      <trkpt lat="41.763304034247994" lon="-7.378907036036253">
        <ele>643.25999999999999</ele>
        <time>2025-05-02T12:24:27Z</time>
      </trkpt>
      <trkpt lat="41.763237984851003" lon="-7.378898989409208">
        <ele>643.74000000000001</ele>
        <time>2025-05-02T12:24:28Z</time>
      </trkpt>
      <trkpt lat="41.763159027323127" lon="-7.378889014944434">
        <ele>644.22000000000003</ele>
        <time>2025-05-02T12:24:29Z</time>
      </trkpt>
      <trkpt lat="41.763072023168206" lon="-7.378878034651279">
        <ele>644.70000000000005</ele>
        <time>2025-05-02T12:24:30Z</time>
      </trkpt>
      <trkpt lat="41.762976972386241" lon="-7.378866970539093">
        <ele>645.65999999999997</ele>
        <time>2025-05-02T12:24:31Z</time>
      </trkpt>
      <trkpt lat="41.76288896240294" lon="-7.378888009116054">
        <ele>646.13999999999999</ele>
        <time>2025-05-02T12:24:32Z</time>
      </trkpt>
      <trkpt lat="41.76280103623867" lon="-7.378917010501027">
        <ele>646.62</ele>
        <time>2025-05-02T12:24:33Z</time>
      </trkpt>
      <trkpt lat="41.762735992670059" lon="-7.378976019099355">
        <ele>647.59000000000003</ele>
        <time>2025-05-02T12:24:34Z</time>
      </trkpt>
      <trkpt lat="41.762670027092099" lon="-7.379075009375811">
        <ele>648.07000000000005</ele>
        <time>2025-05-02T12:24:35Z</time>
      </trkpt>
      <trkpt lat="41.762600038200617" lon="-7.37918003462255">
        <ele>649.02999999999997</ele>
        <time>2025-05-02T12:24:36Z</time>
      </trkpt>
      <trkpt lat="41.762467017397285" lon="-7.379379021003842">
        <ele>650.47000000000003</ele>
        <time>2025-05-02T12:24:38Z</time>
      </trkpt>
      <trkpt lat="41.762370960786939" lon="-7.379446998238564">
        <ele>650.95000000000005</ele>
        <time>2025-05-02T12:24:39Z</time>
      </trkpt>
      <trkpt lat="41.762281022965908" lon="-7.379510030150414">
        <ele>651.90999999999997</ele>
        <time>2025-05-02T12:24:40Z</time>
      </trkpt>
      <trkpt lat="41.76217901520431" lon="-7.379499971866608">
        <ele>652.87</ele>
        <time>2025-05-02T12:24:41Z</time>
      </trkpt>
      <trkpt lat="41.762084970250726" lon="-7.379463007673621">
        <ele>653.83000000000004</ele>
        <time>2025-05-02T12:24:42Z</time>
      </trkpt>
      <trkpt lat="41.762000983580947" lon="-7.379391007125378">
        <ele>654.79999999999995</ele>
        <time>2025-05-02T12:24:43Z</time>
      </trkpt>
      <trkpt lat="41.761927977204323" lon="-7.379285981878638">
        <ele>656.24000000000001</ele>
        <time>2025-05-02T12:24:44Z</time>
      </trkpt>
      <trkpt lat="41.761855976656079" lon="-7.379181040450931">
        <ele>657.20000000000005</ele>
        <time>2025-05-02T12:24:45Z</time>
      </trkpt>
      <trkpt lat="41.761786993592978" lon="-7.379080960527062">
        <ele>658.63999999999999</ele>
        <time>2025-05-02T12:24:46Z</time>
      </trkpt>
      <trkpt lat="41.761721028015018" lon="-7.37898699939251">
        <ele>659.60000000000002</ele>
        <time>2025-05-02T12:24:47Z</time>
      </trkpt>
      <trkpt lat="41.761651961132884" lon="-7.378885997459292">
        <ele>661.03999999999996</ele>
        <time>2025-05-02T12:24:48Z</time>
      </trkpt>
      <trkpt lat="41.761571997776628" lon="-7.378855990245938">
        <ele>662.00999999999999</ele>
        <time>2025-05-02T12:24:49Z</time>
      </trkpt>
      <trkpt lat="41.761464960873127" lon="-7.378833023831248">
        <ele>662.97000000000003</ele>
        <time>2025-05-02T12:24:50Z</time>
      </trkpt>
      <trkpt lat="41.761375023052096" lon="-7.378899995237589">
        <ele>663.92999999999995</ele>
        <time>2025-05-02T12:24:51Z</time>
      </trkpt>
      <trkpt lat="41.761281983926892" lon="-7.378993034362793">
        <ele>664.88999999999999</ele>
        <time>2025-05-02T12:24:52Z</time>
      </trkpt>
      <trkpt lat="41.761199003085494" lon="-7.379125971347094">
        <ele>666.33000000000004</ele>
        <time>2025-05-02T12:24:53Z</time>
      </trkpt>
      <trkpt lat="41.761110993102193" lon="-7.37926796078682">
        <ele>667.28999999999996</ele>
        <time>2025-05-02T12:24:54Z</time>
      </trkpt>
      <trkpt lat="41.760836988687515" lon="-7.379709016531706">
        <ele>671.13999999999999</ele>
        <time>2025-05-02T12:24:57Z</time>
      </trkpt>
      <trkpt lat="41.760741015896201" lon="-7.379817981272936">
        <ele>672.58000000000004</ele>
        <time>2025-05-02T12:24:58Z</time>
      </trkpt>
      <trkpt lat="41.760642025619745" lon="-7.379885036498308">
        <ele>674.01999999999998</ele>
        <time>2025-05-02T12:24:59Z</time>
      </trkpt>
      <trkpt lat="41.760543035343289" lon="-7.379914037883282">
        <ele>675.46000000000004</ele>
        <time>2025-05-02T12:25:00Z</time>
      </trkpt>
      <trkpt lat="41.760456031188369" lon="-7.379875984042883">
        <ele>676.41999999999996</ele>
        <time>2025-05-02T12:25:01Z</time>
      </trkpt>
      <trkpt lat="41.760383024811745" lon="-7.379814963787794">
        <ele>677.87</ele>
        <time>2025-05-02T12:25:02Z</time>
      </trkpt>
      <trkpt lat="41.760319992899895" lon="-7.379708010703325">
        <ele>679.78999999999996</ele>
        <time>2025-05-02T12:25:03Z</time>
      </trkpt>
      <trkpt lat="41.760310018435121" lon="-7.379554035142064">
        <ele>681.23000000000002</ele>
        <time>2025-05-02T12:25:04Z</time>
      </trkpt>
      <trkpt lat="41.760298032313585" lon="-7.379379021003842">
        <ele>682.66999999999996</ele>
        <time>2025-05-02T12:25:05Z</time>
      </trkpt>
      <trkpt lat="41.760285962373018" lon="-7.379195960238576">
        <ele>684.60000000000002</ele>
        <time>2025-05-02T12:25:06Z</time>
      </trkpt>
      <trkpt lat="41.76026601344347" lon="-7.379023041576147">
        <ele>686.03999999999996</ele>
        <time>2025-05-02T12:25:07Z</time>
      </trkpt>
      <trkpt lat="41.760228965431452" lon="-7.378848027437925">
        <ele>687.96000000000004</ele>
        <time>2025-05-02T12:25:08Z</time>
      </trkpt>
      <trkpt lat="41.760155959054828" lon="-7.378691034391522">
        <ele>689.39999999999998</ele>
        <time>2025-05-02T12:25:09Z</time>
      </trkpt>
      <trkpt lat="41.760059986263514" lon="-7.378548039123416">
        <ele>691.33000000000004</ele>
        <time>2025-05-02T12:25:10Z</time>
      </trkpt>
      <trkpt lat="41.759963007643819" lon="-7.378402026370168">
        <ele>693.25</ele>
        <time>2025-05-02T12:25:11Z</time>
      </trkpt>
      <trkpt lat="41.759870974346995" lon="-7.378263976424933">
        <ele>694.69000000000005</ele>
        <time>2025-05-02T12:25:12Z</time>
      </trkpt>
      <trkpt lat="41.759736025705934" lon="-7.37817102111876">
        <ele>696.61000000000001</ele>
        <time>2025-05-02T12:25:13Z</time>
      </trkpt>
      <trkpt lat="41.759618008509278" lon="-7.378088962286711">
        <ele>698.52999999999997</ele>
        <time>2025-05-02T12:25:14Z</time>
      </trkpt>
      <trkpt lat="41.759496973827481" lon="-7.378058033064008">
        <ele>700.46000000000004</ele>
        <time>2025-05-02T12:25:15Z</time>
      </trkpt>
      <trkpt lat="41.759362025186419" lon="-7.378040011972189">
        <ele>702.38</ele>
        <time>2025-05-02T12:25:16Z</time>
      </trkpt>
      <trkpt lat="41.759219029918313" lon="-7.37802098505199">
        <ele>704.29999999999995</ele>
        <time>2025-05-02T12:25:17Z</time>
      </trkpt>
      <trkpt lat="41.758649982511997" lon="-7.377944961190224">
        <ele>711.50999999999999</ele>
        <time>2025-05-02T12:25:21Z</time>
      </trkpt>
      <trkpt lat="41.758542023599148" lon="-7.377962982282043">
        <ele>713.44000000000005</ele>
        <time>2025-05-02T12:25:22Z</time>
      </trkpt>
      <trkpt lat="41.758464993909001" lon="-7.378049986436963">
        <ele>714.88</ele>
        <time>2025-05-02T12:25:23Z</time>
      </trkpt>
      <trkpt lat="41.758411014452577" lon="-7.378145959228277">
        <ele>716.79999999999995</ele>
        <time>2025-05-02T12:25:24Z</time>
      </trkpt>
      <trkpt lat="41.758411014452577" lon="-7.378269005566835">
        <ele>718.72000000000003</ele>
        <time>2025-05-02T12:25:25Z</time>
      </trkpt>
      <trkpt lat="41.758443033322692" lon="-7.378375036641955">
        <ele>719.67999999999995</ele>
        <time>2025-05-02T12:25:26Z</time>
      </trkpt>
      <trkpt lat="41.758515033870935" lon="-7.378460029140115">
        <ele>721.13</ele>
        <time>2025-05-02T12:25:27Z</time>
      </trkpt>
      <trkpt lat="41.758617963641882" lon="-7.378481989726424">
        <ele>722.09000000000003</ele>
        <time>2025-05-02T12:25:28Z</time>
      </trkpt>
      <trkpt lat="41.758746039122343" lon="-7.378507973626256">
        <ele>723.04999999999995</ele>
        <time>2025-05-02T12:25:29Z</time>
      </trkpt>
      <trkpt lat="41.758884005248547" lon="-7.37853697501123">
        <ele>724.49000000000001</ele>
        <time>2025-05-02T12:25:30Z</time>
      </trkpt>
      <trkpt lat="41.759014008566737" lon="-7.378565976396203">
        <ele>724.97000000000003</ele>
        <time>2025-05-02T12:25:31Z</time>
      </trkpt>
      <trkpt lat="41.759103024378419" lon="-7.378654992207885">
        <ele>725.92999999999995</ele>
        <time>2025-05-02T12:25:32Z</time>
      </trkpt>
      <trkpt lat="41.759155998006463" lon="-7.378780972212553">
        <ele>726.88999999999999</ele>
        <time>2025-05-02T12:25:33Z</time>
      </trkpt>
      <trkpt lat="41.759140994399786" lon="-7.378908963873982">
        <ele>727.86000000000001</ele>
        <time>2025-05-02T12:25:34Z</time>
      </trkpt>
      <trkpt lat="41.759094977751374" lon="-7.379008959978819">
        <ele>728.82000000000005</ele>
        <time>2025-05-02T12:25:35Z</time>
      </trkpt>
      <trkpt lat="41.759010991081595" lon="-7.379061011597514">
        <ele>729.77999999999997</ele>
        <time>2025-05-02T12:25:36Z</time>
      </trkpt>
      <trkpt lat="41.758928010240197" lon="-7.379092024639249">
        <ele>730.25999999999999</ele>
        <time>2025-05-02T12:25:37Z</time>
      </trkpt>
      <trkpt lat="41.758824996650219" lon="-7.379047013819218">
        <ele>731.22000000000003</ele>
        <time>2025-05-02T12:25:38Z</time>
      </trkpt>
      <trkpt lat="41.758709996938705" lon="-7.378996973857284">
        <ele>732.17999999999995</ele>
        <time>2025-05-02T12:25:39Z</time>
      </trkpt>
      <trkpt lat="41.758589968085289" lon="-7.37894500605762">
        <ele>733.13999999999999</ele>
        <time>2025-05-02T12:25:40Z</time>
      </trkpt>
      <trkpt lat="41.758465999737382" lon="-7.378891026601195">
        <ele>734.58000000000004</ele>
        <time>2025-05-02T12:25:41Z</time>
      </trkpt>
      <trkpt lat="41.758337002247572" lon="-7.37885900773108">
        <ele>735.54999999999995</ele>
        <time>2025-05-02T12:25:42Z</time>
      </trkpt>
      <trkpt lat="41.758199958130717" lon="-7.378827994689345">
        <ele>736.99000000000001</ele>
        <time>2025-05-02T12:25:43Z</time>
      </trkpt>
      <trkpt lat="41.758056962862611" lon="-7.37879597581923">
        <ele>738.90999999999997</ele>
        <time>2025-05-02T12:25:44Z</time>
      </trkpt>
      <trkpt lat="41.757920002564788" lon="-7.378743002191186">
        <ele>740.35000000000002</ele>
        <time>2025-05-02T12:25:45Z</time>
      </trkpt>
      <trkpt lat="41.757792010903358" lon="-7.378669995814562">
        <ele>741.78999999999996</ele>
        <time>2025-05-02T12:25:46Z</time>
      </trkpt>
      <trkpt lat="41.757682040333748" lon="-7.378606963902712">
        <ele>743.24000000000001</ele>
        <time>2025-05-02T12:25:47Z</time>
      </trkpt>
      <trkpt lat="41.75753703340888" lon="-7.378606963902712">
        <ele>745.15999999999997</ele>
        <time>2025-05-02T12:25:48Z</time>
      </trkpt>
      <trkpt lat="41.757409041747451" lon="-7.37862397916615">
        <ele>746.60000000000002</ele>
        <time>2025-05-02T12:25:49Z</time>
      </trkpt>
      <trkpt lat="41.75727803260088" lon="-7.378684999421239">
        <ele>748.03999999999996</ele>
        <time>2025-05-02T12:25:50Z</time>
      </trkpt>
      <trkpt lat="41.757145011797547" lon="-7.378747025504708">
        <ele>749.97000000000003</ele>
        <time>2025-05-02T12:25:51Z</time>
      </trkpt>
      <trkpt lat="41.757012996822596" lon="-7.378767980262637">
        <ele>751.40999999999997</ele>
        <time>2025-05-02T12:25:52Z</time>
      </trkpt>
      <trkpt lat="41.75689397379756" lon="-7.378769991919398">
        <ele>752.37</ele>
        <time>2025-05-02T12:25:53Z</time>
      </trkpt>
      <trkpt lat="41.756782997399569" lon="-7.378711989149451">
        <ele>753.80999999999995</ele>
        <time>2025-05-02T12:25:54Z</time>
      </trkpt>
      <trkpt lat="41.756552997976542" lon="-7.378591038286686">
        <ele>756.21000000000004</ele>
        <time>2025-05-02T12:25:56Z</time>
      </trkpt>
      <trkpt lat="41.756436992436647" lon="-7.378547033295035">
        <ele>757.65999999999997</ele>
        <time>2025-05-02T12:25:57Z</time>
      </trkpt>
      <trkpt lat="41.756190983578563" lon="-7.378480983898044">
        <ele>759.58000000000004</ele>
        <time>2025-05-02T12:25:59Z</time>
      </trkpt>
      <trkpt lat="41.75609802827239" lon="-7.378396997228265">
        <ele>760.53999999999996</ele>
        <time>2025-05-02T12:26:00Z</time>
      </trkpt>
      <trkpt lat="41.755999037995934" lon="-7.378297001123428">
        <ele>761.5</ele>
        <time>2025-05-02T12:26:01Z</time>
      </trkpt>
      <trkpt lat="41.755909016355872" lon="-7.378175966441631">
        <ele>762.94000000000005</ele>
        <time>2025-05-02T12:26:02Z</time>
      </trkpt>
      <trkpt lat="41.755856964737177" lon="-7.378006987273693">
        <ele>764.38999999999999</ele>
        <time>2025-05-02T12:26:03Z</time>
      </trkpt>
      <trkpt lat="41.755804996937513" lon="-7.377834990620613">
        <ele>765.35000000000002</ele>
        <time>2025-05-02T12:26:04Z</time>
      </trkpt>
      <trkpt lat="41.755771972239017" lon="-7.37765503115952">
        <ele>766.78999999999996</ele>
        <time>2025-05-02T12:26:05Z</time>
      </trkpt>
      <trkpt lat="41.755783958360553" lon="-7.377469036728144">
        <ele>768.71000000000004</ele>
        <time>2025-05-02T12:26:06Z</time>
      </trkpt>
      <trkpt lat="41.75581899471581" lon="-7.377285975962877">
        <ele>770.14999999999998</ele>
        <time>2025-05-02T12:26:07Z</time>
      </trkpt>
      <trkpt lat="41.755855958908796" lon="-7.377095958217979">
        <ele>771.60000000000002</ele>
        <time>2025-05-02T12:26:08Z</time>
      </trkpt>
      <trkpt lat="41.755892001092434" lon="-7.37690401263535">
        <ele>773.03999999999996</ele>
        <time>2025-05-02T12:26:09Z</time>
      </trkpt>
      <trkpt lat="41.755927037447691" lon="-7.376720029860735">
        <ele>774</ele>
        <time>2025-05-02T12:26:10Z</time>
      </trkpt>
      <trkpt lat="41.755933994427323" lon="-7.376550966873765">
        <ele>775.44000000000005</ele>
        <time>2025-05-02T12:26:11Z</time>
      </trkpt>
      <trkpt lat="41.755915973335505" lon="-7.376396991312504">
        <ele>776.39999999999998</ele>
        <time>2025-05-02T12:26:12Z</time>
      </trkpt>
      <trkpt lat="41.755878003314137" lon="-7.37623798660934">
        <ele>777.36000000000001</ele>
        <time>2025-05-02T12:26:13Z</time>
      </trkpt>
      <trkpt lat="41.755784964188933" lon="-7.376117035746574">
        <ele>778.80999999999995</ele>
        <time>2025-05-02T12:26:14Z</time>
      </trkpt>
      <trkpt lat="41.755684968084097" lon="-7.375988038256764">
        <ele>779.76999999999998</ele>
        <time>2025-05-02T12:26:15Z</time>
      </trkpt>
      <trkpt lat="41.755564017221332" lon="-7.375877983868122">
        <ele>780.73000000000002</ele>
        <time>2025-05-02T12:26:16Z</time>
      </trkpt>
      <trkpt lat="41.75543200224638" lon="-7.375762984156609">
        <ele>782.16999999999996</ele>
        <time>2025-05-02T12:26:17Z</time>
      </trkpt>
      <trkpt lat="41.754822973161936" lon="-7.375367023050785">
        <ele>786.5</ele>
        <time>2025-05-02T12:26:21Z</time>
      </trkpt>
      <trkpt lat="41.754656005650759" lon="-7.375258980318904">
        <ele>787.46000000000004</ele>
        <time>2025-05-02T12:26:22Z</time>
      </trkpt>
      <trkpt lat="41.753838015720248" lon="-7.374871987849474">
        <ele>791.77999999999997</ele>
        <time>2025-05-02T12:26:27Z</time>
      </trkpt>
      <trkpt lat="41.753679011017084" lon="-7.374758999794722">
        <ele>792.74000000000001</ele>
        <time>2025-05-02T12:26:28Z</time>
      </trkpt>
      <trkpt lat="41.75352000631392" lon="-7.374646011739969">
        <ele>793.71000000000004</ele>
        <time>2025-05-02T12:26:29Z</time>
      </trkpt>
      <trkpt lat="41.753359995782375" lon="-7.374533023685217">
        <ele>794.66999999999996</ele>
        <time>2025-05-02T12:26:30Z</time>
      </trkpt>
      <trkpt lat="41.753185987472534" lon="-7.374449959024787">
        <ele>795.63</ele>
        <time>2025-05-02T12:26:31Z</time>
      </trkpt>
      <trkpt lat="41.753006028011441" lon="-7.374374018982053">
        <ele>796.59000000000003</ele>
        <time>2025-05-02T12:26:32Z</time>
      </trkpt>
      <trkpt lat="41.751356972381473" lon="-7.373578995466232">
        <ele>807.63999999999999</ele>
        <time>2025-05-02T12:26:42Z</time>
      </trkpt>
      <trkpt lat="41.750262966379523" lon="-7.373067028820515">
        <ele>810.52999999999997</ele>
        <time>2025-05-02T12:26:49Z</time>
      </trkpt>
      <trkpt lat="41.750084012746811" lon="-7.372983964160085">
        <ele>810.04999999999995</ele>
        <time>2025-05-02T12:26:50Z</time>
      </trkpt>
      <trkpt lat="41.749019008129835" lon="-7.372535029426217">
        <ele>806.67999999999995</ele>
        <time>2025-05-02T12:26:56Z</time>
      </trkpt>
      <trkpt lat="41.74842900596559" lon="-7.372401002794504">
        <ele>804.27999999999997</ele>
        <time>2025-05-02T12:26:59Z</time>
      </trkpt>
      <trkpt lat="41.746527990326285" lon="-7.371586030349135">
        <ele>796.59000000000003</ele>
        <time>2025-05-02T12:27:09Z</time>
      </trkpt>
      <trkpt lat="41.746394969522953" lon="-7.371462984010577">
        <ele>796.59000000000003</ele>
        <time>2025-05-02T12:27:10Z</time>
      </trkpt>
      <trkpt lat="41.745285959914327" lon="-7.370489006862044">
        <ele>796.11000000000001</ele>
        <time>2025-05-02T12:27:17Z</time>
      </trkpt>
      <trkpt lat="41.744016017764807" lon="-7.369656013324857">
        <ele>796.11000000000001</ele>
        <time>2025-05-02T12:27:25Z</time>
      </trkpt>
      <trkpt lat="41.742931986227632" lon="-7.369128037244082">
        <ele>792.25999999999999</ele>
        <time>2025-05-02T12:27:33Z</time>
      </trkpt>
      <trkpt lat="41.742824027314782" lon="-7.369046984240413">
        <ele>791.77999999999997</ele>
        <time>2025-05-02T12:27:34Z</time>
      </trkpt>
      <trkpt lat="41.742724031209946" lon="-7.368942964822054">
        <ele>790.82000000000005</ele>
        <time>2025-05-02T12:27:35Z</time>
      </trkpt>
      <trkpt lat="41.741577973589301" lon="-7.367834039032459">
        <ele>782.16999999999996</ele>
        <time>2025-05-02T12:27:46Z</time>
      </trkpt>
      <trkpt lat="41.740726958960295" lon="-7.367281001061201">
        <ele>776.88</ele>
        <time>2025-05-02T12:27:54Z</time>
      </trkpt>
      <trkpt lat="41.740034027025104" lon="-7.366799041628838">
        <ele>773.51999999999998</ele>
        <time>2025-05-02T12:28:02Z</time>
      </trkpt>
      <trkpt lat="41.7393400054425" lon="-7.366235023364425">
        <ele>770.14999999999998</ele>
        <time>2025-05-02T12:28:11Z</time>
      </trkpt>
      <trkpt lat="41.739130960777402" lon="-7.365879965946078">
        <ele>770.14999999999998</ele>
        <time>2025-05-02T12:28:15Z</time>
      </trkpt>
      <trkpt lat="41.739096008241177" lon="-7.365775024518371">
        <ele>770.14999999999998</ele>
        <time>2025-05-02T12:28:16Z</time>
      </trkpt>
      <trkpt lat="41.739062983542681" lon="-7.365660024806857">
        <ele>770.63</ele>
        <time>2025-05-02T12:28:17Z</time>
      </trkpt>
      <trkpt lat="41.739028031006455" lon="-7.365542007610202">
        <ele>770.63</ele>
        <time>2025-05-02T12:28:18Z</time>
      </trkpt>
      <trkpt lat="41.738994000479579" lon="-7.365421978756785">
        <ele>771.60000000000002</ele>
        <time>2025-05-02T12:28:19Z</time>
      </trkpt>
      <trkpt lat="41.738692000508308" lon="-7.364315986633301">
        <ele>776.88</ele>
        <time>2025-05-02T12:28:29Z</time>
      </trkpt>
      <trkpt lat="41.738696023821831" lon="-7.364196041598916">
        <ele>776.88</ele>
        <time>2025-05-02T12:28:30Z</time>
      </trkpt>
      <trkpt lat="41.738699963316321" lon="-7.3640760127455">
        <ele>776.39999999999998</ele>
        <time>2025-05-02T12:28:31Z</time>
      </trkpt>
      <trkpt lat="41.738900039345026" lon="-7.362631978467107">
        <ele>771.11000000000001</ele>
        <time>2025-05-02T12:28:40Z</time>
      </trkpt>
      <trkpt lat="41.738948989659548" lon="-7.362321009859443">
        <ele>770.14999999999998</ele>
        <time>2025-05-02T12:28:42Z</time>
      </trkpt>
      <trkpt lat="41.738916970789433" lon="-7.362125962972641">
        <ele>769.66999999999996</ele>
        <time>2025-05-02T12:28:43Z</time>
      </trkpt>
      <trkpt lat="41.738887969404459" lon="-7.36195002682507">
        <ele>769.19000000000005</ele>
        <time>2025-05-02T12:28:44Z</time>
      </trkpt>
      <trkpt lat="41.738797025755048" lon="-7.361366981640458">
        <ele>768.71000000000004</ele>
        <time>2025-05-02T12:28:47Z</time>
      </trkpt>
      <trkpt lat="41.738785961642861" lon="-7.361165983602405">
        <ele>769.19000000000005</ele>
        <time>2025-05-02T12:28:48Z</time>
      </trkpt>
      <trkpt lat="41.738731982186437" lon="-7.35975899733603">
        <ele>769.66999999999996</ele>
        <time>2025-05-02T12:28:55Z</time>
      </trkpt>
      <trkpt lat="41.738699963316321" lon="-7.359577026218176">
        <ele>770.14999999999998</ele>
        <time>2025-05-02T12:28:56Z</time>
      </trkpt>
      <trkpt lat="41.738649001345038" lon="-7.359407041221857">
        <ele>770.14999999999998</ele>
        <time>2025-05-02T12:28:57Z</time>
      </trkpt>
      <trkpt lat="41.738412966951728" lon="-7.358414959162474">
        <ele>771.11000000000001</ele>
        <time>2025-05-02T12:29:03Z</time>
      </trkpt>
      <trkpt lat="41.738403998315334" lon="-7.358221001923084">
        <ele>771.11000000000001</ele>
        <time>2025-05-02T12:29:04Z</time>
      </trkpt>
      <trkpt lat="41.738557973876595" lon="-7.356445966288447">
        <ele>771.60000000000002</ele>
        <time>2025-05-02T12:29:12Z</time>
      </trkpt>
      <trkpt lat="41.738600973039865" lon="-7.355684973299503">
        <ele>770.14999999999998</ele>
        <time>2025-05-02T12:29:15Z</time>
      </trkpt>
      <trkpt lat="41.738613964989781" lon="-7.355429995805025">
        <ele>770.63</ele>
        <time>2025-05-02T12:29:16Z</time>
      </trkpt>
      <trkpt lat="41.738596027716994" lon="-7.354032984003425">
        <ele>772.08000000000004</ele>
        <time>2025-05-02T12:29:22Z</time>
      </trkpt>
      <trkpt lat="41.738549005240202" lon="-7.353822011500597">
        <ele>772.55999999999995</ele>
        <time>2025-05-02T12:29:23Z</time>
      </trkpt>
      <trkpt lat="41.738412966951728" lon="-7.353222034871578">
        <ele>775.91999999999996</ele>
        <time>2025-05-02T12:29:26Z</time>
      </trkpt>
      <trkpt lat="41.738407015800476" lon="-7.353030005469918">
        <ele>776.88</ele>
        <time>2025-05-02T12:29:27Z</time>
      </trkpt>
      <trkpt lat="41.738401986658573" lon="-7.352831019088626">
        <ele>778.32000000000005</ele>
        <time>2025-05-02T12:29:28Z</time>
      </trkpt>
      <trkpt lat="41.738484967499971" lon="-7.351457979530096">
        <ele>787.46000000000004</ele>
        <time>2025-05-02T12:29:35Z</time>
      </trkpt>
      <trkpt lat="41.738507011905313" lon="-7.351291012018919">
        <ele>788.89999999999998</ele>
        <time>2025-05-02T12:29:36Z</time>
      </trkpt>
      <trkpt lat="41.738568032160401" lon="-7.351135024800897">
        <ele>789.86000000000001</ele>
        <time>2025-05-02T12:29:37Z</time>
      </trkpt>
      <trkpt lat="41.738628968596458" lon="-7.350978031754494">
        <ele>790.82000000000005</ele>
        <time>2025-05-02T12:29:38Z</time>
      </trkpt>
      <trkpt lat="41.738715972751379" lon="-7.350864037871361">
        <ele>791.77999999999997</ele>
        <time>2025-05-02T12:29:39Z</time>
      </trkpt>
      <trkpt lat="41.73882401548326" lon="-7.350763035938144">
        <ele>792.74000000000001</ele>
        <time>2025-05-02T12:29:40Z</time>
      </trkpt>
      <trkpt lat="41.738940021023154" lon="-7.350654993206263">
        <ele>793.71000000000004</ele>
        <time>2025-05-02T12:29:41Z</time>
      </trkpt>
      <trkpt lat="41.739075975492597" lon="-7.350588021799922">
        <ele>794.66999999999996</ele>
        <time>2025-05-02T12:29:42Z</time>
      </trkpt>
      <trkpt lat="41.739232968539" lon="-7.350531024858356">
        <ele>795.63</ele>
        <time>2025-05-02T12:29:43Z</time>
      </trkpt>
      <trkpt lat="41.739398008212447" lon="-7.350471010431647">
        <ele>796.11000000000001</ele>
        <time>2025-05-02T12:29:44Z</time>
      </trkpt>
      <trkpt lat="41.7400480248034" lon="-7.350203040987253">
        <ele>798.50999999999999</ele>
        <time>2025-05-02T12:29:48Z</time>
      </trkpt>
      <trkpt lat="41.740165036171675" lon="-7.350101033225656">
        <ele>799.47000000000003</ele>
        <time>2025-05-02T12:29:49Z</time>
      </trkpt>
      <trkpt lat="41.740268971771002" lon="-7.349948985502124">
        <ele>800.44000000000005</ele>
        <time>2025-05-02T12:29:50Z</time>
      </trkpt>
      <trkpt lat="41.741078998893499" lon="-7.348639983683825">
        <ele>808.61000000000001</ele>
        <time>2025-05-02T12:29:58Z</time>
      </trkpt>
      <trkpt lat="41.741138007491827" lon="-7.34847997315228">
        <ele>809.57000000000005</ele>
        <time>2025-05-02T12:29:59Z</time>
      </trkpt>
      <trkpt lat="41.741120992228389" lon="-7.34828601591289">
        <ele>810.52999999999997</ele>
        <time>2025-05-02T12:30:00Z</time>
      </trkpt>
      <trkpt lat="41.741104982793331" lon="-7.348097003996372">
        <ele>811.97000000000003</ele>
        <time>2025-05-02T12:30:01Z</time>
      </trkpt>
      <trkpt lat="41.741088973358274" lon="-7.347913021221757">
        <ele>812.92999999999995</ele>
        <time>2025-05-02T12:30:02Z</time>
      </trkpt>
      <trkpt lat="41.741084028035402" lon="-7.347195027396083">
        <ele>818.22000000000003</ele>
        <time>2025-05-02T12:30:07Z</time>
      </trkpt>
      <trkpt lat="41.741100959479809" lon="-7.347065024077892">
        <ele>819.17999999999995</ele>
        <time>2025-05-02T12:30:08Z</time>
      </trkpt>
      <trkpt lat="41.741434978321195" lon="-7.346139997243881">
        <ele>821.58000000000004</ele>
        <time>2025-05-02T12:30:17Z</time>
      </trkpt>
      <trkpt lat="41.741604041308165" lon="-7.34566499479115">
        <ele>821.58000000000004</ele>
        <time>2025-05-02T12:30:21Z</time>
      </trkpt>
      <trkpt lat="41.741632036864758" lon="-7.345561981201172">
        <ele>821.10000000000002</ele>
        <time>2025-05-02T12:30:22Z</time>
      </trkpt>
      <trkpt lat="41.741632036864758" lon="-7.345423009246588">
        <ele>820.62</ele>
        <time>2025-05-02T12:30:23Z</time>
      </trkpt>
      <trkpt lat="41.741632036864758" lon="-7.345293005928397">
        <ele>820.13999999999999</ele>
        <time>2025-05-02T12:30:24Z</time>
      </trkpt>
      <trkpt lat="41.741621978580952" lon="-7.345165014266968">
        <ele>820.13999999999999</ele>
        <time>2025-05-02T12:30:25Z</time>
      </trkpt>
      <trkpt lat="41.741597000509501" lon="-7.345030987635255">
        <ele>820.13999999999999</ele>
        <time>2025-05-02T12:30:26Z</time>
      </trkpt>
      <trkpt lat="41.74138099886477" lon="-7.343577984720469">
        <ele>818.22000000000003</ele>
        <time>2025-05-02T12:30:36Z</time>
      </trkpt>
      <trkpt lat="41.741391979157925" lon="-7.343441024422646">
        <ele>817.74000000000001</ele>
        <time>2025-05-02T12:30:37Z</time>
      </trkpt>
      <trkpt lat="41.74140203744173" lon="-7.343308003619313">
        <ele>817.25999999999999</ele>
        <time>2025-05-02T12:30:38Z</time>
      </trkpt>
      <trkpt lat="41.741517037153244" lon="-7.341924989596009">
        <ele>810.52999999999997</ele>
        <time>2025-05-02T12:30:50Z</time>
      </trkpt>
      <trkpt lat="41.741579985246062" lon="-7.341258963569999">
        <ele>807.15999999999997</ele>
        <time>2025-05-02T12:30:59Z</time>
      </trkpt>
      <trkpt lat="41.741615021601319" lon="-7.340858979150653">
        <ele>802.84000000000003</ele>
        <time>2025-05-02T12:31:08Z</time>
      </trkpt>
      <trkpt lat="41.741624996066093" lon="-7.340731993317604">
        <ele>802.36000000000001</ele>
        <time>2025-05-02T12:31:10Z</time>
      </trkpt>
      <trkpt lat="41.741632036864758" lon="-7.340648006647825">
        <ele>801.88</ele>
        <time>2025-05-02T12:31:11Z</time>
      </trkpt>
      <trkpt lat="41.741546038538218" lon="-7.339982986450195">
        <ele>796.11000000000001</ele>
        <time>2025-05-02T12:31:22Z</time>
      </trkpt>
      <trkpt lat="41.74153002910316" lon="-7.339963959529996">
        <ele>795.14999999999998</ele>
        <time>2025-05-02T12:31:23Z</time>
      </trkpt>
      <trkpt lat="41.741384016349912" lon="-7.339789029210806">
        <ele>793.71000000000004</ele>
        <time>2025-05-02T12:31:27Z</time>
      </trkpt>
      <trkpt lat="41.741346968337893" lon="-7.339745024219155">
        <ele>793.71000000000004</ele>
        <time>2025-05-02T12:31:28Z</time>
      </trkpt>
      <trkpt lat="41.741328025236726" lon="-7.339680986478925">
        <ele>793.22000000000003</ele>
        <time>2025-05-02T12:31:29Z</time>
      </trkpt>
      <trkpt lat="41.741324001923203" lon="-7.339618960395455">
        <ele>792.74000000000001</ele>
        <time>2025-05-02T12:31:30Z</time>
      </trkpt>
      <trkpt lat="41.741318972781301" lon="-7.339555006474257">
        <ele>792.74000000000001</ele>
        <time>2025-05-02T12:31:31Z</time>
      </trkpt>
      <trkpt lat="41.741314027458429" lon="-7.339488035067916">
        <ele>792.25999999999999</ele>
        <time>2025-05-02T12:31:32Z</time>
      </trkpt>
      <trkpt lat="41.741310004144907" lon="-7.339425003156066">
        <ele>791.77999999999997</ele>
        <time>2025-05-02T12:31:33Z</time>
      </trkpt>
      <trkpt lat="41.74131503328681" lon="-7.339346967637539">
        <ele>791.77999999999997</ele>
        <time>2025-05-02T12:31:34Z</time>
      </trkpt>
      <trkpt lat="41.741320984438062" lon="-7.339272033423185">
        <ele>791.29999999999995</ele>
        <time>2025-05-02T12:31:35Z</time>
      </trkpt>
      <trkpt lat="41.741325007751584" lon="-7.339080004021525">
        <ele>790.34000000000003</ele>
        <time>2025-05-02T12:31:38Z</time>
      </trkpt>
      <trkpt lat="41.741316961124539" lon="-7.339026024565101">
        <ele>789.86000000000001</ele>
        <time>2025-05-02T12:31:39Z</time>
      </trkpt>
      <trkpt lat="41.741310004144907" lon="-7.338974978774786">
        <ele>789.86000000000001</ele>
        <time>2025-05-02T12:31:40Z</time>
      </trkpt>
      <trkpt lat="41.741269016638398" lon="-7.338893003761768">
        <ele>789.38</ele>
        <time>2025-05-02T12:31:42Z</time>
      </trkpt>
      <trkpt lat="41.741245966404676" lon="-7.338847992941737">
        <ele>789.38</ele>
        <time>2025-05-02T12:31:43Z</time>
      </trkpt>
      <trkpt lat="41.741235991939902" lon="-7.338841035962105">
        <ele>789.38</ele>
        <time>2025-05-02T12:31:44Z</time>
      </trkpt>
      <trkpt lat="41.741201961413026" lon="-7.338824020698667">
        <ele>788.89999999999998</ele>
        <time>2025-05-02T12:31:45Z</time>
      </trkpt>
      <trkpt lat="41.741158962249756" lon="-7.338802982121706">
        <ele>788.89999999999998</ele>
        <time>2025-05-02T12:31:46Z</time>
      </trkpt>
      <trkpt lat="41.741111017763615" lon="-7.338747996836901">
        <ele>788.89999999999998</ele>
        <time>2025-05-02T12:31:47Z</time>
      </trkpt>
      <trkpt lat="41.741061983630061" lon="-7.338693011552095">
        <ele>788.41999999999996</ele>
        <time>2025-05-02T12:31:48Z</time>
      </trkpt>
      <trkpt lat="41.740987971425056" lon="-7.338610030710697">
        <ele>788.41999999999996</ele>
        <time>2025-05-02T12:31:49Z</time>
      </trkpt>
      <trkpt lat="41.740961987525225" lon="-7.33855496160686">
        <ele>787.94000000000005</ele>
        <time>2025-05-02T12:31:50Z</time>
      </trkpt>
      <trkpt lat="41.740686977282166" lon="-7.337965965270996">
        <ele>782.64999999999998</ele>
        <time>2025-05-02T12:32:00Z</time>
      </trkpt>
      <trkpt lat="41.740610031411052" lon="-7.337920032441616">
        <ele>781.69000000000005</ele>
        <time>2025-05-02T12:32:02Z</time>
      </trkpt>
      <trkpt lat="41.740580024197698" lon="-7.337902011349797">
        <ele>781.21000000000004</ele>
        <time>2025-05-02T12:32:03Z</time>
      </trkpt>
      <trkpt lat="41.740577006712556" lon="-7.337902011349797">
        <ele>780.73000000000002</ele>
        <time>2025-05-02T12:32:04Z</time>
      </trkpt>
      <trkpt lat="41.740511963143945" lon="-7.337896982207894">
        <ele>778.32000000000005</ele>
        <time>2025-05-02T12:32:14Z</time>
      </trkpt>
      <trkpt lat="41.740511963143945" lon="-7.337896982207894">
        <ele>777.84000000000003</ele>
        <time>2025-05-02T12:32:27Z</time>
      </trkpt>
      <trkpt lat="41.740511963143945" lon="-7.337896982207894">
        <ele>777.36000000000001</ele>
        <time>2025-05-02T12:33:11Z</time>
      </trkpt>
      <trkpt lat="41.740511963143945" lon="-7.337896982207894">
        <ele>776.88</ele>
        <time>2025-05-02T12:33:48Z</time>
      </trkpt>
      <trkpt lat="41.740511963143945" lon="-7.337896982207894">
        <ele>777.84000000000003</ele>
        <time>2025-05-02T12:34:29Z</time>
      </trkpt>
      <trkpt lat="41.740511963143945" lon="-7.337896982207894">
        <ele>778.32000000000005</ele>
        <time>2025-05-02T12:35:14Z</time>
      </trkpt>
      <trkpt lat="41.740511963143945" lon="-7.337896982207894">
        <ele>778.32000000000005</ele>
        <time>2025-05-02T12:35:57Z</time>
      </trkpt>
      <trkpt lat="41.740511963143945" lon="-7.337896982207894">
        <ele>777.84000000000003</ele>
        <time>2025-05-02T12:36:34Z</time>
      </trkpt>
      <trkpt lat="41.740267965942621" lon="-7.337880972772837">
        <ele>775.91999999999996</ele>
        <time>2025-05-02T12:36:44Z</time>
      </trkpt>
      <trkpt lat="41.73949096351862" lon="-7.337763039395213">
        <ele>773.51999999999998</ele>
        <time>2025-05-02T12:36:54Z</time>
      </trkpt>
      <trkpt lat="41.738761989399791" lon="-7.337440000846982">
        <ele>771.11000000000001</ele>
        <time>2025-05-02T12:37:02Z</time>
      </trkpt>
      <trkpt lat="41.738297967240214" lon="-7.337190974503756">
        <ele>769.66999999999996</ele>
        <time>2025-05-02T12:37:06Z</time>
      </trkpt>
      <trkpt lat="41.73817802220583" lon="-7.33717898838222">
        <ele>769.66999999999996</ele>
        <time>2025-05-02T12:37:07Z</time>
      </trkpt>
      <trkpt lat="41.738053970038891" lon="-7.337165996432304">
        <ele>769.19000000000005</ele>
        <time>2025-05-02T12:37:08Z</time>
      </trkpt>
      <trkpt lat="41.737032970413566" lon="-7.337013026699424">
        <ele>767.26999999999998</ele>
        <time>2025-05-02T12:37:16Z</time>
      </trkpt>
      <trkpt lat="41.736902967095375" lon="-7.336930967867374">
        <ele>766.78999999999996</ele>
        <time>2025-05-02T12:37:17Z</time>
      </trkpt>
      <trkpt lat="41.736769024282694" lon="-7.336832983419299">
        <ele>765.83000000000004</ele>
        <time>2025-05-02T12:37:18Z</time>
      </trkpt>
      <trkpt lat="41.736080031841993" lon="-7.336245998740196">
        <ele>759.58000000000004</ele>
        <time>2025-05-02T12:37:23Z</time>
      </trkpt>
      <trkpt lat="41.735947011038661" lon="-7.336108032613993">
        <ele>758.62</ele>
        <time>2025-05-02T12:37:24Z</time>
      </trkpt>
      <trkpt lat="41.735396990552545" lon="-7.335370006039739">
        <ele>754.76999999999998</ele>
        <time>2025-05-02T12:37:29Z</time>
      </trkpt>
      <trkpt lat="41.735302023589611" lon="-7.335241008549929">
        <ele>754.28999999999996</ele>
        <time>2025-05-02T12:37:30Z</time>
      </trkpt>
      <trkpt lat="41.735204961150885" lon="-7.335204966366291">
        <ele>754.28999999999996</ele>
        <time>2025-05-02T12:37:31Z</time>
      </trkpt>
      <trkpt lat="41.735080992802978" lon="-7.335160039365292">
        <ele>753.80999999999995</ele>
        <time>2025-05-02T12:37:32Z</time>
      </trkpt>
      <trkpt lat="41.734948977828026" lon="-7.335111005231738">
        <ele>753.33000000000004</ele>
        <time>2025-05-02T12:37:33Z</time>
      </trkpt>
      <trkpt lat="41.733463034033775" lon="-7.334478003904223">
        <ele>749.97000000000003</ele>
        <time>2025-05-02T12:37:43Z</time>
      </trkpt>
      <trkpt lat="41.7325499933213" lon="-7.333765961229801">
        <ele>749.49000000000001</ele>
        <time>2025-05-02T12:37:50Z</time>
      </trkpt>
      <trkpt lat="41.732438011094928" lon="-7.333627995103598">
        <ele>749.49000000000001</ele>
        <time>2025-05-02T12:37:51Z</time>
      </trkpt>
      <trkpt lat="41.731495968997478" lon="-7.332152025774121">
        <ele>745.15999999999997</ele>
        <time>2025-05-02T12:38:00Z</time>
      </trkpt>
      <trkpt lat="41.731203021481633" lon="-7.331679034978151">
        <ele>741.78999999999996</ele>
        <time>2025-05-02T12:38:04Z</time>
      </trkpt>
      <trkpt lat="41.731148036196828" lon="-7.331450963392854">
        <ele>740.35000000000002</ele>
        <time>2025-05-02T12:38:05Z</time>
      </trkpt>
      <trkpt lat="41.73111098818481" lon="-7.331301011145115">
        <ele>739.38999999999999</ele>
        <time>2025-05-02T12:38:06Z</time>
      </trkpt>
      <trkpt lat="41.730771018192172" lon="-7.329987986013293">
        <ele>730.74000000000001</ele>
        <time>2025-05-02T12:38:13Z</time>
      </trkpt>
      <trkpt lat="41.730022011324763" lon="-7.327984040603042">
        <ele>718.72000000000003</ele>
        <time>2025-05-02T12:38:24Z</time>
      </trkpt>
      <trkpt lat="41.72971498221159" lon="-7.327560000121594">
        <ele>714.39999999999998</ele>
        <time>2025-05-02T12:38:27Z</time>
      </trkpt>
      <trkpt lat="41.729623032733798" lon="-7.327441982924938">
        <ele>712.95000000000005</ele>
        <time>2025-05-02T12:38:28Z</time>
      </trkpt>
      <trkpt lat="41.729509960860014" lon="-7.327363025397062">
        <ele>711.99000000000001</ele>
        <time>2025-05-02T12:38:29Z</time>
      </trkpt>
      <trkpt lat="41.729138977825642" lon="-7.32710100710392">
        <ele>707.66999999999996</ele>
        <time>2025-05-02T12:38:32Z</time>
      </trkpt>
      <trkpt lat="41.728541012853384" lon="-7.326613012701273">
        <ele>700.94000000000005</ele>
        <time>2025-05-02T12:38:37Z</time>
      </trkpt>
      <trkpt lat="41.728448979556561" lon="-7.326507987454534">
        <ele>699.98000000000002</ele>
        <time>2025-05-02T12:38:38Z</time>
      </trkpt>
      <trkpt lat="41.727706007659435" lon="-7.325341980904341">
        <ele>687.48000000000002</ele>
        <time>2025-05-02T12:38:46Z</time>
      </trkpt>
      <trkpt lat="41.727613974362612" lon="-7.325182976201177">
        <ele>686.03999999999996</ele>
        <time>2025-05-02T12:38:47Z</time>
      </trkpt>
      <trkpt lat="41.727222036570311" lon="-7.324612000957131">
        <ele>680.26999999999998</ele>
        <time>2025-05-02T12:38:51Z</time>
      </trkpt>
      <trkpt lat="41.727016009390354" lon="-7.324359035119414">
        <ele>677.87</ele>
        <time>2025-05-02T12:38:53Z</time>
      </trkpt>
      <trkpt lat="41.726905032992363" lon="-7.32422299683094">
        <ele>675.94000000000005</ele>
        <time>2025-05-02T12:38:54Z</time>
      </trkpt>
      <trkpt lat="41.726796990260482" lon="-7.324057035148144">
        <ele>674.5</ele>
        <time>2025-05-02T12:38:55Z</time>
      </trkpt>
      <trkpt lat="41.72606298699975" lon="-7.322313012555242">
        <ele>661.03999999999996</ele>
        <time>2025-05-02T12:39:04Z</time>
      </trkpt>
      <trkpt lat="41.725904988124967" lon="-7.322014030069113">
        <ele>658.63999999999999</ele>
        <time>2025-05-02T12:39:06Z</time>
      </trkpt>
      <trkpt lat="41.72582401894033" lon="-7.321869023144245">
        <ele>658.15999999999997</ele>
        <time>2025-05-02T12:39:07Z</time>
      </trkpt>
      <trkpt lat="41.725736008957028" lon="-7.321726027876139">
        <ele>657.20000000000005</ele>
        <time>2025-05-02T12:39:08Z</time>
      </trkpt>
      <trkpt lat="41.725624026730657" lon="-7.321608010679483">
        <ele>655.75999999999999</ele>
        <time>2025-05-02T12:39:09Z</time>
      </trkpt>
      <trkpt lat="41.725514978170395" lon="-7.32149301096797">
        <ele>654.79999999999995</ele>
        <time>2025-05-02T12:39:10Z</time>
      </trkpt>
      <trkpt lat="41.725412970408797" lon="-7.321384968236089">
        <ele>653.83000000000004</ele>
        <time>2025-05-02T12:39:11Z</time>
      </trkpt>
      <trkpt lat="41.725304005667567" lon="-7.321311961859465">
        <ele>652.87</ele>
        <time>2025-05-02T12:39:12Z</time>
      </trkpt>
      <trkpt lat="41.725188000127673" lon="-7.321266029030085">
        <ele>651.90999999999997</ele>
        <time>2025-05-02T12:39:13Z</time>
      </trkpt>
      <trkpt lat="41.725070988759398" lon="-7.321221018210053">
        <ele>650.95000000000005</ele>
        <time>2025-05-02T12:39:14Z</time>
      </trkpt>
      <trkpt lat="41.724955989047885" lon="-7.321175001561642">
        <ele>649.50999999999999</ele>
        <time>2025-05-02T12:39:15Z</time>
      </trkpt>
      <trkpt lat="41.724847024306655" lon="-7.321132002398372">
        <ele>649.02999999999997</ele>
        <time>2025-05-02T12:39:16Z</time>
      </trkpt>
      <trkpt lat="41.724747028201818" lon="-7.321072993800044">
        <ele>647.59000000000003</ele>
        <time>2025-05-02T12:39:17Z</time>
      </trkpt>
      <trkpt lat="41.724672010168433" lon="-7.320967968553305">
        <ele>646.62</ele>
        <time>2025-05-02T12:39:18Z</time>
      </trkpt>
      <trkpt lat="41.724597997963428" lon="-7.320863027125597">
        <ele>645.65999999999997</ele>
        <time>2025-05-02T12:39:19Z</time>
      </trkpt>
      <trkpt lat="41.724507976323366" lon="-7.320736041292548">
        <ele>645.17999999999995</ele>
        <time>2025-05-02T12:39:20Z</time>
      </trkpt>
      <trkpt lat="41.724466988816857" lon="-7.320608971640468">
        <ele>644.22000000000003</ele>
        <time>2025-05-02T12:39:21Z</time>
      </trkpt>
      <trkpt lat="41.724418960511684" lon="-7.320460025221109">
        <ele>643.74000000000001</ele>
        <time>2025-05-02T12:39:22Z</time>
      </trkpt>
      <trkpt lat="41.724228020757437" lon="-7.319829035550356">
        <ele>641.82000000000005</ele>
        <time>2025-05-02T12:39:26Z</time>
      </trkpt>
      <trkpt lat="41.724198013544083" lon="-7.319678999483585">
        <ele>641.34000000000003</ele>
        <time>2025-05-02T12:39:27Z</time>
      </trkpt>
      <trkpt lat="41.723782019689679" lon="-7.318256003782153">
        <ele>637.00999999999999</ele>
        <time>2025-05-02T12:39:36Z</time>
      </trkpt>
      <trkpt lat="41.723478008061647" lon="-7.317526023834944">
        <ele>633.16999999999996</ele>
        <time>2025-05-02T12:39:41Z</time>
      </trkpt>
      <trkpt lat="41.723366025835276" lon="-7.317256964743137">
        <ele>631.24000000000001</ele>
        <time>2025-05-02T12:39:44Z</time>
      </trkpt>
      <trkpt lat="41.723345993086696" lon="-7.317192004993558">
        <ele>630.27999999999997</ele>
        <time>2025-05-02T12:39:45Z</time>
      </trkpt>
      <trkpt lat="41.72333300113678" lon="-7.317102989181876">
        <ele>629.32000000000005</ele>
        <time>2025-05-02T12:39:46Z</time>
      </trkpt>
      <trkpt lat="41.723308023065329" lon="-7.316896039992571">
        <ele>628.36000000000001</ele>
        <time>2025-05-02T12:39:48Z</time>
      </trkpt>
      <trkpt lat="41.723367031663656" lon="-7.316137980669737">
        <ele>624.50999999999999</ele>
        <time>2025-05-02T12:39:54Z</time>
      </trkpt>
      <trkpt lat="41.72335697337985" lon="-7.316005965694785">
        <ele>623.54999999999995</ele>
        <time>2025-05-02T12:39:55Z</time>
      </trkpt>
      <trkpt lat="41.723337024450302" lon="-7.315870011225343">
        <ele>622.59000000000003</ele>
        <time>2025-05-02T12:39:56Z</time>
      </trkpt>
      <trkpt lat="41.72329100780189" lon="-7.31573699042201">
        <ele>622.11000000000001</ele>
        <time>2025-05-02T12:39:57Z</time>
      </trkpt>
      <trkpt lat="41.723245996981859" lon="-7.315603969618678">
        <ele>621.14999999999998</ele>
        <time>2025-05-02T12:39:58Z</time>
      </trkpt>
      <trkpt lat="41.723155975341797" lon="-7.315341029316187">
        <ele>619.23000000000002</ele>
        <time>2025-05-02T12:40:00Z</time>
      </trkpt>
      <trkpt lat="41.722871996462345" lon="-7.314512981101871">
        <ele>612.98000000000002</ele>
        <time>2025-05-02T12:40:08Z</time>
      </trkpt>
      <trkpt lat="41.722852969542146" lon="-7.314456989988685">
        <ele>612.5</ele>
        <time>2025-05-02T12:40:09Z</time>
      </trkpt>
      <trkpt lat="41.722838971763849" lon="-7.314413990825415">
        <ele>612.01999999999998</ele>
        <time>2025-05-02T12:40:10Z</time>
      </trkpt>
      <trkpt lat="41.722828997299075" lon="-7.314384989440441">
        <ele>611.05999999999995</ele>
        <time>2025-05-02T12:40:11Z</time>
      </trkpt>
      <trkpt lat="41.722739981487393" lon="-7.314342996105552">
        <ele>610.57000000000005</ele>
        <time>2025-05-02T12:40:12Z</time>
      </trkpt>
      <trkpt lat="41.722720032557845" lon="-7.314368980005384">
        <ele>609.61000000000001</ele>
        <time>2025-05-02T12:40:13Z</time>
      </trkpt>
      <trkpt lat="41.722691031172872" lon="-7.314406028017402">
        <ele>609.13</ele>
        <time>2025-05-02T12:40:14Z</time>
      </trkpt>
      <trkpt lat="41.722653983160853" lon="-7.314452966675162">
        <ele>608.64999999999998</ele>
        <time>2025-05-02T12:40:15Z</time>
      </trkpt>
      <trkpt lat="41.722606960684061" lon="-7.314513986930251">
        <ele>607.69000000000005</ele>
        <time>2025-05-02T12:40:16Z</time>
      </trkpt>
      <trkpt lat="41.722072027623653" lon="-7.3151970282197">
        <ele>606.25</ele>
        <time>2025-05-02T12:40:23Z</time>
      </trkpt>
      <trkpt lat="41.721002999693155" lon="-7.316562021151185">
        <ele>602.39999999999998</ele>
        <time>2025-05-02T12:40:33Z</time>
      </trkpt>
      <trkpt lat="41.719666002318263" lon="-7.318275030702353">
        <ele>599.51999999999998</ele>
        <time>2025-05-02T12:40:45Z</time>
      </trkpt>
      <trkpt lat="41.718505024909973" lon="-7.319764997810125">
        <ele>600.96000000000004</ele>
        <time>2025-05-02T12:40:55Z</time>
      </trkpt>
      <trkpt lat="41.717383023351431" lon="-7.321206014603376">
        <ele>606.25</ele>
        <time>2025-05-02T12:41:04Z</time>
      </trkpt>
      <trkpt lat="41.71587604098022" lon="-7.323151035234332">
        <ele>611.05999999999995</ele>
        <time>2025-05-02T12:41:16Z</time>
      </trkpt>
      <trkpt lat="41.715222001075745" lon="-7.324190977960825">
        <ele>611.53999999999996</ele>
        <time>2025-05-02T12:41:22Z</time>
      </trkpt>
      <trkpt lat="41.715159974992275" lon="-7.32439499348402">
        <ele>612.01999999999998</ele>
        <time>2025-05-02T12:41:23Z</time>
      </trkpt>
      <trkpt lat="41.714535020291805" lon="-7.326501030474901">
        <ele>618.75</ele>
        <time>2025-05-02T12:41:33Z</time>
      </trkpt>
      <trkpt lat="41.714115003123879" lon="-7.328361980617046">
        <ele>621.63</ele>
        <time>2025-05-02T12:41:42Z</time>
      </trkpt>
      <trkpt lat="41.714101005345583" lon="-7.328570019453764">
        <ele>621.63</ele>
        <time>2025-05-02T12:41:43Z</time>
      </trkpt>
      <trkpt lat="41.714101005345583" lon="-7.328785015270114">
        <ele>621.63</ele>
        <time>2025-05-02T12:41:44Z</time>
      </trkpt>
      <trkpt lat="41.71407300978899" lon="-7.330663986504078">
        <ele>618.75</ele>
        <time>2025-05-02T12:41:53Z</time>
      </trkpt>
      <trkpt lat="41.713899001479149" lon="-7.331268992275">
        <ele>618.75</ele>
        <time>2025-05-02T12:41:57Z</time>
      </trkpt>
      <trkpt lat="41.713848961517215" lon="-7.331367982551456">
        <ele>618.75</ele>
        <time>2025-05-02T12:41:58Z</time>
      </trkpt>
      <trkpt lat="41.713784001767635" lon="-7.331420034170151">
        <ele>618.75</ele>
        <time>2025-05-02T12:41:59Z</time>
      </trkpt>
      <trkpt lat="41.713706972077489" lon="-7.331473007798195">
        <ele>618.25999999999999</ele>
        <time>2025-05-02T12:42:00Z</time>
      </trkpt>
      <trkpt lat="41.713634971529245" lon="-7.331522963941097">
        <ele>618.25999999999999</ele>
        <time>2025-05-02T12:42:01Z</time>
      </trkpt>
      <trkpt lat="41.713564982637763" lon="-7.33157099224627">
        <ele>618.25999999999999</ele>
        <time>2025-05-02T12:42:02Z</time>
      </trkpt>
      <trkpt lat="41.713421987369657" lon="-7.331622960045934">
        <ele>619.23000000000002</ele>
        <time>2025-05-02T12:42:04Z</time>
      </trkpt>
      <trkpt lat="41.713350992649794" lon="-7.331649027764797">
        <ele>619.71000000000004</ele>
        <time>2025-05-02T12:42:05Z</time>
      </trkpt>
      <trkpt lat="41.713273962959647" lon="-7.331659002229571">
        <ele>620.19000000000005</ele>
        <time>2025-05-02T12:42:06Z</time>
      </trkpt>
      <trkpt lat="41.713187964633107" lon="-7.331661013886333">
        <ele>620.66999999999996</ele>
        <time>2025-05-02T12:42:07Z</time>
      </trkpt>
      <trkpt lat="41.713092997670174" lon="-7.331663025543094">
        <ele>621.14999999999998</ele>
        <time>2025-05-02T12:42:08Z</time>
      </trkpt>
      <trkpt lat="41.711981976404786" lon="-7.331790011376143">
        <ele>628.36000000000001</ele>
        <time>2025-05-02T12:42:18Z</time>
      </trkpt>
      <trkpt lat="41.711872005835176" lon="-7.331818006932735">
        <ele>629.32000000000005</ele>
        <time>2025-05-02T12:42:19Z</time>
      </trkpt>
      <trkpt lat="41.711654998362064" lon="-7.331905011087656">
        <ele>630.27999999999997</ele>
        <time>2025-05-02T12:42:21Z</time>
      </trkpt>
      <trkpt lat="41.711556008085608" lon="-7.331984974443913">
        <ele>630.75999999999999</ele>
        <time>2025-05-02T12:42:22Z</time>
      </trkpt>
      <trkpt lat="41.711458023637533" lon="-7.332073990255594">
        <ele>631.24000000000001</ele>
        <time>2025-05-02T12:42:23Z</time>
      </trkpt>
      <trkpt lat="41.711369007825851" lon="-7.332169963046908">
        <ele>631.24000000000001</ele>
        <time>2025-05-02T12:42:24Z</time>
      </trkpt>
      <trkpt lat="41.711288038641214" lon="-7.332283034920692">
        <ele>631.72000000000003</ele>
        <time>2025-05-02T12:42:25Z</time>
      </trkpt>
      <trkpt lat="41.711208997294307" lon="-7.332395017147064">
        <ele>631.72000000000003</ele>
        <time>2025-05-02T12:42:26Z</time>
      </trkpt>
      <trkpt lat="41.710376003757119" lon="-7.333549037575722">
        <ele>634.61000000000001</ele>
        <time>2025-05-02T12:42:37Z</time>
      </trkpt>
      <trkpt lat="41.710290005430579" lon="-7.333661019802094">
        <ele>635.57000000000005</ele>
        <time>2025-05-02T12:42:38Z</time>
      </trkpt>
      <trkpt lat="41.710195960476995" lon="-7.333781970664859">
        <ele>636.52999999999997</ele>
        <time>2025-05-02T12:42:39Z</time>
      </trkpt>
      <trkpt lat="41.710109040141106" lon="-7.333879033103585">
        <ele>637.97000000000003</ele>
        <time>2025-05-02T12:42:40Z</time>
      </trkpt>
      <trkpt lat="41.710023963823915" lon="-7.333975005894899">
        <ele>639.40999999999997</ele>
        <time>2025-05-02T12:42:41Z</time>
      </trkpt>
      <trkpt lat="41.709907036274672" lon="-7.334013981744647">
        <ele>640.38</ele>
        <time>2025-05-02T12:42:42Z</time>
      </trkpt>
      <trkpt lat="41.709781978279352" lon="-7.334044994786382">
        <ele>641.82000000000005</ele>
        <time>2025-05-02T12:42:43Z</time>
      </trkpt>
      <trkpt lat="41.709644012153149" lon="-7.334061004221439">
        <ele>642.77999999999997</ele>
        <time>2025-05-02T12:42:44Z</time>
      </trkpt>
      <trkpt lat="41.709501016885042" lon="-7.334078019484878">
        <ele>643.25999999999999</ele>
        <time>2025-05-02T12:42:45Z</time>
      </trkpt>
      <trkpt lat="41.709106983616948" lon="-7.334124036133289">
        <ele>646.13999999999999</ele>
        <time>2025-05-02T12:42:48Z</time>
      </trkpt>
      <trkpt lat="41.708996007218957" lon="-7.334205005317926">
        <ele>647.10000000000002</ele>
        <time>2025-05-02T12:42:49Z</time>
      </trkpt>
      <trkpt lat="41.708881007507443" lon="-7.334291003644466">
        <ele>648.54999999999995</ele>
        <time>2025-05-02T12:42:50Z</time>
      </trkpt>
      <trkpt lat="41.70846501365304" lon="-7.334819985553622">
        <ele>652.87</ele>
        <time>2025-05-02T12:42:54Z</time>
      </trkpt>
      <trkpt lat="41.707575023174286" lon="-7.336363010108471">
        <ele>659.60000000000002</ele>
        <time>2025-05-02T12:43:03Z</time>
      </trkpt>
      <trkpt lat="41.707491958513856" lon="-7.336507011204958">
        <ele>660.55999999999995</ele>
        <time>2025-05-02T12:43:04Z</time>
      </trkpt>
      <trkpt lat="41.707457005977631" lon="-7.336674984544516">
        <ele>661.03999999999996</ele>
        <time>2025-05-02T12:43:05Z</time>
      </trkpt>
      <trkpt lat="41.707419035956264" lon="-7.33685402199626">
        <ele>661.51999999999998</ele>
        <time>2025-05-02T12:43:06Z</time>
      </trkpt>
      <trkpt lat="41.707393974065781" lon="-7.337041022256017">
        <ele>662.00999999999999</ele>
        <time>2025-05-02T12:43:07Z</time>
      </trkpt>
      <trkpt lat="41.707375030964613" lon="-7.337245959788561">
        <ele>662.49000000000001</ele>
        <time>2025-05-02T12:43:08Z</time>
      </trkpt>
      <trkpt lat="41.707252990454435" lon="-7.337969988584518">
        <ele>664.88999999999999</ele>
        <time>2025-05-02T12:43:12Z</time>
      </trkpt>
      <trkpt lat="41.70719800516963" lon="-7.338095968589187">
        <ele>665.37</ele>
        <time>2025-05-02T12:43:13Z</time>
      </trkpt>
      <trkpt lat="41.707126004621387" lon="-7.338170986622572">
        <ele>666.80999999999995</ele>
        <time>2025-05-02T12:43:14Z</time>
      </trkpt>
      <trkpt lat="41.707027014344931" lon="-7.338196970522404">
        <ele>667.28999999999996</ele>
        <time>2025-05-02T12:43:15Z</time>
      </trkpt>
      <trkpt lat="41.70691997744143" lon="-7.338225971907377">
        <ele>668.25</ele>
        <time>2025-05-02T12:43:16Z</time>
      </trkpt>
      <trkpt lat="41.706804977729917" lon="-7.338256984949112">
        <ele>669.22000000000003</ele>
        <time>2025-05-02T12:43:17Z</time>
      </trkpt>
      <trkpt lat="41.706555029377341" lon="-7.338323034346104">
        <ele>671.13999999999999</ele>
        <time>2025-05-02T12:43:19Z</time>
      </trkpt>
      <trkpt lat="41.705408971756697" lon="-7.338808011263609">
        <ele>679.30999999999995</ele>
        <time>2025-05-02T12:43:27Z</time>
      </trkpt>
      <trkpt lat="41.704783011227846" lon="-7.339034993201494">
        <ele>684.12</ele>
        <time>2025-05-02T12:43:32Z</time>
      </trkpt>
      <trkpt lat="41.704574972391129" lon="-7.339144041761756">
        <ele>686.03999999999996</ele>
        <time>2025-05-02T12:43:34Z</time>
      </trkpt>
      <trkpt lat="41.704476987943053" lon="-7.339188968762755">
        <ele>686.51999999999998</ele>
        <time>2025-05-02T12:43:35Z</time>
      </trkpt>
      <trkpt lat="41.704368023201823" lon="-7.339188968762755">
        <ele>687.48000000000002</ele>
        <time>2025-05-02T12:43:36Z</time>
      </trkpt>
      <trkpt lat="41.704256040975451" lon="-7.339188968762755">
        <ele>687.96000000000004</ele>
        <time>2025-05-02T12:43:37Z</time>
      </trkpt>
      <trkpt lat="41.704141963273287" lon="-7.339188968762755">
        <ele>688.91999999999996</ele>
        <time>2025-05-02T12:43:38Z</time>
      </trkpt>
      <trkpt lat="41.703283991664648" lon="-7.339143035933375">
        <ele>690.36000000000001</ele>
        <time>2025-05-02T12:43:47Z</time>
      </trkpt>
      <trkpt lat="41.702889036387205" lon="-7.339186035096645">
        <ele>688.91999999999996</ele>
        <time>2025-05-02T12:43:51Z</time>
      </trkpt>
      <trkpt lat="41.702791973948479" lon="-7.339168014004827">
        <ele>688.91999999999996</ele>
        <time>2025-05-02T12:43:52Z</time>
      </trkpt>
      <trkpt lat="41.702689966186881" lon="-7.33913297764957">
        <ele>688.91999999999996</ele>
        <time>2025-05-02T12:43:53Z</time>
      </trkpt>
      <trkpt lat="41.701699979603291" lon="-7.338663004338741">
        <ele>689.88</ele>
        <time>2025-05-02T12:44:02Z</time>
      </trkpt>
      <trkpt lat="41.701594032347202" lon="-7.338608019053936">
        <ele>689.88</ele>
        <time>2025-05-02T12:44:03Z</time>
      </trkpt>
      <trkpt lat="41.700582001358271" lon="-7.338159000501037">
        <ele>697.57000000000005</ele>
        <time>2025-05-02T12:44:12Z</time>
      </trkpt>
      <trkpt lat="41.700461972504854" lon="-7.33816696330905">
        <ele>698.52999999999997</ele>
        <time>2025-05-02T12:44:13Z</time>
      </trkpt>
      <trkpt lat="41.700339009985328" lon="-7.338174004107714">
        <ele>699.5</ele>
        <time>2025-05-02T12:44:14Z</time>
      </trkpt>
      <trkpt lat="41.70021403580904" lon="-7.338191019371152">
        <ele>699.98000000000002</ele>
        <time>2025-05-02T12:44:15Z</time>
      </trkpt>
      <trkpt lat="41.700096018612385" lon="-7.338238963857293">
        <ele>700.94000000000005</ele>
        <time>2025-05-02T12:44:16Z</time>
      </trkpt>
      <trkpt lat="41.69997800141573" lon="-7.338287997990847">
        <ele>701.41999999999996</ele>
        <time>2025-05-02T12:44:17Z</time>
      </trkpt>
      <trkpt lat="41.698469007387757" lon="-7.338876994326711">
        <ele>708.63</ele>
        <time>2025-05-02T12:44:30Z</time>
      </trkpt>
      <trkpt lat="41.697137961164117" lon="-7.338953018188477">
        <ele>713.44000000000005</ele>
        <time>2025-05-02T12:44:41Z</time>
      </trkpt>
      <trkpt lat="41.695325039327145" lon="-7.338953018188477">
        <ele>727.37</ele>
        <time>2025-05-02T12:44:56Z</time>
      </trkpt>
      <trkpt lat="41.695094034075737" lon="-7.338990988209844">
        <ele>729.29999999999995</ele>
        <time>2025-05-02T12:44:58Z</time>
      </trkpt>
      <trkpt lat="41.694974005222321" lon="-7.339023007079959">
        <ele>730.74000000000001</ele>
        <time>2025-05-02T12:44:59Z</time>
      </trkpt>
      <trkpt lat="41.694854982197285" lon="-7.339054020121694">
        <ele>731.70000000000005</ele>
        <time>2025-05-02T12:45:00Z</time>
      </trkpt>
      <trkpt lat="41.693745972588658" lon="-7.339681992307305">
        <ele>736.02999999999997</ele>
        <time>2025-05-02T12:45:09Z</time>
      </trkpt>
      <trkpt lat="41.691795000806451" lon="-7.340853027999401">
        <ele>739.38999999999999</ele>
        <time>2025-05-02T12:45:21Z</time>
      </trkpt>
      <trkpt lat="41.689199041575193" lon="-7.342409966513515">
        <ele>743.72000000000003</ele>
        <time>2025-05-02T12:45:37Z</time>
      </trkpt>
      <trkpt lat="41.687271036207676" lon="-7.343789963051677">
        <ele>735.07000000000005</ele>
        <time>2025-05-02T12:45:48Z</time>
      </trkpt>
      <trkpt lat="41.685143038630486" lon="-7.345086978748441">
        <ele>730.74000000000001</ele>
        <time>2025-05-02T12:46:01Z</time>
      </trkpt>
      <trkpt lat="41.684980010613799" lon="-7.345155961811543">
        <ele>730.74000000000001</ele>
        <time>2025-05-02T12:46:02Z</time>
      </trkpt>
      <trkpt lat="41.684815976768732" lon="-7.345221005380154">
        <ele>731.22000000000003</ele>
        <time>2025-05-02T12:46:03Z</time>
      </trkpt>
      <trkpt lat="41.684642974287271" lon="-7.345242965966463">
        <ele>731.70000000000005</ele>
        <time>2025-05-02T12:46:04Z</time>
      </trkpt>
      <trkpt lat="41.682499973103404" lon="-7.345563992857933">
        <ele>738.90999999999997</ele>
        <time>2025-05-02T12:46:16Z</time>
      </trkpt>
      <trkpt lat="41.681545022875071" lon="-7.345817964524031">
        <ele>739.38999999999999</ele>
        <time>2025-05-02T12:46:22Z</time>
      </trkpt>
      <trkpt lat="41.681377971544862" lon="-7.345904968678951">
        <ele>738.90999999999997</ele>
        <time>2025-05-02T12:46:23Z</time>
      </trkpt>
      <trkpt lat="41.680053966119885" lon="-7.347070975229144">
        <ele>739.38999999999999</ele>
        <time>2025-05-02T12:46:33Z</time>
      </trkpt>
      <trkpt lat="41.678556958213449" lon="-7.348485002294183">
        <ele>741.30999999999995</ele>
        <time>2025-05-02T12:46:47Z</time>
      </trkpt>
      <trkpt lat="41.677579963579774" lon="-7.349339034408331">
        <ele>741.30999999999995</ele>
        <time>2025-05-02T12:46:57Z</time>
      </trkpt>
      <trkpt lat="41.676670024171472" lon="-7.350064991042018">
        <ele>739.87</ele>
        <time>2025-05-02T12:47:07Z</time>
      </trkpt>
      <trkpt lat="41.676584025844932" lon="-7.350092986598611">
        <ele>739.87</ele>
        <time>2025-05-02T12:47:08Z</time>
      </trkpt>
      <trkpt lat="41.676486963406205" lon="-7.350098015740514">
        <ele>739.87</ele>
        <time>2025-05-02T12:47:09Z</time>
      </trkpt>
      <trkpt lat="41.676386967301369" lon="-7.350103966891766">
        <ele>739.87</ele>
        <time>2025-05-02T12:47:10Z</time>
      </trkpt>
      <trkpt lat="41.676270961761475" lon="-7.35011100769043">
        <ele>739.87</ele>
        <time>2025-05-02T12:47:11Z</time>
      </trkpt>
      <trkpt lat="41.674634981900454" lon="-7.349973041564226">
        <ele>738.90999999999997</ele>
        <time>2025-05-02T12:47:25Z</time>
      </trkpt>
      <trkpt lat="41.674276990815997" lon="-7.349943034350872">
        <ele>738.90999999999997</ele>
        <time>2025-05-02T12:47:29Z</time>
      </trkpt>
      <trkpt lat="41.674217982217669" lon="-7.349941022694111">
        <ele>738.90999999999997</ele>
        <time>2025-05-02T12:47:30Z</time>
      </trkpt>
      <trkpt lat="41.674176994711161" lon="-7.349944962188602">
        <ele>738.90999999999997</ele>
        <time>2025-05-02T12:47:31Z</time>
      </trkpt>
      <trkpt lat="41.674146987497807" lon="-7.349947979673743">
        <ele>738.90999999999997</ele>
        <time>2025-05-02T12:47:32Z</time>
      </trkpt>
      <trkpt lat="41.674125026911497" lon="-7.349949991330504">
        <ele>738.90999999999997</ele>
        <time>2025-05-02T12:47:33Z</time>
      </trkpt>
      <trkpt lat="41.674099965021014" lon="-7.349953008815646">
        <ele>738.90999999999997</ele>
        <time>2025-05-02T12:47:34Z</time>
      </trkpt>
      <trkpt lat="41.674065012484789" lon="-7.349956026300788">
        <ele>738.90999999999997</ele>
        <time>2025-05-02T12:47:35Z</time>
      </trkpt>
      <trkpt lat="41.674017990007997" lon="-7.349960971623659">
        <ele>739.38999999999999</ele>
        <time>2025-05-02T12:47:36Z</time>
      </trkpt>
      <trkpt lat="41.673983037471771" lon="-7.349871033802629">
        <ele>739.38999999999999</ele>
        <time>2025-05-02T12:47:37Z</time>
      </trkpt>
      <trkpt lat="41.673946995288134" lon="-7.349786041304469">
        <ele>739.38999999999999</ele>
        <time>2025-05-02T12:47:38Z</time>
      </trkpt>
      <trkpt lat="41.673905001953244" lon="-7.349690990522504">
        <ele>739.87</ele>
        <time>2025-05-02T12:47:39Z</time>
      </trkpt>
      <trkpt lat="41.673382977023721" lon="-7.34862900339067">
        <ele>738.90999999999997</ele>
        <time>2025-05-02T12:47:49Z</time>
      </trkpt>
      <trkpt lat="41.673350958153605" lon="-7.34856303781271">
        <ele>738.90999999999997</ele>
        <time>2025-05-02T12:47:50Z</time>
      </trkpt>
      <trkpt lat="41.673262026160955" lon="-7.348546022549272">
        <ele>738.42999999999995</ele>
        <time>2025-05-02T12:47:51Z</time>
      </trkpt>
      <trkpt lat="41.673226989805698" lon="-7.348593967035413">
        <ele>737.95000000000005</ele>
        <time>2025-05-02T12:47:52Z</time>
      </trkpt>
      <trkpt lat="41.673178961500525" lon="-7.348660016432405">
        <ele>736.99000000000001</ele>
        <time>2025-05-02T12:47:53Z</time>
      </trkpt>
      <trkpt lat="41.67312003672123" lon="-7.348739979788661">
        <ele>736.50999999999999</ele>
        <time>2025-05-02T12:47:54Z</time>
      </trkpt>
      <trkpt lat="41.67305700480938" lon="-7.348826983943582">
        <ele>736.99000000000001</ele>
        <time>2025-05-02T12:47:55Z</time>
      </trkpt>
      <trkpt lat="41.672919038683176" lon="-7.349014990031719">
        <ele>736.99000000000001</ele>
        <time>2025-05-02T12:47:57Z</time>
      </trkpt>
      <trkpt lat="41.672828011214733" lon="-7.349098976701498">
        <ele>737.47000000000003</ele>
        <time>2025-05-02T12:47:58Z</time>
      </trkpt>
      <trkpt lat="41.672642016783357" lon="-7.349250018596649">
        <ele>737.95000000000005</ele>
        <time>2025-05-02T12:48:00Z</time>
      </trkpt>
      <trkpt lat="41.671438962221146" lon="-7.349770031869412">
        <ele>734.10000000000002</ele>
        <time>2025-05-02T12:48:11Z</time>
      </trkpt>
      <trkpt lat="41.670183017849922" lon="-7.350030038505793">
        <ele>725.92999999999995</ele>
        <time>2025-05-02T12:48:21Z</time>
      </trkpt>
      <trkpt lat="41.669308030977845" lon="-7.350428011268377">
        <ele>718.24000000000001</ele>
        <time>2025-05-02T12:48:28Z</time>
      </trkpt>
      <trkpt lat="41.669195964932442" lon="-7.350515015423298">
        <ele>716.79999999999995</ele>
        <time>2025-05-02T12:48:29Z</time>
      </trkpt>
      <trkpt lat="41.669094962999225" lon="-7.350630015134811">
        <ele>715.36000000000001</ele>
        <time>2025-05-02T12:48:30Z</time>
      </trkpt>
      <trkpt lat="41.66871702298522" lon="-7.351050032302737">
        <ele>711.02999999999997</ele>
        <time>2025-05-02T12:48:34Z</time>
      </trkpt>
      <trkpt lat="41.667799958959222" lon="-7.351687978953123">
        <ele>705.25999999999999</ele>
        <time>2025-05-02T12:48:42Z</time>
      </trkpt>
      <trkpt lat="41.66766501031816" lon="-7.351730978116393">
        <ele>704.29999999999995</ele>
        <time>2025-05-02T12:48:43Z</time>
      </trkpt>
      <trkpt lat="41.666367994621396" lon="-7.352232970297337">
        <ele>698.52999999999997</ele>
        <time>2025-05-02T12:48:52Z</time>
      </trkpt>
      <trkpt lat="41.665234006941319" lon="-7.352673020213842">
        <ele>690.36000000000001</ele>
        <time>2025-05-02T12:48:59Z</time>
      </trkpt>
      <trkpt lat="41.665064021945" lon="-7.352691041305661">
        <ele>689.39999999999998</ele>
        <time>2025-05-02T12:49:00Z</time>
      </trkpt>
      <trkpt lat="41.663532983511686" lon="-7.352828001603484">
        <ele>682.19000000000005</ele>
        <time>2025-05-02T12:49:09Z</time>
      </trkpt>
      <trkpt lat="41.663388982415199" lon="-7.352868989109993">
        <ele>681.71000000000004</ele>
        <time>2025-05-02T12:49:10Z</time>
      </trkpt>
      <trkpt lat="41.663270965218544" lon="-7.352967979386449">
        <ele>681.71000000000004</ele>
        <time>2025-05-02T12:49:11Z</time>
      </trkpt>
      <trkpt lat="41.663159988820553" lon="-7.353085996583104">
        <ele>681.71000000000004</ele>
        <time>2025-05-02T12:49:12Z</time>
      </trkpt>
      <trkpt lat="41.6630470007658" lon="-7.353207031264901">
        <ele>681.71000000000004</ele>
        <time>2025-05-02T12:49:13Z</time>
      </trkpt>
      <trkpt lat="41.66242104023695" lon="-7.353837015107274">
        <ele>683.63</ele>
        <time>2025-05-02T12:49:19Z</time>
      </trkpt>
      <trkpt lat="41.661202982068062" lon="-7.354675959795713">
        <ele>687.96000000000004</ele>
        <time>2025-05-02T12:49:29Z</time>
      </trkpt>
      <trkpt lat="41.661088988184929" lon="-7.354805041104555">
        <ele>687.96000000000004</ele>
        <time>2025-05-02T12:49:30Z</time>
      </trkpt>
      <trkpt lat="41.660951022058725" lon="-7.354961028322578">
        <ele>688.44000000000005</ele>
        <time>2025-05-02T12:49:31Z</time>
      </trkpt>
      <trkpt lat="41.660150969401002" lon="-7.356139020994306">
        <ele>688.44000000000005</ele>
        <time>2025-05-02T12:49:39Z</time>
      </trkpt>
      <trkpt lat="41.659189984202385" lon="-7.357018031179905">
        <ele>685.55999999999995</ele>
        <time>2025-05-02T12:49:48Z</time>
      </trkpt>
      <trkpt lat="41.659078001976013" lon="-7.357081985101104">
        <ele>685.55999999999995</ele>
        <time>2025-05-02T12:49:49Z</time>
      </trkpt>
      <trkpt lat="41.658959984779358" lon="-7.357141999527812">
        <ele>685.08000000000004</ele>
        <time>2025-05-02T12:49:50Z</time>
      </trkpt>
      <trkpt lat="41.65883501060307" lon="-7.357190027832985">
        <ele>685.08000000000004</ele>
        <time>2025-05-02T12:49:51Z</time>
      </trkpt>
      <trkpt lat="41.657231971621513" lon="-7.357810959219933">
        <ele>675.46000000000004</ele>
        <time>2025-05-02T12:50:03Z</time>
      </trkpt>
      <trkpt lat="41.657122001051903" lon="-7.357884971424937">
        <ele>674.98000000000002</ele>
        <time>2025-05-02T12:50:04Z</time>
      </trkpt>
      <trkpt lat="41.657036002725363" lon="-7.357981028035283">
        <ele>674.01999999999998</ele>
        <time>2025-05-02T12:50:05Z</time>
      </trkpt>
      <trkpt lat="41.656970959156752" lon="-7.358108013868332">
        <ele>673.53999999999996</ele>
        <time>2025-05-02T12:50:06Z</time>
      </trkpt>
      <trkpt lat="41.656638029962778" lon="-7.358719976618886">
        <ele>672.58000000000004</ele>
        <time>2025-05-02T12:50:11Z</time>
      </trkpt>
      <trkpt lat="41.656568963080645" lon="-7.358828019350767">
        <ele>672.10000000000002</ele>
        <time>2025-05-02T12:50:12Z</time>
      </trkpt>
      <trkpt lat="41.656485982239246" lon="-7.358914017677307">
        <ele>671.13999999999999</ele>
        <time>2025-05-02T12:50:13Z</time>
      </trkpt>
      <trkpt lat="41.65638598613441" lon="-7.358974032104015">
        <ele>670.17999999999995</ele>
        <time>2025-05-02T12:50:14Z</time>
      </trkpt>
      <trkpt lat="41.656286995857954" lon="-7.359033040702343">
        <ele>669.70000000000005</ele>
        <time>2025-05-02T12:50:15Z</time>
      </trkpt>
      <trkpt lat="41.656208960339427" lon="-7.359079979360104">
        <ele>668.73000000000002</ele>
        <time>2025-05-02T12:50:16Z</time>
      </trkpt>
      <trkpt lat="41.656093960627913" lon="-7.359102023765445">
        <ele>668.25</ele>
        <time>2025-05-02T12:50:17Z</time>
      </trkpt>
      <trkpt lat="41.655992958694696" lon="-7.359120966866612">
        <ele>667.28999999999996</ele>
        <time>2025-05-02T12:50:18Z</time>
      </trkpt>
      <trkpt lat="41.655895980075002" lon="-7.359138987958431">
        <ele>666.80999999999995</ele>
        <time>2025-05-02T12:50:19Z</time>
      </trkpt>
      <trkpt lat="41.655518040060997" lon="-7.359087020158768">
        <ele>663.45000000000005</ele>
        <time>2025-05-02T12:50:23Z</time>
      </trkpt>
      <trkpt lat="41.655436987057328" lon="-7.359037986025214">
        <ele>662.49000000000001</ele>
        <time>2025-05-02T12:50:24Z</time>
      </trkpt>
      <trkpt lat="41.655353000387549" lon="-7.358955005183816">
        <ele>661.51999999999998</ele>
        <time>2025-05-02T12:50:25Z</time>
      </trkpt>
      <trkpt lat="41.655262978747487" lon="-7.358864983543754">
        <ele>660.55999999999995</ele>
        <time>2025-05-02T12:50:26Z</time>
      </trkpt>
      <trkpt lat="41.655168011784554" lon="-7.35876901075244">
        <ele>659.60000000000002</ele>
        <time>2025-05-02T12:50:27Z</time>
      </trkpt>
      <trkpt lat="41.654249019920826" lon="-7.358049005270004">
        <ele>649.02999999999997</ele>
        <time>2025-05-02T12:50:35Z</time>
      </trkpt>
      <trkpt lat="41.654141983017325" lon="-7.358022015541792">
        <ele>647.59000000000003</ele>
        <time>2025-05-02T12:50:36Z</time>
      </trkpt>
      <trkpt lat="41.654050033539534" lon="-7.358015980571508">
        <ele>646.62</ele>
        <time>2025-05-02T12:50:37Z</time>
      </trkpt>
      <trkpt lat="41.653864961117506" lon="-7.358059985563159">
        <ele>645.17999999999995</ele>
        <time>2025-05-02T12:50:39Z</time>
      </trkpt>
      <trkpt lat="41.65359003469348" lon="-7.358101978898048">
        <ele>642.77999999999997</ele>
        <time>2025-05-02T12:50:42Z</time>
      </trkpt>
      <trkpt lat="41.653493978083134" lon="-7.358074989169836">
        <ele>641.34000000000003</ele>
        <time>2025-05-02T12:50:43Z</time>
      </trkpt>
      <trkpt lat="41.652701972052455" lon="-7.357724038884044">
        <ele>634.61000000000001</ele>
        <time>2025-05-02T12:50:49Z</time>
      </trkpt>
      <trkpt lat="41.651797983795404" lon="-7.357232021167874">
        <ele>626.91999999999996</ele>
        <time>2025-05-02T12:50:55Z</time>
      </trkpt>
      <trkpt lat="41.651654988527298" lon="-7.357218023389578">
        <ele>625.47000000000003</ele>
        <time>2025-05-02T12:50:56Z</time>
      </trkpt>
      <trkpt lat="41.65150998160243" lon="-7.357232021167874">
        <ele>624.99000000000001</ele>
        <time>2025-05-02T12:50:57Z</time>
      </trkpt>
      <trkpt lat="41.651359023526311" lon="-7.357258005067706">
        <ele>624.02999999999997</ele>
        <time>2025-05-02T12:50:58Z</time>
      </trkpt>
      <trkpt lat="41.651201024651527" lon="-7.357284994795919">
        <ele>623.07000000000005</ele>
        <time>2025-05-02T12:50:59Z</time>
      </trkpt>
      <trkpt lat="41.649095993489027" lon="-7.357649020850658">
        <ele>610.57000000000005</ele>
        <time>2025-05-02T12:51:11Z</time>
      </trkpt>
      <trkpt lat="41.647793026641011" lon="-7.358093010261655">
        <ele>605.76999999999998</ele>
        <time>2025-05-02T12:51:19Z</time>
      </trkpt>
      <trkpt lat="41.646299958229065" lon="-7.358721988275647">
        <ele>596.63999999999999</ele>
        <time>2025-05-02T12:51:29Z</time>
      </trkpt>
      <trkpt lat="41.645971974357963" lon="-7.358843022957444">
        <ele>594.23000000000002</ele>
        <time>2025-05-02T12:51:32Z</time>
      </trkpt>
      <trkpt lat="41.645876001566648" lon="-7.358861966058612">
        <ele>593.75</ele>
        <time>2025-05-02T12:51:33Z</time>
      </trkpt>
      <trkpt lat="41.645767036825418" lon="-7.358849979937077">
        <ele>592.78999999999996</ele>
        <time>2025-05-02T12:51:34Z</time>
      </trkpt>
      <trkpt lat="41.645654970780015" lon="-7.358814021572471">
        <ele>591.83000000000004</ele>
        <time>2025-05-02T12:51:35Z</time>
      </trkpt>
      <trkpt lat="41.64553795941174" lon="-7.358756018802524">
        <ele>590.87</ele>
        <time>2025-05-02T12:51:36Z</time>
      </trkpt>
      <trkpt lat="41.644123010337353" lon="-7.358056968078017">
        <ele>577.40999999999997</ele>
        <time>2025-05-02T12:51:48Z</time>
      </trkpt>
      <trkpt lat="41.642786012962461" lon="-7.35745900310576">
        <ele>568.75999999999999</ele>
        <time>2025-05-02T12:52:00Z</time>
      </trkpt>
      <trkpt lat="41.642690040171146" lon="-7.357450034469366">
        <ele>568.75999999999999</ele>
        <time>2025-05-02T12:52:01Z</time>
      </trkpt>
      <trkpt lat="41.642558025196195" lon="-7.357509965077043">
        <ele>568.75999999999999</ele>
        <time>2025-05-02T12:52:02Z</time>
      </trkpt>
      <trkpt lat="41.642445959150791" lon="-7.357561010867357">
        <ele>568.75999999999999</ele>
        <time>2025-05-02T12:52:03Z</time>
      </trkpt>
      <trkpt lat="41.642330959439278" lon="-7.357613984495401">
        <ele>568.75999999999999</ele>
        <time>2025-05-02T12:52:04Z</time>
      </trkpt>
      <trkpt lat="41.640615016222" lon="-7.358457958325744">
        <ele>566.83000000000004</ele>
        <time>2025-05-02T12:52:19Z</time>
      </trkpt>
      <trkpt lat="41.639321018010378" lon="-7.359117027372122">
        <ele>559.62</ele>
        <time>2025-05-02T12:52:28Z</time>
      </trkpt>
      <trkpt lat="41.637354036793113" lon="-7.359956977888942">
        <ele>549.04999999999995</ele>
        <time>2025-05-02T12:52:40Z</time>
      </trkpt>
      <trkpt lat="41.635350007563829" lon="-7.360759964212775">
        <ele>532.71000000000004</ele>
        <time>2025-05-02T12:52:52Z</time>
      </trkpt>
      <trkpt lat="41.635232996195555" lon="-7.360883010551333">
        <ele>530.78999999999996</ele>
        <time>2025-05-02T12:52:53Z</time>
      </trkpt>
      <trkpt lat="41.635106010362506" lon="-7.361016031354666">
        <ele>528.86000000000001</ele>
        <time>2025-05-02T12:52:54Z</time>
      </trkpt>
      <trkpt lat="41.63412599824369" lon="-7.362322015687823">
        <ele>525.98000000000002</ele>
        <time>2025-05-02T12:53:02Z</time>
      </trkpt>
      <trkpt lat="41.633508000522852" lon="-7.363160960376263">
        <ele>534.14999999999998</ele>
        <time>2025-05-02T12:53:09Z</time>
      </trkpt>
      <trkpt lat="41.63305101916194" lon="-7.363817011937499">
        <ele>538.48000000000002</ele>
        <time>2025-05-02T12:53:16Z</time>
      </trkpt>
      <trkpt lat="41.633012965321541" lon="-7.363865040242672">
        <ele>538.48000000000002</ele>
        <time>2025-05-02T12:53:17Z</time>
      </trkpt>
      <trkpt lat="41.632936019450426" lon="-7.36392698250711">
        <ele>538.96000000000004</ele>
        <time>2025-05-02T12:53:18Z</time>
      </trkpt>
      <trkpt lat="41.632866030558944" lon="-7.363950032740831">
        <ele>538.96000000000004</ele>
        <time>2025-05-02T12:53:19Z</time>
      </trkpt>
      <trkpt lat="41.632783971726894" lon="-7.363946009427309">
        <ele>538.96000000000004</ele>
        <time>2025-05-02T12:53:20Z</time>
      </trkpt>
      <trkpt lat="41.632695961743593" lon="-7.363941986113787">
        <ele>538.96000000000004</ele>
        <time>2025-05-02T12:53:21Z</time>
      </trkpt>
      <trkpt lat="41.63260099478066" lon="-7.363937962800264">
        <ele>538.96000000000004</ele>
        <time>2025-05-02T12:53:22Z</time>
      </trkpt>
      <trkpt lat="41.632420029491186" lon="-7.363923965021968">
        <ele>538.96000000000004</ele>
        <time>2025-05-02T12:53:24Z</time>
      </trkpt>
      <trkpt lat="41.632219031453133" lon="-7.363844001665711">
        <ele>539.44000000000005</ele>
        <time>2025-05-02T12:53:27Z</time>
      </trkpt>
      <trkpt lat="41.631967993453145" lon="-7.363844001665711">
        <ele>539.44000000000005</ele>
        <time>2025-05-02T12:53:30Z</time>
      </trkpt>
      <trkpt lat="41.631867997348309" lon="-7.363844001665711">
        <ele>538.96000000000004</ele>
        <time>2025-05-02T12:53:31Z</time>
      </trkpt>
      <trkpt lat="41.63103399798274" lon="-7.364150024950504">
        <ele>536.54999999999995</ele>
        <time>2025-05-02T12:53:40Z</time>
      </trkpt>
      <trkpt lat="41.63092696107924" lon="-7.364156981930137">
        <ele>536.54999999999995</ele>
        <time>2025-05-02T12:53:42Z</time>
      </trkpt>
      <trkpt lat="41.630892008543015" lon="-7.364158993586898">
        <ele>536.54999999999995</ele>
        <time>2025-05-02T12:53:43Z</time>
      </trkpt>
      <trkpt lat="41.630870969966054" lon="-7.364159999415278">
        <ele>536.07000000000005</ele>
        <time>2025-05-02T12:53:44Z</time>
      </trkpt>
      <trkpt lat="41.630845991894603" lon="-7.36416201107204">
        <ele>536.54999999999995</ele>
        <time>2025-05-02T12:53:45Z</time>
      </trkpt>
      <trkpt lat="41.630781032145023" lon="-7.364166034385562">
        <ele>536.54999999999995</ele>
        <time>2025-05-02T12:53:46Z</time>
      </trkpt>
      <trkpt lat="41.630770973861217" lon="-7.364122029393911">
        <ele>536.54999999999995</ele>
        <time>2025-05-02T12:53:47Z</time>
      </trkpt>
      <trkpt lat="41.630751024931669" lon="-7.364036031067371">
        <ele>536.54999999999995</ele>
        <time>2025-05-02T12:53:48Z</time>
      </trkpt>
      <trkpt lat="41.630653040483594" lon="-7.363611990585923">
        <ele>537.50999999999999</ele>
        <time>2025-05-02T12:53:52Z</time>
      </trkpt>
      <trkpt lat="41.630622027441859" lon="-7.363488022238016">
        <ele>537.50999999999999</ele>
        <time>2025-05-02T12:53:53Z</time>
      </trkpt>
      <trkpt lat="41.630480960011482" lon="-7.362943030893803">
        <ele>537.99000000000001</ele>
        <time>2025-05-02T12:53:57Z</time>
      </trkpt>
      <trkpt lat="41.630419017747045" lon="-7.362819984555244">
        <ele>537.99000000000001</ele>
        <time>2025-05-02T12:53:58Z</time>
      </trkpt>
      <trkpt lat="41.630349028855562" lon="-7.362719988450408">
        <ele>537.99000000000001</ele>
        <time>2025-05-02T12:53:59Z</time>
      </trkpt>
      <trkpt lat="41.630258001387119" lon="-7.362618986517191">
        <ele>537.99000000000001</ele>
        <time>2025-05-02T12:54:00Z</time>
      </trkpt>
      <trkpt lat="41.630155993625522" lon="-7.362526031211019">
        <ele>537.99000000000001</ele>
        <time>2025-05-02T12:54:01Z</time>
      </trkpt>
      <trkpt lat="41.630036970600486" lon="-7.362446989864111">
        <ele>537.99000000000001</ele>
        <time>2025-05-02T12:54:02Z</time>
      </trkpt>
      <trkpt lat="41.629019994288683" lon="-7.361525986343622">
        <ele>537.02999999999997</ele>
        <time>2025-05-02T12:54:10Z</time>
      </trkpt>
      <trkpt lat="41.628876999020576" lon="-7.361453985795379">
        <ele>537.02999999999997</ele>
        <time>2025-05-02T12:54:11Z</time>
      </trkpt>
      <trkpt lat="41.628732997924089" lon="-7.361381985247135">
        <ele>537.02999999999997</ele>
        <time>2025-05-02T12:54:12Z</time>
      </trkpt>
      <trkpt lat="41.62858497351408" lon="-7.361337980255485">
        <ele>536.54999999999995</ele>
        <time>2025-05-02T12:54:13Z</time>
      </trkpt>
      <trkpt lat="41.628428986296058" lon="-7.361307973042131">
        <ele>536.54999999999995</ele>
        <time>2025-05-02T12:54:14Z</time>
      </trkpt>
      <trkpt lat="41.626861989498138" lon="-7.361176963895559">
        <ele>532.71000000000004</ele>
        <time>2025-05-02T12:54:24Z</time>
      </trkpt>
      <trkpt lat="41.626166962087154" lon="-7.361212000250816">
        <ele>532.23000000000002</ele>
        <time>2025-05-02T12:54:28Z</time>
      </trkpt>
      <trkpt lat="41.625988008454442" lon="-7.361189033836126">
        <ele>532.23000000000002</ele>
        <time>2025-05-02T12:54:29Z</time>
      </trkpt>
      <trkpt lat="41.623894963413477" lon="-7.360603976994753">
        <ele>532.23000000000002</ele>
        <time>2025-05-02T12:54:40Z</time>
      </trkpt>
      <trkpt lat="41.622523013502359" lon="-7.360232993960381">
        <ele>530.78999999999996</ele>
        <time>2025-05-02T12:54:48Z</time>
      </trkpt>
      <trkpt lat="41.622349005192518" lon="-7.360229976475239">
        <ele>530.29999999999995</ele>
        <time>2025-05-02T12:54:49Z</time>
      </trkpt>
      <trkpt lat="41.621798984706402" lon="-7.360217990353704">
        <ele>528.86000000000001</ele>
        <time>2025-05-02T12:54:52Z</time>
      </trkpt>
      <trkpt lat="41.621616007760167" lon="-7.360157975926995">
        <ele>527.89999999999998</ele>
        <time>2025-05-02T12:54:53Z</time>
      </trkpt>
      <trkpt lat="41.619512988254428" lon="-7.359336968511343">
        <ele>518.76999999999998</ele>
        <time>2025-05-02T12:55:04Z</time>
      </trkpt>
      <trkpt lat="41.618777979165316" lon="-7.358931032940745">
        <ele>516.37</ele>
        <time>2025-05-02T12:55:09Z</time>
      </trkpt>
      <trkpt lat="41.618696004152298" lon="-7.358793988823891">
        <ele>515.88</ele>
        <time>2025-05-02T12:55:10Z</time>
      </trkpt>
      <trkpt lat="41.61863598972559" lon="-7.358693992719054">
        <ele>515.39999999999998</ele>
        <time>2025-05-02T12:55:11Z</time>
      </trkpt>
      <trkpt lat="41.618585027754307" lon="-7.358525013551116">
        <ele>514.44000000000005</ele>
        <time>2025-05-02T12:55:12Z</time>
      </trkpt>
      <trkpt lat="41.618533981963992" lon="-7.358356034383178">
        <ele>513.48000000000002</ele>
        <time>2025-05-02T12:55:13Z</time>
      </trkpt>
      <trkpt lat="41.618480002507567" lon="-7.358176996931434">
        <ele>513</ele>
        <time>2025-05-02T12:55:14Z</time>
      </trkpt>
      <trkpt lat="41.61812100559473" lon="-7.357171000912786">
        <ele>508.19</ele>
        <time>2025-05-02T12:55:20Z</time>
      </trkpt>
      <trkpt lat="41.618000976741314" lon="-7.357114003971219">
        <ele>507.70999999999998</ele>
        <time>2025-05-02T12:55:21Z</time>
      </trkpt>
      <trkpt lat="41.617913972586393" lon="-7.35707301646471">
        <ele>506.75</ele>
        <time>2025-05-02T12:55:22Z</time>
      </trkpt>
      <trkpt lat="41.617824034765363" lon="-7.357031023129821">
        <ele>506.26999999999998</ele>
        <time>2025-05-02T12:55:23Z</time>
      </trkpt>
      <trkpt lat="41.617732001468539" lon="-7.35698701813817">
        <ele>505.79000000000002</ele>
        <time>2025-05-02T12:55:24Z</time>
      </trkpt>
      <trkpt lat="41.617639968171716" lon="-7.356941001489759">
        <ele>505.31</ele>
        <time>2025-05-02T12:55:25Z</time>
      </trkpt>
      <trkpt lat="41.617549024522305" lon="-7.356895990669727">
        <ele>504.82999999999998</ele>
        <time>2025-05-02T12:55:26Z</time>
      </trkpt>
      <trkpt lat="41.616893978789449" lon="-7.356632966548204">
        <ele>500.01999999999998</ele>
        <time>2025-05-02T12:55:35Z</time>
      </trkpt>
      <trkpt lat="41.61674503237009" lon="-7.356564989313483">
        <ele>498.57999999999998</ele>
        <time>2025-05-02T12:55:38Z</time>
      </trkpt>
      <trkpt lat="41.616703039035201" lon="-7.356541017070413">
        <ele>498.10000000000002</ele>
        <time>2025-05-02T12:55:39Z</time>
      </trkpt>
      <trkpt lat="41.61666096188128" lon="-7.35651696100831">
        <ele>497.62</ele>
        <time>2025-05-02T12:55:40Z</time>
      </trkpt>
      <trkpt lat="41.616641012951732" lon="-7.356504974886775">
        <ele>497.13999999999999</ele>
        <time>2025-05-02T12:55:41Z</time>
      </trkpt>
      <trkpt lat="41.616592984646559" lon="-7.356458036229014">
        <ele>496.66000000000003</ele>
        <time>2025-05-02T12:55:42Z</time>
      </trkpt>
      <trkpt lat="41.616559037938714" lon="-7.356424005702138">
        <ele>496.66000000000003</ele>
        <time>2025-05-02T12:55:43Z</time>
      </trkpt>
      <trkpt lat="41.616521989926696" lon="-7.356387041509152">
        <ele>496.18000000000001</ele>
        <time>2025-05-02T12:55:44Z</time>
      </trkpt>
      <trkpt lat="41.616454012691975" lon="-7.356318980455399">
        <ele>495.22000000000003</ele>
        <time>2025-05-02T12:55:46Z</time>
      </trkpt>
      <trkpt lat="41.616420987993479" lon="-7.356286039575934">
        <ele>494.74000000000001</ele>
        <time>2025-05-02T12:55:47Z</time>
      </trkpt>
      <trkpt lat="41.616388969123363" lon="-7.356254020705819">
        <ele>494.25999999999999</ele>
        <time>2025-05-02T12:55:48Z</time>
      </trkpt>
      <trkpt lat="41.616256032139063" lon="-7.356120999902487">
        <ele>492.81</ele>
        <time>2025-05-02T12:55:52Z</time>
      </trkpt>
      <trkpt lat="41.616083029657602" lon="-7.355969035997987">
        <ele>490.41000000000003</ele>
        <time>2025-05-02T12:55:57Z</time>
      </trkpt>
      <trkpt lat="41.616054028272629" lon="-7.355926958844066">
        <ele>489.93000000000001</ele>
        <time>2025-05-02T12:55:58Z</time>
      </trkpt>
      <trkpt lat="41.616025026887655" lon="-7.355883037671447">
        <ele>489.44999999999999</ele>
        <time>2025-05-02T12:55:59Z</time>
      </trkpt>
      <trkpt lat="41.615970963612199" lon="-7.355801984667778">
        <ele>488.00999999999999</ele>
        <time>2025-05-02T12:56:01Z</time>
      </trkpt>
      <trkpt lat="41.615941040217876" lon="-7.355755968019366">
        <ele>487.52999999999997</ele>
        <time>2025-05-02T12:56:02Z</time>
      </trkpt>
      <trkpt lat="41.615910027176142" lon="-7.355711041018367">
        <ele>486.56</ele>
        <time>2025-05-02T12:56:03Z</time>
      </trkpt>
      <trkpt lat="41.615855963900685" lon="-7.355679022148252">
        <ele>486.07999999999998</ele>
        <time>2025-05-02T12:56:04Z</time>
      </trkpt>
      <trkpt lat="41.615802990272641" lon="-7.355647003278136">
        <ele>485.60000000000002</ele>
        <time>2025-05-02T12:56:05Z</time>
      </trkpt>
      <trkpt lat="41.615631999447942" lon="-7.355554969981313">
        <ele>483.68000000000001</ele>
        <time>2025-05-02T12:56:08Z</time>
      </trkpt>
      <trkpt lat="41.615452039986849" lon="-7.355509037151933">
        <ele>482.24000000000001</ele>
        <time>2025-05-02T12:56:11Z</time>
      </trkpt>
      <trkpt lat="41.615394959226251" lon="-7.355518005788326">
        <ele>481.75999999999999</ele>
        <time>2025-05-02T12:56:12Z</time>
      </trkpt>
      <trkpt lat="41.615335028618574" lon="-7.355528986081481">
        <ele>481.27999999999997</ele>
        <time>2025-05-02T12:56:13Z</time>
      </trkpt>
      <trkpt lat="41.615221034735441" lon="-7.355580031871796">
        <ele>479.83999999999997</ele>
        <time>2025-05-02T12:56:15Z</time>
      </trkpt>
      <trkpt lat="41.615164037793875" lon="-7.355629988014698">
        <ele>479.35000000000002</ele>
        <time>2025-05-02T12:56:16Z</time>
      </trkpt>
      <trkpt lat="41.615107040852308" lon="-7.355680027976632">
        <ele>478.38999999999999</ele>
        <time>2025-05-02T12:56:17Z</time>
      </trkpt>
      <trkpt lat="41.614906964823604" lon="-7.355840960517526">
        <ele>476.47000000000003</ele>
        <time>2025-05-02T12:56:20Z</time>
      </trkpt>
      <trkpt lat="41.614839993417263" lon="-7.355895023792982">
        <ele>475.99000000000001</ele>
        <time>2025-05-02T12:56:21Z</time>
      </trkpt>
      <trkpt lat="41.614762041717768" lon="-7.355949003249407">
        <ele>475.50999999999999</ele>
        <time>2025-05-02T12:56:22Z</time>
      </trkpt>
      <trkpt lat="41.61468300037086" lon="-7.355963001027703">
        <ele>474.55000000000001</ele>
        <time>2025-05-02T12:56:23Z</time>
      </trkpt>
      <trkpt lat="41.614606976509094" lon="-7.355975992977619">
        <ele>474.06999999999999</ele>
        <time>2025-05-02T12:56:24Z</time>
      </trkpt>
      <trkpt lat="41.614040024578571" lon="-7.356027038767934">
        <ele>468.77999999999997</ele>
        <time>2025-05-02T12:56:32Z</time>
      </trkpt>
      <trkpt lat="41.613969029858708" lon="-7.356009017676115">
        <ele>468.30000000000001</ele>
        <time>2025-05-02T12:56:33Z</time>
      </trkpt>
      <trkpt lat="41.613895017653704" lon="-7.355990996584296">
        <ele>467.81999999999999</ele>
        <time>2025-05-02T12:56:34Z</time>
      </trkpt>
      <trkpt lat="41.613808013498783" lon="-7.355969035997987">
        <ele>467.81999999999999</ele>
        <time>2025-05-02T12:56:35Z</time>
      </trkpt>
      <trkpt lat="41.613756967708468" lon="-7.355907009914517">
        <ele>467.81999999999999</ele>
        <time>2025-05-02T12:56:36Z</time>
      </trkpt>
      <trkpt lat="41.61369301378727" lon="-7.355829980224371">
        <ele>467.81999999999999</ele>
        <time>2025-05-02T12:56:37Z</time>
      </trkpt>
      <trkpt lat="41.613627970218658" lon="-7.355752028524876">
        <ele>468.30000000000001</ele>
        <time>2025-05-02T12:56:38Z</time>
      </trkpt>
      <trkpt lat="41.613567033782601" lon="-7.355665024369955">
        <ele>468.30000000000001</ele>
        <time>2025-05-02T12:56:39Z</time>
      </trkpt>
      <trkpt lat="41.612961022183299" lon="-7.354653999209404">
        <ele>470.69999999999999</ele>
        <time>2025-05-02T12:56:48Z</time>
      </trkpt>
      <trkpt lat="41.612882986664772" lon="-7.354529025033116">
        <ele>470.69999999999999</ele>
        <time>2025-05-02T12:56:49Z</time>
      </trkpt>
      <trkpt lat="41.612807968631387" lon="-7.354407990351319">
        <ele>470.69999999999999</ele>
        <time>2025-05-02T12:56:50Z</time>
      </trkpt>
      <trkpt lat="41.612703027203679" lon="-7.354325009509921">
        <ele>471.18000000000001</ele>
        <time>2025-05-02T12:56:51Z</time>
      </trkpt>
      <trkpt lat="41.612592972815037" lon="-7.354273963719606">
        <ele>470.69999999999999</ele>
        <time>2025-05-02T12:56:52Z</time>
      </trkpt>
      <trkpt lat="41.612479984760284" lon="-7.354230964556336">
        <ele>470.69999999999999</ele>
        <time>2025-05-02T12:56:53Z</time>
      </trkpt>
      <trkpt lat="41.612361967563629" lon="-7.354230964556336">
        <ele>471.18000000000001</ele>
        <time>2025-05-02T12:56:54Z</time>
      </trkpt>
      <trkpt lat="41.612241016700864" lon="-7.354230964556336">
        <ele>471.66000000000003</ele>
        <time>2025-05-02T12:56:55Z</time>
      </trkpt>
      <trkpt lat="41.612121993675828" lon="-7.354230964556336">
        <ele>472.13999999999999</ele>
        <time>2025-05-02T12:56:56Z</time>
      </trkpt>
      <trkpt lat="41.612009005621076" lon="-7.354230964556336">
        <ele>473.11000000000001</ele>
        <time>2025-05-02T12:56:57Z</time>
      </trkpt>
      <trkpt lat="41.611912027001381" lon="-7.354209003970027">
        <ele>473.58999999999997</ele>
        <time>2025-05-02T12:56:58Z</time>
      </trkpt>
      <trkpt lat="41.61182502284646" lon="-7.354142032563686">
        <ele>474.55000000000001</ele>
        <time>2025-05-02T12:56:59Z</time>
      </trkpt>
      <trkpt lat="41.611735001206398" lon="-7.354071959853172">
        <ele>475.50999999999999</ele>
        <time>2025-05-02T12:57:00Z</time>
      </trkpt>
      <trkpt lat="41.611642967909575" lon="-7.353985961526632">
        <ele>475.99000000000001</ele>
        <time>2025-05-02T12:57:01Z</time>
      </trkpt>
      <trkpt lat="41.611569039523602" lon="-7.353871967643499">
        <ele>476.94999999999999</ele>
        <time>2025-05-02T12:57:02Z</time>
      </trkpt>
      <trkpt lat="41.610879963263869" lon="-7.352794976904988">
        <ele>485.60000000000002</ele>
        <time>2025-05-02T12:57:13Z</time>
      </trkpt>
      <trkpt lat="41.610352993011475" lon="-7.35213196836412">
        <ele>490.41000000000003</ele>
        <time>2025-05-02T12:57:21Z</time>
      </trkpt>
      <trkpt lat="41.610030960291624" lon="-7.351861987262964">
        <ele>491.85000000000002</ele>
        <time>2025-05-02T12:57:28Z</time>
      </trkpt>
      <trkpt lat="41.610021991655231" lon="-7.351855030283332">
        <ele>491.85000000000002</ele>
        <time>2025-05-02T12:57:31Z</time>
      </trkpt>
      <trkpt lat="41.609989972785115" lon="-7.351824017241597">
        <ele>491.85000000000002</ele>
        <time>2025-05-02T12:57:32Z</time>
      </trkpt>
      <trkpt lat="41.610008999705315" lon="-7.351757967844605">
        <ele>492.32999999999998</ele>
        <time>2025-05-02T12:57:33Z</time>
      </trkpt>
      <trkpt lat="41.610032971948385" lon="-7.351671969518066">
        <ele>491.85000000000002</ele>
        <time>2025-05-02T12:57:34Z</time>
      </trkpt>
      <trkpt lat="41.610059961676598" lon="-7.351579014211893">
        <ele>491.85000000000002</ele>
        <time>2025-05-02T12:57:35Z</time>
      </trkpt>
      <trkpt lat="41.610380988568068" lon="-7.350565977394581">
        <ele>488.97000000000003</ele>
        <time>2025-05-02T12:57:43Z</time>
      </trkpt>
      <trkpt lat="41.610898990184069" lon="-7.348899990320206">
        <ele>482.72000000000003</ele>
        <time>2025-05-02T12:57:54Z</time>
      </trkpt>
      <trkpt lat="41.610942995175719" lon="-7.348753977566958">
        <ele>481.75999999999999</ele>
        <time>2025-05-02T12:57:55Z</time>
      </trkpt>
      <trkpt lat="41.611056989058852" lon="-7.347962977364659">
        <ele>477.43000000000001</ele>
        <time>2025-05-02T12:58:00Z</time>
      </trkpt>
      <trkpt lat="41.611046008765697" lon="-7.347802966833115">
        <ele>476.94999999999999</ele>
        <time>2025-05-02T12:58:01Z</time>
      </trkpt>
      <trkpt lat="41.611035028472543" lon="-7.347645973786712">
        <ele>475.99000000000001</ele>
        <time>2025-05-02T12:58:02Z</time>
      </trkpt>
      <trkpt lat="41.611023964360356" lon="-7.347488980740309">
        <ele>475.50999999999999</ele>
        <time>2025-05-02T12:58:03Z</time>
      </trkpt>
      <trkpt lat="41.610992029309273" lon="-7.347340034320951">
        <ele>475.02999999999997</ele>
        <time>2025-05-02T12:58:04Z</time>
      </trkpt>
      <trkpt lat="41.610936960205436" lon="-7.347201984375715">
        <ele>474.06999999999999</ele>
        <time>2025-05-02T12:58:05Z</time>
      </trkpt>
      <trkpt lat="41.610883986577392" lon="-7.347069969400764">
        <ele>473.58999999999997</ele>
        <time>2025-05-02T12:58:06Z</time>
      </trkpt>
      <trkpt lat="41.610808968544006" lon="-7.346939966082573">
        <ele>473.58999999999997</ele>
        <time>2025-05-02T12:58:07Z</time>
      </trkpt>
      <trkpt lat="41.610714001581073" lon="-7.34684600494802">
        <ele>473.11000000000001</ele>
        <time>2025-05-02T12:58:08Z</time>
      </trkpt>
      <trkpt lat="41.610618028789759" lon="-7.346749026328325">
        <ele>473.11000000000001</ele>
        <time>2025-05-02T12:58:09Z</time>
      </trkpt>
      <trkpt lat="41.610519960522652" lon="-7.346651963889599">
        <ele>472.63</ele>
        <time>2025-05-02T12:58:10Z</time>
      </trkpt>
      <trkpt lat="41.610414013266563" lon="-7.346561020240188">
        <ele>472.63</ele>
        <time>2025-05-02T12:58:11Z</time>
      </trkpt>
      <trkpt lat="41.610303958877921" lon="-7.346487008035183">
        <ele>472.63</ele>
        <time>2025-05-02T12:58:12Z</time>
      </trkpt>
      <trkpt lat="41.609872961416841" lon="-7.346188025549054">
        <ele>472.63</ele>
        <time>2025-05-02T12:58:16Z</time>
      </trkpt>
      <trkpt lat="41.609812024980783" lon="-7.346052993088961">
        <ele>472.63</ele>
        <time>2025-05-02T12:58:17Z</time>
      </trkpt>
      <trkpt lat="41.609749998897314" lon="-7.345915026962757">
        <ele>473.11000000000001</ele>
        <time>2025-05-02T12:58:18Z</time>
      </trkpt>
      <trkpt lat="41.608995962888002" lon="-7.343934969976544">
        <ele>483.68000000000001</ele>
        <time>2025-05-02T12:58:32Z</time>
      </trkpt>
      <trkpt lat="41.608964027836919" lon="-7.343777976930141">
        <ele>484.63999999999999</ele>
        <time>2025-05-02T12:58:33Z</time>
      </trkpt>
      <trkpt lat="41.608941983431578" lon="-7.343618972226977">
        <ele>485.60000000000002</ele>
        <time>2025-05-02T12:58:34Z</time>
      </trkpt>
      <trkpt lat="41.608915999531746" lon="-7.343438006937504">
        <ele>486.07999999999998</ele>
        <time>2025-05-02T12:58:35Z</time>
      </trkpt>
      <trkpt lat="41.608915999531746" lon="-7.343291994184256">
        <ele>487.05000000000001</ele>
        <time>2025-05-02T12:58:36Z</time>
      </trkpt>
      <trkpt lat="41.608935026451945" lon="-7.341154022142291">
        <ele>487.52999999999997</ele>
        <time>2025-05-02T12:58:49Z</time>
      </trkpt>
      <trkpt lat="41.608898984268308" lon="-7.340982025489211">
        <ele>487.52999999999997</ele>
        <time>2025-05-02T12:58:50Z</time>
      </trkpt>
      <trkpt lat="41.608864031732082" lon="-7.340813968330622">
        <ele>487.52999999999997</ele>
        <time>2025-05-02T12:58:51Z</time>
      </trkpt>
      <trkpt lat="41.608288027346134" lon="-7.339077992364764">
        <ele>488.97000000000003</ele>
        <time>2025-05-02T12:59:02Z</time>
      </trkpt>
      <trkpt lat="41.608058027923107" lon="-7.337945010513067">
        <ele>491.85000000000002</ele>
        <time>2025-05-02T12:59:08Z</time>
      </trkpt>
      <trkpt lat="41.607969012111425" lon="-7.337773013859987">
        <ele>491.85000000000002</ele>
        <time>2025-05-02T12:59:09Z</time>
      </trkpt>
      <trkpt lat="41.607884019613266" lon="-7.33760797418654">
        <ele>492.32999999999998</ele>
        <time>2025-05-02T12:59:10Z</time>
      </trkpt>
      <trkpt lat="41.607369035482407" lon="-7.336199982091785">
        <ele>493.29000000000002</ele>
        <time>2025-05-02T12:59:18Z</time>
      </trkpt>
      <trkpt lat="41.607349002733827" lon="-7.336014993488789">
        <ele>493.29000000000002</ele>
        <time>2025-05-02T12:59:19Z</time>
      </trkpt>
      <trkpt lat="41.607349002733827" lon="-7.335836961865425">
        <ele>492.81</ele>
        <time>2025-05-02T12:59:20Z</time>
      </trkpt>
      <trkpt lat="41.607375992462039" lon="-7.335677035152912">
        <ele>492.32999999999998</ele>
        <time>2025-05-02T12:59:21Z</time>
      </trkpt>
      <trkpt lat="41.607427038252354" lon="-7.335522975772619">
        <ele>491.85000000000002</ele>
        <time>2025-05-02T12:59:22Z</time>
      </trkpt>
      <trkpt lat="41.607497027143836" lon="-7.33537302352488">
        <ele>491.37</ele>
        <time>2025-05-02T12:59:23Z</time>
      </trkpt>
      <trkpt lat="41.60759299993515" lon="-7.335230028256774">
        <ele>490.88999999999999</ele>
        <time>2025-05-02T12:59:24Z</time>
      </trkpt>
      <trkpt lat="41.608304958790541" lon="-7.334124036133289">
        <ele>485.60000000000002</ele>
        <time>2025-05-02T12:59:31Z</time>
      </trkpt>
      <trkpt lat="41.608371008187532" lon="-7.333950027823448">
        <ele>484.63999999999999</ele>
        <time>2025-05-02T12:59:32Z</time>
      </trkpt>
      <trkpt lat="41.608444014564157" lon="-7.333760010078549">
        <ele>483.68000000000001</ele>
        <time>2025-05-02T12:59:33Z</time>
      </trkpt>
      <trkpt lat="41.609001997858286" lon="-7.331429002806544">
        <ele>472.63</ele>
        <time>2025-05-02T12:59:45Z</time>
      </trkpt>
      <trkpt lat="41.609523016959429" lon="-7.328986013308168">
        <ele>461.56999999999999</ele>
        <time>2025-05-02T12:59:57Z</time>
      </trkpt>
      <trkpt lat="41.609551012516022" lon="-7.328794989734888">
        <ele>460.61000000000001</ele>
        <time>2025-05-02T12:59:58Z</time>
      </trkpt>
      <trkpt lat="41.609543971717358" lon="-7.328612012788653">
        <ele>459.17000000000002</ele>
        <time>2025-05-02T12:59:59Z</time>
      </trkpt>
      <trkpt lat="41.609490998089314" lon="-7.32845501974225">
        <ele>458.20999999999998</ele>
        <time>2025-05-02T13:00:00Z</time>
      </trkpt>
      <trkpt lat="41.609427966177464" lon="-7.328306995332241">
        <ele>457.24000000000001</ele>
        <time>2025-05-02T13:00:01Z</time>
      </trkpt>
      <trkpt lat="41.609326964244246" lon="-7.328206999227405">
        <ele>456.27999999999997</ele>
        <time>2025-05-02T13:00:02Z</time>
      </trkpt>
      <trkpt lat="41.609221016988158" lon="-7.328117983415723">
        <ele>454.83999999999997</ele>
        <time>2025-05-02T13:00:03Z</time>
      </trkpt>
      <trkpt lat="41.609105011448264" lon="-7.328054029494524">
        <ele>453.88</ele>
        <time>2025-05-02T13:00:04Z</time>
      </trkpt>
      <trkpt lat="41.608984982594848" lon="-7.327999966219068">
        <ele>452.92000000000002</ele>
        <time>2025-05-02T13:00:05Z</time>
      </trkpt>
      <trkpt lat="41.608857996761799" lon="-7.327966019511223">
        <ele>451.95999999999998</ele>
        <time>2025-05-02T13:00:06Z</time>
      </trkpt>
      <trkpt lat="41.607815036550164" lon="-7.327608028426766">
        <ele>440.89999999999998</ele>
        <time>2025-05-02T13:00:14Z</time>
      </trkpt>
      <trkpt lat="41.607711017131805" lon="-7.327501997351646">
        <ele>439.94</ele>
        <time>2025-05-02T13:00:15Z</time>
      </trkpt>
      <trkpt lat="41.607619989663363" lon="-7.327389009296894">
        <ele>438.98000000000002</ele>
        <time>2025-05-02T13:00:16Z</time>
      </trkpt>
      <trkpt lat="41.607563998550177" lon="-7.327259005978704">
        <ele>438.5</ele>
        <time>2025-05-02T13:00:17Z</time>
      </trkpt>
      <trkpt lat="41.607560981065035" lon="-7.327087009325624">
        <ele>438.01999999999998</ele>
        <time>2025-05-02T13:00:18Z</time>
      </trkpt>
      <trkpt lat="41.607557963579893" lon="-7.326926998794079">
        <ele>437.54000000000002</ele>
        <time>2025-05-02T13:00:19Z</time>
      </trkpt>
      <trkpt lat="41.607554024085402" lon="-7.326763970777392">
        <ele>437.54000000000002</ele>
        <time>2025-05-02T13:00:20Z</time>
      </trkpt>
      <trkpt lat="41.607547989115119" lon="-7.326446967199445">
        <ele>438.5</ele>
        <time>2025-05-02T13:00:22Z</time>
      </trkpt>
      <trkpt lat="41.607544971629977" lon="-7.326286034658551">
        <ele>438.5</ele>
        <time>2025-05-02T13:00:23Z</time>
      </trkpt>
      <trkpt lat="41.607532985508442" lon="-7.326141027733684">
        <ele>438.98000000000002</ele>
        <time>2025-05-02T13:00:24Z</time>
      </trkpt>
      <trkpt lat="41.607474982738495" lon="-7.326001971960068">
        <ele>439.45999999999998</ele>
        <time>2025-05-02T13:00:25Z</time>
      </trkpt>
      <trkpt lat="41.607404993847013" lon="-7.325885966420174">
        <ele>439.45999999999998</ele>
        <time>2025-05-02T13:00:26Z</time>
      </trkpt>
      <trkpt lat="41.607303991913795" lon="-7.325814971700311">
        <ele>439.94</ele>
        <time>2025-05-02T13:00:27Z</time>
      </trkpt>
      <trkpt lat="41.607196033000946" lon="-7.325749006122351">
        <ele>440.42000000000002</ele>
        <time>2025-05-02T13:00:28Z</time>
      </trkpt>
      <trkpt lat="41.60707600414753" lon="-7.325711958110333">
        <ele>440.89999999999998</ele>
        <time>2025-05-02T13:00:29Z</time>
      </trkpt>
      <trkpt lat="41.606829995289445" lon="-7.325612967833877">
        <ele>442.33999999999997</ele>
        <time>2025-05-02T13:00:31Z</time>
      </trkpt>
      <trkpt lat="41.60671197809279" lon="-7.325522024184465">
        <ele>442.81999999999999</ele>
        <time>2025-05-02T13:00:32Z</time>
      </trkpt>
      <trkpt lat="41.606593038886786" lon="-7.325428985059261">
        <ele>443.79000000000002</ele>
        <time>2025-05-02T13:00:33Z</time>
      </trkpt>
      <trkpt lat="41.605534991249442" lon="-7.324031973257661">
        <ele>451</ele>
        <time>2025-05-02T13:00:45Z</time>
      </trkpt>
      <trkpt lat="41.604766035452485" lon="-7.322575030848384">
        <ele>456.75999999999999</ele>
        <time>2025-05-02T13:00:56Z</time>
      </trkpt>
      <trkpt lat="41.604652041569352" lon="-7.322321981191635">
        <ele>457.72000000000003</ele>
        <time>2025-05-02T13:00:58Z</time>
      </trkpt>
      <trkpt lat="41.604620022699237" lon="-7.322179991751909">
        <ele>458.20999999999998</ele>
        <time>2025-05-02T13:00:59Z</time>
      </trkpt>
      <trkpt lat="41.604611976072192" lon="-7.32203003950417">
        <ele>458.69</ele>
        <time>2025-05-02T13:01:00Z</time>
      </trkpt>
      <trkpt lat="41.604604013264179" lon="-7.321872962638736">
        <ele>459.17000000000002</ele>
        <time>2025-05-02T13:01:01Z</time>
      </trkpt>
      <trkpt lat="41.604621028527617" lon="-7.321716975420713">
        <ele>459.64999999999998</ele>
        <time>2025-05-02T13:01:02Z</time>
      </trkpt>
      <trkpt lat="41.604641983285546" lon="-7.321559982374311">
        <ele>459.64999999999998</ele>
        <time>2025-05-02T13:01:03Z</time>
      </trkpt>
      <trkpt lat="41.604663021862507" lon="-7.321402989327908">
        <ele>459.17000000000002</ele>
        <time>2025-05-02T13:01:04Z</time>
      </trkpt>
      <trkpt lat="41.604872988536954" lon="-7.319330982863903">
        <ele>453.88</ele>
        <time>2025-05-02T13:01:17Z</time>
      </trkpt>
      <trkpt lat="41.604847004637122" lon="-7.318692030385137">
        <ele>451</ele>
        <time>2025-05-02T13:01:21Z</time>
      </trkpt>
      <trkpt lat="41.604825966060162" lon="-7.318537971004844">
        <ele>450.02999999999997</ele>
        <time>2025-05-02T13:01:22Z</time>
      </trkpt>
      <trkpt lat="41.604787996038795" lon="-7.318388018757105">
        <ele>449.55000000000001</ele>
        <time>2025-05-02T13:01:23Z</time>
      </trkpt>
      <trkpt lat="41.604752037674189" lon="-7.318242006003857">
        <ele>448.58999999999997</ele>
        <time>2025-05-02T13:01:24Z</time>
      </trkpt>
      <trkpt lat="41.604721024632454" lon="-7.318112002685666">
        <ele>448.11000000000001</ele>
        <time>2025-05-02T13:01:25Z</time>
      </trkpt>
      <trkpt lat="41.604695040732622" lon="-7.317999014630914">
        <ele>448.11000000000001</ele>
        <time>2025-05-02T13:01:26Z</time>
      </trkpt>
      <trkpt lat="41.6046719904989" lon="-7.3179030418396">
        <ele>447.63</ele>
        <time>2025-05-02T13:01:27Z</time>
      </trkpt>
      <trkpt lat="41.604666961356997" lon="-7.317882003262639">
        <ele>447.14999999999998</ele>
        <time>2025-05-02T13:01:28Z</time>
      </trkpt>
      <trkpt lat="41.604566965252161" lon="-7.317764991894364">
        <ele>447.14999999999998</ele>
        <time>2025-05-02T13:01:29Z</time>
      </trkpt>
      <trkpt lat="41.604579035192728" lon="-7.317686034366489">
        <ele>446.67000000000002</ele>
        <time>2025-05-02T13:01:30Z</time>
      </trkpt>
      <trkpt lat="41.604689005762339" lon="-7.317645968869329">
        <ele>446.19</ele>
        <time>2025-05-02T13:01:31Z</time>
      </trkpt>
      <trkpt lat="41.604719012975693" lon="-7.317571034654975">
        <ele>446.67000000000002</ele>
        <time>2025-05-02T13:01:32Z</time>
      </trkpt>
      <trkpt lat="41.60475698299706" lon="-7.317479001358151">
        <ele>446.67000000000002</ele>
        <time>2025-05-02T13:01:33Z</time>
      </trkpt>
      <trkpt lat="41.604798976331949" lon="-7.317375987768173">
        <ele>447.14999999999998</ele>
        <time>2025-05-02T13:01:34Z</time>
      </trkpt>
      <trkpt lat="41.6048429813236" lon="-7.317268028855324">
        <ele>448.11000000000001</ele>
        <time>2025-05-02T13:01:35Z</time>
      </trkpt>
      <trkpt lat="41.6052729729563" lon="-7.316288016736507">
        <ele>454.83999999999997</ele>
        <time>2025-05-02T13:01:43Z</time>
      </trkpt>
      <trkpt lat="41.605639010667801" lon="-7.315470026805997">
        <ele>456.75999999999999</ele>
        <time>2025-05-02T13:01:51Z</time>
      </trkpt>
      <trkpt lat="41.606134967878461" lon="-7.314333021640778">
        <ele>451</ele>
        <time>2025-05-02T13:02:01Z</time>
      </trkpt>
      <trkpt lat="41.606181990355253" lon="-7.314223973080516">
        <ele>450.51999999999998</ele>
        <time>2025-05-02T13:02:02Z</time>
      </trkpt>
      <trkpt lat="41.606423975899816" lon="-7.313681999221444">
        <ele>447.14999999999998</ele>
        <time>2025-05-02T13:02:08Z</time>
      </trkpt>
      <trkpt lat="41.606472004204988" lon="-7.31358602643013">
        <ele>445.70999999999998</ele>
        <time>2025-05-02T13:02:15Z</time>
      </trkpt>
      <trkpt lat="41.606483990326524" lon="-7.313525006175041">
        <ele>445.70999999999998</ele>
        <time>2025-05-02T13:02:21Z</time>
      </trkpt>
      <trkpt lat="41.60647401586175" lon="-7.313494998961687">
        <ele>445.70999999999998</ele>
        <time>2025-05-02T13:02:22Z</time>
      </trkpt>
      <trkpt lat="41.606459012255073" lon="-7.313451999798417">
        <ele>445.23000000000002</ele>
        <time>2025-05-02T13:02:23Z</time>
      </trkpt>
      <trkpt lat="41.606441996991634" lon="-7.313399026170373">
        <ele>445.23000000000002</ele>
        <time>2025-05-02T13:02:24Z</time>
      </trkpt>
      <trkpt lat="41.606426993384957" lon="-7.313354015350342">
        <ele>445.23000000000002</ele>
        <time>2025-05-02T13:02:25Z</time>
      </trkpt>
      <trkpt lat="41.606248039752245" lon="-7.312967022880912">
        <ele>440.89999999999998</ele>
        <time>2025-05-02T13:02:33Z</time>
      </trkpt>
      <trkpt lat="41.605690978467464" lon="-7.312214998528361">
        <ele>434.17000000000002</ele>
        <time>2025-05-02T13:02:44Z</time>
      </trkpt>
      <trkpt lat="41.6049500182271" lon="-7.311231968924403">
        <ele>426.95999999999998</ele>
        <time>2025-05-02T13:02:57Z</time>
      </trkpt>
      <trkpt lat="41.604762012138963" lon="-7.310995012521744">
        <ele>423.60000000000002</ele>
        <time>2025-05-02T13:03:02Z</time>
      </trkpt>
      <trkpt lat="41.604762012138963" lon="-7.310995012521744">
        <ele>422.63999999999999</ele>
        <time>2025-05-02T13:03:07Z</time>
      </trkpt>
      <trkpt lat="41.604742985218763" lon="-7.310971040278673">
        <ele>422.16000000000003</ele>
        <time>2025-05-02T13:03:08Z</time>
      </trkpt>
      <trkpt lat="41.60471498966217" lon="-7.310936003923416">
        <ele>421.19</ele>
        <time>2025-05-02T13:03:09Z</time>
      </trkpt>
      <trkpt lat="41.604679031297565" lon="-7.310889987275004">
        <ele>420.23000000000002</ele>
        <time>2025-05-02T13:03:10Z</time>
      </trkpt>
      <trkpt lat="41.604636032134295" lon="-7.31083701364696">
        <ele>419.75</ele>
        <time>2025-05-02T13:03:11Z</time>
      </trkpt>
      <trkpt lat="41.604517009109259" lon="-7.310865009203553">
        <ele>419.26999999999998</ele>
        <time>2025-05-02T13:03:12Z</time>
      </trkpt>
      <trkpt lat="41.604471998289227" lon="-7.310789991170168">
        <ele>418.79000000000002</ele>
        <time>2025-05-02T13:03:13Z</time>
      </trkpt>
      <trkpt lat="41.604474009945989" lon="-7.310628974810243">
        <ele>418.31</ele>
        <time>2025-05-02T13:03:14Z</time>
      </trkpt>
      <trkpt lat="41.604415001347661" lon="-7.310562003403902">
        <ele>418.31</ele>
        <time>2025-05-02T13:03:15Z</time>
      </trkpt>
      <trkpt lat="41.604064973071218" lon="-7.310140980407596">
        <ele>417.82999999999998</ele>
        <time>2025-05-02T13:03:20Z</time>
      </trkpt>
      <trkpt lat="41.603210018947721" lon="-7.309082010760903">
        <ele>417.35000000000002</ele>
        <time>2025-05-02T13:03:31Z</time>
      </trkpt>
      <trkpt lat="41.602745996788144" lon="-7.30851698666811">
        <ele>415.43000000000001</ele>
        <time>2025-05-02T13:03:37Z</time>
      </trkpt>
      <trkpt lat="41.602679025381804" lon="-7.308434005826712">
        <ele>415.43000000000001</ele>
        <time>2025-05-02T13:03:38Z</time>
      </trkpt>
      <trkpt lat="41.602535024285316" lon="-7.308416990563273">
        <ele>414.94999999999999</ele>
        <time>2025-05-02T13:03:39Z</time>
      </trkpt>
      <trkpt lat="41.602428993210196" lon="-7.308314982801676">
        <ele>414.94999999999999</ele>
        <time>2025-05-02T13:03:40Z</time>
      </trkpt>
      <trkpt lat="41.602326985448599" lon="-7.308329986408353">
        <ele>414.47000000000003</ele>
        <time>2025-05-02T13:03:41Z</time>
      </trkpt>
      <trkpt lat="41.602221038192511" lon="-7.30834499001503">
        <ele>413.98000000000002</ele>
        <time>2025-05-02T13:03:42Z</time>
      </trkpt>
      <trkpt lat="41.602108972147107" lon="-7.308356976136565">
        <ele>413.98000000000002</ele>
        <time>2025-05-02T13:03:43Z</time>
      </trkpt>
      <trkpt lat="41.601995984092355" lon="-7.308364016935229">
        <ele>413.5</ele>
        <time>2025-05-02T13:03:44Z</time>
      </trkpt>
      <trkpt lat="41.601880984380841" lon="-7.308369968086481">
        <ele>413.01999999999998</ele>
        <time>2025-05-02T13:03:45Z</time>
      </trkpt>
      <trkpt lat="41.600555973127484" lon="-7.308419002220035">
        <ele>409.18000000000001</ele>
        <time>2025-05-02T13:03:57Z</time>
      </trkpt>
      <trkpt lat="41.599596999585629" lon="-7.307964032515883">
        <ele>408.69999999999999</ele>
        <time>2025-05-02T13:04:05Z</time>
      </trkpt>
      <trkpt lat="41.598159000277519" lon="-7.306967005133629">
        <ele>406.29000000000002</ele>
        <time>2025-05-02T13:04:18Z</time>
      </trkpt>
      <trkpt lat="41.596942031756043" lon="-7.306236019358039">
        <ele>405.32999999999998</ele>
        <time>2025-05-02T13:04:29Z</time>
      </trkpt>
      <trkpt lat="41.59528199583292" lon="-7.305769985541701">
        <ele>403.88999999999999</ele>
        <time>2025-05-02T13:04:43Z</time>
      </trkpt>
      <trkpt lat="41.59504696726799" lon="-7.305794963613153">
        <ele>403.41000000000003</ele>
        <time>2025-05-02T13:04:45Z</time>
      </trkpt>
      <trkpt lat="41.594926016405225" lon="-7.305827988311648">
        <ele>403.41000000000003</ele>
        <time>2025-05-02T13:04:46Z</time>
      </trkpt>
      <trkpt lat="41.593205966055393" lon="-7.30653801932931">
        <ele>400.05000000000001</ele>
        <time>2025-05-02T13:05:01Z</time>
      </trkpt>
      <trkpt lat="41.591704012826085" lon="-7.307140007615089">
        <ele>397.16000000000003</ele>
        <time>2025-05-02T13:05:14Z</time>
      </trkpt>
      <trkpt lat="41.590168029069901" lon="-7.307539992034435">
        <ele>395.72000000000003</ele>
        <time>2025-05-02T13:05:27Z</time>
      </trkpt>
      <trkpt lat="41.588602960109711" lon="-7.307361038401723">
        <ele>391.38999999999999</ele>
        <time>2025-05-02T13:05:40Z</time>
      </trkpt>
      <trkpt lat="41.588242035359144" lon="-7.307281997054815">
        <ele>389.94999999999999</ele>
        <time>2025-05-02T13:05:43Z</time>
      </trkpt>
      <trkpt lat="41.588127035647631" lon="-7.307231035083532">
        <ele>389.47000000000003</ele>
        <time>2025-05-02T13:05:44Z</time>
      </trkpt>
      <trkpt lat="41.588013041764498" lon="-7.307179989293218">
        <ele>388.99000000000001</ele>
        <time>2025-05-02T13:05:45Z</time>
      </trkpt>
      <trkpt lat="41.587028000503778" lon="-7.306555034592748">
        <ele>384.18000000000001</ele>
        <time>2025-05-02T13:05:54Z</time>
      </trkpt>
      <trkpt lat="41.586595997214317" lon="-7.306332997977734">
        <ele>383.22000000000003</ele>
        <time>2025-05-02T13:05:57Z</time>
      </trkpt>
      <trkpt lat="41.586430035531521" lon="-7.306262003257871">
        <ele>382.74000000000001</ele>
        <time>2025-05-02T13:05:58Z</time>
      </trkpt>
      <trkpt lat="41.58625703305006" lon="-7.306186985224485">
        <ele>382.74000000000001</ele>
        <time>2025-05-02T13:05:59Z</time>
      </trkpt>
      <trkpt lat="41.5860840305686" lon="-7.306186985224485">
        <ele>382.25999999999999</ele>
        <time>2025-05-02T13:06:00Z</time>
      </trkpt>
      <trkpt lat="41.585900969803333" lon="-7.306186985224485">
        <ele>381.77999999999997</ele>
        <time>2025-05-02T13:06:01Z</time>
      </trkpt>
      <trkpt lat="41.585716987028718" lon="-7.306186985224485">
        <ele>381.77999999999997</ele>
        <time>2025-05-02T13:06:02Z</time>
      </trkpt>
      <trkpt lat="41.585530992597342" lon="-7.306205006316304">
        <ele>381.77999999999997</ele>
        <time>2025-05-02T13:06:03Z</time>
      </trkpt>
      <trkpt lat="41.585344998165965" lon="-7.306267032399774">
        <ele>381.77999999999997</ele>
        <time>2025-05-02T13:06:04Z</time>
      </trkpt>
      <trkpt lat="41.583881014958024" lon="-7.306508012115955">
        <ele>383.22000000000003</ele>
        <time>2025-05-02T13:06:12Z</time>
      </trkpt>
      <trkpt lat="41.582581987604499" lon="-7.306115990504623">
        <ele>387.06999999999999</ele>
        <time>2025-05-02T13:06:20Z</time>
      </trkpt>
      <trkpt lat="41.580916000530124" lon="-7.305124998092651">
        <ele>393.80000000000001</ele>
        <time>2025-05-02T13:06:32Z</time>
      </trkpt>
      <trkpt lat="41.579484036192298" lon="-7.304223021492362">
        <ele>397.16000000000003</ele>
        <time>2025-05-02T13:06:41Z</time>
      </trkpt>
      <trkpt lat="41.577186975628138" lon="-7.302767001092434">
        <ele>400.52999999999997</ele>
        <time>2025-05-02T13:06:52Z</time>
      </trkpt>
      <trkpt lat="41.574196983128786" lon="-7.300864979624748">
        <ele>404.85000000000002</ele>
        <time>2025-05-02T13:07:06Z</time>
      </trkpt>
      <trkpt lat="41.572690000757575" lon="-7.299450030550361">
        <ele>406.29000000000002</ele>
        <time>2025-05-02T13:07:14Z</time>
      </trkpt>
      <trkpt lat="41.571676963940263" lon="-7.297659991309047">
        <ele>405.81</ele>
        <time>2025-05-02T13:07:21Z</time>
      </trkpt>
      <trkpt lat="41.571575039997697" lon="-7.297366037964821">
        <ele>405.32999999999998</ele>
        <time>2025-05-02T13:07:22Z</time>
      </trkpt>
      <trkpt lat="41.570967016741633" lon="-7.294826991856098">
        <ele>400.52999999999997</ele>
        <time>2025-05-02T13:07:30Z</time>
      </trkpt>
      <trkpt lat="41.57016696408391" lon="-7.290837038308382">
        <ele>389.94999999999999</ele>
        <time>2025-05-02T13:07:42Z</time>
      </trkpt>
      <trkpt lat="41.569331036880612" lon="-7.28662203066051">
        <ele>376.00999999999999</ele>
        <time>2025-05-02T13:07:55Z</time>
      </trkpt>
      <trkpt lat="41.568366028368473" lon="-7.281816015020013">
        <ele>354.86000000000001</ele>
        <time>2025-05-02T13:08:10Z</time>
      </trkpt>
      <trkpt lat="41.567666977643967" lon="-7.278335010632873">
        <ele>339.95999999999998</ele>
        <time>2025-05-02T13:08:21Z</time>
      </trkpt>
      <trkpt lat="41.56698795966804" lon="-7.275008987635374">
        <ele>322.66000000000003</ele>
        <time>2025-05-02T13:08:32Z</time>
      </trkpt>
      <trkpt lat="41.566293016076088" lon="-7.272573038935661">
        <ele>310.63999999999999</ele>
        <time>2025-05-02T13:08:42Z</time>
      </trkpt>
      <trkpt lat="41.565426997840405" lon="-7.270968994125724">
        <ele>299.58999999999997</ele>
        <time>2025-05-02T13:08:49Z</time>
      </trkpt>
      <trkpt lat="41.563554983586073" lon="-7.268852982670069">
        <ele>282.27999999999997</ele>
        <time>2025-05-02T13:09:00Z</time>
      </trkpt>
      <trkpt lat="41.561421034857631" lon="-7.266499008983374">
        <ele>261.62</ele>
        <time>2025-05-02T13:09:13Z</time>
      </trkpt>
      <trkpt lat="41.559793017804623" lon="-7.26473000831902">
        <ele>249.12</ele>
        <time>2025-05-02T13:09:24Z</time>
      </trkpt>
      <trkpt lat="41.557335024699569" lon="-7.262011002749205">
        <ele>247.19999999999999</ele>
        <time>2025-05-02T13:09:40Z</time>
      </trkpt>
      <trkpt lat="41.55544800683856" lon="-7.260307967662811">
        <ele>251.52000000000001</ele>
        <time>2025-05-02T13:09:51Z</time>
      </trkpt>
      <trkpt lat="41.553976982831955" lon="-7.2597870323807">
        <ele>255.37</ele>
        <time>2025-05-02T13:09:58Z</time>
      </trkpt>
      <trkpt lat="41.552215022966266" lon="-7.259801030158997">
        <ele>261.13999999999999</ele>
        <time>2025-05-02T13:10:06Z</time>
      </trkpt>
      <trkpt lat="41.550196995958686" lon="-7.259768005460501">
        <ele>266.42000000000002</ele>
        <time>2025-05-02T13:10:15Z</time>
      </trkpt>
      <trkpt lat="41.548618013039231" lon="-7.259201975539327">
        <ele>271.70999999999998</ele>
        <time>2025-05-02T13:10:22Z</time>
      </trkpt>
      <trkpt lat="41.545356027781963" lon="-7.257435992360115">
        <ele>277.48000000000002</ele>
        <time>2025-05-02T13:10:37Z</time>
      </trkpt>
      <trkpt lat="41.542619001120329" lon="-7.255798000842333">
        <ele>273.63</ele>
        <time>2025-05-02T13:10:50Z</time>
      </trkpt>
      <trkpt lat="41.541130039840937" lon="-7.254705000668764">
        <ele>266.42000000000002</ele>
        <time>2025-05-02T13:10:58Z</time>
      </trkpt>
      <trkpt lat="41.539228018373251" lon="-7.253134986385703">
        <ele>255.84999999999999</ele>
        <time>2025-05-02T13:11:10Z</time>
      </trkpt>
      <trkpt lat="41.537028020247817" lon="-7.251375960186124">
        <ele>248.63999999999999</ele>
        <time>2025-05-02T13:11:23Z</time>
      </trkpt>
      <trkpt lat="41.535779032856226" lon="-7.249793959781528">
        <ele>250.08000000000001</ele>
        <time>2025-05-02T13:11:31Z</time>
      </trkpt>
      <trkpt lat="41.534742023795843" lon="-7.247665040194988">
        <ele>259.20999999999998</ele>
        <time>2025-05-02T13:11:39Z</time>
      </trkpt>
      <trkpt lat="41.533258007839322" lon="-7.245076959952712">
        <ele>270.26999999999998</ele>
        <time>2025-05-02T13:11:49Z</time>
      </trkpt>
      <trkpt lat="41.531885974109173" lon="-7.243973985314369">
        <ele>275.56</ele>
        <time>2025-05-02T13:11:56Z</time>
      </trkpt>
      <trkpt lat="41.530388966202736" lon="-7.243463024497032">
        <ele>280.36000000000001</ele>
        <time>2025-05-02T13:12:04Z</time>
      </trkpt>
      <trkpt lat="41.529078036546707" lon="-7.243110984563828">
        <ele>281.80000000000001</ele>
        <time>2025-05-02T13:12:10Z</time>
      </trkpt>
      <trkpt lat="41.526664970442653" lon="-7.242462979629636">
        <ele>281.31999999999999</ele>
        <time>2025-05-02T13:12:20Z</time>
      </trkpt>
      <trkpt lat="41.522825974971056" lon="-7.241421025246382">
        <ele>270.26999999999998</ele>
        <time>2025-05-02T13:12:36Z</time>
      </trkpt>
      <trkpt lat="41.521528959274292" lon="-7.240645028650761">
        <ele>268.82999999999998</ele>
        <time>2025-05-02T13:12:42Z</time>
      </trkpt>
      <trkpt lat="41.520683979615569" lon="-7.239746991544962">
        <ele>271.23000000000002</ele>
        <time>2025-05-02T13:12:48Z</time>
      </trkpt>
      <trkpt lat="41.519960034638643" lon="-7.238333970308304">
        <ele>275.06999999999999</ele>
        <time>2025-05-02T13:12:56Z</time>
      </trkpt>
      <trkpt lat="41.519501963630319" lon="-7.236646022647619">
        <ele>277.48000000000002</ele>
        <time>2025-05-02T13:13:03Z</time>
      </trkpt>
      <trkpt lat="41.518755974248052" lon="-7.232857989147306">
        <ele>278.92000000000002</ele>
        <time>2025-05-02T13:13:16Z</time>
      </trkpt>
      <trkpt lat="41.518178964033723" lon="-7.230427991598845">
        <ele>276.04000000000002</ele>
        <time>2025-05-02T13:13:25Z</time>
      </trkpt>
      <trkpt lat="41.517506986856461" lon="-7.229151008650661">
        <ele>272.19</ele>
        <time>2025-05-02T13:13:31Z</time>
      </trkpt>
      <trkpt lat="41.516701988875866" lon="-7.228199997916818">
        <ele>266.89999999999998</ele>
        <time>2025-05-02T13:13:38Z</time>
      </trkpt>
      <trkpt lat="41.516519011929631" lon="-7.228017020970583">
        <ele>265.45999999999998</ele>
        <time>2025-05-02T13:13:41Z</time>
      </trkpt>
      <trkpt lat="41.516476012766361" lon="-7.227974021807313">
        <ele>264.98000000000002</ele>
        <time>2025-05-02T13:13:42Z</time>
      </trkpt>
      <trkpt lat="41.516510965302587" lon="-7.227836977690458">
        <ele>264.5</ele>
        <time>2025-05-02T13:13:43Z</time>
      </trkpt>
      <trkpt lat="41.516541978344321" lon="-7.227765982970595">
        <ele>264.01999999999998</ele>
        <time>2025-05-02T13:13:44Z</time>
      </trkpt>
      <trkpt lat="41.516579026356339" lon="-7.227680990472436">
        <ele>263.54000000000002</ele>
        <time>2025-05-02T13:13:45Z</time>
      </trkpt>
      <trkpt lat="41.516622025519609" lon="-7.22758200019598">
        <ele>263.06</ele>
        <time>2025-05-02T13:13:46Z</time>
      </trkpt>
      <trkpt lat="41.516670975834131" lon="-7.227462977170944">
        <ele>262.57999999999998</ele>
        <time>2025-05-02T13:13:47Z</time>
      </trkpt>
      <trkpt lat="41.516716992482543" lon="-7.227340014651418">
        <ele>262.10000000000002</ele>
        <time>2025-05-02T13:13:48Z</time>
      </trkpt>
      <trkpt lat="41.516760997474194" lon="-7.227220991626382">
        <ele>261.62</ele>
        <time>2025-05-02T13:13:49Z</time>
      </trkpt>
      <trkpt lat="41.516777006909251" lon="-7.227070033550263">
        <ele>261.13999999999999</ele>
        <time>2025-05-02T13:13:50Z</time>
      </trkpt>
      <trkpt lat="41.516777006909251" lon="-7.226941036060453">
        <ele>260.64999999999998</ele>
        <time>2025-05-02T13:13:51Z</time>
      </trkpt>
      <trkpt lat="41.516734007745981" lon="-7.226803991943598">
        <ele>260.17000000000002</ele>
        <time>2025-05-02T13:13:52Z</time>
      </trkpt>
      <trkpt lat="41.516691008582711" lon="-7.226686980575323">
        <ele>259.20999999999998</ele>
        <time>2025-05-02T13:13:53Z</time>
      </trkpt>
      <trkpt lat="41.516629988327622" lon="-7.226570975035429">
        <ele>258.25</ele>
        <time>2025-05-02T13:13:54Z</time>
      </trkpt>
      <trkpt lat="41.516567962244153" lon="-7.226451030001044">
        <ele>257.76999999999998</ele>
        <time>2025-05-02T13:13:55Z</time>
      </trkpt>
      <trkpt lat="41.516009978950024" lon="-7.22536800429225">
        <ele>249.12</ele>
        <time>2025-05-02T13:14:03Z</time>
      </trkpt>
      <trkpt lat="41.515983995050192" lon="-7.225214028730989">
        <ele>247.68000000000001</ele>
        <time>2025-05-02T13:14:04Z</time>
      </trkpt>
      <trkpt lat="41.515962034463882" lon="-7.225060975179076">
        <ele>246.72</ele>
        <time>2025-05-02T13:14:05Z</time>
      </trkpt>
      <trkpt lat="41.516004027798772" lon="-7.224928038194776">
        <ele>245.27000000000001</ele>
        <time>2025-05-02T13:14:06Z</time>
      </trkpt>
      <trkpt lat="41.516049038618803" lon="-7.224790994077921">
        <ele>243.34999999999999</ele>
        <time>2025-05-02T13:14:07Z</time>
      </trkpt>
      <trkpt lat="41.516096983104944" lon="-7.22465998493135">
        <ele>241.91</ele>
        <time>2025-05-02T13:14:08Z</time>
      </trkpt>
      <trkpt lat="41.516176024451852" lon="-7.224544985219836">
        <ele>240.94999999999999</ele>
        <time>2025-05-02T13:14:09Z</time>
      </trkpt>
      <trkpt lat="41.516255987808108" lon="-7.224429985508323">
        <ele>239.99000000000001</ele>
        <time>2025-05-02T13:14:10Z</time>
      </trkpt>
      <trkpt lat="41.516458997502923" lon="-7.224139971658588">
        <ele>238.53999999999999</ele>
        <time>2025-05-02T13:14:13Z</time>
      </trkpt>
      <trkpt lat="41.516508031636477" lon="-7.224048022180796">
        <ele>238.53999999999999</ele>
        <time>2025-05-02T13:14:14Z</time>
      </trkpt>
      <trkpt lat="41.516519011929631" lon="-7.223876025527716">
        <ele>238.53999999999999</ele>
        <time>2025-05-02T13:14:15Z</time>
      </trkpt>
      <trkpt lat="41.516538960859179" lon="-7.223787009716034">
        <ele>238.06</ele>
        <time>2025-05-02T13:14:16Z</time>
      </trkpt>
      <trkpt lat="41.516487998887897" lon="-7.223691958934069">
        <ele>237.58000000000001</ele>
        <time>2025-05-02T13:14:17Z</time>
      </trkpt>
      <trkpt lat="41.516432007774711" lon="-7.223588023334742">
        <ele>237.58000000000001</ele>
        <time>2025-05-02T13:14:18Z</time>
      </trkpt>
      <trkpt lat="41.516372999176383" lon="-7.223477968946099">
        <ele>237.58000000000001</ele>
        <time>2025-05-02T13:14:19Z</time>
      </trkpt>
      <trkpt lat="41.516250958666205" lon="-7.223251992836595">
        <ele>237.58000000000001</ele>
        <time>2025-05-02T13:14:21Z</time>
      </trkpt>
      <trkpt lat="41.516234027221799" lon="-7.223119977861643">
        <ele>237.58000000000001</ele>
        <time>2025-05-02T13:14:22Z</time>
      </trkpt>
      <trkpt lat="41.516226986423135" lon="-7.222984023392201">
        <ele>237.58000000000001</ele>
        <time>2025-05-02T13:14:23Z</time>
      </trkpt>
      <trkpt lat="41.516219023615122" lon="-7.222824012860656">
        <ele>237.58000000000001</ele>
        <time>2025-05-02T13:14:24Z</time>
      </trkpt>
      <trkpt lat="41.516263028606772" lon="-7.222714964300394">
        <ele>237.09999999999999</ele>
        <time>2025-05-02T13:14:25Z</time>
      </trkpt>
      <trkpt lat="41.516308961436152" lon="-7.222597030922771">
        <ele>237.09999999999999</ele>
        <time>2025-05-02T13:14:26Z</time>
      </trkpt>
      <trkpt lat="41.516348021104932" lon="-7.222479013726115">
        <ele>237.09999999999999</ele>
        <time>2025-05-02T13:14:27Z</time>
      </trkpt>
      <trkpt lat="41.516435025259852" lon="-7.222113981842995">
        <ele>236.62</ele>
        <time>2025-05-02T13:14:30Z</time>
      </trkpt>
      <trkpt lat="41.516426978632808" lon="-7.221851041540504">
        <ele>237.09999999999999</ele>
        <time>2025-05-02T13:14:32Z</time>
      </trkpt>
      <trkpt lat="41.516403006389737" lon="-7.221713997423649">
        <ele>237.09999999999999</ele>
        <time>2025-05-02T13:14:33Z</time>
      </trkpt>
      <trkpt lat="41.51623603887856" lon="-7.221105974167585">
        <ele>239.99000000000001</ele>
        <time>2025-05-02T13:14:38Z</time>
      </trkpt>
      <trkpt lat="41.51619303971529" lon="-7.220994997769594">
        <ele>240.47</ele>
        <time>2025-05-02T13:14:39Z</time>
      </trkpt>
      <trkpt lat="41.51615004055202" lon="-7.220885027199984">
        <ele>241.43000000000001</ele>
        <time>2025-05-02T13:14:40Z</time>
      </trkpt>
      <trkpt lat="41.516062030568719" lon="-7.220661984756589">
        <ele>242.87</ele>
        <time>2025-05-02T13:14:42Z</time>
      </trkpt>
      <trkpt lat="41.516020959243178" lon="-7.220539022237063">
        <ele>243.34999999999999</ele>
        <time>2025-05-02T13:14:43Z</time>
      </trkpt>
      <trkpt lat="41.516002016142011" lon="-7.22040600143373">
        <ele>244.31</ele>
        <time>2025-05-02T13:14:44Z</time>
      </trkpt>
      <trkpt lat="41.515949964523315" lon="-7.220015991479158">
        <ele>245.27000000000001</ele>
        <time>2025-05-02T13:14:47Z</time>
      </trkpt>
      <trkpt lat="41.515933033078909" lon="-7.21988900564611">
        <ele>245.75</ele>
        <time>2025-05-02T13:14:48Z</time>
      </trkpt>
      <trkpt lat="41.51591501198709" lon="-7.219768976792693">
        <ele>245.75</ele>
        <time>2025-05-02T13:14:49Z</time>
      </trkpt>
      <trkpt lat="41.515865977853537" lon="-7.219656994566321">
        <ele>246.22999999999999</ele>
        <time>2025-05-02T13:14:50Z</time>
      </trkpt>
      <trkpt lat="41.515814010053873" lon="-7.219538977369666">
        <ele>246.22999999999999</ele>
        <time>2025-05-02T13:14:51Z</time>
      </trkpt>
      <trkpt lat="41.515723988413811" lon="-7.219292968511581">
        <ele>246.22999999999999</ele>
        <time>2025-05-02T13:14:53Z</time>
      </trkpt>
      <trkpt lat="41.515684006735682" lon="-7.219163971021771">
        <ele>246.22999999999999</ele>
        <time>2025-05-02T13:14:54Z</time>
      </trkpt>
      <trkpt lat="41.51565601117909" lon="-7.219035979360342">
        <ele>245.75</ele>
        <time>2025-05-02T13:14:55Z</time>
      </trkpt>
      <trkpt lat="41.515644025057554" lon="-7.218902036547661">
        <ele>245.75</ele>
        <time>2025-05-02T13:14:56Z</time>
      </trkpt>
      <trkpt lat="41.515632038936019" lon="-7.21877203322947">
        <ele>245.75</ele>
        <time>2025-05-02T13:14:57Z</time>
      </trkpt>
      <trkpt lat="41.515619968995452" lon="-7.218638006597757">
        <ele>246.22999999999999</ele>
        <time>2025-05-02T13:14:58Z</time>
      </trkpt>
      <trkpt lat="41.515546962618828" lon="-7.21780501306057">
        <ele>246.72</ele>
        <time>2025-05-02T13:15:04Z</time>
      </trkpt>
      <trkpt lat="41.515535982325673" lon="-7.217653971165419">
        <ele>246.72</ele>
        <time>2025-05-02T13:15:05Z</time>
      </trkpt>
      <trkpt lat="41.515548974275589" lon="-7.21750401891768">
        <ele>247.19999999999999</ele>
        <time>2025-05-02T13:15:06Z</time>
      </trkpt>
      <trkpt lat="41.515573030337691" lon="-7.217351971194148">
        <ele>247.19999999999999</ele>
        <time>2025-05-02T13:15:07Z</time>
      </trkpt>
      <trkpt lat="41.515597002580762" lon="-7.217205036431551">
        <ele>247.19999999999999</ele>
        <time>2025-05-02T13:15:08Z</time>
      </trkpt>
      <trkpt lat="41.515646958723664" lon="-7.216660967096686">
        <ele>248.16</ele>
        <time>2025-05-02T13:15:12Z</time>
      </trkpt>
      <trkpt lat="41.515628015622497" lon="-7.216536998748779">
        <ele>247.68000000000001</ele>
        <time>2025-05-02T13:15:13Z</time>
      </trkpt>
      <trkpt lat="41.515587028115988" lon="-7.216437002643943">
        <ele>248.16</ele>
        <time>2025-05-02T13:15:14Z</time>
      </trkpt>
      <trkpt lat="41.515514021739364" lon="-7.216352010145783">
        <ele>248.16</ele>
        <time>2025-05-02T13:15:15Z</time>
      </trkpt>
      <trkpt lat="41.515426011756063" lon="-7.216284032911062">
        <ele>248.16</ele>
        <time>2025-05-02T13:15:16Z</time>
      </trkpt>
      <trkpt lat="41.515328027307987" lon="-7.216226030141115">
        <ele>248.16</ele>
        <time>2025-05-02T13:15:17Z</time>
      </trkpt>
      <trkpt lat="41.515240017324686" lon="-7.216172972694039">
        <ele>248.16</ele>
        <time>2025-05-02T13:15:18Z</time>
      </trkpt>
      <trkpt lat="41.515164999291301" lon="-7.216119999065995">
        <ele>248.16</ele>
        <time>2025-05-02T13:15:19Z</time>
      </trkpt>
      <trkpt lat="41.515130968764424" lon="-7.21600198186934">
        <ele>248.16</ele>
        <time>2025-05-02T13:15:20Z</time>
      </trkpt>
      <trkpt lat="41.51509702205658" lon="-7.215884970501065">
        <ele>248.16</ele>
        <time>2025-05-02T13:15:21Z</time>
      </trkpt>
      <trkpt lat="41.515102973207831" lon="-7.215769970789552">
        <ele>248.63999999999999</ele>
        <time>2025-05-02T13:15:22Z</time>
      </trkpt>
      <trkpt lat="41.515146978199482" lon="-7.215652959421277">
        <ele>249.12</ele>
        <time>2025-05-02T13:15:23Z</time>
      </trkpt>
      <trkpt lat="41.515192994847894" lon="-7.215532008558512">
        <ele>249.59999999999999</ele>
        <time>2025-05-02T13:15:24Z</time>
      </trkpt>
      <trkpt lat="41.515240017324686" lon="-7.215406028553844">
        <ele>250.08000000000001</ele>
        <time>2025-05-02T13:15:25Z</time>
      </trkpt>
      <trkpt lat="41.515278993174434" lon="-7.21527099609375">
        <ele>250.08000000000001</ele>
        <time>2025-05-02T13:15:26Z</time>
      </trkpt>
      <trkpt lat="41.51529299095273" lon="-7.215128000825644">
        <ele>250.56</ele>
        <time>2025-05-02T13:15:27Z</time>
      </trkpt>
      <trkpt lat="41.515268012881279" lon="-7.214996991679072">
        <ele>250.56</ele>
        <time>2025-05-02T13:15:28Z</time>
      </trkpt>
      <trkpt lat="41.515231970697641" lon="-7.21486296504736">
        <ele>250.56</ele>
        <time>2025-05-02T13:15:29Z</time>
      </trkpt>
      <trkpt lat="41.51516298763454" lon="-7.214742014184594">
        <ele>251.03999999999999</ele>
        <time>2025-05-02T13:15:30Z</time>
      </trkpt>
      <trkpt lat="41.515087969601154" lon="-7.214608993381262">
        <ele>251.03999999999999</ele>
        <time>2025-05-02T13:15:31Z</time>
      </trkpt>
      <trkpt lat="41.514296969398856" lon="-7.213566033169627">
        <ele>252.47999999999999</ele>
        <time>2025-05-02T13:15:40Z</time>
      </trkpt>
      <trkpt lat="41.51419403962791" lon="-7.213481040671468">
        <ele>252.47999999999999</ele>
        <time>2025-05-02T13:15:41Z</time>
      </trkpt>
      <trkpt lat="41.51408901438117" lon="-7.213398981839418">
        <ele>252.47999999999999</ele>
        <time>2025-05-02T13:15:42Z</time>
      </trkpt>
      <trkpt lat="41.513978037983179" lon="-7.213319018483162">
        <ele>252.47999999999999</ele>
        <time>2025-05-02T13:15:43Z</time>
      </trkpt>
      <trkpt lat="41.513864966109395" lon="-7.213326981291175">
        <ele>252.47999999999999</ele>
        <time>2025-05-02T13:15:44Z</time>
      </trkpt>
      <trkpt lat="41.513753989711404" lon="-7.213334022089839">
        <ele>252.47999999999999</ele>
        <time>2025-05-02T13:15:45Z</time>
      </trkpt>
      <trkpt lat="41.513630021363497" lon="-7.213372997939587">
        <ele>252.47999999999999</ele>
        <time>2025-05-02T13:15:46Z</time>
      </trkpt>
      <trkpt lat="41.513534970581532" lon="-7.213463019579649">
        <ele>252</ele>
        <time>2025-05-02T13:15:47Z</time>
      </trkpt>
      <trkpt lat="41.513438997790217" lon="-7.213553041219711">
        <ele>252</ele>
        <time>2025-05-02T13:15:48Z</time>
      </trkpt>
      <trkpt lat="41.513342019170523" lon="-7.213644990697503">
        <ele>251.03999999999999</ele>
        <time>2025-05-02T13:15:49Z</time>
      </trkpt>
      <trkpt lat="41.513254009187222" lon="-7.213709028437734">
        <ele>250.56</ele>
        <time>2025-05-02T13:15:50Z</time>
      </trkpt>
      <trkpt lat="41.51314202696085" lon="-7.213729983195663">
        <ele>250.08000000000001</ele>
        <time>2025-05-02T13:15:51Z</time>
      </trkpt>
      <trkpt lat="41.513033984228969" lon="-7.21374498680234">
        <ele>250.08000000000001</ele>
        <time>2025-05-02T13:15:52Z</time>
      </trkpt>
      <trkpt lat="41.512919990345836" lon="-7.213707016780973">
        <ele>250.08000000000001</ele>
        <time>2025-05-02T13:15:53Z</time>
      </trkpt>
      <trkpt lat="41.512825023382902" lon="-7.21361598931253">
        <ele>250.56</ele>
        <time>2025-05-02T13:15:54Z</time>
      </trkpt>
      <trkpt lat="41.512730978429317" lon="-7.213522028177977">
        <ele>251.03999999999999</ele>
        <time>2025-05-02T13:15:55Z</time>
      </trkpt>
      <trkpt lat="41.512638023123145" lon="-7.213427983224392">
        <ele>251.52000000000001</ele>
        <time>2025-05-02T13:15:56Z</time>
      </trkpt>
      <trkpt lat="41.512538027018309" lon="-7.213349025696516">
        <ele>252</ele>
        <time>2025-05-02T13:15:57Z</time>
      </trkpt>
      <trkpt lat="41.512429984286427" lon="-7.213308960199356">
        <ele>252</ele>
        <time>2025-05-02T13:15:58Z</time>
      </trkpt>
      <trkpt lat="41.512320013716817" lon="-7.213329998776317">
        <ele>252.47999999999999</ele>
        <time>2025-05-02T13:15:59Z</time>
      </trkpt>
      <trkpt lat="41.512210965156555" lon="-7.213376015424728">
        <ele>252.47999999999999</ele>
        <time>2025-05-02T13:16:00Z</time>
      </trkpt>
      <trkpt lat="41.512093031778932" lon="-7.21342496573925">
        <ele>252.96000000000001</ele>
        <time>2025-05-02T13:16:01Z</time>
      </trkpt>
      <trkpt lat="41.511971997097135" lon="-7.213476011529565">
        <ele>252.96000000000001</ele>
        <time>2025-05-02T13:16:02Z</time>
      </trkpt>
      <trkpt lat="41.511849034577608" lon="-7.213527979329228">
        <ele>252.96000000000001</ele>
        <time>2025-05-02T13:16:03Z</time>
      </trkpt>
      <trkpt lat="41.511729005724192" lon="-7.213575001806021">
        <ele>252.96000000000001</ele>
        <time>2025-05-02T13:16:04Z</time>
      </trkpt>
      <trkpt lat="41.511601014062762" lon="-7.213542982935906">
        <ele>252.96000000000001</ele>
        <time>2025-05-02T13:16:05Z</time>
      </trkpt>
      <trkpt lat="41.511474028229713" lon="-7.21350995823741">
        <ele>253.44</ele>
        <time>2025-05-02T13:16:06Z</time>
      </trkpt>
      <trkpt lat="41.511360034346581" lon="-7.21342496573925">
        <ele>253.44</ele>
        <time>2025-05-02T13:16:07Z</time>
      </trkpt>
      <trkpt lat="41.511245034635067" lon="-7.213340979069471">
        <ele>253.44</ele>
        <time>2025-05-02T13:16:08Z</time>
      </trkpt>
      <trkpt lat="41.511133974418044" lon="-7.213259004056454">
        <ele>253.44</ele>
        <time>2025-05-02T13:16:09Z</time>
      </trkpt>
      <trkpt lat="41.511022998020053" lon="-7.213177029043436">
        <ele>253.44</ele>
        <time>2025-05-02T13:16:10Z</time>
      </trkpt>
      <trkpt lat="41.510903974995017" lon="-7.213117014616728">
        <ele>253.44</ele>
        <time>2025-05-02T13:16:11Z</time>
      </trkpt>
      <trkpt lat="41.510777994990349" lon="-7.213069992139936">
        <ele>253.44</ele>
        <time>2025-05-02T13:16:12Z</time>
      </trkpt>
      <trkpt lat="41.510653020814061" lon="-7.213022969663143">
        <ele>252.96000000000001</ele>
        <time>2025-05-02T13:16:13Z</time>
      </trkpt>
      <trkpt lat="41.510518994182348" lon="-7.213033027946949">
        <ele>252.96000000000001</ele>
        <time>2025-05-02T13:16:14Z</time>
      </trkpt>
      <trkpt lat="41.510386979207397" lon="-7.213049959391356">
        <ele>252.47999999999999</ele>
        <time>2025-05-02T13:16:15Z</time>
      </trkpt>
      <trkpt lat="41.510258987545967" lon="-7.213063035160303">
        <ele>252.47999999999999</ele>
        <time>2025-05-02T13:16:16Z</time>
      </trkpt>
      <trkpt lat="41.51013501919806" lon="-7.213072003796697">
        <ele>252</ele>
        <time>2025-05-02T13:16:17Z</time>
      </trkpt>
      <trkpt lat="41.510014990344644" lon="-7.21307996660471">
        <ele>252</ele>
        <time>2025-05-02T13:16:18Z</time>
      </trkpt>
      <trkpt lat="41.509907031431794" lon="-7.21303797326982">
        <ele>251.52000000000001</ele>
        <time>2025-05-02T13:16:19Z</time>
      </trkpt>
      <trkpt lat="41.509780967608094" lon="-7.212953986600041">
        <ele>250.56</ele>
        <time>2025-05-02T13:16:20Z</time>
      </trkpt>
      <trkpt lat="41.50970502756536" lon="-7.212831024080515">
        <ele>250.56</ele>
        <time>2025-05-02T13:16:21Z</time>
      </trkpt>
      <trkpt lat="41.509624980390072" lon="-7.212675958871841">
        <ele>250.08000000000001</ele>
        <time>2025-05-02T13:16:22Z</time>
      </trkpt>
      <trkpt lat="41.509548034518957" lon="-7.212508991360664">
        <ele>249.59999999999999</ele>
        <time>2025-05-02T13:16:23Z</time>
      </trkpt>
      <trkpt lat="41.50918803177774" lon="-7.211457984521985">
        <ele>246.22999999999999</ele>
        <time>2025-05-02T13:16:29Z</time>
      </trkpt>
      <trkpt lat="41.509121982380748" lon="-7.211349019780755">
        <ele>245.27000000000001</ele>
        <time>2025-05-02T13:16:30Z</time>
      </trkpt>
      <trkpt lat="41.509042019024491" lon="-7.211263021454215">
        <ele>244.78999999999999</ele>
        <time>2025-05-02T13:16:31Z</time>
      </trkpt>
      <trkpt lat="41.50893397629261" lon="-7.211203007027507">
        <ele>243.83000000000001</ele>
        <time>2025-05-02T13:16:32Z</time>
      </trkpt>
      <trkpt lat="41.508812019601464" lon="-7.211136035621166">
        <ele>242.87</ele>
        <time>2025-05-02T13:16:33Z</time>
      </trkpt>
      <trkpt lat="41.508677992969751" lon="-7.211063029244542">
        <ele>242.38999999999999</ele>
        <time>2025-05-02T13:16:34Z</time>
      </trkpt>
      <trkpt lat="41.508532986044884" lon="-7.211008965969086">
        <ele>241.43000000000001</ele>
        <time>2025-05-02T13:16:35Z</time>
      </trkpt>
      <trkpt lat="41.5083940140903" lon="-7.210965966805816">
        <ele>240.47</ele>
        <time>2025-05-02T13:16:36Z</time>
      </trkpt>
      <trkpt lat="41.508300974965096" lon="-7.210936965420842">
        <ele>239.99000000000001</ele>
        <time>2025-05-02T13:16:37Z</time>
      </trkpt>
      <trkpt lat="41.508208019658923" lon="-7.210808973759413">
        <ele>239.02000000000001</ele>
        <time>2025-05-02T13:16:38Z</time>
      </trkpt>
      <trkpt lat="41.508128978312016" lon="-7.210701014846563">
        <ele>239.02000000000001</ele>
        <time>2025-05-02T13:16:39Z</time>
      </trkpt>
      <trkpt lat="41.508088996633887" lon="-7.210553996264935">
        <ele>239.02000000000001</ele>
        <time>2025-05-02T13:16:40Z</time>
      </trkpt>
      <trkpt lat="41.508041974157095" lon="-7.210380993783474">
        <ele>239.02000000000001</ele>
        <time>2025-05-02T13:16:41Z</time>
      </trkpt>
      <trkpt lat="41.507985983043909" lon="-7.210205979645252">
        <ele>239.50999999999999</ele>
        <time>2025-05-02T13:16:42Z</time>
      </trkpt>
      <trkpt lat="41.507898978888988" lon="-7.21007002517581">
        <ele>239.50999999999999</ele>
        <time>2025-05-02T13:16:43Z</time>
      </trkpt>
      <trkpt lat="41.507799988612533" lon="-7.209961982443929">
        <ele>239.99000000000001</ele>
        <time>2025-05-02T13:16:44Z</time>
      </trkpt>
      <trkpt lat="41.507677026093006" lon="-7.209887970238924">
        <ele>240.47</ele>
        <time>2025-05-02T13:16:45Z</time>
      </trkpt>
      <trkpt lat="41.507545011118054" lon="-7.209808006882668">
        <ele>240.47</ele>
        <time>2025-05-02T13:16:46Z</time>
      </trkpt>
      <trkpt lat="41.50740503333509" lon="-7.209723014384508">
        <ele>240.94999999999999</ele>
        <time>2025-05-02T13:16:47Z</time>
      </trkpt>
      <trkpt lat="41.506886025890708" lon="-7.209385978057981">
        <ele>243.83000000000001</ele>
        <time>2025-05-02T13:16:51Z</time>
      </trkpt>
      <trkpt lat="41.506799021735787" lon="-7.209283970296383">
        <ele>244.31</ele>
        <time>2025-05-02T13:16:52Z</time>
      </trkpt>
      <trkpt lat="41.50676398538053" lon="-7.209124965593219">
        <ele>245.27000000000001</ele>
        <time>2025-05-02T13:16:53Z</time>
      </trkpt>
      <trkpt lat="41.506728027015924" lon="-7.208962021395564">
        <ele>246.22999999999999</ele>
        <time>2025-05-02T13:16:54Z</time>
      </trkpt>
      <trkpt lat="41.506689973175526" lon="-7.208788013085723">
        <ele>246.72</ele>
        <time>2025-05-02T13:16:55Z</time>
      </trkpt>
      <trkpt lat="41.506584025919437" lon="-7.208404038101435">
        <ele>248.63999999999999</ele>
        <time>2025-05-02T13:16:57Z</time>
      </trkpt>
      <trkpt lat="41.505954964086413" lon="-7.207150021567941">
        <ele>254.41</ele>
        <time>2025-05-02T13:17:04Z</time>
      </trkpt>
      <trkpt lat="41.505092969164252" lon="-7.205959036946297">
        <ele>261.62</ele>
        <time>2025-05-02T13:17:12Z</time>
      </trkpt>
      <trkpt lat="41.504999008029699" lon="-7.205896005034447">
        <ele>262.57999999999998</ele>
        <time>2025-05-02T13:17:13Z</time>
      </trkpt>
      <trkpt lat="41.504905968904495" lon="-7.205902962014079">
        <ele>263.54000000000002</ele>
        <time>2025-05-02T13:17:14Z</time>
      </trkpt>
      <trkpt lat="41.504820976406336" lon="-7.205912014469504">
        <ele>264.01999999999998</ele>
        <time>2025-05-02T13:17:15Z</time>
      </trkpt>
      <trkpt lat="41.504741013050079" lon="-7.205960964784026">
        <ele>264.98000000000002</ele>
        <time>2025-05-02T13:17:16Z</time>
      </trkpt>
      <trkpt lat="41.504665995016694" lon="-7.206046041101217">
        <ele>265.45999999999998</ele>
        <time>2025-05-02T13:17:17Z</time>
      </trkpt>
      <trkpt lat="41.504581002518535" lon="-7.206143019720912">
        <ele>265.94</ele>
        <time>2025-05-02T13:17:18Z</time>
      </trkpt>
      <trkpt lat="41.504203984513879" lon="-7.206516014412046">
        <ele>264.5</ele>
        <time>2025-05-02T13:17:22Z</time>
      </trkpt>
      <trkpt lat="41.504116980358958" lon="-7.206559013575316">
        <ele>264.01999999999998</ele>
        <time>2025-05-02T13:17:23Z</time>
      </trkpt>
      <trkpt lat="41.504029976204038" lon="-7.206531018018723">
        <ele>263.06</ele>
        <time>2025-05-02T13:17:24Z</time>
      </trkpt>
      <trkpt lat="41.503923023119569" lon="-7.206494975835085">
        <ele>262.57999999999998</ele>
        <time>2025-05-02T13:17:25Z</time>
      </trkpt>
      <trkpt lat="41.503851022571325" lon="-7.206432027742267">
        <ele>262.57999999999998</ele>
        <time>2025-05-02T13:17:26Z</time>
      </trkpt>
      <trkpt lat="41.50375597178936" lon="-7.206350974738598">
        <ele>262.10000000000002</ele>
        <time>2025-05-02T13:17:27Z</time>
      </trkpt>
      <trkpt lat="41.503451038151979" lon="-7.206087028607726">
        <ele>260.17000000000002</ele>
        <time>2025-05-02T13:17:30Z</time>
      </trkpt>
      <trkpt lat="41.503337966278195" lon="-7.206039000302553">
        <ele>259.69</ele>
        <time>2025-05-02T13:17:31Z</time>
      </trkpt>
      <trkpt lat="41.503211986273527" lon="-7.206047968938947">
        <ele>259.20999999999998</ele>
        <time>2025-05-02T13:17:32Z</time>
      </trkpt>
      <trkpt lat="41.503092041239142" lon="-7.206083005294204">
        <ele>258.73000000000002</ele>
        <time>2025-05-02T13:17:33Z</time>
      </trkpt>
      <trkpt lat="41.502966983243823" lon="-7.206118041649461">
        <ele>258.25</ele>
        <time>2025-05-02T13:17:34Z</time>
      </trkpt>
      <trkpt lat="41.502838991582394" lon="-7.206163974478841">
        <ele>257.76999999999998</ele>
        <time>2025-05-02T13:17:35Z</time>
      </trkpt>
      <trkpt lat="41.502745030447841" lon="-7.206261958926916">
        <ele>257.29000000000002</ele>
        <time>2025-05-02T13:17:36Z</time>
      </trkpt>
      <trkpt lat="41.502654002979398" lon="-7.206358015537262">
        <ele>256.81</ele>
        <time>2025-05-02T13:17:37Z</time>
      </trkpt>
      <trkpt lat="41.502565992996097" lon="-7.206449965015054">
        <ele>255.84999999999999</ele>
        <time>2025-05-02T13:17:38Z</time>
      </trkpt>
      <trkpt lat="41.502483012154698" lon="-7.206536969169974">
        <ele>255.37</ele>
        <time>2025-05-02T13:17:39Z</time>
      </trkpt>
      <trkpt lat="41.502420986071229" lon="-7.206602012738586">
        <ele>253.93000000000001</ele>
        <time>2025-05-02T13:17:40Z</time>
      </trkpt>
      <trkpt lat="41.50233599357307" lon="-7.206582985818386">
        <ele>252.96000000000001</ele>
        <time>2025-05-02T13:17:41Z</time>
      </trkpt>
      <trkpt lat="41.502241026610136" lon="-7.206562031060457">
        <ele>252.96000000000001</ele>
        <time>2025-05-02T13:17:42Z</time>
      </trkpt>
      <trkpt lat="41.502161985263228" lon="-7.20650402829051">
        <ele>252.96000000000001</ele>
        <time>2025-05-02T13:17:43Z</time>
      </trkpt>
      <trkpt lat="41.502074981108308" lon="-7.206432027742267">
        <ele>252.96000000000001</ele>
        <time>2025-05-02T13:17:44Z</time>
      </trkpt>
      <trkpt lat="41.501995017752051" lon="-7.206364972516894">
        <ele>252.96000000000001</ele>
        <time>2025-05-02T13:17:45Z</time>
      </trkpt>
      <trkpt lat="41.501956041902304" lon="-7.206265982240439">
        <ele>253.44</ele>
        <time>2025-05-02T13:17:46Z</time>
      </trkpt>
      <trkpt lat="41.501930980011821" lon="-7.206136984750629">
        <ele>253.93000000000001</ele>
        <time>2025-05-02T13:17:47Z</time>
      </trkpt>
      <trkpt lat="41.50190700776875" lon="-7.206008993089199">
        <ele>254.41</ele>
        <time>2025-05-02T13:17:48Z</time>
      </trkpt>
      <trkpt lat="41.501882029697299" lon="-7.205875972285867">
        <ele>254.88999999999999</ele>
        <time>2025-05-02T13:17:49Z</time>
      </trkpt>
      <trkpt lat="41.501826960593462" lon="-7.205589981749654">
        <ele>255.84999999999999</ele>
        <time>2025-05-02T13:17:51Z</time>
      </trkpt>
      <trkpt lat="41.501798965036869" lon="-7.205442963168025">
        <ele>256.32999999999998</ele>
        <time>2025-05-02T13:17:52Z</time>
      </trkpt>
      <trkpt lat="41.501721013337374" lon="-7.205308014526963">
        <ele>256.81</ele>
        <time>2025-05-02T13:17:53Z</time>
      </trkpt>
      <trkpt lat="41.501639960333705" lon="-7.205168036743999">
        <ele>257.29000000000002</ele>
        <time>2025-05-02T13:17:54Z</time>
      </trkpt>
      <trkpt lat="41.501553039997816" lon="-7.205018000677228">
        <ele>257.76999999999998</ele>
        <time>2025-05-02T13:17:55Z</time>
      </trkpt>
      <trkpt lat="41.501102009788156" lon="-7.204167991876602">
        <ele>260.64999999999998</ele>
        <time>2025-05-02T13:18:00Z</time>
      </trkpt>
      <trkpt lat="41.501040989533067" lon="-7.203986020758748">
        <ele>261.62</ele>
        <time>2025-05-02T13:18:01Z</time>
      </trkpt>
      <trkpt lat="41.50081099011004" lon="-7.203294010832906">
        <ele>263.54000000000002</ele>
        <time>2025-05-02T13:18:05Z</time>
      </trkpt>
      <trkpt lat="41.500747036188841" lon="-7.203156966716051">
        <ele>264.01999999999998</ele>
        <time>2025-05-02T13:18:06Z</time>
      </trkpt>
      <trkpt lat="41.500666989013553" lon="-7.203057976439595">
        <ele>264.01999999999998</ele>
        <time>2025-05-02T13:18:07Z</time>
      </trkpt>
      <trkpt lat="41.500566992908716" lon="-7.202991005033255">
        <ele>264.01999999999998</ele>
        <time>2025-05-02T13:18:08Z</time>
      </trkpt>
      <trkpt lat="41.500462973490357" lon="-7.202947000041604">
        <ele>263.54000000000002</ele>
        <time>2025-05-02T13:18:09Z</time>
      </trkpt>
      <trkpt lat="41.500341016799212" lon="-7.202928978949785">
        <ele>263.54000000000002</ele>
        <time>2025-05-02T13:18:10Z</time>
      </trkpt>
      <trkpt lat="41.500213025137782" lon="-7.202910035848618">
        <ele>263.06</ele>
        <time>2025-05-02T13:18:11Z</time>
      </trkpt>
      <trkpt lat="41.500084027647972" lon="-7.202891008928418">
        <ele>262.10000000000002</ele>
        <time>2025-05-02T13:18:12Z</time>
      </trkpt>
      <trkpt lat="41.499958969652653" lon="-7.202872987836599">
        <ele>261.62</ele>
        <time>2025-05-02T13:18:13Z</time>
      </trkpt>
      <trkpt lat="41.499860985204577" lon="-7.202777015045285">
        <ele>261.13999999999999</ele>
        <time>2025-05-02T13:18:14Z</time>
      </trkpt>
      <trkpt lat="41.499757971614599" lon="-7.202646005898714">
        <ele>260.64999999999998</ele>
        <time>2025-05-02T13:18:15Z</time>
      </trkpt>
      <trkpt lat="41.499652024358511" lon="-7.202510973438621">
        <ele>260.17000000000002</ele>
        <time>2025-05-02T13:18:16Z</time>
      </trkpt>
      <trkpt lat="41.499549010768533" lon="-7.20237803645432">
        <ele>259.69</ele>
        <time>2025-05-02T13:18:17Z</time>
      </trkpt>
      <trkpt lat="41.499511040747166" lon="-7.202218025922775">
        <ele>259.20999999999998</ele>
        <time>2025-05-02T13:18:18Z</time>
      </trkpt>
      <trkpt lat="41.49947801604867" lon="-7.202071007341147">
        <ele>258.73000000000002</ele>
        <time>2025-05-02T13:18:19Z</time>
      </trkpt>
      <trkpt lat="41.499471981078386" lon="-7.201943015679717">
        <ele>258.25</ele>
        <time>2025-05-02T13:18:20Z</time>
      </trkpt>
      <trkpt lat="41.499510034918785" lon="-7.201797002926469">
        <ele>258.25</ele>
        <time>2025-05-02T13:18:21Z</time>
      </trkpt>
      <trkpt lat="41.499551022425294" lon="-7.201640009880066">
        <ele>258.25</ele>
        <time>2025-05-02T13:18:22Z</time>
      </trkpt>
      <trkpt lat="41.499610031023622" lon="-7.201324012130499">
        <ele>258.25</ele>
        <time>2025-05-02T13:18:24Z</time>
      </trkpt>
      <trkpt lat="41.499610031023622" lon="-7.201147992163897">
        <ele>258.73000000000002</ele>
        <time>2025-05-02T13:18:25Z</time>
      </trkpt>
      <trkpt lat="41.499573988839984" lon="-7.200988987460733">
        <ele>258.73000000000002</ele>
        <time>2025-05-02T13:18:26Z</time>
      </trkpt>
      <trkpt lat="41.499513974413276" lon="-7.200829982757568">
        <ele>258.73000000000002</ele>
        <time>2025-05-02T13:18:27Z</time>
      </trkpt>
      <trkpt lat="41.499438034370542" lon="-7.200700985267758">
        <ele>258.73000000000002</ele>
        <time>2025-05-02T13:18:28Z</time>
      </trkpt>
      <trkpt lat="41.499334014952183" lon="-7.200595960021019">
        <ele>258.73000000000002</ele>
        <time>2025-05-02T13:18:29Z</time>
      </trkpt>
      <trkpt lat="41.499219015240669" lon="-7.20050803385675">
        <ele>258.73000000000002</ele>
        <time>2025-05-02T13:18:30Z</time>
      </trkpt>
      <trkpt lat="41.499082976952195" lon="-7.200447013601661">
        <ele>258.73000000000002</ele>
        <time>2025-05-02T13:18:31Z</time>
      </trkpt>
      <trkpt lat="41.498939981684089" lon="-7.20038297586143">
        <ele>258.25</ele>
        <time>2025-05-02T13:18:32Z</time>
      </trkpt>
      <trkpt lat="41.498514013364911" lon="-7.20023101195693">
        <ele>256.81</ele>
        <time>2025-05-02T13:18:35Z</time>
      </trkpt>
      <trkpt lat="41.498406976461411" lon="-7.200213996693492">
        <ele>256.32999999999998</ele>
        <time>2025-05-02T13:18:36Z</time>
      </trkpt>
      <trkpt lat="41.498317960649729" lon="-7.200236963108182">
        <ele>255.84999999999999</ele>
        <time>2025-05-02T13:18:37Z</time>
      </trkpt>
      <trkpt lat="41.498239003121853" lon="-7.200287003070116">
        <ele>254.88999999999999</ele>
        <time>2025-05-02T13:18:38Z</time>
      </trkpt>
      <trkpt lat="41.498171025887132" lon="-7.200377024710178">
        <ele>254.41</ele>
        <time>2025-05-02T13:18:39Z</time>
      </trkpt>
      <trkpt lat="41.498124003410339" lon="-7.200503004714847">
        <ele>253.93000000000001</ele>
        <time>2025-05-02T13:18:40Z</time>
      </trkpt>
      <trkpt lat="41.498071029782295" lon="-7.200642982497811">
        <ele>252.96000000000001</ele>
        <time>2025-05-02T13:18:41Z</time>
      </trkpt>
      <trkpt lat="41.498014032840729" lon="-7.200797041878104">
        <ele>251.52000000000001</ele>
        <time>2025-05-02T13:18:42Z</time>
      </trkpt>
      <trkpt lat="41.497929040342569" lon="-7.200916986912489">
        <ele>250.56</ele>
        <time>2025-05-02T13:18:43Z</time>
      </trkpt>
      <trkpt lat="41.497828038409352" lon="-7.200974989682436">
        <ele>249.59999999999999</ele>
        <time>2025-05-02T13:18:44Z</time>
      </trkpt>
      <trkpt lat="41.497702980414033" lon="-7.201006002724171">
        <ele>249.12</ele>
        <time>2025-05-02T13:18:45Z</time>
      </trkpt>
      <trkpt lat="41.497569037601352" lon="-7.201040033251047">
        <ele>248.63999999999999</ele>
        <time>2025-05-02T13:18:46Z</time>
      </trkpt>
      <trkpt lat="41.49696403183043" lon="-7.201128965243697">
        <ele>245.27000000000001</ele>
        <time>2025-05-02T13:18:50Z</time>
      </trkpt>
      <trkpt lat="41.496819024905562" lon="-7.201109016314149">
        <ele>244.78999999999999</ele>
        <time>2025-05-02T13:18:51Z</time>
      </trkpt>
      <trkpt lat="41.496576033532619" lon="-7.201073979958892">
        <ele>243.34999999999999</ele>
        <time>2025-05-02T13:18:53Z</time>
      </trkpt>
      <trkpt lat="41.496482994407415" lon="-7.201109016314149">
        <ele>242.38999999999999</ele>
        <time>2025-05-02T13:18:54Z</time>
      </trkpt>
      <trkpt lat="41.496415017172694" lon="-7.201185962185264">
        <ele>241.91</ele>
        <time>2025-05-02T13:18:55Z</time>
      </trkpt>
      <trkpt lat="41.496361037716269" lon="-7.201275983825326">
        <ele>240.94999999999999</ele>
        <time>2025-05-02T13:18:56Z</time>
      </trkpt>
      <trkpt lat="41.496326001361012" lon="-7.201409004628658">
        <ele>240.47</ele>
        <time>2025-05-02T13:18:57Z</time>
      </trkpt>
      <trkpt lat="41.496287025511265" lon="-7.20156298018992">
        <ele>239.99000000000001</ele>
        <time>2025-05-02T13:18:58Z</time>
      </trkpt>
      <trkpt lat="41.496158028021455" lon="-7.202041000127792">
        <ele>238.53999999999999</ele>
        <time>2025-05-02T13:19:01Z</time>
      </trkpt>
      <trkpt lat="41.496109999716282" lon="-7.202174020931125">
        <ele>238.06</ele>
        <time>2025-05-02T13:19:02Z</time>
      </trkpt>
      <trkpt lat="41.496046967804432" lon="-7.202245015650988">
        <ele>237.09999999999999</ele>
        <time>2025-05-02T13:19:03Z</time>
      </trkpt>
      <trkpt lat="41.495944038033485" lon="-7.202290026471019">
        <ele>237.09999999999999</ele>
        <time>2025-05-02T13:19:04Z</time>
      </trkpt>
      <trkpt lat="41.495837001129985" lon="-7.202302012592554">
        <ele>236.62</ele>
        <time>2025-05-02T13:19:05Z</time>
      </trkpt>
      <trkpt lat="41.495714038610458" lon="-7.202283991500735">
        <ele>237.09999999999999</ele>
        <time>2025-05-02T13:19:06Z</time>
      </trkpt>
      <trkpt lat="41.495585041120648" lon="-7.202262030914426">
        <ele>237.09999999999999</ele>
        <time>2025-05-02T13:19:07Z</time>
      </trkpt>
      <trkpt lat="41.495471969246864" lon="-7.202205033972859">
        <ele>237.58000000000001</ele>
        <time>2025-05-02T13:19:08Z</time>
      </trkpt>
      <trkpt lat="41.495380019769073" lon="-7.202124986797571">
        <ele>238.06</ele>
        <time>2025-05-02T13:19:09Z</time>
      </trkpt>
      <trkpt lat="41.495301984250546" lon="-7.202027002349496">
        <ele>238.53999999999999</ele>
        <time>2025-05-02T13:19:10Z</time>
      </trkpt>
      <trkpt lat="41.495257979258895" lon="-7.201910996809602">
        <ele>239.02000000000001</ele>
        <time>2025-05-02T13:19:11Z</time>
      </trkpt>
      <trkpt lat="41.49526602588594" lon="-7.201774036511779">
        <ele>239.99000000000001</ele>
        <time>2025-05-02T13:19:12Z</time>
      </trkpt>
      <trkpt lat="41.495272982865572" lon="-7.201635986566544">
        <ele>240.47</ele>
        <time>2025-05-02T13:19:13Z</time>
      </trkpt>
      <trkpt lat="41.495281029492617" lon="-7.201502965763211">
        <ele>240.94999999999999</ele>
        <time>2025-05-02T13:19:14Z</time>
      </trkpt>
      <trkpt lat="41.495287986472249" lon="-7.201372962445021">
        <ele>241.91</ele>
        <time>2025-05-02T13:19:15Z</time>
      </trkpt>
      <trkpt lat="41.495295027270913" lon="-7.201252011582255">
        <ele>242.38999999999999</ele>
        <time>2025-05-02T13:19:16Z</time>
      </trkpt>
      <trkpt lat="41.495237024500966" lon="-7.201136006042361">
        <ele>243.34999999999999</ele>
        <time>2025-05-02T13:19:17Z</time>
      </trkpt>
      <trkpt lat="41.495178015902638" lon="-7.201056964695454">
        <ele>243.83000000000001</ele>
        <time>2025-05-02T13:19:18Z</time>
      </trkpt>
      <trkpt lat="41.49509503506124" lon="-7.201012037694454">
        <ele>244.31</ele>
        <time>2025-05-02T13:19:19Z</time>
      </trkpt>
      <trkpt lat="41.494990009814501" lon="-7.200965015217662">
        <ele>244.31</ele>
        <time>2025-05-02T13:19:20Z</time>
      </trkpt>
      <trkpt lat="41.494861012324691" lon="-7.200969960540533">
        <ele>244.78999999999999</ele>
        <time>2025-05-02T13:19:21Z</time>
      </trkpt>
      <trkpt lat="41.494718017056584" lon="-7.200983036309481">
        <ele>245.75</ele>
        <time>2025-05-02T13:19:22Z</time>
      </trkpt>
      <trkpt lat="41.49455901235342" lon="-7.200998039916158">
        <ele>246.22999999999999</ele>
        <time>2025-05-02T13:19:23Z</time>
      </trkpt>
      <trkpt lat="41.493200976401567" lon="-7.201112033799291">
        <ele>252.96000000000001</ele>
        <time>2025-05-02T13:19:31Z</time>
      </trkpt>
      <trkpt lat="41.493069967254996" lon="-7.201076997444034">
        <ele>253.93000000000001</ele>
        <time>2025-05-02T13:19:32Z</time>
      </trkpt>
      <trkpt lat="41.492945998907089" lon="-7.201028969138861">
        <ele>254.41</ele>
        <time>2025-05-02T13:19:33Z</time>
      </trkpt>
      <trkpt lat="41.492728991433978" lon="-7.200965015217662">
        <ele>255.84999999999999</ele>
        <time>2025-05-02T13:19:35Z</time>
      </trkpt>
      <trkpt lat="41.492641987279058" lon="-7.200979012995958">
        <ele>256.32999999999998</ele>
        <time>2025-05-02T13:19:36Z</time>
      </trkpt>
      <trkpt lat="41.492573004215956" lon="-7.201036009937525">
        <ele>256.81</ele>
        <time>2025-05-02T13:19:37Z</time>
      </trkpt>
      <trkpt lat="41.492464961484075" lon="-7.201129971072078">
        <ele>257.29000000000002</ele>
        <time>2025-05-02T13:19:38Z</time>
      </trkpt>
      <trkpt lat="41.492439983412623" lon="-7.20119995996356">
        <ele>257.29000000000002</ele>
        <time>2025-05-02T13:19:39Z</time>
      </trkpt>
      <trkpt lat="41.492400001734495" lon="-7.201312026008964">
        <ele>257.29000000000002</ele>
        <time>2025-05-02T13:19:40Z</time>
      </trkpt>
      <trkpt lat="41.492362031713128" lon="-7.201418979093432">
        <ele>257.29000000000002</ele>
        <time>2025-05-02T13:19:41Z</time>
      </trkpt>
      <trkpt lat="41.492311991751194" lon="-7.20149701461196">
        <ele>256.81</ele>
        <time>2025-05-02T13:19:42Z</time>
      </trkpt>
      <trkpt lat="41.492249965667725" lon="-7.201587036252022">
        <ele>256.32999999999998</ele>
        <time>2025-05-02T13:19:43Z</time>
      </trkpt>
      <trkpt lat="41.492189029231668" lon="-7.201674040406942">
        <ele>256.32999999999998</ele>
        <time>2025-05-02T13:19:44Z</time>
      </trkpt>
      <trkpt lat="41.492132032290101" lon="-7.20171301625669">
        <ele>255.84999999999999</ele>
        <time>2025-05-02T13:19:45Z</time>
      </trkpt>
      <trkpt lat="41.4920440223068" lon="-7.201722990721464">
        <ele>255.84999999999999</ele>
        <time>2025-05-02T13:19:46Z</time>
      </trkpt>
      <trkpt lat="41.491961041465402" lon="-7.201726008206606">
        <ele>255.84999999999999</ele>
        <time>2025-05-02T13:19:47Z</time>
      </trkpt>
      <trkpt lat="41.491865990683436" lon="-7.201677979901433">
        <ele>255.84999999999999</ele>
        <time>2025-05-02T13:19:48Z</time>
      </trkpt>
      <trkpt lat="41.491761971265078" lon="-7.20162701793015">
        <ele>255.84999999999999</ele>
        <time>2025-05-02T13:19:49Z</time>
      </trkpt>
      <trkpt lat="41.491655018180609" lon="-7.201550994068384">
        <ele>255.37</ele>
        <time>2025-05-02T13:19:50Z</time>
      </trkpt>
      <trkpt lat="41.490955967456102" lon="-7.200883040204644">
        <ele>251.03999999999999</ele>
        <time>2025-05-02T13:19:56Z</time>
      </trkpt>
      <trkpt lat="41.490861000493169" lon="-7.200731998309493">
        <ele>249.59999999999999</ele>
        <time>2025-05-02T13:19:57Z</time>
      </trkpt>
      <trkpt lat="41.490491023287177" lon="-7.200164962559938">
        <ele>245.75</ele>
        <time>2025-05-02T13:20:01Z</time>
      </trkpt>
      <trkpt lat="41.490407958626747" lon="-7.200117018073797">
        <ele>244.78999999999999</ele>
        <time>2025-05-02T13:20:02Z</time>
      </trkpt>
      <trkpt lat="41.490291031077504" lon="-7.200082987546921">
        <ele>243.83000000000001</ele>
        <time>2025-05-02T13:20:03Z</time>
      </trkpt>
      <trkpt lat="41.490174019709229" lon="-7.200092962011695">
        <ele>243.34999999999999</ele>
        <time>2025-05-02T13:20:04Z</time>
      </trkpt>
      <trkpt lat="41.490054996684194" lon="-7.200112994760275">
        <ele>242.87</ele>
        <time>2025-05-02T13:20:05Z</time>
      </trkpt>
      <trkpt lat="41.48993999697268" lon="-7.200164962559938">
        <ele>242.87</ele>
        <time>2025-05-02T13:20:06Z</time>
      </trkpt>
      <trkpt lat="41.489821979776025" lon="-7.200218020007014">
        <ele>242.87</ele>
        <time>2025-05-02T13:20:07Z</time>
      </trkpt>
      <trkpt lat="41.489439010620117" lon="-7.20037903636694">
        <ele>243.34999999999999</ele>
        <time>2025-05-02T13:20:10Z</time>
      </trkpt>
      <trkpt lat="41.48931797593832" lon="-7.200365960597992">
        <ele>243.34999999999999</ele>
        <time>2025-05-02T13:20:11Z</time>
      </trkpt>
      <trkpt lat="41.489198030903935" lon="-7.200352968648076">
        <ele>243.34999999999999</ele>
        <time>2025-05-02T13:20:12Z</time>
      </trkpt>
      <trkpt lat="41.489053023979068" lon="-7.200336959213018">
        <ele>243.34999999999999</ele>
        <time>2025-05-02T13:20:13Z</time>
      </trkpt>
      <trkpt lat="41.488959984853864" lon="-7.200305024161935">
        <ele>243.34999999999999</ele>
        <time>2025-05-02T13:20:14Z</time>
      </trkpt>
      <trkpt lat="41.488840039819479" lon="-7.200264036655426">
        <ele>243.34999999999999</ele>
        <time>2025-05-02T13:20:15Z</time>
      </trkpt>
      <trkpt lat="41.488717999309301" lon="-7.200221959501505">
        <ele>242.87</ele>
        <time>2025-05-02T13:20:16Z</time>
      </trkpt>
      <trkpt lat="41.487987013533711" lon="-7.199942003935576">
        <ele>240.47</ele>
        <time>2025-05-02T13:20:22Z</time>
      </trkpt>
      <trkpt lat="41.487889029085636" lon="-7.199878972023726">
        <ele>239.99000000000001</ele>
        <time>2025-05-02T13:20:23Z</time>
      </trkpt>
      <trkpt lat="41.487820968031883" lon="-7.199793979525566">
        <ele>239.99000000000001</ele>
        <time>2025-05-02T13:20:24Z</time>
      </trkpt>
      <trkpt lat="41.487800013273954" lon="-7.199666993692517">
        <ele>239.50999999999999</ele>
        <time>2025-05-02T13:20:25Z</time>
      </trkpt>
      <trkpt lat="41.487790960818529" lon="-7.19954595901072">
        <ele>239.02000000000001</ele>
        <time>2025-05-02T13:20:26Z</time>
      </trkpt>
      <trkpt lat="41.48781300522387" lon="-7.199448980391026">
        <ele>238.06</ele>
        <time>2025-05-02T13:20:27Z</time>
      </trkpt>
      <trkpt lat="41.487851981073618" lon="-7.19937102869153">
        <ele>237.58000000000001</ele>
        <time>2025-05-02T13:20:28Z</time>
      </trkpt>
      <trkpt lat="41.487924987450242" lon="-7.199297016486526">
        <ele>237.09999999999999</ele>
        <time>2025-05-02T13:20:29Z</time>
      </trkpt>
      <trkpt lat="41.488009979948401" lon="-7.199267009273171">
        <ele>236.62</ele>
        <time>2025-05-02T13:20:30Z</time>
      </trkpt>
      <trkpt lat="41.488108970224857" lon="-7.19924203120172">
        <ele>236.62</ele>
        <time>2025-05-02T13:20:31Z</time>
      </trkpt>
      <trkpt lat="41.48822195827961" lon="-7.199262985959649">
        <ele>236.62</ele>
        <time>2025-05-02T13:20:32Z</time>
      </trkpt>
      <trkpt lat="41.488350033760071" lon="-7.19928695820272">
        <ele>236.13999999999999</ele>
        <time>2025-05-02T13:20:33Z</time>
      </trkpt>
      <trkpt lat="41.489229965955019" lon="-7.199361976236105">
        <ele>235.18000000000001</ele>
        <time>2025-05-02T13:20:40Z</time>
      </trkpt>
      <trkpt lat="41.489312024787068" lon="-7.199311014264822">
        <ele>234.69999999999999</ele>
        <time>2025-05-02T13:20:41Z</time>
      </trkpt>
      <trkpt lat="41.489369021728635" lon="-7.19924496486783">
        <ele>234.22</ele>
        <time>2025-05-02T13:20:42Z</time>
      </trkpt>
      <trkpt lat="41.48940397426486" lon="-7.199152009561658">
        <ele>233.74000000000001</ele>
        <time>2025-05-02T13:20:43Z</time>
      </trkpt>
      <trkpt lat="41.489406991750002" lon="-7.199052013456821">
        <ele>233.74000000000001</ele>
        <time>2025-05-02T13:20:44Z</time>
      </trkpt>
      <trkpt lat="41.489384025335312" lon="-7.198927961289883">
        <ele>233.74000000000001</ele>
        <time>2025-05-02T13:20:45Z</time>
      </trkpt>
      <trkpt lat="41.489345971494913" lon="-7.198804998770356">
        <ele>233.25999999999999</ele>
        <time>2025-05-02T13:20:46Z</time>
      </trkpt>
      <trkpt lat="41.48929400369525" lon="-7.198671977967024">
        <ele>233.74000000000001</ele>
        <time>2025-05-02T13:20:47Z</time>
      </trkpt>
      <trkpt lat="41.489007007330656" lon="-7.197928000241518">
        <ele>235.18000000000001</ele>
        <time>2025-05-02T13:20:52Z</time>
      </trkpt>
      <trkpt lat="41.488983035087585" lon="-7.197756003588438">
        <ele>236.13999999999999</ele>
        <time>2025-05-02T13:20:53Z</time>
      </trkpt>
      <trkpt lat="41.488958979025483" lon="-7.197581995278597">
        <ele>236.62</ele>
        <time>2025-05-02T13:20:54Z</time>
      </trkpt>
      <trkpt lat="41.488936012610793" lon="-7.197414021939039">
        <ele>237.09999999999999</ele>
        <time>2025-05-02T13:20:55Z</time>
      </trkpt>
      <trkpt lat="41.488936012610793" lon="-7.197259040549398">
        <ele>238.06</ele>
        <time>2025-05-02T13:20:56Z</time>
      </trkpt>
      <trkpt lat="41.488956967368722" lon="-7.197118978947401">
        <ele>239.02000000000001</ele>
        <time>2025-05-02T13:20:57Z</time>
      </trkpt>
      <trkpt lat="41.48899300955236" lon="-7.196996016427875">
        <ele>239.99000000000001</ele>
        <time>2025-05-02T13:20:58Z</time>
      </trkpt>
      <trkpt lat="41.489046989008784" lon="-7.196871964260936">
        <ele>240.94999999999999</ele>
        <time>2025-05-02T13:20:59Z</time>
      </trkpt>
      <trkpt lat="41.48910298012197" lon="-7.196743972599506">
        <ele>241.43000000000001</ele>
        <time>2025-05-02T13:21:00Z</time>
      </trkpt>
      <trkpt lat="41.489161988720298" lon="-7.196612041443586">
        <ele>242.38999999999999</ele>
        <time>2025-05-02T13:21:01Z</time>
      </trkpt>
      <trkpt lat="41.489212028682232" lon="-7.196470974013209">
        <ele>243.34999999999999</ele>
        <time>2025-05-02T13:21:02Z</time>
      </trkpt>
      <trkpt lat="41.489241030067205" lon="-7.196318004280329">
        <ele>243.83000000000001</ele>
        <time>2025-05-02T13:21:03Z</time>
      </trkpt>
      <trkpt lat="41.489271959289908" lon="-7.196157993748784">
        <ele>244.31</ele>
        <time>2025-05-02T13:21:04Z</time>
      </trkpt>
      <trkpt lat="41.489277994260192" lon="-7.195993959903717">
        <ele>244.78999999999999</ele>
        <time>2025-05-02T13:21:05Z</time>
      </trkpt>
      <trkpt lat="41.489254022017121" lon="-7.195832021534443">
        <ele>245.75</ele>
        <time>2025-05-02T13:21:06Z</time>
      </trkpt>
      <trkpt lat="41.4892309717834" lon="-7.195676034316421">
        <ele>246.72</ele>
        <time>2025-05-02T13:21:07Z</time>
      </trkpt>
      <trkpt lat="41.489167017862201" lon="-7.195538990199566">
        <ele>247.68000000000001</ele>
        <time>2025-05-02T13:21:08Z</time>
      </trkpt>
      <trkpt lat="41.489095017313957" lon="-7.19541703350842">
        <ele>248.63999999999999</ele>
        <time>2025-05-02T13:21:09Z</time>
      </trkpt>
      <trkpt lat="41.489029973745346" lon="-7.195305973291397">
        <ele>249.59999999999999</ele>
        <time>2025-05-02T13:21:10Z</time>
      </trkpt>
      <trkpt lat="41.48892997764051" lon="-7.195244031026959">
        <ele>250.56</ele>
        <time>2025-05-02T13:21:11Z</time>
      </trkpt>
      <trkpt lat="41.488835010677576" lon="-7.195211006328464">
        <ele>251.52000000000001</ele>
        <time>2025-05-02T13:21:12Z</time>
      </trkpt>
      <trkpt lat="41.488737026229501" lon="-7.195176975801587">
        <ele>252</ele>
        <time>2025-05-02T13:21:13Z</time>
      </trkpt>
      <trkpt lat="41.488633006811142" lon="-7.195141017436981">
        <ele>252.96000000000001</ele>
        <time>2025-05-02T13:21:14Z</time>
      </trkpt>
      <trkpt lat="41.488548014312983" lon="-7.195086032152176">
        <ele>253.44</ele>
        <time>2025-05-02T13:21:15Z</time>
      </trkpt>
      <trkpt lat="41.488463021814823" lon="-7.194995004683733">
        <ele>253.93000000000001</ele>
        <time>2025-05-02T13:21:16Z</time>
      </trkpt>
      <trkpt lat="41.488384986296296" lon="-7.194910012185574">
        <ele>254.41</ele>
        <time>2025-05-02T13:21:17Z</time>
      </trkpt>
      <trkpt lat="41.488317009061575" lon="-7.194835999980569">
        <ele>254.88999999999999</ele>
        <time>2025-05-02T13:21:18Z</time>
      </trkpt>
      <trkpt lat="41.488253977149725" lon="-7.194766011089087">
        <ele>255.84999999999999</ele>
        <time>2025-05-02T13:21:19Z</time>
      </trkpt>
      <trkpt lat="41.488189017400146" lon="-7.194694010540843">
        <ele>255.84999999999999</ele>
        <time>2025-05-02T13:21:20Z</time>
      </trkpt>
      <trkpt lat="41.488115005195141" lon="-7.1946220099926">
        <ele>256.32999999999998</ele>
        <time>2025-05-02T13:21:21Z</time>
      </trkpt>
      <trkpt lat="41.488031018525362" lon="-7.194585967808962">
        <ele>256.32999999999998</ele>
        <time>2025-05-02T13:21:22Z</time>
      </trkpt>
      <trkpt lat="41.4879409968853" lon="-7.194573981687427">
        <ele>256.81</ele>
        <time>2025-05-02T13:21:23Z</time>
      </trkpt>
      <trkpt lat="41.487857010215521" lon="-7.194595020264387">
        <ele>256.81</ele>
        <time>2025-05-02T13:21:24Z</time>
      </trkpt>
      <trkpt lat="41.487778974696994" lon="-7.194614969193935">
        <ele>257.29000000000002</ele>
        <time>2025-05-02T13:21:25Z</time>
      </trkpt>
      <trkpt lat="41.487694988027215" lon="-7.19470901414752">
        <ele>257.29000000000002</ele>
        <time>2025-05-02T13:21:26Z</time>
      </trkpt>
      <trkpt lat="41.48766003549099" lon="-7.194812027737498">
        <ele>257.29000000000002</ele>
        <time>2025-05-02T13:21:27Z</time>
      </trkpt>
      <trkpt lat="41.487624999135733" lon="-7.194913029670715">
        <ele>257.76999999999998</ele>
        <time>2025-05-02T13:21:28Z</time>
      </trkpt>
      <trkpt lat="41.487592980265617" lon="-7.19500900246203">
        <ele>257.76999999999998</ele>
        <time>2025-05-02T13:21:29Z</time>
      </trkpt>
      <trkpt lat="41.487530032172799" lon="-7.195191979408264">
        <ele>258.25</ele>
        <time>2025-05-02T13:21:31Z</time>
      </trkpt>
      <trkpt lat="41.487464988604188" lon="-7.195379985496402">
        <ele>257.29000000000002</ele>
        <time>2025-05-02T13:21:33Z</time>
      </trkpt>
      <trkpt lat="41.487411009147763" lon="-7.195453997701407">
        <ele>256.81</ele>
        <time>2025-05-02T13:21:34Z</time>
      </trkpt>
      <trkpt lat="41.487349988892674" lon="-7.195537984371185">
        <ele>256.32999999999998</ele>
        <time>2025-05-02T13:21:35Z</time>
      </trkpt>
      <trkpt lat="41.487293997779489" lon="-7.195616019889712">
        <ele>256.32999999999998</ele>
        <time>2025-05-02T13:21:36Z</time>
      </trkpt>
      <trkpt lat="41.487223003059626" lon="-7.195628006011248">
        <ele>255.84999999999999</ele>
        <time>2025-05-02T13:21:37Z</time>
      </trkpt>
      <trkpt lat="41.487140022218227" lon="-7.195640997961164">
        <ele>255.84999999999999</ele>
        <time>2025-05-02T13:21:38Z</time>
      </trkpt>
      <trkpt lat="41.487057963386178" lon="-7.19565499573946">
        <ele>255.84999999999999</ele>
        <time>2025-05-02T13:21:39Z</time>
      </trkpt>
      <trkpt lat="41.486884038895369" lon="-7.195617025718093">
        <ele>255.84999999999999</ele>
        <time>2025-05-02T13:21:41Z</time>
      </trkpt>
      <trkpt lat="41.486799968406558" lon="-7.195593975484371">
        <ele>256.32999999999998</ele>
        <time>2025-05-02T13:21:42Z</time>
      </trkpt>
      <trkpt lat="41.486735008656979" lon="-7.195495991036296">
        <ele>256.32999999999998</ele>
        <time>2025-05-02T13:21:43Z</time>
      </trkpt>
      <trkpt lat="41.48667499423027" lon="-7.195406975224614">
        <ele>255.84999999999999</ele>
        <time>2025-05-02T13:21:44Z</time>
      </trkpt>
      <trkpt lat="41.486656973138452" lon="-7.195297004655004">
        <ele>255.84999999999999</ele>
        <time>2025-05-02T13:21:45Z</time>
      </trkpt>
      <trkpt lat="41.486640041694045" lon="-7.19518200494349">
        <ele>255.84999999999999</ele>
        <time>2025-05-02T13:21:46Z</time>
      </trkpt>
      <trkpt lat="41.486628977581859" lon="-7.195062981918454">
        <ele>255.84999999999999</ele>
        <time>2025-05-02T13:21:47Z</time>
      </trkpt>
      <trkpt lat="41.486628977581859" lon="-7.19494597055018">
        <ele>255.37</ele>
        <time>2025-05-02T13:21:48Z</time>
      </trkpt>
      <trkpt lat="41.486628977581859" lon="-7.194865001365542">
        <ele>254.88999999999999</ele>
        <time>2025-05-02T13:21:49Z</time>
      </trkpt>
      <trkpt lat="41.486555971205235" lon="-7.194732986390591">
        <ele>254.88999999999999</ele>
        <time>2025-05-02T13:21:50Z</time>
      </trkpt>
      <trkpt lat="41.486496962606907" lon="-7.194650005549192">
        <ele>254.88999999999999</ele>
        <time>2025-05-02T13:21:51Z</time>
      </trkpt>
      <trkpt lat="41.48641699925065" lon="-7.19458001665771">
        <ele>254.41</ele>
        <time>2025-05-02T13:21:52Z</time>
      </trkpt>
      <trkpt lat="41.486113993450999" lon="-7.194285979494453">
        <ele>253.44</ele>
        <time>2025-05-02T13:21:56Z</time>
      </trkpt>
      <trkpt lat="41.486061019822955" lon="-7.194206016138196">
        <ele>252.47999999999999</ele>
        <time>2025-05-02T13:21:57Z</time>
      </trkpt>
      <trkpt lat="41.486027995124459" lon="-7.194098979234695">
        <ele>252</ele>
        <time>2025-05-02T13:21:58Z</time>
      </trkpt>
      <trkpt lat="41.486027995124459" lon="-7.193979034200311">
        <ele>251.52000000000001</ele>
        <time>2025-05-02T13:21:59Z</time>
      </trkpt>
      <trkpt lat="41.486050961539149" lon="-7.193852970376611">
        <ele>251.03999999999999</ele>
        <time>2025-05-02T13:22:00Z</time>
      </trkpt>
      <trkpt lat="41.486085997894406" lon="-7.193721039220691">
        <ele>250.56</ele>
        <time>2025-05-02T13:22:01Z</time>
      </trkpt>
      <trkpt lat="41.486122040078044" lon="-7.193582989275456">
        <ele>250.08000000000001</ele>
        <time>2025-05-02T13:22:02Z</time>
      </trkpt>
      <trkpt lat="41.486145006492734" lon="-7.193447034806013">
        <ele>249.12</ele>
        <time>2025-05-02T13:22:03Z</time>
      </trkpt>
      <trkpt lat="41.486161015927792" lon="-7.1933130081743">
        <ele>248.16</ele>
        <time>2025-05-02T13:22:04Z</time>
      </trkpt>
      <trkpt lat="41.48617803119123" lon="-7.193170012906194">
        <ele>247.19999999999999</ele>
        <time>2025-05-02T13:22:05Z</time>
      </trkpt>
      <trkpt lat="41.486163027584553" lon="-7.193030035123229">
        <ele>245.75</ele>
        <time>2025-05-02T13:22:06Z</time>
      </trkpt>
      <trkpt lat="41.486148023977876" lon="-7.192888967692852">
        <ele>244.78999999999999</ele>
        <time>2025-05-02T13:22:07Z</time>
      </trkpt>
      <trkpt lat="41.485988013446331" lon="-7.192000988870859">
        <ele>239.50999999999999</ele>
        <time>2025-05-02T13:22:14Z</time>
      </trkpt>
      <trkpt lat="41.485940990969539" lon="-7.191912978887558">
        <ele>238.53999999999999</ele>
        <time>2025-05-02T13:22:15Z</time>
      </trkpt>
      <trkpt lat="41.485898997634649" lon="-7.191838966682553">
        <ele>238.06</ele>
        <time>2025-05-02T13:22:16Z</time>
      </trkpt>
      <trkpt lat="41.485816016793251" lon="-7.191813988611102">
        <ele>237.58000000000001</ele>
        <time>2025-05-02T13:22:17Z</time>
      </trkpt>
      <trkpt lat="41.485735969617963" lon="-7.191789010539651">
        <ele>237.09999999999999</ele>
        <time>2025-05-02T13:22:18Z</time>
      </trkpt>
      <trkpt lat="41.485619964078069" lon="-7.191752968356013">
        <ele>236.62</ele>
        <time>2025-05-02T13:22:19Z</time>
      </trkpt>
      <trkpt lat="41.485587023198605" lon="-7.1917640324682">
        <ele>235.66</ele>
        <time>2025-05-02T13:22:20Z</time>
      </trkpt>
      <trkpt lat="41.485518962144852" lon="-7.191784987226129">
        <ele>234.69999999999999</ele>
        <time>2025-05-02T13:22:21Z</time>
      </trkpt>
      <trkpt lat="41.485437992960215" lon="-7.191808959469199">
        <ele>234.22</ele>
        <time>2025-05-02T13:22:22Z</time>
      </trkpt>
      <trkpt lat="41.48534101434052" lon="-7.191838966682553">
        <ele>233.25999999999999</ele>
        <time>2025-05-02T13:22:23Z</time>
      </trkpt>
      <trkpt lat="41.485086036846042" lon="-7.191838966682553">
        <ele>230.37</ele>
        <time>2025-05-02T13:22:26Z</time>
      </trkpt>
      <trkpt lat="41.485001966357231" lon="-7.191838966682553">
        <ele>229.88999999999999</ele>
        <time>2025-05-02T13:22:27Z</time>
      </trkpt>
      <trkpt lat="41.484925020486116" lon="-7.191838966682553">
        <ele>228.93000000000001</ele>
        <time>2025-05-02T13:22:28Z</time>
      </trkpt>
      <trkpt lat="41.48463299497962" lon="-7.191752968356013">
        <ele>226.53</ele>
        <time>2025-05-02T13:22:32Z</time>
      </trkpt>
      <trkpt lat="41.484523024410009" lon="-7.191752968356013">
        <ele>225.56999999999999</ele>
        <time>2025-05-02T13:22:34Z</time>
      </trkpt>
      <trkpt lat="41.484441971406341" lon="-7.191752968356013">
        <ele>225.09</ele>
        <time>2025-05-02T13:22:35Z</time>
      </trkpt>
      <trkpt lat="41.484362008050084" lon="-7.191752968356013">
        <ele>225.09</ele>
        <time>2025-05-02T13:22:36Z</time>
      </trkpt>
      <trkpt lat="41.484204009175301" lon="-7.191752968356013">
        <ele>225.09</ele>
        <time>2025-05-02T13:22:37Z</time>
      </trkpt>
      <trkpt lat="41.484145000576973" lon="-7.191817006096244">
        <ele>225.09</ele>
        <time>2025-05-02T13:22:38Z</time>
      </trkpt>
      <trkpt lat="41.483640996739268" lon="-7.192423017695546">
        <ele>227.97</ele>
        <time>2025-05-02T13:22:47Z</time>
      </trkpt>
      <trkpt lat="41.483522979542613" lon="-7.192681012675166">
        <ele>229.88999999999999</ele>
        <time>2025-05-02T13:22:50Z</time>
      </trkpt>
      <trkpt lat="41.483467994257808" lon="-7.192832976579666">
        <ele>230.37</ele>
        <time>2025-05-02T13:22:52Z</time>
      </trkpt>
      <trkpt lat="41.48338601924479" lon="-7.193059958517551">
        <ele>231.81</ele>
        <time>2025-05-02T13:22:55Z</time>
      </trkpt>
      <trkpt lat="41.483315024524927" lon="-7.193867973983288">
        <ele>235.66</ele>
        <time>2025-05-02T13:23:02Z</time>
      </trkpt>
      <trkpt lat="41.483347965404391" lon="-7.19402396120131">
        <ele>236.13999999999999</ele>
        <time>2025-05-02T13:23:03Z</time>
      </trkpt>
      <trkpt lat="41.483395993709564" lon="-7.1941920183599">
        <ele>237.09999999999999</ele>
        <time>2025-05-02T13:23:04Z</time>
      </trkpt>
      <trkpt lat="41.483860015869141" lon="-7.195485010743141">
        <ele>243.83000000000001</ele>
        <time>2025-05-02T13:23:13Z</time>
      </trkpt>
      <trkpt lat="41.48435496725142" lon="-7.196810021996498">
        <ele>250.08000000000001</ele>
        <time>2025-05-02T13:23:23Z</time>
      </trkpt>
      <trkpt lat="41.484539033845067" lon="-7.19754402525723">
        <ele>253.93000000000001</ele>
        <time>2025-05-02T13:23:28Z</time>
      </trkpt>
      <trkpt lat="41.484529981389642" lon="-7.197675034403801">
        <ele>254.88999999999999</ele>
        <time>2025-05-02T13:23:29Z</time>
      </trkpt>
      <trkpt lat="41.48450399748981" lon="-7.19780595973134">
        <ele>255.37</ele>
        <time>2025-05-02T13:23:30Z</time>
      </trkpt>
      <trkpt lat="41.484457980841398" lon="-7.197935041040182">
        <ele>256.32999999999998</ele>
        <time>2025-05-02T13:23:31Z</time>
      </trkpt>
      <trkpt lat="41.484396960586309" lon="-7.198105026036501">
        <ele>256.81</ele>
        <time>2025-05-02T13:23:32Z</time>
      </trkpt>
      <trkpt lat="41.484152963384986" lon="-7.198583967983723">
        <ele>260.17000000000002</ele>
        <time>2025-05-02T13:23:36Z</time>
      </trkpt>
      <trkpt lat="41.484075011685491" lon="-7.1987060084939">
        <ele>260.64999999999998</ele>
        <time>2025-05-02T13:23:37Z</time>
      </trkpt>
      <trkpt lat="41.483976021409035" lon="-7.198759987950325">
        <ele>261.13999999999999</ele>
        <time>2025-05-02T13:23:38Z</time>
      </trkpt>
      <trkpt lat="41.483861021697521" lon="-7.198822014033794">
        <ele>262.10000000000002</ele>
        <time>2025-05-02T13:23:39Z</time>
      </trkpt>
      <trkpt lat="41.483743004500866" lon="-7.198886973783374">
        <ele>262.57999999999998</ele>
        <time>2025-05-02T13:23:40Z</time>
      </trkpt>
      <trkpt lat="41.48362398147583" lon="-7.198952017351985">
        <ele>263.54000000000002</ele>
        <time>2025-05-02T13:23:41Z</time>
      </trkpt>
      <trkpt lat="41.483519040048122" lon="-7.199056036770344">
        <ele>264.01999999999998</ele>
        <time>2025-05-02T13:23:42Z</time>
      </trkpt>
      <trkpt lat="41.483418960124254" lon="-7.199165001511574">
        <ele>264.01999999999998</ele>
        <time>2025-05-02T13:23:43Z</time>
      </trkpt>
      <trkpt lat="41.483331033959985" lon="-7.199295004829764">
        <ele>264.98000000000002</ele>
        <time>2025-05-02T13:23:44Z</time>
      </trkpt>
      <trkpt lat="41.483249980956316" lon="-7.199430037289858">
        <ele>264.98000000000002</ele>
        <time>2025-05-02T13:23:45Z</time>
      </trkpt>
      <trkpt lat="41.483179992064834" lon="-7.199584012851119">
        <ele>265.45999999999998</ele>
        <time>2025-05-02T13:23:46Z</time>
      </trkpt>
      <trkpt lat="41.483142022043467" lon="-7.199738994240761">
        <ele>265.94</ele>
        <time>2025-05-02T13:23:47Z</time>
      </trkpt>
      <trkpt lat="41.483104974031448" lon="-7.199890958145261">
        <ele>266.42000000000002</ele>
        <time>2025-05-02T13:23:48Z</time>
      </trkpt>
      <trkpt lat="41.483071027323604" lon="-7.200032025575638">
        <ele>266.89999999999998</ele>
        <time>2025-05-02T13:23:49Z</time>
      </trkpt>
      <trkpt lat="41.483036996796727" lon="-7.200170997530222">
        <ele>267.86000000000001</ele>
        <time>2025-05-02T13:23:50Z</time>
      </trkpt>
      <trkpt lat="41.48300196044147" lon="-7.200314998626709">
        <ele>268.35000000000002</ele>
        <time>2025-05-02T13:23:51Z</time>
      </trkpt>
      <trkpt lat="41.482921997085214" lon="-7.200419018045068">
        <ele>269.31</ele>
        <time>2025-05-02T13:23:52Z</time>
      </trkpt>
      <trkpt lat="41.482833987101912" lon="-7.200513985008001">
        <ele>269.79000000000002</ele>
        <time>2025-05-02T13:23:53Z</time>
      </trkpt>
      <trkpt lat="41.48272099904716" lon="-7.2005520388484">
        <ele>270.75</ele>
        <time>2025-05-02T13:23:54Z</time>
      </trkpt>
      <trkpt lat="41.482594013214111" lon="-7.20059403218329">
        <ele>271.70999999999998</ele>
        <time>2025-05-02T13:23:55Z</time>
      </trkpt>
      <trkpt lat="41.482469961047173" lon="-7.200610963627696">
        <ele>272.19</ele>
        <time>2025-05-02T13:23:56Z</time>
      </trkpt>
      <trkpt lat="41.481793038547039" lon="-7.20072403550148">
        <ele>276.04000000000002</ele>
        <time>2025-05-02T13:24:01Z</time>
      </trkpt>
      <trkpt lat="41.481675021350384" lon="-7.20081296749413">
        <ele>277</ele>
        <time>2025-05-02T13:24:02Z</time>
      </trkpt>
      <trkpt lat="41.481558009982109" lon="-7.200902989134193">
        <ele>277.48000000000002</ele>
        <time>2025-05-02T13:24:03Z</time>
      </trkpt>
      <trkpt lat="41.481440998613834" lon="-7.200992004945874">
        <ele>278.92000000000002</ele>
        <time>2025-05-02T13:24:04Z</time>
      </trkpt>
      <trkpt lat="41.481321975588799" lon="-7.201057970523834">
        <ele>279.88</ele>
        <time>2025-05-02T13:24:05Z</time>
      </trkpt>
      <trkpt lat="41.481199013069272" lon="-7.201092001050711">
        <ele>280.83999999999997</ele>
        <time>2025-05-02T13:24:06Z</time>
      </trkpt>
      <trkpt lat="41.481082001700997" lon="-7.201076997444034">
        <ele>281.80000000000001</ele>
        <time>2025-05-02T13:24:07Z</time>
      </trkpt>
      <trkpt lat="41.480973036959767" lon="-7.201012037694454">
        <ele>282.76999999999998</ele>
        <time>2025-05-02T13:24:08Z</time>
      </trkpt>
      <trkpt lat="41.480857031419873" lon="-7.20094196498394">
        <ele>284.20999999999998</ele>
        <time>2025-05-02T13:24:09Z</time>
      </trkpt>
      <trkpt lat="41.480623008683324" lon="-7.200801987200975">
        <ele>286.61000000000001</ele>
        <time>2025-05-02T13:24:11Z</time>
      </trkpt>
      <trkpt lat="41.480485964566469" lon="-7.200797963887453">
        <ele>287.56999999999999</ele>
        <time>2025-05-02T13:24:12Z</time>
      </trkpt>
      <trkpt lat="41.480355961248279" lon="-7.200811039656401">
        <ele>288.52999999999997</ele>
        <time>2025-05-02T13:24:13Z</time>
      </trkpt>
      <trkpt lat="41.480224030092359" lon="-7.200825037434697">
        <ele>289.49000000000001</ele>
        <time>2025-05-02T13:24:14Z</time>
      </trkpt>
      <trkpt lat="41.480091009289026" lon="-7.2008749935776">
        <ele>290.45999999999998</ele>
        <time>2025-05-02T13:24:15Z</time>
      </trkpt>
      <trkpt lat="41.479976009577513" lon="-7.200958980247378">
        <ele>290.94</ele>
        <time>2025-05-02T13:24:16Z</time>
      </trkpt>
      <trkpt lat="41.479897974058986" lon="-7.201096024364233">
        <ele>291.89999999999998</ele>
        <time>2025-05-02T13:24:17Z</time>
      </trkpt>
      <trkpt lat="41.479866961017251" lon="-7.201247988268733">
        <ele>292.38</ele>
        <time>2025-05-02T13:24:18Z</time>
      </trkpt>
      <trkpt lat="41.479835025966167" lon="-7.20141101628542">
        <ele>292.86000000000001</ele>
        <time>2025-05-02T13:24:19Z</time>
      </trkpt>
      <trkpt lat="41.479800995439291" lon="-7.201577983796597">
        <ele>293.33999999999997</ele>
        <time>2025-05-02T13:24:20Z</time>
      </trkpt>
      <trkpt lat="41.47975699044764" lon="-7.201746040955186">
        <ele>293.81999999999999</ele>
        <time>2025-05-02T13:24:21Z</time>
      </trkpt>
      <trkpt lat="41.479683984071016" lon="-7.201902028173208">
        <ele>294.77999999999997</ele>
        <time>2025-05-02T13:24:22Z</time>
      </trkpt>
      <trkpt lat="41.479578036814928" lon="-7.202003030106425">
        <ele>295.25999999999999</ele>
        <time>2025-05-02T13:24:23Z</time>
      </trkpt>
      <trkpt lat="41.479457002133131" lon="-7.202053992077708">
        <ele>296.22000000000003</ele>
        <time>2025-05-02T13:24:24Z</time>
      </trkpt>
      <trkpt lat="41.479334039613605" lon="-7.202105959877372">
        <ele>297.18000000000001</ele>
        <time>2025-05-02T13:24:25Z</time>
      </trkpt>
      <trkpt lat="41.479208981618285" lon="-7.202158011496067">
        <ele>298.14999999999998</ele>
        <time>2025-05-02T13:24:26Z</time>
      </trkpt>
      <trkpt lat="41.47908803075552" lon="-7.202226994559169">
        <ele>298.63</ele>
        <time>2025-05-02T13:24:27Z</time>
      </trkpt>
      <trkpt lat="41.478971019387245" lon="-7.202293965965509">
        <ele>299.58999999999997</ele>
        <time>2025-05-02T13:24:28Z</time>
      </trkpt>
      <trkpt lat="41.478868005797267" lon="-7.202403014525771">
        <ele>300.06999999999999</ele>
        <time>2025-05-02T13:24:29Z</time>
      </trkpt>
      <trkpt lat="41.478797011077404" lon="-7.202545003965497">
        <ele>301.02999999999997</ele>
        <time>2025-05-02T13:24:30Z</time>
      </trkpt>
      <trkpt lat="41.478734984993935" lon="-7.202709037810564">
        <ele>301.50999999999999</ele>
        <time>2025-05-02T13:24:31Z</time>
      </trkpt>
      <trkpt lat="41.478690980002284" lon="-7.202881034463644">
        <ele>301.99000000000001</ele>
        <time>2025-05-02T13:24:32Z</time>
      </trkpt>
      <trkpt lat="41.478604981675744" lon="-7.203225027769804">
        <ele>303.43000000000001</ele>
        <time>2025-05-02T13:24:34Z</time>
      </trkpt>
      <trkpt lat="41.478621996939182" lon="-7.203416973352432">
        <ele>303.43000000000001</ele>
        <time>2025-05-02T13:24:35Z</time>
      </trkpt>
      <trkpt lat="41.478662984445691" lon="-7.203586958348751">
        <ele>303.91000000000003</ele>
        <time>2025-05-02T13:24:36Z</time>
      </trkpt>
      <trkpt lat="41.479034973308444" lon="-7.204702002927661">
        <ele>308.24000000000001</ele>
        <time>2025-05-02T13:24:43Z</time>
      </trkpt>
      <trkpt lat="41.479628998786211" lon="-7.206391040235758">
        <ele>314.97000000000003</ele>
        <time>2025-05-02T13:24:54Z</time>
      </trkpt>
      <trkpt lat="41.479936027899384" lon="-7.20736401155591">
        <ele>318.32999999999998</ele>
        <time>2025-05-02T13:24:59Z</time>
      </trkpt>
      <trkpt lat="41.479973997920752" lon="-7.207584958523512">
        <ele>319.30000000000001</ele>
        <time>2025-05-02T13:25:00Z</time>
      </trkpt>
      <trkpt lat="41.480020014569163" lon="-7.207846976816654">
        <ele>320.25999999999999</ele>
        <time>2025-05-02T13:25:01Z</time>
      </trkpt>
      <trkpt lat="41.480020014569163" lon="-7.208038000389934">
        <ele>321.69999999999999</ele>
        <time>2025-05-02T13:25:02Z</time>
      </trkpt>
      <trkpt lat="41.480020014569163" lon="-7.208270011469722">
        <ele>322.66000000000003</ele>
        <time>2025-05-02T13:25:03Z</time>
      </trkpt>
      <trkpt lat="41.479996964335442" lon="-7.208503028377891">
        <ele>324.10000000000002</ele>
        <time>2025-05-02T13:25:04Z</time>
      </trkpt>
      <trkpt lat="41.479939967393875" lon="-7.209214987233281">
        <ele>326.99000000000001</ele>
        <time>2025-05-02T13:25:07Z</time>
      </trkpt>
      <trkpt lat="41.47994801402092" lon="-7.209454961121082">
        <ele>327.94999999999999</ele>
        <time>2025-05-02T13:25:08Z</time>
      </trkpt>
      <trkpt lat="41.479966035112739" lon="-7.209693007171154">
        <ele>328.91000000000003</ele>
        <time>2025-05-02T13:25:09Z</time>
      </trkpt>
      <trkpt lat="41.480024037882686" lon="-7.209923006594181">
        <ele>330.35000000000002</ele>
        <time>2025-05-02T13:25:10Z</time>
      </trkpt>
      <trkpt lat="41.480083968490362" lon="-7.210163986310363">
        <ele>331.79000000000002</ele>
        <time>2025-05-02T13:25:11Z</time>
      </trkpt>
      <trkpt lat="41.480194022879004" lon="-7.210354004055262">
        <ele>332.75</ele>
        <time>2025-05-02T13:25:12Z</time>
      </trkpt>
      <trkpt lat="41.480300975963473" lon="-7.210538992658258">
        <ele>333.70999999999998</ele>
        <time>2025-05-02T13:25:13Z</time>
      </trkpt>
      <trkpt lat="41.48040197789669" lon="-7.210713000968099">
        <ele>334.68000000000001</ele>
        <time>2025-05-02T13:25:14Z</time>
      </trkpt>
      <trkpt lat="41.480493005365133" lon="-7.210869994014502">
        <ele>335.63999999999999</ele>
        <time>2025-05-02T13:25:15Z</time>
      </trkpt>
      <trkpt lat="41.480566011741757" lon="-7.211024975404143">
        <ele>336.60000000000002</ele>
        <time>2025-05-02T13:25:16Z</time>
      </trkpt>
      <trkpt lat="41.480600964277983" lon="-7.211190015077591">
        <ele>337.56</ele>
        <time>2025-05-02T13:25:17Z</time>
      </trkpt>
      <trkpt lat="41.480602975934744" lon="-7.211366035044193">
        <ele>338.04000000000002</ele>
        <time>2025-05-02T13:25:18Z</time>
      </trkpt>
      <trkpt lat="41.48057003505528" lon="-7.211534008383751">
        <ele>338.51999999999998</ele>
        <time>2025-05-02T13:25:19Z</time>
      </trkpt>
      <trkpt lat="41.480533992871642" lon="-7.211711034178734">
        <ele>339</ele>
        <time>2025-05-02T13:25:20Z</time>
      </trkpt>
      <trkpt lat="41.480456963181496" lon="-7.211880013346672">
        <ele>339.48000000000002</ele>
        <time>2025-05-02T13:25:21Z</time>
      </trkpt>
      <trkpt lat="41.480126967653632" lon="-7.212609993293881">
        <ele>341.41000000000003</ele>
        <time>2025-05-02T13:25:25Z</time>
      </trkpt>
      <trkpt lat="41.480002999305725" lon="-7.212762041017413">
        <ele>341.88999999999999</ele>
        <time>2025-05-02T13:25:26Z</time>
      </trkpt>
      <trkpt lat="41.479880036786199" lon="-7.212915010750294">
        <ele>342.37</ele>
        <time>2025-05-02T13:25:27Z</time>
      </trkpt>
      <trkpt lat="41.478115981444716" lon="-7.214760035276413">
        <ele>351.5</ele>
        <time>2025-05-02T13:25:40Z</time>
      </trkpt>
      <trkpt lat="41.47692097350955" lon="-7.216378999873996">
        <ele>362.06999999999999</ele>
        <time>2025-05-02T13:25:49Z</time>
      </trkpt>
      <trkpt lat="41.475910032168031" lon="-7.218113970011473">
        <ele>373.61000000000001</ele>
        <time>2025-05-02T13:25:58Z</time>
      </trkpt>
      <trkpt lat="41.475813975557685" lon="-7.218340029940009">
        <ele>374.56999999999999</ele>
        <time>2025-05-02T13:25:59Z</time>
      </trkpt>
      <trkpt lat="41.475763013586402" lon="-7.218565000221133">
        <ele>376.00999999999999</ele>
        <time>2025-05-02T13:26:00Z</time>
      </trkpt>
      <trkpt lat="41.475707022473216" lon="-7.218812014907599">
        <ele>376.97000000000003</ele>
        <time>2025-05-02T13:26:01Z</time>
      </trkpt>
      <trkpt lat="41.475686989724636" lon="-7.219042014330626">
        <ele>377.44999999999999</ele>
        <time>2025-05-02T13:26:02Z</time>
      </trkpt>
      <trkpt lat="41.475700987502933" lon="-7.219248963519931">
        <ele>378.42000000000002</ele>
        <time>2025-05-02T13:26:03Z</time>
      </trkpt>
      <trkpt lat="41.475712973624468" lon="-7.21943998709321">
        <ele>379.38</ele>
        <time>2025-05-02T13:26:04Z</time>
      </trkpt>
      <trkpt lat="41.475724959746003" lon="-7.219618018716574">
        <ele>379.86000000000001</ele>
        <time>2025-05-02T13:26:05Z</time>
      </trkpt>
      <trkpt lat="41.475796960294247" lon="-7.219930998980999">
        <ele>380.81999999999999</ele>
        <time>2025-05-02T13:26:07Z</time>
      </trkpt>
      <trkpt lat="41.475842976942658" lon="-7.220049016177654">
        <ele>381.30000000000001</ele>
        <time>2025-05-02T13:26:08Z</time>
      </trkpt>
      <trkpt lat="41.475879019126296" lon="-7.220141971483827">
        <ele>381.77999999999997</ele>
        <time>2025-05-02T13:26:09Z</time>
      </trkpt>
      <trkpt lat="41.475921012461185" lon="-7.220249008387327">
        <ele>382.25999999999999</ele>
        <time>2025-05-02T13:26:10Z</time>
      </trkpt>
      <trkpt lat="41.476070964708924" lon="-7.220270968973637">
        <ele>382.25999999999999</ele>
        <time>2025-05-02T13:26:11Z</time>
      </trkpt>
      <trkpt lat="41.476070964708924" lon="-7.220270968973637">
        <ele>382.74000000000001</ele>
        <time>2025-05-02T13:26:12Z</time>
      </trkpt>
      <trkpt lat="41.476122010499239" lon="-7.220284966751933">
        <ele>383.22000000000003</ele>
        <time>2025-05-02T13:26:13Z</time>
      </trkpt>
      <trkpt lat="41.476193005219102" lon="-7.220304999500513">
        <ele>383.69999999999999</ele>
        <time>2025-05-02T13:26:14Z</time>
      </trkpt>
      <trkpt lat="41.47625301964581" lon="-7.220384040847421">
        <ele>383.69999999999999</ele>
        <time>2025-05-02T13:26:15Z</time>
      </trkpt>
      <trkpt lat="41.476287972182035" lon="-7.220462998375297">
        <ele>384.18000000000001</ele>
        <time>2025-05-02T13:26:16Z</time>
      </trkpt>
      <trkpt lat="41.476293001323938" lon="-7.220564000308514">
        <ele>384.18000000000001</ele>
        <time>2025-05-02T13:26:17Z</time>
      </trkpt>
      <trkpt lat="41.476271962746978" lon="-7.220649998635054">
        <ele>384.18000000000001</ele>
        <time>2025-05-02T13:26:18Z</time>
      </trkpt>
      <trkpt lat="41.476225024089217" lon="-7.220717975869775">
        <ele>383.69999999999999</ele>
        <time>2025-05-02T13:26:19Z</time>
      </trkpt>
      <trkpt lat="41.476179007440805" lon="-7.220763992518187">
        <ele>383.69999999999999</ele>
        <time>2025-05-02T13:26:20Z</time>
      </trkpt>
      <trkpt lat="41.475984966382384" lon="-7.220916040241718">
        <ele>383.69999999999999</ele>
        <time>2025-05-02T13:26:22Z</time>
      </trkpt>
      <trkpt lat="41.475955964997411" lon="-7.221034979447722">
        <ele>383.69999999999999</ele>
        <time>2025-05-02T13:26:23Z</time>
      </trkpt>
      <trkpt lat="41.475921012461185" lon="-7.221177974715829">
        <ele>383.22000000000003</ele>
        <time>2025-05-02T13:26:24Z</time>
      </trkpt>
      <trkpt lat="41.47590802051127" lon="-7.22132901661098">
        <ele>382.74000000000001</ele>
        <time>2025-05-02T13:26:25Z</time>
      </trkpt>
      <trkpt lat="41.475901985540986" lon="-7.221503024920821">
        <ele>382.25999999999999</ele>
        <time>2025-05-02T13:26:26Z</time>
      </trkpt>
      <trkpt lat="41.475907014682889" lon="-7.221678961068392">
        <ele>381.77999999999997</ele>
        <time>2025-05-02T13:26:27Z</time>
      </trkpt>
      <trkpt lat="41.475917994976044" lon="-7.222052961587906">
        <ele>380.81999999999999</ele>
        <time>2025-05-02T13:26:29Z</time>
      </trkpt>
      <trkpt lat="41.47590802051127" lon="-7.222238034009934">
        <ele>380.33999999999997</ele>
        <time>2025-05-02T13:26:30Z</time>
      </trkpt>
      <trkpt lat="41.475874995812774" lon="-7.222438026219606">
        <ele>380.33999999999997</ele>
        <time>2025-05-02T13:26:31Z</time>
      </trkpt>
      <trkpt lat="41.475826967507601" lon="-7.222629971802235">
        <ele>380.33999999999997</ele>
        <time>2025-05-02T13:26:32Z</time>
      </trkpt>
      <trkpt lat="41.475761001929641" lon="-7.222817977890372">
        <ele>380.33999999999997</ele>
        <time>2025-05-02T13:26:33Z</time>
      </trkpt>
      <trkpt lat="41.475681038573384" lon="-7.222987962886691">
        <ele>380.33999999999997</ele>
        <time>2025-05-02T13:26:34Z</time>
      </trkpt>
      <trkpt lat="41.475581964477897" lon="-7.223150990903378">
        <ele>381.30000000000001</ele>
        <time>2025-05-02T13:26:35Z</time>
      </trkpt>
      <trkpt lat="41.475482974201441" lon="-7.223316030576825">
        <ele>381.77999999999997</ele>
        <time>2025-05-02T13:26:36Z</time>
      </trkpt>
      <trkpt lat="41.474522994831204" lon="-7.224776996299624">
        <ele>386.11000000000001</ele>
        <time>2025-05-02T13:26:45Z</time>
      </trkpt>
      <trkpt lat="41.474390979856253" lon="-7.224888978525996">
        <ele>386.58999999999997</ele>
        <time>2025-05-02T13:26:46Z</time>
      </trkpt>
      <trkpt lat="41.473140986636281" lon="-7.226065965369344">
        <ele>391.38999999999999</ele>
        <time>2025-05-02T13:26:55Z</time>
      </trkpt>
      <trkpt lat="41.471694018691778" lon="-7.227952983230352">
        <ele>398.12</ele>
        <time>2025-05-02T13:27:07Z</time>
      </trkpt>
      <trkpt lat="41.471189009025693" lon="-7.229343038052321">
        <ele>401.00999999999999</ele>
        <time>2025-05-02T13:27:14Z</time>
      </trkpt>
      <trkpt lat="41.470848033204675" lon="-7.230382980778813">
        <ele>402.44999999999999</ele>
        <time>2025-05-02T13:27:21Z</time>
      </trkpt>
      <trkpt lat="41.470767986029387" lon="-7.230643993243575">
        <ele>402.93000000000001</ele>
        <time>2025-05-02T13:27:24Z</time>
      </trkpt>
      <trkpt lat="41.470750970765948" lon="-7.23069503903389">
        <ele>402.93000000000001</ele>
        <time>2025-05-02T13:27:25Z</time>
      </trkpt>
      <trkpt lat="41.470728004351258" lon="-7.230764022096992">
        <ele>403.41000000000003</ele>
        <time>2025-05-02T13:27:26Z</time>
      </trkpt>
      <trkpt lat="41.470728004351258" lon="-7.230764022096992">
        <ele>403.41000000000003</ele>
        <time>2025-05-02T13:27:27Z</time>
      </trkpt>
      <trkpt lat="41.470670001581311" lon="-7.230583978816867">
        <ele>403.88999999999999</ele>
        <time>2025-05-02T13:27:28Z</time>
      </trkpt>
      <trkpt lat="41.470619039610028" lon="-7.230559000745416">
        <ele>403.88999999999999</ele>
        <time>2025-05-02T13:27:29Z</time>
      </trkpt>
      <trkpt lat="41.470555001869798" lon="-7.23052597604692">
        <ele>403.88999999999999</ele>
        <time>2025-05-02T13:27:30Z</time>
      </trkpt>
      <trkpt lat="41.470481995493174" lon="-7.230487000197172">
        <ele>403.88999999999999</ele>
        <time>2025-05-02T13:27:31Z</time>
      </trkpt>
      <trkpt lat="41.470403037965298" lon="-7.230437966063619">
        <ele>403.41000000000003</ele>
        <time>2025-05-02T13:27:32Z</time>
      </trkpt>
      <trkpt lat="41.470313016325235" lon="-7.230382980778813">
        <ele>403.41000000000003</ele>
        <time>2025-05-02T13:27:33Z</time>
      </trkpt>
      <trkpt lat="41.46942101418972" lon="-7.229861039668322">
        <ele>401.00999999999999</ele>
        <time>2025-05-02T13:27:40Z</time>
      </trkpt>
      <trkpt lat="41.467742035165429" lon="-7.228888990357518">
        <ele>398.12</ele>
        <time>2025-05-02T13:27:50Z</time>
      </trkpt>
      <trkpt lat="41.466353992000222" lon="-7.228006962686777">
        <ele>397.63999999999999</ele>
        <time>2025-05-02T13:27:58Z</time>
      </trkpt>
      <trkpt lat="41.466233041137457" lon="-7.227845024317503">
        <ele>398.12</ele>
        <time>2025-05-02T13:27:59Z</time>
      </trkpt>
      <trkpt lat="41.466107983142138" lon="-7.22766799852252">
        <ele>398.60000000000002</ele>
        <time>2025-05-02T13:28:00Z</time>
      </trkpt>
      <trkpt lat="41.464983969926834" lon="-7.225696993991733">
        <ele>398.60000000000002</ele>
        <time>2025-05-02T13:28:09Z</time>
      </trkpt>
      <trkpt lat="41.463645966723561" lon="-7.223393982276321">
        <ele>398.12</ele>
        <time>2025-05-02T13:28:20Z</time>
      </trkpt>
      <trkpt lat="41.463548988103867" lon="-7.223235983401537">
        <ele>398.12</ele>
        <time>2025-05-02T13:28:21Z</time>
      </trkpt>
      <trkpt lat="41.463454021140933" lon="-7.223082007840276">
        <ele>398.12</ele>
        <time>2025-05-02T13:28:22Z</time>
      </trkpt>
      <trkpt lat="41.463322006165981" lon="-7.222999026998878">
        <ele>398.12</ele>
        <time>2025-05-02T13:28:23Z</time>
      </trkpt>
      <trkpt lat="41.463178005069494" lon="-7.222966002300382">
        <ele>398.60000000000002</ele>
        <time>2025-05-02T13:28:24Z</time>
      </trkpt>
      <trkpt lat="41.463025035336614" lon="-7.222953010350466">
        <ele>398.60000000000002</ele>
        <time>2025-05-02T13:28:25Z</time>
      </trkpt>
      <trkpt lat="41.462882962077856" lon="-7.223012018948793">
        <ele>399.07999999999998</ele>
        <time>2025-05-02T13:28:26Z</time>
      </trkpt>
      <trkpt lat="41.462728986516595" lon="-7.223087958991528">
        <ele>399.07999999999998</ele>
        <time>2025-05-02T13:28:27Z</time>
      </trkpt>
      <trkpt lat="41.462581967934966" lon="-7.223194995895028">
        <ele>399.56999999999999</ele>
        <time>2025-05-02T13:28:28Z</time>
      </trkpt>
      <trkpt lat="41.461189985275269" lon="-7.22420996055007">
        <ele>398.12</ele>
        <time>2025-05-02T13:28:36Z</time>
      </trkpt>
      <trkpt lat="41.460034037008882" lon="-7.224971959367394">
        <ele>396.19999999999999</ele>
        <time>2025-05-02T13:28:43Z</time>
      </trkpt>
      <trkpt lat="41.459876960143447" lon="-7.224994003772736">
        <ele>395.72000000000003</ele>
        <time>2025-05-02T13:28:44Z</time>
      </trkpt>
      <trkpt lat="41.45970999263227" lon="-7.224998027086258">
        <ele>395.24000000000001</ele>
        <time>2025-05-02T13:28:45Z</time>
      </trkpt>
      <trkpt lat="41.45777796395123" lon="-7.225043037906289">
        <ele>386.58999999999997</ele>
        <time>2025-05-02T13:28:55Z</time>
      </trkpt>
      <trkpt lat="41.455049989745021" lon="-7.225152002647519">
        <ele>386.11000000000001</ele>
        <time>2025-05-02T13:29:09Z</time>
      </trkpt>
      <trkpt lat="41.454926021397114" lon="-7.22519701346755">
        <ele>386.11000000000001</ele>
        <time>2025-05-02T13:29:10Z</time>
      </trkpt>
      <trkpt lat="41.454804986715317" lon="-7.225274965167046">
        <ele>385.63</ele>
        <time>2025-05-02T13:29:11Z</time>
      </trkpt>
      <trkpt lat="41.453477963805199" lon="-7.226131008937955">
        <ele>382.74000000000001</ele>
        <time>2025-05-02T13:29:20Z</time>
      </trkpt>
      <trkpt lat="41.451607961207628" lon="-7.227381002157927">
        <ele>379.86000000000001</ele>
        <time>2025-05-02T13:29:31Z</time>
      </trkpt>
      <trkpt lat="41.451478963717818" lon="-7.227406986057758">
        <ele>379.38</ele>
        <time>2025-05-02T13:29:32Z</time>
      </trkpt>
      <trkpt lat="41.451363964006305" lon="-7.227401034906507">
        <ele>378.42000000000002</ele>
        <time>2025-05-02T13:29:33Z</time>
      </trkpt>
      <trkpt lat="41.451246030628681" lon="-7.227342026308179">
        <ele>377.94</ele>
        <time>2025-05-02T13:29:34Z</time>
      </trkpt>
      <trkpt lat="41.451121978461742" lon="-7.227263990789652">
        <ele>377.94</ele>
        <time>2025-05-02T13:29:35Z</time>
      </trkpt>
      <trkpt lat="41.450992980971932" lon="-7.227163994684815">
        <ele>376.97000000000003</ele>
        <time>2025-05-02T13:29:36Z</time>
      </trkpt>
      <trkpt lat="41.449754973873496" lon="-7.22620602697134">
        <ele>373.13</ele>
        <time>2025-05-02T13:29:44Z</time>
      </trkpt>
      <trkpt lat="41.448183031752706" lon="-7.224990986287594">
        <ele>370.73000000000002</ele>
        <time>2025-05-02T13:29:53Z</time>
      </trkpt>
      <trkpt lat="41.44772001542151" lon="-7.22459401935339">
        <ele>370.73000000000002</ele>
        <time>2025-05-02T13:29:56Z</time>
      </trkpt>
      <trkpt lat="41.447596969082952" lon="-7.224460998550057">
        <ele>370.73000000000002</ele>
        <time>2025-05-02T13:29:57Z</time>
      </trkpt>
      <trkpt lat="41.447493033483624" lon="-7.224290007725358">
        <ele>370.73000000000002</ele>
        <time>2025-05-02T13:29:58Z</time>
      </trkpt>
      <trkpt lat="41.447436958551407" lon="-7.224107030779123">
        <ele>370.24000000000001</ele>
        <time>2025-05-02T13:29:59Z</time>
      </trkpt>
      <trkpt lat="41.44742296077311" lon="-7.223920030519366">
        <ele>370.24000000000001</ele>
        <time>2025-05-02T13:30:00Z</time>
      </trkpt>
      <trkpt lat="41.44741902127862" lon="-7.223731018602848">
        <ele>369.75999999999999</ele>
        <time>2025-05-02T13:30:01Z</time>
      </trkpt>
      <trkpt lat="41.447414997965097" lon="-7.223533960059285">
        <ele>369.27999999999997</ele>
        <time>2025-05-02T13:30:02Z</time>
      </trkpt>
      <trkpt lat="41.447401000186801" lon="-7.222954016178846">
        <ele>368.31999999999999</ele>
        <time>2025-05-02T13:30:05Z</time>
      </trkpt>
      <trkpt lat="41.447379039600492" lon="-7.222787970677018">
        <ele>367.36000000000001</ele>
        <time>2025-05-02T13:30:06Z</time>
      </trkpt>
      <trkpt lat="41.447338974103332" lon="-7.222630977630615">
        <ele>366.88</ele>
        <time>2025-05-02T13:30:07Z</time>
      </trkpt>
      <trkpt lat="41.447252975776792" lon="-7.222543973475695">
        <ele>366.39999999999998</ele>
        <time>2025-05-02T13:30:08Z</time>
      </trkpt>
      <trkpt lat="41.447153985500336" lon="-7.22246702760458">
        <ele>365.44</ele>
        <time>2025-05-02T13:30:09Z</time>
      </trkpt>
      <trkpt lat="41.447036974132061" lon="-7.222395027056336">
        <ele>364.95999999999998</ele>
        <time>2025-05-02T13:30:10Z</time>
      </trkpt>
      <trkpt lat="41.446672026067972" lon="-7.222167961299419">
        <ele>364</ele>
        <time>2025-05-02T13:30:13Z</time>
      </trkpt>
      <trkpt lat="41.446554008871317" lon="-7.222122028470039">
        <ele>364</ele>
        <time>2025-05-02T13:30:14Z</time>
      </trkpt>
      <trkpt lat="41.446427023038268" lon="-7.222163015976548">
        <ele>363.51999999999998</ele>
        <time>2025-05-02T13:30:15Z</time>
      </trkpt>
      <trkpt lat="41.446317974478006" lon="-7.222248008474708">
        <ele>363.04000000000002</ele>
        <time>2025-05-02T13:30:16Z</time>
      </trkpt>
      <trkpt lat="41.446211021393538" lon="-7.222330989316106">
        <ele>362.55000000000001</ele>
        <time>2025-05-02T13:30:17Z</time>
      </trkpt>
      <trkpt lat="41.446102978661656" lon="-7.222414975985885">
        <ele>362.55000000000001</ele>
        <time>2025-05-02T13:30:18Z</time>
      </trkpt>
      <trkpt lat="41.445968030020595" lon="-7.222458980977535">
        <ele>362.55000000000001</ele>
        <time>2025-05-02T13:30:19Z</time>
      </trkpt>
      <trkpt lat="41.445355983451009" lon="-7.222524024546146">
        <ele>364</ele>
        <time>2025-05-02T13:30:23Z</time>
      </trkpt>
      <trkpt lat="41.445207037031651" lon="-7.222496028989554">
        <ele>364.48000000000002</ele>
        <time>2025-05-02T13:30:24Z</time>
      </trkpt>
      <trkpt lat="41.445061024278402" lon="-7.222439032047987">
        <ele>365.44</ele>
        <time>2025-05-02T13:30:25Z</time>
      </trkpt>
      <trkpt lat="41.444924985989928" lon="-7.222385974600911">
        <ele>365.92000000000002</ele>
        <time>2025-05-02T13:30:26Z</time>
      </trkpt>
      <trkpt lat="41.444836976006627" lon="-7.22229796461761">
        <ele>366.39999999999998</ele>
        <time>2025-05-02T13:30:27Z</time>
      </trkpt>
      <trkpt lat="41.444764975458384" lon="-7.222201991826296">
        <ele>366.88</ele>
        <time>2025-05-02T13:30:28Z</time>
      </trkpt>
      <trkpt lat="41.444718958809972" lon="-7.222048016265035">
        <ele>367.36000000000001</ele>
        <time>2025-05-02T13:30:29Z</time>
      </trkpt>
      <trkpt lat="41.44469004124403" lon="-7.221892029047012">
        <ele>368.31999999999999</ele>
        <time>2025-05-02T13:30:30Z</time>
      </trkpt>
      <trkpt lat="41.44467000849545" lon="-7.221704022958875">
        <ele>369.27999999999997</ele>
        <time>2025-05-02T13:30:31Z</time>
      </trkpt>
      <trkpt lat="41.444648969918489" lon="-7.221502019092441">
        <ele>369.75999999999999</ele>
        <time>2025-05-02T13:30:32Z</time>
      </trkpt>
      <trkpt lat="41.444556014612317" lon="-7.220623008906841">
        <ele>372.64999999999998</ele>
        <time>2025-05-02T13:30:36Z</time>
      </trkpt>
      <trkpt lat="41.44449801184237" lon="-7.220445983111858">
        <ele>373.61000000000001</ele>
        <time>2025-05-02T13:30:37Z</time>
      </trkpt>
      <trkpt lat="41.444436991587281" lon="-7.22029603086412">
        <ele>374.08999999999997</ele>
        <time>2025-05-02T13:30:38Z</time>
      </trkpt>
      <trkpt lat="41.444359961897135" lon="-7.22014800645411">
        <ele>374.08999999999997</ele>
        <time>2025-05-02T13:30:39Z</time>
      </trkpt>
      <trkpt lat="41.444263989105821" lon="-7.220009034499526">
        <ele>374.56999999999999</ele>
        <time>2025-05-02T13:30:40Z</time>
      </trkpt>
      <trkpt lat="41.443408029153943" lon="-7.218756023794413">
        <ele>376.97000000000003</ele>
        <time>2025-05-02T13:30:47Z</time>
      </trkpt>
      <trkpt lat="41.442918023094535" lon="-7.2180210147053">
        <ele>376.49000000000001</ele>
        <time>2025-05-02T13:30:51Z</time>
      </trkpt>
      <trkpt lat="41.442786008119583" lon="-7.21791498363018">
        <ele>376.49000000000001</ele>
        <time>2025-05-02T13:30:52Z</time>
      </trkpt>
      <trkpt lat="41.442656004801393" lon="-7.217853963375092">
        <ele>376.97000000000003</ele>
        <time>2025-05-02T13:30:53Z</time>
      </trkpt>
      <trkpt lat="41.442513009533286" lon="-7.217825967818499">
        <ele>376.97000000000003</ele>
        <time>2025-05-02T13:30:54Z</time>
      </trkpt>
      <trkpt lat="41.442359033972025" lon="-7.217795960605145">
        <ele>377.44999999999999</ele>
        <time>2025-05-02T13:30:55Z</time>
      </trkpt>
      <trkpt lat="41.441353037953377" lon="-7.217637961730361">
        <ele>378.89999999999998</ele>
        <time>2025-05-02T13:31:01Z</time>
      </trkpt>
      <trkpt lat="41.439497033134103" lon="-7.217918001115322">
        <ele>377.94</ele>
        <time>2025-05-02T13:31:10Z</time>
      </trkpt>
      <trkpt lat="41.438289033249021" lon="-7.218108018860221">
        <ele>376.00999999999999</ele>
        <time>2025-05-02T13:31:16Z</time>
      </trkpt>
      <trkpt lat="41.438108989968896" lon="-7.218137020245194">
        <ele>376.00999999999999</ele>
        <time>2025-05-02T13:31:17Z</time>
      </trkpt>
      <trkpt lat="41.437920983880758" lon="-7.218112964183092">
        <ele>376.00999999999999</ele>
        <time>2025-05-02T13:31:18Z</time>
      </trkpt>
      <trkpt lat="41.437082961201668" lon="-7.217888999730349">
        <ele>374.08999999999997</ele>
        <time>2025-05-02T13:31:23Z</time>
      </trkpt>
      <trkpt lat="41.436958992853761" lon="-7.217783974483609">
        <ele>373.61000000000001</ele>
        <time>2025-05-02T13:31:24Z</time>
      </trkpt>
      <trkpt lat="41.436872994527221" lon="-7.217710968106985">
        <ele>373.61000000000001</ele>
        <time>2025-05-02T13:31:25Z</time>
      </trkpt>
      <trkpt lat="41.436795964837074" lon="-7.217614995315671">
        <ele>373.61000000000001</ele>
        <time>2025-05-02T13:31:26Z</time>
      </trkpt>
      <trkpt lat="41.436768975108862" lon="-7.217491026967764">
        <ele>373.13</ele>
        <time>2025-05-02T13:31:27Z</time>
      </trkpt>
      <trkpt lat="41.436739973723888" lon="-7.217345014214516">
        <ele>372.64999999999998</ele>
        <time>2025-05-02T13:31:28Z</time>
      </trkpt>
      <trkpt lat="41.436753971502185" lon="-7.217187015339732">
        <ele>372.17000000000002</ele>
        <time>2025-05-02T13:31:29Z</time>
      </trkpt>
      <trkpt lat="41.436768975108862" lon="-7.21701099537313">
        <ele>371.69</ele>
        <time>2025-05-02T13:31:30Z</time>
      </trkpt>
      <trkpt lat="41.436800993978977" lon="-7.216631965711713">
        <ele>370.73000000000002</ele>
        <time>2025-05-02T13:31:32Z</time>
      </trkpt>
      <trkpt lat="41.436792025342584" lon="-7.216460974887013">
        <ele>370.24000000000001</ele>
        <time>2025-05-02T13:31:33Z</time>
      </trkpt>
      <trkpt lat="41.436781967058778" lon="-7.216343963518739">
        <ele>369.27999999999997</ele>
        <time>2025-05-02T13:31:34Z</time>
      </trkpt>
      <trkpt lat="41.436781967058778" lon="-7.216343963518739">
        <ele>368.80000000000001</ele>
        <time>2025-05-02T13:31:35Z</time>
      </trkpt>
      <trkpt lat="41.436587003991008" lon="-7.216063002124429">
        <ele>368.31999999999999</ele>
        <time>2025-05-02T13:31:36Z</time>
      </trkpt>
      <trkpt lat="41.436078976839781" lon="-7.215331010520458">
        <ele>365.92000000000002</ele>
        <time>2025-05-02T13:31:41Z</time>
      </trkpt>
      <trkpt lat="41.43601099960506" lon="-7.215158008038998">
        <ele>365.92000000000002</ele>
        <time>2025-05-02T13:31:42Z</time>
      </trkpt>
      <trkpt lat="41.435952996835113" lon="-7.214975031092763">
        <ele>365.92000000000002</ele>
        <time>2025-05-02T13:31:43Z</time>
      </trkpt>
      <trkpt lat="41.435645967721939" lon="-7.213994013145566">
        <ele>365.92000000000002</ele>
        <time>2025-05-02T13:31:48Z</time>
      </trkpt>
      <trkpt lat="41.435600034892559" lon="-7.213853029534221">
        <ele>365.92000000000002</ele>
        <time>2025-05-02T13:31:49Z</time>
      </trkpt>
      <trkpt lat="41.435508001595736" lon="-7.213769964873791">
        <ele>365.92000000000002</ele>
        <time>2025-05-02T13:31:50Z</time>
      </trkpt>
      <trkpt lat="41.435418985784054" lon="-7.213690001517534">
        <ele>365.92000000000002</ele>
        <time>2025-05-02T13:31:51Z</time>
      </trkpt>
      <trkpt lat="41.435316978022456" lon="-7.213656976819038">
        <ele>365.92000000000002</ele>
        <time>2025-05-02T13:31:52Z</time>
      </trkpt>
      <trkpt lat="41.435193009674549" lon="-7.213650019839406">
        <ele>366.39999999999998</ele>
        <time>2025-05-02T13:31:53Z</time>
      </trkpt>
      <trkpt lat="41.435056971386075" lon="-7.213640967383981">
        <ele>366.39999999999998</ele>
        <time>2025-05-02T13:31:54Z</time>
      </trkpt>
      <trkpt lat="41.434338977560401" lon="-7.213585982099176">
        <ele>368.31999999999999</ele>
        <time>2025-05-02T13:31:59Z</time>
      </trkpt>
      <trkpt lat="41.43422900699079" lon="-7.213520016521215">
        <ele>368.80000000000001</ele>
        <time>2025-05-02T13:32:00Z</time>
      </trkpt>
      <trkpt lat="41.434114007279277" lon="-7.213452039286494">
        <ele>369.27999999999997</ele>
        <time>2025-05-02T13:32:01Z</time>
      </trkpt>
      <trkpt lat="41.433998001739383" lon="-7.21335900016129">
        <ele>369.27999999999997</ele>
        <time>2025-05-02T13:32:02Z</time>
      </trkpt>
      <trkpt lat="41.433898005634546" lon="-7.213238971307874">
        <ele>369.27999999999997</ele>
        <time>2025-05-02T13:32:03Z</time>
      </trkpt>
      <trkpt lat="41.433789040893316" lon="-7.213108967989683">
        <ele>369.27999999999997</ele>
        <time>2025-05-02T13:32:04Z</time>
      </trkpt>
      <trkpt lat="41.433677980676293" lon="-7.212942000478506">
        <ele>369.27999999999997</ele>
        <time>2025-05-02T13:32:05Z</time>
      </trkpt>
      <trkpt lat="41.433205995708704" lon="-7.21196198835969">
        <ele>367.36000000000001</ele>
        <time>2025-05-02T13:32:10Z</time>
      </trkpt>
      <trkpt lat="41.433104993775487" lon="-7.211827961727977">
        <ele>366.88</ele>
        <time>2025-05-02T13:32:11Z</time>
      </trkpt>
      <trkpt lat="41.433000974357128" lon="-7.211721008643508">
        <ele>366.39999999999998</ele>
        <time>2025-05-02T13:32:12Z</time>
      </trkpt>
      <trkpt lat="41.432270994409919" lon="-7.210917016491294">
        <ele>366.39999999999998</ele>
        <time>2025-05-02T13:32:20Z</time>
      </trkpt>
      <trkpt lat="41.431954996660352" lon="-7.210402032360435">
        <ele>366.39999999999998</ele>
        <time>2025-05-02T13:32:26Z</time>
      </trkpt>
      <trkpt lat="41.431867992505431" lon="-7.210260964930058">
        <ele>365.44</ele>
        <time>2025-05-02T13:32:34Z</time>
      </trkpt>
      <trkpt lat="41.431867992505431" lon="-7.210260964930058">
        <ele>365.44</ele>
        <time>2025-05-02T13:33:12Z</time>
      </trkpt>
      <trkpt lat="41.431867992505431" lon="-7.210260964930058">
        <ele>364.95999999999998</ele>
        <time>2025-05-02T13:34:07Z</time>
      </trkpt>
      <trkpt lat="41.431861035525799" lon="-7.210247972980142">
        <ele>365.92000000000002</ele>
        <time>2025-05-02T13:34:48Z</time>
      </trkpt>
      <trkpt lat="41.431836979463696" lon="-7.210210002958775">
        <ele>366.39999999999998</ele>
        <time>2025-05-02T13:34:49Z</time>
      </trkpt>
      <trkpt lat="41.431804038584232" lon="-7.210155017673969">
        <ele>366.39999999999998</ele>
        <time>2025-05-02T13:34:50Z</time>
      </trkpt>
      <trkpt lat="41.431686021387577" lon="-7.210030965507031">
        <ele>366.39999999999998</ele>
        <time>2025-05-02T13:34:52Z</time>
      </trkpt>
      <trkpt lat="41.430916981771588" lon="-7.209478011354804">
        <ele>367.83999999999997</ele>
        <time>2025-05-02T13:34:59Z</time>
      </trkpt>
      <trkpt lat="41.430414989590645" lon="-7.209091018885374">
        <ele>370.24000000000001</ele>
        <time>2025-05-02T13:35:04Z</time>
      </trkpt>
      <trkpt lat="41.43034097738564" lon="-7.208995968103409">
        <ele>370.24000000000001</ele>
        <time>2025-05-02T13:35:05Z</time>
      </trkpt>
      <trkpt lat="41.430265959352255" lon="-7.208871999755502">
        <ele>370.73000000000002</ele>
        <time>2025-05-02T13:35:06Z</time>
      </trkpt>
      <trkpt lat="41.430221032351255" lon="-7.208730010315776">
        <ele>370.73000000000002</ele>
        <time>2025-05-02T13:35:07Z</time>
      </trkpt>
      <trkpt lat="41.430175015702844" lon="-7.208583997562528">
        <ele>370.24000000000001</ele>
        <time>2025-05-02T13:35:08Z</time>
      </trkpt>
      <trkpt lat="41.430085999891162" lon="-7.208300018683076">
        <ele>370.24000000000001</ele>
        <time>2025-05-02T13:35:10Z</time>
      </trkpt>
      <trkpt lat="41.430041994899511" lon="-7.208164986222982">
        <ele>369.75999999999999</ele>
        <time>2025-05-02T13:35:11Z</time>
      </trkpt>
      <trkpt lat="41.429945016279817" lon="-7.208055015653372">
        <ele>369.27999999999997</ele>
        <time>2025-05-02T13:35:12Z</time>
      </trkpt>
      <trkpt lat="41.429377980530262" lon="-7.207403993234038">
        <ele>366.39999999999998</ele>
        <time>2025-05-02T13:35:18Z</time>
      </trkpt>
      <trkpt lat="41.429284019395709" lon="-7.207326963543892">
        <ele>366.39999999999998</ele>
        <time>2025-05-02T13:35:19Z</time>
      </trkpt>
      <trkpt lat="41.429169019684196" lon="-7.207308020442724">
        <ele>365.92000000000002</ele>
        <time>2025-05-02T13:35:20Z</time>
      </trkpt>
      <trkpt lat="41.429044967517257" lon="-7.207291005179286">
        <ele>365.92000000000002</ele>
        <time>2025-05-02T13:35:21Z</time>
      </trkpt>
      <trkpt lat="41.428924016654491" lon="-7.207314977422357">
        <ele>365.92000000000002</ele>
        <time>2025-05-02T13:35:22Z</time>
      </trkpt>
      <trkpt lat="41.427902011200786" lon="-7.207488985732198">
        <ele>368.31999999999999</ele>
        <time>2025-05-02T13:35:31Z</time>
      </trkpt>
      <trkpt lat="41.42716197296977" lon="-7.207588981837034">
        <ele>371.20999999999998</ele>
        <time>2025-05-02T13:35:39Z</time>
      </trkpt>
      <trkpt lat="41.427090978249907" lon="-7.207588981837034">
        <ele>371.69</ele>
        <time>2025-05-02T13:35:40Z</time>
      </trkpt>
      <trkpt lat="41.427044039592147" lon="-7.207550005987287">
        <ele>371.69</ele>
        <time>2025-05-02T13:35:41Z</time>
      </trkpt>
      <trkpt lat="41.42698897048831" lon="-7.207495020702481">
        <ele>372.17000000000002</ele>
        <time>2025-05-02T13:35:42Z</time>
      </trkpt>
      <trkpt lat="41.426869025453925" lon="-7.207374991849065">
        <ele>372.64999999999998</ele>
        <time>2025-05-02T13:35:43Z</time>
      </trkpt>
      <trkpt lat="41.426857961341739" lon="-7.207350013777614">
        <ele>373.13</ele>
        <time>2025-05-02T13:35:44Z</time>
      </trkpt>
      <trkpt lat="41.426809011027217" lon="-7.207239037379623">
        <ele>374.08999999999997</ele>
        <time>2025-05-02T13:35:45Z</time>
      </trkpt>
      <trkpt lat="41.426535006612539" lon="-7.206613998860121">
        <ele>376.00999999999999</ele>
        <time>2025-05-02T13:35:50Z</time>
      </trkpt>
      <trkpt lat="41.426483038812876" lon="-7.206494975835085">
        <ele>376.49000000000001</ele>
        <time>2025-05-02T13:35:51Z</time>
      </trkpt>
      <trkpt lat="41.426405003294349" lon="-7.20641702413559">
        <ele>376.97000000000003</ele>
        <time>2025-05-02T13:35:52Z</time>
      </trkpt>
      <trkpt lat="41.426328979432583" lon="-7.206342006102204">
        <ele>377.44999999999999</ele>
        <time>2025-05-02T13:35:53Z</time>
      </trkpt>
      <trkpt lat="41.426239963620901" lon="-7.20631199888885">
        <ele>377.94</ele>
        <time>2025-05-02T13:35:54Z</time>
      </trkpt>
      <trkpt lat="41.426133010536432" lon="-7.206294983625412">
        <ele>377.94</ele>
        <time>2025-05-02T13:35:55Z</time>
      </trkpt>
      <trkpt lat="41.426032008603215" lon="-7.206277968361974">
        <ele>378.42000000000002</ele>
        <time>2025-05-02T13:35:56Z</time>
      </trkpt>
      <trkpt lat="41.425646021962166" lon="-7.206216026097536">
        <ele>379.38</ele>
        <time>2025-05-02T13:36:00Z</time>
      </trkpt>
      <trkpt lat="41.425576033070683" lon="-7.206185013055801">
        <ele>379.38</ele>
        <time>2025-05-02T13:36:01Z</time>
      </trkpt>
      <trkpt lat="41.425452986732125" lon="-7.206130027770996">
        <ele>379.86000000000001</ele>
        <time>2025-05-02T13:36:02Z</time>
      </trkpt>
      <trkpt lat="41.425378974527121" lon="-7.206056015565991">
        <ele>380.33999999999997</ele>
        <time>2025-05-02T13:36:03Z</time>
      </trkpt>
      <trkpt lat="41.425289958715439" lon="-7.20596699975431">
        <ele>380.33999999999997</ele>
        <time>2025-05-02T13:36:04Z</time>
      </trkpt>
      <trkpt lat="41.424772040918469" lon="-7.20532301813364">
        <ele>382.25999999999999</ele>
        <time>2025-05-02T13:36:10Z</time>
      </trkpt>
      <trkpt lat="41.424701968207955" lon="-7.205165019258857">
        <ele>382.74000000000001</ele>
        <time>2025-05-02T13:36:11Z</time>
      </trkpt>
      <trkpt lat="41.424685036763549" lon="-7.205039961263537">
        <ele>382.74000000000001</ele>
        <time>2025-05-02T13:36:12Z</time>
      </trkpt>
      <trkpt lat="41.424607001245022" lon="-7.204278968274593">
        <ele>383.22000000000003</ele>
        <time>2025-05-02T13:36:17Z</time>
      </trkpt>
      <trkpt lat="41.424626028165221" lon="-7.204151982441545">
        <ele>383.22000000000003</ele>
        <time>2025-05-02T13:36:18Z</time>
      </trkpt>
      <trkpt lat="41.424652012065053" lon="-7.204044023528695">
        <ele>383.22000000000003</ele>
        <time>2025-05-02T13:36:19Z</time>
      </trkpt>
      <trkpt lat="41.424723006784916" lon="-7.203919971361756">
        <ele>383.69999999999999</ele>
        <time>2025-05-02T13:36:20Z</time>
      </trkpt>
      <trkpt lat="41.424800958484411" lon="-7.203859034925699">
        <ele>383.69999999999999</ele>
        <time>2025-05-02T13:36:21Z</time>
      </trkpt>
      <trkpt lat="41.424896009266376" lon="-7.203783011063933">
        <ele>383.69999999999999</ele>
        <time>2025-05-02T13:36:22Z</time>
      </trkpt>
      <trkpt lat="41.424997011199594" lon="-7.203703969717026">
        <ele>383.69999999999999</ele>
        <time>2025-05-02T13:36:23Z</time>
      </trkpt>
      <trkpt lat="41.425099018961191" lon="-7.203623000532389">
        <ele>384.18000000000001</ele>
        <time>2025-05-02T13:36:24Z</time>
      </trkpt>
      <trkpt lat="41.425188034772873" lon="-7.203524010255933">
        <ele>384.18000000000001</ele>
        <time>2025-05-02T13:36:25Z</time>
      </trkpt>
      <trkpt lat="41.425264980643988" lon="-7.203426025807858">
        <ele>384.18000000000001</ele>
        <time>2025-05-02T13:36:26Z</time>
      </trkpt>
      <trkpt lat="41.425304962322116" lon="-7.203298034146428">
        <ele>384.66000000000003</ele>
        <time>2025-05-02T13:36:27Z</time>
      </trkpt>
      <trkpt lat="41.425333963707089" lon="-7.203166019171476">
        <ele>384.66000000000003</ele>
        <time>2025-05-02T13:36:28Z</time>
      </trkpt>
      <trkpt lat="41.425364976748824" lon="-7.203026963397861">
        <ele>385.14999999999998</ele>
        <time>2025-05-02T13:36:29Z</time>
      </trkpt>
      <trkpt lat="41.425712993368506" lon="-7.201855005696416">
        <ele>387.06999999999999</ele>
        <time>2025-05-02T13:36:36Z</time>
      </trkpt>
      <trkpt lat="41.425791028887033" lon="-7.201698012650013">
        <ele>387.06999999999999</ele>
        <time>2025-05-02T13:36:37Z</time>
      </trkpt>
      <trkpt lat="41.425881972536445" lon="-7.201516963541508">
        <ele>387.55000000000001</ele>
        <time>2025-05-02T13:36:38Z</time>
      </trkpt>
      <trkpt lat="41.425963025540113" lon="-7.201428031548858">
        <ele>387.55000000000001</ele>
        <time>2025-05-02T13:36:39Z</time>
      </trkpt>
      <trkpt lat="41.426252033561468" lon="-7.20111002214253">
        <ele>388.02999999999997</ele>
        <time>2025-05-02T13:36:42Z</time>
      </trkpt>
      <trkpt lat="41.426325039938092" lon="-7.200993010774255">
        <ele>388.02999999999997</ele>
        <time>2025-05-02T13:36:43Z</time>
      </trkpt>
      <trkpt lat="41.426368961110711" lon="-7.20083300024271">
        <ele>388.02999999999997</ele>
        <time>2025-05-02T13:36:44Z</time>
      </trkpt>
      <trkpt lat="41.426719995215535" lon="-7.199487034231424">
        <ele>389.94999999999999</ele>
        <time>2025-05-02T13:36:51Z</time>
      </trkpt>
      <trkpt lat="41.426788978278637" lon="-7.199313025921583">
        <ele>390.43000000000001</ele>
        <time>2025-05-02T13:36:52Z</time>
      </trkpt>
      <trkpt lat="41.426851004362106" lon="-7.19915896654129">
        <ele>390.43000000000001</ele>
        <time>2025-05-02T13:36:53Z</time>
      </trkpt>
      <trkpt lat="41.426905989646912" lon="-7.199019994586706">
        <ele>390.91000000000003</ele>
        <time>2025-05-02T13:36:54Z</time>
      </trkpt>
      <trkpt lat="41.426952006295323" lon="-7.198906000703573">
        <ele>391.38999999999999</ele>
        <time>2025-05-02T13:36:55Z</time>
      </trkpt>
      <trkpt lat="41.426926022395492" lon="-7.198793012648821">
        <ele>391.87</ele>
        <time>2025-05-02T13:36:56Z</time>
      </trkpt>
      <trkpt lat="41.426889980211854" lon="-7.19866300933063">
        <ele>391.87</ele>
        <time>2025-05-02T13:36:57Z</time>
      </trkpt>
      <trkpt lat="41.426823008805513" lon="-7.198600983247161">
        <ele>391.87</ele>
        <time>2025-05-02T13:36:58Z</time>
      </trkpt>
      <trkpt lat="41.426733992993832" lon="-7.198520014062524">
        <ele>391.87</ele>
        <time>2025-05-02T13:36:59Z</time>
      </trkpt>
      <trkpt lat="41.426638020202518" lon="-7.198432004079223">
        <ele>391.38999999999999</ele>
        <time>2025-05-02T13:37:00Z</time>
      </trkpt>
      <trkpt lat="41.426526959985495" lon="-7.198369977995753">
        <ele>391.38999999999999</ele>
        <time>2025-05-02T13:37:01Z</time>
      </trkpt>
      <trkpt lat="41.42640802077949" lon="-7.198307029902935">
        <ele>390.91000000000003</ele>
        <time>2025-05-02T13:37:02Z</time>
      </trkpt>
      <trkpt lat="41.426294026896358" lon="-7.19825497828424">
        <ele>390.91000000000003</ele>
        <time>2025-05-02T13:37:03Z</time>
      </trkpt>
      <trkpt lat="41.426167963072658" lon="-7.19825497828424">
        <ele>390.91000000000003</ele>
        <time>2025-05-02T13:37:04Z</time>
      </trkpt>
      <trkpt lat="41.426052041351795" lon="-7.19825497828424">
        <ele>390.43000000000001</ele>
        <time>2025-05-02T13:37:05Z</time>
      </trkpt>
      <trkpt lat="41.425948021933436" lon="-7.19825497828424">
        <ele>390.43000000000001</ele>
        <time>2025-05-02T13:37:06Z</time>
      </trkpt>
      <trkpt lat="41.425849031656981" lon="-7.19825497828424">
        <ele>389.94999999999999</ele>
        <time>2025-05-02T13:37:07Z</time>
      </trkpt>
      <trkpt lat="41.425776025280356" lon="-7.198183983564377">
        <ele>389.94999999999999</ele>
        <time>2025-05-02T13:37:08Z</time>
      </trkpt>
      <trkpt lat="41.425666976720095" lon="-7.198062026873231">
        <ele>389.94999999999999</ele>
        <time>2025-05-02T13:37:09Z</time>
      </trkpt>
      <trkpt lat="41.425628000870347" lon="-7.197978040203452">
        <ele>390.43000000000001</ele>
        <time>2025-05-02T13:37:10Z</time>
      </trkpt>
      <trkpt lat="41.425566980615258" lon="-7.197850970551372">
        <ele>390.43000000000001</ele>
        <time>2025-05-02T13:37:11Z</time>
      </trkpt>
      <trkpt lat="41.42550403252244" lon="-7.19771602191031">
        <ele>390.43000000000001</ele>
        <time>2025-05-02T13:37:12Z</time>
      </trkpt>
      <trkpt lat="41.425436977297068" lon="-7.197575960308313">
        <ele>390.43000000000001</ele>
        <time>2025-05-02T13:37:13Z</time>
      </trkpt>
      <trkpt lat="41.425366988405585" lon="-7.197429025545716">
        <ele>389.94999999999999</ele>
        <time>2025-05-02T13:37:14Z</time>
      </trkpt>
      <trkpt lat="41.425280990079045" lon="-7.197246970608831">
        <ele>389.94999999999999</ele>
        <time>2025-05-02T13:37:15Z</time>
      </trkpt>
      <trkpt lat="41.425254000350833" lon="-7.197088971734047">
        <ele>389.47000000000003</ele>
        <time>2025-05-02T13:37:16Z</time>
      </trkpt>
      <trkpt lat="41.425061970949173" lon="-7.195974010974169">
        <ele>389.94999999999999</ele>
        <time>2025-05-02T13:37:22Z</time>
      </trkpt>
      <trkpt lat="41.424992987886071" lon="-7.19586999155581">
        <ele>389.94999999999999</ele>
        <time>2025-05-02T13:37:23Z</time>
      </trkpt>
      <trkpt lat="41.424906989559531" lon="-7.195811988785863">
        <ele>390.43000000000001</ele>
        <time>2025-05-02T13:37:24Z</time>
      </trkpt>
      <trkpt lat="41.424815040081739" lon="-7.19576396048069">
        <ele>390.43000000000001</ele>
        <time>2025-05-02T13:37:25Z</time>
      </trkpt>
      <trkpt lat="41.424720995128155" lon="-7.195712998509407">
        <ele>390.43000000000001</ele>
        <time>2025-05-02T13:37:26Z</time>
      </trkpt>
      <trkpt lat="41.424636002629995" lon="-7.195648038759828">
        <ele>389.94999999999999</ele>
        <time>2025-05-02T13:37:27Z</time>
      </trkpt>
      <trkpt lat="41.424565007910132" lon="-7.195549970492721">
        <ele>389.94999999999999</ele>
        <time>2025-05-02T13:37:28Z</time>
      </trkpt>
      <trkpt lat="41.424529971554875" lon="-7.195421978831291">
        <ele>389.47000000000003</ele>
        <time>2025-05-02T13:37:29Z</time>
      </trkpt>
      <trkpt lat="41.424499964341521" lon="-7.195274038240314">
        <ele>388.99000000000001</ele>
        <time>2025-05-02T13:37:30Z</time>
      </trkpt>
      <trkpt lat="41.424486972391605" lon="-7.195110004395247">
        <ele>388.50999999999999</ele>
        <time>2025-05-02T13:37:31Z</time>
      </trkpt>
      <trkpt lat="41.424486972391605" lon="-7.194928033277392">
        <ele>387.55000000000001</ele>
        <time>2025-05-02T13:37:32Z</time>
      </trkpt>
      <trkpt lat="41.424486972391605" lon="-7.194566018879414">
        <ele>386.58999999999997</ele>
        <time>2025-05-02T13:37:34Z</time>
      </trkpt>
      <trkpt lat="41.424454031512141" lon="-7.194399973377585">
        <ele>386.11000000000001</ele>
        <time>2025-05-02T13:37:35Z</time>
      </trkpt>
      <trkpt lat="41.424385970458388" lon="-7.194262007251382">
        <ele>385.63</ele>
        <time>2025-05-02T13:37:36Z</time>
      </trkpt>
      <trkpt lat="41.424298966303468" lon="-7.194127980619669">
        <ele>385.14999999999998</ele>
        <time>2025-05-02T13:37:37Z</time>
      </trkpt>
      <trkpt lat="41.424208022654057" lon="-7.193990014493465">
        <ele>384.66000000000003</ele>
        <time>2025-05-02T13:37:38Z</time>
      </trkpt>
      <trkpt lat="41.424036026000977" lon="-7.193727996200323">
        <ele>383.22000000000003</ele>
        <time>2025-05-02T13:37:40Z</time>
      </trkpt>
      <trkpt lat="41.423939969390631" lon="-7.193626994267106">
        <ele>382.74000000000001</ele>
        <time>2025-05-02T13:37:41Z</time>
      </trkpt>
      <trkpt lat="41.423821030184627" lon="-7.19354803673923">
        <ele>382.25999999999999</ele>
        <time>2025-05-02T13:37:42Z</time>
      </trkpt>
      <trkpt lat="41.423705024644732" lon="-7.193471007049084">
        <ele>381.77999999999997</ele>
        <time>2025-05-02T13:37:43Z</time>
      </trkpt>
      <trkpt lat="41.423584995791316" lon="-7.193424990400672">
        <ele>381.30000000000001</ele>
        <time>2025-05-02T13:37:44Z</time>
      </trkpt>
      <trkpt lat="41.4234649669379" lon="-7.193393977358937">
        <ele>380.81999999999999</ele>
        <time>2025-05-02T13:37:45Z</time>
      </trkpt>
      <trkpt lat="41.42333596944809" lon="-7.193365981802344">
        <ele>380.33999999999997</ele>
        <time>2025-05-02T13:37:46Z</time>
      </trkpt>
      <trkpt lat="41.423204960301518" lon="-7.19339900650084">
        <ele>379.38</ele>
        <time>2025-05-02T13:37:47Z</time>
      </trkpt>
      <trkpt lat="41.423060959205031" lon="-7.193434964865446">
        <ele>378.89999999999998</ele>
        <time>2025-05-02T13:37:48Z</time>
      </trkpt>
      <trkpt lat="41.422916958108544" lon="-7.193471007049084">
        <ele>377.94</ele>
        <time>2025-05-02T13:37:49Z</time>
      </trkpt>
      <trkpt lat="41.422662986442447" lon="-7.193534038960934">
        <ele>376.49000000000001</ele>
        <time>2025-05-02T13:37:51Z</time>
      </trkpt>
      <trkpt lat="41.422548992559314" lon="-7.19350403174758">
        <ele>375.52999999999997</ele>
        <time>2025-05-02T13:37:52Z</time>
      </trkpt>
      <trkpt lat="41.422450002282858" lon="-7.193476036190987">
        <ele>374.56999999999999</ele>
        <time>2025-05-02T13:37:53Z</time>
      </trkpt>
      <trkpt lat="41.422382025048137" lon="-7.193395989015698">
        <ele>373.61000000000001</ele>
        <time>2025-05-02T13:37:54Z</time>
      </trkpt>
      <trkpt lat="41.422308012843132" lon="-7.193275960162282">
        <ele>373.13</ele>
        <time>2025-05-02T13:37:55Z</time>
      </trkpt>
      <trkpt lat="41.422231988981366" lon="-7.193149980157614">
        <ele>372.64999999999998</ele>
        <time>2025-05-02T13:37:56Z</time>
      </trkpt>
      <trkpt lat="41.422159988433123" lon="-7.192994998767972">
        <ele>372.64999999999998</ele>
        <time>2025-05-02T13:37:57Z</time>
      </trkpt>
      <trkpt lat="41.421708958223462" lon="-7.191397994756699">
        <ele>371.69</ele>
        <time>2025-05-02T13:38:05Z</time>
      </trkpt>
      <trkpt lat="41.42150703817606" lon="-7.190479002892971">
        <ele>368.80000000000001</ele>
        <time>2025-05-02T13:38:10Z</time>
      </trkpt>
      <trkpt lat="41.421450041234493" lon="-7.19037096016109">
        <ele>368.31999999999999</ele>
        <time>2025-05-02T13:38:11Z</time>
      </trkpt>
      <trkpt lat="41.42138097435236" lon="-7.190300971269608">
        <ele>367.83999999999997</ele>
        <time>2025-05-02T13:38:12Z</time>
      </trkpt>
      <trkpt lat="41.421286007389426" lon="-7.190263001248241">
        <ele>367.36000000000001</ele>
        <time>2025-05-02T13:38:13Z</time>
      </trkpt>
      <trkpt lat="41.421189028769732" lon="-7.190229976549745">
        <ele>366.88</ele>
        <time>2025-05-02T13:38:14Z</time>
      </trkpt>
      <trkpt lat="41.421074029058218" lon="-7.190231988206506">
        <ele>366.88</ele>
        <time>2025-05-02T13:38:15Z</time>
      </trkpt>
      <trkpt lat="41.420940002426505" lon="-7.190233999863267">
        <ele>366.39999999999998</ele>
        <time>2025-05-02T13:38:16Z</time>
      </trkpt>
      <trkpt lat="41.41976703889668" lon="-7.190250009298325">
        <ele>361.58999999999997</ele>
        <time>2025-05-02T13:38:23Z</time>
      </trkpt>
      <trkpt lat="41.419613985344768" lon="-7.190279010683298">
        <ele>361.11000000000001</ele>
        <time>2025-05-02T13:38:24Z</time>
      </trkpt>
      <trkpt lat="41.419477025046945" lon="-7.190322009846568">
        <ele>360.14999999999998</ele>
        <time>2025-05-02T13:38:25Z</time>
      </trkpt>
      <trkpt lat="41.419335035607219" lon="-7.190393004566431">
        <ele>359.19</ele>
        <time>2025-05-02T13:38:26Z</time>
      </trkpt>
      <trkpt lat="41.419235039502382" lon="-7.190532982349396">
        <ele>358.70999999999998</ele>
        <time>2025-05-02T13:38:27Z</time>
      </trkpt>
      <trkpt lat="41.41912498511374" lon="-7.190687963739038">
        <ele>358.23000000000002</ele>
        <time>2025-05-02T13:38:28Z</time>
      </trkpt>
      <trkpt lat="41.419007973745465" lon="-7.190853003412485">
        <ele>357.75</ele>
        <time>2025-05-02T13:38:29Z</time>
      </trkpt>
      <trkpt lat="41.418881993740797" lon="-7.191030029207468">
        <ele>357.26999999999998</ele>
        <time>2025-05-02T13:38:30Z</time>
      </trkpt>
      <trkpt lat="41.417837021872401" lon="-7.192502981051803">
        <ele>351.98000000000002</ele>
        <time>2025-05-02T13:38:37Z</time>
      </trkpt>
      <trkpt lat="41.416123006492853" lon="-7.194916969165206">
        <ele>343.81</ele>
        <time>2025-05-02T13:38:48Z</time>
      </trkpt>
      <trkpt lat="41.415021037682891" lon="-7.196490000933409">
        <ele>339</ele>
        <time>2025-05-02T13:38:56Z</time>
      </trkpt>
      <trkpt lat="41.414949959143996" lon="-7.196650011464953">
        <ele>338.51999999999998</ele>
        <time>2025-05-02T13:38:57Z</time>
      </trkpt>
      <trkpt lat="41.414917018264532" lon="-7.196731986477971">
        <ele>337.56</ele>
        <time>2025-05-02T13:38:58Z</time>
      </trkpt>
      <trkpt lat="41.414935039356351" lon="-7.196953017264605">
        <ele>337.07999999999998</ele>
        <time>2025-05-02T13:38:59Z</time>
      </trkpt>
      <trkpt lat="41.414947025477886" lon="-7.19711403362453">
        <ele>337.07999999999998</ele>
        <time>2025-05-02T13:39:00Z</time>
      </trkpt>
      <trkpt lat="41.414960017427802" lon="-7.197274966165423">
        <ele>336.60000000000002</ele>
        <time>2025-05-02T13:39:01Z</time>
      </trkpt>
      <trkpt lat="41.4150429982692" lon="-7.198323039337993">
        <ele>334.68000000000001</ele>
        <time>2025-05-02T13:39:07Z</time>
      </trkpt>
      <trkpt lat="41.415017014369369" lon="-7.198520014062524">
        <ele>333.70999999999998</ele>
        <time>2025-05-02T13:39:08Z</time>
      </trkpt>
      <trkpt lat="41.414981978014112" lon="-7.198711959645152">
        <ele>333.23000000000002</ele>
        <time>2025-05-02T13:39:09Z</time>
      </trkpt>
      <trkpt lat="41.414931016042829" lon="-7.19887800514698">
        <ele>331.79000000000002</ele>
        <time>2025-05-02T13:39:10Z</time>
      </trkpt>
      <trkpt lat="41.414838982746005" lon="-7.199015971273184">
        <ele>330.82999999999998</ele>
        <time>2025-05-02T13:39:11Z</time>
      </trkpt>
      <trkpt lat="41.41474099829793" lon="-7.199162989854813">
        <ele>329.38999999999999</ele>
        <time>2025-05-02T13:39:12Z</time>
      </trkpt>
      <trkpt lat="41.414620969444513" lon="-7.199282012879849">
        <ele>328.91000000000003</ele>
        <time>2025-05-02T13:39:13Z</time>
      </trkpt>
      <trkpt lat="41.414475962519646" lon="-7.199390977621079">
        <ele>328.43000000000001</ele>
        <time>2025-05-02T13:39:14Z</time>
      </trkpt>
      <trkpt lat="41.414325004443526" lon="-7.199503965675831">
        <ele>327.94999999999999</ele>
        <time>2025-05-02T13:39:15Z</time>
      </trkpt>
      <trkpt lat="41.414165999740362" lon="-7.199597004801035">
        <ele>326.99000000000001</ele>
        <time>2025-05-02T13:39:16Z</time>
      </trkpt>
      <trkpt lat="41.414002971723676" lon="-7.199679985642433">
        <ele>326.5</ele>
        <time>2025-05-02T13:39:17Z</time>
      </trkpt>
      <trkpt lat="41.413065958768129" lon="-7.200155993923545">
        <ele>324.10000000000002</ele>
        <time>2025-05-02T13:39:23Z</time>
      </trkpt>
      <trkpt lat="41.412945007905364" lon="-7.200266970321536">
        <ele>323.13999999999999</ele>
        <time>2025-05-02T13:39:24Z</time>
      </trkpt>
      <trkpt lat="41.412843000143766" lon="-7.200405020266771">
        <ele>322.18000000000001</ele>
        <time>2025-05-02T13:39:25Z</time>
      </trkpt>
      <trkpt lat="41.412490038201213" lon="-7.201071968302131">
        <ele>318.32999999999998</ele>
        <time>2025-05-02T13:39:29Z</time>
      </trkpt>
      <trkpt lat="41.412388030439615" lon="-7.201212029904127">
        <ele>317.85000000000002</ele>
        <time>2025-05-02T13:39:30Z</time>
      </trkpt>
      <trkpt lat="41.412299014627934" lon="-7.201324012130499">
        <ele>316.88999999999999</ele>
        <time>2025-05-02T13:39:31Z</time>
      </trkpt>
      <trkpt lat="41.412137998268008" lon="-7.201416967436671">
        <ele>315.93000000000001</ele>
        <time>2025-05-02T13:39:32Z</time>
      </trkpt>
      <trkpt lat="41.411996008828282" lon="-7.201499026268721">
        <ele>314.97000000000003</ele>
        <time>2025-05-02T13:39:33Z</time>
      </trkpt>
      <trkpt lat="41.411851001903415" lon="-7.2015830129385">
        <ele>314.00999999999999</ele>
        <time>2025-05-02T13:39:34Z</time>
      </trkpt>
      <trkpt lat="41.411554031074047" lon="-7.201755009591579">
        <ele>312.08999999999997</ele>
        <time>2025-05-02T13:39:36Z</time>
      </trkpt>
      <trkpt lat="41.411400977522135" lon="-7.201817035675049">
        <ele>311.12</ele>
        <time>2025-05-02T13:39:37Z</time>
      </trkpt>
      <trkpt lat="41.41124096699059" lon="-7.201859029009938">
        <ele>310.16000000000003</ele>
        <time>2025-05-02T13:39:38Z</time>
      </trkpt>
      <trkpt lat="41.410354999825358" lon="-7.201846959069371">
        <ele>307.27999999999997</ele>
        <time>2025-05-02T13:39:44Z</time>
      </trkpt>
      <trkpt lat="41.410244023427367" lon="-7.20177797600627">
        <ele>306.80000000000001</ele>
        <time>2025-05-02T13:39:45Z</time>
      </trkpt>
      <trkpt lat="41.41016498208046" lon="-7.201665993779898">
        <ele>306.31999999999999</ele>
        <time>2025-05-02T13:39:46Z</time>
      </trkpt>
      <trkpt lat="41.410084012895823" lon="-7.201546970754862">
        <ele>305.83999999999997</ele>
        <time>2025-05-02T13:39:47Z</time>
      </trkpt>
      <trkpt lat="41.410007989034057" lon="-7.201437000185251">
        <ele>305.36000000000001</ele>
        <time>2025-05-02T13:39:48Z</time>
      </trkpt>
      <trkpt lat="41.409959960728884" lon="-7.201367011293769">
        <ele>304.88</ele>
        <time>2025-05-02T13:39:49Z</time>
      </trkpt>
      <trkpt lat="41.409819982945919" lon="-7.201367011293769">
        <ele>304.88</ele>
        <time>2025-05-02T13:39:50Z</time>
      </trkpt>
      <trkpt lat="41.409767009317875" lon="-7.201367011293769">
        <ele>304.38999999999999</ele>
        <time>2025-05-02T13:39:51Z</time>
      </trkpt>
      <trkpt lat="41.409696014598012" lon="-7.201437000185251">
        <ele>303.91000000000003</ele>
        <time>2025-05-02T13:39:52Z</time>
      </trkpt>
      <trkpt lat="41.409638011828065" lon="-7.201495002955198">
        <ele>303.43000000000001</ele>
        <time>2025-05-02T13:39:53Z</time>
      </trkpt>
      <trkpt lat="41.40958696603775" lon="-7.201636992394924">
        <ele>302.94999999999999</ele>
        <time>2025-05-02T13:39:54Z</time>
      </trkpt>
      <trkpt lat="41.409536004066467" lon="-7.20177797600627">
        <ele>302.47000000000003</ele>
        <time>2025-05-02T13:39:55Z</time>
      </trkpt>
      <trkpt lat="41.409481018781662" lon="-7.201933041214943">
        <ele>301.50999999999999</ele>
        <time>2025-05-02T13:39:56Z</time>
      </trkpt>
      <trkpt lat="41.409408012405038" lon="-7.202094979584217">
        <ele>301.02999999999997</ele>
        <time>2025-05-02T13:39:57Z</time>
      </trkpt>
      <trkpt lat="41.409329976886511" lon="-7.202231017872691">
        <ele>300.55000000000001</ele>
        <time>2025-05-02T13:39:58Z</time>
      </trkpt>
      <trkpt lat="41.409248001873493" lon="-7.202373007312417">
        <ele>300.06999999999999</ele>
        <time>2025-05-02T13:39:59Z</time>
      </trkpt>
      <trkpt lat="41.408475022763014" lon="-7.203097036108375">
        <ele>295.74000000000001</ele>
        <time>2025-05-02T13:40:06Z</time>
      </trkpt>
      <trkpt lat="41.40835901722312" lon="-7.203164007514715">
        <ele>295.25999999999999</ele>
        <time>2025-05-02T13:40:07Z</time>
      </trkpt>
      <trkpt lat="41.408236976712942" lon="-7.203163001686335">
        <ele>294.77999999999997</ele>
        <time>2025-05-02T13:40:08Z</time>
      </trkpt>
      <trkpt lat="41.408109990879893" lon="-7.203156966716051">
        <ele>294.30000000000001</ele>
        <time>2025-05-02T13:40:09Z</time>
      </trkpt>
      <trkpt lat="41.407978981733322" lon="-7.203150009736419">
        <ele>293.81999999999999</ele>
        <time>2025-05-02T13:40:10Z</time>
      </trkpt>
      <trkpt lat="41.406360017135739" lon="-7.202941970899701">
        <ele>288.05000000000001</ele>
        <time>2025-05-02T13:40:22Z</time>
      </trkpt>
      <trkpt lat="41.405941005796194" lon="-7.202771985903382">
        <ele>286.13</ele>
        <time>2025-05-02T13:40:25Z</time>
      </trkpt>
      <trkpt lat="41.405817037448287" lon="-7.202708031982184">
        <ele>286.13</ele>
        <time>2025-05-02T13:40:26Z</time>
      </trkpt>
      <trkpt lat="41.405708994716406" lon="-7.202628990635276">
        <ele>285.64999999999998</ele>
        <time>2025-05-02T13:40:27Z</time>
      </trkpt>
      <trkpt lat="41.405650991946459" lon="-7.202547015622258">
        <ele>285.17000000000002</ele>
        <time>2025-05-02T13:40:28Z</time>
      </trkpt>
      <trkpt lat="41.405603969469666" lon="-7.202481972053647">
        <ele>284.69</ele>
        <time>2025-05-02T13:40:29Z</time>
      </trkpt>
      <trkpt lat="41.40556700527668" lon="-7.202431010082364">
        <ele>284.20999999999998</ele>
        <time>2025-05-02T13:40:30Z</time>
      </trkpt>
      <trkpt lat="41.405486958101392" lon="-7.202329002320766">
        <ele>282.76999999999998</ele>
        <time>2025-05-02T13:40:35Z</time>
      </trkpt>
      <trkpt lat="41.40546097420156" lon="-7.202320033684373">
        <ele>281.31999999999999</ele>
        <time>2025-05-02T13:40:45Z</time>
      </trkpt>
      <trkpt lat="41.405462985858321" lon="-7.20302302390337">
        <ele>291.42000000000002</ele>
        <time>2025-05-02T13:48:22Z</time>
      </trkpt>
      <trkpt lat="41.405487963929772" lon="-7.202255995944142">
        <ele>283.73000000000002</ele>
        <time>2025-05-02T13:49:02Z</time>
      </trkpt>
      <trkpt lat="41.405477989464998" lon="-7.202250966802239">
        <ele>282.27999999999997</ele>
        <time>2025-05-02T13:49:42Z</time>
      </trkpt>
      <trkpt lat="41.405441025272012" lon="-7.202312992885709">
        <ele>282.27999999999997</ele>
        <time>2025-05-02T13:49:49Z</time>
      </trkpt>
      <trkpt lat="41.405411018058658" lon="-7.202304024249315">
        <ele>282.76999999999998</ele>
        <time>2025-05-02T13:49:50Z</time>
      </trkpt>
      <trkpt lat="41.405303981155157" lon="-7.202267982065678">
        <ele>282.76999999999998</ele>
        <time>2025-05-02T13:49:51Z</time>
      </trkpt>
      <trkpt lat="41.405303981155157" lon="-7.202267982065678">
        <ele>282.27999999999997</ele>
        <time>2025-05-02T13:49:52Z</time>
      </trkpt>
      <trkpt lat="41.405248995870352" lon="-7.202290026471019">
        <ele>281.80000000000001</ele>
        <time>2025-05-02T13:49:53Z</time>
      </trkpt>
      <trkpt lat="41.405179006978869" lon="-7.202336965128779">
        <ele>281.80000000000001</ele>
        <time>2025-05-02T13:49:54Z</time>
      </trkpt>
      <trkpt lat="41.405140031129122" lon="-7.202395973727107">
        <ele>281.80000000000001</ele>
        <time>2025-05-02T13:49:55Z</time>
      </trkpt>
      <trkpt lat="41.405111029744148" lon="-7.202438972890377">
        <ele>281.31999999999999</ele>
        <time>2025-05-02T13:49:56Z</time>
      </trkpt>
      <trkpt lat="41.405093008652329" lon="-7.202566964551806">
        <ele>281.31999999999999</ele>
        <time>2025-05-02T13:49:57Z</time>
      </trkpt>
      <trkpt lat="41.405081022530794" lon="-7.202654974535108">
        <ele>281.31999999999999</ele>
        <time>2025-05-02T13:49:58Z</time>
      </trkpt>
      <trkpt lat="41.405069036409259" lon="-7.202741978690028">
        <ele>281.31999999999999</ele>
        <time>2025-05-02T13:49:59Z</time>
      </trkpt>
      <trkpt lat="41.405057972297072" lon="-7.202823031693697">
        <ele>281.31999999999999</ele>
        <time>2025-05-02T13:50:00Z</time>
      </trkpt>
      <trkpt lat="41.404949007555842" lon="-7.203333992511034">
        <ele>279.39999999999998</ele>
        <time>2025-05-02T13:50:05Z</time>
      </trkpt>
      <trkpt lat="41.404912965372205" lon="-7.203408004716039">
        <ele>278.92000000000002</ele>
        <time>2025-05-02T13:50:06Z</time>
      </trkpt>
      <trkpt lat="41.40483601950109" lon="-7.203461984172463">
        <ele>278.44</ele>
        <time>2025-05-02T13:50:07Z</time>
      </trkpt>
      <trkpt lat="41.40419103205204" lon="-7.20390303991735">
        <ele>276.51999999999998</ele>
        <time>2025-05-02T13:50:13Z</time>
      </trkpt>
      <trkpt lat="41.404076032340527" lon="-7.203935980796814">
        <ele>276.04000000000002</ele>
        <time>2025-05-02T13:50:14Z</time>
      </trkpt>
      <trkpt lat="41.403962960466743" lon="-7.203966993838549">
        <ele>276.04000000000002</ele>
        <time>2025-05-02T13:50:15Z</time>
      </trkpt>
      <trkpt lat="41.403852989897132" lon="-7.203998006880283">
        <ele>275.56</ele>
        <time>2025-05-02T13:50:16Z</time>
      </trkpt>
      <trkpt lat="41.40376003459096" lon="-7.204090040177107">
        <ele>275.06999999999999</ele>
        <time>2025-05-02T13:50:17Z</time>
      </trkpt>
      <trkpt lat="41.403681999072433" lon="-7.204193975776434">
        <ele>274.58999999999997</ele>
        <time>2025-05-02T13:50:18Z</time>
      </trkpt>
      <trkpt lat="41.403601029887795" lon="-7.204303024336696">
        <ele>274.58999999999997</ele>
        <time>2025-05-02T13:50:19Z</time>
      </trkpt>
      <trkpt lat="41.40350203961134" lon="-7.204435039311647">
        <ele>274.58999999999997</ele>
        <time>2025-05-02T13:50:20Z</time>
      </trkpt>
      <trkpt lat="41.403416963294148" lon="-7.20448499545455">
        <ele>274.11000000000001</ele>
        <time>2025-05-02T13:50:21Z</time>
      </trkpt>
      <trkpt lat="41.403303975239396" lon="-7.20455196686089">
        <ele>274.11000000000001</ele>
        <time>2025-05-02T13:50:22Z</time>
      </trkpt>
      <trkpt lat="41.402355981990695" lon="-7.205223022028804">
        <ele>271.23000000000002</ele>
        <time>2025-05-02T13:50:31Z</time>
      </trkpt>
      <trkpt lat="41.402264032512903" lon="-7.205293010920286">
        <ele>271.23000000000002</ele>
        <time>2025-05-02T13:50:32Z</time>
      </trkpt>
      <trkpt lat="41.40215003862977" lon="-7.205379009246826">
        <ele>270.75</ele>
        <time>2025-05-02T13:50:33Z</time>
      </trkpt>
      <trkpt lat="41.402069991454482" lon="-7.205384960398078">
        <ele>270.26999999999998</ele>
        <time>2025-05-02T13:50:34Z</time>
      </trkpt>
      <trkpt lat="41.401965972036123" lon="-7.205392001196742">
        <ele>270.26999999999998</ele>
        <time>2025-05-02T13:50:35Z</time>
      </trkpt>
      <trkpt lat="41.401864970102906" lon="-7.205398958176374">
        <ele>269.79000000000002</ele>
        <time>2025-05-02T13:50:36Z</time>
      </trkpt>
      <trkpt lat="41.401762962341309" lon="-7.205361993983388">
        <ele>269.31</ele>
        <time>2025-05-02T13:50:37Z</time>
      </trkpt>
      <trkpt lat="41.40165600925684" lon="-7.205314971506596">
        <ele>269.31</ele>
        <time>2025-05-02T13:50:38Z</time>
      </trkpt>
      <trkpt lat="41.401575040072203" lon="-7.205238025635481">
        <ele>268.82999999999998</ele>
        <time>2025-05-02T13:50:39Z</time>
      </trkpt>
      <trkpt lat="41.401489041745663" lon="-7.205154960975051">
        <ele>268.82999999999998</ele>
        <time>2025-05-02T13:50:40Z</time>
      </trkpt>
      <trkpt lat="41.401069024577737" lon="-7.204686999320984">
        <ele>267.86000000000001</ele>
        <time>2025-05-02T13:50:45Z</time>
      </trkpt>
      <trkpt lat="41.40075696632266" lon="-7.204199004918337">
        <ele>266.42000000000002</ele>
        <time>2025-05-02T13:50:49Z</time>
      </trkpt>
      <trkpt lat="41.400683037936687" lon="-7.204089034348726">
        <ele>265.45999999999998</ele>
        <time>2025-05-02T13:50:50Z</time>
      </trkpt>
      <trkpt lat="41.400579018518329" lon="-7.204048968851566">
        <ele>264.5</ele>
        <time>2025-05-02T13:50:51Z</time>
      </trkpt>
      <trkpt lat="41.40047600492835" lon="-7.204008987173438">
        <ele>264.01999999999998</ele>
        <time>2025-05-02T13:50:52Z</time>
      </trkpt>
      <trkpt lat="41.400379026308656" lon="-7.203975962474942">
        <ele>263.54000000000002</ele>
        <time>2025-05-02T13:50:53Z</time>
      </trkpt>
      <trkpt lat="41.4002800360322" lon="-7.20394897274673">
        <ele>263.06</ele>
        <time>2025-05-02T13:50:54Z</time>
      </trkpt>
      <trkpt lat="41.400176016613841" lon="-7.203919971361756">
        <ele>262.57999999999998</ele>
        <time>2025-05-02T13:50:55Z</time>
      </trkpt>
      <trkpt lat="41.400090018287301" lon="-7.203837996348739">
        <ele>262.10000000000002</ele>
        <time>2025-05-02T13:50:56Z</time>
      </trkpt>
      <trkpt lat="41.399999996647239" lon="-7.203753003850579">
        <ele>261.62</ele>
        <time>2025-05-02T13:50:57Z</time>
      </trkpt>
      <trkpt lat="41.399908969178796" lon="-7.203665999695659">
        <ele>261.62</ele>
        <time>2025-05-02T13:50:58Z</time>
      </trkpt>
      <trkpt lat="41.399434972554445" lon="-7.203290993347764">
        <ele>260.17000000000002</ele>
        <time>2025-05-02T13:51:03Z</time>
      </trkpt>
      <trkpt lat="41.399340005591512" lon="-7.203270960599184">
        <ele>259.69</ele>
        <time>2025-05-02T13:51:04Z</time>
      </trkpt>
      <trkpt lat="41.399245960637927" lon="-7.203251011669636">
        <ele>259.20999999999998</ele>
        <time>2025-05-02T13:51:05Z</time>
      </trkpt>
      <trkpt lat="41.398297967389226" lon="-7.20306602306664">
        <ele>256.32999999999998</ele>
        <time>2025-05-02T13:51:13Z</time>
      </trkpt>
      <trkpt lat="41.397679969668388" lon="-7.202891008928418">
        <ele>254.41</ele>
        <time>2025-05-02T13:51:17Z</time>
      </trkpt>
      <trkpt lat="41.397537980228662" lon="-7.202874999493361">
        <ele>254.41</ele>
        <time>2025-05-02T13:51:18Z</time>
      </trkpt>
      <trkpt lat="41.397403031587601" lon="-7.202887991443276">
        <ele>254.88999999999999</ele>
        <time>2025-05-02T13:51:19Z</time>
      </trkpt>
      <trkpt lat="41.397278979420662" lon="-7.202945994213224">
        <ele>254.88999999999999</ele>
        <time>2025-05-02T13:51:20Z</time>
      </trkpt>
      <trkpt lat="41.397156016901135" lon="-7.203010031953454">
        <ele>254.88999999999999</ele>
        <time>2025-05-02T13:51:21Z</time>
      </trkpt>
      <trkpt lat="41.397026013582945" lon="-7.203078009188175">
        <ele>254.88999999999999</ele>
        <time>2025-05-02T13:51:22Z</time>
      </trkpt>
      <trkpt lat="41.395653979852796" lon="-7.203773958608508">
        <ele>256.81</ele>
        <time>2025-05-02T13:51:32Z</time>
      </trkpt>
      <trkpt lat="41.39540595933795" lon="-7.203852999955416">
        <ele>256.32999999999998</ele>
        <time>2025-05-02T13:51:34Z</time>
      </trkpt>
      <trkpt lat="41.395281990990043" lon="-7.203848976641893">
        <ele>256.32999999999998</ele>
        <time>2025-05-02T13:51:35Z</time>
      </trkpt>
      <trkpt lat="41.395150981843472" lon="-7.203845037147403">
        <ele>255.84999999999999</ele>
        <time>2025-05-02T13:51:36Z</time>
      </trkpt>
      <trkpt lat="41.395017961040139" lon="-7.2038400080055">
        <ele>255.37</ele>
        <time>2025-05-02T13:51:37Z</time>
      </trkpt>
      <trkpt lat="41.394883012399077" lon="-7.203835984691978">
        <ele>254.88999999999999</ele>
        <time>2025-05-02T13:51:38Z</time>
      </trkpt>
      <trkpt lat="41.394747979938984" lon="-7.203865991905332">
        <ele>253.93000000000001</ele>
        <time>2025-05-02T13:51:39Z</time>
      </trkpt>
      <trkpt lat="41.394606996327639" lon="-7.203917959704995">
        <ele>253.44</ele>
        <time>2025-05-02T13:51:40Z</time>
      </trkpt>
      <trkpt lat="41.39445997774601" lon="-7.203973028808832">
        <ele>252.47999999999999</ele>
        <time>2025-05-02T13:51:41Z</time>
      </trkpt>
      <trkpt lat="41.393910963088274" lon="-7.204176960512996">
        <ele>250.08000000000001</ele>
        <time>2025-05-02T13:51:45Z</time>
      </trkpt>
      <trkpt lat="41.393795041367412" lon="-7.204176960512996">
        <ele>250.08000000000001</ele>
        <time>2025-05-02T13:51:46Z</time>
      </trkpt>
      <trkpt lat="41.393697978928685" lon="-7.20414200797677">
        <ele>249.59999999999999</ele>
        <time>2025-05-02T13:51:47Z</time>
      </trkpt>
      <trkpt lat="41.393606029450893" lon="-7.204088028520346">
        <ele>249.12</ele>
        <time>2025-05-02T13:51:48Z</time>
      </trkpt>
      <trkpt lat="41.393516007810831" lon="-7.203995995223522">
        <ele>248.63999999999999</ele>
        <time>2025-05-02T13:51:49Z</time>
      </trkpt>
      <trkpt lat="41.393420035019517" lon="-7.203899016603828">
        <ele>248.63999999999999</ele>
        <time>2025-05-02T13:51:50Z</time>
      </trkpt>
      <trkpt lat="41.392458966001868" lon="-7.202922021970153">
        <ele>245.27000000000001</ele>
        <time>2025-05-02T13:51:58Z</time>
      </trkpt>
      <trkpt lat="41.392199965193868" lon="-7.202725969254971">
        <ele>244.31</ele>
        <time>2025-05-02T13:52:00Z</time>
      </trkpt>
      <trkpt lat="41.392069961875677" lon="-7.202665032818914">
        <ele>243.83000000000001</ele>
        <time>2025-05-02T13:52:01Z</time>
      </trkpt>
      <trkpt lat="41.391929984092712" lon="-7.20263603143394">
        <ele>243.34999999999999</ele>
        <time>2025-05-02T13:52:02Z</time>
      </trkpt>
      <trkpt lat="41.391787994652987" lon="-7.202643994241953">
        <ele>243.34999999999999</ele>
        <time>2025-05-02T13:52:03Z</time>
      </trkpt>
      <trkpt lat="41.391652040183544" lon="-7.202651035040617">
        <ele>242.87</ele>
        <time>2025-05-02T13:52:04Z</time>
      </trkpt>
      <trkpt lat="41.391522958874702" lon="-7.202696967869997">
        <ele>242.38999999999999</ele>
        <time>2025-05-02T13:52:05Z</time>
      </trkpt>
      <trkpt lat="41.391413994133472" lon="-7.202769974246621">
        <ele>242.38999999999999</ele>
        <time>2025-05-02T13:52:06Z</time>
      </trkpt>
      <trkpt lat="41.391327995806932" lon="-7.202871982008219">
        <ele>241.91</ele>
        <time>2025-05-02T13:52:07Z</time>
      </trkpt>
      <trkpt lat="41.39123797416687" lon="-7.202979018911719">
        <ele>241.43000000000001</ele>
        <time>2025-05-02T13:52:08Z</time>
      </trkpt>
      <trkpt lat="41.391149964183569" lon="-7.203083038330078">
        <ele>241.43000000000001</ele>
        <time>2025-05-02T13:52:09Z</time>
      </trkpt>
      <trkpt lat="41.391077963635325" lon="-7.203169036656618">
        <ele>240.47</ele>
        <time>2025-05-02T13:52:10Z</time>
      </trkpt>
      <trkpt lat="41.390975033864379" lon="-7.203169036656618">
        <ele>239.50999999999999</ele>
        <time>2025-05-02T13:52:11Z</time>
      </trkpt>
      <trkpt lat="41.390869002789259" lon="-7.203169036656618">
        <ele>238.53999999999999</ele>
        <time>2025-05-02T13:52:12Z</time>
      </trkpt>
      <trkpt lat="41.390760038048029" lon="-7.203169036656618">
        <ele>237.58000000000001</ele>
        <time>2025-05-02T13:52:13Z</time>
      </trkpt>
      <trkpt lat="41.390659958124161" lon="-7.203169036656618">
        <ele>237.09999999999999</ele>
        <time>2025-05-02T13:52:14Z</time>
      </trkpt>
      <trkpt lat="41.390564991161227" lon="-7.203169036656618">
        <ele>236.62</ele>
        <time>2025-05-02T13:52:15Z</time>
      </trkpt>
      <trkpt lat="41.39046298339963" lon="-7.203212035819888">
        <ele>236.13999999999999</ele>
        <time>2025-05-02T13:52:16Z</time>
      </trkpt>
      <trkpt lat="41.390369022265077" lon="-7.203285964205861">
        <ele>235.66</ele>
        <time>2025-05-02T13:52:17Z</time>
      </trkpt>
      <trkpt lat="41.390271037817001" lon="-7.203361988067627">
        <ele>235.18000000000001</ele>
        <time>2025-05-02T13:52:18Z</time>
      </trkpt>
      <trkpt lat="41.390166012570262" lon="-7.203443041071296">
        <ele>234.22</ele>
        <time>2025-05-02T13:52:19Z</time>
      </trkpt>
      <trkpt lat="41.39005403034389" lon="-7.203529039397836">
        <ele>233.25999999999999</ele>
        <time>2025-05-02T13:52:20Z</time>
      </trkpt>
      <trkpt lat="41.389939030632377" lon="-7.203617971390486">
        <ele>232.78</ele>
        <time>2025-05-02T13:52:21Z</time>
      </trkpt>
      <trkpt lat="41.389828976243734" lon="-7.203722996637225">
        <ele>231.81</ele>
        <time>2025-05-02T13:52:22Z</time>
      </trkpt>
      <trkpt lat="41.389742977917194" lon="-7.203851994127035">
        <ele>231.33000000000001</ele>
        <time>2025-05-02T13:52:23Z</time>
      </trkpt>
      <trkpt lat="41.389673994854093" lon="-7.204001024365425">
        <ele>230.84999999999999</ele>
        <time>2025-05-02T13:52:24Z</time>
      </trkpt>
      <trkpt lat="41.389610040932894" lon="-7.204153994098306">
        <ele>229.88999999999999</ele>
        <time>2025-05-02T13:52:25Z</time>
      </trkpt>
      <trkpt lat="41.389022972434759" lon="-7.205499960109592">
        <ele>223.16</ele>
        <time>2025-05-02T13:52:34Z</time>
      </trkpt>
      <trkpt lat="41.388954995200038" lon="-7.205590987578034">
        <ele>222.68000000000001</ele>
        <time>2025-05-02T13:52:35Z</time>
      </trkpt>
      <trkpt lat="41.388864973559976" lon="-7.205604985356331">
        <ele>222.19999999999999</ele>
        <time>2025-05-02T13:52:36Z</time>
      </trkpt>
      <trkpt lat="41.388781992718577" lon="-7.205614959821105">
        <ele>222.19999999999999</ele>
        <time>2025-05-02T13:52:37Z</time>
      </trkpt>
      <trkpt lat="41.388693982735276" lon="-7.205565003678203">
        <ele>221.72</ele>
        <time>2025-05-02T13:52:38Z</time>
      </trkpt>
      <trkpt lat="41.388605972751975" lon="-7.205503983423114">
        <ele>221.24000000000001</ele>
        <time>2025-05-02T13:52:39Z</time>
      </trkpt>
      <trkpt lat="41.388519974425435" lon="-7.205417985096574">
        <ele>220.75999999999999</ele>
        <time>2025-05-02T13:52:40Z</time>
      </trkpt>
      <trkpt lat="41.388435987755656" lon="-7.205333998426795">
        <ele>220.28</ele>
        <time>2025-05-02T13:52:41Z</time>
      </trkpt>
      <trkpt lat="41.388370022177696" lon="-7.205238025635481">
        <ele>220.28</ele>
        <time>2025-05-02T13:52:42Z</time>
      </trkpt>
      <trkpt lat="41.388306990265846" lon="-7.205137023702264">
        <ele>219.80000000000001</ele>
        <time>2025-05-02T13:52:43Z</time>
      </trkpt>
      <trkpt lat="41.388244964182377" lon="-7.205036021769047">
        <ele>218.84</ele>
        <time>2025-05-02T13:52:44Z</time>
      </trkpt>
      <trkpt lat="41.38823096640408" lon="-7.204905012622476">
        <ele>218.36000000000001</ele>
        <time>2025-05-02T13:52:45Z</time>
      </trkpt>
      <trkpt lat="41.388215962797403" lon="-7.20476302318275">
        <ele>217.88</ele>
        <time>2025-05-02T13:52:46Z</time>
      </trkpt>
      <trkpt lat="41.388200959190726" lon="-7.204619022086263">
        <ele>217.40000000000001</ele>
        <time>2025-05-02T13:52:47Z</time>
      </trkpt>
      <trkpt lat="41.3881850335747" lon="-7.203070968389511">
        <ele>209.22</ele>
        <time>2025-05-02T13:52:59Z</time>
      </trkpt>
      <trkpt lat="41.388196013867855" lon="-7.202957980334759">
        <ele>208.74000000000001</ele>
        <time>2025-05-02T13:53:00Z</time>
      </trkpt>
      <trkpt lat="41.388201965019107" lon="-7.202890003100038">
        <ele>208.25999999999999</ele>
        <time>2025-05-02T13:53:01Z</time>
      </trkpt>
      <trkpt lat="41.388155026361346" lon="-7.202804004773498">
        <ele>207.78</ele>
        <time>2025-05-02T13:53:02Z</time>
      </trkpt>
      <trkpt lat="41.388113033026457" lon="-7.202728986740112">
        <ele>207.30000000000001</ele>
        <time>2025-05-02T13:53:03Z</time>
      </trkpt>
      <trkpt lat="41.388070033863187" lon="-7.202666960656643">
        <ele>207.30000000000001</ele>
        <time>2025-05-02T13:53:04Z</time>
      </trkpt>
      <trkpt lat="41.388013958930969" lon="-7.202597977593541">
        <ele>207.30000000000001</ele>
        <time>2025-05-02T13:53:05Z</time>
      </trkpt>
      <trkpt lat="41.387956961989403" lon="-7.202527988702059">
        <ele>206.81999999999999</ele>
        <time>2025-05-02T13:53:06Z</time>
      </trkpt>
      <trkpt lat="41.387645993381739" lon="-7.202260019257665">
        <ele>206.34</ele>
        <time>2025-05-02T13:53:11Z</time>
      </trkpt>
      <trkpt lat="41.387578016147017" lon="-7.202230012044311">
        <ele>206.34</ele>
        <time>2025-05-02T13:53:12Z</time>
      </trkpt>
      <trkpt lat="41.387485982850194" lon="-7.202220959588885">
        <ele>205.38</ele>
        <time>2025-05-02T13:53:13Z</time>
      </trkpt>
      <trkpt lat="41.387399984523654" lon="-7.202278962358832">
        <ele>204.90000000000001</ele>
        <time>2025-05-02T13:53:14Z</time>
      </trkpt>
      <trkpt lat="41.387335024774075" lon="-7.202364960685372">
        <ele>203.94</ele>
        <time>2025-05-02T13:53:15Z</time>
      </trkpt>
      <trkpt lat="41.38726201839745" lon="-7.202463028952479">
        <ele>202.97999999999999</ele>
        <time>2025-05-02T13:53:16Z</time>
      </trkpt>
      <trkpt lat="41.386432964354753" lon="-7.20360497944057">
        <ele>198.16999999999999</ele>
        <time>2025-05-02T13:53:25Z</time>
      </trkpt>
      <trkpt lat="41.386348977684975" lon="-7.203751998022199">
        <ele>197.69</ele>
        <time>2025-05-02T13:53:26Z</time>
      </trkpt>
      <trkpt lat="41.386290974915028" lon="-7.203925000503659">
        <ele>197.21000000000001</ele>
        <time>2025-05-02T13:53:27Z</time>
      </trkpt>
      <trkpt lat="41.386232972145081" lon="-7.204109989106655">
        <ele>196.72999999999999</ele>
        <time>2025-05-02T13:53:28Z</time>
      </trkpt>
      <trkpt lat="41.385928960517049" lon="-7.205212041735649">
        <ele>196.25</ele>
        <time>2025-05-02T13:53:34Z</time>
      </trkpt>
      <trkpt lat="41.38588503934443" lon="-7.205371968448162">
        <ele>196.25</ele>
        <time>2025-05-02T13:53:35Z</time>
      </trkpt>
      <trkpt lat="41.38547801412642" lon="-7.206771997734904">
        <ele>195.28</ele>
        <time>2025-05-02T13:53:44Z</time>
      </trkpt>
      <trkpt lat="41.385408025234938" lon="-7.206854978576303">
        <ele>195.28</ele>
        <time>2025-05-02T13:53:45Z</time>
      </trkpt>
      <trkpt lat="41.385348010808229" lon="-7.206923961639404">
        <ele>195.77000000000001</ele>
        <time>2025-05-02T13:53:46Z</time>
      </trkpt>
      <trkpt lat="41.385289002209902" lon="-7.20704197883606">
        <ele>195.77000000000001</ele>
        <time>2025-05-02T13:53:47Z</time>
      </trkpt>
      <trkpt lat="41.385228987783194" lon="-7.207162007689476">
        <ele>195.77000000000001</ele>
        <time>2025-05-02T13:53:48Z</time>
      </trkpt>
      <trkpt lat="41.385162016376853" lon="-7.207296034321189">
        <ele>196.25</ele>
        <time>2025-05-02T13:53:49Z</time>
      </trkpt>
      <trkpt lat="41.384625993669033" lon="-7.208232963457704">
        <ele>197.69</ele>
        <time>2025-05-02T13:53:56Z</time>
      </trkpt>
      <trkpt lat="41.384376967325807" lon="-7.208606963977218">
        <ele>198.65000000000001</ele>
        <time>2025-05-02T13:53:59Z</time>
      </trkpt>
      <trkpt lat="41.383518995717168" lon="-7.210185024887323">
        <ele>200.56999999999999</ele>
        <time>2025-05-02T13:54:09Z</time>
      </trkpt>
      <trkpt lat="41.383185982704163" lon="-7.210800005123019">
        <ele>201.05000000000001</ele>
        <time>2025-05-02T13:54:14Z</time>
      </trkpt>
      <trkpt lat="41.383105013519526" lon="-7.210850967094302">
        <ele>201.53</ele>
        <time>2025-05-02T13:54:15Z</time>
      </trkpt>
      <trkpt lat="41.383036030456424" lon="-7.210891032591462">
        <ele>202.00999999999999</ele>
        <time>2025-05-02T13:54:16Z</time>
      </trkpt>
      <trkpt lat="41.382978027686477" lon="-7.210880974307656">
        <ele>202.97999999999999</ele>
        <time>2025-05-02T13:54:17Z</time>
      </trkpt>
      <trkpt lat="41.38292396441102" lon="-7.21086697652936">
        <ele>203.94</ele>
        <time>2025-05-02T13:54:18Z</time>
      </trkpt>
      <trkpt lat="41.382881971076131" lon="-7.210857002064586">
        <ele>204.41999999999999</ele>
        <time>2025-05-02T13:54:19Z</time>
      </trkpt>
      <trkpt lat="41.382804019376636" lon="-7.210839986801148">
        <ele>205.86000000000001</ele>
        <time>2025-05-02T13:54:21Z</time>
      </trkpt>
      <trkpt lat="41.38279496692121" lon="-7.210744014009833">
        <ele>206.34</ele>
        <time>2025-05-02T13:54:22Z</time>
      </trkpt>
      <trkpt lat="41.38279496692121" lon="-7.210744014009833">
        <ele>206.81999999999999</ele>
        <time>2025-05-02T13:54:23Z</time>
      </trkpt>
      <trkpt lat="41.382816005498171" lon="-7.210687017068267">
        <ele>207.78</ele>
        <time>2025-05-02T13:54:24Z</time>
      </trkpt>
      <trkpt lat="41.382848024368286" lon="-7.210601018741727">
        <ele>208.25999999999999</ele>
        <time>2025-05-02T13:54:25Z</time>
      </trkpt>
      <trkpt lat="41.382888006046414" lon="-7.210493981838226">
        <ele>208.74000000000001</ele>
        <time>2025-05-02T13:54:26Z</time>
      </trkpt>
      <trkpt lat="41.383440038189292" lon="-7.209468958899379">
        <ele>214.50999999999999</ele>
        <time>2025-05-02T13:54:33Z</time>
      </trkpt>
      <trkpt lat="41.384351989254355" lon="-7.207638015970588">
        <ele>223.63999999999999</ele>
        <time>2025-05-02T13:54:44Z</time>
      </trkpt>
      <trkpt lat="41.385194035246968" lon="-7.20572903752327">
        <ele>230.84999999999999</ele>
        <time>2025-05-02T13:54:54Z</time>
      </trkpt>
      <trkpt lat="41.385299982503057" lon="-7.20534598454833">
        <ele>230.84999999999999</ele>
        <time>2025-05-02T13:54:56Z</time>
      </trkpt>
      <trkpt lat="41.385674988850951" lon="-7.203568015247583">
        <ele>228.44999999999999</ele>
        <time>2025-05-02T13:55:05Z</time>
      </trkpt>
      <trkpt lat="41.385753024369478" lon="-7.203406998887658">
        <ele>228.44999999999999</ele>
        <time>2025-05-02T13:55:06Z</time>
      </trkpt>
      <trkpt lat="41.38584204018116" lon="-7.203255034983158">
        <ele>228.44999999999999</ele>
        <time>2025-05-02T13:55:07Z</time>
      </trkpt>
      <trkpt lat="41.385966008529067" lon="-7.203112961724401">
        <ele>228.44999999999999</ele>
        <time>2025-05-02T13:55:08Z</time>
      </trkpt>
      <trkpt lat="41.386091988533735" lon="-7.202968960627914">
        <ele>228.44999999999999</ele>
        <time>2025-05-02T13:55:09Z</time>
      </trkpt>
      <trkpt lat="41.386657012626529" lon="-7.202267982065678">
        <ele>229.88999999999999</ele>
        <time>2025-05-02T13:55:14Z</time>
      </trkpt>
      <trkpt lat="41.386721972376108" lon="-7.202138984575868">
        <ele>230.37</ele>
        <time>2025-05-02T13:55:15Z</time>
      </trkpt>
      <trkpt lat="41.386721972376108" lon="-7.202007975429297">
        <ele>230.37</ele>
        <time>2025-05-02T13:55:16Z</time>
      </trkpt>
      <trkpt lat="41.386721972376108" lon="-7.201860034838319">
        <ele>230.84999999999999</ele>
        <time>2025-05-02T13:55:17Z</time>
      </trkpt>
      <trkpt lat="41.386700011789799" lon="-7.201797002926469">
        <ele>231.33000000000001</ele>
        <time>2025-05-02T13:55:18Z</time>
      </trkpt>
      <trkpt lat="41.386662963777781" lon="-7.201688038185239">
        <ele>231.33000000000001</ele>
        <time>2025-05-02T13:55:19Z</time>
      </trkpt>
      <trkpt lat="41.386620970442891" lon="-7.201567003503442">
        <ele>231.33000000000001</ele>
        <time>2025-05-02T13:55:20Z</time>
      </trkpt>
      <trkpt lat="41.386575037613511" lon="-7.201430965214968">
        <ele>231.81</ele>
        <time>2025-05-02T13:55:21Z</time>
      </trkpt>
      <trkpt lat="41.386471018195152" lon="-7.201129971072078">
        <ele>231.81</ele>
        <time>2025-05-02T13:55:23Z</time>
      </trkpt>
      <trkpt lat="41.386445034295321" lon="-7.200974989682436">
        <ele>231.33000000000001</ele>
        <time>2025-05-02T13:55:24Z</time>
      </trkpt>
      <trkpt lat="41.386484010145068" lon="-7.200836017727852">
        <ele>231.33000000000001</ele>
        <time>2025-05-02T13:55:25Z</time>
      </trkpt>
      <trkpt lat="41.386538995429873" lon="-7.200734009966254">
        <ele>230.84999999999999</ele>
        <time>2025-05-02T13:55:26Z</time>
      </trkpt>
      <trkpt lat="41.386628011241555" lon="-7.200644994154573">
        <ele>230.84999999999999</ele>
        <time>2025-05-02T13:55:27Z</time>
      </trkpt>
      <trkpt lat="41.386731024831533" lon="-7.200576011091471">
        <ele>230.37</ele>
        <time>2025-05-02T13:55:28Z</time>
      </trkpt>
      <trkpt lat="41.386863961815834" lon="-7.200529994443059">
        <ele>230.37</ele>
        <time>2025-05-02T13:55:29Z</time>
      </trkpt>
      <trkpt lat="41.387365031987429" lon="-7.200357997789979">
        <ele>230.37</ele>
        <time>2025-05-02T13:55:33Z</time>
      </trkpt>
      <trkpt lat="41.387451030313969" lon="-7.200248027220368">
        <ele>230.37</ele>
        <time>2025-05-02T13:55:34Z</time>
      </trkpt>
      <trkpt lat="41.387518001720309" lon="-7.200149958953261">
        <ele>230.37</ele>
        <time>2025-05-02T13:55:35Z</time>
      </trkpt>
      <trkpt lat="41.387545997276902" lon="-7.200004030019045">
        <ele>230.37</ele>
        <time>2025-05-02T13:55:36Z</time>
      </trkpt>
      <trkpt lat="41.387580027803779" lon="-7.199821975082159">
        <ele>230.84999999999999</ele>
        <time>2025-05-02T13:55:37Z</time>
      </trkpt>
      <trkpt lat="41.387583967298269" lon="-7.199635980650783">
        <ele>231.33000000000001</ele>
        <time>2025-05-02T13:55:38Z</time>
      </trkpt>
      <trkpt lat="41.387582961469889" lon="-7.198607018217444">
        <ele>232.78</ele>
        <time>2025-05-02T13:55:43Z</time>
      </trkpt>
      <trkpt lat="41.387564018368721" lon="-7.198432004079223">
        <ele>232.78</ele>
        <time>2025-05-02T13:55:44Z</time>
      </trkpt>
      <trkpt lat="41.387511966750026" lon="-7.198281968012452">
        <ele>233.25999999999999</ele>
        <time>2025-05-02T13:55:45Z</time>
      </trkpt>
      <trkpt lat="41.387233017012477" lon="-7.19767302274704">
        <ele>233.25999999999999</ele>
        <time>2025-05-02T13:55:50Z</time>
      </trkpt>
      <trkpt lat="41.387160010635853" lon="-7.197595993056893">
        <ele>233.25999999999999</ele>
        <time>2025-05-02T13:55:51Z</time>
      </trkpt>
      <trkpt lat="41.387063032016158" lon="-7.197530027478933">
        <ele>232.78</ele>
        <time>2025-05-02T13:55:52Z</time>
      </trkpt>
      <trkpt lat="41.386957000941038" lon="-7.19745903275907">
        <ele>232.30000000000001</ele>
        <time>2025-05-02T13:55:53Z</time>
      </trkpt>
      <trkpt lat="41.386845018714666" lon="-7.197383008897305">
        <ele>231.81</ele>
        <time>2025-05-02T13:55:54Z</time>
      </trkpt>
      <trkpt lat="41.386598004028201" lon="-7.197216041386128">
        <ele>230.84999999999999</ele>
        <time>2025-05-02T13:55:56Z</time>
      </trkpt>
      <trkpt lat="41.386474035680294" lon="-7.197126019746065">
        <ele>230.37</ele>
        <time>2025-05-02T13:55:57Z</time>
      </trkpt>
      <trkpt lat="41.386366998776793" lon="-7.19700800254941">
        <ele>229.88999999999999</ele>
        <time>2025-05-02T13:55:58Z</time>
      </trkpt>
      <trkpt lat="41.386262979358435" lon="-7.196893002837896">
        <ele>229.88999999999999</ele>
        <time>2025-05-02T13:55:59Z</time>
      </trkpt>
      <trkpt lat="41.386161977425218" lon="-7.196782026439905">
        <ele>229.41</ele>
        <time>2025-05-02T13:56:00Z</time>
      </trkpt>
      <trkpt lat="41.386077990755439" lon="-7.196688987314701">
        <ele>228.93000000000001</ele>
        <time>2025-05-02T13:56:01Z</time>
      </trkpt>
      <trkpt lat="41.385999033227563" lon="-7.196559989824891">
        <ele>228.93000000000001</ele>
        <time>2025-05-02T13:56:02Z</time>
      </trkpt>
      <trkpt lat="41.385934995487332" lon="-7.196457982063294">
        <ele>228.93000000000001</ele>
        <time>2025-05-02T13:56:03Z</time>
      </trkpt>
      <trkpt lat="41.385905994102359" lon="-7.196348011493683">
        <ele>228.44999999999999</ele>
        <time>2025-05-02T13:56:04Z</time>
      </trkpt>
      <trkpt lat="41.385905994102359" lon="-7.196260001510382">
        <ele>228.44999999999999</ele>
        <time>2025-05-02T13:56:05Z</time>
      </trkpt>
      <trkpt lat="41.385954022407532" lon="-7.196182971820235">
        <ele>228.44999999999999</ele>
        <time>2025-05-02T13:56:06Z</time>
      </trkpt>
      <trkpt lat="41.38601403683424" lon="-7.196088004857302">
        <ele>228.44999999999999</ele>
        <time>2025-05-02T13:56:07Z</time>
      </trkpt>
      <trkpt lat="41.386094000190496" lon="-7.196067972108722">
        <ele>228.44999999999999</ele>
        <time>2025-05-02T13:56:08Z</time>
      </trkpt>
      <trkpt lat="41.386203970760107" lon="-7.196039976552129">
        <ele>228.44999999999999</ele>
        <time>2025-05-02T13:56:09Z</time>
      </trkpt>
      <trkpt lat="41.386327017098665" lon="-7.196009969338775">
        <ele>228.44999999999999</ele>
        <time>2025-05-02T13:56:10Z</time>
      </trkpt>
      <trkpt lat="41.386548969894648" lon="-7.195953978225589">
        <ele>229.41</ele>
        <time>2025-05-02T13:56:12Z</time>
      </trkpt>
      <trkpt lat="41.386644020676613" lon="-7.195905027911067">
        <ele>229.41</ele>
        <time>2025-05-02T13:56:13Z</time>
      </trkpt>
      <trkpt lat="41.386715015396476" lon="-7.195823974907398">
        <ele>229.88999999999999</ele>
        <time>2025-05-02T13:56:14Z</time>
      </trkpt>
      <trkpt lat="41.386790033429861" lon="-7.195729007944465">
        <ele>230.37</ele>
        <time>2025-05-02T13:56:15Z</time>
      </trkpt>
      <trkpt lat="41.386820962652564" lon="-7.195595987141132">
        <ele>230.84999999999999</ele>
        <time>2025-05-02T13:56:16Z</time>
      </trkpt>
      <trkpt lat="41.38685398735106" lon="-7.195453997701407">
        <ele>231.33000000000001</ele>
        <time>2025-05-02T13:56:17Z</time>
      </trkpt>
      <trkpt lat="41.386869996786118" lon="-7.195297004655004">
        <ele>231.81</ele>
        <time>2025-05-02T13:56:18Z</time>
      </trkpt>
      <trkpt lat="41.386864967644215" lon="-7.195136994123459">
        <ele>232.30000000000001</ele>
        <time>2025-05-02T13:56:19Z</time>
      </trkpt>
      <trkpt lat="41.386861028149724" lon="-7.194983018562198">
        <ele>232.78</ele>
        <time>2025-05-02T13:56:20Z</time>
      </trkpt>
      <trkpt lat="41.386826997622848" lon="-7.194526959210634">
        <ele>233.74000000000001</ele>
        <time>2025-05-02T13:56:23Z</time>
      </trkpt>
      <trkpt lat="41.38678902760148" lon="-7.194393016397953">
        <ele>234.22</ele>
        <time>2025-05-02T13:56:24Z</time>
      </trkpt>
      <trkpt lat="41.386750973761082" lon="-7.194259995594621">
        <ele>234.22</ele>
        <time>2025-05-02T13:56:25Z</time>
      </trkpt>
      <trkpt lat="41.386704035103321" lon="-7.194123035296798">
        <ele>234.69999999999999</ele>
        <time>2025-05-02T13:56:26Z</time>
      </trkpt>
      <trkpt lat="41.386636979877949" lon="-7.193995965644717">
        <ele>235.18000000000001</ele>
        <time>2025-05-02T13:56:27Z</time>
      </trkpt>
      <trkpt lat="41.386566990986466" lon="-7.193864034488797">
        <ele>234.69999999999999</ele>
        <time>2025-05-02T13:56:28Z</time>
      </trkpt>
      <trkpt lat="41.386494990438223" lon="-7.193726990371943">
        <ele>234.69999999999999</ele>
        <time>2025-05-02T13:56:29Z</time>
      </trkpt>
      <trkpt lat="41.386420978233218" lon="-7.193586006760597">
        <ele>234.22</ele>
        <time>2025-05-02T13:56:30Z</time>
      </trkpt>
      <trkpt lat="41.385825024917722" lon="-7.19245595857501">
        <ele>231.33000000000001</ele>
        <time>2025-05-02T13:56:38Z</time>
      </trkpt>
      <trkpt lat="41.385439038276672" lon="-7.191684991121292">
        <ele>228.93000000000001</ele>
        <time>2025-05-02T13:56:43Z</time>
      </trkpt>
      <trkpt lat="41.385396961122751" lon="-7.191517017781735">
        <ele>228.93000000000001</ele>
        <time>2025-05-02T13:56:44Z</time>
      </trkpt>
      <trkpt lat="41.385356979444623" lon="-7.191360024735332">
        <ele>228.44999999999999</ele>
        <time>2025-05-02T13:56:45Z</time>
      </trkpt>
      <trkpt lat="41.385361002758145" lon="-7.191214011982083">
        <ele>228.44999999999999</ele>
        <time>2025-05-02T13:56:46Z</time>
      </trkpt>
      <trkpt lat="41.385380029678345" lon="-7.1910560131073">
        <ele>227.97</ele>
        <time>2025-05-02T13:56:47Z</time>
      </trkpt>
      <trkpt lat="41.385408025234938" lon="-7.190894996747375">
        <ele>227.97</ele>
        <time>2025-05-02T13:56:48Z</time>
      </trkpt>
      <trkpt lat="41.385912029072642" lon="-7.188903037458658">
        <ele>229.41</ele>
        <time>2025-05-02T13:56:59Z</time>
      </trkpt>
      <trkpt lat="41.386362975463271" lon="-7.186709996312857">
        <ele>231.81</ele>
        <time>2025-05-02T13:57:11Z</time>
      </trkpt>
      <trkpt lat="41.386392982676625" lon="-7.186133991926909">
        <ele>232.78</ele>
        <time>2025-05-02T13:57:15Z</time>
      </trkpt>
      <trkpt lat="41.386377979069948" lon="-7.185916984453797">
        <ele>233.74000000000001</ele>
        <time>2025-05-02T13:57:22Z</time>
      </trkpt>
      <trkpt lat="41.386331040412188" lon="-7.185830986127257">
        <ele>234.22</ele>
        <time>2025-05-02T13:57:32Z</time>
      </trkpt>
      <trkpt lat="41.386318970471621" lon="-7.185809025540948">
        <ele>234.22</ele>
        <time>2025-05-02T13:57:33Z</time>
      </trkpt>
      <trkpt lat="41.386021999642253" lon="-7.185538960620761">
        <ele>233.74000000000001</ele>
        <time>2025-05-02T13:57:38Z</time>
      </trkpt>
      <trkpt lat="41.385929966345429" lon="-7.185481963679195">
        <ele>233.74000000000001</ele>
        <time>2025-05-02T13:57:39Z</time>
      </trkpt>
      <trkpt lat="41.385875986889005" lon="-7.185375010594726">
        <ele>233.25999999999999</ele>
        <time>2025-05-02T13:57:40Z</time>
      </trkpt>
      <trkpt lat="41.385842962190509" lon="-7.185250958427787">
        <ele>232.78</ele>
        <time>2025-05-02T13:57:41Z</time>
      </trkpt>
      <trkpt lat="41.385852014645934" lon="-7.185116009786725">
        <ele>232.30000000000001</ele>
        <time>2025-05-02T13:57:42Z</time>
      </trkpt>
      <trkpt lat="41.385862994939089" lon="-7.184950970113277">
        <ele>231.81</ele>
        <time>2025-05-02T13:57:43Z</time>
      </trkpt>
      <trkpt lat="41.385909011587501" lon="-7.184819038957357">
        <ele>230.84999999999999</ele>
        <time>2025-05-02T13:57:44Z</time>
      </trkpt>
      <trkpt lat="41.386115960776806" lon="-7.184082018211484">
        <ele>229.41</ele>
        <time>2025-05-02T13:57:50Z</time>
      </trkpt>
      <trkpt lat="41.386110009625554" lon="-7.183956038206816">
        <ele>229.41</ele>
        <time>2025-05-02T13:57:51Z</time>
      </trkpt>
      <trkpt lat="41.386104980483651" lon="-7.183830980211496">
        <ele>229.41</ele>
        <time>2025-05-02T13:57:52Z</time>
      </trkpt>
      <trkpt lat="41.386087965220213" lon="-7.183685973286629">
        <ele>229.41</ele>
        <time>2025-05-02T13:57:53Z</time>
      </trkpt>
      <trkpt lat="41.386026022955775" lon="-7.183572985231876">
        <ele>228.93000000000001</ele>
        <time>2025-05-02T13:57:54Z</time>
      </trkpt>
      <trkpt lat="41.385959973558784" lon="-7.183453040197492">
        <ele>228.93000000000001</ele>
        <time>2025-05-02T13:57:55Z</time>
      </trkpt>
      <trkpt lat="41.385899959132075" lon="-7.18334399163723">
        <ele>228.44999999999999</ele>
        <time>2025-05-02T13:57:56Z</time>
      </trkpt>
      <trkpt lat="41.385847991332412" lon="-7.183258999139071">
        <ele>227.97</ele>
        <time>2025-05-02T13:57:57Z</time>
      </trkpt>
      <trkpt lat="41.385803986340761" lon="-7.183204013854265">
        <ele>227.97</ele>
        <time>2025-05-02T13:57:58Z</time>
      </trkpt>
      <trkpt lat="41.385656967759132" lon="-7.183023970574141">
        <ele>226.05000000000001</ele>
        <time>2025-05-02T13:58:07Z</time>
      </trkpt>
      <trkpt lat="41.385649004951119" lon="-7.183013996109366">
        <ele>226.53</ele>
        <time>2025-05-02T13:58:19Z</time>
      </trkpt>
      <trkpt lat="41.385649004951119" lon="-7.183013996109366">
        <ele>226.53</ele>
        <time>2025-05-02T13:58:39Z</time>
      </trkpt>
      <trkpt lat="41.385649004951119" lon="-7.183013996109366">
        <ele>226.05000000000001</ele>
        <time>2025-05-02T13:59:27Z</time>
      </trkpt>
      <trkpt lat="41.385556971654296" lon="-7.182901008054614">
        <ele>228.44999999999999</ele>
        <time>2025-05-02T14:00:13Z</time>
      </trkpt>
      <trkpt lat="41.385332001373172" lon="-7.182621974498034">
        <ele>227.00999999999999</ele>
        <time>2025-05-02T14:00:17Z</time>
      </trkpt>
      <trkpt lat="41.385169979184866" lon="-7.182422988116741">
        <ele>226.05000000000001</ele>
        <time>2025-05-02T14:00:19Z</time>
      </trkpt>
      <trkpt lat="41.384283006191254" lon="-7.181419003754854">
        <ele>220.28</ele>
        <time>2025-05-02T14:00:28Z</time>
      </trkpt>
      <trkpt lat="41.384200025349855" lon="-7.181290006265044">
        <ele>219.80000000000001</ele>
        <time>2025-05-02T14:00:29Z</time>
      </trkpt>
      <trkpt lat="41.384118972346187" lon="-7.181156985461712">
        <ele>219.31999999999999</ele>
        <time>2025-05-02T14:00:30Z</time>
      </trkpt>
      <trkpt lat="41.383675988763571" lon="-7.179713035002351">
        <ele>217.88</ele>
        <time>2025-05-02T14:00:39Z</time>
      </trkpt>
      <trkpt lat="41.3832220248878" lon="-7.177732978016138">
        <ele>222.19999999999999</ele>
        <time>2025-05-02T14:00:51Z</time>
      </trkpt>
      <trkpt lat="41.382768983021379" lon="-7.176459012553096">
        <ele>222.68000000000001</ele>
        <time>2025-05-02T14:00:58Z</time>
      </trkpt>
      <trkpt lat="41.382735036313534" lon="-7.1762740239501">
        <ele>222.19999999999999</ele>
        <time>2025-05-02T14:00:59Z</time>
      </trkpt>
      <trkpt lat="41.382712991908193" lon="-7.176090963184834">
        <ele>222.19999999999999</ele>
        <time>2025-05-02T14:01:00Z</time>
      </trkpt>
      <trkpt lat="41.382691031321883" lon="-7.175912009552121">
        <ele>222.19999999999999</ele>
        <time>2025-05-02T14:01:01Z</time>
      </trkpt>
      <trkpt lat="41.382668986916542" lon="-7.175733977928758">
        <ele>222.19999999999999</ele>
        <time>2025-05-02T14:01:02Z</time>
      </trkpt>
      <trkpt lat="41.382624981924891" lon="-7.175375986844301">
        <ele>221.72</ele>
        <time>2025-05-02T14:01:04Z</time>
      </trkpt>
      <trkpt lat="41.382602015510201" lon="-7.175187980756164">
        <ele>221.72</ele>
        <time>2025-05-02T14:01:05Z</time>
      </trkpt>
      <trkpt lat="41.38253697194159" lon="-7.175019001588225">
        <ele>221.72</ele>
        <time>2025-05-02T14:01:06Z</time>
      </trkpt>
      <trkpt lat="41.381892990320921" lon="-7.173333987593651">
        <ele>219.31999999999999</ele>
        <time>2025-05-02T14:01:16Z</time>
      </trkpt>
      <trkpt lat="41.381879998371005" lon="-7.173256035894156">
        <ele>219.31999999999999</ele>
        <time>2025-05-02T14:01:17Z</time>
      </trkpt>
      <trkpt lat="41.38191101141274" lon="-7.173172971233726">
        <ele>218.84</ele>
        <time>2025-05-02T14:01:18Z</time>
      </trkpt>
      <trkpt lat="41.381943030282855" lon="-7.173084961250424">
        <ele>218.36000000000001</ele>
        <time>2025-05-02T14:01:19Z</time>
      </trkpt>
      <trkpt lat="41.382002038881183" lon="-7.173014972358942">
        <ele>217.88</ele>
        <time>2025-05-02T14:01:20Z</time>
      </trkpt>
      <trkpt lat="41.382089965045452" lon="-7.172958981245756">
        <ele>218.36000000000001</ele>
        <time>2025-05-02T14:01:21Z</time>
      </trkpt>
      <trkpt lat="41.382187027484179" lon="-7.172897960990667">
        <ele>217.40000000000001</ele>
        <time>2025-05-02T14:01:22Z</time>
      </trkpt>
      <trkpt lat="41.382669992744923" lon="-7.172540975734592">
        <ele>217.88</ele>
        <time>2025-05-02T14:01:27Z</time>
      </trkpt>
      <trkpt lat="41.383418999612331" lon="-7.171461973339319">
        <ele>221.72</ele>
        <time>2025-05-02T14:01:35Z</time>
      </trkpt>
      <trkpt lat="41.383667020127177" lon="-7.171028964221478">
        <ele>223.63999999999999</ele>
        <time>2025-05-02T14:01:38Z</time>
      </trkpt>
      <trkpt lat="41.383720999583602" lon="-7.170877000316978">
        <ele>224.12</ele>
        <time>2025-05-02T14:01:39Z</time>
      </trkpt>
      <trkpt lat="41.383747989311814" lon="-7.170713972300291">
        <ele>224.61000000000001</ele>
        <time>2025-05-02T14:01:40Z</time>
      </trkpt>
      <trkpt lat="41.383959967643023" lon="-7.16914102435112">
        <ele>227.49000000000001</ele>
        <time>2025-05-02T14:01:50Z</time>
      </trkpt>
      <trkpt lat="41.384134981781244" lon="-7.167753987014294">
        <ele>227.00999999999999</ele>
        <time>2025-05-02T14:02:00Z</time>
      </trkpt>
      <trkpt lat="41.384384008124471" lon="-7.16591902077198">
        <ele>224.12</ele>
        <time>2025-05-02T14:02:12Z</time>
      </trkpt>
      <trkpt lat="41.384398005902767" lon="-7.165817013010383">
        <ele>223.16</ele>
        <time>2025-05-02T14:02:13Z</time>
      </trkpt>
      <trkpt lat="41.384404040873051" lon="-7.165724979713559">
        <ele>222.68000000000001</ele>
        <time>2025-05-02T14:02:14Z</time>
      </trkpt>
      <trkpt lat="41.384404040873051" lon="-7.165652979165316">
        <ele>222.19999999999999</ele>
        <time>2025-05-02T14:02:15Z</time>
      </trkpt>
      <trkpt lat="41.384304966777563" lon="-7.165519958361983">
        <ele>221.24000000000001</ele>
        <time>2025-05-02T14:02:16Z</time>
      </trkpt>
      <trkpt lat="41.3842529989779" lon="-7.165523981675506">
        <ele>220.75999999999999</ele>
        <time>2025-05-02T14:02:17Z</time>
      </trkpt>
      <trkpt lat="41.384183010086417" lon="-7.16553102247417">
        <ele>219.80000000000001</ele>
        <time>2025-05-02T14:02:18Z</time>
      </trkpt>
      <trkpt lat="41.384097011759877" lon="-7.165542002767324">
        <ele>219.31999999999999</ele>
        <time>2025-05-02T14:02:19Z</time>
      </trkpt>
      <trkpt lat="41.383997015655041" lon="-7.165557006374002">
        <ele>218.84</ele>
        <time>2025-05-02T14:02:20Z</time>
      </trkpt>
      <trkpt lat="41.383354961872101" lon="-7.165732020512223">
        <ele>219.31999999999999</ele>
        <time>2025-05-02T14:02:25Z</time>
      </trkpt>
      <trkpt lat="41.382206976413727" lon="-7.166454959660769">
        <ele>226.05000000000001</ele>
        <time>2025-05-02T14:02:33Z</time>
      </trkpt>
      <trkpt lat="41.38146199285984" lon="-7.166876988485456">
        <ele>231.33000000000001</ele>
        <time>2025-05-02T14:02:40Z</time>
      </trkpt>
      <trkpt lat="41.381356967613101" lon="-7.166874976828694">
        <ele>231.81</ele>
        <time>2025-05-02T14:02:41Z</time>
      </trkpt>
      <trkpt lat="41.381236016750336" lon="-7.166861984878779">
        <ele>232.78</ele>
        <time>2025-05-02T14:02:42Z</time>
      </trkpt>
      <trkpt lat="41.38017101213336" lon="-7.166768023744226">
        <ele>239.02000000000001</ele>
        <time>2025-05-02T14:02:50Z</time>
      </trkpt>
      <trkpt lat="41.380036985501647" lon="-7.166773974895477">
        <ele>239.99000000000001</ele>
        <time>2025-05-02T14:02:51Z</time>
      </trkpt>
      <trkpt lat="41.379900025203824" lon="-7.166834995150566">
        <ele>240.94999999999999</ele>
        <time>2025-05-02T14:02:52Z</time>
      </trkpt>
      <trkpt lat="41.379774967208505" lon="-7.166919987648726">
        <ele>241.91</ele>
        <time>2025-05-02T14:02:53Z</time>
      </trkpt>
      <trkpt lat="41.379638006910682" lon="-7.16701596044004">
        <ele>243.34999999999999</ele>
        <time>2025-05-02T14:02:54Z</time>
      </trkpt>
      <trkpt lat="41.379524013027549" lon="-7.167150992900133">
        <ele>244.78999999999999</ele>
        <time>2025-05-02T14:02:55Z</time>
      </trkpt>
      <trkpt lat="41.379405995830894" lon="-7.167290970683098">
        <ele>245.75</ele>
        <time>2025-05-02T14:02:56Z</time>
      </trkpt>
      <trkpt lat="41.379284961149096" lon="-7.167434971779585">
        <ele>247.19999999999999</ele>
        <time>2025-05-02T14:02:57Z</time>
      </trkpt>
      <trkpt lat="41.378380972892046" lon="-7.168482961133122">
        <ele>256.81</ele>
        <time>2025-05-02T14:03:04Z</time>
      </trkpt>
      <trkpt lat="41.378231020644307" lon="-7.168598966673017">
        <ele>258.25</ele>
        <time>2025-05-02T14:03:05Z</time>
      </trkpt>
      <trkpt lat="41.378079978749156" lon="-7.168703991919756">
        <ele>259.20999999999998</ele>
        <time>2025-05-02T14:03:06Z</time>
      </trkpt>
      <trkpt lat="41.37791502289474" lon="-7.168782027438283">
        <ele>260.64999999999998</ele>
        <time>2025-05-02T14:03:07Z</time>
      </trkpt>
      <trkpt lat="41.377749983221292" lon="-7.168857967481017">
        <ele>262.10000000000002</ele>
        <time>2025-05-02T14:03:08Z</time>
      </trkpt>
      <trkpt lat="41.377578992396593" lon="-7.168899038806558">
        <ele>263.06</ele>
        <time>2025-05-02T14:03:09Z</time>
      </trkpt>
      <trkpt lat="41.375072970986366" lon="-7.169460961595178">
        <ele>280.83999999999997</ele>
        <time>2025-05-02T14:03:23Z</time>
      </trkpt>
      <trkpt lat="41.373045975342393" lon="-7.169739995151758">
        <ele>292.86000000000001</ele>
        <time>2025-05-02T14:03:34Z</time>
      </trkpt>
      <trkpt lat="41.372856041416526" lon="-7.169676041230559">
        <ele>294.30000000000001</ele>
        <time>2025-05-02T14:03:35Z</time>
      </trkpt>
      <trkpt lat="41.372667029500008" lon="-7.169596999883652">
        <ele>295.25999999999999</ele>
        <time>2025-05-02T14:03:36Z</time>
      </trkpt>
      <trkpt lat="41.372481035068631" lon="-7.169483006000519">
        <ele>296.69999999999999</ele>
        <time>2025-05-02T14:03:37Z</time>
      </trkpt>
      <trkpt lat="41.372293028980494" lon="-7.169369012117386">
        <ele>298.14999999999998</ele>
        <time>2025-05-02T14:03:38Z</time>
      </trkpt>
      <trkpt lat="41.370045002549887" lon="-7.167877033352852">
        <ele>311.60000000000002</ele>
        <time>2025-05-02T14:03:50Z</time>
      </trkpt>
      <trkpt lat="41.369145959615707" lon="-7.167345033958554">
        <ele>316.41000000000003</ele>
        <time>2025-05-02T14:03:55Z</time>
      </trkpt>
      <trkpt lat="41.368974968791008" lon="-7.167303962633014">
        <ele>317.85000000000002</ele>
        <time>2025-05-02T14:03:56Z</time>
      </trkpt>
      <trkpt lat="41.368802972137928" lon="-7.167270015925169">
        <ele>318.81</ele>
        <time>2025-05-02T14:03:57Z</time>
      </trkpt>
      <trkpt lat="41.368629969656467" lon="-7.167302034795284">
        <ele>320.25999999999999</ele>
        <time>2025-05-02T14:03:58Z</time>
      </trkpt>
      <trkpt lat="41.368456967175007" lon="-7.167361965402961">
        <ele>321.69999999999999</ele>
        <time>2025-05-02T14:03:59Z</time>
      </trkpt>
      <trkpt lat="41.368287988007069" lon="-7.167435977607966">
        <ele>322.66000000000003</ele>
        <time>2025-05-02T14:04:00Z</time>
      </trkpt>
      <trkpt lat="41.368114985525608" lon="-7.167512001469731">
        <ele>324.10000000000002</ele>
        <time>2025-05-02T14:04:01Z</time>
      </trkpt>
      <trkpt lat="41.367070013657212" lon="-7.168051963672042">
        <ele>331.31</ele>
        <time>2025-05-02T14:04:07Z</time>
      </trkpt>
      <trkpt lat="41.3669169601053" lon="-7.168200993910432">
        <ele>332.26999999999998</ele>
        <time>2025-05-02T14:04:08Z</time>
      </trkpt>
      <trkpt lat="41.366766002029181" lon="-7.168363016098738">
        <ele>333.23000000000002</ele>
        <time>2025-05-02T14:04:09Z</time>
      </trkpt>
      <trkpt lat="41.366255041211843" lon="-7.169105987995863">
        <ele>337.56</ele>
        <time>2025-05-02T14:04:13Z</time>
      </trkpt>
      <trkpt lat="41.366169964894652" lon="-7.169297011569142">
        <ele>338.04000000000002</ele>
        <time>2025-05-02T14:04:14Z</time>
      </trkpt>
      <trkpt lat="41.366131994873285" lon="-7.169519970193505">
        <ele>339</ele>
        <time>2025-05-02T14:04:15Z</time>
      </trkpt>
      <trkpt lat="41.365853967145085" lon="-7.171381004154682">
        <ele>345.73000000000002</ele>
        <time>2025-05-02T14:04:23Z</time>
      </trkpt>
      <trkpt lat="41.365851033478975" lon="-7.17161301523447">
        <ele>346.20999999999998</ele>
        <time>2025-05-02T14:04:24Z</time>
      </trkpt>
      <trkpt lat="41.366009032353759" lon="-7.173344967886806">
        <ele>353.42000000000002</ele>
        <time>2025-05-02T14:04:32Z</time>
      </trkpt>
      <trkpt lat="41.365967961028218" lon="-7.173499027267098">
        <ele>354.38</ele>
        <time>2025-05-02T14:04:33Z</time>
      </trkpt>
      <trkpt lat="41.365925967693329" lon="-7.173648979514837">
        <ele>355.33999999999997</ele>
        <time>2025-05-02T14:04:34Z</time>
      </trkpt>
      <trkpt lat="41.365850027650595" lon="-7.173774037510157">
        <ele>356.31</ele>
        <time>2025-05-02T14:04:35Z</time>
      </trkpt>
      <trkpt lat="41.365750031545758" lon="-7.173886019736528">
        <ele>357.26999999999998</ele>
        <time>2025-05-02T14:04:36Z</time>
      </trkpt>
      <trkpt lat="41.365650035440922" lon="-7.173944022506475">
        <ele>358.70999999999998</ele>
        <time>2025-05-02T14:04:37Z</time>
      </trkpt>
      <trkpt lat="41.365509973838925" lon="-7.17391099780798">
        <ele>359.67000000000002</ele>
        <time>2025-05-02T14:04:38Z</time>
      </trkpt>
      <trkpt lat="41.365382988005877" lon="-7.173881996423006">
        <ele>361.11000000000001</ele>
        <time>2025-05-02T14:04:39Z</time>
      </trkpt>
      <trkpt lat="41.365274023264647" lon="-7.17378200031817">
        <ele>362.55000000000001</ele>
        <time>2025-05-02T14:04:40Z</time>
      </trkpt>
      <trkpt lat="41.36515399441123" lon="-7.173661971464753">
        <ele>363.51999999999998</ele>
        <time>2025-05-02T14:04:41Z</time>
      </trkpt>
      <trkpt lat="41.365074031054974" lon="-7.173486035317183">
        <ele>364.48000000000002</ele>
        <time>2025-05-02T14:04:42Z</time>
      </trkpt>
      <trkpt lat="41.364997001364827" lon="-7.17328897677362">
        <ele>365.44</ele>
        <time>2025-05-02T14:04:43Z</time>
      </trkpt>
      <trkpt lat="41.3649189658463" lon="-7.173089990392327">
        <ele>365.92000000000002</ele>
        <time>2025-05-02T14:04:44Z</time>
      </trkpt>
      <trkpt lat="41.364841014146805" lon="-7.172888992354274">
        <ele>366.88</ele>
        <time>2025-05-02T14:04:45Z</time>
      </trkpt>
      <trkpt lat="41.364742023870349" lon="-7.172706015408039">
        <ele>368.31999999999999</ele>
        <time>2025-05-02T14:04:46Z</time>
      </trkpt>
      <trkpt lat="41.36461696587503" lon="-7.172563020139933">
        <ele>369.27999999999997</ele>
        <time>2025-05-02T14:04:47Z</time>
      </trkpt>
      <trkpt lat="41.364490985870361" lon="-7.172420024871826">
        <ele>370.73000000000002</ele>
        <time>2025-05-02T14:04:48Z</time>
      </trkpt>
      <trkpt lat="41.3643560372293" lon="-7.172319022938609">
        <ele>372.17000000000002</ele>
        <time>2025-05-02T14:04:49Z</time>
      </trkpt>
      <trkpt lat="41.36420700699091" lon="-7.17225699685514">
        <ele>373.61000000000001</ele>
        <time>2025-05-02T14:04:50Z</time>
      </trkpt>
      <trkpt lat="41.364054037258029" lon="-7.172209974378347">
        <ele>375.05000000000001</ele>
        <time>2025-05-02T14:04:51Z</time>
      </trkpt>
      <trkpt lat="41.363898972049356" lon="-7.172206034883857">
        <ele>376.49000000000001</ele>
        <time>2025-05-02T14:04:52Z</time>
      </trkpt>
      <trkpt lat="41.363741979002953" lon="-7.172218021005392">
        <ele>377.94</ele>
        <time>2025-05-02T14:04:53Z</time>
      </trkpt>
      <trkpt lat="41.363583980128169" lon="-7.172266971319914">
        <ele>379.38</ele>
        <time>2025-05-02T14:04:54Z</time>
      </trkpt>
      <trkpt lat="41.363435033708811" lon="-7.172355987131596">
        <ele>380.33999999999997</ele>
        <time>2025-05-02T14:04:55Z</time>
      </trkpt>
      <trkpt lat="41.363303018733859" lon="-7.172480961307883">
        <ele>381.77999999999997</ele>
        <time>2025-05-02T14:04:56Z</time>
      </trkpt>
      <trkpt lat="41.363161029294133" lon="-7.172612976282835">
        <ele>382.74000000000001</ele>
        <time>2025-05-02T14:04:57Z</time>
      </trkpt>
      <trkpt lat="41.363083999603987" lon="-7.172776004299521">
        <ele>383.69999999999999</ele>
        <time>2025-05-02T14:04:58Z</time>
      </trkpt>
      <trkpt lat="41.363001018762589" lon="-7.172954035922885">
        <ele>385.14999999999998</ele>
        <time>2025-05-02T14:04:59Z</time>
      </trkpt>
      <trkpt lat="41.36294100433588" lon="-7.173158973455429">
        <ele>386.11000000000001</ele>
        <time>2025-05-02T14:05:00Z</time>
      </trkpt>
      <trkpt lat="41.362885013222694" lon="-7.173371035605669">
        <ele>387.06999999999999</ele>
        <time>2025-05-02T14:05:01Z</time>
      </trkpt>
      <trkpt lat="41.362828016281128" lon="-7.173586031422019">
        <ele>388.02999999999997</ele>
        <time>2025-05-02T14:05:02Z</time>
      </trkpt>
      <trkpt lat="41.362715028226376" lon="-7.174013005569577">
        <ele>389.47000000000003</ele>
        <time>2025-05-02T14:05:04Z</time>
      </trkpt>
      <trkpt lat="41.362620983272791" lon="-7.17418902553618">
        <ele>390.43000000000001</ele>
        <time>2025-05-02T14:05:05Z</time>
      </trkpt>
      <trkpt lat="41.362520987167954" lon="-7.17436496168375">
        <ele>391.38999999999999</ele>
        <time>2025-05-02T14:05:06Z</time>
      </trkpt>
      <trkpt lat="41.362412022426724" lon="-7.17453695833683">
        <ele>392.36000000000001</ele>
        <time>2025-05-02T14:05:07Z</time>
      </trkpt>
      <trkpt lat="41.362263998016715" lon="-7.174638966098428">
        <ele>393.31999999999999</ele>
        <time>2025-05-02T14:05:08Z</time>
      </trkpt>
      <trkpt lat="41.362116979435086" lon="-7.174740973860025">
        <ele>394.27999999999997</ele>
        <time>2025-05-02T14:05:09Z</time>
      </trkpt>
      <trkpt lat="41.361981024965644" lon="-7.17483501881361">
        <ele>395.24000000000001</ele>
        <time>2025-05-02T14:05:10Z</time>
      </trkpt>
      <trkpt lat="41.361124981194735" lon="-7.175322007387877">
        <ele>399.56999999999999</ele>
        <time>2025-05-02T14:05:18Z</time>
      </trkpt>
      <trkpt lat="41.360607985407114" lon="-7.175653008744121">
        <ele>401.00999999999999</ele>
        <time>2025-05-02T14:05:24Z</time>
      </trkpt>
      <trkpt lat="41.360535984858871" lon="-7.175682010129094">
        <ele>401.49000000000001</ele>
        <time>2025-05-02T14:05:25Z</time>
      </trkpt>
      <trkpt lat="41.360455015674233" lon="-7.175682010129094">
        <ele>401.97000000000003</ele>
        <time>2025-05-02T14:05:26Z</time>
      </trkpt>
      <trkpt lat="41.360379997640848" lon="-7.175654014572501">
        <ele>401.97000000000003</ele>
        <time>2025-05-02T14:05:27Z</time>
      </trkpt>
      <trkpt lat="41.360306991264224" lon="-7.175596011802554">
        <ele>402.44999999999999</ele>
        <time>2025-05-02T14:05:28Z</time>
      </trkpt>
      <trkpt lat="41.360258962959051" lon="-7.175488974899054">
        <ele>402.44999999999999</ele>
        <time>2025-05-02T14:05:29Z</time>
      </trkpt>
      <trkpt lat="41.360210012644529" lon="-7.175384033471346">
        <ele>402.44999999999999</ele>
        <time>2025-05-02T14:05:30Z</time>
      </trkpt>
      <trkpt lat="41.360159972682595" lon="-7.175274984911084">
        <ele>402.93000000000001</ele>
        <time>2025-05-02T14:05:31Z</time>
      </trkpt>
      <trkpt lat="41.359964003786445" lon="-7.174844993278384">
        <ele>404.85000000000002</ele>
        <time>2025-05-02T14:05:35Z</time>
      </trkpt>
      <trkpt lat="41.359892003238201" lon="-7.174789002165198">
        <ele>405.32999999999998</ele>
        <time>2025-05-02T14:05:36Z</time>
      </trkpt>
      <trkpt lat="41.359821008518338" lon="-7.174734016880393">
        <ele>405.81</ele>
        <time>2025-05-02T14:05:37Z</time>
      </trkpt>
      <trkpt lat="41.359748002141714" lon="-7.174695041030645">
        <ele>406.29000000000002</ele>
        <time>2025-05-02T14:05:38Z</time>
      </trkpt>
      <trkpt lat="41.359673989936709" lon="-7.174695041030645">
        <ele>407.25999999999999</ele>
        <time>2025-05-02T14:05:39Z</time>
      </trkpt>
      <trkpt lat="41.359604001045227" lon="-7.174711972475052">
        <ele>407.74000000000001</ele>
        <time>2025-05-02T14:05:40Z</time>
      </trkpt>
      <trkpt lat="41.359543986618519" lon="-7.174777016043663">
        <ele>408.22000000000003</ele>
        <time>2025-05-02T14:05:41Z</time>
      </trkpt>
      <trkpt lat="41.359481038525701" lon="-7.174844993278384">
        <ele>408.69999999999999</ele>
        <time>2025-05-02T14:05:42Z</time>
      </trkpt>
      <trkpt lat="41.359420018270612" lon="-7.174910958856344">
        <ele>408.69999999999999</ele>
        <time>2025-05-02T14:05:43Z</time>
      </trkpt>
      <trkpt lat="41.359341982752085" lon="-7.174995029345155">
        <ele>409.18000000000001</ele>
        <time>2025-05-02T14:05:44Z</time>
      </trkpt>
      <trkpt lat="41.359309963881969" lon="-7.175040040165186">
        <ele>409.66000000000003</ele>
        <time>2025-05-02T14:05:45Z</time>
      </trkpt>
      <trkpt lat="41.359256990253925" lon="-7.17511497437954">
        <ele>410.13999999999999</ele>
        <time>2025-05-02T14:05:46Z</time>
      </trkpt>
      <trkpt lat="41.359141990542412" lon="-7.175274984911084">
        <ele>411.10000000000002</ele>
        <time>2025-05-02T14:05:48Z</time>
      </trkpt>
      <trkpt lat="41.359080970287323" lon="-7.175356959924102">
        <ele>412.06</ele>
        <time>2025-05-02T14:05:49Z</time>
      </trkpt>
      <trkpt lat="41.358489962294698" lon="-7.176285004243255">
        <ele>415.43000000000001</ele>
        <time>2025-05-02T14:05:57Z</time>
      </trkpt>
      <trkpt lat="41.357797030359507" lon="-7.177484035491943">
        <ele>420.23000000000002</ele>
        <time>2025-05-02T14:06:07Z</time>
      </trkpt>
      <trkpt lat="41.357687981799245" lon="-7.177593000233173">
        <ele>420.70999999999998</ele>
        <time>2025-05-02T14:06:08Z</time>
      </trkpt>
      <trkpt lat="41.357595026493073" lon="-7.177681010216475">
        <ele>421.68000000000001</ele>
        <time>2025-05-02T14:06:09Z</time>
      </trkpt>
      <trkpt lat="41.35748203843832" lon="-7.177738007158041">
        <ele>422.63999999999999</ele>
        <time>2025-05-02T14:06:10Z</time>
      </trkpt>
      <trkpt lat="41.357356980443001" lon="-7.177762985229492">
        <ele>424.07999999999998</ele>
        <time>2025-05-02T14:06:11Z</time>
      </trkpt>
      <trkpt lat="41.357224965468049" lon="-7.177758039906621">
        <ele>425.51999999999998</ele>
        <time>2025-05-02T14:06:12Z</time>
      </trkpt>
      <trkpt lat="41.35709404014051" lon="-7.177709005773068">
        <ele>426.48000000000002</ele>
        <time>2025-05-02T14:06:13Z</time>
      </trkpt>
      <trkpt lat="41.356981974095106" lon="-7.177598029375076">
        <ele>427.44</ele>
        <time>2025-05-02T14:06:14Z</time>
      </trkpt>
      <trkpt lat="41.356874015182257" lon="-7.177470959722996">
        <ele>428.39999999999998</ele>
        <time>2025-05-02T14:06:15Z</time>
      </trkpt>
      <trkpt lat="41.356789022684097" lon="-7.177320001646876">
        <ele>429.37</ele>
        <time>2025-05-02T14:06:16Z</time>
      </trkpt>
      <trkpt lat="41.356712998822331" lon="-7.177139958366752">
        <ele>429.85000000000002</ele>
        <time>2025-05-02T14:06:17Z</time>
      </trkpt>
      <trkpt lat="41.356633035466075" lon="-7.176950024440885">
        <ele>430.81</ele>
        <time>2025-05-02T14:06:18Z</time>
      </trkpt>
      <trkpt lat="41.356547959148884" lon="-7.176750032231212">
        <ele>431.76999999999998</ele>
        <time>2025-05-02T14:06:19Z</time>
      </trkpt>
      <trkpt lat="41.356460032984614" lon="-7.176540987566114">
        <ele>432.73000000000002</ele>
        <time>2025-05-02T14:06:20Z</time>
      </trkpt>
      <trkpt lat="41.356349978595972" lon="-7.176334960386157">
        <ele>433.20999999999998</ele>
        <time>2025-05-02T14:06:21Z</time>
      </trkpt>
      <trkpt lat="41.355236023664474" lon="-7.174798976629973">
        <ele>439.94</ele>
        <time>2025-05-02T14:06:29Z</time>
      </trkpt>
      <trkpt lat="41.354529010131955" lon="-7.17384503223002">
        <ele>445.70999999999998</ele>
        <time>2025-05-02T14:06:35Z</time>
      </trkpt>
      <trkpt lat="41.354409987106919" lon="-7.173684015870094">
        <ele>446.67000000000002</ele>
        <time>2025-05-02T14:06:36Z</time>
      </trkpt>
      <trkpt lat="41.354105975478888" lon="-7.173185041174293">
        <ele>449.55000000000001</ele>
        <time>2025-05-02T14:06:39Z</time>
      </trkpt>
      <trkpt lat="41.354030035436153" lon="-7.17300801537931">
        <ele>450.51999999999998</ele>
        <time>2025-05-02T14:06:40Z</time>
      </trkpt>
      <trkpt lat="41.353986030444503" lon="-7.172827972099185">
        <ele>451.48000000000002</ele>
        <time>2025-05-02T14:06:41Z</time>
      </trkpt>
      <trkpt lat="41.353961974382401" lon="-7.172620017081499">
        <ele>452.44</ele>
        <time>2025-05-02T14:06:42Z</time>
      </trkpt>
      <trkpt lat="41.353936996310949" lon="-7.172413989901543">
        <ele>453.39999999999998</ele>
        <time>2025-05-02T14:06:43Z</time>
      </trkpt>
      <trkpt lat="41.353815961629152" lon="-7.171607986092567">
        <ele>456.27999999999997</ele>
        <time>2025-05-02T14:06:47Z</time>
      </trkpt>
      <trkpt lat="41.353771034628153" lon="-7.171416962519288">
        <ele>456.75999999999999</ele>
        <time>2025-05-02T14:06:48Z</time>
      </trkpt>
      <trkpt lat="41.353719988837838" lon="-7.171197021380067">
        <ele>457.72000000000003</ele>
        <time>2025-05-02T14:06:49Z</time>
      </trkpt>
      <trkpt lat="41.353568024933338" lon="-7.170855961740017">
        <ele>459.17000000000002</ele>
        <time>2025-05-02T14:06:51Z</time>
      </trkpt>
      <trkpt lat="41.353460988029838" lon="-7.170699974521995">
        <ele>460.13</ele>
        <time>2025-05-02T14:06:52Z</time>
      </trkpt>
      <trkpt lat="41.353347999975085" lon="-7.170555973425508">
        <ele>461.08999999999997</ele>
        <time>2025-05-02T14:06:53Z</time>
      </trkpt>
      <trkpt lat="41.353237023577094" lon="-7.170414989814162">
        <ele>462.05000000000001</ele>
        <time>2025-05-02T14:06:54Z</time>
      </trkpt>
      <trkpt lat="41.353127975016832" lon="-7.170276017859578">
        <ele>463.00999999999999</ele>
        <time>2025-05-02T14:06:55Z</time>
      </trkpt>
      <trkpt lat="41.353027978911996" lon="-7.170128999277949">
        <ele>463.97000000000003</ele>
        <time>2025-05-02T14:06:56Z</time>
      </trkpt>
      <trkpt lat="41.352938963100314" lon="-7.16997804120183">
        <ele>464.44999999999999</ele>
        <time>2025-05-02T14:06:57Z</time>
      </trkpt>
      <trkpt lat="41.352861011400819" lon="-7.169845020398498">
        <ele>465.42000000000002</ele>
        <time>2025-05-02T14:06:58Z</time>
      </trkpt>
      <trkpt lat="41.352596981450915" lon="-7.169504966586828">
        <ele>468.30000000000001</ele>
        <time>2025-05-02T14:07:01Z</time>
      </trkpt>
      <trkpt lat="41.352505031973124" lon="-7.169446041807532">
        <ele>469.25999999999999</ele>
        <time>2025-05-02T14:07:02Z</time>
      </trkpt>
      <trkpt lat="41.352379973977804" lon="-7.169417040422559">
        <ele>470.22000000000003</ele>
        <time>2025-05-02T14:07:03Z</time>
      </trkpt>
      <trkpt lat="41.352248964831233" lon="-7.169386027380824">
        <ele>471.18000000000001</ele>
        <time>2025-05-02T14:07:04Z</time>
      </trkpt>
      <trkpt lat="41.352126002311707" lon="-7.169400025159121">
        <ele>471.66000000000003</ele>
        <time>2025-05-02T14:07:05Z</time>
      </trkpt>
      <trkpt lat="41.351988958194852" lon="-7.169450987130404">
        <ele>472.63</ele>
        <time>2025-05-02T14:07:06Z</time>
      </trkpt>
      <trkpt lat="41.351845040917397" lon="-7.169509995728731">
        <ele>473.58999999999997</ele>
        <time>2025-05-02T14:07:07Z</time>
      </trkpt>
      <trkpt lat="41.351723000407219" lon="-7.169632036238909">
        <ele>474.06999999999999</ele>
        <time>2025-05-02T14:07:08Z</time>
      </trkpt>
      <trkpt lat="41.351598026230931" lon="-7.169757010415196">
        <ele>475.02999999999997</ele>
        <time>2025-05-02T14:07:09Z</time>
      </trkpt>
      <trkpt lat="41.35118798352778" lon="-7.170154983177781">
        <ele>477.91000000000003</ele>
        <time>2025-05-02T14:07:12Z</time>
      </trkpt>
      <trkpt lat="41.351021016016603" lon="-7.170278029516339">
        <ele>478.87</ele>
        <time>2025-05-02T14:07:13Z</time>
      </trkpt>
      <trkpt lat="41.349644958972931" lon="-7.171088978648186">
        <ele>483.68000000000001</ele>
        <time>2025-05-02T14:07:21Z</time>
      </trkpt>
      <trkpt lat="41.349497018381953" lon="-7.171151004731655">
        <ele>484.16000000000003</ele>
        <time>2025-05-02T14:07:22Z</time>
      </trkpt>
      <trkpt lat="41.349352011457086" lon="-7.171127032488585">
        <ele>485.12</ele>
        <time>2025-05-02T14:07:23Z</time>
      </trkpt>
      <trkpt lat="41.349208010360599" lon="-7.171102976426482">
        <ele>485.60000000000002</ele>
        <time>2025-05-02T14:07:24Z</time>
      </trkpt>
      <trkpt lat="41.349072977900505" lon="-7.171050002798438">
        <ele>486.56</ele>
        <time>2025-05-02T14:07:25Z</time>
      </trkpt>
      <trkpt lat="41.348951021209359" lon="-7.170960986986756">
        <ele>487.52999999999997</ele>
        <time>2025-05-02T14:07:26Z</time>
      </trkpt>
      <trkpt lat="41.348843984305859" lon="-7.17083903029561">
        <ele>488.49000000000001</ele>
        <time>2025-05-02T14:07:27Z</time>
      </trkpt>
      <trkpt lat="41.348752034828067" lon="-7.170685976743698">
        <ele>489.93000000000001</ele>
        <time>2025-05-02T14:07:28Z</time>
      </trkpt>
      <trkpt lat="41.348660001531243" lon="-7.170511968433857">
        <ele>490.88999999999999</ele>
        <time>2025-05-02T14:07:29Z</time>
      </trkpt>
      <trkpt lat="41.348576014861465" lon="-7.170331003144383">
        <ele>492.32999999999998</ele>
        <time>2025-05-02T14:07:30Z</time>
      </trkpt>
      <trkpt lat="41.348338974639773" lon="-7.169816019013524">
        <ele>496.18000000000001</ele>
        <time>2025-05-02T14:07:33Z</time>
      </trkpt>
      <trkpt lat="41.348249036818743" lon="-7.169695990160108">
        <ele>497.62</ele>
        <time>2025-05-02T14:07:34Z</time>
      </trkpt>
      <trkpt lat="41.348140994086862" lon="-7.169588031247258">
        <ele>499.06</ele>
        <time>2025-05-02T14:07:35Z</time>
      </trkpt>
      <trkpt lat="41.348011996597052" lon="-7.169517036527395">
        <ele>500.5</ele>
        <time>2025-05-02T14:07:36Z</time>
      </trkpt>
      <trkpt lat="41.347877969965339" lon="-7.169457022100687">
        <ele>501.45999999999998</ele>
        <time>2025-05-02T14:07:37Z</time>
      </trkpt>
      <trkpt lat="41.347730029374361" lon="-7.169443024322391">
        <ele>502.43000000000001</ele>
        <time>2025-05-02T14:07:38Z</time>
      </trkpt>
      <trkpt lat="41.347580999135971" lon="-7.169451992958784">
        <ele>503.38999999999999</ele>
        <time>2025-05-02T14:07:39Z</time>
      </trkpt>
      <trkpt lat="41.34742702357471" lon="-7.169477976858616">
        <ele>504.35000000000002</ele>
        <time>2025-05-02T14:07:40Z</time>
      </trkpt>
      <trkpt lat="41.347276987507939" lon="-7.169549977406859">
        <ele>505.31</ele>
        <time>2025-05-02T14:07:41Z</time>
      </trkpt>
      <trkpt lat="41.347124017775059" lon="-7.169630024582148">
        <ele>505.79000000000002</ele>
        <time>2025-05-02T14:07:42Z</time>
      </trkpt>
      <trkpt lat="41.346968030557036" lon="-7.169710993766785">
        <ele>506.75</ele>
        <time>2025-05-02T14:07:43Z</time>
      </trkpt>
      <trkpt lat="41.34635497815907" lon="-7.1700210403651">
        <ele>509.63999999999999</ele>
        <time>2025-05-02T14:07:47Z</time>
      </trkpt>
      <trkpt lat="41.346201002597809" lon="-7.170050041750073">
        <ele>510.12</ele>
        <time>2025-05-02T14:07:48Z</time>
      </trkpt>
      <trkpt lat="41.346050966531038" lon="-7.170048030093312">
        <ele>511.07999999999998</ele>
        <time>2025-05-02T14:07:49Z</time>
      </trkpt>
      <trkpt lat="41.345895985141397" lon="-7.170029003173113">
        <ele>511.56</ele>
        <time>2025-05-02T14:07:50Z</time>
      </trkpt>
      <trkpt lat="41.345747960731387" lon="-7.169989021494985">
        <ele>512.03999999999996</ele>
        <time>2025-05-02T14:07:51Z</time>
      </trkpt>
      <trkpt lat="41.3456039596349" lon="-7.169916015118361">
        <ele>513</ele>
        <time>2025-05-02T14:07:52Z</time>
      </trkpt>
      <trkpt lat="41.344599975273013" lon="-7.169502032920718">
        <ele>517.80999999999995</ele>
        <time>2025-05-02T14:07:59Z</time>
      </trkpt>
      <trkpt lat="41.344452034682035" lon="-7.169524999335408">
        <ele>518.28999999999996</ele>
        <time>2025-05-02T14:08:00Z</time>
      </trkpt>
      <trkpt lat="41.344321025535464" lon="-7.169545032083988">
        <ele>518.76999999999998</ele>
        <time>2025-05-02T14:08:01Z</time>
      </trkpt>
      <trkpt lat="41.344206025823951" lon="-7.169627007097006">
        <ele>519.73000000000002</ele>
        <time>2025-05-02T14:08:02Z</time>
      </trkpt>
      <trkpt lat="41.344082979485393" lon="-7.169715017080307">
        <ele>520.21000000000004</ele>
        <time>2025-05-02T14:08:03Z</time>
      </trkpt>
      <trkpt lat="41.343978038057685" lon="-7.16982901096344">
        <ele>520.69000000000005</ele>
        <time>2025-05-02T14:08:04Z</time>
      </trkpt>
      <trkpt lat="41.34388298727572" lon="-7.169983992353082">
        <ele>521.64999999999998</ele>
        <time>2025-05-02T14:08:05Z</time>
      </trkpt>
      <trkpt lat="41.343792965635657" lon="-7.170159006491303">
        <ele>521.64999999999998</ele>
        <time>2025-05-02T14:08:06Z</time>
      </trkpt>
      <trkpt lat="41.343241017311811" lon="-7.171412017196417">
        <ele>528.38</ele>
        <time>2025-05-02T14:08:13Z</time>
      </trkpt>
      <trkpt lat="41.343179997056723" lon="-7.171580996364355">
        <ele>529.34000000000003</ele>
        <time>2025-05-02T14:08:14Z</time>
      </trkpt>
      <trkpt lat="41.343074971809983" lon="-7.171876039355993">
        <ele>530.78999999999996</ele>
        <time>2025-05-02T14:08:16Z</time>
      </trkpt>
      <trkpt lat="41.343019986525178" lon="-7.172005036845803">
        <ele>531.26999999999998</ele>
        <time>2025-05-02T14:08:17Z</time>
      </trkpt>
      <trkpt lat="41.342930970713496" lon="-7.172092963010073">
        <ele>531.75</ele>
        <time>2025-05-02T14:08:18Z</time>
      </trkpt>
      <trkpt lat="41.342827035114169" lon="-7.172145014628768">
        <ele>532.23000000000002</ele>
        <time>2025-05-02T14:08:19Z</time>
      </trkpt>
      <trkpt lat="41.342713041231036" lon="-7.172152977436781">
        <ele>533.19000000000005</ele>
        <time>2025-05-02T14:08:20Z</time>
      </trkpt>
      <trkpt lat="41.342583037912846" lon="-7.172163035720587">
        <ele>533.66999999999996</ele>
        <time>2025-05-02T14:08:21Z</time>
      </trkpt>
      <trkpt lat="41.342478012666106" lon="-7.172092963010073">
        <ele>534.63</ele>
        <time>2025-05-02T14:08:22Z</time>
      </trkpt>
      <trkpt lat="41.342370975762606" lon="-7.172002019360662">
        <ele>535.11000000000001</ele>
        <time>2025-05-02T14:08:23Z</time>
      </trkpt>
      <trkpt lat="41.34229201823473" lon="-7.17187000438571">
        <ele>536.07000000000005</ele>
        <time>2025-05-02T14:08:24Z</time>
      </trkpt>
      <trkpt lat="41.342246001586318" lon="-7.171714017167687">
        <ele>536.54999999999995</ele>
        <time>2025-05-02T14:08:25Z</time>
      </trkpt>
      <trkpt lat="41.342221023514867" lon="-7.171539003029466">
        <ele>537.02999999999997</ele>
        <time>2025-05-02T14:08:26Z</time>
      </trkpt>
      <trkpt lat="41.342194033786654" lon="-7.171348985284567">
        <ele>537.99000000000001</ele>
        <time>2025-05-02T14:08:27Z</time>
      </trkpt>
      <trkpt lat="41.342135025188327" lon="-7.170932991430163">
        <ele>539.44000000000005</ele>
        <time>2025-05-02T14:08:29Z</time>
      </trkpt>
      <trkpt lat="41.341875018551946" lon="-7.169888019561768">
        <ele>544.72000000000003</ele>
        <time>2025-05-02T14:08:34Z</time>
      </trkpt>
      <trkpt lat="41.341781979426742" lon="-7.169715017080307">
        <ele>546.16999999999996</ele>
        <time>2025-05-02T14:08:35Z</time>
      </trkpt>
      <trkpt lat="41.341703021898866" lon="-7.169565986841917">
        <ele>547.13</ele>
        <time>2025-05-02T14:08:36Z</time>
      </trkpt>
      <trkpt lat="41.341571006923914" lon="-7.169414022937417">
        <ele>548.57000000000005</ele>
        <time>2025-05-02T14:08:37Z</time>
      </trkpt>
      <trkpt lat="41.341453995555639" lon="-7.169281002134085">
        <ele>549.52999999999997</ele>
        <time>2025-05-02T14:08:38Z</time>
      </trkpt>
      <trkpt lat="41.341324998065829" lon="-7.169164996594191">
        <ele>550.97000000000003</ele>
        <time>2025-05-02T14:08:39Z</time>
      </trkpt>
      <trkpt lat="41.341183008626103" lon="-7.169061983004212">
        <ele>551.92999999999995</ele>
        <time>2025-05-02T14:08:40Z</time>
      </trkpt>
      <trkpt lat="41.341042025014758" lon="-7.168972967192531">
        <ele>552.89999999999998</ele>
        <time>2025-05-02T14:08:41Z</time>
      </trkpt>
      <trkpt lat="41.340891988947988" lon="-7.168918987736106">
        <ele>553.86000000000001</ele>
        <time>2025-05-02T14:08:42Z</time>
      </trkpt>
      <trkpt lat="41.340743964537978" lon="-7.168875988572836">
        <ele>554.82000000000005</ele>
        <time>2025-05-02T14:08:43Z</time>
      </trkpt>
      <trkpt lat="41.339687006548047" lon="-7.168875988572836">
        <ele>560.59000000000003</ele>
        <time>2025-05-02T14:08:49Z</time>
      </trkpt>
      <trkpt lat="41.338206008076668" lon="-7.169169019907713">
        <ele>568.27999999999997</ele>
        <time>2025-05-02T14:08:55Z</time>
      </trkpt>
      <trkpt lat="41.337584992870688" lon="-7.169350991025567">
        <ele>572.60000000000002</ele>
        <time>2025-05-02T14:08:58Z</time>
      </trkpt>
      <trkpt lat="41.337377959862351" lon="-7.169423997402191">
        <ele>573.55999999999995</ele>
        <time>2025-05-02T14:08:59Z</time>
      </trkpt>
      <trkpt lat="41.337185008451343" lon="-7.169538997113705">
        <ele>575.00999999999999</ele>
        <time>2025-05-02T14:09:00Z</time>
      </trkpt>
      <trkpt lat="41.336990967392921" lon="-7.169675035402179">
        <ele>575.97000000000003</ele>
        <time>2025-05-02T14:09:01Z</time>
      </trkpt>
      <trkpt lat="41.336807990446687" lon="-7.169833034276962">
        <ele>577.40999999999997</ele>
        <time>2025-05-02T14:09:02Z</time>
      </trkpt>
      <trkpt lat="41.334750987589359" lon="-7.171283019706607">
        <ele>590.87</ele>
        <time>2025-05-02T14:09:13Z</time>
      </trkpt>
      <trkpt lat="41.33191698230803" lon="-7.172309970483184">
        <ele>603.36000000000001</ele>
        <time>2025-05-02T14:09:26Z</time>
      </trkpt>
      <trkpt lat="41.330558024346828" lon="-7.17322301119566">
        <ele>609.61000000000001</ele>
        <time>2025-05-02T14:09:33Z</time>
      </trkpt>
      <trkpt lat="41.328677041456103" lon="-7.17492101714015">
        <ele>619.71000000000004</ele>
        <time>2025-05-02T14:09:44Z</time>
      </trkpt>
      <trkpt lat="41.326913991943002" lon="-7.175578996539116">
        <ele>627.39999999999998</ele>
        <time>2025-05-02T14:09:54Z</time>
      </trkpt>
      <trkpt lat="41.325867008417845" lon="-7.175771025940776">
        <ele>626.44000000000005</ele>
        <time>2025-05-02T14:10:02Z</time>
      </trkpt>
      <trkpt lat="41.324329013004899" lon="-7.176056010648608">
        <ele>622.11000000000001</ele>
        <time>2025-05-02T14:10:13Z</time>
      </trkpt>
      <trkpt lat="41.323340032249689" lon="-7.176239993423224">
        <ele>620.19000000000005</ele>
        <time>2025-05-02T14:10:20Z</time>
      </trkpt>
      <trkpt lat="41.322176959365606" lon="-7.176453983411193">
        <ele>618.25999999999999</ele>
        <time>2025-05-02T14:10:30Z</time>
      </trkpt>
      <trkpt lat="41.322080986574292" lon="-7.176453983411193">
        <ele>617.77999999999997</ele>
        <time>2025-05-02T14:10:31Z</time>
      </trkpt>
      <trkpt lat="41.321965986862779" lon="-7.176434034481645">
        <ele>617.77999999999997</ele>
        <time>2025-05-02T14:10:32Z</time>
      </trkpt>
      <trkpt lat="41.32186003960669" lon="-7.176387012004852">
        <ele>617.77999999999997</ele>
        <time>2025-05-02T14:10:33Z</time>
      </trkpt>
      <trkpt lat="41.321758031845093" lon="-7.176340995356441">
        <ele>617.29999999999995</ele>
        <time>2025-05-02T14:10:34Z</time>
      </trkpt>
      <trkpt lat="41.321657029911876" lon="-7.176285004243255">
        <ele>617.29999999999995</ele>
        <time>2025-05-02T14:10:35Z</time>
      </trkpt>
      <trkpt lat="41.321552004665136" lon="-7.176228007301688">
        <ele>617.29999999999995</ele>
        <time>2025-05-02T14:10:36Z</time>
      </trkpt>
      <trkpt lat="41.321086976677179" lon="-7.175851995125413">
        <ele>618.75</ele>
        <time>2025-05-02T14:10:41Z</time>
      </trkpt>
      <trkpt lat="41.321006007492542" lon="-7.175834979861975">
        <ele>619.23000000000002</ele>
        <time>2025-05-02T14:10:42Z</time>
      </trkpt>
      <trkpt lat="41.32093601860106" lon="-7.175840009003878">
        <ele>619.23000000000002</ele>
        <time>2025-05-02T14:10:43Z</time>
      </trkpt>
      <trkpt lat="41.320869969204068" lon="-7.175845038145781">
        <ele>619.71000000000004</ele>
        <time>2025-05-02T14:10:44Z</time>
      </trkpt>
      <trkpt lat="41.320801991969347" lon="-7.175848977640271">
        <ele>619.71000000000004</ele>
        <time>2025-05-02T14:10:45Z</time>
      </trkpt>
      <trkpt lat="41.320709958672523" lon="-7.17588996514678">
        <ele>620.19000000000005</ele>
        <time>2025-05-02T14:10:46Z</time>
      </trkpt>
      <trkpt lat="41.320640975609422" lon="-7.175979986786842">
        <ele>620.19000000000005</ele>
        <time>2025-05-02T14:10:47Z</time>
      </trkpt>
      <trkpt lat="41.320555983111262" lon="-7.176075037568808">
        <ele>619.71000000000004</ele>
        <time>2025-05-02T14:10:48Z</time>
      </trkpt>
      <trkpt lat="41.319670015946031" lon="-7.176752965897322">
        <ele>616.82000000000005</ele>
        <time>2025-05-02T14:10:55Z</time>
      </trkpt>
      <trkpt lat="41.318419016897678" lon="-7.177035016939044">
        <ele>612.01999999999998</ele>
        <time>2025-05-02T14:11:03Z</time>
      </trkpt>
      <trkpt lat="41.317038014531136" lon="-7.17715403996408">
        <ele>605.76999999999998</ele>
        <time>2025-05-02T14:11:14Z</time>
      </trkpt>
      <trkpt lat="41.316627971827984" lon="-7.177210031077266">
        <ele>603.85000000000002</ele>
        <time>2025-05-02T14:11:19Z</time>
      </trkpt>
      <trkpt lat="41.316557982936502" lon="-7.17722000554204">
        <ele>603.36000000000001</ele>
        <time>2025-05-02T14:11:20Z</time>
      </trkpt>
      <trkpt lat="41.316459998488426" lon="-7.177166026085615">
        <ele>602.88</ele>
        <time>2025-05-02T14:11:21Z</time>
      </trkpt>
      <trkpt lat="41.31640400737524" lon="-7.177100982517004">
        <ele>602.88</ele>
        <time>2025-05-02T14:11:22Z</time>
      </trkpt>
      <trkpt lat="41.316362014040351" lon="-7.176980031654239">
        <ele>602.88</ele>
        <time>2025-05-02T14:11:23Z</time>
      </trkpt>
      <trkpt lat="41.31636100821197" lon="-7.176836030557752">
        <ele>602.88</ele>
        <time>2025-05-02T14:11:24Z</time>
      </trkpt>
      <trkpt lat="41.316405013203621" lon="-7.176733016967773">
        <ele>602.88</ele>
        <time>2025-05-02T14:11:25Z</time>
      </trkpt>
      <trkpt lat="41.316409036517143" lon="-7.176635032519698">
        <ele>602.88</ele>
        <time>2025-05-02T14:11:26Z</time>
      </trkpt>
      <trkpt lat="41.316413981840014" lon="-7.176513997837901">
        <ele>602.88</ele>
        <time>2025-05-02T14:11:27Z</time>
      </trkpt>
      <trkpt lat="41.316419010981917" lon="-7.176390029489994">
        <ele>603.36000000000001</ele>
        <time>2025-05-02T14:11:28Z</time>
      </trkpt>
      <trkpt lat="41.31642404012382" lon="-7.176264971494675">
        <ele>603.36000000000001</ele>
        <time>2025-05-02T14:11:29Z</time>
      </trkpt>
      <trkpt lat="41.316375005990267" lon="-7.176132034510374">
        <ele>603.36000000000001</ele>
        <time>2025-05-02T14:11:30Z</time>
      </trkpt>
      <trkpt lat="41.316304011270404" lon="-7.17601602897048">
        <ele>603.36000000000001</ele>
        <time>2025-05-02T14:11:31Z</time>
      </trkpt>
      <trkpt lat="41.316222036257386" lon="-7.175879990682006">
        <ele>603.85000000000002</ele>
        <time>2025-05-02T14:11:32Z</time>
      </trkpt>
      <trkpt lat="41.316130002960563" lon="-7.175728026777506">
        <ele>603.85000000000002</ele>
        <time>2025-05-02T14:11:33Z</time>
      </trkpt>
      <trkpt lat="41.316033024340868" lon="-7.175568016245961">
        <ele>603.85000000000002</ele>
        <time>2025-05-02T14:11:34Z</time>
      </trkpt>
      <trkpt lat="41.315461965277791" lon="-7.174674002453685">
        <ele>604.80999999999995</ele>
        <time>2025-05-02T14:11:41Z</time>
      </trkpt>
      <trkpt lat="41.314267963171005" lon="-7.17279695905745">
        <ele>608.64999999999998</ele>
        <time>2025-05-02T14:11:57Z</time>
      </trkpt>
      <trkpt lat="41.313289040699601" lon="-7.171258041635156">
        <ele>611.05999999999995</ele>
        <time>2025-05-02T14:12:11Z</time>
      </trkpt>
      <trkpt lat="41.312268963083625" lon="-7.169665982946754">
        <ele>606.73000000000002</ele>
        <time>2025-05-02T14:12:24Z</time>
      </trkpt>
      <trkpt lat="41.31133203394711" lon="-7.16819797642529">
        <ele>600.96000000000004</ele>
        <time>2025-05-02T14:12:37Z</time>
      </trkpt>
      <trkpt lat="41.311014024540782" lon="-7.167722973972559">
        <ele>598.08000000000004</ele>
        <time>2025-05-02T14:12:42Z</time>
      </trkpt>
      <trkpt lat="41.310955015942454" lon="-7.167634963989258">
        <ele>597.60000000000002</ele>
        <time>2025-05-02T14:12:43Z</time>
      </trkpt>
      <trkpt lat="41.310885027050972" lon="-7.167545026168227">
        <ele>596.63999999999999</ele>
        <time>2025-05-02T14:12:44Z</time>
      </trkpt>
      <trkpt lat="41.310815960168839" lon="-7.167493980377913">
        <ele>596.14999999999998</ele>
        <time>2025-05-02T14:12:45Z</time>
      </trkpt>
      <trkpt lat="41.310674976557493" lon="-7.167619038373232">
        <ele>596.14999999999998</ele>
        <time>2025-05-02T14:12:46Z</time>
      </trkpt>
      <trkpt lat="41.310611022636294" lon="-7.167460033670068">
        <ele>595.66999999999996</ele>
        <time>2025-05-02T14:12:47Z</time>
      </trkpt>
      <trkpt lat="41.310692997649312" lon="-7.167303962633014">
        <ele>595.19000000000005</ele>
        <time>2025-05-02T14:12:48Z</time>
      </trkpt>
      <trkpt lat="41.310647986829281" lon="-7.167202960699797">
        <ele>594.71000000000004</ele>
        <time>2025-05-02T14:12:49Z</time>
      </trkpt>
      <trkpt lat="41.310611022636294" lon="-7.167119979858398">
        <ele>594.71000000000004</ele>
        <time>2025-05-02T14:12:50Z</time>
      </trkpt>
      <trkpt lat="41.310540027916431" lon="-7.166999028995633">
        <ele>594.23000000000002</ele>
        <time>2025-05-02T14:12:51Z</time>
      </trkpt>
      <trkpt lat="41.310480013489723" lon="-7.166900038719177">
        <ele>593.75</ele>
        <time>2025-05-02T14:12:52Z</time>
      </trkpt>
      <trkpt lat="41.310418993234634" lon="-7.16679803095758">
        <ele>593.26999999999998</ele>
        <time>2025-05-02T14:12:53Z</time>
      </trkpt>
      <trkpt lat="41.310357972979546" lon="-7.166694011539221">
        <ele>592.30999999999995</ele>
        <time>2025-05-02T14:12:54Z</time>
      </trkpt>
      <trkpt lat="41.310297036543489" lon="-7.166590997949243">
        <ele>591.83000000000004</ele>
        <time>2025-05-02T14:12:55Z</time>
      </trkpt>
      <trkpt lat="41.310069970786572" lon="-7.166164023801684">
        <ele>589.90999999999997</ele>
        <time>2025-05-02T14:12:59Z</time>
      </trkpt>
      <trkpt lat="41.310020014643669" lon="-7.16604801826179">
        <ele>589.42999999999995</ele>
        <time>2025-05-02T14:13:00Z</time>
      </trkpt>
      <trkpt lat="41.309932004660368" lon="-7.165801003575325">
        <ele>588.95000000000005</ele>
        <time>2025-05-02T14:13:02Z</time>
      </trkpt>
      <trkpt lat="41.309907026588917" lon="-7.165664965286851">
        <ele>588.46000000000004</ele>
        <time>2025-05-02T14:13:03Z</time>
      </trkpt>
      <trkpt lat="41.309881964698434" lon="-7.165523981675506">
        <ele>587.98000000000002</ele>
        <time>2025-05-02T14:13:04Z</time>
      </trkpt>
      <trkpt lat="41.309917001053691" lon="-7.164349006488919">
        <ele>584.13999999999999</ele>
        <time>2025-05-02T14:13:12Z</time>
      </trkpt>
      <trkpt lat="41.309922030195594" lon="-7.164207017049193">
        <ele>583.65999999999997</ele>
        <time>2025-05-02T14:13:13Z</time>
      </trkpt>
      <trkpt lat="41.309909038245678" lon="-7.163233961910009">
        <ele>578.85000000000002</ele>
        <time>2025-05-02T14:13:20Z</time>
      </trkpt>
      <trkpt lat="41.30987299606204" lon="-7.163109993562102">
        <ele>578.37</ele>
        <time>2025-05-02T14:13:21Z</time>
      </trkpt>
      <trkpt lat="41.309823961928487" lon="-7.163001028820872">
        <ele>577.88999999999999</ele>
        <time>2025-05-02T14:13:22Z</time>
      </trkpt>
      <trkpt lat="41.309759002178907" lon="-7.162886029109359">
        <ele>577.40999999999997</ele>
        <time>2025-05-02T14:13:23Z</time>
      </trkpt>
      <trkpt lat="41.309693036600947" lon="-7.162771029397845">
        <ele>576.45000000000005</ele>
        <time>2025-05-02T14:13:24Z</time>
      </trkpt>
      <trkpt lat="41.309626987203956" lon="-7.162655023857951">
        <ele>575.97000000000003</ele>
        <time>2025-05-02T14:13:25Z</time>
      </trkpt>
      <trkpt lat="41.30875401198864" lon="-7.161234961822629">
        <ele>569.24000000000001</ele>
        <time>2025-05-02T14:13:39Z</time>
      </trkpt>
      <trkpt lat="41.308333994820714" lon="-7.160414038226008">
        <ele>565.38999999999999</ele>
        <time>2025-05-02T14:13:47Z</time>
      </trkpt>
      <trkpt lat="41.30821798928082" lon="-7.159963008016348">
        <ele>563.95000000000005</ele>
        <time>2025-05-02T14:13:50Z</time>
      </trkpt>
      <trkpt lat="41.30819896236062" lon="-7.159805009141564">
        <ele>563.47000000000003</ele>
        <time>2025-05-02T14:13:51Z</time>
      </trkpt>
      <trkpt lat="41.308180019259453" lon="-7.159648016095161">
        <ele>563.47000000000003</ele>
        <time>2025-05-02T14:13:52Z</time>
      </trkpt>
      <trkpt lat="41.308165015652776" lon="-7.15949596837163">
        <ele>562.99000000000001</ele>
        <time>2025-05-02T14:13:53Z</time>
      </trkpt>
      <trkpt lat="41.308165015652776" lon="-7.159350961446762">
        <ele>562.50999999999999</ele>
        <time>2025-05-02T14:13:54Z</time>
      </trkpt>
      <trkpt lat="41.308170966804028" lon="-7.159223975613713">
        <ele>562.02999999999997</ele>
        <time>2025-05-02T14:13:55Z</time>
      </trkpt>
      <trkpt lat="41.308182030916214" lon="-7.159105958417058">
        <ele>562.02999999999997</ele>
        <time>2025-05-02T14:13:56Z</time>
      </trkpt>
      <trkpt lat="41.30832502618432" lon="-7.157973982393742">
        <ele>562.99000000000001</ele>
        <time>2025-05-02T14:14:06Z</time>
      </trkpt>
      <trkpt lat="41.308517977595329" lon="-7.157345004379749">
        <ele>566.35000000000002</ele>
        <time>2025-05-02T14:14:13Z</time>
      </trkpt>
      <trkpt lat="41.308531975373626" lon="-7.157308040186763">
        <ele>566.35000000000002</ele>
        <time>2025-05-02T14:14:14Z</time>
      </trkpt>
      <trkpt lat="41.308658961206675" lon="-7.156948037445545">
        <ele>566.35000000000002</ele>
        <time>2025-05-02T14:14:25Z</time>
      </trkpt>
      <trkpt lat="41.308678993955255" lon="-7.156887017190456">
        <ele>566.35000000000002</ele>
        <time>2025-05-02T14:14:26Z</time>
      </trkpt>
      <trkpt lat="41.308699026703835" lon="-7.156805964186788">
        <ele>566.35000000000002</ele>
        <time>2025-05-02T14:14:27Z</time>
      </trkpt>
      <trkpt lat="41.308684023097157" lon="-7.156733963638544">
        <ele>565.87</ele>
        <time>2025-05-02T14:14:28Z</time>
      </trkpt>
      <trkpt lat="41.308661978691816" lon="-7.15665802359581">
        <ele>565.87</ele>
        <time>2025-05-02T14:14:29Z</time>
      </trkpt>
      <trkpt lat="41.308440025895834" lon="-7.1559729706496">
        <ele>564.90999999999997</ele>
        <time>2025-05-02T14:14:39Z</time>
      </trkpt>
      <trkpt lat="41.308322008699179" lon="-7.155761998146772">
        <ele>563.95000000000005</ele>
        <time>2025-05-02T14:14:42Z</time>
      </trkpt>
      <trkpt lat="41.308279009535909" lon="-7.155696032568812">
        <ele>563.95000000000005</ele>
        <time>2025-05-02T14:14:43Z</time>
      </trkpt>
      <trkpt lat="41.308118999004364" lon="-7.155444994568825">
        <ele>562.02999999999997</ele>
        <time>2025-05-02T14:14:47Z</time>
      </trkpt>
      <trkpt lat="41.308079017326236" lon="-7.155382968485355">
        <ele>561.54999999999995</ele>
        <time>2025-05-02T14:14:48Z</time>
      </trkpt>
      <trkpt lat="41.307990001514554" lon="-7.155168978497386">
        <ele>561.07000000000005</ele>
        <time>2025-05-02T14:14:51Z</time>
      </trkpt>
      <trkpt lat="41.307963011786342" lon="-7.154996981844306">
        <ele>560.59000000000003</ele>
        <time>2025-05-02T14:14:53Z</time>
      </trkpt>
      <trkpt lat="41.307949014008045" lon="-7.154907966032624">
        <ele>560.11000000000001</ele>
        <time>2025-05-02T14:14:54Z</time>
      </trkpt>
      <trkpt lat="41.307935016229749" lon="-7.154820039868355">
        <ele>559.62</ele>
        <time>2025-05-02T14:14:55Z</time>
      </trkpt>
      <trkpt lat="41.307739969342947" lon="-7.154015963897109">
        <ele>556.25999999999999</ele>
        <time>2025-05-02T14:15:04Z</time>
      </trkpt>
      <trkpt lat="41.307706022635102" lon="-7.153939018025994">
        <ele>555.77999999999997</ele>
        <time>2025-05-02T14:15:05Z</time>
      </trkpt>
      <trkpt lat="41.307626981288195" lon="-7.153798034414649">
        <ele>554.82000000000005</ele>
        <time>2025-05-02T14:15:07Z</time>
      </trkpt>
      <trkpt lat="41.307583982124925" lon="-7.153739025816321">
        <ele>554.34000000000003</ele>
        <time>2025-05-02T14:15:08Z</time>
      </trkpt>
      <trkpt lat="41.307538971304893" lon="-7.153676999732852">
        <ele>553.86000000000001</ele>
        <time>2025-05-02T14:15:09Z</time>
      </trkpt>
      <trkpt lat="41.307479962706566" lon="-7.153610028326511">
        <ele>553.38</ele>
        <time>2025-05-02T14:15:10Z</time>
      </trkpt>
      <trkpt lat="41.307408967986703" lon="-7.153570968657732">
        <ele>552.89999999999998</ele>
        <time>2025-05-02T14:15:11Z</time>
      </trkpt>
      <trkpt lat="41.30733797326684" lon="-7.153558982536197">
        <ele>552.40999999999997</ele>
        <time>2025-05-02T14:15:12Z</time>
      </trkpt>
      <trkpt lat="41.307224985212088" lon="-7.153552025556564">
        <ele>551.92999999999995</ele>
        <time>2025-05-02T14:15:14Z</time>
      </trkpt>
      <trkpt lat="41.307066986337304" lon="-7.153531992807984">
        <ele>550.97000000000003</ele>
        <time>2025-05-02T14:15:17Z</time>
      </trkpt>
      <trkpt lat="41.307022981345654" lon="-7.15347801335156">
        <ele>550.49000000000001</ele>
        <time>2025-05-02T14:15:18Z</time>
      </trkpt>
      <trkpt lat="41.306980988010764" lon="-7.153425039723516">
        <ele>550.49000000000001</ele>
        <time>2025-05-02T14:15:19Z</time>
      </trkpt>
      <trkpt lat="41.306905969977379" lon="-7.15330601669848">
        <ele>550.00999999999999</ele>
        <time>2025-05-02T14:15:21Z</time>
      </trkpt>
      <trkpt lat="41.306867999956012" lon="-7.153246002271771">
        <ele>550.00999999999999</ele>
        <time>2025-05-02T14:15:22Z</time>
      </trkpt>
      <trkpt lat="41.306773032993078" lon="-7.153139971196652">
        <ele>549.52999999999997</ele>
        <time>2025-05-02T14:15:24Z</time>
      </trkpt>
      <trkpt lat="41.306669013574719" lon="-7.153050033375621">
        <ele>549.04999999999995</ele>
        <time>2025-05-02T14:15:26Z</time>
      </trkpt>
      <trkpt lat="41.306617967784405" lon="-7.15300602838397">
        <ele>548.57000000000005</ele>
        <time>2025-05-02T14:15:27Z</time>
      </trkpt>
      <trkpt lat="41.306562982499599" lon="-7.152956994250417">
        <ele>548.57000000000005</ele>
        <time>2025-05-02T14:15:28Z</time>
      </trkpt>
      <trkpt lat="41.306501962244511" lon="-7.152905026450753">
        <ele>548.09000000000003</ele>
        <time>2025-05-02T14:15:29Z</time>
      </trkpt>
      <trkpt lat="41.306443037465215" lon="-7.152853980660439">
        <ele>547.61000000000001</ele>
        <time>2025-05-02T14:15:30Z</time>
      </trkpt>
      <trkpt lat="41.306378999724984" lon="-7.152796983718872">
        <ele>547.61000000000001</ele>
        <time>2025-05-02T14:15:31Z</time>
      </trkpt>
      <trkpt lat="41.306318985298276" lon="-7.152745015919209">
        <ele>547.13</ele>
        <time>2025-05-02T14:15:32Z</time>
      </trkpt>
      <trkpt lat="41.305483980104327" lon="-7.152052000164986">
        <ele>539.91999999999996</ele>
        <time>2025-05-02T14:15:46Z</time>
      </trkpt>
      <trkpt lat="41.305363029241562" lon="-7.151937000453472">
        <ele>538.96000000000004</ele>
        <time>2025-05-02T14:15:48Z</time>
      </trkpt>
      <trkpt lat="41.305246017873287" lon="-7.151882015168667">
        <ele>538.48000000000002</ele>
        <time>2025-05-02T14:15:49Z</time>
      </trkpt>
      <trkpt lat="41.305283987894654" lon="-7.151722004637122">
        <ele>537.99000000000001</ele>
        <time>2025-05-02T14:15:50Z</time>
      </trkpt>
      <trkpt lat="41.305236965417862" lon="-7.151602981612086">
        <ele>537.99000000000001</ele>
        <time>2025-05-02T14:15:51Z</time>
      </trkpt>
      <trkpt lat="41.305192960426211" lon="-7.151470966637135">
        <ele>537.50999999999999</ele>
        <time>2025-05-02T14:15:52Z</time>
      </trkpt>
      <trkpt lat="41.305086007341743" lon="-7.150712991133332">
        <ele>537.99000000000001</ele>
        <time>2025-05-02T14:15:57Z</time>
      </trkpt>
      <trkpt lat="41.305039990693331" lon="-7.150279982015491">
        <ele>538.48000000000002</ele>
        <time>2025-05-02T14:16:00Z</time>
      </trkpt>
      <trkpt lat="41.304787024855614" lon="-7.149179019033909">
        <ele>537.50999999999999</ele>
        <time>2025-05-02T14:16:08Z</time>
      </trkpt>
      <trkpt lat="41.304734973236918" lon="-7.149067958816886">
        <ele>537.50999999999999</ele>
        <time>2025-05-02T14:16:09Z</time>
      </trkpt>
      <trkpt lat="41.304683005437255" lon="-7.148956982418895">
        <ele>537.50999999999999</ele>
        <time>2025-05-02T14:16:10Z</time>
      </trkpt>
      <trkpt lat="41.304615028202534" lon="-7.148877019062638">
        <ele>537.02999999999997</ele>
        <time>2025-05-02T14:16:11Z</time>
      </trkpt>
      <trkpt lat="41.304535986855626" lon="-7.148806024342775">
        <ele>537.02999999999997</ele>
        <time>2025-05-02T14:16:12Z</time>
      </trkpt>
      <trkpt lat="41.30443599075079" lon="-7.14873100630939">
        <ele>537.02999999999997</ele>
        <time>2025-05-02T14:16:13Z</time>
      </trkpt>
      <trkpt lat="41.30433096550405" lon="-7.14873100630939">
        <ele>536.54999999999995</ele>
        <time>2025-05-02T14:16:14Z</time>
      </trkpt>
      <trkpt lat="41.304219989106059" lon="-7.148765036836267">
        <ele>536.07000000000005</ele>
        <time>2025-05-02T14:16:15Z</time>
      </trkpt>
      <trkpt lat="41.304118987172842" lon="-7.148808035999537">
        <ele>535.59000000000003</ele>
        <time>2025-05-02T14:16:16Z</time>
      </trkpt>
      <trkpt lat="41.304012034088373" lon="-7.148852963000536">
        <ele>535.59000000000003</ele>
        <time>2025-05-02T14:16:17Z</time>
      </trkpt>
      <trkpt lat="41.303451033309102" lon="-7.149045998230577">
        <ele>532.23000000000002</ele>
        <time>2025-05-02T14:16:22Z</time>
      </trkpt>
      <trkpt lat="41.303331004455686" lon="-7.149035017937422">
        <ele>531.26999999999998</ele>
        <time>2025-05-02T14:16:23Z</time>
      </trkpt>
      <trkpt lat="41.303218016400933" lon="-7.148973997682333">
        <ele>530.78999999999996</ele>
        <time>2025-05-02T14:16:24Z</time>
      </trkpt>
      <trkpt lat="41.303109973669052" lon="-7.148883976042271">
        <ele>530.29999999999995</ele>
        <time>2025-05-02T14:16:25Z</time>
      </trkpt>
      <trkpt lat="41.303021041676402" lon="-7.148761013522744">
        <ele>529.82000000000005</ele>
        <time>2025-05-02T14:16:26Z</time>
      </trkpt>
      <trkpt lat="41.30293102003634" lon="-7.148634027689695">
        <ele>529.34000000000003</ele>
        <time>2025-05-02T14:16:27Z</time>
      </trkpt>
      <trkpt lat="41.302743013948202" lon="-7.148371003568173">
        <ele>528.86000000000001</ele>
        <time>2025-05-02T14:16:29Z</time>
      </trkpt>
      <trkpt lat="41.302665984258056" lon="-7.148203030228615">
        <ele>528.86000000000001</ele>
        <time>2025-05-02T14:16:30Z</time>
      </trkpt>
      <trkpt lat="41.302617033943534" lon="-7.148026004433632">
        <ele>528.38</ele>
        <time>2025-05-02T14:16:31Z</time>
      </trkpt>
      <trkpt lat="41.302492981776595" lon="-7.147514959797263">
        <ele>527.41999999999996</ele>
        <time>2025-05-02T14:16:34Z</time>
      </trkpt>
      <trkpt lat="41.302412012591958" lon="-7.147413035854697">
        <ele>526.94000000000005</ele>
        <time>2025-05-02T14:16:35Z</time>
      </trkpt>
      <trkpt lat="41.302306987345219" lon="-7.147340029478073">
        <ele>526.46000000000004</ele>
        <time>2025-05-02T14:16:36Z</time>
      </trkpt>
      <trkpt lat="41.302195005118847" lon="-7.147262999787927">
        <ele>525.98000000000002</ele>
        <time>2025-05-02T14:16:37Z</time>
      </trkpt>
      <trkpt lat="41.302083022892475" lon="-7.1471849642694">
        <ele>525.01999999999998</ele>
        <time>2025-05-02T14:16:38Z</time>
      </trkpt>
      <trkpt lat="41.3019660115242" lon="-7.147105000913143">
        <ele>525.01999999999998</ele>
        <time>2025-05-02T14:16:39Z</time>
      </trkpt>
      <trkpt lat="41.301835002377629" lon="-7.1470139734447">
        <ele>524.53999999999996</ele>
        <time>2025-05-02T14:16:40Z</time>
      </trkpt>
      <trkpt lat="41.301760990172625" lon="-7.146891010925174">
        <ele>524.05999999999995</ele>
        <time>2025-05-02T14:16:41Z</time>
      </trkpt>
      <trkpt lat="41.301691001281142" lon="-7.146737035363913">
        <ele>524.05999999999995</ele>
        <time>2025-05-02T14:16:42Z</time>
      </trkpt>
      <trkpt lat="41.301653031259775" lon="-7.146574007347226">
        <ele>523.58000000000004</ele>
        <time>2025-05-02T14:16:43Z</time>
      </trkpt>
      <trkpt lat="41.301612965762615" lon="-7.146408967673779">
        <ele>523.58000000000004</ele>
        <time>2025-05-02T14:16:44Z</time>
      </trkpt>
      <trkpt lat="41.301556974649429" lon="-7.146264966577292">
        <ele>523.58000000000004</ele>
        <time>2025-05-02T14:16:45Z</time>
      </trkpt>
      <trkpt lat="41.301469970494509" lon="-7.146091964095831">
        <ele>523.58000000000004</ele>
        <time>2025-05-02T14:16:46Z</time>
      </trkpt>
      <trkpt lat="41.301380032673478" lon="-7.14602398686111">
        <ele>523.58000000000004</ele>
        <time>2025-05-02T14:16:47Z</time>
      </trkpt>
      <trkpt lat="41.301262015476823" lon="-7.14595902711153">
        <ele>524.05999999999995</ele>
        <time>2025-05-02T14:16:48Z</time>
      </trkpt>
      <trkpt lat="41.301128994673491" lon="-7.145944023504853">
        <ele>524.05999999999995</ele>
        <time>2025-05-02T14:16:49Z</time>
      </trkpt>
      <trkpt lat="41.300989016890526" lon="-7.145929019898176">
        <ele>524.53999999999996</ele>
        <time>2025-05-02T14:16:50Z</time>
      </trkpt>
      <trkpt lat="41.300849039107561" lon="-7.145934971049428">
        <ele>524.53999999999996</ele>
        <time>2025-05-02T14:16:51Z</time>
      </trkpt>
      <trkpt lat="41.300580985844135" lon="-7.145999008789659">
        <ele>525.5</ele>
        <time>2025-05-02T14:16:53Z</time>
      </trkpt>
      <trkpt lat="41.300445031374693" lon="-7.146051982417703">
        <ele>525.98000000000002</ele>
        <time>2025-05-02T14:16:54Z</time>
      </trkpt>
      <trkpt lat="41.300357021391392" lon="-7.146183997392654">
        <ele>526.46000000000004</ele>
        <time>2025-05-02T14:16:55Z</time>
      </trkpt>
      <trkpt lat="41.300263982266188" lon="-7.146323975175619">
        <ele>526.46000000000004</ele>
        <time>2025-05-02T14:16:56Z</time>
      </trkpt>
      <trkpt lat="41.300160968676209" lon="-7.146478034555912">
        <ele>526.46000000000004</ele>
        <time>2025-05-02T14:16:57Z</time>
      </trkpt>
      <trkpt lat="41.300076982006431" lon="-7.14662597514689">
        <ele>526.46000000000004</ele>
        <time>2025-05-02T14:16:58Z</time>
      </trkpt>
      <trkpt lat="41.299971034750342" lon="-7.14675597846508">
        <ele>526.46000000000004</ele>
        <time>2025-05-02T14:16:59Z</time>
      </trkpt>
      <trkpt lat="41.299866009503603" lon="-7.146885981783271">
        <ele>526.46000000000004</ele>
        <time>2025-05-02T14:17:00Z</time>
      </trkpt>
      <trkpt lat="41.299762995913625" lon="-7.146982960402966">
        <ele>526.46000000000004</ele>
        <time>2025-05-02T14:17:01Z</time>
      </trkpt>
      <trkpt lat="41.299631986767054" lon="-7.147028977051377">
        <ele>526.46000000000004</ele>
        <time>2025-05-02T14:17:02Z</time>
      </trkpt>
      <trkpt lat="41.299500977620482" lon="-7.14707599952817">
        <ele>526.94000000000005</ele>
        <time>2025-05-02T14:17:03Z</time>
      </trkpt>
      <trkpt lat="41.298704026266932" lon="-7.147164009511471">
        <ele>527.89999999999998</ele>
        <time>2025-05-02T14:17:09Z</time>
      </trkpt>
      <trkpt lat="41.298605035990477" lon="-7.147137019783258">
        <ele>527.89999999999998</ele>
        <time>2025-05-02T14:17:10Z</time>
      </trkpt>
      <trkpt lat="41.298508979380131" lon="-7.147089997306466">
        <ele>527.89999999999998</ele>
        <time>2025-05-02T14:17:11Z</time>
      </trkpt>
      <trkpt lat="41.298430021852255" lon="-7.147027971222997">
        <ele>527.89999999999998</ele>
        <time>2025-05-02T14:17:12Z</time>
      </trkpt>
      <trkpt lat="41.298375958576798" lon="-7.146914983168244">
        <ele>527.89999999999998</ele>
        <time>2025-05-02T14:17:13Z</time>
      </trkpt>
      <trkpt lat="41.29833203740418" lon="-7.146790008991957">
        <ele>527.89999999999998</ele>
        <time>2025-05-02T14:17:14Z</time>
      </trkpt>
      <trkpt lat="41.298287026584148" lon="-7.146661011502147">
        <ele>528.38</ele>
        <time>2025-05-02T14:17:15Z</time>
      </trkpt>
      <trkpt lat="41.298241009935737" lon="-7.146527990698814">
        <ele>528.38</ele>
        <time>2025-05-02T14:17:16Z</time>
      </trkpt>
      <trkpt lat="41.298091979697347" lon="-7.146101016551256">
        <ele>528.86000000000001</ele>
        <time>2025-05-02T14:17:19Z</time>
      </trkpt>
      <trkpt lat="41.298031965270638" lon="-7.145986016839743">
        <ele>528.86000000000001</ele>
        <time>2025-05-02T14:17:20Z</time>
      </trkpt>
      <trkpt lat="41.297933980822563" lon="-7.145913010463119">
        <ele>528.86000000000001</ele>
        <time>2025-05-02T14:17:21Z</time>
      </trkpt>
      <trkpt lat="41.297825016081333" lon="-7.145831035450101">
        <ele>528.86000000000001</ele>
        <time>2025-05-02T14:17:22Z</time>
      </trkpt>
      <trkpt lat="41.297709010541439" lon="-7.14574403129518">
        <ele>528.86000000000001</ele>
        <time>2025-05-02T14:17:23Z</time>
      </trkpt>
      <trkpt lat="41.297052036970854" lon="-7.145404983311892">
        <ele>526.94000000000005</ele>
        <time>2025-05-02T14:17:28Z</time>
      </trkpt>
      <trkpt lat="41.296932008117437" lon="-7.145404983311892">
        <ele>525.5</ele>
        <time>2025-05-02T14:17:29Z</time>
      </trkpt>
      <trkpt lat="41.296793036162853" lon="-7.145404983311892">
        <ele>524.53999999999996</ele>
        <time>2025-05-02T14:17:30Z</time>
      </trkpt>
      <trkpt lat="41.296454994007945" lon="-7.14559500105679">
        <ele>521.64999999999998</ele>
        <time>2025-05-02T14:17:33Z</time>
      </trkpt>
      <trkpt lat="41.296349968761206" lon="-7.145698014646769">
        <ele>521.16999999999996</ele>
        <time>2025-05-02T14:17:34Z</time>
      </trkpt>
      <trkpt lat="41.296259025111794" lon="-7.145828017964959">
        <ele>520.21000000000004</ele>
        <time>2025-05-02T14:17:35Z</time>
      </trkpt>
      <trkpt lat="41.29618601873517" lon="-7.145975036546588">
        <ele>519.25</ele>
        <time>2025-05-02T14:17:36Z</time>
      </trkpt>
      <trkpt lat="41.296150982379913" lon="-7.146143009886146">
        <ele>518.28999999999996</ele>
        <time>2025-05-02T14:17:37Z</time>
      </trkpt>
      <trkpt lat="41.296124998480082" lon="-7.146320035681129">
        <ele>517.80999999999995</ele>
        <time>2025-05-02T14:17:38Z</time>
      </trkpt>
      <trkpt lat="41.296098008751869" lon="-7.146504018455744">
        <ele>516.85000000000002</ele>
        <time>2025-05-02T14:17:39Z</time>
      </trkpt>
      <trkpt lat="41.296017961576581" lon="-7.1470330003649">
        <ele>514.91999999999996</ele>
        <time>2025-05-02T14:17:42Z</time>
      </trkpt>
      <trkpt lat="41.295983009040356" lon="-7.147198962047696">
        <ele>513.96000000000004</ele>
        <time>2025-05-02T14:17:43Z</time>
      </trkpt>
      <trkpt lat="41.295916037634015" lon="-7.147345980629325">
        <ele>513</ele>
        <time>2025-05-02T14:17:44Z</time>
      </trkpt>
      <trkpt lat="41.295401975512505" lon="-7.148443004116416">
        <ele>506.75</ele>
        <time>2025-05-02T14:17:51Z</time>
      </trkpt>
      <trkpt lat="41.295357970520854" lon="-7.14862103573978">
        <ele>505.79000000000002</ele>
        <time>2025-05-02T14:17:52Z</time>
      </trkpt>
      <trkpt lat="41.295330980792642" lon="-7.148803006857634">
        <ele>505.31</ele>
        <time>2025-05-02T14:17:53Z</time>
      </trkpt>
      <trkpt lat="41.29530499689281" lon="-7.148981960490346">
        <ele>504.35000000000002</ele>
        <time>2025-05-02T14:17:54Z</time>
      </trkpt>
      <trkpt lat="41.295280018821359" lon="-7.149152029305697">
        <ele>503.38999999999999</ele>
        <time>2025-05-02T14:17:55Z</time>
      </trkpt>
      <trkpt lat="41.295238025486469" lon="-7.149296030402184">
        <ele>502.43000000000001</ele>
        <time>2025-05-02T14:17:56Z</time>
      </trkpt>
      <trkpt lat="41.295170970261097" lon="-7.149401977658272">
        <ele>501.94999999999999</ele>
        <time>2025-05-02T14:17:57Z</time>
      </trkpt>
      <trkpt lat="41.295084971934557" lon="-7.149459980428219">
        <ele>501.45999999999998</ele>
        <time>2025-05-02T14:17:58Z</time>
      </trkpt>
      <trkpt lat="41.294986987486482" lon="-7.149459980428219">
        <ele>500.98000000000002</ele>
        <time>2025-05-02T14:17:59Z</time>
      </trkpt>
      <trkpt lat="41.294900989159942" lon="-7.149404995143414">
        <ele>500.5</ele>
        <time>2025-05-02T14:18:00Z</time>
      </trkpt>
      <trkpt lat="41.294828988611698" lon="-7.149300975725055">
        <ele>500.5</ele>
        <time>2025-05-02T14:18:01Z</time>
      </trkpt>
      <trkpt lat="41.294779032468796" lon="-7.149162003770471">
        <ele>500.01999999999998</ele>
        <time>2025-05-02T14:18:02Z</time>
      </trkpt>
      <trkpt lat="41.294733015820384" lon="-7.1490309946239">
        <ele>499.54000000000002</ele>
        <time>2025-05-02T14:18:03Z</time>
      </trkpt>
      <trkpt lat="41.294676018878818" lon="-7.148896967992187">
        <ele>499.54000000000002</ele>
        <time>2025-05-02T14:18:04Z</time>
      </trkpt>
      <trkpt lat="41.294624973088503" lon="-7.14877400547266">
        <ele>498.57999999999998</ele>
        <time>2025-05-02T14:18:05Z</time>
      </trkpt>
      <trkpt lat="41.294533023610711" lon="-7.148711979389191">
        <ele>498.10000000000002</ele>
        <time>2025-05-02T14:18:06Z</time>
      </trkpt>
      <trkpt lat="41.294421041384339" lon="-7.148682978004217">
        <ele>497.13999999999999</ele>
        <time>2025-05-02T14:18:07Z</time>
      </trkpt>
      <trkpt lat="41.294286008924246" lon="-7.148673003539443">
        <ele>496.66000000000003</ele>
        <time>2025-05-02T14:18:08Z</time>
      </trkpt>
      <trkpt lat="41.294139996170998" lon="-7.148663029074669">
        <ele>496.18000000000001</ele>
        <time>2025-05-02T14:18:09Z</time>
      </trkpt>
      <trkpt lat="41.2934560328722" lon="-7.148663029074669">
        <ele>492.81</ele>
        <time>2025-05-02T14:18:14Z</time>
      </trkpt>
      <trkpt lat="41.29335000179708" lon="-7.148737963289022">
        <ele>492.32999999999998</ele>
        <time>2025-05-02T14:18:15Z</time>
      </trkpt>
      <trkpt lat="41.293262997642159" lon="-7.148837959393859">
        <ele>491.37</ele>
        <time>2025-05-02T14:18:16Z</time>
      </trkpt>
      <trkpt lat="41.293231984600425" lon="-7.148962011560798">
        <ele>490.88999999999999</ele>
        <time>2025-05-02T14:18:17Z</time>
      </trkpt>
      <trkpt lat="41.29324397072196" lon="-7.149086985737085">
        <ele>490.41000000000003</ele>
        <time>2025-05-02T14:18:18Z</time>
      </trkpt>
      <trkpt lat="41.293285964056849" lon="-7.149196034297347">
        <ele>489.93000000000001</ele>
        <time>2025-05-02T14:18:19Z</time>
      </trkpt>
      <trkpt lat="41.293369028717279" lon="-7.149283960461617">
        <ele>489.93000000000001</ele>
        <time>2025-05-02T14:18:20Z</time>
      </trkpt>
      <trkpt lat="41.293455027043819" lon="-7.14937599375844">
        <ele>489.44999999999999</ele>
        <time>2025-05-02T14:18:21Z</time>
      </trkpt>
      <trkpt lat="41.293539013713598" lon="-7.149465009570122">
        <ele>489.44999999999999</ele>
        <time>2025-05-02T14:18:22Z</time>
      </trkpt>
      <trkpt lat="41.293602967634797" lon="-7.149556959047914">
        <ele>488.97000000000003</ele>
        <time>2025-05-02T14:18:23Z</time>
      </trkpt>
      <trkpt lat="41.293633980676532" lon="-7.149692997336388">
        <ele>488.49000000000001</ele>
        <time>2025-05-02T14:18:24Z</time>
      </trkpt>
      <trkpt lat="41.293652001768351" lon="-7.149833980947733">
        <ele>488.49000000000001</ele>
        <time>2025-05-02T14:18:25Z</time>
      </trkpt>
      <trkpt lat="41.293617971241474" lon="-7.149972030892968">
        <ele>487.52999999999997</ele>
        <time>2025-05-02T14:18:26Z</time>
      </trkpt>
      <trkpt lat="41.293572960421443" lon="-7.15010697953403">
        <ele>487.05000000000001</ele>
        <time>2025-05-02T14:18:27Z</time>
      </trkpt>
      <trkpt lat="41.293510012328625" lon="-7.150232037529349">
        <ele>486.56</ele>
        <time>2025-05-02T14:18:28Z</time>
      </trkpt>
      <trkpt lat="41.293408004567027" lon="-7.150294985622168">
        <ele>486.07999999999998</ele>
        <time>2025-05-02T14:18:29Z</time>
      </trkpt>
      <trkpt lat="41.293300967663527" lon="-7.150361035019159">
        <ele>485.60000000000002</ele>
        <time>2025-05-02T14:18:30Z</time>
      </trkpt>
      <trkpt lat="41.293184040114284" lon="-7.150416020303965">
        <ele>485.12</ele>
        <time>2025-05-02T14:18:31Z</time>
      </trkpt>
      <trkpt lat="41.292926967144012" lon="-7.150504030287266">
        <ele>483.19999999999999</ele>
        <time>2025-05-02T14:18:33Z</time>
      </trkpt>
      <trkpt lat="41.292801992967725" lon="-7.150596985593438">
        <ele>482.72000000000003</ele>
        <time>2025-05-02T14:18:34Z</time>
      </trkpt>
      <trkpt lat="41.292286003008485" lon="-7.150983978062868">
        <ele>479.83999999999997</ele>
        <time>2025-05-02T14:18:38Z</time>
      </trkpt>
      <trkpt lat="41.292163040488958" lon="-7.151101995259523">
        <ele>479.35000000000002</ele>
        <time>2025-05-02T14:18:39Z</time>
      </trkpt>
      <trkpt lat="41.292063966393471" lon="-7.15124599635601">
        <ele>478.87</ele>
        <time>2025-05-02T14:18:40Z</time>
      </trkpt>
      <trkpt lat="41.291963970288634" lon="-7.151391003280878">
        <ele>478.38999999999999</ele>
        <time>2025-05-02T14:18:41Z</time>
      </trkpt>
      <trkpt lat="41.291862968355417" lon="-7.151536010205746">
        <ele>478.38999999999999</ele>
        <time>2025-05-02T14:18:42Z</time>
      </trkpt>
      <trkpt lat="41.291656019166112" lon="-7.151834992691875">
        <ele>478.38999999999999</ele>
        <time>2025-05-02T14:18:44Z</time>
      </trkpt>
      <trkpt lat="41.291536996141076" lon="-7.151946974918246">
        <ele>477.91000000000003</ele>
        <time>2025-05-02T14:18:45Z</time>
      </trkpt>
      <trkpt lat="41.291403975337744" lon="-7.152044959366322">
        <ele>477.91000000000003</ele>
        <time>2025-05-02T14:18:46Z</time>
      </trkpt>
      <trkpt lat="41.291142962872982" lon="-7.152237994596362">
        <ele>476.94999999999999</ele>
        <time>2025-05-02T14:18:48Z</time>
      </trkpt>
      <trkpt lat="41.29100700840354" lon="-7.152337990701199">
        <ele>476.47000000000003</ele>
        <time>2025-05-02T14:18:49Z</time>
      </trkpt>
      <trkpt lat="41.290610963478684" lon="-7.15264200232923">
        <ele>474.55000000000001</ele>
        <time>2025-05-02T14:18:52Z</time>
      </trkpt>
      <trkpt lat="41.2904719915241" lon="-7.152690030634403">
        <ele>474.06999999999999</ele>
        <time>2025-05-02T14:18:53Z</time>
      </trkpt>
      <trkpt lat="41.290335031226277" lon="-7.152720959857106">
        <ele>473.58999999999997</ele>
        <time>2025-05-02T14:18:54Z</time>
      </trkpt>
      <trkpt lat="41.29019103012979" lon="-7.152712997049093">
        <ele>472.63</ele>
        <time>2025-05-02T14:18:55Z</time>
      </trkpt>
      <trkpt lat="41.2900419998914" lon="-7.15270503424108">
        <ele>471.66000000000003</ele>
        <time>2025-05-02T14:18:56Z</time>
      </trkpt>
      <trkpt lat="41.289614019915462" lon="-7.152680978178978">
        <ele>469.25999999999999</ele>
        <time>2025-05-02T14:18:59Z</time>
      </trkpt>
      <trkpt lat="41.28950597718358" lon="-7.15261903591454">
        <ele>468.30000000000001</ele>
        <time>2025-05-02T14:19:00Z</time>
      </trkpt>
      <trkpt lat="41.289389971643686" lon="-7.152529014274478">
        <ele>467.33999999999997</ele>
        <time>2025-05-02T14:19:01Z</time>
      </trkpt>
      <trkpt lat="41.289302967488766" lon="-7.152394987642765">
        <ele>466.38</ele>
        <time>2025-05-02T14:19:02Z</time>
      </trkpt>
      <trkpt lat="41.289208000525832" lon="-7.152246963232756">
        <ele>465.42000000000002</ele>
        <time>2025-05-02T14:19:03Z</time>
      </trkpt>
      <trkpt lat="41.289110016077757" lon="-7.152096005156636">
        <ele>464.93000000000001</ele>
        <time>2025-05-02T14:19:04Z</time>
      </trkpt>
      <trkpt lat="41.289012031629682" lon="-7.151943035423756">
        <ele>463.49000000000001</ele>
        <time>2025-05-02T14:19:05Z</time>
      </trkpt>
      <trkpt lat="41.288898037746549" lon="-7.151805991306901">
        <ele>462.52999999999997</ele>
        <time>2025-05-02T14:19:06Z</time>
      </trkpt>
      <trkpt lat="41.28877398557961" lon="-7.151691997423768">
        <ele>461.56999999999999</ele>
        <time>2025-05-02T14:19:07Z</time>
      </trkpt>
      <trkpt lat="41.288682036101818" lon="-7.151605999097228">
        <ele>460.61000000000001</ele>
        <time>2025-05-02T14:19:08Z</time>
      </trkpt>
      <trkpt lat="41.28857902251184" lon="-7.151444982737303">
        <ele>459.64999999999998</ele>
        <time>2025-05-02T14:19:09Z</time>
      </trkpt>
      <trkpt lat="41.288530994206667" lon="-7.151369964703918">
        <ele>458.69</ele>
        <time>2025-05-02T14:19:10Z</time>
      </trkpt>
      <trkpt lat="41.288530994206667" lon="-7.151241973042488">
        <ele>457.72000000000003</ele>
        <time>2025-05-02T14:19:11Z</time>
      </trkpt>
      <trkpt lat="41.288530994206667" lon="-7.151069976389408">
        <ele>456.75999999999999</ele>
        <time>2025-05-02T14:19:12Z</time>
      </trkpt>
      <trkpt lat="41.288569970056415" lon="-7.150936033576727">
        <ele>455.80000000000001</ele>
        <time>2025-05-02T14:19:13Z</time>
      </trkpt>
      <trkpt lat="41.288788989186287" lon="-7.150275958701968">
        <ele>451</ele>
        <time>2025-05-02T14:19:17Z</time>
      </trkpt>
      <trkpt lat="41.288869036361575" lon="-7.150184009224176">
        <ele>450.02999999999997</ele>
        <time>2025-05-02T14:19:18Z</time>
      </trkpt>
      <trkpt lat="41.288952017202973" lon="-7.150100022554398">
        <ele>448.58999999999997</ele>
        <time>2025-05-02T14:19:19Z</time>
      </trkpt>
      <trkpt lat="41.289111021906137" lon="-7.150040008127689">
        <ele>447.63</ele>
        <time>2025-05-02T14:19:20Z</time>
      </trkpt>
      <trkpt lat="41.289200037717819" lon="-7.150045037269592">
        <ele>446.19</ele>
        <time>2025-05-02T14:19:21Z</time>
      </trkpt>
      <trkpt lat="41.289328029379249" lon="-7.150053000077605">
        <ele>445.23000000000002</ele>
        <time>2025-05-02T14:19:22Z</time>
      </trkpt>
      <trkpt lat="41.289450991898775" lon="-7.150060962885618">
        <ele>444.75</ele>
        <time>2025-05-02T14:19:23Z</time>
      </trkpt>
      <trkpt lat="41.289563979953527" lon="-7.150005977600813">
        <ele>443.79000000000002</ele>
        <time>2025-05-02T14:19:24Z</time>
      </trkpt>
      <trkpt lat="41.289626006036997" lon="-7.149974964559078">
        <ele>442.81999999999999</ele>
        <time>2025-05-02T14:19:25Z</time>
      </trkpt>
      <trkpt lat="41.289683002978563" lon="-7.149861976504326">
        <ele>442.33999999999997</ele>
        <time>2025-05-02T14:19:26Z</time>
      </trkpt>
      <trkpt lat="41.289710998535156" lon="-7.149803973734379">
        <ele>441.38</ele>
        <time>2025-05-02T14:19:27Z</time>
      </trkpt>
      <trkpt lat="41.289710998535156" lon="-7.149716969579458">
        <ele>440.89999999999998</ele>
        <time>2025-05-02T14:19:28Z</time>
      </trkpt>
      <trkpt lat="41.289710998535156" lon="-7.149612028151751">
        <ele>439.94</ele>
        <time>2025-05-02T14:19:29Z</time>
      </trkpt>
      <trkpt lat="41.289680991321802" lon="-7.149550002068281">
        <ele>439.45999999999998</ele>
        <time>2025-05-02T14:19:30Z</time>
      </trkpt>
      <trkpt lat="41.289617037400603" lon="-7.149421004578471">
        <ele>438.5</ele>
        <time>2025-05-02T14:19:31Z</time>
      </trkpt>
      <trkpt lat="41.289540007710457" lon="-7.14926702901721">
        <ele>437.54000000000002</ele>
        <time>2025-05-02T14:19:32Z</time>
      </trkpt>
      <trkpt lat="41.289441017434001" lon="-7.149143982678652">
        <ele>436.57999999999998</ele>
        <time>2025-05-02T14:19:33Z</time>
      </trkpt>
      <trkpt lat="41.289328029379249" lon="-7.149026971310377">
        <ele>435.61000000000001</ele>
        <time>2025-05-02T14:19:34Z</time>
      </trkpt>
      <trkpt lat="41.289192996919155" lon="-7.148939967155457">
        <ele>434.64999999999998</ele>
        <time>2025-05-02T14:19:35Z</time>
      </trkpt>
      <trkpt lat="41.289067016914487" lon="-7.1488600037992">
        <ele>433.69</ele>
        <time>2025-05-02T14:19:36Z</time>
      </trkpt>
      <trkpt lat="41.28894698806107" lon="-7.148782974109054">
        <ele>432.73000000000002</ele>
        <time>2025-05-02T14:19:37Z</time>
      </trkpt>
      <trkpt lat="41.288827965036035" lon="-7.148699993267655">
        <ele>431.29000000000002</ele>
        <time>2025-05-02T14:19:38Z</time>
      </trkpt>
      <trkpt lat="41.288777003064752" lon="-7.148562027141452">
        <ele>430.81</ele>
        <time>2025-05-02T14:19:39Z</time>
      </trkpt>
      <trkpt lat="41.288724029436707" lon="-7.148418026044965">
        <ele>429.85000000000002</ele>
        <time>2025-05-02T14:19:40Z</time>
      </trkpt>
      <trkpt lat="41.288673989474773" lon="-7.148282993584871">
        <ele>428.88999999999999</ele>
        <time>2025-05-02T14:19:41Z</time>
      </trkpt>
      <trkpt lat="41.288616992533207" lon="-7.148130023851991">
        <ele>427.92000000000002</ele>
        <time>2025-05-02T14:19:42Z</time>
      </trkpt>
      <trkpt lat="41.288541974499822" lon="-7.148115020245314">
        <ele>427.44</ele>
        <time>2025-05-02T14:19:43Z</time>
      </trkpt>
      <trkpt lat="41.288456982001662" lon="-7.148098004981875">
        <ele>427.44</ele>
        <time>2025-05-02T14:19:44Z</time>
      </trkpt>
      <trkpt lat="41.288358997553587" lon="-7.148105967789888">
        <ele>427.44</ele>
        <time>2025-05-02T14:19:45Z</time>
      </trkpt>
      <trkpt lat="41.288267970085144" lon="-7.148147039115429">
        <ele>426.95999999999998</ele>
        <time>2025-05-02T14:19:46Z</time>
      </trkpt>
      <trkpt lat="41.288089016452432" lon="-7.148225996643305">
        <ele>426.48000000000002</ele>
        <time>2025-05-02T14:19:48Z</time>
      </trkpt>
      <trkpt lat="41.287988014519215" lon="-7.148256003856659">
        <ele>426.48000000000002</ele>
        <time>2025-05-02T14:19:49Z</time>
      </trkpt>
      <trkpt lat="41.287878965958953" lon="-7.148244017735124">
        <ele>426</ele>
        <time>2025-05-02T14:19:50Z</time>
      </trkpt>
      <trkpt lat="41.287781987339258" lon="-7.148187020793557">
        <ele>425.04000000000002</ele>
        <time>2025-05-02T14:19:51Z</time>
      </trkpt>
      <trkpt lat="41.287705963477492" lon="-7.148093981668353">
        <ele>424.56</ele>
        <time>2025-05-02T14:19:52Z</time>
      </trkpt>
      <trkpt lat="41.287628011777997" lon="-7.147993985563517">
        <ele>424.07999999999998</ele>
        <time>2025-05-02T14:19:53Z</time>
      </trkpt>
      <trkpt lat="41.287584006786346" lon="-7.147839004173875">
        <ele>423.60000000000002</ele>
        <time>2025-05-02T14:19:54Z</time>
      </trkpt>
      <trkpt lat="41.287534972652793" lon="-7.147669019177556">
        <ele>423.12</ele>
        <time>2025-05-02T14:19:55Z</time>
      </trkpt>
      <trkpt lat="41.287458026781678" lon="-7.147108018398285">
        <ele>421.19</ele>
        <time>2025-05-02T14:19:58Z</time>
      </trkpt>
      <trkpt lat="41.287458026781678" lon="-7.146918000653386">
        <ele>420.70999999999998</ele>
        <time>2025-05-02T14:19:59Z</time>
      </trkpt>
      <trkpt lat="41.287502031773329" lon="-7.146761007606983">
        <ele>420.23000000000002</ele>
        <time>2025-05-02T14:20:00Z</time>
      </trkpt>
      <trkpt lat="41.287566991522908" lon="-7.146634021773934">
        <ele>419.75</ele>
        <time>2025-05-02T14:20:01Z</time>
      </trkpt>
      <trkpt lat="41.287655001506209" lon="-7.14651801623404">
        <ele>419.26999999999998</ele>
        <time>2025-05-02T14:20:02Z</time>
      </trkpt>
      <trkpt lat="41.287774024531245" lon="-7.146422965452075">
        <ele>419.26999999999998</ele>
        <time>2025-05-02T14:20:03Z</time>
      </trkpt>
      <trkpt lat="41.288663009181619" lon="-7.145668007433415">
        <ele>414.94999999999999</ele>
        <time>2025-05-02T14:20:10Z</time>
      </trkpt>
      <trkpt lat="41.288717994466424" lon="-7.145542027428746">
        <ele>413.98000000000002</ele>
        <time>2025-05-02T14:20:11Z</time>
      </trkpt>
      <trkpt lat="41.288743978366256" lon="-7.145415041595697">
        <ele>413.5</ele>
        <time>2025-05-02T14:20:12Z</time>
      </trkpt>
      <trkpt lat="41.288700979202986" lon="-7.145300041884184">
        <ele>412.54000000000002</ele>
        <time>2025-05-02T14:20:13Z</time>
      </trkpt>
      <trkpt lat="41.288626966997981" lon="-7.145222006365657">
        <ele>412.06</ele>
        <time>2025-05-02T14:20:14Z</time>
      </trkpt>
      <trkpt lat="41.288523031398654" lon="-7.145159980282188">
        <ele>411.57999999999998</ele>
        <time>2025-05-02T14:20:15Z</time>
      </trkpt>
      <trkpt lat="41.288405014201999" lon="-7.145099965855479">
        <ele>411.57999999999998</ele>
        <time>2025-05-02T14:20:16Z</time>
      </trkpt>
      <trkpt lat="41.288276016712189" lon="-7.145046992227435">
        <ele>411.10000000000002</ele>
        <time>2025-05-02T14:20:17Z</time>
      </trkpt>
      <trkpt lat="41.288102008402348" lon="-7.144975997507572">
        <ele>410.62</ele>
        <time>2025-05-02T14:20:18Z</time>
      </trkpt>
      <trkpt lat="41.287994971498847" lon="-7.14488597586751">
        <ele>410.13999999999999</ele>
        <time>2025-05-02T14:20:19Z</time>
      </trkpt>
      <trkpt lat="41.286928961053491" lon="-7.143957009539008">
        <ele>408.22000000000003</ele>
        <time>2025-05-02T14:20:27Z</time>
      </trkpt>
      <trkpt lat="41.286843968555331" lon="-7.143824994564056">
        <ele>407.74000000000001</ele>
        <time>2025-05-02T14:20:28Z</time>
      </trkpt>
      <trkpt lat="41.286695022135973" lon="-7.143563982099295">
        <ele>406.76999999999998</ele>
        <time>2025-05-02T14:20:30Z</time>
      </trkpt>
      <trkpt lat="41.286618998274207" lon="-7.143473038449884">
        <ele>406.29000000000002</ele>
        <time>2025-05-02T14:20:31Z</time>
      </trkpt>
      <trkpt lat="41.286509027704597" lon="-7.143469015136361">
        <ele>405.81</ele>
        <time>2025-05-02T14:20:32Z</time>
      </trkpt>
      <trkpt lat="41.286387993022799" lon="-7.143463985994458">
        <ele>404.85000000000002</ele>
        <time>2025-05-02T14:20:33Z</time>
      </trkpt>
      <trkpt lat="41.286261007189751" lon="-7.143459962680936">
        <ele>404.85000000000002</ele>
        <time>2025-05-02T14:20:34Z</time>
      </trkpt>
      <trkpt lat="41.286135027185082" lon="-7.143455017358065">
        <ele>404.37</ele>
        <time>2025-05-02T14:20:35Z</time>
      </trkpt>
      <trkpt lat="41.28602203913033" lon="-7.143422998487949">
        <ele>403.88999999999999</ele>
        <time>2025-05-02T14:20:36Z</time>
      </trkpt>
      <trkpt lat="41.285908967256546" lon="-7.143345968797803">
        <ele>402.93000000000001</ele>
        <time>2025-05-02T14:20:37Z</time>
      </trkpt>
      <trkpt lat="41.285795979201794" lon="-7.143267011269927">
        <ele>402.44999999999999</ele>
        <time>2025-05-02T14:20:38Z</time>
      </trkpt>
      <trkpt lat="41.28572397865355" lon="-7.143138013780117">
        <ele>401.97000000000003</ele>
        <time>2025-05-02T14:20:39Z</time>
      </trkpt>
      <trkpt lat="41.285687014460564" lon="-7.143013039603829">
        <ele>401.00999999999999</ele>
        <time>2025-05-02T14:20:40Z</time>
      </trkpt>
      <trkpt lat="41.285666981711984" lon="-7.142878007143736">
        <ele>400.52999999999997</ele>
        <time>2025-05-02T14:20:41Z</time>
      </trkpt>
      <trkpt lat="41.285665975883603" lon="-7.142749009653926">
        <ele>400.52999999999997</ele>
        <time>2025-05-02T14:20:42Z</time>
      </trkpt>
      <trkpt lat="41.285691959783435" lon="-7.142591010779142">
        <ele>400.05000000000001</ele>
        <time>2025-05-02T14:20:43Z</time>
      </trkpt>
      <trkpt lat="41.28572003915906" lon="-7.142423959448934">
        <ele>399.56999999999999</ele>
        <time>2025-05-02T14:20:44Z</time>
      </trkpt>
      <trkpt lat="41.285776030272245" lon="-7.14209002442658">
        <ele>398.12</ele>
        <time>2025-05-02T14:20:46Z</time>
      </trkpt>
      <trkpt lat="41.285762032493949" lon="-7.141934037208557">
        <ele>397.63999999999999</ele>
        <time>2025-05-02T14:20:47Z</time>
      </trkpt>
      <trkpt lat="41.285711992532015" lon="-7.141807973384857">
        <ele>396.68000000000001</ele>
        <time>2025-05-02T14:20:48Z</time>
      </trkpt>
      <trkpt lat="41.285632029175758" lon="-7.141713006421924">
        <ele>396.19999999999999</ele>
        <time>2025-05-02T14:20:49Z</time>
      </trkpt>
      <trkpt lat="41.285519963130355" lon="-7.141657015308738">
        <ele>395.24000000000001</ele>
        <time>2025-05-02T14:20:50Z</time>
      </trkpt>
      <trkpt lat="41.28540001809597" lon="-7.14159700088203">
        <ele>394.75999999999999</ele>
        <time>2025-05-02T14:20:51Z</time>
      </trkpt>
      <trkpt lat="41.285272026434541" lon="-7.141532963141799">
        <ele>394.27999999999997</ele>
        <time>2025-05-02T14:20:52Z</time>
      </trkpt>
      <trkpt lat="41.285140011459589" lon="-7.141451993957162">
        <ele>393.31999999999999</ele>
        <time>2025-05-02T14:20:53Z</time>
      </trkpt>
      <trkpt lat="41.285014031454921" lon="-7.141358032822609">
        <ele>392.83999999999997</ele>
        <time>2025-05-02T14:20:54Z</time>
      </trkpt>
      <trkpt lat="41.284895008429885" lon="-7.141270022839308">
        <ele>392.36000000000001</ele>
        <time>2025-05-02T14:20:55Z</time>
      </trkpt>
      <trkpt lat="41.284772967919707" lon="-7.141180001199246">
        <ele>391.38999999999999</ele>
        <time>2025-05-02T14:20:56Z</time>
      </trkpt>
      <trkpt lat="41.284633995965123" lon="-7.14112501591444">
        <ele>390.43000000000001</ele>
        <time>2025-05-02T14:20:57Z</time>
      </trkpt>
      <trkpt lat="41.284479014575481" lon="-7.141130967065692">
        <ele>389.94999999999999</ele>
        <time>2025-05-02T14:20:58Z</time>
      </trkpt>
      <trkpt lat="41.284323027357459" lon="-7.141174972057343">
        <ele>388.99000000000001</ele>
        <time>2025-05-02T14:20:59Z</time>
      </trkpt>
      <trkpt lat="41.284163016825914" lon="-7.141236998140812">
        <ele>388.50999999999999</ele>
        <time>2025-05-02T14:21:00Z</time>
      </trkpt>
      <trkpt lat="41.28400401212275" lon="-7.141316961497068">
        <ele>388.50999999999999</ele>
        <time>2025-05-02T14:21:01Z</time>
      </trkpt>
      <trkpt lat="41.283024000003934" lon="-7.141766985878348">
        <ele>387.06999999999999</ele>
        <time>2025-05-02T14:21:08Z</time>
      </trkpt>
      <trkpt lat="41.282899025827646" lon="-7.141788024455309">
        <ele>386.58999999999997</ele>
        <time>2025-05-02T14:21:09Z</time>
      </trkpt>
      <trkpt lat="41.282776985317469" lon="-7.141742007806897">
        <ele>385.63</ele>
        <time>2025-05-02T14:21:10Z</time>
      </trkpt>
      <trkpt lat="41.282659973949194" lon="-7.141669001430273">
        <ele>385.63</ele>
        <time>2025-05-02T14:21:11Z</time>
      </trkpt>
      <trkpt lat="41.282531982287765" lon="-7.141584008932114">
        <ele>385.14999999999998</ele>
        <time>2025-05-02T14:21:12Z</time>
      </trkpt>
      <trkpt lat="41.282428968697786" lon="-7.141456017270684">
        <ele>384.66000000000003</ele>
        <time>2025-05-02T14:21:13Z</time>
      </trkpt>
      <trkpt lat="41.282331990078092" lon="-7.141308998689055">
        <ele>384.66000000000003</ele>
        <time>2025-05-02T14:21:14Z</time>
      </trkpt>
      <trkpt lat="41.282152030616999" lon="-7.141031976789236">
        <ele>384.18000000000001</ele>
        <time>2025-05-02T14:21:16Z</time>
      </trkpt>
      <trkpt lat="41.282093022018671" lon="-7.140879007056356">
        <ele>384.18000000000001</ele>
        <time>2025-05-02T14:21:17Z</time>
      </trkpt>
      <trkpt lat="41.282051028683782" lon="-7.140727965161204">
        <ele>384.18000000000001</ele>
        <time>2025-05-02T14:21:18Z</time>
      </trkpt>
      <trkpt lat="41.282051028683782" lon="-7.140558985993266">
        <ele>384.66000000000003</ele>
        <time>2025-05-02T14:21:19Z</time>
      </trkpt>
      <trkpt lat="41.282051028683782" lon="-7.140404004603624">
        <ele>384.18000000000001</ele>
        <time>2025-05-02T14:21:20Z</time>
      </trkpt>
      <trkpt lat="41.282051028683782" lon="-7.14026696048677">
        <ele>384.18000000000001</ele>
        <time>2025-05-02T14:21:21Z</time>
      </trkpt>
      <trkpt lat="41.281977016478777" lon="-7.14013896882534">
        <ele>383.69999999999999</ele>
        <time>2025-05-02T14:21:22Z</time>
      </trkpt>
      <trkpt lat="41.281886994838715" lon="-7.140035033226013">
        <ele>383.22000000000003</ele>
        <time>2025-05-02T14:21:23Z</time>
      </trkpt>
      <trkpt lat="41.281774006783962" lon="-7.139990022405982">
        <ele>382.25999999999999</ele>
        <time>2025-05-02T14:21:24Z</time>
      </trkpt>
      <trkpt lat="41.281653977930546" lon="-7.139941994100809">
        <ele>381.77999999999997</ele>
        <time>2025-05-02T14:21:25Z</time>
      </trkpt>
      <trkpt lat="41.281535960733891" lon="-7.139894971624017">
        <ele>381.30000000000001</ele>
        <time>2025-05-02T14:21:26Z</time>
      </trkpt>
      <trkpt lat="41.281408974900842" lon="-7.139855995774269">
        <ele>381.30000000000001</ele>
        <time>2025-05-02T14:21:27Z</time>
      </trkpt>
      <trkpt lat="41.281282994896173" lon="-7.139829006046057">
        <ele>380.81999999999999</ele>
        <time>2025-05-02T14:21:28Z</time>
      </trkpt>
      <trkpt lat="41.281158020719886" lon="-7.139802016317844">
        <ele>380.33999999999997</ele>
        <time>2025-05-02T14:21:29Z</time>
      </trkpt>
      <trkpt lat="41.281032040715218" lon="-7.139776032418013">
        <ele>379.86000000000001</ele>
        <time>2025-05-02T14:21:30Z</time>
      </trkpt>
      <trkpt lat="41.280904971063137" lon="-7.139748958870769">
        <ele>378.89999999999998</ele>
        <time>2025-05-02T14:21:31Z</time>
      </trkpt>
      <trkpt lat="41.280776979401708" lon="-7.139721969142556">
        <ele>378.89999999999998</ele>
        <time>2025-05-02T14:21:32Z</time>
      </trkpt>
      <trkpt lat="41.280666003003716" lon="-7.139661032706499">
        <ele>378.42000000000002</ele>
        <time>2025-05-02T14:21:33Z</time>
      </trkpt>
      <trkpt lat="41.280546979978681" lon="-7.139591965824366">
        <ele>377.94</ele>
        <time>2025-05-02T14:21:34Z</time>
      </trkpt>
      <trkpt lat="41.280428040772676" lon="-7.139520971104503">
        <ele>377.44999999999999</ele>
        <time>2025-05-02T14:21:35Z</time>
      </trkpt>
      <trkpt lat="41.280074995011091" lon="-7.139248978346586">
        <ele>376.97000000000003</ele>
        <time>2025-05-02T14:21:38Z</time>
      </trkpt>
      <trkpt lat="41.279969969764352" lon="-7.13914898224175">
        <ele>376.49000000000001</ele>
        <time>2025-05-02T14:21:39Z</time>
      </trkpt>
      <trkpt lat="41.279886988922954" lon="-7.139015961438417">
        <ele>376.00999999999999</ele>
        <time>2025-05-02T14:21:40Z</time>
      </trkpt>
      <trkpt lat="41.279787998646498" lon="-7.138700969517231">
        <ele>375.52999999999997</ele>
        <time>2025-05-02T14:21:42Z</time>
      </trkpt>
      <trkpt lat="41.279738964512944" lon="-7.138540958985686">
        <ele>375.05000000000001</ele>
        <time>2025-05-02T14:21:43Z</time>
      </trkpt>
      <trkpt lat="41.279675010591745" lon="-7.138393018394709">
        <ele>374.56999999999999</ele>
        <time>2025-05-02T14:21:44Z</time>
      </trkpt>
      <trkpt lat="41.279594041407108" lon="-7.138272989541292">
        <ele>373.61000000000001</ele>
        <time>2025-05-02T14:21:45Z</time>
      </trkpt>
      <trkpt lat="41.279494967311621" lon="-7.138201994821429">
        <ele>372.64999999999998</ele>
        <time>2025-05-02T14:21:46Z</time>
      </trkpt>
      <trkpt lat="41.279378961771727" lon="-7.138149021193385">
        <ele>371.69</ele>
        <time>2025-05-02T14:21:47Z</time>
      </trkpt>
      <trkpt lat="41.279252981767058" lon="-7.138106022030115">
        <ele>370.73000000000002</ele>
        <time>2025-05-02T14:21:48Z</time>
      </trkpt>
      <trkpt lat="41.278983000665903" lon="-7.138017006218433">
        <ele>369.27999999999997</ele>
        <time>2025-05-02T14:21:50Z</time>
      </trkpt>
      <trkpt lat="41.278844028711319" lon="-7.137960009276867">
        <ele>368.31999999999999</ele>
        <time>2025-05-02T14:21:51Z</time>
      </trkpt>
      <trkpt lat="41.277480963617563" lon="-7.136991983279586">
        <ele>362.06999999999999</ele>
        <time>2025-05-02T14:22:01Z</time>
      </trkpt>
      <trkpt lat="41.277154991403222" lon="-7.136688977479935">
        <ele>360.63</ele>
        <time>2025-05-02T14:22:04Z</time>
      </trkpt>
      <trkpt lat="41.277089025825262" lon="-7.136552017182112">
        <ele>360.14999999999998</ele>
        <time>2025-05-02T14:22:05Z</time>
      </trkpt>
      <trkpt lat="41.277046026661992" lon="-7.13639703579247">
        <ele>359.67000000000002</ele>
        <time>2025-05-02T14:22:06Z</time>
      </trkpt>
      <trkpt lat="41.277009984478354" lon="-7.136216992512345">
        <ele>359.19</ele>
        <time>2025-05-02T14:22:07Z</time>
      </trkpt>
      <trkpt lat="41.27701903693378" lon="-7.136021023616195">
        <ele>358.70999999999998</ele>
        <time>2025-05-02T14:22:08Z</time>
      </trkpt>
      <trkpt lat="41.277025993913412" lon="-7.135833017528057">
        <ele>358.23000000000002</ele>
        <time>2025-05-02T14:22:09Z</time>
      </trkpt>
      <trkpt lat="41.277018031105399" lon="-7.135652974247932">
        <ele>357.75</ele>
        <time>2025-05-02T14:22:10Z</time>
      </trkpt>
      <trkpt lat="41.276968996971846" lon="-7.135505033656955">
        <ele>356.79000000000002</ele>
        <time>2025-05-02T14:22:11Z</time>
      </trkpt>
      <trkpt lat="41.27689297311008" lon="-7.135365977883339">
        <ele>356.31</ele>
        <time>2025-05-02T14:22:12Z</time>
      </trkpt>
      <trkpt lat="41.276787025853992" lon="-7.135241003707051">
        <ele>355.82999999999998</ele>
        <time>2025-05-02T14:22:13Z</time>
      </trkpt>
      <trkpt lat="41.276660962030292" lon="-7.135104965418577">
        <ele>355.33999999999997</ele>
        <time>2025-05-02T14:22:14Z</time>
      </trkpt>
      <trkpt lat="41.276415959000587" lon="-7.134824004024267">
        <ele>353.89999999999998</ele>
        <time>2025-05-02T14:22:16Z</time>
      </trkpt>
      <trkpt lat="41.276316968724132" lon="-7.134660976007581">
        <ele>352.94</ele>
        <time>2025-05-02T14:22:17Z</time>
      </trkpt>
      <trkpt lat="41.276278998702765" lon="-7.134546982124448">
        <ele>352.45999999999998</ele>
        <time>2025-05-02T14:22:18Z</time>
      </trkpt>
      <trkpt lat="41.276292996481061" lon="-7.134313965216279">
        <ele>351.5</ele>
        <time>2025-05-02T14:22:19Z</time>
      </trkpt>
      <trkpt lat="41.276303976774216" lon="-7.134125959128141">
        <ele>351.01999999999998</ele>
        <time>2025-05-02T14:22:20Z</time>
      </trkpt>
      <trkpt lat="41.276315962895751" lon="-7.133934013545513">
        <ele>350.06</ele>
        <time>2025-05-02T14:22:21Z</time>
      </trkpt>
      <trkpt lat="41.276297019794583" lon="-7.133754976093769">
        <ele>349.10000000000002</ele>
        <time>2025-05-02T14:22:22Z</time>
      </trkpt>
      <trkpt lat="41.276243962347507" lon="-7.133574010804296">
        <ele>347.64999999999998</ele>
        <time>2025-05-02T14:22:23Z</time>
      </trkpt>
      <trkpt lat="41.276172967627645" lon="-7.133387010544539">
        <ele>346.69</ele>
        <time>2025-05-02T14:22:24Z</time>
      </trkpt>
      <trkpt lat="41.276081018149853" lon="-7.133191041648388">
        <ele>345.73000000000002</ele>
        <time>2025-05-02T14:22:25Z</time>
      </trkpt>
      <trkpt lat="41.275452962145209" lon="-7.131968038156629">
        <ele>339</ele>
        <time>2025-05-02T14:22:31Z</time>
      </trkpt>
      <trkpt lat="41.275338968262076" lon="-7.131813978776336">
        <ele>337.56</ele>
        <time>2025-05-02T14:22:32Z</time>
      </trkpt>
      <trkpt lat="41.275191027671099" lon="-7.131701996549964">
        <ele>336.12</ele>
        <time>2025-05-02T14:22:33Z</time>
      </trkpt>
      <trkpt lat="41.275043003261089" lon="-7.131590014323592">
        <ele>334.68000000000001</ele>
        <time>2025-05-02T14:22:34Z</time>
      </trkpt>
      <trkpt lat="41.274901013821363" lon="-7.131480965763331">
        <ele>333.23000000000002</ele>
        <time>2025-05-02T14:22:35Z</time>
      </trkpt>
      <trkpt lat="41.274756006896496" lon="-7.131417011842132">
        <ele>332.26999999999998</ele>
        <time>2025-05-02T14:22:36Z</time>
      </trkpt>
      <trkpt lat="41.274603959172964" lon="-7.131403014063835">
        <ele>330.82999999999998</ele>
        <time>2025-05-02T14:22:37Z</time>
      </trkpt>
      <trkpt lat="41.274447971954942" lon="-7.131436038762331">
        <ele>329.38999999999999</ele>
        <time>2025-05-02T14:22:38Z</time>
      </trkpt>
      <trkpt lat="41.273666024208069" lon="-7.131537962704897">
        <ele>324.57999999999998</ele>
        <time>2025-05-02T14:22:43Z</time>
      </trkpt>
      <trkpt lat="41.273545995354652" lon="-7.131512984633446">
        <ele>323.62</ele>
        <time>2025-05-02T14:22:44Z</time>
      </trkpt>
      <trkpt lat="41.273451028391719" lon="-7.131398990750313">
        <ele>322.66000000000003</ele>
        <time>2025-05-02T14:22:45Z</time>
      </trkpt>
      <trkpt lat="41.273338962346315" lon="-7.131263958290219">
        <ele>321.69999999999999</ele>
        <time>2025-05-02T14:22:46Z</time>
      </trkpt>
      <trkpt lat="41.27328397706151" lon="-7.131132027134299">
        <ele>320.74000000000001</ele>
        <time>2025-05-02T14:22:47Z</time>
      </trkpt>
      <trkpt lat="41.273213988170028" lon="-7.130962964147329">
        <ele>320.25999999999999</ele>
        <time>2025-05-02T14:22:48Z</time>
      </trkpt>
      <trkpt lat="41.273139975965023" lon="-7.130781998857856">
        <ele>319.30000000000001</ele>
        <time>2025-05-02T14:22:49Z</time>
      </trkpt>
      <trkpt lat="41.273058000952005" lon="-7.130620982497931">
        <ele>318.32999999999998</ele>
        <time>2025-05-02T14:22:50Z</time>
      </trkpt>
      <trkpt lat="41.272924980148673" lon="-7.130502965301275">
        <ele>317.37</ele>
        <time>2025-05-02T14:22:51Z</time>
      </trkpt>
      <trkpt lat="41.272781984880567" lon="-7.130374973639846">
        <ele>316.88999999999999</ele>
        <time>2025-05-02T14:22:52Z</time>
      </trkpt>
      <trkpt lat="41.272633038461208" lon="-7.130242036655545">
        <ele>315.44999999999999</ele>
        <time>2025-05-02T14:22:53Z</time>
      </trkpt>
      <trkpt lat="41.272046975791454" lon="-7.129687992855907">
        <ele>312.08999999999997</ele>
        <time>2025-05-02T14:22:57Z</time>
      </trkpt>
      <trkpt lat="41.271935999393463" lon="-7.129513984546065">
        <ele>311.12</ele>
        <time>2025-05-02T14:22:58Z</time>
      </trkpt>
      <trkpt lat="41.271825022995472" lon="-7.129339976236224">
        <ele>310.16000000000003</ele>
        <time>2025-05-02T14:22:59Z</time>
      </trkpt>
      <trkpt lat="41.271719997748733" lon="-7.129175020381808">
        <ele>309.19999999999999</ele>
        <time>2025-05-02T14:23:00Z</time>
      </trkpt>
      <trkpt lat="41.271626958623528" lon="-7.129030013456941">
        <ele>308.24000000000001</ele>
        <time>2025-05-02T14:23:01Z</time>
      </trkpt>
      <trkpt lat="41.271497961133718" lon="-7.128974022343755">
        <ele>306.80000000000001</ele>
        <time>2025-05-02T14:23:02Z</time>
      </trkpt>
      <trkpt lat="41.271372986957431" lon="-7.128954995423555">
        <ele>305.83999999999997</ele>
        <time>2025-05-02T14:23:03Z</time>
      </trkpt>
      <trkpt lat="41.271252036094666" lon="-7.128989025950432">
        <ele>304.38999999999999</ele>
        <time>2025-05-02T14:23:04Z</time>
      </trkpt>
      <trkpt lat="41.271141981706023" lon="-7.129054991528392">
        <ele>303.43000000000001</ele>
        <time>2025-05-02T14:23:05Z</time>
      </trkpt>
      <trkpt lat="41.27102798782289" lon="-7.129122968763113">
        <ele>302.47000000000003</ele>
        <time>2025-05-02T14:23:06Z</time>
      </trkpt>
      <trkpt lat="41.270908964797854" lon="-7.129150964319706">
        <ele>301.99000000000001</ele>
        <time>2025-05-02T14:23:07Z</time>
      </trkpt>
      <trkpt lat="41.270793965086341" lon="-7.12913797236979">
        <ele>301.50999999999999</ele>
        <time>2025-05-02T14:23:08Z</time>
      </trkpt>
      <trkpt lat="41.270692963153124" lon="-7.129065971821547">
        <ele>301.02999999999997</ele>
        <time>2025-05-02T14:23:09Z</time>
      </trkpt>
      <trkpt lat="41.270605958998203" lon="-7.12894200347364">
        <ele>301.02999999999997</ele>
        <time>2025-05-02T14:23:10Z</time>
      </trkpt>
      <trkpt lat="41.270523983985186" lon="-7.128800014033914">
        <ele>300.55000000000001</ele>
        <time>2025-05-02T14:23:11Z</time>
      </trkpt>
      <trkpt lat="41.270452989265323" lon="-7.128629023209214">
        <ele>300.06999999999999</ele>
        <time>2025-05-02T14:23:12Z</time>
      </trkpt>
      <trkpt lat="41.270049987360835" lon="-7.127605006098747">
        <ele>297.18000000000001</ele>
        <time>2025-05-02T14:23:18Z</time>
      </trkpt>
      <trkpt lat="41.270006988197565" lon="-7.12743703275919">
        <ele>296.69999999999999</ele>
        <time>2025-05-02T14:23:19Z</time>
      </trkpt>
      <trkpt lat="41.269985027611256" lon="-7.127249026671052">
        <ele>296.22000000000003</ele>
        <time>2025-05-02T14:23:20Z</time>
      </trkpt>
      <trkpt lat="41.26995300874114" lon="-7.126658018678427">
        <ele>293.81999999999999</ele>
        <time>2025-05-02T14:23:23Z</time>
      </trkpt>
      <trkpt lat="41.26990900374949" lon="-7.126475963741541">
        <ele>292.38</ele>
        <time>2025-05-02T14:23:24Z</time>
      </trkpt>
      <trkpt lat="41.269832979887724" lon="-7.12634202092886">
        <ele>291.42000000000002</ele>
        <time>2025-05-02T14:23:25Z</time>
      </trkpt>
      <trkpt lat="41.269734995439649" lon="-7.126244036480784">
        <ele>290.45999999999998</ele>
        <time>2025-05-02T14:23:26Z</time>
      </trkpt>
      <trkpt lat="41.269617984071374" lon="-7.126182010397315">
        <ele>289.49000000000001</ele>
        <time>2025-05-02T14:23:27Z</time>
      </trkpt>
      <trkpt lat="41.269492004066706" lon="-7.126115961000323">
        <ele>289.00999999999999</ele>
        <time>2025-05-02T14:23:28Z</time>
      </trkpt>
      <trkpt lat="41.269368035718799" lon="-7.126049995422363">
        <ele>287.56999999999999</ele>
        <time>2025-05-02T14:23:29Z</time>
      </trkpt>
      <trkpt lat="41.269267033785582" lon="-7.125952010974288">
        <ele>287.08999999999997</ele>
        <time>2025-05-02T14:23:30Z</time>
      </trkpt>
      <trkpt lat="41.269186986610293" lon="-7.12584899738431">
        <ele>286.13</ele>
        <time>2025-05-02T14:23:31Z</time>
      </trkpt>
      <trkpt lat="41.269167037680745" lon="-7.125698961317539">
        <ele>285.64999999999998</ele>
        <time>2025-05-02T14:23:32Z</time>
      </trkpt>
      <trkpt lat="41.269154967740178" lon="-7.125513972714543">
        <ele>284.69</ele>
        <time>2025-05-02T14:23:33Z</time>
      </trkpt>
      <trkpt lat="41.26917902380228" lon="-7.125387992709875">
        <ele>284.20999999999998</ele>
        <time>2025-05-02T14:23:34Z</time>
      </trkpt>
      <trkpt lat="41.269210958853364" lon="-7.12522697634995">
        <ele>283.25</ele>
        <time>2025-05-02T14:23:35Z</time>
      </trkpt>
      <trkpt lat="41.269241971895099" lon="-7.125062020495534">
        <ele>282.27999999999997</ele>
        <time>2025-05-02T14:23:36Z</time>
      </trkpt>
      <trkpt lat="41.269273990765214" lon="-7.124898992478848">
        <ele>281.31999999999999</ele>
        <time>2025-05-02T14:23:37Z</time>
      </trkpt>
      <trkpt lat="41.269238032400608" lon="-7.124749040231109">
        <ele>280.36000000000001</ele>
        <time>2025-05-02T14:23:38Z</time>
      </trkpt>
      <trkpt lat="41.269173994660378" lon="-7.124609984457493">
        <ele>279.39999999999998</ele>
        <time>2025-05-02T14:23:39Z</time>
      </trkpt>
      <trkpt lat="41.269081961363554" lon="-7.124489033594728">
        <ele>278.44</ele>
        <time>2025-05-02T14:23:40Z</time>
      </trkpt>
      <trkpt lat="41.268970984965563" lon="-7.124367998912931">
        <ele>277.48000000000002</ele>
        <time>2025-05-02T14:23:41Z</time>
      </trkpt>
      <trkpt lat="41.268861014395952" lon="-7.124245958402753">
        <ele>277</ele>
        <time>2025-05-02T14:23:42Z</time>
      </trkpt>
      <trkpt lat="41.268759006634355" lon="-7.124133976176381">
        <ele>276.04000000000002</ele>
        <time>2025-05-02T14:23:43Z</time>
      </trkpt>
      <trkpt lat="41.268699998036027" lon="-7.124006990343332">
        <ele>275.56</ele>
        <time>2025-05-02T14:23:44Z</time>
      </trkpt>
      <trkpt lat="41.268661022186279" lon="-7.123872041702271">
        <ele>275.06999999999999</ele>
        <time>2025-05-02T14:23:45Z</time>
      </trkpt>
      <trkpt lat="41.26864300109446" lon="-7.12374203838408">
        <ele>274.58999999999997</ele>
        <time>2025-05-02T14:23:46Z</time>
      </trkpt>
      <trkpt lat="41.268651969730854" lon="-7.123586973175407">
        <ele>274.11000000000001</ele>
        <time>2025-05-02T14:23:47Z</time>
      </trkpt>
      <trkpt lat="41.26866496168077" lon="-7.123416988179088">
        <ele>273.14999999999998</ele>
        <time>2025-05-02T14:23:48Z</time>
      </trkpt>
      <trkpt lat="41.268886998295784" lon="-7.122476035729051">
        <ele>268.82999999999998</ele>
        <time>2025-05-02T14:23:53Z</time>
      </trkpt>
      <trkpt lat="41.268982971087098" lon="-7.12230202741921">
        <ele>268.35000000000002</ele>
        <time>2025-05-02T14:23:54Z</time>
      </trkpt>
      <trkpt lat="41.269323024898767" lon="-7.12181000970304">
        <ele>265.45999999999998</ele>
        <time>2025-05-02T14:23:57Z</time>
      </trkpt>
      <trkpt lat="41.269385972991586" lon="-7.121612029150128">
        <ele>264.5</ele>
        <time>2025-05-02T14:23:58Z</time>
      </trkpt>
      <trkpt lat="41.269454034045339" lon="-7.121399966999888">
        <ele>263.54000000000002</ele>
        <time>2025-05-02T14:23:59Z</time>
      </trkpt>
      <trkpt lat="41.269702976569533" lon="-7.119687041267753">
        <ele>255.84999999999999</ele>
        <time>2025-05-02T14:24:06Z</time>
      </trkpt>
      <trkpt lat="41.269713034853339" lon="-7.119504986330867">
        <ele>253.93000000000001</ele>
        <time>2025-05-02T14:24:07Z</time>
      </trkpt>
      <trkpt lat="41.269642962142825" lon="-7.119376994669437">
        <ele>252.47999999999999</ele>
        <time>2025-05-02T14:24:08Z</time>
      </trkpt>
      <trkpt lat="41.269584037363529" lon="-7.119269035756588">
        <ele>250.56</ele>
        <time>2025-05-02T14:24:09Z</time>
      </trkpt>
      <trkpt lat="41.269478006288409" lon="-7.119245985522866">
        <ele>249.12</ele>
        <time>2025-05-02T14:24:10Z</time>
      </trkpt>
      <trkpt lat="41.269360994920135" lon="-7.119237016886473">
        <ele>247.68000000000001</ele>
        <time>2025-05-02T14:24:11Z</time>
      </trkpt>
      <trkpt lat="41.269231997430325" lon="-7.119283033534885">
        <ele>246.22999999999999</ele>
        <time>2025-05-02T14:24:12Z</time>
      </trkpt>
      <trkpt lat="41.269100988283753" lon="-7.119329972192645">
        <ele>245.27000000000001</ele>
        <time>2025-05-02T14:24:13Z</time>
      </trkpt>
      <trkpt lat="41.268968973308802" lon="-7.119333995506167">
        <ele>244.31</ele>
        <time>2025-05-02T14:24:14Z</time>
      </trkpt>
      <trkpt lat="41.268847016617656" lon="-7.119310023263097">
        <ele>243.34999999999999</ele>
        <time>2025-05-02T14:24:15Z</time>
      </trkpt>
      <trkpt lat="41.268736962229013" lon="-7.119220001623035">
        <ele>242.38999999999999</ele>
        <time>2025-05-02T14:24:16Z</time>
      </trkpt>
      <trkpt lat="41.268632020801306" lon="-7.11912302300334">
        <ele>241.91</ele>
        <time>2025-05-02T14:24:17Z</time>
      </trkpt>
      <trkpt lat="41.268560020253062" lon="-7.118968963623047">
        <ele>241.43000000000001</ele>
        <time>2025-05-02T14:24:18Z</time>
      </trkpt>
      <trkpt lat="41.26849003136158" lon="-7.118816999718547">
        <ele>240.94999999999999</ele>
        <time>2025-05-02T14:24:19Z</time>
      </trkpt>
      <trkpt lat="41.26849003136158" lon="-7.118636034429073">
        <ele>240.47</ele>
        <time>2025-05-02T14:24:20Z</time>
      </trkpt>
      <trkpt lat="41.268493970856071" lon="-7.11843897588551">
        <ele>239.50999999999999</ele>
        <time>2025-05-02T14:24:21Z</time>
      </trkpt>
      <trkpt lat="41.268502017483115" lon="-7.118232026696205">
        <ele>239.02000000000001</ele>
        <time>2025-05-02T14:24:22Z</time>
      </trkpt>
      <trkpt lat="41.268558008596301" lon="-7.117256037890911">
        <ele>235.18000000000001</ele>
        <time>2025-05-02T14:24:27Z</time>
      </trkpt>
      <trkpt lat="41.26853303052485" lon="-7.117101978510618">
        <ele>234.69999999999999</ele>
        <time>2025-05-02T14:24:28Z</time>
      </trkpt>
      <trkpt lat="41.268467986956239" lon="-7.116972981020808">
        <ele>233.74000000000001</ele>
        <time>2025-05-02T14:24:29Z</time>
      </trkpt>
      <trkpt lat="41.268358016386628" lon="-7.116899974644184">
        <ele>232.78</ele>
        <time>2025-05-02T14:24:30Z</time>
      </trkpt>
      <trkpt lat="41.268250979483128" lon="-7.116828979924321">
        <ele>232.30000000000001</ele>
        <time>2025-05-02T14:24:31Z</time>
      </trkpt>
      <trkpt lat="41.268146960064769" lon="-7.116758991032839">
        <ele>231.33000000000001</ele>
        <time>2025-05-02T14:24:32Z</time>
      </trkpt>
      <trkpt lat="41.268058028072119" lon="-7.11663200519979">
        <ele>230.37</ele>
        <time>2025-05-02T14:24:33Z</time>
      </trkpt>
      <trkpt lat="41.267983010038733" lon="-7.116494961082935">
        <ele>229.41</ele>
        <time>2025-05-02T14:24:34Z</time>
      </trkpt>
      <trkpt lat="41.267939005047083" lon="-7.116326987743378">
        <ele>228.44999999999999</ele>
        <time>2025-05-02T14:24:35Z</time>
      </trkpt>
      <trkpt lat="41.26789097674191" lon="-7.116146022453904">
        <ele>227.97</ele>
        <time>2025-05-02T14:24:36Z</time>
      </trkpt>
      <trkpt lat="41.267743958160281" lon="-7.115592984482646">
        <ele>225.09</ele>
        <time>2025-05-02T14:24:39Z</time>
      </trkpt>
      <trkpt lat="41.267681010067463" lon="-7.11545099504292">
        <ele>224.12</ele>
        <time>2025-05-02T14:24:40Z</time>
      </trkpt>
      <trkpt lat="41.26756701618433" lon="-7.11532099172473">
        <ele>223.16</ele>
        <time>2025-05-02T14:24:41Z</time>
      </trkpt>
      <trkpt lat="41.267452016472816" lon="-7.11525502614677">
        <ele>222.68000000000001</ele>
        <time>2025-05-02T14:24:42Z</time>
      </trkpt>
      <trkpt lat="41.267324024811387" lon="-7.115181013941765">
        <ele>221.72</ele>
        <time>2025-05-02T14:24:43Z</time>
      </trkpt>
      <trkpt lat="41.267201984301209" lon="-7.115110019221902">
        <ele>220.75999999999999</ele>
        <time>2025-05-02T14:24:44Z</time>
      </trkpt>
      <trkpt lat="41.267092013731599" lon="-7.115016980096698">
        <ele>219.80000000000001</ele>
        <time>2025-05-02T14:24:45Z</time>
      </trkpt>
      <trkpt lat="41.267006015405059" lon="-7.114900974556804">
        <ele>219.31999999999999</ele>
        <time>2025-05-02T14:24:46Z</time>
      </trkpt>
      <trkpt lat="41.266940971836448" lon="-7.114758985117078">
        <ele>218.84</ele>
        <time>2025-05-02T14:24:47Z</time>
      </trkpt>
      <trkpt lat="41.266899984329939" lon="-7.114597968757153">
        <ele>217.88</ele>
        <time>2025-05-02T14:24:48Z</time>
      </trkpt>
      <trkpt lat="41.266867965459824" lon="-7.114428989589214">
        <ele>216.91</ele>
        <time>2025-05-02T14:24:49Z</time>
      </trkpt>
      <trkpt lat="41.266837958246469" lon="-7.114265961572528">
        <ele>216.43000000000001</ele>
        <time>2025-05-02T14:24:50Z</time>
      </trkpt>
      <trkpt lat="41.266837958246469" lon="-7.114113997668028">
        <ele>215.47</ele>
        <time>2025-05-02T14:24:51Z</time>
      </trkpt>
      <trkpt lat="41.266881041228771" lon="-7.113991035148501">
        <ele>214.99000000000001</ele>
        <time>2025-05-02T14:24:52Z</time>
      </trkpt>
      <trkpt lat="41.266924040392041" lon="-7.11388198658824">
        <ele>214.99000000000001</ele>
        <time>2025-05-02T14:24:53Z</time>
      </trkpt>
      <trkpt lat="41.267000986263156" lon="-7.1137959882617">
        <ele>214.50999999999999</ele>
        <time>2025-05-02T14:24:54Z</time>
      </trkpt>
      <trkpt lat="41.267082039266825" lon="-7.113703032955527">
        <ele>214.03</ele>
        <time>2025-05-02T14:24:55Z</time>
      </trkpt>
      <trkpt lat="41.267171977087855" lon="-7.11360203102231">
        <ele>214.03</ele>
        <time>2025-05-02T14:24:56Z</time>
      </trkpt>
      <trkpt lat="41.267244983464479" lon="-7.11351896636188">
        <ele>213.06999999999999</ele>
        <time>2025-05-02T14:24:57Z</time>
      </trkpt>
      <trkpt lat="41.267339028418064" lon="-7.1133469697088">
        <ele>212.59</ele>
        <time>2025-05-02T14:24:58Z</time>
      </trkpt>
      <trkpt lat="41.267399964854121" lon="-7.113177990540862">
        <ele>211.63</ele>
        <time>2025-05-02T14:24:59Z</time>
      </trkpt>
      <trkpt lat="41.267447993159294" lon="-7.11298000998795">
        <ele>210.66999999999999</ele>
        <time>2025-05-02T14:25:00Z</time>
      </trkpt>
      <trkpt lat="41.267631975933909" lon="-7.112122038379312">
        <ele>207.78</ele>
        <time>2025-05-02T14:25:04Z</time>
      </trkpt>
      <trkpt lat="41.267617978155613" lon="-7.111916011199355">
        <ele>206.81999999999999</ele>
        <time>2025-05-02T14:25:05Z</time>
      </trkpt>
      <trkpt lat="41.267583025619388" lon="-7.111705960705876">
        <ele>205.86000000000001</ele>
        <time>2025-05-02T14:25:06Z</time>
      </trkpt>
      <trkpt lat="41.267311032861471" lon="-7.110286988317967">
        <ele>200.09</ele>
        <time>2025-05-02T14:25:13Z</time>
      </trkpt>
      <trkpt lat="41.267335005104542" lon="-7.110101999714971">
        <ele>199.61000000000001</ele>
        <time>2025-05-02T14:25:14Z</time>
      </trkpt>
      <trkpt lat="41.267424020916224" lon="-7.109529012814164">
        <ele>196.25</ele>
        <time>2025-05-02T14:25:17Z</time>
      </trkpt>
      <trkpt lat="41.267421003431082" lon="-7.10934603586793">
        <ele>195.28</ele>
        <time>2025-05-02T14:25:18Z</time>
      </trkpt>
      <trkpt lat="41.267384961247444" lon="-7.109186025336385">
        <ele>193.84</ele>
        <time>2025-05-02T14:25:19Z</time>
      </trkpt>
      <trkpt lat="41.267313966527581" lon="-7.109043030068278">
        <ele>192.88</ele>
        <time>2025-05-02T14:25:20Z</time>
      </trkpt>
      <trkpt lat="41.267185974866152" lon="-7.108928030356765">
        <ele>191.91999999999999</ele>
        <time>2025-05-02T14:25:21Z</time>
      </trkpt>
      <trkpt lat="41.267047002911568" lon="-7.108809007331729">
        <ele>190.47999999999999</ele>
        <time>2025-05-02T14:25:22Z</time>
      </trkpt>
      <trkpt lat="41.266895961016417" lon="-7.108680009841919">
        <ele>189.52000000000001</ele>
        <time>2025-05-02T14:25:23Z</time>
      </trkpt>
      <trkpt lat="41.266766041517258" lon="-7.108500972390175">
        <ele>188.56</ele>
        <time>2025-05-02T14:25:24Z</time>
      </trkpt>
      <trkpt lat="41.26632297411561" lon="-7.107776021584868">
        <ele>184.22999999999999</ele>
        <time>2025-05-02T14:25:28Z</time>
      </trkpt>
      <trkpt lat="41.26625700853765" lon="-7.107598995789886">
        <ele>183.27000000000001</ele>
        <time>2025-05-02T14:25:29Z</time>
      </trkpt>
      <trkpt lat="41.266219038516283" lon="-7.107434961944819">
        <ele>182.78999999999999</ele>
        <time>2025-05-02T14:25:30Z</time>
      </trkpt>
      <trkpt lat="41.266228007152677" lon="-7.107263971120119">
        <ele>181.83000000000001</ele>
        <time>2025-05-02T14:25:31Z</time>
      </trkpt>
      <trkpt lat="41.266244016587734" lon="-7.107089962810278">
        <ele>181.34999999999999</ele>
        <time>2025-05-02T14:25:32Z</time>
      </trkpt>
      <trkpt lat="41.266280980780721" lon="-7.106908997520804">
        <ele>180.38</ele>
        <time>2025-05-02T14:25:33Z</time>
      </trkpt>
      <trkpt lat="41.266474016010761" lon="-7.105980031192303">
        <ele>176.53999999999999</ele>
        <time>2025-05-02T14:25:38Z</time>
      </trkpt>
      <trkpt lat="41.266464963555336" lon="-7.105809040367603">
        <ele>176.06</ele>
        <time>2025-05-02T14:25:39Z</time>
      </trkpt>
      <trkpt lat="41.266397992148995" lon="-7.105646012350917">
        <ele>175.09999999999999</ele>
        <time>2025-05-02T14:25:40Z</time>
      </trkpt>
      <trkpt lat="41.266325991600752" lon="-7.105472004041076">
        <ele>174.62</ele>
        <time>2025-05-02T14:25:41Z</time>
      </trkpt>
      <trkpt lat="41.266253991052508" lon="-7.105296989902854">
        <ele>174.13999999999999</ele>
        <time>2025-05-02T14:25:42Z</time>
      </trkpt>
      <trkpt lat="41.26619003713131" lon="-7.105120969936252">
        <ele>173.66</ele>
        <time>2025-05-02T14:25:43Z</time>
      </trkpt>
      <trkpt lat="41.266162041574717" lon="-7.104928018525243">
        <ele>173.16999999999999</ele>
        <time>2025-05-02T14:25:44Z</time>
      </trkpt>
      <trkpt lat="41.266134968027472" lon="-7.104739006608725">
        <ele>172.69</ele>
        <time>2025-05-02T14:25:45Z</time>
      </trkpt>
      <trkpt lat="41.266087023541331" lon="-7.104399036616087">
        <ele>171.25</ele>
        <time>2025-05-02T14:25:47Z</time>
      </trkpt>
      <trkpt lat="41.266000019386411" lon="-7.104262998327613">
        <ele>170.28999999999999</ele>
        <time>2025-05-02T14:25:48Z</time>
      </trkpt>
      <trkpt lat="41.265909997746348" lon="-7.104139029979706">
        <ele>169.81</ele>
        <time>2025-05-02T14:25:49Z</time>
      </trkpt>
      <trkpt lat="41.26496703363955" lon="-7.103243004530668">
        <ele>163.56</ele>
        <time>2025-05-02T14:25:57Z</time>
      </trkpt>
      <trkpt lat="41.26490299589932" lon="-7.103115012869239">
        <ele>162.59999999999999</ele>
        <time>2025-05-02T14:25:58Z</time>
      </trkpt>
      <trkpt lat="41.264870977029204" lon="-7.102957013994455">
        <ele>162.12</ele>
        <time>2025-05-02T14:25:59Z</time>
      </trkpt>
      <trkpt lat="41.26485999673605" lon="-7.102785017341375">
        <ele>161.63999999999999</ele>
        <time>2025-05-02T14:26:00Z</time>
      </trkpt>
      <trkpt lat="41.264854967594147" lon="-7.10260296240449">
        <ele>161.63999999999999</ele>
        <time>2025-05-02T14:26:01Z</time>
      </trkpt>
      <trkpt lat="41.264849016442895" lon="-7.102414034307003">
        <ele>161.16</ele>
        <time>2025-05-02T14:26:02Z</time>
      </trkpt>
      <trkpt lat="41.264843987300992" lon="-7.102222004905343">
        <ele>160.68000000000001</ele>
        <time>2025-05-02T14:26:03Z</time>
      </trkpt>
      <trkpt lat="41.264792019501328" lon="-7.102042967453599">
        <ele>160.19999999999999</ele>
        <time>2025-05-02T14:26:04Z</time>
      </trkpt>
      <trkpt lat="41.264723036438227" lon="-7.101868959143758">
        <ele>160.19999999999999</ele>
        <time>2025-05-02T14:26:05Z</time>
      </trkpt>
      <trkpt lat="41.264655981212854" lon="-7.101704003289342">
        <ele>160.19999999999999</ele>
        <time>2025-05-02T14:26:06Z</time>
      </trkpt>
      <trkpt lat="41.264569982886314" lon="-7.101567965000868">
        <ele>159.72</ele>
        <time>2025-05-02T14:26:07Z</time>
      </trkpt>
      <trkpt lat="41.264476021751761" lon="-7.101464029401541">
        <ele>159.72</ele>
        <time>2025-05-02T14:26:08Z</time>
      </trkpt>
      <trkpt lat="41.264369990676641" lon="-7.101391023024917">
        <ele>159.24000000000001</ele>
        <time>2025-05-02T14:26:09Z</time>
      </trkpt>
      <trkpt lat="41.264247028157115" lon="-7.101378031075001">
        <ele>158.75</ele>
        <time>2025-05-02T14:26:10Z</time>
      </trkpt>
      <trkpt lat="41.264118030667305" lon="-7.101365039125085">
        <ele>158.27000000000001</ele>
        <time>2025-05-02T14:26:11Z</time>
      </trkpt>
      <trkpt lat="41.263988027349114" lon="-7.101351041346788">
        <ele>158.27000000000001</ele>
        <time>2025-05-02T14:26:12Z</time>
      </trkpt>
      <trkpt lat="41.263861041516066" lon="-7.101337965577841">
        <ele>157.78999999999999</ele>
        <time>2025-05-02T14:26:13Z</time>
      </trkpt>
      <trkpt lat="41.263755010440946" lon="-7.101294966414571">
        <ele>157.31</ele>
        <time>2025-05-02T14:26:14Z</time>
      </trkpt>
      <trkpt lat="41.263672029599547" lon="-7.101189019158483">
        <ele>157.31</ele>
        <time>2025-05-02T14:26:15Z</time>
      </trkpt>
      <trkpt lat="41.263621989637613" lon="-7.101038983091712">
        <ele>156.83000000000001</ele>
        <time>2025-05-02T14:26:16Z</time>
      </trkpt>
      <trkpt lat="41.263597011566162" lon="-7.100868998095393">
        <ele>156.34999999999999</ele>
        <time>2025-05-02T14:26:17Z</time>
      </trkpt>
      <trkpt lat="41.263597011566162" lon="-7.100679986178875">
        <ele>156.34999999999999</ele>
        <time>2025-05-02T14:26:18Z</time>
      </trkpt>
      <trkpt lat="41.263597011566162" lon="-7.100487034767866">
        <ele>156.34999999999999</ele>
        <time>2025-05-02T14:26:19Z</time>
      </trkpt>
      <trkpt lat="41.263517970219254" lon="-7.099339971318841">
        <ele>155.38999999999999</ele>
        <time>2025-05-02T14:26:25Z</time>
      </trkpt>
      <trkpt lat="41.263540014624596" lon="-7.099169986322522">
        <ele>155.38999999999999</ele>
        <time>2025-05-02T14:26:26Z</time>
      </trkpt>
      <trkpt lat="41.263589970767498" lon="-7.0989949721843">
        <ele>155.38999999999999</ele>
        <time>2025-05-02T14:26:27Z</time>
      </trkpt>
      <trkpt lat="41.263641016557813" lon="-7.098815012723208">
        <ele>155.38999999999999</ele>
        <time>2025-05-02T14:26:28Z</time>
      </trkpt>
      <trkpt lat="41.263692984357476" lon="-7.098630024120212">
        <ele>155.38999999999999</ele>
        <time>2025-05-02T14:26:29Z</time>
      </trkpt>
      <trkpt lat="41.263800021260977" lon="-7.098252000287175">
        <ele>154.43000000000001</ele>
        <time>2025-05-02T14:26:31Z</time>
      </trkpt>
      <trkpt lat="41.263833967968822" lon="-7.098049996420741">
        <ele>154.43000000000001</ele>
        <time>2025-05-02T14:26:32Z</time>
      </trkpt>
      <trkpt lat="41.263833967968822" lon="-7.097824020311236">
        <ele>154.91</ele>
        <time>2025-05-02T14:26:33Z</time>
      </trkpt>
      <trkpt lat="41.263833967968822" lon="-7.097603995352984">
        <ele>154.43000000000001</ele>
        <time>2025-05-02T14:26:34Z</time>
      </trkpt>
      <trkpt lat="41.263833967968822" lon="-7.097397968173027">
        <ele>154.43000000000001</ele>
        <time>2025-05-02T14:26:35Z</time>
      </trkpt>
      <trkpt lat="41.26385098323226" lon="-7.097203005105257">
        <ele>154.43000000000001</ele>
        <time>2025-05-02T14:26:36Z</time>
      </trkpt>
      <trkpt lat="41.263906974345446" lon="-7.097033020108938">
        <ele>154.43000000000001</ele>
        <time>2025-05-02T14:26:37Z</time>
      </trkpt>
      <trkpt lat="41.263972017914057" lon="-7.096852976828814">
        <ele>154.43000000000001</ele>
        <time>2025-05-02T14:26:38Z</time>
      </trkpt>
      <trkpt lat="41.264068996533751" lon="-7.096701012924314">
        <ele>153.94999999999999</ele>
        <time>2025-05-02T14:26:39Z</time>
      </trkpt>
      <trkpt lat="41.264166980981827" lon="-7.096549971029162">
        <ele>153.47</ele>
        <time>2025-05-02T14:26:40Z</time>
      </trkpt>
      <trkpt lat="41.264791013672948" lon="-7.09570499137044">
        <ele>151.53999999999999</ele>
        <time>2025-05-02T14:26:46Z</time>
      </trkpt>
      <trkpt lat="41.264916993677616" lon="-7.095584962517023">
        <ele>151.06</ele>
        <time>2025-05-02T14:26:47Z</time>
      </trkpt>
      <trkpt lat="41.265747975558043" lon="-7.094940980896354">
        <ele>149.62</ele>
        <time>2025-05-02T14:26:53Z</time>
      </trkpt>
      <trkpt lat="41.26584897749126" lon="-7.094832016155124">
        <ele>149.13999999999999</ele>
        <time>2025-05-02T14:26:54Z</time>
      </trkpt>
      <trkpt lat="41.265898011624813" lon="-7.09467301145196">
        <ele>148.66</ele>
        <time>2025-05-02T14:26:55Z</time>
      </trkpt>
      <trkpt lat="41.265932964161038" lon="-7.094490034505725">
        <ele>147.69999999999999</ele>
        <time>2025-05-02T14:26:56Z</time>
      </trkpt>
      <trkpt lat="41.265971018001437" lon="-7.094294987618923">
        <ele>147.22</ele>
        <time>2025-05-02T14:26:57Z</time>
      </trkpt>
      <trkpt lat="41.266019968315959" lon="-7.094105975702405">
        <ele>146.74000000000001</ele>
        <time>2025-05-02T14:26:58Z</time>
      </trkpt>
      <trkpt lat="41.266074031591415" lon="-7.093919981271029">
        <ele>146.25999999999999</ele>
        <time>2025-05-02T14:26:59Z</time>
      </trkpt>
      <trkpt lat="41.266147959977388" lon="-7.093742033466697">
        <ele>145.78</ele>
        <time>2025-05-02T14:27:00Z</time>
      </trkpt>
      <trkpt lat="41.26625700853765" lon="-7.093585040420294">
        <ele>145.78</ele>
        <time>2025-05-02T14:27:01Z</time>
      </trkpt>
      <trkpt lat="41.266366979107261" lon="-7.09342704154551">
        <ele>145.78</ele>
        <time>2025-05-02T14:27:02Z</time>
      </trkpt>
      <trkpt lat="41.266467981040478" lon="-7.093262001872063">
        <ele>145.78</ele>
        <time>2025-05-02T14:27:03Z</time>
      </trkpt>
      <trkpt lat="41.266531012952328" lon="-7.093070978298783">
        <ele>145.30000000000001</ele>
        <time>2025-05-02T14:27:04Z</time>
      </trkpt>
      <trkpt lat="41.26664400100708" lon="-7.092748023569584">
        <ele>144.81999999999999</ele>
        <time>2025-05-02T14:27:06Z</time>
      </trkpt>
      <trkpt lat="41.266735028475523" lon="-7.092683985829353">
        <ele>144.81999999999999</ele>
        <time>2025-05-02T14:27:07Z</time>
      </trkpt>
      <trkpt lat="41.266821026802063" lon="-7.092623971402645">
        <ele>144.81999999999999</ele>
        <time>2025-05-02T14:27:08Z</time>
      </trkpt>
      <trkpt lat="41.266926974058151" lon="-7.092605028301477">
        <ele>144.81999999999999</ele>
        <time>2025-05-02T14:27:09Z</time>
      </trkpt>
      <trkpt lat="41.267050020396709" lon="-7.092617014423013">
        <ele>144.34</ele>
        <time>2025-05-02T14:27:10Z</time>
      </trkpt>
      <trkpt lat="41.267173988744617" lon="-7.092630006372929">
        <ele>143.84999999999999</ele>
        <time>2025-05-02T14:27:11Z</time>
      </trkpt>
      <trkpt lat="41.267400970682502" lon="-7.092653978615999">
        <ele>143.37</ele>
        <time>2025-05-02T14:27:13Z</time>
      </trkpt>
      <trkpt lat="41.267512030899525" lon="-7.09263201802969">
        <ele>143.37</ele>
        <time>2025-05-02T14:27:14Z</time>
      </trkpt>
      <trkpt lat="41.26758998259902" lon="-7.092553982511163">
        <ele>143.84999999999999</ele>
        <time>2025-05-02T14:27:15Z</time>
      </trkpt>
      <trkpt lat="41.267644967883825" lon="-7.092416016384959">
        <ele>143.84999999999999</ele>
        <time>2025-05-02T14:27:16Z</time>
      </trkpt>
      <trkpt lat="41.267662988975644" lon="-7.092290036380291">
        <ele>144.34</ele>
        <time>2025-05-02T14:27:17Z</time>
      </trkpt>
      <trkpt lat="41.267681010067463" lon="-7.092164978384972">
        <ele>144.34</ele>
        <time>2025-05-02T14:27:18Z</time>
      </trkpt>
      <trkpt lat="41.267676986753941" lon="-7.092003962025046">
        <ele>144.34</ele>
        <time>2025-05-02T14:27:19Z</time>
      </trkpt>
      <trkpt lat="41.267628958448768" lon="-7.09186096675694">
        <ele>144.34</ele>
        <time>2025-05-02T14:27:20Z</time>
      </trkpt>
      <trkpt lat="41.267576990649104" lon="-7.091703973710537">
        <ele>144.34</ele>
        <time>2025-05-02T14:27:21Z</time>
      </trkpt>
      <trkpt lat="41.267310027033091" lon="-7.091035014018416">
        <ele>144.81999999999999</ele>
        <time>2025-05-02T14:27:25Z</time>
      </trkpt>
      <trkpt lat="41.267216987907887" lon="-7.090900987386704">
        <ele>144.81999999999999</ele>
        <time>2025-05-02T14:27:26Z</time>
      </trkpt>
      <trkpt lat="41.267102994024754" lon="-7.090782970190048">
        <ele>145.30000000000001</ele>
        <time>2025-05-02T14:27:27Z</time>
      </trkpt>
      <trkpt lat="41.266973996534944" lon="-7.090705018490553">
        <ele>145.30000000000001</ele>
        <time>2025-05-02T14:27:28Z</time>
      </trkpt>
      <trkpt lat="41.266837958246469" lon="-7.090623965486884">
        <ele>145.30000000000001</ele>
        <time>2025-05-02T14:27:29Z</time>
      </trkpt>
      <trkpt lat="41.266683982685208" lon="-7.090599993243814">
        <ele>145.30000000000001</ele>
        <time>2025-05-02T14:27:30Z</time>
      </trkpt>
      <trkpt lat="41.266529001295567" lon="-7.090576021000743">
        <ele>145.78</ele>
        <time>2025-05-02T14:27:31Z</time>
      </trkpt>
      <trkpt lat="41.266376031562686" lon="-7.090552970767021">
        <ele>145.78</ele>
        <time>2025-05-02T14:27:32Z</time>
      </trkpt>
      <trkpt lat="41.264695962890983" lon="-7.090316014364362">
        <ele>145.78</ele>
        <time>2025-05-02T14:27:43Z</time>
      </trkpt>
      <trkpt lat="41.264562020078301" lon="-7.090258011594415">
        <ele>146.25999999999999</ele>
        <time>2025-05-02T14:27:44Z</time>
      </trkpt>
      <trkpt lat="41.264451965689659" lon="-7.090133037418127">
        <ele>146.25999999999999</ele>
        <time>2025-05-02T14:27:45Z</time>
      </trkpt>
      <trkpt lat="41.264335038140416" lon="-7.090000016614795">
        <ele>146.25999999999999</ele>
        <time>2025-05-02T14:27:46Z</time>
      </trkpt>
      <trkpt lat="41.264221966266632" lon="-7.089846963062882">
        <ele>146.25999999999999</ele>
        <time>2025-05-02T14:27:47Z</time>
      </trkpt>
      <trkpt lat="41.264148959890008" lon="-7.089662980288267">
        <ele>146.25999999999999</ele>
        <time>2025-05-02T14:27:48Z</time>
      </trkpt>
      <trkpt lat="41.264070002362132" lon="-7.089464999735355">
        <ele>146.25999999999999</ele>
        <time>2025-05-02T14:27:49Z</time>
      </trkpt>
      <trkpt lat="41.264017028734088" lon="-7.089283028617501">
        <ele>146.25999999999999</ele>
        <time>2025-05-02T14:27:50Z</time>
      </trkpt>
      <trkpt lat="41.26391502097249" lon="-7.088886983692646">
        <ele>146.74000000000001</ele>
        <time>2025-05-02T14:27:52Z</time>
      </trkpt>
      <trkpt lat="41.263902029022574" lon="-7.088693026453257">
        <ele>147.22</ele>
        <time>2025-05-02T14:27:53Z</time>
      </trkpt>
      <trkpt lat="41.263909991830587" lon="-7.0885060261935">
        <ele>147.69999999999999</ele>
        <time>2025-05-02T14:27:54Z</time>
      </trkpt>
      <trkpt lat="41.26395802013576" lon="-7.088336041197181">
        <ele>148.18000000000001</ele>
        <time>2025-05-02T14:27:55Z</time>
      </trkpt>
      <trkpt lat="41.264034966006875" lon="-7.088180975988507">
        <ele>148.66</ele>
        <time>2025-05-02T14:27:56Z</time>
      </trkpt>
      <trkpt lat="41.264111995697021" lon="-7.088028006255627">
        <ele>149.13999999999999</ele>
        <time>2025-05-02T14:27:57Z</time>
      </trkpt>
      <trkpt lat="41.264305030927062" lon="-7.087582005187869">
        <ele>149.13999999999999</ele>
        <time>2025-05-02T14:28:00Z</time>
      </trkpt>
      <trkpt lat="41.264356998726726" lon="-7.087450996041298">
        <ele>149.13999999999999</ele>
        <time>2025-05-02T14:28:01Z</time>
      </trkpt>
      <trkpt lat="41.264391029253602" lon="-7.087338007986546">
        <ele>148.66</ele>
        <time>2025-05-02T14:28:02Z</time>
      </trkpt>
      <trkpt lat="41.264377031475306" lon="-7.087216973304749">
        <ele>148.66</ele>
        <time>2025-05-02T14:28:03Z</time>
      </trkpt>
      <trkpt lat="41.264335960149765" lon="-7.087105996906757">
        <ele>148.18000000000001</ele>
        <time>2025-05-02T14:28:04Z</time>
      </trkpt>
      <trkpt lat="41.264251973479986" lon="-7.087008012458682">
        <ele>148.18000000000001</ele>
        <time>2025-05-02T14:28:05Z</time>
      </trkpt>
      <trkpt lat="41.264154994860291" lon="-7.08691799081862">
        <ele>148.18000000000001</ele>
        <time>2025-05-02T14:28:06Z</time>
      </trkpt>
      <trkpt lat="41.2640440184623" lon="-7.086825035512447">
        <ele>148.18000000000001</ele>
        <time>2025-05-02T14:28:07Z</time>
      </trkpt>
      <trkpt lat="41.263920972123742" lon="-7.086722021922469">
        <ele>147.69999999999999</ele>
        <time>2025-05-02T14:28:08Z</time>
      </trkpt>
      <trkpt lat="41.263167019933462" lon="-7.086205026134849">
        <ele>146.74000000000001</ele>
        <time>2025-05-02T14:28:13Z</time>
      </trkpt>
      <trkpt lat="41.262985970824957" lon="-7.086131013929844">
        <ele>146.25999999999999</ele>
        <time>2025-05-02T14:28:14Z</time>
      </trkpt>
      <trkpt lat="41.26279603689909" lon="-7.086072005331516">
        <ele>145.78</ele>
        <time>2025-05-02T14:28:15Z</time>
      </trkpt>
      <trkpt lat="41.262601995840669" lon="-7.086010985076428">
        <ele>145.30000000000001</ele>
        <time>2025-05-02T14:28:16Z</time>
      </trkpt>
      <trkpt lat="41.262362021952868" lon="-7.085992963984609">
        <ele>144.34</ele>
        <time>2025-05-02T14:28:17Z</time>
      </trkpt>
      <trkpt lat="41.262149037793279" lon="-7.086049960926175">
        <ele>143.84999999999999</ele>
        <time>2025-05-02T14:28:18Z</time>
      </trkpt>
      <trkpt lat="41.260643983259797" lon="-7.086783964186907">
        <ele>140.49000000000001</ele>
        <time>2025-05-02T14:28:25Z</time>
      </trkpt>
      <trkpt lat="41.258688988164067" lon="-7.08773497492075">
        <ele>138.09</ele>
        <time>2025-05-02T14:28:34Z</time>
      </trkpt>
      <trkpt lat="41.257518958300352" lon="-7.087677977979183">
        <ele>137.61000000000001</ele>
        <time>2025-05-02T14:28:40Z</time>
      </trkpt>
      <trkpt lat="41.255737971514463" lon="-7.087189983576536">
        <ele>138.09</ele>
        <time>2025-05-02T14:28:50Z</time>
      </trkpt>
      <trkpt lat="41.254528965801001" lon="-7.087083030492067">
        <ele>139.05000000000001</ele>
        <time>2025-05-02T14:28:57Z</time>
      </trkpt>
      <trkpt lat="41.25233399681747" lon="-7.087125023826957">
        <ele>139.05000000000001</ele>
        <time>2025-05-02T14:29:09Z</time>
      </trkpt>
      <trkpt lat="41.250235000625253" lon="-7.087169028818607">
        <ele>139.05000000000001</ele>
        <time>2025-05-02T14:29:19Z</time>
      </trkpt>
      <trkpt lat="41.247230004519224" lon="-7.087230971083045">
        <ele>139.05000000000001</ele>
        <time>2025-05-02T14:29:32Z</time>
      </trkpt>
      <trkpt lat="41.244958005845547" lon="-7.087269024923444">
        <ele>139.53</ele>
        <time>2025-05-02T14:29:43Z</time>
      </trkpt>
      <trkpt lat="41.243791999295354" lon="-7.087260978296399">
        <ele>142.41</ele>
        <time>2025-05-02T14:29:50Z</time>
      </trkpt>
      <trkpt lat="41.243487987667322" lon="-7.087225019931793">
        <ele>143.37</ele>
        <time>2025-05-02T14:29:52Z</time>
      </trkpt>
      <trkpt lat="41.2433320004493" lon="-7.087173974141479">
        <ele>143.84999999999999</ele>
        <time>2025-05-02T14:29:53Z</time>
      </trkpt>
      <trkpt lat="41.241303998976946" lon="-7.086498979479075">
        <ele>148.66</ele>
        <time>2025-05-02T14:30:05Z</time>
      </trkpt>
      <trkpt lat="41.240760013461113" lon="-7.08631600253284">
        <ele>149.13999999999999</ele>
        <time>2025-05-02T14:30:08Z</time>
      </trkpt>
      <trkpt lat="41.240564966574311" lon="-7.086328994482756">
        <ele>149.13999999999999</ele>
        <time>2025-05-02T14:30:09Z</time>
      </trkpt>
      <trkpt lat="41.240368997678161" lon="-7.086349027231336">
        <ele>149.13999999999999</ele>
        <time>2025-05-02T14:30:10Z</time>
      </trkpt>
      <trkpt lat="41.237039035186172" lon="-7.086821012198925">
        <ele>143.84999999999999</ele>
        <time>2025-05-02T14:30:26Z</time>
      </trkpt>
      <trkpt lat="41.234227996319532" lon="-7.087231976911426">
        <ele>137.61000000000001</ele>
        <time>2025-05-02T14:30:40Z</time>
      </trkpt>
      <trkpt lat="41.232305020093918" lon="-7.087462982162833">
        <ele>136.63999999999999</ele>
        <time>2025-05-02T14:30:50Z</time>
      </trkpt>
      <trkpt lat="41.232113996520638" lon="-7.087438004091382">
        <ele>137.13</ele>
        <time>2025-05-02T14:30:51Z</time>
      </trkpt>
      <trkpt lat="41.231731027364731" lon="-7.087386958301067">
        <ele>137.61000000000001</ele>
        <time>2025-05-02T14:30:53Z</time>
      </trkpt>
      <trkpt lat="41.231542015448213" lon="-7.087361980229616">
        <ele>137.61000000000001</ele>
        <time>2025-05-02T14:30:54Z</time>
      </trkpt>
      <trkpt lat="41.231353003531694" lon="-7.087429035454989">
        <ele>137.13</ele>
        <time>2025-05-02T14:30:55Z</time>
      </trkpt>
      <trkpt lat="41.231163991615176" lon="-7.08749701268971">
        <ele>137.13</ele>
        <time>2025-05-02T14:30:56Z</time>
      </trkpt>
      <trkpt lat="41.230971962213516" lon="-7.087565995752811">
        <ele>136.63999999999999</ele>
        <time>2025-05-02T14:30:57Z</time>
      </trkpt>
      <trkpt lat="41.228266032412648" lon="-7.088685985654593">
        <ele>133.28</ele>
        <time>2025-05-02T14:31:11Z</time>
      </trkpt>
      <trkpt lat="41.225444013252854" lon="-7.089873030781746">
        <ele>132.80000000000001</ele>
        <time>2025-05-02T14:31:26Z</time>
      </trkpt>
      <trkpt lat="41.223440989851952" lon="-7.090711975470185">
        <ele>131.84</ele>
        <time>2025-05-02T14:31:37Z</time>
      </trkpt>
      <trkpt lat="41.221539974212646" lon="-7.09160003811121">
        <ele>129.43000000000001</ele>
        <time>2025-05-02T14:31:47Z</time>
      </trkpt>
      <trkpt lat="41.22049299068749" lon="-7.092012008652091">
        <ele>128.47</ele>
        <time>2025-05-02T14:31:54Z</time>
      </trkpt>
      <trkpt lat="41.220207000151277" lon="-7.092081997543573">
        <ele>127.98999999999999</ele>
        <time>2025-05-02T14:31:56Z</time>
      </trkpt>
      <trkpt lat="41.220054030418396" lon="-7.092076968401671">
        <ele>127.98999999999999</ele>
        <time>2025-05-02T14:31:57Z</time>
      </trkpt>
      <trkpt lat="41.219893014058471" lon="-7.092071017250419">
        <ele>127.98999999999999</ele>
        <time>2025-05-02T14:31:58Z</time>
      </trkpt>
      <trkpt lat="41.218522991985083" lon="-7.091997005045414">
        <ele>131.84</ele>
        <time>2025-05-02T14:32:06Z</time>
      </trkpt>
      <trkpt lat="41.217462010681629" lon="-7.091887034475803">
        <ele>136.16</ele>
        <time>2025-05-02T14:32:14Z</time>
      </trkpt>
      <trkpt lat="41.217350028455257" lon="-7.091910000890493">
        <ele>136.63999999999999</ele>
        <time>2025-05-02T14:32:15Z</time>
      </trkpt>
      <trkpt lat="41.217237040400505" lon="-7.091942019760609">
        <ele>136.63999999999999</ele>
        <time>2025-05-02T14:32:16Z</time>
      </trkpt>
      <trkpt lat="41.217116005718708" lon="-7.091976972296834">
        <ele>137.13</ele>
        <time>2025-05-02T14:32:17Z</time>
      </trkpt>
      <trkpt lat="41.216178992763162" lon="-7.092313002794981">
        <ele>138.09</ele>
        <time>2025-05-02T14:32:25Z</time>
      </trkpt>
      <trkpt lat="41.216052006930113" lon="-7.092305961996317">
        <ele>138.56999999999999</ele>
        <time>2025-05-02T14:32:26Z</time>
      </trkpt>
      <trkpt lat="41.215929966419935" lon="-7.092299005016685">
        <ele>138.56999999999999</ele>
        <time>2025-05-02T14:32:27Z</time>
      </trkpt>
      <trkpt lat="41.215828964486718" lon="-7.092249970883131">
        <ele>139.05000000000001</ele>
        <time>2025-05-02T14:32:28Z</time>
      </trkpt>
      <trkpt lat="41.215727040544152" lon="-7.092177970334888">
        <ele>140.00999999999999</ele>
        <time>2025-05-02T14:32:29Z</time>
      </trkpt>
      <trkpt lat="41.215643975883722" lon="-7.092083003371954">
        <ele>140.49000000000001</ele>
        <time>2025-05-02T14:32:30Z</time>
      </trkpt>
      <trkpt lat="41.215579016134143" lon="-7.091960962861776">
        <ele>140.97</ele>
        <time>2025-05-02T14:32:31Z</time>
      </trkpt>
      <trkpt lat="41.215511038899422" lon="-7.091845041140914">
        <ele>141.44999999999999</ele>
        <time>2025-05-02T14:32:32Z</time>
      </trkpt>
      <trkpt lat="41.21546502225101" lon="-7.091713026165962">
        <ele>141.93000000000001</ele>
        <time>2025-05-02T14:32:33Z</time>
      </trkpt>
      <trkpt lat="41.215384975075722" lon="-7.0916230045259">
        <ele>141.93000000000001</ele>
        <time>2025-05-02T14:32:34Z</time>
      </trkpt>
      <trkpt lat="41.21529595926404" lon="-7.091545974835753">
        <ele>142.41</ele>
        <time>2025-05-02T14:32:35Z</time>
      </trkpt>
      <trkpt lat="41.215206021443009" lon="-7.091496018692851">
        <ele>142.88999999999999</ele>
        <time>2025-05-02T14:32:36Z</time>
      </trkpt>
      <trkpt lat="41.215118011459708" lon="-7.091447990387678">
        <ele>143.37</ele>
        <time>2025-05-02T14:32:37Z</time>
      </trkpt>
      <trkpt lat="41.214862028136849" lon="-7.091303989291191">
        <ele>145.30000000000001</ele>
        <time>2025-05-02T14:32:40Z</time>
      </trkpt>
      <trkpt lat="41.214795978739858" lon="-7.091221008449793">
        <ele>145.78</ele>
        <time>2025-05-02T14:32:41Z</time>
      </trkpt>
      <trkpt lat="41.214753985404968" lon="-7.091110032051802">
        <ele>146.25999999999999</ele>
        <time>2025-05-02T14:32:42Z</time>
      </trkpt>
      <trkpt lat="41.214717021211982" lon="-7.090987991541624">
        <ele>146.74000000000001</ele>
        <time>2025-05-02T14:32:43Z</time>
      </trkpt>
      <trkpt lat="41.214706962928176" lon="-7.090855976566672">
        <ele>146.74000000000001</ele>
        <time>2025-05-02T14:32:44Z</time>
      </trkpt>
      <trkpt lat="41.214695982635021" lon="-7.090710969641805">
        <ele>147.22</ele>
        <time>2025-05-02T14:32:45Z</time>
      </trkpt>
      <trkpt lat="41.214637979865074" lon="-7.090027006343007">
        <ele>150.58000000000001</ele>
        <time>2025-05-02T14:32:50Z</time>
      </trkpt>
      <trkpt lat="41.214621970430017" lon="-7.089932039380074">
        <ele>151.06</ele>
        <time>2025-05-02T14:32:51Z</time>
      </trkpt>
      <trkpt lat="41.214597998186946" lon="-7.089859033003449">
        <ele>151.53999999999999</ele>
        <time>2025-05-02T14:32:52Z</time>
      </trkpt>
      <trkpt lat="41.214480986818671" lon="-7.089764988049865">
        <ele>152.50999999999999</ele>
        <time>2025-05-02T14:32:53Z</time>
      </trkpt>
      <trkpt lat="41.214433964341879" lon="-7.089773034676909">
        <ele>152.99000000000001</ele>
        <time>2025-05-02T14:32:54Z</time>
      </trkpt>
      <trkpt lat="41.214308990165591" lon="-7.089701034128666">
        <ele>153.47</ele>
        <time>2025-05-02T14:32:55Z</time>
      </trkpt>
      <trkpt lat="41.214282000437379" lon="-7.089693993330002">
        <ele>153.94999999999999</ele>
        <time>2025-05-02T14:32:56Z</time>
      </trkpt>
      <trkpt lat="41.214189967140555" lon="-7.089671026915312">
        <ele>154.43000000000001</ele>
        <time>2025-05-02T14:32:57Z</time>
      </trkpt>
      <trkpt lat="41.213976982980967" lon="-7.089614029973745">
        <ele>155.38999999999999</ele>
        <time>2025-05-02T14:32:59Z</time>
      </trkpt>
      <trkpt lat="41.213871035724878" lon="-7.089567007496953">
        <ele>155.38999999999999</ele>
        <time>2025-05-02T14:33:00Z</time>
      </trkpt>
      <trkpt lat="41.213766010478139" lon="-7.08947598002851">
        <ele>155.87</ele>
        <time>2025-05-02T14:33:01Z</time>
      </trkpt>
      <trkpt lat="41.212620036676526" lon="-7.088493034243584">
        <ele>157.31</ele>
        <time>2025-05-02T14:33:10Z</time>
      </trkpt>
      <trkpt lat="41.212217034772038" lon="-7.088059019297361">
        <ele>158.27000000000001</ele>
        <time>2025-05-02T14:33:13Z</time>
      </trkpt>
      <trkpt lat="41.212103040888906" lon="-7.087882999330759">
        <ele>157.78999999999999</ele>
        <time>2025-05-02T14:33:14Z</time>
      </trkpt>
      <trkpt lat="41.212012013420463" lon="-7.087688958272338">
        <ele>157.78999999999999</ele>
        <time>2025-05-02T14:33:15Z</time>
      </trkpt>
      <trkpt lat="41.2119410187006" lon="-7.087482009083033">
        <ele>157.78999999999999</ele>
        <time>2025-05-02T14:33:16Z</time>
      </trkpt>
      <trkpt lat="41.211885027587414" lon="-7.087255027145147">
        <ele>157.78999999999999</ele>
        <time>2025-05-02T14:33:17Z</time>
      </trkpt>
      <trkpt lat="41.211844040080905" lon="-7.087021004408598">
        <ele>157.78999999999999</ele>
        <time>2025-05-02T14:33:18Z</time>
      </trkpt>
      <trkpt lat="41.211745971813798" lon="-7.086549019441009">
        <ele>157.78999999999999</ele>
        <time>2025-05-02T14:33:20Z</time>
      </trkpt>
      <trkpt lat="41.211669025942683" lon="-7.0863370411098">
        <ele>157.78999999999999</ele>
        <time>2025-05-02T14:33:21Z</time>
      </trkpt>
      <trkpt lat="41.211569029837847" lon="-7.086140988394618">
        <ele>157.78999999999999</ele>
        <time>2025-05-02T14:33:22Z</time>
      </trkpt>
      <trkpt lat="41.211450006812811" lon="-7.085966980084777">
        <ele>157.78999999999999</ele>
        <time>2025-05-02T14:33:23Z</time>
      </trkpt>
      <trkpt lat="41.211308017373085" lon="-7.085818033665419">
        <ele>157.31</ele>
        <time>2025-05-02T14:33:24Z</time>
      </trkpt>
      <trkpt lat="41.211153035983443" lon="-7.085701022297144">
        <ele>157.31</ele>
        <time>2025-05-02T14:33:25Z</time>
      </trkpt>
      <trkpt lat="41.210995959118009" lon="-7.085581999272108">
        <ele>157.31</ele>
        <time>2025-05-02T14:33:26Z</time>
      </trkpt>
      <trkpt lat="41.210840977728367" lon="-7.085464987903833">
        <ele>157.31</ele>
        <time>2025-05-02T14:33:27Z</time>
      </trkpt>
      <trkpt lat="41.210699994117022" lon="-7.085329033434391">
        <ele>156.83000000000001</ele>
        <time>2025-05-02T14:33:28Z</time>
      </trkpt>
      <trkpt lat="41.21056797914207" lon="-7.085174974054098">
        <ele>157.31</ele>
        <time>2025-05-02T14:33:29Z</time>
      </trkpt>
      <trkpt lat="41.21046002022922" lon="-7.084980010986328">
        <ele>157.31</ele>
        <time>2025-05-02T14:33:30Z</time>
      </trkpt>
      <trkpt lat="41.21037402190268" lon="-7.084765015169978">
        <ele>157.31</ele>
        <time>2025-05-02T14:33:31Z</time>
      </trkpt>
      <trkpt lat="41.210290035232902" lon="-7.084552031010389">
        <ele>156.83000000000001</ele>
        <time>2025-05-02T14:33:32Z</time>
      </trkpt>
      <trkpt lat="41.210217028856277" lon="-7.084325971081853">
        <ele>157.31</ele>
        <time>2025-05-02T14:33:33Z</time>
      </trkpt>
      <trkpt lat="41.209523007273674" lon="-7.082314984872937">
        <ele>157.31</ele>
        <time>2025-05-02T14:33:42Z</time>
      </trkpt>
      <trkpt lat="41.209413036704063" lon="-7.082138964906335">
        <ele>157.78999999999999</ele>
        <time>2025-05-02T14:33:43Z</time>
      </trkpt>
      <trkpt lat="41.209302982315421" lon="-7.081969985738397">
        <ele>157.31</ele>
        <time>2025-05-02T14:33:44Z</time>
      </trkpt>
      <trkpt lat="41.209160992875695" lon="-7.081849034875631">
        <ele>157.31</ele>
        <time>2025-05-02T14:33:45Z</time>
      </trkpt>
      <trkpt lat="41.209025038406253" lon="-7.081732023507357">
        <ele>157.31</ele>
        <time>2025-05-02T14:33:46Z</time>
      </trkpt>
      <trkpt lat="41.208867039531469" lon="-7.081685001030564">
        <ele>156.83000000000001</ele>
        <time>2025-05-02T14:33:47Z</time>
      </trkpt>
      <trkpt lat="41.208688002079725" lon="-7.081642001867294">
        <ele>156.83000000000001</ele>
        <time>2025-05-02T14:33:48Z</time>
      </trkpt>
      <trkpt lat="41.20850401930511" lon="-7.081597996875644">
        <ele>156.83000000000001</ele>
        <time>2025-05-02T14:33:49Z</time>
      </trkpt>
      <trkpt lat="41.205956004559994" lon="-7.081281999126077">
        <ele>154.43000000000001</ele>
        <time>2025-05-02T14:34:02Z</time>
      </trkpt>
      <trkpt lat="41.204046020284295" lon="-7.081663962453604">
        <ele>152.99000000000001</ele>
        <time>2025-05-02T14:34:11Z</time>
      </trkpt>
      <trkpt lat="41.203853990882635" lon="-7.081794971600175">
        <ele>152.99000000000001</ele>
        <time>2025-05-02T14:34:12Z</time>
      </trkpt>
      <trkpt lat="41.203672019764781" lon="-7.081935033202171">
        <ele>152.99000000000001</ele>
        <time>2025-05-02T14:34:13Z</time>
      </trkpt>
      <trkpt lat="41.203491976484656" lon="-7.082074005156755">
        <ele>152.99000000000001</ele>
        <time>2025-05-02T14:34:14Z</time>
      </trkpt>
      <trkpt lat="41.203336995095015" lon="-7.082242984324694">
        <ele>152.50999999999999</ele>
        <time>2025-05-02T14:34:15Z</time>
      </trkpt>
      <trkpt lat="41.203192993998528" lon="-7.082419004291296">
        <ele>152.99000000000001</ele>
        <time>2025-05-02T14:34:16Z</time>
      </trkpt>
      <trkpt lat="41.203065002337098" lon="-7.082617990672588">
        <ele>152.99000000000001</ele>
        <time>2025-05-02T14:34:17Z</time>
      </trkpt>
      <trkpt lat="41.202947990968823" lon="-7.082821000367403">
        <ele>152.99000000000001</ele>
        <time>2025-05-02T14:34:18Z</time>
      </trkpt>
      <trkpt lat="41.202851012349129" lon="-7.083052005618811">
        <ele>152.99000000000001</ele>
        <time>2025-05-02T14:34:19Z</time>
      </trkpt>
      <trkpt lat="41.202763002365828" lon="-7.083287034183741">
        <ele>152.99000000000001</ele>
        <time>2025-05-02T14:34:20Z</time>
      </trkpt>
      <trkpt lat="41.202674992382526" lon="-7.083524996414781">
        <ele>152.99000000000001</ele>
        <time>2025-05-02T14:34:21Z</time>
      </trkpt>
      <trkpt lat="41.201619040220976" lon="-7.086175018921495">
        <ele>150.58000000000001</ele>
        <time>2025-05-02T14:34:32Z</time>
      </trkpt>
      <trkpt lat="41.201173961162567" lon="-7.08694196306169">
        <ele>149.62</ele>
        <time>2025-05-02T14:34:36Z</time>
      </trkpt>
      <trkpt lat="41.201102966442704" lon="-7.087156036868691">
        <ele>149.62</ele>
        <time>2025-05-02T14:34:37Z</time>
      </trkpt>
      <trkpt lat="41.201045969501138" lon="-7.087381007149816">
        <ele>149.13999999999999</ele>
        <time>2025-05-02T14:34:38Z</time>
      </trkpt>
      <trkpt lat="41.201035995036364" lon="-7.087611006572843">
        <ele>149.13999999999999</ele>
        <time>2025-05-02T14:34:39Z</time>
      </trkpt>
      <trkpt lat="41.20102996006608" lon="-7.08784201182425">
        <ele>148.66</ele>
        <time>2025-05-02T14:34:40Z</time>
      </trkpt>
      <trkpt lat="41.201056027784944" lon="-7.088073017075658">
        <ele>148.66</ele>
        <time>2025-05-02T14:34:41Z</time>
      </trkpt>
      <trkpt lat="41.201087962836027" lon="-7.088306033983827">
        <ele>148.66</ele>
        <time>2025-05-02T14:34:42Z</time>
      </trkpt>
      <trkpt lat="41.201125010848045" lon="-7.088527986779809">
        <ele>148.18000000000001</ele>
        <time>2025-05-02T14:34:43Z</time>
      </trkpt>
      <trkpt lat="41.201321985572577" lon="-7.090590018779039">
        <ele>146.74000000000001</ele>
        <time>2025-05-02T14:34:52Z</time>
      </trkpt>
      <trkpt lat="41.201306981965899" lon="-7.090837033465505">
        <ele>146.25999999999999</ele>
        <time>2025-05-02T14:34:53Z</time>
      </trkpt>
      <trkpt lat="41.201257025822997" lon="-7.091080024838448">
        <ele>146.74000000000001</ele>
        <time>2025-05-02T14:34:54Z</time>
      </trkpt>
      <trkpt lat="41.201202962547541" lon="-7.091321004554629">
        <ele>146.74000000000001</ele>
        <time>2025-05-02T14:34:55Z</time>
      </trkpt>
      <trkpt lat="41.201124005019665" lon="-7.091557960957289">
        <ele>146.25999999999999</ele>
        <time>2025-05-02T14:34:56Z</time>
      </trkpt>
      <trkpt lat="41.201033983379602" lon="-7.091783015057445">
        <ele>146.74000000000001</ele>
        <time>2025-05-02T14:34:57Z</time>
      </trkpt>
      <trkpt lat="41.19986898265779" lon="-7.094382997602224">
        <ele>141.93000000000001</ele>
        <time>2025-05-02T14:35:09Z</time>
      </trkpt>
      <trkpt lat="41.199733028188348" lon="-7.094573015347123">
        <ele>141.44999999999999</ele>
        <time>2025-05-02T14:35:10Z</time>
      </trkpt>
      <trkpt lat="41.199581986293197" lon="-7.094750041142106">
        <ele>140.49000000000001</ele>
        <time>2025-05-02T14:35:11Z</time>
      </trkpt>
      <trkpt lat="41.19941895827651" lon="-7.094913991168141">
        <ele>139.53</ele>
        <time>2025-05-02T14:35:12Z</time>
      </trkpt>
      <trkpt lat="41.199241010472178" lon="-7.095043994486332">
        <ele>139.05000000000001</ele>
        <time>2025-05-02T14:35:13Z</time>
      </trkpt>
      <trkpt lat="41.199059039354324" lon="-7.095162011682987">
        <ele>138.09</ele>
        <time>2025-05-02T14:35:14Z</time>
      </trkpt>
      <trkpt lat="41.198869021609426" lon="-7.095264019444585">
        <ele>137.61000000000001</ele>
        <time>2025-05-02T14:35:15Z</time>
      </trkpt>
      <trkpt lat="41.198674980551004" lon="-7.095358986407518">
        <ele>136.63999999999999</ele>
        <time>2025-05-02T14:35:16Z</time>
      </trkpt>
      <trkpt lat="41.195987993851304" lon="-7.096581989899278">
        <ele>129.43000000000001</ele>
        <time>2025-05-02T14:35:29Z</time>
      </trkpt>
      <trkpt lat="41.192999007180333" lon="-7.098000962287188">
        <ele>127.03</ele>
        <time>2025-05-02T14:35:43Z</time>
      </trkpt>
      <trkpt lat="41.19007296860218" lon="-7.09955396130681">
        <ele>124.15000000000001</ele>
        <time>2025-05-02T14:35:57Z</time>
      </trkpt>
      <trkpt lat="41.187854027375579" lon="-7.100326018407941">
        <ele>123.19</ele>
        <time>2025-05-02T14:36:07Z</time>
      </trkpt>
      <trkpt lat="41.185655035078526" lon="-7.101199999451637">
        <ele>124.15000000000001</ele>
        <time>2025-05-02T14:36:17Z</time>
      </trkpt>
      <trkpt lat="41.183820990845561" lon="-7.102146986871958">
        <ele>124.15000000000001</ele>
        <time>2025-05-02T14:36:26Z</time>
      </trkpt>
      <trkpt lat="41.18162602186203" lon="-7.103093974292278">
        <ele>127.03</ele>
        <time>2025-05-02T14:36:37Z</time>
      </trkpt>
      <trkpt lat="41.179475979879498" lon="-7.104027969762683">
        <ele>125.59</ele>
        <time>2025-05-02T14:36:47Z</time>
      </trkpt>
      <trkpt lat="41.177361980080605" lon="-7.105405032634735">
        <ele>127.51000000000001</ele>
        <time>2025-05-02T14:36:57Z</time>
      </trkpt>
      <trkpt lat="41.174968024715781" lon="-7.106994995847344">
        <ele>128.94999999999999</ele>
        <time>2025-05-02T14:37:09Z</time>
      </trkpt>
      <trkpt lat="41.17266601882875" lon="-7.108226967975497">
        <ele>133.75999999999999</ele>
        <time>2025-05-02T14:37:20Z</time>
      </trkpt>
      <trkpt lat="41.17019603960216" lon="-7.109749959781766">
        <ele>136.16</ele>
        <time>2025-05-02T14:37:32Z</time>
      </trkpt>
      <trkpt lat="41.168677993118763" lon="-7.110625030472875">
        <ele>134.72</ele>
        <time>2025-05-02T14:37:39Z</time>
      </trkpt>
      <trkpt lat="41.166902035474777" lon="-7.111031971871853">
        <ele>131.84</ele>
        <time>2025-05-02T14:37:47Z</time>
      </trkpt>
      <trkpt lat="41.163652036339045" lon="-7.111663967370987">
        <ele>127.51000000000001</ele>
        <time>2025-05-02T14:38:02Z</time>
      </trkpt>
      <trkpt lat="41.161034032702446" lon="-7.112051965668798">
        <ele>126.55</ele>
        <time>2025-05-02T14:38:14Z</time>
      </trkpt>
      <trkpt lat="41.158112017437816" lon="-7.11211902089417">
        <ele>127.51000000000001</ele>
        <time>2025-05-02T14:38:27Z</time>
      </trkpt>
      <trkpt lat="41.155331991612911" lon="-7.112223040312529">
        <ele>128.47</ele>
        <time>2025-05-02T14:38:39Z</time>
      </trkpt>
      <trkpt lat="41.152634024620056" lon="-7.112827962264419">
        <ele>126.55</ele>
        <time>2025-05-02T14:38:51Z</time>
      </trkpt>
      <trkpt lat="41.150032030418515" lon="-7.113579986616969">
        <ele>126.55</ele>
        <time>2025-05-02T14:39:03Z</time>
      </trkpt>
      <trkpt lat="41.148810032755136" lon="-7.114348020404577">
        <ele>127.98999999999999</ele>
        <time>2025-05-02T14:39:09Z</time>
      </trkpt>
      <trkpt lat="41.146817989647388" lon="-7.116212993860245">
        <ele>131.36000000000001</ele>
        <time>2025-05-02T14:39:20Z</time>
      </trkpt>
      <trkpt lat="41.146066971123219" lon="-7.117698015645146">
        <ele>132.80000000000001</ele>
        <time>2025-05-02T14:39:26Z</time>
      </trkpt>
      <trkpt lat="41.145140016451478" lon="-7.119364002719522">
        <ele>133.75999999999999</ele>
        <time>2025-05-02T14:39:33Z</time>
      </trkpt>
      <trkpt lat="41.14400502294302" lon="-7.120679961517453">
        <ele>137.61000000000001</ele>
        <time>2025-05-02T14:39:40Z</time>
      </trkpt>
      <trkpt lat="41.142875980585814" lon="-7.121539022773504">
        <ele>144.34</ele>
        <time>2025-05-02T14:39:46Z</time>
      </trkpt>
      <trkpt lat="41.142720999196172" lon="-7.121708001941443">
        <ele>146.25999999999999</ele>
        <time>2025-05-02T14:39:47Z</time>
      </trkpt>
      <trkpt lat="41.141906026750803" lon="-7.122476035729051">
        <ele>153.94999999999999</ele>
        <time>2025-05-02T14:39:52Z</time>
      </trkpt>
      <trkpt lat="41.141721038147807" lon="-7.12256396189332">
        <ele>155.87</ele>
        <time>2025-05-02T14:39:53Z</time>
      </trkpt>
      <trkpt lat="41.141528002917767" lon="-7.122619030997157">
        <ele>157.31</ele>
        <time>2025-05-02T14:39:54Z</time>
      </trkpt>
      <trkpt lat="41.141331028193235" lon="-7.122631017118692">
        <ele>158.75</ele>
        <time>2025-05-02T14:39:55Z</time>
      </trkpt>
      <trkpt lat="41.141130030155182" lon="-7.122619030997157">
        <ele>160.68000000000001</ele>
        <time>2025-05-02T14:39:56Z</time>
      </trkpt>
      <trkpt lat="41.140944035723805" lon="-7.122568991035223">
        <ele>162.12</ele>
        <time>2025-05-02T14:39:57Z</time>
      </trkpt>
      <trkpt lat="41.140760974958539" lon="-7.122511994093657">
        <ele>164.03999999999999</ele>
        <time>2025-05-02T14:39:58Z</time>
      </trkpt>
      <trkpt lat="41.140603981912136" lon="-7.122401017695665">
        <ele>165.47999999999999</ele>
        <time>2025-05-02T14:39:59Z</time>
      </trkpt>
      <trkpt lat="41.140429973602295" lon="-7.122274031862617">
        <ele>166.93000000000001</ele>
        <time>2025-05-02T14:40:00Z</time>
      </trkpt>
      <trkpt lat="41.14028898999095" lon="-7.122144028544426">
        <ele>168.84999999999999</ele>
        <time>2025-05-02T14:40:01Z</time>
      </trkpt>
      <trkpt lat="41.139105968177319" lon="-7.120656995102763">
        <ele>176.06</ele>
        <time>2025-05-02T14:40:09Z</time>
      </trkpt>
      <trkpt lat="41.137150973081589" lon="-7.11822297424078">
        <ele>165.47999999999999</ele>
        <time>2025-05-02T14:40:21Z</time>
      </trkpt>
      <trkpt lat="41.13648503087461" lon="-7.117302976548672">
        <ele>157.31</ele>
        <time>2025-05-02T14:40:26Z</time>
      </trkpt>
      <trkpt lat="41.136411018669605" lon="-7.11708202958107">
        <ele>156.34999999999999</ele>
        <time>2025-05-02T14:40:27Z</time>
      </trkpt>
      <trkpt lat="41.136344969272614" lon="-7.11686996743083">
        <ele>155.38999999999999</ele>
        <time>2025-05-02T14:40:28Z</time>
      </trkpt>
      <trkpt lat="41.136311022564769" lon="-7.11665497161448">
        <ele>154.91</ele>
        <time>2025-05-02T14:40:29Z</time>
      </trkpt>
      <trkpt lat="41.136311022564769" lon="-7.116446010768414">
        <ele>153.94999999999999</ele>
        <time>2025-05-02T14:40:30Z</time>
      </trkpt>
      <trkpt lat="41.136311022564769" lon="-7.116241995245218">
        <ele>153.47</ele>
        <time>2025-05-02T14:40:31Z</time>
      </trkpt>
      <trkpt lat="41.136458041146398" lon="-7.1149339992553">
        <ele>148.66</ele>
        <time>2025-05-02T14:40:39Z</time>
      </trkpt>
      <trkpt lat="41.136429039761424" lon="-7.114807013422251">
        <ele>148.66</ele>
        <time>2025-05-02T14:40:40Z</time>
      </trkpt>
      <trkpt lat="41.136397020891309" lon="-7.11469997651875">
        <ele>148.18000000000001</ele>
        <time>2025-05-02T14:40:41Z</time>
      </trkpt>
      <trkpt lat="41.136332983151078" lon="-7.114635016769171">
        <ele>147.69999999999999</ele>
        <time>2025-05-02T14:40:42Z</time>
      </trkpt>
      <trkpt lat="41.136257965117693" lon="-7.114594029262662">
        <ele>147.22</ele>
        <time>2025-05-02T14:40:43Z</time>
      </trkpt>
      <trkpt lat="41.136173978447914" lon="-7.11454801261425">
        <ele>147.22</ele>
        <time>2025-05-02T14:40:44Z</time>
      </trkpt>
      <trkpt lat="41.136084040626884" lon="-7.114503001794219">
        <ele>147.22</ele>
        <time>2025-05-02T14:40:45Z</time>
      </trkpt>
      <trkpt lat="41.134870005771518" lon="-7.114184992387891">
        <ele>149.62</ele>
        <time>2025-05-02T14:40:55Z</time>
      </trkpt>
      <trkpt lat="41.132904030382633" lon="-7.1136440243572">
        <ele>153.47</ele>
        <time>2025-05-02T14:41:11Z</time>
      </trkpt>
      <trkpt lat="41.13268400542438" lon="-7.11360496468842">
        <ele>153.94999999999999</ele>
        <time>2025-05-02T14:41:13Z</time>
      </trkpt>
      <trkpt lat="41.13259800709784" lon="-7.113613011315465">
        <ele>153.94999999999999</ele>
        <time>2025-05-02T14:41:14Z</time>
      </trkpt>
      <trkpt lat="41.132503962144256" lon="-7.113622985780239">
        <ele>153.94999999999999</ele>
        <time>2025-05-02T14:41:15Z</time>
      </trkpt>
      <trkpt lat="41.1324049718678" lon="-7.11369096301496">
        <ele>153.94999999999999</ele>
        <time>2025-05-02T14:41:16Z</time>
      </trkpt>
      <trkpt lat="41.132324002683163" lon="-7.113772016018629">
        <ele>153.94999999999999</ele>
        <time>2025-05-02T14:41:17Z</time>
      </trkpt>
      <trkpt lat="41.132247978821397" lon="-7.113897996023297">
        <ele>153.47</ele>
        <time>2025-05-02T14:41:18Z</time>
      </trkpt>
      <trkpt lat="41.132199028506875" lon="-7.114035962149501">
        <ele>153.47</ele>
        <time>2025-05-02T14:41:19Z</time>
      </trkpt>
      <trkpt lat="41.132154017686844" lon="-7.114193039014936">
        <ele>153.47</ele>
        <time>2025-05-02T14:41:20Z</time>
      </trkpt>
      <trkpt lat="41.132120992988348" lon="-7.114343997091055">
        <ele>153.47</ele>
        <time>2025-05-02T14:41:21Z</time>
      </trkpt>
      <trkpt lat="41.132091991603374" lon="-7.114491015672684">
        <ele>152.99000000000001</ele>
        <time>2025-05-02T14:41:22Z</time>
      </trkpt>
      <trkpt lat="41.132067013531923" lon="-7.114628981798887">
        <ele>152.99000000000001</ele>
        <time>2025-05-02T14:41:23Z</time>
      </trkpt>
      <trkpt lat="41.131774988025427" lon="-7.116340985521674">
        <ele>150.58000000000001</ele>
        <time>2025-05-02T14:41:35Z</time>
      </trkpt>
      <trkpt lat="41.131461001932621" lon="-7.118281982839108">
        <ele>148.66</ele>
        <time>2025-05-02T14:41:47Z</time>
      </trkpt>
      <trkpt lat="41.131461001932621" lon="-7.118461020290852">
        <ele>148.18000000000001</ele>
        <time>2025-05-02T14:41:48Z</time>
      </trkpt>
      <trkpt lat="41.13148296251893" lon="-7.119613029062748">
        <ele>147.69999999999999</ele>
        <time>2025-05-02T14:41:55Z</time>
      </trkpt>
      <trkpt lat="41.131455972790718" lon="-7.119760969653726">
        <ele>147.69999999999999</ele>
        <time>2025-05-02T14:41:56Z</time>
      </trkpt>
      <trkpt lat="41.131429988890886" lon="-7.119904970750213">
        <ele>147.69999999999999</ele>
        <time>2025-05-02T14:41:57Z</time>
      </trkpt>
      <trkpt lat="41.131405010819435" lon="-7.120047966018319">
        <ele>148.18000000000001</ele>
        <time>2025-05-02T14:41:58Z</time>
      </trkpt>
      <trkpt lat="41.131380032747984" lon="-7.120187021791935">
        <ele>148.66</ele>
        <time>2025-05-02T14:41:59Z</time>
      </trkpt>
      <trkpt lat="41.131139975041151" lon="-7.120781969279051">
        <ele>152.03</ele>
        <time>2025-05-02T14:42:06Z</time>
      </trkpt>
      <trkpt lat="41.131040984764695" lon="-7.121019009500742">
        <ele>154.91</ele>
        <time>2025-05-02T14:42:14Z</time>
      </trkpt>
      <trkpt lat="41.131010977551341" lon="-7.121093021705747">
        <ele>155.38999999999999</ele>
        <time>2025-05-02T14:42:24Z</time>
      </trkpt>
      <trkpt lat="41.130589032545686" lon="-7.121781008318067">
        <ele>157.31</ele>
        <time>2025-05-02T14:42:32Z</time>
      </trkpt>
      <trkpt lat="41.129670040681958" lon="-7.123037958517671">
        <ele>163.56</ele>
        <time>2025-05-02T14:42:44Z</time>
      </trkpt>
      <trkpt lat="41.128518031910062" lon="-7.124176975339651">
        <ele>171.25</ele>
        <time>2025-05-02T14:42:56Z</time>
      </trkpt>
      <trkpt lat="41.128232041373849" lon="-7.124391971156001">
        <ele>175.09999999999999</ele>
        <time>2025-05-02T14:42:59Z</time>
      </trkpt>
      <trkpt lat="41.127497032284737" lon="-7.124635968357325">
        <ele>184.22999999999999</ele>
        <time>2025-05-02T14:43:07Z</time>
      </trkpt>
      <trkpt lat="41.127426959574223" lon="-7.124720038846135">
        <ele>184.71000000000001</ele>
        <time>2025-05-02T14:43:08Z</time>
      </trkpt>
      <trkpt lat="41.127379015088081" lon="-7.124720038846135">
        <ele>185.66999999999999</ele>
        <time>2025-05-02T14:43:09Z</time>
      </trkpt>
      <trkpt lat="41.127320006489754" lon="-7.124720038846135">
        <ele>186.15000000000001</ele>
        <time>2025-05-02T14:43:10Z</time>
      </trkpt>
      <trkpt lat="41.127265021204948" lon="-7.124656001105905">
        <ele>186.63</ele>
        <time>2025-05-02T14:43:11Z</time>
      </trkpt>
      <trkpt lat="41.127209030091763" lon="-7.124590035527945">
        <ele>187.11000000000001</ele>
        <time>2025-05-02T14:43:12Z</time>
      </trkpt>
      <trkpt lat="41.127191008999944" lon="-7.124509988352656">
        <ele>187.11000000000001</ele>
        <time>2025-05-02T14:43:13Z</time>
      </trkpt>
      <trkpt lat="41.127191008999944" lon="-7.124407980591059">
        <ele>187.59</ele>
        <time>2025-05-02T14:43:14Z</time>
      </trkpt>
      <trkpt lat="41.127080032601953" lon="-7.124329023063183">
        <ele>188.08000000000001</ele>
        <time>2025-05-02T14:43:15Z</time>
      </trkpt>
      <trkpt lat="41.127007026225328" lon="-7.124285018071532">
        <ele>188.56</ele>
        <time>2025-05-02T14:43:16Z</time>
      </trkpt>
      <trkpt lat="41.126911975443363" lon="-7.124226009473205">
        <ele>189.03999999999999</ele>
        <time>2025-05-02T14:43:17Z</time>
      </trkpt>
      <trkpt lat="41.126833017915487" lon="-7.12421796284616">
        <ele>190</ele>
        <time>2025-05-02T14:43:18Z</time>
      </trkpt>
      <trkpt lat="41.126735033467412" lon="-7.124207988381386">
        <ele>190.47999999999999</ele>
        <time>2025-05-02T14:43:19Z</time>
      </trkpt>
      <trkpt lat="41.126333959400654" lon="-7.124168006703258">
        <ele>193.84</ele>
        <time>2025-05-02T14:43:23Z</time>
      </trkpt>
      <trkpt lat="41.126220971345901" lon="-7.124174041673541">
        <ele>194.31999999999999</ele>
        <time>2025-05-02T14:43:24Z</time>
      </trkpt>
      <trkpt lat="41.126104965806007" lon="-7.124202959239483">
        <ele>195.28</ele>
        <time>2025-05-02T14:43:25Z</time>
      </trkpt>
      <trkpt lat="41.124894032254815" lon="-7.124752979725599">
        <ele>202.49000000000001</ele>
        <time>2025-05-02T14:43:34Z</time>
      </trkpt>
      <trkpt lat="41.123601961880922" lon="-7.125229993835092">
        <ele>210.19</ele>
        <time>2025-05-02T14:43:43Z</time>
      </trkpt>
      <trkpt lat="41.123343966901302" lon="-7.12537701241672">
        <ele>211.63</ele>
        <time>2025-05-02T14:43:45Z</time>
      </trkpt>
      <trkpt lat="41.123218992725015" lon="-7.125452030450106">
        <ele>212.11000000000001</ele>
        <time>2025-05-02T14:43:46Z</time>
      </trkpt>
      <trkpt lat="41.123102987185121" lon="-7.125556971877813">
        <ele>213.06999999999999</ele>
        <time>2025-05-02T14:43:47Z</time>
      </trkpt>
      <trkpt lat="41.122742984443903" lon="-7.125858971849084">
        <ele>215.47</ele>
        <time>2025-05-02T14:43:50Z</time>
      </trkpt>
      <trkpt lat="41.122622033581138" lon="-7.125957040116191">
        <ele>216.43000000000001</ele>
        <time>2025-05-02T14:43:51Z</time>
      </trkpt>
      <trkpt lat="41.121347984299064" lon="-7.126566991209984">
        <ele>222.68000000000001</ele>
        <time>2025-05-02T14:44:00Z</time>
      </trkpt>
      <trkpt lat="41.121217980980873" lon="-7.12666598148644">
        <ele>223.16</ele>
        <time>2025-05-02T14:44:01Z</time>
      </trkpt>
      <trkpt lat="41.121088983491063" lon="-7.126768995076418">
        <ele>223.16</ele>
        <time>2025-05-02T14:44:02Z</time>
      </trkpt>
      <trkpt lat="41.120984964072704" lon="-7.126910984516144">
        <ele>223.16</ele>
        <time>2025-05-02T14:44:03Z</time>
      </trkpt>
      <trkpt lat="41.120881028473377" lon="-7.12705297395587">
        <ele>223.63999999999999</ele>
        <time>2025-05-02T14:44:04Z</time>
      </trkpt>
      <trkpt lat="41.120811039581895" lon="-7.127240980044007">
        <ele>223.63999999999999</ele>
        <time>2025-05-02T14:44:05Z</time>
      </trkpt>
      <trkpt lat="41.120753036811948" lon="-7.127432003617287">
        <ele>223.16</ele>
        <time>2025-05-02T14:44:06Z</time>
      </trkpt>
      <trkpt lat="41.120692016556859" lon="-7.127630989998579">
        <ele>223.16</ele>
        <time>2025-05-02T14:44:07Z</time>
      </trkpt>
      <trkpt lat="41.120455982163548" lon="-7.128396006301045">
        <ele>223.16</ele>
        <time>2025-05-02T14:44:11Z</time>
      </trkpt>
      <trkpt lat="41.120379958301783" lon="-7.128536989912391">
        <ele>223.16</ele>
        <time>2025-05-02T14:44:12Z</time>
      </trkpt>
      <trkpt lat="41.120280968025327" lon="-7.128658024594188">
        <ele>223.16</ele>
        <time>2025-05-02T14:44:13Z</time>
      </trkpt>
      <trkpt lat="41.120181977748871" lon="-7.128777969628573">
        <ele>223.16</ele>
        <time>2025-05-02T14:44:14Z</time>
      </trkpt>
      <trkpt lat="41.120069995522499" lon="-7.1288560051471">
        <ele>223.16</ele>
        <time>2025-05-02T14:44:15Z</time>
      </trkpt>
      <trkpt lat="41.11994300968945" lon="-7.128890035673976">
        <ele>223.16</ele>
        <time>2025-05-02T14:44:16Z</time>
      </trkpt>
      <trkpt lat="41.119809988886118" lon="-7.128924988210201">
        <ele>223.16</ele>
        <time>2025-05-02T14:44:17Z</time>
      </trkpt>
      <trkpt lat="41.119680991396308" lon="-7.128913002088666">
        <ele>223.16</ele>
        <time>2025-05-02T14:44:18Z</time>
      </trkpt>
      <trkpt lat="41.119543025270104" lon="-7.12889900431037">
        <ele>223.16</ele>
        <time>2025-05-02T14:44:19Z</time>
      </trkpt>
      <trkpt lat="41.118237962946296" lon="-7.12870798073709">
        <ele>224.12</ele>
        <time>2025-05-02T14:44:28Z</time>
      </trkpt>
      <trkpt lat="41.118107959628105" lon="-7.128643020987511">
        <ele>224.61000000000001</ele>
        <time>2025-05-02T14:44:29Z</time>
      </trkpt>
      <trkpt lat="41.117986002936959" lon="-7.128582000732422">
        <ele>225.09</ele>
        <time>2025-05-02T14:44:30Z</time>
      </trkpt>
      <trkpt lat="41.117889024317265" lon="-7.128461971879005">
        <ele>226.05000000000001</ele>
        <time>2025-05-02T14:44:31Z</time>
      </trkpt>
      <trkpt lat="41.117790034040809" lon="-7.128336997702718">
        <ele>226.05000000000001</ele>
        <time>2025-05-02T14:44:32Z</time>
      </trkpt>
      <trkpt lat="41.117705963551998" lon="-7.128194002434611">
        <ele>226.53</ele>
        <time>2025-05-02T14:44:33Z</time>
      </trkpt>
      <trkpt lat="41.117647960782051" lon="-7.12801999412477">
        <ele>227.00999999999999</ele>
        <time>2025-05-02T14:44:34Z</time>
      </trkpt>
      <trkpt lat="41.117629017680883" lon="-7.127831988036633">
        <ele>227.49000000000001</ele>
        <time>2025-05-02T14:44:35Z</time>
      </trkpt>
      <trkpt lat="41.117612002417445" lon="-7.127630989998579">
        <ele>227.97</ele>
        <time>2025-05-02T14:44:36Z</time>
      </trkpt>
      <trkpt lat="41.117479987442493" lon="-7.126394994556904">
        <ele>232.30000000000001</ele>
        <time>2025-05-02T14:44:42Z</time>
      </trkpt>
      <trkpt lat="41.117431959137321" lon="-7.126211011782289">
        <ele>233.25999999999999</ele>
        <time>2025-05-02T14:44:43Z</time>
      </trkpt>
      <trkpt lat="41.117346966639161" lon="-7.126053012907505">
        <ele>234.22</ele>
        <time>2025-05-02T14:44:44Z</time>
      </trkpt>
      <trkpt lat="41.117249988019466" lon="-7.125908005982637">
        <ele>235.18000000000001</ele>
        <time>2025-05-02T14:44:45Z</time>
      </trkpt>
      <trkpt lat="41.117134988307953" lon="-7.125784959644079">
        <ele>236.13999999999999</ele>
        <time>2025-05-02T14:44:46Z</time>
      </trkpt>
      <trkpt lat="41.117010014131665" lon="-7.125683035701513">
        <ele>236.62</ele>
        <time>2025-05-02T14:44:47Z</time>
      </trkpt>
      <trkpt lat="41.116496035829186" lon="-7.125223958864808">
        <ele>240.47</ele>
        <time>2025-05-02T14:44:51Z</time>
      </trkpt>
      <trkpt lat="41.116370977833867" lon="-7.125120023265481">
        <ele>241.43000000000001</ele>
        <time>2025-05-02T14:44:52Z</time>
      </trkpt>
      <trkpt lat="41.116234017536044" lon="-7.125079035758972">
        <ele>241.91</ele>
        <time>2025-05-02T14:44:53Z</time>
      </trkpt>
      <trkpt lat="41.11609797924757" lon="-7.125079035758972">
        <ele>242.87</ele>
        <time>2025-05-02T14:44:54Z</time>
      </trkpt>
      <trkpt lat="41.115965964272618" lon="-7.125111976638436">
        <ele>243.83000000000001</ele>
        <time>2025-05-02T14:44:55Z</time>
      </trkpt>
      <trkpt lat="41.115833027288318" lon="-7.125145001336932">
        <ele>244.78999999999999</ele>
        <time>2025-05-02T14:44:56Z</time>
      </trkpt>
      <trkpt lat="41.115712998434901" lon="-7.125254971906543">
        <ele>245.75</ele>
        <time>2025-05-02T14:44:57Z</time>
      </trkpt>
      <trkpt lat="41.11560202203691" lon="-7.125366032123566">
        <ele>246.22999999999999</ele>
        <time>2025-05-02T14:44:58Z</time>
      </trkpt>
      <trkpt lat="41.115506971254945" lon="-7.12550500407815">
        <ele>247.19999999999999</ele>
        <time>2025-05-02T14:44:59Z</time>
      </trkpt>
      <trkpt lat="41.11543295904994" lon="-7.125675994902849">
        <ele>247.68000000000001</ele>
        <time>2025-05-02T14:45:00Z</time>
      </trkpt>
      <trkpt lat="41.115357019007206" lon="-7.125854026526213">
        <ele>248.63999999999999</ele>
        <time>2025-05-02T14:45:01Z</time>
      </trkpt>
      <trkpt lat="41.115118972957134" lon="-7.126353001222014">
        <ele>250.56</ele>
        <time>2025-05-02T14:45:04Z</time>
      </trkpt>
      <trkpt lat="41.11504596658051" lon="-7.126478981226683">
        <ele>251.03999999999999</ele>
        <time>2025-05-02T14:45:05Z</time>
      </trkpt>
      <trkpt lat="41.11491403542459" lon="-7.126577971503139">
        <ele>251.52000000000001</ele>
        <time>2025-05-02T14:45:06Z</time>
      </trkpt>
      <trkpt lat="41.11478797160089" lon="-7.126672016456723">
        <ele>252</ele>
        <time>2025-05-02T14:45:07Z</time>
      </trkpt>
      <trkpt lat="41.114661991596222" lon="-7.126766983419657">
        <ele>252.96000000000001</ele>
        <time>2025-05-02T14:45:08Z</time>
      </trkpt>
      <trkpt lat="41.11452997662127" lon="-7.126848036423326">
        <ele>252.96000000000001</ele>
        <time>2025-05-02T14:45:09Z</time>
      </trkpt>
      <trkpt lat="41.113802008330822" lon="-7.127278028056026">
        <ele>255.37</ele>
        <time>2025-05-02T14:45:14Z</time>
      </trkpt>
      <trkpt lat="41.11366898752749" lon="-7.127378024160862">
        <ele>255.84999999999999</ele>
        <time>2025-05-02T14:45:15Z</time>
      </trkpt>
      <trkpt lat="41.113538984209299" lon="-7.127476008608937">
        <ele>256.81</ele>
        <time>2025-05-02T14:45:16Z</time>
      </trkpt>
      <trkpt lat="41.113405963405967" lon="-7.127574998885393">
        <ele>257.76999999999998</ele>
        <time>2025-05-02T14:45:17Z</time>
      </trkpt>
      <trkpt lat="41.113274032250047" lon="-7.127673989161849">
        <ele>258.25</ele>
        <time>2025-05-02T14:45:18Z</time>
      </trkpt>
      <trkpt lat="41.112392004579306" lon="-7.128111021593213">
        <ele>263.06</ele>
        <time>2025-05-02T14:45:24Z</time>
      </trkpt>
      <trkpt lat="41.11225001513958" lon="-7.128178998827934">
        <ele>263.54000000000002</ele>
        <time>2025-05-02T14:45:25Z</time>
      </trkpt>
      <trkpt lat="41.112119005993009" lon="-7.128272959962487">
        <ele>264.01999999999998</ele>
        <time>2025-05-02T14:45:26Z</time>
      </trkpt>
      <trkpt lat="41.111862016841769" lon="-7.128457026556134">
        <ele>265.45999999999998</ele>
        <time>2025-05-02T14:45:28Z</time>
      </trkpt>
      <trkpt lat="41.111722039058805" lon="-7.128517040982842">
        <ele>266.42000000000002</ele>
        <time>2025-05-02T14:45:29Z</time>
      </trkpt>
      <trkpt lat="41.111290035769343" lon="-7.128702029585838">
        <ele>268.35000000000002</ele>
        <time>2025-05-02T14:45:32Z</time>
      </trkpt>
      <trkpt lat="41.111149974167347" lon="-7.128761960193515">
        <ele>269.31</ele>
        <time>2025-05-02T14:45:33Z</time>
      </trkpt>
      <trkpt lat="41.110892985016108" lon="-7.128872014582157">
        <ele>270.75</ele>
        <time>2025-05-02T14:45:35Z</time>
      </trkpt>
      <trkpt lat="41.1107690166682" lon="-7.128924988210201">
        <ele>271.70999999999998</ele>
        <time>2025-05-02T14:45:36Z</time>
      </trkpt>
      <trkpt lat="41.110641025006771" lon="-7.128969999030232">
        <ele>272.67000000000002</ele>
        <time>2025-05-02T14:45:37Z</time>
      </trkpt>
      <trkpt lat="41.110243974253535" lon="-7.128977961838245">
        <ele>275.06999999999999</ele>
        <time>2025-05-02T14:45:40Z</time>
      </trkpt>
      <trkpt lat="41.110111959278584" lon="-7.128938985988498">
        <ele>276.04000000000002</ele>
        <time>2025-05-02T14:45:41Z</time>
      </trkpt>
      <trkpt lat="41.109993020072579" lon="-7.128865979611874">
        <ele>277</ele>
        <time>2025-05-02T14:45:42Z</time>
      </trkpt>
      <trkpt lat="41.109871985390782" lon="-7.128769000992179">
        <ele>277.95999999999998</ele>
        <time>2025-05-02T14:45:43Z</time>
      </trkpt>
      <trkpt lat="41.109748017042875" lon="-7.128670010715723">
        <ele>278.44</ele>
        <time>2025-05-02T14:45:44Z</time>
      </trkpt>
      <trkpt lat="41.109616002067924" lon="-7.128568002954125">
        <ele>279.39999999999998</ele>
        <time>2025-05-02T14:45:45Z</time>
      </trkpt>
      <trkpt lat="41.109488010406494" lon="-7.128489967435598">
        <ele>280.83999999999997</ele>
        <time>2025-05-02T14:45:46Z</time>
      </trkpt>
      <trkpt lat="41.109360018745065" lon="-7.128410004079342">
        <ele>281.31999999999999</ele>
        <time>2025-05-02T14:45:47Z</time>
      </trkpt>
      <trkpt lat="41.109218029305339" lon="-7.128398017957807">
        <ele>282.27999999999997</ele>
        <time>2025-05-02T14:45:48Z</time>
      </trkpt>
      <trkpt lat="41.109076039865613" lon="-7.128434982150793">
        <ele>283.25</ele>
        <time>2025-05-02T14:45:49Z</time>
      </trkpt>
      <trkpt lat="41.108927009627223" lon="-7.128473035991192">
        <ele>283.73000000000002</ele>
        <time>2025-05-02T14:45:50Z</time>
      </trkpt>
      <trkpt lat="41.107916990295053" lon="-7.128841001540422">
        <ele>289.97000000000003</ele>
        <time>2025-05-02T14:45:57Z</time>
      </trkpt>
      <trkpt lat="41.107801990583539" lon="-7.128918031230569">
        <ele>290.94</ele>
        <time>2025-05-02T14:45:58Z</time>
      </trkpt>
      <trkpt lat="41.107707023620605" lon="-7.129024984315038">
        <ele>291.42000000000002</ele>
        <time>2025-05-02T14:45:59Z</time>
      </trkpt>
      <trkpt lat="41.107619013637304" lon="-7.129149958491325">
        <ele>291.89999999999998</ele>
        <time>2025-05-02T14:46:00Z</time>
      </trkpt>
      <trkpt lat="41.107551958411932" lon="-7.129294965416193">
        <ele>292.86000000000001</ele>
        <time>2025-05-02T14:46:01Z</time>
      </trkpt>
      <trkpt lat="41.10750300809741" lon="-7.129464028403163">
        <ele>293.33999999999997</ele>
        <time>2025-05-02T14:46:02Z</time>
      </trkpt>
      <trkpt lat="41.10748196952045" lon="-7.129637030884624">
        <ele>294.30000000000001</ele>
        <time>2025-05-02T14:46:03Z</time>
      </trkpt>
      <trkpt lat="41.107483981177211" lon="-7.129823025316">
        <ele>294.77999999999997</ele>
        <time>2025-05-02T14:46:04Z</time>
      </trkpt>
      <trkpt lat="41.107507031410933" lon="-7.130003990605474">
        <ele>295.74000000000001</ele>
        <time>2025-05-02T14:46:05Z</time>
      </trkpt>
      <trkpt lat="41.107529997825623" lon="-7.130190990865231">
        <ele>296.22000000000003</ele>
        <time>2025-05-02T14:46:06Z</time>
      </trkpt>
      <trkpt lat="41.107536032795906" lon="-7.130373967811465">
        <ele>297.18000000000001</ele>
        <time>2025-05-02T14:46:07Z</time>
      </trkpt>
      <trkpt lat="41.107531003654003" lon="-7.130551999434829">
        <ele>297.67000000000002</ele>
        <time>2025-05-02T14:46:08Z</time>
      </trkpt>
      <trkpt lat="41.107486998662353" lon="-7.130714021623135">
        <ele>298.63</ele>
        <time>2025-05-02T14:46:09Z</time>
      </trkpt>
      <trkpt lat="41.107420027256012" lon="-7.13085500523448">
        <ele>299.58999999999997</ele>
        <time>2025-05-02T14:46:10Z</time>
      </trkpt>
      <trkpt lat="41.107338974252343" lon="-7.130987020209432">
        <ele>300.55000000000001</ele>
        <time>2025-05-02T14:46:11Z</time>
      </trkpt>
      <trkpt lat="41.107254987582564" lon="-7.131124986335635">
        <ele>301.02999999999997</ele>
        <time>2025-05-02T14:46:12Z</time>
      </trkpt>
      <trkpt lat="41.106306994333863" lon="-7.132356036454439">
        <ele>308.24000000000001</ele>
        <time>2025-05-02T14:46:20Z</time>
      </trkpt>
      <trkpt lat="41.105219023302197" lon="-7.133599994704127">
        <ele>315.93000000000001</ele>
        <time>2025-05-02T14:46:29Z</time>
      </trkpt>
      <trkpt lat="41.104094004258513" lon="-7.134168958291411">
        <ele>321.22000000000003</ele>
        <time>2025-05-02T14:46:37Z</time>
      </trkpt>
      <trkpt lat="41.103973975405097" lon="-7.134255962446332">
        <ele>321.22000000000003</ele>
        <time>2025-05-02T14:46:38Z</time>
      </trkpt>
      <trkpt lat="41.103862999007106" lon="-7.134351013228297">
        <ele>321.69999999999999</ele>
        <time>2025-05-02T14:46:39Z</time>
      </trkpt>
      <trkpt lat="41.103758979588747" lon="-7.134440029039979">
        <ele>321.69999999999999</ele>
        <time>2025-05-02T14:46:40Z</time>
      </trkpt>
      <trkpt lat="41.103716986253858" lon="-7.134588975459337">
        <ele>321.69999999999999</ele>
        <time>2025-05-02T14:46:41Z</time>
      </trkpt>
      <trkpt lat="41.103674992918968" lon="-7.134738005697727">
        <ele>322.18000000000001</ele>
        <time>2025-05-02T14:46:42Z</time>
      </trkpt>
      <trkpt lat="41.103632999584079" lon="-7.134888041764498">
        <ele>322.18000000000001</ele>
        <time>2025-05-02T14:46:43Z</time>
      </trkpt>
      <trkpt lat="41.103547001257539" lon="-7.135193981230259">
        <ele>322.18000000000001</ele>
        <time>2025-05-02T14:46:45Z</time>
      </trkpt>
      <trkpt lat="41.103486986830831" lon="-7.135321972891688">
        <ele>322.18000000000001</ele>
        <time>2025-05-02T14:46:46Z</time>
      </trkpt>
      <trkpt lat="41.103392019867897" lon="-7.135440995916724">
        <ele>322.66000000000003</ele>
        <time>2025-05-02T14:46:47Z</time>
      </trkpt>
      <trkpt lat="41.103266039863229" lon="-7.135598994791508">
        <ele>323.13999999999999</ele>
        <time>2025-05-02T14:46:48Z</time>
      </trkpt>
      <trkpt lat="41.103179035708308" lon="-7.135650962591171">
        <ele>323.62</ele>
        <time>2025-05-02T14:46:49Z</time>
      </trkpt>
      <trkpt lat="41.103047020733356" lon="-7.135730003938079">
        <ele>324.10000000000002</ele>
        <time>2025-05-02T14:46:50Z</time>
      </trkpt>
      <trkpt lat="41.102908970788121" lon="-7.135812984779477">
        <ele>324.57999999999998</ele>
        <time>2025-05-02T14:46:51Z</time>
      </trkpt>
      <trkpt lat="41.101640034466982" lon="-7.136623011901975">
        <ele>329.38999999999999</ele>
        <time>2025-05-02T14:46:59Z</time>
      </trkpt>
      <trkpt lat="41.101489998400211" lon="-7.13674396276474">
        <ele>329.87</ele>
        <time>2025-05-02T14:47:00Z</time>
      </trkpt>
      <trkpt lat="41.10133501701057" lon="-7.136864997446537">
        <ele>330.35000000000002</ele>
        <time>2025-05-02T14:47:01Z</time>
      </trkpt>
      <trkpt lat="41.101227980107069" lon="-7.136992989107966">
        <ele>330.82999999999998</ele>
        <time>2025-05-02T14:47:02Z</time>
      </trkpt>
      <trkpt lat="41.100792037323117" lon="-7.137452987954021">
        <ele>332.26999999999998</ele>
        <time>2025-05-02T14:47:06Z</time>
      </trkpt>
      <trkpt lat="41.100676031783223" lon="-7.137520965188742">
        <ele>332.75</ele>
        <time>2025-05-02T14:47:07Z</time>
      </trkpt>
      <trkpt lat="41.100536976009607" lon="-7.137566981837153">
        <ele>333.23000000000002</ele>
        <time>2025-05-02T14:47:08Z</time>
      </trkpt>
      <trkpt lat="41.100387023761868" lon="-7.137599000707269">
        <ele>333.70999999999998</ele>
        <time>2025-05-02T14:47:09Z</time>
      </trkpt>
      <trkpt lat="41.100229024887085" lon="-7.137609981000423">
        <ele>333.70999999999998</ele>
        <time>2025-05-02T14:47:10Z</time>
      </trkpt>
      <trkpt lat="41.100063985213637" lon="-7.137595983222127">
        <ele>334.19999999999999</ele>
        <time>2025-05-02T14:47:11Z</time>
      </trkpt>
      <trkpt lat="41.099892994388938" lon="-7.137565976008773">
        <ele>334.19999999999999</ele>
        <time>2025-05-02T14:47:12Z</time>
      </trkpt>
      <trkpt lat="41.099716974422336" lon="-7.137549966573715">
        <ele>334.68000000000001</ele>
        <time>2025-05-02T14:47:13Z</time>
      </trkpt>
      <trkpt lat="41.099539026618004" lon="-7.137533035129309">
        <ele>334.68000000000001</ele>
        <time>2025-05-02T14:47:14Z</time>
      </trkpt>
      <trkpt lat="41.09935998916626" lon="-7.137530017644167">
        <ele>334.68000000000001</ele>
        <time>2025-05-02T14:47:15Z</time>
      </trkpt>
      <trkpt lat="41.098490031436086" lon="-7.137594977393746">
        <ele>336.12</ele>
        <time>2025-05-02T14:47:21Z</time>
      </trkpt>
      <trkpt lat="41.098384000360966" lon="-7.137650968506932">
        <ele>336.60000000000002</ele>
        <time>2025-05-02T14:47:22Z</time>
      </trkpt>
      <trkpt lat="41.098301019519567" lon="-7.137760017067194">
        <ele>336.60000000000002</ele>
        <time>2025-05-02T14:47:23Z</time>
      </trkpt>
      <trkpt lat="41.098216027021408" lon="-7.137868981808424">
        <ele>337.07999999999998</ele>
        <time>2025-05-02T14:47:24Z</time>
      </trkpt>
      <trkpt lat="41.098158024251461" lon="-7.137998985126615">
        <ele>337.56</ele>
        <time>2025-05-02T14:47:25Z</time>
      </trkpt>
      <trkpt lat="41.098112007603049" lon="-7.138165030628443">
        <ele>338.04000000000002</ele>
        <time>2025-05-02T14:47:26Z</time>
      </trkpt>
      <trkpt lat="41.098063979297876" lon="-7.138341972604394">
        <ele>339</ele>
        <time>2025-05-02T14:47:27Z</time>
      </trkpt>
      <trkpt lat="41.098019974306226" lon="-7.138526039198041">
        <ele>339.48000000000002</ele>
        <time>2025-05-02T14:47:28Z</time>
      </trkpt>
      <trkpt lat="41.097911009564996" lon="-7.139274040237069">
        <ele>343.81</ele>
        <time>2025-05-02T14:47:32Z</time>
      </trkpt>
      <trkpt lat="41.097892988473177" lon="-7.139591965824366">
        <ele>345.73000000000002</ele>
        <time>2025-05-02T14:47:34Z</time>
      </trkpt>
      <trkpt lat="41.097885025665164" lon="-7.139755999669433">
        <ele>346.69</ele>
        <time>2025-05-02T14:47:35Z</time>
      </trkpt>
      <trkpt lat="41.097850995138288" lon="-7.139911986887455">
        <ele>347.17000000000002</ele>
        <time>2025-05-02T14:47:36Z</time>
      </trkpt>
      <trkpt lat="41.097763990983367" lon="-7.140041990205646">
        <ele>348.13</ele>
        <time>2025-05-02T14:47:37Z</time>
      </trkpt>
      <trkpt lat="41.097673969343305" lon="-7.140177022665739">
        <ele>348.62</ele>
        <time>2025-05-02T14:47:38Z</time>
      </trkpt>
      <trkpt lat="41.097566010430455" lon="-7.140289004892111">
        <ele>349.10000000000002</ele>
        <time>2025-05-02T14:47:39Z</time>
      </trkpt>
      <trkpt lat="41.097436007112265" lon="-7.140367040410638">
        <ele>350.06</ele>
        <time>2025-05-02T14:47:40Z</time>
      </trkpt>
      <trkpt lat="41.097306003794074" lon="-7.140444992110133">
        <ele>350.54000000000002</ele>
        <time>2025-05-02T14:47:41Z</time>
      </trkpt>
      <trkpt lat="41.097184969112277" lon="-7.140512969344854">
        <ele>351.01999999999998</ele>
        <time>2025-05-02T14:47:42Z</time>
      </trkpt>
      <trkpt lat="41.097048008814454" lon="-7.140519004315138">
        <ele>351.5</ele>
        <time>2025-05-02T14:47:43Z</time>
      </trkpt>
      <trkpt lat="41.096901996061206" lon="-7.14052596129477">
        <ele>351.98000000000002</ele>
        <time>2025-05-02T14:47:44Z</time>
      </trkpt>
      <trkpt lat="41.096593039110303" lon="-7.140497965738177">
        <ele>352.94</ele>
        <time>2025-05-02T14:47:46Z</time>
      </trkpt>
      <trkpt lat="41.096293972805142" lon="-7.140426971018314">
        <ele>353.89999999999998</ele>
        <time>2025-05-02T14:47:48Z</time>
      </trkpt>
      <trkpt lat="41.096164975315332" lon="-7.140463013201952">
        <ele>354.38</ele>
        <time>2025-05-02T14:47:49Z</time>
      </trkpt>
      <trkpt lat="41.09607202000916" lon="-7.140539037063718">
        <ele>354.38</ele>
        <time>2025-05-02T14:47:50Z</time>
      </trkpt>
      <trkpt lat="41.095981998369098" lon="-7.14063199236989">
        <ele>354.86000000000001</ele>
        <time>2025-05-02T14:47:51Z</time>
      </trkpt>
      <trkpt lat="41.095894994214177" lon="-7.140743974596262">
        <ele>355.82999999999998</ele>
        <time>2025-05-02T14:47:52Z</time>
      </trkpt>
      <trkpt lat="41.095808995887637" lon="-7.140854028984904">
        <ele>356.31</ele>
        <time>2025-05-02T14:47:53Z</time>
      </trkpt>
      <trkpt lat="41.095722997561097" lon="-7.140965005382896">
        <ele>357.26999999999998</ele>
        <time>2025-05-02T14:47:54Z</time>
      </trkpt>
      <trkpt lat="41.095617972314358" lon="-7.141032982617617">
        <ele>358.23000000000002</ele>
        <time>2025-05-02T14:47:55Z</time>
      </trkpt>
      <trkpt lat="41.095519987866282" lon="-7.141070030629635">
        <ele>359.19</ele>
        <time>2025-05-02T14:47:56Z</time>
      </trkpt>
      <trkpt lat="41.09538696706295" lon="-7.141057038679719">
        <ele>359.67000000000002</ele>
        <time>2025-05-02T14:47:57Z</time>
      </trkpt>
      <trkpt lat="41.095271967351437" lon="-7.1410390175879">
        <ele>360.63</ele>
        <time>2025-05-02T14:47:58Z</time>
      </trkpt>
      <trkpt lat="41.095145987346768" lon="-7.141000041738153">
        <ele>361.58999999999997</ele>
        <time>2025-05-02T14:47:59Z</time>
      </trkpt>
      <trkpt lat="41.095011960715055" lon="-7.140958970412612">
        <ele>362.06999999999999</ele>
        <time>2025-05-02T14:48:00Z</time>
      </trkpt>
      <trkpt lat="41.094875000417233" lon="-7.140916977077723">
        <ele>363.04000000000002</ele>
        <time>2025-05-02T14:48:01Z</time>
      </trkpt>
      <trkpt lat="41.094216015189886" lon="-7.140815975144506">
        <ele>365.92000000000002</ele>
        <time>2025-05-02T14:48:06Z</time>
      </trkpt>
      <trkpt lat="41.094087017700076" lon="-7.140843970701098">
        <ele>366.88</ele>
        <time>2025-05-02T14:48:07Z</time>
      </trkpt>
      <trkpt lat="41.093958020210266" lon="-7.140871966257691">
        <ele>367.36000000000001</ele>
        <time>2025-05-02T14:48:08Z</time>
      </trkpt>
      <trkpt lat="41.093826005235314" lon="-7.140917982906103">
        <ele>368.31999999999999</ele>
        <time>2025-05-02T14:48:09Z</time>
      </trkpt>
      <trkpt lat="41.09368703328073" lon="-7.140971040353179">
        <ele>369.27999999999997</ele>
        <time>2025-05-02T14:48:10Z</time>
      </trkpt>
      <trkpt lat="41.093563986942172" lon="-7.141057038679719">
        <ele>370.24000000000001</ele>
        <time>2025-05-02T14:48:11Z</time>
      </trkpt>
      <trkpt lat="41.093443036079407" lon="-7.141155023127794">
        <ele>371.20999999999998</ele>
        <time>2025-05-02T14:48:12Z</time>
      </trkpt>
      <trkpt lat="41.093319989740849" lon="-7.141255019232631">
        <ele>371.69</ele>
        <time>2025-05-02T14:48:13Z</time>
      </trkpt>
      <trkpt lat="41.093217981979251" lon="-7.141387034207583">
        <ele>372.64999999999998</ele>
        <time>2025-05-02T14:48:14Z</time>
      </trkpt>
      <trkpt lat="41.093115974217653" lon="-7.141523994505405">
        <ele>373.61000000000001</ele>
        <time>2025-05-02T14:48:15Z</time>
      </trkpt>
      <trkpt lat="41.092594033107162" lon="-7.142166970297694">
        <ele>378.89999999999998</ele>
        <time>2025-05-02T14:48:20Z</time>
      </trkpt>
      <trkpt lat="41.092480961233377" lon="-7.142253974452615">
        <ele>380.33999999999997</ele>
        <time>2025-05-02T14:48:21Z</time>
      </trkpt>
      <trkpt lat="41.09235699288547" lon="-7.14230895973742">
        <ele>381.30000000000001</ele>
        <time>2025-05-02T14:48:22Z</time>
      </trkpt>
      <trkpt lat="41.092245010659099" lon="-7.142295967787504">
        <ele>382.74000000000001</ele>
        <time>2025-05-02T14:48:23Z</time>
      </trkpt>
      <trkpt lat="41.092124981805682" lon="-7.142273001372814">
        <ele>383.69999999999999</ele>
        <time>2025-05-02T14:48:24Z</time>
      </trkpt>
      <trkpt lat="41.091996990144253" lon="-7.142249029129744">
        <ele>385.14999999999998</ele>
        <time>2025-05-02T14:48:25Z</time>
      </trkpt>
      <trkpt lat="41.091872015967965" lon="-7.142221033573151">
        <ele>385.63</ele>
        <time>2025-05-02T14:48:26Z</time>
      </trkpt>
      <trkpt lat="41.091740000993013" lon="-7.142168981954455">
        <ele>386.58999999999997</ele>
        <time>2025-05-02T14:48:27Z</time>
      </trkpt>
      <trkpt lat="41.091609997674823" lon="-7.142119025811553">
        <ele>387.55000000000001</ele>
        <time>2025-05-02T14:48:28Z</time>
      </trkpt>
      <trkpt lat="41.091473037377" lon="-7.142081977799535">
        <ele>388.50999999999999</ele>
        <time>2025-05-02T14:48:29Z</time>
      </trkpt>
      <trkpt lat="41.091333981603384" lon="-7.14209295809269">
        <ele>388.99000000000001</ele>
        <time>2025-05-02T14:48:30Z</time>
      </trkpt>
      <trkpt lat="41.091191992163658" lon="-7.142149033024907">
        <ele>389.47000000000003</ele>
        <time>2025-05-02T14:48:31Z</time>
      </trkpt>
      <trkpt lat="41.091071963310242" lon="-7.142250034958124">
        <ele>390.43000000000001</ele>
        <time>2025-05-02T14:48:32Z</time>
      </trkpt>
      <trkpt lat="41.090949000790715" lon="-7.142352964729071">
        <ele>391.38999999999999</ele>
        <time>2025-05-02T14:48:33Z</time>
      </trkpt>
      <trkpt lat="41.090826960280538" lon="-7.142462013289332">
        <ele>392.36000000000001</ele>
        <time>2025-05-02T14:48:34Z</time>
      </trkpt>
      <trkpt lat="41.089719962328672" lon="-7.143675964325666">
        <ele>401.97000000000003</ele>
        <time>2025-05-02T14:48:45Z</time>
      </trkpt>
      <trkpt lat="41.0896270070225" lon="-7.143732039257884">
        <ele>402.93000000000001</ele>
        <time>2025-05-02T14:48:46Z</time>
      </trkpt>
      <trkpt lat="41.089530028402805" lon="-7.143791969865561">
        <ele>403.41000000000003</ele>
        <time>2025-05-02T14:48:47Z</time>
      </trkpt>
      <trkpt lat="41.08943497762084" lon="-7.143820971250534">
        <ele>404.37</ele>
        <time>2025-05-02T14:48:48Z</time>
      </trkpt>
      <trkpt lat="41.089330958202481" lon="-7.143829017877579">
        <ele>404.85000000000002</ele>
        <time>2025-05-02T14:48:49Z</time>
      </trkpt>
      <trkpt lat="41.089211013168097" lon="-7.143837986513972">
        <ele>405.32999999999998</ele>
        <time>2025-05-02T14:48:50Z</time>
      </trkpt>
      <trkpt lat="41.089138006791472" lon="-7.143827006220818">
        <ele>406.29000000000002</ele>
        <time>2025-05-02T14:48:51Z</time>
      </trkpt>
      <trkpt lat="41.089054020121694" lon="-7.143815020099282">
        <ele>406.76999999999998</ele>
        <time>2025-05-02T14:48:52Z</time>
      </trkpt>
      <trkpt lat="41.088931979611516" lon="-7.143795993179083">
        <ele>407.25999999999999</ele>
        <time>2025-05-02T14:48:53Z</time>
      </trkpt>
      <trkpt lat="41.088887974619865" lon="-7.143781995400786">
        <ele>407.74000000000001</ele>
        <time>2025-05-02T14:48:54Z</time>
      </trkpt>
      <trkpt lat="41.088739028200507" lon="-7.143537998199463">
        <ele>408.22000000000003</ele>
        <time>2025-05-02T14:48:55Z</time>
      </trkpt>
      <trkpt lat="41.088728969916701" lon="-7.143507990986109">
        <ele>408.69999999999999</ele>
        <time>2025-05-02T14:48:56Z</time>
      </trkpt>
      <trkpt lat="41.088688988238573" lon="-7.143389973789454">
        <ele>409.18000000000001</ele>
        <time>2025-05-02T14:48:57Z</time>
      </trkpt>
      <trkpt lat="41.088650012388825" lon="-7.143275979906321">
        <ele>409.18000000000001</ele>
        <time>2025-05-02T14:48:58Z</time>
      </trkpt>
      <trkpt lat="41.088612964376807" lon="-7.143168020993471">
        <ele>409.66000000000003</ele>
        <time>2025-05-02T14:48:59Z</time>
      </trkpt>
      <trkpt lat="41.088578011840582" lon="-7.143065007403493">
        <ele>410.13999999999999</ele>
        <time>2025-05-02T14:49:00Z</time>
      </trkpt>
      <trkpt lat="41.088238041847944" lon="-7.142222039401531">
        <ele>410.62</ele>
        <time>2025-05-02T14:49:08Z</time>
      </trkpt>
      <trkpt lat="41.087533039972186" lon="-7.141389967873693">
        <ele>408.22000000000003</ele>
        <time>2025-05-02T14:49:17Z</time>
      </trkpt>
      <trkpt lat="41.086310036480427" lon="-7.14047902263701">
        <ele>406.29000000000002</ele>
        <time>2025-05-02T14:49:29Z</time>
      </trkpt>
      <trkpt lat="41.085842996835709" lon="-7.140082977712154">
        <ele>406.29000000000002</ele>
        <time>2025-05-02T14:49:34Z</time>
      </trkpt>
      <trkpt lat="41.08494495972991" lon="-7.139264987781644">
        <ele>406.76999999999998</ele>
        <time>2025-05-02T14:49:45Z</time>
      </trkpt>
      <trkpt lat="41.084543969482183" lon="-7.13878596201539">
        <ele>407.25999999999999</ele>
        <time>2025-05-02T14:49:51Z</time>
      </trkpt>
      <trkpt lat="41.084487978368998" lon="-7.13871899060905">
        <ele>407.25999999999999</ele>
        <time>2025-05-02T14:49:52Z</time>
      </trkpt>
      <trkpt lat="41.084214979782701" lon="-7.138242982327938">
        <ele>410.13999999999999</ele>
        <time>2025-05-02T14:50:01Z</time>
      </trkpt>
      <trkpt lat="41.084208022803068" lon="-7.138229990378022">
        <ele>410.13999999999999</ele>
        <time>2025-05-02T14:50:02Z</time>
      </trkpt>
      <trkpt lat="41.084141973406076" lon="-7.138235019519925">
        <ele>410.62</ele>
        <time>2025-05-02T14:50:03Z</time>
      </trkpt>
      <trkpt lat="41.084101991727948" lon="-7.13826703839004">
        <ele>411.10000000000002</ele>
        <time>2025-05-02T14:50:04Z</time>
      </trkpt>
      <trkpt lat="41.084056980907917" lon="-7.138304002583027">
        <ele>411.10000000000002</ele>
        <time>2025-05-02T14:50:05Z</time>
      </trkpt>
      <trkpt lat="41.084009036421776" lon="-7.138343984261155">
        <ele>411.57999999999998</ele>
        <time>2025-05-02T14:50:06Z</time>
      </trkpt>
      <trkpt lat="41.083658002316952" lon="-7.138630980625749">
        <ele>413.5</ele>
        <time>2025-05-02T14:50:13Z</time>
      </trkpt>
      <trkpt lat="41.083622965961695" lon="-7.138658976182342">
        <ele>413.98000000000002</ele>
        <time>2025-05-02T14:50:14Z</time>
      </trkpt>
      <trkpt lat="41.083592958748341" lon="-7.138683032244444">
        <ele>414.47000000000003</ele>
        <time>2025-05-02T14:50:15Z</time>
      </trkpt>
      <trkpt lat="41.083566974848509" lon="-7.138704992830753">
        <ele>414.47000000000003</ele>
        <time>2025-05-02T14:50:16Z</time>
      </trkpt>
      <trkpt lat="41.083541996777058" lon="-7.138725025579333">
        <ele>414.94999999999999</ele>
        <time>2025-05-02T14:50:17Z</time>
      </trkpt>
      <trkpt lat="41.083517018705606" lon="-7.138744974508882">
        <ele>414.94999999999999</ele>
        <time>2025-05-02T14:50:18Z</time>
      </trkpt>
      <trkpt lat="41.083496985957026" lon="-7.138760983943939">
        <ele>415.43000000000001</ele>
        <time>2025-05-02T14:50:28Z</time>
      </trkpt>
      <trkpt lat="41.083449963480234" lon="-7.138799037784338">
        <ele>415.43000000000001</ele>
        <time>2025-05-02T14:50:31Z</time>
      </trkpt>
      <trkpt lat="41.083375029265881" lon="-7.138859974220395">
        <ele>415.43000000000001</ele>
        <time>2025-05-02T14:50:32Z</time>
      </trkpt>
      <trkpt lat="41.083375029265881" lon="-7.138859974220395">
        <ele>415.43000000000001</ele>
        <time>2025-05-02T14:50:45Z</time>
      </trkpt>
      <trkpt lat="41.083365976810455" lon="-7.138874977827072">
        <ele>415.43000000000001</ele>
        <time>2025-05-02T14:50:55Z</time>
      </trkpt>
      <trkpt lat="41.083345022052526" lon="-7.138913031667471">
        <ele>415.43000000000001</ele>
        <time>2025-05-02T14:50:56Z</time>
      </trkpt>
      <trkpt lat="41.083443006500602" lon="-7.139154011383653">
        <ele>415.91000000000003</ele>
        <time>2025-05-02T14:50:57Z</time>
      </trkpt>
      <trkpt lat="41.083429008722305" lon="-7.138920994475484">
        <ele>415.91000000000003</ele>
        <time>2025-05-02T14:50:58Z</time>
      </trkpt>
      <trkpt lat="41.083266986533999" lon="-7.139053009450436">
        <ele>415.91000000000003</ele>
        <time>2025-05-02T14:50:59Z</time>
      </trkpt>
      <trkpt lat="41.083261035382748" lon="-7.139044962823391">
        <ele>416.38999999999999</ele>
        <time>2025-05-02T14:51:00Z</time>
      </trkpt>
      <trkpt lat="41.083227004855871" lon="-7.139001041650772">
        <ele>416.87</ele>
        <time>2025-05-02T14:51:01Z</time>
      </trkpt>
      <trkpt lat="41.083188029006124" lon="-7.138948990032077">
        <ele>416.87</ele>
        <time>2025-05-02T14:51:02Z</time>
      </trkpt>
      <trkpt lat="41.083077974617481" lon="-7.13880498893559">
        <ele>417.82999999999998</ele>
        <time>2025-05-02T14:51:05Z</time>
      </trkpt>
      <trkpt lat="41.083042016252875" lon="-7.138757966458798">
        <ele>418.31</ele>
        <time>2025-05-02T14:51:06Z</time>
      </trkpt>
      <trkpt lat="41.083007985725999" lon="-7.138712033629417">
        <ele>418.31</ele>
        <time>2025-05-02T14:51:07Z</time>
      </trkpt>
      <trkpt lat="41.082976972684264" lon="-7.138671968132258">
        <ele>418.31</ele>
        <time>2025-05-02T14:51:08Z</time>
      </trkpt>
      <trkpt lat="41.082949982956052" lon="-7.138636009767652">
        <ele>418.79000000000002</ele>
        <time>2025-05-02T14:51:09Z</time>
      </trkpt>
      <trkpt lat="41.082891980186105" lon="-7.138558980077505">
        <ele>420.23000000000002</ele>
        <time>2025-05-02T14:51:17Z</time>
      </trkpt>
      <trkpt lat="41.08275200240314" lon="-7.138410033658147">
        <ele>420.70999999999998</ele>
        <time>2025-05-02T14:51:22Z</time>
      </trkpt>
      <trkpt lat="41.082711014896631" lon="-7.138368962332606">
        <ele>420.70999999999998</ele>
        <time>2025-05-02T14:51:23Z</time>
      </trkpt>
      <trkpt lat="41.082668015733361" lon="-7.138325041159987">
        <ele>420.70999999999998</ele>
        <time>2025-05-02T14:51:24Z</time>
      </trkpt>
      <trkpt lat="41.082627028226852" lon="-7.138283969834447">
        <ele>420.70999999999998</ele>
        <time>2025-05-02T14:51:25Z</time>
      </trkpt>
      <trkpt lat="41.082595009356737" lon="-7.138252034783363">
        <ele>420.70999999999998</ele>
        <time>2025-05-02T14:51:26Z</time>
      </trkpt>
      <trkpt lat="41.082570031285286" lon="-7.13822697289288">
        <ele>420.23000000000002</ele>
        <time>2025-05-02T14:51:27Z</time>
      </trkpt>
      <trkpt lat="41.082549998536706" lon="-7.138207023963332">
        <ele>420.23000000000002</ele>
        <time>2025-05-02T14:51:28Z</time>
      </trkpt>
      <trkpt lat="41.082532983273268" lon="-7.138190008699894">
        <ele>419.75</ele>
        <time>2025-05-02T14:51:29Z</time>
      </trkpt>
      <trkpt lat="41.08251596800983" lon="-7.138172993436456">
        <ele>419.26999999999998</ele>
        <time>2025-05-02T14:51:30Z</time>
      </trkpt>
      <trkpt lat="41.082499958574772" lon="-7.138157989829779">
        <ele>418.79000000000002</ele>
        <time>2025-05-02T14:51:31Z</time>
      </trkpt>
      <trkpt lat="41.082484032958746" lon="-7.138141980394721">
        <ele>418.79000000000002</ele>
        <time>2025-05-02T14:51:32Z</time>
      </trkpt>
      <trkpt lat="41.082357969135046" lon="-7.137916004285216">
        <ele>418.79000000000002</ele>
        <time>2025-05-02T14:51:33Z</time>
      </trkpt>
      <trkpt lat="41.082357969135046" lon="-7.137916004285216">
        <ele>418.79000000000002</ele>
        <time>2025-05-02T14:51:34Z</time>
      </trkpt>
      <trkpt lat="41.082538012415171" lon="-7.137959003448486">
        <ele>419.26999999999998</ele>
        <time>2025-05-02T14:51:45Z</time>
      </trkpt>
      <trkpt lat="41.082538012415171" lon="-7.137959003448486">
        <ele>419.26999999999998</ele>
        <time>2025-05-02T14:51:46Z</time>
      </trkpt>
      <trkpt lat="41.082561984658241" lon="-7.137983981519938">
        <ele>419.26999999999998</ele>
        <time>2025-05-02T14:51:47Z</time>
      </trkpt>
      <trkpt lat="41.082573970779777" lon="-7.137995967641473">
        <ele>419.75</ele>
        <time>2025-05-02T14:51:48Z</time>
      </trkpt>
      <trkpt lat="41.082586962729692" lon="-7.13800803758204">
        <ele>420.23000000000002</ele>
        <time>2025-05-02T14:51:49Z</time>
      </trkpt>
      <trkpt lat="41.082603977993131" lon="-7.138024969026446">
        <ele>420.23000000000002</ele>
        <time>2025-05-02T14:51:50Z</time>
      </trkpt>
      <trkpt lat="41.08262300491333" lon="-7.138043995946646">
        <ele>420.70999999999998</ele>
        <time>2025-05-02T14:51:51Z</time>
      </trkpt>
      <trkpt lat="41.082975966855884" lon="-7.138399975374341">
        <ele>421.68000000000001</ele>
        <time>2025-05-02T14:52:07Z</time>
      </trkpt>
      <trkpt lat="41.083057019859552" lon="-7.138491002842784">
        <ele>421.19</ele>
        <time>2025-05-02T14:52:17Z</time>
      </trkpt>
      <trkpt lat="41.083433032035828" lon="-7.138925017789006">
        <ele>419.26999999999998</ele>
        <time>2025-05-02T14:52:31Z</time>
      </trkpt>
      <trkpt lat="41.083467984572053" lon="-7.139138001948595">
        <ele>418.31</ele>
        <time>2025-05-02T14:52:34Z</time>
      </trkpt>
      <trkpt lat="41.083442000672221" lon="-7.139154011383653">
        <ele>418.31</ele>
        <time>2025-05-02T14:52:35Z</time>
      </trkpt>
      <trkpt lat="41.083416016772389" lon="-7.139171026647091">
        <ele>417.82999999999998</ele>
        <time>2025-05-02T14:52:36Z</time>
      </trkpt>
      <trkpt lat="41.083390032872558" lon="-7.139187958091497">
        <ele>418.31</ele>
        <time>2025-05-02T14:52:37Z</time>
      </trkpt>
      <trkpt lat="41.083266986533999" lon="-7.139053009450436">
        <ele>418.31</ele>
        <time>2025-05-02T14:52:38Z</time>
      </trkpt>
      <trkpt lat="41.083266986533999" lon="-7.139053009450436">
        <ele>418.31</ele>
        <time>2025-05-02T14:52:39Z</time>
      </trkpt>
      <trkpt lat="41.083255000412464" lon="-7.139038005843759">
        <ele>418.31</ele>
        <time>2025-05-02T14:52:40Z</time>
      </trkpt>
      <trkpt lat="41.083227004855871" lon="-7.139001041650772">
        <ele>418.31</ele>
        <time>2025-05-02T14:52:41Z</time>
      </trkpt>
      <trkpt lat="41.083200015127659" lon="-7.138964999467135">
        <ele>418.79000000000002</ele>
        <time>2025-05-02T14:52:42Z</time>
      </trkpt>
      <trkpt lat="41.083172019571066" lon="-7.138928035274148">
        <ele>418.79000000000002</ele>
        <time>2025-05-02T14:52:43Z</time>
      </trkpt>
      <trkpt lat="41.083145029842854" lon="-7.13889199309051">
        <ele>418.31</ele>
        <time>2025-05-02T14:52:44Z</time>
      </trkpt>
      <trkpt lat="41.083070011809468" lon="-7.138794008642435">
        <ele>418.31</ele>
        <time>2025-05-02T14:52:47Z</time>
      </trkpt>
      <trkpt lat="41.083046961575747" lon="-7.138764001429081">
        <ele>418.31</ele>
        <time>2025-05-02T14:52:48Z</time>
      </trkpt>
      <trkpt lat="41.083021983504295" lon="-7.138730976730585">
        <ele>418.31</ele>
        <time>2025-05-02T14:52:49Z</time>
      </trkpt>
      <trkpt lat="41.082995999604464" lon="-7.13869703002274">
        <ele>418.31</ele>
        <time>2025-05-02T14:52:50Z</time>
      </trkpt>
      <trkpt lat="41.08296699821949" lon="-7.138658976182342">
        <ele>418.31</ele>
        <time>2025-05-02T14:52:51Z</time>
      </trkpt>
      <trkpt lat="41.082937996834517" lon="-7.138621006160975">
        <ele>418.31</ele>
        <time>2025-05-02T14:52:52Z</time>
      </trkpt>
      <trkpt lat="41.082523008808494" lon="-7.1381810400635">
        <ele>418.79000000000002</ele>
        <time>2025-05-02T14:53:08Z</time>
      </trkpt>
      <trkpt lat="41.082489984109998" lon="-7.138148015365005">
        <ele>418.79000000000002</ele>
        <time>2025-05-02T14:53:10Z</time>
      </trkpt>
      <trkpt lat="41.082475986331701" lon="-7.138134017586708">
        <ele>418.31</ele>
        <time>2025-05-02T14:53:11Z</time>
      </trkpt>
      <trkpt lat="41.08253700658679" lon="-7.138023041188717">
        <ele>418.31</ele>
        <time>2025-05-02T14:53:15Z</time>
      </trkpt>
      <trkpt lat="41.082595009356737" lon="-7.137992028146982">
        <ele>417.82999999999998</ele>
        <time>2025-05-02T14:53:19Z</time>
      </trkpt>
      <trkpt lat="41.082859039306641" lon="-7.138211969286203">
        <ele>419.26999999999998</ele>
        <time>2025-05-02T14:53:38Z</time>
      </trkpt>
      <trkpt lat="41.082956017926335" lon="-7.13831003755331">
        <ele>421.19</ele>
        <time>2025-05-02T14:53:51Z</time>
      </trkpt>
      <trkpt lat="41.083003040403128" lon="-7.138265026733279">
        <ele>420.23000000000002</ele>
        <time>2025-05-02T14:54:05Z</time>
      </trkpt>
      <trkpt lat="41.083017960190773" lon="-7.138213980942965">
        <ele>420.23000000000002</ele>
        <time>2025-05-02T14:54:18Z</time>
      </trkpt>
      <trkpt lat="41.082974039018154" lon="-7.138136029243469">
        <ele>421.68000000000001</ele>
        <time>2025-05-03T07:39:49Z</time>
      </trkpt>
      <trkpt lat="41.082973033189774" lon="-7.138135023415089">
        <ele>421.68000000000001</ele>
        <time>2025-05-03T07:40:32Z</time>
      </trkpt>
      <trkpt lat="41.082973033189774" lon="-7.138134017586708">
        <ele>422.16000000000003</ele>
        <time>2025-05-03T07:41:06Z</time>
      </trkpt>
      <trkpt lat="41.082972027361393" lon="-7.138131000101566">
        <ele>422.16000000000003</ele>
        <time>2025-05-03T07:41:50Z</time>
      </trkpt>
      <trkpt lat="41.082985019311309" lon="-7.138115996494889">
        <ele>422.63999999999999</ele>
        <time>2025-05-03T07:42:15Z</time>
      </trkpt>
      <trkpt lat="41.083274027332664" lon="-7.137892032042146">
        <ele>421.68000000000001</ele>
        <time>2025-05-03T07:42:26Z</time>
      </trkpt>
      <trkpt lat="41.083442000672221" lon="-7.137704025954008">
        <ele>420.70999999999998</ele>
        <time>2025-05-03T07:42:35Z</time>
      </trkpt>
      <trkpt lat="41.083442000672221" lon="-7.137704025954008">
        <ele>420.23000000000002</ele>
        <time>2025-05-03T07:43:21Z</time>
      </trkpt>
      <trkpt lat="41.083473013713956" lon="-7.137674018740654">
        <ele>420.23000000000002</ele>
        <time>2025-05-03T07:43:26Z</time>
      </trkpt>
      <trkpt lat="41.083553982898593" lon="-7.137596989050508">
        <ele>420.23000000000002</ele>
        <time>2025-05-03T07:43:33Z</time>
      </trkpt>
      <trkpt lat="41.083746012300253" lon="-7.137414012104273">
        <ele>418.79000000000002</ele>
        <time>2025-05-03T07:43:43Z</time>
      </trkpt>
      <trkpt lat="41.083803009241819" lon="-7.137420969083905">
        <ele>418.31</ele>
        <time>2025-05-03T07:43:46Z</time>
      </trkpt>
      <trkpt lat="41.083823963999748" lon="-7.137462962418795">
        <ele>418.31</ele>
        <time>2025-05-03T07:43:47Z</time>
      </trkpt>
      <trkpt lat="41.083851959556341" lon="-7.137519037351012">
        <ele>417.82999999999998</ele>
        <time>2025-05-03T07:43:48Z</time>
      </trkpt>
      <trkpt lat="41.083880960941315" lon="-7.137577962130308">
        <ele>417.82999999999998</ele>
        <time>2025-05-03T07:43:49Z</time>
      </trkpt>
      <trkpt lat="41.083910968154669" lon="-7.137637976557016">
        <ele>417.35000000000002</ele>
        <time>2025-05-03T07:43:50Z</time>
      </trkpt>
      <trkpt lat="41.084007024765015" lon="-7.137830005958676">
        <ele>416.38999999999999</ele>
        <time>2025-05-03T07:43:53Z</time>
      </trkpt>
      <trkpt lat="41.084038037806749" lon="-7.137892032042146">
        <ele>415.91000000000003</ele>
        <time>2025-05-03T07:43:54Z</time>
      </trkpt>
      <trkpt lat="41.084487978368998" lon="-7.13871899060905">
        <ele>410.62</ele>
        <time>2025-05-03T07:44:07Z</time>
      </trkpt>
      <trkpt lat="41.085041016340256" lon="-7.139379987493157">
        <ele>406.29000000000002</ele>
        <time>2025-05-03T07:44:18Z</time>
      </trkpt>
      <trkpt lat="41.085155010223389" lon="-7.13949398137629">
        <ele>406.29000000000002</ele>
        <time>2025-05-03T07:44:20Z</time>
      </trkpt>
      <trkpt lat="41.085216030478477" lon="-7.139547038823366">
        <ele>406.29000000000002</ele>
        <time>2025-05-03T07:44:21Z</time>
      </trkpt>
      <trkpt lat="41.086089005693793" lon="-7.140293028205633">
        <ele>406.29000000000002</ele>
        <time>2025-05-03T07:44:34Z</time>
      </trkpt>
      <trkpt lat="41.086976984515786" lon="-7.141004987061024">
        <ele>405.32999999999998</ele>
        <time>2025-05-03T07:44:46Z</time>
      </trkpt>
      <trkpt lat="41.087342016398907" lon="-7.141261976212263">
        <ele>404.37</ele>
        <time>2025-05-03T07:44:51Z</time>
      </trkpt>
      <trkpt lat="41.08741401694715" lon="-7.141310004517436">
        <ele>404.37</ele>
        <time>2025-05-03T07:44:52Z</time>
      </trkpt>
      <trkpt lat="41.088024973869324" lon="-7.141889026388526">
        <ele>408.69999999999999</ele>
        <time>2025-05-03T07:45:01Z</time>
      </trkpt>
      <trkpt lat="41.088521014899015" lon="-7.142897034063935">
        <ele>412.06</ele>
        <time>2025-05-03T07:45:12Z</time>
      </trkpt>
      <trkpt lat="41.088720001280308" lon="-7.143481001257896">
        <ele>410.13999999999999</ele>
        <time>2025-05-03T07:45:19Z</time>
      </trkpt>
      <trkpt lat="41.088760988786817" lon="-7.143566999584436">
        <ele>409.66000000000003</ele>
        <time>2025-05-03T07:45:20Z</time>
      </trkpt>
      <trkpt lat="41.088807005435228" lon="-7.143629025667906">
        <ele>409.18000000000001</ele>
        <time>2025-05-03T07:45:21Z</time>
      </trkpt>
      <trkpt lat="41.088886968791485" lon="-7.143735978752375">
        <ele>407.74000000000001</ele>
        <time>2025-05-03T07:45:23Z</time>
      </trkpt>
      <trkpt lat="41.088926028460264" lon="-7.143787024542689">
        <ele>406.76999999999998</ele>
        <time>2025-05-03T07:45:24Z</time>
      </trkpt>
      <trkpt lat="41.08900498598814" lon="-7.143806973472238">
        <ele>405.81</ele>
        <time>2025-05-03T07:45:25Z</time>
      </trkpt>
      <trkpt lat="41.089073969051242" lon="-7.143817031756043">
        <ele>404.85000000000002</ele>
        <time>2025-05-03T07:45:26Z</time>
      </trkpt>
      <trkpt lat="41.089074974879622" lon="-7.143817031756043">
        <ele>403.88999999999999</ele>
        <time>2025-05-03T07:45:27Z</time>
      </trkpt>
      <trkpt lat="41.089249989017844" lon="-7.143835974857211">
        <ele>403.41000000000003</ele>
        <time>2025-05-03T07:45:28Z</time>
      </trkpt>
      <trkpt lat="41.0893489792943" lon="-7.143828012049198">
        <ele>401.97000000000003</ele>
        <time>2025-05-03T07:45:29Z</time>
      </trkpt>
      <trkpt lat="41.089454004541039" lon="-7.143819965422154">
        <ele>401.49000000000001</ele>
        <time>2025-05-03T07:45:30Z</time>
      </trkpt>
      <trkpt lat="41.089559029787779" lon="-7.143774032592773">
        <ele>400.52999999999997</ele>
        <time>2025-05-03T07:45:31Z</time>
      </trkpt>
      <trkpt lat="41.089661959558725" lon="-7.143711000680924">
        <ele>399.56999999999999</ele>
        <time>2025-05-03T07:45:32Z</time>
      </trkpt>
      <trkpt lat="41.089771008118987" lon="-7.143643023446202">
        <ele>399.07999999999998</ele>
        <time>2025-05-03T07:45:33Z</time>
      </trkpt>
      <trkpt lat="41.08986496925354" lon="-7.143544033169746">
        <ele>398.12</ele>
        <time>2025-05-03T07:45:34Z</time>
      </trkpt>
      <trkpt lat="41.089955996721983" lon="-7.143448982387781">
        <ele>397.16000000000003</ele>
        <time>2025-05-03T07:45:35Z</time>
      </trkpt>
      <trkpt lat="41.090777004137635" lon="-7.142523033544421">
        <ele>391.87</ele>
        <time>2025-05-03T07:45:44Z</time>
      </trkpt>
      <trkpt lat="41.091077998280525" lon="-7.142245005816221">
        <ele>390.91000000000003</ele>
        <time>2025-05-03T07:45:47Z</time>
      </trkpt>
      <trkpt lat="41.091175982728601" lon="-7.142163030803204">
        <ele>390.43000000000001</ele>
        <time>2025-05-03T07:45:48Z</time>
      </trkpt>
      <trkpt lat="41.091280002146959" lon="-7.142097987234592">
        <ele>389.94999999999999</ele>
        <time>2025-05-03T07:45:49Z</time>
      </trkpt>
      <trkpt lat="41.091398019343615" lon="-7.142088012769818">
        <ele>389.94999999999999</ele>
        <time>2025-05-03T07:45:50Z</time>
      </trkpt>
      <trkpt lat="41.091516958549619" lon="-7.142082983627915">
        <ele>389.47000000000003</ele>
        <time>2025-05-03T07:45:51Z</time>
      </trkpt>
      <trkpt lat="41.091633969917893" lon="-7.142127994447947">
        <ele>388.99000000000001</ele>
        <time>2025-05-03T07:45:52Z</time>
      </trkpt>
      <trkpt lat="41.091750981286168" lon="-7.142173005267978">
        <ele>388.50999999999999</ele>
        <time>2025-05-03T07:45:53Z</time>
      </trkpt>
      <trkpt lat="41.091865980997682" lon="-7.142218016088009">
        <ele>387.55000000000001</ele>
        <time>2025-05-03T07:45:54Z</time>
      </trkpt>
      <trkpt lat="41.092094974592328" lon="-7.142266966402531">
        <ele>385.63</ele>
        <time>2025-05-03T07:45:56Z</time>
      </trkpt>
      <trkpt lat="41.092215003445745" lon="-7.142290016636252">
        <ele>385.14999999999998</ele>
        <time>2025-05-03T07:45:57Z</time>
      </trkpt>
      <trkpt lat="41.092344000935555" lon="-7.142314994707704">
        <ele>384.18000000000001</ele>
        <time>2025-05-03T07:45:58Z</time>
      </trkpt>
      <trkpt lat="41.092438967898488" lon="-7.142273001372814">
        <ele>382.74000000000001</ele>
        <time>2025-05-03T07:45:59Z</time>
      </trkpt>
      <trkpt lat="41.09254902228713" lon="-7.142216004431248">
        <ele>381.77999999999997</ele>
        <time>2025-05-03T07:46:00Z</time>
      </trkpt>
      <trkpt lat="41.092642983421683" lon="-7.142115002498031">
        <ele>381.30000000000001</ele>
        <time>2025-05-03T07:46:01Z</time>
      </trkpt>
      <trkpt lat="41.092736022546887" lon="-7.142015006393194">
        <ele>380.33999999999997</ele>
        <time>2025-05-03T07:46:02Z</time>
      </trkpt>
      <trkpt lat="41.092827972024679" lon="-7.141912998631597">
        <ele>379.38</ele>
        <time>2025-05-03T07:46:03Z</time>
      </trkpt>
      <trkpt lat="41.09334203414619" lon="-7.141236998140812">
        <ele>375.52999999999997</ele>
        <time>2025-05-03T07:46:09Z</time>
      </trkpt>
      <trkpt lat="41.093447981402278" lon="-7.141150999814272">
        <ele>375.05000000000001</ele>
        <time>2025-05-03T07:46:10Z</time>
      </trkpt>
      <trkpt lat="41.093555018305779" lon="-7.141063995659351">
        <ele>374.56999999999999</ele>
        <time>2025-05-03T07:46:11Z</time>
      </trkpt>
      <trkpt lat="41.093662977218628" lon="-7.140981014817953">
        <ele>373.61000000000001</ele>
        <time>2025-05-03T07:46:12Z</time>
      </trkpt>
      <trkpt lat="41.093778982758522" lon="-7.140936003997922">
        <ele>373.13</ele>
        <time>2025-05-03T07:46:13Z</time>
      </trkpt>
      <trkpt lat="41.093893982470036" lon="-7.140891999006271">
        <ele>372.17000000000002</ele>
        <time>2025-05-03T07:46:14Z</time>
      </trkpt>
      <trkpt lat="41.094011999666691" lon="-7.140859980136156">
        <ele>371.20999999999998</ele>
        <time>2025-05-03T07:46:15Z</time>
      </trkpt>
      <trkpt lat="41.094132028520107" lon="-7.140833996236324">
        <ele>370.24000000000001</ele>
        <time>2025-05-03T07:46:16Z</time>
      </trkpt>
      <trkpt lat="41.094251973554492" lon="-7.140814969316125">
        <ele>369.27999999999997</ele>
        <time>2025-05-03T07:46:17Z</time>
      </trkpt>
      <trkpt lat="41.094962004572153" lon="-7.140942960977554">
        <ele>364.48000000000002</ele>
        <time>2025-05-03T07:46:23Z</time>
      </trkpt>
      <trkpt lat="41.095079015940428" lon="-7.140979003161192">
        <ele>363.51999999999998</ele>
        <time>2025-05-03T07:46:24Z</time>
      </trkpt>
      <trkpt lat="41.095304992049932" lon="-7.141048992052674">
        <ele>362.06999999999999</ele>
        <time>2025-05-03T07:46:26Z</time>
      </trkpt>
      <trkpt lat="41.095434995368123" lon="-7.14106198400259">
        <ele>361.58999999999997</ele>
        <time>2025-05-03T07:46:27Z</time>
      </trkpt>
      <trkpt lat="41.095434995368123" lon="-7.14106198400259">
        <ele>361.11000000000001</ele>
        <time>2025-05-03T07:46:28Z</time>
      </trkpt>
      <trkpt lat="41.09566398896277" lon="-7.141016973182559">
        <ele>360.14999999999998</ele>
        <time>2025-05-03T07:46:29Z</time>
      </trkpt>
      <trkpt lat="41.095756022259593" lon="-7.140923012048006">
        <ele>359.67000000000002</ele>
        <time>2025-05-03T07:46:30Z</time>
      </trkpt>
      <trkpt lat="41.095841014757752" lon="-7.140813041478396">
        <ele>359.19</ele>
        <time>2025-05-03T07:46:31Z</time>
      </trkpt>
      <trkpt lat="41.095927013084292" lon="-7.140701981261373">
        <ele>358.70999999999998</ele>
        <time>2025-05-03T07:46:32Z</time>
      </trkpt>
      <trkpt lat="41.096108984202147" lon="-7.14050299488008">
        <ele>357.26999999999998</ele>
        <time>2025-05-03T07:46:34Z</time>
      </trkpt>
      <trkpt lat="41.096219038590789" lon="-7.140448009595275">
        <ele>357.26999999999998</ele>
        <time>2025-05-03T07:46:35Z</time>
      </trkpt>
      <trkpt lat="41.096336971968412" lon="-7.14043702930212">
        <ele>356.79000000000002</ele>
        <time>2025-05-03T07:46:36Z</time>
      </trkpt>
      <trkpt lat="41.096452977508307" lon="-7.140465024858713">
        <ele>356.31</ele>
        <time>2025-05-03T07:46:37Z</time>
      </trkpt>
      <trkpt lat="41.096573006361723" lon="-7.140494026243687">
        <ele>355.82999999999998</ele>
        <time>2025-05-03T07:46:38Z</time>
      </trkpt>
      <trkpt lat="41.09669404104352" lon="-7.14052202180028">
        <ele>355.33999999999997</ele>
        <time>2025-05-03T07:46:39Z</time>
      </trkpt>
      <trkpt lat="41.096810968592763" lon="-7.140530990436673">
        <ele>355.33999999999997</ele>
        <time>2025-05-03T07:46:40Z</time>
      </trkpt>
      <trkpt lat="41.09693200327456" lon="-7.140525039285421">
        <ele>354.86000000000001</ele>
        <time>2025-05-03T07:46:41Z</time>
      </trkpt>
      <trkpt lat="41.097053959965706" lon="-7.140519004315138">
        <ele>354.38</ele>
        <time>2025-05-03T07:46:42Z</time>
      </trkpt>
      <trkpt lat="41.097177006304264" lon="-7.140512969344854">
        <ele>353.89999999999998</ele>
        <time>2025-05-03T07:46:43Z</time>
      </trkpt>
      <trkpt lat="41.097289994359016" lon="-7.140453960746527">
        <ele>353.42000000000002</ele>
        <time>2025-05-03T07:46:44Z</time>
      </trkpt>
      <trkpt lat="41.097418991848826" lon="-7.140377014875412">
        <ele>352.94</ele>
        <time>2025-05-03T07:46:45Z</time>
      </trkpt>
      <trkpt lat="41.097550000995398" lon="-7.140298979356885">
        <ele>352.45999999999998</ele>
        <time>2025-05-03T07:46:46Z</time>
      </trkpt>
      <trkpt lat="41.097671035677195" lon="-7.14018096216023">
        <ele>351.5</ele>
        <time>2025-05-03T07:46:47Z</time>
      </trkpt>
      <trkpt lat="41.097772037610412" lon="-7.140031009912491">
        <ele>350.54000000000002</ele>
        <time>2025-05-03T07:46:48Z</time>
      </trkpt>
      <trkpt lat="41.097867004573345" lon="-7.139888014644384">
        <ele>350.06</ele>
        <time>2025-05-03T07:46:49Z</time>
      </trkpt>
      <trkpt lat="41.097887037321925" lon="-7.139705959707499">
        <ele>349.10000000000002</ele>
        <time>2025-05-03T07:46:50Z</time>
      </trkpt>
      <trkpt lat="41.097896005958319" lon="-7.139519965276122">
        <ele>348.62</ele>
        <time>2025-05-03T07:46:51Z</time>
      </trkpt>
      <trkpt lat="41.097906986251473" lon="-7.139325002208352">
        <ele>347.64999999999998</ele>
        <time>2025-05-03T07:46:52Z</time>
      </trkpt>
      <trkpt lat="41.097922995686531" lon="-7.13912702165544">
        <ele>347.17000000000002</ele>
        <time>2025-05-03T07:46:53Z</time>
      </trkpt>
      <trkpt lat="41.097939005121589" lon="-7.138922000303865">
        <ele>346.69</ele>
        <time>2025-05-03T07:46:54Z</time>
      </trkpt>
      <trkpt lat="41.097975969314575" lon="-7.13871899060905">
        <ele>346.20999999999998</ele>
        <time>2025-05-03T07:46:55Z</time>
      </trkpt>
      <trkpt lat="41.098132040351629" lon="-7.138092024251819">
        <ele>342.85000000000002</ele>
        <time>2025-05-03T07:46:58Z</time>
      </trkpt>
      <trkpt lat="41.098180990666151" lon="-7.137914998456836">
        <ele>341.88999999999999</ele>
        <time>2025-05-03T07:46:59Z</time>
      </trkpt>
      <trkpt lat="41.098282998427749" lon="-7.137781977653503">
        <ele>340.92000000000002</ele>
        <time>2025-05-03T07:47:00Z</time>
      </trkpt>
      <trkpt lat="41.09839498065412" lon="-7.137636970728636">
        <ele>339.95999999999998</ele>
        <time>2025-05-03T07:47:01Z</time>
      </trkpt>
      <trkpt lat="41.098524983972311" lon="-7.137579973787069">
        <ele>339</ele>
        <time>2025-05-03T07:47:02Z</time>
      </trkpt>
      <trkpt lat="41.098681977018714" lon="-7.137547032907605">
        <ele>338.04000000000002</ele>
        <time>2025-05-03T07:47:03Z</time>
      </trkpt>
      <trkpt lat="41.098852967843413" lon="-7.13753798045218">
        <ele>337.56</ele>
        <time>2025-05-03T07:47:04Z</time>
      </trkpt>
      <trkpt lat="41.10017797909677" lon="-7.137614004313946">
        <ele>334.19999999999999</ele>
        <time>2025-05-03T07:47:12Z</time>
      </trkpt>
      <trkpt lat="41.100343018770218" lon="-7.137602018192411">
        <ele>333.70999999999998</ele>
        <time>2025-05-03T07:47:13Z</time>
      </trkpt>
      <trkpt lat="41.100495988503098" lon="-7.13758097961545">
        <ele>333.23000000000002</ele>
        <time>2025-05-03T07:47:14Z</time>
      </trkpt>
      <trkpt lat="41.100639989599586" lon="-7.137533035129309">
        <ele>332.75</ele>
        <time>2025-05-03T07:47:15Z</time>
      </trkpt>
      <trkpt lat="41.100770998746157" lon="-7.137466985732317">
        <ele>332.26999999999998</ele>
        <time>2025-05-03T07:47:16Z</time>
      </trkpt>
      <trkpt lat="41.100926985964179" lon="-7.137358020991087">
        <ele>331.79000000000002</ele>
        <time>2025-05-03T07:47:17Z</time>
      </trkpt>
      <trkpt lat="41.101022958755493" lon="-7.137242015451193">
        <ele>330.82999999999998</ele>
        <time>2025-05-03T07:47:18Z</time>
      </trkpt>
      <trkpt lat="41.101139970123768" lon="-7.137101031839848">
        <ele>330.35000000000002</ele>
        <time>2025-05-03T07:47:19Z</time>
      </trkpt>
      <trkpt lat="41.102262977510691" lon="-7.136199977248907">
        <ele>326.99000000000001</ele>
        <time>2025-05-03T07:47:27Z</time>
      </trkpt>
      <trkpt lat="41.103208037093282" lon="-7.135634031146765">
        <ele>322.18000000000001</ele>
        <time>2025-05-03T07:47:33Z</time>
      </trkpt>
      <trkpt lat="41.103329993784428" lon="-7.135519031435251">
        <ele>321.69999999999999</ele>
        <time>2025-05-03T07:47:34Z</time>
      </trkpt>
      <trkpt lat="41.103438958525658" lon="-7.135381987318397">
        <ele>321.22000000000003</ele>
        <time>2025-05-03T07:47:35Z</time>
      </trkpt>
      <trkpt lat="41.103530991822481" lon="-7.135249972343445">
        <ele>320.74000000000001</ele>
        <time>2025-05-03T07:47:36Z</time>
      </trkpt>
      <trkpt lat="41.103583965450525" lon="-7.135060038417578">
        <ele>319.77999999999997</ele>
        <time>2025-05-03T07:47:37Z</time>
      </trkpt>
      <trkpt lat="41.103638028725982" lon="-7.13487102650106">
        <ele>319.30000000000001</ele>
        <time>2025-05-03T07:47:38Z</time>
      </trkpt>
      <trkpt lat="41.103688990697265" lon="-7.134687965735793">
        <ele>318.81</ele>
        <time>2025-05-03T07:47:39Z</time>
      </trkpt>
      <trkpt lat="41.103739030659199" lon="-7.134511023759842">
        <ele>318.81</ele>
        <time>2025-05-03T07:47:40Z</time>
      </trkpt>
      <trkpt lat="41.103831985965371" lon="-7.13437800295651">
        <ele>318.81</ele>
        <time>2025-05-03T07:47:41Z</time>
      </trkpt>
      <trkpt lat="41.103955032303929" lon="-7.13427197188139">
        <ele>318.32999999999998</ele>
        <time>2025-05-03T07:47:42Z</time>
      </trkpt>
      <trkpt lat="41.1040860414505" lon="-7.134172981604934">
        <ele>318.32999999999998</ele>
        <time>2025-05-03T07:47:43Z</time>
      </trkpt>
      <trkpt lat="41.104239011183381" lon="-7.134113973006606">
        <ele>317.85000000000002</ele>
        <time>2025-05-03T07:47:44Z</time>
      </trkpt>
      <trkpt lat="41.104398015886545" lon="-7.134053036570549">
        <ele>317.37</ele>
        <time>2025-05-03T07:47:45Z</time>
      </trkpt>
      <trkpt lat="41.105304015800357" lon="-7.133538974449039">
        <ele>313.05000000000001</ele>
        <time>2025-05-03T07:47:51Z</time>
      </trkpt>
      <trkpt lat="41.105424966663122" lon="-7.13341198861599">
        <ele>312.08999999999997</ele>
        <time>2025-05-03T07:47:52Z</time>
      </trkpt>
      <trkpt lat="41.106620980426669" lon="-7.131954040378332">
        <ele>303.43000000000001</ele>
        <time>2025-05-03T07:48:01Z</time>
      </trkpt>
      <trkpt lat="41.107435030862689" lon="-7.130830027163029">
        <ele>296.22000000000003</ele>
        <time>2025-05-03T07:48:08Z</time>
      </trkpt>
      <trkpt lat="41.107498984783888" lon="-7.130670016631484">
        <ele>295.25999999999999</ele>
        <time>2025-05-03T07:48:09Z</time>
      </trkpt>
      <trkpt lat="41.107536032795906" lon="-7.130482010543346">
        <ele>294.30000000000001</ele>
        <time>2025-05-03T07:48:10Z</time>
      </trkpt>
      <trkpt lat="41.107536032795906" lon="-7.130277995020151">
        <ele>293.33999999999997</ele>
        <time>2025-05-03T07:48:11Z</time>
      </trkpt>
      <trkpt lat="41.107513988390565" lon="-7.130058975890279">
        <ele>292.86000000000001</ele>
        <time>2025-05-03T07:48:12Z</time>
      </trkpt>
      <trkpt lat="41.107486998662353" lon="-7.129840962588787">
        <ele>291.42000000000002</ele>
        <time>2025-05-03T07:48:13Z</time>
      </trkpt>
      <trkpt lat="41.10748196952045" lon="-7.129632001742721">
        <ele>290.45999999999998</ele>
        <time>2025-05-03T07:48:14Z</time>
      </trkpt>
      <trkpt lat="41.107508037239313" lon="-7.129429997876287">
        <ele>289.97000000000003</ele>
        <time>2025-05-03T07:48:15Z</time>
      </trkpt>
      <trkpt lat="41.107572996988893" lon="-7.129248026758432">
        <ele>289.00999999999999</ele>
        <time>2025-05-03T07:48:16Z</time>
      </trkpt>
      <trkpt lat="41.107656983658671" lon="-7.129080975428224">
        <ele>287.56999999999999</ele>
        <time>2025-05-03T07:48:17Z</time>
      </trkpt>
      <trkpt lat="41.107777012512088" lon="-7.128947032615542">
        <ele>286.61000000000001</ele>
        <time>2025-05-03T07:48:18Z</time>
      </trkpt>
      <trkpt lat="41.107913972809911" lon="-7.128843013197184">
        <ele>285.17000000000002</ele>
        <time>2025-05-03T07:48:19Z</time>
      </trkpt>
      <trkpt lat="41.108065014705062" lon="-7.12874997407198">
        <ele>284.20999999999998</ele>
        <time>2025-05-03T07:48:20Z</time>
      </trkpt>
      <trkpt lat="41.108236005529761" lon="-7.128697000443935">
        <ele>283.25</ele>
        <time>2025-05-03T07:48:21Z</time>
      </trkpt>
      <trkpt lat="41.108409008011222" lon="-7.128636986017227">
        <ele>282.27999999999997</ele>
        <time>2025-05-03T07:48:22Z</time>
      </trkpt>
      <trkpt lat="41.109266979619861" lon="-7.128391982987523">
        <ele>277.48000000000002</ele>
        <time>2025-05-03T07:48:27Z</time>
      </trkpt>
      <trkpt lat="41.10941500402987" lon="-7.128445040434599">
        <ele>276.51999999999998</ele>
        <time>2025-05-03T07:48:28Z</time>
      </trkpt>
      <trkpt lat="41.109555987641215" lon="-7.128531038761139">
        <ele>275.56</ele>
        <time>2025-05-03T07:48:29Z</time>
      </trkpt>
      <trkpt lat="41.109555987641215" lon="-7.128531038761139">
        <ele>274.58999999999997</ele>
        <time>2025-05-03T07:48:30Z</time>
      </trkpt>
      <trkpt lat="41.109834015369415" lon="-7.128737987950444">
        <ele>274.11000000000001</ele>
        <time>2025-05-03T07:48:31Z</time>
      </trkpt>
      <trkpt lat="41.109972987323999" lon="-7.128849970176816">
        <ele>273.14999999999998</ele>
        <time>2025-05-03T07:48:32Z</time>
      </trkpt>
      <trkpt lat="41.110121011734009" lon="-7.128940997645259">
        <ele>272.67000000000002</ele>
        <time>2025-05-03T07:48:33Z</time>
      </trkpt>
      <trkpt lat="41.110282028093934" lon="-7.128990031778812">
        <ele>272.19</ele>
        <time>2025-05-03T07:48:34Z</time>
      </trkpt>
      <trkpt lat="41.110451007261872" lon="-7.128979973495007">
        <ele>271.23000000000002</ele>
        <time>2025-05-03T07:48:35Z</time>
      </trkpt>
      <trkpt lat="41.110620992258191" lon="-7.128971004858613">
        <ele>270.75</ele>
        <time>2025-05-03T07:48:36Z</time>
      </trkpt>
      <trkpt lat="41.110776979476213" lon="-7.12892197072506">
        <ele>269.79000000000002</ele>
        <time>2025-05-03T07:48:37Z</time>
      </trkpt>
      <trkpt lat="41.110931960865855" lon="-7.128854999318719">
        <ele>269.31</ele>
        <time>2025-05-03T07:48:38Z</time>
      </trkpt>
      <trkpt lat="41.11109297722578" lon="-7.128787022083998">
        <ele>268.82999999999998</ele>
        <time>2025-05-03T07:48:39Z</time>
      </trkpt>
      <trkpt lat="41.11126204021275" lon="-7.128714015707374">
        <ele>267.86000000000001</ele>
        <time>2025-05-03T07:48:40Z</time>
      </trkpt>
      <trkpt lat="41.11143403686583" lon="-7.12864100933075">
        <ele>266.89999999999998</ele>
        <time>2025-05-03T07:48:41Z</time>
      </trkpt>
      <trkpt lat="41.111607039347291" lon="-7.128565991297364">
        <ele>266.42000000000002</ele>
        <time>2025-05-03T07:48:42Z</time>
      </trkpt>
      <trkpt lat="41.111943991854787" lon="-7.128400029614568">
        <ele>264.5</ele>
        <time>2025-05-03T07:48:44Z</time>
      </trkpt>
      <trkpt lat="41.112108025699854" lon="-7.128282012417913">
        <ele>264.01999999999998</ele>
        <time>2025-05-03T07:48:45Z</time>
      </trkpt>
      <trkpt lat="41.112256972119212" lon="-7.128173969686031">
        <ele>263.06</ele>
        <time>2025-05-03T07:48:46Z</time>
      </trkpt>
      <trkpt lat="41.112430980429053" lon="-7.128093000501394">
        <ele>262.57999999999998</ele>
        <time>2025-05-03T07:48:47Z</time>
      </trkpt>
      <trkpt lat="41.112598031759262" lon="-7.128015970811248">
        <ele>261.62</ele>
        <time>2025-05-03T07:48:48Z</time>
      </trkpt>
      <trkpt lat="41.112768016755581" lon="-7.127937013283372">
        <ele>260.64999999999998</ele>
        <time>2025-05-03T07:48:49Z</time>
      </trkpt>
      <trkpt lat="41.112935990095139" lon="-7.127857971936464">
        <ele>259.69</ele>
        <time>2025-05-03T07:48:50Z</time>
      </trkpt>
      <trkpt lat="41.113590029999614" lon="-7.12743703275919">
        <ele>255.84999999999999</ele>
        <time>2025-05-03T07:48:54Z</time>
      </trkpt>
      <trkpt lat="41.113907033577561" lon="-7.127199992537499">
        <ele>253.93000000000001</ele>
        <time>2025-05-03T07:48:56Z</time>
      </trkpt>
      <trkpt lat="41.114066038280725" lon="-7.127103013917804">
        <ele>252.96000000000001</ele>
        <time>2025-05-03T07:48:57Z</time>
      </trkpt>
      <trkpt lat="41.114839017391205" lon="-7.126633962616324">
        <ele>249.12</ele>
        <time>2025-05-03T07:49:02Z</time>
      </trkpt>
      <trkpt lat="41.114970026537776" lon="-7.126535978168249">
        <ele>248.16</ele>
        <time>2025-05-03T07:49:03Z</time>
      </trkpt>
      <trkpt lat="41.115089971572161" lon="-7.126403963193297">
        <ele>247.19999999999999</ele>
        <time>2025-05-03T07:49:04Z</time>
      </trkpt>
      <trkpt lat="41.115188039839268" lon="-7.12623699568212">
        <ele>246.22999999999999</ele>
        <time>2025-05-03T07:49:05Z</time>
      </trkpt>
      <trkpt lat="41.115273032337427" lon="-7.126048989593983">
        <ele>245.27000000000001</ele>
        <time>2025-05-03T07:49:06Z</time>
      </trkpt>
      <trkpt lat="41.115355007350445" lon="-7.125858971849084">
        <ele>244.31</ele>
        <time>2025-05-03T07:49:07Z</time>
      </trkpt>
      <trkpt lat="41.115512000396848" lon="-7.125492012128234">
        <ele>243.34999999999999</ele>
        <time>2025-05-03T07:49:09Z</time>
      </trkpt>
      <trkpt lat="41.115616019815207" lon="-7.125351028516889">
        <ele>242.38999999999999</ele>
        <time>2025-05-03T07:49:10Z</time>
      </trkpt>
      <trkpt lat="41.115735964849591" lon="-7.125232005491853">
        <ele>241.91</ele>
        <time>2025-05-03T07:49:11Z</time>
      </trkpt>
      <trkpt lat="41.115867979824543" lon="-7.125136032700539">
        <ele>241.43000000000001</ele>
        <time>2025-05-03T07:49:12Z</time>
      </trkpt>
      <trkpt lat="41.116022039204836" lon="-7.12509797886014">
        <ele>240.47</ele>
        <time>2025-05-03T07:49:13Z</time>
      </trkpt>
      <trkpt lat="41.116172997280955" lon="-7.125065037980676">
        <ele>239.50999999999999</ele>
        <time>2025-05-03T07:49:14Z</time>
      </trkpt>
      <trkpt lat="41.116326972842216" lon="-7.125099990516901">
        <ele>239.02000000000001</ele>
        <time>2025-05-03T07:49:15Z</time>
      </trkpt>
      <trkpt lat="41.116466028615832" lon="-7.125197974964976">
        <ele>238.06</ele>
        <time>2025-05-03T07:49:16Z</time>
      </trkpt>
      <trkpt lat="41.116610029712319" lon="-7.125318003818393">
        <ele>237.58000000000001</ele>
        <time>2025-05-03T07:49:17Z</time>
      </trkpt>
      <trkpt lat="41.116750007495284" lon="-7.125449012964964">
        <ele>236.62</ele>
        <time>2025-05-03T07:49:18Z</time>
      </trkpt>
      <trkpt lat="41.11729902215302" lon="-7.125963997095823">
        <ele>233.25999999999999</ele>
        <time>2025-05-03T07:49:22Z</time>
      </trkpt>
      <trkpt lat="41.117397006601095" lon="-7.126146974042058">
        <ele>232.30000000000001</ele>
        <time>2025-05-03T07:49:23Z</time>
      </trkpt>
      <trkpt lat="41.117469007149339" lon="-7.126341015100479">
        <ele>231.33000000000001</ele>
        <time>2025-05-03T07:49:24Z</time>
      </trkpt>
      <trkpt lat="41.117512006312609" lon="-7.126559028401971">
        <ele>230.37</ele>
        <time>2025-05-03T07:49:25Z</time>
      </trkpt>
      <trkpt lat="41.117544025182724" lon="-7.126778969541192">
        <ele>229.41</ele>
        <time>2025-05-03T07:49:26Z</time>
      </trkpt>
      <trkpt lat="41.117562968283892" lon="-7.127011986449361">
        <ele>227.97</ele>
        <time>2025-05-03T07:49:27Z</time>
      </trkpt>
      <trkpt lat="41.117581995204091" lon="-7.127249026671052">
        <ele>227.00999999999999</ele>
        <time>2025-05-03T07:49:28Z</time>
      </trkpt>
      <trkpt lat="41.117688026279211" lon="-7.128140022978187">
        <ele>223.63999999999999</ele>
        <time>2025-05-03T07:49:32Z</time>
      </trkpt>
      <trkpt lat="41.117771007120609" lon="-7.128313025459647">
        <ele>223.16</ele>
        <time>2025-05-03T07:49:33Z</time>
      </trkpt>
      <trkpt lat="41.117886006832123" lon="-7.128457026556134">
        <ele>222.19999999999999</ele>
        <time>2025-05-03T07:49:34Z</time>
      </trkpt>
      <trkpt lat="41.118007963523269" lon="-7.128592981025577">
        <ele>221.72</ele>
        <time>2025-05-03T07:49:35Z</time>
      </trkpt>
      <trkpt lat="41.118157999590039" lon="-7.128667999058962">
        <ele>220.75999999999999</ele>
        <time>2025-05-03T07:49:36Z</time>
      </trkpt>
      <trkpt lat="41.11831096932292" lon="-7.128735976293683">
        <ele>220.28</ele>
        <time>2025-05-03T07:49:37Z</time>
      </trkpt>
      <trkpt lat="41.11848003230989" lon="-7.128761038184166">
        <ele>219.31999999999999</ele>
        <time>2025-05-03T07:49:38Z</time>
      </trkpt>
      <trkpt lat="41.119809988886118" lon="-7.128924988210201">
        <ele>215.47</ele>
        <time>2025-05-03T07:49:46Z</time>
      </trkpt>
      <trkpt lat="41.119972011074424" lon="-7.128881989046931">
        <ele>215.47</ele>
        <time>2025-05-03T07:49:47Z</time>
      </trkpt>
      <trkpt lat="41.120131015777588" lon="-7.128839995712042">
        <ele>215.47</ele>
        <time>2025-05-03T07:49:48Z</time>
      </trkpt>
      <trkpt lat="41.120226988568902" lon="-7.128723990172148">
        <ele>215.47</ele>
        <time>2025-05-03T07:49:49Z</time>
      </trkpt>
      <trkpt lat="41.120339976623654" lon="-7.128587029874325">
        <ele>215.47</ele>
        <time>2025-05-03T07:49:50Z</time>
      </trkpt>
      <trkpt lat="41.120442990213633" lon="-7.128436993807554">
        <ele>215.47</ele>
        <time>2025-05-03T07:49:51Z</time>
      </trkpt>
      <trkpt lat="41.12050099298358" lon="-7.128248987719417">
        <ele>215.47</ele>
        <time>2025-05-03T07:49:52Z</time>
      </trkpt>
      <trkpt lat="41.120561007410288" lon="-7.128054024651647">
        <ele>215.47</ele>
        <time>2025-05-03T07:49:53Z</time>
      </trkpt>
      <trkpt lat="41.120622027665377" lon="-7.127855960279703">
        <ele>215.47</ele>
        <time>2025-05-03T07:49:54Z</time>
      </trkpt>
      <trkpt lat="41.120683969929814" lon="-7.127656973898411">
        <ele>215.94999999999999</ele>
        <time>2025-05-03T07:49:55Z</time>
      </trkpt>
      <trkpt lat="41.120807016268373" lon="-7.127254977822304">
        <ele>215.94999999999999</ele>
        <time>2025-05-03T07:49:57Z</time>
      </trkpt>
      <trkpt lat="41.120875999331474" lon="-7.127060014754534">
        <ele>216.43000000000001</ele>
        <time>2025-05-03T07:49:58Z</time>
      </trkpt>
      <trkpt lat="41.120988987386227" lon="-7.126905033364892">
        <ele>216.43000000000001</ele>
        <time>2025-05-03T07:49:59Z</time>
      </trkpt>
      <trkpt lat="41.121097030118108" lon="-7.126758014783263">
        <ele>216.91</ele>
        <time>2025-05-03T07:50:00Z</time>
      </trkpt>
      <trkpt lat="41.121247988194227" lon="-7.12664301507175">
        <ele>216.91</ele>
        <time>2025-05-03T07:50:01Z</time>
      </trkpt>
      <trkpt lat="41.121397018432617" lon="-7.126529021188617">
        <ele>216.91</ele>
        <time>2025-05-03T07:50:02Z</time>
      </trkpt>
      <trkpt lat="41.12155300565064" lon="-7.126444028690457">
        <ele>216.43000000000001</ele>
        <time>2025-05-03T07:50:03Z</time>
      </trkpt>
      <trkpt lat="41.121741011738777" lon="-7.126372028142214">
        <ele>216.43000000000001</ele>
        <time>2025-05-03T07:50:04Z</time>
      </trkpt>
      <trkpt lat="41.122539974749088" lon="-7.126024011522532">
        <ele>212.59</ele>
        <time>2025-05-03T07:50:09Z</time>
      </trkpt>
      <trkpt lat="41.12269202247262" lon="-7.125900965183973">
        <ele>211.63</ele>
        <time>2025-05-03T07:50:10Z</time>
      </trkpt>
      <trkpt lat="41.122841974720359" lon="-7.125780014321208">
        <ele>210.66999999999999</ele>
        <time>2025-05-03T07:50:11Z</time>
      </trkpt>
      <trkpt lat="41.123264003545046" lon="-7.125424034893513">
        <ele>208.25999999999999</ele>
        <time>2025-05-03T07:50:14Z</time>
      </trkpt>
      <trkpt lat="41.123412027955055" lon="-7.125337030738592">
        <ele>207.30000000000001</ele>
        <time>2025-05-03T07:50:15Z</time>
      </trkpt>
      <trkpt lat="41.123586036264896" lon="-7.125235022976995">
        <ele>206.81999999999999</ele>
        <time>2025-05-03T07:50:16Z</time>
      </trkpt>
      <trkpt lat="41.125239031389356" lon="-7.124579977244139">
        <ele>197.69</ele>
        <time>2025-05-03T07:50:26Z</time>
      </trkpt>
      <trkpt lat="41.126267993822694" lon="-7.124161971732974">
        <ele>190.96000000000001</ele>
        <time>2025-05-03T07:50:33Z</time>
      </trkpt>
      <trkpt lat="41.126405037939548" lon="-7.12417496368289">
        <ele>189.52000000000001</ele>
        <time>2025-05-03T07:50:34Z</time>
      </trkpt>
      <trkpt lat="41.12653998658061" lon="-7.124188961461186">
        <ele>188.56</ele>
        <time>2025-05-03T07:50:35Z</time>
      </trkpt>
      <trkpt lat="41.127325035631657" lon="-7.124250987544656">
        <ele>180.38</ele>
        <time>2025-05-03T07:50:41Z</time>
      </trkpt>
      <trkpt lat="41.127416985109448" lon="-7.124263979494572">
        <ele>179.41999999999999</ele>
        <time>2025-05-03T07:50:42Z</time>
      </trkpt>
      <trkpt lat="41.127496026456356" lon="-7.124340003356338">
        <ele>177.97999999999999</ele>
        <time>2025-05-03T07:50:43Z</time>
      </trkpt>
      <trkpt lat="41.127533996477723" lon="-7.124442011117935">
        <ele>177.5</ele>
        <time>2025-05-03T07:50:44Z</time>
      </trkpt>
      <trkpt lat="41.127533996477723" lon="-7.12453898973763">
        <ele>177.02000000000001</ele>
        <time>2025-05-03T07:50:45Z</time>
      </trkpt>
      <trkpt lat="41.12750499509275" lon="-7.124625993892551">
        <ele>176.53999999999999</ele>
        <time>2025-05-03T07:50:46Z</time>
      </trkpt>
      <trkpt lat="41.127454033121467" lon="-7.124687014147639">
        <ele>176.53999999999999</ele>
        <time>2025-05-03T07:50:47Z</time>
      </trkpt>
      <trkpt lat="41.127381026744843" lon="-7.124720038846135">
        <ele>176.06</ele>
        <time>2025-05-03T07:50:48Z</time>
      </trkpt>
      <trkpt lat="41.127294022589922" lon="-7.124736970290542">
        <ele>175.58000000000001</ele>
        <time>2025-05-03T07:50:49Z</time>
      </trkpt>
      <trkpt lat="41.127202995121479" lon="-7.12479698471725">
        <ele>175.09999999999999</ele>
        <time>2025-05-03T07:50:50Z</time>
      </trkpt>
      <trkpt lat="41.127104004845023" lon="-7.124864039942622">
        <ele>174.62</ele>
        <time>2025-05-03T07:50:51Z</time>
      </trkpt>
      <trkpt lat="41.126995962113142" lon="-7.124936962500215">
        <ele>174.13999999999999</ele>
        <time>2025-05-03T07:50:52Z</time>
      </trkpt>
      <trkpt lat="41.126898983493447" lon="-7.125049028545618">
        <ele>173.66</ele>
        <time>2025-05-03T07:50:53Z</time>
      </trkpt>
      <trkpt lat="41.126826982945204" lon="-7.125191017985344">
        <ele>173.16999999999999</ele>
        <time>2025-05-03T07:50:54Z</time>
      </trkpt>
      <trkpt lat="41.126777026802301" lon="-7.125347005203366">
        <ele>172.21000000000001</ele>
        <time>2025-05-03T07:50:55Z</time>
      </trkpt>
      <trkpt lat="41.12675397656858" lon="-7.125522019341588">
        <ele>171.25</ele>
        <time>2025-05-03T07:50:56Z</time>
      </trkpt>
      <trkpt lat="41.126755988225341" lon="-7.125722011551261">
        <ele>170.77000000000001</ele>
        <time>2025-05-03T07:50:57Z</time>
      </trkpt>
      <trkpt lat="41.126788007095456" lon="-7.125923009589315">
        <ele>169.81</ele>
        <time>2025-05-03T07:50:58Z</time>
      </trkpt>
      <trkpt lat="41.126820025965571" lon="-7.126132976263762">
        <ele>168.84999999999999</ele>
        <time>2025-05-03T07:50:59Z</time>
      </trkpt>
      <trkpt lat="41.126970984041691" lon="-7.128095012158155">
        <ele>160.68000000000001</ele>
        <time>2025-05-03T07:51:07Z</time>
      </trkpt>
      <trkpt lat="41.126949023455381" lon="-7.128353007137775">
        <ele>159.72</ele>
        <time>2025-05-03T07:51:08Z</time>
      </trkpt>
      <trkpt lat="41.126890014857054" lon="-7.128611002117395">
        <ele>158.27000000000001</ele>
        <time>2025-05-03T07:51:09Z</time>
      </trkpt>
      <trkpt lat="41.126830000430346" lon="-7.128873020410538">
        <ele>156.83000000000001</ele>
        <time>2025-05-03T07:51:10Z</time>
      </trkpt>
      <trkpt lat="41.126762023195624" lon="-7.129126992076635">
        <ele>155.38999999999999</ele>
        <time>2025-05-03T07:51:11Z</time>
      </trkpt>
      <trkpt lat="41.126664960756898" lon="-7.129367971792817">
        <ele>154.43000000000001</ele>
        <time>2025-05-03T07:51:12Z</time>
      </trkpt>
      <trkpt lat="41.125454027205706" lon="-7.132073985412717">
        <ele>141.44999999999999</ele>
        <time>2025-05-03T07:51:23Z</time>
      </trkpt>
      <trkpt lat="41.124427998438478" lon="-7.133128009736538">
        <ele>138.09</ele>
        <time>2025-05-03T07:51:29Z</time>
      </trkpt>
      <trkpt lat="41.122642988339067" lon="-7.133881039917469">
        <ele>139.05000000000001</ele>
        <time>2025-05-03T07:51:38Z</time>
      </trkpt>
      <trkpt lat="41.120049962773919" lon="-7.134596016258001">
        <ele>145.30000000000001</ele>
        <time>2025-05-03T07:51:51Z</time>
      </trkpt>
      <trkpt lat="41.117547964677215" lon="-7.134900027886033">
        <ele>153.94999999999999</ele>
        <time>2025-05-03T07:52:03Z</time>
      </trkpt>
      <trkpt lat="41.115053007379174" lon="-7.134947972372174">
        <ele>158.27000000000001</ele>
        <time>2025-05-03T07:52:15Z</time>
      </trkpt>
      <trkpt lat="41.112152030691504" lon="-7.135041011497378">
        <ele>165.47999999999999</ele>
        <time>2025-05-03T07:52:29Z</time>
      </trkpt>
      <trkpt lat="41.110453018918633" lon="-7.135558007284999">
        <ele>169.33000000000001</ele>
        <time>2025-05-03T07:52:37Z</time>
      </trkpt>
      <trkpt lat="41.108914017677307" lon="-7.136695012450218">
        <ele>170.77000000000001</ele>
        <time>2025-05-03T07:52:45Z</time>
      </trkpt>
      <trkpt lat="41.107484987005591" lon="-7.138523021712899">
        <ele>172.21000000000001</ele>
        <time>2025-05-03T07:52:54Z</time>
      </trkpt>
      <trkpt lat="41.105564022436738" lon="-7.141231968998909">
        <ele>177.97999999999999</ele>
        <time>2025-05-03T07:53:07Z</time>
      </trkpt>
      <trkpt lat="41.103888982906938" lon="-7.142621017992497">
        <ele>183.75</ele>
        <time>2025-05-03T07:53:16Z</time>
      </trkpt>
      <trkpt lat="41.100984988734126" lon="-7.144399993121624">
        <ele>191.91999999999999</ele>
        <time>2025-05-03T07:53:30Z</time>
      </trkpt>
      <trkpt lat="41.098462035879493" lon="-7.145688040181994">
        <ele>199.13</ele>
        <time>2025-05-03T07:53:42Z</time>
      </trkpt>
      <trkpt lat="41.096104960888624" lon="-7.146519022062421">
        <ele>203.46000000000001</ele>
        <time>2025-05-03T07:53:53Z</time>
      </trkpt>
      <trkpt lat="41.094594039022923" lon="-7.14767798781395">
        <ele>207.30000000000001</ele>
        <time>2025-05-03T07:54:01Z</time>
      </trkpt>
      <trkpt lat="41.092862002551556" lon="-7.149269040673971">
        <ele>214.50999999999999</ele>
        <time>2025-05-03T07:54:11Z</time>
      </trkpt>
      <trkpt lat="41.091146981343627" lon="-7.150193983688951">
        <ele>221.72</ele>
        <time>2025-05-03T07:54:20Z</time>
      </trkpt>
      <trkpt lat="41.08829302713275" lon="-7.151665007695556">
        <ele>230.84999999999999</ele>
        <time>2025-05-03T07:54:35Z</time>
      </trkpt>
      <trkpt lat="41.08576001599431" lon="-7.152776028960943">
        <ele>239.02000000000001</ele>
        <time>2025-05-03T07:54:48Z</time>
      </trkpt>
      <trkpt lat="41.083631012588739" lon="-7.153123961761594">
        <ele>245.75</ele>
        <time>2025-05-03T07:54:58Z</time>
      </trkpt>
      <trkpt lat="41.082041971385479" lon="-7.15375897474587">
        <ele>251.03999999999999</ele>
        <time>2025-05-03T07:55:06Z</time>
      </trkpt>
      <trkpt lat="41.080490984022617" lon="-7.155010979622603">
        <ele>257.29000000000002</ele>
        <time>2025-05-03T07:55:15Z</time>
      </trkpt>
      <trkpt lat="41.078559961169958" lon="-7.156832031905651">
        <ele>265.94</ele>
        <time>2025-05-03T07:55:27Z</time>
      </trkpt>
      <trkpt lat="41.076887017115951" lon="-7.158185038715601">
        <ele>271.70999999999998</ele>
        <time>2025-05-03T07:55:37Z</time>
      </trkpt>
      <trkpt lat="41.074948031455278" lon="-7.159075029194355">
        <ele>278.92000000000002</ele>
        <time>2025-05-03T07:55:47Z</time>
      </trkpt>
      <trkpt lat="41.07190296985209" lon="-7.159985974431038">
        <ele>289.00999999999999</ele>
        <time>2025-05-03T07:56:02Z</time>
      </trkpt>
      <trkpt lat="41.06940901838243" lon="-7.160731963813305">
        <ele>305.36000000000001</ele>
        <time>2025-05-03T07:56:15Z</time>
      </trkpt>
      <trkpt lat="41.066842982545495" lon="-7.161890007555485">
        <ele>322.66000000000003</ele>
        <time>2025-05-03T07:56:29Z</time>
      </trkpt>
      <trkpt lat="41.064712973311543" lon="-7.163171013817191">
        <ele>339.95999999999998</ele>
        <time>2025-05-03T07:56:41Z</time>
      </trkpt>
      <trkpt lat="41.062425971031189" lon="-7.164518991485238">
        <ele>358.70999999999998</ele>
        <time>2025-05-03T07:56:54Z</time>
      </trkpt>
      <trkpt lat="41.05999899096787" lon="-7.165454998612404">
        <ele>375.05000000000001</ele>
        <time>2025-05-03T07:57:07Z</time>
      </trkpt>
      <trkpt lat="41.058573983609676" lon="-7.166484966874123">
        <ele>383.69999999999999</ele>
        <time>2025-05-03T07:57:16Z</time>
      </trkpt>
      <trkpt lat="41.056513041257858" lon="-7.168264025822282">
        <ele>393.31999999999999</ele>
        <time>2025-05-03T07:57:30Z</time>
      </trkpt>
      <trkpt lat="41.055587008595467" lon="-7.168836006894708">
        <ele>399.07999999999998</ele>
        <time>2025-05-03T07:57:38Z</time>
      </trkpt>
      <trkpt lat="41.05550997890532" lon="-7.168913036584854">
        <ele>399.56999999999999</ele>
        <time>2025-05-03T07:57:39Z</time>
      </trkpt>
      <trkpt lat="41.055436972528696" lon="-7.168986964970827">
        <ele>399.56999999999999</ele>
        <time>2025-05-03T07:57:40Z</time>
      </trkpt>
      <trkpt lat="41.05538098141551" lon="-7.169097019359469">
        <ele>400.05000000000001</ele>
        <time>2025-05-03T07:57:41Z</time>
      </trkpt>
      <trkpt lat="41.055354997515678" lon="-7.169225011020899">
        <ele>400.05000000000001</ele>
        <time>2025-05-03T07:57:42Z</time>
      </trkpt>
      <trkpt lat="41.055363966152072" lon="-7.169362977147102">
        <ele>400.52999999999997</ele>
        <time>2025-05-03T07:57:43Z</time>
      </trkpt>
      <trkpt lat="41.055363966152072" lon="-7.169532040134072">
        <ele>400.52999999999997</ele>
        <time>2025-05-03T07:57:44Z</time>
      </trkpt>
      <trkpt lat="41.055363966152072" lon="-7.169532040134072">
        <ele>400.52999999999997</ele>
        <time>2025-05-03T07:57:45Z</time>
      </trkpt>
      <trkpt lat="41.055290959775448" lon="-7.169813001528382">
        <ele>401.00999999999999</ele>
        <time>2025-05-03T07:57:46Z</time>
      </trkpt>
      <trkpt lat="41.055216025561094" lon="-7.169919032603502">
        <ele>401.49000000000001</ele>
        <time>2025-05-03T07:57:47Z</time>
      </trkpt>
      <trkpt lat="41.055134972557425" lon="-7.170035038143396">
        <ele>401.97000000000003</ele>
        <time>2025-05-03T07:57:48Z</time>
      </trkpt>
      <trkpt lat="41.055072024464607" lon="-7.170123970136046">
        <ele>402.93000000000001</ele>
        <time>2025-05-03T07:57:49Z</time>
      </trkpt>
      <trkpt lat="41.054946966469288" lon="-7.170265037566423">
        <ele>403.41000000000003</ele>
        <time>2025-05-03T07:57:50Z</time>
      </trkpt>
      <trkpt lat="41.05484495870769" lon="-7.170380959287286">
        <ele>403.88999999999999</ele>
        <time>2025-05-03T07:57:51Z</time>
      </trkpt>
      <trkpt lat="41.054744040593505" lon="-7.170498976483941">
        <ele>404.37</ele>
        <time>2025-05-03T07:57:52Z</time>
      </trkpt>
      <trkpt lat="41.054655024781823" lon="-7.170647000893951">
        <ele>404.85000000000002</ele>
        <time>2025-05-03T07:57:53Z</time>
      </trkpt>
      <trkpt lat="41.054469030350447" lon="-7.171036005020142">
        <ele>407.74000000000001</ele>
        <time>2025-05-03T07:57:56Z</time>
      </trkpt>
      <trkpt lat="41.054441034793854" lon="-7.171176988631487">
        <ele>408.69999999999999</ele>
        <time>2025-05-03T07:57:57Z</time>
      </trkpt>
      <trkpt lat="41.054424019530416" lon="-7.171328030526638">
        <ele>410.13999999999999</ele>
        <time>2025-05-03T07:57:58Z</time>
      </trkpt>
      <trkpt lat="41.054388983175159" lon="-7.171824993565679">
        <ele>413.98000000000002</ele>
        <time>2025-05-03T07:58:01Z</time>
      </trkpt>
      <trkpt lat="41.054350007325411" lon="-7.17197997495532">
        <ele>415.43000000000001</ele>
        <time>2025-05-03T07:58:02Z</time>
      </trkpt>
      <trkpt lat="41.054270965978503" lon="-7.172097992151976">
        <ele>416.38999999999999</ele>
        <time>2025-05-03T07:58:03Z</time>
      </trkpt>
      <trkpt lat="41.05417599901557" lon="-7.172164963558316">
        <ele>417.82999999999998</ele>
        <time>2025-05-03T07:58:04Z</time>
      </trkpt>
      <trkpt lat="41.054079020395875" lon="-7.172158006578684">
        <ele>418.31</ele>
        <time>2025-05-03T07:58:05Z</time>
      </trkpt>
      <trkpt lat="41.053976006805897" lon="-7.172104027122259">
        <ele>418.79000000000002</ele>
        <time>2025-05-03T07:58:06Z</time>
      </trkpt>
      <trkpt lat="41.053868969902396" lon="-7.172047030180693">
        <ele>419.26999999999998</ele>
        <time>2025-05-03T07:58:07Z</time>
      </trkpt>
      <trkpt lat="41.053763022646308" lon="-7.171991039067507">
        <ele>420.23000000000002</ele>
        <time>2025-05-03T07:58:08Z</time>
      </trkpt>
      <trkpt lat="41.053646011278033" lon="-7.171991039067507">
        <ele>421.68000000000001</ele>
        <time>2025-05-03T07:58:09Z</time>
      </trkpt>
      <trkpt lat="41.053544003516436" lon="-7.172063961625099">
        <ele>422.63999999999999</ele>
        <time>2025-05-03T07:58:10Z</time>
      </trkpt>
      <trkpt lat="41.053421963006258" lon="-7.172164041548967">
        <ele>423.60000000000002</ele>
        <time>2025-05-03T07:58:11Z</time>
      </trkpt>
      <trkpt lat="41.053283996880054" lon="-7.172275017946959">
        <ele>425.04000000000002</ele>
        <time>2025-05-03T07:58:12Z</time>
      </trkpt>
      <trkpt lat="41.052748980000615" lon="-7.172691011801362">
        <ele>429.85000000000002</ele>
        <time>2025-05-03T07:58:16Z</time>
      </trkpt>
      <trkpt lat="41.052667004987597" lon="-7.172823026776314">
        <ele>430.81</ele>
        <time>2025-05-03T07:58:17Z</time>
      </trkpt>
      <trkpt lat="41.052592992782593" lon="-7.172998040914536">
        <ele>431.76999999999998</ele>
        <time>2025-05-03T07:58:18Z</time>
      </trkpt>
      <trkpt lat="41.052560973912477" lon="-7.17320297844708">
        <ele>432.73000000000002</ele>
        <time>2025-05-03T07:58:19Z</time>
      </trkpt>
      <trkpt lat="41.052540019154549" lon="-7.173386039212346">
        <ele>433.69</ele>
        <time>2025-05-03T07:58:20Z</time>
      </trkpt>
      <trkpt lat="41.052571032196283" lon="-7.173606986179948">
        <ele>434.64999999999998</ele>
        <time>2025-05-03T07:58:21Z</time>
      </trkpt>
      <trkpt lat="41.052598021924496" lon="-7.173790968954563">
        <ele>436.10000000000002</ele>
        <time>2025-05-03T07:58:22Z</time>
      </trkpt>
      <trkpt lat="41.052688965573907" lon="-7.173926001414657">
        <ele>437.54000000000002</ele>
        <time>2025-05-03T07:58:23Z</time>
      </trkpt>
      <trkpt lat="41.052799019962549" lon="-7.174043012782931">
        <ele>438.5</ele>
        <time>2025-05-03T07:58:24Z</time>
      </trkpt>
      <trkpt lat="41.052903961390257" lon="-7.174153989180923">
        <ele>439.94</ele>
        <time>2025-05-03T07:58:25Z</time>
      </trkpt>
      <trkpt lat="41.052986020222306" lon="-7.174265971407294">
        <ele>440.89999999999998</ele>
        <time>2025-05-03T07:58:26Z</time>
      </trkpt>
      <trkpt lat="41.053007980808616" lon="-7.174403015524149">
        <ele>441.86000000000001</ele>
        <time>2025-05-03T07:58:27Z</time>
      </trkpt>
      <trkpt lat="41.053000018000603" lon="-7.174554979428649">
        <ele>442.81999999999999</ele>
        <time>2025-05-03T07:58:28Z</time>
      </trkpt>
      <trkpt lat="41.052990965545177" lon="-7.174722030758858">
        <ele>443.79000000000002</ele>
        <time>2025-05-03T07:58:29Z</time>
      </trkpt>
      <trkpt lat="41.052980991080403" lon="-7.174895033240318">
        <ele>445.23000000000002</ele>
        <time>2025-05-03T07:58:30Z</time>
      </trkpt>
      <trkpt lat="41.05297202244401" lon="-7.175064012408257">
        <ele>446.19</ele>
        <time>2025-05-03T07:58:31Z</time>
      </trkpt>
      <trkpt lat="41.05299599468708" lon="-7.175206001847982">
        <ele>447.14999999999998</ele>
        <time>2025-05-03T07:58:32Z</time>
      </trkpt>
      <trkpt lat="41.053055003285408" lon="-7.175381015986204">
        <ele>447.63</ele>
        <time>2025-05-03T07:58:33Z</time>
      </trkpt>
      <trkpt lat="41.053135972470045" lon="-7.17550297267735">
        <ele>448.58999999999997</ele>
        <time>2025-05-03T07:58:34Z</time>
      </trkpt>
      <trkpt lat="41.053135972470045" lon="-7.17550297267735">
        <ele>449.06999999999999</ele>
        <time>2025-05-03T07:58:35Z</time>
      </trkpt>
      <trkpt lat="41.053347028791904" lon="-7.175747975707054">
        <ele>450.02999999999997</ele>
        <time>2025-05-03T07:58:36Z</time>
      </trkpt>
      <trkpt lat="41.053475020453334" lon="-7.175821987912059">
        <ele>451</ele>
        <time>2025-05-03T07:58:37Z</time>
      </trkpt>
      <trkpt lat="41.053603012114763" lon="-7.175896000117064">
        <ele>451.95999999999998</ele>
        <time>2025-05-03T07:58:38Z</time>
      </trkpt>
      <trkpt lat="41.053731003776193" lon="-7.17597302980721">
        <ele>452.92000000000002</ele>
        <time>2025-05-03T07:58:39Z</time>
      </trkpt>
      <trkpt lat="41.053853966295719" lon="-7.176051987335086">
        <ele>453.39999999999998</ele>
        <time>2025-05-03T07:58:40Z</time>
      </trkpt>
      <trkpt lat="41.053953040391207" lon="-7.176168998703361">
        <ele>454.36000000000001</ele>
        <time>2025-05-03T07:58:41Z</time>
      </trkpt>
      <trkpt lat="41.05402403511107" lon="-7.176309982314706">
        <ele>454.83999999999997</ele>
        <time>2025-05-03T07:58:42Z</time>
      </trkpt>
      <trkpt lat="41.054041972383857" lon="-7.176476027816534">
        <ele>455.80000000000001</ele>
        <time>2025-05-03T07:58:43Z</time>
      </trkpt>
      <trkpt lat="41.054021017625928" lon="-7.176645006984472">
        <ele>456.75999999999999</ele>
        <time>2025-05-03T07:58:44Z</time>
      </trkpt>
      <trkpt lat="41.053945999592543" lon="-7.176795965060592">
        <ele>457.24000000000001</ele>
        <time>2025-05-03T07:58:45Z</time>
      </trkpt>
      <trkpt lat="41.053864024579525" lon="-7.176959998905659">
        <ele>458.20999999999998</ele>
        <time>2025-05-03T07:58:46Z</time>
      </trkpt>
      <trkpt lat="41.053720023483038" lon="-7.177312038838863">
        <ele>459.17000000000002</ele>
        <time>2025-05-03T07:58:48Z</time>
      </trkpt>
      <trkpt lat="41.053707031533122" lon="-7.177523011341691">
        <ele>460.13</ele>
        <time>2025-05-03T07:58:49Z</time>
      </trkpt>
      <trkpt lat="41.053706025704741" lon="-7.177715040743351">
        <ele>461.08999999999997</ele>
        <time>2025-05-03T07:58:50Z</time>
      </trkpt>
      <trkpt lat="41.053732009604573" lon="-7.17790899798274">
        <ele>462.52999999999997</ele>
        <time>2025-05-03T07:58:51Z</time>
      </trkpt>
      <trkpt lat="41.053807027637959" lon="-7.17805802822113">
        <ele>463.49000000000001</ele>
        <time>2025-05-03T07:58:52Z</time>
      </trkpt>
      <trkpt lat="41.053920015692711" lon="-7.178193982690573">
        <ele>464.93000000000001</ele>
        <time>2025-05-03T07:58:53Z</time>
      </trkpt>
      <trkpt lat="41.054041972383857" lon="-7.178342007100582">
        <ele>465.89999999999998</ele>
        <time>2025-05-03T07:58:54Z</time>
      </trkpt>
      <trkpt lat="41.054193014279008" lon="-7.178392969071865">
        <ele>466.86000000000001</ele>
        <time>2025-05-03T07:58:55Z</time>
      </trkpt>
      <trkpt lat="41.054364005103707" lon="-7.178449966013432">
        <ele>467.81999999999999</ele>
        <time>2025-05-03T07:58:56Z</time>
      </trkpt>
      <trkpt lat="41.054514041170478" lon="-7.178489025682211">
        <ele>469.25999999999999</ele>
        <time>2025-05-03T07:58:57Z</time>
      </trkpt>
      <trkpt lat="41.054833978414536" lon="-7.17857301235199">
        <ele>471.18000000000001</ele>
        <time>2025-05-03T07:58:59Z</time>
      </trkpt>
      <trkpt lat="41.054945038631558" lon="-7.178692035377026">
        <ele>472.63</ele>
        <time>2025-05-03T07:59:00Z</time>
      </trkpt>
      <trkpt lat="41.055045034736395" lon="-7.178822038695216">
        <ele>474.06999999999999</ele>
        <time>2025-05-03T07:59:01Z</time>
      </trkpt>
      <trkpt lat="41.055089961737394" lon="-7.178995041176677">
        <ele>475.50999999999999</ele>
        <time>2025-05-03T07:59:02Z</time>
      </trkpt>
      <trkpt lat="41.055115023627877" lon="-7.179179023951292">
        <ele>476.94999999999999</ele>
        <time>2025-05-03T07:59:03Z</time>
      </trkpt>
      <trkpt lat="41.0551000200212" lon="-7.179393013939261">
        <ele>477.91000000000003</ele>
        <time>2025-05-03T07:59:04Z</time>
      </trkpt>
      <trkpt lat="41.055068001151085" lon="-7.179595017805696">
        <ele>479.35000000000002</ele>
        <time>2025-05-03T07:59:05Z</time>
      </trkpt>
      <trkpt lat="41.054988959804177" lon="-7.179772965610027">
        <ele>480.31999999999999</ele>
        <time>2025-05-03T07:59:06Z</time>
      </trkpt>
      <trkpt lat="41.054878989234567" lon="-7.179952003061771">
        <ele>481.27999999999997</ele>
        <time>2025-05-03T07:59:07Z</time>
      </trkpt>
      <trkpt lat="41.054757032543421" lon="-7.180081000551581">
        <ele>482.24000000000001</ele>
        <time>2025-05-03T07:59:08Z</time>
      </trkpt>
      <trkpt lat="41.054622000083327" lon="-7.180222989991307">
        <ele>483.19999999999999</ele>
        <time>2025-05-03T07:59:09Z</time>
      </trkpt>
      <trkpt lat="41.05436903424561" lon="-7.180516021326184">
        <ele>484.63999999999999</ele>
        <time>2025-05-03T07:59:11Z</time>
      </trkpt>
      <trkpt lat="41.0542849637568" lon="-7.180667985230684">
        <ele>485.60000000000002</ele>
        <time>2025-05-03T07:59:12Z</time>
      </trkpt>
      <trkpt lat="41.054222015663981" lon="-7.180832019075751">
        <ele>486.56</ele>
        <time>2025-05-03T07:59:13Z</time>
      </trkpt>
      <trkpt lat="41.054201982915401" lon="-7.181017007678747">
        <ele>487.52999999999997</ele>
        <time>2025-05-03T07:59:14Z</time>
      </trkpt>
      <trkpt lat="41.054187985137105" lon="-7.181211970746517">
        <ele>488.49000000000001</ele>
        <time>2025-05-03T07:59:15Z</time>
      </trkpt>
      <trkpt lat="41.054174993187189" lon="-7.181398971006274">
        <ele>489.44999999999999</ele>
        <time>2025-05-03T07:59:16Z</time>
      </trkpt>
      <trkpt lat="41.054182033985853" lon="-7.181567028164864">
        <ele>489.93000000000001</ele>
        <time>2025-05-03T07:59:17Z</time>
      </trkpt>
      <trkpt lat="41.054222015663981" lon="-7.181704994291067">
        <ele>490.88999999999999</ele>
        <time>2025-05-03T07:59:18Z</time>
      </trkpt>
      <trkpt lat="41.054310025647283" lon="-7.181812031194568">
        <ele>491.37</ele>
        <time>2025-05-03T07:59:19Z</time>
      </trkpt>
      <trkpt lat="41.054384959861636" lon="-7.18190398067236">
        <ele>491.85000000000002</ele>
        <time>2025-05-03T07:59:20Z</time>
      </trkpt>
      <trkpt lat="41.054470958188176" lon="-7.182055022567511">
        <ele>492.32999999999998</ele>
        <time>2025-05-03T07:59:21Z</time>
      </trkpt>
      <trkpt lat="41.054526027292013" lon="-7.182219978421927">
        <ele>493.29000000000002</ele>
        <time>2025-05-03T07:59:22Z</time>
      </trkpt>
      <trkpt lat="41.054514041170478" lon="-7.182389963418245">
        <ele>493.76999999999998</ele>
        <time>2025-05-03T07:59:23Z</time>
      </trkpt>
      <trkpt lat="41.054486967623234" lon="-7.182561960071325">
        <ele>494.25999999999999</ele>
        <time>2025-05-03T07:59:24Z</time>
      </trkpt>
      <trkpt lat="41.054460983723402" lon="-7.182734040543437">
        <ele>495.22000000000003</ele>
        <time>2025-05-03T07:59:25Z</time>
      </trkpt>
      <trkpt lat="41.054450003430247" lon="-7.182900002226234">
        <ele>496.18000000000001</ele>
        <time>2025-05-03T07:59:26Z</time>
      </trkpt>
      <trkpt lat="41.054487973451614" lon="-7.183038974180818">
        <ele>496.66000000000003</ele>
        <time>2025-05-03T07:59:27Z</time>
      </trkpt>
      <trkpt lat="41.054557040333748" lon="-7.18314902856946">
        <ele>497.13999999999999</ele>
        <time>2025-05-03T07:59:28Z</time>
      </trkpt>
      <trkpt lat="41.054652007296681" lon="-7.183206025511026">
        <ele>497.62</ele>
        <time>2025-05-03T07:59:29Z</time>
      </trkpt>
      <trkpt lat="41.054771030321717" lon="-7.183200996369124">
        <ele>498.57999999999998</ele>
        <time>2025-05-03T07:59:30Z</time>
      </trkpt>
      <trkpt lat="41.054900027811527" lon="-7.183185992762446">
        <ele>499.06</ele>
        <time>2025-05-03T07:59:31Z</time>
      </trkpt>
      <trkpt lat="41.055045034736395" lon="-7.183163026347756">
        <ele>499.54000000000002</ele>
        <time>2025-05-03T07:59:32Z</time>
      </trkpt>
      <trkpt lat="41.055187024176121" lon="-7.183094965294004">
        <ele>500.01999999999998</ele>
        <time>2025-05-03T07:59:33Z</time>
      </trkpt>
      <trkpt lat="41.055482989177108" lon="-7.182952975854278">
        <ele>500.5</ele>
        <time>2025-05-03T07:59:35Z</time>
      </trkpt>
      <trkpt lat="41.055482989177108" lon="-7.182952975854278">
        <ele>500.5</ele>
        <time>2025-05-03T07:59:36Z</time>
      </trkpt>
      <trkpt lat="41.055781971663237" lon="-7.182901008054614">
        <ele>500.98000000000002</ele>
        <time>2025-05-03T07:59:37Z</time>
      </trkpt>
      <trkpt lat="41.055924966931343" lon="-7.182892961427569">
        <ele>501.45999999999998</ele>
        <time>2025-05-03T07:59:38Z</time>
      </trkpt>
      <trkpt lat="41.056029992178082" lon="-7.182960016652942">
        <ele>501.94999999999999</ele>
        <time>2025-05-03T07:59:39Z</time>
      </trkpt>
      <trkpt lat="41.056126970797777" lon="-7.183048026636243">
        <ele>502.43000000000001</ele>
        <time>2025-05-03T07:59:40Z</time>
      </trkpt>
      <trkpt lat="41.056206012144685" lon="-7.18319496139884">
        <ele>503.38999999999999</ele>
        <time>2025-05-03T07:59:41Z</time>
      </trkpt>
      <trkpt lat="41.056291004642844" lon="-7.183352960273624">
        <ele>504.35000000000002</ele>
        <time>2025-05-03T07:59:42Z</time>
      </trkpt>
      <trkpt lat="41.056378008797765" lon="-7.183511964976788">
        <ele>504.82999999999998</ele>
        <time>2025-05-03T07:59:43Z</time>
      </trkpt>
      <trkpt lat="41.056459983810782" lon="-7.1836650185287">
        <ele>505.79000000000002</ele>
        <time>2025-05-03T07:59:44Z</time>
      </trkpt>
      <trkpt lat="41.056536007672548" lon="-7.183804996311665">
        <ele>506.75</ele>
        <time>2025-05-03T07:59:45Z</time>
      </trkpt>
      <trkpt lat="41.056655030697584" lon="-7.183876996859908">
        <ele>507.23000000000002</ele>
        <time>2025-05-03T07:59:46Z</time>
      </trkpt>
      <trkpt lat="41.056785034015775" lon="-7.183928964659572">
        <ele>508.19</ele>
        <time>2025-05-03T07:59:47Z</time>
      </trkpt>
      <trkpt lat="41.056924005970359" lon="-7.183980010449886">
        <ele>508.67000000000002</ele>
        <time>2025-05-03T07:59:48Z</time>
      </trkpt>
      <trkpt lat="41.057604029774666" lon="-7.184264995157719">
        <ele>512.03999999999996</ele>
        <time>2025-05-03T07:59:53Z</time>
      </trkpt>
      <trkpt lat="41.057673012837768" lon="-7.184374965727329">
        <ele>512.51999999999998</ele>
        <time>2025-05-03T07:59:54Z</time>
      </trkpt>
      <trkpt lat="41.057710982859135" lon="-7.184478985145688">
        <ele>513.48000000000002</ele>
        <time>2025-05-03T07:59:55Z</time>
      </trkpt>
      <trkpt lat="41.057710982859135" lon="-7.18461200594902">
        <ele>514.44000000000005</ele>
        <time>2025-05-03T07:59:56Z</time>
      </trkpt>
      <trkpt lat="41.057650968432426" lon="-7.184700015932322">
        <ele>515.39999999999998</ele>
        <time>2025-05-03T07:59:57Z</time>
      </trkpt>
      <trkpt lat="41.057581985369325" lon="-7.184779979288578">
        <ele>516.37</ele>
        <time>2025-05-03T07:59:58Z</time>
      </trkpt>
      <trkpt lat="41.057495987042785" lon="-7.184766987338662">
        <ele>517.33000000000004</ele>
        <time>2025-05-03T07:59:59Z</time>
      </trkpt>
      <trkpt lat="41.057406971231103" lon="-7.184738991782069">
        <ele>517.80999999999995</ele>
        <time>2025-05-03T08:00:00Z</time>
      </trkpt>
      <trkpt lat="41.057306975126266" lon="-7.184661962091923">
        <ele>518.76999999999998</ele>
        <time>2025-05-03T08:00:01Z</time>
      </trkpt>
      <trkpt lat="41.057204967364669" lon="-7.184585016220808">
        <ele>519.25</ele>
        <time>2025-05-03T08:00:02Z</time>
      </trkpt>
      <trkpt lat="41.057106982916594" lon="-7.184509998187423">
        <ele>519.73000000000002</ele>
        <time>2025-05-03T08:00:03Z</time>
      </trkpt>
      <trkpt lat="41.056992989033461" lon="-7.184500023722649">
        <ele>520.21000000000004</ele>
        <time>2025-05-03T08:00:04Z</time>
      </trkpt>
      <trkpt lat="41.056867009028792" lon="-7.184534976258874">
        <ele>520.69000000000005</ele>
        <time>2025-05-03T08:00:05Z</time>
      </trkpt>
      <trkpt lat="41.056730970740318" lon="-7.184574035927653">
        <ele>521.16999999999996</ele>
        <time>2025-05-03T08:00:06Z</time>
      </trkpt>
      <trkpt lat="41.056469958275557" lon="-7.1846769656986">
        <ele>522.61000000000001</ele>
        <time>2025-05-03T08:00:08Z</time>
      </trkpt>
      <trkpt lat="41.05636702850461" lon="-7.184757012873888">
        <ele>523.09000000000003</ele>
        <time>2025-05-03T08:00:09Z</time>
      </trkpt>
      <trkpt lat="41.056286981329322" lon="-7.184880981221795">
        <ele>524.05999999999995</ele>
        <time>2025-05-03T08:00:10Z</time>
      </trkpt>
      <trkpt lat="41.056221015751362" lon="-7.185033028945327">
        <ele>524.53999999999996</ele>
        <time>2025-05-03T08:00:11Z</time>
      </trkpt>
      <trkpt lat="41.056176004931331" lon="-7.1852139942348">
        <ele>525.01999999999998</ele>
        <time>2025-05-03T08:00:12Z</time>
      </trkpt>
      <trkpt lat="41.0561309941113" lon="-7.185394037514925">
        <ele>525.5</ele>
        <time>2025-05-03T08:00:13Z</time>
      </trkpt>
      <trkpt lat="41.056090006604791" lon="-7.18555798754096">
        <ele>525.98000000000002</ele>
        <time>2025-05-03T08:00:14Z</time>
      </trkpt>
      <trkpt lat="41.05600199662149" lon="-7.185659995302558">
        <ele>526.46000000000004</ele>
        <time>2025-05-03T08:00:15Z</time>
      </trkpt>
      <trkpt lat="41.055899988859892" lon="-7.185739036649466">
        <ele>526.94000000000005</ele>
        <time>2025-05-03T08:00:16Z</time>
      </trkpt>
      <trkpt lat="41.055802004411817" lon="-7.185810031369329">
        <ele>527.41999999999996</ele>
        <time>2025-05-03T08:00:17Z</time>
      </trkpt>
      <trkpt lat="41.055712988600135" lon="-7.18589804135263">
        <ele>527.89999999999998</ele>
        <time>2025-05-03T08:00:18Z</time>
      </trkpt>
      <trkpt lat="41.055663032457232" lon="-7.186042964458466">
        <ele>528.38</ele>
        <time>2025-05-03T08:00:19Z</time>
      </trkpt>
      <trkpt lat="41.055650962516665" lon="-7.186197023838759">
        <ele>529.34000000000003</ele>
        <time>2025-05-03T08:00:20Z</time>
      </trkpt>
      <trkpt lat="41.055655991658568" lon="-7.186354016885161">
        <ele>529.82000000000005</ele>
        <time>2025-05-03T08:00:21Z</time>
      </trkpt>
      <trkpt lat="41.055732015520334" lon="-7.186491983011365">
        <ele>530.78999999999996</ele>
        <time>2025-05-03T08:00:22Z</time>
      </trkpt>
      <trkpt lat="41.055823964998126" lon="-7.186622992157936">
        <ele>531.75</ele>
        <time>2025-05-03T08:00:23Z</time>
      </trkpt>
      <trkpt lat="41.055925972759724" lon="-7.186751989647746">
        <ele>532.23000000000002</ele>
        <time>2025-05-03T08:00:24Z</time>
      </trkpt>
      <trkpt lat="41.056029992178082" lon="-7.186889033764601">
        <ele>533.19000000000005</ele>
        <time>2025-05-03T08:00:25Z</time>
      </trkpt>
      <trkpt lat="41.056137029081583" lon="-7.187034040689468">
        <ele>534.14999999999998</ele>
        <time>2025-05-03T08:00:26Z</time>
      </trkpt>
      <trkpt lat="41.056236019358039" lon="-7.187177035957575">
        <ele>535.11000000000001</ele>
        <time>2025-05-03T08:00:27Z</time>
      </trkpt>
      <trkpt lat="41.056288992986083" lon="-7.187336962670088">
        <ele>535.59000000000003</ele>
        <time>2025-05-03T08:00:28Z</time>
      </trkpt>
      <trkpt lat="41.056309025734663" lon="-7.187500996515155">
        <ele>537.02999999999997</ele>
        <time>2025-05-03T08:00:29Z</time>
      </trkpt>
      <trkpt lat="41.056292010471225" lon="-7.18768103979528">
        <ele>537.99000000000001</ele>
        <time>2025-05-03T08:00:30Z</time>
      </trkpt>
      <trkpt lat="41.056273989379406" lon="-7.18787600286305">
        <ele>538.48000000000002</ele>
        <time>2025-05-03T08:00:31Z</time>
      </trkpt>
      <trkpt lat="41.056254962459207" lon="-7.188081024214625">
        <ele>539.44000000000005</ele>
        <time>2025-05-03T08:00:32Z</time>
      </trkpt>
      <trkpt lat="41.056236019358039" lon="-7.188293002545834">
        <ele>540.39999999999998</ele>
        <time>2025-05-03T08:00:33Z</time>
      </trkpt>
      <trkpt lat="41.056214980781078" lon="-7.188512021675706">
        <ele>540.88</ele>
        <time>2025-05-03T08:00:34Z</time>
      </trkpt>
      <trkpt lat="41.05619503185153" lon="-7.188732968643308">
        <ele>541.84000000000003</ele>
        <time>2025-05-03T08:00:35Z</time>
      </trkpt>
      <trkpt lat="41.056153038516641" lon="-7.188950981944799">
        <ele>542.79999999999995</ele>
        <time>2025-05-03T08:00:36Z</time>
      </trkpt>
      <trkpt lat="41.056153038516641" lon="-7.188950981944799">
        <ele>543.75999999999999</ele>
        <time>2025-05-03T08:00:37Z</time>
      </trkpt>
      <trkpt lat="41.056038960814476" lon="-7.189367981627584">
        <ele>544.72000000000003</ele>
        <time>2025-05-03T08:00:38Z</time>
      </trkpt>
      <trkpt lat="41.055955979973078" lon="-7.189535032957792">
        <ele>545.69000000000005</ele>
        <time>2025-05-03T08:00:39Z</time>
      </trkpt>
      <trkpt lat="41.055865958333015" lon="-7.189671993255615">
        <ele>546.64999999999998</ele>
        <time>2025-05-03T08:00:40Z</time>
      </trkpt>
      <trkpt lat="41.055756993591785" lon="-7.189781041815877">
        <ele>547.61000000000001</ele>
        <time>2025-05-03T08:00:41Z</time>
      </trkpt>
      <trkpt lat="41.055629001930356" lon="-7.189819011837244">
        <ele>548.57000000000005</ele>
        <time>2025-05-03T08:00:42Z</time>
      </trkpt>
      <trkpt lat="41.055349968373775" lon="-7.189830997958779">
        <ele>550.00999999999999</ele>
        <time>2025-05-03T08:00:44Z</time>
      </trkpt>
      <trkpt lat="41.055115023627877" lon="-7.189807025715709">
        <ele>551.45000000000005</ele>
        <time>2025-05-03T08:00:46Z</time>
      </trkpt>
      <trkpt lat="41.055012010037899" lon="-7.189851030707359">
        <ele>551.92999999999995</ele>
        <time>2025-05-03T08:00:47Z</time>
      </trkpt>
      <trkpt lat="41.054929029196501" lon="-7.189958989620209">
        <ele>552.89999999999998</ele>
        <time>2025-05-03T08:00:48Z</time>
      </trkpt>
      <trkpt lat="41.054835990071297" lon="-7.190080024302006">
        <ele>553.38</ele>
        <time>2025-05-03T08:00:49Z</time>
      </trkpt>
      <trkpt lat="41.054742028936744" lon="-7.190211033448577">
        <ele>553.86000000000001</ele>
        <time>2025-05-03T08:00:50Z</time>
      </trkpt>
      <trkpt lat="41.05454295873642" lon="-7.190489983186126">
        <ele>555.29999999999995</ele>
        <time>2025-05-03T08:00:52Z</time>
      </trkpt>
      <trkpt lat="41.054427037015557" lon="-7.190576987341046">
        <ele>556.25999999999999</ele>
        <time>2025-05-03T08:00:53Z</time>
      </trkpt>
      <trkpt lat="41.054302984848619" lon="-7.190643958747387">
        <ele>556.74000000000001</ele>
        <time>2025-05-03T08:00:54Z</time>
      </trkpt>
      <trkpt lat="41.054197959601879" lon="-7.190674971789122">
        <ele>557.70000000000005</ele>
        <time>2025-05-03T08:00:55Z</time>
      </trkpt>
      <trkpt lat="41.054084971547127" lon="-7.190658962354064">
        <ele>558.65999999999997</ele>
        <time>2025-05-03T08:00:56Z</time>
      </trkpt>
      <trkpt lat="41.053994027897716" lon="-7.190586039796472">
        <ele>559.62</ele>
        <time>2025-05-03T08:00:57Z</time>
      </trkpt>
      <trkpt lat="41.053951028734446" lon="-7.190471040084958">
        <ele>560.59000000000003</ele>
        <time>2025-05-03T08:00:58Z</time>
      </trkpt>
      <trkpt lat="41.053911969065666" lon="-7.190323015674949">
        <ele>561.07000000000005</ele>
        <time>2025-05-03T08:00:59Z</time>
      </trkpt>
      <trkpt lat="41.05387601070106" lon="-7.190183959901333">
        <ele>562.02999999999997</ele>
        <time>2025-05-03T08:01:00Z</time>
      </trkpt>
      <trkpt lat="41.053849020972848" lon="-7.190080024302006">
        <ele>562.50999999999999</ele>
        <time>2025-05-03T08:01:01Z</time>
      </trkpt>
      <trkpt lat="41.05381297878921" lon="-7.189991008490324">
        <ele>563.47000000000003</ele>
        <time>2025-05-03T08:01:02Z</time>
      </trkpt>
      <trkpt lat="41.053721029311419" lon="-7.189760003238916">
        <ele>565.87</ele>
        <time>2025-05-03T08:01:07Z</time>
      </trkpt>
      <trkpt lat="41.053720023483038" lon="-7.189757991582155">
        <ele>566.35000000000002</ele>
        <time>2025-05-03T08:01:08Z</time>
      </trkpt>
      <trkpt lat="41.053678030148149" lon="-7.189722033217549">
        <ele>567.32000000000005</ele>
        <time>2025-05-03T08:01:09Z</time>
      </trkpt>
      <trkpt lat="41.053652968257666" lon="-7.189699988812208">
        <ele>567.79999999999995</ele>
        <time>2025-05-03T08:01:10Z</time>
      </trkpt>
      <trkpt lat="41.053630001842976" lon="-7.189680961892009">
        <ele>568.27999999999997</ele>
        <time>2025-05-03T08:01:11Z</time>
      </trkpt>
      <trkpt lat="41.053611980751157" lon="-7.189665036275983">
        <ele>569.24000000000001</ele>
        <time>2025-05-03T08:01:21Z</time>
      </trkpt>
      <trkpt lat="41.053611980751157" lon="-7.189665036275983">
        <ele>570.20000000000005</ele>
        <time>2025-05-03T08:02:16Z</time>
      </trkpt>
      <trkpt lat="41.053569987416267" lon="-7.189628994092345">
        <ele>570.67999999999995</ele>
        <time>2025-05-03T08:02:19Z</time>
      </trkpt>
      <trkpt lat="41.053408971056342" lon="-7.189628994092345">
        <ele>571.15999999999997</ele>
        <time>2025-05-03T08:02:22Z</time>
      </trkpt>
      <trkpt lat="41.05331601575017" lon="-7.189628994092345">
        <ele>571.63999999999999</ele>
        <time>2025-05-03T08:02:23Z</time>
      </trkpt>
      <trkpt lat="41.053153993561864" lon="-7.189823035150766">
        <ele>572.12</ele>
        <time>2025-05-03T08:02:25Z</time>
      </trkpt>
      <trkpt lat="41.053104037418962" lon="-7.189939040690661">
        <ele>572.60000000000002</ele>
        <time>2025-05-03T08:02:26Z</time>
      </trkpt>
      <trkpt lat="41.053075036033988" lon="-7.190072983503342">
        <ele>573.08000000000004</ele>
        <time>2025-05-03T08:02:27Z</time>
      </trkpt>
      <trkpt lat="41.052969004958868" lon="-7.19154903665185">
        <ele>576.92999999999995</ele>
        <time>2025-05-03T08:02:37Z</time>
      </trkpt>
      <trkpt lat="41.053018039092422" lon="-7.192719988524914">
        <ele>580.76999999999998</ele>
        <time>2025-05-03T08:02:45Z</time>
      </trkpt>
      <trkpt lat="41.05312499217689" lon="-7.193487016484141">
        <ele>583.65999999999997</ele>
        <time>2025-05-03T08:02:49Z</time>
      </trkpt>
      <trkpt lat="41.053134966641665" lon="-7.193709975108504">
        <ele>584.13999999999999</ele>
        <time>2025-05-03T08:02:50Z</time>
      </trkpt>
      <trkpt lat="41.053121974691749" lon="-7.193940980359912">
        <ele>585.10000000000002</ele>
        <time>2025-05-03T08:02:51Z</time>
      </trkpt>
      <trkpt lat="41.053057014942169" lon="-7.195188039913774">
        <ele>589.42999999999995</ele>
        <time>2025-05-03T08:02:56Z</time>
      </trkpt>
      <trkpt lat="41.053078975528479" lon="-7.195438994094729">
        <ele>590.38999999999999</ele>
        <time>2025-05-03T08:02:57Z</time>
      </trkpt>
      <trkpt lat="41.053161034360528" lon="-7.196354968473315">
        <ele>594.23000000000002</ele>
        <time>2025-05-03T08:03:01Z</time>
      </trkpt>
      <trkpt lat="41.053131027147174" lon="-7.196523025631905">
        <ele>594.71000000000004</ele>
        <time>2025-05-03T08:03:02Z</time>
      </trkpt>
      <trkpt lat="41.053063971921802" lon="-7.196683036163449">
        <ele>595.19000000000005</ele>
        <time>2025-05-03T08:03:03Z</time>
      </trkpt>
      <trkpt lat="41.052748980000615" lon="-7.197388960048556">
        <ele>598.55999999999995</ele>
        <time>2025-05-03T08:03:07Z</time>
      </trkpt>
      <trkpt lat="41.052732970565557" lon="-7.19754695892334">
        <ele>599.51999999999998</ele>
        <time>2025-05-03T08:03:08Z</time>
      </trkpt>
      <trkpt lat="41.05276096612215" lon="-7.197743011638522">
        <ele>600.48000000000002</ele>
        <time>2025-05-03T08:03:09Z</time>
      </trkpt>
      <trkpt lat="41.052787033841014" lon="-7.197929006069899">
        <ele>601.44000000000005</ele>
        <time>2025-05-03T08:03:10Z</time>
      </trkpt>
      <trkpt lat="41.052850987762213" lon="-7.198075018823147">
        <ele>602.88</ele>
        <time>2025-05-03T08:03:11Z</time>
      </trkpt>
      <trkpt lat="41.052949978038669" lon="-7.198213990777731">
        <ele>603.85000000000002</ele>
        <time>2025-05-03T08:03:12Z</time>
      </trkpt>
      <trkpt lat="41.053085010498762" lon="-7.198322033509612">
        <ele>605.28999999999996</ele>
        <time>2025-05-03T08:03:13Z</time>
      </trkpt>
      <trkpt lat="41.053232029080391" lon="-7.198407026007772">
        <ele>606.73000000000002</ele>
        <time>2025-05-03T08:03:14Z</time>
      </trkpt>
      <trkpt lat="41.053393967449665" lon="-7.198443990200758">
        <ele>607.69000000000005</ele>
        <time>2025-05-03T08:03:15Z</time>
      </trkpt>
      <trkpt lat="41.053569987416267" lon="-7.19842697493732">
        <ele>608.64999999999998</ele>
        <time>2025-05-03T08:03:16Z</time>
      </trkpt>
      <trkpt lat="41.053718011826277" lon="-7.198377018794417">
        <ele>609.61000000000001</ele>
        <time>2025-05-03T08:03:17Z</time>
      </trkpt>
      <trkpt lat="41.053869975730777" lon="-7.198344999924302">
        <ele>611.05999999999995</ele>
        <time>2025-05-03T08:03:18Z</time>
      </trkpt>
      <trkpt lat="41.054013976827264" lon="-7.198357991874218">
        <ele>612.5</ele>
        <time>2025-05-03T08:03:19Z</time>
      </trkpt>
      <trkpt lat="41.054137023165822" lon="-7.198422029614449">
        <ele>613.46000000000004</ele>
        <time>2025-05-03T08:03:20Z</time>
      </trkpt>
      <trkpt lat="41.054227966815233" lon="-7.198539962992072">
        <ele>614.41999999999996</ele>
        <time>2025-05-03T08:03:21Z</time>
      </trkpt>
      <trkpt lat="41.054300973191857" lon="-7.19868496991694">
        <ele>615.86000000000001</ele>
        <time>2025-05-03T08:03:22Z</time>
      </trkpt>
      <trkpt lat="41.054360987618566" lon="-7.1988579723984">
        <ele>616.82000000000005</ele>
        <time>2025-05-03T08:03:23Z</time>
      </trkpt>
      <trkpt lat="41.054422007873654" lon="-7.199031980708242">
        <ele>617.77999999999997</ele>
        <time>2025-05-03T08:03:24Z</time>
      </trkpt>
      <trkpt lat="41.054522003978491" lon="-7.19915896654129">
        <ele>618.75</ele>
        <time>2025-05-03T08:03:25Z</time>
      </trkpt>
      <trkpt lat="41.054646978154778" lon="-7.199216969311237">
        <ele>619.71000000000004</ele>
        <time>2025-05-03T08:03:26Z</time>
      </trkpt>
      <trkpt lat="41.054792990908027" lon="-7.199245970696211">
        <ele>620.66999999999996</ele>
        <time>2025-05-03T08:03:27Z</time>
      </trkpt>
      <trkpt lat="41.05495098978281" lon="-7.199277989566326">
        <ele>621.63</ele>
        <time>2025-05-03T08:03:28Z</time>
      </trkpt>
      <trkpt lat="41.055092979222536" lon="-7.1993069909513">
        <ele>622.11000000000001</ele>
        <time>2025-05-03T08:03:29Z</time>
      </trkpt>
      <trkpt lat="41.055219965055585" lon="-7.199420984834433">
        <ele>623.07000000000005</ele>
        <time>2025-05-03T08:03:30Z</time>
      </trkpt>
      <trkpt lat="41.055320966988802" lon="-7.199526010081172">
        <ele>624.02999999999997</ele>
        <time>2025-05-03T08:03:31Z</time>
      </trkpt>
      <trkpt lat="41.05538098141551" lon="-7.199684008955956">
        <ele>624.99000000000001</ele>
        <time>2025-05-03T08:03:32Z</time>
      </trkpt>
      <trkpt lat="41.055407971143723" lon="-7.199862040579319">
        <ele>625.96000000000004</ele>
        <time>2025-05-03T08:03:33Z</time>
      </trkpt>
      <trkpt lat="41.055402019992471" lon="-7.200042000040412">
        <ele>626.91999999999996</ele>
        <time>2025-05-03T08:03:34Z</time>
      </trkpt>
      <trkpt lat="41.055382993072271" lon="-7.200240986421704">
        <ele>627.39999999999998</ele>
        <time>2025-05-03T08:03:35Z</time>
      </trkpt>
      <trkpt lat="41.055362038314342" lon="-7.200454976409674">
        <ele>628.36000000000001</ele>
        <time>2025-05-03T08:03:36Z</time>
      </trkpt>
      <trkpt lat="41.055322978645563" lon="-7.200672989711165">
        <ele>628.84000000000003</ele>
        <time>2025-05-03T08:03:37Z</time>
      </trkpt>
      <trkpt lat="41.055263970047235" lon="-7.200885973870754">
        <ele>629.79999999999995</ele>
        <time>2025-05-03T08:03:38Z</time>
      </trkpt>
      <trkpt lat="41.054847976192832" lon="-7.20220897346735">
        <ele>636.04999999999995</ele>
        <time>2025-05-03T08:03:45Z</time>
      </trkpt>
      <trkpt lat="41.054822998121381" lon="-7.202361021190882">
        <ele>636.52999999999997</ele>
        <time>2025-05-03T08:03:46Z</time>
      </trkpt>
      <trkpt lat="41.054868008941412" lon="-7.202502004802227">
        <ele>637.00999999999999</ele>
        <time>2025-05-03T08:03:47Z</time>
      </trkpt>
      <trkpt lat="41.054912013933063" lon="-7.202643994241953">
        <ele>637.49000000000001</ele>
        <time>2025-05-03T08:03:48Z</time>
      </trkpt>
      <trkpt lat="41.054994994774461" lon="-7.202726975083351">
        <ele>638.45000000000005</ele>
        <time>2025-05-03T08:03:49Z</time>
      </trkpt>
      <trkpt lat="41.05509901419282" lon="-7.202797969803214">
        <ele>638.92999999999995</ele>
        <time>2025-05-03T08:03:50Z</time>
      </trkpt>
      <trkpt lat="41.055204039439559" lon="-7.202868964523077">
        <ele>639.40999999999997</ele>
        <time>2025-05-03T08:03:51Z</time>
      </trkpt>
      <trkpt lat="41.055327001959085" lon="-7.202884973958135">
        <ele>640.38</ele>
        <time>2025-05-03T08:03:52Z</time>
      </trkpt>
      <trkpt lat="41.055699996650219" lon="-7.202935013920069">
        <ele>642.29999999999995</ele>
        <time>2025-05-03T08:03:55Z</time>
      </trkpt>
      <trkpt lat="41.055843997746706" lon="-7.202954040840268">
        <ele>642.77999999999997</ele>
        <time>2025-05-03T08:03:56Z</time>
      </trkpt>
      <trkpt lat="41.055953968316317" lon="-7.20289402641356">
        <ele>643.25999999999999</ele>
        <time>2025-05-03T08:03:57Z</time>
      </trkpt>
      <trkpt lat="41.056070979684591" lon="-7.202802998945117">
        <ele>643.74000000000001</ele>
        <time>2025-05-03T08:03:58Z</time>
      </trkpt>
      <trkpt lat="41.056176004931331" lon="-7.202666038647294">
        <ele>644.22000000000003</ele>
        <time>2025-05-03T08:03:59Z</time>
      </trkpt>
      <trkpt lat="41.05628396384418" lon="-7.202523965388537">
        <ele>644.70000000000005</ele>
        <time>2025-05-03T08:04:00Z</time>
      </trkpt>
      <trkpt lat="41.056572971865535" lon="-7.202139990404248">
        <ele>647.10000000000002</ele>
        <time>2025-05-03T08:04:03Z</time>
      </trkpt>
      <trkpt lat="41.056666010990739" lon="-7.202092967927456">
        <ele>647.59000000000003</ele>
        <time>2025-05-03T08:04:04Z</time>
      </trkpt>
      <trkpt lat="41.056745974346995" lon="-7.202052986249328">
        <ele>648.54999999999995</ele>
        <time>2025-05-03T08:04:05Z</time>
      </trkpt>
      <trkpt lat="41.056838007643819" lon="-7.202091962099075">
        <ele>649.02999999999997</ele>
        <time>2025-05-03T08:04:06Z</time>
      </trkpt>
      <trkpt lat="41.056934986263514" lon="-7.202132027596235">
        <ele>649.50999999999999</ele>
        <time>2025-05-03T08:04:07Z</time>
      </trkpt>
      <trkpt lat="41.057024002075195" lon="-7.202190030366182">
        <ele>649.99000000000001</ele>
        <time>2025-05-03T08:04:08Z</time>
      </trkpt>
      <trkpt lat="41.057100025936961" lon="-7.202298995107412">
        <ele>650.47000000000003</ele>
        <time>2025-05-03T08:04:09Z</time>
      </trkpt>
      <trkpt lat="41.057161968201399" lon="-7.202407037839294">
        <ele>650.95000000000005</ele>
        <time>2025-05-03T08:04:10Z</time>
      </trkpt>
      <trkpt lat="41.057198010385036" lon="-7.202537963166833">
        <ele>651.42999999999995</ele>
        <time>2025-05-03T08:04:11Z</time>
      </trkpt>
      <trkpt lat="41.057203039526939" lon="-7.202666038647294">
        <ele>652.38999999999999</ele>
        <time>2025-05-03T08:04:12Z</time>
      </trkpt>
      <trkpt lat="41.057168003171682" lon="-7.202796963974834">
        <ele>652.87</ele>
        <time>2025-05-03T08:04:13Z</time>
      </trkpt>
      <trkpt lat="41.057133972644806" lon="-7.202925961464644">
        <ele>653.35000000000002</ele>
        <time>2025-05-03T08:04:14Z</time>
      </trkpt>
      <trkpt lat="41.057068007066846" lon="-7.203011959791184">
        <ele>654.30999999999995</ele>
        <time>2025-05-03T08:04:15Z</time>
      </trkpt>
      <trkpt lat="41.056959964334965" lon="-7.203146992251277">
        <ele>655.27999999999997</ele>
        <time>2025-05-03T08:04:16Z</time>
      </trkpt>
      <trkpt lat="41.056876983493567" lon="-7.203216981142759">
        <ele>655.75999999999999</ele>
        <time>2025-05-03T08:04:17Z</time>
      </trkpt>
      <trkpt lat="41.056038038805127" lon="-7.203807989135385">
        <ele>660.08000000000004</ele>
        <time>2025-05-03T08:04:23Z</time>
      </trkpt>
      <trkpt lat="41.055897977203131" lon="-7.203858029097319">
        <ele>660.55999999999995</ele>
        <time>2025-05-03T08:04:24Z</time>
      </trkpt>
      <trkpt lat="41.055753976106644" lon="-7.203870015218854">
        <ele>661.03999999999996</ele>
        <time>2025-05-03T08:04:25Z</time>
      </trkpt>
      <trkpt lat="41.054990971460938" lon="-7.203799020498991">
        <ele>664.40999999999997</ele>
        <time>2025-05-03T08:04:30Z</time>
      </trkpt>
      <trkpt lat="41.054859040305018" lon="-7.203748980537057">
        <ele>665.37</ele>
        <time>2025-05-03T08:04:31Z</time>
      </trkpt>
      <trkpt lat="41.054720990359783" lon="-7.203697012737393">
        <ele>665.85000000000002</ele>
        <time>2025-05-03T08:04:32Z</time>
      </trkpt>
      <trkpt lat="41.053818007931113" lon="-7.20321798697114">
        <ele>670.65999999999997</ele>
        <time>2025-05-03T08:04:38Z</time>
      </trkpt>
      <trkpt lat="41.053656991571188" lon="-7.203185968101025">
        <ele>671.62</ele>
        <time>2025-05-03T08:04:39Z</time>
      </trkpt>
      <trkpt lat="41.053491029888391" lon="-7.203179011121392">
        <ele>672.58000000000004</ele>
        <time>2025-05-03T08:04:40Z</time>
      </trkpt>
      <trkpt lat="41.05280103161931" lon="-7.203267021104693">
        <ele>672.58000000000004</ele>
        <time>2025-05-03T08:04:44Z</time>
      </trkpt>
      <trkpt lat="41.052642026916146" lon="-7.203377997502685">
        <ele>672.10000000000002</ele>
        <time>2025-05-03T08:04:45Z</time>
      </trkpt>
      <trkpt lat="41.052488973364234" lon="-7.203515963628888">
        <ele>671.62</ele>
        <time>2025-05-03T08:04:46Z</time>
      </trkpt>
      <trkpt lat="41.05232804082334" lon="-7.203660970553756">
        <ele>670.65999999999997</ele>
        <time>2025-05-03T08:04:47Z</time>
      </trkpt>
      <trkpt lat="41.052163001149893" lon="-7.203810000792146">
        <ele>669.70000000000005</ele>
        <time>2025-05-03T08:04:48Z</time>
      </trkpt>
      <trkpt lat="41.051291031762958" lon="-7.204703008756042">
        <ele>663.92999999999995</ele>
        <time>2025-05-03T08:04:54Z</time>
      </trkpt>
      <trkpt lat="41.051208972930908" lon="-7.204842986539006">
        <ele>662.97000000000003</ele>
        <time>2025-05-03T08:04:55Z</time>
      </trkpt>
      <trkpt lat="41.051188018172979" lon="-7.205039039254189">
        <ele>662.00999999999999</ele>
        <time>2025-05-03T08:04:56Z</time>
      </trkpt>
      <trkpt lat="41.051166979596019" lon="-7.205235008150339">
        <ele>661.51999999999998</ele>
        <time>2025-05-03T08:04:57Z</time>
      </trkpt>
      <trkpt lat="41.051180977374315" lon="-7.205457966774702">
        <ele>660.55999999999995</ele>
        <time>2025-05-03T08:04:58Z</time>
      </trkpt>
      <trkpt lat="41.051196986809373" lon="-7.205699030309916">
        <ele>660.08000000000004</ele>
        <time>2025-05-03T08:04:59Z</time>
      </trkpt>
      <trkpt lat="41.051251972094178" lon="-7.207182040438056">
        <ele>659.12</ele>
        <time>2025-05-03T08:05:05Z</time>
      </trkpt>
      <trkpt lat="41.051247026771307" lon="-7.207370968535543">
        <ele>659.12</ele>
        <time>2025-05-03T08:05:06Z</time>
      </trkpt>
      <trkpt lat="41.051182989031076" lon="-7.207565009593964">
        <ele>659.12</ele>
        <time>2025-05-03T08:05:07Z</time>
      </trkpt>
      <trkpt lat="41.050880989059806" lon="-7.208486013114452">
        <ele>660.08000000000004</ele>
        <time>2025-05-03T08:05:11Z</time>
      </trkpt>
      <trkpt lat="41.050809994339943" lon="-7.208738978952169">
        <ele>660.08000000000004</ele>
        <time>2025-05-03T08:05:12Z</time>
      </trkpt>
      <trkpt lat="41.050764983519912" lon="-7.209000997245312">
        <ele>660.08000000000004</ele>
        <time>2025-05-03T08:05:13Z</time>
      </trkpt>
      <trkpt lat="41.050533978268504" lon="-7.210476966574788">
        <ele>656.72000000000003</ele>
        <time>2025-05-03T08:05:19Z</time>
      </trkpt>
      <trkpt lat="41.050473041832447" lon="-7.210657009854913">
        <ele>656.24000000000001</ele>
        <time>2025-05-03T08:05:20Z</time>
      </trkpt>
      <trkpt lat="41.050398023799062" lon="-7.210818026214838">
        <ele>655.27999999999997</ele>
        <time>2025-05-03T08:05:21Z</time>
      </trkpt>
      <trkpt lat="41.050228038802743" lon="-7.211007960140705">
        <ele>654.30999999999995</ele>
        <time>2025-05-03T08:05:23Z</time>
      </trkpt>
      <trkpt lat="41.050104992464185" lon="-7.211063029244542">
        <ele>653.83000000000004</ele>
        <time>2025-05-03T08:05:24Z</time>
      </trkpt>
      <trkpt lat="41.049963003024459" lon="-7.211077027022839">
        <ele>653.35000000000002</ele>
        <time>2025-05-03T08:05:25Z</time>
      </trkpt>
      <trkpt lat="41.049806009978056" lon="-7.2110600117594">
        <ele>652.38999999999999</ele>
        <time>2025-05-03T08:05:26Z</time>
      </trkpt>
      <trkpt lat="41.049638036638498" lon="-7.211040984839201">
        <ele>651.90999999999997</ele>
        <time>2025-05-03T08:05:27Z</time>
      </trkpt>
      <trkpt lat="41.04947098530829" lon="-7.211022041738033">
        <ele>651.42999999999995</ele>
        <time>2025-05-03T08:05:28Z</time>
      </trkpt>
      <trkpt lat="41.049313992261887" lon="-7.211116002872586">
        <ele>650.47000000000003</ele>
        <time>2025-05-03T08:05:29Z</time>
      </trkpt>
      <trkpt lat="41.049144007265568" lon="-7.211215998977423">
        <ele>649.50999999999999</ele>
        <time>2025-05-03T08:05:30Z</time>
      </trkpt>
      <trkpt lat="41.04897603392601" lon="-7.21131800673902">
        <ele>648.54999999999995</ele>
        <time>2025-05-03T08:05:31Z</time>
      </trkpt>
      <trkpt lat="41.048523997887969" lon="-7.211657976731658">
        <ele>645.65999999999997</ele>
        <time>2025-05-03T08:05:34Z</time>
      </trkpt>
      <trkpt lat="41.048414027318358" lon="-7.211812036111951">
        <ele>644.22000000000003</ele>
        <time>2025-05-03T08:05:35Z</time>
      </trkpt>
      <trkpt lat="41.04833398014307" lon="-7.211984032765031">
        <ele>643.25999999999999</ele>
        <time>2025-05-03T08:05:36Z</time>
      </trkpt>
      <trkpt lat="41.048303972929716" lon="-7.212156029418111">
        <ele>642.77999999999997</ele>
        <time>2025-05-03T08:05:37Z</time>
      </trkpt>
      <trkpt lat="41.0482909809798" lon="-7.212331965565682">
        <ele>641.82000000000005</ele>
        <time>2025-05-03T08:05:38Z</time>
      </trkpt>
      <trkpt lat="41.048344038426876" lon="-7.212511003017426">
        <ele>640.86000000000001</ele>
        <time>2025-05-03T08:05:39Z</time>
      </trkpt>
      <trkpt lat="41.048402963206172" lon="-7.212709989398718">
        <ele>639.88999999999999</ele>
        <time>2025-05-03T08:05:40Z</time>
      </trkpt>
      <trkpt lat="41.048465995118022" lon="-7.212924985215068">
        <ele>638.92999999999995</ele>
        <time>2025-05-03T08:05:41Z</time>
      </trkpt>
      <trkpt lat="41.048519974574447" lon="-7.213150039315224">
        <ele>637.97000000000003</ele>
        <time>2025-05-03T08:05:42Z</time>
      </trkpt>
      <trkpt lat="41.048556016758084" lon="-7.213389007374644">
        <ele>637.00999999999999</ele>
        <time>2025-05-03T08:05:43Z</time>
      </trkpt>
      <trkpt lat="41.04859096929431" lon="-7.213629987090826">
        <ele>636.04999999999995</ele>
        <time>2025-05-03T08:05:44Z</time>
      </trkpt>
      <trkpt lat="41.048578983172774" lon="-7.213871972635388">
        <ele>634.61000000000001</ele>
        <time>2025-05-03T08:05:45Z</time>
      </trkpt>
      <trkpt lat="41.048558028414845" lon="-7.214095015078783">
        <ele>634.13</ele>
        <time>2025-05-03T08:05:46Z</time>
      </trkpt>
      <trkpt lat="41.048507988452911" lon="-7.214295007288456">
        <ele>633.16999999999996</ele>
        <time>2025-05-03T08:05:47Z</time>
      </trkpt>
      <trkpt lat="41.04844001121819" lon="-7.214447977021337">
        <ele>632.67999999999995</ele>
        <time>2025-05-03T08:05:48Z</time>
      </trkpt>
      <trkpt lat="41.048335991799831" lon="-7.21458200365305">
        <ele>631.72000000000003</ele>
        <time>2025-05-03T08:05:49Z</time>
      </trkpt>
      <trkpt lat="41.04822400957346" lon="-7.214726004749537">
        <ele>630.75999999999999</ele>
        <time>2025-05-03T08:05:50Z</time>
      </trkpt>
      <trkpt lat="41.048081014305353" lon="-7.214852990582585">
        <ele>629.79999999999995</ele>
        <time>2025-05-03T08:05:51Z</time>
      </trkpt>
      <trkpt lat="41.047927038744092" lon="-7.214966984465718">
        <ele>628.84000000000003</ele>
        <time>2025-05-03T08:05:52Z</time>
      </trkpt>
      <trkpt lat="41.047782031819224" lon="-7.215074021369219">
        <ele>627.88</ele>
        <time>2025-05-03T08:05:53Z</time>
      </trkpt>
      <trkpt lat="41.047685975208879" lon="-7.215221961960197">
        <ele>626.91999999999996</ele>
        <time>2025-05-03T08:05:54Z</time>
      </trkpt>
      <trkpt lat="41.047648005187511" lon="-7.215390019118786">
        <ele>625.96000000000004</ele>
        <time>2025-05-03T08:05:55Z</time>
      </trkpt>
      <trkpt lat="41.047619003802538" lon="-7.21559202298522">
        <ele>624.99000000000001</ele>
        <time>2025-05-03T08:05:56Z</time>
      </trkpt>
      <trkpt lat="41.047585979104042" lon="-7.215814981609583">
        <ele>624.02999999999997</ele>
        <time>2025-05-03T08:05:57Z</time>
      </trkpt>
      <trkpt lat="41.04738799855113" lon="-7.217734018340707">
        <ele>615.38</ele>
        <time>2025-05-03T08:06:04Z</time>
      </trkpt>
      <trkpt lat="41.047154981642962" lon="-7.220488982275128">
        <ele>611.05999999999995</ele>
        <time>2025-05-03T08:06:14Z</time>
      </trkpt>
      <trkpt lat="41.047202004119754" lon="-7.220714958384633">
        <ele>611.53999999999996</ele>
        <time>2025-05-03T08:06:15Z</time>
      </trkpt>
      <trkpt lat="41.047251038253307" lon="-7.220948981121182">
        <ele>612.01999999999998</ele>
        <time>2025-05-03T08:06:16Z</time>
      </trkpt>
      <trkpt lat="41.047637024894357" lon="-7.222383040934801">
        <ele>614.41999999999996</ele>
        <time>2025-05-03T08:06:22Z</time>
      </trkpt>
      <trkpt lat="41.04773199185729" lon="-7.222801968455315">
        <ele>615.38</ele>
        <time>2025-05-03T08:06:24Z</time>
      </trkpt>
      <trkpt lat="41.04775495827198" lon="-7.222973965108395">
        <ele>615.38</ele>
        <time>2025-05-03T08:06:25Z</time>
      </trkpt>
      <trkpt lat="41.047722017392516" lon="-7.223183009773493">
        <ele>615.38</ele>
        <time>2025-05-03T08:06:26Z</time>
      </trkpt>
      <trkpt lat="41.047689998522401" lon="-7.223381996154785">
        <ele>614.89999999999998</ele>
        <time>2025-05-03T08:06:27Z</time>
      </trkpt>
      <trkpt lat="41.047635013237596" lon="-7.223559021949768">
        <ele>614.89999999999998</ele>
        <time>2025-05-03T08:06:28Z</time>
      </trkpt>
      <trkpt lat="41.047208961099386" lon="-7.224954022094607">
        <ele>611.53999999999996</ele>
        <time>2025-05-03T08:06:34Z</time>
      </trkpt>
      <trkpt lat="41.047110976651311" lon="-7.225377978757024">
        <ele>610.09000000000003</ele>
        <time>2025-05-03T08:06:36Z</time>
      </trkpt>
      <trkpt lat="41.047122040763497" lon="-7.225558022037149">
        <ele>609.13</ele>
        <time>2025-05-03T08:06:37Z</time>
      </trkpt>
      <trkpt lat="41.04714903049171" lon="-7.225770000368357">
        <ele>608.64999999999998</ele>
        <time>2025-05-03T08:06:38Z</time>
      </trkpt>
      <trkpt lat="41.047218013554811" lon="-7.225980972871184">
        <ele>608.64999999999998</ele>
        <time>2025-05-03T08:06:39Z</time>
      </trkpt>
      <trkpt lat="41.047292025759816" lon="-7.22620602697134">
        <ele>609.13</ele>
        <time>2025-05-03T08:06:40Z</time>
      </trkpt>
      <trkpt lat="41.047990992665291" lon="-7.228274010121822">
        <ele>616.34000000000003</ele>
        <time>2025-05-03T08:06:49Z</time>
      </trkpt>
      <trkpt lat="41.048260973766446" lon="-7.229140028357506">
        <ele>620.66999999999996</ele>
        <time>2025-05-03T08:06:54Z</time>
      </trkpt>
      <trkpt lat="41.048293998464942" lon="-7.229296015575528">
        <ele>621.14999999999998</ele>
        <time>2025-05-03T08:06:55Z</time>
      </trkpt>
      <trkpt lat="41.048309002071619" lon="-7.229458037763834">
        <ele>622.11000000000001</ele>
        <time>2025-05-03T08:06:56Z</time>
      </trkpt>
      <trkpt lat="41.048407992348075" lon="-7.231015982106328">
        <ele>621.63</ele>
        <time>2025-05-03T08:07:05Z</time>
      </trkpt>
      <trkpt lat="41.048404974862933" lon="-7.231382019817829">
        <ele>621.14999999999998</ele>
        <time>2025-05-03T08:07:06Z</time>
      </trkpt>
      <trkpt lat="41.048367004841566" lon="-7.231533983722329">
        <ele>621.14999999999998</ele>
        <time>2025-05-03T08:07:07Z</time>
      </trkpt>
      <trkpt lat="41.048313025385141" lon="-7.231674967333674">
        <ele>620.66999999999996</ele>
        <time>2025-05-03T08:07:08Z</time>
      </trkpt>
      <trkpt lat="41.047783959656954" lon="-7.232901994138956">
        <ele>621.63</ele>
        <time>2025-05-03T08:07:18Z</time>
      </trkpt>
      <trkpt lat="41.047741966322064" lon="-7.233116989955306">
        <ele>621.63</ele>
        <time>2025-05-03T08:07:20Z</time>
      </trkpt>
      <trkpt lat="41.047732997685671" lon="-7.23321002908051">
        <ele>621.14999999999998</ele>
        <time>2025-05-03T08:07:21Z</time>
      </trkpt>
      <trkpt lat="41.047757975757122" lon="-7.233323017135263">
        <ele>620.66999999999996</ele>
        <time>2025-05-03T08:07:22Z</time>
      </trkpt>
      <trkpt lat="41.048110015690327" lon="-7.234828993678093">
        <ele>614.41999999999996</ele>
        <time>2025-05-03T08:07:34Z</time>
      </trkpt>
      <trkpt lat="41.048511005938053" lon="-7.236078986898065">
        <ele>611.53999999999996</ele>
        <time>2025-05-03T08:07:44Z</time>
      </trkpt>
      <trkpt lat="41.048909984529018" lon="-7.237066039815545">
        <ele>609.61000000000001</ele>
        <time>2025-05-03T08:07:50Z</time>
      </trkpt>
      <trkpt lat="41.048996988683939" lon="-7.237199982628226">
        <ele>610.09000000000003</ele>
        <time>2025-05-03T08:07:51Z</time>
      </trkpt>
      <trkpt lat="41.049115005880594" lon="-7.237257985398173">
        <ele>610.09000000000003</ele>
        <time>2025-05-03T08:07:52Z</time>
      </trkpt>
      <trkpt lat="41.049239980056882" lon="-7.237321017310023">
        <ele>610.57000000000005</ele>
        <time>2025-05-03T08:07:53Z</time>
      </trkpt>
      <trkpt lat="41.049368977546692" lon="-7.237384971231222">
        <ele>611.05999999999995</ele>
        <time>2025-05-03T08:07:54Z</time>
      </trkpt>
      <trkpt lat="41.051016021519899" lon="-7.238101959228516">
        <ele>620.19000000000005</ele>
        <time>2025-05-03T08:08:05Z</time>
      </trkpt>
      <trkpt lat="41.052137017250061" lon="-7.238659020513296">
        <ele>626.91999999999996</ele>
        <time>2025-05-03T08:08:12Z</time>
      </trkpt>
      <trkpt lat="41.052233995869756" lon="-7.238771002739668">
        <ele>627.39999999999998</ele>
        <time>2025-05-03T08:08:13Z</time>
      </trkpt>
      <trkpt lat="41.052313959226012" lon="-7.238892037421465">
        <ele>627.88</ele>
        <time>2025-05-03T08:08:14Z</time>
      </trkpt>
      <trkpt lat="41.052368022501469" lon="-7.239089012145996">
        <ele>628.84000000000003</ele>
        <time>2025-05-03T08:08:15Z</time>
      </trkpt>
      <trkpt lat="41.05241403914988" lon="-7.239276012405753">
        <ele>629.32000000000005</ele>
        <time>2025-05-03T08:08:16Z</time>
      </trkpt>
      <trkpt lat="41.052754009142518" lon="-7.240826999768615">
        <ele>628.84000000000003</ele>
        <time>2025-05-03T08:08:23Z</time>
      </trkpt>
      <trkpt lat="41.052726013585925" lon="-7.241038978099823">
        <ele>628.36000000000001</ele>
        <time>2025-05-03T08:08:24Z</time>
      </trkpt>
      <trkpt lat="41.052726013585925" lon="-7.241038978099823">
        <ele>627.88</ele>
        <time>2025-05-03T08:08:25Z</time>
      </trkpt>
      <trkpt lat="41.052604978904128" lon="-7.241337038576603">
        <ele>626.91999999999996</ele>
        <time>2025-05-03T08:08:26Z</time>
      </trkpt>
      <trkpt lat="41.052510011941195" lon="-7.24150400608778">
        <ele>625.96000000000004</ele>
        <time>2025-05-03T08:08:27Z</time>
      </trkpt>
      <trkpt lat="41.052260985597968" lon="-7.241942966356874">
        <ele>623.54999999999995</ele>
        <time>2025-05-03T08:08:30Z</time>
      </trkpt>
      <trkpt lat="41.052239025011659" lon="-7.242163997143507">
        <ele>622.59000000000003</ele>
        <time>2025-05-03T08:08:31Z</time>
      </trkpt>
      <trkpt lat="41.052217986434698" lon="-7.242372035980225">
        <ele>622.11000000000001</ele>
        <time>2025-05-03T08:08:32Z</time>
      </trkpt>
      <trkpt lat="41.052232990041375" lon="-7.242517964914441">
        <ele>621.14999999999998</ele>
        <time>2025-05-03T08:08:33Z</time>
      </trkpt>
      <trkpt lat="41.052250005304813" lon="-7.242698008194566">
        <ele>620.19000000000005</ele>
        <time>2025-05-03T08:08:34Z</time>
      </trkpt>
      <trkpt lat="41.052302978932858" lon="-7.242847960442305">
        <ele>619.23000000000002</ele>
        <time>2025-05-03T08:08:35Z</time>
      </trkpt>
      <trkpt lat="41.052386965602636" lon="-7.242940999567509">
        <ele>618.25999999999999</ele>
        <time>2025-05-03T08:08:36Z</time>
      </trkpt>
      <trkpt lat="41.052475981414318" lon="-7.24303001537919">
        <ele>617.77999999999997</ele>
        <time>2025-05-03T08:08:37Z</time>
      </trkpt>
      <trkpt lat="41.052597016096115" lon="-7.243105033412576">
        <ele>616.82000000000005</ele>
        <time>2025-05-03T08:08:38Z</time>
      </trkpt>
      <trkpt lat="41.052740011364222" lon="-7.243176028132439">
        <ele>615.86000000000001</ele>
        <time>2025-05-03T08:08:39Z</time>
      </trkpt>
      <trkpt lat="41.053806021809578" lon="-7.243661005049944">
        <ele>609.61000000000001</ele>
        <time>2025-05-03T08:08:46Z</time>
      </trkpt>
      <trkpt lat="41.053965026512742" lon="-7.243770975619555">
        <ele>608.64999999999998</ele>
        <time>2025-05-03T08:08:48Z</time>
      </trkpt>
      <trkpt lat="41.05402504093945" lon="-7.243827972561121">
        <ele>608.16999999999996</ele>
        <time>2025-05-03T08:08:49Z</time>
      </trkpt>
      <trkpt lat="41.054050019010901" lon="-7.243941966444254">
        <ele>607.21000000000004</ele>
        <time>2025-05-03T08:08:50Z</time>
      </trkpt>
      <trkpt lat="41.054068962112069" lon="-7.24408202804625">
        <ele>606.25</ele>
        <time>2025-05-03T08:08:51Z</time>
      </trkpt>
      <trkpt lat="41.054084971547127" lon="-7.244302975013852">
        <ele>605.76999999999998</ele>
        <time>2025-05-03T08:08:52Z</time>
      </trkpt>
      <trkpt lat="41.05406703427434" lon="-7.244459968060255">
        <ele>604.33000000000004</ele>
        <time>2025-05-03T08:08:53Z</time>
      </trkpt>
      <trkpt lat="41.054041972383857" lon="-7.244682004675269">
        <ele>603.36000000000001</ele>
        <time>2025-05-03T08:08:54Z</time>
      </trkpt>
      <trkpt lat="41.053758999332786" lon="-7.247083000838757">
        <ele>593.75</ele>
        <time>2025-05-03T08:09:03Z</time>
      </trkpt>
      <trkpt lat="41.053407965227962" lon="-7.249607965350151">
        <ele>584.13999999999999</ele>
        <time>2025-05-03T08:09:12Z</time>
      </trkpt>
      <trkpt lat="41.052484028041363" lon="-7.253288961946964">
        <ele>570.20000000000005</ele>
        <time>2025-05-03T08:09:26Z</time>
      </trkpt>
      <trkpt lat="41.051489012315869" lon="-7.257021004334092">
        <ele>566.83000000000004</ele>
        <time>2025-05-03T08:09:39Z</time>
      </trkpt>
      <trkpt lat="41.050301967188716" lon="-7.259452007710934">
        <ele>557.22000000000003</ele>
        <time>2025-05-03T08:09:49Z</time>
      </trkpt>
      <trkpt lat="41.049995021894574" lon="-7.260192967951298">
        <ele>552.40999999999997</ele>
        <time>2025-05-03T08:09:53Z</time>
      </trkpt>
      <trkpt lat="41.049970965832472" lon="-7.260376028716564">
        <ele>550.97000000000003</ele>
        <time>2025-05-03T08:09:54Z</time>
      </trkpt>
      <trkpt lat="41.04992201551795" lon="-7.26183095946908">
        <ele>545.69000000000005</ele>
        <time>2025-05-03T08:10:02Z</time>
      </trkpt>
      <trkpt lat="41.04992201551795" lon="-7.262204959988594">
        <ele>545.20000000000005</ele>
        <time>2025-05-03T08:10:05Z</time>
      </trkpt>
      <trkpt lat="41.04992201551795" lon="-7.262328006327152">
        <ele>545.20000000000005</ele>
        <time>2025-05-03T08:10:06Z</time>
      </trkpt>
      <trkpt lat="41.049947999417782" lon="-7.262423979118466">
        <ele>544.72000000000003</ele>
        <time>2025-05-03T08:10:07Z</time>
      </trkpt>
      <trkpt lat="41.049974989145994" lon="-7.262526992708445">
        <ele>544.24000000000001</ele>
        <time>2025-05-03T08:10:08Z</time>
      </trkpt>
      <trkpt lat="41.05000801384449" lon="-7.262650039047003">
        <ele>543.75999999999999</ele>
        <time>2025-05-03T08:10:09Z</time>
      </trkpt>
      <trkpt lat="41.050545964390039" lon="-7.263760976493359">
        <ele>538.48000000000002</ele>
        <time>2025-05-03T08:10:18Z</time>
      </trkpt>
      <trkpt lat="41.051480965688825" lon="-7.265638019889593">
        <ele>529.82000000000005</ele>
        <time>2025-05-03T08:10:32Z</time>
      </trkpt>
      <trkpt lat="41.052216980606318" lon="-7.267110971733928">
        <ele>525.98000000000002</ele>
        <time>2025-05-03T08:10:43Z</time>
      </trkpt>
      <trkpt lat="41.052721990272403" lon="-7.268547965213656">
        <ele>524.05999999999995</ele>
        <time>2025-05-03T08:10:53Z</time>
      </trkpt>
      <trkpt lat="41.052750991657376" lon="-7.268701018765569">
        <ele>524.05999999999995</ele>
        <time>2025-05-03T08:10:54Z</time>
      </trkpt>
      <trkpt lat="41.052778987213969" lon="-7.268853988498449">
        <ele>523.58000000000004</ele>
        <time>2025-05-03T08:10:55Z</time>
      </trkpt>
      <trkpt lat="41.053229011595249" lon="-7.270855000242591">
        <ele>518.28999999999996</ele>
        <time>2025-05-03T08:11:08Z</time>
      </trkpt>
      <trkpt lat="41.053772997111082" lon="-7.272596005350351">
        <ele>513</ele>
        <time>2025-05-03T08:11:19Z</time>
      </trkpt>
      <trkpt lat="41.053836029022932" lon="-7.272748975083232">
        <ele>513</ele>
        <time>2025-05-03T08:11:20Z</time>
      </trkpt>
      <trkpt lat="41.05475502088666" lon="-7.274609003216028">
        <ele>509.16000000000003</ele>
        <time>2025-05-03T08:11:31Z</time>
      </trkpt>
      <trkpt lat="41.055015027523041" lon="-7.275146031752229">
        <ele>507.70999999999998</ele>
        <time>2025-05-03T08:11:34Z</time>
      </trkpt>
      <trkpt lat="41.055072024464607" lon="-7.275331020355225">
        <ele>507.23000000000002</ele>
        <time>2025-05-03T08:11:35Z</time>
      </trkpt>
      <trkpt lat="41.055103959515691" lon="-7.275541992858052">
        <ele>506.75</ele>
        <time>2025-05-03T08:11:36Z</time>
      </trkpt>
      <trkpt lat="41.055463962256908" lon="-7.278022030368447">
        <ele>500.98000000000002</ele>
        <time>2025-05-03T08:11:47Z</time>
      </trkpt>
      <trkpt lat="41.055493969470263" lon="-7.278225040063262">
        <ele>500.01999999999998</ele>
        <time>2025-05-03T08:11:48Z</time>
      </trkpt>
      <trkpt lat="41.055559013038874" lon="-7.278401982039213">
        <ele>499.54000000000002</ele>
        <time>2025-05-03T08:11:49Z</time>
      </trkpt>
      <trkpt lat="41.055653980001807" lon="-7.278515975922346">
        <ele>499.06</ele>
        <time>2025-05-03T08:11:50Z</time>
      </trkpt>
      <trkpt lat="41.055779960006475" lon="-7.278613960370421">
        <ele>498.57999999999998</ele>
        <time>2025-05-03T08:11:51Z</time>
      </trkpt>
      <trkpt lat="41.055880961939692" lon="-7.27863198146224">
        <ele>497.62</ele>
        <time>2025-05-03T08:11:52Z</time>
      </trkpt>
      <trkpt lat="41.056014988571405" lon="-7.278656959533691">
        <ele>497.13999999999999</ele>
        <time>2025-05-03T08:11:53Z</time>
      </trkpt>
      <trkpt lat="41.056150021031499" lon="-7.278681015595794">
        <ele>496.66000000000003</ele>
        <time>2025-05-03T08:11:54Z</time>
      </trkpt>
      <trkpt lat="41.056270971894264" lon="-7.2787169739604">
        <ele>495.69999999999999</ele>
        <time>2025-05-03T08:11:55Z</time>
      </trkpt>
      <trkpt lat="41.056374991312623" lon="-7.278811018913984">
        <ele>494.74000000000001</ele>
        <time>2025-05-03T08:11:56Z</time>
      </trkpt>
      <trkpt lat="41.056467024609447" lon="-7.278892993927002">
        <ele>494.25999999999999</ele>
        <time>2025-05-03T08:11:57Z</time>
      </trkpt>
      <trkpt lat="41.056476999074221" lon="-7.279031965881586">
        <ele>493.29000000000002</ele>
        <time>2025-05-03T08:11:58Z</time>
      </trkpt>
      <trkpt lat="41.056487979367375" lon="-7.279172027483583">
        <ele>492.81</ele>
        <time>2025-05-03T08:11:59Z</time>
      </trkpt>
      <trkpt lat="41.056459983810782" lon="-7.279314016923308">
        <ele>492.32999999999998</ele>
        <time>2025-05-03T08:12:00Z</time>
      </trkpt>
      <trkpt lat="41.056411033496261" lon="-7.279462041333318">
        <ele>491.85000000000002</ele>
        <time>2025-05-03T08:12:01Z</time>
      </trkpt>
      <trkpt lat="41.05634699575603" lon="-7.279605958610773">
        <ele>490.88999999999999</ele>
        <time>2025-05-03T08:12:02Z</time>
      </trkpt>
      <trkpt lat="41.056282036006451" lon="-7.279749037697911">
        <ele>490.41000000000003</ele>
        <time>2025-05-03T08:12:03Z</time>
      </trkpt>
      <trkpt lat="41.056254962459207" lon="-7.279917011037469">
        <ele>489.93000000000001</ele>
        <time>2025-05-03T08:12:04Z</time>
      </trkpt>
      <trkpt lat="41.056262003257871" lon="-7.280107028782368">
        <ele>489.44999999999999</ele>
        <time>2025-05-03T08:12:05Z</time>
      </trkpt>
      <trkpt lat="41.056268960237503" lon="-7.280311966314912">
        <ele>488.97000000000003</ele>
        <time>2025-05-03T08:12:06Z</time>
      </trkpt>
      <trkpt lat="41.05628103017807" lon="-7.280527967959642">
        <ele>488.00999999999999</ele>
        <time>2025-05-03T08:12:07Z</time>
      </trkpt>
      <trkpt lat="41.056463001295924" lon="-7.28247600607574">
        <ele>482.24000000000001</ele>
        <time>2025-05-03T08:12:15Z</time>
      </trkpt>
      <trkpt lat="41.056379014626145" lon="-7.283746032044292">
        <ele>477.43000000000001</ele>
        <time>2025-05-03T08:12:20Z</time>
      </trkpt>
      <trkpt lat="41.056343978270888" lon="-7.283978965133429">
        <ele>476.47000000000003</ele>
        <time>2025-05-03T08:12:21Z</time>
      </trkpt>
      <trkpt lat="41.05626099742949" lon="-7.284181974828243">
        <ele>475.50999999999999</ele>
        <time>2025-05-03T08:12:22Z</time>
      </trkpt>
      <trkpt lat="41.056167036294937" lon="-7.284380039200187">
        <ele>474.55000000000001</ele>
        <time>2025-05-03T08:12:23Z</time>
      </trkpt>
      <trkpt lat="41.056071985512972" lon="-7.284575002267957">
        <ele>473.58999999999997</ele>
        <time>2025-05-03T08:12:24Z</time>
      </trkpt>
      <trkpt lat="41.055886996909976" lon="-7.284943973645568">
        <ele>471.66000000000003</ele>
        <time>2025-05-03T08:12:26Z</time>
      </trkpt>
      <trkpt lat="41.055845003575087" lon="-7.285154024139047">
        <ele>470.69999999999999</ele>
        <time>2025-05-03T08:12:27Z</time>
      </trkpt>
      <trkpt lat="41.055826982483268" lon="-7.285344041883946">
        <ele>469.74000000000001</ele>
        <time>2025-05-03T08:12:28Z</time>
      </trkpt>
      <trkpt lat="41.055836034938693" lon="-7.285541016608477">
        <ele>468.77999999999997</ele>
        <time>2025-05-03T08:12:29Z</time>
      </trkpt>
      <trkpt lat="41.055848021060228" lon="-7.285747965797782">
        <ele>467.33999999999997</ele>
        <time>2025-05-03T08:12:30Z</time>
      </trkpt>
      <trkpt lat="41.056009037420154" lon="-7.286833003163338">
        <ele>463.00999999999999</ele>
        <time>2025-05-03T08:12:35Z</time>
      </trkpt>
      <trkpt lat="41.056073997169733" lon="-7.287029977887869">
        <ele>462.05000000000001</ele>
        <time>2025-05-03T08:12:36Z</time>
      </trkpt>
      <trkpt lat="41.05615203268826" lon="-7.287221001461148">
        <ele>461.08999999999997</ele>
        <time>2025-05-03T08:12:37Z</time>
      </trkpt>
      <trkpt lat="41.056257979944348" lon="-7.287385035306215">
        <ele>460.13</ele>
        <time>2025-05-03T08:12:38Z</time>
      </trkpt>
      <trkpt lat="41.056379014626145" lon="-7.287539010867477">
        <ele>459.17000000000002</ele>
        <time>2025-05-03T08:12:39Z</time>
      </trkpt>
      <trkpt lat="41.05651899240911" lon="-7.287672031670809">
        <ele>458.20999999999998</ele>
        <time>2025-05-03T08:12:40Z</time>
      </trkpt>
      <trkpt lat="41.056658970192075" lon="-7.287800023332238">
        <ele>456.75999999999999</ele>
        <time>2025-05-03T08:12:41Z</time>
      </trkpt>
      <trkpt lat="41.057232040911913" lon="-7.288439981639385">
        <ele>452.44</ele>
        <time>2025-05-03T08:12:46Z</time>
      </trkpt>
      <trkpt lat="41.057293983176351" lon="-7.288583982735872">
        <ele>451.48000000000002</ele>
        <time>2025-05-03T08:12:47Z</time>
      </trkpt>
      <trkpt lat="41.057320972904563" lon="-7.288734018802643">
        <ele>451</ele>
        <time>2025-05-03T08:12:48Z</time>
      </trkpt>
      <trkpt lat="41.057312004268169" lon="-7.288912972435355">
        <ele>450.02999999999997</ele>
        <time>2025-05-03T08:12:49Z</time>
      </trkpt>
      <trkpt lat="41.057302029803395" lon="-7.289102990180254">
        <ele>449.06999999999999</ele>
        <time>2025-05-03T08:12:50Z</time>
      </trkpt>
      <trkpt lat="41.057291971519589" lon="-7.289298959076405">
        <ele>448.58999999999997</ele>
        <time>2025-05-03T08:12:51Z</time>
      </trkpt>
      <trkpt lat="41.057281997054815" lon="-7.289493000134826">
        <ele>447.63</ele>
        <time>2025-05-03T08:12:52Z</time>
      </trkpt>
      <trkpt lat="41.057330025359988" lon="-7.289668014273047">
        <ele>446.67000000000002</ele>
        <time>2025-05-03T08:12:53Z</time>
      </trkpt>
      <trkpt lat="41.057346034795046" lon="-7.289729034528136">
        <ele>445.70999999999998</ele>
        <time>2025-05-03T08:12:54Z</time>
      </trkpt>
      <trkpt lat="41.05746204033494" lon="-7.28984504006803">
        <ele>445.23000000000002</ele>
        <time>2025-05-03T08:12:55Z</time>
      </trkpt>
      <trkpt lat="41.057561030611396" lon="-7.289944030344486">
        <ele>444.26999999999998</ele>
        <time>2025-05-03T08:12:56Z</time>
      </trkpt>
      <trkpt lat="41.057662032544613" lon="-7.289993986487389">
        <ele>443.79000000000002</ele>
        <time>2025-05-03T08:12:57Z</time>
      </trkpt>
      <trkpt lat="41.059181001037359" lon="-7.290630005300045">
        <ele>438.5</ele>
        <time>2025-05-03T08:13:08Z</time>
      </trkpt>
      <trkpt lat="41.059319972991943" lon="-7.290651965886354">
        <ele>438.98000000000002</ele>
        <time>2025-05-03T08:13:09Z</time>
      </trkpt>
      <trkpt lat="41.059434972703457" lon="-7.290613995864987">
        <ele>438.98000000000002</ele>
        <time>2025-05-03T08:13:10Z</time>
      </trkpt>
      <trkpt lat="41.059551984071732" lon="-7.29057502001524">
        <ele>439.45999999999998</ele>
        <time>2025-05-03T08:13:11Z</time>
      </trkpt>
      <trkpt lat="41.059670001268387" lon="-7.290525985881686">
        <ele>439.45999999999998</ele>
        <time>2025-05-03T08:13:12Z</time>
      </trkpt>
      <trkpt lat="41.059774020686746" lon="-7.290457002818584">
        <ele>439.45999999999998</ele>
        <time>2025-05-03T08:13:13Z</time>
      </trkpt>
      <trkpt lat="41.060152966529131" lon="-7.290299003943801">
        <ele>439.94</ele>
        <time>2025-05-03T08:13:17Z</time>
      </trkpt>
      <trkpt lat="41.060240976512432" lon="-7.290284000337124">
        <ele>439.94</ele>
        <time>2025-05-03T08:13:18Z</time>
      </trkpt>
      <trkpt lat="41.060324963182211" lon="-7.290270002558827">
        <ele>440.42000000000002</ele>
        <time>2025-05-03T08:13:19Z</time>
      </trkpt>
      <trkpt lat="41.060324963182211" lon="-7.290270002558827">
        <ele>440.42000000000002</ele>
        <time>2025-05-03T08:13:20Z</time>
      </trkpt>
      <trkpt lat="41.060482040047646" lon="-7.290336973965168">
        <ele>440.89999999999998</ele>
        <time>2025-05-03T08:13:21Z</time>
      </trkpt>
      <trkpt lat="41.060573989525437" lon="-7.290386008098722">
        <ele>440.89999999999998</ele>
        <time>2025-05-03T08:13:22Z</time>
      </trkpt>
      <trkpt lat="41.06066501699388" lon="-7.290443005040288">
        <ele>441.38</ele>
        <time>2025-05-03T08:13:23Z</time>
      </trkpt>
      <trkpt lat="41.061965972185135" lon="-7.291426034644246">
        <ele>448.58999999999997</ele>
        <time>2025-05-03T08:13:36Z</time>
      </trkpt>
      <trkpt lat="41.062479028478265" lon="-7.291855020448566">
        <ele>453.88</ele>
        <time>2025-05-03T08:13:41Z</time>
      </trkpt>
      <trkpt lat="41.062581036239862" lon="-7.291941018775106">
        <ele>453.88</ele>
        <time>2025-05-03T08:13:42Z</time>
      </trkpt>
      <trkpt lat="41.062682960182428" lon="-7.292027017101646">
        <ele>454.36000000000001</ele>
        <time>2025-05-03T08:13:43Z</time>
      </trkpt>
      <trkpt lat="41.063677975907922" lon="-7.293196963146329">
        <ele>458.69</ele>
        <time>2025-05-03T08:13:54Z</time>
      </trkpt>
      <trkpt lat="41.063910992816091" lon="-7.293544979766011">
        <ele>459.64999999999998</ele>
        <time>2025-05-03T08:13:57Z</time>
      </trkpt>
      <trkpt lat="41.063956003636122" lon="-7.293679006397724">
        <ele>460.13</ele>
        <time>2025-05-03T08:13:58Z</time>
      </trkpt>
      <trkpt lat="41.063997996971011" lon="-7.293805992230773">
        <ele>460.61000000000001</ele>
        <time>2025-05-03T08:13:59Z</time>
      </trkpt>
      <trkpt lat="41.064001014456153" lon="-7.293938007205725">
        <ele>460.61000000000001</ele>
        <time>2025-05-03T08:14:00Z</time>
      </trkpt>
      <trkpt lat="41.064003026112914" lon="-7.294082008302212">
        <ele>461.08999999999997</ele>
        <time>2025-05-03T08:14:01Z</time>
      </trkpt>
      <trkpt lat="41.064005959779024" lon="-7.294227015227079">
        <ele>461.08999999999997</ele>
        <time>2025-05-03T08:14:02Z</time>
      </trkpt>
      <trkpt lat="41.063989028334618" lon="-7.296189973130822">
        <ele>462.05000000000001</ele>
        <time>2025-05-03T08:14:14Z</time>
      </trkpt>
      <trkpt lat="41.063959021121264" lon="-7.29652700945735">
        <ele>462.52999999999997</ele>
        <time>2025-05-03T08:14:16Z</time>
      </trkpt>
      <trkpt lat="41.063937982544303" lon="-7.296690037474036">
        <ele>462.52999999999997</ele>
        <time>2025-05-03T08:14:17Z</time>
      </trkpt>
      <trkpt lat="41.063885008916259" lon="-7.296846024692059">
        <ele>463.00999999999999</ele>
        <time>2025-05-03T08:14:18Z</time>
      </trkpt>
      <trkpt lat="41.063820971176028" lon="-7.297006035223603">
        <ele>463.49000000000001</ele>
        <time>2025-05-03T08:14:19Z</time>
      </trkpt>
      <trkpt lat="41.063746036961675" lon="-7.297169985249639">
        <ele>463.49000000000001</ele>
        <time>2025-05-03T08:14:20Z</time>
      </trkpt>
      <trkpt lat="41.062849005684257" lon="-7.298651989549398">
        <ele>467.81999999999999</ele>
        <time>2025-05-03T08:14:29Z</time>
      </trkpt>
      <trkpt lat="41.062332009896636" lon="-7.299396973103285">
        <ele>469.25999999999999</ele>
        <time>2025-05-03T08:14:34Z</time>
      </trkpt>
      <trkpt lat="41.062266966328025" lon="-7.299542985856533">
        <ele>469.25999999999999</ele>
        <time>2025-05-03T08:14:35Z</time>
      </trkpt>
      <trkpt lat="41.062238970771432" lon="-7.29968598112464">
        <ele>469.25999999999999</ele>
        <time>2025-05-03T08:14:36Z</time>
      </trkpt>
      <trkpt lat="41.06225498020649" lon="-7.299854038283229">
        <ele>469.25999999999999</ele>
        <time>2025-05-03T08:14:37Z</time>
      </trkpt>
      <trkpt lat="41.062286999076605" lon="-7.300010025501251">
        <ele>469.25999999999999</ele>
        <time>2025-05-03T08:14:38Z</time>
      </trkpt>
      <trkpt lat="41.062326980754733" lon="-7.300174981355667">
        <ele>468.77999999999997</ele>
        <time>2025-05-03T08:14:39Z</time>
      </trkpt>
      <trkpt lat="41.062368974089622" lon="-7.300348989665508">
        <ele>469.25999999999999</ele>
        <time>2025-05-03T08:14:40Z</time>
      </trkpt>
      <trkpt lat="41.062522027641535" lon="-7.300848970189691">
        <ele>469.25999999999999</ele>
        <time>2025-05-03T08:14:43Z</time>
      </trkpt>
      <trkpt lat="41.062592016533017" lon="-7.301005963236094">
        <ele>469.74000000000001</ele>
        <time>2025-05-03T08:14:44Z</time>
      </trkpt>
      <trkpt lat="41.062687989324331" lon="-7.301134960725904">
        <ele>470.22000000000003</ele>
        <time>2025-05-03T08:14:45Z</time>
      </trkpt>
      <trkpt lat="41.062812963500619" lon="-7.301244009286165">
        <ele>470.69999999999999</ele>
        <time>2025-05-03T08:14:46Z</time>
      </trkpt>
      <trkpt lat="41.062946990132332" lon="-7.30136102065444">
        <ele>470.69999999999999</ele>
        <time>2025-05-03T08:14:47Z</time>
      </trkpt>
      <trkpt lat="41.063085962086916" lon="-7.301481971517205">
        <ele>471.18000000000001</ele>
        <time>2025-05-03T08:14:48Z</time>
      </trkpt>
      <trkpt lat="41.063348986208439" lon="-7.301747007295489">
        <ele>471.66000000000003</ele>
        <time>2025-05-03T08:14:50Z</time>
      </trkpt>
      <trkpt lat="41.063444958999753" lon="-7.301892014220357">
        <ele>472.13999999999999</ele>
        <time>2025-05-03T08:14:51Z</time>
      </trkpt>
      <trkpt lat="41.063493993133307" lon="-7.302066022530198">
        <ele>472.63</ele>
        <time>2025-05-03T08:14:52Z</time>
      </trkpt>
      <trkpt lat="41.063535986468196" lon="-7.302256962284446">
        <ele>472.63</ele>
        <time>2025-05-03T08:14:53Z</time>
      </trkpt>
      <trkpt lat="41.063574040308595" lon="-7.302457960322499">
        <ele>473.11000000000001</ele>
        <time>2025-05-03T08:14:54Z</time>
      </trkpt>
      <trkpt lat="41.063771015033126" lon="-7.304358975961804">
        <ele>475.99000000000001</ele>
        <time>2025-05-03T08:15:02Z</time>
      </trkpt>
      <trkpt lat="41.064051976427436" lon="-7.307132966816425">
        <ele>477.43000000000001</ele>
        <time>2025-05-03T08:15:13Z</time>
      </trkpt>
      <trkpt lat="41.064063040539622" lon="-7.307518031448126">
        <ele>476.94999999999999</ele>
        <time>2025-05-03T08:15:15Z</time>
      </trkpt>
      <trkpt lat="41.064036972820759" lon="-7.307676030322909">
        <ele>476.47000000000003</ele>
        <time>2025-05-03T08:15:16Z</time>
      </trkpt>
      <trkpt lat="41.063997996971011" lon="-7.307818019762635">
        <ele>476.47000000000003</ele>
        <time>2025-05-03T08:15:17Z</time>
      </trkpt>
      <trkpt lat="41.063917027786374" lon="-7.307952968403697">
        <ele>476.47000000000003</ele>
        <time>2025-05-03T08:15:18Z</time>
      </trkpt>
      <trkpt lat="41.06382398866117" lon="-7.308063022792339">
        <ele>475.99000000000001</ele>
        <time>2025-05-03T08:15:19Z</time>
      </trkpt>
      <trkpt lat="41.063703037798405" lon="-7.308143991976976">
        <ele>475.99000000000001</ele>
        <time>2025-05-03T08:15:20Z</time>
      </trkpt>
      <trkpt lat="41.063569011166692" lon="-7.308191014453769">
        <ele>475.99000000000001</ele>
        <time>2025-05-03T08:15:21Z</time>
      </trkpt>
      <trkpt lat="41.063569011166692" lon="-7.308191014453769">
        <ele>475.99000000000001</ele>
        <time>2025-05-03T08:15:22Z</time>
      </trkpt>
      <trkpt lat="41.063283020630479" lon="-7.308191014453769">
        <ele>475.99000000000001</ele>
        <time>2025-05-03T08:15:23Z</time>
      </trkpt>
      <trkpt lat="41.063143964856863" lon="-7.308160001412034">
        <ele>475.99000000000001</ele>
        <time>2025-05-03T08:15:24Z</time>
      </trkpt>
      <trkpt lat="41.063039023429155" lon="-7.308118008077145">
        <ele>475.99000000000001</ele>
        <time>2025-05-03T08:15:25Z</time>
      </trkpt>
      <trkpt lat="41.062957970425487" lon="-7.30800099670887">
        <ele>475.99000000000001</ele>
        <time>2025-05-03T08:15:26Z</time>
      </trkpt>
      <trkpt lat="41.062877001240849" lon="-7.307883985340595">
        <ele>475.99000000000001</ele>
        <time>2025-05-03T08:15:27Z</time>
      </trkpt>
      <trkpt lat="41.062844982370734" lon="-7.307748030871153">
        <ele>475.99000000000001</ele>
        <time>2025-05-03T08:15:28Z</time>
      </trkpt>
      <trkpt lat="41.062818998470902" lon="-7.307563964277506">
        <ele>475.99000000000001</ele>
        <time>2025-05-03T08:15:29Z</time>
      </trkpt>
      <trkpt lat="41.062793014571071" lon="-7.307367995381355">
        <ele>475.99000000000001</ele>
        <time>2025-05-03T08:15:30Z</time>
      </trkpt>
      <trkpt lat="41.062772981822491" lon="-7.307154005393386">
        <ele>475.99000000000001</ele>
        <time>2025-05-03T08:15:31Z</time>
      </trkpt>
      <trkpt lat="41.062731994315982" lon="-7.306724013760686">
        <ele>476.47000000000003</ele>
        <time>2025-05-03T08:15:33Z</time>
      </trkpt>
      <trkpt lat="41.062682960182428" lon="-7.306513963267207">
        <ele>476.94999999999999</ele>
        <time>2025-05-03T08:15:34Z</time>
      </trkpt>
      <trkpt lat="41.062622023746371" lon="-7.306308019906282">
        <ele>476.94999999999999</ele>
        <time>2025-05-03T08:15:35Z</time>
      </trkpt>
      <trkpt lat="41.06218901462853" lon="-7.305459016934037">
        <ele>477.91000000000003</ele>
        <time>2025-05-03T08:15:40Z</time>
      </trkpt>
      <trkpt lat="41.062113996595144" lon="-7.305362960323691">
        <ele>478.38999999999999</ele>
        <time>2025-05-03T08:15:41Z</time>
      </trkpt>
      <trkpt lat="41.06201802380383" lon="-7.30531501583755">
        <ele>478.38999999999999</ele>
        <time>2025-05-03T08:15:42Z</time>
      </trkpt>
      <trkpt lat="41.061907969415188" lon="-7.305311998352408">
        <ele>478.87</ele>
        <time>2025-05-03T08:15:43Z</time>
      </trkpt>
      <trkpt lat="41.061777966096997" lon="-7.305318033322692">
        <ele>479.35000000000002</ele>
        <time>2025-05-03T08:15:44Z</time>
      </trkpt>
      <trkpt lat="41.061632037162781" lon="-7.305324990302324">
        <ele>479.83999999999997</ele>
        <time>2025-05-03T08:15:45Z</time>
      </trkpt>
      <trkpt lat="41.061475966125727" lon="-7.305304035544395">
        <ele>480.80000000000001</ele>
        <time>2025-05-03T08:15:46Z</time>
      </trkpt>
      <trkpt lat="41.061318973079324" lon="-7.30525097809732">
        <ele>481.27999999999997</ele>
        <time>2025-05-03T08:15:47Z</time>
      </trkpt>
      <trkpt lat="41.061158962547779" lon="-7.305198004469276">
        <ele>482.24000000000001</ele>
        <time>2025-05-03T08:15:48Z</time>
      </trkpt>
      <trkpt lat="41.061000963672996" lon="-7.305145030841231">
        <ele>483.19999999999999</ele>
        <time>2025-05-03T08:15:49Z</time>
      </trkpt>
      <trkpt lat="41.060843970626593" lon="-7.305092979222536">
        <ele>484.16000000000003</ele>
        <time>2025-05-03T08:15:50Z</time>
      </trkpt>
      <trkpt lat="41.060695024207234" lon="-7.305113011971116">
        <ele>485.12</ele>
        <time>2025-05-03T08:15:51Z</time>
      </trkpt>
      <trkpt lat="41.060552028939128" lon="-7.305132038891316">
        <ele>486.07999999999998</ele>
        <time>2025-05-03T08:15:52Z</time>
      </trkpt>
      <trkpt lat="41.060422025620937" lon="-7.305205967277288">
        <ele>487.05000000000001</ele>
        <time>2025-05-03T08:15:53Z</time>
      </trkpt>
      <trkpt lat="41.060294033959508" lon="-7.305302023887634">
        <ele>488.00999999999999</ele>
        <time>2025-05-03T08:15:54Z</time>
      </trkpt>
      <trkpt lat="41.060180962085724" lon="-7.305430015549064">
        <ele>488.97000000000003</ele>
        <time>2025-05-03T08:15:55Z</time>
      </trkpt>
      <trkpt lat="41.060102004557848" lon="-7.305581979453564">
        <ele>489.93000000000001</ele>
        <time>2025-05-03T08:15:56Z</time>
      </trkpt>
      <trkpt lat="41.060077026486397" lon="-7.305718017742038">
        <ele>490.88999999999999</ele>
        <time>2025-05-03T08:15:57Z</time>
      </trkpt>
      <trkpt lat="41.060087000951171" lon="-7.305848021060228">
        <ele>491.85000000000002</ele>
        <time>2025-05-03T08:15:58Z</time>
      </trkpt>
      <trkpt lat="41.060121031478047" lon="-7.305967966094613">
        <ele>492.32999999999998</ele>
        <time>2025-05-03T08:15:59Z</time>
      </trkpt>
      <trkpt lat="41.060208035632968" lon="-7.306082965806127">
        <ele>493.29000000000002</ele>
        <time>2025-05-03T08:16:00Z</time>
      </trkpt>
      <trkpt lat="41.060303002595901" lon="-7.306212969124317">
        <ele>493.76999999999998</ele>
        <time>2025-05-03T08:16:01Z</time>
      </trkpt>
      <trkpt lat="41.060408027842641" lon="-7.306354958564043">
        <ele>494.74000000000001</ele>
        <time>2025-05-03T08:16:02Z</time>
      </trkpt>
      <trkpt lat="41.060505006462336" lon="-7.306524021551013">
        <ele>495.22000000000003</ele>
        <time>2025-05-03T08:16:03Z</time>
      </trkpt>
      <trkpt lat="41.060596033930779" lon="-7.306717978790402">
        <ele>496.18000000000001</ele>
        <time>2025-05-03T08:16:04Z</time>
      </trkpt>
      <trkpt lat="41.061619967222214" lon="-7.308933986350894">
        <ele>508.67000000000002</ele>
        <time>2025-05-03T08:16:14Z</time>
      </trkpt>
      <trkpt lat="41.061763968318701" lon="-7.309330031275749">
        <ele>510.60000000000002</ele>
        <time>2025-05-03T08:16:16Z</time>
      </trkpt>
      <trkpt lat="41.061831023544073" lon="-7.309513008221984">
        <ele>511.56</ele>
        <time>2025-05-03T08:16:17Z</time>
      </trkpt>
      <trkpt lat="41.061840998008847" lon="-7.309691961854696">
        <ele>512.51999999999998</ele>
        <time>2025-05-03T08:16:18Z</time>
      </trkpt>
      <trkpt lat="41.061851978302002" lon="-7.309878040105104">
        <ele>513.48000000000002</ele>
        <time>2025-05-03T08:16:19Z</time>
      </trkpt>
      <trkpt lat="41.06180596165359" lon="-7.310064034536481">
        <ele>514.44000000000005</ele>
        <time>2025-05-03T08:16:20Z</time>
      </trkpt>
      <trkpt lat="41.061741001904011" lon="-7.310248017311096">
        <ele>515.39999999999998</ele>
        <time>2025-05-03T08:16:21Z</time>
      </trkpt>
      <trkpt lat="41.061663972213864" lon="-7.310436023399234">
        <ele>516.37</ele>
        <time>2025-05-03T08:16:22Z</time>
      </trkpt>
      <trkpt lat="41.060969028621912" lon="-7.311690039932728">
        <ele>523.09000000000003</ele>
        <time>2025-05-03T08:16:29Z</time>
      </trkpt>
      <trkpt lat="41.059984993189573" lon="-7.312745992094278">
        <ele>527.41999999999996</ele>
        <time>2025-05-03T08:16:37Z</time>
      </trkpt>
      <trkpt lat="41.059922967106104" lon="-7.31285696849227">
        <ele>527.89999999999998</ele>
        <time>2025-05-03T08:16:38Z</time>
      </trkpt>
      <trkpt lat="41.059921039268374" lon="-7.312973979860544">
        <ele>528.38</ele>
        <time>2025-05-03T08:16:39Z</time>
      </trkpt>
      <trkpt lat="41.059923972934484" lon="-7.313079005107284">
        <ele>528.86000000000001</ele>
        <time>2025-05-03T08:16:40Z</time>
      </trkpt>
      <trkpt lat="41.059989016503096" lon="-7.313175983726978">
        <ele>529.34000000000003</ele>
        <time>2025-05-03T08:16:41Z</time>
      </trkpt>
      <trkpt lat="41.060055987909436" lon="-7.313269022852182">
        <ele>529.82000000000005</ele>
        <time>2025-05-03T08:16:42Z</time>
      </trkpt>
      <trkpt lat="41.060166964307427" lon="-7.313282014802098">
        <ele>530.29999999999995</ele>
        <time>2025-05-03T08:16:43Z</time>
      </trkpt>
      <trkpt lat="41.060283975675702" lon="-7.313295006752014">
        <ele>531.26999999999998</ele>
        <time>2025-05-03T08:16:44Z</time>
      </trkpt>
      <trkpt lat="41.060410961508751" lon="-7.313310010358691">
        <ele>531.75</ele>
        <time>2025-05-03T08:16:45Z</time>
      </trkpt>
      <trkpt lat="41.060537025332451" lon="-7.313325013965368">
        <ele>532.23000000000002</ele>
        <time>2025-05-03T08:16:46Z</time>
      </trkpt>
      <trkpt lat="41.060650013387203" lon="-7.313374970108271">
        <ele>533.19000000000005</ele>
        <time>2025-05-03T08:16:47Z</time>
      </trkpt>
      <trkpt lat="41.060744980350137" lon="-7.313470020890236">
        <ele>533.66999999999996</ele>
        <time>2025-05-03T08:16:48Z</time>
      </trkpt>
      <trkpt lat="41.060825027525425" lon="-7.313594995066524">
        <ele>534.14999999999998</ele>
        <time>2025-05-03T08:16:49Z</time>
      </trkpt>
      <trkpt lat="41.060881018638611" lon="-7.313752993941307">
        <ele>535.11000000000001</ele>
        <time>2025-05-03T08:16:50Z</time>
      </trkpt>
      <trkpt lat="41.060939021408558" lon="-7.313918033614755">
        <ele>535.59000000000003</ele>
        <time>2025-05-03T08:16:51Z</time>
      </trkpt>
      <trkpt lat="41.061110012233257" lon="-7.314365040510893">
        <ele>538.48000000000002</ele>
        <time>2025-05-03T08:16:54Z</time>
      </trkpt>
      <trkpt lat="41.061209002509713" lon="-7.314512981101871">
        <ele>539.44000000000005</ele>
        <time>2025-05-03T08:16:55Z</time>
      </trkpt>
      <trkpt lat="41.061292989179492" lon="-7.314550029113889">
        <ele>539.91999999999996</ele>
        <time>2025-05-03T08:16:56Z</time>
      </trkpt>
      <trkpt lat="41.061417041346431" lon="-7.314594034105539">
        <ele>540.88</ele>
        <time>2025-05-03T08:16:57Z</time>
      </trkpt>
      <trkpt lat="41.061556013301015" lon="-7.31455497443676">
        <ele>541.36000000000001</ele>
        <time>2025-05-03T08:16:58Z</time>
      </trkpt>
      <trkpt lat="41.061703031882644" lon="-7.31451197527349">
        <ele>542.32000000000005</ele>
        <time>2025-05-03T08:16:59Z</time>
      </trkpt>
      <trkpt lat="41.061852984130383" lon="-7.314437963068485">
        <ele>543.27999999999997</ele>
        <time>2025-05-03T08:17:00Z</time>
      </trkpt>
      <trkpt lat="41.06279100291431" lon="-7.313997996971011">
        <ele>551.45000000000005</ele>
        <time>2025-05-03T08:17:07Z</time>
      </trkpt>
      <trkpt lat="41.062896028161049" lon="-7.313975030556321">
        <ele>552.40999999999997</ele>
        <time>2025-05-03T08:17:08Z</time>
      </trkpt>
      <trkpt lat="41.063004992902279" lon="-7.313959021121264">
        <ele>552.89999999999998</ele>
        <time>2025-05-03T08:17:09Z</time>
      </trkpt>
      <trkpt lat="41.063128961250186" lon="-7.313990034162998">
        <ele>553.38</ele>
        <time>2025-05-03T08:17:10Z</time>
      </trkpt>
      <trkpt lat="41.063258964568377" lon="-7.314047031104565">
        <ele>554.34000000000003</ele>
        <time>2025-05-03T08:17:11Z</time>
      </trkpt>
      <trkpt lat="41.063531963154674" lon="-7.314182985574007">
        <ele>555.29999999999995</ele>
        <time>2025-05-03T08:17:13Z</time>
      </trkpt>
      <trkpt lat="41.063652997836471" lon="-7.314304020255804">
        <ele>555.77999999999997</ele>
        <time>2025-05-03T08:17:14Z</time>
      </trkpt>
      <trkpt lat="41.063770009204745" lon="-7.314431006088853">
        <ele>556.25999999999999</ele>
        <time>2025-05-03T08:17:15Z</time>
      </trkpt>
      <trkpt lat="41.063870005309582" lon="-7.314592022448778">
        <ele>557.22000000000003</ele>
        <time>2025-05-03T08:17:16Z</time>
      </trkpt>
      <trkpt lat="41.063946029171348" lon="-7.31476997025311">
        <ele>558.17999999999995</ele>
        <time>2025-05-03T08:17:17Z</time>
      </trkpt>
      <trkpt lat="41.064021969214082" lon="-7.314954036846757">
        <ele>559.13999999999999</ele>
        <time>2025-05-03T08:17:18Z</time>
      </trkpt>
      <trkpt lat="41.064053988084197" lon="-7.31515503488481">
        <ele>560.59000000000003</ele>
        <time>2025-05-03T08:17:19Z</time>
      </trkpt>
      <trkpt lat="41.064088018611073" lon="-7.315361984074116">
        <ele>561.54999999999995</ele>
        <time>2025-05-03T08:17:20Z</time>
      </trkpt>
      <trkpt lat="41.064148033037782" lon="-7.315770015120506">
        <ele>563.95000000000005</ele>
        <time>2025-05-03T08:17:22Z</time>
      </trkpt>
      <trkpt lat="41.064148033037782" lon="-7.315974030643702">
        <ele>566.35000000000002</ele>
        <time>2025-05-03T08:17:24Z</time>
      </trkpt>
      <trkpt lat="41.064107967540622" lon="-7.316389018669725">
        <ele>567.32000000000005</ele>
        <time>2025-05-03T08:17:25Z</time>
      </trkpt>
      <trkpt lat="41.064069997519255" lon="-7.316597979515791">
        <ele>568.27999999999997</ele>
        <time>2025-05-03T08:17:26Z</time>
      </trkpt>
      <trkpt lat="41.063789958134294" lon="-7.317868005484343">
        <ele>574.52999999999997</ele>
        <time>2025-05-03T08:17:32Z</time>
      </trkpt>
      <trkpt lat="41.063771015033126" lon="-7.318069003522396">
        <ele>575.49000000000001</ele>
        <time>2025-05-03T08:17:33Z</time>
      </trkpt>
      <trkpt lat="41.063791969791055" lon="-7.318257009610534">
        <ele>575.97000000000003</ele>
        <time>2025-05-03T08:17:34Z</time>
      </trkpt>
      <trkpt lat="41.063842009752989" lon="-7.318436969071627">
        <ele>576.92999999999995</ele>
        <time>2025-05-03T08:17:35Z</time>
      </trkpt>
      <trkpt lat="41.063935970887542" lon="-7.3185920342803">
        <ele>577.88999999999999</ele>
        <time>2025-05-03T08:17:36Z</time>
      </trkpt>
      <trkpt lat="41.064058011397719" lon="-7.31872002594173">
        <ele>578.85000000000002</ele>
        <time>2025-05-03T08:17:37Z</time>
      </trkpt>
      <trkpt lat="41.064178962260485" lon="-7.318848017603159">
        <ele>579.80999999999995</ele>
        <time>2025-05-03T08:17:38Z</time>
      </trkpt>
      <trkpt lat="41.06429697945714" lon="-7.318970980122685">
        <ele>580.76999999999998</ele>
        <time>2025-05-03T08:17:39Z</time>
      </trkpt>
      <trkpt lat="41.064392030239105" lon="-7.319109030067921">
        <ele>581.73000000000002</ele>
        <time>2025-05-03T08:17:40Z</time>
      </trkpt>
      <trkpt lat="41.064469981938601" lon="-7.319297958165407">
        <ele>582.70000000000005</ele>
        <time>2025-05-03T08:17:41Z</time>
      </trkpt>
      <trkpt lat="41.064512981101871" lon="-7.319469032809138">
        <ele>583.17999999999995</ele>
        <time>2025-05-03T08:17:42Z</time>
      </trkpt>
      <trkpt lat="41.064561009407043" lon="-7.319662990048528">
        <ele>584.13999999999999</ele>
        <time>2025-05-03T08:17:43Z</time>
      </trkpt>
      <trkpt lat="41.064609037712216" lon="-7.319852001965046">
        <ele>584.62</ele>
        <time>2025-05-03T08:17:44Z</time>
      </trkpt>
      <trkpt lat="41.064686989411712" lon="-7.320025004446507">
        <ele>585.58000000000004</ele>
        <time>2025-05-03T08:17:45Z</time>
      </trkpt>
      <trkpt lat="41.064776005223393" lon="-7.320191971957684">
        <ele>586.05999999999995</ele>
        <time>2025-05-03T08:17:46Z</time>
      </trkpt>
      <trkpt lat="41.06536902487278" lon="-7.321288995444775">
        <ele>592.78999999999996</ele>
        <time>2025-05-03T08:17:53Z</time>
      </trkpt>
      <trkpt lat="41.065431972965598" lon="-7.321414975449443">
        <ele>593.26999999999998</ele>
        <time>2025-05-03T08:17:54Z</time>
      </trkpt>
      <trkpt lat="41.065459968522191" lon="-7.321555959060788">
        <ele>594.23000000000002</ele>
        <time>2025-05-03T08:17:55Z</time>
      </trkpt>
      <trkpt lat="41.06547899544239" lon="-7.321697026491165">
        <ele>595.19000000000005</ele>
        <time>2025-05-03T08:17:56Z</time>
      </trkpt>
      <trkpt lat="41.06547899544239" lon="-7.321852007880807">
        <ele>595.66999999999996</ele>
        <time>2025-05-03T08:17:57Z</time>
      </trkpt>
      <trkpt lat="41.06547899544239" lon="-7.322018975391984">
        <ele>596.63999999999999</ele>
        <time>2025-05-03T08:17:58Z</time>
      </trkpt>
      <trkpt lat="41.065503973513842" lon="-7.32254502363503">
        <ele>598.55999999999995</ele>
        <time>2025-05-03T08:18:01Z</time>
      </trkpt>
      <trkpt lat="41.065514031797647" lon="-7.322733029723167">
        <ele>599.03999999999996</ele>
        <time>2025-05-03T08:18:02Z</time>
      </trkpt>
      <trkpt lat="41.065688040107489" lon="-7.323478013277054">
        <ele>602.88</ele>
        <time>2025-05-03T08:18:06Z</time>
      </trkpt>
      <trkpt lat="41.065776972100139" lon="-7.323606004938483">
        <ele>603.85000000000002</ele>
        <time>2025-05-03T08:18:07Z</time>
      </trkpt>
      <trkpt lat="41.065876968204975" lon="-7.323690997436643">
        <ele>604.33000000000004</ele>
        <time>2025-05-03T08:18:08Z</time>
      </trkpt>
      <trkpt lat="41.065988028421998" lon="-7.323703989386559">
        <ele>605.28999999999996</ele>
        <time>2025-05-03T08:18:09Z</time>
      </trkpt>
      <trkpt lat="41.066102022305131" lon="-7.32368303462863">
        <ele>606.25</ele>
        <time>2025-05-03T08:18:10Z</time>
      </trkpt>
      <trkpt lat="41.066222973167896" lon="-7.323669036850333">
        <ele>607.21000000000004</ele>
        <time>2025-05-03T08:18:11Z</time>
      </trkpt>
      <trkpt lat="41.066347025334835" lon="-7.323657972738147">
        <ele>608.16999999999996</ele>
        <time>2025-05-03T08:18:12Z</time>
      </trkpt>
      <trkpt lat="41.06646403670311" lon="-7.323699966073036">
        <ele>609.13</ele>
        <time>2025-05-03T08:18:13Z</time>
      </trkpt>
      <trkpt lat="41.06657300144434" lon="-7.323783030733466">
        <ele>609.61000000000001</ele>
        <time>2025-05-03T08:18:14Z</time>
      </trkpt>
      <trkpt lat="41.066668974235654" lon="-7.3238779976964">
        <ele>610.57000000000005</ele>
        <time>2025-05-03T08:18:15Z</time>
      </trkpt>
      <trkpt lat="41.066765030846" lon="-7.323973970487714">
        <ele>611.05999999999995</ele>
        <time>2025-05-03T08:18:16Z</time>
      </trkpt>
      <trkpt lat="41.066886987537146" lon="-7.324012024328113">
        <ele>611.53999999999996</ele>
        <time>2025-05-03T08:18:17Z</time>
      </trkpt>
      <trkpt lat="41.067010033875704" lon="-7.32403096742928">
        <ele>612.01999999999998</ele>
        <time>2025-05-03T08:18:18Z</time>
      </trkpt>
      <trkpt lat="41.067135008051991" lon="-7.324011018499732">
        <ele>612.01999999999998</ele>
        <time>2025-05-03T08:18:19Z</time>
      </trkpt>
      <trkpt lat="41.067255958914757" lon="-7.323930971324444">
        <ele>612.5</ele>
        <time>2025-05-03T08:18:20Z</time>
      </trkpt>
      <trkpt lat="41.067345980554819" lon="-7.323825024068356">
        <ele>612.01999999999998</ele>
        <time>2025-05-03T08:18:21Z</time>
      </trkpt>
      <trkpt lat="41.067400965839624" lon="-7.32364003546536">
        <ele>612.01999999999998</ele>
        <time>2025-05-03T08:18:22Z</time>
      </trkpt>
      <trkpt lat="41.067451005801558" lon="-7.323473989963532">
        <ele>612.5</ele>
        <time>2025-05-03T08:18:23Z</time>
      </trkpt>
      <trkpt lat="41.067500961944461" lon="-7.323306016623974">
        <ele>612.5</ele>
        <time>2025-05-03T08:18:24Z</time>
      </trkpt>
      <trkpt lat="41.067563993856311" lon="-7.323137037456036">
        <ele>612.98000000000002</ele>
        <time>2025-05-03T08:18:25Z</time>
      </trkpt>
      <trkpt lat="41.067654015496373" lon="-7.322977026924491">
        <ele>613.46000000000004</ele>
        <time>2025-05-03T08:18:26Z</time>
      </trkpt>
      <trkpt lat="41.067746970802546" lon="-7.322810981422663">
        <ele>614.41999999999996</ele>
        <time>2025-05-03T08:18:27Z</time>
      </trkpt>
      <trkpt lat="41.06784000992775" lon="-7.322646025568247">
        <ele>614.41999999999996</ele>
        <time>2025-05-03T08:18:28Z</time>
      </trkpt>
      <trkpt lat="41.067925002425909" lon="-7.322490960359573">
        <ele>614.89999999999998</ele>
        <time>2025-05-03T08:18:29Z</time>
      </trkpt>
      <trkpt lat="41.067945035174489" lon="-7.322314018383622">
        <ele>615.38</ele>
        <time>2025-05-03T08:18:30Z</time>
      </trkpt>
      <trkpt lat="41.067922990769148" lon="-7.322146967053413">
        <ele>616.34000000000003</ele>
        <time>2025-05-03T08:18:31Z</time>
      </trkpt>
      <trkpt lat="41.067899018526077" lon="-7.322001038119197">
        <ele>616.82000000000005</ele>
        <time>2025-05-03T08:18:32Z</time>
      </trkpt>
      <trkpt lat="41.067875968292356" lon="-7.321889977902174">
        <ele>617.77999999999997</ele>
        <time>2025-05-03T08:18:33Z</time>
      </trkpt>
      <trkpt lat="41.067817965522408" lon="-7.321614967659116">
        <ele>622.11000000000001</ele>
        <time>2025-05-03T08:18:39Z</time>
      </trkpt>
      <trkpt lat="41.067817965522408" lon="-7.321614967659116">
        <ele>623.07000000000005</ele>
        <time>2025-05-03T08:18:40Z</time>
      </trkpt>
      <trkpt lat="41.067817965522408" lon="-7.321614967659116">
        <ele>624.50999999999999</ele>
        <time>2025-05-03T08:18:49Z</time>
      </trkpt>
      <trkpt lat="41.067773038521409" lon="-7.321619996801019">
        <ele>628.84000000000003</ele>
        <time>2025-05-03T08:24:34Z</time>
      </trkpt>
      <trkpt lat="41.067759040743113" lon="-7.321565011516213">
        <ele>632.20000000000005</ele>
        <time>2025-05-03T08:25:19Z</time>
      </trkpt>
      <trkpt lat="41.06773498468101" lon="-7.32157900929451">
        <ele>631.24000000000001</ele>
        <time>2025-05-03T08:26:09Z</time>
      </trkpt>
      <trkpt lat="41.06784000992775" lon="-7.321482030674815">
        <ele>630.75999999999999</ele>
        <time>2025-05-03T08:26:16Z</time>
      </trkpt>
      <trkpt lat="41.067879991605878" lon="-7.321320008486509">
        <ele>631.24000000000001</ele>
        <time>2025-05-03T08:26:18Z</time>
      </trkpt>
      <trkpt lat="41.067922990769148" lon="-7.321233004331589">
        <ele>631.24000000000001</ele>
        <time>2025-05-03T08:26:19Z</time>
      </trkpt>
      <trkpt lat="41.06796900741756" lon="-7.321140971034765">
        <ele>631.24000000000001</ele>
        <time>2025-05-03T08:26:20Z</time>
      </trkpt>
      <trkpt lat="41.068394975736737" lon="-7.320394981652498">
        <ele>634.13</ele>
        <time>2025-05-03T08:26:26Z</time>
      </trkpt>
      <trkpt lat="41.068489020690322" lon="-7.320316024124622">
        <ele>635.09000000000003</ele>
        <time>2025-05-03T08:26:27Z</time>
      </trkpt>
      <trkpt lat="41.068580970168114" lon="-7.320285011082888">
        <ele>635.57000000000005</ele>
        <time>2025-05-03T08:26:28Z</time>
      </trkpt>
      <trkpt lat="41.068681972101331" lon="-7.320285011082888">
        <ele>636.52999999999997</ele>
        <time>2025-05-03T08:26:29Z</time>
      </trkpt>
      <trkpt lat="41.06876696459949" lon="-7.320315018296242">
        <ele>637.00999999999999</ele>
        <time>2025-05-03T08:26:30Z</time>
      </trkpt>
      <trkpt lat="41.068846005946398" lon="-7.320404034107924">
        <ele>637.49000000000001</ele>
        <time>2025-05-03T08:26:31Z</time>
      </trkpt>
      <trkpt lat="41.068921023979783" lon="-7.320496989414096">
        <ele>637.97000000000003</ele>
        <time>2025-05-03T08:26:32Z</time>
      </trkpt>
      <trkpt lat="41.068982966244221" lon="-7.320626992732287">
        <ele>638.45000000000005</ele>
        <time>2025-05-03T08:26:33Z</time>
      </trkpt>
      <trkpt lat="41.069052033126354" lon="-7.320770993828774">
        <ele>638.92999999999995</ele>
        <time>2025-05-03T08:26:34Z</time>
      </trkpt>
      <trkpt lat="41.069749994203448" lon="-7.322218967601657">
        <ele>644.70000000000005</ele>
        <time>2025-05-03T08:26:42Z</time>
      </trkpt>
      <trkpt lat="41.07071902602911" lon="-7.323709018528462">
        <ele>652.87</ele>
        <time>2025-05-03T08:26:50Z</time>
      </trkpt>
      <trkpt lat="41.071060001850128" lon="-7.324212016537786">
        <ele>655.75999999999999</ele>
        <time>2025-05-03T08:26:53Z</time>
      </trkpt>
      <trkpt lat="41.071139965206385" lon="-7.324388958513737">
        <ele>656.72000000000003</ele>
        <time>2025-05-03T08:26:54Z</time>
      </trkpt>
      <trkpt lat="41.071206014603376" lon="-7.324582999572158">
        <ele>657.67999999999995</ele>
        <time>2025-05-03T08:26:55Z</time>
      </trkpt>
      <trkpt lat="41.071329982951283" lon="-7.324943002313376">
        <ele>660.08000000000004</ele>
        <time>2025-05-03T08:26:57Z</time>
      </trkpt>
      <trkpt lat="41.071431990712881" lon="-7.325071999803186">
        <ele>660.55999999999995</ele>
        <time>2025-05-03T08:26:58Z</time>
      </trkpt>
      <trkpt lat="41.071547996252775" lon="-7.325204014778137">
        <ele>662.00999999999999</ele>
        <time>2025-05-03T08:26:59Z</time>
      </trkpt>
      <trkpt lat="41.072036996483803" lon="-7.325766021385789">
        <ele>665.85000000000002</ele>
        <time>2025-05-03T08:27:03Z</time>
      </trkpt>
      <trkpt lat="41.072097010910511" lon="-7.325938018038869">
        <ele>666.80999999999995</ele>
        <time>2025-05-03T08:27:04Z</time>
      </trkpt>
      <trkpt lat="41.072132969275117" lon="-7.326100040227175">
        <ele>667.28999999999996</ele>
        <time>2025-05-03T08:27:05Z</time>
      </trkpt>
      <trkpt lat="41.07213799841702" lon="-7.326260972768068">
        <ele>668.25</ele>
        <time>2025-05-03T08:27:06Z</time>
      </trkpt>
      <trkpt lat="41.072105979546905" lon="-7.326431963592768">
        <ele>669.22000000000003</ele>
        <time>2025-05-03T08:27:07Z</time>
      </trkpt>
      <trkpt lat="41.072058035060763" lon="-7.326601026579738">
        <ele>670.17999999999995</ele>
        <time>2025-05-03T08:27:08Z</time>
      </trkpt>
      <trkpt lat="41.07198603451252" lon="-7.326773023232818">
        <ele>670.65999999999997</ele>
        <time>2025-05-03T08:27:09Z</time>
      </trkpt>
      <trkpt lat="41.071368958801031" lon="-7.327923020347953">
        <ele>677.38999999999999</ele>
        <time>2025-05-03T08:27:16Z</time>
      </trkpt>
      <trkpt lat="41.070980038493872" lon="-7.328198030591011">
        <ele>681.23000000000002</ele>
        <time>2025-05-03T08:27:19Z</time>
      </trkpt>
      <trkpt lat="41.070822039619088" lon="-7.328288974240422">
        <ele>682.66999999999996</ele>
        <time>2025-05-03T08:27:20Z</time>
      </trkpt>
      <trkpt lat="41.069862982258201" lon="-7.328699016943574">
        <ele>687.96000000000004</ele>
        <time>2025-05-03T08:27:26Z</time>
      </trkpt>
      <trkpt lat="41.069739013910294" lon="-7.328803036361933">
        <ele>688.44000000000005</ele>
        <time>2025-05-03T08:27:27Z</time>
      </trkpt>
      <trkpt lat="41.06966701336205" lon="-7.328962041065097">
        <ele>689.39999999999998</ele>
        <time>2025-05-03T08:27:28Z</time>
      </trkpt>
      <trkpt lat="41.069628037512302" lon="-7.329139988869429">
        <ele>689.88</ele>
        <time>2025-05-03T08:27:29Z</time>
      </trkpt>
      <trkpt lat="41.069606998935342" lon="-7.329320032149553">
        <ele>690.84000000000003</ele>
        <time>2025-05-03T08:27:30Z</time>
      </trkpt>
      <trkpt lat="41.069585960358381" lon="-7.329500997439027">
        <ele>691.33000000000004</ele>
        <time>2025-05-03T08:27:31Z</time>
      </trkpt>
      <trkpt lat="41.069590989500284" lon="-7.329899976029992">
        <ele>693.25</ele>
        <time>2025-05-03T08:27:33Z</time>
      </trkpt>
      <trkpt lat="41.069612028077245" lon="-7.330098040401936">
        <ele>693.73000000000002</ele>
        <time>2025-05-03T08:27:34Z</time>
      </trkpt>
      <trkpt lat="41.069682016968727" lon="-7.330250004306436">
        <ele>694.69000000000005</ele>
        <time>2025-05-03T08:27:35Z</time>
      </trkpt>
      <trkpt lat="41.069770026952028" lon="-7.330377995967865">
        <ele>695.64999999999998</ele>
        <time>2025-05-03T08:27:36Z</time>
      </trkpt>
      <trkpt lat="41.069899024441838" lon="-7.330466005951166">
        <ele>696.61000000000001</ele>
        <time>2025-05-03T08:27:37Z</time>
      </trkpt>
      <trkpt lat="41.070042019709945" lon="-7.330562984570861">
        <ele>697.57000000000005</ele>
        <time>2025-05-03T08:27:38Z</time>
      </trkpt>
      <trkpt lat="41.070191971957684" lon="-7.330664992332459">
        <ele>698.04999999999995</ele>
        <time>2025-05-03T08:27:39Z</time>
      </trkpt>
      <trkpt lat="41.070362040773034" lon="-7.330708997324109">
        <ele>699.01999999999998</ele>
        <time>2025-05-03T08:27:40Z</time>
      </trkpt>
      <trkpt lat="41.070538982748985" lon="-7.330751996487379">
        <ele>699.5</ele>
        <time>2025-05-03T08:27:41Z</time>
      </trkpt>
      <trkpt lat="41.070736041292548" lon="-7.330799018964171">
        <ele>700.46000000000004</ele>
        <time>2025-05-03T08:27:42Z</time>
      </trkpt>
      <trkpt lat="41.070916000753641" lon="-7.330808993428946">
        <ele>701.41999999999996</ele>
        <time>2025-05-03T08:27:43Z</time>
      </trkpt>
      <trkpt lat="41.072345031425357" lon="-7.330928016453981">
        <ele>709.11000000000001</ele>
        <time>2025-05-03T08:27:51Z</time>
      </trkpt>
      <trkpt lat="41.072490960359573" lon="-7.331022983416915">
        <ele>709.59000000000003</ele>
        <time>2025-05-03T08:27:52Z</time>
      </trkpt>
      <trkpt lat="41.072644013911486" lon="-7.331121973693371">
        <ele>710.54999999999995</ele>
        <time>2025-05-03T08:27:53Z</time>
      </trkpt>
      <trkpt lat="41.072805030271411" lon="-7.331228004768491">
        <ele>711.50999999999999</ele>
        <time>2025-05-03T08:27:54Z</time>
      </trkpt>
      <trkpt lat="41.072973003610969" lon="-7.33133202418685">
        <ele>711.99000000000001</ele>
        <time>2025-05-03T08:27:55Z</time>
      </trkpt>
      <trkpt lat="41.073146006092429" lon="-7.331437971442938">
        <ele>712.47000000000003</ele>
        <time>2025-05-03T08:27:56Z</time>
      </trkpt>
      <trkpt lat="41.073324959725142" lon="-7.33154802583158">
        <ele>712.95000000000005</ele>
        <time>2025-05-03T08:27:57Z</time>
      </trkpt>
      <trkpt lat="41.073508020490408" lon="-7.331659002229571">
        <ele>713.44000000000005</ele>
        <time>2025-05-03T08:27:58Z</time>
      </trkpt>
      <trkpt lat="41.074326010420918" lon="-7.33206401579082">
        <ele>714.88</ele>
        <time>2025-05-03T08:28:03Z</time>
      </trkpt>
      <trkpt lat="41.074429024010897" lon="-7.332183960825205">
        <ele>715.36000000000001</ele>
        <time>2025-05-03T08:28:04Z</time>
      </trkpt>
      <trkpt lat="41.074505969882011" lon="-7.332310024648905">
        <ele>715.84000000000003</ele>
        <time>2025-05-03T08:28:05Z</time>
      </trkpt>
      <trkpt lat="41.074548969045281" lon="-7.332455031573772">
        <ele>715.84000000000003</ele>
        <time>2025-05-03T08:28:06Z</time>
      </trkpt>
      <trkpt lat="41.074598003178835" lon="-7.33262300491333">
        <ele>715.84000000000003</ele>
        <time>2025-05-03T08:28:07Z</time>
      </trkpt>
      <trkpt lat="41.0745860170573" lon="-7.33275099657476">
        <ele>715.84000000000003</ele>
        <time>2025-05-03T08:28:08Z</time>
      </trkpt>
      <trkpt lat="41.074553998187184" lon="-7.332926010712981">
        <ele>716.32000000000005</ele>
        <time>2025-05-03T08:28:09Z</time>
      </trkpt>
      <trkpt lat="41.074515022337437" lon="-7.333113010972738">
        <ele>716.32000000000005</ele>
        <time>2025-05-03T08:28:10Z</time>
      </trkpt>
      <trkpt lat="41.074420977383852" lon="-7.333457004278898">
        <ele>716.79999999999995</ele>
        <time>2025-05-03T08:28:12Z</time>
      </trkpt>
      <trkpt lat="41.074347971007228" lon="-7.333609974011779">
        <ele>717.27999999999997</ele>
        <time>2025-05-03T08:28:13Z</time>
      </trkpt>
      <trkpt lat="41.074250992387533" lon="-7.333755986765027">
        <ele>717.75999999999999</ele>
        <time>2025-05-03T08:28:14Z</time>
      </trkpt>
      <trkpt lat="41.07390196993947" lon="-7.334348000586033">
        <ele>719.67999999999995</ele>
        <time>2025-05-03T08:28:18Z</time>
      </trkpt>
      <trkpt lat="41.0738589707762" lon="-7.334509016945958">
        <ele>719.67999999999995</ele>
        <time>2025-05-03T08:28:19Z</time>
      </trkpt>
      <trkpt lat="41.073843967169523" lon="-7.334687970578671">
        <ele>720.15999999999997</ele>
        <time>2025-05-03T08:28:20Z</time>
      </trkpt>
      <trkpt lat="41.073790993541479" lon="-7.335473019629717">
        <ele>722.57000000000005</ele>
        <time>2025-05-03T08:28:24Z</time>
      </trkpt>
      <trkpt lat="41.073730979114771" lon="-7.335654990747571">
        <ele>723.04999999999995</ele>
        <time>2025-05-03T08:28:25Z</time>
      </trkpt>
      <trkpt lat="41.073574991896749" lon="-7.3362129740417">
        <ele>724.97000000000003</ele>
        <time>2025-05-03T08:28:28Z</time>
      </trkpt>
      <trkpt lat="41.073551019653678" lon="-7.336392011493444">
        <ele>725.45000000000005</ele>
        <time>2025-05-03T08:28:29Z</time>
      </trkpt>
      <trkpt lat="41.07360097579658" lon="-7.336549004539847">
        <ele>725.92999999999995</ele>
        <time>2025-05-03T08:28:30Z</time>
      </trkpt>
      <trkpt lat="41.073668031021953" lon="-7.336709015071392">
        <ele>726.40999999999997</ele>
        <time>2025-05-03T08:28:31Z</time>
      </trkpt>
      <trkpt lat="41.073741959407926" lon="-7.336871037259698">
        <ele>726.88999999999999</ele>
        <time>2025-05-03T08:28:32Z</time>
      </trkpt>
      <trkpt lat="41.073830975219607" lon="-7.337034987285733">
        <ele>727.37</ele>
        <time>2025-05-03T08:28:33Z</time>
      </trkpt>
      <trkpt lat="41.073918985202909" lon="-7.337196003645659">
        <ele>727.86000000000001</ele>
        <time>2025-05-03T08:28:34Z</time>
      </trkpt>
      <trkpt lat="41.073989979922771" lon="-7.337360959500074">
        <ele>728.34000000000003</ele>
        <time>2025-05-03T08:28:35Z</time>
      </trkpt>
      <trkpt lat="41.0740299616009" lon="-7.337534967809916">
        <ele>728.82000000000005</ele>
        <time>2025-05-03T08:28:36Z</time>
      </trkpt>
      <trkpt lat="41.074040019884706" lon="-7.337722973898053">
        <ele>729.29999999999995</ele>
        <time>2025-05-03T08:28:37Z</time>
      </trkpt>
      <trkpt lat="41.074040019884706" lon="-7.337917014956474">
        <ele>729.29999999999995</ele>
        <time>2025-05-03T08:28:38Z</time>
      </trkpt>
      <trkpt lat="41.074009006842971" lon="-7.33812103047967">
        <ele>729.29999999999995</ele>
        <time>2025-05-03T08:28:39Z</time>
      </trkpt>
      <trkpt lat="41.073971036821604" lon="-7.338334014639258">
        <ele>728.82000000000005</ele>
        <time>2025-05-03T08:28:40Z</time>
      </trkpt>
      <trkpt lat="41.073760986328125" lon="-7.339902017265558">
        <ele>724.00999999999999</ele>
        <time>2025-05-03T08:28:47Z</time>
      </trkpt>
      <trkpt lat="41.07381203211844" lon="-7.340063033625484">
        <ele>723.52999999999997</ele>
        <time>2025-05-03T08:28:48Z</time>
      </trkpt>
      <trkpt lat="41.073868023231626" lon="-7.340221032500267">
        <ele>722.57000000000005</ele>
        <time>2025-05-03T08:28:49Z</time>
      </trkpt>
      <trkpt lat="41.073954021558166" lon="-7.340366961434484">
        <ele>721.61000000000001</ele>
        <time>2025-05-03T08:28:50Z</time>
      </trkpt>
      <trkpt lat="41.074064997956157" lon="-7.340510040521622">
        <ele>721.13</ele>
        <time>2025-05-03T08:28:51Z</time>
      </trkpt>
      <trkpt lat="41.074188966304064" lon="-7.340655969455838">
        <ele>720.64999999999998</ele>
        <time>2025-05-03T08:28:52Z</time>
      </trkpt>
      <trkpt lat="41.074427012354136" lon="-7.340922011062503">
        <ele>719.67999999999995</ele>
        <time>2025-05-03T08:28:54Z</time>
      </trkpt>
      <trkpt lat="41.074502030387521" lon="-7.341059977188706">
        <ele>719.67999999999995</ele>
        <time>2025-05-03T08:28:55Z</time>
      </trkpt>
      <trkpt lat="41.074555004015565" lon="-7.341204984113574">
        <ele>719.20000000000005</ele>
        <time>2025-05-03T08:28:56Z</time>
      </trkpt>
      <trkpt lat="41.074555004015565" lon="-7.341362982988358">
        <ele>719.20000000000005</ele>
        <time>2025-05-03T08:28:57Z</time>
      </trkpt>
      <trkpt lat="41.074555004015565" lon="-7.341571021825075">
        <ele>718.72000000000003</ele>
        <time>2025-05-03T08:28:58Z</time>
      </trkpt>
      <trkpt lat="41.074538994580507" lon="-7.341704964637756">
        <ele>718.24000000000001</ele>
        <time>2025-05-03T08:28:59Z</time>
      </trkpt>
      <trkpt lat="41.074404967948794" lon="-7.342480961233378">
        <ele>715.84000000000003</ele>
        <time>2025-05-03T08:29:06Z</time>
      </trkpt>
      <trkpt lat="41.074383007362485" lon="-7.34257198870182">
        <ele>714.39999999999998</ele>
        <time>2025-05-03T08:29:09Z</time>
      </trkpt>
      <trkpt lat="41.074383007362485" lon="-7.34257198870182">
        <ele>713.91999999999996</ele>
        <time>2025-05-03T08:29:10Z</time>
      </trkpt>
      <trkpt lat="41.074383007362485" lon="-7.34257198870182">
        <ele>712.95000000000005</ele>
        <time>2025-05-03T08:29:27Z</time>
      </trkpt>
      <trkpt lat="41.074376972392201" lon="-7.342599984258413">
        <ele>711.99000000000001</ele>
        <time>2025-05-03T08:30:05Z</time>
      </trkpt>
      <trkpt lat="41.074373032897711" lon="-7.342618005350232">
        <ele>711.99000000000001</ele>
        <time>2025-05-03T08:30:06Z</time>
      </trkpt>
      <trkpt lat="41.07420195825398" lon="-7.342965016141534">
        <ele>711.50999999999999</ele>
        <time>2025-05-03T08:30:11Z</time>
      </trkpt>
      <trkpt lat="41.073616985231638" lon="-7.343759033828974">
        <ele>710.54999999999995</ele>
        <time>2025-05-03T08:30:17Z</time>
      </trkpt>
      <trkpt lat="41.073390003293753" lon="-7.344062039628625">
        <ele>710.07000000000005</ele>
        <time>2025-05-03T08:30:19Z</time>
      </trkpt>
      <trkpt lat="41.072720037773252" lon="-7.345408005639911">
        <ele>710.54999999999995</ele>
        <time>2025-05-03T08:30:26Z</time>
      </trkpt>
      <trkpt lat="41.072449972853065" lon="-7.345954002812505">
        <ele>710.54999999999995</ele>
        <time>2025-05-03T08:30:29Z</time>
      </trkpt>
      <trkpt lat="41.072338996455073" lon="-7.346074031665921">
        <ele>710.54999999999995</ele>
        <time>2025-05-03T08:30:30Z</time>
      </trkpt>
      <trkpt lat="41.072215028107166" lon="-7.346185008063912">
        <ele>711.02999999999997</ele>
        <time>2025-05-03T08:30:31Z</time>
      </trkpt>
      <trkpt lat="41.072070021182299" lon="-7.34622398391366">
        <ele>711.02999999999997</ele>
        <time>2025-05-03T08:30:32Z</time>
      </trkpt>
      <trkpt lat="41.071915039792657" lon="-7.34626597724855">
        <ele>711.50999999999999</ele>
        <time>2025-05-03T08:30:33Z</time>
      </trkpt>
      <trkpt lat="41.071757040917873" lon="-7.34630897641182">
        <ele>711.50999999999999</ele>
        <time>2025-05-03T08:30:34Z</time>
      </trkpt>
      <trkpt lat="41.071467027068138" lon="-7.346387011930347">
        <ele>711.50999999999999</ele>
        <time>2025-05-03T08:30:36Z</time>
      </trkpt>
      <trkpt lat="41.071353033185005" lon="-7.346462029963732">
        <ele>711.50999999999999</ele>
        <time>2025-05-03T08:30:37Z</time>
      </trkpt>
      <trkpt lat="41.071251025423408" lon="-7.346552973613143">
        <ele>711.50999999999999</ele>
        <time>2025-05-03T08:30:38Z</time>
      </trkpt>
      <trkpt lat="41.071167960762978" lon="-7.346682976931334">
        <ele>711.50999999999999</ele>
        <time>2025-05-03T08:30:39Z</time>
      </trkpt>
      <trkpt lat="41.071109035983682" lon="-7.346851034089923">
        <ele>711.50999999999999</ele>
        <time>2025-05-03T08:30:40Z</time>
      </trkpt>
      <trkpt lat="41.071069976314902" lon="-7.347037028521299">
        <ele>711.02999999999997</ele>
        <time>2025-05-03T08:30:41Z</time>
      </trkpt>
      <trkpt lat="41.070711985230446" lon="-7.348741991445422">
        <ele>709.11000000000001</ele>
        <time>2025-05-03T08:30:49Z</time>
      </trkpt>
      <trkpt lat="41.070643002167344" lon="-7.348881969228387">
        <ele>708.63</ele>
        <time>2025-05-03T08:30:50Z</time>
      </trkpt>
      <trkpt lat="41.070536971092224" lon="-7.348954975605011">
        <ele>708.63</ele>
        <time>2025-05-03T08:30:51Z</time>
      </trkpt>
      <trkpt lat="41.070407973602414" lon="-7.349019013345242">
        <ele>708.63</ele>
        <time>2025-05-03T08:30:52Z</time>
      </trkpt>
      <trkpt lat="41.070261038839817" lon="-7.349064024165273">
        <ele>708.14999999999998</ele>
        <time>2025-05-03T08:30:53Z</time>
      </trkpt>
      <trkpt lat="41.069539021700621" lon="-7.349311960861087">
        <ele>707.66999999999996</ele>
        <time>2025-05-03T08:30:58Z</time>
      </trkpt>
      <trkpt lat="41.069443970918655" lon="-7.349408017471433">
        <ele>707.66999999999996</ele>
        <time>2025-05-03T08:30:59Z</time>
      </trkpt>
      <trkpt lat="41.069383034482598" lon="-7.349513964727521">
        <ele>707.66999999999996</ele>
        <time>2025-05-03T08:31:00Z</time>
      </trkpt>
      <trkpt lat="41.069340035319328" lon="-7.349642962217331">
        <ele>707.19000000000005</ele>
        <time>2025-05-03T08:31:01Z</time>
      </trkpt>
      <trkpt lat="41.069329977035522" lon="-7.349792998284102">
        <ele>707.19000000000005</ele>
        <time>2025-05-03T08:31:02Z</time>
      </trkpt>
      <trkpt lat="41.069357972592115" lon="-7.349959965795279">
        <ele>707.19000000000005</ele>
        <time>2025-05-03T08:31:03Z</time>
      </trkpt>
      <trkpt lat="41.069403989240527" lon="-7.350140009075403">
        <ele>707.19000000000005</ele>
        <time>2025-05-03T08:31:04Z</time>
      </trkpt>
      <trkpt lat="41.069454029202461" lon="-7.350332960486412">
        <ele>706.71000000000004</ele>
        <time>2025-05-03T08:31:05Z</time>
      </trkpt>
      <trkpt lat="41.069721998646855" lon="-7.351252036169171">
        <ele>704.77999999999997</ele>
        <time>2025-05-03T08:31:10Z</time>
      </trkpt>
      <trkpt lat="41.069713030010462" lon="-7.351414980366826">
        <ele>704.77999999999997</ele>
        <time>2025-05-03T08:31:11Z</time>
      </trkpt>
      <trkpt lat="41.069690985605121" lon="-7.35155001282692">
        <ele>704.29999999999995</ele>
        <time>2025-05-03T08:31:12Z</time>
      </trkpt>
      <trkpt lat="41.069614039734006" lon="-7.351665012538433">
        <ele>704.29999999999995</ele>
        <time>2025-05-03T08:31:13Z</time>
      </trkpt>
      <trkpt lat="41.069533992558718" lon="-7.35178504139185">
        <ele>703.82000000000005</ele>
        <time>2025-05-03T08:31:14Z</time>
      </trkpt>
      <trkpt lat="41.069411030039191" lon="-7.351872967556119">
        <ele>703.82000000000005</ele>
        <time>2025-05-03T08:31:15Z</time>
      </trkpt>
      <trkpt lat="41.069277003407478" lon="-7.351968018338084">
        <ele>703.34000000000003</ele>
        <time>2025-05-03T08:31:16Z</time>
      </trkpt>
      <trkpt lat="41.068458007648587" lon="-7.352606970816851">
        <ele>699.98000000000002</ele>
        <time>2025-05-03T08:31:22Z</time>
      </trkpt>
      <trkpt lat="41.068363962695003" lon="-7.352743009105325">
        <ele>699.01999999999998</ele>
        <time>2025-05-03T08:31:23Z</time>
      </trkpt>
      <trkpt lat="41.0683140065521" lon="-7.352886004373431">
        <ele>698.52999999999997</ele>
        <time>2025-05-03T08:31:24Z</time>
      </trkpt>
      <trkpt lat="41.068280981853604" lon="-7.353050038218498">
        <ele>697.57000000000005</ele>
        <time>2025-05-03T08:31:25Z</time>
      </trkpt>
      <trkpt lat="41.06824703514576" lon="-7.35322798602283">
        <ele>697.09000000000003</ele>
        <time>2025-05-03T08:31:26Z</time>
      </trkpt>
      <trkpt lat="41.06824703514576" lon="-7.353433007374406">
        <ele>696.61000000000001</ele>
        <time>2025-05-03T08:31:27Z</time>
      </trkpt>
      <trkpt lat="41.068241000175476" lon="-7.353650014847517">
        <ele>696.13</ele>
        <time>2025-05-03T08:31:28Z</time>
      </trkpt>
      <trkpt lat="41.068156007677317" lon="-7.354275975376368">
        <ele>693.73000000000002</ele>
        <time>2025-05-03T08:31:31Z</time>
      </trkpt>
      <trkpt lat="41.068088030442595" lon="-7.354466998949647">
        <ele>692.76999999999998</ele>
        <time>2025-05-03T08:31:32Z</time>
      </trkpt>
      <trkpt lat="41.067900024354458" lon="-7.355095976963639">
        <ele>690.84000000000003</ele>
        <time>2025-05-03T08:31:35Z</time>
      </trkpt>
      <trkpt lat="41.067839004099369" lon="-7.355324970558286">
        <ele>689.88</ele>
        <time>2025-05-03T08:31:36Z</time>
      </trkpt>
      <trkpt lat="41.067791981622577" lon="-7.356412019580603">
        <ele>686.03999999999996</ele>
        <time>2025-05-03T08:31:41Z</time>
      </trkpt>
      <trkpt lat="41.067812014371157" lon="-7.356562977656722">
        <ele>685.55999999999995</ele>
        <time>2025-05-03T08:31:42Z</time>
      </trkpt>
      <trkpt lat="41.067871022969484" lon="-7.356695998460054">
        <ele>684.60000000000002</ele>
        <time>2025-05-03T08:31:43Z</time>
      </trkpt>
      <trkpt lat="41.067960960790515" lon="-7.356781996786594">
        <ele>684.12</ele>
        <time>2025-05-03T08:31:44Z</time>
      </trkpt>
      <trkpt lat="41.068060034886003" lon="-7.35685802064836">
        <ele>683.63</ele>
        <time>2025-05-03T08:31:45Z</time>
      </trkpt>
      <trkpt lat="41.068152990192175" lon="-7.356861038133502">
        <ele>682.66999999999996</ele>
        <time>2025-05-03T08:31:46Z</time>
      </trkpt>
      <trkpt lat="41.068267989903688" lon="-7.356846034526825">
        <ele>682.19000000000005</ele>
        <time>2025-05-03T08:31:47Z</time>
      </trkpt>
      <trkpt lat="41.068401010707021" lon="-7.356830025091767">
        <ele>681.71000000000004</ele>
        <time>2025-05-03T08:31:48Z</time>
      </trkpt>
      <trkpt lat="41.068511987105012" lon="-7.356769004836679">
        <ele>681.23000000000002</ele>
        <time>2025-05-03T08:31:49Z</time>
      </trkpt>
      <trkpt lat="41.068664034828544" lon="-7.356673032045364">
        <ele>680.26999999999998</ele>
        <time>2025-05-03T08:31:50Z</time>
      </trkpt>
      <trkpt lat="41.068824967369437" lon="-7.356571024283767">
        <ele>679.78999999999996</ele>
        <time>2025-05-03T08:31:51Z</time>
      </trkpt>
      <trkpt lat="41.068990007042885" lon="-7.35647002235055">
        <ele>678.83000000000004</ele>
        <time>2025-05-03T08:31:52Z</time>
      </trkpt>
      <trkpt lat="41.069322014227509" lon="-7.356270030140877">
        <ele>676.90999999999997</ele>
        <time>2025-05-03T08:31:54Z</time>
      </trkpt>
      <trkpt lat="41.069459980353713" lon="-7.356280004605651">
        <ele>676.41999999999996</ele>
        <time>2025-05-03T08:31:55Z</time>
      </trkpt>
      <trkpt lat="41.069622002542019" lon="-7.356302971020341">
        <ele>675.46000000000004</ele>
        <time>2025-05-03T08:31:56Z</time>
      </trkpt>
      <trkpt lat="41.069767009466887" lon="-7.356381006538868">
        <ele>674.98000000000002</ele>
        <time>2025-05-03T08:31:57Z</time>
      </trkpt>
      <trkpt lat="41.069926014170051" lon="-7.356467004865408">
        <ele>674.5</ele>
        <time>2025-05-03T08:31:58Z</time>
      </trkpt>
      <trkpt lat="41.070708967745304" lon="-7.356848968192935">
        <ele>671.13999999999999</ele>
        <time>2025-05-03T08:32:03Z</time>
      </trkpt>
      <trkpt lat="41.070836959406734" lon="-7.356884004548192">
        <ele>670.65999999999997</ele>
        <time>2025-05-03T08:32:04Z</time>
      </trkpt>
      <trkpt lat="41.070951959118247" lon="-7.356827007606626">
        <ele>670.17999999999995</ele>
        <time>2025-05-03T08:32:05Z</time>
      </trkpt>
      <trkpt lat="41.07108598574996" lon="-7.356740003451705">
        <ele>669.70000000000005</ele>
        <time>2025-05-03T08:32:06Z</time>
      </trkpt>
      <trkpt lat="41.071218000724912" lon="-7.35662198625505">
        <ele>669.22000000000003</ele>
        <time>2025-05-03T08:32:07Z</time>
      </trkpt>
      <trkpt lat="41.071613039821386" lon="-7.356270030140877">
        <ele>668.25</ele>
        <time>2025-05-03T08:32:10Z</time>
      </trkpt>
      <trkpt lat="41.071725022047758" lon="-7.356240022927523">
        <ele>667.76999999999998</ele>
        <time>2025-05-03T08:32:11Z</time>
      </trkpt>
      <trkpt lat="41.071872962638736" lon="-7.356227030977607">
        <ele>667.76999999999998</ele>
        <time>2025-05-03T08:32:12Z</time>
      </trkpt>
      <trkpt lat="41.071952003985643" lon="-7.356287967413664">
        <ele>668.25</ele>
        <time>2025-05-03T08:32:13Z</time>
      </trkpt>
      <trkpt lat="41.072065997868776" lon="-7.356376983225346">
        <ele>668.25</ele>
        <time>2025-05-03T08:32:14Z</time>
      </trkpt>
      <trkpt lat="41.072110002860427" lon="-7.356529030948877">
        <ele>667.76999999999998</ele>
        <time>2025-05-03T08:32:15Z</time>
      </trkpt>
      <trkpt lat="41.072155013680458" lon="-7.356701027601957">
        <ele>667.76999999999998</ele>
        <time>2025-05-03T08:32:16Z</time>
      </trkpt>
      <trkpt lat="41.072179991751909" lon="-7.356886016204953">
        <ele>667.76999999999998</ele>
        <time>2025-05-03T08:32:17Z</time>
      </trkpt>
      <trkpt lat="41.072202958166599" lon="-7.357077039778233">
        <ele>667.28999999999996</ele>
        <time>2025-05-03T08:32:18Z</time>
      </trkpt>
      <trkpt lat="41.07237696647644" lon="-7.358926003798842">
        <ele>666.33000000000004</ele>
        <time>2025-05-03T08:32:26Z</time>
      </trkpt>
      <trkpt lat="41.072488026693463" lon="-7.359741982072592">
        <ele>665.37</ele>
        <time>2025-05-03T08:32:30Z</time>
      </trkpt>
      <trkpt lat="41.072553992271423" lon="-7.359866034239531">
        <ele>664.40999999999997</ele>
        <time>2025-05-03T08:32:31Z</time>
      </trkpt>
      <trkpt lat="41.072636973112822" lon="-7.359965024515986">
        <ele>663.92999999999995</ele>
        <time>2025-05-03T08:32:32Z</time>
      </trkpt>
      <trkpt lat="41.072744010016322" lon="-7.360008023679256">
        <ele>663.92999999999995</ele>
        <time>2025-05-03T08:32:33Z</time>
      </trkpt>
      <trkpt lat="41.07289002276957" lon="-7.360031995922327">
        <ele>663.45000000000005</ele>
        <time>2025-05-03T08:32:34Z</time>
      </trkpt>
      <trkpt lat="41.073033018037677" lon="-7.359993020072579">
        <ele>663.45000000000005</ele>
        <time>2025-05-03T08:32:35Z</time>
      </trkpt>
      <trkpt lat="41.073192022740841" lon="-7.359949015080929">
        <ele>662.97000000000003</ele>
        <time>2025-05-03T08:32:36Z</time>
      </trkpt>
      <trkpt lat="41.073638023808599" lon="-7.359825968742371">
        <ele>662.00999999999999</ele>
        <time>2025-05-03T08:32:39Z</time>
      </trkpt>
      <trkpt lat="41.073746988549829" lon="-7.359818005934358">
        <ele>661.51999999999998</ele>
        <time>2025-05-03T08:32:40Z</time>
      </trkpt>
      <trkpt lat="41.073843967169523" lon="-7.359849018976092">
        <ele>661.51999999999998</ele>
        <time>2025-05-03T08:32:41Z</time>
      </trkpt>
      <trkpt lat="41.073932982981205" lon="-7.359939040616155">
        <ele>660.55999999999995</ele>
        <time>2025-05-03T08:32:42Z</time>
      </trkpt>
      <trkpt lat="41.073981011286378" lon="-7.360083963721991">
        <ele>660.08000000000004</ele>
        <time>2025-05-03T08:32:43Z</time>
      </trkpt>
      <trkpt lat="41.073998026549816" lon="-7.360266018658876">
        <ele>659.60000000000002</ele>
        <time>2025-05-03T08:32:44Z</time>
      </trkpt>
      <trkpt lat="41.073995009064674" lon="-7.360466010868549">
        <ele>659.12</ele>
        <time>2025-05-03T08:32:45Z</time>
      </trkpt>
      <trkpt lat="41.074013030156493" lon="-7.361549958586693">
        <ele>656.72000000000003</ele>
        <time>2025-05-03T08:32:50Z</time>
      </trkpt>
      <trkpt lat="41.074040019884706" lon="-7.361740982159972">
        <ele>656.24000000000001</ele>
        <time>2025-05-03T08:32:51Z</time>
      </trkpt>
      <trkpt lat="41.074105985462666" lon="-7.361872997134924">
        <ele>655.75999999999999</ele>
        <time>2025-05-03T08:32:52Z</time>
      </trkpt>
      <trkpt lat="41.074206987395883" lon="-7.36201498657465">
        <ele>654.79999999999995</ele>
        <time>2025-05-03T08:32:53Z</time>
      </trkpt>
      <trkpt lat="41.074334979057312" lon="-7.362142978236079">
        <ele>654.30999999999995</ele>
        <time>2025-05-03T08:32:54Z</time>
      </trkpt>
      <trkpt lat="41.074705962091684" lon="-7.362556960433722">
        <ele>652.38999999999999</ele>
        <time>2025-05-03T08:32:57Z</time>
      </trkpt>
      <trkpt lat="41.074777040630579" lon="-7.362694004550576">
        <ele>652.38999999999999</ele>
        <time>2025-05-03T08:32:58Z</time>
      </trkpt>
      <trkpt lat="41.074800007045269" lon="-7.362855020910502">
        <ele>651.90999999999997</ele>
        <time>2025-05-03T08:32:59Z</time>
      </trkpt>
      <trkpt lat="41.074847029522061" lon="-7.363181998953223">
        <ele>651.90999999999997</ele>
        <time>2025-05-03T08:33:01Z</time>
      </trkpt>
      <trkpt lat="41.074903020635247" lon="-7.363321976736188">
        <ele>651.42999999999995</ele>
        <time>2025-05-03T08:33:02Z</time>
      </trkpt>
      <trkpt lat="41.074967980384827" lon="-7.36343102529645">
        <ele>651.90999999999997</ele>
        <time>2025-05-03T08:33:03Z</time>
      </trkpt>
      <trkpt lat="41.075079962611198" lon="-7.363463966175914">
        <ele>651.90999999999997</ele>
        <time>2025-05-03T08:33:04Z</time>
      </trkpt>
      <trkpt lat="41.075194040313363" lon="-7.363473018631339">
        <ele>652.38999999999999</ele>
        <time>2025-05-03T08:33:05Z</time>
      </trkpt>
      <trkpt lat="41.075328988954425" lon="-7.363447034731507">
        <ele>652.87</ele>
        <time>2025-05-03T08:33:06Z</time>
      </trkpt>
      <trkpt lat="41.075449017807841" lon="-7.363356007263064">
        <ele>652.87</ele>
        <time>2025-05-03T08:33:07Z</time>
      </trkpt>
      <trkpt lat="41.075582038611174" lon="-7.363246958702803">
        <ele>653.35000000000002</ele>
        <time>2025-05-03T08:33:08Z</time>
      </trkpt>
      <trkpt lat="41.076560039073229" lon="-7.362206010147929">
        <ele>654.30999999999995</ele>
        <time>2025-05-03T08:33:15Z</time>
      </trkpt>
      <trkpt lat="41.076657017692924" lon="-7.362029990181327">
        <ele>654.30999999999995</ele>
        <time>2025-05-03T08:33:16Z</time>
      </trkpt>
      <trkpt lat="41.076748967170715" lon="-7.361841984093189">
        <ele>653.83000000000004</ele>
        <time>2025-05-03T08:33:17Z</time>
      </trkpt>
      <trkpt lat="41.076821973547339" lon="-7.36164903268218">
        <ele>653.83000000000004</ele>
        <time>2025-05-03T08:33:18Z</time>
      </trkpt>
      <trkpt lat="41.076857009902596" lon="-7.361446022987366">
        <ele>653.83000000000004</ele>
        <time>2025-05-03T08:33:19Z</time>
      </trkpt>
      <trkpt lat="41.076866984367371" lon="-7.361249970272183">
        <ele>653.35000000000002</ele>
        <time>2025-05-03T08:33:20Z</time>
      </trkpt>
      <trkpt lat="41.076876958832145" lon="-7.361057018861175">
        <ele>653.35000000000002</ele>
        <time>2025-05-03T08:33:21Z</time>
      </trkpt>
      <trkpt lat="41.07688601128757" lon="-7.360874963924289">
        <ele>652.87</ele>
        <time>2025-05-03T08:33:22Z</time>
      </trkpt>
      <trkpt lat="41.076893974095583" lon="-7.360711013898253">
        <ele>652.87</ele>
        <time>2025-05-03T08:33:23Z</time>
      </trkpt>
      <trkpt lat="41.076977038756013" lon="-7.360598025843501">
        <ele>652.38999999999999</ele>
        <time>2025-05-03T08:33:24Z</time>
      </trkpt>
      <trkpt lat="41.077065970748663" lon="-7.360474979504943">
        <ele>652.38999999999999</ele>
        <time>2025-05-03T08:33:25Z</time>
      </trkpt>
      <trkpt lat="41.077168984338641" lon="-7.360432986170054">
        <ele>651.90999999999997</ele>
        <time>2025-05-03T08:33:26Z</time>
      </trkpt>
      <trkpt lat="41.077297981828451" lon="-7.360379006713629">
        <ele>651.42999999999995</ele>
        <time>2025-05-03T08:33:27Z</time>
      </trkpt>
      <trkpt lat="41.077884966507554" lon="-7.360182031989098">
        <ele>649.99000000000001</ele>
        <time>2025-05-03T08:33:31Z</time>
      </trkpt>
      <trkpt lat="41.078038020059466" lon="-7.360206004232168">
        <ele>649.99000000000001</ele>
        <time>2025-05-03T08:33:32Z</time>
      </trkpt>
      <trkpt lat="41.07819601893425" lon="-7.360250009223819">
        <ele>649.50999999999999</ele>
        <time>2025-05-03T08:33:33Z</time>
      </trkpt>
      <trkpt lat="41.078807981684804" lon="-7.360477996990085">
        <ele>648.07000000000005</ele>
        <time>2025-05-03T08:33:37Z</time>
      </trkpt>
      <trkpt lat="41.078910995274782" lon="-7.360560977831483">
        <ele>647.59000000000003</ele>
        <time>2025-05-03T08:33:38Z</time>
      </trkpt>
      <trkpt lat="41.07894997112453" lon="-7.360703973099589">
        <ele>646.62</ele>
        <time>2025-05-03T08:33:39Z</time>
      </trkpt>
      <trkpt lat="41.078997999429703" lon="-7.360878987237811">
        <ele>646.13999999999999</ele>
        <time>2025-05-03T08:33:40Z</time>
      </trkpt>
      <trkpt lat="41.079047033563256" lon="-7.361072022467852">
        <ele>645.17999999999995</ele>
        <time>2025-05-03T08:33:41Z</time>
      </trkpt>
      <trkpt lat="41.079154992476106" lon="-7.361465971916914">
        <ele>643.74000000000001</ele>
        <time>2025-05-03T08:33:43Z</time>
      </trkpt>
      <trkpt lat="41.079246019944549" lon="-7.361582983285189">
        <ele>642.77999999999997</ele>
        <time>2025-05-03T08:33:44Z</time>
      </trkpt>
      <trkpt lat="41.079345010221004" lon="-7.361680967733264">
        <ele>641.82000000000005</ele>
        <time>2025-05-03T08:33:45Z</time>
      </trkpt>
      <trkpt lat="41.079438971355557" lon="-7.361745005473495">
        <ele>640.86000000000001</ele>
        <time>2025-05-03T08:33:46Z</time>
      </trkpt>
      <trkpt lat="41.079575009644032" lon="-7.361762020736933">
        <ele>640.38</ele>
        <time>2025-05-03T08:33:47Z</time>
      </trkpt>
      <trkpt lat="41.079699983820319" lon="-7.361722039058805">
        <ele>639.88999999999999</ele>
        <time>2025-05-03T08:33:48Z</time>
      </trkpt>
      <trkpt lat="41.079812971875072" lon="-7.36164903268218">
        <ele>639.40999999999997</ele>
        <time>2025-05-03T08:33:49Z</time>
      </trkpt>
      <trkpt lat="41.079923026263714" lon="-7.361525986343622">
        <ele>638.45000000000005</ele>
        <time>2025-05-03T08:33:50Z</time>
      </trkpt>
      <trkpt lat="41.080009024590254" lon="-7.361361030489206">
        <ele>637.97000000000003</ele>
        <time>2025-05-03T08:33:51Z</time>
      </trkpt>
      <trkpt lat="41.080098962411284" lon="-7.361170006915927">
        <ele>637.00999999999999</ele>
        <time>2025-05-03T08:33:52Z</time>
      </trkpt>
      <trkpt lat="41.080617969855666" lon="-7.360154036432505">
        <ele>632.67999999999995</ele>
        <time>2025-05-03T08:33:57Z</time>
      </trkpt>
      <trkpt lat="41.080735987052321" lon="-7.359984973445535">
        <ele>631.72000000000003</ele>
        <time>2025-05-03T08:33:58Z</time>
      </trkpt>
      <trkpt lat="41.080887028947473" lon="-7.359862010926008">
        <ele>630.75999999999999</ele>
        <time>2025-05-03T08:33:59Z</time>
      </trkpt>
      <trkpt lat="41.081186011433601" lon="-7.359617007896304">
        <ele>629.32000000000005</ele>
        <time>2025-05-03T08:34:01Z</time>
      </trkpt>
      <trkpt lat="41.081334035843611" lon="-7.359434030950069">
        <ele>628.36000000000001</ele>
        <time>2025-05-03T08:34:02Z</time>
      </trkpt>
      <trkpt lat="41.081743994727731" lon="-7.358930027112365">
        <ele>624.99000000000001</ele>
        <time>2025-05-03T08:34:05Z</time>
      </trkpt>
      <trkpt lat="41.081896964460611" lon="-7.358830031007528">
        <ele>624.02999999999997</ele>
        <time>2025-05-03T08:34:06Z</time>
      </trkpt>
      <trkpt lat="41.08272903598845" lon="-7.358352011069655">
        <ele>620.19000000000005</ele>
        <time>2025-05-03T08:34:11Z</time>
      </trkpt>
      <trkpt lat="41.082882005721331" lon="-7.358345976099372">
        <ele>619.71000000000004</ele>
        <time>2025-05-03T08:34:12Z</time>
      </trkpt>
      <trkpt lat="41.083050984889269" lon="-7.358371037989855">
        <ele>619.23000000000002</ele>
        <time>2025-05-03T08:34:13Z</time>
      </trkpt>
      <trkpt lat="41.083806026726961" lon="-7.358528031036258">
        <ele>616.34000000000003</ele>
        <time>2025-05-03T08:34:17Z</time>
      </trkpt>
      <trkpt lat="41.083999983966351" lon="-7.358604976907373">
        <ele>615.86000000000001</ele>
        <time>2025-05-03T08:34:18Z</time>
      </trkpt>
      <trkpt lat="41.084177009761333" lon="-7.358741015195847">
        <ele>615.38</ele>
        <time>2025-05-03T08:34:19Z</time>
      </trkpt>
      <trkpt lat="41.084346994757652" lon="-7.358903037384152">
        <ele>614.41999999999996</ele>
        <time>2025-05-03T08:34:20Z</time>
      </trkpt>
      <trkpt lat="41.084521003067493" lon="-7.359068999066949">
        <ele>613.46000000000004</ele>
        <time>2025-05-03T08:34:21Z</time>
      </trkpt>
      <trkpt lat="41.085191974416375" lon="-7.359677022323012">
        <ele>610.57000000000005</ele>
        <time>2025-05-03T08:34:25Z</time>
      </trkpt>
      <trkpt lat="41.085371011868119" lon="-7.359782969579101">
        <ele>609.61000000000001</ele>
        <time>2025-05-03T08:34:26Z</time>
      </trkpt>
      <trkpt lat="41.085563041269779" lon="-7.359852958470583">
        <ele>609.13</ele>
        <time>2025-05-03T08:34:27Z</time>
      </trkpt>
      <trkpt lat="41.085756998509169" lon="-7.359862010926008">
        <ele>608.16999999999996</ele>
        <time>2025-05-03T08:34:28Z</time>
      </trkpt>
      <trkpt lat="41.085949027910829" lon="-7.359870979562402">
        <ele>607.69000000000005</ele>
        <time>2025-05-03T08:34:29Z</time>
      </trkpt>
      <trkpt lat="41.086128987371922" lon="-7.359841978177428">
        <ele>607.69000000000005</ele>
        <time>2025-05-03T08:34:30Z</time>
      </trkpt>
      <trkpt lat="41.086311964318156" lon="-7.359792022034526">
        <ele>607.69000000000005</ele>
        <time>2025-05-03T08:34:31Z</time>
      </trkpt>
      <trkpt lat="41.086485972627997" lon="-7.359709963202477">
        <ele>607.69000000000005</ele>
        <time>2025-05-03T08:34:32Z</time>
      </trkpt>
      <trkpt lat="41.086654029786587" lon="-7.359597980976105">
        <ele>607.69000000000005</ele>
        <time>2025-05-03T08:34:33Z</time>
      </trkpt>
      <trkpt lat="41.086820997297764" lon="-7.359485998749733">
        <ele>608.16999999999996</ele>
        <time>2025-05-03T08:34:34Z</time>
      </trkpt>
      <trkpt lat="41.086966004222631" lon="-7.359339985996485">
        <ele>608.16999999999996</ele>
        <time>2025-05-03T08:34:35Z</time>
      </trkpt>
      <trkpt lat="41.087103970348835" lon="-7.359180981293321">
        <ele>608.16999999999996</ele>
        <time>2025-05-03T08:34:36Z</time>
      </trkpt>
      <trkpt lat="41.08722098171711" lon="-7.35898501239717">
        <ele>608.16999999999996</ele>
        <time>2025-05-03T08:34:37Z</time>
      </trkpt>
      <trkpt lat="41.087338998913765" lon="-7.358788037672639">
        <ele>608.16999999999996</ele>
        <time>2025-05-03T08:34:38Z</time>
      </trkpt>
      <trkpt lat="41.087670000270009" lon="-7.358271041885018">
        <ele>608.16999999999996</ele>
        <time>2025-05-03T08:34:41Z</time>
      </trkpt>
      <trkpt lat="41.087788017466664" lon="-7.358199041336775">
        <ele>608.16999999999996</ele>
        <time>2025-05-03T08:34:42Z</time>
      </trkpt>
      <trkpt lat="41.087904023006558" lon="-7.358161993324757">
        <ele>608.16999999999996</ele>
        <time>2025-05-03T08:34:43Z</time>
      </trkpt>
      <trkpt lat="41.088034026324749" lon="-7.358184959739447">
        <ele>608.16999999999996</ele>
        <time>2025-05-03T08:34:44Z</time>
      </trkpt>
      <trkpt lat="41.088172998279333" lon="-7.358244974166155">
        <ele>608.16999999999996</ele>
        <time>2025-05-03T08:34:45Z</time>
      </trkpt>
      <trkpt lat="41.088310964405537" lon="-7.358354022726417">
        <ele>608.16999999999996</ele>
        <time>2025-05-03T08:34:46Z</time>
      </trkpt>
      <trkpt lat="41.088458988815546" lon="-7.358471034094691">
        <ele>608.16999999999996</ele>
        <time>2025-05-03T08:34:47Z</time>
      </trkpt>
      <trkpt lat="41.088611958548427" lon="-7.358602965250611">
        <ele>608.64999999999998</ele>
        <time>2025-05-03T08:34:48Z</time>
      </trkpt>
      <trkpt lat="41.089601023122668" lon="-7.359472000971437">
        <ele>608.64999999999998</ele>
        <time>2025-05-03T08:34:54Z</time>
      </trkpt>
      <trkpt lat="41.089779976755381" lon="-7.359541989862919">
        <ele>608.64999999999998</ele>
        <time>2025-05-03T08:34:55Z</time>
      </trkpt>
      <trkpt lat="41.090504005551338" lon="-7.359843989834189">
        <ele>608.64999999999998</ele>
        <time>2025-05-03T08:34:59Z</time>
      </trkpt>
      <trkpt lat="41.090686982497573" lon="-7.359934011474252">
        <ele>608.16999999999996</ele>
        <time>2025-05-03T08:35:00Z</time>
      </trkpt>
      <trkpt lat="41.090845987200737" lon="-7.360087987035513">
        <ele>608.16999999999996</ele>
        <time>2025-05-03T08:35:01Z</time>
      </trkpt>
      <trkpt lat="41.091297017410398" lon="-7.360524013638496">
        <ele>608.64999999999998</ele>
        <time>2025-05-03T08:35:04Z</time>
      </trkpt>
      <trkpt lat="41.091384021565318" lon="-7.360690981149674">
        <ele>608.16999999999996</ele>
        <time>2025-05-03T08:35:05Z</time>
      </trkpt>
      <trkpt lat="41.09143003821373" lon="-7.360874963924289">
        <ele>608.16999999999996</ele>
        <time>2025-05-03T08:35:06Z</time>
      </trkpt>
      <trkpt lat="41.091486029326916" lon="-7.361097000539303">
        <ele>607.69000000000005</ele>
        <time>2025-05-03T08:35:07Z</time>
      </trkpt>
      <trkpt lat="41.091517964377999" lon="-7.361278971657157">
        <ele>607.21000000000004</ele>
        <time>2025-05-03T08:35:08Z</time>
      </trkpt>
      <trkpt lat="41.091613015159965" lon="-7.361645009368658">
        <ele>605.76999999999998</ele>
        <time>2025-05-03T08:35:10Z</time>
      </trkpt>
      <trkpt lat="41.091678980737925" lon="-7.361763026565313">
        <ele>605.28999999999996</ele>
        <time>2025-05-03T08:35:11Z</time>
      </trkpt>
      <trkpt lat="41.091809989884496" lon="-7.361861011013389">
        <ele>604.80999999999995</ele>
        <time>2025-05-03T08:35:12Z</time>
      </trkpt>
      <trkpt lat="41.09194703400135" lon="-7.361933011561632">
        <ele>604.33000000000004</ele>
        <time>2025-05-03T08:35:13Z</time>
      </trkpt>
      <trkpt lat="41.092101009562612" lon="-7.362000988796353">
        <ele>603.36000000000001</ele>
        <time>2025-05-03T08:35:14Z</time>
      </trkpt>
      <trkpt lat="41.092397980391979" lon="-7.362178014591336">
        <ele>602.39999999999998</ele>
        <time>2025-05-03T08:35:16Z</time>
      </trkpt>
      <trkpt lat="41.092518009245396" lon="-7.36229402013123">
        <ele>601.91999999999996</ele>
        <time>2025-05-03T08:35:17Z</time>
      </trkpt>
      <trkpt lat="41.092594033107162" lon="-7.362449001520872">
        <ele>601.44000000000005</ele>
        <time>2025-05-03T08:35:18Z</time>
      </trkpt>
      <trkpt lat="41.092647006735206" lon="-7.362615969032049">
        <ele>600.48000000000002</ele>
        <time>2025-05-03T08:35:19Z</time>
      </trkpt>
      <trkpt lat="41.092680031433702" lon="-7.362804980948567">
        <ele>599.51999999999998</ele>
        <time>2025-05-03T08:35:20Z</time>
      </trkpt>
      <trkpt lat="41.092714983969927" lon="-7.363005978986621">
        <ele>599.03999999999996</ele>
        <time>2025-05-03T08:35:21Z</time>
      </trkpt>
      <trkpt lat="41.092783967033029" lon="-7.363400012254715">
        <ele>597.12</ele>
        <time>2025-05-03T08:35:23Z</time>
      </trkpt>
      <trkpt lat="41.092862002551556" lon="-7.363532027229667">
        <ele>596.14999999999998</ele>
        <time>2025-05-03T08:35:24Z</time>
      </trkpt>
      <trkpt lat="41.092963004484773" lon="-7.363644009456039">
        <ele>594.71000000000004</ele>
        <time>2025-05-03T08:35:25Z</time>
      </trkpt>
      <trkpt lat="41.093171965330839" lon="-7.363875014707446">
        <ele>592.78999999999996</ele>
        <time>2025-05-03T08:35:27Z</time>
      </trkpt>
      <trkpt lat="41.093260981142521" lon="-7.364025972783566">
        <ele>591.83000000000004</ele>
        <time>2025-05-03T08:35:28Z</time>
      </trkpt>
      <trkpt lat="41.09334203414619" lon="-7.364202998578548">
        <ele>590.38999999999999</ele>
        <time>2025-05-03T08:35:29Z</time>
      </trkpt>
      <trkpt lat="41.093403976410627" lon="-7.364413971081376">
        <ele>589.42999999999995</ele>
        <time>2025-05-03T08:35:30Z</time>
      </trkpt>
      <trkpt lat="41.093466002494097" lon="-7.364645982161164">
        <ele>588.46000000000004</ele>
        <time>2025-05-03T08:35:31Z</time>
      </trkpt>
      <trkpt lat="41.093952991068363" lon="-7.366718994453549">
        <ele>577.40999999999997</ele>
        <time>2025-05-03T08:35:39Z</time>
      </trkpt>
      <trkpt lat="41.094018034636974" lon="-7.36717002466321">
        <ele>575.49000000000001</ele>
        <time>2025-05-03T08:35:41Z</time>
      </trkpt>
      <trkpt lat="41.094002025201917" lon="-7.367386026307941">
        <ele>574.52999999999997</ele>
        <time>2025-05-03T08:35:42Z</time>
      </trkpt>
      <trkpt lat="41.093972017988563" lon="-7.368553960695863">
        <ele>570.20000000000005</ele>
        <time>2025-05-03T08:35:47Z</time>
      </trkpt>
      <trkpt lat="41.09400998800993" lon="-7.368749007582665">
        <ele>569.72000000000003</ele>
        <time>2025-05-03T08:35:48Z</time>
      </trkpt>
      <trkpt lat="41.094067990779877" lon="-7.368927961215377">
        <ele>569.24000000000001</ele>
        <time>2025-05-03T08:35:49Z</time>
      </trkpt>
      <trkpt lat="41.094145020470023" lon="-7.369099035859108">
        <ele>569.24000000000001</ele>
        <time>2025-05-03T08:35:50Z</time>
      </trkpt>
      <trkpt lat="41.094252979382873" lon="-7.36923398450017">
        <ele>568.75999999999999</ele>
        <time>2025-05-03T08:35:51Z</time>
      </trkpt>
      <trkpt lat="41.094372002407908" lon="-7.369354013353586">
        <ele>568.75999999999999</ele>
        <time>2025-05-03T08:35:52Z</time>
      </trkpt>
      <trkpt lat="41.094511980190873" lon="-7.3694499861449">
        <ele>568.75999999999999</ele>
        <time>2025-05-03T08:35:53Z</time>
      </trkpt>
      <trkpt lat="41.09465497545898" lon="-7.369536990299821">
        <ele>568.75999999999999</ele>
        <time>2025-05-03T08:35:54Z</time>
      </trkpt>
      <trkpt lat="41.095481012016535" lon="-7.369979973882437">
        <ele>568.75999999999999</ele>
        <time>2025-05-03T08:36:00Z</time>
      </trkpt>
      <trkpt lat="41.095588970929384" lon="-7.370103020220995">
        <ele>568.27999999999997</ele>
        <time>2025-05-03T08:36:01Z</time>
      </trkpt>
      <trkpt lat="41.095678992569447" lon="-7.370262024924159">
        <ele>568.27999999999997</ele>
        <time>2025-05-03T08:36:02Z</time>
      </trkpt>
      <trkpt lat="41.095754010602832" lon="-7.370451036840677">
        <ele>567.79999999999995</ele>
        <time>2025-05-03T08:36:03Z</time>
      </trkpt>
      <trkpt lat="41.095831040292978" lon="-7.370649017393589">
        <ele>567.79999999999995</ele>
        <time>2025-05-03T08:36:04Z</time>
      </trkpt>
      <trkpt lat="41.096350969746709" lon="-7.372088022530079">
        <ele>566.83000000000004</ele>
        <time>2025-05-03T08:36:12Z</time>
      </trkpt>
      <trkpt lat="41.096478039398789" lon="-7.372452970594168">
        <ele>566.83000000000004</ele>
        <time>2025-05-03T08:36:15Z</time>
      </trkpt>
      <trkpt lat="41.096503017470241" lon="-7.372580962255597">
        <ele>566.83000000000004</ele>
        <time>2025-05-03T08:36:16Z</time>
      </trkpt>
      <trkpt lat="41.096398998051882" lon="-7.374058021232486">
        <ele>565.87</ele>
        <time>2025-05-03T08:36:26Z</time>
      </trkpt>
      <trkpt lat="41.096406038850546" lon="-7.374227000400424">
        <ele>565.38999999999999</ele>
        <time>2025-05-03T08:36:27Z</time>
      </trkpt>
      <trkpt lat="41.096435040235519" lon="-7.374392040073872">
        <ele>565.38999999999999</ele>
        <time>2025-05-03T08:36:28Z</time>
      </trkpt>
      <trkpt lat="41.096465969458222" lon="-7.374566970393062">
        <ele>565.38999999999999</ele>
        <time>2025-05-03T08:36:29Z</time>
      </trkpt>
      <trkpt lat="41.096512991935015" lon="-7.374751036986709">
        <ele>565.87</ele>
        <time>2025-05-03T08:36:30Z</time>
      </trkpt>
      <trkpt lat="41.096577029675245" lon="-7.374911969527602">
        <ele>566.35000000000002</ele>
        <time>2025-05-03T08:36:31Z</time>
      </trkpt>
      <trkpt lat="41.096640983596444" lon="-7.375071980059147">
        <ele>566.35000000000002</ele>
        <time>2025-05-03T08:36:32Z</time>
      </trkpt>
      <trkpt lat="41.097551006823778" lon="-7.37714197486639">
        <ele>566.35000000000002</ele>
        <time>2025-05-03T08:36:45Z</time>
      </trkpt>
      <trkpt lat="41.097865998744965" lon="-7.377962982282043">
        <ele>565.38999999999999</ele>
        <time>2025-05-03T08:36:51Z</time>
      </trkpt>
      <trkpt lat="41.097885025665164" lon="-7.378121986985207">
        <ele>565.38999999999999</ele>
        <time>2025-05-03T08:36:52Z</time>
      </trkpt>
      <trkpt lat="41.097902962937951" lon="-7.378280991688371">
        <ele>564.90999999999997</ele>
        <time>2025-05-03T08:36:53Z</time>
      </trkpt>
      <trkpt lat="41.09792198985815" lon="-7.378437984734774">
        <ele>564.90999999999997</ele>
        <time>2025-05-03T08:36:54Z</time>
      </trkpt>
      <trkpt lat="41.097944034263492" lon="-7.378628002479672">
        <ele>564.42999999999995</ele>
        <time>2025-05-03T08:36:55Z</time>
      </trkpt>
      <trkpt lat="41.097928024828434" lon="-7.379220016300678">
        <ele>563.47000000000003</ele>
        <time>2025-05-03T08:36:59Z</time>
      </trkpt>
      <trkpt lat="41.097949985414743" lon="-7.379373991861939">
        <ele>563.47000000000003</ele>
        <time>2025-05-03T08:37:00Z</time>
      </trkpt>
      <trkpt lat="41.097978986799717" lon="-7.379514975473285">
        <ele>563.47000000000003</ele>
        <time>2025-05-03T08:37:01Z</time>
      </trkpt>
      <trkpt lat="41.098039001226425" lon="-7.379645984619856">
        <ele>562.99000000000001</ele>
        <time>2025-05-03T08:37:02Z</time>
      </trkpt>
      <trkpt lat="41.098102033138275" lon="-7.379775987938047">
        <ele>563.47000000000003</ele>
        <time>2025-05-03T08:37:03Z</time>
      </trkpt>
      <trkpt lat="41.098186019808054" lon="-7.37989098764956">
        <ele>563.47000000000003</ele>
        <time>2025-05-03T08:37:04Z</time>
      </trkpt>
      <trkpt lat="41.098271012306213" lon="-7.380006993189454">
        <ele>563.47000000000003</ele>
        <time>2025-05-03T08:37:05Z</time>
      </trkpt>
      <trkpt lat="41.099523017182946" lon="-7.381468964740634">
        <ele>566.35000000000002</ele>
        <time>2025-05-03T08:37:17Z</time>
      </trkpt>
      <trkpt lat="41.099777994677424" lon="-7.381712039932609">
        <ele>566.83000000000004</ele>
        <time>2025-05-03T08:37:19Z</time>
      </trkpt>
      <trkpt lat="41.099917972460389" lon="-7.38184698857367">
        <ele>567.32000000000005</ele>
        <time>2025-05-03T08:37:20Z</time>
      </trkpt>
      <trkpt lat="41.100055016577244" lon="-7.381865009665489">
        <ele>567.32000000000005</ele>
        <time>2025-05-03T08:37:21Z</time>
      </trkpt>
      <trkpt lat="41.100202035158873" lon="-7.381884958595038">
        <ele>567.79999999999995</ele>
        <time>2025-05-03T08:37:22Z</time>
      </trkpt>
      <trkpt lat="41.100353999063373" lon="-7.381857968866825">
        <ele>568.27999999999997</ele>
        <time>2025-05-03T08:37:23Z</time>
      </trkpt>
      <trkpt lat="41.100508980453014" lon="-7.381814969703555">
        <ele>569.24000000000001</ele>
        <time>2025-05-03T08:37:24Z</time>
      </trkpt>
      <trkpt lat="41.100989012047648" lon="-7.381682032719255">
        <ele>572.12</ele>
        <time>2025-05-03T08:37:27Z</time>
      </trkpt>
      <trkpt lat="41.101137036457658" lon="-7.381684966385365">
        <ele>573.08000000000004</ele>
        <time>2025-05-03T08:37:28Z</time>
      </trkpt>
      <trkpt lat="41.1012920178473" lon="-7.381697036325932">
        <ele>574.03999999999996</ele>
        <time>2025-05-03T08:37:29Z</time>
      </trkpt>
      <trkpt lat="41.101438030600548" lon="-7.381789991632104">
        <ele>575.00999999999999</ele>
        <time>2025-05-03T08:37:30Z</time>
      </trkpt>
      <trkpt lat="41.101589994505048" lon="-7.381885964423418">
        <ele>575.97000000000003</ele>
        <time>2025-05-03T08:37:31Z</time>
      </trkpt>
      <trkpt lat="41.10305598936975" lon="-7.382988017052412">
        <ele>582.22000000000003</ele>
        <time>2025-05-03T08:37:40Z</time>
      </trkpt>
      <trkpt lat="41.103186998516321" lon="-7.383165964856744">
        <ele>583.17999999999995</ele>
        <time>2025-05-03T08:37:41Z</time>
      </trkpt>
      <trkpt lat="41.103305015712976" lon="-7.383351037278771">
        <ele>584.13999999999999</ele>
        <time>2025-05-03T08:37:42Z</time>
      </trkpt>
      <trkpt lat="41.103395037353039" lon="-7.383568966761231">
        <ele>585.10000000000002</ele>
        <time>2025-05-03T08:37:43Z</time>
      </trkpt>
      <trkpt lat="41.103482041507959" lon="-7.383786980062723">
        <ele>586.53999999999996</ele>
        <time>2025-05-03T08:37:44Z</time>
      </trkpt>
      <trkpt lat="41.103537026792765" lon="-7.384027037769556">
        <ele>587.5</ele>
        <time>2025-05-03T08:37:45Z</time>
      </trkpt>
      <trkpt lat="41.10359201207757" lon="-7.384268017485738">
        <ele>588.95000000000005</ele>
        <time>2025-05-03T08:37:46Z</time>
      </trkpt>
      <trkpt lat="41.103757973760366" lon="-7.385001014918089">
        <ele>592.78999999999996</ele>
        <time>2025-05-03T08:37:49Z</time>
      </trkpt>
      <trkpt lat="41.103828968480229" lon="-7.385237971320748">
        <ele>594.23000000000002</ele>
        <time>2025-05-03T08:37:50Z</time>
      </trkpt>
      <trkpt lat="41.103957965970039" lon="-7.385442992672324">
        <ele>596.14999999999998</ele>
        <time>2025-05-03T08:37:51Z</time>
      </trkpt>
      <trkpt lat="41.104089980944991" lon="-7.385654971003532">
        <ele>597.60000000000002</ele>
        <time>2025-05-03T08:37:52Z</time>
      </trkpt>
      <trkpt lat="41.104252003133297" lon="-7.38584197126329">
        <ele>599.51999999999998</ele>
        <time>2025-05-03T08:37:53Z</time>
      </trkpt>
      <trkpt lat="41.104423999786377" lon="-7.386017991229892">
        <ele>600.96000000000004</ele>
        <time>2025-05-03T08:37:54Z</time>
      </trkpt>
      <trkpt lat="41.106367008760571" lon="-7.387935016304255">
        <ele>613.94000000000005</ele>
        <time>2025-05-03T08:38:05Z</time>
      </trkpt>
      <trkpt lat="41.107793021947145" lon="-7.388734985142946">
        <ele>621.14999999999998</ele>
        <time>2025-05-03T08:38:12Z</time>
      </trkpt>
      <trkpt lat="41.107994019985199" lon="-7.388756023719907">
        <ele>621.63</ele>
        <time>2025-05-03T08:38:13Z</time>
      </trkpt>
      <trkpt lat="41.108199963346124" lon="-7.388777984306216">
        <ele>623.07000000000005</ele>
        <time>2025-05-03T08:38:14Z</time>
      </trkpt>
      <trkpt lat="41.108409008011222" lon="-7.388683017343283">
        <ele>624.02999999999997</ele>
        <time>2025-05-03T08:38:15Z</time>
      </trkpt>
      <trkpt lat="41.108613023534417" lon="-7.388590984046459">
        <ele>624.99000000000001</ele>
        <time>2025-05-03T08:38:16Z</time>
      </trkpt>
      <trkpt lat="41.108788959681988" lon="-7.388455029577017">
        <ele>625.96000000000004</ele>
        <time>2025-05-03T08:38:17Z</time>
      </trkpt>
      <trkpt lat="41.10896497964859" lon="-7.388289989903569">
        <ele>626.91999999999996</ele>
        <time>2025-05-03T08:38:18Z</time>
      </trkpt>
      <trkpt lat="41.109144017100334" lon="-7.388122016564012">
        <ele>627.88</ele>
        <time>2025-05-03T08:38:19Z</time>
      </trkpt>
      <trkpt lat="41.109646009281278" lon="-7.387651959434152">
        <ele>631.24000000000001</ele>
        <time>2025-05-03T08:38:22Z</time>
      </trkpt>
      <trkpt lat="41.109835021197796" lon="-7.387551041319966">
        <ele>632.20000000000005</ele>
        <time>2025-05-03T08:38:23Z</time>
      </trkpt>
      <trkpt lat="41.110028978437185" lon="-7.387513993307948">
        <ele>633.16999999999996</ele>
        <time>2025-05-03T08:38:24Z</time>
      </trkpt>
      <trkpt lat="41.110224025323987" lon="-7.387492032721639">
        <ele>634.13</ele>
        <time>2025-05-03T08:38:25Z</time>
      </trkpt>
      <trkpt lat="41.110399039462209" lon="-7.38756000995636">
        <ele>634.61000000000001</ele>
        <time>2025-05-03T08:38:26Z</time>
      </trkpt>
      <trkpt lat="41.110571036115289" lon="-7.387652965262532">
        <ele>634.61000000000001</ele>
        <time>2025-05-03T08:38:27Z</time>
      </trkpt>
      <trkpt lat="41.110723000019789" lon="-7.387795960530639">
        <ele>635.09000000000003</ele>
        <time>2025-05-03T08:38:28Z</time>
      </trkpt>
      <trkpt lat="41.110865995287895" lon="-7.387979021295905">
        <ele>635.09000000000003</ele>
        <time>2025-05-03T08:38:29Z</time>
      </trkpt>
      <trkpt lat="41.111015025526285" lon="-7.388169039040804">
        <ele>635.57000000000005</ele>
        <time>2025-05-03T08:38:30Z</time>
      </trkpt>
      <trkpt lat="41.111487010493875" lon="-7.388729033991695">
        <ele>636.04999999999995</ele>
        <time>2025-05-03T08:38:33Z</time>
      </trkpt>
      <trkpt lat="41.111660012975335" lon="-7.388901030644774">
        <ele>636.04999999999995</ele>
        <time>2025-05-03T08:38:34Z</time>
      </trkpt>
      <trkpt lat="41.111856987699866" lon="-7.389018964022398">
        <ele>636.52999999999997</ele>
        <time>2025-05-03T08:38:35Z</time>
      </trkpt>
      <trkpt lat="41.112054968252778" lon="-7.389137987047434">
        <ele>637.00999999999999</ele>
        <time>2025-05-03T08:38:36Z</time>
      </trkpt>
      <trkpt lat="41.11227398738265" lon="-7.389190038666129">
        <ele>637.00999999999999</ele>
        <time>2025-05-03T08:38:37Z</time>
      </trkpt>
      <trkpt lat="41.11248797737062" lon="-7.389238988980651">
        <ele>637.49000000000001</ele>
        <time>2025-05-03T08:38:38Z</time>
      </trkpt>
      <trkpt lat="41.11270397901535" lon="-7.389224991202354">
        <ele>637.97000000000003</ele>
        <time>2025-05-03T08:38:39Z</time>
      </trkpt>
      <trkpt lat="41.112922998145223" lon="-7.389192972332239">
        <ele>638.45000000000005</ele>
        <time>2025-05-03T08:38:40Z</time>
      </trkpt>
      <trkpt lat="41.113115027546883" lon="-7.389163970947266">
        <ele>638.92999999999995</ele>
        <time>2025-05-03T08:38:41Z</time>
      </trkpt>
      <trkpt lat="41.113335974514484" lon="-7.389032039791346">
        <ele>639.40999999999997</ele>
        <time>2025-05-03T08:38:42Z</time>
      </trkpt>
      <trkpt lat="41.113532027229667" lon="-7.38891402259469">
        <ele>639.88999999999999</ele>
        <time>2025-05-03T08:38:43Z</time>
      </trkpt>
      <trkpt lat="41.113692037761211" lon="-7.388749988749623">
        <ele>639.88999999999999</ele>
        <time>2025-05-03T08:38:44Z</time>
      </trkpt>
      <trkpt lat="41.113860011100769" lon="-7.388572040945292">
        <ele>640.38</ele>
        <time>2025-05-03T08:38:45Z</time>
      </trkpt>
      <trkpt lat="41.113995965570211" lon="-7.388370037078857">
        <ele>640.38</ele>
        <time>2025-05-03T08:38:46Z</time>
      </trkpt>
      <trkpt lat="41.114130998030305" lon="-7.388137020170689">
        <ele>640.38</ele>
        <time>2025-05-03T08:38:47Z</time>
      </trkpt>
      <trkpt lat="41.114944964647293" lon="-7.386813014745712">
        <ele>641.82000000000005</ele>
        <time>2025-05-03T08:38:53Z</time>
      </trkpt>
      <trkpt lat="41.1150879599154" lon="-7.386650992557406">
        <ele>642.77999999999997</ele>
        <time>2025-05-03T08:38:54Z</time>
      </trkpt>
      <trkpt lat="41.115260040387511" lon="-7.386527024209499">
        <ele>643.25999999999999</ele>
        <time>2025-05-03T08:38:55Z</time>
      </trkpt>
      <trkpt lat="41.115428013727069" lon="-7.386415963992477">
        <ele>643.74000000000001</ele>
        <time>2025-05-03T08:38:56Z</time>
      </trkpt>
      <trkpt lat="41.115617025643587" lon="-7.386398026719689">
        <ele>644.22000000000003</ele>
        <time>2025-05-03T08:38:57Z</time>
      </trkpt>
      <trkpt lat="41.115805031731725" lon="-7.386380005627871">
        <ele>644.70000000000005</ele>
        <time>2025-05-03T08:38:58Z</time>
      </trkpt>
      <trkpt lat="41.115985997021198" lon="-7.386429039761424">
        <ele>645.17999999999995</ele>
        <time>2025-05-03T08:38:59Z</time>
      </trkpt>
      <trkpt lat="41.116178026422858" lon="-7.386512020602822">
        <ele>645.17999999999995</ele>
        <time>2025-05-03T08:39:00Z</time>
      </trkpt>
      <trkpt lat="41.116372989490628" lon="-7.386601958423853">
        <ele>645.17999999999995</ele>
        <time>2025-05-03T08:39:01Z</time>
      </trkpt>
      <trkpt lat="41.116556972265244" lon="-7.386735985055566">
        <ele>645.17999999999995</ele>
        <time>2025-05-03T08:39:02Z</time>
      </trkpt>
      <trkpt lat="41.117614014074206" lon="-7.387685989961028">
        <ele>645.17999999999995</ele>
        <time>2025-05-03T08:39:08Z</time>
      </trkpt>
      <trkpt lat="41.117756003513932" lon="-7.387902997434139">
        <ele>645.17999999999995</ele>
        <time>2025-05-03T08:39:09Z</time>
      </trkpt>
      <trkpt lat="41.118964003399014" lon="-7.389611983671784">
        <ele>645.17999999999995</ele>
        <time>2025-05-03T08:39:17Z</time>
      </trkpt>
      <trkpt lat="41.119146980345249" lon="-7.38977300003171">
        <ele>644.70000000000005</ele>
        <time>2025-05-03T08:39:18Z</time>
      </trkpt>
      <trkpt lat="41.119352001696825" lon="-7.38988196477294">
        <ele>644.70000000000005</ele>
        <time>2025-05-03T08:39:19Z</time>
      </trkpt>
      <trkpt lat="41.119558028876781" lon="-7.389973998069763">
        <ele>644.70000000000005</ele>
        <time>2025-05-03T08:39:20Z</time>
      </trkpt>
      <trkpt lat="41.119779981672764" lon="-7.390015991404653">
        <ele>644.70000000000005</ele>
        <time>2025-05-03T08:39:21Z</time>
      </trkpt>
      <trkpt lat="41.120000006631017" lon="-7.390036024153233">
        <ele>644.70000000000005</ele>
        <time>2025-05-03T08:39:22Z</time>
      </trkpt>
      <trkpt lat="41.120226988568902" lon="-7.390049016103149">
        <ele>644.70000000000005</ele>
        <time>2025-05-03T08:39:23Z</time>
      </trkpt>
      <trkpt lat="41.12138201482594" lon="-7.390119004994631">
        <ele>646.13999999999999</ele>
        <time>2025-05-03T08:39:28Z</time>
      </trkpt>
      <trkpt lat="41.121604973450303" lon="-7.390197962522507">
        <ele>646.62</ele>
        <time>2025-05-03T08:39:29Z</time>
      </trkpt>
      <trkpt lat="41.121821980923414" lon="-7.390292007476091">
        <ele>647.10000000000002</ele>
        <time>2025-05-03T08:39:30Z</time>
      </trkpt>
      <trkpt lat="41.123161995783448" lon="-7.390776984393597">
        <ele>650.95000000000005</ele>
        <time>2025-05-03T08:39:36Z</time>
      </trkpt>
      <trkpt lat="41.124050980433822" lon="-7.390946969389916">
        <ele>653.35000000000002</ele>
        <time>2025-05-03T08:39:40Z</time>
      </trkpt>
      <trkpt lat="41.12424099817872" lon="-7.391047971323133">
        <ele>653.83000000000004</ele>
        <time>2025-05-03T08:39:41Z</time>
      </trkpt>
      <trkpt lat="41.125502977520227" lon="-7.392154969274998">
        <ele>656.72000000000003</ele>
        <time>2025-05-03T08:39:48Z</time>
      </trkpt>
      <trkpt lat="41.127284970134497" lon="-7.394198980182409">
        <ele>654.30999999999995</ele>
        <time>2025-05-03T08:39:58Z</time>
      </trkpt>
      <trkpt lat="41.127408016473055" lon="-7.394439037889242">
        <ele>653.83000000000004</ele>
        <time>2025-05-03T08:39:59Z</time>
      </trkpt>
      <trkpt lat="41.127503989264369" lon="-7.394706001505256">
        <ele>653.35000000000002</ele>
        <time>2025-05-03T08:40:00Z</time>
      </trkpt>
      <trkpt lat="41.127601973712444" lon="-7.39497497677803">
        <ele>652.38999999999999</ele>
        <time>2025-05-03T08:40:01Z</time>
      </trkpt>
      <trkpt lat="41.12767799757421" lon="-7.39525300450623">
        <ele>651.42999999999995</ele>
        <time>2025-05-03T08:40:02Z</time>
      </trkpt>
      <trkpt lat="41.127742035314441" lon="-7.395548969507217">
        <ele>649.99000000000001</ele>
        <time>2025-05-03T08:40:03Z</time>
      </trkpt>
      <trkpt lat="41.128102038055658" lon="-7.39699199795723">
        <ele>641.34000000000003</ele>
        <time>2025-05-03T08:40:08Z</time>
      </trkpt>
      <trkpt lat="41.128200022503734" lon="-7.397260973230004">
        <ele>639.40999999999997</ele>
        <time>2025-05-03T08:40:09Z</time>
      </trkpt>
      <trkpt lat="41.128347963094711" lon="-7.397480998188257">
        <ele>637.49000000000001</ele>
        <time>2025-05-03T08:40:10Z</time>
      </trkpt>
      <trkpt lat="41.128505039960146" lon="-7.397683002054691">
        <ele>635.57000000000005</ele>
        <time>2025-05-03T08:40:11Z</time>
      </trkpt>
      <trkpt lat="41.128696985542774" lon="-7.39780998788774">
        <ele>633.64999999999998</ele>
        <time>2025-05-03T08:40:12Z</time>
      </trkpt>
      <trkpt lat="41.128899995237589" lon="-7.397931022569537">
        <ele>631.72000000000003</ele>
        <time>2025-05-03T08:40:13Z</time>
      </trkpt>
      <trkpt lat="41.129120020195842" lon="-7.39800101146102">
        <ele>629.79999999999995</ele>
        <time>2025-05-03T08:40:14Z</time>
      </trkpt>
      <trkpt lat="41.12935203127563" lon="-7.39804401062429">
        <ele>627.88</ele>
        <time>2025-05-03T08:40:15Z</time>
      </trkpt>
      <trkpt lat="41.129585970193148" lon="-7.398078963160515">
        <ele>625.96000000000004</ele>
        <time>2025-05-03T08:40:16Z</time>
      </trkpt>
      <trkpt lat="41.132317967712879" lon="-7.398467967286706">
        <ele>615.86000000000001</ele>
        <time>2025-05-03T08:40:28Z</time>
      </trkpt>
      <trkpt lat="41.133180968463421" lon="-7.39858103916049">
        <ele>617.77999999999997</ele>
        <time>2025-05-03T08:40:32Z</time>
      </trkpt>
      <trkpt lat="41.133400993421674" lon="-7.398593025282025">
        <ele>618.75</ele>
        <time>2025-05-03T08:40:33Z</time>
      </trkpt>
      <trkpt lat="41.133602997288108" lon="-7.398509960621595">
        <ele>619.71000000000004</ele>
        <time>2025-05-03T08:40:34Z</time>
      </trkpt>
      <trkpt lat="41.133802989497781" lon="-7.398404013365507">
        <ele>620.66999999999996</ele>
        <time>2025-05-03T08:40:35Z</time>
      </trkpt>
      <trkpt lat="41.133976997807622" lon="-7.398270992562175">
        <ele>622.11000000000001</ele>
        <time>2025-05-03T08:40:36Z</time>
      </trkpt>
      <trkpt lat="41.134310010820627" lon="-7.398072006180883">
        <ele>624.50999999999999</ele>
        <time>2025-05-03T08:40:38Z</time>
      </trkpt>
      <trkpt lat="41.134472033008933" lon="-7.39802498370409">
        <ele>625.96000000000004</ele>
        <time>2025-05-03T08:40:39Z</time>
      </trkpt>
      <trkpt lat="41.134621985256672" lon="-7.398020960390568">
        <ele>627.39999999999998</ele>
        <time>2025-05-03T08:40:40Z</time>
      </trkpt>
      <trkpt lat="41.134771015495062" lon="-7.398074017837644">
        <ele>628.36000000000001</ele>
        <time>2025-05-03T08:40:41Z</time>
      </trkpt>
      <trkpt lat="41.13491702824831" lon="-7.398190023377538">
        <ele>629.79999999999995</ele>
        <time>2025-05-03T08:40:42Z</time>
      </trkpt>
      <trkpt lat="41.135058011859655" lon="-7.398357996717095">
        <ele>630.75999999999999</ele>
        <time>2025-05-03T08:40:43Z</time>
      </trkpt>
      <trkpt lat="41.135191032662988" lon="-7.398555977270007">
        <ele>632.20000000000005</ele>
        <time>2025-05-03T08:40:44Z</time>
      </trkpt>
      <trkpt lat="41.136106001213193" lon="-7.399668004363775">
        <ele>639.88999999999999</ele>
        <time>2025-05-03T08:40:50Z</time>
      </trkpt>
      <trkpt lat="41.136262994259596" lon="-7.399770012125373">
        <ele>640.86000000000001</ele>
        <time>2025-05-03T08:40:51Z</time>
      </trkpt>
      <trkpt lat="41.136429961770773" lon="-7.39980798214674">
        <ele>641.82000000000005</ele>
        <time>2025-05-03T08:40:52Z</time>
      </trkpt>
      <trkpt lat="41.136592989787459" lon="-7.399761965498328">
        <ele>643.25999999999999</ele>
        <time>2025-05-03T08:40:53Z</time>
      </trkpt>
      <trkpt lat="41.136733973398805" lon="-7.399643026292324">
        <ele>643.74000000000001</ele>
        <time>2025-05-03T08:40:54Z</time>
      </trkpt>
      <trkpt lat="41.136887026950717" lon="-7.399514028802514">
        <ele>644.70000000000005</ele>
        <time>2025-05-03T08:40:55Z</time>
      </trkpt>
      <trkpt lat="41.138178007677197" lon="-7.398183988407254">
        <ele>650.47000000000003</ele>
        <time>2025-05-03T08:41:03Z</time>
      </trkpt>
      <trkpt lat="41.138619985431433" lon="-7.397535983473063">
        <ele>653.35000000000002</ele>
        <time>2025-05-03T08:41:07Z</time>
      </trkpt>
      <trkpt lat="41.138672959059477" lon="-7.397381002083421">
        <ele>654.30999999999995</ele>
        <time>2025-05-03T08:41:08Z</time>
      </trkpt>
      <trkpt lat="41.13872199319303" lon="-7.397234989330173">
        <ele>654.79999999999995</ele>
        <time>2025-05-03T08:41:09Z</time>
      </trkpt>
      <trkpt lat="41.139011001214385" lon="-7.396406019106507">
        <ele>659.60000000000002</ele>
        <time>2025-05-03T08:41:17Z</time>
      </trkpt>
      <trkpt lat="41.139078978449106" lon="-7.396245002746582">
        <ele>662.97000000000003</ele>
        <time>2025-05-03T08:41:24Z</time>
      </trkpt>
      <trkpt lat="41.139078978449106" lon="-7.396245002746582">
        <ele>664.40999999999997</ele>
        <time>2025-05-03T08:41:38Z</time>
      </trkpt>
      <trkpt lat="41.139038996770978" lon="-7.396084992215037">
        <ele>670.65999999999997</ele>
        <time>2025-05-03T09:14:29Z</time>
      </trkpt>
      <trkpt lat="41.139004966244102" lon="-7.395997988060117">
        <ele>656.24000000000001</ele>
        <time>2025-05-03T09:15:02Z</time>
      </trkpt>
      <trkpt lat="41.139005972072482" lon="-7.396041993051767">
        <ele>659.60000000000002</ele>
        <time>2025-05-03T09:15:17Z</time>
      </trkpt>
      <trkpt lat="41.139229014515877" lon="-7.396031012758613">
        <ele>659.60000000000002</ele>
        <time>2025-05-03T09:15:26Z</time>
      </trkpt>
      <trkpt lat="41.139229014515877" lon="-7.396031012758613">
        <ele>659.12</ele>
        <time>2025-05-03T09:15:27Z</time>
      </trkpt>
      <trkpt lat="41.139554986730218" lon="-7.395838983356953">
        <ele>656.72000000000003</ele>
        <time>2025-05-03T09:15:34Z</time>
      </trkpt>
      <trkpt lat="41.139604020863771" lon="-7.395817022770643">
        <ele>656.72000000000003</ele>
        <time>2025-05-03T09:15:35Z</time>
      </trkpt>
      <trkpt lat="41.139678033068776" lon="-7.395823979750276">
        <ele>656.72000000000003</ele>
        <time>2025-05-03T09:15:36Z</time>
      </trkpt>
      <trkpt lat="41.139755984768271" lon="-7.39583202637732">
        <ele>656.24000000000001</ele>
        <time>2025-05-03T09:15:37Z</time>
      </trkpt>
      <trkpt lat="41.139821028336883" lon="-7.395849041640759">
        <ele>655.75999999999999</ele>
        <time>2025-05-03T09:15:38Z</time>
      </trkpt>
      <trkpt lat="41.139892023056746" lon="-7.395915007218719">
        <ele>655.27999999999997</ele>
        <time>2025-05-03T09:15:39Z</time>
      </trkpt>
      <trkpt lat="41.13996796309948" lon="-7.395984996110201">
        <ele>654.79999999999995</ele>
        <time>2025-05-03T09:15:40Z</time>
      </trkpt>
      <trkpt lat="41.140913022682071" lon="-7.396902982145548">
        <ele>650.95000000000005</ele>
        <time>2025-05-03T09:15:51Z</time>
      </trkpt>
      <trkpt lat="41.141286017373204" lon="-7.397289974614978">
        <ele>649.02999999999997</ele>
        <time>2025-05-03T09:15:55Z</time>
      </trkpt>
      <trkpt lat="41.141347959637642" lon="-7.397413020953536">
        <ele>649.02999999999997</ele>
        <time>2025-05-03T09:15:56Z</time>
      </trkpt>
      <trkpt lat="41.141379978507757" lon="-7.397556016221643">
        <ele>648.54999999999995</ele>
        <time>2025-05-03T09:15:57Z</time>
      </trkpt>
      <trkpt lat="41.141413003206253" lon="-7.397705968469381">
        <ele>647.59000000000003</ele>
        <time>2025-05-03T09:15:58Z</time>
      </trkpt>
      <trkpt lat="41.14144803956151" lon="-7.397863967344165">
        <ele>646.62</ele>
        <time>2025-05-03T09:15:59Z</time>
      </trkpt>
      <trkpt lat="41.141477040946484" lon="-7.398028001189232">
        <ele>646.13999999999999</ele>
        <time>2025-05-03T09:16:00Z</time>
      </trkpt>
      <trkpt lat="41.141520962119102" lon="-7.398366965353489">
        <ele>643.74000000000001</ele>
        <time>2025-05-03T09:16:02Z</time>
      </trkpt>
      <trkpt lat="41.141538983210921" lon="-7.39853803999722">
        <ele>642.29999999999995</ele>
        <time>2025-05-03T09:16:03Z</time>
      </trkpt>
      <trkpt lat="41.141567984595895" lon="-7.398906005546451">
        <ele>639.88999999999999</ele>
        <time>2025-05-03T09:16:05Z</time>
      </trkpt>
      <trkpt lat="41.141544012352824" lon="-7.399091999977827">
        <ele>638.92999999999995</ele>
        <time>2025-05-03T09:16:06Z</time>
      </trkpt>
      <trkpt lat="41.141516016796231" lon="-7.399583011865616">
        <ele>637.97000000000003</ele>
        <time>2025-05-03T09:16:09Z</time>
      </trkpt>
      <trkpt lat="41.141549041494727" lon="-7.399727012962103">
        <ele>637.49000000000001</ele>
        <time>2025-05-03T09:16:10Z</time>
      </trkpt>
      <trkpt lat="41.141618024557829" lon="-7.399806976318359">
        <ele>637.49000000000001</ele>
        <time>2025-05-03T09:16:11Z</time>
      </trkpt>
      <trkpt lat="41.141697987914085" lon="-7.399883000180125">
        <ele>637.00999999999999</ele>
        <time>2025-05-03T09:16:12Z</time>
      </trkpt>
      <trkpt lat="41.141790021210909" lon="-7.399929016828537">
        <ele>637.00999999999999</ele>
        <time>2025-05-03T09:16:13Z</time>
      </trkpt>
      <trkpt lat="41.141882976517081" lon="-7.399976039305329">
        <ele>637.00999999999999</ele>
        <time>2025-05-03T09:16:14Z</time>
      </trkpt>
      <trkpt lat="41.141980038955808" lon="-7.400023983791471">
        <ele>637.00999999999999</ele>
        <time>2025-05-03T09:16:15Z</time>
      </trkpt>
      <trkpt lat="41.142061008140445" lon="-7.400064971297979">
        <ele>637.00999999999999</ele>
        <time>2025-05-03T09:16:16Z</time>
      </trkpt>
      <trkpt lat="41.14213602617383" lon="-7.400188017636538">
        <ele>636.52999999999997</ele>
        <time>2025-05-03T09:16:17Z</time>
      </trkpt>
      <trkpt lat="41.142209032550454" lon="-7.400307040661573">
        <ele>636.04999999999995</ele>
        <time>2025-05-03T09:16:18Z</time>
      </trkpt>
      <trkpt lat="41.142296958714724" lon="-7.400451041758061">
        <ele>636.04999999999995</ele>
        <time>2025-05-03T09:16:19Z</time>
      </trkpt>
      <trkpt lat="41.142909005284309" lon="-7.401515962556005">
        <ele>632.67999999999995</ele>
        <time>2025-05-03T09:16:27Z</time>
      </trkpt>
      <trkpt lat="41.143070021644235" lon="-7.401716960594058">
        <ele>631.72000000000003</ele>
        <time>2025-05-03T09:16:29Z</time>
      </trkpt>
      <trkpt lat="41.143130036070943" lon="-7.401786027476192">
        <ele>631.24000000000001</ele>
        <time>2025-05-03T09:16:30Z</time>
      </trkpt>
      <trkpt lat="41.143191978335381" lon="-7.401857022196055">
        <ele>631.24000000000001</ele>
        <time>2025-05-03T09:16:31Z</time>
      </trkpt>
      <trkpt lat="41.143327010795474" lon="-7.401823997497559">
        <ele>630.75999999999999</ele>
        <time>2025-05-03T09:16:32Z</time>
      </trkpt>
      <trkpt lat="41.143380990251899" lon="-7.401836989447475">
        <ele>630.27999999999997</ele>
        <time>2025-05-03T09:16:33Z</time>
      </trkpt>
      <trkpt lat="41.143466988578439" lon="-7.401927011087537">
        <ele>630.27999999999997</ele>
        <time>2025-05-03T09:16:34Z</time>
      </trkpt>
      <trkpt lat="41.143499007448554" lon="-7.402081992477179">
        <ele>629.79999999999995</ele>
        <time>2025-05-03T09:16:35Z</time>
      </trkpt>
      <trkpt lat="41.143548963591456" lon="-7.402154998853803">
        <ele>629.32000000000005</ele>
        <time>2025-05-03T09:16:36Z</time>
      </trkpt>
      <trkpt lat="41.143614007160068" lon="-7.402248959988356">
        <ele>628.84000000000003</ele>
        <time>2025-05-03T09:16:37Z</time>
      </trkpt>
      <trkpt lat="41.143681984394789" lon="-7.402348034083843">
        <ele>628.36000000000001</ele>
        <time>2025-05-03T09:16:38Z</time>
      </trkpt>
      <trkpt lat="41.143768988549709" lon="-7.402444006875157">
        <ele>627.88</ele>
        <time>2025-05-03T09:16:39Z</time>
      </trkpt>
      <trkpt lat="41.143872002139688" lon="-7.402501003816724">
        <ele>627.39999999999998</ele>
        <time>2025-05-03T09:16:40Z</time>
      </trkpt>
      <trkpt lat="41.145074972882867" lon="-7.403142973780632">
        <ele>619.23000000000002</ele>
        <time>2025-05-03T09:16:51Z</time>
      </trkpt>
      <trkpt lat="41.145184021443129" lon="-7.403252022340894">
        <ele>617.77999999999997</ele>
        <time>2025-05-03T09:16:53Z</time>
      </trkpt>
      <trkpt lat="41.145225008949637" lon="-7.403293009847403">
        <ele>617.29999999999995</ele>
        <time>2025-05-03T09:16:54Z</time>
      </trkpt>
      <trkpt lat="41.145323999226093" lon="-7.403229977935553">
        <ele>616.34000000000003</ele>
        <time>2025-05-03T09:16:55Z</time>
      </trkpt>
      <trkpt lat="41.145378984510899" lon="-7.403182033449411">
        <ele>615.86000000000001</ele>
        <time>2025-05-03T09:16:56Z</time>
      </trkpt>
      <trkpt lat="41.145443022251129" lon="-7.403126964345574">
        <ele>614.89999999999998</ele>
        <time>2025-05-03T09:16:57Z</time>
      </trkpt>
      <trkpt lat="41.145513011142612" lon="-7.403067033737898">
        <ele>614.41999999999996</ele>
        <time>2025-05-03T09:16:58Z</time>
      </trkpt>
      <trkpt lat="41.145583000034094" lon="-7.403006013482809">
        <ele>613.94000000000005</ele>
        <time>2025-05-03T09:16:59Z</time>
      </trkpt>
      <trkpt lat="41.145696993917227" lon="-7.402908029034734">
        <ele>612.98000000000002</ele>
        <time>2025-05-03T09:17:01Z</time>
      </trkpt>
      <trkpt lat="41.145733036100864" lon="-7.402877015992999">
        <ele>612.5</ele>
        <time>2025-05-03T09:17:02Z</time>
      </trkpt>
      <trkpt lat="41.145759020000696" lon="-7.402854971587658">
        <ele>612.01999999999998</ele>
        <time>2025-05-03T09:17:03Z</time>
      </trkpt>
      <trkpt lat="41.145777963101864" lon="-7.402838040143251">
        <ele>611.05999999999995</ele>
        <time>2025-05-03T09:17:04Z</time>
      </trkpt>
      <trkpt lat="41.145887011662126" lon="-7.402850026264787">
        <ele>611.05999999999995</ele>
        <time>2025-05-03T09:17:05Z</time>
      </trkpt>
      <trkpt lat="41.145895980298519" lon="-7.40287902764976">
        <ele>610.57000000000005</ele>
        <time>2025-05-03T09:17:06Z</time>
      </trkpt>
      <trkpt lat="41.145907966420054" lon="-7.402915991842747">
        <ele>609.61000000000001</ele>
        <time>2025-05-03T09:17:07Z</time>
      </trkpt>
      <trkpt lat="41.14591802470386" lon="-7.402953961864114">
        <ele>609.13</ele>
        <time>2025-05-03T09:17:08Z</time>
      </trkpt>
      <trkpt lat="41.145932022482157" lon="-7.403001990169287">
        <ele>608.16999999999996</ele>
        <time>2025-05-03T09:17:09Z</time>
      </trkpt>
      <trkpt lat="41.146151041612029" lon="-7.403697017580271">
        <ele>602.88</ele>
        <time>2025-05-03T09:17:17Z</time>
      </trkpt>
      <trkpt lat="41.146216001361609" lon="-7.403948977589607">
        <ele>603.85000000000002</ele>
        <time>2025-05-03T09:17:20Z</time>
      </trkpt>
      <trkpt lat="41.146234022453427" lon="-7.404025001451373">
        <ele>603.85000000000002</ele>
        <time>2025-05-03T09:17:21Z</time>
      </trkpt>
      <trkpt lat="41.146337036043406" lon="-7.404385004192591">
        <ele>604.33000000000004</ele>
        <time>2025-05-03T09:17:26Z</time>
      </trkpt>
      <trkpt lat="41.146428985521197" lon="-7.404709970578551">
        <ele>606.73000000000002</ele>
        <time>2025-05-03T09:17:34Z</time>
      </trkpt>
      <trkpt lat="41.146583966910839" lon="-7.405076008290052">
        <ele>607.21000000000004</ele>
        <time>2025-05-03T09:17:46Z</time>
      </trkpt>
      <trkpt lat="41.146807009354234" lon="-7.405594009906054">
        <ele>605.28999999999996</ele>
        <time>2025-05-03T09:17:55Z</time>
      </trkpt>
      <trkpt lat="41.146998032927513" lon="-7.406141012907028">
        <ele>605.76999999999998</ele>
        <time>2025-05-03T09:18:03Z</time>
      </trkpt>
      <trkpt lat="41.147060981020331" lon="-7.406545020639896">
        <ele>604.80999999999995</ele>
        <time>2025-05-03T09:18:12Z</time>
      </trkpt>
      <trkpt lat="41.14710196852684" lon="-7.406663037836552">
        <ele>604.80999999999995</ele>
        <time>2025-05-03T09:18:13Z</time>
      </trkpt>
      <trkpt lat="41.147082019597292" lon="-7.406709976494312">
        <ele>604.80999999999995</ele>
        <time>2025-05-03T09:18:14Z</time>
      </trkpt>
      <trkpt lat="41.147076990455389" lon="-7.406862024217844">
        <ele>605.28999999999996</ele>
        <time>2025-05-03T09:18:16Z</time>
      </trkpt>
      <trkpt lat="41.147103980183601" lon="-7.407037960365415">
        <ele>605.28999999999996</ele>
        <time>2025-05-03T09:18:19Z</time>
      </trkpt>
      <trkpt lat="41.147220991551876" lon="-7.407403998076916">
        <ele>604.33000000000004</ele>
        <time>2025-05-03T09:18:25Z</time>
      </trkpt>
      <trkpt lat="41.14735996350646" lon="-7.407742962241173">
        <ele>603.85000000000002</ele>
        <time>2025-05-03T09:18:32Z</time>
      </trkpt>
      <trkpt lat="41.147387037053704" lon="-7.407786967232823">
        <ele>603.36000000000001</ele>
        <time>2025-05-03T09:18:33Z</time>
      </trkpt>
      <trkpt lat="41.147414026781917" lon="-7.407831978052855">
        <ele>603.36000000000001</ele>
        <time>2025-05-03T09:18:34Z</time>
      </trkpt>
      <trkpt lat="41.147445961833" lon="-7.407886041328311">
        <ele>604.80999999999995</ele>
        <time>2025-05-03T09:18:35Z</time>
      </trkpt>
      <trkpt lat="41.147475969046354" lon="-7.407934991642833">
        <ele>605.28999999999996</ele>
        <time>2025-05-03T09:18:36Z</time>
      </trkpt>
      <trkpt lat="41.14752902649343" lon="-7.408021995797753">
        <ele>605.28999999999996</ele>
        <time>2025-05-03T09:18:38Z</time>
      </trkpt>
      <trkpt lat="41.147586023434997" lon="-7.408116962760687">
        <ele>604.80999999999995</ele>
        <time>2025-05-03T09:18:40Z</time>
      </trkpt>
      <trkpt lat="41.147854998707771" lon="-7.408571010455489">
        <ele>602.39999999999998</ele>
        <time>2025-05-03T09:18:48Z</time>
      </trkpt>
      <trkpt lat="41.147891962900758" lon="-7.408636976033449">
        <ele>601.91999999999996</ele>
        <time>2025-05-03T09:18:49Z</time>
      </trkpt>
      <trkpt lat="41.147972010076046" lon="-7.408781982958317">
        <ele>601.44000000000005</ele>
        <time>2025-05-03T09:18:56Z</time>
      </trkpt>
      <trkpt lat="41.147972010076046" lon="-7.408781982958317">
        <ele>601.44000000000005</ele>
        <time>2025-05-03T09:19:27Z</time>
      </trkpt>
      <trkpt lat="41.148030012845993" lon="-7.408889019861817">
        <ele>601.44000000000005</ele>
        <time>2025-05-03T09:19:44Z</time>
      </trkpt>
      <trkpt lat="41.147570013999939" lon="-7.408577967435122">
        <ele>596.63999999999999</ele>
        <time>2025-05-03T09:26:53Z</time>
      </trkpt>
      <trkpt lat="41.148187005892396" lon="-7.40893897600472">
        <ele>616.82000000000005</ele>
        <time>2025-05-03T09:27:20Z</time>
      </trkpt>
      <trkpt lat="41.148162027820945" lon="-7.408987004309893">
        <ele>623.07000000000005</ele>
        <time>2025-05-03T09:27:43Z</time>
      </trkpt>
      <trkpt lat="41.148126991465688" lon="-7.409027991816402">
        <ele>618.75</ele>
        <time>2025-05-03T09:28:29Z</time>
      </trkpt>
      <trkpt lat="41.148149035871029" lon="-7.409104015678167">
        <ele>620.66999999999996</ele>
        <time>2025-05-03T09:29:11Z</time>
      </trkpt>
      <trkpt lat="41.148202009499073" lon="-7.409198982641101">
        <ele>620.66999999999996</ele>
        <time>2025-05-03T09:29:13Z</time>
      </trkpt>
      <trkpt lat="41.148261018097401" lon="-7.409350024536252">
        <ele>620.19000000000005</ele>
        <time>2025-05-03T09:29:16Z</time>
      </trkpt>
      <trkpt lat="41.148279039189219" lon="-7.409420013427734">
        <ele>620.19000000000005</ele>
        <time>2025-05-03T09:29:17Z</time>
      </trkpt>
      <trkpt lat="41.148296976462007" lon="-7.409493019804359">
        <ele>619.71000000000004</ele>
        <time>2025-05-03T09:29:18Z</time>
      </trkpt>
      <trkpt lat="41.148326983675361" lon="-7.409656969830394">
        <ele>619.23000000000002</ele>
        <time>2025-05-03T09:29:20Z</time>
      </trkpt>
      <trkpt lat="41.148326983675361" lon="-7.410380998626351">
        <ele>616.82000000000005</ele>
        <time>2025-05-03T09:29:28Z</time>
      </trkpt>
      <trkpt lat="41.148340981453657" lon="-7.410479988902807">
        <ele>616.34000000000003</ele>
        <time>2025-05-03T09:29:29Z</time>
      </trkpt>
      <trkpt lat="41.148380963131785" lon="-7.410565987229347">
        <ele>615.38</ele>
        <time>2025-05-03T09:29:30Z</time>
      </trkpt>
      <trkpt lat="41.148419016972184" lon="-7.410649973899126">
        <ele>614.89999999999998</ele>
        <time>2025-05-03T09:29:31Z</time>
      </trkpt>
      <trkpt lat="41.148455981165171" lon="-7.410729015246034">
        <ele>614.41999999999996</ele>
        <time>2025-05-03T09:29:32Z</time>
      </trkpt>
      <trkpt lat="41.148536028340459" lon="-7.410772014409304">
        <ele>614.41999999999996</ele>
        <time>2025-05-03T09:29:33Z</time>
      </trkpt>
      <trkpt lat="41.148599982261658" lon="-7.410806966945529">
        <ele>613.94000000000005</ele>
        <time>2025-05-03T09:29:34Z</time>
      </trkpt>
      <trkpt lat="41.148666031658649" lon="-7.410842003300786">
        <ele>613.46000000000004</ele>
        <time>2025-05-03T09:29:35Z</time>
      </trkpt>
      <trkpt lat="41.148738032206893" lon="-7.410879973322153">
        <ele>612.98000000000002</ele>
        <time>2025-05-03T09:29:36Z</time>
      </trkpt>
      <trkpt lat="41.149473963305354" lon="-7.411061022430658">
        <ele>612.01999999999998</ele>
        <time>2025-05-03T09:29:46Z</time>
      </trkpt>
      <trkpt lat="41.149620981886983" lon="-7.411145009100437">
        <ele>612.01999999999998</ele>
        <time>2025-05-03T09:29:48Z</time>
      </trkpt>
      <trkpt lat="41.149694994091988" lon="-7.411185996606946">
        <ele>612.01999999999998</ele>
        <time>2025-05-03T09:29:49Z</time>
      </trkpt>
      <trkpt lat="41.149746961891651" lon="-7.411241987720132">
        <ele>612.01999999999998</ele>
        <time>2025-05-03T09:29:50Z</time>
      </trkpt>
      <trkpt lat="41.149795996025205" lon="-7.41132203489542">
        <ele>612.01999999999998</ele>
        <time>2025-05-03T09:29:51Z</time>
      </trkpt>
      <trkpt lat="41.149848969653249" lon="-7.41140702739358">
        <ele>612.01999999999998</ele>
        <time>2025-05-03T09:29:52Z</time>
      </trkpt>
      <trkpt lat="41.149902027100325" lon="-7.41149302572012">
        <ele>612.01999999999998</ele>
        <time>2025-05-03T09:29:53Z</time>
      </trkpt>
      <trkpt lat="41.150005962699652" lon="-7.41166602820158">
        <ele>612.5</ele>
        <time>2025-05-03T09:29:55Z</time>
      </trkpt>
      <trkpt lat="41.15004301071167" lon="-7.411757977679372">
        <ele>612.5</ele>
        <time>2025-05-03T09:29:56Z</time>
      </trkpt>
      <trkpt lat="41.150283990427852" lon="-7.412417968735099">
        <ele>612.5</ele>
        <time>2025-05-03T09:30:03Z</time>
      </trkpt>
      <trkpt lat="41.150311985984445" lon="-7.412525005638599">
        <ele>612.5</ele>
        <time>2025-05-03T09:30:04Z</time>
      </trkpt>
      <trkpt lat="41.150341993197799" lon="-7.41263497620821">
        <ele>612.98000000000002</ele>
        <time>2025-05-03T09:30:05Z</time>
      </trkpt>
      <trkpt lat="41.150374012067914" lon="-7.412750981748104">
        <ele>612.98000000000002</ele>
        <time>2025-05-03T09:30:06Z</time>
      </trkpt>
      <trkpt lat="41.15040703676641" lon="-7.412873022258282">
        <ele>612.98000000000002</ele>
        <time>2025-05-03T09:30:07Z</time>
      </trkpt>
      <trkpt lat="41.15049404092133" lon="-7.413196982815862">
        <ele>612.98000000000002</ele>
        <time>2025-05-03T09:30:10Z</time>
      </trkpt>
      <trkpt lat="41.150683974847198" lon="-7.414648979902268">
        <ele>615.86000000000001</ele>
        <time>2025-05-03T09:30:21Z</time>
      </trkpt>
      <trkpt lat="41.150834010913968" lon="-7.416094020009041">
        <ele>618.25999999999999</ele>
        <time>2025-05-03T09:30:30Z</time>
      </trkpt>
      <trkpt lat="41.150977006182075" lon="-7.417470999062061">
        <ele>620.66999999999996</ele>
        <time>2025-05-03T09:30:39Z</time>
      </trkpt>
      <trkpt lat="41.150998966768384" lon="-7.419004971161485">
        <ele>621.63</ele>
        <time>2025-05-03T09:30:49Z</time>
      </trkpt>
      <trkpt lat="41.150873992592096" lon="-7.420268962159753">
        <ele>619.71000000000004</ele>
        <time>2025-05-03T09:30:58Z</time>
      </trkpt>
      <trkpt lat="41.150828981772065" lon="-7.420860975980759">
        <ele>619.71000000000004</ele>
        <time>2025-05-03T09:31:03Z</time>
      </trkpt>
      <trkpt lat="41.150930989533663" lon="-7.422113986685872">
        <ele>622.11000000000001</ele>
        <time>2025-05-03T09:31:13Z</time>
      </trkpt>
      <trkpt lat="41.150959990918636" lon="-7.42238899692893">
        <ele>622.11000000000001</ele>
        <time>2025-05-03T09:31:15Z</time>
      </trkpt>
      <trkpt lat="41.151002990081906" lon="-7.422797027975321">
        <ele>623.07000000000005</ele>
        <time>2025-05-03T09:31:18Z</time>
      </trkpt>
      <trkpt lat="41.15100902505219" lon="-7.422853019088507">
        <ele>623.54999999999995</ele>
        <time>2025-05-03T09:31:19Z</time>
      </trkpt>
      <trkpt lat="41.151030985638499" lon="-7.423110008239746">
        <ele>623.54999999999995</ele>
        <time>2025-05-03T09:31:20Z</time>
      </trkpt>
      <trkpt lat="41.151048000901937" lon="-7.42324797436595">
        <ele>624.02999999999997</ele>
        <time>2025-05-03T09:31:21Z</time>
      </trkpt>
      <trkpt lat="41.151069961488247" lon="-7.423423994332552">
        <ele>624.50999999999999</ele>
        <time>2025-05-03T09:31:22Z</time>
      </trkpt>
      <trkpt lat="41.151092005893588" lon="-7.423604959622026">
        <ele>624.99000000000001</ele>
        <time>2025-05-03T09:31:23Z</time>
      </trkpt>
      <trkpt lat="41.151170963421464" lon="-7.42434298619628">
        <ele>626.91999999999996</ele>
        <time>2025-05-03T09:31:27Z</time>
      </trkpt>
      <trkpt lat="41.151189990341663" lon="-7.424529986456037">
        <ele>627.88</ele>
        <time>2025-05-03T09:31:28Z</time>
      </trkpt>
      <trkpt lat="41.151405991986394" lon="-7.426392026245594">
        <ele>635.57000000000005</ele>
        <time>2025-05-03T09:31:38Z</time>
      </trkpt>
      <trkpt lat="41.151593998074532" lon="-7.427864978089929">
        <ele>640.86000000000001</ele>
        <time>2025-05-03T09:31:44Z</time>
      </trkpt>
      <trkpt lat="41.151649989187717" lon="-7.428326988592744">
        <ele>642.29999999999995</ele>
        <time>2025-05-03T09:31:46Z</time>
      </trkpt>
      <trkpt lat="41.151722995564342" lon="-7.428504014387727">
        <ele>642.77999999999997</ele>
        <time>2025-05-03T09:31:47Z</time>
      </trkpt>
      <trkpt lat="41.151789966970682" lon="-7.428651032969356">
        <ele>643.74000000000001</ele>
        <time>2025-05-03T09:31:48Z</time>
      </trkpt>
      <trkpt lat="41.151903960853815" lon="-7.42872403934598">
        <ele>644.22000000000003</ele>
        <time>2025-05-03T09:31:49Z</time>
      </trkpt>
      <trkpt lat="41.152016026899219" lon="-7.428795034065843">
        <ele>644.22000000000003</ele>
        <time>2025-05-03T09:31:50Z</time>
      </trkpt>
      <trkpt lat="41.152131026610732" lon="-7.428868040442467">
        <ele>644.70000000000005</ele>
        <time>2025-05-03T09:31:51Z</time>
      </trkpt>
      <trkpt lat="41.152253989130259" lon="-7.428946997970343">
        <ele>645.17999999999995</ele>
        <time>2025-05-03T09:31:52Z</time>
      </trkpt>
      <trkpt lat="41.152358008548617" lon="-7.429065015166998">
        <ele>645.65999999999997</ele>
        <time>2025-05-03T09:31:53Z</time>
      </trkpt>
      <trkpt lat="41.152552971616387" lon="-7.429287973791361">
        <ele>647.10000000000002</ele>
        <time>2025-05-03T09:31:55Z</time>
      </trkpt>
      <trkpt lat="41.152584990486503" lon="-7.429423006251454">
        <ele>647.59000000000003</ele>
        <time>2025-05-03T09:31:56Z</time>
      </trkpt>
      <trkpt lat="41.152618015184999" lon="-7.429569019004703">
        <ele>648.07000000000005</ele>
        <time>2025-05-03T09:31:57Z</time>
      </trkpt>
      <trkpt lat="41.152593037113547" lon="-7.429699022322893">
        <ele>649.02999999999997</ele>
        <time>2025-05-03T09:31:58Z</time>
      </trkpt>
      <trkpt lat="41.152563029900193" lon="-7.429860038682818">
        <ele>649.50999999999999</ele>
        <time>2025-05-03T09:31:59Z</time>
      </trkpt>
      <trkpt lat="41.152528999373317" lon="-7.430033963173628">
        <ele>649.50999999999999</ele>
        <time>2025-05-03T09:32:00Z</time>
      </trkpt>
      <trkpt lat="41.152521036565304" lon="-7.430219035595655">
        <ele>649.99000000000001</ele>
        <time>2025-05-03T09:32:01Z</time>
      </trkpt>
      <trkpt lat="41.152542997151613" lon="-7.430417016148567">
        <ele>650.47000000000003</ele>
        <time>2025-05-03T09:32:02Z</time>
      </trkpt>
      <trkpt lat="41.152591025456786" lon="-7.430842984467745">
        <ele>651.90999999999997</ele>
        <time>2025-05-03T09:32:04Z</time>
      </trkpt>
      <trkpt lat="41.152585996314883" lon="-7.43106602691114">
        <ele>652.38999999999999</ele>
        <time>2025-05-03T09:32:05Z</time>
      </trkpt>
      <trkpt lat="41.152553977444768" lon="-7.431715037673712">
        <ele>654.30999999999995</ele>
        <time>2025-05-03T09:32:08Z</time>
      </trkpt>
      <trkpt lat="41.152587002143264" lon="-7.431931039318442">
        <ele>654.79999999999995</ele>
        <time>2025-05-03T09:32:09Z</time>
      </trkpt>
      <trkpt lat="41.152660008519888" lon="-7.432127008214593">
        <ele>654.79999999999995</ele>
        <time>2025-05-03T09:32:10Z</time>
      </trkpt>
      <trkpt lat="41.15274902433157" lon="-7.432323982939124">
        <ele>655.27999999999997</ele>
        <time>2025-05-03T09:32:11Z</time>
      </trkpt>
      <trkpt lat="41.152842985466123" lon="-7.432527998462319">
        <ele>655.75999999999999</ele>
        <time>2025-05-03T09:32:12Z</time>
      </trkpt>
      <trkpt lat="41.153921987861395" lon="-7.43493402376771">
        <ele>664.88999999999999</ele>
        <time>2025-05-03T09:32:23Z</time>
      </trkpt>
      <trkpt lat="41.154563035815954" lon="-7.436777036637068">
        <ele>671.13999999999999</ele>
        <time>2025-05-03T09:32:31Z</time>
      </trkpt>
      <trkpt lat="41.15468398667872" lon="-7.436922965571284">
        <ele>671.62</ele>
        <time>2025-05-03T09:32:32Z</time>
      </trkpt>
      <trkpt lat="41.154822036623955" lon="-7.437051963061094">
        <ele>671.62</ele>
        <time>2025-05-03T09:32:33Z</time>
      </trkpt>
      <trkpt lat="41.154981963336468" lon="-7.43716998025775">
        <ele>672.10000000000002</ele>
        <time>2025-05-03T09:32:34Z</time>
      </trkpt>
      <trkpt lat="41.155145997181535" lon="-7.437291014939547">
        <ele>672.10000000000002</ele>
        <time>2025-05-03T09:32:35Z</time>
      </trkpt>
      <trkpt lat="41.155920987948775" lon="-7.437883028760552">
        <ele>675.94000000000005</ele>
        <time>2025-05-03T09:32:40Z</time>
      </trkpt>
      <trkpt lat="41.156026013195515" lon="-7.437995010986924">
        <ele>676.90999999999997</ele>
        <time>2025-05-03T09:32:41Z</time>
      </trkpt>
      <trkpt lat="41.156079992651939" lon="-7.438155021518469">
        <ele>677.87</ele>
        <time>2025-05-03T09:32:42Z</time>
      </trkpt>
      <trkpt lat="41.156121985986829" lon="-7.438343027606607">
        <ele>678.83000000000004</ele>
        <time>2025-05-03T09:32:43Z</time>
      </trkpt>
      <trkpt lat="41.156163979321718" lon="-7.438536984845996">
        <ele>679.78999999999996</ele>
        <time>2025-05-03T09:32:44Z</time>
      </trkpt>
      <trkpt lat="41.156333964318037" lon="-7.439574999734759">
        <ele>684.60000000000002</ele>
        <time>2025-05-03T09:32:51Z</time>
      </trkpt>
      <trkpt lat="41.156351985409856" lon="-7.439695028588176">
        <ele>685.08000000000004</ele>
        <time>2025-05-03T09:32:52Z</time>
      </trkpt>
      <trkpt lat="41.156332958489656" lon="-7.439786978065968">
        <ele>685.55999999999995</ele>
        <time>2025-05-03T09:32:53Z</time>
      </trkpt>
      <trkpt lat="41.156310997903347" lon="-7.439890997484326">
        <ele>686.03999999999996</ele>
        <time>2025-05-03T09:32:54Z</time>
      </trkpt>
      <trkpt lat="41.156288031488657" lon="-7.439997028559446">
        <ele>686.51999999999998</ele>
        <time>2025-05-03T09:32:55Z</time>
      </trkpt>
      <trkpt lat="41.156223993748426" lon="-7.440073974430561">
        <ele>687</ele>
        <time>2025-05-03T09:32:56Z</time>
      </trkpt>
      <trkpt lat="41.156160039827228" lon="-7.440151004120708">
        <ele>687</ele>
        <time>2025-05-03T09:32:57Z</time>
      </trkpt>
      <trkpt lat="41.156093990430236" lon="-7.440229961648583">
        <ele>687.48000000000002</ele>
        <time>2025-05-03T09:32:58Z</time>
      </trkpt>
      <trkpt lat="41.155485967174172" lon="-7.440874027088285">
        <ele>692.28999999999996</ele>
        <time>2025-05-03T09:33:07Z</time>
      </trkpt>
      <trkpt lat="41.155432993546128" lon="-7.440967988222837">
        <ele>692.76999999999998</ele>
        <time>2025-05-03T09:33:08Z</time>
      </trkpt>
      <trkpt lat="41.155391000211239" lon="-7.441078964620829">
        <ele>693.25</ele>
        <time>2025-05-03T09:33:09Z</time>
      </trkpt>
      <trkpt lat="41.155356969684362" lon="-7.441201005131006">
        <ele>693.73000000000002</ele>
        <time>2025-05-03T09:33:10Z</time>
      </trkpt>
      <trkpt lat="41.155322017148137" lon="-7.441327990964055">
        <ele>694.21000000000004</ele>
        <time>2025-05-03T09:33:11Z</time>
      </trkpt>
      <trkpt lat="41.155322017148137" lon="-7.441476015374064">
        <ele>694.21000000000004</ele>
        <time>2025-05-03T09:33:12Z</time>
      </trkpt>
      <trkpt lat="41.155322017148137" lon="-7.441624039784074">
        <ele>694.69000000000005</ele>
        <time>2025-05-03T09:33:13Z</time>
      </trkpt>
      <trkpt lat="41.15526401437819" lon="-7.442639004439116">
        <ele>694.69000000000005</ele>
        <time>2025-05-03T09:33:18Z</time>
      </trkpt>
      <trkpt lat="41.155208023265004" lon="-7.442817036062479">
        <ele>694.69000000000005</ele>
        <time>2025-05-03T09:33:19Z</time>
      </trkpt>
      <trkpt lat="41.154609974473715" lon="-7.444344973191619">
        <ele>694.69000000000005</ele>
        <time>2025-05-03T09:33:26Z</time>
      </trkpt>
      <trkpt lat="41.154291965067387" lon="-7.445603013038635">
        <ele>694.69000000000005</ele>
        <time>2025-05-03T09:33:32Z</time>
      </trkpt>
      <trkpt lat="41.154303029179573" lon="-7.445778027176857">
        <ele>694.69000000000005</ele>
        <time>2025-05-03T09:33:33Z</time>
      </trkpt>
      <trkpt lat="41.154356002807617" lon="-7.445920016616583">
        <ele>694.69000000000005</ele>
        <time>2025-05-03T09:33:34Z</time>
      </trkpt>
      <trkpt lat="41.154451975598931" lon="-7.446068041026592">
        <ele>695.16999999999996</ele>
        <time>2025-05-03T09:33:35Z</time>
      </trkpt>
      <trkpt lat="41.154549038037658" lon="-7.446220004931092">
        <ele>695.16999999999996</ele>
        <time>2025-05-03T09:33:36Z</time>
      </trkpt>
      <trkpt lat="41.154733020812273" lon="-7.446519993245602">
        <ele>695.16999999999996</ele>
        <time>2025-05-03T09:33:38Z</time>
      </trkpt>
      <trkpt lat="41.154781971126795" lon="-7.446651002392173">
        <ele>694.69000000000005</ele>
        <time>2025-05-03T09:33:39Z</time>
      </trkpt>
      <trkpt lat="41.154767973348498" lon="-7.446812018752098">
        <ele>694.21000000000004</ele>
        <time>2025-05-03T09:33:40Z</time>
      </trkpt>
      <trkpt lat="41.154751963913441" lon="-7.446994995698333">
        <ele>694.21000000000004</ele>
        <time>2025-05-03T09:33:41Z</time>
      </trkpt>
      <trkpt lat="41.154731009155512" lon="-7.447201022878289">
        <ele>693.73000000000002</ele>
        <time>2025-05-03T09:33:42Z</time>
      </trkpt>
      <trkpt lat="41.154655991122127" lon="-7.448206013068557">
        <ele>693.25</ele>
        <time>2025-05-03T09:33:47Z</time>
      </trkpt>
      <trkpt lat="41.154695972800255" lon="-7.448351019993424">
        <ele>692.76999999999998</ele>
        <time>2025-05-03T09:33:48Z</time>
      </trkpt>
      <trkpt lat="41.154780965298414" lon="-7.448446992784739">
        <ele>692.28999999999996</ele>
        <time>2025-05-03T09:33:49Z</time>
      </trkpt>
      <trkpt lat="41.154892025515437" lon="-7.448526034131646">
        <ele>692.28999999999996</ele>
        <time>2025-05-03T09:33:50Z</time>
      </trkpt>
      <trkpt lat="41.155035020783544" lon="-7.44859803467989">
        <ele>691.80999999999995</ele>
        <time>2025-05-03T09:33:51Z</time>
      </trkpt>
      <trkpt lat="41.156313009560108" lon="-7.449073037132621">
        <ele>688.44000000000005</ele>
        <time>2025-05-03T09:33:58Z</time>
      </trkpt>
      <trkpt lat="41.157181961461902" lon="-7.449260959401727">
        <ele>685.08000000000004</ele>
        <time>2025-05-03T09:34:03Z</time>
      </trkpt>
      <trkpt lat="41.157277012243867" lon="-7.449342012405396">
        <ele>684.12</ele>
        <time>2025-05-03T09:34:04Z</time>
      </trkpt>
      <trkpt lat="41.157382037490606" lon="-7.449460029602051">
        <ele>683.63</ele>
        <time>2025-05-03T09:34:05Z</time>
      </trkpt>
      <trkpt lat="41.157419001683593" lon="-7.449559019878507">
        <ele>683.14999999999998</ele>
        <time>2025-05-03T09:34:06Z</time>
      </trkpt>
      <trkpt lat="41.157432999461889" lon="-7.44971701875329">
        <ele>682.19000000000005</ele>
        <time>2025-05-03T09:34:07Z</time>
      </trkpt>
      <trkpt lat="41.157405003905296" lon="-7.449903013184667">
        <ele>681.71000000000004</ele>
        <time>2025-05-03T09:34:08Z</time>
      </trkpt>
      <trkpt lat="41.157320011407137" lon="-7.450085990130901">
        <ele>681.23000000000002</ele>
        <time>2025-05-03T09:34:09Z</time>
      </trkpt>
      <trkpt lat="41.157224960625172" lon="-7.450283970683813">
        <ele>680.75</ele>
        <time>2025-05-03T09:34:10Z</time>
      </trkpt>
      <trkpt lat="41.157126976177096" lon="-7.45048999786377">
        <ele>680.26999999999998</ele>
        <time>2025-05-03T09:34:11Z</time>
      </trkpt>
      <trkpt lat="41.156862024217844" lon="-7.451142026111484">
        <ele>678.83000000000004</ele>
        <time>2025-05-03T09:34:14Z</time>
      </trkpt>
      <trkpt lat="41.156566981226206" lon="-7.45225103572011">
        <ele>676.41999999999996</ele>
        <time>2025-05-03T09:34:19Z</time>
      </trkpt>
      <trkpt lat="41.156566981226206" lon="-7.452427977696061">
        <ele>675.94000000000005</ele>
        <time>2025-05-03T09:34:20Z</time>
      </trkpt>
      <trkpt lat="41.156616015359759" lon="-7.452542977407575">
        <ele>675.46000000000004</ele>
        <time>2025-05-03T09:34:21Z</time>
      </trkpt>
      <trkpt lat="41.156689021736383" lon="-7.452649008482695">
        <ele>674.98000000000002</ele>
        <time>2025-05-03T09:34:22Z</time>
      </trkpt>
      <trkpt lat="41.156796980649233" lon="-7.452742969617248">
        <ele>674.5</ele>
        <time>2025-05-03T09:34:23Z</time>
      </trkpt>
      <trkpt lat="41.156909968703985" lon="-7.452840032055974">
        <ele>674.01999999999998</ele>
        <time>2025-05-03T09:34:24Z</time>
      </trkpt>
      <trkpt lat="41.157012982293963" lon="-7.452950002625585">
        <ele>674.01999999999998</ele>
        <time>2025-05-03T09:34:25Z</time>
      </trkpt>
      <trkpt lat="41.157081965357065" lon="-7.453086040914059">
        <ele>673.05999999999995</ele>
        <time>2025-05-03T09:34:26Z</time>
      </trkpt>
      <trkpt lat="41.157109038904309" lon="-7.45326298289001">
        <ele>672.58000000000004</ele>
        <time>2025-05-03T09:34:27Z</time>
      </trkpt>
      <trkpt lat="41.157136028632522" lon="-7.453433973714709">
        <ele>672.10000000000002</ele>
        <time>2025-05-03T09:34:28Z</time>
      </trkpt>
      <trkpt lat="41.157165030017495" lon="-7.453618040308356">
        <ele>671.13999999999999</ele>
        <time>2025-05-03T09:34:29Z</time>
      </trkpt>
      <trkpt lat="41.157196965068579" lon="-7.453820966184139">
        <ele>670.65999999999997</ele>
        <time>2025-05-03T09:34:30Z</time>
      </trkpt>
      <trkpt lat="41.157229989767075" lon="-7.45403403416276">
        <ele>670.17999999999995</ele>
        <time>2025-05-03T09:34:31Z</time>
      </trkpt>
      <trkpt lat="41.157360998913646" lon="-7.454867027699947">
        <ele>667.76999999999998</ele>
        <time>2025-05-03T09:34:35Z</time>
      </trkpt>
      <trkpt lat="41.157344989478588" lon="-7.455073976889253">
        <ele>666.80999999999995</ele>
        <time>2025-05-03T09:34:36Z</time>
      </trkpt>
      <trkpt lat="41.157297967001796" lon="-7.455256031826139">
        <ele>666.33000000000004</ele>
        <time>2025-05-03T09:34:37Z</time>
      </trkpt>
      <trkpt lat="41.157084982842207" lon="-7.455944018438458">
        <ele>663.45000000000005</ele>
        <time>2025-05-03T09:34:41Z</time>
      </trkpt>
      <trkpt lat="41.157100992277265" lon="-7.456073015928268">
        <ele>662.97000000000003</ele>
        <time>2025-05-03T09:34:42Z</time>
      </trkpt>
      <trkpt lat="41.157154971733689" lon="-7.456181980669498">
        <ele>662.97000000000003</ele>
        <time>2025-05-03T09:34:43Z</time>
      </trkpt>
      <trkpt lat="41.157234013080597" lon="-7.456274013966322">
        <ele>662.49000000000001</ele>
        <time>2025-05-03T09:34:44Z</time>
      </trkpt>
      <trkpt lat="41.157342977821827" lon="-7.456354983150959">
        <ele>662.00999999999999</ele>
        <time>2025-05-03T09:34:45Z</time>
      </trkpt>
      <trkpt lat="41.157466024160385" lon="-7.456445004791021">
        <ele>661.51999999999998</ele>
        <time>2025-05-03T09:34:46Z</time>
      </trkpt>
      <trkpt lat="41.157592004165053" lon="-7.456537960097194">
        <ele>661.51999999999998</ele>
        <time>2025-05-03T09:34:47Z</time>
      </trkpt>
      <trkpt lat="41.157718989998102" lon="-7.456595962867141">
        <ele>661.51999999999998</ele>
        <time>2025-05-03T09:34:48Z</time>
      </trkpt>
      <trkpt lat="41.157846981659532" lon="-7.456612978130579">
        <ele>661.03999999999996</ele>
        <time>2025-05-03T09:34:49Z</time>
      </trkpt>
      <trkpt lat="41.157978996634483" lon="-7.456574002280831">
        <ele>661.03999999999996</ele>
        <time>2025-05-03T09:34:50Z</time>
      </trkpt>
      <trkpt lat="41.158108999952674" lon="-7.456495966762304">
        <ele>661.03999999999996</ele>
        <time>2025-05-03T09:34:51Z</time>
      </trkpt>
      <trkpt lat="41.158248977735639" lon="-7.456410974264145">
        <ele>661.03999999999996</ele>
        <time>2025-05-03T09:34:52Z</time>
      </trkpt>
      <trkpt lat="41.158967977389693" lon="-7.455991040915251">
        <ele>659.60000000000002</ele>
        <time>2025-05-03T09:34:57Z</time>
      </trkpt>
      <trkpt lat="41.159078031778336" lon="-7.455944018438458">
        <ele>658.63999999999999</ele>
        <time>2025-05-03T09:34:58Z</time>
      </trkpt>
      <trkpt lat="41.159188002347946" lon="-7.455963967368007">
        <ele>658.15999999999997</ele>
        <time>2025-05-03T09:34:59Z</time>
      </trkpt>
      <trkpt lat="41.159313982352614" lon="-7.456008978188038">
        <ele>657.67999999999995</ele>
        <time>2025-05-03T09:35:00Z</time>
      </trkpt>
      <trkpt lat="41.159407021477818" lon="-7.4561180267483">
        <ele>657.20000000000005</ele>
        <time>2025-05-03T09:35:01Z</time>
      </trkpt>
      <trkpt lat="41.159502994269133" lon="-7.456240989267826">
        <ele>656.72000000000003</ele>
        <time>2025-05-03T09:35:02Z</time>
      </trkpt>
      <trkpt lat="41.159594021737576" lon="-7.456359006464481">
        <ele>655.75999999999999</ele>
        <time>2025-05-03T09:35:03Z</time>
      </trkpt>
      <trkpt lat="41.159681025892496" lon="-7.456422038376331">
        <ele>655.27999999999997</ele>
        <time>2025-05-03T09:35:04Z</time>
      </trkpt>
      <trkpt lat="41.15979895927012" lon="-7.456447016447783">
        <ele>654.30999999999995</ele>
        <time>2025-05-03T09:35:05Z</time>
      </trkpt>
      <trkpt lat="41.159934997558594" lon="-7.456477023661137">
        <ele>653.83000000000004</ele>
        <time>2025-05-03T09:35:06Z</time>
      </trkpt>
      <trkpt lat="41.160092996433377" lon="-7.456457996740937">
        <ele>653.35000000000002</ele>
        <time>2025-05-03T09:35:07Z</time>
      </trkpt>
      <trkpt lat="41.161304013803601" lon="-7.456264039501548">
        <ele>649.02999999999997</ele>
        <time>2025-05-03T09:35:14Z</time>
      </trkpt>
      <trkpt lat="41.161586986854672" lon="-7.456225985661149">
        <ele>647.59000000000003</ele>
        <time>2025-05-03T09:35:16Z</time>
      </trkpt>
      <trkpt lat="41.161705004051328" lon="-7.456235960125923">
        <ele>647.10000000000002</ele>
        <time>2025-05-03T09:35:17Z</time>
      </trkpt>
      <trkpt lat="41.161808017641306" lon="-7.45631399564445">
        <ele>646.62</ele>
        <time>2025-05-03T09:35:18Z</time>
      </trkpt>
      <trkpt lat="41.161867026239634" lon="-7.456435030326247">
        <ele>646.13999999999999</ele>
        <time>2025-05-03T09:35:19Z</time>
      </trkpt>
      <trkpt lat="41.161910025402904" lon="-7.456593029201031">
        <ele>645.65999999999997</ele>
        <time>2025-05-03T09:35:20Z</time>
      </trkpt>
      <trkpt lat="41.161910025402904" lon="-7.456761002540588">
        <ele>645.17999999999995</ele>
        <time>2025-05-03T09:35:21Z</time>
      </trkpt>
      <trkpt lat="41.161910025402904" lon="-7.456949008628726">
        <ele>644.70000000000005</ele>
        <time>2025-05-03T09:35:22Z</time>
      </trkpt>
      <trkpt lat="41.161879012361169" lon="-7.45796699076891">
        <ele>641.82000000000005</ele>
        <time>2025-05-03T09:35:27Z</time>
      </trkpt>
      <trkpt lat="41.161836013197899" lon="-7.458115015178919">
        <ele>641.34000000000003</ele>
        <time>2025-05-03T09:35:28Z</time>
      </trkpt>
      <trkpt lat="41.161768035963178" lon="-7.458229009062052">
        <ele>640.86000000000001</ele>
        <time>2025-05-03T09:35:29Z</time>
      </trkpt>
      <trkpt lat="41.161671979352832" lon="-7.45831198990345">
        <ele>640.86000000000001</ele>
        <time>2025-05-03T09:35:30Z</time>
      </trkpt>
      <trkpt lat="41.161557985469699" lon="-7.458368986845017">
        <ele>640.38</ele>
        <time>2025-05-03T09:35:31Z</time>
      </trkpt>
      <trkpt lat="41.161446003243327" lon="-7.458424977958202">
        <ele>640.38</ele>
        <time>2025-05-03T09:35:32Z</time>
      </trkpt>
      <trkpt lat="41.161341983824968" lon="-7.458492033183575">
        <ele>639.88999999999999</ele>
        <time>2025-05-03T09:35:33Z</time>
      </trkpt>
      <trkpt lat="41.161286998540163" lon="-7.458600997924805">
        <ele>639.40999999999997</ele>
        <time>2025-05-03T09:35:34Z</time>
      </trkpt>
      <trkpt lat="41.161278029903769" lon="-7.458758996799588">
        <ele>638.92999999999995</ele>
        <time>2025-05-03T09:35:35Z</time>
      </trkpt>
      <trkpt lat="41.161267971619964" lon="-7.458928981795907">
        <ele>637.97000000000003</ele>
        <time>2025-05-03T09:35:36Z</time>
      </trkpt>
      <trkpt lat="41.161256991326809" lon="-7.459117993712425">
        <ele>637.49000000000001</ele>
        <time>2025-05-03T09:35:37Z</time>
      </trkpt>
      <trkpt lat="41.161243999376893" lon="-7.459330977872014">
        <ele>637.00999999999999</ele>
        <time>2025-05-03T09:35:38Z</time>
      </trkpt>
      <trkpt lat="41.161190019920468" lon="-7.459485037252307">
        <ele>636.52999999999997</ele>
        <time>2025-05-03T09:35:39Z</time>
      </trkpt>
      <trkpt lat="41.16112899966538" lon="-7.459660973399878">
        <ele>636.04999999999995</ele>
        <time>2025-05-03T09:35:40Z</time>
      </trkpt>
      <trkpt lat="41.161090023815632" lon="-7.459850991144776">
        <ele>635.09000000000003</ele>
        <time>2025-05-03T09:35:41Z</time>
      </trkpt>
      <trkpt lat="41.161079965531826" lon="-7.46005299501121">
        <ele>634.13</ele>
        <time>2025-05-03T09:35:42Z</time>
      </trkpt>
      <trkpt lat="41.161076026037335" lon="-7.460270002484322">
        <ele>633.16999999999996</ele>
        <time>2025-05-03T09:35:43Z</time>
      </trkpt>
      <trkpt lat="41.16108700633049" lon="-7.460488015785813">
        <ele>632.20000000000005</ele>
        <time>2025-05-03T09:35:44Z</time>
      </trkpt>
      <trkpt lat="41.161084994673729" lon="-7.460693037137389">
        <ele>631.72000000000003</ele>
        <time>2025-05-03T09:35:45Z</time>
      </trkpt>
      <trkpt lat="41.161060016602278" lon="-7.46088900603354">
        <ele>631.24000000000001</ele>
        <time>2025-05-03T09:35:46Z</time>
      </trkpt>
      <trkpt lat="41.160995978862047" lon="-7.461055973544717">
        <ele>630.75999999999999</ele>
        <time>2025-05-03T09:35:47Z</time>
      </trkpt>
      <trkpt lat="41.160902017727494" lon="-7.461216989904642">
        <ele>629.79999999999995</ele>
        <time>2025-05-03T09:35:48Z</time>
      </trkpt>
      <trkpt lat="41.160806966945529" lon="-7.461381023749709">
        <ele>629.32000000000005</ele>
        <time>2025-05-03T09:35:49Z</time>
      </trkpt>
      <trkpt lat="41.160632958635688" lon="-7.46168696321547">
        <ele>628.36000000000001</ele>
        <time>2025-05-03T09:35:51Z</time>
      </trkpt>
      <trkpt lat="41.160557018592954" lon="-7.461841022595763">
        <ele>627.39999999999998</ele>
        <time>2025-05-03T09:35:52Z</time>
      </trkpt>
      <trkpt lat="41.160548971965909" lon="-7.462021987885237">
        <ele>626.44000000000005</ele>
        <time>2025-05-03T09:35:53Z</time>
      </trkpt>
      <trkpt lat="41.160541009157896" lon="-7.462218040600419">
        <ele>625.96000000000004</ele>
        <time>2025-05-03T09:35:54Z</time>
      </trkpt>
      <trkpt lat="41.160535980015993" lon="-7.462429013103247">
        <ele>624.99000000000001</ele>
        <time>2025-05-03T09:35:55Z</time>
      </trkpt>
      <trkpt lat="41.160578979179263" lon="-7.464131964370608">
        <ele>616.82000000000005</ele>
        <time>2025-05-03T09:36:04Z</time>
      </trkpt>
      <trkpt lat="41.160560036078095" lon="-7.46428401209414">
        <ele>616.34000000000003</ele>
        <time>2025-05-03T09:36:05Z</time>
      </trkpt>
      <trkpt lat="41.160538997501135" lon="-7.464441005140543">
        <ele>615.38</ele>
        <time>2025-05-03T09:36:06Z</time>
      </trkpt>
      <trkpt lat="41.160489041358232" lon="-7.464580982923508">
        <ele>614.41999999999996</ele>
        <time>2025-05-03T09:36:07Z</time>
      </trkpt>
      <trkpt lat="41.160431038588285" lon="-7.464730013161898">
        <ele>613.94000000000005</ele>
        <time>2025-05-03T09:36:08Z</time>
      </trkpt>
      <trkpt lat="41.160374963656068" lon="-7.464876025915146">
        <ele>612.98000000000002</ele>
        <time>2025-05-03T09:36:09Z</time>
      </trkpt>
      <trkpt lat="41.160127026960254" lon="-7.465445995330811">
        <ele>610.57000000000005</ele>
        <time>2025-05-03T09:36:13Z</time>
      </trkpt>
      <trkpt lat="41.160101965069771" lon="-7.465607011690736">
        <ele>609.61000000000001</ele>
        <time>2025-05-03T09:36:14Z</time>
      </trkpt>
      <trkpt lat="41.160094002261758" lon="-7.465769033879042">
        <ele>609.13</ele>
        <time>2025-05-03T09:36:15Z</time>
      </trkpt>
      <trkpt lat="41.160086039453745" lon="-7.465940024703741">
        <ele>608.16999999999996</ele>
        <time>2025-05-03T09:36:16Z</time>
      </trkpt>
      <trkpt lat="41.160086039453745" lon="-7.466116966679692">
        <ele>607.69000000000005</ele>
        <time>2025-05-03T09:36:17Z</time>
      </trkpt>
      <trkpt lat="41.160086039453745" lon="-7.466299021616578">
        <ele>607.21000000000004</ele>
        <time>2025-05-03T09:36:18Z</time>
      </trkpt>
      <trkpt lat="41.160110011696815" lon="-7.467339970171452">
        <ele>604.80999999999995</ele>
        <time>2025-05-03T09:36:24Z</time>
      </trkpt>
      <trkpt lat="41.160135995596647" lon="-7.467501992359757">
        <ele>604.33000000000004</ele>
        <time>2025-05-03T09:36:25Z</time>
      </trkpt>
      <trkpt lat="41.160191986709833" lon="-7.467644987627864">
        <ele>603.85000000000002</ele>
        <time>2025-05-03T09:36:26Z</time>
      </trkpt>
      <trkpt lat="41.160276979207993" lon="-7.467754036188126">
        <ele>603.36000000000001</ele>
        <time>2025-05-03T09:36:27Z</time>
      </trkpt>
      <trkpt lat="41.160360965877771" lon="-7.467860989272595">
        <ele>602.88</ele>
        <time>2025-05-03T09:36:28Z</time>
      </trkpt>
      <trkpt lat="41.160534974187613" lon="-7.468083025887609">
        <ele>602.39999999999998</ele>
        <time>2025-05-03T09:36:30Z</time>
      </trkpt>
      <trkpt lat="41.160580990836024" lon="-7.468205988407135">
        <ele>602.39999999999998</ele>
        <time>2025-05-03T09:36:31Z</time>
      </trkpt>
      <trkpt lat="41.160601023584604" lon="-7.468320988118649">
        <ele>601.91999999999996</ele>
        <time>2025-05-03T09:36:32Z</time>
      </trkpt>
      <trkpt lat="41.160601023584604" lon="-7.468450991436839">
        <ele>601.91999999999996</ele>
        <time>2025-05-03T09:36:33Z</time>
      </trkpt>
      <trkpt lat="41.160575039684772" lon="-7.468587029725313">
        <ele>601.91999999999996</ele>
        <time>2025-05-03T09:36:34Z</time>
      </trkpt>
      <trkpt lat="41.160516031086445" lon="-7.468704963102937">
        <ele>601.91999999999996</ele>
        <time>2025-05-03T09:36:35Z</time>
      </trkpt>
      <trkpt lat="41.160450987517834" lon="-7.468835972249508">
        <ele>601.91999999999996</ele>
        <time>2025-05-03T09:36:36Z</time>
      </trkpt>
      <trkpt lat="41.160388961434364" lon="-7.468974022194743">
        <ele>601.44000000000005</ele>
        <time>2025-05-03T09:36:37Z</time>
      </trkpt>
      <trkpt lat="41.160333976149559" lon="-7.469106959179044">
        <ele>601.44000000000005</ele>
        <time>2025-05-03T09:36:38Z</time>
      </trkpt>
      <trkpt lat="41.160321990028024" lon="-7.469249032437801">
        <ele>601.44000000000005</ele>
        <time>2025-05-03T09:36:39Z</time>
      </trkpt>
      <trkpt lat="41.16035501472652" lon="-7.469389010220766">
        <ele>600.96000000000004</ele>
        <time>2025-05-03T09:36:40Z</time>
      </trkpt>
      <trkpt lat="41.16042198613286" lon="-7.469510966911912">
        <ele>600.96000000000004</ele>
        <time>2025-05-03T09:36:41Z</time>
      </trkpt>
      <trkpt lat="41.160492980852723" lon="-7.469638036563993">
        <ele>600.96000000000004</ele>
        <time>2025-05-03T09:36:42Z</time>
      </trkpt>
      <trkpt lat="41.160565987229347" lon="-7.469768961891532">
        <ele>600.96000000000004</ele>
        <time>2025-05-03T09:36:43Z</time>
      </trkpt>
      <trkpt lat="41.160644022747874" lon="-7.469909023493528">
        <ele>600.48000000000002</ele>
        <time>2025-05-03T09:36:44Z</time>
      </trkpt>
      <trkpt lat="41.160667994990945" lon="-7.470067022368312">
        <ele>600.48000000000002</ele>
        <time>2025-05-03T09:36:45Z</time>
      </trkpt>
      <trkpt lat="41.16067998111248" lon="-7.470243964344263">
        <ele>600.48000000000002</ele>
        <time>2025-05-03T09:36:46Z</time>
      </trkpt>
      <trkpt lat="41.160664977505803" lon="-7.470415960997343">
        <ele>600.48000000000002</ele>
        <time>2025-05-03T09:36:47Z</time>
      </trkpt>
      <trkpt lat="41.160664977505803" lon="-7.470588041469455">
        <ele>600.96000000000004</ele>
        <time>2025-05-03T09:36:48Z</time>
      </trkpt>
      <trkpt lat="41.160664977505803" lon="-7.470747968181968">
        <ele>600.48000000000002</ele>
        <time>2025-05-03T09:36:49Z</time>
      </trkpt>
      <trkpt lat="41.160691967234015" lon="-7.470902027562261">
        <ele>600.48000000000002</ele>
        <time>2025-05-03T09:36:50Z</time>
      </trkpt>
      <trkpt lat="41.160753993317485" lon="-7.471017027273774">
        <ele>600.48000000000002</ele>
        <time>2025-05-03T09:36:51Z</time>
      </trkpt>
      <trkpt lat="41.160833034664392" lon="-7.471104031428695">
        <ele>600.48000000000002</ele>
        <time>2025-05-03T09:36:52Z</time>
      </trkpt>
      <trkpt lat="41.160934958606958" lon="-7.471140995621681">
        <ele>600.48000000000002</ele>
        <time>2025-05-03T09:36:53Z</time>
      </trkpt>
      <trkpt lat="41.16104300133884" lon="-7.47118097729981">
        <ele>600.96000000000004</ele>
        <time>2025-05-03T09:36:54Z</time>
      </trkpt>
      <trkpt lat="41.161154983565211" lon="-7.471222970634699">
        <ele>601.44000000000005</ele>
        <time>2025-05-03T09:36:55Z</time>
      </trkpt>
      <trkpt lat="41.162454010918736" lon="-7.471553971990943">
        <ele>600.96000000000004</ele>
        <time>2025-05-03T09:37:06Z</time>
      </trkpt>
      <trkpt lat="41.162747964262962" lon="-7.471577022224665">
        <ele>599.51999999999998</ele>
        <time>2025-05-03T09:37:09Z</time>
      </trkpt>
      <trkpt lat="41.162837985903025" lon="-7.471554977819324">
        <ele>598.55999999999995</ele>
        <time>2025-05-03T09:37:10Z</time>
      </trkpt>
      <trkpt lat="41.163077959790826" lon="-7.471430003643036">
        <ele>596.14999999999998</ele>
        <time>2025-05-03T09:37:13Z</time>
      </trkpt>
      <trkpt lat="41.163145015016198" lon="-7.471388010308147">
        <ele>595.19000000000005</ele>
        <time>2025-05-03T09:37:14Z</time>
      </trkpt>
      <trkpt lat="41.163216009736061" lon="-7.471345011144877">
        <ele>594.23000000000002</ele>
        <time>2025-05-03T09:37:15Z</time>
      </trkpt>
      <trkpt lat="41.16342899389565" lon="-7.471233028918505">
        <ele>591.35000000000002</ele>
        <time>2025-05-03T09:37:18Z</time>
      </trkpt>
      <trkpt lat="41.163986977189779" lon="-7.470961036160588">
        <ele>585.10000000000002</ele>
        <time>2025-05-03T09:37:26Z</time>
      </trkpt>
      <trkpt lat="41.164045985788107" lon="-7.470933040603995">
        <ele>584.62</ele>
        <time>2025-05-03T09:37:27Z</time>
      </trkpt>
      <trkpt lat="41.164106000214815" lon="-7.470925999805331">
        <ele>584.13999999999999</ele>
        <time>2025-05-03T09:37:28Z</time>
      </trkpt>
      <trkpt lat="41.164178000763059" lon="-7.470945026725531">
        <ele>583.17999999999995</ele>
        <time>2025-05-03T09:37:29Z</time>
      </trkpt>
      <trkpt lat="41.164255030453205" lon="-7.47096598148346">
        <ele>582.70000000000005</ele>
        <time>2025-05-03T09:37:30Z</time>
      </trkpt>
      <trkpt lat="41.164318984374404" lon="-7.470993977040052">
        <ele>582.22000000000003</ele>
        <time>2025-05-03T09:37:31Z</time>
      </trkpt>
      <trkpt lat="41.164356032386422" lon="-7.471068995073438">
        <ele>582.22000000000003</ele>
        <time>2025-05-03T09:37:32Z</time>
      </trkpt>
      <trkpt lat="41.16439500823617" lon="-7.471146024763584">
        <ele>582.22000000000003</ele>
        <time>2025-05-03T09:37:33Z</time>
      </trkpt>
      <trkpt lat="41.164437001571059" lon="-7.471230011433363">
        <ele>581.73000000000002</ele>
        <time>2025-05-03T09:37:34Z</time>
      </trkpt>
      <trkpt lat="41.16446097381413" lon="-7.471327995881438">
        <ele>581.73000000000002</ele>
        <time>2025-05-03T09:37:35Z</time>
      </trkpt>
      <trkpt lat="41.164656020700932" lon="-7.472371961921454">
        <ele>579.33000000000004</ele>
        <time>2025-05-03T09:37:44Z</time>
      </trkpt>
      <trkpt lat="41.164656020700932" lon="-7.472500959411264">
        <ele>578.85000000000002</ele>
        <time>2025-05-03T09:37:45Z</time>
      </trkpt>
      <trkpt lat="41.164628025144339" lon="-7.472625011578202">
        <ele>578.37</ele>
        <time>2025-05-03T09:37:46Z</time>
      </trkpt>
      <trkpt lat="41.164579996839166" lon="-7.472739005461335">
        <ele>577.40999999999997</ele>
        <time>2025-05-03T09:37:47Z</time>
      </trkpt>
      <trkpt lat="41.164512019604445" lon="-7.472845036536455">
        <ele>576.92999999999995</ele>
        <time>2025-05-03T09:37:48Z</time>
      </trkpt>
      <trkpt lat="41.164443036541343" lon="-7.472952995449305">
        <ele>575.97000000000003</ele>
        <time>2025-05-03T09:37:49Z</time>
      </trkpt>
      <trkpt lat="41.164247989654541" lon="-7.473257007077336">
        <ele>573.55999999999995</ele>
        <time>2025-05-03T09:37:52Z</time>
      </trkpt>
      <trkpt lat="41.164207002148032" lon="-7.473366977646947">
        <ele>572.60000000000002</ele>
        <time>2025-05-03T09:37:53Z</time>
      </trkpt>
      <trkpt lat="41.164197027683258" lon="-7.473479965701699">
        <ele>571.63999999999999</ele>
        <time>2025-05-03T09:37:54Z</time>
      </trkpt>
      <trkpt lat="41.164220999926329" lon="-7.473574010655284">
        <ele>571.15999999999997</ele>
        <time>2025-05-03T09:37:55Z</time>
      </trkpt>
      <trkpt lat="41.164247989654541" lon="-7.473685992881656">
        <ele>570.67999999999995</ele>
        <time>2025-05-03T09:37:56Z</time>
      </trkpt>
      <trkpt lat="41.164299035444856" lon="-7.47376000508666">
        <ele>569.72000000000003</ele>
        <time>2025-05-03T09:37:57Z</time>
      </trkpt>
      <trkpt lat="41.164355026558042" lon="-7.473840974271298">
        <ele>569.24000000000001</ele>
        <time>2025-05-03T09:37:58Z</time>
      </trkpt>
      <trkpt lat="41.164411017671227" lon="-7.473922027274966">
        <ele>568.27999999999997</ele>
        <time>2025-05-03T09:37:59Z</time>
      </trkpt>
      <trkpt lat="41.164887025952339" lon="-7.474444974213839">
        <ele>564.42999999999995</ele>
        <time>2025-05-03T09:38:07Z</time>
      </trkpt>
      <trkpt lat="41.165071008726954" lon="-7.47461998835206">
        <ele>563.47000000000003</ele>
        <time>2025-05-03T09:38:10Z</time>
      </trkpt>
      <trkpt lat="41.165134040638804" lon="-7.474680002778769">
        <ele>562.99000000000001</ele>
        <time>2025-05-03T09:38:11Z</time>
      </trkpt>
      <trkpt lat="41.165245017036796" lon="-7.474827021360397">
        <ele>562.99000000000001</ele>
        <time>2025-05-03T09:38:13Z</time>
      </trkpt>
      <trkpt lat="41.16527603007853" lon="-7.474896004423499">
        <ele>562.50999999999999</ele>
        <time>2025-05-03T09:38:14Z</time>
      </trkpt>
      <trkpt lat="41.165396980941296" lon="-7.475275034084916">
        <ele>562.50999999999999</ele>
        <time>2025-05-03T09:38:19Z</time>
      </trkpt>
      <trkpt lat="41.16540796123445" lon="-7.475367989391089">
        <ele>562.02999999999997</ele>
        <time>2025-05-03T09:38:20Z</time>
      </trkpt>
      <trkpt lat="41.165449032559991" lon="-7.475825976580381">
        <ele>562.02999999999997</ele>
        <time>2025-05-03T09:38:24Z</time>
      </trkpt>
      <trkpt lat="41.165479039773345" lon="-7.47594902291894">
        <ele>562.50999999999999</ele>
        <time>2025-05-03T09:38:25Z</time>
      </trkpt>
      <trkpt lat="41.16553695872426" lon="-7.476075002923608">
        <ele>562.50999999999999</ele>
        <time>2025-05-03T09:38:26Z</time>
      </trkpt>
      <trkpt lat="41.165604013949633" lon="-7.476183967664838">
        <ele>562.02999999999997</ele>
        <time>2025-05-03T09:38:27Z</time>
      </trkpt>
      <trkpt lat="41.165665034204721" lon="-7.476282035931945">
        <ele>561.54999999999995</ele>
        <time>2025-05-03T09:38:28Z</time>
      </trkpt>
      <trkpt lat="41.165775004774332" lon="-7.476343978196383">
        <ele>561.07000000000005</ele>
        <time>2025-05-03T09:38:29Z</time>
      </trkpt>
      <trkpt lat="41.165875000879169" lon="-7.476400975137949">
        <ele>560.59000000000003</ele>
        <time>2025-05-03T09:38:30Z</time>
      </trkpt>
      <trkpt lat="41.165969967842102" lon="-7.476455038413405">
        <ele>560.11000000000001</ele>
        <time>2025-05-03T09:38:31Z</time>
      </trkpt>
      <trkpt lat="41.166062001138926" lon="-7.476507006213069">
        <ele>560.11000000000001</ele>
        <time>2025-05-03T09:38:32Z</time>
      </trkpt>
      <trkpt lat="41.167214009910822" lon="-7.477045962586999">
        <ele>555.77999999999997</ele>
        <time>2025-05-03T09:38:44Z</time>
      </trkpt>
      <trkpt lat="41.167507041245699" lon="-7.47719599865377">
        <ele>553.86000000000001</ele>
        <time>2025-05-03T09:38:47Z</time>
      </trkpt>
      <trkpt lat="41.167595973238349" lon="-7.477272022515535">
        <ele>552.89999999999998</ele>
        <time>2025-05-03T09:38:48Z</time>
      </trkpt>
      <trkpt lat="41.167664034292102" lon="-7.477384004741907">
        <ele>552.40999999999997</ele>
        <time>2025-05-03T09:38:49Z</time>
      </trkpt>
      <trkpt lat="41.167720025405288" lon="-7.477516019716859">
        <ele>551.45000000000005</ele>
        <time>2025-05-03T09:38:50Z</time>
      </trkpt>
      <trkpt lat="41.167766964063048" lon="-7.477665971964598">
        <ele>550.49000000000001</ele>
        <time>2025-05-03T09:38:51Z</time>
      </trkpt>
      <trkpt lat="41.167814992368221" lon="-7.477821037173271">
        <ele>550.00999999999999</ele>
        <time>2025-05-03T09:38:52Z</time>
      </trkpt>
      <trkpt lat="41.167865032330155" lon="-7.477980041876435">
        <ele>549.52999999999997</ele>
        <time>2025-05-03T09:38:53Z</time>
      </trkpt>
      <trkpt lat="41.167911970987916" lon="-7.478132005780935">
        <ele>548.57000000000005</ele>
        <time>2025-05-03T09:38:54Z</time>
      </trkpt>
      <trkpt lat="41.168022025376558" lon="-7.478219009935856">
        <ele>548.09000000000003</ele>
        <time>2025-05-03T09:38:55Z</time>
      </trkpt>
      <trkpt lat="41.16813400760293" lon="-7.478293022140861">
        <ele>547.61000000000001</ele>
        <time>2025-05-03T09:38:56Z</time>
      </trkpt>
      <trkpt lat="41.168252024799585" lon="-7.478343984112144">
        <ele>547.61000000000001</ele>
        <time>2025-05-03T09:38:57Z</time>
      </trkpt>
      <trkpt lat="41.168389990925789" lon="-7.478384971618652">
        <ele>547.13</ele>
        <time>2025-05-03T09:38:58Z</time>
      </trkpt>
      <trkpt lat="41.169287022203207" lon="-7.478483039885759">
        <ele>542.32000000000005</ele>
        <time>2025-05-03T09:39:05Z</time>
      </trkpt>
      <trkpt lat="41.169440997764468" lon="-7.478492008522153">
        <ele>541.84000000000003</ele>
        <time>2025-05-03T09:39:06Z</time>
      </trkpt>
      <trkpt lat="41.169494977220893" lon="-7.478452026844025">
        <ele>540.88</ele>
        <time>2025-05-03T09:39:07Z</time>
      </trkpt>
      <trkpt lat="41.169565971940756" lon="-7.478350019082427">
        <ele>540.39999999999998</ele>
        <time>2025-05-03T09:39:08Z</time>
      </trkpt>
      <trkpt lat="41.169591033831239" lon="-7.478212974965572">
        <ele>539.44000000000005</ele>
        <time>2025-05-03T09:39:09Z</time>
      </trkpt>
      <trkpt lat="41.169572006911039" lon="-7.478067968040705">
        <ele>538.96000000000004</ele>
        <time>2025-05-03T09:39:10Z</time>
      </trkpt>
      <trkpt lat="41.169526996091008" lon="-7.477977024391294">
        <ele>537.99000000000001</ele>
        <time>2025-05-03T09:39:11Z</time>
      </trkpt>
      <trkpt lat="41.169393975287676" lon="-7.47788499109447">
        <ele>537.02999999999997</ele>
        <time>2025-05-03T09:39:12Z</time>
      </trkpt>
      <trkpt lat="41.169280987232924" lon="-7.477807039394975">
        <ele>536.54999999999995</ele>
        <time>2025-05-03T09:39:13Z</time>
      </trkpt>
      <trkpt lat="41.169154001399875" lon="-7.477734033018351">
        <ele>535.59000000000003</ele>
        <time>2025-05-03T09:39:14Z</time>
      </trkpt>
      <trkpt lat="41.168899023905396" lon="-7.477600006386638">
        <ele>533.66999999999996</ele>
        <time>2025-05-03T09:39:16Z</time>
      </trkpt>
      <trkpt lat="41.168812019750476" lon="-7.477478971704841">
        <ele>532.71000000000004</ele>
        <time>2025-05-03T09:39:17Z</time>
      </trkpt>
      <trkpt lat="41.168742030858994" lon="-7.47736900113523">
        <ele>531.75</ele>
        <time>2025-05-03T09:39:18Z</time>
      </trkpt>
      <trkpt lat="41.168743036687374" lon="-7.477226005867124">
        <ele>531.75</ele>
        <time>2025-05-03T09:39:19Z</time>
      </trkpt>
      <trkpt lat="41.168755022808909" lon="-7.477075969800353">
        <ele>531.26999999999998</ele>
        <time>2025-05-03T09:39:20Z</time>
      </trkpt>
      <trkpt lat="41.168806990608573" lon="-7.47693900950253">
        <ele>530.78999999999996</ele>
        <time>2025-05-03T09:39:21Z</time>
      </trkpt>
      <trkpt lat="41.168865999206901" lon="-7.476786961778998">
        <ele>530.29999999999995</ele>
        <time>2025-05-03T09:39:22Z</time>
      </trkpt>
      <trkpt lat="41.169194988906384" lon="-7.476044995710254">
        <ele>527.41999999999996</ele>
        <time>2025-05-03T09:39:27Z</time>
      </trkpt>
      <trkpt lat="41.169261038303375" lon="-7.47592899017036">
        <ele>526.94000000000005</ele>
        <time>2025-05-03T09:39:28Z</time>
      </trkpt>
      <trkpt lat="41.169347036629915" lon="-7.475860007107258">
        <ele>525.98000000000002</ele>
        <time>2025-05-03T09:39:29Z</time>
      </trkpt>
      <trkpt lat="41.169434040784836" lon="-7.475868975743651">
        <ele>525.5</ele>
        <time>2025-05-03T09:39:30Z</time>
      </trkpt>
      <trkpt lat="41.169535964727402" lon="-7.475889008492231">
        <ele>524.05999999999995</ele>
        <time>2025-05-03T09:39:31Z</time>
      </trkpt>
      <trkpt lat="41.169649036601186" lon="-7.475911974906921">
        <ele>523.09000000000003</ele>
        <time>2025-05-03T09:39:32Z</time>
      </trkpt>
      <trkpt lat="41.169766969978809" lon="-7.475935025140643">
        <ele>522.13</ele>
        <time>2025-05-03T09:39:33Z</time>
      </trkpt>
      <trkpt lat="41.169897979125381" lon="-7.475908035412431">
        <ele>521.16999999999996</ele>
        <time>2025-05-03T09:39:34Z</time>
      </trkpt>
      <trkpt lat="41.170023959130049" lon="-7.475872999057174">
        <ele>520.69000000000005</ele>
        <time>2025-05-03T09:39:35Z</time>
      </trkpt>
      <trkpt lat="41.170147005468607" lon="-7.475828994065523">
        <ele>519.73000000000002</ele>
        <time>2025-05-03T09:39:36Z</time>
      </trkpt>
      <trkpt lat="41.17026099935174" lon="-7.475789012387395">
        <ele>519.25</ele>
        <time>2025-05-03T09:39:37Z</time>
      </trkpt>
      <trkpt lat="41.170377004891634" lon="-7.475794963538647">
        <ele>518.28999999999996</ele>
        <time>2025-05-03T09:39:38Z</time>
      </trkpt>
      <trkpt lat="41.170484041795135" lon="-7.475848020985723">
        <ele>517.80999999999995</ele>
        <time>2025-05-03T09:39:39Z</time>
      </trkpt>
      <trkpt lat="41.17054296657443" lon="-7.475980035960674">
        <ele>516.85000000000002</ele>
        <time>2025-05-03T09:39:40Z</time>
      </trkpt>
      <trkpt lat="41.170602981001139" lon="-7.476128982380033">
        <ele>515.88</ele>
        <time>2025-05-03T09:39:41Z</time>
      </trkpt>
      <trkpt lat="41.17066903039813" lon="-7.476295027881861">
        <ele>515.39999999999998</ele>
        <time>2025-05-03T09:39:42Z</time>
      </trkpt>
      <trkpt lat="41.170993996784091" lon="-7.477019978687167">
        <ele>512.03999999999996</ele>
        <time>2025-05-03T09:39:46Z</time>
      </trkpt>
      <trkpt lat="41.171225002035499" lon="-7.477313010022044">
        <ele>510.12</ele>
        <time>2025-05-03T09:39:48Z</time>
      </trkpt>
      <trkpt lat="41.171300020068884" lon="-7.477480983361602">
        <ele>509.63999999999999</ele>
        <time>2025-05-03T09:39:49Z</time>
      </trkpt>
      <trkpt lat="41.171361962333322" lon="-7.477655997499824">
        <ele>508.67000000000002</ele>
        <time>2025-05-03T09:39:50Z</time>
      </trkpt>
      <trkpt lat="41.171520967036486" lon="-7.478257985785604">
        <ele>506.26999999999998</ele>
        <time>2025-05-03T09:39:53Z</time>
      </trkpt>
      <trkpt lat="41.171577963978052" lon="-7.478440040722489">
        <ele>505.79000000000002</ele>
        <time>2025-05-03T09:39:54Z</time>
      </trkpt>
      <trkpt lat="41.171697992831469" lon="-7.478549005463719">
        <ele>505.31</ele>
        <time>2025-05-03T09:39:55Z</time>
      </trkpt>
      <trkpt lat="41.171823972836137" lon="-7.478664005175233">
        <ele>504.35000000000002</ele>
        <time>2025-05-03T09:39:56Z</time>
      </trkpt>
      <trkpt lat="41.171971997246146" lon="-7.478743968531489">
        <ele>503.38999999999999</ele>
        <time>2025-05-03T09:39:57Z</time>
      </trkpt>
      <trkpt lat="41.172702983021736" lon="-7.479072036221623">
        <ele>499.06</ele>
        <time>2025-05-03T09:40:02Z</time>
      </trkpt>
      <trkpt lat="41.172793004661798" lon="-7.479184018447995">
        <ele>498.10000000000002</ele>
        <time>2025-05-03T09:40:03Z</time>
      </trkpt>
      <trkpt lat="41.172873973846436" lon="-7.479286026209593">
        <ele>497.13999999999999</ele>
        <time>2025-05-03T09:40:04Z</time>
      </trkpt>
      <trkpt lat="41.172927031293511" lon="-7.479438995942473">
        <ele>496.18000000000001</ele>
        <time>2025-05-03T09:40:05Z</time>
      </trkpt>
      <trkpt lat="41.172986039891839" lon="-7.479609986767173">
        <ele>495.22000000000003</ele>
        <time>2025-05-03T09:40:06Z</time>
      </trkpt>
      <trkpt lat="41.173115959390998" lon="-7.479984993115068">
        <ele>493.29000000000002</ele>
        <time>2025-05-03T09:40:08Z</time>
      </trkpt>
      <trkpt lat="41.17324504069984" lon="-7.480359999462962">
        <ele>491.85000000000002</ele>
        <time>2025-05-03T09:40:10Z</time>
      </trkpt>
      <trkpt lat="41.173279993236065" lon="-7.480537025257945">
        <ele>491.37</ele>
        <time>2025-05-03T09:40:11Z</time>
      </trkpt>
      <trkpt lat="41.173274964094162" lon="-7.48072100803256">
        <ele>490.41000000000003</ele>
        <time>2025-05-03T09:40:12Z</time>
      </trkpt>
      <trkpt lat="41.173270018771291" lon="-7.480901973322034">
        <ele>489.44999999999999</ele>
        <time>2025-05-03T09:40:13Z</time>
      </trkpt>
      <trkpt lat="41.173264989629388" lon="-7.481078999117017">
        <ele>488.97000000000003</ele>
        <time>2025-05-03T09:40:14Z</time>
      </trkpt>
      <trkpt lat="41.173282004892826" lon="-7.481249989941716">
        <ele>488.00999999999999</ele>
        <time>2025-05-03T09:40:15Z</time>
      </trkpt>
      <trkpt lat="41.173362974077463" lon="-7.481371024623513">
        <ele>487.52999999999997</ele>
        <time>2025-05-03T09:40:16Z</time>
      </trkpt>
      <trkpt lat="41.173455007374287" lon="-7.481475966051221">
        <ele>487.52999999999997</ele>
        <time>2025-05-03T09:40:17Z</time>
      </trkpt>
      <trkpt lat="41.173557015135884" lon="-7.481577973812819">
        <ele>487.05000000000001</ele>
        <time>2025-05-03T09:40:18Z</time>
      </trkpt>
      <trkpt lat="41.173659022897482" lon="-7.481680987402797">
        <ele>486.56</ele>
        <time>2025-05-03T09:40:19Z</time>
      </trkpt>
      <trkpt lat="41.173745021224022" lon="-7.48179498128593">
        <ele>486.07999999999998</ele>
        <time>2025-05-03T09:40:20Z</time>
      </trkpt>
      <trkpt lat="41.173792965710163" lon="-7.481949040666223">
        <ele>485.12</ele>
        <time>2025-05-03T09:40:21Z</time>
      </trkpt>
      <trkpt lat="41.173819033429027" lon="-7.482121959328651">
        <ele>484.63999999999999</ele>
        <time>2025-05-03T09:40:22Z</time>
      </trkpt>
      <trkpt lat="41.173819033429027" lon="-7.482319017872214">
        <ele>483.68000000000001</ele>
        <time>2025-05-03T09:40:23Z</time>
      </trkpt>
      <trkpt lat="41.173823978751898" lon="-7.4825269728899">
        <ele>482.72000000000003</ele>
        <time>2025-05-03T09:40:24Z</time>
      </trkpt>
      <trkpt lat="41.173833031207323" lon="-7.482728976756334">
        <ele>482.24000000000001</ele>
        <time>2025-05-03T09:40:25Z</time>
      </trkpt>
      <trkpt lat="41.173862032592297" lon="-7.482916982844472">
        <ele>481.27999999999997</ele>
        <time>2025-05-03T09:40:26Z</time>
      </trkpt>
      <trkpt lat="41.173945013433695" lon="-7.483095014467835">
        <ele>480.31999999999999</ele>
        <time>2025-05-03T09:40:27Z</time>
      </trkpt>
      <trkpt lat="41.174151962623" lon="-7.483417969197035">
        <ele>478.38999999999999</ele>
        <time>2025-05-03T09:40:29Z</time>
      </trkpt>
      <trkpt lat="41.174271991476417" lon="-7.483540009707212">
        <ele>477.43000000000001</ele>
        <time>2025-05-03T09:40:30Z</time>
      </trkpt>
      <trkpt lat="41.174415992572904" lon="-7.483644029125571">
        <ele>476.47000000000003</ele>
        <time>2025-05-03T09:40:31Z</time>
      </trkpt>
      <trkpt lat="41.17481698282063" lon="-7.483983999118209">
        <ele>474.06999999999999</ele>
        <time>2025-05-03T09:40:34Z</time>
      </trkpt>
      <trkpt lat="41.174930976703763" lon="-7.484091036021709">
        <ele>473.58999999999997</ele>
        <time>2025-05-03T09:40:35Z</time>
      </trkpt>
      <trkpt lat="41.175030972808599" lon="-7.484237970784307">
        <ele>473.11000000000001</ele>
        <time>2025-05-03T09:40:36Z</time>
      </trkpt>
      <trkpt lat="41.175119988620281" lon="-7.484409967437387">
        <ele>472.63</ele>
        <time>2025-05-03T09:40:37Z</time>
      </trkpt>
      <trkpt lat="41.175212021917105" lon="-7.484584981575608">
        <ele>472.13999999999999</ele>
        <time>2025-05-03T09:40:38Z</time>
      </trkpt>
      <trkpt lat="41.175522990524769" lon="-7.485233992338181">
        <ele>469.25999999999999</ele>
        <time>2025-05-03T09:40:42Z</time>
      </trkpt>
      <trkpt lat="41.175557021051645" lon="-7.485358966514468">
        <ele>468.30000000000001</ele>
        <time>2025-05-03T09:40:43Z</time>
      </trkpt>
      <trkpt lat="41.175531037151814" lon="-7.485511014238">
        <ele>467.81999999999999</ele>
        <time>2025-05-03T09:40:44Z</time>
      </trkpt>
      <trkpt lat="41.175512010231614" lon="-7.485618973150849">
        <ele>466.86000000000001</ele>
        <time>2025-05-03T09:40:45Z</time>
      </trkpt>
      <trkpt lat="41.175441015511751" lon="-7.485720980912447">
        <ele>465.89999999999998</ele>
        <time>2025-05-03T09:40:46Z</time>
      </trkpt>
      <trkpt lat="41.175359040498734" lon="-7.485837992280722">
        <ele>465.42000000000002</ele>
        <time>2025-05-03T09:40:47Z</time>
      </trkpt>
      <trkpt lat="41.174586983397603" lon="-7.486896961927414">
        <ele>459.17000000000002</ele>
        <time>2025-05-03T09:40:55Z</time>
      </trkpt>
      <trkpt lat="41.174486987292767" lon="-7.486986983567476">
        <ele>458.69</ele>
        <time>2025-05-03T09:40:56Z</time>
      </trkpt>
      <trkpt lat="41.174373999238014" lon="-7.487028976902366">
        <ele>457.72000000000003</ele>
        <time>2025-05-03T09:40:57Z</time>
      </trkpt>
      <trkpt lat="41.173552991822362" lon="-7.487374981865287">
        <ele>453.88</ele>
        <time>2025-05-03T09:41:03Z</time>
      </trkpt>
      <trkpt lat="41.173418965190649" lon="-7.487458968535066">
        <ele>452.92000000000002</ele>
        <time>2025-05-03T09:41:04Z</time>
      </trkpt>
      <trkpt lat="41.172698037698865" lon="-7.488173022866249">
        <ele>449.06999999999999</ele>
        <time>2025-05-03T09:41:10Z</time>
      </trkpt>
      <trkpt lat="41.172612039372325" lon="-7.488333033397794">
        <ele>448.11000000000001</ele>
        <time>2025-05-03T09:41:11Z</time>
      </trkpt>
      <trkpt lat="41.172561999410391" lon="-7.488517016172409">
        <ele>447.14999999999998</ele>
        <time>2025-05-03T09:41:12Z</time>
      </trkpt>
      <trkpt lat="41.172520006075501" lon="-7.48871399089694">
        <ele>446.67000000000002</ele>
        <time>2025-05-03T09:41:13Z</time>
      </trkpt>
      <trkpt lat="41.172478012740612" lon="-7.488910965621471">
        <ele>445.70999999999998</ele>
        <time>2025-05-03T09:41:14Z</time>
      </trkpt>
      <trkpt lat="41.172462003305554" lon="-7.48912001028657">
        <ele>445.23000000000002</ele>
        <time>2025-05-03T09:41:15Z</time>
      </trkpt>
      <trkpt lat="41.172439036890864" lon="-7.489854013547301">
        <ele>441.86000000000001</ele>
        <time>2025-05-03T09:41:20Z</time>
      </trkpt>
      <trkpt lat="41.172437025234103" lon="-7.489920984953642">
        <ele>441.38</ele>
        <time>2025-05-03T09:41:21Z</time>
      </trkpt>
      <trkpt lat="41.172435013577342" lon="-7.489970019087195">
        <ele>440.42000000000002</ele>
        <time>2025-05-03T09:41:22Z</time>
      </trkpt>
      <trkpt lat="41.172434007748961" lon="-7.490012012422085">
        <ele>439.94</ele>
        <time>2025-05-03T09:41:23Z</time>
      </trkpt>
      <trkpt lat="41.172433001920581" lon="-7.490054005756974">
        <ele>438.98000000000002</ele>
        <time>2025-05-03T09:41:24Z</time>
      </trkpt>
      <trkpt lat="41.17243099026382" lon="-7.490093987435103">
        <ele>438.5</ele>
        <time>2025-05-03T09:41:25Z</time>
      </trkpt>
      <trkpt lat="41.172429984435439" lon="-7.49013002961874">
        <ele>438.01999999999998</ele>
        <time>2025-05-03T09:41:26Z</time>
      </trkpt>
      <trkpt lat="41.172428978607059" lon="-7.490166993811727">
        <ele>437.54000000000002</ele>
        <time>2025-05-03T09:41:27Z</time>
      </trkpt>
      <trkpt lat="41.172414980828762" lon="-7.490363968536258">
        <ele>434.17000000000002</ele>
        <time>2025-05-03T09:41:32Z</time>
      </trkpt>
      <trkpt lat="41.172397965565324" lon="-7.490416020154953">
        <ele>433.69</ele>
        <time>2025-05-03T09:41:33Z</time>
      </trkpt>
      <trkpt lat="41.172381034120917" lon="-7.490464970469475">
        <ele>433.20999999999998</ele>
        <time>2025-05-03T09:41:34Z</time>
      </trkpt>
      <trkpt lat="41.17236896418035" lon="-7.490502018481493">
        <ele>432.73000000000002</ele>
        <time>2025-05-03T09:41:35Z</time>
      </trkpt>
      <trkpt lat="41.172361001372337" lon="-7.490526996552944">
        <ele>432.25</ele>
        <time>2025-05-03T09:41:36Z</time>
      </trkpt>
      <trkpt lat="41.172361001372337" lon="-7.490526996552944">
        <ele>431.29000000000002</ele>
        <time>2025-05-03T09:41:46Z</time>
      </trkpt>
      <trkpt lat="41.172361001372337" lon="-7.490526996552944">
        <ele>430.32999999999998</ele>
        <time>2025-05-03T09:42:27Z</time>
      </trkpt>
      <trkpt lat="41.172338034957647" lon="-7.490593967959285">
        <ele>430.32999999999998</ele>
        <time>2025-05-03T09:42:32Z</time>
      </trkpt>
      <trkpt lat="41.172093031927943" lon="-7.490989007055759">
        <ele>429.37</ele>
        <time>2025-05-03T09:42:38Z</time>
      </trkpt>
      <trkpt lat="41.172019019722939" lon="-7.491108030080795">
        <ele>428.88999999999999</ele>
        <time>2025-05-03T09:42:39Z</time>
      </trkpt>
      <trkpt lat="41.171949030831456" lon="-7.491236021742225">
        <ele>428.39999999999998</ele>
        <time>2025-05-03T09:42:40Z</time>
      </trkpt>
      <trkpt lat="41.171918017789721" lon="-7.491418998688459">
        <ele>428.39999999999998</ele>
        <time>2025-05-03T09:42:41Z</time>
      </trkpt>
      <trkpt lat="41.171884993091226" lon="-7.491616979241371">
        <ele>427.92000000000002</ele>
        <time>2025-05-03T09:42:42Z</time>
      </trkpt>
      <trkpt lat="41.171772005036473" lon="-7.492294991388917">
        <ele>426.95999999999998</ele>
        <time>2025-05-03T09:42:45Z</time>
      </trkpt>
      <trkpt lat="41.1717239767313" lon="-7.492533959448338">
        <ele>426.48000000000002</ele>
        <time>2025-05-03T09:42:46Z</time>
      </trkpt>
      <trkpt lat="41.171632027253509" lon="-7.492749039083719">
        <ele>426</ele>
        <time>2025-05-03T09:42:47Z</time>
      </trkpt>
      <trkpt lat="41.171437986195087" lon="-7.493197973817587">
        <ele>425.04000000000002</ele>
        <time>2025-05-03T09:42:49Z</time>
      </trkpt>
      <trkpt lat="41.171342013403773" lon="-7.493420010432601">
        <ele>424.07999999999998</ele>
        <time>2025-05-03T09:42:50Z</time>
      </trkpt>
      <trkpt lat="41.171291973441839" lon="-7.49365696683526">
        <ele>423.60000000000002</ele>
        <time>2025-05-03T09:42:51Z</time>
      </trkpt>
      <trkpt lat="41.171248974278569" lon="-7.49389199540019">
        <ele>422.63999999999999</ele>
        <time>2025-05-03T09:42:52Z</time>
      </trkpt>
      <trkpt lat="41.171208992600441" lon="-7.494109002873302">
        <ele>421.68000000000001</ele>
        <time>2025-05-03T09:42:53Z</time>
      </trkpt>
      <trkpt lat="41.171230031177402" lon="-7.494310000911355">
        <ele>421.19</ele>
        <time>2025-05-03T09:42:54Z</time>
      </trkpt>
      <trkpt lat="41.17127001285553" lon="-7.494518039748073">
        <ele>421.19</ele>
        <time>2025-05-03T09:42:55Z</time>
      </trkpt>
      <trkpt lat="41.171324998140335" lon="-7.49472800642252">
        <ele>420.23000000000002</ele>
        <time>2025-05-03T09:42:56Z</time>
      </trkpt>
      <trkpt lat="41.171375960111618" lon="-7.49492397531867">
        <ele>419.75</ele>
        <time>2025-05-03T09:42:57Z</time>
      </trkpt>
      <trkpt lat="41.171380989253521" lon="-7.495093960314989">
        <ele>418.79000000000002</ele>
        <time>2025-05-03T09:42:58Z</time>
      </trkpt>
      <trkpt lat="41.171359028667212" lon="-7.495272997766733">
        <ele>417.82999999999998</ele>
        <time>2025-05-03T09:42:59Z</time>
      </trkpt>
      <trkpt lat="41.171334972605109" lon="-7.495467038825154">
        <ele>416.87</ele>
        <time>2025-05-03T09:43:00Z</time>
      </trkpt>
      <trkpt lat="41.171321980655193" lon="-7.495678011327982">
        <ele>415.91000000000003</ele>
        <time>2025-05-03T09:43:01Z</time>
      </trkpt>
      <trkpt lat="41.171312006190419" lon="-7.49590901657939">
        <ele>414.94999999999999</ele>
        <time>2025-05-03T09:43:02Z</time>
      </trkpt>
      <trkpt lat="41.171324998140335" lon="-7.496143961325288">
        <ele>413.98000000000002</ele>
        <time>2025-05-03T09:43:03Z</time>
      </trkpt>
      <trkpt lat="41.171467993408442" lon="-7.497314997017384">
        <ele>409.18000000000001</ele>
        <time>2025-05-03T09:43:08Z</time>
      </trkpt>
      <trkpt lat="41.171494983136654" lon="-7.497540973126888">
        <ele>407.74000000000001</ele>
        <time>2025-05-03T09:43:09Z</time>
      </trkpt>
      <trkpt lat="41.171498000621796" lon="-7.498692981898785">
        <ele>401.49000000000001</ele>
        <time>2025-05-03T09:43:14Z</time>
      </trkpt>
      <trkpt lat="41.171544017270207" lon="-7.498899009078741">
        <ele>400.52999999999997</ele>
        <time>2025-05-03T09:43:15Z</time>
      </trkpt>
      <trkpt lat="41.171605959534645" lon="-7.499034963548183">
        <ele>399.56999999999999</ele>
        <time>2025-05-03T09:43:16Z</time>
      </trkpt>
      <trkpt lat="41.171672008931637" lon="-7.499181982129812">
        <ele>398.60000000000002</ele>
        <time>2025-05-03T09:43:17Z</time>
      </trkpt>
      <trkpt lat="41.171736968681216" lon="-7.499330006539822">
        <ele>398.12</ele>
        <time>2025-05-03T09:43:18Z</time>
      </trkpt>
      <trkpt lat="41.171759013086557" lon="-7.499495968222618">
        <ele>397.16000000000003</ele>
        <time>2025-05-03T09:43:19Z</time>
      </trkpt>
      <trkpt lat="41.171781979501247" lon="-7.499678023159504">
        <ele>396.19999999999999</ele>
        <time>2025-05-03T09:43:20Z</time>
      </trkpt>
      <trkpt lat="41.171831013634801" lon="-7.500060992315412">
        <ele>394.27999999999997</ele>
        <time>2025-05-03T09:43:22Z</time>
      </trkpt>
      <trkpt lat="41.171878036111593" lon="-7.50020801089704">
        <ele>393.31999999999999</ele>
        <time>2025-05-03T09:43:23Z</time>
      </trkpt>
      <trkpt lat="41.171965040266514" lon="-7.500318987295032">
        <ele>392.83999999999997</ele>
        <time>2025-05-03T09:43:24Z</time>
      </trkpt>
      <trkpt lat="41.172051038593054" lon="-7.500429963693023">
        <ele>392.36000000000001</ele>
        <time>2025-05-03T09:43:25Z</time>
      </trkpt>
      <trkpt lat="41.172141982242465" lon="-7.500547980889678">
        <ele>391.87</ele>
        <time>2025-05-03T09:43:26Z</time>
      </trkpt>
      <trkpt lat="41.172213982790709" lon="-7.500706985592842">
        <ele>391.87</ele>
        <time>2025-05-03T09:43:27Z</time>
      </trkpt>
      <trkpt lat="41.172268968075514" lon="-7.500887028872967">
        <ele>391.38999999999999</ele>
        <time>2025-05-03T09:43:28Z</time>
      </trkpt>
      <trkpt lat="41.172320013865829" lon="-7.501077968627214">
        <ele>391.38999999999999</ele>
        <time>2025-05-03T09:43:29Z</time>
      </trkpt>
      <trkpt lat="41.172370975837111" lon="-7.501268992200494">
        <ele>390.43000000000001</ele>
        <time>2025-05-03T09:43:30Z</time>
      </trkpt>
      <trkpt lat="41.172420009970665" lon="-7.501452974975109">
        <ele>389.94999999999999</ele>
        <time>2025-05-03T09:43:31Z</time>
      </trkpt>
      <trkpt lat="41.172466026619077" lon="-7.50162698328495">
        <ele>388.99000000000001</ele>
        <time>2025-05-03T09:43:32Z</time>
      </trkpt>
      <trkpt lat="41.172530986368656" lon="-7.501757992431521">
        <ele>388.50999999999999</ele>
        <time>2025-05-03T09:43:33Z</time>
      </trkpt>
      <trkpt lat="41.172638023272157" lon="-7.50188103877008">
        <ele>388.02999999999997</ele>
        <time>2025-05-03T09:43:34Z</time>
      </trkpt>
      <trkpt lat="41.172756040468812" lon="-7.501942981034517">
        <ele>387.06999999999999</ele>
        <time>2025-05-03T09:43:35Z</time>
      </trkpt>
      <trkpt lat="41.172894006595016" lon="-7.50201397575438">
        <ele>386.11000000000001</ele>
        <time>2025-05-03T09:43:36Z</time>
      </trkpt>
      <trkpt lat="41.173172034323215" lon="-7.502168035134673">
        <ele>384.66000000000003</ele>
        <time>2025-05-03T09:43:38Z</time>
      </trkpt>
      <trkpt lat="41.173418965190649" lon="-7.502343971282244">
        <ele>383.22000000000003</ele>
        <time>2025-05-03T09:43:40Z</time>
      </trkpt>
      <trkpt lat="41.173512004315853" lon="-7.502459976822138">
        <ele>382.74000000000001</ele>
        <time>2025-05-03T09:43:41Z</time>
      </trkpt>
      <trkpt lat="41.17359297350049" lon="-7.502587968483567">
        <ele>382.25999999999999</ele>
        <time>2025-05-03T09:43:42Z</time>
      </trkpt>
      <trkpt lat="41.173662040382624" lon="-7.502727024257183">
        <ele>381.30000000000001</ele>
        <time>2025-05-03T09:43:43Z</time>
      </trkpt>
      <trkpt lat="41.173734040930867" lon="-7.50287102535367">
        <ele>380.81999999999999</ele>
        <time>2025-05-03T09:43:44Z</time>
      </trkpt>
      <trkpt lat="41.173796989023685" lon="-7.503030030056834">
        <ele>380.33999999999997</ele>
        <time>2025-05-03T09:43:45Z</time>
      </trkpt>
      <trkpt lat="41.173948030918837" lon="-7.503453986719251">
        <ele>378.42000000000002</ele>
        <time>2025-05-03T09:43:48Z</time>
      </trkpt>
      <trkpt lat="41.173964040353894" lon="-7.503598993644118">
        <ele>377.44999999999999</ele>
        <time>2025-05-03T09:43:49Z</time>
      </trkpt>
      <trkpt lat="41.173945013433695" lon="-7.50375296920538">
        <ele>376.97000000000003</ele>
        <time>2025-05-03T09:43:50Z</time>
      </trkpt>
      <trkpt lat="41.173904025927186" lon="-7.503940975293517">
        <ele>376.00999999999999</ele>
        <time>2025-05-03T09:43:51Z</time>
      </trkpt>
      <trkpt lat="41.173852980136871" lon="-7.504125963896513">
        <ele>375.52999999999997</ele>
        <time>2025-05-03T09:43:52Z</time>
      </trkpt>
      <trkpt lat="41.173433968797326" lon="-7.505807960405946">
        <ele>368.31999999999999</ele>
        <time>2025-05-03T09:43:59Z</time>
      </trkpt>
      <trkpt lat="41.173216961324215" lon="-7.507133977487683">
        <ele>362.06999999999999</ele>
        <time>2025-05-03T09:44:05Z</time>
      </trkpt>
      <trkpt lat="41.172836003825068" lon="-7.50817702151835">
        <ele>357.26999999999998</ele>
        <time>2025-05-03T09:44:12Z</time>
      </trkpt>
      <trkpt lat="41.172314984723926" lon="-7.509316960349679">
        <ele>352.45999999999998</ele>
        <time>2025-05-03T09:44:20Z</time>
      </trkpt>
      <trkpt lat="41.172251030802727" lon="-7.509474959224463">
        <ele>351.5</ele>
        <time>2025-05-03T09:44:21Z</time>
      </trkpt>
      <trkpt lat="41.172238038852811" lon="-7.509656008332968">
        <ele>350.54000000000002</ele>
        <time>2025-05-03T09:44:22Z</time>
      </trkpt>
      <trkpt lat="41.17223602719605" lon="-7.50985398888588">
        <ele>349.10000000000002</ele>
        <time>2025-05-03T09:44:23Z</time>
      </trkpt>
      <trkpt lat="41.172246001660824" lon="-7.510054986923933">
        <ele>347.64999999999998</ele>
        <time>2025-05-03T09:44:24Z</time>
      </trkpt>
      <trkpt lat="41.172242984175682" lon="-7.510239975526929">
        <ele>346.69</ele>
        <time>2025-05-03T09:44:25Z</time>
      </trkpt>
      <trkpt lat="41.172223035246134" lon="-7.510410966351628">
        <ele>345.73000000000002</ele>
        <time>2025-05-03T09:44:26Z</time>
      </trkpt>
      <trkpt lat="41.172187998890877" lon="-7.510559996590018">
        <ele>344.76999999999998</ele>
        <time>2025-05-03T09:44:27Z</time>
      </trkpt>
      <trkpt lat="41.172109041363001" lon="-7.510679019615054">
        <ele>343.81</ele>
        <time>2025-05-03T09:44:28Z</time>
      </trkpt>
      <trkpt lat="41.1720210313797" lon="-7.510812040418387">
        <ele>342.37</ele>
        <time>2025-05-03T09:44:29Z</time>
      </trkpt>
      <trkpt lat="41.171118970960379" lon="-7.511939993128181">
        <ele>332.75</ele>
        <time>2025-05-03T09:44:37Z</time>
      </trkpt>
      <trkpt lat="41.171009000390768" lon="-7.512023979797959">
        <ele>331.79000000000002</ele>
        <time>2025-05-03T09:44:38Z</time>
      </trkpt>
      <trkpt lat="41.170895006507635" lon="-7.512091035023332">
        <ele>330.82999999999998</ele>
        <time>2025-05-03T09:44:39Z</time>
      </trkpt>
      <trkpt lat="41.170225962996483" lon="-7.512259008362889">
        <ele>326.99000000000001</ele>
        <time>2025-05-03T09:44:44Z</time>
      </trkpt>
      <trkpt lat="41.169434962794185" lon="-7.512312987819314">
        <ele>323.62</ele>
        <time>2025-05-03T09:44:50Z</time>
      </trkpt>
      <trkpt lat="41.169308982789516" lon="-7.512326985597611">
        <ele>323.13999999999999</ele>
        <time>2025-05-03T09:44:51Z</time>
      </trkpt>
      <trkpt lat="41.169201023876667" lon="-7.512394962832332">
        <ele>322.18000000000001</ele>
        <time>2025-05-03T09:44:52Z</time>
      </trkpt>
      <trkpt lat="41.169097004458308" lon="-7.512491019442678">
        <ele>321.22000000000003</ele>
        <time>2025-05-03T09:44:53Z</time>
      </trkpt>
      <trkpt lat="41.168990973383188" lon="-7.512589003890753">
        <ele>320.74000000000001</ele>
        <time>2025-05-03T09:44:54Z</time>
      </trkpt>
      <trkpt lat="41.168935988098383" lon="-7.512745996937156">
        <ele>319.77999999999997</ele>
        <time>2025-05-03T09:44:55Z</time>
      </trkpt>
      <trkpt lat="41.168877985328436" lon="-7.512913970276713">
        <ele>318.81</ele>
        <time>2025-05-03T09:44:56Z</time>
      </trkpt>
      <trkpt lat="41.168757034465671" lon="-7.513241032138467">
        <ele>317.85000000000002</ele>
        <time>2025-05-03T09:44:58Z</time>
      </trkpt>
      <trkpt lat="41.168669024482369" lon="-7.513383021578193">
        <ele>317.37</ele>
        <time>2025-05-03T09:44:59Z</time>
      </trkpt>
      <trkpt lat="41.168581014499068" lon="-7.513525011017919">
        <ele>316.41000000000003</ele>
        <time>2025-05-03T09:45:00Z</time>
      </trkpt>
      <trkpt lat="41.168496022000909" lon="-7.513662977144122">
        <ele>315.93000000000001</ele>
        <time>2025-05-03T09:45:01Z</time>
      </trkpt>
      <trkpt lat="41.168417986482382" lon="-7.513787029311061">
        <ele>315.44999999999999</ele>
        <time>2025-05-03T09:45:02Z</time>
      </trkpt>
      <trkpt lat="41.168397031724453" lon="-7.51391401514411">
        <ele>314.49000000000001</ele>
        <time>2025-05-03T09:45:03Z</time>
      </trkpt>
      <trkpt lat="41.168411029502749" lon="-7.514091040939093">
        <ele>314.00999999999999</ele>
        <time>2025-05-03T09:45:04Z</time>
      </trkpt>
      <trkpt lat="41.168453022837639" lon="-7.514167986810207">
        <ele>313.05000000000001</ele>
        <time>2025-05-03T09:45:05Z</time>
      </trkpt>
      <trkpt lat="41.168517982587218" lon="-7.514288015663624">
        <ele>312.56999999999999</ele>
        <time>2025-05-03T09:45:06Z</time>
      </trkpt>
      <trkpt lat="41.168585959821939" lon="-7.51441097818315">
        <ele>311.60000000000002</ele>
        <time>2025-05-03T09:45:07Z</time>
      </trkpt>
      <trkpt lat="41.168656032532454" lon="-7.514525977894664">
        <ele>310.63999999999999</ele>
        <time>2025-05-03T09:45:08Z</time>
      </trkpt>
      <trkpt lat="41.168697020038962" lon="-7.514649024233222">
        <ele>309.68000000000001</ele>
        <time>2025-05-03T09:45:09Z</time>
      </trkpt>
      <trkpt lat="41.168710011988878" lon="-7.514785984531045">
        <ele>308.72000000000003</ele>
        <time>2025-05-03T09:45:10Z</time>
      </trkpt>
      <trkpt lat="41.168659972026944" lon="-7.514887992292643">
        <ele>307.75999999999999</ele>
        <time>2025-05-03T09:45:11Z</time>
      </trkpt>
      <trkpt lat="41.168598029762506" lon="-7.514993017539382">
        <ele>307.27999999999997</ele>
        <time>2025-05-03T09:45:12Z</time>
      </trkpt>
      <trkpt lat="41.168517982587218" lon="-7.515093013644218">
        <ele>306.80000000000001</ele>
        <time>2025-05-03T09:45:13Z</time>
      </trkpt>
      <trkpt lat="41.168413041159511" lon="-7.5151820294559">
        <ele>306.31999999999999</ele>
        <time>2025-05-03T09:45:14Z</time>
      </trkpt>
      <trkpt lat="41.168022025376558" lon="-7.515604980289936">
        <ele>304.88</ele>
        <time>2025-05-03T09:45:18Z</time>
      </trkpt>
      <trkpt lat="41.167938038706779" lon="-7.515732971951366">
        <ele>303.91000000000003</ele>
        <time>2025-05-03T09:45:19Z</time>
      </trkpt>
      <trkpt lat="41.167870983481407" lon="-7.51589197665453">
        <ele>303.43000000000001</ele>
        <time>2025-05-03T09:45:20Z</time>
      </trkpt>
      <trkpt lat="41.167406039312482" lon="-7.517584031447768">
        <ele>298.63</ele>
        <time>2025-05-03T09:45:29Z</time>
      </trkpt>
      <trkpt lat="41.167418025434017" lon="-7.517756028100848">
        <ele>298.63</ele>
        <time>2025-05-03T09:45:30Z</time>
      </trkpt>
      <trkpt lat="41.167453983798623" lon="-7.517922995612025">
        <ele>298.14999999999998</ele>
        <time>2025-05-03T09:45:31Z</time>
      </trkpt>
      <trkpt lat="41.167515004053712" lon="-7.51808300614357">
        <ele>297.67000000000002</ele>
        <time>2025-05-03T09:45:32Z</time>
      </trkpt>
      <trkpt lat="41.167610976845026" lon="-7.518223989754915">
        <ele>297.18000000000001</ele>
        <time>2025-05-03T09:45:33Z</time>
      </trkpt>
      <trkpt lat="41.167724970728159" lon="-7.51836396753788">
        <ele>296.69999999999999</ele>
        <time>2025-05-03T09:45:34Z</time>
      </trkpt>
      <trkpt lat="41.167848017066717" lon="-7.518502017483115">
        <ele>296.69999999999999</ele>
        <time>2025-05-03T09:45:35Z</time>
      </trkpt>
      <trkpt lat="41.167989000678062" lon="-7.518625985831022">
        <ele>296.22000000000003</ele>
        <time>2025-05-03T09:45:36Z</time>
      </trkpt>
      <trkpt lat="41.168248001486063" lon="-7.518852967768908">
        <ele>295.74000000000001</ele>
        <time>2025-05-03T09:45:38Z</time>
      </trkpt>
      <trkpt lat="41.168312039226294" lon="-7.519019013270736">
        <ele>294.77999999999997</ele>
        <time>2025-05-03T09:45:39Z</time>
      </trkpt>
      <trkpt lat="41.16837196983397" lon="-7.519171983003616">
        <ele>294.77999999999997</ele>
        <time>2025-05-03T09:45:40Z</time>
      </trkpt>
      <trkpt lat="41.168365012854338" lon="-7.519316989928484">
        <ele>294.30000000000001</ele>
        <time>2025-05-03T09:45:41Z</time>
      </trkpt>
      <trkpt lat="41.168325031176209" lon="-7.519477000460029">
        <ele>293.81999999999999</ele>
        <time>2025-05-03T09:45:42Z</time>
      </trkpt>
      <trkpt lat="41.168254036456347" lon="-7.519593005999923">
        <ele>293.81999999999999</ele>
        <time>2025-05-03T09:45:43Z</time>
      </trkpt>
      <trkpt lat="41.168160997331142" lon="-7.519742958247662">
        <ele>293.33999999999997</ele>
        <time>2025-05-03T09:45:44Z</time>
      </trkpt>
      <trkpt lat="41.167809963226318" lon="-7.520356010645628">
        <ele>289.97000000000003</ele>
        <time>2025-05-03T09:45:48Z</time>
      </trkpt>
      <trkpt lat="41.167840976268053" lon="-7.520472016185522">
        <ele>288.52999999999997</ele>
        <time>2025-05-03T09:45:49Z</time>
      </trkpt>
      <trkpt lat="41.16787601262331" lon="-7.520607970654964">
        <ele>287.56999999999999</ele>
        <time>2025-05-03T09:45:50Z</time>
      </trkpt>
      <trkpt lat="41.167963016778231" lon="-7.520945006981492">
        <ele>286.13</ele>
        <time>2025-05-03T09:45:52Z</time>
      </trkpt>
      <trkpt lat="41.168004004284739" lon="-7.521107029169798">
        <ele>285.17000000000002</ele>
        <time>2025-05-03T09:45:53Z</time>
      </trkpt>
      <trkpt lat="41.167989000678062" lon="-7.521313978359103">
        <ele>284.69</ele>
        <time>2025-05-03T09:45:54Z</time>
      </trkpt>
      <trkpt lat="41.167958993464708" lon="-7.521436018869281">
        <ele>283.73000000000002</ele>
        <time>2025-05-03T09:45:55Z</time>
      </trkpt>
      <trkpt lat="41.167885987088084" lon="-7.521527968347073">
        <ele>283.25</ele>
        <time>2025-05-03T09:45:56Z</time>
      </trkpt>
      <trkpt lat="41.167798982933164" lon="-7.521631987765431">
        <ele>283.25</ele>
        <time>2025-05-03T09:45:57Z</time>
      </trkpt>
      <trkpt lat="41.167692029848695" lon="-7.521729972213507">
        <ele>282.76999999999998</ele>
        <time>2025-05-03T09:45:58Z</time>
      </trkpt>
      <trkpt lat="41.166937993839383" lon="-7.522451989352703">
        <ele>277</ele>
        <time>2025-05-03T09:46:04Z</time>
      </trkpt>
      <trkpt lat="41.166808996349573" lon="-7.522493982687593">
        <ele>276.04000000000002</ele>
        <time>2025-05-03T09:46:05Z</time>
      </trkpt>
      <trkpt lat="41.166706988587976" lon="-7.52246699295938">
        <ele>275.06999999999999</ele>
        <time>2025-05-03T09:46:06Z</time>
      </trkpt>
      <trkpt lat="41.166610009968281" lon="-7.522419970482588">
        <ele>274.58999999999997</ele>
        <time>2025-05-03T09:46:07Z</time>
      </trkpt>
      <trkpt lat="41.166512025520205" lon="-7.522372025996447">
        <ele>274.11000000000001</ele>
        <time>2025-05-03T09:46:08Z</time>
      </trkpt>
      <trkpt lat="41.16628403775394" lon="-7.522261971607804">
        <ele>272.67000000000002</ele>
        <time>2025-05-03T09:46:10Z</time>
      </trkpt>
      <trkpt lat="41.166161997243762" lon="-7.522202963009477">
        <ele>271.70999999999998</ele>
        <time>2025-05-03T09:46:11Z</time>
      </trkpt>
      <trkpt lat="41.166041968390346" lon="-7.522201035171747">
        <ele>271.23000000000002</ele>
        <time>2025-05-03T09:46:12Z</time>
      </trkpt>
      <trkpt lat="41.165913976728916" lon="-7.522235987707973">
        <ele>270.75</ele>
        <time>2025-05-03T09:46:13Z</time>
      </trkpt>
      <trkpt lat="41.165769975632429" lon="-7.522275969386101">
        <ele>269.79000000000002</ele>
        <time>2025-05-03T09:46:14Z</time>
      </trkpt>
      <trkpt lat="41.165306959301233" lon="-7.522373031824827">
        <ele>267.86000000000001</ele>
        <time>2025-05-03T09:46:17Z</time>
      </trkpt>
      <trkpt lat="41.165163964033127" lon="-7.522373031824827">
        <ele>266.89999999999998</ele>
        <time>2025-05-03T09:46:18Z</time>
      </trkpt>
      <trkpt lat="41.165027003735304" lon="-7.522371020168066">
        <ele>265.94</ele>
        <time>2025-05-03T09:46:19Z</time>
      </trkpt>
      <trkpt lat="41.164897000417113" lon="-7.522362973541021">
        <ele>264.98000000000002</ele>
        <time>2025-05-03T09:46:20Z</time>
      </trkpt>
      <trkpt lat="41.164777977392077" lon="-7.522356016561389">
        <ele>264.5</ele>
        <time>2025-05-03T09:46:21Z</time>
      </trkpt>
      <trkpt lat="41.164687033742666" lon="-7.522395998239517">
        <ele>264.01999999999998</ele>
        <time>2025-05-03T09:46:22Z</time>
      </trkpt>
      <trkpt lat="41.164614027366042" lon="-7.522489037364721">
        <ele>263.54000000000002</ele>
        <time>2025-05-03T09:46:23Z</time>
      </trkpt>
      <trkpt lat="41.164565999060869" lon="-7.52259498462081">
        <ele>263.06</ele>
        <time>2025-05-03T09:46:24Z</time>
      </trkpt>
      <trkpt lat="41.164554012939334" lon="-7.522722976282239">
        <ele>262.10000000000002</ele>
        <time>2025-05-03T09:46:25Z</time>
      </trkpt>
      <trkpt lat="41.164586031809449" lon="-7.522855997085571">
        <ele>261.62</ele>
        <time>2025-05-03T09:46:26Z</time>
      </trkpt>
      <trkpt lat="41.164650991559029" lon="-7.522984994575381">
        <ele>260.64999999999998</ele>
        <time>2025-05-03T09:46:27Z</time>
      </trkpt>
      <trkpt lat="41.164720980450511" lon="-7.523123966529965">
        <ele>259.69</ele>
        <time>2025-05-03T09:46:28Z</time>
      </trkpt>
      <trkpt lat="41.164946034550667" lon="-7.523636016994715">
        <ele>257.29000000000002</ele>
        <time>2025-05-03T09:46:31Z</time>
      </trkpt>
      <trkpt lat="41.164957014843822" lon="-7.523798039183021">
        <ele>256.81</ele>
        <time>2025-05-03T09:46:32Z</time>
      </trkpt>
      <trkpt lat="41.164944022893906" lon="-7.523955032229424">
        <ele>255.84999999999999</ele>
        <time>2025-05-03T09:46:33Z</time>
      </trkpt>
      <trkpt lat="41.16489197127521" lon="-7.524112025275827">
        <ele>255.37</ele>
        <time>2025-05-03T09:46:34Z</time>
      </trkpt>
      <trkpt lat="41.164830029010773" lon="-7.524281004443765">
        <ele>254.88999999999999</ele>
        <time>2025-05-03T09:46:35Z</time>
      </trkpt>
      <trkpt lat="41.16469600237906" lon="-7.524603959172964">
        <ele>253.44</ele>
        <time>2025-05-03T09:46:37Z</time>
      </trkpt>
      <trkpt lat="41.164684016257524" lon="-7.524763969704509">
        <ele>252.47999999999999</ele>
        <time>2025-05-03T09:46:38Z</time>
      </trkpt>
      <trkpt lat="41.164683010429144" lon="-7.524926997721195">
        <ele>251.52000000000001</ele>
        <time>2025-05-03T09:46:39Z</time>
      </trkpt>
      <trkpt lat="41.164693990722299" lon="-7.525103017687798">
        <ele>251.03999999999999</ele>
        <time>2025-05-03T09:46:40Z</time>
      </trkpt>
      <trkpt lat="41.164744030684233" lon="-7.525257999077439">
        <ele>250.08000000000001</ele>
        <time>2025-05-03T09:46:41Z</time>
      </trkpt>
      <trkpt lat="41.164829023182392" lon="-7.525396971032023">
        <ele>249.12</ele>
        <time>2025-05-03T09:46:42Z</time>
      </trkpt>
      <trkpt lat="41.164921978488564" lon="-7.525548012927175">
        <ele>248.16</ele>
        <time>2025-05-03T09:46:43Z</time>
      </trkpt>
      <trkpt lat="41.165021974593401" lon="-7.525704000145197">
        <ele>247.19999999999999</ele>
        <time>2025-05-03T09:46:44Z</time>
      </trkpt>
      <trkpt lat="41.165214003995061" lon="-7.525998037308455">
        <ele>245.75</ele>
        <time>2025-05-03T09:46:46Z</time>
      </trkpt>
      <trkpt lat="41.165266977623105" lon="-7.526145977899432">
        <ele>244.78999999999999</ele>
        <time>2025-05-03T09:46:47Z</time>
      </trkpt>
      <trkpt lat="41.165286004543304" lon="-7.526294002309442">
        <ele>243.83000000000001</ele>
        <time>2025-05-03T09:46:48Z</time>
      </trkpt>
      <trkpt lat="41.165277035906911" lon="-7.526450995355845">
        <ele>242.87</ele>
        <time>2025-05-03T09:46:49Z</time>
      </trkpt>
      <trkpt lat="41.165194977074862" lon="-7.526610000059009">
        <ele>242.38999999999999</ele>
        <time>2025-05-03T09:46:50Z</time>
      </trkpt>
      <trkpt lat="41.165100010111928" lon="-7.526793982833624">
        <ele>241.43000000000001</ele>
        <time>2025-05-03T09:46:51Z</time>
      </trkpt>
      <trkpt lat="41.16450497880578" lon="-7.528315968811512">
        <ele>236.13999999999999</ele>
        <time>2025-05-03T09:46:59Z</time>
      </trkpt>
      <trkpt lat="41.164467008784413" lon="-7.52848100848496">
        <ele>235.18000000000001</ele>
        <time>2025-05-03T09:47:00Z</time>
      </trkpt>
      <trkpt lat="41.164429960772395" lon="-7.528645964339376">
        <ele>234.22</ele>
        <time>2025-05-03T09:47:01Z</time>
      </trkpt>
      <trkpt lat="41.164392996579409" lon="-7.52880496904254">
        <ele>233.74000000000001</ele>
        <time>2025-05-03T09:47:02Z</time>
      </trkpt>
      <trkpt lat="41.164399031549692" lon="-7.528972020372748">
        <ele>232.78</ele>
        <time>2025-05-03T09:47:03Z</time>
      </trkpt>
      <trkpt lat="41.16443901322782" lon="-7.529119038954377">
        <ele>232.30000000000001</ele>
        <time>2025-05-03T09:47:04Z</time>
      </trkpt>
      <trkpt lat="41.1645039729774" lon="-7.529258010908961">
        <ele>231.33000000000001</ele>
        <time>2025-05-03T09:47:05Z</time>
      </trkpt>
      <trkpt lat="41.164603969082236" lon="-7.529350966215134">
        <ele>230.84999999999999</ele>
        <time>2025-05-03T09:47:06Z</time>
      </trkpt>
      <trkpt lat="41.16471603512764" lon="-7.529453979805112">
        <ele>229.88999999999999</ele>
        <time>2025-05-03T09:47:07Z</time>
      </trkpt>
      <trkpt lat="41.164836985990405" lon="-7.529570991173387">
        <ele>229.41</ele>
        <time>2025-05-03T09:47:08Z</time>
      </trkpt>
      <trkpt lat="41.165182990953326" lon="-7.5299640186131">
        <ele>227.49000000000001</ele>
        <time>2025-05-03T09:47:11Z</time>
      </trkpt>
      <trkpt lat="41.165272006765008" lon="-7.530108019709587">
        <ele>226.53</ele>
        <time>2025-05-03T09:47:12Z</time>
      </trkpt>
      <trkpt lat="41.165672997012734" lon="-7.530730962753296">
        <ele>224.12</ele>
        <time>2025-05-03T09:47:16Z</time>
      </trkpt>
      <trkpt lat="41.166189992800355" lon="-7.53127402625978">
        <ele>221.72</ele>
        <time>2025-05-03T09:47:20Z</time>
      </trkpt>
      <trkpt lat="41.166284959763288" lon="-7.531436970457435">
        <ele>221.24000000000001</ele>
        <time>2025-05-03T09:47:21Z</time>
      </trkpt>
      <trkpt lat="41.166385961696506" lon="-7.531609972938895">
        <ele>220.28</ele>
        <time>2025-05-03T09:47:22Z</time>
      </trkpt>
      <trkpt lat="41.166878985241055" lon="-7.532530976459384">
        <ele>215.94999999999999</ele>
        <time>2025-05-03T09:47:28Z</time>
      </trkpt>
      <trkpt lat="41.166917039081454" lon="-7.532682018354535">
        <ele>214.99000000000001</ele>
        <time>2025-05-03T09:47:29Z</time>
      </trkpt>
      <trkpt lat="41.166919972747564" lon="-7.532834988087416">
        <ele>214.50999999999999</ele>
        <time>2025-05-03T09:47:30Z</time>
      </trkpt>
      <trkpt lat="41.166901029646397" lon="-7.533001033589244">
        <ele>213.55000000000001</ele>
        <time>2025-05-03T09:47:31Z</time>
      </trkpt>
      <trkpt lat="41.166880996897817" lon="-7.533175963908434">
        <ele>213.06999999999999</ele>
        <time>2025-05-03T09:47:32Z</time>
      </trkpt>
      <trkpt lat="41.166802039369941" lon="-7.534705996513367">
        <ele>207.78</ele>
        <time>2025-05-03T09:47:40Z</time>
      </trkpt>
      <trkpt lat="41.166802039369941" lon="-7.53484002314508">
        <ele>207.30000000000001</ele>
        <time>2025-05-03T09:47:41Z</time>
      </trkpt>
      <trkpt lat="41.166871022433043" lon="-7.534964997321367">
        <ele>206.81999999999999</ele>
        <time>2025-05-03T09:47:42Z</time>
      </trkpt>
      <trkpt lat="41.166938999667764" lon="-7.53503599204123">
        <ele>205.86000000000001</ele>
        <time>2025-05-03T09:47:43Z</time>
      </trkpt>
      <trkpt lat="41.16703798994422" lon="-7.535045966506004">
        <ele>204.90000000000001</ele>
        <time>2025-05-03T09:47:44Z</time>
      </trkpt>
      <trkpt lat="41.167139997705817" lon="-7.535049989819527">
        <ele>203.94</ele>
        <time>2025-05-03T09:47:45Z</time>
      </trkpt>
      <trkpt lat="41.16725298576057" lon="-7.535014031454921">
        <ele>203.46000000000001</ele>
        <time>2025-05-03T09:47:46Z</time>
      </trkpt>
      <trkpt lat="41.16761801764369" lon="-7.534875981509686">
        <ele>200.56999999999999</ele>
        <time>2025-05-03T09:47:49Z</time>
      </trkpt>
      <trkpt lat="41.167713990435004" lon="-7.5348199903965">
        <ele>200.09</ele>
        <time>2025-05-03T09:47:50Z</time>
      </trkpt>
      <trkpt lat="41.167794959619641" lon="-7.534747989848256">
        <ele>199.13</ele>
        <time>2025-05-03T09:47:51Z</time>
      </trkpt>
      <trkpt lat="41.167823038995266" lon="-7.53462603315711">
        <ele>198.16999999999999</ele>
        <time>2025-05-03T09:47:52Z</time>
      </trkpt>
      <trkpt lat="41.16785497404635" lon="-7.534483959898353">
        <ele>197.21000000000001</ele>
        <time>2025-05-03T09:47:53Z</time>
      </trkpt>
      <trkpt lat="41.167890010401607" lon="-7.534330990165472">
        <ele>196.72999999999999</ele>
        <time>2025-05-03T09:47:54Z</time>
      </trkpt>
      <trkpt lat="41.168082961812615" lon="-7.533464971929789">
        <ele>192.88</ele>
        <time>2025-05-03T09:48:00Z</time>
      </trkpt>
      <trkpt lat="41.168141970410943" lon="-7.533342009410262">
        <ele>192.40000000000001</ele>
        <time>2025-05-03T09:48:01Z</time>
      </trkpt>
      <trkpt lat="41.168234003707767" lon="-7.533289035782218">
        <ele>191.91999999999999</ele>
        <time>2025-05-03T09:48:02Z</time>
      </trkpt>
      <trkpt lat="41.168331988155842" lon="-7.533261962234974">
        <ele>191.44</ele>
        <time>2025-05-03T09:48:03Z</time>
      </trkpt>
      <trkpt lat="41.168428966775537" lon="-7.533286018297076">
        <ele>190.96000000000001</ele>
        <time>2025-05-03T09:48:04Z</time>
      </trkpt>
      <trkpt lat="41.168509013950825" lon="-7.533357013016939">
        <ele>190.47999999999999</ele>
        <time>2025-05-03T09:48:05Z</time>
      </trkpt>
      <trkpt lat="41.168576991185546" lon="-7.53344502300024">
        <ele>189.52000000000001</ele>
        <time>2025-05-03T09:48:06Z</time>
      </trkpt>
      <trkpt lat="41.168623007833958" lon="-7.533571003004909">
        <ele>189.03999999999999</ele>
        <time>2025-05-03T09:48:07Z</time>
      </trkpt>
      <trkpt lat="41.168673969805241" lon="-7.533710980787873">
        <ele>189.03999999999999</ele>
        <time>2025-05-03T09:48:08Z</time>
      </trkpt>
      <trkpt lat="41.168768014758825" lon="-7.534027984365821">
        <ele>188.08000000000001</ele>
        <time>2025-05-03T09:48:10Z</time>
      </trkpt>
      <trkpt lat="41.168806990608573" lon="-7.534199981018901">
        <ele>187.59</ele>
        <time>2025-05-03T09:48:11Z</time>
      </trkpt>
      <trkpt lat="41.168841021135449" lon="-7.534383041784167">
        <ele>187.11000000000001</ele>
        <time>2025-05-03T09:48:12Z</time>
      </trkpt>
      <trkpt lat="41.168845966458321" lon="-7.534565012902021">
        <ele>186.63</ele>
        <time>2025-05-03T09:48:13Z</time>
      </trkpt>
      <trkpt lat="41.168850995600224" lon="-7.534739021211863">
        <ele>186.15000000000001</ele>
        <time>2025-05-03T09:48:14Z</time>
      </trkpt>
      <trkpt lat="41.168898018077016" lon="-7.53537897951901">
        <ele>184.22999999999999</ele>
        <time>2025-05-03T09:48:18Z</time>
      </trkpt>
      <trkpt lat="41.168936993926764" lon="-7.535525998100638">
        <ele>183.27000000000001</ele>
        <time>2025-05-03T09:48:19Z</time>
      </trkpt>
      <trkpt lat="41.169029027223587" lon="-7.535827998071909">
        <ele>182.31</ele>
        <time>2025-05-03T09:48:21Z</time>
      </trkpt>
      <trkpt lat="41.169060040265322" lon="-7.53597903996706">
        <ele>181.83000000000001</ele>
        <time>2025-05-03T09:48:22Z</time>
      </trkpt>
      <trkpt lat="41.169072026386857" lon="-7.536133015528321">
        <ele>181.34999999999999</ele>
        <time>2025-05-03T09:48:23Z</time>
      </trkpt>
      <trkpt lat="41.169094992801547" lon="-7.536435015499592">
        <ele>180.38</ele>
        <time>2025-05-03T09:48:25Z</time>
      </trkpt>
      <trkpt lat="41.169134974479675" lon="-7.536570969969034">
        <ele>180.38</ele>
        <time>2025-05-03T09:48:26Z</time>
      </trkpt>
      <trkpt lat="41.169371008872986" lon="-7.537116967141628">
        <ele>179.41999999999999</ele>
        <time>2025-05-03T09:48:30Z</time>
      </trkpt>
      <trkpt lat="41.169454995542765" lon="-7.53720598295331">
        <ele>178.94</ele>
        <time>2025-05-03T09:48:31Z</time>
      </trkpt>
      <trkpt lat="41.169555997475982" lon="-7.53724898211658">
        <ele>178.46000000000001</ele>
        <time>2025-05-03T09:48:32Z</time>
      </trkpt>
      <trkpt lat="41.16991801187396" lon="-7.537379991263151">
        <ele>177.97999999999999</ele>
        <time>2025-05-03T09:48:36Z</time>
      </trkpt>
      <trkpt lat="41.170006021857262" lon="-7.537389965727925">
        <ele>177.5</ele>
        <time>2025-05-03T09:48:37Z</time>
      </trkpt>
      <trkpt lat="41.170103000476956" lon="-7.537400024011731">
        <ele>177.02000000000001</ele>
        <time>2025-05-03T09:48:38Z</time>
      </trkpt>
      <trkpt lat="41.170205008238554" lon="-7.537412010133266">
        <ele>176.53999999999999</ele>
        <time>2025-05-03T09:48:39Z</time>
      </trkpt>
      <trkpt lat="41.170291006565094" lon="-7.537489961832762">
        <ele>176.06</ele>
        <time>2025-05-03T09:48:40Z</time>
      </trkpt>
      <trkpt lat="41.170365018770099" lon="-7.537588030099869">
        <ele>175.58000000000001</ele>
        <time>2025-05-03T09:48:41Z</time>
      </trkpt>
      <trkpt lat="41.170427966862917" lon="-7.53767604008317">
        <ele>175.09999999999999</ele>
        <time>2025-05-03T09:48:42Z</time>
      </trkpt>
      <trkpt lat="41.170427966862917" lon="-7.537800008431077">
        <ele>174.62</ele>
        <time>2025-05-03T09:48:43Z</time>
      </trkpt>
      <trkpt lat="41.170416986569762" lon="-7.537917019799352">
        <ele>174.13999999999999</ele>
        <time>2025-05-03T09:48:44Z</time>
      </trkpt>
      <trkpt lat="41.170371975749731" lon="-7.538035036996007">
        <ele>173.66</ele>
        <time>2025-05-03T09:48:45Z</time>
      </trkpt>
      <trkpt lat="41.170329982414842" lon="-7.538141990080476">
        <ele>173.66</ele>
        <time>2025-05-03T09:48:46Z</time>
      </trkpt>
      <trkpt lat="41.170309027656913" lon="-7.538248021155596">
        <ele>173.66</ele>
        <time>2025-05-03T09:48:47Z</time>
      </trkpt>
      <trkpt lat="41.170311961323023" lon="-7.538357991725206">
        <ele>173.16999999999999</ele>
        <time>2025-05-03T09:48:48Z</time>
      </trkpt>
      <trkpt lat="41.17034699767828" lon="-7.538468968123198">
        <ele>173.16999999999999</ele>
        <time>2025-05-03T09:48:49Z</time>
      </trkpt>
      <trkpt lat="41.170382034033537" lon="-7.538583967834711">
        <ele>172.69</ele>
        <time>2025-05-03T09:48:50Z</time>
      </trkpt>
      <trkpt lat="41.170487981289625" lon="-7.538922009989619">
        <ele>172.69</ele>
        <time>2025-05-03T09:48:53Z</time>
      </trkpt>
      <trkpt lat="41.170486975461245" lon="-7.53901001997292">
        <ele>172.69</ele>
        <time>2025-05-03T09:48:54Z</time>
      </trkpt>
      <trkpt lat="41.170479012653232" lon="-7.539113033562899">
        <ele>172.21000000000001</ele>
        <time>2025-05-03T09:48:55Z</time>
      </trkpt>
      <trkpt lat="41.170422015711665" lon="-7.539315959438682">
        <ele>171.72999999999999</ele>
        <time>2025-05-03T09:48:57Z</time>
      </trkpt>
      <trkpt lat="41.170341968536377" lon="-7.539517963305116">
        <ele>171.25</ele>
        <time>2025-05-03T09:48:59Z</time>
      </trkpt>
      <trkpt lat="41.170319002121687" lon="-7.539651989936829">
        <ele>170.77000000000001</ele>
        <time>2025-05-03T09:49:00Z</time>
      </trkpt>
      <trkpt lat="41.170295029878616" lon="-7.539785010740161">
        <ele>170.28999999999999</ele>
        <time>2025-05-03T09:49:01Z</time>
      </trkpt>
      <trkpt lat="41.170320007950068" lon="-7.540975995361805">
        <ele>165.96000000000001</ele>
        <time>2025-05-03T09:49:09Z</time>
      </trkpt>
      <trkpt lat="41.170396031811833" lon="-7.541099963709712">
        <ele>165</ele>
        <time>2025-05-03T09:49:10Z</time>
      </trkpt>
      <trkpt lat="41.17047599516809" lon="-7.541211023926735">
        <ele>164.52000000000001</ele>
        <time>2025-05-03T09:49:11Z</time>
      </trkpt>
      <trkpt lat="41.170558976009488" lon="-7.541323006153107">
        <ele>163.56</ele>
        <time>2025-05-03T09:49:12Z</time>
      </trkpt>
      <trkpt lat="41.170643968507648" lon="-7.541439011693001">
        <ele>163.08000000000001</ele>
        <time>2025-05-03T09:49:13Z</time>
      </trkpt>
      <trkpt lat="41.170801967382431" lon="-7.541671022772789">
        <ele>162.12</ele>
        <time>2025-05-03T09:49:15Z</time>
      </trkpt>
      <trkpt lat="41.170844966545701" lon="-7.541814018040896">
        <ele>161.63999999999999</ele>
        <time>2025-05-03T09:49:16Z</time>
      </trkpt>
      <trkpt lat="41.170849995687604" lon="-7.541948966681957">
        <ele>161.16</ele>
        <time>2025-05-03T09:49:17Z</time>
      </trkpt>
      <trkpt lat="41.170816970989108" lon="-7.542387004941702">
        <ele>159.24000000000001</ele>
        <time>2025-05-03T09:49:20Z</time>
      </trkpt>
      <trkpt lat="41.170782018452883" lon="-7.542504016309977">
        <ele>158.75</ele>
        <time>2025-05-03T09:49:21Z</time>
      </trkpt>
      <trkpt lat="41.170739019289613" lon="-7.542623961344361">
        <ele>158.75</ele>
        <time>2025-05-03T09:49:22Z</time>
      </trkpt>
      <trkpt lat="41.170681016519666" lon="-7.542717000469565">
        <ele>158.27000000000001</ele>
        <time>2025-05-03T09:49:23Z</time>
      </trkpt>
      <trkpt lat="41.170621002092957" lon="-7.542800987139344">
        <ele>157.31</ele>
        <time>2025-05-03T09:49:24Z</time>
      </trkpt>
      <trkpt lat="41.170524023473263" lon="-7.542873993515968">
        <ele>156.83000000000001</ele>
        <time>2025-05-03T09:49:25Z</time>
      </trkpt>
      <trkpt lat="41.170428972691298" lon="-7.542944988235831">
        <ele>156.34999999999999</ele>
        <time>2025-05-03T09:49:26Z</time>
      </trkpt>
      <trkpt lat="41.169976014643908" lon="-7.543339021503925">
        <ele>152.03</ele>
        <time>2025-05-03T09:49:31Z</time>
      </trkpt>
      <trkpt lat="41.169923041015863" lon="-7.543448992073536">
        <ele>151.06</ele>
        <time>2025-05-03T09:49:32Z</time>
      </trkpt>
      <trkpt lat="41.16987501271069" lon="-7.543581007048488">
        <ele>150.09999999999999</ele>
        <time>2025-05-03T09:49:33Z</time>
      </trkpt>
      <trkpt lat="41.169773004949093" lon="-7.54386599175632">
        <ele>148.66</ele>
        <time>2025-05-03T09:49:35Z</time>
      </trkpt>
      <trkpt lat="41.169725982472301" lon="-7.544013010337949">
        <ele>148.18000000000001</ele>
        <time>2025-05-03T09:49:36Z</time>
      </trkpt>
      <trkpt lat="41.169630009680986" lon="-7.544315010309219">
        <ele>146.74000000000001</ele>
        <time>2025-05-03T09:49:38Z</time>
      </trkpt>
      <trkpt lat="41.169550968334079" lon="-7.544456999748945">
        <ele>146.25999999999999</ele>
        <time>2025-05-03T09:49:39Z</time>
      </trkpt>
      <trkpt lat="41.16880196146667" lon="-7.545517981052399">
        <ele>141.93000000000001</ele>
        <time>2025-05-03T09:49:47Z</time>
      </trkpt>
      <trkpt lat="41.168626025319099" lon="-7.545741023495793">
        <ele>140.97</ele>
        <time>2025-05-03T09:49:49Z</time>
      </trkpt>
      <trkpt lat="41.168510019779205" lon="-7.545795002952218">
        <ele>140.00999999999999</ele>
        <time>2025-05-03T09:49:50Z</time>
      </trkpt>
      <trkpt lat="41.168390996754169" lon="-7.545849988237023">
        <ele>139.53</ele>
        <time>2025-05-03T09:49:51Z</time>
      </trkpt>
      <trkpt lat="41.168266022577882" lon="-7.545896004885435">
        <ele>139.53</ele>
        <time>2025-05-03T09:49:52Z</time>
      </trkpt>
      <trkpt lat="41.168137025088072" lon="-7.545915031805635">
        <ele>139.05000000000001</ele>
        <time>2025-05-03T09:49:53Z</time>
      </trkpt>
      <trkpt lat="41.167908031493425" lon="-7.545988960191608">
        <ele>137.61000000000001</ele>
        <time>2025-05-03T09:49:55Z</time>
      </trkpt>
      <trkpt lat="41.167839970439672" lon="-7.54605702124536">
        <ele>136.63999999999999</ele>
        <time>2025-05-03T09:49:56Z</time>
      </trkpt>
      <trkpt lat="41.167798982933164" lon="-7.546170009300113">
        <ele>135.68000000000001</ele>
        <time>2025-05-03T09:49:57Z</time>
      </trkpt>
      <trkpt lat="41.167767969891429" lon="-7.546275034546852">
        <ele>134.72</ele>
        <time>2025-05-03T09:49:58Z</time>
      </trkpt>
      <trkpt lat="41.167767969891429" lon="-7.546402020379901">
        <ele>134.24000000000001</ele>
        <time>2025-05-03T09:49:59Z</time>
      </trkpt>
      <trkpt lat="41.167805017903447" lon="-7.546514002606273">
        <ele>133.28</ele>
        <time>2025-05-03T09:50:00Z</time>
      </trkpt>
      <trkpt lat="41.167871989309788" lon="-7.546612992882729">
        <ele>132.31999999999999</ele>
        <time>2025-05-03T09:50:01Z</time>
      </trkpt>
      <trkpt lat="41.167971985414624" lon="-7.546688010916114">
        <ele>131.36000000000001</ele>
        <time>2025-05-03T09:50:02Z</time>
      </trkpt>
      <trkpt lat="41.168082039803267" lon="-7.546769985929132">
        <ele>130.88</ele>
        <time>2025-05-03T09:50:03Z</time>
      </trkpt>
      <trkpt lat="41.168211959302425" lon="-7.546817008405924">
        <ele>129.91999999999999</ele>
        <time>2025-05-03T09:50:04Z</time>
      </trkpt>
      <trkpt lat="41.168354032561183" lon="-7.54685296677053">
        <ele>129.43000000000001</ele>
        <time>2025-05-03T09:50:05Z</time>
      </trkpt>
      <trkpt lat="41.168503984808922" lon="-7.546891020610929">
        <ele>128.47</ele>
        <time>2025-05-03T09:50:06Z</time>
      </trkpt>
      <trkpt lat="41.169946007430553" lon="-7.546911975368857">
        <ele>122.22</ele>
        <time>2025-05-03T09:50:15Z</time>
      </trkpt>
      <trkpt lat="41.170082967728376" lon="-7.546876017004252">
        <ele>121.73999999999999</ele>
        <time>2025-05-03T09:50:16Z</time>
      </trkpt>
      <trkpt lat="41.170212971046567" lon="-7.546842992305756">
        <ele>121.26000000000001</ele>
        <time>2025-05-03T09:50:17Z</time>
      </trkpt>
      <trkpt lat="41.170340040698647" lon="-7.54680996760726">
        <ele>120.78</ele>
        <time>2025-05-03T09:50:18Z</time>
      </trkpt>
      <trkpt lat="41.170464009046555" lon="-7.546778032556176">
        <ele>120.3</ele>
        <time>2025-05-03T09:50:19Z</time>
      </trkpt>
      <trkpt lat="41.170575991272926" lon="-7.546811979264021">
        <ele>119.81999999999999</ele>
        <time>2025-05-03T09:50:20Z</time>
      </trkpt>
      <trkpt lat="41.170682022348046" lon="-7.546892026439309">
        <ele>118.86</ele>
        <time>2025-05-03T09:50:21Z</time>
      </trkpt>
      <trkpt lat="41.170786041766405" lon="-7.546989005059004">
        <ele>118.38</ele>
        <time>2025-05-03T09:50:22Z</time>
      </trkpt>
      <trkpt lat="41.170888971537352" lon="-7.547085983678699">
        <ele>117.90000000000001</ele>
        <time>2025-05-03T09:50:23Z</time>
      </trkpt>
      <trkpt lat="41.170983016490936" lon="-7.547157984226942">
        <ele>116.94</ele>
        <time>2025-05-03T09:50:24Z</time>
      </trkpt>
      <trkpt lat="41.171097010374069" lon="-7.547164019197226">
        <ele>116.45999999999999</ele>
        <time>2025-05-03T09:50:25Z</time>
      </trkpt>
      <trkpt lat="41.171218967065215" lon="-7.547170976176858">
        <ele>115.5</ele>
        <time>2025-05-03T09:50:26Z</time>
      </trkpt>
      <trkpt lat="41.171350982040167" lon="-7.547178016975522">
        <ele>115.01000000000001</ele>
        <time>2025-05-03T09:50:27Z</time>
      </trkpt>
      <trkpt lat="41.171621968969703" lon="-7.547196038067341">
        <ele>113.56999999999999</ele>
        <time>2025-05-03T09:50:29Z</time>
      </trkpt>
      <trkpt lat="41.171753983944654" lon="-7.547252029180527">
        <ele>113.09</ele>
        <time>2025-05-03T09:50:30Z</time>
      </trkpt>
      <trkpt lat="41.172252036631107" lon="-7.547591999173164">
        <ele>109.73</ele>
        <time>2025-05-03T09:50:34Z</time>
      </trkpt>
      <trkpt lat="41.172342980280519" lon="-7.547709010541439">
        <ele>108.77</ele>
        <time>2025-05-03T09:50:35Z</time>
      </trkpt>
      <trkpt lat="41.172401988878846" lon="-7.547850999981165">
        <ele>107.81</ele>
        <time>2025-05-03T09:50:36Z</time>
      </trkpt>
      <trkpt lat="41.172438031062484" lon="-7.548013022169471">
        <ele>107.31999999999999</ele>
        <time>2025-05-03T09:50:37Z</time>
      </trkpt>
      <trkpt lat="41.172470971941948" lon="-7.548176972195506">
        <ele>106.36</ele>
        <time>2025-05-03T09:50:38Z</time>
      </trkpt>
      <trkpt lat="41.17249402217567" lon="-7.548347041010857">
        <ele>105.88</ele>
        <time>2025-05-03T09:50:39Z</time>
      </trkpt>
      <trkpt lat="41.17251799441874" lon="-7.548519959673286">
        <ele>104.92</ele>
        <time>2025-05-03T09:50:40Z</time>
      </trkpt>
      <trkpt lat="41.172526041045785" lon="-7.548701008781791">
        <ele>104.44</ele>
        <time>2025-05-03T09:50:41Z</time>
      </trkpt>
      <trkpt lat="41.172514976933599" lon="-7.548879040405154">
        <ele>103.48</ele>
        <time>2025-05-03T09:50:42Z</time>
      </trkpt>
      <trkpt lat="41.172503996640444" lon="-7.549057994037867">
        <ele>103</ele>
        <time>2025-05-03T09:50:43Z</time>
      </trkpt>
      <trkpt lat="41.172506008297205" lon="-7.549384972080588">
        <ele>101.08</ele>
        <time>2025-05-03T09:50:45Z</time>
      </trkpt>
      <trkpt lat="41.172549007460475" lon="-7.549503995105624">
        <ele>100.11</ele>
        <time>2025-05-03T09:50:46Z</time>
      </trkpt>
      <trkpt lat="41.172596029937267" lon="-7.549582030624151">
        <ele>99.629999999999995</ele>
        <time>2025-05-03T09:50:47Z</time>
      </trkpt>
      <trkpt lat="41.172686973586679" lon="-7.549592005088925">
        <ele>98.670000000000002</ele>
        <time>2025-05-03T09:50:48Z</time>
      </trkpt>
      <trkpt lat="41.172788981348276" lon="-7.54960298538208">
        <ele>97.709999999999994</ele>
        <time>2025-05-03T09:50:49Z</time>
      </trkpt>
      <trkpt lat="41.172900041565299" lon="-7.549554035067558">
        <ele>96.75</ele>
        <time>2025-05-03T09:50:50Z</time>
      </trkpt>
      <trkpt lat="41.173015963286161" lon="-7.549506006762385">
        <ele>95.790000000000006</ele>
        <time>2025-05-03T09:50:51Z</time>
      </trkpt>
      <trkpt lat="41.173121994361281" lon="-7.549469964578748">
        <ele>94.829999999999998</ele>
        <time>2025-05-03T09:50:52Z</time>
      </trkpt>
      <trkpt lat="41.173230959102511" lon="-7.549434006214142">
        <ele>93.870000000000005</ele>
        <time>2025-05-03T09:50:53Z</time>
      </trkpt>
      <trkpt lat="41.17333103902638" lon="-7.549424031749368">
        <ele>92.900000000000006</ele>
        <time>2025-05-03T09:50:54Z</time>
      </trkpt>
      <trkpt lat="41.173435980454087" lon="-7.549475999549031">
        <ele>91.939999999999998</ele>
        <time>2025-05-03T09:50:55Z</time>
      </trkpt>
      <trkpt lat="41.173561038449407" lon="-7.549539031460881">
        <ele>91.459999999999994</ele>
        <time>2025-05-03T09:50:56Z</time>
      </trkpt>
      <trkpt lat="41.173666985705495" lon="-7.549612037837505">
        <ele>90.5</ele>
        <time>2025-05-03T09:50:57Z</time>
      </trkpt>
      <trkpt lat="41.173778967931867" lon="-7.549689989537001">
        <ele>90.019999999999996</ele>
        <time>2025-05-03T09:50:58Z</time>
      </trkpt>
      <trkpt lat="41.173877958208323" lon="-7.549787973985076">
        <ele>89.540000000000006</ele>
        <time>2025-05-03T09:50:59Z</time>
      </trkpt>
      <trkpt lat="41.173959011211991" lon="-7.549910014495254">
        <ele>89.060000000000002</ele>
        <time>2025-05-03T09:51:00Z</time>
      </trkpt>
      <trkpt lat="41.174044003710151" lon="-7.550038006156683">
        <ele>88.579999999999998</ele>
        <time>2025-05-03T09:51:01Z</time>
      </trkpt>
      <trkpt lat="41.174131007865071" lon="-7.550168009474874">
        <ele>88.099999999999994</ele>
        <time>2025-05-03T09:51:02Z</time>
      </trkpt>
      <trkpt lat="41.174202002584934" lon="-7.550302036106587">
        <ele>88.099999999999994</ele>
        <time>2025-05-03T09:51:03Z</time>
      </trkpt>
      <trkpt lat="41.174269979819655" lon="-7.550435978919268">
        <ele>88.099999999999994</ele>
        <time>2025-05-03T09:51:04Z</time>
      </trkpt>
      <trkpt lat="41.174338040873408" lon="-7.5505689997226">
        <ele>87.620000000000005</ele>
        <time>2025-05-03T09:51:05Z</time>
      </trkpt>
      <trkpt lat="41.174697959795594" lon="-7.55136301741004">
        <ele>84.25</ele>
        <time>2025-05-03T09:51:11Z</time>
      </trkpt>
      <trkpt lat="41.174694020301104" lon="-7.55147198215127">
        <ele>83.769999999999996</ele>
        <time>2025-05-03T09:51:12Z</time>
      </trkpt>
      <trkpt lat="41.174689996987581" lon="-7.551580024883151">
        <ele>83.769999999999996</ele>
        <time>2025-05-03T09:51:13Z</time>
      </trkpt>
      <trkpt lat="41.174684967845678" lon="-7.551685972139239">
        <ele>83.290000000000006</ele>
        <time>2025-05-03T09:51:14Z</time>
      </trkpt>
      <trkpt lat="41.174681028351188" lon="-7.551794014871121">
        <ele>82.810000000000002</ele>
        <time>2025-05-03T09:51:15Z</time>
      </trkpt>
      <trkpt lat="41.174608021974564" lon="-7.552626002579927">
        <ele>79.450000000000003</ele>
        <time>2025-05-03T09:51:23Z</time>
      </trkpt>
      <trkpt lat="41.174591006711125" lon="-7.552692973986268">
        <ele>78.969999999999999</ele>
        <time>2025-05-03T09:51:24Z</time>
      </trkpt>
      <trkpt lat="41.174526968970895" lon="-7.552730021998286">
        <ele>78.969999999999999</ele>
        <time>2025-05-03T09:51:25Z</time>
      </trkpt>
      <trkpt lat="41.174440970644355" lon="-7.552778972312808">
        <ele>78.969999999999999</ele>
        <time>2025-05-03T09:51:26Z</time>
      </trkpt>
      <trkpt lat="41.174366036430001" lon="-7.552774026989937">
        <ele>78.480000000000004</ele>
        <time>2025-05-03T09:51:27Z</time>
      </trkpt>
      <trkpt lat="41.174265034496784" lon="-7.552766986191273">
        <ele>78.480000000000004</ele>
        <time>2025-05-03T09:51:28Z</time>
      </trkpt>
      <trkpt lat="41.173819033429027" lon="-7.552791964262724">
        <ele>78</ele>
        <time>2025-05-03T09:51:32Z</time>
      </trkpt>
      <trkpt lat="41.173725994303823" lon="-7.552842004224658">
        <ele>78</ele>
        <time>2025-05-03T09:51:33Z</time>
      </trkpt>
      <trkpt lat="41.173604037612677" lon="-7.552907969802618">
        <ele>78</ele>
        <time>2025-05-03T09:51:34Z</time>
      </trkpt>
      <trkpt lat="41.173560032621026" lon="-7.5529969856143">
        <ele>78</ele>
        <time>2025-05-03T09:51:35Z</time>
      </trkpt>
      <trkpt lat="41.173497000709176" lon="-7.55312598310411">
        <ele>78</ele>
        <time>2025-05-03T09:51:36Z</time>
      </trkpt>
      <trkpt lat="41.173221990466118" lon="-7.553691007196903">
        <ele>78.480000000000004</ele>
        <time>2025-05-03T09:51:40Z</time>
      </trkpt>
      <trkpt lat="41.173145966604352" lon="-7.553820004686713">
        <ele>78.969999999999999</ele>
        <time>2025-05-03T09:51:41Z</time>
      </trkpt>
      <trkpt lat="41.172525035217404" lon="-7.554487958550453">
        <ele>79.930000000000007</ele>
        <time>2025-05-03T09:51:47Z</time>
      </trkpt>
      <trkpt lat="41.172406012192369" lon="-7.554546967148781">
        <ele>80.409999999999997</ele>
        <time>2025-05-03T09:51:48Z</time>
      </trkpt>
      <trkpt lat="41.172171989455819" lon="-7.554663978517056">
        <ele>80.890000000000001</ele>
        <time>2025-05-03T09:51:50Z</time>
      </trkpt>
      <trkpt lat="41.172037962824106" lon="-7.554731033742428">
        <ele>80.890000000000001</ele>
        <time>2025-05-03T09:51:51Z</time>
      </trkpt>
      <trkpt lat="41.171970991417766" lon="-7.554842010140419">
        <ele>80.890000000000001</ele>
        <time>2025-05-03T09:51:52Z</time>
      </trkpt>
      <trkpt lat="41.171119976788759" lon="-7.55632502026856">
        <ele>84.25</ele>
        <time>2025-05-03T09:52:01Z</time>
      </trkpt>
      <trkpt lat="41.169805023819208" lon="-7.558717969805002">
        <ele>90.980000000000004</ele>
        <time>2025-05-03T09:52:14Z</time>
      </trkpt>
      <trkpt lat="41.169586004689336" lon="-7.559027010574937">
        <ele>92.420000000000002</ele>
        <time>2025-05-03T09:52:16Z</time>
      </trkpt>
      <trkpt lat="41.169473016634583" lon="-7.559145027771592">
        <ele>92.900000000000006</ele>
        <time>2025-05-03T09:52:17Z</time>
      </trkpt>
      <trkpt lat="41.169338990002871" lon="-7.55920403636992">
        <ele>93.870000000000005</ele>
        <time>2025-05-03T09:52:18Z</time>
      </trkpt>
      <trkpt lat="41.169178979471326" lon="-7.559216022491455">
        <ele>94.829999999999998</ele>
        <time>2025-05-03T09:52:19Z</time>
      </trkpt>
      <trkpt lat="41.169017041102052" lon="-7.559216022491455">
        <ele>95.310000000000002</ele>
        <time>2025-05-03T09:52:20Z</time>
      </trkpt>
      <trkpt lat="41.168867005035281" lon="-7.559216022491455">
        <ele>96.269999999999996</ele>
        <time>2025-05-03T09:52:21Z</time>
      </trkpt>
      <trkpt lat="41.168743036687374" lon="-7.559243012219667">
        <ele>96.75</ele>
        <time>2025-05-03T09:52:22Z</time>
      </trkpt>
      <trkpt lat="41.168631976470351" lon="-7.559268996119499">
        <ele>97.230000000000004</ele>
        <time>2025-05-03T09:52:23Z</time>
      </trkpt>
      <trkpt lat="41.168542960658669" lon="-7.559323981404305">
        <ele>97.709999999999994</ele>
        <time>2025-05-03T09:52:24Z</time>
      </trkpt>
      <trkpt lat="41.168461991474032" lon="-7.559411991387606">
        <ele>98.189999999999998</ele>
        <time>2025-05-03T09:52:25Z</time>
      </trkpt>
      <trkpt lat="41.168382028117776" lon="-7.559501007199287">
        <ele>98.670000000000002</ele>
        <time>2025-05-03T09:52:26Z</time>
      </trkpt>
      <trkpt lat="41.168298041447997" lon="-7.559593040496111">
        <ele>99.150000000000006</ele>
        <time>2025-05-03T09:52:27Z</time>
      </trkpt>
      <trkpt lat="41.167523972690105" lon="-7.560497028753161">
        <ele>102.52</ele>
        <time>2025-05-03T09:52:35Z</time>
      </trkpt>
      <trkpt lat="41.167454989627004" lon="-7.560634994879365">
        <ele>103</ele>
        <time>2025-05-03T09:52:36Z</time>
      </trkpt>
      <trkpt lat="41.167427999898791" lon="-7.560806991532445">
        <ele>103.95999999999999</ele>
        <time>2025-05-03T09:52:37Z</time>
      </trkpt>
      <trkpt lat="41.167435040697455" lon="-7.56098703481257">
        <ele>104.92</ele>
        <time>2025-05-03T09:52:38Z</time>
      </trkpt>
      <trkpt lat="41.167441997677088" lon="-7.561185015365481">
        <ele>105.40000000000001</ele>
        <time>2025-05-03T09:52:39Z</time>
      </trkpt>
      <trkpt lat="41.16742598824203" lon="-7.561373021453619">
        <ele>106.36</ele>
        <time>2025-05-03T09:52:40Z</time>
      </trkpt>
      <trkpt lat="41.167374020442367" lon="-7.56156999617815">
        <ele>107.31999999999999</ele>
        <time>2025-05-03T09:52:41Z</time>
      </trkpt>
      <trkpt lat="41.167305037379265" lon="-7.561758002266288">
        <ele>108.29000000000001</ele>
        <time>2025-05-03T09:52:42Z</time>
      </trkpt>
      <trkpt lat="41.167196994647384" lon="-7.561925975605846">
        <ele>108.77</ele>
        <time>2025-05-03T09:52:43Z</time>
      </trkpt>
      <trkpt lat="41.167090041562915" lon="-7.562092021107674">
        <ele>109.73</ele>
        <time>2025-05-03T09:52:44Z</time>
      </trkpt>
      <trkpt lat="41.166990967467427" lon="-7.562244990840554">
        <ele>110.69</ele>
        <time>2025-05-03T09:52:45Z</time>
      </trkpt>
      <trkpt lat="41.16693296469748" lon="-7.562417993322015">
        <ele>111.17</ele>
        <time>2025-05-03T09:52:46Z</time>
      </trkpt>
      <trkpt lat="41.166904969140887" lon="-7.56257900968194">
        <ele>111.65000000000001</ele>
        <time>2025-05-03T09:52:47Z</time>
      </trkpt>
      <trkpt lat="41.166851995512843" lon="-7.562886038795114">
        <ele>112.61</ele>
        <time>2025-05-03T09:52:49Z</time>
      </trkpt>
      <trkpt lat="41.166789969429374" lon="-7.563028028234839">
        <ele>113.09</ele>
        <time>2025-05-03T09:52:50Z</time>
      </trkpt>
      <trkpt lat="41.166710006073117" lon="-7.563178986310959">
        <ele>113.56999999999999</ele>
        <time>2025-05-03T09:52:51Z</time>
      </trkpt>
      <trkpt lat="41.166571034118533" lon="-7.563525997102261">
        <ele>114.05</ele>
        <time>2025-05-03T09:52:53Z</time>
      </trkpt>
      <trkpt lat="41.165918000042439" lon="-7.565142028033733">
        <ele>116.45999999999999</ele>
        <time>2025-05-03T09:53:01Z</time>
      </trkpt>
      <trkpt lat="41.165836025029421" lon="-7.565331039950252">
        <ele>116.45999999999999</ele>
        <time>2025-05-03T09:53:02Z</time>
      </trkpt>
      <trkpt lat="41.165718007832766" lon="-7.565477974712849">
        <ele>116.45999999999999</ele>
        <time>2025-05-03T09:53:03Z</time>
      </trkpt>
      <trkpt lat="41.165595967322588" lon="-7.565629016608">
        <ele>116.45999999999999</ele>
        <time>2025-05-03T09:53:04Z</time>
      </trkpt>
      <trkpt lat="41.1654709931463" lon="-7.565783997997642">
        <ele>116.45999999999999</ele>
        <time>2025-05-03T09:53:05Z</time>
      </trkpt>
      <trkpt lat="41.165358005091548" lon="-7.565947026014328">
        <ele>116.45999999999999</ele>
        <time>2025-05-03T09:53:06Z</time>
      </trkpt>
      <trkpt lat="41.165263960137963" lon="-7.566139977425337">
        <ele>116.45999999999999</ele>
        <time>2025-05-03T09:53:07Z</time>
      </trkpt>
      <trkpt lat="41.16516999900341" lon="-7.566334018483758">
        <ele>115.98</ele>
        <time>2025-05-03T09:53:08Z</time>
      </trkpt>
      <trkpt lat="41.164572034031153" lon="-7.567911995574832">
        <ele>114.05</ele>
        <time>2025-05-03T09:53:16Z</time>
      </trkpt>
      <trkpt lat="41.164521994069219" lon="-7.568071000277996">
        <ele>113.56999999999999</ele>
        <time>2025-05-03T09:53:17Z</time>
      </trkpt>
      <trkpt lat="41.164445970207453" lon="-7.56816303357482">
        <ele>113.09</ele>
        <time>2025-05-03T09:53:18Z</time>
      </trkpt>
      <trkpt lat="41.164345974102616" lon="-7.568233022466302">
        <ele>112.61</ele>
        <time>2025-05-03T09:53:19Z</time>
      </trkpt>
      <trkpt lat="41.164234997704625" lon="-7.568270992487669">
        <ele>111.65000000000001</ele>
        <time>2025-05-03T09:53:20Z</time>
      </trkpt>
      <trkpt lat="41.164099965244532" lon="-7.568270992487669">
        <ele>111.17</ele>
        <time>2025-05-03T09:53:21Z</time>
      </trkpt>
      <trkpt lat="41.163959987461567" lon="-7.568270992487669">
        <ele>110.20999999999999</ele>
        <time>2025-05-03T09:53:22Z</time>
      </trkpt>
      <trkpt lat="41.163696963340044" lon="-7.568270992487669">
        <ele>108.77</ele>
        <time>2025-05-03T09:53:24Z</time>
      </trkpt>
      <trkpt lat="41.163589004427195" lon="-7.56833896972239">
        <ele>107.81</ele>
        <time>2025-05-03T09:53:25Z</time>
      </trkpt>
      <trkpt lat="41.163524966686964" lon="-7.568432008847594">
        <ele>107.31999999999999</ele>
        <time>2025-05-03T09:53:26Z</time>
      </trkpt>
      <trkpt lat="41.163502000272274" lon="-7.568519013002515">
        <ele>106.36</ele>
        <time>2025-05-03T09:53:27Z</time>
      </trkpt>
      <trkpt lat="41.163519015535712" lon="-7.568635018542409">
        <ele>105.88</ele>
        <time>2025-05-03T09:53:28Z</time>
      </trkpt>
      <trkpt lat="41.163539970293641" lon="-7.568785976618528">
        <ele>104.92</ele>
        <time>2025-05-03T09:53:29Z</time>
      </trkpt>
      <trkpt lat="41.163610965013504" lon="-7.568867029622197">
        <ele>104.44</ele>
        <time>2025-05-03T09:53:30Z</time>
      </trkpt>
      <trkpt lat="41.163699980825186" lon="-7.568969037383795">
        <ele>103.48</ele>
        <time>2025-05-03T09:53:31Z</time>
      </trkpt>
      <trkpt lat="41.163785979151726" lon="-7.56906601600349">
        <ele>103</ele>
        <time>2025-05-03T09:53:32Z</time>
      </trkpt>
      <trkpt lat="41.163849011063576" lon="-7.569188978523016">
        <ele>102.52</ele>
        <time>2025-05-03T09:53:33Z</time>
      </trkpt>
      <trkpt lat="41.163872983306646" lon="-7.569353012368083">
        <ele>101.56</ele>
        <time>2025-05-03T09:53:34Z</time>
      </trkpt>
      <trkpt lat="41.163897961378098" lon="-7.569531966000795">
        <ele>101.08</ele>
        <time>2025-05-03T09:53:35Z</time>
      </trkpt>
      <trkpt lat="41.163897961378098" lon="-7.569716032594442">
        <ele>100.59999999999999</ele>
        <time>2025-05-03T09:53:36Z</time>
      </trkpt>
      <trkpt lat="41.163888992741704" lon="-7.569899009540677">
        <ele>100.11</ele>
        <time>2025-05-03T09:53:37Z</time>
      </trkpt>
      <trkpt lat="41.163850016891956" lon="-7.570081986486912">
        <ele>99.629999999999995</ele>
        <time>2025-05-03T09:53:38Z</time>
      </trkpt>
      <trkpt lat="41.163771981373429" lon="-7.570249037817121">
        <ele>99.150000000000006</ele>
        <time>2025-05-03T09:53:39Z</time>
      </trkpt>
      <trkpt lat="41.163691012188792" lon="-7.570424973964691">
        <ele>99.150000000000006</ele>
        <time>2025-05-03T09:53:40Z</time>
      </trkpt>
      <trkpt lat="41.163605013862252" lon="-7.570609962567687">
        <ele>99.150000000000006</ele>
        <time>2025-05-03T09:53:41Z</time>
      </trkpt>
      <trkpt lat="41.163370991125703" lon="-7.570906011387706">
        <ele>98.670000000000002</ele>
        <time>2025-05-03T09:53:43Z</time>
      </trkpt>
      <trkpt lat="41.163262026384473" lon="-7.571028973907232">
        <ele>98.189999999999998</ele>
        <time>2025-05-03T09:53:44Z</time>
      </trkpt>
      <trkpt lat="41.163132023066282" lon="-7.571101980283856">
        <ele>97.709999999999994</ele>
        <time>2025-05-03T09:53:45Z</time>
      </trkpt>
      <trkpt lat="41.162861036136746" lon="-7.571272971108556">
        <ele>97.230000000000004</ele>
        <time>2025-05-03T09:53:47Z</time>
      </trkpt>
      <trkpt lat="41.162745030596852" lon="-7.571405991911888">
        <ele>97.230000000000004</ele>
        <time>2025-05-03T09:53:48Z</time>
      </trkpt>
      <trkpt lat="41.162623995915055" lon="-7.571544963866472">
        <ele>97.230000000000004</ele>
        <time>2025-05-03T09:53:49Z</time>
      </trkpt>
      <trkpt lat="41.162383016198874" lon="-7.571821985766292">
        <ele>97.230000000000004</ele>
        <time>2025-05-03T09:53:51Z</time>
      </trkpt>
      <trkpt lat="41.162252007052302" lon="-7.571928016841412">
        <ele>97.709999999999994</ele>
        <time>2025-05-03T09:53:52Z</time>
      </trkpt>
      <trkpt lat="41.162105994299054" lon="-7.571995994076133">
        <ele>97.709999999999994</ele>
        <time>2025-05-03T09:53:53Z</time>
      </trkpt>
      <trkpt lat="41.161955036222935" lon="-7.572058020159602">
        <ele>97.709999999999994</ele>
        <time>2025-05-03T09:53:54Z</time>
      </trkpt>
      <trkpt lat="41.161787984892726" lon="-7.572102025151253">
        <ele>97.230000000000004</ele>
        <time>2025-05-03T09:53:55Z</time>
      </trkpt>
      <trkpt lat="41.161621017381549" lon="-7.572145024314523">
        <ele>97.230000000000004</ele>
        <time>2025-05-03T09:53:56Z</time>
      </trkpt>
      <trkpt lat="41.161285992711782" lon="-7.572274021804333">
        <ele>96.75</ele>
        <time>2025-05-03T09:53:58Z</time>
      </trkpt>
      <trkpt lat="41.161133022978902" lon="-7.572374017909169">
        <ele>96.269999999999996</ele>
        <time>2025-05-03T09:53:59Z</time>
      </trkpt>
      <trkpt lat="41.160996984690428" lon="-7.572509972378612">
        <ele>95.790000000000006</ele>
        <time>2025-05-03T09:54:00Z</time>
      </trkpt>
      <trkpt lat="41.160501027479768" lon="-7.573006013408303">
        <ele>92.900000000000006</ele>
        <time>2025-05-03T09:54:04Z</time>
      </trkpt>
      <trkpt lat="41.160392984747887" lon="-7.573113972321153">
        <ele>91.939999999999998</ele>
        <time>2025-05-03T09:54:05Z</time>
      </trkpt>
      <trkpt lat="41.160016972571611" lon="-7.57359903305769">
        <ele>89.540000000000006</ele>
        <time>2025-05-03T09:54:09Z</time>
      </trkpt>
      <trkpt lat="41.159749003127217" lon="-7.573972027748823">
        <ele>88.099999999999994</ele>
        <time>2025-05-03T09:54:11Z</time>
      </trkpt>
      <trkpt lat="41.159194959327579" lon="-7.574966959655285">
        <ele>85.689999999999998</ele>
        <time>2025-05-03T09:54:16Z</time>
      </trkpt>
      <trkpt lat="41.158749964088202" lon="-7.576573016121984">
        <ele>82.810000000000002</ele>
        <time>2025-05-03T09:54:23Z</time>
      </trkpt>
      <trkpt lat="41.15829398855567" lon="-7.578793969005346">
        <ele>82.810000000000002</ele>
        <time>2025-05-03T09:54:32Z</time>
      </trkpt>
      <trkpt lat="41.158001963049173" lon="-7.580335987731814">
        <ele>82.329999999999998</ele>
        <time>2025-05-03T09:54:39Z</time>
      </trkpt>
      <trkpt lat="41.157845975831151" lon="-7.581102009862661">
        <ele>80.409999999999997</ele>
        <time>2025-05-03T09:54:46Z</time>
      </trkpt>
      <trkpt lat="41.157556967809796" lon="-7.582258963957429">
        <ele>78.969999999999999</ele>
        <time>2025-05-03T09:54:55Z</time>
      </trkpt>
      <trkpt lat="41.157224038615823" lon="-7.583534019067884">
        <ele>79.930000000000007</ele>
        <time>2025-05-03T09:55:03Z</time>
      </trkpt>
      <trkpt lat="41.156516019254923" lon="-7.585521033033729">
        <ele>80.409999999999997</ele>
        <time>2025-05-03T09:55:13Z</time>
      </trkpt>
      <trkpt lat="41.155662992969155" lon="-7.587646013125777">
        <ele>81.370000000000005</ele>
        <time>2025-05-03T09:55:22Z</time>
      </trkpt>
      <trkpt lat="41.155023034662008" lon="-7.589639984071255">
        <ele>83.769999999999996</ele>
        <time>2025-05-03T09:55:30Z</time>
      </trkpt>
      <trkpt lat="41.15464199334383" lon="-7.591602019965649">
        <ele>85.689999999999998</ele>
        <time>2025-05-03T09:55:37Z</time>
      </trkpt>
      <trkpt lat="41.154744001105428" lon="-7.594007039442658">
        <ele>86.180000000000007</ele>
        <time>2025-05-03T09:55:45Z</time>
      </trkpt>
      <trkpt lat="41.154975006356835" lon="-7.596345003694296">
        <ele>85.209999999999994</ele>
        <time>2025-05-03T09:55:53Z</time>
      </trkpt>
      <trkpt lat="41.155052036046982" lon="-7.596614984795451">
        <ele>84.730000000000004</ele>
        <time>2025-05-03T09:55:54Z</time>
      </trkpt>
      <trkpt lat="41.155134011059999" lon="-7.596875997260213">
        <ele>84.730000000000004</ele>
        <time>2025-05-03T09:55:55Z</time>
      </trkpt>
      <trkpt lat="41.155833983793855" lon="-7.598695959895849">
        <ele>83.769999999999996</ele>
        <time>2025-05-03T09:56:02Z</time>
      </trkpt>
      <trkpt lat="41.155901961028576" lon="-7.598981028422713">
        <ele>83.769999999999996</ele>
        <time>2025-05-03T09:56:03Z</time>
      </trkpt>
      <trkpt lat="41.15646799094975" lon="-7.602147040888667">
        <ele>84.730000000000004</ele>
        <time>2025-05-03T09:56:14Z</time>
      </trkpt>
      <trkpt lat="41.157247005030513" lon="-7.605136027559638">
        <ele>85.209999999999994</ele>
        <time>2025-05-03T09:56:25Z</time>
      </trkpt>
      <trkpt lat="41.157744973897934" lon="-7.606809977442026">
        <ele>85.689999999999998</ele>
        <time>2025-05-03T09:56:33Z</time>
      </trkpt>
      <trkpt lat="41.158346962183714" lon="-7.608817024156451">
        <ele>85.209999999999994</ele>
        <time>2025-05-03T09:56:42Z</time>
      </trkpt>
      <trkpt lat="41.159069985151291" lon="-7.611649017781019">
        <ele>84.25</ele>
        <time>2025-05-03T09:56:53Z</time>
      </trkpt>
      <trkpt lat="41.159392017871141" lon="-7.614112040027976">
        <ele>84.25</ele>
        <time>2025-05-03T09:57:02Z</time>
      </trkpt>
      <trkpt lat="41.159318005666137" lon="-7.617492964491248">
        <ele>84.25</ele>
        <time>2025-05-03T09:57:14Z</time>
      </trkpt>
      <trkpt lat="41.159085994586349" lon="-7.620185986161232">
        <ele>83.769999999999996</ele>
        <time>2025-05-03T09:57:24Z</time>
      </trkpt>
      <trkpt lat="41.158693972975016" lon="-7.62260802090168">
        <ele>83.290000000000006</ele>
        <time>2025-05-03T09:57:33Z</time>
      </trkpt>
      <trkpt lat="41.158023001626134" lon="-7.62488697655499">
        <ele>80.409999999999997</ele>
        <time>2025-05-03T09:57:42Z</time>
      </trkpt>
      <trkpt lat="41.157569959759712" lon="-7.627214966341853">
        <ele>79.930000000000007</ele>
        <time>2025-05-03T09:57:51Z</time>
      </trkpt>
      <trkpt lat="41.157222026959062" lon="-7.629926009103656">
        <ele>81.849999999999994</ele>
        <time>2025-05-03T09:58:01Z</time>
      </trkpt>
      <trkpt lat="41.157213980332017" lon="-7.630202025175095">
        <ele>81.849999999999994</ele>
        <time>2025-05-03T09:58:02Z</time>
      </trkpt>
      <trkpt lat="41.157205011695623" lon="-7.630482986569405">
        <ele>81.849999999999994</ele>
        <time>2025-05-03T09:58:03Z</time>
      </trkpt>
      <trkpt lat="41.157082971185446" lon="-7.634559022262693">
        <ele>78.969999999999999</ele>
        <time>2025-05-03T09:58:18Z</time>
      </trkpt>
      <trkpt lat="41.157206017524004" lon="-7.637056997045875">
        <ele>76.560000000000002</ele>
        <time>2025-05-03T09:58:28Z</time>
      </trkpt>
      <trkpt lat="41.157167041674256" lon="-7.638918031007052">
        <ele>75.120000000000005</ele>
        <time>2025-05-03T09:58:37Z</time>
      </trkpt>
      <trkpt lat="41.157281035557389" lon="-7.640704968944192">
        <ele>74.159999999999997</ele>
        <time>2025-05-03T09:58:47Z</time>
      </trkpt>
      <trkpt lat="41.157746985554695" lon="-7.642967998981476">
        <ele>74.159999999999997</ele>
        <time>2025-05-03T09:59:00Z</time>
      </trkpt>
      <trkpt lat="41.158331036567688" lon="-7.645049979910255">
        <ele>75.120000000000005</ele>
        <time>2025-05-03T09:59:11Z</time>
      </trkpt>
      <trkpt lat="41.159146009013057" lon="-7.647620039060712">
        <ele>78.480000000000004</ele>
        <time>2025-05-03T09:59:23Z</time>
      </trkpt>
      <trkpt lat="41.159844975918531" lon="-7.649822970852256">
        <ele>82.810000000000002</ele>
        <time>2025-05-03T09:59:33Z</time>
      </trkpt>
      <trkpt lat="41.160723986104131" lon="-7.65288102440536">
        <ele>86.659999999999997</ele>
        <time>2025-05-03T09:59:46Z</time>
      </trkpt>
      <trkpt lat="41.16102397441864" lon="-7.655434990301728">
        <ele>85.209999999999994</ele>
        <time>2025-05-03T09:59:56Z</time>
      </trkpt>
      <trkpt lat="41.161323040723801" lon="-7.65855498611927">
        <ele>83.769999999999996</ele>
        <time>2025-05-03T10:00:08Z</time>
      </trkpt>
      <trkpt lat="41.161383977159858" lon="-7.66119796782732">
        <ele>82.329999999999998</ele>
        <time>2025-05-03T10:00:18Z</time>
      </trkpt>
      <trkpt lat="41.161041995510459" lon="-7.66416298225522">
        <ele>85.209999999999994</ele>
        <time>2025-05-03T10:00:29Z</time>
      </trkpt>
      <trkpt lat="41.160535980015993" lon="-7.666140021756291">
        <ele>88.099999999999994</ele>
        <time>2025-05-03T10:00:37Z</time>
      </trkpt>
      <trkpt lat="41.159222032874823" lon="-7.668485026806593">
        <ele>91.459999999999994</ele>
        <time>2025-05-03T10:00:48Z</time>
      </trkpt>
      <trkpt lat="41.157789984717965" lon="-7.671022983267903">
        <ele>93.390000000000001</ele>
        <time>2025-05-03T10:01:00Z</time>
      </trkpt>
      <trkpt lat="41.156323989853263" lon="-7.673440994694829">
        <ele>92.420000000000002</ele>
        <time>2025-05-03T10:01:12Z</time>
      </trkpt>
      <trkpt lat="41.155118001624942" lon="-7.675146041437984">
        <ele>89.060000000000002</ele>
        <time>2025-05-03T10:01:22Z</time>
      </trkpt>
      <trkpt lat="41.154732014983892" lon="-7.675830004736781">
        <ele>87.620000000000005</ele>
        <time>2025-05-03T10:01:28Z</time>
      </trkpt>
      <trkpt lat="41.154121980071068" lon="-7.676910012960434">
        <ele>85.209999999999994</ele>
        <time>2025-05-03T10:01:37Z</time>
      </trkpt>
      <trkpt lat="41.153295021504164" lon="-7.678555967286229">
        <ele>82.329999999999998</ele>
        <time>2025-05-03T10:01:50Z</time>
      </trkpt>
      <trkpt lat="41.153237018734217" lon="-7.67868597060442">
        <ele>81.849999999999994</ele>
        <time>2025-05-03T10:01:51Z</time>
      </trkpt>
      <trkpt lat="41.152692027390003" lon="-7.679876033216715">
        <ele>79.450000000000003</ele>
        <time>2025-05-03T10:02:00Z</time>
      </trkpt>
      <trkpt lat="41.15223697386682" lon="-7.680866019800305">
        <ele>78.480000000000004</ele>
        <time>2025-05-03T10:02:09Z</time>
      </trkpt>
      <trkpt lat="41.152151981368661" lon="-7.681033993139863">
        <ele>78</ele>
        <time>2025-05-03T10:02:11Z</time>
      </trkpt>
      <trkpt lat="41.152114011347294" lon="-7.681102976202965">
        <ele>77.519999999999996</ele>
        <time>2025-05-03T10:02:12Z</time>
      </trkpt>
      <trkpt lat="41.151965986937284" lon="-7.681378992274404">
        <ele>77.040000000000006</ele>
        <time>2025-05-03T10:02:16Z</time>
      </trkpt>
      <trkpt lat="41.151415966451168" lon="-7.682191031053662">
        <ele>75.599999999999994</ele>
        <time>2025-05-03T10:02:26Z</time>
      </trkpt>
      <trkpt lat="41.150685986503959" lon="-7.683252012357116">
        <ele>71.760000000000005</ele>
        <time>2025-05-03T10:02:36Z</time>
      </trkpt>
      <trkpt lat="41.14969901740551" lon="-7.684650029987097">
        <ele>68.390000000000001</ele>
        <time>2025-05-03T10:02:46Z</time>
      </trkpt>
      <trkpt lat="41.148666031658649" lon="-7.685659965500236">
        <ele>67.430000000000007</ele>
        <time>2025-05-03T10:02:54Z</time>
      </trkpt>
      <trkpt lat="41.147286035120487" lon="-7.68654802814126">
        <ele>68.870000000000005</ele>
        <time>2025-05-03T10:03:04Z</time>
      </trkpt>
      <trkpt lat="41.145809981971979" lon="-7.68773096613586">
        <ele>71.760000000000005</ele>
        <time>2025-05-03T10:03:15Z</time>
      </trkpt>
      <trkpt lat="41.144384974613786" lon="-7.689076010137796">
        <ele>71.269999999999996</ele>
        <time>2025-05-03T10:03:26Z</time>
      </trkpt>
      <trkpt lat="41.14413502626121" lon="-7.689358983188868">
        <ele>70.790000000000006</ele>
        <time>2025-05-03T10:03:28Z</time>
      </trkpt>
      <trkpt lat="41.143137998878956" lon="-7.690812991932035">
        <ele>68.870000000000005</ele>
        <time>2025-05-03T10:03:37Z</time>
      </trkpt>
      <trkpt lat="41.142151029780507" lon="-7.692403038963676">
        <ele>68.870000000000005</ele>
        <time>2025-05-03T10:03:46Z</time>
      </trkpt>
      <trkpt lat="41.141481986269355" lon="-7.694052010774612">
        <ele>69.829999999999998</ele>
        <time>2025-05-03T10:03:54Z</time>
      </trkpt>
      <trkpt lat="41.141179986298084" lon="-7.695440975949168">
        <ele>70.790000000000006</ele>
        <time>2025-05-03T10:04:02Z</time>
      </trkpt>
      <trkpt lat="41.140686040744185" lon="-7.697729989886284">
        <ele>69.829999999999998</ele>
        <time>2025-05-03T10:04:13Z</time>
      </trkpt>
      <trkpt lat="41.140533993020654" lon="-7.698521995916963">
        <ele>68.870000000000005</ele>
        <time>2025-05-03T10:04:17Z</time>
      </trkpt>
      <trkpt lat="41.140513038262725" lon="-7.698707990348339">
        <ele>68.390000000000001</ele>
        <time>2025-05-03T10:04:18Z</time>
      </trkpt>
      <trkpt lat="41.140491999685764" lon="-7.698890967294574">
        <ele>68.390000000000001</ele>
        <time>2025-05-03T10:04:19Z</time>
      </trkpt>
      <trkpt lat="41.140476996079087" lon="-7.69907302223146">
        <ele>67.909999999999997</ele>
        <time>2025-05-03T10:04:20Z</time>
      </trkpt>
      <trkpt lat="41.140518989413977" lon="-7.699261028319597">
        <ele>67.909999999999997</ele>
        <time>2025-05-03T10:04:21Z</time>
      </trkpt>
      <trkpt lat="41.140561988577247" lon="-7.699456997215748">
        <ele>67.430000000000007</ele>
        <time>2025-05-03T10:04:22Z</time>
      </trkpt>
      <trkpt lat="41.140604987740517" lon="-7.699651038274169">
        <ele>66.950000000000003</ele>
        <time>2025-05-03T10:04:23Z</time>
      </trkpt>
      <trkpt lat="41.141143022105098" lon="-7.701929993927479">
        <ele>65.510000000000005</ele>
        <time>2025-05-03T10:04:34Z</time>
      </trkpt>
      <trkpt lat="41.141478968784213" lon="-7.703232960775495">
        <ele>64.549999999999997</ele>
        <time>2025-05-03T10:04:40Z</time>
      </trkpt>
      <trkpt lat="41.141813993453979" lon="-7.704118005931377">
        <ele>64.069999999999993</ele>
        <time>2025-05-03T10:04:45Z</time>
      </trkpt>
      <trkpt lat="41.141870990395546" lon="-7.704272987321019">
        <ele>64.069999999999993</ele>
        <time>2025-05-03T10:04:46Z</time>
      </trkpt>
      <trkpt lat="41.141931004822254" lon="-7.704438026994467">
        <ele>64.069999999999993</ele>
        <time>2025-05-03T10:04:47Z</time>
      </trkpt>
      <trkpt lat="41.141981966793537" lon="-7.704610023647547">
        <ele>63.579999999999998</ele>
        <time>2025-05-03T10:04:48Z</time>
      </trkpt>
      <trkpt lat="41.142035024240613" lon="-7.704786965623498">
        <ele>63.579999999999998</ele>
        <time>2025-05-03T10:04:49Z</time>
      </trkpt>
      <trkpt lat="41.142541961744428" lon="-7.7067019790411">
        <ele>63.579999999999998</ele>
        <time>2025-05-03T10:04:59Z</time>
      </trkpt>
      <trkpt lat="41.142567023634911" lon="-7.706909012049437">
        <ele>64.069999999999993</ele>
        <time>2025-05-03T10:05:00Z</time>
      </trkpt>
      <trkpt lat="41.142699960619211" lon="-7.708283979445696">
        <ele>65.510000000000005</ele>
        <time>2025-05-03T10:05:05Z</time>
      </trkpt>
      <trkpt lat="41.142913028597832" lon="-7.711016982793808">
        <ele>68.870000000000005</ele>
        <time>2025-05-03T10:05:14Z</time>
      </trkpt>
      <trkpt lat="41.143321981653571" lon="-7.713515041396022">
        <ele>68.390000000000001</ele>
        <time>2025-05-03T10:05:23Z</time>
      </trkpt>
      <trkpt lat="41.143723977729678" lon="-7.716550966724753">
        <ele>70.790000000000006</ele>
        <time>2025-05-03T10:05:34Z</time>
      </trkpt>
      <trkpt lat="41.143897986039519" lon="-7.719339039176703">
        <ele>73.200000000000003</ele>
        <time>2025-05-03T10:05:44Z</time>
      </trkpt>
      <trkpt lat="41.14402798935771" lon="-7.722702026367188">
        <ele>74.159999999999997</ele>
        <time>2025-05-03T10:05:56Z</time>
      </trkpt>
      <trkpt lat="41.14409496076405" lon="-7.725978009402752">
        <ele>76.079999999999998</ele>
        <time>2025-05-03T10:06:08Z</time>
      </trkpt>
      <trkpt lat="41.144230999052525" lon="-7.728093015030026">
        <ele>77.040000000000006</ele>
        <time>2025-05-03T10:06:16Z</time>
      </trkpt>
      <trkpt lat="41.144313979893923" lon="-7.730748988687992">
        <ele>75.599999999999994</ele>
        <time>2025-05-03T10:06:26Z</time>
      </trkpt>
      <trkpt lat="41.144290007650852" lon="-7.731014024466276">
        <ele>76.079999999999998</ele>
        <time>2025-05-03T10:06:27Z</time>
      </trkpt>
      <trkpt lat="41.144261006265879" lon="-7.731284005567431">
        <ele>75.599999999999994</ele>
        <time>2025-05-03T10:06:28Z</time>
      </trkpt>
      <trkpt lat="41.144010974094272" lon="-7.73287002928555">
        <ele>75.120000000000005</ele>
        <time>2025-05-03T10:06:34Z</time>
      </trkpt>
      <trkpt lat="41.144003011286259" lon="-7.733133975416422">
        <ele>75.120000000000005</ele>
        <time>2025-05-03T10:06:35Z</time>
      </trkpt>
      <trkpt lat="41.143935034051538" lon="-7.735302038490772">
        <ele>75.599999999999994</ele>
        <time>2025-05-03T10:06:44Z</time>
      </trkpt>
      <trkpt lat="41.14409202709794" lon="-7.737007001414895">
        <ele>77.040000000000006</ele>
        <time>2025-05-03T10:06:52Z</time>
      </trkpt>
      <trkpt lat="41.144325966015458" lon="-7.738323966041207">
        <ele>76.560000000000002</ele>
        <time>2025-05-03T10:06:59Z</time>
      </trkpt>
      <trkpt lat="41.144617991521955" lon="-7.740105958655477">
        <ele>75.120000000000005</ele>
        <time>2025-05-03T10:07:11Z</time>
      </trkpt>
      <trkpt lat="41.144784959033132" lon="-7.741597015410662">
        <ele>70.310000000000002</ele>
        <time>2025-05-03T10:07:22Z</time>
      </trkpt>
      <trkpt lat="41.14484497345984" lon="-7.742014015093446">
        <ele>68.390000000000001</ele>
        <time>2025-05-03T10:07:26Z</time>
      </trkpt>
      <trkpt lat="41.144860982894897" lon="-7.74213002063334">
        <ele>67.909999999999997</ele>
        <time>2025-05-03T10:07:27Z</time>
      </trkpt>
      <trkpt lat="41.145245963707566" lon="-7.74314196780324">
        <ele>63.579999999999998</ele>
        <time>2025-05-03T10:07:35Z</time>
      </trkpt>
      <trkpt lat="41.145392982289195" lon="-7.743509011343122">
        <ele>62.140000000000001</ele>
        <time>2025-05-03T10:07:39Z</time>
      </trkpt>
      <trkpt lat="41.14544696174562" lon="-7.743643959984183">
        <ele>60.219999999999999</ele>
        <time>2025-05-03T10:07:45Z</time>
      </trkpt>
      <trkpt lat="41.145451990887523" lon="-7.743657035753131">
        <ele>60.219999999999999</ele>
        <time>2025-05-03T10:07:49Z</time>
      </trkpt>
      <trkpt lat="41.145904026925564" lon="-7.743345983326435">
        <ele>100.11</ele>
        <time>2025-05-03T10:25:48Z</time>
      </trkpt>
      <trkpt lat="41.14548702724278" lon="-7.743743034079671">
        <ele>91.939999999999998</ele>
        <time>2025-05-03T10:25:51Z</time>
      </trkpt>
      <trkpt lat="41.145501025021076" lon="-7.743777986615896">
        <ele>91.459999999999994</ele>
        <time>2025-05-03T10:25:52Z</time>
      </trkpt>
      <trkpt lat="41.14555299282074" lon="-7.743910001590848">
        <ele>90.980000000000004</ele>
        <time>2025-05-03T10:25:53Z</time>
      </trkpt>
      <trkpt lat="41.14559699781239" lon="-7.744018966332078">
        <ele>90.5</ele>
        <time>2025-05-03T10:25:54Z</time>
      </trkpt>
      <trkpt lat="41.145957000553608" lon="-7.744918009266257">
        <ele>84.730000000000004</ele>
        <time>2025-05-03T10:26:00Z</time>
      </trkpt>
      <trkpt lat="41.146553037688136" lon="-7.74623597972095">
        <ele>83.769999999999996</ele>
        <time>2025-05-03T10:26:08Z</time>
      </trkpt>
      <trkpt lat="41.146637024357915" lon="-7.746365983039141">
        <ele>83.769999999999996</ele>
        <time>2025-05-03T10:26:09Z</time>
      </trkpt>
      <trkpt lat="41.147373039275408" lon="-7.747791996225715">
        <ele>78.969999999999999</ele>
        <time>2025-05-03T10:26:18Z</time>
      </trkpt>
      <trkpt lat="41.14787201397121" lon="-7.749076019972563">
        <ele>75.120000000000005</ele>
        <time>2025-05-03T10:26:25Z</time>
      </trkpt>
      <trkpt lat="41.147919958457351" lon="-7.749240975826979">
        <ele>74.640000000000001</ele>
        <time>2025-05-03T10:26:26Z</time>
      </trkpt>
      <trkpt lat="41.147968992590904" lon="-7.749410038813949">
        <ele>74.640000000000001</ele>
        <time>2025-05-03T10:26:27Z</time>
      </trkpt>
      <trkpt lat="41.148352967575192" lon="-7.75096002034843">
        <ele>73.200000000000003</ele>
        <time>2025-05-03T10:26:36Z</time>
      </trkpt>
      <trkpt lat="41.148390015587211" lon="-7.751148026436567">
        <ele>72.719999999999999</ele>
        <time>2025-05-03T10:26:37Z</time>
      </trkpt>
      <trkpt lat="41.148445000872016" lon="-7.751317005604506">
        <ele>72.239999999999995</ele>
        <time>2025-05-03T10:26:38Z</time>
      </trkpt>
      <trkpt lat="41.148555977270007" lon="-7.751650018617511">
        <ele>73.200000000000003</ele>
        <time>2025-05-03T10:26:40Z</time>
      </trkpt>
      <trkpt lat="41.148609034717083" lon="-7.751809023320675">
        <ele>74.640000000000001</ele>
        <time>2025-05-03T10:26:41Z</time>
      </trkpt>
      <trkpt lat="41.148664020001888" lon="-7.75197196751833">
        <ele>76.079999999999998</ele>
        <time>2025-05-03T10:26:42Z</time>
      </trkpt>
      <trkpt lat="41.148715987801552" lon="-7.752132983878255">
        <ele>77.519999999999996</ele>
        <time>2025-05-03T10:26:43Z</time>
      </trkpt>
      <trkpt lat="41.148754041641951" lon="-7.752296011894941">
        <ele>78.480000000000004</ele>
        <time>2025-05-03T10:26:44Z</time>
      </trkpt>
      <trkpt lat="41.148793017491698" lon="-7.752463985234499">
        <ele>78.969999999999999</ele>
        <time>2025-05-03T10:26:45Z</time>
      </trkpt>
      <trkpt lat="41.148834004998207" lon="-7.752641011029482">
        <ele>79.930000000000007</ele>
        <time>2025-05-03T10:26:46Z</time>
      </trkpt>
      <trkpt lat="41.148877004161477" lon="-7.752821976318955">
        <ele>80.409999999999997</ele>
        <time>2025-05-03T10:26:47Z</time>
      </trkpt>
      <trkpt lat="41.148918997496367" lon="-7.753003025427461">
        <ele>80.890000000000001</ele>
        <time>2025-05-03T10:26:48Z</time>
      </trkpt>
      <trkpt lat="41.148961996659636" lon="-7.753189019858837">
        <ele>81.849999999999994</ele>
        <time>2025-05-03T10:26:49Z</time>
      </trkpt>
      <trkpt lat="41.149402968585491" lon="-7.754832040518522">
        <ele>81.370000000000005</ele>
        <time>2025-05-03T10:26:57Z</time>
      </trkpt>
      <trkpt lat="41.149649983271956" lon="-7.75586100295186">
        <ele>77.040000000000006</ele>
        <time>2025-05-03T10:27:02Z</time>
      </trkpt>
      <trkpt lat="41.149760959669948" lon="-7.756500039249659">
        <ele>75.120000000000005</ele>
        <time>2025-05-03T10:27:05Z</time>
      </trkpt>
      <trkpt lat="41.150179971009493" lon="-7.758081033825874">
        <ele>75.599999999999994</ele>
        <time>2025-05-03T10:27:14Z</time>
      </trkpt>
      <trkpt lat="41.150254989042878" lon="-7.758456040173769">
        <ele>75.599999999999994</ele>
        <time>2025-05-03T10:27:17Z</time>
      </trkpt>
      <trkpt lat="41.150404019281268" lon="-7.759203035384417">
        <ele>72.239999999999995</ele>
        <time>2025-05-03T10:27:26Z</time>
      </trkpt>
      <trkpt lat="41.150706019252539" lon="-7.760213976725936">
        <ele>68.870000000000005</ele>
        <time>2025-05-03T10:27:34Z</time>
      </trkpt>
      <trkpt lat="41.150742983445525" lon="-7.760377004742622">
        <ele>68.870000000000005</ele>
        <time>2025-05-03T10:27:35Z</time>
      </trkpt>
      <trkpt lat="41.150949010625482" lon="-7.761966967955232">
        <ele>67.909999999999997</ele>
        <time>2025-05-03T10:27:44Z</time>
      </trkpt>
      <trkpt lat="41.15096996538341" lon="-7.762141982093453">
        <ele>67.909999999999997</ele>
        <time>2025-05-03T10:27:45Z</time>
      </trkpt>
      <trkpt lat="41.151152020320296" lon="-7.763429023325443">
        <ele>68.390000000000001</ele>
        <time>2025-05-03T10:27:53Z</time>
      </trkpt>
      <trkpt lat="41.151372967287898" lon="-7.764972969889641">
        <ele>67.430000000000007</ele>
        <time>2025-05-03T10:28:02Z</time>
      </trkpt>
      <trkpt lat="41.151382019743323" lon="-7.765137003734708">
        <ele>67.909999999999997</ele>
        <time>2025-05-03T10:28:03Z</time>
      </trkpt>
      <trkpt lat="41.151416972279549" lon="-7.766788993030787">
        <ele>68.390000000000001</ele>
        <time>2025-05-03T10:28:13Z</time>
      </trkpt>
      <trkpt lat="41.151416972279549" lon="-7.767117982730269">
        <ele>68.390000000000001</ele>
        <time>2025-05-03T10:28:15Z</time>
      </trkpt>
      <trkpt lat="41.151416972279549" lon="-7.767283022403717">
        <ele>68.390000000000001</ele>
        <time>2025-05-03T10:28:16Z</time>
      </trkpt>
      <trkpt lat="41.151435999199748" lon="-7.768259011209011">
        <ele>69.349999999999994</ele>
        <time>2025-05-03T10:28:22Z</time>
      </trkpt>
      <trkpt lat="41.151456031948328" lon="-7.768419021740556">
        <ele>69.349999999999994</ele>
        <time>2025-05-03T10:28:23Z</time>
      </trkpt>
      <trkpt lat="41.151475980877876" lon="-7.7685790322721">
        <ele>69.349999999999994</ele>
        <time>2025-05-03T10:28:24Z</time>
      </trkpt>
      <trkpt lat="41.15154798142612" lon="-7.769221002236009">
        <ele>68.870000000000005</ele>
        <time>2025-05-03T10:28:28Z</time>
      </trkpt>
      <trkpt lat="41.151554016396403" lon="-7.769381012767553">
        <ele>68.870000000000005</ele>
        <time>2025-05-03T10:28:29Z</time>
      </trkpt>
      <trkpt lat="41.151639008894563" lon="-7.771829031407833">
        <ele>70.310000000000002</ele>
        <time>2025-05-03T10:28:44Z</time>
      </trkpt>
      <trkpt lat="41.151674967259169" lon="-7.772803008556366">
        <ele>70.310000000000002</ele>
        <time>2025-05-03T10:28:50Z</time>
      </trkpt>
      <trkpt lat="41.151653006672859" lon="-7.772964024916291">
        <ele>70.310000000000002</ele>
        <time>2025-05-03T10:28:51Z</time>
      </trkpt>
      <trkpt lat="41.151356035843492" lon="-7.775045000016689">
        <ele>67.430000000000007</ele>
        <time>2025-05-03T10:29:04Z</time>
      </trkpt>
      <trkpt lat="41.151361986994743" lon="-7.775208028033376">
        <ele>66.950000000000003</ele>
        <time>2025-05-03T10:29:05Z</time>
      </trkpt>
      <trkpt lat="41.151368021965027" lon="-7.775366026908159">
        <ele>66.469999999999999</ele>
        <time>2025-05-03T10:29:06Z</time>
      </trkpt>
      <trkpt lat="41.151374978944659" lon="-7.775534000247717">
        <ele>65.989999999999995</ele>
        <time>2025-05-03T10:29:07Z</time>
      </trkpt>
      <trkpt lat="41.151414960622787" lon="-7.775685964152217">
        <ele>65.510000000000005</ele>
        <time>2025-05-03T10:29:08Z</time>
      </trkpt>
      <trkpt lat="41.151455026119947" lon="-7.775837006047368">
        <ele>65.030000000000001</ele>
        <time>2025-05-03T10:29:09Z</time>
      </trkpt>
      <trkpt lat="41.151773035526276" lon="-7.77704400010407">
        <ele>64.069999999999993</ele>
        <time>2025-05-03T10:29:17Z</time>
      </trkpt>
      <trkpt lat="41.15180597640574" lon="-7.777204010635614">
        <ele>64.069999999999993</ele>
        <time>2025-05-03T10:29:18Z</time>
      </trkpt>
      <trkpt lat="41.152267986908555" lon="-7.778874021023512">
        <ele>64.549999999999997</ele>
        <time>2025-05-03T10:29:28Z</time>
      </trkpt>
      <trkpt lat="41.152951028198004" lon="-7.780874026939273">
        <ele>64.549999999999997</ele>
        <time>2025-05-03T10:29:39Z</time>
      </trkpt>
      <trkpt lat="41.153013976290822" lon="-7.781051974743605">
        <ele>64.069999999999993</ele>
        <time>2025-05-03T10:29:40Z</time>
      </trkpt>
      <trkpt lat="41.153227966278791" lon="-7.781624039635062">
        <ele>65.510000000000005</ele>
        <time>2025-05-03T10:29:44Z</time>
      </trkpt>
      <trkpt lat="41.153347995132208" lon="-7.781988987699151">
        <ele>67.909999999999997</ele>
        <time>2025-05-03T10:29:48Z</time>
      </trkpt>
      <trkpt lat="41.153347995132208" lon="-7.782044978812337">
        <ele>68.870000000000005</ele>
        <time>2025-05-03T10:29:49Z</time>
      </trkpt>
      <trkpt lat="41.153347995132208" lon="-7.782074986025691">
        <ele>69.349999999999994</ele>
        <time>2025-05-03T10:29:50Z</time>
      </trkpt>
      <trkpt lat="41.153298038989305" lon="-7.78213600628078">
        <ele>69.829999999999998</ele>
        <time>2025-05-03T10:29:51Z</time>
      </trkpt>
      <trkpt lat="41.153240958228707" lon="-7.782203983515501">
        <ele>70.310000000000002</ele>
        <time>2025-05-03T10:29:52Z</time>
      </trkpt>
      <trkpt lat="41.153195025399327" lon="-7.782225022092462">
        <ele>70.790000000000006</ele>
        <time>2025-05-03T10:29:53Z</time>
      </trkpt>
      <trkpt lat="41.153125958517194" lon="-7.782257040962577">
        <ele>71.269999999999996</ele>
        <time>2025-05-03T10:29:54Z</time>
      </trkpt>
      <trkpt lat="41.153052030131221" lon="-7.782290987670422">
        <ele>71.269999999999996</ele>
        <time>2025-05-03T10:29:55Z</time>
      </trkpt>
      <trkpt lat="41.152661014348269" lon="-7.782526016235352">
        <ele>72.719999999999999</ele>
        <time>2025-05-03T10:30:00Z</time>
      </trkpt>
      <trkpt lat="41.15262103267014" lon="-7.782606985419989">
        <ele>73.200000000000003</ele>
        <time>2025-05-03T10:30:01Z</time>
      </trkpt>
      <trkpt lat="41.152574010193348" lon="-7.782723996788263">
        <ele>73.200000000000003</ele>
        <time>2025-05-03T10:30:02Z</time>
      </trkpt>
      <trkpt lat="41.152524976059794" lon="-7.782846037298441">
        <ele>73.200000000000003</ele>
        <time>2025-05-03T10:30:03Z</time>
      </trkpt>
      <trkpt lat="41.152474014088511" lon="-7.78297402895987">
        <ele>73.680000000000007</ele>
        <time>2025-05-03T10:30:04Z</time>
      </trkpt>
      <trkpt lat="41.152421040460467" lon="-7.78310596011579">
        <ele>73.680000000000007</ele>
        <time>2025-05-03T10:30:05Z</time>
      </trkpt>
      <trkpt lat="41.151859033852816" lon="-7.784109022468329">
        <ele>72.719999999999999</ele>
        <time>2025-05-03T10:30:14Z</time>
      </trkpt>
      <trkpt lat="41.15180597640574" lon="-7.784252017736435">
        <ele>72.719999999999999</ele>
        <time>2025-05-03T10:30:15Z</time>
      </trkpt>
      <trkpt lat="41.151812011376023" lon="-7.784356959164143">
        <ele>72.719999999999999</ele>
        <time>2025-05-03T10:30:16Z</time>
      </trkpt>
      <trkpt lat="41.151817962527275" lon="-7.784460978582501">
        <ele>72.719999999999999</ele>
        <time>2025-05-03T10:30:17Z</time>
      </trkpt>
      <trkpt lat="41.15189298056066" lon="-7.784611014649272">
        <ele>72.719999999999999</ele>
        <time>2025-05-03T10:30:18Z</time>
      </trkpt>
      <trkpt lat="41.151952994987369" lon="-7.78464999049902">
        <ele>72.719999999999999</ele>
        <time>2025-05-03T10:30:19Z</time>
      </trkpt>
      <trkpt lat="41.152070006355643" lon="-7.784661976620555">
        <ele>72.719999999999999</ele>
        <time>2025-05-03T10:30:20Z</time>
      </trkpt>
      <trkpt lat="41.152172014117241" lon="-7.784673040732741">
        <ele>72.719999999999999</ele>
        <time>2025-05-03T10:30:21Z</time>
      </trkpt>
      <trkpt lat="41.152283996343613" lon="-7.784684021025896">
        <ele>73.200000000000003</ele>
        <time>2025-05-03T10:30:22Z</time>
      </trkpt>
      <trkpt lat="41.152400001883507" lon="-7.784696007147431">
        <ele>73.200000000000003</ele>
        <time>2025-05-03T10:30:23Z</time>
      </trkpt>
      <trkpt lat="41.153254033997655" lon="-7.78482299298048">
        <ele>72.719999999999999</ele>
        <time>2025-05-03T10:30:31Z</time>
      </trkpt>
      <trkpt lat="41.153345983475447" lon="-7.78486599214375">
        <ele>72.719999999999999</ele>
        <time>2025-05-03T10:30:32Z</time>
      </trkpt>
      <trkpt lat="41.153427036479115" lon="-7.784925000742078">
        <ele>72.719999999999999</ele>
        <time>2025-05-03T10:30:33Z</time>
      </trkpt>
      <trkpt lat="41.153510017320514" lon="-7.785013010725379">
        <ele>72.719999999999999</ele>
        <time>2025-05-03T10:30:34Z</time>
      </trkpt>
      <trkpt lat="41.153597021475434" lon="-7.785104960203171">
        <ele>72.239999999999995</ele>
        <time>2025-05-03T10:30:35Z</time>
      </trkpt>
      <trkpt lat="41.153686037287116" lon="-7.785199005156755">
        <ele>72.239999999999995</ele>
        <time>2025-05-03T10:30:36Z</time>
      </trkpt>
      <trkpt lat="41.154324989765882" lon="-7.786111040040851">
        <ele>70.790000000000006</ele>
        <time>2025-05-03T10:30:45Z</time>
      </trkpt>
      <trkpt lat="41.154676023870707" lon="-7.786646978929639">
        <ele>71.269999999999996</ele>
        <time>2025-05-03T10:30:50Z</time>
      </trkpt>
      <trkpt lat="41.155414972454309" lon="-7.788263009861112">
        <ele>72.239999999999995</ele>
        <time>2025-05-03T10:31:02Z</time>
      </trkpt>
      <trkpt lat="41.155528966337442" lon="-7.788570038974285">
        <ele>72.239999999999995</ele>
        <time>2025-05-03T10:31:04Z</time>
      </trkpt>
      <trkpt lat="41.155581017956138" lon="-7.788728959858418">
        <ele>72.719999999999999</ele>
        <time>2025-05-03T10:31:05Z</time>
      </trkpt>
      <trkpt lat="41.155594009906054" lon="-7.788918977603316">
        <ele>72.719999999999999</ele>
        <time>2025-05-03T10:31:06Z</time>
      </trkpt>
      <trkpt lat="41.155589986592531" lon="-7.789111007004976">
        <ele>73.200000000000003</ele>
        <time>2025-05-03T10:31:07Z</time>
      </trkpt>
      <trkpt lat="41.155564002692699" lon="-7.789302030578256">
        <ele>73.680000000000007</ele>
        <time>2025-05-03T10:31:08Z</time>
      </trkpt>
      <trkpt lat="41.155496025457978" lon="-7.789475033059716">
        <ele>74.159999999999997</ele>
        <time>2025-05-03T10:31:09Z</time>
      </trkpt>
      <trkpt lat="41.155402986332774" lon="-7.789620039984584">
        <ele>74.640000000000001</ele>
        <time>2025-05-03T10:31:10Z</time>
      </trkpt>
      <trkpt lat="41.155293015763164" lon="-7.789749037474394">
        <ele>75.599999999999994</ele>
        <time>2025-05-03T10:31:11Z</time>
      </trkpt>
      <trkpt lat="41.155182961374521" lon="-7.78987199999392">
        <ele>76.079999999999998</ele>
        <time>2025-05-03T10:31:12Z</time>
      </trkpt>
      <trkpt lat="41.155062010511756" lon="-7.78995799832046">
        <ele>76.560000000000002</ele>
        <time>2025-05-03T10:31:13Z</time>
      </trkpt>
      <trkpt lat="41.154639981687069" lon="-7.790256980806589">
        <ele>78.969999999999999</ele>
        <time>2025-05-03T10:31:17Z</time>
      </trkpt>
      <trkpt lat="41.154545014724135" lon="-7.790325041860342">
        <ele>79.930000000000007</ele>
        <time>2025-05-03T10:31:18Z</time>
      </trkpt>
      <trkpt lat="41.154435966163874" lon="-7.790412968024612">
        <ele>80.409999999999997</ele>
        <time>2025-05-03T10:31:19Z</time>
      </trkpt>
      <trkpt lat="41.154310991987586" lon="-7.790517993271351">
        <ele>80.890000000000001</ele>
        <time>2025-05-03T10:31:20Z</time>
      </trkpt>
      <trkpt lat="41.154177971184254" lon="-7.790628969669342">
        <ele>81.370000000000005</ele>
        <time>2025-05-03T10:31:21Z</time>
      </trkpt>
      <trkpt lat="41.154051991179585" lon="-7.790793003514409">
        <ele>82.329999999999998</ele>
        <time>2025-05-03T10:31:22Z</time>
      </trkpt>
      <trkpt lat="41.153931962326169" lon="-7.790973968803883">
        <ele>83.290000000000006</ele>
        <time>2025-05-03T10:31:23Z</time>
      </trkpt>
      <trkpt lat="41.153841018676758" lon="-7.791192987933755">
        <ele>84.730000000000004</ele>
        <time>2025-05-03T10:31:24Z</time>
      </trkpt>
      <trkpt lat="41.153756026178598" lon="-7.791403960436583">
        <ele>85.689999999999998</ele>
        <time>2025-05-03T10:31:25Z</time>
      </trkpt>
      <trkpt lat="41.15302998572588" lon="-7.79341796413064">
        <ele>95.790000000000006</ele>
        <time>2025-05-03T10:31:34Z</time>
      </trkpt>
      <trkpt lat="41.152431014925241" lon="-7.795152012258768">
        <ele>99.150000000000006</ele>
        <time>2025-05-03T10:31:42Z</time>
      </trkpt>
      <trkpt lat="41.152201015502214" lon="-7.795775961130858">
        <ele>97.230000000000004</ele>
        <time>2025-05-03T10:31:45Z</time>
      </trkpt>
      <trkpt lat="41.15208400413394" lon="-7.795947035774589">
        <ele>96.75</ele>
        <time>2025-05-03T10:31:46Z</time>
      </trkpt>
      <trkpt lat="41.151701034978032" lon="-7.796408962458372">
        <ele>93.870000000000005</ele>
        <time>2025-05-03T10:31:49Z</time>
      </trkpt>
      <trkpt lat="41.151558961719275" lon="-7.796523040160537">
        <ele>92.900000000000006</ele>
        <time>2025-05-03T10:31:50Z</time>
      </trkpt>
      <trkpt lat="41.150506027042866" lon="-7.797448989003897">
        <ele>86.180000000000007</ele>
        <time>2025-05-03T10:31:58Z</time>
      </trkpt>
      <trkpt lat="41.149744028225541" lon="-7.798661012202501">
        <ele>80.890000000000001</ele>
        <time>2025-05-03T10:32:05Z</time>
      </trkpt>
      <trkpt lat="41.148714981973171" lon="-7.800794960930944">
        <ele>71.760000000000005</ele>
        <time>2025-05-03T10:32:16Z</time>
      </trkpt>
      <trkpt lat="41.148028001189232" lon="-7.802098011597991">
        <ele>66.950000000000003</ele>
        <time>2025-05-03T10:32:24Z</time>
      </trkpt>
      <trkpt lat="41.147060981020331" lon="-7.803268041461706">
        <ele>68.390000000000001</ele>
        <time>2025-05-03T10:32:33Z</time>
      </trkpt>
      <trkpt lat="41.146083986386657" lon="-7.804700005799532">
        <ele>77.040000000000006</ele>
        <time>2025-05-03T10:32:43Z</time>
      </trkpt>
      <trkpt lat="41.145129036158323" lon="-7.806173041462898">
        <ele>88.099999999999994</ele>
        <time>2025-05-03T10:32:53Z</time>
      </trkpt>
      <trkpt lat="41.143979961052537" lon="-7.807091027498245">
        <ele>96.75</ele>
        <time>2025-05-03T10:33:01Z</time>
      </trkpt>
      <trkpt lat="41.143601015210152" lon="-7.807418005540967">
        <ele>99.629999999999995</ele>
        <time>2025-05-03T10:33:04Z</time>
      </trkpt>
      <trkpt lat="41.143508981913328" lon="-7.807568041607738">
        <ele>100.59999999999999</ele>
        <time>2025-05-03T10:33:05Z</time>
      </trkpt>
      <trkpt lat="41.143413009122014" lon="-7.807726040482521">
        <ele>101.56</ele>
        <time>2025-05-03T10:33:06Z</time>
      </trkpt>
      <trkpt lat="41.14336003549397" lon="-7.807935001328588">
        <ele>102.52</ele>
        <time>2025-05-03T10:33:07Z</time>
      </trkpt>
      <trkpt lat="41.143321981653571" lon="-7.808143962174654">
        <ele>103.48</ele>
        <time>2025-05-03T10:33:08Z</time>
      </trkpt>
      <trkpt lat="41.143283005803823" lon="-7.808357030153275">
        <ele>104.44</ele>
        <time>2025-05-03T10:33:09Z</time>
      </trkpt>
      <trkpt lat="41.143157025799155" lon="-7.808989025652409">
        <ele>107.31999999999999</ele>
        <time>2025-05-03T10:33:12Z</time>
      </trkpt>
      <trkpt lat="41.143078990280628" lon="-7.809174014255405">
        <ele>108.29000000000001</ele>
        <time>2025-05-03T10:33:13Z</time>
      </trkpt>
      <trkpt lat="41.142995003610849" lon="-7.80935799703002">
        <ele>109.25</ele>
        <time>2025-05-03T10:33:14Z</time>
      </trkpt>
      <trkpt lat="41.142857959493995" lon="-7.809495041146874">
        <ele>110.20999999999999</ele>
        <time>2025-05-03T10:33:15Z</time>
      </trkpt>
      <trkpt lat="41.142716975882649" lon="-7.80963602475822">
        <ele>111.65000000000001</ele>
        <time>2025-05-03T10:33:16Z</time>
      </trkpt>
      <trkpt lat="41.142570041120052" lon="-7.809767033904791">
        <ele>112.61</ele>
        <time>2025-05-03T10:33:17Z</time>
      </trkpt>
      <trkpt lat="41.141975009813905" lon="-7.810286963358522">
        <ele>117.90000000000001</ele>
        <time>2025-05-03T10:33:21Z</time>
      </trkpt>
      <trkpt lat="41.141855986788869" lon="-7.810466000810266">
        <ele>118.86</ele>
        <time>2025-05-03T10:33:22Z</time>
      </trkpt>
      <trkpt lat="41.141758002340794" lon="-7.810662975534797">
        <ele>120.3</ele>
        <time>2025-05-03T10:33:23Z</time>
      </trkpt>
      <trkpt lat="41.141683990135789" lon="-7.810875959694386">
        <ele>121.26000000000001</ele>
        <time>2025-05-03T10:33:24Z</time>
      </trkpt>
      <trkpt lat="41.141626993194222" lon="-7.811101013794541">
        <ele>122.70999999999999</ele>
        <time>2025-05-03T10:33:25Z</time>
      </trkpt>
      <trkpt lat="41.141569996252656" lon="-7.811324978247285">
        <ele>123.67</ele>
        <time>2025-05-03T10:33:26Z</time>
      </trkpt>
      <trkpt lat="41.141236983239651" lon="-7.812333991751075">
        <ele>128.47</ele>
        <time>2025-05-03T10:33:31Z</time>
      </trkpt>
      <trkpt lat="41.140545979142189" lon="-7.813860001042485">
        <ele>134.72</ele>
        <time>2025-05-03T10:33:39Z</time>
      </trkpt>
      <trkpt lat="41.139820022508502" lon="-7.816149014979601">
        <ele>142.41</ele>
        <time>2025-05-03T10:33:49Z</time>
      </trkpt>
      <trkpt lat="41.139673003926873" lon="-7.816784027963877">
        <ele>144.81999999999999</ele>
        <time>2025-05-03T10:33:52Z</time>
      </trkpt>
      <trkpt lat="41.13966504111886" lon="-7.817000029608607">
        <ele>145.78</ele>
        <time>2025-05-03T10:33:53Z</time>
      </trkpt>
      <trkpt lat="41.139682978391647" lon="-7.817216031253338">
        <ele>146.74000000000001</ele>
        <time>2025-05-03T10:33:54Z</time>
      </trkpt>
      <trkpt lat="41.139714997261763" lon="-7.817444019019604">
        <ele>147.22</ele>
        <time>2025-05-03T10:33:55Z</time>
      </trkpt>
      <trkpt lat="41.139809964224696" lon="-7.817634036764503">
        <ele>148.18000000000001</ele>
        <time>2025-05-03T10:33:56Z</time>
      </trkpt>
      <trkpt lat="41.139927981421351" lon="-7.817808967083693">
        <ele>149.13999999999999</ele>
        <time>2025-05-03T10:33:57Z</time>
      </trkpt>
      <trkpt lat="41.140069970861077" lon="-7.817943999543786">
        <ele>149.62</ele>
        <time>2025-05-03T10:33:58Z</time>
      </trkpt>
      <trkpt lat="41.140235010534525" lon="-7.818026980385184">
        <ele>150.58000000000001</ele>
        <time>2025-05-03T10:33:59Z</time>
      </trkpt>
      <trkpt lat="41.140401978045702" lon="-7.818075008690357">
        <ele>151.06</ele>
        <time>2025-05-03T10:34:00Z</time>
      </trkpt>
      <trkpt lat="41.140572968870401" lon="-7.818055981770158">
        <ele>152.03</ele>
        <time>2025-05-03T10:34:01Z</time>
      </trkpt>
      <trkpt lat="41.140744965523481" lon="-7.818026980385184">
        <ele>152.50999999999999</ele>
        <time>2025-05-03T10:34:02Z</time>
      </trkpt>
      <trkpt lat="41.140899024903774" lon="-7.817903012037277">
        <ele>153.47</ele>
        <time>2025-05-03T10:34:03Z</time>
      </trkpt>
      <trkpt lat="41.141061969101429" lon="-7.817770997062326">
        <ele>153.94999999999999</ele>
        <time>2025-05-03T10:34:04Z</time>
      </trkpt>
      <trkpt lat="41.141224997118115" lon="-7.817632025107741">
        <ele>154.91</ele>
        <time>2025-05-03T10:34:05Z</time>
      </trkpt>
      <trkpt lat="41.142310034483671" lon="-7.816583029925823">
        <ele>160.19999999999999</ele>
        <time>2025-05-03T10:34:13Z</time>
      </trkpt>
      <trkpt lat="41.142439031973481" lon="-7.81649200245738">
        <ele>160.68000000000001</ele>
        <time>2025-05-03T10:34:14Z</time>
      </trkpt>
      <trkpt lat="41.142583033069968" lon="-7.816431988030672">
        <ele>161.16</ele>
        <time>2025-05-03T10:34:15Z</time>
      </trkpt>
      <trkpt lat="41.142725022509694" lon="-7.816421007737517">
        <ele>162.12</ele>
        <time>2025-05-03T10:34:16Z</time>
      </trkpt>
      <trkpt lat="41.142874974757433" lon="-7.816444979980588">
        <ele>162.59999999999999</ele>
        <time>2025-05-03T10:34:17Z</time>
      </trkpt>
      <trkpt lat="41.143047977238894" lon="-7.8164719697088">
        <ele>163.08000000000001</ele>
        <time>2025-05-03T10:34:18Z</time>
      </trkpt>
      <trkpt lat="41.143154008314013" lon="-7.816551011055708">
        <ele>163.56</ele>
        <time>2025-05-03T10:34:19Z</time>
      </trkpt>
      <trkpt lat="41.143262973055243" lon="-7.816671961918473">
        <ele>164.03999999999999</ele>
        <time>2025-05-03T10:34:20Z</time>
      </trkpt>
      <trkpt lat="41.143359029665589" lon="-7.816827027127147">
        <ele>164.52000000000001</ele>
        <time>2025-05-03T10:34:21Z</time>
      </trkpt>
      <trkpt lat="41.143420971930027" lon="-7.817002963274717">
        <ele>165</ele>
        <time>2025-05-03T10:34:22Z</time>
      </trkpt>
      <trkpt lat="41.143466988578439" lon="-7.81720002181828">
        <ele>165.47999999999999</ele>
        <time>2025-05-03T10:34:23Z</time>
      </trkpt>
      <trkpt lat="41.143485009670258" lon="-7.817404959350824">
        <ele>165.96000000000001</ele>
        <time>2025-05-03T10:34:24Z</time>
      </trkpt>
      <trkpt lat="41.143495989963412" lon="-7.817619033157826">
        <ele>166.44999999999999</ele>
        <time>2025-05-03T10:34:25Z</time>
      </trkpt>
      <trkpt lat="41.143504958599806" lon="-7.817837968468666">
        <ele>167.41</ele>
        <time>2025-05-03T10:34:26Z</time>
      </trkpt>
      <trkpt lat="41.14351199939847" lon="-7.81806000508368">
        <ele>168.37</ele>
        <time>2025-05-03T10:34:27Z</time>
      </trkpt>
      <trkpt lat="41.143672009930015" lon="-7.819947022944689">
        <ele>174.62</ele>
        <time>2025-05-03T10:34:35Z</time>
      </trkpt>
      <trkpt lat="41.143737975507975" lon="-7.820165958255529">
        <ele>175.09999999999999</ele>
        <time>2025-05-03T10:34:36Z</time>
      </trkpt>
      <trkpt lat="41.144271986559033" lon="-7.822222961112857">
        <ele>183.27000000000001</ele>
        <time>2025-05-03T10:34:45Z</time>
      </trkpt>
      <trkpt lat="41.144493017345667" lon="-7.823657020926476">
        <ele>189.03999999999999</ele>
        <time>2025-05-03T10:34:51Z</time>
      </trkpt>
      <trkpt lat="41.144555965438485" lon="-7.82388299703598">
        <ele>190</ele>
        <time>2025-05-03T10:34:52Z</time>
      </trkpt>
      <trkpt lat="41.144655961543322" lon="-7.824087012559176">
        <ele>190.47999999999999</ele>
        <time>2025-05-03T10:34:53Z</time>
      </trkpt>
      <trkpt lat="41.144766015931964" lon="-7.824279963970184">
        <ele>190.96000000000001</ele>
        <time>2025-05-03T10:34:54Z</time>
      </trkpt>
      <trkpt lat="41.144894007593393" lon="-7.824450032785535">
        <ele>191.44</ele>
        <time>2025-05-03T10:34:55Z</time>
      </trkpt>
      <trkpt lat="41.145042032003403" lon="-7.824587998911738">
        <ele>192.40000000000001</ele>
        <time>2025-05-03T10:34:56Z</time>
      </trkpt>
      <trkpt lat="41.145192990079522" lon="-7.824727976694703">
        <ele>192.88</ele>
        <time>2025-05-03T10:34:57Z</time>
      </trkpt>
      <trkpt lat="41.145476968958974" lon="-7.825011033564806">
        <ele>194.80000000000001</ele>
        <time>2025-05-03T10:34:59Z</time>
      </trkpt>
      <trkpt lat="41.145604038611054" lon="-7.825180012732744">
        <ele>195.77000000000001</ele>
        <time>2025-05-03T10:35:00Z</time>
      </trkpt>
      <trkpt lat="41.145722977817059" lon="-7.825361983850598">
        <ele>197.21000000000001</ele>
        <time>2025-05-03T10:35:01Z</time>
      </trkpt>
      <trkpt lat="41.145826997235417" lon="-7.825569016858935">
        <ele>198.16999999999999</ele>
        <time>2025-05-03T10:35:02Z</time>
      </trkpt>
      <trkpt lat="41.145902015268803" lon="-7.825789041817188">
        <ele>199.13</ele>
        <time>2025-05-03T10:35:03Z</time>
      </trkpt>
      <trkpt lat="41.145947026088834" lon="-7.826028009876609">
        <ele>200.09</ele>
        <time>2025-05-03T10:35:04Z</time>
      </trkpt>
      <trkpt lat="41.14596102386713" lon="-7.826262032613158">
        <ele>201.05000000000001</ele>
        <time>2025-05-03T10:35:05Z</time>
      </trkpt>
      <trkpt lat="41.145951971411705" lon="-7.826501000672579">
        <ele>202.00999999999999</ele>
        <time>2025-05-03T10:35:06Z</time>
      </trkpt>
      <trkpt lat="41.145935961976647" lon="-7.826734017580748">
        <ele>202.97999999999999</ele>
        <time>2025-05-03T10:35:07Z</time>
      </trkpt>
      <trkpt lat="41.145890029147267" lon="-7.826970973983407">
        <ele>203.94</ele>
        <time>2025-05-03T10:35:08Z</time>
      </trkpt>
      <trkpt lat="41.145605966448784" lon="-7.828300008550286">
        <ele>210.66999999999999</ele>
        <time>2025-05-03T10:35:14Z</time>
      </trkpt>
      <trkpt lat="41.145515022799373" lon="-7.828470999374986">
        <ele>211.63</ele>
        <time>2025-05-03T10:35:15Z</time>
      </trkpt>
      <trkpt lat="41.145414020866156" lon="-7.828650958836079">
        <ele>212.59</ele>
        <time>2025-05-03T10:35:16Z</time>
      </trkpt>
      <trkpt lat="41.145283011719584" lon="-7.828775011003017">
        <ele>213.06999999999999</ele>
        <time>2025-05-03T10:35:17Z</time>
      </trkpt>
      <trkpt lat="41.145150996744633" lon="-7.828895961865783">
        <ele>213.55000000000001</ele>
        <time>2025-05-03T10:35:18Z</time>
      </trkpt>
      <trkpt lat="41.14497497677803" lon="-7.828969974070787">
        <ele>214.03</ele>
        <time>2025-05-03T10:35:19Z</time>
      </trkpt>
      <trkpt lat="41.144797028973699" lon="-7.829043986275792">
        <ele>214.03</ele>
        <time>2025-05-03T10:35:20Z</time>
      </trkpt>
      <trkpt lat="41.144614974036813" lon="-7.829120010137558">
        <ele>214.50999999999999</ele>
        <time>2025-05-03T10:35:21Z</time>
      </trkpt>
      <trkpt lat="41.143946014344692" lon="-7.829407006502152">
        <ele>215.47</ele>
        <time>2025-05-03T10:35:25Z</time>
      </trkpt>
      <trkpt lat="41.143821040168405" lon="-7.829497028142214">
        <ele>215.94999999999999</ele>
        <time>2025-05-03T10:35:26Z</time>
      </trkpt>
      <trkpt lat="41.143711991608143" lon="-7.829632982611656">
        <ele>216.43000000000001</ele>
        <time>2025-05-03T10:35:27Z</time>
      </trkpt>
      <trkpt lat="41.143636973574758" lon="-7.829759968444705">
        <ele>216.43000000000001</ele>
        <time>2025-05-03T10:35:28Z</time>
      </trkpt>
      <trkpt lat="41.14359799772501" lon="-7.829915033653379">
        <ele>216.91</ele>
        <time>2025-05-03T10:35:29Z</time>
      </trkpt>
      <trkpt lat="41.143594980239868" lon="-7.83006900921464">
        <ele>217.40000000000001</ele>
        <time>2025-05-03T10:35:30Z</time>
      </trkpt>
      <trkpt lat="41.143605960533023" lon="-7.830184008926153">
        <ele>217.88</ele>
        <time>2025-05-03T10:35:31Z</time>
      </trkpt>
      <trkpt lat="41.143678966909647" lon="-7.830389030277729">
        <ele>217.88</ele>
        <time>2025-05-03T10:35:32Z</time>
      </trkpt>
      <trkpt lat="41.143739987164736" lon="-7.830558009445667">
        <ele>218.36000000000001</ele>
        <time>2025-05-03T10:35:33Z</time>
      </trkpt>
      <trkpt lat="41.143836965784431" lon="-7.830720031633973">
        <ele>218.36000000000001</ele>
        <time>2025-05-03T10:35:34Z</time>
      </trkpt>
      <trkpt lat="41.143934028223157" lon="-7.830882975831628">
        <ele>218.36000000000001</ele>
        <time>2025-05-03T10:35:35Z</time>
      </trkpt>
      <trkpt lat="41.144112981855869" lon="-7.831184975802898">
        <ele>218.84</ele>
        <time>2025-05-03T10:35:37Z</time>
      </trkpt>
      <trkpt lat="41.144169978797436" lon="-7.83135898411274">
        <ele>218.84</ele>
        <time>2025-05-03T10:35:38Z</time>
      </trkpt>
      <trkpt lat="41.144185988232493" lon="-7.8315510135144">
        <ele>218.84</ele>
        <time>2025-05-03T10:35:39Z</time>
      </trkpt>
      <trkpt lat="41.144182970747352" lon="-7.831741031259298">
        <ele>219.31999999999999</ele>
        <time>2025-05-03T10:35:40Z</time>
      </trkpt>
      <trkpt lat="41.144119016826153" lon="-7.831915961578488">
        <ele>219.31999999999999</ele>
        <time>2025-05-03T10:35:41Z</time>
      </trkpt>
      <trkpt lat="41.144024971872568" lon="-7.832083012908697">
        <ele>219.80000000000001</ele>
        <time>2025-05-03T10:35:42Z</time>
      </trkpt>
      <trkpt lat="41.143910977989435" lon="-7.832247968763113">
        <ele>220.28</ele>
        <time>2025-05-03T10:35:43Z</time>
      </trkpt>
      <trkpt lat="41.143777035176754" lon="-7.832403033971787">
        <ele>220.75999999999999</ele>
        <time>2025-05-03T10:35:44Z</time>
      </trkpt>
      <trkpt lat="41.142610022798181" lon="-7.833757968619466">
        <ele>225.09</ele>
        <time>2025-05-03T10:35:52Z</time>
      </trkpt>
      <trkpt lat="41.14248001947999" lon="-7.833930971100926">
        <ele>225.56999999999999</ele>
        <time>2025-05-03T10:35:53Z</time>
      </trkpt>
      <trkpt lat="41.142396032810211" lon="-7.834107996895909">
        <ele>226.05000000000001</ele>
        <time>2025-05-03T10:35:54Z</time>
      </trkpt>
      <trkpt lat="41.142338030040264" lon="-7.834304971620441">
        <ele>226.53</ele>
        <time>2025-05-03T10:35:55Z</time>
      </trkpt>
      <trkpt lat="41.142281033098698" lon="-7.834502030164003">
        <ele>227.00999999999999</ele>
        <time>2025-05-03T10:35:56Z</time>
      </trkpt>
      <trkpt lat="41.142276003956795" lon="-7.834693975746632">
        <ele>227.49000000000001</ele>
        <time>2025-05-03T10:35:57Z</time>
      </trkpt>
      <trkpt lat="41.142276003956795" lon="-7.834915006533265">
        <ele>227.97</ele>
        <time>2025-05-03T10:35:58Z</time>
      </trkpt>
      <trkpt lat="41.142312968149781" lon="-7.835122961550951">
        <ele>228.44999999999999</ele>
        <time>2025-05-03T10:35:59Z</time>
      </trkpt>
      <trkpt lat="41.142374994233251" lon="-7.835318008437753">
        <ele>228.93000000000001</ele>
        <time>2025-05-03T10:36:00Z</time>
      </trkpt>
      <trkpt lat="41.142471972852945" lon="-7.835510037839413">
        <ele>229.41</ele>
        <time>2025-05-03T10:36:01Z</time>
      </trkpt>
      <trkpt lat="41.142560988664627" lon="-7.835689997300506">
        <ele>229.88999999999999</ele>
        <time>2025-05-03T10:36:02Z</time>
      </trkpt>
      <trkpt lat="41.142668025568128" lon="-7.835814971476793">
        <ele>230.84999999999999</ele>
        <time>2025-05-03T10:36:03Z</time>
      </trkpt>
      <trkpt lat="41.142816971987486" lon="-7.835927037522197">
        <ele>230.84999999999999</ele>
        <time>2025-05-03T10:36:04Z</time>
      </trkpt>
      <trkpt lat="41.14297597669065" lon="-7.836026027798653">
        <ele>231.33000000000001</ele>
        <time>2025-05-03T10:36:05Z</time>
      </trkpt>
      <trkpt lat="41.143158031627536" lon="-7.836056035012007">
        <ele>231.81</ele>
        <time>2025-05-03T10:36:06Z</time>
      </trkpt>
      <trkpt lat="41.143333967775106" lon="-7.836083024740219">
        <ele>232.30000000000001</ele>
        <time>2025-05-03T10:36:07Z</time>
      </trkpt>
      <trkpt lat="41.143508981913328" lon="-7.836045976728201">
        <ele>232.78</ele>
        <time>2025-05-03T10:36:08Z</time>
      </trkpt>
      <trkpt lat="41.143679972738028" lon="-7.835990991443396">
        <ele>233.25999999999999</ele>
        <time>2025-05-03T10:36:09Z</time>
      </trkpt>
      <trkpt lat="41.143832020461559" lon="-7.835905998945236">
        <ele>233.74000000000001</ele>
        <time>2025-05-03T10:36:10Z</time>
      </trkpt>
      <trkpt lat="41.14424399100244" lon="-7.835675999522209">
        <ele>235.66</ele>
        <time>2025-05-03T10:36:13Z</time>
      </trkpt>
      <trkpt lat="41.144388997927308" lon="-7.835611961781979">
        <ele>236.62</ele>
        <time>2025-05-03T10:36:14Z</time>
      </trkpt>
      <trkpt lat="41.144541967660189" lon="-7.835607016459107">
        <ele>237.58000000000001</ele>
        <time>2025-05-03T10:36:15Z</time>
      </trkpt>
      <trkpt lat="41.14576899446547" lon="-7.835550019517541">
        <ele>243.83000000000001</ele>
        <time>2025-05-03T10:36:23Z</time>
      </trkpt>
      <trkpt lat="41.145914001390338" lon="-7.835478018969297">
        <ele>244.78999999999999</ele>
        <time>2025-05-03T10:36:24Z</time>
      </trkpt>
      <trkpt lat="41.146074011921883" lon="-7.835397971794009">
        <ele>245.75</ele>
        <time>2025-05-03T10:36:25Z</time>
      </trkpt>
      <trkpt lat="41.146183982491493" lon="-7.835261011496186">
        <ele>246.72</ele>
        <time>2025-05-03T10:36:26Z</time>
      </trkpt>
      <trkpt lat="41.146303005516529" lon="-7.835111981257796">
        <ele>248.16</ele>
        <time>2025-05-03T10:36:27Z</time>
      </trkpt>
      <trkpt lat="41.146411970257759" lon="-7.834954988211393">
        <ele>249.59999999999999</ele>
        <time>2025-05-03T10:36:28Z</time>
      </trkpt>
      <trkpt lat="41.14651900716126" lon="-7.834793971851468">
        <ele>250.56</ele>
        <time>2025-05-03T10:36:29Z</time>
      </trkpt>
      <trkpt lat="41.14671497605741" lon="-7.834501024335623">
        <ele>253.93000000000001</ele>
        <time>2025-05-03T10:36:31Z</time>
      </trkpt>
      <trkpt lat="41.146826958283782" lon="-7.834405973553658">
        <ele>255.37</ele>
        <time>2025-05-03T10:36:32Z</time>
      </trkpt>
      <trkpt lat="41.146947992965579" lon="-7.834357023239136">
        <ele>256.81</ele>
        <time>2025-05-03T10:36:33Z</time>
      </trkpt>
      <trkpt lat="41.147074978798628" lon="-7.834375966340303">
        <ele>257.76999999999998</ele>
        <time>2025-05-03T10:36:34Z</time>
      </trkpt>
      <trkpt lat="41.147189978510141" lon="-7.834411002695561">
        <ele>259.20999999999998</ele>
        <time>2025-05-03T10:36:35Z</time>
      </trkpt>
      <trkpt lat="41.147272037342191" lon="-7.83453899435699">
        <ele>260.64999999999998</ele>
        <time>2025-05-03T10:36:36Z</time>
      </trkpt>
      <trkpt lat="41.147353006526828" lon="-7.834664974361658">
        <ele>262.57999999999998</ele>
        <time>2025-05-03T10:36:37Z</time>
      </trkpt>
      <trkpt lat="41.147388964891434" lon="-7.834806041792035">
        <ele>264.01999999999998</ele>
        <time>2025-05-03T10:36:38Z</time>
      </trkpt>
      <trkpt lat="41.14740002900362" lon="-7.834964962676168">
        <ele>264.98000000000002</ele>
        <time>2025-05-03T10:36:39Z</time>
      </trkpt>
      <trkpt lat="41.14737899042666" lon="-7.835102006793022">
        <ele>265.94</ele>
        <time>2025-05-03T10:36:40Z</time>
      </trkpt>
      <trkpt lat="41.147317970171571" lon="-7.835268974304199">
        <ele>266.89999999999998</ele>
        <time>2025-05-03T10:36:41Z</time>
      </trkpt>
      <trkpt lat="41.147234989330173" lon="-7.835380034521222">
        <ele>268.35000000000002</ele>
        <time>2025-05-03T10:36:42Z</time>
      </trkpt>
      <trkpt lat="41.147147985175252" lon="-7.835496040061116">
        <ele>268.82999999999998</ele>
        <time>2025-05-03T10:36:43Z</time>
      </trkpt>
      <trkpt lat="41.147070033475757" lon="-7.835599975660443">
        <ele>269.79000000000002</ele>
        <time>2025-05-03T10:36:44Z</time>
      </trkpt>
      <trkpt lat="41.146922009065747" lon="-7.835792005062103">
        <ele>271.23000000000002</ele>
        <time>2025-05-03T10:36:46Z</time>
      </trkpt>
      <trkpt lat="41.146869035437703" lon="-7.835898036137223">
        <ele>271.70999999999998</ele>
        <time>2025-05-03T10:36:47Z</time>
      </trkpt>
      <trkpt lat="41.14682000130415" lon="-7.836005995050073">
        <ele>272.19</ele>
        <time>2025-05-03T10:36:48Z</time>
      </trkpt>
      <trkpt lat="41.146789994090796" lon="-7.836122000589967">
        <ele>273.14999999999998</ele>
        <time>2025-05-03T10:36:49Z</time>
      </trkpt>
      <trkpt lat="41.146774990484118" lon="-7.836244041100144">
        <ele>273.63</ele>
        <time>2025-05-03T10:36:50Z</time>
      </trkpt>
      <trkpt lat="41.146764010190964" lon="-7.836370021104813">
        <ele>274.11000000000001</ele>
        <time>2025-05-03T10:36:51Z</time>
      </trkpt>
      <trkpt lat="41.146759986877441" lon="-7.83679598942399">
        <ele>276.04000000000002</ele>
        <time>2025-05-03T10:36:54Z</time>
      </trkpt>
      <trkpt lat="41.146768033504486" lon="-7.836965974420309">
        <ele>276.04000000000002</ele>
        <time>2025-05-03T10:36:55Z</time>
      </trkpt>
      <trkpt lat="41.146844979375601" lon="-7.838592985644937">
        <ele>274.58999999999997</ele>
        <time>2025-05-03T10:37:03Z</time>
      </trkpt>
      <trkpt lat="41.14688403904438" lon="-7.839021971449256">
        <ele>274.11000000000001</ele>
        <time>2025-05-03T10:37:05Z</time>
      </trkpt>
      <trkpt lat="41.146902982145548" lon="-7.839218024164438">
        <ele>273.63</ele>
        <time>2025-05-03T10:37:06Z</time>
      </trkpt>
      <trkpt lat="41.146967019885778" lon="-7.839399995282292">
        <ele>272.67000000000002</ele>
        <time>2025-05-03T10:37:07Z</time>
      </trkpt>
      <trkpt lat="41.147051006555557" lon="-7.839543996378779">
        <ele>272.19</ele>
        <time>2025-05-03T10:37:08Z</time>
      </trkpt>
      <trkpt lat="41.147154020145535" lon="-7.839640974998474">
        <ele>271.70999999999998</ele>
        <time>2025-05-03T10:37:09Z</time>
      </trkpt>
      <trkpt lat="41.147261979058385" lon="-7.839691014960408">
        <ele>271.23000000000002</ele>
        <time>2025-05-03T10:37:10Z</time>
      </trkpt>
      <trkpt lat="41.14737999625504" lon="-7.839695038273931">
        <ele>271.23000000000002</ele>
        <time>2025-05-03T10:37:11Z</time>
      </trkpt>
      <trkpt lat="41.147500025108457" lon="-7.839699983596802">
        <ele>270.75</ele>
        <time>2025-05-03T10:37:12Z</time>
      </trkpt>
      <trkpt lat="41.147731030359864" lon="-7.839708030223846">
        <ele>270.26999999999998</ele>
        <time>2025-05-03T10:37:14Z</time>
      </trkpt>
      <trkpt lat="41.147839995101094" lon="-7.839722028002143">
        <ele>269.79000000000002</ele>
        <time>2025-05-03T10:37:15Z</time>
      </trkpt>
      <trkpt lat="41.148640969768167" lon="-7.840113965794444">
        <ele>272.67000000000002</ele>
        <time>2025-05-03T10:37:23Z</time>
      </trkpt>
      <trkpt lat="41.148724034428596" lon="-7.840214967727661">
        <ele>273.14999999999998</ele>
        <time>2025-05-03T10:37:24Z</time>
      </trkpt>
      <trkpt lat="41.148820007219911" lon="-7.840332984924316">
        <ele>274.11000000000001</ele>
        <time>2025-05-03T10:37:25Z</time>
      </trkpt>
      <trkpt lat="41.148830987513065" lon="-7.840486960485578">
        <ele>275.06999999999999</ele>
        <time>2025-05-03T10:37:26Z</time>
      </trkpt>
      <trkpt lat="41.148840961977839" lon="-7.840659040957689">
        <ele>276.04000000000002</ele>
        <time>2025-05-03T10:37:27Z</time>
      </trkpt>
      <trkpt lat="41.148822018876672" lon="-7.840837994590402">
        <ele>276.51999999999998</ele>
        <time>2025-05-03T10:37:28Z</time>
      </trkpt>
      <trkpt lat="41.148772984743118" lon="-7.841019965708256">
        <ele>277.48000000000002</ele>
        <time>2025-05-03T10:37:29Z</time>
      </trkpt>
      <trkpt lat="41.148723028600216" lon="-7.841205960139632">
        <ele>277.95999999999998</ele>
        <time>2025-05-03T10:37:30Z</time>
      </trkpt>
      <trkpt lat="41.148657985031605" lon="-7.841397989541292">
        <ele>278.92000000000002</ele>
        <time>2025-05-03T10:37:31Z</time>
      </trkpt>
      <trkpt lat="41.148321032524109" lon="-7.842331985011697">
        <ele>282.76999999999998</ele>
        <time>2025-05-03T10:37:36Z</time>
      </trkpt>
      <trkpt lat="41.148210978135467" lon="-7.842841017991304">
        <ele>284.20999999999998</ele>
        <time>2025-05-03T10:37:39Z</time>
      </trkpt>
      <trkpt lat="41.148092960938811" lon="-7.84457297064364">
        <ele>285.17000000000002</ele>
        <time>2025-05-03T10:37:48Z</time>
      </trkpt>
      <trkpt lat="41.148098995909095" lon="-7.844755025580525">
        <ele>285.17000000000002</ele>
        <time>2025-05-03T10:37:49Z</time>
      </trkpt>
      <trkpt lat="41.14810997620225" lon="-7.844930961728096">
        <ele>285.17000000000002</ele>
        <time>2025-05-03T10:37:50Z</time>
      </trkpt>
      <trkpt lat="41.148164961487055" lon="-7.845077980309725">
        <ele>285.64999999999998</ele>
        <time>2025-05-03T10:37:51Z</time>
      </trkpt>
      <trkpt lat="41.14823897369206" lon="-7.845232039690018">
        <ele>285.64999999999998</ele>
        <time>2025-05-03T10:37:52Z</time>
      </trkpt>
      <trkpt lat="41.148310974240303" lon="-7.845384003594518">
        <ele>285.64999999999998</ele>
        <time>2025-05-03T10:37:53Z</time>
      </trkpt>
      <trkpt lat="41.148423040285707" lon="-7.845705030485988">
        <ele>285.64999999999998</ele>
        <time>2025-05-03T10:37:55Z</time>
      </trkpt>
      <trkpt lat="41.148446006700397" lon="-7.845877027139068">
        <ele>285.64999999999998</ele>
        <time>2025-05-03T10:37:56Z</time>
      </trkpt>
      <trkpt lat="41.148446006700397" lon="-7.846064027398825">
        <ele>285.64999999999998</ele>
        <time>2025-05-03T10:37:57Z</time>
      </trkpt>
      <trkpt lat="41.148420022800565" lon="-7.846247004345059">
        <ele>286.13</ele>
        <time>2025-05-03T10:37:58Z</time>
      </trkpt>
      <trkpt lat="41.148394038900733" lon="-7.846429981291294">
        <ele>286.13</ele>
        <time>2025-05-03T10:37:59Z</time>
      </trkpt>
      <trkpt lat="41.148323966190219" lon="-7.846606001257896">
        <ele>286.61000000000001</ele>
        <time>2025-05-03T10:38:00Z</time>
      </trkpt>
      <trkpt lat="41.148251965641975" lon="-7.846774980425835">
        <ele>286.61000000000001</ele>
        <time>2025-05-03T10:38:01Z</time>
      </trkpt>
      <trkpt lat="41.148034958168864" lon="-7.847308991476893">
        <ele>287.56999999999999</ele>
        <time>2025-05-03T10:38:04Z</time>
      </trkpt>
      <trkpt lat="41.147923981770873" lon="-7.847442012280226">
        <ele>287.56999999999999</ele>
        <time>2025-05-03T10:38:05Z</time>
      </trkpt>
      <trkpt lat="41.14780998788774" lon="-7.847552988678217">
        <ele>287.56999999999999</ele>
        <time>2025-05-03T10:38:06Z</time>
      </trkpt>
      <trkpt lat="41.147673027589917" lon="-7.847616020590067">
        <ele>288.05000000000001</ele>
        <time>2025-05-03T10:38:07Z</time>
      </trkpt>
      <trkpt lat="41.147537995129824" lon="-7.847659019753337">
        <ele>288.52999999999997</ele>
        <time>2025-05-03T10:38:08Z</time>
      </trkpt>
      <trkpt lat="41.147393994033337" lon="-7.847678968682885">
        <ele>289.00999999999999</ele>
        <time>2025-05-03T10:38:09Z</time>
      </trkpt>
      <trkpt lat="41.147027034312487" lon="-7.847767984494567">
        <ele>289.97000000000003</ele>
        <time>2025-05-03T10:38:12Z</time>
      </trkpt>
      <trkpt lat="41.146954027935863" lon="-7.847800003364682">
        <ele>290.45999999999998</ele>
        <time>2025-05-03T10:38:13Z</time>
      </trkpt>
      <trkpt lat="41.146915974095464" lon="-7.847934029996395">
        <ele>290.45999999999998</ele>
        <time>2025-05-03T10:38:14Z</time>
      </trkpt>
      <trkpt lat="41.146911028772593" lon="-7.848040983080864">
        <ele>290.45999999999998</ele>
        <time>2025-05-03T10:38:15Z</time>
      </trkpt>
      <trkpt lat="41.146911028772593" lon="-7.848208034411073">
        <ele>290.94</ele>
        <time>2025-05-03T10:38:16Z</time>
      </trkpt>
      <trkpt lat="41.146930977702141" lon="-7.848353963345289">
        <ele>290.94</ele>
        <time>2025-05-03T10:38:17Z</time>
      </trkpt>
      <trkpt lat="41.147132981568575" lon="-7.849708981812">
        <ele>291.89999999999998</ele>
        <time>2025-05-03T10:38:24Z</time>
      </trkpt>
      <trkpt lat="41.147155025973916" lon="-7.849873015657067">
        <ele>291.89999999999998</ele>
        <time>2025-05-03T10:38:25Z</time>
      </trkpt>
      <trkpt lat="41.147268014028668" lon="-7.850616993382573">
        <ele>291.89999999999998</ele>
        <time>2025-05-03T10:38:30Z</time>
      </trkpt>
      <trkpt lat="41.147563979029655" lon="-7.851702030748129">
        <ele>294.30000000000001</ele>
        <time>2025-05-03T10:38:37Z</time>
      </trkpt>
      <trkpt lat="41.147597003728151" lon="-7.851833961904049">
        <ele>294.77999999999997</ele>
        <time>2025-05-03T10:38:38Z</time>
      </trkpt>
      <trkpt lat="41.147570013999939" lon="-7.851990032941103">
        <ele>295.25999999999999</ele>
        <time>2025-05-03T10:38:39Z</time>
      </trkpt>
      <trkpt lat="41.147543024271727" lon="-7.852141996845603">
        <ele>295.74000000000001</ele>
        <time>2025-05-03T10:38:40Z</time>
      </trkpt>
      <trkpt lat="41.14748502150178" lon="-7.852277029305697">
        <ele>295.74000000000001</ele>
        <time>2025-05-03T10:38:41Z</time>
      </trkpt>
      <trkpt lat="41.147403968498111" lon="-7.852407032623887">
        <ele>295.74000000000001</ele>
        <time>2025-05-03T10:38:42Z</time>
      </trkpt>
      <trkpt lat="41.146835004910827" lon="-7.853257041424513">
        <ele>295.74000000000001</ele>
        <time>2025-05-03T10:38:49Z</time>
      </trkpt>
      <trkpt lat="41.146750012412667" lon="-7.853331975638866">
        <ele>295.74000000000001</ele>
        <time>2025-05-03T10:38:50Z</time>
      </trkpt>
      <trkpt lat="41.146680023521185" lon="-7.853383021429181">
        <ele>295.74000000000001</ele>
        <time>2025-05-03T10:38:51Z</time>
      </trkpt>
      <trkpt lat="41.146591007709503" lon="-7.853401964530349">
        <ele>295.25999999999999</ele>
        <time>2025-05-03T10:38:52Z</time>
      </trkpt>
      <trkpt lat="41.14649998024106" lon="-7.853420991450548">
        <ele>295.25999999999999</ele>
        <time>2025-05-03T10:38:53Z</time>
      </trkpt>
      <trkpt lat="41.146395960822701" lon="-7.85344404168427">
        <ele>295.25999999999999</ele>
        <time>2025-05-03T10:38:54Z</time>
      </trkpt>
      <trkpt lat="41.146311974152923" lon="-7.853456027805805">
        <ele>295.25999999999999</ele>
        <time>2025-05-03T10:38:55Z</time>
      </trkpt>
      <trkpt lat="41.146217007189989" lon="-7.853471031412482">
        <ele>295.25999999999999</ele>
        <time>2025-05-03T10:38:56Z</time>
      </trkpt>
      <trkpt lat="41.145147979259491" lon="-7.853400958701968">
        <ele>293.81999999999999</ele>
        <time>2025-05-03T10:39:07Z</time>
      </trkpt>
      <trkpt lat="41.144657973200083" lon="-7.853357959538698">
        <ele>291.89999999999998</ele>
        <time>2025-05-03T10:39:12Z</time>
      </trkpt>
      <trkpt lat="41.144583038985729" lon="-7.853395007550716">
        <ele>291.42000000000002</ele>
        <time>2025-05-03T10:39:13Z</time>
      </trkpt>
      <trkpt lat="41.144516989588737" lon="-7.853470025584102">
        <ele>290.94</ele>
        <time>2025-05-03T10:39:14Z</time>
      </trkpt>
      <trkpt lat="41.144462004303932" lon="-7.853544037789106">
        <ele>290.94</ele>
        <time>2025-05-03T10:39:15Z</time>
      </trkpt>
      <trkpt lat="41.144444989040494" lon="-7.853667000308633">
        <ele>290.45999999999998</ele>
        <time>2025-05-03T10:39:16Z</time>
      </trkpt>
      <trkpt lat="41.14445898681879" lon="-7.853784011676908">
        <ele>290.45999999999998</ele>
        <time>2025-05-03T10:39:17Z</time>
      </trkpt>
      <trkpt lat="41.144485976547003" lon="-7.853959025815129">
        <ele>290.45999999999998</ele>
        <time>2025-05-03T10:39:18Z</time>
      </trkpt>
      <trkpt lat="41.144526964053512" lon="-7.854030020534992">
        <ele>290.45999999999998</ele>
        <time>2025-05-03T10:39:19Z</time>
      </trkpt>
      <trkpt lat="41.144595025107265" lon="-7.854148959740996">
        <ele>290.45999999999998</ele>
        <time>2025-05-03T10:39:20Z</time>
      </trkpt>
      <trkpt lat="41.144992997869849" lon="-7.854686994105578">
        <ele>289.00999999999999</ele>
        <time>2025-05-03T10:39:25Z</time>
      </trkpt>
      <trkpt lat="41.145256021991372" lon="-7.855022018775344">
        <ele>287.56999999999999</ele>
        <time>2025-05-03T10:39:28Z</time>
      </trkpt>
      <trkpt lat="41.1453150305897" lon="-7.855166019871831">
        <ele>287.08999999999997</ele>
        <time>2025-05-03T10:39:29Z</time>
      </trkpt>
      <trkpt lat="41.145965969190001" lon="-7.856624973937869">
        <ele>283.73000000000002</ele>
        <time>2025-05-03T10:39:38Z</time>
      </trkpt>
      <trkpt lat="41.146708019077778" lon="-7.857772037386894">
        <ele>282.76999999999998</ele>
        <time>2025-05-03T10:39:45Z</time>
      </trkpt>
      <trkpt lat="41.146838022395968" lon="-7.857902962714434">
        <ele>281.80000000000001</ele>
        <time>2025-05-03T10:39:46Z</time>
      </trkpt>
      <trkpt lat="41.14699300378561" lon="-7.857983009889722">
        <ele>281.31999999999999</ele>
        <time>2025-05-03T10:39:47Z</time>
      </trkpt>
      <trkpt lat="41.147930016741157" lon="-7.858526995405555">
        <ele>276.51999999999998</ele>
        <time>2025-05-03T10:39:54Z</time>
      </trkpt>
      <trkpt lat="41.148026995360851" lon="-7.858594972640276">
        <ele>275.56</ele>
        <time>2025-05-03T10:39:55Z</time>
      </trkpt>
      <trkpt lat="41.148078963160515" lon="-7.858717013150454">
        <ele>275.06999999999999</ele>
        <time>2025-05-03T10:39:56Z</time>
      </trkpt>
      <trkpt lat="41.148101007565856" lon="-7.858852967619896">
        <ele>274.58999999999997</ele>
        <time>2025-05-03T10:39:57Z</time>
      </trkpt>
      <trkpt lat="41.148111987859011" lon="-7.858980037271977">
        <ele>274.11000000000001</ele>
        <time>2025-05-03T10:39:58Z</time>
      </trkpt>
      <trkpt lat="41.148072006180882" lon="-7.859093025326729">
        <ele>273.63</ele>
        <time>2025-05-03T10:39:59Z</time>
      </trkpt>
      <trkpt lat="41.14802397787571" lon="-7.85922696813941">
        <ele>273.14999999999998</ele>
        <time>2025-05-03T10:40:00Z</time>
      </trkpt>
      <trkpt lat="41.147949965670705" lon="-7.859354037791491">
        <ele>272.67000000000002</ele>
        <time>2025-05-03T10:40:01Z</time>
      </trkpt>
      <trkpt lat="41.147848963737488" lon="-7.859469959512353">
        <ele>272.19</ele>
        <time>2025-05-03T10:40:02Z</time>
      </trkpt>
      <trkpt lat="41.14763698540628" lon="-7.859705993905664">
        <ele>270.75</ele>
        <time>2025-05-03T10:40:04Z</time>
      </trkpt>
      <trkpt lat="41.147523997351527" lon="-7.859800038859248">
        <ele>270.26999999999998</ele>
        <time>2025-05-03T10:40:05Z</time>
      </trkpt>
      <trkpt lat="41.147391982376575" lon="-7.859866004437208">
        <ele>269.31</ele>
        <time>2025-05-03T10:40:06Z</time>
      </trkpt>
      <trkpt lat="41.147264996543527" lon="-7.859913026914001">
        <ele>268.82999999999998</ele>
        <time>2025-05-03T10:40:07Z</time>
      </trkpt>
      <trkpt lat="41.147135999053717" lon="-7.859939010813832">
        <ele>267.86000000000001</ele>
        <time>2025-05-03T10:40:08Z</time>
      </trkpt>
      <trkpt lat="41.147037008777261" lon="-7.859915038570762">
        <ele>267.38</ele>
        <time>2025-05-03T10:40:09Z</time>
      </trkpt>
      <trkpt lat="41.14692603237927" lon="-7.859864998608828">
        <ele>266.89999999999998</ele>
        <time>2025-05-03T10:40:10Z</time>
      </trkpt>
      <trkpt lat="41.146817989647388" lon="-7.8598059900105">
        <ele>266.42000000000002</ele>
        <time>2025-05-03T10:40:11Z</time>
      </trkpt>
      <trkpt lat="41.14658203907311" lon="-7.859687972813845">
        <ele>265.45999999999998</ele>
        <time>2025-05-03T10:40:13Z</time>
      </trkpt>
      <trkpt lat="41.146450024098158" lon="-7.859687972813845">
        <ele>264.5</ele>
        <time>2025-05-03T10:40:14Z</time>
      </trkpt>
      <trkpt lat="41.146309962496161" lon="-7.859694007784128">
        <ele>264.01999999999998</ele>
        <time>2025-05-03T10:40:15Z</time>
      </trkpt>
      <trkpt lat="41.146027995273471" lon="-7.859733989462256">
        <ele>263.06</ele>
        <time>2025-05-03T10:40:17Z</time>
      </trkpt>
      <trkpt lat="41.145774023607373" lon="-7.859771037474275">
        <ele>261.62</ele>
        <time>2025-05-03T10:40:19Z</time>
      </trkpt>
      <trkpt lat="41.145690036937594" lon="-7.859856029972434">
        <ele>261.13999999999999</ele>
        <time>2025-05-03T10:40:20Z</time>
      </trkpt>
      <trkpt lat="41.145622981712222" lon="-7.859944961965084">
        <ele>261.13999999999999</ele>
        <time>2025-05-03T10:40:21Z</time>
      </trkpt>
      <trkpt lat="41.145622981712222" lon="-7.860040012747049">
        <ele>260.64999999999998</ele>
        <time>2025-05-03T10:40:22Z</time>
      </trkpt>
      <trkpt lat="41.145622981712222" lon="-7.860160041600466">
        <ele>260.64999999999998</ele>
        <time>2025-05-03T10:40:23Z</time>
      </trkpt>
      <trkpt lat="41.145670004189014" lon="-7.860242016613483">
        <ele>260.17000000000002</ele>
        <time>2025-05-03T10:40:24Z</time>
      </trkpt>
      <trkpt lat="41.14574602805078" lon="-7.860332038253546">
        <ele>260.64999999999998</ele>
        <time>2025-05-03T10:40:25Z</time>
      </trkpt>
      <trkpt lat="41.145852981135249" lon="-7.860396998003125">
        <ele>260.64999999999998</ele>
        <time>2025-05-03T10:40:26Z</time>
      </trkpt>
      <trkpt lat="41.145972004160285" lon="-7.860467992722988">
        <ele>261.13999999999999</ele>
        <time>2025-05-03T10:40:27Z</time>
      </trkpt>
      <trkpt lat="41.14608901552856" lon="-7.860537981614471">
        <ele>261.13999999999999</ele>
        <time>2025-05-03T10:40:28Z</time>
      </trkpt>
      <trkpt lat="41.146196974441409" lon="-7.860606964677572">
        <ele>261.62</ele>
        <time>2025-05-03T10:40:29Z</time>
      </trkpt>
      <trkpt lat="41.146295964717865" lon="-7.860673014074564">
        <ele>261.62</ele>
        <time>2025-05-03T10:40:30Z</time>
      </trkpt>
      <trkpt lat="41.146377017721534" lon="-7.860776027664542">
        <ele>262.10000000000002</ele>
        <time>2025-05-03T10:40:31Z</time>
      </trkpt>
      <trkpt lat="41.146458992734551" lon="-7.860919022932649">
        <ele>263.06</ele>
        <time>2025-05-03T10:40:32Z</time>
      </trkpt>
      <trkpt lat="41.146538034081459" lon="-7.861059000715613">
        <ele>263.06</ele>
        <time>2025-05-03T10:40:33Z</time>
      </trkpt>
      <trkpt lat="41.146610034629703" lon="-7.861183974891901">
        <ele>264.01999999999998</ele>
        <time>2025-05-03T10:40:34Z</time>
      </trkpt>
      <trkpt lat="41.146674994379282" lon="-7.861296962946653">
        <ele>264.5</ele>
        <time>2025-05-03T10:40:35Z</time>
      </trkpt>
      <trkpt lat="41.146774990484118" lon="-7.861336022615433">
        <ele>264.98000000000002</ele>
        <time>2025-05-03T10:40:36Z</time>
      </trkpt>
      <trkpt lat="41.146880015730858" lon="-7.861377010121942">
        <ele>265.94</ele>
        <time>2025-05-03T10:40:37Z</time>
      </trkpt>
      <trkpt lat="41.146996021270752" lon="-7.861423026770353">
        <ele>266.42000000000002</ele>
        <time>2025-05-03T10:40:38Z</time>
      </trkpt>
      <trkpt lat="41.147123007103801" lon="-7.861471977084875">
        <ele>266.89999999999998</ele>
        <time>2025-05-03T10:40:39Z</time>
      </trkpt>
      <trkpt lat="41.147752990946174" lon="-7.861654032021761">
        <ele>270.75</ele>
        <time>2025-05-03T10:40:44Z</time>
      </trkpt>
      <trkpt lat="41.147854998707771" lon="-7.861726032570005">
        <ele>271.23000000000002</ele>
        <time>2025-05-03T10:40:45Z</time>
      </trkpt>
      <trkpt lat="41.147935967892408" lon="-7.861816976219416">
        <ele>272.19</ele>
        <time>2025-05-03T10:40:46Z</time>
      </trkpt>
      <trkpt lat="41.148026995360851" lon="-7.861918983981013">
        <ele>273.14999999999998</ele>
        <time>2025-05-03T10:40:47Z</time>
      </trkpt>
      <trkpt lat="41.148119028657675" lon="-7.862021997570992">
        <ele>273.63</ele>
        <time>2025-05-03T10:40:48Z</time>
      </trkpt>
      <trkpt lat="41.148207038640976" lon="-7.862119982019067">
        <ele>274.58999999999997</ele>
        <time>2025-05-03T10:40:49Z</time>
      </trkpt>
      <trkpt lat="41.148263029754162" lon="-7.862247973680496">
        <ele>275.06999999999999</ele>
        <time>2025-05-03T10:40:50Z</time>
      </trkpt>
      <trkpt lat="41.148319020867348" lon="-7.862400021404028">
        <ele>276.04000000000002</ele>
        <time>2025-05-03T10:40:51Z</time>
      </trkpt>
      <trkpt lat="41.148438965901732" lon="-7.862699003890157">
        <ele>277</ele>
        <time>2025-05-03T10:40:53Z</time>
      </trkpt>
      <trkpt lat="41.148498980328441" lon="-7.862847028300166">
        <ele>277.48000000000002</ele>
        <time>2025-05-03T10:40:54Z</time>
      </trkpt>
      <trkpt lat="41.148558994755149" lon="-7.862993963062763">
        <ele>277.95999999999998</ele>
        <time>2025-05-03T10:40:55Z</time>
      </trkpt>
      <trkpt lat="41.148636024445295" lon="-7.863111980259419">
        <ele>278.44</ele>
        <time>2025-05-03T10:40:56Z</time>
      </trkpt>
      <trkpt lat="41.148724034428596" lon="-7.863207031041384">
        <ele>279.39999999999998</ele>
        <time>2025-05-03T10:40:57Z</time>
      </trkpt>
      <trkpt lat="41.148809026926756" lon="-7.863296968862414">
        <ele>279.88</ele>
        <time>2025-05-03T10:40:58Z</time>
      </trkpt>
      <trkpt lat="41.14888496696949" lon="-7.863379027694464">
        <ele>280.83999999999997</ele>
        <time>2025-05-03T10:40:59Z</time>
      </trkpt>
      <trkpt lat="41.148950010538101" lon="-7.863477012142539">
        <ele>281.31999999999999</ele>
        <time>2025-05-03T10:41:00Z</time>
      </trkpt>
      <trkpt lat="41.1490139644593" lon="-7.863571979105473">
        <ele>281.80000000000001</ele>
        <time>2025-05-03T10:41:01Z</time>
      </trkpt>
      <trkpt lat="41.149051012471318" lon="-7.863699970766902">
        <ele>282.76999999999998</ele>
        <time>2025-05-03T10:41:02Z</time>
      </trkpt>
      <trkpt lat="41.149093005806208" lon="-7.863842966035008">
        <ele>283.25</ele>
        <time>2025-05-03T10:41:03Z</time>
      </trkpt>
      <trkpt lat="41.149166012182832" lon="-7.863981015980244">
        <ele>283.73000000000002</ele>
        <time>2025-05-03T10:41:04Z</time>
      </trkpt>
      <trkpt lat="41.149262990802526" lon="-7.864079000428319">
        <ele>284.20999999999998</ele>
        <time>2025-05-03T10:41:05Z</time>
      </trkpt>
      <trkpt lat="41.149361981078982" lon="-7.864177990704775">
        <ele>285.17000000000002</ele>
        <time>2025-05-03T10:41:06Z</time>
      </trkpt>
      <trkpt lat="41.14946398884058" lon="-7.864279998466373">
        <ele>285.64999999999998</ele>
        <time>2025-05-03T10:41:07Z</time>
      </trkpt>
      <trkpt lat="41.149559039622545" lon="-7.864384017884731">
        <ele>286.13</ele>
        <time>2025-05-03T10:41:08Z</time>
      </trkpt>
      <trkpt lat="41.149627016857266" lon="-7.864529024809599">
        <ele>287.08999999999997</ele>
        <time>2025-05-03T10:41:09Z</time>
      </trkpt>
      <trkpt lat="41.150048039853573" lon="-7.865449022501707">
        <ele>292.86000000000001</ele>
        <time>2025-05-03T10:41:16Z</time>
      </trkpt>
      <trkpt lat="41.150068994611502" lon="-7.865590006113052">
        <ele>293.81999999999999</ele>
        <time>2025-05-03T10:41:17Z</time>
      </trkpt>
      <trkpt lat="41.150146024301648" lon="-7.866814015433192">
        <ele>299.11000000000001</ele>
        <time>2025-05-03T10:41:25Z</time>
      </trkpt>
      <trkpt lat="41.150150969624519" lon="-7.866935972124338">
        <ele>299.58999999999997</ele>
        <time>2025-05-03T10:41:26Z</time>
      </trkpt>
      <trkpt lat="41.150122974067926" lon="-7.867052983492613">
        <ele>299.58999999999997</ele>
        <time>2025-05-03T10:41:27Z</time>
      </trkpt>
      <trkpt lat="41.15008600987494" lon="-7.867197990417481">
        <ele>299.58999999999997</ele>
        <time>2025-05-03T10:41:28Z</time>
      </trkpt>
      <trkpt lat="41.150029012933373" lon="-7.867296980693936">
        <ele>300.06999999999999</ele>
        <time>2025-05-03T10:41:29Z</time>
      </trkpt>
      <trkpt lat="41.149960029870272" lon="-7.867416003718972">
        <ele>300.06999999999999</ele>
        <time>2025-05-03T10:41:30Z</time>
      </trkpt>
      <trkpt lat="41.149884006008506" lon="-7.867524968460202">
        <ele>300.06999999999999</ele>
        <time>2025-05-03T10:41:31Z</time>
      </trkpt>
      <trkpt lat="41.149720977991819" lon="-7.86771398037672">
        <ele>301.02999999999997</ele>
        <time>2025-05-03T10:41:33Z</time>
      </trkpt>
      <trkpt lat="41.149610001593828" lon="-7.867800984531641">
        <ele>301.02999999999997</ele>
        <time>2025-05-03T10:41:34Z</time>
      </trkpt>
      <trkpt lat="41.148644993081689" lon="-7.868468016386032">
        <ele>304.38999999999999</ele>
        <time>2025-05-03T10:41:40Z</time>
      </trkpt>
      <trkpt lat="41.147699011489749" lon="-7.869199002161622">
        <ele>308.72000000000003</ele>
        <time>2025-05-03T10:41:46Z</time>
      </trkpt>
      <trkpt lat="41.147618964314461" lon="-7.869278965517879">
        <ele>309.19999999999999</ele>
        <time>2025-05-03T10:41:47Z</time>
      </trkpt>
      <trkpt lat="41.147605972364545" lon="-7.869421960785985">
        <ele>309.68000000000001</ele>
        <time>2025-05-03T10:41:48Z</time>
      </trkpt>
      <trkpt lat="41.14759398624301" lon="-7.869555987417698">
        <ele>310.63999999999999</ele>
        <time>2025-05-03T10:41:49Z</time>
      </trkpt>
      <trkpt lat="41.147582000121474" lon="-7.869698982685804">
        <ele>311.12</ele>
        <time>2025-05-03T10:41:50Z</time>
      </trkpt>
      <trkpt lat="41.147569008171558" lon="-7.869848012924194">
        <ele>312.08999999999997</ele>
        <time>2025-05-03T10:41:51Z</time>
      </trkpt>
      <trkpt lat="41.147556016221642" lon="-7.869996037334204">
        <ele>312.56999999999999</ele>
        <time>2025-05-03T10:41:52Z</time>
      </trkpt>
      <trkpt lat="41.147472029551864" lon="-7.87011799402535">
        <ele>313.52999999999997</ele>
        <time>2025-05-03T10:41:53Z</time>
      </trkpt>
      <trkpt lat="41.147390976548195" lon="-7.87022695876658">
        <ele>314.00999999999999</ele>
        <time>2025-05-03T10:41:54Z</time>
      </trkpt>
      <trkpt lat="41.147297015413642" lon="-7.870338018983603">
        <ele>314.97000000000003</ele>
        <time>2025-05-03T10:41:55Z</time>
      </trkpt>
      <trkpt lat="41.147197019308805" lon="-7.870450001209974">
        <ele>315.93000000000001</ele>
        <time>2025-05-03T10:41:56Z</time>
      </trkpt>
      <trkpt lat="41.146773984655738" lon="-7.870902037248015">
        <ele>318.32999999999998</ele>
        <time>2025-05-03T10:42:00Z</time>
      </trkpt>
      <trkpt lat="41.146645992994308" lon="-7.870990969240665">
        <ele>318.81</ele>
        <time>2025-05-03T10:42:01Z</time>
      </trkpt>
      <trkpt lat="41.14652001298964" lon="-7.871070010587573">
        <ele>319.30000000000001</ele>
        <time>2025-05-03T10:42:02Z</time>
      </trkpt>
      <trkpt lat="41.146399984136224" lon="-7.871114015579224">
        <ele>319.30000000000001</ele>
        <time>2025-05-03T10:42:03Z</time>
      </trkpt>
      <trkpt lat="41.146309962496161" lon="-7.871146034449339">
        <ele>319.77999999999997</ele>
        <time>2025-05-03T10:42:04Z</time>
      </trkpt>
      <trkpt lat="41.146213989704847" lon="-7.871086020022631">
        <ele>320.25999999999999</ele>
        <time>2025-05-03T10:42:05Z</time>
      </trkpt>
      <trkpt lat="41.146108964458108" lon="-7.87102097645402">
        <ele>320.25999999999999</ele>
        <time>2025-05-03T10:42:06Z</time>
      </trkpt>
      <trkpt lat="41.145996982231736" lon="-7.870950987562537">
        <ele>320.74000000000001</ele>
        <time>2025-05-03T10:42:07Z</time>
      </trkpt>
      <trkpt lat="41.145857004448771" lon="-7.870931960642338">
        <ele>320.74000000000001</ele>
        <time>2025-05-03T10:42:08Z</time>
      </trkpt>
      <trkpt lat="41.145720966160297" lon="-7.870931960642338">
        <ele>321.22000000000003</ele>
        <time>2025-05-03T10:42:09Z</time>
      </trkpt>
      <trkpt lat="41.145577970892191" lon="-7.870931960642338">
        <ele>321.69999999999999</ele>
        <time>2025-05-03T10:42:10Z</time>
      </trkpt>
      <trkpt lat="41.145443022251129" lon="-7.870905976742506">
        <ele>322.18000000000001</ele>
        <time>2025-05-03T10:42:11Z</time>
      </trkpt>
      <trkpt lat="41.145302038639784" lon="-7.870856020599604">
        <ele>322.66000000000003</ele>
        <time>2025-05-03T10:42:12Z</time>
      </trkpt>
      <trkpt lat="41.14516700617969" lon="-7.870808998122811">
        <ele>323.13999999999999</ele>
        <time>2025-05-03T10:42:13Z</time>
      </trkpt>
      <trkpt lat="41.145035997033119" lon="-7.870845962315798">
        <ele>323.62</ele>
        <time>2025-05-03T10:42:14Z</time>
      </trkpt>
      <trkpt lat="41.144925020635128" lon="-7.870915029197931">
        <ele>324.10000000000002</ele>
        <time>2025-05-03T10:42:15Z</time>
      </trkpt>
      <trkpt lat="41.144817983731627" lon="-7.871007984504104">
        <ele>324.57999999999998</ele>
        <time>2025-05-03T10:42:16Z</time>
      </trkpt>
      <trkpt lat="41.144708013162017" lon="-7.871075039729476">
        <ele>325.06</ele>
        <time>2025-05-03T10:42:17Z</time>
      </trkpt>
      <trkpt lat="41.144609022885561" lon="-7.871103035286069">
        <ele>325.06</ele>
        <time>2025-05-03T10:42:18Z</time>
      </trkpt>
      <trkpt lat="41.144525036215782" lon="-7.871100017800927">
        <ele>325.54000000000002</ele>
        <time>2025-05-03T10:42:19Z</time>
      </trkpt>
      <trkpt lat="41.144439037889242" lon="-7.8710219822824">
        <ele>325.54000000000002</ele>
        <time>2025-05-03T10:42:20Z</time>
      </trkpt>
      <trkpt lat="41.144333006814122" lon="-7.870928021147847">
        <ele>325.54000000000002</ele>
        <time>2025-05-03T10:42:21Z</time>
      </trkpt>
      <trkpt lat="41.144206020981073" lon="-7.870824001729488">
        <ele>325.54000000000002</ele>
        <time>2025-05-03T10:42:22Z</time>
      </trkpt>
      <trkpt lat="41.14379103295505" lon="-7.870529964566231">
        <ele>325.06</ele>
        <time>2025-05-03T10:42:25Z</time>
      </trkpt>
      <trkpt lat="41.143664969131351" lon="-7.8704400267452">
        <ele>324.57999999999998</ele>
        <time>2025-05-03T10:42:26Z</time>
      </trkpt>
      <trkpt lat="41.143410997465253" lon="-7.870278004556894">
        <ele>323.13999999999999</ele>
        <time>2025-05-03T10:42:28Z</time>
      </trkpt>
      <trkpt lat="41.143271019682288" lon="-7.870279010385275">
        <ele>322.66000000000003</ele>
        <time>2025-05-03T10:42:29Z</time>
      </trkpt>
      <trkpt lat="41.143155014142394" lon="-7.870314968749881">
        <ele>322.18000000000001</ele>
        <time>2025-05-03T10:42:30Z</time>
      </trkpt>
      <trkpt lat="41.143090976402164" lon="-7.870395015925169">
        <ele>321.69999999999999</ele>
        <time>2025-05-03T10:42:31Z</time>
      </trkpt>
      <trkpt lat="41.143056023865938" lon="-7.870570030063391">
        <ele>321.69999999999999</ele>
        <time>2025-05-03T10:42:32Z</time>
      </trkpt>
      <trkpt lat="41.143047977238894" lon="-7.87074102088809">
        <ele>321.22000000000003</ele>
        <time>2025-05-03T10:42:33Z</time>
      </trkpt>
      <trkpt lat="41.143047977238894" lon="-7.870926009491086">
        <ele>321.22000000000003</ele>
        <time>2025-05-03T10:42:34Z</time>
      </trkpt>
      <trkpt lat="41.143047977238894" lon="-7.871103035286069">
        <ele>320.74000000000001</ele>
        <time>2025-05-03T10:42:35Z</time>
      </trkpt>
      <trkpt lat="41.143000032752752" lon="-7.871274026110768">
        <ele>320.74000000000001</ele>
        <time>2025-05-03T10:42:36Z</time>
      </trkpt>
      <trkpt lat="41.142945969477296" lon="-7.871434958651662">
        <ele>320.25999999999999</ele>
        <time>2025-05-03T10:42:37Z</time>
      </trkpt>
      <trkpt lat="41.142605999484658" lon="-7.872063014656305">
        <ele>319.77999999999997</ele>
        <time>2025-05-03T10:42:41Z</time>
      </trkpt>
      <trkpt lat="41.142498040571809" lon="-7.872181031852961">
        <ele>319.77999999999997</ele>
        <time>2025-05-03T10:42:42Z</time>
      </trkpt>
      <trkpt lat="41.142383962869644" lon="-7.872295025736094">
        <ele>319.30000000000001</ele>
        <time>2025-05-03T10:42:43Z</time>
      </trkpt>
      <trkpt lat="41.14172900095582" lon="-7.872714959084988">
        <ele>316.41000000000003</ele>
        <time>2025-05-03T10:42:48Z</time>
      </trkpt>
      <trkpt lat="41.141614001244307" lon="-7.872813027352095">
        <ele>316.41000000000003</ele>
        <time>2025-05-03T10:42:49Z</time>
      </trkpt>
      <trkpt lat="41.141500007361174" lon="-7.872919980436564">
        <ele>315.93000000000001</ele>
        <time>2025-05-03T10:42:50Z</time>
      </trkpt>
      <trkpt lat="41.14138500764966" lon="-7.873027017340064">
        <ele>315.44999999999999</ele>
        <time>2025-05-03T10:42:51Z</time>
      </trkpt>
      <trkpt lat="41.141269002109766" lon="-7.873135982081294">
        <ele>314.97000000000003</ele>
        <time>2025-05-03T10:42:52Z</time>
      </trkpt>
      <trkpt lat="41.141146961599588" lon="-7.873250981792808">
        <ele>314.49000000000001</ele>
        <time>2025-05-03T10:42:53Z</time>
      </trkpt>
      <trkpt lat="41.140988040715456" lon="-7.873399006202817">
        <ele>314.00999999999999</ele>
        <time>2025-05-03T10:42:54Z</time>
      </trkpt>
      <trkpt lat="41.140906987711787" lon="-7.873514005914331">
        <ele>313.52999999999997</ele>
        <time>2025-05-03T10:42:55Z</time>
      </trkpt>
      <trkpt lat="41.140733985230327" lon="-7.873760014772415">
        <ele>312.56999999999999</ele>
        <time>2025-05-03T10:42:57Z</time>
      </trkpt>
      <trkpt lat="41.140658967196941" lon="-7.873805025592446">
        <ele>312.08999999999997</ele>
        <time>2025-05-03T10:42:58Z</time>
      </trkpt>
      <trkpt lat="41.140581015497446" lon="-7.873850036412478">
        <ele>311.60000000000002</ele>
        <time>2025-05-03T10:42:59Z</time>
      </trkpt>
      <trkpt lat="41.1404849588871" lon="-7.87381399422884">
        <ele>311.12</ele>
        <time>2025-05-03T10:43:00Z</time>
      </trkpt>
      <trkpt lat="41.140381023287773" lon="-7.873775018379092">
        <ele>310.63999999999999</ele>
        <time>2025-05-03T10:43:01Z</time>
      </trkpt>
      <trkpt lat="41.140270968899131" lon="-7.873734030872583">
        <ele>310.63999999999999</ele>
        <time>2025-05-03T10:43:02Z</time>
      </trkpt>
      <trkpt lat="41.14016099832952" lon="-7.87366496399045">
        <ele>310.16000000000003</ele>
        <time>2025-05-03T10:43:03Z</time>
      </trkpt>
      <trkpt lat="41.140044992789626" lon="-7.873581983149052">
        <ele>310.16000000000003</ele>
        <time>2025-05-03T10:43:04Z</time>
      </trkpt>
      <trkpt lat="41.139928987249732" lon="-7.873491961508989">
        <ele>309.68000000000001</ele>
        <time>2025-05-03T10:43:05Z</time>
      </trkpt>
      <trkpt lat="41.139728995040059" lon="-7.873364975675941">
        <ele>309.68000000000001</ele>
        <time>2025-05-03T10:43:07Z</time>
      </trkpt>
      <trkpt lat="41.139635033905506" lon="-7.873344020918012">
        <ele>309.68000000000001</ele>
        <time>2025-05-03T10:43:08Z</time>
      </trkpt>
      <trkpt lat="41.139556998386979" lon="-7.87336396984756">
        <ele>309.68000000000001</ele>
        <time>2025-05-03T10:43:09Z</time>
      </trkpt>
      <trkpt lat="41.139484997838736" lon="-7.873423984274268">
        <ele>310.16000000000003</ele>
        <time>2025-05-03T10:43:10Z</time>
      </trkpt>
      <trkpt lat="41.139432024210691" lon="-7.873522974550724">
        <ele>310.63999999999999</ele>
        <time>2025-05-03T10:43:11Z</time>
      </trkpt>
      <trkpt lat="41.139372009783983" lon="-7.873637974262238">
        <ele>310.63999999999999</ele>
        <time>2025-05-03T10:43:12Z</time>
      </trkpt>
      <trkpt lat="41.139307972043753" lon="-7.873759008944035">
        <ele>311.12</ele>
        <time>2025-05-03T10:43:13Z</time>
      </trkpt>
      <trkpt lat="41.13921501673758" lon="-7.873850958421826">
        <ele>312.08999999999997</ele>
        <time>2025-05-03T10:43:14Z</time>
      </trkpt>
      <trkpt lat="41.139089958742261" lon="-7.873900998383761">
        <ele>312.56999999999999</ele>
        <time>2025-05-03T10:43:15Z</time>
      </trkpt>
      <trkpt lat="41.138942018151283" lon="-7.87389999255538">
        <ele>313.52999999999997</ele>
        <time>2025-05-03T10:43:16Z</time>
      </trkpt>
      <trkpt lat="41.13878795877099" lon="-7.873880965635181">
        <ele>314.49000000000001</ele>
        <time>2025-05-03T10:43:17Z</time>
      </trkpt>
      <trkpt lat="41.138627026230097" lon="-7.873861016705632">
        <ele>315.44999999999999</ele>
        <time>2025-05-03T10:43:18Z</time>
      </trkpt>
      <trkpt lat="41.138149006292224" lon="-7.873695977032185">
        <ele>318.81</ele>
        <time>2025-05-03T10:43:21Z</time>
      </trkpt>
      <trkpt lat="41.138002993538976" lon="-7.873620036989451">
        <ele>319.77999999999997</ele>
        <time>2025-05-03T10:43:22Z</time>
      </trkpt>
      <trkpt lat="41.137639973312616" lon="-7.873330023139715">
        <ele>323.62</ele>
        <time>2025-05-03T10:43:25Z</time>
      </trkpt>
      <trkpt lat="41.13754098303616" lon="-7.873202031478286">
        <ele>324.57999999999998</ele>
        <time>2025-05-03T10:43:26Z</time>
      </trkpt>
      <trkpt lat="41.137450961396098" lon="-7.873075967654586">
        <ele>325.54000000000002</ele>
        <time>2025-05-03T10:43:27Z</time>
      </trkpt>
      <trkpt lat="41.137301009148359" lon="-7.872862983494997">
        <ele>327.47000000000003</ele>
        <time>2025-05-03T10:43:29Z</time>
      </trkpt>
      <trkpt lat="41.137243006378412" lon="-7.872799029573798">
        <ele>327.94999999999999</ele>
        <time>2025-05-03T10:43:30Z</time>
      </trkpt>
      <trkpt lat="41.137165976688266" lon="-7.872799029573798">
        <ele>328.91000000000003</ele>
        <time>2025-05-03T10:43:31Z</time>
      </trkpt>
      <trkpt lat="41.137086013332009" lon="-7.872834987938404">
        <ele>328.91000000000003</ele>
        <time>2025-05-03T10:43:32Z</time>
      </trkpt>
      <trkpt lat="41.137031028047204" lon="-7.872944958508015">
        <ele>329.38999999999999</ele>
        <time>2025-05-03T10:43:33Z</time>
      </trkpt>
      <trkpt lat="41.137016024440527" lon="-7.873096000403166">
        <ele>329.87</ele>
        <time>2025-05-03T10:43:34Z</time>
      </trkpt>
      <trkpt lat="41.137012001127005" lon="-7.87327797152102">
        <ele>330.35000000000002</ele>
        <time>2025-05-03T10:43:35Z</time>
      </trkpt>
      <trkpt lat="41.137006971985102" lon="-7.873481987044215">
        <ele>330.82999999999998</ele>
        <time>2025-05-03T10:43:36Z</time>
      </trkpt>
      <trkpt lat="41.13698098808527" lon="-7.87454598583281">
        <ele>334.68000000000001</ele>
        <time>2025-05-03T10:43:42Z</time>
      </trkpt>
      <trkpt lat="41.136976964771748" lon="-7.874705996364355">
        <ele>335.16000000000003</ele>
        <time>2025-05-03T10:43:43Z</time>
      </trkpt>
      <trkpt lat="41.136947041377425" lon="-7.874837005510926">
        <ele>335.16000000000003</ele>
        <time>2025-05-03T10:43:44Z</time>
      </trkpt>
      <trkpt lat="41.136875040829182" lon="-7.874912023544312">
        <ele>335.63999999999999</ele>
        <time>2025-05-03T10:43:45Z</time>
      </trkpt>
      <trkpt lat="41.136777978390455" lon="-7.874966003000736">
        <ele>336.12</ele>
        <time>2025-05-03T10:43:46Z</time>
      </trkpt>
      <trkpt lat="41.136658033356071" lon="-7.874993998557329">
        <ele>336.60000000000002</ele>
        <time>2025-05-03T10:43:47Z</time>
      </trkpt>
      <trkpt lat="41.136509003117681" lon="-7.875007996335626">
        <ele>337.56</ele>
        <time>2025-05-03T10:43:48Z</time>
      </trkpt>
      <trkpt lat="41.136176995933056" lon="-7.875036997720599">
        <ele>338.04000000000002</ele>
        <time>2025-05-03T10:43:50Z</time>
      </trkpt>
      <trkpt lat="41.135870972648263" lon="-7.87510497495532">
        <ele>339</ele>
        <time>2025-05-03T10:43:52Z</time>
      </trkpt>
      <trkpt lat="41.135716997087002" lon="-7.875165995210409">
        <ele>339.48000000000002</ele>
        <time>2025-05-03T10:43:53Z</time>
      </trkpt>
      <trkpt lat="41.135554974898696" lon="-7.875229027122259">
        <ele>340.44</ele>
        <time>2025-05-03T10:43:54Z</time>
      </trkpt>
      <trkpt lat="41.135397981852293" lon="-7.875289041548967">
        <ele>340.92000000000002</ele>
        <time>2025-05-03T10:43:55Z</time>
      </trkpt>
      <trkpt lat="41.135250041261315" lon="-7.875346960499883">
        <ele>340.92000000000002</ele>
        <time>2025-05-03T10:43:56Z</time>
      </trkpt>
      <trkpt lat="41.135107968002558" lon="-7.875421978533268">
        <ele>340.92000000000002</ele>
        <time>2025-05-03T10:43:57Z</time>
      </trkpt>
      <trkpt lat="41.1349590215832" lon="-7.875502025708556">
        <ele>340.92000000000002</ele>
        <time>2025-05-03T10:43:58Z</time>
      </trkpt>
      <trkpt lat="41.134823989123106" lon="-7.875586012378335">
        <ele>340.92000000000002</ele>
        <time>2025-05-03T10:43:59Z</time>
      </trkpt>
      <trkpt lat="41.133889993652701" lon="-7.876140978187323">
        <ele>338.51999999999998</ele>
        <time>2025-05-03T10:44:06Z</time>
      </trkpt>
      <trkpt lat="41.133770970627666" lon="-7.876172997057438">
        <ele>338.04000000000002</ele>
        <time>2025-05-03T10:44:07Z</time>
      </trkpt>
      <trkpt lat="41.13364901393652" lon="-7.876188000664115">
        <ele>337.56</ele>
        <time>2025-05-03T10:44:08Z</time>
      </trkpt>
      <trkpt lat="41.133527979254723" lon="-7.876201998442411">
        <ele>337.07999999999998</ele>
        <time>2025-05-03T10:44:09Z</time>
      </trkpt>
      <trkpt lat="41.13345698453486" lon="-7.876209961250424">
        <ele>336.60000000000002</ele>
        <time>2025-05-03T10:44:10Z</time>
      </trkpt>
      <trkpt lat="41.133350031450391" lon="-7.876387992873788">
        <ele>336.12</ele>
        <time>2025-05-03T10:44:11Z</time>
      </trkpt>
      <trkpt lat="41.133320024237037" lon="-7.876486983150244">
        <ele>335.63999999999999</ele>
        <time>2025-05-03T10:44:12Z</time>
      </trkpt>
      <trkpt lat="41.133307032287121" lon="-7.876597037538886">
        <ele>335.16000000000003</ele>
        <time>2025-05-03T10:44:13Z</time>
      </trkpt>
      <trkpt lat="41.133323963731527" lon="-7.876716982573271">
        <ele>334.19999999999999</ele>
        <time>2025-05-03T10:44:14Z</time>
      </trkpt>
      <trkpt lat="41.133339973166585" lon="-7.876827958971262">
        <ele>333.23000000000002</ele>
        <time>2025-05-03T10:44:15Z</time>
      </trkpt>
      <trkpt lat="41.133313989266753" lon="-7.876980006694794">
        <ele>332.75</ele>
        <time>2025-05-03T10:44:16Z</time>
      </trkpt>
      <trkpt lat="41.13328498788178" lon="-7.877046978101134">
        <ele>332.26999999999998</ele>
        <time>2025-05-03T10:44:17Z</time>
      </trkpt>
      <trkpt lat="41.133218016475439" lon="-7.877128031104803">
        <ele>331.79000000000002</ele>
        <time>2025-05-03T10:44:18Z</time>
      </trkpt>
      <trkpt lat="41.133152972906828" lon="-7.877199025824666">
        <ele>330.82999999999998</ele>
        <time>2025-05-03T10:44:19Z</time>
      </trkpt>
      <trkpt lat="41.133067980408669" lon="-7.8772749658674">
        <ele>330.35000000000002</ele>
        <time>2025-05-03T10:44:20Z</time>
      </trkpt>
      <trkpt lat="41.132975025102496" lon="-7.87735995836556">
        <ele>329.38999999999999</ele>
        <time>2025-05-03T10:44:21Z</time>
      </trkpt>
      <trkpt lat="41.132044969126582" lon="-7.878118017688394">
        <ele>322.18000000000001</ele>
        <time>2025-05-03T10:44:29Z</time>
      </trkpt>
      <trkpt lat="41.131655965000391" lon="-7.878352040424943">
        <ele>318.81</ele>
        <time>2025-05-03T10:44:32Z</time>
      </trkpt>
      <trkpt lat="41.131533002480865" lon="-7.878441978245974">
        <ele>317.85000000000002</ele>
        <time>2025-05-03T10:44:33Z</time>
      </trkpt>
      <trkpt lat="41.13143996335566" lon="-7.878569969907403">
        <ele>316.41000000000003</ele>
        <time>2025-05-03T10:44:34Z</time>
      </trkpt>
      <trkpt lat="41.131349019706249" lon="-7.878722017630935">
        <ele>315.93000000000001</ele>
        <time>2025-05-03T10:44:35Z</time>
      </trkpt>
      <trkpt lat="41.131260003894567" lon="-7.878869958221912">
        <ele>314.97000000000003</ele>
        <time>2025-05-03T10:44:36Z</time>
      </trkpt>
      <trkpt lat="41.13118196837604" lon="-7.878999961540103">
        <ele>314.00999999999999</ele>
        <time>2025-05-03T10:44:37Z</time>
      </trkpt>
      <trkpt lat="41.13105196505785" lon="-7.879129964858294">
        <ele>313.05000000000001</ele>
        <time>2025-05-03T10:44:38Z</time>
      </trkpt>
      <trkpt lat="41.130463974550366" lon="-7.879570014774799">
        <ele>308.24000000000001</ele>
        <time>2025-05-03T10:44:43Z</time>
      </trkpt>
      <trkpt lat="41.130340006202459" lon="-7.879587030038238">
        <ele>307.75999999999999</ele>
        <time>2025-05-03T10:44:44Z</time>
      </trkpt>
      <trkpt lat="41.130226012319326" lon="-7.879595998674631">
        <ele>306.80000000000001</ele>
        <time>2025-05-03T10:44:45Z</time>
      </trkpt>
      <trkpt lat="41.130109000951052" lon="-7.879552999511361">
        <ele>305.83999999999997</ele>
        <time>2025-05-03T10:44:46Z</time>
      </trkpt>
      <trkpt lat="41.129996012896299" lon="-7.879512012004852">
        <ele>304.88</ele>
        <time>2025-05-03T10:44:47Z</time>
      </trkpt>
      <trkpt lat="41.129886964336038" lon="-7.879471024498344">
        <ele>303.91000000000003</ele>
        <time>2025-05-03T10:44:48Z</time>
      </trkpt>
      <trkpt lat="41.129781017079949" lon="-7.879458032548428">
        <ele>303.43000000000001</ele>
        <time>2025-05-03T10:44:49Z</time>
      </trkpt>
      <trkpt lat="41.129681020975113" lon="-7.879473036155105">
        <ele>303.43000000000001</ele>
        <time>2025-05-03T10:44:50Z</time>
      </trkpt>
      <trkpt lat="41.129587981849909" lon="-7.879488039761782">
        <ele>303.43000000000001</ele>
        <time>2025-05-03T10:44:51Z</time>
      </trkpt>
      <trkpt lat="41.129413973540068" lon="-7.879572026431561">
        <ele>304.38999999999999</ele>
        <time>2025-05-03T10:44:53Z</time>
      </trkpt>
      <trkpt lat="41.129360999912024" lon="-7.879660036414862">
        <ele>304.38999999999999</ele>
        <time>2025-05-03T10:44:54Z</time>
      </trkpt>
      <trkpt lat="41.129315989091992" lon="-7.879748968407512">
        <ele>304.88</ele>
        <time>2025-05-03T10:44:55Z</time>
      </trkpt>
      <trkpt lat="41.129314983263612" lon="-7.879844019189477">
        <ele>304.38999999999999</ele>
        <time>2025-05-03T10:44:56Z</time>
      </trkpt>
      <trkpt lat="41.129318000748754" lon="-7.879945021122694">
        <ele>304.38999999999999</ele>
        <time>2025-05-03T10:44:57Z</time>
      </trkpt>
      <trkpt lat="41.129329986870289" lon="-7.880048034712672">
        <ele>303.91000000000003</ele>
        <time>2025-05-03T10:44:58Z</time>
      </trkpt>
      <trkpt lat="41.129414979368448" lon="-7.88079502992332">
        <ele>301.50999999999999</ele>
        <time>2025-05-03T10:45:04Z</time>
      </trkpt>
      <trkpt lat="41.129423025995493" lon="-7.88105696439743">
        <ele>300.55000000000001</ele>
        <time>2025-05-03T10:45:06Z</time>
      </trkpt>
      <trkpt lat="41.129384972155094" lon="-7.88116198964417">
        <ele>299.58999999999997</ele>
        <time>2025-05-03T10:45:07Z</time>
      </trkpt>
      <trkpt lat="41.129310037940741" lon="-7.881279001012445">
        <ele>298.63</ele>
        <time>2025-05-03T10:45:08Z</time>
      </trkpt>
      <trkpt lat="41.129215992987156" lon="-7.881387965753675">
        <ele>297.67000000000002</ele>
        <time>2025-05-03T10:45:09Z</time>
      </trkpt>
      <trkpt lat="41.129107028245926" lon="-7.881485028192401">
        <ele>296.69999999999999</ele>
        <time>2025-05-03T10:45:10Z</time>
      </trkpt>
      <trkpt lat="41.128999991342425" lon="-7.881579995155335">
        <ele>296.22000000000003</ele>
        <time>2025-05-03T10:45:11Z</time>
      </trkpt>
      <trkpt lat="41.128519959747791" lon="-7.881967993453145">
        <ele>293.33999999999997</ele>
        <time>2025-05-03T10:45:16Z</time>
      </trkpt>
      <trkpt lat="41.128433961421251" lon="-7.88199900649488">
        <ele>292.86000000000001</ele>
        <time>2025-05-03T10:45:17Z</time>
      </trkpt>
      <trkpt lat="41.128328014165163" lon="-7.882024990394712">
        <ele>291.89999999999998</ele>
        <time>2025-05-03T10:45:18Z</time>
      </trkpt>
      <trkpt lat="41.127608008682728" lon="-7.88178401067853">
        <ele>287.56999999999999</ele>
        <time>2025-05-03T10:45:25Z</time>
      </trkpt>
      <trkpt lat="41.126748025417328" lon="-7.881546970456839">
        <ele>284.20999999999998</ele>
        <time>2025-05-03T10:45:31Z</time>
      </trkpt>
      <trkpt lat="41.12662497907877" lon="-7.881550993770361">
        <ele>283.73000000000002</ele>
        <time>2025-05-03T10:45:32Z</time>
      </trkpt>
      <trkpt lat="41.126520959660411" lon="-7.881621988490224">
        <ele>283.25</ele>
        <time>2025-05-03T10:45:33Z</time>
      </trkpt>
      <trkpt lat="41.126429010182619" lon="-7.881719972938299">
        <ele>282.76999999999998</ele>
        <time>2025-05-03T10:45:34Z</time>
      </trkpt>
      <trkpt lat="41.126334965229034" lon="-7.881818963214755">
        <ele>282.27999999999997</ele>
        <time>2025-05-03T10:45:35Z</time>
      </trkpt>
      <trkpt lat="41.126236980780959" lon="-7.881920970976353">
        <ele>281.80000000000001</ele>
        <time>2025-05-03T10:45:36Z</time>
      </trkpt>
      <trkpt lat="41.126141007989645" lon="-7.882020967081189">
        <ele>280.83999999999997</ele>
        <time>2025-05-03T10:45:37Z</time>
      </trkpt>
      <trkpt lat="41.126036988571286" lon="-7.882083998993039">
        <ele>279.39999999999998</ele>
        <time>2025-05-03T10:45:38Z</time>
      </trkpt>
      <trkpt lat="41.125908996909857" lon="-7.882118029519916">
        <ele>277.95999999999998</ele>
        <time>2025-05-03T10:45:39Z</time>
      </trkpt>
      <trkpt lat="41.125640021637082" lon="-7.882188018411398">
        <ele>275.56</ele>
        <time>2025-05-03T10:45:41Z</time>
      </trkpt>
      <trkpt lat="41.125369034707546" lon="-7.882297988981009">
        <ele>273.63</ele>
        <time>2025-05-03T10:45:43Z</time>
      </trkpt>
      <trkpt lat="41.12460502423346" lon="-7.882697973400354">
        <ele>267.86000000000001</ele>
        <time>2025-05-03T10:45:49Z</time>
      </trkpt>
      <trkpt lat="41.124474015086889" lon="-7.882727980613709">
        <ele>266.89999999999998</ele>
        <time>2025-05-03T10:45:50Z</time>
      </trkpt>
      <trkpt lat="41.123946961015463" lon="-7.882802998647094">
        <ele>264.5</ele>
        <time>2025-05-03T10:45:54Z</time>
      </trkpt>
      <trkpt lat="41.123870015144348" lon="-7.882739966735244">
        <ele>264.01999999999998</ele>
        <time>2025-05-03T10:45:55Z</time>
      </trkpt>
      <trkpt lat="41.123804971575737" lon="-7.882642988115549">
        <ele>263.54000000000002</ele>
        <time>2025-05-03T10:45:56Z</time>
      </trkpt>
      <trkpt lat="41.123731965199113" lon="-7.882534023374319">
        <ele>263.06</ele>
        <time>2025-05-03T10:45:57Z</time>
      </trkpt>
      <trkpt lat="41.123654013499618" lon="-7.882416006177664">
        <ele>263.06</ele>
        <time>2025-05-03T10:45:58Z</time>
      </trkpt>
      <trkpt lat="41.123535996302962" lon="-7.882354985922575">
        <ele>263.06</ele>
        <time>2025-05-03T10:45:59Z</time>
      </trkpt>
      <trkpt lat="41.123417979106307" lon="-7.882295977324247">
        <ele>263.06</ele>
        <time>2025-05-03T10:46:00Z</time>
      </trkpt>
      <trkpt lat="41.123297028243542" lon="-7.88223504088819">
        <ele>263.06</ele>
        <time>2025-05-03T10:46:01Z</time>
      </trkpt>
      <trkpt lat="41.123178005218506" lon="-7.882175026461482">
        <ele>263.06</ele>
        <time>2025-05-03T10:46:02Z</time>
      </trkpt>
      <trkpt lat="41.123064011335373" lon="-7.882118029519916">
        <ele>263.54000000000002</ele>
        <time>2025-05-03T10:46:03Z</time>
      </trkpt>
      <trkpt lat="41.122888997197151" lon="-7.881968999281526">
        <ele>263.54000000000002</ele>
        <time>2025-05-03T10:46:05Z</time>
      </trkpt>
      <trkpt lat="41.122811967507005" lon="-7.881901022046804">
        <ele>264.01999999999998</ele>
        <time>2025-05-03T10:46:06Z</time>
      </trkpt>
      <trkpt lat="41.122738039121032" lon="-7.881836984306574">
        <ele>264.01999999999998</ele>
        <time>2025-05-03T10:46:07Z</time>
      </trkpt>
      <trkpt lat="41.122655980288982" lon="-7.881803959608078">
        <ele>264.01999999999998</ele>
        <time>2025-05-03T10:46:08Z</time>
      </trkpt>
      <trkpt lat="41.122580040246248" lon="-7.881842013448477">
        <ele>264.01999999999998</ele>
        <time>2025-05-03T10:46:09Z</time>
      </trkpt>
      <trkpt lat="41.122508961707354" lon="-7.881895992904902">
        <ele>263.54000000000002</ele>
        <time>2025-05-03T10:46:10Z</time>
      </trkpt>
      <trkpt lat="41.122485995292664" lon="-7.88199900649488">
        <ele>263.54000000000002</ele>
        <time>2025-05-03T10:46:11Z</time>
      </trkpt>
      <trkpt lat="41.122469985857606" lon="-7.882125992327929">
        <ele>263.06</ele>
        <time>2025-05-03T10:46:12Z</time>
      </trkpt>
      <trkpt lat="41.122482977807522" lon="-7.882278962060809">
        <ele>263.06</ele>
        <time>2025-05-03T10:46:13Z</time>
      </trkpt>
      <trkpt lat="41.122528994455934" lon="-7.882416006177664">
        <ele>263.06</ele>
        <time>2025-05-03T10:46:14Z</time>
      </trkpt>
      <trkpt lat="41.122575011104345" lon="-7.882554978132248">
        <ele>263.54000000000002</ele>
        <time>2025-05-03T10:46:15Z</time>
      </trkpt>
      <trkpt lat="41.122632008045912" lon="-7.882697973400354">
        <ele>263.54000000000002</ele>
        <time>2025-05-03T10:46:16Z</time>
      </trkpt>
      <trkpt lat="41.122696967795491" lon="-7.882839040830731">
        <ele>264.01999999999998</ele>
        <time>2025-05-03T10:46:17Z</time>
      </trkpt>
      <trkpt lat="41.122766034677625" lon="-7.88298798725009">
        <ele>264.5</ele>
        <time>2025-05-03T10:46:18Z</time>
      </trkpt>
      <trkpt lat="41.122837029397488" lon="-7.883142968639731">
        <ele>265.45999999999998</ele>
        <time>2025-05-03T10:46:19Z</time>
      </trkpt>
      <trkpt lat="41.12290701828897" lon="-7.883295016363263">
        <ele>265.94</ele>
        <time>2025-05-03T10:46:20Z</time>
      </trkpt>
      <trkpt lat="41.122974995523691" lon="-7.883443040773273">
        <ele>267.38</ele>
        <time>2025-05-03T10:46:21Z</time>
      </trkpt>
      <trkpt lat="41.123042972758412" lon="-7.883591987192631">
        <ele>267.86000000000001</ele>
        <time>2025-05-03T10:46:22Z</time>
      </trkpt>
      <trkpt lat="41.123098041862249" lon="-7.883753003552556">
        <ele>269.31</ele>
        <time>2025-05-03T10:46:23Z</time>
      </trkpt>
      <trkpt lat="41.123117990791798" lon="-7.883942015469074">
        <ele>270.26999999999998</ele>
        <time>2025-05-03T10:46:24Z</time>
      </trkpt>
      <trkpt lat="41.123132994398475" lon="-7.884135972708464">
        <ele>271.23000000000002</ele>
        <time>2025-05-03T10:46:25Z</time>
      </trkpt>
      <trkpt lat="41.123118996620178" lon="-7.884323978796601">
        <ele>272.67000000000002</ele>
        <time>2025-05-03T10:46:26Z</time>
      </trkpt>
      <trkpt lat="41.123104998841882" lon="-7.884504022076726">
        <ele>273.63</ele>
        <time>2025-05-03T10:46:27Z</time>
      </trkpt>
      <trkpt lat="41.123094018548727" lon="-7.884675012901425">
        <ele>274.58999999999997</ele>
        <time>2025-05-03T10:46:28Z</time>
      </trkpt>
      <trkpt lat="41.123117990791798" lon="-7.884844997897744">
        <ele>275.56</ele>
        <time>2025-05-03T10:46:29Z</time>
      </trkpt>
      <trkpt lat="41.123136011883616" lon="-7.885018000379205">
        <ele>276.51999999999998</ele>
        <time>2025-05-03T10:46:30Z</time>
      </trkpt>
      <trkpt lat="41.123125031590462" lon="-7.88520198315382">
        <ele>277.48000000000002</ele>
        <time>2025-05-03T10:46:31Z</time>
      </trkpt>
      <trkpt lat="41.123096030205488" lon="-7.885393006727099">
        <ele>278.44</ele>
        <time>2025-05-03T10:46:32Z</time>
      </trkpt>
      <trkpt lat="41.122944988310337" lon="-7.886375030502677">
        <ele>284.20999999999998</ele>
        <time>2025-05-03T10:46:38Z</time>
      </trkpt>
      <trkpt lat="41.122921016067266" lon="-7.886531017720699">
        <ele>285.17000000000002</ele>
        <time>2025-05-03T10:46:39Z</time>
      </trkpt>
      <trkpt lat="41.122868964448571" lon="-7.886669989675283">
        <ele>285.64999999999998</ele>
        <time>2025-05-03T10:46:40Z</time>
      </trkpt>
      <trkpt lat="41.122385999187827" lon="-7.887732982635498">
        <ele>290.94</ele>
        <time>2025-05-03T10:46:48Z</time>
      </trkpt>
      <trkpt lat="41.122293965891004" lon="-7.887830967083573">
        <ele>291.42000000000002</ele>
        <time>2025-05-03T10:46:49Z</time>
      </trkpt>
      <trkpt lat="41.122181983664632" lon="-7.88788503035903">
        <ele>291.89999999999998</ele>
        <time>2025-05-03T10:46:50Z</time>
      </trkpt>
      <trkpt lat="41.121624000370502" lon="-7.88810396566987">
        <ele>292.38</ele>
        <time>2025-05-03T10:46:55Z</time>
      </trkpt>
      <trkpt lat="41.121569015085697" lon="-7.888118969276547">
        <ele>292.38</ele>
        <time>2025-05-03T10:46:56Z</time>
      </trkpt>
      <trkpt lat="41.121501959860325" lon="-7.888026013970375">
        <ele>292.38</ele>
        <time>2025-05-03T10:46:57Z</time>
      </trkpt>
      <trkpt lat="41.121433982625604" lon="-7.887932974845171">
        <ele>292.38</ele>
        <time>2025-05-03T10:46:58Z</time>
      </trkpt>
      <trkpt lat="41.121374974027276" lon="-7.887838007882237">
        <ele>292.38</ele>
        <time>2025-05-03T10:46:59Z</time>
      </trkpt>
      <trkpt lat="41.121314959600568" lon="-7.887718984857202">
        <ele>291.89999999999998</ele>
        <time>2025-05-03T10:47:00Z</time>
      </trkpt>
      <trkpt lat="41.121202977374196" lon="-7.88762996904552">
        <ele>291.42000000000002</ele>
        <time>2025-05-03T10:47:01Z</time>
      </trkpt>
      <trkpt lat="41.121088983491063" lon="-7.887583030387759">
        <ele>290.94</ele>
        <time>2025-05-03T10:47:02Z</time>
      </trkpt>
      <trkpt lat="41.120972977951169" lon="-7.887583030387759">
        <ele>290.45999999999998</ele>
        <time>2025-05-03T10:47:03Z</time>
      </trkpt>
      <trkpt lat="41.120855966582894" lon="-7.887614965438843">
        <ele>289.97000000000003</ele>
        <time>2025-05-03T10:47:04Z</time>
      </trkpt>
      <trkpt lat="41.120739039033651" lon="-7.887669028714299">
        <ele>289.49000000000001</ele>
        <time>2025-05-03T10:47:05Z</time>
      </trkpt>
      <trkpt lat="41.120623033493757" lon="-7.887726025655866">
        <ele>289.00999999999999</ele>
        <time>2025-05-03T10:47:06Z</time>
      </trkpt>
      <trkpt lat="41.120432009920478" lon="-7.887840019538999">
        <ele>288.05000000000001</ele>
        <time>2025-05-03T10:47:08Z</time>
      </trkpt>
      <trkpt lat="41.120382975786924" lon="-7.888001035898924">
        <ele>287.56999999999999</ele>
        <time>2025-05-03T10:47:09Z</time>
      </trkpt>
      <trkpt lat="41.120340982452035" lon="-7.888134978711605">
        <ele>287.08999999999997</ele>
        <time>2025-05-03T10:47:10Z</time>
      </trkpt>
      <trkpt lat="41.120186001062393" lon="-7.88853102363646">
        <ele>286.13</ele>
        <time>2025-05-03T10:47:13Z</time>
      </trkpt>
      <trkpt lat="41.120116012170911" lon="-7.888658009469509">
        <ele>286.13</ele>
        <time>2025-05-03T10:47:14Z</time>
      </trkpt>
      <trkpt lat="41.119299028068781" lon="-7.889880007132888">
        <ele>284.20999999999998</ele>
        <time>2025-05-03T10:47:25Z</time>
      </trkpt>
      <trkpt lat="41.119112027809024" lon="-7.89003599435091">
        <ele>282.76999999999998</ele>
        <time>2025-05-03T10:47:27Z</time>
      </trkpt>
      <trkpt lat="41.119014965370297" lon="-7.890093997120857">
        <ele>281.80000000000001</ele>
        <time>2025-05-03T10:47:28Z</time>
      </trkpt>
      <trkpt lat="41.118912035599351" lon="-7.890130039304495">
        <ele>280.83999999999997</ele>
        <time>2025-05-03T10:47:29Z</time>
      </trkpt>
      <trkpt lat="41.11871900036931" lon="-7.890197010710836">
        <ele>280.36000000000001</ele>
        <time>2025-05-03T10:47:31Z</time>
      </trkpt>
      <trkpt lat="41.118622021749616" lon="-7.890231041237712">
        <ele>279.39999999999998</ele>
        <time>2025-05-03T10:47:32Z</time>
      </trkpt>
      <trkpt lat="41.118539962917566" lon="-7.890302035957575">
        <ele>279.39999999999998</ele>
        <time>2025-05-03T10:47:33Z</time>
      </trkpt>
      <trkpt lat="41.118468968197703" lon="-7.890392979606986">
        <ele>279.39999999999998</ele>
        <time>2025-05-03T10:47:34Z</time>
      </trkpt>
      <trkpt lat="41.118392022326589" lon="-7.890489036217332">
        <ele>278.92000000000002</ele>
        <time>2025-05-03T10:47:35Z</time>
      </trkpt>
      <trkpt lat="41.118312980979681" lon="-7.890589032322168">
        <ele>279.39999999999998</ele>
        <time>2025-05-03T10:47:36Z</time>
      </trkpt>
      <trkpt lat="41.118235029280186" lon="-7.890687016770244">
        <ele>279.39999999999998</ele>
        <time>2025-05-03T10:47:37Z</time>
      </trkpt>
      <trkpt lat="41.117618037387729" lon="-7.891513975337148">
        <ele>282.27999999999997</ele>
        <time>2025-05-03T10:47:45Z</time>
      </trkpt>
      <trkpt lat="41.117390971630812" lon="-7.891723020002246">
        <ele>283.25</ele>
        <time>2025-05-03T10:47:47Z</time>
      </trkpt>
      <trkpt lat="41.117268009111285" lon="-7.891808012500405">
        <ele>283.73000000000002</ele>
        <time>2025-05-03T10:47:48Z</time>
      </trkpt>
      <trkpt lat="41.117138005793095" lon="-7.891880013048649">
        <ele>284.20999999999998</ele>
        <time>2025-05-03T10:47:49Z</time>
      </trkpt>
      <trkpt lat="41.116450019180775" lon="-7.892143959179521">
        <ele>286.13</ele>
        <time>2025-05-03T10:47:54Z</time>
      </trkpt>
      <trkpt lat="41.116321021690965" lon="-7.892174972221255">
        <ele>286.61000000000001</ele>
        <time>2025-05-03T10:47:55Z</time>
      </trkpt>
      <trkpt lat="41.116199987009168" lon="-7.892203973606229">
        <ele>287.08999999999997</ele>
        <time>2025-05-03T10:47:56Z</time>
      </trkpt>
      <trkpt lat="41.116088004782796" lon="-7.892230963334441">
        <ele>287.56999999999999</ele>
        <time>2025-05-03T10:47:57Z</time>
      </trkpt>
      <trkpt lat="41.116028996184468" lon="-7.892306987196207">
        <ele>287.56999999999999</ele>
        <time>2025-05-03T10:47:58Z</time>
      </trkpt>
      <trkpt lat="41.115983985364437" lon="-7.892425004392862">
        <ele>287.56999999999999</ele>
        <time>2025-05-03T10:47:59Z</time>
      </trkpt>
      <trkpt lat="41.115936040878296" lon="-7.892548972740769">
        <ele>287.56999999999999</ele>
        <time>2025-05-03T10:48:00Z</time>
      </trkpt>
      <trkpt lat="41.115829003974795" lon="-7.892829012125731">
        <ele>287.56999999999999</ele>
        <time>2025-05-03T10:48:02Z</time>
      </trkpt>
      <trkpt lat="41.115762032568455" lon="-7.892981981858611">
        <ele>288.05000000000001</ele>
        <time>2025-05-03T10:48:03Z</time>
      </trkpt>
      <trkpt lat="41.115652984008193" lon="-7.893102010712028">
        <ele>288.52999999999997</ele>
        <time>2025-05-03T10:48:04Z</time>
      </trkpt>
      <trkpt lat="41.115184016525745" lon="-7.89362202398479">
        <ele>290.45999999999998</ele>
        <time>2025-05-03T10:48:08Z</time>
      </trkpt>
      <trkpt lat="41.11512802541256" lon="-7.893753033131361">
        <ele>290.94</ele>
        <time>2025-05-03T10:48:09Z</time>
      </trkpt>
      <trkpt lat="41.115091983228922" lon="-7.893892005085945">
        <ele>291.42000000000002</ele>
        <time>2025-05-03T10:48:10Z</time>
      </trkpt>
      <trkpt lat="41.115054013207555" lon="-7.894038017839193">
        <ele>292.38</ele>
        <time>2025-05-03T10:48:11Z</time>
      </trkpt>
      <trkpt lat="41.115012019872665" lon="-7.89420498535037">
        <ele>293.33999999999997</ele>
        <time>2025-05-03T10:48:12Z</time>
      </trkpt>
      <trkpt lat="41.114955022931099" lon="-7.894390979781747">
        <ele>293.81999999999999</ele>
        <time>2025-05-03T10:48:13Z</time>
      </trkpt>
      <trkpt lat="41.114878999069333" lon="-7.894588960334659">
        <ele>294.77999999999997</ele>
        <time>2025-05-03T10:48:14Z</time>
      </trkpt>
      <trkpt lat="41.114799035713077" lon="-7.894794987514615">
        <ele>295.74000000000001</ele>
        <time>2025-05-03T10:48:15Z</time>
      </trkpt>
      <trkpt lat="41.114718988537788" lon="-7.895005038008094">
        <ele>296.22000000000003</ele>
        <time>2025-05-03T10:48:16Z</time>
      </trkpt>
      <trkpt lat="41.11463600769639" lon="-7.895219027996063">
        <ele>297.18000000000001</ele>
        <time>2025-05-03T10:48:17Z</time>
      </trkpt>
      <trkpt lat="41.114552021026611" lon="-7.895437963306904">
        <ele>297.67000000000002</ele>
        <time>2025-05-03T10:48:18Z</time>
      </trkpt>
      <trkpt lat="41.114437021315098" lon="-7.895625969395042">
        <ele>298.63</ele>
        <time>2025-05-03T10:48:19Z</time>
      </trkpt>
      <trkpt lat="41.11414197832346" lon="-7.896169032901526">
        <ele>300.06999999999999</ele>
        <time>2025-05-03T10:48:22Z</time>
      </trkpt>
      <trkpt lat="41.113980039954185" lon="-7.896443037316203">
        <ele>301.02999999999997</ele>
        <time>2025-05-03T10:48:24Z</time>
      </trkpt>
      <trkpt lat="41.11388498917222" lon="-7.896548984572291">
        <ele>301.50999999999999</ele>
        <time>2025-05-03T10:48:25Z</time>
      </trkpt>
      <trkpt lat="41.113779963925481" lon="-7.896646969020367">
        <ele>302.47000000000003</ele>
        <time>2025-05-03T10:48:26Z</time>
      </trkpt>
      <trkpt lat="41.113673010841012" lon="-7.896745037287474">
        <ele>302.94999999999999</ele>
        <time>2025-05-03T10:48:27Z</time>
      </trkpt>
      <trkpt lat="41.113544013351202" lon="-7.896852996200323">
        <ele>303.43000000000001</ele>
        <time>2025-05-03T10:48:28Z</time>
      </trkpt>
      <trkpt lat="41.113448040559888" lon="-7.896919967606664">
        <ele>304.38999999999999</ele>
        <time>2025-05-03T10:48:29Z</time>
      </trkpt>
      <trkpt lat="41.112430980429053" lon="-7.897685989737511">
        <ele>312.08999999999997</ele>
        <time>2025-05-03T10:48:38Z</time>
      </trkpt>
      <trkpt lat="41.112338025122881" lon="-7.897824961692095">
        <ele>313.05000000000001</ele>
        <time>2025-05-03T10:48:39Z</time>
      </trkpt>
      <trkpt lat="41.112249009311199" lon="-7.897958988323808">
        <ele>314.00999999999999</ele>
        <time>2025-05-03T10:48:40Z</time>
      </trkpt>
      <trkpt lat="41.112170973792672" lon="-7.898075999692082">
        <ele>314.49000000000001</ele>
        <time>2025-05-03T10:48:41Z</time>
      </trkpt>
      <trkpt lat="41.112053040415049" lon="-7.898120004683733">
        <ele>315.44999999999999</ele>
        <time>2025-05-03T10:48:42Z</time>
      </trkpt>
      <trkpt lat="41.111942986026406" lon="-7.898142971098423">
        <ele>316.41000000000003</ele>
        <time>2025-05-03T10:48:43Z</time>
      </trkpt>
      <trkpt lat="41.11182002350688" lon="-7.898149006068707">
        <ele>317.37</ele>
        <time>2025-05-03T10:48:44Z</time>
      </trkpt>
      <trkpt lat="41.111699994653463" lon="-7.898155963048339">
        <ele>318.32999999999998</ele>
        <time>2025-05-03T10:48:45Z</time>
      </trkpt>
      <trkpt lat="41.111591029912233" lon="-7.898161998018622">
        <ele>318.81</ele>
        <time>2025-05-03T10:48:46Z</time>
      </trkpt>
      <trkpt lat="41.111505031585693" lon="-7.898100977763534">
        <ele>320.25999999999999</ele>
        <time>2025-05-03T10:48:47Z</time>
      </trkpt>
      <trkpt lat="41.111377039924264" lon="-7.898011039942503">
        <ele>320.74000000000001</ele>
        <time>2025-05-03T10:48:48Z</time>
      </trkpt>
      <trkpt lat="41.110832970589399" lon="-7.897351970896125">
        <ele>325.54000000000002</ele>
        <time>2025-05-03T10:48:54Z</time>
      </trkpt>
      <trkpt lat="41.11068301834166" lon="-7.897157007828355">
        <ele>326.99000000000001</ele>
        <time>2025-05-03T10:48:56Z</time>
      </trkpt>
      <trkpt lat="41.110591990873218" lon="-7.897099005058408">
        <ele>327.47000000000003</ele>
        <time>2025-05-03T10:48:57Z</time>
      </trkpt>
      <trkpt lat="41.11048998311162" lon="-7.897078972309828">
        <ele>327.94999999999999</ele>
        <time>2025-05-03T10:48:58Z</time>
      </trkpt>
      <trkpt lat="41.110382024198771" lon="-7.897101016715169">
        <ele>328.43000000000001</ele>
        <time>2025-05-03T10:48:59Z</time>
      </trkpt>
      <trkpt lat="41.110288985073566" lon="-7.897162958979607">
        <ele>329.38999999999999</ele>
        <time>2025-05-03T10:49:00Z</time>
      </trkpt>
      <trkpt lat="41.110189994797111" lon="-7.897229008376598">
        <ele>329.87</ele>
        <time>2025-05-03T10:49:01Z</time>
      </trkpt>
      <trkpt lat="41.109977010637522" lon="-7.897374015301466">
        <ele>330.35000000000002</ele>
        <time>2025-05-03T10:49:03Z</time>
      </trkpt>
      <trkpt lat="41.109901992604136" lon="-7.897483985871077">
        <ele>330.82999999999998</ele>
        <time>2025-05-03T10:49:04Z</time>
      </trkpt>
      <trkpt lat="41.109828986227512" lon="-7.897592028602958">
        <ele>331.31</ele>
        <time>2025-05-03T10:49:05Z</time>
      </trkpt>
      <trkpt lat="41.109751034528017" lon="-7.89770501665771">
        <ele>332.26999999999998</ele>
        <time>2025-05-03T10:49:06Z</time>
      </trkpt>
      <trkpt lat="41.109666964039207" lon="-7.897793026641011">
        <ele>332.75</ele>
        <time>2025-05-03T10:49:07Z</time>
      </trkpt>
      <trkpt lat="41.10956403426826" lon="-7.897837031632662">
        <ele>333.23000000000002</ele>
        <time>2025-05-03T10:49:08Z</time>
      </trkpt>
      <trkpt lat="41.109439982101321" lon="-7.897805012762547">
        <ele>333.23000000000002</ele>
        <time>2025-05-03T10:49:09Z</time>
      </trkpt>
      <trkpt lat="41.109302015975118" lon="-7.897768970578909">
        <ele>333.70999999999998</ele>
        <time>2025-05-03T10:49:10Z</time>
      </trkpt>
      <trkpt lat="41.108932960778475" lon="-7.897703005000949">
        <ele>335.63999999999999</ele>
        <time>2025-05-03T10:49:13Z</time>
      </trkpt>
      <trkpt lat="41.10883598215878" lon="-7.897724965587258">
        <ele>336.12</ele>
        <time>2025-05-03T10:49:14Z</time>
      </trkpt>
      <trkpt lat="41.108765993267298" lon="-7.897816998884082">
        <ele>336.12</ele>
        <time>2025-05-03T10:49:15Z</time>
      </trkpt>
      <trkpt lat="41.108714025467634" lon="-7.89794197306037">
        <ele>336.60000000000002</ele>
        <time>2025-05-03T10:49:16Z</time>
      </trkpt>
      <trkpt lat="41.108658034354448" lon="-7.898074993863702">
        <ele>337.07999999999998</ele>
        <time>2025-05-03T10:49:17Z</time>
      </trkpt>
      <trkpt lat="41.108612017706037" lon="-7.898223018273711">
        <ele>337.56</ele>
        <time>2025-05-03T10:49:18Z</time>
      </trkpt>
      <trkpt lat="41.108579998835921" lon="-7.898364001885057">
        <ele>338.04000000000002</ele>
        <time>2025-05-03T10:49:19Z</time>
      </trkpt>
      <trkpt lat="41.108549991622567" lon="-7.89849903434515">
        <ele>338.51999999999998</ele>
        <time>2025-05-03T10:49:20Z</time>
      </trkpt>
      <trkpt lat="41.108521996065974" lon="-7.898627026006579">
        <ele>338.51999999999998</ele>
        <time>2025-05-03T10:49:21Z</time>
      </trkpt>
      <trkpt lat="41.108487965539098" lon="-7.89873699657619">
        <ele>338.51999999999998</ele>
        <time>2025-05-03T10:49:22Z</time>
      </trkpt>
      <trkpt lat="41.108402973040938" lon="-7.89884596131742">
        <ele>338.51999999999998</ele>
        <time>2025-05-03T10:49:23Z</time>
      </trkpt>
      <trkpt lat="41.108325021341443" lon="-7.898977976292372">
        <ele>338.51999999999998</ele>
        <time>2025-05-03T10:49:24Z</time>
      </trkpt>
      <trkpt lat="41.108265006914735" lon="-7.899146033450961">
        <ele>338.51999999999998</ele>
        <time>2025-05-03T10:49:25Z</time>
      </trkpt>
      <trkpt lat="41.108265006914735" lon="-7.899315012618899">
        <ele>339</ele>
        <time>2025-05-03T10:49:26Z</time>
      </trkpt>
      <trkpt lat="41.108284033834934" lon="-7.899505030363798">
        <ele>339</ele>
        <time>2025-05-03T10:49:27Z</time>
      </trkpt>
      <trkpt lat="41.108356034383178" lon="-7.899638973176479">
        <ele>339.48000000000002</ele>
        <time>2025-05-03T10:49:28Z</time>
      </trkpt>
      <trkpt lat="41.10844798386097" lon="-7.899779034778476">
        <ele>339.48000000000002</ele>
        <time>2025-05-03T10:49:29Z</time>
      </trkpt>
      <trkpt lat="41.108570024371147" lon="-7.899889005348086">
        <ele>339.48000000000002</ele>
        <time>2025-05-03T10:49:30Z</time>
      </trkpt>
      <trkpt lat="41.109410980716348" lon="-7.900651004165411">
        <ele>340.92000000000002</ele>
        <time>2025-05-03T10:49:35Z</time>
      </trkpt>
      <trkpt lat="41.109766960144043" lon="-7.901015030220151">
        <ele>341.41000000000003</ele>
        <time>2025-05-03T10:49:38Z</time>
      </trkpt>
      <trkpt lat="41.109821023419499" lon="-7.901122989133">
        <ele>341.88999999999999</ele>
        <time>2025-05-03T10:49:39Z</time>
      </trkpt>
      <trkpt lat="41.109875002875924" lon="-7.901242012158036">
        <ele>342.37</ele>
        <time>2025-05-03T10:49:40Z</time>
      </trkpt>
      <trkpt lat="41.109881959855556" lon="-7.901365980505943">
        <ele>343.32999999999998</ele>
        <time>2025-05-03T10:49:41Z</time>
      </trkpt>
      <trkpt lat="41.10988799482584" lon="-7.901495983824134">
        <ele>343.81</ele>
        <time>2025-05-03T10:49:42Z</time>
      </trkpt>
      <trkpt lat="41.109939040616155" lon="-7.902672970667481">
        <ele>348.13</ele>
        <time>2025-05-03T10:49:50Z</time>
      </trkpt>
      <trkpt lat="41.109889000654221" lon="-7.904482958838344">
        <ele>349.10000000000002</ele>
        <time>2025-05-03T10:50:01Z</time>
      </trkpt>
      <trkpt lat="41.109838960692286" lon="-7.904592007398605">
        <ele>348.13</ele>
        <time>2025-05-03T10:50:02Z</time>
      </trkpt>
      <trkpt lat="41.109765032306314" lon="-7.904664007946849">
        <ele>347.64999999999998</ele>
        <time>2025-05-03T10:50:03Z</time>
      </trkpt>
      <trkpt lat="41.109638968482614" lon="-7.904706001281738">
        <ele>346.69</ele>
        <time>2025-05-03T10:50:04Z</time>
      </trkpt>
      <trkpt lat="41.109542995691299" lon="-7.904706001281738">
        <ele>346.20999999999998</ele>
        <time>2025-05-03T10:50:05Z</time>
      </trkpt>
      <trkpt lat="41.109420033171773" lon="-7.904699966311455">
        <ele>345.73000000000002</ele>
        <time>2025-05-03T10:50:06Z</time>
      </trkpt>
      <trkpt lat="41.109290029853582" lon="-7.904667025431991">
        <ele>345.25</ele>
        <time>2025-05-03T10:50:07Z</time>
      </trkpt>
      <trkpt lat="41.109160026535392" lon="-7.904635006561875">
        <ele>344.76999999999998</ele>
        <time>2025-05-03T10:50:08Z</time>
      </trkpt>
      <trkpt lat="41.109045026823878" lon="-7.904567029327154">
        <ele>344.29000000000002</ele>
        <time>2025-05-03T10:50:09Z</time>
      </trkpt>
      <trkpt lat="41.108930027112365" lon="-7.904458986595273">
        <ele>343.81</ele>
        <time>2025-05-03T10:50:10Z</time>
      </trkpt>
      <trkpt lat="41.10881301574409" lon="-7.904349016025662">
        <ele>343.32999999999998</ele>
        <time>2025-05-03T10:50:11Z</time>
      </trkpt>
      <trkpt lat="41.108699021860957" lon="-7.904225969687104">
        <ele>342.85000000000002</ele>
        <time>2025-05-03T10:50:12Z</time>
      </trkpt>
      <trkpt lat="41.108268024399877" lon="-7.903702016919851">
        <ele>340.92000000000002</ele>
        <time>2025-05-03T10:50:16Z</time>
      </trkpt>
      <trkpt lat="41.108155958354473" lon="-7.903567990288138">
        <ele>340.44</ele>
        <time>2025-05-03T10:50:17Z</time>
      </trkpt>
      <trkpt lat="41.10801899805665" lon="-7.903510993346572">
        <ele>339.95999999999998</ele>
        <time>2025-05-03T10:50:18Z</time>
      </trkpt>
      <trkpt lat="41.107900980859995" lon="-7.903461959213018">
        <ele>339.48000000000002</ele>
        <time>2025-05-03T10:50:19Z</time>
      </trkpt>
      <trkpt lat="41.107738958671689" lon="-7.903461959213018">
        <ele>339</ele>
        <time>2025-05-03T10:50:20Z</time>
      </trkpt>
      <trkpt lat="41.107590012252331" lon="-7.903472017496824">
        <ele>338.51999999999998</ele>
        <time>2025-05-03T10:50:21Z</time>
      </trkpt>
      <trkpt lat="41.10743997618556" lon="-7.903521973639727">
        <ele>338.04000000000002</ele>
        <time>2025-05-03T10:50:22Z</time>
      </trkpt>
      <trkpt lat="41.107290023937821" lon="-7.903572013601661">
        <ele>337.07999999999998</ele>
        <time>2025-05-03T10:50:23Z</time>
      </trkpt>
      <trkpt lat="41.107139987871051" lon="-7.90359397418797">
        <ele>336.12</ele>
        <time>2025-05-03T10:50:24Z</time>
      </trkpt>
      <trkpt lat="41.106713013723493" lon="-7.903603026643395">
        <ele>334.19999999999999</ele>
        <time>2025-05-03T10:50:27Z</time>
      </trkpt>
      <trkpt lat="41.106580998748541" lon="-7.903565978631377">
        <ele>333.70999999999998</ele>
        <time>2025-05-03T10:50:28Z</time>
      </trkpt>
      <trkpt lat="41.106338007375598" lon="-7.903469000011683">
        <ele>332.26999999999998</ele>
        <time>2025-05-03T10:50:30Z</time>
      </trkpt>
      <trkpt lat="41.106222001835704" lon="-7.903404962271452">
        <ele>331.31</ele>
        <time>2025-05-03T10:50:31Z</time>
      </trkpt>
      <trkpt lat="41.106108007952571" lon="-7.903343020007014">
        <ele>330.82999999999998</ele>
        <time>2025-05-03T10:50:32Z</time>
      </trkpt>
      <trkpt lat="41.105496967211366" lon="-7.902988968417049">
        <ele>328.43000000000001</ele>
        <time>2025-05-03T10:50:37Z</time>
      </trkpt>
      <trkpt lat="41.10539797693491" lon="-7.902901964262128">
        <ele>327.94999999999999</ele>
        <time>2025-05-03T10:50:38Z</time>
      </trkpt>
      <trkpt lat="41.105314996093512" lon="-7.902767015621066">
        <ele>327.47000000000003</ele>
        <time>2025-05-03T10:50:39Z</time>
      </trkpt>
      <trkpt lat="41.105138976126909" lon="-7.902521006762981">
        <ele>325.06</ele>
        <time>2025-05-03T10:50:41Z</time>
      </trkpt>
      <trkpt lat="41.105021964758635" lon="-7.902461998164654">
        <ele>324.10000000000002</ele>
        <time>2025-05-03T10:50:42Z</time>
      </trkpt>
      <trkpt lat="41.104891961440444" lon="-7.902426961809397">
        <ele>322.66000000000003</ele>
        <time>2025-05-03T10:50:43Z</time>
      </trkpt>
      <trkpt lat="41.104045975953341" lon="-7.90219796821475">
        <ele>316.88999999999999</ele>
        <time>2025-05-03T10:50:49Z</time>
      </trkpt>
      <trkpt lat="41.103917984291911" lon="-7.902124961838126">
        <ele>316.41000000000003</ele>
        <time>2025-05-03T10:50:50Z</time>
      </trkpt>
      <trkpt lat="41.103788986802101" lon="-7.902060002088547">
        <ele>315.44999999999999</ele>
        <time>2025-05-03T10:50:51Z</time>
      </trkpt>
      <trkpt lat="41.103664012625813" lon="-7.901997976005077">
        <ele>314.49000000000001</ele>
        <time>2025-05-03T10:50:52Z</time>
      </trkpt>
      <trkpt lat="41.103587988764048" lon="-7.90196000598371">
        <ele>313.52999999999997</ele>
        <time>2025-05-03T10:50:53Z</time>
      </trkpt>
      <trkpt lat="41.103475000709295" lon="-7.9018310084939">
        <ele>312.56999999999999</ele>
        <time>2025-05-03T10:50:54Z</time>
      </trkpt>
      <trkpt lat="41.103412974625826" lon="-7.901725983247161">
        <ele>311.60000000000002</ele>
        <time>2025-05-03T10:50:55Z</time>
      </trkpt>
      <trkpt lat="41.103365030139685" lon="-7.901606038212776">
        <ele>310.63999999999999</ele>
        <time>2025-05-03T10:50:56Z</time>
      </trkpt>
      <trkpt lat="41.103319013491273" lon="-7.901491038501263">
        <ele>310.16000000000003</ele>
        <time>2025-05-03T10:50:57Z</time>
      </trkpt>
      <trkpt lat="41.103246007114649" lon="-7.901416020467877">
        <ele>309.19999999999999</ele>
        <time>2025-05-03T10:50:58Z</time>
      </trkpt>
      <trkpt lat="41.103164032101631" lon="-7.901394981890917">
        <ele>308.72000000000003</ele>
        <time>2025-05-03T10:50:59Z</time>
      </trkpt>
      <trkpt lat="41.103082979097962" lon="-7.90144401602447">
        <ele>307.75999999999999</ele>
        <time>2025-05-03T10:51:00Z</time>
      </trkpt>
      <trkpt lat="41.103024976328015" lon="-7.90154904127121">
        <ele>307.27999999999997</ele>
        <time>2025-05-03T10:51:01Z</time>
      </trkpt>
      <trkpt lat="41.102959010750055" lon="-7.901674015447497">
        <ele>306.80000000000001</ele>
        <time>2025-05-03T10:51:02Z</time>
      </trkpt>
      <trkpt lat="41.102894973009825" lon="-7.901823967695236">
        <ele>305.83999999999997</ele>
        <time>2025-05-03T10:51:03Z</time>
      </trkpt>
      <trkpt lat="41.102578975260258" lon="-7.902569035068154">
        <ele>302.47000000000003</ele>
        <time>2025-05-03T10:51:08Z</time>
      </trkpt>
      <trkpt lat="41.102492976933718" lon="-7.902685962617397">
        <ele>301.50999999999999</ele>
        <time>2025-05-03T10:51:09Z</time>
      </trkpt>
      <trkpt lat="41.101897023618221" lon="-7.903529014438391">
        <ele>295.25999999999999</ele>
        <time>2025-05-03T10:51:16Z</time>
      </trkpt>
      <trkpt lat="41.101804990321398" lon="-7.90363403968513">
        <ele>294.77999999999997</ele>
        <time>2025-05-03T10:51:17Z</time>
      </trkpt>
      <trkpt lat="41.101635005325079" lon="-7.903825985267758">
        <ele>292.86000000000001</ele>
        <time>2025-05-03T10:51:19Z</time>
      </trkpt>
      <trkpt lat="41.101601980626583" lon="-7.903925981372595">
        <ele>292.38</ele>
        <time>2025-05-03T10:51:20Z</time>
      </trkpt>
      <trkpt lat="41.101569039747119" lon="-7.90402295999229">
        <ele>291.42000000000002</ele>
        <time>2025-05-03T10:51:21Z</time>
      </trkpt>
      <trkpt lat="41.101538026705384" lon="-7.904117004945874">
        <ele>290.45999999999998</ele>
        <time>2025-05-03T10:51:22Z</time>
      </trkpt>
      <trkpt lat="41.101527968421578" lon="-7.904148017987609">
        <ele>289.97000000000003</ele>
        <time>2025-05-03T10:51:23Z</time>
      </trkpt>
      <trkpt lat="41.101542972028255" lon="-7.90425798855722">
        <ele>289.00999999999999</ele>
        <time>2025-05-03T10:51:24Z</time>
      </trkpt>
      <trkpt lat="41.101549006998539" lon="-7.904297970235348">
        <ele>288.05000000000001</ele>
        <time>2025-05-03T10:51:25Z</time>
      </trkpt>
      <trkpt lat="41.101549006998539" lon="-7.904297970235348">
        <ele>287.08999999999997</ele>
        <time>2025-05-03T10:51:26Z</time>
      </trkpt>
      <trkpt lat="41.101549006998539" lon="-7.904297970235348">
        <ele>286.61000000000001</ele>
        <time>2025-05-03T10:51:27Z</time>
      </trkpt>
      <trkpt lat="41.101549006998539" lon="-7.904297970235348">
        <ele>285.64999999999998</ele>
        <time>2025-05-03T10:51:28Z</time>
      </trkpt>
      <trkpt lat="41.10163601115346" lon="-7.904330994933844">
        <ele>285.17000000000002</ele>
        <time>2025-05-03T10:51:29Z</time>
      </trkpt>
      <trkpt lat="41.101685967296362" lon="-7.904350021854043">
        <ele>284.20999999999998</ele>
        <time>2025-05-03T10:51:30Z</time>
      </trkpt>
      <trkpt lat="41.101721003651619" lon="-7.904363013803959">
        <ele>283.25</ele>
        <time>2025-05-03T10:51:31Z</time>
      </trkpt>
      <trkpt lat="41.101721003651619" lon="-7.904363013803959">
        <ele>282.76999999999998</ele>
        <time>2025-05-03T10:51:32Z</time>
      </trkpt>
      <trkpt lat="41.102578975260258" lon="-7.903959006071091">
        <ele>279.39999999999998</ele>
        <time>2025-05-03T10:51:39Z</time>
      </trkpt>
      <trkpt lat="41.102720964699984" lon="-7.903926987200975">
        <ele>278.92000000000002</ele>
        <time>2025-05-03T10:51:40Z</time>
      </trkpt>
      <trkpt lat="41.103007961064577" lon="-7.903868984431028">
        <ele>278.92000000000002</ele>
        <time>2025-05-03T10:51:41Z</time>
      </trkpt>
      <trkpt lat="41.103200996294618" lon="-7.90393402799964">
        <ele>278.92000000000002</ele>
        <time>2025-05-03T10:51:42Z</time>
      </trkpt>
      <trkpt lat="41.103304009884596" lon="-7.904026983305812">
        <ele>278.92000000000002</ele>
        <time>2025-05-03T10:51:43Z</time>
      </trkpt>
      <trkpt lat="41.103500984609127" lon="-7.904338035732508">
        <ele>279.39999999999998</ele>
        <time>2025-05-03T10:51:44Z</time>
      </trkpt>
      <trkpt lat="41.103543983772397" lon="-7.904467033222318">
        <ele>279.88</ele>
        <time>2025-05-03T10:51:45Z</time>
      </trkpt>
      <trkpt lat="41.103544989600778" lon="-7.904684962704778">
        <ele>280.36000000000001</ele>
        <time>2025-05-03T10:51:46Z</time>
      </trkpt>
      <trkpt lat="41.10350601375103" lon="-7.90490398183465">
        <ele>281.31999999999999</ele>
        <time>2025-05-03T10:51:47Z</time>
      </trkpt>
      <trkpt lat="41.103482041507959" lon="-7.905039014294744">
        <ele>282.27999999999997</ele>
        <time>2025-05-03T10:51:48Z</time>
      </trkpt>
      <trkpt lat="41.103459997102618" lon="-7.90516197681427">
        <ele>283.73000000000002</ele>
        <time>2025-05-03T10:51:49Z</time>
      </trkpt>
      <trkpt lat="41.103437030687928" lon="-7.905285023152828">
        <ele>284.20999999999998</ele>
        <time>2025-05-03T10:51:50Z</time>
      </trkpt>
      <trkpt lat="41.103437030687928" lon="-7.905285023152828">
        <ele>285.17000000000002</ele>
        <time>2025-05-03T10:51:51Z</time>
      </trkpt>
      <trkpt lat="41.103492015972733" lon="-7.90544000454247">
        <ele>285.64999999999998</ele>
        <time>2025-05-03T10:51:52Z</time>
      </trkpt>
      <trkpt lat="41.103539960458875" lon="-7.905576964840293">
        <ele>287.08999999999997</ele>
        <time>2025-05-03T10:51:53Z</time>
      </trkpt>
      <trkpt lat="41.103584971278906" lon="-7.905707973986864">
        <ele>288.52999999999997</ele>
        <time>2025-05-03T10:51:54Z</time>
      </trkpt>
      <trkpt lat="41.103674992918968" lon="-7.905964963138104">
        <ele>290.94</ele>
        <time>2025-05-03T10:51:56Z</time>
      </trkpt>
      <trkpt lat="41.103738024830818" lon="-7.906144000589848">
        <ele>291.89999999999998</ele>
        <time>2025-05-03T10:51:57Z</time>
      </trkpt>
      <trkpt lat="41.103752022609115" lon="-7.906240979209542">
        <ele>292.86000000000001</ele>
        <time>2025-05-03T10:51:58Z</time>
      </trkpt>
      <trkpt lat="41.103781023994088" lon="-7.906443988904357">
        <ele>294.77999999999997</ele>
        <time>2025-05-03T10:51:59Z</time>
      </trkpt>
      <trkpt lat="41.103755962103605" lon="-7.906509032472968">
        <ele>296.22000000000003</ele>
        <time>2025-05-03T10:52:00Z</time>
      </trkpt>
      <trkpt lat="41.103672981262207" lon="-7.906723022460938">
        <ele>298.14999999999998</ele>
        <time>2025-05-03T10:52:01Z</time>
      </trkpt>
      <trkpt lat="41.103636017069221" lon="-7.90677297860384">
        <ele>298.63</ele>
        <time>2025-05-03T10:52:02Z</time>
      </trkpt>
      <trkpt lat="41.103515988215804" lon="-7.906937012448907">
        <ele>301.99000000000001</ele>
        <time>2025-05-03T10:52:04Z</time>
      </trkpt>
      <trkpt lat="41.103372992947698" lon="-7.907130969688296">
        <ele>302.47000000000003</ele>
        <time>2025-05-03T10:52:05Z</time>
      </trkpt>
      <trkpt lat="41.103372992947698" lon="-7.907130969688296">
        <ele>303.43000000000001</ele>
        <time>2025-05-03T10:52:06Z</time>
      </trkpt>
      <trkpt lat="41.103352038189769" lon="-7.907301960512996">
        <ele>303.91000000000003</ele>
        <time>2025-05-03T10:52:07Z</time>
      </trkpt>
      <trkpt lat="41.103408029302955" lon="-7.907513016834855">
        <ele>304.38999999999999</ele>
        <time>2025-05-03T10:52:08Z</time>
      </trkpt>
      <trkpt lat="41.103501990437508" lon="-7.90763396769762">
        <ele>305.36000000000001</ele>
        <time>2025-05-03T10:52:09Z</time>
      </trkpt>
      <trkpt lat="41.103601986542344" lon="-7.907761037349701">
        <ele>305.83999999999997</ele>
        <time>2025-05-03T10:52:10Z</time>
      </trkpt>
      <trkpt lat="41.104014040902257" lon="-7.908327989280224">
        <ele>308.72000000000003</ele>
        <time>2025-05-03T10:52:15Z</time>
      </trkpt>
      <trkpt lat="41.104102972894907" lon="-7.908482970669866">
        <ele>309.19999999999999</ele>
        <time>2025-05-03T10:52:16Z</time>
      </trkpt>
      <trkpt lat="41.104113031178713" lon="-7.908551031723619">
        <ele>309.68000000000001</ele>
        <time>2025-05-03T10:52:17Z</time>
      </trkpt>
      <trkpt lat="41.104135997593403" lon="-7.908702995628119">
        <ele>310.63999999999999</ele>
        <time>2025-05-03T10:52:18Z</time>
      </trkpt>
      <trkpt lat="41.104167010635138" lon="-7.908912040293217">
        <ele>311.60000000000002</ele>
        <time>2025-05-03T10:52:19Z</time>
      </trkpt>
      <trkpt lat="41.104124011471868" lon="-7.909126030281186">
        <ele>312.56999999999999</ele>
        <time>2025-05-03T10:52:20Z</time>
      </trkpt>
      <trkpt lat="41.104068020358682" lon="-7.909233989194036">
        <ele>313.52999999999997</ele>
        <time>2025-05-03T10:52:21Z</time>
      </trkpt>
      <trkpt lat="41.103795021772385" lon="-7.909798007458448">
        <ele>317.85000000000002</ele>
        <time>2025-05-03T10:52:25Z</time>
      </trkpt>
      <trkpt lat="41.103746993467212" lon="-7.909947959706187">
        <ele>319.30000000000001</ele>
        <time>2025-05-03T10:52:26Z</time>
      </trkpt>
      <trkpt lat="41.103695025667548" lon="-7.910112999379635">
        <ele>320.25999999999999</ele>
        <time>2025-05-03T10:52:27Z</time>
      </trkpt>
      <trkpt lat="41.103654960170388" lon="-7.910420028492808">
        <ele>322.18000000000001</ele>
        <time>2025-05-03T10:52:29Z</time>
      </trkpt>
      <trkpt lat="41.103630987927318" lon="-7.910607028752565">
        <ele>322.66000000000003</ele>
        <time>2025-05-03T10:52:30Z</time>
      </trkpt>
      <trkpt lat="41.103648003190756" lon="-7.910738959908485">
        <ele>323.62</ele>
        <time>2025-05-03T10:52:31Z</time>
      </trkpt>
      <trkpt lat="41.103686979040504" lon="-7.910942975431681">
        <ele>324.10000000000002</ele>
        <time>2025-05-03T10:52:32Z</time>
      </trkpt>
      <trkpt lat="41.103751016780734" lon="-7.911006007343531">
        <ele>324.57999999999998</ele>
        <time>2025-05-03T10:52:33Z</time>
      </trkpt>
      <trkpt lat="41.103871967643499" lon="-7.911106003448367">
        <ele>325.06</ele>
        <time>2025-05-03T10:52:34Z</time>
      </trkpt>
      <trkpt lat="41.103971963748336" lon="-7.911126958206296">
        <ele>325.54000000000002</ele>
        <time>2025-05-03T10:52:35Z</time>
      </trkpt>
      <trkpt lat="41.104081012308598" lon="-7.911150008440018">
        <ele>325.54000000000002</ele>
        <time>2025-05-03T10:52:36Z</time>
      </trkpt>
      <trkpt lat="41.104192994534969" lon="-7.911173980683088">
        <ele>326.01999999999998</ele>
        <time>2025-05-03T10:52:37Z</time>
      </trkpt>
      <trkpt lat="41.104276981204748" lon="-7.91119996458292">
        <ele>326.5</ele>
        <time>2025-05-03T10:52:38Z</time>
      </trkpt>
      <trkpt lat="41.104384018108249" lon="-7.911258973181248">
        <ele>326.99000000000001</ele>
        <time>2025-05-03T10:52:39Z</time>
      </trkpt>
      <trkpt lat="41.104683000594378" lon="-7.911448990926147">
        <ele>327.47000000000003</ele>
        <time>2025-05-03T10:52:42Z</time>
      </trkpt>
      <trkpt lat="41.104775033891201" lon="-7.911548987030983">
        <ele>327.47000000000003</ele>
        <time>2025-05-03T10:52:43Z</time>
      </trkpt>
      <trkpt lat="41.104923980310559" lon="-7.911741016432643">
        <ele>326.5</ele>
        <time>2025-05-03T10:52:45Z</time>
      </trkpt>
      <trkpt lat="41.105004027485847" lon="-7.911873031407595">
        <ele>326.01999999999998</ele>
        <time>2025-05-03T10:52:46Z</time>
      </trkpt>
      <trkpt lat="41.105022970587015" lon="-7.911943020299077">
        <ele>325.54000000000002</ele>
        <time>2025-05-03T10:52:47Z</time>
      </trkpt>
      <trkpt lat="41.10505398362875" lon="-7.91205701418221">
        <ele>325.06</ele>
        <time>2025-05-03T10:52:48Z</time>
      </trkpt>
      <trkpt lat="41.105061024427414" lon="-7.912141000851989">
        <ele>324.57999999999998</ele>
        <time>2025-05-03T10:52:49Z</time>
      </trkpt>
      <trkpt lat="41.105034034699202" lon="-7.912262035533786">
        <ele>324.57999999999998</ele>
        <time>2025-05-03T10:52:50Z</time>
      </trkpt>
      <trkpt lat="41.104992963373661" lon="-7.912383992224932">
        <ele>324.10000000000002</ele>
        <time>2025-05-03T10:52:51Z</time>
      </trkpt>
      <trkpt lat="41.104938983917236" lon="-7.912523970007896">
        <ele>324.10000000000002</ele>
        <time>2025-05-03T10:52:52Z</time>
      </trkpt>
      <trkpt lat="41.10481602139771" lon="-7.912842985242605">
        <ele>323.13999999999999</ele>
        <time>2025-05-03T10:52:54Z</time>
      </trkpt>
      <trkpt lat="41.104771010577679" lon="-7.913037026301026">
        <ele>322.66000000000003</ele>
        <time>2025-05-03T10:52:55Z</time>
      </trkpt>
      <trkpt lat="41.104780985042453" lon="-7.9132179915905">
        <ele>322.18000000000001</ele>
        <time>2025-05-03T10:52:56Z</time>
      </trkpt>
      <trkpt lat="41.104800011962652" lon="-7.913405997678638">
        <ele>321.69999999999999</ele>
        <time>2025-05-03T10:52:57Z</time>
      </trkpt>
      <trkpt lat="41.104852985590696" lon="-7.913558967411518">
        <ele>321.69999999999999</ele>
        <time>2025-05-03T10:52:58Z</time>
      </trkpt>
      <trkpt lat="41.105409041047096" lon="-7.914765039458871">
        <ele>318.81</ele>
        <time>2025-05-03T10:53:07Z</time>
      </trkpt>
      <trkpt lat="41.10567701049149" lon="-7.915244987234473">
        <ele>317.37</ele>
        <time>2025-05-03T10:53:11Z</time>
      </trkpt>
      <trkpt lat="41.105754962190986" lon="-7.915412960574031">
        <ele>316.88999999999999</ele>
        <time>2025-05-03T10:53:12Z</time>
      </trkpt>
      <trkpt lat="41.105766026303172" lon="-7.915541036054492">
        <ele>315.93000000000001</ele>
        <time>2025-05-03T10:53:13Z</time>
      </trkpt>
      <trkpt lat="41.105765020474792" lon="-7.915723007172346">
        <ele>315.44999999999999</ele>
        <time>2025-05-03T10:53:14Z</time>
      </trkpt>
      <trkpt lat="41.105736019089818" lon="-7.915913024917245">
        <ele>314.97000000000003</ele>
        <time>2025-05-03T10:53:15Z</time>
      </trkpt>
      <trkpt lat="41.105707017704844" lon="-7.916099019348621">
        <ele>315.44999999999999</ele>
        <time>2025-05-03T10:53:16Z</time>
      </trkpt>
      <trkpt lat="41.1056989710778" lon="-7.916285013779998">
        <ele>315.44999999999999</ele>
        <time>2025-05-03T10:53:17Z</time>
      </trkpt>
      <trkpt lat="41.105729984119534" lon="-7.916447035968304">
        <ele>314.97000000000003</ele>
        <time>2025-05-03T10:53:18Z</time>
      </trkpt>
      <trkpt lat="41.105789998546243" lon="-7.916597994044423">
        <ele>314.97000000000003</ele>
        <time>2025-05-03T10:53:19Z</time>
      </trkpt>
      <trkpt lat="41.1059579718858" lon="-7.917024968191981">
        <ele>314.97000000000003</ele>
        <time>2025-05-03T10:53:22Z</time>
      </trkpt>
      <trkpt lat="41.106012035161257" lon="-7.917160000652075">
        <ele>314.97000000000003</ele>
        <time>2025-05-03T10:53:23Z</time>
      </trkpt>
      <trkpt lat="41.106037013232708" lon="-7.917307019233704">
        <ele>314.97000000000003</ele>
        <time>2025-05-03T10:53:24Z</time>
      </trkpt>
      <trkpt lat="41.10604397021234" lon="-7.917462000623345">
        <ele>314.97000000000003</ele>
        <time>2025-05-03T10:53:25Z</time>
      </trkpt>
      <trkpt lat="41.106050005182624" lon="-7.917615976184607">
        <ele>314.49000000000001</ele>
        <time>2025-05-03T10:53:26Z</time>
      </trkpt>
      <trkpt lat="41.106051011011004" lon="-7.91777296923101">
        <ele>314.49000000000001</ele>
        <time>2025-05-03T10:53:27Z</time>
      </trkpt>
      <trkpt lat="41.106013962998986" lon="-7.917930968105793">
        <ele>314.00999999999999</ele>
        <time>2025-05-03T10:53:28Z</time>
      </trkpt>
      <trkpt lat="41.105976998806" lon="-7.918089972808957">
        <ele>314.00999999999999</ele>
        <time>2025-05-03T10:53:29Z</time>
      </trkpt>
      <trkpt lat="41.105749011039734" lon="-7.919045006856322">
        <ele>312.56999999999999</ele>
        <time>2025-05-03T10:53:35Z</time>
      </trkpt>
      <trkpt lat="41.10567600466311" lon="-7.919168975204229">
        <ele>312.56999999999999</ele>
        <time>2025-05-03T10:53:36Z</time>
      </trkpt>
      <trkpt lat="41.105587994679809" lon="-7.919278023764491">
        <ele>312.56999999999999</ele>
        <time>2025-05-03T10:53:37Z</time>
      </trkpt>
      <trkpt lat="41.105480035766959" lon="-7.919343989342451">
        <ele>313.05000000000001</ele>
        <time>2025-05-03T10:53:38Z</time>
      </trkpt>
      <trkpt lat="41.105367969721556" lon="-7.919412972405553">
        <ele>313.52999999999997</ele>
        <time>2025-05-03T10:53:39Z</time>
      </trkpt>
      <trkpt lat="41.105256993323565" lon="-7.919480027630925">
        <ele>313.52999999999997</ele>
        <time>2025-05-03T10:53:40Z</time>
      </trkpt>
      <trkpt lat="41.104575041681528" lon="-7.91989803314209">
        <ele>314.49000000000001</ele>
        <time>2025-05-03T10:53:46Z</time>
      </trkpt>
      <trkpt lat="41.104450989514589" lon="-7.920035999268293">
        <ele>314.49000000000001</ele>
        <time>2025-05-03T10:53:47Z</time>
      </trkpt>
      <trkpt lat="41.104346970096231" lon="-7.920152004808188">
        <ele>314.49000000000001</ele>
        <time>2025-05-03T10:53:48Z</time>
      </trkpt>
      <trkpt lat="41.104248985648155" lon="-7.920259963721037">
        <ele>314.00999999999999</ele>
        <time>2025-05-03T10:53:49Z</time>
      </trkpt>
      <trkpt lat="41.104149995371699" lon="-7.920370018109679">
        <ele>314.00999999999999</ele>
        <time>2025-05-03T10:53:50Z</time>
      </trkpt>
      <trkpt lat="41.104054022580385" lon="-7.920475965365768">
        <ele>313.05000000000001</ele>
        <time>2025-05-03T10:53:51Z</time>
      </trkpt>
      <trkpt lat="41.103959977626801" lon="-7.920580990612507">
        <ele>312.56999999999999</ele>
        <time>2025-05-03T10:53:52Z</time>
      </trkpt>
      <trkpt lat="41.103865010663867" lon="-7.920686015859246">
        <ele>312.56999999999999</ele>
        <time>2025-05-03T10:53:53Z</time>
      </trkpt>
      <trkpt lat="41.103772977367043" lon="-7.920789029449225">
        <ele>312.08999999999997</ele>
        <time>2025-05-03T10:53:54Z</time>
      </trkpt>
      <trkpt lat="41.103609027341008" lon="-7.920971000567079">
        <ele>312.56999999999999</ele>
        <time>2025-05-03T10:53:56Z</time>
      </trkpt>
      <trkpt lat="41.10348598100245" lon="-7.921030009165406">
        <ele>312.56999999999999</ele>
        <time>2025-05-03T10:53:57Z</time>
      </trkpt>
      <trkpt lat="41.103372992947698" lon="-7.92108298279345">
        <ele>312.56999999999999</ele>
        <time>2025-05-03T10:53:58Z</time>
      </trkpt>
      <trkpt lat="41.103251036256552" lon="-7.921140985563397">
        <ele>313.05000000000001</ele>
        <time>2025-05-03T10:53:59Z</time>
      </trkpt>
      <trkpt lat="41.103099994361401" lon="-7.921198988333345">
        <ele>313.05000000000001</ele>
        <time>2025-05-03T10:54:00Z</time>
      </trkpt>
      <trkpt lat="41.102747032418847" lon="-7.921279035508633">
        <ele>314.00999999999999</ele>
        <time>2025-05-03T10:54:02Z</time>
      </trkpt>
      <trkpt lat="41.102591967210174" lon="-7.92133997194469">
        <ele>314.49000000000001</ele>
        <time>2025-05-03T10:54:03Z</time>
      </trkpt>
      <trkpt lat="41.102455006912351" lon="-7.921430999413133">
        <ele>314.97000000000003</ele>
        <time>2025-05-03T10:54:04Z</time>
      </trkpt>
      <trkpt lat="41.102155018597841" lon="-7.921696035191417">
        <ele>315.44999999999999</ele>
        <time>2025-05-03T10:54:07Z</time>
      </trkpt>
      <trkpt lat="41.102115958929062" lon="-7.921769041568041">
        <ele>315.93000000000001</ele>
        <time>2025-05-03T10:54:08Z</time>
      </trkpt>
      <trkpt lat="41.102078994736075" lon="-7.921842969954014">
        <ele>315.93000000000001</ele>
        <time>2025-05-03T10:54:09Z</time>
      </trkpt>
      <trkpt lat="41.102069020271301" lon="-7.921912036836147">
        <ele>316.41000000000003</ele>
        <time>2025-05-03T10:54:10Z</time>
      </trkpt>
      <trkpt lat="41.102081006392837" lon="-7.922008009627461">
        <ele>316.41000000000003</ele>
        <time>2025-05-03T10:54:11Z</time>
      </trkpt>
      <trkpt lat="41.102128028869629" lon="-7.922075986862183">
        <ele>316.88999999999999</ele>
        <time>2025-05-03T10:54:12Z</time>
      </trkpt>
      <trkpt lat="41.102200029417872" lon="-7.922128960490227">
        <ele>316.88999999999999</ele>
        <time>2025-05-03T10:54:13Z</time>
      </trkpt>
      <trkpt lat="41.102293990552425" lon="-7.922167014330626">
        <ele>317.37</ele>
        <time>2025-05-03T10:54:14Z</time>
      </trkpt>
      <trkpt lat="41.102400021627545" lon="-7.922151004895568">
        <ele>317.85000000000002</ele>
        <time>2025-05-03T10:54:15Z</time>
      </trkpt>
      <trkpt lat="41.102504963055253" lon="-7.92213499546051">
        <ele>317.85000000000002</ele>
        <time>2025-05-03T10:54:16Z</time>
      </trkpt>
      <trkpt lat="41.102607976645231" lon="-7.922142958268523">
        <ele>318.32999999999998</ele>
        <time>2025-05-03T10:54:17Z</time>
      </trkpt>
      <trkpt lat="41.103712962940335" lon="-7.922354014590383">
        <ele>321.22000000000003</ele>
        <time>2025-05-03T10:54:26Z</time>
      </trkpt>
      <trkpt lat="41.104071959853172" lon="-7.922473037615418">
        <ele>322.66000000000003</ele>
        <time>2025-05-03T10:54:29Z</time>
      </trkpt>
      <trkpt lat="41.104183020070195" lon="-7.922531962394714">
        <ele>323.13999999999999</ele>
        <time>2025-05-03T10:54:30Z</time>
      </trkpt>
      <trkpt lat="41.104273963719606" lon="-7.922579990699887">
        <ele>323.13999999999999</ele>
        <time>2025-05-03T10:54:31Z</time>
      </trkpt>
      <trkpt lat="41.104369014501572" lon="-7.922722985967994">
        <ele>323.62</ele>
        <time>2025-05-03T10:54:32Z</time>
      </trkpt>
      <trkpt lat="41.10445199534297" lon="-7.922847038134933">
        <ele>323.62</ele>
        <time>2025-05-03T10:54:33Z</time>
      </trkpt>
      <trkpt lat="41.1045160330832" lon="-7.92299103923142">
        <ele>323.13999999999999</ele>
        <time>2025-05-03T10:54:34Z</time>
      </trkpt>
      <trkpt lat="41.104569006711245" lon="-7.92316596955061">
        <ele>323.13999999999999</ele>
        <time>2025-05-03T10:54:35Z</time>
      </trkpt>
      <trkpt lat="41.104678977280855" lon="-7.923713978379965">
        <ele>322.66000000000003</ele>
        <time>2025-05-03T10:54:38Z</time>
      </trkpt>
      <trkpt lat="41.104700015857816" lon="-7.923883963376284">
        <ele>322.66000000000003</ele>
        <time>2025-05-03T10:54:39Z</time>
      </trkpt>
      <trkpt lat="41.104673026129603" lon="-7.924030981957912">
        <ele>322.66000000000003</ele>
        <time>2025-05-03T10:54:40Z</time>
      </trkpt>
      <trkpt lat="41.104633966460824" lon="-7.924186969175935">
        <ele>323.13999999999999</ele>
        <time>2025-05-03T10:54:41Z</time>
      </trkpt>
      <trkpt lat="41.10458099283278" lon="-7.924337005242705">
        <ele>323.62</ele>
        <time>2025-05-03T10:54:42Z</time>
      </trkpt>
      <trkpt lat="41.104207998141646" lon="-7.925158012658358">
        <ele>326.01999999999998</ele>
        <time>2025-05-03T10:54:48Z</time>
      </trkpt>
      <trkpt lat="41.10406500287354" lon="-7.925410978496075">
        <ele>326.99000000000001</ele>
        <time>2025-05-03T10:54:50Z</time>
      </trkpt>
      <trkpt lat="41.104014040902257" lon="-7.925538970157504">
        <ele>327.94999999999999</ele>
        <time>2025-05-03T10:54:51Z</time>
      </trkpt>
      <trkpt lat="41.103945979848504" lon="-7.925755977630615">
        <ele>328.91000000000003</ele>
        <time>2025-05-03T10:54:53Z</time>
      </trkpt>
      <trkpt lat="41.103937011212111" lon="-7.925865026190877">
        <ele>329.38999999999999</ele>
        <time>2025-05-03T10:54:54Z</time>
      </trkpt>
      <trkpt lat="41.103937011212111" lon="-7.925957981497049">
        <ele>329.38999999999999</ele>
        <time>2025-05-03T10:54:55Z</time>
      </trkpt>
      <trkpt lat="41.103993002325296" lon="-7.926041968166828">
        <ele>329.87</ele>
        <time>2025-05-03T10:54:56Z</time>
      </trkpt>
      <trkpt lat="41.104066008701921" lon="-7.926098965108395">
        <ele>330.35000000000002</ele>
        <time>2025-05-03T10:54:57Z</time>
      </trkpt>
      <trkpt lat="41.104161981493235" lon="-7.926140036433935">
        <ele>330.35000000000002</ele>
        <time>2025-05-03T10:54:58Z</time>
      </trkpt>
      <trkpt lat="41.104277987033129" lon="-7.926126960664988">
        <ele>330.82999999999998</ele>
        <time>2025-05-03T10:54:59Z</time>
      </trkpt>
      <trkpt lat="41.104396004229784" lon="-7.926110029220581">
        <ele>330.82999999999998</ele>
        <time>2025-05-03T10:55:00Z</time>
      </trkpt>
      <trkpt lat="41.104517038911581" lon="-7.926075998693705">
        <ele>331.31</ele>
        <time>2025-05-03T10:55:01Z</time>
      </trkpt>
      <trkpt lat="41.104636983945966" lon="-7.926020007580519">
        <ele>331.31</ele>
        <time>2025-05-03T10:55:02Z</time>
      </trkpt>
      <trkpt lat="41.104865977540612" lon="-7.925924034789205">
        <ele>332.26999999999998</ele>
        <time>2025-05-03T10:55:04Z</time>
      </trkpt>
      <trkpt lat="41.104979971423745" lon="-7.925910959020257">
        <ele>332.75</ele>
        <time>2025-05-03T10:55:05Z</time>
      </trkpt>
      <trkpt lat="41.105087008327246" lon="-7.925898972898722">
        <ele>333.23000000000002</ele>
        <time>2025-05-03T10:55:06Z</time>
      </trkpt>
      <trkpt lat="41.105218017473817" lon="-7.925884975120425">
        <ele>333.70999999999998</ele>
        <time>2025-05-03T10:55:07Z</time>
      </trkpt>
      <trkpt lat="41.105307033285499" lon="-7.925928980112076">
        <ele>334.68000000000001</ele>
        <time>2025-05-03T10:55:08Z</time>
      </trkpt>
      <trkpt lat="41.10541800968349" lon="-7.926006009802222">
        <ele>335.16000000000003</ele>
        <time>2025-05-03T10:55:09Z</time>
      </trkpt>
      <trkpt lat="41.105500990524888" lon="-7.926111035048962">
        <ele>336.12</ele>
        <time>2025-05-03T10:55:10Z</time>
      </trkpt>
      <trkpt lat="41.105587994679809" lon="-7.926223017275333">
        <ele>336.60000000000002</ele>
        <time>2025-05-03T10:55:11Z</time>
      </trkpt>
      <trkpt lat="41.105670975521207" lon="-7.926350003108382">
        <ele>337.56</ele>
        <time>2025-05-03T10:55:12Z</time>
      </trkpt>
      <trkpt lat="41.105850012972951" lon="-7.926544966176152">
        <ele>339</ele>
        <time>2025-05-03T10:55:14Z</time>
      </trkpt>
      <trkpt lat="41.105940034613013" lon="-7.926616966724396">
        <ele>339.95999999999998</ele>
        <time>2025-05-03T10:55:15Z</time>
      </trkpt>
      <trkpt lat="41.106056040152907" lon="-7.92662400752306">
        <ele>340.92000000000002</ele>
        <time>2025-05-03T10:55:16Z</time>
      </trkpt>
      <trkpt lat="41.106159975752234" lon="-7.926564998924732">
        <ele>341.88999999999999</ele>
        <time>2025-05-03T10:55:17Z</time>
      </trkpt>
      <trkpt lat="41.106263995170593" lon="-7.926505990326405">
        <ele>342.85000000000002</ele>
        <time>2025-05-03T10:55:18Z</time>
      </trkpt>
      <trkpt lat="41.106370026245713" lon="-7.926446981728077">
        <ele>343.81</ele>
        <time>2025-05-03T10:55:19Z</time>
      </trkpt>
      <trkpt lat="41.106477985158563" lon="-7.926385961472988">
        <ele>344.76999999999998</ele>
        <time>2025-05-03T10:55:20Z</time>
      </trkpt>
      <trkpt lat="41.106586027890444" lon="-7.926325025036931">
        <ele>345.73000000000002</ele>
        <time>2025-05-03T10:55:21Z</time>
      </trkpt>
      <trkpt lat="41.106719970703125" lon="-7.926250007003546">
        <ele>346.69</ele>
        <time>2025-05-03T10:55:22Z</time>
      </trkpt>
      <trkpt lat="41.106820972636342" lon="-7.926244977861643">
        <ele>347.64999999999998</ele>
        <time>2025-05-03T10:55:23Z</time>
      </trkpt>
      <trkpt lat="41.106942007318139" lon="-7.926240032538772">
        <ele>348.62</ele>
        <time>2025-05-03T10:55:24Z</time>
      </trkpt>
      <trkpt lat="41.107067987322807" lon="-7.926235003396869">
        <ele>349.57999999999998</ele>
        <time>2025-05-03T10:55:25Z</time>
      </trkpt>
      <trkpt lat="41.107196984812617" lon="-7.926228968426585">
        <ele>350.54000000000002</ele>
        <time>2025-05-03T10:55:26Z</time>
      </trkpt>
      <trkpt lat="41.107312990352511" lon="-7.926141964271665">
        <ele>351.01999999999998</ele>
        <time>2025-05-03T10:55:27Z</time>
      </trkpt>
      <trkpt lat="41.107425978407264" lon="-7.926043979823589">
        <ele>351.5</ele>
        <time>2025-05-03T10:55:28Z</time>
      </trkpt>
      <trkpt lat="41.107539972290397" lon="-7.925943983718753">
        <ele>351.98000000000002</ele>
        <time>2025-05-03T10:55:29Z</time>
      </trkpt>
      <trkpt lat="41.107636028900743" lon="-7.925818003714085">
        <ele>352.45999999999998</ele>
        <time>2025-05-03T10:55:30Z</time>
      </trkpt>
      <trkpt lat="41.107928976416588" lon="-7.925447020679712">
        <ele>353.89999999999998</ele>
        <time>2025-05-03T10:55:33Z</time>
      </trkpt>
      <trkpt lat="41.108325021341443" lon="-7.924887025728822">
        <ele>356.79000000000002</ele>
        <time>2025-05-03T10:55:38Z</time>
      </trkpt>
      <trkpt lat="41.108400961384177" lon="-7.924847966060042">
        <ele>356.79000000000002</ele>
        <time>2025-05-03T10:55:39Z</time>
      </trkpt>
      <trkpt lat="41.10849198885262" lon="-7.924834974110127">
        <ele>357.26999999999998</ele>
        <time>2025-05-03T10:55:40Z</time>
      </trkpt>
      <trkpt lat="41.108569018542767" lon="-7.924875961616635">
        <ele>357.26999999999998</ele>
        <time>2025-05-03T10:55:41Z</time>
      </trkpt>
      <trkpt lat="41.108651999384165" lon="-7.924928013235331">
        <ele>357.26999999999998</ele>
        <time>2025-05-03T10:55:42Z</time>
      </trkpt>
      <trkpt lat="41.108694998547435" lon="-7.925019040703774">
        <ele>357.26999999999998</ele>
        <time>2025-05-03T10:55:43Z</time>
      </trkpt>
      <trkpt lat="41.108731040731072" lon="-7.925148038193584">
        <ele>357.26999999999998</ele>
        <time>2025-05-03T10:55:44Z</time>
      </trkpt>
      <trkpt lat="41.108769010752439" lon="-7.925287010148168">
        <ele>357.26999999999998</ele>
        <time>2025-05-03T10:55:45Z</time>
      </trkpt>
      <trkpt lat="41.108765993267298" lon="-7.925426987931132">
        <ele>357.26999999999998</ele>
        <time>2025-05-03T10:55:46Z</time>
      </trkpt>
      <trkpt lat="41.108742021024227" lon="-7.925585992634296">
        <ele>357.26999999999998</ele>
        <time>2025-05-03T10:55:47Z</time>
      </trkpt>
      <trkpt lat="41.108714025467634" lon="-7.925776010379195">
        <ele>356.79000000000002</ele>
        <time>2025-05-03T10:55:48Z</time>
      </trkpt>
      <trkpt lat="41.108671026304364" lon="-7.926002992317081">
        <ele>356.79000000000002</ele>
        <time>2025-05-03T10:55:49Z</time>
      </trkpt>
      <trkpt lat="41.108437003567815" lon="-7.926978981122375">
        <ele>352.94</ele>
        <time>2025-05-03T10:55:53Z</time>
      </trkpt>
      <trkpt lat="41.108329966664314" lon="-7.927301013842225">
        <ele>351.01999999999998</ele>
        <time>2025-05-03T10:55:55Z</time>
      </trkpt>
      <trkpt lat="41.108344970270991" lon="-7.927479967474937">
        <ele>350.06</ele>
        <time>2025-05-03T10:55:56Z</time>
      </trkpt>
      <trkpt lat="41.108381012454629" lon="-7.927605025470257">
        <ele>349.10000000000002</ele>
        <time>2025-05-03T10:55:57Z</time>
      </trkpt>
      <trkpt lat="41.108457036316395" lon="-7.927724970504642">
        <ele>348.13</ele>
        <time>2025-05-03T10:55:58Z</time>
      </trkpt>
      <trkpt lat="41.108549991622567" lon="-7.927825972437859">
        <ele>347.64999999999998</ele>
        <time>2025-05-03T10:55:59Z</time>
      </trkpt>
      <trkpt lat="41.108668008819222" lon="-7.927899984642863">
        <ele>346.69</ele>
        <time>2025-05-03T10:56:00Z</time>
      </trkpt>
      <trkpt lat="41.108796000480652" lon="-7.927958993241191">
        <ele>345.73000000000002</ele>
        <time>2025-05-03T10:56:01Z</time>
      </trkpt>
      <trkpt lat="41.108935978263617" lon="-7.927992017939687">
        <ele>345.25</ele>
        <time>2025-05-03T10:56:02Z</time>
      </trkpt>
      <trkpt lat="41.109068999066949" lon="-7.928024036809802">
        <ele>344.29000000000002</ele>
        <time>2025-05-03T10:56:03Z</time>
      </trkpt>
      <trkpt lat="41.109195984899998" lon="-7.928054966032505">
        <ele>343.81</ele>
        <time>2025-05-03T10:56:04Z</time>
      </trkpt>
      <trkpt lat="41.109310984611511" lon="-7.928110035136342">
        <ele>342.85000000000002</ele>
        <time>2025-05-03T10:56:05Z</time>
      </trkpt>
      <trkpt lat="41.109393965452909" lon="-7.928213970735669">
        <ele>342.37</ele>
        <time>2025-05-03T10:56:06Z</time>
      </trkpt>
      <trkpt lat="41.109444005414844" lon="-7.92834497988224">
        <ele>341.41000000000003</ele>
        <time>2025-05-03T10:56:07Z</time>
      </trkpt>
      <trkpt lat="41.109488010406494" lon="-7.928483029827476">
        <ele>340.92000000000002</ele>
        <time>2025-05-03T10:56:08Z</time>
      </trkpt>
      <trkpt lat="41.109488010406494" lon="-7.92864496819675">
        <ele>339.95999999999998</ele>
        <time>2025-05-03T10:56:09Z</time>
      </trkpt>
      <trkpt lat="41.109488010406494" lon="-7.9288150370121">
        <ele>339</ele>
        <time>2025-05-03T10:56:10Z</time>
      </trkpt>
      <trkpt lat="41.109488010406494" lon="-7.928977981209755">
        <ele>338.51999999999998</ele>
        <time>2025-05-03T10:56:11Z</time>
      </trkpt>
      <trkpt lat="41.109552970156074" lon="-7.929109996184707">
        <ele>338.04000000000002</ele>
        <time>2025-05-03T10:56:12Z</time>
      </trkpt>
      <trkpt lat="41.109626982361078" lon="-7.929218038916588">
        <ele>337.56</ele>
        <time>2025-05-03T10:56:13Z</time>
      </trkpt>
      <trkpt lat="41.109711974859238" lon="-7.929313005879521">
        <ele>336.60000000000002</ele>
        <time>2025-05-03T10:56:14Z</time>
      </trkpt>
      <trkpt lat="41.109830997884274" lon="-7.92937695980072">
        <ele>336.12</ele>
        <time>2025-05-03T10:56:15Z</time>
      </trkpt>
      <trkpt lat="41.109950020909309" lon="-7.929440997540951">
        <ele>335.63999999999999</ele>
        <time>2025-05-03T10:56:16Z</time>
      </trkpt>
      <trkpt lat="41.110076000913978" lon="-7.929434962570667">
        <ele>335.16000000000003</ele>
        <time>2025-05-03T10:56:17Z</time>
      </trkpt>
      <trkpt lat="41.110199969261885" lon="-7.929421970620751">
        <ele>334.19999999999999</ele>
        <time>2025-05-03T10:56:18Z</time>
      </trkpt>
      <trkpt lat="41.110319998115301" lon="-7.929408978670836">
        <ele>333.70999999999998</ele>
        <time>2025-05-03T10:56:19Z</time>
      </trkpt>
      <trkpt lat="41.110436003655195" lon="-7.929411996155977">
        <ele>333.23000000000002</ele>
        <time>2025-05-03T10:56:20Z</time>
      </trkpt>
      <trkpt lat="41.110540023073554" lon="-7.929424988105893">
        <ele>332.26999999999998</ele>
        <time>2025-05-03T10:56:21Z</time>
      </trkpt>
      <trkpt lat="41.110641025006771" lon="-7.92948299087584">
        <ele>331.79000000000002</ele>
        <time>2025-05-03T10:56:22Z</time>
      </trkpt>
      <trkpt lat="41.11072601750493" lon="-7.929571000859141">
        <ele>331.31</ele>
        <time>2025-05-03T10:56:23Z</time>
      </trkpt>
      <trkpt lat="41.110800029709935" lon="-7.929693963378668">
        <ele>330.82999999999998</ele>
        <time>2025-05-03T10:56:24Z</time>
      </trkpt>
      <trkpt lat="41.110844034701586" lon="-7.929839976131916">
        <ele>330.35000000000002</ele>
        <time>2025-05-03T10:56:25Z</time>
      </trkpt>
      <trkpt lat="41.110882004722953" lon="-7.930008033290505">
        <ele>329.87</ele>
        <time>2025-05-03T10:56:26Z</time>
      </trkpt>
      <trkpt lat="41.110918968915939" lon="-7.930181035771966">
        <ele>329.38999999999999</ele>
        <time>2025-05-03T10:56:27Z</time>
      </trkpt>
      <trkpt lat="41.110955011099577" lon="-7.930349009111524">
        <ele>328.43000000000001</ele>
        <time>2025-05-03T10:56:28Z</time>
      </trkpt>
      <trkpt lat="41.110988035798073" lon="-7.930507007986307">
        <ele>327.94999999999999</ele>
        <time>2025-05-03T10:56:29Z</time>
      </trkpt>
      <trkpt lat="41.111074034124613" lon="-7.930627036839724">
        <ele>327.47000000000003</ele>
        <time>2025-05-03T10:56:30Z</time>
      </trkpt>
      <trkpt lat="41.11117604188621" lon="-7.930723009631038">
        <ele>326.5</ele>
        <time>2025-05-03T10:56:31Z</time>
      </trkpt>
      <trkpt lat="41.111296992748976" lon="-7.930756034329534">
        <ele>326.5</ele>
        <time>2025-05-03T10:56:32Z</time>
      </trkpt>
      <trkpt lat="41.111417021602392" lon="-7.930789981037378">
        <ele>326.01999999999998</ele>
        <time>2025-05-03T10:56:33Z</time>
      </trkpt>
      <trkpt lat="41.111526992172003" lon="-7.930819988250732">
        <ele>325.54000000000002</ele>
        <time>2025-05-03T10:56:34Z</time>
      </trkpt>
      <trkpt lat="41.111592035740614" lon="-7.930916966870427">
        <ele>325.06</ele>
        <time>2025-05-03T10:56:35Z</time>
      </trkpt>
      <trkpt lat="41.111639980226755" lon="-7.93103096075356">
        <ele>324.10000000000002</ele>
        <time>2025-05-03T10:56:36Z</time>
      </trkpt>
      <trkpt lat="41.111680967733264" lon="-7.931171022355557">
        <ele>323.13999999999999</ele>
        <time>2025-05-03T10:56:37Z</time>
      </trkpt>
      <trkpt lat="41.111705023795366" lon="-7.931350981816649">
        <ele>322.18000000000001</ele>
        <time>2025-05-03T10:56:38Z</time>
      </trkpt>
      <trkpt lat="41.111732013523579" lon="-7.931545022875071">
        <ele>321.69999999999999</ele>
        <time>2025-05-03T10:56:39Z</time>
      </trkpt>
      <trkpt lat="41.111759003251791" lon="-7.931746020913124">
        <ele>320.74000000000001</ele>
        <time>2025-05-03T10:56:40Z</time>
      </trkpt>
      <trkpt lat="41.111786998808384" lon="-7.931956993415952">
        <ele>319.77999999999997</ele>
        <time>2025-05-03T10:56:41Z</time>
      </trkpt>
      <trkpt lat="41.111880037933588" lon="-7.933031972497702">
        <ele>314.97000000000003</ele>
        <time>2025-05-03T10:56:47Z</time>
      </trkpt>
      <trkpt lat="41.111853970214725" lon="-7.933181002736092">
        <ele>314.49000000000001</ele>
        <time>2025-05-03T10:56:48Z</time>
      </trkpt>
      <trkpt lat="41.111826980486512" lon="-7.933331038802862">
        <ele>313.52999999999997</ele>
        <time>2025-05-03T10:56:49Z</time>
      </trkpt>
      <trkpt lat="41.11173503100872" lon="-7.933481996878982">
        <ele>313.05000000000001</ele>
        <time>2025-05-03T10:56:50Z</time>
      </trkpt>
      <trkpt lat="41.111646015197039" lon="-7.933620968833566">
        <ele>312.08999999999997</ele>
        <time>2025-05-03T10:56:51Z</time>
      </trkpt>
      <trkpt lat="41.111544007435441" lon="-7.933739991858602">
        <ele>311.12</ele>
        <time>2025-05-03T10:56:52Z</time>
      </trkpt>
      <trkpt lat="41.111452979966998" lon="-7.933846022933722">
        <ele>310.63999999999999</ele>
        <time>2025-05-03T10:56:53Z</time>
      </trkpt>
      <trkpt lat="41.111397994682193" lon="-7.93390997685492">
        <ele>309.68000000000001</ele>
        <time>2025-05-03T10:56:54Z</time>
      </trkpt>
      <trkpt lat="41.111364969983697" lon="-7.934060012921691">
        <ele>308.72000000000003</ele>
        <time>2025-05-03T10:56:55Z</time>
      </trkpt>
      <trkpt lat="41.111335968598723" lon="-7.934192027896643">
        <ele>307.75999999999999</ele>
        <time>2025-05-03T10:56:56Z</time>
      </trkpt>
      <trkpt lat="41.111309984698892" lon="-7.934330999851227">
        <ele>307.27999999999997</ele>
        <time>2025-05-03T10:56:57Z</time>
      </trkpt>
      <trkpt lat="41.111254999414086" lon="-7.935258038341999">
        <ele>302.47000000000003</ele>
        <time>2025-05-03T10:57:03Z</time>
      </trkpt>
      <trkpt lat="41.111230021342635" lon="-7.935446966439486">
        <ele>301.99000000000001</ele>
        <time>2025-05-03T10:57:04Z</time>
      </trkpt>
      <trkpt lat="41.11096397973597" lon="-7.936656977981329">
        <ele>296.69999999999999</ele>
        <time>2025-05-03T10:57:09Z</time>
      </trkpt>
      <trkpt lat="41.110840011388063" lon="-7.937308000400662">
        <ele>293.81999999999999</ele>
        <time>2025-05-03T10:57:12Z</time>
      </trkpt>
      <trkpt lat="41.110789971426129" lon="-7.93747304007411">
        <ele>292.86000000000001</ele>
        <time>2025-05-03T10:57:13Z</time>
      </trkpt>
      <trkpt lat="41.110745966434479" lon="-7.937617963179946">
        <ele>291.89999999999998</ele>
        <time>2025-05-03T10:57:14Z</time>
      </trkpt>
      <trkpt lat="41.110712019726634" lon="-7.937729023396969">
        <ele>290.94</ele>
        <time>2025-05-03T10:57:15Z</time>
      </trkpt>
      <trkpt lat="41.110712019726634" lon="-7.93786196038127">
        <ele>289.49000000000001</ele>
        <time>2025-05-03T10:57:16Z</time>
      </trkpt>
      <trkpt lat="41.110724005848169" lon="-7.937945025041699">
        <ele>289.00999999999999</ele>
        <time>2025-05-03T10:57:17Z</time>
      </trkpt>
      <trkpt lat="41.110783014446497" lon="-7.938051978126168">
        <ele>288.52999999999997</ele>
        <time>2025-05-03T10:57:18Z</time>
      </trkpt>
      <trkpt lat="41.11085501499474" lon="-7.938137976452708">
        <ele>288.05000000000001</ele>
        <time>2025-05-03T10:57:19Z</time>
      </trkpt>
      <trkpt lat="41.110957022756338" lon="-7.938200002536178">
        <ele>288.05000000000001</ele>
        <time>2025-05-03T10:57:20Z</time>
      </trkpt>
      <trkpt lat="41.111059030517936" lon="-7.938262028619647">
        <ele>288.05000000000001</ele>
        <time>2025-05-03T10:57:21Z</time>
      </trkpt>
      <trkpt lat="41.111159026622772" lon="-7.938322965055704">
        <ele>287.56999999999999</ele>
        <time>2025-05-03T10:57:22Z</time>
      </trkpt>
      <trkpt lat="41.111256005242467" lon="-7.938349032774568">
        <ele>287.56999999999999</ele>
        <time>2025-05-03T10:57:23Z</time>
      </trkpt>
      <trkpt lat="41.111372010782361" lon="-7.938341991975904">
        <ele>287.56999999999999</ele>
        <time>2025-05-03T10:57:24Z</time>
      </trkpt>
      <trkpt lat="41.111490027979016" lon="-7.938335034996271">
        <ele>287.08999999999997</ele>
        <time>2025-05-03T10:57:25Z</time>
      </trkpt>
      <trkpt lat="41.111602010205388" lon="-7.938316008076072">
        <ele>287.08999999999997</ele>
        <time>2025-05-03T10:57:26Z</time>
      </trkpt>
      <trkpt lat="41.111708963289857" lon="-7.938266973942518">
        <ele>287.08999999999997</ele>
        <time>2025-05-03T10:57:27Z</time>
      </trkpt>
      <trkpt lat="41.111811976879835" lon="-7.938219029456377">
        <ele>286.61000000000001</ele>
        <time>2025-05-03T10:57:28Z</time>
      </trkpt>
      <trkpt lat="41.112024039030075" lon="-7.938121967017651">
        <ele>286.61000000000001</ele>
        <time>2025-05-03T10:57:30Z</time>
      </trkpt>
      <trkpt lat="41.112151024863124" lon="-7.938093971461058">
        <ele>287.08999999999997</ele>
        <time>2025-05-03T10:57:31Z</time>
      </trkpt>
      <trkpt lat="41.112282034009695" lon="-7.938093971461058">
        <ele>287.08999999999997</ele>
        <time>2025-05-03T10:57:32Z</time>
      </trkpt>
      <trkpt lat="41.112407008185983" lon="-7.938093971461058">
        <ele>287.56999999999999</ele>
        <time>2025-05-03T10:57:33Z</time>
      </trkpt>
      <trkpt lat="41.112537011504173" lon="-7.938193967565894">
        <ele>287.56999999999999</ele>
        <time>2025-05-03T10:57:34Z</time>
      </trkpt>
      <trkpt lat="41.112658968195319" lon="-7.938287006691098">
        <ele>287.56999999999999</ele>
        <time>2025-05-03T10:57:35Z</time>
      </trkpt>
      <trkpt lat="41.112781008705497" lon="-7.938383985310793">
        <ele>288.05000000000001</ele>
        <time>2025-05-03T10:57:36Z</time>
      </trkpt>
      <trkpt lat="41.113251987844706" lon="-7.938781036064029">
        <ele>288.05000000000001</ele>
        <time>2025-05-03T10:57:40Z</time>
      </trkpt>
      <trkpt lat="41.113376040011644" lon="-7.938850019127131">
        <ele>288.05000000000001</ele>
        <time>2025-05-03T10:57:41Z</time>
      </trkpt>
      <trkpt lat="41.113514006137848" lon="-7.938877008855343">
        <ele>288.05000000000001</ele>
        <time>2025-05-03T10:57:42Z</time>
      </trkpt>
      <trkpt lat="41.113918013870716" lon="-7.938954960554838">
        <ele>289.00999999999999</ele>
        <time>2025-05-03T10:57:45Z</time>
      </trkpt>
      <trkpt lat="41.114043993875384" lon="-7.938992008566856">
        <ele>289.00999999999999</ele>
        <time>2025-05-03T10:57:46Z</time>
      </trkpt>
      <trkpt lat="41.114158993586898" lon="-7.939065014943481">
        <ele>289.49000000000001</ele>
        <time>2025-05-03T10:57:47Z</time>
      </trkpt>
      <trkpt lat="41.11427097581327" lon="-7.939145984128118">
        <ele>289.49000000000001</ele>
        <time>2025-05-03T10:57:48Z</time>
      </trkpt>
      <trkpt lat="41.114369966089725" lon="-7.939256960526109">
        <ele>289.97000000000003</ele>
        <time>2025-05-03T10:57:49Z</time>
      </trkpt>
      <trkpt lat="41.114467028528452" lon="-7.939368020743132">
        <ele>289.97000000000003</ele>
        <time>2025-05-03T10:57:50Z</time>
      </trkpt>
      <trkpt lat="41.11512903124094" lon="-7.940294975414872">
        <ele>288.05000000000001</ele>
        <time>2025-05-03T10:57:57Z</time>
      </trkpt>
      <trkpt lat="41.115197008475661" lon="-7.940458003431559">
        <ele>287.56999999999999</ele>
        <time>2025-05-03T10:57:58Z</time>
      </trkpt>
      <trkpt lat="41.115243025124073" lon="-7.940641986206174">
        <ele>287.08999999999997</ele>
        <time>2025-05-03T10:57:59Z</time>
      </trkpt>
      <trkpt lat="41.115288035944104" lon="-7.940832003951073">
        <ele>286.61000000000001</ele>
        <time>2025-05-03T10:58:00Z</time>
      </trkpt>
      <trkpt lat="41.115325000137091" lon="-7.941028978675604">
        <ele>286.13</ele>
        <time>2025-05-03T10:58:01Z</time>
      </trkpt>
      <trkpt lat="41.115399012342095" lon="-7.941419994458556">
        <ele>284.69</ele>
        <time>2025-05-03T10:58:03Z</time>
      </trkpt>
      <trkpt lat="41.115393983200192" lon="-7.941628033295274">
        <ele>284.20999999999998</ele>
        <time>2025-05-03T10:58:04Z</time>
      </trkpt>
      <trkpt lat="41.115370010957122" lon="-7.941840011626482">
        <ele>283.25</ele>
        <time>2025-05-03T10:58:05Z</time>
      </trkpt>
      <trkpt lat="41.115345032885671" lon="-7.942061964422464">
        <ele>282.76999999999998</ele>
        <time>2025-05-03T10:58:06Z</time>
      </trkpt>
      <trkpt lat="41.115317959338427" lon="-7.942290036007762">
        <ele>281.80000000000001</ele>
        <time>2025-05-03T10:58:07Z</time>
      </trkpt>
      <trkpt lat="41.115264985710382" lon="-7.942751962691546">
        <ele>280.36000000000001</ele>
        <time>2025-05-03T10:58:09Z</time>
      </trkpt>
      <trkpt lat="41.11526096239686" lon="-7.942966036498547">
        <ele>279.88</ele>
        <time>2025-05-03T10:58:10Z</time>
      </trkpt>
      <trkpt lat="41.115220980718732" lon="-7.943930961191654">
        <ele>278.44</ele>
        <time>2025-05-03T10:58:15Z</time>
      </trkpt>
      <trkpt lat="41.115200025960803" lon="-7.944108992815018">
        <ele>277.95999999999998</ele>
        <time>2025-05-03T10:58:16Z</time>
      </trkpt>
      <trkpt lat="41.115179993212223" lon="-7.944278977811337">
        <ele>277.95999999999998</ele>
        <time>2025-05-03T10:58:17Z</time>
      </trkpt>
      <trkpt lat="41.115161972120404" lon="-7.944435970857739">
        <ele>277.95999999999998</ele>
        <time>2025-05-03T10:58:18Z</time>
      </trkpt>
      <trkpt lat="41.11517496407032" lon="-7.944551976397634">
        <ele>277.95999999999998</ele>
        <time>2025-05-03T10:58:19Z</time>
      </trkpt>
      <trkpt lat="41.115239001810551" lon="-7.944681979715824">
        <ele>277.95999999999998</ele>
        <time>2025-05-03T10:58:20Z</time>
      </trkpt>
      <trkpt lat="41.115317959338427" lon="-7.944765966385603">
        <ele>278.44</ele>
        <time>2025-05-03T10:58:21Z</time>
      </trkpt>
      <trkpt lat="41.115418039262295" lon="-7.944873003289104">
        <ele>278.44</ele>
        <time>2025-05-03T10:58:22Z</time>
      </trkpt>
      <trkpt lat="41.115539995953441" lon="-7.945004012435675">
        <ele>278.92000000000002</ele>
        <time>2025-05-03T10:58:23Z</time>
      </trkpt>
      <trkpt lat="41.115613002330065" lon="-7.945132004097104">
        <ele>279.39999999999998</ele>
        <time>2025-05-03T10:58:24Z</time>
      </trkpt>
      <trkpt lat="41.115705035626888" lon="-7.945293020457029">
        <ele>279.88</ele>
        <time>2025-05-03T10:58:25Z</time>
      </trkpt>
      <trkpt lat="41.116132009774446" lon="-7.946300022304058">
        <ele>283.25</ele>
        <time>2025-05-03T10:58:31Z</time>
      </trkpt>
      <trkpt lat="41.116119017824531" lon="-7.946459027007222">
        <ele>283.73000000000002</ele>
        <time>2025-05-03T10:58:32Z</time>
      </trkpt>
      <trkpt lat="41.116082975640893" lon="-7.946621971204877">
        <ele>283.73000000000002</ele>
        <time>2025-05-03T10:58:33Z</time>
      </trkpt>
      <trkpt lat="41.115627000108361" lon="-7.947467034682632">
        <ele>285.17000000000002</ele>
        <time>2025-05-03T10:58:38Z</time>
      </trkpt>
      <trkpt lat="41.115513006225228" lon="-7.94761698693037">
        <ele>285.17000000000002</ele>
        <time>2025-05-03T10:58:39Z</time>
      </trkpt>
      <trkpt lat="41.115089971572161" lon="-7.948144041001797">
        <ele>285.64999999999998</ele>
        <time>2025-05-03T10:58:43Z</time>
      </trkpt>
      <trkpt lat="41.115015037357807" lon="-7.948272032663226">
        <ele>286.13</ele>
        <time>2025-05-03T10:58:44Z</time>
      </trkpt>
      <trkpt lat="41.114986035972834" lon="-7.948427014052868">
        <ele>286.13</ele>
        <time>2025-05-03T10:58:45Z</time>
      </trkpt>
      <trkpt lat="41.114955022931099" lon="-7.948586018756032">
        <ele>286.13</ele>
        <time>2025-05-03T10:58:46Z</time>
      </trkpt>
      <trkpt lat="41.114903977140784" lon="-7.948742005974054">
        <ele>286.61000000000001</ele>
        <time>2025-05-03T10:58:47Z</time>
      </trkpt>
      <trkpt lat="41.11482803709805" lon="-7.948893969878554">
        <ele>287.08999999999997</ele>
        <time>2025-05-03T10:58:48Z</time>
      </trkpt>
      <trkpt lat="41.114740027114749" lon="-7.949044005945325">
        <ele>287.56999999999999</ele>
        <time>2025-05-03T10:58:49Z</time>
      </trkpt>
      <trkpt lat="41.11422797665" lon="-7.949672983959317">
        <ele>290.94</ele>
        <time>2025-05-03T10:58:54Z</time>
      </trkpt>
      <trkpt lat="41.114080036059022" lon="-7.949788989499211">
        <ele>291.42000000000002</ele>
        <time>2025-05-03T10:58:55Z</time>
      </trkpt>
      <trkpt lat="41.113979034125805" lon="-7.949802987277508">
        <ele>291.89999999999998</ele>
        <time>2025-05-03T10:58:56Z</time>
      </trkpt>
      <trkpt lat="41.112697022035718" lon="-7.950148992240429">
        <ele>293.81999999999999</ele>
        <time>2025-05-03T10:59:05Z</time>
      </trkpt>
      <trkpt lat="41.111985985189676" lon="-7.950661964714527">
        <ele>295.25999999999999</ele>
        <time>2025-05-03T10:59:11Z</time>
      </trkpt>
      <trkpt lat="41.11186302267015" lon="-7.950702030211687">
        <ele>295.25999999999999</ele>
        <time>2025-05-03T10:59:12Z</time>
      </trkpt>
      <trkpt lat="41.11173695884645" lon="-7.950738994404674">
        <ele>295.25999999999999</ele>
        <time>2025-05-03T10:59:13Z</time>
      </trkpt>
      <trkpt lat="41.110893990844488" lon="-7.950833961367607">
        <ele>295.74000000000001</ele>
        <time>2025-05-03T10:59:20Z</time>
      </trkpt>
      <trkpt lat="41.110775973647833" lon="-7.950819041579962">
        <ele>295.25999999999999</ele>
        <time>2025-05-03T10:59:21Z</time>
      </trkpt>
      <trkpt lat="41.110660973936319" lon="-7.950747041031718">
        <ele>295.25999999999999</ele>
        <time>2025-05-03T10:59:22Z</time>
      </trkpt>
      <trkpt lat="41.110540023073554" lon="-7.950673028826714">
        <ele>295.25999999999999</ele>
        <time>2025-05-03T10:59:23Z</time>
      </trkpt>
      <trkpt lat="41.110411025583744" lon="-7.950592981651425">
        <ele>294.77999999999997</ele>
        <time>2025-05-03T10:59:24Z</time>
      </trkpt>
      <trkpt lat="41.110284039750695" lon="-7.950511006638408">
        <ele>294.30000000000001</ele>
        <time>2025-05-03T10:59:25Z</time>
      </trkpt>
      <trkpt lat="41.110160993412137" lon="-7.950425008311868">
        <ele>293.81999999999999</ele>
        <time>2025-05-03T10:59:26Z</time>
      </trkpt>
      <trkpt lat="41.10991096124053" lon="-7.950330041348934">
        <ele>292.86000000000001</ele>
        <time>2025-05-03T10:59:28Z</time>
      </trkpt>
      <trkpt lat="41.109792022034526" lon="-7.950359964743257">
        <ele>292.86000000000001</ele>
        <time>2025-05-03T10:59:29Z</time>
      </trkpt>
      <trkpt lat="41.109691020101309" lon="-7.950410004705191">
        <ele>292.38</ele>
        <time>2025-05-03T10:59:30Z</time>
      </trkpt>
      <trkpt lat="41.109634023159742" lon="-7.950511006638408">
        <ele>292.38</ele>
        <time>2025-05-03T10:59:31Z</time>
      </trkpt>
      <trkpt lat="41.109585994854569" lon="-7.950632963329554">
        <ele>291.89999999999998</ele>
        <time>2025-05-03T10:59:32Z</time>
      </trkpt>
      <trkpt lat="41.109545007348061" lon="-7.95077595859766">
        <ele>291.89999999999998</ele>
        <time>2025-05-03T10:59:33Z</time>
      </trkpt>
      <trkpt lat="41.109466971829534" lon="-7.951532006263733">
        <ele>294.77999999999997</ele>
        <time>2025-05-03T10:59:38Z</time>
      </trkpt>
      <trkpt lat="41.109488010406494" lon="-7.95167600736022">
        <ele>295.25999999999999</ele>
        <time>2025-05-03T10:59:39Z</time>
      </trkpt>
      <trkpt lat="41.109510976821184" lon="-7.951793018728495">
        <ele>295.25999999999999</ele>
        <time>2025-05-03T10:59:40Z</time>
      </trkpt>
      <trkpt lat="41.10954400151968" lon="-7.952022012323141">
        <ele>295.74000000000001</ele>
        <time>2025-05-03T10:59:42Z</time>
      </trkpt>
      <trkpt lat="41.109552970156074" lon="-7.952115973457694">
        <ele>295.74000000000001</ele>
        <time>2025-05-03T10:59:43Z</time>
      </trkpt>
      <trkpt lat="41.109552970156074" lon="-7.952225022017956">
        <ele>295.25999999999999</ele>
        <time>2025-05-03T10:59:44Z</time>
      </trkpt>
      <trkpt lat="41.109548024833202" lon="-7.95232099480927">
        <ele>295.25999999999999</ele>
        <time>2025-05-03T10:59:45Z</time>
      </trkpt>
      <trkpt lat="41.109522040933371" lon="-7.952434988692403">
        <ele>295.25999999999999</ele>
        <time>2025-05-03T10:59:46Z</time>
      </trkpt>
      <trkpt lat="41.109187016263604" lon="-7.953850021585822">
        <ele>293.33999999999997</ele>
        <time>2025-05-03T10:59:56Z</time>
      </trkpt>
      <trkpt lat="41.108904965221882" lon="-7.954890970140696">
        <ele>288.52999999999997</ele>
        <time>2025-05-03T11:00:03Z</time>
      </trkpt>
      <trkpt lat="41.108822990208864" lon="-7.954997001215816">
        <ele>287.56999999999999</ele>
        <time>2025-05-03T11:00:04Z</time>
      </trkpt>
      <trkpt lat="41.108720982447267" lon="-7.95507000759244">
        <ele>287.08999999999997</ele>
        <time>2025-05-03T11:00:05Z</time>
      </trkpt>
      <trkpt lat="41.108639007434249" lon="-7.955075958743691">
        <ele>286.13</ele>
        <time>2025-05-03T11:00:06Z</time>
      </trkpt>
      <trkpt lat="41.10853498801589" lon="-7.955051986500621">
        <ele>285.64999999999998</ele>
        <time>2025-05-03T11:00:07Z</time>
      </trkpt>
      <trkpt lat="41.108435997739434" lon="-7.955029020085931">
        <ele>285.17000000000002</ele>
        <time>2025-05-03T11:00:08Z</time>
      </trkpt>
      <trkpt lat="41.108384029939771" lon="-7.954981997609139">
        <ele>284.69</ele>
        <time>2025-05-03T11:00:09Z</time>
      </trkpt>
      <trkpt lat="41.108316974714398" lon="-7.954889964312315">
        <ele>284.20999999999998</ele>
        <time>2025-05-03T11:00:10Z</time>
      </trkpt>
      <trkpt lat="41.108251009136438" lon="-7.954800026491284">
        <ele>283.73000000000002</ele>
        <time>2025-05-03T11:00:11Z</time>
      </trkpt>
      <trkpt lat="41.107935011386871" lon="-7.954520992934704">
        <ele>281.31999999999999</ele>
        <time>2025-05-03T11:00:17Z</time>
      </trkpt>
      <trkpt lat="41.107886983081698" lon="-7.954502971842885">
        <ele>281.31999999999999</ele>
        <time>2025-05-03T11:00:18Z</time>
      </trkpt>
      <trkpt lat="41.107835015282035" lon="-7.954483022913337">
        <ele>280.83999999999997</ele>
        <time>2025-05-03T11:00:19Z</time>
      </trkpt>
      <trkpt lat="41.107791010290384" lon="-7.954467013478279">
        <ele>280.36000000000001</ele>
        <time>2025-05-03T11:00:20Z</time>
      </trkpt>
      <trkpt lat="41.10774097032845" lon="-7.954480005428195">
        <ele>279.88</ele>
        <time>2025-05-03T11:00:21Z</time>
      </trkpt>
      <trkpt lat="41.107710963115096" lon="-7.954578995704651">
        <ele>278.92000000000002</ele>
        <time>2025-05-03T11:00:22Z</time>
      </trkpt>
      <trkpt lat="41.107713980600238" lon="-7.954648984596133">
        <ele>278.44</ele>
        <time>2025-05-03T11:00:23Z</time>
      </trkpt>
      <trkpt lat="41.10771699808538" lon="-7.954707993194461">
        <ele>277.95999999999998</ele>
        <time>2025-05-03T11:00:24Z</time>
      </trkpt>
      <trkpt lat="41.107719009742141" lon="-7.954760966822505">
        <ele>277.48000000000002</ele>
        <time>2025-05-03T11:00:25Z</time>
      </trkpt>
      <trkpt lat="41.10773803666234" lon="-7.955205040052533">
        <ele>273.63</ele>
        <time>2025-05-03T11:00:32Z</time>
      </trkpt>
      <trkpt lat="41.10774097032845" lon="-7.955281985923648">
        <ele>273.14999999999998</ele>
        <time>2025-05-03T11:00:33Z</time>
      </trkpt>
      <trkpt lat="41.107744993641973" lon="-7.955363038927317">
        <ele>272.19</ele>
        <time>2025-05-03T11:00:34Z</time>
      </trkpt>
      <trkpt lat="41.107750022783875" lon="-7.955809962004423">
        <ele>268.35000000000002</ele>
        <time>2025-05-03T11:00:39Z</time>
      </trkpt>
      <trkpt lat="41.107750022783875" lon="-7.955900989472866">
        <ele>267.38</ele>
        <time>2025-05-03T11:00:40Z</time>
      </trkpt>
      <trkpt lat="41.107750022783875" lon="-7.955997968092561">
        <ele>265.94</ele>
        <time>2025-05-03T11:00:41Z</time>
      </trkpt>
      <trkpt lat="41.107771983370185" lon="-7.956890976056457">
        <ele>258.25</ele>
        <time>2025-05-03T11:00:50Z</time>
      </trkpt>
      <trkpt lat="41.107839960604906" lon="-7.957009999081492">
        <ele>257.29000000000002</ele>
        <time>2025-05-03T11:00:51Z</time>
      </trkpt>
      <trkpt lat="41.107893018051982" lon="-7.957103038206697">
        <ele>256.81</ele>
        <time>2025-05-03T11:00:52Z</time>
      </trkpt>
      <trkpt lat="41.107951020821929" lon="-7.957214014604688">
        <ele>256.32999999999998</ele>
        <time>2025-05-03T11:00:53Z</time>
      </trkpt>
      <trkpt lat="41.1079559661448" lon="-7.957367990165949">
        <ele>256.32999999999998</ele>
        <time>2025-05-03T11:00:54Z</time>
      </trkpt>
      <trkpt lat="41.108013968914747" lon="-7.957489024847746">
        <ele>255.84999999999999</ele>
        <time>2025-05-03T11:00:55Z</time>
      </trkpt>
      <trkpt lat="41.108074989169836" lon="-7.957616010680795">
        <ele>255.37</ele>
        <time>2025-05-03T11:00:56Z</time>
      </trkpt>
      <trkpt lat="41.108136009424925" lon="-7.957745008170605">
        <ele>255.37</ele>
        <time>2025-05-03T11:00:57Z</time>
      </trkpt>
      <trkpt lat="41.108443960547447" lon="-7.958483034744859">
        <ele>253.44</ele>
        <time>2025-05-03T11:01:03Z</time>
      </trkpt>
      <trkpt lat="41.10846801660955" lon="-7.958607003092766">
        <ele>253.44</ele>
        <time>2025-05-03T11:01:04Z</time>
      </trkpt>
      <trkpt lat="41.108457958325744" lon="-7.95872300863266">
        <ele>252.96000000000001</ele>
        <time>2025-05-03T11:01:05Z</time>
      </trkpt>
      <trkpt lat="41.108406996354461" lon="-7.958838008344173">
        <ele>252.47999999999999</ele>
        <time>2025-05-03T11:01:06Z</time>
      </trkpt>
      <trkpt lat="41.108354022726417" lon="-7.9589609708637">
        <ele>251.52000000000001</ele>
        <time>2025-05-03T11:01:07Z</time>
      </trkpt>
      <trkpt lat="41.10827699303627" lon="-7.959068007767201">
        <ele>250.56</ele>
        <time>2025-05-03T11:01:08Z</time>
      </trkpt>
      <trkpt lat="41.108185965567827" lon="-7.959159035235643">
        <ele>250.08000000000001</ele>
        <time>2025-05-03T11:01:09Z</time>
      </trkpt>
      <trkpt lat="41.107663018628955" lon="-7.959637977182865">
        <ele>246.22999999999999</ele>
        <time>2025-05-03T11:01:15Z</time>
      </trkpt>
      <trkpt lat="41.107571991160512" lon="-7.959691034629941">
        <ele>246.22999999999999</ele>
        <time>2025-05-03T11:01:16Z</time>
      </trkpt>
      <trkpt lat="41.107478030025959" lon="-7.959725987166166">
        <ele>246.22999999999999</ele>
        <time>2025-05-03T11:01:17Z</time>
      </trkpt>
      <trkpt lat="41.107093971222639" lon="-7.959868982434273">
        <ele>246.22999999999999</ele>
        <time>2025-05-03T11:01:21Z</time>
      </trkpt>
      <trkpt lat="41.106807980686426" lon="-7.959955986589193">
        <ele>246.72</ele>
        <time>2025-05-03T11:01:24Z</time>
      </trkpt>
      <trkpt lat="41.106716031208634" lon="-7.959949029609561">
        <ele>246.72</ele>
        <time>2025-05-03T11:01:25Z</time>
      </trkpt>
      <trkpt lat="41.106623997911811" lon="-7.959940982982516">
        <ele>246.72</ele>
        <time>2025-05-03T11:01:26Z</time>
      </trkpt>
      <trkpt lat="41.106456024572253" lon="-7.95992698520422">
        <ele>247.19999999999999</ele>
        <time>2025-05-03T11:01:28Z</time>
      </trkpt>
      <trkpt lat="41.106388969346881" lon="-7.959921034052968">
        <ele>247.19999999999999</ele>
        <time>2025-05-03T11:01:29Z</time>
      </trkpt>
      <trkpt lat="41.106333984062076" lon="-7.959917010739446">
        <ele>246.72</ele>
        <time>2025-05-03T11:01:30Z</time>
      </trkpt>
      <trkpt lat="41.106284027919173" lon="-7.959924973547459">
        <ele>246.72</ele>
        <time>2025-05-03T11:01:31Z</time>
      </trkpt>
      <trkpt lat="41.106227030977607" lon="-7.959934026002884">
        <ele>246.72</ele>
        <time>2025-05-03T11:01:32Z</time>
      </trkpt>
      <trkpt lat="41.106162993237376" lon="-7.959945006296039">
        <ele>246.22999999999999</ele>
        <time>2025-05-03T11:01:33Z</time>
      </trkpt>
      <trkpt lat="41.106096021831036" lon="-7.959955986589193">
        <ele>246.22999999999999</ele>
        <time>2025-05-03T11:01:34Z</time>
      </trkpt>
      <trkpt lat="41.106041958555579" lon="-7.959985993802548">
        <ele>246.22999999999999</ele>
        <time>2025-05-03T11:01:35Z</time>
      </trkpt>
      <trkpt lat="41.105987979099154" lon="-7.960025975480676">
        <ele>246.22999999999999</ele>
        <time>2025-05-03T11:01:36Z</time>
      </trkpt>
      <trkpt lat="41.105938022956252" lon="-7.960063023492694">
        <ele>246.22999999999999</ele>
        <time>2025-05-03T11:01:37Z</time>
      </trkpt>
      <trkpt lat="41.105866022408009" lon="-7.960173999890685">
        <ele>246.22999999999999</ele>
        <time>2025-05-03T11:01:39Z</time>
      </trkpt>
      <trkpt lat="41.105835009366274" lon="-7.960242982953787">
        <ele>245.75</ele>
        <time>2025-05-03T11:01:40Z</time>
      </trkpt>
      <trkpt lat="41.105797961354256" lon="-7.960324035957456">
        <ele>245.75</ele>
        <time>2025-05-03T11:01:41Z</time>
      </trkpt>
      <trkpt lat="41.105797961354256" lon="-7.960388995707035">
        <ele>245.75</ele>
        <time>2025-05-03T11:01:42Z</time>
      </trkpt>
      <trkpt lat="41.105811959132552" lon="-7.960454039275646">
        <ele>245.75</ele>
        <time>2025-05-03T11:01:43Z</time>
      </trkpt>
      <trkpt lat="41.1058250349015" lon="-7.960515981540084">
        <ele>245.75</ele>
        <time>2025-05-03T11:01:44Z</time>
      </trkpt>
      <trkpt lat="41.105839032679796" lon="-7.960582030937076">
        <ele>245.75</ele>
        <time>2025-05-03T11:01:45Z</time>
      </trkpt>
      <trkpt lat="41.105854958295822" lon="-7.9606550373137">
        <ele>245.75</ele>
        <time>2025-05-03T11:01:46Z</time>
      </trkpt>
      <trkpt lat="41.105887982994318" lon="-7.960713962092996">
        <ele>245.75</ele>
        <time>2025-05-03T11:01:47Z</time>
      </trkpt>
      <trkpt lat="41.105938022956252" lon="-7.960761990398169">
        <ele>245.27000000000001</ele>
        <time>2025-05-03T11:01:48Z</time>
      </trkpt>
      <trkpt lat="41.105995019897819" lon="-7.960816975682974">
        <ele>245.27000000000001</ele>
        <time>2025-05-03T11:01:49Z</time>
      </trkpt>
      <trkpt lat="41.106059979647398" lon="-7.960877995938063">
        <ele>245.27000000000001</ele>
        <time>2025-05-03T11:01:50Z</time>
      </trkpt>
      <trkpt lat="41.106401039287448" lon="-7.961246967315674">
        <ele>243.34999999999999</ele>
        <time>2025-05-03T11:01:55Z</time>
      </trkpt>
      <trkpt lat="41.106455018743873" lon="-7.961350986734033">
        <ele>242.87</ele>
        <time>2025-05-03T11:01:56Z</time>
      </trkpt>
      <trkpt lat="41.106508998200297" lon="-7.96145299449563">
        <ele>242.87</ele>
        <time>2025-05-03T11:01:57Z</time>
      </trkpt>
      <trkpt lat="41.106570018455386" lon="-7.961569000035524">
        <ele>242.38999999999999</ele>
        <time>2025-05-03T11:01:58Z</time>
      </trkpt>
      <trkpt lat="41.106588961556554" lon="-7.961678970605135">
        <ele>241.91</ele>
        <time>2025-05-03T11:01:59Z</time>
      </trkpt>
      <trkpt lat="41.106612011790276" lon="-7.961807968094945">
        <ele>241.91</ele>
        <time>2025-05-03T11:02:00Z</time>
      </trkpt>
      <trkpt lat="41.106656016781926" lon="-7.962215999141336">
        <ele>239.99000000000001</ele>
        <time>2025-05-03T11:02:03Z</time>
      </trkpt>
      <trkpt lat="41.106440015137196" lon="-7.963229035958648">
        <ele>236.62</ele>
        <time>2025-05-03T11:02:10Z</time>
      </trkpt>
      <trkpt lat="41.106267012655735" lon="-7.963817026466131">
        <ele>235.18000000000001</ele>
        <time>2025-05-03T11:02:14Z</time>
      </trkpt>
      <trkpt lat="41.106246979907155" lon="-7.963935965672135">
        <ele>234.69999999999999</ele>
        <time>2025-05-03T11:02:15Z</time>
      </trkpt>
      <trkpt lat="41.106229964643717" lon="-7.964038979262114">
        <ele>234.69999999999999</ele>
        <time>2025-05-03T11:02:16Z</time>
      </trkpt>
      <trkpt lat="41.106245974078774" lon="-7.964127995073795">
        <ele>233.74000000000001</ele>
        <time>2025-05-03T11:02:17Z</time>
      </trkpt>
      <trkpt lat="41.106270030140877" lon="-7.964216005057097">
        <ele>233.25999999999999</ele>
        <time>2025-05-03T11:02:18Z</time>
      </trkpt>
      <trkpt lat="41.106313029304147" lon="-7.964304015040398">
        <ele>233.25999999999999</ele>
        <time>2025-05-03T11:02:19Z</time>
      </trkpt>
      <trkpt lat="41.106386035680771" lon="-7.964337039738894">
        <ele>233.25999999999999</ele>
        <time>2025-05-03T11:02:20Z</time>
      </trkpt>
      <trkpt lat="41.10647396184504" lon="-7.964377021417022">
        <ele>233.25999999999999</ele>
        <time>2025-05-03T11:02:21Z</time>
      </trkpt>
      <trkpt lat="41.106560965999961" lon="-7.964407028630376">
        <ele>233.25999999999999</ele>
        <time>2025-05-03T11:02:22Z</time>
      </trkpt>
      <trkpt lat="41.106648975983262" lon="-7.964423038065434">
        <ele>232.78</ele>
        <time>2025-05-03T11:02:23Z</time>
      </trkpt>
      <trkpt lat="41.107059018686414" lon="-7.964495960623026">
        <ele>231.81</ele>
        <time>2025-05-03T11:02:27Z</time>
      </trkpt>
      <trkpt lat="41.107148034498096" lon="-7.96452596783638">
        <ele>230.84999999999999</ele>
        <time>2025-05-03T11:02:28Z</time>
      </trkpt>
      <trkpt lat="41.10722498036921" lon="-7.964595034718514">
        <ele>230.37</ele>
        <time>2025-05-03T11:02:29Z</time>
      </trkpt>
      <trkpt lat="41.107321036979556" lon="-7.964680027216673">
        <ele>229.88999999999999</ele>
        <time>2025-05-03T11:02:30Z</time>
      </trkpt>
      <trkpt lat="41.107361018657684" lon="-7.964773988351226">
        <ele>229.88999999999999</ele>
        <time>2025-05-03T11:02:31Z</time>
      </trkpt>
      <trkpt lat="41.107385996729136" lon="-7.964898040518165">
        <ele>229.41</ele>
        <time>2025-05-03T11:02:32Z</time>
      </trkpt>
      <trkpt lat="41.107385996729136" lon="-7.965014968067408">
        <ele>228.93000000000001</ele>
        <time>2025-05-03T11:02:33Z</time>
      </trkpt>
      <trkpt lat="41.107385996729136" lon="-7.965129967778921">
        <ele>228.44999999999999</ele>
        <time>2025-05-03T11:02:34Z</time>
      </trkpt>
      <trkpt lat="41.107385996729136" lon="-7.965239016339183">
        <ele>227.97</ele>
        <time>2025-05-03T11:02:35Z</time>
      </trkpt>
      <trkpt lat="41.107378033921123" lon="-7.965343035757542">
        <ele>227.00999999999999</ele>
        <time>2025-05-03T11:02:36Z</time>
      </trkpt>
      <trkpt lat="41.107339980080724" lon="-7.965434985235333">
        <ele>226.53</ele>
        <time>2025-05-03T11:02:37Z</time>
      </trkpt>
      <trkpt lat="41.107299998402596" lon="-7.965531041845679">
        <ele>225.56999999999999</ele>
        <time>2025-05-03T11:02:38Z</time>
      </trkpt>
      <trkpt lat="41.107250964269042" lon="-7.965617962181568">
        <ele>225.09</ele>
        <time>2025-05-03T11:02:39Z</time>
      </trkpt>
      <trkpt lat="41.107188016176224" lon="-7.965702032670379">
        <ele>224.61000000000001</ele>
        <time>2025-05-03T11:02:40Z</time>
      </trkpt>
      <trkpt lat="41.107114003971219" lon="-7.965776966884732">
        <ele>224.61000000000001</ele>
        <time>2025-05-03T11:02:41Z</time>
      </trkpt>
      <trkpt lat="41.106818038970232" lon="-7.966043008491397">
        <ele>225.09</ele>
        <time>2025-05-03T11:02:45Z</time>
      </trkpt>
      <trkpt lat="41.10675198957324" lon="-7.966116014868021">
        <ele>225.09</ele>
        <time>2025-05-03T11:02:46Z</time>
      </trkpt>
      <trkpt lat="41.106693986803293" lon="-7.9661809746176">
        <ele>225.09</ele>
        <time>2025-05-03T11:02:47Z</time>
      </trkpt>
      <trkpt lat="41.106634978204966" lon="-7.966247024014592">
        <ele>225.09</ele>
        <time>2025-05-03T11:02:48Z</time>
      </trkpt>
      <trkpt lat="41.10657999292016" lon="-7.966279964894056">
        <ele>225.56999999999999</ele>
        <time>2025-05-03T11:02:49Z</time>
      </trkpt>
      <trkpt lat="41.106516038998961" lon="-7.966317012906075">
        <ele>225.56999999999999</ele>
        <time>2025-05-03T11:02:50Z</time>
      </trkpt>
      <trkpt lat="41.106442026793957" lon="-7.966353977099061">
        <ele>225.56999999999999</ele>
        <time>2025-05-03T11:02:51Z</time>
      </trkpt>
      <trkpt lat="41.106395004317164" lon="-7.966422960162163">
        <ele>225.09</ele>
        <time>2025-05-03T11:02:52Z</time>
      </trkpt>
      <trkpt lat="41.106382012367249" lon="-7.96652396209538">
        <ele>224.61000000000001</ele>
        <time>2025-05-03T11:02:53Z</time>
      </trkpt>
      <trkpt lat="41.106367008760571" lon="-7.966637033969164">
        <ele>224.61000000000001</ele>
        <time>2025-05-03T11:02:54Z</time>
      </trkpt>
      <trkpt lat="41.106352005153894" lon="-7.966753961518407">
        <ele>224.61000000000001</ele>
        <time>2025-05-03T11:02:55Z</time>
      </trkpt>
      <trkpt lat="41.106335995718837" lon="-7.966873990371823">
        <ele>224.61000000000001</ele>
        <time>2025-05-03T11:02:56Z</time>
      </trkpt>
      <trkpt lat="41.10630196519196" lon="-7.967129973694682">
        <ele>224.12</ele>
        <time>2025-05-03T11:02:58Z</time>
      </trkpt>
      <trkpt lat="41.106280004605651" lon="-7.967246985062957">
        <ele>224.12</ele>
        <time>2025-05-03T11:02:59Z</time>
      </trkpt>
      <trkpt lat="41.106243040412664" lon="-7.967367013916373">
        <ele>224.12</ele>
        <time>2025-05-03T11:03:00Z</time>
      </trkpt>
      <trkpt lat="41.106168022379279" lon="-7.967605981975794">
        <ele>223.16</ele>
        <time>2025-05-03T11:03:02Z</time>
      </trkpt>
      <trkpt lat="41.10612996853888" lon="-7.96772500500083">
        <ele>222.68000000000001</ele>
        <time>2025-05-03T11:03:03Z</time>
      </trkpt>
      <trkpt lat="41.106055034324527" lon="-7.96796397306025">
        <ele>221.24000000000001</ele>
        <time>2025-05-03T11:03:05Z</time>
      </trkpt>
      <trkpt lat="41.105853030458093" lon="-7.968657994642854">
        <ele>219.80000000000001</ele>
        <time>2025-05-03T11:03:11Z</time>
      </trkpt>
      <trkpt lat="41.105866022408009" lon="-7.968782968819141">
        <ele>219.80000000000001</ele>
        <time>2025-05-03T11:03:12Z</time>
      </trkpt>
      <trkpt lat="41.105879014357924" lon="-7.968910038471222">
        <ele>219.80000000000001</ele>
        <time>2025-05-03T11:03:13Z</time>
      </trkpt>
      <trkpt lat="41.105926958844066" lon="-7.96901497989893">
        <ele>219.80000000000001</ele>
        <time>2025-05-03T11:03:14Z</time>
      </trkpt>
      <trkpt lat="41.105993008241057" lon="-7.969109024852514">
        <ele>219.80000000000001</ele>
        <time>2025-05-03T11:03:15Z</time>
      </trkpt>
      <trkpt lat="41.106069032102823" lon="-7.969199968501926">
        <ele>219.31999999999999</ele>
        <time>2025-05-03T11:03:16Z</time>
      </trkpt>
      <trkpt lat="41.106153018772602" lon="-7.969284038990736">
        <ele>218.36000000000001</ele>
        <time>2025-05-03T11:03:17Z</time>
      </trkpt>
      <trkpt lat="41.106237005442381" lon="-7.969368025660515">
        <ele>217.88</ele>
        <time>2025-05-03T11:03:18Z</time>
      </trkpt>
      <trkpt lat="41.106315040960908" lon="-7.969471961259842">
        <ele>216.91</ele>
        <time>2025-05-03T11:03:19Z</time>
      </trkpt>
      <trkpt lat="41.106388969346881" lon="-7.969575980678201">
        <ele>215.94999999999999</ele>
        <time>2025-05-03T11:03:20Z</time>
      </trkpt>
      <trkpt lat="41.106458036229014" lon="-7.969672959297895">
        <ele>214.99000000000001</ele>
        <time>2025-05-03T11:03:21Z</time>
      </trkpt>
      <trkpt lat="41.106472034007311" lon="-7.969804974272847">
        <ele>214.03</ele>
        <time>2025-05-03T11:03:22Z</time>
      </trkpt>
      <trkpt lat="41.106481002643704" lon="-7.96993900090456">
        <ele>212.59</ele>
        <time>2025-05-03T11:03:23Z</time>
      </trkpt>
      <trkpt lat="41.106461975723505" lon="-7.97006799839437">
        <ele>211.63</ele>
        <time>2025-05-03T11:03:24Z</time>
      </trkpt>
      <trkpt lat="41.10642702318728" lon="-7.970202025026083">
        <ele>210.66999999999999</ele>
        <time>2025-05-03T11:03:25Z</time>
      </trkpt>
      <trkpt lat="41.106389975175261" lon="-7.97034602612257">
        <ele>210.19</ele>
        <time>2025-05-03T11:03:26Z</time>
      </trkpt>
      <trkpt lat="41.106348987668753" lon="-7.970502013340592">
        <ele>209.69999999999999</ele>
        <time>2025-05-03T11:03:27Z</time>
      </trkpt>
      <trkpt lat="41.106187971308827" lon="-7.970977015793324">
        <ele>208.25999999999999</ele>
        <time>2025-05-03T11:03:30Z</time>
      </trkpt>
      <trkpt lat="41.106099039316177" lon="-7.971095032989979">
        <ele>207.30000000000001</ele>
        <time>2025-05-03T11:03:31Z</time>
      </trkpt>
      <trkpt lat="41.106012035161257" lon="-7.971202991902828">
        <ele>206.34</ele>
        <time>2025-05-03T11:03:32Z</time>
      </trkpt>
      <trkpt lat="41.105908015742898" lon="-7.971272980794311">
        <ele>205.38</ele>
        <time>2025-05-03T11:03:33Z</time>
      </trkpt>
      <trkpt lat="41.105802990496159" lon="-7.97133500687778">
        <ele>204.90000000000001</ele>
        <time>2025-05-03T11:03:34Z</time>
      </trkpt>
      <trkpt lat="41.105682039633393" lon="-7.971358979120851">
        <ele>203.94</ele>
        <time>2025-05-03T11:03:35Z</time>
      </trkpt>
      <trkpt lat="41.105552036315203" lon="-7.971385968849063">
        <ele>203.46000000000001</ele>
        <time>2025-05-03T11:03:36Z</time>
      </trkpt>
      <trkpt lat="41.10541800968349" lon="-7.971412036567926">
        <ele>202.49000000000001</ele>
        <time>2025-05-03T11:03:37Z</time>
      </trkpt>
      <trkpt lat="41.105307033285499" lon="-7.971386974677444">
        <ele>202.00999999999999</ele>
        <time>2025-05-03T11:03:38Z</time>
      </trkpt>
      <trkpt lat="41.105179963633418" lon="-7.971339030191302">
        <ele>201.53</ele>
        <time>2025-05-03T11:03:39Z</time>
      </trkpt>
      <trkpt lat="41.105049960315228" lon="-7.971291001886129">
        <ele>201.05000000000001</ele>
        <time>2025-05-03T11:03:40Z</time>
      </trkpt>
      <trkpt lat="41.104922974482179" lon="-7.971242973580957">
        <ele>200.56999999999999</ele>
        <time>2025-05-03T11:03:41Z</time>
      </trkpt>
      <trkpt lat="41.10479699447751" lon="-7.971202991902828">
        <ele>199.13</ele>
        <time>2025-05-03T11:03:42Z</time>
      </trkpt>
      <trkpt lat="41.104660034179688" lon="-7.971164016053081">
        <ele>198.16999999999999</ele>
        <time>2025-05-03T11:03:43Z</time>
      </trkpt>
      <trkpt lat="41.104521984234452" lon="-7.971133003011346">
        <ele>196.72999999999999</ele>
        <time>2025-05-03T11:03:44Z</time>
      </trkpt>
      <trkpt lat="41.104385023936629" lon="-7.971117999404669">
        <ele>195.77000000000001</ele>
        <time>2025-05-03T11:03:45Z</time>
      </trkpt>
      <trkpt lat="41.1042570322752" lon="-7.971153035759926">
        <ele>194.31999999999999</ele>
        <time>2025-05-03T11:03:46Z</time>
      </trkpt>
      <trkpt lat="41.10412803478539" lon="-7.971189999952912">
        <ele>192.88</ele>
        <time>2025-05-03T11:03:47Z</time>
      </trkpt>
      <trkpt lat="41.104017980396748" lon="-7.97124900855124">
        <ele>191.44</ele>
        <time>2025-05-03T11:03:48Z</time>
      </trkpt>
      <trkpt lat="41.103710029274225" lon="-7.971521001309156">
        <ele>188.56</ele>
        <time>2025-05-03T11:03:51Z</time>
      </trkpt>
      <trkpt lat="41.103626964613795" lon="-7.971611022949219">
        <ele>187.59</ele>
        <time>2025-05-03T11:03:52Z</time>
      </trkpt>
      <trkpt lat="41.103581031784415" lon="-7.971688974648714">
        <ele>187.11000000000001</ele>
        <time>2025-05-03T11:03:53Z</time>
      </trkpt>
      <trkpt lat="41.103562004864216" lon="-7.971797017380595">
        <ele>186.63</ele>
        <time>2025-05-03T11:03:54Z</time>
      </trkpt>
      <trkpt lat="41.103553036227822" lon="-7.971904976293445">
        <ele>186.15000000000001</ele>
        <time>2025-05-03T11:03:55Z</time>
      </trkpt>
      <trkpt lat="41.103606009855866" lon="-7.972001032903791">
        <ele>185.66999999999999</ele>
        <time>2025-05-03T11:03:56Z</time>
      </trkpt>
      <trkpt lat="41.103683961555362" lon="-7.972088037058711">
        <ele>185.19</ele>
        <time>2025-05-03T11:03:57Z</time>
      </trkpt>
      <trkpt lat="41.10378697514534" lon="-7.972105974331498">
        <ele>184.71000000000001</ele>
        <time>2025-05-03T11:03:58Z</time>
      </trkpt>
      <trkpt lat="41.103909015655518" lon="-7.972126007080078">
        <ele>184.71000000000001</ele>
        <time>2025-05-03T11:03:59Z</time>
      </trkpt>
      <trkpt lat="41.104029966518283" lon="-7.972078984603286">
        <ele>184.22999999999999</ele>
        <time>2025-05-03T11:04:00Z</time>
      </trkpt>
      <trkpt lat="41.10415100120008" lon="-7.972031962126494">
        <ele>183.75</ele>
        <time>2025-05-03T11:04:01Z</time>
      </trkpt>
      <trkpt lat="41.104296008124948" lon="-7.971975971013308">
        <ele>183.75</ele>
        <time>2025-05-03T11:04:02Z</time>
      </trkpt>
      <trkpt lat="41.104369014501572" lon="-7.97200002707541">
        <ele>184.22999999999999</ele>
        <time>2025-05-03T11:04:03Z</time>
      </trkpt>
      <trkpt lat="41.10447596758604" lon="-7.972063980996609">
        <ele>184.22999999999999</ele>
        <time>2025-05-03T11:04:04Z</time>
      </trkpt>
      <trkpt lat="41.104577975347638" lon="-7.972154002636671">
        <ele>185.19</ele>
        <time>2025-05-03T11:04:05Z</time>
      </trkpt>
      <trkpt lat="41.104679983109236" lon="-7.97225802205503">
        <ele>185.66999999999999</ele>
        <time>2025-05-03T11:04:06Z</time>
      </trkpt>
      <trkpt lat="41.105009978637099" lon="-7.972604027017951">
        <ele>188.08000000000001</ele>
        <time>2025-05-03T11:04:09Z</time>
      </trkpt>
      <trkpt lat="41.105694025754929" lon="-7.973107025027275">
        <ele>192.40000000000001</ele>
        <time>2025-05-03T11:04:14Z</time>
      </trkpt>
      <trkpt lat="41.106180008500814" lon="-7.973273992538452">
        <ele>194.80000000000001</ele>
        <time>2025-05-03T11:04:17Z</time>
      </trkpt>
      <trkpt lat="41.106331972405314" lon="-7.973296036943793">
        <ele>194.80000000000001</ele>
        <time>2025-05-03T11:04:18Z</time>
      </trkpt>
      <trkpt lat="41.106488965451717" lon="-7.973256977275014">
        <ele>195.28</ele>
        <time>2025-05-03T11:04:19Z</time>
      </trkpt>
      <trkpt lat="41.107056001201272" lon="-7.973143989220262">
        <ele>197.69</ele>
        <time>2025-05-03T11:04:23Z</time>
      </trkpt>
      <trkpt lat="41.107167983427644" lon="-7.973175002261996">
        <ele>198.65000000000001</ele>
        <time>2025-05-03T11:04:24Z</time>
      </trkpt>
      <trkpt lat="41.107279965654016" lon="-7.97322697006166">
        <ele>199.13</ele>
        <time>2025-05-03T11:04:25Z</time>
      </trkpt>
      <trkpt lat="41.107367975637317" lon="-7.973338030278683">
        <ele>200.09</ele>
        <time>2025-05-03T11:04:26Z</time>
      </trkpt>
      <trkpt lat="41.107463026419282" lon="-7.973456969484687">
        <ele>200.56999999999999</ele>
        <time>2025-05-03T11:04:27Z</time>
      </trkpt>
      <trkpt lat="41.107560005038977" lon="-7.973578004166484">
        <ele>201.05000000000001</ele>
        <time>2025-05-03T11:04:28Z</time>
      </trkpt>
      <trkpt lat="41.107879020273685" lon="-7.974141016602516">
        <ele>202.00999999999999</ele>
        <time>2025-05-03T11:04:32Z</time>
      </trkpt>
      <trkpt lat="41.107907015830278" lon="-7.974286023527384">
        <ele>201.53</ele>
        <time>2025-05-03T11:04:33Z</time>
      </trkpt>
      <trkpt lat="41.107915984466672" lon="-7.974438993260264">
        <ele>201.05000000000001</ele>
        <time>2025-05-03T11:04:34Z</time>
      </trkpt>
      <trkpt lat="41.107903998345137" lon="-7.97460000962019">
        <ele>200.56999999999999</ele>
        <time>2025-05-03T11:04:35Z</time>
      </trkpt>
      <trkpt lat="41.107858987525105" lon="-7.974774017930031">
        <ele>200.09</ele>
        <time>2025-05-03T11:04:36Z</time>
      </trkpt>
      <trkpt lat="41.107810959219933" lon="-7.974960012361407">
        <ele>199.61000000000001</ele>
        <time>2025-05-03T11:04:37Z</time>
      </trkpt>
      <trkpt lat="41.10720100812614" lon="-7.976719038560987">
        <ele>196.72999999999999</ele>
        <time>2025-05-03T11:04:46Z</time>
      </trkpt>
      <trkpt lat="41.107171000912786" lon="-7.976881982758641">
        <ele>196.25</ele>
        <time>2025-05-03T11:04:47Z</time>
      </trkpt>
      <trkpt lat="41.107171000912786" lon="-7.977035958319902">
        <ele>195.77000000000001</ele>
        <time>2025-05-03T11:04:48Z</time>
      </trkpt>
      <trkpt lat="41.10722397454083" lon="-7.977168979123235">
        <ele>195.77000000000001</ele>
        <time>2025-05-03T11:04:49Z</time>
      </trkpt>
      <trkpt lat="41.107301004230976" lon="-7.977294037118554">
        <ele>195.77000000000001</ele>
        <time>2025-05-03T11:04:50Z</time>
      </trkpt>
      <trkpt lat="41.107382979243994" lon="-7.977424962446094">
        <ele>195.28</ele>
        <time>2025-05-03T11:04:51Z</time>
      </trkpt>
      <trkpt lat="41.107467971742153" lon="-7.977563012391329">
        <ele>195.28</ele>
        <time>2025-05-03T11:04:52Z</time>
      </trkpt>
      <trkpt lat="41.107551958411932" lon="-7.977699972689152">
        <ele>194.80000000000001</ele>
        <time>2025-05-03T11:04:53Z</time>
      </trkpt>
      <trkpt lat="41.107625970616937" lon="-7.977831987664104">
        <ele>194.80000000000001</ele>
        <time>2025-05-03T11:04:54Z</time>
      </trkpt>
      <trkpt lat="41.107662012800574" lon="-7.97797498293221">
        <ele>194.31999999999999</ele>
        <time>2025-05-03T11:04:55Z</time>
      </trkpt>
      <trkpt lat="41.107679028064013" lon="-7.978129964321852">
        <ele>193.36000000000001</ele>
        <time>2025-05-03T11:04:56Z</time>
      </trkpt>
      <trkpt lat="41.107660001143813" lon="-7.978282012045384">
        <ele>193.36000000000001</ele>
        <time>2025-05-03T11:04:57Z</time>
      </trkpt>
      <trkpt lat="41.10760903917253" lon="-7.978422995656729">
        <ele>192.88</ele>
        <time>2025-05-03T11:04:58Z</time>
      </trkpt>
      <trkpt lat="41.107541983947158" lon="-7.978565990924835">
        <ele>192.40000000000001</ele>
        <time>2025-05-03T11:04:59Z</time>
      </trkpt>
      <trkpt lat="41.107471995055676" lon="-7.978717032819986">
        <ele>192.40000000000001</ele>
        <time>2025-05-03T11:05:00Z</time>
      </trkpt>
      <trkpt lat="41.107398988679051" lon="-7.978873020038009">
        <ele>191.91999999999999</ele>
        <time>2025-05-03T11:05:01Z</time>
      </trkpt>
      <trkpt lat="41.107252975925803" lon="-7.979188011959195">
        <ele>190.96000000000001</ele>
        <time>2025-05-03T11:05:03Z</time>
      </trkpt>
      <trkpt lat="41.107196984812617" lon="-7.979343999177218">
        <ele>190.47999999999999</ele>
        <time>2025-05-03T11:05:04Z</time>
      </trkpt>
      <trkpt lat="41.106971008703113" lon="-7.980156959965825">
        <ele>188.08000000000001</ele>
        <time>2025-05-03T11:05:09Z</time>
      </trkpt>
      <trkpt lat="41.10690101981163" lon="-7.980292998254299">
        <ele>187.59</ele>
        <time>2025-05-03T11:05:10Z</time>
      </trkpt>
      <trkpt lat="41.106804041191936" lon="-7.980389976873994">
        <ele>187.11000000000001</ele>
        <time>2025-05-03T11:05:11Z</time>
      </trkpt>
      <trkpt lat="41.10670798458159" lon="-7.980485027655959">
        <ele>187.11000000000001</ele>
        <time>2025-05-03T11:05:12Z</time>
      </trkpt>
      <trkpt lat="41.106614023447037" lon="-7.980579994618893">
        <ele>186.15000000000001</ele>
        <time>2025-05-03T11:05:13Z</time>
      </trkpt>
      <trkpt lat="41.106339013203979" lon="-7.98089599236846">
        <ele>184.71000000000001</ele>
        <time>2025-05-03T11:05:16Z</time>
      </trkpt>
      <trkpt lat="41.106282016262412" lon="-7.981020966544747">
        <ele>184.22999999999999</ele>
        <time>2025-05-03T11:05:17Z</time>
      </trkpt>
      <trkpt lat="41.105713974684477" lon="-7.982239024713635">
        <ele>181.83000000000001</ele>
        <time>2025-05-03T11:05:25Z</time>
      </trkpt>
      <trkpt lat="41.105658989399672" lon="-7.982402974739671">
        <ele>181.34999999999999</ele>
        <time>2025-05-03T11:05:26Z</time>
      </trkpt>
      <trkpt lat="41.105630993843079" lon="-7.98257002606988">
        <ele>180.87</ele>
        <time>2025-05-03T11:05:27Z</time>
      </trkpt>
      <trkpt lat="41.105604004114866" lon="-7.982732970267534">
        <ele>180.38</ele>
        <time>2025-05-03T11:05:28Z</time>
      </trkpt>
      <trkpt lat="41.105576008558273" lon="-7.98289499245584">
        <ele>179.41999999999999</ele>
        <time>2025-05-03T11:05:29Z</time>
      </trkpt>
      <trkpt lat="41.105551030486822" lon="-7.983047962188721">
        <ele>178.46000000000001</ele>
        <time>2025-05-03T11:05:30Z</time>
      </trkpt>
      <trkpt lat="41.105494033545256" lon="-7.983180982992053">
        <ele>177.97999999999999</ele>
        <time>2025-05-03T11:05:31Z</time>
      </trkpt>
      <trkpt lat="41.105411974713206" lon="-7.983305035158992">
        <ele>177.02000000000001</ele>
        <time>2025-05-03T11:05:32Z</time>
      </trkpt>
      <trkpt lat="41.105331005528569" lon="-7.983426991850138">
        <ele>176.53999999999999</ele>
        <time>2025-05-03T11:05:33Z</time>
      </trkpt>
      <trkpt lat="41.105239978060126" lon="-7.983563030138612">
        <ele>175.58000000000001</ele>
        <time>2025-05-03T11:05:34Z</time>
      </trkpt>
      <trkpt lat="41.1049460247159" lon="-7.983893025666475">
        <ele>174.62</ele>
        <time>2025-05-03T11:05:37Z</time>
      </trkpt>
      <trkpt lat="41.104873018339276" lon="-7.984039960429072">
        <ele>174.13999999999999</ele>
        <time>2025-05-03T11:05:38Z</time>
      </trkpt>
      <trkpt lat="41.104835970327258" lon="-7.984200976788998">
        <ele>173.66</ele>
        <time>2025-05-03T11:05:39Z</time>
      </trkpt>
      <trkpt lat="41.104811998084188" lon="-7.984369033947587">
        <ele>173.16999999999999</ele>
        <time>2025-05-03T11:05:40Z</time>
      </trkpt>
      <trkpt lat="41.104789031669497" lon="-7.984533989802003">
        <ele>172.69</ele>
        <time>2025-05-03T11:05:41Z</time>
      </trkpt>
      <trkpt lat="41.104767993092537" lon="-7.984678996726871">
        <ele>172.21000000000001</ele>
        <time>2025-05-03T11:05:42Z</time>
      </trkpt>
      <trkpt lat="41.104680988937616" lon="-7.984766000881791">
        <ele>171.72999999999999</ele>
        <time>2025-05-03T11:05:43Z</time>
      </trkpt>
      <trkpt lat="41.104599013924599" lon="-7.984846970066428">
        <ele>171.25</ele>
        <time>2025-05-03T11:05:44Z</time>
      </trkpt>
      <trkpt lat="41.10451502725482" lon="-7.984931962564588">
        <ele>170.77000000000001</ele>
        <time>2025-05-03T11:05:45Z</time>
      </trkpt>
      <trkpt lat="41.104426011443138" lon="-7.985020978376269">
        <ele>170.28999999999999</ele>
        <time>2025-05-03T11:05:46Z</time>
      </trkpt>
      <trkpt lat="41.104331966489553" lon="-7.985114017501473">
        <ele>169.81</ele>
        <time>2025-05-03T11:05:47Z</time>
      </trkpt>
      <trkpt lat="41.10423699952662" lon="-7.985209990292788">
        <ele>169.33000000000001</ele>
        <time>2025-05-03T11:05:48Z</time>
      </trkpt>
      <trkpt lat="41.10415100120008" lon="-7.985324990004301">
        <ele>168.84999999999999</ele>
        <time>2025-05-03T11:05:49Z</time>
      </trkpt>
      <trkpt lat="41.104070032015443" lon="-7.985447030514479">
        <ele>168.84999999999999</ele>
        <time>2025-05-03T11:05:50Z</time>
      </trkpt>
      <trkpt lat="41.104002976790071" lon="-7.985570998862386">
        <ele>168.37</ele>
        <time>2025-05-03T11:05:51Z</time>
      </trkpt>
      <trkpt lat="41.103948997333646" lon="-7.985690021887422">
        <ele>168.37</ele>
        <time>2025-05-03T11:05:52Z</time>
      </trkpt>
      <trkpt lat="41.103938017040491" lon="-7.985809966921806">
        <ele>167.88999999999999</ele>
        <time>2025-05-03T11:05:53Z</time>
      </trkpt>
      <trkpt lat="41.103950003162026" lon="-7.985937958583236">
        <ele>167.88999999999999</ele>
        <time>2025-05-03T11:05:54Z</time>
      </trkpt>
      <trkpt lat="41.104008005931973" lon="-7.986027980223298">
        <ele>167.41</ele>
        <time>2025-05-03T11:05:55Z</time>
      </trkpt>
      <trkpt lat="41.104086963459849" lon="-7.986115990206599">
        <ele>167.88999999999999</ele>
        <time>2025-05-03T11:05:56Z</time>
      </trkpt>
      <trkpt lat="41.104166004806757" lon="-7.9862040001899">
        <ele>167.88999999999999</ele>
        <time>2025-05-03T11:05:57Z</time>
      </trkpt>
      <trkpt lat="41.104245968163013" lon="-7.986293016001582">
        <ele>168.37</ele>
        <time>2025-05-03T11:05:58Z</time>
      </trkpt>
      <trkpt lat="41.104319980368018" lon="-7.986373985186219">
        <ele>167.88999999999999</ele>
        <time>2025-05-03T11:05:59Z</time>
      </trkpt>
      <trkpt lat="41.104361973702908" lon="-7.986458977684379">
        <ele>167.88999999999999</ele>
        <time>2025-05-03T11:06:00Z</time>
      </trkpt>
      <trkpt lat="41.104392986744642" lon="-7.986541036516428">
        <ele>167.88999999999999</ele>
        <time>2025-05-03T11:06:01Z</time>
      </trkpt>
      <trkpt lat="41.104414025321603" lon="-7.986641032621265">
        <ele>167.88999999999999</ele>
        <time>2025-05-03T11:06:02Z</time>
      </trkpt>
      <trkpt lat="41.104423999786377" lon="-7.986759971827269">
        <ele>167.88999999999999</ele>
        <time>2025-05-03T11:06:03Z</time>
      </trkpt>
      <trkpt lat="41.104423999786377" lon="-7.986893998458982">
        <ele>167.88999999999999</ele>
        <time>2025-05-03T11:06:04Z</time>
      </trkpt>
      <trkpt lat="41.104435985907912" lon="-7.987027019262314">
        <ele>167.41</ele>
        <time>2025-05-03T11:06:05Z</time>
      </trkpt>
      <trkpt lat="41.104480996727943" lon="-7.987456005066633">
        <ele>165.96000000000001</ele>
        <time>2025-05-03T11:06:08Z</time>
      </trkpt>
      <trkpt lat="41.10451796092093" lon="-7.98757603392005">
        <ele>165.47999999999999</ele>
        <time>2025-05-03T11:06:09Z</time>
      </trkpt>
      <trkpt lat="41.104593984782696" lon="-7.987690027803183">
        <ele>165.47999999999999</ele>
        <time>2025-05-03T11:06:10Z</time>
      </trkpt>
      <trkpt lat="41.104678977280855" lon="-7.987788012251258">
        <ele>165</ele>
        <time>2025-05-03T11:06:11Z</time>
      </trkpt>
      <trkpt lat="41.104772016406059" lon="-7.98788096755743">
        <ele>164.52000000000001</ele>
        <time>2025-05-03T11:06:12Z</time>
      </trkpt>
      <trkpt lat="41.10486002638936" lon="-7.987967971712351">
        <ele>164.52000000000001</ele>
        <time>2025-05-03T11:06:13Z</time>
      </trkpt>
      <trkpt lat="41.104930015280843" lon="-7.988066039979458">
        <ele>164.03999999999999</ele>
        <time>2025-05-03T11:06:14Z</time>
      </trkpt>
      <trkpt lat="41.104965973645449" lon="-7.988185985013843">
        <ele>163.56</ele>
        <time>2025-05-03T11:06:15Z</time>
      </trkpt>
      <trkpt lat="41.10496899113059" lon="-7.988299978896976">
        <ele>163.08000000000001</ele>
        <time>2025-05-03T11:06:16Z</time>
      </trkpt>
      <trkpt lat="41.104940995573997" lon="-7.988419001922011">
        <ele>162.59999999999999</ele>
        <time>2025-05-03T11:06:17Z</time>
      </trkpt>
      <trkpt lat="41.104906965047121" lon="-7.988536013290286">
        <ele>162.12</ele>
        <time>2025-05-03T11:06:18Z</time>
      </trkpt>
      <trkpt lat="41.104835970327258" lon="-7.988642966374755">
        <ele>161.63999999999999</ele>
        <time>2025-05-03T11:06:19Z</time>
      </trkpt>
      <trkpt lat="41.104758018627763" lon="-7.98875997774303">
        <ele>161.16</ele>
        <time>2025-05-03T11:06:20Z</time>
      </trkpt>
      <trkpt lat="41.104525001719594" lon="-7.989162979647517">
        <ele>159.72</ele>
        <time>2025-05-03T11:06:23Z</time>
      </trkpt>
      <trkpt lat="41.104465993121266" lon="-7.98931896686554">
        <ele>159.24000000000001</ele>
        <time>2025-05-03T11:06:24Z</time>
      </trkpt>
      <trkpt lat="41.104283016175032" lon="-7.98983596265316">
        <ele>158.27000000000001</ele>
        <time>2025-05-03T11:06:27Z</time>
      </trkpt>
      <trkpt lat="41.104031978175044" lon="-7.990351030603051">
        <ele>156.83000000000001</ele>
        <time>2025-05-03T11:06:30Z</time>
      </trkpt>
      <trkpt lat="41.103948997333646" lon="-7.990520009770989">
        <ele>156.34999999999999</ele>
        <time>2025-05-03T11:06:31Z</time>
      </trkpt>
      <trkpt lat="41.103900969028473" lon="-7.990701980888844">
        <ele>155.38999999999999</ele>
        <time>2025-05-03T11:06:32Z</time>
      </trkpt>
      <trkpt lat="41.103885965421796" lon="-7.990894010290504">
        <ele>154.91</ele>
        <time>2025-05-03T11:06:33Z</time>
      </trkpt>
      <trkpt lat="41.103869033977389" lon="-7.991096014156938">
        <ele>154.43000000000001</ele>
        <time>2025-05-03T11:06:34Z</time>
      </trkpt>
      <trkpt lat="41.103808013722301" lon="-7.991709988564253">
        <ele>152.99000000000001</ele>
        <time>2025-05-03T11:06:37Z</time>
      </trkpt>
      <trkpt lat="41.103753028437495" lon="-7.991907969117165">
        <ele>152.99000000000001</ele>
        <time>2025-05-03T11:06:38Z</time>
      </trkpt>
      <trkpt lat="41.103574996814132" lon="-7.99251900985837">
        <ele>151.53999999999999</ele>
        <time>2025-05-03T11:06:41Z</time>
      </trkpt>
      <trkpt lat="41.103544989600778" lon="-7.992723025381565">
        <ele>151.06</ele>
        <time>2025-05-03T11:06:42Z</time>
      </trkpt>
      <trkpt lat="41.103548007085919" lon="-7.992927962914109">
        <ele>150.58000000000001</ele>
        <time>2025-05-03T11:06:43Z</time>
      </trkpt>
      <trkpt lat="41.103566028177738" lon="-7.994163036346436">
        <ele>146.25999999999999</ele>
        <time>2025-05-03T11:06:50Z</time>
      </trkpt>
      <trkpt lat="41.103504002094269" lon="-7.99428298138082">
        <ele>145.78</ele>
        <time>2025-05-03T11:06:51Z</time>
      </trkpt>
      <trkpt lat="41.103440970182419" lon="-7.994407033547759">
        <ele>144.81999999999999</ele>
        <time>2025-05-03T11:06:52Z</time>
      </trkpt>
      <trkpt lat="41.103223040699959" lon="-7.994831996038556">
        <ele>142.88999999999999</ele>
        <time>2025-05-03T11:06:55Z</time>
      </trkpt>
      <trkpt lat="41.103150034323335" lon="-7.994994018226862">
        <ele>142.41</ele>
        <time>2025-05-03T11:06:56Z</time>
      </trkpt>
      <trkpt lat="41.103108040988445" lon="-7.995182024315">
        <ele>141.93000000000001</ele>
        <time>2025-05-03T11:06:57Z</time>
      </trkpt>
      <trkpt lat="41.102841999381781" lon="-7.996331015601754">
        <ele>138.09</ele>
        <time>2025-05-03T11:07:03Z</time>
      </trkpt>
      <trkpt lat="41.102767987176776" lon="-7.996460013091564">
        <ele>137.61000000000001</ele>
        <time>2025-05-03T11:07:04Z</time>
      </trkpt>
      <trkpt lat="41.102695986628532" lon="-7.996574006974697">
        <ele>137.61000000000001</ele>
        <time>2025-05-03T11:07:05Z</time>
      </trkpt>
      <trkpt lat="41.10262599773705" lon="-7.996685989201069">
        <ele>136.63999999999999</ele>
        <time>2025-05-03T11:07:06Z</time>
      </trkpt>
      <trkpt lat="41.102548968046904" lon="-7.996790008619428">
        <ele>136.16</ele>
        <time>2025-05-03T11:07:07Z</time>
      </trkpt>
      <trkpt lat="41.10245400108397" lon="-7.996883969753981">
        <ele>135.68000000000001</ele>
        <time>2025-05-03T11:07:08Z</time>
      </trkpt>
      <trkpt lat="41.102103972807527" lon="-7.997296024113894">
        <ele>133.28</ele>
        <time>2025-05-03T11:07:12Z</time>
      </trkpt>
      <trkpt lat="41.102058039978147" lon="-7.997391996905208">
        <ele>132.80000000000001</ele>
        <time>2025-05-03T11:07:13Z</time>
      </trkpt>
      <trkpt lat="41.10202300362289" lon="-7.997484030202031">
        <ele>131.84</ele>
        <time>2025-05-03T11:07:14Z</time>
      </trkpt>
      <trkpt lat="41.102056028321385" lon="-7.997572962194681">
        <ele>131.36000000000001</ele>
        <time>2025-05-03T11:07:15Z</time>
      </trkpt>
      <trkpt lat="41.102095004171133" lon="-7.997664995491505">
        <ele>130.88</ele>
        <time>2025-05-03T11:07:16Z</time>
      </trkpt>
      <trkpt lat="41.102144960314035" lon="-7.997755017131567">
        <ele>130.40000000000001</ele>
        <time>2025-05-03T11:07:17Z</time>
      </trkpt>
      <trkpt lat="41.102236993610859" lon="-7.997803967446089">
        <ele>129.43000000000001</ele>
        <time>2025-05-03T11:07:18Z</time>
      </trkpt>
      <trkpt lat="41.102332966402173" lon="-7.997856019064784">
        <ele>128.94999999999999</ele>
        <time>2025-05-03T11:07:19Z</time>
      </trkpt>
      <trkpt lat="41.102427011355758" lon="-7.997905975207686">
        <ele>127.98999999999999</ele>
        <time>2025-05-03T11:07:20Z</time>
      </trkpt>
      <trkpt lat="41.102508986368775" lon="-7.997976969927549">
        <ele>127.51000000000001</ele>
        <time>2025-05-03T11:07:21Z</time>
      </trkpt>
      <trkpt lat="41.102578975260258" lon="-7.998046958819032">
        <ele>127.03</ele>
        <time>2025-05-03T11:07:22Z</time>
      </trkpt>
      <trkpt lat="41.102621974423528" lon="-7.998201018199325">
        <ele>126.55</ele>
        <time>2025-05-03T11:07:23Z</time>
      </trkpt>
      <trkpt lat="41.102665979415178" lon="-7.998359017074108">
        <ele>125.59</ele>
        <time>2025-05-03T11:07:24Z</time>
      </trkpt>
      <trkpt lat="41.10271199606359" lon="-7.998521039262414">
        <ele>125.11</ele>
        <time>2025-05-03T11:07:25Z</time>
      </trkpt>
      <trkpt lat="41.102723982185125" lon="-7.998680965974927">
        <ele>124.15000000000001</ele>
        <time>2025-05-03T11:07:26Z</time>
      </trkpt>
      <trkpt lat="41.102716019377112" lon="-7.998854974284768">
        <ele>123.67</ele>
        <time>2025-05-03T11:07:27Z</time>
      </trkpt>
      <trkpt lat="41.102702021598816" lon="-7.999025965109468">
        <ele>122.70999999999999</ele>
        <time>2025-05-03T11:07:28Z</time>
      </trkpt>
      <trkpt lat="41.102635972201824" lon="-7.999184969812632">
        <ele>121.73999999999999</ele>
        <time>2025-05-03T11:07:29Z</time>
      </trkpt>
      <trkpt lat="41.102565983310342" lon="-7.999355038627982">
        <ele>120.78</ele>
        <time>2025-05-03T11:07:30Z</time>
      </trkpt>
      <trkpt lat="41.102492976933718" lon="-7.999532986432314">
        <ele>119.81999999999999</ele>
        <time>2025-05-03T11:07:31Z</time>
      </trkpt>
      <trkpt lat="41.10243103466928" lon="-7.99971898086369">
        <ele>118.86</ele>
        <time>2025-05-03T11:07:32Z</time>
      </trkpt>
      <trkpt lat="41.102386023849249" lon="-7.999914027750492">
        <ele>117.42</ele>
        <time>2025-05-03T11:07:33Z</time>
      </trkpt>
      <trkpt lat="41.102379988878965" lon="-8.000103961676359">
        <ele>116.94</ele>
        <time>2025-05-03T11:07:34Z</time>
      </trkpt>
      <trkpt lat="41.102373031899333" lon="-8.000304037705064">
        <ele>115.98</ele>
        <time>2025-05-03T11:07:35Z</time>
      </trkpt>
      <trkpt lat="41.102366996929049" lon="-8.000503024086356">
        <ele>114.53</ele>
        <time>2025-05-03T11:07:36Z</time>
      </trkpt>
      <trkpt lat="41.102384012192488" lon="-8.000690024346113">
        <ele>113.56999999999999</ele>
        <time>2025-05-03T11:07:37Z</time>
      </trkpt>
      <trkpt lat="41.102417958900332" lon="-8.000880964100361">
        <ele>112.61</ele>
        <time>2025-05-03T11:07:38Z</time>
      </trkpt>
      <trkpt lat="41.102466993033886" lon="-8.001068970188499">
        <ele>111.65000000000001</ele>
        <time>2025-05-03T11:07:39Z</time>
      </trkpt>
      <trkpt lat="41.102578975260258" lon="-8.001437019556761">
        <ele>109.73</ele>
        <time>2025-05-03T11:07:41Z</time>
      </trkpt>
      <trkpt lat="41.102610994130373" lon="-8.001639023423195">
        <ele>108.77</ele>
        <time>2025-05-03T11:07:42Z</time>
      </trkpt>
      <trkpt lat="41.102663967758417" lon="-8.002176973968744">
        <ele>105.88</ele>
        <time>2025-05-03T11:07:45Z</time>
      </trkpt>
      <trkpt lat="41.102647036314011" lon="-8.00233799032867">
        <ele>105.40000000000001</ele>
        <time>2025-05-03T11:07:46Z</time>
      </trkpt>
      <trkpt lat="41.102631026878953" lon="-8.002499006688595">
        <ele>104.44</ele>
        <time>2025-05-03T11:07:47Z</time>
      </trkpt>
      <trkpt lat="41.102614011615515" lon="-8.002658011391759">
        <ele>103.48</ele>
        <time>2025-05-03T11:07:48Z</time>
      </trkpt>
      <trkpt lat="41.10260303132236" lon="-8.002797989174724">
        <ele>102.52</ele>
        <time>2025-05-03T11:07:49Z</time>
      </trkpt>
      <trkpt lat="41.102644018828869" lon="-8.002936039119959">
        <ele>101.56</ele>
        <time>2025-05-03T11:07:50Z</time>
      </trkpt>
      <trkpt lat="41.102686012163758" lon="-8.003079034388065">
        <ele>101.08</ele>
        <time>2025-05-03T11:07:51Z</time>
      </trkpt>
      <trkpt lat="41.102733034640551" lon="-8.003238039091229">
        <ele>100.11</ele>
        <time>2025-05-03T11:07:52Z</time>
      </trkpt>
      <trkpt lat="41.102779973298311" lon="-8.003397965803742">
        <ele>99.629999999999995</ele>
        <time>2025-05-03T11:07:53Z</time>
      </trkpt>
      <trkpt lat="41.102817021310329" lon="-8.00356300547719">
        <ele>98.670000000000002</ele>
        <time>2025-05-03T11:07:54Z</time>
      </trkpt>
      <trkpt lat="41.102823978289962" lon="-8.003716981038451">
        <ele>98.189999999999998</ele>
        <time>2025-05-03T11:07:55Z</time>
      </trkpt>
      <trkpt lat="41.102831019088626" lon="-8.003870034590364">
        <ele>97.230000000000004</ele>
        <time>2025-05-03T11:07:56Z</time>
      </trkpt>
      <trkpt lat="41.102825989946723" lon="-8.004042031243444">
        <ele>96.269999999999996</ele>
        <time>2025-05-03T11:07:57Z</time>
      </trkpt>
      <trkpt lat="41.102791959419847" lon="-8.004213022068143">
        <ele>95.310000000000002</ele>
        <time>2025-05-03T11:07:58Z</time>
      </trkpt>
      <trkpt lat="41.102757006883621" lon="-8.004390969872475">
        <ele>94.349999999999994</ele>
        <time>2025-05-03T11:07:59Z</time>
      </trkpt>
      <trkpt lat="41.102744014933705" lon="-8.004580987617374">
        <ele>93.390000000000001</ele>
        <time>2025-05-03T11:08:00Z</time>
      </trkpt>
      <trkpt lat="41.102735968306661" lon="-8.004765976220369">
        <ele>91.939999999999998</ele>
        <time>2025-05-03T11:08:01Z</time>
      </trkpt>
      <trkpt lat="41.102690035477281" lon="-8.005442982539535">
        <ele>87.620000000000005</ele>
        <time>2025-05-03T11:08:05Z</time>
      </trkpt>
      <trkpt lat="41.102630021050572" lon="-8.005563011392951">
        <ele>86.659999999999997</ele>
        <time>2025-05-03T11:08:06Z</time>
      </trkpt>
      <trkpt lat="41.102558020502329" lon="-8.005707012489438">
        <ele>85.689999999999998</ele>
        <time>2025-05-03T11:08:07Z</time>
      </trkpt>
      <trkpt lat="41.10247696749866" lon="-8.00577700138092">
        <ele>84.25</ele>
        <time>2025-05-03T11:08:08Z</time>
      </trkpt>
      <trkpt lat="41.102370014414191" lon="-8.005869034677744">
        <ele>83.769999999999996</ele>
        <time>2025-05-03T11:08:09Z</time>
      </trkpt>
      <trkpt lat="41.102048987522721" lon="-8.00616399385035">
        <ele>80.890000000000001</ele>
        <time>2025-05-03T11:08:12Z</time>
      </trkpt>
      <trkpt lat="41.101968018338084" lon="-8.006271030753851">
        <ele>79.930000000000007</ele>
        <time>2025-05-03T11:08:13Z</time>
      </trkpt>
      <trkpt lat="41.10193700529635" lon="-8.006401034072042">
        <ele>78.969999999999999</ele>
        <time>2025-05-03T11:08:14Z</time>
      </trkpt>
      <trkpt lat="41.101912027224898" lon="-8.006547968834639">
        <ele>78</ele>
        <time>2025-05-03T11:08:15Z</time>
      </trkpt>
      <trkpt lat="41.101885037496686" lon="-8.006702028214932">
        <ele>77.040000000000006</ele>
        <time>2025-05-03T11:08:16Z</time>
      </trkpt>
      <trkpt lat="41.101859975606203" lon="-8.007005034014583">
        <ele>75.120000000000005</ele>
        <time>2025-05-03T11:08:18Z</time>
      </trkpt>
      <trkpt lat="41.1018739733845" lon="-8.007145011797547">
        <ele>74.159999999999997</ele>
        <time>2025-05-03T11:08:19Z</time>
      </trkpt>
      <trkpt lat="41.101891994476318" lon="-8.007317008450627">
        <ele>73.200000000000003</ele>
        <time>2025-05-03T11:08:20Z</time>
      </trkpt>
      <trkpt lat="41.101958965882659" lon="-8.007374005392194">
        <ele>72.239999999999995</ele>
        <time>2025-05-03T11:08:21Z</time>
      </trkpt>
      <trkpt lat="41.10204597003758" lon="-8.007446005940437">
        <ele>71.269999999999996</ele>
        <time>2025-05-03T11:08:22Z</time>
      </trkpt>
      <trkpt lat="41.102142026647925" lon="-8.007457992061973">
        <ele>69.829999999999998</ele>
        <time>2025-05-03T11:08:23Z</time>
      </trkpt>
      <trkpt lat="41.102235987782478" lon="-8.007469978183508">
        <ele>68.870000000000005</ele>
        <time>2025-05-03T11:08:24Z</time>
      </trkpt>
      <trkpt lat="41.102327015250921" lon="-8.007482970133424">
        <ele>67.909999999999997</ele>
        <time>2025-05-03T11:08:25Z</time>
      </trkpt>
      <trkpt lat="41.102417958900332" lon="-8.00749403424561">
        <ele>66.950000000000003</ele>
        <time>2025-05-03T11:08:26Z</time>
      </trkpt>
      <trkpt lat="41.102504041045904" lon="-8.007505014538765">
        <ele>65.989999999999995</ele>
        <time>2025-05-03T11:08:27Z</time>
      </trkpt>
      <trkpt lat="41.102563971653581" lon="-8.007571985945106">
        <ele>65.510000000000005</ele>
        <time>2025-05-03T11:08:28Z</time>
      </trkpt>
      <trkpt lat="41.10260596498847" lon="-8.007667036727071">
        <ele>65.510000000000005</ele>
        <time>2025-05-03T11:08:29Z</time>
      </trkpt>
      <trkpt lat="41.102609988301992" lon="-8.00777398981154">
        <ele>65.030000000000001</ele>
        <time>2025-05-03T11:08:30Z</time>
      </trkpt>
      <trkpt lat="41.102590961381793" lon="-8.007892007008195">
        <ele>64.549999999999997</ele>
        <time>2025-05-03T11:08:31Z</time>
      </trkpt>
      <trkpt lat="41.102561037987471" lon="-8.008008012548089">
        <ele>64.069999999999993</ele>
        <time>2025-05-03T11:08:32Z</time>
      </trkpt>
      <trkpt lat="41.102518960833549" lon="-8.008122006431222">
        <ele>63.579999999999998</ele>
        <time>2025-05-03T11:08:33Z</time>
      </trkpt>
      <trkpt lat="41.102445032447577" lon="-8.008360974490643">
        <ele>62.619999999999997</ele>
        <time>2025-05-03T11:08:35Z</time>
      </trkpt>
      <trkpt lat="41.10243296250701" lon="-8.008489971980453">
        <ele>62.140000000000001</ele>
        <time>2025-05-03T11:08:36Z</time>
      </trkpt>
      <trkpt lat="41.102450983598828" lon="-8.008602960035205">
        <ele>61.659999999999997</ele>
        <time>2025-05-03T11:08:37Z</time>
      </trkpt>
      <trkpt lat="41.102491971105337" lon="-8.008717959746718">
        <ele>61.18</ele>
        <time>2025-05-03T11:08:38Z</time>
      </trkpt>
      <trkpt lat="41.102535976096988" lon="-8.008840000256896">
        <ele>60.700000000000003</ele>
        <time>2025-05-03T11:08:39Z</time>
      </trkpt>
      <trkpt lat="41.102601019665599" lon="-8.00893203355372">
        <ele>60.219999999999999</ele>
        <time>2025-05-03T11:08:40Z</time>
      </trkpt>
      <trkpt lat="41.102906037122011" lon="-8.009432014077902">
        <ele>58.780000000000001</ele>
        <time>2025-05-03T11:08:45Z</time>
      </trkpt>
      <trkpt lat="41.102921962738037" lon="-8.009555982425809">
        <ele>58.299999999999997</ele>
        <time>2025-05-03T11:08:46Z</time>
      </trkpt>
      <trkpt lat="41.102892961353064" lon="-8.009820012375712">
        <ele>57.82</ele>
        <time>2025-05-03T11:08:48Z</time>
      </trkpt>
      <trkpt lat="41.102838981896639" lon="-8.010077001526952">
        <ele>57.340000000000003</ele>
        <time>2025-05-03T11:08:50Z</time>
      </trkpt>
      <trkpt lat="41.102815009653568" lon="-8.010192001238465">
        <ele>56.859999999999999</ele>
        <time>2025-05-03T11:08:51Z</time>
      </trkpt>
      <trkpt lat="41.102750971913338" lon="-8.010287974029779">
        <ele>56.369999999999997</ele>
        <time>2025-05-03T11:08:52Z</time>
      </trkpt>
      <trkpt lat="41.102692969143391" lon="-8.0103749781847">
        <ele>55.890000000000001</ele>
        <time>2025-05-03T11:08:53Z</time>
      </trkpt>
      <trkpt lat="41.102634966373444" lon="-8.010454019531608">
        <ele>55.409999999999997</ele>
        <time>2025-05-03T11:08:54Z</time>
      </trkpt>
      <trkpt lat="41.102558020502329" lon="-8.010500036180019">
        <ele>55.409999999999997</ele>
        <time>2025-05-03T11:08:55Z</time>
      </trkpt>
      <trkpt lat="41.102478979155421" lon="-8.010545969009399">
        <ele>54.93</ele>
        <time>2025-05-03T11:08:56Z</time>
      </trkpt>
      <trkpt lat="41.102386023849249" lon="-8.010600032284856">
        <ele>54.93</ele>
        <time>2025-05-03T11:08:57Z</time>
      </trkpt>
      <trkpt lat="41.102172033861279" lon="-8.010642025619745">
        <ele>53.969999999999999</ele>
        <time>2025-05-03T11:09:00Z</time>
      </trkpt>
      <trkpt lat="41.102102966979146" lon="-8.010652000084519">
        <ele>53.490000000000002</ele>
        <time>2025-05-03T11:09:01Z</time>
      </trkpt>
      <trkpt lat="41.102042030543089" lon="-8.010660968720913">
        <ele>53.009999999999998</ele>
        <time>2025-05-03T11:09:02Z</time>
      </trkpt>
      <trkpt lat="41.101989978924394" lon="-8.010628027841449">
        <ele>52.530000000000001</ele>
        <time>2025-05-03T11:09:03Z</time>
      </trkpt>
      <trkpt lat="41.10193801112473" lon="-8.01056700758636">
        <ele>52.049999999999997</ele>
        <time>2025-05-03T11:09:04Z</time>
      </trkpt>
      <trkpt lat="41.101882020011544" lon="-8.010501964017749">
        <ele>51.57</ele>
        <time>2025-05-03T11:09:05Z</time>
      </trkpt>
      <trkpt lat="41.101827034726739" lon="-8.010437004268169">
        <ele>51.090000000000003</ele>
        <time>2025-05-03T11:09:06Z</time>
      </trkpt>
      <trkpt lat="41.101770959794521" lon="-8.010371960699558">
        <ele>51.090000000000003</ele>
        <time>2025-05-03T11:09:07Z</time>
      </trkpt>
      <trkpt lat="41.101630982011557" lon="-8.010140033438802">
        <ele>50.609999999999999</ele>
        <time>2025-05-03T11:09:10Z</time>
      </trkpt>
      <trkpt lat="41.101587982848287" lon="-8.010050011798739">
        <ele>50.130000000000003</ele>
        <time>2025-05-03T11:09:11Z</time>
      </trkpt>
      <trkpt lat="41.101506007835269" lon="-8.009868040680885">
        <ele>49.159999999999997</ele>
        <time>2025-05-03T11:09:13Z</time>
      </trkpt>
      <trkpt lat="41.101463008671999" lon="-8.00977298989892">
        <ele>48.68</ele>
        <time>2025-05-03T11:09:14Z</time>
      </trkpt>
      <trkpt lat="41.101417997851968" lon="-8.009675005450845">
        <ele>48.200000000000003</ele>
        <time>2025-05-03T11:09:15Z</time>
      </trkpt>
      <trkpt lat="41.101354965940118" lon="-8.009611973538995">
        <ele>48.200000000000003</ele>
        <time>2025-05-03T11:09:16Z</time>
      </trkpt>
      <trkpt lat="41.10127198509872" lon="-8.009546007961035">
        <ele>47.719999999999999</ele>
        <time>2025-05-03T11:09:17Z</time>
      </trkpt>
      <trkpt lat="41.101192021742463" lon="-8.009536033496261">
        <ele>47.240000000000002</ele>
        <time>2025-05-03T11:09:18Z</time>
      </trkpt>
      <trkpt lat="41.101108035072684" lon="-8.009528992697597">
        <ele>46.759999999999998</ele>
        <time>2025-05-03T11:09:19Z</time>
      </trkpt>
      <trkpt lat="41.101027987897396" lon="-8.009545002132654">
        <ele>46.280000000000001</ele>
        <time>2025-05-03T11:09:20Z</time>
      </trkpt>
      <trkpt lat="41.10094802454114" lon="-8.009561011567712">
        <ele>45.799999999999997</ele>
        <time>2025-05-03T11:09:21Z</time>
      </trkpt>
      <trkpt lat="41.100864037871361" lon="-8.009604010730982">
        <ele>45.32</ele>
        <time>2025-05-03T11:09:22Z</time>
      </trkpt>
      <trkpt lat="41.10079899430275" lon="-8.009658996015787">
        <ele>44.840000000000003</ele>
        <time>2025-05-03T11:09:23Z</time>
      </trkpt>
      <trkpt lat="41.100739985704422" lon="-8.009736025705934">
        <ele>44.359999999999999</ele>
        <time>2025-05-03T11:09:24Z</time>
      </trkpt>
      <trkpt lat="41.100689023733139" lon="-8.009818000718951">
        <ele>43.880000000000003</ele>
        <time>2025-05-03T11:09:25Z</time>
      </trkpt>
      <trkpt lat="41.100643007084727" lon="-8.009920008480549">
        <ele>43.399999999999999</ele>
        <time>2025-05-03T11:09:26Z</time>
      </trkpt>
      <trkpt lat="41.10060503706336" lon="-8.010020004585385">
        <ele>42.920000000000002</ele>
        <time>2025-05-03T11:09:27Z</time>
      </trkpt>
      <trkpt lat="41.100599002093077" lon="-8.010145984590054">
        <ele>42.920000000000002</ele>
        <time>2025-05-03T11:09:28Z</time>
      </trkpt>
      <trkpt lat="41.100592967122793" lon="-8.010262995958328">
        <ele>42.920000000000002</ele>
        <time>2025-05-03T11:09:29Z</time>
      </trkpt>
      <trkpt lat="41.10056203790009" lon="-8.011515000835061">
        <ele>51.090000000000003</ele>
        <time>2025-05-03T11:09:40Z</time>
      </trkpt>
      <trkpt lat="41.10056203790009" lon="-8.011824963614345">
        <ele>53.009999999999998</ele>
        <time>2025-05-03T11:09:43Z</time>
      </trkpt>
      <trkpt lat="41.100576035678387" lon="-8.011914985254407">
        <ele>53.490000000000002</ele>
        <time>2025-05-03T11:09:44Z</time>
      </trkpt>
      <trkpt lat="41.100621968507767" lon="-8.01200701855123">
        <ele>53.969999999999999</ele>
        <time>2025-05-03T11:09:45Z</time>
      </trkpt>
      <trkpt lat="41.100666979327798" lon="-8.012097962200642">
        <ele>53.969999999999999</ele>
        <time>2025-05-03T11:09:46Z</time>
      </trkpt>
      <trkpt lat="41.100719030946493" lon="-8.012180021032691">
        <ele>54.450000000000003</ele>
        <time>2025-05-03T11:09:47Z</time>
      </trkpt>
      <trkpt lat="41.10077996738255" lon="-8.012255961075425">
        <ele>54.93</ele>
        <time>2025-05-03T11:09:48Z</time>
      </trkpt>
      <trkpt lat="41.101147010922432" lon="-8.012724006548524">
        <ele>58.299999999999997</ele>
        <time>2025-05-03T11:09:54Z</time>
      </trkpt>
      <trkpt lat="41.101170983165503" lon="-8.012828025966883">
        <ele>59.259999999999998</ele>
        <time>2025-05-03T11:09:55Z</time>
      </trkpt>
      <trkpt lat="41.101195961236954" lon="-8.012931039556861">
        <ele>60.219999999999999</ele>
        <time>2025-05-03T11:09:56Z</time>
      </trkpt>
      <trkpt lat="41.101222028955817" lon="-8.013041010126472">
        <ele>60.700000000000003</ele>
        <time>2025-05-03T11:09:57Z</time>
      </trkpt>
      <trkpt lat="41.10124901868403" lon="-8.013160033151507">
        <ele>61.659999999999997</ele>
        <time>2025-05-03T11:09:58Z</time>
      </trkpt>
      <trkpt lat="41.101254969835281" lon="-8.013288024812937">
        <ele>62.619999999999997</ele>
        <time>2025-05-03T11:09:59Z</time>
      </trkpt>
      <trkpt lat="41.101312972605228" lon="-8.015070017427206">
        <ele>74.159999999999997</ele>
        <time>2025-05-03T11:10:12Z</time>
      </trkpt>
      <trkpt lat="41.101312972605228" lon="-8.015192979946733">
        <ele>75.120000000000005</ele>
        <time>2025-05-03T11:10:13Z</time>
      </trkpt>
      <trkpt lat="41.101302998140454" lon="-8.015304962173104">
        <ele>76.079999999999998</ele>
        <time>2025-05-03T11:10:14Z</time>
      </trkpt>
      <trkpt lat="41.101264022290707" lon="-8.015408981591463">
        <ele>76.560000000000002</ele>
        <time>2025-05-03T11:10:15Z</time>
      </trkpt>
      <trkpt lat="41.10118598677218" lon="-8.015511995181441">
        <ele>78</ele>
        <time>2025-05-03T11:10:16Z</time>
      </trkpt>
      <trkpt lat="41.101089008152485" lon="-8.015608973801136">
        <ele>78.969999999999999</ele>
        <time>2025-05-03T11:10:17Z</time>
      </trkpt>
      <trkpt lat="41.100993035361171" lon="-8.015713999047875">
        <ele>79.930000000000007</ele>
        <time>2025-05-03T11:10:18Z</time>
      </trkpt>
      <trkpt lat="41.100899996235967" lon="-8.015818018466234">
        <ele>80.890000000000001</ele>
        <time>2025-05-03T11:10:19Z</time>
      </trkpt>
      <trkpt lat="41.100826989859343" lon="-8.015950033441186">
        <ele>81.849999999999994</ele>
        <time>2025-05-03T11:10:20Z</time>
      </trkpt>
      <trkpt lat="41.100760018453002" lon="-8.016081964597106">
        <ele>82.810000000000002</ele>
        <time>2025-05-03T11:10:21Z</time>
      </trkpt>
      <trkpt lat="41.100697992369533" lon="-8.016207022592425">
        <ele>83.769999999999996</ele>
        <time>2025-05-03T11:10:22Z</time>
      </trkpt>
      <trkpt lat="41.100623980164528" lon="-8.0163240339607">
        <ele>84.730000000000004</ele>
        <time>2025-05-03T11:10:23Z</time>
      </trkpt>
      <trkpt lat="41.100504035130143" lon="-8.016402991488576">
        <ele>85.689999999999998</ele>
        <time>2025-05-03T11:10:24Z</time>
      </trkpt>
      <trkpt lat="41.100373025983572" lon="-8.016491001471877">
        <ele>86.659999999999997</ele>
        <time>2025-05-03T11:10:25Z</time>
      </trkpt>
      <trkpt lat="41.100234976038337" lon="-8.016583034768701">
        <ele>87.620000000000005</ele>
        <time>2025-05-03T11:10:26Z</time>
      </trkpt>
      <trkpt lat="41.100115031003952" lon="-8.016712032258511">
        <ele>88.099999999999994</ele>
        <time>2025-05-03T11:10:27Z</time>
      </trkpt>
      <trkpt lat="41.100006988272071" lon="-8.016849998384714">
        <ele>89.060000000000002</ele>
        <time>2025-05-03T11:10:28Z</time>
      </trkpt>
      <trkpt lat="41.099891988560557" lon="-8.016996011137962">
        <ele>89.540000000000006</ele>
        <time>2025-05-03T11:10:29Z</time>
      </trkpt>
      <trkpt lat="41.099441964179277" lon="-8.017522981390357">
        <ele>90.5</ele>
        <time>2025-05-03T11:10:33Z</time>
      </trkpt>
      <trkpt lat="41.09935998916626" lon="-8.017594981938601">
        <ele>90.5</ele>
        <time>2025-05-03T11:10:34Z</time>
      </trkpt>
      <trkpt lat="41.099216993898153" lon="-8.017606968060136">
        <ele>90.980000000000004</ele>
        <time>2025-05-03T11:10:35Z</time>
      </trkpt>
      <trkpt lat="41.099097970873117" lon="-8.0176140088588">
        <ele>91.459999999999994</ele>
        <time>2025-05-03T11:10:36Z</time>
      </trkpt>
      <trkpt lat="41.098965033888817" lon="-8.017539996653795">
        <ele>91.459999999999994</ele>
        <time>2025-05-03T11:10:37Z</time>
      </trkpt>
      <trkpt lat="41.098831007257104" lon="-8.017466990277171">
        <ele>91.939999999999998</ele>
        <time>2025-05-03T11:10:38Z</time>
      </trkpt>
      <trkpt lat="41.098709972575307" lon="-8.017400018870831">
        <ele>91.939999999999998</ele>
        <time>2025-05-03T11:10:39Z</time>
      </trkpt>
      <trkpt lat="41.098582986742258" lon="-8.017379986122251">
        <ele>91.939999999999998</ele>
        <time>2025-05-03T11:10:40Z</time>
      </trkpt>
      <trkpt lat="41.098481984809041" lon="-8.017430026084185">
        <ele>92.420000000000002</ele>
        <time>2025-05-03T11:10:41Z</time>
      </trkpt>
      <trkpt lat="41.098416019231081" lon="-8.017508983612061">
        <ele>92.420000000000002</ele>
        <time>2025-05-03T11:10:42Z</time>
      </trkpt>
      <trkpt lat="41.098373020067811" lon="-8.017629012465477">
        <ele>92.420000000000002</ele>
        <time>2025-05-03T11:10:43Z</time>
      </trkpt>
      <trkpt lat="41.098331026732922" lon="-8.017757004126906">
        <ele>92.900000000000006</ele>
        <time>2025-05-03T11:10:44Z</time>
      </trkpt>
      <trkpt lat="41.098339995369315" lon="-8.017921959981322">
        <ele>92.420000000000002</ele>
        <time>2025-05-03T11:10:45Z</time>
      </trkpt>
      <trkpt lat="41.09835097566247" lon="-8.018103009089828">
        <ele>92.420000000000002</ele>
        <time>2025-05-03T11:10:46Z</time>
      </trkpt>
      <trkpt lat="41.098375031724572" lon="-8.018999034538865">
        <ele>92.900000000000006</ele>
        <time>2025-05-03T11:10:51Z</time>
      </trkpt>
      <trkpt lat="41.098347036167979" lon="-8.019160972908139">
        <ele>92.420000000000002</ele>
        <time>2025-05-03T11:10:52Z</time>
      </trkpt>
      <trkpt lat="41.098317028954625" lon="-8.019332969561219">
        <ele>92.420000000000002</ele>
        <time>2025-05-03T11:10:53Z</time>
      </trkpt>
      <trkpt lat="41.098255002871156" lon="-8.019493985921145">
        <ele>92.420000000000002</ele>
        <time>2025-05-03T11:10:54Z</time>
      </trkpt>
      <trkpt lat="41.098181996494532" lon="-8.019650978967547">
        <ele>92.420000000000002</ele>
        <time>2025-05-03T11:10:55Z</time>
      </trkpt>
      <trkpt lat="41.098051993176341" lon="-8.01993403583765">
        <ele>92.420000000000002</ele>
        <time>2025-05-03T11:10:57Z</time>
      </trkpt>
      <trkpt lat="41.097930036485195" lon="-8.020004024729133">
        <ele>92.420000000000002</ele>
        <time>2025-05-03T11:10:58Z</time>
      </trkpt>
      <trkpt lat="41.097807995975018" lon="-8.020076025277376">
        <ele>92.420000000000002</ele>
        <time>2025-05-03T11:10:59Z</time>
      </trkpt>
      <trkpt lat="41.097550000995398" lon="-8.020225977525115">
        <ele>92.900000000000006</ele>
        <time>2025-05-03T11:11:01Z</time>
      </trkpt>
      <trkpt lat="41.097311032935977" lon="-8.020337037742138">
        <ele>93.390000000000001</ele>
        <time>2025-05-03T11:11:03Z</time>
      </trkpt>
      <trkpt lat="41.097238026559353" lon="-8.020466035231948">
        <ele>93.390000000000001</ele>
        <time>2025-05-03T11:11:04Z</time>
      </trkpt>
      <trkpt lat="41.097200978547335" lon="-8.020586986094713">
        <ele>93.390000000000001</ele>
        <time>2025-05-03T11:11:05Z</time>
      </trkpt>
      <trkpt lat="41.097173988819122" lon="-8.020739033818245">
        <ele>92.900000000000006</ele>
        <time>2025-05-03T11:11:06Z</time>
      </trkpt>
      <trkpt lat="41.097142975777388" lon="-8.020910024642944">
        <ele>92.900000000000006</ele>
        <time>2025-05-03T11:11:07Z</time>
      </trkpt>
      <trkpt lat="41.096996963024139" lon="-8.021708987653256">
        <ele>92.900000000000006</ele>
        <time>2025-05-03T11:11:11Z</time>
      </trkpt>
      <trkpt lat="41.096956981346011" lon="-8.021929012611508">
        <ele>92.900000000000006</ele>
        <time>2025-05-03T11:11:12Z</time>
      </trkpt>
      <trkpt lat="41.096691023558378" lon="-8.022653963416815">
        <ele>91.459999999999994</ele>
        <time>2025-05-03T11:11:16Z</time>
      </trkpt>
      <trkpt lat="41.096616005524993" lon="-8.022805005311966">
        <ele>91.459999999999994</ele>
        <time>2025-05-03T11:11:17Z</time>
      </trkpt>
      <trkpt lat="41.096521038562059" lon="-8.022953029721975">
        <ele>90.980000000000004</ele>
        <time>2025-05-03T11:11:18Z</time>
      </trkpt>
      <trkpt lat="41.096407966688275" lon="-8.023084960877895">
        <ele>90.5</ele>
        <time>2025-05-03T11:11:19Z</time>
      </trkpt>
      <trkpt lat="41.096286009997129" lon="-8.023216975852847">
        <ele>90.5</ele>
        <time>2025-05-03T11:11:20Z</time>
      </trkpt>
      <trkpt lat="41.096148965880275" lon="-8.023329041898251">
        <ele>90.5</ele>
        <time>2025-05-03T11:11:21Z</time>
      </trkpt>
      <trkpt lat="41.096006976440549" lon="-8.023443035781384">
        <ele>90.5</ele>
        <time>2025-05-03T11:11:22Z</time>
      </trkpt>
      <trkpt lat="41.09540699981153" lon="-8.023916026577354">
        <ele>89.540000000000006</ele>
        <time>2025-05-03T11:11:26Z</time>
      </trkpt>
      <trkpt lat="41.09512796625495" lon="-8.024106966331601">
        <ele>89.060000000000002</ele>
        <time>2025-05-03T11:11:28Z</time>
      </trkpt>
      <trkpt lat="41.095054959878325" lon="-8.024232024326921">
        <ele>89.060000000000002</ele>
        <time>2025-05-03T11:11:29Z</time>
      </trkpt>
      <trkpt lat="41.094982959330082" lon="-8.024376025423408">
        <ele>88.579999999999998</ele>
        <time>2025-05-03T11:11:30Z</time>
      </trkpt>
      <trkpt lat="41.094958987087011" lon="-8.02453201264143">
        <ele>88.579999999999998</ele>
        <time>2025-05-03T11:11:31Z</time>
      </trkpt>
      <trkpt lat="41.094930991530418" lon="-8.024709960445762">
        <ele>88.579999999999998</ele>
        <time>2025-05-03T11:11:32Z</time>
      </trkpt>
      <trkpt lat="41.094902995973825" lon="-8.024885980412364">
        <ele>88.579999999999998</ele>
        <time>2025-05-03T11:11:33Z</time>
      </trkpt>
      <trkpt lat="41.094876006245613" lon="-8.025062000378966">
        <ele>88.579999999999998</ele>
        <time>2025-05-03T11:11:34Z</time>
      </trkpt>
      <trkpt lat="41.094794031232595" lon="-8.025160990655422">
        <ele>89.060000000000002</ele>
        <time>2025-05-03T11:11:35Z</time>
      </trkpt>
      <trkpt lat="41.09469797462225" lon="-8.025278002023697">
        <ele>89.060000000000002</ele>
        <time>2025-05-03T11:11:36Z</time>
      </trkpt>
      <trkpt lat="41.094597978517413" lon="-8.025399036705494">
        <ele>89.060000000000002</ele>
        <time>2025-05-03T11:11:37Z</time>
      </trkpt>
      <trkpt lat="41.094491025432944" lon="-8.025528034195304">
        <ele>89.060000000000002</ele>
        <time>2025-05-03T11:11:38Z</time>
      </trkpt>
      <trkpt lat="41.094428999349475" lon="-8.025704976171255">
        <ele>89.540000000000006</ele>
        <time>2025-05-03T11:11:39Z</time>
      </trkpt>
      <trkpt lat="41.094378037378192" lon="-8.025898011401296">
        <ele>89.540000000000006</ele>
        <time>2025-05-03T11:11:40Z</time>
      </trkpt>
      <trkpt lat="41.0943310149014" lon="-8.026073025539517">
        <ele>90.019999999999996</ele>
        <time>2025-05-03T11:11:41Z</time>
      </trkpt>
      <trkpt lat="41.094291033223271" lon="-8.026224989444017">
        <ele>90.5</ele>
        <time>2025-05-03T11:11:42Z</time>
      </trkpt>
      <trkpt lat="41.094217021018267" lon="-8.026336971670389">
        <ele>90.980000000000004</ele>
        <time>2025-05-03T11:11:43Z</time>
      </trkpt>
      <trkpt lat="41.094129011034966" lon="-8.026417018845677">
        <ele>91.459999999999994</ele>
        <time>2025-05-03T11:11:44Z</time>
      </trkpt>
      <trkpt lat="41.094027003273368" lon="-8.026476027444005">
        <ele>91.459999999999994</ele>
        <time>2025-05-03T11:11:45Z</time>
      </trkpt>
      <trkpt lat="41.093909991905093" lon="-8.026465969160199">
        <ele>91.939999999999998</ele>
        <time>2025-05-03T11:11:46Z</time>
      </trkpt>
      <trkpt lat="41.09377596527338" lon="-8.026451971381903">
        <ele>91.939999999999998</ele>
        <time>2025-05-03T11:11:47Z</time>
      </trkpt>
      <trkpt lat="41.092541981488466" lon="-8.026369996368885">
        <ele>92.420000000000002</ele>
        <time>2025-05-03T11:11:55Z</time>
      </trkpt>
      <trkpt lat="41.092403009533882" lon="-8.026390029117465">
        <ele>92.900000000000006</ele>
        <time>2025-05-03T11:11:56Z</time>
      </trkpt>
      <trkpt lat="41.09227099455893" lon="-8.026366978883743">
        <ele>92.900000000000006</ele>
        <time>2025-05-03T11:11:57Z</time>
      </trkpt>
      <trkpt lat="41.092150965705514" lon="-8.0262949783355">
        <ele>92.900000000000006</ele>
        <time>2025-05-03T11:11:58Z</time>
      </trkpt>
      <trkpt lat="41.092063039541245" lon="-8.026181990280747">
        <ele>92.900000000000006</ele>
        <time>2025-05-03T11:11:59Z</time>
      </trkpt>
      <trkpt lat="41.09196899458766" lon="-8.026062967255712">
        <ele>93.390000000000001</ele>
        <time>2025-05-03T11:12:00Z</time>
      </trkpt>
      <trkpt lat="41.091868998482823" lon="-8.025933969765902">
        <ele>93.390000000000001</ele>
        <time>2025-05-03T11:12:01Z</time>
      </trkpt>
      <trkpt lat="41.091765984892845" lon="-8.025802038609982">
        <ele>93.870000000000005</ele>
        <time>2025-05-03T11:12:02Z</time>
      </trkpt>
      <trkpt lat="41.091657020151615" lon="-8.025662982836366">
        <ele>94.349999999999994</ele>
        <time>2025-05-03T11:12:03Z</time>
      </trkpt>
      <trkpt lat="41.091530034318566" lon="-8.025575978681445">
        <ele>95.310000000000002</ele>
        <time>2025-05-03T11:12:04Z</time>
      </trkpt>
      <trkpt lat="41.09139097854495" lon="-8.025480005890131">
        <ele>95.790000000000006</ele>
        <time>2025-05-03T11:12:05Z</time>
      </trkpt>
      <trkpt lat="41.091247983276844" lon="-8.025383027270436">
        <ele>96.75</ele>
        <time>2025-05-03T11:12:06Z</time>
      </trkpt>
      <trkpt lat="41.091102976351976" lon="-8.02528403699398">
        <ele>97.709999999999994</ele>
        <time>2025-05-03T11:12:07Z</time>
      </trkpt>
      <trkpt lat="41.090965010225773" lon="-8.025173982605338">
        <ele>98.670000000000002</ele>
        <time>2025-05-03T11:12:08Z</time>
      </trkpt>
      <trkpt lat="41.090831989422441" lon="-8.025067029520869">
        <ele>99.629999999999995</ele>
        <time>2025-05-03T11:12:09Z</time>
      </trkpt>
      <trkpt lat="41.090710032731295" lon="-8.024968961253762">
        <ele>100.59999999999999</ele>
        <time>2025-05-03T11:12:10Z</time>
      </trkpt>
      <trkpt lat="41.090623028576374" lon="-8.024825965985656">
        <ele>101.08</ele>
        <time>2025-05-03T11:12:11Z</time>
      </trkpt>
      <trkpt lat="41.090551028028131" lon="-8.024692023172975">
        <ele>102.04000000000001</ele>
        <time>2025-05-03T11:12:12Z</time>
      </trkpt>
      <trkpt lat="41.09040099196136" lon="-8.024409972131252">
        <ele>104.92</ele>
        <time>2025-05-03T11:12:15Z</time>
      </trkpt>
      <trkpt lat="41.090190019458532" lon="-8.024121969938278">
        <ele>109.25</ele>
        <time>2025-05-03T11:12:21Z</time>
      </trkpt>
      <trkpt lat="41.090125981718302" lon="-8.024048963561654">
        <ele>109.73</ele>
        <time>2025-05-03T11:12:22Z</time>
      </trkpt>
      <trkpt lat="41.089717028662562" lon="-8.023775964975357">
        <ele>109.25</ele>
        <time>2025-05-03T11:12:26Z</time>
      </trkpt>
      <trkpt lat="41.089581996202469" lon="-8.023735983297229">
        <ele>108.77</ele>
        <time>2025-05-03T11:12:27Z</time>
      </trkpt>
      <trkpt lat="41.089435983449221" lon="-8.023711005225778">
        <ele>108.29000000000001</ele>
        <time>2025-05-03T11:12:28Z</time>
      </trkpt>
      <trkpt lat="41.088693011552095" lon="-8.023582007735968">
        <ele>107.31999999999999</ele>
        <time>2025-05-03T11:12:33Z</time>
      </trkpt>
      <trkpt lat="41.08855202794075" lon="-8.023550994694233">
        <ele>107.31999999999999</ele>
        <time>2025-05-03T11:12:34Z</time>
      </trkpt>
      <trkpt lat="41.088297972455621" lon="-8.023399030789733">
        <ele>107.31999999999999</ele>
        <time>2025-05-03T11:12:36Z</time>
      </trkpt>
      <trkpt lat="41.08816503547132" lon="-8.023357037454844">
        <ele>107.31999999999999</ele>
        <time>2025-05-03T11:12:37Z</time>
      </trkpt>
      <trkpt lat="41.087998989969492" lon="-8.023335998877883">
        <ele>107.81</ele>
        <time>2025-05-03T11:12:38Z</time>
      </trkpt>
      <trkpt lat="41.08700699172914" lon="-8.023212030529976">
        <ele>109.25</ele>
        <time>2025-05-03T11:12:43Z</time>
      </trkpt>
      <trkpt lat="41.086845975369215" lon="-8.023204989731312">
        <ele>109.25</ele>
        <time>2025-05-03T11:12:44Z</time>
      </trkpt>
      <trkpt lat="41.086712032556534" lon="-8.023255029693246">
        <ele>109.73</ele>
        <time>2025-05-03T11:12:45Z</time>
      </trkpt>
      <trkpt lat="41.086601978167892" lon="-8.023357959464192">
        <ele>110.20999999999999</ele>
        <time>2025-05-03T11:12:46Z</time>
      </trkpt>
      <trkpt lat="41.086524026468396" lon="-8.023496009409428">
        <ele>110.69</ele>
        <time>2025-05-03T11:12:47Z</time>
      </trkpt>
      <trkpt lat="41.086455965414643" lon="-8.023649984970689">
        <ele>111.17</ele>
        <time>2025-05-03T11:12:48Z</time>
      </trkpt>
      <trkpt lat="41.086385976523161" lon="-8.023809995502234">
        <ele>112.13</ele>
        <time>2025-05-03T11:12:49Z</time>
      </trkpt>
      <trkpt lat="41.086250022053719" lon="-8.024118030443788">
        <ele>113.09</ele>
        <time>2025-05-03T11:12:51Z</time>
      </trkpt>
      <trkpt lat="41.086170980706811" lon="-8.024223977699876">
        <ele>114.05</ele>
        <time>2025-05-03T11:12:52Z</time>
      </trkpt>
      <trkpt lat="41.086070984601974" lon="-8.024293966591358">
        <ele>114.05</ele>
        <time>2025-05-03T11:12:53Z</time>
      </trkpt>
      <trkpt lat="41.085948022082448" lon="-8.024305030703545">
        <ele>115.01000000000001</ele>
        <time>2025-05-03T11:12:54Z</time>
      </trkpt>
      <trkpt lat="41.085808966308832" lon="-8.024318022653461">
        <ele>115.98</ele>
        <time>2025-05-03T11:12:55Z</time>
      </trkpt>
      <trkpt lat="41.085390960797668" lon="-8.024344006553292">
        <ele>117.42</ele>
        <time>2025-05-03T11:12:58Z</time>
      </trkpt>
      <trkpt lat="41.085256012156606" lon="-8.024279968813062">
        <ele>117.90000000000001</ele>
        <time>2025-05-03T11:12:59Z</time>
      </trkpt>
      <trkpt lat="41.084802970290184" lon="-8.024125993251801">
        <ele>119.34</ele>
        <time>2025-05-03T11:13:02Z</time>
      </trkpt>
      <trkpt lat="41.084640026092529" lon="-8.024088023230434">
        <ele>119.34</ele>
        <time>2025-05-03T11:13:03Z</time>
      </trkpt>
      <trkpt lat="41.083377040922642" lon="-8.024138985201716">
        <ele>121.26000000000001</ele>
        <time>2025-05-03T11:13:11Z</time>
      </trkpt>
      <trkpt lat="41.08326799236238" lon="-8.024235041812062">
        <ele>121.26000000000001</ele>
        <time>2025-05-03T11:13:12Z</time>
      </trkpt>
      <trkpt lat="41.083184005692601" lon="-8.024310981854796">
        <ele>121.73999999999999</ele>
        <time>2025-05-03T11:13:13Z</time>
      </trkpt>
      <trkpt lat="41.083142012357712" lon="-8.024415001273155">
        <ele>121.73999999999999</ele>
        <time>2025-05-03T11:13:14Z</time>
      </trkpt>
      <trkpt lat="41.083121979609132" lon="-8.024551039561629">
        <ele>121.73999999999999</ele>
        <time>2025-05-03T11:13:15Z</time>
      </trkpt>
      <trkpt lat="41.083147963508964" lon="-8.024698980152607">
        <ele>121.73999999999999</ele>
        <time>2025-05-03T11:13:16Z</time>
      </trkpt>
      <trkpt lat="41.083184005692601" lon="-8.024824038147926">
        <ele>121.73999999999999</ele>
        <time>2025-05-03T11:13:17Z</time>
      </trkpt>
      <trkpt lat="41.083225999027491" lon="-8.024934008717537">
        <ele>121.73999999999999</ele>
        <time>2025-05-03T11:13:18Z</time>
      </trkpt>
      <trkpt lat="41.083264974877238" lon="-8.025034004822373">
        <ele>121.26000000000001</ele>
        <time>2025-05-03T11:13:19Z</time>
      </trkpt>
      <trkpt lat="41.083338987082243" lon="-8.025050014257431">
        <ele>121.26000000000001</ele>
        <time>2025-05-03T11:13:20Z</time>
      </trkpt>
      <trkpt lat="41.083449963480234" lon="-8.025065017864108">
        <ele>121.26000000000001</ele>
        <time>2025-05-03T11:13:21Z</time>
      </trkpt>
      <trkpt lat="41.083570998162031" lon="-8.025081027299166">
        <ele>121.26000000000001</ele>
        <time>2025-05-03T11:13:22Z</time>
      </trkpt>
      <trkpt lat="41.08369798399508" lon="-8.025097958743572">
        <ele>121.26000000000001</ele>
        <time>2025-05-03T11:13:23Z</time>
      </trkpt>
      <trkpt lat="41.083825975656509" lon="-8.025114974007011">
        <ele>121.26000000000001</ele>
        <time>2025-05-03T11:13:24Z</time>
      </trkpt>
      <trkpt lat="41.083954973146319" lon="-8.025131989270449">
        <ele>121.73999999999999</ele>
        <time>2025-05-03T11:13:25Z</time>
      </trkpt>
      <trkpt lat="41.084083970636129" lon="-8.025150010362268">
        <ele>122.22</ele>
        <time>2025-05-03T11:13:26Z</time>
      </trkpt>
      <trkpt lat="41.084209028631449" lon="-8.025166019797325">
        <ele>122.70999999999999</ele>
        <time>2025-05-03T11:13:27Z</time>
      </trkpt>
      <trkpt lat="41.084321010857821" lon="-8.025237014517188">
        <ele>123.19</ele>
        <time>2025-05-03T11:13:28Z</time>
      </trkpt>
      <trkpt lat="41.084426958113909" lon="-8.025318989530206">
        <ele>123.67</ele>
        <time>2025-05-03T11:13:29Z</time>
      </trkpt>
      <trkpt lat="41.084538018330932" lon="-8.0254159681499">
        <ele>124.15000000000001</ele>
        <time>2025-05-03T11:13:30Z</time>
      </trkpt>
      <trkpt lat="41.08464203774929" lon="-8.02554395981133">
        <ele>124.63</ele>
        <time>2025-05-03T11:13:31Z</time>
      </trkpt>
      <trkpt lat="41.084742033854127" lon="-8.025667006149888">
        <ele>125.11</ele>
        <time>2025-05-03T11:13:32Z</time>
      </trkpt>
      <trkpt lat="41.084861978888512" lon="-8.025762978941202">
        <ele>126.06999999999999</ele>
        <time>2025-05-03T11:13:33Z</time>
      </trkpt>
      <trkpt lat="41.085006985813379" lon="-8.025834979489446">
        <ele>126.55</ele>
        <time>2025-05-03T11:13:34Z</time>
      </trkpt>
      <trkpt lat="41.085165990516543" lon="-8.025858029723167">
        <ele>127.03</ele>
        <time>2025-05-03T11:13:35Z</time>
      </trkpt>
      <trkpt lat="41.085321977734566" lon="-8.025879990309477">
        <ele>127.51000000000001</ele>
        <time>2025-05-03T11:13:36Z</time>
      </trkpt>
      <trkpt lat="41.085478970780969" lon="-8.025899017229676">
        <ele>127.51000000000001</ele>
        <time>2025-05-03T11:13:37Z</time>
      </trkpt>
      <trkpt lat="41.085648033767939" lon="-8.025899017229676">
        <ele>127.98999999999999</ele>
        <time>2025-05-03T11:13:38Z</time>
      </trkpt>
      <trkpt lat="41.085821958258748" lon="-8.025899017229676">
        <ele>127.98999999999999</ele>
        <time>2025-05-03T11:13:39Z</time>
      </trkpt>
      <trkpt lat="41.086345994845033" lon="-8.025807989761233">
        <ele>128.94999999999999</ele>
        <time>2025-05-03T11:13:42Z</time>
      </trkpt>
      <trkpt lat="41.08651103451848" lon="-8.025733977556229">
        <ele>128.94999999999999</ele>
        <time>2025-05-03T11:13:43Z</time>
      </trkpt>
      <trkpt lat="41.086667021736503" lon="-8.025632975623012">
        <ele>129.43000000000001</ele>
        <time>2025-05-03T11:13:44Z</time>
      </trkpt>
      <trkpt lat="41.086969021707773" lon="-8.02543600089848">
        <ele>129.91999999999999</ele>
        <time>2025-05-03T11:13:46Z</time>
      </trkpt>
      <trkpt lat="41.08739297837019" lon="-8.025203989818692">
        <ele>130.88</ele>
        <time>2025-05-03T11:13:49Z</time>
      </trkpt>
      <trkpt lat="41.087520970031619" lon="-8.025151016190648">
        <ele>131.36000000000001</ele>
        <time>2025-05-03T11:13:50Z</time>
      </trkpt>
      <trkpt lat="41.087661031633615" lon="-8.025138024240732">
        <ele>131.84</ele>
        <time>2025-05-03T11:13:51Z</time>
      </trkpt>
      <trkpt lat="41.08780100941658" lon="-8.025157973170281">
        <ele>131.84</ele>
        <time>2025-05-03T11:13:52Z</time>
      </trkpt>
      <trkpt lat="41.087946016341448" lon="-8.025212958455086">
        <ele>132.31999999999999</ele>
        <time>2025-05-03T11:13:53Z</time>
      </trkpt>
      <trkpt lat="41.088073002174497" lon="-8.025297028943896">
        <ele>132.80000000000001</ele>
        <time>2025-05-03T11:13:54Z</time>
      </trkpt>
      <trkpt lat="41.088201999664307" lon="-8.025384033098817">
        <ele>133.28</ele>
        <time>2025-05-03T11:13:55Z</time>
      </trkpt>
      <trkpt lat="41.088330997154117" lon="-8.025470031425357">
        <ele>133.75999999999999</ele>
        <time>2025-05-03T11:13:56Z</time>
      </trkpt>
      <trkpt lat="41.088477009907365" lon="-8.025490986183286">
        <ele>134.24000000000001</ele>
        <time>2025-05-03T11:13:57Z</time>
      </trkpt>
      <trkpt lat="41.088623022660613" lon="-8.025511018931866">
        <ele>134.24000000000001</ele>
        <time>2025-05-03T11:13:58Z</time>
      </trkpt>
      <trkpt lat="41.088755959644914" lon="-8.025530967861414">
        <ele>134.72</ele>
        <time>2025-05-03T11:13:59Z</time>
      </trkpt>
      <trkpt lat="41.088867019861937" lon="-8.025590982288122">
        <ele>135.19999999999999</ele>
        <time>2025-05-03T11:14:00Z</time>
      </trkpt>
      <trkpt lat="41.088979002088308" lon="-8.025673041120172">
        <ele>135.68000000000001</ele>
        <time>2025-05-03T11:14:01Z</time>
      </trkpt>
      <trkpt lat="41.089031975716352" lon="-8.025815030559897">
        <ele>136.63999999999999</ele>
        <time>2025-05-03T11:14:02Z</time>
      </trkpt>
      <trkpt lat="41.0890899784863" lon="-8.025970011949539">
        <ele>137.13</ele>
        <time>2025-05-03T11:14:03Z</time>
      </trkpt>
      <trkpt lat="41.089125014841557" lon="-8.026149971410632">
        <ele>137.61000000000001</ele>
        <time>2025-05-03T11:14:04Z</time>
      </trkpt>
      <trkpt lat="41.089155022054911" lon="-8.026347029954195">
        <ele>138.09</ele>
        <time>2025-05-03T11:14:05Z</time>
      </trkpt>
      <trkpt lat="41.089185029268265" lon="-8.02655003964901">
        <ele>138.09</ele>
        <time>2025-05-03T11:14:06Z</time>
      </trkpt>
      <trkpt lat="41.089215036481619" lon="-8.026749026030302">
        <ele>138.09</ele>
        <time>2025-05-03T11:14:07Z</time>
      </trkpt>
      <trkpt lat="41.089260969310999" lon="-8.026921022683382">
        <ele>137.61000000000001</ele>
        <time>2025-05-03T11:14:08Z</time>
      </trkpt>
      <trkpt lat="41.089340010657907" lon="-8.027081033214927">
        <ele>137.61000000000001</ele>
        <time>2025-05-03T11:14:09Z</time>
      </trkpt>
      <trkpt lat="41.089437995105982" lon="-8.027221010997891">
        <ele>137.13</ele>
        <time>2025-05-03T11:14:10Z</time>
      </trkpt>
      <trkpt lat="41.089565986767411" lon="-8.027349002659321">
        <ele>137.13</ele>
        <time>2025-05-03T11:14:11Z</time>
      </trkpt>
      <trkpt lat="41.089701019227505" lon="-8.027484035119414">
        <ele>137.13</ele>
        <time>2025-05-03T11:14:12Z</time>
      </trkpt>
      <trkpt lat="41.090945983305573" lon="-8.028715001419187">
        <ele>138.56999999999999</ele>
        <time>2025-05-03T11:14:21Z</time>
      </trkpt>
      <trkpt lat="41.091108005493879" lon="-8.02876302972436">
        <ele>139.05000000000001</ele>
        <time>2025-05-03T11:14:22Z</time>
      </trkpt>
      <trkpt lat="41.091278996318579" lon="-8.028813991695643">
        <ele>139.53</ele>
        <time>2025-05-03T11:14:23Z</time>
      </trkpt>
      <trkpt lat="41.091640004888177" lon="-8.028920022770762">
        <ele>140.00999999999999</ele>
        <time>2025-05-03T11:14:25Z</time>
      </trkpt>
      <trkpt lat="41.093454016372561" lon="-8.029524022713304">
        <ele>150.09999999999999</ele>
        <time>2025-05-03T11:14:35Z</time>
      </trkpt>
      <trkpt lat="41.093760961666703" lon="-8.029625024646521">
        <ele>152.03</ele>
        <time>2025-05-03T11:14:37Z</time>
      </trkpt>
      <trkpt lat="41.093888031318784" lon="-8.029726026579738">
        <ele>152.99000000000001</ele>
        <time>2025-05-03T11:14:38Z</time>
      </trkpt>
      <trkpt lat="41.093986015766859" lon="-8.029852006584406">
        <ele>154.43000000000001</ele>
        <time>2025-05-03T11:14:39Z</time>
      </trkpt>
      <trkpt lat="41.094060027971864" lon="-8.029975974932313">
        <ele>155.87</ele>
        <time>2025-05-03T11:14:40Z</time>
      </trkpt>
      <trkpt lat="41.094072014093399" lon="-8.030163981020451">
        <ele>156.83000000000001</ele>
        <time>2025-05-03T11:14:41Z</time>
      </trkpt>
      <trkpt lat="41.094079976901412" lon="-8.030335977673531">
        <ele>157.78999999999999</ele>
        <time>2025-05-03T11:14:42Z</time>
      </trkpt>
      <trkpt lat="41.094065979123116" lon="-8.030514009296894">
        <ele>159.24000000000001</ele>
        <time>2025-05-03T11:14:43Z</time>
      </trkpt>
      <trkpt lat="41.094019040465355" lon="-8.030700003728271">
        <ele>160.68000000000001</ele>
        <time>2025-05-03T11:14:44Z</time>
      </trkpt>
      <trkpt lat="41.093808989971876" lon="-8.031248012557626">
        <ele>163.56</ele>
        <time>2025-05-03T11:14:47Z</time>
      </trkpt>
      <trkpt lat="41.093712011352181" lon="-8.031401988118887">
        <ele>165</ele>
        <time>2025-05-03T11:14:48Z</time>
      </trkpt>
      <trkpt lat="41.093607991933823" lon="-8.031565016135573">
        <ele>165.47999999999999</ele>
        <time>2025-05-03T11:14:49Z</time>
      </trkpt>
      <trkpt lat="41.093500033020973" lon="-8.031736006960273">
        <ele>166.44999999999999</ele>
        <time>2025-05-03T11:14:50Z</time>
      </trkpt>
      <trkpt lat="41.093427026644349" lon="-8.031941028311849">
        <ele>166.93000000000001</ele>
        <time>2025-05-03T11:14:51Z</time>
      </trkpt>
      <trkpt lat="41.093375980854034" lon="-8.032162981107831">
        <ele>167.88999999999999</ele>
        <time>2025-05-03T11:14:52Z</time>
      </trkpt>
      <trkpt lat="41.093327030539513" lon="-8.032392980530858">
        <ele>168.37</ele>
        <time>2025-05-03T11:14:53Z</time>
      </trkpt>
      <trkpt lat="41.093304986134171" lon="-8.032639995217323">
        <ele>168.84999999999999</ele>
        <time>2025-05-03T11:14:54Z</time>
      </trkpt>
      <trkpt lat="41.093214964494109" lon="-8.033830979838967">
        <ele>171.72999999999999</ele>
        <time>2025-05-03T11:14:59Z</time>
      </trkpt>
      <trkpt lat="41.093167020007968" lon="-8.034066008403897">
        <ele>172.69</ele>
        <time>2025-05-03T11:15:00Z</time>
      </trkpt>
      <trkpt lat="41.093118991702795" lon="-8.034295001998544">
        <ele>173.16999999999999</ele>
        <time>2025-05-03T11:15:01Z</time>
      </trkpt>
      <trkpt lat="41.093041962012649" lon="-8.034505974501371">
        <ele>173.66</ele>
        <time>2025-05-03T11:15:02Z</time>
      </trkpt>
      <trkpt lat="41.092963004484773" lon="-8.034713007509708">
        <ele>174.62</ele>
        <time>2025-05-03T11:15:03Z</time>
      </trkpt>
      <trkpt lat="41.092851022258401" lon="-8.034897996112704">
        <ele>175.58000000000001</ele>
        <time>2025-05-03T11:15:04Z</time>
      </trkpt>
      <trkpt lat="41.092728981748223" lon="-8.035077033564448">
        <ele>176.53999999999999</ele>
        <time>2025-05-03T11:15:05Z</time>
      </trkpt>
      <trkpt lat="41.092331008985639" lon="-8.035582965239883">
        <ele>179.41999999999999</ele>
        <time>2025-05-03T11:15:08Z</time>
      </trkpt>
      <trkpt lat="41.092192959040403" lon="-8.035714980214834">
        <ele>180.38</ele>
        <time>2025-05-03T11:15:09Z</time>
      </trkpt>
      <trkpt lat="41.092059016227722" lon="-8.035814976319671">
        <ele>180.87</ele>
        <time>2025-05-03T11:15:10Z</time>
      </trkpt>
      <trkpt lat="41.091923983767629" lon="-8.035883037373424">
        <ele>181.34999999999999</ele>
        <time>2025-05-03T11:15:11Z</time>
      </trkpt>
      <trkpt lat="41.091790040954947" lon="-8.035938022658229">
        <ele>181.83000000000001</ele>
        <time>2025-05-03T11:15:12Z</time>
      </trkpt>
      <trkpt lat="41.091657020151615" lon="-8.035988984629512">
        <ele>181.83000000000001</ele>
        <time>2025-05-03T11:15:13Z</time>
      </trkpt>
      <trkpt lat="41.09156004153192" lon="-8.036085041239858">
        <ele>182.31</ele>
        <time>2025-05-03T11:15:14Z</time>
      </trkpt>
      <trkpt lat="41.091474965214729" lon="-8.036206997931004">
        <ele>182.31</ele>
        <time>2025-05-03T11:15:15Z</time>
      </trkpt>
      <trkpt lat="41.091387961059809" lon="-8.036333983764052">
        <ele>182.31</ele>
        <time>2025-05-03T11:15:16Z</time>
      </trkpt>
      <trkpt lat="41.091297017410398" lon="-8.036464992910624">
        <ele>182.31</ele>
        <time>2025-05-03T11:15:17Z</time>
      </trkpt>
      <trkpt lat="41.091200960800052" lon="-8.036604970693588">
        <ele>182.31</ele>
        <time>2025-05-03T11:15:18Z</time>
      </trkpt>
      <trkpt lat="41.091071963310242" lon="-8.036704966798425">
        <ele>182.31</ele>
        <time>2025-05-03T11:15:19Z</time>
      </trkpt>
      <trkpt lat="41.090939026325941" lon="-8.036795994266868">
        <ele>182.31</ele>
        <time>2025-05-03T11:15:20Z</time>
      </trkpt>
      <trkpt lat="41.090807011350989" lon="-8.036887021735311">
        <ele>182.78999999999999</ele>
        <time>2025-05-03T11:15:21Z</time>
      </trkpt>
      <trkpt lat="41.090662004426122" lon="-8.036935972049832">
        <ele>182.31</ele>
        <time>2025-05-03T11:15:22Z</time>
      </trkpt>
      <trkpt lat="41.090505011379719" lon="-8.036975031718612">
        <ele>181.83000000000001</ele>
        <time>2025-05-03T11:15:23Z</time>
      </trkpt>
      <trkpt lat="41.090347012504935" lon="-8.037014007568359">
        <ele>181.34999999999999</ele>
        <time>2025-05-03T11:15:24Z</time>
      </trkpt>
      <trkpt lat="41.089889025315642" lon="-8.037129007279873">
        <ele>180.87</ele>
        <time>2025-05-03T11:15:27Z</time>
      </trkpt>
      <trkpt lat="41.089768996462226" lon="-8.037205031141639">
        <ele>180.87</ele>
        <time>2025-05-03T11:15:28Z</time>
      </trkpt>
      <trkpt lat="41.089651985093951" lon="-8.037317013368011">
        <ele>180.87</ele>
        <time>2025-05-03T11:15:29Z</time>
      </trkpt>
      <trkpt lat="41.088570971041918" lon="-8.038210021331906">
        <ele>183.75</ele>
        <time>2025-05-03T11:15:37Z</time>
      </trkpt>
      <trkpt lat="41.087902011349797" lon="-8.038621991872788">
        <ele>187.59</ele>
        <time>2025-05-03T11:15:42Z</time>
      </trkpt>
      <trkpt lat="41.087833028286695" lon="-8.038677982985973">
        <ele>188.56</ele>
        <time>2025-05-03T11:15:43Z</time>
      </trkpt>
      <trkpt lat="41.087783994153142" lon="-8.038788037374616">
        <ele>189.52000000000001</ele>
        <time>2025-05-03T11:15:44Z</time>
      </trkpt>
      <trkpt lat="41.087762033566833" lon="-8.038912005722523">
        <ele>190.47999999999999</ele>
        <time>2025-05-03T11:15:45Z</time>
      </trkpt>
      <trkpt lat="41.087791034951806" lon="-8.039058018475771">
        <ele>191.91999999999999</ele>
        <time>2025-05-03T11:15:46Z</time>
      </trkpt>
      <trkpt lat="41.087819030508399" lon="-8.039203025400639">
        <ele>192.88</ele>
        <time>2025-05-03T11:15:47Z</time>
      </trkpt>
      <trkpt lat="41.087849959731102" lon="-8.039364041760564">
        <ele>193.84</ele>
        <time>2025-05-03T11:15:48Z</time>
      </trkpt>
      <trkpt lat="41.087883990257978" lon="-8.039537966251373">
        <ele>195.28</ele>
        <time>2025-05-03T11:15:49Z</time>
      </trkpt>
      <trkpt lat="41.08790997415781" lon="-8.039712980389595">
        <ele>195.77000000000001</ele>
        <time>2025-05-03T11:15:50Z</time>
      </trkpt>
      <trkpt lat="41.087975017726421" lon="-8.041123989969492">
        <ele>200.09</ele>
        <time>2025-05-03T11:15:59Z</time>
      </trkpt>
      <trkpt lat="41.087953979149461" lon="-8.041253993287683">
        <ele>200.56999999999999</ele>
        <time>2025-05-03T11:16:00Z</time>
      </trkpt>
      <trkpt lat="41.087911985814571" lon="-8.041364969685674">
        <ele>200.56999999999999</ele>
        <time>2025-05-03T11:16:01Z</time>
      </trkpt>
      <trkpt lat="41.087852977216244" lon="-8.041472006589174">
        <ele>200.56999999999999</ele>
        <time>2025-05-03T11:16:02Z</time>
      </trkpt>
      <trkpt lat="41.087775025516748" lon="-8.041533026844263">
        <ele>201.05000000000001</ele>
        <time>2025-05-03T11:16:03Z</time>
      </trkpt>
      <trkpt lat="41.087677963078022" lon="-8.041584994643927">
        <ele>201.05000000000001</ele>
        <time>2025-05-03T11:16:04Z</time>
      </trkpt>
      <trkpt lat="41.087574027478695" lon="-8.041640985757113">
        <ele>200.56999999999999</ele>
        <time>2025-05-03T11:16:05Z</time>
      </trkpt>
      <trkpt lat="41.087470008060336" lon="-8.041697982698679">
        <ele>200.56999999999999</ele>
        <time>2025-05-03T11:16:06Z</time>
      </trkpt>
      <trkpt lat="41.086261002346873" lon="-8.042266024276614">
        <ele>200.09</ele>
        <time>2025-05-03T11:16:18Z</time>
      </trkpt>
      <trkpt lat="41.086114989593625" lon="-8.042384963482618">
        <ele>200.09</ele>
        <time>2025-05-03T11:16:20Z</time>
      </trkpt>
      <trkpt lat="41.086052963510156" lon="-8.04245101287961">
        <ele>200.09</ele>
        <time>2025-05-03T11:16:21Z</time>
      </trkpt>
      <trkpt lat="41.085995966568589" lon="-8.042512033134699">
        <ele>200.56999999999999</ele>
        <time>2025-05-03T11:16:22Z</time>
      </trkpt>
      <trkpt lat="41.085939975455403" lon="-8.042572969570756">
        <ele>200.56999999999999</ele>
        <time>2025-05-03T11:16:23Z</time>
      </trkpt>
      <trkpt lat="41.085879961028695" lon="-8.042638013139367">
        <ele>201.05000000000001</ele>
        <time>2025-05-03T11:16:24Z</time>
      </trkpt>
      <trkpt lat="41.085269004106522" lon="-8.043251987546682">
        <ele>201.05000000000001</ele>
        <time>2025-05-03T11:16:31Z</time>
      </trkpt>
      <trkpt lat="41.084999023005366" lon="-8.043576031923294">
        <ele>201.05000000000001</ele>
        <time>2025-05-03T11:16:34Z</time>
      </trkpt>
      <trkpt lat="41.08492199331522" lon="-8.043677033856511">
        <ele>201.05000000000001</ele>
        <time>2025-05-03T11:16:35Z</time>
      </trkpt>
      <trkpt lat="41.084870025515556" lon="-8.043803013861179">
        <ele>200.56999999999999</ele>
        <time>2025-05-03T11:16:36Z</time>
      </trkpt>
      <trkpt lat="41.084833983331919" lon="-8.043937962502241">
        <ele>200.56999999999999</ele>
        <time>2025-05-03T11:16:37Z</time>
      </trkpt>
      <trkpt lat="41.084833983331919" lon="-8.044083975255489">
        <ele>200.56999999999999</ele>
        <time>2025-05-03T11:16:38Z</time>
      </trkpt>
      <trkpt lat="41.084864996373653" lon="-8.044211966916919">
        <ele>200.56999999999999</ele>
        <time>2025-05-03T11:16:39Z</time>
      </trkpt>
      <trkpt lat="41.084915958344936" lon="-8.044339036568999">
        <ele>200.09</ele>
        <time>2025-05-03T11:16:40Z</time>
      </trkpt>
      <trkpt lat="41.084990976378322" lon="-8.044465016573668">
        <ele>199.61000000000001</ele>
        <time>2025-05-03T11:16:41Z</time>
      </trkpt>
      <trkpt lat="41.085079992190003" lon="-8.04457800462842">
        <ele>199.13</ele>
        <time>2025-05-03T11:16:42Z</time>
      </trkpt>
      <trkpt lat="41.085187029093504" lon="-8.04468504153192">
        <ele>198.65000000000001</ele>
        <time>2025-05-03T11:16:43Z</time>
      </trkpt>
      <trkpt lat="41.085292976349592" lon="-8.044783025979996">
        <ele>198.65000000000001</ele>
        <time>2025-05-03T11:16:44Z</time>
      </trkpt>
      <trkpt lat="41.085417028516531" lon="-8.044795012101531">
        <ele>198.16999999999999</ele>
        <time>2025-05-03T11:16:45Z</time>
      </trkpt>
      <trkpt lat="41.085548037663102" lon="-8.044788977131248">
        <ele>197.69</ele>
        <time>2025-05-03T11:16:46Z</time>
      </trkpt>
      <trkpt lat="41.085675023496151" lon="-8.044753018766642">
        <ele>196.72999999999999</ele>
        <time>2025-05-03T11:16:47Z</time>
      </trkpt>
      <trkpt lat="41.085798991844058" lon="-8.044716976583004">
        <ele>196.25</ele>
        <time>2025-05-03T11:16:48Z</time>
      </trkpt>
      <trkpt lat="41.085912985727191" lon="-8.044728962704539">
        <ele>195.77000000000001</ele>
        <time>2025-05-03T11:16:49Z</time>
      </trkpt>
      <trkpt lat="41.086031002923846" lon="-8.044754024595022">
        <ele>195.77000000000001</ele>
        <time>2025-05-03T11:16:50Z</time>
      </trkpt>
      <trkpt lat="41.086136028170586" lon="-8.044847985729575">
        <ele>195.77000000000001</ele>
        <time>2025-05-03T11:16:51Z</time>
      </trkpt>
      <trkpt lat="41.086251027882099" lon="-8.044949993491173">
        <ele>195.77000000000001</ele>
        <time>2025-05-03T11:16:52Z</time>
      </trkpt>
      <trkpt lat="41.086935997009277" lon="-8.045682990923524">
        <ele>193.84</ele>
        <time>2025-05-03T11:16:58Z</time>
      </trkpt>
      <trkpt lat="41.086969021707773" lon="-8.04586797952652">
        <ele>193.84</ele>
        <time>2025-05-03T11:16:59Z</time>
      </trkpt>
      <trkpt lat="41.087001040577888" lon="-8.046048022806644">
        <ele>193.84</ele>
        <time>2025-05-03T11:17:00Z</time>
      </trkpt>
      <trkpt lat="41.086980002000928" lon="-8.046195041388273">
        <ele>193.84</ele>
        <time>2025-05-03T11:17:01Z</time>
      </trkpt>
      <trkpt lat="41.086952006444335" lon="-8.046385981142521">
        <ele>193.36000000000001</ele>
        <time>2025-05-03T11:17:02Z</time>
      </trkpt>
      <trkpt lat="41.086690993979573" lon="-8.048265036195517">
        <ele>188.08000000000001</ele>
        <time>2025-05-03T11:17:11Z</time>
      </trkpt>
      <trkpt lat="41.086700968444347" lon="-8.048409959301353">
        <ele>187.59</ele>
        <time>2025-05-03T11:17:12Z</time>
      </trkpt>
      <trkpt lat="41.086756959557533" lon="-8.048522025346756">
        <ele>186.63</ele>
        <time>2025-05-03T11:17:13Z</time>
      </trkpt>
      <trkpt lat="41.086825020611286" lon="-8.048591008409858">
        <ele>186.15000000000001</ele>
        <time>2025-05-03T11:17:14Z</time>
      </trkpt>
      <trkpt lat="41.086935997009277" lon="-8.048623027279973">
        <ele>185.19</ele>
        <time>2025-05-03T11:17:15Z</time>
      </trkpt>
      <trkpt lat="41.087038004770875" lon="-8.048611041158438">
        <ele>184.71000000000001</ele>
        <time>2025-05-03T11:17:16Z</time>
      </trkpt>
      <trkpt lat="41.087150992825627" lon="-8.04859796538949">
        <ele>184.22999999999999</ele>
        <time>2025-05-03T11:17:17Z</time>
      </trkpt>
      <trkpt lat="41.087254006415606" lon="-8.048584973439574">
        <ele>183.27000000000001</ele>
        <time>2025-05-03T11:17:18Z</time>
      </trkpt>
      <trkpt lat="41.087346039712429" lon="-8.04861699230969">
        <ele>182.78999999999999</ele>
        <time>2025-05-03T11:17:19Z</time>
      </trkpt>
      <trkpt lat="41.087431032210588" lon="-8.048692010343075">
        <ele>182.31</ele>
        <time>2025-05-03T11:17:20Z</time>
      </trkpt>
      <trkpt lat="41.087463973090053" lon="-8.048823019489646">
        <ele>181.83000000000001</ele>
        <time>2025-05-03T11:17:21Z</time>
      </trkpt>
      <trkpt lat="41.087484005838633" lon="-8.048973977565765">
        <ele>181.34999999999999</ele>
        <time>2025-05-03T11:17:22Z</time>
      </trkpt>
      <trkpt lat="41.087434971705079" lon="-8.049113033339381">
        <ele>180.38</ele>
        <time>2025-05-03T11:17:23Z</time>
      </trkpt>
      <trkpt lat="41.087383003905416" lon="-8.049260973930359">
        <ele>179.90000000000001</ele>
        <time>2025-05-03T11:17:24Z</time>
      </trkpt>
      <trkpt lat="41.087295999750495" lon="-8.049381002783775">
        <ele>179.90000000000001</ele>
        <time>2025-05-03T11:17:25Z</time>
      </trkpt>
      <trkpt lat="41.087193991988897" lon="-8.049488039687276">
        <ele>179.41999999999999</ele>
        <time>2025-05-03T11:17:26Z</time>
      </trkpt>
      <trkpt lat="41.087089972570539" lon="-8.049594992771745">
        <ele>178.94</ele>
        <time>2025-05-03T11:17:27Z</time>
      </trkpt>
      <trkpt lat="41.08698695898056" lon="-8.049702029675245">
        <ele>178.94</ele>
        <time>2025-05-03T11:17:28Z</time>
      </trkpt>
      <trkpt lat="41.086785960942507" lon="-8.049909984692931">
        <ele>178.94</ele>
        <time>2025-05-03T11:17:30Z</time>
      </trkpt>
      <trkpt lat="41.086733993142843" lon="-8.050067983567715">
        <ele>178.94</ele>
        <time>2025-05-03T11:17:31Z</time>
      </trkpt>
      <trkpt lat="41.086699962615967" lon="-8.050218019634485">
        <ele>178.46000000000001</ele>
        <time>2025-05-03T11:17:32Z</time>
      </trkpt>
      <trkpt lat="41.086699962615967" lon="-8.050381969660521">
        <ele>178.46000000000001</ele>
        <time>2025-05-03T11:17:33Z</time>
      </trkpt>
      <trkpt lat="41.086752014234662" lon="-8.050533011555672">
        <ele>178.46000000000001</ele>
        <time>2025-05-03T11:17:34Z</time>
      </trkpt>
      <trkpt lat="41.086805993691087" lon="-8.050692016258836">
        <ele>178.46000000000001</ele>
        <time>2025-05-03T11:17:35Z</time>
      </trkpt>
      <trkpt lat="41.086860978975892" lon="-8.050850015133619">
        <ele>178.46000000000001</ele>
        <time>2025-05-03T11:17:36Z</time>
      </trkpt>
      <trkpt lat="41.086912024766207" lon="-8.051000973209739">
        <ele>178.46000000000001</ele>
        <time>2025-05-03T11:17:37Z</time>
      </trkpt>
      <trkpt lat="41.086958041414618" lon="-8.051137011498213">
        <ele>178.46000000000001</ele>
        <time>2025-05-03T11:17:38Z</time>
      </trkpt>
      <trkpt lat="41.086958963423967" lon="-8.051285035908222">
        <ele>178.46000000000001</ele>
        <time>2025-05-03T11:17:39Z</time>
      </trkpt>
      <trkpt lat="41.086924010887742" lon="-8.0514329764992">
        <ele>178.46000000000001</ele>
        <time>2025-05-03T11:17:40Z</time>
      </trkpt>
      <trkpt lat="41.086887968704104" lon="-8.051596004515886">
        <ele>177.97999999999999</ele>
        <time>2025-05-03T11:17:41Z</time>
      </trkpt>
      <trkpt lat="41.08685796149075" lon="-8.051770012825728">
        <ele>177.5</ele>
        <time>2025-05-03T11:17:42Z</time>
      </trkpt>
      <trkpt lat="41.086826026439667" lon="-8.05194997228682">
        <ele>176.53999999999999</ele>
        <time>2025-05-03T11:17:43Z</time>
      </trkpt>
      <trkpt lat="41.086828960105777" lon="-8.052125992253423">
        <ele>176.06</ele>
        <time>2025-05-03T11:17:44Z</time>
      </trkpt>
      <trkpt lat="41.08687698841095" lon="-8.052281979471445">
        <ele>175.58000000000001</ele>
        <time>2025-05-03T11:17:45Z</time>
      </trkpt>
      <trkpt lat="41.086926022544503" lon="-8.052440984174609">
        <ele>175.09999999999999</ele>
        <time>2025-05-03T11:17:46Z</time>
      </trkpt>
      <trkpt lat="41.086972961202264" lon="-8.05259495973587">
        <ele>174.62</ele>
        <time>2025-05-03T11:17:47Z</time>
      </trkpt>
      <trkpt lat="41.086978996172547" lon="-8.052746001631022">
        <ele>173.66</ele>
        <time>2025-05-03T11:17:48Z</time>
      </trkpt>
      <trkpt lat="41.086972961202264" lon="-8.052882039919496">
        <ele>173.16999999999999</ele>
        <time>2025-05-03T11:17:49Z</time>
      </trkpt>
      <trkpt lat="41.08689702115953" lon="-8.053008019924164">
        <ele>172.21000000000001</ele>
        <time>2025-05-03T11:17:50Z</time>
      </trkpt>
      <trkpt lat="41.08681202866137" lon="-8.053146991878748">
        <ele>171.25</ele>
        <time>2025-05-03T11:17:51Z</time>
      </trkpt>
      <trkpt lat="41.086723012849689" lon="-8.053294010460377">
        <ele>170.77000000000001</ele>
        <time>2025-05-03T11:17:52Z</time>
      </trkpt>
      <trkpt lat="41.086630979552865" lon="-8.053445974364877">
        <ele>170.28999999999999</ele>
        <time>2025-05-03T11:17:53Z</time>
      </trkpt>
      <trkpt lat="41.086287992075086" lon="-8.054035976529121">
        <ele>166.93000000000001</ele>
        <time>2025-05-03T11:17:57Z</time>
      </trkpt>
      <trkpt lat="41.086270976811647" lon="-8.054172014817596">
        <ele>165.96000000000001</ele>
        <time>2025-05-03T11:17:58Z</time>
      </trkpt>
      <trkpt lat="41.086270976811647" lon="-8.054308975115418">
        <ele>165.47999999999999</ele>
        <time>2025-05-03T11:17:59Z</time>
      </trkpt>
      <trkpt lat="41.086302995681763" lon="-8.054511984810233">
        <ele>164.52000000000001</ele>
        <time>2025-05-03T11:18:00Z</time>
      </trkpt>
      <trkpt lat="41.08634197153151" lon="-8.054706025868654">
        <ele>164.03999999999999</ele>
        <time>2025-05-03T11:18:01Z</time>
      </trkpt>
      <trkpt lat="41.086631985381246" lon="-8.056003041565418">
        <ele>157.78999999999999</ele>
        <time>2025-05-03T11:18:07Z</time>
      </trkpt>
      <trkpt lat="41.086722007021308" lon="-8.056164979934692">
        <ele>156.83000000000001</ele>
        <time>2025-05-03T11:18:08Z</time>
      </trkpt>
      <trkpt lat="41.086820997297764" lon="-8.056327002122998">
        <ele>155.87</ele>
        <time>2025-05-03T11:18:09Z</time>
      </trkpt>
      <trkpt lat="41.087015960365534" lon="-8.056645011529326">
        <ele>153.94999999999999</ele>
        <time>2025-05-03T11:18:11Z</time>
      </trkpt>
      <trkpt lat="41.087089972570539" lon="-8.056830000132322">
        <ele>152.99000000000001</ele>
        <time>2025-05-03T11:18:12Z</time>
      </trkpt>
      <trkpt lat="41.087158033624291" lon="-8.057034015655518">
        <ele>152.03</ele>
        <time>2025-05-03T11:18:13Z</time>
      </trkpt>
      <trkpt lat="41.087219975888729" lon="-8.057240964844823">
        <ele>151.06</ele>
        <time>2025-05-03T11:18:14Z</time>
      </trkpt>
      <trkpt lat="41.087276972830296" lon="-8.057454032823443">
        <ele>150.09999999999999</ele>
        <time>2025-05-03T11:18:15Z</time>
      </trkpt>
      <trkpt lat="41.08769397251308" lon="-8.05890703573823">
        <ele>145.30000000000001</ele>
        <time>2025-05-03T11:18:22Z</time>
      </trkpt>
      <trkpt lat="41.087884996086359" lon="-8.059729970991612">
        <ele>143.84999999999999</ele>
        <time>2025-05-03T11:18:26Z</time>
      </trkpt>
      <trkpt lat="41.087895976379514" lon="-8.059943038970232">
        <ele>143.84999999999999</ele>
        <time>2025-05-03T11:18:27Z</time>
      </trkpt>
      <trkpt lat="41.087884996086359" lon="-8.060149988159537">
        <ele>143.84999999999999</ele>
        <time>2025-05-03T11:18:28Z</time>
      </trkpt>
      <trkpt lat="41.087873009964824" lon="-8.060368001461029">
        <ele>143.84999999999999</ele>
        <time>2025-05-03T11:18:29Z</time>
      </trkpt>
      <trkpt lat="41.087862029671669" lon="-8.06058400310576">
        <ele>143.84999999999999</ele>
        <time>2025-05-03T11:18:30Z</time>
      </trkpt>
      <trkpt lat="41.087880972772837" lon="-8.060780977830291">
        <ele>143.84999999999999</ele>
        <time>2025-05-03T11:18:31Z</time>
      </trkpt>
      <trkpt lat="41.087910979986191" lon="-8.060980970039964">
        <ele>143.37</ele>
        <time>2025-05-03T11:18:32Z</time>
      </trkpt>
      <trkpt lat="41.087937969714403" lon="-8.061161013320088">
        <ele>142.88999999999999</ele>
        <time>2025-05-03T11:18:33Z</time>
      </trkpt>
      <trkpt lat="41.087964037433267" lon="-8.061329992488027">
        <ele>142.41</ele>
        <time>2025-05-03T11:18:34Z</time>
      </trkpt>
      <trkpt lat="41.087936963886023" lon="-8.061493020504713">
        <ele>141.93000000000001</ele>
        <time>2025-05-03T11:18:35Z</time>
      </trkpt>
      <trkpt lat="41.087889019399881" lon="-8.061638027429581">
        <ele>140.97</ele>
        <time>2025-05-03T11:18:36Z</time>
      </trkpt>
      <trkpt lat="41.087601017206907" lon="-8.062284020707011">
        <ele>138.09</ele>
        <time>2025-05-03T11:18:40Z</time>
      </trkpt>
      <trkpt lat="41.087549971416593" lon="-8.062446964904666">
        <ele>137.61000000000001</ele>
        <time>2025-05-03T11:18:41Z</time>
      </trkpt>
      <trkpt lat="41.087527005001903" lon="-8.062614016234875">
        <ele>136.63999999999999</ele>
        <time>2025-05-03T11:18:42Z</time>
      </trkpt>
      <trkpt lat="41.087533961981535" lon="-8.062757011502981">
        <ele>136.16</ele>
        <time>2025-05-03T11:18:43Z</time>
      </trkpt>
      <trkpt lat="41.087584001943469" lon="-8.062917022034526">
        <ele>135.68000000000001</ele>
        <time>2025-05-03T11:18:44Z</time>
      </trkpt>
      <trkpt lat="41.0876480396837" lon="-8.063081977888942">
        <ele>135.68000000000001</ele>
        <time>2025-05-03T11:18:45Z</time>
      </trkpt>
      <trkpt lat="41.087746024131775" lon="-8.063236037269235">
        <ele>135.19999999999999</ele>
        <time>2025-05-03T11:18:46Z</time>
      </trkpt>
      <trkpt lat="41.088031008839607" lon="-8.063685977831483">
        <ele>134.72</ele>
        <time>2025-05-03T11:18:49Z</time>
      </trkpt>
      <trkpt lat="41.088148020207882" lon="-8.063803995028138">
        <ele>134.72</ele>
        <time>2025-05-03T11:18:50Z</time>
      </trkpt>
      <trkpt lat="41.088265031576157" lon="-8.063848000019789">
        <ele>134.24000000000001</ele>
        <time>2025-05-03T11:18:51Z</time>
      </trkpt>
      <trkpt lat="41.088510034605861" lon="-8.063925029709935">
        <ele>133.75999999999999</ele>
        <time>2025-05-03T11:18:53Z</time>
      </trkpt>
      <trkpt lat="41.089532040059566" lon="-8.064648974686861">
        <ele>131.84</ele>
        <time>2025-05-03T11:19:01Z</time>
      </trkpt>
      <trkpt lat="41.089652990922332" lon="-8.064734973013401">
        <ele>130.88</ele>
        <time>2025-05-03T11:19:02Z</time>
      </trkpt>
      <trkpt lat="41.089758016169071" lon="-8.06481895968318">
        <ele>130.88</ele>
        <time>2025-05-03T11:19:03Z</time>
      </trkpt>
      <trkpt lat="41.089843008667231" lon="-8.064953992143273">
        <ele>130.40000000000001</ele>
        <time>2025-05-03T11:19:04Z</time>
      </trkpt>
      <trkpt lat="41.089887013658881" lon="-8.06511802598834">
        <ele>129.91999999999999</ele>
        <time>2025-05-03T11:19:05Z</time>
      </trkpt>
      <trkpt lat="41.08992800116539" lon="-8.065305026248097">
        <ele>129.43000000000001</ele>
        <time>2025-05-03T11:19:06Z</time>
      </trkpt>
      <trkpt lat="41.089952979236841" lon="-8.065499989315867">
        <ele>128.94999999999999</ele>
        <time>2025-05-03T11:19:07Z</time>
      </trkpt>
      <trkpt lat="41.08999103307724" lon="-8.065925035625696">
        <ele>127.03</ele>
        <time>2025-05-03T11:19:09Z</time>
      </trkpt>
      <trkpt lat="41.09009999781847" lon="-8.067134041339159">
        <ele>119.81999999999999</ele>
        <time>2025-05-03T11:19:15Z</time>
      </trkpt>
      <trkpt lat="41.090135034173727" lon="-8.067311989143491">
        <ele>118.86</ele>
        <time>2025-05-03T11:19:16Z</time>
      </trkpt>
      <trkpt lat="41.090217009186745" lon="-8.067467976361513">
        <ele>117.90000000000001</ele>
        <time>2025-05-03T11:19:17Z</time>
      </trkpt>
      <trkpt lat="41.090342989191413" lon="-8.06778003461659">
        <ele>115.98</ele>
        <time>2025-05-03T11:19:19Z</time>
      </trkpt>
      <trkpt lat="41.090366039425135" lon="-8.067930992692709">
        <ele>115.01000000000001</ele>
        <time>2025-05-03T11:19:20Z</time>
      </trkpt>
      <trkpt lat="41.090342989191413" lon="-8.068069964647293">
        <ele>114.05</ele>
        <time>2025-05-03T11:19:21Z</time>
      </trkpt>
      <trkpt lat="41.090305019170046" lon="-8.068235004320741">
        <ele>113.56999999999999</ele>
        <time>2025-05-03T11:19:22Z</time>
      </trkpt>
      <trkpt lat="41.090235030278563" lon="-8.068341035395861">
        <ele>113.09</ele>
        <time>2025-05-03T11:19:23Z</time>
      </trkpt>
      <trkpt lat="41.090149031952024" lon="-8.06846902705729">
        <ele>112.13</ele>
        <time>2025-05-03T11:19:24Z</time>
      </trkpt>
      <trkpt lat="41.090062027797103" lon="-8.068600036203861">
        <ele>111.65000000000001</ele>
        <time>2025-05-03T11:19:25Z</time>
      </trkpt>
      <trkpt lat="41.089977035298944" lon="-8.068728027865291">
        <ele>111.17</ele>
        <time>2025-05-03T11:19:26Z</time>
      </trkpt>
      <trkpt lat="41.089962031692266" lon="-8.068882003426552">
        <ele>110.69</ele>
        <time>2025-05-03T11:19:27Z</time>
      </trkpt>
      <trkpt lat="41.089962031692266" lon="-8.069052994251251">
        <ele>110.20999999999999</ele>
        <time>2025-05-03T11:19:28Z</time>
      </trkpt>
      <trkpt lat="41.089962031692266" lon="-8.06922197341919">
        <ele>109.25</ele>
        <time>2025-05-03T11:19:29Z</time>
      </trkpt>
      <trkpt lat="41.089992038905621" lon="-8.069393970072269">
        <ele>108.77</ele>
        <time>2025-05-03T11:19:30Z</time>
      </trkpt>
      <trkpt lat="41.090106032788754" lon="-8.070135014131665">
        <ele>105.88</ele>
        <time>2025-05-03T11:19:34Z</time>
      </trkpt>
      <trkpt lat="41.090134028345346" lon="-8.07046702131629">
        <ele>104.92</ele>
        <time>2025-05-03T11:19:36Z</time>
      </trkpt>
      <trkpt lat="41.090104021131992" lon="-8.07066198438406">
        <ele>103.95999999999999</ele>
        <time>2025-05-03T11:19:37Z</time>
      </trkpt>
      <trkpt lat="41.09007703140378" lon="-8.070835992693901">
        <ele>103</ele>
        <time>2025-05-03T11:19:38Z</time>
      </trkpt>
      <trkpt lat="41.090049035847187" lon="-8.071014024317265">
        <ele>102.52</ele>
        <time>2025-05-03T11:19:39Z</time>
      </trkpt>
      <trkpt lat="41.090021040290594" lon="-8.07119901292026">
        <ele>102.04000000000001</ele>
        <time>2025-05-03T11:19:40Z</time>
      </trkpt>
      <trkpt lat="41.090005030855536" lon="-8.071390958502889">
        <ele>101.08</ele>
        <time>2025-05-03T11:19:41Z</time>
      </trkpt>
      <trkpt lat="41.090005030855536" lon="-8.071595979854465">
        <ele>100.11</ele>
        <time>2025-05-03T11:19:42Z</time>
      </trkpt>
      <trkpt lat="41.090005030855536" lon="-8.071796977892518">
        <ele>99.150000000000006</ele>
        <time>2025-05-03T11:19:43Z</time>
      </trkpt>
      <trkpt lat="41.090005030855536" lon="-8.0719930306077">
        <ele>98.189999999999998</ele>
        <time>2025-05-03T11:19:44Z</time>
      </trkpt>
      <trkpt lat="41.090005030855536" lon="-8.072188999503851">
        <ele>96.75</ele>
        <time>2025-05-03T11:19:45Z</time>
      </trkpt>
      <trkpt lat="41.090005030855536" lon="-8.072386980056763">
        <ele>95.310000000000002</ele>
        <time>2025-05-03T11:19:46Z</time>
      </trkpt>
      <trkpt lat="41.090005030855536" lon="-8.072780007496476">
        <ele>92.900000000000006</ele>
        <time>2025-05-03T11:19:48Z</time>
      </trkpt>
      <trkpt lat="41.090021962299943" lon="-8.07298100553453">
        <ele>91.939999999999998</ele>
        <time>2025-05-03T11:19:49Z</time>
      </trkpt>
      <trkpt lat="41.09007996506989" lon="-8.073577964678407">
        <ele>88.099999999999994</ele>
        <time>2025-05-03T11:19:52Z</time>
      </trkpt>
      <trkpt lat="41.090087005868554" lon="-8.07377602905035">
        <ele>86.659999999999997</ele>
        <time>2025-05-03T11:19:53Z</time>
      </trkpt>
      <trkpt lat="41.090091029182076" lon="-8.073974009603262">
        <ele>85.209999999999994</ele>
        <time>2025-05-03T11:19:54Z</time>
      </trkpt>
      <trkpt lat="41.090091029182076" lon="-8.074169978499413">
        <ele>83.769999999999996</ele>
        <time>2025-05-03T11:19:55Z</time>
      </trkpt>
      <trkpt lat="41.090134028345346" lon="-8.074364019557834">
        <ele>82.329999999999998</ele>
        <time>2025-05-03T11:19:56Z</time>
      </trkpt>
      <trkpt lat="41.090184990316629" lon="-8.074558982625604">
        <ele>80.890000000000001</ele>
        <time>2025-05-03T11:19:57Z</time>
      </trkpt>
      <trkpt lat="41.090239975601435" lon="-8.074746988713741">
        <ele>79.930000000000007</ele>
        <time>2025-05-03T11:19:58Z</time>
      </trkpt>
      <trkpt lat="41.090567037463188" lon="-8.075825991109014">
        <ele>71.269999999999996</ele>
        <time>2025-05-03T11:20:05Z</time>
      </trkpt>
      <trkpt lat="41.090734004974365" lon="-8.076571980491281">
        <ele>66.950000000000003</ele>
        <time>2025-05-03T11:20:10Z</time>
      </trkpt>
      <trkpt lat="41.090734004974365" lon="-8.076722016558051">
        <ele>65.989999999999995</ele>
        <time>2025-05-03T11:20:11Z</time>
      </trkpt>
      <trkpt lat="41.090683965012431" lon="-8.076830981299281">
        <ele>65.989999999999995</ele>
        <time>2025-05-03T11:20:12Z</time>
      </trkpt>
      <trkpt lat="41.090623028576374" lon="-8.076948998495936">
        <ele>65.030000000000001</ele>
        <time>2025-05-03T11:20:13Z</time>
      </trkpt>
      <trkpt lat="41.090558990836143" lon="-8.077073972672224">
        <ele>64.069999999999993</ele>
        <time>2025-05-03T11:20:14Z</time>
      </trkpt>
      <trkpt lat="41.090494031086564" lon="-8.077200958505273">
        <ele>63.100000000000001</ele>
        <time>2025-05-03T11:20:15Z</time>
      </trkpt>
      <trkpt lat="41.090429993346334" lon="-8.077326016500592">
        <ele>62.140000000000001</ele>
        <time>2025-05-03T11:20:16Z</time>
      </trkpt>
      <trkpt lat="41.090364027768373" lon="-8.077454008162022">
        <ele>61.18</ele>
        <time>2025-05-03T11:20:17Z</time>
      </trkpt>
      <trkpt lat="41.090300995856524" lon="-8.077581999823451">
        <ele>60.700000000000003</ele>
        <time>2025-05-03T11:20:18Z</time>
      </trkpt>
      <trkpt lat="41.090134028345346" lon="-8.078040992841125">
        <ele>57.340000000000003</ele>
        <time>2025-05-03T11:20:22Z</time>
      </trkpt>
      <trkpt lat="41.090052975341678" lon="-8.078121040016413">
        <ele>56.859999999999999</ele>
        <time>2025-05-03T11:20:23Z</time>
      </trkpt>
      <trkpt lat="41.089976029470563" lon="-8.078198991715908">
        <ele>55.890000000000001</ele>
        <time>2025-05-03T11:20:24Z</time>
      </trkpt>
      <trkpt lat="41.089893970638514" lon="-8.078280966728926">
        <ele>54.93</ele>
        <time>2025-05-03T11:20:25Z</time>
      </trkpt>
      <trkpt lat="41.089807972311974" lon="-8.078365959227085">
        <ele>54.450000000000003</ele>
        <time>2025-05-03T11:20:26Z</time>
      </trkpt>
      <trkpt lat="41.089551988989115" lon="-8.078587995842099">
        <ele>52.530000000000001</ele>
        <time>2025-05-03T11:20:29Z</time>
      </trkpt>
      <trkpt lat="41.089476970955729" lon="-8.078621020540595">
        <ele>52.049999999999997</ele>
        <time>2025-05-03T11:20:30Z</time>
      </trkpt>
      <trkpt lat="41.089388038963079" lon="-8.078621020540595">
        <ele>52.049999999999997</ele>
        <time>2025-05-03T11:20:31Z</time>
      </trkpt>
      <trkpt lat="41.089304974302649" lon="-8.078585984185338">
        <ele>51.57</ele>
        <time>2025-05-03T11:20:32Z</time>
      </trkpt>
      <trkpt lat="41.089189974591136" lon="-8.078512977808714">
        <ele>51.57</ele>
        <time>2025-05-03T11:20:33Z</time>
      </trkpt>
      <trkpt lat="41.08911101706326" lon="-8.078435026109219">
        <ele>51.090000000000003</ele>
        <time>2025-05-03T11:20:34Z</time>
      </trkpt>
      <trkpt lat="41.088176015764475" lon="-8.077599015086889">
        <ele>51.090000000000003</ele>
        <time>2025-05-03T11:20:42Z</time>
      </trkpt>
      <trkpt lat="41.088065039366484" lon="-8.07751502841711">
        <ele>51.57</ele>
        <time>2025-05-03T11:20:43Z</time>
      </trkpt>
      <trkpt lat="41.087954984977841" lon="-8.077490972355008">
        <ele>51.57</ele>
        <time>2025-05-03T11:20:44Z</time>
      </trkpt>
      <trkpt lat="41.087552988901734" lon="-8.077433975413442">
        <ele>52.049999999999997</ele>
        <time>2025-05-03T11:20:47Z</time>
      </trkpt>
      <trkpt lat="41.087408987805247" lon="-8.077399022877216">
        <ele>52.049999999999997</ele>
        <time>2025-05-03T11:20:48Z</time>
      </trkpt>
      <trkpt lat="41.086248010396957" lon="-8.076680023223162">
        <ele>56.859999999999999</ele>
        <time>2025-05-03T11:20:57Z</time>
      </trkpt>
      <trkpt lat="41.086140973493457" lon="-8.076551025733352">
        <ele>56.859999999999999</ele>
        <time>2025-05-03T11:20:58Z</time>
      </trkpt>
      <trkpt lat="41.086053969338536" lon="-8.076404007151723">
        <ele>57.340000000000003</ele>
        <time>2025-05-03T11:20:59Z</time>
      </trkpt>
      <trkpt lat="41.085986997932196" lon="-8.076242990791798">
        <ele>58.299999999999997</ele>
        <time>2025-05-03T11:21:00Z</time>
      </trkpt>
      <trkpt lat="41.085921032354236" lon="-8.076083986088634">
        <ele>58.780000000000001</ele>
        <time>2025-05-03T11:21:01Z</time>
      </trkpt>
      <trkpt lat="41.085855988785625" lon="-8.075929004698992">
        <ele>59.259999999999998</ele>
        <time>2025-05-03T11:21:02Z</time>
      </trkpt>
      <trkpt lat="41.085774013772607" lon="-8.075807970017195">
        <ele>59.740000000000002</ele>
        <time>2025-05-03T11:21:03Z</time>
      </trkpt>
      <trkpt lat="41.085692038759589" lon="-8.075702022761107">
        <ele>60.219999999999999</ele>
        <time>2025-05-03T11:21:04Z</time>
      </trkpt>
      <trkpt lat="41.085578966885805" lon="-8.075674027204514">
        <ele>60.219999999999999</ele>
        <time>2025-05-03T11:21:05Z</time>
      </trkpt>
      <trkpt lat="41.085452986881137" lon="-8.075671009719372">
        <ele>60.219999999999999</ele>
        <time>2025-05-03T11:21:06Z</time>
      </trkpt>
      <trkpt lat="41.085323989391327" lon="-8.075692970305681">
        <ele>60.219999999999999</ele>
        <time>2025-05-03T11:21:07Z</time>
      </trkpt>
      <trkpt lat="41.084539024159312" lon="-8.075825991109014">
        <ele>61.659999999999997</ele>
        <time>2025-05-03T11:21:13Z</time>
      </trkpt>
      <trkpt lat="41.084410026669502" lon="-8.075808975845575">
        <ele>62.140000000000001</ele>
        <time>2025-05-03T11:21:14Z</time>
      </trkpt>
      <trkpt lat="41.084279017522931" lon="-8.075780980288982">
        <ele>62.619999999999997</ele>
        <time>2025-05-03T11:21:15Z</time>
      </trkpt>
      <trkpt lat="41.084034014493227" lon="-8.075727000832558">
        <ele>63.579999999999998</ele>
        <time>2025-05-03T11:21:17Z</time>
      </trkpt>
      <trkpt lat="41.0839559789747" lon="-8.075663968920708">
        <ele>64.069999999999993</ele>
        <time>2025-05-03T11:21:18Z</time>
      </trkpt>
      <trkpt lat="41.083901999518275" lon="-8.075613006949425">
        <ele>64.549999999999997</ele>
        <time>2025-05-03T11:21:19Z</time>
      </trkpt>
      <trkpt lat="41.083859000355005" lon="-8.075572019442916">
        <ele>65.030000000000001</ele>
        <time>2025-05-03T11:21:20Z</time>
      </trkpt>
      <trkpt lat="41.083814995363355" lon="-8.075530026108027">
        <ele>65.510000000000005</ele>
        <time>2025-05-03T11:21:21Z</time>
      </trkpt>
      <trkpt lat="41.083641992881894" lon="-8.075364986434579">
        <ele>66.950000000000003</ele>
        <time>2025-05-03T11:21:24Z</time>
      </trkpt>
      <trkpt lat="41.083573009818792" lon="-8.075299020856619">
        <ele>67.430000000000007</ele>
        <time>2025-05-03T11:21:25Z</time>
      </trkpt>
      <trkpt lat="41.08346002176404" lon="-8.075314024463296">
        <ele>67.909999999999997</ele>
        <time>2025-05-03T11:21:26Z</time>
      </trkpt>
      <trkpt lat="41.08335399068892" lon="-8.075364986434579">
        <ele>67.909999999999997</ele>
        <time>2025-05-03T11:21:27Z</time>
      </trkpt>
      <trkpt lat="41.083242008462548" lon="-8.075417960062623">
        <ele>67.909999999999997</ele>
        <time>2025-05-03T11:21:28Z</time>
      </trkpt>
      <trkpt lat="41.083118040114641" lon="-8.075477974489331">
        <ele>68.390000000000001</ele>
        <time>2025-05-03T11:21:29Z</time>
      </trkpt>
      <trkpt lat="41.082990970462561" lon="-8.075526002794504">
        <ele>68.390000000000001</ele>
        <time>2025-05-03T11:21:30Z</time>
      </trkpt>
      <trkpt lat="41.082555027678609" lon="-8.075594985857606">
        <ele>68.390000000000001</ele>
        <time>2025-05-03T11:21:33Z</time>
      </trkpt>
      <trkpt lat="41.082404991611838" lon="-8.075590040534735">
        <ele>68.870000000000005</ele>
        <time>2025-05-03T11:21:34Z</time>
      </trkpt>
      <trkpt lat="41.0822550393641" lon="-8.075560033321381">
        <ele>68.870000000000005</ele>
        <time>2025-05-03T11:21:35Z</time>
      </trkpt>
      <trkpt lat="41.082112966105342" lon="-8.075532037764788">
        <ele>68.870000000000005</ele>
        <time>2025-05-03T11:21:36Z</time>
      </trkpt>
      <trkpt lat="41.081987991929054" lon="-8.075457019731402">
        <ele>68.870000000000005</ele>
        <time>2025-05-03T11:21:37Z</time>
      </trkpt>
      <trkpt lat="41.081851031631231" lon="-8.075374960899353">
        <ele>69.349999999999994</ele>
        <time>2025-05-03T11:21:38Z</time>
      </trkpt>
      <trkpt lat="41.081710970029235" lon="-8.075288962572813">
        <ele>69.829999999999998</ele>
        <time>2025-05-03T11:21:39Z</time>
      </trkpt>
      <trkpt lat="41.081565041095018" lon="-8.075201036408544">
        <ele>69.829999999999998</ele>
        <time>2025-05-03T11:21:40Z</time>
      </trkpt>
      <trkpt lat="41.081404024735093" lon="-8.075139010325074">
        <ele>70.310000000000002</ele>
        <time>2025-05-03T11:21:41Z</time>
      </trkpt>
      <trkpt lat="41.079653967171907" lon="-8.07467901147902">
        <ele>71.269999999999996</ele>
        <time>2025-05-03T11:21:51Z</time>
      </trkpt>
      <trkpt lat="41.079382980242372" lon="-8.074608016759157">
        <ele>71.760000000000005</ele>
        <time>2025-05-03T11:21:53Z</time>
      </trkpt>
      <trkpt lat="41.079236967489123" lon="-8.074494022876024">
        <ele>72.239999999999995</ele>
        <time>2025-05-03T11:21:54Z</time>
      </trkpt>
      <trkpt lat="41.079126996919513" lon="-8.074373994022608">
        <ele>72.239999999999995</ele>
        <time>2025-05-03T11:21:55Z</time>
      </trkpt>
      <trkpt lat="41.079015014693141" lon="-8.074225969612598">
        <ele>72.719999999999999</ele>
        <time>2025-05-03T11:21:56Z</time>
      </trkpt>
      <trkpt lat="41.078902026638389" lon="-8.074078029021621">
        <ele>73.200000000000003</ele>
        <time>2025-05-03T11:21:57Z</time>
      </trkpt>
      <trkpt lat="41.078044977039099" lon="-8.072900958359242">
        <ele>76.560000000000002</ele>
        <time>2025-05-03T11:22:05Z</time>
      </trkpt>
      <trkpt lat="41.077954033389688" lon="-8.072773972526193">
        <ele>77.040000000000006</ele>
        <time>2025-05-03T11:22:06Z</time>
      </trkpt>
      <trkpt lat="41.077924026176333" lon="-8.072632988914847">
        <ele>77.519999999999996</ele>
        <time>2025-05-03T11:22:07Z</time>
      </trkpt>
      <trkpt lat="41.077902987599373" lon="-8.072503991425037">
        <ele>78</ele>
        <time>2025-05-03T11:22:08Z</time>
      </trkpt>
      <trkpt lat="41.077937018126249" lon="-8.072368036955595">
        <ele>78.480000000000004</ele>
        <time>2025-05-03T11:22:09Z</time>
      </trkpt>
      <trkpt lat="41.077974988147616" lon="-8.072218000888825">
        <ele>78.969999999999999</ele>
        <time>2025-05-03T11:22:10Z</time>
      </trkpt>
      <trkpt lat="41.078014969825745" lon="-8.072056984528899">
        <ele>79.450000000000003</ele>
        <time>2025-05-03T11:22:11Z</time>
      </trkpt>
      <trkpt lat="41.078044977039099" lon="-8.0717150028795">
        <ele>79.930000000000007</ele>
        <time>2025-05-03T11:22:13Z</time>
      </trkpt>
      <trkpt lat="41.078051012009382" lon="-8.071533031761646">
        <ele>80.409999999999997</ele>
        <time>2025-05-03T11:22:14Z</time>
      </trkpt>
      <trkpt lat="41.078001977875829" lon="-8.071353994309902">
        <ele>80.409999999999997</ele>
        <time>2025-05-03T11:22:15Z</time>
      </trkpt>
      <trkpt lat="41.07785303145647" lon="-8.070806991308928">
        <ele>80.409999999999997</ele>
        <time>2025-05-03T11:22:18Z</time>
      </trkpt>
      <trkpt lat="41.077799974009395" lon="-8.070613034069538">
        <ele>79.930000000000007</ele>
        <time>2025-05-03T11:22:19Z</time>
      </trkpt>
      <trkpt lat="41.077747000381351" lon="-8.070418993011117">
        <ele>79.930000000000007</ele>
        <time>2025-05-03T11:22:20Z</time>
      </trkpt>
      <trkpt lat="41.077639041468501" lon="-8.070239033550024">
        <ele>79.450000000000003</ele>
        <time>2025-05-03T11:22:21Z</time>
      </trkpt>
      <trkpt lat="41.077525969594717" lon="-8.070092014968395">
        <ele>78.969999999999999</ele>
        <time>2025-05-03T11:22:22Z</time>
      </trkpt>
      <trkpt lat="41.077412981539965" lon="-8.069954970851541">
        <ele>78.480000000000004</ele>
        <time>2025-05-03T11:22:23Z</time>
      </trkpt>
      <trkpt lat="41.077087009325624" lon="-8.06963000446558">
        <ele>78.969999999999999</ele>
        <time>2025-05-03T11:22:26Z</time>
      </trkpt>
      <trkpt lat="41.076954994350672" lon="-8.069665962830186">
        <ele>78.969999999999999</ele>
        <time>2025-05-03T11:22:27Z</time>
      </trkpt>
      <trkpt lat="41.076850974932313" lon="-8.069693958386779">
        <ele>78.969999999999999</ele>
        <time>2025-05-03T11:22:28Z</time>
      </trkpt>
      <trkpt lat="41.076729018241167" lon="-8.069764031097293">
        <ele>78.969999999999999</ele>
        <time>2025-05-03T11:22:29Z</time>
      </trkpt>
      <trkpt lat="41.076612006872892" lon="-8.069831002503634">
        <ele>78.969999999999999</ele>
        <time>2025-05-03T11:22:30Z</time>
      </trkpt>
      <trkpt lat="41.076515028253198" lon="-8.069929992780089">
        <ele>78.480000000000004</ele>
        <time>2025-05-03T11:22:31Z</time>
      </trkpt>
      <trkpt lat="41.076439004391432" lon="-8.070064019411802">
        <ele>78.480000000000004</ele>
        <time>2025-05-03T11:22:32Z</time>
      </trkpt>
      <trkpt lat="41.076361974701285" lon="-8.070200979709625">
        <ele>78.480000000000004</ele>
        <time>2025-05-03T11:22:33Z</time>
      </trkpt>
      <trkpt lat="41.076282011345029" lon="-8.070341041311622">
        <ele>78</ele>
        <time>2025-05-03T11:22:34Z</time>
      </trkpt>
      <trkpt lat="41.076168017461896" lon="-8.070429973304272">
        <ele>78</ele>
        <time>2025-05-03T11:22:35Z</time>
      </trkpt>
      <trkpt lat="41.076036002486944" lon="-8.070518989115953">
        <ele>78.480000000000004</ele>
        <time>2025-05-03T11:22:36Z</time>
      </trkpt>
      <trkpt lat="41.075895018875599" lon="-8.070614039897919">
        <ele>78</ele>
        <time>2025-05-03T11:22:37Z</time>
      </trkpt>
      <trkpt lat="41.075751017779112" lon="-8.070712024345994">
        <ele>78</ele>
        <time>2025-05-03T11:22:38Z</time>
      </trkpt>
      <trkpt lat="41.075228992849588" lon="-8.071078984066844">
        <ele>78</ele>
        <time>2025-05-03T11:22:42Z</time>
      </trkpt>
      <trkpt lat="41.075117010623217" lon="-8.071126006543636">
        <ele>77.519999999999996</ele>
        <time>2025-05-03T11:22:43Z</time>
      </trkpt>
      <trkpt lat="41.074990024790168" lon="-8.071105973795056">
        <ele>77.519999999999996</ele>
        <time>2025-05-03T11:22:44Z</time>
      </trkpt>
      <trkpt lat="41.074861027300358" lon="-8.071085019037128">
        <ele>77.519999999999996</ele>
        <time>2025-05-03T11:22:45Z</time>
      </trkpt>
      <trkpt lat="41.074748961254954" lon="-8.071066997945309">
        <ele>77.519999999999996</ele>
        <time>2025-05-03T11:22:46Z</time>
      </trkpt>
      <trkpt lat="41.074631027877331" lon="-8.071092981845141">
        <ele>77.519999999999996</ele>
        <time>2025-05-03T11:22:47Z</time>
      </trkpt>
      <trkpt lat="41.074555004015565" lon="-8.071109997108579">
        <ele>77.040000000000006</ele>
        <time>2025-05-03T11:22:48Z</time>
      </trkpt>
      <trkpt lat="41.074510999023914" lon="-8.071188032627106">
        <ele>77.040000000000006</ele>
        <time>2025-05-03T11:22:49Z</time>
      </trkpt>
      <trkpt lat="41.074470011517406" lon="-8.07126103900373">
        <ele>76.560000000000002</ele>
        <time>2025-05-03T11:22:50Z</time>
      </trkpt>
      <trkpt lat="41.074463976547122" lon="-8.071362962946296">
        <ele>76.560000000000002</ele>
        <time>2025-05-03T11:22:51Z</time>
      </trkpt>
      <trkpt lat="41.07445802539587" lon="-8.071480980142951">
        <ele>76.560000000000002</ele>
        <time>2025-05-03T11:22:52Z</time>
      </trkpt>
      <trkpt lat="41.074451990425587" lon="-8.071594974026084">
        <ele>77.040000000000006</ele>
        <time>2025-05-03T11:22:53Z</time>
      </trkpt>
      <trkpt lat="41.074432041496038" lon="-8.071706034243107">
        <ele>77.040000000000006</ele>
        <time>2025-05-03T11:22:54Z</time>
      </trkpt>
      <trkpt lat="41.074384013190866" lon="-8.071818016469479">
        <ele>77.519999999999996</ele>
        <time>2025-05-03T11:22:55Z</time>
      </trkpt>
      <trkpt lat="41.074302038177848" lon="-8.071859003975987">
        <ele>78</ele>
        <time>2025-05-03T11:22:56Z</time>
      </trkpt>
      <trkpt lat="41.074211010709405" lon="-8.071882976219058">
        <ele>78.480000000000004</ele>
        <time>2025-05-03T11:22:57Z</time>
      </trkpt>
      <trkpt lat="41.074110008776188" lon="-8.071882976219058">
        <ele>78.969999999999999</ele>
        <time>2025-05-03T11:22:58Z</time>
      </trkpt>
      <trkpt lat="41.074000038206577" lon="-8.071882976219058">
        <ele>78.969999999999999</ele>
        <time>2025-05-03T11:22:59Z</time>
      </trkpt>
      <trkpt lat="41.073883026838303" lon="-8.071882976219058">
        <ele>78.969999999999999</ele>
        <time>2025-05-03T11:23:00Z</time>
      </trkpt>
      <trkpt lat="41.073760986328125" lon="-8.071882976219058">
        <ele>78.969999999999999</ele>
        <time>2025-05-03T11:23:01Z</time>
      </trkpt>
      <trkpt lat="41.07364003546536" lon="-8.071890017017722">
        <ele>79.450000000000003</ele>
        <time>2025-05-03T11:23:02Z</time>
      </trkpt>
      <trkpt lat="41.073523024097085" lon="-8.071904014796019">
        <ele>79.450000000000003</ele>
        <time>2025-05-03T11:23:03Z</time>
      </trkpt>
      <trkpt lat="41.073421016335487" lon="-8.071916000917554">
        <ele>79.450000000000003</ele>
        <time>2025-05-03T11:23:04Z</time>
      </trkpt>
      <trkpt lat="41.073336023837328" lon="-8.071925975382328">
        <ele>79.930000000000007</ele>
        <time>2025-05-03T11:23:05Z</time>
      </trkpt>
      <trkpt lat="41.073262011632323" lon="-8.071935027837753">
        <ele>79.930000000000007</ele>
        <time>2025-05-03T11:23:06Z</time>
      </trkpt>
      <trkpt lat="41.073054978623986" lon="-8.071996970102191">
        <ele>80.409999999999997</ele>
        <time>2025-05-03T11:23:09Z</time>
      </trkpt>
      <trkpt lat="41.072989013046026" lon="-8.072028988972306">
        <ele>80.409999999999997</ele>
        <time>2025-05-03T11:23:10Z</time>
      </trkpt>
      <trkpt lat="41.072922963649035" lon="-8.072060002014041">
        <ele>80.409999999999997</ele>
        <time>2025-05-03T11:23:11Z</time>
      </trkpt>
      <trkpt lat="41.072854986414313" lon="-8.072092020884156">
        <ele>80.409999999999997</ele>
        <time>2025-05-03T11:23:12Z</time>
      </trkpt>
      <trkpt lat="41.07278399169445" lon="-8.07212496176362">
        <ele>80.890000000000001</ele>
        <time>2025-05-03T11:23:13Z</time>
      </trkpt>
      <trkpt lat="41.072709979489446" lon="-8.072147006168962">
        <ele>81.370000000000005</ele>
        <time>2025-05-03T11:23:14Z</time>
      </trkpt>
      <trkpt lat="41.072622975334525" lon="-8.072161003947258">
        <ele>82.329999999999998</ele>
        <time>2025-05-03T11:23:15Z</time>
      </trkpt>
      <trkpt lat="41.072537982836366" lon="-8.072135020047426">
        <ele>83.290000000000006</ele>
        <time>2025-05-03T11:23:16Z</time>
      </trkpt>
      <trkpt lat="41.072006989270449" lon="-8.071937961503863">
        <ele>88.579999999999998</ele>
        <time>2025-05-03T11:23:22Z</time>
      </trkpt>
      <trkpt lat="41.071866005659103" lon="-8.071812987327576">
        <ele>90.5</ele>
        <time>2025-05-03T11:23:24Z</time>
      </trkpt>
      <trkpt lat="41.071690991520882" lon="-8.071664040908217">
        <ele>93.390000000000001</ele>
        <time>2025-05-03T11:23:27Z</time>
      </trkpt>
      <trkpt lat="41.07162301428616" lon="-8.071635039523244">
        <ele>94.829999999999998</ele>
        <time>2025-05-03T11:23:28Z</time>
      </trkpt>
      <trkpt lat="41.071525029838085" lon="-8.071620035916567">
        <ele>95.310000000000002</ele>
        <time>2025-05-03T11:23:29Z</time>
      </trkpt>
      <trkpt lat="41.071440959349275" lon="-8.071673009544611">
        <ele>96.269999999999996</ele>
        <time>2025-05-03T11:23:30Z</time>
      </trkpt>
      <trkpt lat="41.071373987942934" lon="-8.071765964850783">
        <ele>96.75</ele>
        <time>2025-05-03T11:23:31Z</time>
      </trkpt>
      <trkpt lat="41.071362001821399" lon="-8.071869984269142">
        <ele>97.709999999999994</ele>
        <time>2025-05-03T11:23:32Z</time>
      </trkpt>
      <trkpt lat="41.071371976286173" lon="-8.071964029222727">
        <ele>98.189999999999998</ele>
        <time>2025-05-03T11:23:33Z</time>
      </trkpt>
      <trkpt lat="41.071392009034753" lon="-8.07205799035728">
        <ele>98.670000000000002</ele>
        <time>2025-05-03T11:23:34Z</time>
      </trkpt>
      <trkpt lat="41.0714500118047" lon="-8.07212202809751">
        <ele>99.629999999999995</ele>
        <time>2025-05-03T11:23:35Z</time>
      </trkpt>
      <trkpt lat="41.071532992646098" lon="-8.072163015604019">
        <ele>100.11</ele>
        <time>2025-05-03T11:23:36Z</time>
      </trkpt>
      <trkpt lat="41.071627037599683" lon="-8.072209032252431">
        <ele>100.59999999999999</ele>
        <time>2025-05-03T11:23:37Z</time>
      </trkpt>
      <trkpt lat="41.071915961802006" lon="-8.072311962023377">
        <ele>102.04000000000001</ele>
        <time>2025-05-03T11:23:40Z</time>
      </trkpt>
      <trkpt lat="41.072041019797325" lon="-8.072397960349917">
        <ele>102.52</ele>
        <time>2025-05-03T11:23:41Z</time>
      </trkpt>
      <trkpt lat="41.072155013680458" lon="-8.072478007525206">
        <ele>103</ele>
        <time>2025-05-03T11:23:42Z</time>
      </trkpt>
      <trkpt lat="41.07288901694119" lon="-8.073092987760902">
        <ele>106.36</ele>
        <time>2025-05-03T11:23:47Z</time>
      </trkpt>
      <trkpt lat="41.072995970025659" lon="-8.073135986924171">
        <ele>106.84</ele>
        <time>2025-05-03T11:23:48Z</time>
      </trkpt>
      <trkpt lat="41.073096971958876" lon="-8.073147973045707">
        <ele>107.31999999999999</ele>
        <time>2025-05-03T11:23:49Z</time>
      </trkpt>
      <trkpt lat="41.073198979720473" lon="-8.073098016902804">
        <ele>108.29000000000001</ele>
        <time>2025-05-03T11:23:50Z</time>
      </trkpt>
      <trkpt lat="41.07329998165369" lon="-8.07304697111249">
        <ele>108.77</ele>
        <time>2025-05-03T11:23:51Z</time>
      </trkpt>
      <trkpt lat="41.073407018557191" lon="-8.072999026626349">
        <ele>109.73</ele>
        <time>2025-05-03T11:23:52Z</time>
      </trkpt>
      <trkpt lat="41.073520006611943" lon="-8.072999026626349">
        <ele>110.69</ele>
        <time>2025-05-03T11:23:53Z</time>
      </trkpt>
      <trkpt lat="41.07362100854516" lon="-8.07306700386107">
        <ele>111.65000000000001</ele>
        <time>2025-05-03T11:23:54Z</time>
      </trkpt>
      <trkpt lat="41.073709018528461" lon="-8.073160964995623">
        <ele>112.61</ele>
        <time>2025-05-03T11:23:55Z</time>
      </trkpt>
      <trkpt lat="41.073790993541479" lon="-8.073299014940858">
        <ele>113.09</ele>
        <time>2025-05-03T11:23:56Z</time>
      </trkpt>
      <trkpt lat="41.073882021009922" lon="-8.073449973016977">
        <ele>114.05</ele>
        <time>2025-05-03T11:23:57Z</time>
      </trkpt>
      <trkpt lat="41.073996014893055" lon="-8.073595985770226">
        <ele>114.53</ele>
        <time>2025-05-03T11:23:58Z</time>
      </trkpt>
      <trkpt lat="41.074130041524768" lon="-8.073723977431655">
        <ele>115.01000000000001</ele>
        <time>2025-05-03T11:23:59Z</time>
      </trkpt>
      <trkpt lat="41.074259961023927" lon="-8.073850963264704">
        <ele>115.5</ele>
        <time>2025-05-03T11:24:00Z</time>
      </trkpt>
      <trkpt lat="41.074854992330074" lon="-8.074359996244311">
        <ele>119.34</ele>
        <time>2025-05-03T11:24:05Z</time>
      </trkpt>
      <trkpt lat="41.074954988434911" lon="-8.074393020942807">
        <ele>119.81999999999999</ele>
        <time>2025-05-03T11:24:06Z</time>
      </trkpt>
      <trkpt lat="41.075063031166792" lon="-8.074393020942807">
        <ele>120.3</ele>
        <time>2025-05-03T11:24:07Z</time>
      </trkpt>
      <trkpt lat="41.07516897842288" lon="-8.074393020942807">
        <ele>120.3</ele>
        <time>2025-05-03T11:24:08Z</time>
      </trkpt>
      <trkpt lat="41.075276015326381" lon="-8.074398972094059">
        <ele>120.78</ele>
        <time>2025-05-03T11:24:09Z</time>
      </trkpt>
      <trkpt lat="41.075354972854257" lon="-8.074501985684037">
        <ele>121.26000000000001</ele>
        <time>2025-05-03T11:24:10Z</time>
      </trkpt>
      <trkpt lat="41.07542403973639" lon="-8.074626959860325">
        <ele>122.70999999999999</ele>
        <time>2025-05-03T11:24:11Z</time>
      </trkpt>
      <trkpt lat="41.075521018356085" lon="-8.074800968170166">
        <ele>123.67</ele>
        <time>2025-05-03T11:24:12Z</time>
      </trkpt>
      <trkpt lat="41.075567035004497" lon="-8.07491697371006">
        <ele>124.63</ele>
        <time>2025-05-03T11:24:13Z</time>
      </trkpt>
      <trkpt lat="41.075633000582457" lon="-8.075080001726747">
        <ele>125.11</ele>
        <time>2025-05-03T11:24:14Z</time>
      </trkpt>
      <trkpt lat="41.075701983645558" lon="-8.075242023915052">
        <ele>126.06999999999999</ele>
        <time>2025-05-03T11:24:15Z</time>
      </trkpt>
      <trkpt lat="41.075815977528691" lon="-8.075375966727734">
        <ele>127.51000000000001</ele>
        <time>2025-05-03T11:24:16Z</time>
      </trkpt>
      <trkpt lat="41.075929971411824" lon="-8.075512005016208">
        <ele>128.47</ele>
        <time>2025-05-03T11:24:17Z</time>
      </trkpt>
      <trkpt lat="41.076037008315325" lon="-8.075638990849257">
        <ele>129.91999999999999</ele>
        <time>2025-05-03T11:24:18Z</time>
      </trkpt>
      <trkpt lat="41.076166005805135" lon="-8.075735969468951">
        <ele>130.88</ele>
        <time>2025-05-03T11:24:19Z</time>
      </trkpt>
      <trkpt lat="41.076291985809803" lon="-8.075832026079297">
        <ele>131.84</ele>
        <time>2025-05-03T11:24:20Z</time>
      </trkpt>
      <trkpt lat="41.076646959409118" lon="-8.076101001352072">
        <ele>134.72</ele>
        <time>2025-05-03T11:24:23Z</time>
      </trkpt>
      <trkpt lat="41.076752990484238" lon="-8.076195968315005">
        <ele>135.68000000000001</ele>
        <time>2025-05-03T11:24:24Z</time>
      </trkpt>
      <trkpt lat="41.076808981597424" lon="-8.076342986896634">
        <ele>137.13</ele>
        <time>2025-05-03T11:24:25Z</time>
      </trkpt>
      <trkpt lat="41.076997993513942" lon="-8.076830981299281">
        <ele>140.49000000000001</ele>
        <time>2025-05-03T11:24:28Z</time>
      </trkpt>
      <trkpt lat="41.077090026810765" lon="-8.076956961303949">
        <ele>141.44999999999999</ele>
        <time>2025-05-03T11:24:29Z</time>
      </trkpt>
      <trkpt lat="41.077193962410092" lon="-8.077028961852193">
        <ele>142.88999999999999</ele>
        <time>2025-05-03T11:24:30Z</time>
      </trkpt>
      <trkpt lat="41.07731600292027" lon="-8.077062992379069">
        <ele>143.84999999999999</ele>
        <time>2025-05-03T11:24:31Z</time>
      </trkpt>
      <trkpt lat="41.077453969046474" lon="-8.077101968228817">
        <ele>144.81999999999999</ele>
        <time>2025-05-03T11:24:32Z</time>
      </trkpt>
      <trkpt lat="41.077600987628102" lon="-8.077143039554358">
        <ele>145.78</ele>
        <time>2025-05-03T11:24:33Z</time>
      </trkpt>
      <trkpt lat="41.077744988724589" lon="-8.077205987647176">
        <ele>146.74000000000001</ele>
        <time>2025-05-03T11:24:34Z</time>
      </trkpt>
      <trkpt lat="41.077878009527922" lon="-8.077282011508942">
        <ele>147.69999999999999</ele>
        <time>2025-05-03T11:24:35Z</time>
      </trkpt>
      <trkpt lat="41.077980017289519" lon="-8.077359041199088">
        <ele>148.66</ele>
        <time>2025-05-03T11:24:36Z</time>
      </trkpt>
      <trkpt lat="41.078040031716228" lon="-8.077478986233473">
        <ele>149.62</ele>
        <time>2025-05-03T11:24:37Z</time>
      </trkpt>
      <trkpt lat="41.078086970373988" lon="-8.077629022300243">
        <ele>150.58000000000001</ele>
        <time>2025-05-03T11:24:38Z</time>
      </trkpt>
      <trkpt lat="41.07813399285078" lon="-8.077801018953323">
        <ele>152.03</ele>
        <time>2025-05-03T11:24:39Z</time>
      </trkpt>
      <trkpt lat="41.078183026984334" lon="-8.077977960929275">
        <ele>152.99000000000001</ele>
        <time>2025-05-03T11:24:40Z</time>
      </trkpt>
      <trkpt lat="41.078277993947268" lon="-8.078127996996045">
        <ele>153.47</ele>
        <time>2025-05-03T11:24:41Z</time>
      </trkpt>
      <trkpt lat="41.078372038900852" lon="-8.078276021406055">
        <ele>154.43000000000001</ele>
        <time>2025-05-03T11:24:42Z</time>
      </trkpt>
      <trkpt lat="41.078457031399012" lon="-8.078409964218736">
        <ele>155.87</ele>
        <time>2025-05-03T11:24:43Z</time>
      </trkpt>
      <trkpt lat="41.078573036938906" lon="-8.07848397642374">
        <ele>156.83000000000001</ele>
        <time>2025-05-03T11:24:44Z</time>
      </trkpt>
      <trkpt lat="41.07869298197329" lon="-8.078529993072152">
        <ele>157.31</ele>
        <time>2025-05-03T11:24:45Z</time>
      </trkpt>
      <trkpt lat="41.078833965584636" lon="-8.078530998900533">
        <ele>158.27000000000001</ele>
        <time>2025-05-03T11:24:46Z</time>
      </trkpt>
      <trkpt lat="41.078967992216349" lon="-8.07848397642374">
        <ele>159.24000000000001</ele>
        <time>2025-05-03T11:24:47Z</time>
      </trkpt>
      <trkpt lat="41.079092966392636" lon="-8.07843997143209">
        <ele>160.19999999999999</ele>
        <time>2025-05-03T11:24:48Z</time>
      </trkpt>
      <trkpt lat="41.079201009124517" lon="-8.078407030552626">
        <ele>160.68000000000001</ele>
        <time>2025-05-03T11:24:49Z</time>
      </trkpt>
      <trkpt lat="41.079329000785947" lon="-8.078423039987683">
        <ele>162.12</ele>
        <time>2025-05-03T11:24:50Z</time>
      </trkpt>
      <trkpt lat="41.079449029639363" lon="-8.078487999737263">
        <ele>163.08000000000001</ele>
        <time>2025-05-03T11:24:51Z</time>
      </trkpt>
      <trkpt lat="41.079580038785934" lon="-8.078578021377325">
        <ele>163.56</ele>
        <time>2025-05-03T11:24:52Z</time>
      </trkpt>
      <trkpt lat="41.079709958285093" lon="-8.078690003603697">
        <ele>164.52000000000001</ele>
        <time>2025-05-03T11:24:53Z</time>
      </trkpt>
      <trkpt lat="41.079843984916806" lon="-8.078823024407029">
        <ele>165</ele>
        <time>2025-05-03T11:24:54Z</time>
      </trkpt>
      <trkpt lat="41.0799790173769" lon="-8.078950010240078">
        <ele>165.47999999999999</ele>
        <time>2025-05-03T11:24:55Z</time>
      </trkpt>
      <trkpt lat="41.080252015963197" lon="-8.079181015491486">
        <ele>166.44999999999999</ele>
        <time>2025-05-03T11:24:57Z</time>
      </trkpt>
      <trkpt lat="41.080396017059684" lon="-8.079296015202999">
        <ele>166.93000000000001</ele>
        <time>2025-05-03T11:24:58Z</time>
      </trkpt>
      <trkpt lat="41.080531971529126" lon="-8.079402968287468">
        <ele>166.93000000000001</ele>
        <time>2025-05-03T11:24:59Z</time>
      </trkpt>
      <trkpt lat="41.080659963190556" lon="-8.079483015462756">
        <ele>167.41</ele>
        <time>2025-05-03T11:25:00Z</time>
      </trkpt>
      <trkpt lat="41.080805975943804" lon="-8.079501036554575">
        <ele>167.41</ele>
        <time>2025-05-03T11:25:01Z</time>
      </trkpt>
      <trkpt lat="41.080966992303729" lon="-8.079519979655743">
        <ele>167.88999999999999</ele>
        <time>2025-05-03T11:25:02Z</time>
      </trkpt>
      <trkpt lat="41.081780036911368" lon="-8.079670015722513">
        <ele>167.41</ele>
        <time>2025-05-03T11:25:07Z</time>
      </trkpt>
      <trkpt lat="41.081904005259275" lon="-8.079772023484111">
        <ele>167.88999999999999</ele>
        <time>2025-05-03T11:25:08Z</time>
      </trkpt>
      <trkpt lat="41.08215001411736" lon="-8.080035969614983">
        <ele>167.88999999999999</ele>
        <time>2025-05-03T11:25:10Z</time>
      </trkpt>
      <trkpt lat="41.082299966365099" lon="-8.080106964334846">
        <ele>168.37</ele>
        <time>2025-05-03T11:25:11Z</time>
      </trkpt>
      <trkpt lat="41.082461988553405" lon="-8.080182988196611">
        <ele>168.84999999999999</ele>
        <time>2025-05-03T11:25:12Z</time>
      </trkpt>
      <trkpt lat="41.082631973549724" lon="-8.080214001238346">
        <ele>168.84999999999999</ele>
        <time>2025-05-03T11:25:13Z</time>
      </trkpt>
      <trkpt lat="41.082803970202804" lon="-8.080220958217979">
        <ele>169.33000000000001</ele>
        <time>2025-05-03T11:25:14Z</time>
      </trkpt>
      <trkpt lat="41.083131032064557" lon="-8.080275021493435">
        <ele>170.28999999999999</ele>
        <time>2025-05-03T11:25:16Z</time>
      </trkpt>
      <trkpt lat="41.083282995969057" lon="-8.080321960151196">
        <ele>170.28999999999999</ele>
        <time>2025-05-03T11:25:17Z</time>
      </trkpt>
      <trkpt lat="41.083415010944009" lon="-8.080426985397935">
        <ele>170.77000000000001</ele>
        <time>2025-05-03T11:25:18Z</time>
      </trkpt>
      <trkpt lat="41.083525987342" lon="-8.080546008422971">
        <ele>171.25</ele>
        <time>2025-05-03T11:25:19Z</time>
      </trkpt>
      <trkpt lat="41.083636963739991" lon="-8.080684980377555">
        <ele>171.72999999999999</ele>
        <time>2025-05-03T11:25:20Z</time>
      </trkpt>
      <trkpt lat="41.083726985380054" lon="-8.080851025879383">
        <ele>172.21000000000001</ele>
        <time>2025-05-03T11:25:21Z</time>
      </trkpt>
      <trkpt lat="41.083874003961682" lon="-8.081156965345144">
        <ele>173.16999999999999</ele>
        <time>2025-05-03T11:25:23Z</time>
      </trkpt>
      <trkpt lat="41.083889007568359" lon="-8.081281017512083">
        <ele>174.13999999999999</ele>
        <time>2025-05-03T11:25:24Z</time>
      </trkpt>
      <trkpt lat="41.083853971213102" lon="-8.081441028043628">
        <ele>174.62</ele>
        <time>2025-05-03T11:25:25Z</time>
      </trkpt>
      <trkpt lat="41.08378398232162" lon="-8.081568013876677">
        <ele>175.09999999999999</ele>
        <time>2025-05-03T11:25:26Z</time>
      </trkpt>
      <trkpt lat="41.083694966509938" lon="-8.08170204050839">
        <ele>176.06</ele>
        <time>2025-05-03T11:25:27Z</time>
      </trkpt>
      <trkpt lat="41.083604022860527" lon="-8.081837994977832">
        <ele>176.53999999999999</ele>
        <time>2025-05-03T11:25:28Z</time>
      </trkpt>
      <trkpt lat="41.08354602009058" lon="-8.081975039094687">
        <ele>177.02000000000001</ele>
        <time>2025-05-03T11:25:29Z</time>
      </trkpt>
      <trkpt lat="41.083533028140664" lon="-8.082117028534412">
        <ele>177.5</ele>
        <time>2025-05-03T11:25:30Z</time>
      </trkpt>
      <trkpt lat="41.083549037575722" lon="-8.082279972732067">
        <ele>177.5</ele>
        <time>2025-05-03T11:25:31Z</time>
      </trkpt>
      <trkpt lat="41.083565969020128" lon="-8.082451969385147">
        <ele>177.5</ele>
        <time>2025-05-03T11:25:32Z</time>
      </trkpt>
      <trkpt lat="41.083583990111947" lon="-8.082636035978794">
        <ele>177.5</ele>
        <time>2025-05-03T11:25:33Z</time>
      </trkpt>
      <trkpt lat="41.083603017032146" lon="-8.082834016531706">
        <ele>177.97999999999999</ele>
        <time>2025-05-03T11:25:34Z</time>
      </trkpt>
      <trkpt lat="41.083625983446836" lon="-8.083191001787782">
        <ele>178.46000000000001</ele>
        <time>2025-05-03T11:25:36Z</time>
      </trkpt>
      <trkpt lat="41.083610979840159" lon="-8.083362998440862">
        <ele>178.94</ele>
        <time>2025-05-03T11:25:37Z</time>
      </trkpt>
      <trkpt lat="41.083541996777058" lon="-8.083430975675583">
        <ele>179.41999999999999</ele>
        <time>2025-05-03T11:25:38Z</time>
      </trkpt>
      <trkpt lat="41.083421967923641" lon="-8.083482021465898">
        <ele>179.90000000000001</ele>
        <time>2025-05-03T11:25:39Z</time>
      </trkpt>
      <trkpt lat="41.083330018445849" lon="-8.083414966240525">
        <ele>180.38</ele>
        <time>2025-05-03T11:25:40Z</time>
      </trkpt>
      <trkpt lat="41.08329095877707" lon="-8.083324022591114">
        <ele>180.87</ele>
        <time>2025-05-03T11:25:41Z</time>
      </trkpt>
      <trkpt lat="41.083275033161044" lon="-8.083184966817498">
        <ele>181.34999999999999</ele>
        <time>2025-05-03T11:25:42Z</time>
      </trkpt>
      <trkpt lat="41.083249971270561" lon="-8.083026967942715">
        <ele>181.83000000000001</ele>
        <time>2025-05-03T11:25:43Z</time>
      </trkpt>
      <trkpt lat="41.083209989592433" lon="-8.082848014310002">
        <ele>182.31</ele>
        <time>2025-05-03T11:25:44Z</time>
      </trkpt>
      <trkpt lat="41.083158021792769" lon="-8.082660008221865">
        <ele>182.78999999999999</ele>
        <time>2025-05-03T11:25:45Z</time>
      </trkpt>
      <trkpt lat="41.083085015416145" lon="-8.08247895911336">
        <ele>183.27000000000001</ele>
        <time>2025-05-03T11:25:46Z</time>
      </trkpt>
      <trkpt lat="41.083015026524663" lon="-8.082303022965789">
        <ele>183.75</ele>
        <time>2025-05-03T11:25:47Z</time>
      </trkpt>
      <trkpt lat="41.082961969077587" lon="-8.082137983292341">
        <ele>184.71000000000001</ele>
        <time>2025-05-03T11:25:48Z</time>
      </trkpt>
      <trkpt lat="41.082945959642529" lon="-8.081976966932416">
        <ele>185.66999999999999</ele>
        <time>2025-05-03T11:25:49Z</time>
      </trkpt>
      <trkpt lat="41.082990970462561" lon="-8.081817962229252">
        <ele>186.63</ele>
        <time>2025-05-03T11:25:50Z</time>
      </trkpt>
      <trkpt lat="41.083049979060888" lon="-8.081663986667991">
        <ele>187.59</ele>
        <time>2025-05-03T11:25:51Z</time>
      </trkpt>
      <trkpt lat="41.083145029842854" lon="-8.081538006663322">
        <ele>188.56</ele>
        <time>2025-05-03T11:25:52Z</time>
      </trkpt>
      <trkpt lat="41.083235973492265" lon="-8.081415966153145">
        <ele>189.03999999999999</ele>
        <time>2025-05-03T11:25:53Z</time>
      </trkpt>
      <trkpt lat="41.083289030939341" lon="-8.081345977261663">
        <ele>190</ele>
        <time>2025-05-03T11:25:54Z</time>
      </trkpt>
      <trkpt lat="41.083309985697269" lon="-8.081216979771853">
        <ele>190.47999999999999</ele>
        <time>2025-05-03T11:25:55Z</time>
      </trkpt>
      <trkpt lat="41.083276038989425" lon="-8.081130981445313">
        <ele>191.44</ele>
        <time>2025-05-03T11:25:56Z</time>
      </trkpt>
      <trkpt lat="41.083229016512632" lon="-8.08108102530241">
        <ele>191.91999999999999</ele>
        <time>2025-05-03T11:25:57Z</time>
      </trkpt>
      <trkpt lat="41.083132959902287" lon="-8.081051018089056">
        <ele>192.88</ele>
        <time>2025-05-03T11:25:58Z</time>
      </trkpt>
      <trkpt lat="41.083003962412477" lon="-8.081070967018604">
        <ele>194.31999999999999</ele>
        <time>2025-05-03T11:25:59Z</time>
      </trkpt>
      <trkpt lat="41.082902038469911" lon="-8.081150008365512">
        <ele>195.28</ele>
        <time>2025-05-03T11:26:00Z</time>
      </trkpt>
      <trkpt lat="41.082807993516326" lon="-8.08125201612711">
        <ele>196.25</ele>
        <time>2025-05-03T11:26:01Z</time>
      </trkpt>
      <trkpt lat="41.08277496881783" lon="-8.081384031102061">
        <ele>197.21000000000001</ele>
        <time>2025-05-03T11:26:02Z</time>
      </trkpt>
      <trkpt lat="41.082738004624844" lon="-8.08153297752142">
        <ele>198.16999999999999</ele>
        <time>2025-05-03T11:26:03Z</time>
      </trkpt>
      <trkpt lat="41.082696011289954" lon="-8.081700028851628">
        <ele>199.61000000000001</ele>
        <time>2025-05-03T11:26:04Z</time>
      </trkpt>
      <trkpt lat="41.08264597132802" lon="-8.081879988312721">
        <ele>201.05000000000001</ele>
        <time>2025-05-03T11:26:05Z</time>
      </trkpt>
      <trkpt lat="41.082585034891963" lon="-8.082062965258956">
        <ele>202.97999999999999</ele>
        <time>2025-05-03T11:26:06Z</time>
      </trkpt>
      <trkpt lat="41.082520997151732" lon="-8.082252983003855">
        <ele>204.41999999999999</ele>
        <time>2025-05-03T11:26:07Z</time>
      </trkpt>
      <trkpt lat="41.081739971414208" lon="-8.08391603641212">
        <ele>219.80000000000001</ele>
        <time>2025-05-03T11:26:16Z</time>
      </trkpt>
      <trkpt lat="41.081632012501359" lon="-8.084075963124633">
        <ele>221.24000000000001</ele>
        <time>2025-05-03T11:26:17Z</time>
      </trkpt>
      <trkpt lat="41.081515001133084" lon="-8.084191968664527">
        <ele>222.68000000000001</ele>
        <time>2025-05-03T11:26:18Z</time>
      </trkpt>
      <trkpt lat="41.081400001421571" lon="-8.084306968376041">
        <ele>224.12</ele>
        <time>2025-05-03T11:26:19Z</time>
      </trkpt>
      <trkpt lat="41.081291036680341" lon="-8.084349967539311">
        <ele>225.09</ele>
        <time>2025-05-03T11:26:20Z</time>
      </trkpt>
      <trkpt lat="41.081193974241614" lon="-8.08438902720809">
        <ele>226.53</ele>
        <time>2025-05-03T11:26:21Z</time>
      </trkpt>
      <trkpt lat="41.081104958429933" lon="-8.084424985572696">
        <ele>227.00999999999999</ele>
        <time>2025-05-03T11:26:22Z</time>
      </trkpt>
      <trkpt lat="41.081026000902057" lon="-8.08445599861443">
        <ele>228.44999999999999</ele>
        <time>2025-05-03T11:26:23Z</time>
      </trkpt>
      <trkpt lat="41.080971015617251" lon="-8.08447795920074">
        <ele>229.41</ele>
        <time>2025-05-03T11:26:24Z</time>
      </trkpt>
      <trkpt lat="41.080963974818587" lon="-8.084554988890886">
        <ele>230.37</ele>
        <time>2025-05-03T11:26:25Z</time>
      </trkpt>
      <trkpt lat="41.080949977040291" lon="-8.084693038836122">
        <ele>230.84999999999999</ele>
        <time>2025-05-03T11:26:26Z</time>
      </trkpt>
      <trkpt lat="41.0809909645468" lon="-8.084747018292546">
        <ele>231.81</ele>
        <time>2025-05-03T11:26:27Z</time>
      </trkpt>
      <trkpt lat="41.081058019772172" lon="-8.084837039932609">
        <ele>232.78</ele>
        <time>2025-05-03T11:26:28Z</time>
      </trkpt>
      <trkpt lat="41.081135971471667" lon="-8.084941981360316">
        <ele>233.74000000000001</ele>
        <time>2025-05-03T11:26:29Z</time>
      </trkpt>
      <trkpt lat="41.081214006990194" lon="-8.085061004385352">
        <ele>234.69999999999999</ele>
        <time>2025-05-03T11:26:30Z</time>
      </trkpt>
      <trkpt lat="41.08129296451807" lon="-8.085182961076498">
        <ele>236.13999999999999</ele>
        <time>2025-05-03T11:26:31Z</time>
      </trkpt>
      <trkpt lat="41.081350967288017" lon="-8.085313970223069">
        <ele>237.09999999999999</ele>
        <time>2025-05-03T11:26:32Z</time>
      </trkpt>
      <trkpt lat="41.081387009471655" lon="-8.085470963269472">
        <ele>238.06</ele>
        <time>2025-05-03T11:26:33Z</time>
      </trkpt>
      <trkpt lat="41.081395978108048" lon="-8.085629967972636">
        <ele>239.02000000000001</ele>
        <time>2025-05-03T11:26:34Z</time>
      </trkpt>
      <trkpt lat="41.081390026956797" lon="-8.085800958797336">
        <ele>239.99000000000001</ele>
        <time>2025-05-03T11:26:35Z</time>
      </trkpt>
      <trkpt lat="41.081381980329752" lon="-8.085987037047744">
        <ele>240.94999999999999</ele>
        <time>2025-05-03T11:26:36Z</time>
      </trkpt>
      <trkpt lat="41.081347027793527" lon="-8.086174037307501">
        <ele>241.43000000000001</ele>
        <time>2025-05-03T11:26:37Z</time>
      </trkpt>
      <trkpt lat="41.081293970346451" lon="-8.086349973455071">
        <ele>241.91</ele>
        <time>2025-05-03T11:26:38Z</time>
      </trkpt>
      <trkpt lat="41.081153992563486" lon="-8.086836962029338">
        <ele>244.31</ele>
        <time>2025-05-03T11:26:41Z</time>
      </trkpt>
      <trkpt lat="41.081121973693371" lon="-8.086966965347529">
        <ele>245.27000000000001</ele>
        <time>2025-05-03T11:26:42Z</time>
      </trkpt>
      <trkpt lat="41.081154998391867" lon="-8.087085988372564">
        <ele>246.22999999999999</ele>
        <time>2025-05-03T11:26:43Z</time>
      </trkpt>
      <trkpt lat="41.081222975626588" lon="-8.087176010012627">
        <ele>247.68000000000001</ele>
        <time>2025-05-03T11:26:44Z</time>
      </trkpt>
      <trkpt lat="41.081309979781508" lon="-8.087250022217631">
        <ele>248.63999999999999</ele>
        <time>2025-05-03T11:26:45Z</time>
      </trkpt>
      <trkpt lat="41.08141802251339" lon="-8.08727097697556">
        <ele>249.59999999999999</ele>
        <time>2025-05-03T11:26:46Z</time>
      </trkpt>
      <trkpt lat="41.081536961719394" lon="-8.087295033037663">
        <ele>250.08000000000001</ele>
        <time>2025-05-03T11:26:47Z</time>
      </trkpt>
      <trkpt lat="41.081894030794501" lon="-8.087417995557189">
        <ele>252.47999999999999</ele>
        <time>2025-05-03T11:26:50Z</time>
      </trkpt>
      <trkpt lat="41.081991009414196" lon="-8.087514974176884">
        <ele>253.93000000000001</ele>
        <time>2025-05-03T11:26:51Z</time>
      </trkpt>
      <trkpt lat="41.082076001912355" lon="-8.087660986930132">
        <ele>254.88999999999999</ele>
        <time>2025-05-03T11:26:52Z</time>
      </trkpt>
      <trkpt lat="41.082148002460599" lon="-8.087815968319774">
        <ele>255.37</ele>
        <time>2025-05-03T11:26:53Z</time>
      </trkpt>
      <trkpt lat="41.082222014665604" lon="-8.087975978851318">
        <ele>256.81</ele>
        <time>2025-05-03T11:26:54Z</time>
      </trkpt>
      <trkpt lat="41.082637002691627" lon="-8.089032014831901">
        <ele>264.5</ele>
        <time>2025-05-03T11:27:01Z</time>
      </trkpt>
      <trkpt lat="41.082637002691627" lon="-8.089166041463614">
        <ele>265.45999999999998</ele>
        <time>2025-05-03T11:27:02Z</time>
      </trkpt>
      <trkpt lat="41.082588974386454" lon="-8.089290009811521">
        <ele>266.89999999999998</ele>
        <time>2025-05-03T11:27:03Z</time>
      </trkpt>
      <trkpt lat="41.082526026293635" lon="-8.089401992037892">
        <ele>268.35000000000002</ele>
        <time>2025-05-03T11:27:04Z</time>
      </trkpt>
      <trkpt lat="41.08243097551167" lon="-8.089477010071278">
        <ele>269.79000000000002</ele>
        <time>2025-05-03T11:27:05Z</time>
      </trkpt>
      <trkpt lat="41.082323016598821" lon="-8.089478015899658">
        <ele>271.23000000000002</ele>
        <time>2025-05-03T11:27:06Z</time>
      </trkpt>
      <trkpt lat="41.08221597969532" lon="-8.089478015899658">
        <ele>272.67000000000002</ele>
        <time>2025-05-03T11:27:07Z</time>
      </trkpt>
      <trkpt lat="41.082123024389148" lon="-8.089450020343065">
        <ele>274.11000000000001</ele>
        <time>2025-05-03T11:27:08Z</time>
      </trkpt>
      <trkpt lat="41.082036020234227" lon="-8.089358992874622">
        <ele>275.56</ele>
        <time>2025-05-03T11:27:09Z</time>
      </trkpt>
      <trkpt lat="41.081944992765784" lon="-8.089254973456264">
        <ele>277</ele>
        <time>2025-05-03T11:27:10Z</time>
      </trkpt>
      <trkpt lat="41.08184801414609" lon="-8.089147014543414">
        <ele>278.44</ele>
        <time>2025-05-03T11:27:11Z</time>
      </trkpt>
      <trkpt lat="41.081748018041253" lon="-8.089036960154772">
        <ele>279.88</ele>
        <time>2025-05-03T11:27:12Z</time>
      </trkpt>
      <trkpt lat="41.081643998622894" lon="-8.088922966271639">
        <ele>281.80000000000001</ele>
        <time>2025-05-03T11:27:13Z</time>
      </trkpt>
      <trkpt lat="41.081535033881664" lon="-8.088804027065635">
        <ele>283.25</ele>
        <time>2025-05-03T11:27:14Z</time>
      </trkpt>
      <trkpt lat="41.08129003085196" lon="-8.088589031249285">
        <ele>286.13</ele>
        <time>2025-05-03T11:27:16Z</time>
      </trkpt>
      <trkpt lat="41.081159021705389" lon="-8.088484006002545">
        <ele>287.56999999999999</ele>
        <time>2025-05-03T11:27:17Z</time>
      </trkpt>
      <trkpt lat="41.08008898794651" lon="-8.087668027728796">
        <ele>296.22000000000003</ele>
        <time>2025-05-03T11:27:25Z</time>
      </trkpt>
      <trkpt lat="41.079955967143178" lon="-8.087585968896747">
        <ele>297.18000000000001</ele>
        <time>2025-05-03T11:27:26Z</time>
      </trkpt>
      <trkpt lat="41.079809032380581" lon="-8.087566019967198">
        <ele>298.63</ele>
        <time>2025-05-03T11:27:27Z</time>
      </trkpt>
      <trkpt lat="41.079368982464075" lon="-8.08750499971211">
        <ele>301.99000000000001</ele>
        <time>2025-05-03T11:27:30Z</time>
      </trkpt>
      <trkpt lat="41.079238979145885" lon="-8.087573982775211">
        <ele>302.94999999999999</ele>
        <time>2025-05-03T11:27:31Z</time>
      </trkpt>
      <trkpt lat="41.079124985262752" lon="-8.087639026343823">
        <ele>304.38999999999999</ele>
        <time>2025-05-03T11:27:32Z</time>
      </trkpt>
      <trkpt lat="41.079006968066096" lon="-8.087734999135137">
        <ele>305.83999999999997</ele>
        <time>2025-05-03T11:27:33Z</time>
      </trkpt>
      <trkpt lat="41.078891968354583" lon="-8.087858967483044">
        <ele>307.27999999999997</ele>
        <time>2025-05-03T11:27:34Z</time>
      </trkpt>
      <trkpt lat="41.078574964776635" lon="-8.088201032951474">
        <ele>311.12</ele>
        <time>2025-05-03T11:27:37Z</time>
      </trkpt>
      <trkpt lat="41.078515034168959" lon="-8.088307986035943">
        <ele>312.56999999999999</ele>
        <time>2025-05-03T11:27:38Z</time>
      </trkpt>
      <trkpt lat="41.078489972278476" lon="-8.088447041809559">
        <ele>313.52999999999997</ele>
        <time>2025-05-03T11:27:39Z</time>
      </trkpt>
      <trkpt lat="41.078312024474144" lon="-8.089435016736388">
        <ele>319.77999999999997</ele>
        <time>2025-05-03T11:27:45Z</time>
      </trkpt>
      <trkpt lat="41.078288974240422" lon="-8.089564014226198">
        <ele>321.22000000000003</ele>
        <time>2025-05-03T11:27:46Z</time>
      </trkpt>
      <trkpt lat="41.078200964257121" lon="-8.089669961482287">
        <ele>321.69999999999999</ele>
        <time>2025-05-03T11:27:47Z</time>
      </trkpt>
      <trkpt lat="41.078109014779329" lon="-8.089780015870929">
        <ele>322.66000000000003</ele>
        <time>2025-05-03T11:27:48Z</time>
      </trkpt>
      <trkpt lat="41.078011030331254" lon="-8.089898033067584">
        <ele>323.62</ele>
        <time>2025-05-03T11:27:49Z</time>
      </trkpt>
      <trkpt lat="41.077663013711572" lon="-8.090201038867235">
        <ele>325.54000000000002</ele>
        <time>2025-05-03T11:27:52Z</time>
      </trkpt>
      <trkpt lat="41.077542984858155" lon="-8.090301034972072">
        <ele>326.01999999999998</ele>
        <time>2025-05-03T11:27:53Z</time>
      </trkpt>
      <trkpt lat="41.077418010681868" lon="-8.090375969186425">
        <ele>326.5</ele>
        <time>2025-05-03T11:27:54Z</time>
      </trkpt>
      <trkpt lat="41.077282978221774" lon="-8.090420980006456">
        <ele>327.47000000000003</ele>
        <time>2025-05-03T11:27:55Z</time>
      </trkpt>
      <trkpt lat="41.077147023752332" lon="-8.090414023026824">
        <ele>328.43000000000001</ele>
        <time>2025-05-03T11:27:56Z</time>
      </trkpt>
      <trkpt lat="41.077006040140986" lon="-8.090403964743018">
        <ele>329.38999999999999</ele>
        <time>2025-05-03T11:27:57Z</time>
      </trkpt>
      <trkpt lat="41.076871007680893" lon="-8.090397007763386">
        <ele>330.82999999999998</ele>
        <time>2025-05-03T11:27:58Z</time>
      </trkpt>
      <trkpt lat="41.076520979404449" lon="-8.090383009985089">
        <ele>334.68000000000001</ele>
        <time>2025-05-03T11:28:01Z</time>
      </trkpt>
      <trkpt lat="41.0764130204916" lon="-8.090416034683585">
        <ele>335.16000000000003</ele>
        <time>2025-05-03T11:28:02Z</time>
      </trkpt>
      <trkpt lat="41.076324004679918" lon="-8.090518964454532">
        <ele>336.12</ele>
        <time>2025-05-03T11:28:03Z</time>
      </trkpt>
      <trkpt lat="41.076245969161391" lon="-8.090653996914625">
        <ele>337.56</ele>
        <time>2025-05-03T11:28:04Z</time>
      </trkpt>
      <trkpt lat="41.076161982491612" lon="-8.090806966647506">
        <ele>338.51999999999998</ele>
        <time>2025-05-03T11:28:05Z</time>
      </trkpt>
      <trkpt lat="41.075991997495294" lon="-8.09111500158906">
        <ele>340.92000000000002</ele>
        <time>2025-05-03T11:28:07Z</time>
      </trkpt>
      <trkpt lat="41.075892001390457" lon="-8.091222960501909">
        <ele>341.88999999999999</ele>
        <time>2025-05-03T11:28:08Z</time>
      </trkpt>
      <trkpt lat="41.075786976143718" lon="-8.091318011283875">
        <ele>342.37</ele>
        <time>2025-05-03T11:28:09Z</time>
      </trkpt>
      <trkpt lat="41.075135031715035" lon="-8.091731993481517">
        <ele>347.17000000000002</ele>
        <time>2025-05-03T11:28:14Z</time>
      </trkpt>
      <trkpt lat="41.074776034802198" lon="-8.091960987076163">
        <ele>351.01999999999998</ele>
        <time>2025-05-03T11:28:18Z</time>
      </trkpt>
      <trkpt lat="41.074731023982167" lon="-8.092005997896195">
        <ele>352.45999999999998</ele>
        <time>2025-05-03T11:28:19Z</time>
      </trkpt>
      <trkpt lat="41.074704034253955" lon="-8.092032987624407">
        <ele>353.42000000000002</ele>
        <time>2025-05-03T11:28:20Z</time>
      </trkpt>
      <trkpt lat="41.074699005112052" lon="-8.092212025076151">
        <ele>358.23000000000002</ele>
        <time>2025-05-03T11:28:28Z</time>
      </trkpt>
      <trkpt lat="41.074705962091684" lon="-8.092202972620726">
        <ele>358.70999999999998</ele>
        <time>2025-05-03T11:28:29Z</time>
      </trkpt>
      <trkpt lat="41.074706967920065" lon="-8.092387039214373">
        <ele>358.70999999999998</ele>
        <time>2025-05-03T11:28:30Z</time>
      </trkpt>
      <trkpt lat="41.07475901953876" lon="-8.092465996742249">
        <ele>358.70999999999998</ele>
        <time>2025-05-03T11:28:31Z</time>
      </trkpt>
      <trkpt lat="41.074797995388508" lon="-8.092572027817369">
        <ele>359.19</ele>
        <time>2025-05-03T11:28:32Z</time>
      </trkpt>
      <trkpt lat="41.074834037572145" lon="-8.092686021700501">
        <ele>359.19</ele>
        <time>2025-05-03T11:28:33Z</time>
      </trkpt>
      <trkpt lat="41.074877036735415" lon="-8.092825999483466">
        <ele>359.19</ele>
        <time>2025-05-03T11:28:34Z</time>
      </trkpt>
      <trkpt lat="41.074892962351441" lon="-8.092924989759922">
        <ele>359.67000000000002</ele>
        <time>2025-05-03T11:28:35Z</time>
      </trkpt>
      <trkpt lat="41.074914000928402" lon="-8.093054993078113">
        <ele>360.63</ele>
        <time>2025-05-03T11:28:36Z</time>
      </trkpt>
      <trkpt lat="41.074955994263291" lon="-8.093313993886113">
        <ele>362.55000000000001</ele>
        <time>2025-05-03T11:28:38Z</time>
      </trkpt>
      <trkpt lat="41.074977032840252" lon="-8.093446008861065">
        <ele>363.51999999999998</ele>
        <time>2025-05-03T11:28:39Z</time>
      </trkpt>
      <trkpt lat="41.075022965669632" lon="-8.093578023836017">
        <ele>364.48000000000002</ele>
        <time>2025-05-03T11:28:40Z</time>
      </trkpt>
      <trkpt lat="41.075088009238243" lon="-8.093704003840685">
        <ele>364.95999999999998</ele>
        <time>2025-05-03T11:28:41Z</time>
      </trkpt>
      <trkpt lat="41.075176019221544" lon="-8.093805005773902">
        <ele>365.44</ele>
        <time>2025-05-03T11:28:42Z</time>
      </trkpt>
      <trkpt lat="41.075277021154761" lon="-8.093878012150526">
        <ele>365.92000000000002</ele>
        <time>2025-05-03T11:28:43Z</time>
      </trkpt>
      <trkpt lat="41.075386991724372" lon="-8.093922017142177">
        <ele>366.39999999999998</ele>
        <time>2025-05-03T11:28:44Z</time>
      </trkpt>
      <trkpt lat="41.075495034456253" lon="-8.093965016305447">
        <ele>366.88</ele>
        <time>2025-05-03T11:28:45Z</time>
      </trkpt>
      <trkpt lat="41.075756968930364" lon="-8.094070041552186">
        <ele>367.83999999999997</ele>
        <time>2025-05-03T11:28:48Z</time>
      </trkpt>
      <trkpt lat="41.075822012498975" lon="-8.094162996858358">
        <ele>367.83999999999997</ele>
        <time>2025-05-03T11:28:49Z</time>
      </trkpt>
      <trkpt lat="41.0758759919554" lon="-8.094240026548505">
        <ele>368.31999999999999</ele>
        <time>2025-05-03T11:28:50Z</time>
      </trkpt>
      <trkpt lat="41.075907004997134" lon="-8.094332981854677">
        <ele>368.80000000000001</ele>
        <time>2025-05-03T11:28:51Z</time>
      </trkpt>
      <trkpt lat="41.075907004997134" lon="-8.094439012929797">
        <ele>368.80000000000001</ele>
        <time>2025-05-03T11:28:52Z</time>
      </trkpt>
      <trkpt lat="41.075885966420174" lon="-8.094543032348156">
        <ele>369.27999999999997</ele>
        <time>2025-05-03T11:28:53Z</time>
      </trkpt>
      <trkpt lat="41.075841961428523" lon="-8.094629030674696">
        <ele>369.75999999999999</ele>
        <time>2025-05-03T11:28:54Z</time>
      </trkpt>
      <trkpt lat="41.075821006670594" lon="-8.094671024009585">
        <ele>370.73000000000002</ele>
        <time>2025-05-03T11:28:55Z</time>
      </trkpt>
      <trkpt lat="41.075701983645558" lon="-8.094715029001236">
        <ele>372.17000000000002</ele>
        <time>2025-05-03T11:28:56Z</time>
      </trkpt>
      <trkpt lat="41.07561799697578" lon="-8.09474696405232">
        <ele>373.13</ele>
        <time>2025-05-03T11:28:57Z</time>
      </trkpt>
      <trkpt lat="41.075530992820859" lon="-8.094779988750815">
        <ele>374.08999999999997</ele>
        <time>2025-05-03T11:28:58Z</time>
      </trkpt>
      <trkpt lat="41.0754460003227" lon="-8.094812007620931">
        <ele>374.56999999999999</ele>
        <time>2025-05-03T11:28:59Z</time>
      </trkpt>
      <trkpt lat="41.075366958975792" lon="-8.094841009005904">
        <ele>375.52999999999997</ele>
        <time>2025-05-03T11:29:00Z</time>
      </trkpt>
      <trkpt lat="41.07523201033473" lon="-8.094891970977187">
        <ele>377.44999999999999</ele>
        <time>2025-05-03T11:29:02Z</time>
      </trkpt>
      <trkpt lat="41.075110975652933" lon="-8.094967994838953">
        <ele>378.89999999999998</ele>
        <time>2025-05-03T11:29:04Z</time>
      </trkpt>
      <trkpt lat="41.075077028945088" lon="-8.095023985952139">
        <ele>379.38</ele>
        <time>2025-05-03T11:29:05Z</time>
      </trkpt>
      <trkpt lat="41.075069988146424" lon="-8.095113001763821">
        <ele>379.86000000000001</ele>
        <time>2025-05-03T11:29:06Z</time>
      </trkpt>
      <trkpt lat="41.075069988146424" lon="-8.095195982605219">
        <ele>380.81999999999999</ele>
        <time>2025-05-03T11:29:07Z</time>
      </trkpt>
      <trkpt lat="41.075069988146424" lon="-8.095292961224914">
        <ele>381.77999999999997</ele>
        <time>2025-05-03T11:29:08Z</time>
      </trkpt>
      <trkpt lat="41.075096977874637" lon="-8.095366973429918">
        <ele>382.25999999999999</ele>
        <time>2025-05-03T11:29:09Z</time>
      </trkpt>
      <trkpt lat="41.075183982029557" lon="-8.095609964802861">
        <ele>382.74000000000001</ele>
        <time>2025-05-03T11:29:12Z</time>
      </trkpt>
      <trkpt lat="41.075239973142743" lon="-8.095764024183154">
        <ele>382.25999999999999</ele>
        <time>2025-05-03T11:29:14Z</time>
      </trkpt>
      <trkpt lat="41.075267968699336" lon="-8.095833007246256">
        <ele>381.77999999999997</ele>
        <time>2025-05-03T11:29:15Z</time>
      </trkpt>
      <trkpt lat="41.075321026146412" lon="-8.095879023894668">
        <ele>381.30000000000001</ele>
        <time>2025-05-03T11:29:16Z</time>
      </trkpt>
      <trkpt lat="41.075378023087978" lon="-8.095927974209189">
        <ele>380.81999999999999</ele>
        <time>2025-05-03T11:29:17Z</time>
      </trkpt>
      <trkpt lat="41.075439965352416" lon="-8.095968961715698">
        <ele>380.81999999999999</ele>
        <time>2025-05-03T11:29:18Z</time>
      </trkpt>
      <trkpt lat="41.075631994754076" lon="-8.096045991405845">
        <ele>379.86000000000001</ele>
        <time>2025-05-03T11:29:21Z</time>
      </trkpt>
      <trkpt lat="41.075698966160417" lon="-8.096069963648915">
        <ele>379.86000000000001</ele>
        <time>2025-05-03T11:29:22Z</time>
      </trkpt>
      <trkpt lat="41.075845984742045" lon="-8.096123021095991">
        <ele>378.89999999999998</ele>
        <time>2025-05-03T11:29:24Z</time>
      </trkpt>
      <trkpt lat="41.075913961976767" lon="-8.096156967803836">
        <ele>378.42000000000002</ele>
        <time>2025-05-03T11:29:25Z</time>
      </trkpt>
      <trkpt lat="41.076441016048193" lon="-8.096445975825191">
        <ele>374.56999999999999</ele>
        <time>2025-05-03T11:29:36Z</time>
      </trkpt>
      <trkpt lat="41.076727006584406" lon="-8.096683016046882">
        <ele>372.17000000000002</ele>
        <time>2025-05-03T11:29:47Z</time>
      </trkpt>
      <trkpt lat="41.076789032667875" lon="-8.096753004938364">
        <ele>371.20999999999998</ele>
        <time>2025-05-03T11:29:51Z</time>
      </trkpt>
      <trkpt lat="41.076823985204101" lon="-8.096792986616492">
        <ele>371.20999999999998</ele>
        <time>2025-05-03T11:29:55Z</time>
      </trkpt>
      <trkpt lat="41.076792972162366" lon="-8.096816958859563">
        <ele>369.27999999999997</ele>
        <time>2025-05-03T11:30:04Z</time>
      </trkpt>
      <trkpt lat="41.076781991869211" lon="-8.096817964687944">
        <ele>369.75999999999999</ele>
        <time>2025-05-03T11:30:21Z</time>
      </trkpt>
      <trkpt lat="41.07677998021245" lon="-8.096825005486608">
        <ele>369.27999999999997</ele>
        <time>2025-05-03T11:30:35Z</time>
      </trkpt>
      <trkpt lat="41.076784003525972" lon="-8.096721991896629">
        <ele>382.74000000000001</ele>
        <time>2025-05-03T11:36:58Z</time>
      </trkpt>
      <trkpt lat="41.076799007132649" lon="-8.096751999109983">
        <ele>379.86000000000001</ele>
        <time>2025-05-03T11:37:22Z</time>
      </trkpt>
      <trkpt lat="41.076799007132649" lon="-8.096747975796461">
        <ele>379.86000000000001</ele>
        <time>2025-05-03T11:37:23Z</time>
      </trkpt>
      <trkpt lat="41.076805964112282" lon="-8.096772031858563">
        <ele>377.94</ele>
        <time>2025-05-03T11:37:25Z</time>
      </trkpt>
      <trkpt lat="41.076839994639158" lon="-8.096811007708311">
        <ele>375.52999999999997</ele>
        <time>2025-05-03T11:37:26Z</time>
      </trkpt>
      <trkpt lat="41.076924987137318" lon="-8.096906980499625">
        <ele>370.73000000000002</ele>
        <time>2025-05-03T11:37:29Z</time>
      </trkpt>
      <trkpt lat="41.077290019020438" lon="-8.097340995445848">
        <ele>359.19</ele>
        <time>2025-05-03T11:37:42Z</time>
      </trkpt>
      <trkpt lat="41.077822018414736" lon="-8.09777501039207">
        <ele>353.42000000000002</ele>
        <time>2025-05-03T11:37:57Z</time>
      </trkpt>
      <trkpt lat="41.077886978164315" lon="-8.097831001505256">
        <ele>352.94</ele>
        <time>2025-05-03T11:37:58Z</time>
      </trkpt>
      <trkpt lat="41.077955039218068" lon="-8.097898978739977">
        <ele>352.94</ele>
        <time>2025-05-03T11:37:59Z</time>
      </trkpt>
      <trkpt lat="41.078027039766312" lon="-8.09796997345984">
        <ele>352.94</ele>
        <time>2025-05-03T11:38:00Z</time>
      </trkpt>
      <trkpt lat="41.078058974817395" lon="-8.098106011748314">
        <ele>352.94</ele>
        <time>2025-05-03T11:38:01Z</time>
      </trkpt>
      <trkpt lat="41.078085964545608" lon="-8.09822897426784">
        <ele>352.94</ele>
        <time>2025-05-03T11:38:02Z</time>
      </trkpt>
      <trkpt lat="41.078084036707878" lon="-8.098353026434779">
        <ele>352.45999999999998</ele>
        <time>2025-05-03T11:38:03Z</time>
      </trkpt>
      <trkpt lat="41.078064003959298" lon="-8.098487975075841">
        <ele>351.98000000000002</ele>
        <time>2025-05-03T11:38:04Z</time>
      </trkpt>
      <trkpt lat="41.078043971210718" lon="-8.098624013364315">
        <ele>351.98000000000002</ele>
        <time>2025-05-03T11:38:05Z</time>
      </trkpt>
      <trkpt lat="41.078023016452789" lon="-8.09876399114728">
        <ele>351.5</ele>
        <time>2025-05-03T11:38:06Z</time>
      </trkpt>
      <trkpt lat="41.077983034774661" lon="-8.099031960591674">
        <ele>351.5</ele>
        <time>2025-05-03T11:38:08Z</time>
      </trkpt>
      <trkpt lat="41.077972976490855" lon="-8.099155006930232">
        <ele>351.5</ele>
        <time>2025-05-03T11:38:09Z</time>
      </trkpt>
      <trkpt lat="41.078007007017732" lon="-8.099267994984984">
        <ele>351.5</ele>
        <time>2025-05-03T11:38:10Z</time>
      </trkpt>
      <trkpt lat="41.078052017837763" lon="-8.099385006353259">
        <ele>351.5</ele>
        <time>2025-05-03T11:38:11Z</time>
      </trkpt>
      <trkpt lat="41.078114965930581" lon="-8.099501011893153">
        <ele>351.98000000000002</ele>
        <time>2025-05-03T11:38:12Z</time>
      </trkpt>
      <trkpt lat="41.078410008922219" lon="-8.100084979087114">
        <ele>351.01999999999998</ele>
        <time>2025-05-03T11:38:17Z</time>
      </trkpt>
      <trkpt lat="41.07843498699367" lon="-8.100215988233686">
        <ele>350.06</ele>
        <time>2025-05-03T11:38:18Z</time>
      </trkpt>
      <trkpt lat="41.078490978106856" lon="-8.10050399042666">
        <ele>349.10000000000002</ele>
        <time>2025-05-03T11:38:20Z</time>
      </trkpt>
      <trkpt lat="41.07851997949183" lon="-8.100652014836669">
        <ele>348.62</ele>
        <time>2025-05-03T11:38:21Z</time>
      </trkpt>
      <trkpt lat="41.078599020838737" lon="-8.100765002891421">
        <ele>348.13</ele>
        <time>2025-05-03T11:38:22Z</time>
      </trkpt>
      <trkpt lat="41.078686024993658" lon="-8.100867010653019">
        <ele>347.64999999999998</ele>
        <time>2025-05-03T11:38:23Z</time>
      </trkpt>
      <trkpt lat="41.078783003613353" lon="-8.100978992879391">
        <ele>347.17000000000002</ele>
        <time>2025-05-03T11:38:24Z</time>
      </trkpt>
      <trkpt lat="41.078861961141229" lon="-8.101043030619621">
        <ele>346.20999999999998</ele>
        <time>2025-05-03T11:38:25Z</time>
      </trkpt>
      <trkpt lat="41.079052984714508" lon="-8.101215027272701">
        <ele>344.76999999999998</ele>
        <time>2025-05-03T11:38:27Z</time>
      </trkpt>
      <trkpt lat="41.079149041324854" lon="-8.101305970922113">
        <ele>344.29000000000002</ele>
        <time>2025-05-03T11:38:28Z</time>
      </trkpt>
      <trkpt lat="41.079192962497473" lon="-8.101438991725445">
        <ele>343.32999999999998</ele>
        <time>2025-05-03T11:38:29Z</time>
      </trkpt>
      <trkpt lat="41.079233027994633" lon="-8.101574024185538">
        <ele>342.37</ele>
        <time>2025-05-03T11:38:30Z</time>
      </trkpt>
      <trkpt lat="41.079233027994633" lon="-8.101714001968503">
        <ele>341.88999999999999</ele>
        <time>2025-05-03T11:38:31Z</time>
      </trkpt>
      <trkpt lat="41.079233027994633" lon="-8.101854985579848">
        <ele>340.44</ele>
        <time>2025-05-03T11:38:32Z</time>
      </trkpt>
      <trkpt lat="41.079233027994633" lon="-8.102945974096656">
        <ele>334.68000000000001</ele>
        <time>2025-05-03T11:38:41Z</time>
      </trkpt>
      <trkpt lat="41.079277032986283" lon="-8.1037069670856">
        <ele>333.23000000000002</ele>
        <time>2025-05-03T11:38:47Z</time>
      </trkpt>
      <trkpt lat="41.07929203659296" lon="-8.1038330309093">
        <ele>332.75</ele>
        <time>2025-05-03T11:38:48Z</time>
      </trkpt>
      <trkpt lat="41.07933696359396" lon="-8.103931015357375">
        <ele>332.75</ele>
        <time>2025-05-03T11:38:49Z</time>
      </trkpt>
      <trkpt lat="41.079407036304474" lon="-8.104026988148689">
        <ele>331.79000000000002</ele>
        <time>2025-05-03T11:38:50Z</time>
      </trkpt>
      <trkpt lat="41.079510971903801" lon="-8.10407199896872">
        <ele>330.35000000000002</ele>
        <time>2025-05-03T11:38:51Z</time>
      </trkpt>
      <trkpt lat="41.079625971615314" lon="-8.104083985090256">
        <ele>328.91000000000003</ele>
        <time>2025-05-03T11:38:52Z</time>
      </trkpt>
      <trkpt lat="41.079738959670067" lon="-8.104073004797101">
        <ele>327.47000000000003</ele>
        <time>2025-05-03T11:38:53Z</time>
      </trkpt>
      <trkpt lat="41.079848008230329" lon="-8.104063030332327">
        <ele>326.01999999999998</ele>
        <time>2025-05-03T11:38:54Z</time>
      </trkpt>
      <trkpt lat="41.080142967402935" lon="-8.104034028947353">
        <ele>323.62</ele>
        <time>2025-05-03T11:38:57Z</time>
      </trkpt>
      <trkpt lat="41.080227037891746" lon="-8.104032017290592">
        <ele>323.62</ele>
        <time>2025-05-03T11:38:58Z</time>
      </trkpt>
      <trkpt lat="41.080307001248002" lon="-8.104089014232159">
        <ele>323.13999999999999</ele>
        <time>2025-05-03T11:38:59Z</time>
      </trkpt>
      <trkpt lat="41.080380007624626" lon="-8.10415799729526">
        <ele>322.66000000000003</ele>
        <time>2025-05-03T11:39:00Z</time>
      </trkpt>
      <trkpt lat="41.080425018444657" lon="-8.104272997006774">
        <ele>322.66000000000003</ele>
        <time>2025-05-03T11:39:01Z</time>
      </trkpt>
      <trkpt lat="41.08047204092145" lon="-8.104394031688571">
        <ele>322.18000000000001</ele>
        <time>2025-05-03T11:39:02Z</time>
      </trkpt>
      <trkpt lat="41.080986019223928" lon="-8.105766987428069">
        <ele>319.30000000000001</ele>
        <time>2025-05-03T11:39:13Z</time>
      </trkpt>
      <trkpt lat="41.081323977559805" lon="-8.10660501010716">
        <ele>317.37</ele>
        <time>2025-05-03T11:39:19Z</time>
      </trkpt>
      <trkpt lat="41.081405030563474" lon="-8.106702994555235">
        <ele>316.88999999999999</ele>
        <time>2025-05-03T11:39:20Z</time>
      </trkpt>
      <trkpt lat="41.081513995304704" lon="-8.106786981225014">
        <ele>316.41000000000003</ele>
        <time>2025-05-03T11:39:21Z</time>
      </trkpt>
      <trkpt lat="41.081626983359456" lon="-8.106874991208315">
        <ele>315.93000000000001</ele>
        <time>2025-05-03T11:39:22Z</time>
      </trkpt>
      <trkpt lat="41.081743994727731" lon="-8.106966018676758">
        <ele>314.97000000000003</ele>
        <time>2025-05-03T11:39:23Z</time>
      </trkpt>
      <trkpt lat="41.082151019945741" lon="-8.107138015329838">
        <ele>313.05000000000001</ele>
        <time>2025-05-03T11:39:26Z</time>
      </trkpt>
      <trkpt lat="41.082255961373448" lon="-8.107148995622993">
        <ele>312.08999999999997</ele>
        <time>2025-05-03T11:39:27Z</time>
      </trkpt>
      <trkpt lat="41.0823879763484" lon="-8.10716399922967">
        <ele>311.60000000000002</ele>
        <time>2025-05-03T11:39:28Z</time>
      </trkpt>
      <trkpt lat="41.082517979666591" lon="-8.107177997007966">
        <ele>310.63999999999999</ele>
        <time>2025-05-03T11:39:29Z</time>
      </trkpt>
      <trkpt lat="41.082633985206485" lon="-8.107241028919816">
        <ele>309.68000000000001</ele>
        <time>2025-05-03T11:39:30Z</time>
      </trkpt>
      <trkpt lat="41.082724006846547" lon="-8.107324009761214">
        <ele>309.19999999999999</ele>
        <time>2025-05-03T11:39:31Z</time>
      </trkpt>
      <trkpt lat="41.082777986302972" lon="-8.107459964230657">
        <ele>309.19999999999999</ele>
        <time>2025-05-03T11:39:32Z</time>
      </trkpt>
      <trkpt lat="41.082787038758397" lon="-8.107578987255693">
        <ele>309.19999999999999</ele>
        <time>2025-05-03T11:39:33Z</time>
      </trkpt>
      <trkpt lat="41.08277203515172" lon="-8.107718965038657">
        <ele>308.72000000000003</ele>
        <time>2025-05-03T11:39:34Z</time>
      </trkpt>
      <trkpt lat="41.082758037373424" lon="-8.107857014983892">
        <ele>308.24000000000001</ele>
        <time>2025-05-03T11:39:35Z</time>
      </trkpt>
      <trkpt lat="41.082715960219502" lon="-8.107956005260348">
        <ele>307.27999999999997</ele>
        <time>2025-05-03T11:39:36Z</time>
      </trkpt>
      <trkpt lat="41.082633985206485" lon="-8.108058013021946">
        <ele>306.80000000000001</ele>
        <time>2025-05-03T11:39:37Z</time>
      </trkpt>
      <trkpt lat="41.082548992708325" lon="-8.108163960278034">
        <ele>306.31999999999999</ele>
        <time>2025-05-03T11:39:38Z</time>
      </trkpt>
      <trkpt lat="41.082462994381785" lon="-8.108272003009915">
        <ele>305.83999999999997</ele>
        <time>2025-05-03T11:39:39Z</time>
      </trkpt>
      <trkpt lat="41.082393005490303" lon="-8.10838800854981">
        <ele>304.88</ele>
        <time>2025-05-03T11:39:40Z</time>
      </trkpt>
      <trkpt lat="41.082350006327033" lon="-8.108516000211239">
        <ele>303.91000000000003</ele>
        <time>2025-05-03T11:39:41Z</time>
      </trkpt>
      <trkpt lat="41.08230197802186" lon="-8.108661007136107">
        <ele>303.43000000000001</ele>
        <time>2025-05-03T11:39:42Z</time>
      </trkpt>
      <trkpt lat="41.082298960536718" lon="-8.108823029324412">
        <ele>302.47000000000003</ele>
        <time>2025-05-03T11:39:43Z</time>
      </trkpt>
      <trkpt lat="41.082292003557086" lon="-8.108999971300364">
        <ele>301.99000000000001</ele>
        <time>2025-05-03T11:39:44Z</time>
      </trkpt>
      <trkpt lat="41.082284962758422" lon="-8.109184959903359">
        <ele>301.50999999999999</ele>
        <time>2025-05-03T11:39:45Z</time>
      </trkpt>
      <trkpt lat="41.082265013828874" lon="-8.109349999576807">
        <ele>301.02999999999997</ele>
        <time>2025-05-03T11:39:46Z</time>
      </trkpt>
      <trkpt lat="41.08221597969532" lon="-8.109498023986816">
        <ele>300.55000000000001</ele>
        <time>2025-05-03T11:39:47Z</time>
      </trkpt>
      <trkpt lat="41.082121012732387" lon="-8.10959299094975">
        <ele>300.55000000000001</ele>
        <time>2025-05-03T11:39:48Z</time>
      </trkpt>
      <trkpt lat="41.082023028284311" lon="-8.109612017869949">
        <ele>300.06999999999999</ele>
        <time>2025-05-03T11:39:49Z</time>
      </trkpt>
      <trkpt lat="41.081916997209191" lon="-8.109619980677962">
        <ele>299.58999999999997</ele>
        <time>2025-05-03T11:39:50Z</time>
      </trkpt>
      <trkpt lat="41.081829993054271" lon="-8.109627021476626">
        <ele>298.63</ele>
        <time>2025-05-03T11:39:51Z</time>
      </trkpt>
      <trkpt lat="41.081749023869634" lon="-8.109541023150086">
        <ele>298.14999999999998</ele>
        <time>2025-05-03T11:39:52Z</time>
      </trkpt>
      <trkpt lat="41.081653973087668" lon="-8.109438009560108">
        <ele>297.67000000000002</ele>
        <time>2025-05-03T11:39:53Z</time>
      </trkpt>
      <trkpt lat="41.081556994467974" lon="-8.109333990141749">
        <ele>297.18000000000001</ele>
        <time>2025-05-03T11:39:54Z</time>
      </trkpt>
      <trkpt lat="41.081455992534757" lon="-8.109242962673307">
        <ele>296.22000000000003</ele>
        <time>2025-05-03T11:39:55Z</time>
      </trkpt>
      <trkpt lat="41.081349961459637" lon="-8.109172973781824">
        <ele>295.74000000000001</ele>
        <time>2025-05-03T11:39:56Z</time>
      </trkpt>
      <trkpt lat="41.081239990890026" lon="-8.109158976003528">
        <ele>295.25999999999999</ele>
        <time>2025-05-03T11:39:57Z</time>
      </trkpt>
      <trkpt lat="41.081129014492035" lon="-8.109204992651939">
        <ele>294.77999999999997</ele>
        <time>2025-05-03T11:39:58Z</time>
      </trkpt>
      <trkpt lat="41.081015020608902" lon="-8.109277999028564">
        <ele>294.30000000000001</ele>
        <time>2025-05-03T11:39:59Z</time>
      </trkpt>
      <trkpt lat="41.080891974270344" lon="-8.109357040375471">
        <ele>293.81999999999999</ele>
        <time>2025-05-03T11:40:00Z</time>
      </trkpt>
      <trkpt lat="41.079897964373231" lon="-8.110059024766088">
        <ele>289.97000000000003</ele>
        <time>2025-05-03T11:40:07Z</time>
      </trkpt>
      <trkpt lat="41.079796962440014" lon="-8.110225992277265">
        <ele>289.49000000000001</ele>
        <time>2025-05-03T11:40:08Z</time>
      </trkpt>
      <trkpt lat="41.079712975770235" lon="-8.110410980880261">
        <ele>289.00999999999999</ele>
        <time>2025-05-03T11:40:09Z</time>
      </trkpt>
      <trkpt lat="41.078900014981627" lon="-8.112297998741269">
        <ele>282.76999999999998</ele>
        <time>2025-05-03T11:40:19Z</time>
      </trkpt>
      <trkpt lat="41.078781997784972" lon="-8.112406963482499">
        <ele>281.80000000000001</ele>
        <time>2025-05-03T11:40:20Z</time>
      </trkpt>
      <trkpt lat="41.078661968931556" lon="-8.112519029527903">
        <ele>280.83999999999997</ele>
        <time>2025-05-03T11:40:21Z</time>
      </trkpt>
      <trkpt lat="41.078267013654113" lon="-8.112802002578974">
        <ele>279.39999999999998</ele>
        <time>2025-05-03T11:40:24Z</time>
      </trkpt>
      <trkpt lat="41.078138016164303" lon="-8.112856987863779">
        <ele>278.92000000000002</ele>
        <time>2025-05-03T11:40:25Z</time>
      </trkpt>
      <trkpt lat="41.077999966219068" lon="-8.11288196593523">
        <ele>278.44</ele>
        <time>2025-05-03T11:40:26Z</time>
      </trkpt>
      <trkpt lat="41.077865017578006" lon="-8.112907027825713">
        <ele>277.95999999999998</ele>
        <time>2025-05-03T11:40:27Z</time>
      </trkpt>
      <trkpt lat="41.07772403396666" lon="-8.112936029210687">
        <ele>277</ele>
        <time>2025-05-03T11:40:28Z</time>
      </trkpt>
      <trkpt lat="41.077608028426766" lon="-8.113020015880466">
        <ele>276.51999999999998</ele>
        <time>2025-05-03T11:40:29Z</time>
      </trkpt>
      <trkpt lat="41.077524041756988" lon="-8.113160999491811">
        <ele>275.56</ele>
        <time>2025-05-03T11:40:30Z</time>
      </trkpt>
      <trkpt lat="41.077455980703235" lon="-8.113305000588298">
        <ele>275.06999999999999</ele>
        <time>2025-05-03T11:40:31Z</time>
      </trkpt>
      <trkpt lat="41.077390015125275" lon="-8.113456964492798">
        <ele>274.58999999999997</ele>
        <time>2025-05-03T11:40:32Z</time>
      </trkpt>
      <trkpt lat="41.077236039564013" lon="-8.113720994442701">
        <ele>273.63</ele>
        <time>2025-05-03T11:40:34Z</time>
      </trkpt>
      <trkpt lat="41.077146017923951" lon="-8.113827025517821">
        <ele>273.14999999999998</ele>
        <time>2025-05-03T11:40:35Z</time>
      </trkpt>
      <trkpt lat="41.077059013769031" lon="-8.113909000530839">
        <ele>273.14999999999998</ele>
        <time>2025-05-03T11:40:36Z</time>
      </trkpt>
      <trkpt lat="41.076938984915614" lon="-8.113962979987264">
        <ele>272.67000000000002</ele>
        <time>2025-05-03T11:40:37Z</time>
      </trkpt>
      <trkpt lat="41.076810993254185" lon="-8.11401897110045">
        <ele>272.19</ele>
        <time>2025-05-03T11:40:38Z</time>
      </trkpt>
      <trkpt lat="41.076201964169741" lon="-8.114288030192256">
        <ele>269.31</ele>
        <time>2025-05-03T11:40:43Z</time>
      </trkpt>
      <trkpt lat="41.076120994985104" lon="-8.114293981343508">
        <ele>268.35000000000002</ele>
        <time>2025-05-03T11:40:44Z</time>
      </trkpt>
      <trkpt lat="41.07602896168828" lon="-8.114271014928818">
        <ele>267.86000000000001</ele>
        <time>2025-05-03T11:40:45Z</time>
      </trkpt>
      <trkpt lat="41.075958972796798" lon="-8.114220974966884">
        <ele>267.86000000000001</ele>
        <time>2025-05-03T11:40:46Z</time>
      </trkpt>
      <trkpt lat="41.075884038582444" lon="-8.114130031317473">
        <ele>266.89999999999998</ele>
        <time>2025-05-03T11:40:47Z</time>
      </trkpt>
      <trkpt lat="41.075803991407156" lon="-8.114032968878746">
        <ele>266.42000000000002</ele>
        <time>2025-05-03T11:40:48Z</time>
      </trkpt>
      <trkpt lat="41.075721010565758" lon="-8.11393297277391">
        <ele>265.45999999999998</ele>
        <time>2025-05-03T11:40:49Z</time>
      </trkpt>
      <trkpt lat="41.075637023895979" lon="-8.113829959183931">
        <ele>264.5</ele>
        <time>2025-05-03T11:40:50Z</time>
      </trkpt>
      <trkpt lat="41.075458992272615" lon="-8.113648993894458">
        <ele>262.57999999999998</ele>
        <time>2025-05-03T11:40:52Z</time>
      </trkpt>
      <trkpt lat="41.075369976460934" lon="-8.11356601305306">
        <ele>261.62</ele>
        <time>2025-05-03T11:40:53Z</time>
      </trkpt>
      <trkpt lat="41.075283978134394" lon="-8.113484038040042">
        <ele>261.13999999999999</ele>
        <time>2025-05-03T11:40:54Z</time>
      </trkpt>
      <trkpt lat="41.075205020606518" lon="-8.113401979207993">
        <ele>260.17000000000002</ele>
        <time>2025-05-03T11:40:55Z</time>
      </trkpt>
      <trkpt lat="41.075127990916371" lon="-8.113291002810001">
        <ele>259.69</ele>
        <time>2025-05-03T11:40:56Z</time>
      </trkpt>
      <trkpt lat="41.074735969305038" lon="-8.112779036164284">
        <ele>256.32999999999998</ele>
        <time>2025-05-03T11:41:01Z</time>
      </trkpt>
      <trkpt lat="41.074641002342105" lon="-8.112737964838743">
        <ele>255.37</ele>
        <time>2025-05-03T11:41:02Z</time>
      </trkpt>
      <trkpt lat="41.07454402372241" lon="-8.112737964838743">
        <ele>254.88999999999999</ele>
        <time>2025-05-03T11:41:03Z</time>
      </trkpt>
      <trkpt lat="41.074446039274335" lon="-8.112737964838743">
        <ele>254.41</ele>
        <time>2025-05-03T11:41:04Z</time>
      </trkpt>
      <trkpt lat="41.074341014027596" lon="-8.112737964838743">
        <ele>253.93000000000001</ele>
        <time>2025-05-03T11:41:05Z</time>
      </trkpt>
      <trkpt lat="41.074240012094378" lon="-8.112745005637407">
        <ele>252.96000000000001</ele>
        <time>2025-05-03T11:41:06Z</time>
      </trkpt>
      <trkpt lat="41.074147978797555" lon="-8.112786998972297">
        <ele>252.47999999999999</ele>
        <time>2025-05-03T11:41:07Z</time>
      </trkpt>
      <trkpt lat="41.07407002709806" lon="-8.112822035327554">
        <ele>251.52000000000001</ele>
        <time>2025-05-03T11:41:08Z</time>
      </trkpt>
      <trkpt lat="41.074018981307745" lon="-8.112846007570624">
        <ele>251.03999999999999</ele>
        <time>2025-05-03T11:41:09Z</time>
      </trkpt>
      <trkpt lat="41.073980005457997" lon="-8.112915996462107">
        <ele>250.08000000000001</ele>
        <time>2025-05-03T11:41:10Z</time>
      </trkpt>
      <trkpt lat="41.073947986587882" lon="-8.112975005060434">
        <ele>249.12</ele>
        <time>2025-05-03T11:41:11Z</time>
      </trkpt>
      <trkpt lat="41.073923008516431" lon="-8.113021021708846">
        <ele>248.63999999999999</ele>
        <time>2025-05-03T11:41:12Z</time>
      </trkpt>
      <trkpt lat="41.073902975767851" lon="-8.113057985901833">
        <ele>248.16</ele>
        <time>2025-05-03T11:41:13Z</time>
      </trkpt>
      <trkpt lat="41.073890989646316" lon="-8.113080030307174">
        <ele>247.19999999999999</ele>
        <time>2025-05-03T11:41:14Z</time>
      </trkpt>
      <trkpt lat="41.073890989646316" lon="-8.113080030307174">
        <ele>245.27000000000001</ele>
        <time>2025-05-03T11:41:24Z</time>
      </trkpt>
      <trkpt lat="41.073889983817935" lon="-8.113081958144903">
        <ele>243.83000000000001</ele>
        <time>2025-05-03T11:41:33Z</time>
      </trkpt>
      <trkpt lat="41.073889983817935" lon="-8.113081958144903">
        <ele>242.87</ele>
        <time>2025-05-03T11:41:35Z</time>
      </trkpt>
      <trkpt lat="41.073770960792899" lon="-8.113126968964934">
        <ele>264.01999999999998</ele>
        <time>2025-05-03T11:48:04Z</time>
      </trkpt>
      <trkpt lat="41.073839021846652" lon="-8.113236017525196">
        <ele>270.26999999999998</ele>
        <time>2025-05-03T11:48:50Z</time>
      </trkpt>
      <trkpt lat="41.073780013248324" lon="-8.113217996433377">
        <ele>263.54000000000002</ele>
        <time>2025-05-03T11:49:46Z</time>
      </trkpt>
      <trkpt lat="41.073784036561847" lon="-8.1132220197469">
        <ele>263.06</ele>
        <time>2025-05-03T11:50:18Z</time>
      </trkpt>
      <trkpt lat="41.073902975767851" lon="-8.113195030018687">
        <ele>262.57999999999998</ele>
        <time>2025-05-03T11:51:09Z</time>
      </trkpt>
      <trkpt lat="41.074031973257661" lon="-8.113581016659737">
        <ele>259.69</ele>
        <time>2025-05-03T11:51:14Z</time>
      </trkpt>
      <trkpt lat="41.074192989617586" lon="-8.114007990807295">
        <ele>259.20999999999998</ele>
        <time>2025-05-03T11:51:17Z</time>
      </trkpt>
      <trkpt lat="41.074207993224263" lon="-8.114174036309123">
        <ele>258.73000000000002</ele>
        <time>2025-05-03T11:51:18Z</time>
      </trkpt>
      <trkpt lat="41.07422299683094" lon="-8.114338992163539">
        <ele>258.73000000000002</ele>
        <time>2025-05-03T11:51:19Z</time>
      </trkpt>
      <trkpt lat="41.074241017922759" lon="-8.114476958289743">
        <ele>258.25</ele>
        <time>2025-05-03T11:51:20Z</time>
      </trkpt>
      <trkpt lat="41.07428502291441" lon="-8.114608973264694">
        <ele>257.76999999999998</ele>
        <time>2025-05-03T11:51:21Z</time>
      </trkpt>
      <trkpt lat="41.074332967400551" lon="-8.114752974361181">
        <ele>257.29000000000002</ele>
        <time>2025-05-03T11:51:22Z</time>
      </trkpt>
      <trkpt lat="41.074378984048963" lon="-8.114892030134797">
        <ele>256.81</ele>
        <time>2025-05-03T11:51:23Z</time>
      </trkpt>
      <trkpt lat="41.07437202706933" lon="-8.115051034837961">
        <ele>256.32999999999998</ele>
        <time>2025-05-03T11:51:24Z</time>
      </trkpt>
      <trkpt lat="41.074357023462653" lon="-8.115230994299054">
        <ele>255.84999999999999</ele>
        <time>2025-05-03T11:51:25Z</time>
      </trkpt>
      <trkpt lat="41.074342019855976" lon="-8.115419000387192">
        <ele>255.37</ele>
        <time>2025-05-03T11:51:26Z</time>
      </trkpt>
      <trkpt lat="41.074327016249299" lon="-8.115603988990188">
        <ele>254.88999999999999</ele>
        <time>2025-05-03T11:51:27Z</time>
      </trkpt>
      <trkpt lat="41.074331039562821" lon="-8.115777997300029">
        <ele>254.88999999999999</ele>
        <time>2025-05-03T11:51:28Z</time>
      </trkpt>
      <trkpt lat="41.074354005977511" lon="-8.115928033366799">
        <ele>254.88999999999999</ele>
        <time>2025-05-03T11:51:29Z</time>
      </trkpt>
      <trkpt lat="41.074384013190866" lon="-8.116129031404853">
        <ele>255.37</ele>
        <time>2025-05-03T11:51:30Z</time>
      </trkpt>
      <trkpt lat="41.074432041496038" lon="-8.116237996146083">
        <ele>255.84999999999999</ele>
        <time>2025-05-03T11:51:31Z</time>
      </trkpt>
      <trkpt lat="41.074499012902379" lon="-8.116391971707344">
        <ele>256.81</ele>
        <time>2025-05-03T11:51:32Z</time>
      </trkpt>
      <trkpt lat="41.074582999572158" lon="-8.116548964753747">
        <ele>257.29000000000002</ele>
        <time>2025-05-03T11:51:33Z</time>
      </trkpt>
      <trkpt lat="41.074680984020233" lon="-8.11670302413404">
        <ele>258.25</ele>
        <time>2025-05-03T11:51:34Z</time>
      </trkpt>
      <trkpt lat="41.074814004823565" lon="-8.116820035502315">
        <ele>258.73000000000002</ele>
        <time>2025-05-03T11:51:35Z</time>
      </trkpt>
      <trkpt lat="41.074944008141756" lon="-8.116932017728686">
        <ele>259.69</ele>
        <time>2025-05-03T11:51:36Z</time>
      </trkpt>
      <trkpt lat="41.075063031166792" lon="-8.117035031318665">
        <ele>260.64999999999998</ele>
        <time>2025-05-03T11:51:37Z</time>
      </trkpt>
      <trkpt lat="41.075166966766119" lon="-8.11713402159512">
        <ele>261.62</ele>
        <time>2025-05-03T11:51:38Z</time>
      </trkpt>
      <trkpt lat="41.075245002284646" lon="-8.117264024913311">
        <ele>262.57999999999998</ele>
        <time>2025-05-03T11:51:39Z</time>
      </trkpt>
      <trkpt lat="41.075293030589819" lon="-8.117410037666559">
        <ele>263.06</ele>
        <time>2025-05-03T11:51:40Z</time>
      </trkpt>
      <trkpt lat="41.075303005054593" lon="-8.11758597381413">
        <ele>264.01999999999998</ele>
        <time>2025-05-03T11:51:41Z</time>
      </trkpt>
      <trkpt lat="41.075288001447916" lon="-8.117783032357693">
        <ele>264.98000000000002</ele>
        <time>2025-05-03T11:51:42Z</time>
      </trkpt>
      <trkpt lat="41.075270986184478" lon="-8.117996016517282">
        <ele>265.45999999999998</ele>
        <time>2025-05-03T11:51:43Z</time>
      </trkpt>
      <trkpt lat="41.075252965092659" lon="-8.118216963484883">
        <ele>266.42000000000002</ele>
        <time>2025-05-03T11:51:44Z</time>
      </trkpt>
      <trkpt lat="41.075249025598168" lon="-8.118441011756659">
        <ele>267.38</ele>
        <time>2025-05-03T11:51:45Z</time>
      </trkpt>
      <trkpt lat="41.075280038639903" lon="-8.118664976209402">
        <ele>267.86000000000001</ele>
        <time>2025-05-03T11:51:46Z</time>
      </trkpt>
      <trkpt lat="41.075351033359766" lon="-8.118872009217739">
        <ele>267.86000000000001</ele>
        <time>2025-05-03T11:51:47Z</time>
      </trkpt>
      <trkpt lat="41.075421022251248" lon="-8.119075018912554">
        <ele>268.35000000000002</ele>
        <time>2025-05-03T11:51:48Z</time>
      </trkpt>
      <trkpt lat="41.075478019192815" lon="-8.11923997476697">
        <ele>268.82999999999998</ele>
        <time>2025-05-03T11:51:49Z</time>
      </trkpt>
      <trkpt lat="41.075459998100996" lon="-8.119450025260449">
        <ele>269.31</ele>
        <time>2025-05-03T11:51:50Z</time>
      </trkpt>
      <trkpt lat="41.075442982837558" lon="-8.11964800581336">
        <ele>269.31</ele>
        <time>2025-05-03T11:51:51Z</time>
      </trkpt>
      <trkpt lat="41.075435020029545" lon="-8.120080009102821">
        <ele>270.26999999999998</ele>
        <time>2025-05-03T11:51:53Z</time>
      </trkpt>
      <trkpt lat="41.075435020029545" lon="-8.120285030454397">
        <ele>270.26999999999998</ele>
        <time>2025-05-03T11:51:54Z</time>
      </trkpt>
      <trkpt lat="41.075497968122363" lon="-8.120455015450716">
        <ele>270.75</ele>
        <time>2025-05-03T11:51:55Z</time>
      </trkpt>
      <trkpt lat="41.075568962842226" lon="-8.120637992396951">
        <ele>271.23000000000002</ele>
        <time>2025-05-03T11:51:56Z</time>
      </trkpt>
      <trkpt lat="41.075640041381121" lon="-8.120822980999947">
        <ele>271.70999999999998</ele>
        <time>2025-05-03T11:51:57Z</time>
      </trkpt>
      <trkpt lat="41.075691003352404" lon="-8.121016016229987">
        <ele>272.19</ele>
        <time>2025-05-03T11:51:58Z</time>
      </trkpt>
      <trkpt lat="41.075736014172435" lon="-8.121211985126138">
        <ele>272.67000000000002</ele>
        <time>2025-05-03T11:51:59Z</time>
      </trkpt>
      <trkpt lat="41.075743976980448" lon="-8.121418012306094">
        <ele>273.14999999999998</ele>
        <time>2025-05-03T11:52:00Z</time>
      </trkpt>
      <trkpt lat="41.075752023607492" lon="-8.121621022000909">
        <ele>273.63</ele>
        <time>2025-05-03T11:52:01Z</time>
      </trkpt>
      <trkpt lat="41.075777001678944" lon="-8.121801987290382">
        <ele>274.11000000000001</ele>
        <time>2025-05-03T11:52:02Z</time>
      </trkpt>
      <trkpt lat="41.07583299279213" lon="-8.121949005872011">
        <ele>274.58999999999997</ele>
        <time>2025-05-03T11:52:03Z</time>
      </trkpt>
      <trkpt lat="41.075895018875599" lon="-8.122054031118751">
        <ele>275.06999999999999</ele>
        <time>2025-05-03T11:52:04Z</time>
      </trkpt>
      <trkpt lat="41.075987974181771" lon="-8.122127959504724">
        <ele>275.56</ele>
        <time>2025-05-03T11:52:05Z</time>
      </trkpt>
      <trkpt lat="41.076085036620498" lon="-8.122201971709728">
        <ele>276.04000000000002</ele>
        <time>2025-05-03T11:52:06Z</time>
      </trkpt>
      <trkpt lat="41.076221996918321" lon="-8.122223010286689">
        <ele>276.51999999999998</ele>
        <time>2025-05-03T11:52:07Z</time>
      </trkpt>
      <trkpt lat="41.076374966651201" lon="-8.122246982529759">
        <ele>276.51999999999998</ele>
        <time>2025-05-03T11:52:08Z</time>
      </trkpt>
      <trkpt lat="41.076540006324649" lon="-8.122272966429591">
        <ele>277</ele>
        <time>2025-05-03T11:52:09Z</time>
      </trkpt>
      <trkpt lat="41.076710997149348" lon="-8.122300039976835">
        <ele>277</ele>
        <time>2025-05-03T11:52:10Z</time>
      </trkpt>
      <trkpt lat="41.076878970488906" lon="-8.122349996119738">
        <ele>277</ele>
        <time>2025-05-03T11:52:11Z</time>
      </trkpt>
      <trkpt lat="41.077046021819115" lon="-8.122428031638265">
        <ele>276.51999999999998</ele>
        <time>2025-05-03T11:52:12Z</time>
      </trkpt>
      <trkpt lat="41.077511971816421" lon="-8.122785016894341">
        <ele>276.51999999999998</ele>
        <time>2025-05-03T11:52:15Z</time>
      </trkpt>
      <trkpt lat="41.077656978741288" lon="-8.122904039919376">
        <ele>276.51999999999998</ele>
        <time>2025-05-03T11:52:16Z</time>
      </trkpt>
      <trkpt lat="41.077783964574337" lon="-8.123080981895328">
        <ele>276.04000000000002</ele>
        <time>2025-05-03T11:52:17Z</time>
      </trkpt>
      <trkpt lat="41.078029973432422" lon="-8.123422963544726">
        <ele>276.04000000000002</ele>
        <time>2025-05-03T11:52:19Z</time>
      </trkpt>
      <trkpt lat="41.078142039477825" lon="-8.123584985733032">
        <ele>275.56</ele>
        <time>2025-05-03T11:52:20Z</time>
      </trkpt>
      <trkpt lat="41.078208005055785" lon="-8.123787995427847">
        <ele>275.56</ele>
        <time>2025-05-03T11:52:21Z</time>
      </trkpt>
      <trkpt lat="41.078274976462126" lon="-8.123991005122662">
        <ele>275.56</ele>
        <time>2025-05-03T11:52:22Z</time>
      </trkpt>
      <trkpt lat="41.078340020030737" lon="-8.124190997332335">
        <ele>275.06999999999999</ele>
        <time>2025-05-03T11:52:23Z</time>
      </trkpt>
      <trkpt lat="41.078554010018706" lon="-8.124944027513266">
        <ele>273.14999999999998</ele>
        <time>2025-05-03T11:52:27Z</time>
      </trkpt>
      <trkpt lat="41.078588040545583" lon="-8.125092973932624">
        <ele>273.14999999999998</ele>
        <time>2025-05-03T11:52:28Z</time>
      </trkpt>
      <trkpt lat="41.078547975048423" lon="-8.125215014442802">
        <ele>273.14999999999998</ele>
        <time>2025-05-03T11:52:29Z</time>
      </trkpt>
      <trkpt lat="41.078500030562282" lon="-8.125351974740624">
        <ele>272.67000000000002</ele>
        <time>2025-05-03T11:52:30Z</time>
      </trkpt>
      <trkpt lat="41.078441021963954" lon="-8.125503016635776">
        <ele>272.67000000000002</ele>
        <time>2025-05-03T11:52:31Z</time>
      </trkpt>
      <trkpt lat="41.078124018386006" lon="-8.12613501213491">
        <ele>271.23000000000002</ele>
        <time>2025-05-03T11:52:35Z</time>
      </trkpt>
      <trkpt lat="41.078036008402705" lon="-8.1262650154531">
        <ele>271.23000000000002</ele>
        <time>2025-05-03T11:52:36Z</time>
      </trkpt>
      <trkpt lat="41.077908016741276" lon="-8.126365011557937">
        <ele>270.75</ele>
        <time>2025-05-03T11:52:37Z</time>
      </trkpt>
      <trkpt lat="41.077776001766324" lon="-8.126468025147915">
        <ele>270.75</ele>
        <time>2025-05-03T11:52:38Z</time>
      </trkpt>
      <trkpt lat="41.07763702981174" lon="-8.126576989889145">
        <ele>271.23000000000002</ele>
        <time>2025-05-03T11:52:39Z</time>
      </trkpt>
      <trkpt lat="41.077489005401731" lon="-8.126691989600658">
        <ele>271.70999999999998</ele>
        <time>2025-05-03T11:52:40Z</time>
      </trkpt>
      <trkpt lat="41.077346010133624" lon="-8.12680103816092">
        <ele>271.70999999999998</ele>
        <time>2025-05-03T11:52:41Z</time>
      </trkpt>
      <trkpt lat="41.077084997668862" lon="-8.126985020935535">
        <ele>272.19</ele>
        <time>2025-05-03T11:52:43Z</time>
      </trkpt>
      <trkpt lat="41.076954994350672" lon="-8.127036988735199">
        <ele>272.19</ele>
        <time>2025-05-03T11:52:44Z</time>
      </trkpt>
      <trkpt lat="41.07680001296103" lon="-8.127057021483779">
        <ele>272.19</ele>
        <time>2025-05-03T11:52:45Z</time>
      </trkpt>
      <trkpt lat="41.076335990801454" lon="-8.127115024253726">
        <ele>272.67000000000002</ele>
        <time>2025-05-03T11:52:48Z</time>
      </trkpt>
      <trkpt lat="41.076189978048205" lon="-8.12718803063035">
        <ele>272.19</ele>
        <time>2025-05-03T11:52:49Z</time>
      </trkpt>
      <trkpt lat="41.076061986386776" lon="-8.127264976501465">
        <ele>270.75</ele>
        <time>2025-05-03T11:52:50Z</time>
      </trkpt>
      <trkpt lat="41.075964001938701" lon="-8.127383999526501">
        <ele>269.79000000000002</ele>
        <time>2025-05-03T11:52:51Z</time>
      </trkpt>
      <trkpt lat="41.075860988348722" lon="-8.127508973702788">
        <ele>268.82999999999998</ele>
        <time>2025-05-03T11:52:52Z</time>
      </trkpt>
      <trkpt lat="41.075753029435873" lon="-8.127649035304785">
        <ele>268.35000000000002</ele>
        <time>2025-05-03T11:52:53Z</time>
      </trkpt>
      <trkpt lat="41.075652027502656" lon="-8.127816002815962">
        <ele>267.38</ele>
        <time>2025-05-03T11:52:54Z</time>
      </trkpt>
      <trkpt lat="41.075545996427536" lon="-8.127989005297422">
        <ele>266.89999999999998</ele>
        <time>2025-05-03T11:52:55Z</time>
      </trkpt>
      <trkpt lat="41.074972003698349" lon="-8.128810012713075">
        <ele>265.94</ele>
        <time>2025-05-03T11:53:00Z</time>
      </trkpt>
      <trkpt lat="41.074863038957119" lon="-8.128939010202885">
        <ele>266.42000000000002</ele>
        <time>2025-05-03T11:53:01Z</time>
      </trkpt>
      <trkpt lat="41.07450102455914" lon="-8.129184013232589">
        <ele>268.82999999999998</ele>
        <time>2025-05-03T11:53:04Z</time>
      </trkpt>
      <trkpt lat="41.074361968785524" lon="-8.129260959103704">
        <ele>270.26999999999998</ele>
        <time>2025-05-03T11:53:05Z</time>
      </trkpt>
      <trkpt lat="41.074130963534117" lon="-8.129386017099023">
        <ele>271.70999999999998</ele>
        <time>2025-05-03T11:53:07Z</time>
      </trkpt>
      <trkpt lat="41.07402702793479" lon="-8.129473021253943">
        <ele>272.19</ele>
        <time>2025-05-03T11:53:08Z</time>
      </trkpt>
      <trkpt lat="41.073938012123108" lon="-8.129577040672302">
        <ele>272.67000000000002</ele>
        <time>2025-05-03T11:53:09Z</time>
      </trkpt>
      <trkpt lat="41.073651015758514" lon="-8.129868982359767">
        <ele>272.67000000000002</ele>
        <time>2025-05-03T11:53:12Z</time>
      </trkpt>
      <trkpt lat="41.073548002168536" lon="-8.12996000982821">
        <ele>272.67000000000002</ele>
        <time>2025-05-03T11:53:13Z</time>
      </trkpt>
      <trkpt lat="41.073016002774239" lon="-8.130343984812498">
        <ele>272.67000000000002</ele>
        <time>2025-05-03T11:53:18Z</time>
      </trkpt>
      <trkpt lat="41.072935033589602" lon="-8.130415985360742">
        <ele>273.14999999999998</ele>
        <time>2025-05-03T11:53:19Z</time>
      </trkpt>
      <trkpt lat="41.072856998071074" lon="-8.130511958152056">
        <ele>273.14999999999998</ele>
        <time>2025-05-03T11:53:20Z</time>
      </trkpt>
      <trkpt lat="41.072775023058057" lon="-8.130613965913653">
        <ele>273.63</ele>
        <time>2025-05-03T11:53:21Z</time>
      </trkpt>
      <trkpt lat="41.072688018903136" lon="-8.130722008645535">
        <ele>273.63</ele>
        <time>2025-05-03T11:53:22Z</time>
      </trkpt>
      <trkpt lat="41.072601014748216" lon="-8.130828039720655">
        <ele>273.63</ele>
        <time>2025-05-03T11:53:23Z</time>
      </trkpt>
      <trkpt lat="41.072493977844715" lon="-8.130889981985092">
        <ele>273.63</ele>
        <time>2025-05-03T11:53:24Z</time>
      </trkpt>
      <trkpt lat="41.072381995618343" lon="-8.130956031382084">
        <ele>273.63</ele>
        <time>2025-05-03T11:53:25Z</time>
      </trkpt>
      <trkpt lat="41.071739019826055" lon="-8.131432961672545">
        <ele>274.58999999999997</ele>
        <time>2025-05-03T11:53:32Z</time>
      </trkpt>
      <trkpt lat="41.071529975160956" lon="-8.13168098218739">
        <ele>275.06999999999999</ele>
        <time>2025-05-03T11:53:34Z</time>
      </trkpt>
      <trkpt lat="41.071417992934585" lon="-8.131803022697568">
        <ele>275.56</ele>
        <time>2025-05-03T11:53:35Z</time>
      </trkpt>
      <trkpt lat="41.071307016536593" lon="-8.131921039894223">
        <ele>276.04000000000002</ele>
        <time>2025-05-03T11:53:36Z</time>
      </trkpt>
      <trkpt lat="41.071186987683177" lon="-8.132050037384033">
        <ele>276.51999999999998</ele>
        <time>2025-05-03T11:53:37Z</time>
      </trkpt>
      <trkpt lat="41.071093026548624" lon="-8.132135029882193">
        <ele>277</ele>
        <time>2025-05-03T11:53:38Z</time>
      </trkpt>
      <trkpt lat="41.070912983268499" lon="-8.132330998778343">
        <ele>277.48000000000002</ele>
        <time>2025-05-03T11:53:40Z</time>
      </trkpt>
      <trkpt lat="41.070860009640455" lon="-8.13245203346014">
        <ele>277.95999999999998</ele>
        <time>2025-05-03T11:53:41Z</time>
      </trkpt>
      <trkpt lat="41.070837965235114" lon="-8.132606009021401">
        <ele>278.44</ele>
        <time>2025-05-03T11:53:42Z</time>
      </trkpt>
      <trkpt lat="41.070609977468848" lon="-8.133965972810984">
        <ele>279.88</ele>
        <time>2025-05-03T11:53:49Z</time>
      </trkpt>
      <trkpt lat="41.070518027991056" lon="-8.13432002440095">
        <ele>279.39999999999998</ele>
        <time>2025-05-03T11:53:51Z</time>
      </trkpt>
      <trkpt lat="41.070448961108923" lon="-8.134452039375901">
        <ele>279.39999999999998</ele>
        <time>2025-05-03T11:53:52Z</time>
      </trkpt>
      <trkpt lat="41.070363968610764" lon="-8.13455899246037">
        <ele>278.92000000000002</ele>
        <time>2025-05-03T11:53:53Z</time>
      </trkpt>
      <trkpt lat="41.070266989991069" lon="-8.134613977745175">
        <ele>279.39999999999998</ele>
        <time>2025-05-03T11:53:54Z</time>
      </trkpt>
      <trkpt lat="41.070143021643162" lon="-8.134636022150517">
        <ele>279.39999999999998</ele>
        <time>2025-05-03T11:53:55Z</time>
      </trkpt>
      <trkpt lat="41.07001100666821" lon="-8.134658988565207">
        <ele>279.39999999999998</ele>
        <time>2025-05-03T11:53:56Z</time>
      </trkpt>
      <trkpt lat="41.069875974208117" lon="-8.134682038798928">
        <ele>279.39999999999998</ele>
        <time>2025-05-03T11:53:57Z</time>
      </trkpt>
      <trkpt lat="41.069743959233165" lon="-8.134681032970548">
        <ele>279.39999999999998</ele>
        <time>2025-05-03T11:53:58Z</time>
      </trkpt>
      <trkpt lat="41.069614039734006" lon="-8.134668963029981">
        <ele>278.92000000000002</ele>
        <time>2025-05-03T11:53:59Z</time>
      </trkpt>
      <trkpt lat="41.069491999223828" lon="-8.134657982736826">
        <ele>278.92000000000002</ele>
        <time>2025-05-03T11:54:00Z</time>
      </trkpt>
      <trkpt lat="41.069375993683934" lon="-8.134648008272052">
        <ele>278.44</ele>
        <time>2025-05-03T11:54:01Z</time>
      </trkpt>
      <trkpt lat="41.069264011457562" lon="-8.134723026305437">
        <ele>278.44</ele>
        <time>2025-05-03T11:54:02Z</time>
      </trkpt>
      <trkpt lat="41.069160997867584" lon="-8.134807012975216">
        <ele>277.95999999999998</ele>
        <time>2025-05-03T11:54:03Z</time>
      </trkpt>
      <trkpt lat="41.06906502507627" lon="-8.13492301851511">
        <ele>277.95999999999998</ele>
        <time>2025-05-03T11:54:04Z</time>
      </trkpt>
      <trkpt lat="41.068954970687628" lon="-8.135054027661681">
        <ele>277.95999999999998</ele>
        <time>2025-05-03T11:54:05Z</time>
      </trkpt>
      <trkpt lat="41.068646013736725" lon="-8.135457029566169">
        <ele>276.51999999999998</ele>
        <time>2025-05-03T11:54:08Z</time>
      </trkpt>
      <trkpt lat="41.068566972389817" lon="-8.135625002905726">
        <ele>276.51999999999998</ele>
        <time>2025-05-03T11:54:09Z</time>
      </trkpt>
      <trkpt lat="41.068500000983477" lon="-8.135802028700709">
        <ele>276.51999999999998</ele>
        <time>2025-05-03T11:54:10Z</time>
      </trkpt>
      <trkpt lat="41.068435041233897" lon="-8.13597503118217">
        <ele>276.04000000000002</ele>
        <time>2025-05-03T11:54:11Z</time>
      </trkpt>
      <trkpt lat="41.068393969908357" lon="-8.136152978986502">
        <ele>276.04000000000002</ele>
        <time>2025-05-03T11:54:12Z</time>
      </trkpt>
      <trkpt lat="41.068360023200512" lon="-8.136334028095007">
        <ele>275.56</ele>
        <time>2025-05-03T11:54:13Z</time>
      </trkpt>
      <trkpt lat="41.068372009322047" lon="-8.136523962020874">
        <ele>275.56</ele>
        <time>2025-05-03T11:54:14Z</time>
      </trkpt>
      <trkpt lat="41.068392964079976" lon="-8.136712973937392">
        <ele>275.06999999999999</ele>
        <time>2025-05-03T11:54:15Z</time>
      </trkpt>
      <trkpt lat="41.068414002656937" lon="-8.136905003339052">
        <ele>275.06999999999999</ele>
        <time>2025-05-03T11:54:16Z</time>
      </trkpt>
      <trkpt lat="41.068435963243246" lon="-8.137099966406822">
        <ele>274.58999999999997</ele>
        <time>2025-05-03T11:54:17Z</time>
      </trkpt>
      <trkpt lat="41.068458007648587" lon="-8.137294007465243">
        <ele>275.06999999999999</ele>
        <time>2025-05-03T11:54:18Z</time>
      </trkpt>
      <trkpt lat="41.068454990163445" lon="-8.137493999674916">
        <ele>275.06999999999999</ele>
        <time>2025-05-03T11:54:19Z</time>
      </trkpt>
      <trkpt lat="41.06844199821353" lon="-8.137843022122979">
        <ele>275.06999999999999</ele>
        <time>2025-05-03T11:54:21Z</time>
      </trkpt>
      <trkpt lat="41.068415008485317" lon="-8.137999009341002">
        <ele>275.06999999999999</ele>
        <time>2025-05-03T11:54:22Z</time>
      </trkpt>
      <trkpt lat="41.06837603263557" lon="-8.138144016265869">
        <ele>274.58999999999997</ele>
        <time>2025-05-03T11:54:23Z</time>
      </trkpt>
      <trkpt lat="41.068305037915707" lon="-8.138257004320622">
        <ele>274.11000000000001</ele>
        <time>2025-05-03T11:54:24Z</time>
      </trkpt>
      <trkpt lat="41.068232031539083" lon="-8.138374015688896">
        <ele>274.11000000000001</ele>
        <time>2025-05-03T11:54:25Z</time>
      </trkpt>
      <trkpt lat="41.068156007677317" lon="-8.138495972380042">
        <ele>273.63</ele>
        <time>2025-05-03T11:54:26Z</time>
      </trkpt>
      <trkpt lat="41.068075960502028" lon="-8.138622958213091">
        <ele>273.63</ele>
        <time>2025-05-03T11:54:27Z</time>
      </trkpt>
      <trkpt lat="41.067596012726426" lon="-8.139376994222403">
        <ele>271.23000000000002</ele>
        <time>2025-05-03T11:54:33Z</time>
      </trkpt>
      <trkpt lat="41.067500961944461" lon="-8.139479001984">
        <ele>270.26999999999998</ele>
        <time>2025-05-03T11:54:34Z</time>
      </trkpt>
      <trkpt lat="41.067409012466669" lon="-8.139577992260456">
        <ele>269.31</ele>
        <time>2025-05-03T11:54:35Z</time>
      </trkpt>
      <trkpt lat="41.066526984795928" lon="-8.140112003311515">
        <ele>263.54000000000002</ele>
        <time>2025-05-03T11:54:43Z</time>
      </trkpt>
      <trkpt lat="41.066404022276402" lon="-8.140133963897824">
        <ele>263.06</ele>
        <time>2025-05-03T11:54:44Z</time>
      </trkpt>
      <trkpt lat="41.066162036731839" lon="-8.140196995809674">
        <ele>261.62</ele>
        <time>2025-05-03T11:54:46Z</time>
      </trkpt>
      <trkpt lat="41.066039996221662" lon="-8.140245024114847">
        <ele>261.13999999999999</ele>
        <time>2025-05-03T11:54:47Z</time>
      </trkpt>
      <trkpt lat="41.065917033702135" lon="-8.140304032713175">
        <ele>260.64999999999998</ele>
        <time>2025-05-03T11:54:48Z</time>
      </trkpt>
      <trkpt lat="41.065817037597299" lon="-8.140412997454405">
        <ele>260.17000000000002</ele>
        <time>2025-05-03T11:54:49Z</time>
      </trkpt>
      <trkpt lat="41.065715029835701" lon="-8.140525985509157">
        <ele>259.20999999999998</ele>
        <time>2025-05-03T11:54:50Z</time>
      </trkpt>
      <trkpt lat="41.0656079929322" lon="-8.140676021575928">
        <ele>258.73000000000002</ele>
        <time>2025-05-03T11:54:51Z</time>
      </trkpt>
      <trkpt lat="41.065063001587987" lon="-8.141457969322801">
        <ele>256.32999999999998</ele>
        <time>2025-05-03T11:54:57Z</time>
      </trkpt>
      <trkpt lat="41.064968034625053" lon="-8.141572969034314">
        <ele>255.84999999999999</ele>
        <time>2025-05-03T11:54:58Z</time>
      </trkpt>
      <trkpt lat="41.064844988286495" lon="-8.141643041744828">
        <ele>255.84999999999999</ele>
        <time>2025-05-03T11:54:59Z</time>
      </trkpt>
      <trkpt lat="41.06416798196733" lon="-8.142068004235625">
        <ele>255.37</ele>
        <time>2025-05-03T11:55:04Z</time>
      </trkpt>
      <trkpt lat="41.064039990305901" lon="-8.142190966755152">
        <ele>254.88999999999999</ele>
        <time>2025-05-03T11:55:05Z</time>
      </trkpt>
      <trkpt lat="41.063910992816091" lon="-8.14231401309371">
        <ele>254.88999999999999</ele>
        <time>2025-05-03T11:55:06Z</time>
      </trkpt>
      <trkpt lat="41.063574962317944" lon="-8.142783986404538">
        <ele>254.88999999999999</ele>
        <time>2025-05-03T11:55:09Z</time>
      </trkpt>
      <trkpt lat="41.063475972041488" lon="-8.14295900054276">
        <ele>254.88999999999999</ele>
        <time>2025-05-03T11:55:10Z</time>
      </trkpt>
      <trkpt lat="41.063387040048838" lon="-8.143147006630898">
        <ele>254.88999999999999</ele>
        <time>2025-05-03T11:55:11Z</time>
      </trkpt>
      <trkpt lat="41.063315961509943" lon="-8.143349010497332">
        <ele>254.88999999999999</ele>
        <time>2025-05-03T11:55:12Z</time>
      </trkpt>
      <trkpt lat="41.06324496679008" lon="-8.143550008535385">
        <ele>254.41</ele>
        <time>2025-05-03T11:55:13Z</time>
      </trkpt>
      <trkpt lat="41.062946990132332" lon="-8.144495990127325">
        <ele>253.44</ele>
        <time>2025-05-03T11:55:18Z</time>
      </trkpt>
      <trkpt lat="41.062927963212132" lon="-8.144681984558702">
        <ele>252.96000000000001</ele>
        <time>2025-05-03T11:55:19Z</time>
      </trkpt>
      <trkpt lat="41.062955958768725" lon="-8.144847024232149">
        <ele>252.47999999999999</ele>
        <time>2025-05-03T11:55:20Z</time>
      </trkpt>
      <trkpt lat="41.062993006780744" lon="-8.145016003400087">
        <ele>252.47999999999999</ele>
        <time>2025-05-03T11:55:21Z</time>
      </trkpt>
      <trkpt lat="41.063044974580407" lon="-8.145179031416774">
        <ele>252</ele>
        <time>2025-05-03T11:55:22Z</time>
      </trkpt>
      <trkpt lat="41.063108006492257" lon="-8.145330995321274">
        <ele>251.52000000000001</ele>
        <time>2025-05-03T11:55:23Z</time>
      </trkpt>
      <trkpt lat="41.063168020918965" lon="-8.145468039438129">
        <ele>251.52000000000001</ele>
        <time>2025-05-03T11:55:24Z</time>
      </trkpt>
      <trkpt lat="41.063258964568377" lon="-8.145557977259159">
        <ele>251.52000000000001</ele>
        <time>2025-05-03T11:55:25Z</time>
      </trkpt>
      <trkpt lat="41.063339011743665" lon="-8.145632995292544">
        <ele>252</ele>
        <time>2025-05-03T11:55:26Z</time>
      </trkpt>
      <trkpt lat="41.06343699619174" lon="-8.145632995292544">
        <ele>251.52000000000001</ele>
        <time>2025-05-03T11:55:27Z</time>
      </trkpt>
      <trkpt lat="41.06354596093297" lon="-8.14562201499939">
        <ele>251.52000000000001</ele>
        <time>2025-05-03T11:55:28Z</time>
      </trkpt>
      <trkpt lat="41.063665989786386" lon="-8.145554959774017">
        <ele>251.52000000000001</ele>
        <time>2025-05-03T11:55:29Z</time>
      </trkpt>
      <trkpt lat="41.063787024468184" lon="-8.14545102417469">
        <ele>251.52000000000001</ele>
        <time>2025-05-03T11:55:30Z</time>
      </trkpt>
      <trkpt lat="41.063899006694555" lon="-8.145325966179371">
        <ele>252</ele>
        <time>2025-05-03T11:55:31Z</time>
      </trkpt>
      <trkpt lat="41.063987016677856" lon="-8.145161010324955">
        <ele>252.47999999999999</ele>
        <time>2025-05-03T11:55:32Z</time>
      </trkpt>
      <trkpt lat="41.064071003347635" lon="-8.144993958994746">
        <ele>253.44</ele>
        <time>2025-05-03T11:55:33Z</time>
      </trkpt>
      <trkpt lat="41.064151972532272" lon="-8.144832020625472">
        <ele>254.41</ele>
        <time>2025-05-03T11:55:34Z</time>
      </trkpt>
      <trkpt lat="41.064226990565658" lon="-8.144682990387082">
        <ele>254.88999999999999</ele>
        <time>2025-05-03T11:55:35Z</time>
      </trkpt>
      <trkpt lat="41.064298991113901" lon="-8.144537983462215">
        <ele>255.84999999999999</ele>
        <time>2025-05-03T11:55:36Z</time>
      </trkpt>
      <trkpt lat="41.064392030239105" lon="-8.144443016499281">
        <ele>256.32999999999998</ele>
        <time>2025-05-03T11:55:37Z</time>
      </trkpt>
      <trkpt lat="41.064510969445109" lon="-8.14435601234436">
        <ele>256.81</ele>
        <time>2025-05-03T11:55:38Z</time>
      </trkpt>
      <trkpt lat="41.064628986641765" lon="-8.14426900818944">
        <ele>257.29000000000002</ele>
        <time>2025-05-03T11:55:39Z</time>
      </trkpt>
      <trkpt lat="41.064749015495181" lon="-8.144217962399125">
        <ele>258.25</ele>
        <time>2025-05-03T11:55:40Z</time>
      </trkpt>
      <trkpt lat="41.064872983843088" lon="-8.144171023741365">
        <ele>259.20999999999998</ele>
        <time>2025-05-03T11:55:41Z</time>
      </trkpt>
      <trkpt lat="41.064988989382982" lon="-8.14414101652801">
        <ele>260.17000000000002</ele>
        <time>2025-05-03T11:55:42Z</time>
      </trkpt>
      <trkpt lat="41.065337006002665" lon="-8.144093994051218">
        <ele>262.57999999999998</ele>
        <time>2025-05-03T11:55:45Z</time>
      </trkpt>
      <trkpt lat="41.065447982400656" lon="-8.144118972122669">
        <ele>264.01999999999998</ele>
        <time>2025-05-03T11:55:46Z</time>
      </trkpt>
      <trkpt lat="41.065557030960917" lon="-8.144179992377758">
        <ele>265.45999999999998</ele>
        <time>2025-05-03T11:55:47Z</time>
      </trkpt>
      <trkpt lat="41.065672030672431" lon="-8.144280994310975">
        <ele>266.42000000000002</ele>
        <time>2025-05-03T11:55:48Z</time>
      </trkpt>
      <trkpt lat="41.065739002078772" lon="-8.144415020942688">
        <ele>267.86000000000001</ele>
        <time>2025-05-03T11:55:49Z</time>
      </trkpt>
      <trkpt lat="41.065801028162241" lon="-8.144537983462215">
        <ele>268.82999999999998</ele>
        <time>2025-05-03T11:55:50Z</time>
      </trkpt>
      <trkpt lat="41.065894989296794" lon="-8.14467603340745">
        <ele>269.79000000000002</ele>
        <time>2025-05-03T11:55:51Z</time>
      </trkpt>
      <trkpt lat="41.065976964309812" lon="-8.144795978441834">
        <ele>270.75</ele>
        <time>2025-05-03T11:55:52Z</time>
      </trkpt>
      <trkpt lat="41.0660570114851" lon="-8.144893040880561">
        <ele>271.23000000000002</ele>
        <time>2025-05-03T11:55:53Z</time>
      </trkpt>
      <trkpt lat="41.06616698205471" lon="-8.144954983144999">
        <ele>272.19</ele>
        <time>2025-05-03T11:55:54Z</time>
      </trkpt>
      <trkpt lat="41.066277958452702" lon="-8.145017009228468">
        <ele>272.67000000000002</ele>
        <time>2025-05-03T11:55:55Z</time>
      </trkpt>
      <trkpt lat="41.066387007012963" lon="-8.145079035311937">
        <ele>273.14999999999998</ele>
        <time>2025-05-03T11:55:56Z</time>
      </trkpt>
      <trkpt lat="41.067290995270014" lon="-8.145593013614416">
        <ele>278.92000000000002</ele>
        <time>2025-05-03T11:56:04Z</time>
      </trkpt>
      <trkpt lat="41.067756023257971" lon="-8.145779008045793">
        <ele>281.31999999999999</ele>
        <time>2025-05-03T11:56:08Z</time>
      </trkpt>
      <trkpt lat="41.067872028797865" lon="-8.145828964188695">
        <ele>282.27999999999997</ele>
        <time>2025-05-03T11:56:09Z</time>
      </trkpt>
      <trkpt lat="41.068220967426896" lon="-8.145980006083846">
        <ele>283.73000000000002</ele>
        <time>2025-05-03T11:56:12Z</time>
      </trkpt>
      <trkpt lat="41.068332027643919" lon="-8.146014958620071">
        <ele>284.69</ele>
        <time>2025-05-03T11:56:13Z</time>
      </trkpt>
      <trkpt lat="41.068449961021543" lon="-8.145992998033762">
        <ele>285.17000000000002</ele>
        <time>2025-05-03T11:56:14Z</time>
      </trkpt>
      <trkpt lat="41.06857200153172" lon="-8.145970031619072">
        <ele>285.64999999999998</ele>
        <time>2025-05-03T11:56:15Z</time>
      </trkpt>
      <trkpt lat="41.068693036213517" lon="-8.145934995263815">
        <ele>286.13</ele>
        <time>2025-05-03T11:56:16Z</time>
      </trkpt>
      <trkpt lat="41.068811975419521" lon="-8.145875986665487">
        <ele>286.61000000000001</ele>
        <time>2025-05-03T11:56:17Z</time>
      </trkpt>
      <trkpt lat="41.069627031683922" lon="-8.145468039438129">
        <ele>290.94</ele>
        <time>2025-05-03T11:56:24Z</time>
      </trkpt>
      <trkpt lat="41.069731973111629" lon="-8.145454041659832">
        <ele>291.89999999999998</ele>
        <time>2025-05-03T11:56:25Z</time>
      </trkpt>
      <trkpt lat="41.06983901001513" lon="-8.145485976710916">
        <ele>292.38</ele>
        <time>2025-05-03T11:56:26Z</time>
      </trkpt>
      <trkpt lat="41.069949986413121" lon="-8.145535010844469">
        <ele>293.33999999999997</ele>
        <time>2025-05-03T11:56:27Z</time>
      </trkpt>
      <trkpt lat="41.070068003609776" lon="-8.145608017221093">
        <ele>293.33999999999997</ele>
        <time>2025-05-03T11:56:28Z</time>
      </trkpt>
      <trkpt lat="41.070189038291574" lon="-8.145684041082859">
        <ele>293.81999999999999</ele>
        <time>2025-05-03T11:56:29Z</time>
      </trkpt>
      <trkpt lat="41.07042096555233" lon="-8.145808009430766">
        <ele>293.81999999999999</ele>
        <time>2025-05-03T11:56:31Z</time>
      </trkpt>
      <trkpt lat="41.070539988577366" lon="-8.145851008594036">
        <ele>294.30000000000001</ele>
        <time>2025-05-03T11:56:32Z</time>
      </trkpt>
      <trkpt lat="41.070661023259163" lon="-8.145894007757306">
        <ele>294.77999999999997</ele>
        <time>2025-05-03T11:56:33Z</time>
      </trkpt>
      <trkpt lat="41.071038963273168" lon="-8.146019987761974">
        <ele>295.25999999999999</ele>
        <time>2025-05-03T11:56:36Z</time>
      </trkpt>
      <trkpt lat="41.07233002781868" lon="-8.146915007382631">
        <ele>298.63</ele>
        <time>2025-05-03T11:56:47Z</time>
      </trkpt>
      <trkpt lat="41.072592968121171" lon="-8.147181970998645">
        <ele>300.06999999999999</ele>
        <time>2025-05-03T11:56:50Z</time>
      </trkpt>
      <trkpt lat="41.072673015296459" lon="-8.147266963496804">
        <ele>300.55000000000001</ele>
        <time>2025-05-03T11:56:51Z</time>
      </trkpt>
      <trkpt lat="41.072732023894787" lon="-8.147391015663743">
        <ele>300.55000000000001</ele>
        <time>2025-05-03T11:56:52Z</time>
      </trkpt>
      <trkpt lat="41.072769993916154" lon="-8.147538034245372">
        <ele>301.02999999999997</ele>
        <time>2025-05-03T11:56:53Z</time>
      </trkpt>
      <trkpt lat="41.072809975594282" lon="-8.147687986493111">
        <ele>301.99000000000001</ele>
        <time>2025-05-03T11:56:54Z</time>
      </trkpt>
      <trkpt lat="41.072830008342862" lon="-8.147846991196275">
        <ele>302.47000000000003</ele>
        <time>2025-05-03T11:56:55Z</time>
      </trkpt>
      <trkpt lat="41.072802012786269" lon="-8.148000966757536">
        <ele>302.47000000000003</ele>
        <time>2025-05-03T11:56:56Z</time>
      </trkpt>
      <trkpt lat="41.072773011401296" lon="-8.148165000602603">
        <ele>302.94999999999999</ele>
        <time>2025-05-03T11:56:57Z</time>
      </trkpt>
      <trkpt lat="41.0727399867028" lon="-8.14833196811378">
        <ele>303.43000000000001</ele>
        <time>2025-05-03T11:56:58Z</time>
      </trkpt>
      <trkpt lat="41.072646025568247" lon="-8.148977961391211">
        <ele>305.83999999999997</ele>
        <time>2025-05-03T11:57:02Z</time>
      </trkpt>
      <trkpt lat="41.072649965062737" lon="-8.149120034649968">
        <ele>305.83999999999997</ele>
        <time>2025-05-03T11:57:03Z</time>
      </trkpt>
      <trkpt lat="41.072695981711149" lon="-8.149247020483017">
        <ele>305.83999999999997</ele>
        <time>2025-05-03T11:57:04Z</time>
      </trkpt>
      <trkpt lat="41.072752978652716" lon="-8.149380963295698">
        <ele>305.36000000000001</ele>
        <time>2025-05-03T11:57:05Z</time>
      </trkpt>
      <trkpt lat="41.072831014171243" lon="-8.149509960785508">
        <ele>305.36000000000001</ele>
        <time>2025-05-03T11:57:06Z</time>
      </trkpt>
      <trkpt lat="41.073419004678726" lon="-8.150358041748405">
        <ele>303.43000000000001</ele>
        <time>2025-05-03T11:57:13Z</time>
      </trkpt>
      <trkpt lat="41.073515983298421" lon="-8.150429036468267">
        <ele>302.94999999999999</ele>
        <time>2025-05-03T11:57:14Z</time>
      </trkpt>
      <trkpt lat="41.073610028252006" lon="-8.150492990389466">
        <ele>302.47000000000003</ele>
        <time>2025-05-03T11:57:15Z</time>
      </trkpt>
      <trkpt lat="41.073709018528461" lon="-8.150547975674272">
        <ele>301.99000000000001</ele>
        <time>2025-05-03T11:57:16Z</time>
      </trkpt>
      <trkpt lat="41.073807002976537" lon="-8.150621987879276">
        <ele>301.50999999999999</ele>
        <time>2025-05-03T11:57:17Z</time>
      </trkpt>
      <trkpt lat="41.073886966332793" lon="-8.150732964277268">
        <ele>301.02999999999997</ele>
        <time>2025-05-03T11:57:18Z</time>
      </trkpt>
      <trkpt lat="41.073966007679701" lon="-8.150855004787445">
        <ele>301.02999999999997</ele>
        <time>2025-05-03T11:57:19Z</time>
      </trkpt>
      <trkpt lat="41.074023004621267" lon="-8.15099598839879">
        <ele>300.55000000000001</ele>
        <time>2025-05-03T11:57:20Z</time>
      </trkpt>
      <trkpt lat="41.07405100017786" lon="-8.151152981445193">
        <ele>300.55000000000001</ele>
        <time>2025-05-03T11:57:21Z</time>
      </trkpt>
      <trkpt lat="41.074066003784537" lon="-8.151312991976738">
        <ele>300.06999999999999</ele>
        <time>2025-05-03T11:57:22Z</time>
      </trkpt>
      <trkpt lat="41.074082013219595" lon="-8.151474008336663">
        <ele>299.58999999999997</ele>
        <time>2025-05-03T11:57:23Z</time>
      </trkpt>
      <trkpt lat="41.074130041524768" lon="-8.151614991948009">
        <ele>299.11000000000001</ele>
        <time>2025-05-03T11:57:24Z</time>
      </trkpt>
      <trkpt lat="41.074191983789206" lon="-8.151740971952677">
        <ele>298.63</ele>
        <time>2025-05-03T11:57:25Z</time>
      </trkpt>
      <trkpt lat="41.07426599599421" lon="-8.151872986927629">
        <ele>298.63</ele>
        <time>2025-05-03T11:57:26Z</time>
      </trkpt>
      <trkpt lat="41.074341014027596" lon="-8.152006007730961">
        <ele>298.14999999999998</ele>
        <time>2025-05-03T11:57:27Z</time>
      </trkpt>
      <trkpt lat="41.074397005140781" lon="-8.152141962200403">
        <ele>297.67000000000002</ele>
        <time>2025-05-03T11:57:28Z</time>
      </trkpt>
      <trkpt lat="41.074451990425587" lon="-8.152275988832116">
        <ele>296.69999999999999</ele>
        <time>2025-05-03T11:57:29Z</time>
      </trkpt>
      <trkpt lat="41.074488032609224" lon="-8.152427030727267">
        <ele>296.22000000000003</ele>
        <time>2025-05-03T11:57:30Z</time>
      </trkpt>
      <trkpt lat="41.074476968497038" lon="-8.152597015723586">
        <ele>296.22000000000003</ele>
        <time>2025-05-03T11:57:31Z</time>
      </trkpt>
      <trkpt lat="41.07445802539587" lon="-8.152779992669821">
        <ele>295.25999999999999</ele>
        <time>2025-05-03T11:57:32Z</time>
      </trkpt>
      <trkpt lat="41.074425000697374" lon="-8.152975039556623">
        <ele>294.77999999999997</ele>
        <time>2025-05-03T11:57:33Z</time>
      </trkpt>
      <trkpt lat="41.074235988780856" lon="-8.153749024495482">
        <ele>290.94</ele>
        <time>2025-05-03T11:57:37Z</time>
      </trkpt>
      <trkpt lat="41.074183015152812" lon="-8.153880033642054">
        <ele>289.97000000000003</ele>
        <time>2025-05-03T11:57:38Z</time>
      </trkpt>
      <trkpt lat="41.074089976027608" lon="-8.153982963413">
        <ele>289.49000000000001</ele>
        <time>2025-05-03T11:57:39Z</time>
      </trkpt>
      <trkpt lat="41.07398696243763" lon="-8.154095029458404">
        <ele>288.05000000000001</ele>
        <time>2025-05-03T11:57:40Z</time>
      </trkpt>
      <trkpt lat="41.07385603711009" lon="-8.154182033613324">
        <ele>287.56999999999999</ele>
        <time>2025-05-03T11:57:41Z</time>
      </trkpt>
      <trkpt lat="41.073711030185223" lon="-8.154257973656058">
        <ele>287.08999999999997</ele>
        <time>2025-05-03T11:57:42Z</time>
      </trkpt>
      <trkpt lat="41.073546996340156" lon="-8.154344977810979">
        <ele>286.61000000000001</ele>
        <time>2025-05-03T11:57:43Z</time>
      </trkpt>
      <trkpt lat="41.072666980326176" lon="-8.154730964452028">
        <ele>283.25</ele>
        <time>2025-05-03T11:57:49Z</time>
      </trkpt>
      <trkpt lat="41.072552986443043" lon="-8.154855016618967">
        <ele>282.27999999999997</ele>
        <time>2025-05-03T11:57:50Z</time>
      </trkpt>
      <trkpt lat="41.07246003113687" lon="-8.154957024380565">
        <ele>281.80000000000001</ele>
        <time>2025-05-03T11:57:51Z</time>
      </trkpt>
      <trkpt lat="41.072402028366923" lon="-8.155076969414949">
        <ele>280.83999999999997</ele>
        <time>2025-05-03T11:57:52Z</time>
      </trkpt>
      <trkpt lat="41.072345031425357" lon="-8.155246032401919">
        <ele>280.36000000000001</ele>
        <time>2025-05-03T11:57:53Z</time>
      </trkpt>
      <trkpt lat="41.072328016161919" lon="-8.155405959114432">
        <ele>279.88</ele>
        <time>2025-05-03T11:57:54Z</time>
      </trkpt>
      <trkpt lat="41.072307983413339" lon="-8.155583990737796">
        <ele>279.39999999999998</ele>
        <time>2025-05-03T11:57:55Z</time>
      </trkpt>
      <trkpt lat="41.072324998676777" lon="-8.155745007097721">
        <ele>278.92000000000002</ele>
        <time>2025-05-03T11:57:56Z</time>
      </trkpt>
      <trkpt lat="41.072363974526525" lon="-8.155882973223925">
        <ele>278.44</ele>
        <time>2025-05-03T11:57:57Z</time>
      </trkpt>
      <trkpt lat="41.072423988953233" lon="-8.156004007905722">
        <ele>278.44</ele>
        <time>2025-05-03T11:57:58Z</time>
      </trkpt>
      <trkpt lat="41.072523985058069" lon="-8.156070979312062">
        <ele>277.95999999999998</ele>
        <time>2025-05-03T11:57:59Z</time>
      </trkpt>
      <trkpt lat="41.072624986991286" lon="-8.156099980697036">
        <ele>277.95999999999998</ele>
        <time>2025-05-03T11:58:00Z</time>
      </trkpt>
      <trkpt lat="41.072736969217658" lon="-8.156090006232262">
        <ele>277.48000000000002</ele>
        <time>2025-05-03T11:58:01Z</time>
      </trkpt>
      <trkpt lat="41.072853980585933" lon="-8.156071985140443">
        <ele>277</ele>
        <time>2025-05-03T11:58:02Z</time>
      </trkpt>
      <trkpt lat="41.072993036359549" lon="-8.156029991805553">
        <ele>277</ele>
        <time>2025-05-03T11:58:03Z</time>
      </trkpt>
      <trkpt lat="41.07351103797555" lon="-8.155893031507731">
        <ele>276.51999999999998</ele>
        <time>2025-05-03T11:58:06Z</time>
      </trkpt>
      <trkpt lat="41.073697032406926" lon="-8.155906023457646">
        <ele>277</ele>
        <time>2025-05-03T11:58:07Z</time>
      </trkpt>
      <trkpt lat="41.073885960504413" lon="-8.155920021235943">
        <ele>277</ele>
        <time>2025-05-03T11:58:08Z</time>
      </trkpt>
      <trkpt lat="41.074087964370847" lon="-8.155941981822252">
        <ele>277.48000000000002</ele>
        <time>2025-05-03T11:58:09Z</time>
      </trkpt>
      <trkpt lat="41.074267001822591" lon="-8.156009037047625">
        <ele>277.95999999999998</ele>
        <time>2025-05-03T11:58:10Z</time>
      </trkpt>
      <trkpt lat="41.074432963505387" lon="-8.156071985140443">
        <ele>278.44</ele>
        <time>2025-05-03T11:58:11Z</time>
      </trkpt>
      <trkpt lat="41.074733035638928" lon="-8.156234007328749">
        <ele>279.39999999999998</ele>
        <time>2025-05-03T11:58:13Z</time>
      </trkpt>
      <trkpt lat="41.074880976229906" lon="-8.156356969848275">
        <ele>280.36000000000001</ele>
        <time>2025-05-03T11:58:14Z</time>
      </trkpt>
      <trkpt lat="41.074983989819884" lon="-8.156511029228568">
        <ele>280.83999999999997</ele>
        <time>2025-05-03T11:58:15Z</time>
      </trkpt>
      <trkpt lat="41.075063031166792" lon="-8.156708003953099">
        <ele>281.80000000000001</ele>
        <time>2025-05-03T11:58:16Z</time>
      </trkpt>
      <trkpt lat="41.075112987309694" lon="-8.156915036961436">
        <ele>282.27999999999997</ele>
        <time>2025-05-03T11:58:17Z</time>
      </trkpt>
      <trkpt lat="41.075112987309694" lon="-8.157111005857587">
        <ele>283.25</ele>
        <time>2025-05-03T11:58:18Z</time>
      </trkpt>
      <trkpt lat="41.075083985924721" lon="-8.157309992238879">
        <ele>284.20999999999998</ele>
        <time>2025-05-03T11:58:19Z</time>
      </trkpt>
      <trkpt lat="41.07503998093307" lon="-8.157505039125681">
        <ele>285.17000000000002</ele>
        <time>2025-05-03T11:58:20Z</time>
      </trkpt>
      <trkpt lat="41.074981978163123" lon="-8.15769899636507">
        <ele>285.64999999999998</ele>
        <time>2025-05-03T11:58:21Z</time>
      </trkpt>
      <trkpt lat="41.074861027300358" lon="-8.15806201659143">
        <ele>287.56999999999999</ele>
        <time>2025-05-03T11:58:23Z</time>
      </trkpt>
      <trkpt lat="41.074830014258623" lon="-8.15823401324451">
        <ele>288.05000000000001</ele>
        <time>2025-05-03T11:58:24Z</time>
      </trkpt>
      <trkpt lat="41.074822973459959" lon="-8.158411039039493">
        <ele>288.52999999999997</ele>
        <time>2025-05-03T11:58:25Z</time>
      </trkpt>
      <trkpt lat="41.074815010651946" lon="-8.15857901237905">
        <ele>289.49000000000001</ele>
        <time>2025-05-03T11:58:26Z</time>
      </trkpt>
      <trkpt lat="41.074860021471977" lon="-8.15872997045517">
        <ele>290.45999999999998</ele>
        <time>2025-05-03T11:58:27Z</time>
      </trkpt>
      <trkpt lat="41.074935039505363" lon="-8.158881012350321">
        <ele>291.42000000000002</ele>
        <time>2025-05-03T11:58:28Z</time>
      </trkpt>
      <trkpt lat="41.075011985376477" lon="-8.159034987911582">
        <ele>292.38</ele>
        <time>2025-05-03T11:58:29Z</time>
      </trkpt>
      <trkpt lat="41.075084991753101" lon="-8.15918100066483">
        <ele>293.33999999999997</ele>
        <time>2025-05-03T11:58:30Z</time>
      </trkpt>
      <trkpt lat="41.075177025049925" lon="-8.159270016476512">
        <ele>294.30000000000001</ele>
        <time>2025-05-03T11:58:31Z</time>
      </trkpt>
      <trkpt lat="41.075284983962774" lon="-8.159365989267826">
        <ele>294.77999999999997</ele>
        <time>2025-05-03T11:58:32Z</time>
      </trkpt>
      <trkpt lat="41.075422028079629" lon="-8.159419968724251">
        <ele>295.74000000000001</ele>
        <time>2025-05-03T11:58:33Z</time>
      </trkpt>
      <trkpt lat="41.075569968670607" lon="-8.15946196205914">
        <ele>296.22000000000003</ele>
        <time>2025-05-03T11:58:34Z</time>
      </trkpt>
      <trkpt lat="41.075736014172435" lon="-8.159486018121243">
        <ele>296.69999999999999</ele>
        <time>2025-05-03T11:58:35Z</time>
      </trkpt>
      <trkpt lat="41.077265962958336" lon="-8.159705959260464">
        <ele>301.02999999999997</ele>
        <time>2025-05-03T11:58:43Z</time>
      </trkpt>
      <trkpt lat="41.078319987282157" lon="-8.159854989498854">
        <ele>306.31999999999999</ele>
        <time>2025-05-03T11:58:48Z</time>
      </trkpt>
      <trkpt lat="41.079451963305473" lon="-8.160008965060115">
        <ele>312.56999999999999</ele>
        <time>2025-05-03T11:58:54Z</time>
      </trkpt>
      <trkpt lat="41.079608034342527" lon="-8.160008965060115">
        <ele>313.52999999999997</ele>
        <time>2025-05-03T11:58:55Z</time>
      </trkpt>
      <trkpt lat="41.079752035439014" lon="-8.160008965060115">
        <ele>314.49000000000001</ele>
        <time>2025-05-03T11:58:56Z</time>
      </trkpt>
      <trkpt lat="41.079903999343514" lon="-8.160048024728894">
        <ele>315.44999999999999</ele>
        <time>2025-05-03T11:58:57Z</time>
      </trkpt>
      <trkpt lat="41.079972982406616" lon="-8.160142991691828">
        <ele>316.88999999999999</ele>
        <time>2025-05-03T11:58:58Z</time>
      </trkpt>
      <trkpt lat="41.080090999603271" lon="-8.160309959203005">
        <ele>318.32999999999998</ele>
        <time>2025-05-03T11:58:59Z</time>
      </trkpt>
      <trkpt lat="41.080140033736825" lon="-8.160433005541563">
        <ele>319.30000000000001</ele>
        <time>2025-05-03T11:59:00Z</time>
      </trkpt>
      <trkpt lat="41.080329967662692" lon="-8.160977996885777">
        <ele>322.66000000000003</ele>
        <time>2025-05-03T11:59:03Z</time>
      </trkpt>
      <trkpt lat="41.080338014289737" lon="-8.161162985488772">
        <ele>323.13999999999999</ele>
        <time>2025-05-03T11:59:04Z</time>
      </trkpt>
      <trkpt lat="41.080344971269369" lon="-8.161354009062052">
        <ele>323.62</ele>
        <time>2025-05-03T11:59:05Z</time>
      </trkpt>
      <trkpt lat="41.080258972942829" lon="-8.162217009812594">
        <ele>326.01999999999998</ele>
        <time>2025-05-03T11:59:09Z</time>
      </trkpt>
      <trkpt lat="41.080222008749843" lon="-8.162448015064001">
        <ele>326.5</ele>
        <time>2025-05-03T11:59:10Z</time>
      </trkpt>
      <trkpt lat="41.07991598546505" lon="-8.163652997463942">
        <ele>329.38999999999999</ele>
        <time>2025-05-03T11:59:16Z</time>
      </trkpt>
      <trkpt lat="41.079897964373231" lon="-8.163839997723699">
        <ele>330.35000000000002</ele>
        <time>2025-05-03T11:59:17Z</time>
      </trkpt>
      <trkpt lat="41.079897964373231" lon="-8.164043007418513">
        <ele>330.35000000000002</ele>
        <time>2025-05-03T11:59:18Z</time>
      </trkpt>
      <trkpt lat="41.079907016828656" lon="-8.164264960214496">
        <ele>331.31</ele>
        <time>2025-05-03T11:59:19Z</time>
      </trkpt>
      <trkpt lat="41.079967031255364" lon="-8.164468975737691">
        <ele>332.26999999999998</ele>
        <time>2025-05-03T11:59:20Z</time>
      </trkpt>
      <trkpt lat="41.080046994611621" lon="-8.164673997089267">
        <ele>333.23000000000002</ele>
        <time>2025-05-03T11:59:21Z</time>
      </trkpt>
      <trkpt lat="41.080170040950179" lon="-8.164839036762714">
        <ele>334.19999999999999</ele>
        <time>2025-05-03T11:59:22Z</time>
      </trkpt>
      <trkpt lat="41.080297026783228" lon="-8.164979014545679">
        <ele>335.16000000000003</ele>
        <time>2025-05-03T11:59:23Z</time>
      </trkpt>
      <trkpt lat="41.080422000959516" lon="-8.165118992328644">
        <ele>336.12</ele>
        <time>2025-05-03T11:59:24Z</time>
      </trkpt>
      <trkpt lat="41.080550998449326" lon="-8.16526198759675">
        <ele>336.60000000000002</ele>
        <time>2025-05-03T11:59:25Z</time>
      </trkpt>
      <trkpt lat="41.081157010048628" lon="-8.166187014430761">
        <ele>340.92000000000002</ele>
        <time>2025-05-03T11:59:30Z</time>
      </trkpt>
      <trkpt lat="41.081273015588522" lon="-8.166372003033757">
        <ele>341.41000000000003</ele>
        <time>2025-05-03T11:59:31Z</time>
      </trkpt>
      <trkpt lat="41.081478036940098" lon="-8.166672997176647">
        <ele>342.85000000000002</ele>
        <time>2025-05-03T11:59:33Z</time>
      </trkpt>
      <trkpt lat="41.081545008346438" lon="-8.166809035465121">
        <ele>343.32999999999998</ele>
        <time>2025-05-03T11:59:34Z</time>
      </trkpt>
      <trkpt lat="41.081566968932748" lon="-8.166963011026382">
        <ele>343.81</ele>
        <time>2025-05-03T11:59:35Z</time>
      </trkpt>
      <trkpt lat="41.081546014174819" lon="-8.167125033214688">
        <ele>344.29000000000002</ele>
        <time>2025-05-03T11:59:36Z</time>
      </trkpt>
      <trkpt lat="41.08148499391973" lon="-8.167292000725865">
        <ele>345.25</ele>
        <time>2025-05-03T11:59:37Z</time>
      </trkpt>
      <trkpt lat="41.08141902834177" lon="-8.16747397184372">
        <ele>345.73000000000002</ele>
        <time>2025-05-03T11:59:38Z</time>
      </trkpt>
      <trkpt lat="41.081328000873327" lon="-8.167669018730521">
        <ele>345.73000000000002</ele>
        <time>2025-05-03T11:59:39Z</time>
      </trkpt>
      <trkpt lat="41.080510010942817" lon="-8.16906301304698">
        <ele>348.62</ele>
        <time>2025-05-03T11:59:46Z</time>
      </trkpt>
      <trkpt lat="41.079748012125492" lon="-8.17015903070569">
        <ele>352.94</ele>
        <time>2025-05-03T11:59:53Z</time>
      </trkpt>
      <trkpt lat="41.079683974385262" lon="-8.170357011258602">
        <ele>353.42000000000002</ele>
        <time>2025-05-03T11:59:54Z</time>
      </trkpt>
      <trkpt lat="41.079625971615314" lon="-8.170535964891315">
        <ele>353.89999999999998</ele>
        <time>2025-05-03T11:59:55Z</time>
      </trkpt>
      <trkpt lat="41.079273009672761" lon="-8.171581020578742">
        <ele>355.82999999999998</ele>
        <time>2025-05-03T12:00:01Z</time>
      </trkpt>
      <trkpt lat="41.078945025801659" lon="-8.172169011086226">
        <ele>358.70999999999998</ele>
        <time>2025-05-03T12:00:05Z</time>
      </trkpt>
      <trkpt lat="41.078346977010369" lon="-8.17301600240171">
        <ele>362.06999999999999</ele>
        <time>2025-05-03T12:00:11Z</time>
      </trkpt>
      <trkpt lat="41.077325977385044" lon="-8.174984995275736">
        <ele>370.24000000000001</ele>
        <time>2025-05-03T12:00:24Z</time>
      </trkpt>
      <trkpt lat="41.077259005978703" lon="-8.17512396723032">
        <ele>370.73000000000002</ele>
        <time>2025-05-03T12:00:25Z</time>
      </trkpt>
      <trkpt lat="41.077259005978703" lon="-8.175269979983568">
        <ele>371.20999999999998</ele>
        <time>2025-05-03T12:00:26Z</time>
      </trkpt>
      <trkpt lat="41.077279038727283" lon="-8.175429990515113">
        <ele>371.69</ele>
        <time>2025-05-03T12:00:27Z</time>
      </trkpt>
      <trkpt lat="41.077319020405412" lon="-8.175590001046658">
        <ele>371.69</ele>
        <time>2025-05-03T12:00:28Z</time>
      </trkpt>
      <trkpt lat="41.077363025397062" lon="-8.175767026841641">
        <ele>372.17000000000002</ele>
        <time>2025-05-03T12:00:29Z</time>
      </trkpt>
      <trkpt lat="41.077408036217093" lon="-8.175950003787875">
        <ele>372.17000000000002</ele>
        <time>2025-05-03T12:00:30Z</time>
      </trkpt>
      <trkpt lat="41.077489005401731" lon="-8.176292991265655">
        <ele>371.69</ele>
        <time>2025-05-03T12:00:32Z</time>
      </trkpt>
      <trkpt lat="41.077576009556651" lon="-8.176421988755465">
        <ele>371.69</ele>
        <time>2025-05-03T12:00:33Z</time>
      </trkpt>
      <trkpt lat="41.077657984569669" lon="-8.176529025658965">
        <ele>371.69</ele>
        <time>2025-05-03T12:00:34Z</time>
      </trkpt>
      <trkpt lat="41.077817995101213" lon="-8.17673597484827">
        <ele>371.69</ele>
        <time>2025-05-03T12:00:36Z</time>
      </trkpt>
      <trkpt lat="41.077883960679173" lon="-8.176851980388165">
        <ele>371.69</ele>
        <time>2025-05-03T12:00:37Z</time>
      </trkpt>
      <trkpt lat="41.077940035611391" lon="-8.177001010626555">
        <ele>371.69</ele>
        <time>2025-05-03T12:00:38Z</time>
      </trkpt>
      <trkpt lat="41.078168023377657" lon="-8.17759302444756">
        <ele>371.69</ele>
        <time>2025-05-03T12:00:42Z</time>
      </trkpt>
      <trkpt lat="41.078257961198688" lon="-8.177712969481945">
        <ele>371.69</ele>
        <time>2025-05-03T12:00:43Z</time>
      </trkpt>
      <trkpt lat="41.078375978395343" lon="-8.177813971415162">
        <ele>372.17000000000002</ele>
        <time>2025-05-03T12:00:44Z</time>
      </trkpt>
      <trkpt lat="41.07862701639533" lon="-8.177985968068242">
        <ele>371.69</ele>
        <time>2025-05-03T12:00:46Z</time>
      </trkpt>
      <trkpt lat="41.078760959208012" lon="-8.178076995536685">
        <ele>371.69</ele>
        <time>2025-05-03T12:00:47Z</time>
      </trkpt>
      <trkpt lat="41.078956006094813" lon="-8.178337002173066">
        <ele>371.20999999999998</ele>
        <time>2025-05-03T12:00:49Z</time>
      </trkpt>
      <trkpt lat="41.079082991927862" lon="-8.178505981341004">
        <ele>371.20999999999998</ele>
        <time>2025-05-03T12:00:50Z</time>
      </trkpt>
      <trkpt lat="41.079106964170933" lon="-8.178610000759363">
        <ele>371.69</ele>
        <time>2025-05-03T12:00:51Z</time>
      </trkpt>
      <trkpt lat="41.079149041324854" lon="-8.178790966048837">
        <ele>371.69</ele>
        <time>2025-05-03T12:00:52Z</time>
      </trkpt>
      <trkpt lat="41.079193968325853" lon="-8.178980983793736">
        <ele>371.69</ele>
        <time>2025-05-03T12:00:53Z</time>
      </trkpt>
      <trkpt lat="41.079220036044717" lon="-8.17935599014163">
        <ele>372.64999999999998</ele>
        <time>2025-05-03T12:00:55Z</time>
      </trkpt>
      <trkpt lat="41.079193968325853" lon="-8.179518012329936">
        <ele>373.13</ele>
        <time>2025-05-03T12:00:56Z</time>
      </trkpt>
      <trkpt lat="41.079115010797977" lon="-8.179626977071166">
        <ele>373.13</ele>
        <time>2025-05-03T12:00:57Z</time>
      </trkpt>
      <trkpt lat="41.079018032178283" lon="-8.179752035066485">
        <ele>373.13</ele>
        <time>2025-05-03T12:00:58Z</time>
      </trkpt>
      <trkpt lat="41.07890403829515" lon="-8.179872985929251">
        <ele>373.13</ele>
        <time>2025-05-03T12:00:59Z</time>
      </trkpt>
      <trkpt lat="41.078781997784972" lon="-8.180002989247441">
        <ele>373.61000000000001</ele>
        <time>2025-05-03T12:01:00Z</time>
      </trkpt>
      <trkpt lat="41.078660963103175" lon="-8.180153025314212">
        <ele>374.08999999999997</ele>
        <time>2025-05-03T12:01:01Z</time>
      </trkpt>
      <trkpt lat="41.077800979837775" lon="-8.181523969396949">
        <ele>374.56999999999999</ele>
        <time>2025-05-03T12:01:09Z</time>
      </trkpt>
      <trkpt lat="41.077360007911921" lon="-8.182370960712433">
        <ele>374.56999999999999</ele>
        <time>2025-05-03T12:01:16Z</time>
      </trkpt>
      <trkpt lat="41.076870001852512" lon="-8.183482987806201">
        <ele>374.56999999999999</ele>
        <time>2025-05-03T12:01:24Z</time>
      </trkpt>
      <trkpt lat="41.076487032696605" lon="-8.18438496440649">
        <ele>371.69</ele>
        <time>2025-05-03T12:01:30Z</time>
      </trkpt>
      <trkpt lat="41.076382007449865" lon="-8.184471968561411">
        <ele>371.20999999999998</ele>
        <time>2025-05-03T12:01:31Z</time>
      </trkpt>
      <trkpt lat="41.07628402300179" lon="-8.18455402739346">
        <ele>370.73000000000002</ele>
        <time>2025-05-03T12:01:32Z</time>
      </trkpt>
      <trkpt lat="41.075321026146412" lon="-8.185271015390754">
        <ele>368.80000000000001</ele>
        <time>2025-05-03T12:01:41Z</time>
      </trkpt>
      <trkpt lat="41.075233016163111" lon="-8.185385009273887">
        <ele>368.31999999999999</ele>
        <time>2025-05-03T12:01:42Z</time>
      </trkpt>
      <trkpt lat="41.0744150262326" lon="-8.186393016949296">
        <ele>368.31999999999999</ele>
        <time>2025-05-03T12:01:51Z</time>
      </trkpt>
      <trkpt lat="41.073776995763183" lon="-8.18736900575459">
        <ele>366.39999999999998</ele>
        <time>2025-05-03T12:01:59Z</time>
      </trkpt>
      <trkpt lat="41.073392014950514" lon="-8.188005024567246">
        <ele>368.31999999999999</ele>
        <time>2025-05-03T12:02:04Z</time>
      </trkpt>
      <trkpt lat="41.073293024674058" lon="-8.188085993751884">
        <ele>368.80000000000001</ele>
        <time>2025-05-03T12:02:05Z</time>
      </trkpt>
      <trkpt lat="41.073182970285416" lon="-8.188155982643366">
        <ele>368.80000000000001</ele>
        <time>2025-05-03T12:02:06Z</time>
      </trkpt>
      <trkpt lat="41.073069982230663" lon="-8.188226977363229">
        <ele>369.27999999999997</ele>
        <time>2025-05-03T12:02:07Z</time>
      </trkpt>
      <trkpt lat="41.072959005832672" lon="-8.188297972083092">
        <ele>369.27999999999997</ele>
        <time>2025-05-03T12:02:08Z</time>
      </trkpt>
      <trkpt lat="41.072518033906817" lon="-8.188583962619305">
        <ele>369.75999999999999</ele>
        <time>2025-05-03T12:02:12Z</time>
      </trkpt>
      <trkpt lat="41.07241895981133" lon="-8.188682030886412">
        <ele>369.75999999999999</ele>
        <time>2025-05-03T12:02:13Z</time>
      </trkpt>
      <trkpt lat="41.072332039475441" lon="-8.188792001456022">
        <ele>369.75999999999999</ele>
        <time>2025-05-03T12:02:14Z</time>
      </trkpt>
      <trkpt lat="41.072246041148901" lon="-8.188900966197252">
        <ele>369.75999999999999</ele>
        <time>2025-05-03T12:02:15Z</time>
      </trkpt>
      <trkpt lat="41.0721580311656" lon="-8.189013032242656">
        <ele>370.24000000000001</ele>
        <time>2025-05-03T12:02:16Z</time>
      </trkpt>
      <trkpt lat="41.071973964571953" lon="-8.189220987260342">
        <ele>371.20999999999998</ele>
        <time>2025-05-03T12:02:18Z</time>
      </trkpt>
      <trkpt lat="41.0718800034374" lon="-8.189327018335462">
        <ele>372.17000000000002</ele>
        <time>2025-05-03T12:02:19Z</time>
      </trkpt>
      <trkpt lat="41.071595018729568" lon="-8.189637986943126">
        <ele>374.08999999999997</ele>
        <time>2025-05-03T12:02:22Z</time>
      </trkpt>
      <trkpt lat="41.071526035666466" lon="-8.189760027453303">
        <ele>374.56999999999999</ele>
        <time>2025-05-03T12:02:23Z</time>
      </trkpt>
      <trkpt lat="41.071479013189673" lon="-8.18990302272141">
        <ele>375.05000000000001</ele>
        <time>2025-05-03T12:02:24Z</time>
      </trkpt>
      <trkpt lat="41.07142997905612" lon="-8.190048029646277">
        <ele>375.52999999999997</ele>
        <time>2025-05-03T12:02:25Z</time>
      </trkpt>
      <trkpt lat="41.071400977671146" lon="-8.190194964408875">
        <ele>376.49000000000001</ele>
        <time>2025-05-03T12:02:26Z</time>
      </trkpt>
      <trkpt lat="41.071400977671146" lon="-8.190371990203857">
        <ele>376.97000000000003</ele>
        <time>2025-05-03T12:02:27Z</time>
      </trkpt>
      <trkpt lat="41.071440037339926" lon="-8.190508028492332">
        <ele>377.94</ele>
        <time>2025-05-03T12:02:28Z</time>
      </trkpt>
      <trkpt lat="41.071483036503196" lon="-8.190659992396832">
        <ele>378.42000000000002</ele>
        <time>2025-05-03T12:02:29Z</time>
      </trkpt>
      <trkpt lat="41.071527041494846" lon="-8.190812962129712">
        <ele>379.38</ele>
        <time>2025-05-03T12:02:30Z</time>
      </trkpt>
      <trkpt lat="41.071570040658116" lon="-8.190965009853244">
        <ele>379.86000000000001</ele>
        <time>2025-05-03T12:02:31Z</time>
      </trkpt>
      <trkpt lat="41.071656960994005" lon="-8.19108797237277">
        <ele>380.33999999999997</ele>
        <time>2025-05-03T12:02:32Z</time>
      </trkpt>
      <trkpt lat="41.071743965148926" lon="-8.191209007054567">
        <ele>381.30000000000001</ele>
        <time>2025-05-03T12:02:33Z</time>
      </trkpt>
      <trkpt lat="41.071829963475466" lon="-8.191285030916333">
        <ele>381.77999999999997</ele>
        <time>2025-05-03T12:02:34Z</time>
      </trkpt>
      <trkpt lat="41.072306977584958" lon="-8.191741006448865">
        <ele>385.14999999999998</ele>
        <time>2025-05-03T12:02:39Z</time>
      </trkpt>
      <trkpt lat="41.072401022538543" lon="-8.191842008382082">
        <ele>385.63</ele>
        <time>2025-05-03T12:02:40Z</time>
      </trkpt>
      <trkpt lat="41.072463970631361" lon="-8.191968994215131">
        <ele>386.11000000000001</ele>
        <time>2025-05-03T12:02:41Z</time>
      </trkpt>
      <trkpt lat="41.072518033906817" lon="-8.192124981433153">
        <ele>386.58999999999997</ele>
        <time>2025-05-03T12:02:42Z</time>
      </trkpt>
      <trkpt lat="41.072572013363242" lon="-8.192279962822795">
        <ele>387.06999999999999</ele>
        <time>2025-05-03T12:02:43Z</time>
      </trkpt>
      <trkpt lat="41.073146006092429" lon="-8.193659037351608">
        <ele>385.63</ele>
        <time>2025-05-03T12:02:53Z</time>
      </trkpt>
      <trkpt lat="41.073230998590589" lon="-8.193747969344258">
        <ele>385.14999999999998</ele>
        <time>2025-05-03T12:02:54Z</time>
      </trkpt>
      <trkpt lat="41.073340969160199" lon="-8.193776970729232">
        <ele>384.18000000000001</ele>
        <time>2025-05-03T12:02:55Z</time>
      </trkpt>
      <trkpt lat="41.073454963043332" lon="-8.193806977942586">
        <ele>383.69999999999999</ele>
        <time>2025-05-03T12:02:56Z</time>
      </trkpt>
      <trkpt lat="41.073571974411607" lon="-8.193837990984321">
        <ele>382.74000000000001</ele>
        <time>2025-05-03T12:02:57Z</time>
      </trkpt>
      <trkpt lat="41.075004022568464" lon="-8.194154994562268">
        <ele>376.00999999999999</ele>
        <time>2025-05-03T12:03:09Z</time>
      </trkpt>
      <trkpt lat="41.075246008113027" lon="-8.194233030080795">
        <ele>375.52999999999997</ele>
        <time>2025-05-03T12:03:11Z</time>
      </trkpt>
      <trkpt lat="41.075358996167779" lon="-8.194300001487136">
        <ele>375.52999999999997</ele>
        <time>2025-05-03T12:03:12Z</time>
      </trkpt>
      <trkpt lat="41.075499979779124" lon="-8.194384993985295">
        <ele>375.52999999999997</ele>
        <time>2025-05-03T12:03:13Z</time>
      </trkpt>
      <trkpt lat="41.07557499781251" lon="-8.194460012018681">
        <ele>375.52999999999997</ele>
        <time>2025-05-03T12:03:14Z</time>
      </trkpt>
      <trkpt lat="41.075673988088965" lon="-8.194559002295137">
        <ele>375.52999999999997</ele>
        <time>2025-05-03T12:03:15Z</time>
      </trkpt>
      <trkpt lat="41.075772978365421" lon="-8.194647012278438">
        <ele>375.05000000000001</ele>
        <time>2025-05-03T12:03:16Z</time>
      </trkpt>
      <trkpt lat="41.075882026925683" lon="-8.194721024483442">
        <ele>375.05000000000001</ele>
        <time>2025-05-03T12:03:17Z</time>
      </trkpt>
      <trkpt lat="41.075993003323674" lon="-8.194796964526177">
        <ele>375.05000000000001</ele>
        <time>2025-05-03T12:03:18Z</time>
      </trkpt>
      <trkpt lat="41.076987013220787" lon="-8.195449998602271">
        <ele>373.13</ele>
        <time>2025-05-03T12:03:27Z</time>
      </trkpt>
      <trkpt lat="41.07707804068923" lon="-8.195552006363869">
        <ele>373.13</ele>
        <time>2025-05-03T12:03:28Z</time>
      </trkpt>
      <trkpt lat="41.077125985175371" lon="-8.195692989975214">
        <ele>372.64999999999998</ele>
        <time>2025-05-03T12:03:29Z</time>
      </trkpt>
      <trkpt lat="41.077147023752332" lon="-8.195828022435308">
        <ele>372.17000000000002</ele>
        <time>2025-05-03T12:03:30Z</time>
      </trkpt>
      <trkpt lat="41.077173007652164" lon="-8.195993984118104">
        <ele>371.69</ele>
        <time>2025-05-03T12:03:31Z</time>
      </trkpt>
      <trkpt lat="41.077173007652164" lon="-8.196098003536463">
        <ele>371.20999999999998</ele>
        <time>2025-05-03T12:03:32Z</time>
      </trkpt>
      <trkpt lat="41.077199997380376" lon="-8.196215014904738">
        <ele>370.24000000000001</ele>
        <time>2025-05-03T12:03:33Z</time>
      </trkpt>
      <trkpt lat="41.077248025685549" lon="-8.196344012394548">
        <ele>369.75999999999999</ele>
        <time>2025-05-03T12:03:34Z</time>
      </trkpt>
      <trkpt lat="41.077297981828451" lon="-8.196476027369499">
        <ele>368.80000000000001</ele>
        <time>2025-05-03T12:03:35Z</time>
      </trkpt>
      <trkpt lat="41.077378029003739" lon="-8.196554984897375">
        <ele>368.31999999999999</ele>
        <time>2025-05-03T12:03:36Z</time>
      </trkpt>
      <trkpt lat="41.077474001795053" lon="-8.196639977395535">
        <ele>368.31999999999999</ele>
        <time>2025-05-03T12:03:37Z</time>
      </trkpt>
      <trkpt lat="41.077572992071509" lon="-8.196728993207216">
        <ele>367.36000000000001</ele>
        <time>2025-05-03T12:03:38Z</time>
      </trkpt>
      <trkpt lat="41.07869298197329" lon="-8.197396025061607">
        <ele>359.67000000000002</ele>
        <time>2025-05-03T12:03:48Z</time>
      </trkpt>
      <trkpt lat="41.078891968354583" lon="-8.197499038651586">
        <ele>358.23000000000002</ele>
        <time>2025-05-03T12:03:50Z</time>
      </trkpt>
      <trkpt lat="41.078991964459419" lon="-8.197568021714687">
        <ele>357.26999999999998</ele>
        <time>2025-05-03T12:03:51Z</time>
      </trkpt>
      <trkpt lat="41.079104030504823" lon="-8.197645973414183">
        <ele>356.79000000000002</ele>
        <time>2025-05-03T12:03:52Z</time>
      </trkpt>
      <trkpt lat="41.079190028831363" lon="-8.197748987004161">
        <ele>356.31</ele>
        <time>2025-05-03T12:03:53Z</time>
      </trkpt>
      <trkpt lat="41.079281978309155" lon="-8.197858035564423">
        <ele>355.82999999999998</ele>
        <time>2025-05-03T12:03:54Z</time>
      </trkpt>
      <trkpt lat="41.080006007105112" lon="-8.198689017444849">
        <ele>350.06</ele>
        <time>2025-05-03T12:04:02Z</time>
      </trkpt>
      <trkpt lat="41.080120000988245" lon="-8.198724975809455">
        <ele>349.10000000000002</ele>
        <time>2025-05-03T12:04:03Z</time>
      </trkpt>
      <trkpt lat="41.080242041498423" lon="-8.198762023821473">
        <ele>347.64999999999998</ele>
        <time>2025-05-03T12:04:04Z</time>
      </trkpt>
      <trkpt lat="41.080336002632976" lon="-8.198711983859539">
        <ele>346.20999999999998</ele>
        <time>2025-05-03T12:04:05Z</time>
      </trkpt>
      <trkpt lat="41.080435998737812" lon="-8.198659010231495">
        <ele>345.25</ele>
        <time>2025-05-03T12:04:06Z</time>
      </trkpt>
      <trkpt lat="41.080542029812932" lon="-8.198603019118309">
        <ele>344.29000000000002</ele>
        <time>2025-05-03T12:04:07Z</time>
      </trkpt>
      <trkpt lat="41.080645965412259" lon="-8.198582986369729">
        <ele>343.81</ele>
        <time>2025-05-03T12:04:08Z</time>
      </trkpt>
      <trkpt lat="41.080744033679366" lon="-8.198619028553367">
        <ele>343.32999999999998</ele>
        <time>2025-05-03T12:04:09Z</time>
      </trkpt>
      <trkpt lat="41.080846963450313" lon="-8.198665967211127">
        <ele>343.32999999999998</ele>
        <time>2025-05-03T12:04:10Z</time>
      </trkpt>
      <trkpt lat="41.080894991755486" lon="-8.198778033256531">
        <ele>342.85000000000002</ele>
        <time>2025-05-03T12:04:11Z</time>
      </trkpt>
      <trkpt lat="41.080918963998556" lon="-8.19890501908958">
        <ele>342.85000000000002</ele>
        <time>2025-05-03T12:04:12Z</time>
      </trkpt>
      <trkpt lat="41.080903960391879" lon="-8.199025969952345">
        <ele>342.37</ele>
        <time>2025-05-03T12:04:13Z</time>
      </trkpt>
      <trkpt lat="41.080852998420596" lon="-8.199127977713943">
        <ele>342.37</ele>
        <time>2025-05-03T12:04:14Z</time>
      </trkpt>
      <trkpt lat="41.080777980387211" lon="-8.199277007952333">
        <ele>341.88999999999999</ele>
        <time>2025-05-03T12:04:15Z</time>
      </trkpt>
      <trkpt lat="41.080718971788883" lon="-8.199340039864183">
        <ele>341.41000000000003</ele>
        <time>2025-05-03T12:04:16Z</time>
      </trkpt>
      <trkpt lat="41.080477992072701" lon="-8.199599040672183">
        <ele>340.44</ele>
        <time>2025-05-03T12:04:19Z</time>
      </trkpt>
      <trkpt lat="41.080361986532807" lon="-8.199650002643466">
        <ele>339.95999999999998</ele>
        <time>2025-05-03T12:04:20Z</time>
      </trkpt>
      <trkpt lat="41.080264002084732" lon="-8.199694007635117">
        <ele>339.48000000000002</ele>
        <time>2025-05-03T12:04:21Z</time>
      </trkpt>
      <trkpt lat="41.079364959150553" lon="-8.200133973732591">
        <ele>335.63999999999999</ele>
        <time>2025-05-03T12:04:29Z</time>
      </trkpt>
      <trkpt lat="41.079046027734876" lon="-8.200294990092516">
        <ele>333.70999999999998</ele>
        <time>2025-05-03T12:04:32Z</time>
      </trkpt>
      <trkpt lat="41.078953994438052" lon="-8.200370008125901">
        <ele>332.75</ele>
        <time>2025-05-03T12:04:33Z</time>
      </trkpt>
      <trkpt lat="41.07886397279799" lon="-8.200443014502525">
        <ele>331.79000000000002</ele>
        <time>2025-05-03T12:04:34Z</time>
      </trkpt>
      <trkpt lat="41.078794989734888" lon="-8.200561031699181">
        <ele>330.82999999999998</ele>
        <time>2025-05-03T12:04:35Z</time>
      </trkpt>
      <trkpt lat="41.078748973086476" lon="-8.200691035017371">
        <ele>329.87</ele>
        <time>2025-05-03T12:04:36Z</time>
      </trkpt>
      <trkpt lat="41.078721983358264" lon="-8.200824977830052">
        <ele>328.91000000000003</ele>
        <time>2025-05-03T12:04:37Z</time>
      </trkpt>
      <trkpt lat="41.078727012500167" lon="-8.200955986976624">
        <ele>327.94999999999999</ele>
        <time>2025-05-03T12:04:38Z</time>
      </trkpt>
      <trkpt lat="41.078740004450083" lon="-8.201122032478452">
        <ele>327.47000000000003</ele>
        <time>2025-05-03T12:04:39Z</time>
      </trkpt>
      <trkpt lat="41.078761965036392" lon="-8.201237032189965">
        <ele>326.99000000000001</ele>
        <time>2025-05-03T12:04:40Z</time>
      </trkpt>
      <trkpt lat="41.078789960592985" lon="-8.201382961124182">
        <ele>326.5</ele>
        <time>2025-05-03T12:04:41Z</time>
      </trkpt>
      <trkpt lat="41.078818961977959" lon="-8.201531991362572">
        <ele>326.01999999999998</ele>
        <time>2025-05-03T12:04:42Z</time>
      </trkpt>
      <trkpt lat="41.078847963362932" lon="-8.201683033257723">
        <ele>325.54000000000002</ele>
        <time>2025-05-03T12:04:43Z</time>
      </trkpt>
      <trkpt lat="41.078996993601322" lon="-8.202299019321799">
        <ele>323.62</ele>
        <time>2025-05-03T12:04:47Z</time>
      </trkpt>
      <trkpt lat="41.079038986936212" lon="-8.202448971569538">
        <ele>323.13999999999999</ele>
        <time>2025-05-03T12:04:48Z</time>
      </trkpt>
      <trkpt lat="41.079005962237716" lon="-8.20262499153614">
        <ele>322.66000000000003</ele>
        <time>2025-05-03T12:04:49Z</time>
      </trkpt>
      <trkpt lat="41.078973021358252" lon="-8.202786007896066">
        <ele>322.66000000000003</ele>
        <time>2025-05-03T12:04:50Z</time>
      </trkpt>
      <trkpt lat="41.078942008316517" lon="-8.20294501259923">
        <ele>322.18000000000001</ele>
        <time>2025-05-03T12:04:51Z</time>
      </trkpt>
      <trkpt lat="41.078615030273795" lon="-8.204325009137392">
        <ele>319.77999999999997</ele>
        <time>2025-05-03T12:05:00Z</time>
      </trkpt>
      <trkpt lat="41.078547975048423" lon="-8.204635977745056">
        <ele>318.32999999999998</ele>
        <time>2025-05-03T12:05:02Z</time>
      </trkpt>
      <trkpt lat="41.078358963131905" lon="-8.205219022929668">
        <ele>317.37</ele>
        <time>2025-05-03T12:05:06Z</time>
      </trkpt>
      <trkpt lat="41.078271036967635" lon="-8.205333016812801">
        <ele>316.88999999999999</ele>
        <time>2025-05-03T12:05:07Z</time>
      </trkpt>
      <trkpt lat="41.078180009499192" lon="-8.205427983775735">
        <ele>316.88999999999999</ele>
        <time>2025-05-03T12:05:08Z</time>
      </trkpt>
      <trkpt lat="41.077747000381351" lon="-8.205752028152347">
        <ele>315.93000000000001</ele>
        <time>2025-05-03T12:05:12Z</time>
      </trkpt>
      <trkpt lat="41.077636023983359" lon="-8.205807013437152">
        <ele>315.44999999999999</ele>
        <time>2025-05-03T12:05:13Z</time>
      </trkpt>
      <trkpt lat="41.077517000958323" lon="-8.205834003165364">
        <ele>315.44999999999999</ele>
        <time>2025-05-03T12:05:14Z</time>
      </trkpt>
      <trkpt lat="41.077151969075203" lon="-8.205920001491904">
        <ele>314.49000000000001</ele>
        <time>2025-05-03T12:05:17Z</time>
      </trkpt>
      <trkpt lat="41.077044010162354" lon="-8.205950008705258">
        <ele>314.00999999999999</ele>
        <time>2025-05-03T12:05:18Z</time>
      </trkpt>
      <trkpt lat="41.076944014057517" lon="-8.206079006195068">
        <ele>313.52999999999997</ele>
        <time>2025-05-03T12:05:19Z</time>
      </trkpt>
      <trkpt lat="41.076893974095583" lon="-8.206142960116267">
        <ele>312.56999999999999</ele>
        <time>2025-05-03T12:05:20Z</time>
      </trkpt>
      <trkpt lat="41.076845023781061" lon="-8.206315040588379">
        <ele>311.60000000000002</ele>
        <time>2025-05-03T12:05:21Z</time>
      </trkpt>
      <trkpt lat="41.076801018789411" lon="-8.20646901614964">
        <ele>310.63999999999999</ele>
        <time>2025-05-03T12:05:22Z</time>
      </trkpt>
      <trkpt lat="41.076621981337667" lon="-8.207255993038416">
        <ele>307.75999999999999</ele>
        <time>2025-05-03T12:05:27Z</time>
      </trkpt>
      <trkpt lat="41.076593985781074" lon="-8.207431007176638">
        <ele>307.75999999999999</ele>
        <time>2025-05-03T12:05:28Z</time>
      </trkpt>
      <trkpt lat="41.076619969680905" lon="-8.207547012716532">
        <ele>307.75999999999999</ele>
        <time>2025-05-03T12:05:29Z</time>
      </trkpt>
      <trkpt lat="41.076679984107614" lon="-8.207661006599665">
        <ele>306.80000000000001</ele>
        <time>2025-05-03T12:05:30Z</time>
      </trkpt>
      <trkpt lat="41.076746033504605" lon="-8.207771982997656">
        <ele>305.83999999999997</ele>
        <time>2025-05-03T12:05:31Z</time>
      </trkpt>
      <trkpt lat="41.076811999082565" lon="-8.207883965224028">
        <ele>304.88</ele>
        <time>2025-05-03T12:05:32Z</time>
      </trkpt>
      <trkpt lat="41.076878970488906" lon="-8.207997037097812">
        <ele>304.88</ele>
        <time>2025-05-03T12:05:33Z</time>
      </trkpt>
      <trkpt lat="41.076940996572375" lon="-8.208125028759241">
        <ele>303.91000000000003</ele>
        <time>2025-05-03T12:05:34Z</time>
      </trkpt>
      <trkpt lat="41.076957006007433" lon="-8.208253020420671">
        <ele>303.43000000000001</ele>
        <time>2025-05-03T12:05:35Z</time>
      </trkpt>
      <trkpt lat="41.076924987137318" lon="-8.208392998203635">
        <ele>302.47000000000003</ele>
        <time>2025-05-03T12:05:36Z</time>
      </trkpt>
      <trkpt lat="41.076894979923964" lon="-8.208507997915149">
        <ele>301.99000000000001</ele>
        <time>2025-05-03T12:05:37Z</time>
      </trkpt>
      <trkpt lat="41.076862961053848" lon="-8.20861897431314">
        <ele>301.50999999999999</ele>
        <time>2025-05-03T12:05:38Z</time>
      </trkpt>
      <trkpt lat="41.076753996312618" lon="-8.208946036174893">
        <ele>299.11000000000001</ele>
        <time>2025-05-03T12:05:41Z</time>
      </trkpt>
      <trkpt lat="41.076696999371052" lon="-8.209053995087743">
        <ele>298.63</ele>
        <time>2025-05-03T12:05:42Z</time>
      </trkpt>
      <trkpt lat="41.076632961630821" lon="-8.209161031991243">
        <ele>297.67000000000002</ele>
        <time>2025-05-03T12:05:43Z</time>
      </trkpt>
      <trkpt lat="41.076571019366384" lon="-8.20926396176219">
        <ele>296.69999999999999</ele>
        <time>2025-05-03T12:05:44Z</time>
      </trkpt>
      <trkpt lat="41.076506981626153" lon="-8.209372004494071">
        <ele>296.22000000000003</ele>
        <time>2025-05-03T12:05:45Z</time>
      </trkpt>
      <trkpt lat="41.076226020231843" lon="-8.209705017507076">
        <ele>294.30000000000001</ele>
        <time>2025-05-03T12:05:48Z</time>
      </trkpt>
      <trkpt lat="41.075722016394138" lon="-8.210270963609219">
        <ele>290.45999999999998</ele>
        <time>2025-05-03T12:05:53Z</time>
      </trkpt>
      <trkpt lat="41.075657978653908" lon="-8.210425022989512">
        <ele>289.49000000000001</ele>
        <time>2025-05-03T12:05:54Z</time>
      </trkpt>
      <trkpt lat="41.075637023895979" lon="-8.210584027692676">
        <ele>289.00999999999999</ele>
        <time>2025-05-03T12:05:55Z</time>
      </trkpt>
      <trkpt lat="41.075663007795811" lon="-8.210750995203853">
        <ele>288.52999999999997</ele>
        <time>2025-05-03T12:05:56Z</time>
      </trkpt>
      <trkpt lat="41.075714975595474" lon="-8.210901031270623">
        <ele>288.05000000000001</ele>
        <time>2025-05-03T12:05:57Z</time>
      </trkpt>
      <trkpt lat="41.075764009729028" lon="-8.211046038195491">
        <ele>287.56999999999999</ele>
        <time>2025-05-03T12:05:58Z</time>
      </trkpt>
      <trkpt lat="41.07581396587193" lon="-8.211190039291978">
        <ele>287.08999999999997</ele>
        <time>2025-05-03T12:05:59Z</time>
      </trkpt>
      <trkpt lat="41.075863000005484" lon="-8.211334040388465">
        <ele>286.13</ele>
        <time>2025-05-03T12:06:00Z</time>
      </trkpt>
      <trkpt lat="41.075872974470258" lon="-8.211438981816173">
        <ele>285.17000000000002</ele>
        <time>2025-05-03T12:06:01Z</time>
      </trkpt>
      <trkpt lat="41.075830981135368" lon="-8.211573008447886">
        <ele>284.20999999999998</ele>
        <time>2025-05-03T12:06:02Z</time>
      </trkpt>
      <trkpt lat="41.075786976143718" lon="-8.21171198040247">
        <ele>283.25</ele>
        <time>2025-05-03T12:06:03Z</time>
      </trkpt>
      <trkpt lat="41.075740959495306" lon="-8.211856987327337">
        <ele>282.27999999999997</ele>
        <time>2025-05-03T12:06:04Z</time>
      </trkpt>
      <trkpt lat="41.075736014172435" lon="-8.212024960666895">
        <ele>281.31999999999999</ele>
        <time>2025-05-03T12:06:05Z</time>
      </trkpt>
      <trkpt lat="41.075736014172435" lon="-8.212215984240174">
        <ele>280.36000000000001</ele>
        <time>2025-05-03T12:06:06Z</time>
      </trkpt>
      <trkpt lat="41.075781024992466" lon="-8.212339030578733">
        <ele>279.88</ele>
        <time>2025-05-03T12:06:07Z</time>
      </trkpt>
      <trkpt lat="41.07583299279213" lon="-8.21248303167522">
        <ele>279.39999999999998</ele>
        <time>2025-05-03T12:06:08Z</time>
      </trkpt>
      <trkpt lat="41.075886972248554" lon="-8.212628038600087">
        <ele>279.39999999999998</ele>
        <time>2025-05-03T12:06:09Z</time>
      </trkpt>
      <trkpt lat="41.07594002969563" lon="-8.212772961705923">
        <ele>278.92000000000002</ele>
        <time>2025-05-03T12:06:10Z</time>
      </trkpt>
      <trkpt lat="41.075964001938701" lon="-8.212918974459171">
        <ele>278.44</ele>
        <time>2025-05-03T12:06:11Z</time>
      </trkpt>
      <trkpt lat="41.075942041352391" lon="-8.213079990819097">
        <ele>277.95999999999998</ele>
        <time>2025-05-03T12:06:12Z</time>
      </trkpt>
      <trkpt lat="41.075904993340373" lon="-8.213241007179022">
        <ele>277</ele>
        <time>2025-05-03T12:06:13Z</time>
      </trkpt>
      <trkpt lat="41.075841961428523" lon="-8.213400011882186">
        <ele>276.04000000000002</ele>
        <time>2025-05-03T12:06:14Z</time>
      </trkpt>
      <trkpt lat="41.075701983645558" lon="-8.213706035166979">
        <ele>275.06999999999999</ele>
        <time>2025-05-03T12:06:16Z</time>
      </trkpt>
      <trkpt lat="41.075624031946063" lon="-8.213838972151279">
        <ele>275.06999999999999</ele>
        <time>2025-05-03T12:06:17Z</time>
      </trkpt>
      <trkpt lat="41.075521018356085" lon="-8.213916001841426">
        <ele>274.58999999999997</ele>
        <time>2025-05-03T12:06:18Z</time>
      </trkpt>
      <trkpt lat="41.07540400698781" lon="-8.213980961591005">
        <ele>274.11000000000001</ele>
        <time>2025-05-03T12:06:19Z</time>
      </trkpt>
      <trkpt lat="41.075278026983142" lon="-8.214051034301519">
        <ele>273.14999999999998</ele>
        <time>2025-05-03T12:06:20Z</time>
      </trkpt>
      <trkpt lat="41.07516503892839" lon="-8.214152958244085">
        <ele>272.67000000000002</ele>
        <time>2025-05-03T12:06:21Z</time>
      </trkpt>
      <trkpt lat="41.075064036995173" lon="-8.214282039552927">
        <ele>271.70999999999998</ele>
        <time>2025-05-03T12:06:22Z</time>
      </trkpt>
      <trkpt lat="41.074965968728065" lon="-8.214423023164272">
        <ele>271.23000000000002</ele>
        <time>2025-05-03T12:06:23Z</time>
      </trkpt>
      <trkpt lat="41.074893968179822" lon="-8.214579010382295">
        <ele>270.75</ele>
        <time>2025-05-03T12:06:24Z</time>
      </trkpt>
      <trkpt lat="41.074799001216888" lon="-8.214889978989959">
        <ele>268.82999999999998</ele>
        <time>2025-05-03T12:06:26Z</time>
      </trkpt>
      <trkpt lat="41.074775028973818" lon="-8.215029034763575">
        <ele>268.35000000000002</ele>
        <time>2025-05-03T12:06:27Z</time>
      </trkpt>
      <trkpt lat="41.074805958196521" lon="-8.215174963697791">
        <ele>267.86000000000001</ele>
        <time>2025-05-03T12:06:28Z</time>
      </trkpt>
      <trkpt lat="41.074837977066636" lon="-8.215320976451039">
        <ele>267.38</ele>
        <time>2025-05-03T12:06:29Z</time>
      </trkpt>
      <trkpt lat="41.074869995936751" lon="-8.215473024174571">
        <ele>266.89999999999998</ele>
        <time>2025-05-03T12:06:30Z</time>
      </trkpt>
      <trkpt lat="41.074889022856951" lon="-8.215637980028987">
        <ele>265.94</ele>
        <time>2025-05-03T12:06:31Z</time>
      </trkpt>
      <trkpt lat="41.074843006208539" lon="-8.215784998610616">
        <ele>265.45999999999998</ele>
        <time>2025-05-03T12:06:32Z</time>
      </trkpt>
      <trkpt lat="41.074791038408875" lon="-8.215950038284063">
        <ele>264.5</ele>
        <time>2025-05-03T12:06:33Z</time>
      </trkpt>
      <trkpt lat="41.074725994840264" lon="-8.216086998581886">
        <ele>263.54000000000002</ele>
        <time>2025-05-03T12:06:34Z</time>
      </trkpt>
      <trkpt lat="41.074649970978498" lon="-8.216249020770192">
        <ele>262.57999999999998</ele>
        <time>2025-05-03T12:06:35Z</time>
      </trkpt>
      <trkpt lat="41.074238000437617" lon="-8.217182010412216">
        <ele>258.25</ele>
        <time>2025-05-03T12:06:41Z</time>
      </trkpt>
      <trkpt lat="41.074208999052644" lon="-8.217345960438252">
        <ele>257.29000000000002</ele>
        <time>2025-05-03T12:06:42Z</time>
      </trkpt>
      <trkpt lat="41.074207993224263" lon="-8.217515023425221">
        <ele>256.81</ele>
        <time>2025-05-03T12:06:43Z</time>
      </trkpt>
      <trkpt lat="41.074249986559153" lon="-8.217671010643244">
        <ele>256.32999999999998</ele>
        <time>2025-05-03T12:06:44Z</time>
      </trkpt>
      <trkpt lat="41.074289968237281" lon="-8.217820040881634">
        <ele>256.32999999999998</ele>
        <time>2025-05-03T12:06:45Z</time>
      </trkpt>
      <trkpt lat="41.07432802207768" lon="-8.21796303614974">
        <ele>255.84999999999999</ele>
        <time>2025-05-03T12:06:46Z</time>
      </trkpt>
      <trkpt lat="41.074320981279016" lon="-8.218107037246227">
        <ele>255.37</ele>
        <time>2025-05-03T12:06:47Z</time>
      </trkpt>
      <trkpt lat="41.074290974065661" lon="-8.218261012807488">
        <ele>254.41</ele>
        <time>2025-05-03T12:06:48Z</time>
      </trkpt>
      <trkpt lat="41.074232971295714" lon="-8.218389004468918">
        <ele>253.93000000000001</ele>
        <time>2025-05-03T12:06:49Z</time>
      </trkpt>
      <trkpt lat="41.074144961312413" lon="-8.218507021665573">
        <ele>252.96000000000001</ele>
        <time>2025-05-03T12:06:50Z</time>
      </trkpt>
      <trkpt lat="41.07405100017786" lon="-8.21860802359879">
        <ele>252</ele>
        <time>2025-05-03T12:06:51Z</time>
      </trkpt>
      <trkpt lat="41.073932982981205" lon="-8.218681029975414">
        <ele>251.52000000000001</ele>
        <time>2025-05-03T12:06:52Z</time>
      </trkpt>
      <trkpt lat="41.073809014633298" lon="-8.218756970018148">
        <ele>251.03999999999999</ele>
        <time>2025-05-03T12:06:53Z</time>
      </trkpt>
      <trkpt lat="41.073684962466359" lon="-8.218836011365056">
        <ele>250.08000000000001</ele>
        <time>2025-05-03T12:06:54Z</time>
      </trkpt>
      <trkpt lat="41.073571974411607" lon="-8.21893198415637">
        <ele>249.59999999999999</ele>
        <time>2025-05-03T12:06:55Z</time>
      </trkpt>
      <trkpt lat="41.073489999398589" lon="-8.219068022444844">
        <ele>249.12</ele>
        <time>2025-05-03T12:06:56Z</time>
      </trkpt>
      <trkpt lat="41.07342797331512" lon="-8.219215963035822">
        <ele>248.63999999999999</ele>
        <time>2025-05-03T12:06:57Z</time>
      </trkpt>
      <trkpt lat="41.073388997465372" lon="-8.219386031851172">
        <ele>248.63999999999999</ele>
        <time>2025-05-03T12:06:58Z</time>
      </trkpt>
      <trkpt lat="41.073347004130483" lon="-8.219566997140646">
        <ele>248.16</ele>
        <time>2025-05-03T12:06:59Z</time>
      </trkpt>
      <trkpt lat="41.073302999138832" lon="-8.219755003228784">
        <ele>247.68000000000001</ele>
        <time>2025-05-03T12:07:00Z</time>
      </trkpt>
      <trkpt lat="41.07325698249042" lon="-8.219952983781695">
        <ele>247.68000000000001</ele>
        <time>2025-05-03T12:07:01Z</time>
      </trkpt>
      <trkpt lat="41.073209960013628" lon="-8.22015599347651">
        <ele>247.19999999999999</ele>
        <time>2025-05-03T12:07:02Z</time>
      </trkpt>
      <trkpt lat="41.073163021355867" lon="-8.220355985686183">
        <ele>246.72</ele>
        <time>2025-05-03T12:07:03Z</time>
      </trkpt>
      <trkpt lat="41.073075011372566" lon="-8.2207350153476">
        <ele>245.75</ele>
        <time>2025-05-03T12:07:05Z</time>
      </trkpt>
      <trkpt lat="41.073098983615637" lon="-8.220940036699176">
        <ele>245.27000000000001</ele>
        <time>2025-05-03T12:07:06Z</time>
      </trkpt>
      <trkpt lat="41.073123961687088" lon="-8.221141034737229">
        <ele>245.27000000000001</ele>
        <time>2025-05-03T12:07:07Z</time>
      </trkpt>
      <trkpt lat="41.073254970833659" lon="-8.221717961132526">
        <ele>244.78999999999999</ele>
        <time>2025-05-03T12:07:10Z</time>
      </trkpt>
      <trkpt lat="41.073352033272386" lon="-8.22208902798593">
        <ele>244.78999999999999</ele>
        <time>2025-05-03T12:07:12Z</time>
      </trkpt>
      <trkpt lat="41.073396960273385" lon="-8.22226102463901">
        <ele>244.78999999999999</ele>
        <time>2025-05-03T12:07:13Z</time>
      </trkpt>
      <trkpt lat="41.073402995243669" lon="-8.222436038777232">
        <ele>244.31</ele>
        <time>2025-05-03T12:07:14Z</time>
      </trkpt>
      <trkpt lat="41.073374999687076" lon="-8.222610969096422">
        <ele>243.83000000000001</ele>
        <time>2025-05-03T12:07:15Z</time>
      </trkpt>
      <trkpt lat="41.073345998302102" lon="-8.222792018204927">
        <ele>243.34999999999999</ele>
        <time>2025-05-03T12:07:16Z</time>
      </trkpt>
      <trkpt lat="41.073314985260367" lon="-8.222977006807923">
        <ele>242.38999999999999</ele>
        <time>2025-05-03T12:07:17Z</time>
      </trkpt>
      <trkpt lat="41.073289001360536" lon="-8.223138023167849">
        <ele>241.43000000000001</ele>
        <time>2025-05-03T12:07:18Z</time>
      </trkpt>
      <trkpt lat="41.073289001360536" lon="-8.223351007327437">
        <ele>240.47</ele>
        <time>2025-05-03T12:07:19Z</time>
      </trkpt>
      <trkpt lat="41.073322026059031" lon="-8.22352803312242">
        <ele>239.02000000000001</ele>
        <time>2025-05-03T12:07:20Z</time>
      </trkpt>
      <trkpt lat="41.073373993858695" lon="-8.223706986755133">
        <ele>238.06</ele>
        <time>2025-05-03T12:07:21Z</time>
      </trkpt>
      <trkpt lat="41.073426967486739" lon="-8.223891975358129">
        <ele>236.62</ele>
        <time>2025-05-03T12:07:22Z</time>
      </trkpt>
      <trkpt lat="41.073774984106421" lon="-8.225244982168078">
        <ele>228.44999999999999</ele>
        <time>2025-05-03T12:07:29Z</time>
      </trkpt>
      <trkpt lat="41.073761992156506" lon="-8.225441034883261">
        <ele>227.97</ele>
        <time>2025-05-03T12:07:30Z</time>
      </trkpt>
      <trkpt lat="41.073741037398577" lon="-8.225599033758044">
        <ele>227.00999999999999</ele>
        <time>2025-05-03T12:07:31Z</time>
      </trkpt>
      <trkpt lat="41.073655039072037" lon="-8.225721996277571">
        <ele>226.05000000000001</ele>
        <time>2025-05-03T12:07:32Z</time>
      </trkpt>
      <trkpt lat="41.073567029088736" lon="-8.225844036787748">
        <ele>225.56999999999999</ele>
        <time>2025-05-03T12:07:33Z</time>
      </trkpt>
      <trkpt lat="41.073464015498757" lon="-8.225959036499262">
        <ele>224.61000000000001</ele>
        <time>2025-05-03T12:07:34Z</time>
      </trkpt>
      <trkpt lat="41.073253965005279" lon="-8.226221976801753">
        <ele>223.16</ele>
        <time>2025-05-03T12:07:36Z</time>
      </trkpt>
      <trkpt lat="41.073149023577571" lon="-8.226360026746988">
        <ele>222.68000000000001</ele>
        <time>2025-05-03T12:07:37Z</time>
      </trkpt>
      <trkpt lat="41.073052966967225" lon="-8.226485000923276">
        <ele>221.72</ele>
        <time>2025-05-03T12:07:38Z</time>
      </trkpt>
      <trkpt lat="41.072951965034008" lon="-8.226569993421435">
        <ele>220.75999999999999</ele>
        <time>2025-05-03T12:07:39Z</time>
      </trkpt>
      <trkpt lat="41.072859009727836" lon="-8.226592959836125">
        <ele>220.28</ele>
        <time>2025-05-03T12:07:40Z</time>
      </trkpt>
      <trkpt lat="41.072751972824335" lon="-8.226592959836125">
        <ele>219.31999999999999</ele>
        <time>2025-05-03T12:07:41Z</time>
      </trkpt>
      <trkpt lat="41.072640996426344" lon="-8.226583991199732">
        <ele>218.84</ele>
        <time>2025-05-03T12:07:42Z</time>
      </trkpt>
      <trkpt lat="41.072519039735198" lon="-8.226539986208081">
        <ele>217.88</ele>
        <time>2025-05-03T12:07:43Z</time>
      </trkpt>
      <trkpt lat="41.072390964254737" lon="-8.22649497538805">
        <ele>217.40000000000001</ele>
        <time>2025-05-03T12:07:44Z</time>
      </trkpt>
      <trkpt lat="41.072252998128533" lon="-8.226452982053161">
        <ele>216.91</ele>
        <time>2025-05-03T12:07:45Z</time>
      </trkpt>
      <trkpt lat="41.072112014517188" lon="-8.226421969011426">
        <ele>216.43000000000001</ele>
        <time>2025-05-03T12:07:46Z</time>
      </trkpt>
      <trkpt lat="41.071963990107179" lon="-8.226430015638471">
        <ele>215.47</ele>
        <time>2025-05-03T12:07:47Z</time>
      </trkpt>
      <trkpt lat="41.071819989010692" lon="-8.226437978446484">
        <ele>214.99000000000001</ele>
        <time>2025-05-03T12:07:48Z</time>
      </trkpt>
      <trkpt lat="41.071144994348288" lon="-8.226519031450152">
        <ele>209.22</ele>
        <time>2025-05-03T12:07:54Z</time>
      </trkpt>
      <trkpt lat="41.071068970486522" lon="-8.226578962057829">
        <ele>208.25999999999999</ele>
        <time>2025-05-03T12:07:55Z</time>
      </trkpt>
      <trkpt lat="41.070990012958646" lon="-8.226641993969679">
        <ele>207.78</ele>
        <time>2025-05-03T12:07:56Z</time>
      </trkpt>
      <trkpt lat="41.070923963561654" lon="-8.226740984246135">
        <ele>207.30000000000001</ele>
        <time>2025-05-03T12:07:57Z</time>
      </trkpt>
      <trkpt lat="41.070873001590371" lon="-8.226860007271171">
        <ele>206.34</ele>
        <time>2025-05-03T12:07:58Z</time>
      </trkpt>
      <trkpt lat="41.070844000205398" lon="-8.226984981447458">
        <ele>205.86000000000001</ele>
        <time>2025-05-03T12:07:59Z</time>
      </trkpt>
      <trkpt lat="41.070861015468836" lon="-8.227113978937268">
        <ele>204.90000000000001</ele>
        <time>2025-05-03T12:08:00Z</time>
      </trkpt>
      <trkpt lat="41.070879036560655" lon="-8.227250017225742">
        <ele>204.90000000000001</ele>
        <time>2025-05-03T12:08:01Z</time>
      </trkpt>
      <trkpt lat="41.070896973833442" lon="-8.227391000837088">
        <ele>204.41999999999999</ele>
        <time>2025-05-03T12:08:02Z</time>
      </trkpt>
      <trkpt lat="41.071036029607058" lon="-8.228288032114506">
        <ele>202.49000000000001</ele>
        <time>2025-05-03T12:08:08Z</time>
      </trkpt>
      <trkpt lat="41.070997975766659" lon="-8.228438990190625">
        <ele>202.00999999999999</ele>
        <time>2025-05-03T12:08:09Z</time>
      </trkpt>
      <trkpt lat="41.070942990481853" lon="-8.228552984073758">
        <ele>201.53</ele>
        <time>2025-05-03T12:08:10Z</time>
      </trkpt>
      <trkpt lat="41.070877024903893" lon="-8.228677958250046">
        <ele>201.05000000000001</ele>
        <time>2025-05-03T12:08:11Z</time>
      </trkpt>
      <trkpt lat="41.070822039619088" lon="-8.228780971840024">
        <ele>200.56999999999999</ele>
        <time>2025-05-03T12:08:12Z</time>
      </trkpt>
      <trkpt lat="41.070699999108911" lon="-8.228853978216648">
        <ele>199.61000000000001</ele>
        <time>2025-05-03T12:08:13Z</time>
      </trkpt>
      <trkpt lat="41.070600003004074" lon="-8.228910975158215">
        <ele>199.13</ele>
        <time>2025-05-03T12:08:14Z</time>
      </trkpt>
      <trkpt lat="41.070480979979038" lon="-8.228928996250033">
        <ele>198.65000000000001</ele>
        <time>2025-05-03T12:08:15Z</time>
      </trkpt>
      <trkpt lat="41.070361034944654" lon="-8.228947017341852">
        <ele>197.69</ele>
        <time>2025-05-03T12:08:16Z</time>
      </trkpt>
      <trkpt lat="41.070247963070869" lon="-8.22896403260529">
        <ele>197.21000000000001</ele>
        <time>2025-05-03T12:08:17Z</time>
      </trkpt>
      <trkpt lat="41.070132963359356" lon="-8.229000996798277">
        <ele>196.72999999999999</ele>
        <time>2025-05-03T12:08:18Z</time>
      </trkpt>
      <trkpt lat="41.070042019709945" lon="-8.229107027873397">
        <ele>196.25</ele>
        <time>2025-05-03T12:08:19Z</time>
      </trkpt>
      <trkpt lat="41.070005977526307" lon="-8.229189002886415">
        <ele>195.77000000000001</ele>
        <time>2025-05-03T12:08:20Z</time>
      </trkpt>
      <trkpt lat="41.070005977526307" lon="-8.229371979832649">
        <ele>195.28</ele>
        <time>2025-05-03T12:08:21Z</time>
      </trkpt>
      <trkpt lat="41.070005977526307" lon="-8.229525033384562">
        <ele>194.80000000000001</ele>
        <time>2025-05-03T12:08:22Z</time>
      </trkpt>
      <trkpt lat="41.069983011111617" lon="-8.22969501838088">
        <ele>194.31999999999999</ele>
        <time>2025-05-03T12:08:23Z</time>
      </trkpt>
      <trkpt lat="41.069958033040166" lon="-8.22986600920558">
        <ele>193.84</ele>
        <time>2025-05-03T12:08:24Z</time>
      </trkpt>
      <trkpt lat="41.069887038320303" lon="-8.230350986123085">
        <ele>191.91999999999999</ele>
        <time>2025-05-03T12:08:27Z</time>
      </trkpt>
      <trkpt lat="41.069890977814794" lon="-8.230504961684346">
        <ele>191.44</ele>
        <time>2025-05-03T12:08:28Z</time>
      </trkpt>
      <trkpt lat="41.069913022220135" lon="-8.2306610327214">
        <ele>190.96000000000001</ele>
        <time>2025-05-03T12:08:29Z</time>
      </trkpt>
      <trkpt lat="41.070078983902931" lon="-8.231759984046221">
        <ele>187.11000000000001</ele>
        <time>2025-05-03T12:08:36Z</time>
      </trkpt>
      <trkpt lat="41.070091975852847" lon="-8.231870960444212">
        <ele>186.15000000000001</ele>
        <time>2025-05-03T12:08:37Z</time>
      </trkpt>
      <trkpt lat="41.070034978911281" lon="-8.231999035924673">
        <ele>185.66999999999999</ele>
        <time>2025-05-03T12:08:38Z</time>
      </trkpt>
      <trkpt lat="41.069986028596759" lon="-8.232076987624168">
        <ele>185.19</ele>
        <time>2025-05-03T12:08:39Z</time>
      </trkpt>
      <trkpt lat="41.069908998906612" lon="-8.232126021757722">
        <ele>184.71000000000001</ele>
        <time>2025-05-03T12:08:40Z</time>
      </trkpt>
      <trkpt lat="41.069823000580072" lon="-8.232180001214147">
        <ele>184.22999999999999</ele>
        <time>2025-05-03T12:08:41Z</time>
      </trkpt>
      <trkpt lat="41.06887198984623" lon="-8.23270202614367">
        <ele>177.5</ele>
        <time>2025-05-03T12:08:51Z</time>
      </trkpt>
      <trkpt lat="41.06876696459949" lon="-8.232762040570378">
        <ele>177.5</ele>
        <time>2025-05-03T12:08:52Z</time>
      </trkpt>
      <trkpt lat="41.068668980151415" lon="-8.232846027240157">
        <ele>177.02000000000001</ele>
        <time>2025-05-03T12:08:53Z</time>
      </trkpt>
      <trkpt lat="41.0684659704566" lon="-8.233020035549998">
        <ele>176.06</ele>
        <time>2025-05-03T12:08:55Z</time>
      </trkpt>
      <trkpt lat="41.068364968523383" lon="-8.233106033876538">
        <ele>176.06</ele>
        <time>2025-05-03T12:08:56Z</time>
      </trkpt>
      <trkpt lat="41.06824804097414" lon="-8.233130006119609">
        <ele>175.58000000000001</ele>
        <time>2025-05-03T12:08:57Z</time>
      </trkpt>
      <trkpt lat="41.068133041262627" lon="-8.233145009726286">
        <ele>175.09999999999999</ele>
        <time>2025-05-03T12:08:58Z</time>
      </trkpt>
      <trkpt lat="41.068019969388843" lon="-8.233159007504582">
        <ele>174.62</ele>
        <time>2025-05-03T12:08:59Z</time>
      </trkpt>
      <trkpt lat="41.067913016304374" lon="-8.233173005282879">
        <ele>174.13999999999999</ele>
        <time>2025-05-03T12:09:00Z</time>
      </trkpt>
      <trkpt lat="41.06782098300755" lon="-8.233214998617768">
        <ele>173.16999999999999</ele>
        <time>2025-05-03T12:09:01Z</time>
      </trkpt>
      <trkpt lat="41.067741019651294" lon="-8.23328398168087">
        <ele>172.21000000000001</ele>
        <time>2025-05-03T12:09:02Z</time>
      </trkpt>
      <trkpt lat="41.067672958597541" lon="-8.233377020806074">
        <ele>171.72999999999999</ele>
        <time>2025-05-03T12:09:03Z</time>
      </trkpt>
      <trkpt lat="41.067630965262651" lon="-8.233504006639123">
        <ele>170.77000000000001</ele>
        <time>2025-05-03T12:09:04Z</time>
      </trkpt>
      <trkpt lat="41.067591989412904" lon="-8.233652031049132">
        <ele>170.28999999999999</ele>
        <time>2025-05-03T12:09:05Z</time>
      </trkpt>
      <trkpt lat="41.067564999684691" lon="-8.233813969418407">
        <ele>169.81</ele>
        <time>2025-05-03T12:09:06Z</time>
      </trkpt>
      <trkpt lat="41.067491993308067" lon="-8.234315039590001">
        <ele>167.41</ele>
        <time>2025-05-03T12:09:09Z</time>
      </trkpt>
      <trkpt lat="41.067469026893377" lon="-8.234470020979643">
        <ele>166.44999999999999</ele>
        <time>2025-05-03T12:09:10Z</time>
      </trkpt>
      <trkpt lat="41.067283032462001" lon="-8.235739963129163">
        <ele>160.68000000000001</ele>
        <time>2025-05-03T12:09:20Z</time>
      </trkpt>
      <trkpt lat="41.06723802164197" lon="-8.23596996255219">
        <ele>159.24000000000001</ele>
        <time>2025-05-03T12:09:22Z</time>
      </trkpt>
      <trkpt lat="41.066883970052004" lon="-8.236789964139462">
        <ele>155.87</ele>
        <time>2025-05-03T12:09:30Z</time>
      </trkpt>
      <trkpt lat="41.066775005310774" lon="-8.237025998532772">
        <ele>154.91</ele>
        <time>2025-05-03T12:09:32Z</time>
      </trkpt>
      <trkpt lat="41.06672303751111" lon="-8.237157007679343">
        <ele>154.43000000000001</ele>
        <time>2025-05-03T12:09:33Z</time>
      </trkpt>
      <trkpt lat="41.066710967570543" lon="-8.237308971583843">
        <ele>153.94999999999999</ele>
        <time>2025-05-03T12:09:34Z</time>
      </trkpt>
      <trkpt lat="41.066700993105769" lon="-8.237462025135756">
        <ele>152.99000000000001</ele>
        <time>2025-05-03T12:09:35Z</time>
      </trkpt>
      <trkpt lat="41.066694036126137" lon="-8.237613989040256">
        <ele>152.03</ele>
        <time>2025-05-03T12:09:36Z</time>
      </trkpt>
      <trkpt lat="41.06668196618557" lon="-8.237899979576469">
        <ele>150.58000000000001</ele>
        <time>2025-05-03T12:09:38Z</time>
      </trkpt>
      <trkpt lat="41.066649025306106" lon="-8.238023025915027">
        <ele>149.62</ele>
        <time>2025-05-03T12:09:39Z</time>
      </trkpt>
      <trkpt lat="41.066599991172552" lon="-8.238143976777792">
        <ele>149.13999999999999</ele>
        <time>2025-05-03T12:09:40Z</time>
      </trkpt>
      <trkpt lat="41.066544000059366" lon="-8.238274985924363">
        <ele>148.66</ele>
        <time>2025-05-03T12:09:41Z</time>
      </trkpt>
      <trkpt lat="41.066460013389587" lon="-8.23837598785758">
        <ele>147.69999999999999</ele>
        <time>2025-05-03T12:09:42Z</time>
      </trkpt>
      <trkpt lat="41.065481007099152" lon="-8.23975196108222">
        <ele>140.49000000000001</ele>
        <time>2025-05-03T12:09:54Z</time>
      </trkpt>
      <trkpt lat="41.065429961308837" lon="-8.239868972450495">
        <ele>140.00999999999999</ele>
        <time>2025-05-03T12:09:55Z</time>
      </trkpt>
      <trkpt lat="41.06537195853889" lon="-8.240004004910588">
        <ele>140.00999999999999</ele>
        <time>2025-05-03T12:09:56Z</time>
      </trkpt>
      <trkpt lat="41.065385034307837" lon="-8.240121016278863">
        <ele>139.53</ele>
        <time>2025-05-03T12:09:57Z</time>
      </trkpt>
      <trkpt lat="41.065400959923863" lon="-8.240255964919925">
        <ele>139.53</ele>
        <time>2025-05-03T12:09:58Z</time>
      </trkpt>
      <trkpt lat="41.065429961308837" lon="-8.240399966016412">
        <ele>139.05000000000001</ele>
        <time>2025-05-03T12:09:59Z</time>
      </trkpt>
      <trkpt lat="41.065488969907165" lon="-8.24052301235497">
        <ele>139.05000000000001</ele>
        <time>2025-05-03T12:10:00Z</time>
      </trkpt>
      <trkpt lat="41.065539009869099" lon="-8.240647986531258">
        <ele>139.05000000000001</ele>
        <time>2025-05-03T12:10:01Z</time>
      </trkpt>
      <trkpt lat="41.065659038722515" lon="-8.240874968469143">
        <ele>138.56999999999999</ele>
        <time>2025-05-03T12:10:03Z</time>
      </trkpt>
      <trkpt lat="41.065729027613997" lon="-8.24099600315094">
        <ele>138.56999999999999</ele>
        <time>2025-05-03T12:10:04Z</time>
      </trkpt>
      <trkpt lat="41.065801028162241" lon="-8.241118965670466">
        <ele>138.56999999999999</ele>
        <time>2025-05-03T12:10:05Z</time>
      </trkpt>
      <trkpt lat="41.065961960703135" lon="-8.241347037255764">
        <ele>138.09</ele>
        <time>2025-05-03T12:10:07Z</time>
      </trkpt>
      <trkpt lat="41.066019041463733" lon="-8.241483997553587">
        <ele>138.09</ele>
        <time>2025-05-03T12:10:08Z</time>
      </trkpt>
      <trkpt lat="41.066049970686436" lon="-8.241630010306835">
        <ele>138.09</ele>
        <time>2025-05-03T12:10:09Z</time>
      </trkpt>
      <trkpt lat="41.066050976514816" lon="-8.241777028888464">
        <ele>137.61000000000001</ele>
        <time>2025-05-03T12:10:10Z</time>
      </trkpt>
      <trkpt lat="41.0660379845649" lon="-8.241921029984951">
        <ele>137.13</ele>
        <time>2025-05-03T12:10:11Z</time>
      </trkpt>
      <trkpt lat="41.065980987623334" lon="-8.242019014433026">
        <ele>136.63999999999999</ele>
        <time>2025-05-03T12:10:12Z</time>
      </trkpt>
      <trkpt lat="41.065909992903471" lon="-8.242124961689115">
        <ele>136.16</ele>
        <time>2025-05-03T12:10:13Z</time>
      </trkpt>
      <trkpt lat="41.065838998183608" lon="-8.242230992764235">
        <ele>135.19999999999999</ele>
        <time>2025-05-03T12:10:14Z</time>
      </trkpt>
      <trkpt lat="41.065787030383945" lon="-8.242364013567567">
        <ele>134.72</ele>
        <time>2025-05-03T12:10:15Z</time>
      </trkpt>
      <trkpt lat="41.0657789837569" lon="-8.242493011057377">
        <ele>133.75999999999999</ele>
        <time>2025-05-03T12:10:16Z</time>
      </trkpt>
      <trkpt lat="41.0657789837569" lon="-8.242617985233665">
        <ele>132.80000000000001</ele>
        <time>2025-05-03T12:10:17Z</time>
      </trkpt>
      <trkpt lat="41.065811002627015" lon="-8.242723010480404">
        <ele>132.31999999999999</ele>
        <time>2025-05-03T12:10:18Z</time>
      </trkpt>
      <trkpt lat="41.065869005396962" lon="-8.242830969393253">
        <ele>131.36000000000001</ele>
        <time>2025-05-03T12:10:19Z</time>
      </trkpt>
      <trkpt lat="41.065930025652051" lon="-8.242944041267037">
        <ele>130.88</ele>
        <time>2025-05-03T12:10:20Z</time>
      </trkpt>
      <trkpt lat="41.066105039790273" lon="-8.243306977674365">
        <ele>129.43000000000001</ele>
        <time>2025-05-03T12:10:23Z</time>
      </trkpt>
      <trkpt lat="41.06614401564002" lon="-8.243415020406246">
        <ele>128.47</ele>
        <time>2025-05-03T12:10:24Z</time>
      </trkpt>
      <trkpt lat="41.066127000376582" lon="-8.243564972653985">
        <ele>127.98999999999999</ele>
        <time>2025-05-03T12:10:25Z</time>
      </trkpt>
      <trkpt lat="41.06603697873652" lon="-8.244011979550123">
        <ele>125.11</ele>
        <time>2025-05-03T12:10:28Z</time>
      </trkpt>
      <trkpt lat="41.06603697873652" lon="-8.244172995910049">
        <ele>124.15000000000001</ele>
        <time>2025-05-03T12:10:29Z</time>
      </trkpt>
      <trkpt lat="41.06605801731348" lon="-8.244338035583496">
        <ele>123.67</ele>
        <time>2025-05-03T12:10:30Z</time>
      </trkpt>
      <trkpt lat="41.066094981506467" lon="-8.244485976174474">
        <ele>122.70999999999999</ele>
        <time>2025-05-03T12:10:31Z</time>
      </trkpt>
      <trkpt lat="41.06614401564002" lon="-8.244620002806187">
        <ele>121.73999999999999</ele>
        <time>2025-05-03T12:10:32Z</time>
      </trkpt>
      <trkpt lat="41.06622900813818" lon="-8.244712958112359">
        <ele>121.26000000000001</ele>
        <time>2025-05-03T12:10:33Z</time>
      </trkpt>
      <trkpt lat="41.066317018121481" lon="-8.244809014722705">
        <ele>120.78</ele>
        <time>2025-05-03T12:10:34Z</time>
      </trkpt>
      <trkpt lat="41.066407961770892" lon="-8.244902975857258">
        <ele>120.3</ele>
        <time>2025-05-03T12:10:35Z</time>
      </trkpt>
      <trkpt lat="41.066666040569544" lon="-8.245189972221851">
        <ele>119.34</ele>
        <time>2025-05-03T12:10:38Z</time>
      </trkpt>
      <trkpt lat="41.066751033067703" lon="-8.245287034660578">
        <ele>118.86</ele>
        <time>2025-05-03T12:10:39Z</time>
      </trkpt>
      <trkpt lat="41.066795960068703" lon="-8.24542298913002">
        <ele>118.38</ele>
        <time>2025-05-03T12:10:40Z</time>
      </trkpt>
      <trkpt lat="41.066834013909101" lon="-8.245575036853552">
        <ele>117.42</ele>
        <time>2025-05-03T12:10:41Z</time>
      </trkpt>
      <trkpt lat="41.066865026950836" lon="-8.245734041556716">
        <ele>116.45999999999999</ele>
        <time>2025-05-03T12:10:42Z</time>
      </trkpt>
      <trkpt lat="41.066891010850668" lon="-8.245904026553035">
        <ele>115.5</ele>
        <time>2025-05-03T12:10:43Z</time>
      </trkpt>
      <trkpt lat="41.06691800057888" lon="-8.246083986014128">
        <ele>114.53</ele>
        <time>2025-05-03T12:10:44Z</time>
      </trkpt>
      <trkpt lat="41.066943984478712" lon="-8.246270986273885">
        <ele>113.56999999999999</ele>
        <time>2025-05-03T12:10:45Z</time>
      </trkpt>
      <trkpt lat="41.066998969763517" lon="-8.246654961258173">
        <ele>112.13</ele>
        <time>2025-05-03T12:10:47Z</time>
      </trkpt>
      <trkpt lat="41.067011039704084" lon="-8.246849002316594">
        <ele>111.17</ele>
        <time>2025-05-03T12:10:48Z</time>
      </trkpt>
      <trkpt lat="41.066967034712434" lon="-8.247598009184003">
        <ele>107.81</ele>
        <time>2025-05-03T12:10:52Z</time>
      </trkpt>
      <trkpt lat="41.06693702749908" lon="-8.247781991958618">
        <ele>106.84</ele>
        <time>2025-05-03T12:10:53Z</time>
      </trkpt>
      <trkpt lat="41.066790008917451" lon="-8.248501997441053">
        <ele>103.48</ele>
        <time>2025-05-03T12:10:57Z</time>
      </trkpt>
      <trkpt lat="41.066590016707778" lon="-8.249125024303794">
        <ele>100.59999999999999</ele>
        <time>2025-05-03T12:11:01Z</time>
      </trkpt>
      <trkpt lat="41.066527990624309" lon="-8.2492680195719">
        <ele>100.11</ele>
        <time>2025-05-03T12:11:02Z</time>
      </trkpt>
      <trkpt lat="41.066468982025981" lon="-8.249404979869723">
        <ele>99.150000000000006</ele>
        <time>2025-05-03T12:11:03Z</time>
      </trkpt>
      <trkpt lat="41.066407961770892" lon="-8.24954504147172">
        <ele>98.189999999999998</ele>
        <time>2025-05-03T12:11:04Z</time>
      </trkpt>
      <trkpt lat="41.066356999799609" lon="-8.249703962355852">
        <ele>97.230000000000004</ele>
        <time>2025-05-03T12:11:05Z</time>
      </trkpt>
      <trkpt lat="41.066349959000945" lon="-8.249880988150835">
        <ele>96.269999999999996</ele>
        <time>2025-05-03T12:11:06Z</time>
      </trkpt>
      <trkpt lat="41.066343002021313" lon="-8.250059019774199">
        <ele>95.310000000000002</ele>
        <time>2025-05-03T12:11:07Z</time>
      </trkpt>
      <trkpt lat="41.066336967051029" lon="-8.250195980072022">
        <ele>94.349999999999994</ele>
        <time>2025-05-03T12:11:08Z</time>
      </trkpt>
      <trkpt lat="41.066387007012963" lon="-8.250359008088708">
        <ele>93.870000000000005</ele>
        <time>2025-05-03T12:11:09Z</time>
      </trkpt>
      <trkpt lat="41.066427994519472" lon="-8.250495968386531">
        <ele>92.900000000000006</ele>
        <time>2025-05-03T12:11:10Z</time>
      </trkpt>
      <trkpt lat="41.066469987854362" lon="-8.250632006675005">
        <ele>92.420000000000002</ele>
        <time>2025-05-03T12:11:11Z</time>
      </trkpt>
      <trkpt lat="41.06653000228107" lon="-8.250736026093364">
        <ele>91.459999999999994</ele>
        <time>2025-05-03T12:11:12Z</time>
      </trkpt>
      <trkpt lat="41.06661700643599" lon="-8.250831998884678">
        <ele>90.5</ele>
        <time>2025-05-03T12:11:13Z</time>
      </trkpt>
      <trkpt lat="41.066705016419291" lon="-8.250927971675992">
        <ele>90.019999999999996</ele>
        <time>2025-05-03T12:11:14Z</time>
      </trkpt>
      <trkpt lat="41.066798977553844" lon="-8.251012964174151">
        <ele>89.060000000000002</ele>
        <time>2025-05-03T12:11:15Z</time>
      </trkpt>
      <trkpt lat="41.066891010850668" lon="-8.251096028834581">
        <ele>88.099999999999994</ele>
        <time>2025-05-03T12:11:16Z</time>
      </trkpt>
      <trkpt lat="41.066955970600247" lon="-8.251204993575811">
        <ele>87.140000000000001</ele>
        <time>2025-05-03T12:11:17Z</time>
      </trkpt>
      <trkpt lat="41.067012967541814" lon="-8.25132803991437">
        <ele>86.180000000000007</ele>
        <time>2025-05-03T12:11:18Z</time>
      </trkpt>
      <trkpt lat="41.067050015553832" lon="-8.251451002433896">
        <ele>85.689999999999998</ele>
        <time>2025-05-03T12:11:19Z</time>
      </trkpt>
      <trkpt lat="41.06706703081727" lon="-8.251612018793821">
        <ele>84.730000000000004</ele>
        <time>2025-05-03T12:11:20Z</time>
      </trkpt>
      <trkpt lat="41.06704699806869" lon="-8.25171796604991">
        <ele>84.25</ele>
        <time>2025-05-03T12:11:21Z</time>
      </trkpt>
      <trkpt lat="41.067022019997239" lon="-8.2518479693681">
        <ele>83.769999999999996</ele>
        <time>2025-05-03T12:11:22Z</time>
      </trkpt>
      <trkpt lat="41.067000981420279" lon="-8.251964980736375">
        <ele>83.290000000000006</ele>
        <time>2025-05-03T12:11:23Z</time>
      </trkpt>
      <trkpt lat="41.06698103249073" lon="-8.252070005983114">
        <ele>83.290000000000006</ele>
        <time>2025-05-03T12:11:24Z</time>
      </trkpt>
      <trkpt lat="41.06695999391377" lon="-8.252183999866247">
        <ele>82.810000000000002</ele>
        <time>2025-05-03T12:11:25Z</time>
      </trkpt>
      <trkpt lat="41.066945996135473" lon="-8.252324983477593">
        <ele>82.329999999999998</ele>
        <time>2025-05-03T12:11:26Z</time>
      </trkpt>
      <trkpt lat="41.06698103249073" lon="-8.252444006502628">
        <ele>82.329999999999998</ele>
        <time>2025-05-03T12:11:27Z</time>
      </trkpt>
      <trkpt lat="41.067027971148491" lon="-8.252561017870903">
        <ele>81.849999999999994</ele>
        <time>2025-05-03T12:11:28Z</time>
      </trkpt>
      <trkpt lat="41.067085973918438" lon="-8.252667970955372">
        <ele>81.370000000000005</ele>
        <time>2025-05-03T12:11:29Z</time>
      </trkpt>
      <trkpt lat="41.067140959203243" lon="-8.252768972888589">
        <ele>80.890000000000001</ele>
        <time>2025-05-03T12:11:30Z</time>
      </trkpt>
      <trkpt lat="41.067244978621602" lon="-8.252961002290249">
        <ele>79.930000000000007</ele>
        <time>2025-05-03T12:11:32Z</time>
      </trkpt>
      <trkpt lat="41.067287977784872" lon="-8.253067033365369">
        <ele>79.450000000000003</ele>
        <time>2025-05-03T12:11:33Z</time>
      </trkpt>
      <trkpt lat="41.067311028018594" lon="-8.253198964521289">
        <ele>78.969999999999999</ele>
        <time>2025-05-03T12:11:34Z</time>
      </trkpt>
      <trkpt lat="41.067335000261664" lon="-8.253333996981382">
        <ele>78.480000000000004</ele>
        <time>2025-05-03T12:11:35Z</time>
      </trkpt>
      <trkpt lat="41.067339023575187" lon="-8.253465006127954">
        <ele>78</ele>
        <time>2025-05-03T12:11:36Z</time>
      </trkpt>
      <trkpt lat="41.067327959463" lon="-8.253597021102905">
        <ele>77.519999999999996</ele>
        <time>2025-05-03T12:11:37Z</time>
      </trkpt>
      <trkpt lat="41.067315973341465" lon="-8.253730963915587">
        <ele>77.040000000000006</ele>
        <time>2025-05-03T12:11:38Z</time>
      </trkpt>
      <trkpt lat="41.067305998876691" lon="-8.253853004425764">
        <ele>76.079999999999998</ele>
        <time>2025-05-03T12:11:39Z</time>
      </trkpt>
      <trkpt lat="41.067253025248647" lon="-8.253941014409065">
        <ele>75.599999999999994</ele>
        <time>2025-05-03T12:11:40Z</time>
      </trkpt>
      <trkpt lat="41.067180018872023" lon="-8.254019971936941">
        <ele>74.640000000000001</ele>
        <time>2025-05-03T12:11:41Z</time>
      </trkpt>
      <trkpt lat="41.067099971696734" lon="-8.254106976091862">
        <ele>74.159999999999997</ele>
        <time>2025-05-03T12:11:42Z</time>
      </trkpt>
      <trkpt lat="41.067014979198575" lon="-8.254181994125247">
        <ele>73.680000000000007</ele>
        <time>2025-05-03T12:11:43Z</time>
      </trkpt>
      <trkpt lat="41.066911965608597" lon="-8.254235973581672">
        <ele>72.719999999999999</ele>
        <time>2025-05-03T12:11:44Z</time>
      </trkpt>
      <trkpt lat="41.066719014197588" lon="-8.25433898717165">
        <ele>71.269999999999996</ele>
        <time>2025-05-03T12:11:46Z</time>
      </trkpt>
      <trkpt lat="41.066624969244003" lon="-8.254391960799694">
        <ele>70.790000000000006</ele>
        <time>2025-05-03T12:11:47Z</time>
      </trkpt>
      <trkpt lat="41.066538970917463" lon="-8.254444012418389">
        <ele>70.310000000000002</ele>
        <time>2025-05-03T12:11:48Z</time>
      </trkpt>
      <trkpt lat="41.066463030874729" lon="-8.254492962732911">
        <ele>69.829999999999998</ele>
        <time>2025-05-03T12:11:49Z</time>
      </trkpt>
      <trkpt lat="41.066407961770892" lon="-8.254581978544593">
        <ele>69.829999999999998</ele>
        <time>2025-05-03T12:11:50Z</time>
      </trkpt>
      <trkpt lat="41.066351970657706" lon="-8.254674011841416">
        <ele>69.349999999999994</ele>
        <time>2025-05-03T12:11:51Z</time>
      </trkpt>
      <trkpt lat="41.066293967887759" lon="-8.254767972975969">
        <ele>68.390000000000001</ele>
        <time>2025-05-03T12:11:52Z</time>
      </trkpt>
      <trkpt lat="41.066233031451702" lon="-8.254868974909186">
        <ele>67.909999999999997</ele>
        <time>2025-05-03T12:11:53Z</time>
      </trkpt>
      <trkpt lat="41.066151978448033" lon="-8.254937035962939">
        <ele>67.909999999999997</ele>
        <time>2025-05-03T12:11:54Z</time>
      </trkpt>
      <trkpt lat="41.066071009263396" lon="-8.25500400736928">
        <ele>66.950000000000003</ele>
        <time>2025-05-03T12:11:55Z</time>
      </trkpt>
      <trkpt lat="41.065988028421998" lon="-8.255070978775621">
        <ele>66.469999999999999</ele>
        <time>2025-05-03T12:11:56Z</time>
      </trkpt>
      <trkpt lat="41.06590798124671" lon="-8.255137028172612">
        <ele>65.989999999999995</ele>
        <time>2025-05-03T12:11:57Z</time>
      </trkpt>
      <trkpt lat="41.065752999857068" lon="-8.255264014005661">
        <ele>65.030000000000001</ele>
        <time>2025-05-03T12:11:59Z</time>
      </trkpt>
      <trkpt lat="41.065682005137205" lon="-8.255322016775608">
        <ele>64.549999999999997</ele>
        <time>2025-05-03T12:12:00Z</time>
      </trkpt>
      <trkpt lat="41.065615033730865" lon="-8.255377002060413">
        <ele>63.579999999999998</ele>
        <time>2025-05-03T12:12:01Z</time>
      </trkpt>
      <trkpt lat="41.065127039328218" lon="-8.25582199729979">
        <ele>62.140000000000001</ele>
        <time>2025-05-03T12:12:08Z</time>
      </trkpt>
      <trkpt lat="41.065044980496168" lon="-8.255858039483428">
        <ele>62.140000000000001</ele>
        <time>2025-05-03T12:12:09Z</time>
      </trkpt>
      <trkpt lat="41.064220033586025" lon="-8.256286019459367">
        <ele>57.82</ele>
        <time>2025-05-03T12:12:17Z</time>
      </trkpt>
      <trkpt lat="41.063986010849476" lon="-8.256419962272048">
        <ele>57.340000000000003</ele>
        <time>2025-05-03T12:12:19Z</time>
      </trkpt>
      <trkpt lat="41.063646040856838" lon="-8.256614003330469">
        <ele>56.859999999999999</ele>
        <time>2025-05-03T12:12:22Z</time>
      </trkpt>
      <trkpt lat="41.063519977033138" lon="-8.256620038300753">
        <ele>56.859999999999999</ele>
        <time>2025-05-03T12:12:23Z</time>
      </trkpt>
      <trkpt lat="41.063387962058187" lon="-8.256626995280385">
        <ele>56.369999999999997</ele>
        <time>2025-05-03T12:12:24Z</time>
      </trkpt>
      <trkpt lat="41.063004992902279" lon="-8.256588019430637">
        <ele>55.890000000000001</ele>
        <time>2025-05-03T12:12:27Z</time>
      </trkpt>
      <trkpt lat="41.062903990969062" lon="-8.256568992510438">
        <ele>55.409999999999997</ele>
        <time>2025-05-03T12:12:28Z</time>
      </trkpt>
      <trkpt lat="41.062825033441186" lon="-8.256504032760859">
        <ele>54.93</ele>
        <time>2025-05-03T12:12:29Z</time>
      </trkpt>
      <trkpt lat="41.061938982456923" lon="-8.255901960656047">
        <ele>53.009999999999998</ele>
        <time>2025-05-03T12:12:39Z</time>
      </trkpt>
      <trkpt lat="41.061856001615524" lon="-8.255887040868402">
        <ele>52.530000000000001</ele>
        <time>2025-05-03T12:12:40Z</time>
      </trkpt>
      <trkpt lat="41.061776960268617" lon="-8.255930040031672">
        <ele>52.530000000000001</ele>
        <time>2025-05-03T12:12:41Z</time>
      </trkpt>
      <trkpt lat="41.061701020225883" lon="-8.255996005609632">
        <ele>52.049999999999997</ele>
        <time>2025-05-03T12:12:42Z</time>
      </trkpt>
      <trkpt lat="41.0616310313344" lon="-8.256080998107791">
        <ele>51.57</ele>
        <time>2025-05-03T12:12:43Z</time>
      </trkpt>
      <trkpt lat="41.061571016907692" lon="-8.25618501752615">
        <ele>51.57</ele>
        <time>2025-05-03T12:12:44Z</time>
      </trkpt>
      <trkpt lat="41.061511002480984" lon="-8.256289036944509">
        <ele>50.609999999999999</ele>
        <time>2025-05-03T12:12:45Z</time>
      </trkpt>
      <trkpt lat="41.061168015003204" lon="-8.25704500079155">
        <ele>47.240000000000002</ele>
        <time>2025-05-03T12:12:52Z</time>
      </trkpt>
      <trkpt lat="41.061148988083005" lon="-8.257143991068006">
        <ele>47.240000000000002</ele>
        <time>2025-05-03T12:12:53Z</time>
      </trkpt>
      <trkpt lat="41.061172960326076" lon="-8.25723703019321">
        <ele>47.240000000000002</ele>
        <time>2025-05-03T12:12:54Z</time>
      </trkpt>
      <trkpt lat="41.0612010397017" lon="-8.257344989106059">
        <ele>46.759999999999998</ele>
        <time>2025-05-03T12:12:55Z</time>
      </trkpt>
      <trkpt lat="41.061231968924403" lon="-8.257462000474334">
        <ele>46.759999999999998</ele>
        <time>2025-05-03T12:12:56Z</time>
      </trkpt>
      <trkpt lat="41.061400026082993" lon="-8.258155016228557">
        <ele>46.280000000000001</ele>
        <time>2025-05-03T12:13:02Z</time>
      </trkpt>
      <trkpt lat="41.06137496419251" lon="-8.258253000676632">
        <ele>45.799999999999997</ele>
        <time>2025-05-03T12:13:03Z</time>
      </trkpt>
      <trkpt lat="41.06133297085762" lon="-8.258368000388145">
        <ele>45.799999999999997</ele>
        <time>2025-05-03T12:13:04Z</time>
      </trkpt>
      <trkpt lat="41.061263987794518" lon="-8.258459027856588">
        <ele>45.799999999999997</ele>
        <time>2025-05-03T12:13:05Z</time>
      </trkpt>
      <trkpt lat="41.061166003346443" lon="-8.258543014526367">
        <ele>46.280000000000001</ele>
        <time>2025-05-03T12:13:06Z</time>
      </trkpt>
      <trkpt lat="41.061083022505045" lon="-8.258585007861257">
        <ele>46.280000000000001</ele>
        <time>2025-05-03T12:13:07Z</time>
      </trkpt>
      <trkpt lat="41.060984032228589" lon="-8.258633958175778">
        <ele>46.759999999999998</ele>
        <time>2025-05-03T12:13:08Z</time>
      </trkpt>
      <trkpt lat="41.060882024466991" lon="-8.258685003966093">
        <ele>46.759999999999998</ele>
        <time>2025-05-03T12:13:09Z</time>
      </trkpt>
      <trkpt lat="41.060779010877013" lon="-8.258736971765757">
        <ele>47.240000000000002</ele>
        <time>2025-05-03T12:13:10Z</time>
      </trkpt>
      <trkpt lat="41.060678008943796" lon="-8.258795980364084">
        <ele>47.719999999999999</ele>
        <time>2025-05-03T12:13:11Z</time>
      </trkpt>
      <trkpt lat="41.060595028102398" lon="-8.25889103114605">
        <ele>48.68</ele>
        <time>2025-05-03T12:13:12Z</time>
      </trkpt>
      <trkpt lat="41.060520010069013" lon="-8.25897702947259">
        <ele>48.68</ele>
        <time>2025-05-03T12:13:13Z</time>
      </trkpt>
      <trkpt lat="41.060473993420601" lon="-8.259082976728678">
        <ele>48.68</ele>
        <time>2025-05-03T12:13:14Z</time>
      </trkpt>
      <trkpt lat="41.060457983985543" lon="-8.259197976440191">
        <ele>48.200000000000003</ele>
        <time>2025-05-03T12:13:15Z</time>
      </trkpt>
      <trkpt lat="41.060457983985543" lon="-8.259309958666563">
        <ele>48.200000000000003</ele>
        <time>2025-05-03T12:13:16Z</time>
      </trkpt>
      <trkpt lat="41.060505006462336" lon="-8.259394029155374">
        <ele>48.200000000000003</ele>
        <time>2025-05-03T12:13:17Z</time>
      </trkpt>
      <trkpt lat="41.060562003403902" lon="-8.259490001946688">
        <ele>47.719999999999999</ele>
        <time>2025-05-03T12:13:18Z</time>
      </trkpt>
      <trkpt lat="41.060627968981862" lon="-8.259582035243511">
        <ele>47.719999999999999</ele>
        <time>2025-05-03T12:13:19Z</time>
      </trkpt>
      <trkpt lat="41.060700975358486" lon="-8.259673984721303">
        <ele>47.719999999999999</ele>
        <time>2025-05-03T12:13:20Z</time>
      </trkpt>
      <trkpt lat="41.06100800447166" lon="-8.260116968303919">
        <ele>49.159999999999997</ele>
        <time>2025-05-03T12:13:24Z</time>
      </trkpt>
      <trkpt lat="41.061088973656297" lon="-8.2602250110358">
        <ele>49.159999999999997</ele>
        <time>2025-05-03T12:13:25Z</time>
      </trkpt>
      <trkpt lat="41.06137597002089" lon="-8.260458027943969">
        <ele>49.159999999999997</ele>
        <time>2025-05-03T12:13:28Z</time>
      </trkpt>
      <trkpt lat="41.061485018581152" lon="-8.260490968823433">
        <ele>49.159999999999997</ele>
        <time>2025-05-03T12:13:29Z</time>
      </trkpt>
      <trkpt lat="41.061580991372466" lon="-8.260450987145305">
        <ele>49.649999999999999</ele>
        <time>2025-05-03T12:13:30Z</time>
      </trkpt>
      <trkpt lat="41.0616759583354" lon="-8.260390972718597">
        <ele>50.130000000000003</ele>
        <time>2025-05-03T12:13:31Z</time>
      </trkpt>
      <trkpt lat="41.061771009117365" lon="-8.260331964120269">
        <ele>50.609999999999999</ele>
        <time>2025-05-03T12:13:32Z</time>
      </trkpt>
      <trkpt lat="41.061866981908679" lon="-8.260278990492225">
        <ele>51.090000000000003</ele>
        <time>2025-05-03T12:13:33Z</time>
      </trkpt>
      <trkpt lat="41.061966978013515" lon="-8.260261975228787">
        <ele>51.57</ele>
        <time>2025-05-03T12:13:34Z</time>
      </trkpt>
      <trkpt lat="41.062070997431874" lon="-8.260313021019101">
        <ele>52.049999999999997</ele>
        <time>2025-05-03T12:13:35Z</time>
      </trkpt>
      <trkpt lat="41.062171999365091" lon="-8.260372029617429">
        <ele>52.530000000000001</ele>
        <time>2025-05-03T12:13:36Z</time>
      </trkpt>
      <trkpt lat="41.062278030440211" lon="-8.260433971881867">
        <ele>53.009999999999998</ele>
        <time>2025-05-03T12:13:37Z</time>
      </trkpt>
      <trkpt lat="41.063274974003434" lon="-8.260946022346616">
        <ele>57.340000000000003</ele>
        <time>2025-05-03T12:13:46Z</time>
      </trkpt>
      <trkpt lat="41.063344962894917" lon="-8.261023974046111">
        <ele>57.82</ele>
        <time>2025-05-03T12:13:47Z</time>
      </trkpt>
      <trkpt lat="41.063402965664864" lon="-8.261123970150948">
        <ele>58.780000000000001</ele>
        <time>2025-05-03T12:13:48Z</time>
      </trkpt>
      <trkpt lat="41.063460968434811" lon="-8.261238969862461">
        <ele>59.740000000000002</ele>
        <time>2025-05-03T12:13:49Z</time>
      </trkpt>
      <trkpt lat="41.063453005626798" lon="-8.261372996494174">
        <ele>60.219999999999999</ele>
        <time>2025-05-03T12:13:50Z</time>
      </trkpt>
      <trkpt lat="41.063444958999753" lon="-8.261511968448758">
        <ele>61.18</ele>
        <time>2025-05-03T12:13:51Z</time>
      </trkpt>
      <trkpt lat="41.063420986756682" lon="-8.261941960081458">
        <ele>63.579999999999998</ele>
        <time>2025-05-03T12:13:54Z</time>
      </trkpt>
      <trkpt lat="41.063364995643497" lon="-8.262070035561919">
        <ele>64.069999999999993</ele>
        <time>2025-05-03T12:13:55Z</time>
      </trkpt>
      <trkpt lat="41.063299030065536" lon="-8.262186963111162">
        <ele>64.549999999999997</ele>
        <time>2025-05-03T12:13:56Z</time>
      </trkpt>
      <trkpt lat="41.063227029517293" lon="-8.262294000014663">
        <ele>65.989999999999995</ele>
        <time>2025-05-03T12:13:57Z</time>
      </trkpt>
      <trkpt lat="41.063132984563708" lon="-8.26237304136157">
        <ele>66.469999999999999</ele>
        <time>2025-05-03T12:13:58Z</time>
      </trkpt>
      <trkpt lat="41.062535019591451" lon="-8.262814013287425">
        <ele>71.269999999999996</ele>
        <time>2025-05-03T12:14:04Z</time>
      </trkpt>
      <trkpt lat="41.062433011829853" lon="-8.262878973037005">
        <ele>71.760000000000005</ele>
        <time>2025-05-03T12:14:05Z</time>
      </trkpt>
      <trkpt lat="41.06214601546526" lon="-8.262992966920137">
        <ele>74.159999999999997</ele>
        <time>2025-05-03T12:14:08Z</time>
      </trkpt>
      <trkpt lat="41.062059011310339" lon="-8.263011993840337">
        <ele>75.120000000000005</ele>
        <time>2025-05-03T12:14:09Z</time>
      </trkpt>
      <trkpt lat="41.061675036326051" lon="-8.263062033802271">
        <ele>78.969999999999999</ele>
        <time>2025-05-03T12:14:14Z</time>
      </trkpt>
      <trkpt lat="41.061595994979143" lon="-8.263051975518465">
        <ele>79.450000000000003</ele>
        <time>2025-05-03T12:14:15Z</time>
      </trkpt>
      <trkpt lat="41.06154796667397" lon="-8.262948961928487">
        <ele>80.409999999999997</ele>
        <time>2025-05-03T12:14:16Z</time>
      </trkpt>
      <trkpt lat="41.061531035229564" lon="-8.262877967208624">
        <ele>80.890000000000001</ele>
        <time>2025-05-03T12:14:17Z</time>
      </trkpt>
      <trkpt lat="41.06156699359417" lon="-8.262749975547195">
        <ele>80.890000000000001</ele>
        <time>2025-05-03T12:14:18Z</time>
      </trkpt>
      <trkpt lat="41.061512008309364" lon="-8.262603962793946">
        <ele>81.370000000000005</ele>
        <time>2025-05-03T12:14:19Z</time>
      </trkpt>
      <trkpt lat="41.061488036066294" lon="-8.262556018307805">
        <ele>81.370000000000005</ele>
        <time>2025-05-03T12:14:20Z</time>
      </trkpt>
      <trkpt lat="41.061403965577483" lon="-8.262472031638026">
        <ele>81.849999999999994</ele>
        <time>2025-05-03T12:14:21Z</time>
      </trkpt>
      <trkpt lat="41.06133297085762" lon="-8.262401036918163">
        <ele>82.329999999999998</ele>
        <time>2025-05-03T12:14:22Z</time>
      </trkpt>
      <trkpt lat="41.060712039470673" lon="-8.261812040582299">
        <ele>84.730000000000004</ele>
        <time>2025-05-03T12:14:30Z</time>
      </trkpt>
      <trkpt lat="41.060606008395553" lon="-8.261789996176958">
        <ele>84.730000000000004</ele>
        <time>2025-05-03T12:14:31Z</time>
      </trkpt>
      <trkpt lat="41.060505006462336" lon="-8.261769041419029">
        <ele>85.209999999999994</ele>
        <time>2025-05-03T12:14:32Z</time>
      </trkpt>
      <trkpt lat="41.060376008972526" lon="-8.261741967871785">
        <ele>85.689999999999998</ele>
        <time>2025-05-03T12:14:34Z</time>
      </trkpt>
      <trkpt lat="41.060339966788888" lon="-8.261735010892153">
        <ele>86.180000000000007</ele>
        <time>2025-05-03T12:14:35Z</time>
      </trkpt>
      <trkpt lat="41.060318006202579" lon="-8.26172998175025">
        <ele>86.180000000000007</ele>
        <time>2025-05-03T12:14:36Z</time>
      </trkpt>
      <trkpt lat="41.060318006202579" lon="-8.26172998175025">
        <ele>86.659999999999997</ele>
        <time>2025-05-03T12:14:48Z</time>
      </trkpt>
      <trkpt lat="41.060318006202579" lon="-8.26172998175025">
        <ele>88.099999999999994</ele>
        <time>2025-05-03T12:15:22Z</time>
      </trkpt>
      <trkpt lat="41.060318006202579" lon="-8.26172998175025">
        <ele>88.579999999999998</ele>
        <time>2025-05-03T12:16:08Z</time>
      </trkpt>
      <trkpt lat="41.060265032574534" lon="-8.261719001457095">
        <ele>89.540000000000006</ele>
        <time>2025-05-03T12:16:41Z</time>
      </trkpt>
      <trkpt lat="41.060254974290729" lon="-8.261711038649082">
        <ele>89.540000000000006</ele>
        <time>2025-05-03T12:16:42Z</time>
      </trkpt>
      <trkpt lat="41.059715012088418" lon="-8.261267971247435">
        <ele>91.939999999999998</ele>
        <time>2025-05-03T12:16:49Z</time>
      </trkpt>
      <trkpt lat="41.059617027640343" lon="-8.261205023154616">
        <ele>91.939999999999998</ele>
        <time>2025-05-03T12:16:50Z</time>
      </trkpt>
      <trkpt lat="41.059512002393603" lon="-8.261161018162966">
        <ele>92.420000000000002</ele>
        <time>2025-05-03T12:16:51Z</time>
      </trkpt>
      <trkpt lat="41.059399014338851" lon="-8.261112989857793">
        <ele>92.420000000000002</ele>
        <time>2025-05-03T12:16:52Z</time>
      </trkpt>
      <trkpt lat="41.059121992439032" lon="-8.260995978489518">
        <ele>92.900000000000006</ele>
        <time>2025-05-03T12:16:54Z</time>
      </trkpt>
      <trkpt lat="41.058992994949222" lon="-8.260919032618403">
        <ele>93.390000000000001</ele>
        <time>2025-05-03T12:16:55Z</time>
      </trkpt>
      <trkpt lat="41.058863997459412" lon="-8.260837979614735">
        <ele>93.870000000000005</ele>
        <time>2025-05-03T12:16:56Z</time>
      </trkpt>
      <trkpt lat="41.058741034939885" lon="-8.260762039572001">
        <ele>94.349999999999994</ele>
        <time>2025-05-03T12:16:57Z</time>
      </trkpt>
      <trkpt lat="41.058631986379623" lon="-8.260692972689867">
        <ele>95.310000000000002</ele>
        <time>2025-05-03T12:16:58Z</time>
      </trkpt>
      <trkpt lat="41.05851799249649" lon="-8.260686015710235">
        <ele>95.790000000000006</ele>
        <time>2025-05-03T12:16:59Z</time>
      </trkpt>
      <trkpt lat="41.05840802192688" lon="-8.260719962418079">
        <ele>96.269999999999996</ele>
        <time>2025-05-03T12:17:00Z</time>
      </trkpt>
      <trkpt lat="41.058308025822043" lon="-8.260805960744619">
        <ele>96.269999999999996</ele>
        <time>2025-05-03T12:17:01Z</time>
      </trkpt>
      <trkpt lat="41.05819595977664" lon="-8.260902017354965">
        <ele>96.75</ele>
        <time>2025-05-03T12:17:02Z</time>
      </trkpt>
      <trkpt lat="41.058077020570636" lon="-8.261012993752956">
        <ele>97.230000000000004</ele>
        <time>2025-05-03T12:17:03Z</time>
      </trkpt>
      <trkpt lat="41.057961015030742" lon="-8.261137967929244">
        <ele>97.709999999999994</ele>
        <time>2025-05-03T12:17:04Z</time>
      </trkpt>
      <trkpt lat="41.057267999276519" lon="-8.261907007545233">
        <ele>99.629999999999995</ele>
        <time>2025-05-03T12:17:11Z</time>
      </trkpt>
      <trkpt lat="41.057165991514921" lon="-8.261954030022025">
        <ele>100.11</ele>
        <time>2025-05-03T12:17:12Z</time>
      </trkpt>
      <trkpt lat="41.057061972096562" lon="-8.262002980336547">
        <ele>100.59999999999999</ele>
        <time>2025-05-03T12:17:13Z</time>
      </trkpt>
      <trkpt lat="41.056947978213429" lon="-8.26203198172152">
        <ele>101.08</ele>
        <time>2025-05-03T12:17:14Z</time>
      </trkpt>
      <trkpt lat="41.056828033179045" lon="-8.262001974508166">
        <ele>101.56</ele>
        <time>2025-05-03T12:17:15Z</time>
      </trkpt>
      <trkpt lat="41.056705992668867" lon="-8.261971967294812">
        <ele>102.52</ele>
        <time>2025-05-03T12:17:16Z</time>
      </trkpt>
      <trkpt lat="41.056585963815451" lon="-8.261941960081458">
        <ele>103</ele>
        <time>2025-05-03T12:17:17Z</time>
      </trkpt>
      <trkpt lat="41.056345989927649" lon="-8.26185998506844">
        <ele>104.44</ele>
        <time>2025-05-03T12:17:19Z</time>
      </trkpt>
      <trkpt lat="41.056228978559375" lon="-8.261824026703835">
        <ele>104.92</ele>
        <time>2025-05-03T12:17:20Z</time>
      </trkpt>
      <trkpt lat="41.05611096136272" lon="-8.261813968420029">
        <ele>105.40000000000001</ele>
        <time>2025-05-03T12:17:21Z</time>
      </trkpt>
      <trkpt lat="41.055990010499954" lon="-8.261807011440396">
        <ele>106.36</ele>
        <time>2025-05-03T12:17:22Z</time>
      </trkpt>
      <trkpt lat="41.055878028273582" lon="-8.261855961754918">
        <ele>106.84</ele>
        <time>2025-05-03T12:17:23Z</time>
      </trkpt>
      <trkpt lat="41.055773003026843" lon="-8.261932991445065">
        <ele>107.31999999999999</ele>
        <time>2025-05-03T12:17:24Z</time>
      </trkpt>
      <trkpt lat="41.055696979165077" lon="-8.262047991156578">
        <ele>107.81</ele>
        <time>2025-05-03T12:17:25Z</time>
      </trkpt>
      <trkpt lat="41.055620033293962" lon="-8.262162990868092">
        <ele>108.29000000000001</ele>
        <time>2025-05-03T12:17:26Z</time>
      </trkpt>
      <trkpt lat="41.055483995005488" lon="-8.262424003332853">
        <ele>108.77</ele>
        <time>2025-05-03T12:17:28Z</time>
      </trkpt>
      <trkpt lat="41.055309986695647" lon="-8.262849971652031">
        <ele>110.20999999999999</ele>
        <time>2025-05-03T12:17:31Z</time>
      </trkpt>
      <trkpt lat="41.055223988369107" lon="-8.262957008555532">
        <ele>110.20999999999999</ele>
        <time>2025-05-03T12:17:32Z</time>
      </trkpt>
      <trkpt lat="41.055137990042567" lon="-8.263059016317129">
        <ele>110.69</ele>
        <time>2025-05-03T12:17:33Z</time>
      </trkpt>
      <trkpt lat="41.055050985887647" lon="-8.263164041563869">
        <ele>111.17</ele>
        <time>2025-05-03T12:17:34Z</time>
      </trkpt>
      <trkpt lat="41.054963981732726" lon="-8.263268982991576">
        <ele>111.17</ele>
        <time>2025-05-03T12:17:35Z</time>
      </trkpt>
      <trkpt lat="41.054876977577806" lon="-8.263374008238316">
        <ele>111.65000000000001</ele>
        <time>2025-05-03T12:17:36Z</time>
      </trkpt>
      <trkpt lat="41.054512029513717" lon="-8.264014972373843">
        <ele>114.05</ele>
        <time>2025-05-03T12:17:41Z</time>
      </trkpt>
      <trkpt lat="41.054456038400531" lon="-8.26415897347033">
        <ele>114.53</ele>
        <time>2025-05-03T12:17:42Z</time>
      </trkpt>
      <trkpt lat="41.054145991802216" lon="-8.265025997534394">
        <ele>117.90000000000001</ele>
        <time>2025-05-03T12:17:48Z</time>
      </trkpt>
      <trkpt lat="41.054094024002552" lon="-8.26516798697412">
        <ele>118.38</ele>
        <time>2025-05-03T12:17:49Z</time>
      </trkpt>
      <trkpt lat="41.05400400236249" lon="-8.265246022492647">
        <ele>118.86</ele>
        <time>2025-05-03T12:17:50Z</time>
      </trkpt>
      <trkpt lat="41.053912974894047" lon="-8.265302013605833">
        <ele>119.34</ele>
        <time>2025-05-03T12:17:51Z</time>
      </trkpt>
      <trkpt lat="41.053798981010914" lon="-8.265276029706001">
        <ele>120.3</ele>
        <time>2025-05-03T12:17:52Z</time>
      </trkpt>
      <trkpt lat="41.0536839812994" lon="-8.265249039977789">
        <ele>120.78</ele>
        <time>2025-05-03T12:17:53Z</time>
      </trkpt>
      <trkpt lat="41.053566969931126" lon="-8.265234958380461">
        <ele>121.26000000000001</ele>
        <time>2025-05-03T12:17:54Z</time>
      </trkpt>
      <trkpt lat="41.053449036553502" lon="-8.26523101888597">
        <ele>122.22</ele>
        <time>2025-05-03T12:17:55Z</time>
      </trkpt>
      <trkpt lat="41.053326996043324" lon="-8.265225989744067">
        <ele>122.70999999999999</ele>
        <time>2025-05-03T12:17:56Z</time>
      </trkpt>
      <trkpt lat="41.053205961361527" lon="-8.265220960602164">
        <ele>123.67</ele>
        <time>2025-05-03T12:17:57Z</time>
      </trkpt>
      <trkpt lat="41.053082998842001" lon="-8.265206962823868">
        <ele>125.11</ele>
        <time>2025-05-03T12:17:58Z</time>
      </trkpt>
      <trkpt lat="41.052976967766881" lon="-8.265140997245908">
        <ele>126.55</ele>
        <time>2025-05-03T12:17:59Z</time>
      </trkpt>
      <trkpt lat="41.05288602411747" lon="-8.265041001141071">
        <ele>127.98999999999999</ele>
        <time>2025-05-03T12:18:00Z</time>
      </trkpt>
      <trkpt lat="41.052815029397607" lon="-8.264918960630894">
        <ele>129.43000000000001</ele>
        <time>2025-05-03T12:18:01Z</time>
      </trkpt>
      <trkpt lat="41.052741017192602" lon="-8.264799015596509">
        <ele>130.40000000000001</ele>
        <time>2025-05-03T12:18:02Z</time>
      </trkpt>
      <trkpt lat="41.052662981674075" lon="-8.264683010056615">
        <ele>131.84</ele>
        <time>2025-05-03T12:18:03Z</time>
      </trkpt>
      <trkpt lat="41.052603973075747" lon="-8.264593994244933">
        <ele>133.28</ele>
        <time>2025-05-03T12:18:04Z</time>
      </trkpt>
      <trkpt lat="41.052492996677756" lon="-8.264539008960128">
        <ele>134.24000000000001</ele>
        <time>2025-05-03T12:18:05Z</time>
      </trkpt>
      <trkpt lat="41.052385037764907" lon="-8.264485029503703">
        <ele>135.68000000000001</ele>
        <time>2025-05-03T12:18:06Z</time>
      </trkpt>
      <trkpt lat="41.052271965891123" lon="-8.264428032562137">
        <ele>137.13</ele>
        <time>2025-05-03T12:18:07Z</time>
      </trkpt>
      <trkpt lat="41.05215797200799" lon="-8.264403976500034">
        <ele>138.09</ele>
        <time>2025-05-03T12:18:08Z</time>
      </trkpt>
      <trkpt lat="41.051909029483795" lon="-8.264361983165145">
        <ele>140.00999999999999</ele>
        <time>2025-05-03T12:18:10Z</time>
      </trkpt>
      <trkpt lat="41.051786988973618" lon="-8.264343962073326">
        <ele>140.97</ele>
        <time>2025-05-03T12:18:11Z</time>
      </trkpt>
      <trkpt lat="41.051667965948582" lon="-8.264326024800539">
        <ele>142.41</ele>
        <time>2025-05-03T12:18:12Z</time>
      </trkpt>
      <trkpt lat="41.051543997600675" lon="-8.264325018972158">
        <ele>143.37</ele>
        <time>2025-05-03T12:18:13Z</time>
      </trkpt>
      <trkpt lat="41.051421035081148" lon="-8.264346979558468">
        <ele>144.34</ele>
        <time>2025-05-03T12:18:14Z</time>
      </trkpt>
      <trkpt lat="41.051310980692506" lon="-8.264395007863641">
        <ele>144.81999999999999</ele>
        <time>2025-05-03T12:18:15Z</time>
      </trkpt>
      <trkpt lat="41.051206961274147" lon="-8.264474971219897">
        <ele>145.78</ele>
        <time>2025-05-03T12:18:16Z</time>
      </trkpt>
      <trkpt lat="41.051102019846439" lon="-8.264556024223566">
        <ele>146.74000000000001</ele>
        <time>2025-05-03T12:18:17Z</time>
      </trkpt>
      <trkpt lat="41.051020966842771" lon="-8.26467496342957">
        <ele>147.22</ele>
        <time>2025-05-03T12:18:18Z</time>
      </trkpt>
      <trkpt lat="41.05093102902174" lon="-8.264830028638244">
        <ele>148.18000000000001</ele>
        <time>2025-05-03T12:18:19Z</time>
      </trkpt>
      <trkpt lat="41.050924994051456" lon="-8.264975035563111">
        <ele>149.13999999999999</ele>
        <time>2025-05-03T12:18:20Z</time>
      </trkpt>
      <trkpt lat="41.050918037071824" lon="-8.265138985589147">
        <ele>149.62</ele>
        <time>2025-05-03T12:18:21Z</time>
      </trkpt>
      <trkpt lat="41.050912002101541" lon="-8.265298996120691">
        <ele>150.58000000000001</ele>
        <time>2025-05-03T12:18:22Z</time>
      </trkpt>
      <trkpt lat="41.050950977951288" lon="-8.265442997217178">
        <ele>151.53999999999999</ele>
        <time>2025-05-03T12:18:23Z</time>
      </trkpt>
      <trkpt lat="41.051018033176661" lon="-8.265566965565085">
        <ele>152.03</ele>
        <time>2025-05-03T12:18:24Z</time>
      </trkpt>
      <trkpt lat="41.051083998754621" lon="-8.265691017732024">
        <ele>153.47</ele>
        <time>2025-05-03T12:18:25Z</time>
      </trkpt>
      <trkpt lat="41.051152981817722" lon="-8.265815991908312">
        <ele>154.43000000000001</ele>
        <time>2025-05-03T12:18:26Z</time>
      </trkpt>
      <trkpt lat="41.051188018172979" lon="-8.265959993004799">
        <ele>155.38999999999999</ele>
        <time>2025-05-03T12:18:27Z</time>
      </trkpt>
      <trkpt lat="41.051167985424399" lon="-8.266101982444525">
        <ele>156.83000000000001</ele>
        <time>2025-05-03T12:18:28Z</time>
      </trkpt>
      <trkpt lat="41.051115011796355" lon="-8.266202984377742">
        <ele>158.27000000000001</ele>
        <time>2025-05-03T12:18:29Z</time>
      </trkpt>
      <trkpt lat="41.051016021519899" lon="-8.266271967440844">
        <ele>159.24000000000001</ele>
        <time>2025-05-03T12:18:30Z</time>
      </trkpt>
      <trkpt lat="41.050928011536598" lon="-8.266330976039171">
        <ele>160.19999999999999</ele>
        <time>2025-05-03T12:18:31Z</time>
      </trkpt>
      <trkpt lat="41.050815023481846" lon="-8.266292000189424">
        <ele>161.16</ele>
        <time>2025-05-03T12:18:32Z</time>
      </trkpt>
      <trkpt lat="41.050697006285191" lon="-8.266251012682915">
        <ele>162.12</ele>
        <time>2025-05-03T12:18:33Z</time>
      </trkpt>
      <trkpt lat="41.050578989088535" lon="-8.266209019348025">
        <ele>163.08000000000001</ele>
        <time>2025-05-03T12:18:34Z</time>
      </trkpt>
      <trkpt lat="41.050446974113584" lon="-8.266202984377742">
        <ele>164.03999999999999</ele>
        <time>2025-05-03T12:18:35Z</time>
      </trkpt>
      <trkpt lat="41.050328034907579" lon="-8.266249001026154">
        <ele>165</ele>
        <time>2025-05-03T12:18:36Z</time>
      </trkpt>
      <trkpt lat="41.050198031589389" lon="-8.266304992139339">
        <ele>165.96000000000001</ele>
        <time>2025-05-03T12:18:37Z</time>
      </trkpt>
      <trkpt lat="41.050072973594069" lon="-8.266383027657867">
        <ele>166.44999999999999</ele>
        <time>2025-05-03T12:18:38Z</time>
      </trkpt>
      <trkpt lat="41.049966020509601" lon="-8.266482017934322">
        <ele>167.41</ele>
        <time>2025-05-03T12:18:39Z</time>
      </trkpt>
      <trkpt lat="41.049870969727635" lon="-8.266576984897256">
        <ele>167.88999999999999</ele>
        <time>2025-05-03T12:18:40Z</time>
      </trkpt>
      <trkpt lat="41.049810033291578" lon="-8.266684021800757">
        <ele>168.37</ele>
        <time>2025-05-03T12:18:41Z</time>
      </trkpt>
      <trkpt lat="41.049796035513282" lon="-8.266832968220115">
        <ele>169.33000000000001</ele>
        <time>2025-05-03T12:18:42Z</time>
      </trkpt>
      <trkpt lat="41.049779020249844" lon="-8.267003959044814">
        <ele>170.28999999999999</ele>
        <time>2025-05-03T12:18:43Z</time>
      </trkpt>
      <trkpt lat="41.049754964187741" lon="-8.267187019810081">
        <ele>171.25</ele>
        <time>2025-05-03T12:18:44Z</time>
      </trkpt>
      <trkpt lat="41.049724034965038" lon="-8.267373014241457">
        <ele>172.69</ele>
        <time>2025-05-03T12:18:45Z</time>
      </trkpt>
      <trkpt lat="41.049692016094923" lon="-8.267563031986356">
        <ele>173.66</ele>
        <time>2025-05-03T12:18:46Z</time>
      </trkpt>
      <trkpt lat="41.04968598112464" lon="-8.267754977568984">
        <ele>174.62</ele>
        <time>2025-05-03T12:18:47Z</time>
      </trkpt>
      <trkpt lat="41.04968598112464" lon="-8.267935020849109">
        <ele>175.09999999999999</ele>
        <time>2025-05-03T12:18:48Z</time>
      </trkpt>
      <trkpt lat="41.049722023308277" lon="-8.268074998632073">
        <ele>176.06</ele>
        <time>2025-05-03T12:18:49Z</time>
      </trkpt>
      <trkpt lat="41.04977197945118" lon="-8.268199972808361">
        <ele>177.02000000000001</ele>
        <time>2025-05-03T12:18:50Z</time>
      </trkpt>
      <trkpt lat="41.049867030233145" lon="-8.268310027197003">
        <ele>177.97999999999999</ele>
        <time>2025-05-03T12:18:51Z</time>
      </trkpt>
      <trkpt lat="41.049969960004091" lon="-8.268429972231388">
        <ele>178.94</ele>
        <time>2025-05-03T12:18:52Z</time>
      </trkpt>
      <trkpt lat="41.050064004957676" lon="-8.2685830257833">
        <ele>180.38</ele>
        <time>2025-05-03T12:18:53Z</time>
      </trkpt>
      <trkpt lat="41.050130976364017" lon="-8.268743958324194">
        <ele>181.34999999999999</ele>
        <time>2025-05-03T12:18:54Z</time>
      </trkpt>
      <trkpt lat="41.050162995234132" lon="-8.268916960805655">
        <ele>182.78999999999999</ele>
        <time>2025-05-03T12:18:55Z</time>
      </trkpt>
      <trkpt lat="41.050158971920609" lon="-8.269064985215664">
        <ele>183.75</ele>
        <time>2025-05-03T12:18:56Z</time>
      </trkpt>
      <trkpt lat="41.050108009949327" lon="-8.269193982705474">
        <ele>184.71000000000001</ele>
        <time>2025-05-03T12:18:57Z</time>
      </trkpt>
      <trkpt lat="41.050042966380715" lon="-8.269273024052382">
        <ele>185.19</ele>
        <time>2025-05-03T12:18:58Z</time>
      </trkpt>
      <trkpt lat="41.049950011074543" lon="-8.269351981580257">
        <ele>186.15000000000001</ele>
        <time>2025-05-03T12:18:59Z</time>
      </trkpt>
      <trkpt lat="41.049859989434481" lon="-8.269341001287103">
        <ele>186.63</ele>
        <time>2025-05-03T12:19:00Z</time>
      </trkpt>
      <trkpt lat="41.049737026914954" lon="-8.269317029044032">
        <ele>187.59</ele>
        <time>2025-05-03T12:19:01Z</time>
      </trkpt>
      <trkpt lat="41.049645999446511" lon="-8.269235976040363">
        <ele>188.56</ele>
        <time>2025-05-03T12:19:02Z</time>
      </trkpt>
      <trkpt lat="41.049536028876901" lon="-8.269132040441036">
        <ele>189.03999999999999</ele>
        <time>2025-05-03T12:19:03Z</time>
      </trkpt>
      <trkpt lat="41.04942798614502" lon="-8.269030032679439">
        <ele>189.52000000000001</ele>
        <time>2025-05-03T12:19:04Z</time>
      </trkpt>
      <trkpt lat="41.049328995868564" lon="-8.268935987725854">
        <ele>190.47999999999999</ele>
        <time>2025-05-03T12:19:05Z</time>
      </trkpt>
      <trkpt lat="41.049206033349037" lon="-8.268896006047726">
        <ele>190.47999999999999</ele>
        <time>2025-05-03T12:19:06Z</time>
      </trkpt>
      <trkpt lat="41.049082987010479" lon="-8.268860969692469">
        <ele>190.96000000000001</ele>
        <time>2025-05-03T12:19:07Z</time>
      </trkpt>
      <trkpt lat="41.048948038369417" lon="-8.268839009106159">
        <ele>190.96000000000001</ele>
        <time>2025-05-03T12:19:08Z</time>
      </trkpt>
      <trkpt lat="41.048552999272943" lon="-8.268854012712836">
        <ele>192.40000000000001</ele>
        <time>2025-05-03T12:19:11Z</time>
      </trkpt>
      <trkpt lat="41.048436993733048" lon="-8.268900029361248">
        <ele>192.40000000000001</ele>
        <time>2025-05-03T12:19:12Z</time>
      </trkpt>
      <trkpt lat="41.048340015113354" lon="-8.26901201158762">
        <ele>192.88</ele>
        <time>2025-05-03T12:19:13Z</time>
      </trkpt>
      <trkpt lat="41.048241024836898" lon="-8.269143020734191">
        <ele>193.36000000000001</ele>
        <time>2025-05-03T12:19:14Z</time>
      </trkpt>
      <trkpt lat="41.048137005418539" lon="-8.269279981032014">
        <ele>194.31999999999999</ele>
        <time>2025-05-03T12:19:15Z</time>
      </trkpt>
      <trkpt lat="41.048040026798844" lon="-8.269406966865063">
        <ele>194.80000000000001</ele>
        <time>2025-05-03T12:19:16Z</time>
      </trkpt>
      <trkpt lat="41.04794598184526" lon="-8.269496988505125">
        <ele>194.80000000000001</ele>
        <time>2025-05-03T12:19:17Z</time>
      </trkpt>
      <trkpt lat="41.047832993790507" lon="-8.26952900737524">
        <ele>195.28</ele>
        <time>2025-05-03T12:19:18Z</time>
      </trkpt>
      <trkpt lat="41.047702990472317" lon="-8.269509980455041">
        <ele>195.77000000000001</ele>
        <time>2025-05-03T12:19:19Z</time>
      </trkpt>
      <trkpt lat="41.047567036002874" lon="-8.269459018483758">
        <ele>196.25</ele>
        <time>2025-05-03T12:19:20Z</time>
      </trkpt>
      <trkpt lat="41.047436026856303" lon="-8.269409984350205">
        <ele>196.72999999999999</ele>
        <time>2025-05-03T12:19:21Z</time>
      </trkpt>
      <trkpt lat="41.047309041023254" lon="-8.269420964643359">
        <ele>196.72999999999999</ele>
        <time>2025-05-03T12:19:22Z</time>
      </trkpt>
      <trkpt lat="41.047196974977851" lon="-8.269444014877081">
        <ele>196.72999999999999</ele>
        <time>2025-05-03T12:19:23Z</time>
      </trkpt>
      <trkpt lat="41.047077029943466" lon="-8.269552979618311">
        <ele>196.72999999999999</ele>
        <time>2025-05-03T12:19:24Z</time>
      </trkpt>
      <trkpt lat="41.046938979998231" lon="-8.26967996545136">
        <ele>197.21000000000001</ele>
        <time>2025-05-03T12:19:25Z</time>
      </trkpt>
      <trkpt lat="41.046847030520439" lon="-8.269794965162873">
        <ele>197.21000000000001</ele>
        <time>2025-05-03T12:19:26Z</time>
      </trkpt>
      <trkpt lat="41.046102968975902" lon="-8.27075301669538">
        <ele>192.40000000000001</ele>
        <time>2025-05-03T12:19:33Z</time>
      </trkpt>
      <trkpt lat="41.046068016439676" lon="-8.270919984206557">
        <ele>191.91999999999999</ele>
        <time>2025-05-03T12:19:34Z</time>
      </trkpt>
      <trkpt lat="41.046028034761548" lon="-8.271116958931088">
        <ele>192.40000000000001</ele>
        <time>2025-05-03T12:19:35Z</time>
      </trkpt>
      <trkpt lat="41.045868024230003" lon="-8.271921034902334">
        <ele>194.80000000000001</ele>
        <time>2025-05-03T12:19:39Z</time>
      </trkpt>
      <trkpt lat="41.045826030895114" lon="-8.272078027948737">
        <ele>195.28</ele>
        <time>2025-05-03T12:19:40Z</time>
      </trkpt>
      <trkpt lat="41.045761993154883" lon="-8.272206019610167">
        <ele>195.77000000000001</ele>
        <time>2025-05-03T12:19:41Z</time>
      </trkpt>
      <trkpt lat="41.045695021748543" lon="-8.272339962422848">
        <ele>196.25</ele>
        <time>2025-05-03T12:19:42Z</time>
      </trkpt>
      <trkpt lat="41.045631989836693" lon="-8.272435013204813">
        <ele>196.72999999999999</ele>
        <time>2025-05-03T12:19:43Z</time>
      </trkpt>
      <trkpt lat="41.045569963753223" lon="-8.272524029016495">
        <ele>197.69</ele>
        <time>2025-05-03T12:19:44Z</time>
      </trkpt>
      <trkpt lat="41.045501986518502" lon="-8.272618995979428">
        <ele>198.16999999999999</ele>
        <time>2025-05-03T12:19:45Z</time>
      </trkpt>
      <trkpt lat="41.045479020103812" lon="-8.272680016234517">
        <ele>198.65000000000001</ele>
        <time>2025-05-03T12:19:46Z</time>
      </trkpt>
      <trkpt lat="41.045523025095463" lon="-8.272898029536009">
        <ele>199.13</ele>
        <time>2025-05-03T12:19:47Z</time>
      </trkpt>
      <trkpt lat="41.045523025095463" lon="-8.272916972637177">
        <ele>199.61000000000001</ele>
        <time>2025-05-03T12:19:48Z</time>
      </trkpt>
      <trkpt lat="41.045515984296799" lon="-8.273033984005451">
        <ele>199.61000000000001</ele>
        <time>2025-05-03T12:19:49Z</time>
      </trkpt>
      <trkpt lat="41.045445995405316" lon="-8.273128028959036">
        <ele>200.09</ele>
        <time>2025-05-03T12:19:50Z</time>
      </trkpt>
      <trkpt lat="41.045371983200312" lon="-8.273176979273558">
        <ele>200.09</ele>
        <time>2025-05-03T12:19:51Z</time>
      </trkpt>
      <trkpt lat="41.045293025672436" lon="-8.273176979273558">
        <ele>200.56999999999999</ele>
        <time>2025-05-03T12:19:52Z</time>
      </trkpt>
      <trkpt lat="41.045243991538882" lon="-8.273176979273558">
        <ele>200.56999999999999</ele>
        <time>2025-05-03T12:19:53Z</time>
      </trkpt>
      <trkpt lat="41.045096972957253" lon="-8.273067008703947">
        <ele>200.56999999999999</ele>
        <time>2025-05-03T12:19:54Z</time>
      </trkpt>
      <trkpt lat="41.044841995462775" lon="-8.273056028410792">
        <ele>201.05000000000001</ele>
        <time>2025-05-03T12:19:57Z</time>
      </trkpt>
      <trkpt lat="41.044750967994332" lon="-8.273005988448858">
        <ele>201.53</ele>
        <time>2025-05-03T12:19:58Z</time>
      </trkpt>
      <trkpt lat="41.044677039608359" lon="-8.272910015657544">
        <ele>201.53</ele>
        <time>2025-05-03T12:19:59Z</time>
      </trkpt>
      <trkpt lat="41.044049989432096" lon="-8.272008961066604">
        <ele>204.41999999999999</ele>
        <time>2025-05-03T12:20:07Z</time>
      </trkpt>
      <trkpt lat="41.043990980833769" lon="-8.271876024082303">
        <ele>204.90000000000001</ele>
        <time>2025-05-03T12:20:08Z</time>
      </trkpt>
      <trkpt lat="41.043441966176033" lon="-8.270644973963499">
        <ele>211.15000000000001</ele>
        <time>2025-05-03T12:20:18Z</time>
      </trkpt>
      <trkpt lat="41.043380023911595" lon="-8.270592000335455">
        <ele>211.15000000000001</ele>
        <time>2025-05-03T12:20:19Z</time>
      </trkpt>
      <trkpt lat="41.043313974514604" lon="-8.270536009222269">
        <ele>211.63</ele>
        <time>2025-05-03T12:20:20Z</time>
      </trkpt>
      <trkpt lat="41.043224036693573" lon="-8.270510025322437">
        <ele>212.11000000000001</ele>
        <time>2025-05-03T12:20:21Z</time>
      </trkpt>
      <trkpt lat="41.043138960376382" lon="-8.270502984523773">
        <ele>213.06999999999999</ele>
        <time>2025-05-03T12:20:22Z</time>
      </trkpt>
      <trkpt lat="41.043012980371714" lon="-8.2705810200423">
        <ele>214.03</ele>
        <time>2025-05-03T12:20:23Z</time>
      </trkpt>
      <trkpt lat="41.042981967329979" lon="-8.27060298062861">
        <ele>214.99000000000001</ele>
        <time>2025-05-03T12:20:24Z</time>
      </trkpt>
      <trkpt lat="41.042926982045174" lon="-8.270644973963499">
        <ele>215.47</ele>
        <time>2025-05-03T12:20:25Z</time>
      </trkpt>
      <trkpt lat="41.042926982045174" lon="-8.270644973963499">
        <ele>215.94999999999999</ele>
        <time>2025-05-03T12:20:26Z</time>
      </trkpt>
      <trkpt lat="41.042730007320642" lon="-8.270742958411574">
        <ele>216.43000000000001</ele>
        <time>2025-05-03T12:20:27Z</time>
      </trkpt>
      <trkpt lat="41.042691031470895" lon="-8.27083800919354">
        <ele>216.43000000000001</ele>
        <time>2025-05-03T12:20:28Z</time>
      </trkpt>
      <trkpt lat="41.042651971802115" lon="-8.270929958671331">
        <ele>216.43000000000001</ele>
        <time>2025-05-03T12:20:29Z</time>
      </trkpt>
      <trkpt lat="41.042615007609129" lon="-8.271017968654633">
        <ele>216.43000000000001</ele>
        <time>2025-05-03T12:20:30Z</time>
      </trkpt>
      <trkpt lat="41.042576031759381" lon="-8.271111007779837">
        <ele>216.43000000000001</ele>
        <time>2025-05-03T12:20:31Z</time>
      </trkpt>
      <trkpt lat="41.042407974600792" lon="-8.271575029939413">
        <ele>216.43000000000001</ele>
        <time>2025-05-03T12:20:35Z</time>
      </trkpt>
      <trkpt lat="41.04240101762116" lon="-8.271707966923714">
        <ele>215.94999999999999</ele>
        <time>2025-05-03T12:20:36Z</time>
      </trkpt>
      <trkpt lat="41.042393976822495" lon="-8.271841993555427">
        <ele>215.94999999999999</ele>
        <time>2025-05-03T12:20:37Z</time>
      </trkpt>
      <trkpt lat="41.042407974600792" lon="-8.271980965510011">
        <ele>215.47</ele>
        <time>2025-05-03T12:20:38Z</time>
      </trkpt>
      <trkpt lat="41.042440999299288" lon="-8.272112980484963">
        <ele>215.47</ele>
        <time>2025-05-03T12:20:39Z</time>
      </trkpt>
      <trkpt lat="41.042476035654545" lon="-8.272254969924688">
        <ele>215.47</ele>
        <time>2025-05-03T12:20:40Z</time>
      </trkpt>
      <trkpt lat="41.042899992316961" lon="-8.273791037499905">
        <ele>211.63</ele>
        <time>2025-05-03T12:20:50Z</time>
      </trkpt>
      <trkpt lat="41.042993031442165" lon="-8.274241983890533">
        <ele>210.19</ele>
        <time>2025-05-03T12:20:53Z</time>
      </trkpt>
      <trkpt lat="41.043009040877223" lon="-8.27438497915864">
        <ele>209.69999999999999</ele>
        <time>2025-05-03T12:20:54Z</time>
      </trkpt>
      <trkpt lat="41.042989008128643" lon="-8.274493021890521">
        <ele>209.69999999999999</ele>
        <time>2025-05-03T12:20:55Z</time>
      </trkpt>
      <trkpt lat="41.042943997308612" lon="-8.274625958874822">
        <ele>209.22</ele>
        <time>2025-05-03T12:20:56Z</time>
      </trkpt>
      <trkpt lat="41.042894963175058" lon="-8.274754034355283">
        <ele>209.22</ele>
        <time>2025-05-03T12:20:57Z</time>
      </trkpt>
      <trkpt lat="41.042791027575731" lon="-8.274849001318216">
        <ele>208.74000000000001</ele>
        <time>2025-05-03T12:20:58Z</time>
      </trkpt>
      <trkpt lat="41.042683990672231" lon="-8.274946985766292">
        <ele>208.74000000000001</ele>
        <time>2025-05-03T12:20:59Z</time>
      </trkpt>
      <trkpt lat="41.041590990498662" lon="-8.275964967906475">
        <ele>207.30000000000001</ele>
        <time>2025-05-03T12:21:10Z</time>
      </trkpt>
      <trkpt lat="41.04119997471571" lon="-8.276341985911131">
        <ele>206.81999999999999</ele>
        <time>2025-05-03T12:21:14Z</time>
      </trkpt>
      <trkpt lat="41.041083969175816" lon="-8.27638297341764">
        <ele>206.34</ele>
        <time>2025-05-03T12:21:15Z</time>
      </trkpt>
      <trkpt lat="41.040969975292683" lon="-8.276393031701446">
        <ele>206.34</ele>
        <time>2025-05-03T12:21:16Z</time>
      </trkpt>
      <trkpt lat="41.040851036086679" lon="-8.276388002559543">
        <ele>206.34</ele>
        <time>2025-05-03T12:21:17Z</time>
      </trkpt>
      <trkpt lat="41.040728995576501" lon="-8.276381967589259">
        <ele>205.86000000000001</ele>
        <time>2025-05-03T12:21:18Z</time>
      </trkpt>
      <trkpt lat="41.040607038885355" lon="-8.276377022266388">
        <ele>205.86000000000001</ele>
        <time>2025-05-03T12:21:19Z</time>
      </trkpt>
      <trkpt lat="41.04049002751708" lon="-8.276389008387923">
        <ele>205.38</ele>
        <time>2025-05-03T12:21:20Z</time>
      </trkpt>
      <trkpt lat="41.040147040039301" lon="-8.276474000886083">
        <ele>203.46000000000001</ele>
        <time>2025-05-03T12:21:23Z</time>
      </trkpt>
      <trkpt lat="41.040036985650659" lon="-8.276494033634663">
        <ele>202.97999999999999</ele>
        <time>2025-05-03T12:21:24Z</time>
      </trkpt>
      <trkpt lat="41.039951993152499" lon="-8.27653300948441">
        <ele>202.97999999999999</ele>
        <time>2025-05-03T12:21:25Z</time>
      </trkpt>
      <trkpt lat="41.039879992604256" lon="-8.276594029739499">
        <ele>202.97999999999999</ele>
        <time>2025-05-03T12:21:26Z</time>
      </trkpt>
      <trkpt lat="41.039826013147831" lon="-8.27666100114584">
        <ele>202.49000000000001</ele>
        <time>2025-05-03T12:21:27Z</time>
      </trkpt>
      <trkpt lat="41.039787959307432" lon="-8.276764014735818">
        <ele>202.49000000000001</ele>
        <time>2025-05-03T12:21:28Z</time>
      </trkpt>
      <trkpt lat="41.039745965972543" lon="-8.276872979477048">
        <ele>202.00999999999999</ele>
        <time>2025-05-03T12:21:29Z</time>
      </trkpt>
      <trkpt lat="41.039707995951176" lon="-8.276981022208929">
        <ele>202.00999999999999</ele>
        <time>2025-05-03T12:21:30Z</time>
      </trkpt>
      <trkpt lat="41.039707995951176" lon="-8.277109013870359">
        <ele>202.00999999999999</ele>
        <time>2025-05-03T12:21:31Z</time>
      </trkpt>
      <trkpt lat="41.03971897624433" lon="-8.27724002301693">
        <ele>201.53</ele>
        <time>2025-05-03T12:21:32Z</time>
      </trkpt>
      <trkpt lat="41.039764992892742" lon="-8.277361979708076">
        <ele>202.00999999999999</ele>
        <time>2025-05-03T12:21:33Z</time>
      </trkpt>
      <trkpt lat="41.039811009541154" lon="-8.277486031875014">
        <ele>202.00999999999999</ele>
        <time>2025-05-03T12:21:34Z</time>
      </trkpt>
      <trkpt lat="41.039832970127463" lon="-8.27760698273778">
        <ele>201.53</ele>
        <time>2025-05-03T12:21:35Z</time>
      </trkpt>
      <trkpt lat="41.03982400149107" lon="-8.277737991884351">
        <ele>201.05000000000001</ele>
        <time>2025-05-03T12:21:36Z</time>
      </trkpt>
      <trkpt lat="41.039808997884393" lon="-8.277866989374161">
        <ele>200.09</ele>
        <time>2025-05-03T12:21:37Z</time>
      </trkpt>
      <trkpt lat="41.03973900899291" lon="-8.277987018227577">
        <ele>199.61000000000001</ele>
        <time>2025-05-03T12:21:38Z</time>
      </trkpt>
      <trkpt lat="41.039664996787906" lon="-8.278115009889007">
        <ele>199.13</ele>
        <time>2025-05-03T12:21:39Z</time>
      </trkpt>
      <trkpt lat="41.03958897292614" lon="-8.278247024863958">
        <ele>198.65000000000001</ele>
        <time>2025-05-03T12:21:40Z</time>
      </trkpt>
      <trkpt lat="41.039495011791587" lon="-8.278362024575472">
        <ele>198.16999999999999</ele>
        <time>2025-05-03T12:21:41Z</time>
      </trkpt>
      <trkpt lat="41.039400966838002" lon="-8.278473000973463">
        <ele>197.69</ele>
        <time>2025-05-03T12:21:42Z</time>
      </trkpt>
      <trkpt lat="41.039059991016984" lon="-8.278849013149738">
        <ele>196.25</ele>
        <time>2025-05-03T12:21:46Z</time>
      </trkpt>
      <trkpt lat="41.038970975205302" lon="-8.278901986777782">
        <ele>196.25</ele>
        <time>2025-05-03T12:21:47Z</time>
      </trkpt>
      <trkpt lat="41.03888195939362" lon="-8.278955966234207">
        <ele>195.77000000000001</ele>
        <time>2025-05-03T12:21:48Z</time>
      </trkpt>
      <trkpt lat="41.038784980773926" lon="-8.279013969004154">
        <ele>195.77000000000001</ele>
        <time>2025-05-03T12:21:49Z</time>
      </trkpt>
      <trkpt lat="41.038683978840709" lon="-8.279020003974438">
        <ele>195.28</ele>
        <time>2025-05-03T12:21:50Z</time>
      </trkpt>
      <trkpt lat="41.038477029651403" lon="-8.279031990095973">
        <ele>195.28</ele>
        <time>2025-05-03T12:21:52Z</time>
      </trkpt>
      <trkpt lat="41.038377033546567" lon="-8.279022015631199">
        <ele>195.28</ele>
        <time>2025-05-03T12:21:53Z</time>
      </trkpt>
      <trkpt lat="41.037985011935234" lon="-8.278836021199822">
        <ele>193.84</ele>
        <time>2025-05-03T12:21:57Z</time>
      </trkpt>
      <trkpt lat="41.037905970588326" lon="-8.278756979852915">
        <ele>193.84</ele>
        <time>2025-05-03T12:21:58Z</time>
      </trkpt>
      <trkpt lat="41.037753000855446" lon="-8.278604010120034">
        <ele>193.36000000000001</ele>
        <time>2025-05-03T12:22:00Z</time>
      </trkpt>
      <trkpt lat="41.037670020014048" lon="-8.278549024835229">
        <ele>193.36000000000001</ele>
        <time>2025-05-03T12:22:01Z</time>
      </trkpt>
      <trkpt lat="41.037573041394353" lon="-8.278517005965114">
        <ele>192.88</ele>
        <time>2025-05-03T12:22:02Z</time>
      </trkpt>
      <trkpt lat="41.037476984784007" lon="-8.278484987094998">
        <ele>192.88</ele>
        <time>2025-05-03T12:22:03Z</time>
      </trkpt>
      <trkpt lat="41.037383023649454" lon="-8.278454979881644">
        <ele>192.40000000000001</ele>
        <time>2025-05-03T12:22:04Z</time>
      </trkpt>
      <trkpt lat="41.03728998452425" lon="-8.278438970446587">
        <ele>192.40000000000001</ele>
        <time>2025-05-03T12:22:05Z</time>
      </trkpt>
      <trkpt lat="41.037125028669834" lon="-8.278411980718374">
        <ele>192.40000000000001</ele>
        <time>2025-05-03T12:22:07Z</time>
      </trkpt>
      <trkpt lat="41.037064008414745" lon="-8.27840100042522">
        <ele>191.91999999999999</ele>
        <time>2025-05-03T12:22:08Z</time>
      </trkpt>
      <trkpt lat="41.036972980946302" lon="-8.278567967936397">
        <ele>191.91999999999999</ele>
        <time>2025-05-03T12:22:09Z</time>
      </trkpt>
      <trkpt lat="41.036957977339625" lon="-8.278653966262937">
        <ele>191.91999999999999</ele>
        <time>2025-05-03T12:22:10Z</time>
      </trkpt>
      <trkpt lat="41.036940962076187" lon="-8.278750022873282">
        <ele>191.44</ele>
        <time>2025-05-03T12:22:11Z</time>
      </trkpt>
      <trkpt lat="41.036922018975019" lon="-8.27885203063488">
        <ele>191.44</ele>
        <time>2025-05-03T12:22:12Z</time>
      </trkpt>
      <trkpt lat="41.036897040903568" lon="-8.278992008417845">
        <ele>191.44</ele>
        <time>2025-05-03T12:22:13Z</time>
      </trkpt>
      <trkpt lat="41.036897040903568" lon="-8.279084041714668">
        <ele>191.44</ele>
        <time>2025-05-03T12:22:14Z</time>
      </trkpt>
      <trkpt lat="41.036900980398059" lon="-8.280324982479215">
        <ele>190</ele>
        <time>2025-05-03T12:22:22Z</time>
      </trkpt>
      <trkpt lat="41.036957977339625" lon="-8.28104498796165">
        <ele>187.11000000000001</ele>
        <time>2025-05-03T12:22:26Z</time>
      </trkpt>
      <trkpt lat="41.036943979561329" lon="-8.281189994886518">
        <ele>186.63</ele>
        <time>2025-05-03T12:22:27Z</time>
      </trkpt>
      <trkpt lat="41.036891005933285" lon="-8.281284961849451">
        <ele>185.66999999999999</ele>
        <time>2025-05-03T12:22:28Z</time>
      </trkpt>
      <trkpt lat="41.036810036748648" lon="-8.281386969611049">
        <ele>184.71000000000001</ele>
        <time>2025-05-03T12:22:29Z</time>
      </trkpt>
      <trkpt lat="41.036712974309921" lon="-8.28145301900804">
        <ele>184.22999999999999</ele>
        <time>2025-05-03T12:22:30Z</time>
      </trkpt>
      <trkpt lat="41.036591017618775" lon="-8.281486965715885">
        <ele>183.27000000000001</ele>
        <time>2025-05-03T12:22:31Z</time>
      </trkpt>
      <trkpt lat="41.036462020128965" lon="-8.281522002071142">
        <ele>182.78999999999999</ele>
        <time>2025-05-03T12:22:32Z</time>
      </trkpt>
      <trkpt lat="41.036324976012111" lon="-8.281558966264129">
        <ele>181.83000000000001</ele>
        <time>2025-05-03T12:22:33Z</time>
      </trkpt>
      <trkpt lat="41.036044014617801" lon="-8.281514039263129">
        <ele>179.90000000000001</ele>
        <time>2025-05-03T12:22:35Z</time>
      </trkpt>
      <trkpt lat="41.035903031006455" lon="-8.281484032049775">
        <ele>178.94</ele>
        <time>2025-05-03T12:22:36Z</time>
      </trkpt>
      <trkpt lat="41.03563497774303" lon="-8.281427035108209">
        <ele>177.02000000000001</ele>
        <time>2025-05-03T12:22:38Z</time>
      </trkpt>
      <trkpt lat="41.03552701883018" lon="-8.281458970159292">
        <ele>176.53999999999999</ele>
        <time>2025-05-03T12:22:39Z</time>
      </trkpt>
      <trkpt lat="41.03542098775506" lon="-8.281529964879155">
        <ele>176.06</ele>
        <time>2025-05-03T12:22:40Z</time>
      </trkpt>
      <trkpt lat="41.034922013059258" lon="-8.281854009255767">
        <ele>173.66</ele>
        <time>2025-05-03T12:22:44Z</time>
      </trkpt>
      <trkpt lat="41.034797038882971" lon="-8.281888961791992">
        <ele>172.69</ele>
        <time>2025-05-03T12:22:45Z</time>
      </trkpt>
      <trkpt lat="41.03470902889967" lon="-8.281888961791992">
        <ele>171.72999999999999</ele>
        <time>2025-05-03T12:22:46Z</time>
      </trkpt>
      <trkpt lat="41.034569973126054" lon="-8.281805980950594">
        <ele>170.77000000000001</ele>
        <time>2025-05-03T12:22:47Z</time>
      </trkpt>
      <trkpt lat="41.034468971192837" lon="-8.281726017594338">
        <ele>169.81</ele>
        <time>2025-05-03T12:22:48Z</time>
      </trkpt>
      <trkpt lat="41.034375010058284" lon="-8.281594002619386">
        <ele>168.84999999999999</ele>
        <time>2025-05-03T12:22:49Z</time>
      </trkpt>
      <trkpt lat="41.034276019781828" lon="-8.281455030664802">
        <ele>167.88999999999999</ele>
        <time>2025-05-03T12:22:50Z</time>
      </trkpt>
      <trkpt lat="41.033966979011893" lon="-8.28102202154696">
        <ele>165.47999999999999</ele>
        <time>2025-05-03T12:22:53Z</time>
      </trkpt>
      <trkpt lat="41.033844016492367" lon="-8.280957983806729">
        <ele>165</ele>
        <time>2025-05-03T12:22:54Z</time>
      </trkpt>
      <trkpt lat="41.033720970153809" lon="-8.280901992693543">
        <ele>164.52000000000001</ele>
        <time>2025-05-03T12:22:55Z</time>
      </trkpt>
      <trkpt lat="41.033451994881034" lon="-8.280827980488539">
        <ele>164.03999999999999</ele>
        <time>2025-05-03T12:22:57Z</time>
      </trkpt>
      <trkpt lat="41.033308999612927" lon="-8.280789004638791">
        <ele>163.56</ele>
        <time>2025-05-03T12:22:58Z</time>
      </trkpt>
      <trkpt lat="41.033167010173202" lon="-8.280749022960663">
        <ele>163.08000000000001</ele>
        <time>2025-05-03T12:22:59Z</time>
      </trkpt>
      <trkpt lat="41.033038012683392" lon="-8.280739970505238">
        <ele>162.59999999999999</ele>
        <time>2025-05-03T12:23:00Z</time>
      </trkpt>
      <trkpt lat="41.032931981608272" lon="-8.280776012688875">
        <ele>162.12</ele>
        <time>2025-05-03T12:23:01Z</time>
      </trkpt>
      <trkpt lat="41.032835002988577" lon="-8.280836027115583">
        <ele>161.63999999999999</ele>
        <time>2025-05-03T12:23:02Z</time>
      </trkpt>
      <trkpt lat="41.032731989398599" lon="-8.280877014622092">
        <ele>160.68000000000001</ele>
        <time>2025-05-03T12:23:03Z</time>
      </trkpt>
      <trkpt lat="41.032619001343846" lon="-8.280908027663827">
        <ele>159.72</ele>
        <time>2025-05-03T12:23:04Z</time>
      </trkpt>
      <trkpt lat="41.032504001632333" lon="-8.280910961329937">
        <ele>159.24000000000001</ele>
        <time>2025-05-03T12:23:05Z</time>
      </trkpt>
      <trkpt lat="41.0323900077492" lon="-8.280884977430105">
        <ele>159.24000000000001</ele>
        <time>2025-05-03T12:23:06Z</time>
      </trkpt>
      <trkpt lat="41.032078033313155" lon="-8.280754974111915">
        <ele>157.78999999999999</ele>
        <time>2025-05-03T12:23:09Z</time>
      </trkpt>
      <trkpt lat="41.031978037208319" lon="-8.280671993270516">
        <ele>157.31</ele>
        <time>2025-05-03T12:23:10Z</time>
      </trkpt>
      <trkpt lat="41.031790031120181" lon="-8.280516006052494">
        <ele>156.34999999999999</ele>
        <time>2025-05-03T12:23:12Z</time>
      </trkpt>
      <trkpt lat="41.031662961468101" lon="-8.280490022152662">
        <ele>155.38999999999999</ele>
        <time>2025-05-03T12:23:13Z</time>
      </trkpt>
      <trkpt lat="41.03155299089849" lon="-8.280478036031127">
        <ele>154.91</ele>
        <time>2025-05-03T12:23:14Z</time>
      </trkpt>
      <trkpt lat="41.031435979530215" lon="-8.28050603158772">
        <ele>154.43000000000001</ele>
        <time>2025-05-03T12:23:15Z</time>
      </trkpt>
      <trkpt lat="41.03131502866745" lon="-8.280535032972693">
        <ele>153.94999999999999</ele>
        <time>2025-05-03T12:23:16Z</time>
      </trkpt>
      <trkpt lat="41.031052004545927" lon="-8.280574008822441">
        <ele>152.50999999999999</ele>
        <time>2025-05-03T12:23:18Z</time>
      </trkpt>
      <trkpt lat="41.030914960429072" lon="-8.280562022700906">
        <ele>152.03</ele>
        <time>2025-05-03T12:23:19Z</time>
      </trkpt>
      <trkpt lat="41.030651014298201" lon="-8.280538972467184">
        <ele>151.06</ele>
        <time>2025-05-03T12:23:21Z</time>
      </trkpt>
      <trkpt lat="41.030534002929926" lon="-8.280565040186048">
        <ele>150.58000000000001</ele>
        <time>2025-05-03T12:23:22Z</time>
      </trkpt>
      <trkpt lat="41.030434006825089" lon="-8.280637040734291">
        <ele>150.09999999999999</ele>
        <time>2025-05-03T12:23:23Z</time>
      </trkpt>
      <trkpt lat="41.030364017933607" lon="-8.280744999647141">
        <ele>149.62</ele>
        <time>2025-05-03T12:23:24Z</time>
      </trkpt>
      <trkpt lat="41.030327975749969" lon="-8.280880032107234">
        <ele>149.13999999999999</ele>
        <time>2025-05-03T12:23:25Z</time>
      </trkpt>
      <trkpt lat="41.030290005728602" lon="-8.281021015718579">
        <ele>148.66</ele>
        <time>2025-05-03T12:23:26Z</time>
      </trkpt>
      <trkpt lat="41.030224040150642" lon="-8.281335001811385">
        <ele>146.74000000000001</ele>
        <time>2025-05-03T12:23:28Z</time>
      </trkpt>
      <trkpt lat="41.030224040150642" lon="-8.281500041484833">
        <ele>145.78</ele>
        <time>2025-05-03T12:23:29Z</time>
      </trkpt>
      <trkpt lat="41.030247006565332" lon="-8.281654017046094">
        <ele>144.81999999999999</ele>
        <time>2025-05-03T12:23:30Z</time>
      </trkpt>
      <trkpt lat="41.030299980193377" lon="-8.281798018142581">
        <ele>144.34</ele>
        <time>2025-05-03T12:23:31Z</time>
      </trkpt>
      <trkpt lat="41.030366029590368" lon="-8.281931960955262">
        <ele>143.84999999999999</ele>
        <time>2025-05-03T12:23:32Z</time>
      </trkpt>
      <trkpt lat="41.030439035966992" lon="-8.282071016728878">
        <ele>143.37</ele>
        <time>2025-05-03T12:23:33Z</time>
      </trkpt>
      <trkpt lat="41.03084203787148" lon="-8.282760009169579">
        <ele>140.97</ele>
        <time>2025-05-03T12:23:38Z</time>
      </trkpt>
      <trkpt lat="41.03088797070086" lon="-8.282909961417317">
        <ele>140.49000000000001</ele>
        <time>2025-05-03T12:23:39Z</time>
      </trkpt>
      <trkpt lat="41.030906997621059" lon="-8.28306301496923">
        <ele>140.00999999999999</ele>
        <time>2025-05-03T12:23:40Z</time>
      </trkpt>
      <trkpt lat="41.030899034813046" lon="-8.283223025500774">
        <ele>139.05000000000001</ele>
        <time>2025-05-03T12:23:41Z</time>
      </trkpt>
      <trkpt lat="41.030891994014382" lon="-8.283390998840332">
        <ele>138.09</ele>
        <time>2025-05-03T12:23:42Z</time>
      </trkpt>
      <trkpt lat="41.030884031206369" lon="-8.283553021028638">
        <ele>137.61000000000001</ele>
        <time>2025-05-03T12:23:43Z</time>
      </trkpt>
      <trkpt lat="41.030876990407705" lon="-8.283712025731802">
        <ele>137.13</ele>
        <time>2025-05-03T12:23:44Z</time>
      </trkpt>
      <trkpt lat="41.030869027599692" lon="-8.283872958272696">
        <ele>136.16</ele>
        <time>2025-05-03T12:23:45Z</time>
      </trkpt>
      <trkpt lat="41.030897023156285" lon="-8.284039003774524">
        <ele>135.19999999999999</ele>
        <time>2025-05-03T12:23:46Z</time>
      </trkpt>
      <trkpt lat="41.03118896484375" lon="-8.285151030868292">
        <ele>134.24000000000001</ele>
        <time>2025-05-03T12:23:53Z</time>
      </trkpt>
      <trkpt lat="41.03118896484375" lon="-8.285280028358102">
        <ele>134.24000000000001</ele>
        <time>2025-05-03T12:23:54Z</time>
      </trkpt>
      <trkpt lat="41.03118896484375" lon="-8.285400979220867">
        <ele>134.24000000000001</ele>
        <time>2025-05-03T12:23:55Z</time>
      </trkpt>
      <trkpt lat="41.031155018135905" lon="-8.285506004467607">
        <ele>134.24000000000001</ele>
        <time>2025-05-03T12:23:56Z</time>
      </trkpt>
      <trkpt lat="41.03110296651721" lon="-8.28561999835074">
        <ele>133.75999999999999</ele>
        <time>2025-05-03T12:23:57Z</time>
      </trkpt>
      <trkpt lat="41.031050998717546" lon="-8.285734998062253">
        <ele>133.75999999999999</ele>
        <time>2025-05-03T12:23:58Z</time>
      </trkpt>
      <trkpt lat="41.031000958755612" lon="-8.285844968631864">
        <ele>133.75999999999999</ele>
        <time>2025-05-03T12:23:59Z</time>
      </trkpt>
      <trkpt lat="41.030953014269471" lon="-8.285948988050222">
        <ele>134.24000000000001</ele>
        <time>2025-05-03T12:24:00Z</time>
      </trkpt>
      <trkpt lat="41.030904985964298" lon="-8.286055019125342">
        <ele>134.72</ele>
        <time>2025-05-03T12:24:01Z</time>
      </trkpt>
      <trkpt lat="41.030859975144267" lon="-8.28617999330163">
        <ele>135.19999999999999</ele>
        <time>2025-05-03T12:24:02Z</time>
      </trkpt>
      <trkpt lat="41.030836002901196" lon="-8.286311002448201">
        <ele>135.68000000000001</ele>
        <time>2025-05-03T12:24:03Z</time>
      </trkpt>
      <trkpt lat="41.030631987378001" lon="-8.287338959053159">
        <ele>140.97</ele>
        <time>2025-05-03T12:24:10Z</time>
      </trkpt>
      <trkpt lat="41.030554035678506" lon="-8.287422023713589">
        <ele>140.97</ele>
        <time>2025-05-03T12:24:11Z</time>
      </trkpt>
      <trkpt lat="41.030466025695205" lon="-8.287514979019761">
        <ele>141.93000000000001</ele>
        <time>2025-05-03T12:24:12Z</time>
      </trkpt>
      <trkpt lat="41.030304003506899" lon="-8.287686975672841">
        <ele>143.37</ele>
        <time>2025-05-03T12:24:14Z</time>
      </trkpt>
      <trkpt lat="41.030265027657151" lon="-8.287798035889864">
        <ele>144.34</ele>
        <time>2025-05-03T12:24:15Z</time>
      </trkpt>
      <trkpt lat="41.030237032100558" lon="-8.287908006459475">
        <ele>145.30000000000001</ele>
        <time>2025-05-03T12:24:16Z</time>
      </trkpt>
      <trkpt lat="41.030256981030107" lon="-8.288035998120904">
        <ele>145.78</ele>
        <time>2025-05-03T12:24:17Z</time>
      </trkpt>
      <trkpt lat="41.030307020992041" lon="-8.288144040852785">
        <ele>146.74000000000001</ele>
        <time>2025-05-03T12:24:18Z</time>
      </trkpt>
      <trkpt lat="41.030388996005058" lon="-8.288226015865803">
        <ele>147.22</ele>
        <time>2025-05-03T12:24:19Z</time>
      </trkpt>
      <trkpt lat="41.030459990724921" lon="-8.288261974230409">
        <ele>148.18000000000001</ele>
        <time>2025-05-03T12:24:20Z</time>
      </trkpt>
      <trkpt lat="41.030588988214731" lon="-8.288261974230409">
        <ele>148.66</ele>
        <time>2025-05-03T12:24:21Z</time>
      </trkpt>
      <trkpt lat="41.03067297488451" lon="-8.288224004209042">
        <ele>149.13999999999999</ele>
        <time>2025-05-03T12:24:22Z</time>
      </trkpt>
      <trkpt lat="41.030773976817727" lon="-8.288179999217391">
        <ele>149.62</ele>
        <time>2025-05-03T12:24:23Z</time>
      </trkpt>
      <trkpt lat="41.030846983194351" lon="-8.288077991455793">
        <ele>150.58000000000001</ele>
        <time>2025-05-03T12:24:24Z</time>
      </trkpt>
      <trkpt lat="41.030917977914214" lon="-8.287971960380673">
        <ele>151.06</ele>
        <time>2025-05-03T12:24:25Z</time>
      </trkpt>
      <trkpt lat="41.030992995947599" lon="-8.287858972325921">
        <ele>152.03</ele>
        <time>2025-05-03T12:24:26Z</time>
      </trkpt>
      <trkpt lat="41.031072037294507" lon="-8.287741038948298">
        <ele>152.99000000000001</ele>
        <time>2025-05-03T12:24:27Z</time>
      </trkpt>
      <trkpt lat="41.031153006479144" lon="-8.28761899843812">
        <ele>153.47</ele>
        <time>2025-05-03T12:24:28Z</time>
      </trkpt>
      <trkpt lat="41.031619040295482" lon="-8.2870829757303">
        <ele>155.38999999999999</ele>
        <time>2025-05-03T12:24:33Z</time>
      </trkpt>
      <trkpt lat="41.031711995601654" lon="-8.287034025415778">
        <ele>155.38999999999999</ele>
        <time>2025-05-03T12:24:34Z</time>
      </trkpt>
      <trkpt lat="41.031811991706491" lon="-8.286995971575379">
        <ele>155.87</ele>
        <time>2025-05-03T12:24:35Z</time>
      </trkpt>
      <trkpt lat="41.031906958669424" lon="-8.287037964910269">
        <ele>155.87</ele>
        <time>2025-05-03T12:24:36Z</time>
      </trkpt>
      <trkpt lat="41.032008966431022" lon="-8.287086999043822">
        <ele>155.87</ele>
        <time>2025-05-03T12:24:37Z</time>
      </trkpt>
      <trkpt lat="41.032082978636026" lon="-8.287198981270194">
        <ele>156.34999999999999</ele>
        <time>2025-05-03T12:24:38Z</time>
      </trkpt>
      <trkpt lat="41.032156990841031" lon="-8.287310963496566">
        <ele>156.83000000000001</ele>
        <time>2025-05-03T12:24:39Z</time>
      </trkpt>
      <trkpt lat="41.0322190169245" lon="-8.287419006228447">
        <ele>157.31</ele>
        <time>2025-05-03T12:24:40Z</time>
      </trkpt>
      <trkpt lat="41.0322190169245" lon="-8.287546997889876">
        <ele>157.78999999999999</ele>
        <time>2025-05-03T12:24:41Z</time>
      </trkpt>
      <trkpt lat="41.032206024974585" lon="-8.287667026743293">
        <ele>158.27000000000001</ele>
        <time>2025-05-03T12:24:42Z</time>
      </trkpt>
      <trkpt lat="41.032148022204638" lon="-8.287782026454806">
        <ele>158.75</ele>
        <time>2025-05-03T12:24:43Z</time>
      </trkpt>
      <trkpt lat="41.03208901360631" lon="-8.287900965660811">
        <ele>159.24000000000001</ele>
        <time>2025-05-03T12:24:44Z</time>
      </trkpt>
      <trkpt lat="41.032030005007982" lon="-8.288017977029085">
        <ele>159.72</ele>
        <time>2025-05-03T12:24:45Z</time>
      </trkpt>
      <trkpt lat="41.032015001401305" lon="-8.288137000054121">
        <ele>160.19999999999999</ele>
        <time>2025-05-03T12:24:46Z</time>
      </trkpt>
      <trkpt lat="41.032035034149885" lon="-8.288268009200692">
        <ele>161.16</ele>
        <time>2025-05-03T12:24:47Z</time>
      </trkpt>
      <trkpt lat="41.032083984464407" lon="-8.288384014740586">
        <ele>161.63999999999999</ele>
        <time>2025-05-03T12:24:48Z</time>
      </trkpt>
      <trkpt lat="41.032178029417992" lon="-8.288477975875139">
        <ele>162.12</ele>
        <time>2025-05-03T12:24:49Z</time>
      </trkpt>
      <trkpt lat="41.032293029129505" lon="-8.288547964766622">
        <ele>162.59999999999999</ele>
        <time>2025-05-03T12:24:50Z</time>
      </trkpt>
      <trkpt lat="41.032416997477412" lon="-8.288612002506852">
        <ele>163.08000000000001</ele>
        <time>2025-05-03T12:24:51Z</time>
      </trkpt>
      <trkpt lat="41.032656971365213" lon="-8.28873798251152">
        <ele>163.56</ele>
        <time>2025-05-03T12:24:53Z</time>
      </trkpt>
      <trkpt lat="41.03275503963232" lon="-8.288831021636725">
        <ele>164.03999999999999</ele>
        <time>2025-05-03T12:24:54Z</time>
      </trkpt>
      <trkpt lat="41.032844977453351" lon="-8.288939986377955">
        <ele>164.52000000000001</ele>
        <time>2025-05-03T12:24:55Z</time>
      </trkpt>
      <trkpt lat="41.032918989658356" lon="-8.289066972211003">
        <ele>165.47999999999999</ele>
        <time>2025-05-03T12:24:56Z</time>
      </trkpt>
      <trkpt lat="41.032954026013613" lon="-8.289219019934535">
        <ele>165.47999999999999</ele>
        <time>2025-05-03T12:24:57Z</time>
      </trkpt>
      <trkpt lat="41.03299199603498" lon="-8.28937903046608">
        <ele>165.47999999999999</ele>
        <time>2025-05-03T12:24:58Z</time>
      </trkpt>
      <trkpt lat="41.033197017386556" lon="-8.290172964334488">
        <ele>167.88999999999999</ele>
        <time>2025-05-03T12:25:03Z</time>
      </trkpt>
      <trkpt lat="41.033248985186219" lon="-8.290314031764865">
        <ele>168.37</ele>
        <time>2025-05-03T12:25:04Z</time>
      </trkpt>
      <trkpt lat="41.033296007663012" lon="-8.290445040911436">
        <ele>168.84999999999999</ele>
        <time>2025-05-03T12:25:05Z</time>
      </trkpt>
      <trkpt lat="41.033304976299405" lon="-8.290571020916104">
        <ele>169.33000000000001</ele>
        <time>2025-05-03T12:25:06Z</time>
      </trkpt>
      <trkpt lat="41.033289972692728" lon="-8.290704963728786">
        <ele>169.81</ele>
        <time>2025-05-03T12:25:07Z</time>
      </trkpt>
      <trkpt lat="41.03327002376318" lon="-8.290847958996892">
        <ele>170.28999999999999</ele>
        <time>2025-05-03T12:25:08Z</time>
      </trkpt>
      <trkpt lat="41.03316399268806" lon="-8.291932996362448">
        <ele>174.13999999999999</ele>
        <time>2025-05-03T12:25:15Z</time>
      </trkpt>
      <trkpt lat="41.033182013779879" lon="-8.292060988023877">
        <ele>174.62</ele>
        <time>2025-05-03T12:25:16Z</time>
      </trkpt>
      <trkpt lat="41.033235993236303" lon="-8.292166013270617">
        <ele>174.62</ele>
        <time>2025-05-03T12:25:17Z</time>
      </trkpt>
      <trkpt lat="41.033324003219604" lon="-8.292220998555422">
        <ele>175.09999999999999</ele>
        <time>2025-05-03T12:25:18Z</time>
      </trkpt>
      <trkpt lat="41.033428022637963" lon="-8.292266009375453">
        <ele>175.09999999999999</ele>
        <time>2025-05-03T12:25:19Z</time>
      </trkpt>
      <trkpt lat="41.033531036227942" lon="-8.292311020195484">
        <ele>175.09999999999999</ele>
        <time>2025-05-03T12:25:20Z</time>
      </trkpt>
      <trkpt lat="41.033633965998888" lon="-8.292356031015515">
        <ele>175.58000000000001</ele>
        <time>2025-05-03T12:25:21Z</time>
      </trkpt>
      <trkpt lat="41.034184992313385" lon="-8.292497014626861">
        <ele>177.97999999999999</ele>
        <time>2025-05-03T12:25:26Z</time>
      </trkpt>
      <trkpt lat="41.034295968711376" lon="-8.292507994920015">
        <ele>177.97999999999999</ele>
        <time>2025-05-03T12:25:27Z</time>
      </trkpt>
      <trkpt lat="41.034394036978483" lon="-8.292462984099984">
        <ele>178.46000000000001</ele>
        <time>2025-05-03T12:25:28Z</time>
      </trkpt>
      <trkpt lat="41.034489003941417" lon="-8.292400036007166">
        <ele>178.94</ele>
        <time>2025-05-03T12:25:29Z</time>
      </trkpt>
      <trkpt lat="41.034543989226222" lon="-8.292312026023865">
        <ele>178.94</ele>
        <time>2025-05-03T12:25:30Z</time>
      </trkpt>
      <trkpt lat="41.034585982561111" lon="-8.292209012433887">
        <ele>179.41999999999999</ele>
        <time>2025-05-03T12:25:31Z</time>
      </trkpt>
      <trkpt lat="41.03462403640151" lon="-8.292115973308682">
        <ele>179.41999999999999</ele>
        <time>2025-05-03T12:25:32Z</time>
      </trkpt>
      <trkpt lat="41.034661000594497" lon="-8.292025029659271">
        <ele>179.90000000000001</ele>
        <time>2025-05-03T12:25:33Z</time>
      </trkpt>
      <trkpt lat="41.034700982272625" lon="-8.291926961392164">
        <ele>179.90000000000001</ele>
        <time>2025-05-03T12:25:34Z</time>
      </trkpt>
      <trkpt lat="41.034785974770784" lon="-8.291877005249262">
        <ele>179.90000000000001</ele>
        <time>2025-05-03T12:25:35Z</time>
      </trkpt>
      <trkpt lat="41.034874990582466" lon="-8.291853033006191">
        <ele>179.90000000000001</ele>
        <time>2025-05-03T12:25:36Z</time>
      </trkpt>
      <trkpt lat="41.034972975030541" lon="-8.291896032169461">
        <ele>180.38</ele>
        <time>2025-05-03T12:25:37Z</time>
      </trkpt>
      <trkpt lat="41.035070959478617" lon="-8.291956968605518">
        <ele>180.38</ele>
        <time>2025-05-03T12:25:38Z</time>
      </trkpt>
      <trkpt lat="41.035154024139047" lon="-8.292068028822541">
        <ele>181.34999999999999</ele>
        <time>2025-05-03T12:25:39Z</time>
      </trkpt>
      <trkpt lat="41.035203980281949" lon="-8.292208006605506">
        <ele>181.83000000000001</ele>
        <time>2025-05-03T12:25:40Z</time>
      </trkpt>
      <trkpt lat="41.035241028293967" lon="-8.292372962459922">
        <ele>182.78999999999999</ele>
        <time>2025-05-03T12:25:41Z</time>
      </trkpt>
      <trkpt lat="41.035266006365418" lon="-8.292544959113002">
        <ele>183.27000000000001</ele>
        <time>2025-05-03T12:25:42Z</time>
      </trkpt>
      <trkpt lat="41.035266006365418" lon="-8.292718967422843">
        <ele>184.22999999999999</ele>
        <time>2025-05-03T12:25:43Z</time>
      </trkpt>
      <trkpt lat="41.03524899110198" lon="-8.292861962690949">
        <ele>185.19</ele>
        <time>2025-05-03T12:25:44Z</time>
      </trkpt>
      <trkpt lat="41.035208003595471" lon="-8.292987020686269">
        <ele>186.15000000000001</ele>
        <time>2025-05-03T12:25:45Z</time>
      </trkpt>
      <trkpt lat="41.035137008875608" lon="-8.293061032891274">
        <ele>187.11000000000001</ele>
        <time>2025-05-03T12:25:46Z</time>
      </trkpt>
      <trkpt lat="41.035055033862591" lon="-8.293132027611136">
        <ele>187.59</ele>
        <time>2025-05-03T12:25:47Z</time>
      </trkpt>
      <trkpt lat="41.034972975030541" lon="-8.293153988197446">
        <ele>188.56</ele>
        <time>2025-05-03T12:25:48Z</time>
      </trkpt>
      <trkpt lat="41.034864010289311" lon="-8.293153988197446">
        <ele>189.52000000000001</ele>
        <time>2025-05-03T12:25:49Z</time>
      </trkpt>
      <trkpt lat="41.034750016406178" lon="-8.293136972934008">
        <ele>190.47999999999999</ele>
        <time>2025-05-03T12:25:50Z</time>
      </trkpt>
      <trkpt lat="41.034628981724381" lon="-8.293104032054544">
        <ele>190.47999999999999</ele>
        <time>2025-05-03T12:25:51Z</time>
      </trkpt>
      <trkpt lat="41.034244000911713" lon="-8.293076958507299">
        <ele>190.96000000000001</ele>
        <time>2025-05-03T12:25:54Z</time>
      </trkpt>
      <trkpt lat="41.034134030342102" lon="-8.293109983205795">
        <ele>190.96000000000001</ele>
        <time>2025-05-03T12:25:55Z</time>
      </trkpt>
      <trkpt lat="41.034063035622239" lon="-8.293210985139012">
        <ele>190.96000000000001</ele>
        <time>2025-05-03T12:25:56Z</time>
      </trkpt>
      <trkpt lat="41.034006038680673" lon="-8.293295977637172">
        <ele>190.96000000000001</ele>
        <time>2025-05-03T12:25:57Z</time>
      </trkpt>
      <trkpt lat="41.033951975405216" lon="-8.293382981792092">
        <ele>191.44</ele>
        <time>2025-05-03T12:25:58Z</time>
      </trkpt>
      <trkpt lat="41.033910987898707" lon="-8.293491024523974">
        <ele>191.91999999999999</ele>
        <time>2025-05-03T12:25:59Z</time>
      </trkpt>
      <trkpt lat="41.033864971250296" lon="-8.293608035892248">
        <ele>192.40000000000001</ele>
        <time>2025-05-03T12:26:00Z</time>
      </trkpt>
      <trkpt lat="41.033803028985858" lon="-8.293685987591744">
        <ele>192.88</ele>
        <time>2025-05-03T12:26:01Z</time>
      </trkpt>
      <trkpt lat="41.033714013174176" lon="-8.293737033382058">
        <ele>193.36000000000001</ele>
        <time>2025-05-03T12:26:02Z</time>
      </trkpt>
      <trkpt lat="41.03357101790607" lon="-8.293754970654845">
        <ele>194.31999999999999</ele>
        <time>2025-05-03T12:26:03Z</time>
      </trkpt>
      <trkpt lat="41.033462975174189" lon="-8.293740972876549">
        <ele>194.80000000000001</ele>
        <time>2025-05-03T12:26:04Z</time>
      </trkpt>
      <trkpt lat="41.033330038189888" lon="-8.293723035603762">
        <ele>194.80000000000001</ele>
        <time>2025-05-03T12:26:05Z</time>
      </trkpt>
      <trkpt lat="41.033198023214936" lon="-8.293734015896916">
        <ele>194.80000000000001</ele>
        <time>2025-05-03T12:26:06Z</time>
      </trkpt>
      <trkpt lat="41.033083023503423" lon="-8.293781960383058">
        <ele>194.80000000000001</ele>
        <time>2025-05-03T12:26:07Z</time>
      </trkpt>
      <trkpt lat="41.03297003544867" lon="-8.29382898285985">
        <ele>195.28</ele>
        <time>2025-05-03T12:26:08Z</time>
      </trkpt>
      <trkpt lat="41.032856041565537" lon="-8.293876005336642">
        <ele>195.77000000000001</ele>
        <time>2025-05-03T12:26:09Z</time>
      </trkpt>
      <trkpt lat="41.032743975520134" lon="-8.293923027813435">
        <ele>195.77000000000001</ele>
        <time>2025-05-03T12:26:10Z</time>
      </trkpt>
      <trkpt lat="41.032637022435665" lon="-8.293912969529629">
        <ele>196.25</ele>
        <time>2025-05-03T12:26:11Z</time>
      </trkpt>
      <trkpt lat="41.032525040209293" lon="-8.293896960094571">
        <ele>196.25</ele>
        <time>2025-05-03T12:26:12Z</time>
      </trkpt>
      <trkpt lat="41.032420014962554" lon="-8.293883968144655">
        <ele>196.72999999999999</ele>
        <time>2025-05-03T12:26:13Z</time>
      </trkpt>
      <trkpt lat="41.032317001372576" lon="-8.293883968144655">
        <ele>196.72999999999999</ele>
        <time>2025-05-03T12:26:14Z</time>
      </trkpt>
      <trkpt lat="41.032210970297456" lon="-8.293883968144655">
        <ele>197.21000000000001</ele>
        <time>2025-05-03T12:26:15Z</time>
      </trkpt>
      <trkpt lat="41.032100999727845" lon="-8.293916992843151">
        <ele>197.21000000000001</ele>
        <time>2025-05-03T12:26:16Z</time>
      </trkpt>
      <trkpt lat="41.032010978087783" lon="-8.294006008654833">
        <ele>197.69</ele>
        <time>2025-05-03T12:26:17Z</time>
      </trkpt>
      <trkpt lat="41.031920034438372" lon="-8.294097036123276">
        <ele>198.16999999999999</ele>
        <time>2025-05-03T12:26:18Z</time>
      </trkpt>
      <trkpt lat="41.031859014183283" lon="-8.294227961450815">
        <ele>198.65000000000001</ele>
        <time>2025-05-03T12:26:19Z</time>
      </trkpt>
      <trkpt lat="41.031797993928194" lon="-8.294361988082528">
        <ele>199.61000000000001</ele>
        <time>2025-05-03T12:26:20Z</time>
      </trkpt>
      <trkpt lat="41.031643012538552" lon="-8.294749986380339">
        <ele>201.53</ele>
        <time>2025-05-03T12:26:23Z</time>
      </trkpt>
      <trkpt lat="41.031605964526534" lon="-8.294857023283839">
        <ele>202.49000000000001</ele>
        <time>2025-05-03T12:26:24Z</time>
      </trkpt>
      <trkpt lat="41.031574029475451" lon="-8.294948972761631">
        <ele>203.46000000000001</ele>
        <time>2025-05-03T12:26:25Z</time>
      </trkpt>
      <trkpt lat="41.031547961756587" lon="-8.295026002451778">
        <ele>204.41999999999999</ele>
        <time>2025-05-03T12:26:26Z</time>
      </trkpt>
      <trkpt lat="41.031576963141561" lon="-8.29524896107614">
        <ele>205.38</ele>
        <time>2025-05-03T12:26:27Z</time>
      </trkpt>
      <trkpt lat="41.031634965911508" lon="-8.295286009088159">
        <ele>205.86000000000001</ele>
        <time>2025-05-03T12:26:28Z</time>
      </trkpt>
      <trkpt lat="41.031700009480119" lon="-8.295328002423048">
        <ele>206.81999999999999</ele>
        <time>2025-05-03T12:26:29Z</time>
      </trkpt>
      <trkpt lat="41.031775027513504" lon="-8.295376030728221">
        <ele>207.78</ele>
        <time>2025-05-03T12:26:30Z</time>
      </trkpt>
      <trkpt lat="41.031855996698141" lon="-8.295427998527885">
        <ele>208.74000000000001</ele>
        <time>2025-05-03T12:26:31Z</time>
      </trkpt>
      <trkpt lat="41.031935960054398" lon="-8.295479966327548">
        <ele>209.22</ele>
        <time>2025-05-03T12:26:32Z</time>
      </trkpt>
      <trkpt lat="41.032137963920832" lon="-8.295617010444403">
        <ele>209.69999999999999</ele>
        <time>2025-05-03T12:26:38Z</time>
      </trkpt>
      <trkpt lat="41.032285988330841" lon="-8.295646011829376">
        <ele>209.69999999999999</ele>
        <time>2025-05-03T12:26:42Z</time>
      </trkpt>
      <trkpt lat="41.032323036342859" lon="-8.295694962143898">
        <ele>210.19</ele>
        <time>2025-05-03T12:26:43Z</time>
      </trkpt>
      <trkpt lat="41.032330999150872" lon="-8.295780960470438">
        <ele>210.66999999999999</ele>
        <time>2025-05-03T12:26:44Z</time>
      </trkpt>
      <trkpt lat="41.032310966402292" lon="-8.295839969068766">
        <ele>210.66999999999999</ele>
        <time>2025-05-03T12:26:45Z</time>
      </trkpt>
      <trkpt lat="41.03230501525104" lon="-8.295857990160584">
        <ele>210.19</ele>
        <time>2025-05-03T12:26:46Z</time>
      </trkpt>
      <trkpt lat="41.032054983079433" lon="-8.29629804007709">
        <ele>207.78</ele>
        <time>2025-05-03T12:26:51Z</time>
      </trkpt>
      <trkpt lat="41.031996980309486" lon="-8.296384960412979">
        <ele>206.81999999999999</ele>
        <time>2025-05-03T12:26:52Z</time>
      </trkpt>
      <trkpt lat="41.031929003074765" lon="-8.296456038951874">
        <ele>205.86000000000001</ele>
        <time>2025-05-03T12:26:53Z</time>
      </trkpt>
      <trkpt lat="41.031759018078446" lon="-8.29655603505671">
        <ele>204.90000000000001</ele>
        <time>2025-05-03T12:26:55Z</time>
      </trkpt>
      <trkpt lat="41.031667990610003" lon="-8.296595010906458">
        <ele>204.41999999999999</ele>
        <time>2025-05-03T12:26:56Z</time>
      </trkpt>
      <trkpt lat="41.031560031697154" lon="-8.296617977321148">
        <ele>203.94</ele>
        <time>2025-05-03T12:26:57Z</time>
      </trkpt>
      <trkpt lat="41.031373031437397" lon="-8.296683020889759">
        <ele>202.97999999999999</ele>
        <time>2025-05-03T12:26:59Z</time>
      </trkpt>
      <trkpt lat="41.031306982040405" lon="-8.296748986467719">
        <ele>202.49000000000001</ele>
        <time>2025-05-03T12:27:00Z</time>
      </trkpt>
      <trkpt lat="41.031259037554264" lon="-8.296833978965879">
        <ele>202.00999999999999</ele>
        <time>2025-05-03T12:27:01Z</time>
      </trkpt>
      <trkpt lat="41.031211009249091" lon="-8.296934980899096">
        <ele>201.53</ele>
        <time>2025-05-03T12:27:02Z</time>
      </trkpt>
      <trkpt lat="41.031211009249091" lon="-8.297060038894415">
        <ele>200.56999999999999</ele>
        <time>2025-05-03T12:27:03Z</time>
      </trkpt>
      <trkpt lat="41.031228024512529" lon="-8.297220971435309">
        <ele>200.09</ele>
        <time>2025-05-03T12:27:04Z</time>
      </trkpt>
      <trkpt lat="41.031245961785316" lon="-8.297388022765517">
        <ele>199.13</ele>
        <time>2025-05-03T12:27:05Z</time>
      </trkpt>
      <trkpt lat="41.031263982877135" lon="-8.297557001933456">
        <ele>198.65000000000001</ele>
        <time>2025-05-03T12:27:06Z</time>
      </trkpt>
      <trkpt lat="41.031283009797335" lon="-8.297730004414916">
        <ele>198.16999999999999</ele>
        <time>2025-05-03T12:27:07Z</time>
      </trkpt>
      <trkpt lat="41.031320979818702" lon="-8.298084978014231">
        <ele>197.21000000000001</ele>
        <time>2025-05-03T12:27:09Z</time>
      </trkpt>
      <trkpt lat="41.031340006738901" lon="-8.298260997980833">
        <ele>196.25</ele>
        <time>2025-05-03T12:27:10Z</time>
      </trkpt>
      <trkpt lat="41.031297007575631" lon="-8.298926018178463">
        <ele>193.84</ele>
        <time>2025-05-03T12:27:14Z</time>
      </trkpt>
      <trkpt lat="41.031334977596998" lon="-8.29909298568964">
        <ele>193.36000000000001</ele>
        <time>2025-05-03T12:27:15Z</time>
      </trkpt>
      <trkpt lat="41.031368002295494" lon="-8.299238998442888">
        <ele>193.36000000000001</ele>
        <time>2025-05-03T12:27:16Z</time>
      </trkpt>
      <trkpt lat="41.031576041132212" lon="-8.299913993105292">
        <ele>191.91999999999999</ele>
        <time>2025-05-03T12:27:21Z</time>
      </trkpt>
      <trkpt lat="41.031653992831707" lon="-8.300024969503284">
        <ele>191.91999999999999</ele>
        <time>2025-05-03T12:27:22Z</time>
      </trkpt>
      <trkpt lat="41.031728005036712" lon="-8.300131000578404">
        <ele>191.44</ele>
        <time>2025-05-03T12:27:23Z</time>
      </trkpt>
      <trkpt lat="41.031806962564588" lon="-8.300243988633156">
        <ele>190.96000000000001</ele>
        <time>2025-05-03T12:27:24Z</time>
      </trkpt>
      <trkpt lat="41.031876029446721" lon="-8.300342978909612">
        <ele>190.96000000000001</ele>
        <time>2025-05-03T12:27:25Z</time>
      </trkpt>
      <trkpt lat="41.031921962276101" lon="-8.300525033846498">
        <ele>190</ele>
        <time>2025-05-03T12:27:26Z</time>
      </trkpt>
      <trkpt lat="41.03196102194488" lon="-8.300684038549662">
        <ele>189.52000000000001</ele>
        <time>2025-05-03T12:27:27Z</time>
      </trkpt>
      <trkpt lat="41.031984994187951" lon="-8.300834996625781">
        <ele>188.56</ele>
        <time>2025-05-03T12:27:28Z</time>
      </trkpt>
      <trkpt lat="41.031991029158235" lon="-8.300988972187042">
        <ele>187.59</ele>
        <time>2025-05-03T12:27:29Z</time>
      </trkpt>
      <trkpt lat="41.031995974481106" lon="-8.301141019910574">
        <ele>187.11000000000001</ele>
        <time>2025-05-03T12:27:30Z</time>
      </trkpt>
      <trkpt lat="41.032001003623009" lon="-8.301287032663822">
        <ele>186.15000000000001</ele>
        <time>2025-05-03T12:27:31Z</time>
      </trkpt>
      <trkpt lat="41.032010978087783" lon="-8.301436984911561">
        <ele>185.19</ele>
        <time>2025-05-03T12:27:32Z</time>
      </trkpt>
      <trkpt lat="41.032051965594292" lon="-8.301580986008048">
        <ele>184.71000000000001</ele>
        <time>2025-05-03T12:27:33Z</time>
      </trkpt>
      <trkpt lat="41.032095970585942" lon="-8.30173403955996">
        <ele>184.22999999999999</ele>
        <time>2025-05-03T12:27:34Z</time>
      </trkpt>
      <trkpt lat="41.032134024426341" lon="-8.30186597071588">
        <ele>183.27000000000001</ele>
        <time>2025-05-03T12:27:35Z</time>
      </trkpt>
      <trkpt lat="41.032111980021" lon="-8.302020030096173">
        <ele>182.78999999999999</ele>
        <time>2025-05-03T12:27:36Z</time>
      </trkpt>
      <trkpt lat="41.032093036919832" lon="-8.302152967080474">
        <ele>181.83000000000001</ele>
        <time>2025-05-03T12:27:37Z</time>
      </trkpt>
      <trkpt lat="41.032036961987615" lon="-8.302247012034059">
        <ele>181.34999999999999</ele>
        <time>2025-05-03T12:27:38Z</time>
      </trkpt>
      <trkpt lat="41.031964961439371" lon="-8.30233502201736">
        <ele>180.38</ele>
        <time>2025-05-03T12:27:39Z</time>
      </trkpt>
      <trkpt lat="41.03187401778996" lon="-8.302409034222364">
        <ele>179.90000000000001</ele>
        <time>2025-05-03T12:27:40Z</time>
      </trkpt>
      <trkpt lat="41.031715013086796" lon="-8.302582958713174">
        <ele>178.94</ele>
        <time>2025-05-03T12:27:42Z</time>
      </trkpt>
      <trkpt lat="41.031676959246397" lon="-8.30270298756659">
        <ele>178.46000000000001</ele>
        <time>2025-05-03T12:27:43Z</time>
      </trkpt>
      <trkpt lat="41.031663967296481" lon="-8.302843971177936">
        <ele>177.97999999999999</ele>
        <time>2025-05-03T12:27:44Z</time>
      </trkpt>
      <trkpt lat="41.031670002266765" lon="-8.302985038608313">
        <ele>177.97999999999999</ele>
        <time>2025-05-03T12:27:45Z</time>
      </trkpt>
      <trkpt lat="41.031678970903158" lon="-8.30310900695622">
        <ele>177.5</ele>
        <time>2025-05-03T12:27:46Z</time>
      </trkpt>
      <trkpt lat="41.031687017530203" lon="-8.303214032202959">
        <ele>177.02000000000001</ele>
        <time>2025-05-03T12:27:47Z</time>
      </trkpt>
      <trkpt lat="41.031692968681455" lon="-8.303298018872738">
        <ele>176.53999999999999</ele>
        <time>2025-05-03T12:27:48Z</time>
      </trkpt>
      <trkpt lat="41.031697997823358" lon="-8.303371025249362">
        <ele>176.53999999999999</ele>
        <time>2025-05-03T12:27:49Z</time>
      </trkpt>
      <trkpt lat="41.031734040006995" lon="-8.303535981103778">
        <ele>175.58000000000001</ele>
        <time>2025-05-03T12:27:53Z</time>
      </trkpt>
      <trkpt lat="41.031734040006995" lon="-8.303535981103778">
        <ele>175.09999999999999</ele>
        <time>2025-05-03T12:28:05Z</time>
      </trkpt>
      <trkpt lat="41.031898995861411" lon="-8.303749971091747">
        <ele>166.44999999999999</ele>
        <time>2025-05-03T12:33:42Z</time>
      </trkpt>
      <trkpt lat="41.031743008643389" lon="-8.303530029952526">
        <ele>182.31</ele>
        <time>2025-05-03T12:34:15Z</time>
      </trkpt>
      <trkpt lat="41.031778967007995" lon="-8.30353899858892">
        <ele>178.46000000000001</ele>
        <time>2025-05-03T12:34:56Z</time>
      </trkpt>
      <trkpt lat="41.031778967007995" lon="-8.303558025509119">
        <ele>177.5</ele>
        <time>2025-05-03T12:35:40Z</time>
      </trkpt>
      <trkpt lat="41.031777961179614" lon="-8.303555008023977">
        <ele>177.5</ele>
        <time>2025-05-03T12:36:13Z</time>
      </trkpt>
      <trkpt lat="41.031775027513504" lon="-8.303647041320801">
        <ele>177.5</ele>
        <time>2025-05-03T12:36:17Z</time>
      </trkpt>
      <trkpt lat="41.031790031120181" lon="-8.303690040484071">
        <ele>177.02000000000001</ele>
        <time>2025-05-03T12:36:18Z</time>
      </trkpt>
      <trkpt lat="41.031846022233367" lon="-8.30375500023365">
        <ele>177.02000000000001</ele>
        <time>2025-05-03T12:36:19Z</time>
      </trkpt>
      <trkpt lat="41.031897990033031" lon="-8.303815014660358">
        <ele>177.02000000000001</ele>
        <time>2025-05-03T12:36:20Z</time>
      </trkpt>
      <trkpt lat="41.031947024166584" lon="-8.303849967196584">
        <ele>176.53999999999999</ele>
        <time>2025-05-03T12:36:21Z</time>
      </trkpt>
      <trkpt lat="41.03202598169446" lon="-8.303877962753177">
        <ele>176.06</ele>
        <time>2025-05-03T12:36:22Z</time>
      </trkpt>
      <trkpt lat="41.032111980021" lon="-8.303908975794911">
        <ele>175.09999999999999</ele>
        <time>2025-05-03T12:36:23Z</time>
      </trkpt>
      <trkpt lat="41.03219797834754" lon="-8.303939988836646">
        <ele>174.62</ele>
        <time>2025-05-03T12:36:24Z</time>
      </trkpt>
      <trkpt lat="41.032383972778916" lon="-8.303921967744827">
        <ele>174.13999999999999</ele>
        <time>2025-05-03T12:36:26Z</time>
      </trkpt>
      <trkpt lat="41.033178996294737" lon="-8.30384099856019">
        <ele>171.72999999999999</ele>
        <time>2025-05-03T12:36:34Z</time>
      </trkpt>
      <trkpt lat="41.03327002376318" lon="-8.303875029087067">
        <ele>171.72999999999999</ele>
        <time>2025-05-03T12:36:35Z</time>
      </trkpt>
      <trkpt lat="41.0333570279181" lon="-8.303933031857014">
        <ele>171.72999999999999</ele>
        <time>2025-05-03T12:36:36Z</time>
      </trkpt>
      <trkpt lat="41.034342991188169" lon="-8.304784968495369">
        <ele>172.21000000000001</ele>
        <time>2025-05-03T12:36:46Z</time>
      </trkpt>
      <trkpt lat="41.035494999960065" lon="-8.305901018902659">
        <ele>174.62</ele>
        <time>2025-05-03T12:36:57Z</time>
      </trkpt>
      <trkpt lat="41.036623036488891" lon="-8.307065013796091">
        <ele>177.97999999999999</ele>
        <time>2025-05-03T12:37:08Z</time>
      </trkpt>
      <trkpt lat="41.036691013723612" lon="-8.307188982143998">
        <ele>177.97999999999999</ele>
        <time>2025-05-03T12:37:09Z</time>
      </trkpt>
      <trkpt lat="41.036741975694895" lon="-8.307313034310937">
        <ele>178.46000000000001</ele>
        <time>2025-05-03T12:37:10Z</time>
      </trkpt>
      <trkpt lat="41.036810958757997" lon="-8.307573962956667">
        <ele>178.94</ele>
        <time>2025-05-03T12:37:12Z</time>
      </trkpt>
      <trkpt lat="41.03690299205482" lon="-8.307700026780367">
        <ele>179.41999999999999</ele>
        <time>2025-05-03T12:37:13Z</time>
      </trkpt>
      <trkpt lat="41.037003993988037" lon="-8.30777202732861">
        <ele>179.41999999999999</ele>
        <time>2025-05-03T12:37:14Z</time>
      </trkpt>
      <trkpt lat="41.037107007578015" lon="-8.307845033705235">
        <ele>179.41999999999999</ele>
        <time>2025-05-03T12:37:15Z</time>
      </trkpt>
      <trkpt lat="41.037213038653135" lon="-8.307919967919588">
        <ele>179.41999999999999</ele>
        <time>2025-05-03T12:37:16Z</time>
      </trkpt>
      <trkpt lat="41.037502968683839" lon="-8.308209981769323">
        <ele>181.34999999999999</ele>
        <time>2025-05-03T12:37:19Z</time>
      </trkpt>
      <trkpt lat="41.037548985332251" lon="-8.308348031714559">
        <ele>181.34999999999999</ele>
        <time>2025-05-03T12:37:20Z</time>
      </trkpt>
      <trkpt lat="41.037563988938928" lon="-8.30848197452724">
        <ele>181.34999999999999</ele>
        <time>2025-05-03T12:37:21Z</time>
      </trkpt>
      <trkpt lat="41.037647975608706" lon="-8.309741020202637">
        <ele>180.38</ele>
        <time>2025-05-03T12:37:29Z</time>
      </trkpt>
      <trkpt lat="41.037725005298853" lon="-8.309851996600628">
        <ele>180.87</ele>
        <time>2025-05-03T12:37:30Z</time>
      </trkpt>
      <trkpt lat="41.037804968655109" lon="-8.309966996312141">
        <ele>181.34999999999999</ele>
        <time>2025-05-03T12:37:31Z</time>
      </trkpt>
      <trkpt lat="41.038095988333225" lon="-8.310245024040341">
        <ele>183.27000000000001</ele>
        <time>2025-05-03T12:37:34Z</time>
      </trkpt>
      <trkpt lat="41.038199001923203" lon="-8.310334961861372">
        <ele>183.75</ele>
        <time>2025-05-03T12:37:35Z</time>
      </trkpt>
      <trkpt lat="41.038310984149575" lon="-8.310342002660036">
        <ele>183.75</ele>
        <time>2025-05-03T12:37:36Z</time>
      </trkpt>
      <trkpt lat="41.038421038538218" lon="-8.310342002660036">
        <ele>184.22999999999999</ele>
        <time>2025-05-03T12:37:37Z</time>
      </trkpt>
      <trkpt lat="41.038526985794306" lon="-8.310289029031992">
        <ele>184.22999999999999</ele>
        <time>2025-05-03T12:37:38Z</time>
      </trkpt>
      <trkpt lat="41.038639973849058" lon="-8.310232032090426">
        <ele>184.71000000000001</ele>
        <time>2025-05-03T12:37:39Z</time>
      </trkpt>
      <trkpt lat="41.038875002413988" lon="-8.310115020722151">
        <ele>184.71000000000001</ele>
        <time>2025-05-03T12:37:41Z</time>
      </trkpt>
      <trkpt lat="41.038996959105134" lon="-8.310105968266726">
        <ele>185.19</ele>
        <time>2025-05-03T12:37:42Z</time>
      </trkpt>
      <trkpt lat="41.039107013493776" lon="-8.310105968266726">
        <ele>185.19</ele>
        <time>2025-05-03T12:37:43Z</time>
      </trkpt>
      <trkpt lat="41.039198040962219" lon="-8.310196995735169">
        <ele>185.66999999999999</ele>
        <time>2025-05-03T12:37:44Z</time>
      </trkpt>
      <trkpt lat="41.039299964904785" lon="-8.310299003496766">
        <ele>186.15000000000001</ele>
        <time>2025-05-03T12:37:45Z</time>
      </trkpt>
      <trkpt lat="41.039368025958538" lon="-8.310402017086744">
        <ele>186.63</ele>
        <time>2025-05-03T12:37:46Z</time>
      </trkpt>
      <trkpt lat="41.039528036490083" lon="-8.310644002631307">
        <ele>187.59</ele>
        <time>2025-05-03T12:37:48Z</time>
      </trkpt>
      <trkpt lat="41.039944030344486" lon="-8.3113800175488">
        <ele>190.96000000000001</ele>
        <time>2025-05-03T12:37:54Z</time>
      </trkpt>
      <trkpt lat="41.039962973445654" lon="-8.311502980068326">
        <ele>190.96000000000001</ele>
        <time>2025-05-03T12:37:55Z</time>
      </trkpt>
      <trkpt lat="41.039946964010596" lon="-8.311615968123078">
        <ele>191.44</ele>
        <time>2025-05-03T12:37:56Z</time>
      </trkpt>
      <trkpt lat="41.039918968454003" lon="-8.311755023896694">
        <ele>191.44</ele>
        <time>2025-05-03T12:37:57Z</time>
      </trkpt>
      <trkpt lat="41.039888961240649" lon="-8.311913022771478">
        <ele>191.91999999999999</ele>
        <time>2025-05-03T12:37:58Z</time>
      </trkpt>
      <trkpt lat="41.039857026189566" lon="-8.312089964747429">
        <ele>191.91999999999999</ele>
        <time>2025-05-03T12:37:59Z</time>
      </trkpt>
      <trkpt lat="41.039830958470702" lon="-8.312276965007186">
        <ele>191.91999999999999</ele>
        <time>2025-05-03T12:38:00Z</time>
      </trkpt>
      <trkpt lat="41.039814027026296" lon="-8.312471006065607">
        <ele>191.91999999999999</ele>
        <time>2025-05-03T12:38:01Z</time>
      </trkpt>
      <trkpt lat="41.039812015369534" lon="-8.312836037948728">
        <ele>192.40000000000001</ele>
        <time>2025-05-03T12:38:03Z</time>
      </trkpt>
      <trkpt lat="41.039854008704424" lon="-8.312990013509989">
        <ele>192.88</ele>
        <time>2025-05-03T12:38:04Z</time>
      </trkpt>
      <trkpt lat="41.039922991767526" lon="-8.313109958544374">
        <ele>192.88</ele>
        <time>2025-05-03T12:38:05Z</time>
      </trkpt>
      <trkpt lat="41.040020976215601" lon="-8.313192017376423">
        <ele>193.36000000000001</ele>
        <time>2025-05-03T12:38:06Z</time>
      </trkpt>
      <trkpt lat="41.040131030604243" lon="-8.313227975741029">
        <ele>193.36000000000001</ele>
        <time>2025-05-03T12:38:07Z</time>
      </trkpt>
      <trkpt lat="41.040251981467009" lon="-8.313243985176086">
        <ele>193.36000000000001</ele>
        <time>2025-05-03T12:38:08Z</time>
      </trkpt>
      <trkpt lat="41.040373016148806" lon="-8.313259994611144">
        <ele>193.36000000000001</ele>
        <time>2025-05-03T12:38:09Z</time>
      </trkpt>
      <trkpt lat="41.040475023910403" lon="-8.313216995447874">
        <ele>193.36000000000001</ele>
        <time>2025-05-03T12:38:10Z</time>
      </trkpt>
      <trkpt lat="41.040559010580182" lon="-8.313150024041534">
        <ele>193.36000000000001</ele>
        <time>2025-05-03T12:38:11Z</time>
      </trkpt>
      <trkpt lat="41.0406409855932" lon="-8.313042987138033">
        <ele>193.36000000000001</ele>
        <time>2025-05-03T12:38:12Z</time>
      </trkpt>
      <trkpt lat="41.04072798974812" lon="-8.312927987426519">
        <ele>193.84</ele>
        <time>2025-05-03T12:38:13Z</time>
      </trkpt>
      <trkpt lat="41.040802001953125" lon="-8.312831008806825">
        <ele>194.31999999999999</ele>
        <time>2025-05-03T12:38:14Z</time>
      </trkpt>
      <trkpt lat="41.040921024978161" lon="-8.31275699660182">
        <ele>194.31999999999999</ele>
        <time>2025-05-03T12:38:15Z</time>
      </trkpt>
      <trkpt lat="41.041021021082997" lon="-8.312738975510001">
        <ele>194.31999999999999</ele>
        <time>2025-05-03T12:38:16Z</time>
      </trkpt>
      <trkpt lat="41.041129985824227" lon="-8.312776023522019">
        <ele>194.80000000000001</ele>
        <time>2025-05-03T12:38:17Z</time>
      </trkpt>
      <trkpt lat="41.041236016899347" lon="-8.312813993543387">
        <ele>194.80000000000001</ele>
        <time>2025-05-03T12:38:18Z</time>
      </trkpt>
      <trkpt lat="41.041336013004184" lon="-8.312913989648223">
        <ele>195.28</ele>
        <time>2025-05-03T12:38:19Z</time>
      </trkpt>
      <trkpt lat="41.041421005502343" lon="-8.313038041815162">
        <ele>195.28</ele>
        <time>2025-05-03T12:38:20Z</time>
      </trkpt>
      <trkpt lat="41.04149904102087" lon="-8.313193023204804">
        <ele>195.28</ele>
        <time>2025-05-03T12:38:21Z</time>
      </trkpt>
      <trkpt lat="41.041731974110007" lon="-8.313696021214128">
        <ele>195.77000000000001</ele>
        <time>2025-05-03T12:38:24Z</time>
      </trkpt>
      <trkpt lat="41.041788971051574" lon="-8.313885033130646">
        <ele>195.77000000000001</ele>
        <time>2025-05-03T12:38:25Z</time>
      </trkpt>
      <trkpt lat="41.04184303432703" lon="-8.314082007855177">
        <ele>195.77000000000001</ele>
        <time>2025-05-03T12:38:26Z</time>
      </trkpt>
      <trkpt lat="41.042098011821508" lon="-8.314853981137276">
        <ele>197.21000000000001</ele>
        <time>2025-05-03T12:38:30Z</time>
      </trkpt>
      <trkpt lat="41.042192978784442" lon="-8.31501298584044">
        <ele>198.16999999999999</ele>
        <time>2025-05-03T12:38:31Z</time>
      </trkpt>
      <trkpt lat="41.042495984584093" lon="-8.315472984686494">
        <ele>201.05000000000001</ele>
        <time>2025-05-03T12:38:34Z</time>
      </trkpt>
      <trkpt lat="41.042563961818814" lon="-8.315627966076136">
        <ele>201.53</ele>
        <time>2025-05-03T12:38:35Z</time>
      </trkpt>
      <trkpt lat="41.042624982073903" lon="-8.315770961344242">
        <ele>202.00999999999999</ele>
        <time>2025-05-03T12:38:36Z</time>
      </trkpt>
      <trkpt lat="41.042680973187089" lon="-8.315899958834052">
        <ele>202.49000000000001</ele>
        <time>2025-05-03T12:38:37Z</time>
      </trkpt>
      <trkpt lat="41.042756997048855" lon="-8.315971037372947">
        <ele>202.97999999999999</ele>
        <time>2025-05-03T12:38:38Z</time>
      </trkpt>
      <trkpt lat="41.042862022295594" lon="-8.316049994900823">
        <ele>202.97999999999999</ele>
        <time>2025-05-03T12:38:39Z</time>
      </trkpt>
      <trkpt lat="41.042967969551682" lon="-8.31608897075057">
        <ele>203.46000000000001</ele>
        <time>2025-05-03T12:38:40Z</time>
      </trkpt>
      <trkpt lat="41.043660985305905" lon="-8.316436987370253">
        <ele>207.78</ele>
        <time>2025-05-03T12:38:46Z</time>
      </trkpt>
      <trkpt lat="41.043761987239122" lon="-8.316524997353554">
        <ele>208.25999999999999</ele>
        <time>2025-05-03T12:38:47Z</time>
      </trkpt>
      <trkpt lat="41.044462965801358" lon="-8.317396966740489">
        <ele>214.99000000000001</ele>
        <time>2025-05-03T12:38:55Z</time>
      </trkpt>
      <trkpt lat="41.044821962714195" lon="-8.317816983908415">
        <ele>216.91</ele>
        <time>2025-05-03T12:38:59Z</time>
      </trkpt>
      <trkpt lat="41.045031007379293" lon="-8.317927960306406">
        <ele>217.40000000000001</ele>
        <time>2025-05-03T12:39:01Z</time>
      </trkpt>
      <trkpt lat="41.045136032626033" lon="-8.317968025803566">
        <ele>217.88</ele>
        <time>2025-05-03T12:39:02Z</time>
      </trkpt>
      <trkpt lat="41.045729974284768" lon="-8.318133987486363">
        <ele>220.75999999999999</ele>
        <time>2025-05-03T12:39:07Z</time>
      </trkpt>
      <trkpt lat="41.045827958732843" lon="-8.318207999691367">
        <ele>221.72</ele>
        <time>2025-05-03T12:39:08Z</time>
      </trkpt>
      <trkpt lat="41.045911023393273" lon="-8.318318976089358">
        <ele>222.19999999999999</ele>
        <time>2025-05-03T12:39:09Z</time>
      </trkpt>
      <trkpt lat="41.045995010063052" lon="-8.31843095831573">
        <ele>222.68000000000001</ele>
        <time>2025-05-03T12:39:10Z</time>
      </trkpt>
      <trkpt lat="41.046039015054703" lon="-8.318576971068978">
        <ele>223.16</ele>
        <time>2025-05-03T12:39:11Z</time>
      </trkpt>
      <trkpt lat="41.046083020046353" lon="-8.318722983822227">
        <ele>223.63999999999999</ele>
        <time>2025-05-03T12:39:12Z</time>
      </trkpt>
      <trkpt lat="41.046127025038004" lon="-8.318871008232236">
        <ele>224.12</ele>
        <time>2025-05-03T12:39:13Z</time>
      </trkpt>
      <trkpt lat="41.046579983085394" lon="-8.320349995046854">
        <ele>224.12</ele>
        <time>2025-05-03T12:39:23Z</time>
      </trkpt>
      <trkpt lat="41.046631028875709" lon="-8.320643026381731">
        <ele>223.16</ele>
        <time>2025-05-03T12:39:25Z</time>
      </trkpt>
      <trkpt lat="41.046644020825624" lon="-8.320800019428134">
        <ele>222.68000000000001</ele>
        <time>2025-05-03T12:39:26Z</time>
      </trkpt>
      <trkpt lat="41.046622982248664" lon="-8.321294970810413">
        <ele>220.75999999999999</ele>
        <time>2025-05-03T12:39:29Z</time>
      </trkpt>
      <trkpt lat="41.046602027490735" lon="-8.321453975513578">
        <ele>220.28</ele>
        <time>2025-05-03T12:39:30Z</time>
      </trkpt>
      <trkpt lat="41.046546958386898" lon="-8.321568975225091">
        <ele>219.31999999999999</ele>
        <time>2025-05-03T12:39:31Z</time>
      </trkpt>
      <trkpt lat="41.046461965888739" lon="-8.321656985208392">
        <ele>218.36000000000001</ele>
        <time>2025-05-03T12:39:32Z</time>
      </trkpt>
      <trkpt lat="41.046340009197593" lon="-8.321686992421746">
        <ele>217.40000000000001</ele>
        <time>2025-05-03T12:39:33Z</time>
      </trkpt>
      <trkpt lat="41.046213023364544" lon="-8.321713982149959">
        <ele>216.43000000000001</ele>
        <time>2025-05-03T12:39:34Z</time>
      </trkpt>
      <trkpt lat="41.046072961762547" lon="-8.321706019341946">
        <ele>215.47</ele>
        <time>2025-05-03T12:39:35Z</time>
      </trkpt>
      <trkpt lat="41.045630984008312" lon="-8.321708030998707">
        <ele>213.06999999999999</ele>
        <time>2025-05-03T12:39:38Z</time>
      </trkpt>
      <trkpt lat="41.045544985681772" lon="-8.321713982149959">
        <ele>212.59</ele>
        <time>2025-05-03T12:39:39Z</time>
      </trkpt>
      <trkpt lat="41.045436020940542" lon="-8.321837028488517">
        <ele>211.63</ele>
        <time>2025-05-03T12:39:40Z</time>
      </trkpt>
      <trkpt lat="41.045372989028692" lon="-8.32190802320838">
        <ele>210.66999999999999</ele>
        <time>2025-05-03T12:39:41Z</time>
      </trkpt>
      <trkpt lat="41.045382041484118" lon="-8.322041966021061">
        <ele>209.69999999999999</ele>
        <time>2025-05-03T12:39:42Z</time>
      </trkpt>
      <trkpt lat="41.045391010120511" lon="-8.322184961289167">
        <ele>208.74000000000001</ele>
        <time>2025-05-03T12:39:43Z</time>
      </trkpt>
      <trkpt lat="41.045437026768923" lon="-8.32231898792088">
        <ele>208.25999999999999</ele>
        <time>2025-05-03T12:39:44Z</time>
      </trkpt>
      <trkpt lat="41.045514978468418" lon="-8.322481010109186">
        <ele>207.78</ele>
        <time>2025-05-03T12:39:45Z</time>
      </trkpt>
      <trkpt lat="41.045765010640025" lon="-8.323041005060077">
        <ele>205.86000000000001</ele>
        <time>2025-05-03T12:39:48Z</time>
      </trkpt>
      <trkpt lat="41.046193996444345" lon="-8.3247459679842">
        <ele>202.49000000000001</ele>
        <time>2025-05-03T12:39:56Z</time>
      </trkpt>
      <trkpt lat="41.046265996992588" lon="-8.325241003185511">
        <ele>202.49000000000001</ele>
        <time>2025-05-03T12:39:59Z</time>
      </trkpt>
      <trkpt lat="41.046245964244008" lon="-8.325374023988843">
        <ele>202.49000000000001</ele>
        <time>2025-05-03T12:40:00Z</time>
      </trkpt>
      <trkpt lat="41.046214029192924" lon="-8.325498998165131">
        <ele>202.49000000000001</ele>
        <time>2025-05-03T12:40:01Z</time>
      </trkpt>
      <trkpt lat="41.046158960089087" lon="-8.325596982613206">
        <ele>202.49000000000001</ele>
        <time>2025-05-03T12:40:02Z</time>
      </trkpt>
      <trkpt lat="41.046082014217973" lon="-8.325664959847927">
        <ele>202.49000000000001</ele>
        <time>2025-05-03T12:40:03Z</time>
      </trkpt>
      <trkpt lat="41.045997021719813" lon="-8.325725980103016">
        <ele>202.97999999999999</ele>
        <time>2025-05-03T12:40:04Z</time>
      </trkpt>
      <trkpt lat="41.045899959281087" lon="-8.325731009244919">
        <ele>202.97999999999999</ele>
        <time>2025-05-03T12:40:05Z</time>
      </trkpt>
      <trkpt lat="41.045793006196618" lon="-8.325736038386822">
        <ele>203.46000000000001</ele>
        <time>2025-05-03T12:40:06Z</time>
      </trkpt>
      <trkpt lat="41.045683035627007" lon="-8.325740983709693">
        <ele>203.46000000000001</ele>
        <time>2025-05-03T12:40:07Z</time>
      </trkpt>
      <trkpt lat="41.045577004551888" lon="-8.325745007023215">
        <ele>203.94</ele>
        <time>2025-05-03T12:40:08Z</time>
      </trkpt>
      <trkpt lat="41.045485977083445" lon="-8.325736038386822">
        <ele>203.94</ele>
        <time>2025-05-03T12:40:09Z</time>
      </trkpt>
      <trkpt lat="41.045392015948892" lon="-8.325661020353437">
        <ele>203.94</ele>
        <time>2025-05-03T12:40:10Z</time>
      </trkpt>
      <trkpt lat="41.04528296738863" lon="-8.325566975399852">
        <ele>203.94</ele>
        <time>2025-05-03T12:40:11Z</time>
      </trkpt>
      <trkpt lat="41.04521700181067" lon="-8.325404031202197">
        <ele>203.46000000000001</ele>
        <time>2025-05-03T12:40:12Z</time>
      </trkpt>
      <trkpt lat="41.045148018747568" lon="-8.325234968215227">
        <ele>202.97999999999999</ele>
        <time>2025-05-03T12:40:13Z</time>
      </trkpt>
      <trkpt lat="41.045082975178957" lon="-8.325075041502714">
        <ele>202.49000000000001</ele>
        <time>2025-05-03T12:40:14Z</time>
      </trkpt>
      <trkpt lat="41.045007035136223" lon="-8.324974961578846">
        <ele>202.00999999999999</ele>
        <time>2025-05-03T12:40:15Z</time>
      </trkpt>
      <trkpt lat="41.0448959749192" lon="-8.324919976294041">
        <ele>201.53</ele>
        <time>2025-05-03T12:40:16Z</time>
      </trkpt>
      <trkpt lat="41.044790027663112" lon="-8.324870020151138">
        <ele>201.53</ele>
        <time>2025-05-03T12:40:17Z</time>
      </trkpt>
      <trkpt lat="41.044653989374638" lon="-8.32491796463728">
        <ele>201.05000000000001</ele>
        <time>2025-05-03T12:40:18Z</time>
      </trkpt>
      <trkpt lat="41.044502025470138" lon="-8.324971022084355">
        <ele>200.56999999999999</ele>
        <time>2025-05-03T12:40:19Z</time>
      </trkpt>
      <trkpt lat="41.044345032423735" lon="-8.325026007369161">
        <ele>200.09</ele>
        <time>2025-05-03T12:40:20Z</time>
      </trkpt>
      <trkpt lat="41.04405602440238" lon="-8.325128015130758">
        <ele>198.65000000000001</ele>
        <time>2025-05-03T12:40:22Z</time>
      </trkpt>
      <trkpt lat="41.043924009427428" lon="-8.325147964060307">
        <ele>198.16999999999999</ele>
        <time>2025-05-03T12:40:23Z</time>
      </trkpt>
      <trkpt lat="41.043789982795715" lon="-8.325122985988855">
        <ele>197.21000000000001</ele>
        <time>2025-05-03T12:40:24Z</time>
      </trkpt>
      <trkpt lat="41.043668026104569" lon="-8.325046040117741">
        <ele>196.72999999999999</ele>
        <time>2025-05-03T12:40:25Z</time>
      </trkpt>
      <trkpt lat="41.043543973937631" lon="-8.324946966022253">
        <ele>195.77000000000001</ele>
        <time>2025-05-03T12:40:26Z</time>
      </trkpt>
      <trkpt lat="41.043430985882878" lon="-8.324825009331107">
        <ele>194.80000000000001</ele>
        <time>2025-05-03T12:40:27Z</time>
      </trkpt>
      <trkpt lat="41.04332503862679" lon="-8.324711015447974">
        <ele>194.31999999999999</ele>
        <time>2025-05-03T12:40:28Z</time>
      </trkpt>
      <trkpt lat="41.043221019208431" lon="-8.324646977707744">
        <ele>193.36000000000001</ele>
        <time>2025-05-03T12:40:29Z</time>
      </trkpt>
      <trkpt lat="41.043077018111944" lon="-8.324589980766177">
        <ele>192.88</ele>
        <time>2025-05-03T12:40:30Z</time>
      </trkpt>
      <trkpt lat="41.04300300590694" lon="-8.324633985757828">
        <ele>191.91999999999999</ele>
        <time>2025-05-03T12:40:31Z</time>
      </trkpt>
      <trkpt lat="41.042908960953355" lon="-8.32472300156951">
        <ele>191.44</ele>
        <time>2025-05-03T12:40:32Z</time>
      </trkpt>
      <trkpt lat="41.042819023132324" lon="-8.324825009331107">
        <ele>191.44</ele>
        <time>2025-05-03T12:40:33Z</time>
      </trkpt>
      <trkpt lat="41.042727995663881" lon="-8.324928022921085">
        <ele>190.96000000000001</ele>
        <time>2025-05-03T12:40:34Z</time>
      </trkpt>
      <trkpt lat="41.042641997337341" lon="-8.325019972398877">
        <ele>190.96000000000001</ele>
        <time>2025-05-03T12:40:35Z</time>
      </trkpt>
      <trkpt lat="41.042520962655544" lon="-8.325054002925754">
        <ele>190.96000000000001</ele>
        <time>2025-05-03T12:40:36Z</time>
      </trkpt>
      <trkpt lat="41.042399005964398" lon="-8.32508803345263">
        <ele>190.96000000000001</ele>
        <time>2025-05-03T12:40:37Z</time>
      </trkpt>
      <trkpt lat="41.042289035394788" lon="-8.325118962675333">
        <ele>190.96000000000001</ele>
        <time>2025-05-03T12:40:38Z</time>
      </trkpt>
      <trkpt lat="41.042221980169415" lon="-8.325235974043608">
        <ele>191.44</ele>
        <time>2025-05-03T12:40:39Z</time>
      </trkpt>
      <trkpt lat="41.042175963521004" lon="-8.325373018160462">
        <ele>191.44</ele>
        <time>2025-05-03T12:40:40Z</time>
      </trkpt>
      <trkpt lat="41.04218602180481" lon="-8.325531017035246">
        <ele>191.91999999999999</ele>
        <time>2025-05-03T12:40:41Z</time>
      </trkpt>
      <trkpt lat="41.042197002097964" lon="-8.325707959011197">
        <ele>192.40000000000001</ele>
        <time>2025-05-03T12:40:42Z</time>
      </trkpt>
      <trkpt lat="41.0422089882195" lon="-8.325899988412857">
        <ele>193.36000000000001</ele>
        <time>2025-05-03T12:40:43Z</time>
      </trkpt>
      <trkpt lat="41.042233966290951" lon="-8.326318999752402">
        <ele>194.31999999999999</ele>
        <time>2025-05-03T12:40:45Z</time>
      </trkpt>
      <trkpt lat="41.042206976562738" lon="-8.32697999663651">
        <ele>195.28</ele>
        <time>2025-05-03T12:40:48Z</time>
      </trkpt>
      <trkpt lat="41.042076973244548" lon="-8.328674985095859">
        <ele>193.36000000000001</ele>
        <time>2025-05-03T12:40:57Z</time>
      </trkpt>
      <trkpt lat="41.042026011273265" lon="-8.328813035041094">
        <ele>192.88</ele>
        <time>2025-05-03T12:40:58Z</time>
      </trkpt>
      <trkpt lat="41.041975971311331" lon="-8.328947983682156">
        <ele>192.88</ele>
        <time>2025-05-03T12:40:59Z</time>
      </trkpt>
      <trkpt lat="41.041898019611835" lon="-8.329027025029063">
        <ele>192.88</ele>
        <time>2025-05-03T12:41:00Z</time>
      </trkpt>
      <trkpt lat="41.04180003516376" lon="-8.32908796146512">
        <ele>192.40000000000001</ele>
        <time>2025-05-03T12:41:01Z</time>
      </trkpt>
      <trkpt lat="41.041682017967105" lon="-8.329159962013364">
        <ele>191.91999999999999</ele>
        <time>2025-05-03T12:41:02Z</time>
      </trkpt>
      <trkpt lat="41.04158403351903" lon="-8.329178988933563">
        <ele>190.96000000000001</ele>
        <time>2025-05-03T12:41:03Z</time>
      </trkpt>
      <trkpt lat="41.04145897552371" lon="-8.329202961176634">
        <ele>190.47999999999999</ele>
        <time>2025-05-03T12:41:04Z</time>
      </trkpt>
      <trkpt lat="41.0413299780339" lon="-8.329227017238736">
        <ele>190</ele>
        <time>2025-05-03T12:41:05Z</time>
      </trkpt>
      <trkpt lat="41.041206009685993" lon="-8.3292599581182">
        <ele>189.52000000000001</ele>
        <time>2025-05-03T12:41:06Z</time>
      </trkpt>
      <trkpt lat="41.041101990267634" lon="-8.329317960888147">
        <ele>189.52000000000001</ele>
        <time>2025-05-03T12:41:07Z</time>
      </trkpt>
      <trkpt lat="41.041008029133081" lon="-8.329358026385307">
        <ele>189.52000000000001</ele>
        <time>2025-05-03T12:41:08Z</time>
      </trkpt>
      <trkpt lat="41.040914990007877" lon="-8.329374035820365">
        <ele>189.52000000000001</ele>
        <time>2025-05-03T12:41:09Z</time>
      </trkpt>
      <trkpt lat="41.040836032480001" lon="-8.329326007515192">
        <ele>189.52000000000001</ele>
        <time>2025-05-03T12:41:10Z</time>
      </trkpt>
      <trkpt lat="41.040755985304713" lon="-8.329248977825046">
        <ele>189.03999999999999</ele>
        <time>2025-05-03T12:41:11Z</time>
      </trkpt>
      <trkpt lat="41.040681973099709" lon="-8.32913096062839">
        <ele>189.03999999999999</ele>
        <time>2025-05-03T12:41:12Z</time>
      </trkpt>
      <trkpt lat="41.040601003915071" lon="-8.32900196313858">
        <ele>188.56</ele>
        <time>2025-05-03T12:41:13Z</time>
      </trkpt>
      <trkpt lat="41.040502013638616" lon="-8.328906996175647">
        <ele>187.59</ele>
        <time>2025-05-03T12:41:14Z</time>
      </trkpt>
      <trkpt lat="41.04040302336216" lon="-8.328881012275815">
        <ele>187.11000000000001</ele>
        <time>2025-05-03T12:41:15Z</time>
      </trkpt>
      <trkpt lat="41.040309984236956" lon="-8.328901967033744">
        <ele>186.63</ele>
        <time>2025-05-03T12:41:16Z</time>
      </trkpt>
      <trkpt lat="41.040236977860332" lon="-8.328987965360284">
        <ele>186.15000000000001</ele>
        <time>2025-05-03T12:41:17Z</time>
      </trkpt>
      <trkpt lat="41.040193978697062" lon="-8.329104976728559">
        <ele>185.66999999999999</ele>
        <time>2025-05-03T12:41:18Z</time>
      </trkpt>
      <trkpt lat="41.04014896787703" lon="-8.329226011410356">
        <ele>185.66999999999999</ele>
        <time>2025-05-03T12:41:19Z</time>
      </trkpt>
      <trkpt lat="41.040093982592225" lon="-8.329375041648746">
        <ele>185.19</ele>
        <time>2025-05-03T12:41:20Z</time>
      </trkpt>
      <trkpt lat="41.04001896455884" lon="-8.329436983913183">
        <ele>184.71000000000001</ele>
        <time>2025-05-03T12:41:21Z</time>
      </trkpt>
      <trkpt lat="41.039914023131132" lon="-8.329521976411343">
        <ele>184.22999999999999</ele>
        <time>2025-05-03T12:41:22Z</time>
      </trkpt>
      <trkpt lat="41.039799023419619" lon="-8.329617027193308">
        <ele>183.27000000000001</ele>
        <time>2025-05-03T12:41:23Z</time>
      </trkpt>
      <trkpt lat="41.039673965424299" lon="-8.329719034954906">
        <ele>182.78999999999999</ele>
        <time>2025-05-03T12:41:24Z</time>
      </trkpt>
      <trkpt lat="41.039573969319463" lon="-8.329869993031025">
        <ele>181.83000000000001</ele>
        <time>2025-05-03T12:41:25Z</time>
      </trkpt>
      <trkpt lat="41.039495011791587" lon="-8.330045007169247">
        <ele>181.34999999999999</ele>
        <time>2025-05-03T12:41:26Z</time>
      </trkpt>
      <trkpt lat="41.039419993758202" lon="-8.330213986337185">
        <ele>180.87</ele>
        <time>2025-05-03T12:41:27Z</time>
      </trkpt>
      <trkpt lat="41.039274986833334" lon="-8.330537024885416">
        <ele>180.38</ele>
        <time>2025-05-03T12:41:29Z</time>
      </trkpt>
      <trkpt lat="41.039193011820316" lon="-8.330654036253691">
        <ele>179.90000000000001</ele>
        <time>2025-05-03T12:41:30Z</time>
      </trkpt>
      <trkpt lat="41.039101984351873" lon="-8.330712961032987">
        <ele>179.41999999999999</ele>
        <time>2025-05-03T12:41:31Z</time>
      </trkpt>
      <trkpt lat="41.038992013782263" lon="-8.330709021538496">
        <ele>178.46000000000001</ele>
        <time>2025-05-03T12:41:32Z</time>
      </trkpt>
      <trkpt lat="41.038884976878762" lon="-8.330641966313124">
        <ele>177.5</ele>
        <time>2025-05-03T12:41:33Z</time>
      </trkpt>
      <trkpt lat="41.038770982995629" lon="-8.330514980480075">
        <ele>176.53999999999999</ele>
        <time>2025-05-03T12:41:34Z</time>
      </trkpt>
      <trkpt lat="41.03866302408278" lon="-8.330369973555207">
        <ele>175.58000000000001</ele>
        <time>2025-05-03T12:41:35Z</time>
      </trkpt>
      <trkpt lat="41.038549030199647" lon="-8.330218009650707">
        <ele>175.09999999999999</ele>
        <time>2025-05-03T12:41:36Z</time>
      </trkpt>
      <trkpt lat="41.038434030488133" lon="-8.330077026039362">
        <ele>174.13999999999999</ele>
        <time>2025-05-03T12:41:37Z</time>
      </trkpt>
      <trkpt lat="41.038302015513182" lon="-8.329953979700804">
        <ele>173.16999999999999</ele>
        <time>2025-05-03T12:41:38Z</time>
      </trkpt>
      <trkpt lat="41.038160026073456" lon="-8.329819031059742">
        <ele>172.21000000000001</ele>
        <time>2025-05-03T12:41:39Z</time>
      </trkpt>
      <trkpt lat="41.038068998605013" lon="-8.32964401692152">
        <ele>171.25</ele>
        <time>2025-05-03T12:41:40Z</time>
      </trkpt>
      <trkpt lat="41.037887027487159" lon="-8.329291976988316">
        <ele>169.33000000000001</ele>
        <time>2025-05-03T12:41:42Z</time>
      </trkpt>
      <trkpt lat="41.0377830080688" lon="-8.32915099337697">
        <ele>168.37</ele>
        <time>2025-05-03T12:41:43Z</time>
      </trkpt>
      <trkpt lat="41.037672031670809" lon="-8.329016966745257">
        <ele>167.41</ele>
        <time>2025-05-03T12:41:44Z</time>
      </trkpt>
      <trkpt lat="41.037569018080831" lon="-8.328894004225731">
        <ele>166.44999999999999</ele>
        <time>2025-05-03T12:41:45Z</time>
      </trkpt>
      <trkpt lat="41.037492994219065" lon="-8.328728964552283">
        <ele>165.47999999999999</ele>
        <time>2025-05-03T12:41:46Z</time>
      </trkpt>
      <trkpt lat="41.037435997277498" lon="-8.328574988991022">
        <ele>164.52000000000001</ele>
        <time>2025-05-03T12:41:47Z</time>
      </trkpt>
      <trkpt lat="41.037380006164312" lon="-8.328421013429761">
        <ele>163.08000000000001</ele>
        <time>2025-05-03T12:41:48Z</time>
      </trkpt>
      <trkpt lat="41.037329966202378" lon="-8.328283969312906">
        <ele>162.12</ele>
        <time>2025-05-03T12:41:49Z</time>
      </trkpt>
      <trkpt lat="41.037291996181011" lon="-8.328212974593043">
        <ele>161.16</ele>
        <time>2025-05-03T12:41:50Z</time>
      </trkpt>
      <trkpt lat="41.037193005904555" lon="-8.328191014006734">
        <ele>160.68000000000001</ele>
        <time>2025-05-03T12:41:51Z</time>
      </trkpt>
      <trkpt lat="41.037077000364661" lon="-8.328166035935283">
        <ele>160.19999999999999</ele>
        <time>2025-05-03T12:41:52Z</time>
      </trkpt>
      <trkpt lat="41.03694599121809" lon="-8.328136028721929">
        <ele>159.72</ele>
        <time>2025-05-03T12:41:53Z</time>
      </trkpt>
      <trkpt lat="41.036809030920267" lon="-8.328106021508575">
        <ele>158.75</ele>
        <time>2025-05-03T12:41:54Z</time>
      </trkpt>
      <trkpt lat="41.03666796348989" lon="-8.328041983768344">
        <ele>158.27000000000001</ele>
        <time>2025-05-03T12:41:55Z</time>
      </trkpt>
      <trkpt lat="41.036563022062182" lon="-8.327960008755326">
        <ele>157.31</ele>
        <time>2025-05-03T12:41:56Z</time>
      </trkpt>
      <trkpt lat="41.036456990987062" lon="-8.327878033742309">
        <ele>155.87</ele>
        <time>2025-05-03T12:41:57Z</time>
      </trkpt>
      <trkpt lat="41.036351965740323" lon="-8.327794969081879">
        <ele>154.91</ele>
        <time>2025-05-03T12:41:58Z</time>
      </trkpt>
      <trkpt lat="41.036232020705938" lon="-8.327701007947326">
        <ele>153.94999999999999</ele>
        <time>2025-05-03T12:41:59Z</time>
      </trkpt>
      <trkpt lat="41.036218022927642" lon="-8.327707964926958">
        <ele>152.99000000000001</ele>
        <time>2025-05-03T12:42:00Z</time>
      </trkpt>
      <trkpt lat="41.036103023216128" lon="-8.327765967696905">
        <ele>152.50999999999999</ele>
        <time>2025-05-03T12:42:01Z</time>
      </trkpt>
      <trkpt lat="41.036075027659535" lon="-8.327867975458503">
        <ele>152.03</ele>
        <time>2025-05-03T12:42:02Z</time>
      </trkpt>
      <trkpt lat="41.03606597520411" lon="-8.328072996810079">
        <ele>152.50999999999999</ele>
        <time>2025-05-03T12:42:03Z</time>
      </trkpt>
      <trkpt lat="41.036120038479567" lon="-8.328211968764663">
        <ele>152.50999999999999</ele>
        <time>2025-05-03T12:42:04Z</time>
      </trkpt>
      <trkpt lat="41.036181980744004" lon="-8.328373990952969">
        <ele>153.47</ele>
        <time>2025-05-03T12:42:05Z</time>
      </trkpt>
      <trkpt lat="41.036508958786726" lon="-8.329241015017033">
        <ele>157.78999999999999</ele>
        <time>2025-05-03T12:42:10Z</time>
      </trkpt>
      <trkpt lat="41.03649596683681" lon="-8.32940798252821">
        <ele>158.75</ele>
        <time>2025-05-03T12:42:11Z</time>
      </trkpt>
      <trkpt lat="41.036447016522288" lon="-8.329518036916852">
        <ele>158.75</ele>
        <time>2025-05-03T12:42:12Z</time>
      </trkpt>
      <trkpt lat="41.036365041509271" lon="-8.329586014151573">
        <ele>158.75</ele>
        <time>2025-05-03T12:42:13Z</time>
      </trkpt>
      <trkpt lat="41.036272002384067" lon="-8.329605041071773">
        <ele>158.75</ele>
        <time>2025-05-03T12:42:14Z</time>
      </trkpt>
      <trkpt lat="41.036160020157695" lon="-8.329624990001321">
        <ele>159.24000000000001</ele>
        <time>2025-05-03T12:42:15Z</time>
      </trkpt>
      <trkpt lat="41.036037979647517" lon="-8.329647034406662">
        <ele>159.24000000000001</ele>
        <time>2025-05-03T12:42:16Z</time>
      </trkpt>
      <trkpt lat="41.035903031006455" lon="-8.329671006649733">
        <ele>159.24000000000001</ele>
        <time>2025-05-03T12:42:17Z</time>
      </trkpt>
      <trkpt lat="41.035631038248539" lon="-8.329696990549564">
        <ele>159.24000000000001</ele>
        <time>2025-05-03T12:42:19Z</time>
      </trkpt>
      <trkpt lat="41.035359967499971" lon="-8.329728003591299">
        <ele>159.72</ele>
        <time>2025-05-03T12:42:21Z</time>
      </trkpt>
      <trkpt lat="41.035330966114998" lon="-8.329739989712834">
        <ele>159.72</ele>
        <time>2025-05-03T12:42:22Z</time>
      </trkpt>
      <trkpt lat="41.035223007202148" lon="-8.329890025779605">
        <ele>159.72</ele>
        <time>2025-05-03T12:42:23Z</time>
      </trkpt>
      <trkpt lat="41.035223007202148" lon="-8.329890025779605">
        <ele>159.72</ele>
        <time>2025-05-03T12:42:24Z</time>
      </trkpt>
      <trkpt lat="41.035223007202148" lon="-8.329890025779605">
        <ele>159.72</ele>
        <time>2025-05-03T12:42:25Z</time>
      </trkpt>
      <trkpt lat="41.035241028293967" lon="-8.330079037696123">
        <ele>159.72</ele>
        <time>2025-05-03T12:42:26Z</time>
      </trkpt>
      <trkpt lat="41.035244967788458" lon="-8.330125976353884">
        <ele>159.24000000000001</ele>
        <time>2025-05-03T12:42:27Z</time>
      </trkpt>
      <trkpt lat="41.035244967788458" lon="-8.330125976353884">
        <ele>158.75</ele>
        <time>2025-05-03T12:42:28Z</time>
      </trkpt>
      <trkpt lat="41.035353010520339" lon="-8.330264026299119">
        <ele>156.83000000000001</ele>
        <time>2025-05-03T12:42:29Z</time>
      </trkpt>
      <trkpt lat="41.035481002181768" lon="-8.330427976325154">
        <ele>155.87</ele>
        <time>2025-05-03T12:42:30Z</time>
      </trkpt>
      <trkpt lat="41.03561201132834" lon="-8.330594021826983">
        <ele>154.91</ele>
        <time>2025-05-03T12:42:31Z</time>
      </trkpt>
      <trkpt lat="41.036449028179049" lon="-8.33155601285398">
        <ele>148.66</ele>
        <time>2025-05-03T12:42:37Z</time>
      </trkpt>
      <trkpt lat="41.036551035940647" lon="-8.331704959273338">
        <ele>148.18000000000001</ele>
        <time>2025-05-03T12:42:38Z</time>
      </trkpt>
      <trkpt lat="41.03670802898705" lon="-8.33194300532341">
        <ele>148.18000000000001</ele>
        <time>2025-05-03T12:42:39Z</time>
      </trkpt>
      <trkpt lat="41.03675102815032" lon="-8.332116007804871">
        <ele>148.18000000000001</ele>
        <time>2025-05-03T12:42:40Z</time>
      </trkpt>
      <trkpt lat="41.036770977079868" lon="-8.332426976412535">
        <ele>148.18000000000001</ele>
        <time>2025-05-03T12:42:41Z</time>
      </trkpt>
      <trkpt lat="41.036745999008417" lon="-8.332620011642575">
        <ele>148.18000000000001</ele>
        <time>2025-05-03T12:42:42Z</time>
      </trkpt>
      <trkpt lat="41.036721020936966" lon="-8.332826038822532">
        <ele>147.69999999999999</ele>
        <time>2025-05-03T12:42:43Z</time>
      </trkpt>
      <trkpt lat="41.036694031208754" lon="-8.333037011325359">
        <ele>147.69999999999999</ele>
        <time>2025-05-03T12:42:44Z</time>
      </trkpt>
      <trkpt lat="41.03668799623847" lon="-8.333206996321678">
        <ele>146.74000000000001</ele>
        <time>2025-05-03T12:42:45Z</time>
      </trkpt>
      <trkpt lat="41.036704005673528" lon="-8.333409000188112">
        <ele>145.78</ele>
        <time>2025-05-03T12:42:46Z</time>
      </trkpt>
      <trkpt lat="41.036753039807081" lon="-8.333608992397785">
        <ele>144.81999999999999</ele>
        <time>2025-05-03T12:42:47Z</time>
      </trkpt>
      <trkpt lat="41.036807019263506" lon="-8.33383304066956">
        <ele>143.37</ele>
        <time>2025-05-03T12:42:48Z</time>
      </trkpt>
      <trkpt lat="41.036863010376692" lon="-8.334061028435826">
        <ele>142.41</ele>
        <time>2025-05-03T12:42:49Z</time>
      </trkpt>
      <trkpt lat="41.036970969289541" lon="-8.334507029503584">
        <ele>140.00999999999999</ele>
        <time>2025-05-03T12:42:51Z</time>
      </trkpt>
      <trkpt lat="41.037023020908237" lon="-8.334721019491553">
        <ele>139.05000000000001</ele>
        <time>2025-05-03T12:42:52Z</time>
      </trkpt>
      <trkpt lat="41.037089992314577" lon="-8.334997035562992">
        <ele>138.56999999999999</ele>
        <time>2025-05-03T12:42:53Z</time>
      </trkpt>
      <trkpt lat="41.037063002586365" lon="-8.335168026387692">
        <ele>137.61000000000001</ele>
        <time>2025-05-03T12:42:54Z</time>
      </trkpt>
      <trkpt lat="41.037028972059488" lon="-8.3353800047189">
        <ele>136.63999999999999</ele>
        <time>2025-05-03T12:42:55Z</time>
      </trkpt>
      <trkpt lat="41.036962000653148" lon="-8.335797004401684">
        <ele>135.19999999999999</ele>
        <time>2025-05-03T12:42:57Z</time>
      </trkpt>
      <trkpt lat="41.036932999268174" lon="-8.33598199300468">
        <ele>134.24000000000001</ele>
        <time>2025-05-03T12:42:58Z</time>
      </trkpt>
      <trkpt lat="41.036919001489878" lon="-8.336070002987981">
        <ele>132.80000000000001</ele>
        <time>2025-05-03T12:42:59Z</time>
      </trkpt>
      <trkpt lat="41.036962000653148" lon="-8.336220039054751">
        <ele>131.84</ele>
        <time>2025-05-03T12:43:00Z</time>
      </trkpt>
      <trkpt lat="41.037041964009404" lon="-8.336380971595645">
        <ele>129.91999999999999</ele>
        <time>2025-05-03T12:43:01Z</time>
      </trkpt>
      <trkpt lat="41.037155035883188" lon="-8.336606025695801">
        <ele>128.94999999999999</ele>
        <time>2025-05-03T12:43:02Z</time>
      </trkpt>
      <trkpt lat="41.037218989804387" lon="-8.33679897710681">
        <ele>127.51000000000001</ele>
        <time>2025-05-03T12:43:03Z</time>
      </trkpt>
      <trkpt lat="41.037195017561316" lon="-8.336941972374916">
        <ele>126.55</ele>
        <time>2025-05-03T12:43:04Z</time>
      </trkpt>
      <trkpt lat="41.037131985649467" lon="-8.337307004258037">
        <ele>125.11</ele>
        <time>2025-05-03T12:43:06Z</time>
      </trkpt>
      <trkpt lat="41.037089992314577" lon="-8.33754999563098">
        <ele>123.19</ele>
        <time>2025-05-03T12:43:07Z</time>
      </trkpt>
      <trkpt lat="41.037026038393378" lon="-8.33770003169775">
        <ele>122.22</ele>
        <time>2025-05-03T12:43:08Z</time>
      </trkpt>
      <trkpt lat="41.036977004259825" lon="-8.33776499144733">
        <ele>123.19</ele>
        <time>2025-05-03T12:43:09Z</time>
      </trkpt>
      <trkpt lat="41.036897040903568" lon="-8.33787202835083">
        <ele>124.15000000000001</ele>
        <time>2025-05-03T12:43:10Z</time>
      </trkpt>
      <trkpt lat="41.036840965971351" lon="-8.337903963401914">
        <ele>125.11</ele>
        <time>2025-05-03T12:43:11Z</time>
      </trkpt>
      <trkpt lat="41.036771982908249" lon="-8.337942017242312">
        <ele>125.59</ele>
        <time>2025-05-03T12:43:12Z</time>
      </trkpt>
      <trkpt lat="41.036704005673528" lon="-8.337978981435299">
        <ele>125.59</ele>
        <time>2025-05-03T12:43:13Z</time>
      </trkpt>
      <trkpt lat="41.036553969606757" lon="-8.338107978925109">
        <ele>126.06999999999999</ele>
        <time>2025-05-03T12:43:14Z</time>
      </trkpt>
      <trkpt lat="41.036553969606757" lon="-8.338107978925109">
        <ele>126.06999999999999</ele>
        <time>2025-05-03T12:43:15Z</time>
      </trkpt>
      <trkpt lat="41.036510970443487" lon="-8.338262960314751">
        <ele>126.06999999999999</ele>
        <time>2025-05-03T12:43:16Z</time>
      </trkpt>
      <trkpt lat="41.036510970443487" lon="-8.338391035795212">
        <ele>126.06999999999999</ele>
        <time>2025-05-03T12:43:17Z</time>
      </trkpt>
      <trkpt lat="41.036510970443487" lon="-8.338708961382508">
        <ele>126.06999999999999</ele>
        <time>2025-05-03T12:43:19Z</time>
      </trkpt>
      <trkpt lat="41.036505019292235" lon="-8.338728994131088">
        <ele>126.06999999999999</ele>
        <time>2025-05-03T12:43:20Z</time>
      </trkpt>
      <trkpt lat="41.036447016522288" lon="-8.33892404101789">
        <ele>126.55</ele>
        <time>2025-05-03T12:43:21Z</time>
      </trkpt>
      <trkpt lat="41.036426983773708" lon="-8.338948013260961">
        <ele>126.55</ele>
        <time>2025-05-03T12:43:22Z</time>
      </trkpt>
      <trkpt lat="41.036275019869208" lon="-8.339138031005859">
        <ele>127.03</ele>
        <time>2025-05-03T12:43:23Z</time>
      </trkpt>
      <trkpt lat="41.036273008212447" lon="-8.33913903683424">
        <ele>127.03</ele>
        <time>2025-05-03T12:43:24Z</time>
      </trkpt>
      <trkpt lat="41.036180974915624" lon="-8.339168960228562">
        <ele>127.03</ele>
        <time>2025-05-03T12:43:25Z</time>
      </trkpt>
      <trkpt lat="41.036081984639168" lon="-8.339202990755439">
        <ele>127.03</ele>
        <time>2025-05-03T12:43:26Z</time>
      </trkpt>
      <trkpt lat="41.035952987149358" lon="-8.339267028495669">
        <ele>126.55</ele>
        <time>2025-05-03T12:43:27Z</time>
      </trkpt>
      <trkpt lat="41.03591401129961" lon="-8.339300975203514">
        <ele>126.55</ele>
        <time>2025-05-03T12:43:28Z</time>
      </trkpt>
      <trkpt lat="41.035829018801451" lon="-8.339374987408519">
        <ele>126.06999999999999</ele>
        <time>2025-05-03T12:43:29Z</time>
      </trkpt>
      <trkpt lat="41.035745032131672" lon="-8.339459979906678">
        <ele>126.55</ele>
        <time>2025-05-03T12:43:30Z</time>
      </trkpt>
      <trkpt lat="41.035666996613145" lon="-8.339550001546741">
        <ele>126.55</ele>
        <time>2025-05-03T12:43:31Z</time>
      </trkpt>
      <trkpt lat="41.035562977194786" lon="-8.339614039286971">
        <ele>126.06999999999999</ele>
        <time>2025-05-03T12:43:32Z</time>
      </trkpt>
      <trkpt lat="41.035510003566742" lon="-8.339771032333374">
        <ele>126.55</ele>
        <time>2025-05-03T12:43:33Z</time>
      </trkpt>
      <trkpt lat="41.03546298108995" lon="-8.339903969317675">
        <ele>126.55</ele>
        <time>2025-05-03T12:43:34Z</time>
      </trkpt>
      <trkpt lat="41.035479996353388" lon="-8.340075965970755">
        <ele>127.03</ele>
        <time>2025-05-03T12:43:35Z</time>
      </trkpt>
      <trkpt lat="41.035533975809813" lon="-8.340204963460565">
        <ele>127.03</ele>
        <time>2025-05-03T12:43:36Z</time>
      </trkpt>
      <trkpt lat="41.035598013550043" lon="-8.340321974828839">
        <ele>127.03</ele>
        <time>2025-05-03T12:43:37Z</time>
      </trkpt>
      <trkpt lat="41.03593303821981" lon="-8.341996008530259">
        <ele>129.43000000000001</ele>
        <time>2025-05-03T12:43:48Z</time>
      </trkpt>
      <trkpt lat="41.036533014848828" lon="-8.343376005068421">
        <ele>129.91999999999999</ele>
        <time>2025-05-03T12:43:58Z</time>
      </trkpt>
      <trkpt lat="41.036576014012098" lon="-8.34352201782167">
        <ele>129.43000000000001</ele>
        <time>2025-05-03T12:43:59Z</time>
      </trkpt>
      <trkpt lat="41.036618007346988" lon="-8.343666018918157">
        <ele>128.94999999999999</ele>
        <time>2025-05-03T12:44:00Z</time>
      </trkpt>
      <trkpt lat="41.036874996498227" lon="-8.345368970185518">
        <ele>122.70999999999999</ele>
        <time>2025-05-03T12:44:11Z</time>
      </trkpt>
      <trkpt lat="41.036797966808081" lon="-8.346934961155057">
        <ele>120.78</ele>
        <time>2025-05-03T12:44:21Z</time>
      </trkpt>
      <trkpt lat="41.036763014271855" lon="-8.347030011937022">
        <ele>120.78</ele>
        <time>2025-05-03T12:44:22Z</time>
      </trkpt>
      <trkpt lat="41.036697970703244" lon="-8.347122967243195">
        <ele>120.78</ele>
        <time>2025-05-03T12:44:23Z</time>
      </trkpt>
      <trkpt lat="41.036639967933297" lon="-8.347206031903625">
        <ele>120.78</ele>
        <time>2025-05-03T12:44:24Z</time>
      </trkpt>
      <trkpt lat="41.03655899874866" lon="-8.347206031903625">
        <ele>121.26000000000001</ele>
        <time>2025-05-03T12:44:25Z</time>
      </trkpt>
      <trkpt lat="41.036424972116947" lon="-8.347206031903625">
        <ele>120.78</ele>
        <time>2025-05-03T12:44:26Z</time>
      </trkpt>
      <trkpt lat="41.036350959911942" lon="-8.347153980284929">
        <ele>120.78</ele>
        <time>2025-05-03T12:44:27Z</time>
      </trkpt>
      <trkpt lat="41.03623797185719" lon="-8.347076028585434">
        <ele>120.3</ele>
        <time>2025-05-03T12:44:28Z</time>
      </trkpt>
      <trkpt lat="41.036138981580734" lon="-8.346966980025172">
        <ele>120.3</ele>
        <time>2025-05-03T12:44:29Z</time>
      </trkpt>
      <trkpt lat="41.036047032102942" lon="-8.346851980313659">
        <ele>119.34</ele>
        <time>2025-05-03T12:44:30Z</time>
      </trkpt>
      <trkpt lat="41.035994980484247" lon="-8.346726000308991">
        <ele>118.86</ele>
        <time>2025-05-03T12:44:31Z</time>
      </trkpt>
      <trkpt lat="41.035939995199442" lon="-8.346579987555742">
        <ele>118.38</ele>
        <time>2025-05-03T12:44:32Z</time>
      </trkpt>
      <trkpt lat="41.035879980772734" lon="-8.346422994509339">
        <ele>117.90000000000001</ele>
        <time>2025-05-03T12:44:33Z</time>
      </trkpt>
      <trkpt lat="41.035818960517645" lon="-8.346261978149414">
        <ele>117.90000000000001</ele>
        <time>2025-05-03T12:44:34Z</time>
      </trkpt>
      <trkpt lat="41.035630032420158" lon="-8.345755962654948">
        <ele>116.45999999999999</ele>
        <time>2025-05-03T12:44:37Z</time>
      </trkpt>
      <trkpt lat="41.035530958324671" lon="-8.34560701623559">
        <ele>115.98</ele>
        <time>2025-05-03T12:44:38Z</time>
      </trkpt>
      <trkpt lat="41.035416964441538" lon="-8.345473995432258">
        <ele>115.01000000000001</ele>
        <time>2025-05-03T12:44:39Z</time>
      </trkpt>
      <trkpt lat="41.034535020589828" lon="-8.344671009108424">
        <ele>111.65000000000001</ele>
        <time>2025-05-03T12:44:46Z</time>
      </trkpt>
      <trkpt lat="41.034421026706696" lon="-8.34457503631711">
        <ele>111.17</ele>
        <time>2025-05-03T12:44:47Z</time>
      </trkpt>
      <trkpt lat="41.034296974539757" lon="-8.344514016062021">
        <ele>110.69</ele>
        <time>2025-05-03T12:44:48Z</time>
      </trkpt>
      <trkpt lat="41.034164037555456" lon="-8.344466993585229">
        <ele>110.20999999999999</ele>
        <time>2025-05-03T12:44:49Z</time>
      </trkpt>
      <trkpt lat="41.034021964296699" lon="-8.344417037442327">
        <ele>109.73</ele>
        <time>2025-05-03T12:44:50Z</time>
      </trkpt>
      <trkpt lat="41.033892966806889" lon="-8.344325004145503">
        <ele>108.77</ele>
        <time>2025-05-03T12:44:51Z</time>
      </trkpt>
      <trkpt lat="41.033761035650969" lon="-8.344230959191918">
        <ele>108.29000000000001</ele>
        <time>2025-05-03T12:44:52Z</time>
      </trkpt>
      <trkpt lat="41.033517038449645" lon="-8.34403800778091">
        <ele>106.36</ele>
        <time>2025-05-03T12:44:54Z</time>
      </trkpt>
      <trkpt lat="41.033416036516428" lon="-8.343929965049028">
        <ele>105.40000000000001</ele>
        <time>2025-05-03T12:44:55Z</time>
      </trkpt>
      <trkpt lat="41.03322803042829" lon="-8.343729972839356">
        <ele>103.95999999999999</ele>
        <time>2025-05-03T12:44:57Z</time>
      </trkpt>
      <trkpt lat="41.033140020444989" lon="-8.343685967847705">
        <ele>103.48</ele>
        <time>2025-05-03T12:44:58Z</time>
      </trkpt>
      <trkpt lat="41.033041030168533" lon="-8.343686973676086">
        <ele>103</ele>
        <time>2025-05-03T12:44:59Z</time>
      </trkpt>
      <trkpt lat="41.032921001315117" lon="-8.343743970617652">
        <ele>103</ele>
        <time>2025-05-03T12:45:00Z</time>
      </trkpt>
      <trkpt lat="41.032860986888409" lon="-8.343862993642688">
        <ele>103</ele>
        <time>2025-05-03T12:45:01Z</time>
      </trkpt>
      <trkpt lat="41.032841959968209" lon="-8.344028033316135">
        <ele>103</ele>
        <time>2025-05-03T12:45:02Z</time>
      </trkpt>
      <trkpt lat="41.032860986888409" lon="-8.344202963635325">
        <ele>103</ele>
        <time>2025-05-03T12:45:03Z</time>
      </trkpt>
      <trkpt lat="41.032912032678723" lon="-8.344371020793915">
        <ele>103</ele>
        <time>2025-05-03T12:45:04Z</time>
      </trkpt>
      <trkpt lat="41.03301596827805" lon="-8.344719037413597">
        <ele>103.95999999999999</ele>
        <time>2025-05-03T12:45:06Z</time>
      </trkpt>
      <trkpt lat="41.03320699185133" lon="-8.344975020736456">
        <ele>104.44</ele>
        <time>2025-05-03T12:45:08Z</time>
      </trkpt>
      <trkpt lat="41.033433973789215" lon="-8.34524299018085">
        <ele>104.92</ele>
        <time>2025-05-03T12:45:10Z</time>
      </trkpt>
      <trkpt lat="41.033541010692716" lon="-8.345384979620576">
        <ele>105.40000000000001</ele>
        <time>2025-05-03T12:45:11Z</time>
      </trkpt>
      <trkpt lat="41.033635977655649" lon="-8.345510959625244">
        <ele>105.40000000000001</ele>
        <time>2025-05-03T12:45:12Z</time>
      </trkpt>
      <trkpt lat="41.033755000680685" lon="-8.345579020678997">
        <ele>105.40000000000001</ele>
        <time>2025-05-03T12:45:13Z</time>
      </trkpt>
      <trkpt lat="41.033879974856973" lon="-8.34565001539886">
        <ele>105.40000000000001</ele>
        <time>2025-05-03T12:45:14Z</time>
      </trkpt>
      <trkpt lat="41.034007966518402" lon="-8.345724027603865">
        <ele>105.88</ele>
        <time>2025-05-03T12:45:15Z</time>
      </trkpt>
      <trkpt lat="41.034132018685341" lon="-8.345814971253276">
        <ele>105.88</ele>
        <time>2025-05-03T12:45:16Z</time>
      </trkpt>
      <trkpt lat="41.034248024225235" lon="-8.345942040905356">
        <ele>106.84</ele>
        <time>2025-05-03T12:45:17Z</time>
      </trkpt>
      <trkpt lat="41.034323964267969" lon="-8.346092998981476">
        <ele>106.84</ele>
        <time>2025-05-03T12:45:18Z</time>
      </trkpt>
      <trkpt lat="41.034377021715045" lon="-8.346244040876627">
        <ele>107.31999999999999</ele>
        <time>2025-05-03T12:45:19Z</time>
      </trkpt>
      <trkpt lat="41.034403005614877" lon="-8.346384018659592">
        <ele>107.31999999999999</ele>
        <time>2025-05-03T12:45:20Z</time>
      </trkpt>
      <trkpt lat="41.034378027543426" lon="-8.346520978957415">
        <ele>107.81</ele>
        <time>2025-05-03T12:45:21Z</time>
      </trkpt>
      <trkpt lat="41.034343997016549" lon="-8.346647964790463">
        <ele>107.81</ele>
        <time>2025-05-03T12:45:22Z</time>
      </trkpt>
      <trkpt lat="41.034265039488673" lon="-8.346805963665247">
        <ele>107.81</ele>
        <time>2025-05-03T12:45:23Z</time>
      </trkpt>
      <trkpt lat="41.034176023676991" lon="-8.346935966983438">
        <ele>108.29000000000001</ele>
        <time>2025-05-03T12:45:24Z</time>
      </trkpt>
      <trkpt lat="41.03406697511673" lon="-8.347067981958389">
        <ele>108.29000000000001</ele>
        <time>2025-05-03T12:45:25Z</time>
      </trkpt>
      <trkpt lat="41.033470015972853" lon="-8.347805002704263">
        <ele>110.20999999999999</ele>
        <time>2025-05-03T12:45:31Z</time>
      </trkpt>
      <trkpt lat="41.033377982676029" lon="-8.347936011850834">
        <ele>110.69</ele>
        <time>2025-05-03T12:45:32Z</time>
      </trkpt>
      <trkpt lat="41.033345963805914" lon="-8.348048999905586">
        <ele>110.69</ele>
        <time>2025-05-03T12:45:33Z</time>
      </trkpt>
      <trkpt lat="41.033346969634295" lon="-8.348199035972357">
        <ele>111.17</ele>
        <time>2025-05-03T12:45:34Z</time>
      </trkpt>
      <trkpt lat="41.033390974625945" lon="-8.348340019583702">
        <ele>111.65000000000001</ele>
        <time>2025-05-03T12:45:35Z</time>
      </trkpt>
      <trkpt lat="41.033463981002569" lon="-8.3484230004251">
        <ele>111.65000000000001</ele>
        <time>2025-05-03T12:45:36Z</time>
      </trkpt>
      <trkpt lat="41.033563977107406" lon="-8.34848502650857">
        <ele>112.13</ele>
        <time>2025-05-03T12:45:37Z</time>
      </trkpt>
      <trkpt lat="41.033667996525764" lon="-8.34850899875164">
        <ele>112.13</ele>
        <time>2025-05-03T12:45:38Z</time>
      </trkpt>
      <trkpt lat="41.033759023994207" lon="-8.348530037328601">
        <ele>112.61</ele>
        <time>2025-05-03T12:45:39Z</time>
      </trkpt>
      <trkpt lat="41.033813003450632" lon="-8.348559038713574">
        <ele>112.61</ele>
        <time>2025-05-03T12:45:40Z</time>
      </trkpt>
      <trkpt lat="41.033846028149128" lon="-8.348587034270167">
        <ele>113.09</ele>
        <time>2025-05-03T12:45:41Z</time>
      </trkpt>
      <trkpt lat="41.033868994563818" lon="-8.348605977371335">
        <ele>113.09</ele>
        <time>2025-05-03T12:45:42Z</time>
      </trkpt>
      <trkpt lat="41.03391501121223" lon="-8.348644031211734">
        <ele>113.56999999999999</ele>
        <time>2025-05-03T12:45:43Z</time>
      </trkpt>
      <trkpt lat="41.033924985677004" lon="-8.348677977919579">
        <ele>113.56999999999999</ele>
        <time>2025-05-03T12:45:44Z</time>
      </trkpt>
      <trkpt lat="41.03402498178184" lon="-8.349019037559629">
        <ele>115.98</ele>
        <time>2025-05-03T12:45:48Z</time>
      </trkpt>
      <trkpt lat="41.034076027572155" lon="-8.349192962050438">
        <ele>116.94</ele>
        <time>2025-05-03T12:45:50Z</time>
      </trkpt>
      <trkpt lat="41.034102011471987" lon="-8.34928197786212">
        <ele>117.42</ele>
        <time>2025-05-03T12:45:51Z</time>
      </trkpt>
      <trkpt lat="41.034129001200199" lon="-8.349373005330563">
        <ele>118.38</ele>
        <time>2025-05-03T12:45:52Z</time>
      </trkpt>
      <trkpt lat="41.034091031178832" lon="-8.349408963695169">
        <ele>118.86</ele>
        <time>2025-05-03T12:45:53Z</time>
      </trkpt>
      <trkpt lat="41.034047026187181" lon="-8.349449029192329">
        <ele>119.81999999999999</ele>
        <time>2025-05-03T12:45:54Z</time>
      </trkpt>
      <trkpt lat="41.034006960690022" lon="-8.349485993385315">
        <ele>120.3</ele>
        <time>2025-05-03T12:45:55Z</time>
      </trkpt>
      <trkpt lat="41.033973013982177" lon="-8.34951700642705">
        <ele>121.26000000000001</ele>
        <time>2025-05-03T12:45:56Z</time>
      </trkpt>
      <trkpt lat="41.033943006768823" lon="-8.349543996155262">
        <ele>121.73999999999999</ele>
        <time>2025-05-03T12:45:57Z</time>
      </trkpt>
      <trkpt lat="41.033949963748455" lon="-8.349722027778626">
        <ele>121.73999999999999</ele>
        <time>2025-05-03T12:45:58Z</time>
      </trkpt>
      <trkpt lat="41.033987011760473" lon="-8.349788999184966">
        <ele>122.22</ele>
        <time>2025-05-03T12:45:59Z</time>
      </trkpt>
      <trkpt lat="41.034032022580504" lon="-8.349871980026364">
        <ele>123.19</ele>
        <time>2025-05-03T12:46:00Z</time>
      </trkpt>
      <trkpt lat="41.034133024513721" lon="-8.35009602829814">
        <ele>123.19</ele>
        <time>2025-05-03T12:46:02Z</time>
      </trkpt>
      <trkpt lat="41.034184992313385" lon="-8.350229971110821">
        <ele>123.67</ele>
        <time>2025-05-03T12:46:03Z</time>
      </trkpt>
      <trkpt lat="41.034232014790177" lon="-8.350384030491114">
        <ele>123.67</ele>
        <time>2025-05-03T12:46:04Z</time>
      </trkpt>
      <trkpt lat="41.034257998690009" lon="-8.350468017160893">
        <ele>123.67</ele>
        <time>2025-05-03T12:46:05Z</time>
      </trkpt>
      <trkpt lat="41.034361012279987" lon="-8.350693993270397">
        <ele>123.67</ele>
        <time>2025-05-03T12:46:06Z</time>
      </trkpt>
      <trkpt lat="41.034437958151102" lon="-8.350860960781574">
        <ele>123.19</ele>
        <time>2025-05-03T12:46:07Z</time>
      </trkpt>
      <trkpt lat="41.03451800532639" lon="-8.351036980748177">
        <ele>123.19</ele>
        <time>2025-05-03T12:46:08Z</time>
      </trkpt>
      <trkpt lat="41.034600986167789" lon="-8.351219035685062">
        <ele>123.19</ele>
        <time>2025-05-03T12:46:09Z</time>
      </trkpt>
      <trkpt lat="41.034702993929386" lon="-8.351349039003253">
        <ele>122.70999999999999</ele>
        <time>2025-05-03T12:46:10Z</time>
      </trkpt>
      <trkpt lat="41.034815981984138" lon="-8.351492034271359">
        <ele>122.22</ele>
        <time>2025-05-03T12:46:11Z</time>
      </trkpt>
      <trkpt lat="41.03494799695909" lon="-8.351608039811254">
        <ele>121.26000000000001</ele>
        <time>2025-05-03T12:46:12Z</time>
      </trkpt>
      <trkpt lat="41.035625003278255" lon="-8.352221008390188">
        <ele>118.38</ele>
        <time>2025-05-03T12:46:17Z</time>
      </trkpt>
      <trkpt lat="41.035730028524995" lon="-8.352393005043268">
        <ele>117.90000000000001</ele>
        <time>2025-05-03T12:46:18Z</time>
      </trkpt>
      <trkpt lat="41.035836981609464" lon="-8.352571036666632">
        <ele>117.42</ele>
        <time>2025-05-03T12:46:19Z</time>
      </trkpt>
      <trkpt lat="41.036780029535294" lon="-8.354168962687254">
        <ele>108.77</ele>
        <time>2025-05-03T12:46:28Z</time>
      </trkpt>
      <trkpt lat="41.037871018052101" lon="-8.356239041313529">
        <ele>97.230000000000004</ele>
        <time>2025-05-03T12:46:41Z</time>
      </trkpt>
      <trkpt lat="41.03877299465239" lon="-8.358346000313759">
        <ele>90.980000000000004</ele>
        <time>2025-05-03T12:46:54Z</time>
      </trkpt>
      <trkpt lat="41.03900802321732" lon="-8.358826031908393">
        <ele>89.540000000000006</ele>
        <time>2025-05-03T12:46:57Z</time>
      </trkpt>
      <trkpt lat="41.039322009310126" lon="-8.359226016327739">
        <ele>88.099999999999994</ele>
        <time>2025-05-03T12:47:00Z</time>
      </trkpt>
      <trkpt lat="41.039446983486414" lon="-8.359330035746098">
        <ele>87.620000000000005</ele>
        <time>2025-05-03T12:47:01Z</time>
      </trkpt>
      <trkpt lat="41.040373016148806" lon="-8.360222037881613">
        <ele>82.329999999999998</ele>
        <time>2025-05-03T12:47:10Z</time>
      </trkpt>
      <trkpt lat="41.041024038568139" lon="-8.361116973683238">
        <ele>78</ele>
        <time>2025-05-03T12:47:18Z</time>
      </trkpt>
      <trkpt lat="41.041682017967105" lon="-8.361839996650815">
        <ele>75.599999999999994</ele>
        <time>2025-05-03T12:47:25Z</time>
      </trkpt>
      <trkpt lat="41.041776984930038" lon="-8.361913003027439">
        <ele>75.120000000000005</ele>
        <time>2025-05-03T12:47:26Z</time>
      </trkpt>
      <trkpt lat="41.041960967704654" lon="-8.362054992467165">
        <ele>74.640000000000001</ele>
        <time>2025-05-03T12:47:28Z</time>
      </trkpt>
      <trkpt lat="41.042039003223181" lon="-8.362098997458816">
        <ele>74.159999999999997</ele>
        <time>2025-05-03T12:47:29Z</time>
      </trkpt>
      <trkpt lat="41.042267996817827" lon="-8.362082988023758">
        <ele>73.680000000000007</ele>
        <time>2025-05-03T12:47:31Z</time>
      </trkpt>
      <trkpt lat="41.042310995981097" lon="-8.362247021868825">
        <ele>73.200000000000003</ele>
        <time>2025-05-03T12:47:32Z</time>
      </trkpt>
      <trkpt lat="41.043125968426466" lon="-8.362926039844751">
        <ele>70.790000000000006</ele>
        <time>2025-05-03T12:47:39Z</time>
      </trkpt>
      <trkpt lat="41.043394021689892" lon="-8.363210018724203">
        <ele>69.829999999999998</ele>
        <time>2025-05-03T12:47:41Z</time>
      </trkpt>
      <trkpt lat="41.043511033058167" lon="-8.363375980407">
        <ele>68.870000000000005</ele>
        <time>2025-05-03T12:47:42Z</time>
      </trkpt>
      <trkpt lat="41.043621003627777" lon="-8.363553006201983">
        <ele>67.909999999999997</ele>
        <time>2025-05-03T12:47:43Z</time>
      </trkpt>
      <trkpt lat="41.043955022469163" lon="-8.364087017253041">
        <ele>65.030000000000001</ele>
        <time>2025-05-03T12:47:46Z</time>
      </trkpt>
      <trkpt lat="41.044068010523915" lon="-8.364266976714134">
        <ele>64.069999999999993</ele>
        <time>2025-05-03T12:47:47Z</time>
      </trkpt>
      <trkpt lat="41.044470006600022" lon="-8.364708032459021">
        <ele>60.700000000000003</ele>
        <time>2025-05-03T12:47:50Z</time>
      </trkpt>
      <trkpt lat="41.045825025066733" lon="-8.366043018177152">
        <ele>52.049999999999997</ele>
        <time>2025-05-03T12:48:00Z</time>
      </trkpt>
      <trkpt lat="41.046241018921137" lon="-8.366450965404511">
        <ele>50.130000000000003</ele>
        <time>2025-05-03T12:48:03Z</time>
      </trkpt>
      <trkpt lat="41.047305017709732" lon="-8.3674790058285">
        <ele>43.399999999999999</ele>
        <time>2025-05-03T12:48:10Z</time>
      </trkpt>
      <trkpt lat="41.047467961907387" lon="-8.367635998874903">
        <ele>42.439999999999998</ele>
        <time>2025-05-03T12:48:11Z</time>
      </trkpt>
      <trkpt lat="41.047631995752454" lon="-8.367793997749686">
        <ele>41.469999999999999</ele>
        <time>2025-05-03T12:48:12Z</time>
      </trkpt>
      <trkpt lat="41.04878400452435" lon="-8.36926301009953">
        <ele>35.710000000000001</ele>
        <time>2025-05-03T12:48:20Z</time>
      </trkpt>
      <trkpt lat="41.049220031127334" lon="-8.370563965290785">
        <ele>31.379999999999999</ele>
        <time>2025-05-03T12:48:26Z</time>
      </trkpt>
      <trkpt lat="41.049266969785094" lon="-8.37115396745503">
        <ele>30.420000000000002</ele>
        <time>2025-05-03T12:48:29Z</time>
      </trkpt>
      <trkpt lat="41.049274010583758" lon="-8.371333004906774">
        <ele>30.420000000000002</ele>
        <time>2025-05-03T12:48:30Z</time>
      </trkpt>
      <trkpt lat="41.049210978671908" lon="-8.371949996799231">
        <ele>30.420000000000002</ele>
        <time>2025-05-03T12:48:35Z</time>
      </trkpt>
      <trkpt lat="41.049204021692276" lon="-8.372006993740797">
        <ele>30.899999999999999</ele>
        <time>2025-05-03T12:48:36Z</time>
      </trkpt>
      <trkpt lat="41.049197986721992" lon="-8.372056027874351">
        <ele>30.899999999999999</ele>
        <time>2025-05-03T12:48:37Z</time>
      </trkpt>
      <trkpt lat="41.049193041399121" lon="-8.372089974582195">
        <ele>30.899999999999999</ele>
        <time>2025-05-03T12:48:38Z</time>
      </trkpt>
      <trkpt lat="41.049189018085599" lon="-8.372119981795549">
        <ele>31.379999999999999</ele>
        <time>2025-05-03T12:48:39Z</time>
      </trkpt>
      <trkpt lat="41.049184994772077" lon="-8.372143032029271">
        <ele>31.379999999999999</ele>
        <time>2025-05-03T12:48:40Z</time>
      </trkpt>
      <trkpt lat="41.049181977286935" lon="-8.372159041464329">
        <ele>31.379999999999999</ele>
        <time>2025-05-03T12:48:41Z</time>
      </trkpt>
      <trkpt lat="41.049173008650541" lon="-8.372214026749134">
        <ele>30.899999999999999</ele>
        <time>2025-05-03T12:48:43Z</time>
      </trkpt>
      <trkpt lat="41.049163034185767" lon="-8.372274041175842">
        <ele>30.899999999999999</ele>
        <time>2025-05-03T12:48:44Z</time>
      </trkpt>
      <trkpt lat="41.04910503141582" lon="-8.372557014226914">
        <ele>31.379999999999999</ele>
        <time>2025-05-03T12:48:47Z</time>
      </trkpt>
      <trkpt lat="41.049071000888944" lon="-8.372668996453285">
        <ele>31.379999999999999</ele>
        <time>2025-05-03T12:48:48Z</time>
      </trkpt>
      <trkpt lat="41.049035964533687" lon="-8.372780978679657">
        <ele>30.899999999999999</ele>
        <time>2025-05-03T12:48:49Z</time>
      </trkpt>
      <trkpt lat="41.048702029511333" lon="-8.373823016881943">
        <ele>31.379999999999999</ele>
        <time>2025-05-03T12:48:57Z</time>
      </trkpt>
      <trkpt lat="41.048250999301672" lon="-8.375322036445141">
        <ele>29.460000000000001</ele>
        <time>2025-05-03T12:49:07Z</time>
      </trkpt>
      <trkpt lat="41.048213029280305" lon="-8.375466959550977">
        <ele>28.98</ele>
        <time>2025-05-03T12:49:08Z</time>
      </trkpt>
      <trkpt lat="41.048174975439906" lon="-8.375613978132606">
        <ele>28.5</ele>
        <time>2025-05-03T12:49:09Z</time>
      </trkpt>
      <trkpt lat="41.047866018489003" lon="-8.377158008515835">
        <ele>27.050000000000001</ele>
        <time>2025-05-03T12:49:19Z</time>
      </trkpt>
      <trkpt lat="41.047553960233927" lon="-8.378708995878696">
        <ele>28.02</ele>
        <time>2025-05-03T12:49:29Z</time>
      </trkpt>
      <trkpt lat="41.04728196747601" lon="-8.380596013739705">
        <ele>30.899999999999999</ele>
        <time>2025-05-03T12:49:41Z</time>
      </trkpt>
      <trkpt lat="41.047269981354475" lon="-8.381066992878914">
        <ele>29.940000000000001</ele>
        <time>2025-05-03T12:49:44Z</time>
      </trkpt>
      <trkpt lat="41.047374000772834" lon="-8.382020015269518">
        <ele>31.379999999999999</ele>
        <time>2025-05-03T12:49:50Z</time>
      </trkpt>
      <trkpt lat="41.047640964388847" lon="-8.383747022598982">
        <ele>37.630000000000003</ele>
        <time>2025-05-03T12:50:01Z</time>
      </trkpt>
      <trkpt lat="41.047441978007555" lon="-8.385142022743821">
        <ele>46.759999999999998</ele>
        <time>2025-05-03T12:50:10Z</time>
      </trkpt>
      <trkpt lat="41.047368971630931" lon="-8.385616019368172">
        <ele>49.159999999999997</ele>
        <time>2025-05-03T12:50:13Z</time>
      </trkpt>
      <trkpt lat="41.047381041571498" lon="-8.385782986879349">
        <ele>50.130000000000003</ele>
        <time>2025-05-03T12:50:14Z</time>
      </trkpt>
      <trkpt lat="41.047406019642949" lon="-8.385938974097371">
        <ele>51.090000000000003</ele>
        <time>2025-05-03T12:50:15Z</time>
      </trkpt>
      <trkpt lat="41.047433009371161" lon="-8.38610895909369">
        <ele>51.57</ele>
        <time>2025-05-03T12:50:16Z</time>
      </trkpt>
      <trkpt lat="41.047479026019573" lon="-8.386273998767138">
        <ele>52.530000000000001</ele>
        <time>2025-05-03T12:50:17Z</time>
      </trkpt>
      <trkpt lat="41.047925027087331" lon="-8.388036964461207">
        <ele>63.100000000000001</ele>
        <time>2025-05-03T12:50:26Z</time>
      </trkpt>
      <trkpt lat="41.047976994886994" lon="-8.389297015964985">
        <ele>71.760000000000005</ele>
        <time>2025-05-03T12:50:31Z</time>
      </trkpt>
      <trkpt lat="41.047930978238583" lon="-8.389556016772986">
        <ele>73.680000000000007</ele>
        <time>2025-05-03T12:50:32Z</time>
      </trkpt>
      <trkpt lat="41.047884039580822" lon="-8.389820968732238">
        <ele>75.599999999999994</ele>
        <time>2025-05-03T12:50:33Z</time>
      </trkpt>
      <trkpt lat="41.047714976593852" lon="-8.390277028083801">
        <ele>78.969999999999999</ele>
        <time>2025-05-03T12:50:35Z</time>
      </trkpt>
      <trkpt lat="41.047626966610551" lon="-8.390484983101487">
        <ele>80.409999999999997</ele>
        <time>2025-05-03T12:50:36Z</time>
      </trkpt>
      <trkpt lat="41.046386025846004" lon="-8.392708031460643">
        <ele>101.08</ele>
        <time>2025-05-03T12:50:48Z</time>
      </trkpt>
      <trkpt lat="41.046302039176226" lon="-8.392915986478329">
        <ele>102.52</ele>
        <time>2025-05-03T12:50:49Z</time>
      </trkpt>
      <trkpt lat="41.046218974515796" lon="-8.393125031143427">
        <ele>103.95999999999999</ele>
        <time>2025-05-03T12:50:50Z</time>
      </trkpt>
      <trkpt lat="41.046149991452694" lon="-8.393342960625887">
        <ele>105.40000000000001</ele>
        <time>2025-05-03T12:50:51Z</time>
      </trkpt>
      <trkpt lat="41.046105986461043" lon="-8.393581006675959">
        <ele>107.31999999999999</ele>
        <time>2025-05-03T12:50:52Z</time>
      </trkpt>
      <trkpt lat="41.046060975641012" lon="-8.393818968906999">
        <ele>108.77</ele>
        <time>2025-05-03T12:50:53Z</time>
      </trkpt>
      <trkpt lat="41.045858971774578" lon="-8.394712982699275">
        <ele>115.01000000000001</ele>
        <time>2025-05-03T12:50:57Z</time>
      </trkpt>
      <trkpt lat="41.045795017853379" lon="-8.394924961030483">
        <ele>116.45999999999999</ele>
        <time>2025-05-03T12:50:58Z</time>
      </trkpt>
      <trkpt lat="41.045683035627007" lon="-8.395093018189073">
        <ele>117.90000000000001</ele>
        <time>2025-05-03T12:50:59Z</time>
      </trkpt>
      <trkpt lat="41.045554038137197" lon="-8.395254034548998">
        <ele>118.86</ele>
        <time>2025-05-03T12:51:00Z</time>
      </trkpt>
      <trkpt lat="41.045425962656736" lon="-8.395407004281879">
        <ele>120.3</ele>
        <time>2025-05-03T12:51:01Z</time>
      </trkpt>
      <trkpt lat="41.045263018459082" lon="-8.395501971244812">
        <ele>121.73999999999999</ele>
        <time>2025-05-03T12:51:02Z</time>
      </trkpt>
      <trkpt lat="41.045095967128873" lon="-8.395589981228113">
        <ele>122.70999999999999</ele>
        <time>2025-05-03T12:51:03Z</time>
      </trkpt>
      <trkpt lat="41.044921036809683" lon="-8.395672040060163">
        <ele>123.19</ele>
        <time>2025-05-03T12:51:04Z</time>
      </trkpt>
      <trkpt lat="41.044749962165952" lon="-8.395750997588038">
        <ele>123.67</ele>
        <time>2025-05-03T12:51:05Z</time>
      </trkpt>
      <trkpt lat="41.042215023189783" lon="-8.396739978343248">
        <ele>130.88</ele>
        <time>2025-05-03T12:51:19Z</time>
      </trkpt>
      <trkpt lat="41.041834987699986" lon="-8.396787000820041">
        <ele>131.84</ele>
        <time>2025-05-03T12:51:21Z</time>
      </trkpt>
      <trkpt lat="41.041641030460596" lon="-8.396777026355267">
        <ele>132.31999999999999</ele>
        <time>2025-05-03T12:51:22Z</time>
      </trkpt>
      <trkpt lat="41.04145796969533" lon="-8.396736960858107">
        <ele>132.31999999999999</ele>
        <time>2025-05-03T12:51:23Z</time>
      </trkpt>
      <trkpt lat="41.041275998577476" lon="-8.396675018593669">
        <ele>132.80000000000001</ele>
        <time>2025-05-03T12:51:24Z</time>
      </trkpt>
      <trkpt lat="41.041100984439254" lon="-8.396563958376646">
        <ele>133.28</ele>
        <time>2025-05-03T12:51:25Z</time>
      </trkpt>
      <trkpt lat="41.040923036634922" lon="-8.396451976150274">
        <ele>133.75999999999999</ele>
        <time>2025-05-03T12:51:26Z</time>
      </trkpt>
      <trkpt lat="41.040766965597868" lon="-8.396308980882168">
        <ele>133.75999999999999</ele>
        <time>2025-05-03T12:51:27Z</time>
      </trkpt>
      <trkpt lat="41.040608966723084" lon="-8.396150982007384">
        <ele>134.24000000000001</ele>
        <time>2025-05-03T12:51:28Z</time>
      </trkpt>
      <trkpt lat="41.040476029738784" lon="-8.395972028374672">
        <ele>134.24000000000001</ele>
        <time>2025-05-03T12:51:29Z</time>
      </trkpt>
      <trkpt lat="41.04033999145031" lon="-8.395779998973012">
        <ele>134.72</ele>
        <time>2025-05-03T12:51:30Z</time>
      </trkpt>
      <trkpt lat="41.040204036980867" lon="-8.395588975399733">
        <ele>135.19999999999999</ele>
        <time>2025-05-03T12:51:31Z</time>
      </trkpt>
      <trkpt lat="41.03948000818491" lon="-8.394710971042514">
        <ele>138.09</ele>
        <time>2025-05-03T12:51:36Z</time>
      </trkpt>
      <trkpt lat="41.039312034845352" lon="-8.394588008522987">
        <ele>138.56999999999999</ele>
        <time>2025-05-03T12:51:37Z</time>
      </trkpt>
      <trkpt lat="41.039130985736847" lon="-8.394539980217814">
        <ele>139.53</ele>
        <time>2025-05-03T12:51:38Z</time>
      </trkpt>
      <trkpt lat="41.038948008790612" lon="-8.394510978832841">
        <ele>140.49000000000001</ele>
        <time>2025-05-03T12:51:39Z</time>
      </trkpt>
      <trkpt lat="41.03877299465239" lon="-8.394524976611137">
        <ele>141.44999999999999</ele>
        <time>2025-05-03T12:51:40Z</time>
      </trkpt>
      <trkpt lat="41.038594963029027" lon="-8.39457300491631">
        <ele>142.41</ele>
        <time>2025-05-03T12:51:41Z</time>
      </trkpt>
      <trkpt lat="41.038438975811005" lon="-8.394676018506289">
        <ele>143.37</ele>
        <time>2025-05-03T12:51:42Z</time>
      </trkpt>
      <trkpt lat="41.038281982764602" lon="-8.394805015996099">
        <ele>144.34</ele>
        <time>2025-05-03T12:51:43Z</time>
      </trkpt>
      <trkpt lat="41.038138987496495" lon="-8.394953040406108">
        <ele>145.78</ele>
        <time>2025-05-03T12:51:44Z</time>
      </trkpt>
      <trkpt lat="41.038009990006685" lon="-8.395141968503594">
        <ele>147.69999999999999</ele>
        <time>2025-05-03T12:51:45Z</time>
      </trkpt>
      <trkpt lat="41.037878980860114" lon="-8.395336009562016">
        <ele>149.13999999999999</ele>
        <time>2025-05-03T12:51:46Z</time>
      </trkpt>
      <trkpt lat="41.037101978436112" lon="-8.39641802944243">
        <ele>157.78999999999999</ele>
        <time>2025-05-03T12:51:52Z</time>
      </trkpt>
      <trkpt lat="41.036954959854484" lon="-8.396553983911872">
        <ele>158.75</ele>
        <time>2025-05-03T12:51:53Z</time>
      </trkpt>
      <trkpt lat="41.036798972636461" lon="-8.396648028865457">
        <ele>159.72</ele>
        <time>2025-05-03T12:51:54Z</time>
      </trkpt>
      <trkpt lat="41.036639967933297" lon="-8.396740984171629">
        <ele>160.68000000000001</ele>
        <time>2025-05-03T12:51:55Z</time>
      </trkpt>
      <trkpt lat="41.03647199459374" lon="-8.396822037175298">
        <ele>161.63999999999999</ele>
        <time>2025-05-03T12:51:56Z</time>
      </trkpt>
      <trkpt lat="41.035244967788458" lon="-8.397138034924865">
        <ele>166.44999999999999</ele>
        <time>2025-05-03T12:52:04Z</time>
      </trkpt>
      <trkpt lat="41.035084035247564" lon="-8.397030998021364">
        <ele>166.44999999999999</ele>
        <time>2025-05-03T12:52:06Z</time>
      </trkpt>
      <trkpt lat="41.035052016377449" lon="-8.397009037435055">
        <ele>166.44999999999999</ele>
        <time>2025-05-03T12:52:07Z</time>
      </trkpt>
      <trkpt lat="41.035024020820856" lon="-8.396949023008347">
        <ele>166.93000000000001</ele>
        <time>2025-05-03T12:52:08Z</time>
      </trkpt>
      <trkpt lat="41.034944979473948" lon="-8.396773003041744">
        <ele>166.93000000000001</ele>
        <time>2025-05-03T12:52:09Z</time>
      </trkpt>
      <trkpt lat="41.034942967817187" lon="-8.39676202274859">
        <ele>166.93000000000001</ele>
        <time>2025-05-03T12:52:10Z</time>
      </trkpt>
      <trkpt lat="41.034922013059258" lon="-8.396616009995341">
        <ele>166.93000000000001</ele>
        <time>2025-05-03T12:52:11Z</time>
      </trkpt>
      <trkpt lat="41.03481899946928" lon="-8.395881000906229">
        <ele>168.37</ele>
        <time>2025-05-03T12:52:16Z</time>
      </trkpt>
      <trkpt lat="41.034803995862603" lon="-8.395772958174348">
        <ele>168.84999999999999</ele>
        <time>2025-05-03T12:52:17Z</time>
      </trkpt>
      <trkpt lat="41.034791003912687" lon="-8.395675979554653">
        <ele>169.33000000000001</ele>
        <time>2025-05-03T12:52:18Z</time>
      </trkpt>
      <trkpt lat="41.034779017791152" lon="-8.395592998713255">
        <ele>169.81</ele>
        <time>2025-05-03T12:52:19Z</time>
      </trkpt>
      <trkpt lat="41.034592017531395" lon="-8.395600039511919">
        <ele>170.28999999999999</ele>
        <time>2025-05-03T12:52:20Z</time>
      </trkpt>
      <trkpt lat="41.03453703224659" lon="-8.395614959299564">
        <ele>170.28999999999999</ele>
        <time>2025-05-03T12:52:21Z</time>
      </trkpt>
      <trkpt lat="41.034469977021217" lon="-8.395652007311583">
        <ele>170.28999999999999</ele>
        <time>2025-05-03T12:52:22Z</time>
      </trkpt>
      <trkpt lat="41.0343880020082" lon="-8.395697018131614">
        <ele>170.28999999999999</ele>
        <time>2025-05-03T12:52:23Z</time>
      </trkpt>
      <trkpt lat="41.034311978146434" lon="-8.395768012851477">
        <ele>170.28999999999999</ele>
        <time>2025-05-03T12:52:24Z</time>
      </trkpt>
      <trkpt lat="41.034234026446939" lon="-8.39588200673461">
        <ele>170.77000000000001</ele>
        <time>2025-05-03T12:52:25Z</time>
      </trkpt>
      <trkpt lat="41.03415003977716" lon="-8.396005975082517">
        <ele>171.25</ele>
        <time>2025-05-03T12:52:26Z</time>
      </trkpt>
      <trkpt lat="41.034061023965478" lon="-8.396135978400707">
        <ele>171.25</ele>
        <time>2025-05-03T12:52:27Z</time>
      </trkpt>
      <trkpt lat="41.033973013982177" lon="-8.396285008639097">
        <ele>172.21000000000001</ele>
        <time>2025-05-03T12:52:28Z</time>
      </trkpt>
      <trkpt lat="41.033879974856973" lon="-8.396444013342261">
        <ele>172.21000000000001</ele>
        <time>2025-05-03T12:52:29Z</time>
      </trkpt>
      <trkpt lat="41.033788025379181" lon="-8.396601006388664">
        <ele>172.69</ele>
        <time>2025-05-03T12:52:30Z</time>
      </trkpt>
      <trkpt lat="41.033609993755817" lon="-8.396907029673457">
        <ele>172.69</ele>
        <time>2025-05-03T12:52:32Z</time>
      </trkpt>
      <trkpt lat="41.033504968509078" lon="-8.397037032991648">
        <ele>172.69</ele>
        <time>2025-05-03T12:52:33Z</time>
      </trkpt>
      <trkpt lat="41.033382005989552" lon="-8.397112973034382">
        <ele>172.69</ele>
        <time>2025-05-03T12:52:34Z</time>
      </trkpt>
      <trkpt lat="41.033258959650993" lon="-8.397184973582625">
        <ele>172.69</ele>
        <time>2025-05-03T12:52:35Z</time>
      </trkpt>
      <trkpt lat="41.03312099352479" lon="-8.39721498079598">
        <ele>172.69</ele>
        <time>2025-05-03T12:52:36Z</time>
      </trkpt>
      <trkpt lat="41.032980009913445" lon="-8.39723501354456">
        <ele>172.69</ele>
        <time>2025-05-03T12:52:37Z</time>
      </trkpt>
      <trkpt lat="41.031923973932862" lon="-8.397233001887798">
        <ele>171.25</ele>
        <time>2025-05-03T12:52:44Z</time>
      </trkpt>
      <trkpt lat="41.031792964786291" lon="-8.397183967754245">
        <ele>170.28999999999999</ele>
        <time>2025-05-03T12:52:45Z</time>
      </trkpt>
      <trkpt lat="41.0316819883883" lon="-8.397072991356254">
        <ele>169.33000000000001</ele>
        <time>2025-05-03T12:52:46Z</time>
      </trkpt>
      <trkpt lat="41.031443020328879" lon="-8.396886996924877">
        <ele>167.41</ele>
        <time>2025-05-03T12:52:48Z</time>
      </trkpt>
      <trkpt lat="41.031325003132224" lon="-8.396843997761607">
        <ele>166.44999999999999</ele>
        <time>2025-05-03T12:52:49Z</time>
      </trkpt>
      <trkpt lat="41.031190976500511" lon="-8.396868975833058">
        <ele>165.47999999999999</ele>
        <time>2025-05-03T12:52:50Z</time>
      </trkpt>
      <trkpt lat="41.031066002324224" lon="-8.396923961117864">
        <ele>165</ele>
        <time>2025-05-03T12:52:51Z</time>
      </trkpt>
      <trkpt lat="41.03093096986413" lon="-8.397023035213351">
        <ele>164.03999999999999</ele>
        <time>2025-05-03T12:52:52Z</time>
      </trkpt>
      <trkpt lat="41.030785962939262" lon="-8.397126970812678">
        <ele>163.08000000000001</ele>
        <time>2025-05-03T12:52:53Z</time>
      </trkpt>
      <trkpt lat="41.030640034005046" lon="-8.39721498079598">
        <ele>162.59999999999999</ele>
        <time>2025-05-03T12:52:54Z</time>
      </trkpt>
      <trkpt lat="41.030489997938275" lon="-8.397303996607661">
        <ele>161.63999999999999</ele>
        <time>2025-05-03T12:52:55Z</time>
      </trkpt>
      <trkpt lat="41.030318001285195" lon="-8.39734498411417">
        <ele>160.19999999999999</ele>
        <time>2025-05-03T12:52:56Z</time>
      </trkpt>
      <trkpt lat="41.030148016288877" lon="-8.397381026297808">
        <ele>159.24000000000001</ele>
        <time>2025-05-03T12:52:57Z</time>
      </trkpt>
      <trkpt lat="41.02946899831295" lon="-8.397523015737534">
        <ele>153.47</ele>
        <time>2025-05-03T12:53:01Z</time>
      </trkpt>
      <trkpt lat="41.029320973902941" lon="-8.39747398160398">
        <ele>152.50999999999999</ele>
        <time>2025-05-03T12:53:02Z</time>
      </trkpt>
      <trkpt lat="41.029177978634834" lon="-8.397399969398975">
        <ele>151.06</ele>
        <time>2025-05-03T12:53:03Z</time>
      </trkpt>
      <trkpt lat="41.028420003131032" lon="-8.396952040493488">
        <ele>145.30000000000001</ele>
        <time>2025-05-03T12:53:08Z</time>
      </trkpt>
      <trkpt lat="41.028271978721023" lon="-8.396902000531554">
        <ele>144.81999999999999</ele>
        <time>2025-05-03T12:53:09Z</time>
      </trkpt>
      <trkpt lat="41.028111968189478" lon="-8.396902000531554">
        <ele>143.84999999999999</ele>
        <time>2025-05-03T12:53:10Z</time>
      </trkpt>
      <trkpt lat="41.027960004284978" lon="-8.396967966109514">
        <ele>142.88999999999999</ele>
        <time>2025-05-03T12:53:11Z</time>
      </trkpt>
      <trkpt lat="41.027833018451929" lon="-8.397082965821028">
        <ele>141.93000000000001</ele>
        <time>2025-05-03T12:53:12Z</time>
      </trkpt>
      <trkpt lat="41.027731010690331" lon="-8.397233001887798">
        <ele>141.44999999999999</ele>
        <time>2025-05-03T12:53:13Z</time>
      </trkpt>
      <trkpt lat="41.02766303345561" lon="-8.39740801602602">
        <ele>140.97</ele>
        <time>2025-05-03T12:53:14Z</time>
      </trkpt>
      <trkpt lat="41.027595978230238" lon="-8.397581018507481">
        <ele>140.97</ele>
        <time>2025-05-03T12:53:15Z</time>
      </trkpt>
      <trkpt lat="41.027594972401857" lon="-8.397804982960224">
        <ele>140.97</ele>
        <time>2025-05-03T12:53:16Z</time>
      </trkpt>
      <trkpt lat="41.027617016807199" lon="-8.398020984604955">
        <ele>140.97</ele>
        <time>2025-05-03T12:53:17Z</time>
      </trkpt>
      <trkpt lat="41.027693040668964" lon="-8.398194992914796">
        <ele>140.97</ele>
        <time>2025-05-03T12:53:18Z</time>
      </trkpt>
      <trkpt lat="41.027797982096672" lon="-8.398373024538159">
        <ele>141.44999999999999</ele>
        <time>2025-05-03T12:53:19Z</time>
      </trkpt>
      <trkpt lat="41.027927985414863" lon="-8.398476960137487">
        <ele>142.41</ele>
        <time>2025-05-03T12:53:20Z</time>
      </trkpt>
      <trkpt lat="41.028078021481633" lon="-8.398596988990903">
        <ele>142.88999999999999</ele>
        <time>2025-05-03T12:53:21Z</time>
      </trkpt>
      <trkpt lat="41.028225040063262" lon="-8.39863495901227">
        <ele>143.37</ele>
        <time>2025-05-03T12:53:22Z</time>
      </trkpt>
      <trkpt lat="41.028379015624523" lon="-8.398676030337811">
        <ele>143.84999999999999</ele>
        <time>2025-05-03T12:53:23Z</time>
      </trkpt>
      <trkpt lat="41.028535002842546" lon="-8.398717017844319">
        <ele>144.81999999999999</ele>
        <time>2025-05-03T12:53:24Z</time>
      </trkpt>
      <trkpt lat="41.028677998110652" lon="-8.398817013949156">
        <ele>145.30000000000001</ele>
        <time>2025-05-03T12:53:25Z</time>
      </trkpt>
      <trkpt lat="41.02910497225821" lon="-8.399181040003896">
        <ele>147.22</ele>
        <time>2025-05-03T12:53:28Z</time>
      </trkpt>
      <trkpt lat="41.02923296391964" lon="-8.399347001686692">
        <ele>147.69999999999999</ele>
        <time>2025-05-03T12:53:29Z</time>
      </trkpt>
      <trkpt lat="41.029335977509618" lon="-8.399509023874998">
        <ele>147.69999999999999</ele>
        <time>2025-05-03T12:53:30Z</time>
      </trkpt>
      <trkpt lat="41.029433961957693" lon="-8.399661993607879">
        <ele>148.66</ele>
        <time>2025-05-03T12:53:31Z</time>
      </trkpt>
      <trkpt lat="41.029525995254517" lon="-8.39977003633976">
        <ele>149.13999999999999</ele>
        <time>2025-05-03T12:53:32Z</time>
      </trkpt>
      <trkpt lat="41.029652981087565" lon="-8.399822004139423">
        <ele>149.62</ele>
        <time>2025-05-03T12:53:33Z</time>
      </trkpt>
      <trkpt lat="41.029793964698911" lon="-8.399849999696016">
        <ele>150.09999999999999</ele>
        <time>2025-05-03T12:53:34Z</time>
      </trkpt>
      <trkpt lat="41.029936959967017" lon="-8.39987900108099">
        <ele>150.58000000000001</ele>
        <time>2025-05-03T12:53:35Z</time>
      </trkpt>
      <trkpt lat="41.030080961063504" lon="-8.399913031607866">
        <ele>151.06</ele>
        <time>2025-05-03T12:53:36Z</time>
      </trkpt>
      <trkpt lat="41.030186992138624" lon="-8.400018978863955">
        <ele>151.53999999999999</ele>
        <time>2025-05-03T12:53:37Z</time>
      </trkpt>
      <trkpt lat="41.030310038477182" lon="-8.400144036859274">
        <ele>152.03</ele>
        <time>2025-05-03T12:53:38Z</time>
      </trkpt>
      <trkpt lat="41.030376004055142" lon="-8.400320978835225">
        <ele>152.50999999999999</ele>
        <time>2025-05-03T12:53:39Z</time>
      </trkpt>
      <trkpt lat="41.030449010431767" lon="-8.400515019893646">
        <ele>153.47</ele>
        <time>2025-05-03T12:53:40Z</time>
      </trkpt>
      <trkpt lat="41.030785962939262" lon="-8.401428982615471">
        <ele>158.75</ele>
        <time>2025-05-03T12:53:45Z</time>
      </trkpt>
      <trkpt lat="41.030818987637758" lon="-8.401582036167383">
        <ele>160.19999999999999</ele>
        <time>2025-05-03T12:53:46Z</time>
      </trkpt>
      <trkpt lat="41.030845977365971" lon="-8.401737017557025">
        <ele>161.63999999999999</ele>
        <time>2025-05-03T12:53:47Z</time>
      </trkpt>
      <trkpt lat="41.030903980135918" lon="-8.402345962822437">
        <ele>164.52000000000001</ele>
        <time>2025-05-03T12:53:51Z</time>
      </trkpt>
      <trkpt lat="41.030967012047768" lon="-8.402450988069177">
        <ele>165.47999999999999</ele>
        <time>2025-05-03T12:53:52Z</time>
      </trkpt>
      <trkpt lat="41.031045969575644" lon="-8.402560958638787">
        <ele>165.96000000000001</ele>
        <time>2025-05-03T12:53:53Z</time>
      </trkpt>
      <trkpt lat="41.031140014529228" lon="-8.402652991935611">
        <ele>166.44999999999999</ele>
        <time>2025-05-03T12:53:54Z</time>
      </trkpt>
      <trkpt lat="41.031245039775968" lon="-8.402732033282518">
        <ele>167.41</ele>
        <time>2025-05-03T12:53:55Z</time>
      </trkpt>
      <trkpt lat="41.031355010345578" lon="-8.402833035215735">
        <ele>167.88999999999999</ele>
        <time>2025-05-03T12:53:56Z</time>
      </trkpt>
      <trkpt lat="41.031420975923538" lon="-8.402955997735262">
        <ele>168.37</ele>
        <time>2025-05-03T12:53:57Z</time>
      </trkpt>
      <trkpt lat="41.031485013663769" lon="-8.403076026588678">
        <ele>168.84999999999999</ele>
        <time>2025-05-03T12:53:58Z</time>
      </trkpt>
      <trkpt lat="41.031510997563601" lon="-8.403239976614714">
        <ele>169.33000000000001</ele>
        <time>2025-05-03T12:53:59Z</time>
      </trkpt>
      <trkpt lat="41.031510997563601" lon="-8.403385989367962">
        <ele>169.81</ele>
        <time>2025-05-03T12:54:00Z</time>
      </trkpt>
      <trkpt lat="41.031490964815021" lon="-8.403539964929223">
        <ele>170.77000000000001</ele>
        <time>2025-05-03T12:54:01Z</time>
      </trkpt>
      <trkpt lat="41.031436985358596" lon="-8.403674997389317">
        <ele>172.21000000000001</ele>
        <time>2025-05-03T12:54:02Z</time>
      </trkpt>
      <trkpt lat="41.031383005902171" lon="-8.40380902402103">
        <ele>173.66</ele>
        <time>2025-05-03T12:54:03Z</time>
      </trkpt>
      <trkpt lat="41.031335983425379" lon="-8.403956964612007">
        <ele>174.62</ele>
        <time>2025-05-03T12:54:04Z</time>
      </trkpt>
      <trkpt lat="41.031323997303843" lon="-8.404112029820681">
        <ele>176.06</ele>
        <time>2025-05-03T12:54:05Z</time>
      </trkpt>
      <trkpt lat="41.031342018395662" lon="-8.404275979846716">
        <ele>177.02000000000001</ele>
        <time>2025-05-03T12:54:06Z</time>
      </trkpt>
      <trkpt lat="41.031379988417029" lon="-8.404435990378261">
        <ele>178.46000000000001</ele>
        <time>2025-05-03T12:54:07Z</time>
      </trkpt>
      <trkpt lat="41.031417958438396" lon="-8.404597006738186">
        <ele>179.41999999999999</ele>
        <time>2025-05-03T12:54:08Z</time>
      </trkpt>
      <trkpt lat="41.031456012278795" lon="-8.404753999784589">
        <ele>180.87</ele>
        <time>2025-05-03T12:54:09Z</time>
      </trkpt>
      <trkpt lat="41.031491970643401" lon="-8.404906969517469">
        <ele>181.83000000000001</ele>
        <time>2025-05-03T12:54:10Z</time>
      </trkpt>
      <trkpt lat="41.031528012827039" lon="-8.40505700558424">
        <ele>182.78999999999999</ele>
        <time>2025-05-03T12:54:11Z</time>
      </trkpt>
      <trkpt lat="41.031558020040393" lon="-8.405204024165869">
        <ele>183.75</ele>
        <time>2025-05-03T12:54:12Z</time>
      </trkpt>
      <trkpt lat="41.031608982011676" lon="-8.405350036919117">
        <ele>184.71000000000001</ele>
        <time>2025-05-03T12:54:13Z</time>
      </trkpt>
      <trkpt lat="41.0316819883883" lon="-8.405475011095405">
        <ele>186.15000000000001</ele>
        <time>2025-05-03T12:54:14Z</time>
      </trkpt>
      <trkpt lat="41.031782990321517" lon="-8.405587999150157">
        <ele>186.63</ele>
        <time>2025-05-03T12:54:15Z</time>
      </trkpt>
      <trkpt lat="41.031895978376269" lon="-8.405663017183542">
        <ele>188.08000000000001</ele>
        <time>2025-05-03T12:54:16Z</time>
      </trkpt>
      <trkpt lat="41.032007038593292" lon="-8.405737029388547">
        <ele>189.03999999999999</ele>
        <time>2025-05-03T12:54:17Z</time>
      </trkpt>
      <trkpt lat="41.03211298584938" lon="-8.40580802410841">
        <ele>190</ele>
        <time>2025-05-03T12:54:18Z</time>
      </trkpt>
      <trkpt lat="41.032220022752881" lon="-8.405879018828273">
        <ele>190.96000000000001</ele>
        <time>2025-05-03T12:54:19Z</time>
      </trkpt>
      <trkpt lat="41.03230501525104" lon="-8.405981026589871">
        <ele>191.91999999999999</ele>
        <time>2025-05-03T12:54:20Z</time>
      </trkpt>
      <trkpt lat="41.0323900077492" lon="-8.406097032129765">
        <ele>192.88</ele>
        <time>2025-05-03T12:54:21Z</time>
      </trkpt>
      <trkpt lat="41.032448010519147" lon="-8.406227035447955">
        <ele>193.84</ele>
        <time>2025-05-03T12:54:22Z</time>
      </trkpt>
      <trkpt lat="41.03249997831881" lon="-8.406372964382172">
        <ele>194.80000000000001</ele>
        <time>2025-05-03T12:54:23Z</time>
      </trkpt>
      <trkpt lat="41.032524034380913" lon="-8.406516965478659">
        <ele>195.28</ele>
        <time>2025-05-03T12:54:24Z</time>
      </trkpt>
      <trkpt lat="41.032530991360545" lon="-8.406676976010203">
        <ele>196.25</ele>
        <time>2025-05-03T12:54:25Z</time>
      </trkpt>
      <trkpt lat="41.032538032159209" lon="-8.40684000402689">
        <ele>196.72999999999999</ele>
        <time>2025-05-03T12:54:26Z</time>
      </trkpt>
      <trkpt lat="41.032432001084089" lon="-8.408523006364703">
        <ele>194.31999999999999</ele>
        <time>2025-05-03T12:54:35Z</time>
      </trkpt>
      <trkpt lat="41.032182974740863" lon="-8.410125961527228">
        <ele>187.11000000000001</ele>
        <time>2025-05-03T12:54:45Z</time>
      </trkpt>
      <trkpt lat="41.03198298253119" lon="-8.411853974685073">
        <ele>176.53999999999999</ele>
        <time>2025-05-03T12:54:56Z</time>
      </trkpt>
      <trkpt lat="41.031991029158235" lon="-8.412013985216618">
        <ele>175.58000000000001</ele>
        <time>2025-05-03T12:54:57Z</time>
      </trkpt>
      <trkpt lat="41.032235026359558" lon="-8.413568995893002">
        <ele>165.47999999999999</ele>
        <time>2025-05-03T12:55:07Z</time>
      </trkpt>
      <trkpt lat="41.032352959737182" lon="-8.414985034614801">
        <ele>159.24000000000001</ele>
        <time>2025-05-03T12:55:16Z</time>
      </trkpt>
      <trkpt lat="41.032339967787266" lon="-8.415142027661204">
        <ele>158.27000000000001</ele>
        <time>2025-05-03T12:55:17Z</time>
      </trkpt>
      <trkpt lat="41.032237960025668" lon="-8.415426006540656">
        <ele>157.31</ele>
        <time>2025-05-03T12:55:19Z</time>
      </trkpt>
      <trkpt lat="41.032108962535858" lon="-8.415690958499908">
        <ele>155.87</ele>
        <time>2025-05-03T12:55:21Z</time>
      </trkpt>
      <trkpt lat="41.032044002786279" lon="-8.415823979303241">
        <ele>154.91</ele>
        <time>2025-05-03T12:55:22Z</time>
      </trkpt>
      <trkpt lat="41.031845016404986" lon="-8.416232010349631">
        <ele>152.99000000000001</ele>
        <time>2025-05-03T12:55:25Z</time>
      </trkpt>
      <trkpt lat="41.031762035563588" lon="-8.416350027546287">
        <ele>152.50999999999999</ele>
        <time>2025-05-03T12:55:26Z</time>
      </trkpt>
      <trkpt lat="41.031665978953242" lon="-8.416446000337601">
        <ele>151.53999999999999</ele>
        <time>2025-05-03T12:55:27Z</time>
      </trkpt>
      <trkpt lat="41.031570006161928" lon="-8.416541973128915">
        <ele>151.06</ele>
        <time>2025-05-03T12:55:28Z</time>
      </trkpt>
      <trkpt lat="41.031475039198995" lon="-8.4166360180825">
        <ele>150.58000000000001</ele>
        <time>2025-05-03T12:55:29Z</time>
      </trkpt>
      <trkpt lat="41.030279025435448" lon="-8.417704962193966">
        <ele>141.93000000000001</ele>
        <time>2025-05-03T12:55:41Z</time>
      </trkpt>
      <trkpt lat="41.030209036543965" lon="-8.417833037674427">
        <ele>141.93000000000001</ele>
        <time>2025-05-03T12:55:42Z</time>
      </trkpt>
      <trkpt lat="41.030141981318593" lon="-8.417965974658728">
        <ele>141.44999999999999</ele>
        <time>2025-05-03T12:55:43Z</time>
      </trkpt>
      <trkpt lat="41.030099987983704" lon="-8.418115004897118">
        <ele>140.97</ele>
        <time>2025-05-03T12:55:44Z</time>
      </trkpt>
      <trkpt lat="41.030074004083872" lon="-8.418261017650366">
        <ele>140.49000000000001</ele>
        <time>2025-05-03T12:55:45Z</time>
      </trkpt>
      <trkpt lat="41.030074004083872" lon="-8.418418010696769">
        <ele>140.00999999999999</ele>
        <time>2025-05-03T12:55:46Z</time>
      </trkpt>
      <trkpt lat="41.030074004083872" lon="-8.418595958501101">
        <ele>139.53</ele>
        <time>2025-05-03T12:55:47Z</time>
      </trkpt>
      <trkpt lat="41.030113985762" lon="-8.418726967647672">
        <ele>139.05000000000001</ele>
        <time>2025-05-03T12:55:48Z</time>
      </trkpt>
      <trkpt lat="41.030158996582031" lon="-8.418873986229301">
        <ele>138.56999999999999</ele>
        <time>2025-05-03T12:55:49Z</time>
      </trkpt>
      <trkpt lat="41.030240971595049" lon="-8.418989991769195">
        <ele>138.56999999999999</ele>
        <time>2025-05-03T12:55:50Z</time>
      </trkpt>
      <trkpt lat="41.030323030427098" lon="-8.419105997309089">
        <ele>138.09</ele>
        <time>2025-05-03T12:55:51Z</time>
      </trkpt>
      <trkpt lat="41.030416991561651" lon="-8.419240023940802">
        <ele>137.61000000000001</ele>
        <time>2025-05-03T12:55:52Z</time>
      </trkpt>
      <trkpt lat="41.030510030686855" lon="-8.419289980083704">
        <ele>137.13</ele>
        <time>2025-05-03T12:55:53Z</time>
      </trkpt>
      <trkpt lat="41.030621007084846" lon="-8.419349994510412">
        <ele>136.63999999999999</ele>
        <time>2025-05-03T12:55:54Z</time>
      </trkpt>
      <trkpt lat="41.031257025897503" lon="-8.419790966436267">
        <ele>136.16</ele>
        <time>2025-05-03T12:56:00Z</time>
      </trkpt>
      <trkpt lat="41.031336989253759" lon="-8.419910995289683">
        <ele>136.16</ele>
        <time>2025-05-03T12:56:01Z</time>
      </trkpt>
      <trkpt lat="41.031397003680468" lon="-8.420045021921396">
        <ele>136.16</ele>
        <time>2025-05-03T12:56:02Z</time>
      </trkpt>
      <trkpt lat="41.031450983136892" lon="-8.420188017189503">
        <ele>135.68000000000001</ele>
        <time>2025-05-03T12:56:03Z</time>
      </trkpt>
      <trkpt lat="41.031504962593317" lon="-8.42033302411437">
        <ele>135.68000000000001</ele>
        <time>2025-05-03T12:56:04Z</time>
      </trkpt>
      <trkpt lat="41.032107034698129" lon="-8.422109987586737">
        <ele>129.91999999999999</ele>
        <time>2025-05-03T12:56:16Z</time>
      </trkpt>
      <trkpt lat="41.032722014933825" lon="-8.423657035455108">
        <ele>122.70999999999999</ele>
        <time>2025-05-03T12:56:27Z</time>
      </trkpt>
      <trkpt lat="41.033566994592547" lon="-8.424817007035017">
        <ele>119.34</ele>
        <time>2025-05-03T12:56:37Z</time>
      </trkpt>
      <trkpt lat="41.03372298181057" lon="-8.425047006458044">
        <ele>118.86</ele>
        <time>2025-05-03T12:56:39Z</time>
      </trkpt>
      <trkpt lat="41.033758018165827" lon="-8.425180027261376">
        <ele>118.38</ele>
        <time>2025-05-03T12:56:40Z</time>
      </trkpt>
      <trkpt lat="41.033778972923756" lon="-8.425329979509115">
        <ele>117.42</ele>
        <time>2025-05-03T12:56:41Z</time>
      </trkpt>
      <trkpt lat="41.033801017329097" lon="-8.425482027232647">
        <ele>116.94</ele>
        <time>2025-05-03T12:56:42Z</time>
      </trkpt>
      <trkpt lat="41.033792970702052" lon="-8.425622005015612">
        <ele>116.45999999999999</ele>
        <time>2025-05-03T12:56:43Z</time>
      </trkpt>
      <trkpt lat="41.033767992630601" lon="-8.425780003890395">
        <ele>115.98</ele>
        <time>2025-05-03T12:56:44Z</time>
      </trkpt>
      <trkpt lat="41.033729016780853" lon="-8.425924004986882">
        <ele>115.5</ele>
        <time>2025-05-03T12:56:45Z</time>
      </trkpt>
      <trkpt lat="41.033675959333777" lon="-8.426050990819931">
        <ele>115.01000000000001</ele>
        <time>2025-05-03T12:56:46Z</time>
      </trkpt>
      <trkpt lat="41.033591972663999" lon="-8.426159033551812">
        <ele>114.53</ele>
        <time>2025-05-03T12:56:47Z</time>
      </trkpt>
      <trkpt lat="41.033503962680697" lon="-8.426244026049972">
        <ele>114.05</ele>
        <time>2025-05-03T12:56:48Z</time>
      </trkpt>
      <trkpt lat="41.033394997939467" lon="-8.426317032426596">
        <ele>113.09</ele>
        <time>2025-05-03T12:56:49Z</time>
      </trkpt>
      <trkpt lat="41.033284021541476" lon="-8.426361037418246">
        <ele>112.61</ele>
        <time>2025-05-03T12:56:50Z</time>
      </trkpt>
      <trkpt lat="41.033159969374537" lon="-8.42639397829771">
        <ele>112.13</ele>
        <time>2025-05-03T12:56:51Z</time>
      </trkpt>
      <trkpt lat="41.033040024340153" lon="-8.426427002996206">
        <ele>111.17</ele>
        <time>2025-05-03T12:56:52Z</time>
      </trkpt>
      <trkpt lat="41.031876029446721" lon="-8.426643004640937">
        <ele>104.92</ele>
        <time>2025-05-03T12:57:02Z</time>
      </trkpt>
      <trkpt lat="41.031716018915176" lon="-8.426583996042609">
        <ele>103.95999999999999</ele>
        <time>2025-05-03T12:57:03Z</time>
      </trkpt>
      <trkpt lat="41.031599007546902" lon="-8.42654200270772">
        <ele>103</ele>
        <time>2025-05-03T12:57:04Z</time>
      </trkpt>
      <trkpt lat="41.031237998977304" lon="-8.426459021866322">
        <ele>101.08</ele>
        <time>2025-05-03T12:57:07Z</time>
      </trkpt>
      <trkpt lat="41.031120987609029" lon="-8.426450975239277">
        <ele>100.11</ele>
        <time>2025-05-03T12:57:08Z</time>
      </trkpt>
      <trkpt lat="41.031025014817715" lon="-8.426519958302379">
        <ele>99.150000000000006</ele>
        <time>2025-05-03T12:57:09Z</time>
      </trkpt>
      <trkpt lat="41.030927030369639" lon="-8.42660897411406">
        <ele>98.189999999999998</ele>
        <time>2025-05-03T12:57:10Z</time>
      </trkpt>
      <trkpt lat="41.030853018164635" lon="-8.42671500518918">
        <ele>96.75</ele>
        <time>2025-05-03T12:57:11Z</time>
      </trkpt>
      <trkpt lat="41.030795015394688" lon="-8.426840985193849">
        <ele>95.790000000000006</ele>
        <time>2025-05-03T12:57:12Z</time>
      </trkpt>
      <trkpt lat="41.030751010403037" lon="-8.426988003775477">
        <ele>94.829999999999998</ele>
        <time>2025-05-03T12:57:13Z</time>
      </trkpt>
      <trkpt lat="41.030704993754625" lon="-8.427138039842248">
        <ele>93.390000000000001</ele>
        <time>2025-05-03T12:57:14Z</time>
      </trkpt>
      <trkpt lat="41.030329987406731" lon="-8.428308991715312">
        <ele>85.209999999999994</ele>
        <time>2025-05-03T12:57:22Z</time>
      </trkpt>
      <trkpt lat="41.030267039313912" lon="-8.428445030003786">
        <ele>84.25</ele>
        <time>2025-05-03T12:57:23Z</time>
      </trkpt>
      <trkpt lat="41.030165031552315" lon="-8.428565980866551">
        <ele>83.290000000000006</ele>
        <time>2025-05-03T12:57:24Z</time>
      </trkpt>
      <trkpt lat="41.030068974941969" lon="-8.428678968921304">
        <ele>82.329999999999998</ele>
        <time>2025-05-03T12:57:25Z</time>
      </trkpt>
      <trkpt lat="41.029951041564345" lon="-8.42877603136003">
        <ele>81.370000000000005</ele>
        <time>2025-05-03T12:57:26Z</time>
      </trkpt>
      <trkpt lat="41.029824977740645" lon="-8.428858006373048">
        <ele>79.930000000000007</ele>
        <time>2025-05-03T12:57:27Z</time>
      </trkpt>
      <trkpt lat="41.029436979442835" lon="-8.429136034101248">
        <ele>76.079999999999998</ele>
        <time>2025-05-03T12:57:30Z</time>
      </trkpt>
      <trkpt lat="41.029328014701605" lon="-8.429277017712593">
        <ele>75.120000000000005</ele>
        <time>2025-05-03T12:57:31Z</time>
      </trkpt>
      <trkpt lat="41.029225001111627" lon="-8.429434010758996">
        <ele>73.680000000000007</ele>
        <time>2025-05-03T12:57:32Z</time>
      </trkpt>
      <trkpt lat="41.029142020270228" lon="-8.429599972441793">
        <ele>72.719999999999999</ele>
        <time>2025-05-03T12:57:33Z</time>
      </trkpt>
      <trkpt lat="41.029090974479914" lon="-8.429779009893537">
        <ele>71.760000000000005</ele>
        <time>2025-05-03T12:57:34Z</time>
      </trkpt>
      <trkpt lat="41.029075970873237" lon="-8.429962992668152">
        <ele>70.790000000000006</ele>
        <time>2025-05-03T12:57:35Z</time>
      </trkpt>
      <trkpt lat="41.02910103276372" lon="-8.43015099875629">
        <ele>70.310000000000002</ele>
        <time>2025-05-03T12:57:36Z</time>
      </trkpt>
      <trkpt lat="41.029148977249861" lon="-8.43034696765244">
        <ele>69.829999999999998</ele>
        <time>2025-05-03T12:57:37Z</time>
      </trkpt>
      <trkpt lat="41.029203040525317" lon="-8.430542014539242">
        <ele>69.349999999999994</ele>
        <time>2025-05-03T12:57:38Z</time>
      </trkpt>
      <trkpt lat="41.029305970296264" lon="-8.431102009490132">
        <ele>66.950000000000003</ele>
        <time>2025-05-03T12:57:41Z</time>
      </trkpt>
      <trkpt lat="41.029275041073561" lon="-8.431261014193296">
        <ele>66.469999999999999</ele>
        <time>2025-05-03T12:57:42Z</time>
      </trkpt>
      <trkpt lat="41.029227012768388" lon="-8.431372996419668">
        <ele>65.510000000000005</ele>
        <time>2025-05-03T12:57:43Z</time>
      </trkpt>
      <trkpt lat="41.029131961986423" lon="-8.431455977261066">
        <ele>64.549999999999997</ele>
        <time>2025-05-03T12:57:44Z</time>
      </trkpt>
      <trkpt lat="41.029006987810135" lon="-8.431502999737859">
        <ele>64.069999999999993</ele>
        <time>2025-05-03T12:57:45Z</time>
      </trkpt>
      <trkpt lat="41.02888897061348" lon="-8.431475004181266">
        <ele>62.619999999999997</ele>
        <time>2025-05-03T12:57:46Z</time>
      </trkpt>
      <trkpt lat="41.028757961466908" lon="-8.43141901306808">
        <ele>61.18</ele>
        <time>2025-05-03T12:57:47Z</time>
      </trkpt>
      <trkpt lat="41.028633993119001" lon="-8.431339971721172">
        <ele>60.219999999999999</ele>
        <time>2025-05-03T12:57:48Z</time>
      </trkpt>
      <trkpt lat="41.02850197814405" lon="-8.431233018636704">
        <ele>59.259999999999998</ele>
        <time>2025-05-03T12:57:49Z</time>
      </trkpt>
      <trkpt lat="41.028238032013178" lon="-8.431025985628367">
        <ele>57.82</ele>
        <time>2025-05-03T12:57:51Z</time>
      </trkpt>
      <trkpt lat="41.027957992628217" lon="-8.430806966498494">
        <ele>55.890000000000001</ele>
        <time>2025-05-03T12:57:53Z</time>
      </trkpt>
      <trkpt lat="41.027793036773801" lon="-8.430756004527211">
        <ele>54.450000000000003</ele>
        <time>2025-05-03T12:57:54Z</time>
      </trkpt>
      <trkpt lat="41.02658998221159" lon="-8.430497003719211">
        <ele>46.759999999999998</ele>
        <time>2025-05-03T12:58:02Z</time>
      </trkpt>
      <trkpt lat="41.026468025520444" lon="-8.43043296597898">
        <ele>45.799999999999997</ele>
        <time>2025-05-03T12:58:03Z</time>
      </trkpt>
      <trkpt lat="41.026346990838647" lon="-8.430340010672808">
        <ele>44.840000000000003</ele>
        <time>2025-05-03T12:58:04Z</time>
      </trkpt>
      <trkpt lat="41.026232996955514" lon="-8.430244959890842">
        <ele>43.880000000000003</ele>
        <time>2025-05-03T12:58:05Z</time>
      </trkpt>
      <trkpt lat="41.026123026385903" lon="-8.430125014856458">
        <ele>42.920000000000002</ele>
        <time>2025-05-03T12:58:06Z</time>
      </trkpt>
      <trkpt lat="41.025639977306128" lon="-8.429672978818417">
        <ele>39.07</ele>
        <time>2025-05-03T12:58:10Z</time>
      </trkpt>
      <trkpt lat="41.025503017008305" lon="-8.429668033495545">
        <ele>38.109999999999999</ele>
        <time>2025-05-03T12:58:11Z</time>
      </trkpt>
      <trkpt lat="41.025363961234689" lon="-8.429730981588364">
        <ele>37.630000000000003</ele>
        <time>2025-05-03T12:58:12Z</time>
      </trkpt>
      <trkpt lat="41.025232030078769" lon="-8.429790996015072">
        <ele>36.670000000000002</ele>
        <time>2025-05-03T12:58:13Z</time>
      </trkpt>
      <trkpt lat="41.025099009275436" lon="-8.429852016270161">
        <ele>36.189999999999998</ele>
        <time>2025-05-03T12:58:14Z</time>
      </trkpt>
      <trkpt lat="41.024547982960939" lon="-8.430091990157962">
        <ele>35.710000000000001</ele>
        <time>2025-05-03T12:58:18Z</time>
      </trkpt>
      <trkpt lat="41.024409011006355" lon="-8.430115040391684">
        <ele>35.710000000000001</ele>
        <time>2025-05-03T12:58:19Z</time>
      </trkpt>
      <trkpt lat="41.023487001657486" lon="-8.430201038718224">
        <ele>35.710000000000001</ele>
        <time>2025-05-03T12:58:26Z</time>
      </trkpt>
      <trkpt lat="41.023119036108255" lon="-8.430294999852777">
        <ele>36.670000000000002</ele>
        <time>2025-05-03T12:58:29Z</time>
      </trkpt>
      <trkpt lat="41.023010993376374" lon="-8.430359037593007">
        <ele>37.149999999999999</ele>
        <time>2025-05-03T12:58:30Z</time>
      </trkpt>
      <trkpt lat="41.022933963686228" lon="-8.430455010384321">
        <ele>37.630000000000003</ele>
        <time>2025-05-03T12:58:31Z</time>
      </trkpt>
      <trkpt lat="41.022854000329971" lon="-8.430555006489158">
        <ele>37.630000000000003</ele>
        <time>2025-05-03T12:58:32Z</time>
      </trkpt>
      <trkpt lat="41.022773031145334" lon="-8.430655002593994">
        <ele>38.109999999999999</ele>
        <time>2025-05-03T12:58:33Z</time>
      </trkpt>
      <trkpt lat="41.022687032818794" lon="-8.430760027840734">
        <ele>38.590000000000003</ele>
        <time>2025-05-03T12:58:34Z</time>
      </trkpt>
      <trkpt lat="41.022596005350351" lon="-8.430843008682132">
        <ele>39.07</ele>
        <time>2025-05-03T12:58:35Z</time>
      </trkpt>
      <trkpt lat="41.02248502895236" lon="-8.430920960381627">
        <ele>39.549999999999997</ele>
        <time>2025-05-03T12:58:36Z</time>
      </trkpt>
      <trkpt lat="41.022237008437514" lon="-8.431064039468765">
        <ele>40.990000000000002</ele>
        <time>2025-05-03T12:58:38Z</time>
      </trkpt>
      <trkpt lat="41.022098958492279" lon="-8.431113995611668">
        <ele>41.469999999999999</ele>
        <time>2025-05-03T12:58:39Z</time>
      </trkpt>
      <trkpt lat="41.021975995972753" lon="-8.431158000603318">
        <ele>42.439999999999998</ele>
        <time>2025-05-03T12:58:40Z</time>
      </trkpt>
      <trkpt lat="41.021845992654562" lon="-8.431151965633035">
        <ele>43.399999999999999</ele>
        <time>2025-05-03T12:58:41Z</time>
      </trkpt>
      <trkpt lat="41.021721018478274" lon="-8.431128999218345">
        <ele>43.880000000000003</ele>
        <time>2025-05-03T12:58:42Z</time>
      </trkpt>
      <trkpt lat="41.021594032645226" lon="-8.431105026975274">
        <ele>44.840000000000003</ele>
        <time>2025-05-03T12:58:43Z</time>
      </trkpt>
      <trkpt lat="41.021468974649906" lon="-8.431081976741552">
        <ele>45.32</ele>
        <time>2025-05-03T12:58:44Z</time>
      </trkpt>
      <trkpt lat="41.021353974938393" lon="-8.431060016155243">
        <ele>45.799999999999997</ele>
        <time>2025-05-03T12:58:45Z</time>
      </trkpt>
      <trkpt lat="41.021248027682304" lon="-8.431045012548566">
        <ele>46.280000000000001</ele>
        <time>2025-05-03T12:58:46Z</time>
      </trkpt>
      <trkpt lat="41.021144008263946" lon="-8.431104021146894">
        <ele>46.759999999999998</ele>
        <time>2025-05-03T12:58:47Z</time>
      </trkpt>
      <trkpt lat="41.021035965532064" lon="-8.431165041401982">
        <ele>47.240000000000002</ele>
        <time>2025-05-03T12:58:48Z</time>
      </trkpt>
      <trkpt lat="41.020925994962454" lon="-8.43122698366642">
        <ele>47.719999999999999</ele>
        <time>2025-05-03T12:58:49Z</time>
      </trkpt>
      <trkpt lat="41.020815018564463" lon="-8.43129001557827">
        <ele>48.68</ele>
        <time>2025-05-03T12:58:50Z</time>
      </trkpt>
      <trkpt lat="41.020706975832582" lon="-8.431315999478102">
        <ele>49.649999999999999</ele>
        <time>2025-05-03T12:58:51Z</time>
      </trkpt>
      <trkpt lat="41.020593987777829" lon="-8.431306025013328">
        <ele>50.609999999999999</ele>
        <time>2025-05-03T12:58:52Z</time>
      </trkpt>
      <trkpt lat="41.020478988066316" lon="-8.431276017799974">
        <ele>51.57</ele>
        <time>2025-05-03T12:58:53Z</time>
      </trkpt>
      <trkpt lat="41.020383015275002" lon="-8.431189013645053">
        <ele>52.530000000000001</ele>
        <time>2025-05-03T12:58:54Z</time>
      </trkpt>
      <trkpt lat="41.020284024998546" lon="-8.43109798617661">
        <ele>53.490000000000002</ele>
        <time>2025-05-03T12:58:55Z</time>
      </trkpt>
      <trkpt lat="41.020182017236948" lon="-8.431015005335212">
        <ele>54.93</ele>
        <time>2025-05-03T12:58:56Z</time>
      </trkpt>
      <trkpt lat="41.020070035010576" lon="-8.430987009778619">
        <ele>55.890000000000001</ele>
        <time>2025-05-03T12:58:57Z</time>
      </trkpt>
      <trkpt lat="41.01995101198554" lon="-8.430972006171942">
        <ele>56.369999999999997</ele>
        <time>2025-05-03T12:58:58Z</time>
      </trkpt>
      <trkpt lat="41.019816985353827" lon="-8.430955996736884">
        <ele>57.340000000000003</ele>
        <time>2025-05-03T12:58:59Z</time>
      </trkpt>
      <trkpt lat="41.019716989248991" lon="-8.431008970364928">
        <ele>57.82</ele>
        <time>2025-05-03T12:59:00Z</time>
      </trkpt>
      <trkpt lat="41.019601989537477" lon="-8.431070996448398">
        <ele>58.780000000000001</ele>
        <time>2025-05-03T12:59:01Z</time>
      </trkpt>
      <trkpt lat="41.019491013139486" lon="-8.431146014481783">
        <ele>59.259999999999998</ele>
        <time>2025-05-03T12:59:02Z</time>
      </trkpt>
      <trkpt lat="41.019381964579225" lon="-8.431243998929858">
        <ele>60.219999999999999</ele>
        <time>2025-05-03T12:59:03Z</time>
      </trkpt>
      <trkpt lat="41.019308036193252" lon="-8.431366961449385">
        <ele>61.18</ele>
        <time>2025-05-03T12:59:04Z</time>
      </trkpt>
      <trkpt lat="41.019233018159866" lon="-8.431492019444704">
        <ele>61.659999999999997</ele>
        <time>2025-05-03T12:59:05Z</time>
      </trkpt>
      <trkpt lat="41.019162023440003" lon="-8.431647000834346">
        <ele>62.140000000000001</ele>
        <time>2025-05-03T12:59:06Z</time>
      </trkpt>
      <trkpt lat="41.018613008782268" lon="-8.433143002912402">
        <ele>66.950000000000003</ele>
        <time>2025-05-03T12:59:14Z</time>
      </trkpt>
      <trkpt lat="41.018374962732196" lon="-8.433710038661957">
        <ele>69.829999999999998</ele>
        <time>2025-05-03T12:59:17Z</time>
      </trkpt>
      <trkpt lat="41.018274966627359" lon="-8.433851022273302">
        <ele>70.790000000000006</ele>
        <time>2025-05-03T12:59:18Z</time>
      </trkpt>
      <trkpt lat="41.018148986622691" lon="-8.433980019763112">
        <ele>72.239999999999995</ele>
        <time>2025-05-03T12:59:19Z</time>
      </trkpt>
      <trkpt lat="41.017410960048437" lon="-8.434783006086946">
        <ele>78.480000000000004</ele>
        <time>2025-05-03T12:59:25Z</time>
      </trkpt>
      <trkpt lat="41.017318004742265" lon="-8.434924995526671">
        <ele>79.450000000000003</ele>
        <time>2025-05-03T12:59:26Z</time>
      </trkpt>
      <trkpt lat="41.017220020294189" lon="-8.435075031593442">
        <ele>80.409999999999997</ele>
        <time>2025-05-03T12:59:27Z</time>
      </trkpt>
      <trkpt lat="41.017129998654127" lon="-8.435364039614797">
        <ele>82.329999999999998</ele>
        <time>2025-05-03T12:59:29Z</time>
      </trkpt>
      <trkpt lat="41.017095968127251" lon="-8.435527989640832">
        <ele>82.810000000000002</ele>
        <time>2025-05-03T12:59:30Z</time>
      </trkpt>
      <trkpt lat="41.016990020871162" lon="-8.436198038980365">
        <ele>86.659999999999997</ele>
        <time>2025-05-03T12:59:34Z</time>
      </trkpt>
      <trkpt lat="41.016944004222751" lon="-8.436344973742962">
        <ele>88.099999999999994</ele>
        <time>2025-05-03T12:59:35Z</time>
      </trkpt>
      <trkpt lat="41.016881978139281" lon="-8.43648998066783">
        <ele>89.060000000000002</ele>
        <time>2025-05-03T12:59:36Z</time>
      </trkpt>
      <trkpt lat="41.016787011176348" lon="-8.436600035056472">
        <ele>90.5</ele>
        <time>2025-05-03T12:59:37Z</time>
      </trkpt>
      <trkpt lat="41.016671005636454" lon="-8.436691984534264">
        <ele>91.459999999999994</ele>
        <time>2025-05-03T12:59:38Z</time>
      </trkpt>
      <trkpt lat="41.016550976783037" lon="-8.436777982860804">
        <ele>92.420000000000002</ele>
        <time>2025-05-03T12:59:39Z</time>
      </trkpt>
      <trkpt lat="41.016328018158674" lon="-8.436972023919225">
        <ele>93.870000000000005</ele>
        <time>2025-05-03T12:59:41Z</time>
      </trkpt>
      <trkpt lat="41.01623397320509" lon="-8.437093980610371">
        <ele>94.829999999999998</ele>
        <time>2025-05-03T12:59:42Z</time>
      </trkpt>
      <trkpt lat="41.016149986535311" lon="-8.43721903860569">
        <ele>95.790000000000006</ele>
        <time>2025-05-03T12:59:43Z</time>
      </trkpt>
      <trkpt lat="41.01608301512897" lon="-8.437363961711526">
        <ele>96.75</ele>
        <time>2025-05-03T12:59:44Z</time>
      </trkpt>
      <trkpt lat="41.016026018187404" lon="-8.437507040798664">
        <ele>97.709999999999994</ele>
        <time>2025-05-03T12:59:45Z</time>
      </trkpt>
      <trkpt lat="41.015982013195753" lon="-8.437662022188306">
        <ele>99.150000000000006</ele>
        <time>2025-05-03T12:59:46Z</time>
      </trkpt>
      <trkpt lat="41.015956029295921" lon="-8.437823038548231">
        <ele>100.11</ele>
        <time>2025-05-03T12:59:47Z</time>
      </trkpt>
      <trkpt lat="41.015959968790412" lon="-8.437992017716169">
        <ele>101.08</ele>
        <time>2025-05-03T12:59:48Z</time>
      </trkpt>
      <trkpt lat="41.015963992103934" lon="-8.43816502019763">
        <ele>102.04000000000001</ele>
        <time>2025-05-03T12:59:49Z</time>
      </trkpt>
      <trkpt lat="41.016034986823797" lon="-8.439903007820249">
        <ele>109.73</ele>
        <time>2025-05-03T12:59:58Z</time>
      </trkpt>
      <trkpt lat="41.016092989593744" lon="-8.441179990768433">
        <ele>115.01000000000001</ele>
        <time>2025-05-03T13:00:06Z</time>
      </trkpt>
      <trkpt lat="41.016208995133638" lon="-8.442622013390064">
        <ele>122.22</ele>
        <time>2025-05-03T13:00:15Z</time>
      </trkpt>
      <trkpt lat="41.016610991209745" lon="-8.444142993539572">
        <ele>131.84</ele>
        <time>2025-05-03T13:00:25Z</time>
      </trkpt>
      <trkpt lat="41.017205016687512" lon="-8.44607200473547">
        <ele>139.05000000000001</ele>
        <time>2025-05-03T13:00:38Z</time>
      </trkpt>
      <trkpt lat="41.017928039655089" lon="-8.448459003120661">
        <ele>149.13999999999999</ele>
        <time>2025-05-03T13:00:54Z</time>
      </trkpt>
      <trkpt lat="41.01799501106143" lon="-8.448764020577073">
        <ele>150.58000000000001</ele>
        <time>2025-05-03T13:00:56Z</time>
      </trkpt>
      <trkpt lat="41.018024012446404" lon="-8.448916990309954">
        <ele>151.53999999999999</ele>
        <time>2025-05-03T13:00:57Z</time>
      </trkpt>
      <trkpt lat="41.018028035759926" lon="-8.449078006669879">
        <ele>152.50999999999999</ele>
        <time>2025-05-03T13:00:58Z</time>
      </trkpt>
      <trkpt lat="41.018015965819359" lon="-8.449237011373043">
        <ele>153.47</ele>
        <time>2025-05-03T13:00:59Z</time>
      </trkpt>
      <trkpt lat="41.017985958606005" lon="-8.449388975277543">
        <ele>154.43000000000001</ele>
        <time>2025-05-03T13:01:00Z</time>
      </trkpt>
      <trkpt lat="41.01795201189816" lon="-8.449542028829455">
        <ele>155.38999999999999</ele>
        <time>2025-05-03T13:01:01Z</time>
      </trkpt>
      <trkpt lat="41.01790901273489" lon="-8.449687035754323">
        <ele>156.34999999999999</ele>
        <time>2025-05-03T13:01:02Z</time>
      </trkpt>
      <trkpt lat="41.017847992479801" lon="-8.449819972738624">
        <ele>156.83000000000001</ele>
        <time>2025-05-03T13:01:03Z</time>
      </trkpt>
      <trkpt lat="41.017779009416699" lon="-8.449946036562324">
        <ele>157.78999999999999</ele>
        <time>2025-05-03T13:01:04Z</time>
      </trkpt>
      <trkpt lat="41.017686976119876" lon="-8.450045026838779">
        <ele>158.27000000000001</ele>
        <time>2025-05-03T13:01:05Z</time>
      </trkpt>
      <trkpt lat="41.017595026642084" lon="-8.450145022943616">
        <ele>159.72</ele>
        <time>2025-05-03T13:01:06Z</time>
      </trkpt>
      <trkpt lat="41.017521014437079" lon="-8.450223980471492">
        <ele>160.68000000000001</ele>
        <time>2025-05-03T13:01:07Z</time>
      </trkpt>
      <trkpt lat="41.017399979755282" lon="-8.450274020433426">
        <ele>161.63999999999999</ele>
        <time>2025-05-03T13:01:08Z</time>
      </trkpt>
      <trkpt lat="41.017282968387008" lon="-8.450320959091187">
        <ele>162.12</ele>
        <time>2025-05-03T13:01:09Z</time>
      </trkpt>
      <trkpt lat="41.017163023352623" lon="-8.45036999322474">
        <ele>163.08000000000001</ele>
        <time>2025-05-03T13:01:10Z</time>
      </trkpt>
      <trkpt lat="41.01704902946949" lon="-8.450417015701532">
        <ele>163.56</ele>
        <time>2025-05-03T13:01:11Z</time>
      </trkpt>
      <trkpt lat="41.016222992911935" lon="-8.450635029003024">
        <ele>169.33000000000001</ele>
        <time>2025-05-03T13:01:18Z</time>
      </trkpt>
      <trkpt lat="41.014890018850565" lon="-8.450653972104192">
        <ele>177.02000000000001</ele>
        <time>2025-05-03T13:01:29Z</time>
      </trkpt>
      <trkpt lat="41.013446990400553" lon="-8.450708035379648">
        <ele>185.19</ele>
        <time>2025-05-03T13:01:41Z</time>
      </trkpt>
      <trkpt lat="41.013340037316084" lon="-8.450748017057777">
        <ele>185.66999999999999</ele>
        <time>2025-05-03T13:01:42Z</time>
      </trkpt>
      <trkpt lat="41.013236017897725" lon="-8.450827980414033">
        <ele>186.63</ele>
        <time>2025-05-03T13:01:43Z</time>
      </trkpt>
      <trkpt lat="41.012812983244658" lon="-8.451163005083799">
        <ele>189.03999999999999</ele>
        <time>2025-05-03T13:01:47Z</time>
      </trkpt>
      <trkpt lat="41.012744000181556" lon="-8.451289990916848">
        <ele>189.52000000000001</ele>
        <time>2025-05-03T13:01:48Z</time>
      </trkpt>
      <trkpt lat="41.012681974098086" lon="-8.451425023376942">
        <ele>189.52000000000001</ele>
        <time>2025-05-03T13:01:49Z</time>
      </trkpt>
      <trkpt lat="41.012642998248339" lon="-8.4515739697963">
        <ele>190</ele>
        <time>2025-05-03T13:01:50Z</time>
      </trkpt>
      <trkpt lat="41.012604022398591" lon="-8.45172300003469">
        <ele>190</ele>
        <time>2025-05-03T13:01:51Z</time>
      </trkpt>
      <trkpt lat="41.01240998134017" lon="-8.452289029955864">
        <ele>191.44</ele>
        <time>2025-05-03T13:01:55Z</time>
      </trkpt>
      <trkpt lat="41.012325994670391" lon="-8.452397994697094">
        <ele>191.91999999999999</ele>
        <time>2025-05-03T13:01:56Z</time>
      </trkpt>
      <trkpt lat="41.012241002172232" lon="-8.452508971095085">
        <ele>192.40000000000001</ele>
        <time>2025-05-03T13:01:57Z</time>
      </trkpt>
      <trkpt lat="41.012143017724156" lon="-8.45260301604867">
        <ele>192.88</ele>
        <time>2025-05-03T13:01:58Z</time>
      </trkpt>
      <trkpt lat="41.012034974992275" lon="-8.452677028253675">
        <ele>193.36000000000001</ele>
        <time>2025-05-03T13:01:59Z</time>
      </trkpt>
      <trkpt lat="41.011926010251045" lon="-8.452752968296409">
        <ele>193.84</ele>
        <time>2025-05-03T13:02:00Z</time>
      </trkpt>
      <trkpt lat="41.011816961690784" lon="-8.452829997986555">
        <ele>194.31999999999999</ele>
        <time>2025-05-03T13:02:01Z</time>
      </trkpt>
      <trkpt lat="41.011710008606315" lon="-8.45290401019156">
        <ele>194.80000000000001</ele>
        <time>2025-05-03T13:02:02Z</time>
      </trkpt>
      <trkpt lat="41.011640019714832" lon="-8.453024961054325">
        <ele>195.28</ele>
        <time>2025-05-03T13:02:03Z</time>
      </trkpt>
      <trkpt lat="41.011581011116505" lon="-8.453153036534786">
        <ele>195.77000000000001</ele>
        <time>2025-05-03T13:02:04Z</time>
      </trkpt>
      <trkpt lat="41.011531976982951" lon="-8.453298965469003">
        <ele>196.25</ele>
        <time>2025-05-03T13:02:05Z</time>
      </trkpt>
      <trkpt lat="41.011490989476442" lon="-8.45344296656549">
        <ele>196.72999999999999</ele>
        <time>2025-05-03T13:02:06Z</time>
      </trkpt>
      <trkpt lat="41.011490989476442" lon="-8.45361496321857">
        <ele>196.72999999999999</ele>
        <time>2025-05-03T13:02:07Z</time>
      </trkpt>
      <trkpt lat="41.011510016396642" lon="-8.453757036477327">
        <ele>197.21000000000001</ele>
        <time>2025-05-03T13:02:08Z</time>
      </trkpt>
      <trkpt lat="41.01152996532619" lon="-8.453917969018221">
        <ele>197.69</ele>
        <time>2025-05-03T13:02:09Z</time>
      </trkpt>
      <trkpt lat="41.011715037748218" lon="-8.455003006383777">
        <ele>201.05000000000001</ele>
        <time>2025-05-03T13:02:16Z</time>
      </trkpt>
      <trkpt lat="41.011770023033023" lon="-8.455144995823503">
        <ele>201.53</ele>
        <time>2025-05-03T13:02:17Z</time>
      </trkpt>
      <trkpt lat="41.011839006096125" lon="-8.455281034111977">
        <ele>202.00999999999999</ele>
        <time>2025-05-03T13:02:18Z</time>
      </trkpt>
      <trkpt lat="41.011985018849373" lon="-8.4555250313133">
        <ele>202.49000000000001</ele>
        <time>2025-05-03T13:02:20Z</time>
      </trkpt>
      <trkpt lat="41.012026006355882" lon="-8.455687975510955">
        <ele>202.49000000000001</ele>
        <time>2025-05-03T13:02:21Z</time>
      </trkpt>
      <trkpt lat="41.012062970548868" lon="-8.455835999920964">
        <ele>202.97999999999999</ele>
        <time>2025-05-03T13:02:22Z</time>
      </trkpt>
      <trkpt lat="41.012071017175913" lon="-8.455981006845832">
        <ele>203.46000000000001</ele>
        <time>2025-05-03T13:02:23Z</time>
      </trkpt>
      <trkpt lat="41.012071017175913" lon="-8.456137999892235">
        <ele>203.94</ele>
        <time>2025-05-03T13:02:24Z</time>
      </trkpt>
      <trkpt lat="41.01204302161932" lon="-8.456285018473864">
        <ele>204.41999999999999</ele>
        <time>2025-05-03T13:02:25Z</time>
      </trkpt>
      <trkpt lat="41.012011002749205" lon="-8.456443017348647">
        <ele>204.90000000000001</ele>
        <time>2025-05-03T13:02:26Z</time>
      </trkpt>
      <trkpt lat="41.011977978050709" lon="-8.456601016223431">
        <ele>205.38</ele>
        <time>2025-05-03T13:02:27Z</time>
      </trkpt>
      <trkpt lat="41.011731969192624" lon="-8.457507016137242">
        <ele>206.34</ele>
        <time>2025-05-03T13:02:33Z</time>
      </trkpt>
      <trkpt lat="41.011690981686115" lon="-8.457657974213362">
        <ele>206.34</ele>
        <time>2025-05-03T13:02:34Z</time>
      </trkpt>
      <trkpt lat="41.011286973953247" lon="-8.459150036796928">
        <ele>207.78</ele>
        <time>2025-05-03T13:02:44Z</time>
      </trkpt>
      <trkpt lat="41.010702000930905" lon="-8.461072007194161">
        <ele>216.43000000000001</ele>
        <time>2025-05-03T13:02:57Z</time>
      </trkpt>
      <trkpt lat="41.010631006211042" lon="-8.461195975542069">
        <ele>217.40000000000001</ele>
        <time>2025-05-03T13:02:58Z</time>
      </trkpt>
      <trkpt lat="41.010503014549613" lon="-8.461420023813844">
        <ele>219.80000000000001</ele>
        <time>2025-05-03T13:03:00Z</time>
      </trkpt>
      <trkpt lat="41.010504020377994" lon="-8.461619010195136">
        <ele>220.75999999999999</ele>
        <time>2025-05-03T13:03:01Z</time>
      </trkpt>
      <trkpt lat="41.010504020377994" lon="-8.461684975773096">
        <ele>222.19999999999999</ele>
        <time>2025-05-03T13:03:03Z</time>
      </trkpt>
      <trkpt lat="41.010418022051454" lon="-8.46184004098177">
        <ele>223.16</ele>
        <time>2025-05-03T13:03:04Z</time>
      </trkpt>
      <trkpt lat="41.010353984311223" lon="-8.461891002953053">
        <ele>223.63999999999999</ele>
        <time>2025-05-03T13:03:05Z</time>
      </trkpt>
      <trkpt lat="41.010291958227754" lon="-8.461938025429845">
        <ele>224.61000000000001</ele>
        <time>2025-05-03T13:03:06Z</time>
      </trkpt>
      <trkpt lat="41.010230015963316" lon="-8.461940037086606">
        <ele>225.09</ele>
        <time>2025-05-03T13:03:07Z</time>
      </trkpt>
      <trkpt lat="41.010181987658143" lon="-8.461940037086606">
        <ele>225.09</ele>
        <time>2025-05-03T13:03:08Z</time>
      </trkpt>
      <trkpt lat="41.010137982666492" lon="-8.461896032094955">
        <ele>225.56999999999999</ele>
        <time>2025-05-03T13:03:09Z</time>
      </trkpt>
      <trkpt lat="41.010096995159984" lon="-8.461854960769415">
        <ele>225.56999999999999</ele>
        <time>2025-05-03T13:03:10Z</time>
      </trkpt>
      <trkpt lat="41.010096995159984" lon="-8.461854960769415">
        <ele>226.05000000000001</ele>
        <time>2025-05-03T13:03:11Z</time>
      </trkpt>
      <trkpt lat="41.009946037083864" lon="-8.461682964116335">
        <ele>226.53</ele>
        <time>2025-05-03T13:03:12Z</time>
      </trkpt>
      <trkpt lat="41.009856015443802" lon="-8.461681036278606">
        <ele>227.00999999999999</ele>
        <time>2025-05-03T13:03:13Z</time>
      </trkpt>
      <trkpt lat="41.009416971355677" lon="-8.461652034893632">
        <ele>227.49000000000001</ele>
        <time>2025-05-03T13:03:17Z</time>
      </trkpt>
      <trkpt lat="41.009303983300924" lon="-8.461640970781446">
        <ele>227.00999999999999</ele>
        <time>2025-05-03T13:03:18Z</time>
      </trkpt>
      <trkpt lat="41.008987985551357" lon="-8.461661003530026">
        <ele>226.05000000000001</ele>
        <time>2025-05-03T13:03:21Z</time>
      </trkpt>
      <trkpt lat="41.008899975568056" lon="-8.461716994643211">
        <ele>226.05000000000001</ele>
        <time>2025-05-03T13:03:22Z</time>
      </trkpt>
      <trkpt lat="41.008809031918645" lon="-8.461780026555061">
        <ele>226.53</ele>
        <time>2025-05-03T13:03:23Z</time>
      </trkpt>
      <trkpt lat="41.008701995015144" lon="-8.461854960769415">
        <ele>227.00999999999999</ele>
        <time>2025-05-03T13:03:24Z</time>
      </trkpt>
      <trkpt lat="41.008637035265565" lon="-8.461942970752716">
        <ele>227.49000000000001</ele>
        <time>2025-05-03T13:03:25Z</time>
      </trkpt>
      <trkpt lat="41.008566040545702" lon="-8.462041961029172">
        <ele>227.97</ele>
        <time>2025-05-03T13:03:26Z</time>
      </trkpt>
      <trkpt lat="41.008507031947374" lon="-8.462153021246195">
        <ele>228.44999999999999</ele>
        <time>2025-05-03T13:03:27Z</time>
      </trkpt>
      <trkpt lat="41.008419021964073" lon="-8.462384026497603">
        <ele>229.41</ele>
        <time>2025-05-03T13:03:29Z</time>
      </trkpt>
      <trkpt lat="41.008145017549396" lon="-8.463126998394728">
        <ele>230.37</ele>
        <time>2025-05-03T13:03:36Z</time>
      </trkpt>
      <trkpt lat="41.008114004507661" lon="-8.463211990892887">
        <ele>230.37</ele>
        <time>2025-05-03T13:03:37Z</time>
      </trkpt>
      <trkpt lat="41.008081985637546" lon="-8.463274016976357">
        <ele>229.88999999999999</ele>
        <time>2025-05-03T13:03:38Z</time>
      </trkpt>
      <trkpt lat="41.008031023666263" lon="-8.463338976725936">
        <ele>229.88999999999999</ele>
        <time>2025-05-03T13:03:39Z</time>
      </trkpt>
      <trkpt lat="41.007950976490974" lon="-8.463441990315914">
        <ele>229.41</ele>
        <time>2025-05-03T13:03:40Z</time>
      </trkpt>
      <trkpt lat="41.007921975106001" lon="-8.463459005579352">
        <ele>229.41</ele>
        <time>2025-05-03T13:03:41Z</time>
      </trkpt>
      <trkpt lat="41.007837988436222" lon="-8.463507033884525">
        <ele>229.88999999999999</ele>
        <time>2025-05-03T13:03:42Z</time>
      </trkpt>
      <trkpt lat="41.007047994062304" lon="-8.463791012763977">
        <ele>230.37</ele>
        <time>2025-05-03T13:03:50Z</time>
      </trkpt>
      <trkpt lat="41.006955038756132" lon="-8.463850021362305">
        <ele>230.37</ele>
        <time>2025-05-03T13:03:51Z</time>
      </trkpt>
      <trkpt lat="41.006870968267322" lon="-8.463946999981999">
        <ele>230.37</ele>
        <time>2025-05-03T13:03:52Z</time>
      </trkpt>
      <trkpt lat="41.0068029910326" lon="-8.464048001915216">
        <ele>230.37</ele>
        <time>2025-05-03T13:03:53Z</time>
      </trkpt>
      <trkpt lat="41.006754962727427" lon="-8.464169958606362">
        <ele>230.37</ele>
        <time>2025-05-03T13:03:54Z</time>
      </trkpt>
      <trkpt lat="41.006713975220919" lon="-8.464288981631398">
        <ele>229.88999999999999</ele>
        <time>2025-05-03T13:03:55Z</time>
      </trkpt>
      <trkpt lat="41.006671981886029" lon="-8.464405992999673">
        <ele>229.41</ele>
        <time>2025-05-03T13:03:56Z</time>
      </trkpt>
      <trkpt lat="41.006636023521423" lon="-8.46452702768147">
        <ele>229.41</ele>
        <time>2025-05-03T13:03:57Z</time>
      </trkpt>
      <trkpt lat="41.006323965266347" lon="-8.465910041704774">
        <ele>228.44999999999999</ele>
        <time>2025-05-03T13:04:10Z</time>
      </trkpt>
      <trkpt lat="41.006270991638303" lon="-8.466099975630641">
        <ele>228.93000000000001</ele>
        <time>2025-05-03T13:04:12Z</time>
      </trkpt>
      <trkpt lat="41.006240984424949" lon="-8.466191003099084">
        <ele>228.93000000000001</ele>
        <time>2025-05-03T13:04:13Z</time>
      </trkpt>
      <trkpt lat="41.006217012181878" lon="-8.46628999337554">
        <ele>228.93000000000001</ele>
        <time>2025-05-03T13:04:15Z</time>
      </trkpt>
      <trkpt lat="41.006119027733803" lon="-8.466651001945138">
        <ele>229.88999999999999</ele>
        <time>2025-05-03T13:04:20Z</time>
      </trkpt>
      <trkpt lat="41.006083991378546" lon="-8.466639015823603">
        <ele>229.88999999999999</ele>
        <time>2025-05-03T13:04:21Z</time>
      </trkpt>
      <trkpt lat="41.006040992215276" lon="-8.466625018045306">
        <ele>229.88999999999999</ele>
        <time>2025-05-03T13:04:22Z</time>
      </trkpt>
      <trkpt lat="41.005784003064036" lon="-8.466537008062005">
        <ele>229.88999999999999</ele>
        <time>2025-05-03T13:04:27Z</time>
      </trkpt>
      <trkpt lat="41.005735974758863" lon="-8.466520998626947">
        <ele>229.88999999999999</ele>
        <time>2025-05-03T13:04:28Z</time>
      </trkpt>
      <trkpt lat="41.005687024444342" lon="-8.466503983363509">
        <ele>229.41</ele>
        <time>2025-05-03T13:04:29Z</time>
      </trkpt>
      <trkpt lat="41.005638996139169" lon="-8.466487973928452">
        <ele>229.41</ele>
        <time>2025-05-03T13:04:30Z</time>
      </trkpt>
      <trkpt lat="41.005595996975899" lon="-8.466472970321775">
        <ele>228.93000000000001</ele>
        <time>2025-05-03T13:04:31Z</time>
      </trkpt>
      <trkpt lat="41.005552997812629" lon="-8.466457966715097">
        <ele>228.93000000000001</ele>
        <time>2025-05-03T13:04:32Z</time>
      </trkpt>
      <trkpt lat="41.005511004477739" lon="-8.466443968936801">
        <ele>228.44999999999999</ele>
        <time>2025-05-03T13:04:33Z</time>
      </trkpt>
      <trkpt lat="41.005476973950863" lon="-8.466432988643646">
        <ele>228.44999999999999</ele>
        <time>2025-05-03T13:04:34Z</time>
      </trkpt>
      <trkpt lat="41.005453001707792" lon="-8.466425025835633">
        <ele>227.97</ele>
        <time>2025-05-03T13:04:35Z</time>
      </trkpt>
      <trkpt lat="41.005433974787593" lon="-8.466417985036969">
        <ele>227.97</ele>
        <time>2025-05-03T13:04:36Z</time>
      </trkpt>
      <trkpt lat="41.005415031686425" lon="-8.466412033885717">
        <ele>227.97</ele>
        <time>2025-05-03T13:04:37Z</time>
      </trkpt>
      <trkpt lat="41.005396004766226" lon="-8.466404993087053">
        <ele>227.49000000000001</ele>
        <time>2025-05-03T13:04:38Z</time>
      </trkpt>
      <trkpt lat="41.005376977846026" lon="-8.46639895811677">
        <ele>227.49000000000001</ele>
        <time>2025-05-03T13:04:39Z</time>
      </trkpt>
      <trkpt lat="41.005360968410969" lon="-8.466393006965518">
        <ele>227.00999999999999</ele>
        <time>2025-05-03T13:04:40Z</time>
      </trkpt>
      <trkpt lat="41.005360968410969" lon="-8.466393006965518">
        <ele>226.53</ele>
        <time>2025-05-03T13:04:56Z</time>
      </trkpt>
      <trkpt lat="41.005360968410969" lon="-8.466393006965518">
        <ele>226.53</ele>
        <time>2025-05-03T13:05:41Z</time>
      </trkpt>
      <trkpt lat="41.005344958975911" lon="-8.46644002944231">
        <ele>229.88999999999999</ele>
        <time>2025-05-03T13:08:50Z</time>
      </trkpt>
      <trkpt lat="41.005110014230013" lon="-8.46650599502027">
        <ele>236.13999999999999</ele>
        <time>2025-05-03T13:09:11Z</time>
      </trkpt>
      <trkpt lat="41.005072966217995" lon="-8.466496020555496">
        <ele>251.52000000000001</ele>
        <time>2025-05-03T13:09:49Z</time>
      </trkpt>
      <trkpt lat="41.005098028108478" lon="-8.466500965878367">
        <ele>252.47999999999999</ele>
        <time>2025-05-03T13:10:24Z</time>
      </trkpt>
      <trkpt lat="41.005105990916491" lon="-8.466494008898735">
        <ele>252.47999999999999</ele>
        <time>2025-05-03T13:10:57Z</time>
      </trkpt>
      <trkpt lat="41.005105990916491" lon="-8.466494008898735">
        <ele>252.47999999999999</ele>
        <time>2025-05-03T13:11:00Z</time>
      </trkpt>
      <trkpt lat="41.005140021443367" lon="-8.466317988932133">
        <ele>250.56</ele>
        <time>2025-05-03T13:11:04Z</time>
      </trkpt>
      <trkpt lat="41.005140021443367" lon="-8.466317988932133">
        <ele>246.72</ele>
        <time>2025-05-03T13:11:10Z</time>
      </trkpt>
      <trkpt lat="41.005140021443367" lon="-8.466317988932133">
        <ele>245.27000000000001</ele>
        <time>2025-05-03T13:11:11Z</time>
      </trkpt>
      <trkpt lat="41.005140021443367" lon="-8.466317988932133">
        <ele>244.78999999999999</ele>
        <time>2025-05-03T13:11:12Z</time>
      </trkpt>
      <trkpt lat="41.005140021443367" lon="-8.466317988932133">
        <ele>243.83000000000001</ele>
        <time>2025-05-03T13:11:13Z</time>
      </trkpt>
      <trkpt lat="41.005143960937858" lon="-8.466318994760513">
        <ele>243.34999999999999</ele>
        <time>2025-05-03T13:11:14Z</time>
      </trkpt>
      <trkpt lat="41.005143960937858" lon="-8.466318994760513">
        <ele>241.91</ele>
        <time>2025-05-03T13:11:30Z</time>
      </trkpt>
      <trkpt lat="41.005212021991611" lon="-8.466341961175203">
        <ele>239.50999999999999</ele>
        <time>2025-05-03T13:12:13Z</time>
      </trkpt>
      <trkpt lat="41.005258038640022" lon="-8.466357970610261">
        <ele>238.53999999999999</ele>
        <time>2025-05-03T13:12:14Z</time>
      </trkpt>
      <trkpt lat="41.005674032494426" lon="-8.466499038040638">
        <ele>234.22</ele>
        <time>2025-05-03T13:12:23Z</time>
      </trkpt>
      <trkpt lat="41.005687024444342" lon="-8.466503983363509">
        <ele>234.22</ele>
        <time>2025-05-03T13:12:24Z</time>
      </trkpt>
      <trkpt lat="41.005700016394258" lon="-8.466509012505412">
        <ele>233.74000000000001</ele>
        <time>2025-05-03T13:12:25Z</time>
      </trkpt>
      <trkpt lat="41.005763970315456" lon="-8.466114979237318">
        <ele>229.88999999999999</ele>
        <time>2025-05-03T13:12:33Z</time>
      </trkpt>
      <trkpt lat="41.005782997235656" lon="-8.466034010052681">
        <ele>227.97</ele>
        <time>2025-05-03T13:12:42Z</time>
      </trkpt>
      <trkpt lat="41.00585600361228" lon="-8.465889003127813">
        <ele>227.00999999999999</ele>
        <time>2025-05-03T13:12:46Z</time>
      </trkpt>
      <trkpt lat="41.005902020260692" lon="-8.465910041704774">
        <ele>226.53</ele>
        <time>2025-05-03T13:12:47Z</time>
      </trkpt>
      <trkpt lat="41.005966980010271" lon="-8.465939965099096">
        <ele>226.53</ele>
        <time>2025-05-03T13:12:48Z</time>
      </trkpt>
      <trkpt lat="41.006250036880374" lon="-8.466068962588906">
        <ele>227.00999999999999</ele>
        <time>2025-05-03T13:12:55Z</time>
      </trkpt>
      <trkpt lat="41.006296975538135" lon="-8.466010959818959">
        <ele>227.00999999999999</ele>
        <time>2025-05-03T13:12:56Z</time>
      </trkpt>
      <trkpt lat="41.006311979144812" lon="-8.465961003676057">
        <ele>227.00999999999999</ele>
        <time>2025-05-03T13:12:57Z</time>
      </trkpt>
      <trkpt lat="41.006327988579869" lon="-8.465889003127813">
        <ele>226.53</ele>
        <time>2025-05-03T13:12:58Z</time>
      </trkpt>
      <trkpt lat="41.006342992186546" lon="-8.465804010629654">
        <ele>226.05000000000001</ele>
        <time>2025-05-03T13:12:59Z</time>
      </trkpt>
      <trkpt lat="41.006359001621604" lon="-8.465714994817972">
        <ele>226.05000000000001</ele>
        <time>2025-05-03T13:13:00Z</time>
      </trkpt>
      <trkpt lat="41.006381968036294" lon="-8.465623967349529">
        <ele>225.56999999999999</ele>
        <time>2025-05-03T13:13:01Z</time>
      </trkpt>
      <trkpt lat="41.006623031571507" lon="-8.464604979380965">
        <ele>224.12</ele>
        <time>2025-05-03T13:13:10Z</time>
      </trkpt>
      <trkpt lat="41.00673702545464" lon="-8.464222010225058">
        <ele>223.63999999999999</ele>
        <time>2025-05-03T13:13:14Z</time>
      </trkpt>
      <trkpt lat="41.006827969104052" lon="-8.46401103772223">
        <ele>224.12</ele>
        <time>2025-05-03T13:13:16Z</time>
      </trkpt>
      <trkpt lat="41.006898041814566" lon="-8.46390500664711">
        <ele>224.61000000000001</ele>
        <time>2025-05-03T13:13:17Z</time>
      </trkpt>
      <trkpt lat="41.006986973807216" lon="-8.463829988613725">
        <ele>224.61000000000001</ele>
        <time>2025-05-03T13:13:18Z</time>
      </trkpt>
      <trkpt lat="41.007086969912052" lon="-8.463766034692526">
        <ele>225.09</ele>
        <time>2025-05-03T13:13:19Z</time>
      </trkpt>
      <trkpt lat="41.00718998350203" lon="-8.463711971417069">
        <ele>225.09</ele>
        <time>2025-05-03T13:13:20Z</time>
      </trkpt>
      <trkpt lat="41.007299032062292" lon="-8.463679030537605">
        <ele>225.09</ele>
        <time>2025-05-03T13:13:21Z</time>
      </trkpt>
      <trkpt lat="41.007401961833239" lon="-8.463648017495871">
        <ele>225.56999999999999</ele>
        <time>2025-05-03T13:13:22Z</time>
      </trkpt>
      <trkpt lat="41.007493995130062" lon="-8.463620021939278">
        <ele>225.56999999999999</ele>
        <time>2025-05-03T13:13:23Z</time>
      </trkpt>
      <trkpt lat="41.007836982607841" lon="-8.463508039712906">
        <ele>226.05000000000001</ele>
        <time>2025-05-03T13:13:27Z</time>
      </trkpt>
      <trkpt lat="41.00791803561151" lon="-8.463461017236114">
        <ele>226.05000000000001</ele>
        <time>2025-05-03T13:13:28Z</time>
      </trkpt>
      <trkpt lat="41.007990958169103" lon="-8.463390022516251">
        <ele>225.56999999999999</ele>
        <time>2025-05-03T13:13:29Z</time>
      </trkpt>
      <trkpt lat="41.008058013394475" lon="-8.463304024189711">
        <ele>226.05000000000001</ele>
        <time>2025-05-03T13:13:30Z</time>
      </trkpt>
      <trkpt lat="41.00811299867928" lon="-8.46321702003479">
        <ele>226.53</ele>
        <time>2025-05-03T13:13:31Z</time>
      </trkpt>
      <trkpt lat="41.008150968700647" lon="-8.463107971474528">
        <ele>227.00999999999999</ele>
        <time>2025-05-03T13:13:32Z</time>
      </trkpt>
      <trkpt lat="41.008189022541046" lon="-8.46300202421844">
        <ele>227.49000000000001</ele>
        <time>2025-05-03T13:13:33Z</time>
      </trkpt>
      <trkpt lat="41.008229004219174" lon="-8.462890964001417">
        <ele>227.49000000000001</ele>
        <time>2025-05-03T13:13:34Z</time>
      </trkpt>
      <trkpt lat="41.008591018617153" lon="-8.462007008492947">
        <ele>227.00999999999999</ele>
        <time>2025-05-03T13:13:42Z</time>
      </trkpt>
      <trkpt lat="41.008657990023494" lon="-8.461914975196123">
        <ele>227.00999999999999</ele>
        <time>2025-05-03T13:13:43Z</time>
      </trkpt>
      <trkpt lat="41.008724039420485" lon="-8.461839035153389">
        <ele>226.53</ele>
        <time>2025-05-03T13:13:44Z</time>
      </trkpt>
      <trkpt lat="41.008806014433503" lon="-8.461782960221171">
        <ele>226.53</ele>
        <time>2025-05-03T13:13:45Z</time>
      </trkpt>
      <trkpt lat="41.008887989446521" lon="-8.461725041270256">
        <ele>226.05000000000001</ele>
        <time>2025-05-03T13:13:46Z</time>
      </trkpt>
      <trkpt lat="41.0089719761163" lon="-8.461667960509658">
        <ele>226.05000000000001</ele>
        <time>2025-05-03T13:13:47Z</time>
      </trkpt>
      <trkpt lat="41.009059986099601" lon="-8.461656980216503">
        <ele>226.05000000000001</ele>
        <time>2025-05-03T13:13:48Z</time>
      </trkpt>
      <trkpt lat="41.009158976376057" lon="-8.461650023236871">
        <ele>226.05000000000001</ele>
        <time>2025-05-03T13:13:49Z</time>
      </trkpt>
      <trkpt lat="41.009257966652513" lon="-8.461643988266587">
        <ele>226.05000000000001</ele>
        <time>2025-05-03T13:13:50Z</time>
      </trkpt>
      <trkpt lat="41.009353017434478" lon="-8.461643988266587">
        <ele>225.56999999999999</ele>
        <time>2025-05-03T13:13:51Z</time>
      </trkpt>
      <trkpt lat="41.009881999343634" lon="-8.461682964116335">
        <ele>223.63999999999999</ele>
        <time>2025-05-03T13:13:57Z</time>
      </trkpt>
      <trkpt lat="41.009953999891877" lon="-8.461682964116335">
        <ele>223.63999999999999</ele>
        <time>2025-05-03T13:13:58Z</time>
      </trkpt>
      <trkpt lat="41.010397989302874" lon="-8.461538041010499">
        <ele>222.19999999999999</ele>
        <time>2025-05-03T13:14:03Z</time>
      </trkpt>
      <trkpt lat="41.010473007336259" lon="-8.461576011031866">
        <ele>221.72</ele>
        <time>2025-05-03T13:14:04Z</time>
      </trkpt>
      <trkpt lat="41.010504020377994" lon="-8.461651029065251">
        <ele>221.72</ele>
        <time>2025-05-03T13:14:05Z</time>
      </trkpt>
      <trkpt lat="41.010504020377994" lon="-8.461736021563411">
        <ele>221.24000000000001</ele>
        <time>2025-05-03T13:14:06Z</time>
      </trkpt>
      <trkpt lat="41.010482981801033" lon="-8.461790001019836">
        <ele>221.24000000000001</ele>
        <time>2025-05-03T13:14:07Z</time>
      </trkpt>
      <trkpt lat="41.01041198708117" lon="-8.461845992133021">
        <ele>221.72</ele>
        <time>2025-05-03T13:14:08Z</time>
      </trkpt>
      <trkpt lat="41.010340992361307" lon="-8.461899971589446">
        <ele>221.72</ele>
        <time>2025-05-03T13:14:09Z</time>
      </trkpt>
      <trkpt lat="41.010290030390024" lon="-8.461940037086606">
        <ele>221.72</ele>
        <time>2025-05-03T13:14:10Z</time>
      </trkpt>
      <trkpt lat="41.010150974616408" lon="-8.462113039568067">
        <ele>221.72</ele>
        <time>2025-05-03T13:14:11Z</time>
      </trkpt>
      <trkpt lat="41.010125996544957" lon="-8.462242037057877">
        <ele>221.72</ele>
        <time>2025-05-03T13:14:12Z</time>
      </trkpt>
      <trkpt lat="41.010098000988364" lon="-8.46238000318408">
        <ele>221.72</ele>
        <time>2025-05-03T13:14:13Z</time>
      </trkpt>
      <trkpt lat="41.010070005431771" lon="-8.462516963481903">
        <ele>221.24000000000001</ele>
        <time>2025-05-03T13:14:14Z</time>
      </trkpt>
      <trkpt lat="41.010043015703559" lon="-8.462651995941997">
        <ele>220.75999999999999</ele>
        <time>2025-05-03T13:14:15Z</time>
      </trkpt>
      <trkpt lat="41.009865989908576" lon="-8.463602000847459">
        <ele>216.43000000000001</ele>
        <time>2025-05-03T13:14:23Z</time>
      </trkpt>
      <trkpt lat="41.00998199544847" lon="-8.463902994990349">
        <ele>215.47</ele>
        <time>2025-05-03T13:14:25Z</time>
      </trkpt>
      <trkpt lat="41.009967997670174" lon="-8.463999973610044">
        <ele>215.47</ele>
        <time>2025-05-03T13:14:26Z</time>
      </trkpt>
      <trkpt lat="41.009897002950311" lon="-8.464375985786319">
        <ele>214.03</ele>
        <time>2025-05-03T13:14:28Z</time>
      </trkpt>
      <trkpt lat="41.009921981021762" lon="-8.464557034894824">
        <ele>213.55000000000001</ele>
        <time>2025-05-03T13:14:29Z</time>
      </trkpt>
      <trkpt lat="41.009974032640457" lon="-8.464732971042395">
        <ele>212.59</ele>
        <time>2025-05-03T13:14:30Z</time>
      </trkpt>
      <trkpt lat="41.010033963248134" lon="-8.464920977130532">
        <ele>211.63</ele>
        <time>2025-05-03T13:14:31Z</time>
      </trkpt>
      <trkpt lat="41.010096995159984" lon="-8.465116024017334">
        <ele>210.66999999999999</ele>
        <time>2025-05-03T13:14:32Z</time>
      </trkpt>
      <trkpt lat="41.01017402485013" lon="-8.465295983478427">
        <ele>209.22</ele>
        <time>2025-05-03T13:14:33Z</time>
      </trkpt>
      <trkpt lat="41.010263962671161" lon="-8.465478038415313">
        <ele>208.25999999999999</ele>
        <time>2025-05-03T13:14:34Z</time>
      </trkpt>
      <trkpt lat="41.010370999574661" lon="-8.465647017583251">
        <ele>207.30000000000001</ele>
        <time>2025-05-03T13:14:35Z</time>
      </trkpt>
      <trkpt lat="41.010482981801033" lon="-8.465823959559202">
        <ele>206.34</ele>
        <time>2025-05-03T13:14:36Z</time>
      </trkpt>
      <trkpt lat="41.010609967634082" lon="-8.465972989797592">
        <ele>204.90000000000001</ele>
        <time>2025-05-03T13:14:37Z</time>
      </trkpt>
      <trkpt lat="41.012062970548868" lon="-8.467649035155773">
        <ele>192.88</ele>
        <time>2025-05-03T13:14:47Z</time>
      </trkpt>
      <trkpt lat="41.013609012588859" lon="-8.469803016632795">
        <ele>182.78999999999999</ele>
        <time>2025-05-03T13:14:58Z</time>
      </trkpt>
      <trkpt lat="41.014113016426563" lon="-8.471590038388968">
        <ele>186.15000000000001</ele>
        <time>2025-05-03T13:15:06Z</time>
      </trkpt>
      <trkpt lat="41.014164984226227" lon="-8.471756000071764">
        <ele>187.11000000000001</ele>
        <time>2025-05-03T13:15:07Z</time>
      </trkpt>
      <trkpt lat="41.014215024188161" lon="-8.471892960369587">
        <ele>188.08000000000001</ele>
        <time>2025-05-03T13:15:08Z</time>
      </trkpt>
      <trkpt lat="41.014416022226214" lon="-8.472017012536526">
        <ele>189.52000000000001</ele>
        <time>2025-05-03T13:15:10Z</time>
      </trkpt>
      <trkpt lat="41.014441000297666" lon="-8.472180040553212">
        <ele>190</ele>
        <time>2025-05-03T13:15:11Z</time>
      </trkpt>
      <trkpt lat="41.014431025832891" lon="-8.472280958667398">
        <ele>190.47999999999999</ele>
        <time>2025-05-03T13:15:12Z</time>
      </trkpt>
      <trkpt lat="41.014350978657603" lon="-8.472536019980907">
        <ele>190.96000000000001</ele>
        <time>2025-05-03T13:15:14Z</time>
      </trkpt>
      <trkpt lat="41.014382997527719" lon="-8.472654037177563">
        <ele>191.44</ele>
        <time>2025-05-03T13:15:15Z</time>
      </trkpt>
      <trkpt lat="41.014415016397834" lon="-8.472770964726806">
        <ele>191.91999999999999</ele>
        <time>2025-05-03T13:15:16Z</time>
      </trkpt>
      <trkpt lat="41.014441000297666" lon="-8.472868027165532">
        <ele>192.40000000000001</ele>
        <time>2025-05-03T13:15:17Z</time>
      </trkpt>
      <trkpt lat="41.014462960883975" lon="-8.47295000217855">
        <ele>192.40000000000001</ele>
        <time>2025-05-03T13:15:18Z</time>
      </trkpt>
      <trkpt lat="41.014482993632555" lon="-8.473028037697077">
        <ele>192.88</ele>
        <time>2025-05-03T13:15:19Z</time>
      </trkpt>
      <trkpt lat="41.014524986967444" lon="-8.473193999379873">
        <ele>193.36000000000001</ele>
        <time>2025-05-03T13:15:21Z</time>
      </trkpt>
      <trkpt lat="41.014563962817192" lon="-8.473353004083037">
        <ele>193.36000000000001</ele>
        <time>2025-05-03T13:15:23Z</time>
      </trkpt>
      <trkpt lat="41.014705030247569" lon="-8.473903024569154">
        <ele>194.80000000000001</ele>
        <time>2025-05-03T13:15:32Z</time>
      </trkpt>
      <trkpt lat="41.014711987227201" lon="-8.473929008468986">
        <ele>194.80000000000001</ele>
        <time>2025-05-03T13:15:34Z</time>
      </trkpt>
      <trkpt lat="41.014711987227201" lon="-8.473929008468986">
        <ele>195.28</ele>
        <time>2025-05-03T13:15:50Z</time>
      </trkpt>
      <trkpt lat="41.014722967520356" lon="-8.473972007632256">
        <ele>195.28</ele>
        <time>2025-05-03T13:16:18Z</time>
      </trkpt>
      <trkpt lat="41.01479597389698" lon="-8.474241988733411">
        <ele>196.72999999999999</ele>
        <time>2025-05-03T13:16:21Z</time>
      </trkpt>
      <trkpt lat="41.015057992190123" lon="-8.475258965045214">
        <ele>197.21000000000001</ele>
        <time>2025-05-03T13:16:30Z</time>
      </trkpt>
      <trkpt lat="41.015095040202141" lon="-8.475370025262237">
        <ele>197.21000000000001</ele>
        <time>2025-05-03T13:16:31Z</time>
      </trkpt>
      <trkpt lat="41.015446996316314" lon="-8.476481968536973">
        <ele>196.72999999999999</ele>
        <time>2025-05-03T13:16:38Z</time>
      </trkpt>
      <trkpt lat="41.015859972685575" lon="-8.477279003709555">
        <ele>193.36000000000001</ele>
        <time>2025-05-03T13:16:42Z</time>
      </trkpt>
      <trkpt lat="41.015991987660527" lon="-8.477458963170648">
        <ele>191.91999999999999</ele>
        <time>2025-05-03T13:16:43Z</time>
      </trkpt>
      <trkpt lat="41.016122996807098" lon="-8.477622997015715">
        <ele>190.96000000000001</ele>
        <time>2025-05-03T13:16:44Z</time>
      </trkpt>
      <trkpt lat="41.016413010656834" lon="-8.477874035015702">
        <ele>188.56</ele>
        <time>2025-05-03T13:16:46Z</time>
      </trkpt>
      <trkpt lat="41.016880972310901" lon="-8.47814803943038">
        <ele>185.19</ele>
        <time>2025-05-03T13:16:49Z</time>
      </trkpt>
      <trkpt lat="41.018325006589293" lon="-8.478659000247717">
        <ele>180.38</ele>
        <time>2025-05-03T13:16:57Z</time>
      </trkpt>
      <trkpt lat="41.019825031980872" lon="-8.478779029101133">
        <ele>175.09999999999999</ele>
        <time>2025-05-03T13:17:04Z</time>
      </trkpt>
      <trkpt lat="41.02108902297914" lon="-8.478585993871093">
        <ele>171.25</ele>
        <time>2025-05-03T13:17:10Z</time>
      </trkpt>
      <trkpt lat="41.023099003359675" lon="-8.478263961151242">
        <ele>165.47999999999999</ele>
        <time>2025-05-03T13:17:19Z</time>
      </trkpt>
      <trkpt lat="41.024733977392316" lon="-8.47847199998796">
        <ele>161.63999999999999</ele>
        <time>2025-05-03T13:17:26Z</time>
      </trkpt>
      <trkpt lat="41.026369035243988" lon="-8.479300970211625">
        <ele>157.31</ele>
        <time>2025-05-03T13:17:33Z</time>
      </trkpt>
      <trkpt lat="41.027733022347093" lon="-8.480624975636601">
        <ele>152.03</ele>
        <time>2025-05-03T13:17:40Z</time>
      </trkpt>
      <trkpt lat="41.02895300835371" lon="-8.482836959883571">
        <ele>144.34</ele>
        <time>2025-05-03T13:17:48Z</time>
      </trkpt>
      <trkpt lat="41.02966102771461" lon="-8.485378017649055">
        <ele>133.75999999999999</ele>
        <time>2025-05-03T13:17:56Z</time>
      </trkpt>
      <trkpt lat="41.030610026791692" lon="-8.488327022641897">
        <ele>118.86</ele>
        <time>2025-05-03T13:18:05Z</time>
      </trkpt>
      <trkpt lat="41.031824983656406" lon="-8.490111026912928">
        <ele>112.13</ele>
        <time>2025-05-03T13:18:12Z</time>
      </trkpt>
      <trkpt lat="41.033302964642644" lon="-8.491316009312868">
        <ele>111.17</ele>
        <time>2025-05-03T13:18:19Z</time>
      </trkpt>
      <trkpt lat="41.035585021600127" lon="-8.492430970072746">
        <ele>119.81999999999999</ele>
        <time>2025-05-03T13:18:29Z</time>
      </trkpt>
      <trkpt lat="41.038637040182948" lon="-8.49383301101625">
        <ele>137.13</ele>
        <time>2025-05-03T13:18:43Z</time>
      </trkpt>
      <trkpt lat="41.039645969867706" lon="-8.494272977113724">
        <ele>144.81999999999999</ele>
        <time>2025-05-03T13:18:49Z</time>
      </trkpt>
      <trkpt lat="41.039902037009597" lon="-8.49428697489202">
        <ele>146.74000000000001</ele>
        <time>2025-05-03T13:18:51Z</time>
      </trkpt>
      <trkpt lat="41.040011001750827" lon="-8.494296027347446">
        <ele>147.22</ele>
        <time>2025-05-03T13:18:52Z</time>
      </trkpt>
      <trkpt lat="41.040112003684044" lon="-8.494277000427246">
        <ele>147.69999999999999</ele>
        <time>2025-05-03T13:18:53Z</time>
      </trkpt>
      <trkpt lat="41.040219962596893" lon="-8.494237018749118">
        <ele>148.18000000000001</ele>
        <time>2025-05-03T13:18:54Z</time>
      </trkpt>
      <trkpt lat="41.04031995870173" lon="-8.494174992665649">
        <ele>148.18000000000001</ele>
        <time>2025-05-03T13:18:55Z</time>
      </trkpt>
      <trkpt lat="41.040412997826934" lon="-8.494068961590529">
        <ele>148.18000000000001</ele>
        <time>2025-05-03T13:18:56Z</time>
      </trkpt>
      <trkpt lat="41.040484998375177" lon="-8.493934012949467">
        <ele>148.18000000000001</ele>
        <time>2025-05-03T13:18:57Z</time>
      </trkpt>
      <trkpt lat="41.040527997538447" lon="-8.493777019903064">
        <ele>148.18000000000001</ele>
        <time>2025-05-03T13:18:58Z</time>
      </trkpt>
      <trkpt lat="41.040539983659983" lon="-8.493606029078364">
        <ele>147.69999999999999</ele>
        <time>2025-05-03T13:18:59Z</time>
      </trkpt>
      <trkpt lat="41.040531015023589" lon="-8.493436966091394">
        <ele>147.22</ele>
        <time>2025-05-03T13:19:00Z</time>
      </trkpt>
      <trkpt lat="41.040502013638616" lon="-8.493247032165527">
        <ele>146.74000000000001</ele>
        <time>2025-05-03T13:19:01Z</time>
      </trkpt>
      <trkpt lat="41.040424983948469" lon="-8.493115017190576">
        <ele>146.25999999999999</ele>
        <time>2025-05-03T13:19:02Z</time>
      </trkpt>
      <trkpt lat="41.040328005328774" lon="-8.49297403357923">
        <ele>145.30000000000001</ele>
        <time>2025-05-03T13:19:03Z</time>
      </trkpt>
      <trkpt lat="41.040207976475358" lon="-8.492893986403942">
        <ele>144.34</ele>
        <time>2025-05-03T13:19:04Z</time>
      </trkpt>
      <trkpt lat="41.040080990642309" lon="-8.492850987240672">
        <ele>142.88999999999999</ele>
        <time>2025-05-03T13:19:05Z</time>
      </trkpt>
      <trkpt lat="41.039949981495738" lon="-8.492851993069053">
        <ele>141.93000000000001</ele>
        <time>2025-05-03T13:19:06Z</time>
      </trkpt>
      <trkpt lat="41.039817966520786" lon="-8.492895998060703">
        <ele>140.49000000000001</ele>
        <time>2025-05-03T13:19:07Z</time>
      </trkpt>
      <trkpt lat="41.03969500400126" lon="-8.492989959195256">
        <ele>139.53</ele>
        <time>2025-05-03T13:19:08Z</time>
      </trkpt>
      <trkpt lat="41.039570029824972" lon="-8.493100013583899">
        <ele>138.56999999999999</ele>
        <time>2025-05-03T13:19:09Z</time>
      </trkpt>
      <trkpt lat="41.039441032335162" lon="-8.493213001638651">
        <ele>137.61000000000001</ele>
        <time>2025-05-03T13:19:10Z</time>
      </trkpt>
      <trkpt lat="41.039307005703449" lon="-8.493330013006926">
        <ele>137.13</ele>
        <time>2025-05-03T13:19:11Z</time>
      </trkpt>
      <trkpt lat="41.038775006309152" lon="-8.493861006572843">
        <ele>134.72</ele>
        <time>2025-05-03T13:19:15Z</time>
      </trkpt>
      <trkpt lat="41.038637040182948" lon="-8.494013976305723">
        <ele>134.24000000000001</ele>
        <time>2025-05-03T13:19:16Z</time>
      </trkpt>
      <trkpt lat="41.038151979446411" lon="-8.494423013180494">
        <ele>132.31999999999999</ele>
        <time>2025-05-03T13:19:19Z</time>
      </trkpt>
      <trkpt lat="41.037978976964951" lon="-8.494545975700021">
        <ele>131.36000000000001</ele>
        <time>2025-05-03T13:19:20Z</time>
      </trkpt>
      <trkpt lat="41.037802034988999" lon="-8.49465100094676">
        <ele>130.40000000000001</ele>
        <time>2025-05-03T13:19:21Z</time>
      </trkpt>
      <trkpt lat="41.035995986312628" lon="-8.495324989780784">
        <ele>123.19</ele>
        <time>2025-05-03T13:19:30Z</time>
      </trkpt>
      <trkpt lat="41.034293035045266" lon="-8.495223987847567">
        <ele>118.86</ele>
        <time>2025-05-03T13:19:38Z</time>
      </trkpt>
      <trkpt lat="41.031751977279782" lon="-8.494882006198168">
        <ele>110.20999999999999</ele>
        <time>2025-05-03T13:19:50Z</time>
      </trkpt>
      <trkpt lat="41.030225967988372" lon="-8.495242008939385">
        <ele>104.44</ele>
        <time>2025-05-03T13:19:58Z</time>
      </trkpt>
      <trkpt lat="41.029743002727628" lon="-8.495494974777103">
        <ele>103.48</ele>
        <time>2025-05-03T13:20:01Z</time>
      </trkpt>
      <trkpt lat="41.029579974710941" lon="-8.495586002245545">
        <ele>103</ele>
        <time>2025-05-03T13:20:02Z</time>
      </trkpt>
      <trkpt lat="41.029501017183065" lon="-8.495834022760391">
        <ele>103</ele>
        <time>2025-05-03T13:20:03Z</time>
      </trkpt>
      <trkpt lat="41.029395991936326" lon="-8.496019011363387">
        <ele>103.48</ele>
        <time>2025-05-03T13:20:04Z</time>
      </trkpt>
      <trkpt lat="41.029293984174728" lon="-8.496222021058202">
        <ele>103.95999999999999</ele>
        <time>2025-05-03T13:20:05Z</time>
      </trkpt>
      <trkpt lat="41.02882300503552" lon="-8.497201027348638">
        <ele>110.20999999999999</ele>
        <time>2025-05-03T13:20:10Z</time>
      </trkpt>
      <trkpt lat="41.028771037235856" lon="-8.497370006516576">
        <ele>111.65000000000001</ele>
        <time>2025-05-03T13:20:11Z</time>
      </trkpt>
      <trkpt lat="41.028742035850883" lon="-8.497544014826417">
        <ele>112.61</ele>
        <time>2025-05-03T13:20:12Z</time>
      </trkpt>
      <trkpt lat="41.028728960081935" lon="-8.497724980115891">
        <ele>113.56999999999999</ele>
        <time>2025-05-03T13:20:13Z</time>
      </trkpt>
      <trkpt lat="41.028752010315657" lon="-8.497897982597351">
        <ele>114.05</ele>
        <time>2025-05-03T13:20:14Z</time>
      </trkpt>
      <trkpt lat="41.028773970901966" lon="-8.49806503392756">
        <ele>115.01000000000001</ele>
        <time>2025-05-03T13:20:15Z</time>
      </trkpt>
      <trkpt lat="41.028814958408475" lon="-8.498230995610356">
        <ele>115.98</ele>
        <time>2025-05-03T13:20:16Z</time>
      </trkpt>
      <trkpt lat="41.028873967006803" lon="-8.498377008363605">
        <ele>116.94</ele>
        <time>2025-05-03T13:20:17Z</time>
      </trkpt>
      <trkpt lat="41.02893297560513" lon="-8.49851899780333">
        <ele>117.90000000000001</ele>
        <time>2025-05-03T13:20:18Z</time>
      </trkpt>
      <trkpt lat="41.02901604026556" lon="-8.498672973364592">
        <ele>118.38</ele>
        <time>2025-05-03T13:20:19Z</time>
      </trkpt>
      <trkpt lat="41.029105978086591" lon="-8.498771041631699">
        <ele>119.34</ele>
        <time>2025-05-03T13:20:20Z</time>
      </trkpt>
      <trkpt lat="41.02918703109026" lon="-8.498858967795968">
        <ele>119.81999999999999</ele>
        <time>2025-05-03T13:20:21Z</time>
      </trkpt>
      <trkpt lat="41.029744008556008" lon="-8.499422986060381">
        <ele>124.15000000000001</ele>
        <time>2025-05-03T13:20:30Z</time>
      </trkpt>
      <trkpt lat="41.029875017702579" lon="-8.49954997189343">
        <ele>125.59</ele>
        <time>2025-05-03T13:20:38Z</time>
      </trkpt>
      <trkpt lat="41.029875017702579" lon="-8.49954997189343">
        <ele>125.59</ele>
        <time>2025-05-03T13:21:15Z</time>
      </trkpt>
      <trkpt lat="41.029875017702579" lon="-8.49954997189343">
        <ele>125.11</ele>
        <time>2025-05-03T13:22:03Z</time>
      </trkpt>
      <trkpt lat="41.030006026849151" lon="-8.499680981040001">
        <ele>126.06999999999999</ele>
        <time>2025-05-03T13:22:42Z</time>
      </trkpt>
      <trkpt lat="41.030309032648802" lon="-8.499983986839652">
        <ele>128.47</ele>
        <time>2025-05-03T13:22:48Z</time>
      </trkpt>
      <trkpt lat="41.030421014875174" lon="-8.500090017914772">
        <ele>129.43000000000001</ele>
        <time>2025-05-03T13:22:56Z</time>
      </trkpt>
      <trkpt lat="41.030468037351966" lon="-8.500133017078042">
        <ele>129.91999999999999</ele>
        <time>2025-05-03T13:23:25Z</time>
      </trkpt>
      <trkpt lat="41.030524028465152" lon="-8.500184984877706">
        <ele>129.43000000000001</ele>
        <time>2025-05-03T13:23:26Z</time>
      </trkpt>
      <trkpt lat="41.030631987378001" lon="-8.500284980982542">
        <ele>128.94999999999999</ele>
        <time>2025-05-03T13:23:28Z</time>
      </trkpt>
      <trkpt lat="41.030702982097864" lon="-8.500341977924109">
        <ele>128.94999999999999</ele>
        <time>2025-05-03T13:23:29Z</time>
      </trkpt>
      <trkpt lat="41.030774982646108" lon="-8.500399980694056">
        <ele>128.47</ele>
        <time>2025-05-03T13:23:30Z</time>
      </trkpt>
      <trkpt lat="41.030845977365971" lon="-8.500456977635622">
        <ele>128.47</ele>
        <time>2025-05-03T13:23:31Z</time>
      </trkpt>
      <trkpt lat="41.030937004834414" lon="-8.500480027869344">
        <ele>128.47</ele>
        <time>2025-05-03T13:23:32Z</time>
      </trkpt>
      <trkpt lat="41.03103700093925" lon="-8.500505005940795">
        <ele>128.47</ele>
        <time>2025-05-03T13:23:33Z</time>
      </trkpt>
      <trkpt lat="41.031138002872467" lon="-8.500521015375853">
        <ele>128.47</ele>
        <time>2025-05-03T13:23:34Z</time>
      </trkpt>
      <trkpt lat="41.031255014240742" lon="-8.500521015375853">
        <ele>128.47</ele>
        <time>2025-05-03T13:23:35Z</time>
      </trkpt>
      <trkpt lat="41.031383005902171" lon="-8.500521015375853">
        <ele>128.47</ele>
        <time>2025-05-03T13:23:36Z</time>
      </trkpt>
      <trkpt lat="41.031488031148911" lon="-8.500479022040963">
        <ele>128.47</ele>
        <time>2025-05-03T13:23:37Z</time>
      </trkpt>
      <trkpt lat="41.031602025032043" lon="-8.50043099373579">
        <ele>128.47</ele>
        <time>2025-05-03T13:23:38Z</time>
      </trkpt>
      <trkpt lat="41.031697997823358" lon="-8.500355975702405">
        <ele>127.98999999999999</ele>
        <time>2025-05-03T13:23:39Z</time>
      </trkpt>
      <trkpt lat="41.031785001978278" lon="-8.500287998467684">
        <ele>127.98999999999999</ele>
        <time>2025-05-03T13:23:40Z</time>
      </trkpt>
      <trkpt lat="41.031897990033031" lon="-8.500198982656002">
        <ele>128.47</ele>
        <time>2025-05-03T13:23:41Z</time>
      </trkpt>
      <trkpt lat="41.031947024166584" lon="-8.500142991542816">
        <ele>128.94999999999999</ele>
        <time>2025-05-03T13:23:42Z</time>
      </trkpt>
      <trkpt lat="41.032008966431022" lon="-8.500071996822953">
        <ele>128.94999999999999</ele>
        <time>2025-05-03T13:23:43Z</time>
      </trkpt>
      <trkpt lat="41.032066969200969" lon="-8.500005025416613">
        <ele>129.43000000000001</ele>
        <time>2025-05-03T13:23:44Z</time>
      </trkpt>
      <trkpt lat="41.032122960314155" lon="-8.499941993504763">
        <ele>129.43000000000001</ele>
        <time>2025-05-03T13:23:45Z</time>
      </trkpt>
      <trkpt lat="41.032134024426341" lon="-8.499619960784912">
        <ele>129.43000000000001</ele>
        <time>2025-05-03T13:23:46Z</time>
      </trkpt>
      <trkpt lat="41.032134024426341" lon="-8.499619960784912">
        <ele>128.94999999999999</ele>
        <time>2025-05-03T13:23:47Z</time>
      </trkpt>
      <trkpt lat="41.03217601776123" lon="-8.499447964131832">
        <ele>128.94999999999999</ele>
        <time>2025-05-03T13:23:48Z</time>
      </trkpt>
      <trkpt lat="41.032223962247372" lon="-8.499417034909129">
        <ele>128.94999999999999</ele>
        <time>2025-05-03T13:23:49Z</time>
      </trkpt>
      <trkpt lat="41.032299986109138" lon="-8.499365989118815">
        <ele>128.94999999999999</ele>
        <time>2025-05-03T13:23:50Z</time>
      </trkpt>
      <trkpt lat="41.032444993034005" lon="-8.499362971633673">
        <ele>128.94999999999999</ele>
        <time>2025-05-03T13:23:51Z</time>
      </trkpt>
      <trkpt lat="41.032550018280745" lon="-8.499481994658709">
        <ele>128.94999999999999</ele>
        <time>2025-05-03T13:23:52Z</time>
      </trkpt>
      <trkpt lat="41.032592011615634" lon="-8.499587019905448">
        <ele>128.94999999999999</ele>
        <time>2025-05-03T13:23:53Z</time>
      </trkpt>
      <trkpt lat="41.032567033544183" lon="-8.499773014336824">
        <ele>128.94999999999999</ele>
        <time>2025-05-03T13:23:54Z</time>
      </trkpt>
      <trkpt lat="41.032497966662049" lon="-8.499898994341493">
        <ele>128.94999999999999</ele>
        <time>2025-05-03T13:23:55Z</time>
      </trkpt>
      <trkpt lat="41.03252001106739" lon="-8.500070990994573">
        <ele>129.43000000000001</ele>
        <time>2025-05-03T13:23:56Z</time>
      </trkpt>
      <trkpt lat="41.032510958611965" lon="-8.50019202567637">
        <ele>129.43000000000001</ele>
        <time>2025-05-03T13:23:57Z</time>
      </trkpt>
      <trkpt lat="41.03249997831881" lon="-8.500348012894392">
        <ele>129.43000000000001</ele>
        <time>2025-05-03T13:23:58Z</time>
      </trkpt>
      <trkpt lat="41.032441975548863" lon="-8.500484973192215">
        <ele>129.91999999999999</ele>
        <time>2025-05-03T13:23:59Z</time>
      </trkpt>
      <trkpt lat="41.032372992485762" lon="-8.500570971518755">
        <ele>129.91999999999999</ele>
        <time>2025-05-03T13:24:00Z</time>
      </trkpt>
      <trkpt lat="41.032272996380925" lon="-8.500641966238618">
        <ele>129.91999999999999</ele>
        <time>2025-05-03T13:24:01Z</time>
      </trkpt>
      <trkpt lat="41.032163025811315" lon="-8.500721007585526">
        <ele>130.40000000000001</ele>
        <time>2025-05-03T13:24:02Z</time>
      </trkpt>
      <trkpt lat="41.031627003103495" lon="-8.501114035025239">
        <ele>131.84</ele>
        <time>2025-05-03T13:24:07Z</time>
      </trkpt>
      <trkpt lat="41.031576963141561" lon="-8.501162985339761">
        <ele>132.31999999999999</ele>
        <time>2025-05-03T13:24:08Z</time>
      </trkpt>
      <trkpt lat="41.031543016433716" lon="-8.501198021695018">
        <ele>132.80000000000001</ele>
        <time>2025-05-03T13:24:09Z</time>
      </trkpt>
      <trkpt lat="41.031523989513516" lon="-8.501327019184828">
        <ele>132.80000000000001</ele>
        <time>2025-05-03T13:24:10Z</time>
      </trkpt>
      <trkpt lat="41.031561037525535" lon="-8.501364989206195">
        <ele>133.28</ele>
        <time>2025-05-03T13:24:11Z</time>
      </trkpt>
      <trkpt lat="41.031614011153579" lon="-8.501417962834239">
        <ele>133.75999999999999</ele>
        <time>2025-05-03T13:24:12Z</time>
      </trkpt>
      <trkpt lat="41.031684000045061" lon="-8.501488035544753">
        <ele>134.24000000000001</ele>
        <time>2025-05-03T13:24:13Z</time>
      </trkpt>
      <trkpt lat="41.031759018078446" lon="-8.501562969759107">
        <ele>135.19999999999999</ele>
        <time>2025-05-03T13:24:14Z</time>
      </trkpt>
      <trkpt lat="41.032246006652713" lon="-8.502116007730365">
        <ele>142.41</ele>
        <time>2025-05-03T13:24:22Z</time>
      </trkpt>
      <trkpt lat="41.032276013866067" lon="-8.502155989408493">
        <ele>142.88999999999999</ele>
        <time>2025-05-03T13:24:23Z</time>
      </trkpt>
      <trkpt lat="41.03230400942266" lon="-8.50219395942986">
        <ele>143.84999999999999</ele>
        <time>2025-05-03T13:24:24Z</time>
      </trkpt>
      <trkpt lat="41.032334016636014" lon="-8.50223301909864">
        <ele>144.34</ele>
        <time>2025-05-03T13:24:25Z</time>
      </trkpt>
      <trkpt lat="41.032419009134173" lon="-8.50225699134171">
        <ele>144.81999999999999</ele>
        <time>2025-05-03T13:24:26Z</time>
      </trkpt>
      <trkpt lat="41.032479023560882" lon="-8.502227989956737">
        <ele>145.30000000000001</ele>
        <time>2025-05-03T13:24:27Z</time>
      </trkpt>
      <trkpt lat="41.032544989138842" lon="-8.502195971086621">
        <ele>146.25999999999999</ele>
        <time>2025-05-03T13:24:28Z</time>
      </trkpt>
      <trkpt lat="41.032617995515466" lon="-8.502160012722015">
        <ele>146.74000000000001</ele>
        <time>2025-05-03T13:24:29Z</time>
      </trkpt>
      <trkpt lat="41.032702988013625" lon="-8.502119025215507">
        <ele>147.22</ele>
        <time>2025-05-03T13:24:30Z</time>
      </trkpt>
      <trkpt lat="41.033086040988564" lon="-8.50193303078413">
        <ele>149.13999999999999</ele>
        <time>2025-05-03T13:24:34Z</time>
      </trkpt>
      <trkpt lat="41.033220989629626" lon="-8.501921966671944">
        <ele>150.09999999999999</ele>
        <time>2025-05-03T13:24:35Z</time>
      </trkpt>
      <trkpt lat="41.033348981291056" lon="-8.501930013298988">
        <ele>151.06</ele>
        <time>2025-05-03T13:24:36Z</time>
      </trkpt>
      <trkpt lat="41.034593023359776" lon="-8.502110978588462">
        <ele>164.03999999999999</ele>
        <time>2025-05-03T13:24:45Z</time>
      </trkpt>
      <trkpt lat="41.034700982272625" lon="-8.502142997458577">
        <ele>165.47999999999999</ele>
        <time>2025-05-03T13:24:46Z</time>
      </trkpt>
      <trkpt lat="41.034799972549081" lon="-8.502253973856568">
        <ele>166.93000000000001</ele>
        <time>2025-05-03T13:24:47Z</time>
      </trkpt>
      <trkpt lat="41.034872978925705" lon="-8.50236201658845">
        <ele>168.37</ele>
        <time>2025-05-03T13:24:48Z</time>
      </trkpt>
      <trkpt lat="41.03494699113071" lon="-8.502469975501299">
        <ele>169.33000000000001</ele>
        <time>2025-05-03T13:24:49Z</time>
      </trkpt>
      <trkpt lat="41.035023014992476" lon="-8.502581035718322">
        <ele>170.77000000000001</ele>
        <time>2025-05-03T13:24:50Z</time>
      </trkpt>
      <trkpt lat="41.035128040239215" lon="-8.502868032082915">
        <ele>172.69</ele>
        <time>2025-05-03T13:24:52Z</time>
      </trkpt>
      <trkpt lat="41.035158969461918" lon="-8.502967022359371">
        <ele>173.66</ele>
        <time>2025-05-03T13:24:53Z</time>
      </trkpt>
      <trkpt lat="41.035158969461918" lon="-8.503124015405774">
        <ele>174.62</ele>
        <time>2025-05-03T13:24:54Z</time>
      </trkpt>
      <trkpt lat="41.035158969461918" lon="-8.503401037305594">
        <ele>176.06</ele>
        <time>2025-05-03T13:24:56Z</time>
      </trkpt>
      <trkpt lat="41.035158969461918" lon="-8.503518970683217">
        <ele>177.02000000000001</ele>
        <time>2025-05-03T13:24:57Z</time>
      </trkpt>
      <trkpt lat="41.035227030515671" lon="-8.503636987879872">
        <ele>177.97999999999999</ele>
        <time>2025-05-03T13:24:58Z</time>
      </trkpt>
      <trkpt lat="41.035300036892295" lon="-8.503663977608085">
        <ele>178.94</ele>
        <time>2025-05-03T13:24:59Z</time>
      </trkpt>
      <trkpt lat="41.035382011905313" lon="-8.503694990649819">
        <ele>180.38</ele>
        <time>2025-05-03T13:25:00Z</time>
      </trkpt>
      <trkpt lat="41.03546398691833" lon="-8.503726003691554">
        <ele>181.34999999999999</ele>
        <time>2025-05-03T13:25:01Z</time>
      </trkpt>
      <trkpt lat="41.035536993294954" lon="-8.503752993419766">
        <ele>182.31</ele>
        <time>2025-05-03T13:25:02Z</time>
      </trkpt>
      <trkpt lat="41.035606982186437" lon="-8.503778977319598">
        <ele>182.78999999999999</ele>
        <time>2025-05-03T13:25:03Z</time>
      </trkpt>
      <trkpt lat="41.035780990496278" lon="-8.503844020888209">
        <ele>186.63</ele>
        <time>2025-05-03T13:25:08Z</time>
      </trkpt>
      <trkpt lat="41.035801023244858" lon="-8.503851983696222">
        <ele>187.59</ele>
        <time>2025-05-03T13:25:09Z</time>
      </trkpt>
      <trkpt lat="41.035830024629831" lon="-8.503862963989377">
        <ele>188.56</ele>
        <time>2025-05-03T13:25:10Z</time>
      </trkpt>
      <trkpt lat="41.035841004922986" lon="-8.50393102504313">
        <ele>189.03999999999999</ele>
        <time>2025-05-03T13:25:11Z</time>
      </trkpt>
      <trkpt lat="41.035833964124322" lon="-8.504028003662825">
        <ele>189.03999999999999</ele>
        <time>2025-05-03T13:25:12Z</time>
      </trkpt>
      <trkpt lat="41.035826001316309" lon="-8.504140991717577">
        <ele>189.52000000000001</ele>
        <time>2025-05-03T13:25:13Z</time>
      </trkpt>
      <trkpt lat="41.035817032679915" lon="-8.504265965893865">
        <ele>189.52000000000001</ele>
        <time>2025-05-03T13:25:14Z</time>
      </trkpt>
      <trkpt lat="41.03580697439611" lon="-8.504403010010719">
        <ele>189.52000000000001</ele>
        <time>2025-05-03T13:25:15Z</time>
      </trkpt>
      <trkpt lat="41.035703960806131" lon="-8.505811002105475">
        <ele>188.08000000000001</ele>
        <time>2025-05-03T13:25:24Z</time>
      </trkpt>
      <trkpt lat="41.035670014098287" lon="-8.506697975099087">
        <ele>187.11000000000001</ele>
        <time>2025-05-03T13:25:30Z</time>
      </trkpt>
      <trkpt lat="41.035708989948034" lon="-8.506838036701083">
        <ele>187.11000000000001</ele>
        <time>2025-05-03T13:25:31Z</time>
      </trkpt>
      <trkpt lat="41.035761963576078" lon="-8.506974996998906">
        <ele>187.11000000000001</ele>
        <time>2025-05-03T13:25:32Z</time>
      </trkpt>
      <trkpt lat="41.036255992949009" lon="-8.508385000750423">
        <ele>192.40000000000001</ele>
        <time>2025-05-03T13:25:42Z</time>
      </trkpt>
      <trkpt lat="41.036650026217103" lon="-8.509684028103948">
        <ele>198.65000000000001</ele>
        <time>2025-05-03T13:25:51Z</time>
      </trkpt>
      <trkpt lat="41.036951020359993" lon="-8.510616011917591">
        <ele>202.49000000000001</ele>
        <time>2025-05-03T13:25:58Z</time>
      </trkpt>
      <trkpt lat="41.0370749887079" lon="-8.51100099273026">
        <ele>203.46000000000001</ele>
        <time>2025-05-03T13:26:02Z</time>
      </trkpt>
      <trkpt lat="41.037186970934272" lon="-8.511208025738597">
        <ele>204.41999999999999</ele>
        <time>2025-05-03T13:26:07Z</time>
      </trkpt>
      <trkpt lat="41.037472039461136" lon="-8.511694008484483">
        <ele>205.38</ele>
        <time>2025-05-03T13:26:13Z</time>
      </trkpt>
      <trkpt lat="41.03823303245008" lon="-8.512925980612636">
        <ele>209.69999999999999</ele>
        <time>2025-05-03T13:26:25Z</time>
      </trkpt>
      <trkpt lat="41.038480969145894" lon="-8.51353601552546">
        <ele>209.69999999999999</ele>
        <time>2025-05-03T13:26:30Z</time>
      </trkpt>
      <trkpt lat="41.038536038249731" lon="-8.513779006898403">
        <ele>208.74000000000001</ele>
        <time>2025-05-03T13:26:32Z</time>
      </trkpt>
      <trkpt lat="41.038564033806324" lon="-8.513903981074691">
        <ele>208.25999999999999</ele>
        <time>2025-05-03T13:26:33Z</time>
      </trkpt>
      <trkpt lat="41.03855699300766" lon="-8.514039013534784">
        <ele>207.30000000000001</ele>
        <time>2025-05-03T13:26:34Z</time>
      </trkpt>
      <trkpt lat="41.038537966087461" lon="-8.514178991317749">
        <ele>206.81999999999999</ele>
        <time>2025-05-03T13:26:35Z</time>
      </trkpt>
      <trkpt lat="41.038520028814673" lon="-8.514317963272333">
        <ele>206.34</ele>
        <time>2025-05-03T13:26:36Z</time>
      </trkpt>
      <trkpt lat="41.03844802826643" lon="-8.514864966273308">
        <ele>202.49000000000001</ele>
        <time>2025-05-03T13:26:41Z</time>
      </trkpt>
      <trkpt lat="41.038439981639385" lon="-8.514922969043255">
        <ele>202.00999999999999</ele>
        <time>2025-05-03T13:26:42Z</time>
      </trkpt>
      <trkpt lat="41.038453979417682" lon="-8.515088008716703">
        <ele>200.09</ele>
        <time>2025-05-03T13:26:44Z</time>
      </trkpt>
      <trkpt lat="41.038509970530868" lon="-8.515119021758437">
        <ele>199.13</ele>
        <time>2025-05-03T13:26:45Z</time>
      </trkpt>
      <trkpt lat="41.038585994392633" lon="-8.515162020921707">
        <ele>198.16999999999999</ele>
        <time>2025-05-03T13:26:46Z</time>
      </trkpt>
      <trkpt lat="41.038678027689457" lon="-8.515216000378132">
        <ele>197.69</ele>
        <time>2025-05-03T13:26:47Z</time>
      </trkpt>
      <trkpt lat="41.038775006309152" lon="-8.51527601480484">
        <ele>196.72999999999999</ele>
        <time>2025-05-03T13:26:48Z</time>
      </trkpt>
      <trkpt lat="41.038877014070749" lon="-8.51533804088831">
        <ele>196.25</ele>
        <time>2025-05-03T13:26:49Z</time>
      </trkpt>
      <trkpt lat="41.039064014330506" lon="-8.515496039763093">
        <ele>195.28</ele>
        <time>2025-05-03T13:26:51Z</time>
      </trkpt>
      <trkpt lat="41.039135009050369" lon="-8.515588995069265">
        <ele>194.80000000000001</ele>
        <time>2025-05-03T13:26:52Z</time>
      </trkpt>
      <trkpt lat="41.039208015426993" lon="-8.515683962032199">
        <ele>194.31999999999999</ele>
        <time>2025-05-03T13:26:53Z</time>
      </trkpt>
      <trkpt lat="41.039284039288759" lon="-8.515789993107319">
        <ele>194.31999999999999</ele>
        <time>2025-05-03T13:26:54Z</time>
      </trkpt>
      <trkpt lat="41.039338018745184" lon="-8.51592100225389">
        <ele>194.31999999999999</ele>
        <time>2025-05-03T13:26:55Z</time>
      </trkpt>
      <trkpt lat="41.039899019524455" lon="-8.517294963821769">
        <ele>195.77000000000001</ele>
        <time>2025-05-03T13:27:05Z</time>
      </trkpt>
      <trkpt lat="41.040381984785199" lon="-8.518491983413696">
        <ele>197.69</ele>
        <time>2025-05-03T13:27:15Z</time>
      </trkpt>
      <trkpt lat="41.040649032220244" lon="-8.519085003063083">
        <ele>198.65000000000001</ele>
        <time>2025-05-03T13:27:20Z</time>
      </trkpt>
      <trkpt lat="41.04070502333343" lon="-8.519192039966583">
        <ele>198.65000000000001</ele>
        <time>2025-05-03T13:27:21Z</time>
      </trkpt>
      <trkpt lat="41.040774006396532" lon="-8.519290024414659">
        <ele>198.65000000000001</ele>
        <time>2025-05-03T13:27:22Z</time>
      </trkpt>
      <trkpt lat="41.040853969752789" lon="-8.519364036619663">
        <ele>198.65000000000001</ele>
        <time>2025-05-03T13:27:23Z</time>
      </trkpt>
      <trkpt lat="41.040934016928077" lon="-8.519426984712482">
        <ele>198.65000000000001</ele>
        <time>2025-05-03T13:27:24Z</time>
      </trkpt>
      <trkpt lat="41.041009034961462" lon="-8.519471995532513">
        <ele>198.65000000000001</ele>
        <time>2025-05-03T13:27:25Z</time>
      </trkpt>
      <trkpt lat="41.041078018024564" lon="-8.519513988867402">
        <ele>198.65000000000001</ele>
        <time>2025-05-03T13:27:26Z</time>
      </trkpt>
      <trkpt lat="41.041530976071954" lon="-8.519741976633668">
        <ele>199.61000000000001</ele>
        <time>2025-05-03T13:27:36Z</time>
      </trkpt>
      <trkpt lat="41.041599037125707" lon="-8.519781036302447">
        <ele>200.56999999999999</ele>
        <time>2025-05-03T13:27:47Z</time>
      </trkpt>
      <trkpt lat="41.042164983227849" lon="-8.520050011575222">
        <ele>201.53</ele>
        <time>2025-05-03T13:27:54Z</time>
      </trkpt>
      <trkpt lat="41.042349971830845" lon="-8.520135004073381">
        <ele>202.00999999999999</ele>
        <time>2025-05-03T13:27:56Z</time>
      </trkpt>
      <trkpt lat="41.043227976188064" lon="-8.520542029291391">
        <ele>206.34</ele>
        <time>2025-05-03T13:28:04Z</time>
      </trkpt>
      <trkpt lat="41.044347966089845" lon="-8.521065982058644">
        <ele>210.19</ele>
        <time>2025-05-03T13:28:14Z</time>
      </trkpt>
      <trkpt lat="41.045119017362595" lon="-8.521378040313721">
        <ele>214.03</ele>
        <time>2025-05-03T13:28:21Z</time>
      </trkpt>
      <trkpt lat="41.045219013467431" lon="-8.521375022828579">
        <ele>214.50999999999999</ele>
        <time>2025-05-03T13:28:22Z</time>
      </trkpt>
      <trkpt lat="41.045324960723519" lon="-8.521351972594857">
        <ele>215.47</ele>
        <time>2025-05-03T13:28:23Z</time>
      </trkpt>
      <trkpt lat="41.045544985681772" lon="-8.521306039765477">
        <ele>215.94999999999999</ele>
        <time>2025-05-03T13:28:25Z</time>
      </trkpt>
      <trkpt lat="41.045656967908144" lon="-8.521291958168149">
        <ele>216.43000000000001</ele>
        <time>2025-05-03T13:28:26Z</time>
      </trkpt>
      <trkpt lat="41.045773979276419" lon="-8.521291958168149">
        <ele>217.40000000000001</ele>
        <time>2025-05-03T13:28:27Z</time>
      </trkpt>
      <trkpt lat="41.046567996963859" lon="-8.521309979259968">
        <ele>221.24000000000001</ele>
        <time>2025-05-03T13:28:35Z</time>
      </trkpt>
      <trkpt lat="41.046608984470367" lon="-8.521311990916729">
        <ele>221.72</ele>
        <time>2025-05-03T13:28:36Z</time>
      </trkpt>
      <trkpt lat="41.046691965311766" lon="-8.521309979259968">
        <ele>222.68000000000001</ele>
        <time>2025-05-03T13:28:38Z</time>
      </trkpt>
      <trkpt lat="41.046750973910093" lon="-8.521286007016897">
        <ele>223.63999999999999</ele>
        <time>2025-05-03T13:28:39Z</time>
      </trkpt>
      <trkpt lat="41.046892963349819" lon="-8.52122800424695">
        <ele>224.12</ele>
        <time>2025-05-03T13:28:41Z</time>
      </trkpt>
      <trkpt lat="41.047262018546462" lon="-8.521076962351799">
        <ele>226.05000000000001</ele>
        <time>2025-05-03T13:28:45Z</time>
      </trkpt>
      <trkpt lat="41.047350028529763" lon="-8.521004039794207">
        <ele>226.53</ele>
        <time>2025-05-03T13:28:46Z</time>
      </trkpt>
      <trkpt lat="41.047755964100361" lon="-8.520504981279373">
        <ele>227.00999999999999</ele>
        <time>2025-05-03T13:28:51Z</time>
      </trkpt>
      <trkpt lat="41.047841962426901" lon="-8.520398028194904">
        <ele>227.49000000000001</ele>
        <time>2025-05-03T13:28:52Z</time>
      </trkpt>
      <trkpt lat="41.047927960753441" lon="-8.520290991291404">
        <ele>227.97</ele>
        <time>2025-05-03T13:28:53Z</time>
      </trkpt>
      <trkpt lat="41.048856005072594" lon="-8.51914300583303">
        <ele>234.69999999999999</ele>
        <time>2025-05-03T13:29:04Z</time>
      </trkpt>
      <trkpt lat="41.048973016440868" lon="-8.519091038033366">
        <ele>235.66</ele>
        <time>2025-05-03T13:29:05Z</time>
      </trkpt>
      <trkpt lat="41.049086004495621" lon="-8.519052984192967">
        <ele>236.62</ele>
        <time>2025-05-03T13:29:06Z</time>
      </trkpt>
      <trkpt lat="41.050027040764689" lon="-8.518794989213347">
        <ele>241.91</ele>
        <time>2025-05-03T13:29:14Z</time>
      </trkpt>
      <trkpt lat="41.051107970997691" lon="-8.518488965928555">
        <ele>249.59999999999999</ele>
        <time>2025-05-03T13:29:23Z</time>
      </trkpt>
      <trkpt lat="41.052014976739883" lon="-8.517956966534257">
        <ele>254.41</ele>
        <time>2025-05-03T13:29:31Z</time>
      </trkpt>
      <trkpt lat="41.053421040996909" lon="-8.517051972448826">
        <ele>247.19999999999999</ele>
        <time>2025-05-03T13:29:44Z</time>
      </trkpt>
      <trkpt lat="41.054572965949774" lon="-8.516626004129648">
        <ele>240.94999999999999</ele>
        <time>2025-05-03T13:29:54Z</time>
      </trkpt>
      <trkpt lat="41.05578700080514" lon="-8.516648970544338">
        <ele>239.50999999999999</ele>
        <time>2025-05-03T13:30:04Z</time>
      </trkpt>
      <trkpt lat="41.056018006056547" lon="-8.516734968870878">
        <ele>239.02000000000001</ele>
        <time>2025-05-03T13:30:06Z</time>
      </trkpt>
      <trkpt lat="41.056101992726326" lon="-8.516818033531308">
        <ele>238.53999999999999</ele>
        <time>2025-05-03T13:30:07Z</time>
      </trkpt>
      <trkpt lat="41.056188996881247" lon="-8.516920041292906">
        <ele>238.53999999999999</ele>
        <time>2025-05-03T13:30:08Z</time>
      </trkpt>
      <trkpt lat="41.056276001036167" lon="-8.517021965235472">
        <ele>237.58000000000001</ele>
        <time>2025-05-03T13:30:09Z</time>
      </trkpt>
      <trkpt lat="41.056366022676229" lon="-8.517126990482211">
        <ele>237.09999999999999</ele>
        <time>2025-05-03T13:30:10Z</time>
      </trkpt>
      <trkpt lat="41.056846976280212" lon="-8.517819000408053">
        <ele>233.25999999999999</ele>
        <time>2025-05-03T13:30:16Z</time>
      </trkpt>
      <trkpt lat="41.056952001526952" lon="-8.517914973199368">
        <ele>232.78</ele>
        <time>2025-05-03T13:30:17Z</time>
      </trkpt>
      <trkpt lat="41.057065995410085" lon="-8.517958978191018">
        <ele>231.81</ele>
        <time>2025-05-03T13:30:18Z</time>
      </trkpt>
      <trkpt lat="41.057182000949979" lon="-8.518003989011049">
        <ele>231.33000000000001</ele>
        <time>2025-05-03T13:30:19Z</time>
      </trkpt>
      <trkpt lat="41.057303035631776" lon="-8.518009018152952">
        <ele>230.84999999999999</ele>
        <time>2025-05-03T13:30:20Z</time>
      </trkpt>
      <trkpt lat="41.057424992322922" lon="-8.517994014546275">
        <ele>230.37</ele>
        <time>2025-05-03T13:30:21Z</time>
      </trkpt>
      <trkpt lat="41.057540997862816" lon="-8.517942968755961">
        <ele>229.88999999999999</ele>
        <time>2025-05-03T13:30:22Z</time>
      </trkpt>
      <trkpt lat="41.057655997574329" lon="-8.517893012613058">
        <ele>229.41</ele>
        <time>2025-05-03T13:30:23Z</time>
      </trkpt>
      <trkpt lat="41.058725025504827" lon="-8.517609033733606">
        <ele>223.16</ele>
        <time>2025-05-03T13:30:32Z</time>
      </trkpt>
      <trkpt lat="41.058842958882451" lon="-8.517572991549969">
        <ele>222.68000000000001</ele>
        <time>2025-05-03T13:30:33Z</time>
      </trkpt>
      <trkpt lat="41.058962987735868" lon="-8.517565028741956">
        <ele>222.19999999999999</ele>
        <time>2025-05-03T13:30:34Z</time>
      </trkpt>
      <trkpt lat="41.059066001325846" lon="-8.51757500320673">
        <ele>221.72</ele>
        <time>2025-05-03T13:30:35Z</time>
      </trkpt>
      <trkpt lat="41.059150993824005" lon="-8.517596041783691">
        <ele>221.24000000000001</ele>
        <time>2025-05-03T13:30:36Z</time>
      </trkpt>
      <trkpt lat="41.059203967452049" lon="-8.517633005976677">
        <ele>220.75999999999999</ele>
        <time>2025-05-03T13:30:37Z</time>
      </trkpt>
      <trkpt lat="41.059886002913117" lon="-8.518096022307873">
        <ele>216.43000000000001</ele>
        <time>2025-05-03T13:30:49Z</time>
      </trkpt>
      <trkpt lat="41.060023969039321" lon="-8.518179003149271">
        <ele>215.47</ele>
        <time>2025-05-03T13:30:51Z</time>
      </trkpt>
      <trkpt lat="41.060070991516113" lon="-8.518201969563961">
        <ele>214.99000000000001</ele>
        <time>2025-05-03T13:30:52Z</time>
      </trkpt>
      <trkpt lat="41.060161013156176" lon="-8.51819803006947">
        <ele>214.03</ele>
        <time>2025-05-03T13:30:53Z</time>
      </trkpt>
      <trkpt lat="41.060241982340813" lon="-8.518194006755948">
        <ele>213.55000000000001</ele>
        <time>2025-05-03T13:30:54Z</time>
      </trkpt>
      <trkpt lat="41.060327980667353" lon="-8.518188977614045">
        <ele>212.59</ele>
        <time>2025-05-03T13:30:55Z</time>
      </trkpt>
      <trkpt lat="41.060509029775858" lon="-8.518193000927568">
        <ele>211.15000000000001</ele>
        <time>2025-05-03T13:30:57Z</time>
      </trkpt>
      <trkpt lat="41.060585975646973" lon="-8.518224013969302">
        <ele>210.19</ele>
        <time>2025-05-03T13:30:58Z</time>
      </trkpt>
      <trkpt lat="41.060645990073681" lon="-8.518313029780984">
        <ele>209.22</ele>
        <time>2025-05-03T13:30:59Z</time>
      </trkpt>
      <trkpt lat="41.060706004500389" lon="-8.518400033935905">
        <ele>208.25999999999999</ele>
        <time>2025-05-03T13:31:00Z</time>
      </trkpt>
      <trkpt lat="41.060767024755478" lon="-8.518490977585316">
        <ele>207.30000000000001</ele>
        <time>2025-05-03T13:31:01Z</time>
      </trkpt>
      <trkpt lat="41.061126021668315" lon="-8.518980983644724">
        <ele>202.49000000000001</ele>
        <time>2025-05-03T13:31:06Z</time>
      </trkpt>
      <trkpt lat="41.061230963096023" lon="-8.519043009728193">
        <ele>202.00999999999999</ele>
        <time>2025-05-03T13:31:07Z</time>
      </trkpt>
      <trkpt lat="41.062252968549728" lon="-8.519624965265393">
        <ele>192.40000000000001</ele>
        <time>2025-05-03T13:31:17Z</time>
      </trkpt>
      <trkpt lat="41.062538959085941" lon="-8.51983099244535">
        <ele>189.52000000000001</ele>
        <time>2025-05-03T13:31:21Z</time>
      </trkpt>
      <trkpt lat="41.062664017081261" lon="-8.519925959408283">
        <ele>188.56</ele>
        <time>2025-05-03T13:31:23Z</time>
      </trkpt>
      <trkpt lat="41.063172966241837" lon="-8.520381012931466">
        <ele>186.63</ele>
        <time>2025-05-03T13:31:32Z</time>
      </trkpt>
      <trkpt lat="41.063229041174054" lon="-8.520438009873033">
        <ele>186.63</ele>
        <time>2025-05-03T13:31:33Z</time>
      </trkpt>
      <trkpt lat="41.063302969560027" lon="-8.520473968237639">
        <ele>187.11000000000001</ele>
        <time>2025-05-03T13:31:34Z</time>
      </trkpt>
      <trkpt lat="41.063385028392076" lon="-8.520501041784883">
        <ele>186.63</ele>
        <time>2025-05-03T13:31:35Z</time>
      </trkpt>
      <trkpt lat="41.063471026718616" lon="-8.520529959350824">
        <ele>186.63</ele>
        <time>2025-05-03T13:31:36Z</time>
      </trkpt>
      <trkpt lat="41.063559036701918" lon="-8.520545968785882">
        <ele>186.63</ele>
        <time>2025-05-03T13:31:37Z</time>
      </trkpt>
      <trkpt lat="41.063649980351329" lon="-8.520554015412927">
        <ele>186.15000000000001</ele>
        <time>2025-05-03T13:31:38Z</time>
      </trkpt>
      <trkpt lat="41.063741007819772" lon="-8.52056298404932">
        <ele>186.15000000000001</ele>
        <time>2025-05-03T13:31:39Z</time>
      </trkpt>
      <trkpt lat="41.063832035288215" lon="-8.520588967949152">
        <ele>186.15000000000001</ele>
        <time>2025-05-03T13:31:40Z</time>
      </trkpt>
      <trkpt lat="41.063918033614755" lon="-8.520635990425944">
        <ele>185.66999999999999</ele>
        <time>2025-05-03T13:31:41Z</time>
      </trkpt>
      <trkpt lat="41.064037978649139" lon="-8.520771022886038">
        <ele>185.19</ele>
        <time>2025-05-03T13:31:43Z</time>
      </trkpt>
      <trkpt lat="41.064080977812409" lon="-8.520830031484366">
        <ele>184.71000000000001</ele>
        <time>2025-05-03T13:31:44Z</time>
      </trkpt>
      <trkpt lat="41.064120959490538" lon="-8.520895997062326">
        <ele>183.75</ele>
        <time>2025-05-03T13:31:45Z</time>
      </trkpt>
      <trkpt lat="41.064202012494206" lon="-8.521031029522419">
        <ele>182.78999999999999</ele>
        <time>2025-05-03T13:31:47Z</time>
      </trkpt>
      <trkpt lat="41.064255991950631" lon="-8.52112096734345">
        <ele>182.31</ele>
        <time>2025-05-03T13:31:48Z</time>
      </trkpt>
      <trkpt lat="41.064368980005383" lon="-8.521234039217234">
        <ele>180.87</ele>
        <time>2025-05-03T13:31:50Z</time>
      </trkpt>
      <trkpt lat="41.06451197527349" lon="-8.521372005343437">
        <ele>179.41999999999999</ele>
        <time>2025-05-03T13:31:52Z</time>
      </trkpt>
      <trkpt lat="41.065401965752244" lon="-8.522019004449248">
        <ele>175.58000000000001</ele>
        <time>2025-05-03T13:32:03Z</time>
      </trkpt>
      <trkpt lat="41.06547899544239" lon="-8.522101985290647">
        <ele>176.06</ele>
        <time>2025-05-03T13:32:04Z</time>
      </trkpt>
      <trkpt lat="41.065558036789298" lon="-8.522186977788806">
        <ele>175.58000000000001</ele>
        <time>2025-05-03T13:32:05Z</time>
      </trkpt>
      <trkpt lat="41.065608998760581" lon="-8.522292003035545">
        <ele>175.58000000000001</ele>
        <time>2025-05-03T13:32:06Z</time>
      </trkpt>
      <trkpt lat="41.065662978217006" lon="-8.522410020232201">
        <ele>175.58000000000001</ele>
        <time>2025-05-03T13:32:07Z</time>
      </trkpt>
      <trkpt lat="41.065716035664082" lon="-8.522526025772095">
        <ele>175.58000000000001</ele>
        <time>2025-05-03T13:32:08Z</time>
      </trkpt>
      <trkpt lat="41.065838998183608" lon="-8.522764993831515">
        <ele>176.06</ele>
        <time>2025-05-03T13:32:10Z</time>
      </trkpt>
      <trkpt lat="41.065913010388613" lon="-8.522888962179422">
        <ele>176.06</ele>
        <time>2025-05-03T13:32:11Z</time>
      </trkpt>
      <trkpt lat="41.066000014543533" lon="-8.523008991032839">
        <ele>176.06</ele>
        <time>2025-05-03T13:32:12Z</time>
      </trkpt>
      <trkpt lat="41.066105039790273" lon="-8.523089960217476">
        <ele>175.58000000000001</ele>
        <time>2025-05-03T13:32:13Z</time>
      </trkpt>
      <trkpt lat="41.066210987046361" lon="-8.523171013221145">
        <ele>175.58000000000001</ele>
        <time>2025-05-03T13:32:14Z</time>
      </trkpt>
      <trkpt lat="41.066321041435003" lon="-8.523244019597769">
        <ele>175.58000000000001</ele>
        <time>2025-05-03T13:32:15Z</time>
      </trkpt>
      <trkpt lat="41.067619984969497" lon="-8.523983974009752">
        <ele>169.81</ele>
        <time>2025-05-03T13:32:27Z</time>
      </trkpt>
      <trkpt lat="41.068463958799839" lon="-8.524478003382683">
        <ele>166.44999999999999</ele>
        <time>2025-05-03T13:32:35Z</time>
      </trkpt>
      <trkpt lat="41.069595012813807" lon="-8.524969015270472">
        <ele>167.88999999999999</ele>
        <time>2025-05-03T13:32:45Z</time>
      </trkpt>
      <trkpt lat="41.070767976343632" lon="-8.525188034400344">
        <ele>167.88999999999999</ele>
        <time>2025-05-03T13:32:55Z</time>
      </trkpt>
      <trkpt lat="41.070879958570004" lon="-8.525237990543246">
        <ele>167.41</ele>
        <time>2025-05-03T13:32:56Z</time>
      </trkpt>
      <trkpt lat="41.070957994088531" lon="-8.52533002384007">
        <ele>166.93000000000001</ele>
        <time>2025-05-03T13:32:57Z</time>
      </trkpt>
      <trkpt lat="41.071043992415071" lon="-8.525434965267777">
        <ele>166.44999999999999</ele>
        <time>2025-05-03T13:32:58Z</time>
      </trkpt>
      <trkpt lat="41.071130996569991" lon="-8.525542002171278">
        <ele>165</ele>
        <time>2025-05-03T13:32:59Z</time>
      </trkpt>
      <trkpt lat="41.071216994896531" lon="-8.525650966912508">
        <ele>164.03999999999999</ele>
        <time>2025-05-03T13:33:00Z</time>
      </trkpt>
      <trkpt lat="41.071298969909549" lon="-8.525755992159247">
        <ele>163.08000000000001</ele>
        <time>2025-05-03T13:33:01Z</time>
      </trkpt>
      <trkpt lat="41.071512959897518" lon="-8.526028990745544">
        <ele>159.72</ele>
        <time>2025-05-03T13:33:04Z</time>
      </trkpt>
      <trkpt lat="41.071590995416045" lon="-8.526106020435691">
        <ele>158.75</ele>
        <time>2025-05-03T13:33:05Z</time>
      </trkpt>
      <trkpt lat="41.071675987914205" lon="-8.526166034862399">
        <ele>157.78999999999999</ele>
        <time>2025-05-03T13:33:06Z</time>
      </trkpt>
      <trkpt lat="41.071770032867789" lon="-8.526204004883766">
        <ele>156.34999999999999</ele>
        <time>2025-05-03T13:33:07Z</time>
      </trkpt>
      <trkpt lat="41.071863994002342" lon="-8.526230994611979">
        <ele>155.38999999999999</ele>
        <time>2025-05-03T13:33:08Z</time>
      </trkpt>
      <trkpt lat="41.071952003985643" lon="-8.52625597268343">
        <ele>154.43000000000001</ele>
        <time>2025-05-03T13:33:09Z</time>
      </trkpt>
      <trkpt lat="41.072040013968945" lon="-8.526282962411642">
        <ele>153.47</ele>
        <time>2025-05-03T13:33:10Z</time>
      </trkpt>
      <trkpt lat="41.072388030588627" lon="-8.526398967951536">
        <ele>151.06</ele>
        <time>2025-05-03T13:33:14Z</time>
      </trkpt>
      <trkpt lat="41.072465982288122" lon="-8.52646904066205">
        <ele>150.09999999999999</ele>
        <time>2025-05-03T13:33:15Z</time>
      </trkpt>
      <trkpt lat="41.072543011978269" lon="-8.526537017896771">
        <ele>149.62</ele>
        <time>2025-05-03T13:33:16Z</time>
      </trkpt>
      <trkpt lat="41.07261098921299" lon="-8.526617987081409">
        <ele>148.66</ele>
        <time>2025-05-03T13:33:17Z</time>
      </trkpt>
      <trkpt lat="41.072672009468079" lon="-8.526713037863374">
        <ele>147.22</ele>
        <time>2025-05-03T13:33:18Z</time>
      </trkpt>
      <trkpt lat="41.072734035551548" lon="-8.526810016483069">
        <ele>146.25999999999999</ele>
        <time>2025-05-03T13:33:19Z</time>
      </trkpt>
      <trkpt lat="41.073153968900442" lon="-8.527505965903401">
        <ele>139.53</ele>
        <time>2025-05-03T13:33:26Z</time>
      </trkpt>
      <trkpt lat="41.073813959956169" lon="-8.528566025197506">
        <ele>133.75999999999999</ele>
        <time>2025-05-03T13:33:35Z</time>
      </trkpt>
      <trkpt lat="41.07462901622057" lon="-8.529509995132685">
        <ele>130.40000000000001</ele>
        <time>2025-05-03T13:33:45Z</time>
      </trkpt>
      <trkpt lat="41.074727000668645" lon="-8.529575038701296">
        <ele>130.40000000000001</ele>
        <time>2025-05-03T13:33:46Z</time>
      </trkpt>
      <trkpt lat="41.074921963736415" lon="-8.529682997614145">
        <ele>130.40000000000001</ele>
        <time>2025-05-03T13:33:48Z</time>
      </trkpt>
      <trkpt lat="41.076079001650214" lon="-8.529968988150358">
        <ele>136.16</ele>
        <time>2025-05-03T13:33:58Z</time>
      </trkpt>
      <trkpt lat="41.077780025079846" lon="-8.53003503754735">
        <ele>141.93000000000001</ele>
        <time>2025-05-03T13:34:12Z</time>
      </trkpt>
      <trkpt lat="41.079310979694128" lon="-8.530198987573385">
        <ele>136.63999999999999</ele>
        <time>2025-05-03T13:34:25Z</time>
      </trkpt>
      <trkpt lat="41.080562984570861" lon="-8.530601989477873">
        <ele>131.36000000000001</ele>
        <time>2025-05-03T13:34:36Z</time>
      </trkpt>
      <trkpt lat="41.08176201581955" lon="-8.530856966972351">
        <ele>123.19</ele>
        <time>2025-05-03T13:34:46Z</time>
      </trkpt>
      <trkpt lat="41.082027973607183" lon="-8.530816985294223">
        <ele>121.26000000000001</ele>
        <time>2025-05-03T13:34:48Z</time>
      </trkpt>
      <trkpt lat="41.082164011895657" lon="-8.530792007222772">
        <ele>120.78</ele>
        <time>2025-05-03T13:34:49Z</time>
      </trkpt>
      <trkpt lat="41.083463961258531" lon="-8.530781026929617">
        <ele>121.73999999999999</ele>
        <time>2025-05-03T13:35:00Z</time>
      </trkpt>
      <trkpt lat="41.085147969424725" lon="-8.530797036364675">
        <ele>122.70999999999999</ele>
        <time>2025-05-03T13:35:14Z</time>
      </trkpt>
      <trkpt lat="41.086316993460059" lon="-8.531066011637449">
        <ele>122.70999999999999</ele>
        <time>2025-05-03T13:35:24Z</time>
      </trkpt>
      <trkpt lat="41.087733032181859" lon="-8.531528022140265">
        <ele>121.26000000000001</ele>
        <time>2025-05-03T13:35:36Z</time>
      </trkpt>
      <trkpt lat="41.088957963511348" lon="-8.53216496296227">
        <ele>122.22</ele>
        <time>2025-05-03T13:35:47Z</time>
      </trkpt>
      <trkpt lat="41.089135995134711" lon="-8.532379036769271">
        <ele>122.22</ele>
        <time>2025-05-03T13:35:49Z</time>
      </trkpt>
      <trkpt lat="41.089719040319324" lon="-8.533552000299096">
        <ele>119.81999999999999</ele>
        <time>2025-05-03T13:35:58Z</time>
      </trkpt>
      <trkpt lat="41.090015005320311" lon="-8.534853961318731">
        <ele>117.42</ele>
        <time>2025-05-03T13:36:07Z</time>
      </trkpt>
      <trkpt lat="41.090021962299943" lon="-8.535185968503356">
        <ele>116.94</ele>
        <time>2025-05-03T13:36:10Z</time>
      </trkpt>
      <trkpt lat="41.09003696590662" lon="-8.535302979871631">
        <ele>116.45999999999999</ele>
        <time>2025-05-03T13:36:11Z</time>
      </trkpt>
      <trkpt lat="41.090086000040174" lon="-8.535462990403175">
        <ele>116.45999999999999</ele>
        <time>2025-05-03T13:36:12Z</time>
      </trkpt>
      <trkpt lat="41.090621016919613" lon="-8.536700997501612">
        <ele>115.01000000000001</ele>
        <time>2025-05-03T13:36:20Z</time>
      </trkpt>
      <trkpt lat="41.090964004397392" lon="-8.537839008495212">
        <ele>113.09</ele>
        <time>2025-05-03T13:36:28Z</time>
      </trkpt>
      <trkpt lat="41.091488040983677" lon="-8.539630975574255">
        <ele>110.20999999999999</ele>
        <time>2025-05-03T13:36:41Z</time>
      </trkpt>
      <trkpt lat="41.091957008466125" lon="-8.541238959878683">
        <ele>106.84</ele>
        <time>2025-05-03T13:36:52Z</time>
      </trkpt>
      <trkpt lat="41.092348024249077" lon="-8.542593978345394">
        <ele>103.48</ele>
        <time>2025-05-03T13:37:02Z</time>
      </trkpt>
      <trkpt lat="41.092853033915162" lon="-8.544402038678527">
        <ele>99.629999999999995</ele>
        <time>2025-05-03T13:37:14Z</time>
      </trkpt>
      <trkpt lat="41.093328958377242" lon="-8.54602100327611">
        <ele>98.670000000000002</ele>
        <time>2025-05-03T13:37:25Z</time>
      </trkpt>
      <trkpt lat="41.093930024653673" lon="-8.548135003075004">
        <ele>96.269999999999996</ele>
        <time>2025-05-03T13:37:39Z</time>
      </trkpt>
      <trkpt lat="41.094401003792882" lon="-8.549725972115994">
        <ele>94.349999999999994</ele>
        <time>2025-05-03T13:37:50Z</time>
      </trkpt>
      <trkpt lat="41.094484990462661" lon="-8.549968041479588">
        <ele>92.420000000000002</ele>
        <time>2025-05-03T13:37:55Z</time>
      </trkpt>
      <trkpt lat="41.094490019604564" lon="-8.549981033429503">
        <ele>92.420000000000002</ele>
        <time>2025-05-03T13:37:56Z</time>
      </trkpt>
      <trkpt lat="41.094653969630599" lon="-8.550105001777411">
        <ele>91.459999999999994</ele>
        <time>2025-05-03T13:37:58Z</time>
      </trkpt>
      <trkpt lat="41.094575012102723" lon="-8.550259983167052">
        <ele>91.459999999999994</ele>
        <time>2025-05-03T13:37:59Z</time>
      </trkpt>
      <trkpt lat="41.09458900988102" lon="-8.55033902451396">
        <ele>90.980000000000004</ele>
        <time>2025-05-03T13:38:00Z</time>
      </trkpt>
      <trkpt lat="41.094618011265993" lon="-8.550451006740332">
        <ele>90.5</ele>
        <time>2025-05-03T13:38:01Z</time>
      </trkpt>
      <trkpt lat="41.094661010429263" lon="-8.550582015886903">
        <ele>90.019999999999996</ele>
        <time>2025-05-03T13:38:02Z</time>
      </trkpt>
      <trkpt lat="41.094692023470998" lon="-8.550701960921288">
        <ele>89.540000000000006</ele>
        <time>2025-05-03T13:38:03Z</time>
      </trkpt>
      <trkpt lat="41.094727981835604" lon="-8.550843028351665">
        <ele>88.579999999999998</ele>
        <time>2025-05-03T13:38:04Z</time>
      </trkpt>
      <trkpt lat="41.094767041504383" lon="-8.550991974771023">
        <ele>87.620000000000005</ele>
        <time>2025-05-03T13:38:05Z</time>
      </trkpt>
      <trkpt lat="41.095232991501689" lon="-8.552641030400991">
        <ele>81.370000000000005</ele>
        <time>2025-05-03T13:38:16Z</time>
      </trkpt>
      <trkpt lat="41.09570698812604" lon="-8.554283967241645">
        <ele>73.200000000000003</ele>
        <time>2025-05-03T13:38:26Z</time>
      </trkpt>
      <trkpt lat="41.096095992252231" lon="-8.555634962394834">
        <ele>68.390000000000001</ele>
        <time>2025-05-03T13:38:33Z</time>
      </trkpt>
      <trkpt lat="41.096150977537036" lon="-8.555827997624874">
        <ele>67.430000000000007</ele>
        <time>2025-05-03T13:38:34Z</time>
      </trkpt>
      <trkpt lat="41.096323980018497" lon="-8.556398972868919">
        <ele>65.030000000000001</ele>
        <time>2025-05-03T13:38:37Z</time>
      </trkpt>
      <trkpt lat="41.096381982788444" lon="-8.556594019755721">
        <ele>64.549999999999997</ele>
        <time>2025-05-03T13:38:38Z</time>
      </trkpt>
      <trkpt lat="41.096548028290272" lon="-8.557175975292921">
        <ele>64.069999999999993</ele>
        <time>2025-05-03T13:38:41Z</time>
      </trkpt>
      <trkpt lat="41.096602007746696" lon="-8.557362975552678">
        <ele>64.069999999999993</ele>
        <time>2025-05-03T13:38:42Z</time>
      </trkpt>
      <trkpt lat="41.096812980249524" lon="-8.558128997683525">
        <ele>63.579999999999998</ele>
        <time>2025-05-03T13:38:46Z</time>
      </trkpt>
      <trkpt lat="41.097171977162361" lon="-8.559373039752245">
        <ele>61.18</ele>
        <time>2025-05-03T13:38:54Z</time>
      </trkpt>
      <trkpt lat="41.097629964351654" lon="-8.560969037935138">
        <ele>63.579999999999998</ele>
        <time>2025-05-03T13:39:05Z</time>
      </trkpt>
      <trkpt lat="41.098105972632766" lon="-8.562612980604172">
        <ele>70.310000000000002</ele>
        <time>2025-05-03T13:39:16Z</time>
      </trkpt>
      <trkpt lat="41.098602013662457" lon="-8.564341999590397">
        <ele>72.239999999999995</ele>
        <time>2025-05-03T13:39:27Z</time>
      </trkpt>
      <trkpt lat="41.098855985328555" lon="-8.565211035311222">
        <ele>69.349999999999994</ele>
        <time>2025-05-03T13:39:33Z</time>
      </trkpt>
      <trkpt lat="41.098899990320206" lon="-8.565345983952284">
        <ele>68.870000000000005</ele>
        <time>2025-05-03T13:39:34Z</time>
      </trkpt>
      <trkpt lat="41.098946006968617" lon="-8.56548797339201">
        <ele>68.390000000000001</ele>
        <time>2025-05-03T13:39:35Z</time>
      </trkpt>
      <trkpt lat="41.098990011960268" lon="-8.565627029165626">
        <ele>67.430000000000007</ele>
        <time>2025-05-03T13:39:36Z</time>
      </trkpt>
      <trkpt lat="41.09903996810317" lon="-8.565757032483816">
        <ele>66.950000000000003</ele>
        <time>2025-05-03T13:39:37Z</time>
      </trkpt>
      <trkpt lat="41.09910199418664" lon="-8.565889969468117">
        <ele>66.469999999999999</ele>
        <time>2025-05-03T13:39:38Z</time>
      </trkpt>
      <trkpt lat="41.099164020270109" lon="-8.566021984443069">
        <ele>65.989999999999995</ele>
        <time>2025-05-03T13:39:39Z</time>
      </trkpt>
      <trkpt lat="41.099239038303494" lon="-8.566134972497821">
        <ele>65.510000000000005</ele>
        <time>2025-05-03T13:39:40Z</time>
      </trkpt>
      <trkpt lat="41.099524023011327" lon="-8.566477037966251">
        <ele>64.069999999999993</ele>
        <time>2025-05-03T13:39:43Z</time>
      </trkpt>
      <trkpt lat="41.099624019116163" lon="-8.566592959687114">
        <ele>64.069999999999993</ele>
        <time>2025-05-03T13:39:44Z</time>
      </trkpt>
      <trkpt lat="41.099979998543859" lon="-8.566823964938521">
        <ele>64.069999999999993</ele>
        <time>2025-05-03T13:39:47Z</time>
      </trkpt>
      <trkpt lat="41.100913994014263" lon="-8.567153038457036">
        <ele>70.310000000000002</ele>
        <time>2025-05-03T13:39:55Z</time>
      </trkpt>
      <trkpt lat="41.101019019261003" lon="-8.567079026252031">
        <ele>71.269999999999996</ele>
        <time>2025-05-03T13:39:56Z</time>
      </trkpt>
      <trkpt lat="41.10112002119422" lon="-8.567052958533168">
        <ele>71.760000000000005</ele>
        <time>2025-05-03T13:39:57Z</time>
      </trkpt>
      <trkpt lat="41.10124901868403" lon="-8.567019011825323">
        <ele>72.719999999999999</ele>
        <time>2025-05-03T13:39:58Z</time>
      </trkpt>
      <trkpt lat="41.101313978433609" lon="-8.56694701127708">
        <ele>73.680000000000007</ele>
        <time>2025-05-03T13:39:59Z</time>
      </trkpt>
      <trkpt lat="41.101411040872335" lon="-8.566838968545198">
        <ele>74.640000000000001</ele>
        <time>2025-05-03T13:40:00Z</time>
      </trkpt>
      <trkpt lat="41.101511958986521" lon="-8.566727992147207">
        <ele>76.079999999999998</ele>
        <time>2025-05-03T13:40:01Z</time>
      </trkpt>
      <trkpt lat="41.101828962564468" lon="-8.566451976075769">
        <ele>79.450000000000003</ele>
        <time>2025-05-03T13:40:04Z</time>
      </trkpt>
      <trkpt lat="41.101946979761124" lon="-8.566404031589627">
        <ele>80.890000000000001</ele>
        <time>2025-05-03T13:40:05Z</time>
      </trkpt>
      <trkpt lat="41.102064996957779" lon="-8.566379975527525">
        <ele>82.329999999999998</ele>
        <time>2025-05-03T13:40:06Z</time>
      </trkpt>
      <trkpt lat="41.102185025811195" lon="-8.566394979134202">
        <ele>83.769999999999996</ele>
        <time>2025-05-03T13:40:07Z</time>
      </trkpt>
      <trkpt lat="41.102286027744412" lon="-8.566462034359574">
        <ele>85.209999999999994</ele>
        <time>2025-05-03T13:40:08Z</time>
      </trkpt>
      <trkpt lat="41.10239096917212" lon="-8.566535040736198">
        <ele>86.659999999999997</ele>
        <time>2025-05-03T13:40:09Z</time>
      </trkpt>
      <trkpt lat="41.102457018569112" lon="-8.566635958850384">
        <ele>88.099999999999994</ele>
        <time>2025-05-03T13:40:10Z</time>
      </trkpt>
      <trkpt lat="41.102565983310342" lon="-8.566768979653716">
        <ele>89.060000000000002</ele>
        <time>2025-05-03T13:40:11Z</time>
      </trkpt>
      <trkpt lat="41.102661034092307" lon="-8.566822037100792">
        <ele>90.5</ele>
        <time>2025-05-03T13:40:12Z</time>
      </trkpt>
      <trkpt lat="41.102858008816838" lon="-8.566933013498783">
        <ele>91.939999999999998</ele>
        <time>2025-05-03T13:40:14Z</time>
      </trkpt>
      <trkpt lat="41.102963034063578" lon="-8.566940976306796">
        <ele>92.420000000000002</ele>
        <time>2025-05-03T13:40:15Z</time>
      </trkpt>
      <trkpt lat="41.103059006854892" lon="-8.56694801710546">
        <ele>92.420000000000002</ele>
        <time>2025-05-03T13:40:16Z</time>
      </trkpt>
      <trkpt lat="41.103149028494954" lon="-8.566949022933841">
        <ele>92.900000000000006</ele>
        <time>2025-05-03T13:40:17Z</time>
      </trkpt>
      <trkpt lat="41.103246007114649" lon="-8.566907029598951">
        <ele>92.900000000000006</ele>
        <time>2025-05-03T13:40:18Z</time>
      </trkpt>
      <trkpt lat="41.104101967066526" lon="-8.566537974402309">
        <ele>92.900000000000006</ele>
        <time>2025-05-03T13:40:24Z</time>
      </trkpt>
      <trkpt lat="41.106053022667766" lon="-8.56574596837163">
        <ele>89.060000000000002</ele>
        <time>2025-05-03T13:40:34Z</time>
      </trkpt>
      <trkpt lat="41.107507031410933" lon="-8.565470036119223">
        <ele>87.140000000000001</ele>
        <time>2025-05-03T13:40:41Z</time>
      </trkpt>
      <trkpt lat="41.109049972146749" lon="-8.565761977806687">
        <ele>83.769999999999996</ele>
        <time>2025-05-03T13:40:48Z</time>
      </trkpt>
      <trkpt lat="41.110613029450178" lon="-8.566697984933853">
        <ele>80.409999999999997</ele>
        <time>2025-05-03T13:40:55Z</time>
      </trkpt>
      <trkpt lat="41.11220701597631" lon="-8.56813196092844">
        <ele>75.120000000000005</ele>
        <time>2025-05-03T13:41:03Z</time>
      </trkpt>
      <trkpt lat="41.113723972812295" lon="-8.569521009922028">
        <ele>70.790000000000006</ele>
        <time>2025-05-03T13:41:11Z</time>
      </trkpt>
      <trkpt lat="41.115019982680678" lon="-8.570675030350685">
        <ele>69.829999999999998</ele>
        <time>2025-05-03T13:41:18Z</time>
      </trkpt>
      <trkpt lat="41.116655040532351" lon="-8.571667028591037">
        <ele>66.469999999999999</ele>
        <time>2025-05-03T13:41:26Z</time>
      </trkpt>
      <trkpt lat="41.118179038167" lon="-8.571970034390688">
        <ele>61.18</ele>
        <time>2025-05-03T13:41:33Z</time>
      </trkpt>
      <trkpt lat="41.120463022962213" lon="-8.572329031303525">
        <ele>54.450000000000003</ele>
        <time>2025-05-03T13:41:43Z</time>
      </trkpt>
      <trkpt lat="41.122423969209194" lon="-8.572923978790641">
        <ele>53.490000000000002</ele>
        <time>2025-05-03T13:41:52Z</time>
      </trkpt>
      <trkpt lat="41.124616004526615" lon="-8.573635015636683">
        <ele>58.299999999999997</ele>
        <time>2025-05-03T13:42:02Z</time>
      </trkpt>
      <trkpt lat="41.126030031591654" lon="-8.574098031967878">
        <ele>59.259999999999998</ele>
        <time>2025-05-03T13:42:09Z</time>
      </trkpt>
      <trkpt lat="41.127705993130803" lon="-8.574893977493048">
        <ele>62.140000000000001</ele>
        <time>2025-05-03T13:42:18Z</time>
      </trkpt>
      <trkpt lat="41.129611032083631" lon="-8.575817998498678">
        <ele>62.619999999999997</ele>
        <time>2025-05-03T13:42:27Z</time>
      </trkpt>
      <trkpt lat="41.129836002364755" lon="-8.575858986005187">
        <ele>62.619999999999997</ele>
        <time>2025-05-03T13:42:28Z</time>
      </trkpt>
      <trkpt lat="41.131704999133945" lon="-8.576174983754754">
        <ele>60.700000000000003</ele>
        <time>2025-05-03T13:42:37Z</time>
      </trkpt>
      <trkpt lat="41.133653037250042" lon="-8.576554013416171">
        <ele>52.530000000000001</ele>
        <time>2025-05-03T13:42:47Z</time>
      </trkpt>
      <trkpt lat="41.134894983842969" lon="-8.577415002509952">
        <ele>44.840000000000003</ele>
        <time>2025-05-03T13:42:54Z</time>
      </trkpt>
      <trkpt lat="41.135490015149117" lon="-8.578132996335626">
        <ele>40.030000000000001</ele>
        <time>2025-05-03T13:42:58Z</time>
      </trkpt>
      <trkpt lat="41.13609803840518" lon="-8.578940005972982">
        <ele>35.229999999999997</ele>
        <time>2025-05-03T13:43:03Z</time>
      </trkpt>
      <trkpt lat="41.136221000924706" lon="-8.579032039269805">
        <ele>34.259999999999998</ele>
        <time>2025-05-03T13:43:04Z</time>
      </trkpt>
      <trkpt lat="41.136339018121362" lon="-8.579112002626061">
        <ele>33.780000000000001</ele>
        <time>2025-05-03T13:43:05Z</time>
      </trkpt>
      <trkpt lat="41.136467009782791" lon="-8.579163970425725">
        <ele>33.299999999999997</ele>
        <time>2025-05-03T13:43:06Z</time>
      </trkpt>
      <trkpt lat="41.136603970080614" lon="-8.579159025102854">
        <ele>32.82</ele>
        <time>2025-05-03T13:43:07Z</time>
      </trkpt>
      <trkpt lat="41.136744031682611" lon="-8.579153995960951">
        <ele>32.340000000000003</ele>
        <time>2025-05-03T13:43:08Z</time>
      </trkpt>
      <trkpt lat="41.136883003637195" lon="-8.579148966819048">
        <ele>31.859999999999999</ele>
        <time>2025-05-03T13:43:09Z</time>
      </trkpt>
      <trkpt lat="41.137149967253208" lon="-8.579160030931234">
        <ele>30.899999999999999</ele>
        <time>2025-05-03T13:43:11Z</time>
      </trkpt>
      <trkpt lat="41.137277036905289" lon="-8.579193977639079">
        <ele>30.420000000000002</ele>
        <time>2025-05-03T13:43:12Z</time>
      </trkpt>
      <trkpt lat="41.137405028566718" lon="-8.579228008165956">
        <ele>29.460000000000001</ele>
        <time>2025-05-03T13:43:13Z</time>
      </trkpt>
      <trkpt lat="41.13749798387289" lon="-8.579314006492496">
        <ele>28.5</ele>
        <time>2025-05-03T13:43:14Z</time>
      </trkpt>
      <trkpt lat="41.137595968320966" lon="-8.579405033960939">
        <ele>28.02</ele>
        <time>2025-05-03T13:43:15Z</time>
      </trkpt>
      <trkpt lat="41.137696970254183" lon="-8.579500000923872">
        <ele>27.050000000000001</ele>
        <time>2025-05-03T13:43:16Z</time>
      </trkpt>
      <trkpt lat="41.137772994115949" lon="-8.579652970656753">
        <ele>26.57</ele>
        <time>2025-05-03T13:43:17Z</time>
      </trkpt>
      <trkpt lat="41.137855974957347" lon="-8.579828990623355">
        <ele>26.09</ele>
        <time>2025-05-03T13:43:18Z</time>
      </trkpt>
      <trkpt lat="41.137898974120617" lon="-8.580001993104816">
        <ele>25.129999999999999</ele>
        <time>2025-05-03T13:43:19Z</time>
      </trkpt>
      <trkpt lat="41.137920012697577" lon="-8.580212965607643">
        <ele>24.649999999999999</ele>
        <time>2025-05-03T13:43:20Z</time>
      </trkpt>
      <trkpt lat="41.137920012697577" lon="-8.580425027757883">
        <ele>23.690000000000001</ele>
        <time>2025-05-03T13:43:21Z</time>
      </trkpt>
      <trkpt lat="41.137899979948997" lon="-8.580641029402614">
        <ele>23.210000000000001</ele>
        <time>2025-05-03T13:43:22Z</time>
      </trkpt>
      <trkpt lat="41.137820016592741" lon="-8.580834986642003">
        <ele>22.73</ele>
        <time>2025-05-03T13:43:23Z</time>
      </trkpt>
      <trkpt lat="41.137724965810776" lon="-8.581007989123464">
        <ele>22.73</ele>
        <time>2025-05-03T13:43:24Z</time>
      </trkpt>
      <trkpt lat="41.137619018554687" lon="-8.581159031018615">
        <ele>22.25</ele>
        <time>2025-05-03T13:43:25Z</time>
      </trkpt>
      <trkpt lat="41.137491026893258" lon="-8.581266989931464">
        <ele>22.73</ele>
        <time>2025-05-03T13:43:26Z</time>
      </trkpt>
      <trkpt lat="41.137329004704952" lon="-8.581356005743146">
        <ele>22.73</ele>
        <time>2025-05-03T13:43:27Z</time>
      </trkpt>
      <trkpt lat="41.137172011658549" lon="-8.581443009898067">
        <ele>23.210000000000001</ele>
        <time>2025-05-03T13:43:28Z</time>
      </trkpt>
      <trkpt lat="41.137009989470243" lon="-8.581533031538129">
        <ele>24.170000000000002</ele>
        <time>2025-05-03T13:43:29Z</time>
      </trkpt>
      <trkpt lat="41.135453972965479" lon="-8.582520000636578">
        <ele>35.229999999999997</ele>
        <time>2025-05-03T13:43:39Z</time>
      </trkpt>
      <trkpt lat="41.135322041809559" lon="-8.582644974812865">
        <ele>36.189999999999998</ele>
        <time>2025-05-03T13:43:40Z</time>
      </trkpt>
      <trkpt lat="41.135193966329098" lon="-8.582789981737733">
        <ele>37.149999999999999</ele>
        <time>2025-05-03T13:43:41Z</time>
      </trkpt>
      <trkpt lat="41.134288972243667" lon="-8.584451023489237">
        <ele>45.799999999999997</ele>
        <time>2025-05-03T13:43:50Z</time>
      </trkpt>
      <trkpt lat="41.132943006232381" lon="-8.587131975218654">
        <ele>56.369999999999997</ele>
        <time>2025-05-03T13:44:03Z</time>
      </trkpt>
      <trkpt lat="41.131721008569002" lon="-8.589563984423876">
        <ele>64.069999999999993</ele>
        <time>2025-05-03T13:44:14Z</time>
      </trkpt>
      <trkpt lat="41.130927996709943" lon="-8.590830992907286">
        <ele>66.950000000000003</ele>
        <time>2025-05-03T13:44:21Z</time>
      </trkpt>
      <trkpt lat="41.130560031160712" lon="-8.591372966766357">
        <ele>66.950000000000003</ele>
        <time>2025-05-03T13:44:25Z</time>
      </trkpt>
      <trkpt lat="41.1305330414325" lon="-8.591588968411088">
        <ele>66.469999999999999</ele>
        <time>2025-05-03T13:44:26Z</time>
      </trkpt>
      <trkpt lat="41.130510997027159" lon="-8.591760965064168">
        <ele>65.989999999999995</ele>
        <time>2025-05-03T13:44:27Z</time>
      </trkpt>
      <trkpt lat="41.130488030612469" lon="-8.591946037486196">
        <ele>65.030000000000001</ele>
        <time>2025-05-03T13:44:28Z</time>
      </trkpt>
      <trkpt lat="41.130463974550366" lon="-8.592136977240443">
        <ele>64.549999999999997</ele>
        <time>2025-05-03T13:44:29Z</time>
      </trkpt>
      <trkpt lat="41.130440002307296" lon="-8.592329006642103">
        <ele>64.549999999999997</ele>
        <time>2025-05-03T13:44:30Z</time>
      </trkpt>
      <trkpt lat="41.130366995930672" lon="-8.592670988291502">
        <ele>64.549999999999997</ele>
        <time>2025-05-03T13:44:32Z</time>
      </trkpt>
      <trkpt lat="41.130326008424163" lon="-8.592847008258104">
        <ele>64.549999999999997</ele>
        <time>2025-05-03T13:44:33Z</time>
      </trkpt>
      <trkpt lat="41.130251996219158" lon="-8.592979023233056">
        <ele>64.549999999999997</ele>
        <time>2025-05-03T13:44:34Z</time>
      </trkpt>
      <trkpt lat="41.130163986235857" lon="-8.593134004622698">
        <ele>64.549999999999997</ele>
        <time>2025-05-03T13:44:35Z</time>
      </trkpt>
      <trkpt lat="41.130073964595795" lon="-8.593290997669101">
        <ele>64.549999999999997</ele>
        <time>2025-05-03T13:44:36Z</time>
      </trkpt>
      <trkpt lat="41.129163019359112" lon="-8.59457896091044">
        <ele>65.510000000000005</ele>
        <time>2025-05-03T13:44:45Z</time>
      </trkpt>
      <trkpt lat="41.128751970827579" lon="-8.594927983358502">
        <ele>66.469999999999999</ele>
        <time>2025-05-03T13:44:49Z</time>
      </trkpt>
      <trkpt lat="41.128629008308053" lon="-8.594999983906746">
        <ele>66.469999999999999</ele>
        <time>2025-05-03T13:44:50Z</time>
      </trkpt>
      <trkpt lat="41.128502022475004" lon="-8.595069972798228">
        <ele>66.469999999999999</ele>
        <time>2025-05-03T13:44:51Z</time>
      </trkpt>
      <trkpt lat="41.127682020887733" lon="-8.595344983041287">
        <ele>67.430000000000007</ele>
        <time>2025-05-03T13:44:57Z</time>
      </trkpt>
      <trkpt lat="41.126783983781934" lon="-8.595636002719402">
        <ele>68.390000000000001</ele>
        <time>2025-05-03T13:45:05Z</time>
      </trkpt>
      <trkpt lat="41.126681976020336" lon="-8.59567497856915">
        <ele>68.390000000000001</ele>
        <time>2025-05-03T13:45:06Z</time>
      </trkpt>
      <trkpt lat="41.126246033236384" lon="-8.595883017405868">
        <ele>69.349999999999994</ele>
        <time>2025-05-03T13:45:10Z</time>
      </trkpt>
      <trkpt lat="41.12612902186811" lon="-8.595969015732408">
        <ele>70.310000000000002</ele>
        <time>2025-05-03T13:45:11Z</time>
      </trkpt>
      <trkpt lat="41.125167030841112" lon="-8.596371011808515">
        <ele>76.079999999999998</ele>
        <time>2025-05-03T13:45:21Z</time>
      </trkpt>
      <trkpt lat="41.124975001439452" lon="-8.596531022340059">
        <ele>76.079999999999998</ele>
        <time>2025-05-03T13:45:25Z</time>
      </trkpt>
      <trkpt lat="41.124934013932943" lon="-8.596574021503329">
        <ele>75.599999999999994</ele>
        <time>2025-05-03T13:45:26Z</time>
      </trkpt>
      <trkpt lat="41.124881962314248" lon="-8.596635041758418">
        <ele>75.120000000000005</ele>
        <time>2025-05-03T13:45:27Z</time>
      </trkpt>
      <trkpt lat="41.124831000342965" lon="-8.596729002892971">
        <ele>75.120000000000005</ele>
        <time>2025-05-03T13:45:28Z</time>
      </trkpt>
      <trkpt lat="41.124838041141629" lon="-8.596844002604485">
        <ele>75.120000000000005</ele>
        <time>2025-05-03T13:45:29Z</time>
      </trkpt>
      <trkpt lat="41.124852038919926" lon="-8.596974005922675">
        <ele>75.120000000000005</ele>
        <time>2025-05-03T13:45:30Z</time>
      </trkpt>
      <trkpt lat="41.1248620133847" lon="-8.597066961228848">
        <ele>75.120000000000005</ele>
        <time>2025-05-03T13:45:31Z</time>
      </trkpt>
      <trkpt lat="41.124900989234447" lon="-8.597448002547026">
        <ele>78</ele>
        <time>2025-05-03T13:45:36Z</time>
      </trkpt>
      <trkpt lat="41.124910041689873" lon="-8.597527965903282">
        <ele>78.480000000000004</ele>
        <time>2025-05-03T13:45:37Z</time>
      </trkpt>
      <trkpt lat="41.124958992004395" lon="-8.597831977531314">
        <ele>81.370000000000005</ele>
        <time>2025-05-03T13:45:41Z</time>
      </trkpt>
      <trkpt lat="41.12497097812593" lon="-8.59797396697104">
        <ele>82.810000000000002</ele>
        <time>2025-05-03T13:45:43Z</time>
      </trkpt>
      <trkpt lat="41.124977013096213" lon="-8.598046973347664">
        <ele>83.769999999999996</ele>
        <time>2025-05-03T13:45:44Z</time>
      </trkpt>
      <trkpt lat="41.125130988657475" lon="-8.598154010251164">
        <ele>84.730000000000004</ele>
        <time>2025-05-03T13:45:45Z</time>
      </trkpt>
      <trkpt lat="41.12514297477901" lon="-8.598172031342983">
        <ele>85.209999999999994</ele>
        <time>2025-05-03T13:45:46Z</time>
      </trkpt>
      <trkpt lat="41.125189997255802" lon="-8.598242020234466">
        <ele>85.689999999999998</ele>
        <time>2025-05-03T13:45:47Z</time>
      </trkpt>
      <trkpt lat="41.125216986984015" lon="-8.598282001912594">
        <ele>86.180000000000007</ele>
        <time>2025-05-03T13:45:48Z</time>
      </trkpt>
      <trkpt lat="41.125367023050785" lon="-8.598348973318934">
        <ele>87.620000000000005</ele>
        <time>2025-05-03T13:45:50Z</time>
      </trkpt>
      <trkpt lat="41.125426031649113" lon="-8.598365988582373">
        <ele>88.099999999999994</ele>
        <time>2025-05-03T13:45:51Z</time>
      </trkpt>
      <trkpt lat="41.1261519882828" lon="-8.598239002749324">
        <ele>85.689999999999998</ele>
        <time>2025-05-03T13:46:00Z</time>
      </trkpt>
      <trkpt lat="41.127061005681753" lon="-8.598095001652837">
        <ele>79.930000000000007</ele>
        <time>2025-05-03T13:46:09Z</time>
      </trkpt>
      <trkpt lat="41.127642039209604" lon="-8.598002968356013">
        <ele>75.120000000000005</ele>
        <time>2025-05-03T13:46:15Z</time>
      </trkpt>
      <trkpt lat="41.12862397916615" lon="-8.597833989188075">
        <ele>69.829999999999998</ele>
        <time>2025-05-03T13:46:23Z</time>
      </trkpt>
      <trkpt lat="41.1295469943434" lon="-8.597661992534995">
        <ele>64.069999999999993</ele>
        <time>2025-05-03T13:46:31Z</time>
      </trkpt>
      <trkpt lat="41.129662999883294" lon="-8.597641037777066">
        <ele>63.579999999999998</ele>
        <time>2025-05-03T13:46:32Z</time>
      </trkpt>
      <trkpt lat="41.129882019013166" lon="-8.5975650139153">
        <ele>61.659999999999997</ele>
        <time>2025-05-03T13:46:34Z</time>
      </trkpt>
      <trkpt lat="41.130247972905636" lon="-8.597341971471906">
        <ele>58.299999999999997</ele>
        <time>2025-05-03T13:46:38Z</time>
      </trkpt>
      <trkpt lat="41.130493981763721" lon="-8.597105015069246">
        <ele>54.93</ele>
        <time>2025-05-03T13:46:42Z</time>
      </trkpt>
      <trkpt lat="41.130537986755371" lon="-8.597050029784441">
        <ele>54.450000000000003</ele>
        <time>2025-05-03T13:46:43Z</time>
      </trkpt>
      <trkpt lat="41.130581991747022" lon="-8.596983980387449">
        <ele>53.969999999999999</ele>
        <time>2025-05-03T13:46:44Z</time>
      </trkpt>
      <trkpt lat="41.130590038374066" lon="-8.596902005374432">
        <ele>53.490000000000002</ele>
        <time>2025-05-03T13:46:45Z</time>
      </trkpt>
      <trkpt lat="41.130598001182079" lon="-8.596815001219511">
        <ele>52.530000000000001</ele>
        <time>2025-05-03T13:46:46Z</time>
      </trkpt>
      <trkpt lat="41.130628008395433" lon="-8.596721962094307">
        <ele>52.049999999999997</ele>
        <time>2025-05-03T13:46:47Z</time>
      </trkpt>
      <trkpt lat="41.130674025043845" lon="-8.596657002344728">
        <ele>51.57</ele>
        <time>2025-05-03T13:46:48Z</time>
      </trkpt>
      <trkpt lat="41.130720041692257" lon="-8.596591958776116">
        <ele>51.57</ele>
        <time>2025-05-03T13:46:49Z</time>
      </trkpt>
      <trkpt lat="41.130800005048513" lon="-8.596557006239891">
        <ele>51.090000000000003</ele>
        <time>2025-05-03T13:46:50Z</time>
      </trkpt>
      <trkpt lat="41.130869993939996" lon="-8.59657603316009">
        <ele>51.090000000000003</ele>
        <time>2025-05-03T13:46:51Z</time>
      </trkpt>
      <trkpt lat="41.130949035286903" lon="-8.5965979937464">
        <ele>51.090000000000003</ele>
        <time>2025-05-03T13:46:52Z</time>
      </trkpt>
      <trkpt lat="41.131011983379722" lon="-8.596653984859586">
        <ele>51.090000000000003</ele>
        <time>2025-05-03T13:46:53Z</time>
      </trkpt>
      <trkpt lat="41.131053976714611" lon="-8.596737971529365">
        <ele>51.090000000000003</ele>
        <time>2025-05-03T13:46:54Z</time>
      </trkpt>
      <trkpt lat="41.131075015291572" lon="-8.596779964864254">
        <ele>51.090000000000003</ele>
        <time>2025-05-03T13:46:55Z</time>
      </trkpt>
      <trkpt lat="41.13115799613297" lon="-8.596978029236198">
        <ele>50.609999999999999</ele>
        <time>2025-05-03T13:46:56Z</time>
      </trkpt>
      <trkpt lat="41.13122396171093" lon="-8.59700501896441">
        <ele>50.609999999999999</ele>
        <time>2025-05-03T13:46:57Z</time>
      </trkpt>
      <trkpt lat="41.131296968087554" lon="-8.597035026177764">
        <ele>51.090000000000003</ele>
        <time>2025-05-03T13:46:58Z</time>
      </trkpt>
      <trkpt lat="41.13137299194932" lon="-8.597066961228848">
        <ele>50.609999999999999</ele>
        <time>2025-05-03T13:46:59Z</time>
      </trkpt>
      <trkpt lat="41.131619000807405" lon="-8.597171986475587">
        <ele>51.090000000000003</ele>
        <time>2025-05-03T13:47:02Z</time>
      </trkpt>
      <trkpt lat="41.131859980523586" lon="-8.597343983128667">
        <ele>51.090000000000003</ele>
        <time>2025-05-03T13:47:05Z</time>
      </trkpt>
      <trkpt lat="41.132001969963312" lon="-8.597497036680579">
        <ele>51.090000000000003</ele>
        <time>2025-05-03T13:47:07Z</time>
      </trkpt>
      <trkpt lat="41.132148988544941" lon="-8.597683031111956">
        <ele>51.090000000000003</ele>
        <time>2025-05-03T13:47:09Z</time>
      </trkpt>
      <trkpt lat="41.132202968001366" lon="-8.597798030823469">
        <ele>51.090000000000003</ele>
        <time>2025-05-03T13:47:10Z</time>
      </trkpt>
      <trkpt lat="41.132307993248105" lon="-8.598018977791071">
        <ele>49.649999999999999</ele>
        <time>2025-05-03T13:47:12Z</time>
      </trkpt>
      <trkpt lat="41.132358033210039" lon="-8.598128026351333">
        <ele>48.68</ele>
        <time>2025-05-03T13:47:13Z</time>
      </trkpt>
      <trkpt lat="41.132603036239743" lon="-8.598689027130604">
        <ele>46.759999999999998</ele>
        <time>2025-05-03T13:47:20Z</time>
      </trkpt>
      <trkpt lat="41.132603036239743" lon="-8.598689027130604">
        <ele>46.280000000000001</ele>
        <time>2025-05-03T13:47:31Z</time>
      </trkpt>
      <trkpt lat="41.132716024294496" lon="-8.598950039595366">
        <ele>46.280000000000001</ele>
        <time>2025-05-03T13:47:48Z</time>
      </trkpt>
      <trkpt lat="41.132753994315863" lon="-8.599036959931254">
        <ele>46.280000000000001</ele>
        <time>2025-05-03T13:47:49Z</time>
      </trkpt>
      <trkpt lat="41.133154984563589" lon="-8.599936002865434">
        <ele>50.130000000000003</ele>
        <time>2025-05-03T13:47:56Z</time>
      </trkpt>
      <trkpt lat="41.134018991142511" lon="-8.601745991036296">
        <ele>67.430000000000007</ele>
        <time>2025-05-03T13:48:09Z</time>
      </trkpt>
      <trkpt lat="41.134485024958849" lon="-8.602201966568828">
        <ele>74.159999999999997</ele>
        <time>2025-05-03T13:48:14Z</time>
      </trkpt>
      <trkpt lat="41.134588960558176" lon="-8.602258041501045">
        <ele>75.120000000000005</ele>
        <time>2025-05-03T13:48:15Z</time>
      </trkpt>
      <trkpt lat="41.134697003290057" lon="-8.602316966280341">
        <ele>76.079999999999998</ele>
        <time>2025-05-03T13:48:16Z</time>
      </trkpt>
      <trkpt lat="41.134806973859668" lon="-8.602376980707049">
        <ele>76.560000000000002</ele>
        <time>2025-05-03T13:48:17Z</time>
      </trkpt>
      <trkpt lat="41.134924991056323" lon="-8.602430960163474">
        <ele>77.040000000000006</ele>
        <time>2025-05-03T13:48:18Z</time>
      </trkpt>
      <trkpt lat="41.135050971060991" lon="-8.602462979033589">
        <ele>77.519999999999996</ele>
        <time>2025-05-03T13:48:19Z</time>
      </trkpt>
      <trkpt lat="41.135190026834607" lon="-8.60248401761055">
        <ele>77.519999999999996</ele>
        <time>2025-05-03T13:48:20Z</time>
      </trkpt>
      <trkpt lat="41.135323969647288" lon="-8.602469014003873">
        <ele>77.519999999999996</ele>
        <time>2025-05-03T13:48:21Z</time>
      </trkpt>
      <trkpt lat="41.135456990450621" lon="-8.602454010397196">
        <ele>77.040000000000006</ele>
        <time>2025-05-03T13:48:22Z</time>
      </trkpt>
      <trkpt lat="41.135585987940431" lon="-8.602426014840603">
        <ele>77.040000000000006</ele>
        <time>2025-05-03T13:48:23Z</time>
      </trkpt>
      <trkpt lat="41.135708028450608" lon="-8.602375974878669">
        <ele>77.040000000000006</ele>
        <time>2025-05-03T13:48:24Z</time>
      </trkpt>
      <trkpt lat="41.135831996798515" lon="-8.602325012907386">
        <ele>77.519999999999996</ele>
        <time>2025-05-03T13:48:25Z</time>
      </trkpt>
      <trkpt lat="41.136597013100982" lon="-8.601895021274686">
        <ele>76.560000000000002</ele>
        <time>2025-05-03T13:48:33Z</time>
      </trkpt>
      <trkpt lat="41.136953998357058" lon="-8.601679019629955">
        <ele>75.599999999999994</ele>
        <time>2025-05-03T13:48:41Z</time>
      </trkpt>
      <trkpt lat="41.136990962550044" lon="-8.601655969396234">
        <ele>74.640000000000001</ele>
        <time>2025-05-03T13:48:52Z</time>
      </trkpt>
      <trkpt lat="41.137251975014806" lon="-8.601524038240314">
        <ele>73.680000000000007</ele>
        <time>2025-05-03T13:49:03Z</time>
      </trkpt>
      <trkpt lat="41.138048004359007" lon="-8.60115397721529">
        <ele>74.640000000000001</ele>
        <time>2025-05-03T13:49:12Z</time>
      </trkpt>
      <trkpt lat="41.138520995154977" lon="-8.601165963336825">
        <ele>75.599999999999994</ele>
        <time>2025-05-03T13:49:16Z</time>
      </trkpt>
      <trkpt lat="41.139929993078113" lon="-8.601448014378548">
        <ele>79.930000000000007</ele>
        <time>2025-05-03T13:49:28Z</time>
      </trkpt>
      <trkpt lat="41.141259027644992" lon="-8.601730987429619">
        <ele>83.769999999999996</ele>
        <time>2025-05-03T13:49:40Z</time>
      </trkpt>
      <trkpt lat="41.142767015844584" lon="-8.602030975744128">
        <ele>80.409999999999997</ele>
        <time>2025-05-03T13:49:53Z</time>
      </trkpt>
      <trkpt lat="41.142885033041239" lon="-8.602056037634611">
        <ele>79.930000000000007</ele>
        <time>2025-05-03T13:49:54Z</time>
      </trkpt>
      <trkpt lat="41.143241012468934" lon="-8.602123009040952">
        <ele>79.450000000000003</ele>
        <time>2025-05-03T13:49:57Z</time>
      </trkpt>
      <trkpt lat="41.143346037715673" lon="-8.602173971012235">
        <ele>78.969999999999999</ele>
        <time>2025-05-03T13:49:58Z</time>
      </trkpt>
      <trkpt lat="41.144218007102609" lon="-8.602595999836922">
        <ele>82.810000000000002</ele>
        <time>2025-05-03T13:50:07Z</time>
      </trkpt>
      <trkpt lat="41.144670965149999" lon="-8.602820970118046">
        <ele>86.659999999999997</ele>
        <time>2025-05-03T13:50:12Z</time>
      </trkpt>
      <trkpt lat="41.144949998706579" lon="-8.602966982871294">
        <ele>90.019999999999996</ele>
        <time>2025-05-03T13:50:16Z</time>
      </trkpt>
      <trkpt lat="41.145015964284539" lon="-8.60300000756979">
        <ele>90.5</ele>
        <time>2025-05-03T13:50:17Z</time>
      </trkpt>
      <trkpt lat="41.145084025338292" lon="-8.603034038096666">
        <ele>91.459999999999994</ele>
        <time>2025-05-03T13:50:18Z</time>
      </trkpt>
      <trkpt lat="41.145153008401394" lon="-8.603073013946414">
        <ele>91.939999999999998</ele>
        <time>2025-05-03T13:50:19Z</time>
      </trkpt>
      <trkpt lat="41.145212016999722" lon="-8.603107966482639">
        <ele>92.420000000000002</ele>
        <time>2025-05-03T13:50:20Z</time>
      </trkpt>
      <trkpt lat="41.145375967025757" lon="-8.603197988122702">
        <ele>95.790000000000006</ele>
        <time>2025-05-03T13:50:26Z</time>
      </trkpt>
      <trkpt lat="41.145516028627753" lon="-8.603261020034552">
        <ele>98.670000000000002</ele>
        <time>2025-05-03T13:50:32Z</time>
      </trkpt>
      <trkpt lat="41.145503036677837" lon="-8.60334500670433">
        <ele>99.150000000000006</ele>
        <time>2025-05-03T13:50:33Z</time>
      </trkpt>
      <trkpt lat="41.145495995879173" lon="-8.603391023352742">
        <ele>99.629999999999995</ele>
        <time>2025-05-03T13:50:34Z</time>
      </trkpt>
      <trkpt lat="41.14548996090889" lon="-8.603432010859251">
        <ele>100.11</ele>
        <time>2025-05-03T13:50:35Z</time>
      </trkpt>
      <trkpt lat="41.145483003929257" lon="-8.603480961173773">
        <ele>100.59999999999999</ele>
        <time>2025-05-03T13:50:36Z</time>
      </trkpt>
      <trkpt lat="41.145438998937607" lon="-8.603767035529017">
        <ele>100.59999999999999</ele>
        <time>2025-05-03T13:50:41Z</time>
      </trkpt>
      <trkpt lat="41.145408991724253" lon="-8.603969039395452">
        <ele>100.59999999999999</ele>
        <time>2025-05-03T13:50:42Z</time>
      </trkpt>
      <trkpt lat="41.145408991724253" lon="-8.603969039395452">
        <ele>100.11</ele>
        <time>2025-05-03T13:50:43Z</time>
      </trkpt>
      <trkpt lat="41.145360041409731" lon="-8.604205995798111">
        <ele>98.670000000000002</ele>
        <time>2025-05-03T13:50:52Z</time>
      </trkpt>
      <trkpt lat="41.145360041409731" lon="-8.604205995798111">
        <ele>98.189999999999998</ele>
        <time>2025-05-03T13:51:14Z</time>
      </trkpt>
      <trkpt lat="41.145314024761319" lon="-8.604314038529992">
        <ele>98.189999999999998</ele>
        <time>2025-05-03T13:51:28Z</time>
      </trkpt>
      <trkpt lat="41.145282005891204" lon="-8.604361983016133">
        <ele>97.709999999999994</ele>
        <time>2025-05-03T13:51:29Z</time>
      </trkpt>
      <trkpt lat="41.14525300450623" lon="-8.604399031028152">
        <ele>97.709999999999994</ele>
        <time>2025-05-03T13:51:30Z</time>
      </trkpt>
      <trkpt lat="41.145200030878186" lon="-8.604416968300939">
        <ele>97.230000000000004</ele>
        <time>2025-05-03T13:51:31Z</time>
      </trkpt>
      <trkpt lat="41.145141022279859" lon="-8.604445969685912">
        <ele>96.75</ele>
        <time>2025-05-03T13:51:32Z</time>
      </trkpt>
      <trkpt lat="41.145085031166673" lon="-8.604473965242505">
        <ele>96.269999999999996</ele>
        <time>2025-05-03T13:51:33Z</time>
      </trkpt>
      <trkpt lat="41.145027028396726" lon="-8.604502966627479">
        <ele>95.790000000000006</ele>
        <time>2025-05-03T13:51:34Z</time>
      </trkpt>
      <trkpt lat="41.144969025626779" lon="-8.604531968012452">
        <ele>95.790000000000006</ele>
        <time>2025-05-03T13:51:35Z</time>
      </trkpt>
      <trkpt lat="41.144636012613773" lon="-8.60467697493732">
        <ele>93.870000000000005</ele>
        <time>2025-05-03T13:51:41Z</time>
      </trkpt>
      <trkpt lat="41.144591001793742" lon="-8.604699019342661">
        <ele>93.390000000000001</ele>
        <time>2025-05-03T13:51:42Z</time>
      </trkpt>
      <trkpt lat="41.144508020952344" lon="-8.60474101267755">
        <ele>92.900000000000006</ele>
        <time>2025-05-03T13:51:45Z</time>
      </trkpt>
      <trkpt lat="41.14450098015368" lon="-8.604744030162692">
        <ele>92.900000000000006</ele>
        <time>2025-05-03T13:51:46Z</time>
      </trkpt>
      <trkpt lat="41.14450098015368" lon="-8.604744030162692">
        <ele>92.420000000000002</ele>
        <time>2025-05-03T13:52:03Z</time>
      </trkpt>
      <trkpt lat="41.144471978768706" lon="-8.604759033769369">
        <ele>91.939999999999998</ele>
        <time>2025-05-03T13:52:29Z</time>
      </trkpt>
      <trkpt lat="41.144121028482914" lon="-8.60491300933063">
        <ele>91.939999999999998</ele>
        <time>2025-05-03T13:52:40Z</time>
      </trkpt>
      <trkpt lat="41.144100995734334" lon="-8.604922983795404">
        <ele>91.459999999999994</ele>
        <time>2025-05-03T13:52:41Z</time>
      </trkpt>
      <trkpt lat="41.144083980470896" lon="-8.604931030422449">
        <ele>91.459999999999994</ele>
        <time>2025-05-03T13:52:42Z</time>
      </trkpt>
      <trkpt lat="41.144083980470896" lon="-8.604931030422449">
        <ele>90.980000000000004</ele>
        <time>2025-05-03T13:52:55Z</time>
      </trkpt>
      <trkpt lat="41.144083980470896" lon="-8.604931030422449">
        <ele>90.980000000000004</ele>
        <time>2025-05-03T13:53:17Z</time>
      </trkpt>
      <trkpt lat="41.144083980470896" lon="-8.604931030422449">
        <ele>90.980000000000004</ele>
        <time>2025-05-03T13:53:41Z</time>
      </trkpt>
      <trkpt lat="41.144083980470896" lon="-8.604931030422449">
        <ele>89.060000000000002</ele>
        <time>2025-05-03T13:54:17Z</time>
      </trkpt>
      <trkpt lat="41.144074006006122" lon="-8.60493597574532">
        <ele>89.060000000000002</ele>
        <time>2025-05-03T13:54:23Z</time>
      </trkpt>
      <trkpt lat="41.144078029319644" lon="-8.604933964088559">
        <ele>89.060000000000002</ele>
        <time>2025-05-03T13:54:24Z</time>
      </trkpt>
      <trkpt lat="41.144061014056206" lon="-8.60521400347352">
        <ele>172.21000000000001</ele>
        <time>2025-05-04T06:42:38Z</time>
      </trkpt>
      <trkpt lat="41.144061014056206" lon="-8.60521400347352">
        <ele>172.21000000000001</ele>
        <time>2025-05-04T06:42:45Z</time>
      </trkpt>
      <trkpt lat="41.143993036821485" lon="-8.6052789632231">
        <ele>179.41999999999999</ele>
        <time>2025-05-04T06:43:07Z</time>
      </trkpt>
      <trkpt lat="41.143993036821485" lon="-8.6052789632231">
        <ele>179.41999999999999</ele>
        <time>2025-05-04T06:43:26Z</time>
      </trkpt>
      <trkpt lat="41.143993036821485" lon="-8.605274017900229">
        <ele>179.41999999999999</ele>
        <time>2025-05-04T06:44:04Z</time>
      </trkpt>
      <trkpt lat="41.14398599602282" lon="-8.605275023728609">
        <ele>179.41999999999999</ele>
        <time>2025-05-04T06:44:34Z</time>
      </trkpt>
      <trkpt lat="41.143994964659214" lon="-8.605284998193383">
        <ele>178.46000000000001</ele>
        <time>2025-05-04T06:44:36Z</time>
      </trkpt>
      <trkpt lat="41.144142989069223" lon="-8.605250967666507">
        <ele>177.97999999999999</ele>
        <time>2025-05-04T06:44:38Z</time>
      </trkpt>
      <trkpt lat="41.144160004332662" lon="-8.605297990143299">
        <ele>177.97999999999999</ele>
        <time>2025-05-04T06:44:39Z</time>
      </trkpt>
      <trkpt lat="41.144183976575732" lon="-8.60536202788353">
        <ele>177.5</ele>
        <time>2025-05-04T06:44:40Z</time>
      </trkpt>
      <trkpt lat="41.144209960475564" lon="-8.605435034260154">
        <ele>177.5</ele>
        <time>2025-05-04T06:44:41Z</time>
      </trkpt>
      <trkpt lat="41.144236028194427" lon="-8.605505023151636">
        <ele>177.5</ele>
        <time>2025-05-04T06:44:42Z</time>
      </trkpt>
      <trkpt lat="41.144695021212101" lon="-8.606746969744563">
        <ele>171.25</ele>
        <time>2025-05-04T06:44:54Z</time>
      </trkpt>
      <trkpt lat="41.144785964861512" lon="-8.60693003050983">
        <ele>167.41</ele>
        <time>2025-05-04T06:44:58Z</time>
      </trkpt>
      <trkpt lat="41.144785964861512" lon="-8.60693003050983">
        <ele>166.93000000000001</ele>
        <time>2025-05-04T06:44:59Z</time>
      </trkpt>
      <trkpt lat="41.144756963476539" lon="-8.607032960280776">
        <ele>166.93000000000001</ele>
        <time>2025-05-04T06:45:00Z</time>
      </trkpt>
      <trkpt lat="41.144747994840145" lon="-8.607064979150891">
        <ele>166.44999999999999</ele>
        <time>2025-05-04T06:45:01Z</time>
      </trkpt>
      <trkpt lat="41.144742965698242" lon="-8.607079982757568">
        <ele>165.47999999999999</ele>
        <time>2025-05-04T06:45:02Z</time>
      </trkpt>
      <trkpt lat="41.144742965698242" lon="-8.607079982757568">
        <ele>165</ele>
        <time>2025-05-04T06:45:03Z</time>
      </trkpt>
      <trkpt lat="41.144612040370703" lon="-8.607165981084108">
        <ele>162.12</ele>
        <time>2025-05-04T06:45:05Z</time>
      </trkpt>
      <trkpt lat="41.144401989877224" lon="-8.607303025200963">
        <ele>157.78999999999999</ele>
        <time>2025-05-04T06:45:08Z</time>
      </trkpt>
      <trkpt lat="41.144340969622135" lon="-8.607343006879091">
        <ele>156.83000000000001</ele>
        <time>2025-05-04T06:45:09Z</time>
      </trkpt>
      <trkpt lat="41.14364099688828" lon="-8.607823960483074">
        <ele>143.84999999999999</ele>
        <time>2025-05-04T06:45:23Z</time>
      </trkpt>
      <trkpt lat="41.143263978883624" lon="-8.60807097516954">
        <ele>135.68000000000001</ele>
        <time>2025-05-04T06:45:31Z</time>
      </trkpt>
      <trkpt lat="41.143217962235212" lon="-8.6080920137465">
        <ele>134.72</ele>
        <time>2025-05-04T06:45:32Z</time>
      </trkpt>
      <trkpt lat="41.143174963071942" lon="-8.608111040666699">
        <ele>133.75999999999999</ele>
        <time>2025-05-04T06:45:33Z</time>
      </trkpt>
      <trkpt lat="41.143139004707336" lon="-8.608128977939487">
        <ele>133.28</ele>
        <time>2025-05-04T06:45:34Z</time>
      </trkpt>
      <trkpt lat="41.143110003322363" lon="-8.608143981546164">
        <ele>132.31999999999999</ele>
        <time>2025-05-04T06:45:35Z</time>
      </trkpt>
      <trkpt lat="41.143092988058925" lon="-8.608152028173208">
        <ele>131.36000000000001</ele>
        <time>2025-05-04T06:45:36Z</time>
      </trkpt>
      <trkpt lat="41.143092988058925" lon="-8.608152028173208">
        <ele>130.88</ele>
        <time>2025-05-04T06:45:52Z</time>
      </trkpt>
      <trkpt lat="41.143085025250912" lon="-8.608155967667699">
        <ele>130.88</ele>
        <time>2025-05-04T06:46:09Z</time>
      </trkpt>
      <trkpt lat="41.143004978075624" lon="-8.608196033164859">
        <ele>127.51000000000001</ele>
        <time>2025-05-04T06:46:12Z</time>
      </trkpt>
      <trkpt lat="41.142987040802836" lon="-8.608167031779885">
        <ele>126.55</ele>
        <time>2025-05-04T06:46:13Z</time>
      </trkpt>
      <trkpt lat="41.142952004447579" lon="-8.608109029009938">
        <ele>125.11</ele>
        <time>2025-05-04T06:46:14Z</time>
      </trkpt>
      <trkpt lat="41.142911016941071" lon="-8.608042979612947">
        <ele>124.63</ele>
        <time>2025-05-04T06:46:15Z</time>
      </trkpt>
      <trkpt lat="41.142858965322375" lon="-8.607959998771548">
        <ele>122.70999999999999</ele>
        <time>2025-05-04T06:46:16Z</time>
      </trkpt>
      <trkpt lat="41.14280398003757" lon="-8.607870982959867">
        <ele>120.78</ele>
        <time>2025-05-04T06:46:17Z</time>
      </trkpt>
      <trkpt lat="41.142744971439242" lon="-8.607776015996933">
        <ele>119.34</ele>
        <time>2025-05-04T06:46:18Z</time>
      </trkpt>
      <trkpt lat="41.142694009467959" lon="-8.607681971043348">
        <ele>117.90000000000001</ele>
        <time>2025-05-04T06:46:19Z</time>
      </trkpt>
      <trkpt lat="41.142431991174817" lon="-8.60712599940598">
        <ele>113.09</ele>
        <time>2025-05-04T06:46:24Z</time>
      </trkpt>
      <trkpt lat="41.142405001446605" lon="-8.60697696916759">
        <ele>112.61</ele>
        <time>2025-05-04T06:46:25Z</time>
      </trkpt>
      <trkpt lat="41.14237398840487" lon="-8.606815030798316">
        <ele>110.20999999999999</ele>
        <time>2025-05-04T06:46:26Z</time>
      </trkpt>
      <trkpt lat="41.142345992848277" lon="-8.606661977246404">
        <ele>107.81</ele>
        <time>2025-05-04T06:46:27Z</time>
      </trkpt>
      <trkpt lat="41.142350016161799" lon="-8.606549995020032">
        <ele>106.84</ele>
        <time>2025-05-04T06:46:28Z</time>
      </trkpt>
      <trkpt lat="41.142369965091348" lon="-8.606403982266784">
        <ele>105.88</ele>
        <time>2025-05-04T06:46:29Z</time>
      </trkpt>
      <trkpt lat="41.142387986183167" lon="-8.606260986998677">
        <ele>104.92</ele>
        <time>2025-05-04T06:46:30Z</time>
      </trkpt>
      <trkpt lat="41.142405001446605" lon="-8.60613601282239">
        <ele>104.44</ele>
        <time>2025-05-04T06:46:31Z</time>
      </trkpt>
      <trkpt lat="41.142451018095016" lon="-8.606041967868805">
        <ele>103.95999999999999</ele>
        <time>2025-05-04T06:46:32Z</time>
      </trkpt>
      <trkpt lat="41.142503991723061" lon="-8.605937026441097">
        <ele>103.48</ele>
        <time>2025-05-04T06:46:33Z</time>
      </trkpt>
      <trkpt lat="41.142555959522724" lon="-8.605834012851119">
        <ele>103.48</ele>
        <time>2025-05-04T06:46:34Z</time>
      </trkpt>
      <trkpt lat="41.142598036676645" lon="-8.60574902035296">
        <ele>103</ele>
        <time>2025-05-04T06:46:35Z</time>
      </trkpt>
      <trkpt lat="41.142672970890999" lon="-8.605675008147955">
        <ele>102.04000000000001</ele>
        <time>2025-05-04T06:46:36Z</time>
      </trkpt>
      <trkpt lat="41.142742037773132" lon="-8.605610970407724">
        <ele>102.52</ele>
        <time>2025-05-04T06:46:37Z</time>
      </trkpt>
      <trkpt lat="41.142813032492995" lon="-8.605548022314906">
        <ele>103.48</ele>
        <time>2025-05-04T06:46:38Z</time>
      </trkpt>
      <trkpt lat="41.142883021384478" lon="-8.605484990403056">
        <ele>103.95999999999999</ele>
        <time>2025-05-04T06:46:39Z</time>
      </trkpt>
      <trkpt lat="41.143026016652584" lon="-8.605399997904897">
        <ele>105.40000000000001</ele>
        <time>2025-05-04T06:46:41Z</time>
      </trkpt>
      <trkpt lat="41.143102962523699" lon="-8.60536596737802">
        <ele>106.36</ele>
        <time>2025-05-04T06:46:42Z</time>
      </trkpt>
      <trkpt lat="41.143749039620161" lon="-8.605082994326949">
        <ele>111.17</ele>
        <time>2025-05-04T06:46:51Z</time>
      </trkpt>
      <trkpt lat="41.143892034888268" lon="-8.605025997385383">
        <ele>116.45999999999999</ele>
        <time>2025-05-04T06:46:59Z</time>
      </trkpt>
      <trkpt lat="41.143892034888268" lon="-8.605025997385383">
        <ele>117.42</ele>
        <time>2025-05-04T06:47:26Z</time>
      </trkpt>
      <trkpt lat="41.143948026001453" lon="-8.605000013485551">
        <ele>117.42</ele>
        <time>2025-05-04T06:47:38Z</time>
      </trkpt>
      <trkpt lat="41.14400896243751" lon="-8.604969000443816">
        <ele>118.38</ele>
        <time>2025-05-04T06:47:39Z</time>
      </trkpt>
      <trkpt lat="41.144668031483889" lon="-8.604660965502262">
        <ele>118.38</ele>
        <time>2025-05-04T06:47:47Z</time>
      </trkpt>
      <trkpt lat="41.14512300118804" lon="-8.604455022141337">
        <ele>116.94</ele>
        <time>2025-05-04T06:47:55Z</time>
      </trkpt>
      <trkpt lat="41.145163988694549" lon="-8.604433983564377">
        <ele>116.94</ele>
        <time>2025-05-04T06:48:22Z</time>
      </trkpt>
      <trkpt lat="41.145200030878186" lon="-8.604416968300939">
        <ele>116.45999999999999</ele>
        <time>2025-05-04T06:48:23Z</time>
      </trkpt>
      <trkpt lat="41.145278988406062" lon="-8.604367012158036">
        <ele>116.45999999999999</ele>
        <time>2025-05-04T06:48:24Z</time>
      </trkpt>
      <trkpt lat="41.1453150305897" lon="-8.604313032701612">
        <ele>115.98</ele>
        <time>2025-05-04T06:48:25Z</time>
      </trkpt>
      <trkpt lat="41.145356018096209" lon="-8.604220999404788">
        <ele>115.01000000000001</ele>
        <time>2025-05-04T06:48:26Z</time>
      </trkpt>
      <trkpt lat="41.145372027531266" lon="-8.604152016341686">
        <ele>114.53</ele>
        <time>2025-05-04T06:48:27Z</time>
      </trkpt>
      <trkpt lat="41.145385019481182" lon="-8.604086972773075">
        <ele>113.56999999999999</ele>
        <time>2025-05-04T06:48:28Z</time>
      </trkpt>
      <trkpt lat="41.145408991724253" lon="-8.603969039395452">
        <ele>112.13</ele>
        <time>2025-05-04T06:48:29Z</time>
      </trkpt>
      <trkpt lat="41.145411003381014" lon="-8.603954035788775">
        <ele>111.17</ele>
        <time>2025-05-04T06:48:30Z</time>
      </trkpt>
      <trkpt lat="41.145419972017407" lon="-8.603891003876925">
        <ele>110.20999999999999</ele>
        <time>2025-05-04T06:48:31Z</time>
      </trkpt>
      <trkpt lat="41.145430030301213" lon="-8.603828977793455">
        <ele>109.25</ele>
        <time>2025-05-04T06:48:32Z</time>
      </trkpt>
      <trkpt lat="41.145438998937607" lon="-8.603768963366747">
        <ele>107.81</ele>
        <time>2025-05-04T06:48:33Z</time>
      </trkpt>
      <trkpt lat="41.14544696174562" lon="-8.603712972253561">
        <ele>106.36</ele>
        <time>2025-05-04T06:48:34Z</time>
      </trkpt>
      <trkpt lat="41.145455008372664" lon="-8.603664021939039">
        <ele>105.40000000000001</ele>
        <time>2025-05-04T06:48:35Z</time>
      </trkpt>
      <trkpt lat="41.145463977009058" lon="-8.603605013340712">
        <ele>104.44</ele>
        <time>2025-05-04T06:48:36Z</time>
      </trkpt>
      <trkpt lat="41.145472023636103" lon="-8.603549022227526">
        <ele>103.95999999999999</ele>
        <time>2025-05-04T06:48:37Z</time>
      </trkpt>
      <trkpt lat="41.14548996090889" lon="-8.603434022516012">
        <ele>102.52</ele>
        <time>2025-05-04T06:48:40Z</time>
      </trkpt>
      <trkpt lat="41.14548996090889" lon="-8.603434022516012">
        <ele>102.04000000000001</ele>
        <time>2025-05-04T06:48:51Z</time>
      </trkpt>
      <trkpt lat="41.145498007535934" lon="-8.603378031402826">
        <ele>102.52</ele>
        <time>2025-05-04T06:48:58Z</time>
      </trkpt>
      <trkpt lat="41.145564978942275" lon="-8.602833962067962">
        <ele>100.11</ele>
        <time>2025-05-04T06:49:04Z</time>
      </trkpt>
      <trkpt lat="41.145600015297532" lon="-8.602431965991855">
        <ele>98.670000000000002</ele>
        <time>2025-05-04T06:49:09Z</time>
      </trkpt>
      <trkpt lat="41.145605966448784" lon="-8.602369017899036">
        <ele>98.189999999999998</ele>
        <time>2025-05-04T06:49:10Z</time>
      </trkpt>
      <trkpt lat="41.145615018904209" lon="-8.602258041501045">
        <ele>97.709999999999994</ele>
        <time>2025-05-04T06:49:12Z</time>
      </trkpt>
      <trkpt lat="41.145622981712222" lon="-8.602166008204222">
        <ele>97.230000000000004</ele>
        <time>2025-05-04T06:49:13Z</time>
      </trkpt>
      <trkpt lat="41.145642008632421" lon="-8.601994011551142">
        <ele>95.790000000000006</ele>
        <time>2025-05-04T06:49:17Z</time>
      </trkpt>
      <trkpt lat="41.145651983097196" lon="-8.601931985467672">
        <ele>95.310000000000002</ele>
        <time>2025-05-04T06:49:18Z</time>
      </trkpt>
      <trkpt lat="41.145665980875492" lon="-8.601843975484371">
        <ele>95.310000000000002</ele>
        <time>2025-05-04T06:49:19Z</time>
      </trkpt>
      <trkpt lat="41.145690958946943" lon="-8.601553961634636">
        <ele>93.390000000000001</ele>
        <time>2025-05-04T06:49:22Z</time>
      </trkpt>
      <trkpt lat="41.145701017230749" lon="-8.601442985236645">
        <ele>92.900000000000006</ele>
        <time>2025-05-04T06:49:23Z</time>
      </trkpt>
      <trkpt lat="41.145710991695523" lon="-8.60132496803999">
        <ele>92.420000000000002</ele>
        <time>2025-05-04T06:49:24Z</time>
      </trkpt>
      <trkpt lat="41.145772011950612" lon="-8.600721973925829">
        <ele>90.019999999999996</ele>
        <time>2025-05-04T06:49:29Z</time>
      </trkpt>
      <trkpt lat="41.145816016942263" lon="-8.600191986188293">
        <ele>89.540000000000006</ele>
        <time>2025-05-04T06:49:33Z</time>
      </trkpt>
      <trkpt lat="41.145837977528572" lon="-8.600059971213341">
        <ele>89.060000000000002</ele>
        <time>2025-05-04T06:49:34Z</time>
      </trkpt>
      <trkpt lat="41.145844012498856" lon="-8.599934997037053">
        <ele>89.060000000000002</ele>
        <time>2025-05-04T06:49:35Z</time>
      </trkpt>
      <trkpt lat="41.145889023318887" lon="-8.598999995738268">
        <ele>88.099999999999994</ele>
        <time>2025-05-04T06:49:42Z</time>
      </trkpt>
      <trkpt lat="41.145894974470139" lon="-8.59887502156198">
        <ele>87.620000000000005</ele>
        <time>2025-05-04T06:49:43Z</time>
      </trkpt>
      <trkpt lat="41.145901009440422" lon="-8.598751975223422">
        <ele>87.620000000000005</ele>
        <time>2025-05-04T06:49:44Z</time>
      </trkpt>
      <trkpt lat="41.145906960591674" lon="-8.598625995218754">
        <ele>87.620000000000005</ele>
        <time>2025-05-04T06:49:45Z</time>
      </trkpt>
      <trkpt lat="41.145912995561957" lon="-8.598490040749311">
        <ele>87.140000000000001</ele>
        <time>2025-05-04T06:49:46Z</time>
      </trkpt>
      <trkpt lat="41.145919030532241" lon="-8.598349979147315">
        <ele>86.659999999999997</ele>
        <time>2025-05-04T06:49:47Z</time>
      </trkpt>
      <trkpt lat="41.145925987511873" lon="-8.598207989707589">
        <ele>86.659999999999997</ele>
        <time>2025-05-04T06:49:48Z</time>
      </trkpt>
      <trkpt lat="41.145933028310537" lon="-8.598064994439483">
        <ele>86.659999999999997</ele>
        <time>2025-05-04T06:49:49Z</time>
      </trkpt>
      <trkpt lat="41.145938979461789" lon="-8.597933985292912">
        <ele>86.180000000000007</ele>
        <time>2025-05-04T06:49:50Z</time>
      </trkpt>
      <trkpt lat="41.145945014432073" lon="-8.597811022773385">
        <ele>86.180000000000007</ele>
        <time>2025-05-04T06:49:51Z</time>
      </trkpt>
      <trkpt lat="41.145950965583324" lon="-8.597685964778066">
        <ele>86.659999999999997</ele>
        <time>2025-05-04T06:49:52Z</time>
      </trkpt>
      <trkpt lat="41.145958006381989" lon="-8.59754397533834">
        <ele>86.659999999999997</ele>
        <time>2025-05-04T06:49:53Z</time>
      </trkpt>
      <trkpt lat="41.145990025252104" lon="-8.596735037863255">
        <ele>88.579999999999998</ele>
        <time>2025-05-04T06:49:59Z</time>
      </trkpt>
      <trkpt lat="41.145992958918214" lon="-8.596653984859586">
        <ele>89.060000000000002</ele>
        <time>2025-05-04T06:50:00Z</time>
      </trkpt>
      <trkpt lat="41.145995976403356" lon="-8.596589025110006">
        <ele>89.540000000000006</ele>
        <time>2025-05-04T06:50:01Z</time>
      </trkpt>
      <trkpt lat="41.145998993888497" lon="-8.596500009298325">
        <ele>89.540000000000006</ele>
        <time>2025-05-04T06:50:03Z</time>
      </trkpt>
      <trkpt lat="41.145998993888497" lon="-8.596500009298325">
        <ele>90.019999999999996</ele>
        <time>2025-05-04T06:50:12Z</time>
      </trkpt>
      <trkpt lat="41.146002011373639" lon="-8.596429014578462">
        <ele>90.019999999999996</ele>
        <time>2025-05-04T06:50:21Z</time>
      </trkpt>
      <trkpt lat="41.146008968353271" lon="-8.595772041007876">
        <ele>92.900000000000006</ele>
        <time>2025-05-04T06:50:28Z</time>
      </trkpt>
      <trkpt lat="41.146031012758613" lon="-8.595312964171171">
        <ele>93.870000000000005</ele>
        <time>2025-05-04T06:50:32Z</time>
      </trkpt>
      <trkpt lat="41.146031012758613" lon="-8.595192013308406">
        <ele>94.349999999999994</ele>
        <time>2025-05-04T06:50:33Z</time>
      </trkpt>
      <trkpt lat="41.146045010536909" lon="-8.595055975019932">
        <ele>94.349999999999994</ele>
        <time>2025-05-04T06:50:34Z</time>
      </trkpt>
      <trkpt lat="41.146072000265121" lon="-8.594942986965179">
        <ele>94.829999999999998</ele>
        <time>2025-05-04T06:50:35Z</time>
      </trkpt>
      <trkpt lat="41.146099995821714" lon="-8.594832010567188">
        <ele>95.310000000000002</ele>
        <time>2025-05-04T06:50:36Z</time>
      </trkpt>
      <trkpt lat="41.146122962236404" lon="-8.594720028340817">
        <ele>95.790000000000006</ele>
        <time>2025-05-04T06:50:37Z</time>
      </trkpt>
      <trkpt lat="41.146140983328223" lon="-8.594606034457684">
        <ele>96.269999999999996</ele>
        <time>2025-05-04T06:50:38Z</time>
      </trkpt>
      <trkpt lat="41.146157998591661" lon="-8.594492040574551">
        <ele>96.269999999999996</ele>
        <time>2025-05-04T06:50:39Z</time>
      </trkpt>
      <trkpt lat="41.146174008026719" lon="-8.594380980357528">
        <ele>96.75</ele>
        <time>2025-05-04T06:50:40Z</time>
      </trkpt>
      <trkpt lat="41.146194040775299" lon="-8.594266986474395">
        <ele>96.75</ele>
        <time>2025-05-04T06:50:41Z</time>
      </trkpt>
      <trkpt lat="41.146259000524879" lon="-8.593914024531841">
        <ele>97.230000000000004</ele>
        <time>2025-05-04T06:50:44Z</time>
      </trkpt>
      <trkpt lat="41.146280961111188" lon="-8.593795001506805">
        <ele>97.230000000000004</ele>
        <time>2025-05-04T06:50:45Z</time>
      </trkpt>
      <trkpt lat="41.146303005516529" lon="-8.59367698431015">
        <ele>97.230000000000004</ele>
        <time>2025-05-04T06:50:46Z</time>
      </trkpt>
      <trkpt lat="41.146324966102839" lon="-8.593561984598637">
        <ele>97.230000000000004</ele>
        <time>2025-05-04T06:50:47Z</time>
      </trkpt>
      <trkpt lat="41.14634701050818" lon="-8.593444973230362">
        <ele>97.230000000000004</ele>
        <time>2025-05-04T06:50:48Z</time>
      </trkpt>
      <trkpt lat="41.14637098275125" lon="-8.593322010710836">
        <ele>97.230000000000004</ele>
        <time>2025-05-04T06:50:49Z</time>
      </trkpt>
      <trkpt lat="41.146467961370945" lon="-8.592835022136569">
        <ele>96.75</ele>
        <time>2025-05-04T06:50:53Z</time>
      </trkpt>
      <trkpt lat="41.146515989676118" lon="-8.592570992186666">
        <ele>95.790000000000006</ele>
        <time>2025-05-04T06:50:55Z</time>
      </trkpt>
      <trkpt lat="41.14653903990984" lon="-8.592437971383333">
        <ele>95.790000000000006</ele>
        <time>2025-05-04T06:50:56Z</time>
      </trkpt>
      <trkpt lat="41.146673988550901" lon="-8.591664992272854">
        <ele>93.870000000000005</ele>
        <time>2025-05-04T06:51:02Z</time>
      </trkpt>
      <trkpt lat="41.146742971614003" lon="-8.591274982318282">
        <ele>92.900000000000006</ele>
        <time>2025-05-04T06:51:05Z</time>
      </trkpt>
      <trkpt lat="41.146985040977597" lon="-8.589965980499983">
        <ele>90.5</ele>
        <time>2025-05-04T06:51:15Z</time>
      </trkpt>
      <trkpt lat="41.147102974355221" lon="-8.589352006092668">
        <ele>89.540000000000006</ele>
        <time>2025-05-04T06:51:20Z</time>
      </trkpt>
      <trkpt lat="41.147124012932181" lon="-8.589255027472973">
        <ele>89.540000000000006</ele>
        <time>2025-05-04T06:51:21Z</time>
      </trkpt>
      <trkpt lat="41.147139016538858" lon="-8.589165005832911">
        <ele>89.060000000000002</ele>
        <time>2025-05-04T06:51:22Z</time>
      </trkpt>
      <trkpt lat="41.147162988781929" lon="-8.58899200335145">
        <ele>89.060000000000002</ele>
        <time>2025-05-04T06:51:24Z</time>
      </trkpt>
      <trkpt lat="41.147188972681761" lon="-8.588795028626919">
        <ele>88.579999999999998</ele>
        <time>2025-05-04T06:51:26Z</time>
      </trkpt>
      <trkpt lat="41.147201964631677" lon="-8.588694026693702">
        <ele>87.620000000000005</ele>
        <time>2025-05-04T06:51:27Z</time>
      </trkpt>
      <trkpt lat="41.147213028743863" lon="-8.588581038638949">
        <ele>86.659999999999997</ele>
        <time>2025-05-04T06:51:28Z</time>
      </trkpt>
      <trkpt lat="41.147217974066734" lon="-8.588471990078688">
        <ele>85.689999999999998</ele>
        <time>2025-05-04T06:51:29Z</time>
      </trkpt>
      <trkpt lat="41.147224009037018" lon="-8.588363025337458">
        <ele>84.25</ele>
        <time>2025-05-04T06:51:30Z</time>
      </trkpt>
      <trkpt lat="41.147229038178921" lon="-8.588256994262338">
        <ele>83.290000000000006</ele>
        <time>2025-05-04T06:51:31Z</time>
      </trkpt>
      <trkpt lat="41.147233983501792" lon="-8.588152974843979">
        <ele>81.849999999999994</ele>
        <time>2025-05-04T06:51:32Z</time>
      </trkpt>
      <trkpt lat="41.147243035957217" lon="-8.58804602175951">
        <ele>80.890000000000001</ele>
        <time>2025-05-04T06:51:33Z</time>
      </trkpt>
      <trkpt lat="41.147252004593611" lon="-8.587942002341151">
        <ele>78.969999999999999</ele>
        <time>2025-05-04T06:51:34Z</time>
      </trkpt>
      <trkpt lat="41.147260973230004" lon="-8.587836977094412">
        <ele>77.519999999999996</ele>
        <time>2025-05-04T06:51:35Z</time>
      </trkpt>
      <trkpt lat="41.14727002568543" lon="-8.587731029838324">
        <ele>76.560000000000002</ele>
        <time>2025-05-04T06:51:36Z</time>
      </trkpt>
      <trkpt lat="41.147274971008301" lon="-8.587629022076726">
        <ele>75.120000000000005</ele>
        <time>2025-05-04T06:51:37Z</time>
      </trkpt>
      <trkpt lat="41.147283017635345" lon="-8.587341019883752">
        <ele>72.239999999999995</ele>
        <time>2025-05-04T06:51:40Z</time>
      </trkpt>
      <trkpt lat="41.147288968786597" lon="-8.587247980758548">
        <ele>70.790000000000006</ele>
        <time>2025-05-04T06:51:41Z</time>
      </trkpt>
      <trkpt lat="41.147296009585261" lon="-8.58712200075388">
        <ele>70.310000000000002</ele>
        <time>2025-05-04T06:51:42Z</time>
      </trkpt>
      <trkpt lat="41.14727002568543" lon="-8.587030973285437">
        <ele>69.829999999999998</ele>
        <time>2025-05-04T06:51:43Z</time>
      </trkpt>
      <trkpt lat="41.147241024300456" lon="-8.586927959695458">
        <ele>68.870000000000005</ele>
        <time>2025-05-04T06:51:44Z</time>
      </trkpt>
      <trkpt lat="41.147211017087102" lon="-8.586824024096131">
        <ele>67.909999999999997</ele>
        <time>2025-05-04T06:51:45Z</time>
      </trkpt>
      <trkpt lat="41.146913040429354" lon="-8.585869995877147">
        <ele>60.700000000000003</ele>
        <time>2025-05-04T06:51:53Z</time>
      </trkpt>
      <trkpt lat="41.146845985203981" lon="-8.585687018930912">
        <ele>58.780000000000001</ele>
        <time>2025-05-04T06:51:54Z</time>
      </trkpt>
      <trkpt lat="41.146696032956243" lon="-8.585192989557982">
        <ele>47.240000000000002</ele>
        <time>2025-05-04T06:51:58Z</time>
      </trkpt>
      <trkpt lat="41.14649998024106" lon="-8.584546996280551">
        <ele>35.710000000000001</ele>
        <time>2025-05-04T06:52:04Z</time>
      </trkpt>
      <trkpt lat="41.146481959149241" lon="-8.584484970197082">
        <ele>35.229999999999997</ele>
        <time>2025-05-04T06:52:05Z</time>
      </trkpt>
      <trkpt lat="41.146418005228043" lon="-8.584411963820458">
        <ele>34.740000000000002</ele>
        <time>2025-05-04T06:52:06Z</time>
      </trkpt>
      <trkpt lat="41.146358996629715" lon="-8.584344992414117">
        <ele>34.259999999999998</ele>
        <time>2025-05-04T06:52:07Z</time>
      </trkpt>
      <trkpt lat="41.146298982203007" lon="-8.584278021007776">
        <ele>33.780000000000001</ele>
        <time>2025-05-04T06:52:08Z</time>
      </trkpt>
      <trkpt lat="41.145693976432085" lon="-8.583605038002133">
        <ele>28.5</ele>
        <time>2025-05-04T06:52:17Z</time>
      </trkpt>
      <trkpt lat="41.145441010594368" lon="-8.583337990567088">
        <ele>26.09</ele>
        <time>2025-05-04T06:52:21Z</time>
      </trkpt>
      <trkpt lat="41.145333973690867" lon="-8.583225002512336">
        <ele>24.649999999999999</ele>
        <time>2025-05-04T06:52:23Z</time>
      </trkpt>
      <trkpt lat="41.145084025338292" lon="-8.582960972562432">
        <ele>21.77</ele>
        <time>2025-05-04T06:52:28Z</time>
      </trkpt>
      <trkpt lat="41.145034991204739" lon="-8.582884026691318">
        <ele>21.289999999999999</ele>
        <time>2025-05-04T06:52:29Z</time>
      </trkpt>
      <trkpt lat="41.145012024790049" lon="-8.582791993394494">
        <ele>21.289999999999999</ele>
        <time>2025-05-04T06:52:30Z</time>
      </trkpt>
      <trkpt lat="41.144985035061836" lon="-8.582684034481645">
        <ele>20.32</ele>
        <time>2025-05-04T06:52:31Z</time>
      </trkpt>
      <trkpt lat="41.144957039505243" lon="-8.582570962607861">
        <ele>19.84</ele>
        <time>2025-05-04T06:52:32Z</time>
      </trkpt>
      <trkpt lat="41.14492803812027" lon="-8.582455962896347">
        <ele>18.879999999999999</ele>
        <time>2025-05-04T06:52:33Z</time>
      </trkpt>
      <trkpt lat="41.144899036735296" lon="-8.582340963184834">
        <ele>18.399999999999999</ele>
        <time>2025-05-04T06:52:34Z</time>
      </trkpt>
      <trkpt lat="41.14484597928822" lon="-8.582127979025245">
        <ele>17.440000000000001</ele>
        <time>2025-05-04T06:52:36Z</time>
      </trkpt>
      <trkpt lat="41.144824018701911" lon="-8.582040974870324">
        <ele>16.960000000000001</ele>
        <time>2025-05-04T06:52:37Z</time>
      </trkpt>
      <trkpt lat="41.144826030358672" lon="-8.581836959347129">
        <ele>16.48</ele>
        <time>2025-05-04T06:52:39Z</time>
      </trkpt>
      <trkpt lat="41.144870035350323" lon="-8.581586005166173">
        <ele>16</ele>
        <time>2025-05-04T06:52:41Z</time>
      </trkpt>
      <trkpt lat="41.14490901120007" lon="-8.581454996019602">
        <ele>16</ele>
        <time>2025-05-04T06:52:42Z</time>
      </trkpt>
      <trkpt lat="41.145155020058155" lon="-8.580454029142857">
        <ele>12.630000000000001</ele>
        <time>2025-05-04T06:52:49Z</time>
      </trkpt>
      <trkpt lat="41.145291980355978" lon="-8.579999981448054">
        <ele>9.27</ele>
        <time>2025-05-04T06:52:53Z</time>
      </trkpt>
      <trkpt lat="41.14531897008419" lon="-8.579910965636373">
        <ele>8.310000000000001</ele>
        <time>2025-05-04T06:52:54Z</time>
      </trkpt>
      <trkpt lat="41.145344031974673" lon="-8.579828990623355">
        <ele>7.35</ele>
        <time>2025-05-04T06:52:55Z</time>
      </trkpt>
      <trkpt lat="41.145405974239111" lon="-8.579783979803324">
        <ele>6.39</ele>
        <time>2025-05-04T06:52:56Z</time>
      </trkpt>
      <trkpt lat="41.145478980615735" lon="-8.579730000346899">
        <ele>5.42</ele>
        <time>2025-05-04T06:52:57Z</time>
      </trkpt>
      <trkpt lat="41.14555399864912" lon="-8.579675015062094">
        <ele>4.46</ele>
        <time>2025-05-04T06:52:58Z</time>
      </trkpt>
      <trkpt lat="41.145628010854125" lon="-8.579621035605669">
        <ele>3.98</ele>
        <time>2025-05-04T06:52:59Z</time>
      </trkpt>
      <trkpt lat="41.145765976980329" lon="-8.579533025622368">
        <ele>3.98</ele>
        <time>2025-05-04T06:53:01Z</time>
      </trkpt>
      <trkpt lat="41.145830014720559" lon="-8.579493965953589">
        <ele>3.5</ele>
        <time>2025-05-04T06:53:02Z</time>
      </trkpt>
      <trkpt lat="41.145890029147267" lon="-8.579457001760602">
        <ele>3.02</ele>
        <time>2025-05-04T06:53:03Z</time>
      </trkpt>
      <trkpt lat="41.145880976691842" lon="-8.579271007329226">
        <ele>2.06</ele>
        <time>2025-05-04T06:53:04Z</time>
      </trkpt>
      <trkpt lat="41.145876031368971" lon="-8.579224990680814">
        <ele>1.58</ele>
        <time>2025-05-04T06:53:05Z</time>
      </trkpt>
      <trkpt lat="41.145867984741926" lon="-8.579144021496177">
        <ele>1.1</ele>
        <time>2025-05-04T06:53:06Z</time>
      </trkpt>
      <trkpt lat="41.145890029147267" lon="-8.579002032056451">
        <ele>0.62</ele>
        <time>2025-05-04T06:53:07Z</time>
      </trkpt>
      <trkpt lat="41.145924981683493" lon="-8.578941011801362">
        <ele>0.14</ele>
        <time>2025-05-04T06:53:08Z</time>
      </trkpt>
      <trkpt lat="41.146034030243754" lon="-8.57889499515295">
        <ele>-0.34</ele>
        <time>2025-05-04T06:53:09Z</time>
      </trkpt>
      <trkpt lat="41.146127991378307" lon="-8.578892983496189">
        <ele>-0.82</ele>
        <time>2025-05-04T06:53:10Z</time>
      </trkpt>
      <trkpt lat="41.146179037168622" lon="-8.578931037336588">
        <ele>-0.82</ele>
        <time>2025-05-04T06:53:11Z</time>
      </trkpt>
      <trkpt lat="41.146226981654763" lon="-8.579045031219721">
        <ele>-0.82</ele>
        <time>2025-05-04T06:53:12Z</time>
      </trkpt>
      <trkpt lat="41.146249026060104" lon="-8.579133963212371">
        <ele>-0.82</ele>
        <time>2025-05-04T06:53:13Z</time>
      </trkpt>
      <trkpt lat="41.146266963332891" lon="-8.579248962923884">
        <ele>-0.82</ele>
        <time>2025-05-04T06:53:14Z</time>
      </trkpt>
      <trkpt lat="41.14628397859633" lon="-8.579342002049089">
        <ele>-0.34</ele>
        <time>2025-05-04T06:53:15Z</time>
      </trkpt>
      <trkpt lat="41.146309962496161" lon="-8.579486003145576">
        <ele>-0.34</ele>
        <time>2025-05-04T06:53:16Z</time>
      </trkpt>
      <trkpt lat="41.146349022164941" lon="-8.57958298176527">
        <ele>0.14</ele>
        <time>2025-05-04T06:53:17Z</time>
      </trkpt>
      <trkpt lat="41.146398978307843" lon="-8.579706028103828">
        <ele>0.62</ele>
        <time>2025-05-04T06:53:18Z</time>
      </trkpt>
      <trkpt lat="41.146908011287451" lon="-8.580583026632667">
        <ele>5.91</ele>
        <time>2025-05-04T06:53:25Z</time>
      </trkpt>
      <trkpt lat="41.147278994321823" lon="-8.581012012436986">
        <ele>7.83</ele>
        <time>2025-05-04T06:53:29Z</time>
      </trkpt>
      <trkpt lat="41.147383013740182" lon="-8.581099016591907">
        <ele>8.789999999999999</ele>
        <time>2025-05-04T06:53:30Z</time>
      </trkpt>
      <trkpt lat="41.147489966824651" lon="-8.581176968291402">
        <ele>9.75</ele>
        <time>2025-05-04T06:53:31Z</time>
      </trkpt>
      <trkpt lat="41.147603960707784" lon="-8.581247963011265">
        <ele>10.710000000000001</ele>
        <time>2025-05-04T06:53:32Z</time>
      </trkpt>
      <trkpt lat="41.147714015096426" lon="-8.581304037943482">
        <ele>11.19</ele>
        <time>2025-05-04T06:53:33Z</time>
      </trkpt>
      <trkpt lat="41.147850975394249" lon="-8.581298002973199">
        <ele>12.15</ele>
        <time>2025-05-04T06:53:34Z</time>
      </trkpt>
      <trkpt lat="41.147956000640988" lon="-8.581289034336805">
        <ele>13.119999999999999</ele>
        <time>2025-05-04T06:53:35Z</time>
      </trkpt>
      <trkpt lat="41.148049961775541" lon="-8.581250980496407">
        <ele>13.6</ele>
        <time>2025-05-04T06:53:36Z</time>
      </trkpt>
      <trkpt lat="41.148139983415604" lon="-8.58121401630342">
        <ele>14.56</ele>
        <time>2025-05-04T06:53:37Z</time>
      </trkpt>
      <trkpt lat="41.148227993398905" lon="-8.58117101714015">
        <ele>16</ele>
        <time>2025-05-04T06:53:38Z</time>
      </trkpt>
      <trkpt lat="41.148298988118768" lon="-8.581086024641991">
        <ele>16.48</ele>
        <time>2025-05-04T06:53:39Z</time>
      </trkpt>
      <trkpt lat="41.14834601059556" lon="-8.580973958596587">
        <ele>17.440000000000001</ele>
        <time>2025-05-04T06:53:40Z</time>
      </trkpt>
      <trkpt lat="41.148377023637295" lon="-8.580852001905441">
        <ele>18.399999999999999</ele>
        <time>2025-05-04T06:53:41Z</time>
      </trkpt>
      <trkpt lat="41.148391021415591" lon="-8.580730967223644">
        <ele>18.879999999999999</ele>
        <time>2025-05-04T06:53:42Z</time>
      </trkpt>
      <trkpt lat="41.148385992273688" lon="-8.580594006925821">
        <ele>18.399999999999999</ele>
        <time>2025-05-04T06:53:43Z</time>
      </trkpt>
      <trkpt lat="41.148322038352489" lon="-8.580498034134507">
        <ele>18.399999999999999</ele>
        <time>2025-05-04T06:53:44Z</time>
      </trkpt>
      <trkpt lat="41.148255988955498" lon="-8.580398038029671">
        <ele>17.920000000000002</ele>
        <time>2025-05-04T06:53:45Z</time>
      </trkpt>
      <trkpt lat="41.148176025599241" lon="-8.580327965319157">
        <ele>17.440000000000001</ele>
        <time>2025-05-04T06:53:46Z</time>
      </trkpt>
      <trkpt lat="41.148080974817276" lon="-8.580294018611312">
        <ele>16.960000000000001</ele>
        <time>2025-05-04T06:53:47Z</time>
      </trkpt>
      <trkpt lat="41.147983996197581" lon="-8.580257976427674">
        <ele>16.48</ele>
        <time>2025-05-04T06:53:48Z</time>
      </trkpt>
      <trkpt lat="41.147889029234648" lon="-8.580304998904467">
        <ele>16.48</ele>
        <time>2025-05-04T06:53:49Z</time>
      </trkpt>
      <trkpt lat="41.147782998159528" lon="-8.580357972532511">
        <ele>16.48</ele>
        <time>2025-05-04T06:53:50Z</time>
      </trkpt>
      <trkpt lat="41.147669004276395" lon="-8.580414969474077">
        <ele>16.48</ele>
        <time>2025-05-04T06:53:51Z</time>
      </trkpt>
      <trkpt lat="41.147546041756868" lon="-8.580476995557547">
        <ele>16.48</ele>
        <time>2025-05-04T06:53:52Z</time>
      </trkpt>
      <trkpt lat="41.146267969161272" lon="-8.581073032692075">
        <ele>22.25</ele>
        <time>2025-05-04T06:54:01Z</time>
      </trkpt>
      <trkpt lat="41.144635006785393" lon="-8.581119971349835">
        <ele>31.379999999999999</ele>
        <time>2025-05-04T06:54:11Z</time>
      </trkpt>
      <trkpt lat="41.142224036157131" lon="-8.581002959981561">
        <ele>39.549999999999997</ele>
        <time>2025-05-04T06:54:25Z</time>
      </trkpt>
      <trkpt lat="41.139779035001993" lon="-8.580899024382234">
        <ele>38.590000000000003</ele>
        <time>2025-05-04T06:54:39Z</time>
      </trkpt>
      <trkpt lat="41.137715997174382" lon="-8.580652009695768">
        <ele>29.460000000000001</ele>
        <time>2025-05-04T06:54:50Z</time>
      </trkpt>
      <trkpt lat="41.136530041694641" lon="-8.579856986179948">
        <ele>25.609999999999999</ele>
        <time>2025-05-04T06:54:57Z</time>
      </trkpt>
      <trkpt lat="41.136366007849574" lon="-8.579708961769939">
        <ele>25.129999999999999</ele>
        <time>2025-05-04T06:54:58Z</time>
      </trkpt>
      <trkpt lat="41.135322041809559" lon="-8.578129978850484">
        <ele>21.289999999999999</ele>
        <time>2025-05-04T06:55:06Z</time>
      </trkpt>
      <trkpt lat="41.134346975013614" lon="-8.577143009752035">
        <ele>22.25</ele>
        <time>2025-05-04T06:55:12Z</time>
      </trkpt>
      <trkpt lat="41.133637027814984" lon="-8.576699020341039">
        <ele>24.649999999999999</ele>
        <time>2025-05-04T06:55:16Z</time>
      </trkpt>
      <trkpt lat="41.132085034623742" lon="-8.576354021206498">
        <ele>32.340000000000003</ele>
        <time>2025-05-04T06:55:24Z</time>
      </trkpt>
      <trkpt lat="41.130433967337012" lon="-8.576116980984807">
        <ele>41.950000000000003</ele>
        <time>2025-05-04T06:55:32Z</time>
      </trkpt>
      <trkpt lat="41.128687011078" lon="-8.575579030439258">
        <ele>51.090000000000003</ele>
        <time>2025-05-04T06:55:40Z</time>
      </trkpt>
      <trkpt lat="41.126429010182619" lon="-8.57440497726202">
        <ele>53.490000000000002</ele>
        <time>2025-05-04T06:55:50Z</time>
      </trkpt>
      <trkpt lat="41.123817963525653" lon="-8.573507023975253">
        <ele>49.159999999999997</ele>
        <time>2025-05-04T06:56:01Z</time>
      </trkpt>
      <trkpt lat="41.120739961043" lon="-8.572547966614366">
        <ele>40.509999999999998</ele>
        <time>2025-05-04T06:56:14Z</time>
      </trkpt>
      <trkpt lat="41.118371989578009" lon="-8.572144964709878">
        <ele>42.920000000000002</ele>
        <time>2025-05-04T06:56:24Z</time>
      </trkpt>
      <trkpt lat="41.116450019180775" lon="-8.571724025532603">
        <ele>54.450000000000003</ele>
        <time>2025-05-04T06:56:32Z</time>
      </trkpt>
      <trkpt lat="41.114917974919081" lon="-8.570763040333986">
        <ele>61.659999999999997</ele>
        <time>2025-05-04T06:56:39Z</time>
      </trkpt>
      <trkpt lat="41.112303994596004" lon="-8.568407976999879">
        <ele>69.829999999999998</ele>
        <time>2025-05-04T06:56:52Z</time>
      </trkpt>
      <trkpt lat="41.111085014417768" lon="-8.567320005968213">
        <ele>71.269999999999996</ele>
        <time>2025-05-04T06:56:58Z</time>
      </trkpt>
      <trkpt lat="41.109396982938051" lon="-8.566038999706507">
        <ele>73.680000000000007</ele>
        <time>2025-05-04T06:57:06Z</time>
      </trkpt>
      <trkpt lat="41.108458964154124" lon="-8.565741023048759">
        <ele>74.159999999999997</ele>
        <time>2025-05-04T06:57:10Z</time>
      </trkpt>
      <trkpt lat="41.107010990381241" lon="-8.565643960610032">
        <ele>76.079999999999998</ele>
        <time>2025-05-04T06:57:16Z</time>
      </trkpt>
      <trkpt lat="41.105598974972963" lon="-8.566079987213016">
        <ele>79.450000000000003</ele>
        <time>2025-05-04T06:57:22Z</time>
      </trkpt>
      <trkpt lat="41.103110974654555" lon="-8.567302990704775">
        <ele>87.140000000000001</ele>
        <time>2025-05-04T06:57:33Z</time>
      </trkpt>
      <trkpt lat="41.101845977827907" lon="-8.568456005305052">
        <ele>86.659999999999997</ele>
        <time>2025-05-04T06:57:40Z</time>
      </trkpt>
      <trkpt lat="41.100270012393594" lon="-8.570559024810791">
        <ele>90.019999999999996</ele>
        <time>2025-05-04T06:57:51Z</time>
      </trkpt>
      <trkpt lat="41.099738012999296" lon="-8.571209041401744">
        <ele>91.939999999999998</ele>
        <time>2025-05-04T06:57:55Z</time>
      </trkpt>
      <trkpt lat="41.098204040899873" lon="-8.572345040738583">
        <ele>100.11</ele>
        <time>2025-05-04T06:58:04Z</time>
      </trkpt>
      <trkpt lat="41.096422970294952" lon="-8.57291903346777">
        <ele>110.20999999999999</ele>
        <time>2025-05-04T06:58:12Z</time>
      </trkpt>
      <trkpt lat="41.094032032415271" lon="-8.573571983724833">
        <ele>119.34</ele>
        <time>2025-05-04T06:58:22Z</time>
      </trkpt>
      <trkpt lat="41.091477982699871" lon="-8.574655009433627">
        <ele>121.73999999999999</ele>
        <time>2025-05-04T06:58:33Z</time>
      </trkpt>
      <trkpt lat="41.088712038472295" lon="-8.57580098323524">
        <ele>126.06999999999999</ele>
        <time>2025-05-04T06:58:45Z</time>
      </trkpt>
      <trkpt lat="41.086776992306113" lon="-8.575863009318709">
        <ele>134.72</ele>
        <time>2025-05-04T06:58:53Z</time>
      </trkpt>
      <trkpt lat="41.084786038845778" lon="-8.575618006289005">
        <ele>144.81999999999999</ele>
        <time>2025-05-04T06:59:02Z</time>
      </trkpt>
      <trkpt lat="41.083155004307628" lon="-8.575459001585841">
        <ele>153.47</ele>
        <time>2025-05-04T06:59:10Z</time>
      </trkpt>
      <trkpt lat="41.081321965903044" lon="-8.575587999075651">
        <ele>163.08000000000001</ele>
        <time>2025-05-04T06:59:18Z</time>
      </trkpt>
      <trkpt lat="41.079455986618996" lon="-8.576301969587803">
        <ele>174.13999999999999</ele>
        <time>2025-05-04T06:59:26Z</time>
      </trkpt>
      <trkpt lat="41.077540973201394" lon="-8.577666962519288">
        <ele>185.19</ele>
        <time>2025-05-04T06:59:35Z</time>
      </trkpt>
      <trkpt lat="41.074628010392189" lon="-8.580053960904479">
        <ele>201.53</ele>
        <time>2025-05-04T06:59:49Z</time>
      </trkpt>
      <trkpt lat="41.072581987828016" lon="-8.581162970513105">
        <ele>203.94</ele>
        <time>2025-05-04T06:59:58Z</time>
      </trkpt>
      <trkpt lat="41.070688012987375" lon="-8.581869984045625">
        <ele>203.46000000000001</ele>
        <time>2025-05-04T07:00:06Z</time>
      </trkpt>
      <trkpt lat="41.068750033155084" lon="-8.582100989297032">
        <ele>196.72999999999999</ele>
        <time>2025-05-04T07:00:14Z</time>
      </trkpt>
      <trkpt lat="41.066824039444327" lon="-8.581721959635615">
        <ele>190.47999999999999</ele>
        <time>2025-05-04T07:00:22Z</time>
      </trkpt>
      <trkpt lat="41.064740968868136" lon="-8.580843033269048">
        <ele>181.34999999999999</ele>
        <time>2025-05-04T07:00:31Z</time>
      </trkpt>
      <trkpt lat="41.062452038750052" lon="-8.579782973974943">
        <ele>173.16999999999999</ele>
        <time>2025-05-04T07:00:41Z</time>
      </trkpt>
      <trkpt lat="41.060359999537468" lon="-8.578907987102866">
        <ele>166.93000000000001</ele>
        <time>2025-05-04T07:00:50Z</time>
      </trkpt>
      <trkpt lat="41.057275962084532" lon="-8.578043980523944">
        <ele>170.77000000000001</ele>
        <time>2025-05-04T07:01:03Z</time>
      </trkpt>
      <trkpt lat="41.05548600666225" lon="-8.577073020860553">
        <ele>175.58000000000001</ele>
        <time>2025-05-04T07:01:11Z</time>
      </trkpt>
      <trkpt lat="41.053901994600892" lon="-8.575566038489342">
        <ele>178.94</ele>
        <time>2025-05-04T07:01:19Z</time>
      </trkpt>
      <trkpt lat="41.052491990849376" lon="-8.573751021176577">
        <ele>179.41999999999999</ele>
        <time>2025-05-04T07:01:27Z</time>
      </trkpt>
      <trkpt lat="41.050856010988355" lon="-8.572330037131906">
        <ele>177.02000000000001</ele>
        <time>2025-05-04T07:01:35Z</time>
      </trkpt>
      <trkpt lat="41.04902096092701" lon="-8.57152403332293">
        <ele>171.25</ele>
        <time>2025-05-04T07:01:43Z</time>
      </trkpt>
      <trkpt lat="41.047117011621594" lon="-8.571239970624447">
        <ele>165.47999999999999</ele>
        <time>2025-05-04T07:01:51Z</time>
      </trkpt>
      <trkpt lat="41.044474029913545" lon="-8.570831017568708">
        <ele>164.03999999999999</ele>
        <time>2025-05-04T07:02:02Z</time>
      </trkpt>
      <trkpt lat="41.044000033289194" lon="-8.570689028128982">
        <ele>164.03999999999999</ele>
        <time>2025-05-04T07:02:04Z</time>
      </trkpt>
      <trkpt lat="41.043763998895884" lon="-8.570614010095596">
        <ele>164.03999999999999</ele>
        <time>2025-05-04T07:02:05Z</time>
      </trkpt>
      <trkpt lat="41.041129985824227" lon="-8.56999802403152">
        <ele>162.12</ele>
        <time>2025-05-04T07:02:16Z</time>
      </trkpt>
      <trkpt lat="41.039196029305458" lon="-8.570227017626166">
        <ele>159.72</ele>
        <time>2025-05-04T07:02:24Z</time>
      </trkpt>
      <trkpt lat="41.037127962335944" lon="-8.5711370408535">
        <ele>154.91</ele>
        <time>2025-05-04T07:02:33Z</time>
      </trkpt>
      <trkpt lat="41.035490976646543" lon="-8.571905996650457">
        <ele>152.50999999999999</ele>
        <time>2025-05-04T07:02:40Z</time>
      </trkpt>
      <trkpt lat="41.0335089918226" lon="-8.572232974693179">
        <ele>148.66</ele>
        <time>2025-05-04T07:02:48Z</time>
      </trkpt>
      <trkpt lat="41.031001964583993" lon="-8.572056032717228">
        <ele>151.53999999999999</ele>
        <time>2025-05-04T07:02:58Z</time>
      </trkpt>
      <trkpt lat="41.02901604026556" lon="-8.572331964969635">
        <ele>151.53999999999999</ele>
        <time>2025-05-04T07:03:06Z</time>
      </trkpt>
      <trkpt lat="41.027373019605875" lon="-8.573093041777611">
        <ele>147.22</ele>
        <time>2025-05-04T07:03:13Z</time>
      </trkpt>
      <trkpt lat="41.025261031463742" lon="-8.574814014136791">
        <ele>137.61000000000001</ele>
        <time>2025-05-04T07:03:23Z</time>
      </trkpt>
      <trkpt lat="41.02353997528553" lon="-8.576696002855897">
        <ele>128.47</ele>
        <time>2025-05-04T07:03:32Z</time>
      </trkpt>
      <trkpt lat="41.021429998800159" lon="-8.579466976225376">
        <ele>124.63</ele>
        <time>2025-05-04T07:03:44Z</time>
      </trkpt>
      <trkpt lat="41.019703997299075" lon="-8.580817971378565">
        <ele>124.15000000000001</ele>
        <time>2025-05-04T07:03:52Z</time>
      </trkpt>
      <trkpt lat="41.018571015447378" lon="-8.581410991027951">
        <ele>123.67</ele>
        <time>2025-05-04T07:03:58Z</time>
      </trkpt>
      <trkpt lat="41.017872970551252" lon="-8.581717014312744">
        <ele>123.67</ele>
        <time>2025-05-04T07:04:04Z</time>
      </trkpt>
      <trkpt lat="41.017567031085491" lon="-8.581845005974174">
        <ele>122.70999999999999</ele>
        <time>2025-05-04T07:04:11Z</time>
      </trkpt>
      <trkpt lat="41.017553033307195" lon="-8.581850035116077">
        <ele>122.70999999999999</ele>
        <time>2025-05-04T07:04:12Z</time>
      </trkpt>
      <trkpt lat="41.01752202026546" lon="-8.581861015409231">
        <ele>122.22</ele>
        <time>2025-05-04T07:04:24Z</time>
      </trkpt>
      <trkpt lat="41.017583040520549" lon="-8.582311039790511">
        <ele>120.78</ele>
        <time>2025-05-04T07:04:35Z</time>
      </trkpt>
      <trkpt lat="41.017650011926889" lon="-8.582382034510374">
        <ele>120.78</ele>
        <time>2025-05-04T07:04:46Z</time>
      </trkpt>
      <trkpt lat="41.017570970579982" lon="-8.582411035895348">
        <ele>120.3</ele>
        <time>2025-05-04T07:04:47Z</time>
      </trkpt>
      <trkpt lat="41.017537023872137" lon="-8.582423022016883">
        <ele>120.3</ele>
        <time>2025-05-04T07:04:48Z</time>
      </trkpt>
      <trkpt lat="41.017496036365628" lon="-8.58243802562356">
        <ele>119.81999999999999</ele>
        <time>2025-05-04T07:04:49Z</time>
      </trkpt>
      <trkpt lat="41.017465023323894" lon="-8.582450011745095">
        <ele>119.81999999999999</ele>
        <time>2025-05-04T07:04:50Z</time>
      </trkpt>
      <trkpt lat="41.017211973667145" lon="-8.582542967051268">
        <ele>118.86</ele>
        <time>2025-05-04T07:05:00Z</time>
      </trkpt>
      <trkpt lat="41.017211973667145" lon="-8.582542967051268">
        <ele>118.38</ele>
        <time>2025-05-04T07:05:17Z</time>
      </trkpt>
      <trkpt lat="41.017211973667145" lon="-8.582542967051268">
        <ele>117.90000000000001</ele>
        <time>2025-05-04T07:06:06Z</time>
      </trkpt>
      <trkpt lat="41.017211973667145" lon="-8.582542967051268">
        <ele>117.42</ele>
        <time>2025-05-04T07:06:38Z</time>
      </trkpt>
      <trkpt lat="41.017211973667145" lon="-8.582542967051268">
        <ele>118.86</ele>
        <time>2025-05-04T07:06:58Z</time>
      </trkpt>
      <trkpt lat="41.017211973667145" lon="-8.582542967051268">
        <ele>118.86</ele>
        <time>2025-05-04T07:07:20Z</time>
      </trkpt>
      <trkpt lat="41.017402997240424" lon="-8.582472978159785">
        <ele>121.26000000000001</ele>
        <time>2025-05-04T07:07:32Z</time>
      </trkpt>
      <trkpt lat="41.017627967521548" lon="-8.582683028653264">
        <ele>122.22</ele>
        <time>2025-05-04T07:07:35Z</time>
      </trkpt>
      <trkpt lat="41.017627967521548" lon="-8.582683028653264">
        <ele>122.22</ele>
        <time>2025-05-04T07:07:36Z</time>
      </trkpt>
      <trkpt lat="41.017575999721885" lon="-8.582382034510374">
        <ele>122.70999999999999</ele>
        <time>2025-05-04T07:07:38Z</time>
      </trkpt>
      <trkpt lat="41.017550015822053" lon="-8.582270974293351">
        <ele>122.22</ele>
        <time>2025-05-04T07:07:42Z</time>
      </trkpt>
      <trkpt lat="41.017540041357279" lon="-8.582422016188502">
        <ele>121.73999999999999</ele>
        <time>2025-05-04T07:07:44Z</time>
      </trkpt>
      <trkpt lat="41.017499975860119" lon="-8.582437019795179">
        <ele>121.73999999999999</ele>
        <time>2025-05-04T07:07:45Z</time>
      </trkpt>
      <trkpt lat="41.01722102612257" lon="-8.582539027556777">
        <ele>119.81999999999999</ele>
        <time>2025-05-04T07:07:55Z</time>
      </trkpt>
      <trkpt lat="41.01709202863276" lon="-8.582586972042918">
        <ele>118.38</ele>
        <time>2025-05-04T07:08:16Z</time>
      </trkpt>
      <trkpt lat="41.01709202863276" lon="-8.582586972042918">
        <ele>118.38</ele>
        <time>2025-05-04T07:08:33Z</time>
      </trkpt>
      <trkpt lat="41.017060009762645" lon="-8.582598036155105">
        <ele>118.38</ele>
        <time>2025-05-04T07:08:47Z</time>
      </trkpt>
      <trkpt lat="41.01700603030622" lon="-8.582617985084653">
        <ele>118.38</ele>
        <time>2025-05-04T07:08:48Z</time>
      </trkpt>
      <trkpt lat="41.016991026699543" lon="-8.582621002569795">
        <ele>117.90000000000001</ele>
        <time>2025-05-04T07:08:49Z</time>
      </trkpt>
      <trkpt lat="41.016949033364654" lon="-8.582627037540078">
        <ele>117.90000000000001</ele>
        <time>2025-05-04T07:08:50Z</time>
      </trkpt>
      <trkpt lat="41.016889018937945" lon="-8.582636006176472">
        <ele>117.90000000000001</ele>
        <time>2025-05-04T07:08:51Z</time>
      </trkpt>
      <trkpt lat="41.016829004511237" lon="-8.582644974812865">
        <ele>118.38</ele>
        <time>2025-05-04T07:08:52Z</time>
      </trkpt>
      <trkpt lat="41.016134982928634" lon="-8.582684034481645">
        <ele>119.81999999999999</ele>
        <time>2025-05-04T07:09:00Z</time>
      </trkpt>
      <trkpt lat="41.014684997498989" lon="-8.582755029201508">
        <ele>119.81999999999999</ele>
        <time>2025-05-04T07:09:09Z</time>
      </trkpt>
      <trkpt lat="41.013292009010911" lon="-8.583074966445565">
        <ele>119.81999999999999</ele>
        <time>2025-05-04T07:09:16Z</time>
      </trkpt>
      <trkpt lat="41.011203993111849" lon="-8.582923002541065">
        <ele>122.22</ele>
        <time>2025-05-04T07:09:25Z</time>
      </trkpt>
      <trkpt lat="41.00819899700582" lon="-8.5825240239501">
        <ele>124.15000000000001</ele>
        <time>2025-05-04T07:09:37Z</time>
      </trkpt>
      <trkpt lat="41.005691969767213" lon="-8.582443976774812">
        <ele>117.42</ele>
        <time>2025-05-04T07:09:47Z</time>
      </trkpt>
      <trkpt lat="41.002987967804074" lon="-8.582829041406512">
        <ele>110.69</ele>
        <time>2025-05-04T07:09:58Z</time>
      </trkpt>
      <trkpt lat="40.999810975044966" lon="-8.583528008311987">
        <ele>118.38</ele>
        <time>2025-05-04T07:10:11Z</time>
      </trkpt>
      <trkpt lat="40.996820982545614" lon="-8.58396302908659">
        <ele>125.11</ele>
        <time>2025-05-04T07:10:23Z</time>
      </trkpt>
      <trkpt lat="40.99539203569293" lon="-8.584581026807427">
        <ele>124.63</ele>
        <time>2025-05-04T07:10:29Z</time>
      </trkpt>
      <trkpt lat="40.993265965953469" lon="-8.585541006177664">
        <ele>123.19</ele>
        <time>2025-05-04T07:10:38Z</time>
      </trkpt>
      <trkpt lat="40.991491014137864" lon="-8.585762958973646">
        <ele>118.38</ele>
        <time>2025-05-04T07:10:45Z</time>
      </trkpt>
      <trkpt lat="40.989379025995731" lon="-8.585400022566319">
        <ele>117.42</ele>
        <time>2025-05-04T07:10:53Z</time>
      </trkpt>
      <trkpt lat="40.987362004816532" lon="-8.584293024614453">
        <ele>119.34</ele>
        <time>2025-05-04T07:11:01Z</time>
      </trkpt>
      <trkpt lat="40.985845969989896" lon="-8.582742959260941">
        <ele>118.86</ele>
        <time>2025-05-04T07:11:08Z</time>
      </trkpt>
      <trkpt lat="40.984195992350578" lon="-8.580304998904467">
        <ele>112.13</ele>
        <time>2025-05-04T07:11:17Z</time>
      </trkpt>
      <trkpt lat="40.982768973335624" lon="-8.578653009608388">
        <ele>104.92</ele>
        <time>2025-05-04T07:11:24Z</time>
      </trkpt>
      <trkpt lat="40.980839962139726" lon="-8.577266978099942">
        <ele>103.48</ele>
        <time>2025-05-04T07:11:32Z</time>
      </trkpt>
      <trkpt lat="40.978973982855678" lon="-8.576612016186118">
        <ele>104.44</ele>
        <time>2025-05-04T07:11:39Z</time>
      </trkpt>
      <trkpt lat="40.976539961993694" lon="-8.575925035402179">
        <ele>113.09</ele>
        <time>2025-05-04T07:11:48Z</time>
      </trkpt>
      <trkpt lat="40.974790994077921" lon="-8.574881991371512">
        <ele>120.78</ele>
        <time>2025-05-04T07:11:55Z</time>
      </trkpt>
      <trkpt lat="40.972469039261341" lon="-8.572905035689473">
        <ele>129.91999999999999</ele>
        <time>2025-05-04T07:12:05Z</time>
      </trkpt>
      <trkpt lat="40.970681011676788" lon="-8.571944972500205">
        <ele>137.13</ele>
        <time>2025-05-04T07:12:12Z</time>
      </trkpt>
      <trkpt lat="40.968761974945664" lon="-8.570496998727322">
        <ele>144.81999999999999</ele>
        <time>2025-05-04T07:12:20Z</time>
      </trkpt>
      <trkpt lat="40.966672031208873" lon="-8.568693967536092">
        <ele>146.74000000000001</ele>
        <time>2025-05-04T07:12:29Z</time>
      </trkpt>
      <trkpt lat="40.964838992804289" lon="-8.567847982048988">
        <ele>144.81999999999999</ele>
        <time>2025-05-04T07:12:36Z</time>
      </trkpt>
      <trkpt lat="40.962894978001714" lon="-8.5676349978894">
        <ele>139.53</ele>
        <time>2025-05-04T07:12:43Z</time>
      </trkpt>
      <trkpt lat="40.961001003161073" lon="-8.568046968430281">
        <ele>130.88</ele>
        <time>2025-05-04T07:12:50Z</time>
      </trkpt>
      <trkpt lat="40.959215993061662" lon="-8.569028992205858">
        <ele>121.26000000000001</ele>
        <time>2025-05-04T07:12:57Z</time>
      </trkpt>
      <trkpt lat="40.957395024597645" lon="-8.57066698372364">
        <ele>112.61</ele>
        <time>2025-05-04T07:13:05Z</time>
      </trkpt>
      <trkpt lat="40.955427959561348" lon="-8.5719970241189">
        <ele>109.25</ele>
        <time>2025-05-04T07:13:13Z</time>
      </trkpt>
      <trkpt lat="40.953294010832906" lon="-8.572623990476131">
        <ele>109.25</ele>
        <time>2025-05-04T07:13:21Z</time>
      </trkpt>
      <trkpt lat="40.950549021363258" lon="-8.572789030149579">
        <ele>113.09</ele>
        <time>2025-05-04T07:13:31Z</time>
      </trkpt>
      <trkpt lat="40.94836100935936" lon="-8.573218015953898">
        <ele>118.38</ele>
        <time>2025-05-04T07:13:39Z</time>
      </trkpt>
      <trkpt lat="40.94595598988235" lon="-8.574088979512453">
        <ele>124.63</ele>
        <time>2025-05-04T07:13:48Z</time>
      </trkpt>
      <trkpt lat="40.943754985928535" lon="-8.574426015838981">
        <ele>123.19</ele>
        <time>2025-05-04T07:13:56Z</time>
      </trkpt>
      <trkpt lat="40.94153000973165" lon="-8.574343034997582">
        <ele>115.5</ele>
        <time>2025-05-04T07:14:04Z</time>
      </trkpt>
      <trkpt lat="40.939075034111738" lon="-8.57390801422298">
        <ele>107.31999999999999</ele>
        <time>2025-05-04T07:14:13Z</time>
      </trkpt>
      <trkpt lat="40.936409002169967" lon="-8.572930013760924">
        <ele>103.48</ele>
        <time>2025-05-04T07:14:23Z</time>
      </trkpt>
      <trkpt lat="40.934326015412807" lon="-8.571914965286851">
        <ele>103</ele>
        <time>2025-05-04T07:14:31Z</time>
      </trkpt>
      <trkpt lat="40.930758006870747" lon="-8.570011015981436">
        <ele>110.20999999999999</ele>
        <time>2025-05-04T07:14:45Z</time>
      </trkpt>
      <trkpt lat="40.928117958828807" lon="-8.568916004151106">
        <ele>118.38</ele>
        <time>2025-05-04T07:14:55Z</time>
      </trkpt>
      <trkpt lat="40.9248579852283" lon="-8.568035988137126">
        <ele>121.73999999999999</ele>
        <time>2025-05-04T07:15:07Z</time>
      </trkpt>
      <trkpt lat="40.922381971031427" lon="-8.567759972065687">
        <ele>112.61</ele>
        <time>2025-05-04T07:15:16Z</time>
      </trkpt>
      <trkpt lat="40.918782027438283" lon="-8.567817974835634">
        <ele>106.84</ele>
        <time>2025-05-04T07:15:29Z</time>
      </trkpt>
      <trkpt lat="40.914642959833145" lon="-8.568001035600901">
        <ele>102.04000000000001</ele>
        <time>2025-05-04T07:15:44Z</time>
      </trkpt>
      <trkpt lat="40.910787032917142" lon="-8.567757038399577">
        <ele>108.29000000000001</ele>
        <time>2025-05-04T07:15:58Z</time>
      </trkpt>
      <trkpt lat="40.907480036839843" lon="-8.567269966006279">
        <ele>115.5</ele>
        <time>2025-05-04T07:16:10Z</time>
      </trkpt>
      <trkpt lat="40.904994970187545" lon="-8.566958997398615">
        <ele>116.45999999999999</ele>
        <time>2025-05-04T07:16:19Z</time>
      </trkpt>
      <trkpt lat="40.902765970677137" lon="-8.566987998783588">
        <ele>114.53</ele>
        <time>2025-05-04T07:16:27Z</time>
      </trkpt>
      <trkpt lat="40.900563960894942" lon="-8.567393012344837">
        <ele>108.29000000000001</ele>
        <time>2025-05-04T07:16:35Z</time>
      </trkpt>
      <trkpt lat="40.897554019466043" lon="-8.568094996735454">
        <ele>96.269999999999996</ele>
        <time>2025-05-04T07:16:46Z</time>
      </trkpt>
      <trkpt lat="40.894825039431453" lon="-8.568518031388521">
        <ele>85.209999999999994</ele>
        <time>2025-05-04T07:16:56Z</time>
      </trkpt>
      <trkpt lat="40.891795987263322" lon="-8.568482995033264">
        <ele>81.370000000000005</ele>
        <time>2025-05-04T07:17:07Z</time>
      </trkpt>
      <trkpt lat="40.889075975865126" lon="-8.567874971777201">
        <ele>85.689999999999998</ele>
        <time>2025-05-04T07:17:17Z</time>
      </trkpt>
      <trkpt lat="40.887034982442856" lon="-8.566783983260393">
        <ele>92.900000000000006</ele>
        <time>2025-05-04T07:17:25Z</time>
      </trkpt>
      <trkpt lat="40.885295988991857" lon="-8.565006013959646">
        <ele>101.08</ele>
        <time>2025-05-04T07:17:33Z</time>
      </trkpt>
      <trkpt lat="40.883439984172583" lon="-8.562807021662593">
        <ele>105.88</ele>
        <time>2025-05-04T07:17:42Z</time>
      </trkpt>
      <trkpt lat="40.881728986278176" lon="-8.561602039262652">
        <ele>107.81</ele>
        <time>2025-05-04T07:17:49Z</time>
      </trkpt>
      <trkpt lat="40.879881028085947" lon="-8.560940958559513">
        <ele>107.31999999999999</ele>
        <time>2025-05-04T07:17:56Z</time>
      </trkpt>
      <trkpt lat="40.877378024160862" lon="-8.560680029913783">
        <ele>104.44</ele>
        <time>2025-05-04T07:18:05Z</time>
      </trkpt>
      <trkpt lat="40.87434402666986" lon="-8.560448018833995">
        <ele>104.44</ele>
        <time>2025-05-04T07:18:16Z</time>
      </trkpt>
      <trkpt lat="40.871320003643632" lon="-8.560193041339517">
        <ele>106.84</ele>
        <time>2025-05-04T07:18:27Z</time>
      </trkpt>
      <trkpt lat="40.86884499527514" lon="-8.559819962829351">
        <ele>107.81</ele>
        <time>2025-05-04T07:18:36Z</time>
      </trkpt>
      <trkpt lat="40.865833964198828" lon="-8.559116972610354">
        <ele>111.17</ele>
        <time>2025-05-04T07:18:47Z</time>
      </trkpt>
      <trkpt lat="40.863701021298766" lon="-8.55837500654161">
        <ele>110.20999999999999</ele>
        <time>2025-05-04T07:18:55Z</time>
      </trkpt>
      <trkpt lat="40.861066002398729" lon="-8.55721402913332">
        <ele>111.65000000000001</ele>
        <time>2025-05-04T07:19:05Z</time>
      </trkpt>
      <trkpt lat="40.85818799212575" lon="-8.555889017879963">
        <ele>110.20999999999999</ele>
        <time>2025-05-04T07:19:16Z</time>
      </trkpt>
      <trkpt lat="40.856552012264729" lon="-8.55551702901721">
        <ele>109.25</ele>
        <time>2025-05-04T07:19:22Z</time>
      </trkpt>
      <trkpt lat="40.854615038260818" lon="-8.555591041222215">
        <ele>107.81</ele>
        <time>2025-05-04T07:19:29Z</time>
      </trkpt>
      <trkpt lat="40.85247497074306" lon="-8.556310962885618">
        <ele>104.44</ele>
        <time>2025-05-04T07:19:37Z</time>
      </trkpt>
      <trkpt lat="40.850116973742843" lon="-8.557270020246506">
        <ele>100.59999999999999</ele>
        <time>2025-05-04T07:19:46Z</time>
      </trkpt>
      <trkpt lat="40.848210006952286" lon="-8.557606972754002">
        <ele>96.75</ele>
        <time>2025-05-04T07:19:53Z</time>
      </trkpt>
      <trkpt lat="40.846272027119994" lon="-8.557448973879218">
        <ele>95.310000000000002</ele>
        <time>2025-05-04T07:20:00Z</time>
      </trkpt>
      <trkpt lat="40.843872036784887" lon="-8.556550014764071">
        <ele>91.459999999999994</ele>
        <time>2025-05-04T07:20:09Z</time>
      </trkpt>
      <trkpt lat="40.840666964650154" lon="-8.55539096519351">
        <ele>85.689999999999998</ele>
        <time>2025-05-04T07:20:21Z</time>
      </trkpt>
      <trkpt lat="40.838488005101681" lon="-8.555021993815899">
        <ele>84.730000000000004</ele>
        <time>2025-05-04T07:20:29Z</time>
      </trkpt>
      <trkpt lat="40.83655203692615" lon="-8.554943958297372">
        <ele>85.209999999999994</ele>
        <time>2025-05-04T07:20:36Z</time>
      </trkpt>
      <trkpt lat="40.833510998636484" lon="-8.554899031296372">
        <ele>86.180000000000007</ele>
        <time>2025-05-04T07:20:47Z</time>
      </trkpt>
      <trkpt lat="40.830483036115766" lon="-8.554640030488372">
        <ele>81.849999999999994</ele>
        <time>2025-05-04T07:20:58Z</time>
      </trkpt>
      <trkpt lat="40.828294018283486" lon="-8.554236022755504">
        <ele>79.450000000000003</ele>
        <time>2025-05-04T07:21:06Z</time>
      </trkpt>
      <trkpt lat="40.825862009078264" lon="-8.553621964529157">
        <ele>76.079999999999998</ele>
        <time>2025-05-04T07:21:15Z</time>
      </trkpt>
      <trkpt lat="40.823192037642002" lon="-8.55263901874423">
        <ele>77.519999999999996</ele>
        <time>2025-05-04T07:21:25Z</time>
      </trkpt>
      <trkpt lat="40.820057960227132" lon="-8.551161959767342">
        <ele>76.079999999999998</ele>
        <time>2025-05-04T07:21:37Z</time>
      </trkpt>
      <trkpt lat="40.817713961005211" lon="-8.550034007057548">
        <ele>73.200000000000003</ele>
        <time>2025-05-04T07:21:46Z</time>
      </trkpt>
      <trkpt lat="40.814790017902851" lon="-8.54898601770401">
        <ele>73.680000000000007</ele>
        <time>2025-05-04T07:21:57Z</time>
      </trkpt>
      <trkpt lat="40.812337975949049" lon="-8.548418981954455">
        <ele>75.599999999999994</ele>
        <time>2025-05-04T07:22:06Z</time>
      </trkpt>
      <trkpt lat="40.810123980045319" lon="-8.548185965046287">
        <ele>76.560000000000002</ele>
        <time>2025-05-04T07:22:14Z</time>
      </trkpt>
      <trkpt lat="40.807909984141588" lon="-8.548188982531428">
        <ele>75.599999999999994</ele>
        <time>2025-05-04T07:22:22Z</time>
      </trkpt>
      <trkpt lat="40.805701017379761" lon="-8.548388974741101">
        <ele>72.719999999999999</ele>
        <time>2025-05-04T07:22:30Z</time>
      </trkpt>
      <trkpt lat="40.802124040201306" lon="-8.548845034092665">
        <ele>68.390000000000001</ele>
        <time>2025-05-04T07:22:43Z</time>
      </trkpt>
      <trkpt lat="40.799660012125969" lon="-8.549174023792148">
        <ele>62.619999999999997</ele>
        <time>2025-05-04T07:22:52Z</time>
      </trkpt>
      <trkpt lat="40.795778017491102" lon="-8.549599992111325">
        <ele>63.100000000000001</ele>
        <time>2025-05-04T07:23:06Z</time>
      </trkpt>
      <trkpt lat="40.79356100410223" lon="-8.549534026533365">
        <ele>61.659999999999997</ele>
        <time>2025-05-04T07:23:14Z</time>
      </trkpt>
      <trkpt lat="40.791096976026893" lon="-8.549042008817196">
        <ele>62.140000000000001</ele>
        <time>2025-05-04T07:23:23Z</time>
      </trkpt>
      <trkpt lat="40.788719030097127" lon="-8.54808303527534">
        <ele>62.140000000000001</ele>
        <time>2025-05-04T07:23:32Z</time>
      </trkpt>
      <trkpt lat="40.785399964079261" lon="-8.546297019347549">
        <ele>65.030000000000001</ele>
        <time>2025-05-04T07:23:45Z</time>
      </trkpt>
      <trkpt lat="40.782526982948184" lon="-8.544940995052457">
        <ele>69.349999999999994</ele>
        <time>2025-05-04T07:23:56Z</time>
      </trkpt>
      <trkpt lat="40.782267982140183" lon="-8.544843010604382">
        <ele>69.349999999999994</ele>
        <time>2025-05-04T07:23:57Z</time>
      </trkpt>
      <trkpt lat="40.782006969675422" lon="-8.544747959822416">
        <ele>69.829999999999998</ele>
        <time>2025-05-04T07:23:58Z</time>
      </trkpt>
      <trkpt lat="40.779559034854174" lon="-8.544018985703588">
        <ele>72.719999999999999</ele>
        <time>2025-05-04T07:24:07Z</time>
      </trkpt>
      <trkpt lat="40.777370017021894" lon="-8.543640039861202">
        <ele>77.040000000000006</ele>
        <time>2025-05-04T07:24:15Z</time>
      </trkpt>
      <trkpt lat="40.775345033034682" lon="-8.543497966602445">
        <ele>78.480000000000004</ele>
        <time>2025-05-04T07:24:22Z</time>
      </trkpt>
      <trkpt lat="40.7717539742589" lon="-8.543666023761034">
        <ele>78.480000000000004</ele>
        <time>2025-05-04T07:24:34Z</time>
      </trkpt>
      <trkpt lat="40.769062964245677" lon="-8.543806001543999">
        <ele>77.040000000000006</ele>
        <time>2025-05-04T07:24:43Z</time>
      </trkpt>
      <trkpt lat="40.767001016065478" lon="-8.543363017961383">
        <ele>73.680000000000007</ele>
        <time>2025-05-04T07:24:50Z</time>
      </trkpt>
      <trkpt lat="40.765057001262903" lon="-8.542321985587478">
        <ele>66.950000000000003</ele>
        <time>2025-05-04T07:24:57Z</time>
      </trkpt>
      <trkpt lat="40.762821966782212" lon="-8.540877029299736">
        <ele>61.659999999999997</ele>
        <time>2025-05-04T07:25:06Z</time>
      </trkpt>
      <trkpt lat="40.761224962770939" lon="-8.539844965562224">
        <ele>59.259999999999998</ele>
        <time>2025-05-04T07:25:15Z</time>
      </trkpt>
      <trkpt lat="40.759130995720625" lon="-8.538495982065797">
        <ele>58.299999999999997</ele>
        <time>2025-05-04T07:25:27Z</time>
      </trkpt>
      <trkpt lat="40.756722036749125" lon="-8.536948012188077">
        <ele>62.619999999999997</ele>
        <time>2025-05-04T07:25:39Z</time>
      </trkpt>
      <trkpt lat="40.75460996478796" lon="-8.535571033135057">
        <ele>66.469999999999999</ele>
        <time>2025-05-04T07:25:47Z</time>
      </trkpt>
      <trkpt lat="40.751666994765401" lon="-8.533617965877056">
        <ele>68.870000000000005</ele>
        <time>2025-05-04T07:25:58Z</time>
      </trkpt>
      <trkpt lat="40.74857197701931" lon="-8.531267009675503">
        <ele>73.200000000000003</ele>
        <time>2025-05-04T07:26:10Z</time>
      </trkpt>
      <trkpt lat="40.746709015220404" lon="-8.529817024245858">
        <ele>73.200000000000003</ele>
        <time>2025-05-04T07:26:18Z</time>
      </trkpt>
      <trkpt lat="40.745088960975409" lon="-8.528679013252258">
        <ele>72.719999999999999</ele>
        <time>2025-05-04T07:26:24Z</time>
      </trkpt>
      <trkpt lat="40.743569992482662" lon="-8.527691038325429">
        <ele>70.790000000000006</ele>
        <time>2025-05-04T07:26:30Z</time>
      </trkpt>
      <trkpt lat="40.742127969861031" lon="-8.526885034516454">
        <ele>69.829999999999998</ele>
        <time>2025-05-04T07:26:36Z</time>
      </trkpt>
      <trkpt lat="40.739361019805074" lon="-8.525480981916189">
        <ele>68.390000000000001</ele>
        <time>2025-05-04T07:26:46Z</time>
      </trkpt>
      <trkpt lat="40.736498013138771" lon="-8.524315981194377">
        <ele>72.719999999999999</ele>
        <time>2025-05-04T07:26:56Z</time>
      </trkpt>
      <trkpt lat="40.73271400295198" lon="-8.523201020434499">
        <ele>80.409999999999997</ele>
        <time>2025-05-04T07:27:09Z</time>
      </trkpt>
      <trkpt lat="40.73035198263824" lon="-8.522735992446542">
        <ele>85.209999999999994</ele>
        <time>2025-05-04T07:27:17Z</time>
      </trkpt>
      <trkpt lat="40.726463031023741" lon="-8.522313041612506">
        <ele>91.939999999999998</ele>
        <time>2025-05-04T07:27:30Z</time>
      </trkpt>
      <trkpt lat="40.72362701408565" lon="-8.52227901108563">
        <ele>96.269999999999996</ele>
        <time>2025-05-04T07:27:40Z</time>
      </trkpt>
      <trkpt lat="40.71948098950088" lon="-8.522460982203484">
        <ele>100.59999999999999</ele>
        <time>2025-05-04T07:27:55Z</time>
      </trkpt>
      <trkpt lat="40.715613998472691" lon="-8.522264007478952">
        <ele>103.48</ele>
        <time>2025-05-04T07:28:09Z</time>
      </trkpt>
      <trkpt lat="40.711759999394417" lon="-8.521826975047588">
        <ele>106.36</ele>
        <time>2025-05-04T07:28:23Z</time>
      </trkpt>
      <trkpt lat="40.70790097117424" lon="-8.521778024733067">
        <ele>108.29000000000001</ele>
        <time>2025-05-04T07:28:37Z</time>
      </trkpt>
      <trkpt lat="40.704876026138663" lon="-8.522241963073611">
        <ele>109.25</ele>
        <time>2025-05-04T07:28:48Z</time>
      </trkpt>
      <trkpt lat="40.701028984040022" lon="-8.522989964112639">
        <ele>107.81</ele>
        <time>2025-05-04T07:29:02Z</time>
      </trkpt>
      <trkpt lat="40.697719976305962" lon="-8.523180987685919">
        <ele>105.88</ele>
        <time>2025-05-04T07:29:14Z</time>
      </trkpt>
      <trkpt lat="40.694978004321456" lon="-8.522963980212808">
        <ele>106.84</ele>
        <time>2025-05-04T07:29:24Z</time>
      </trkpt>
      <trkpt lat="40.691403038799763" lon="-8.522102991119027">
        <ele>111.65000000000001</ele>
        <time>2025-05-04T07:29:37Z</time>
      </trkpt>
      <trkpt lat="40.688264016062021" lon="-8.520822990685701">
        <ele>117.42</ele>
        <time>2025-05-04T07:29:48Z</time>
      </trkpt>
      <trkpt lat="40.684914020821452" lon="-8.519094977527857">
        <ele>116.45999999999999</ele>
        <time>2025-05-04T07:30:00Z</time>
      </trkpt>
      <trkpt lat="40.682857017964125" lon="-8.518631039187312">
        <ele>111.17</ele>
        <time>2025-05-04T07:30:07Z</time>
      </trkpt>
      <trkpt lat="40.68076497875154" lon="-8.518855003640056">
        <ele>103.95999999999999</ele>
        <time>2025-05-04T07:30:14Z</time>
      </trkpt>
      <trkpt lat="40.678413016721606" lon="-8.519447017461062">
        <ele>99.629999999999995</ele>
        <time>2025-05-04T07:30:22Z</time>
      </trkpt>
      <trkpt lat="40.676040016114712" lon="-8.519716998562217">
        <ele>94.349999999999994</ele>
        <time>2025-05-04T07:30:30Z</time>
      </trkpt>
      <trkpt lat="40.673370966687799" lon="-8.519344003871083">
        <ele>90.980000000000004</ele>
        <time>2025-05-04T07:30:39Z</time>
      </trkpt>
      <trkpt lat="40.67081599496305" lon="-8.518315963447094">
        <ele>87.620000000000005</ele>
        <time>2025-05-04T07:30:48Z</time>
      </trkpt>
      <trkpt lat="40.667717037722468" lon="-8.516659028828144">
        <ele>87.140000000000001</ele>
        <time>2025-05-04T07:31:00Z</time>
      </trkpt>
      <trkpt lat="40.664101000875235" lon="-8.514886004850268">
        <ele>90.5</ele>
        <time>2025-05-04T07:31:14Z</time>
      </trkpt>
      <trkpt lat="40.662163021042943" lon="-8.51463102735579">
        <ele>92.420000000000002</ele>
        <time>2025-05-04T07:31:21Z</time>
      </trkpt>
      <trkpt lat="40.660255970433354" lon="-8.514990024268627">
        <ele>90.980000000000004</ele>
        <time>2025-05-04T07:31:28Z</time>
      </trkpt>
      <trkpt lat="40.658459980040789" lon="-8.515935000032187">
        <ele>89.540000000000006</ele>
        <time>2025-05-04T07:31:35Z</time>
      </trkpt>
      <trkpt lat="40.656332988291979" lon="-8.517581038177013">
        <ele>89.540000000000006</ele>
        <time>2025-05-04T07:31:44Z</time>
      </trkpt>
      <trkpt lat="40.654506990686059" lon="-8.518406990915537">
        <ele>90.019999999999996</ele>
        <time>2025-05-04T07:31:51Z</time>
      </trkpt>
      <trkpt lat="40.652299029752612" lon="-8.518641013652086">
        <ele>88.579999999999998</ele>
        <time>2025-05-04T07:31:59Z</time>
      </trkpt>
      <trkpt lat="40.649530990049243" lon="-8.518823990598321">
        <ele>85.209999999999994</ele>
        <time>2025-05-04T07:32:09Z</time>
      </trkpt>
      <trkpt lat="40.647682026028633" lon="-8.51946797221899">
        <ele>83.290000000000006</ele>
        <time>2025-05-04T07:32:16Z</time>
      </trkpt>
      <trkpt lat="40.645668022334576" lon="-8.52069198153913">
        <ele>79.930000000000007</ele>
        <time>2025-05-04T07:32:24Z</time>
      </trkpt>
      <trkpt lat="40.643015988171101" lon="-8.522653011605144">
        <ele>72.719999999999999</ele>
        <time>2025-05-04T07:32:35Z</time>
      </trkpt>
      <trkpt lat="40.640440983697772" lon="-8.523944998160005">
        <ele>65.989999999999995</ele>
        <time>2025-05-04T07:32:45Z</time>
      </trkpt>
      <trkpt lat="40.63755702227354" lon="-8.525192979723215">
        <ele>61.659999999999997</ele>
        <time>2025-05-04T07:32:56Z</time>
      </trkpt>
      <trkpt lat="40.635241018608212" lon="-8.526708008721471">
        <ele>59.259999999999998</ele>
        <time>2025-05-04T07:33:05Z</time>
      </trkpt>
      <trkpt lat="40.633330028504133" lon="-8.528442978858948">
        <ele>55.409999999999997</ele>
        <time>2025-05-04T07:33:13Z</time>
      </trkpt>
      <trkpt lat="40.631061969324946" lon="-8.531399024650455">
        <ele>42.439999999999998</ele>
        <time>2025-05-04T07:33:24Z</time>
      </trkpt>
      <trkpt lat="40.629191966727376" lon="-8.533756015822291">
        <ele>30.899999999999999</ele>
        <time>2025-05-04T07:33:33Z</time>
      </trkpt>
      <trkpt lat="40.627467976883054" lon="-8.535155961290002">
        <ele>23.690000000000001</ele>
        <time>2025-05-04T07:33:40Z</time>
      </trkpt>
      <trkpt lat="40.625318018719554" lon="-8.536238986998797">
        <ele>16</ele>
        <time>2025-05-04T07:33:48Z</time>
      </trkpt>
      <trkpt lat="40.622112024575472" lon="-8.537861974909902">
        <ele>10.710000000000001</ele>
        <time>2025-05-04T07:34:00Z</time>
      </trkpt>
      <trkpt lat="40.618752976879478" lon="-8.540058033540845">
        <ele>14.08</ele>
        <time>2025-05-04T07:34:13Z</time>
      </trkpt>
      <trkpt lat="40.616078982129693" lon="-8.542327014729381">
        <ele>17.920000000000002</ele>
        <time>2025-05-04T07:34:24Z</time>
      </trkpt>
      <trkpt lat="40.613577989861369" lon="-8.544893972575665">
        <ele>27.050000000000001</ele>
        <time>2025-05-04T07:34:35Z</time>
      </trkpt>
      <trkpt lat="40.611315965652466" lon="-8.547231014817953">
        <ele>34.740000000000002</ele>
        <time>2025-05-04T07:34:45Z</time>
      </trkpt>
      <trkpt lat="40.608774991706014" lon="-8.549059024080634">
        <ele>42.920000000000002</ele>
        <time>2025-05-04T07:34:55Z</time>
      </trkpt>
      <trkpt lat="40.605556005612016" lon="-8.550793994218111">
        <ele>50.609999999999999</ele>
        <time>2025-05-04T07:35:07Z</time>
      </trkpt>
      <trkpt lat="40.603277971968055" lon="-8.552413964644074">
        <ele>52.530000000000001</ele>
        <time>2025-05-04T07:35:16Z</time>
      </trkpt>
      <trkpt lat="40.601016031578183" lon="-8.554758969694376">
        <ele>53.490000000000002</ele>
        <time>2025-05-04T07:35:26Z</time>
      </trkpt>
      <trkpt lat="40.599147034808993" lon="-8.557105986401439">
        <ele>55.409999999999997</ele>
        <time>2025-05-04T07:35:35Z</time>
      </trkpt>
      <trkpt lat="40.597275020554662" lon="-8.55889099650085">
        <ele>59.740000000000002</ele>
        <time>2025-05-04T07:35:43Z</time>
      </trkpt>
      <trkpt lat="40.59518801048398" lon="-8.560184994712472">
        <ele>66.469999999999999</ele>
        <time>2025-05-04T07:35:51Z</time>
      </trkpt>
      <trkpt lat="40.593221029266715" lon="-8.560874992981553">
        <ele>71.760000000000005</ele>
        <time>2025-05-04T07:35:58Z</time>
      </trkpt>
      <trkpt lat="40.590629009529948" lon="-8.561054030433297">
        <ele>70.790000000000006</ele>
        <time>2025-05-04T07:36:07Z</time>
      </trkpt>
      <trkpt lat="40.588050987571478" lon="-8.560581961646676">
        <ele>64.549999999999997</ele>
        <time>2025-05-04T07:36:16Z</time>
      </trkpt>
      <trkpt lat="40.585160991176963" lon="-8.560217013582587">
        <ele>55.409999999999997</ele>
        <time>2025-05-04T07:36:26Z</time>
      </trkpt>
      <trkpt lat="40.582577018067241" lon="-8.560601994395256">
        <ele>47.719999999999999</ele>
        <time>2025-05-04T07:36:35Z</time>
      </trkpt>
      <trkpt lat="40.579215958714485" lon="-8.561665993183851">
        <ele>43.399999999999999</ele>
        <time>2025-05-04T07:36:47Z</time>
      </trkpt>
      <trkpt lat="40.576911019161344" lon="-8.561875959858298">
        <ele>39.549999999999997</ele>
        <time>2025-05-04T07:36:55Z</time>
      </trkpt>
      <trkpt lat="40.575177976861596" lon="-8.561645960435271">
        <ele>37.149999999999999</ele>
        <time>2025-05-04T07:37:01Z</time>
      </trkpt>
      <trkpt lat="40.572364004328847" lon="-8.560791006311774">
        <ele>27.530000000000001</ele>
        <time>2025-05-04T07:37:11Z</time>
      </trkpt>
      <trkpt lat="40.570083959028125" lon="-8.560434021055698">
        <ele>22.73</ele>
        <time>2025-05-04T07:37:19Z</time>
      </trkpt>
      <trkpt lat="40.567490011453629" lon="-8.56063099578023">
        <ele>19.84</ele>
        <time>2025-05-04T07:37:28Z</time>
      </trkpt>
      <trkpt lat="40.563190011307597" lon="-8.561302972957492">
        <ele>19.84</ele>
        <time>2025-05-04T07:37:43Z</time>
      </trkpt>
      <trkpt lat="40.55971797555685" lon="-8.561291992664337">
        <ele>27.530000000000001</ele>
        <time>2025-05-04T07:37:55Z</time>
      </trkpt>
      <trkpt lat="40.556294973939657" lon="-8.560699978843331">
        <ele>37.149999999999999</ele>
        <time>2025-05-04T07:38:07Z</time>
      </trkpt>
      <trkpt lat="40.552843976765871" lon="-8.56003001332283">
        <ele>40.990000000000002</ele>
        <time>2025-05-04T07:38:19Z</time>
      </trkpt>
      <trkpt lat="40.550545994192362" lon="-8.560103019699454">
        <ele>38.109999999999999</ele>
        <time>2025-05-04T07:38:27Z</time>
      </trkpt>
      <trkpt lat="40.548020023852587" lon="-8.560838028788567">
        <ele>36.189999999999998</ele>
        <time>2025-05-04T07:38:36Z</time>
      </trkpt>
      <trkpt lat="40.545704020187259" lon="-8.561746040359139">
        <ele>39.549999999999997</ele>
        <time>2025-05-04T07:38:45Z</time>
      </trkpt>
      <trkpt lat="40.543729998171329" lon="-8.562031025066972">
        <ele>47.240000000000002</ele>
        <time>2025-05-04T07:38:52Z</time>
      </trkpt>
      <trkpt lat="40.541424974799156" lon="-8.561669010668993">
        <ele>56.369999999999997</ele>
        <time>2025-05-04T07:39:00Z</time>
      </trkpt>
      <trkpt lat="40.539803998544812" lon="-8.560894019901753">
        <ele>60.700000000000003</ele>
        <time>2025-05-04T07:39:06Z</time>
      </trkpt>
      <trkpt lat="40.53803700953722" lon="-8.559589041396976">
        <ele>60.700000000000003</ele>
        <time>2025-05-04T07:39:13Z</time>
      </trkpt>
      <trkpt lat="40.535011980682611" lon="-8.557353001087904">
        <ele>53.969999999999999</ele>
        <time>2025-05-04T07:39:25Z</time>
      </trkpt>
      <trkpt lat="40.532092982903123" lon="-8.555717021226883">
        <ele>47.240000000000002</ele>
        <time>2025-05-04T07:39:36Z</time>
      </trkpt>
      <trkpt lat="40.529317986220121" lon="-8.55463701300323">
        <ele>43.399999999999999</ele>
        <time>2025-05-04T07:39:46Z</time>
      </trkpt>
      <trkpt lat="40.525720976293087" lon="-8.553355000913143">
        <ele>49.649999999999999</ele>
        <time>2025-05-04T07:39:59Z</time>
      </trkpt>
      <trkpt lat="40.523288967087865" lon="-8.552109031006694">
        <ele>54.450000000000003</ele>
        <time>2025-05-04T07:40:08Z</time>
      </trkpt>
      <trkpt lat="40.520976986736059" lon="-8.550499035045505">
        <ele>57.340000000000003</ele>
        <time>2025-05-04T07:40:17Z</time>
      </trkpt>
      <trkpt lat="40.518401982262731" lon="-8.548069037497044">
        <ele>55.890000000000001</ele>
        <time>2025-05-04T07:40:28Z</time>
      </trkpt>
      <trkpt lat="40.515930997207761" lon="-8.544899001717567">
        <ele>56.369999999999997</ele>
        <time>2025-05-04T07:40:40Z</time>
      </trkpt>
      <trkpt lat="40.513839041814208" lon="-8.541265027597547">
        <ele>59.740000000000002</ele>
        <time>2025-05-04T07:40:52Z</time>
      </trkpt>
      <trkpt lat="40.511897960677743" lon="-8.537974040955305">
        <ele>60.219999999999999</ele>
        <time>2025-05-04T07:41:03Z</time>
      </trkpt>
      <trkpt lat="40.50999803468585" lon="-8.535648984834552">
        <ele>61.659999999999997</ele>
        <time>2025-05-04T07:41:12Z</time>
      </trkpt>
      <trkpt lat="40.507814968004823" lon="-8.533794991672039">
        <ele>61.659999999999997</ele>
        <time>2025-05-04T07:41:21Z</time>
      </trkpt>
      <trkpt lat="40.505146002396941" lon="-8.53235699236393">
        <ele>57.340000000000003</ele>
        <time>2025-05-04T07:41:31Z</time>
      </trkpt>
      <trkpt lat="40.502605028450489" lon="-8.531632041558623">
        <ele>51.090000000000003</ele>
        <time>2025-05-04T07:41:40Z</time>
      </trkpt>
      <trkpt lat="40.500016026198864" lon="-8.531382009387016">
        <ele>46.280000000000001</ele>
        <time>2025-05-04T07:41:49Z</time>
      </trkpt>
      <trkpt lat="40.498000010848045" lon="-8.531124014407396">
        <ele>44.359999999999999</ele>
        <time>2025-05-04T07:41:56Z</time>
      </trkpt>
      <trkpt lat="40.495494995266199" lon="-8.530190018936992">
        <ele>39.07</ele>
        <time>2025-05-04T07:42:05Z</time>
      </trkpt>
      <trkpt lat="40.493165999650955" lon="-8.528697034344077">
        <ele>39.07</ele>
        <time>2025-05-04T07:42:14Z</time>
      </trkpt>
      <trkpt lat="40.490444982424378" lon="-8.526526959612966">
        <ele>48.68</ele>
        <time>2025-05-04T07:42:25Z</time>
      </trkpt>
      <trkpt lat="40.487894034013152" lon="-8.524800036102533">
        <ele>54.93</ele>
        <time>2025-05-04T07:42:35Z</time>
      </trkpt>
      <trkpt lat="40.484661972150207" lon="-8.523181993514299">
        <ele>67.430000000000007</ele>
        <time>2025-05-04T07:42:47Z</time>
      </trkpt>
      <trkpt lat="40.48155496828258" lon="-8.522214973345399">
        <ele>75.599999999999994</ele>
        <time>2025-05-04T07:42:58Z</time>
      </trkpt>
      <trkpt lat="40.478105982765555" lon="-8.521693032234907">
        <ele>80.409999999999997</ele>
        <time>2025-05-04T07:43:10Z</time>
      </trkpt>
      <trkpt lat="40.47463595867157" lon="-8.521702000871301">
        <ele>79.930000000000007</ele>
        <time>2025-05-04T07:43:22Z</time>
      </trkpt>
      <trkpt lat="40.470606023445725" lon="-8.52174298837781">
        <ele>83.290000000000006</ele>
        <time>2025-05-04T07:43:36Z</time>
      </trkpt>
      <trkpt lat="40.468322960659862" lon="-8.52146596647799">
        <ele>86.180000000000007</ele>
        <time>2025-05-04T07:43:44Z</time>
      </trkpt>
      <trkpt lat="40.464914962649345" lon="-8.520567007362843">
        <ele>87.140000000000001</ele>
        <time>2025-05-04T07:43:56Z</time>
      </trkpt>
      <trkpt lat="40.46155096963048" lon="-8.519398989155889">
        <ele>88.579999999999998</ele>
        <time>2025-05-04T07:44:08Z</time>
      </trkpt>
      <trkpt lat="40.459301015362144" lon="-8.518666997551918">
        <ele>93.390000000000001</ele>
        <time>2025-05-04T07:44:16Z</time>
      </trkpt>
      <trkpt lat="40.455881031230092" lon="-8.517969036474824">
        <ele>98.189999999999998</ele>
        <time>2025-05-04T07:44:28Z</time>
      </trkpt>
      <trkpt lat="40.452402960509062" lon="-8.517719004303217">
        <ele>99.150000000000006</ele>
        <time>2025-05-04T07:44:40Z</time>
      </trkpt>
      <trkpt lat="40.449799038469791" lon="-8.517612973228097">
        <ele>95.790000000000006</ele>
        <time>2025-05-04T07:44:49Z</time>
      </trkpt>
      <trkpt lat="40.446649035438895" lon="-8.517187004908919">
        <ele>91.939999999999998</ele>
        <time>2025-05-04T07:45:00Z</time>
      </trkpt>
      <trkpt lat="40.443856017664075" lon="-8.516219984740019">
        <ele>90.980000000000004</ele>
        <time>2025-05-04T07:45:10Z</time>
      </trkpt>
      <trkpt lat="40.441469019278884" lon="-8.514854991808534">
        <ele>90.5</ele>
        <time>2025-05-04T07:45:19Z</time>
      </trkpt>
      <trkpt lat="40.439261980354786" lon="-8.513051960617304">
        <ele>90.980000000000004</ele>
        <time>2025-05-04T07:45:28Z</time>
      </trkpt>
      <trkpt lat="40.437241019681096" lon="-8.510853974148631">
        <ele>91.939999999999998</ele>
        <time>2025-05-04T07:45:37Z</time>
      </trkpt>
      <trkpt lat="40.433638980612159" lon="-8.506505023688078">
        <ele>89.540000000000006</ele>
        <time>2025-05-04T07:45:54Z</time>
      </trkpt>
      <trkpt lat="40.431245025247335" lon="-8.503780988976359">
        <ele>92.900000000000006</ele>
        <time>2025-05-04T07:46:05Z</time>
      </trkpt>
      <trkpt lat="40.428629033267498" lon="-8.501432966440916">
        <ele>93.390000000000001</ele>
        <time>2025-05-04T07:46:16Z</time>
      </trkpt>
      <trkpt lat="40.425564022734761" lon="-8.499338999390602">
        <ele>99.150000000000006</ele>
        <time>2025-05-04T07:46:28Z</time>
      </trkpt>
      <trkpt lat="40.422844011336565" lon="-8.498000996187329">
        <ele>106.84</ele>
        <time>2025-05-04T07:46:38Z</time>
      </trkpt>
      <trkpt lat="40.420055016875267" lon="-8.497018972411752">
        <ele>109.25</ele>
        <time>2025-05-04T07:46:48Z</time>
      </trkpt>
      <trkpt lat="40.415845960378647" lon="-8.495642999187112">
        <ele>108.29000000000001</ele>
        <time>2025-05-04T07:47:03Z</time>
      </trkpt>
      <trkpt lat="40.412841970100999" lon="-8.494237018749118">
        <ele>103</ele>
        <time>2025-05-04T07:47:14Z</time>
      </trkpt>
      <trkpt lat="40.409606974571943" lon="-8.492572959512472">
        <ele>91.939999999999998</ele>
        <time>2025-05-04T07:47:26Z</time>
      </trkpt>
      <trkpt lat="40.406802976503968" lon="-8.491647010669112">
        <ele>80.890000000000001</ele>
        <time>2025-05-04T07:47:36Z</time>
      </trkpt>
      <trkpt lat="40.40392798371613" lon="-8.49132196046412">
        <ele>69.349999999999994</ele>
        <time>2025-05-04T07:47:46Z</time>
      </trkpt>
      <trkpt lat="40.400475980713964" lon="-8.491149041801691">
        <ele>61.18</ele>
        <time>2025-05-04T07:47:58Z</time>
      </trkpt>
      <trkpt lat="40.397639041766524" lon="-8.490473963320255">
        <ele>61.659999999999997</ele>
        <time>2025-05-04T07:48:08Z</time>
      </trkpt>
      <trkpt lat="40.395381962880492" lon="-8.489765021950007">
        <ele>61.18</ele>
        <time>2025-05-04T07:48:16Z</time>
      </trkpt>
      <trkpt lat="40.392242018133402" lon="-8.48910503089428">
        <ele>63.579999999999998</ele>
        <time>2025-05-04T07:48:27Z</time>
      </trkpt>
      <trkpt lat="40.389356967061758" lon="-8.489031018689275">
        <ele>65.510000000000005</ele>
        <time>2025-05-04T07:48:37Z</time>
      </trkpt>
      <trkpt lat="40.386488009244204" lon="-8.489458998665214">
        <ele>67.430000000000007</ele>
        <time>2025-05-04T07:48:47Z</time>
      </trkpt>
      <trkpt lat="40.383411012589931" lon="-8.490513022989035">
        <ele>68.390000000000001</ele>
        <time>2025-05-04T07:48:58Z</time>
      </trkpt>
      <trkpt lat="40.383128961548209" lon="-8.490635985508561">
        <ele>68.390000000000001</ele>
        <time>2025-05-04T07:48:59Z</time>
      </trkpt>
      <trkpt lat="40.379013027995825" lon="-8.492362992838025">
        <ele>72.719999999999999</ele>
        <time>2025-05-04T07:49:14Z</time>
      </trkpt>
      <trkpt lat="40.376186985522509" lon="-8.49316799081862">
        <ele>73.680000000000007</ele>
        <time>2025-05-04T07:49:24Z</time>
      </trkpt>
      <trkpt lat="40.373029019683599" lon="-8.493628995493054">
        <ele>74.640000000000001</ele>
        <time>2025-05-04T07:49:35Z</time>
      </trkpt>
      <trkpt lat="40.36957198753953" lon="-8.493480971083045">
        <ele>78.480000000000004</ele>
        <time>2025-05-04T07:49:47Z</time>
      </trkpt>
      <trkpt lat="40.365265030413866" lon="-8.492802958935499">
        <ele>89.060000000000002</ele>
        <time>2025-05-04T07:50:02Z</time>
      </trkpt>
      <trkpt lat="40.363249015063047" lon="-8.492576982825995">
        <ele>93.870000000000005</ele>
        <time>2025-05-04T07:50:09Z</time>
      </trkpt>
      <trkpt lat="40.360362958163023" lon="-8.492791978642345">
        <ele>95.790000000000006</ele>
        <time>2025-05-04T07:50:19Z</time>
      </trkpt>
      <trkpt lat="40.357234999537468" lon="-8.493612986057997">
        <ele>93.390000000000001</ele>
        <time>2025-05-04T07:50:30Z</time>
      </trkpt>
      <trkpt lat="40.353278992697597" lon="-8.494666004553437">
        <ele>91.939999999999998</ele>
        <time>2025-05-04T07:50:44Z</time>
      </trkpt>
      <trkpt lat="40.351250991225243" lon="-8.494830960407853">
        <ele>90.980000000000004</ele>
        <time>2025-05-04T07:50:51Z</time>
      </trkpt>
      <trkpt lat="40.347235975787044" lon="-8.494959035888314">
        <ele>99.629999999999995</ele>
        <time>2025-05-04T07:51:05Z</time>
      </trkpt>
      <trkpt lat="40.343513991683722" lon="-8.495606034994125">
        <ele>114.53</ele>
        <time>2025-05-04T07:51:18Z</time>
      </trkpt>
      <trkpt lat="40.340617960318923" lon="-8.495587008073926">
        <ele>123.19</ele>
        <time>2025-05-04T07:51:28Z</time>
      </trkpt>
      <trkpt lat="40.3380530141294" lon="-8.495019972324371">
        <ele>125.11</ele>
        <time>2025-05-04T07:51:37Z</time>
      </trkpt>
      <trkpt lat="40.33358596265316" lon="-8.493432020768523">
        <ele>119.34</ele>
        <time>2025-05-04T07:51:53Z</time>
      </trkpt>
      <trkpt lat="40.33072697930038" lon="-8.492845958098769">
        <ele>111.65000000000001</ele>
        <time>2025-05-04T07:52:03Z</time>
      </trkpt>
      <trkpt lat="40.328420028090477" lon="-8.492755014449358">
        <ele>108.29000000000001</ele>
        <time>2025-05-04T07:52:11Z</time>
      </trkpt>
      <trkpt lat="40.324364025145769" lon="-8.492491990327835">
        <ele>94.349999999999994</ele>
        <time>2025-05-04T07:52:25Z</time>
      </trkpt>
      <trkpt lat="40.321250986307859" lon="-8.491674000397325">
        <ele>80.409999999999997</ele>
        <time>2025-05-04T07:52:36Z</time>
      </trkpt>
      <trkpt lat="40.318194022402167" lon="-8.49050497636199">
        <ele>66.950000000000003</ele>
        <time>2025-05-04T07:52:47Z</time>
      </trkpt>
      <trkpt lat="40.315651036798954" lon="-8.489844985306263">
        <ele>60.700000000000003</ele>
        <time>2025-05-04T07:52:56Z</time>
      </trkpt>
      <trkpt lat="40.312780989333987" lon="-8.48957902751863">
        <ele>60.700000000000003</ele>
        <time>2025-05-04T07:53:06Z</time>
      </trkpt>
      <trkpt lat="40.30962897464633" lon="-8.489049961790443">
        <ele>67.909999999999997</ele>
        <time>2025-05-04T07:53:17Z</time>
      </trkpt>
      <trkpt lat="40.307123037055135" lon="-8.488065004348755">
        <ele>69.829999999999998</ele>
        <time>2025-05-04T07:53:26Z</time>
      </trkpt>
      <trkpt lat="40.303820986300707" lon="-8.48667997866869">
        <ele>59.740000000000002</ele>
        <time>2025-05-04T07:53:38Z</time>
      </trkpt>
      <trkpt lat="40.300972983241081" lon="-8.486202964559197">
        <ele>52.049999999999997</ele>
        <time>2025-05-04T07:53:48Z</time>
      </trkpt>
      <trkpt lat="40.297225015237927" lon="-8.486084025353193">
        <ele>54.93</ele>
        <time>2025-05-04T07:54:01Z</time>
      </trkpt>
      <trkpt lat="40.294359996914864" lon="-8.485517995432019">
        <ele>58.299999999999997</ele>
        <time>2025-05-04T07:54:11Z</time>
      </trkpt>
      <trkpt lat="40.291611989960074" lon="-8.484312007203698">
        <ele>57.340000000000003</ele>
        <time>2025-05-04T07:54:21Z</time>
      </trkpt>
      <trkpt lat="40.289333034306765" lon="-8.482672004029155">
        <ele>52.530000000000001</ele>
        <time>2025-05-04T07:54:30Z</time>
      </trkpt>
      <trkpt lat="40.287763020023704" lon="-8.481022026389837">
        <ele>49.159999999999997</ele>
        <time>2025-05-04T07:54:37Z</time>
      </trkpt>
      <trkpt lat="40.285686990246177" lon="-8.478994024917483">
        <ele>48.68</ele>
        <time>2025-05-04T07:54:46Z</time>
      </trkpt>
      <trkpt lat="40.283831991255283" lon="-8.477964978665113">
        <ele>49.649999999999999</ele>
        <time>2025-05-04T07:54:53Z</time>
      </trkpt>
      <trkpt lat="40.281832991167903" lon="-8.477523000910878">
        <ele>47.240000000000002</ele>
        <time>2025-05-04T07:55:00Z</time>
      </trkpt>
      <trkpt lat="40.279816975817084" lon="-8.477656021714211">
        <ele>40.509999999999998</ele>
        <time>2025-05-04T07:55:07Z</time>
      </trkpt>
      <trkpt lat="40.277886036783457" lon="-8.478394970297813">
        <ele>36.670000000000002</ele>
        <time>2025-05-04T07:55:14Z</time>
      </trkpt>
      <trkpt lat="40.27583003975451" lon="-8.479717969894409">
        <ele>39.549999999999997</ele>
        <time>2025-05-04T07:55:22Z</time>
      </trkpt>
      <trkpt lat="40.272929985076189" lon="-8.482157019898295">
        <ele>48.68</ele>
        <time>2025-05-04T07:55:34Z</time>
      </trkpt>
      <trkpt lat="40.271055959165096" lon="-8.483129991218448">
        <ele>55.890000000000001</ele>
        <time>2025-05-04T07:55:41Z</time>
      </trkpt>
      <trkpt lat="40.269056037068367" lon="-8.48350097425282">
        <ele>63.100000000000001</ele>
        <time>2025-05-04T07:55:48Z</time>
      </trkpt>
      <trkpt lat="40.267316959798336" lon="-8.483299976214767">
        <ele>70.310000000000002</ele>
        <time>2025-05-04T07:55:54Z</time>
      </trkpt>
      <trkpt lat="40.264725023880601" lon="-8.483033012598753">
        <ele>73.200000000000003</ele>
        <time>2025-05-04T07:56:03Z</time>
      </trkpt>
      <trkpt lat="40.262443972751498" lon="-8.483470967039466">
        <ele>74.159999999999997</ele>
        <time>2025-05-04T07:56:11Z</time>
      </trkpt>
      <trkpt lat="40.2605339884758" lon="-8.484317036345601">
        <ele>72.719999999999999</ele>
        <time>2025-05-04T07:56:18Z</time>
      </trkpt>
      <trkpt lat="40.258758030831814" lon="-8.485644981265068">
        <ele>73.200000000000003</ele>
        <time>2025-05-04T07:56:25Z</time>
      </trkpt>
      <trkpt lat="40.256714019924402" lon="-8.487034030258656">
        <ele>71.269999999999996</ele>
        <time>2025-05-04T07:56:33Z</time>
      </trkpt>
      <trkpt lat="40.254779979586601" lon="-8.487601988017559">
        <ele>70.310000000000002</ele>
        <time>2025-05-04T07:56:40Z</time>
      </trkpt>
      <trkpt lat="40.25217697955668" lon="-8.487625038251281">
        <ele>71.269999999999996</ele>
        <time>2025-05-04T07:56:49Z</time>
      </trkpt>
      <trkpt lat="40.248704021796584" lon="-8.487835004925728">
        <ele>73.200000000000003</ele>
        <time>2025-05-04T07:57:01Z</time>
      </trkpt>
      <trkpt lat="40.244694035500288" lon="-8.488646959885955">
        <ele>66.469999999999999</ele>
        <time>2025-05-04T07:57:15Z</time>
      </trkpt>
      <trkpt lat="40.242092963308096" lon="-8.488692976534367">
        <ele>58.780000000000001</ele>
        <time>2025-05-04T07:57:24Z</time>
      </trkpt>
      <trkpt lat="40.239515025168657" lon="-8.488122001290321">
        <ele>53.009999999999998</ele>
        <time>2025-05-04T07:57:33Z</time>
      </trkpt>
      <trkpt lat="40.236101998016238" lon="-8.487280961126089">
        <ele>41.950000000000003</ele>
        <time>2025-05-04T07:57:45Z</time>
      </trkpt>
      <trkpt lat="40.232642032206059" lon="-8.486998993903399">
        <ele>32.82</ele>
        <time>2025-05-04T07:57:57Z</time>
      </trkpt>
      <trkpt lat="40.22860798984766" lon="-8.487208960577846">
        <ele>27.530000000000001</ele>
        <time>2025-05-04T07:58:11Z</time>
      </trkpt>
      <trkpt lat="40.224563973024487" lon="-8.4873460046947">
        <ele>28.5</ele>
        <time>2025-05-04T07:58:25Z</time>
      </trkpt>
      <trkpt lat="40.219942023977637" lon="-8.487245002761483">
        <ele>28.98</ele>
        <time>2025-05-04T07:58:41Z</time>
      </trkpt>
      <trkpt lat="40.215613022446632" lon="-8.487118016928434">
        <ele>28.5</ele>
        <time>2025-05-04T07:58:56Z</time>
      </trkpt>
      <trkpt lat="40.212731994688511" lon="-8.487508026883006">
        <ele>29.460000000000001</ele>
        <time>2025-05-04T07:59:06Z</time>
      </trkpt>
      <trkpt lat="40.209339000284672" lon="-8.488429030403495">
        <ele>33.299999999999997</ele>
        <time>2025-05-04T07:59:18Z</time>
      </trkpt>
      <trkpt lat="40.206195032224059" lon="-8.489077035337687">
        <ele>39.07</ele>
        <time>2025-05-04T07:59:29Z</time>
      </trkpt>
      <trkpt lat="40.203303024172783" lon="-8.488988019526005">
        <ele>40.030000000000001</ele>
        <time>2025-05-04T07:59:39Z</time>
      </trkpt>
      <trkpt lat="40.200464995577931" lon="-8.488359041512013">
        <ele>38.590000000000003</ele>
        <time>2025-05-04T07:59:49Z</time>
      </trkpt>
      <trkpt lat="40.196776036173105" lon="-8.48745102994144">
        <ele>43.399999999999999</ele>
        <time>2025-05-04T08:00:02Z</time>
      </trkpt>
      <trkpt lat="40.193883022293448" lon="-8.487294958904386">
        <ele>47.240000000000002</ele>
        <time>2025-05-04T08:00:12Z</time>
      </trkpt>
      <trkpt lat="40.191307011991739" lon="-8.487714976072311">
        <ele>46.759999999999998</ele>
        <time>2025-05-04T08:00:21Z</time>
      </trkpt>
      <trkpt lat="40.189111037179828" lon="-8.488620975986123">
        <ele>46.759999999999998</ele>
        <time>2025-05-04T08:00:29Z</time>
      </trkpt>
      <trkpt lat="40.187180014327168" lon="-8.490269025787711">
        <ele>51.090000000000003</ele>
        <time>2025-05-04T08:00:37Z</time>
      </trkpt>
      <trkpt lat="40.185661967843771" lon="-8.491379041224718">
        <ele>54.93</ele>
        <time>2025-05-04T08:00:43Z</time>
      </trkpt>
      <trkpt lat="40.183451995253563" lon="-8.492194013670087">
        <ele>60.219999999999999</ele>
        <time>2025-05-04T08:00:51Z</time>
      </trkpt>
      <trkpt lat="40.180908003821969" lon="-8.49267597310245">
        <ele>64.549999999999997</ele>
        <time>2025-05-04T08:01:00Z</time>
      </trkpt>
      <trkpt lat="40.178677998483181" lon="-8.493581973016262">
        <ele>67.430000000000007</ele>
        <time>2025-05-04T08:01:08Z</time>
      </trkpt>
      <trkpt lat="40.176470037549734" lon="-8.494527032598853">
        <ele>76.079999999999998</ele>
        <time>2025-05-04T08:01:16Z</time>
      </trkpt>
      <trkpt lat="40.174471959471703" lon="-8.494917964562774">
        <ele>83.769999999999996</ele>
        <time>2025-05-04T08:01:23Z</time>
      </trkpt>
      <trkpt lat="40.172474971041083" lon="-8.494772035628557">
        <ele>88.099999999999994</ele>
        <time>2025-05-04T08:01:30Z</time>
      </trkpt>
      <trkpt lat="40.169944977387786" lon="-8.493987992405891">
        <ele>93.870000000000005</ele>
        <time>2025-05-04T08:01:39Z</time>
      </trkpt>
      <trkpt lat="40.167369972914457" lon="-8.493470996618271">
        <ele>96.269999999999996</ele>
        <time>2025-05-04T08:01:48Z</time>
      </trkpt>
      <trkpt lat="40.165066039189696" lon="-8.493547020480037">
        <ele>95.310000000000002</ele>
        <time>2025-05-04T08:01:56Z</time>
      </trkpt>
      <trkpt lat="40.162779036909342" lon="-8.494137022644281">
        <ele>90.5</ele>
        <time>2025-05-04T08:02:04Z</time>
      </trkpt>
      <trkpt lat="40.159379001706839" lon="-8.494976973161101">
        <ele>85.209999999999994</ele>
        <time>2025-05-04T08:02:16Z</time>
      </trkpt>
      <trkpt lat="40.15650300309062" lon="-8.495089039206505">
        <ele>80.409999999999997</ele>
        <time>2025-05-04T08:02:26Z</time>
      </trkpt>
      <trkpt lat="40.153650976717472" lon="-8.494548993185163">
        <ele>73.680000000000007</ele>
        <time>2025-05-04T08:02:36Z</time>
      </trkpt>
      <trkpt lat="40.150595018640161" lon="-8.493374017998576">
        <ele>65.989999999999995</ele>
        <time>2025-05-04T08:02:47Z</time>
      </trkpt>
      <trkpt lat="40.148066030815244" lon="-8.492646971717477">
        <ele>62.140000000000001</ele>
        <time>2025-05-04T08:02:56Z</time>
      </trkpt>
      <trkpt lat="40.145470993593335" lon="-8.492593998089433">
        <ele>63.100000000000001</ele>
        <time>2025-05-04T08:03:05Z</time>
      </trkpt>
      <trkpt lat="40.142907975241542" lon="-8.493141001090407">
        <ele>67.909999999999997</ele>
        <time>2025-05-04T08:03:14Z</time>
      </trkpt>
      <trkpt lat="40.140745025128126" lon="-8.494196031242609">
        <ele>73.680000000000007</ele>
        <time>2025-05-04T08:03:22Z</time>
      </trkpt>
      <trkpt lat="40.138076981529593" lon="-8.495675018057227">
        <ele>77.040000000000006</ele>
        <time>2025-05-04T08:03:32Z</time>
      </trkpt>
      <trkpt lat="40.136085022240877" lon="-8.496134011074901">
        <ele>74.159999999999997</ele>
        <time>2025-05-04T08:03:39Z</time>
      </trkpt>
      <trkpt lat="40.133486967533827" lon="-8.496073996648192">
        <ele>67.430000000000007</ele>
        <time>2025-05-04T08:03:48Z</time>
      </trkpt>
      <trkpt lat="40.131490984931588" lon="-8.496509017422795">
        <ele>62.619999999999997</ele>
        <time>2025-05-04T08:03:55Z</time>
      </trkpt>
      <trkpt lat="40.12968803755939" lon="-8.497591037303209">
        <ele>57.82</ele>
        <time>2025-05-04T08:04:02Z</time>
      </trkpt>
      <trkpt lat="40.128132021054626" lon="-8.499216036871076">
        <ele>58.780000000000001</ele>
        <time>2025-05-04T08:04:09Z</time>
      </trkpt>
      <trkpt lat="40.12691899202764" lon="-8.501300029456615">
        <ele>64.549999999999997</ele>
        <time>2025-05-04T08:04:16Z</time>
      </trkpt>
      <trkpt lat="40.126216001808643" lon="-8.503373963758349">
        <ele>68.390000000000001</ele>
        <time>2025-05-04T08:04:22Z</time>
      </trkpt>
      <trkpt lat="40.125756002962589" lon="-8.506349958479404">
        <ele>68.390000000000001</ele>
        <time>2025-05-04T08:04:30Z</time>
      </trkpt>
      <trkpt lat="40.125147979706526" lon="-8.510042019188404">
        <ele>61.18</ele>
        <time>2025-05-04T08:04:40Z</time>
      </trkpt>
      <trkpt lat="40.124025978147984" lon="-8.513094037771225">
        <ele>53.009999999999998</ele>
        <time>2025-05-04T08:04:49Z</time>
      </trkpt>
      <trkpt lat="40.122660985216498" lon="-8.515499979257584">
        <ele>48.200000000000003</ele>
        <time>2025-05-04T08:04:57Z</time>
      </trkpt>
      <trkpt lat="40.120938001200557" lon="-8.517492022365332">
        <ele>45.799999999999997</ele>
        <time>2025-05-04T08:05:05Z</time>
      </trkpt>
      <trkpt lat="40.118273980915546" lon="-8.520362991839647">
        <ele>43.880000000000003</ele>
        <time>2025-05-04T08:05:17Z</time>
      </trkpt>
      <trkpt lat="40.116186970844865" lon="-8.522963980212808">
        <ele>49.159999999999997</ele>
        <time>2025-05-04T08:05:27Z</time>
      </trkpt>
      <trkpt lat="40.114150000736117" lon="-8.52509499527514">
        <ele>53.009999999999998</ele>
        <time>2025-05-04T08:05:36Z</time>
      </trkpt>
      <trkpt lat="40.112142032012343" lon="-8.526560990139842">
        <ele>51.57</ele>
        <time>2025-05-04T08:05:44Z</time>
      </trkpt>
      <trkpt lat="40.109680015593767" lon="-8.527611996978521">
        <ele>49.649999999999999</ele>
        <time>2025-05-04T08:05:53Z</time>
      </trkpt>
      <trkpt lat="40.107096964493394" lon="-8.528109965845943">
        <ele>47.240000000000002</ele>
        <time>2025-05-04T08:06:02Z</time>
      </trkpt>
      <trkpt lat="40.103954002261162" lon="-8.528636014088988">
        <ele>45.799999999999997</ele>
        <time>2025-05-04T08:06:13Z</time>
      </trkpt>
      <trkpt lat="40.101792979985476" lon="-8.529696995392442">
        <ele>44.840000000000003</ele>
        <time>2025-05-04T08:06:21Z</time>
      </trkpt>
      <trkpt lat="40.100299995392561" lon="-8.530883034691215">
        <ele>42.920000000000002</ele>
        <time>2025-05-04T08:06:27Z</time>
      </trkpt>
      <trkpt lat="40.098160011693835" lon="-8.532762005925179">
        <ele>40.990000000000002</ele>
        <time>2025-05-04T08:06:36Z</time>
      </trkpt>
      <trkpt lat="40.096016004681587" lon="-8.533845031633973">
        <ele>41.950000000000003</ele>
        <time>2025-05-04T08:06:44Z</time>
      </trkpt>
      <trkpt lat="40.094023961573839" lon="-8.534200005233288">
        <ele>43.399999999999999</ele>
        <time>2025-05-04T08:06:51Z</time>
      </trkpt>
      <trkpt lat="40.091431019827724" lon="-8.53396899998188">
        <ele>51.090000000000003</ele>
        <time>2025-05-04T08:07:00Z</time>
      </trkpt>
      <trkpt lat="40.089138988405466" lon="-8.534179972484708">
        <ele>56.859999999999999</ele>
        <time>2025-05-04T08:07:08Z</time>
      </trkpt>
      <trkpt lat="40.087224980816245" lon="-8.534982036799192">
        <ele>64.549999999999997</ele>
        <time>2025-05-04T08:07:15Z</time>
      </trkpt>
      <trkpt lat="40.085168983787298" lon="-8.536392962560058">
        <ele>74.640000000000001</ele>
        <time>2025-05-04T08:07:23Z</time>
      </trkpt>
      <trkpt lat="40.083272997289896" lon="-8.537281025201082">
        <ele>83.290000000000006</ele>
        <time>2025-05-04T08:07:30Z</time>
      </trkpt>
      <trkpt lat="40.081277014687657" lon="-8.537530973553658">
        <ele>90.980000000000004</ele>
        <time>2025-05-04T08:07:37Z</time>
      </trkpt>
      <trkpt lat="40.078695975244045" lon="-8.537270966917276">
        <ele>99.629999999999995</ele>
        <time>2025-05-04T08:07:46Z</time>
      </trkpt>
      <trkpt lat="40.07668498903513" lon="-8.537399964407086">
        <ele>103.95999999999999</ele>
        <time>2025-05-04T08:07:53Z</time>
      </trkpt>
      <trkpt lat="40.074465963989496" lon="-8.538228012621403">
        <ele>110.20999999999999</ele>
        <time>2025-05-04T08:08:01Z</time>
      </trkpt>
      <trkpt lat="40.072454977780581" lon="-8.539688978344202">
        <ele>115.01000000000001</ele>
        <time>2025-05-04T08:08:09Z</time>
      </trkpt>
      <trkpt lat="40.070852022618055" lon="-8.541353037580848">
        <ele>115.01000000000001</ele>
        <time>2025-05-04T08:08:16Z</time>
      </trkpt>
      <trkpt lat="40.068890992552042" lon="-8.542940989136696">
        <ele>107.31999999999999</ele>
        <time>2025-05-04T08:08:24Z</time>
      </trkpt>
      <trkpt lat="40.066527966409922" lon="-8.544271029531956">
        <ele>100.11</ele>
        <time>2025-05-04T08:08:33Z</time>
      </trkpt>
      <trkpt lat="40.064754020422697" lon="-8.545557986944914">
        <ele>94.829999999999998</ele>
        <time>2025-05-04T08:08:40Z</time>
      </trkpt>
      <trkpt lat="40.063205966725945" lon="-8.547280970960856">
        <ele>89.540000000000006</ele>
        <time>2025-05-04T08:08:47Z</time>
      </trkpt>
      <trkpt lat="40.061521036550403" lon="-8.549854969605804">
        <ele>84.730000000000004</ele>
        <time>2025-05-04T08:08:56Z</time>
      </trkpt>
      <trkpt lat="40.059364959597588" lon="-8.552862983196974">
        <ele>82.810000000000002</ele>
        <time>2025-05-04T08:09:07Z</time>
      </trkpt>
      <trkpt lat="40.057049039751291" lon="-8.556207027286291">
        <ele>88.099999999999994</ele>
        <time>2025-05-04T08:09:19Z</time>
      </trkpt>
      <trkpt lat="40.055155986919999" lon="-8.559544030576944">
        <ele>93.390000000000001</ele>
        <time>2025-05-04T08:09:30Z</time>
      </trkpt>
      <trkpt lat="40.053500980138779" lon="-8.563098041340709">
        <ele>95.790000000000006</ele>
        <time>2025-05-04T08:09:41Z</time>
      </trkpt>
      <trkpt lat="40.051849996671081" lon="-8.566648028790951">
        <ele>96.75</ele>
        <time>2025-05-04T08:09:52Z</time>
      </trkpt>
      <trkpt lat="40.050245029851794" lon="-8.568809973075986">
        <ele>94.349999999999994</ele>
        <time>2025-05-04T08:10:00Z</time>
      </trkpt>
      <trkpt lat="40.04834502004087" lon="-8.570483000949025">
        <ele>89.060000000000002</ele>
        <time>2025-05-04T08:10:08Z</time>
      </trkpt>
      <trkpt lat="40.046211993321776" lon="-8.571683038026094">
        <ele>82.329999999999998</ele>
        <time>2025-05-04T08:10:16Z</time>
      </trkpt>
      <trkpt lat="40.044643990695477" lon="-8.57266397215426">
        <ele>76.560000000000002</ele>
        <time>2025-05-04T08:10:22Z</time>
      </trkpt>
      <trkpt lat="40.042756972834468" lon="-8.574427021667361">
        <ele>67.430000000000007</ele>
        <time>2025-05-04T08:10:30Z</time>
      </trkpt>
      <trkpt lat="40.040973974391818" lon="-8.57687596231699">
        <ele>57.82</ele>
        <time>2025-05-04T08:10:39Z</time>
      </trkpt>
      <trkpt lat="40.038496032357216" lon="-8.579978020861745">
        <ele>54.93</ele>
        <time>2025-05-04T08:10:51Z</time>
      </trkpt>
      <trkpt lat="40.036236019805074" lon="-8.582327971234918">
        <ele>62.619999999999997</ele>
        <time>2025-05-04T08:11:01Z</time>
      </trkpt>
      <trkpt lat="40.033319033682346" lon="-8.584783030673862">
        <ele>68.390000000000001</ele>
        <time>2025-05-04T08:11:13Z</time>
      </trkpt>
      <trkpt lat="40.030472036451101" lon="-8.586700977757573">
        <ele>62.140000000000001</ele>
        <time>2025-05-04T08:11:24Z</time>
      </trkpt>
      <trkpt lat="40.027530994266272" lon="-8.5883470159024">
        <ele>53.490000000000002</ele>
        <time>2025-05-04T08:11:35Z</time>
      </trkpt>
      <trkpt lat="40.024467995390296" lon="-8.590381974354386">
        <ele>45.799999999999997</ele>
        <time>2025-05-04T08:11:47Z</time>
      </trkpt>
      <trkpt lat="40.021786959841847" lon="-8.592589013278484">
        <ele>47.240000000000002</ele>
        <time>2025-05-04T08:11:58Z</time>
      </trkpt>
      <trkpt lat="40.019288985058665" lon="-8.595123030245304">
        <ele>48.68</ele>
        <time>2025-05-04T08:12:09Z</time>
      </trkpt>
      <trkpt lat="40.016694031655788" lon="-8.598075974732637">
        <ele>53.969999999999999</ele>
        <time>2025-05-04T08:12:21Z</time>
      </trkpt>
      <trkpt lat="40.014717997983098" lon="-8.599603995680809">
        <ele>62.140000000000001</ele>
        <time>2025-05-04T08:12:29Z</time>
      </trkpt>
      <trkpt lat="40.012523028999567" lon="-8.600518964231014">
        <ele>69.829999999999998</ele>
        <time>2025-05-04T08:12:37Z</time>
      </trkpt>
      <trkpt lat="40.010114992037416" lon="-8.601745991036296">
        <ele>77.040000000000006</ele>
        <time>2025-05-04T08:12:46Z</time>
      </trkpt>
      <trkpt lat="40.008201990276575" lon="-8.603427987545729">
        <ele>84.730000000000004</ele>
        <time>2025-05-04T08:12:54Z</time>
      </trkpt>
      <trkpt lat="40.005954969674349" lon="-8.605798976495862">
        <ele>89.060000000000002</ele>
        <time>2025-05-04T08:13:04Z</time>
      </trkpt>
      <trkpt lat="40.003688000142574" lon="-8.607430011034012">
        <ele>94.349999999999994</ele>
        <time>2025-05-04T08:13:13Z</time>
      </trkpt>
      <trkpt lat="40.000952985137701" lon="-8.608655026182532">
        <ele>101.56</ele>
        <time>2025-05-04T08:13:23Z</time>
      </trkpt>
      <trkpt lat="39.998532962054014" lon="-8.609931003302336">
        <ele>106.36</ele>
        <time>2025-05-04T08:13:32Z</time>
      </trkpt>
      <trkpt lat="39.996605962514877" lon="-8.611633032560349">
        <ele>104.92</ele>
        <time>2025-05-04T08:13:40Z</time>
      </trkpt>
      <trkpt lat="39.99476102180779" lon="-8.613471016287804">
        <ele>100.11</ele>
        <time>2025-05-04T08:13:48Z</time>
      </trkpt>
      <trkpt lat="39.992764033377171" lon="-8.614958971738815">
        <ele>94.349999999999994</ele>
        <time>2025-05-04T08:13:56Z</time>
      </trkpt>
      <trkpt lat="39.990446018055081" lon="-8.61647198908031">
        <ele>88.099999999999994</ele>
        <time>2025-05-04T08:14:05Z</time>
      </trkpt>
      <trkpt lat="39.989052023738623" lon="-8.617815021425486">
        <ele>84.25</ele>
        <time>2025-05-04T08:14:11Z</time>
      </trkpt>
      <trkpt lat="39.987477986142039" lon="-8.619989035651088">
        <ele>78</ele>
        <time>2025-05-04T08:14:19Z</time>
      </trkpt>
      <trkpt lat="39.985349988564849" lon="-8.623053040355444">
        <ele>68.870000000000005</ele>
        <time>2025-05-04T08:14:30Z</time>
      </trkpt>
      <trkpt lat="39.983487026765943" lon="-8.624795973300934">
        <ele>61.18</ele>
        <time>2025-05-04T08:14:38Z</time>
      </trkpt>
      <trkpt lat="39.981221985071898" lon="-8.626491967588663">
        <ele>53.009999999999998</ele>
        <time>2025-05-04T08:14:47Z</time>
      </trkpt>
      <trkpt lat="39.979227008298039" lon="-8.628604961559176">
        <ele>49.649999999999999</ele>
        <time>2025-05-04T08:14:56Z</time>
      </trkpt>
      <trkpt lat="39.977818010374904" lon="-8.630960024893284">
        <ele>51.090000000000003</ele>
        <time>2025-05-04T08:15:04Z</time>
      </trkpt>
      <trkpt lat="39.976279009133577" lon="-8.634577989578247">
        <ele>54.93</ele>
        <time>2025-05-04T08:15:15Z</time>
      </trkpt>
      <trkpt lat="39.974087979644537" lon="-8.639882979914546">
        <ele>55.409999999999997</ele>
        <time>2025-05-04T08:15:31Z</time>
      </trkpt>
      <trkpt lat="39.972313027828932" lon="-8.644181974232197">
        <ele>53.490000000000002</ele>
        <time>2025-05-04T08:15:44Z</time>
      </trkpt>
      <trkpt lat="39.97067503631115" lon="-8.648168994113803">
        <ele>55.890000000000001</ele>
        <time>2025-05-04T08:15:56Z</time>
      </trkpt>
      <trkpt lat="39.96949695982039" lon="-8.651567017659545">
        <ele>57.82</ele>
        <time>2025-05-04T08:16:06Z</time>
      </trkpt>
      <trkpt lat="39.968332964926958" lon="-8.654981972649694">
        <ele>67.909999999999997</ele>
        <time>2025-05-04T08:16:16Z</time>
      </trkpt>
      <trkpt lat="39.967156983911991" lon="-8.657109970226884">
        <ele>74.640000000000001</ele>
        <time>2025-05-04T08:16:23Z</time>
      </trkpt>
      <trkpt lat="39.965668022632599" lon="-8.658865978941321">
        <ele>80.409999999999997</ele>
        <time>2025-05-04T08:16:30Z</time>
      </trkpt>
      <trkpt lat="39.963428964838386" lon="-8.66056096740067">
        <ele>89.540000000000006</ele>
        <time>2025-05-04T08:16:39Z</time>
      </trkpt>
      <trkpt lat="39.961487967520952" lon="-8.662094017490745">
        <ele>99.629999999999995</ele>
        <time>2025-05-04T08:16:47Z</time>
      </trkpt>
      <trkpt lat="39.959817035123706" lon="-8.664128975942731">
        <ele>110.20999999999999</ele>
        <time>2025-05-04T08:16:55Z</time>
      </trkpt>
      <trkpt lat="39.957748968154192" lon="-8.666820991784334">
        <ele>116.45999999999999</ele>
        <time>2025-05-04T08:17:05Z</time>
      </trkpt>
      <trkpt lat="39.956055991351604" lon="-8.668321017175913">
        <ele>114.53</ele>
        <time>2025-05-04T08:17:12Z</time>
      </trkpt>
      <trkpt lat="39.953901004046202" lon="-8.669317038729787">
        <ele>114.53</ele>
        <time>2025-05-04T08:17:20Z</time>
      </trkpt>
      <trkpt lat="39.951355000957847" lon="-8.669859012588859">
        <ele>119.81999999999999</ele>
        <time>2025-05-04T08:17:29Z</time>
      </trkpt>
      <trkpt lat="39.948791982606053" lon="-8.670524032786489">
        <ele>126.55</ele>
        <time>2025-05-04T08:17:38Z</time>
      </trkpt>
      <trkpt lat="39.946688041090965" lon="-8.671772014349699">
        <ele>129.91999999999999</ele>
        <time>2025-05-04T08:17:46Z</time>
      </trkpt>
      <trkpt lat="39.944866988807917" lon="-8.673628019168973">
        <ele>130.40000000000001</ele>
        <time>2025-05-04T08:17:54Z</time>
      </trkpt>
      <trkpt lat="39.942563977092505" lon="-8.676455989480019">
        <ele>129.43000000000001</ele>
        <time>2025-05-04T08:18:05Z</time>
      </trkpt>
      <trkpt lat="39.940722975879908" lon="-8.678252985700965">
        <ele>130.88</ele>
        <time>2025-05-04T08:18:13Z</time>
      </trkpt>
      <trkpt lat="39.938654992729425" lon="-8.679570034146309">
        <ele>129.91999999999999</ele>
        <time>2025-05-04T08:18:21Z</time>
      </trkpt>
      <trkpt lat="39.936419036239386" lon="-8.680307976901531">
        <ele>132.80000000000001</ele>
        <time>2025-05-04T08:18:29Z</time>
      </trkpt>
      <trkpt lat="39.933827016502619" lon="-8.680442003533244">
        <ele>136.16</ele>
        <time>2025-05-04T08:18:38Z</time>
      </trkpt>
      <trkpt lat="39.929787022992969" lon="-8.680116031318903">
        <ele>132.80000000000001</ele>
        <time>2025-05-04T08:18:52Z</time>
      </trkpt>
      <trkpt lat="39.926901971921325" lon="-8.680315017700195">
        <ele>131.36000000000001</ele>
        <time>2025-05-04T08:19:02Z</time>
      </trkpt>
      <trkpt lat="39.924345994368196" lon="-8.681085985153914">
        <ele>133.28</ele>
        <time>2025-05-04T08:19:11Z</time>
      </trkpt>
      <trkpt lat="39.921913985162973" lon="-8.682337990030646">
        <ele>129.43000000000001</ele>
        <time>2025-05-04T08:19:20Z</time>
      </trkpt>
      <trkpt lat="39.919554982334375" lon="-8.68374296464026">
        <ele>128.94999999999999</ele>
        <time>2025-05-04T08:19:29Z</time>
      </trkpt>
      <trkpt lat="39.917336041107774" lon="-8.684564977884293">
        <ele>129.91999999999999</ele>
        <time>2025-05-04T08:19:37Z</time>
      </trkpt>
      <trkpt lat="39.91503001190722" lon="-8.684684000909329">
        <ele>129.43000000000001</ele>
        <time>2025-05-04T08:19:45Z</time>
      </trkpt>
      <trkpt lat="39.911846984177828" lon="-8.684589033946395">
        <ele>127.51000000000001</ele>
        <time>2025-05-04T08:19:56Z</time>
      </trkpt>
      <trkpt lat="39.90957498550415" lon="-8.685059007257223">
        <ele>129.43000000000001</ele>
        <time>2025-05-04T08:20:04Z</time>
      </trkpt>
      <trkpt lat="39.90742402151227" lon="-8.686146978288889">
        <ele>134.24000000000001</ele>
        <time>2025-05-04T08:20:12Z</time>
      </trkpt>
      <trkpt lat="39.904891010373831" lon="-8.687926959246397">
        <ele>142.88999999999999</ele>
        <time>2025-05-04T08:20:22Z</time>
      </trkpt>
      <trkpt lat="39.902531001716852" lon="-8.689361019060016">
        <ele>150.09999999999999</ele>
        <time>2025-05-04T08:20:31Z</time>
      </trkpt>
      <trkpt lat="39.899719962850213" lon="-8.690229970961809">
        <ele>156.34999999999999</ele>
        <time>2025-05-04T08:20:41Z</time>
      </trkpt>
      <trkpt lat="39.897119980305433" lon="-8.690276993438602">
        <ele>160.68000000000001</ele>
        <time>2025-05-04T08:20:50Z</time>
      </trkpt>
      <trkpt lat="39.893974000588059" lon="-8.689701994881034">
        <ele>163.56</ele>
        <time>2025-05-04T08:21:01Z</time>
      </trkpt>
      <trkpt lat="39.89109599031508" lon="-8.689396977424622">
        <ele>166.93000000000001</ele>
        <time>2025-05-04T08:21:11Z</time>
      </trkpt>
      <trkpt lat="39.889107970520854" lon="-8.689792016521096">
        <ele>170.28999999999999</ele>
        <time>2025-05-04T08:21:18Z</time>
      </trkpt>
      <trkpt lat="39.887223970144987" lon="-8.690774962306023">
        <ele>169.81</ele>
        <time>2025-05-04T08:21:25Z</time>
      </trkpt>
      <trkpt lat="39.88555395975709" lon="-8.692255960777402">
        <ele>170.28999999999999</ele>
        <time>2025-05-04T08:21:32Z</time>
      </trkpt>
      <trkpt lat="39.883626038208604" lon="-8.694523014128208">
        <ele>172.69</ele>
        <time>2025-05-04T08:21:41Z</time>
      </trkpt>
      <trkpt lat="39.881143989041448" lon="-8.697110004723072">
        <ele>172.69</ele>
        <time>2025-05-04T08:21:52Z</time>
      </trkpt>
      <trkpt lat="39.878254998475313" lon="-8.699571015313268">
        <ele>169.81</ele>
        <time>2025-05-04T08:22:04Z</time>
      </trkpt>
      <trkpt lat="39.875166015699506" lon="-8.701631035655737">
        <ele>168.37</ele>
        <time>2025-05-04T08:22:16Z</time>
      </trkpt>
      <trkpt lat="39.872743980959058" lon="-8.702884968370199">
        <ele>166.93000000000001</ele>
        <time>2025-05-04T08:22:25Z</time>
      </trkpt>
      <trkpt lat="39.870243994519114" lon="-8.70389498770237">
        <ele>163.56</ele>
        <time>2025-05-04T08:22:34Z</time>
      </trkpt>
      <trkpt lat="39.867133973166347" lon="-8.704782966524363">
        <ele>159.72</ele>
        <time>2025-05-04T08:22:45Z</time>
      </trkpt>
      <trkpt lat="39.86488401889801" lon="-8.70552996173501">
        <ele>157.78999999999999</ele>
        <time>2025-05-04T08:22:53Z</time>
      </trkpt>
      <trkpt lat="39.864327041432261" lon="-8.705747975036502">
        <ele>157.78999999999999</ele>
        <time>2025-05-04T08:22:55Z</time>
      </trkpt>
      <trkpt lat="39.861867036670446" lon="-8.706838963553309">
        <ele>154.91</ele>
        <time>2025-05-04T08:23:04Z</time>
      </trkpt>
      <trkpt lat="39.858966981992126" lon="-8.7085369694978">
        <ele>152.03</ele>
        <time>2025-05-04T08:23:15Z</time>
      </trkpt>
      <trkpt lat="39.85575302504003" lon="-8.71100602671504">
        <ele>153.47</ele>
        <time>2025-05-04T08:23:28Z</time>
      </trkpt>
      <trkpt lat="39.853199981153011" lon="-8.713463013991714">
        <ele>165.47999999999999</ele>
        <time>2025-05-04T08:23:39Z</time>
      </trkpt>
      <trkpt lat="39.850936029106379" lon="-8.715835008770227">
        <ele>169.33000000000001</ele>
        <time>2025-05-04T08:23:49Z</time>
      </trkpt>
      <trkpt lat="39.849153030663729" lon="-8.717089025303721">
        <ele>165.96000000000001</ele>
        <time>2025-05-04T08:23:56Z</time>
      </trkpt>
      <trkpt lat="39.847488971427083" lon="-8.717649020254612">
        <ele>163.08000000000001</ele>
        <time>2025-05-04T08:24:02Z</time>
      </trkpt>
      <trkpt lat="39.844938023015857" lon="-8.718145983293653">
        <ele>165</ele>
        <time>2025-05-04T08:24:11Z</time>
      </trkpt>
      <trkpt lat="39.842114998027682" lon="-8.718930026516318">
        <ele>168.84999999999999</ele>
        <time>2025-05-04T08:24:21Z</time>
      </trkpt>
      <trkpt lat="39.8393389955163" lon="-8.720048004761338">
        <ele>175.09999999999999</ele>
        <time>2025-05-04T08:24:31Z</time>
      </trkpt>
      <trkpt lat="39.836283959448338" lon="-8.721222979947925">
        <ele>174.62</ele>
        <time>2025-05-04T08:24:42Z</time>
      </trkpt>
      <trkpt lat="39.834284959360957" lon="-8.721268996596336">
        <ele>173.66</ele>
        <time>2025-05-04T08:24:49Z</time>
      </trkpt>
      <trkpt lat="39.832319989800453" lon="-8.720713024958968">
        <ele>177.97999999999999</ele>
        <time>2025-05-04T08:24:56Z</time>
      </trkpt>
      <trkpt lat="39.83050798997283" lon="-8.719564033672214">
        <ele>184.71000000000001</ele>
        <time>2025-05-04T08:25:03Z</time>
      </trkpt>
      <trkpt lat="39.827895015478134" lon="-8.717968035489321">
        <ele>193.36000000000001</ele>
        <time>2025-05-04T08:25:13Z</time>
      </trkpt>
      <trkpt lat="39.825900038704276" lon="-8.717464031651616">
        <ele>194.31999999999999</ele>
        <time>2025-05-04T08:25:20Z</time>
      </trkpt>
      <trkpt lat="39.823875976726413" lon="-8.717682966962457">
        <ele>193.36000000000001</ele>
        <time>2025-05-04T08:25:27Z</time>
      </trkpt>
      <trkpt lat="39.823600966483355" lon="-8.717741975560784">
        <ele>192.88</ele>
        <time>2025-05-04T08:25:28Z</time>
      </trkpt>
      <trkpt lat="39.823326962068677" lon="-8.717834008857608">
        <ele>192.40000000000001</ele>
        <time>2025-05-04T08:25:29Z</time>
      </trkpt>
      <trkpt lat="39.823047006502748" lon="-8.717944985255599">
        <ele>191.91999999999999</ele>
        <time>2025-05-04T08:25:30Z</time>
      </trkpt>
      <trkpt lat="39.821707997471094" lon="-8.718685023486614">
        <ele>189.03999999999999</ele>
        <time>2025-05-04T08:25:35Z</time>
      </trkpt>
      <trkpt lat="39.818968959152699" lon="-8.720785025507212">
        <ele>180.38</ele>
        <time>2025-05-04T08:25:46Z</time>
      </trkpt>
      <trkpt lat="39.816860994324088" lon="-8.722024038434029">
        <ele>172.69</ele>
        <time>2025-05-04T08:25:54Z</time>
      </trkpt>
      <trkpt lat="39.814609028398991" lon="-8.722705990076065">
        <ele>165</ele>
        <time>2025-05-04T08:26:02Z</time>
      </trkpt>
      <trkpt lat="39.811998987570405" lon="-8.722769021987915">
        <ele>157.31</ele>
        <time>2025-05-04T08:26:11Z</time>
      </trkpt>
      <trkpt lat="39.809404034167528" lon="-8.722368031740189">
        <ele>145.30000000000001</ele>
        <time>2025-05-04T08:26:20Z</time>
      </trkpt>
      <trkpt lat="39.807122983038425" lon="-8.72239300981164">
        <ele>133.28</ele>
        <time>2025-05-04T08:26:28Z</time>
      </trkpt>
      <trkpt lat="39.805200006812811" lon="-8.723093988373876">
        <ele>127.51000000000001</ele>
        <time>2025-05-04T08:26:35Z</time>
      </trkpt>
      <trkpt lat="39.803219027817249" lon="-8.724580015987158">
        <ele>128.94999999999999</ele>
        <time>2025-05-04T08:26:43Z</time>
      </trkpt>
      <trkpt lat="39.80049398727715" lon="-8.726659985259175">
        <ele>142.88999999999999</ele>
        <time>2025-05-04T08:26:54Z</time>
      </trkpt>
      <trkpt lat="39.797704992815852" lon="-8.728612968698144">
        <ele>157.78999999999999</ele>
        <time>2025-05-04T08:27:05Z</time>
      </trkpt>
      <trkpt lat="39.796147970482707" lon="-8.730295971035957">
        <ele>163.08000000000001</ele>
        <time>2025-05-04T08:27:12Z</time>
      </trkpt>
      <trkpt lat="39.79398300871253" lon="-8.733350001275539">
        <ele>163.08000000000001</ele>
        <time>2025-05-04T08:27:23Z</time>
      </trkpt>
      <trkpt lat="39.792238986119628" lon="-8.735311031341553">
        <ele>156.34999999999999</ele>
        <time>2025-05-04T08:27:31Z</time>
      </trkpt>
      <trkpt lat="39.790404019877315" lon="-8.736435966566205">
        <ele>149.13999999999999</ele>
        <time>2025-05-04T08:27:38Z</time>
      </trkpt>
      <trkpt lat="39.788145013153553" lon="-8.737081037834287">
        <ele>141.44999999999999</ele>
        <time>2025-05-04T08:27:46Z</time>
      </trkpt>
      <trkpt lat="39.785249987617135" lon="-8.737168963998556">
        <ele>133.75999999999999</ele>
        <time>2025-05-04T08:27:56Z</time>
      </trkpt>
      <trkpt lat="39.782668026164174" lon="-8.737466018646956">
        <ele>134.72</ele>
        <time>2025-05-04T08:28:05Z</time>
      </trkpt>
      <trkpt lat="39.781002961099148" lon="-8.738174960017204">
        <ele>133.75999999999999</ele>
        <time>2025-05-04T08:28:11Z</time>
      </trkpt>
      <trkpt lat="39.779241001233459" lon="-8.739473987370729">
        <ele>130.40000000000001</ele>
        <time>2025-05-04T08:28:18Z</time>
      </trkpt>
      <trkpt lat="39.777448028326035" lon="-8.74136402271688">
        <ele>124.63</ele>
        <time>2025-05-04T08:28:26Z</time>
      </trkpt>
      <trkpt lat="39.775523962453008" lon="-8.743007965385914">
        <ele>116.94</ele>
        <time>2025-05-04T08:28:34Z</time>
      </trkpt>
      <trkpt lat="39.773616995662451" lon="-8.743853028863668">
        <ele>109.73</ele>
        <time>2025-05-04T08:28:41Z</time>
      </trkpt>
      <trkpt lat="39.770768992602825" lon="-8.744346974417567">
        <ele>104.44</ele>
        <time>2025-05-04T08:28:51Z</time>
      </trkpt>
      <trkpt lat="39.767586970701814" lon="-8.744605975225568">
        <ele>108.29000000000001</ele>
        <time>2025-05-04T08:29:02Z</time>
      </trkpt>
      <trkpt lat="39.763820981606841" lon="-8.744962038472295">
        <ele>107.81</ele>
        <time>2025-05-04T08:29:15Z</time>
      </trkpt>
      <trkpt lat="39.761248994618654" lon="-8.745467970147729">
        <ele>101.08</ele>
        <time>2025-05-04T08:29:24Z</time>
      </trkpt>
      <trkpt lat="39.760968033224344" lon="-8.745564026758075">
        <ele>100.11</ele>
        <time>2025-05-04T08:29:25Z</time>
      </trkpt>
      <trkpt lat="39.758824026212096" lon="-8.746789963915944">
        <ele>89.540000000000006</ele>
        <time>2025-05-04T08:29:33Z</time>
      </trkpt>
      <trkpt lat="39.755999995395541" lon="-8.748577991500497">
        <ele>81.370000000000005</ele>
        <time>2025-05-04T08:29:44Z</time>
      </trkpt>
      <trkpt lat="39.75404198281467" lon="-8.749117031693459">
        <ele>81.849999999999994</ele>
        <time>2025-05-04T08:29:51Z</time>
      </trkpt>
      <trkpt lat="39.752313969656825" lon="-8.749046036973596">
        <ele>84.730000000000004</ele>
        <time>2025-05-04T08:29:57Z</time>
      </trkpt>
      <trkpt lat="39.750365009531379" lon="-8.748438013717532">
        <ele>91.459999999999994</ele>
        <time>2025-05-04T08:30:04Z</time>
      </trkpt>
      <trkpt lat="39.747029012069106" lon="-8.747204029932618">
        <ele>107.31999999999999</ele>
        <time>2025-05-04T08:30:16Z</time>
      </trkpt>
      <trkpt lat="39.744574958458543" lon="-8.746100971475244">
        <ele>122.22</ele>
        <time>2025-05-04T08:30:25Z</time>
      </trkpt>
      <trkpt lat="39.742883993312716" lon="-8.744699014350772">
        <ele>131.84</ele>
        <time>2025-05-04T08:30:32Z</time>
      </trkpt>
      <trkpt lat="39.741496033966541" lon="-8.742832029238343">
        <ele>142.41</ele>
        <time>2025-05-04T08:30:39Z</time>
      </trkpt>
      <trkpt lat="39.740594979375601" lon="-8.740941993892193">
        <ele>152.99000000000001</ele>
        <time>2025-05-04T08:30:45Z</time>
      </trkpt>
      <trkpt lat="39.739737007766962" lon="-8.737761983647943">
        <ele>167.88999999999999</ele>
        <time>2025-05-04T08:30:54Z</time>
      </trkpt>
      <trkpt lat="39.738709973171353" lon="-8.734262958168984">
        <ele>180.87</ele>
        <time>2025-05-04T08:31:04Z</time>
      </trkpt>
      <trkpt lat="39.737295024096966" lon="-8.731880988925695">
        <ele>184.22999999999999</ele>
        <time>2025-05-04T08:31:12Z</time>
      </trkpt>
      <trkpt lat="39.735490987077355" lon="-8.729994976893067">
        <ele>182.78999999999999</ele>
        <time>2025-05-04T08:31:20Z</time>
      </trkpt>
      <trkpt lat="39.733017990365624" lon="-8.727400023490191">
        <ele>179.90000000000001</ele>
        <time>2025-05-04T08:31:31Z</time>
      </trkpt>
      <trkpt lat="39.731374969705939" lon="-8.72482200153172">
        <ele>181.83000000000001</ele>
        <time>2025-05-04T08:31:40Z</time>
      </trkpt>
      <trkpt lat="39.730208963155746" lon="-8.722254037857056">
        <ele>187.11000000000001</ele>
        <time>2025-05-04T08:31:48Z</time>
      </trkpt>
      <trkpt lat="39.728613970801234" lon="-8.719135969877243">
        <ele>190.96000000000001</ele>
        <time>2025-05-04T08:31:58Z</time>
      </trkpt>
      <trkpt lat="39.727104976773262" lon="-8.717379961162806">
        <ele>190.96000000000001</ele>
        <time>2025-05-04T08:32:05Z</time>
      </trkpt>
      <trkpt lat="39.725314015522599" lon="-8.716175984591246">
        <ele>188.56</ele>
        <time>2025-05-04T08:32:12Z</time>
      </trkpt>
      <trkpt lat="39.722802964970469" lon="-8.715291023254395">
        <ele>181.34999999999999</ele>
        <time>2025-05-04T08:32:21Z</time>
      </trkpt>
      <trkpt lat="39.718890963122249" lon="-8.713908009231091">
        <ele>170.28999999999999</ele>
        <time>2025-05-04T08:32:35Z</time>
      </trkpt>
      <trkpt lat="39.714835966005921" lon="-8.711900040507317">
        <ele>158.75</ele>
        <time>2025-05-04T08:32:50Z</time>
      </trkpt>
      <trkpt lat="39.711710019037127" lon="-8.709982009604573">
        <ele>159.72</ele>
        <time>2025-05-04T08:33:02Z</time>
      </trkpt>
      <trkpt lat="39.708539983257651" lon="-8.708115024492145">
        <ele>166.44999999999999</ele>
        <time>2025-05-04T08:33:14Z</time>
      </trkpt>
      <trkpt lat="39.706091964617372" lon="-8.706164974719286">
        <ele>173.66</ele>
        <time>2025-05-04T08:33:24Z</time>
      </trkpt>
      <trkpt lat="39.704225985333323" lon="-8.703846959397197">
        <ele>180.87</ele>
        <time>2025-05-04T08:33:33Z</time>
      </trkpt>
      <trkpt lat="39.702356988564134" lon="-8.700578017160296">
        <ele>192.40000000000001</ele>
        <time>2025-05-04T08:33:44Z</time>
      </trkpt>
      <trkpt lat="39.700702987611294" lon="-8.69800703600049">
        <ele>207.30000000000001</ele>
        <time>2025-05-04T08:33:53Z</time>
      </trkpt>
      <trkpt lat="39.699050998315215" lon="-8.696522014215589">
        <ele>220.75999999999999</ele>
        <time>2025-05-04T08:34:00Z</time>
      </trkpt>
      <trkpt lat="39.696917971596122" lon="-8.695394983515143">
        <ele>235.18000000000001</ele>
        <time>2025-05-04T08:34:08Z</time>
      </trkpt>
      <trkpt lat="39.694852000102401" lon="-8.694073995575309">
        <ele>248.16</ele>
        <time>2025-05-04T08:34:16Z</time>
      </trkpt>
      <trkpt lat="39.694606997072697" lon="-8.693894036114216">
        <ele>249.59999999999999</ele>
        <time>2025-05-04T08:34:17Z</time>
      </trkpt>
      <trkpt lat="39.694371968507767" lon="-8.693694965913892">
        <ele>251.03999999999999</ele>
        <time>2025-05-04T08:34:18Z</time>
      </trkpt>
      <trkpt lat="39.690926000475883" lon="-8.690955005586147">
        <ele>273.14999999999998</ele>
        <time>2025-05-04T08:34:32Z</time>
      </trkpt>
      <trkpt lat="39.688363987952471" lon="-8.689240990206599">
        <ele>290.94</ele>
        <time>2025-05-04T08:34:42Z</time>
      </trkpt>
      <trkpt lat="39.685056991875172" lon="-8.686887016519904">
        <ele>306.80000000000001</ele>
        <time>2025-05-04T08:34:55Z</time>
      </trkpt>
      <trkpt lat="39.682842995971441" lon="-8.685143999755383">
        <ele>313.52999999999997</ele>
        <time>2025-05-04T08:35:04Z</time>
      </trkpt>
      <trkpt lat="39.680683985352516" lon="-8.684027027338743">
        <ele>314.00999999999999</ele>
        <time>2025-05-04T08:35:12Z</time>
      </trkpt>
      <trkpt lat="39.678691020235419" lon="-8.683727039024234">
        <ele>321.22000000000003</ele>
        <time>2025-05-04T08:35:19Z</time>
      </trkpt>
      <trkpt lat="39.676683973520994" lon="-8.684047982096672">
        <ele>331.31</ele>
        <time>2025-05-04T08:35:26Z</time>
      </trkpt>
      <trkpt lat="39.674710035324097" lon="-8.684740997850895">
        <ele>340.92000000000002</ele>
        <time>2025-05-04T08:35:33Z</time>
      </trkpt>
      <trkpt lat="39.671632032841444" lon="-8.685814971104264">
        <ele>343.81</ele>
        <time>2025-05-04T08:35:44Z</time>
      </trkpt>
      <trkpt lat="39.668901963159442" lon="-8.686909982934594">
        <ele>345.73000000000002</ele>
        <time>2025-05-04T08:35:54Z</time>
      </trkpt>
      <trkpt lat="39.666610015556216" lon="-8.688472034409642">
        <ele>355.82999999999998</ele>
        <time>2025-05-04T08:36:03Z</time>
      </trkpt>
      <trkpt lat="39.663122976198792" lon="-8.691161032766104">
        <ele>360.63</ele>
        <time>2025-05-04T08:36:17Z</time>
      </trkpt>
      <trkpt lat="39.660887019708753" lon="-8.692861972376704">
        <ele>367.83999999999997</ele>
        <time>2025-05-04T08:36:26Z</time>
      </trkpt>
      <trkpt lat="39.659029003232718" lon="-8.694310029968619">
        <ele>376.49000000000001</ele>
        <time>2025-05-04T08:36:34Z</time>
      </trkpt>
      <trkpt lat="39.657274000346661" lon="-8.69538601487875">
        <ele>381.77999999999997</ele>
        <time>2025-05-04T08:36:41Z</time>
      </trkpt>
      <trkpt lat="39.6551030036062" lon="-8.696146002039313">
        <ele>385.63</ele>
        <time>2025-05-04T08:36:49Z</time>
      </trkpt>
      <trkpt lat="39.652796974405646" lon="-8.696263013407588">
        <ele>383.69999999999999</ele>
        <time>2025-05-04T08:36:57Z</time>
      </trkpt>
      <trkpt lat="39.64949400164187" lon="-8.696083975955844">
        <ele>374.08999999999997</ele>
        <time>2025-05-04T08:37:08Z</time>
      </trkpt>
      <trkpt lat="39.647462982684374" lon="-8.696604995056987">
        <ele>366.39999999999998</ele>
        <time>2025-05-04T08:37:15Z</time>
      </trkpt>
      <trkpt lat="39.645439004525542" lon="-8.697807965800166">
        <ele>364.48000000000002</ele>
        <time>2025-05-04T08:37:23Z</time>
      </trkpt>
      <trkpt lat="39.643433969467878" lon="-8.698836006224155">
        <ele>365.44</ele>
        <time>2025-05-04T08:37:31Z</time>
      </trkpt>
      <trkpt lat="39.642882021144032" lon="-8.69903901591897">
        <ele>365.92000000000002</ele>
        <time>2025-05-04T08:37:33Z</time>
      </trkpt>
      <trkpt lat="39.641198012977839" lon="-8.699236996471882">
        <ele>366.88</ele>
        <time>2025-05-04T08:37:39Z</time>
      </trkpt>
      <trkpt lat="39.638948980718851" lon="-8.699009008705616">
        <ele>364.95999999999998</ele>
        <time>2025-05-04T08:37:47Z</time>
      </trkpt>
      <trkpt lat="39.635477028787136" lon="-8.698805999010801">
        <ele>362.55000000000001</ele>
        <time>2025-05-04T08:37:59Z</time>
      </trkpt>
      <trkpt lat="39.632335994392633" lon="-8.698696028441191">
        <ele>361.58999999999997</ele>
        <time>2025-05-04T08:38:10Z</time>
      </trkpt>
      <trkpt lat="39.629552029073238" lon="-8.698055986315012">
        <ele>364</ele>
        <time>2025-05-04T08:38:20Z</time>
      </trkpt>
      <trkpt lat="39.62783700786531" lon="-8.69736397638917">
        <ele>365.44</ele>
        <time>2025-05-04T08:38:27Z</time>
      </trkpt>
      <trkpt lat="39.626343017444015" lon="-8.696638019755483">
        <ele>364.95999999999998</ele>
        <time>2025-05-04T08:38:35Z</time>
      </trkpt>
      <trkpt lat="39.625902967527509" lon="-8.696469040587544">
        <ele>364.95999999999998</ele>
        <time>2025-05-04T08:38:38Z</time>
      </trkpt>
      <trkpt lat="39.625759972259402" lon="-8.696437021717429">
        <ele>364.95999999999998</ele>
        <time>2025-05-04T08:38:39Z</time>
      </trkpt>
      <trkpt lat="39.625617982819676" lon="-8.696405002847314">
        <ele>364.95999999999998</ele>
        <time>2025-05-04T08:38:40Z</time>
      </trkpt>
      <trkpt lat="39.625332998111844" lon="-8.696437021717429">
        <ele>364.48000000000002</ele>
        <time>2025-05-04T08:38:42Z</time>
      </trkpt>
      <trkpt lat="39.625186985358596" lon="-8.696472980082035">
        <ele>364</ele>
        <time>2025-05-04T08:38:43Z</time>
      </trkpt>
      <trkpt lat="39.624343011528254" lon="-8.696680013090372">
        <ele>364.48000000000002</ele>
        <time>2025-05-04T08:38:49Z</time>
      </trkpt>
      <trkpt lat="39.62420797906816" lon="-8.696656040847302">
        <ele>364.48000000000002</ele>
        <time>2025-05-04T08:38:50Z</time>
      </trkpt>
      <trkpt lat="39.624085016548634" lon="-8.696606000885367">
        <ele>364.48000000000002</ele>
        <time>2025-05-04T08:38:51Z</time>
      </trkpt>
      <trkpt lat="39.623964987695217" lon="-8.696529977023602">
        <ele>364.48000000000002</ele>
        <time>2025-05-04T08:38:52Z</time>
      </trkpt>
      <trkpt lat="39.623875971883535" lon="-8.696435010060668">
        <ele>364.48000000000002</ele>
        <time>2025-05-04T08:38:53Z</time>
      </trkpt>
      <trkpt lat="39.62379802018404" lon="-8.696296960115433">
        <ele>364.95999999999998</ele>
        <time>2025-05-04T08:38:54Z</time>
      </trkpt>
      <trkpt lat="39.623715961351991" lon="-8.696151031181216">
        <ele>364.95999999999998</ele>
        <time>2025-05-04T08:38:55Z</time>
      </trkpt>
      <trkpt lat="39.623707998543978" lon="-8.69600904174149">
        <ele>364.48000000000002</ele>
        <time>2025-05-04T08:38:56Z</time>
      </trkpt>
      <trkpt lat="39.623698024079204" lon="-8.695834027603269">
        <ele>364.48000000000002</ele>
        <time>2025-05-04T08:38:57Z</time>
      </trkpt>
      <trkpt lat="39.623738005757332" lon="-8.695680974051356">
        <ele>364.48000000000002</ele>
        <time>2025-05-04T08:38:58Z</time>
      </trkpt>
      <trkpt lat="39.623802965506911" lon="-8.695521969348192">
        <ele>364.95999999999998</ele>
        <time>2025-05-04T08:38:59Z</time>
      </trkpt>
      <trkpt lat="39.623868009075522" lon="-8.695361036807299">
        <ele>364.95999999999998</ele>
        <time>2025-05-04T08:39:00Z</time>
      </trkpt>
      <trkpt lat="39.623932968825102" lon="-8.695202032104135">
        <ele>365.44</ele>
        <time>2025-05-04T08:39:01Z</time>
      </trkpt>
      <trkpt lat="39.624697985127568" lon="-8.693631011992693">
        <ele>364.95999999999998</ele>
        <time>2025-05-04T08:39:11Z</time>
      </trkpt>
      <trkpt lat="39.625685038045049" lon="-8.6914979852736">
        <ele>358.23000000000002</ele>
        <time>2025-05-04T08:39:24Z</time>
      </trkpt>
      <trkpt lat="39.626654991880059" lon="-8.68956302292645">
        <ele>354.38</ele>
        <time>2025-05-04T08:39:37Z</time>
      </trkpt>
      <trkpt lat="39.627006025984883" lon="-8.688904037699103">
        <ele>352.45999999999998</ele>
        <time>2025-05-04T08:39:44Z</time>
      </trkpt>
      <trkpt lat="39.627045001834631" lon="-8.688831031322479">
        <ele>351.5</ele>
        <time>2025-05-04T08:39:51Z</time>
      </trkpt>
      <trkpt lat="39.627067968249321" lon="-8.688788032159209">
        <ele>351.98000000000002</ele>
        <time>2025-05-04T08:40:36Z</time>
      </trkpt>
      <trkpt lat="39.627380026504397" lon="-8.688193000853062">
        <ele>351.5</ele>
        <time>2025-05-04T08:40:44Z</time>
      </trkpt>
      <trkpt lat="39.627680014818907" lon="-8.687620013952255">
        <ele>352.45999999999998</ele>
        <time>2025-05-04T08:40:53Z</time>
      </trkpt>
      <trkpt lat="39.627694012597203" lon="-8.687593024224043">
        <ele>352.45999999999998</ele>
        <time>2025-05-04T08:40:54Z</time>
      </trkpt>
      <trkpt lat="39.627694012597203" lon="-8.687593024224043">
        <ele>352.94</ele>
        <time>2025-05-04T08:41:05Z</time>
      </trkpt>
      <trkpt lat="39.62777397595346" lon="-8.687425972893834">
        <ele>355.33999999999997</ele>
        <time>2025-05-04T08:41:47Z</time>
      </trkpt>
      <trkpt lat="39.627842959016562" lon="-8.687280965968967">
        <ele>356.31</ele>
        <time>2025-05-04T08:41:49Z</time>
      </trkpt>
      <trkpt lat="39.627879001200199" lon="-8.687203014269471">
        <ele>357.75</ele>
        <time>2025-05-04T08:41:50Z</time>
      </trkpt>
      <trkpt lat="39.62790003977716" lon="-8.687160015106201">
        <ele>358.23000000000002</ele>
        <time>2025-05-04T08:41:51Z</time>
      </trkpt>
      <trkpt lat="39.627909008413553" lon="-8.687140988186002">
        <ele>358.23000000000002</ele>
        <time>2025-05-04T08:41:52Z</time>
      </trkpt>
      <trkpt lat="39.627909008413553" lon="-8.687140988186002">
        <ele>358.70999999999998</ele>
        <time>2025-05-04T08:41:53Z</time>
      </trkpt>
      <trkpt lat="39.627909008413553" lon="-8.687140988186002">
        <ele>357.26999999999998</ele>
        <time>2025-05-04T08:41:54Z</time>
      </trkpt>
      <trkpt lat="39.627909008413553" lon="-8.687140988186002">
        <ele>356.79000000000002</ele>
        <time>2025-05-04T08:41:55Z</time>
      </trkpt>
      <trkpt lat="39.62790297344327" lon="-8.687151968479157">
        <ele>356.79000000000002</ele>
        <time>2025-05-04T08:41:56Z</time>
      </trkpt>
      <trkpt lat="39.627906996756792" lon="-8.687144005671144">
        <ele>356.79000000000002</ele>
        <time>2025-05-04T08:41:57Z</time>
      </trkpt>
      <trkpt lat="39.627915965393186" lon="-8.687125984579325">
        <ele>357.26999999999998</ele>
        <time>2025-05-04T08:41:58Z</time>
      </trkpt>
      <trkpt lat="39.627929041162133" lon="-8.687098994851112">
        <ele>357.75</ele>
        <time>2025-05-04T08:41:59Z</time>
      </trkpt>
      <trkpt lat="39.62794597260654" lon="-8.687062030658126">
        <ele>358.23000000000002</ele>
        <time>2025-05-04T08:42:00Z</time>
      </trkpt>
      <trkpt lat="39.628001041710377" lon="-8.686947030946612">
        <ele>359.19</ele>
        <time>2025-05-04T08:42:10Z</time>
      </trkpt>
      <trkpt lat="39.628001041710377" lon="-8.686947030946612">
        <ele>358.70999999999998</ele>
        <time>2025-05-04T08:42:48Z</time>
      </trkpt>
      <trkpt lat="39.628001041710377" lon="-8.686947030946612">
        <ele>358.70999999999998</ele>
        <time>2025-05-04T08:43:22Z</time>
      </trkpt>
      <trkpt lat="39.628001041710377" lon="-8.686947030946612">
        <ele>358.70999999999998</ele>
        <time>2025-05-04T08:43:58Z</time>
      </trkpt>
      <trkpt lat="39.628040017560124" lon="-8.686864972114563">
        <ele>358.23000000000002</ele>
        <time>2025-05-04T08:43:59Z</time>
      </trkpt>
      <trkpt lat="39.628062983974814" lon="-8.686817027628422">
        <ele>358.23000000000002</ele>
        <time>2025-05-04T08:44:00Z</time>
      </trkpt>
      <trkpt lat="39.628093997016549" lon="-8.686751984059811">
        <ele>357.75</ele>
        <time>2025-05-04T08:44:01Z</time>
      </trkpt>
      <trkpt lat="39.628141019493341" lon="-8.686633966863155">
        <ele>356.79000000000002</ele>
        <time>2025-05-04T08:44:02Z</time>
      </trkpt>
      <trkpt lat="39.62818200699985" lon="-8.686531037092209">
        <ele>356.79000000000002</ele>
        <time>2025-05-04T08:44:03Z</time>
      </trkpt>
      <trkpt lat="39.628231041133404" lon="-8.686410002410412">
        <ele>356.79000000000002</ele>
        <time>2025-05-04T08:44:04Z</time>
      </trkpt>
      <trkpt lat="39.628964038565755" lon="-8.684965968132019">
        <ele>354.38</ele>
        <time>2025-05-04T08:44:14Z</time>
      </trkpt>
      <trkpt lat="39.629889987409115" lon="-8.683632994070649">
        <ele>355.33999999999997</ele>
        <time>2025-05-04T08:44:24Z</time>
      </trkpt>
      <trkpt lat="39.630584008991718" lon="-8.682657005265355">
        <ele>355.33999999999997</ele>
        <time>2025-05-04T08:44:32Z</time>
      </trkpt>
      <trkpt lat="39.630629019811749" lon="-8.682577041909099">
        <ele>354.86000000000001</ele>
        <time>2025-05-04T08:44:33Z</time>
      </trkpt>
      <trkpt lat="39.63067595846951" lon="-8.682402027770877">
        <ele>353.89999999999998</ele>
        <time>2025-05-04T08:44:35Z</time>
      </trkpt>
      <trkpt lat="39.630707977339625" lon="-8.68225802667439">
        <ele>352.94</ele>
        <time>2025-05-04T08:44:37Z</time>
      </trkpt>
      <trkpt lat="39.630678975954652" lon="-8.682187031954527">
        <ele>352.45999999999998</ele>
        <time>2025-05-04T08:44:38Z</time>
      </trkpt>
      <trkpt lat="39.630648968741298" lon="-8.682112013921142">
        <ele>351.5</ele>
        <time>2025-05-04T08:44:39Z</time>
      </trkpt>
      <trkpt lat="39.630618039518595" lon="-8.682033978402615">
        <ele>351.01999999999998</ele>
        <time>2025-05-04T08:44:40Z</time>
      </trkpt>
      <trkpt lat="39.630583003163338" lon="-8.681945968419313">
        <ele>350.54000000000002</ele>
        <time>2025-05-04T08:44:41Z</time>
      </trkpt>
      <trkpt lat="39.630515025928617" lon="-8.681890983134508">
        <ele>350.06</ele>
        <time>2025-05-04T08:44:42Z</time>
      </trkpt>
      <trkpt lat="39.630435984581709" lon="-8.681829040870071">
        <ele>349.57999999999998</ele>
        <time>2025-05-04T08:44:43Z</time>
      </trkpt>
      <trkpt lat="39.63035199791193" lon="-8.681774977594614">
        <ele>348.62</ele>
        <time>2025-05-04T08:44:44Z</time>
      </trkpt>
      <trkpt lat="39.630256025120616" lon="-8.681784030050039">
        <ele>347.64999999999998</ele>
        <time>2025-05-04T08:44:45Z</time>
      </trkpt>
      <trkpt lat="39.63015703484416" lon="-8.681791992858052">
        <ele>347.17000000000002</ele>
        <time>2025-05-04T08:44:46Z</time>
      </trkpt>
      <trkpt lat="39.630054021254182" lon="-8.681853013113141">
        <ele>346.20999999999998</ele>
        <time>2025-05-04T08:44:47Z</time>
      </trkpt>
      <trkpt lat="39.629981014877558" lon="-8.681948985904455">
        <ele>345.73000000000002</ele>
        <time>2025-05-04T08:44:48Z</time>
      </trkpt>
      <trkpt lat="39.629929969087243" lon="-8.682049987837672">
        <ele>345.25</ele>
        <time>2025-05-04T08:44:49Z</time>
      </trkpt>
      <trkpt lat="39.629893004894257" lon="-8.682159036397934">
        <ele>344.76999999999998</ele>
        <time>2025-05-04T08:44:50Z</time>
      </trkpt>
      <trkpt lat="39.629885964095592" lon="-8.682268001139164">
        <ele>344.29000000000002</ele>
        <time>2025-05-04T08:44:51Z</time>
      </trkpt>
      <trkpt lat="39.62987800128758" lon="-8.682377971708775">
        <ele>343.81</ele>
        <time>2025-05-04T08:44:52Z</time>
      </trkpt>
      <trkpt lat="39.629915971308947" lon="-8.682501018047333">
        <ele>343.81</ele>
        <time>2025-05-04T08:44:53Z</time>
      </trkpt>
      <trkpt lat="39.629966011270881" lon="-8.682601014152169">
        <ele>343.32999999999998</ele>
        <time>2025-05-04T08:44:54Z</time>
      </trkpt>
      <trkpt lat="39.630015967413783" lon="-8.682700004428625">
        <ele>343.32999999999998</ele>
        <time>2025-05-04T08:44:55Z</time>
      </trkpt>
      <trkpt lat="39.630060978233814" lon="-8.682791031897068">
        <ele>343.32999999999998</ele>
        <time>2025-05-04T08:44:56Z</time>
      </trkpt>
      <trkpt lat="39.630111018195748" lon="-8.682890022173524">
        <ele>342.85000000000002</ele>
        <time>2025-05-04T08:44:57Z</time>
      </trkpt>
      <trkpt lat="39.630138007923961" lon="-8.682927992194891">
        <ele>342.85000000000002</ele>
        <time>2025-05-04T08:44:58Z</time>
      </trkpt>
      <trkpt lat="39.630168015137315" lon="-8.6829689797014">
        <ele>342.37</ele>
        <time>2025-05-04T08:44:59Z</time>
      </trkpt>
      <trkpt lat="39.630325008183718" lon="-8.683168971911073">
        <ele>341.41000000000003</ele>
        <time>2025-05-04T08:45:06Z</time>
      </trkpt>
      <trkpt lat="39.630571017041802" lon="-8.68346300907433">
        <ele>341.41000000000003</ele>
        <time>2025-05-04T08:45:15Z</time>
      </trkpt>
      <trkpt lat="39.63088802061975" lon="-8.683788981288672">
        <ele>341.88999999999999</ele>
        <time>2025-05-04T08:45:20Z</time>
      </trkpt>
      <trkpt lat="39.631337961181998" lon="-8.684145966544747">
        <ele>343.81</ele>
        <time>2025-05-04T08:45:24Z</time>
      </trkpt>
      <trkpt lat="39.63146997615695" lon="-8.684222996234894">
        <ele>344.29000000000002</ele>
        <time>2025-05-04T08:45:25Z</time>
      </trkpt>
      <trkpt lat="39.631868032738566" lon="-8.684362974017859">
        <ele>345.73000000000002</ele>
        <time>2025-05-04T08:45:28Z</time>
      </trkpt>
      <trkpt lat="39.632286038249731" lon="-8.684391975402832">
        <ele>345.73000000000002</ele>
        <time>2025-05-04T08:45:31Z</time>
      </trkpt>
      <trkpt lat="39.632559958845377" lon="-8.684360962361097">
        <ele>345.73000000000002</ele>
        <time>2025-05-04T08:45:33Z</time>
      </trkpt>
      <trkpt lat="39.633607026189566" lon="-8.684058962389827">
        <ele>347.17000000000002</ele>
        <time>2025-05-04T08:45:42Z</time>
      </trkpt>
      <trkpt lat="39.634112035855651" lon="-8.683842960745096">
        <ele>347.17000000000002</ele>
        <time>2025-05-04T08:45:48Z</time>
      </trkpt>
      <trkpt lat="39.634168026968837" lon="-8.683800967410207">
        <ele>347.17000000000002</ele>
        <time>2025-05-04T08:45:49Z</time>
      </trkpt>
      <trkpt lat="39.63421898894012" lon="-8.68374003097415">
        <ele>346.69</ele>
        <time>2025-05-04T08:45:50Z</time>
      </trkpt>
      <trkpt lat="39.634230975061655" lon="-8.683704994618893">
        <ele>346.69</ele>
        <time>2025-05-04T08:45:51Z</time>
      </trkpt>
      <trkpt lat="39.634265005588531" lon="-8.683620002120733">
        <ele>346.69</ele>
        <time>2025-05-04T08:45:52Z</time>
      </trkpt>
      <trkpt lat="39.634214965626597" lon="-8.683512965217233">
        <ele>346.69</ele>
        <time>2025-05-04T08:45:53Z</time>
      </trkpt>
      <trkpt lat="39.634178001433611" lon="-8.683459991589189">
        <ele>346.69</ele>
        <time>2025-05-04T08:45:54Z</time>
      </trkpt>
      <trkpt lat="39.634136008098722" lon="-8.6833989713341">
        <ele>346.20999999999998</ele>
        <time>2025-05-04T08:45:55Z</time>
      </trkpt>
      <trkpt lat="39.634093008935452" lon="-8.683337029069662">
        <ele>345.73000000000002</ele>
        <time>2025-05-04T08:45:56Z</time>
      </trkpt>
      <trkpt lat="39.634080016985536" lon="-8.683319007977843">
        <ele>345.25</ele>
        <time>2025-05-04T08:45:57Z</time>
      </trkpt>
      <trkpt lat="39.634014973416924" lon="-8.683238960802555">
        <ele>345.25</ele>
        <time>2025-05-04T08:45:58Z</time>
      </trkpt>
      <trkpt lat="39.633523039519787" lon="-8.682629009708762">
        <ele>343.81</ele>
        <time>2025-05-04T08:46:08Z</time>
      </trkpt>
      <trkpt lat="39.633216010406613" lon="-8.682247968390584">
        <ele>340.44</ele>
        <time>2025-05-04T08:46:13Z</time>
      </trkpt>
      <trkpt lat="39.633155995979905" lon="-8.682174040004611">
        <ele>340.44</ele>
        <time>2025-05-04T08:46:14Z</time>
      </trkpt>
      <trkpt lat="39.633092964068055" lon="-8.682096004486084">
        <ele>339.48000000000002</ele>
        <time>2025-05-04T08:46:15Z</time>
      </trkpt>
      <trkpt lat="39.633044013753533" lon="-8.682032972574234">
        <ele>339</ele>
        <time>2025-05-04T08:46:16Z</time>
      </trkpt>
      <trkpt lat="39.632987016811967" lon="-8.681960972025991">
        <ele>338.51999999999998</ele>
        <time>2025-05-04T08:46:17Z</time>
      </trkpt>
      <trkpt lat="39.6329300198704" lon="-8.681888971477747">
        <ele>338.51999999999998</ele>
        <time>2025-05-04T08:46:18Z</time>
      </trkpt>
      <trkpt lat="39.63265098631382" lon="-8.681525029242039">
        <ele>338.04000000000002</ele>
        <time>2025-05-04T08:46:23Z</time>
      </trkpt>
      <trkpt lat="39.632438002154231" lon="-8.681237027049065">
        <ele>337.56</ele>
        <time>2025-05-04T08:46:27Z</time>
      </trkpt>
      <trkpt lat="39.632326019927859" lon="-8.681090008467436">
        <ele>337.07999999999998</ele>
        <time>2025-05-04T08:46:29Z</time>
      </trkpt>
      <trkpt lat="39.632098032161593" lon="-8.680823966860771">
        <ele>336.12</ele>
        <time>2025-05-04T08:46:33Z</time>
      </trkpt>
      <trkpt lat="39.631947996094823" lon="-8.680650964379311">
        <ele>334.68000000000001</ele>
        <time>2025-05-04T08:46:36Z</time>
      </trkpt>
      <trkpt lat="39.63189703412354" lon="-8.680592039600015">
        <ele>333.70999999999998</ele>
        <time>2025-05-04T08:46:37Z</time>
      </trkpt>
      <trkpt lat="39.631738029420376" lon="-8.680408978834748">
        <ele>331.31</ele>
        <time>2025-05-04T08:46:40Z</time>
      </trkpt>
      <trkpt lat="39.6316849719733" lon="-8.68034795857966">
        <ele>330.82999999999998</ele>
        <time>2025-05-04T08:46:41Z</time>
      </trkpt>
      <trkpt lat="39.63163903914392" lon="-8.680293979123235">
        <ele>330.35000000000002</ele>
        <time>2025-05-04T08:46:42Z</time>
      </trkpt>
      <trkpt lat="39.631600985303521" lon="-8.680249974131584">
        <ele>329.87</ele>
        <time>2025-05-04T08:46:43Z</time>
      </trkpt>
      <trkpt lat="39.631558991968632" lon="-8.680203035473824">
        <ele>329.87</ele>
        <time>2025-05-04T08:46:44Z</time>
      </trkpt>
      <trkpt lat="39.631514986976981" lon="-8.68015299551189">
        <ele>329.38999999999999</ele>
        <time>2025-05-04T08:46:45Z</time>
      </trkpt>
      <trkpt lat="39.631471987813711" lon="-8.68010999634862">
        <ele>329.38999999999999</ele>
        <time>2025-05-04T08:46:46Z</time>
      </trkpt>
      <trkpt lat="39.631354976445436" lon="-8.680186020210385">
        <ele>329.38999999999999</ele>
        <time>2025-05-04T08:46:47Z</time>
      </trkpt>
      <trkpt lat="39.631335027515888" lon="-8.680179985240102">
        <ele>329.38999999999999</ele>
        <time>2025-05-04T08:46:48Z</time>
      </trkpt>
      <trkpt lat="39.631265038624406" lon="-8.680126005783677">
        <ele>329.87</ele>
        <time>2025-05-04T08:46:49Z</time>
      </trkpt>
      <trkpt lat="39.631248023360968" lon="-8.680101027712226">
        <ele>329.38999999999999</ele>
        <time>2025-05-04T08:46:50Z</time>
      </trkpt>
      <trkpt lat="39.631268978118896" lon="-8.679906986653805">
        <ele>328.91000000000003</ele>
        <time>2025-05-04T08:46:51Z</time>
      </trkpt>
      <trkpt lat="39.631244000047445" lon="-8.67987303994596">
        <ele>328.43000000000001</ele>
        <time>2025-05-04T08:46:52Z</time>
      </trkpt>
      <trkpt lat="39.631205024197698" lon="-8.679820988327265">
        <ele>327.94999999999999</ele>
        <time>2025-05-04T08:46:53Z</time>
      </trkpt>
      <trkpt lat="39.630992040038109" lon="-8.679548995569348">
        <ele>325.06</ele>
        <time>2025-05-04T08:46:58Z</time>
      </trkpt>
      <trkpt lat="39.630949040874839" lon="-8.679495016112924">
        <ele>324.57999999999998</ele>
        <time>2025-05-04T08:46:59Z</time>
      </trkpt>
      <trkpt lat="39.630868993699551" lon="-8.679394014179707">
        <ele>323.13999999999999</ele>
        <time>2025-05-04T08:47:01Z</time>
      </trkpt>
      <trkpt lat="39.630829012021422" lon="-8.679343974217773">
        <ele>322.66000000000003</ele>
        <time>2025-05-04T08:47:02Z</time>
      </trkpt>
      <trkpt lat="39.630788024514914" lon="-8.679292006418109">
        <ele>322.18000000000001</ele>
        <time>2025-05-04T08:47:03Z</time>
      </trkpt>
      <trkpt lat="39.630333976820111" lon="-8.678725976496935">
        <ele>320.25999999999999</ele>
        <time>2025-05-04T08:47:12Z</time>
      </trkpt>
      <trkpt lat="39.629531996324658" lon="-8.677735989913344">
        <ele>316.88999999999999</ele>
        <time>2025-05-04T08:47:21Z</time>
      </trkpt>
      <trkpt lat="39.629237037152052" lon="-8.677369030192494">
        <ele>314.97000000000003</ele>
        <time>2025-05-04T08:47:24Z</time>
      </trkpt>
      <trkpt lat="39.626990016549826" lon="-8.674485990777612">
        <ele>320.74000000000001</ele>
        <time>2025-05-04T08:47:47Z</time>
      </trkpt>
      <trkpt lat="39.626877028495073" lon="-8.674270994961262">
        <ele>322.66000000000003</ele>
        <time>2025-05-04T08:47:49Z</time>
      </trkpt>
      <trkpt lat="39.62680896744132" lon="-8.674114001914859">
        <ele>325.06</ele>
        <time>2025-05-04T08:47:51Z</time>
      </trkpt>
      <trkpt lat="39.62669899687171" lon="-8.673628019168973">
        <ele>331.79000000000002</ele>
        <time>2025-05-04T08:47:57Z</time>
      </trkpt>
      <trkpt lat="39.626705031841993" lon="-8.673474965617061">
        <ele>333.70999999999998</ele>
        <time>2025-05-04T08:47:59Z</time>
      </trkpt>
      <trkpt lat="39.626708971336484" lon="-8.673399025574327">
        <ele>334.19999999999999</ele>
        <time>2025-05-04T08:48:00Z</time>
      </trkpt>
      <trkpt lat="39.626712994650006" lon="-8.67332199588418">
        <ele>335.16000000000003</ele>
        <time>2025-05-04T08:48:01Z</time>
      </trkpt>
      <trkpt lat="39.626717017963529" lon="-8.673248989507556">
        <ele>335.63999999999999</ele>
        <time>2025-05-04T08:48:02Z</time>
      </trkpt>
      <trkpt lat="39.62672003544867" lon="-8.673190986737609">
        <ele>336.12</ele>
        <time>2025-05-04T08:48:03Z</time>
      </trkpt>
      <trkpt lat="39.626737972721457" lon="-8.67310599423945">
        <ele>336.60000000000002</ele>
        <time>2025-05-04T08:48:04Z</time>
      </trkpt>
      <trkpt lat="39.626752976328135" lon="-8.673034999519587">
        <ele>337.07999999999998</ele>
        <time>2025-05-04T08:48:05Z</time>
      </trkpt>
      <trkpt lat="39.626767979934812" lon="-8.672960987314582">
        <ele>337.56</ele>
        <time>2025-05-04T08:48:06Z</time>
      </trkpt>
      <trkpt lat="39.626783989369869" lon="-8.672882029786706">
        <ele>337.56</ele>
        <time>2025-05-04T08:48:07Z</time>
      </trkpt>
      <trkpt lat="39.626949029043317" lon="-8.672068985179067">
        <ele>339.95999999999998</ele>
        <time>2025-05-04T08:48:16Z</time>
      </trkpt>
      <trkpt lat="39.626964032649994" lon="-8.671993967145681">
        <ele>339.95999999999998</ele>
        <time>2025-05-04T08:48:17Z</time>
      </trkpt>
      <trkpt lat="39.62697803042829" lon="-8.67192498408258">
        <ele>340.44</ele>
        <time>2025-05-04T08:48:18Z</time>
      </trkpt>
      <trkpt lat="39.626990016549826" lon="-8.671863041818142">
        <ele>340.44</ele>
        <time>2025-05-04T08:48:19Z</time>
      </trkpt>
      <trkpt lat="39.627002002671361" lon="-8.671806966885924">
        <ele>340.44</ele>
        <time>2025-05-04T08:48:20Z</time>
      </trkpt>
      <trkpt lat="39.62702102959156" lon="-8.671455010771751">
        <ele>341.41000000000003</ele>
        <time>2025-05-04T08:48:27Z</time>
      </trkpt>
      <trkpt lat="39.627057993784547" lon="-8.671398013830185">
        <ele>341.41000000000003</ele>
        <time>2025-05-04T08:48:28Z</time>
      </trkpt>
      <trkpt lat="39.62708699516952" lon="-8.671388039365411">
        <ele>341.88999999999999</ele>
        <time>2025-05-04T08:48:29Z</time>
      </trkpt>
      <trkpt lat="39.627115996554494" lon="-8.671378986909986">
        <ele>342.37</ele>
        <time>2025-05-04T08:48:30Z</time>
      </trkpt>
      <trkpt lat="39.627163019031286" lon="-8.671380998566747">
        <ele>342.85000000000002</ele>
        <time>2025-05-04T08:48:31Z</time>
      </trkpt>
      <trkpt lat="39.627185985445976" lon="-8.671403964981437">
        <ele>343.32999999999998</ele>
        <time>2025-05-04T08:48:32Z</time>
      </trkpt>
      <trkpt lat="39.62719202041626" lon="-8.671455010771751">
        <ele>343.81</ele>
        <time>2025-05-04T08:48:33Z</time>
      </trkpt>
      <trkpt lat="39.62719202041626" lon="-8.671501027420163">
        <ele>343.81</ele>
        <time>2025-05-04T08:48:34Z</time>
      </trkpt>
      <trkpt lat="39.62719202041626" lon="-8.67153899744153">
        <ele>344.29000000000002</ele>
        <time>2025-05-04T08:48:35Z</time>
      </trkpt>
      <trkpt lat="39.627029998227954" lon="-8.671657014638186">
        <ele>343.81</ele>
        <time>2025-05-04T08:48:38Z</time>
      </trkpt>
      <trkpt lat="39.626995967701077" lon="-8.671833034604788">
        <ele>342.37</ele>
        <time>2025-05-04T08:48:41Z</time>
      </trkpt>
      <trkpt lat="39.626982975751162" lon="-8.67190201766789">
        <ele>341.88999999999999</ele>
        <time>2025-05-04T08:48:42Z</time>
      </trkpt>
      <trkpt lat="39.626803016290069" lon="-8.672791002318263">
        <ele>338.04000000000002</ele>
        <time>2025-05-04T08:48:53Z</time>
      </trkpt>
      <trkpt lat="39.626751970499754" lon="-8.673039022833109">
        <ele>337.07999999999998</ele>
        <time>2025-05-04T08:48:56Z</time>
      </trkpt>
      <trkpt lat="39.626735039055347" lon="-8.673123009502888">
        <ele>337.07999999999998</ele>
        <time>2025-05-04T08:48:57Z</time>
      </trkpt>
      <trkpt lat="39.626705031841993" lon="-8.673464991152287">
        <ele>336.60000000000002</ele>
        <time>2025-05-04T08:49:01Z</time>
      </trkpt>
      <trkpt lat="39.626701008528471" lon="-8.67353598587215">
        <ele>336.12</ele>
        <time>2025-05-04T08:49:02Z</time>
      </trkpt>
      <trkpt lat="39.62669899687171" lon="-8.673660038039088">
        <ele>336.12</ele>
        <time>2025-05-04T08:49:04Z</time>
      </trkpt>
      <trkpt lat="39.626717017963529" lon="-8.67379498668015">
        <ele>336.12</ele>
        <time>2025-05-04T08:49:06Z</time>
      </trkpt>
      <trkpt lat="39.626736966893077" lon="-8.673868998885155">
        <ele>335.63999999999999</ele>
        <time>2025-05-04T08:49:07Z</time>
      </trkpt>
      <trkpt lat="39.626791030168533" lon="-8.673940999433398">
        <ele>336.12</ele>
        <time>2025-05-04T08:49:08Z</time>
      </trkpt>
      <trkpt lat="39.626833023503423" lon="-8.674016017466784">
        <ele>336.60000000000002</ele>
        <time>2025-05-04T08:49:09Z</time>
      </trkpt>
      <trkpt lat="39.626880967989564" lon="-8.674102015793324">
        <ele>337.56</ele>
        <time>2025-05-04T08:49:10Z</time>
      </trkpt>
      <trkpt lat="39.626965960487723" lon="-8.674254985526204">
        <ele>338.04000000000002</ele>
        <time>2025-05-04T08:49:12Z</time>
      </trkpt>
      <trkpt lat="39.62715002708137" lon="-8.674585986882448">
        <ele>340.92000000000002</ele>
        <time>2025-05-04T08:49:17Z</time>
      </trkpt>
      <trkpt lat="39.62723602540791" lon="-8.674692017957568">
        <ele>341.41000000000003</ele>
        <time>2025-05-04T08:49:19Z</time>
      </trkpt>
      <trkpt lat="39.627485973760486" lon="-8.675174983218312">
        <ele>341.41000000000003</ele>
        <time>2025-05-04T08:49:27Z</time>
      </trkpt>
      <trkpt lat="39.627522015944123" lon="-8.675223011523485">
        <ele>341.41000000000003</ele>
        <time>2025-05-04T08:49:28Z</time>
      </trkpt>
      <trkpt lat="39.62762201204896" lon="-8.675165008753538">
        <ele>341.41000000000003</ele>
        <time>2025-05-04T08:49:29Z</time>
      </trkpt>
      <trkpt lat="39.627655036747456" lon="-8.675214964896441">
        <ele>341.41000000000003</ele>
        <time>2025-05-04T08:49:30Z</time>
      </trkpt>
      <trkpt lat="39.627679008990526" lon="-8.675251007080078">
        <ele>341.41000000000003</ele>
        <time>2025-05-04T08:49:31Z</time>
      </trkpt>
      <trkpt lat="39.627697030082345" lon="-8.675277996808291">
        <ele>341.41000000000003</ele>
        <time>2025-05-04T08:49:32Z</time>
      </trkpt>
      <trkpt lat="39.627712033689022" lon="-8.675300963222981">
        <ele>341.41000000000003</ele>
        <time>2025-05-04T08:49:33Z</time>
      </trkpt>
      <trkpt lat="39.627727037295699" lon="-8.675323007628322">
        <ele>340.92000000000002</ele>
        <time>2025-05-04T08:49:34Z</time>
      </trkpt>
      <trkpt lat="39.627742040902376" lon="-8.675345974043012">
        <ele>340.92000000000002</ele>
        <time>2025-05-04T08:49:35Z</time>
      </trkpt>
      <trkpt lat="39.627756960690022" lon="-8.675368018448353">
        <ele>340.92000000000002</ele>
        <time>2025-05-04T08:49:36Z</time>
      </trkpt>
      <trkpt lat="39.627770958468318" lon="-8.675388973206282">
        <ele>340.44</ele>
        <time>2025-05-04T08:49:37Z</time>
      </trkpt>
      <trkpt lat="39.627783028408885" lon="-8.675408000126481">
        <ele>339.95999999999998</ele>
        <time>2025-05-04T08:49:38Z</time>
      </trkpt>
      <trkpt lat="39.62779501453042" lon="-8.6754260212183">
        <ele>339.95999999999998</ele>
        <time>2025-05-04T08:49:39Z</time>
      </trkpt>
      <trkpt lat="39.627890987321734" lon="-8.675618972629309">
        <ele>341.41000000000003</ele>
        <time>2025-05-04T08:49:49Z</time>
      </trkpt>
      <trkpt lat="39.627885036170483" lon="-8.67566398344934">
        <ele>340.92000000000002</ele>
        <time>2025-05-04T08:50:01Z</time>
      </trkpt>
      <trkpt lat="39.627879001200199" lon="-8.675702037289739">
        <ele>340.92000000000002</ele>
        <time>2025-05-04T08:50:02Z</time>
      </trkpt>
      <trkpt lat="39.627876989543438" lon="-8.675701031461358">
        <ele>340.44</ele>
        <time>2025-05-04T08:50:03Z</time>
      </trkpt>
      <trkpt lat="39.627879001200199" lon="-8.675702037289739">
        <ele>340.92000000000002</ele>
        <time>2025-05-04T08:50:13Z</time>
      </trkpt>
      <trkpt lat="39.627879001200199" lon="-8.675702037289739">
        <ele>340.92000000000002</ele>
        <time>2025-05-04T08:50:14Z</time>
      </trkpt>
      <trkpt lat="39.627879001200199" lon="-8.675702037289739">
        <ele>341.88999999999999</ele>
        <time>2025-05-04T08:50:27Z</time>
      </trkpt>
      <trkpt lat="39.627879001200199" lon="-8.675702037289739">
        <ele>341.88999999999999</ele>
        <time>2025-05-04T08:50:36Z</time>
      </trkpt>
      <trkpt lat="39.627682026475668" lon="-8.675851989537478">
        <ele>386.58999999999997</ele>
        <time>2025-05-04T10:15:51Z</time>
      </trkpt>
      <trkpt lat="39.627703987061977" lon="-8.675944022834301">
        <ele>355.33999999999997</ele>
        <time>2025-05-04T10:16:38Z</time>
      </trkpt>
      <trkpt lat="39.627742040902376" lon="-8.675910998135805">
        <ele>353.42000000000002</ele>
        <time>2025-05-04T10:17:24Z</time>
      </trkpt>
      <trkpt lat="39.627753021195531" lon="-8.675913009792566">
        <ele>353.42000000000002</ele>
        <time>2025-05-04T10:17:54Z</time>
      </trkpt>
      <trkpt lat="39.627753021195531" lon="-8.675916027277708">
        <ele>353.42000000000002</ele>
        <time>2025-05-04T10:18:37Z</time>
      </trkpt>
      <trkpt lat="39.627753021195531" lon="-8.675916027277708">
        <ele>353.42000000000002</ele>
        <time>2025-05-04T10:18:53Z</time>
      </trkpt>
      <trkpt lat="39.627710022032261" lon="-8.675854001194239">
        <ele>351.98000000000002</ele>
        <time>2025-05-04T10:19:00Z</time>
      </trkpt>
      <trkpt lat="39.627737011760473" lon="-8.675824999809265">
        <ele>351.98000000000002</ele>
        <time>2025-05-04T10:19:04Z</time>
      </trkpt>
      <trkpt lat="39.627789985388517" lon="-8.675803961232305">
        <ele>351.5</ele>
        <time>2025-05-04T10:19:11Z</time>
      </trkpt>
      <trkpt lat="39.627750003710389" lon="-8.675659038126469">
        <ele>351.01999999999998</ele>
        <time>2025-05-04T10:19:13Z</time>
      </trkpt>
      <trkpt lat="39.627750003710389" lon="-8.675659038126469">
        <ele>351.01999999999998</ele>
        <time>2025-05-04T10:19:14Z</time>
      </trkpt>
      <trkpt lat="39.627746986225247" lon="-8.675654008984566">
        <ele>350.54000000000002</ele>
        <time>2025-05-04T10:19:15Z</time>
      </trkpt>
      <trkpt lat="39.6277080103755" lon="-8.675603969022632">
        <ele>350.06</ele>
        <time>2025-05-04T10:19:16Z</time>
      </trkpt>
      <trkpt lat="39.627670962363482" lon="-8.67555602453649">
        <ele>350.06</ele>
        <time>2025-05-04T10:19:17Z</time>
      </trkpt>
      <trkpt lat="39.627211969345808" lon="-8.674981025978923">
        <ele>347.64999999999998</ele>
        <time>2025-05-04T10:19:28Z</time>
      </trkpt>
      <trkpt lat="39.626833023503423" lon="-8.674376020208001">
        <ele>346.69</ele>
        <time>2025-05-04T10:19:38Z</time>
      </trkpt>
      <trkpt lat="39.626812990754843" lon="-8.674317011609674">
        <ele>346.20999999999998</ele>
        <time>2025-05-04T10:19:39Z</time>
      </trkpt>
      <trkpt lat="39.626727998256683" lon="-8.67392398416996">
        <ele>346.69</ele>
        <time>2025-05-04T10:19:48Z</time>
      </trkpt>
      <trkpt lat="39.62669899687171" lon="-8.673576973378658">
        <ele>346.20999999999998</ele>
        <time>2025-05-04T10:19:54Z</time>
      </trkpt>
      <trkpt lat="39.626702014356852" lon="-8.673515031114221">
        <ele>345.73000000000002</ele>
        <time>2025-05-04T10:19:55Z</time>
      </trkpt>
      <trkpt lat="39.626706037670374" lon="-8.673443030565977">
        <ele>345.73000000000002</ele>
        <time>2025-05-04T10:19:56Z</time>
      </trkpt>
      <trkpt lat="39.626770997419953" lon="-8.672946989536285">
        <ele>345.73000000000002</ele>
        <time>2025-05-04T10:20:04Z</time>
      </trkpt>
      <trkpt lat="39.626797987148166" lon="-8.672814974561334">
        <ele>345.25</ele>
        <time>2025-05-04T10:20:06Z</time>
      </trkpt>
      <trkpt lat="39.626811984926462" lon="-8.672750014811754">
        <ele>345.25</ele>
        <time>2025-05-04T10:20:07Z</time>
      </trkpt>
      <trkpt lat="39.626840986311436" lon="-8.67261003702879">
        <ele>344.76999999999998</ele>
        <time>2025-05-04T10:20:09Z</time>
      </trkpt>
      <trkpt lat="39.626855989918113" lon="-8.672536024823785">
        <ele>344.76999999999998</ele>
        <time>2025-05-04T10:20:10Z</time>
      </trkpt>
      <trkpt lat="39.62687099352479" lon="-8.67246201261878">
        <ele>344.76999999999998</ele>
        <time>2025-05-04T10:20:11Z</time>
      </trkpt>
      <trkpt lat="39.626885997131467" lon="-8.672385988757014">
        <ele>344.76999999999998</ele>
        <time>2025-05-04T10:20:12Z</time>
      </trkpt>
      <trkpt lat="39.626898989081383" lon="-8.672317005693913">
        <ele>344.76999999999998</ele>
        <time>2025-05-04T10:20:13Z</time>
      </trkpt>
      <trkpt lat="39.626912986859679" lon="-8.672251040115953">
        <ele>344.76999999999998</ele>
        <time>2025-05-04T10:20:14Z</time>
      </trkpt>
      <trkpt lat="39.626924972981215" lon="-8.672188008204103">
        <ele>344.76999999999998</ele>
        <time>2025-05-04T10:20:15Z</time>
      </trkpt>
      <trkpt lat="39.626938970759511" lon="-8.672119025141001">
        <ele>344.76999999999998</ele>
        <time>2025-05-04T10:20:16Z</time>
      </trkpt>
      <trkpt lat="39.626952968537807" lon="-8.672051969915628">
        <ele>344.76999999999998</ele>
        <time>2025-05-04T10:20:17Z</time>
      </trkpt>
      <trkpt lat="39.626964032649994" lon="-8.671994972974062">
        <ele>344.29000000000002</ele>
        <time>2025-05-04T10:20:18Z</time>
      </trkpt>
      <trkpt lat="39.627022035419941" lon="-8.671700013801456">
        <ele>342.85000000000002</ele>
        <time>2025-05-04T10:20:24Z</time>
      </trkpt>
      <trkpt lat="39.62702102959156" lon="-8.67153899744153">
        <ele>342.37</ele>
        <time>2025-05-04T10:20:26Z</time>
      </trkpt>
      <trkpt lat="39.62702102959156" lon="-8.671501027420163">
        <ele>341.88999999999999</ele>
        <time>2025-05-04T10:20:27Z</time>
      </trkpt>
      <trkpt lat="39.627050030976534" lon="-8.671401031315327">
        <ele>341.88999999999999</ele>
        <time>2025-05-04T10:20:28Z</time>
      </trkpt>
      <trkpt lat="39.627081966027617" lon="-8.67138996720314">
        <ele>341.88999999999999</ele>
        <time>2025-05-04T10:20:29Z</time>
      </trkpt>
      <trkpt lat="39.62715296074748" lon="-8.671371024101973">
        <ele>341.88999999999999</ele>
        <time>2025-05-04T10:20:30Z</time>
      </trkpt>
      <trkpt lat="39.627177016809583" lon="-8.671393990516663">
        <ele>341.41000000000003</ele>
        <time>2025-05-04T10:20:31Z</time>
      </trkpt>
      <trkpt lat="39.62719202041626" lon="-8.671463979408145">
        <ele>340.92000000000002</ele>
        <time>2025-05-04T10:20:32Z</time>
      </trkpt>
      <trkpt lat="39.62719202041626" lon="-8.671509996056557">
        <ele>340.92000000000002</ele>
        <time>2025-05-04T10:20:33Z</time>
      </trkpt>
      <trkpt lat="39.62719202041626" lon="-8.67153899744153">
        <ele>340.92000000000002</ele>
        <time>2025-05-04T10:20:34Z</time>
      </trkpt>
      <trkpt lat="39.627138962969184" lon="-8.671554001048207">
        <ele>340.92000000000002</ele>
        <time>2025-05-04T10:20:35Z</time>
      </trkpt>
      <trkpt lat="39.627033015713096" lon="-8.671634970232844">
        <ele>341.41000000000003</ele>
        <time>2025-05-04T10:20:36Z</time>
      </trkpt>
      <trkpt lat="39.627022035419941" lon="-8.671704959124327">
        <ele>340.92000000000002</ele>
        <time>2025-05-04T10:20:37Z</time>
      </trkpt>
      <trkpt lat="39.627009965479374" lon="-8.671762961894274">
        <ele>340.92000000000002</ele>
        <time>2025-05-04T10:20:38Z</time>
      </trkpt>
      <trkpt lat="39.626998985186219" lon="-8.671820964664221">
        <ele>340.44</ele>
        <time>2025-05-04T10:20:39Z</time>
      </trkpt>
      <trkpt lat="39.626986999064684" lon="-8.671877961605787">
        <ele>340.44</ele>
        <time>2025-05-04T10:20:40Z</time>
      </trkpt>
      <trkpt lat="39.626975012943149" lon="-8.671940993517637">
        <ele>340.44</ele>
        <time>2025-05-04T10:20:41Z</time>
      </trkpt>
      <trkpt lat="39.626961015164852" lon="-8.672008970752358">
        <ele>339.95999999999998</ele>
        <time>2025-05-04T10:20:42Z</time>
      </trkpt>
      <trkpt lat="39.626946011558175" lon="-8.672084994614124">
        <ele>339.95999999999998</ele>
        <time>2025-05-04T10:20:43Z</time>
      </trkpt>
      <trkpt lat="39.626930002123117" lon="-8.672166969627142">
        <ele>339.48000000000002</ele>
        <time>2025-05-04T10:20:44Z</time>
      </trkpt>
      <trkpt lat="39.626912986859679" lon="-8.672251962125301">
        <ele>339</ele>
        <time>2025-05-04T10:20:45Z</time>
      </trkpt>
      <trkpt lat="39.626822965219617" lon="-8.67269704118371">
        <ele>341.41000000000003</ele>
        <time>2025-05-04T10:20:50Z</time>
      </trkpt>
      <trkpt lat="39.626778038218617" lon="-8.672912959009409">
        <ele>343.81</ele>
        <time>2025-05-04T10:20:53Z</time>
      </trkpt>
      <trkpt lat="39.62676496244967" lon="-8.672975990921259">
        <ele>344.29000000000002</ele>
        <time>2025-05-04T10:20:54Z</time>
      </trkpt>
      <trkpt lat="39.626750964671373" lon="-8.67304103448987">
        <ele>345.25</ele>
        <time>2025-05-04T10:20:55Z</time>
      </trkpt>
      <trkpt lat="39.626735961064696" lon="-8.673114040866494">
        <ele>346.20999999999998</ele>
        <time>2025-05-04T10:20:56Z</time>
      </trkpt>
      <trkpt lat="39.62672003544867" lon="-8.673201967030764">
        <ele>346.69</ele>
        <time>2025-05-04T10:20:57Z</time>
      </trkpt>
      <trkpt lat="39.626715006306767" lon="-8.673291988670826">
        <ele>347.17000000000002</ele>
        <time>2025-05-04T10:20:58Z</time>
      </trkpt>
      <trkpt lat="39.626716012135148" lon="-8.673790041357279">
        <ele>351.98000000000002</ele>
        <time>2025-05-04T10:21:04Z</time>
      </trkpt>
      <trkpt lat="39.626782983541489" lon="-8.674025991931558">
        <ele>353.89999999999998</ele>
        <time>2025-05-04T10:21:07Z</time>
      </trkpt>
      <trkpt lat="39.62680603377521" lon="-8.674104027450085">
        <ele>354.38</ele>
        <time>2025-05-04T10:21:08Z</time>
      </trkpt>
      <trkpt lat="39.627290004864335" lon="-8.674908019602299">
        <ele>358.70999999999998</ele>
        <time>2025-05-04T10:21:17Z</time>
      </trkpt>
      <trkpt lat="39.627632992342114" lon="-8.675372041761875">
        <ele>359.19</ele>
        <time>2025-05-04T10:21:21Z</time>
      </trkpt>
      <trkpt lat="39.630190981552005" lon="-8.678549034520984">
        <ele>356.79000000000002</ele>
        <time>2025-05-04T10:21:48Z</time>
      </trkpt>
      <trkpt lat="39.630373036488891" lon="-8.678775010630488">
        <ele>356.31</ele>
        <time>2025-05-04T10:21:51Z</time>
      </trkpt>
      <trkpt lat="39.630413018167019" lon="-8.678823038935661">
        <ele>356.31</ele>
        <time>2025-05-04T10:21:52Z</time>
      </trkpt>
      <trkpt lat="39.630451994016767" lon="-8.678870983421803">
        <ele>356.31</ele>
        <time>2025-05-04T10:21:53Z</time>
      </trkpt>
      <trkpt lat="39.630560958757997" lon="-8.679006015881896">
        <ele>355.82999999999998</ele>
        <time>2025-05-04T10:21:55Z</time>
      </trkpt>
      <trkpt lat="39.630579985678196" lon="-8.679029988124967">
        <ele>355.82999999999998</ele>
        <time>2025-05-04T10:21:56Z</time>
      </trkpt>
      <trkpt lat="39.63060999289155" lon="-8.679067958146334">
        <ele>355.82999999999998</ele>
        <time>2025-05-04T10:21:57Z</time>
      </trkpt>
      <trkpt lat="39.630642011761665" lon="-8.679108023643494">
        <ele>355.33999999999997</ele>
        <time>2025-05-04T10:21:58Z</time>
      </trkpt>
      <trkpt lat="39.630672018975019" lon="-8.67914498783648">
        <ele>354.86000000000001</ele>
        <time>2025-05-04T10:21:59Z</time>
      </trkpt>
      <trkpt lat="39.630699008703232" lon="-8.679180024191737">
        <ele>354.38</ele>
        <time>2025-05-04T10:22:00Z</time>
      </trkpt>
      <trkpt lat="39.630732033401728" lon="-8.679221011698246">
        <ele>354.38</ele>
        <time>2025-05-04T10:22:01Z</time>
      </trkpt>
      <trkpt lat="39.630760028958321" lon="-8.679255964234471">
        <ele>354.38</ele>
        <time>2025-05-04T10:22:02Z</time>
      </trkpt>
      <trkpt lat="39.630782995373011" lon="-8.679284965619445">
        <ele>354.38</ele>
        <time>2025-05-04T10:22:03Z</time>
      </trkpt>
      <trkpt lat="39.630805961787701" lon="-8.679313967004418">
        <ele>353.89999999999998</ele>
        <time>2025-05-04T10:22:04Z</time>
      </trkpt>
      <trkpt lat="39.630829012021422" lon="-8.679342968389392">
        <ele>353.42000000000002</ele>
        <time>2025-05-04T10:22:05Z</time>
      </trkpt>
      <trkpt lat="39.630865976214409" lon="-8.679389990866184">
        <ele>352.94</ele>
        <time>2025-05-04T10:22:07Z</time>
      </trkpt>
      <trkpt lat="39.630911992862821" lon="-8.679447993636131">
        <ele>351.98000000000002</ele>
        <time>2025-05-04T10:22:17Z</time>
      </trkpt>
      <trkpt lat="39.631140986457467" lon="-8.679735995829105">
        <ele>351.5</ele>
        <time>2025-05-04T10:22:31Z</time>
      </trkpt>
      <trkpt lat="39.631493026390672" lon="-8.68013103492558">
        <ele>351.01999999999998</ele>
        <time>2025-05-04T10:22:41Z</time>
      </trkpt>
      <trkpt lat="39.631529990583658" lon="-8.680167999118567">
        <ele>351.01999999999998</ele>
        <time>2025-05-04T10:22:42Z</time>
      </trkpt>
      <trkpt lat="39.631597967818379" lon="-8.680247040465474">
        <ele>351.01999999999998</ele>
        <time>2025-05-04T10:22:44Z</time>
      </trkpt>
      <trkpt lat="39.631634010002017" lon="-8.680288027971983">
        <ele>351.01999999999998</ele>
        <time>2025-05-04T10:22:45Z</time>
      </trkpt>
      <trkpt lat="39.631668962538242" lon="-8.680329015478492">
        <ele>350.54000000000002</ele>
        <time>2025-05-04T10:22:46Z</time>
      </trkpt>
      <trkpt lat="39.631691006943583" lon="-8.680353993549943">
        <ele>350.54000000000002</ele>
        <time>2025-05-04T10:22:47Z</time>
      </trkpt>
      <trkpt lat="39.631713973358274" lon="-8.680379977449775">
        <ele>350.54000000000002</ele>
        <time>2025-05-04T10:22:48Z</time>
      </trkpt>
      <trkpt lat="39.631749009713531" lon="-8.680420964956284">
        <ele>350.54000000000002</ele>
        <time>2025-05-04T10:22:49Z</time>
      </trkpt>
      <trkpt lat="39.631786979734898" lon="-8.680463964119554">
        <ele>350.54000000000002</ele>
        <time>2025-05-04T10:22:50Z</time>
      </trkpt>
      <trkpt lat="39.632013039663434" lon="-8.680725982412696">
        <ele>350.54000000000002</ele>
        <time>2025-05-04T10:22:55Z</time>
      </trkpt>
      <trkpt lat="39.632116975262761" lon="-8.680845005437732">
        <ele>350.06</ele>
        <time>2025-05-04T10:22:57Z</time>
      </trkpt>
      <trkpt lat="39.632315039634705" lon="-8.681076010689139">
        <ele>349.10000000000002</ele>
        <time>2025-05-04T10:23:01Z</time>
      </trkpt>
      <trkpt lat="39.632366001605988" lon="-8.681139964610338">
        <ele>348.62</ele>
        <time>2025-05-04T10:23:02Z</time>
      </trkpt>
      <trkpt lat="39.632415035739541" lon="-8.68120601400733">
        <ele>348.13</ele>
        <time>2025-05-04T10:23:03Z</time>
      </trkpt>
      <trkpt lat="39.632504973560572" lon="-8.681331994011998">
        <ele>347.64999999999998</ele>
        <time>2025-05-04T10:23:05Z</time>
      </trkpt>
      <trkpt lat="39.632546966895461" lon="-8.681387985125184">
        <ele>347.64999999999998</ele>
        <time>2025-05-04T10:23:06Z</time>
      </trkpt>
      <trkpt lat="39.632584014907479" lon="-8.681437019258738">
        <ele>347.64999999999998</ele>
        <time>2025-05-04T10:23:07Z</time>
      </trkpt>
      <trkpt lat="39.632622990757227" lon="-8.681487981230021">
        <ele>347.64999999999998</ele>
        <time>2025-05-04T10:23:08Z</time>
      </trkpt>
      <trkpt lat="39.632664984092116" lon="-8.681542966514826">
        <ele>347.64999999999998</ele>
        <time>2025-05-04T10:23:09Z</time>
      </trkpt>
      <trkpt lat="39.632709994912148" lon="-8.681602980941534">
        <ele>347.64999999999998</ele>
        <time>2025-05-04T10:23:10Z</time>
      </trkpt>
      <trkpt lat="39.632760034874082" lon="-8.681668024510145">
        <ele>347.64999999999998</ele>
        <time>2025-05-04T10:23:11Z</time>
      </trkpt>
      <trkpt lat="39.632813008502126" lon="-8.681737007573247">
        <ele>347.64999999999998</ele>
        <time>2025-05-04T10:23:12Z</time>
      </trkpt>
      <trkpt lat="39.63286698795855" lon="-8.68180800229311">
        <ele>347.64999999999998</ele>
        <time>2025-05-04T10:23:13Z</time>
      </trkpt>
      <trkpt lat="39.632923984900117" lon="-8.681881008669734">
        <ele>348.13</ele>
        <time>2025-05-04T10:23:14Z</time>
      </trkpt>
      <trkpt lat="39.632983999326825" lon="-8.6819570325315">
        <ele>348.13</ele>
        <time>2025-05-04T10:23:15Z</time>
      </trkpt>
      <trkpt lat="39.633046025410295" lon="-8.682034984230995">
        <ele>348.62</ele>
        <time>2025-05-04T10:23:16Z</time>
      </trkpt>
      <trkpt lat="39.633100004866719" lon="-8.682104973122478">
        <ele>348.62</ele>
        <time>2025-05-04T10:23:17Z</time>
      </trkpt>
      <trkpt lat="39.633146021515131" lon="-8.682160964235663">
        <ele>348.62</ele>
        <time>2025-05-04T10:23:18Z</time>
      </trkpt>
      <trkpt lat="39.633192960172892" lon="-8.682219972833991">
        <ele>349.10000000000002</ele>
        <time>2025-05-04T10:23:19Z</time>
      </trkpt>
      <trkpt lat="39.633235959336162" lon="-8.682272024452686">
        <ele>349.10000000000002</ele>
        <time>2025-05-04T10:23:20Z</time>
      </trkpt>
      <trkpt lat="39.633278036490083" lon="-8.68232499808073">
        <ele>349.10000000000002</ele>
        <time>2025-05-04T10:23:21Z</time>
      </trkpt>
      <trkpt lat="39.633320029824972" lon="-8.682376965880394">
        <ele>349.10000000000002</ele>
        <time>2025-05-04T10:23:22Z</time>
      </trkpt>
      <trkpt lat="39.63335900567472" lon="-8.682426000013948">
        <ele>349.57999999999998</ele>
        <time>2025-05-04T10:23:23Z</time>
      </trkpt>
      <trkpt lat="39.633392030373216" lon="-8.682466987520456">
        <ele>349.10000000000002</ele>
        <time>2025-05-04T10:23:24Z</time>
      </trkpt>
      <trkpt lat="39.633422959595919" lon="-8.682504035532475">
        <ele>349.57999999999998</ele>
        <time>2025-05-04T10:23:25Z</time>
      </trkpt>
      <trkpt lat="39.633452966809273" lon="-8.682542005553842">
        <ele>349.57999999999998</ele>
        <time>2025-05-04T10:23:26Z</time>
      </trkpt>
      <trkpt lat="39.633481968194246" lon="-8.682577041909099">
        <ele>349.57999999999998</ele>
        <time>2025-05-04T10:23:27Z</time>
      </trkpt>
      <trkpt lat="39.63351096957922" lon="-8.682614006102085">
        <ele>349.57999999999998</ele>
        <time>2025-05-04T10:23:28Z</time>
      </trkpt>
      <trkpt lat="39.633578024804592" lon="-8.682696986943483">
        <ele>349.10000000000002</ele>
        <time>2025-05-04T10:23:31Z</time>
      </trkpt>
      <trkpt lat="39.633582970127463" lon="-8.682703021913767">
        <ele>345.73000000000002</ele>
        <time>2025-05-04T10:23:37Z</time>
      </trkpt>
      <trkpt lat="39.633558997884393" lon="-8.682674020528793">
        <ele>346.20999999999998</ele>
        <time>2025-05-04T10:23:38Z</time>
      </trkpt>
      <trkpt lat="39.633533013984561" lon="-8.682640995830298">
        <ele>346.20999999999998</ele>
        <time>2025-05-04T10:23:39Z</time>
      </trkpt>
      <trkpt lat="39.63348900899291" lon="-8.682586010545492">
        <ele>344.76999999999998</ele>
        <time>2025-05-04T10:23:47Z</time>
      </trkpt>
      <trkpt lat="39.633792014792562" lon="-8.68215199559927">
        <ele>299.58999999999997</ele>
        <time>2025-05-04T10:28:17Z</time>
      </trkpt>
      <trkpt lat="39.633422959595919" lon="-8.682533958926797">
        <ele>328.43000000000001</ele>
        <time>2025-05-04T10:28:42Z</time>
      </trkpt>
      <trkpt lat="39.633330004289746" lon="-8.68262498639524">
        <ele>334.19999999999999</ele>
        <time>2025-05-04T10:29:12Z</time>
      </trkpt>
      <trkpt lat="39.633341990411282" lon="-8.682610988616943">
        <ele>338.51999999999998</ele>
        <time>2025-05-04T10:29:41Z</time>
      </trkpt>
      <trkpt lat="39.633265966549516" lon="-8.682605037465692">
        <ele>339.95999999999998</ele>
        <time>2025-05-04T10:29:46Z</time>
      </trkpt>
      <trkpt lat="39.633245011791587" lon="-8.682530019432306">
        <ele>345.25</ele>
        <time>2025-05-04T10:29:51Z</time>
      </trkpt>
      <trkpt lat="39.633356994017959" lon="-8.682422982528806">
        <ele>342.85000000000002</ele>
        <time>2025-05-04T10:30:08Z</time>
      </trkpt>
      <trkpt lat="39.633393036201596" lon="-8.682467993348837">
        <ele>341.88999999999999</ele>
        <time>2025-05-04T10:30:10Z</time>
      </trkpt>
      <trkpt lat="39.633419020101428" lon="-8.682500012218952">
        <ele>341.41000000000003</ele>
        <time>2025-05-04T10:30:11Z</time>
      </trkpt>
      <trkpt lat="39.633450033143163" lon="-8.682537982240319">
        <ele>340.92000000000002</ele>
        <time>2025-05-04T10:30:12Z</time>
      </trkpt>
      <trkpt lat="39.633522033691406" lon="-8.682628003880382">
        <ele>339.95999999999998</ele>
        <time>2025-05-04T10:30:14Z</time>
      </trkpt>
      <trkpt lat="39.633565032854676" lon="-8.682680977508426">
        <ele>339.48000000000002</ele>
        <time>2025-05-04T10:30:15Z</time>
      </trkpt>
      <trkpt lat="39.633750021457672" lon="-8.682909971103072">
        <ele>338.04000000000002</ele>
        <time>2025-05-04T10:30:19Z</time>
      </trkpt>
      <trkpt lat="39.633794026449323" lon="-8.682965040206909">
        <ele>337.56</ele>
        <time>2025-05-04T10:30:20Z</time>
      </trkpt>
      <trkpt lat="39.633839037269354" lon="-8.683020025491715">
        <ele>337.07999999999998</ele>
        <time>2025-05-04T10:30:21Z</time>
      </trkpt>
      <trkpt lat="39.633880024775863" lon="-8.683070987462997">
        <ele>336.60000000000002</ele>
        <time>2025-05-04T10:30:22Z</time>
      </trkpt>
      <trkpt lat="39.63391799479723" lon="-8.68311800993979">
        <ele>336.12</ele>
        <time>2025-05-04T10:30:23Z</time>
      </trkpt>
      <trkpt lat="39.633955964818597" lon="-8.683165032416582">
        <ele>336.12</ele>
        <time>2025-05-04T10:30:24Z</time>
      </trkpt>
      <trkpt lat="39.633994018658996" lon="-8.683211971074343">
        <ele>335.63999999999999</ele>
        <time>2025-05-04T10:30:25Z</time>
      </trkpt>
      <trkpt lat="39.63402503170073" lon="-8.683251030743122">
        <ele>335.16000000000003</ele>
        <time>2025-05-04T10:30:26Z</time>
      </trkpt>
      <trkpt lat="39.634053027257323" lon="-8.683285983279347">
        <ele>335.16000000000003</ele>
        <time>2025-05-04T10:30:27Z</time>
      </trkpt>
      <trkpt lat="39.634080016985536" lon="-8.683319007977843">
        <ele>334.68000000000001</ele>
        <time>2025-05-04T10:30:28Z</time>
      </trkpt>
      <trkpt lat="39.634098038077354" lon="-8.683343986049295">
        <ele>334.68000000000001</ele>
        <time>2025-05-04T10:30:29Z</time>
      </trkpt>
      <trkpt lat="39.63411396369338" lon="-8.683367036283016">
        <ele>334.68000000000001</ele>
        <time>2025-05-04T10:30:39Z</time>
      </trkpt>
      <trkpt lat="39.634358966723084" lon="-8.683491004630923">
        <ele>337.07999999999998</ele>
        <time>2025-05-04T10:31:01Z</time>
      </trkpt>
      <trkpt lat="39.634401965886354" lon="-8.683468960225582">
        <ele>337.56</ele>
        <time>2025-05-04T10:31:02Z</time>
      </trkpt>
      <trkpt lat="39.634516965597868" lon="-8.683449011296034">
        <ele>338.04000000000002</ele>
        <time>2025-05-04T10:31:04Z</time>
      </trkpt>
      <trkpt lat="39.634568011388183" lon="-8.683459991589189">
        <ele>338.51999999999998</ele>
        <time>2025-05-04T10:31:05Z</time>
      </trkpt>
      <trkpt lat="39.634613022208214" lon="-8.683468960225582">
        <ele>339</ele>
        <time>2025-05-04T10:31:06Z</time>
      </trkpt>
      <trkpt lat="39.634663984179497" lon="-8.683515982702375">
        <ele>339.48000000000002</ele>
        <time>2025-05-04T10:31:07Z</time>
      </trkpt>
      <trkpt lat="39.634707989171147" lon="-8.683560993522406">
        <ele>339.48000000000002</ele>
        <time>2025-05-04T10:31:08Z</time>
      </trkpt>
      <trkpt lat="39.634757023304701" lon="-8.683610027655959">
        <ele>339.48000000000002</ele>
        <time>2025-05-04T10:31:09Z</time>
      </trkpt>
      <trkpt lat="39.634782001376152" lon="-8.683689991012216">
        <ele>339.95999999999998</ele>
        <time>2025-05-04T10:31:10Z</time>
      </trkpt>
      <trkpt lat="39.634797004982829" lon="-8.683761991560459">
        <ele>340.44</ele>
        <time>2025-05-04T10:31:11Z</time>
      </trkpt>
      <trkpt lat="39.634812008589506" lon="-8.683828040957451">
        <ele>340.44</ele>
        <time>2025-05-04T10:31:12Z</time>
      </trkpt>
      <trkpt lat="39.634892977774143" lon="-8.683919990435243">
        <ele>340.44</ele>
        <time>2025-05-04T10:31:13Z</time>
      </trkpt>
      <trkpt lat="39.634960032999516" lon="-8.683919990435243">
        <ele>340.44</ele>
        <time>2025-05-04T10:31:14Z</time>
      </trkpt>
      <trkpt lat="39.634967995807528" lon="-8.683922002092004">
        <ele>340.44</ele>
        <time>2025-05-04T10:31:15Z</time>
      </trkpt>
      <trkpt lat="39.635010994970798" lon="-8.683929964900017">
        <ele>340.44</ele>
        <time>2025-05-04T10:31:16Z</time>
      </trkpt>
      <trkpt lat="39.635052988305688" lon="-8.683939017355442">
        <ele>340.44</ele>
        <time>2025-05-04T10:31:17Z</time>
      </trkpt>
      <trkpt lat="39.635604014620185" lon="-8.684046976268292">
        <ele>341.88999999999999</ele>
        <time>2025-05-04T10:31:26Z</time>
      </trkpt>
      <trkpt lat="39.63645201176405" lon="-8.684195000678301">
        <ele>342.85000000000002</ele>
        <time>2025-05-04T10:31:38Z</time>
      </trkpt>
      <trkpt lat="39.637576024979353" lon="-8.684402033686638">
        <ele>344.29000000000002</ele>
        <time>2025-05-04T10:31:51Z</time>
      </trkpt>
      <trkpt lat="39.638189999386668" lon="-8.684522984549403">
        <ele>345.73000000000002</ele>
        <time>2025-05-04T10:31:58Z</time>
      </trkpt>
      <trkpt lat="39.638976976275444" lon="-8.684661034494638">
        <ele>348.62</ele>
        <time>2025-05-04T10:32:09Z</time>
      </trkpt>
      <trkpt lat="39.639767976477742" lon="-8.684806041419506">
        <ele>351.98000000000002</ele>
        <time>2025-05-04T10:32:18Z</time>
      </trkpt>
      <trkpt lat="39.640431990846992" lon="-8.684929003939033">
        <ele>355.33999999999997</ele>
        <time>2025-05-04T10:32:26Z</time>
      </trkpt>
      <trkpt lat="39.641672009602189" lon="-8.685148023068905">
        <ele>360.63</ele>
        <time>2025-05-04T10:32:40Z</time>
      </trkpt>
      <trkpt lat="39.642967013642192" lon="-8.68539403192699">
        <ele>363.51999999999998</ele>
        <time>2025-05-04T10:32:54Z</time>
      </trkpt>
      <trkpt lat="39.643647959455848" lon="-8.685527974739671">
        <ele>365.44</ele>
        <time>2025-05-04T10:33:04Z</time>
      </trkpt>
      <trkpt lat="39.643812999129295" lon="-8.685557981953025">
        <ele>365.92000000000002</ele>
        <time>2025-05-04T10:33:09Z</time>
      </trkpt>
      <trkpt lat="39.644447006285191" lon="-8.685663007199764">
        <ele>367.36000000000001</ele>
        <time>2025-05-04T10:33:19Z</time>
      </trkpt>
      <trkpt lat="39.645506981760263" lon="-8.685842966660857">
        <ele>369.27999999999997</ele>
        <time>2025-05-04T10:33:30Z</time>
      </trkpt>
      <trkpt lat="39.646392026916146" lon="-8.686024015769362">
        <ele>371.20999999999998</ele>
        <time>2025-05-04T10:33:39Z</time>
      </trkpt>
      <trkpt lat="39.647326022386551" lon="-8.686197018250823">
        <ele>376.49000000000001</ele>
        <time>2025-05-04T10:33:51Z</time>
      </trkpt>
      <trkpt lat="39.648751029744744" lon="-8.686450989916921">
        <ele>379.38</ele>
        <time>2025-05-04T10:34:04Z</time>
      </trkpt>
      <trkpt lat="39.650718010962009" lon="-8.686820967122912">
        <ele>387.55000000000001</ele>
        <time>2025-05-04T10:34:20Z</time>
      </trkpt>
      <trkpt lat="39.65168796479702" lon="-8.687000004574657">
        <ele>387.55000000000001</ele>
        <time>2025-05-04T10:34:29Z</time>
      </trkpt>
      <trkpt lat="39.652539985254407" lon="-8.687163032591343">
        <ele>386.11000000000001</ele>
        <time>2025-05-04T10:34:38Z</time>
      </trkpt>
      <trkpt lat="39.653626028448343" lon="-8.68737299926579">
        <ele>382.74000000000001</ele>
        <time>2025-05-04T10:34:49Z</time>
      </trkpt>
      <trkpt lat="39.653724012896419" lon="-8.687388002872467">
        <ele>382.25999999999999</ele>
        <time>2025-05-04T10:34:50Z</time>
      </trkpt>
      <trkpt lat="39.654434965923429" lon="-8.687512977048755">
        <ele>380.33999999999997</ele>
        <time>2025-05-04T10:34:57Z</time>
      </trkpt>
      <trkpt lat="39.654539991170168" lon="-8.687529992312193">
        <ele>379.86000000000001</ele>
        <time>2025-05-04T10:34:58Z</time>
      </trkpt>
      <trkpt lat="39.654649961739779" lon="-8.687549019232392">
        <ele>379.38</ele>
        <time>2025-05-04T10:34:59Z</time>
      </trkpt>
      <trkpt lat="39.656270015984774" lon="-8.687940035015345">
        <ele>375.52999999999997</ele>
        <time>2025-05-04T10:35:14Z</time>
      </trkpt>
      <trkpt lat="39.657180039212108" lon="-8.688214039430022">
        <ele>375.52999999999997</ele>
        <time>2025-05-04T10:35:24Z</time>
      </trkpt>
      <trkpt lat="39.657947989180684" lon="-8.688434986397624">
        <ele>376.00999999999999</ele>
        <time>2025-05-04T10:35:35Z</time>
      </trkpt>
      <trkpt lat="39.658393990248442" lon="-8.688558032736182">
        <ele>376.49000000000001</ele>
        <time>2025-05-04T10:35:41Z</time>
      </trkpt>
      <trkpt lat="39.65873203240335" lon="-8.6886400077492">
        <ele>376.97000000000003</ele>
        <time>2025-05-04T10:35:47Z</time>
      </trkpt>
      <trkpt lat="39.659278029575944" lon="-8.688625004142523">
        <ele>378.42000000000002</ele>
        <time>2025-05-04T10:35:57Z</time>
      </trkpt>
      <trkpt lat="39.66017497703433" lon="-8.688531965017319">
        <ele>377.94</ele>
        <time>2025-05-04T10:36:08Z</time>
      </trkpt>
      <trkpt lat="39.661192037165165" lon="-8.688407996669412">
        <ele>376.49000000000001</ele>
        <time>2025-05-04T10:36:19Z</time>
      </trkpt>
      <trkpt lat="39.6617859788239" lon="-8.688299031928182">
        <ele>375.05000000000001</ele>
        <time>2025-05-04T10:36:26Z</time>
      </trkpt>
      <trkpt lat="39.661928974092007" lon="-8.688227031379938">
        <ele>374.56999999999999</ele>
        <time>2025-05-04T10:36:28Z</time>
      </trkpt>
      <trkpt lat="39.662568010389805" lon="-8.687682962045074">
        <ele>370.73000000000002</ele>
        <time>2025-05-04T10:36:36Z</time>
      </trkpt>
      <trkpt lat="39.663101015612483" lon="-8.687172001227737">
        <ele>366.88</ele>
        <time>2025-05-04T10:36:44Z</time>
      </trkpt>
      <trkpt lat="39.663131022825837" lon="-8.687144005671144">
        <ele>366.88</ele>
        <time>2025-05-04T10:36:45Z</time>
      </trkpt>
      <trkpt lat="39.663682971149683" lon="-8.686640001833439">
        <ele>363.04000000000002</ele>
        <time>2025-05-04T10:36:55Z</time>
      </trkpt>
      <trkpt lat="39.664372969418764" lon="-8.685986967757344">
        <ele>358.70999999999998</ele>
        <time>2025-05-04T10:37:04Z</time>
      </trkpt>
      <trkpt lat="39.665378965437412" lon="-8.685186998918653">
        <ele>353.42000000000002</ele>
        <time>2025-05-04T10:37:15Z</time>
      </trkpt>
      <trkpt lat="39.666507001966238" lon="-8.684542011469603">
        <ele>347.17000000000002</ele>
        <time>2025-05-04T10:37:26Z</time>
      </trkpt>
      <trkpt lat="39.667666973546147" lon="-8.684117970988154">
        <ele>340.44</ele>
        <time>2025-05-04T10:37:36Z</time>
      </trkpt>
      <trkpt lat="39.66908703558147" lon="-8.684098022058606">
        <ele>338.51999999999998</ele>
        <time>2025-05-04T10:37:48Z</time>
      </trkpt>
      <trkpt lat="39.670322025194764" lon="-8.684005988761783">
        <ele>340.92000000000002</ele>
        <time>2025-05-04T10:37:59Z</time>
      </trkpt>
      <trkpt lat="39.670957960188389" lon="-8.683808008208871">
        <ele>340.92000000000002</ele>
        <time>2025-05-04T10:38:07Z</time>
      </trkpt>
      <trkpt lat="39.671549974009395" lon="-8.683626037091017">
        <ele>341.41000000000003</ele>
        <time>2025-05-04T10:38:17Z</time>
      </trkpt>
      <trkpt lat="39.671983988955617" lon="-8.683675993233919">
        <ele>340.92000000000002</ele>
        <time>2025-05-04T10:38:24Z</time>
      </trkpt>
      <trkpt lat="39.672027993947268" lon="-8.683684039860964">
        <ele>340.44</ele>
        <time>2025-05-04T10:38:25Z</time>
      </trkpt>
      <trkpt lat="39.672124972566962" lon="-8.683039974421263">
        <ele>340.44</ele>
        <time>2025-05-04T10:38:27Z</time>
      </trkpt>
      <trkpt lat="39.672124972566962" lon="-8.683039974421263">
        <ele>339.95999999999998</ele>
        <time>2025-05-04T10:38:28Z</time>
      </trkpt>
      <trkpt lat="39.672124972566962" lon="-8.683039974421263">
        <ele>339.48000000000002</ele>
        <time>2025-05-04T10:38:29Z</time>
      </trkpt>
      <trkpt lat="39.672124972566962" lon="-8.683039974421263">
        <ele>339.48000000000002</ele>
        <time>2025-05-04T10:38:30Z</time>
      </trkpt>
      <trkpt lat="39.672099994495511" lon="-8.682955987751484">
        <ele>339</ele>
        <time>2025-05-04T10:38:31Z</time>
      </trkpt>
      <trkpt lat="39.672071998938918" lon="-8.682864960283041">
        <ele>338.51999999999998</ele>
        <time>2025-05-04T10:38:32Z</time>
      </trkpt>
      <trkpt lat="39.671803023666143" lon="-8.681730972602963">
        <ele>335.63999999999999</ele>
        <time>2025-05-04T10:38:42Z</time>
      </trkpt>
      <trkpt lat="39.671354005113244" lon="-8.68019599467516">
        <ele>327.94999999999999</ele>
        <time>2025-05-04T10:38:54Z</time>
      </trkpt>
      <trkpt lat="39.671332966536283" lon="-8.680072026327252">
        <ele>327.47000000000003</ele>
        <time>2025-05-04T10:38:55Z</time>
      </trkpt>
      <trkpt lat="39.671339001506567" lon="-8.679951997473836">
        <ele>326.5</ele>
        <time>2025-05-04T10:38:56Z</time>
      </trkpt>
      <trkpt lat="39.671348975971341" lon="-8.679824005812407">
        <ele>326.01999999999998</ele>
        <time>2025-05-04T10:38:57Z</time>
      </trkpt>
      <trkpt lat="39.671369008719921" lon="-8.679708000272512">
        <ele>325.06</ele>
        <time>2025-05-04T10:38:58Z</time>
      </trkpt>
      <trkpt lat="39.671397004276514" lon="-8.679584031924605">
        <ele>324.10000000000002</ele>
        <time>2025-05-04T10:38:59Z</time>
      </trkpt>
      <trkpt lat="39.671429023146629" lon="-8.679472971707583">
        <ele>323.13999999999999</ele>
        <time>2025-05-04T10:39:00Z</time>
      </trkpt>
      <trkpt lat="39.671480990946293" lon="-8.679365012794733">
        <ele>322.66000000000003</ele>
        <time>2025-05-04T10:39:01Z</time>
      </trkpt>
      <trkpt lat="39.671532036736608" lon="-8.679258981719613">
        <ele>321.69999999999999</ele>
        <time>2025-05-04T10:39:02Z</time>
      </trkpt>
      <trkpt lat="39.671580987051129" lon="-8.679154962301254">
        <ele>321.22000000000003</ele>
        <time>2025-05-04T10:39:03Z</time>
      </trkpt>
      <trkpt lat="39.672214994207025" lon="-8.678060034289956">
        <ele>317.37</ele>
        <time>2025-05-04T10:39:14Z</time>
      </trkpt>
      <trkpt lat="39.672266962006688" lon="-8.677968000993133">
        <ele>316.88999999999999</ele>
        <time>2025-05-04T10:39:15Z</time>
      </trkpt>
      <trkpt lat="39.672324964776635" lon="-8.677888037636876">
        <ele>316.41000000000003</ele>
        <time>2025-05-04T10:39:16Z</time>
      </trkpt>
      <trkpt lat="39.672318007797003" lon="-8.677589977160096">
        <ele>316.41000000000003</ele>
        <time>2025-05-04T10:39:17Z</time>
      </trkpt>
      <trkpt lat="39.672318007797003" lon="-8.677587965503335">
        <ele>316.41000000000003</ele>
        <time>2025-05-04T10:39:18Z</time>
      </trkpt>
      <trkpt lat="39.672354971989989" lon="-8.677387973293662">
        <ele>316.41000000000003</ele>
        <time>2025-05-04T10:39:19Z</time>
      </trkpt>
      <trkpt lat="39.672294035553932" lon="-8.677292000502348">
        <ele>316.41000000000003</ele>
        <time>2025-05-04T10:39:20Z</time>
      </trkpt>
      <trkpt lat="39.672225974500179" lon="-8.677184963598847">
        <ele>316.88999999999999</ele>
        <time>2025-05-04T10:39:21Z</time>
      </trkpt>
      <trkpt lat="39.672150034457445" lon="-8.677066024392843">
        <ele>317.37</ele>
        <time>2025-05-04T10:39:22Z</time>
      </trkpt>
      <trkpt lat="39.671750972047448" lon="-8.676628991961479">
        <ele>319.30000000000001</ele>
        <time>2025-05-04T10:39:26Z</time>
      </trkpt>
      <trkpt lat="39.671633960679173" lon="-8.676534024998546">
        <ele>319.77999999999997</ele>
        <time>2025-05-04T10:39:27Z</time>
      </trkpt>
      <trkpt lat="39.671519966796041" lon="-8.676441991701722">
        <ele>320.25999999999999</ele>
        <time>2025-05-04T10:39:28Z</time>
      </trkpt>
      <trkpt lat="39.671398010104895" lon="-8.67639597505331">
        <ele>320.25999999999999</ele>
        <time>2025-05-04T10:39:29Z</time>
      </trkpt>
      <trkpt lat="39.671268006786704" lon="-8.676374014467001">
        <ele>320.25999999999999</ele>
        <time>2025-05-04T10:39:30Z</time>
      </trkpt>
      <trkpt lat="39.671133980154991" lon="-8.676384994760156">
        <ele>320.74000000000001</ele>
        <time>2025-05-04T10:39:31Z</time>
      </trkpt>
      <trkpt lat="39.670997019857168" lon="-8.676420031115413">
        <ele>320.74000000000001</ele>
        <time>2025-05-04T10:39:32Z</time>
      </trkpt>
      <trkpt lat="39.670881014317274" lon="-8.676511980593205">
        <ele>321.22000000000003</ele>
        <time>2025-05-04T10:39:33Z</time>
      </trkpt>
      <trkpt lat="39.670770037919283" lon="-8.676622034981847">
        <ele>321.22000000000003</ele>
        <time>2025-05-04T10:39:34Z</time>
      </trkpt>
      <trkpt lat="39.670685967430472" lon="-8.676757989451289">
        <ele>321.22000000000003</ele>
        <time>2025-05-04T10:39:35Z</time>
      </trkpt>
      <trkpt lat="39.670610027387738" lon="-8.676916994154453">
        <ele>321.22000000000003</ele>
        <time>2025-05-04T10:39:36Z</time>
      </trkpt>
      <trkpt lat="39.670570967718959" lon="-8.677098965272307">
        <ele>320.74000000000001</ele>
        <time>2025-05-04T10:39:37Z</time>
      </trkpt>
      <trkpt lat="39.67052998021245" lon="-8.677286971360445">
        <ele>320.74000000000001</ele>
        <time>2025-05-04T10:39:38Z</time>
      </trkpt>
      <trkpt lat="39.670131001621485" lon="-8.679527034983039">
        <ele>321.22000000000003</ele>
        <time>2025-05-04T10:39:48Z</time>
      </trkpt>
      <trkpt lat="39.669749038293958" lon="-8.68296998552978">
        <ele>326.99000000000001</ele>
        <time>2025-05-04T10:40:01Z</time>
      </trkpt>
      <trkpt lat="39.669452989473939" lon="-8.685851013287902">
        <ele>332.26999999999998</ele>
        <time>2025-05-04T10:40:11Z</time>
      </trkpt>
      <trkpt lat="39.669209998100996" lon="-8.688161987811327">
        <ele>334.68000000000001</ele>
        <time>2025-05-04T10:40:19Z</time>
      </trkpt>
      <trkpt lat="39.668827028945088" lon="-8.69162798859179">
        <ele>341.88999999999999</ele>
        <time>2025-05-04T10:40:31Z</time>
      </trkpt>
      <trkpt lat="39.668206013739109" lon="-8.694408014416695">
        <ele>347.64999999999998</ele>
        <time>2025-05-04T10:40:41Z</time>
      </trkpt>
      <trkpt lat="39.66722197830677" lon="-8.696311041712761">
        <ele>351.98000000000002</ele>
        <time>2025-05-04T10:40:49Z</time>
      </trkpt>
      <trkpt lat="39.665881041437387" lon="-8.697773013263941">
        <ele>354.86000000000001</ele>
        <time>2025-05-04T10:40:57Z</time>
      </trkpt>
      <trkpt lat="39.663709960877895" lon="-8.699609991163015">
        <ele>360.14999999999998</ele>
        <time>2025-05-04T10:41:09Z</time>
      </trkpt>
      <trkpt lat="39.662570022046566" lon="-8.700912036001682">
        <ele>364</ele>
        <time>2025-05-04T10:41:17Z</time>
      </trkpt>
      <trkpt lat="39.661490013822913" lon="-8.702579028904438">
        <ele>370.73000000000002</ele>
        <time>2025-05-04T10:41:26Z</time>
      </trkpt>
      <trkpt lat="39.659782033413649" lon="-8.705416973680258">
        <ele>378.89999999999998</ele>
        <time>2025-05-04T10:41:39Z</time>
      </trkpt>
      <trkpt lat="39.657800970599055" lon="-8.708705026656389">
        <ele>383.69999999999999</ele>
        <time>2025-05-04T10:41:54Z</time>
      </trkpt>
      <trkpt lat="39.656279990449548" lon="-8.711395030841231">
        <ele>386.58999999999997</ele>
        <time>2025-05-04T10:42:06Z</time>
      </trkpt>
      <trkpt lat="39.655538024380803" lon="-8.713058000430465">
        <ele>388.02999999999997</ele>
        <time>2025-05-04T10:42:13Z</time>
      </trkpt>
      <trkpt lat="39.654841991141438" lon="-8.715685978531838">
        <ele>388.50999999999999</ele>
        <time>2025-05-04T10:42:23Z</time>
      </trkpt>
      <trkpt lat="39.654644010588527" lon="-8.718162998557091">
        <ele>390.43000000000001</ele>
        <time>2025-05-04T10:42:32Z</time>
      </trkpt>
      <trkpt lat="39.65493100695312" lon="-8.720906982198358">
        <ele>395.24000000000001</ele>
        <time>2025-05-04T10:42:42Z</time>
      </trkpt>
      <trkpt lat="39.655569959431887" lon="-8.723270008340478">
        <ele>401.00999999999999</ele>
        <time>2025-05-04T10:42:51Z</time>
      </trkpt>
      <trkpt lat="39.656560029834509" lon="-8.725725989788771">
        <ele>405.32999999999998</ele>
        <time>2025-05-04T10:43:01Z</time>
      </trkpt>
      <trkpt lat="39.656872004270554" lon="-8.726452030241489">
        <ele>406.29000000000002</ele>
        <time>2025-05-04T10:43:04Z</time>
      </trkpt>
      <trkpt lat="39.656977029517293" lon="-8.726695021614432">
        <ele>406.29000000000002</ele>
        <time>2025-05-04T10:43:05Z</time>
      </trkpt>
      <trkpt lat="39.657758977264166" lon="-8.729284023866057">
        <ele>404.85000000000002</ele>
        <time>2025-05-04T10:43:15Z</time>
      </trkpt>
      <trkpt lat="39.657931979745626" lon="-8.731486033648253">
        <ele>401.49000000000001</ele>
        <time>2025-05-04T10:43:23Z</time>
      </trkpt>
      <trkpt lat="39.657668033614755" lon="-8.733406998217106">
        <ele>396.68000000000001</ele>
        <time>2025-05-04T10:43:30Z</time>
      </trkpt>
      <trkpt lat="39.656912991777062" lon="-8.736007986590266">
        <ele>385.63</ele>
        <time>2025-05-04T10:43:40Z</time>
      </trkpt>
      <trkpt lat="39.655970027670264" lon="-8.738917009904981">
        <ele>368.80000000000001</ele>
        <time>2025-05-04T10:43:51Z</time>
      </trkpt>
      <trkpt lat="39.654624983668327" lon="-8.743182979524136">
        <ele>346.20999999999998</ele>
        <time>2025-05-04T10:44:06Z</time>
      </trkpt>
      <trkpt lat="39.654364977031946" lon="-8.745278958231211">
        <ele>336.12</ele>
        <time>2025-05-04T10:44:13Z</time>
      </trkpt>
      <trkpt lat="39.654559018090367" lon="-8.746999008581042">
        <ele>325.54000000000002</ele>
        <time>2025-05-04T10:44:19Z</time>
      </trkpt>
      <trkpt lat="39.655331997200847" lon="-8.749041007831693">
        <ele>314.00999999999999</ele>
        <time>2025-05-04T10:44:27Z</time>
      </trkpt>
      <trkpt lat="39.657176015898585" lon="-8.752919984981418">
        <ele>289.00999999999999</ele>
        <time>2025-05-04T10:44:43Z</time>
      </trkpt>
      <trkpt lat="39.657650012522936" lon="-8.754805997014046">
        <ele>277</ele>
        <time>2025-05-04T10:44:50Z</time>
      </trkpt>
      <trkpt lat="39.657640960067511" lon="-8.757067015394568">
        <ele>266.42000000000002</ele>
        <time>2025-05-04T10:44:58Z</time>
      </trkpt>
      <trkpt lat="39.657425964251161" lon="-8.760461015626788">
        <ele>251.52000000000001</ele>
        <time>2025-05-04T10:45:10Z</time>
      </trkpt>
      <trkpt lat="39.657142991200089" lon="-8.763569025322795">
        <ele>236.62</ele>
        <time>2025-05-04T10:45:21Z</time>
      </trkpt>
      <trkpt lat="39.656535973772407" lon="-8.765055974945426">
        <ele>228.44999999999999</ele>
        <time>2025-05-04T10:45:27Z</time>
      </trkpt>
      <trkpt lat="39.655382037162781" lon="-8.766345027834177">
        <ele>218.84</ele>
        <time>2025-05-04T10:45:34Z</time>
      </trkpt>
      <trkpt lat="39.653453025966883" lon="-8.768216036260128">
        <ele>202.00999999999999</ele>
        <time>2025-05-04T10:45:45Z</time>
      </trkpt>
      <trkpt lat="39.652669988572598" lon="-8.769903983920813">
        <ele>191.44</ele>
        <time>2025-05-04T10:45:52Z</time>
      </trkpt>
      <trkpt lat="39.652469996362925" lon="-8.771285992115736">
        <ele>184.71000000000001</ele>
        <time>2025-05-04T10:45:57Z</time>
      </trkpt>
      <trkpt lat="39.652655990794301" lon="-8.773260014131665">
        <ele>174.62</ele>
        <time>2025-05-04T10:46:04Z</time>
      </trkpt>
      <trkpt lat="39.653650000691414" lon="-8.776420997455716">
        <ele>158.75</ele>
        <time>2025-05-04T10:46:16Z</time>
      </trkpt>
      <trkpt lat="39.654015032574534" lon="-8.778631975874305">
        <ele>153.94999999999999</ele>
        <time>2025-05-04T10:46:24Z</time>
      </trkpt>
      <trkpt lat="39.653872959315777" lon="-8.780870027840138">
        <ele>155.87</ele>
        <time>2025-05-04T10:46:32Z</time>
      </trkpt>
      <trkpt lat="39.653309024870396" lon="-8.78298201598227">
        <ele>162.12</ele>
        <time>2025-05-04T10:46:40Z</time>
      </trkpt>
      <trkpt lat="39.652278972789645" lon="-8.784798039123416">
        <ele>170.28999999999999</ele>
        <time>2025-05-04T10:46:48Z</time>
      </trkpt>
      <trkpt lat="39.650764027610421" lon="-8.78646201454103">
        <ele>178.46000000000001</ele>
        <time>2025-05-04T10:46:57Z</time>
      </trkpt>
      <trkpt lat="39.648525975644588" lon="-8.788737030699849">
        <ele>187.59</ele>
        <time>2025-05-04T10:47:10Z</time>
      </trkpt>
      <trkpt lat="39.647061992436647" lon="-8.789972020313144">
        <ele>189.52000000000001</ele>
        <time>2025-05-04T10:47:18Z</time>
      </trkpt>
      <trkpt lat="39.645586023107171" lon="-8.790531009435654">
        <ele>189.03999999999999</ele>
        <time>2025-05-04T10:47:25Z</time>
      </trkpt>
      <trkpt lat="39.64317798614502" lon="-8.790906015783548">
        <ele>184.22999999999999</ele>
        <time>2025-05-04T10:47:36Z</time>
      </trkpt>
      <trkpt lat="39.641827996820211" lon="-8.791764993220568">
        <ele>182.31</ele>
        <time>2025-05-04T10:47:43Z</time>
      </trkpt>
      <trkpt lat="39.640137031674385" lon="-8.793527036905289">
        <ele>186.15000000000001</ele>
        <time>2025-05-04T10:47:53Z</time>
      </trkpt>
      <trkpt lat="39.638773966580629" lon="-8.7944330368191">
        <ele>190</ele>
        <time>2025-05-04T10:48:00Z</time>
      </trkpt>
      <trkpt lat="39.637253992259502" lon="-8.794759009033442">
        <ele>193.36000000000001</ele>
        <time>2025-05-04T10:48:07Z</time>
      </trkpt>
      <trkpt lat="39.63486498221755" lon="-8.795221019536257">
        <ele>194.31999999999999</ele>
        <time>2025-05-04T10:48:18Z</time>
      </trkpt>
      <trkpt lat="39.633321035653353" lon="-8.796298010274768">
        <ele>192.88</ele>
        <time>2025-05-04T10:48:26Z</time>
      </trkpt>
      <trkpt lat="39.630951974540949" lon="-8.79836498759687">
        <ele>190</ele>
        <time>2025-05-04T10:48:39Z</time>
      </trkpt>
      <trkpt lat="39.627900961786509" lon="-8.801090028136969">
        <ele>198.16999999999999</ele>
        <time>2025-05-04T10:48:56Z</time>
      </trkpt>
      <trkpt lat="39.625421008095145" lon="-8.803497981280088">
        <ele>200.56999999999999</ele>
        <time>2025-05-04T10:49:10Z</time>
      </trkpt>
      <trkpt lat="39.623655024915934" lon="-8.806053036823869">
        <ele>196.72999999999999</ele>
        <time>2025-05-04T10:49:22Z</time>
      </trkpt>
      <trkpt lat="39.621788039803505" lon="-8.808843037113547">
        <ele>186.15000000000001</ele>
        <time>2025-05-04T10:49:35Z</time>
      </trkpt>
      <trkpt lat="39.620193969458342" lon="-8.810360999777913">
        <ele>174.13999999999999</ele>
        <time>2025-05-04T10:49:44Z</time>
      </trkpt>
      <trkpt lat="39.618277028203011" lon="-8.811766980215907">
        <ele>161.16</ele>
        <time>2025-05-04T10:49:54Z</time>
      </trkpt>
      <trkpt lat="39.616897031664848" lon="-8.813130967319012">
        <ele>151.06</ele>
        <time>2025-05-04T10:50:02Z</time>
      </trkpt>
      <trkpt lat="39.615852981805801" lon="-8.814929975196719">
        <ele>141.44999999999999</ele>
        <time>2025-05-04T10:50:10Z</time>
      </trkpt>
      <trkpt lat="39.615203971043229" lon="-8.81701497361064">
        <ele>134.24000000000001</ele>
        <time>2025-05-04T10:50:18Z</time>
      </trkpt>
      <trkpt lat="39.61460298858583" lon="-8.820333033800125">
        <ele>130.40000000000001</ele>
        <time>2025-05-04T10:50:30Z</time>
      </trkpt>
      <trkpt lat="39.614028995856643" lon="-8.823644975200295">
        <ele>133.75999999999999</ele>
        <time>2025-05-04T10:50:42Z</time>
      </trkpt>
      <trkpt lat="39.613342015072703" lon="-8.827504003420472">
        <ele>151.06</ele>
        <time>2025-05-04T10:50:56Z</time>
      </trkpt>
      <trkpt lat="39.612596025690436" lon="-8.831636030226946">
        <ele>167.41</ele>
        <time>2025-05-04T10:51:11Z</time>
      </trkpt>
      <trkpt lat="39.611957995221019" lon="-8.835540991276503">
        <ele>177.5</ele>
        <time>2025-05-04T10:51:25Z</time>
      </trkpt>
      <trkpt lat="39.612031001597643" lon="-8.837831011041999">
        <ele>181.34999999999999</ele>
        <time>2025-05-04T10:51:33Z</time>
      </trkpt>
      <trkpt lat="39.612565012648702" lon="-8.840019023045898">
        <ele>181.83000000000001</ele>
        <time>2025-05-04T10:51:41Z</time>
      </trkpt>
      <trkpt lat="39.613640997558832" lon="-8.842156995087862">
        <ele>177.97999999999999</ele>
        <time>2025-05-04T10:51:50Z</time>
      </trkpt>
      <trkpt lat="39.614884033799171" lon="-8.844834007322788">
        <ele>173.66</ele>
        <time>2025-05-04T10:52:01Z</time>
      </trkpt>
      <trkpt lat="39.615651983767748" lon="-8.84780203923583">
        <ele>168.84999999999999</ele>
        <time>2025-05-04T10:52:12Z</time>
      </trkpt>
      <trkpt lat="39.616795023903251" lon="-8.850193982943893">
        <ele>165</ele>
        <time>2025-05-04T10:52:22Z</time>
      </trkpt>
      <trkpt lat="39.618560001254082" lon="-8.853065958246589">
        <ele>171.25</ele>
        <time>2025-05-04T10:52:35Z</time>
      </trkpt>
      <trkpt lat="39.619057970121503" lon="-8.8545280136168">
        <ele>173.16999999999999</ele>
        <time>2025-05-04T10:52:42Z</time>
      </trkpt>
      <trkpt lat="39.619723996147513" lon="-8.856412013992667">
        <ele>182.31</ele>
        <time>2025-05-04T10:52:53Z</time>
      </trkpt>
      <trkpt lat="39.619789961725473" lon="-8.856662968173623">
        <ele>186.15000000000001</ele>
        <time>2025-05-04T10:52:58Z</time>
      </trkpt>
      <trkpt lat="39.61984503082931" lon="-8.856903025880456">
        <ele>190</ele>
        <time>2025-05-04T10:53:03Z</time>
      </trkpt>
      <trkpt lat="39.619939997792244" lon="-8.85699799284339">
        <ele>190</ele>
        <time>2025-05-04T10:53:04Z</time>
      </trkpt>
      <trkpt lat="39.619962964206934" lon="-8.857023976743221">
        <ele>190.47999999999999</ele>
        <time>2025-05-04T10:53:05Z</time>
      </trkpt>
      <trkpt lat="39.620013004168868" lon="-8.857080973684788">
        <ele>190.47999999999999</ele>
        <time>2025-05-04T10:53:06Z</time>
      </trkpt>
      <trkpt lat="39.620065977796912" lon="-8.857140988111496">
        <ele>190.47999999999999</ele>
        <time>2025-05-04T10:53:07Z</time>
      </trkpt>
      <trkpt lat="39.62010302580893" lon="-8.857248025014997">
        <ele>190.47999999999999</ele>
        <time>2025-05-04T10:53:08Z</time>
      </trkpt>
      <trkpt lat="39.620119035243988" lon="-8.857340980321169">
        <ele>190.47999999999999</ele>
        <time>2025-05-04T10:53:09Z</time>
      </trkpt>
      <trkpt lat="39.620133033022285" lon="-8.857426978647709">
        <ele>190.47999999999999</ele>
        <time>2025-05-04T10:53:10Z</time>
      </trkpt>
      <trkpt lat="39.620110988616943" lon="-8.857534015551209">
        <ele>190.47999999999999</ele>
        <time>2025-05-04T10:53:11Z</time>
      </trkpt>
      <trkpt lat="39.620076036080718" lon="-8.857633005827665">
        <ele>190</ele>
        <time>2025-05-04T10:53:12Z</time>
      </trkpt>
      <trkpt lat="39.620037982240319" lon="-8.857737025246024">
        <ele>190.47999999999999</ele>
        <time>2025-05-04T10:53:13Z</time>
      </trkpt>
      <trkpt lat="39.619980985298753" lon="-8.857802990823984">
        <ele>190.96000000000001</ele>
        <time>2025-05-04T10:53:14Z</time>
      </trkpt>
      <trkpt lat="39.619939997792244" lon="-8.857834003865719">
        <ele>190.96000000000001</ele>
        <time>2025-05-04T10:53:15Z</time>
      </trkpt>
      <trkpt lat="39.619822986423969" lon="-8.857878008857369">
        <ele>191.44</ele>
        <time>2025-05-04T10:53:16Z</time>
      </trkpt>
      <trkpt lat="39.619741011410952" lon="-8.857899969443679">
        <ele>191.44</ele>
        <time>2025-05-04T10:53:17Z</time>
      </trkpt>
      <trkpt lat="39.61965199559927" lon="-8.857917990535498">
        <ele>191.91999999999999</ele>
        <time>2025-05-04T10:53:18Z</time>
      </trkpt>
      <trkpt lat="39.619560968130827" lon="-8.857936011627317">
        <ele>191.91999999999999</ele>
        <time>2025-05-04T10:53:19Z</time>
      </trkpt>
      <trkpt lat="39.61946097202599" lon="-8.85807397775352">
        <ele>191.91999999999999</ele>
        <time>2025-05-04T10:53:20Z</time>
      </trkpt>
      <trkpt lat="39.619406992569566" lon="-8.858174979686737">
        <ele>191.91999999999999</ele>
        <time>2025-05-04T10:53:21Z</time>
      </trkpt>
      <trkpt lat="39.619369022548199" lon="-8.858297020196915">
        <ele>191.91999999999999</ele>
        <time>2025-05-04T10:53:22Z</time>
      </trkpt>
      <trkpt lat="39.619349995627999" lon="-8.858404979109764">
        <ele>191.91999999999999</ele>
        <time>2025-05-04T10:53:23Z</time>
      </trkpt>
      <trkpt lat="39.619333986192942" lon="-8.858495000749826">
        <ele>192.40000000000001</ele>
        <time>2025-05-04T10:53:24Z</time>
      </trkpt>
      <trkpt lat="39.619304984807968" lon="-8.858661968261004">
        <ele>192.40000000000001</ele>
        <time>2025-05-04T10:53:26Z</time>
      </trkpt>
      <trkpt lat="39.619359970092773" lon="-8.858820972964168">
        <ele>192.40000000000001</ele>
        <time>2025-05-04T10:53:27Z</time>
      </trkpt>
      <trkpt lat="39.619359970092773" lon="-8.858838994055986">
        <ele>192.40000000000001</ele>
        <time>2025-05-04T10:53:28Z</time>
      </trkpt>
      <trkpt lat="39.619359970092773" lon="-8.858915017917752">
        <ele>192.88</ele>
        <time>2025-05-04T10:53:29Z</time>
      </trkpt>
      <trkpt lat="39.619327029213309" lon="-8.859005039557815">
        <ele>192.40000000000001</ele>
        <time>2025-05-04T10:53:30Z</time>
      </trkpt>
      <trkpt lat="39.619251005351543" lon="-8.859049966558814">
        <ele>192.40000000000001</ele>
        <time>2025-05-04T10:53:31Z</time>
      </trkpt>
      <trkpt lat="39.619188979268074" lon="-8.85903999209404">
        <ele>192.88</ele>
        <time>2025-05-04T10:53:32Z</time>
      </trkpt>
      <trkpt lat="39.619134999811649" lon="-8.858992969617248">
        <ele>192.88</ele>
        <time>2025-05-04T10:53:33Z</time>
      </trkpt>
      <trkpt lat="39.619102980941534" lon="-8.858949970453978">
        <ele>192.88</ele>
        <time>2025-05-04T10:53:34Z</time>
      </trkpt>
      <trkpt lat="39.619102980941534" lon="-8.858843017369509">
        <ele>192.88</ele>
        <time>2025-05-04T10:53:35Z</time>
      </trkpt>
      <trkpt lat="39.619142962619662" lon="-8.858772022649646">
        <ele>192.88</ele>
        <time>2025-05-04T10:53:36Z</time>
      </trkpt>
      <trkpt lat="39.619188979268074" lon="-8.858714019879699">
        <ele>192.88</ele>
        <time>2025-05-04T10:53:37Z</time>
      </trkpt>
      <trkpt lat="39.619314959272742" lon="-8.858606982976198">
        <ele>192.88</ele>
        <time>2025-05-04T10:53:38Z</time>
      </trkpt>
      <trkpt lat="39.619334992021322" lon="-8.858489971607924">
        <ele>192.88</ele>
        <time>2025-05-04T10:53:39Z</time>
      </trkpt>
      <trkpt lat="39.619398023933172" lon="-8.858098033815622">
        <ele>190.47999999999999</ele>
        <time>2025-05-04T10:53:45Z</time>
      </trkpt>
      <trkpt lat="39.61941403336823" lon="-8.857982028275728">
        <ele>188.56</ele>
        <time>2025-05-04T10:53:50Z</time>
      </trkpt>
      <trkpt lat="39.619423002004623" lon="-8.857913967221975">
        <ele>188.56</ele>
        <time>2025-05-04T10:53:51Z</time>
      </trkpt>
      <trkpt lat="39.619433982297778" lon="-8.857832998037338">
        <ele>188.08000000000001</ele>
        <time>2025-05-04T10:53:52Z</time>
      </trkpt>
      <trkpt lat="39.619425013661385" lon="-8.857706012204289">
        <ele>187.59</ele>
        <time>2025-05-04T10:53:53Z</time>
      </trkpt>
      <trkpt lat="39.619313031435013" lon="-8.857657983899117">
        <ele>187.11000000000001</ele>
        <time>2025-05-04T10:53:54Z</time>
      </trkpt>
      <trkpt lat="39.619225021451712" lon="-8.857619008049369">
        <ele>186.15000000000001</ele>
        <time>2025-05-04T10:53:55Z</time>
      </trkpt>
      <trkpt lat="39.619124019518495" lon="-8.857575003057718">
        <ele>186.15000000000001</ele>
        <time>2025-05-04T10:53:56Z</time>
      </trkpt>
      <trkpt lat="39.619016982614994" lon="-8.857526974752545">
        <ele>185.66999999999999</ele>
        <time>2025-05-04T10:53:57Z</time>
      </trkpt>
      <trkpt lat="39.618899971246719" lon="-8.857475006952882">
        <ele>185.19</ele>
        <time>2025-05-04T10:53:58Z</time>
      </trkpt>
      <trkpt lat="39.618783965706825" lon="-8.857418010011315">
        <ele>185.19</ele>
        <time>2025-05-04T10:53:59Z</time>
      </trkpt>
      <trkpt lat="39.618664020672441" lon="-8.857348021119833">
        <ele>184.71000000000001</ele>
        <time>2025-05-04T10:54:00Z</time>
      </trkpt>
      <trkpt lat="39.618538040667772" lon="-8.857271997258067">
        <ele>183.75</ele>
        <time>2025-05-04T10:54:01Z</time>
      </trkpt>
      <trkpt lat="39.618403008207679" lon="-8.857204020023346">
        <ele>183.27000000000001</ele>
        <time>2025-05-04T10:54:02Z</time>
      </trkpt>
      <trkpt lat="39.618265964090824" lon="-8.857168983668089">
        <ele>183.27000000000001</ele>
        <time>2025-05-04T10:54:03Z</time>
      </trkpt>
      <trkpt lat="39.618109976872802" lon="-8.857153980061412">
        <ele>182.78999999999999</ele>
        <time>2025-05-04T10:54:04Z</time>
      </trkpt>
      <trkpt lat="39.617959018796682" lon="-8.857140988111496">
        <ele>182.78999999999999</ele>
        <time>2025-05-04T10:54:05Z</time>
      </trkpt>
      <trkpt lat="39.615908972918987" lon="-8.85702095925808">
        <ele>178.46000000000001</ele>
        <time>2025-05-04T10:54:17Z</time>
      </trkpt>
      <trkpt lat="39.615696994587779" lon="-8.857006961479783">
        <ele>177.5</ele>
        <time>2025-05-04T10:54:20Z</time>
      </trkpt>
      <trkpt lat="39.61561200208962" lon="-8.857002016156912">
        <ele>176.53999999999999</ele>
        <time>2025-05-04T10:54:25Z</time>
      </trkpt>
      <trkpt lat="39.615594986826181" lon="-8.857001010328531">
        <ele>176.53999999999999</ele>
        <time>2025-05-04T10:54:26Z</time>
      </trkpt>
      <trkpt lat="39.615594986826181" lon="-8.857001010328531">
        <ele>176.53999999999999</ele>
        <time>2025-05-04T10:54:39Z</time>
      </trkpt>
      <trkpt lat="39.615594986826181" lon="-8.857001010328531">
        <ele>176.53999999999999</ele>
        <time>2025-05-04T10:55:32Z</time>
      </trkpt>
      <trkpt lat="39.615594986826181" lon="-8.857001010328531">
        <ele>177.02000000000001</ele>
        <time>2025-05-04T10:56:28Z</time>
      </trkpt>
      <trkpt lat="39.615594986826181" lon="-8.857001010328531">
        <ele>177.02000000000001</ele>
        <time>2025-05-04T10:57:18Z</time>
      </trkpt>
      <trkpt lat="39.615594986826181" lon="-8.857001010328531">
        <ele>177.5</ele>
        <time>2025-05-04T10:58:13Z</time>
      </trkpt>
      <trkpt lat="39.615536984056234" lon="-8.856996987015009">
        <ele>177.02000000000001</ele>
        <time>2025-05-04T10:58:43Z</time>
      </trkpt>
      <trkpt lat="39.615287035703659" lon="-8.856980977579951">
        <ele>176.53999999999999</ele>
        <time>2025-05-04T10:58:50Z</time>
      </trkpt>
      <trkpt lat="39.614355973899364" lon="-8.856921968981624">
        <ele>176.06</ele>
        <time>2025-05-04T10:58:57Z</time>
      </trkpt>
      <trkpt lat="39.612580016255379" lon="-8.85686899535358">
        <ele>174.13999999999999</ele>
        <time>2025-05-04T10:59:07Z</time>
      </trkpt>
      <trkpt lat="39.610612029209733" lon="-8.856986006721854">
        <ele>171.72999999999999</ele>
        <time>2025-05-04T10:59:18Z</time>
      </trkpt>
      <trkpt lat="39.608804974704981" lon="-8.857086002826691">
        <ele>168.37</ele>
        <time>2025-05-04T10:59:29Z</time>
      </trkpt>
      <trkpt lat="39.607001021504402" lon="-8.857254981994629">
        <ele>166.93000000000001</ele>
        <time>2025-05-04T10:59:40Z</time>
      </trkpt>
      <trkpt lat="39.604214960709214" lon="-8.85736302472651">
        <ele>165.47999999999999</ele>
        <time>2025-05-04T10:59:56Z</time>
      </trkpt>
      <trkpt lat="39.602229036390781" lon="-8.85751498863101">
        <ele>164.52000000000001</ele>
        <time>2025-05-04T11:00:08Z</time>
      </trkpt>
      <trkpt lat="39.601062024012208" lon="-8.857602998614311">
        <ele>161.16</ele>
        <time>2025-05-04T11:00:17Z</time>
      </trkpt>
      <trkpt lat="39.600952975451946" lon="-8.857616996392608">
        <ele>160.68000000000001</ele>
        <time>2025-05-04T11:00:18Z</time>
      </trkpt>
      <trkpt lat="39.600820960476995" lon="-8.857726966962218">
        <ele>160.19999999999999</ele>
        <time>2025-05-04T11:00:19Z</time>
      </trkpt>
      <trkpt lat="39.60074502043426" lon="-8.857757980003953">
        <ele>159.72</ele>
        <time>2025-05-04T11:00:20Z</time>
      </trkpt>
      <trkpt lat="39.600628009065986" lon="-8.857769966125488">
        <ele>159.72</ele>
        <time>2025-05-04T11:00:21Z</time>
      </trkpt>
      <trkpt lat="39.600520972162485" lon="-8.857726966962218">
        <ele>159.72</ele>
        <time>2025-05-04T11:00:22Z</time>
      </trkpt>
      <trkpt lat="39.600392980501056" lon="-8.857613978907466">
        <ele>159.24000000000001</ele>
        <time>2025-05-04T11:00:23Z</time>
      </trkpt>
      <trkpt lat="39.600270017981529" lon="-8.857602998614311">
        <ele>158.75</ele>
        <time>2025-05-04T11:00:24Z</time>
      </trkpt>
      <trkpt lat="39.600136997178197" lon="-8.857604004442692">
        <ele>158.27000000000001</ele>
        <time>2025-05-04T11:00:25Z</time>
      </trkpt>
      <trkpt lat="39.600007999688387" lon="-8.857613978907466">
        <ele>157.78999999999999</ele>
        <time>2025-05-04T11:00:26Z</time>
      </trkpt>
      <trkpt lat="39.598733028396964" lon="-8.857806008309126">
        <ele>155.38999999999999</ele>
        <time>2025-05-04T11:00:36Z</time>
      </trkpt>
      <trkpt lat="39.597107023000717" lon="-8.858371032401919">
        <ele>154.43000000000001</ele>
        <time>2025-05-04T11:00:47Z</time>
      </trkpt>
      <trkpt lat="39.595553018152714" lon="-8.859349032863975">
        <ele>152.99000000000001</ele>
        <time>2025-05-04T11:00:57Z</time>
      </trkpt>
      <trkpt lat="39.594333032146096" lon="-8.8605029694736">
        <ele>153.94999999999999</ele>
        <time>2025-05-04T11:01:06Z</time>
      </trkpt>
      <trkpt lat="39.592458000406623" lon="-8.862381018698216">
        <ele>155.87</ele>
        <time>2025-05-04T11:01:20Z</time>
      </trkpt>
      <trkpt lat="39.591045984998345" lon="-8.863833015784621">
        <ele>156.34999999999999</ele>
        <time>2025-05-04T11:01:30Z</time>
      </trkpt>
      <trkpt lat="39.590914975851774" lon="-8.863964024931192">
        <ele>156.83000000000001</ele>
        <time>2025-05-04T11:01:31Z</time>
      </trkpt>
      <trkpt lat="39.58905603736639" lon="-8.865865040570498">
        <ele>155.87</ele>
        <time>2025-05-04T11:01:45Z</time>
      </trkpt>
      <trkpt lat="39.587156027555466" lon="-8.867788016796112">
        <ele>152.03</ele>
        <time>2025-05-04T11:01:59Z</time>
      </trkpt>
      <trkpt lat="39.585701012983918" lon="-8.869186034426093">
        <ele>149.62</ele>
        <time>2025-05-04T11:02:10Z</time>
      </trkpt>
      <trkpt lat="39.584441967308521" lon="-8.870076024904847">
        <ele>148.66</ele>
        <time>2025-05-04T11:02:19Z</time>
      </trkpt>
      <trkpt lat="39.582562996074557" lon="-8.871149998158217">
        <ele>147.69999999999999</ele>
        <time>2025-05-04T11:02:32Z</time>
      </trkpt>
      <trkpt lat="39.581072023138404" lon="-8.872009981423616">
        <ele>148.66</ele>
        <time>2025-05-04T11:02:41Z</time>
      </trkpt>
      <trkpt lat="39.579074028879404" lon="-8.87315696105361">
        <ele>157.31</ele>
        <time>2025-05-04T11:02:53Z</time>
      </trkpt>
      <trkpt lat="39.577145017683506" lon="-8.874281980097294">
        <ele>169.33000000000001</ele>
        <time>2025-05-04T11:03:05Z</time>
      </trkpt>
      <trkpt lat="39.575182981789112" lon="-8.875434994697571">
        <ele>182.31</ele>
        <time>2025-05-04T11:03:17Z</time>
      </trkpt>
      <trkpt lat="39.572874018922448" lon="-8.876740979030728">
        <ele>195.77000000000001</ele>
        <time>2025-05-04T11:03:30Z</time>
      </trkpt>
      <trkpt lat="39.570511998608708" lon="-8.878259025514126">
        <ele>202.97999999999999</ele>
        <time>2025-05-04T11:03:44Z</time>
      </trkpt>
      <trkpt lat="39.567969013005495" lon="-8.880017967894673">
        <ele>206.34</ele>
        <time>2025-05-04T11:04:00Z</time>
      </trkpt>
      <trkpt lat="39.565801033750176" lon="-8.881603991612792">
        <ele>210.19</ele>
        <time>2025-05-04T11:04:14Z</time>
      </trkpt>
      <trkpt lat="39.56447996199131" lon="-8.882510997354984">
        <ele>211.15000000000001</ele>
        <time>2025-05-04T11:04:24Z</time>
      </trkpt>
      <trkpt lat="39.562753960490227" lon="-8.883695024996996">
        <ele>210.19</ele>
        <time>2025-05-04T11:04:35Z</time>
      </trkpt>
      <trkpt lat="39.560163030400872" lon="-8.885474000126123">
        <ele>202.97999999999999</ele>
        <time>2025-05-04T11:04:51Z</time>
      </trkpt>
      <trkpt lat="39.558318005874753" lon="-8.88675601221621">
        <ele>195.77000000000001</ele>
        <time>2025-05-04T11:05:02Z</time>
      </trkpt>
      <trkpt lat="39.557153005152941" lon="-8.887723032385111">
        <ele>190.47999999999999</ele>
        <time>2025-05-04T11:05:10Z</time>
      </trkpt>
      <trkpt lat="39.55704496242106" lon="-8.88785001821816">
        <ele>190</ele>
        <time>2025-05-04T11:05:11Z</time>
      </trkpt>
      <trkpt lat="39.556969022378325" lon="-8.88800298795104">
        <ele>189.03999999999999</ele>
        <time>2025-05-04T11:05:12Z</time>
      </trkpt>
      <trkpt lat="39.556912025436759" lon="-8.88817397877574">
        <ele>189.03999999999999</ele>
        <time>2025-05-04T11:05:13Z</time>
      </trkpt>
      <trkpt lat="39.556855028495193" lon="-8.888343963772059">
        <ele>189.03999999999999</ele>
        <time>2025-05-04T11:05:14Z</time>
      </trkpt>
      <trkpt lat="39.556824015453458" lon="-8.888521995395422">
        <ele>189.03999999999999</ele>
        <time>2025-05-04T11:05:15Z</time>
      </trkpt>
      <trkpt lat="39.556814040988684" lon="-8.888712013140321">
        <ele>189.52000000000001</ele>
        <time>2025-05-04T11:05:16Z</time>
      </trkpt>
      <trkpt lat="39.5568270329386" lon="-8.888907982036471">
        <ele>190</ele>
        <time>2025-05-04T11:05:17Z</time>
      </trkpt>
      <trkpt lat="39.556839019060135" lon="-8.889105962589383">
        <ele>190</ele>
        <time>2025-05-04T11:05:18Z</time>
      </trkpt>
      <trkpt lat="39.556866008788347" lon="-8.889359012246132">
        <ele>190</ele>
        <time>2025-05-04T11:05:19Z</time>
      </trkpt>
      <trkpt lat="39.556955024600029" lon="-8.88954802416265">
        <ele>190</ele>
        <time>2025-05-04T11:05:20Z</time>
      </trkpt>
      <trkpt lat="39.55798901617527" lon="-8.891732012853026">
        <ele>190.47999999999999</ele>
        <time>2025-05-04T11:05:30Z</time>
      </trkpt>
      <trkpt lat="39.559791963547468" lon="-8.895643008872867">
        <ele>190.96000000000001</ele>
        <time>2025-05-04T11:05:46Z</time>
      </trkpt>
      <trkpt lat="39.561175983399153" lon="-8.899213029071689">
        <ele>181.34999999999999</ele>
        <time>2025-05-04T11:06:00Z</time>
      </trkpt>
      <trkpt lat="39.562218021601439" lon="-8.902958985418081">
        <ele>161.16</ele>
        <time>2025-05-04T11:06:14Z</time>
      </trkpt>
      <trkpt lat="39.562975997105241" lon="-8.906797980889678">
        <ele>146.25999999999999</ele>
        <time>2025-05-04T11:06:28Z</time>
      </trkpt>
      <trkpt lat="39.563472960144281" lon="-8.910985998809338">
        <ele>149.62</ele>
        <time>2025-05-04T11:06:43Z</time>
      </trkpt>
      <trkpt lat="39.564251974225044" lon="-8.915129005908966">
        <ele>150.58000000000001</ele>
        <time>2025-05-04T11:06:58Z</time>
      </trkpt>
      <trkpt lat="39.5650589838624" lon="-8.918950986117125">
        <ele>154.43000000000001</ele>
        <time>2025-05-04T11:07:12Z</time>
      </trkpt>
      <trkpt lat="39.565030988305807" lon="-8.921210998669267">
        <ele>156.34999999999999</ele>
        <time>2025-05-04T11:07:20Z</time>
      </trkpt>
      <trkpt lat="39.564538970589638" lon="-8.923380989581347">
        <ele>158.27000000000001</ele>
        <time>2025-05-04T11:07:28Z</time>
      </trkpt>
      <trkpt lat="39.563348991796374" lon="-8.926426973193884">
        <ele>160.19999999999999</ele>
        <time>2025-05-04T11:07:40Z</time>
      </trkpt>
      <trkpt lat="39.562152978032827" lon="-8.929764982312918">
        <ele>164.03999999999999</ele>
        <time>2025-05-04T11:07:53Z</time>
      </trkpt>
      <trkpt lat="39.561230968683958" lon="-8.933557961136103">
        <ele>172.69</ele>
        <time>2025-05-04T11:08:07Z</time>
      </trkpt>
      <trkpt lat="39.560553040355444" lon="-8.937456971034408">
        <ele>171.72999999999999</ele>
        <time>2025-05-04T11:08:21Z</time>
      </trkpt>
      <trkpt lat="39.559803027659655" lon="-8.941900972276926">
        <ele>152.99000000000001</ele>
        <time>2025-05-04T11:08:37Z</time>
      </trkpt>
      <trkpt lat="39.559198021888733" lon="-8.944018995389342">
        <ele>146.25999999999999</ele>
        <time>2025-05-04T11:08:45Z</time>
      </trkpt>
      <trkpt lat="39.55822697840631" lon="-8.946279007941485">
        <ele>139.05000000000001</ele>
        <time>2025-05-04T11:08:54Z</time>
      </trkpt>
      <trkpt lat="39.557862030342221" lon="-8.948187986388803">
        <ele>130.88</ele>
        <time>2025-05-04T11:09:01Z</time>
      </trkpt>
      <trkpt lat="39.557863958179951" lon="-8.950729966163635">
        <ele>115.98</ele>
        <time>2025-05-04T11:09:10Z</time>
      </trkpt>
      <trkpt lat="39.558138968423009" lon="-8.954654037952423">
        <ele>103</ele>
        <time>2025-05-04T11:09:24Z</time>
      </trkpt>
      <trkpt lat="39.558819998055696" lon="-8.957329038530588">
        <ele>108.29000000000001</ele>
        <time>2025-05-04T11:09:34Z</time>
      </trkpt>
      <trkpt lat="39.559948034584522" lon="-8.959739003330469">
        <ele>120.78</ele>
        <time>2025-05-04T11:09:44Z</time>
      </trkpt>
      <trkpt lat="39.561334988102317" lon="-8.961584027856588">
        <ele>129.43000000000001</ele>
        <time>2025-05-04T11:09:53Z</time>
      </trkpt>
      <trkpt lat="39.562916988506913" lon="-8.963165022432804">
        <ele>130.88</ele>
        <time>2025-05-04T11:10:02Z</time>
      </trkpt>
      <trkpt lat="39.56456596031785" lon="-8.965043993666768">
        <ele>124.63</ele>
        <time>2025-05-04T11:10:12Z</time>
      </trkpt>
      <trkpt lat="39.565557958558202" lon="-8.966919025406241">
        <ele>114.05</ele>
        <time>2025-05-04T11:10:20Z</time>
      </trkpt>
      <trkpt lat="39.566735029220581" lon="-8.970269020646811">
        <ele>98.189999999999998</ele>
        <time>2025-05-04T11:10:33Z</time>
      </trkpt>
      <trkpt lat="39.567884020507336" lon="-8.973584985360503">
        <ele>85.209999999999994</ele>
        <time>2025-05-04T11:10:46Z</time>
      </trkpt>
      <trkpt lat="39.568741992115974" lon="-8.976173987612128">
        <ele>71.269999999999996</ele>
        <time>2025-05-04T11:10:56Z</time>
      </trkpt>
      <trkpt lat="39.569129990413785" lon="-8.978366022929549">
        <ele>63.579999999999998</ele>
        <time>2025-05-04T11:11:04Z</time>
      </trkpt>
      <trkpt lat="39.56978403031826" lon="-8.98049402050674">
        <ele>55.890000000000001</ele>
        <time>2025-05-04T11:11:13Z</time>
      </trkpt>
      <trkpt lat="39.570668991655111" lon="-8.982056993991137">
        <ele>48.68</ele>
        <time>2025-05-04T11:11:20Z</time>
      </trkpt>
      <trkpt lat="39.572313018143177" lon="-8.985429033637047">
        <ele>30.420000000000002</ele>
        <time>2025-05-04T11:11:34Z</time>
      </trkpt>
      <trkpt lat="39.573626965284348" lon="-8.989330977201462">
        <ele>26.09</ele>
        <time>2025-05-04T11:11:49Z</time>
      </trkpt>
      <trkpt lat="39.575032023712993" lon="-8.994111008942127">
        <ele>24.649999999999999</ele>
        <time>2025-05-04T11:12:07Z</time>
      </trkpt>
      <trkpt lat="39.576038019731641" lon="-8.997590001672506">
        <ele>26.09</ele>
        <time>2025-05-04T11:12:20Z</time>
      </trkpt>
      <trkpt lat="39.577427990734577" lon="-9.001751029863954">
        <ele>21.289999999999999</ele>
        <time>2025-05-04T11:12:36Z</time>
      </trkpt>
      <trkpt lat="39.578484026715159" lon="-9.003146030008793">
        <ele>19.84</ele>
        <time>2025-05-04T11:12:43Z</time>
      </trkpt>
      <trkpt lat="39.580065021291375" lon="-9.004116989672184">
        <ele>21.77</ele>
        <time>2025-05-04T11:12:51Z</time>
      </trkpt>
      <trkpt lat="39.583365982398391" lon="-9.005728997290134">
        <ele>27.530000000000001</ele>
        <time>2025-05-04T11:13:07Z</time>
      </trkpt>
      <trkpt lat="39.586430992931128" lon="-9.007229022681713">
        <ele>29.940000000000001</ele>
        <time>2025-05-04T11:13:22Z</time>
      </trkpt>
      <trkpt lat="39.589490974321961" lon="-9.008802976459265">
        <ele>32.82</ele>
        <time>2025-05-04T11:13:37Z</time>
      </trkpt>
      <trkpt lat="39.592016022652388" lon="-9.010516991838813">
        <ele>33.780000000000001</ele>
        <time>2025-05-04T11:13:50Z</time>
      </trkpt>
      <trkpt lat="39.596009999513626" lon="-9.013493992388248">
        <ele>37.149999999999999</ele>
        <time>2025-05-04T11:14:11Z</time>
      </trkpt>
      <trkpt lat="39.597740024328232" lon="-9.015213958919048">
        <ele>44.359999999999999</ele>
        <time>2025-05-04T11:14:21Z</time>
      </trkpt>
      <trkpt lat="39.599005021154881" lon="-9.017196027562022">
        <ele>51.090000000000003</ele>
        <time>2025-05-04T11:14:30Z</time>
      </trkpt>
      <trkpt lat="39.600128028541803" lon="-9.01996498927474">
        <ele>58.299999999999997</ele>
        <time>2025-05-04T11:14:41Z</time>
      </trkpt>
      <trkpt lat="39.601272996515036" lon="-9.023155979812145">
        <ele>60.219999999999999</ele>
        <time>2025-05-04T11:14:53Z</time>
      </trkpt>
      <trkpt lat="39.601913038641214" lon="-9.024939984083176">
        <ele>56.369999999999997</ele>
        <time>2025-05-04T11:14:59Z</time>
      </trkpt>
      <trkpt lat="39.60304400883615" lon="-9.02767701074481">
        <ele>45.32</ele>
        <time>2025-05-04T11:15:10Z</time>
      </trkpt>
      <trkpt lat="39.604237005114555" lon="-9.028902025893331">
        <ele>41.469999999999999</ele>
        <time>2025-05-04T11:15:17Z</time>
      </trkpt>
      <trkpt lat="39.605764020234346" lon="-9.030398027971387">
        <ele>41.469999999999999</ele>
        <time>2025-05-04T11:15:26Z</time>
      </trkpt>
      <trkpt lat="39.606515960767865" lon="-9.032092010602355">
        <ele>41.950000000000003</ele>
        <time>2025-05-04T11:15:33Z</time>
      </trkpt>
      <trkpt lat="39.60678300820291" lon="-9.034040970727801">
        <ele>44.359999999999999</ele>
        <time>2025-05-04T11:15:40Z</time>
      </trkpt>
      <trkpt lat="39.606649987399578" lon="-9.036809010431171">
        <ele>51.090000000000003</ele>
        <time>2025-05-04T11:15:50Z</time>
      </trkpt>
      <trkpt lat="39.606440020725131" lon="-9.040775997564197">
        <ele>64.549999999999997</ele>
        <time>2025-05-04T11:16:04Z</time>
      </trkpt>
      <trkpt lat="39.606199041008949" lon="-9.045566003769636">
        <ele>79.450000000000003</ele>
        <time>2025-05-04T11:16:21Z</time>
      </trkpt>
      <trkpt lat="39.605953032150865" lon="-9.050088040530682">
        <ele>87.620000000000005</ele>
        <time>2025-05-04T11:16:37Z</time>
      </trkpt>
      <trkpt lat="39.60579302161932" lon="-9.05320200137794">
        <ele>105.40000000000001</ele>
        <time>2025-05-04T11:16:48Z</time>
      </trkpt>
      <trkpt lat="39.605723032727838" lon="-9.054218977689743">
        <ele>112.61</ele>
        <time>2025-05-04T11:16:53Z</time>
      </trkpt>
      <trkpt lat="39.605680033564568" lon="-9.055115003138781">
        <ele>117.90000000000001</ele>
        <time>2025-05-04T11:17:00Z</time>
      </trkpt>
      <trkpt lat="39.605675004422665" lon="-9.055217010900378">
        <ele>118.38</ele>
        <time>2025-05-04T11:17:01Z</time>
      </trkpt>
      <trkpt lat="39.605841971933842" lon="-9.05539495870471">
        <ele>118.86</ele>
        <time>2025-05-04T11:17:02Z</time>
      </trkpt>
      <trkpt lat="39.605848006904125" lon="-9.055407028645277">
        <ele>119.34</ele>
        <time>2025-05-04T11:17:03Z</time>
      </trkpt>
      <trkpt lat="39.60590198636055" lon="-9.055501995608211">
        <ele>119.34</ele>
        <time>2025-05-04T11:17:04Z</time>
      </trkpt>
      <trkpt lat="39.605949008837342" lon="-9.055604003369808">
        <ele>119.81999999999999</ele>
        <time>2025-05-04T11:17:05Z</time>
      </trkpt>
      <trkpt lat="39.605949008837342" lon="-9.055726965889335">
        <ele>119.81999999999999</ele>
        <time>2025-05-04T11:17:06Z</time>
      </trkpt>
      <trkpt lat="39.605949008837342" lon="-9.055845988914371">
        <ele>119.34</ele>
        <time>2025-05-04T11:17:07Z</time>
      </trkpt>
      <trkpt lat="39.605949008837342" lon="-9.055845988914371">
        <ele>119.34</ele>
        <time>2025-05-04T11:17:08Z</time>
      </trkpt>
      <trkpt lat="39.605863010510802" lon="-9.056167015805841">
        <ele>118.86</ele>
        <time>2025-05-04T11:17:09Z</time>
      </trkpt>
      <trkpt lat="39.605916989967227" lon="-9.056273968890309">
        <ele>118.38</ele>
        <time>2025-05-04T11:17:10Z</time>
      </trkpt>
      <trkpt lat="39.605967029929161" lon="-9.056373964995146">
        <ele>117.90000000000001</ele>
        <time>2025-05-04T11:17:11Z</time>
      </trkpt>
      <trkpt lat="39.606016986072063" lon="-9.056474966928363">
        <ele>117.90000000000001</ele>
        <time>2025-05-04T11:17:12Z</time>
      </trkpt>
      <trkpt lat="39.606085969135165" lon="-9.056560965254903">
        <ele>118.38</ele>
        <time>2025-05-04T11:17:13Z</time>
      </trkpt>
      <trkpt lat="39.60616098716855" lon="-9.056636989116669">
        <ele>118.38</ele>
        <time>2025-05-04T11:17:14Z</time>
      </trkpt>
      <trkpt lat="39.606236005201936" lon="-9.056713012978435">
        <ele>118.86</ele>
        <time>2025-05-04T11:17:15Z</time>
      </trkpt>
      <trkpt lat="39.607025999575853" lon="-9.057704005390406">
        <ele>120.3</ele>
        <time>2025-05-04T11:17:27Z</time>
      </trkpt>
      <trkpt lat="39.607263961806893" lon="-9.058003993704915">
        <ele>120.3</ele>
        <time>2025-05-04T11:17:31Z</time>
      </trkpt>
      <trkpt lat="39.607477029785514" lon="-9.058034000918269">
        <ele>120.78</ele>
        <time>2025-05-04T11:17:33Z</time>
      </trkpt>
      <trkpt lat="39.607516005635262" lon="-9.058098960667849">
        <ele>120.78</ele>
        <time>2025-05-04T11:17:34Z</time>
      </trkpt>
      <trkpt lat="39.607565961778164" lon="-9.058256959542632">
        <ele>121.26000000000001</ele>
        <time>2025-05-04T11:17:35Z</time>
      </trkpt>
      <trkpt lat="39.607655983418226" lon="-9.058271963149309">
        <ele>122.70999999999999</ele>
        <time>2025-05-04T11:17:36Z</time>
      </trkpt>
      <trkpt lat="39.607763020321727" lon="-9.058289984241128">
        <ele>124.15000000000001</ele>
        <time>2025-05-04T11:17:37Z</time>
      </trkpt>
      <trkpt lat="39.607901992276311" lon="-9.05831303447485">
        <ele>125.11</ele>
        <time>2025-05-04T11:17:38Z</time>
      </trkpt>
      <trkpt lat="39.608897008001804" lon="-9.058409007266164">
        <ele>134.72</ele>
        <time>2025-05-04T11:17:48Z</time>
      </trkpt>
      <trkpt lat="39.609099011868238" lon="-9.058432979509234">
        <ele>135.19999999999999</ele>
        <time>2025-05-04T11:17:50Z</time>
      </trkpt>
      <trkpt lat="39.609196996316314" lon="-9.05846600420773">
        <ele>135.68000000000001</ele>
        <time>2025-05-04T11:17:51Z</time>
      </trkpt>
      <trkpt lat="39.609288023784757" lon="-9.058515038341284">
        <ele>135.68000000000001</ele>
        <time>2025-05-04T11:17:52Z</time>
      </trkpt>
      <trkpt lat="39.609372010454535" lon="-9.058590978384018">
        <ele>135.19999999999999</ele>
        <time>2025-05-04T11:17:53Z</time>
      </trkpt>
      <trkpt lat="39.609460020437837" lon="-9.058671025559306">
        <ele>135.19999999999999</ele>
        <time>2025-05-04T11:17:54Z</time>
      </trkpt>
      <trkpt lat="39.609611984342337" lon="-9.058869006112218">
        <ele>133.75999999999999</ele>
        <time>2025-05-04T11:17:56Z</time>
      </trkpt>
      <trkpt lat="39.609670992940664" lon="-9.058967996388674">
        <ele>133.28</ele>
        <time>2025-05-04T11:17:57Z</time>
      </trkpt>
      <trkpt lat="39.61007097736001" lon="-9.059930993244052">
        <ele>127.03</ele>
        <time>2025-05-04T11:18:06Z</time>
      </trkpt>
      <trkpt lat="39.610438020899892" lon="-9.060778990387917">
        <ele>123.67</ele>
        <time>2025-05-04T11:18:14Z</time>
      </trkpt>
      <trkpt lat="39.610484959557652" lon="-9.060888038948178">
        <ele>122.70999999999999</ele>
        <time>2025-05-04T11:18:15Z</time>
      </trkpt>
      <trkpt lat="39.610982006415725" lon="-9.062033006921411">
        <ele>119.34</ele>
        <time>2025-05-04T11:18:26Z</time>
      </trkpt>
      <trkpt lat="39.611034980043769" lon="-9.062154041603208">
        <ele>119.34</ele>
        <time>2025-05-04T11:18:27Z</time>
      </trkpt>
      <trkpt lat="39.611131036654115" lon="-9.062281027436256">
        <ele>118.86</ele>
        <time>2025-05-04T11:18:29Z</time>
      </trkpt>
      <trkpt lat="39.611194990575314" lon="-9.062318997457624">
        <ele>118.86</ele>
        <time>2025-05-04T11:18:30Z</time>
      </trkpt>
      <trkpt lat="39.611277971416712" lon="-9.062312040477991">
        <ele>118.86</ele>
        <time>2025-05-04T11:18:31Z</time>
      </trkpt>
      <trkpt lat="39.611319964751601" lon="-9.062354033812881">
        <ele>118.38</ele>
        <time>2025-05-04T11:18:32Z</time>
      </trkpt>
      <trkpt lat="39.611347960308194" lon="-9.062435002997518">
        <ele>118.38</ele>
        <time>2025-05-04T11:18:33Z</time>
      </trkpt>
      <trkpt lat="39.611357012763619" lon="-9.062475990504026">
        <ele>118.38</ele>
        <time>2025-05-04T11:18:34Z</time>
      </trkpt>
      <trkpt lat="39.611302027478814" lon="-9.062548996880651">
        <ele>118.38</ele>
        <time>2025-05-04T11:18:35Z</time>
      </trkpt>
      <trkpt lat="39.611269002780318" lon="-9.062561988830566">
        <ele>117.90000000000001</ele>
        <time>2025-05-04T11:18:36Z</time>
      </trkpt>
      <trkpt lat="39.611215023323894" lon="-9.062561988830566">
        <ele>117.90000000000001</ele>
        <time>2025-05-04T11:18:37Z</time>
      </trkpt>
      <trkpt lat="39.611206976696849" lon="-9.062561988830566">
        <ele>117.90000000000001</ele>
        <time>2025-05-04T11:18:38Z</time>
      </trkpt>
      <trkpt lat="39.61105702444911" lon="-9.06256802380085">
        <ele>117.42</ele>
        <time>2025-05-04T11:18:39Z</time>
      </trkpt>
      <trkpt lat="39.611002039164305" lon="-9.062613034620881">
        <ele>117.42</ele>
        <time>2025-05-04T11:18:40Z</time>
      </trkpt>
      <trkpt lat="39.610095033422112" lon="-9.063259027898312">
        <ele>115.98</ele>
        <time>2025-05-04T11:18:51Z</time>
      </trkpt>
      <trkpt lat="39.609060036018491" lon="-9.064085986465216">
        <ele>113.56999999999999</ele>
        <time>2025-05-04T11:19:02Z</time>
      </trkpt>
      <trkpt lat="39.608563994988799" lon="-9.064678000286222">
        <ele>111.17</ele>
        <time>2025-05-04T11:19:08Z</time>
      </trkpt>
      <trkpt lat="39.607944991439581" lon="-9.065436981618404">
        <ele>105.88</ele>
        <time>2025-05-04T11:19:17Z</time>
      </trkpt>
      <trkpt lat="39.607881037518382" lon="-9.065780974924564">
        <ele>103.48</ele>
        <time>2025-05-04T11:19:22Z</time>
      </trkpt>
      <trkpt lat="39.607872990891337" lon="-9.065797990188003">
        <ele>102.52</ele>
        <time>2025-05-04T11:19:23Z</time>
      </trkpt>
      <trkpt lat="39.607848012819886" lon="-9.065853981301189">
        <ele>102.04000000000001</ele>
        <time>2025-05-04T11:19:24Z</time>
      </trkpt>
      <trkpt lat="39.607837032526731" lon="-9.066059002652764">
        <ele>101.08</ele>
        <time>2025-05-04T11:19:26Z</time>
      </trkpt>
      <trkpt lat="39.607980027794838" lon="-9.06665001064539">
        <ele>98.670000000000002</ele>
        <time>2025-05-04T11:19:34Z</time>
      </trkpt>
      <trkpt lat="39.607970975339413" lon="-9.066742965951562">
        <ele>99.150000000000006</ele>
        <time>2025-05-04T11:19:35Z</time>
      </trkpt>
      <trkpt lat="39.607950020581484" lon="-9.06684497371316">
        <ele>100.11</ele>
        <time>2025-05-04T11:19:36Z</time>
      </trkpt>
      <trkpt lat="39.60792001336813" lon="-9.066946981474757">
        <ele>100.59999999999999</ele>
        <time>2025-05-04T11:19:37Z</time>
      </trkpt>
      <trkpt lat="39.60787802003324" lon="-9.067048989236355">
        <ele>101.08</ele>
        <time>2025-05-04T11:19:38Z</time>
      </trkpt>
      <trkpt lat="39.607285000383854" lon="-9.068293031305075">
        <ele>108.29000000000001</ele>
        <time>2025-05-04T11:19:48Z</time>
      </trkpt>
      <trkpt lat="39.606705978512764" lon="-9.069554004818201">
        <ele>118.38</ele>
        <time>2025-05-04T11:19:58Z</time>
      </trkpt>
      <trkpt lat="39.606424011290073" lon="-9.070463022217155">
        <ele>125.11</ele>
        <time>2025-05-04T11:20:05Z</time>
      </trkpt>
      <trkpt lat="39.606141960248351" lon="-9.071357036009431">
        <ele>129.91999999999999</ele>
        <time>2025-05-04T11:20:12Z</time>
      </trkpt>
      <trkpt lat="39.605980021879077" lon="-9.072099002078176">
        <ele>132.31999999999999</ele>
        <time>2025-05-04T11:20:19Z</time>
      </trkpt>
      <trkpt lat="39.605993013828993" lon="-9.072180977091193">
        <ele>131.84</ele>
        <time>2025-05-04T11:20:20Z</time>
      </trkpt>
      <trkpt lat="39.606038024649024" lon="-9.072234034538269">
        <ele>131.84</ele>
        <time>2025-05-04T11:20:21Z</time>
      </trkpt>
      <trkpt lat="39.606131985783577" lon="-9.072363032028079">
        <ele>131.84</ele>
        <time>2025-05-04T11:20:23Z</time>
      </trkpt>
      <trkpt lat="39.606174984946847" lon="-9.0724310092628">
        <ele>131.84</ele>
        <time>2025-05-04T11:20:24Z</time>
      </trkpt>
      <trkpt lat="39.606256959959865" lon="-9.07257903367281">
        <ele>132.31999999999999</ele>
        <time>2025-05-04T11:20:26Z</time>
      </trkpt>
      <trkpt lat="39.606367014348507" lon="-9.072700990363956">
        <ele>132.31999999999999</ele>
        <time>2025-05-04T11:20:28Z</time>
      </trkpt>
      <trkpt lat="39.6065469738096" lon="-9.072913974523544">
        <ele>131.36000000000001</ele>
        <time>2025-05-04T11:20:32Z</time>
      </trkpt>
      <trkpt lat="39.606583015993237" lon="-9.072991004213691">
        <ele>130.88</ele>
        <time>2025-05-04T11:20:33Z</time>
      </trkpt>
      <trkpt lat="39.606560971587896" lon="-9.073038026690483">
        <ele>130.40000000000001</ele>
        <time>2025-05-04T11:20:34Z</time>
      </trkpt>
      <trkpt lat="39.606532976031303" lon="-9.073099968954921">
        <ele>129.91999999999999</ele>
        <time>2025-05-04T11:20:35Z</time>
      </trkpt>
      <trkpt lat="39.606502968817949" lon="-9.073164006695151">
        <ele>129.43000000000001</ele>
        <time>2025-05-04T11:20:36Z</time>
      </trkpt>
      <trkpt lat="39.606463992968202" lon="-9.07324799336493">
        <ele>128.94999999999999</ele>
        <time>2025-05-04T11:20:37Z</time>
      </trkpt>
      <trkpt lat="39.606456030160189" lon="-9.073315970599651">
        <ele>128.47</ele>
        <time>2025-05-04T11:20:38Z</time>
      </trkpt>
      <trkpt lat="39.606444966048002" lon="-9.073400963097811">
        <ele>127.98999999999999</ele>
        <time>2025-05-04T11:20:39Z</time>
      </trkpt>
      <trkpt lat="39.606489976868033" lon="-9.073489978909493">
        <ele>127.03</ele>
        <time>2025-05-04T11:20:40Z</time>
      </trkpt>
      <trkpt lat="39.606530964374542" lon="-9.073552004992962">
        <ele>126.06999999999999</ele>
        <time>2025-05-04T11:20:41Z</time>
      </trkpt>
      <trkpt lat="39.606572035700083" lon="-9.073613025248051">
        <ele>125.11</ele>
        <time>2025-05-04T11:20:42Z</time>
      </trkpt>
      <trkpt lat="39.606628026813269" lon="-9.073639009147883">
        <ele>124.63</ele>
        <time>2025-05-04T11:20:43Z</time>
      </trkpt>
      <trkpt lat="39.606698015704751" lon="-9.073672033846378">
        <ele>123.67</ele>
        <time>2025-05-04T11:20:44Z</time>
      </trkpt>
      <trkpt lat="39.606770016252995" lon="-9.073705980554223">
        <ele>123.19</ele>
        <time>2025-05-04T11:20:45Z</time>
      </trkpt>
      <trkpt lat="39.606836987659335" lon="-9.073737999424338">
        <ele>122.70999999999999</ele>
        <time>2025-05-04T11:20:46Z</time>
      </trkpt>
      <trkpt lat="39.606903959065676" lon="-9.073769012466073">
        <ele>121.73999999999999</ele>
        <time>2025-05-04T11:20:47Z</time>
      </trkpt>
      <trkpt lat="39.606973025947809" lon="-9.073802037164569">
        <ele>120.78</ele>
        <time>2025-05-04T11:20:48Z</time>
      </trkpt>
      <trkpt lat="39.607044020667672" lon="-9.073834978044033">
        <ele>120.3</ele>
        <time>2025-05-04T11:20:49Z</time>
      </trkpt>
      <trkpt lat="39.607109986245632" lon="-9.073865991085768">
        <ele>119.34</ele>
        <time>2025-05-04T11:20:50Z</time>
      </trkpt>
      <trkpt lat="39.607171006500721" lon="-9.073894992470741">
        <ele>118.38</ele>
        <time>2025-05-04T11:20:51Z</time>
      </trkpt>
      <trkpt lat="39.607224985957146" lon="-9.073919970542193">
        <ele>117.90000000000001</ele>
        <time>2025-05-04T11:20:52Z</time>
      </trkpt>
      <trkpt lat="39.607281982898712" lon="-9.073946960270405">
        <ele>117.42</ele>
        <time>2025-05-04T11:20:53Z</time>
      </trkpt>
      <trkpt lat="39.607330011203885" lon="-9.073994988575578">
        <ele>116.45999999999999</ele>
        <time>2025-05-04T11:20:54Z</time>
      </trkpt>
      <trkpt lat="39.607363035902381" lon="-9.074057014659047">
        <ele>115.5</ele>
        <time>2025-05-04T11:20:55Z</time>
      </trkpt>
      <trkpt lat="39.607351971790195" lon="-9.074119962751865">
        <ele>114.53</ele>
        <time>2025-05-04T11:20:56Z</time>
      </trkpt>
      <trkpt lat="39.607337974011898" lon="-9.074195986613631">
        <ele>114.05</ele>
        <time>2025-05-04T11:20:57Z</time>
      </trkpt>
      <trkpt lat="39.607322970405221" lon="-9.074280979111791">
        <ele>113.09</ele>
        <time>2025-05-04T11:20:58Z</time>
      </trkpt>
      <trkpt lat="39.607307966798544" lon="-9.074366977438331">
        <ele>112.13</ele>
        <time>2025-05-04T11:20:59Z</time>
      </trkpt>
      <trkpt lat="39.607292041182518" lon="-9.074455993250012">
        <ele>111.65000000000001</ele>
        <time>2025-05-04T11:21:00Z</time>
      </trkpt>
      <trkpt lat="39.607142005115747" lon="-9.074776014313102">
        <ele>109.25</ele>
        <time>2025-05-04T11:21:04Z</time>
      </trkpt>
      <trkpt lat="39.607090037316084" lon="-9.074832005426288">
        <ele>108.77</ele>
        <time>2025-05-04T11:21:05Z</time>
      </trkpt>
      <trkpt lat="39.607021976262331" lon="-9.074899982661009">
        <ele>108.77</ele>
        <time>2025-05-04T11:21:06Z</time>
      </trkpt>
      <trkpt lat="39.606788959354162" lon="-9.075211035087705">
        <ele>107.81</ele>
        <time>2025-05-04T11:21:11Z</time>
      </trkpt>
      <trkpt lat="39.606736991554499" lon="-9.075280018150806">
        <ele>107.81</ele>
        <time>2025-05-04T11:21:12Z</time>
      </trkpt>
      <trkpt lat="39.606545967981219" lon="-9.075552010908723">
        <ele>107.31999999999999</ele>
        <time>2025-05-04T11:21:16Z</time>
      </trkpt>
      <trkpt lat="39.60650397464633" lon="-9.075638009235263">
        <ele>106.84</ele>
        <time>2025-05-04T11:21:17Z</time>
      </trkpt>
      <trkpt lat="39.606373971328139" lon="-9.075865997001529">
        <ele>106.36</ele>
        <time>2025-05-04T11:21:20Z</time>
      </trkpt>
      <trkpt lat="39.606319991871715" lon="-9.075915031135082">
        <ele>106.36</ele>
        <time>2025-05-04T11:21:21Z</time>
      </trkpt>
      <trkpt lat="39.606264000758529" lon="-9.075965993106365">
        <ele>106.36</ele>
        <time>2025-05-04T11:21:22Z</time>
      </trkpt>
      <trkpt lat="39.606184959411621" lon="-9.076037993654609">
        <ele>106.36</ele>
        <time>2025-05-04T11:21:23Z</time>
      </trkpt>
      <trkpt lat="39.606133997440338" lon="-9.076055008918047">
        <ele>106.84</ele>
        <time>2025-05-04T11:21:24Z</time>
      </trkpt>
      <trkpt lat="39.606060991063714" lon="-9.076080992817879">
        <ele>106.84</ele>
        <time>2025-05-04T11:21:25Z</time>
      </trkpt>
      <trkpt lat="39.605534020811319" lon="-9.076221976429224">
        <ele>111.17</ele>
        <time>2025-05-04T11:21:34Z</time>
      </trkpt>
      <trkpt lat="39.605500996112823" lon="-9.076230023056269">
        <ele>111.65000000000001</ele>
        <time>2025-05-04T11:21:35Z</time>
      </trkpt>
      <trkpt lat="39.605482975021005" lon="-9.076184006407857">
        <ele>112.61</ele>
        <time>2025-05-04T11:21:36Z</time>
      </trkpt>
      <trkpt lat="39.605467971414328" lon="-9.076137989759445">
        <ele>113.09</ele>
        <time>2025-05-04T11:21:37Z</time>
      </trkpt>
      <trkpt lat="39.605442993342876" lon="-9.076063977554441">
        <ele>114.53</ele>
        <time>2025-05-04T11:21:40Z</time>
      </trkpt>
      <trkpt lat="39.605437964200974" lon="-9.076048973947763">
        <ele>114.53</ele>
        <time>2025-05-04T11:21:41Z</time>
      </trkpt>
      <trkpt lat="39.605430001392961" lon="-9.076023995876312">
        <ele>115.01000000000001</ele>
        <time>2025-05-04T11:21:42Z</time>
      </trkpt>
      <trkpt lat="39.605418015271425" lon="-9.075988959521055">
        <ele>115.5</ele>
        <time>2025-05-04T11:21:43Z</time>
      </trkpt>
      <trkpt lat="39.605403011664748" lon="-9.075953001156449">
        <ele>115.98</ele>
        <time>2025-05-04T11:21:44Z</time>
      </trkpt>
      <trkpt lat="39.605382978916168" lon="-9.075913019478321">
        <ele>115.98</ele>
        <time>2025-05-04T11:21:45Z</time>
      </trkpt>
      <trkpt lat="39.605239983648062" lon="-9.075628034770489">
        <ele>117.90000000000001</ele>
        <time>2025-05-04T11:21:54Z</time>
      </trkpt>
      <trkpt lat="39.605224980041385" lon="-9.075512029230595">
        <ele>118.38</ele>
        <time>2025-05-04T11:21:58Z</time>
      </trkpt>
      <trkpt lat="39.605254987254739" lon="-9.075475987046957">
        <ele>118.38</ele>
        <time>2025-05-04T11:21:59Z</time>
      </trkpt>
      <trkpt lat="39.605287006124854" lon="-9.07543801702559">
        <ele>118.38</ele>
        <time>2025-05-04T11:22:00Z</time>
      </trkpt>
      <trkpt lat="39.605306033045053" lon="-9.075414966791868">
        <ele>117.90000000000001</ele>
        <time>2025-05-04T11:22:01Z</time>
      </trkpt>
      <trkpt lat="39.605338973924518" lon="-9.075365010648966">
        <ele>117.90000000000001</ele>
        <time>2025-05-04T11:22:02Z</time>
      </trkpt>
      <trkpt lat="39.605358000844717" lon="-9.075336009263992">
        <ele>117.42</ele>
        <time>2025-05-04T11:22:03Z</time>
      </trkpt>
      <trkpt lat="39.605464031919837" lon="-9.07515998929739">
        <ele>116.94</ele>
        <time>2025-05-04T11:22:08Z</time>
      </trkpt>
      <trkpt lat="39.605570985004306" lon="-9.074976006522775">
        <ele>115.98</ele>
        <time>2025-05-04T11:22:12Z</time>
      </trkpt>
      <trkpt lat="39.605595963075757" lon="-9.074933007359505">
        <ele>115.98</ele>
        <time>2025-05-04T11:22:13Z</time>
      </trkpt>
      <trkpt lat="39.605627981945872" lon="-9.07487902790308">
        <ele>115.98</ele>
        <time>2025-05-04T11:22:15Z</time>
      </trkpt>
      <trkpt lat="39.605652960017323" lon="-9.074800992384553">
        <ele>115.98</ele>
        <time>2025-05-04T11:22:16Z</time>
      </trkpt>
      <trkpt lat="39.605678021907806" lon="-9.074737960472703">
        <ele>115.98</ele>
        <time>2025-05-04T11:22:17Z</time>
      </trkpt>
      <trkpt lat="39.605702999979258" lon="-9.074694961309433">
        <ele>115.98</ele>
        <time>2025-05-04T11:22:18Z</time>
      </trkpt>
      <trkpt lat="39.605730995535851" lon="-9.074650034308434">
        <ele>116.45999999999999</ele>
        <time>2025-05-04T11:22:19Z</time>
      </trkpt>
      <trkpt lat="39.605749016627669" lon="-9.07460100017488">
        <ele>116.45999999999999</ele>
        <time>2025-05-04T11:22:20Z</time>
      </trkpt>
      <trkpt lat="39.605776006355882" lon="-9.07453796826303">
        <ele>116.45999999999999</ele>
        <time>2025-05-04T11:22:21Z</time>
      </trkpt>
      <trkpt lat="39.605805007740855" lon="-9.074480971321464">
        <ele>116.94</ele>
        <time>2025-05-04T11:22:22Z</time>
      </trkpt>
      <trkpt lat="39.605821017175913" lon="-9.074449958279729">
        <ele>116.94</ele>
        <time>2025-05-04T11:22:23Z</time>
      </trkpt>
      <trkpt lat="39.605838032439351" lon="-9.074390027672052">
        <ele>116.94</ele>
        <time>2025-05-04T11:22:24Z</time>
      </trkpt>
      <trkpt lat="39.605851024389267" lon="-9.074344011023641">
        <ele>116.94</ele>
        <time>2025-05-04T11:22:25Z</time>
      </trkpt>
      <trkpt lat="39.605860998854041" lon="-9.074287014082074">
        <ele>116.94</ele>
        <time>2025-05-04T11:22:26Z</time>
      </trkpt>
      <trkpt lat="39.605848006904125" lon="-9.074222976341844">
        <ele>117.42</ele>
        <time>2025-05-04T11:22:27Z</time>
      </trkpt>
      <trkpt lat="39.605834009125829" lon="-9.074158016592264">
        <ele>117.42</ele>
        <time>2025-05-04T11:22:28Z</time>
      </trkpt>
      <trkpt lat="39.605783969163895" lon="-9.073917036876082">
        <ele>118.38</ele>
        <time>2025-05-04T11:22:32Z</time>
      </trkpt>
      <trkpt lat="39.605771983042359" lon="-9.073860039934516">
        <ele>118.38</ele>
        <time>2025-05-04T11:22:33Z</time>
      </trkpt>
      <trkpt lat="39.60575002245605" lon="-9.073745040223002">
        <ele>118.38</ele>
        <time>2025-05-04T11:22:35Z</time>
      </trkpt>
      <trkpt lat="39.605723032727838" lon="-9.073562985286117">
        <ele>117.90000000000001</ele>
        <time>2025-05-04T11:22:38Z</time>
      </trkpt>
      <trkpt lat="39.605712974444032" lon="-9.073484027758241">
        <ele>117.90000000000001</ele>
        <time>2025-05-04T11:22:39Z</time>
      </trkpt>
      <trkpt lat="39.605747004970908" lon="-9.073215974494815">
        <ele>117.90000000000001</ele>
        <time>2025-05-04T11:22:43Z</time>
      </trkpt>
      <trkpt lat="39.605770977213979" lon="-9.073024028912187">
        <ele>117.42</ele>
        <time>2025-05-04T11:22:46Z</time>
      </trkpt>
      <trkpt lat="39.605859993025661" lon="-9.072577022016048">
        <ele>117.42</ele>
        <time>2025-05-04T11:22:53Z</time>
      </trkpt>
      <trkpt lat="39.605871979147196" lon="-9.072528993710876">
        <ele>117.90000000000001</ele>
        <time>2025-05-04T11:22:54Z</time>
      </trkpt>
      <trkpt lat="39.60588002577424" lon="-9.07249596901238">
        <ele>118.38</ele>
        <time>2025-05-04T11:22:55Z</time>
      </trkpt>
      <trkpt lat="39.605907015502453" lon="-9.072389015927911">
        <ele>119.34</ele>
        <time>2025-05-04T11:23:04Z</time>
      </trkpt>
      <trkpt lat="39.605927970260382" lon="-9.072304023429751">
        <ele>120.3</ele>
        <time>2025-05-04T11:23:09Z</time>
      </trkpt>
      <trkpt lat="39.605927970260382" lon="-9.072304023429751">
        <ele>120.3</ele>
        <time>2025-05-04T11:23:10Z</time>
      </trkpt>
      <trkpt lat="39.606049004942179" lon="-9.072248032316566">
        <ele>120.3</ele>
        <time>2025-05-04T11:23:11Z</time>
      </trkpt>
      <trkpt lat="39.606069959700108" lon="-9.072272004559636">
        <ele>119.81999999999999</ele>
        <time>2025-05-04T11:23:12Z</time>
      </trkpt>
      <trkpt lat="39.606093009933829" lon="-9.072305029258132">
        <ele>119.81999999999999</ele>
        <time>2025-05-04T11:23:13Z</time>
      </trkpt>
      <trkpt lat="39.606234999373555" lon="-9.07253896817565">
        <ele>120.78</ele>
        <time>2025-05-04T11:23:22Z</time>
      </trkpt>
      <trkpt lat="39.606357961893082" lon="-9.072691015899181">
        <ele>121.73999999999999</ele>
        <time>2025-05-04T11:23:25Z</time>
      </trkpt>
      <trkpt lat="39.606477990746498" lon="-9.072833005338907">
        <ele>122.22</ele>
        <time>2025-05-04T11:23:28Z</time>
      </trkpt>
      <trkpt lat="39.606507997959852" lon="-9.072868041694164">
        <ele>121.73999999999999</ele>
        <time>2025-05-04T11:23:29Z</time>
      </trkpt>
      <trkpt lat="39.606531970202923" lon="-9.072896959260106">
        <ele>121.73999999999999</ele>
        <time>2025-05-04T11:23:30Z</time>
      </trkpt>
      <trkpt lat="39.606557032093406" lon="-9.07292596064508">
        <ele>121.26000000000001</ele>
        <time>2025-05-04T11:23:31Z</time>
      </trkpt>
      <trkpt lat="39.606572035700083" lon="-9.073013970628381">
        <ele>121.26000000000001</ele>
        <time>2025-05-04T11:23:32Z</time>
      </trkpt>
      <trkpt lat="39.606552002951503" lon="-9.073056969791651">
        <ele>121.26000000000001</ele>
        <time>2025-05-04T11:23:33Z</time>
      </trkpt>
      <trkpt lat="39.606530964374542" lon="-9.073103992268443">
        <ele>120.78</ele>
        <time>2025-05-04T11:23:34Z</time>
      </trkpt>
      <trkpt lat="39.606512021273375" lon="-9.073143973946571">
        <ele>120.78</ele>
        <time>2025-05-04T11:23:35Z</time>
      </trkpt>
      <trkpt lat="39.606492994353175" lon="-9.07318496145308">
        <ele>120.3</ele>
        <time>2025-05-04T11:23:36Z</time>
      </trkpt>
      <trkpt lat="39.606463992968202" lon="-9.07324799336493">
        <ele>119.81999999999999</ele>
        <time>2025-05-04T11:23:37Z</time>
      </trkpt>
      <trkpt lat="39.60646198131144" lon="-9.073270037770271">
        <ele>119.34</ele>
        <time>2025-05-04T11:23:38Z</time>
      </trkpt>
      <trkpt lat="39.606455024331808" lon="-9.073322005569935">
        <ele>118.86</ele>
        <time>2025-05-04T11:23:39Z</time>
      </trkpt>
      <trkpt lat="39.606448989361525" lon="-9.073371039703488">
        <ele>118.38</ele>
        <time>2025-05-04T11:23:40Z</time>
      </trkpt>
      <trkpt lat="39.606443960219622" lon="-9.073409009724855">
        <ele>118.38</ele>
        <time>2025-05-04T11:23:41Z</time>
      </trkpt>
      <trkpt lat="39.606466004624963" lon="-9.073454020544887">
        <ele>117.90000000000001</ele>
        <time>2025-05-04T11:23:42Z</time>
      </trkpt>
      <trkpt lat="39.606443038210273" lon="-9.07341999001801">
        <ele>117.42</ele>
        <time>2025-05-04T11:23:43Z</time>
      </trkpt>
      <trkpt lat="39.606443038210273" lon="-9.07341999001801">
        <ele>116.94</ele>
        <time>2025-05-04T11:23:53Z</time>
      </trkpt>
      <trkpt lat="39.606663985177875" lon="-9.073656024411321">
        <ele>115.98</ele>
        <time>2025-05-04T11:24:03Z</time>
      </trkpt>
      <trkpt lat="39.607151979580522" lon="-9.073886023834348">
        <ele>115.98</ele>
        <time>2025-05-04T11:24:15Z</time>
      </trkpt>
      <trkpt lat="39.607315007597208" lon="-9.07397503964603">
        <ele>115.5</ele>
        <time>2025-05-04T11:24:19Z</time>
      </trkpt>
      <trkpt lat="39.607348032295704" lon="-9.074018960818648">
        <ele>115.01000000000001</ele>
        <time>2025-05-04T11:24:20Z</time>
      </trkpt>
      <trkpt lat="39.607359012588859" lon="-9.074078975245357">
        <ele>114.53</ele>
        <time>2025-05-04T11:24:21Z</time>
      </trkpt>
      <trkpt lat="39.607350965961814" lon="-9.074125997722149">
        <ele>114.05</ele>
        <time>2025-05-04T11:24:22Z</time>
      </trkpt>
      <trkpt lat="39.60734099149704" lon="-9.074176959693432">
        <ele>113.56999999999999</ele>
        <time>2025-05-04T11:24:23Z</time>
      </trkpt>
      <trkpt lat="39.607333028689027" lon="-9.074221970513463">
        <ele>113.09</ele>
        <time>2025-05-04T11:24:24Z</time>
      </trkpt>
      <trkpt lat="39.607324982061982" lon="-9.074271004647017">
        <ele>112.61</ele>
        <time>2025-05-04T11:24:25Z</time>
      </trkpt>
      <trkpt lat="39.607315007597208" lon="-9.074323978275061">
        <ele>112.13</ele>
        <time>2025-05-04T11:24:26Z</time>
      </trkpt>
      <trkpt lat="39.607306038960814" lon="-9.074377035722137">
        <ele>111.65000000000001</ele>
        <time>2025-05-04T11:24:27Z</time>
      </trkpt>
      <trkpt lat="39.607295980677009" lon="-9.074433026835322">
        <ele>111.65000000000001</ele>
        <time>2025-05-04T11:24:28Z</time>
      </trkpt>
      <trkpt lat="39.60727502591908" lon="-9.074550960212946">
        <ele>111.17</ele>
        <time>2025-05-04T11:24:30Z</time>
      </trkpt>
      <trkpt lat="39.607173018157482" lon="-9.074739972129464">
        <ele>110.20999999999999</ele>
        <time>2025-05-04T11:24:33Z</time>
      </trkpt>
      <trkpt lat="39.607090959325433" lon="-9.074832005426288">
        <ele>109.25</ele>
        <time>2025-05-04T11:24:35Z</time>
      </trkpt>
      <trkpt lat="39.607046032324433" lon="-9.074877016246319">
        <ele>109.25</ele>
        <time>2025-05-04T11:24:36Z</time>
      </trkpt>
      <trkpt lat="39.607003033161163" lon="-9.074925966560841">
        <ele>109.25</ele>
        <time>2025-05-04T11:24:37Z</time>
      </trkpt>
      <trkpt lat="39.606557032093406" lon="-9.075530972331762">
        <ele>108.29000000000001</ele>
        <time>2025-05-04T11:24:49Z</time>
      </trkpt>
      <trkpt lat="39.606421999633312" lon="-9.075822997838259">
        <ele>106.36</ele>
        <time>2025-05-04T11:24:55Z</time>
      </trkpt>
      <trkpt lat="39.606384029611945" lon="-9.075857028365135">
        <ele>105.88</ele>
        <time>2025-05-04T11:24:56Z</time>
      </trkpt>
      <trkpt lat="39.606344969943166" lon="-9.075891980901361">
        <ele>105.88</ele>
        <time>2025-05-04T11:24:57Z</time>
      </trkpt>
      <trkpt lat="39.606301970779896" lon="-9.07593104057014">
        <ele>105.88</ele>
        <time>2025-05-04T11:24:58Z</time>
      </trkpt>
      <trkpt lat="39.606261989101768" lon="-9.075968004763126">
        <ele>105.40000000000001</ele>
        <time>2025-05-04T11:24:59Z</time>
      </trkpt>
      <trkpt lat="39.606197029352188" lon="-9.076027013361454">
        <ele>105.40000000000001</ele>
        <time>2025-05-04T11:25:01Z</time>
      </trkpt>
      <trkpt lat="39.606123017147183" lon="-9.076058026403189">
        <ele>105.88</ele>
        <time>2025-05-04T11:25:03Z</time>
      </trkpt>
      <trkpt lat="39.606086974963546" lon="-9.076138995587826">
        <ele>105.88</ele>
        <time>2025-05-04T11:25:04Z</time>
      </trkpt>
      <trkpt lat="39.605839038267732" lon="-9.076473014429212">
        <ele>108.29000000000001</ele>
        <time>2025-05-04T11:25:13Z</time>
      </trkpt>
      <trkpt lat="39.605622030794621" lon="-9.076925972476602">
        <ele>111.65000000000001</ele>
        <time>2025-05-04T11:25:24Z</time>
      </trkpt>
      <trkpt lat="39.605585988610983" lon="-9.077225038781762">
        <ele>112.13</ele>
        <time>2025-05-04T11:25:33Z</time>
      </trkpt>
      <trkpt lat="39.605585988610983" lon="-9.077225038781762">
        <ele>111.65000000000001</ele>
        <time>2025-05-04T11:25:39Z</time>
      </trkpt>
      <trkpt lat="39.605556987226009" lon="-9.077293016016483">
        <ele>112.13</ele>
        <time>2025-05-04T11:25:40Z</time>
      </trkpt>
      <trkpt lat="39.605502001941204" lon="-9.077358981594443">
        <ele>112.61</ele>
        <time>2025-05-04T11:25:41Z</time>
      </trkpt>
      <trkpt lat="39.605480963364244" lon="-9.077348001301289">
        <ele>112.61</ele>
        <time>2025-05-04T11:25:42Z</time>
      </trkpt>
      <trkpt lat="39.605457996949553" lon="-9.077337021008134">
        <ele>112.61</ele>
        <time>2025-05-04T11:25:43Z</time>
      </trkpt>
      <trkpt lat="39.605433018878102" lon="-9.077324029058218">
        <ele>112.61</ele>
        <time>2025-05-04T11:25:44Z</time>
      </trkpt>
      <trkpt lat="39.605408040806651" lon="-9.077311959117651">
        <ele>112.61</ele>
        <time>2025-05-04T11:25:45Z</time>
      </trkpt>
      <trkpt lat="39.605197990313172" lon="-9.077003002166748">
        <ele>112.13</ele>
        <time>2025-05-04T11:25:56Z</time>
      </trkpt>
      <trkpt lat="39.605186004191637" lon="-9.076888002455235">
        <ele>111.65000000000001</ele>
        <time>2025-05-04T11:26:12Z</time>
      </trkpt>
      <trkpt lat="39.605186004191637" lon="-9.076888002455235">
        <ele>111.65000000000001</ele>
        <time>2025-05-04T11:26:28Z</time>
      </trkpt>
      <trkpt lat="39.605247024446726" lon="-9.076871993020177">
        <ele>113.09</ele>
        <time>2025-05-04T11:26:31Z</time>
      </trkpt>
      <trkpt lat="39.605253981426358" lon="-9.076919015496969">
        <ele>113.56999999999999</ele>
        <time>2025-05-04T11:26:32Z</time>
      </trkpt>
      <trkpt lat="39.605295974761248" lon="-9.077196959406138">
        <ele>113.56999999999999</ele>
        <time>2025-05-04T11:26:43Z</time>
      </trkpt>
      <trkpt lat="39.605367975309491" lon="-9.077292010188103">
        <ele>112.61</ele>
        <time>2025-05-04T11:26:55Z</time>
      </trkpt>
      <trkpt lat="39.605450034141541" lon="-9.077332997694612">
        <ele>111.17</ele>
        <time>2025-05-04T11:27:02Z</time>
      </trkpt>
      <trkpt lat="39.605520023033023" lon="-9.077368034049869">
        <ele>111.17</ele>
        <time>2025-05-04T11:27:03Z</time>
      </trkpt>
      <trkpt lat="39.60547199472785" lon="-9.077776987105608">
        <ele>108.77</ele>
        <time>2025-05-04T11:27:18Z</time>
      </trkpt>
      <trkpt lat="39.605438970029354" lon="-9.077860973775387">
        <ele>107.31999999999999</ele>
        <time>2025-05-04T11:27:51Z</time>
      </trkpt>
      <trkpt lat="39.605341991409659" lon="-9.077950995415449">
        <ele>106.84</ele>
        <time>2025-05-04T11:28:04Z</time>
      </trkpt>
      <trkpt lat="39.605197990313172" lon="-9.077969016507268">
        <ele>107.81</ele>
        <time>2025-05-04T11:28:09Z</time>
      </trkpt>
      <trkpt lat="39.605181980878115" lon="-9.077992988750339">
        <ele>108.29000000000001</ele>
        <time>2025-05-04T11:28:10Z</time>
      </trkpt>
      <trkpt lat="39.605166977271438" lon="-9.07801603898406">
        <ele>108.29000000000001</ele>
        <time>2025-05-04T11:28:11Z</time>
      </trkpt>
      <trkpt lat="39.605115009471774" lon="-9.078093990683556">
        <ele>108.29000000000001</ele>
        <time>2025-05-04T11:28:22Z</time>
      </trkpt>
      <trkpt lat="39.605110986158252" lon="-9.078098013997078">
        <ele>109.25</ele>
        <time>2025-05-04T11:28:31Z</time>
      </trkpt>
      <trkpt lat="39.605007972568274" lon="-9.07816699706018">
        <ele>109.25</ele>
        <time>2025-05-04T11:28:43Z</time>
      </trkpt>
      <trkpt lat="39.60493303835392" lon="-9.078183006495237">
        <ele>109.73</ele>
        <time>2025-05-04T11:28:50Z</time>
      </trkpt>
      <trkpt lat="39.604917028918862" lon="-9.078183006495237">
        <ele>109.73</ele>
        <time>2025-05-04T11:28:51Z</time>
      </trkpt>
      <trkpt lat="39.604917028918862" lon="-9.078183006495237">
        <ele>109.73</ele>
        <time>2025-05-04T11:28:52Z</time>
      </trkpt>
      <trkpt lat="39.604734973981977" lon="-9.078132966533303">
        <ele>109.25</ele>
        <time>2025-05-04T11:29:06Z</time>
      </trkpt>
      <trkpt lat="39.604666996747255" lon="-9.077861979603767">
        <ele>109.73</ele>
        <time>2025-05-04T11:29:15Z</time>
      </trkpt>
      <trkpt lat="39.604613017290831" lon="-9.077509017661214">
        <ele>111.17</ele>
        <time>2025-05-04T11:29:26Z</time>
      </trkpt>
      <trkpt lat="39.604613017290831" lon="-9.077509017661214">
        <ele>111.17</ele>
        <time>2025-05-04T11:29:41Z</time>
      </trkpt>
      <trkpt lat="39.604613017290831" lon="-9.077509017661214">
        <ele>111.17</ele>
        <time>2025-05-04T11:30:01Z</time>
      </trkpt>
      <trkpt lat="39.604613017290831" lon="-9.077509017661214">
        <ele>112.13</ele>
        <time>2025-05-04T11:30:25Z</time>
      </trkpt>
      <trkpt lat="39.604645036160946" lon="-9.077440034598112">
        <ele>98.670000000000002</ele>
        <time>2025-05-04T12:40:57Z</time>
      </trkpt>
      <trkpt lat="39.604716030880809" lon="-9.077424025163055">
        <ele>103.95999999999999</ele>
        <time>2025-05-04T12:41:27Z</time>
      </trkpt>
      <trkpt lat="39.604693986475468" lon="-9.077473981305957">
        <ele>115.5</ele>
        <time>2025-05-04T12:42:10Z</time>
      </trkpt>
      <trkpt lat="39.604683006182313" lon="-9.077468030154705">
        <ele>115.01000000000001</ele>
        <time>2025-05-04T12:42:46Z</time>
      </trkpt>
      <trkpt lat="39.604682000353932" lon="-9.077469035983086">
        <ele>115.01000000000001</ele>
        <time>2025-05-04T12:43:21Z</time>
      </trkpt>
      <trkpt lat="39.60467797704041" lon="-9.077470963820815">
        <ele>114.53</ele>
        <time>2025-05-04T12:44:08Z</time>
      </trkpt>
      <trkpt lat="39.604674037545919" lon="-9.077471969649196">
        <ele>115.01000000000001</ele>
        <time>2025-05-04T12:44:53Z</time>
      </trkpt>
      <trkpt lat="39.604672025889158" lon="-9.077469035983086">
        <ele>115.01000000000001</ele>
        <time>2025-05-04T12:45:40Z</time>
      </trkpt>
      <trkpt lat="39.604671020060778" lon="-9.077468030154705">
        <ele>115.01000000000001</ele>
        <time>2025-05-04T12:46:23Z</time>
      </trkpt>
      <trkpt lat="39.604670014232397" lon="-9.077466018497944">
        <ele>115.01000000000001</ele>
        <time>2025-05-04T12:47:13Z</time>
      </trkpt>
      <trkpt lat="39.604665990918875" lon="-9.077466018497944">
        <ele>115.5</ele>
        <time>2025-05-04T12:47:58Z</time>
      </trkpt>
      <trkpt lat="39.604603964835405" lon="-9.077444979920983">
        <ele>115.98</ele>
        <time>2025-05-04T12:48:33Z</time>
      </trkpt>
      <trkpt lat="39.604596002027392" lon="-9.077397035434842">
        <ele>115.98</ele>
        <time>2025-05-04T12:48:34Z</time>
      </trkpt>
      <trkpt lat="39.604588961228728" lon="-9.077345989644527">
        <ele>115.98</ele>
        <time>2025-05-04T12:48:35Z</time>
      </trkpt>
      <trkpt lat="39.604596002027392" lon="-9.076866041868925">
        <ele>114.05</ele>
        <time>2025-05-04T12:48:45Z</time>
      </trkpt>
      <trkpt lat="39.604599019512534" lon="-9.076809966936708">
        <ele>113.56999999999999</ele>
        <time>2025-05-04T12:48:46Z</time>
      </trkpt>
      <trkpt lat="39.604611005634069" lon="-9.076570998877287">
        <ele>112.13</ele>
        <time>2025-05-04T12:48:52Z</time>
      </trkpt>
      <trkpt lat="39.604670014232397" lon="-9.076249971985817">
        <ele>111.17</ele>
        <time>2025-05-04T12:48:58Z</time>
      </trkpt>
      <trkpt lat="39.604683006182313" lon="-9.076208984479308">
        <ele>111.17</ele>
        <time>2025-05-04T12:48:59Z</time>
      </trkpt>
      <trkpt lat="39.604801023378968" lon="-9.076049979776144">
        <ele>110.69</ele>
        <time>2025-05-04T12:49:02Z</time>
      </trkpt>
      <trkpt lat="39.604864977300167" lon="-9.075962975621223">
        <ele>110.69</ele>
        <time>2025-05-04T12:49:04Z</time>
      </trkpt>
      <trkpt lat="39.605003027245402" lon="-9.075776981189847">
        <ele>109.73</ele>
        <time>2025-05-04T12:49:08Z</time>
      </trkpt>
      <trkpt lat="39.605145016685128" lon="-9.075586041435599">
        <ele>109.25</ele>
        <time>2025-05-04T12:49:13Z</time>
      </trkpt>
      <trkpt lat="39.605163037776947" lon="-9.075572965666652">
        <ele>108.77</ele>
        <time>2025-05-04T12:49:14Z</time>
      </trkpt>
      <trkpt lat="39.605181980878115" lon="-9.075557040050626">
        <ele>108.77</ele>
        <time>2025-05-04T12:49:15Z</time>
      </trkpt>
      <trkpt lat="39.605333022773266" lon="-9.075373979285359">
        <ele>107.31999999999999</ele>
        <time>2025-05-04T12:49:21Z</time>
      </trkpt>
      <trkpt lat="39.605351965874434" lon="-9.075345983728766">
        <ele>106.84</ele>
        <time>2025-05-04T12:49:22Z</time>
      </trkpt>
      <trkpt lat="39.605375016108155" lon="-9.075311031192541">
        <ele>106.84</ele>
        <time>2025-05-04T12:49:23Z</time>
      </trkpt>
      <trkpt lat="39.605463026091456" lon="-9.075163006782532">
        <ele>105.88</ele>
        <time>2025-05-04T12:49:27Z</time>
      </trkpt>
      <trkpt lat="39.605489009991288" lon="-9.07511699013412">
        <ele>105.40000000000001</ele>
        <time>2025-05-04T12:49:28Z</time>
      </trkpt>
      <trkpt lat="39.605641979724169" lon="-9.074837034568191">
        <ele>103.95999999999999</ele>
        <time>2025-05-04T12:49:34Z</time>
      </trkpt>
      <trkpt lat="39.605669975280762" lon="-9.07475003041327">
        <ele>103.48</ele>
        <time>2025-05-04T12:49:36Z</time>
      </trkpt>
      <trkpt lat="39.605813976377249" lon="-9.074463034048677">
        <ele>103</ele>
        <time>2025-05-04T12:49:41Z</time>
      </trkpt>
      <trkpt lat="39.605833003297448" lon="-9.07440603710711">
        <ele>103</ele>
        <time>2025-05-04T12:49:42Z</time>
      </trkpt>
      <trkpt lat="39.605864016339183" lon="-9.07429900020361">
        <ele>103</ele>
        <time>2025-05-04T12:49:43Z</time>
      </trkpt>
      <trkpt lat="39.605824034661055" lon="-9.074108982458711">
        <ele>102.52</ele>
        <time>2025-05-04T12:49:46Z</time>
      </trkpt>
      <trkpt lat="39.605810958892107" lon="-9.074047962203622">
        <ele>102.52</ele>
        <time>2025-05-04T12:49:47Z</time>
      </trkpt>
      <trkpt lat="39.605797966942191" lon="-9.073985014110804">
        <ele>102.52</ele>
        <time>2025-05-04T12:49:48Z</time>
      </trkpt>
      <trkpt lat="39.605784974992275" lon="-9.073921982198954">
        <ele>102.52</ele>
        <time>2025-05-04T12:49:49Z</time>
      </trkpt>
      <trkpt lat="39.605771983042359" lon="-9.073860039934516">
        <ele>102.52</ele>
        <time>2025-05-04T12:49:50Z</time>
      </trkpt>
      <trkpt lat="39.605762008577585" lon="-9.073809999972582">
        <ele>102.04000000000001</ele>
        <time>2025-05-04T12:49:51Z</time>
      </trkpt>
      <trkpt lat="39.605753961950541" lon="-9.073770018294454">
        <ele>102.04000000000001</ele>
        <time>2025-05-04T12:49:52Z</time>
      </trkpt>
      <trkpt lat="39.605748010799289" lon="-9.073736993595958">
        <ele>101.56</ele>
        <time>2025-05-04T12:49:53Z</time>
      </trkpt>
      <trkpt lat="39.605744993314147" lon="-9.073716038838029">
        <ele>101.56</ele>
        <time>2025-05-04T12:49:54Z</time>
      </trkpt>
      <trkpt lat="39.605744993314147" lon="-9.073716038838029">
        <ele>101.56</ele>
        <time>2025-05-04T12:49:55Z</time>
      </trkpt>
      <trkpt lat="39.605744993314147" lon="-9.073716038838029">
        <ele>101.56</ele>
        <time>2025-05-04T12:49:56Z</time>
      </trkpt>
      <trkpt lat="39.605737030506134" lon="-9.073672033846378">
        <ele>102.04000000000001</ele>
        <time>2025-05-04T12:49:57Z</time>
      </trkpt>
      <trkpt lat="39.605669975280762" lon="-9.073570026084781">
        <ele>103</ele>
        <time>2025-05-04T12:49:58Z</time>
      </trkpt>
      <trkpt lat="39.60572998970747" lon="-9.073617970570922">
        <ele>103</ele>
        <time>2025-05-04T12:49:59Z</time>
      </trkpt>
      <trkpt lat="39.605723032727838" lon="-9.073558039963245">
        <ele>103</ele>
        <time>2025-05-04T12:50:00Z</time>
      </trkpt>
      <trkpt lat="39.605712974444032" lon="-9.073484027758241">
        <ele>103</ele>
        <time>2025-05-04T12:50:01Z</time>
      </trkpt>
      <trkpt lat="39.605722026899457" lon="-9.073413033038378">
        <ele>103</ele>
        <time>2025-05-04T12:50:02Z</time>
      </trkpt>
      <trkpt lat="39.60577298887074" lon="-9.07300902530551">
        <ele>102.52</ele>
        <time>2025-05-04T12:50:07Z</time>
      </trkpt>
      <trkpt lat="39.605800984427333" lon="-9.072863012552261">
        <ele>102.52</ele>
        <time>2025-05-04T12:50:09Z</time>
      </trkpt>
      <trkpt lat="39.605816993862391" lon="-9.07279402948916">
        <ele>102.52</ele>
        <time>2025-05-04T12:50:10Z</time>
      </trkpt>
      <trkpt lat="39.605831997469068" lon="-9.072718005627394">
        <ele>102.04000000000001</ele>
        <time>2025-05-04T12:50:11Z</time>
      </trkpt>
      <trkpt lat="39.605848006904125" lon="-9.072637036442757">
        <ele>102.52</ele>
        <time>2025-05-04T12:50:12Z</time>
      </trkpt>
      <trkpt lat="39.605865022167563" lon="-9.072555983439088">
        <ele>102.52</ele>
        <time>2025-05-04T12:50:13Z</time>
      </trkpt>
      <trkpt lat="39.605979016050696" lon="-9.072106964886189">
        <ele>103.95999999999999</ele>
        <time>2025-05-04T12:50:20Z</time>
      </trkpt>
      <trkpt lat="39.606179008260369" lon="-9.07122602686286">
        <ele>108.29000000000001</ele>
        <time>2025-05-04T12:50:28Z</time>
      </trkpt>
      <trkpt lat="39.606526019051671" lon="-9.070133026689291">
        <ele>108.29000000000001</ele>
        <time>2025-05-04T12:50:36Z</time>
      </trkpt>
      <trkpt lat="39.607035974040627" lon="-9.068804997950792">
        <ele>105.40000000000001</ele>
        <time>2025-05-04T12:50:45Z</time>
      </trkpt>
      <trkpt lat="39.607812976464629" lon="-9.067202964797616">
        <ele>97.230000000000004</ele>
        <time>2025-05-04T12:50:57Z</time>
      </trkpt>
      <trkpt lat="39.607867039740086" lon="-9.067073967307806">
        <ele>96.75</ele>
        <time>2025-05-04T12:50:58Z</time>
      </trkpt>
      <trkpt lat="39.607923030853271" lon="-9.066939018666744">
        <ele>96.269999999999996</ele>
        <time>2025-05-04T12:50:59Z</time>
      </trkpt>
      <trkpt lat="39.607958989217877" lon="-9.066815972328186">
        <ele>95.790000000000006</ele>
        <time>2025-05-04T12:51:00Z</time>
      </trkpt>
      <trkpt lat="39.607977010309696" lon="-9.066682029515505">
        <ele>95.310000000000002</ele>
        <time>2025-05-04T12:51:01Z</time>
      </trkpt>
      <trkpt lat="39.607983967289329" lon="-9.066554037854075">
        <ele>94.829999999999998</ele>
        <time>2025-05-04T12:51:02Z</time>
      </trkpt>
      <trkpt lat="39.60796401835978" lon="-9.066448006778956">
        <ele>94.349999999999994</ele>
        <time>2025-05-04T12:51:03Z</time>
      </trkpt>
      <trkpt lat="39.607947003096342" lon="-9.066357985138893">
        <ele>93.870000000000005</ele>
        <time>2025-05-04T12:51:04Z</time>
      </trkpt>
      <trkpt lat="39.607923030853271" lon="-9.066230999305844">
        <ele>93.870000000000005</ele>
        <time>2025-05-04T12:51:05Z</time>
      </trkpt>
      <trkpt lat="39.607910038903356" lon="-9.066204009577632">
        <ele>93.390000000000001</ele>
        <time>2025-05-04T12:51:06Z</time>
      </trkpt>
      <trkpt lat="39.607844995334744" lon="-9.066074006259441">
        <ele>92.420000000000002</ele>
        <time>2025-05-04T12:51:08Z</time>
      </trkpt>
      <trkpt lat="39.607645003125072" lon="-9.065994964912534">
        <ele>91.459999999999994</ele>
        <time>2025-05-04T12:51:10Z</time>
      </trkpt>
      <trkpt lat="39.607645003125072" lon="-9.065994964912534">
        <ele>90.980000000000004</ele>
        <time>2025-05-04T12:51:11Z</time>
      </trkpt>
      <trkpt lat="39.607463032007217" lon="-9.065890023484826">
        <ele>90.5</ele>
        <time>2025-05-04T12:51:12Z</time>
      </trkpt>
      <trkpt lat="39.60633298382163" lon="-9.066354967653751">
        <ele>78.969999999999999</ele>
        <time>2025-05-04T12:51:22Z</time>
      </trkpt>
      <trkpt lat="39.605450034141541" lon="-9.066566023975611">
        <ele>69.829999999999998</ele>
        <time>2025-05-04T12:51:31Z</time>
      </trkpt>
      <trkpt lat="39.604472033679485" lon="-9.066795017570257">
        <ele>63.579999999999998</ele>
        <time>2025-05-04T12:51:40Z</time>
      </trkpt>
      <trkpt lat="39.60437698289752" lon="-9.066827036440373">
        <ele>63.100000000000001</ele>
        <time>2025-05-04T12:51:41Z</time>
      </trkpt>
      <trkpt lat="39.604286961257458" lon="-9.066876992583275">
        <ele>62.619999999999997</ele>
        <time>2025-05-04T12:51:42Z</time>
      </trkpt>
      <trkpt lat="39.604195011779666" lon="-9.06693197786808">
        <ele>62.140000000000001</ele>
        <time>2025-05-04T12:51:43Z</time>
      </trkpt>
      <trkpt lat="39.604102978482842" lon="-9.067004984244704">
        <ele>61.659999999999997</ele>
        <time>2025-05-04T12:51:44Z</time>
      </trkpt>
      <trkpt lat="39.604023015126586" lon="-9.067085031419992">
        <ele>61.18</ele>
        <time>2025-05-04T12:51:45Z</time>
      </trkpt>
      <trkpt lat="39.603943973779678" lon="-9.067163988947868">
        <ele>60.219999999999999</ele>
        <time>2025-05-04T12:51:46Z</time>
      </trkpt>
      <trkpt lat="39.603803995996714" lon="-9.067432964220643">
        <ele>59.259999999999998</ele>
        <time>2025-05-04T12:51:48Z</time>
      </trkpt>
      <trkpt lat="39.603782035410404" lon="-9.067475963383913">
        <ele>59.259999999999998</ele>
        <time>2025-05-04T12:51:49Z</time>
      </trkpt>
      <trkpt lat="39.603686984628439" lon="-9.067518962547183">
        <ele>58.780000000000001</ele>
        <time>2025-05-04T12:51:50Z</time>
      </trkpt>
      <trkpt lat="39.60259297862649" lon="-9.067814005538821">
        <ele>50.609999999999999</ele>
        <time>2025-05-04T12:52:01Z</time>
      </trkpt>
      <trkpt lat="39.60177599452436" lon="-9.06772498972714">
        <ele>45.799999999999997</ele>
        <time>2025-05-04T12:52:11Z</time>
      </trkpt>
      <trkpt lat="39.601621013134718" lon="-9.06768299639225">
        <ele>43.880000000000003</ele>
        <time>2025-05-04T12:52:20Z</time>
      </trkpt>
      <trkpt lat="39.601578013971448" lon="-9.067671010270715">
        <ele>43.880000000000003</ele>
        <time>2025-05-04T12:52:21Z</time>
      </trkpt>
      <trkpt lat="39.601425966247916" lon="-9.067777963355184">
        <ele>43.880000000000003</ele>
        <time>2025-05-04T12:52:22Z</time>
      </trkpt>
      <trkpt lat="39.601426972076297" lon="-9.067777963355184">
        <ele>43.880000000000003</ele>
        <time>2025-05-04T12:52:23Z</time>
      </trkpt>
      <trkpt lat="39.60136997513473" lon="-9.067690037190914">
        <ele>44.359999999999999</ele>
        <time>2025-05-04T12:52:24Z</time>
      </trkpt>
      <trkpt lat="39.601386990398169" lon="-9.067593980580568">
        <ele>44.359999999999999</ele>
        <time>2025-05-04T12:52:25Z</time>
      </trkpt>
      <trkpt lat="39.601399982348084" lon="-9.067561961710453">
        <ele>44.840000000000003</ele>
        <time>2025-05-04T12:52:26Z</time>
      </trkpt>
      <trkpt lat="39.601437030360103" lon="-9.067379990592599">
        <ele>44.840000000000003</ele>
        <time>2025-05-04T12:52:27Z</time>
      </trkpt>
      <trkpt lat="39.601416997611523" lon="-9.06727203167975">
        <ele>45.32</ele>
        <time>2025-05-04T12:52:28Z</time>
      </trkpt>
      <trkpt lat="39.601396964862943" lon="-9.067140016704798">
        <ele>45.799999999999997</ele>
        <time>2025-05-04T12:52:29Z</time>
      </trkpt>
      <trkpt lat="39.601363018155098" lon="-9.066997021436691">
        <ele>46.280000000000001</ele>
        <time>2025-05-04T12:52:30Z</time>
      </trkpt>
      <trkpt lat="39.601294035091996" lon="-9.066874980926514">
        <ele>47.240000000000002</ele>
        <time>2025-05-04T12:52:31Z</time>
      </trkpt>
      <trkpt lat="39.600921962410212" lon="-9.066080041229725">
        <ele>54.450000000000003</ele>
        <time>2025-05-04T12:52:38Z</time>
      </trkpt>
      <trkpt lat="39.600780978798866" lon="-9.065723977982998">
        <ele>57.82</ele>
        <time>2025-05-04T12:52:41Z</time>
      </trkpt>
      <trkpt lat="39.600714007392526" lon="-9.065613001585007">
        <ele>58.780000000000001</ele>
        <time>2025-05-04T12:52:42Z</time>
      </trkpt>
      <trkpt lat="39.600647035986185" lon="-9.065503031015396">
        <ele>59.259999999999998</ele>
        <time>2025-05-04T12:52:43Z</time>
      </trkpt>
      <trkpt lat="39.600574029609561" lon="-9.065410997718573">
        <ele>60.219999999999999</ele>
        <time>2025-05-04T12:52:44Z</time>
      </trkpt>
      <trkpt lat="39.600477972999215" lon="-9.065330028533936">
        <ele>61.18</ele>
        <time>2025-05-04T12:52:45Z</time>
      </trkpt>
      <trkpt lat="39.600373031571507" lon="-9.065307984128594">
        <ele>62.140000000000001</ele>
        <time>2025-05-04T12:52:46Z</time>
      </trkpt>
      <trkpt lat="39.600049993023276" lon="-9.065239001065493">
        <ele>65.030000000000001</ele>
        <time>2025-05-04T12:52:49Z</time>
      </trkpt>
      <trkpt lat="39.599945973604918" lon="-9.065217962488532">
        <ele>65.989999999999995</ele>
        <time>2025-05-04T12:52:50Z</time>
      </trkpt>
      <trkpt lat="39.59984396584332" lon="-9.065196001902223">
        <ele>66.950000000000003</ele>
        <time>2025-05-04T12:52:51Z</time>
      </trkpt>
      <trkpt lat="39.599748998880386" lon="-9.065164988860488">
        <ele>67.909999999999997</ele>
        <time>2025-05-04T12:52:52Z</time>
      </trkpt>
      <trkpt lat="39.599658977240324" lon="-9.065098017454147">
        <ele>68.390000000000001</ele>
        <time>2025-05-04T12:52:53Z</time>
      </trkpt>
      <trkpt lat="39.599571973085403" lon="-9.065033979713917">
        <ele>69.349999999999994</ele>
        <time>2025-05-04T12:52:54Z</time>
      </trkpt>
      <trkpt lat="39.599484968930483" lon="-9.064970025792718">
        <ele>69.829999999999998</ele>
        <time>2025-05-04T12:52:55Z</time>
      </trkpt>
      <trkpt lat="39.599237032234669" lon="-9.064759975299239">
        <ele>72.719999999999999</ele>
        <time>2025-05-04T12:52:58Z</time>
      </trkpt>
      <trkpt lat="39.599171988666058" lon="-9.064666014164686">
        <ele>73.680000000000007</ele>
        <time>2025-05-04T12:52:59Z</time>
      </trkpt>
      <trkpt lat="39.599119015038013" lon="-9.064575992524624">
        <ele>75.120000000000005</ele>
        <time>2025-05-04T12:53:00Z</time>
      </trkpt>
      <trkpt lat="39.59909001365304" lon="-9.064468033611774">
        <ele>75.599999999999994</ele>
        <time>2025-05-04T12:53:01Z</time>
      </trkpt>
      <trkpt lat="39.599064029753208" lon="-9.064355967566371">
        <ele>76.560000000000002</ele>
        <time>2025-05-04T12:53:02Z</time>
      </trkpt>
      <trkpt lat="39.599094036966562" lon="-9.064248008653522">
        <ele>77.519999999999996</ele>
        <time>2025-05-04T12:53:03Z</time>
      </trkpt>
      <trkpt lat="39.599187998101115" lon="-9.063908038660884">
        <ele>79.450000000000003</ele>
        <time>2025-05-04T12:53:06Z</time>
      </trkpt>
      <trkpt lat="39.599222028627992" lon="-9.063788009807468">
        <ele>80.409999999999997</ele>
        <time>2025-05-04T12:53:07Z</time>
      </trkpt>
      <trkpt lat="39.599388996139169" lon="-9.063146961852908">
        <ele>84.730000000000004</ele>
        <time>2025-05-04T12:53:12Z</time>
      </trkpt>
      <trkpt lat="39.599405005574226" lon="-9.062714036554098">
        <ele>87.620000000000005</ele>
        <time>2025-05-04T12:53:15Z</time>
      </trkpt>
      <trkpt lat="39.599405005574226" lon="-9.062560983002186">
        <ele>88.579999999999998</ele>
        <time>2025-05-04T12:53:16Z</time>
      </trkpt>
      <trkpt lat="39.599141981452703" lon="-9.061190038919449">
        <ele>96.75</ele>
        <time>2025-05-04T12:53:25Z</time>
      </trkpt>
      <trkpt lat="39.599063023924828" lon="-9.060946963727474">
        <ele>98.189999999999998</ele>
        <time>2025-05-04T12:53:27Z</time>
      </trkpt>
      <trkpt lat="39.599019018933177" lon="-9.060824001207948">
        <ele>98.670000000000002</ele>
        <time>2025-05-04T12:53:28Z</time>
      </trkpt>
      <trkpt lat="39.598969984799623" lon="-9.060743032023311">
        <ele>99.150000000000006</ele>
        <time>2025-05-04T12:53:29Z</time>
      </trkpt>
      <trkpt lat="39.598953975364566" lon="-9.060716964304447">
        <ele>99.150000000000006</ele>
        <time>2025-05-04T12:53:30Z</time>
      </trkpt>
      <trkpt lat="39.598907958716154" lon="-9.060602970421314">
        <ele>99.150000000000006</ele>
        <time>2025-05-04T12:53:31Z</time>
      </trkpt>
      <trkpt lat="39.598874012008309" lon="-9.060533987358213">
        <ele>99.150000000000006</ele>
        <time>2025-05-04T12:53:32Z</time>
      </trkpt>
      <trkpt lat="39.598739985376596" lon="-9.060524012893438">
        <ele>98.670000000000002</ele>
        <time>2025-05-04T12:53:33Z</time>
      </trkpt>
      <trkpt lat="39.598721964284778" lon="-9.060461986809969">
        <ele>99.150000000000006</ele>
        <time>2025-05-04T12:53:34Z</time>
      </trkpt>
      <trkpt lat="39.598704027011991" lon="-9.060399038717151">
        <ele>99.150000000000006</ele>
        <time>2025-05-04T12:53:35Z</time>
      </trkpt>
      <trkpt lat="39.598761023953557" lon="-9.060287978500128">
        <ele>99.150000000000006</ele>
        <time>2025-05-04T12:53:36Z</time>
      </trkpt>
      <trkpt lat="39.598895972594619" lon="-9.060187982395291">
        <ele>98.670000000000002</ele>
        <time>2025-05-04T12:53:37Z</time>
      </trkpt>
      <trkpt lat="39.598919022828341" lon="-9.060087986290455">
        <ele>98.670000000000002</ele>
        <time>2025-05-04T12:53:38Z</time>
      </trkpt>
      <trkpt lat="39.598924973979592" lon="-9.059953037649393">
        <ele>98.189999999999998</ele>
        <time>2025-05-04T12:53:39Z</time>
      </trkpt>
      <trkpt lat="39.598911982029676" lon="-9.059824040159583">
        <ele>97.709999999999994</ele>
        <time>2025-05-04T12:53:40Z</time>
      </trkpt>
      <trkpt lat="39.598898990079761" lon="-9.059688001871109">
        <ele>96.75</ele>
        <time>2025-05-04T12:53:41Z</time>
      </trkpt>
      <trkpt lat="39.598845010623336" lon="-9.059531008824706">
        <ele>95.790000000000006</ele>
        <time>2025-05-04T12:53:42Z</time>
      </trkpt>
      <trkpt lat="39.598769992589951" lon="-9.059417014941573">
        <ele>94.829999999999998</ele>
        <time>2025-05-04T12:53:43Z</time>
      </trkpt>
      <trkpt lat="39.598694974556565" lon="-9.059301009401679">
        <ele>93.390000000000001</ele>
        <time>2025-05-04T12:53:44Z</time>
      </trkpt>
      <trkpt lat="39.598624985665083" lon="-9.059192966669798">
        <ele>91.939999999999998</ele>
        <time>2025-05-04T12:53:45Z</time>
      </trkpt>
      <trkpt lat="39.598592966794968" lon="-9.059101017192006">
        <ele>90.5</ele>
        <time>2025-05-04T12:53:46Z</time>
      </trkpt>
      <trkpt lat="39.598536975681782" lon="-9.058875041082501">
        <ele>88.579999999999998</ele>
        <time>2025-05-04T12:53:49Z</time>
      </trkpt>
      <trkpt lat="39.598332038149238" lon="-9.058763980865479">
        <ele>88.099999999999994</ele>
        <time>2025-05-04T12:53:50Z</time>
      </trkpt>
      <trkpt lat="39.598332038149238" lon="-9.058763980865479">
        <ele>87.620000000000005</ele>
        <time>2025-05-04T12:53:51Z</time>
      </trkpt>
      <trkpt lat="39.59810396656394" lon="-9.058541022241116">
        <ele>86.659999999999997</ele>
        <time>2025-05-04T12:53:52Z</time>
      </trkpt>
      <trkpt lat="39.59810396656394" lon="-9.058541022241116">
        <ele>85.689999999999998</ele>
        <time>2025-05-04T12:53:53Z</time>
      </trkpt>
      <trkpt lat="39.597987961024046" lon="-9.05855200253427">
        <ele>84.730000000000004</ele>
        <time>2025-05-04T12:53:54Z</time>
      </trkpt>
      <trkpt lat="39.597859969362617" lon="-9.058569017797709">
        <ele>83.769999999999996</ele>
        <time>2025-05-04T12:53:55Z</time>
      </trkpt>
      <trkpt lat="39.596519032493234" lon="-9.058717964217067">
        <ele>76.560000000000002</ele>
        <time>2025-05-04T12:54:03Z</time>
      </trkpt>
      <trkpt lat="39.594375025480986" lon="-9.05902398750186">
        <ele>62.619999999999997</ele>
        <time>2025-05-04T12:54:13Z</time>
      </trkpt>
      <trkpt lat="39.592735022306442" lon="-9.059843989089131">
        <ele>54.450000000000003</ele>
        <time>2025-05-04T12:54:21Z</time>
      </trkpt>
      <trkpt lat="39.590488001704216" lon="-9.061674010008574">
        <ele>51.57</ele>
        <time>2025-05-04T12:54:33Z</time>
      </trkpt>
      <trkpt lat="39.588160011917353" lon="-9.063318036496639">
        <ele>51.090000000000003</ele>
        <time>2025-05-04T12:54:45Z</time>
      </trkpt>
      <trkpt lat="39.586636014282703" lon="-9.063621964305639">
        <ele>51.090000000000003</ele>
        <time>2025-05-04T12:54:52Z</time>
      </trkpt>
      <trkpt lat="39.583737971261144" lon="-9.063691031187773">
        <ele>52.530000000000001</ele>
        <time>2025-05-04T12:55:05Z</time>
      </trkpt>
      <trkpt lat="39.582222020253539" lon="-9.06409403309226">
        <ele>52.049999999999997</ele>
        <time>2025-05-04T12:55:12Z</time>
      </trkpt>
      <trkpt lat="39.579822029918432" lon="-9.065586011856794">
        <ele>45.32</ele>
        <time>2025-05-04T12:55:24Z</time>
      </trkpt>
      <trkpt lat="39.578041965141892" lon="-9.066476002335548">
        <ele>41.469999999999999</ele>
        <time>2025-05-04T12:55:33Z</time>
      </trkpt>
      <trkpt lat="39.577167984098196" lon="-9.066981012001634">
        <ele>38.109999999999999</ele>
        <time>2025-05-04T12:55:40Z</time>
      </trkpt>
      <trkpt lat="39.577076034620404" lon="-9.067045971751213">
        <ele>37.630000000000003</ele>
        <time>2025-05-04T12:55:41Z</time>
      </trkpt>
      <trkpt lat="39.576993975788355" lon="-9.067104980349541">
        <ele>37.630000000000003</ele>
        <time>2025-05-04T12:55:42Z</time>
      </trkpt>
      <trkpt lat="39.576890962198377" lon="-9.067201958969235">
        <ele>37.149999999999999</ele>
        <time>2025-05-04T12:55:43Z</time>
      </trkpt>
      <trkpt lat="39.576867995783687" lon="-9.06731503084302">
        <ele>36.670000000000002</ele>
        <time>2025-05-04T12:55:44Z</time>
      </trkpt>
      <trkpt lat="39.576819967478514" lon="-9.06740396283567">
        <ele>36.189999999999998</ele>
        <time>2025-05-04T12:55:45Z</time>
      </trkpt>
      <trkpt lat="39.576735980808735" lon="-9.067442016676068">
        <ele>35.710000000000001</ele>
        <time>2025-05-04T12:55:46Z</time>
      </trkpt>
      <trkpt lat="39.576625004410744" lon="-9.067442016676068">
        <ele>35.229999999999997</ele>
        <time>2025-05-04T12:55:47Z</time>
      </trkpt>
      <trkpt lat="39.576573958620429" lon="-9.067389965057373">
        <ele>34.740000000000002</ele>
        <time>2025-05-04T12:55:48Z</time>
      </trkpt>
      <trkpt lat="39.576418977230787" lon="-9.067319976165891">
        <ele>34.740000000000002</ele>
        <time>2025-05-04T12:55:49Z</time>
      </trkpt>
      <trkpt lat="39.576305989176035" lon="-9.06735803000629">
        <ele>34.740000000000002</ele>
        <time>2025-05-04T12:55:50Z</time>
      </trkpt>
      <trkpt lat="39.576172968372703" lon="-9.067394994199276">
        <ele>34.259999999999998</ele>
        <time>2025-05-04T12:55:51Z</time>
      </trkpt>
      <trkpt lat="39.574482003226876" lon="-9.06776899471879">
        <ele>29.460000000000001</ele>
        <time>2025-05-04T12:56:02Z</time>
      </trkpt>
      <trkpt lat="39.572518039494753" lon="-9.068006034940481">
        <ele>22.25</ele>
        <time>2025-05-04T12:56:13Z</time>
      </trkpt>
      <trkpt lat="39.570519039407372" lon="-9.068021960556507">
        <ele>14.56</ele>
        <time>2025-05-04T12:56:23Z</time>
      </trkpt>
      <trkpt lat="39.569756034761667" lon="-9.068045010790229">
        <ele>12.15</ele>
        <time>2025-05-04T12:56:27Z</time>
      </trkpt>
      <trkpt lat="39.568285010755062" lon="-9.068382969126105">
        <ele>7.83</ele>
        <time>2025-05-04T12:56:34Z</time>
      </trkpt>
      <trkpt lat="39.566774005070329" lon="-9.068769961595535">
        <ele>5.91</ele>
        <time>2025-05-04T12:56:41Z</time>
      </trkpt>
      <trkpt lat="39.565068036317825" lon="-9.069291986525059">
        <ele>4.46</ele>
        <time>2025-05-04T12:56:49Z</time>
      </trkpt>
      <trkpt lat="39.564855974167585" lon="-9.069310007616878">
        <ele>3.98</ele>
        <time>2025-05-04T12:56:50Z</time>
      </trkpt>
      <trkpt lat="39.56465195864439" lon="-9.069327022880316">
        <ele>3.5</ele>
        <time>2025-05-04T12:56:51Z</time>
      </trkpt>
      <trkpt lat="39.564459007233381" lon="-9.069340014830232">
        <ele>3.5</ele>
        <time>2025-05-04T12:56:52Z</time>
      </trkpt>
      <trkpt lat="39.564277036115527" lon="-9.069296009838581">
        <ele>3.5</ele>
        <time>2025-05-04T12:56:53Z</time>
      </trkpt>
      <trkpt lat="39.563246984034777" lon="-9.069020999595523">
        <ele>1.58</ele>
        <time>2025-05-04T12:57:00Z</time>
      </trkpt>
      <trkpt lat="39.561975030228496" lon="-9.068712964653969">
        <ele>0.62</ele>
        <time>2025-05-04T12:57:11Z</time>
      </trkpt>
      <trkpt lat="39.561616033315659" lon="-9.068654961884022">
        <ele>1.58</ele>
        <time>2025-05-04T12:57:14Z</time>
      </trkpt>
      <trkpt lat="39.56003000959754" lon="-9.068691004067659">
        <ele>7.35</ele>
        <time>2025-05-04T12:57:27Z</time>
      </trkpt>
      <trkpt lat="39.558229995891452" lon="-9.069025022909045">
        <ele>8.310000000000001</ele>
        <time>2025-05-04T12:57:42Z</time>
      </trkpt>
      <trkpt lat="39.556967010721564" lon="-9.069412015378475">
        <ele>7.35</ele>
        <time>2025-05-04T12:57:52Z</time>
      </trkpt>
      <trkpt lat="39.555061971768737" lon="-9.070065971463919">
        <ele>9.27</ele>
        <time>2025-05-04T12:58:03Z</time>
      </trkpt>
      <trkpt lat="39.552720990031958" lon="-9.070892008021474">
        <ele>10.23</ele>
        <time>2025-05-04T12:58:15Z</time>
      </trkpt>
      <trkpt lat="39.551718011498451" lon="-9.071318982169032">
        <ele>10.23</ele>
        <time>2025-05-04T12:58:20Z</time>
      </trkpt>
      <trkpt lat="39.55051202327013" lon="-9.072359008714557">
        <ele>9.27</ele>
        <time>2025-05-04T12:58:28Z</time>
      </trkpt>
      <trkpt lat="39.548860033974051" lon="-9.074237979948521">
        <ele>10.710000000000001</ele>
        <time>2025-05-04T12:58:41Z</time>
      </trkpt>
      <trkpt lat="39.546986008062959" lon="-9.076453987509012">
        <ele>13.6</ele>
        <time>2025-05-04T12:58:56Z</time>
      </trkpt>
      <trkpt lat="39.546234989538789" lon="-9.077729964628816">
        <ele>15.039999999999999</ele>
        <time>2025-05-04T12:59:03Z</time>
      </trkpt>
      <trkpt lat="39.546126024797559" lon="-9.077901961281896">
        <ele>15.039999999999999</ele>
        <time>2025-05-04T12:59:04Z</time>
      </trkpt>
      <trkpt lat="39.544658018276095" lon="-9.079195037484169">
        <ele>16</ele>
        <time>2025-05-04T12:59:14Z</time>
      </trkpt>
      <trkpt lat="39.544512005522847" lon="-9.079286986961961">
        <ele>15.52</ele>
        <time>2025-05-04T12:59:16Z</time>
      </trkpt>
      <trkpt lat="39.544363981112838" lon="-9.079380026087165">
        <ele>15.039999999999999</ele>
        <time>2025-05-04T12:59:17Z</time>
      </trkpt>
      <trkpt lat="39.542332040145993" lon="-9.080312009900808">
        <ele>17.920000000000002</ele>
        <time>2025-05-04T12:59:30Z</time>
      </trkpt>
      <trkpt lat="39.540847018361092" lon="-9.080907963216305">
        <ele>19.84</ele>
        <time>2025-05-04T12:59:41Z</time>
      </trkpt>
      <trkpt lat="39.540723972022533" lon="-9.080907963216305">
        <ele>19.84</ele>
        <time>2025-05-04T12:59:42Z</time>
      </trkpt>
      <trkpt lat="39.539688974618912" lon="-9.080822970718145">
        <ele>22.25</ele>
        <time>2025-05-04T12:59:51Z</time>
      </trkpt>
      <trkpt lat="39.539570035412908" lon="-9.080822970718145">
        <ele>22.73</ele>
        <time>2025-05-04T12:59:52Z</time>
      </trkpt>
      <trkpt lat="39.539452018216252" lon="-9.08083101734519">
        <ele>23.210000000000001</ele>
        <time>2025-05-04T12:59:53Z</time>
      </trkpt>
      <trkpt lat="39.538636039942503" lon="-9.081141985952854">
        <ele>25.129999999999999</ele>
        <time>2025-05-04T13:00:00Z</time>
      </trkpt>
      <trkpt lat="39.538518022745848" lon="-9.081195965409279">
        <ele>25.609999999999999</ele>
        <time>2025-05-04T13:00:01Z</time>
      </trkpt>
      <trkpt lat="39.538412997499108" lon="-9.081279030069709">
        <ele>25.609999999999999</ele>
        <time>2025-05-04T13:00:02Z</time>
      </trkpt>
      <trkpt lat="39.538306966423988" lon="-9.081362010911107">
        <ele>26.09</ele>
        <time>2025-05-04T13:00:03Z</time>
      </trkpt>
      <trkpt lat="39.538210993632674" lon="-9.081457983702421">
        <ele>26.09</ele>
        <time>2025-05-04T13:00:04Z</time>
      </trkpt>
      <trkpt lat="39.538145028054714" lon="-9.08158496953547">
        <ele>26.09</ele>
        <time>2025-05-04T13:00:05Z</time>
      </trkpt>
      <trkpt lat="39.538076967000961" lon="-9.081714972853661">
        <ele>26.09</ele>
        <time>2025-05-04T13:00:06Z</time>
      </trkpt>
      <trkpt lat="39.53800798393786" lon="-9.081845982000232">
        <ele>26.09</ele>
        <time>2025-05-04T13:00:07Z</time>
      </trkpt>
      <trkpt lat="39.537941012531519" lon="-9.081973973661661">
        <ele>26.57</ele>
        <time>2025-05-04T13:00:08Z</time>
      </trkpt>
      <trkpt lat="39.537875968962908" lon="-9.082099031656981">
        <ele>26.57</ele>
        <time>2025-05-04T13:00:09Z</time>
      </trkpt>
      <trkpt lat="39.537808997556567" lon="-9.082226017490029">
        <ele>26.57</ele>
        <time>2025-05-04T13:00:10Z</time>
      </trkpt>
      <trkpt lat="39.537744959816337" lon="-9.082349985837936">
        <ele>26.57</ele>
        <time>2025-05-04T13:00:11Z</time>
      </trkpt>
      <trkpt lat="39.537650998681784" lon="-9.082431038841605">
        <ele>26.57</ele>
        <time>2025-05-04T13:00:12Z</time>
      </trkpt>
      <trkpt lat="39.537540022283792" lon="-9.082468003034592">
        <ele>26.57</ele>
        <time>2025-05-04T13:00:13Z</time>
      </trkpt>
      <trkpt lat="39.537067031487823" lon="-9.082644023001194">
        <ele>28.02</ele>
        <time>2025-05-04T13:00:17Z</time>
      </trkpt>
      <trkpt lat="39.536963012069464" lon="-9.082689033821225">
        <ele>28.5</ele>
        <time>2025-05-04T13:00:18Z</time>
      </trkpt>
      <trkpt lat="39.536853963509202" lon="-9.082776959985495">
        <ele>28.98</ele>
        <time>2025-05-04T13:00:19Z</time>
      </trkpt>
      <trkpt lat="39.536127001047134" lon="-9.08349797129631">
        <ele>32.82</ele>
        <time>2025-05-04T13:00:27Z</time>
      </trkpt>
      <trkpt lat="39.535878980532289" lon="-9.083694024011493">
        <ele>33.299999999999997</ele>
        <time>2025-05-04T13:00:30Z</time>
      </trkpt>
      <trkpt lat="39.535790970548987" lon="-9.08375496044755">
        <ele>33.299999999999997</ele>
        <time>2025-05-04T13:00:31Z</time>
      </trkpt>
      <trkpt lat="39.535486958920956" lon="-9.083885969594121">
        <ele>33.299999999999997</ele>
        <time>2025-05-04T13:00:34Z</time>
      </trkpt>
      <trkpt lat="39.534373003989458" lon="-9.084507990628481">
        <ele>34.740000000000002</ele>
        <time>2025-05-04T13:00:45Z</time>
      </trkpt>
      <trkpt lat="39.533390980213881" lon="-9.085061028599739">
        <ele>36.670000000000002</ele>
        <time>2025-05-04T13:00:55Z</time>
      </trkpt>
      <trkpt lat="39.532441981136799" lon="-9.085507029667497">
        <ele>37.630000000000003</ele>
        <time>2025-05-04T13:01:04Z</time>
      </trkpt>
      <trkpt lat="39.531382005661726" lon="-9.086133996024728">
        <ele>39.07</ele>
        <time>2025-05-04T13:01:14Z</time>
      </trkpt>
      <trkpt lat="39.531281003728509" lon="-9.086185041815043">
        <ele>39.549999999999997</ele>
        <time>2025-05-04T13:01:15Z</time>
      </trkpt>
      <trkpt lat="39.530233014374971" lon="-9.086894989013672">
        <ele>40.509999999999998</ele>
        <time>2025-05-04T13:01:25Z</time>
      </trkpt>
      <trkpt lat="39.530138969421387" lon="-9.086964977905154">
        <ele>40.030000000000001</ele>
        <time>2025-05-04T13:01:26Z</time>
      </trkpt>
      <trkpt lat="39.529212014749646" lon="-9.087664028629661">
        <ele>39.07</ele>
        <time>2025-05-04T13:01:36Z</time>
      </trkpt>
      <trkpt lat="39.528316995128989" lon="-9.088350003585219">
        <ele>38.109999999999999</ele>
        <time>2025-05-04T13:01:44Z</time>
      </trkpt>
      <trkpt lat="39.527057027444243" lon="-9.089348036795855">
        <ele>33.299999999999997</ele>
        <time>2025-05-04T13:01:53Z</time>
      </trkpt>
      <trkpt lat="39.526895005255938" lon="-9.089432023465633">
        <ele>32.340000000000003</ele>
        <time>2025-05-04T13:01:54Z</time>
      </trkpt>
      <trkpt lat="39.52674999833107" lon="-9.089475022628903">
        <ele>31.859999999999999</ele>
        <time>2025-05-04T13:01:55Z</time>
      </trkpt>
      <trkpt lat="39.526652013882995" lon="-9.089504024013877">
        <ele>30.899999999999999</ele>
        <time>2025-05-04T13:01:56Z</time>
      </trkpt>
      <trkpt lat="39.526589987799525" lon="-9.089521961286664">
        <ele>29.940000000000001</ele>
        <time>2025-05-04T13:01:57Z</time>
      </trkpt>
      <trkpt lat="39.526549000293016" lon="-9.089534031227231">
        <ele>29.460000000000001</ele>
        <time>2025-05-04T13:01:58Z</time>
      </trkpt>
      <trkpt lat="39.526530979201198" lon="-9.089538976550102">
        <ele>28.98</ele>
        <time>2025-05-04T13:01:59Z</time>
      </trkpt>
      <trkpt lat="39.526513963937759" lon="-9.089544005692005">
        <ele>28.02</ele>
        <time>2025-05-04T13:02:00Z</time>
      </trkpt>
      <trkpt lat="39.526490997523069" lon="-9.089550962671638">
        <ele>27.530000000000001</ele>
        <time>2025-05-04T13:02:01Z</time>
      </trkpt>
      <trkpt lat="39.52646903693676" lon="-9.089556997641921">
        <ele>26.57</ele>
        <time>2025-05-04T13:02:02Z</time>
      </trkpt>
      <trkpt lat="39.526404999196529" lon="-9.08996201120317">
        <ele>21.77</ele>
        <time>2025-05-04T13:02:12Z</time>
      </trkpt>
      <trkpt lat="39.526375997811556" lon="-9.08996201120317">
        <ele>18.879999999999999</ele>
        <time>2025-05-04T13:02:18Z</time>
      </trkpt>
      <trkpt lat="39.526412962004542" lon="-9.089943990111351">
        <ele>17.920000000000002</ele>
        <time>2025-05-04T13:02:31Z</time>
      </trkpt>
      <trkpt lat="39.526475993916392" lon="-9.089860003441572">
        <ele>37.149999999999999</ele>
        <time>2025-05-04T13:03:13Z</time>
      </trkpt>
      <trkpt lat="39.526467025279999" lon="-9.08985598012805">
        <ele>33.780000000000001</ele>
        <time>2025-05-04T13:04:02Z</time>
      </trkpt>
      <trkpt lat="39.526415979489684" lon="-9.089573007076979">
        <ele>36.670000000000002</ele>
        <time>2025-05-04T13:04:24Z</time>
      </trkpt>
      <trkpt lat="39.526441963389516" lon="-9.089564960449934">
        <ele>36.189999999999998</ele>
        <time>2025-05-04T13:04:25Z</time>
      </trkpt>
      <trkpt lat="39.526468031108379" lon="-9.089558003470302">
        <ele>36.189999999999998</ele>
        <time>2025-05-04T13:04:26Z</time>
      </trkpt>
      <trkpt lat="39.526457972824574" lon="-9.089561020955443">
        <ele>35.229999999999997</ele>
        <time>2025-05-04T13:04:29Z</time>
      </trkpt>
      <trkpt lat="39.526436012238264" lon="-9.089566972106695">
        <ele>35.229999999999997</ele>
        <time>2025-05-04T13:04:30Z</time>
      </trkpt>
      <trkpt lat="39.526411034166813" lon="-9.089574012905359">
        <ele>34.740000000000002</ele>
        <time>2025-05-04T13:04:31Z</time>
      </trkpt>
      <trkpt lat="39.526384966447949" lon="-9.089581975713372">
        <ele>34.740000000000002</ele>
        <time>2025-05-04T13:04:32Z</time>
      </trkpt>
      <trkpt lat="39.526348002254963" lon="-9.089593039825559">
        <ele>34.259999999999998</ele>
        <time>2025-05-04T13:04:33Z</time>
      </trkpt>
      <trkpt lat="39.525713995099068" lon="-9.089732011780143">
        <ele>32.340000000000003</ele>
        <time>2025-05-04T13:04:40Z</time>
      </trkpt>
      <trkpt lat="39.524249006062746" lon="-9.090034011751413">
        <ele>32.340000000000003</ele>
        <time>2025-05-04T13:04:51Z</time>
      </trkpt>
      <trkpt lat="39.522362994030118" lon="-9.090443970635533">
        <ele>30.899999999999999</ele>
        <time>2025-05-04T13:05:04Z</time>
      </trkpt>
      <trkpt lat="39.521343000233173" lon="-9.09075703471899">
        <ele>31.379999999999999</ele>
        <time>2025-05-04T13:05:13Z</time>
      </trkpt>
      <trkpt lat="39.520994983613491" lon="-9.090912016108632">
        <ele>31.859999999999999</ele>
        <time>2025-05-04T13:05:16Z</time>
      </trkpt>
      <trkpt lat="39.520877972245216" lon="-9.090921990573406">
        <ele>31.379999999999999</ele>
        <time>2025-05-04T13:05:17Z</time>
      </trkpt>
      <trkpt lat="39.519627979025245" lon="-9.091047970578075">
        <ele>31.859999999999999</ele>
        <time>2025-05-04T13:05:28Z</time>
      </trkpt>
      <trkpt lat="39.518987014889717" lon="-9.091246034950018">
        <ele>33.780000000000001</ele>
        <time>2025-05-04T13:05:35Z</time>
      </trkpt>
      <trkpt lat="39.518189979717135" lon="-9.09166001714766">
        <ele>32.340000000000003</ele>
        <time>2025-05-04T13:05:45Z</time>
      </trkpt>
      <trkpt lat="39.517672983929515" lon="-9.091920023784041">
        <ele>31.379999999999999</ele>
        <time>2025-05-04T13:05:51Z</time>
      </trkpt>
      <trkpt lat="39.517567036673427" lon="-9.091962017118931">
        <ele>31.379999999999999</ele>
        <time>2025-05-04T13:05:52Z</time>
      </trkpt>
      <trkpt lat="39.517450025305152" lon="-9.091971991583705">
        <ele>31.379999999999999</ele>
        <time>2025-05-04T13:05:53Z</time>
      </trkpt>
      <trkpt lat="39.517328990623355" lon="-9.091948019340634">
        <ele>31.379999999999999</ele>
        <time>2025-05-04T13:05:54Z</time>
      </trkpt>
      <trkpt lat="39.5172109734267" lon="-9.091890016570687">
        <ele>31.379999999999999</ele>
        <time>2025-05-04T13:05:55Z</time>
      </trkpt>
      <trkpt lat="39.517093040049076" lon="-9.091830002143979">
        <ele>31.859999999999999</ele>
        <time>2025-05-04T13:05:56Z</time>
      </trkpt>
      <trkpt lat="39.515940025448799" lon="-9.091432029381394">
        <ele>33.780000000000001</ele>
        <time>2025-05-04T13:06:06Z</time>
      </trkpt>
      <trkpt lat="39.515180960297585" lon="-9.091282999143004">
        <ele>35.229999999999997</ele>
        <time>2025-05-04T13:06:12Z</time>
      </trkpt>
      <trkpt lat="39.515053974464536" lon="-9.091277970001102">
        <ele>35.710000000000001</ele>
        <time>2025-05-04T13:06:13Z</time>
      </trkpt>
      <trkpt lat="39.513798030093312" lon="-9.091452984139323">
        <ele>35.710000000000001</ele>
        <time>2025-05-04T13:06:21Z</time>
      </trkpt>
      <trkpt lat="39.512361958622932" lon="-9.091722965240479">
        <ele>35.229999999999997</ele>
        <time>2025-05-04T13:06:31Z</time>
      </trkpt>
      <trkpt lat="39.512190967798233" lon="-9.091755989938974">
        <ele>35.229999999999997</ele>
        <time>2025-05-04T13:06:32Z</time>
      </trkpt>
      <trkpt lat="39.512024000287056" lon="-9.091787002980709">
        <ele>35.229999999999997</ele>
        <time>2025-05-04T13:06:33Z</time>
      </trkpt>
      <trkpt lat="39.511704985052347" lon="-9.091848023235798">
        <ele>35.229999999999997</ele>
        <time>2025-05-04T13:06:34Z</time>
      </trkpt>
      <trkpt lat="39.511544974520802" lon="-9.091878030449152">
        <ele>35.710000000000001</ele>
        <time>2025-05-04T13:06:35Z</time>
      </trkpt>
      <trkpt lat="39.511385969817638" lon="-9.091908037662506">
        <ele>35.710000000000001</ele>
        <time>2025-05-04T13:06:36Z</time>
      </trkpt>
      <trkpt lat="39.511385969817638" lon="-9.091908037662506">
        <ele>36.189999999999998</ele>
        <time>2025-05-04T13:06:37Z</time>
      </trkpt>
      <trkpt lat="39.511229982599616" lon="-9.092027982696891">
        <ele>36.670000000000002</ele>
        <time>2025-05-04T13:06:38Z</time>
      </trkpt>
      <trkpt lat="39.511088998988271" lon="-9.092169972136617">
        <ele>37.149999999999999</ele>
        <time>2025-05-04T13:06:39Z</time>
      </trkpt>
      <trkpt lat="39.510941980406642" lon="-9.092316990718246">
        <ele>37.630000000000003</ele>
        <time>2025-05-04T13:06:40Z</time>
      </trkpt>
      <trkpt lat="39.509560978040099" lon="-9.093697993084788">
        <ele>37.149999999999999</ele>
        <time>2025-05-04T13:06:49Z</time>
      </trkpt>
      <trkpt lat="39.508908027783036" lon="-9.094334011897445">
        <ele>36.189999999999998</ele>
        <time>2025-05-04T13:06:53Z</time>
      </trkpt>
      <trkpt lat="39.508031029254198" lon="-9.094936000183225">
        <ele>34.740000000000002</ele>
        <time>2025-05-04T13:06:58Z</time>
      </trkpt>
      <trkpt lat="39.50786598958075" lon="-9.095048988237977">
        <ele>34.259999999999998</ele>
        <time>2025-05-04T13:06:59Z</time>
      </trkpt>
      <trkpt lat="39.507725005969405" lon="-9.095240011811256">
        <ele>33.299999999999997</ele>
        <time>2025-05-04T13:07:00Z</time>
      </trkpt>
      <trkpt lat="39.507224019616842" lon="-9.095930010080338">
        <ele>30.420000000000002</ele>
        <time>2025-05-04T13:07:04Z</time>
      </trkpt>
      <trkpt lat="39.507112959399819" lon="-9.09608599729836">
        <ele>29.940000000000001</ele>
        <time>2025-05-04T13:07:05Z</time>
      </trkpt>
      <trkpt lat="39.506987985223532" lon="-9.096206026151776">
        <ele>28.98</ele>
        <time>2025-05-04T13:07:06Z</time>
      </trkpt>
      <trkpt lat="39.505966985598207" lon="-9.096873980015516">
        <ele>23.210000000000001</ele>
        <time>2025-05-04T13:07:14Z</time>
      </trkpt>
      <trkpt lat="39.505765987560153" lon="-9.097072966396809">
        <ele>22.25</ele>
        <time>2025-05-04T13:07:16Z</time>
      </trkpt>
      <trkpt lat="39.505670014768839" lon="-9.097173968330026">
        <ele>22.25</ele>
        <time>2025-05-04T13:07:17Z</time>
      </trkpt>
      <trkpt lat="39.505575969815254" lon="-9.097273964434862">
        <ele>21.77</ele>
        <time>2025-05-04T13:07:18Z</time>
      </trkpt>
      <trkpt lat="39.504912961274385" lon="-9.09849202260375">
        <ele>21.77</ele>
        <time>2025-05-04T13:07:29Z</time>
      </trkpt>
      <trkpt lat="39.504145011305809" lon="-9.099881993606687">
        <ele>23.210000000000001</ele>
        <time>2025-05-04T13:07:43Z</time>
      </trkpt>
      <trkpt lat="39.503529025241733" lon="-9.100900981575251">
        <ele>23.690000000000001</ele>
        <time>2025-05-04T13:07:52Z</time>
      </trkpt>
      <trkpt lat="39.503038013353944" lon="-9.101445972919464">
        <ele>24.170000000000002</ele>
        <time>2025-05-04T13:08:00Z</time>
      </trkpt>
      <trkpt lat="39.502967018634081" lon="-9.101523002609611">
        <ele>23.690000000000001</ele>
        <time>2025-05-04T13:08:01Z</time>
      </trkpt>
      <trkpt lat="39.502307027578354" lon="-9.102253988385201">
        <ele>20.809999999999999</ele>
        <time>2025-05-04T13:08:11Z</time>
      </trkpt>
      <trkpt lat="39.501618035137653" lon="-9.102896964177489">
        <ele>22.25</ele>
        <time>2025-05-04T13:08:21Z</time>
      </trkpt>
      <trkpt lat="39.500543978065252" lon="-9.103613030165434">
        <ele>24.170000000000002</ele>
        <time>2025-05-04T13:08:34Z</time>
      </trkpt>
      <trkpt lat="39.500205013900995" lon="-9.103646976873279">
        <ele>25.129999999999999</ele>
        <time>2025-05-04T13:08:40Z</time>
      </trkpt>
      <trkpt lat="39.499928997829556" lon="-9.103631973266602">
        <ele>25.129999999999999</ele>
        <time>2025-05-04T13:08:47Z</time>
      </trkpt>
      <trkpt lat="39.499904019758105" lon="-9.103631973266602">
        <ele>26.09</ele>
        <time>2025-05-04T13:09:08Z</time>
      </trkpt>
      <trkpt lat="39.499841993674636" lon="-9.103638008236885">
        <ele>26.57</ele>
        <time>2025-05-04T13:09:09Z</time>
      </trkpt>
      <trkpt lat="39.499840987846255" lon="-9.103631973266602">
        <ele>27.050000000000001</ele>
        <time>2025-05-04T13:09:10Z</time>
      </trkpt>
      <trkpt lat="39.499837970361114" lon="-9.103485960513353">
        <ele>27.530000000000001</ele>
        <time>2025-05-04T13:09:11Z</time>
      </trkpt>
      <trkpt lat="39.499824978411198" lon="-9.103402979671955">
        <ele>27.530000000000001</ele>
        <time>2025-05-04T13:09:12Z</time>
      </trkpt>
      <trkpt lat="39.499747026711702" lon="-9.102837033569813">
        <ele>27.530000000000001</ele>
        <time>2025-05-04T13:09:18Z</time>
      </trkpt>
      <trkpt lat="39.49963403865695" lon="-9.101719977334142">
        <ele>28.5</ele>
        <time>2025-05-04T13:09:29Z</time>
      </trkpt>
      <trkpt lat="39.499585004523396" lon="-9.101100973784924">
        <ele>27.530000000000001</ele>
        <time>2025-05-04T13:09:35Z</time>
      </trkpt>
      <trkpt lat="39.499577041715384" lon="-9.100998966023326">
        <ele>27.530000000000001</ele>
        <time>2025-05-04T13:09:36Z</time>
      </trkpt>
      <trkpt lat="39.499474028125405" lon="-9.099819967523217">
        <ele>26.57</ele>
        <time>2025-05-04T13:09:47Z</time>
      </trkpt>
      <trkpt lat="39.499303037300706" lon="-9.097960023209453">
        <ele>25.609999999999999</ele>
        <time>2025-05-04T13:10:02Z</time>
      </trkpt>
      <trkpt lat="39.499207986518741" lon="-9.096660995855928">
        <ele>25.129999999999999</ele>
        <time>2025-05-04T13:10:12Z</time>
      </trkpt>
      <trkpt lat="39.499112013727427" lon="-9.095457019284368">
        <ele>26.09</ele>
        <time>2025-05-04T13:10:21Z</time>
      </trkpt>
      <trkpt lat="39.499060967937112" lon="-9.095102967694402">
        <ele>26.09</ele>
        <time>2025-05-04T13:10:24Z</time>
      </trkpt>
      <trkpt lat="39.499050993472338" lon="-9.095015963539481">
        <ele>26.09</ele>
        <time>2025-05-04T13:10:25Z</time>
      </trkpt>
      <trkpt lat="39.498985027894378" lon="-9.094884032383561">
        <ele>25.609999999999999</ele>
        <time>2025-05-04T13:10:27Z</time>
      </trkpt>
      <trkpt lat="39.498933982104063" lon="-9.094809014350176">
        <ele>25.129999999999999</ele>
        <time>2025-05-04T13:10:28Z</time>
      </trkpt>
      <trkpt lat="39.498868016526103" lon="-9.094768026843667">
        <ele>24.649999999999999</ele>
        <time>2025-05-04T13:10:29Z</time>
      </trkpt>
      <trkpt lat="39.498736001551151" lon="-9.094725027680397">
        <ele>24.170000000000002</ele>
        <time>2025-05-04T13:10:30Z</time>
      </trkpt>
      <trkpt lat="39.498661989346147" lon="-9.094769032672048">
        <ele>24.170000000000002</ele>
        <time>2025-05-04T13:10:31Z</time>
      </trkpt>
      <trkpt lat="39.498554030433297" lon="-9.094833992421627">
        <ele>24.170000000000002</ele>
        <time>2025-05-04T13:10:32Z</time>
      </trkpt>
      <trkpt lat="39.49840902350843" lon="-9.095107996836305">
        <ele>23.210000000000001</ele>
        <time>2025-05-04T13:10:35Z</time>
      </trkpt>
      <trkpt lat="39.498328976333141" lon="-9.095176979899406">
        <ele>22.73</ele>
        <time>2025-05-04T13:10:36Z</time>
      </trkpt>
      <trkpt lat="39.498252030462027" lon="-9.095239005982876">
        <ele>22.25</ele>
        <time>2025-05-04T13:10:37Z</time>
      </trkpt>
      <trkpt lat="39.49817500077188" lon="-9.095301032066345">
        <ele>22.25</ele>
        <time>2025-05-04T13:10:38Z</time>
      </trkpt>
      <trkpt lat="39.498061006888747" lon="-9.095249986276031">
        <ele>21.77</ele>
        <time>2025-05-04T13:10:39Z</time>
      </trkpt>
      <trkpt lat="39.497975008562207" lon="-9.095283010974526">
        <ele>21.289999999999999</ele>
        <time>2025-05-04T13:10:40Z</time>
      </trkpt>
      <trkpt lat="39.497888004407287" lon="-9.095317041501403">
        <ele>20.809999999999999</ele>
        <time>2025-05-04T13:10:41Z</time>
      </trkpt>
      <trkpt lat="39.497802006080747" lon="-9.095348976552486">
        <ele>20.809999999999999</ele>
        <time>2025-05-04T13:10:42Z</time>
      </trkpt>
      <trkpt lat="39.496545977890491" lon="-9.095422988757491">
        <ele>18.399999999999999</ele>
        <time>2025-05-04T13:10:54Z</time>
      </trkpt>
      <trkpt lat="39.495343007147312" lon="-9.095486020669341">
        <ele>14.56</ele>
        <time>2025-05-04T13:11:05Z</time>
      </trkpt>
      <trkpt lat="39.494100976735353" lon="-9.095544023439288">
        <ele>16</ele>
        <time>2025-05-04T13:11:15Z</time>
      </trkpt>
      <trkpt lat="39.493502005934715" lon="-9.095619041472673">
        <ele>17.920000000000002</ele>
        <time>2025-05-04T13:11:19Z</time>
      </trkpt>
      <trkpt lat="39.492090996354818" lon="-9.096225975081325">
        <ele>21.77</ele>
        <time>2025-05-04T13:11:28Z</time>
      </trkpt>
      <trkpt lat="39.491967028006911" lon="-9.096291018649936">
        <ele>21.77</ele>
        <time>2025-05-04T13:11:29Z</time>
      </trkpt>
      <trkpt lat="39.49185797944665" lon="-9.096349021419883">
        <ele>22.25</ele>
        <time>2025-05-04T13:11:30Z</time>
      </trkpt>
      <trkpt lat="39.491598978638649" lon="-9.096484975889325">
        <ele>23.210000000000001</ele>
        <time>2025-05-04T13:11:33Z</time>
      </trkpt>
      <trkpt lat="39.49153502471745" lon="-9.096519006416202">
        <ele>23.210000000000001</ele>
        <time>2025-05-04T13:11:34Z</time>
      </trkpt>
      <trkpt lat="39.491267977282405" lon="-9.096371987834573">
        <ele>24.170000000000002</ele>
        <time>2025-05-04T13:11:39Z</time>
      </trkpt>
      <trkpt lat="39.49123302474618" lon="-9.096397971734405">
        <ele>24.649999999999999</ele>
        <time>2025-05-04T13:11:40Z</time>
      </trkpt>
      <trkpt lat="39.491178039461374" lon="-9.096438959240913">
        <ele>25.129999999999999</ele>
        <time>2025-05-04T13:11:41Z</time>
      </trkpt>
      <trkpt lat="39.490459961816669" lon="-9.096961989998817">
        <ele>28.98</ele>
        <time>2025-05-04T13:11:49Z</time>
      </trkpt>
      <trkpt lat="39.488990027457476" lon="-9.098054990172386">
        <ele>32.82</ele>
        <time>2025-05-04T13:12:01Z</time>
      </trkpt>
      <trkpt lat="39.48736603371799" lon="-9.099275982007384">
        <ele>36.670000000000002</ele>
        <time>2025-05-04T13:12:13Z</time>
      </trkpt>
      <trkpt lat="39.486970994621515" lon="-9.099558033049107">
        <ele>36.670000000000002</ele>
        <time>2025-05-04T13:12:15Z</time>
      </trkpt>
      <trkpt lat="39.486007997766137" lon="-9.10025398246944">
        <ele>41.469999999999999</ele>
        <time>2025-05-04T13:12:24Z</time>
      </trkpt>
      <trkpt lat="39.485952006652951" lon="-9.100294969975948">
        <ele>41.950000000000003</ele>
        <time>2025-05-04T13:12:30Z</time>
      </trkpt>
      <trkpt lat="39.485804988071322" lon="-9.100414998829365">
        <ele>42.439999999999998</ele>
        <time>2025-05-04T13:12:37Z</time>
      </trkpt>
      <trkpt lat="39.484779965132475" lon="-9.101182026788592">
        <ele>42.920000000000002</ele>
        <time>2025-05-04T13:12:47Z</time>
      </trkpt>
      <trkpt lat="39.483857033774257" lon="-9.101870013400912">
        <ele>40.990000000000002</ele>
        <time>2025-05-04T13:12:58Z</time>
      </trkpt>
      <trkpt lat="39.482811978086829" lon="-9.102669982239604">
        <ele>40.990000000000002</ele>
        <time>2025-05-04T13:13:07Z</time>
      </trkpt>
      <trkpt lat="39.482689015567303" lon="-9.102757992222905">
        <ele>41.950000000000003</ele>
        <time>2025-05-04T13:13:08Z</time>
      </trkpt>
      <trkpt lat="39.481731969863176" lon="-9.103465005755425">
        <ele>43.880000000000003</ele>
        <time>2025-05-04T13:13:17Z</time>
      </trkpt>
      <trkpt lat="39.480145024135709" lon="-9.104677028954029">
        <ele>42.920000000000002</ele>
        <time>2025-05-04T13:13:33Z</time>
      </trkpt>
      <trkpt lat="39.478561012074351" lon="-9.105878993868828">
        <ele>40.030000000000001</ele>
        <time>2025-05-04T13:13:46Z</time>
      </trkpt>
      <trkpt lat="39.477129969745874" lon="-9.106966964900494">
        <ele>38.109999999999999</ele>
        <time>2025-05-04T13:13:57Z</time>
      </trkpt>
      <trkpt lat="39.475420983508229" lon="-9.108276972547174">
        <ele>37.630000000000003</ele>
        <time>2025-05-04T13:14:08Z</time>
      </trkpt>
      <trkpt lat="39.473301032558084" lon="-9.109946982935071">
        <ele>32.82</ele>
        <time>2025-05-04T13:14:21Z</time>
      </trkpt>
      <trkpt lat="39.471748033538461" lon="-9.111166968941689">
        <ele>29.940000000000001</ele>
        <time>2025-05-04T13:14:33Z</time>
      </trkpt>
      <trkpt lat="39.470149017870426" lon="-9.112428026273847">
        <ele>26.57</ele>
        <time>2025-05-04T13:14:44Z</time>
      </trkpt>
      <trkpt lat="39.468053039163351" lon="-9.114058976992965">
        <ele>19.84</ele>
        <time>2025-05-04T13:14:57Z</time>
      </trkpt>
      <trkpt lat="39.466029983013868" lon="-9.115641983225942">
        <ele>16</ele>
        <time>2025-05-04T13:15:10Z</time>
      </trkpt>
      <trkpt lat="39.464245978742838" lon="-9.117090962827206">
        <ele>18.879999999999999</ele>
        <time>2025-05-04T13:15:21Z</time>
      </trkpt>
      <trkpt lat="39.462147988379002" lon="-9.119000025093556">
        <ele>20.32</ele>
        <time>2025-05-04T13:15:35Z</time>
      </trkpt>
      <trkpt lat="39.45993198081851" lon="-9.120883019641042">
        <ele>20.32</ele>
        <time>2025-05-04T13:15:49Z</time>
      </trkpt>
      <trkpt lat="39.457991989329457" lon="-9.122105017304421">
        <ele>20.809999999999999</ele>
        <time>2025-05-04T13:16:00Z</time>
      </trkpt>
      <trkpt lat="39.455906990915537" lon="-9.123460035771132">
        <ele>19.84</ele>
        <time>2025-05-04T13:16:11Z</time>
      </trkpt>
      <trkpt lat="39.454222982749343" lon="-9.12485302425921">
        <ele>16.48</ele>
        <time>2025-05-04T13:16:20Z</time>
      </trkpt>
      <trkpt lat="39.452522965148091" lon="-9.126483974978328">
        <ele>17.440000000000001</ele>
        <time>2025-05-04T13:16:30Z</time>
      </trkpt>
      <trkpt lat="39.451619982719421" lon="-9.12730498239398">
        <ele>18.399999999999999</ele>
        <time>2025-05-04T13:16:37Z</time>
      </trkpt>
      <trkpt lat="39.450896959751844" lon="-9.127986012026668">
        <ele>21.289999999999999</ele>
        <time>2025-05-04T13:16:45Z</time>
      </trkpt>
      <trkpt lat="39.450586996972561" lon="-9.128246018663049">
        <ele>23.210000000000001</ele>
        <time>2025-05-04T13:16:50Z</time>
      </trkpt>
      <trkpt lat="39.45051901973784" lon="-9.128298992291093">
        <ele>24.649999999999999</ele>
        <time>2025-05-04T13:16:56Z</time>
      </trkpt>
      <trkpt lat="39.450100008398294" lon="-9.128595041111112">
        <ele>26.09</ele>
        <time>2025-05-04T13:17:03Z</time>
      </trkpt>
      <trkpt lat="39.449022011831403" lon="-9.129063002765179">
        <ele>28.02</ele>
        <time>2025-05-04T13:17:14Z</time>
      </trkpt>
      <trkpt lat="39.448283985257149" lon="-9.129166016355157">
        <ele>27.050000000000001</ele>
        <time>2025-05-04T13:17:23Z</time>
      </trkpt>
      <trkpt lat="39.448104025796056" lon="-9.129183031618595">
        <ele>25.609999999999999</ele>
        <time>2025-05-04T13:17:32Z</time>
      </trkpt>
      <trkpt lat="39.447910990566015" lon="-9.129202980548143">
        <ele>24.170000000000002</ele>
        <time>2025-05-04T13:17:40Z</time>
      </trkpt>
      <trkpt lat="39.446938019245863" lon="-9.12928101606667">
        <ele>24.170000000000002</ele>
        <time>2025-05-04T13:17:49Z</time>
      </trkpt>
      <trkpt lat="39.445620970800519" lon="-9.129397021606565">
        <ele>24.649999999999999</ele>
        <time>2025-05-04T13:18:00Z</time>
      </trkpt>
      <trkpt lat="39.444071995094419" lon="-9.129535993561149">
        <ele>26.09</ele>
        <time>2025-05-04T13:18:13Z</time>
      </trkpt>
      <trkpt lat="39.441941985860467" lon="-9.129716036841273">
        <ele>27.530000000000001</ele>
        <time>2025-05-04T13:18:30Z</time>
      </trkpt>
      <trkpt lat="39.440599037334323" lon="-9.129799017682672">
        <ele>29.460000000000001</ele>
        <time>2025-05-04T13:18:43Z</time>
      </trkpt>
      <trkpt lat="39.44050800986588" lon="-9.129794994369149">
        <ele>29.460000000000001</ele>
        <time>2025-05-04T13:18:44Z</time>
      </trkpt>
      <trkpt lat="39.440317992120981" lon="-9.129961039870977">
        <ele>29.940000000000001</ele>
        <time>2025-05-04T13:18:45Z</time>
      </trkpt>
      <trkpt lat="39.440252026543021" lon="-9.130013007670641">
        <ele>29.940000000000001</ele>
        <time>2025-05-04T13:18:47Z</time>
      </trkpt>
      <trkpt lat="39.440176002681255" lon="-9.130038991570473">
        <ele>30.420000000000002</ele>
        <time>2025-05-04T13:18:48Z</time>
      </trkpt>
      <trkpt lat="39.440091010183096" lon="-9.130019964650273">
        <ele>29.940000000000001</ele>
        <time>2025-05-04T13:18:49Z</time>
      </trkpt>
      <trkpt lat="39.440003000199795" lon="-9.129984006285667">
        <ele>30.420000000000002</ele>
        <time>2025-05-04T13:18:50Z</time>
      </trkpt>
      <trkpt lat="39.439944997429848" lon="-9.12990303710103">
        <ele>30.420000000000002</ele>
        <time>2025-05-04T13:18:51Z</time>
      </trkpt>
      <trkpt lat="39.439909961074591" lon="-9.129771022126079">
        <ele>30.899999999999999</ele>
        <time>2025-05-04T13:18:52Z</time>
      </trkpt>
      <trkpt lat="39.439922031015158" lon="-9.129641018807888">
        <ele>30.899999999999999</ele>
        <time>2025-05-04T13:18:53Z</time>
      </trkpt>
      <trkpt lat="39.439952960237861" lon="-9.129531970247626">
        <ele>30.899999999999999</ele>
        <time>2025-05-04T13:18:54Z</time>
      </trkpt>
      <trkpt lat="39.439952038228512" lon="-9.129532976076007">
        <ele>30.420000000000002</ele>
        <time>2025-05-04T13:18:55Z</time>
      </trkpt>
      <trkpt lat="39.440049016848207" lon="-9.129449995234609">
        <ele>30.420000000000002</ele>
        <time>2025-05-04T13:18:56Z</time>
      </trkpt>
      <trkpt lat="39.440111964941025" lon="-9.129341030493379">
        <ele>30.420000000000002</ele>
        <time>2025-05-04T13:18:57Z</time>
      </trkpt>
      <trkpt lat="39.440181031823158" lon="-9.129221001639962">
        <ele>30.420000000000002</ele>
        <time>2025-05-04T13:18:58Z</time>
      </trkpt>
      <trkpt lat="39.440274992957711" lon="-9.129058979451656">
        <ele>30.420000000000002</ele>
        <time>2025-05-04T13:18:59Z</time>
      </trkpt>
      <trkpt lat="39.440305000171065" lon="-9.128949008882046">
        <ele>30.899999999999999</ele>
        <time>2025-05-04T13:19:00Z</time>
      </trkpt>
      <trkpt lat="39.440545979887247" lon="-9.128166977316141">
        <ele>31.379999999999999</ele>
        <time>2025-05-04T13:19:04Z</time>
      </trkpt>
      <trkpt lat="39.440611023455858" lon="-9.128030017018318">
        <ele>31.379999999999999</ele>
        <time>2025-05-04T13:19:05Z</time>
      </trkpt>
      <trkpt lat="39.440675983205438" lon="-9.127893978729844">
        <ele>31.379999999999999</ele>
        <time>2025-05-04T13:19:06Z</time>
      </trkpt>
      <trkpt lat="39.440767010673881" lon="-9.127794988453388">
        <ele>31.379999999999999</ele>
        <time>2025-05-04T13:19:07Z</time>
      </trkpt>
      <trkpt lat="39.440864995121956" lon="-9.127694992348552">
        <ele>30.899999999999999</ele>
        <time>2025-05-04T13:19:08Z</time>
      </trkpt>
      <trkpt lat="39.440957028418779" lon="-9.127587033435702">
        <ele>30.899999999999999</ele>
        <time>2025-05-04T13:19:09Z</time>
      </trkpt>
      <trkpt lat="39.441510988399386" lon="-9.126925030723214">
        <ele>31.379999999999999</ele>
        <time>2025-05-04T13:19:16Z</time>
      </trkpt>
      <trkpt lat="39.441589023917913" lon="-9.126829979941249">
        <ele>31.379999999999999</ele>
        <time>2025-05-04T13:19:17Z</time>
      </trkpt>
      <trkpt lat="39.441652977839112" lon="-9.126720009371638">
        <ele>31.379999999999999</ele>
        <time>2025-05-04T13:19:18Z</time>
      </trkpt>
      <trkpt lat="39.441637974232435" lon="-9.126581037417054">
        <ele>31.859999999999999</ele>
        <time>2025-05-04T13:19:19Z</time>
      </trkpt>
      <trkpt lat="39.441645015031099" lon="-9.126452961936593">
        <ele>31.859999999999999</ele>
        <time>2025-05-04T13:19:20Z</time>
      </trkpt>
      <trkpt lat="39.441631017252803" lon="-9.12633896805346">
        <ele>32.340000000000003</ele>
        <time>2025-05-04T13:19:21Z</time>
      </trkpt>
      <trkpt lat="39.441590029746294" lon="-9.12623000331223">
        <ele>32.340000000000003</ele>
        <time>2025-05-04T13:19:22Z</time>
      </trkpt>
      <trkpt lat="39.441511994227767" lon="-9.126136964187026">
        <ele>32.82</ele>
        <time>2025-05-04T13:19:23Z</time>
      </trkpt>
      <trkpt lat="39.441432030871511" lon="-9.126040991395712">
        <ele>33.299999999999997</ele>
        <time>2025-05-04T13:19:24Z</time>
      </trkpt>
      <trkpt lat="39.441328011453152" lon="-9.125975025817752">
        <ele>33.780000000000001</ele>
        <time>2025-05-04T13:19:25Z</time>
      </trkpt>
      <trkpt lat="39.441076973453164" lon="-9.126001009717584">
        <ele>35.710000000000001</ele>
        <time>2025-05-04T13:19:27Z</time>
      </trkpt>
      <trkpt lat="39.440029989928007" lon="-9.126559998840094">
        <ele>42.439999999999998</ele>
        <time>2025-05-04T13:19:36Z</time>
      </trkpt>
      <trkpt lat="39.438965991139412" lon="-9.127449989318848">
        <ele>43.880000000000003</ele>
        <time>2025-05-04T13:19:44Z</time>
      </trkpt>
      <trkpt lat="39.43769596517086" lon="-9.128800984472036">
        <ele>42.439999999999998</ele>
        <time>2025-05-04T13:19:51Z</time>
      </trkpt>
      <trkpt lat="39.435667963698506" lon="-9.131227964535356">
        <ele>37.630000000000003</ele>
        <time>2025-05-04T13:20:01Z</time>
      </trkpt>
      <trkpt lat="39.433567961677909" lon="-9.133742032572627">
        <ele>30.899999999999999</ele>
        <time>2025-05-04T13:20:11Z</time>
      </trkpt>
      <trkpt lat="39.431196972727776" lon="-9.136461038142443">
        <ele>33.299999999999997</ele>
        <time>2025-05-04T13:20:22Z</time>
      </trkpt>
      <trkpt lat="39.428289039060473" lon="-9.139536023139954">
        <ele>36.670000000000002</ele>
        <time>2025-05-04T13:20:35Z</time>
      </trkpt>
      <trkpt lat="39.425587970763445" lon="-9.142316970974207">
        <ele>40.030000000000001</ele>
        <time>2025-05-04T13:20:47Z</time>
      </trkpt>
      <trkpt lat="39.423773037269711" lon="-9.144687037914991">
        <ele>41.950000000000003</ele>
        <time>2025-05-04T13:20:56Z</time>
      </trkpt>
      <trkpt lat="39.422149965539575" lon="-9.147766968235374">
        <ele>41.469999999999999</ele>
        <time>2025-05-04T13:21:05Z</time>
      </trkpt>
      <trkpt lat="39.420796036720276" lon="-9.150617988780141">
        <ele>38.590000000000003</ele>
        <time>2025-05-04T13:21:14Z</time>
      </trkpt>
      <trkpt lat="39.419593987986445" lon="-9.152213986963034">
        <ele>36.189999999999998</ele>
        <time>2025-05-04T13:21:20Z</time>
      </trkpt>
      <trkpt lat="39.418115001171827" lon="-9.153372030705214">
        <ele>32.340000000000003</ele>
        <time>2025-05-04T13:21:26Z</time>
      </trkpt>
      <trkpt lat="39.414776992052794" lon="-9.155591977760196">
        <ele>26.57</ele>
        <time>2025-05-04T13:21:40Z</time>
      </trkpt>
      <trkpt lat="39.413371011614799" lon="-9.155985005199909">
        <ele>27.050000000000001</ele>
        <time>2025-05-04T13:21:45Z</time>
      </trkpt>
      <trkpt lat="39.411652972921729" lon="-9.155853996053338">
        <ele>34.259999999999998</ele>
        <time>2025-05-04T13:21:51Z</time>
      </trkpt>
      <trkpt lat="39.409450041130185" lon="-9.154901979491115">
        <ele>34.740000000000002</ele>
        <time>2025-05-04T13:21:59Z</time>
      </trkpt>
      <trkpt lat="39.407771984115243" lon="-9.154478022828698">
        <ele>34.259999999999998</ele>
        <time>2025-05-04T13:22:05Z</time>
      </trkpt>
      <trkpt lat="39.405763009563088" lon="-9.154692012816668">
        <ele>35.710000000000001</ele>
        <time>2025-05-04T13:22:11Z</time>
      </trkpt>
      <trkpt lat="39.401484970003366" lon="-9.155640006065369">
        <ele>32.82</ele>
        <time>2025-05-04T13:22:27Z</time>
      </trkpt>
      <trkpt lat="39.399185981601477" lon="-9.155402965843678">
        <ele>33.780000000000001</ele>
        <time>2025-05-04T13:22:35Z</time>
      </trkpt>
      <trkpt lat="39.396717008203268" lon="-9.154378026723862">
        <ele>37.149999999999999</ele>
        <time>2025-05-04T13:22:44Z</time>
      </trkpt>
      <trkpt lat="39.394287010654807" lon="-9.153209002688527">
        <ele>40.990000000000002</ele>
        <time>2025-05-04T13:22:53Z</time>
      </trkpt>
      <trkpt lat="39.390501994639635" lon="-9.151359032839537">
        <ele>48.68</ele>
        <time>2025-05-04T13:23:07Z</time>
      </trkpt>
      <trkpt lat="39.387276973575354" lon="-9.149718023836613">
        <ele>56.369999999999997</ele>
        <time>2025-05-04T13:23:19Z</time>
      </trkpt>
      <trkpt lat="39.385307980701327" lon="-9.148132000118494">
        <ele>61.659999999999997</ele>
        <time>2025-05-04T13:23:27Z</time>
      </trkpt>
      <trkpt lat="39.383471002802253" lon="-9.145746007561684">
        <ele>62.619999999999997</ele>
        <time>2025-05-04T13:23:36Z</time>
      </trkpt>
      <trkpt lat="39.381731003522873" lon="-9.143119035288692">
        <ele>63.100000000000001</ele>
        <time>2025-05-04T13:23:44Z</time>
      </trkpt>
      <trkpt lat="39.379778020083904" lon="-9.140158966183662">
        <ele>60.700000000000003</ele>
        <time>2025-05-04T13:23:55Z</time>
      </trkpt>
      <trkpt lat="39.377432009205222" lon="-9.136632028967142">
        <ele>60.700000000000003</ele>
        <time>2025-05-04T13:24:07Z</time>
      </trkpt>
      <trkpt lat="39.376071961596608" lon="-9.135154969990253">
        <ele>65.030000000000001</ele>
        <time>2025-05-04T13:24:13Z</time>
      </trkpt>
      <trkpt lat="39.374400023370981" lon="-9.134323988109827">
        <ele>70.790000000000006</ele>
        <time>2025-05-04T13:24:19Z</time>
      </trkpt>
      <trkpt lat="39.372611995786428" lon="-9.134240001440048">
        <ele>76.079999999999998</ele>
        <time>2025-05-04T13:24:25Z</time>
      </trkpt>
      <trkpt lat="39.36963097192347" lon="-9.13497400470078">
        <ele>77.040000000000006</ele>
        <time>2025-05-04T13:24:35Z</time>
      </trkpt>
      <trkpt lat="39.366988996043801" lon="-9.13583398796618">
        <ele>72.239999999999995</ele>
        <time>2025-05-04T13:24:43Z</time>
      </trkpt>
      <trkpt lat="39.365167021751404" lon="-9.13716796785593">
        <ele>65.030000000000001</ele>
        <time>2025-05-04T13:24:50Z</time>
      </trkpt>
      <trkpt lat="39.363432973623276" lon="-9.139312980696559">
        <ele>54.93</ele>
        <time>2025-05-04T13:24:58Z</time>
      </trkpt>
      <trkpt lat="39.360836008563638" lon="-9.14255702868104">
        <ele>46.280000000000001</ele>
        <time>2025-05-04T13:25:10Z</time>
      </trkpt>
      <trkpt lat="39.357603024691343" lon="-9.14606099948287">
        <ele>51.090000000000003</ele>
        <time>2025-05-04T13:25:24Z</time>
      </trkpt>
      <trkpt lat="39.354883013293147" lon="-9.149098014459014">
        <ele>57.340000000000003</ele>
        <time>2025-05-04T13:25:36Z</time>
      </trkpt>
      <trkpt lat="39.352960959076881" lon="-9.152052970603108">
        <ele>69.349999999999994</ele>
        <time>2025-05-04T13:25:46Z</time>
      </trkpt>
      <trkpt lat="39.350823992863297" lon="-9.154800977557898">
        <ele>82.810000000000002</ele>
        <time>2025-05-04T13:25:56Z</time>
      </trkpt>
      <trkpt lat="39.348667999729514" lon="-9.157521994784474">
        <ele>93.390000000000001</ele>
        <time>2025-05-04T13:26:07Z</time>
      </trkpt>
      <trkpt lat="39.346342021599412" lon="-9.161124033853412">
        <ele>94.349999999999994</ele>
        <time>2025-05-04T13:26:19Z</time>
      </trkpt>
      <trkpt lat="39.34408301487565" lon="-9.165265029296279">
        <ele>81.370000000000005</ele>
        <time>2025-05-04T13:26:31Z</time>
      </trkpt>
      <trkpt lat="39.342179987579584" lon="-9.168774029240012">
        <ele>65.030000000000001</ele>
        <time>2025-05-04T13:26:42Z</time>
      </trkpt>
      <trkpt lat="39.340247036889195" lon="-9.172245981171727">
        <ele>46.280000000000001</ele>
        <time>2025-05-04T13:26:54Z</time>
      </trkpt>
      <trkpt lat="39.339159987866879" lon="-9.173549031838775">
        <ele>41.469999999999999</ele>
        <time>2025-05-04T13:26:59Z</time>
      </trkpt>
      <trkpt lat="39.337798012420535" lon="-9.174326034262776">
        <ele>40.990000000000002</ele>
        <time>2025-05-04T13:27:04Z</time>
      </trkpt>
      <trkpt lat="39.336017025634646" lon="-9.174497025087476">
        <ele>44.840000000000003</ele>
        <time>2025-05-04T13:27:10Z</time>
      </trkpt>
      <trkpt lat="39.332720004022121" lon="-9.174244981259108">
        <ele>53.490000000000002</ele>
        <time>2025-05-04T13:27:20Z</time>
      </trkpt>
      <trkpt lat="39.33033300563693" lon="-9.174804976209998">
        <ele>56.369999999999997</ele>
        <time>2025-05-04T13:27:29Z</time>
      </trkpt>
      <trkpt lat="39.327354999259114" lon="-9.17555901221931">
        <ele>47.240000000000002</ele>
        <time>2025-05-04T13:27:39Z</time>
      </trkpt>
      <trkpt lat="39.324410017579794" lon="-9.176301984116435">
        <ele>46.280000000000001</ele>
        <time>2025-05-04T13:27:49Z</time>
      </trkpt>
      <trkpt lat="39.322309009730816" lon="-9.17639602907002">
        <ele>49.649999999999999</ele>
        <time>2025-05-04T13:27:56Z</time>
      </trkpt>
      <trkpt lat="39.318742007017136" lon="-9.175681974738836">
        <ele>52.530000000000001</ele>
        <time>2025-05-04T13:28:08Z</time>
      </trkpt>
      <trkpt lat="39.316360037773848" lon="-9.175590025261045">
        <ele>54.93</ele>
        <time>2025-05-04T13:28:16Z</time>
      </trkpt>
      <trkpt lat="39.314113017171621" lon="-9.175651967525482">
        <ele>56.859999999999999</ele>
        <time>2025-05-04T13:28:24Z</time>
      </trkpt>
      <trkpt lat="39.312770990654826" lon="-9.175058025866747">
        <ele>56.859999999999999</ele>
        <time>2025-05-04T13:28:29Z</time>
      </trkpt>
      <trkpt lat="39.311614958569407" lon="-9.173844996839762">
        <ele>56.369999999999997</ele>
        <time>2025-05-04T13:28:34Z</time>
      </trkpt>
      <trkpt lat="39.309616964310408" lon="-9.171082992106676">
        <ele>53.490000000000002</ele>
        <time>2025-05-04T13:28:44Z</time>
      </trkpt>
      <trkpt lat="39.308212995529175" lon="-9.169811960309744">
        <ele>52.049999999999997</ele>
        <time>2025-05-04T13:28:50Z</time>
      </trkpt>
      <trkpt lat="39.306580033153296" lon="-9.169146018102765">
        <ele>49.649999999999999</ele>
        <time>2025-05-04T13:28:56Z</time>
      </trkpt>
      <trkpt lat="39.304654961451888" lon="-9.168503964319825">
        <ele>47.719999999999999</ele>
        <time>2025-05-04T13:29:03Z</time>
      </trkpt>
      <trkpt lat="39.303404968231916" lon="-9.167455974966288">
        <ele>45.32</ele>
        <time>2025-05-04T13:29:08Z</time>
      </trkpt>
      <trkpt lat="39.301473023369908" lon="-9.164978032931685">
        <ele>39.07</ele>
        <time>2025-05-04T13:29:17Z</time>
      </trkpt>
      <trkpt lat="39.299933016300201" lon="-9.16382996365428">
        <ele>39.07</ele>
        <time>2025-05-04T13:29:23Z</time>
      </trkpt>
      <trkpt lat="39.297554986551404" lon="-9.162175040692091">
        <ele>45.799999999999997</ele>
        <time>2025-05-04T13:29:32Z</time>
      </trkpt>
      <trkpt lat="39.295808030292392" lon="-9.160003960132599">
        <ele>47.240000000000002</ele>
        <time>2025-05-04T13:29:40Z</time>
      </trkpt>
      <trkpt lat="39.294239021837711" lon="-9.15821903385222">
        <ele>42.439999999999998</ele>
        <time>2025-05-04T13:29:47Z</time>
      </trkpt>
      <trkpt lat="39.292850978672504" lon="-9.157569017261267">
        <ele>39.07</ele>
        <time>2025-05-04T13:29:52Z</time>
      </trkpt>
      <trkpt lat="39.292259970679879" lon="-9.15746902115643">
        <ele>38.109999999999999</ele>
        <time>2025-05-04T13:29:54Z</time>
      </trkpt>
      <trkpt lat="39.29196098819375" lon="-9.157455023378134">
        <ele>37.630000000000003</ele>
        <time>2025-05-04T13:29:55Z</time>
      </trkpt>
      <trkpt lat="39.291666029021144" lon="-9.157476983964443">
        <ele>37.149999999999999</ele>
        <time>2025-05-04T13:29:56Z</time>
      </trkpt>
      <trkpt lat="39.291368974372745" lon="-9.157519983127713">
        <ele>37.149999999999999</ele>
        <time>2025-05-04T13:29:57Z</time>
      </trkpt>
      <trkpt lat="39.291078960523009" lon="-9.157606987282634">
        <ele>37.149999999999999</ele>
        <time>2025-05-04T13:29:58Z</time>
      </trkpt>
      <trkpt lat="39.28972402587533" lon="-9.158349959179759">
        <ele>39.07</ele>
        <time>2025-05-04T13:30:03Z</time>
      </trkpt>
      <trkpt lat="39.286333965137601" lon="-9.161213971674442">
        <ele>46.759999999999998</ele>
        <time>2025-05-04T13:30:17Z</time>
      </trkpt>
      <trkpt lat="39.282406959682703" lon="-9.164375038817525">
        <ele>39.07</ele>
        <time>2025-05-04T13:30:33Z</time>
      </trkpt>
      <trkpt lat="39.280383987352252" lon="-9.165774984285235">
        <ele>37.149999999999999</ele>
        <time>2025-05-04T13:30:41Z</time>
      </trkpt>
      <trkpt lat="39.276743978261948" lon="-9.166914001107216">
        <ele>37.630000000000003</ele>
        <time>2025-05-04T13:30:54Z</time>
      </trkpt>
      <trkpt lat="39.274188000708818" lon="-9.167430996894836">
        <ele>41.469999999999999</ele>
        <time>2025-05-04T13:31:03Z</time>
      </trkpt>
      <trkpt lat="39.271895969286561" lon="-9.167150035500526">
        <ele>50.609999999999999</ele>
        <time>2025-05-04T13:31:11Z</time>
      </trkpt>
      <trkpt lat="39.267972987145185" lon="-9.166241018101573">
        <ele>67.430000000000007</ele>
        <time>2025-05-04T13:31:25Z</time>
      </trkpt>
      <trkpt lat="39.265537038445473" lon="-9.165714969858527">
        <ele>73.200000000000003</ele>
        <time>2025-05-04T13:31:35Z</time>
      </trkpt>
      <trkpt lat="39.26271996460855" lon="-9.165372988209128">
        <ele>72.239999999999995</ele>
        <time>2025-05-04T13:31:48Z</time>
      </trkpt>
      <trkpt lat="39.260015962645411" lon="-9.165134020149708">
        <ele>69.829999999999998</ele>
        <time>2025-05-04T13:32:00Z</time>
      </trkpt>
      <trkpt lat="39.259699964895844" lon="-9.165106024593115">
        <ele>69.349999999999994</ele>
        <time>2025-05-04T13:32:03Z</time>
      </trkpt>
      <trkpt lat="39.259566022083163" lon="-9.165220018476248">
        <ele>68.870000000000005</ele>
        <time>2025-05-04T13:32:04Z</time>
      </trkpt>
      <trkpt lat="39.259442975744605" lon="-9.165277015417814">
        <ele>68.870000000000005</ele>
        <time>2025-05-04T13:32:05Z</time>
      </trkpt>
      <trkpt lat="39.259329987689853" lon="-9.165339041501284">
        <ele>68.390000000000001</ele>
        <time>2025-05-04T13:32:06Z</time>
      </trkpt>
      <trkpt lat="39.2592360265553" lon="-9.165454041212797">
        <ele>67.909999999999997</ele>
        <time>2025-05-04T13:32:07Z</time>
      </trkpt>
      <trkpt lat="39.259141981601715" lon="-9.165569040924311">
        <ele>67.430000000000007</ele>
        <time>2025-05-04T13:32:08Z</time>
      </trkpt>
      <trkpt lat="39.258962022140622" lon="-9.165788982063532">
        <ele>66.950000000000003</ele>
        <time>2025-05-04T13:32:10Z</time>
      </trkpt>
      <trkpt lat="39.258862026035786" lon="-9.165873974561691">
        <ele>66.469999999999999</ele>
        <time>2025-05-04T13:32:11Z</time>
      </trkpt>
      <trkpt lat="39.258762029930949" lon="-9.16595402173698">
        <ele>65.989999999999995</ele>
        <time>2025-05-04T13:32:12Z</time>
      </trkpt>
      <trkpt lat="39.258663039654493" lon="-9.166030967608094">
        <ele>65.510000000000005</ele>
        <time>2025-05-04T13:32:13Z</time>
      </trkpt>
      <trkpt lat="39.258561031892896" lon="-9.166076984256506">
        <ele>65.030000000000001</ele>
        <time>2025-05-04T13:32:14Z</time>
      </trkpt>
      <trkpt lat="39.258455000817776" lon="-9.166112020611763">
        <ele>64.549999999999997</ele>
        <time>2025-05-04T13:32:15Z</time>
      </trkpt>
      <trkpt lat="39.2583570163697" lon="-9.166142027825117">
        <ele>64.069999999999993</ele>
        <time>2025-05-04T13:32:16Z</time>
      </trkpt>
      <trkpt lat="39.258274035528302" lon="-9.166242023929954">
        <ele>63.579999999999998</ele>
        <time>2025-05-04T13:32:17Z</time>
      </trkpt>
      <trkpt lat="39.25820698030293" lon="-9.166308995336294">
        <ele>63.100000000000001</ele>
        <time>2025-05-04T13:32:18Z</time>
      </trkpt>
      <trkpt lat="39.258180996403098" lon="-9.166403962299228">
        <ele>63.100000000000001</ele>
        <time>2025-05-04T13:32:19Z</time>
      </trkpt>
      <trkpt lat="39.258159035816789" lon="-9.166488032788038">
        <ele>63.100000000000001</ele>
        <time>2025-05-04T13:32:20Z</time>
      </trkpt>
      <trkpt lat="39.25812098197639" lon="-9.166632033884525">
        <ele>63.100000000000001</ele>
        <time>2025-05-04T13:32:21Z</time>
      </trkpt>
      <trkpt lat="39.258128022775054" lon="-9.166716020554304">
        <ele>63.100000000000001</ele>
        <time>2025-05-04T13:32:22Z</time>
      </trkpt>
      <trkpt lat="39.258139003068209" lon="-9.166832026094198">
        <ele>63.579999999999998</ele>
        <time>2025-05-04T13:32:23Z</time>
      </trkpt>
      <trkpt lat="39.258159035816789" lon="-9.167018020525575">
        <ele>64.549999999999997</ele>
        <time>2025-05-04T13:32:25Z</time>
      </trkpt>
      <trkpt lat="39.258166998624802" lon="-9.167089015245438">
        <ele>65.510000000000005</ele>
        <time>2025-05-04T13:32:26Z</time>
      </trkpt>
      <trkpt lat="39.258334971964359" lon="-9.167208960279822">
        <ele>65.989999999999995</ele>
        <time>2025-05-04T13:32:27Z</time>
      </trkpt>
      <trkpt lat="39.258390041068196" lon="-9.167193034663796">
        <ele>66.469999999999999</ele>
        <time>2025-05-04T13:32:28Z</time>
      </trkpt>
      <trkpt lat="39.258455000817776" lon="-9.167134026065469">
        <ele>66.950000000000003</ele>
        <time>2025-05-04T13:32:29Z</time>
      </trkpt>
      <trkpt lat="39.258513003587723" lon="-9.167076023295522">
        <ele>67.430000000000007</ele>
        <time>2025-05-04T13:32:30Z</time>
      </trkpt>
      <trkpt lat="39.258575029671192" lon="-9.166992958635092">
        <ele>67.430000000000007</ele>
        <time>2025-05-04T13:32:31Z</time>
      </trkpt>
      <trkpt lat="39.258635966107249" lon="-9.166886005550623">
        <ele>67.909999999999997</ele>
        <time>2025-05-04T13:32:32Z</time>
      </trkpt>
      <trkpt lat="39.258703021332622" lon="-9.166765976697207">
        <ele>68.390000000000001</ele>
        <time>2025-05-04T13:32:33Z</time>
      </trkpt>
      <trkpt lat="39.259105017408729" lon="-9.166047982871532">
        <ele>70.310000000000002</ele>
        <time>2025-05-04T13:32:38Z</time>
      </trkpt>
      <trkpt lat="39.259200990200043" lon="-9.16591102257371">
        <ele>70.310000000000002</ele>
        <time>2025-05-04T13:32:39Z</time>
      </trkpt>
      <trkpt lat="39.259310038760304" lon="-9.165790993720293">
        <ele>70.310000000000002</ele>
        <time>2025-05-04T13:32:40Z</time>
      </trkpt>
      <trkpt lat="39.25943199545145" lon="-9.165692003443837">
        <ele>70.790000000000006</ele>
        <time>2025-05-04T13:32:41Z</time>
      </trkpt>
      <trkpt lat="39.25955998711288" lon="-9.165616985410452">
        <ele>70.790000000000006</ele>
        <time>2025-05-04T13:32:42Z</time>
      </trkpt>
      <trkpt lat="39.25968999043107" lon="-9.165569040924311">
        <ele>70.310000000000002</ele>
        <time>2025-05-04T13:32:43Z</time>
      </trkpt>
      <trkpt lat="39.259828040376306" lon="-9.165545990690589">
        <ele>69.829999999999998</ele>
        <time>2025-05-04T13:32:44Z</time>
      </trkpt>
      <trkpt lat="39.259969023987651" lon="-9.165543979033828">
        <ele>69.829999999999998</ele>
        <time>2025-05-04T13:32:45Z</time>
      </trkpt>
      <trkpt lat="39.260116964578629" lon="-9.165554037317634">
        <ele>68.870000000000005</ele>
        <time>2025-05-04T13:32:46Z</time>
      </trkpt>
      <trkpt lat="39.261079961434007" lon="-9.165727039799094">
        <ele>65.510000000000005</ele>
        <time>2025-05-04T13:32:52Z</time>
      </trkpt>
      <trkpt lat="39.262295002117753" lon="-9.16595402173698">
        <ele>63.100000000000001</ele>
        <time>2025-05-04T13:33:01Z</time>
      </trkpt>
      <trkpt lat="39.262422993779182" lon="-9.16597799398005">
        <ele>62.619999999999997</ele>
        <time>2025-05-04T13:33:02Z</time>
      </trkpt>
      <trkpt lat="39.262546040117741" lon="-9.165969025343657">
        <ele>62.619999999999997</ele>
        <time>2025-05-04T13:33:03Z</time>
      </trkpt>
      <trkpt lat="39.262663973495364" lon="-9.165937006473541">
        <ele>62.140000000000001</ele>
        <time>2025-05-04T13:33:04Z</time>
      </trkpt>
      <trkpt lat="39.262766987085342" lon="-9.165876992046833">
        <ele>62.140000000000001</ele>
        <time>2025-05-04T13:33:05Z</time>
      </trkpt>
      <trkpt lat="39.262953987345099" lon="-9.16571999900043">
        <ele>61.659999999999997</ele>
        <time>2025-05-04T13:33:06Z</time>
      </trkpt>
      <trkpt lat="39.263029005378485" lon="-9.165618997067213">
        <ele>61.659999999999997</ele>
        <time>2025-05-04T13:33:07Z</time>
      </trkpt>
      <trkpt lat="39.263093965128064" lon="-9.165497962385416">
        <ele>61.659999999999997</ele>
        <time>2025-05-04T13:33:08Z</time>
      </trkpt>
      <trkpt lat="39.263093965128064" lon="-9.165497962385416">
        <ele>61.18</ele>
        <time>2025-05-04T13:33:09Z</time>
      </trkpt>
      <trkpt lat="39.263203013688326" lon="-9.165186993777752">
        <ele>60.700000000000003</ele>
        <time>2025-05-04T13:33:10Z</time>
      </trkpt>
      <trkpt lat="39.26323302090168" lon="-9.165017008781433">
        <ele>60.700000000000003</ele>
        <time>2025-05-04T13:33:11Z</time>
      </trkpt>
      <trkpt lat="39.263415997847915" lon="-9.163739020004869">
        <ele>60.700000000000003</ele>
        <time>2025-05-04T13:33:21Z</time>
      </trkpt>
      <trkpt lat="39.263578020036221" lon="-9.162857998162508">
        <ele>57.82</ele>
        <time>2025-05-04T13:33:27Z</time>
      </trkpt>
      <trkpt lat="39.263619007542729" lon="-9.162633027881384">
        <ele>56.859999999999999</ele>
        <time>2025-05-04T13:33:29Z</time>
      </trkpt>
      <trkpt lat="39.263630993664265" lon="-9.162567984312773">
        <ele>56.369999999999997</ele>
        <time>2025-05-04T13:33:30Z</time>
      </trkpt>
      <trkpt lat="39.263650020584464" lon="-9.162272019311786">
        <ele>54.450000000000003</ele>
        <time>2025-05-04T13:33:36Z</time>
      </trkpt>
      <trkpt lat="39.263651026412845" lon="-9.162273025140166">
        <ele>53.969999999999999</ele>
        <time>2025-05-04T13:33:37Z</time>
      </trkpt>
      <trkpt lat="39.26362001337111" lon="-9.162221979349852">
        <ele>53.490000000000002</ele>
        <time>2025-05-04T13:33:38Z</time>
      </trkpt>
      <trkpt lat="39.263613978400826" lon="-9.162212004885078">
        <ele>53.009999999999998</ele>
        <time>2025-05-04T13:33:39Z</time>
      </trkpt>
      <trkpt lat="39.263535020872951" lon="-9.162159031257033">
        <ele>52.530000000000001</ele>
        <time>2025-05-04T13:33:40Z</time>
      </trkpt>
      <trkpt lat="39.263481041416526" lon="-9.162122989073396">
        <ele>52.530000000000001</ele>
        <time>2025-05-04T13:33:41Z</time>
      </trkpt>
      <trkpt lat="39.263414992019534" lon="-9.162080995738506">
        <ele>52.049999999999997</ele>
        <time>2025-05-04T13:33:42Z</time>
      </trkpt>
      <trkpt lat="39.262976031750441" lon="-9.16182903572917">
        <ele>49.649999999999999</ele>
        <time>2025-05-04T13:33:47Z</time>
      </trkpt>
      <trkpt lat="39.262877041473985" lon="-9.161778995767236">
        <ele>49.159999999999997</ele>
        <time>2025-05-04T13:33:48Z</time>
      </trkpt>
      <trkpt lat="39.262781990692019" lon="-9.161724010482431">
        <ele>48.68</ele>
        <time>2025-05-04T13:33:49Z</time>
      </trkpt>
      <trkpt lat="39.262693980708718" lon="-9.161634994670749">
        <ele>48.200000000000003</ele>
        <time>2025-05-04T13:33:50Z</time>
      </trkpt>
      <trkpt lat="39.262607982382178" lon="-9.161541033536196">
        <ele>47.719999999999999</ele>
        <time>2025-05-04T13:33:51Z</time>
      </trkpt>
      <trkpt lat="39.262526007369161" lon="-9.161440031602979">
        <ele>47.240000000000002</ele>
        <time>2025-05-04T13:33:52Z</time>
      </trkpt>
      <trkpt lat="39.262446966022253" lon="-9.161331988871098">
        <ele>46.280000000000001</ele>
        <time>2025-05-04T13:33:53Z</time>
      </trkpt>
      <trkpt lat="39.262392986565828" lon="-9.161197962239385">
        <ele>45.799999999999997</ele>
        <time>2025-05-04T13:33:54Z</time>
      </trkpt>
      <trkpt lat="39.262344036251307" lon="-9.161076005548239">
        <ele>45.32</ele>
        <time>2025-05-04T13:33:55Z</time>
      </trkpt>
      <trkpt lat="39.262089980766177" lon="-9.159721992909908">
        <ele>36.670000000000002</ele>
        <time>2025-05-04T13:34:05Z</time>
      </trkpt>
      <trkpt lat="39.261964000761509" lon="-9.159030988812447">
        <ele>34.259999999999998</ele>
        <time>2025-05-04T13:34:10Z</time>
      </trkpt>
      <trkpt lat="39.261943968012929" lon="-9.158920012414455">
        <ele>33.780000000000001</ele>
        <time>2025-05-04T13:34:11Z</time>
      </trkpt>
      <trkpt lat="39.261929970234632" lon="-9.158841976895928">
        <ele>33.780000000000001</ele>
        <time>2025-05-04T13:34:12Z</time>
      </trkpt>
      <trkpt lat="39.261789992451668" lon="-9.158756984397769">
        <ele>32.82</ele>
        <time>2025-05-04T13:34:19Z</time>
      </trkpt>
      <trkpt lat="39.261789992451668" lon="-9.158756984397769">
        <ele>32.340000000000003</ele>
        <time>2025-05-04T13:34:20Z</time>
      </trkpt>
      <trkpt lat="39.261757973581553" lon="-9.158704010769725">
        <ele>31.859999999999999</ele>
        <time>2025-05-04T13:34:21Z</time>
      </trkpt>
      <trkpt lat="39.261725032702088" lon="-9.1586500313133">
        <ele>31.859999999999999</ele>
        <time>2025-05-04T13:34:22Z</time>
      </trkpt>
      <trkpt lat="39.261725032702088" lon="-9.1585239674896">
        <ele>31.379999999999999</ele>
        <time>2025-05-04T13:34:23Z</time>
      </trkpt>
      <trkpt lat="39.261758979409933" lon="-9.15843796916306">
        <ele>30.899999999999999</ele>
        <time>2025-05-04T13:34:24Z</time>
      </trkpt>
      <trkpt lat="39.261812958866358" lon="-9.158373009413481">
        <ele>30.899999999999999</ele>
        <time>2025-05-04T13:34:25Z</time>
      </trkpt>
      <trkpt lat="39.261888982728124" lon="-9.158363034948707">
        <ele>30.899999999999999</ele>
        <time>2025-05-04T13:34:26Z</time>
      </trkpt>
      <trkpt lat="39.262048993259668" lon="-9.158325986936688">
        <ele>30.899999999999999</ele>
        <time>2025-05-04T13:34:28Z</time>
      </trkpt>
      <trkpt lat="39.262098027393222" lon="-9.158251974731684">
        <ele>30.420000000000002</ele>
        <time>2025-05-04T13:34:29Z</time>
      </trkpt>
      <trkpt lat="39.262132979929447" lon="-9.15819900110364">
        <ele>30.420000000000002</ele>
        <time>2025-05-04T13:34:30Z</time>
      </trkpt>
      <trkpt lat="39.262161981314421" lon="-9.158074026927352">
        <ele>30.420000000000002</ele>
        <time>2025-05-04T13:34:31Z</time>
      </trkpt>
      <trkpt lat="39.262187965214252" lon="-9.1579610388726">
        <ele>29.940000000000001</ele>
        <time>2025-05-04T13:34:32Z</time>
      </trkpt>
      <trkpt lat="39.262207997962832" lon="-9.157842015847564">
        <ele>29.940000000000001</ele>
        <time>2025-05-04T13:34:33Z</time>
      </trkpt>
      <trkpt lat="39.262292990460992" lon="-9.157229969277978">
        <ele>28.98</ele>
        <time>2025-05-04T13:34:38Z</time>
      </trkpt>
      <trkpt lat="39.262304976582527" lon="-9.15714799426496">
        <ele>28.5</ele>
        <time>2025-05-04T13:34:39Z</time>
      </trkpt>
      <trkpt lat="39.26228896714747" lon="-9.157037017866969">
        <ele>28.5</ele>
        <time>2025-05-04T13:34:40Z</time>
      </trkpt>
      <trkpt lat="39.262277986854315" lon="-9.156959988176823">
        <ele>28.5</ele>
        <time>2025-05-04T13:34:41Z</time>
      </trkpt>
      <trkpt lat="39.262256026268005" lon="-9.156844988465309">
        <ele>28.02</ele>
        <time>2025-05-04T13:34:42Z</time>
      </trkpt>
      <trkpt lat="39.26220296882093" lon="-9.156823027879">
        <ele>28.02</ele>
        <time>2025-05-04T13:34:43Z</time>
      </trkpt>
      <trkpt lat="39.262113030999899" lon="-9.156816992908716">
        <ele>27.530000000000001</ele>
        <time>2025-05-04T13:34:44Z</time>
      </trkpt>
      <trkpt lat="39.262040024623275" lon="-9.156839037314057">
        <ele>27.530000000000001</ele>
        <time>2025-05-04T13:34:45Z</time>
      </trkpt>
      <trkpt lat="39.261688990518451" lon="-9.156948002055287">
        <ele>28.02</ele>
        <time>2025-05-04T13:34:49Z</time>
      </trkpt>
      <trkpt lat="39.261592011898756" lon="-9.156978009268642">
        <ele>28.5</ele>
        <time>2025-05-04T13:34:50Z</time>
      </trkpt>
      <trkpt lat="39.260559026151896" lon="-9.157241033390164">
        <ele>29.460000000000001</ele>
        <time>2025-05-04T13:34:59Z</time>
      </trkpt>
      <trkpt lat="39.25988101400435" lon="-9.15731898508966">
        <ele>30.420000000000002</ele>
        <time>2025-05-04T13:35:05Z</time>
      </trkpt>
      <trkpt lat="39.2593879904598" lon="-9.15721002034843">
        <ele>30.899999999999999</ele>
        <time>2025-05-04T13:35:09Z</time>
      </trkpt>
      <trkpt lat="39.258721964433789" lon="-9.156906008720398">
        <ele>33.780000000000001</ele>
        <time>2025-05-04T13:35:16Z</time>
      </trkpt>
      <trkpt lat="39.25867703743279" lon="-9.156885975971818">
        <ele>34.259999999999998</ele>
        <time>2025-05-04T13:35:17Z</time>
      </trkpt>
      <trkpt lat="39.258633032441139" lon="-9.15686602704227">
        <ele>34.259999999999998</ele>
        <time>2025-05-04T13:35:18Z</time>
      </trkpt>
      <trkpt lat="39.258583998307586" lon="-9.15684599429369">
        <ele>34.740000000000002</ele>
        <time>2025-05-04T13:35:19Z</time>
      </trkpt>
      <trkpt lat="39.258515015244484" lon="-9.156839037314057">
        <ele>34.740000000000002</ele>
        <time>2025-05-04T13:35:20Z</time>
      </trkpt>
      <trkpt lat="39.25839900970459" lon="-9.15682596154511">
        <ele>34.740000000000002</ele>
        <time>2025-05-04T13:35:21Z</time>
      </trkpt>
      <trkpt lat="39.258331032469869" lon="-9.156848005950451">
        <ele>35.229999999999997</ele>
        <time>2025-05-04T13:35:22Z</time>
      </trkpt>
      <trkpt lat="39.258205974474549" lon="-9.15688999928534">
        <ele>35.229999999999997</ele>
        <time>2025-05-04T13:35:23Z</time>
      </trkpt>
      <trkpt lat="39.257413968443871" lon="-9.157617967575789">
        <ele>36.189999999999998</ele>
        <time>2025-05-04T13:35:32Z</time>
      </trkpt>
      <trkpt lat="39.257329981774092" lon="-9.157702038064599">
        <ele>36.670000000000002</ele>
        <time>2025-05-04T13:35:33Z</time>
      </trkpt>
      <trkpt lat="39.25724096596241" lon="-9.157760040834546">
        <ele>36.670000000000002</ele>
        <time>2025-05-04T13:35:34Z</time>
      </trkpt>
      <trkpt lat="39.257137030363083" lon="-9.157789964228869">
        <ele>37.149999999999999</ele>
        <time>2025-05-04T13:35:35Z</time>
      </trkpt>
      <trkpt lat="39.257034016773105" lon="-9.157819971442223">
        <ele>37.630000000000003</ele>
        <time>2025-05-04T13:35:36Z</time>
      </trkpt>
      <trkpt lat="39.256936032325029" lon="-9.15783598087728">
        <ele>38.109999999999999</ele>
        <time>2025-05-04T13:35:37Z</time>
      </trkpt>
      <trkpt lat="39.256834024563432" lon="-9.157838998362422">
        <ele>38.109999999999999</ele>
        <time>2025-05-04T13:35:38Z</time>
      </trkpt>
      <trkpt lat="39.256029026582837" lon="-9.157862970605493">
        <ele>40.509999999999998</ele>
        <time>2025-05-04T13:35:47Z</time>
      </trkpt>
      <trkpt lat="39.255283959209919" lon="-9.157900018617511">
        <ele>39.07</ele>
        <time>2025-05-04T13:35:53Z</time>
      </trkpt>
      <trkpt lat="39.254266982898116" lon="-9.158304026350379">
        <ele>36.189999999999998</ele>
        <time>2025-05-04T13:36:02Z</time>
      </trkpt>
      <trkpt lat="39.253020007163286" lon="-9.15940398350358">
        <ele>36.189999999999998</ele>
        <time>2025-05-04T13:36:12Z</time>
      </trkpt>
      <trkpt lat="39.252569982782006" lon="-9.159739008173347">
        <ele>36.189999999999998</ele>
        <time>2025-05-04T13:36:15Z</time>
      </trkpt>
      <trkpt lat="39.252412989735603" lon="-9.159844033420086">
        <ele>35.710000000000001</ele>
        <time>2025-05-04T13:36:16Z</time>
      </trkpt>
      <trkpt lat="39.252244010567665" lon="-9.159903964027762">
        <ele>35.710000000000001</ele>
        <time>2025-05-04T13:36:17Z</time>
      </trkpt>
      <trkpt lat="39.252062039449811" lon="-9.159931959584355">
        <ele>36.189999999999998</ele>
        <time>2025-05-04T13:36:18Z</time>
      </trkpt>
      <trkpt lat="39.251871015876532" lon="-9.159903964027762">
        <ele>36.189999999999998</ele>
        <time>2025-05-04T13:36:19Z</time>
      </trkpt>
      <trkpt lat="39.251678986474872" lon="-9.159856019541621">
        <ele>37.149999999999999</ele>
        <time>2025-05-04T13:36:20Z</time>
      </trkpt>
      <trkpt lat="39.251305991783738" lon="-9.159761974588037">
        <ele>38.109999999999999</ele>
        <time>2025-05-04T13:36:22Z</time>
      </trkpt>
      <trkpt lat="39.251132989302278" lon="-9.159726016223431">
        <ele>38.590000000000003</ele>
        <time>2025-05-04T13:36:23Z</time>
      </trkpt>
      <trkpt lat="39.250970967113972" lon="-9.159763986244798">
        <ele>38.590000000000003</ele>
        <time>2025-05-04T13:36:24Z</time>
      </trkpt>
      <trkpt lat="39.250807017087936" lon="-9.159802040085197">
        <ele>39.07</ele>
        <time>2025-05-04T13:36:25Z</time>
      </trkpt>
      <trkpt lat="39.250657986849546" lon="-9.159906981512904">
        <ele>39.07</ele>
        <time>2025-05-04T13:36:26Z</time>
      </trkpt>
      <trkpt lat="39.250511974096298" lon="-9.160020975396037">
        <ele>39.549999999999997</ele>
        <time>2025-05-04T13:36:27Z</time>
      </trkpt>
      <trkpt lat="39.250078964978456" lon="-9.160376032814384">
        <ele>40.509999999999998</ele>
        <time>2025-05-04T13:36:30Z</time>
      </trkpt>
      <trkpt lat="39.249934963881969" lon="-9.160495977848768">
        <ele>40.990000000000002</ele>
        <time>2025-05-04T13:36:31Z</time>
      </trkpt>
      <trkpt lat="39.249771013855934" lon="-9.160583987832069">
        <ele>40.990000000000002</ele>
        <time>2025-05-04T13:36:32Z</time>
      </trkpt>
      <trkpt lat="39.249418973922729" lon="-9.160681972280145">
        <ele>41.469999999999999</ele>
        <time>2025-05-04T13:36:34Z</time>
      </trkpt>
      <trkpt lat="39.249251000583172" lon="-9.160742992535234">
        <ele>41.469999999999999</ele>
        <time>2025-05-04T13:36:35Z</time>
      </trkpt>
      <trkpt lat="39.249085960909724" lon="-9.160822033882141">
        <ele>41.469999999999999</ele>
        <time>2025-05-04T13:36:36Z</time>
      </trkpt>
      <trkpt lat="39.248912036418915" lon="-9.160905014723539">
        <ele>41.469999999999999</ele>
        <time>2025-05-04T13:36:37Z</time>
      </trkpt>
      <trkpt lat="39.248766023665667" lon="-9.161052033305168">
        <ele>41.469999999999999</ele>
        <time>2025-05-04T13:36:38Z</time>
      </trkpt>
      <trkpt lat="39.248627973720431" lon="-9.161221012473106">
        <ele>41.950000000000003</ele>
        <time>2025-05-04T13:36:39Z</time>
      </trkpt>
      <trkpt lat="39.248377019539475" lon="-9.161583026871085">
        <ele>42.439999999999998</ele>
        <time>2025-05-04T13:36:41Z</time>
      </trkpt>
      <trkpt lat="39.248255984857678" lon="-9.161757035180926">
        <ele>42.439999999999998</ele>
        <time>2025-05-04T13:36:42Z</time>
      </trkpt>
      <trkpt lat="39.248127993196249" lon="-9.161914028227329">
        <ele>42.439999999999998</ele>
        <time>2025-05-04T13:36:43Z</time>
      </trkpt>
      <trkpt lat="39.247969994321465" lon="-9.162022992968559">
        <ele>42.439999999999998</ele>
        <time>2025-05-04T13:36:44Z</time>
      </trkpt>
      <trkpt lat="39.24780897796154" lon="-9.162132041528821">
        <ele>42.439999999999998</ele>
        <time>2025-05-04T13:36:45Z</time>
      </trkpt>
      <trkpt lat="39.245619038119912" lon="-9.163441965356469">
        <ele>41.469999999999999</ele>
        <time>2025-05-04T13:36:57Z</time>
      </trkpt>
      <trkpt lat="39.245431032031775" lon="-9.163555037230253">
        <ele>41.469999999999999</ele>
        <time>2025-05-04T13:36:58Z</time>
      </trkpt>
      <trkpt lat="39.245257023721933" lon="-9.163694009184837">
        <ele>41.469999999999999</ele>
        <time>2025-05-04T13:36:59Z</time>
      </trkpt>
      <trkpt lat="39.244524026289582" lon="-9.16458098217845">
        <ele>43.880000000000003</ele>
        <time>2025-05-04T13:37:04Z</time>
      </trkpt>
      <trkpt lat="39.244371978566051" lon="-9.164724983274937">
        <ele>44.359999999999999</ele>
        <time>2025-05-04T13:37:05Z</time>
      </trkpt>
      <trkpt lat="39.244237029924989" lon="-9.164850963279605">
        <ele>44.359999999999999</ele>
        <time>2025-05-04T13:37:06Z</time>
      </trkpt>
      <trkpt lat="39.244056986644864" lon="-9.164918018504977">
        <ele>44.840000000000003</ele>
        <time>2025-05-04T13:37:07Z</time>
      </trkpt>
      <trkpt lat="39.243883984163404" lon="-9.164983984082937">
        <ele>44.840000000000003</ele>
        <time>2025-05-04T13:37:08Z</time>
      </trkpt>
      <trkpt lat="39.243519036099315" lon="-9.165120022371411">
        <ele>45.32</ele>
        <time>2025-05-04T13:37:10Z</time>
      </trkpt>
      <trkpt lat="39.242574982345104" lon="-9.165473990142345">
        <ele>45.799999999999997</ele>
        <time>2025-05-04T13:37:15Z</time>
      </trkpt>
      <trkpt lat="39.242395022884011" lon="-9.165541967377067">
        <ele>45.799999999999997</ele>
        <time>2025-05-04T13:37:16Z</time>
      </trkpt>
      <trkpt lat="39.24123102799058" lon="-9.166484009474516">
        <ele>48.68</ele>
        <time>2025-05-04T13:37:23Z</time>
      </trkpt>
      <trkpt lat="39.241051990538836" lon="-9.166576964780688">
        <ele>49.159999999999997</ele>
        <time>2025-05-04T13:37:24Z</time>
      </trkpt>
      <trkpt lat="39.240875970572233" lon="-9.166670003905892">
        <ele>49.159999999999997</ele>
        <time>2025-05-04T13:37:25Z</time>
      </trkpt>
      <trkpt lat="39.240690981969237" lon="-9.166706968098879">
        <ele>49.159999999999997</ele>
        <time>2025-05-04T13:37:26Z</time>
      </trkpt>
      <trkpt lat="39.240504987537861" lon="-9.166696993634105">
        <ele>49.649999999999999</ele>
        <time>2025-05-04T13:37:27Z</time>
      </trkpt>
      <trkpt lat="39.240321004763246" lon="-9.166634967550635">
        <ele>49.649999999999999</ele>
        <time>2025-05-04T13:37:28Z</time>
      </trkpt>
      <trkpt lat="39.240134004503489" lon="-9.166573025286198">
        <ele>49.649999999999999</ele>
        <time>2025-05-04T13:37:29Z</time>
      </trkpt>
      <trkpt lat="39.239950021728873" lon="-9.166490966454148">
        <ele>49.649999999999999</ele>
        <time>2025-05-04T13:37:30Z</time>
      </trkpt>
      <trkpt lat="39.239573003724217" lon="-9.166289968416095">
        <ele>50.130000000000003</ele>
        <time>2025-05-04T13:37:32Z</time>
      </trkpt>
      <trkpt lat="39.239387009292841" lon="-9.166199024766684">
        <ele>50.130000000000003</ele>
        <time>2025-05-04T13:37:33Z</time>
      </trkpt>
      <trkpt lat="39.239201014861465" lon="-9.166168011724949">
        <ele>49.649999999999999</ele>
        <time>2025-05-04T13:37:34Z</time>
      </trkpt>
      <trkpt lat="39.239027006551623" lon="-9.166214028373361">
        <ele>49.649999999999999</ele>
        <time>2025-05-04T13:37:35Z</time>
      </trkpt>
      <trkpt lat="39.238862972706556" lon="-9.166286028921604">
        <ele>49.649999999999999</ele>
        <time>2025-05-04T13:37:36Z</time>
      </trkpt>
      <trkpt lat="39.238716959953308" lon="-9.166392982006073">
        <ele>49.649999999999999</ele>
        <time>2025-05-04T13:37:37Z</time>
      </trkpt>
      <trkpt lat="39.23856901936233" lon="-9.166526002809405">
        <ele>49.649999999999999</ele>
        <time>2025-05-04T13:37:38Z</time>
      </trkpt>
      <trkpt lat="39.23841998912394" lon="-9.166662041097879">
        <ele>50.130000000000003</ele>
        <time>2025-05-04T13:37:39Z</time>
      </trkpt>
      <trkpt lat="39.238256039097905" lon="-9.166764970868826">
        <ele>50.130000000000003</ele>
        <time>2025-05-04T13:37:40Z</time>
      </trkpt>
      <trkpt lat="39.238085970282555" lon="-9.166846023872495">
        <ele>50.609999999999999</ele>
        <time>2025-05-04T13:37:41Z</time>
      </trkpt>
      <trkpt lat="39.237913973629475" lon="-9.166895980015397">
        <ele>50.609999999999999</ele>
        <time>2025-05-04T13:37:42Z</time>
      </trkpt>
      <trkpt lat="39.237733008340001" lon="-9.166909977793694">
        <ele>50.609999999999999</ele>
        <time>2025-05-04T13:37:43Z</time>
      </trkpt>
      <trkpt lat="39.237550031393766" lon="-9.166875025257468">
        <ele>51.090000000000003</ele>
        <time>2025-05-04T13:37:44Z</time>
      </trkpt>
      <trkpt lat="39.236784009262919" lon="-9.166740998625755">
        <ele>51.57</ele>
        <time>2025-05-04T13:37:48Z</time>
      </trkpt>
      <trkpt lat="39.236588962376118" lon="-9.166749967262149">
        <ele>51.57</ele>
        <time>2025-05-04T13:37:49Z</time>
      </trkpt>
      <trkpt lat="39.236395005136728" lon="-9.166759019717574">
        <ele>52.049999999999997</ele>
        <time>2025-05-04T13:37:50Z</time>
      </trkpt>
      <trkpt lat="39.23620599322021" lon="-9.166839988902211">
        <ele>52.049999999999997</ele>
        <time>2025-05-04T13:37:51Z</time>
      </trkpt>
      <trkpt lat="39.236021004617214" lon="-9.166935039684176">
        <ele>52.049999999999997</ele>
        <time>2025-05-04T13:37:52Z</time>
      </trkpt>
      <trkpt lat="39.235831992700696" lon="-9.167031012475491">
        <ele>52.530000000000001</ele>
        <time>2025-05-04T13:37:53Z</time>
      </trkpt>
      <trkpt lat="39.235264034941792" lon="-9.167306022718549">
        <ele>52.530000000000001</ele>
        <time>2025-05-04T13:37:56Z</time>
      </trkpt>
      <trkpt lat="39.235069993883371" lon="-9.167369976639748">
        <ele>52.530000000000001</ele>
        <time>2025-05-04T13:37:57Z</time>
      </trkpt>
      <trkpt lat="39.233619002625346" lon="-9.16761196218431">
        <ele>51.090000000000003</ele>
        <time>2025-05-04T13:38:04Z</time>
      </trkpt>
      <trkpt lat="39.233223041519523" lon="-9.167638029903173">
        <ele>51.57</ele>
        <time>2025-05-04T13:38:06Z</time>
      </trkpt>
      <trkpt lat="39.233008967712522" lon="-9.16763199493289">
        <ele>52.049999999999997</ele>
        <time>2025-05-04T13:38:07Z</time>
      </trkpt>
      <trkpt lat="39.232801012694836" lon="-9.167626965790987">
        <ele>53.009999999999998</ele>
        <time>2025-05-04T13:38:08Z</time>
      </trkpt>
      <trkpt lat="39.232598003000021" lon="-9.167622020468116">
        <ele>53.490000000000002</ele>
        <time>2025-05-04T13:38:09Z</time>
      </trkpt>
      <trkpt lat="39.232202963903546" lon="-9.167677005752921">
        <ele>54.450000000000003</ele>
        <time>2025-05-04T13:38:11Z</time>
      </trkpt>
      <trkpt lat="39.232001965865493" lon="-9.167723022401333">
        <ele>54.93</ele>
        <time>2025-05-04T13:38:12Z</time>
      </trkpt>
      <trkpt lat="39.231158997863531" lon="-9.16778395883739">
        <ele>55.890000000000001</ele>
        <time>2025-05-04T13:38:16Z</time>
      </trkpt>
      <trkpt lat="39.23053496517241" lon="-9.167663007974625">
        <ele>56.369999999999997</ele>
        <time>2025-05-04T13:38:19Z</time>
      </trkpt>
      <trkpt lat="39.230335978791118" lon="-9.167640041559935">
        <ele>56.369999999999997</ele>
        <time>2025-05-04T13:38:20Z</time>
      </trkpt>
      <trkpt lat="39.229955021291971" lon="-9.167672982439399">
        <ele>55.890000000000001</ele>
        <time>2025-05-04T13:38:22Z</time>
      </trkpt>
      <trkpt lat="39.229776989668608" lon="-9.167703995481134">
        <ele>55.890000000000001</ele>
        <time>2025-05-04T13:38:23Z</time>
      </trkpt>
      <trkpt lat="39.229613961651921" lon="-9.167675999924541">
        <ele>55.409999999999997</ele>
        <time>2025-05-04T13:38:24Z</time>
      </trkpt>
      <trkpt lat="39.228723971173167" lon="-9.167426973581314">
        <ele>54.450000000000003</ele>
        <time>2025-05-04T13:38:31Z</time>
      </trkpt>
      <trkpt lat="39.227211037650704" lon="-9.167425967752934">
        <ele>55.409999999999997</ele>
        <time>2025-05-04T13:38:41Z</time>
      </trkpt>
      <trkpt lat="39.225710006430745" lon="-9.167447006329894">
        <ele>60.219999999999999</ele>
        <time>2025-05-04T13:38:50Z</time>
      </trkpt>
      <trkpt lat="39.224814986810088" lon="-9.167339969426394">
        <ele>62.140000000000001</ele>
        <time>2025-05-04T13:38:56Z</time>
      </trkpt>
      <trkpt lat="39.224669979885221" lon="-9.167339969426394">
        <ele>62.140000000000001</ele>
        <time>2025-05-04T13:38:57Z</time>
      </trkpt>
      <trkpt lat="39.224531007930636" lon="-9.167339969426394">
        <ele>62.619999999999997</ele>
        <time>2025-05-04T13:38:58Z</time>
      </trkpt>
      <trkpt lat="39.224397987127304" lon="-9.167403001338244">
        <ele>62.619999999999997</ele>
        <time>2025-05-04T13:38:59Z</time>
      </trkpt>
      <trkpt lat="39.224273012951016" lon="-9.167507020756602">
        <ele>63.100000000000001</ele>
        <time>2025-05-04T13:39:00Z</time>
      </trkpt>
      <trkpt lat="39.224146027117968" lon="-9.16761196218431">
        <ele>63.579999999999998</ele>
        <time>2025-05-04T13:39:01Z</time>
      </trkpt>
      <trkpt lat="39.224019041284919" lon="-9.167716987431049">
        <ele>63.579999999999998</ele>
        <time>2025-05-04T13:39:02Z</time>
      </trkpt>
      <trkpt lat="39.223879985511303" lon="-9.167790999636054">
        <ele>64.069999999999993</ele>
        <time>2025-05-04T13:39:03Z</time>
      </trkpt>
      <trkpt lat="39.223730033263564" lon="-9.167855037376285">
        <ele>64.069999999999993</ele>
        <time>2025-05-04T13:39:04Z</time>
      </trkpt>
      <trkpt lat="39.223576979711652" lon="-9.167875992134213">
        <ele>64.549999999999997</ele>
        <time>2025-05-04T13:39:05Z</time>
      </trkpt>
      <trkpt lat="39.223425015807152" lon="-9.167868029326201">
        <ele>65.030000000000001</ele>
        <time>2025-05-04T13:39:06Z</time>
      </trkpt>
      <trkpt lat="39.223276991397142" lon="-9.167809020727873">
        <ele>65.510000000000005</ele>
        <time>2025-05-04T13:39:07Z</time>
      </trkpt>
      <trkpt lat="39.222977003082633" lon="-9.167688991874456">
        <ele>66.469999999999999</ele>
        <time>2025-05-04T13:39:09Z</time>
      </trkpt>
      <trkpt lat="39.222828978672624" lon="-9.167684968560934">
        <ele>66.469999999999999</ele>
        <time>2025-05-04T13:39:10Z</time>
      </trkpt>
      <trkpt lat="39.222381971776485" lon="-9.167817989364266">
        <ele>67.909999999999997</ele>
        <time>2025-05-04T13:39:13Z</time>
      </trkpt>
      <trkpt lat="39.222242999821901" lon="-9.167859982699156">
        <ele>68.390000000000001</ele>
        <time>2025-05-04T13:39:14Z</time>
      </trkpt>
      <trkpt lat="39.222104027867317" lon="-9.167893007397652">
        <ele>68.870000000000005</ele>
        <time>2025-05-04T13:39:15Z</time>
      </trkpt>
      <trkpt lat="39.221976958215237" lon="-9.167831987142563">
        <ele>68.870000000000005</ele>
        <time>2025-05-04T13:39:16Z</time>
      </trkpt>
      <trkpt lat="39.221850978210568" lon="-9.167770966887474">
        <ele>69.349999999999994</ele>
        <time>2025-05-04T13:39:17Z</time>
      </trkpt>
      <trkpt lat="39.221730027347803" lon="-9.167712964117527">
        <ele>69.829999999999998</ele>
        <time>2025-05-04T13:39:18Z</time>
      </trkpt>
      <trkpt lat="39.221614021807909" lon="-9.167657978832722">
        <ele>70.310000000000002</ele>
        <time>2025-05-04T13:39:19Z</time>
      </trkpt>
      <trkpt lat="39.221501033753157" lon="-9.167635012418032">
        <ele>70.790000000000006</ele>
        <time>2025-05-04T13:39:20Z</time>
      </trkpt>
      <trkpt lat="39.221384022384882" lon="-9.167626965790987">
        <ele>70.790000000000006</ele>
        <time>2025-05-04T13:39:21Z</time>
      </trkpt>
      <trkpt lat="39.221256030723453" lon="-9.167619002982974">
        <ele>71.269999999999996</ele>
        <time>2025-05-04T13:39:22Z</time>
      </trkpt>
      <trkpt lat="39.221143964678049" lon="-9.167697038501501">
        <ele>71.269999999999996</ele>
        <time>2025-05-04T13:39:23Z</time>
      </trkpt>
      <trkpt lat="39.221027037128806" lon="-9.167779013514519">
        <ele>71.760000000000005</ele>
        <time>2025-05-04T13:39:24Z</time>
      </trkpt>
      <trkpt lat="39.220680026337504" lon="-9.168020999059081">
        <ele>72.239999999999995</ele>
        <time>2025-05-04T13:39:27Z</time>
      </trkpt>
      <trkpt lat="39.220571983605623" lon="-9.168096017092466">
        <ele>72.719999999999999</ele>
        <time>2025-05-04T13:39:28Z</time>
      </trkpt>
      <trkpt lat="39.220453966408968" lon="-9.168135998770595">
        <ele>72.719999999999999</ele>
        <time>2025-05-04T13:39:29Z</time>
      </trkpt>
      <trkpt lat="39.220333015546203" lon="-9.168166005983949">
        <ele>72.719999999999999</ele>
        <time>2025-05-04T13:39:30Z</time>
      </trkpt>
      <trkpt lat="39.220205023884773" lon="-9.168198024854064">
        <ele>73.200000000000003</ele>
        <time>2025-05-04T13:39:31Z</time>
      </trkpt>
      <trkpt lat="39.220083989202976" lon="-9.168204981833696">
        <ele>73.200000000000003</ele>
        <time>2025-05-04T13:39:32Z</time>
      </trkpt>
      <trkpt lat="39.219557018950582" lon="-9.16823398321867">
        <ele>74.640000000000001</ele>
        <time>2025-05-04T13:39:36Z</time>
      </trkpt>
      <trkpt lat="39.219431960955262" lon="-9.168241024017334">
        <ele>74.640000000000001</ele>
        <time>2025-05-04T13:39:37Z</time>
      </trkpt>
      <trkpt lat="39.219306986778975" lon="-9.168315036222339">
        <ele>75.120000000000005</ele>
        <time>2025-05-04T13:39:38Z</time>
      </trkpt>
      <trkpt lat="39.219186035916209" lon="-9.168387036770582">
        <ele>75.120000000000005</ele>
        <time>2025-05-04T13:39:39Z</time>
      </trkpt>
      <trkpt lat="39.219066007062793" lon="-9.168458031490445">
        <ele>75.120000000000005</ele>
        <time>2025-05-04T13:39:40Z</time>
      </trkpt>
      <trkpt lat="39.218946984037757" lon="-9.168535983189941">
        <ele>75.599999999999994</ele>
        <time>2025-05-04T13:39:41Z</time>
      </trkpt>
      <trkpt lat="39.21884598210454" lon="-9.168661963194609">
        <ele>75.599999999999994</ele>
        <time>2025-05-04T13:39:42Z</time>
      </trkpt>
      <trkpt lat="39.21873701736331" lon="-9.168795989826322">
        <ele>76.079999999999998</ele>
        <time>2025-05-04T13:39:43Z</time>
      </trkpt>
      <trkpt lat="39.218087000772357" lon="-9.169763009995222">
        <ele>78.480000000000004</ele>
        <time>2025-05-04T13:39:49Z</time>
      </trkpt>
      <trkpt lat="39.218012988567352" lon="-9.169958978891373">
        <ele>78.480000000000004</ele>
        <time>2025-05-04T13:39:50Z</time>
      </trkpt>
      <trkpt lat="39.217892037704587" lon="-9.17035804130137">
        <ele>78.969999999999999</ele>
        <time>2025-05-04T13:39:52Z</time>
      </trkpt>
      <trkpt lat="39.217829005792737" lon="-9.170539006590843">
        <ele>79.450000000000003</ele>
        <time>2025-05-04T13:39:53Z</time>
      </trkpt>
      <trkpt lat="39.217726998031139" lon="-9.170699017122388">
        <ele>79.450000000000003</ele>
        <time>2025-05-04T13:39:54Z</time>
      </trkpt>
      <trkpt lat="39.217495992779732" lon="-9.171001017093658">
        <ele>80.409999999999997</ele>
        <time>2025-05-04T13:39:56Z</time>
      </trkpt>
      <trkpt lat="39.217374958097935" lon="-9.171144012361765">
        <ele>80.890000000000001</ele>
        <time>2025-05-04T13:39:57Z</time>
      </trkpt>
      <trkpt lat="39.217265993356705" lon="-9.171309974044561">
        <ele>80.890000000000001</ele>
        <time>2025-05-04T13:39:58Z</time>
      </trkpt>
      <trkpt lat="39.217173038050532" lon="-9.17149999178946">
        <ele>81.370000000000005</ele>
        <time>2025-05-04T13:39:59Z</time>
      </trkpt>
      <trkpt lat="39.217079998925328" lon="-9.17169101536274">
        <ele>81.849999999999994</ele>
        <time>2025-05-04T13:40:00Z</time>
      </trkpt>
      <trkpt lat="39.216986037790775" lon="-9.171882960945368">
        <ele>81.849999999999994</ele>
        <time>2025-05-04T13:40:01Z</time>
      </trkpt>
      <trkpt lat="39.216894004493952" lon="-9.172070967033505">
        <ele>82.329999999999998</ele>
        <time>2025-05-04T13:40:02Z</time>
      </trkpt>
      <trkpt lat="39.216793002560735" lon="-9.172231983393431">
        <ele>82.329999999999998</ele>
        <time>2025-05-04T13:40:03Z</time>
      </trkpt>
      <trkpt lat="39.216670040041208" lon="-9.172355029731989">
        <ele>82.810000000000002</ele>
        <time>2025-05-04T13:40:04Z</time>
      </trkpt>
      <trkpt lat="39.216536013409495" lon="-9.172489978373051">
        <ele>83.290000000000006</ele>
        <time>2025-05-04T13:40:05Z</time>
      </trkpt>
      <trkpt lat="39.21639502979815" lon="-9.172535995021462">
        <ele>83.769999999999996</ele>
        <time>2025-05-04T13:40:06Z</time>
      </trkpt>
      <trkpt lat="39.216234013438225" lon="-9.172589974477887">
        <ele>83.769999999999996</ele>
        <time>2025-05-04T13:40:07Z</time>
      </trkpt>
      <trkpt lat="39.216065034270287" lon="-9.172645965591073">
        <ele>83.769999999999996</ele>
        <time>2025-05-04T13:40:08Z</time>
      </trkpt>
      <trkpt lat="39.215896977111697" lon="-9.172719977796078">
        <ele>84.25</ele>
        <time>2025-05-04T13:40:09Z</time>
      </trkpt>
      <trkpt lat="39.215731015428901" lon="-9.172822991386056">
        <ele>84.25</ele>
        <time>2025-05-04T13:40:10Z</time>
      </trkpt>
      <trkpt lat="39.215559018775821" lon="-9.172931034117937">
        <ele>84.730000000000004</ele>
        <time>2025-05-04T13:40:11Z</time>
      </trkpt>
      <trkpt lat="39.215201027691364" lon="-9.173130020499229">
        <ele>85.209999999999994</ele>
        <time>2025-05-04T13:40:13Z</time>
      </trkpt>
      <trkpt lat="39.21502199023962" lon="-9.173176037147641">
        <ele>85.689999999999998</ele>
        <time>2025-05-04T13:40:14Z</time>
      </trkpt>
      <trkpt lat="39.214853011071682" lon="-9.173220964148641">
        <ele>86.180000000000007</ele>
        <time>2025-05-04T13:40:15Z</time>
      </trkpt>
      <trkpt lat="39.214685959741473" lon="-9.173222975805402">
        <ele>86.659999999999997</ele>
        <time>2025-05-04T13:40:16Z</time>
      </trkpt>
      <trkpt lat="39.214519998058677" lon="-9.17317695915699">
        <ele>87.620000000000005</ele>
        <time>2025-05-04T13:40:17Z</time>
      </trkpt>
      <trkpt lat="39.214359987527132" lon="-9.173096995800734">
        <ele>88.099999999999994</ele>
        <time>2025-05-04T13:40:18Z</time>
      </trkpt>
      <trkpt lat="39.214214980602264" lon="-9.172986019402742">
        <ele>88.579999999999998</ele>
        <time>2025-05-04T13:40:19Z</time>
      </trkpt>
      <trkpt lat="39.214067040011287" lon="-9.172846963629127">
        <ele>89.540000000000006</ele>
        <time>2025-05-04T13:40:20Z</time>
      </trkpt>
      <trkpt lat="39.213918009772897" lon="-9.172707991674542">
        <ele>90.019999999999996</ele>
        <time>2025-05-04T13:40:21Z</time>
      </trkpt>
      <trkpt lat="39.213477037847042" lon="-9.172357963398099">
        <ele>92.900000000000006</ele>
        <time>2025-05-04T13:40:24Z</time>
      </trkpt>
      <trkpt lat="39.213335970416665" lon="-9.172280011698604">
        <ele>93.870000000000005</ele>
        <time>2025-05-04T13:40:25Z</time>
      </trkpt>
      <trkpt lat="39.21319498680532" lon="-9.172210022807121">
        <ele>94.349999999999994</ele>
        <time>2025-05-04T13:40:26Z</time>
      </trkpt>
      <trkpt lat="39.213040005415678" lon="-9.172201976180077">
        <ele>94.829999999999998</ele>
        <time>2025-05-04T13:40:27Z</time>
      </trkpt>
      <trkpt lat="39.212883012369275" lon="-9.172193007543683">
        <ele>94.829999999999998</ele>
        <time>2025-05-04T13:40:28Z</time>
      </trkpt>
      <trkpt lat="39.212728030979633" lon="-9.172223014757037">
        <ele>95.310000000000002</ele>
        <time>2025-05-04T13:40:29Z</time>
      </trkpt>
      <trkpt lat="39.212583024054766" lon="-9.17227397672832">
        <ele>95.310000000000002</ele>
        <time>2025-05-04T13:40:30Z</time>
      </trkpt>
      <trkpt lat="39.211987992748618" lon="-9.172482015565038">
        <ele>96.269999999999996</ele>
        <time>2025-05-04T13:40:34Z</time>
      </trkpt>
      <trkpt lat="39.211825970560312" lon="-9.172524008899927">
        <ele>96.75</ele>
        <time>2025-05-04T13:40:35Z</time>
      </trkpt>
      <trkpt lat="39.211664032191038" lon="-9.172564996406436">
        <ele>97.230000000000004</ele>
        <time>2025-05-04T13:40:36Z</time>
      </trkpt>
      <trkpt lat="39.211495975032449" lon="-9.172560973092914">
        <ele>97.709999999999994</ele>
        <time>2025-05-04T13:40:37Z</time>
      </trkpt>
      <trkpt lat="39.211324984207749" lon="-9.172541024163365">
        <ele>98.670000000000002</ele>
        <time>2025-05-04T13:40:38Z</time>
      </trkpt>
      <trkpt lat="39.21100202947855" lon="-9.172404985874891">
        <ele>99.150000000000006</ele>
        <time>2025-05-04T13:40:40Z</time>
      </trkpt>
      <trkpt lat="39.210489979013801" lon="-9.172156965360045">
        <ele>99.150000000000006</ele>
        <time>2025-05-04T13:40:43Z</time>
      </trkpt>
      <trkpt lat="39.210310019552708" lon="-9.172106003388763">
        <ele>98.670000000000002</ele>
        <time>2025-05-04T13:40:44Z</time>
      </trkpt>
      <trkpt lat="39.21012201346457" lon="-9.172088988125324">
        <ele>98.670000000000002</ele>
        <time>2025-05-04T13:40:45Z</time>
      </trkpt>
      <trkpt lat="39.209936019033194" lon="-9.17210198007524">
        <ele>98.189999999999998</ele>
        <time>2025-05-04T13:40:46Z</time>
      </trkpt>
      <trkpt lat="39.209755975753069" lon="-9.172178003937006">
        <ele>98.189999999999998</ele>
        <time>2025-05-04T13:40:47Z</time>
      </trkpt>
      <trkpt lat="39.209579033777118" lon="-9.172278000041843">
        <ele>97.709999999999994</ele>
        <time>2025-05-04T13:40:48Z</time>
      </trkpt>
      <trkpt lat="39.209425980225205" lon="-9.172427030280232">
        <ele>97.709999999999994</ele>
        <time>2025-05-04T13:40:49Z</time>
      </trkpt>
      <trkpt lat="39.207763010635972" lon="-9.174076002091169">
        <ele>98.189999999999998</ele>
        <time>2025-05-04T13:40:59Z</time>
      </trkpt>
      <trkpt lat="39.206892969086766" lon="-9.17495802976191">
        <ele>99.150000000000006</ele>
        <time>2025-05-04T13:41:04Z</time>
      </trkpt>
      <trkpt lat="39.206709992140532" lon="-9.175076968967915">
        <ele>99.150000000000006</ele>
        <time>2025-05-04T13:41:05Z</time>
      </trkpt>
      <trkpt lat="39.206515029072762" lon="-9.175153998658061">
        <ele>99.150000000000006</ele>
        <time>2025-05-04T13:41:06Z</time>
      </trkpt>
      <trkpt lat="39.206322999671102" lon="-9.17521501891315">
        <ele>99.629999999999995</ele>
        <time>2025-05-04T13:41:07Z</time>
      </trkpt>
      <trkpt lat="39.206122001633048" lon="-9.17521501891315">
        <ele>100.11</ele>
        <time>2025-05-04T13:41:08Z</time>
      </trkpt>
      <trkpt lat="39.205921003594995" lon="-9.17521501891315">
        <ele>100.59999999999999</ele>
        <time>2025-05-04T13:41:09Z</time>
      </trkpt>
      <trkpt lat="39.205722017213702" lon="-9.175189035013318">
        <ele>100.59999999999999</ele>
        <time>2025-05-04T13:41:10Z</time>
      </trkpt>
      <trkpt lat="39.205530993640423" lon="-9.175110999494791">
        <ele>101.08</ele>
        <time>2025-05-04T13:41:11Z</time>
      </trkpt>
      <trkpt lat="39.205347010865808" lon="-9.175017960369587">
        <ele>101.56</ele>
        <time>2025-05-04T13:41:12Z</time>
      </trkpt>
      <trkpt lat="39.204268008470535" lon="-9.174340032041073">
        <ele>106.36</ele>
        <time>2025-05-04T13:41:18Z</time>
      </trkpt>
      <trkpt lat="39.204089976847172" lon="-9.174227965995669">
        <ele>107.31999999999999</ele>
        <time>2025-05-04T13:41:19Z</time>
      </trkpt>
      <trkpt lat="39.20391202904284" lon="-9.174181027337909">
        <ele>107.81</ele>
        <time>2025-05-04T13:41:20Z</time>
      </trkpt>
      <trkpt lat="39.203728968277574" lon="-9.174148002639413">
        <ele>108.29000000000001</ele>
        <time>2025-05-04T13:41:21Z</time>
      </trkpt>
      <trkpt lat="39.203543979674578" lon="-9.174173986539245">
        <ele>109.25</ele>
        <time>2025-05-04T13:41:22Z</time>
      </trkpt>
      <trkpt lat="39.203358991071582" lon="-9.174212962388992">
        <ele>109.73</ele>
        <time>2025-05-04T13:41:23Z</time>
      </trkpt>
      <trkpt lat="39.201152035966516" lon="-9.174821991473436">
        <ele>114.53</ele>
        <time>2025-05-04T13:41:34Z</time>
      </trkpt>
      <trkpt lat="39.1992739867419" lon="-9.175394978374243">
        <ele>118.38</ele>
        <time>2025-05-04T13:41:43Z</time>
      </trkpt>
      <trkpt lat="39.199111964553595" lon="-9.175450969487429">
        <ele>118.38</ele>
        <time>2025-05-04T13:41:44Z</time>
      </trkpt>
      <trkpt lat="39.198962012305856" lon="-9.175592036917806">
        <ele>118.86</ele>
        <time>2025-05-04T13:41:45Z</time>
      </trkpt>
      <trkpt lat="39.19882102869451" lon="-9.175723968073726">
        <ele>119.34</ele>
        <time>2025-05-04T13:41:46Z</time>
      </trkpt>
      <trkpt lat="39.198706028982997" lon="-9.175881966948509">
        <ele>119.81999999999999</ele>
        <time>2025-05-04T13:41:47Z</time>
      </trkpt>
      <trkpt lat="39.198615001514554" lon="-9.176078019663692">
        <ele>120.3</ele>
        <time>2025-05-04T13:41:48Z</time>
      </trkpt>
      <trkpt lat="39.198523974046111" lon="-9.176276000216603">
        <ele>120.3</ele>
        <time>2025-05-04T13:41:49Z</time>
      </trkpt>
      <trkpt lat="39.198342002928257" lon="-9.176668021827936">
        <ele>121.26000000000001</ele>
        <time>2025-05-04T13:41:51Z</time>
      </trkpt>
      <trkpt lat="39.198238989338279" lon="-9.176844963803887">
        <ele>121.26000000000001</ele>
        <time>2025-05-04T13:41:52Z</time>
      </trkpt>
      <trkpt lat="39.198124995455146" lon="-9.177039004862309">
        <ele>121.73999999999999</ele>
        <time>2025-05-04T13:41:53Z</time>
      </trkpt>
      <trkpt lat="39.197107013314962" lon="-9.178178021684289">
        <ele>125.59</ele>
        <time>2025-05-04T13:42:01Z</time>
      </trkpt>
      <trkpt lat="39.196506030857563" lon="-9.178873971104622">
        <ele>125.11</ele>
        <time>2025-05-04T13:42:07Z</time>
      </trkpt>
      <trkpt lat="39.196516005322337" lon="-9.179119979962707">
        <ele>125.59</ele>
        <time>2025-05-04T13:42:08Z</time>
      </trkpt>
      <trkpt lat="39.196496978402138" lon="-9.179183011874557">
        <ele>125.59</ele>
        <time>2025-05-04T13:42:09Z</time>
      </trkpt>
      <trkpt lat="39.196466971188784" lon="-9.179282002151012">
        <ele>125.59</ele>
        <time>2025-05-04T13:42:10Z</time>
      </trkpt>
      <trkpt lat="39.196409974247217" lon="-9.179365988820791">
        <ele>125.59</ele>
        <time>2025-05-04T13:42:11Z</time>
      </trkpt>
      <trkpt lat="39.196364963427186" lon="-9.179399013519287">
        <ele>125.59</ele>
        <time>2025-05-04T13:42:12Z</time>
      </trkpt>
      <trkpt lat="39.196160025894642" lon="-9.179389961063862">
        <ele>125.59</ele>
        <time>2025-05-04T13:42:13Z</time>
      </trkpt>
      <trkpt lat="39.196064975112677" lon="-9.179548965767026">
        <ele>126.06999999999999</ele>
        <time>2025-05-04T13:42:15Z</time>
      </trkpt>
      <trkpt lat="39.195938995108008" lon="-9.179704030975699">
        <ele>126.55</ele>
        <time>2025-05-04T13:42:16Z</time>
      </trkpt>
      <trkpt lat="39.19585601426661" lon="-9.179806960746646">
        <ele>126.55</ele>
        <time>2025-05-04T13:42:17Z</time>
      </trkpt>
      <trkpt lat="39.195773033425212" lon="-9.179901005700231">
        <ele>126.55</ele>
        <time>2025-05-04T13:42:18Z</time>
      </trkpt>
      <trkpt lat="39.195668008178473" lon="-9.179964037612081">
        <ele>126.55</ele>
        <time>2025-05-04T13:42:19Z</time>
      </trkpt>
      <trkpt lat="39.195560971274972" lon="-9.180030003190041">
        <ele>127.03</ele>
        <time>2025-05-04T13:42:20Z</time>
      </trkpt>
      <trkpt lat="39.195454018190503" lon="-9.18009496293962">
        <ele>127.03</ele>
        <time>2025-05-04T13:42:21Z</time>
      </trkpt>
      <trkpt lat="39.195351004600525" lon="-9.180140979588032">
        <ele>127.03</ele>
        <time>2025-05-04T13:42:22Z</time>
      </trkpt>
      <trkpt lat="39.195243967697024" lon="-9.180168975144625">
        <ele>127.03</ele>
        <time>2025-05-04T13:42:23Z</time>
      </trkpt>
      <trkpt lat="39.194531003013253" lon="-9.180375002324581">
        <ele>128.47</ele>
        <time>2025-05-04T13:42:30Z</time>
      </trkpt>
      <trkpt lat="39.194212993606925" lon="-9.180514980107546">
        <ele>128.47</ele>
        <time>2025-05-04T13:42:33Z</time>
      </trkpt>
      <trkpt lat="39.194112997502089" lon="-9.180584968999028">
        <ele>128.47</ele>
        <time>2025-05-04T13:42:34Z</time>
      </trkpt>
      <trkpt lat="39.194028005003929" lon="-9.180683037266135">
        <ele>128.47</ele>
        <time>2025-05-04T13:42:35Z</time>
      </trkpt>
      <trkpt lat="39.193951981142163" lon="-9.180783033370972">
        <ele>127.98999999999999</ele>
        <time>2025-05-04T13:42:36Z</time>
      </trkpt>
      <trkpt lat="39.193882998079062" lon="-9.180873977020383">
        <ele>127.98999999999999</ele>
        <time>2025-05-04T13:42:37Z</time>
      </trkpt>
      <trkpt lat="39.193823989480734" lon="-9.180951006710529">
        <ele>127.51000000000001</ele>
        <time>2025-05-04T13:42:38Z</time>
      </trkpt>
      <trkpt lat="39.19377202168107" lon="-9.181018983945251">
        <ele>127.51000000000001</ele>
        <time>2025-05-04T13:42:39Z</time>
      </trkpt>
      <trkpt lat="39.193565994501114" lon="-9.181329030543566">
        <ele>126.55</ele>
        <time>2025-05-04T13:42:47Z</time>
      </trkpt>
      <trkpt lat="39.193430040031672" lon="-9.181537991389632">
        <ele>126.06999999999999</ele>
        <time>2025-05-04T13:42:50Z</time>
      </trkpt>
      <trkpt lat="39.193362984806299" lon="-9.18159800581634">
        <ele>126.06999999999999</ele>
        <time>2025-05-04T13:42:51Z</time>
      </trkpt>
      <trkpt lat="39.193291990086436" lon="-9.18166003189981">
        <ele>126.06999999999999</ele>
        <time>2025-05-04T13:42:52Z</time>
      </trkpt>
      <trkpt lat="39.193211020901799" lon="-9.181695990264416">
        <ele>126.06999999999999</ele>
        <time>2025-05-04T13:42:53Z</time>
      </trkpt>
      <trkpt lat="39.19312703423202" lon="-9.181724991649389">
        <ele>126.06999999999999</ele>
        <time>2025-05-04T13:42:54Z</time>
      </trkpt>
      <trkpt lat="39.19312703423202" lon="-9.181724991649389">
        <ele>126.06999999999999</ele>
        <time>2025-05-04T13:42:55Z</time>
      </trkpt>
      <trkpt lat="39.192652031779289" lon="-9.181888019666076">
        <ele>125.59</ele>
        <time>2025-05-04T13:42:59Z</time>
      </trkpt>
      <trkpt lat="39.192551029846072" lon="-9.181935964152217">
        <ele>125.11</ele>
        <time>2025-05-04T13:43:01Z</time>
      </trkpt>
      <trkpt lat="39.192453967407346" lon="-9.18200402520597">
        <ele>125.11</ele>
        <time>2025-05-04T13:43:02Z</time>
      </trkpt>
      <trkpt lat="39.192197984084487" lon="-9.182188007980585">
        <ele>125.11</ele>
        <time>2025-05-04T13:43:05Z</time>
      </trkpt>
      <trkpt lat="39.19203202240169" lon="-9.18228498660028">
        <ele>125.11</ele>
        <time>2025-05-04T13:43:06Z</time>
      </trkpt>
      <trkpt lat="39.19203202240169" lon="-9.182283980771899">
        <ele>125.11</ele>
        <time>2025-05-04T13:43:07Z</time>
      </trkpt>
      <trkpt lat="39.191935965791345" lon="-9.182289009913802">
        <ele>124.63</ele>
        <time>2025-05-04T13:43:08Z</time>
      </trkpt>
      <trkpt lat="39.191831024363637" lon="-9.182280041277409">
        <ele>124.63</ele>
        <time>2025-05-04T13:43:09Z</time>
      </trkpt>
      <trkpt lat="39.191723987460136" lon="-9.182269982993603">
        <ele>124.63</ele>
        <time>2025-05-04T13:43:10Z</time>
      </trkpt>
      <trkpt lat="39.191030971705914" lon="-9.182150959968567">
        <ele>122.70999999999999</ele>
        <time>2025-05-04T13:43:16Z</time>
      </trkpt>
      <trkpt lat="39.19091303832829" lon="-9.182146014645696">
        <ele>121.73999999999999</ele>
        <time>2025-05-04T13:43:17Z</time>
      </trkpt>
      <trkpt lat="39.19078404083848" lon="-9.182166969403625">
        <ele>121.26000000000001</ele>
        <time>2025-05-04T13:43:18Z</time>
      </trkpt>
      <trkpt lat="39.190688990056515" lon="-9.182251961901784">
        <ele>120.3</ele>
        <time>2025-05-04T13:43:19Z</time>
      </trkpt>
      <trkpt lat="39.190593017265201" lon="-9.182338966056705">
        <ele>119.81999999999999</ele>
        <time>2025-05-04T13:43:20Z</time>
      </trkpt>
      <trkpt lat="39.190510958433151" lon="-9.182481039315462">
        <ele>119.34</ele>
        <time>2025-05-04T13:43:21Z</time>
      </trkpt>
      <trkpt lat="39.190434012562037" lon="-9.182613976299763">
        <ele>118.86</ele>
        <time>2025-05-04T13:43:22Z</time>
      </trkpt>
      <trkpt lat="39.190358994528651" lon="-9.182744985446334">
        <ele>118.38</ele>
        <time>2025-05-04T13:43:23Z</time>
      </trkpt>
      <trkpt lat="39.190286993980408" lon="-9.182869037613273">
        <ele>118.38</ele>
        <time>2025-05-04T13:43:24Z</time>
      </trkpt>
      <trkpt lat="39.190210970118642" lon="-9.182968027889729">
        <ele>117.90000000000001</ele>
        <time>2025-05-04T13:43:25Z</time>
      </trkpt>
      <trkpt lat="39.190142992883921" lon="-9.183046985417604">
        <ele>117.90000000000001</ele>
        <time>2025-05-04T13:43:26Z</time>
      </trkpt>
      <trkpt lat="39.190026987344027" lon="-9.183075986802578">
        <ele>117.42</ele>
        <time>2025-05-04T13:43:27Z</time>
      </trkpt>
      <trkpt lat="39.189916010946035" lon="-9.183089984580874">
        <ele>117.42</ele>
        <time>2025-05-04T13:43:28Z</time>
      </trkpt>
      <trkpt lat="39.189793970435858" lon="-9.183087972924113">
        <ele>117.42</ele>
        <time>2025-05-04T13:43:29Z</time>
      </trkpt>
      <trkpt lat="39.189671007916331" lon="-9.183033993467689">
        <ele>117.42</ele>
        <time>2025-05-04T13:43:30Z</time>
      </trkpt>
      <trkpt lat="39.18863601051271" lon="-9.182570977136493">
        <ele>117.42</ele>
        <time>2025-05-04T13:43:38Z</time>
      </trkpt>
      <trkpt lat="39.188511958345771" lon="-9.182538958266377">
        <ele>117.42</ele>
        <time>2025-05-04T13:43:39Z</time>
      </trkpt>
      <trkpt lat="39.188384972512722" lon="-9.1825429815799">
        <ele>117.42</ele>
        <time>2025-05-04T13:43:40Z</time>
      </trkpt>
      <trkpt lat="39.18814399279654" lon="-9.182573994621635">
        <ele>117.90000000000001</ele>
        <time>2025-05-04T13:43:42Z</time>
      </trkpt>
      <trkpt lat="39.188019018620253" lon="-9.182591009885073">
        <ele>117.90000000000001</ele>
        <time>2025-05-04T13:43:43Z</time>
      </trkpt>
      <trkpt lat="39.187897983938456" lon="-9.182570977136493">
        <ele>117.90000000000001</ele>
        <time>2025-05-04T13:43:44Z</time>
      </trkpt>
      <trkpt lat="39.18777703307569" lon="-9.182527977973223">
        <ele>117.42</ele>
        <time>2025-05-04T13:43:45Z</time>
      </trkpt>
      <trkpt lat="39.187664967030287" lon="-9.182441979646683">
        <ele>117.42</ele>
        <time>2025-05-04T13:43:46Z</time>
      </trkpt>
      <trkpt lat="39.187289038673043" lon="-9.18215699493885">
        <ele>116.45999999999999</ele>
        <time>2025-05-04T13:43:49Z</time>
      </trkpt>
      <trkpt lat="39.187151994556189" lon="-9.182053981348872">
        <ele>115.98</ele>
        <time>2025-05-04T13:43:50Z</time>
      </trkpt>
      <trkpt lat="39.187013022601604" lon="-9.181949961930513">
        <ele>115.5</ele>
        <time>2025-05-04T13:43:51Z</time>
      </trkpt>
      <trkpt lat="39.186848988756537" lon="-9.181908974424005">
        <ele>115.01000000000001</ele>
        <time>2025-05-04T13:43:52Z</time>
      </trkpt>
      <trkpt lat="39.186684032902122" lon="-9.181882990524173">
        <ele>114.05</ele>
        <time>2025-05-04T13:43:53Z</time>
      </trkpt>
      <trkpt lat="39.186513964086771" lon="-9.181874021887779">
        <ele>113.56999999999999</ele>
        <time>2025-05-04T13:43:54Z</time>
      </trkpt>
      <trkpt lat="39.186340039595962" lon="-9.181894976645708">
        <ele>113.09</ele>
        <time>2025-05-04T13:43:55Z</time>
      </trkpt>
      <trkpt lat="39.184935986995697" lon="-9.182191025465727">
        <ele>107.81</ele>
        <time>2025-05-04T13:44:02Z</time>
      </trkpt>
      <trkpt lat="39.183122981339693" lon="-9.182600984349847">
        <ele>103</ele>
        <time>2025-05-04T13:44:10Z</time>
      </trkpt>
      <trkpt lat="39.182929024100304" lon="-9.182684971019626">
        <ele>102.52</ele>
        <time>2025-05-04T13:44:11Z</time>
      </trkpt>
      <trkpt lat="39.182755015790462" lon="-9.182762000709772">
        <ele>102.04000000000001</ele>
        <time>2025-05-04T13:44:12Z</time>
      </trkpt>
      <trkpt lat="39.182626018300653" lon="-9.182900972664356">
        <ele>101.56</ele>
        <time>2025-05-04T13:44:13Z</time>
      </trkpt>
      <trkpt lat="39.182506995275617" lon="-9.183040028437972">
        <ele>100.59999999999999</ele>
        <time>2025-05-04T13:44:14Z</time>
      </trkpt>
      <trkpt lat="39.182439018040895" lon="-9.183213030919433">
        <ele>99.629999999999995</ele>
        <time>2025-05-04T13:44:15Z</time>
      </trkpt>
      <trkpt lat="39.182348996400833" lon="-9.183589965105057">
        <ele>97.709999999999994</ele>
        <time>2025-05-04T13:44:17Z</time>
      </trkpt>
      <trkpt lat="39.182315971702337" lon="-9.184212991967797">
        <ele>96.269999999999996</ele>
        <time>2025-05-04T13:44:20Z</time>
      </trkpt>
      <trkpt lat="39.182295016944408" lon="-9.184397980570793">
        <ele>96.269999999999996</ele>
        <time>2025-05-04T13:44:21Z</time>
      </trkpt>
      <trkpt lat="39.18225503526628" lon="-9.184568971395493">
        <ele>96.269999999999996</ele>
        <time>2025-05-04T13:44:22Z</time>
      </trkpt>
      <trkpt lat="39.182172976434231" lon="-9.184701992198825">
        <ele>96.269999999999996</ele>
        <time>2025-05-04T13:44:23Z</time>
      </trkpt>
      <trkpt lat="39.18208597227931" lon="-9.184835013002157">
        <ele>96.269999999999996</ele>
        <time>2025-05-04T13:44:24Z</time>
      </trkpt>
      <trkpt lat="39.181970972567797" lon="-9.184917993843556">
        <ele>96.75</ele>
        <time>2025-05-04T13:44:25Z</time>
      </trkpt>
      <trkpt lat="39.181859996169806" lon="-9.184998041018844">
        <ele>96.269999999999996</ele>
        <time>2025-05-04T13:44:26Z</time>
      </trkpt>
      <trkpt lat="39.181752959266305" lon="-9.185074986889958">
        <ele>96.269999999999996</ele>
        <time>2025-05-04T13:44:27Z</time>
      </trkpt>
      <trkpt lat="39.181651035323739" lon="-9.185131983831525">
        <ele>96.269999999999996</ele>
        <time>2025-05-04T13:44:28Z</time>
      </trkpt>
      <trkpt lat="39.181548021733761" lon="-9.185185041278601">
        <ele>96.269999999999996</ele>
        <time>2025-05-04T13:44:29Z</time>
      </trkpt>
      <trkpt lat="39.181474009528756" lon="-9.185275984928012">
        <ele>96.269999999999996</ele>
        <time>2025-05-04T13:44:30Z</time>
      </trkpt>
      <trkpt lat="39.18139697983861" lon="-9.185370029881597">
        <ele>95.790000000000006</ele>
        <time>2025-05-04T13:44:31Z</time>
      </trkpt>
      <trkpt lat="39.181317016482353" lon="-9.185468014329672">
        <ele>95.790000000000006</ele>
        <time>2025-05-04T13:44:32Z</time>
      </trkpt>
      <trkpt lat="39.180544037371874" lon="-9.186778021976352">
        <ele>91.459999999999994</ele>
        <time>2025-05-04T13:44:43Z</time>
      </trkpt>
      <trkpt lat="39.179842974990606" lon="-9.187981998547912">
        <ele>87.140000000000001</ele>
        <time>2025-05-04T13:44:53Z</time>
      </trkpt>
      <trkpt lat="39.179595960304141" lon="-9.188573006540537">
        <ele>85.209999999999994</ele>
        <time>2025-05-04T13:44:57Z</time>
      </trkpt>
      <trkpt lat="39.179534018039703" lon="-9.188760006800294">
        <ele>85.209999999999994</ele>
        <time>2025-05-04T13:44:58Z</time>
      </trkpt>
      <trkpt lat="39.179503004997969" lon="-9.18896796181798">
        <ele>84.730000000000004</ele>
        <time>2025-05-04T13:44:59Z</time>
      </trkpt>
      <trkpt lat="39.179480038583279" lon="-9.189187986776233">
        <ele>84.730000000000004</ele>
        <time>2025-05-04T13:45:00Z</time>
      </trkpt>
      <trkpt lat="39.179471991956234" lon="-9.189415974542499">
        <ele>84.730000000000004</ele>
        <time>2025-05-04T13:45:01Z</time>
      </trkpt>
      <trkpt lat="39.179327990859747" lon="-9.191963989287615">
        <ele>84.730000000000004</ele>
        <time>2025-05-04T13:45:11Z</time>
      </trkpt>
      <trkpt lat="39.1792699880898" lon="-9.192221984267235">
        <ele>84.25</ele>
        <time>2025-05-04T13:45:12Z</time>
      </trkpt>
      <trkpt lat="39.17920796200633" lon="-9.192472016438842">
        <ele>84.25</ele>
        <time>2025-05-04T13:45:13Z</time>
      </trkpt>
      <trkpt lat="39.179106038063765" lon="-9.192692041397095">
        <ele>83.769999999999996</ele>
        <time>2025-05-04T13:45:14Z</time>
      </trkpt>
      <trkpt lat="39.179004030302167" lon="-9.192909970879555">
        <ele>83.769999999999996</ele>
        <time>2025-05-04T13:45:15Z</time>
      </trkpt>
      <trkpt lat="39.178887018933892" lon="-9.193124966695905">
        <ele>83.290000000000006</ele>
        <time>2025-05-04T13:45:16Z</time>
      </trkpt>
      <trkpt lat="39.177712965756655" lon="-9.194589033722878">
        <ele>83.290000000000006</ele>
        <time>2025-05-04T13:45:24Z</time>
      </trkpt>
      <trkpt lat="39.177601989358664" lon="-9.194806041195989">
        <ele>83.290000000000006</ele>
        <time>2025-05-04T13:45:25Z</time>
      </trkpt>
      <trkpt lat="39.177505010738969" lon="-9.195032017305493">
        <ele>83.290000000000006</ele>
        <time>2025-05-04T13:45:26Z</time>
      </trkpt>
      <trkpt lat="39.177434016019106" lon="-9.195275008678436">
        <ele>83.290000000000006</ele>
        <time>2025-05-04T13:45:27Z</time>
      </trkpt>
      <trkpt lat="39.177371989935637" lon="-9.195523029193282">
        <ele>83.290000000000006</ele>
        <time>2025-05-04T13:45:28Z</time>
      </trkpt>
      <trkpt lat="39.177046017721295" lon="-9.196810992434621">
        <ele>82.810000000000002</ele>
        <time>2025-05-04T13:45:33Z</time>
      </trkpt>
      <trkpt lat="39.176963958889246" lon="-9.197051972150803">
        <ele>82.810000000000002</ele>
        <time>2025-05-04T13:45:34Z</time>
      </trkpt>
      <trkpt lat="39.176877038553357" lon="-9.197291024029255">
        <ele>82.329999999999998</ele>
        <time>2025-05-04T13:45:35Z</time>
      </trkpt>
      <trkpt lat="39.176739994436502" lon="-9.197486992925406">
        <ele>82.329999999999998</ele>
        <time>2025-05-04T13:45:36Z</time>
      </trkpt>
      <trkpt lat="39.176592975854874" lon="-9.197667958214879">
        <ele>81.849999999999994</ele>
        <time>2025-05-04T13:45:37Z</time>
      </trkpt>
      <trkpt lat="39.176448974758387" lon="-9.197845989838243">
        <ele>81.370000000000005</ele>
        <time>2025-05-04T13:45:38Z</time>
      </trkpt>
      <trkpt lat="39.176284018903971" lon="-9.197986973449588">
        <ele>80.890000000000001</ele>
        <time>2025-05-04T13:45:39Z</time>
      </trkpt>
      <trkpt lat="39.17611101642251" lon="-9.198113037273288">
        <ele>80.409999999999997</ele>
        <time>2025-05-04T13:45:40Z</time>
      </trkpt>
      <trkpt lat="39.17525103315711" lon="-9.198754001408815">
        <ele>76.560000000000002</ele>
        <time>2025-05-04T13:45:45Z</time>
      </trkpt>
      <trkpt lat="39.17507903650403" lon="-9.19897997751832">
        <ele>75.599999999999994</ele>
        <time>2025-05-04T13:45:46Z</time>
      </trkpt>
      <trkpt lat="39.174937969073653" lon="-9.199165971949697">
        <ele>74.640000000000001</ele>
        <time>2025-05-04T13:45:47Z</time>
      </trkpt>
      <trkpt lat="39.174817018210888" lon="-9.19936696998775">
        <ele>73.200000000000003</ele>
        <time>2025-05-04T13:45:48Z</time>
      </trkpt>
      <trkpt lat="39.17473403736949" lon="-9.199606021866202">
        <ele>72.239999999999995</ele>
        <time>2025-05-04T13:45:49Z</time>
      </trkpt>
      <trkpt lat="39.174649966880679" lon="-9.199848007410765">
        <ele>70.790000000000006</ele>
        <time>2025-05-04T13:45:50Z</time>
      </trkpt>
      <trkpt lat="39.174074968323112" lon="-9.202236011624336">
        <ele>64.549999999999997</ele>
        <time>2025-05-04T13:45:59Z</time>
      </trkpt>
      <trkpt lat="39.173976983875036" lon="-9.202461987733841">
        <ele>64.069999999999993</ele>
        <time>2025-05-04T13:46:00Z</time>
      </trkpt>
      <trkpt lat="39.173871958628297" lon="-9.202668014913797">
        <ele>63.579999999999998</ele>
        <time>2025-05-04T13:46:01Z</time>
      </trkpt>
      <trkpt lat="39.173745978623629" lon="-9.202857026830316">
        <ele>62.619999999999997</ele>
        <time>2025-05-04T13:46:02Z</time>
      </trkpt>
      <trkpt lat="39.173598038032651" lon="-9.203015025705099">
        <ele>62.140000000000001</ele>
        <time>2025-05-04T13:46:03Z</time>
      </trkpt>
      <trkpt lat="39.173431992530823" lon="-9.203149974346161">
        <ele>61.18</ele>
        <time>2025-05-04T13:46:04Z</time>
      </trkpt>
      <trkpt lat="39.173240968957543" lon="-9.203246030956507">
        <ele>60.700000000000003</ele>
        <time>2025-05-04T13:46:05Z</time>
      </trkpt>
      <trkpt lat="39.171360991895199" lon="-9.204127974808216">
        <ele>53.490000000000002</ele>
        <time>2025-05-04T13:46:14Z</time>
      </trkpt>
      <trkpt lat="39.17114800773561" lon="-9.204219002276659">
        <ele>52.530000000000001</ele>
        <time>2025-05-04T13:46:15Z</time>
      </trkpt>
      <trkpt lat="39.170923037454486" lon="-9.20424398034811">
        <ele>52.049999999999997</ele>
        <time>2025-05-04T13:46:16Z</time>
      </trkpt>
      <trkpt lat="39.169114977121353" lon="-9.204409020021558">
        <ele>45.799999999999997</ele>
        <time>2025-05-04T13:46:25Z</time>
      </trkpt>
      <trkpt lat="39.167834976688027" lon="-9.205011008307338">
        <ele>42.439999999999998</ele>
        <time>2025-05-04T13:46:32Z</time>
      </trkpt>
      <trkpt lat="39.167127963155508" lon="-9.205437982454896">
        <ele>41.950000000000003</ele>
        <time>2025-05-04T13:46:36Z</time>
      </trkpt>
      <trkpt lat="39.166983962059021" lon="-9.205568991601467">
        <ele>41.950000000000003</ele>
        <time>2025-05-04T13:46:37Z</time>
      </trkpt>
      <trkpt lat="39.166863011196256" lon="-9.205715004354715">
        <ele>41.950000000000003</ele>
        <time>2025-05-04T13:46:38Z</time>
      </trkpt>
      <trkpt lat="39.166766032576561" lon="-9.205887001007795">
        <ele>41.469999999999999</ele>
        <time>2025-05-04T13:46:39Z</time>
      </trkpt>
      <trkpt lat="39.166687997058034" lon="-9.206065032631159">
        <ele>41.469999999999999</ele>
        <time>2025-05-04T13:46:40Z</time>
      </trkpt>
      <trkpt lat="39.166263034567237" lon="-9.207577966153622">
        <ele>41.469999999999999</ele>
        <time>2025-05-04T13:46:47Z</time>
      </trkpt>
      <trkpt lat="39.165952987968922" lon="-9.2086670268327">
        <ele>40.990000000000002</ele>
        <time>2025-05-04T13:46:52Z</time>
      </trkpt>
      <trkpt lat="39.165888028219342" lon="-9.208860984072089">
        <ele>40.990000000000002</ele>
        <time>2025-05-04T13:46:53Z</time>
      </trkpt>
      <trkpt lat="39.165807981044054" lon="-9.209037004038692">
        <ele>40.990000000000002</ele>
        <time>2025-05-04T13:46:54Z</time>
      </trkpt>
      <trkpt lat="39.165703961625695" lon="-9.209199026226997">
        <ele>41.469999999999999</ele>
        <time>2025-05-04T13:46:55Z</time>
      </trkpt>
      <trkpt lat="39.165577981621027" lon="-9.209344033151865">
        <ele>41.469999999999999</ele>
        <time>2025-05-04T13:46:56Z</time>
      </trkpt>
      <trkpt lat="39.16543398052454" lon="-9.209476970136166">
        <ele>40.990000000000002</ele>
        <time>2025-05-04T13:46:57Z</time>
      </trkpt>
      <trkpt lat="39.165274975821376" lon="-9.209596998989582">
        <ele>40.990000000000002</ele>
        <time>2025-05-04T13:46:58Z</time>
      </trkpt>
      <trkpt lat="39.16259603574872" lon="-9.211212024092674">
        <ele>41.950000000000003</ele>
        <time>2025-05-04T13:47:12Z</time>
      </trkpt>
      <trkpt lat="39.161704033613205" lon="-9.211831027641892">
        <ele>42.920000000000002</ele>
        <time>2025-05-04T13:47:17Z</time>
      </trkpt>
      <trkpt lat="39.161551985889673" lon="-9.21201903373003">
        <ele>42.920000000000002</ele>
        <time>2025-05-04T13:47:18Z</time>
      </trkpt>
      <trkpt lat="39.161330033093691" lon="-9.212482972070575">
        <ele>43.399999999999999</ele>
        <time>2025-05-04T13:47:20Z</time>
      </trkpt>
      <trkpt lat="39.161330033093691" lon="-9.212482972070575">
        <ele>43.880000000000003</ele>
        <time>2025-05-04T13:47:21Z</time>
      </trkpt>
      <trkpt lat="39.161255015060306" lon="-9.212734010070562">
        <ele>44.840000000000003</ele>
        <time>2025-05-04T13:47:22Z</time>
      </trkpt>
      <trkpt lat="39.161130962893367" lon="-9.213269026950002">
        <ele>47.240000000000002</ele>
        <time>2025-05-04T13:47:24Z</time>
      </trkpt>
      <trkpt lat="39.16107103228569" lon="-9.213528027758002">
        <ele>48.68</ele>
        <time>2025-05-04T13:47:25Z</time>
      </trkpt>
      <trkpt lat="39.160997020080686" lon="-9.213783005252481">
        <ele>50.130000000000003</ele>
        <time>2025-05-04T13:47:26Z</time>
      </trkpt>
      <trkpt lat="39.160882020369172" lon="-9.214003030210733">
        <ele>51.090000000000003</ele>
        <time>2025-05-04T13:47:27Z</time>
      </trkpt>
      <trkpt lat="39.160758974030614" lon="-9.214209979400039">
        <ele>52.049999999999997</ele>
        <time>2025-05-04T13:47:28Z</time>
      </trkpt>
      <trkpt lat="39.160595024004579" lon="-9.214365966618061">
        <ele>53.009999999999998</ele>
        <time>2025-05-04T13:47:29Z</time>
      </trkpt>
      <trkpt lat="39.16042897850275" lon="-9.214523965492845">
        <ele>53.969999999999999</ele>
        <time>2025-05-04T13:47:30Z</time>
      </trkpt>
      <trkpt lat="39.160250024870038" lon="-9.214649023488164">
        <ele>54.450000000000003</ele>
        <time>2025-05-04T13:47:31Z</time>
      </trkpt>
      <trkpt lat="39.160048021003604" lon="-9.214757988229394">
        <ele>54.450000000000003</ele>
        <time>2025-05-04T13:47:32Z</time>
      </trkpt>
      <trkpt lat="39.159436980262399" lon="-9.215118996798992">
        <ele>56.369999999999997</ele>
        <time>2025-05-04T13:47:35Z</time>
      </trkpt>
      <trkpt lat="39.159259032458067" lon="-9.215284958481789">
        <ele>56.859999999999999</ele>
        <time>2025-05-04T13:47:36Z</time>
      </trkpt>
      <trkpt lat="39.159103967249393" lon="-9.215476987883449">
        <ele>57.340000000000003</ele>
        <time>2025-05-04T13:47:37Z</time>
      </trkpt>
      <trkpt lat="39.158958960324526" lon="-9.21567496843636">
        <ele>58.299999999999997</ele>
        <time>2025-05-04T13:47:38Z</time>
      </trkpt>
      <trkpt lat="39.158856030553579" lon="-9.215912008658052">
        <ele>59.740000000000002</ele>
        <time>2025-05-04T13:47:39Z</time>
      </trkpt>
      <trkpt lat="39.158474989235401" lon="-9.216871988028288">
        <ele>64.069999999999993</ele>
        <time>2025-05-04T13:47:43Z</time>
      </trkpt>
      <trkpt lat="39.158351020887494" lon="-9.217079021036625">
        <ele>65.030000000000001</ele>
        <time>2025-05-04T13:47:44Z</time>
      </trkpt>
      <trkpt lat="39.158208025619388" lon="-9.217269960790873">
        <ele>65.510000000000005</ele>
        <time>2025-05-04T13:47:45Z</time>
      </trkpt>
      <trkpt lat="39.158052960410714" lon="-9.217448998242617">
        <ele>66.469999999999999</ele>
        <time>2025-05-04T13:47:46Z</time>
      </trkpt>
      <trkpt lat="39.157869983464479" lon="-9.217576989904046">
        <ele>66.950000000000003</ele>
        <time>2025-05-04T13:47:47Z</time>
      </trkpt>
      <trkpt lat="39.1576789598912" lon="-9.21769299544394">
        <ele>66.950000000000003</ele>
        <time>2025-05-04T13:47:48Z</time>
      </trkpt>
      <trkpt lat="39.155938038602471" lon="-9.218856990337372">
        <ele>64.069999999999993</ele>
        <time>2025-05-04T13:47:57Z</time>
      </trkpt>
      <trkpt lat="39.155131028965116" lon="-9.21962502412498">
        <ele>62.140000000000001</ele>
        <time>2025-05-04T13:48:03Z</time>
      </trkpt>
      <trkpt lat="39.154145987704396" lon="-9.220587015151978">
        <ele>60.219999999999999</ele>
        <time>2025-05-04T13:48:12Z</time>
      </trkpt>
      <trkpt lat="39.153546011075377" lon="-9.22121599316597">
        <ele>57.340000000000003</ele>
        <time>2025-05-04T13:48:19Z</time>
      </trkpt>
      <trkpt lat="39.152726009488106" lon="-9.222329026088119">
        <ele>55.409999999999997</ele>
        <time>2025-05-04T13:48:28Z</time>
      </trkpt>
      <trkpt lat="39.151735017076135" lon="-9.22364397905767">
        <ele>56.369999999999997</ele>
        <time>2025-05-04T13:48:39Z</time>
      </trkpt>
      <trkpt lat="39.15065199136734" lon="-9.225049037486315">
        <ele>56.369999999999997</ele>
        <time>2025-05-04T13:48:51Z</time>
      </trkpt>
      <trkpt lat="39.149798965081573" lon="-9.226431967690587">
        <ele>54.93</ele>
        <time>2025-05-04T13:49:02Z</time>
      </trkpt>
      <trkpt lat="39.149370985105634" lon="-9.227237971499562">
        <ele>52.530000000000001</ele>
        <time>2025-05-04T13:49:08Z</time>
      </trkpt>
      <trkpt lat="39.148445958271623" lon="-9.228334994986653">
        <ele>49.649999999999999</ele>
        <time>2025-05-04T13:49:18Z</time>
      </trkpt>
      <trkpt lat="39.147459995001554" lon="-9.229700993746519">
        <ele>47.719999999999999</ele>
        <time>2025-05-04T13:49:29Z</time>
      </trkpt>
      <trkpt lat="39.146587019786239" lon="-9.230692991986871">
        <ele>45.32</ele>
        <time>2025-05-04T13:49:38Z</time>
      </trkpt>
      <trkpt lat="39.145820997655392" lon="-9.23146203160286">
        <ele>46.280000000000001</ele>
        <time>2025-05-04T13:49:47Z</time>
      </trkpt>
      <trkpt lat="39.145664004608989" lon="-9.231611983850598">
        <ele>46.280000000000001</ele>
        <time>2025-05-04T13:49:49Z</time>
      </trkpt>
      <trkpt lat="39.145574988797307" lon="-9.231691025197506">
        <ele>46.280000000000001</ele>
        <time>2025-05-04T13:49:50Z</time>
      </trkpt>
      <trkpt lat="39.145483961328864" lon="-9.231746010482311">
        <ele>46.280000000000001</ele>
        <time>2025-05-04T13:49:51Z</time>
      </trkpt>
      <trkpt lat="39.144951961934566" lon="-9.232019009068608">
        <ele>44.840000000000003</ele>
        <time>2025-05-04T13:49:56Z</time>
      </trkpt>
      <trkpt lat="39.144850037992001" lon="-9.232067037373781">
        <ele>44.840000000000003</ele>
        <time>2025-05-04T13:49:57Z</time>
      </trkpt>
      <trkpt lat="39.14371102117002" lon="-9.232569029554725">
        <ele>44.359999999999999</ele>
        <time>2025-05-04T13:50:08Z</time>
      </trkpt>
      <trkpt lat="39.142649034038186" lon="-9.232941018417478">
        <ele>41.469999999999999</ele>
        <time>2025-05-04T13:50:17Z</time>
      </trkpt>
      <trkpt lat="39.141943026334047" lon="-9.233438987284899">
        <ele>39.549999999999997</ele>
        <time>2025-05-04T13:50:24Z</time>
      </trkpt>
      <trkpt lat="39.141843030229211" lon="-9.233501013368368">
        <ele>39.549999999999997</ele>
        <time>2025-05-04T13:50:25Z</time>
      </trkpt>
      <trkpt lat="39.141730964183807" lon="-9.233544012531638">
        <ele>39.549999999999997</ele>
        <time>2025-05-04T13:50:26Z</time>
      </trkpt>
      <trkpt lat="39.140782970935106" lon="-9.233819022774696">
        <ele>40.509999999999998</ele>
        <time>2025-05-04T13:50:34Z</time>
      </trkpt>
      <trkpt lat="39.13969399407506" lon="-9.233852969482541">
        <ele>42.920000000000002</ele>
        <time>2025-05-04T13:50:44Z</time>
      </trkpt>
      <trkpt lat="39.138566963374615" lon="-9.233779041096568">
        <ele>47.719999999999999</ele>
        <time>2025-05-04T13:50:54Z</time>
      </trkpt>
      <trkpt lat="39.137271959334612" lon="-9.233667980879545">
        <ele>53.009999999999998</ele>
        <time>2025-05-04T13:51:05Z</time>
      </trkpt>
      <trkpt lat="39.136803997680545" lon="-9.233518028631806">
        <ele>55.409999999999997</ele>
        <time>2025-05-04T13:51:09Z</time>
      </trkpt>
      <trkpt lat="39.136680029332638" lon="-9.233479974791408">
        <ele>55.890000000000001</ele>
        <time>2025-05-04T13:51:10Z</time>
      </trkpt>
      <trkpt lat="39.13655798882246" lon="-9.233457008376718">
        <ele>56.369999999999997</ele>
        <time>2025-05-04T13:51:11Z</time>
      </trkpt>
      <trkpt lat="39.136435026302934" lon="-9.233433958142996">
        <ele>56.859999999999999</ele>
        <time>2025-05-04T13:51:12Z</time>
      </trkpt>
      <trkpt lat="39.136308962479234" lon="-9.233437981456518">
        <ele>57.82</ele>
        <time>2025-05-04T13:51:13Z</time>
      </trkpt>
      <trkpt lat="39.136189017444849" lon="-9.233448039740324">
        <ele>58.299999999999997</ele>
        <time>2025-05-04T13:51:14Z</time>
      </trkpt>
      <trkpt lat="39.135324005037546" lon="-9.233563039451838">
        <ele>62.140000000000001</ele>
        <time>2025-05-04T13:51:22Z</time>
      </trkpt>
      <trkpt lat="39.1350759845227" lon="-9.233711985871196">
        <ele>63.579999999999998</ele>
        <time>2025-05-04T13:51:25Z</time>
      </trkpt>
      <trkpt lat="39.134998032823205" lon="-9.233761020004749">
        <ele>64.069999999999993</ele>
        <time>2025-05-04T13:51:26Z</time>
      </trkpt>
      <trkpt lat="39.13490398786962" lon="-9.233811981976032">
        <ele>64.069999999999993</ele>
        <time>2025-05-04T13:51:27Z</time>
      </trkpt>
      <trkpt lat="39.134502997621894" lon="-9.233515011146665">
        <ele>65.030000000000001</ele>
        <time>2025-05-04T13:51:30Z</time>
      </trkpt>
      <trkpt lat="39.134411970153451" lon="-9.233491960912943">
        <ele>65.510000000000005</ele>
        <time>2025-05-04T13:51:31Z</time>
      </trkpt>
      <trkpt lat="39.133459031581879" lon="-9.233044032007456">
        <ele>68.870000000000005</ele>
        <time>2025-05-04T13:51:40Z</time>
      </trkpt>
      <trkpt lat="39.132917979732156" lon="-9.232747983187437">
        <ele>71.269999999999996</ele>
        <time>2025-05-04T13:51:45Z</time>
      </trkpt>
      <trkpt lat="39.132798034697771" lon="-9.232705989852548">
        <ele>71.760000000000005</ele>
        <time>2025-05-04T13:51:46Z</time>
      </trkpt>
      <trkpt lat="39.132684040814638" lon="-9.2326670140028">
        <ele>72.239999999999995</ele>
        <time>2025-05-04T13:51:47Z</time>
      </trkpt>
      <trkpt lat="39.132575998082757" lon="-9.232677994295955">
        <ele>72.719999999999999</ele>
        <time>2025-05-04T13:51:48Z</time>
      </trkpt>
      <trkpt lat="39.132468039169908" lon="-9.232706995680928">
        <ele>72.719999999999999</ele>
        <time>2025-05-04T13:51:49Z</time>
      </trkpt>
      <trkpt lat="39.132356978952885" lon="-9.232735997065902">
        <ele>73.200000000000003</ele>
        <time>2025-05-04T13:51:50Z</time>
      </trkpt>
      <trkpt lat="39.13223996758461" lon="-9.232773967087269">
        <ele>73.200000000000003</ele>
        <time>2025-05-04T13:51:51Z</time>
      </trkpt>
      <trkpt lat="39.132142988964915" lon="-9.232862982898951">
        <ele>73.680000000000007</ele>
        <time>2025-05-04T13:51:52Z</time>
      </trkpt>
      <trkpt lat="39.132047016173601" lon="-9.232953004539013">
        <ele>74.159999999999997</ele>
        <time>2025-05-04T13:51:53Z</time>
      </trkpt>
      <trkpt lat="39.131700005382299" lon="-9.233347959816456">
        <ele>76.079999999999998</ele>
        <time>2025-05-04T13:51:57Z</time>
      </trkpt>
      <trkpt lat="39.131617024540901" lon="-9.233449967578054">
        <ele>76.560000000000002</ele>
        <time>2025-05-04T13:51:58Z</time>
      </trkpt>
      <trkpt lat="39.131548041477799" lon="-9.233582988381386">
        <ele>77.040000000000006</ele>
        <time>2025-05-04T13:51:59Z</time>
      </trkpt>
      <trkpt lat="39.131484003737569" lon="-9.233863027766347">
        <ele>78</ele>
        <time>2025-05-04T13:52:01Z</time>
      </trkpt>
      <trkpt lat="39.131260961294174" lon="-9.234699038788676">
        <ele>81.370000000000005</ele>
        <time>2025-05-04T13:52:08Z</time>
      </trkpt>
      <trkpt lat="39.13120798766613" lon="-9.234805991873145">
        <ele>81.370000000000005</ele>
        <time>2025-05-04T13:52:09Z</time>
      </trkpt>
      <trkpt lat="39.131155014038086" lon="-9.234911017119885">
        <ele>81.370000000000005</ele>
        <time>2025-05-04T13:52:10Z</time>
      </trkpt>
      <trkpt lat="39.131093993782997" lon="-9.234981006011367">
        <ele>81.370000000000005</ele>
        <time>2025-05-04T13:52:11Z</time>
      </trkpt>
      <trkpt lat="39.131004977971315" lon="-9.235042026266456">
        <ele>80.890000000000001</ele>
        <time>2025-05-04T13:52:12Z</time>
      </trkpt>
      <trkpt lat="39.130917973816395" lon="-9.235102962702513">
        <ele>80.890000000000001</ele>
        <time>2025-05-04T13:52:13Z</time>
      </trkpt>
      <trkpt lat="39.130837004631758" lon="-9.235141016542912">
        <ele>80.409999999999997</ele>
        <time>2025-05-04T13:52:14Z</time>
      </trkpt>
      <trkpt lat="39.130738014355302" lon="-9.235110003501177">
        <ele>79.930000000000007</ele>
        <time>2025-05-04T13:52:15Z</time>
      </trkpt>
      <trkpt lat="39.130633994936943" lon="-9.235077984631062">
        <ele>79.450000000000003</ele>
        <time>2025-05-04T13:52:16Z</time>
      </trkpt>
      <trkpt lat="39.130537016317248" lon="-9.235030962154269">
        <ele>78.969999999999999</ele>
        <time>2025-05-04T13:52:17Z</time>
      </trkpt>
      <trkpt lat="39.130269968882203" lon="-9.234830969944596">
        <ele>76.560000000000002</ele>
        <time>2025-05-04T13:52:20Z</time>
      </trkpt>
      <trkpt lat="39.130178019404411" lon="-9.234784031286836">
        <ele>76.079999999999998</ele>
        <time>2025-05-04T13:52:21Z</time>
      </trkpt>
      <trkpt lat="39.130076011642814" lon="-9.23475100658834">
        <ele>75.120000000000005</ele>
        <time>2025-05-04T13:52:22Z</time>
      </trkpt>
      <trkpt lat="39.129967968910933" lon="-9.234745977446437">
        <ele>74.640000000000001</ele>
        <time>2025-05-04T13:52:23Z</time>
      </trkpt>
      <trkpt lat="39.129736963659525" lon="-9.234824012964964">
        <ele>73.680000000000007</ele>
        <time>2025-05-04T13:52:25Z</time>
      </trkpt>
      <trkpt lat="39.129630010575056" lon="-9.234885033220053">
        <ele>73.200000000000003</ele>
        <time>2025-05-04T13:52:26Z</time>
      </trkpt>
      <trkpt lat="39.129529008641839" lon="-9.23494404181838">
        <ele>72.719999999999999</ele>
        <time>2025-05-04T13:52:27Z</time>
      </trkpt>
      <trkpt lat="39.129427000880241" lon="-9.234999027103186">
        <ele>72.239999999999995</ele>
        <time>2025-05-04T13:52:28Z</time>
      </trkpt>
      <trkpt lat="39.129308983683586" lon="-9.235028028488159">
        <ele>71.760000000000005</ele>
        <time>2025-05-04T13:52:29Z</time>
      </trkpt>
      <trkpt lat="39.129185015335679" lon="-9.235030962154269">
        <ele>71.760000000000005</ele>
        <time>2025-05-04T13:52:30Z</time>
      </trkpt>
      <trkpt lat="39.129054006189108" lon="-9.235017970204353">
        <ele>71.760000000000005</ele>
        <time>2025-05-04T13:52:31Z</time>
      </trkpt>
      <trkpt lat="39.128932971507311" lon="-9.234977988526225">
        <ele>71.269999999999996</ele>
        <time>2025-05-04T13:52:32Z</time>
      </trkpt>
      <trkpt lat="39.128812020644546" lon="-9.234938006848097">
        <ele>70.790000000000006</ele>
        <time>2025-05-04T13:52:33Z</time>
      </trkpt>
      <trkpt lat="39.12869299761951" lon="-9.234898025169969">
        <ele>70.790000000000006</ele>
        <time>2025-05-04T13:52:34Z</time>
      </trkpt>
      <trkpt lat="39.127589017152786" lon="-9.234750000759959">
        <ele>66.469999999999999</ele>
        <time>2025-05-04T13:52:43Z</time>
      </trkpt>
      <trkpt lat="39.126654015854001" lon="-9.234939012676477">
        <ele>64.549999999999997</ele>
        <time>2025-05-04T13:52:50Z</time>
      </trkpt>
      <trkpt lat="39.125712979584932" lon="-9.235528009012342">
        <ele>65.510000000000005</ele>
        <time>2025-05-04T13:52:58Z</time>
      </trkpt>
      <trkpt lat="39.125597979873419" lon="-9.235629010945559">
        <ele>65.510000000000005</ele>
        <time>2025-05-04T13:52:59Z</time>
      </trkpt>
      <trkpt lat="39.125105962157249" lon="-9.236258994787931">
        <ele>65.030000000000001</ele>
        <time>2025-05-04T13:53:04Z</time>
      </trkpt>
      <trkpt lat="39.124991968274117" lon="-9.236367959529162">
        <ele>65.030000000000001</ele>
        <time>2025-05-04T13:53:05Z</time>
      </trkpt>
      <trkpt lat="39.124871017411351" lon="-9.236481031402946">
        <ele>64.549999999999997</ele>
        <time>2025-05-04T13:53:06Z</time>
      </trkpt>
      <trkpt lat="39.12474000826478" lon="-9.236604999750853">
        <ele>64.549999999999997</ele>
        <time>2025-05-04T13:53:07Z</time>
      </trkpt>
      <trkpt lat="39.124593995511532" lon="-9.2366630025208">
        <ele>64.069999999999993</ele>
        <time>2025-05-04T13:53:08Z</time>
      </trkpt>
      <trkpt lat="39.123405022546649" lon="-9.237184021621943">
        <ele>62.140000000000001</ele>
        <time>2025-05-04T13:53:15Z</time>
      </trkpt>
      <trkpt lat="39.123216010630131" lon="-9.237291980534792">
        <ele>61.659999999999997</ele>
        <time>2025-05-04T13:53:16Z</time>
      </trkpt>
      <trkpt lat="39.12306203506887" lon="-9.237412009388208">
        <ele>61.18</ele>
        <time>2025-05-04T13:53:17Z</time>
      </trkpt>
      <trkpt lat="39.122918033972383" lon="-9.237578976899386">
        <ele>61.18</ele>
        <time>2025-05-04T13:53:18Z</time>
      </trkpt>
      <trkpt lat="39.122790964320302" lon="-9.237760026007891">
        <ele>60.700000000000003</ele>
        <time>2025-05-04T13:53:19Z</time>
      </trkpt>
      <trkpt lat="39.122694991528988" lon="-9.237969992682338">
        <ele>60.219999999999999</ele>
        <time>2025-05-04T13:53:20Z</time>
      </trkpt>
      <trkpt lat="39.122599018737674" lon="-9.238182976841927">
        <ele>59.740000000000002</ele>
        <time>2025-05-04T13:53:21Z</time>
      </trkpt>
      <trkpt lat="39.122501034289598" lon="-9.238396966829896">
        <ele>59.259999999999998</ele>
        <time>2025-05-04T13:53:22Z</time>
      </trkpt>
      <trkpt lat="39.122444959357381" lon="-9.238642975687981">
        <ele>58.780000000000001</ele>
        <time>2025-05-04T13:53:23Z</time>
      </trkpt>
      <trkpt lat="39.122192999348044" lon="-9.239842006936669">
        <ele>57.82</ele>
        <time>2025-05-04T13:53:28Z</time>
      </trkpt>
      <trkpt lat="39.122111024335027" lon="-9.240060020238161">
        <ele>57.340000000000003</ele>
        <time>2025-05-04T13:53:29Z</time>
      </trkpt>
      <trkpt lat="39.122001975774765" lon="-9.240248026326299">
        <ele>56.859999999999999</ele>
        <time>2025-05-04T13:53:30Z</time>
      </trkpt>
      <trkpt lat="39.121869960799813" lon="-9.240423962473869">
        <ele>56.369999999999997</ele>
        <time>2025-05-04T13:53:31Z</time>
      </trkpt>
      <trkpt lat="39.12173300050199" lon="-9.240600988268852">
        <ele>55.890000000000001</ele>
        <time>2025-05-04T13:53:32Z</time>
      </trkpt>
      <trkpt lat="39.120538998395205" lon="-9.242032030597329">
        <ele>51.090000000000003</ele>
        <time>2025-05-04T13:53:40Z</time>
      </trkpt>
      <trkpt lat="39.120216965675354" lon="-9.242373006418347">
        <ele>50.609999999999999</ele>
        <time>2025-05-04T13:53:42Z</time>
      </trkpt>
      <trkpt lat="39.120039017871022" lon="-9.242511978372932">
        <ele>50.609999999999999</ele>
        <time>2025-05-04T13:53:43Z</time>
      </trkpt>
      <trkpt lat="39.11984296515584" lon="-9.242622032761574">
        <ele>50.609999999999999</ele>
        <time>2025-05-04T13:53:44Z</time>
      </trkpt>
      <trkpt lat="39.119650013744831" lon="-9.242729991674423">
        <ele>50.130000000000003</ele>
        <time>2025-05-04T13:53:45Z</time>
      </trkpt>
      <trkpt lat="39.119451027363539" lon="-9.242783971130848">
        <ele>50.609999999999999</ele>
        <time>2025-05-04T13:53:46Z</time>
      </trkpt>
      <trkpt lat="39.119243994355202" lon="-9.242814984172583">
        <ele>50.130000000000003</ele>
        <time>2025-05-04T13:53:47Z</time>
      </trkpt>
      <trkpt lat="39.119036039337516" lon="-9.242845997214317">
        <ele>50.130000000000003</ele>
        <time>2025-05-04T13:53:48Z</time>
      </trkpt>
      <trkpt lat="39.118829006329179" lon="-9.242844991385937">
        <ele>50.130000000000003</ele>
        <time>2025-05-04T13:53:49Z</time>
      </trkpt>
      <trkpt lat="39.117438029497862" lon="-9.242796963080764">
        <ele>48.68</ele>
        <time>2025-05-04T13:53:56Z</time>
      </trkpt>
      <trkpt lat="39.117238959297538" lon="-9.242824958637357">
        <ele>48.68</ele>
        <time>2025-05-04T13:53:57Z</time>
      </trkpt>
      <trkpt lat="39.117052964866161" lon="-9.242886984720826">
        <ele>48.200000000000003</ele>
        <time>2025-05-04T13:53:58Z</time>
      </trkpt>
      <trkpt lat="39.116902006790042" lon="-9.242991004139185">
        <ele>48.200000000000003</ele>
        <time>2025-05-04T13:53:59Z</time>
      </trkpt>
      <trkpt lat="39.116760017350316" lon="-9.243095023557544">
        <ele>48.200000000000003</ele>
        <time>2025-05-04T13:54:00Z</time>
      </trkpt>
      <trkpt lat="39.116634959354997" lon="-9.243215974420309">
        <ele>48.200000000000003</ele>
        <time>2025-05-04T13:54:01Z</time>
      </trkpt>
      <trkpt lat="39.115528967231512" lon="-9.24459395930171">
        <ele>47.719999999999999</ele>
        <time>2025-05-04T13:54:10Z</time>
      </trkpt>
      <trkpt lat="39.115403993055224" lon="-9.244747012853622">
        <ele>47.719999999999999</ele>
        <time>2025-05-04T13:54:11Z</time>
      </trkpt>
      <trkpt lat="39.11528798751533" lon="-9.244906017556787">
        <ele>47.240000000000002</ele>
        <time>2025-05-04T13:54:12Z</time>
      </trkpt>
      <trkpt lat="39.115183968096972" lon="-9.245066028088331">
        <ele>47.240000000000002</ele>
        <time>2025-05-04T13:54:13Z</time>
      </trkpt>
      <trkpt lat="39.115087995305657" lon="-9.245212962850928">
        <ele>46.759999999999998</ele>
        <time>2025-05-04T13:54:14Z</time>
      </trkpt>
      <trkpt lat="39.115014988929033" lon="-9.245370961725712">
        <ele>46.759999999999998</ele>
        <time>2025-05-04T13:54:15Z</time>
      </trkpt>
      <trkpt lat="39.114946005865932" lon="-9.245542958378792">
        <ele>46.280000000000001</ele>
        <time>2025-05-04T13:54:16Z</time>
      </trkpt>
      <trkpt lat="39.114895965903997" lon="-9.245726019144058">
        <ele>46.280000000000001</ele>
        <time>2025-05-04T13:54:17Z</time>
      </trkpt>
      <trkpt lat="39.114317027851939" lon="-9.24747297540307">
        <ele>43.399999999999999</ele>
        <time>2025-05-04T13:54:25Z</time>
      </trkpt>
      <trkpt lat="39.11382501013577" lon="-9.248565975576639">
        <ele>40.509999999999998</ele>
        <time>2025-05-04T13:54:33Z</time>
      </trkpt>
      <trkpt lat="39.113647984340787" lon="-9.248936958611012">
        <ele>38.590000000000003</ele>
        <time>2025-05-04T13:54:37Z</time>
      </trkpt>
      <trkpt lat="39.113553017377853" lon="-9.249115996062756">
        <ele>35.229999999999997</ele>
        <time>2025-05-04T13:54:45Z</time>
      </trkpt>
      <trkpt lat="39.113553017377853" lon="-9.249115996062756">
        <ele>35.229999999999997</ele>
        <time>2025-05-04T13:55:09Z</time>
      </trkpt>
      <trkpt lat="39.113553017377853" lon="-9.249115996062756">
        <ele>35.229999999999997</ele>
        <time>2025-05-04T13:55:32Z</time>
      </trkpt>
      <trkpt lat="39.113553017377853" lon="-9.249115996062756">
        <ele>34.740000000000002</ele>
        <time>2025-05-04T13:55:36Z</time>
      </trkpt>
      <trkpt lat="39.113453021273017" lon="-9.248969983309507">
        <ele>33.299999999999997</ele>
        <time>2025-05-04T13:55:41Z</time>
      </trkpt>
      <trkpt lat="39.113398035988212" lon="-9.248832017183304">
        <ele>33.299999999999997</ele>
        <time>2025-05-04T13:55:55Z</time>
      </trkpt>
      <trkpt lat="39.114420041441917" lon="-9.248529011383653">
        <ele>128.94999999999999</ele>
        <time>2025-05-04T14:01:47Z</time>
      </trkpt>
      <trkpt lat="39.113844037055969" lon="-9.248526999726892">
        <ele>109.25</ele>
        <time>2025-05-04T14:01:55Z</time>
      </trkpt>
      <trkpt lat="39.113830039277673" lon="-9.248556001111865">
        <ele>77.519999999999996</ele>
        <time>2025-05-04T14:02:14Z</time>
      </trkpt>
      <trkpt lat="39.113830039277673" lon="-9.248556001111865">
        <ele>51.090000000000003</ele>
        <time>2025-05-04T14:02:42Z</time>
      </trkpt>
      <trkpt lat="39.113830039277673" lon="-9.248556001111865">
        <ele>42.920000000000002</ele>
        <time>2025-05-04T14:03:16Z</time>
      </trkpt>
      <trkpt lat="39.113830039277673" lon="-9.248556001111865">
        <ele>40.030000000000001</ele>
        <time>2025-05-04T14:03:52Z</time>
      </trkpt>
      <trkpt lat="39.113830039277673" lon="-9.248556001111865">
        <ele>40.030000000000001</ele>
        <time>2025-05-04T14:04:27Z</time>
      </trkpt>
      <trkpt lat="39.113830039277673" lon="-9.248556001111865">
        <ele>40.030000000000001</ele>
        <time>2025-05-04T14:04:56Z</time>
      </trkpt>
      <trkpt lat="39.113830039277673" lon="-9.248556001111865">
        <ele>40.030000000000001</ele>
        <time>2025-05-04T14:05:21Z</time>
      </trkpt>
      <trkpt lat="39.113830039277673" lon="-9.248556001111865">
        <ele>40.030000000000001</ele>
        <time>2025-05-04T14:05:55Z</time>
      </trkpt>
      <trkpt lat="39.113830039277673" lon="-9.248556001111865">
        <ele>40.030000000000001</ele>
        <time>2025-05-04T14:06:24Z</time>
      </trkpt>
      <trkpt lat="39.113830039277673" lon="-9.248556001111865">
        <ele>40.030000000000001</ele>
        <time>2025-05-04T14:07:03Z</time>
      </trkpt>
      <trkpt lat="39.113830039277673" lon="-9.248556001111865">
        <ele>40.509999999999998</ele>
        <time>2025-05-04T14:07:40Z</time>
      </trkpt>
      <trkpt lat="39.113830039277673" lon="-9.248556001111865">
        <ele>40.509999999999998</ele>
        <time>2025-05-04T14:08:29Z</time>
      </trkpt>
      <trkpt lat="39.113830039277673" lon="-9.248556001111865">
        <ele>39.549999999999997</ele>
        <time>2025-05-04T14:09:11Z</time>
      </trkpt>
      <trkpt lat="39.113830039277673" lon="-9.248556001111865">
        <ele>38.590000000000003</ele>
        <time>2025-05-04T14:09:49Z</time>
      </trkpt>
      <trkpt lat="39.113830039277673" lon="-9.248556001111865">
        <ele>38.590000000000003</ele>
        <time>2025-05-04T14:10:20Z</time>
      </trkpt>
      <trkpt lat="39.113830039277673" lon="-9.248556001111865">
        <ele>38.590000000000003</ele>
        <time>2025-05-04T14:10:52Z</time>
      </trkpt>
      <trkpt lat="39.113830039277673" lon="-9.248556001111865">
        <ele>38.590000000000003</ele>
        <time>2025-05-04T14:11:34Z</time>
      </trkpt>
      <trkpt lat="39.113830039277673" lon="-9.248556001111865">
        <ele>38.590000000000003</ele>
        <time>2025-05-04T14:12:16Z</time>
      </trkpt>
      <trkpt lat="39.113710010424256" lon="-9.248807039111853">
        <ele>38.109999999999999</ele>
        <time>2025-05-04T14:12:20Z</time>
      </trkpt>
      <trkpt lat="39.113699030131102" lon="-9.248828999698162">
        <ele>38.109999999999999</ele>
        <time>2025-05-04T14:12:21Z</time>
      </trkpt>
      <trkpt lat="39.113687966018915" lon="-9.248851966112852">
        <ele>38.109999999999999</ele>
        <time>2025-05-04T14:12:22Z</time>
      </trkpt>
      <trkpt lat="39.113453021273017" lon="-9.249310959130526">
        <ele>37.630000000000003</ele>
        <time>2025-05-04T14:12:35Z</time>
      </trkpt>
      <trkpt lat="39.113453021273017" lon="-9.249310959130526">
        <ele>38.590000000000003</ele>
        <time>2025-05-04T14:12:49Z</time>
      </trkpt>
      <trkpt lat="39.113442962989211" lon="-9.249330991879106">
        <ele>40.509999999999998</ele>
        <time>2025-05-04T14:12:51Z</time>
      </trkpt>
      <trkpt lat="39.113415973260999" lon="-9.249385977163911">
        <ele>40.990000000000002</ele>
        <time>2025-05-04T14:12:52Z</time>
      </trkpt>
      <trkpt lat="39.11337599158287" lon="-9.24946803599596">
        <ele>41.469999999999999</ele>
        <time>2025-05-04T14:12:53Z</time>
      </trkpt>
      <trkpt lat="39.113328969106078" lon="-9.249566020444036">
        <ele>41.469999999999999</ele>
        <time>2025-05-04T14:12:54Z</time>
      </trkpt>
      <trkpt lat="39.113272977992892" lon="-9.249679008498788">
        <ele>41.469999999999999</ele>
        <time>2025-05-04T14:12:55Z</time>
      </trkpt>
      <trkpt lat="39.112916998565197" lon="-9.250387027859688">
        <ele>40.990000000000002</ele>
        <time>2025-05-04T14:13:00Z</time>
      </trkpt>
      <trkpt lat="39.112453982234001" lon="-9.251117007806897">
        <ele>39.549999999999997</ele>
        <time>2025-05-04T14:13:05Z</time>
      </trkpt>
      <trkpt lat="39.112378964200616" lon="-9.2512740008533">
        <ele>39.07</ele>
        <time>2025-05-04T14:13:06Z</time>
      </trkpt>
      <trkpt lat="39.112176038324833" lon="-9.251737017184496">
        <ele>38.590000000000003</ele>
        <time>2025-05-04T14:13:09Z</time>
      </trkpt>
      <trkpt lat="39.111826010048389" lon="-9.252690961584449">
        <ele>37.630000000000003</ele>
        <time>2025-05-04T14:13:15Z</time>
      </trkpt>
      <trkpt lat="39.111802959814668" lon="-9.252866981551051">
        <ele>37.630000000000003</ele>
        <time>2025-05-04T14:13:16Z</time>
      </trkpt>
      <trkpt lat="39.11180698312819" lon="-9.253046019002795">
        <ele>37.149999999999999</ele>
        <time>2025-05-04T14:13:17Z</time>
      </trkpt>
      <trkpt lat="39.111811006441712" lon="-9.253234025090933">
        <ele>37.149999999999999</ele>
        <time>2025-05-04T14:13:18Z</time>
      </trkpt>
      <trkpt lat="39.111815029755235" lon="-9.253422031179071">
        <ele>36.670000000000002</ele>
        <time>2025-05-04T14:13:19Z</time>
      </trkpt>
      <trkpt lat="39.111818969249725" lon="-9.253601990640163">
        <ele>36.670000000000002</ele>
        <time>2025-05-04T14:13:20Z</time>
      </trkpt>
      <trkpt lat="39.111820980906487" lon="-9.253778010606766">
        <ele>36.189999999999998</ele>
        <time>2025-05-04T14:13:21Z</time>
      </trkpt>
      <trkpt lat="39.111801031976938" lon="-9.253942966461182">
        <ele>35.710000000000001</ele>
        <time>2025-05-04T14:13:22Z</time>
      </trkpt>
      <trkpt lat="39.111735988408327" lon="-9.254108006134629">
        <ele>35.710000000000001</ele>
        <time>2025-05-04T14:13:23Z</time>
      </trkpt>
      <trkpt lat="39.111675973981619" lon="-9.25426097586751">
        <ele>35.229999999999997</ele>
        <time>2025-05-04T14:13:24Z</time>
      </trkpt>
      <trkpt lat="39.111607996746898" lon="-9.254436995834112">
        <ele>35.229999999999997</ele>
        <time>2025-05-04T14:13:25Z</time>
      </trkpt>
      <trkpt lat="39.11152602173388" lon="-9.254547972232103">
        <ele>35.229999999999997</ele>
        <time>2025-05-04T14:13:26Z</time>
      </trkpt>
      <trkpt lat="39.111428959295154" lon="-9.254679987207055">
        <ele>35.229999999999997</ele>
        <time>2025-05-04T14:13:27Z</time>
      </trkpt>
      <trkpt lat="39.110736027359962" lon="-9.255667040124536">
        <ele>35.710000000000001</ele>
        <time>2025-05-04T14:13:35Z</time>
      </trkpt>
      <trkpt lat="39.109803959727287" lon="-9.256782000884414">
        <ele>35.229999999999997</ele>
        <time>2025-05-04T14:13:45Z</time>
      </trkpt>
      <trkpt lat="39.1093560308218" lon="-9.257403016090393">
        <ele>35.710000000000001</ele>
        <time>2025-05-04T14:13:50Z</time>
      </trkpt>
      <trkpt lat="39.109258968383074" lon="-9.257506029680371">
        <ele>36.189999999999998</ele>
        <time>2025-05-04T14:13:51Z</time>
      </trkpt>
      <trkpt lat="39.109161989763379" lon="-9.257608959451318">
        <ele>36.189999999999998</ele>
        <time>2025-05-04T14:13:52Z</time>
      </trkpt>
      <trkpt lat="39.109052019193769" lon="-9.25769504159689">
        <ele>36.670000000000002</ele>
        <time>2025-05-04T14:13:53Z</time>
      </trkpt>
      <trkpt lat="39.108931990340352" lon="-9.257766958326101">
        <ele>36.670000000000002</ele>
        <time>2025-05-04T14:13:54Z</time>
      </trkpt>
      <trkpt lat="39.108807016164064" lon="-9.257808029651642">
        <ele>36.670000000000002</ele>
        <time>2025-05-04T14:13:55Z</time>
      </trkpt>
      <trkpt lat="39.108678018674254" lon="-9.25784801132977">
        <ele>37.149999999999999</ele>
        <time>2025-05-04T14:13:56Z</time>
      </trkpt>
      <trkpt lat="39.108539968729019" lon="-9.25784801132977">
        <ele>37.149999999999999</ele>
        <time>2025-05-04T14:13:57Z</time>
      </trkpt>
      <trkpt lat="39.108398985117674" lon="-9.25784801132977">
        <ele>37.149999999999999</ele>
        <time>2025-05-04T14:13:58Z</time>
      </trkpt>
      <trkpt lat="39.107974022626877" lon="-9.257897967472673">
        <ele>38.109999999999999</ele>
        <time>2025-05-04T14:14:01Z</time>
      </trkpt>
      <trkpt lat="39.107430959120393" lon="-9.258014978840947">
        <ele>40.030000000000001</ele>
        <time>2025-05-04T14:14:05Z</time>
      </trkpt>
      <trkpt lat="39.107297016307712" lon="-9.258001986891031">
        <ele>40.509999999999998</ele>
        <time>2025-05-04T14:14:06Z</time>
      </trkpt>
      <trkpt lat="39.106936007738113" lon="-9.258001986891031">
        <ele>40.990000000000002</ele>
        <time>2025-05-04T14:14:09Z</time>
      </trkpt>
      <trkpt lat="39.10684104077518" lon="-9.258046997711062">
        <ele>41.469999999999999</ele>
        <time>2025-05-04T14:14:10Z</time>
      </trkpt>
      <trkpt lat="39.106754958629608" lon="-9.258140036836267">
        <ele>41.950000000000003</ele>
        <time>2025-05-04T14:14:11Z</time>
      </trkpt>
      <trkpt lat="39.106666026636958" lon="-9.258236009627581">
        <ele>42.439999999999998</ele>
        <time>2025-05-04T14:14:12Z</time>
      </trkpt>
      <trkpt lat="39.106608023867011" lon="-9.258299041539431">
        <ele>42.920000000000002</ele>
        <time>2025-05-04T14:14:13Z</time>
      </trkpt>
      <trkpt lat="39.106211978942156" lon="-9.258854007348418">
        <ele>45.32</ele>
        <time>2025-05-04T14:14:18Z</time>
      </trkpt>
      <trkpt lat="39.106165962293744" lon="-9.258946962654591">
        <ele>45.32</ele>
        <time>2025-05-04T14:14:19Z</time>
      </trkpt>
      <trkpt lat="39.106121035292745" lon="-9.259036984294653">
        <ele>45.799999999999997</ele>
        <time>2025-05-04T14:14:20Z</time>
      </trkpt>
      <trkpt lat="39.106102008372545" lon="-9.259233037009835">
        <ele>46.280000000000001</ele>
        <time>2025-05-04T14:14:22Z</time>
      </trkpt>
      <trkpt lat="39.106079963967204" lon="-9.259291961789131">
        <ele>46.759999999999998</ele>
        <time>2025-05-04T14:14:23Z</time>
      </trkpt>
      <trkpt lat="39.106003018096089" lon="-9.259344013407826">
        <ele>47.240000000000002</ele>
        <time>2025-05-04T14:14:24Z</time>
      </trkpt>
      <trkpt lat="39.10594099201262" lon="-9.259306965395808">
        <ele>47.719999999999999</ele>
        <time>2025-05-04T14:14:25Z</time>
      </trkpt>
      <trkpt lat="39.105867985635996" lon="-9.259270001202822">
        <ele>47.719999999999999</ele>
        <time>2025-05-04T14:14:26Z</time>
      </trkpt>
      <trkpt lat="39.105785004794598" lon="-9.259229013696313">
        <ele>48.200000000000003</ele>
        <time>2025-05-04T14:14:27Z</time>
      </trkpt>
      <trkpt lat="39.105693977326155" lon="-9.259187020361424">
        <ele>48.200000000000003</ele>
        <time>2025-05-04T14:14:28Z</time>
      </trkpt>
      <trkpt lat="39.105499014258385" lon="-9.259112002328038">
        <ele>48.200000000000003</ele>
        <time>2025-05-04T14:14:30Z</time>
      </trkpt>
      <trkpt lat="39.10529600456357" lon="-9.259076965972781">
        <ele>48.200000000000003</ele>
        <time>2025-05-04T14:14:32Z</time>
      </trkpt>
      <trkpt lat="39.105078997090459" lon="-9.259053999558091">
        <ele>48.200000000000003</ele>
        <time>2025-05-04T14:14:34Z</time>
      </trkpt>
      <trkpt lat="39.104976989328861" lon="-9.259049976244569">
        <ele>48.200000000000003</ele>
        <time>2025-05-04T14:14:35Z</time>
      </trkpt>
      <trkpt lat="39.104864001274109" lon="-9.259069003164768">
        <ele>48.200000000000003</ele>
        <time>2025-05-04T14:14:36Z</time>
      </trkpt>
      <trkpt lat="39.104755958542228" lon="-9.259108984842897">
        <ele>47.719999999999999</ele>
        <time>2025-05-04T14:14:37Z</time>
      </trkpt>
      <trkpt lat="39.104637019336224" lon="-9.259159024804831">
        <ele>47.240000000000002</ele>
        <time>2025-05-04T14:14:38Z</time>
      </trkpt>
      <trkpt lat="39.103983985260129" lon="-9.259389024227858">
        <ele>44.840000000000003</ele>
        <time>2025-05-04T14:14:44Z</time>
      </trkpt>
      <trkpt lat="39.103637980297208" lon="-9.259376032277942">
        <ele>42.920000000000002</ele>
        <time>2025-05-04T14:14:47Z</time>
      </trkpt>
      <trkpt lat="39.103528009727597" lon="-9.259363040328026">
        <ele>42.439999999999998</ele>
        <time>2025-05-04T14:14:48Z</time>
      </trkpt>
      <trkpt lat="39.102584039792418" lon="-9.259103033691645">
        <ele>38.590000000000003</ele>
        <time>2025-05-04T14:14:58Z</time>
      </trkpt>
      <trkpt lat="39.102033013477921" lon="-9.258947968482971">
        <ele>35.710000000000001</ele>
        <time>2025-05-04T14:15:06Z</time>
      </trkpt>
      <trkpt lat="39.101506965234876" lon="-9.258934976533055">
        <ele>34.259999999999998</ele>
        <time>2025-05-04T14:15:13Z</time>
      </trkpt>
      <trkpt lat="39.101420966908336" lon="-9.258954003453255">
        <ele>34.259999999999998</ele>
        <time>2025-05-04T14:15:14Z</time>
      </trkpt>
      <trkpt lat="39.101332034915686" lon="-9.258984010666609">
        <ele>33.780000000000001</ele>
        <time>2025-05-04T14:15:15Z</time>
      </trkpt>
      <trkpt lat="39.100872036069632" lon="-9.259261032566428">
        <ele>32.82</ele>
        <time>2025-05-04T14:15:22Z</time>
      </trkpt>
      <trkpt lat="39.10080598667264" lon="-9.259317023679614">
        <ele>32.82</ele>
        <time>2025-05-04T14:15:23Z</time>
      </trkpt>
      <trkpt lat="39.100744966417551" lon="-9.259387012571096">
        <ele>32.82</ele>
        <time>2025-05-04T14:15:24Z</time>
      </trkpt>
      <trkpt lat="39.100256972014904" lon="-9.259865032508969">
        <ele>31.859999999999999</ele>
        <time>2025-05-04T14:15:31Z</time>
      </trkpt>
      <trkpt lat="39.100171979516745" lon="-9.259908031672239">
        <ele>31.859999999999999</ele>
        <time>2025-05-04T14:15:32Z</time>
      </trkpt>
      <trkpt lat="39.100084975361824" lon="-9.259951030835509">
        <ele>31.859999999999999</ele>
        <time>2025-05-04T14:15:33Z</time>
      </trkpt>
      <trkpt lat="39.099027011543512" lon="-9.260245990008116">
        <ele>33.299999999999997</ele>
        <time>2025-05-04T14:15:46Z</time>
      </trkpt>
      <trkpt lat="39.098652005195618" lon="-9.260337017476559">
        <ele>34.259999999999998</ele>
        <time>2025-05-04T14:15:53Z</time>
      </trkpt>
      <trkpt lat="39.098475985229015" lon="-9.260324025526643">
        <ele>34.259999999999998</ele>
        <time>2025-05-04T14:16:01Z</time>
      </trkpt>
      <trkpt lat="39.098390992730856" lon="-9.260267028585076">
        <ele>34.259999999999998</ele>
        <time>2025-05-04T14:16:08Z</time>
      </trkpt>
      <trkpt lat="39.098304994404316" lon="-9.26029703579843">
        <ele>34.259999999999998</ele>
        <time>2025-05-04T14:16:09Z</time>
      </trkpt>
      <trkpt lat="39.098256966099143" lon="-9.260330982506275">
        <ele>34.259999999999998</ele>
        <time>2025-05-04T14:16:10Z</time>
      </trkpt>
      <trkpt lat="39.097552970051765" lon="-9.260166026651859">
        <ele>34.259999999999998</ele>
        <time>2025-05-04T14:16:18Z</time>
      </trkpt>
      <trkpt lat="39.097048966214061" lon="-9.259968968108296">
        <ele>33.299999999999997</ele>
        <time>2025-05-04T14:16:27Z</time>
      </trkpt>
      <trkpt lat="39.096908988431096" lon="-9.260037029162049">
        <ele>33.299999999999997</ele>
        <time>2025-05-04T14:16:28Z</time>
      </trkpt>
      <trkpt lat="39.096908988431096" lon="-9.260037029162049">
        <ele>33.299999999999997</ele>
        <time>2025-05-04T14:16:29Z</time>
      </trkpt>
      <trkpt lat="39.096908988431096" lon="-9.260037029162049">
        <ele>32.82</ele>
        <time>2025-05-04T14:16:30Z</time>
      </trkpt>
      <trkpt lat="39.09685299731791" lon="-9.260266022756696">
        <ele>32.82</ele>
        <time>2025-05-04T14:16:31Z</time>
      </trkpt>
      <trkpt lat="39.096864983439445" lon="-9.260351015254855">
        <ele>32.340000000000003</ele>
        <time>2025-05-04T14:16:32Z</time>
      </trkpt>
      <trkpt lat="39.096880992874503" lon="-9.260443970561028">
        <ele>31.859999999999999</ele>
        <time>2025-05-04T14:16:33Z</time>
      </trkpt>
      <trkpt lat="39.096898008137941" lon="-9.260539021342993">
        <ele>31.379999999999999</ele>
        <time>2025-05-04T14:16:34Z</time>
      </trkpt>
      <trkpt lat="39.09691502340138" lon="-9.260634994134307">
        <ele>31.379999999999999</ele>
        <time>2025-05-04T14:16:35Z</time>
      </trkpt>
      <trkpt lat="39.096932038664818" lon="-9.260733984410763">
        <ele>30.899999999999999</ele>
        <time>2025-05-04T14:16:36Z</time>
      </trkpt>
      <trkpt lat="39.096952993422747" lon="-9.260844038799405">
        <ele>30.420000000000002</ele>
        <time>2025-05-04T14:16:37Z</time>
      </trkpt>
      <trkpt lat="39.096975037828088" lon="-9.260960966348648">
        <ele>30.420000000000002</ele>
        <time>2025-05-04T14:16:38Z</time>
      </trkpt>
      <trkpt lat="39.096994986757636" lon="-9.261066997423768">
        <ele>29.940000000000001</ele>
        <time>2025-05-04T14:16:39Z</time>
      </trkpt>
      <trkpt lat="39.096985012292862" lon="-9.261202029883862">
        <ele>29.940000000000001</ele>
        <time>2025-05-04T14:16:40Z</time>
      </trkpt>
      <trkpt lat="39.096976965665817" lon="-9.261323986575007">
        <ele>29.460000000000001</ele>
        <time>2025-05-04T14:16:41Z</time>
      </trkpt>
      <trkpt lat="39.096947964280844" lon="-9.261428005993366">
        <ele>28.98</ele>
        <time>2025-05-04T14:16:42Z</time>
      </trkpt>
      <trkpt lat="39.09691502340138" lon="-9.261508975178003">
        <ele>28.5</ele>
        <time>2025-05-04T14:16:43Z</time>
      </trkpt>
      <trkpt lat="39.096890967339277" lon="-9.26156597211957">
        <ele>28.02</ele>
        <time>2025-05-04T14:16:44Z</time>
      </trkpt>
      <trkpt lat="39.096865989267826" lon="-9.261624980717897">
        <ele>28.02</ele>
        <time>2025-05-04T14:16:45Z</time>
      </trkpt>
      <trkpt lat="39.096835982054472" lon="-9.261665968224406">
        <ele>27.530000000000001</ele>
        <time>2025-05-04T14:16:46Z</time>
      </trkpt>
      <trkpt lat="39.096802035346627" lon="-9.261711984872818">
        <ele>27.050000000000001</ele>
        <time>2025-05-04T14:16:47Z</time>
      </trkpt>
      <trkpt lat="39.096770016476512" lon="-9.261756995692849">
        <ele>27.050000000000001</ele>
        <time>2025-05-04T14:16:48Z</time>
      </trkpt>
      <trkpt lat="39.09657496958971" lon="-9.262027982622385">
        <ele>25.609999999999999</ele>
        <time>2025-05-04T14:16:55Z</time>
      </trkpt>
      <trkpt lat="39.09655099734664" lon="-9.262062013149262">
        <ele>25.609999999999999</ele>
        <time>2025-05-04T14:16:56Z</time>
      </trkpt>
      <trkpt lat="39.096519984304905" lon="-9.262105012312532">
        <ele>25.129999999999999</ele>
        <time>2025-05-04T14:16:57Z</time>
      </trkpt>
      <trkpt lat="39.096320997923613" lon="-9.262880003079772">
        <ele>23.210000000000001</ele>
        <time>2025-05-04T14:17:05Z</time>
      </trkpt>
      <trkpt lat="39.096044981852174" lon="-9.264095965772867">
        <ele>22.73</ele>
        <time>2025-05-04T14:17:14Z</time>
      </trkpt>
      <trkpt lat="39.095903998240829" lon="-9.264910016208887">
        <ele>20.809999999999999</ele>
        <time>2025-05-04T14:17:19Z</time>
      </trkpt>
      <trkpt lat="39.095892012119293" lon="-9.265085030347109">
        <ele>20.32</ele>
        <time>2025-05-04T14:17:20Z</time>
      </trkpt>
      <trkpt lat="39.095897041261196" lon="-9.266883032396436">
        <ele>14.56</ele>
        <time>2025-05-04T14:17:31Z</time>
      </trkpt>
      <trkpt lat="39.096007011830807" lon="-9.26783999428153">
        <ele>14.56</ele>
        <time>2025-05-04T14:17:37Z</time>
      </trkpt>
      <trkpt lat="39.096055962145329" lon="-9.267934039235115">
        <ele>15.52</ele>
        <time>2025-05-04T14:17:38Z</time>
      </trkpt>
      <trkpt lat="39.096107007935643" lon="-9.268024982884526">
        <ele>16</ele>
        <time>2025-05-04T14:17:39Z</time>
      </trkpt>
      <trkpt lat="39.09620700404048" lon="-9.268206031993032">
        <ele>17.440000000000001</ele>
        <time>2025-05-04T14:17:41Z</time>
      </trkpt>
      <trkpt lat="39.096239022910595" lon="-9.268293036147952">
        <ele>17.920000000000002</ele>
        <time>2025-05-04T14:17:42Z</time>
      </trkpt>
      <trkpt lat="39.096256960183382" lon="-9.268413987010717">
        <ele>17.920000000000002</ele>
        <time>2025-05-04T14:17:43Z</time>
      </trkpt>
      <trkpt lat="39.096243968233466" lon="-9.268491016700864">
        <ele>18.399999999999999</ele>
        <time>2025-05-04T14:17:44Z</time>
      </trkpt>
      <trkpt lat="39.096160987392068" lon="-9.268573997542262">
        <ele>18.879999999999999</ele>
        <time>2025-05-04T14:17:45Z</time>
      </trkpt>
      <trkpt lat="39.09607800655067" lon="-9.268598975613713">
        <ele>18.879999999999999</ele>
        <time>2025-05-04T14:17:46Z</time>
      </trkpt>
      <trkpt lat="39.096051016822457" lon="-9.268598975613713">
        <ele>19.84</ele>
        <time>2025-05-04T14:17:47Z</time>
      </trkpt>
      <trkpt lat="39.09594900906086" lon="-9.268496967852116">
        <ele>19.84</ele>
        <time>2025-05-04T14:17:48Z</time>
      </trkpt>
      <trkpt lat="39.095814982429147" lon="-9.268417004495859">
        <ele>20.32</ele>
        <time>2025-05-04T14:17:49Z</time>
      </trkpt>
      <trkpt lat="39.095719009637833" lon="-9.268427984789014">
        <ele>20.32</ele>
        <time>2025-05-04T14:17:50Z</time>
      </trkpt>
      <trkpt lat="39.095612978562713" lon="-9.268437037244439">
        <ele>20.32</ele>
        <time>2025-05-04T14:17:51Z</time>
      </trkpt>
      <trkpt lat="39.095493033528328" lon="-9.268448017537594">
        <ele>20.809999999999999</ele>
        <time>2025-05-04T14:17:52Z</time>
      </trkpt>
      <trkpt lat="39.094543028622866" lon="-9.268287001177669">
        <ele>22.25</ele>
        <time>2025-05-04T14:17:59Z</time>
      </trkpt>
      <trkpt lat="39.092649975791574" lon="-9.267334984615445">
        <ele>22.73</ele>
        <time>2025-05-04T14:18:12Z</time>
      </trkpt>
      <trkpt lat="39.092102972790599" lon="-9.26685000769794">
        <ele>23.690000000000001</ele>
        <time>2025-05-04T14:18:17Z</time>
      </trkpt>
      <trkpt lat="39.09191002137959" lon="-9.266706006601453">
        <ele>25.129999999999999</ele>
        <time>2025-05-04T14:18:19Z</time>
      </trkpt>
      <trkpt lat="39.09184698946774" lon="-9.26665797829628">
        <ele>25.609999999999999</ele>
        <time>2025-05-04T14:18:20Z</time>
      </trkpt>
      <trkpt lat="39.091784041374922" lon="-9.266617996618152">
        <ele>26.09</ele>
        <time>2025-05-04T14:18:21Z</time>
      </trkpt>
      <trkpt lat="39.091729978099465" lon="-9.266600981354713">
        <ele>26.09</ele>
        <time>2025-05-04T14:18:22Z</time>
      </trkpt>
      <trkpt lat="39.091669041663408" lon="-9.266580026596785">
        <ele>26.57</ele>
        <time>2025-05-04T14:18:23Z</time>
      </trkpt>
      <trkpt lat="39.0916090272367" lon="-9.266559993848205">
        <ele>26.57</ele>
        <time>2025-05-04T14:18:24Z</time>
      </trkpt>
      <trkpt lat="39.09156602807343" lon="-9.266389003023505">
        <ele>26.57</ele>
        <time>2025-05-04T14:18:25Z</time>
      </trkpt>
      <trkpt lat="39.091526968404651" lon="-9.266310967504978">
        <ele>26.57</ele>
        <time>2025-05-04T14:18:26Z</time>
      </trkpt>
      <trkpt lat="39.091468965634704" lon="-9.266194039955735">
        <ele>26.57</ele>
        <time>2025-05-04T14:18:27Z</time>
      </trkpt>
      <trkpt lat="39.091407023370266" lon="-9.266070993617177">
        <ele>26.57</ele>
        <time>2025-05-04T14:18:28Z</time>
      </trkpt>
      <trkpt lat="39.09130803309381" lon="-9.265934033319354">
        <ele>26.57</ele>
        <time>2025-05-04T14:18:29Z</time>
      </trkpt>
      <trkpt lat="39.091206025332212" lon="-9.265824984759092">
        <ele>27.050000000000001</ele>
        <time>2025-05-04T14:18:30Z</time>
      </trkpt>
      <trkpt lat="39.091098988428712" lon="-9.265710990875959">
        <ele>27.050000000000001</ele>
        <time>2025-05-04T14:18:31Z</time>
      </trkpt>
      <trkpt lat="39.090990023687482" lon="-9.265595991164446">
        <ele>27.530000000000001</ele>
        <time>2025-05-04T14:18:32Z</time>
      </trkpt>
      <trkpt lat="39.089939016848803" lon="-9.264621008187532">
        <ele>26.09</ele>
        <time>2025-05-04T14:18:40Z</time>
      </trkpt>
      <trkpt lat="39.089774983003736" lon="-9.264538027346134">
        <ele>26.09</ele>
        <time>2025-05-04T14:18:41Z</time>
      </trkpt>
      <trkpt lat="39.089609021320939" lon="-9.264479018747807">
        <ele>26.57</ele>
        <time>2025-05-04T14:18:42Z</time>
      </trkpt>
      <trkpt lat="39.08815098926425" lon="-9.26407802850008">
        <ele>30.899999999999999</ele>
        <time>2025-05-04T14:18:52Z</time>
      </trkpt>
      <trkpt lat="39.08765603788197" lon="-9.264050032943487">
        <ele>31.859999999999999</ele>
        <time>2025-05-04T14:18:56Z</time>
      </trkpt>
      <trkpt lat="39.087544977664948" lon="-9.264050032943487">
        <ele>31.859999999999999</ele>
        <time>2025-05-04T14:18:57Z</time>
      </trkpt>
      <trkpt lat="39.087402988225222" lon="-9.264050032943487">
        <ele>32.340000000000003</ele>
        <time>2025-05-04T14:18:58Z</time>
      </trkpt>
      <trkpt lat="39.087070981040597" lon="-9.264079034328461">
        <ele>33.299999999999997</ele>
        <time>2025-05-04T14:19:01Z</time>
      </trkpt>
      <trkpt lat="39.086960004642606" lon="-9.264162015169859">
        <ele>33.299999999999997</ele>
        <time>2025-05-04T14:19:02Z</time>
      </trkpt>
      <trkpt lat="39.086823966354132" lon="-9.264264022931457">
        <ele>33.299999999999997</ele>
        <time>2025-05-04T14:19:03Z</time>
      </trkpt>
      <trkpt lat="39.085513036698103" lon="-9.2651960067451">
        <ele>41.469999999999999</ele>
        <time>2025-05-04T14:19:13Z</time>
      </trkpt>
      <trkpt lat="39.08417503349483" lon="-9.26545400172472">
        <ele>51.57</ele>
        <time>2025-05-04T14:19:20Z</time>
      </trkpt>
      <trkpt lat="39.082700992003083" lon="-9.264991991221905">
        <ele>57.340000000000003</ele>
        <time>2025-05-04T14:19:27Z</time>
      </trkpt>
      <trkpt lat="39.080110983923078" lon="-9.263856997713447">
        <ele>60.219999999999999</ele>
        <time>2025-05-04T14:19:40Z</time>
      </trkpt>
      <trkpt lat="39.078798964619637" lon="-9.263276970013976">
        <ele>59.740000000000002</ele>
        <time>2025-05-04T14:19:49Z</time>
      </trkpt>
      <trkpt lat="39.078319016844034" lon="-9.263027021661401">
        <ele>58.780000000000001</ele>
        <time>2025-05-04T14:19:55Z</time>
      </trkpt>
      <trkpt lat="39.078149031847715" lon="-9.262948986142874">
        <ele>57.82</ele>
        <time>2025-05-04T14:19:58Z</time>
      </trkpt>
      <trkpt lat="39.077982986345887" lon="-9.263041019439697">
        <ele>57.82</ele>
        <time>2025-05-04T14:19:59Z</time>
      </trkpt>
      <trkpt lat="39.077982986345887" lon="-9.263041019439697">
        <ele>57.82</ele>
        <time>2025-05-04T14:20:00Z</time>
      </trkpt>
      <trkpt lat="39.077948033809662" lon="-9.263044958934188">
        <ele>57.82</ele>
        <time>2025-05-04T14:20:01Z</time>
      </trkpt>
      <trkpt lat="39.077879972755909" lon="-9.263054011389613">
        <ele>57.82</ele>
        <time>2025-05-04T14:20:02Z</time>
      </trkpt>
      <trkpt lat="39.077791040763259" lon="-9.263097010552883">
        <ele>57.82</ele>
        <time>2025-05-04T14:20:03Z</time>
      </trkpt>
      <trkpt lat="39.077748041599989" lon="-9.263165993615985">
        <ele>57.340000000000003</ele>
        <time>2025-05-04T14:20:04Z</time>
      </trkpt>
      <trkpt lat="39.077703030779958" lon="-9.263237994164228">
        <ele>57.340000000000003</ele>
        <time>2025-05-04T14:20:05Z</time>
      </trkpt>
      <trkpt lat="39.077639998868108" lon="-9.263342013582587">
        <ele>57.82</ele>
        <time>2025-05-04T14:20:06Z</time>
      </trkpt>
      <trkpt lat="39.077565986663103" lon="-9.263390963897109">
        <ele>57.82</ele>
        <time>2025-05-04T14:20:07Z</time>
      </trkpt>
      <trkpt lat="39.077475965023041" lon="-9.263450978323817">
        <ele>58.299999999999997</ele>
        <time>2025-05-04T14:20:08Z</time>
      </trkpt>
      <trkpt lat="39.077378986403346" lon="-9.263516021892428">
        <ele>58.780000000000001</ele>
        <time>2025-05-04T14:20:09Z</time>
      </trkpt>
      <trkpt lat="39.077274966984987" lon="-9.26358500495553">
        <ele>59.740000000000002</ele>
        <time>2025-05-04T14:20:10Z</time>
      </trkpt>
      <trkpt lat="39.076736010611057" lon="-9.263902008533478">
        <ele>64.549999999999997</ele>
        <time>2025-05-04T14:20:15Z</time>
      </trkpt>
      <trkpt lat="39.076645988970995" lon="-9.26399203017354">
        <ele>65.510000000000005</ele>
        <time>2025-05-04T14:20:16Z</time>
      </trkpt>
      <trkpt lat="39.07657197676599" lon="-9.264086997136474">
        <ele>66.950000000000003</ele>
        <time>2025-05-04T14:20:17Z</time>
      </trkpt>
      <trkpt lat="39.076515985652804" lon="-9.264208031818271">
        <ele>68.390000000000001</ele>
        <time>2025-05-04T14:20:18Z</time>
      </trkpt>
      <trkpt lat="39.076459994539618" lon="-9.264328982681036">
        <ele>69.349999999999994</ele>
        <time>2025-05-04T14:20:19Z</time>
      </trkpt>
      <trkpt lat="39.07639604061842" lon="-9.264430990442634">
        <ele>70.310000000000002</ele>
        <time>2025-05-04T14:20:20Z</time>
      </trkpt>
      <trkpt lat="39.07635304145515" lon="-9.264499973505735">
        <ele>71.269999999999996</ele>
        <time>2025-05-04T14:20:21Z</time>
      </trkpt>
      <trkpt lat="39.07624801620841" lon="-9.264578009024262">
        <ele>72.239999999999995</ele>
        <time>2025-05-04T14:20:22Z</time>
      </trkpt>
      <trkpt lat="39.076165035367012" lon="-9.264641040936112">
        <ele>72.719999999999999</ele>
        <time>2025-05-04T14:20:23Z</time>
      </trkpt>
      <trkpt lat="39.076066967099905" lon="-9.264695020392537">
        <ele>73.200000000000003</ele>
        <time>2025-05-04T14:20:24Z</time>
      </trkpt>
      <trkpt lat="39.075949033722281" lon="-9.26470298320055">
        <ele>73.680000000000007</ele>
        <time>2025-05-04T14:20:25Z</time>
      </trkpt>
      <trkpt lat="39.07512903213501" lon="-9.264757968485355">
        <ele>78</ele>
        <time>2025-05-04T14:20:32Z</time>
      </trkpt>
      <trkpt lat="39.075001962482929" lon="-9.264802979305387">
        <ele>78.480000000000004</ele>
        <time>2025-05-04T14:20:33Z</time>
      </trkpt>
      <trkpt lat="39.074886962771416" lon="-9.264843966811895">
        <ele>79.450000000000003</ele>
        <time>2025-05-04T14:20:34Z</time>
      </trkpt>
      <trkpt lat="39.074791995808482" lon="-9.264927031472325">
        <ele>80.409999999999997</ele>
        <time>2025-05-04T14:20:35Z</time>
      </trkpt>
      <trkpt lat="39.074713960289955" lon="-9.265056028962135">
        <ele>80.890000000000001</ele>
        <time>2025-05-04T14:20:36Z</time>
      </trkpt>
      <trkpt lat="39.074631985276937" lon="-9.265192989259958">
        <ele>81.849999999999994</ele>
        <time>2025-05-04T14:20:37Z</time>
      </trkpt>
      <trkpt lat="39.074544981122017" lon="-9.265337996184826">
        <ele>82.329999999999998</ele>
        <time>2025-05-04T14:20:38Z</time>
      </trkpt>
      <trkpt lat="39.074317999184132" lon="-9.265692969784141">
        <ele>84.25</ele>
        <time>2025-05-04T14:20:41Z</time>
      </trkpt>
      <trkpt lat="39.07422898337245" lon="-9.265806041657925">
        <ele>84.730000000000004</ele>
        <time>2025-05-04T14:20:42Z</time>
      </trkpt>
      <trkpt lat="39.074141979217529" lon="-9.265916012227535">
        <ele>85.209999999999994</ele>
        <time>2025-05-04T14:20:43Z</time>
      </trkpt>
      <trkpt lat="39.074040977284312" lon="-9.265992036089301">
        <ele>85.689999999999998</ele>
        <time>2025-05-04T14:20:44Z</time>
      </trkpt>
      <trkpt lat="39.073930000886321" lon="-9.266064036637545">
        <ele>86.180000000000007</ele>
        <time>2025-05-04T14:20:45Z</time>
      </trkpt>
      <trkpt lat="39.073808966204524" lon="-9.26611902192235">
        <ele>86.659999999999997</ele>
        <time>2025-05-04T14:20:46Z</time>
      </trkpt>
      <trkpt lat="39.072691993787885" lon="-9.266744982451201">
        <ele>89.540000000000006</ele>
        <time>2025-05-04T14:20:54Z</time>
      </trkpt>
      <trkpt lat="39.072192013263702" lon="-9.267140021547675">
        <ele>90.980000000000004</ele>
        <time>2025-05-04T14:20:57Z</time>
      </trkpt>
      <trkpt lat="39.072033008560538" lon="-9.267325010150671">
        <ele>90.980000000000004</ele>
        <time>2025-05-04T14:20:58Z</time>
      </trkpt>
      <trkpt lat="39.07104997895658" lon="-9.268282977864146">
        <ele>97.230000000000004</ele>
        <time>2025-05-04T14:21:05Z</time>
      </trkpt>
      <trkpt lat="39.070646977052093" lon="-9.268601993098855">
        <ele>101.56</ele>
        <time>2025-05-04T14:21:08Z</time>
      </trkpt>
      <trkpt lat="39.070499036461115" lon="-9.268682040274143">
        <ele>103</ele>
        <time>2025-05-04T14:21:09Z</time>
      </trkpt>
      <trkpt lat="39.069098001345992" lon="-9.269425012171269">
        <ele>118.86</ele>
        <time>2025-05-04T14:21:18Z</time>
      </trkpt>
      <trkpt lat="39.068772029131651" lon="-9.269668003544211">
        <ele>125.59</ele>
        <time>2025-05-04T14:21:21Z</time>
      </trkpt>
      <trkpt lat="39.068691981956363" lon="-9.269780991598964">
        <ele>127.51000000000001</ele>
        <time>2025-05-04T14:21:22Z</time>
      </trkpt>
      <trkpt lat="39.068616963922977" lon="-9.269887022674084">
        <ele>129.43000000000001</ele>
        <time>2025-05-04T14:21:23Z</time>
      </trkpt>
      <trkpt lat="39.068542029708624" lon="-9.269992969930172">
        <ele>130.88</ele>
        <time>2025-05-04T14:21:24Z</time>
      </trkpt>
      <trkpt lat="39.068498024716973" lon="-9.270134037360549">
        <ele>132.80000000000001</ele>
        <time>2025-05-04T14:21:25Z</time>
      </trkpt>
      <trkpt lat="39.068404985591769" lon="-9.270434025675058">
        <ele>136.16</ele>
        <time>2025-05-04T14:21:27Z</time>
      </trkpt>
      <trkpt lat="39.068358968943357" lon="-9.270582972094417">
        <ele>138.09</ele>
        <time>2025-05-04T14:21:28Z</time>
      </trkpt>
      <trkpt lat="39.068215973675251" lon="-9.270820012316108">
        <ele>141.93000000000001</ele>
        <time>2025-05-04T14:21:30Z</time>
      </trkpt>
      <trkpt lat="39.06814799644053" lon="-9.270925037562847">
        <ele>143.37</ele>
        <time>2025-05-04T14:21:31Z</time>
      </trkpt>
      <trkpt lat="39.068069960922003" lon="-9.271044982597232">
        <ele>145.78</ele>
        <time>2025-05-04T14:21:32Z</time>
      </trkpt>
      <trkpt lat="39.067788999527693" lon="-9.271200969815254">
        <ele>151.06</ele>
        <time>2025-05-04T14:21:35Z</time>
      </trkpt>
      <trkpt lat="39.067578027024865" lon="-9.271281016990542">
        <ele>154.43000000000001</ele>
        <time>2025-05-04T14:21:37Z</time>
      </trkpt>
      <trkpt lat="39.067371999844909" lon="-9.271324016153812">
        <ele>158.27000000000001</ele>
        <time>2025-05-04T14:21:39Z</time>
      </trkpt>
      <trkpt lat="39.067287007346749" lon="-9.271342037245631">
        <ele>159.72</ele>
        <time>2025-05-04T14:21:40Z</time>
      </trkpt>
      <trkpt lat="39.067101012915373" lon="-9.27138201892376">
        <ele>164.52000000000001</ele>
        <time>2025-05-04T14:21:43Z</time>
      </trkpt>
      <trkpt lat="39.067048039287329" lon="-9.271394005045295">
        <ele>165.47999999999999</ele>
        <time>2025-05-04T14:21:44Z</time>
      </trkpt>
      <trkpt lat="39.066976038739085" lon="-9.271410014480352">
        <ele>166.93000000000001</ele>
        <time>2025-05-04T14:21:45Z</time>
      </trkpt>
      <trkpt lat="39.066756013780832" lon="-9.271459970623255">
        <ele>173.16999999999999</ele>
        <time>2025-05-04T14:21:51Z</time>
      </trkpt>
      <trkpt lat="39.066645037382841" lon="-9.27149198949337">
        <ele>177.5</ele>
        <time>2025-05-04T14:21:55Z</time>
      </trkpt>
      <trkpt lat="39.066139021888375" lon="-9.271710002794862">
        <ele>183.27000000000001</ele>
        <time>2025-05-04T14:22:03Z</time>
      </trkpt>
      <trkpt lat="39.065786981955171" lon="-9.271852998062968">
        <ele>185.66999999999999</ele>
        <time>2025-05-04T14:22:08Z</time>
      </trkpt>
      <trkpt lat="39.065641975030303" lon="-9.271900020539761">
        <ele>186.15000000000001</ele>
        <time>2025-05-04T14:22:10Z</time>
      </trkpt>
      <trkpt lat="39.065566034987569" lon="-9.271919969469309">
        <ele>186.63</ele>
        <time>2025-05-04T14:22:11Z</time>
      </trkpt>
      <trkpt lat="39.065388003364205" lon="-9.271967997774482">
        <ele>186.15000000000001</ele>
        <time>2025-05-04T14:22:13Z</time>
      </trkpt>
      <trkpt lat="39.065284989774227" lon="-9.271958023309708">
        <ele>186.15000000000001</ele>
        <time>2025-05-04T14:22:15Z</time>
      </trkpt>
      <trkpt lat="39.065224975347519" lon="-9.271952994167805">
        <ele>186.15000000000001</ele>
        <time>2025-05-04T14:22:16Z</time>
      </trkpt>
      <trkpt lat="39.064471023157239" lon="-9.271833971142769">
        <ele>183.27000000000001</ele>
        <time>2025-05-04T14:22:24Z</time>
      </trkpt>
      <trkpt lat="39.063827963545918" lon="-9.271690975874662">
        <ele>179.41999999999999</ele>
        <time>2025-05-04T14:22:30Z</time>
      </trkpt>
      <trkpt lat="39.063716987147927" lon="-9.271670021116734">
        <ele>178.46000000000001</ele>
        <time>2025-05-04T14:22:31Z</time>
      </trkpt>
      <trkpt lat="39.063193034380674" lon="-9.271531971171498">
        <ele>175.58000000000001</ele>
        <time>2025-05-04T14:22:36Z</time>
      </trkpt>
      <trkpt lat="39.063105024397373" lon="-9.271443961188197">
        <ele>175.09999999999999</ele>
        <time>2025-05-04T14:22:37Z</time>
      </trkpt>
      <trkpt lat="39.063015002757311" lon="-9.271354023367167">
        <ele>174.13999999999999</ele>
        <time>2025-05-04T14:22:38Z</time>
      </trkpt>
      <trkpt lat="39.062825990840793" lon="-9.271180015057325">
        <ele>172.69</ele>
        <time>2025-05-04T14:22:40Z</time>
      </trkpt>
      <trkpt lat="39.062727000564337" lon="-9.271109020337462">
        <ele>171.72999999999999</ele>
        <time>2025-05-04T14:22:41Z</time>
      </trkpt>
      <trkpt lat="39.062630021944642" lon="-9.27112502977252">
        <ele>171.25</ele>
        <time>2025-05-04T14:22:42Z</time>
      </trkpt>
      <trkpt lat="39.062530025839806" lon="-9.271141961216927">
        <ele>170.28999999999999</ele>
        <time>2025-05-04T14:22:43Z</time>
      </trkpt>
      <trkpt lat="39.062428018078208" lon="-9.271158976480365">
        <ele>169.81</ele>
        <time>2025-05-04T14:22:44Z</time>
      </trkpt>
      <trkpt lat="39.062333973124623" lon="-9.271174985915422">
        <ele>168.84999999999999</ele>
        <time>2025-05-04T14:22:45Z</time>
      </trkpt>
      <trkpt lat="39.062255015596747" lon="-9.271187977865338">
        <ele>167.88999999999999</ele>
        <time>2025-05-04T14:22:46Z</time>
      </trkpt>
      <trkpt lat="39.062212016433477" lon="-9.271195018664002">
        <ele>167.41</ele>
        <time>2025-05-04T14:22:47Z</time>
      </trkpt>
      <trkpt lat="39.062084024772048" lon="-9.271122012287378">
        <ele>164.03999999999999</ele>
        <time>2025-05-04T14:22:53Z</time>
      </trkpt>
      <trkpt lat="39.062044965103269" lon="-9.271094016730785">
        <ele>161.63999999999999</ele>
        <time>2025-05-04T14:23:05Z</time>
      </trkpt>
      <trkpt lat="39.061987968161702" lon="-9.271043976768851">
        <ele>159.72</ele>
        <time>2025-05-04T14:23:51Z</time>
      </trkpt>
      <trkpt lat="39.061565017327666" lon="-9.270555982366204">
        <ele>155.87</ele>
        <time>2025-05-04T14:23:56Z</time>
      </trkpt>
      <trkpt lat="39.060924975201488" lon="-9.269712008535862">
        <ele>150.58000000000001</ele>
        <time>2025-05-04T14:24:01Z</time>
      </trkpt>
      <trkpt lat="39.060833025723696" lon="-9.269548980519176">
        <ele>149.13999999999999</ele>
        <time>2025-05-04T14:24:02Z</time>
      </trkpt>
      <trkpt lat="39.060747027397156" lon="-9.26936499774456">
        <ele>148.18000000000001</ele>
        <time>2025-05-04T14:24:03Z</time>
      </trkpt>
      <trkpt lat="39.060246963053942" lon="-9.268410969525576">
        <ele>141.93000000000001</ele>
        <time>2025-05-04T14:24:08Z</time>
      </trkpt>
      <trkpt lat="39.060140009969473" lon="-9.268296975642443">
        <ele>140.49000000000001</ele>
        <time>2025-05-04T14:24:09Z</time>
      </trkpt>
      <trkpt lat="39.060028027743101" lon="-9.268240984529257">
        <ele>139.05000000000001</ele>
        <time>2025-05-04T14:24:10Z</time>
      </trkpt>
      <trkpt lat="39.059905987232924" lon="-9.268216006457806">
        <ele>137.61000000000001</ele>
        <time>2025-05-04T14:24:11Z</time>
      </trkpt>
      <trkpt lat="39.059772966429591" lon="-9.268260011449456">
        <ele>136.16</ele>
        <time>2025-05-04T14:24:12Z</time>
      </trkpt>
      <trkpt lat="39.059635000303388" lon="-9.268306028097868">
        <ele>134.72</ele>
        <time>2025-05-04T14:24:13Z</time>
      </trkpt>
      <trkpt lat="39.059497034177184" lon="-9.268320025876164">
        <ele>132.80000000000001</ele>
        <time>2025-05-04T14:24:14Z</time>
      </trkpt>
      <trkpt lat="39.059357978403568" lon="-9.268320025876164">
        <ele>130.40000000000001</ele>
        <time>2025-05-04T14:24:15Z</time>
      </trkpt>
      <trkpt lat="39.059219006448984" lon="-9.268251964822412">
        <ele>128.47</ele>
        <time>2025-05-04T14:24:16Z</time>
      </trkpt>
      <trkpt lat="39.059069976210594" lon="-9.268179964274168">
        <ele>126.06999999999999</ele>
        <time>2025-05-04T14:24:17Z</time>
      </trkpt>
      <trkpt lat="39.058913988992572" lon="-9.268103018403053">
        <ele>124.15000000000001</ele>
        <time>2025-05-04T14:24:18Z</time>
      </trkpt>
      <trkpt lat="39.05845801346004" lon="-9.267920963466167">
        <ele>118.38</ele>
        <time>2025-05-04T14:24:21Z</time>
      </trkpt>
      <trkpt lat="39.058323986828327" lon="-9.267939990386367">
        <ele>116.45999999999999</ele>
        <time>2025-05-04T14:24:22Z</time>
      </trkpt>
      <trkpt lat="39.058205969631672" lon="-9.267965974286199">
        <ele>114.53</ele>
        <time>2025-05-04T14:24:23Z</time>
      </trkpt>
      <trkpt lat="39.058095999062061" lon="-9.268049960955977">
        <ele>113.09</ele>
        <time>2025-05-04T14:24:24Z</time>
      </trkpt>
      <trkpt lat="39.057979993522167" lon="-9.268137970939279">
        <ele>111.65000000000001</ele>
        <time>2025-05-04T14:24:25Z</time>
      </trkpt>
      <trkpt lat="39.057067036628723" lon="-9.268789999186993">
        <ele>100.11</ele>
        <time>2025-05-04T14:24:31Z</time>
      </trkpt>
      <trkpt lat="39.056880036368966" lon="-9.268877003341913">
        <ele>98.189999999999998</ele>
        <time>2025-05-04T14:24:32Z</time>
      </trkpt>
      <trkpt lat="39.056693036109209" lon="-9.268928971141577">
        <ele>96.269999999999996</ele>
        <time>2025-05-04T14:24:33Z</time>
      </trkpt>
      <trkpt lat="39.054923029616475" lon="-9.269472034648061">
        <ele>80.890000000000001</ele>
        <time>2025-05-04T14:24:43Z</time>
      </trkpt>
      <trkpt lat="39.053536998108029" lon="-9.270166978240013">
        <ele>69.349999999999994</ele>
        <time>2025-05-04T14:24:51Z</time>
      </trkpt>
      <trkpt lat="39.053363995626569" lon="-9.270210983231664">
        <ele>68.390000000000001</ele>
        <time>2025-05-04T14:24:52Z</time>
      </trkpt>
      <trkpt lat="39.052107967436314" lon="-9.270533015951514">
        <ele>61.659999999999997</ele>
        <time>2025-05-04T14:24:59Z</time>
      </trkpt>
      <trkpt lat="39.051916021853685" lon="-9.270560005679727">
        <ele>60.700000000000003</ele>
        <time>2025-05-04T14:25:00Z</time>
      </trkpt>
      <trkpt lat="39.050727970898151" lon="-9.270754968747497">
        <ele>52.530000000000001</ele>
        <time>2025-05-04T14:25:07Z</time>
      </trkpt>
      <trkpt lat="39.05052999034524" lon="-9.27080299705267">
        <ele>50.130000000000003</ele>
        <time>2025-05-04T14:25:09Z</time>
      </trkpt>
      <trkpt lat="39.050290016457438" lon="-9.270860999822617">
        <ele>45.32</ele>
        <time>2025-05-04T14:25:14Z</time>
      </trkpt>
      <trkpt lat="39.05027199536562" lon="-9.27086602896452">
        <ele>43.880000000000003</ele>
        <time>2025-05-04T14:25:25Z</time>
      </trkpt>
      <trkpt lat="39.04977603815496" lon="-9.270837027579546">
        <ele>39.07</ele>
        <time>2025-05-04T14:25:30Z</time>
      </trkpt>
      <trkpt lat="39.049382004886866" lon="-9.270768966525793">
        <ele>37.149999999999999</ele>
        <time>2025-05-04T14:25:33Z</time>
      </trkpt>
      <trkpt lat="39.049252001568675" lon="-9.270743988454342">
        <ele>37.149999999999999</ele>
        <time>2025-05-04T14:25:34Z</time>
      </trkpt>
      <trkpt lat="39.049140019342303" lon="-9.270724039524794">
        <ele>37.149999999999999</ele>
        <time>2025-05-04T14:25:35Z</time>
      </trkpt>
      <trkpt lat="39.049043962731957" lon="-9.270707024261355">
        <ele>37.149999999999999</ele>
        <time>2025-05-04T14:25:36Z</time>
      </trkpt>
      <trkpt lat="39.048972968012094" lon="-9.270710963755846">
        <ele>37.149999999999999</ele>
        <time>2025-05-04T14:25:37Z</time>
      </trkpt>
      <trkpt lat="39.048895016312599" lon="-9.270727979019284">
        <ele>37.149999999999999</ele>
        <time>2025-05-04T14:25:38Z</time>
      </trkpt>
      <trkpt lat="39.048809017986059" lon="-9.2707599978894">
        <ele>37.630000000000003</ele>
        <time>2025-05-04T14:25:39Z</time>
      </trkpt>
      <trkpt lat="39.04872503131628" lon="-9.270862005650997">
        <ele>37.630000000000003</ele>
        <time>2025-05-04T14:25:40Z</time>
      </trkpt>
      <trkpt lat="39.047939982265234" lon="-9.271614030003548">
        <ele>39.07</ele>
        <time>2025-05-04T14:25:46Z</time>
      </trkpt>
      <trkpt lat="39.046886963769794" lon="-9.272237978875637">
        <ele>43.399999999999999</ele>
        <time>2025-05-04T14:25:52Z</time>
      </trkpt>
      <trkpt lat="39.045476960018277" lon="-9.272991009056568">
        <ele>52.049999999999997</ele>
        <time>2025-05-04T14:26:00Z</time>
      </trkpt>
      <trkpt lat="39.044452020898461" lon="-9.273519990965724">
        <ele>58.780000000000001</ele>
        <time>2025-05-04T14:26:06Z</time>
      </trkpt>
      <trkpt lat="39.042756026610732" lon="-9.274290958419442">
        <ele>67.430000000000007</ele>
        <time>2025-05-04T14:26:16Z</time>
      </trkpt>
      <trkpt lat="39.042197959497571" lon="-9.274459015578032">
        <ele>68.390000000000001</ele>
        <time>2025-05-04T14:26:19Z</time>
      </trkpt>
      <trkpt lat="39.04200098477304" lon="-9.274496985599399">
        <ele>68.870000000000005</ele>
        <time>2025-05-04T14:26:20Z</time>
      </trkpt>
      <trkpt lat="39.039493035525084" lon="-9.274879032745957">
        <ele>62.619999999999997</ele>
        <time>2025-05-04T14:26:32Z</time>
      </trkpt>
      <trkpt lat="39.038329040631652" lon="-9.275064021348953">
        <ele>64.069999999999993</ele>
        <time>2025-05-04T14:26:39Z</time>
      </trkpt>
      <trkpt lat="39.037475008517504" lon="-9.275197964161634">
        <ele>68.870000000000005</ele>
        <time>2025-05-04T14:26:49Z</time>
      </trkpt>
      <trkpt lat="39.036399023607373" lon="-9.275369038805366">
        <ele>72.719999999999999</ele>
        <time>2025-05-04T14:26:59Z</time>
      </trkpt>
      <trkpt lat="39.03561900369823" lon="-9.275484038516879">
        <ele>74.640000000000001</ele>
        <time>2025-05-04T14:27:09Z</time>
      </trkpt>
      <trkpt lat="39.035270987078547" lon="-9.275565007701516">
        <ele>74.640000000000001</ele>
        <time>2025-05-04T14:27:13Z</time>
      </trkpt>
      <trkpt lat="39.035183982923627" lon="-9.275601971894503">
        <ele>74.159999999999997</ele>
        <time>2025-05-04T14:27:14Z</time>
      </trkpt>
      <trkpt lat="39.03510401956737" lon="-9.275636002421379">
        <ele>74.159999999999997</ele>
        <time>2025-05-04T14:27:15Z</time>
      </trkpt>
      <trkpt lat="39.035004023462534" lon="-9.27568000741303">
        <ele>73.200000000000003</ele>
        <time>2025-05-04T14:27:17Z</time>
      </trkpt>
      <trkpt lat="39.034878965467215" lon="-9.275862984359264">
        <ele>72.239999999999995</ele>
        <time>2025-05-04T14:27:18Z</time>
      </trkpt>
      <trkpt lat="39.034810988232493" lon="-9.275850998237729">
        <ele>71.760000000000005</ele>
        <time>2025-05-04T14:27:19Z</time>
      </trkpt>
      <trkpt lat="39.033918986096978" lon="-9.276048978790641">
        <ele>68.390000000000001</ele>
        <time>2025-05-04T14:27:26Z</time>
      </trkpt>
      <trkpt lat="39.03254896402359" lon="-9.276739982888103">
        <ele>60.219999999999999</ele>
        <time>2025-05-04T14:27:35Z</time>
      </trkpt>
      <trkpt lat="39.031508015468717" lon="-9.277096968144178">
        <ele>54.93</ele>
        <time>2025-05-04T14:27:42Z</time>
      </trkpt>
      <trkpt lat="39.02971001341939" lon="-9.277424030005932">
        <ele>48.200000000000003</ele>
        <time>2025-05-04T14:27:51Z</time>
      </trkpt>
      <trkpt lat="39.027872029691935" lon="-9.277819991111755">
        <ele>46.280000000000001</ele>
        <time>2025-05-04T14:28:01Z</time>
      </trkpt>
      <trkpt lat="39.027711013332009" lon="-9.277878999710083">
        <ele>46.280000000000001</ele>
        <time>2025-05-04T14:28:02Z</time>
      </trkpt>
      <trkpt lat="39.026584988459945" lon="-9.278494985774159">
        <ele>45.799999999999997</ele>
        <time>2025-05-04T14:28:10Z</time>
      </trkpt>
      <trkpt lat="39.025416970252991" lon="-9.279155982658267">
        <ele>46.759999999999998</ele>
        <time>2025-05-04T14:28:20Z</time>
      </trkpt>
      <trkpt lat="39.024518011137843" lon="-9.279640037566423">
        <ele>48.200000000000003</ele>
        <time>2025-05-04T14:28:32Z</time>
      </trkpt>
      <trkpt lat="39.024302009493113" lon="-9.279729975387454">
        <ele>48.200000000000003</ele>
        <time>2025-05-04T14:28:35Z</time>
      </trkpt>
      <trkpt lat="39.024048037827015" lon="-9.279733998700976">
        <ele>48.200000000000003</ele>
        <time>2025-05-04T14:28:38Z</time>
      </trkpt>
      <trkpt lat="39.023948963731527" lon="-9.279718995094299">
        <ele>48.200000000000003</ele>
        <time>2025-05-04T14:28:39Z</time>
      </trkpt>
      <trkpt lat="39.023852990940213" lon="-9.279706003144383">
        <ele>48.200000000000003</ele>
        <time>2025-05-04T14:28:40Z</time>
      </trkpt>
      <trkpt lat="39.023165004327893" lon="-9.279649006202817">
        <ele>47.240000000000002</ele>
        <time>2025-05-04T14:28:48Z</time>
      </trkpt>
      <trkpt lat="39.023086968809366" lon="-9.27965403534472">
        <ele>47.240000000000002</ele>
        <time>2025-05-04T14:28:49Z</time>
      </trkpt>
      <trkpt lat="39.022039985284209" lon="-9.279754031449556">
        <ele>45.32</ele>
        <time>2025-05-04T14:28:59Z</time>
      </trkpt>
      <trkpt lat="39.020648002624512" lon="-9.280015965923667">
        <ele>44.359999999999999</ele>
        <time>2025-05-04T14:29:10Z</time>
      </trkpt>
      <trkpt lat="39.020269978791475" lon="-9.280080003663898">
        <ele>44.840000000000003</ele>
        <time>2025-05-04T14:29:13Z</time>
      </trkpt>
      <trkpt lat="39.020140981301665" lon="-9.280033987015486">
        <ele>45.32</ele>
        <time>2025-05-04T14:29:14Z</time>
      </trkpt>
      <trkpt lat="39.020016007125378" lon="-9.279984030872583">
        <ele>45.32</ele>
        <time>2025-05-04T14:29:15Z</time>
      </trkpt>
      <trkpt lat="39.019906036555767" lon="-9.279886968433857">
        <ele>45.32</ele>
        <time>2025-05-04T14:29:16Z</time>
      </trkpt>
      <trkpt lat="39.019792964681983" lon="-9.279787978157401">
        <ele>45.32</ele>
        <time>2025-05-04T14:29:17Z</time>
      </trkpt>
      <trkpt lat="39.018529979512095" lon="-9.278716016560793">
        <ele>50.130000000000003</ele>
        <time>2025-05-04T14:29:28Z</time>
      </trkpt>
      <trkpt lat="39.017208991572261" lon="-9.277970027178526">
        <ele>52.530000000000001</ele>
        <time>2025-05-04T14:29:37Z</time>
      </trkpt>
      <trkpt lat="39.017047975212336" lon="-9.277844969183207">
        <ele>52.530000000000001</ele>
        <time>2025-05-04T14:29:38Z</time>
      </trkpt>
      <trkpt lat="39.016898022964597" lon="-9.277680013328791">
        <ele>52.530000000000001</ele>
        <time>2025-05-04T14:29:39Z</time>
      </trkpt>
      <trkpt lat="39.016767013818026" lon="-9.277480021119118">
        <ele>52.530000000000001</ele>
        <time>2025-05-04T14:29:40Z</time>
      </trkpt>
      <trkpt lat="39.016633993014693" lon="-9.27727097645402">
        <ele>53.009999999999998</ele>
        <time>2025-05-04T14:29:41Z</time>
      </trkpt>
      <trkpt lat="39.016506001353264" lon="-9.277049023658037">
        <ele>53.009999999999998</ele>
        <time>2025-05-04T14:29:42Z</time>
      </trkpt>
      <trkpt lat="39.015479972586036" lon="-9.275363003835082">
        <ele>54.450000000000003</ele>
        <time>2025-05-04T14:29:50Z</time>
      </trkpt>
      <trkpt lat="39.015348041430116" lon="-9.275228977203369">
        <ele>54.93</ele>
        <time>2025-05-04T14:29:51Z</time>
      </trkpt>
      <trkpt lat="39.015204962342978" lon="-9.275136021897197">
        <ele>54.93</ele>
        <time>2025-05-04T14:29:52Z</time>
      </trkpt>
      <trkpt lat="39.015050986781716" lon="-9.275070978328586">
        <ele>54.93</ele>
        <time>2025-05-04T14:29:53Z</time>
      </trkpt>
      <trkpt lat="39.014875972643495" lon="-9.27503602579236">
        <ele>55.409999999999997</ele>
        <time>2025-05-04T14:29:54Z</time>
      </trkpt>
      <trkpt lat="39.014703975990415" lon="-9.275024039670825">
        <ele>55.409999999999997</ele>
        <time>2025-05-04T14:29:55Z</time>
      </trkpt>
      <trkpt lat="39.013332026079297" lon="-9.274956984445453">
        <ele>54.450000000000003</ele>
        <time>2025-05-04T14:30:03Z</time>
      </trkpt>
      <trkpt lat="39.012382021173835" lon="-9.274837961420417">
        <ele>53.009999999999998</ele>
        <time>2025-05-04T14:30:12Z</time>
      </trkpt>
      <trkpt lat="39.011013004928827" lon="-9.274707958102226">
        <ele>53.009999999999998</ele>
        <time>2025-05-04T14:30:24Z</time>
      </trkpt>
      <trkpt lat="39.010886019095778" lon="-9.274730002507567">
        <ele>53.009999999999998</ele>
        <time>2025-05-04T14:30:25Z</time>
      </trkpt>
      <trkpt lat="39.01076196692884" lon="-9.274781970307231">
        <ele>53.490000000000002</ele>
        <time>2025-05-04T14:30:26Z</time>
      </trkpt>
      <trkpt lat="39.009669972583652" lon="-9.275263007730246">
        <ele>53.490000000000002</ele>
        <time>2025-05-04T14:30:36Z</time>
      </trkpt>
      <trkpt lat="39.008108004927635" lon="-9.275971027091146">
        <ele>53.969999999999999</ele>
        <time>2025-05-04T14:30:48Z</time>
      </trkpt>
      <trkpt lat="39.006839990615845" lon="-9.276237990707159">
        <ele>56.369999999999997</ele>
        <time>2025-05-04T14:30:55Z</time>
      </trkpt>
      <trkpt lat="39.004762033000588" lon="-9.276537979021668">
        <ele>60.219999999999999</ele>
        <time>2025-05-04T14:31:06Z</time>
      </trkpt>
      <trkpt lat="39.004613002762198" lon="-9.276549965143204">
        <ele>60.700000000000003</ele>
        <time>2025-05-04T14:31:07Z</time>
      </trkpt>
      <trkpt lat="39.00448702275753" lon="-9.276506965979934">
        <ele>61.18</ele>
        <time>2025-05-04T14:31:08Z</time>
      </trkpt>
      <trkpt lat="39.004365988075733" lon="-9.276465978473425">
        <ele>60.700000000000003</ele>
        <time>2025-05-04T14:31:09Z</time>
      </trkpt>
      <trkpt lat="39.003142984583974" lon="-9.276043027639389">
        <ele>61.18</ele>
        <time>2025-05-04T14:31:20Z</time>
      </trkpt>
      <trkpt lat="39.002943998202682" lon="-9.2759820073843">
        <ele>61.18</ele>
        <time>2025-05-04T14:31:22Z</time>
      </trkpt>
      <trkpt lat="39.002840984612703" lon="-9.275988964363933">
        <ele>61.659999999999997</ele>
        <time>2025-05-04T14:31:23Z</time>
      </trkpt>
      <trkpt lat="39.001442966982722" lon="-9.276099018752575">
        <ele>60.700000000000003</ele>
        <time>2025-05-04T14:31:36Z</time>
      </trkpt>
      <trkpt lat="39.000354995951056" lon="-9.276159033179283">
        <ele>63.579999999999998</ele>
        <time>2025-05-04T14:31:47Z</time>
      </trkpt>
      <trkpt lat="39.000251982361078" lon="-9.276145035400987">
        <ele>63.579999999999998</ele>
        <time>2025-05-04T14:31:48Z</time>
      </trkpt>
      <trkpt lat="39.000143017619848" lon="-9.27613103762269">
        <ele>64.069999999999993</ele>
        <time>2025-05-04T14:31:49Z</time>
      </trkpt>
      <trkpt lat="38.998692026361823" lon="-9.275948982685804">
        <ele>66.950000000000003</ele>
        <time>2025-05-04T14:32:02Z</time>
      </trkpt>
      <trkpt lat="38.998361025005579" lon="-9.275827025994659">
        <ele>67.430000000000007</ele>
        <time>2025-05-04T14:32:05Z</time>
      </trkpt>
      <trkpt lat="38.998259017243981" lon="-9.27574697881937">
        <ele>67.430000000000007</ele>
        <time>2025-05-04T14:32:06Z</time>
      </trkpt>
      <trkpt lat="38.996977005153894" lon="-9.274570997804403">
        <ele>64.069999999999993</ele>
        <time>2025-05-04T14:32:18Z</time>
      </trkpt>
      <trkpt lat="38.995778979733586" lon="-9.27359601482749">
        <ele>59.259999999999998</ele>
        <time>2025-05-04T14:32:28Z</time>
      </trkpt>
      <trkpt lat="38.995435992255807" lon="-9.273470034822822">
        <ele>58.299999999999997</ele>
        <time>2025-05-04T14:32:31Z</time>
      </trkpt>
      <trkpt lat="38.995324010029435" lon="-9.273470034822822">
        <ele>57.82</ele>
        <time>2025-05-04T14:32:32Z</time>
      </trkpt>
      <trkpt lat="38.995214039459825" lon="-9.273470034822822">
        <ele>57.340000000000003</ele>
        <time>2025-05-04T14:32:33Z</time>
      </trkpt>
      <trkpt lat="38.995117982849479" lon="-9.273495012894273">
        <ele>57.340000000000003</ele>
        <time>2025-05-04T14:32:34Z</time>
      </trkpt>
      <trkpt lat="38.995045982301235" lon="-9.273525020107627">
        <ele>57.340000000000003</ele>
        <time>2025-05-04T14:32:35Z</time>
      </trkpt>
      <trkpt lat="38.994993008673191" lon="-9.273546980693936">
        <ele>56.859999999999999</ele>
        <time>2025-05-04T14:32:36Z</time>
      </trkpt>
      <trkpt lat="38.994955038651824" lon="-9.273562990128994">
        <ele>56.859999999999999</ele>
        <time>2025-05-04T14:32:37Z</time>
      </trkpt>
      <trkpt lat="38.994426978752017" lon="-9.273786032572389">
        <ele>57.340000000000003</ele>
        <time>2025-05-04T14:32:47Z</time>
      </trkpt>
      <trkpt lat="38.993416959419847" lon="-9.274233039468527">
        <ele>62.619999999999997</ele>
        <time>2025-05-04T14:32:57Z</time>
      </trkpt>
      <trkpt lat="38.992860987782478" lon="-9.274414004758">
        <ele>66.469999999999999</ele>
        <time>2025-05-04T14:33:07Z</time>
      </trkpt>
      <trkpt lat="38.992787981405854" lon="-9.274404030293226">
        <ele>66.950000000000003</ele>
        <time>2025-05-04T14:33:08Z</time>
      </trkpt>
      <trkpt lat="38.991912994533777" lon="-9.274229016155005">
        <ele>70.310000000000002</ele>
        <time>2025-05-04T14:33:17Z</time>
      </trkpt>
      <trkpt lat="38.990991991013288" lon="-9.274016031995416">
        <ele>72.719999999999999</ele>
        <time>2025-05-04T14:33:25Z</time>
      </trkpt>
      <trkpt lat="38.990874979645014" lon="-9.273993987590075">
        <ele>72.719999999999999</ele>
        <time>2025-05-04T14:33:26Z</time>
      </trkpt>
      <trkpt lat="38.990757968276739" lon="-9.273973032832146">
        <ele>73.200000000000003</ele>
        <time>2025-05-04T14:33:27Z</time>
      </trkpt>
      <trkpt lat="38.989698998630047" lon="-9.274061964824796">
        <ele>71.269999999999996</ele>
        <time>2025-05-04T14:33:35Z</time>
      </trkpt>
      <trkpt lat="38.988335011526942" lon="-9.274251982569695">
        <ele>69.349999999999994</ele>
        <time>2025-05-04T14:33:43Z</time>
      </trkpt>
      <trkpt lat="38.987647024914622" lon="-9.274300010874867">
        <ele>68.870000000000005</ele>
        <time>2025-05-04T14:33:48Z</time>
      </trkpt>
      <trkpt lat="38.987510986626148" lon="-9.274260029196739">
        <ele>68.390000000000001</ele>
        <time>2025-05-04T14:33:49Z</time>
      </trkpt>
      <trkpt lat="38.987375032156706" lon="-9.274219963699579">
        <ele>68.390000000000001</ele>
        <time>2025-05-04T14:33:50Z</time>
      </trkpt>
      <trkpt lat="38.98613995872438" lon="-9.273621998727322">
        <ele>69.349999999999994</ele>
        <time>2025-05-04T14:33:59Z</time>
      </trkpt>
      <trkpt lat="38.985998975113034" lon="-9.273630967363715">
        <ele>69.349999999999994</ele>
        <time>2025-05-04T14:34:00Z</time>
      </trkpt>
      <trkpt lat="38.984799021854997" lon="-9.273656029254198">
        <ele>71.760000000000005</ele>
        <time>2025-05-04T14:34:09Z</time>
      </trkpt>
      <trkpt lat="38.982687033712864" lon="-9.273455031216145">
        <ele>73.200000000000003</ele>
        <time>2025-05-04T14:34:23Z</time>
      </trkpt>
      <trkpt lat="38.982563987374306" lon="-9.27338101901114">
        <ele>73.200000000000003</ele>
        <time>2025-05-04T14:34:24Z</time>
      </trkpt>
      <trkpt lat="38.982458962127566" lon="-9.273293009027839">
        <ele>73.680000000000007</ele>
        <time>2025-05-04T14:34:25Z</time>
      </trkpt>
      <trkpt lat="38.982369024306536" lon="-9.273177003487945">
        <ele>73.680000000000007</ele>
        <time>2025-05-04T14:34:26Z</time>
      </trkpt>
      <trkpt lat="38.98231403902173" lon="-9.273051023483276">
        <ele>74.159999999999997</ele>
        <time>2025-05-04T14:34:27Z</time>
      </trkpt>
      <trkpt lat="38.982265004888177" lon="-9.272901993244886">
        <ele>74.159999999999997</ele>
        <time>2025-05-04T14:34:28Z</time>
      </trkpt>
      <trkpt lat="38.98222703486681" lon="-9.272752963006496">
        <ele>74.159999999999997</ele>
        <time>2025-05-04T14:34:29Z</time>
      </trkpt>
      <trkpt lat="38.982196021825075" lon="-9.272569986060262">
        <ele>74.159999999999997</ele>
        <time>2025-05-04T14:34:30Z</time>
      </trkpt>
      <trkpt lat="38.981997035443783" lon="-9.27125402726233">
        <ele>72.719999999999999</ele>
        <time>2025-05-04T14:34:35Z</time>
      </trkpt>
      <trkpt lat="38.981745997443795" lon="-9.26949298940599">
        <ele>69.829999999999998</ele>
        <time>2025-05-04T14:34:41Z</time>
      </trkpt>
      <trkpt lat="38.981446009129286" lon="-9.267992964014411">
        <ele>69.829999999999998</ele>
        <time>2025-05-04T14:34:47Z</time>
      </trkpt>
      <trkpt lat="38.980996990576386" lon="-9.266837015748024">
        <ele>72.239999999999995</ele>
        <time>2025-05-04T14:34:53Z</time>
      </trkpt>
      <trkpt lat="38.980952985584736" lon="-9.266682034358382">
        <ele>72.719999999999999</ele>
        <time>2025-05-04T14:34:54Z</time>
      </trkpt>
      <trkpt lat="38.980919038876891" lon="-9.266523029655218">
        <ele>73.200000000000003</ele>
        <time>2025-05-04T14:34:55Z</time>
      </trkpt>
      <trkpt lat="38.980903029441833" lon="-9.266358995810151">
        <ele>73.200000000000003</ele>
        <time>2025-05-04T14:34:56Z</time>
      </trkpt>
      <trkpt lat="38.980847038328648" lon="-9.265337996184826">
        <ele>75.599999999999994</ele>
        <time>2025-05-04T14:35:04Z</time>
      </trkpt>
      <trkpt lat="38.980834968388081" lon="-9.265128029510379">
        <ele>77.519999999999996</ele>
        <time>2025-05-04T14:35:11Z</time>
      </trkpt>
      <trkpt lat="38.980834968388081" lon="-9.265128029510379">
        <ele>77.519999999999996</ele>
        <time>2025-05-04T14:35:48Z</time>
      </trkpt>
      <trkpt lat="38.980834968388081" lon="-9.265128029510379">
        <ele>77.519999999999996</ele>
        <time>2025-05-04T14:36:33Z</time>
      </trkpt>
      <trkpt lat="38.980834968388081" lon="-9.265128029510379">
        <ele>77.519999999999996</ele>
        <time>2025-05-04T14:37:24Z</time>
      </trkpt>
      <trkpt lat="38.980834968388081" lon="-9.265128029510379">
        <ele>78</ele>
        <time>2025-05-04T14:38:18Z</time>
      </trkpt>
      <trkpt lat="38.98083102889359" lon="-9.265061980113387">
        <ele>78</ele>
        <time>2025-05-04T14:39:00Z</time>
      </trkpt>
      <trkpt lat="38.980791969224811" lon="-9.26457398571074">
        <ele>77.519999999999996</ele>
        <time>2025-05-04T14:39:06Z</time>
      </trkpt>
      <trkpt lat="38.980758022516966" lon="-9.264459991827607">
        <ele>77.519999999999996</ele>
        <time>2025-05-04T14:39:07Z</time>
      </trkpt>
      <trkpt lat="38.980214037001133" lon="-9.263113019987941">
        <ele>79.930000000000007</ele>
        <time>2025-05-04T14:39:16Z</time>
      </trkpt>
      <trkpt lat="38.980055032297969" lon="-9.262736001983285">
        <ele>81.370000000000005</ele>
        <time>2025-05-04T14:39:18Z</time>
      </trkpt>
      <trkpt lat="38.979408033192158" lon="-9.261384001001716">
        <ele>86.659999999999997</ele>
        <time>2025-05-04T14:39:25Z</time>
      </trkpt>
      <trkpt lat="38.978764973580837" lon="-9.260084973648191">
        <ele>91.459999999999994</ele>
        <time>2025-05-04T14:39:34Z</time>
      </trkpt>
      <trkpt lat="38.978313021361828" lon="-9.259162964299321">
        <ele>93.870000000000005</ele>
        <time>2025-05-04T14:39:39Z</time>
      </trkpt>
      <trkpt lat="38.978238003328443" lon="-9.259009994566441">
        <ele>94.829999999999998</ele>
        <time>2025-05-04T14:39:40Z</time>
      </trkpt>
      <trkpt lat="38.978217970579863" lon="-9.258843027055264">
        <ele>95.790000000000006</ele>
        <time>2025-05-04T14:39:41Z</time>
      </trkpt>
      <trkpt lat="38.978207996115088" lon="-9.258659966289997">
        <ele>96.269999999999996</ele>
        <time>2025-05-04T14:39:42Z</time>
      </trkpt>
      <trkpt lat="38.978197015821934" lon="-9.258471038192511">
        <ele>96.75</ele>
        <time>2025-05-04T14:39:43Z</time>
      </trkpt>
      <trkpt lat="38.978097019717097" lon="-9.257387006655335">
        <ele>101.08</ele>
        <time>2025-05-04T14:39:49Z</time>
      </trkpt>
      <trkpt lat="38.978043040260673" lon="-9.257243005558848">
        <ele>101.08</ele>
        <time>2025-05-04T14:39:50Z</time>
      </trkpt>
      <trkpt lat="38.977973973378539" lon="-9.257118031382561">
        <ele>101.56</ele>
        <time>2025-05-04T14:39:51Z</time>
      </trkpt>
      <trkpt lat="38.977878000587225" lon="-9.257008982822299">
        <ele>101.56</ele>
        <time>2025-05-04T14:39:52Z</time>
      </trkpt>
      <trkpt lat="38.977761995047331" lon="-9.256947040557861">
        <ele>101.56</ele>
        <time>2025-05-04T14:39:53Z</time>
      </trkpt>
      <trkpt lat="38.977634003385901" lon="-9.256892977282405">
        <ele>102.04000000000001</ele>
        <time>2025-05-04T14:39:54Z</time>
      </trkpt>
      <trkpt lat="38.97750198841095" lon="-9.256875040009618">
        <ele>102.52</ele>
        <time>2025-05-04T14:39:55Z</time>
      </trkpt>
      <trkpt lat="38.977367961779237" lon="-9.256904041394591">
        <ele>103</ele>
        <time>2025-05-04T14:39:56Z</time>
      </trkpt>
      <trkpt lat="38.977249022573233" lon="-9.256978975608945">
        <ele>103.48</ele>
        <time>2025-05-04T14:39:57Z</time>
      </trkpt>
      <trkpt lat="38.977145003154874" lon="-9.257100010290742">
        <ele>103.95999999999999</ele>
        <time>2025-05-04T14:39:58Z</time>
      </trkpt>
      <trkpt lat="38.977062022313476" lon="-9.257239988073707">
        <ele>104.92</ele>
        <time>2025-05-04T14:39:59Z</time>
      </trkpt>
      <trkpt lat="38.976975018158555" lon="-9.257399998605251">
        <ele>105.40000000000001</ele>
        <time>2025-05-04T14:40:00Z</time>
      </trkpt>
      <trkpt lat="38.97692103870213" lon="-9.257575012743473">
        <ele>106.84</ele>
        <time>2025-05-04T14:40:01Z</time>
      </trkpt>
      <trkpt lat="38.976775025948882" lon="-9.258053032681346">
        <ele>109.73</ele>
        <time>2025-05-04T14:40:04Z</time>
      </trkpt>
      <trkpt lat="38.976733032613993" lon="-9.25816803239286">
        <ele>111.17</ele>
        <time>2025-05-04T14:40:05Z</time>
      </trkpt>
      <trkpt lat="38.976656002923846" lon="-9.25827699713409">
        <ele>112.13</ele>
        <time>2025-05-04T14:40:06Z</time>
      </trkpt>
      <trkpt lat="38.976570004597306" lon="-9.258376993238926">
        <ele>113.09</ele>
        <time>2025-05-04T14:40:07Z</time>
      </trkpt>
      <trkpt lat="38.976452993229032" lon="-9.258442036807537">
        <ele>113.56999999999999</ele>
        <time>2025-05-04T14:40:08Z</time>
      </trkpt>
      <trkpt lat="38.976326007395983" lon="-9.258496016263962">
        <ele>114.53</ele>
        <time>2025-05-04T14:40:09Z</time>
      </trkpt>
      <trkpt lat="38.976190974935889" lon="-9.258541027083993">
        <ele>115.01000000000001</ele>
        <time>2025-05-04T14:40:10Z</time>
      </trkpt>
      <trkpt lat="38.976053008809686" lon="-9.258574973791838">
        <ele>115.5</ele>
        <time>2025-05-04T14:40:11Z</time>
      </trkpt>
      <trkpt lat="38.975915964692831" lon="-9.258557036519051">
        <ele>116.45999999999999</ele>
        <time>2025-05-04T14:40:12Z</time>
      </trkpt>
      <trkpt lat="38.97578596137464" lon="-9.258510014042258">
        <ele>116.94</ele>
        <time>2025-05-04T14:40:13Z</time>
      </trkpt>
      <trkpt lat="38.97565696388483" lon="-9.258459974080324">
        <ele>117.90000000000001</ele>
        <time>2025-05-04T14:40:14Z</time>
      </trkpt>
      <trkpt lat="38.975531989708543" lon="-9.258413035422564">
        <ele>118.38</ele>
        <time>2025-05-04T14:40:15Z</time>
      </trkpt>
      <trkpt lat="38.975416989997029" lon="-9.258354026824236">
        <ele>118.86</ele>
        <time>2025-05-04T14:40:16Z</time>
      </trkpt>
      <trkpt lat="38.975319005548954" lon="-9.258267022669315">
        <ele>119.81999999999999</ele>
        <time>2025-05-04T14:40:17Z</time>
      </trkpt>
      <trkpt lat="38.975227978080511" lon="-9.258174989372492">
        <ele>120.3</ele>
        <time>2025-05-04T14:40:18Z</time>
      </trkpt>
      <trkpt lat="38.974802009761333" lon="-9.257756983861327">
        <ele>123.67</ele>
        <time>2025-05-04T14:40:23Z</time>
      </trkpt>
      <trkpt lat="38.974176971241832" lon="-9.257205035537481">
        <ele>126.06999999999999</ele>
        <time>2025-05-04T14:40:30Z</time>
      </trkpt>
      <trkpt lat="38.974065994843841" lon="-9.25713898614049">
        <ele>126.06999999999999</ele>
        <time>2025-05-04T14:40:31Z</time>
      </trkpt>
      <trkpt lat="38.972862018272281" lon="-9.25651797093451">
        <ele>127.98999999999999</ele>
        <time>2025-05-04T14:40:41Z</time>
      </trkpt>
      <trkpt lat="38.972717011347413" lon="-9.256531968712807">
        <ele>128.94999999999999</ele>
        <time>2025-05-04T14:40:42Z</time>
      </trkpt>
      <trkpt lat="38.972584996372461" lon="-9.256568010896444">
        <ele>129.91999999999999</ele>
        <time>2025-05-04T14:40:43Z</time>
      </trkpt>
      <trkpt lat="38.97245298139751" lon="-9.256627019494772">
        <ele>130.88</ele>
        <time>2025-05-04T14:40:44Z</time>
      </trkpt>
      <trkpt lat="38.972328007221222" lon="-9.256683010607958">
        <ele>131.84</ele>
        <time>2025-05-04T14:40:45Z</time>
      </trkpt>
      <trkpt lat="38.971350006759167" lon="-9.257177039980888">
        <ele>135.68000000000001</ele>
        <time>2025-05-04T14:40:54Z</time>
      </trkpt>
      <trkpt lat="38.970708036795259" lon="-9.257469987496734">
        <ele>138.56999999999999</ele>
        <time>2025-05-04T14:41:00Z</time>
      </trkpt>
      <trkpt lat="38.970602005720139" lon="-9.257543999701738">
        <ele>139.05000000000001</ele>
        <time>2025-05-04T14:41:01Z</time>
      </trkpt>
      <trkpt lat="38.97051801905036" lon="-9.25765497609973">
        <ele>139.53</ele>
        <time>2025-05-04T14:41:02Z</time>
      </trkpt>
      <trkpt lat="38.970460016280413" lon="-9.257803000509739">
        <ele>140.00999999999999</ele>
        <time>2025-05-04T14:41:03Z</time>
      </trkpt>
      <trkpt lat="38.970419028773904" lon="-9.257964016869664">
        <ele>140.49000000000001</ele>
        <time>2025-05-04T14:41:04Z</time>
      </trkpt>
      <trkpt lat="38.970434032380581" lon="-9.258111035451293">
        <ele>140.97</ele>
        <time>2025-05-04T14:41:05Z</time>
      </trkpt>
      <trkpt lat="38.970450041815639" lon="-9.258265011012554">
        <ele>141.93000000000001</ele>
        <time>2025-05-04T14:41:06Z</time>
      </trkpt>
      <trkpt lat="38.970467979088426" lon="-9.258418986573815">
        <ele>142.41</ele>
        <time>2025-05-04T14:41:07Z</time>
      </trkpt>
      <trkpt lat="38.970477031543851" lon="-9.258564999327064">
        <ele>143.37</ele>
        <time>2025-05-04T14:41:08Z</time>
      </trkpt>
      <trkpt lat="38.970460016280413" lon="-9.258720986545086">
        <ele>143.84999999999999</ele>
        <time>2025-05-04T14:41:09Z</time>
      </trkpt>
      <trkpt lat="38.970349039882421" lon="-9.259488014504314">
        <ele>147.22</ele>
        <time>2025-05-04T14:41:14Z</time>
      </trkpt>
      <trkpt lat="38.970300005748868" lon="-9.259633021429181">
        <ele>147.69999999999999</ele>
        <time>2025-05-04T14:41:15Z</time>
      </trkpt>
      <trkpt lat="38.970248037949204" lon="-9.259774005040526">
        <ele>147.69999999999999</ele>
        <time>2025-05-04T14:41:16Z</time>
      </trkpt>
      <trkpt lat="38.970187017694116" lon="-9.259906020015478">
        <ele>148.18000000000001</ele>
        <time>2025-05-04T14:41:17Z</time>
      </trkpt>
      <trkpt lat="38.970114011317492" lon="-9.260035017505288">
        <ele>148.18000000000001</ele>
        <time>2025-05-04T14:41:18Z</time>
      </trkpt>
      <trkpt lat="38.970044022426009" lon="-9.260153034701943">
        <ele>147.69999999999999</ele>
        <time>2025-05-04T14:41:19Z</time>
      </trkpt>
      <trkpt lat="38.969955006614327" lon="-9.260259987786412">
        <ele>147.22</ele>
        <time>2025-05-04T14:41:20Z</time>
      </trkpt>
      <trkpt lat="38.969006007537246" lon="-9.261296996846795">
        <ele>144.81999999999999</ele>
        <time>2025-05-04T14:41:30Z</time>
      </trkpt>
      <trkpt lat="38.968824036419392" lon="-9.261581981554627">
        <ele>144.34</ele>
        <time>2025-05-04T14:41:32Z</time>
      </trkpt>
      <trkpt lat="38.96873602643609" lon="-9.261750038713217">
        <ele>144.81999999999999</ele>
        <time>2025-05-04T14:41:33Z</time>
      </trkpt>
      <trkpt lat="38.968655979260802" lon="-9.261916000396013">
        <ele>145.30000000000001</ele>
        <time>2025-05-04T14:41:34Z</time>
      </trkpt>
      <trkpt lat="38.96852002479136" lon="-9.262248007580638">
        <ele>146.74000000000001</ele>
        <time>2025-05-04T14:41:36Z</time>
      </trkpt>
      <trkpt lat="38.968430003151298" lon="-9.26238396205008">
        <ele>147.22</ele>
        <time>2025-05-04T14:41:37Z</time>
      </trkpt>
      <trkpt lat="38.968329001218081" lon="-9.262478007003665">
        <ele>147.69999999999999</ele>
        <time>2025-05-04T14:41:38Z</time>
      </trkpt>
      <trkpt lat="38.968222970142961" lon="-9.26257599145174">
        <ele>148.18000000000001</ele>
        <time>2025-05-04T14:41:39Z</time>
      </trkpt>
      <trkpt lat="38.968091960996389" lon="-9.262631982564926">
        <ele>148.66</ele>
        <time>2025-05-04T14:41:40Z</time>
      </trkpt>
      <trkpt lat="38.967951983213425" lon="-9.26266198977828">
        <ele>149.13999999999999</ele>
        <time>2025-05-04T14:41:41Z</time>
      </trkpt>
      <trkpt lat="38.967803958803415" lon="-9.262679005041719">
        <ele>149.62</ele>
        <time>2025-05-04T14:41:42Z</time>
      </trkpt>
      <trkpt lat="38.967650989070535" lon="-9.262685040012002">
        <ele>150.09999999999999</ele>
        <time>2025-05-04T14:41:43Z</time>
      </trkpt>
      <trkpt lat="38.966066977009177" lon="-9.262712029740214">
        <ele>152.50999999999999</ele>
        <time>2025-05-04T14:41:52Z</time>
      </trkpt>
      <trkpt lat="38.965870002284646" lon="-9.262716975063086">
        <ele>152.50999999999999</ele>
        <time>2025-05-04T14:41:53Z</time>
      </trkpt>
      <trkpt lat="38.964745989069343" lon="-9.262413969263434">
        <ele>154.91</ele>
        <time>2025-05-04T14:41:59Z</time>
      </trkpt>
      <trkpt lat="38.963382001966238" lon="-9.261305965483189">
        <ele>160.19999999999999</ele>
        <time>2025-05-04T14:42:07Z</time>
      </trkpt>
      <trkpt lat="38.962510032579303" lon="-9.260599035769701">
        <ele>166.44999999999999</ele>
        <time>2025-05-04T14:42:12Z</time>
      </trkpt>
      <trkpt lat="38.962311968207359" lon="-9.260513037443161">
        <ele>167.41</ele>
        <time>2025-05-04T14:42:13Z</time>
      </trkpt>
      <trkpt lat="38.962099989876151" lon="-9.260433996096253">
        <ele>168.84999999999999</ele>
        <time>2025-05-04T14:42:14Z</time>
      </trkpt>
      <trkpt lat="38.961892034858465" lon="-9.260358978062868">
        <ele>169.81</ele>
        <time>2025-05-04T14:42:15Z</time>
      </trkpt>
      <trkpt lat="38.961682990193367" lon="-9.260347997769713">
        <ele>170.77000000000001</ele>
        <time>2025-05-04T14:42:16Z</time>
      </trkpt>
      <trkpt lat="38.961485009640455" lon="-9.260337017476559">
        <ele>172.21000000000001</ele>
        <time>2025-05-04T14:42:17Z</time>
      </trkpt>
      <trkpt lat="38.960226969793439" lon="-9.260120010003448">
        <ele>180.87</ele>
        <time>2025-05-04T14:42:24Z</time>
      </trkpt>
      <trkpt lat="38.960070982575417" lon="-9.260052032768726">
        <ele>181.83000000000001</ele>
        <time>2025-05-04T14:42:25Z</time>
      </trkpt>
      <trkpt lat="38.958886032924056" lon="-9.259213004261255">
        <ele>185.66999999999999</ele>
        <time>2025-05-04T14:42:33Z</time>
      </trkpt>
      <trkpt lat="38.957721032202244" lon="-9.258740013465285">
        <ele>183.27000000000001</ele>
        <time>2025-05-04T14:42:41Z</time>
      </trkpt>
      <trkpt lat="38.956514960154891" lon="-9.258755017071962">
        <ele>180.87</ele>
        <time>2025-05-04T14:42:48Z</time>
      </trkpt>
      <trkpt lat="38.956327037885785" lon="-9.258807990700007">
        <ele>180.38</ele>
        <time>2025-05-04T14:42:49Z</time>
      </trkpt>
      <trkpt lat="38.956142971292138" lon="-9.258901029825211">
        <ele>180.38</ele>
        <time>2025-05-04T14:42:50Z</time>
      </trkpt>
      <trkpt lat="38.955972986295819" lon="-9.259027009829879">
        <ele>180.38</ele>
        <time>2025-05-04T14:42:51Z</time>
      </trkpt>
      <trkpt lat="38.954667001962662" lon="-9.260054966434836">
        <ele>184.22999999999999</ele>
        <time>2025-05-04T14:42:59Z</time>
      </trkpt>
      <trkpt lat="38.954481007531285" lon="-9.260108023881912">
        <ele>184.22999999999999</ele>
        <time>2025-05-04T14:43:00Z</time>
      </trkpt>
      <trkpt lat="38.954293001443148" lon="-9.260156974196434">
        <ele>183.75</ele>
        <time>2025-05-04T14:43:01Z</time>
      </trkpt>
      <trkpt lat="38.953258004039526" lon="-9.260411029681563">
        <ele>183.75</ele>
        <time>2025-05-04T14:43:07Z</time>
      </trkpt>
      <trkpt lat="38.953105034306645" lon="-9.260441036894918">
        <ele>183.75</ele>
        <time>2025-05-04T14:43:08Z</time>
      </trkpt>
      <trkpt lat="38.952947035431862" lon="-9.260408012196422">
        <ele>183.27000000000001</ele>
        <time>2025-05-04T14:43:09Z</time>
      </trkpt>
      <trkpt lat="38.952785013243556" lon="-9.260366018861532">
        <ele>183.27000000000001</ele>
        <time>2025-05-04T14:43:10Z</time>
      </trkpt>
      <trkpt lat="38.952618967741728" lon="-9.260300975292921">
        <ele>183.27000000000001</ele>
        <time>2025-05-04T14:43:11Z</time>
      </trkpt>
      <trkpt lat="38.952445965260267" lon="-9.260234003886581">
        <ele>182.78999999999999</ele>
        <time>2025-05-04T14:43:12Z</time>
      </trkpt>
      <trkpt lat="38.950719963759184" lon="-9.259469993412495">
        <ele>181.83000000000001</ele>
        <time>2025-05-04T14:43:22Z</time>
      </trkpt>
      <trkpt lat="38.950548972934484" lon="-9.259434035047889">
        <ele>181.83000000000001</ele>
        <time>2025-05-04T14:43:23Z</time>
      </trkpt>
      <trkpt lat="38.950370019301772" lon="-9.259414002299309">
        <ele>182.31</ele>
        <time>2025-05-04T14:43:24Z</time>
      </trkpt>
      <trkpt lat="38.949541971087456" lon="-9.259305959567428">
        <ele>183.27000000000001</ele>
        <time>2025-05-04T14:43:29Z</time>
      </trkpt>
      <trkpt lat="38.94940098747611" lon="-9.259260026738048">
        <ele>183.75</ele>
        <time>2025-05-04T14:43:30Z</time>
      </trkpt>
      <trkpt lat="38.949282970279455" lon="-9.259152989834547">
        <ele>184.71000000000001</ele>
        <time>2025-05-04T14:43:31Z</time>
      </trkpt>
      <trkpt lat="38.949181968346238" lon="-9.259036984294653">
        <ele>185.19</ele>
        <time>2025-05-04T14:43:32Z</time>
      </trkpt>
      <trkpt lat="38.949090018868446" lon="-9.258880997076631">
        <ele>186.15000000000001</ele>
        <time>2025-05-04T14:43:33Z</time>
      </trkpt>
      <trkpt lat="38.948992034420371" lon="-9.258716963231564">
        <ele>187.11000000000001</ele>
        <time>2025-05-04T14:43:34Z</time>
      </trkpt>
      <trkpt lat="38.948889020830393" lon="-9.258543038740754">
        <ele>187.59</ele>
        <time>2025-05-04T14:43:35Z</time>
      </trkpt>
      <trkpt lat="38.948039012029767" lon="-9.256948968395591">
        <ele>193.84</ele>
        <time>2025-05-04T14:43:42Z</time>
      </trkpt>
      <trkpt lat="38.947860980406404" lon="-9.256507996469736">
        <ele>195.28</ele>
        <time>2025-05-04T14:43:44Z</time>
      </trkpt>
      <trkpt lat="38.947803983464837" lon="-9.256282020360231">
        <ele>195.77000000000001</ele>
        <time>2025-05-04T14:43:45Z</time>
      </trkpt>
      <trkpt lat="38.947575995698571" lon="-9.254209008067846">
        <ele>200.09</ele>
        <time>2025-05-04T14:43:54Z</time>
      </trkpt>
      <trkpt lat="38.947653025388718" lon="-9.253518003970385">
        <ele>202.97999999999999</ele>
        <time>2025-05-04T14:43:57Z</time>
      </trkpt>
      <trkpt lat="38.947707004845142" lon="-9.253267971798778">
        <ele>203.94</ele>
        <time>2025-05-04T14:43:58Z</time>
      </trkpt>
      <trkpt lat="38.948176978155971" lon="-9.251782028004527">
        <ele>207.30000000000001</ele>
        <time>2025-05-04T14:44:04Z</time>
      </trkpt>
      <trkpt lat="38.948224000632763" lon="-9.251576000824571">
        <ele>207.78</ele>
        <time>2025-05-04T14:44:05Z</time>
      </trkpt>
      <trkpt lat="38.948264988139272" lon="-9.251377014443278">
        <ele>207.78</ele>
        <time>2025-05-04T14:44:06Z</time>
      </trkpt>
      <trkpt lat="38.948272028937936" lon="-9.251175010576844">
        <ele>208.25999999999999</ele>
        <time>2025-05-04T14:44:07Z</time>
      </trkpt>
      <trkpt lat="38.948272028937936" lon="-9.250981975346804">
        <ele>209.22</ele>
        <time>2025-05-04T14:44:08Z</time>
      </trkpt>
      <trkpt lat="38.948237998411059" lon="-9.250797992572188">
        <ele>209.69999999999999</ele>
        <time>2025-05-04T14:44:09Z</time>
      </trkpt>
      <trkpt lat="38.948204973712564" lon="-9.250611998140812">
        <ele>210.19</ele>
        <time>2025-05-04T14:44:10Z</time>
      </trkpt>
      <trkpt lat="38.948158035054803" lon="-9.250449975952506">
        <ele>211.15000000000001</ele>
        <time>2025-05-04T14:44:11Z</time>
      </trkpt>
      <trkpt lat="38.948086034506559" lon="-9.250290971249342">
        <ele>212.11000000000001</ele>
        <time>2025-05-04T14:44:12Z</time>
      </trkpt>
      <trkpt lat="38.948013028129935" lon="-9.250132972374558">
        <ele>212.59</ele>
        <time>2025-05-04T14:44:13Z</time>
      </trkpt>
      <trkpt lat="38.947949996218085" lon="-9.249995006248355">
        <ele>213.55000000000001</ele>
        <time>2025-05-04T14:44:14Z</time>
      </trkpt>
      <trkpt lat="38.947607008740306" lon="-9.249629974365234">
        <ele>215.47</ele>
        <time>2025-05-04T14:44:17Z</time>
      </trkpt>
      <trkpt lat="38.946680976077914" lon="-9.249011976644397">
        <ele>223.16</ele>
        <time>2025-05-04T14:44:24Z</time>
      </trkpt>
      <trkpt lat="38.946145037189126" lon="-9.248922038823366">
        <ele>226.53</ele>
        <time>2025-05-04T14:44:28Z</time>
      </trkpt>
      <trkpt lat="38.946013022214174" lon="-9.248927989974618">
        <ele>227.49000000000001</ele>
        <time>2025-05-04T14:44:29Z</time>
      </trkpt>
      <trkpt lat="38.945222022011876" lon="-9.249250022694469">
        <ele>232.30000000000001</ele>
        <time>2025-05-04T14:44:35Z</time>
      </trkpt>
      <trkpt lat="38.94420001655817" lon="-9.249914959073067">
        <ele>240.47</ele>
        <time>2025-05-04T14:44:44Z</time>
      </trkpt>
      <trkpt lat="38.943926012143493" lon="-9.250013027340174">
        <ele>243.34999999999999</ele>
        <time>2025-05-04T14:44:47Z</time>
      </trkpt>
      <trkpt lat="38.943844037130475" lon="-9.250038005411625">
        <ele>244.31</ele>
        <time>2025-05-04T14:44:48Z</time>
      </trkpt>
      <trkpt lat="38.943762984126806" lon="-9.250061977654696">
        <ele>244.78999999999999</ele>
        <time>2025-05-04T14:44:49Z</time>
      </trkpt>
      <trkpt lat="38.943657958880067" lon="-9.250294994562864">
        <ele>245.75</ele>
        <time>2025-05-04T14:44:50Z</time>
      </trkpt>
      <trkpt lat="38.943631974980235" lon="-9.250311003997922">
        <ele>246.72</ele>
        <time>2025-05-04T14:44:51Z</time>
      </trkpt>
      <trkpt lat="38.943542959168553" lon="-9.250360960140824">
        <ele>247.68000000000001</ele>
        <time>2025-05-04T14:44:52Z</time>
      </trkpt>
      <trkpt lat="38.943442963063717" lon="-9.250380992889404">
        <ele>248.63999999999999</ele>
        <time>2025-05-04T14:44:53Z</time>
      </trkpt>
      <trkpt lat="38.943337015807629" lon="-9.250369006767869">
        <ele>249.12</ele>
        <time>2025-05-04T14:44:54Z</time>
      </trkpt>
      <trkpt lat="38.943222016096115" lon="-9.250355008989573">
        <ele>249.59999999999999</ele>
        <time>2025-05-04T14:44:55Z</time>
      </trkpt>
      <trkpt lat="38.943079020828009" lon="-9.250337993726134">
        <ele>250.08000000000001</ele>
        <time>2025-05-04T14:44:56Z</time>
      </trkpt>
      <trkpt lat="38.942980030551553" lon="-9.250383004546166">
        <ele>250.08000000000001</ele>
        <time>2025-05-04T14:44:57Z</time>
      </trkpt>
      <trkpt lat="38.94286603666842" lon="-9.250445030629635">
        <ele>250.56</ele>
        <time>2025-05-04T14:44:58Z</time>
      </trkpt>
      <trkpt lat="38.942743996158242" lon="-9.250505967065692">
        <ele>250.56</ele>
        <time>2025-05-04T14:44:59Z</time>
      </trkpt>
      <trkpt lat="38.941700030118227" lon="-9.250846020877361">
        <ele>248.63999999999999</ele>
        <time>2025-05-04T14:45:08Z</time>
      </trkpt>
      <trkpt lat="38.940739966928959" lon="-9.251041989773512">
        <ele>247.19999999999999</ele>
        <time>2025-05-04T14:45:18Z</time>
      </trkpt>
      <trkpt lat="38.940594960004091" lon="-9.251064034178853">
        <ele>246.72</ele>
        <time>2025-05-04T14:45:22Z</time>
      </trkpt>
      <trkpt lat="38.940482977777719" lon="-9.251238964498043">
        <ele>246.22999999999999</ele>
        <time>2025-05-04T14:45:24Z</time>
      </trkpt>
      <trkpt lat="38.940409971401095" lon="-9.251238964498043">
        <ele>246.22999999999999</ele>
        <time>2025-05-04T14:45:25Z</time>
      </trkpt>
      <trkpt lat="38.94037501886487" lon="-9.251238964498043">
        <ele>246.22999999999999</ele>
        <time>2025-05-04T14:45:26Z</time>
      </trkpt>
      <trkpt lat="38.94013898447156" lon="-9.251175010576844">
        <ele>246.72</ele>
        <time>2025-05-04T14:45:28Z</time>
      </trkpt>
      <trkpt lat="38.939117984846234" lon="-9.251392018049955">
        <ele>246.72</ele>
        <time>2025-05-04T14:45:38Z</time>
      </trkpt>
      <trkpt lat="38.938447013497353" lon="-9.251525960862637">
        <ele>246.22999999999999</ele>
        <time>2025-05-04T14:45:44Z</time>
      </trkpt>
      <trkpt lat="38.938207039609551" lon="-9.251609025523067">
        <ele>246.22999999999999</ele>
        <time>2025-05-04T14:45:46Z</time>
      </trkpt>
      <trkpt lat="38.938086004927754" lon="-9.251651018857956">
        <ele>246.22999999999999</ele>
        <time>2025-05-04T14:45:47Z</time>
      </trkpt>
      <trkpt lat="38.937026029452682" lon="-9.252288965508342">
        <ele>245.27000000000001</ele>
        <time>2025-05-04T14:45:57Z</time>
      </trkpt>
      <trkpt lat="38.935946021229029" lon="-9.252976030111313">
        <ele>244.78999999999999</ele>
        <time>2025-05-04T14:46:07Z</time>
      </trkpt>
      <trkpt lat="38.935195002704859" lon="-9.253433011472225">
        <ele>242.87</ele>
        <time>2025-05-04T14:46:14Z</time>
      </trkpt>
      <trkpt lat="38.935031974688172" lon="-9.25367902033031">
        <ele>241.91</ele>
        <time>2025-05-04T14:46:16Z</time>
      </trkpt>
      <trkpt lat="38.934932984411716" lon="-9.253773987293243">
        <ele>240.47</ele>
        <time>2025-05-04T14:46:17Z</time>
      </trkpt>
      <trkpt lat="38.934482038021088" lon="-9.254202973097563">
        <ele>236.13999999999999</ele>
        <time>2025-05-04T14:46:22Z</time>
      </trkpt>
      <trkpt lat="38.934135027229786" lon="-9.254607986658812">
        <ele>233.25999999999999</ele>
        <time>2025-05-04T14:46:27Z</time>
      </trkpt>
      <trkpt lat="38.933707969263196" lon="-9.255223972722888">
        <ele>230.84999999999999</ele>
        <time>2025-05-04T14:46:35Z</time>
      </trkpt>
      <trkpt lat="38.933081002905965" lon="-9.256195016205311">
        <ele>231.33000000000001</ele>
        <time>2025-05-04T14:46:44Z</time>
      </trkpt>
      <trkpt lat="38.932498963549733" lon="-9.257059022784233">
        <ele>237.58000000000001</ele>
        <time>2025-05-04T14:46:53Z</time>
      </trkpt>
      <trkpt lat="38.932368960231543" lon="-9.257259014993906">
        <ele>239.50999999999999</ele>
        <time>2025-05-04T14:46:55Z</time>
      </trkpt>
      <trkpt lat="38.932307017967105" lon="-9.25735498778522">
        <ele>239.99000000000001</ele>
        <time>2025-05-04T14:46:56Z</time>
      </trkpt>
      <trkpt lat="38.931972999125719" lon="-9.258157974109054">
        <ele>242.38999999999999</ele>
        <time>2025-05-04T14:47:05Z</time>
      </trkpt>
      <trkpt lat="38.93193201161921" lon="-9.258328964933753">
        <ele>242.38999999999999</ele>
        <time>2025-05-04T14:47:07Z</time>
      </trkpt>
      <trkpt lat="38.931913990527391" lon="-9.258404988795519">
        <ele>242.38999999999999</ele>
        <time>2025-05-04T14:47:08Z</time>
      </trkpt>
      <trkpt lat="38.931895969435573" lon="-9.258482018485665">
        <ele>242.38999999999999</ele>
        <time>2025-05-04T14:47:09Z</time>
      </trkpt>
      <trkpt lat="38.931878032162786" lon="-9.25855603069067">
        <ele>242.87</ele>
        <time>2025-05-04T14:47:10Z</time>
      </trkpt>
      <trkpt lat="38.931895969435573" lon="-9.25864202901721">
        <ele>242.87</ele>
        <time>2025-05-04T14:47:11Z</time>
      </trkpt>
      <trkpt lat="38.93191197887063" lon="-9.258715035393834">
        <ele>243.34999999999999</ele>
        <time>2025-05-04T14:47:12Z</time>
      </trkpt>
      <trkpt lat="38.931928994134068" lon="-9.25879399292171">
        <ele>243.34999999999999</ele>
        <time>2025-05-04T14:47:13Z</time>
      </trkpt>
      <trkpt lat="38.931941986083984" lon="-9.25885702483356">
        <ele>243.83000000000001</ele>
        <time>2025-05-04T14:47:14Z</time>
      </trkpt>
      <trkpt lat="38.932002000510693" lon="-9.258917039260268">
        <ele>243.83000000000001</ele>
        <time>2025-05-04T14:47:15Z</time>
      </trkpt>
      <trkpt lat="38.932048017159104" lon="-9.258962972089648">
        <ele>243.83000000000001</ele>
        <time>2025-05-04T14:47:16Z</time>
      </trkpt>
      <trkpt lat="38.932090010493994" lon="-9.259003959596157">
        <ele>243.83000000000001</ele>
        <time>2025-05-04T14:47:17Z</time>
      </trkpt>
      <trkpt lat="38.932129992172122" lon="-9.259130023419857">
        <ele>244.31</ele>
        <time>2025-05-04T14:47:18Z</time>
      </trkpt>
      <trkpt lat="38.932124963030219" lon="-9.259214010089636">
        <ele>244.78999999999999</ele>
        <time>2025-05-04T14:47:19Z</time>
      </trkpt>
      <trkpt lat="38.932119011878967" lon="-9.259305037558079">
        <ele>244.78999999999999</ele>
        <time>2025-05-04T14:47:20Z</time>
      </trkpt>
      <trkpt lat="38.932112976908684" lon="-9.259401010349393">
        <ele>244.78999999999999</ele>
        <time>2025-05-04T14:47:21Z</time>
      </trkpt>
      <trkpt lat="38.932099984958768" lon="-9.259594967588782">
        <ele>244.31</ele>
        <time>2025-05-04T14:47:23Z</time>
      </trkpt>
      <trkpt lat="38.932095961645246" lon="-9.259665962308645">
        <ele>244.31</ele>
        <time>2025-05-04T14:47:24Z</time>
      </trkpt>
      <trkpt lat="38.932093027979136" lon="-9.259714996442199">
        <ele>243.83000000000001</ele>
        <time>2025-05-04T14:47:25Z</time>
      </trkpt>
      <trkpt lat="38.932093027979136" lon="-9.259714996442199">
        <ele>243.83000000000001</ele>
        <time>2025-05-04T14:47:26Z</time>
      </trkpt>
      <trkpt lat="38.932003006339073" lon="-9.259670991450548">
        <ele>243.83000000000001</ele>
        <time>2025-05-04T14:47:27Z</time>
      </trkpt>
      <trkpt lat="38.931921031326056" lon="-9.259628998115659">
        <ele>243.34999999999999</ele>
        <time>2025-05-04T14:47:28Z</time>
      </trkpt>
      <trkpt lat="38.931883983314037" lon="-9.259589016437531">
        <ele>243.34999999999999</ele>
        <time>2025-05-04T14:47:29Z</time>
      </trkpt>
      <trkpt lat="38.931820029392838" lon="-9.259520033374429">
        <ele>243.34999999999999</ele>
        <time>2025-05-04T14:47:30Z</time>
      </trkpt>
      <trkpt lat="38.931754985824227" lon="-9.259448032826185">
        <ele>243.34999999999999</ele>
        <time>2025-05-04T14:47:31Z</time>
      </trkpt>
      <trkpt lat="38.931486010551453" lon="-9.259156007319689">
        <ele>244.31</ele>
        <time>2025-05-04T14:47:35Z</time>
      </trkpt>
      <trkpt lat="38.931147968396544" lon="-9.258909998461604">
        <ele>247.68000000000001</ele>
        <time>2025-05-04T14:47:42Z</time>
      </trkpt>
      <trkpt lat="38.931141011416912" lon="-9.25892299041152">
        <ele>248.16</ele>
        <time>2025-05-04T14:47:43Z</time>
      </trkpt>
      <trkpt lat="38.931127013638616" lon="-9.258946040645242">
        <ele>248.16</ele>
        <time>2025-05-04T14:47:44Z</time>
      </trkpt>
      <trkpt lat="38.931104969233274" lon="-9.25898602232337">
        <ele>248.63999999999999</ele>
        <time>2025-05-04T14:47:45Z</time>
      </trkpt>
      <trkpt lat="38.93107202835381" lon="-9.259041007608175">
        <ele>248.63999999999999</ele>
        <time>2025-05-04T14:47:46Z</time>
      </trkpt>
      <trkpt lat="38.93103196285665" lon="-9.259110996499658">
        <ele>249.12</ele>
        <time>2025-05-04T14:47:47Z</time>
      </trkpt>
      <trkpt lat="38.930982006713748" lon="-9.259196994826198">
        <ele>249.12</ele>
        <time>2025-05-04T14:47:48Z</time>
      </trkpt>
      <trkpt lat="38.930920986458659" lon="-9.259292967617512">
        <ele>249.59999999999999</ele>
        <time>2025-05-04T14:47:49Z</time>
      </trkpt>
      <trkpt lat="38.93085703253746" lon="-9.259383995085955">
        <ele>249.12</ele>
        <time>2025-05-04T14:47:50Z</time>
      </trkpt>
      <trkpt lat="38.930603982880712" lon="-9.259763024747372">
        <ele>246.72</ele>
        <time>2025-05-04T14:47:55Z</time>
      </trkpt>
      <trkpt lat="38.930573975667357" lon="-9.259867966175079">
        <ele>245.75</ele>
        <time>2025-05-04T14:47:56Z</time>
      </trkpt>
      <trkpt lat="38.930281028151512" lon="-9.260799027979374">
        <ele>240.47</ele>
        <time>2025-05-04T14:48:03Z</time>
      </trkpt>
      <trkpt lat="38.930215984582901" lon="-9.260919978842139">
        <ele>239.99000000000001</ele>
        <time>2025-05-04T14:48:04Z</time>
      </trkpt>
      <trkpt lat="38.930141972377896" lon="-9.261014023795724">
        <ele>239.50999999999999</ele>
        <time>2025-05-04T14:48:05Z</time>
      </trkpt>
      <trkpt lat="38.930045999586582" lon="-9.261090969666839">
        <ele>239.02000000000001</ele>
        <time>2025-05-04T14:48:06Z</time>
      </trkpt>
      <trkpt lat="38.929942985996604" lon="-9.261173028498888">
        <ele>238.53999999999999</ele>
        <time>2025-05-04T14:48:07Z</time>
      </trkpt>
      <trkpt lat="38.929861010983586" lon="-9.261238994076848">
        <ele>238.06</ele>
        <time>2025-05-04T14:48:08Z</time>
      </trkpt>
      <trkpt lat="38.929756991565228" lon="-9.261402022093535">
        <ele>237.58000000000001</ele>
        <time>2025-05-04T14:48:09Z</time>
      </trkpt>
      <trkpt lat="38.929682979360223" lon="-9.261560020968318">
        <ele>237.58000000000001</ele>
        <time>2025-05-04T14:48:10Z</time>
      </trkpt>
      <trkpt lat="38.929284000769258" lon="-9.262823006138206">
        <ele>238.53999999999999</ele>
        <time>2025-05-04T14:48:18Z</time>
      </trkpt>
      <trkpt lat="38.929290035739541" lon="-9.262958038598299">
        <ele>238.53999999999999</ele>
        <time>2025-05-04T14:48:19Z</time>
      </trkpt>
      <trkpt lat="38.929296992719173" lon="-9.263104973360896">
        <ele>239.02000000000001</ele>
        <time>2025-05-04T14:48:20Z</time>
      </trkpt>
      <trkpt lat="38.929383996874094" lon="-9.263773011043668">
        <ele>240.47</ele>
        <time>2025-05-04T14:48:25Z</time>
      </trkpt>
      <trkpt lat="38.929371004924178" lon="-9.263889016583562">
        <ele>240.94999999999999</ele>
        <time>2025-05-04T14:48:26Z</time>
      </trkpt>
      <trkpt lat="38.929314007982612" lon="-9.26399203017354">
        <ele>241.43000000000001</ele>
        <time>2025-05-04T14:48:27Z</time>
      </trkpt>
      <trkpt lat="38.929238989949226" lon="-9.264090014621615">
        <ele>241.91</ele>
        <time>2025-05-04T14:48:28Z</time>
      </trkpt>
      <trkpt lat="38.929158020764589" lon="-9.264195961877704">
        <ele>241.91</ele>
        <time>2025-05-04T14:48:29Z</time>
      </trkpt>
      <trkpt lat="38.929077973589301" lon="-9.264300987124443">
        <ele>241.91</ele>
        <time>2025-05-04T14:48:30Z</time>
      </trkpt>
      <trkpt lat="38.928784020245075" lon="-9.264724021777511">
        <ele>241.43000000000001</ele>
        <time>2025-05-04T14:48:34Z</time>
      </trkpt>
      <trkpt lat="38.928739009425044" lon="-9.264859976246953">
        <ele>241.43000000000001</ele>
        <time>2025-05-04T14:48:35Z</time>
      </trkpt>
      <trkpt lat="38.928701039403677" lon="-9.26500397734344">
        <ele>240.94999999999999</ele>
        <time>2025-05-04T14:48:36Z</time>
      </trkpt>
      <trkpt lat="38.928695004433393" lon="-9.265176979824901">
        <ele>240.94999999999999</ele>
        <time>2025-05-04T14:48:37Z</time>
      </trkpt>
      <trkpt lat="38.928718976676464" lon="-9.265343025326729">
        <ele>240.47</ele>
        <time>2025-05-04T14:48:38Z</time>
      </trkpt>
      <trkpt lat="38.928745966404676" lon="-9.265504041686654">
        <ele>239.99000000000001</ele>
        <time>2025-05-04T14:48:39Z</time>
      </trkpt>
      <trkpt lat="38.928830958902836" lon="-9.265980971977115">
        <ele>238.53999999999999</ele>
        <time>2025-05-04T14:48:42Z</time>
      </trkpt>
      <trkpt lat="38.928845040500164" lon="-9.266122961416841">
        <ele>238.53999999999999</ele>
        <time>2025-05-04T14:48:43Z</time>
      </trkpt>
      <trkpt lat="38.928835988044739" lon="-9.266268974170089">
        <ele>238.53999999999999</ele>
        <time>2025-05-04T14:48:44Z</time>
      </trkpt>
      <trkpt lat="38.928801035508513" lon="-9.26642001606524">
        <ele>238.53999999999999</ele>
        <time>2025-05-04T14:48:45Z</time>
      </trkpt>
      <trkpt lat="38.928762981668115" lon="-9.266584971919656">
        <ele>238.53999999999999</ele>
        <time>2025-05-04T14:48:46Z</time>
      </trkpt>
      <trkpt lat="38.928519990295172" lon="-9.267661962658167">
        <ele>237.58000000000001</ele>
        <time>2025-05-04T14:48:52Z</time>
      </trkpt>
      <trkpt lat="38.928479002788663" lon="-9.26783898845315">
        <ele>237.58000000000001</ele>
        <time>2025-05-04T14:48:53Z</time>
      </trkpt>
      <trkpt lat="38.928266018629074" lon="-9.268734008073807">
        <ele>233.25999999999999</ele>
        <time>2025-05-04T14:48:58Z</time>
      </trkpt>
      <trkpt lat="38.928249003365636" lon="-9.268916985020042">
        <ele>232.78</ele>
        <time>2025-05-04T14:48:59Z</time>
      </trkpt>
      <trkpt lat="38.928240034729242" lon="-9.269288973882794">
        <ele>231.81</ele>
        <time>2025-05-04T14:49:01Z</time>
      </trkpt>
      <trkpt lat="38.928252020850778" lon="-9.269500030204654">
        <ele>230.84999999999999</ele>
        <time>2025-05-04T14:49:02Z</time>
      </trkpt>
      <trkpt lat="38.928326033055782" lon="-9.270188016816974">
        <ele>229.41</ele>
        <time>2025-05-04T14:49:06Z</time>
      </trkpt>
      <trkpt lat="38.928286973387003" lon="-9.270344004034996">
        <ele>228.93000000000001</ele>
        <time>2025-05-04T14:49:07Z</time>
      </trkpt>
      <trkpt lat="38.928238023072481" lon="-9.270486999303103">
        <ele>229.41</ele>
        <time>2025-05-04T14:49:08Z</time>
      </trkpt>
      <trkpt lat="38.928180020302534" lon="-9.270625971257687">
        <ele>229.41</ele>
        <time>2025-05-04T14:49:09Z</time>
      </trkpt>
      <trkpt lat="38.928110031411052" lon="-9.270748011767864">
        <ele>229.41</ele>
        <time>2025-05-04T14:49:10Z</time>
      </trkpt>
      <trkpt lat="38.928029984235764" lon="-9.270877009257674">
        <ele>228.93000000000001</ele>
        <time>2025-05-04T14:49:11Z</time>
      </trkpt>
      <trkpt lat="38.927948009222746" lon="-9.271007012575865">
        <ele>228.93000000000001</ele>
        <time>2025-05-04T14:49:12Z</time>
      </trkpt>
      <trkpt lat="38.927087020128965" lon="-9.272441994398832">
        <ele>228.44999999999999</ele>
        <time>2025-05-04T14:49:22Z</time>
      </trkpt>
      <trkpt lat="38.926524007692933" lon="-9.273332990705967">
        <ele>227.00999999999999</ele>
        <time>2025-05-04T14:49:28Z</time>
      </trkpt>
      <trkpt lat="38.926400961354375" lon="-9.273430975154042">
        <ele>226.53</ele>
        <time>2025-05-04T14:49:29Z</time>
      </trkpt>
      <trkpt lat="38.926264001056552" lon="-9.273502975702286">
        <ele>226.05000000000001</ele>
        <time>2025-05-04T14:49:30Z</time>
      </trkpt>
      <trkpt lat="38.925882959738374" lon="-9.273786032572389">
        <ele>224.61000000000001</ele>
        <time>2025-05-04T14:49:33Z</time>
      </trkpt>
      <trkpt lat="38.925777012482285" lon="-9.273917963728309">
        <ele>224.12</ele>
        <time>2025-05-04T14:49:34Z</time>
      </trkpt>
      <trkpt lat="38.925672993063927" lon="-9.274047967046499">
        <ele>222.68000000000001</ele>
        <time>2025-05-04T14:49:35Z</time>
      </trkpt>
      <trkpt lat="38.92557299695909" lon="-9.274174030870199">
        <ele>221.72</ele>
        <time>2025-05-04T14:49:36Z</time>
      </trkpt>
      <trkpt lat="38.925452968105674" lon="-9.274228010326624">
        <ele>220.28</ele>
        <time>2025-05-04T14:49:37Z</time>
      </trkpt>
      <trkpt lat="38.925332017242908" lon="-9.274278972297907">
        <ele>218.84</ele>
        <time>2025-05-04T14:49:38Z</time>
      </trkpt>
      <trkpt lat="38.925204025581479" lon="-9.274305962026119">
        <ele>217.88</ele>
        <time>2025-05-04T14:49:39Z</time>
      </trkpt>
      <trkpt lat="38.92507603392005" lon="-9.274305962026119">
        <ele>216.91</ele>
        <time>2025-05-04T14:49:40Z</time>
      </trkpt>
      <trkpt lat="38.924957010895014" lon="-9.274262962862849">
        <ele>215.94999999999999</ele>
        <time>2025-05-04T14:49:41Z</time>
      </trkpt>
      <trkpt lat="38.924837987869978" lon="-9.274203032255173">
        <ele>215.47</ele>
        <time>2025-05-04T14:49:42Z</time>
      </trkpt>
      <trkpt lat="38.924726005643606" lon="-9.274118961766362">
        <ele>214.99000000000001</ele>
        <time>2025-05-04T14:49:43Z</time>
      </trkpt>
      <trkpt lat="38.924610000103712" lon="-9.274032041430473">
        <ele>214.03</ele>
        <time>2025-05-04T14:49:44Z</time>
      </trkpt>
      <trkpt lat="38.924357034265995" lon="-9.273892985656858">
        <ele>213.06999999999999</ele>
        <time>2025-05-04T14:49:46Z</time>
      </trkpt>
      <trkpt lat="38.924233987927437" lon="-9.273826014250517">
        <ele>213.06999999999999</ele>
        <time>2025-05-04T14:49:47Z</time>
      </trkpt>
      <trkpt lat="38.924105996266007" lon="-9.273770023137331">
        <ele>212.59</ele>
        <time>2025-05-04T14:49:48Z</time>
      </trkpt>
      <trkpt lat="38.923980016261339" lon="-9.273770023137331">
        <ele>212.59</ele>
        <time>2025-05-04T14:49:49Z</time>
      </trkpt>
      <trkpt lat="38.92385202459991" lon="-9.273805981501937">
        <ele>212.11000000000001</ele>
        <time>2025-05-04T14:49:50Z</time>
      </trkpt>
      <trkpt lat="38.9237230271101" lon="-9.273848980665207">
        <ele>211.63</ele>
        <time>2025-05-04T14:49:51Z</time>
      </trkpt>
      <trkpt lat="38.92359402962029" lon="-9.273886028677225">
        <ele>211.15000000000001</ele>
        <time>2025-05-04T14:49:52Z</time>
      </trkpt>
      <trkpt lat="38.923036968335509" lon="-9.274076968431473">
        <ele>208.74000000000001</ele>
        <time>2025-05-04T14:49:57Z</time>
      </trkpt>
      <trkpt lat="38.922934038564563" lon="-9.274146035313606">
        <ele>208.25999999999999</ele>
        <time>2025-05-04T14:49:58Z</time>
      </trkpt>
      <trkpt lat="38.92288701608777" lon="-9.27417797036469">
        <ele>207.78</ele>
        <time>2025-05-04T14:49:59Z</time>
      </trkpt>
      <trkpt lat="38.922802023589611" lon="-9.274331023916602">
        <ele>207.30000000000001</ele>
        <time>2025-05-04T14:50:00Z</time>
      </trkpt>
      <trkpt lat="38.922766987234354" lon="-9.27443403750658">
        <ele>206.34</ele>
        <time>2025-05-04T14:50:01Z</time>
      </trkpt>
      <trkpt lat="38.92273798584938" lon="-9.2745659686625">
        <ele>205.86000000000001</ele>
        <time>2025-05-04T14:50:02Z</time>
      </trkpt>
      <trkpt lat="38.922716025263071" lon="-9.274697983637452">
        <ele>205.38</ele>
        <time>2025-05-04T14:50:03Z</time>
      </trkpt>
      <trkpt lat="38.922720970585942" lon="-9.274847013875842">
        <ele>204.41999999999999</ele>
        <time>2025-05-04T14:50:04Z</time>
      </trkpt>
      <trkpt lat="38.922733962535858" lon="-9.27525001578033">
        <ele>202.97999999999999</ele>
        <time>2025-05-04T14:50:07Z</time>
      </trkpt>
      <trkpt lat="38.922720970585942" lon="-9.275383958593011">
        <ele>202.49000000000001</ele>
        <time>2025-05-04T14:50:08Z</time>
      </trkpt>
      <trkpt lat="38.922684006392956" lon="-9.275496024638414">
        <ele>201.53</ele>
        <time>2025-05-04T14:50:09Z</time>
      </trkpt>
      <trkpt lat="38.922611000016332" lon="-9.275568025186658">
        <ele>200.56999999999999</ele>
        <time>2025-05-04T14:50:10Z</time>
      </trkpt>
      <trkpt lat="38.922501029446721" lon="-9.27563700824976">
        <ele>200.09</ele>
        <time>2025-05-04T14:50:11Z</time>
      </trkpt>
      <trkpt lat="38.922430034726858" lon="-9.27566098049283">
        <ele>200.09</ele>
        <time>2025-05-04T14:50:12Z</time>
      </trkpt>
      <trkpt lat="38.922330038622022" lon="-9.275695011019707">
        <ele>200.09</ele>
        <time>2025-05-04T14:50:13Z</time>
      </trkpt>
      <trkpt lat="38.92181396484375" lon="-9.275872958824039">
        <ele>200.09</ele>
        <time>2025-05-04T14:50:18Z</time>
      </trkpt>
      <trkpt lat="38.921663006767631" lon="-9.27600396797061">
        <ele>200.56999999999999</ele>
        <time>2025-05-04T14:50:20Z</time>
      </trkpt>
      <trkpt lat="38.921612966805696" lon="-9.276121985167265">
        <ele>201.05000000000001</ele>
        <time>2025-05-04T14:50:21Z</time>
      </trkpt>
      <trkpt lat="38.921554964035749" lon="-9.276242014020681">
        <ele>201.05000000000001</ele>
        <time>2025-05-04T14:50:22Z</time>
      </trkpt>
      <trkpt lat="38.921499978750944" lon="-9.276351984590292">
        <ele>201.05000000000001</ele>
        <time>2025-05-04T14:50:23Z</time>
      </trkpt>
      <trkpt lat="38.92142403870821" lon="-9.276446029543877">
        <ele>201.05000000000001</ele>
        <time>2025-05-04T14:50:24Z</time>
      </trkpt>
      <trkpt lat="38.921338962391019" lon="-9.276511995121837">
        <ele>201.05000000000001</ele>
        <time>2025-05-04T14:50:25Z</time>
      </trkpt>
      <trkpt lat="38.921255981549621" lon="-9.276576032862067">
        <ele>201.05000000000001</ele>
        <time>2025-05-04T14:50:26Z</time>
      </trkpt>
      <trkpt lat="38.921075016260147" lon="-9.276717016473413">
        <ele>201.05000000000001</ele>
        <time>2025-05-04T14:50:28Z</time>
      </trkpt>
      <trkpt lat="38.920978959649801" lon="-9.276792034506798">
        <ele>201.53</ele>
        <time>2025-05-04T14:50:29Z</time>
      </trkpt>
      <trkpt lat="38.920887010172009" lon="-9.276865962892771">
        <ele>201.05000000000001</ele>
        <time>2025-05-04T14:50:30Z</time>
      </trkpt>
      <trkpt lat="38.920806962996721" lon="-9.276971993967891">
        <ele>201.05000000000001</ele>
        <time>2025-05-04T14:50:31Z</time>
      </trkpt>
      <trkpt lat="38.920728005468845" lon="-9.277079030871391">
        <ele>201.05000000000001</ele>
        <time>2025-05-04T14:50:32Z</time>
      </trkpt>
      <trkpt lat="38.920677965506911" lon="-9.277202999219298">
        <ele>200.56999999999999</ele>
        <time>2025-05-04T14:50:33Z</time>
      </trkpt>
      <trkpt lat="38.920643012970686" lon="-9.277353035286069">
        <ele>200.56999999999999</ele>
        <time>2025-05-04T14:50:34Z</time>
      </trkpt>
      <trkpt lat="38.920607976615429" lon="-9.277498964220285">
        <ele>200.09</ele>
        <time>2025-05-04T14:50:35Z</time>
      </trkpt>
      <trkpt lat="38.920575035735965" lon="-9.277639025822282">
        <ele>199.61000000000001</ele>
        <time>2025-05-04T14:50:36Z</time>
      </trkpt>
      <trkpt lat="38.920543016865849" lon="-9.277772968634963">
        <ele>199.13</ele>
        <time>2025-05-04T14:50:37Z</time>
      </trkpt>
      <trkpt lat="38.920512003824115" lon="-9.277905989438295">
        <ele>198.65000000000001</ele>
        <time>2025-05-04T14:50:38Z</time>
      </trkpt>
      <trkpt lat="38.920434974133968" lon="-9.278317037969828">
        <ele>196.72999999999999</ele>
        <time>2025-05-04T14:50:41Z</time>
      </trkpt>
      <trkpt lat="38.920405972748995" lon="-9.278798997402191">
        <ele>195.28</ele>
        <time>2025-05-04T14:50:44Z</time>
      </trkpt>
      <trkpt lat="38.920380994677544" lon="-9.278960013762116">
        <ele>194.80000000000001</ele>
        <time>2025-05-04T14:50:45Z</time>
      </trkpt>
      <trkpt lat="38.920257026329637" lon="-9.279244998469949">
        <ele>193.36000000000001</ele>
        <time>2025-05-04T14:50:47Z</time>
      </trkpt>
      <trkpt lat="38.919560993090272" lon="-9.280704958364368">
        <ele>188.08000000000001</ele>
        <time>2025-05-04T14:50:57Z</time>
      </trkpt>
      <trkpt lat="38.918914999812841" lon="-9.282139018177986">
        <ele>184.71000000000001</ele>
        <time>2025-05-04T14:51:07Z</time>
      </trkpt>
      <trkpt lat="38.918447038158774" lon="-9.283706014975905">
        <ele>184.71000000000001</ele>
        <time>2025-05-04T14:51:17Z</time>
      </trkpt>
      <trkpt lat="38.918360034003854" lon="-9.284036010503769">
        <ele>185.66999999999999</ele>
        <time>2025-05-04T14:51:19Z</time>
      </trkpt>
      <trkpt lat="38.918317034840584" lon="-9.284198032692075">
        <ele>186.15000000000001</ele>
        <time>2025-05-04T14:51:20Z</time>
      </trkpt>
      <trkpt lat="38.918237993493676" lon="-9.284341027960181">
        <ele>186.63</ele>
        <time>2025-05-04T14:51:21Z</time>
      </trkpt>
      <trkpt lat="38.91800899989903" lon="-9.284757021814585">
        <ele>186.63</ele>
        <time>2025-05-04T14:51:24Z</time>
      </trkpt>
      <trkpt lat="38.917963989078999" lon="-9.284914014860988">
        <ele>186.15000000000001</ele>
        <time>2025-05-04T14:51:25Z</time>
      </trkpt>
      <trkpt lat="38.917969018220901" lon="-9.285086011514068">
        <ele>186.15000000000001</ele>
        <time>2025-05-04T14:51:26Z</time>
      </trkpt>
      <trkpt lat="38.918017968535423" lon="-9.285232024267316">
        <ele>185.66999999999999</ele>
        <time>2025-05-04T14:51:27Z</time>
      </trkpt>
      <trkpt lat="38.91807597130537" lon="-9.285380970686674">
        <ele>185.19</ele>
        <time>2025-05-04T14:51:28Z</time>
      </trkpt>
      <trkpt lat="38.91816096380353" lon="-9.285506028681994">
        <ele>185.19</ele>
        <time>2025-05-04T14:51:29Z</time>
      </trkpt>
      <trkpt lat="38.918248973786831" lon="-9.285634020343423">
        <ele>184.71000000000001</ele>
        <time>2025-05-04T14:51:30Z</time>
      </trkpt>
      <trkpt lat="38.918334972113371" lon="-9.285760000348091">
        <ele>184.71000000000001</ele>
        <time>2025-05-04T14:51:31Z</time>
      </trkpt>
      <trkpt lat="38.918386017903686" lon="-9.285908024758101">
        <ele>184.22999999999999</ele>
        <time>2025-05-04T14:51:32Z</time>
      </trkpt>
      <trkpt lat="38.918403033167124" lon="-9.286064011976123">
        <ele>183.75</ele>
        <time>2025-05-04T14:51:33Z</time>
      </trkpt>
      <trkpt lat="38.918403033167124" lon="-9.286233996972442">
        <ele>183.27000000000001</ele>
        <time>2025-05-04T14:51:34Z</time>
      </trkpt>
      <trkpt lat="38.918403033167124" lon="-9.286410016939044">
        <ele>182.78999999999999</ele>
        <time>2025-05-04T14:51:35Z</time>
      </trkpt>
      <trkpt lat="38.918403033167124" lon="-9.287781966850162">
        <ele>182.31</ele>
        <time>2025-05-04T14:51:43Z</time>
      </trkpt>
      <trkpt lat="38.918476961553097" lon="-9.288116991519928">
        <ele>183.75</ele>
        <time>2025-05-04T14:51:46Z</time>
      </trkpt>
      <trkpt lat="38.91850202344358" lon="-9.288234002888203">
        <ele>184.22999999999999</ele>
        <time>2025-05-04T14:51:47Z</time>
      </trkpt>
      <trkpt lat="38.91871701925993" lon="-9.289552979171276">
        <ele>188.56</ele>
        <time>2025-05-04T14:51:56Z</time>
      </trkpt>
      <trkpt lat="38.918807962909341" lon="-9.290145998820663">
        <ele>190.47999999999999</ele>
        <time>2025-05-04T14:52:00Z</time>
      </trkpt>
      <trkpt lat="38.918859008699656" lon="-9.290286982432008">
        <ele>190.96000000000001</ele>
        <time>2025-05-04T14:52:01Z</time>
      </trkpt>
      <trkpt lat="38.91949201002717" lon="-9.291612999513745">
        <ele>197.69</ele>
        <time>2025-05-04T14:52:11Z</time>
      </trkpt>
      <trkpt lat="38.91981496475637" lon="-9.292256981134415">
        <ele>201.05000000000001</ele>
        <time>2025-05-04T14:52:16Z</time>
      </trkpt>
      <trkpt lat="38.919919990003109" lon="-9.292528973892331">
        <ele>202.97999999999999</ele>
        <time>2025-05-04T14:52:18Z</time>
      </trkpt>
      <trkpt lat="38.919991990551353" lon="-9.292652020230889">
        <ele>203.94</ele>
        <time>2025-05-04T14:52:19Z</time>
      </trkpt>
      <trkpt lat="38.920068014413118" lon="-9.292771965265274">
        <ele>204.90000000000001</ele>
        <time>2025-05-04T14:52:20Z</time>
      </trkpt>
      <trkpt lat="38.920164993032813" lon="-9.292860981076956">
        <ele>205.86000000000001</ele>
        <time>2025-05-04T14:52:21Z</time>
      </trkpt>
      <trkpt lat="38.920262977480888" lon="-9.292949996888638">
        <ele>206.81999999999999</ele>
        <time>2025-05-04T14:52:22Z</time>
      </trkpt>
      <trkpt lat="38.920360961928964" lon="-9.293039012700319">
        <ele>207.30000000000001</ele>
        <time>2025-05-04T14:52:23Z</time>
      </trkpt>
      <trkpt lat="38.921652026474476" lon="-9.294192027300596">
        <ele>218.36000000000001</ele>
        <time>2025-05-04T14:52:36Z</time>
      </trkpt>
      <trkpt lat="38.921766020357609" lon="-9.294249024242163">
        <ele>218.84</ele>
        <time>2025-05-04T14:52:37Z</time>
      </trkpt>
      <trkpt lat="38.922419976443052" lon="-9.294581031426787">
        <ele>222.68000000000001</ele>
        <time>2025-05-04T14:52:43Z</time>
      </trkpt>
      <trkpt lat="38.922497006133199" lon="-9.294649008661509">
        <ele>224.12</ele>
        <time>2025-05-04T14:52:44Z</time>
      </trkpt>
      <trkpt lat="38.922537993639708" lon="-9.294744981452823">
        <ele>225.09</ele>
        <time>2025-05-04T14:52:45Z</time>
      </trkpt>
      <trkpt lat="38.922527013346553" lon="-9.294844977557659">
        <ele>226.53</ele>
        <time>2025-05-04T14:52:46Z</time>
      </trkpt>
      <trkpt lat="38.92247898504138" lon="-9.294929970055819">
        <ele>227.49000000000001</ele>
        <time>2025-05-04T14:52:47Z</time>
      </trkpt>
      <trkpt lat="38.922396004199982" lon="-9.29501798003912">
        <ele>228.93000000000001</ele>
        <time>2025-05-04T14:52:48Z</time>
      </trkpt>
      <trkpt lat="38.922301959246397" lon="-9.295117976143956">
        <ele>229.88999999999999</ele>
        <time>2025-05-04T14:52:49Z</time>
      </trkpt>
      <trkpt lat="38.922206992283463" lon="-9.295217972248793">
        <ele>230.84999999999999</ele>
        <time>2025-05-04T14:52:50Z</time>
      </trkpt>
      <trkpt lat="38.922135997563601" lon="-9.295313023030758">
        <ele>231.81</ele>
        <time>2025-05-04T14:52:51Z</time>
      </trkpt>
      <trkpt lat="38.922111019492149" lon="-9.295472027733922">
        <ele>232.78</ele>
        <time>2025-05-04T14:52:52Z</time>
      </trkpt>
      <trkpt lat="38.922088975086808" lon="-9.295614017173648">
        <ele>233.74000000000001</ele>
        <time>2025-05-04T14:52:53Z</time>
      </trkpt>
      <trkpt lat="38.922080006450415" lon="-9.295763969421387">
        <ele>234.22</ele>
        <time>2025-05-04T14:52:54Z</time>
      </trkpt>
      <trkpt lat="38.922110013663769" lon="-9.295908976346254">
        <ele>235.18000000000001</ele>
        <time>2025-05-04T14:52:55Z</time>
      </trkpt>
      <trkpt lat="38.922163993120193" lon="-9.296035040169954">
        <ele>235.66</ele>
        <time>2025-05-04T14:52:56Z</time>
      </trkpt>
      <trkpt lat="38.922232976183295" lon="-9.296129001304507">
        <ele>236.13999999999999</ele>
        <time>2025-05-04T14:52:57Z</time>
      </trkpt>
      <trkpt lat="38.922328026965261" lon="-9.296192033216357">
        <ele>237.58000000000001</ele>
        <time>2025-05-04T14:52:58Z</time>
      </trkpt>
      <trkpt lat="38.922458030283451" lon="-9.296279037371278">
        <ele>238.06</ele>
        <time>2025-05-04T14:52:59Z</time>
      </trkpt>
      <trkpt lat="38.92254201695323" lon="-9.296297980472446">
        <ele>239.50999999999999</ele>
        <time>2025-05-04T14:53:00Z</time>
      </trkpt>
      <trkpt lat="38.922657016664743" lon="-9.296322958543897">
        <ele>239.99000000000001</ele>
        <time>2025-05-04T14:53:01Z</time>
      </trkpt>
      <trkpt lat="38.92329596914351" lon="-9.296453967690468">
        <ele>245.27000000000001</ele>
        <time>2025-05-04T14:53:08Z</time>
      </trkpt>
      <trkpt lat="38.923375010490417" lon="-9.296469977125526">
        <ele>248.63999999999999</ele>
        <time>2025-05-04T14:53:16Z</time>
      </trkpt>
      <trkpt lat="38.923411974683404" lon="-9.29647802375257">
        <ele>249.12</ele>
        <time>2025-05-04T14:53:17Z</time>
      </trkpt>
      <trkpt lat="38.923476012423635" lon="-9.296566033735871">
        <ele>249.12</ele>
        <time>2025-05-04T14:53:18Z</time>
      </trkpt>
      <trkpt lat="38.923462014645338" lon="-9.296643985435367">
        <ele>249.12</ele>
        <time>2025-05-04T14:53:19Z</time>
      </trkpt>
      <trkpt lat="38.923447011038661" lon="-9.296734007075429">
        <ele>249.59999999999999</ele>
        <time>2025-05-04T14:53:20Z</time>
      </trkpt>
      <trkpt lat="38.923428989946842" lon="-9.296839032322168">
        <ele>249.59999999999999</ele>
        <time>2025-05-04T14:53:21Z</time>
      </trkpt>
      <trkpt lat="38.923409041017294" lon="-9.296956965699792">
        <ele>249.12</ele>
        <time>2025-05-04T14:53:22Z</time>
      </trkpt>
      <trkpt lat="38.923268979415298" lon="-9.297525007277727">
        <ele>247.19999999999999</ele>
        <time>2025-05-04T14:53:27Z</time>
      </trkpt>
      <trkpt lat="38.92323100939393" lon="-9.297608993947506">
        <ele>247.19999999999999</ele>
        <time>2025-05-04T14:53:28Z</time>
      </trkpt>
      <trkpt lat="38.923169989138842" lon="-9.29768200032413">
        <ele>247.19999999999999</ele>
        <time>2025-05-04T14:53:29Z</time>
      </trkpt>
      <trkpt lat="38.923103017732501" lon="-9.297750983387232">
        <ele>246.72</ele>
        <time>2025-05-04T14:53:30Z</time>
      </trkpt>
      <trkpt lat="38.923009978607297" lon="-9.297808986157179">
        <ele>246.22999999999999</ele>
        <time>2025-05-04T14:53:31Z</time>
      </trkpt>
      <trkpt lat="38.922172961756587" lon="-9.298331011086702">
        <ele>241.43000000000001</ele>
        <time>2025-05-04T14:53:39Z</time>
      </trkpt>
      <trkpt lat="38.922063997015357" lon="-9.298385996371508">
        <ele>240.47</ele>
        <time>2025-05-04T14:53:40Z</time>
      </trkpt>
      <trkpt lat="38.921957965940237" lon="-9.2984330188483">
        <ele>239.99000000000001</ele>
        <time>2025-05-04T14:53:41Z</time>
      </trkpt>
      <trkpt lat="38.921836009249091" lon="-9.298467971384525">
        <ele>239.99000000000001</ele>
        <time>2025-05-04T14:53:42Z</time>
      </trkpt>
      <trkpt lat="38.921151962131262" lon="-9.298600992187858">
        <ele>238.53999999999999</ele>
        <time>2025-05-04T14:53:48Z</time>
      </trkpt>
      <trkpt lat="38.921053977683187" lon="-9.298676010221243">
        <ele>238.53999999999999</ele>
        <time>2025-05-04T14:53:49Z</time>
      </trkpt>
      <trkpt lat="38.920973008498549" lon="-9.298778017982841">
        <ele>238.53999999999999</ele>
        <time>2025-05-04T14:53:50Z</time>
      </trkpt>
      <trkpt lat="38.920922968536615" lon="-9.298896035179496">
        <ele>238.06</ele>
        <time>2025-05-04T14:53:51Z</time>
      </trkpt>
      <trkpt lat="38.920876029878855" lon="-9.299006005749106">
        <ele>238.06</ele>
        <time>2025-05-04T14:53:52Z</time>
      </trkpt>
      <trkpt lat="38.920849040150642" lon="-9.299129974097014">
        <ele>237.58000000000001</ele>
        <time>2025-05-04T14:53:53Z</time>
      </trkpt>
      <trkpt lat="38.920849040150642" lon="-9.299244973808527">
        <ele>237.58000000000001</ele>
        <time>2025-05-04T14:53:54Z</time>
      </trkpt>
      <trkpt lat="38.920849040150642" lon="-9.299347987398505">
        <ele>237.09999999999999</ele>
        <time>2025-05-04T14:53:55Z</time>
      </trkpt>
      <trkpt lat="38.920881981030107" lon="-9.299471033737063">
        <ele>236.13999999999999</ele>
        <time>2025-05-04T14:53:56Z</time>
      </trkpt>
      <trkpt lat="38.92091098241508" lon="-9.299579998478293">
        <ele>235.66</ele>
        <time>2025-05-04T14:53:57Z</time>
      </trkpt>
      <trkpt lat="38.921093037351966" lon="-9.299971014261246">
        <ele>234.22</ele>
        <time>2025-05-04T14:54:01Z</time>
      </trkpt>
      <trkpt lat="38.92114601098001" lon="-9.300072016194463">
        <ele>233.25999999999999</ele>
        <time>2025-05-04T14:54:02Z</time>
      </trkpt>
      <trkpt lat="38.921219017356634" lon="-9.300165977329016">
        <ele>232.30000000000001</ele>
        <time>2025-05-04T14:54:03Z</time>
      </trkpt>
      <trkpt lat="38.921597963199019" lon="-9.300525980070233">
        <ele>228.93000000000001</ele>
        <time>2025-05-04T14:54:08Z</time>
      </trkpt>
      <trkpt lat="38.921701982617378" lon="-9.300554981455207">
        <ele>228.44999999999999</ele>
        <time>2025-05-04T14:54:09Z</time>
      </trkpt>
      <trkpt lat="38.921800972893834" lon="-9.300581971183419">
        <ele>227.97</ele>
        <time>2025-05-04T14:54:10Z</time>
      </trkpt>
      <trkpt lat="38.922363985329866" lon="-9.300735024735332">
        <ele>225.09</ele>
        <time>2025-05-04T14:54:17Z</time>
      </trkpt>
      <trkpt lat="38.923031017184258" lon="-9.300928981974721">
        <ele>220.75999999999999</ele>
        <time>2025-05-04T14:54:25Z</time>
      </trkpt>
      <trkpt lat="38.92323100939393" lon="-9.300999976694584">
        <ele>219.31999999999999</ele>
        <time>2025-05-04T14:54:27Z</time>
      </trkpt>
      <trkpt lat="38.923305021598935" lon="-9.301074994727969">
        <ele>217.88</ele>
        <time>2025-05-04T14:54:28Z</time>
      </trkpt>
      <trkpt lat="38.923370987176895" lon="-9.301172979176045">
        <ele>216.43000000000001</ele>
        <time>2025-05-04T14:54:29Z</time>
      </trkpt>
      <trkpt lat="38.923423960804939" lon="-9.301283033564687">
        <ele>214.99000000000001</ele>
        <time>2025-05-04T14:54:30Z</time>
      </trkpt>
      <trkpt lat="38.923441981896758" lon="-9.301408007740974">
        <ele>214.03</ele>
        <time>2025-05-04T14:54:31Z</time>
      </trkpt>
      <trkpt lat="38.923436030745506" lon="-9.30152602493763">
        <ele>213.06999999999999</ele>
        <time>2025-05-04T14:54:32Z</time>
      </trkpt>
      <trkpt lat="38.92342496663332" lon="-9.30165502242744">
        <ele>212.59</ele>
        <time>2025-05-04T14:54:33Z</time>
      </trkpt>
      <trkpt lat="38.923412980511785" lon="-9.301799023523927">
        <ele>211.63</ele>
        <time>2025-05-04T14:54:34Z</time>
      </trkpt>
      <trkpt lat="38.923266967758536" lon="-9.303211038932204">
        <ele>202.00999999999999</ele>
        <time>2025-05-04T14:54:43Z</time>
      </trkpt>
      <trkpt lat="38.923160014674067" lon="-9.303895002231002">
        <ele>199.13</ele>
        <time>2025-05-04T14:54:47Z</time>
      </trkpt>
      <trkpt lat="38.923094971105456" lon="-9.303992986679077">
        <ele>199.13</ele>
        <time>2025-05-04T14:54:48Z</time>
      </trkpt>
      <trkpt lat="38.923029005527496" lon="-9.304090971127152">
        <ele>199.13</ele>
        <time>2025-05-04T14:54:49Z</time>
      </trkpt>
      <trkpt lat="38.922957004979253" lon="-9.304199013859034">
        <ele>199.13</ele>
        <time>2025-05-04T14:54:50Z</time>
      </trkpt>
      <trkpt lat="38.922885004431009" lon="-9.304292974993587">
        <ele>199.61000000000001</ele>
        <time>2025-05-04T14:54:51Z</time>
      </trkpt>
      <trkpt lat="38.922762963920832" lon="-9.304435970261693">
        <ele>200.09</ele>
        <time>2025-05-04T14:54:53Z</time>
      </trkpt>
      <trkpt lat="38.922704039141536" lon="-9.304505037143827">
        <ele>200.56999999999999</ele>
        <time>2025-05-04T14:54:54Z</time>
      </trkpt>
      <trkpt lat="38.922162987291813" lon="-9.305132003501058">
        <ele>203.94</ele>
        <time>2025-05-04T14:55:03Z</time>
      </trkpt>
      <trkpt lat="38.921269979327917" lon="-9.306058958172798">
        <ele>209.69999999999999</ele>
        <time>2025-05-04T14:55:14Z</time>
      </trkpt>
      <trkpt lat="38.920682994648814" lon="-9.307060008868575">
        <ele>214.50999999999999</ele>
        <time>2025-05-04T14:55:20Z</time>
      </trkpt>
      <trkpt lat="38.919969024136662" lon="-9.30803800933063">
        <ele>222.19999999999999</ele>
        <time>2025-05-04T14:55:27Z</time>
      </trkpt>
      <trkpt lat="38.91974899917841" lon="-9.308458026498556">
        <ele>224.61000000000001</ele>
        <time>2025-05-04T14:55:30Z</time>
      </trkpt>
      <trkpt lat="38.919740030542016" lon="-9.308615019544959">
        <ele>225.09</ele>
        <time>2025-05-04T14:55:31Z</time>
      </trkpt>
      <trkpt lat="38.919732989743352" lon="-9.30874602869153">
        <ele>225.56999999999999</ele>
        <time>2025-05-04T14:55:32Z</time>
      </trkpt>
      <trkpt lat="38.919732989743352" lon="-9.30874602869153">
        <ele>225.56999999999999</ele>
        <time>2025-05-04T14:55:33Z</time>
      </trkpt>
      <trkpt lat="38.919820999726653" lon="-9.308893969282508">
        <ele>225.56999999999999</ele>
        <time>2025-05-04T14:55:34Z</time>
      </trkpt>
      <trkpt lat="38.919897023588419" lon="-9.309022966772318">
        <ele>225.09</ele>
        <time>2025-05-04T14:55:35Z</time>
      </trkpt>
      <trkpt lat="38.919980004429817" lon="-9.309164034202695">
        <ele>224.61000000000001</ele>
        <time>2025-05-04T14:55:36Z</time>
      </trkpt>
      <trkpt lat="38.920063991099596" lon="-9.309276016429067">
        <ele>223.63999999999999</ele>
        <time>2025-05-04T14:55:37Z</time>
      </trkpt>
      <trkpt lat="38.920461041852832" lon="-9.309721011668444">
        <ele>218.84</ele>
        <time>2025-05-04T14:55:41Z</time>
      </trkpt>
      <trkpt lat="38.920561037957668" lon="-9.30986400693655">
        <ele>217.40000000000001</ele>
        <time>2025-05-04T14:55:42Z</time>
      </trkpt>
      <trkpt lat="38.920590039342642" lon="-9.30997297167778">
        <ele>216.43000000000001</ele>
        <time>2025-05-04T14:55:43Z</time>
      </trkpt>
      <trkpt lat="38.920606970787048" lon="-9.31010196916759">
        <ele>214.99000000000001</ele>
        <time>2025-05-04T14:55:44Z</time>
      </trkpt>
      <trkpt lat="38.920596996322274" lon="-9.310190984979272">
        <ele>214.50999999999999</ele>
        <time>2025-05-04T14:55:45Z</time>
      </trkpt>
      <trkpt lat="38.9205870218575" lon="-9.31027396582067">
        <ele>213.55000000000001</ele>
        <time>2025-05-04T14:55:46Z</time>
      </trkpt>
      <trkpt lat="38.920576041564345" lon="-9.310368010774255">
        <ele>213.55000000000001</ele>
        <time>2025-05-04T14:55:47Z</time>
      </trkpt>
      <trkpt lat="38.920529019087553" lon="-9.310459960252047">
        <ele>213.06999999999999</ele>
        <time>2025-05-04T14:55:48Z</time>
      </trkpt>
      <trkpt lat="38.920447966083884" lon="-9.310542019084096">
        <ele>212.59</ele>
        <time>2025-05-04T14:55:49Z</time>
      </trkpt>
      <trkpt lat="38.920363979414105" lon="-9.310626005753875">
        <ele>212.11000000000001</ele>
        <time>2025-05-04T14:55:50Z</time>
      </trkpt>
      <trkpt lat="38.920283010229468" lon="-9.310699012130499">
        <ele>211.63</ele>
        <time>2025-05-04T14:55:51Z</time>
      </trkpt>
      <trkpt lat="38.920181002467871" lon="-9.310712004080415">
        <ele>211.15000000000001</ele>
        <time>2025-05-04T14:55:52Z</time>
      </trkpt>
      <trkpt lat="38.92007396556437" lon="-9.31072399020195">
        <ele>210.66999999999999</ele>
        <time>2025-05-04T14:55:53Z</time>
      </trkpt>
      <trkpt lat="38.91996399499476" lon="-9.310736982151866">
        <ele>210.19</ele>
        <time>2025-05-04T14:55:54Z</time>
      </trkpt>
      <trkpt lat="38.919852012768388" lon="-9.310749974101782">
        <ele>209.69999999999999</ele>
        <time>2025-05-04T14:55:55Z</time>
      </trkpt>
      <trkpt lat="38.919624025002122" lon="-9.310776963829994">
        <ele>208.74000000000001</ele>
        <time>2025-05-04T14:55:57Z</time>
      </trkpt>
      <trkpt lat="38.91951103694737" lon="-9.310807976871729">
        <ele>208.25999999999999</ele>
        <time>2025-05-04T14:55:58Z</time>
      </trkpt>
      <trkpt lat="38.919400982558727" lon="-9.310860028490424">
        <ele>207.30000000000001</ele>
        <time>2025-05-04T14:55:59Z</time>
      </trkpt>
      <trkpt lat="38.919295035302639" lon="-9.310909984633327">
        <ele>206.81999999999999</ele>
        <time>2025-05-04T14:56:00Z</time>
      </trkpt>
      <trkpt lat="38.919183975085616" lon="-9.310967987403274">
        <ele>206.34</ele>
        <time>2025-05-04T14:56:01Z</time>
      </trkpt>
      <trkpt lat="38.918673014268279" lon="-9.311423040926457">
        <ele>203.94</ele>
        <time>2025-05-04T14:56:06Z</time>
      </trkpt>
      <trkpt lat="38.918511997908354" lon="-9.311663014814258">
        <ele>203.94</ele>
        <time>2025-05-04T14:56:08Z</time>
      </trkpt>
      <trkpt lat="38.918428011238575" lon="-9.311835011467338">
        <ele>203.94</ele>
        <time>2025-05-04T14:56:09Z</time>
      </trkpt>
      <trkpt lat="38.918335977941751" lon="-9.312024023383856">
        <ele>203.94</ele>
        <time>2025-05-04T14:56:10Z</time>
      </trkpt>
      <trkpt lat="38.917920989915729" lon="-9.31289398111403">
        <ele>205.38</ele>
        <time>2025-05-04T14:56:16Z</time>
      </trkpt>
      <trkpt lat="38.917895006015897" lon="-9.313021972775459">
        <ele>205.38</ele>
        <time>2025-05-04T14:56:17Z</time>
      </trkpt>
      <trkpt lat="38.917878996580839" lon="-9.313167985528708">
        <ele>205.38</ele>
        <time>2025-05-04T14:56:18Z</time>
      </trkpt>
      <trkpt lat="38.917870027944446" lon="-9.313335036858916">
        <ele>205.38</ele>
        <time>2025-05-04T14:56:19Z</time>
      </trkpt>
      <trkpt lat="38.91790296882391" lon="-9.313483983278275">
        <ele>204.90000000000001</ele>
        <time>2025-05-04T14:56:20Z</time>
      </trkpt>
      <trkpt lat="38.917936999350786" lon="-9.313641982153058">
        <ele>204.90000000000001</ele>
        <time>2025-05-04T14:56:21Z</time>
      </trkpt>
      <trkpt lat="38.917972035706043" lon="-9.313802998512983">
        <ele>204.90000000000001</ele>
        <time>2025-05-04T14:56:22Z</time>
      </trkpt>
      <trkpt lat="38.91824796795845" lon="-9.314979985356331">
        <ele>201.53</ele>
        <time>2025-05-04T14:56:30Z</time>
      </trkpt>
      <trkpt lat="38.918228019028902" lon="-9.315120968967676">
        <ele>201.05000000000001</ele>
        <time>2025-05-04T14:56:31Z</time>
      </trkpt>
      <trkpt lat="38.918207986280322" lon="-9.315261030569673">
        <ele>201.05000000000001</ele>
        <time>2025-05-04T14:56:32Z</time>
      </trkpt>
      <trkpt lat="38.918188959360123" lon="-9.315389022231102">
        <ele>201.53</ele>
        <time>2025-05-04T14:56:33Z</time>
      </trkpt>
      <trkpt lat="38.918119976297021" lon="-9.31544903665781">
        <ele>202.00999999999999</ele>
        <time>2025-05-04T14:56:34Z</time>
      </trkpt>
      <trkpt lat="38.918041018769145" lon="-9.315507961437106">
        <ele>202.49000000000001</ele>
        <time>2025-05-04T14:56:35Z</time>
      </trkpt>
      <trkpt lat="38.917930964380503" lon="-9.315591026097536">
        <ele>202.97999999999999</ele>
        <time>2025-05-04T14:56:36Z</time>
      </trkpt>
      <trkpt lat="38.917853012681007" lon="-9.315607035532594">
        <ele>203.94</ele>
        <time>2025-05-04T14:56:37Z</time>
      </trkpt>
      <trkpt lat="38.917743964120746" lon="-9.315628996118903">
        <ele>204.41999999999999</ele>
        <time>2025-05-04T14:56:38Z</time>
      </trkpt>
      <trkpt lat="38.917298968881369" lon="-9.315721029415727">
        <ele>207.30000000000001</ele>
        <time>2025-05-04T14:56:42Z</time>
      </trkpt>
      <trkpt lat="38.917195033282042" lon="-9.315745001658797">
        <ele>208.25999999999999</ele>
        <time>2025-05-04T14:56:43Z</time>
      </trkpt>
      <trkpt lat="38.917105011641979" lon="-9.315808033570647">
        <ele>209.22</ele>
        <time>2025-05-04T14:56:44Z</time>
      </trkpt>
      <trkpt lat="38.91702001914382" lon="-9.315867964178324">
        <ele>209.69999999999999</ele>
        <time>2025-05-04T14:56:45Z</time>
      </trkpt>
      <trkpt lat="38.916939971968532" lon="-9.315942982211709">
        <ele>210.66999999999999</ele>
        <time>2025-05-04T14:56:46Z</time>
      </trkpt>
      <trkpt lat="38.916725981980562" lon="-9.316209023818374">
        <ele>214.50999999999999</ele>
        <time>2025-05-04T14:56:49Z</time>
      </trkpt>
      <trkpt lat="38.916540993377566" lon="-9.316536001861095">
        <ele>218.36000000000001</ele>
        <time>2025-05-04T14:56:52Z</time>
      </trkpt>
      <trkpt lat="38.916492965072393" lon="-9.316620994359255">
        <ele>219.80000000000001</ele>
        <time>2025-05-04T14:56:53Z</time>
      </trkpt>
      <trkpt lat="38.916475027799606" lon="-9.316798020154238">
        <ele>220.75999999999999</ele>
        <time>2025-05-04T14:56:54Z</time>
      </trkpt>
      <trkpt lat="38.91646103002131" lon="-9.316936992108822">
        <ele>222.19999999999999</ele>
        <time>2025-05-04T14:56:55Z</time>
      </trkpt>
      <trkpt lat="38.916450971737504" lon="-9.317051991820335">
        <ele>223.16</ele>
        <time>2025-05-04T14:56:56Z</time>
      </trkpt>
      <trkpt lat="38.916483996436" lon="-9.317180989310145">
        <ele>223.63999999999999</ele>
        <time>2025-05-04T14:56:57Z</time>
      </trkpt>
      <trkpt lat="38.916519032791257" lon="-9.317315015941858">
        <ele>224.61000000000001</ele>
        <time>2025-05-04T14:56:58Z</time>
      </trkpt>
      <trkpt lat="38.916789013892412" lon="-9.318442968651652">
        <ele>230.37</ele>
        <time>2025-05-04T14:57:06Z</time>
      </trkpt>
      <trkpt lat="38.916836036369205" lon="-9.319518031552434">
        <ele>234.69999999999999</ele>
        <time>2025-05-04T14:57:13Z</time>
      </trkpt>
      <trkpt lat="38.916791025549173" lon="-9.319650968536735">
        <ele>235.18000000000001</ele>
        <time>2025-05-04T14:57:14Z</time>
      </trkpt>
      <trkpt lat="38.916742997244" lon="-9.319793041795492">
        <ele>235.18000000000001</ele>
        <time>2025-05-04T14:57:15Z</time>
      </trkpt>
      <trkpt lat="38.91626900061965" lon="-9.321286026388407">
        <ele>233.25999999999999</ele>
        <time>2025-05-04T14:57:25Z</time>
      </trkpt>
      <trkpt lat="38.916170010343194" lon="-9.321749964728952">
        <ele>233.25999999999999</ele>
        <time>2025-05-04T14:57:28Z</time>
      </trkpt>
      <trkpt lat="38.916138997301459" lon="-9.32189698331058">
        <ele>233.25999999999999</ele>
        <time>2025-05-04T14:57:29Z</time>
      </trkpt>
      <trkpt lat="38.916027015075088" lon="-9.322522021830082">
        <ele>234.22</ele>
        <time>2025-05-04T14:57:35Z</time>
      </trkpt>
      <trkpt lat="38.916023997589946" lon="-9.322597039863467">
        <ele>234.69999999999999</ele>
        <time>2025-05-04T14:57:36Z</time>
      </trkpt>
      <trkpt lat="38.916085017845035" lon="-9.322800971567631">
        <ele>235.18000000000001</ele>
        <time>2025-05-04T14:57:42Z</time>
      </trkpt>
      <trkpt lat="38.916035983711481" lon="-9.322850005701184">
        <ele>235.66</ele>
        <time>2025-05-04T14:57:43Z</time>
      </trkpt>
      <trkpt lat="38.915980998426676" lon="-9.32290499098599">
        <ele>235.66</ele>
        <time>2025-05-04T14:57:44Z</time>
      </trkpt>
      <trkpt lat="38.915915032848716" lon="-9.322975985705853">
        <ele>235.66</ele>
        <time>2025-05-04T14:57:45Z</time>
      </trkpt>
      <trkpt lat="38.915841020643711" lon="-9.323070030659437">
        <ele>235.66</ele>
        <time>2025-05-04T14:57:46Z</time>
      </trkpt>
      <trkpt lat="38.91551798209548" lon="-9.323542015627027">
        <ele>235.18000000000001</ele>
        <time>2025-05-04T14:57:50Z</time>
      </trkpt>
      <trkpt lat="38.914984976872802" lon="-9.324717996641994">
        <ele>234.22</ele>
        <time>2025-05-04T14:57:59Z</time>
      </trkpt>
      <trkpt lat="38.914395980536938" lon="-9.326311983168125">
        <ele>231.81</ele>
        <time>2025-05-04T14:58:10Z</time>
      </trkpt>
      <trkpt lat="38.91422800719738" lon="-9.326724959537387">
        <ele>230.84999999999999</ele>
        <time>2025-05-04T14:58:13Z</time>
      </trkpt>
      <trkpt lat="38.914155000820756" lon="-9.326860997825861">
        <ele>230.37</ele>
        <time>2025-05-04T14:58:14Z</time>
      </trkpt>
      <trkpt lat="38.914069002494216" lon="-9.326973985880613">
        <ele>229.88999999999999</ele>
        <time>2025-05-04T14:58:15Z</time>
      </trkpt>
      <trkpt lat="38.913950985297561" lon="-9.327038023620844">
        <ele>229.41</ele>
        <time>2025-05-04T14:58:16Z</time>
      </trkpt>
      <trkpt lat="38.913823999464512" lon="-9.327093008905649">
        <ele>228.93000000000001</ele>
        <time>2025-05-04T14:58:17Z</time>
      </trkpt>
      <trkpt lat="38.913695001974702" lon="-9.327141037210822">
        <ele>227.97</ele>
        <time>2025-05-04T14:58:18Z</time>
      </trkpt>
      <trkpt lat="38.913557035848498" lon="-9.327171966433525">
        <ele>227.00999999999999</ele>
        <time>2025-05-04T14:58:19Z</time>
      </trkpt>
      <trkpt lat="38.911955002695322" lon="-9.327588966116309">
        <ele>222.68000000000001</ele>
        <time>2025-05-04T14:58:31Z</time>
      </trkpt>
      <trkpt lat="38.910745996981859" lon="-9.32812700048089">
        <ele>220.75999999999999</ele>
        <time>2025-05-04T14:58:39Z</time>
      </trkpt>
      <trkpt lat="38.909095013514161" lon="-9.328608037903905">
        <ele>220.75999999999999</ele>
        <time>2025-05-04T14:58:48Z</time>
      </trkpt>
      <trkpt lat="38.906677002087235" lon="-9.32904900982976">
        <ele>212.59</ele>
        <time>2025-05-04T14:59:00Z</time>
      </trkpt>
      <trkpt lat="38.905866974964738" lon="-9.329130984842777">
        <ele>208.25999999999999</ele>
        <time>2025-05-04T14:59:04Z</time>
      </trkpt>
      <trkpt lat="38.905665976926684" lon="-9.329098965972662">
        <ele>206.81999999999999</ele>
        <time>2025-05-04T14:59:05Z</time>
      </trkpt>
      <trkpt lat="38.903712993487716" lon="-9.32844802737236">
        <ele>195.77000000000001</ele>
        <time>2025-05-04T14:59:14Z</time>
      </trkpt>
      <trkpt lat="38.901489023119211" lon="-9.327339017763734">
        <ele>183.27000000000001</ele>
        <time>2025-05-04T14:59:25Z</time>
      </trkpt>
      <trkpt lat="38.900581011548638" lon="-9.326695958152413">
        <ele>178.94</ele>
        <time>2025-05-04T14:59:30Z</time>
      </trkpt>
      <trkpt lat="38.900413038209081" lon="-9.326587999239564">
        <ele>178.46000000000001</ele>
        <time>2025-05-04T14:59:31Z</time>
      </trkpt>
      <trkpt lat="38.900229977443814" lon="-9.326521027833223">
        <ele>177.5</ele>
        <time>2025-05-04T14:59:32Z</time>
      </trkpt>
      <trkpt lat="38.898891974240541" lon="-9.326057005673647">
        <ele>172.69</ele>
        <time>2025-05-04T14:59:39Z</time>
      </trkpt>
      <trkpt lat="38.898727018386126" lon="-9.326005037873983">
        <ele>172.21000000000001</ele>
        <time>2025-05-04T14:59:40Z</time>
      </trkpt>
      <trkpt lat="38.898575976490974" lon="-9.326016018167138">
        <ele>171.72999999999999</ele>
        <time>2025-05-04T14:59:41Z</time>
      </trkpt>
      <trkpt lat="38.898428035899997" lon="-9.326036972925067">
        <ele>171.25</ele>
        <time>2025-05-04T14:59:42Z</time>
      </trkpt>
      <trkpt lat="38.898291997611523" lon="-9.326096987351775">
        <ele>171.25</ele>
        <time>2025-05-04T14:59:43Z</time>
      </trkpt>
      <trkpt lat="38.8981550373137" lon="-9.326164964586496">
        <ele>170.77000000000001</ele>
        <time>2025-05-04T14:59:44Z</time>
      </trkpt>
      <trkpt lat="38.898023022338748" lon="-9.326244005933404">
        <ele>170.77000000000001</ele>
        <time>2025-05-04T14:59:45Z</time>
      </trkpt>
      <trkpt lat="38.89790098182857" lon="-9.326346013695002">
        <ele>170.28999999999999</ele>
        <time>2025-05-04T14:59:46Z</time>
      </trkpt>
      <trkpt lat="38.897652961313725" lon="-9.326539970934391">
        <ele>168.84999999999999</ele>
        <time>2025-05-04T14:59:48Z</time>
      </trkpt>
      <trkpt lat="38.897514995187521" lon="-9.326574001461268">
        <ele>167.88999999999999</ele>
        <time>2025-05-04T14:59:49Z</time>
      </trkpt>
      <trkpt lat="38.897376023232937" lon="-9.326609037816525">
        <ele>166.44999999999999</ele>
        <time>2025-05-04T14:59:50Z</time>
      </trkpt>
      <trkpt lat="38.896298026666045" lon="-9.3268399592489">
        <ele>156.83000000000001</ele>
        <time>2025-05-04T14:59:58Z</time>
      </trkpt>
      <trkpt lat="38.894700016826391" lon="-9.326895028352737">
        <ele>142.88999999999999</ele>
        <time>2025-05-04T15:00:09Z</time>
      </trkpt>
      <trkpt lat="38.893190016970038" lon="-9.326819004490972">
        <ele>126.55</ele>
        <time>2025-05-04T15:00:19Z</time>
      </trkpt>
      <trkpt lat="38.89179702848196" lon="-9.327059984207153">
        <ele>109.25</ele>
        <time>2025-05-04T15:00:28Z</time>
      </trkpt>
      <trkpt lat="38.890876024961472" lon="-9.326975997537375">
        <ele>98.189999999999998</ele>
        <time>2025-05-04T15:00:35Z</time>
      </trkpt>
      <trkpt lat="38.88988402672112" lon="-9.326784973964095">
        <ele>84.730000000000004</ele>
        <time>2025-05-04T15:00:46Z</time>
      </trkpt>
      <trkpt lat="38.889670958742499" lon="-9.326774999499321">
        <ele>76.560000000000002</ele>
        <time>2025-05-04T15:00:53Z</time>
      </trkpt>
      <trkpt lat="38.889617985114455" lon="-9.32677298784256">
        <ele>75.599999999999994</ele>
        <time>2025-05-04T15:00:54Z</time>
      </trkpt>
      <trkpt lat="38.889555959030986" lon="-9.326776005327702">
        <ele>74.159999999999997</ele>
        <time>2025-05-04T15:00:55Z</time>
      </trkpt>
      <trkpt lat="38.889496028423309" lon="-9.326824033632875">
        <ele>73.200000000000003</ele>
        <time>2025-05-04T15:00:56Z</time>
      </trkpt>
      <trkpt lat="38.889427967369556" lon="-9.32687901891768">
        <ele>72.239999999999995</ele>
        <time>2025-05-04T15:00:57Z</time>
      </trkpt>
      <trkpt lat="38.889349009841681" lon="-9.326941967010498">
        <ele>70.790000000000006</ele>
        <time>2025-05-04T15:00:58Z</time>
      </trkpt>
      <trkpt lat="38.889292012900114" lon="-9.326998963952065">
        <ele>69.829999999999998</ele>
        <time>2025-05-04T15:00:59Z</time>
      </trkpt>
      <trkpt lat="38.889107024297118" lon="-9.32720398530364">
        <ele>66.950000000000003</ele>
        <time>2025-05-04T15:01:02Z</time>
      </trkpt>
      <trkpt lat="38.88904700987041" lon="-9.327275985851884">
        <ele>65.989999999999995</ele>
        <time>2025-05-04T15:01:03Z</time>
      </trkpt>
      <trkpt lat="38.888844000175595" lon="-9.327531969174743">
        <ele>64.069999999999993</ele>
        <time>2025-05-04T15:01:06Z</time>
      </trkpt>
      <trkpt lat="38.887877985835075" lon="-9.328694036230445">
        <ele>59.259999999999998</ele>
        <time>2025-05-04T15:01:18Z</time>
      </trkpt>
      <trkpt lat="38.887562993913889" lon="-9.329075999557972">
        <ele>59.259999999999998</ele>
        <time>2025-05-04T15:01:22Z</time>
      </trkpt>
      <trkpt lat="38.88749803416431" lon="-9.329183958470821">
        <ele>59.259999999999998</ele>
        <time>2025-05-04T15:01:23Z</time>
      </trkpt>
      <trkpt lat="38.887440031394362" lon="-9.329300969839096">
        <ele>59.259999999999998</ele>
        <time>2025-05-04T15:01:24Z</time>
      </trkpt>
      <trkpt lat="38.887130990624428" lon="-9.330064980313182">
        <ele>61.659999999999997</ele>
        <time>2025-05-04T15:01:30Z</time>
      </trkpt>
      <trkpt lat="38.887066030874848" lon="-9.33018802665174">
        <ele>62.140000000000001</ele>
        <time>2025-05-04T15:01:31Z</time>
      </trkpt>
      <trkpt lat="38.886961005628109" lon="-9.330266984179616">
        <ele>63.579999999999998</ele>
        <time>2025-05-04T15:01:32Z</time>
      </trkpt>
      <trkpt lat="38.886849023401737" lon="-9.330350970849395">
        <ele>64.549999999999997</ele>
        <time>2025-05-04T15:01:33Z</time>
      </trkpt>
      <trkpt lat="38.886716002598405" lon="-9.330414002761245">
        <ele>65.510000000000005</ele>
        <time>2025-05-04T15:01:34Z</time>
      </trkpt>
      <trkpt lat="38.886577030643821" lon="-9.33046898804605">
        <ele>66.469999999999999</ele>
        <time>2025-05-04T15:01:35Z</time>
      </trkpt>
      <trkpt lat="38.886430012062192" lon="-9.330525984987617">
        <ele>67.909999999999997</ele>
        <time>2025-05-04T15:01:36Z</time>
      </trkpt>
      <trkpt lat="38.88580396771431" lon="-9.330676021054387">
        <ele>72.719999999999999</ele>
        <time>2025-05-04T15:01:40Z</time>
      </trkpt>
      <trkpt lat="38.885185969993472" lon="-9.330967040732503">
        <ele>79.450000000000003</ele>
        <time>2025-05-04T15:01:45Z</time>
      </trkpt>
      <trkpt lat="38.885069964453578" lon="-9.330996964126825">
        <ele>80.890000000000001</ele>
        <time>2025-05-04T15:01:46Z</time>
      </trkpt>
      <trkpt lat="38.884951025247574" lon="-9.331011967733502">
        <ele>82.329999999999998</ele>
        <time>2025-05-04T15:01:47Z</time>
      </trkpt>
      <trkpt lat="38.884837031364441" lon="-9.330971986055374">
        <ele>83.769999999999996</ele>
        <time>2025-05-04T15:01:48Z</time>
      </trkpt>
      <trkpt lat="38.884724965319037" lon="-9.330933010205627">
        <ele>85.209999999999994</ele>
        <time>2025-05-04T15:01:49Z</time>
      </trkpt>
      <trkpt lat="38.884508041664958" lon="-9.330857992172241">
        <ele>87.620000000000005</ele>
        <time>2025-05-04T15:01:51Z</time>
      </trkpt>
      <trkpt lat="38.884394969791174" lon="-9.330860003829002">
        <ele>88.579999999999998</ele>
        <time>2025-05-04T15:01:52Z</time>
      </trkpt>
      <trkpt lat="38.884288016706705" lon="-9.330877019092441">
        <ele>89.540000000000006</ele>
        <time>2025-05-04T15:01:53Z</time>
      </trkpt>
      <trkpt lat="38.884179973974824" lon="-9.330917000770569">
        <ele>90.5</ele>
        <time>2025-05-04T15:01:54Z</time>
      </trkpt>
      <trkpt lat="38.884100010618567" lon="-9.331034012138844">
        <ele>90.980000000000004</ele>
        <time>2025-05-04T15:01:55Z</time>
      </trkpt>
      <trkpt lat="38.884005965664983" lon="-9.331168960779905">
        <ele>91.939999999999998</ele>
        <time>2025-05-04T15:01:56Z</time>
      </trkpt>
      <trkpt lat="38.883951986208558" lon="-9.331304999068379">
        <ele>92.420000000000002</ele>
        <time>2025-05-04T15:01:57Z</time>
      </trkpt>
      <trkpt lat="38.883889960125089" lon="-9.33145796880126">
        <ele>93.390000000000001</ele>
        <time>2025-05-04T15:01:58Z</time>
      </trkpt>
      <trkpt lat="38.883886020630598" lon="-9.331643041223288">
        <ele>94.349999999999994</ele>
        <time>2025-05-04T15:01:59Z</time>
      </trkpt>
      <trkpt lat="38.883898006752133" lon="-9.331823000684381">
        <ele>95.310000000000002</ele>
        <time>2025-05-04T15:02:00Z</time>
      </trkpt>
      <trkpt lat="38.883908987045288" lon="-9.332012012600899">
        <ele>96.269999999999996</ele>
        <time>2025-05-04T15:02:01Z</time>
      </trkpt>
      <trkpt lat="38.883920973166823" lon="-9.332207981497049">
        <ele>96.75</ele>
        <time>2025-05-04T15:02:02Z</time>
      </trkpt>
      <trkpt lat="38.883932959288359" lon="-9.33240101672709">
        <ele>97.230000000000004</ele>
        <time>2025-05-04T15:02:03Z</time>
      </trkpt>
      <trkpt lat="38.883931031450629" lon="-9.332591034471989">
        <ele>98.189999999999998</ele>
        <time>2025-05-04T15:02:04Z</time>
      </trkpt>
      <trkpt lat="38.88389197178185" lon="-9.332765964791179">
        <ele>98.670000000000002</ele>
        <time>2025-05-04T15:02:05Z</time>
      </trkpt>
      <trkpt lat="38.883851990103722" lon="-9.3329409789294">
        <ele>99.629999999999995</ele>
        <time>2025-05-04T15:02:06Z</time>
      </trkpt>
      <trkpt lat="38.883792981505394" lon="-9.333115993067622">
        <ele>100.59999999999999</ele>
        <time>2025-05-04T15:02:07Z</time>
      </trkpt>
      <trkpt lat="38.883735984563828" lon="-9.333290001377463">
        <ele>101.08</ele>
        <time>2025-05-04T15:02:08Z</time>
      </trkpt>
      <trkpt lat="38.88369700871408" lon="-9.333481024950743">
        <ele>102.04000000000001</ele>
        <time>2025-05-04T15:02:09Z</time>
      </trkpt>
      <trkpt lat="38.883684016764164" lon="-9.333637012168765">
        <ele>102.52</ele>
        <time>2025-05-04T15:02:10Z</time>
      </trkpt>
      <trkpt lat="38.883731039240956" lon="-9.333848990499973">
        <ele>103.48</ele>
        <time>2025-05-04T15:02:11Z</time>
      </trkpt>
      <trkpt lat="38.883771020919085" lon="-9.334029033780098">
        <ele>104.44</ele>
        <time>2025-05-04T15:02:12Z</time>
      </trkpt>
      <trkpt lat="38.883926002308726" lon="-9.334879964590073">
        <ele>108.29000000000001</ele>
        <time>2025-05-04T15:02:17Z</time>
      </trkpt>
      <trkpt lat="38.883904963731766" lon="-9.334995970129967">
        <ele>108.77</ele>
        <time>2025-05-04T15:02:18Z</time>
      </trkpt>
      <trkpt lat="38.883861964568496" lon="-9.335038969293237">
        <ele>109.73</ele>
        <time>2025-05-04T15:02:19Z</time>
      </trkpt>
      <trkpt lat="38.883790969848633" lon="-9.335052967071533">
        <ele>110.69</ele>
        <time>2025-05-04T15:02:20Z</time>
      </trkpt>
      <trkpt lat="38.883745959028602" lon="-9.335022959858179">
        <ele>111.65000000000001</ele>
        <time>2025-05-04T15:02:21Z</time>
      </trkpt>
      <trkpt lat="38.883717963472009" lon="-9.334992030635476">
        <ele>112.13</ele>
        <time>2025-05-04T15:02:22Z</time>
      </trkpt>
      <trkpt lat="38.883673958480358" lon="-9.334905026480556">
        <ele>113.09</ele>
        <time>2025-05-04T15:02:23Z</time>
      </trkpt>
      <trkpt lat="38.883618973195553" lon="-9.334794972091913">
        <ele>114.05</ele>
        <time>2025-05-04T15:02:24Z</time>
      </trkpt>
      <trkpt lat="38.883553007617593" lon="-9.334662035107613">
        <ele>114.53</ele>
        <time>2025-05-04T15:02:25Z</time>
      </trkpt>
      <trkpt lat="38.883480001240969" lon="-9.334516022354364">
        <ele>115.98</ele>
        <time>2025-05-04T15:02:26Z</time>
      </trkpt>
      <trkpt lat="38.88285999186337" lon="-9.333151029422879">
        <ele>123.19</ele>
        <time>2025-05-04T15:02:33Z</time>
      </trkpt>
      <trkpt lat="38.88279402628541" lon="-9.332922035828233">
        <ele>124.15000000000001</ele>
        <time>2025-05-04T15:02:34Z</time>
      </trkpt>
      <trkpt lat="38.882767036557198" lon="-9.332690024748445">
        <ele>125.11</ele>
        <time>2025-05-04T15:02:35Z</time>
      </trkpt>
      <trkpt lat="38.882676009088755" lon="-9.331899024546146">
        <ele>129.43000000000001</ele>
        <time>2025-05-04T15:02:39Z</time>
      </trkpt>
      <trkpt lat="38.882628986611962" lon="-9.331732979044318">
        <ele>130.40000000000001</ele>
        <time>2025-05-04T15:02:40Z</time>
      </trkpt>
      <trkpt lat="38.882249034941196" lon="-9.330173023045063">
        <ele>139.53</ele>
        <time>2025-05-04T15:02:50Z</time>
      </trkpt>
      <trkpt lat="38.882188014686108" lon="-9.330092975869775">
        <ele>140.49000000000001</ele>
        <time>2025-05-04T15:02:51Z</time>
      </trkpt>
      <trkpt lat="38.882118025794625" lon="-9.330011000856757">
        <ele>141.44999999999999</ele>
        <time>2025-05-04T15:02:52Z</time>
      </trkpt>
      <trkpt lat="38.882034961134195" lon="-9.329991973936558">
        <ele>142.41</ele>
        <time>2025-05-04T15:02:53Z</time>
      </trkpt>
      <trkpt lat="38.881945023313165" lon="-9.32997202500701">
        <ele>142.88999999999999</ele>
        <time>2025-05-04T15:02:54Z</time>
      </trkpt>
      <trkpt lat="38.881860030815005" lon="-9.32997202500701">
        <ele>143.84999999999999</ele>
        <time>2025-05-04T15:02:55Z</time>
      </trkpt>
      <trkpt lat="38.880808018147945" lon="-9.329998008906841">
        <ele>153.47</ele>
        <time>2025-05-04T15:03:05Z</time>
      </trkpt>
      <trkpt lat="38.879897994920611" lon="-9.329774966463447">
        <ele>161.16</ele>
        <time>2025-05-04T15:03:12Z</time>
      </trkpt>
      <trkpt lat="38.879772014915943" lon="-9.32975996285677">
        <ele>162.59999999999999</ele>
        <time>2025-05-04T15:03:13Z</time>
      </trkpt>
      <trkpt lat="38.878597039729357" lon="-9.329774966463447">
        <ele>171.72999999999999</ele>
        <time>2025-05-04T15:03:22Z</time>
      </trkpt>
      <trkpt lat="38.87714697048068" lon="-9.329734984785318">
        <ele>176.53999999999999</ele>
        <time>2025-05-04T15:03:32Z</time>
      </trkpt>
      <trkpt lat="38.875150987878442" lon="-9.329811008647084">
        <ele>178.94</ele>
        <time>2025-05-04T15:03:45Z</time>
      </trkpt>
      <trkpt lat="38.873529005795717" lon="-9.329731967300177">
        <ele>177.97999999999999</ele>
        <time>2025-05-04T15:03:56Z</time>
      </trkpt>
      <trkpt lat="38.871825970709324" lon="-9.329847972840071">
        <ele>174.13999999999999</ele>
        <time>2025-05-04T15:04:07Z</time>
      </trkpt>
      <trkpt lat="38.871680963784456" lon="-9.329902036115527">
        <ele>173.66</ele>
        <time>2025-05-04T15:04:08Z</time>
      </trkpt>
      <trkpt lat="38.871532017365098" lon="-9.3299759645015">
        <ele>172.69</ele>
        <time>2025-05-04T15:04:09Z</time>
      </trkpt>
      <trkpt lat="38.871403019875288" lon="-9.330110996961594">
        <ele>171.72999999999999</ele>
        <time>2025-05-04T15:04:10Z</time>
      </trkpt>
      <trkpt lat="38.871266981586814" lon="-9.33025298640132">
        <ele>171.25</ele>
        <time>2025-05-04T15:04:11Z</time>
      </trkpt>
      <trkpt lat="38.869757987558842" lon="-9.331899024546146">
        <ele>164.52000000000001</ele>
        <time>2025-05-04T15:04:21Z</time>
      </trkpt>
      <trkpt lat="38.869617003947496" lon="-9.332092981785536">
        <ele>163.56</ele>
        <time>2025-05-04T15:04:22Z</time>
      </trkpt>
      <trkpt lat="38.869477026164532" lon="-9.332285011187196">
        <ele>162.59999999999999</ele>
        <time>2025-05-04T15:04:23Z</time>
      </trkpt>
      <trkpt lat="38.868263997137547" lon="-9.333811020478606">
        <ele>154.43000000000001</ele>
        <time>2025-05-04T15:04:31Z</time>
      </trkpt>
      <trkpt lat="38.866408998146653" lon="-9.335398972034454">
        <ele>146.25999999999999</ele>
        <time>2025-05-04T15:04:40Z</time>
      </trkpt>
      <trkpt lat="38.863668031990528" lon="-9.337582038715482">
        <ele>138.56999999999999</ele>
        <time>2025-05-04T15:04:52Z</time>
      </trkpt>
      <trkpt lat="38.860809970647097" lon="-9.339693021029234">
        <ele>128.47</ele>
        <time>2025-05-04T15:05:04Z</time>
      </trkpt>
      <trkpt lat="38.858613995835185" lon="-9.340898003429174">
        <ele>117.90000000000001</ele>
        <time>2025-05-04T15:05:13Z</time>
      </trkpt>
      <trkpt lat="38.857026966288686" lon="-9.342183033004403">
        <ele>108.77</ele>
        <time>2025-05-04T15:05:20Z</time>
      </trkpt>
      <trkpt lat="38.855328038334846" lon="-9.344384036958218">
        <ele>100.59999999999999</ele>
        <time>2025-05-04T15:05:29Z</time>
      </trkpt>
      <trkpt lat="38.854879019781947" lon="-9.345808960497379">
        <ele>98.189999999999998</ele>
        <time>2025-05-04T15:05:34Z</time>
      </trkpt>
      <trkpt lat="38.854469982907176" lon="-9.347863029688597">
        <ele>100.11</ele>
        <time>2025-05-04T15:05:41Z</time>
      </trkpt>
      <trkpt lat="38.854355989024043" lon="-9.348123036324978">
        <ele>101.08</ele>
        <time>2025-05-04T15:05:42Z</time>
      </trkpt>
      <trkpt lat="38.854230009019375" lon="-9.348397040739656">
        <ele>102.04000000000001</ele>
        <time>2025-05-04T15:05:43Z</time>
      </trkpt>
      <trkpt lat="38.854058012366295" lon="-9.348629973828793">
        <ele>103</ele>
        <time>2025-05-04T15:05:44Z</time>
      </trkpt>
      <trkpt lat="38.853881992399693" lon="-9.348867014050484">
        <ele>103.48</ele>
        <time>2025-05-04T15:05:45Z</time>
      </trkpt>
      <trkpt lat="38.853687029331923" lon="-9.349056025967002">
        <ele>104.44</ele>
        <time>2025-05-04T15:05:46Z</time>
      </trkpt>
      <trkpt lat="38.853476978838444" lon="-9.349218970164657">
        <ele>105.40000000000001</ele>
        <time>2025-05-04T15:05:47Z</time>
      </trkpt>
      <trkpt lat="38.853246979415417" lon="-9.349357020109892">
        <ele>106.84</ele>
        <time>2025-05-04T15:05:48Z</time>
      </trkpt>
      <trkpt lat="38.852998036891222" lon="-9.349447041749954">
        <ele>108.29000000000001</ele>
        <time>2025-05-04T15:05:49Z</time>
      </trkpt>
      <trkpt lat="38.852748004719615" lon="-9.349536979570985">
        <ele>109.25</ele>
        <time>2025-05-04T15:05:50Z</time>
      </trkpt>
      <trkpt lat="38.852495038881898" lon="-9.349609985947609">
        <ele>110.20999999999999</ele>
        <time>2025-05-04T15:05:51Z</time>
      </trkpt>
      <trkpt lat="38.852234026417136" lon="-9.349642004817724">
        <ele>111.17</ele>
        <time>2025-05-04T15:05:52Z</time>
      </trkpt>
      <trkpt lat="38.851963961496949" lon="-9.349662959575653">
        <ele>111.65000000000001</ele>
        <time>2025-05-04T15:05:53Z</time>
      </trkpt>
      <trkpt lat="38.849517032504082" lon="-9.349637981504202">
        <ele>118.38</ele>
        <time>2025-05-04T15:06:02Z</time>
      </trkpt>
      <trkpt lat="38.846897017210722" lon="-9.349749963730574">
        <ele>125.59</ele>
        <time>2025-05-04T15:06:12Z</time>
      </trkpt>
      <trkpt lat="38.846642039716244" lon="-9.349700007587671">
        <ele>126.55</ele>
        <time>2025-05-04T15:06:13Z</time>
      </trkpt>
      <trkpt lat="38.844665000215173" lon="-9.349368000403047">
        <ele>133.28</ele>
        <time>2025-05-04T15:06:21Z</time>
      </trkpt>
      <trkpt lat="38.843662021681666" lon="-9.349465984851122">
        <ele>134.24000000000001</ele>
        <time>2025-05-04T15:06:25Z</time>
      </trkpt>
      <trkpt lat="38.843419030308723" lon="-9.349562963470817">
        <ele>134.24000000000001</ele>
        <time>2025-05-04T15:06:26Z</time>
      </trkpt>
      <trkpt lat="38.843172015622258" lon="-9.349677041172981">
        <ele>133.75999999999999</ele>
        <time>2025-05-04T15:06:27Z</time>
      </trkpt>
      <trkpt lat="38.84296003729105" lon="-9.349840991199017">
        <ele>133.75999999999999</ele>
        <time>2025-05-04T15:06:28Z</time>
      </trkpt>
      <trkpt lat="38.842746969312429" lon="-9.350004019215703">
        <ele>133.28</ele>
        <time>2025-05-04T15:06:29Z</time>
      </trkpt>
      <trkpt lat="38.842533985152841" lon="-9.350209962576628">
        <ele>132.80000000000001</ele>
        <time>2025-05-04T15:06:30Z</time>
      </trkpt>
      <trkpt lat="38.842341033741832" lon="-9.35044901445508">
        <ele>132.31999999999999</ele>
        <time>2025-05-04T15:06:31Z</time>
      </trkpt>
      <trkpt lat="38.842141963541508" lon="-9.350696029141545">
        <ele>131.36000000000001</ele>
        <time>2025-05-04T15:06:32Z</time>
      </trkpt>
      <trkpt lat="38.841974996030331" lon="-9.350956035777926">
        <ele>130.88</ele>
        <time>2025-05-04T15:06:33Z</time>
      </trkpt>
      <trkpt lat="38.841834012418985" lon="-9.351204978302121">
        <ele>130.40000000000001</ele>
        <time>2025-05-04T15:06:34Z</time>
      </trkpt>
      <trkpt lat="38.841300001367927" lon="-9.352138973772526">
        <ele>129.43000000000001</ele>
        <time>2025-05-04T15:06:39Z</time>
      </trkpt>
      <trkpt lat="38.840658031404018" lon="-9.352929973974824">
        <ele>128.94999999999999</ele>
        <time>2025-05-04T15:06:46Z</time>
      </trkpt>
      <trkpt lat="38.839398985728621" lon="-9.353901017457247">
        <ele>125.11</ele>
        <time>2025-05-04T15:06:56Z</time>
      </trkpt>
      <trkpt lat="38.837777003645897" lon="-9.35519702732563">
        <ele>127.03</ele>
        <time>2025-05-04T15:07:10Z</time>
      </trkpt>
      <trkpt lat="38.836493985727429" lon="-9.355783006176353">
        <ele>129.91999999999999</ele>
        <time>2025-05-04T15:07:20Z</time>
      </trkpt>
      <trkpt lat="38.835426969453692" lon="-9.356022980064154">
        <ele>132.80000000000001</ele>
        <time>2025-05-04T15:07:29Z</time>
      </trkpt>
      <trkpt lat="38.835286991670728" lon="-9.3561000097543">
        <ele>133.28</ele>
        <time>2025-05-04T15:07:30Z</time>
      </trkpt>
      <trkpt lat="38.835266958922148" lon="-9.356179973110557">
        <ele>134.24000000000001</ele>
        <time>2025-05-04T15:07:31Z</time>
      </trkpt>
      <trkpt lat="38.835253966972232" lon="-9.356232024729252">
        <ele>135.19999999999999</ele>
        <time>2025-05-04T15:07:32Z</time>
      </trkpt>
      <trkpt lat="38.835176015272737" lon="-9.356264965608716">
        <ele>136.16</ele>
        <time>2025-05-04T15:07:33Z</time>
      </trkpt>
      <trkpt lat="38.835093034431338" lon="-9.356289021670818">
        <ele>137.13</ele>
        <time>2025-05-04T15:07:34Z</time>
      </trkpt>
      <trkpt lat="38.835039976984262" lon="-9.356252979487181">
        <ele>138.09</ele>
        <time>2025-05-04T15:07:35Z</time>
      </trkpt>
      <trkpt lat="38.834930006414652" lon="-9.356131022796035">
        <ele>138.56999999999999</ele>
        <time>2025-05-04T15:07:36Z</time>
      </trkpt>
      <trkpt lat="38.83484099060297" lon="-9.356144014745951">
        <ele>138.56999999999999</ele>
        <time>2025-05-04T15:07:37Z</time>
      </trkpt>
      <trkpt lat="38.834738982841372" lon="-9.35616304166615">
        <ele>139.05000000000001</ele>
        <time>2025-05-04T15:07:38Z</time>
      </trkpt>
      <trkpt lat="38.834633035585284" lon="-9.356183996424079">
        <ele>139.05000000000001</ele>
        <time>2025-05-04T15:07:39Z</time>
      </trkpt>
      <trkpt lat="38.833413971588016" lon="-9.356441991403699">
        <ele>144.34</ele>
        <time>2025-05-04T15:07:50Z</time>
      </trkpt>
      <trkpt lat="38.832359025254846" lon="-9.356648018583655">
        <ele>144.81999999999999</ele>
        <time>2025-05-04T15:08:01Z</time>
      </trkpt>
      <trkpt lat="38.832250982522964" lon="-9.356668973341584">
        <ele>144.81999999999999</ele>
        <time>2025-05-04T15:08:02Z</time>
      </trkpt>
      <trkpt lat="38.831344982609153" lon="-9.356854967772961">
        <ele>144.81999999999999</ele>
        <time>2025-05-04T15:08:09Z</time>
      </trkpt>
      <trkpt lat="38.830966036766768" lon="-9.356940966099501">
        <ele>144.34</ele>
        <time>2025-05-04T15:08:14Z</time>
      </trkpt>
      <trkpt lat="38.830506959930062" lon="-9.357046997174621">
        <ele>144.34</ele>
        <time>2025-05-04T15:08:22Z</time>
      </trkpt>
      <trkpt lat="38.83021904155612" lon="-9.357108017429709">
        <ele>144.81999999999999</ele>
        <time>2025-05-04T15:08:29Z</time>
      </trkpt>
      <trkpt lat="38.829531976953149" lon="-9.357235003262758">
        <ele>144.34</ele>
        <time>2025-05-04T15:08:39Z</time>
      </trkpt>
      <trkpt lat="38.828808031976223" lon="-9.357393002137542">
        <ele>143.37</ele>
        <time>2025-05-04T15:08:50Z</time>
      </trkpt>
      <trkpt lat="38.828261028975248" lon="-9.357516970485449">
        <ele>140.49000000000001</ele>
        <time>2025-05-04T15:09:00Z</time>
      </trkpt>
      <trkpt lat="38.827742021530867" lon="-9.357628030702472">
        <ele>137.13</ele>
        <time>2025-05-04T15:09:12Z</time>
      </trkpt>
      <trkpt lat="38.827152019366622" lon="-9.357744036242366">
        <ele>138.09</ele>
        <time>2025-05-04T15:09:22Z</time>
      </trkpt>
      <trkpt lat="38.826438970863819" lon="-9.357890971004963">
        <ele>141.93000000000001</ele>
        <time>2025-05-04T15:09:31Z</time>
      </trkpt>
      <trkpt lat="38.82573002949357" lon="-9.358040001243353">
        <ele>142.88999999999999</ele>
        <time>2025-05-04T15:09:41Z</time>
      </trkpt>
      <trkpt lat="38.824822017922997" lon="-9.358228007331491">
        <ele>142.88999999999999</ele>
        <time>2025-05-04T15:09:49Z</time>
      </trkpt>
      <trkpt lat="38.823580993339419" lon="-9.358492959290743">
        <ele>145.30000000000001</ele>
        <time>2025-05-04T15:09:58Z</time>
      </trkpt>
      <trkpt lat="38.821861026808619" lon="-9.35887198895216">
        <ele>149.13999999999999</ele>
        <time>2025-05-04T15:10:10Z</time>
      </trkpt>
      <trkpt lat="38.820300986990333" lon="-9.359297035261989">
        <ele>153.47</ele>
        <time>2025-05-04T15:10:19Z</time>
      </trkpt>
      <trkpt lat="38.81814599968493" lon="-9.359571961686015">
        <ele>163.08000000000001</ele>
        <time>2025-05-04T15:10:29Z</time>
      </trkpt>
      <trkpt lat="38.816378004848957" lon="-9.359335005283356">
        <ele>170.28999999999999</ele>
        <time>2025-05-04T15:10:38Z</time>
      </trkpt>
      <trkpt lat="38.814690979197621" lon="-9.35882898978889">
        <ele>170.77000000000001</ele>
        <time>2025-05-04T15:10:47Z</time>
      </trkpt>
      <trkpt lat="38.81247497163713" lon="-9.357919972389936">
        <ele>175.58000000000001</ele>
        <time>2025-05-04T15:10:58Z</time>
      </trkpt>
      <trkpt lat="38.810986010357738" lon="-9.35751898214221">
        <ele>181.83000000000001</ele>
        <time>2025-05-04T15:11:04Z</time>
      </trkpt>
      <trkpt lat="38.81073203869164" lon="-9.357525017112494">
        <ele>183.27000000000001</ele>
        <time>2025-05-04T15:11:05Z</time>
      </trkpt>
      <trkpt lat="38.809245005249977" lon="-9.35771101154387">
        <ele>192.40000000000001</ele>
        <time>2025-05-04T15:11:11Z</time>
      </trkpt>
      <trkpt lat="38.807344995439053" lon="-9.358694041147828">
        <ele>200.56999999999999</ele>
        <time>2025-05-04T15:11:20Z</time>
      </trkpt>
      <trkpt lat="38.806142024695873" lon="-9.359916960820556">
        <ele>202.49000000000001</ele>
        <time>2025-05-04T15:11:27Z</time>
      </trkpt>
      <trkpt lat="38.805424030870199" lon="-9.360951958224177">
        <ele>200.56999999999999</ele>
        <time>2025-05-04T15:11:33Z</time>
      </trkpt>
      <trkpt lat="38.80536301061511" lon="-9.361125966534019">
        <ele>200.09</ele>
        <time>2025-05-04T15:11:34Z</time>
      </trkpt>
      <trkpt lat="38.805301990360022" lon="-9.36129997484386">
        <ele>199.61000000000001</ele>
        <time>2025-05-04T15:11:35Z</time>
      </trkpt>
      <trkpt lat="38.805239964276552" lon="-9.361474988982081">
        <ele>199.13</ele>
        <time>2025-05-04T15:11:36Z</time>
      </trkpt>
      <trkpt lat="38.80521398037672" lon="-9.361673975363374">
        <ele>198.16999999999999</ele>
        <time>2025-05-04T15:11:37Z</time>
      </trkpt>
      <trkpt lat="38.805193025618792" lon="-9.361869022250176">
        <ele>197.69</ele>
        <time>2025-05-04T15:11:38Z</time>
      </trkpt>
      <trkpt lat="38.80517098121345" lon="-9.362063985317946">
        <ele>197.21000000000001</ele>
        <time>2025-05-04T15:11:39Z</time>
      </trkpt>
      <trkpt lat="38.805149020627141" lon="-9.362259032204747">
        <ele>197.21000000000001</ele>
        <time>2025-05-04T15:11:40Z</time>
      </trkpt>
      <trkpt lat="38.805064028128982" lon="-9.362858003005385">
        <ele>196.72999999999999</ele>
        <time>2025-05-04T15:11:43Z</time>
      </trkpt>
      <trkpt lat="38.805023962631822" lon="-9.363055983558297">
        <ele>196.72999999999999</ele>
        <time>2025-05-04T15:11:44Z</time>
      </trkpt>
      <trkpt lat="38.804927989840508" lon="-9.363219011574984">
        <ele>196.72999999999999</ele>
        <time>2025-05-04T15:11:45Z</time>
      </trkpt>
      <trkpt lat="38.80482698790729" lon="-9.363373992964625">
        <ele>196.72999999999999</ele>
        <time>2025-05-04T15:11:46Z</time>
      </trkpt>
      <trkpt lat="38.804723974317312" lon="-9.36353299766779">
        <ele>197.21000000000001</ele>
        <time>2025-05-04T15:11:47Z</time>
      </trkpt>
      <trkpt lat="38.804404959082603" lon="-9.364040018990636">
        <ele>198.16999999999999</ele>
        <time>2025-05-04T15:11:50Z</time>
      </trkpt>
      <trkpt lat="38.80433295853436" lon="-9.364239005371928">
        <ele>198.65000000000001</ele>
        <time>2025-05-04T15:11:51Z</time>
      </trkpt>
      <trkpt lat="38.804261041805148" lon="-9.364437991753221">
        <ele>199.13</ele>
        <time>2025-05-04T15:11:52Z</time>
      </trkpt>
      <trkpt lat="38.804200021550059" lon="-9.364649970084429">
        <ele>199.13</ele>
        <time>2025-05-04T15:11:53Z</time>
      </trkpt>
      <trkpt lat="38.804141012951732" lon="-9.364901008084416">
        <ele>199.61000000000001</ele>
        <time>2025-05-04T15:11:54Z</time>
      </trkpt>
      <trkpt lat="38.804121986031532" lon="-9.365118015557528">
        <ele>199.13</ele>
        <time>2025-05-04T15:11:55Z</time>
      </trkpt>
      <trkpt lat="38.803898021578789" lon="-9.367540972307324">
        <ele>198.65000000000001</ele>
        <time>2025-05-04T15:12:04Z</time>
      </trkpt>
      <trkpt lat="38.803993994370103" lon="-9.369017025455833">
        <ele>200.09</ele>
        <time>2025-05-04T15:12:10Z</time>
      </trkpt>
      <trkpt lat="38.804143024608493" lon="-9.370114970952272">
        <ele>202.00999999999999</ele>
        <time>2025-05-04T15:12:15Z</time>
      </trkpt>
      <trkpt lat="38.804062977433205" lon="-9.371090959757567">
        <ele>203.46000000000001</ele>
        <time>2025-05-04T15:12:19Z</time>
      </trkpt>
      <trkpt lat="38.803997011855245" lon="-9.371306039392948">
        <ele>203.94</ele>
        <time>2025-05-04T15:12:20Z</time>
      </trkpt>
      <trkpt lat="38.803931968286633" lon="-9.371501002460718">
        <ele>204.41999999999999</ele>
        <time>2025-05-04T15:12:21Z</time>
      </trkpt>
      <trkpt lat="38.80379400216043" lon="-9.371807025745511">
        <ele>204.90000000000001</ele>
        <time>2025-05-04T15:12:23Z</time>
      </trkpt>
      <trkpt lat="38.803754020482302" lon="-9.371961001306772">
        <ele>205.38</ele>
        <time>2025-05-04T15:12:24Z</time>
      </trkpt>
      <trkpt lat="38.803743040189147" lon="-9.37210701406002">
        <ele>205.38</ele>
        <time>2025-05-04T15:12:25Z</time>
      </trkpt>
      <trkpt lat="38.803711021319032" lon="-9.372153030708432">
        <ele>205.38</ele>
        <time>2025-05-04T15:12:26Z</time>
      </trkpt>
      <trkpt lat="38.803567020222545" lon="-9.372232994064689">
        <ele>204.90000000000001</ele>
        <time>2025-05-04T15:12:27Z</time>
      </trkpt>
      <trkpt lat="38.803480016067624" lon="-9.372319998219609">
        <ele>204.90000000000001</ele>
        <time>2025-05-04T15:12:28Z</time>
      </trkpt>
      <trkpt lat="38.803381025791168" lon="-9.372419994324446">
        <ele>204.90000000000001</ele>
        <time>2025-05-04T15:12:29Z</time>
      </trkpt>
      <trkpt lat="38.803276000544429" lon="-9.372548991814256">
        <ele>204.90000000000001</ele>
        <time>2025-05-04T15:12:30Z</time>
      </trkpt>
      <trkpt lat="38.803198970854282" lon="-9.372698022052646">
        <ele>204.90000000000001</ele>
        <time>2025-05-04T15:12:31Z</time>
      </trkpt>
      <trkpt lat="38.802985986694694" lon="-9.373157015070319">
        <ele>204.90000000000001</ele>
        <time>2025-05-04T15:12:34Z</time>
      </trkpt>
      <trkpt lat="38.802949022501707" lon="-9.373325994238257">
        <ele>203.94</ele>
        <time>2025-05-04T15:12:35Z</time>
      </trkpt>
      <trkpt lat="38.802912980318069" lon="-9.373492039740086">
        <ele>203.46000000000001</ele>
        <time>2025-05-04T15:12:36Z</time>
      </trkpt>
      <trkpt lat="38.802852965891361" lon="-9.373939968645573">
        <ele>202.00999999999999</ele>
        <time>2025-05-04T15:12:39Z</time>
      </trkpt>
      <trkpt lat="38.802778031677008" lon="-9.375850036740303">
        <ele>197.21000000000001</ele>
        <time>2025-05-04T15:12:51Z</time>
      </trkpt>
      <trkpt lat="38.802733020856977" lon="-9.377179993316531">
        <ele>195.28</ele>
        <time>2025-05-04T15:12:59Z</time>
      </trkpt>
      <trkpt lat="38.802702007815242" lon="-9.377875020727515">
        <ele>194.80000000000001</ele>
        <time>2025-05-04T15:13:05Z</time>
      </trkpt>
      <trkpt lat="38.802692033350468" lon="-9.377968981862068">
        <ele>194.80000000000001</ele>
        <time>2025-05-04T15:13:06Z</time>
      </trkpt>
      <trkpt lat="38.802653979510069" lon="-9.378094039857388">
        <ele>194.80000000000001</ele>
        <time>2025-05-04T15:13:07Z</time>
      </trkpt>
      <trkpt lat="38.802598994225264" lon="-9.378131004050374">
        <ele>194.80000000000001</ele>
        <time>2025-05-04T15:13:08Z</time>
      </trkpt>
      <trkpt lat="38.802552977576852" lon="-9.378162017092109">
        <ele>194.80000000000001</ele>
        <time>2025-05-04T15:13:09Z</time>
      </trkpt>
      <trkpt lat="38.802414005622268" lon="-9.378204010426998">
        <ele>194.80000000000001</ele>
        <time>2025-05-04T15:13:10Z</time>
      </trkpt>
      <trkpt lat="38.80239799618721" lon="-9.378308029845357">
        <ele>194.80000000000001</ele>
        <time>2025-05-04T15:13:11Z</time>
      </trkpt>
      <trkpt lat="38.802378969267011" lon="-9.378424035385251">
        <ele>194.31999999999999</ele>
        <time>2025-05-04T15:13:12Z</time>
      </trkpt>
      <trkpt lat="38.802360026165843" lon="-9.378550015389919">
        <ele>194.31999999999999</ele>
        <time>2025-05-04T15:13:13Z</time>
      </trkpt>
      <trkpt lat="38.802360026165843" lon="-9.378682030364871">
        <ele>194.31999999999999</ele>
        <time>2025-05-04T15:13:14Z</time>
      </trkpt>
      <trkpt lat="38.802365977317095" lon="-9.380152970552445">
        <ele>200.56999999999999</ele>
        <time>2025-05-04T15:13:26Z</time>
      </trkpt>
      <trkpt lat="38.802383998408914" lon="-9.380418006330729">
        <ele>202.97999999999999</ele>
        <time>2025-05-04T15:13:33Z</time>
      </trkpt>
      <trkpt lat="38.802385004237294" lon="-9.380438039079309">
        <ele>203.46000000000001</ele>
        <time>2025-05-04T15:13:34Z</time>
      </trkpt>
      <trkpt lat="38.802385004237294" lon="-9.380438039079309">
        <ele>203.46000000000001</ele>
        <time>2025-05-04T15:13:49Z</time>
      </trkpt>
      <trkpt lat="38.802422974258661" lon="-9.380810027942061">
        <ele>207.30000000000001</ele>
        <time>2025-05-04T15:13:59Z</time>
      </trkpt>
      <trkpt lat="38.802458010613918" lon="-9.381010020151734">
        <ele>209.22</ele>
        <time>2025-05-04T15:14:03Z</time>
      </trkpt>
      <trkpt lat="38.802527999505401" lon="-9.381415033712983">
        <ele>212.11000000000001</ele>
        <time>2025-05-04T15:14:14Z</time>
      </trkpt>
      <trkpt lat="38.802565969526768" lon="-9.381632041186094">
        <ele>215.94999999999999</ele>
        <time>2025-05-04T15:14:40Z</time>
      </trkpt>
      <trkpt lat="38.802625983953476" lon="-9.381701024249196">
        <ele>216.91</ele>
        <time>2025-05-04T15:14:41Z</time>
      </trkpt>
      <trkpt lat="38.802678035572171" lon="-9.381721979007125">
        <ele>217.88</ele>
        <time>2025-05-04T15:14:42Z</time>
      </trkpt>
      <trkpt lat="38.802736960351467" lon="-9.381708987057209">
        <ele>218.36000000000001</ele>
        <time>2025-05-04T15:14:43Z</time>
      </trkpt>
      <trkpt lat="38.802785994485021" lon="-9.381694989278913">
        <ele>218.84</ele>
        <time>2025-05-04T15:14:44Z</time>
      </trkpt>
      <trkpt lat="38.802824970334768" lon="-9.381684008985758">
        <ele>219.31999999999999</ele>
        <time>2025-05-04T15:14:45Z</time>
      </trkpt>
      <trkpt lat="38.802954973652959" lon="-9.381649978458881">
        <ele>220.28</ele>
        <time>2025-05-04T15:14:50Z</time>
      </trkpt>
      <trkpt lat="38.802979029715061" lon="-9.38164402730763">
        <ele>220.75999999999999</ele>
        <time>2025-05-04T15:14:51Z</time>
      </trkpt>
      <trkpt lat="38.803079025819898" lon="-9.381618965417147">
        <ele>224.12</ele>
        <time>2025-05-04T15:15:03Z</time>
      </trkpt>
      <trkpt lat="38.803079025819898" lon="-9.381618965417147">
        <ele>224.12</ele>
        <time>2025-05-04T15:15:39Z</time>
      </trkpt>
      <trkpt lat="38.80325797945261" lon="-9.381574038416147">
        <ele>222.68000000000001</ele>
        <time>2025-05-04T15:16:02Z</time>
      </trkpt>
      <trkpt lat="38.803379014134407" lon="-9.38153799623251">
        <ele>217.88</ele>
        <time>2025-05-04T15:16:17Z</time>
      </trkpt>
      <trkpt lat="38.803585963323712" lon="-9.381545959040523">
        <ele>213.55000000000001</ele>
        <time>2025-05-04T15:16:27Z</time>
      </trkpt>
      <trkpt lat="38.803799031302333" lon="-9.38142903149128">
        <ele>212.11000000000001</ele>
        <time>2025-05-04T15:16:38Z</time>
      </trkpt>
      <trkpt lat="38.803819986060262" lon="-9.381441017612815">
        <ele>212.11000000000001</ele>
        <time>2025-05-04T15:16:41Z</time>
      </trkpt>
      <trkpt lat="38.803868014365435" lon="-9.381489967927337">
        <ele>212.11000000000001</ele>
        <time>2025-05-04T15:16:42Z</time>
      </trkpt>
      <trkpt lat="38.803878994658589" lon="-9.381536990404129">
        <ele>212.11000000000001</ele>
        <time>2025-05-04T15:16:43Z</time>
      </trkpt>
      <trkpt lat="38.804044034332037" lon="-9.381862040609121">
        <ele>213.06999999999999</ele>
        <time>2025-05-04T15:16:51Z</time>
      </trkpt>
      <trkpt lat="38.804086027666926" lon="-9.381905039772391">
        <ele>213.06999999999999</ele>
        <time>2025-05-04T15:16:52Z</time>
      </trkpt>
      <trkpt lat="38.804451981559396" lon="-9.382320027798414">
        <ele>211.63</ele>
        <time>2025-05-04T15:16:59Z</time>
      </trkpt>
      <trkpt lat="38.804487017914653" lon="-9.382408037781715">
        <ele>210.66999999999999</ele>
        <time>2025-05-04T15:17:00Z</time>
      </trkpt>
      <trkpt lat="38.804505039006472" lon="-9.382509961724281">
        <ele>210.19</ele>
        <time>2025-05-04T15:17:01Z</time>
      </trkpt>
      <trkpt lat="38.804505039006472" lon="-9.382610963657498">
        <ele>209.69999999999999</ele>
        <time>2025-05-04T15:17:02Z</time>
      </trkpt>
      <trkpt lat="38.804491963237524" lon="-9.382710959762335">
        <ele>208.74000000000001</ele>
        <time>2025-05-04T15:17:03Z</time>
      </trkpt>
      <trkpt lat="38.804470002651215" lon="-9.382817996665835">
        <ele>208.25999999999999</ele>
        <time>2025-05-04T15:17:04Z</time>
      </trkpt>
      <trkpt lat="38.804423986002803" lon="-9.38304103910923">
        <ele>207.30000000000001</ele>
        <time>2025-05-04T15:17:06Z</time>
      </trkpt>
      <trkpt lat="38.804400013759732" lon="-9.383157966658473">
        <ele>206.34</ele>
        <time>2025-05-04T15:17:07Z</time>
      </trkpt>
      <trkpt lat="38.804376963526011" lon="-9.383271038532257">
        <ele>205.86000000000001</ele>
        <time>2025-05-04T15:17:08Z</time>
      </trkpt>
      <trkpt lat="38.804355002939701" lon="-9.383375979959965">
        <ele>205.38</ele>
        <time>2025-05-04T15:17:09Z</time>
      </trkpt>
      <trkpt lat="38.804304962977767" lon="-9.383446974679828">
        <ele>204.41999999999999</ele>
        <time>2025-05-04T15:17:10Z</time>
      </trkpt>
      <trkpt lat="38.804250983521342" lon="-9.383525010198355">
        <ele>203.94</ele>
        <time>2025-05-04T15:17:11Z</time>
      </trkpt>
      <trkpt lat="38.804194992408156" lon="-9.383604973554611">
        <ele>203.46000000000001</ele>
        <time>2025-05-04T15:17:12Z</time>
      </trkpt>
      <trkpt lat="38.804144030436873" lon="-9.383676974102855">
        <ele>202.97999999999999</ele>
        <time>2025-05-04T15:17:13Z</time>
      </trkpt>
      <trkpt lat="38.804098013788462" lon="-9.383743023499847">
        <ele>202.97999999999999</ele>
        <time>2025-05-04T15:17:14Z</time>
      </trkpt>
      <trkpt lat="38.804055014625192" lon="-9.383804965764284">
        <ele>202.97999999999999</ele>
        <time>2025-05-04T15:17:15Z</time>
      </trkpt>
      <trkpt lat="38.804077981039882" lon="-9.383922982960939">
        <ele>202.00999999999999</ele>
        <time>2025-05-04T15:17:16Z</time>
      </trkpt>
      <trkpt lat="38.804098013788462" lon="-9.384019039571285">
        <ele>201.05000000000001</ele>
        <time>2025-05-04T15:17:17Z</time>
      </trkpt>
      <trkpt lat="38.804150987416506" lon="-9.384082993492484">
        <ele>199.61000000000001</ele>
        <time>2025-05-04T15:17:18Z</time>
      </trkpt>
      <trkpt lat="38.804220976307988" lon="-9.384167985990644">
        <ele>198.16999999999999</ele>
        <time>2025-05-04T15:17:19Z</time>
      </trkpt>
      <trkpt lat="38.804394984617829" lon="-9.384338976815343">
        <ele>196.25</ele>
        <time>2025-05-04T15:17:21Z</time>
      </trkpt>
      <trkpt lat="38.805175004526973" lon="-9.384868964552879">
        <ele>191.91999999999999</ele>
        <time>2025-05-04T15:17:28Z</time>
      </trkpt>
      <trkpt lat="38.805368961766362" lon="-9.38499603420496">
        <ele>190.96000000000001</ele>
        <time>2025-05-04T15:17:30Z</time>
      </trkpt>
      <trkpt lat="38.805435011163354" lon="-9.38510499894619">
        <ele>190.96000000000001</ele>
        <time>2025-05-04T15:17:31Z</time>
      </trkpt>
      <trkpt lat="38.80549100227654" lon="-9.385217987000942">
        <ele>190.47999999999999</ele>
        <time>2025-05-04T15:17:32Z</time>
      </trkpt>
      <trkpt lat="38.805544981732965" lon="-9.385326029732823">
        <ele>190</ele>
        <time>2025-05-04T15:17:33Z</time>
      </trkpt>
      <trkpt lat="38.80559803918004" lon="-9.385431976988912">
        <ele>189.52000000000001</ele>
        <time>2025-05-04T15:17:34Z</time>
      </trkpt>
      <trkpt lat="38.805725025013089" lon="-9.385906979441643">
        <ele>187.59</ele>
        <time>2025-05-04T15:17:38Z</time>
      </trkpt>
      <trkpt lat="38.805742962285876" lon="-9.386031031608582">
        <ele>187.11000000000001</ele>
        <time>2025-05-04T15:17:39Z</time>
      </trkpt>
      <trkpt lat="38.80575000308454" lon="-9.386154999956489">
        <ele>186.63</ele>
        <time>2025-05-04T15:17:40Z</time>
      </trkpt>
      <trkpt lat="38.80575000308454" lon="-9.386550039052963">
        <ele>184.22999999999999</ele>
        <time>2025-05-04T15:17:43Z</time>
      </trkpt>
      <trkpt lat="38.805699963122606" lon="-9.386810967698693">
        <ele>181.83000000000001</ele>
        <time>2025-05-04T15:17:45Z</time>
      </trkpt>
      <trkpt lat="38.805509023368359" lon="-9.387559974566102">
        <ele>177.02000000000001</ele>
        <time>2025-05-04T15:17:51Z</time>
      </trkpt>
      <trkpt lat="38.805480021983385" lon="-9.387674974277616">
        <ele>176.06</ele>
        <time>2025-05-04T15:17:52Z</time>
      </trkpt>
      <trkpt lat="38.805435011163354" lon="-9.387781005352736">
        <ele>175.58000000000001</ele>
        <time>2025-05-04T15:17:53Z</time>
      </trkpt>
      <trkpt lat="38.8053859770298" lon="-9.387878989800811">
        <ele>174.62</ele>
        <time>2025-05-04T15:17:54Z</time>
      </trkpt>
      <trkpt lat="38.805364016443491" lon="-9.387925006449223">
        <ele>174.13999999999999</ele>
        <time>2025-05-04T15:17:55Z</time>
      </trkpt>
      <trkpt lat="38.805258991196752" lon="-9.387965993955731">
        <ele>173.16999999999999</ele>
        <time>2025-05-04T15:17:56Z</time>
      </trkpt>
      <trkpt lat="38.805185984820127" lon="-9.387996001169086">
        <ele>172.69</ele>
        <time>2025-05-04T15:17:57Z</time>
      </trkpt>
      <trkpt lat="38.805149020627141" lon="-9.388011004775763">
        <ele>172.21000000000001</ele>
        <time>2025-05-04T15:17:58Z</time>
      </trkpt>
      <trkpt lat="38.805097974836826" lon="-9.38798300921917">
        <ele>171.72999999999999</ele>
        <time>2025-05-04T15:17:59Z</time>
      </trkpt>
      <trkpt lat="38.805051036179066" lon="-9.387958031147718">
        <ele>171.25</ele>
        <time>2025-05-04T15:18:00Z</time>
      </trkpt>
      <trkpt lat="38.805010970681906" lon="-9.387936992570758">
        <ele>170.77000000000001</ele>
        <time>2025-05-04T15:18:01Z</time>
      </trkpt>
      <trkpt lat="38.804974006488919" lon="-9.387916959822178">
        <ele>170.28999999999999</ele>
        <time>2025-05-04T15:18:02Z</time>
      </trkpt>
      <trkpt lat="38.804749036207795" lon="-9.387870021164417">
        <ele>167.41</ele>
        <time>2025-05-04T15:18:08Z</time>
      </trkpt>
      <trkpt lat="38.804712994024158" lon="-9.387891981750727">
        <ele>166.93000000000001</ele>
        <time>2025-05-04T15:18:09Z</time>
      </trkpt>
      <trkpt lat="38.804678041487932" lon="-9.3879400100559">
        <ele>166.44999999999999</ele>
        <time>2025-05-04T15:18:10Z</time>
      </trkpt>
      <trkpt lat="38.804645016789436" lon="-9.387986026704311">
        <ele>165.96000000000001</ele>
        <time>2025-05-04T15:18:11Z</time>
      </trkpt>
      <trkpt lat="38.804620960727334" lon="-9.388063978403807">
        <ele>165.47999999999999</ele>
        <time>2025-05-04T15:18:12Z</time>
      </trkpt>
      <trkpt lat="38.804637975990772" lon="-9.38813497312367">
        <ele>165</ele>
        <time>2025-05-04T15:18:13Z</time>
      </trkpt>
      <trkpt lat="38.804658008739352" lon="-9.388213008642197">
        <ele>164.03999999999999</ele>
        <time>2025-05-04T15:18:14Z</time>
      </trkpt>
      <trkpt lat="38.804677035659552" lon="-9.388290038332343">
        <ele>163.56</ele>
        <time>2025-05-04T15:18:15Z</time>
      </trkpt>
      <trkpt lat="38.804725985974073" lon="-9.38832800835371">
        <ele>163.08000000000001</ele>
        <time>2025-05-04T15:18:16Z</time>
      </trkpt>
      <trkpt lat="38.804787006229162" lon="-9.388376036658883">
        <ele>162.59999999999999</ele>
        <time>2025-05-04T15:18:17Z</time>
      </trkpt>
      <trkpt lat="38.804851965978742" lon="-9.388426998630166">
        <ele>161.63999999999999</ele>
        <time>2025-05-04T15:18:18Z</time>
      </trkpt>
      <trkpt lat="38.805112978443503" lon="-9.388632019981742">
        <ele>160.68000000000001</ele>
        <time>2025-05-04T15:18:22Z</time>
      </trkpt>
      <trkpt lat="38.805181039497256" lon="-9.388684993609786">
        <ele>159.72</ele>
        <time>2025-05-04T15:18:23Z</time>
      </trkpt>
      <trkpt lat="38.805247005075216" lon="-9.38873696140945">
        <ele>159.72</ele>
        <time>2025-05-04T15:18:24Z</time>
      </trkpt>
      <trkpt lat="38.805310958996415" lon="-9.388788007199764">
        <ele>159.72</ele>
        <time>2025-05-04T15:18:25Z</time>
      </trkpt>
      <trkpt lat="38.80538497120142" lon="-9.388847015798092">
        <ele>159.72</ele>
        <time>2025-05-04T15:18:26Z</time>
      </trkpt>
      <trkpt lat="38.805458983406425" lon="-9.388860007748008">
        <ele>159.72</ele>
        <time>2025-05-04T15:18:27Z</time>
      </trkpt>
      <trkpt lat="38.805540036410093" lon="-9.388868976384401">
        <ele>159.24000000000001</ele>
        <time>2025-05-04T15:18:28Z</time>
      </trkpt>
      <trkpt lat="38.805627040565014" lon="-9.388855984434485">
        <ele>158.75</ele>
        <time>2025-05-04T15:18:29Z</time>
      </trkpt>
      <trkpt lat="38.805692000314593" lon="-9.388825977221131">
        <ele>158.27000000000001</ele>
        <time>2025-05-04T15:18:30Z</time>
      </trkpt>
      <trkpt lat="38.805752014741302" lon="-9.388797981664538">
        <ele>157.78999999999999</ele>
        <time>2025-05-04T15:18:31Z</time>
      </trkpt>
      <trkpt lat="38.805938009172678" lon="-9.388711983337998">
        <ele>156.83000000000001</ele>
        <time>2025-05-04T15:18:34Z</time>
      </trkpt>
      <trkpt lat="38.806015038862824" lon="-9.388680970296264">
        <ele>156.34999999999999</ele>
        <time>2025-05-04T15:18:35Z</time>
      </trkpt>
      <trkpt lat="38.8060939963907" lon="-9.388690022751689">
        <ele>156.34999999999999</ele>
        <time>2025-05-04T15:18:36Z</time>
      </trkpt>
      <trkpt lat="38.806185023859143" lon="-9.388708965852857">
        <ele>155.87</ele>
        <time>2025-05-04T15:18:37Z</time>
      </trkpt>
      <trkpt lat="38.806287031620741" lon="-9.388731010258198">
        <ele>155.38999999999999</ele>
        <time>2025-05-04T15:18:38Z</time>
      </trkpt>
      <trkpt lat="38.806384010240436" lon="-9.388776021078229">
        <ele>155.38999999999999</ele>
        <time>2025-05-04T15:18:39Z</time>
      </trkpt>
      <trkpt lat="38.806476965546608" lon="-9.388838969171047">
        <ele>155.38999999999999</ele>
        <time>2025-05-04T15:18:40Z</time>
      </trkpt>
      <trkpt lat="38.806562963873148" lon="-9.388915998861194">
        <ele>155.38999999999999</ele>
        <time>2025-05-04T15:18:41Z</time>
      </trkpt>
      <trkpt lat="38.806650973856449" lon="-9.389019012451172">
        <ele>155.38999999999999</ele>
        <time>2025-05-04T15:18:42Z</time>
      </trkpt>
      <trkpt lat="38.806692967191339" lon="-9.38914398662746">
        <ele>154.91</ele>
        <time>2025-05-04T15:18:43Z</time>
      </trkpt>
      <trkpt lat="38.80673898383975" lon="-9.389282036572695">
        <ele>154.43000000000001</ele>
        <time>2025-05-04T15:18:44Z</time>
      </trkpt>
      <trkpt lat="38.807036960497499" lon="-9.390302030369639">
        <ele>148.18000000000001</ele>
        <time>2025-05-04T15:18:51Z</time>
      </trkpt>
      <trkpt lat="38.807036960497499" lon="-9.390621967613697">
        <ele>145.78</ele>
        <time>2025-05-04T15:18:53Z</time>
      </trkpt>
      <trkpt lat="38.807036960497499" lon="-9.39077602699399">
        <ele>144.81999999999999</ele>
        <time>2025-05-04T15:18:54Z</time>
      </trkpt>
      <trkpt lat="38.806993961334229" lon="-9.391222028061748">
        <ele>142.41</ele>
        <time>2025-05-04T15:18:57Z</time>
      </trkpt>
      <trkpt lat="38.806964959949255" lon="-9.391351025551558">
        <ele>141.44999999999999</ele>
        <time>2025-05-04T15:18:58Z</time>
      </trkpt>
      <trkpt lat="38.806663965806365" lon="-9.391935998573899">
        <ele>136.63999999999999</ele>
        <time>2025-05-04T15:19:03Z</time>
      </trkpt>
      <trkpt lat="38.80632902495563" lon="-9.39232399687171">
        <ele>133.75999999999999</ele>
        <time>2025-05-04T15:19:07Z</time>
      </trkpt>
      <trkpt lat="38.806228023022413" lon="-9.392380993813276">
        <ele>133.28</ele>
        <time>2025-05-04T15:19:08Z</time>
      </trkpt>
      <trkpt lat="38.806128026917577" lon="-9.392428016290069">
        <ele>132.80000000000001</ele>
        <time>2025-05-04T15:19:09Z</time>
      </trkpt>
      <trkpt lat="38.806024007499218" lon="-9.392465986311436">
        <ele>132.31999999999999</ele>
        <time>2025-05-04T15:19:10Z</time>
      </trkpt>
      <trkpt lat="38.805927028879523" lon="-9.392501022666693">
        <ele>131.84</ele>
        <time>2025-05-04T15:19:11Z</time>
      </trkpt>
      <trkpt lat="38.805368961766362" lon="-9.392619961872697">
        <ele>126.55</ele>
        <time>2025-05-04T15:19:19Z</time>
      </trkpt>
      <trkpt lat="38.805302996188402" lon="-9.392604036256671">
        <ele>126.06999999999999</ele>
        <time>2025-05-04T15:19:20Z</time>
      </trkpt>
      <trkpt lat="38.805261002853513" lon="-9.392561037093401">
        <ele>125.11</ele>
        <time>2025-05-04T15:19:21Z</time>
      </trkpt>
      <trkpt lat="38.805199982598424" lon="-9.39249599352479">
        <ele>124.63</ele>
        <time>2025-05-04T15:19:22Z</time>
      </trkpt>
      <trkpt lat="38.805137034505606" lon="-9.392429022118449">
        <ele>124.15000000000001</ele>
        <time>2025-05-04T15:19:23Z</time>
      </trkpt>
      <trkpt lat="38.805076014250517" lon="-9.392361966893077">
        <ele>123.19</ele>
        <time>2025-05-04T15:19:24Z</time>
      </trkpt>
      <trkpt lat="38.80484702065587" lon="-9.392116963863373">
        <ele>120.78</ele>
        <time>2025-05-04T15:19:28Z</time>
      </trkpt>
      <trkpt lat="38.804792035371065" lon="-9.392058039084077">
        <ele>120.3</ele>
        <time>2025-05-04T15:19:29Z</time>
      </trkpt>
      <trkpt lat="38.804737972095609" lon="-9.391999030485749">
        <ele>119.81999999999999</ele>
        <time>2025-05-04T15:19:30Z</time>
      </trkpt>
      <trkpt lat="38.804671000689268" lon="-9.391961982473731">
        <ele>119.34</ele>
        <time>2025-05-04T15:19:31Z</time>
      </trkpt>
      <trkpt lat="38.804600005969405" lon="-9.391934992745519">
        <ele>119.34</ele>
        <time>2025-05-04T15:19:32Z</time>
      </trkpt>
      <trkpt lat="38.804529011249542" lon="-9.391922000795603">
        <ele>118.38</ele>
        <time>2025-05-04T15:19:33Z</time>
      </trkpt>
      <trkpt lat="38.804449969902635" lon="-9.391948990523815">
        <ele>117.90000000000001</ele>
        <time>2025-05-04T15:19:34Z</time>
      </trkpt>
      <trkpt lat="38.804376041516662" lon="-9.391972962766886">
        <ele>117.90000000000001</ele>
        <time>2025-05-04T15:19:35Z</time>
      </trkpt>
      <trkpt lat="38.804327007383108" lon="-9.392047980800271">
        <ele>117.42</ele>
        <time>2025-05-04T15:19:36Z</time>
      </trkpt>
      <trkpt lat="38.80428803153336" lon="-9.392143031582236">
        <ele>116.94</ele>
        <time>2025-05-04T15:19:37Z</time>
      </trkpt>
      <trkpt lat="38.804242014884949" lon="-9.392254007980228">
        <ele>116.94</ele>
        <time>2025-05-04T15:19:38Z</time>
      </trkpt>
      <trkpt lat="38.804198009893298" lon="-9.392386022955179">
        <ele>116.45999999999999</ele>
        <time>2025-05-04T15:19:39Z</time>
      </trkpt>
      <trkpt lat="38.804154004901648" lon="-9.392662039026618">
        <ele>115.98</ele>
        <time>2025-05-04T15:19:41Z</time>
      </trkpt>
      <trkpt lat="38.804131960496306" lon="-9.392800005152822">
        <ele>115.98</ele>
        <time>2025-05-04T15:19:42Z</time>
      </trkpt>
      <trkpt lat="38.804119974374771" lon="-9.392937971279025">
        <ele>115.5</ele>
        <time>2025-05-04T15:19:43Z</time>
      </trkpt>
      <trkpt lat="38.804120980203152" lon="-9.393079038709402">
        <ele>115.01000000000001</ele>
        <time>2025-05-04T15:19:44Z</time>
      </trkpt>
      <trkpt lat="38.804122991859913" lon="-9.393223039805889">
        <ele>115.01000000000001</ele>
        <time>2025-05-04T15:19:45Z</time>
      </trkpt>
      <trkpt lat="38.804140007123351" lon="-9.394669001922011">
        <ele>110.20999999999999</ele>
        <time>2025-05-04T15:19:54Z</time>
      </trkpt>
      <trkpt lat="38.803947977721691" lon="-9.395791003480554">
        <ele>107.31999999999999</ele>
        <time>2025-05-04T15:20:02Z</time>
      </trkpt>
      <trkpt lat="38.803868014365435" lon="-9.39601899124682">
        <ele>105.88</ele>
        <time>2025-05-04T15:20:04Z</time>
      </trkpt>
      <trkpt lat="38.803815962746739" lon="-9.396109012886882">
        <ele>104.92</ele>
        <time>2025-05-04T15:20:05Z</time>
      </trkpt>
      <trkpt lat="38.803762989118695" lon="-9.396194005385041">
        <ele>104.44</ele>
        <time>2025-05-04T15:20:06Z</time>
      </trkpt>
      <trkpt lat="38.80368797108531" lon="-9.396231975406408">
        <ele>103.95999999999999</ele>
        <time>2025-05-04T15:20:07Z</time>
      </trkpt>
      <trkpt lat="38.803613958880305" lon="-9.39625795930624">
        <ele>103</ele>
        <time>2025-05-04T15:20:08Z</time>
      </trkpt>
      <trkpt lat="38.80353600718081" lon="-9.396286960691214">
        <ele>102.52</ele>
        <time>2025-05-04T15:20:09Z</time>
      </trkpt>
      <trkpt lat="38.80345000885427" lon="-9.39627799205482">
        <ele>102.04000000000001</ele>
        <time>2025-05-04T15:20:10Z</time>
      </trkpt>
      <trkpt lat="38.80336401052773" lon="-9.39625795930624">
        <ele>101.56</ele>
        <time>2025-05-04T15:20:11Z</time>
      </trkpt>
      <trkpt lat="38.803279018029571" lon="-9.396238010376692">
        <ele>100.59999999999999</ele>
        <time>2025-05-04T15:20:12Z</time>
      </trkpt>
      <trkpt lat="38.803202994167805" lon="-9.396194005385041">
        <ele>100.11</ele>
        <time>2025-05-04T15:20:13Z</time>
      </trkpt>
      <trkpt lat="38.803133005276322" lon="-9.396127033978701">
        <ele>100.11</ele>
        <time>2025-05-04T15:20:14Z</time>
      </trkpt>
      <trkpt lat="38.803061004728079" lon="-9.396056961268187">
        <ele>99.629999999999995</ele>
        <time>2025-05-04T15:20:15Z</time>
      </trkpt>
      <trkpt lat="38.802498998120427" lon="-9.395497972145677">
        <ele>92.900000000000006</ele>
        <time>2025-05-04T15:20:23Z</time>
      </trkpt>
      <trkpt lat="38.802200015634298" lon="-9.395190021023154">
        <ele>87.620000000000005</ele>
        <time>2025-05-04T15:20:29Z</time>
      </trkpt>
      <trkpt lat="38.802146958187222" lon="-9.395146016031504">
        <ele>87.140000000000001</ele>
        <time>2025-05-04T15:20:30Z</time>
      </trkpt>
      <trkpt lat="38.802123991772532" lon="-9.395135035738349">
        <ele>86.180000000000007</ele>
        <time>2025-05-04T15:20:31Z</time>
      </trkpt>
      <trkpt lat="38.802060037851334" lon="-9.39518197439611">
        <ele>85.689999999999998</ele>
        <time>2025-05-04T15:20:32Z</time>
      </trkpt>
      <trkpt lat="38.80203003063798" lon="-9.395205024629831">
        <ele>84.730000000000004</ele>
        <time>2025-05-04T15:20:33Z</time>
      </trkpt>
      <trkpt lat="38.801951995119452" lon="-9.395263027399778">
        <ele>83.769999999999996</ele>
        <time>2025-05-04T15:20:34Z</time>
      </trkpt>
      <trkpt lat="38.801951995119452" lon="-9.395263027399778">
        <ele>83.290000000000006</ele>
        <time>2025-05-04T15:20:35Z</time>
      </trkpt>
      <trkpt lat="38.801936991512775" lon="-9.395295968279243">
        <ele>82.329999999999998</ele>
        <time>2025-05-04T15:20:36Z</time>
      </trkpt>
      <trkpt lat="38.801974961534142" lon="-9.395366962999106">
        <ele>81.849999999999994</ele>
        <time>2025-05-04T15:20:37Z</time>
      </trkpt>
      <trkpt lat="38.802058026194572" lon="-9.395664017647505">
        <ele>78.969999999999999</ele>
        <time>2025-05-04T15:20:44Z</time>
      </trkpt>
      <trkpt lat="38.802103959023952" lon="-9.395696958526969">
        <ele>78.969999999999999</ele>
        <time>2025-05-04T15:20:45Z</time>
      </trkpt>
      <trkpt lat="38.802243014797568" lon="-9.395830985158682">
        <ele>78.480000000000004</ele>
        <time>2025-05-04T15:20:48Z</time>
      </trkpt>
      <trkpt lat="38.80229095928371" lon="-9.395896028727293">
        <ele>78.480000000000004</ele>
        <time>2025-05-04T15:20:49Z</time>
      </trkpt>
      <trkpt lat="38.802522970363498" lon="-9.396210014820099">
        <ele>77.519999999999996</ele>
        <time>2025-05-04T15:20:53Z</time>
      </trkpt>
      <trkpt lat="38.802596982568502" lon="-9.396287966519594">
        <ele>77.040000000000006</ele>
        <time>2025-05-04T15:20:54Z</time>
      </trkpt>
      <trkpt lat="38.802833016961813" lon="-9.396486030891538">
        <ele>76.560000000000002</ele>
        <time>2025-05-04T15:20:57Z</time>
      </trkpt>
      <trkpt lat="38.802909040823579" lon="-9.396550990641117">
        <ele>76.560000000000002</ele>
        <time>2025-05-04T15:20:58Z</time>
      </trkpt>
      <trkpt lat="38.802984980866313" lon="-9.396626008674502">
        <ele>76.560000000000002</ele>
        <time>2025-05-04T15:20:59Z</time>
      </trkpt>
      <trkpt lat="38.803053963929415" lon="-9.396714018657804">
        <ele>76.560000000000002</ele>
        <time>2025-05-04T15:21:00Z</time>
      </trkpt>
      <trkpt lat="38.803126970306039" lon="-9.396807979792357">
        <ele>76.560000000000002</ele>
        <time>2025-05-04T15:21:01Z</time>
      </trkpt>
      <trkpt lat="38.803197965025902" lon="-9.39690001308918">
        <ele>76.560000000000002</ele>
        <time>2025-05-04T15:21:02Z</time>
      </trkpt>
      <trkpt lat="38.803267031908035" lon="-9.396982993930578">
        <ele>76.560000000000002</ele>
        <time>2025-05-04T15:21:03Z</time>
      </trkpt>
      <trkpt lat="38.803355041891336" lon="-9.397026998922229">
        <ele>76.560000000000002</ele>
        <time>2025-05-04T15:21:04Z</time>
      </trkpt>
      <trkpt lat="38.803441962227225" lon="-9.397069998085499">
        <ele>77.040000000000006</ele>
        <time>2025-05-04T15:21:05Z</time>
      </trkpt>
      <trkpt lat="38.803560985252261" lon="-9.397130012512207">
        <ele>77.519999999999996</ele>
        <time>2025-05-04T15:21:06Z</time>
      </trkpt>
      <trkpt lat="38.803626028820872" lon="-9.397123977541924">
        <ele>78.480000000000004</ele>
        <time>2025-05-04T15:21:07Z</time>
      </trkpt>
      <trkpt lat="38.803723007440567" lon="-9.397114003077149">
        <ele>79.450000000000003</ele>
        <time>2025-05-04T15:21:08Z</time>
      </trkpt>
      <trkpt lat="38.803827026858926" lon="-9.397080978378654">
        <ele>80.409999999999997</ele>
        <time>2025-05-04T15:21:09Z</time>
      </trkpt>
      <trkpt lat="38.803919982165098" lon="-9.397031022235751">
        <ele>80.890000000000001</ele>
        <time>2025-05-04T15:21:10Z</time>
      </trkpt>
      <trkpt lat="38.804012015461922" lon="-9.396980982273817">
        <ele>81.370000000000005</ele>
        <time>2025-05-04T15:21:11Z</time>
      </trkpt>
      <trkpt lat="38.804299011826515" lon="-9.396827006712556">
        <ele>82.810000000000002</ele>
        <time>2025-05-04T15:21:14Z</time>
      </trkpt>
      <trkpt lat="38.804402025416493" lon="-9.396792976185679">
        <ele>82.329999999999998</ele>
        <time>2025-05-04T15:21:15Z</time>
      </trkpt>
      <trkpt lat="38.804509984329343" lon="-9.396757017821074">
        <ele>81.849999999999994</ele>
        <time>2025-05-04T15:21:16Z</time>
      </trkpt>
      <trkpt lat="38.804730009287596" lon="-9.396703960373998">
        <ele>80.409999999999997</ele>
        <time>2025-05-04T15:21:18Z</time>
      </trkpt>
      <trkpt lat="38.804950034245849" lon="-9.396689962595701">
        <ele>79.450000000000003</ele>
        <time>2025-05-04T15:21:20Z</time>
      </trkpt>
      <trkpt lat="38.805594015866518" lon="-9.396870005875826">
        <ele>77.040000000000006</ele>
        <time>2025-05-04T15:21:26Z</time>
      </trkpt>
      <trkpt lat="38.805798031389713" lon="-9.397005038335919">
        <ele>76.079999999999998</ele>
        <time>2025-05-04T15:21:28Z</time>
      </trkpt>
      <trkpt lat="38.806165996938944" lon="-9.397278036922216">
        <ele>74.159999999999997</ele>
        <time>2025-05-04T15:21:32Z</time>
      </trkpt>
      <trkpt lat="38.806253001093864" lon="-9.397346014156938">
        <ele>74.159999999999997</ele>
        <time>2025-05-04T15:21:33Z</time>
      </trkpt>
      <trkpt lat="38.806927995756269" lon="-9.397839037701488">
        <ele>73.680000000000007</ele>
        <time>2025-05-04T15:21:43Z</time>
      </trkpt>
      <trkpt lat="38.806981975212693" lon="-9.397869966924191">
        <ele>74.159999999999997</ele>
        <time>2025-05-04T15:21:44Z</time>
      </trkpt>
      <trkpt lat="38.807032015174627" lon="-9.397897040471435">
        <ele>74.640000000000001</ele>
        <time>2025-05-04T15:21:45Z</time>
      </trkpt>
      <trkpt lat="38.807068979367614" lon="-9.397917995229363">
        <ele>74.640000000000001</ele>
        <time>2025-05-04T15:21:46Z</time>
      </trkpt>
      <trkpt lat="38.807133017107844" lon="-9.397843983024359">
        <ele>75.120000000000005</ele>
        <time>2025-05-04T15:21:47Z</time>
      </trkpt>
      <trkpt lat="38.80716796964407" lon="-9.397865021601319">
        <ele>75.599999999999994</ele>
        <time>2025-05-04T15:21:48Z</time>
      </trkpt>
      <trkpt lat="38.80720803514123" lon="-9.39788899384439">
        <ele>76.079999999999998</ele>
        <time>2025-05-04T15:21:49Z</time>
      </trkpt>
      <trkpt lat="38.807229995727539" lon="-9.397902991622686">
        <ele>76.560000000000002</ele>
        <time>2025-05-04T15:21:50Z</time>
      </trkpt>
      <trkpt lat="38.807224966585636" lon="-9.397916989400983">
        <ele>77.040000000000006</ele>
        <time>2025-05-04T15:21:51Z</time>
      </trkpt>
      <trkpt lat="38.80718800239265" lon="-9.398010028526187">
        <ele>77.519999999999996</ele>
        <time>2025-05-04T15:21:52Z</time>
      </trkpt>
      <trkpt lat="38.807190014049411" lon="-9.398026959970594">
        <ele>78.480000000000004</ele>
        <time>2025-05-04T15:21:53Z</time>
      </trkpt>
      <trkpt lat="38.807193031534553" lon="-9.398051016032696">
        <ele>78.480000000000004</ele>
        <time>2025-05-04T15:21:54Z</time>
      </trkpt>
      <trkpt lat="38.807193031534553" lon="-9.398051016032696">
        <ele>78.969999999999999</ele>
        <time>2025-05-04T15:21:55Z</time>
      </trkpt>
      <trkpt lat="38.80718800239265" lon="-9.398010028526187">
        <ele>79.930000000000007</ele>
        <time>2025-05-04T15:21:59Z</time>
      </trkpt>
      <trkpt lat="38.80718800239265" lon="-9.398010028526187">
        <ele>80.409999999999997</ele>
        <time>2025-05-04T15:22:00Z</time>
      </trkpt>
      <trkpt lat="38.80718800239265" lon="-9.398010028526187">
        <ele>81.370000000000005</ele>
        <time>2025-05-04T15:22:18Z</time>
      </trkpt>
      <trkpt lat="38.807152966037393" lon="-9.398010028526187">
        <ele>82.329999999999998</ele>
        <time>2025-05-04T15:22:49Z</time>
      </trkpt>
      <trkpt lat="38.807104015722871" lon="-9.398010028526187">
        <ele>82.329999999999998</ele>
        <time>2025-05-04T15:22:50Z</time>
      </trkpt>
      <trkpt lat="38.806656002998352" lon="-9.39765396527946">
        <ele>83.290000000000006</ele>
        <time>2025-05-04T15:22:55Z</time>
      </trkpt>
      <trkpt lat="38.80572896450758" lon="-9.396959021687508">
        <ele>83.769999999999996</ele>
        <time>2025-05-04T15:23:04Z</time>
      </trkpt>
      <trkpt lat="38.805529978126287" lon="-9.396847039461136">
        <ele>84.25</ele>
        <time>2025-05-04T15:23:06Z</time>
      </trkpt>
      <trkpt lat="38.804763033986092" lon="-9.396699015051127">
        <ele>85.209999999999994</ele>
        <time>2025-05-04T15:23:13Z</time>
      </trkpt>
      <trkpt lat="38.80465398542583" lon="-9.396716030314565">
        <ele>85.209999999999994</ele>
        <time>2025-05-04T15:23:14Z</time>
      </trkpt>
      <trkpt lat="38.804540997371078" lon="-9.396746037527919">
        <ele>85.689999999999998</ele>
        <time>2025-05-04T15:23:15Z</time>
      </trkpt>
      <trkpt lat="38.804227011278272" lon="-9.396863970905542">
        <ele>86.659999999999997</ele>
        <time>2025-05-04T15:23:18Z</time>
      </trkpt>
      <trkpt lat="38.804135983809829" lon="-9.396913005039096">
        <ele>86.659999999999997</ele>
        <time>2025-05-04T15:23:19Z</time>
      </trkpt>
      <trkpt lat="38.80405199714005" lon="-9.396959021687508">
        <ele>86.659999999999997</ele>
        <time>2025-05-04T15:23:20Z</time>
      </trkpt>
      <trkpt lat="38.803969016298652" lon="-9.397004032507539">
        <ele>86.659999999999997</ele>
        <time>2025-05-04T15:23:21Z</time>
      </trkpt>
      <trkpt lat="38.803888969123363" lon="-9.397047031670809">
        <ele>87.140000000000001</ele>
        <time>2025-05-04T15:23:22Z</time>
      </trkpt>
      <trkpt lat="38.803775981068611" lon="-9.397108973935247">
        <ele>87.140000000000001</ele>
        <time>2025-05-04T15:23:23Z</time>
      </trkpt>
      <trkpt lat="38.803775981068611" lon="-9.397108973935247">
        <ele>87.140000000000001</ele>
        <time>2025-05-04T15:23:24Z</time>
      </trkpt>
      <trkpt lat="38.803667016327381" lon="-9.397119032219052">
        <ele>87.140000000000001</ele>
        <time>2025-05-04T15:23:25Z</time>
      </trkpt>
      <trkpt lat="38.803591998293996" lon="-9.397126995027065">
        <ele>87.620000000000005</ele>
        <time>2025-05-04T15:23:26Z</time>
      </trkpt>
      <trkpt lat="38.803509017452598" lon="-9.397104028612375">
        <ele>87.620000000000005</ele>
        <time>2025-05-04T15:23:27Z</time>
      </trkpt>
      <trkpt lat="38.803418995812535" lon="-9.397059017792344">
        <ele>87.620000000000005</ele>
        <time>2025-05-04T15:23:28Z</time>
      </trkpt>
      <trkpt lat="38.803324028849602" lon="-9.397011995315552">
        <ele>87.620000000000005</ele>
        <time>2025-05-04T15:23:29Z</time>
      </trkpt>
      <trkpt lat="38.80323501303792" lon="-9.396947035565972">
        <ele>87.620000000000005</ele>
        <time>2025-05-04T15:23:30Z</time>
      </trkpt>
      <trkpt lat="38.803163012489676" lon="-9.396853996440768">
        <ele>87.620000000000005</ele>
        <time>2025-05-04T15:23:31Z</time>
      </trkpt>
      <trkpt lat="38.803094029426575" lon="-9.396764980629087">
        <ele>87.620000000000005</ele>
        <time>2025-05-04T15:23:32Z</time>
      </trkpt>
      <trkpt lat="38.802876016125083" lon="-9.396522995084524">
        <ele>87.140000000000001</ele>
        <time>2025-05-04T15:23:35Z</time>
      </trkpt>
      <trkpt lat="38.802796974778175" lon="-9.396456023678184">
        <ele>87.140000000000001</ele>
        <time>2025-05-04T15:23:36Z</time>
      </trkpt>
      <trkpt lat="38.802494974806905" lon="-9.3961719609797">
        <ele>86.659999999999997</ele>
        <time>2025-05-04T15:23:40Z</time>
      </trkpt>
      <trkpt lat="38.802431020885706" lon="-9.39608596265316">
        <ele>87.140000000000001</ele>
        <time>2025-05-04T15:23:41Z</time>
      </trkpt>
      <trkpt lat="38.802370000630617" lon="-9.396002981811762">
        <ele>87.140000000000001</ele>
        <time>2025-05-04T15:23:42Z</time>
      </trkpt>
      <trkpt lat="38.802314009517431" lon="-9.395927963778377">
        <ele>87.140000000000001</ele>
        <time>2025-05-04T15:23:43Z</time>
      </trkpt>
      <trkpt lat="38.802263969555497" lon="-9.395859986543655">
        <ele>87.620000000000005</ele>
        <time>2025-05-04T15:23:44Z</time>
      </trkpt>
      <trkpt lat="38.802215019240975" lon="-9.395794020965695">
        <ele>88.099999999999994</ele>
        <time>2025-05-04T15:23:45Z</time>
      </trkpt>
      <trkpt lat="38.8021619617939" lon="-9.39573802985251">
        <ele>88.579999999999998</ele>
        <time>2025-05-04T15:23:46Z</time>
      </trkpt>
      <trkpt lat="38.802102031186223" lon="-9.39569503068924">
        <ele>89.060000000000002</ele>
        <time>2025-05-04T15:23:47Z</time>
      </trkpt>
      <trkpt lat="38.802037993445992" lon="-9.395650019869208">
        <ele>89.060000000000002</ele>
        <time>2025-05-04T15:23:48Z</time>
      </trkpt>
      <trkpt lat="38.802003040909767" lon="-9.395610960200429">
        <ele>89.540000000000006</ele>
        <time>2025-05-04T15:23:49Z</time>
      </trkpt>
      <trkpt lat="38.801926011219621" lon="-9.39552403986454">
        <ele>90.5</ele>
        <time>2025-05-04T15:23:52Z</time>
      </trkpt>
      <trkpt lat="38.80190203897655" lon="-9.395599979907274">
        <ele>90.980000000000004</ele>
        <time>2025-05-04T15:23:54Z</time>
      </trkpt>
      <trkpt lat="38.801916958764195" lon="-9.395661000162363">
        <ele>91.459999999999994</ele>
        <time>2025-05-04T15:23:55Z</time>
      </trkpt>
      <trkpt lat="38.801930034533143" lon="-9.395713973790407">
        <ele>91.939999999999998</ele>
        <time>2025-05-04T15:23:56Z</time>
      </trkpt>
      <trkpt lat="38.801984013989568" lon="-9.395764013752341">
        <ele>92.900000000000006</ele>
        <time>2025-05-04T15:23:57Z</time>
      </trkpt>
      <trkpt lat="38.802057020366192" lon="-9.395831990987063">
        <ele>93.390000000000001</ele>
        <time>2025-05-04T15:23:58Z</time>
      </trkpt>
      <trkpt lat="38.802145030349493" lon="-9.39591396600008">
        <ele>93.870000000000005</ele>
        <time>2025-05-04T15:23:59Z</time>
      </trkpt>
      <trkpt lat="38.802238991484046" lon="-9.396001975983381">
        <ele>94.349999999999994</ele>
        <time>2025-05-04T15:24:00Z</time>
      </trkpt>
      <trkpt lat="38.802328007295728" lon="-9.396122004836798">
        <ele>94.829999999999998</ele>
        <time>2025-05-04T15:24:01Z</time>
      </trkpt>
      <trkpt lat="38.802412999793887" lon="-9.396248990669847">
        <ele>94.829999999999998</ele>
        <time>2025-05-04T15:24:02Z</time>
      </trkpt>
      <trkpt lat="38.802607962861657" lon="-9.396679988130927">
        <ele>94.829999999999998</ele>
        <time>2025-05-04T15:24:05Z</time>
      </trkpt>
      <trkpt lat="38.802650962024927" lon="-9.396838992834091">
        <ele>94.349999999999994</ele>
        <time>2025-05-04T15:24:06Z</time>
      </trkpt>
      <trkpt lat="38.802808960899711" lon="-9.397341990843415">
        <ele>93.870000000000005</ele>
        <time>2025-05-04T15:24:09Z</time>
      </trkpt>
      <trkpt lat="38.802895965054631" lon="-9.397558998316526">
        <ele>93.870000000000005</ele>
        <time>2025-05-04T15:24:10Z</time>
      </trkpt>
      <trkpt lat="38.80336401052773" lon="-9.398289984092116">
        <ele>91.459999999999994</ele>
        <time>2025-05-04T15:24:16Z</time>
      </trkpt>
      <trkpt lat="38.803411033004522" lon="-9.398417975753546">
        <ele>90.980000000000004</ele>
        <time>2025-05-04T15:24:17Z</time>
      </trkpt>
      <trkpt lat="38.803442968055606" lon="-9.398558037355542">
        <ele>90.5</ele>
        <time>2025-05-04T15:24:18Z</time>
      </trkpt>
      <trkpt lat="38.803475992754102" lon="-9.398702960461378">
        <ele>90.5</ele>
        <time>2025-05-04T15:24:19Z</time>
      </trkpt>
      <trkpt lat="38.803510023280978" lon="-9.39885500818491">
        <ele>90.019999999999996</ele>
        <time>2025-05-04T15:24:20Z</time>
      </trkpt>
      <trkpt lat="38.80353600718081" lon="-9.399165976792574">
        <ele>88.579999999999998</ele>
        <time>2025-05-04T15:24:22Z</time>
      </trkpt>
      <trkpt lat="38.803544975817204" lon="-9.399314001202583">
        <ele>88.099999999999994</ele>
        <time>2025-05-04T15:24:23Z</time>
      </trkpt>
      <trkpt lat="38.803554028272629" lon="-9.399461019784212">
        <ele>87.140000000000001</ele>
        <time>2025-05-04T15:24:24Z</time>
      </trkpt>
      <trkpt lat="38.803562996909022" lon="-9.400110030546784">
        <ele>84.25</ele>
        <time>2025-05-04T15:24:28Z</time>
      </trkpt>
      <trkpt lat="38.803544975817204" lon="-9.400280015543103">
        <ele>83.769999999999996</ele>
        <time>2025-05-04T15:24:29Z</time>
      </trkpt>
      <trkpt lat="38.803502982482314" lon="-9.400438014417887">
        <ele>82.810000000000002</ele>
        <time>2025-05-04T15:24:30Z</time>
      </trkpt>
      <trkpt lat="38.803451014682651" lon="-9.400598024949431">
        <ele>82.329999999999998</ele>
        <time>2025-05-04T15:24:31Z</time>
      </trkpt>
      <trkpt lat="38.803400974720716" lon="-9.400750994682312">
        <ele>81.849999999999994</ele>
        <time>2025-05-04T15:24:32Z</time>
      </trkpt>
      <trkpt lat="38.802980035543442" lon="-9.402032000944018">
        <ele>77.040000000000006</ele>
        <time>2025-05-04T15:24:40Z</time>
      </trkpt>
      <trkpt lat="38.802545014768839" lon="-9.403353994712234">
        <ele>71.760000000000005</ele>
        <time>2025-05-04T15:24:47Z</time>
      </trkpt>
      <trkpt lat="38.802127009257674" lon="-9.40465503372252">
        <ele>65.510000000000005</ele>
        <time>2025-05-04T15:24:55Z</time>
      </trkpt>
      <trkpt lat="38.802059032022953" lon="-9.404898025095463">
        <ele>64.549999999999997</ele>
        <time>2025-05-04T15:24:57Z</time>
      </trkpt>
      <trkpt lat="38.802046962082386" lon="-9.405060969293118">
        <ele>64.069999999999993</ele>
        <time>2025-05-04T15:24:58Z</time>
      </trkpt>
      <trkpt lat="38.802043022587895" lon="-9.405188038945198">
        <ele>63.579999999999998</ele>
        <time>2025-05-04T15:24:59Z</time>
      </trkpt>
      <trkpt lat="38.802092978730798" lon="-9.405297003686428">
        <ele>63.579999999999998</ele>
        <time>2025-05-04T15:25:00Z</time>
      </trkpt>
      <trkpt lat="38.802148969843984" lon="-9.405418038368225">
        <ele>63.100000000000001</ele>
        <time>2025-05-04T15:25:01Z</time>
      </trkpt>
      <trkpt lat="38.80222599953413" lon="-9.405520968139172">
        <ele>63.100000000000001</ele>
        <time>2025-05-04T15:25:02Z</time>
      </trkpt>
      <trkpt lat="38.802295988425612" lon="-9.405614007264376">
        <ele>62.140000000000001</ele>
        <time>2025-05-04T15:25:03Z</time>
      </trkpt>
      <trkpt lat="38.802335970103741" lon="-9.405700005590916">
        <ele>61.659999999999997</ele>
        <time>2025-05-04T15:25:04Z</time>
      </trkpt>
      <trkpt lat="38.802325995638967" lon="-9.405822968110442">
        <ele>61.18</ele>
        <time>2025-05-04T15:25:05Z</time>
      </trkpt>
      <trkpt lat="38.802313003689051" lon="-9.405954983085394">
        <ele>60.700000000000003</ele>
        <time>2025-05-04T15:25:06Z</time>
      </trkpt>
      <trkpt lat="38.80224796012044" lon="-9.406065037474036">
        <ele>60.219999999999999</ele>
        <time>2025-05-04T15:25:07Z</time>
      </trkpt>
      <trkpt lat="38.802176965400577" lon="-9.40618397668004">
        <ele>59.740000000000002</ele>
        <time>2025-05-04T15:25:08Z</time>
      </trkpt>
      <trkpt lat="38.802036987617612" lon="-9.40641900524497">
        <ele>58.299999999999997</ele>
        <time>2025-05-04T15:25:10Z</time>
      </trkpt>
      <trkpt lat="38.801971022039652" lon="-9.406528975814581">
        <ele>57.82</ele>
        <time>2025-05-04T15:25:11Z</time>
      </trkpt>
      <trkpt lat="38.801832972094417" lon="-9.406760986894369">
        <ele>56.859999999999999</ele>
        <time>2025-05-04T15:25:13Z</time>
      </trkpt>
      <trkpt lat="38.801692994311452" lon="-9.40700096078217">
        <ele>55.409999999999997</ele>
        <time>2025-05-04T15:25:15Z</time>
      </trkpt>
      <trkpt lat="38.801149008795619" lon="-9.40818096511066">
        <ele>51.090000000000003</ele>
        <time>2025-05-04T15:25:24Z</time>
      </trkpt>
      <trkpt lat="38.800784982740879" lon="-9.409083025529981">
        <ele>48.200000000000003</ele>
        <time>2025-05-04T15:25:31Z</time>
      </trkpt>
      <trkpt lat="38.800390027463436" lon="-9.410419017076492">
        <ele>45.799999999999997</ele>
        <time>2025-05-04T15:25:40Z</time>
      </trkpt>
      <trkpt lat="38.800352979451418" lon="-9.410548014566302">
        <ele>45.799999999999997</ele>
        <time>2025-05-04T15:25:41Z</time>
      </trkpt>
      <trkpt lat="38.800316015258431" lon="-9.410677012056112">
        <ele>45.799999999999997</ele>
        <time>2025-05-04T15:25:42Z</time>
      </trkpt>
      <trkpt lat="38.800281984731555" lon="-9.410811960697174">
        <ele>45.799999999999997</ele>
        <time>2025-05-04T15:25:43Z</time>
      </trkpt>
      <trkpt lat="38.80024996586144" lon="-9.410950010642409">
        <ele>45.799999999999997</ele>
        <time>2025-05-04T15:25:44Z</time>
      </trkpt>
      <trkpt lat="38.80016203969717" lon="-9.41136097535491">
        <ele>44.840000000000003</ele>
        <time>2025-05-04T15:25:47Z</time>
      </trkpt>
      <trkpt lat="38.80014100112021" lon="-9.411508999764919">
        <ele>44.359999999999999</ele>
        <time>2025-05-04T15:25:48Z</time>
      </trkpt>
      <trkpt lat="38.800128009170294" lon="-9.412795035168529">
        <ele>41.469999999999999</ele>
        <time>2025-05-04T15:25:57Z</time>
      </trkpt>
      <trkpt lat="38.80009800195694" lon="-9.412921015173197">
        <ele>40.990000000000002</ele>
        <time>2025-05-04T15:25:58Z</time>
      </trkpt>
      <trkpt lat="38.800066988915205" lon="-9.413053030148149">
        <ele>40.509999999999998</ele>
        <time>2025-05-04T15:25:59Z</time>
      </trkpt>
      <trkpt lat="38.799799019470811" lon="-9.414018960669637">
        <ele>41.950000000000003</ele>
        <time>2025-05-04T15:26:06Z</time>
      </trkpt>
      <trkpt lat="38.799751996994019" lon="-9.414450963959098">
        <ele>43.399999999999999</ele>
        <time>2025-05-04T15:26:09Z</time>
      </trkpt>
      <trkpt lat="38.799737999215722" lon="-9.414581973105669">
        <ele>44.359999999999999</ele>
        <time>2025-05-04T15:26:10Z</time>
      </trkpt>
      <trkpt lat="38.79966801032424" lon="-9.415372973307967">
        <ele>47.240000000000002</ele>
        <time>2025-05-04T15:26:16Z</time>
      </trkpt>
      <trkpt lat="38.799659041687846" lon="-9.415503982454538">
        <ele>47.240000000000002</ele>
        <time>2025-05-04T15:26:17Z</time>
      </trkpt>
      <trkpt lat="38.799688965082169" lon="-9.415640020743012">
        <ele>47.240000000000002</ele>
        <time>2025-05-04T15:26:18Z</time>
      </trkpt>
      <trkpt lat="38.799729030579329" lon="-9.415758959949017">
        <ele>47.719999999999999</ele>
        <time>2025-05-04T15:26:19Z</time>
      </trkpt>
      <trkpt lat="38.799780998378992" lon="-9.415859961882234">
        <ele>48.200000000000003</ele>
        <time>2025-05-04T15:26:20Z</time>
      </trkpt>
      <trkpt lat="38.7998410128057" lon="-9.415955012664199">
        <ele>48.68</ele>
        <time>2025-05-04T15:26:21Z</time>
      </trkpt>
      <trkpt lat="38.799903960898519" lon="-9.416054002940655">
        <ele>49.159999999999997</ele>
        <time>2025-05-04T15:26:22Z</time>
      </trkpt>
      <trkpt lat="38.79997001029551" lon="-9.416157016530633">
        <ele>49.649999999999999</ele>
        <time>2025-05-04T15:26:23Z</time>
      </trkpt>
      <trkpt lat="38.800095990300179" lon="-9.416389027610421">
        <ele>50.609999999999999</ele>
        <time>2025-05-04T15:26:25Z</time>
      </trkpt>
      <trkpt lat="38.800144018605351" lon="-9.416493969038129">
        <ele>51.57</ele>
        <time>2025-05-04T15:26:26Z</time>
      </trkpt>
      <trkpt lat="38.800134966149926" lon="-9.416652973741293">
        <ele>51.57</ele>
        <time>2025-05-04T15:26:27Z</time>
      </trkpt>
      <trkpt lat="38.800128009170294" lon="-9.416721034795046">
        <ele>52.049999999999997</ele>
        <time>2025-05-04T15:26:28Z</time>
      </trkpt>
      <trkpt lat="38.800067994743586" lon="-9.416878027841449">
        <ele>52.049999999999997</ele>
        <time>2025-05-04T15:26:29Z</time>
      </trkpt>
      <trkpt lat="38.800026001408696" lon="-9.416984980925918">
        <ele>52.530000000000001</ele>
        <time>2025-05-04T15:26:30Z</time>
      </trkpt>
      <trkpt lat="38.79994997754693" lon="-9.417057987302542">
        <ele>52.530000000000001</ele>
        <time>2025-05-04T15:26:31Z</time>
      </trkpt>
      <trkpt lat="38.799857022240758" lon="-9.417125964537263">
        <ele>52.530000000000001</ele>
        <time>2025-05-04T15:26:32Z</time>
      </trkpt>
      <trkpt lat="38.799753002822399" lon="-9.41718396730721">
        <ele>53.009999999999998</ele>
        <time>2025-05-04T15:26:33Z</time>
      </trkpt>
      <trkpt lat="38.79964797757566" lon="-9.417240964248776">
        <ele>53.009999999999998</ele>
        <time>2025-05-04T15:26:34Z</time>
      </trkpt>
      <trkpt lat="38.799462988972664" lon="-9.417342972010374">
        <ele>52.530000000000001</ele>
        <time>2025-05-04T15:26:36Z</time>
      </trkpt>
      <trkpt lat="38.799380008131266" lon="-9.417454032227397">
        <ele>52.530000000000001</ele>
        <time>2025-05-04T15:26:37Z</time>
      </trkpt>
      <trkpt lat="38.79930499009788" lon="-9.417554028332233">
        <ele>52.530000000000001</ele>
        <time>2025-05-04T15:26:38Z</time>
      </trkpt>
      <trkpt lat="38.799252016469836" lon="-9.41765402443707">
        <ele>52.049999999999997</ele>
        <time>2025-05-04T15:26:39Z</time>
      </trkpt>
      <trkpt lat="38.799210023134947" lon="-9.417780004441738">
        <ele>52.049999999999997</ele>
        <time>2025-05-04T15:26:40Z</time>
      </trkpt>
      <trkpt lat="38.799167023971677" lon="-9.417909001931548">
        <ele>52.049999999999997</ele>
        <time>2025-05-04T15:26:41Z</time>
      </trkpt>
      <trkpt lat="38.799141962081194" lon="-9.41804202273488">
        <ele>51.57</ele>
        <time>2025-05-04T15:26:42Z</time>
      </trkpt>
      <trkpt lat="38.799118995666504" lon="-9.418187029659748">
        <ele>51.57</ele>
        <time>2025-05-04T15:26:43Z</time>
      </trkpt>
      <trkpt lat="38.799124024808407" lon="-9.418347040191293">
        <ele>52.049999999999997</ele>
        <time>2025-05-04T15:26:44Z</time>
      </trkpt>
      <trkpt lat="38.7991329934448" lon="-9.418500009924173">
        <ele>53.009999999999998</ele>
        <time>2025-05-04T15:26:45Z</time>
      </trkpt>
      <trkpt lat="38.799144979566336" lon="-9.418653985485435">
        <ele>53.490000000000002</ele>
        <time>2025-05-04T15:26:46Z</time>
      </trkpt>
      <trkpt lat="38.799431975930929" lon="-9.420418040826917">
        <ele>58.780000000000001</ele>
        <time>2025-05-04T15:26:58Z</time>
      </trkpt>
      <trkpt lat="38.799615958705544" lon="-9.420975018292666">
        <ele>59.740000000000002</ele>
        <time>2025-05-04T15:27:02Z</time>
      </trkpt>
      <trkpt lat="38.79969097673893" lon="-9.421108961105347">
        <ele>59.740000000000002</ele>
        <time>2025-05-04T15:27:03Z</time>
      </trkpt>
      <trkpt lat="38.800669983029366" lon="-9.422894977033138">
        <ele>61.18</ele>
        <time>2025-05-04T15:27:15Z</time>
      </trkpt>
      <trkpt lat="38.801512029021978" lon="-9.424240021035075">
        <ele>57.82</ele>
        <time>2025-05-04T15:27:23Z</time>
      </trkpt>
      <trkpt lat="38.80263302475214" lon="-9.425807017832995">
        <ele>50.609999999999999</ele>
        <time>2025-05-04T15:27:32Z</time>
      </trkpt>
      <trkpt lat="38.803596021607518" lon="-9.427159018814564">
        <ele>45.799999999999997</ele>
        <time>2025-05-04T15:27:41Z</time>
      </trkpt>
      <trkpt lat="38.803964992985129" lon="-9.427680959925056">
        <ele>43.880000000000003</ele>
        <time>2025-05-04T15:27:45Z</time>
      </trkpt>
      <trkpt lat="38.804035987704992" lon="-9.427830995991826">
        <ele>43.880000000000003</ele>
        <time>2025-05-04T15:27:46Z</time>
      </trkpt>
      <trkpt lat="38.804519036784768" lon="-9.429092975333333">
        <ele>44.840000000000003</ele>
        <time>2025-05-04T15:27:54Z</time>
      </trkpt>
      <trkpt lat="38.804597994312644" lon="-9.42940796725452">
        <ele>45.32</ele>
        <time>2025-05-04T15:27:56Z</time>
      </trkpt>
      <trkpt lat="38.804602017626166" lon="-9.429570995271206">
        <ele>44.840000000000003</ele>
        <time>2025-05-04T15:27:57Z</time>
      </trkpt>
      <trkpt lat="38.804586008191109" lon="-9.429737040773034">
        <ele>44.359999999999999</ele>
        <time>2025-05-04T15:27:58Z</time>
      </trkpt>
      <trkpt lat="38.80456899292767" lon="-9.429905014112592">
        <ele>43.880000000000003</ele>
        <time>2025-05-04T15:27:59Z</time>
      </trkpt>
      <trkpt lat="38.804551977664232" lon="-9.430070975795388">
        <ele>43.399999999999999</ele>
        <time>2025-05-04T15:28:00Z</time>
      </trkpt>
      <trkpt lat="38.804519036784768" lon="-9.430226041004062">
        <ele>42.439999999999998</ele>
        <time>2025-05-04T15:28:01Z</time>
      </trkpt>
      <trkpt lat="38.804442007094622" lon="-9.430537009611726">
        <ele>40.990000000000002</ele>
        <time>2025-05-04T15:28:03Z</time>
      </trkpt>
      <trkpt lat="38.80439699627459" lon="-9.430677993223071">
        <ele>40.030000000000001</ele>
        <time>2025-05-04T15:28:04Z</time>
      </trkpt>
      <trkpt lat="38.804336981847882" lon="-9.430818976834416">
        <ele>39.549999999999997</ele>
        <time>2025-05-04T15:28:05Z</time>
      </trkpt>
      <trkpt lat="38.80385996773839" lon="-9.431859003379941">
        <ele>37.149999999999999</ele>
        <time>2025-05-04T15:28:12Z</time>
      </trkpt>
      <trkpt lat="38.803790984675288" lon="-9.432004010304809">
        <ele>36.670000000000002</ele>
        <time>2025-05-04T15:28:13Z</time>
      </trkpt>
      <trkpt lat="38.803473981097341" lon="-9.432669030502439">
        <ele>31.859999999999999</ele>
        <time>2025-05-04T15:28:18Z</time>
      </trkpt>
      <trkpt lat="38.803435005247593" lon="-9.432810014113784">
        <ele>30.899999999999999</ele>
        <time>2025-05-04T15:28:19Z</time>
      </trkpt>
      <trkpt lat="38.803354036062956" lon="-9.433092987164855">
        <ele>28.98</ele>
        <time>2025-05-04T15:28:21Z</time>
      </trkpt>
      <trkpt lat="38.803303996101022" lon="-9.433243023231626">
        <ele>28.02</ele>
        <time>2025-05-04T15:28:22Z</time>
      </trkpt>
      <trkpt lat="38.803217997774482" lon="-9.433415019884706">
        <ele>27.050000000000001</ele>
        <time>2025-05-04T15:28:23Z</time>
      </trkpt>
      <trkpt lat="38.803156977519393" lon="-9.433472016826272">
        <ele>26.09</ele>
        <time>2025-05-04T15:28:24Z</time>
      </trkpt>
      <trkpt lat="38.803056981414557" lon="-9.433565977960825">
        <ele>25.129999999999999</ele>
        <time>2025-05-04T15:28:25Z</time>
      </trkpt>
      <trkpt lat="38.802951034158468" lon="-9.433664968237281">
        <ele>24.649999999999999</ele>
        <time>2025-05-04T15:28:26Z</time>
      </trkpt>
      <trkpt lat="38.802851960062981" lon="-9.433766975998879">
        <ele>23.690000000000001</ele>
        <time>2025-05-04T15:28:27Z</time>
      </trkpt>
      <trkpt lat="38.80276202224195" lon="-9.433889016509056">
        <ele>22.73</ele>
        <time>2025-05-04T15:28:28Z</time>
      </trkpt>
      <trkpt lat="38.80259002558887" lon="-9.434122033417225">
        <ele>21.289999999999999</ele>
        <time>2025-05-04T15:28:30Z</time>
      </trkpt>
      <trkpt lat="38.802495980635285" lon="-9.43424298427999">
        <ele>20.32</ele>
        <time>2025-05-04T15:28:31Z</time>
      </trkpt>
      <trkpt lat="38.801799025386572" lon="-9.434850001707673">
        <ele>15.52</ele>
        <time>2025-05-04T15:28:38Z</time>
      </trkpt>
      <trkpt lat="38.801286974921823" lon="-9.435581993311644">
        <ele>11.67</ele>
        <time>2025-05-04T15:28:44Z</time>
      </trkpt>
      <trkpt lat="38.801264008507133" lon="-9.435676038265228">
        <ele>11.19</ele>
        <time>2025-05-04T15:28:45Z</time>
      </trkpt>
      <trkpt lat="38.801189996302128" lon="-9.435983989387751">
        <ele>10.23</ele>
        <time>2025-05-04T15:28:47Z</time>
      </trkpt>
      <trkpt lat="38.801152026280761" lon="-9.436139976605773">
        <ele>9.75</ele>
        <time>2025-05-04T15:28:48Z</time>
      </trkpt>
      <trkpt lat="38.801097040995955" lon="-9.436294035986066">
        <ele>9.27</ele>
        <time>2025-05-04T15:28:49Z</time>
      </trkpt>
      <trkpt lat="38.80102101713419" lon="-9.436439964920282">
        <ele>8.789999999999999</ele>
        <time>2025-05-04T15:28:50Z</time>
      </trkpt>
      <trkpt lat="38.800924960523844" lon="-9.436579020693898">
        <ele>7.83</ele>
        <time>2025-05-04T15:28:51Z</time>
      </trkpt>
      <trkpt lat="38.800857989117503" lon="-9.436677005141974">
        <ele>7.35</ele>
        <time>2025-05-04T15:28:52Z</time>
      </trkpt>
      <trkpt lat="38.800679035484791" lon="-9.436841038987041">
        <ele>6.87</ele>
        <time>2025-05-04T15:28:53Z</time>
      </trkpt>
      <trkpt lat="38.800553977489471" lon="-9.436970036476851">
        <ele>6.39</ele>
        <time>2025-05-04T15:28:54Z</time>
      </trkpt>
      <trkpt lat="38.80046303384006" lon="-9.437106996774674">
        <ele>5.42</ele>
        <time>2025-05-04T15:28:55Z</time>
      </trkpt>
      <trkpt lat="38.800218030810356" lon="-9.437459958717227">
        <ele>3.98</ele>
        <time>2025-05-04T15:28:58Z</time>
      </trkpt>
      <trkpt lat="38.800111999735236" lon="-9.437531037256122">
        <ele>3.5</ele>
        <time>2025-05-04T15:28:59Z</time>
      </trkpt>
      <trkpt lat="38.799787033349276" lon="-9.437747960910201">
        <ele>1.1</ele>
        <time>2025-05-04T15:29:02Z</time>
      </trkpt>
      <trkpt lat="38.799704974517226" lon="-9.437822978943586">
        <ele>0.62</ele>
        <time>2025-05-04T15:29:03Z</time>
      </trkpt>
      <trkpt lat="38.799659963697195" lon="-9.437913000583649">
        <ele>-0.82</ele>
        <time>2025-05-04T15:29:04Z</time>
      </trkpt>
      <trkpt lat="38.799618976190686" lon="-9.438059013336897">
        <ele>-1.79</ele>
        <time>2025-05-04T15:29:05Z</time>
      </trkpt>
      <trkpt lat="38.799630962312222" lon="-9.438170995563269">
        <ele>-2.27</ele>
        <time>2025-05-04T15:29:06Z</time>
      </trkpt>
      <trkpt lat="38.799693994224072" lon="-9.438314996659756">
        <ele>-2.75</ele>
        <time>2025-05-04T15:29:07Z</time>
      </trkpt>
      <trkpt lat="38.799763983115554" lon="-9.438450029119849">
        <ele>-3.23</ele>
        <time>2025-05-04T15:29:08Z</time>
      </trkpt>
      <trkpt lat="38.79984000697732" lon="-9.438597969710827">
        <ele>-3.23</ele>
        <time>2025-05-04T15:29:09Z</time>
      </trkpt>
      <trkpt lat="38.799917036667466" lon="-9.438746999949217">
        <ele>-2.75</ele>
        <time>2025-05-04T15:29:10Z</time>
      </trkpt>
      <trkpt lat="38.799979984760284" lon="-9.438909022137523">
        <ele>-3.23</ele>
        <time>2025-05-04T15:29:11Z</time>
      </trkpt>
      <trkpt lat="38.800019966438413" lon="-9.439081018790603">
        <ele>-3.23</ele>
        <time>2025-05-04T15:29:12Z</time>
      </trkpt>
      <trkpt lat="38.8000120036304" lon="-9.43924899213016">
        <ele>-3.71</ele>
        <time>2025-05-04T15:29:13Z</time>
      </trkpt>
      <trkpt lat="38.800004040822387" lon="-9.439430963248015">
        <ele>-4.19</ele>
        <time>2025-05-04T15:29:14Z</time>
      </trkpt>
      <trkpt lat="38.799823997542262" lon="-9.44053603336215">
        <ele>-6.59</ele>
        <time>2025-05-04T15:29:20Z</time>
      </trkpt>
      <trkpt lat="38.79979801364243" lon="-9.440715992823243">
        <ele>-6.59</ele>
        <time>2025-05-04T15:29:21Z</time>
      </trkpt>
      <trkpt lat="38.799783010035753" lon="-9.440886983647943">
        <ele>-7.07</ele>
        <time>2025-05-04T15:29:22Z</time>
      </trkpt>
      <trkpt lat="38.799769012257457" lon="-9.441049005836248">
        <ele>-7.07</ele>
        <time>2025-05-04T15:29:23Z</time>
      </trkpt>
      <trkpt lat="38.799775969237089" lon="-9.441221002489328">
        <ele>-6.59</ele>
        <time>2025-05-04T15:29:24Z</time>
      </trkpt>
      <trkpt lat="38.79982098005712" lon="-9.441383024677634">
        <ele>-6.59</ele>
        <time>2025-05-04T15:29:25Z</time>
      </trkpt>
      <trkpt lat="38.799891974776983" lon="-9.441569019109011">
        <ele>-6.11</ele>
        <time>2025-05-04T15:29:26Z</time>
      </trkpt>
      <trkpt lat="38.799971016123891" lon="-9.441651999950409">
        <ele>-6.11</ele>
        <time>2025-05-04T15:29:27Z</time>
      </trkpt>
      <trkpt lat="38.800072018057108" lon="-9.441758031025529">
        <ele>-6.11</ele>
        <time>2025-05-04T15:29:28Z</time>
      </trkpt>
      <trkpt lat="38.800180982798338" lon="-9.441873030737042">
        <ele>-6.11</ele>
        <time>2025-05-04T15:29:29Z</time>
      </trkpt>
      <trkpt lat="38.800408970564604" lon="-9.442087020725012">
        <ele>-5.63</ele>
        <time>2025-05-04T15:29:31Z</time>
      </trkpt>
      <trkpt lat="38.800733014941216" lon="-9.442333029583097">
        <ele>-3.71</ele>
        <time>2025-05-04T15:29:34Z</time>
      </trkpt>
      <trkpt lat="38.80080602131784" lon="-9.442432019859552">
        <ele>-3.23</ele>
        <time>2025-05-04T15:29:35Z</time>
      </trkpt>
      <trkpt lat="38.800862012431026" lon="-9.442544002085924">
        <ele>-2.75</ele>
        <time>2025-05-04T15:29:36Z</time>
      </trkpt>
      <trkpt lat="38.800882967188954" lon="-9.442678028717637">
        <ele>-1.79</ele>
        <time>2025-05-04T15:29:37Z</time>
      </trkpt>
      <trkpt lat="38.80084902048111" lon="-9.442794034257531">
        <ele>-1.3</ele>
        <time>2025-05-04T15:29:38Z</time>
      </trkpt>
      <trkpt lat="38.800811972469091" lon="-9.44292102009058">
        <ele>-0.82</ele>
        <time>2025-05-04T15:29:39Z</time>
      </trkpt>
      <trkpt lat="38.80076402798295" lon="-9.443053035065532">
        <ele>-0.82</ele>
        <time>2025-05-04T15:29:40Z</time>
      </trkpt>
      <trkpt lat="38.800546014681458" lon="-9.443515967577696">
        <ele>0.62</ele>
        <time>2025-05-04T15:29:44Z</time>
      </trkpt>
      <trkpt lat="38.800458004698157" lon="-9.443604983389378">
        <ele>0.62</ele>
        <time>2025-05-04T15:29:45Z</time>
      </trkpt>
      <trkpt lat="38.800363959744573" lon="-9.44367203861475">
        <ele>1.1</ele>
        <time>2025-05-04T15:29:46Z</time>
      </trkpt>
      <trkpt lat="38.800268992781639" lon="-9.443741021677852">
        <ele>1.1</ele>
        <time>2025-05-04T15:29:47Z</time>
      </trkpt>
      <trkpt lat="38.800170002505183" lon="-9.443812016397715">
        <ele>1.58</ele>
        <time>2025-05-04T15:29:48Z</time>
      </trkpt>
      <trkpt lat="38.800081992521882" lon="-9.443874964490533">
        <ele>2.06</ele>
        <time>2025-05-04T15:29:49Z</time>
      </trkpt>
      <trkpt lat="38.799977973103523" lon="-9.443950988352299">
        <ele>2.54</ele>
        <time>2025-05-04T15:29:50Z</time>
      </trkpt>
      <trkpt lat="38.799917958676815" lon="-9.444031035527587">
        <ele>3.02</ele>
        <time>2025-05-04T15:29:51Z</time>
      </trkpt>
      <trkpt lat="38.799765994772315" lon="-9.444233039394021">
        <ele>3.5</ele>
        <time>2025-05-04T15:29:53Z</time>
      </trkpt>
      <trkpt lat="38.799696005880833" lon="-9.444327000528574">
        <ele>3.98</ele>
        <time>2025-05-04T15:29:54Z</time>
      </trkpt>
      <trkpt lat="38.799645965918899" lon="-9.444420039653778">
        <ele>3.98</ele>
        <time>2025-05-04T15:29:55Z</time>
      </trkpt>
      <trkpt lat="38.799622999504209" lon="-9.444510983303189">
        <ele>3.98</ele>
        <time>2025-05-04T15:29:56Z</time>
      </trkpt>
      <trkpt lat="38.79960598424077" lon="-9.444578038528562">
        <ele>4.46</ele>
        <time>2025-05-04T15:29:57Z</time>
      </trkpt>
      <trkpt lat="38.799591986462474" lon="-9.444636963307858">
        <ele>4.94</ele>
        <time>2025-05-04T15:29:58Z</time>
      </trkpt>
      <trkpt lat="38.799613025039434" lon="-9.444698989391327">
        <ele>4.94</ele>
        <time>2025-05-04T15:29:59Z</time>
      </trkpt>
      <trkpt lat="38.799702962860465" lon="-9.44496201351285">
        <ele>6.39</ele>
        <time>2025-05-04T15:30:02Z</time>
      </trkpt>
      <trkpt lat="38.800101019442081" lon="-9.44616599008441">
        <ele>16.48</ele>
        <time>2025-05-04T15:30:12Z</time>
      </trkpt>
      <trkpt lat="38.800343004986644" lon="-9.446774013340473">
        <ele>19.84</ele>
        <time>2025-05-04T15:30:17Z</time>
      </trkpt>
      <trkpt lat="38.800401007756591" lon="-9.44687501527369">
        <ele>20.32</ele>
        <time>2025-05-04T15:30:18Z</time>
      </trkpt>
      <trkpt lat="38.800846002995968" lon="-9.447450013831258">
        <ele>20.809999999999999</ele>
        <time>2025-05-04T15:30:24Z</time>
      </trkpt>
      <trkpt lat="38.800925966352224" lon="-9.447534000501037">
        <ele>20.809999999999999</ele>
        <time>2025-05-04T15:30:25Z</time>
      </trkpt>
      <trkpt lat="38.801008025184274" lon="-9.447619998827577">
        <ele>20.809999999999999</ele>
        <time>2025-05-04T15:30:26Z</time>
      </trkpt>
      <trkpt lat="38.801100980490446" lon="-9.447675989940763">
        <ele>20.809999999999999</ele>
        <time>2025-05-04T15:30:27Z</time>
      </trkpt>
      <trkpt lat="38.801195025444031" lon="-9.447732986882329">
        <ele>20.32</ele>
        <time>2025-05-04T15:30:28Z</time>
      </trkpt>
      <trkpt lat="38.801662987098098" lon="-9.448016965761781">
        <ele>18.879999999999999</ele>
        <time>2025-05-04T15:30:33Z</time>
      </trkpt>
      <trkpt lat="38.801750997081399" lon="-9.448042027652264">
        <ele>19.359999999999999</ele>
        <time>2025-05-04T15:30:34Z</time>
      </trkpt>
      <trkpt lat="38.801840012893081" lon="-9.448023000732064">
        <ele>19.84</ele>
        <time>2025-05-04T15:30:35Z</time>
      </trkpt>
      <trkpt lat="38.801934979856014" lon="-9.448001962155104">
        <ele>19.84</ele>
        <time>2025-05-04T15:30:36Z</time>
      </trkpt>
      <trkpt lat="38.802038999274373" lon="-9.447987964376807">
        <ele>20.32</ele>
        <time>2025-05-04T15:30:37Z</time>
      </trkpt>
      <trkpt lat="38.802150981500745" lon="-9.448001962155104">
        <ele>20.32</ele>
        <time>2025-05-04T15:30:38Z</time>
      </trkpt>
      <trkpt lat="38.80224603228271" lon="-9.448063988238573">
        <ele>20.32</ele>
        <time>2025-05-04T15:30:39Z</time>
      </trkpt>
      <trkpt lat="38.80233203060925" lon="-9.448149986565113">
        <ele>20.32</ele>
        <time>2025-05-04T15:30:40Z</time>
      </trkpt>
      <trkpt lat="38.802419034764171" lon="-9.448237996548414">
        <ele>20.32</ele>
        <time>2025-05-04T15:30:41Z</time>
      </trkpt>
      <trkpt lat="38.80250402726233" lon="-9.448337992653251">
        <ele>20.809999999999999</ele>
        <time>2025-05-04T15:30:42Z</time>
      </trkpt>
      <trkpt lat="38.802982969209552" lon="-9.449076019227505">
        <ele>22.73</ele>
        <time>2025-05-04T15:30:50Z</time>
      </trkpt>
      <trkpt lat="38.803024962544441" lon="-9.449169980362058">
        <ele>22.73</ele>
        <time>2025-05-04T15:30:51Z</time>
      </trkpt>
      <trkpt lat="38.803097968921065" lon="-9.449353041127324">
        <ele>22.25</ele>
        <time>2025-05-04T15:30:53Z</time>
      </trkpt>
      <trkpt lat="38.803120013326406" lon="-9.449442978948355">
        <ele>21.77</ele>
        <time>2025-05-04T15:30:54Z</time>
      </trkpt>
      <trkpt lat="38.803168963640928" lon="-9.449651017785072">
        <ele>20.809999999999999</ele>
        <time>2025-05-04T15:30:56Z</time>
      </trkpt>
      <trkpt lat="38.803196037188172" lon="-9.449765011668205">
        <ele>20.32</ele>
        <time>2025-05-04T15:30:57Z</time>
      </trkpt>
      <trkpt lat="38.803213974460959" lon="-9.449881017208099">
        <ele>19.84</ele>
        <time>2025-05-04T15:30:58Z</time>
      </trkpt>
      <trkpt lat="38.803233001381159" lon="-9.450004985556006">
        <ele>19.84</ele>
        <time>2025-05-04T15:30:59Z</time>
      </trkpt>
      <trkpt lat="38.803251022472978" lon="-9.450129959732294">
        <ele>19.359999999999999</ele>
        <time>2025-05-04T15:31:00Z</time>
      </trkpt>
      <trkpt lat="38.803269965574145" lon="-9.450253006070852">
        <ele>19.359999999999999</ele>
        <time>2025-05-04T15:31:01Z</time>
      </trkpt>
      <trkpt lat="38.803288992494345" lon="-9.450376974418759">
        <ele>19.359999999999999</ele>
        <time>2025-05-04T15:31:02Z</time>
      </trkpt>
      <trkpt lat="38.803325034677982" lon="-9.450617032125592">
        <ele>18.879999999999999</ele>
        <time>2025-05-04T15:31:04Z</time>
      </trkpt>
      <trkpt lat="38.803368033841252" lon="-9.451040988788009">
        <ele>18.879999999999999</ele>
        <time>2025-05-04T15:31:07Z</time>
      </trkpt>
      <trkpt lat="38.803368033841252" lon="-9.451912036165595">
        <ele>22.73</ele>
        <time>2025-05-04T15:31:13Z</time>
      </trkpt>
      <trkpt lat="38.803332997485995" lon="-9.452040027827025">
        <ele>23.210000000000001</ele>
        <time>2025-05-04T15:31:14Z</time>
      </trkpt>
      <trkpt lat="38.803298966959119" lon="-9.452155027538538">
        <ele>23.210000000000001</ele>
        <time>2025-05-04T15:31:15Z</time>
      </trkpt>
      <trkpt lat="38.803241970017552" lon="-9.452244965359569">
        <ele>23.690000000000001</ele>
        <time>2025-05-04T15:31:16Z</time>
      </trkpt>
      <trkpt lat="38.803182961419225" lon="-9.452336998656392">
        <ele>24.170000000000002</ele>
        <time>2025-05-04T15:31:17Z</time>
      </trkpt>
      <trkpt lat="38.803114984184504" lon="-9.452445963397622">
        <ele>24.649999999999999</ele>
        <time>2025-05-04T15:31:18Z</time>
      </trkpt>
      <trkpt lat="38.803046001121402" lon="-9.452559035271406">
        <ele>25.609999999999999</ele>
        <time>2025-05-04T15:31:19Z</time>
      </trkpt>
      <trkpt lat="38.802981963381171" lon="-9.452662970870733">
        <ele>26.57</ele>
        <time>2025-05-04T15:31:20Z</time>
      </trkpt>
      <trkpt lat="38.802929995581508" lon="-9.452780988067389">
        <ele>27.050000000000001</ele>
        <time>2025-05-04T15:31:21Z</time>
      </trkpt>
      <trkpt lat="38.802880039438605" lon="-9.452897999435663">
        <ele>27.530000000000001</ele>
        <time>2025-05-04T15:31:22Z</time>
      </trkpt>
      <trkpt lat="38.802829999476671" lon="-9.453011993318796">
        <ele>28.5</ele>
        <time>2025-05-04T15:31:23Z</time>
      </trkpt>
      <trkpt lat="38.802779959514737" lon="-9.453129004687071">
        <ele>28.98</ele>
        <time>2025-05-04T15:31:24Z</time>
      </trkpt>
      <trkpt lat="38.802595976740122" lon="-9.453447014093399">
        <ele>30.420000000000002</ele>
        <time>2025-05-04T15:31:27Z</time>
      </trkpt>
      <trkpt lat="38.80252699367702" lon="-9.453538041561842">
        <ele>31.379999999999999</ele>
        <time>2025-05-04T15:31:28Z</time>
      </trkpt>
      <trkpt lat="38.802453987300396" lon="-9.453634014353156">
        <ele>31.859999999999999</ele>
        <time>2025-05-04T15:31:29Z</time>
      </trkpt>
      <trkpt lat="38.802377041429281" lon="-9.453736022114754">
        <ele>32.340000000000003</ele>
        <time>2025-05-04T15:31:30Z</time>
      </trkpt>
      <trkpt lat="38.802301017567515" lon="-9.45383601821959">
        <ele>33.299999999999997</ele>
        <time>2025-05-04T15:31:31Z</time>
      </trkpt>
      <trkpt lat="38.80222499370575" lon="-9.453932996839285">
        <ele>34.259999999999998</ele>
        <time>2025-05-04T15:31:32Z</time>
      </trkpt>
      <trkpt lat="38.802134972065687" lon="-9.454012960195541">
        <ele>35.229999999999997</ele>
        <time>2025-05-04T15:31:33Z</time>
      </trkpt>
      <trkpt lat="38.802043022587895" lon="-9.45409401319921">
        <ele>36.189999999999998</ele>
        <time>2025-05-04T15:31:34Z</time>
      </trkpt>
      <trkpt lat="38.801949983462691" lon="-9.454176994040608">
        <ele>37.149999999999999</ele>
        <time>2025-05-04T15:31:35Z</time>
      </trkpt>
      <trkpt lat="38.801865996792912" lon="-9.454250000417233">
        <ele>38.109999999999999</ele>
        <time>2025-05-04T15:31:36Z</time>
      </trkpt>
      <trkpt lat="38.80179600790143" lon="-9.454376986250281">
        <ele>39.07</ele>
        <time>2025-05-04T15:31:37Z</time>
      </trkpt>
      <trkpt lat="38.801758959889412" lon="-9.454490980133414">
        <ele>40.030000000000001</ele>
        <time>2025-05-04T15:31:38Z</time>
      </trkpt>
      <trkpt lat="38.801758959889412" lon="-9.45462903007865">
        <ele>40.990000000000002</ele>
        <time>2025-05-04T15:31:39Z</time>
      </trkpt>
      <trkpt lat="38.801758959889412" lon="-9.454787028953433">
        <ele>41.469999999999999</ele>
        <time>2025-05-04T15:31:40Z</time>
      </trkpt>
      <trkpt lat="38.80181897431612" lon="-9.454898005351424">
        <ele>41.950000000000003</ele>
        <time>2025-05-04T15:31:41Z</time>
      </trkpt>
      <trkpt lat="38.80188200622797" lon="-9.45501602254808">
        <ele>42.920000000000002</ele>
        <time>2025-05-04T15:31:42Z</time>
      </trkpt>
      <trkpt lat="38.801960041746497" lon="-9.455128004774451">
        <ele>43.399999999999999</ele>
        <time>2025-05-04T15:31:43Z</time>
      </trkpt>
      <trkpt lat="38.802047967910767" lon="-9.455235041677952">
        <ele>44.359999999999999</ele>
        <time>2025-05-04T15:31:44Z</time>
      </trkpt>
      <trkpt lat="38.802231028676033" lon="-9.455460011959076">
        <ele>45.32</ele>
        <time>2025-05-04T15:31:46Z</time>
      </trkpt>
      <trkpt lat="38.802318032830954" lon="-9.455583980306983">
        <ele>45.799999999999997</ele>
        <time>2025-05-04T15:31:47Z</time>
      </trkpt>
      <trkpt lat="38.802518025040627" lon="-9.455983964726329">
        <ele>45.799999999999997</ele>
        <time>2025-05-04T15:31:50Z</time>
      </trkpt>
      <trkpt lat="38.802539985626936" lon="-9.456134000793099">
        <ele>46.280000000000001</ele>
        <time>2025-05-04T15:31:51Z</time>
      </trkpt>
      <trkpt lat="38.802552977576852" lon="-9.456310020759702">
        <ele>46.280000000000001</ele>
        <time>2025-05-04T15:31:52Z</time>
      </trkpt>
      <trkpt lat="38.802552977576852" lon="-9.456468019634485">
        <ele>46.759999999999998</ele>
        <time>2025-05-04T15:31:53Z</time>
      </trkpt>
      <trkpt lat="38.8025470264256" lon="-9.456647979095578">
        <ele>46.759999999999998</ele>
        <time>2025-05-04T15:31:54Z</time>
      </trkpt>
      <trkpt lat="38.802535962313414" lon="-9.457013010978699">
        <ele>47.240000000000002</ele>
        <time>2025-05-04T15:31:56Z</time>
      </trkpt>
      <trkpt lat="38.802545014768839" lon="-9.457194982096553">
        <ele>47.719999999999999</ele>
        <time>2025-05-04T15:31:57Z</time>
      </trkpt>
      <trkpt lat="38.802617015317082" lon="-9.457330014556646">
        <ele>47.719999999999999</ele>
        <time>2025-05-04T15:31:58Z</time>
      </trkpt>
      <trkpt lat="38.802692033350468" lon="-9.457469992339611">
        <ele>48.68</ele>
        <time>2025-05-04T15:31:59Z</time>
      </trkpt>
      <trkpt lat="38.802766967564821" lon="-9.457619022578001">
        <ele>49.649999999999999</ele>
        <time>2025-05-04T15:32:00Z</time>
      </trkpt>
      <trkpt lat="38.802834022790194" lon="-9.45776897482574">
        <ele>50.130000000000003</ele>
        <time>2025-05-04T15:32:01Z</time>
      </trkpt>
      <trkpt lat="38.802850032225251" lon="-9.457934014499188">
        <ele>51.090000000000003</ele>
        <time>2025-05-04T15:32:02Z</time>
      </trkpt>
      <trkpt lat="38.802841985598207" lon="-9.458093019202352">
        <ele>51.57</ele>
        <time>2025-05-04T15:32:03Z</time>
      </trkpt>
      <trkpt lat="38.802821030840278" lon="-9.458250012248755">
        <ele>52.049999999999997</ele>
        <time>2025-05-04T15:32:04Z</time>
      </trkpt>
      <trkpt lat="38.802771996706724" lon="-9.458394013345242">
        <ele>52.049999999999997</ele>
        <time>2025-05-04T15:32:05Z</time>
      </trkpt>
      <trkpt lat="38.802723968401551" lon="-9.458530973643065">
        <ele>52.530000000000001</ele>
        <time>2025-05-04T15:32:06Z</time>
      </trkpt>
      <trkpt lat="38.80263595841825" lon="-9.458815036341548">
        <ele>53.009999999999998</ele>
        <time>2025-05-04T15:32:08Z</time>
      </trkpt>
      <trkpt lat="38.802622966468334" lon="-9.458979992195964">
        <ele>53.490000000000002</ele>
        <time>2025-05-04T15:32:09Z</time>
      </trkpt>
      <trkpt lat="38.802624978125095" lon="-9.459152994677424">
        <ele>53.969999999999999</ele>
        <time>2025-05-04T15:32:10Z</time>
      </trkpt>
      <trkpt lat="38.802672000601888" lon="-9.45970200933516">
        <ele>56.859999999999999</ele>
        <time>2025-05-04T15:32:13Z</time>
      </trkpt>
      <trkpt lat="38.802723968401551" lon="-9.459875011816621">
        <ele>57.82</ele>
        <time>2025-05-04T15:32:14Z</time>
      </trkpt>
      <trkpt lat="38.802814995869994" lon="-9.460019012913108">
        <ele>58.780000000000001</ele>
        <time>2025-05-04T15:32:15Z</time>
      </trkpt>
      <trkpt lat="38.802981963381171" lon="-9.460353031754494">
        <ele>61.659999999999997</ele>
        <time>2025-05-04T15:32:17Z</time>
      </trkpt>
      <trkpt lat="38.803039966151118" lon="-9.460537014529109">
        <ele>62.619999999999997</ele>
        <time>2025-05-04T15:32:18Z</time>
      </trkpt>
      <trkpt lat="38.803067961707711" lon="-9.46073298342526">
        <ele>63.579999999999998</ele>
        <time>2025-05-04T15:32:19Z</time>
      </trkpt>
      <trkpt lat="38.803067961707711" lon="-9.460921995341778">
        <ele>64.549999999999997</ele>
        <time>2025-05-04T15:32:20Z</time>
      </trkpt>
      <trkpt lat="38.803033009171486" lon="-9.461073959246278">
        <ele>65.030000000000001</ele>
        <time>2025-05-04T15:32:21Z</time>
      </trkpt>
      <trkpt lat="38.802983975037932" lon="-9.461197005584836">
        <ele>65.989999999999995</ele>
        <time>2025-05-04T15:32:22Z</time>
      </trkpt>
      <trkpt lat="38.802908034995198" lon="-9.461263976991177">
        <ele>66.950000000000003</ele>
        <time>2025-05-04T15:32:23Z</time>
      </trkpt>
      <trkpt lat="38.802817007526755" lon="-9.461304964497685">
        <ele>67.430000000000007</ele>
        <time>2025-05-04T15:32:24Z</time>
      </trkpt>
      <trkpt lat="38.802714999765158" lon="-9.461289960891008">
        <ele>67.909999999999997</ele>
        <time>2025-05-04T15:32:25Z</time>
      </trkpt>
      <trkpt lat="38.802638975903392" lon="-9.461225001141429">
        <ele>68.870000000000005</ele>
        <time>2025-05-04T15:32:26Z</time>
      </trkpt>
      <trkpt lat="38.802601005882025" lon="-9.461115030571818">
        <ele>69.349999999999994</ele>
        <time>2025-05-04T15:32:27Z</time>
      </trkpt>
      <trkpt lat="38.802554989233613" lon="-9.460982009768486">
        <ele>70.310000000000002</ele>
        <time>2025-05-04T15:32:28Z</time>
      </trkpt>
      <trkpt lat="38.802501009777188" lon="-9.460827028378844">
        <ele>70.790000000000006</ele>
        <time>2025-05-04T15:32:29Z</time>
      </trkpt>
      <trkpt lat="38.802445018664002" lon="-9.460666012018919">
        <ele>71.269999999999996</ele>
        <time>2025-05-04T15:32:30Z</time>
      </trkpt>
      <trkpt lat="38.802344016730785" lon="-9.460463002324104">
        <ele>72.239999999999995</ele>
        <time>2025-05-04T15:32:31Z</time>
      </trkpt>
      <trkpt lat="38.801975967362523" lon="-9.459708966314793">
        <ele>75.120000000000005</ele>
        <time>2025-05-04T15:32:35Z</time>
      </trkpt>
      <trkpt lat="38.801878988742828" lon="-9.45955297909677">
        <ele>76.079999999999998</ele>
        <time>2025-05-04T15:32:36Z</time>
      </trkpt>
      <trkpt lat="38.80155703984201" lon="-9.459209991618991">
        <ele>78.480000000000004</ele>
        <time>2025-05-04T15:32:39Z</time>
      </trkpt>
      <trkpt lat="38.801437010988593" lon="-9.45914302021265">
        <ele>79.450000000000003</ele>
        <time>2025-05-04T15:32:40Z</time>
      </trkpt>
      <trkpt lat="38.801306001842022" lon="-9.459118964150548">
        <ele>80.409999999999997</ele>
        <time>2025-05-04T15:32:41Z</time>
      </trkpt>
      <trkpt lat="38.80117298103869" lon="-9.459107983857393">
        <ele>81.370000000000005</ele>
        <time>2025-05-04T15:32:42Z</time>
      </trkpt>
      <trkpt lat="38.801034009084105" lon="-9.459149977192283">
        <ele>82.329999999999998</ele>
        <time>2025-05-04T15:32:43Z</time>
      </trkpt>
      <trkpt lat="38.800908029079437" lon="-9.459243016317487">
        <ele>83.290000000000006</ele>
        <time>2025-05-04T15:32:44Z</time>
      </trkpt>
      <trkpt lat="38.800790011882782" lon="-9.459361033514142">
        <ele>83.769999999999996</ele>
        <time>2025-05-04T15:32:45Z</time>
      </trkpt>
      <trkpt lat="38.800702001899481" lon="-9.459511991590262">
        <ele>84.25</ele>
        <time>2025-05-04T15:32:46Z</time>
      </trkpt>
      <trkpt lat="38.800624972209334" lon="-9.45965800434351">
        <ele>85.209999999999994</ele>
        <time>2025-05-04T15:32:47Z</time>
      </trkpt>
      <trkpt lat="38.800553977489471" lon="-9.459793036803603">
        <ele>85.689999999999998</ele>
        <time>2025-05-04T15:32:48Z</time>
      </trkpt>
      <trkpt lat="38.799975961446762" lon="-9.460935993120074">
        <ele>92.420000000000002</ele>
        <time>2025-05-04T15:32:56Z</time>
      </trkpt>
      <trkpt lat="38.799689970910549" lon="-9.461488025262952">
        <ele>96.269999999999996</ele>
        <time>2025-05-04T15:33:00Z</time>
      </trkpt>
      <trkpt lat="38.799564996734262" lon="-9.461639989167452">
        <ele>96.75</ele>
        <time>2025-05-04T15:33:01Z</time>
      </trkpt>
      <trkpt lat="38.799272971227765" lon="-9.461965961381793">
        <ele>98.670000000000002</ele>
        <time>2025-05-04T15:33:03Z</time>
      </trkpt>
      <trkpt lat="38.798798974603415" lon="-9.462509024888277">
        <ele>103</ele>
        <time>2025-05-04T15:33:07Z</time>
      </trkpt>
      <trkpt lat="38.798687998205423" lon="-9.462612960487604">
        <ele>103.95999999999999</ele>
        <time>2025-05-04T15:33:08Z</time>
      </trkpt>
      <trkpt lat="38.797651994973421" lon="-9.463408989831805">
        <ele>111.65000000000001</ele>
        <time>2025-05-04T15:33:17Z</time>
      </trkpt>
      <trkpt lat="38.797236001119018" lon="-9.463613005355001">
        <ele>114.05</ele>
        <time>2025-05-04T15:33:21Z</time>
      </trkpt>
      <trkpt lat="38.797159977257252" lon="-9.463699003681541">
        <ele>114.53</ele>
        <time>2025-05-04T15:33:22Z</time>
      </trkpt>
      <trkpt lat="38.797105997800827" lon="-9.463792964816093">
        <ele>115.01000000000001</ele>
        <time>2025-05-04T15:33:23Z</time>
      </trkpt>
      <trkpt lat="38.797116978093982" lon="-9.463884998112917">
        <ele>115.5</ele>
        <time>2025-05-04T15:33:24Z</time>
      </trkpt>
      <trkpt lat="38.797132987529039" lon="-9.463984994217753">
        <ele>115.5</ele>
        <time>2025-05-04T15:33:25Z</time>
      </trkpt>
      <trkpt lat="38.797160983085632" lon="-9.464080967009068">
        <ele>115.98</ele>
        <time>2025-05-04T15:33:26Z</time>
      </trkpt>
      <trkpt lat="38.797222003340721" lon="-9.464180041104555">
        <ele>116.94</ele>
        <time>2025-05-04T15:33:27Z</time>
      </trkpt>
      <trkpt lat="38.797502964735031" lon="-9.464632999151945">
        <ele>118.38</ele>
        <time>2025-05-04T15:33:31Z</time>
      </trkpt>
      <trkpt lat="38.797575971111655" lon="-9.464752022176981">
        <ele>118.86</ele>
        <time>2025-05-04T15:33:32Z</time>
      </trkpt>
      <trkpt lat="38.797810999676585" lon="-9.465129040181637">
        <ele>120.3</ele>
        <time>2025-05-04T15:33:35Z</time>
      </trkpt>
      <trkpt lat="38.797863973304629" lon="-9.465273041278124">
        <ele>120.78</ele>
        <time>2025-05-04T15:33:36Z</time>
      </trkpt>
      <trkpt lat="38.797917030751705" lon="-9.465414024889469">
        <ele>121.26000000000001</ele>
        <time>2025-05-04T15:33:37Z</time>
      </trkpt>
      <trkpt lat="38.797967992722988" lon="-9.465549979358912">
        <ele>121.73999999999999</ele>
        <time>2025-05-04T15:33:38Z</time>
      </trkpt>
      <trkpt lat="38.798001017421484" lon="-9.465686017647386">
        <ele>122.22</ele>
        <time>2025-05-04T15:33:39Z</time>
      </trkpt>
      <trkpt lat="38.797991964966059" lon="-9.465834964066744">
        <ele>123.19</ele>
        <time>2025-05-04T15:33:40Z</time>
      </trkpt>
      <trkpt lat="38.797981990501285" lon="-9.465988017618656">
        <ele>123.67</ele>
        <time>2025-05-04T15:33:41Z</time>
      </trkpt>
      <trkpt lat="38.797938991338015" lon="-9.466117015108466">
        <ele>124.63</ele>
        <time>2025-05-04T15:33:42Z</time>
      </trkpt>
      <trkpt lat="38.797875037416816" lon="-9.466236038133502">
        <ele>125.59</ele>
        <time>2025-05-04T15:33:43Z</time>
      </trkpt>
      <trkpt lat="38.797789961099625" lon="-9.466347014531493">
        <ele>126.55</ele>
        <time>2025-05-04T15:33:44Z</time>
      </trkpt>
      <trkpt lat="38.797700023278594" lon="-9.466463020071387">
        <ele>127.03</ele>
        <time>2025-05-04T15:33:45Z</time>
      </trkpt>
      <trkpt lat="38.797611007466912" lon="-9.46657701395452">
        <ele>127.98999999999999</ele>
        <time>2025-05-04T15:33:46Z</time>
      </trkpt>
      <trkpt lat="38.797521991655231" lon="-9.466681033372879">
        <ele>128.94999999999999</ele>
        <time>2025-05-04T15:33:47Z</time>
      </trkpt>
      <trkpt lat="38.797228038311005" lon="-9.46694296784699">
        <ele>131.36000000000001</ele>
        <time>2025-05-04T15:33:50Z</time>
      </trkpt>
      <trkpt lat="38.797125024721026" lon="-9.467016980051994">
        <ele>132.31999999999999</ele>
        <time>2025-05-04T15:33:51Z</time>
      </trkpt>
      <trkpt lat="38.797008013352752" lon="-9.467024020850658">
        <ele>133.28</ele>
        <time>2025-05-04T15:33:52Z</time>
      </trkpt>
      <trkpt lat="38.796886978670955" lon="-9.467031983658671">
        <ele>134.24000000000001</ele>
        <time>2025-05-04T15:33:53Z</time>
      </trkpt>
      <trkpt lat="38.796758987009525" lon="-9.467039024457336">
        <ele>135.19999999999999</ele>
        <time>2025-05-04T15:33:54Z</time>
      </trkpt>
      <trkpt lat="38.79664096981287" lon="-9.467030977830291">
        <ele>136.16</ele>
        <time>2025-05-04T15:33:55Z</time>
      </trkpt>
      <trkpt lat="38.795620976015925" lon="-9.466787986457348">
        <ele>146.74000000000001</ele>
        <time>2025-05-04T15:34:04Z</time>
      </trkpt>
      <trkpt lat="38.795525003224611" lon="-9.466724032536149">
        <ele>147.69999999999999</ele>
        <time>2025-05-04T15:34:05Z</time>
      </trkpt>
      <trkpt lat="38.795426012948155" lon="-9.466658988967538">
        <ele>148.66</ele>
        <time>2025-05-04T15:34:06Z</time>
      </trkpt>
      <trkpt lat="38.795320987701416" lon="-9.466589000076056">
        <ele>149.62</ele>
        <time>2025-05-04T15:34:07Z</time>
      </trkpt>
      <trkpt lat="38.795250998809934" lon="-9.466480035334826">
        <ele>151.06</ele>
        <time>2025-05-04T15:34:08Z</time>
      </trkpt>
      <trkpt lat="38.795171035453677" lon="-9.466355983167887">
        <ele>152.03</ele>
        <time>2025-05-04T15:34:09Z</time>
      </trkpt>
      <trkpt lat="38.794677006080747" lon="-9.465571017935872">
        <ele>155.87</ele>
        <time>2025-05-04T15:34:15Z</time>
      </trkpt>
      <trkpt lat="38.794578015804291" lon="-9.465460041537881">
        <ele>155.87</ele>
        <time>2025-05-04T15:34:16Z</time>
      </trkpt>
      <trkpt lat="38.794479025527835" lon="-9.465347975492477">
        <ele>156.34999999999999</ele>
        <time>2025-05-04T15:34:17Z</time>
      </trkpt>
      <trkpt lat="38.794376011937857" lon="-9.46524403989315">
        <ele>156.83000000000001</ele>
        <time>2025-05-04T15:34:18Z</time>
      </trkpt>
      <trkpt lat="38.794256988912821" lon="-9.465171033516526">
        <ele>157.31</ele>
        <time>2025-05-04T15:34:19Z</time>
      </trkpt>
      <trkpt lat="38.794135032221675" lon="-9.465096015483141">
        <ele>158.27000000000001</ele>
        <time>2025-05-04T15:34:20Z</time>
      </trkpt>
      <trkpt lat="38.793066004291177" lon="-9.464716985821724">
        <ele>167.41</ele>
        <time>2025-05-04T15:34:28Z</time>
      </trkpt>
      <trkpt lat="38.792567029595375" lon="-9.464591005817056">
        <ele>171.72999999999999</ele>
        <time>2025-05-04T15:34:32Z</time>
      </trkpt>
      <trkpt lat="38.792468039318919" lon="-9.464511964470148">
        <ele>172.69</ele>
        <time>2025-05-04T15:34:33Z</time>
      </trkpt>
      <trkpt lat="38.791970992460847" lon="-9.464116003364325">
        <ele>177.02000000000001</ele>
        <time>2025-05-04T15:34:38Z</time>
      </trkpt>
      <trkpt lat="38.791872002184391" lon="-9.464076021686196">
        <ele>177.97999999999999</ele>
        <time>2025-05-04T15:34:39Z</time>
      </trkpt>
      <trkpt lat="38.791778041049838" lon="-9.464046014472842">
        <ele>178.46000000000001</ele>
        <time>2025-05-04T15:34:40Z</time>
      </trkpt>
      <trkpt lat="38.791605960577726" lon="-9.464007038623095">
        <ele>181.34999999999999</ele>
        <time>2025-05-04T15:34:42Z</time>
      </trkpt>
      <trkpt lat="38.791537983343005" lon="-9.463983988389373">
        <ele>182.78999999999999</ele>
        <time>2025-05-04T15:34:43Z</time>
      </trkpt>
      <trkpt lat="38.791459025815129" lon="-9.463884998112917">
        <ele>184.22999999999999</ele>
        <time>2025-05-04T15:34:44Z</time>
      </trkpt>
      <trkpt lat="38.79141703248024" lon="-9.463792964816093">
        <ele>186.15000000000001</ele>
        <time>2025-05-04T15:34:45Z</time>
      </trkpt>
      <trkpt lat="38.791351988911629" lon="-9.463648963719606">
        <ele>188.08000000000001</ele>
        <time>2025-05-04T15:34:46Z</time>
      </trkpt>
      <trkpt lat="38.791351988911629" lon="-9.463523989543319">
        <ele>189.52000000000001</ele>
        <time>2025-05-04T15:34:47Z</time>
      </trkpt>
      <trkpt lat="38.791351988911629" lon="-9.463390968739986">
        <ele>191.44</ele>
        <time>2025-05-04T15:34:48Z</time>
      </trkpt>
      <trkpt lat="38.791367998346686" lon="-9.463274041190743">
        <ele>192.88</ele>
        <time>2025-05-04T15:34:49Z</time>
      </trkpt>
      <trkpt lat="38.791381996124983" lon="-9.463173039257526">
        <ele>193.84</ele>
        <time>2025-05-04T15:34:50Z</time>
      </trkpt>
      <trkpt lat="38.791393982246518" lon="-9.463080000132322">
        <ele>195.28</ele>
        <time>2025-05-04T15:34:51Z</time>
      </trkpt>
      <trkpt lat="38.791416026651859" lon="-9.462918983772397">
        <ele>197.69</ele>
        <time>2025-05-04T15:34:53Z</time>
      </trkpt>
      <trkpt lat="38.791361963376403" lon="-9.462811024859548">
        <ele>198.65000000000001</ele>
        <time>2025-05-04T15:34:54Z</time>
      </trkpt>
      <trkpt lat="38.7913120072335" lon="-9.462711028754711">
        <ele>199.61000000000001</ele>
        <time>2025-05-04T15:34:55Z</time>
      </trkpt>
      <trkpt lat="38.791257021948695" lon="-9.462610026821494">
        <ele>200.56999999999999</ele>
        <time>2025-05-04T15:34:56Z</time>
      </trkpt>
      <trkpt lat="38.791187033057213" lon="-9.462540037930012">
        <ele>201.53</ele>
        <time>2025-05-04T15:34:57Z</time>
      </trkpt>
      <trkpt lat="38.790966002270579" lon="-9.462319007143378">
        <ele>204.41999999999999</ele>
        <time>2025-05-04T15:35:00Z</time>
      </trkpt>
      <trkpt lat="38.790909005329013" lon="-9.462221022695303">
        <ele>205.86000000000001</ele>
        <time>2025-05-04T15:35:01Z</time>
      </trkpt>
      <trkpt lat="38.790618991479278" lon="-9.461710983887315">
        <ele>210.66999999999999</ele>
        <time>2025-05-04T15:35:06Z</time>
      </trkpt>
      <trkpt lat="38.790570041164756" lon="-9.46161299943924">
        <ele>211.63</ele>
        <time>2025-05-04T15:35:07Z</time>
      </trkpt>
      <trkpt lat="38.790527964010835" lon="-9.461514009162784">
        <ele>212.59</ele>
        <time>2025-05-04T15:35:08Z</time>
      </trkpt>
      <trkpt lat="38.79040801897645" lon="-9.460977986454964">
        <ele>216.43000000000001</ele>
        <time>2025-05-04T15:35:13Z</time>
      </trkpt>
      <trkpt lat="38.790411036461592" lon="-9.460870027542114">
        <ele>216.91</ele>
        <time>2025-05-04T15:35:14Z</time>
      </trkpt>
      <trkpt lat="38.790446994826198" lon="-9.460762990638614">
        <ele>216.91</ele>
        <time>2025-05-04T15:35:15Z</time>
      </trkpt>
      <trkpt lat="38.79051698371768" lon="-9.46069099009037">
        <ele>216.91</ele>
        <time>2025-05-04T15:35:16Z</time>
      </trkpt>
      <trkpt lat="38.790588984265924" lon="-9.460623012855649">
        <ele>216.91</ele>
        <time>2025-05-04T15:35:17Z</time>
      </trkpt>
      <trkpt lat="38.790810015052557" lon="-9.46036702953279">
        <ele>217.40000000000001</ele>
        <time>2025-05-04T15:35:21Z</time>
      </trkpt>
      <trkpt lat="38.790841028094292" lon="-9.460311038419604">
        <ele>217.40000000000001</ele>
        <time>2025-05-04T15:35:22Z</time>
      </trkpt>
      <trkpt lat="38.790854020044208" lon="-9.460236020386219">
        <ele>217.40000000000001</ele>
        <time>2025-05-04T15:35:23Z</time>
      </trkpt>
      <trkpt lat="38.790848990902305" lon="-9.460176005959511">
        <ele>217.88</ele>
        <time>2025-05-04T15:35:24Z</time>
      </trkpt>
      <trkpt lat="38.790843039751053" lon="-9.460110040381551">
        <ele>217.88</ele>
        <time>2025-05-04T15:35:25Z</time>
      </trkpt>
      <trkpt lat="38.790837004780769" lon="-9.460043990984559">
        <ele>218.36000000000001</ele>
        <time>2025-05-04T15:35:26Z</time>
      </trkpt>
      <trkpt lat="38.790781013667583" lon="-9.459987999871373">
        <ele>218.36000000000001</ele>
        <time>2025-05-04T15:35:27Z</time>
      </trkpt>
      <trkpt lat="38.790751006454229" lon="-9.459957992658019">
        <ele>218.36000000000001</ele>
        <time>2025-05-04T15:35:28Z</time>
      </trkpt>
      <trkpt lat="38.790723010897636" lon="-9.459957992658019">
        <ele>218.36000000000001</ele>
        <time>2025-05-04T15:35:29Z</time>
      </trkpt>
      <trkpt lat="38.790699038654566" lon="-9.459957992658019">
        <ele>218.84</ele>
        <time>2025-05-04T15:35:30Z</time>
      </trkpt>
      <trkpt lat="38.790671965107322" lon="-9.459957992658019">
        <ele>218.84</ele>
        <time>2025-05-04T15:35:31Z</time>
      </trkpt>
      <trkpt lat="38.790644975379109" lon="-9.459957992658019">
        <ele>219.31999999999999</ele>
        <time>2025-05-04T15:35:32Z</time>
      </trkpt>
      <trkpt lat="38.790502985939384" lon="-9.460055977106094">
        <ele>219.80000000000001</ele>
        <time>2025-05-04T15:35:41Z</time>
      </trkpt>
      <trkpt lat="38.789994036778808" lon="-9.460530979558826">
        <ele>223.63999999999999</ele>
        <time>2025-05-04T15:35:47Z</time>
      </trkpt>
      <trkpt lat="38.789553986862302" lon="-9.460734995082021">
        <ele>225.56999999999999</ele>
        <time>2025-05-04T15:35:51Z</time>
      </trkpt>
      <trkpt lat="38.789429012686014" lon="-9.460766008123756">
        <ele>225.56999999999999</ele>
        <time>2025-05-04T15:35:52Z</time>
      </trkpt>
      <trkpt lat="38.789317030459642" lon="-9.460794003680348">
        <ele>226.53</ele>
        <time>2025-05-04T15:35:53Z</time>
      </trkpt>
      <trkpt lat="38.789135981351137" lon="-9.46083901450038">
        <ele>227.49000000000001</ele>
        <time>2025-05-04T15:35:55Z</time>
      </trkpt>
      <trkpt lat="38.789056017994881" lon="-9.460858963429928">
        <ele>227.97</ele>
        <time>2025-05-04T15:35:56Z</time>
      </trkpt>
      <trkpt lat="38.788878992199898" lon="-9.460963988676667">
        <ele>230.37</ele>
        <time>2025-05-04T15:35:58Z</time>
      </trkpt>
      <trkpt lat="38.7887769844383" lon="-9.461036995053291">
        <ele>231.81</ele>
        <time>2025-05-04T15:35:59Z</time>
      </trkpt>
      <trkpt lat="38.788677994161844" lon="-9.461107989773154">
        <ele>232.78</ele>
        <time>2025-05-04T15:36:00Z</time>
      </trkpt>
      <trkpt lat="38.788559976965189" lon="-9.46116004139185">
        <ele>233.74000000000001</ele>
        <time>2025-05-04T15:36:01Z</time>
      </trkpt>
      <trkpt lat="38.788445983082056" lon="-9.46116004139185">
        <ele>235.18000000000001</ele>
        <time>2025-05-04T15:36:02Z</time>
      </trkpt>
      <trkpt lat="38.78832302056253" lon="-9.461130034178495">
        <ele>236.13999999999999</ele>
        <time>2025-05-04T15:36:03Z</time>
      </trkpt>
      <trkpt lat="38.788206009194255" lon="-9.461090974509716">
        <ele>237.58000000000001</ele>
        <time>2025-05-04T15:36:04Z</time>
      </trkpt>
      <trkpt lat="38.788094026967883" lon="-9.46105401031673">
        <ele>238.53999999999999</ele>
        <time>2025-05-04T15:36:05Z</time>
      </trkpt>
      <trkpt lat="38.787997970357537" lon="-9.461089968681335">
        <ele>239.50999999999999</ele>
        <time>2025-05-04T15:36:06Z</time>
      </trkpt>
      <trkpt lat="38.787797978147864" lon="-9.461173033341765">
        <ele>242.38999999999999</ele>
        <time>2025-05-04T15:36:08Z</time>
      </trkpt>
      <trkpt lat="38.78767803311348" lon="-9.461217038333416">
        <ele>243.83000000000001</ele>
        <time>2025-05-04T15:36:09Z</time>
      </trkpt>
      <trkpt lat="38.787113009020686" lon="-9.461323991417885">
        <ele>251.52000000000001</ele>
        <time>2025-05-04T15:36:13Z</time>
      </trkpt>
      <trkpt lat="38.786968002095819" lon="-9.461338995024562">
        <ele>252.47999999999999</ele>
        <time>2025-05-04T15:36:14Z</time>
      </trkpt>
      <trkpt lat="38.78647699020803" lon="-9.461404960602522">
        <ele>254.88999999999999</ele>
        <time>2025-05-04T15:36:18Z</time>
      </trkpt>
      <trkpt lat="38.7863680254668" lon="-9.461460029706359">
        <ele>255.84999999999999</ele>
        <time>2025-05-04T15:36:19Z</time>
      </trkpt>
      <trkpt lat="38.78628303296864" lon="-9.461533958092332">
        <ele>255.84999999999999</ele>
        <time>2025-05-04T15:36:20Z</time>
      </trkpt>
      <trkpt lat="38.786214971914887" lon="-9.461639989167452">
        <ele>256.81</ele>
        <time>2025-05-04T15:36:21Z</time>
      </trkpt>
      <trkpt lat="38.786163004115224" lon="-9.461764041334391">
        <ele>256.81</ele>
        <time>2025-05-04T15:36:22Z</time>
      </trkpt>
      <trkpt lat="38.786138026043773" lon="-9.461899995803833">
        <ele>257.29000000000002</ele>
        <time>2025-05-04T15:36:23Z</time>
      </trkpt>
      <trkpt lat="38.786138026043773" lon="-9.462018013000488">
        <ele>257.76999999999998</ele>
        <time>2025-05-04T15:36:24Z</time>
      </trkpt>
      <trkpt lat="38.786185970529914" lon="-9.462147010490298">
        <ele>258.25</ele>
        <time>2025-05-04T15:36:25Z</time>
      </trkpt>
      <trkpt lat="38.786231987178326" lon="-9.462229991331697">
        <ele>258.25</ele>
        <time>2025-05-04T15:36:26Z</time>
      </trkpt>
      <trkpt lat="38.786286972463131" lon="-9.462304003536701">
        <ele>258.25</ele>
        <time>2025-05-04T15:36:27Z</time>
      </trkpt>
      <trkpt lat="38.786342963576317" lon="-9.462378015741706">
        <ele>258.73000000000002</ele>
        <time>2025-05-04T15:36:28Z</time>
      </trkpt>
      <trkpt lat="38.786395015195012" lon="-9.462446998804808">
        <ele>258.25</ele>
        <time>2025-05-04T15:36:29Z</time>
      </trkpt>
      <trkpt lat="38.786428039893508" lon="-9.462579013779759">
        <ele>258.25</ele>
        <time>2025-05-04T15:36:30Z</time>
      </trkpt>
      <trkpt lat="38.786438014358282" lon="-9.462618995457888">
        <ele>257.29000000000002</ele>
        <time>2025-05-04T15:36:31Z</time>
      </trkpt>
      <trkpt lat="38.786397026851773" lon="-9.462760984897614">
        <ele>255.84999999999999</ele>
        <time>2025-05-04T15:36:32Z</time>
      </trkpt>
      <trkpt lat="38.786372970789671" lon="-9.462816976010799">
        <ele>254.88999999999999</ele>
        <time>2025-05-04T15:36:33Z</time>
      </trkpt>
      <trkpt lat="38.786346986889839" lon="-9.462874978780747">
        <ele>253.93000000000001</ele>
        <time>2025-05-04T15:36:34Z</time>
      </trkpt>
      <trkpt lat="38.78628202714026" lon="-9.463016968220472">
        <ele>252</ele>
        <time>2025-05-04T15:36:36Z</time>
      </trkpt>
      <trkpt lat="38.786237016320229" lon="-9.463117970153689">
        <ele>251.52000000000001</ele>
        <time>2025-05-04T15:36:37Z</time>
      </trkpt>
      <trkpt lat="38.786180019378662" lon="-9.46324797347188">
        <ele>250.56</ele>
        <time>2025-05-04T15:36:38Z</time>
      </trkpt>
      <trkpt lat="38.786173984408379" lon="-9.463352998718619">
        <ele>250.08000000000001</ele>
        <time>2025-05-04T15:36:39Z</time>
      </trkpt>
      <trkpt lat="38.786169039085507" lon="-9.463449977338314">
        <ele>249.12</ele>
        <time>2025-05-04T15:36:40Z</time>
      </trkpt>
      <trkpt lat="38.786152023822069" lon="-9.463742002844811">
        <ele>247.19999999999999</ele>
        <time>2025-05-04T15:36:43Z</time>
      </trkpt>
      <trkpt lat="38.786169961094856" lon="-9.464219016954303">
        <ele>244.78999999999999</ele>
        <time>2025-05-04T15:36:47Z</time>
      </trkpt>
      <trkpt lat="38.786207009106874" lon="-9.46434399113059">
        <ele>244.78999999999999</ele>
        <time>2025-05-04T15:36:48Z</time>
      </trkpt>
      <trkpt lat="38.78626300022006" lon="-9.464451028034091">
        <ele>244.78999999999999</ele>
        <time>2025-05-04T15:36:49Z</time>
      </trkpt>
      <trkpt lat="38.786466009914875" lon="-9.464908009395003">
        <ele>245.27000000000001</ele>
        <time>2025-05-04T15:36:53Z</time>
      </trkpt>
      <trkpt lat="38.786474978551269" lon="-9.465018985792995">
        <ele>244.78999999999999</ele>
        <time>2025-05-04T15:36:54Z</time>
      </trkpt>
      <trkpt lat="38.786451006308198" lon="-9.465142032131553">
        <ele>244.31</ele>
        <time>2025-05-04T15:36:55Z</time>
      </trkpt>
      <trkpt lat="38.786395015195012" lon="-9.465247979387641">
        <ele>243.83000000000001</ele>
        <time>2025-05-04T15:36:56Z</time>
      </trkpt>
      <trkpt lat="38.786309016868472" lon="-9.465407989919186">
        <ele>243.34999999999999</ele>
        <time>2025-05-04T15:36:57Z</time>
      </trkpt>
      <trkpt lat="38.786238022148609" lon="-9.465490970760584">
        <ele>243.34999999999999</ele>
        <time>2025-05-04T15:36:58Z</time>
      </trkpt>
      <trkpt lat="38.785794032737613" lon="-9.466008972376585">
        <ele>240.47</ele>
        <time>2025-05-04T15:37:03Z</time>
      </trkpt>
      <trkpt lat="38.785690013319254" lon="-9.466044008731842">
        <ele>239.50999999999999</ele>
        <time>2025-05-04T15:37:04Z</time>
      </trkpt>
      <trkpt lat="38.78557501360774" lon="-9.466081978753209">
        <ele>239.02000000000001</ele>
        <time>2025-05-04T15:37:05Z</time>
      </trkpt>
      <trkpt lat="38.785464037209749" lon="-9.466119026765227">
        <ele>238.53999999999999</ele>
        <time>2025-05-04T15:37:06Z</time>
      </trkpt>
      <trkpt lat="38.785364963114262" lon="-9.466151967644692">
        <ele>238.06</ele>
        <time>2025-05-04T15:37:07Z</time>
      </trkpt>
      <trkpt lat="38.785309977829456" lon="-9.466218017041683">
        <ele>237.09999999999999</ele>
        <time>2025-05-04T15:37:08Z</time>
      </trkpt>
      <trkpt lat="38.785257004201412" lon="-9.466308038681746">
        <ele>236.13999999999999</ele>
        <time>2025-05-04T15:37:09Z</time>
      </trkpt>
      <trkpt lat="38.785197995603085" lon="-9.466409040614963">
        <ele>235.66</ele>
        <time>2025-05-04T15:37:10Z</time>
      </trkpt>
      <trkpt lat="38.785161031410098" lon="-9.466507025063038">
        <ele>234.22</ele>
        <time>2025-05-04T15:37:11Z</time>
      </trkpt>
      <trkpt lat="38.78508199006319" lon="-9.466729983687401">
        <ele>232.30000000000001</ele>
        <time>2025-05-04T15:37:13Z</time>
      </trkpt>
      <trkpt lat="38.78503798507154" lon="-9.46685403585434">
        <ele>231.33000000000001</ele>
        <time>2025-05-04T15:37:14Z</time>
      </trkpt>
      <trkpt lat="38.784943018108606" lon="-9.467119993641973">
        <ele>229.41</ele>
        <time>2025-05-04T15:37:16Z</time>
      </trkpt>
      <trkpt lat="38.784710001200438" lon="-9.467721981927753">
        <ele>226.53</ele>
        <time>2025-05-04T15:37:20Z</time>
      </trkpt>
      <trkpt lat="38.784612016752362" lon="-9.46790998801589">
        <ele>226.53</ele>
        <time>2025-05-04T15:37:21Z</time>
      </trkpt>
      <trkpt lat="38.784258970990777" lon="-9.46837903931737">
        <ele>225.09</ele>
        <time>2025-05-04T15:37:24Z</time>
      </trkpt>
      <trkpt lat="38.783908020704985" lon="-9.468866027891636">
        <ele>223.16</ele>
        <time>2025-05-04T15:37:27Z</time>
      </trkpt>
      <trkpt lat="38.783809030428529" lon="-9.469031989574432">
        <ele>222.19999999999999</ele>
        <time>2025-05-04T15:37:28Z</time>
      </trkpt>
      <trkpt lat="38.783548017963767" lon="-9.469467010349035">
        <ele>221.72</ele>
        <time>2025-05-04T15:37:31Z</time>
      </trkpt>
      <trkpt lat="38.783204024657607" lon="-9.46977898478508">
        <ele>222.68000000000001</ele>
        <time>2025-05-04T15:37:34Z</time>
      </trkpt>
      <trkpt lat="38.783087013289332" lon="-9.469861965626478">
        <ele>223.16</ele>
        <time>2025-05-04T15:37:35Z</time>
      </trkpt>
      <trkpt lat="38.782964972779155" lon="-9.469919968396425">
        <ele>223.63999999999999</ele>
        <time>2025-05-04T15:37:36Z</time>
      </trkpt>
      <trkpt lat="38.782297018915415" lon="-9.470278965309262">
        <ele>225.09</ele>
        <time>2025-05-04T15:37:42Z</time>
      </trkpt>
      <trkpt lat="38.782243961468339" lon="-9.470410980284214">
        <ele>225.56999999999999</ele>
        <time>2025-05-04T15:37:43Z</time>
      </trkpt>
      <trkpt lat="38.782211020588875" lon="-9.470493961125612">
        <ele>226.05000000000001</ele>
        <time>2025-05-04T15:37:44Z</time>
      </trkpt>
      <trkpt lat="38.782211020588875" lon="-9.470493961125612">
        <ele>226.53</ele>
        <time>2025-05-04T15:37:45Z</time>
      </trkpt>
      <trkpt lat="38.782246978953481" lon="-9.470694037154317">
        <ele>227.49000000000001</ele>
        <time>2025-05-04T15:37:46Z</time>
      </trkpt>
      <trkpt lat="38.782254019752145" lon="-9.470729995518923">
        <ele>227.00999999999999</ele>
        <time>2025-05-04T15:37:47Z</time>
      </trkpt>
      <trkpt lat="38.782254019752145" lon="-9.470729995518923">
        <ele>227.00999999999999</ele>
        <time>2025-05-04T15:37:48Z</time>
      </trkpt>
      <trkpt lat="38.782362984493375" lon="-9.4708520360291">
        <ele>227.00999999999999</ele>
        <time>2025-05-04T15:37:49Z</time>
      </trkpt>
      <trkpt lat="38.782450994476676" lon="-9.470949014648795">
        <ele>227.00999999999999</ele>
        <time>2025-05-04T15:37:50Z</time>
      </trkpt>
      <trkpt lat="38.782543027773499" lon="-9.471052028238773">
        <ele>227.49000000000001</ele>
        <time>2025-05-04T15:37:51Z</time>
      </trkpt>
      <trkpt lat="38.783303014934063" lon="-9.472033968195319">
        <ele>228.44999999999999</ele>
        <time>2025-05-04T15:37:58Z</time>
      </trkpt>
      <trkpt lat="38.783483980223536" lon="-9.472498996183276">
        <ele>230.37</ele>
        <time>2025-05-04T15:38:01Z</time>
      </trkpt>
      <trkpt lat="38.783529996871948" lon="-9.472630005329847">
        <ele>231.81</ele>
        <time>2025-05-04T15:38:02Z</time>
      </trkpt>
      <trkpt lat="38.783548017963767" lon="-9.472770988941193">
        <ele>233.25999999999999</ele>
        <time>2025-05-04T15:38:03Z</time>
      </trkpt>
      <trkpt lat="38.783556986600161" lon="-9.472899986431003">
        <ele>234.69999999999999</ele>
        <time>2025-05-04T15:38:04Z</time>
      </trkpt>
      <trkpt lat="38.783552963286638" lon="-9.473012974485755">
        <ele>235.18000000000001</ele>
        <time>2025-05-04T15:38:05Z</time>
      </trkpt>
      <trkpt lat="38.783515999093652" lon="-9.473134009167552">
        <ele>236.13999999999999</ele>
        <time>2025-05-04T15:38:06Z</time>
      </trkpt>
      <trkpt lat="38.783477023243904" lon="-9.473262000828981">
        <ele>236.62</ele>
        <time>2025-05-04T15:38:07Z</time>
      </trkpt>
      <trkpt lat="38.783405022695661" lon="-9.47336501441896">
        <ele>237.09999999999999</ele>
        <time>2025-05-04T15:38:08Z</time>
      </trkpt>
      <trkpt lat="38.783326987177134" lon="-9.473476996645331">
        <ele>238.06</ele>
        <time>2025-05-04T15:38:09Z</time>
      </trkpt>
      <trkpt lat="38.783225985243917" lon="-9.47353701107204">
        <ele>238.53999999999999</ele>
        <time>2025-05-04T15:38:10Z</time>
      </trkpt>
      <trkpt lat="38.783120037987828" lon="-9.473600964993238">
        <ele>239.02000000000001</ele>
        <time>2025-05-04T15:38:11Z</time>
      </trkpt>
      <trkpt lat="38.782999003306031" lon="-9.473670031875372">
        <ele>239.99000000000001</ele>
        <time>2025-05-04T15:38:12Z</time>
      </trkpt>
      <trkpt lat="38.782895989716053" lon="-9.473670031875372">
        <ele>240.47</ele>
        <time>2025-05-04T15:38:13Z</time>
      </trkpt>
      <trkpt lat="38.782796999439597" lon="-9.473670031875372">
        <ele>241.43000000000001</ele>
        <time>2025-05-04T15:38:14Z</time>
      </trkpt>
      <trkpt lat="38.782660961151123" lon="-9.473670031875372">
        <ele>241.91</ele>
        <time>2025-05-04T15:38:15Z</time>
      </trkpt>
      <trkpt lat="38.78185504116118" lon="-9.473385969176889">
        <ele>244.78999999999999</ele>
        <time>2025-05-04T15:38:22Z</time>
      </trkpt>
      <trkpt lat="38.781741969287395" lon="-9.473380018025637">
        <ele>244.78999999999999</ele>
        <time>2025-05-04T15:38:23Z</time>
      </trkpt>
      <trkpt lat="38.781546000391245" lon="-9.473369037732482">
        <ele>245.27000000000001</ele>
        <time>2025-05-04T15:38:24Z</time>
      </trkpt>
      <trkpt lat="38.781388001516461" lon="-9.473439026623964">
        <ele>246.22999999999999</ele>
        <time>2025-05-04T15:38:26Z</time>
      </trkpt>
      <trkpt lat="38.781275013461709" lon="-9.473489988595247">
        <ele>246.22999999999999</ele>
        <time>2025-05-04T15:38:27Z</time>
      </trkpt>
      <trkpt lat="38.781132018193603" lon="-9.473573975265026">
        <ele>246.22999999999999</ele>
        <time>2025-05-04T15:38:28Z</time>
      </trkpt>
      <trkpt lat="38.781035961583257" lon="-9.47368897497654">
        <ele>246.22999999999999</ele>
        <time>2025-05-04T15:38:29Z</time>
      </trkpt>
      <trkpt lat="38.78093303181231" lon="-9.47381797246635">
        <ele>246.22999999999999</ele>
        <time>2025-05-04T15:38:30Z</time>
      </trkpt>
      <trkpt lat="38.780854996293783" lon="-9.473949987441301">
        <ele>246.22999999999999</ele>
        <time>2025-05-04T15:38:31Z</time>
      </trkpt>
      <trkpt lat="38.780004987493157" lon="-9.475209033116698">
        <ele>242.38999999999999</ele>
        <time>2025-05-04T15:38:41Z</time>
      </trkpt>
      <trkpt lat="38.779573990032077" lon="-9.475684035569429">
        <ele>241.91</ele>
        <time>2025-05-04T15:38:45Z</time>
      </trkpt>
      <trkpt lat="38.779468964785337" lon="-9.475799035280943">
        <ele>241.91</ele>
        <time>2025-05-04T15:38:46Z</time>
      </trkpt>
      <trkpt lat="38.779356982558966" lon="-9.47592300362885">
        <ele>241.91</ele>
        <time>2025-05-04T15:38:47Z</time>
      </trkpt>
      <trkpt lat="38.779229996725917" lon="-9.475968014448881">
        <ele>241.91</ele>
        <time>2025-05-04T15:38:48Z</time>
      </trkpt>
      <trkpt lat="38.779090018942952" lon="-9.476017970591784">
        <ele>241.91</ele>
        <time>2025-05-04T15:38:49Z</time>
      </trkpt>
      <trkpt lat="38.778753988444805" lon="-9.476136993616819">
        <ele>241.91</ele>
        <time>2025-05-04T15:38:51Z</time>
      </trkpt>
      <trkpt lat="38.778590960428119" lon="-9.47611503303051">
        <ele>242.38999999999999</ele>
        <time>2025-05-04T15:38:52Z</time>
      </trkpt>
      <trkpt lat="38.777147009968758" lon="-9.475661991164088">
        <ele>246.22999999999999</ele>
        <time>2025-05-04T15:39:01Z</time>
      </trkpt>
      <trkpt lat="38.77603598870337" lon="-9.475058997049928">
        <ele>251.03999999999999</ele>
        <time>2025-05-04T15:39:10Z</time>
      </trkpt>
      <trkpt lat="38.775899028405547" lon="-9.475021027028561">
        <ele>251.52000000000001</ele>
        <time>2025-05-04T15:39:11Z</time>
      </trkpt>
      <trkpt lat="38.775749998167157" lon="-9.475021027028561">
        <ele>252.47999999999999</ele>
        <time>2025-05-04T15:39:12Z</time>
      </trkpt>
      <trkpt lat="38.775587975978851" lon="-9.475046005100012">
        <ele>253.44</ele>
        <time>2025-05-04T15:39:13Z</time>
      </trkpt>
      <trkpt lat="38.775430982932448" lon="-9.475095039233565">
        <ele>254.41</ele>
        <time>2025-05-04T15:39:14Z</time>
      </trkpt>
      <trkpt lat="38.774185013025999" lon="-9.475661991164088">
        <ele>262.10000000000002</ele>
        <time>2025-05-04T15:39:23Z</time>
      </trkpt>
      <trkpt lat="38.77392902970314" lon="-9.475799035280943">
        <ele>263.06</ele>
        <time>2025-05-04T15:39:25Z</time>
      </trkpt>
      <trkpt lat="38.773315977305174" lon="-9.475962985306978">
        <ele>264.98000000000002</ele>
        <time>2025-05-04T15:39:30Z</time>
      </trkpt>
      <trkpt lat="38.7733060028404" lon="-9.47596600279212">
        <ele>265.45999999999998</ele>
        <time>2025-05-04T15:39:31Z</time>
      </trkpt>
      <trkpt lat="38.77309100702405" lon="-9.476116038858891">
        <ele>265.94</ele>
        <time>2025-05-04T15:39:32Z</time>
      </trkpt>
      <trkpt lat="38.77214603126049" lon="-9.476786004379392">
        <ele>264.98000000000002</ele>
        <time>2025-05-04T15:39:41Z</time>
      </trkpt>
      <trkpt lat="38.771865991875529" lon="-9.477034024894238">
        <ele>263.06</ele>
        <time>2025-05-04T15:39:44Z</time>
      </trkpt>
      <trkpt lat="38.77184696495533" lon="-9.477060008794069">
        <ele>262.57999999999998</ele>
        <time>2025-05-04T15:39:45Z</time>
      </trkpt>
      <trkpt lat="38.77184696495533" lon="-9.477281039580703">
        <ele>262.10000000000002</ele>
        <time>2025-05-04T15:39:46Z</time>
      </trkpt>
      <trkpt lat="38.77184696495533" lon="-9.477402996271849">
        <ele>261.62</ele>
        <time>2025-05-04T15:39:47Z</time>
      </trkpt>
      <trkpt lat="38.771875966340303" lon="-9.4775350112468">
        <ele>260.64999999999998</ele>
        <time>2025-05-04T15:39:48Z</time>
      </trkpt>
      <trkpt lat="38.771904967725277" lon="-9.477665014564991">
        <ele>259.69</ele>
        <time>2025-05-04T15:39:49Z</time>
      </trkpt>
      <trkpt lat="38.77193296328187" lon="-9.477790994569659">
        <ele>258.73000000000002</ele>
        <time>2025-05-04T15:39:50Z</time>
      </trkpt>
      <trkpt lat="38.771975040435791" lon="-9.477983023971319">
        <ele>257.76999999999998</ele>
        <time>2025-05-04T15:39:51Z</time>
      </trkpt>
      <trkpt lat="38.77201896160841" lon="-9.478034991770983">
        <ele>256.32999999999998</ele>
        <time>2025-05-04T15:39:52Z</time>
      </trkpt>
      <trkpt lat="38.77210596576333" lon="-9.478139011189342">
        <ele>254.88999999999999</ele>
        <time>2025-05-04T15:39:53Z</time>
      </trkpt>
      <trkpt lat="38.77219196408987" lon="-9.4782430306077">
        <ele>253.93000000000001</ele>
        <time>2025-05-04T15:39:54Z</time>
      </trkpt>
      <trkpt lat="38.772496981546283" lon="-9.47860898450017">
        <ele>249.12</ele>
        <time>2025-05-04T15:39:58Z</time>
      </trkpt>
      <trkpt lat="38.772591026499867" lon="-9.478690959513187">
        <ele>248.63999999999999</ele>
        <time>2025-05-04T15:39:59Z</time>
      </trkpt>
      <trkpt lat="38.772694962099195" lon="-9.478775030001998">
        <ele>247.19999999999999</ele>
        <time>2025-05-04T15:40:00Z</time>
      </trkpt>
      <trkpt lat="38.772801999002695" lon="-9.478862034156919">
        <ele>246.22999999999999</ele>
        <time>2025-05-04T15:40:01Z</time>
      </trkpt>
      <trkpt lat="38.77291901037097" lon="-9.478941997513175">
        <ele>244.78999999999999</ele>
        <time>2025-05-04T15:40:02Z</time>
      </trkpt>
      <trkpt lat="38.773654019460082" lon="-9.479414988309145">
        <ele>237.09999999999999</ele>
        <time>2025-05-04T15:40:09Z</time>
      </trkpt>
      <trkpt lat="38.773743035271764" lon="-9.479496963322163">
        <ele>236.13999999999999</ele>
        <time>2025-05-04T15:40:10Z</time>
      </trkpt>
      <trkpt lat="38.774461029097438" lon="-9.480122001841664">
        <ele>229.41</ele>
        <time>2025-05-04T15:40:18Z</time>
      </trkpt>
      <trkpt lat="38.774565970525146" lon="-9.480209005996585">
        <ele>228.44999999999999</ele>
        <time>2025-05-04T15:40:19Z</time>
      </trkpt>
      <trkpt lat="38.774674013257027" lon="-9.480299027636647">
        <ele>227.97</ele>
        <time>2025-05-04T15:40:20Z</time>
      </trkpt>
      <trkpt lat="38.775728037580848" lon="-9.480997994542122">
        <ele>222.19999999999999</ele>
        <time>2025-05-04T15:40:30Z</time>
      </trkpt>
      <trkpt lat="38.775914032012224" lon="-9.48112296871841">
        <ele>221.72</ele>
        <time>2025-05-04T15:40:32Z</time>
      </trkpt>
      <trkpt lat="38.776030959561467" lon="-9.481201004236937">
        <ele>221.24000000000001</ele>
        <time>2025-05-04T15:40:33Z</time>
      </trkpt>
      <trkpt lat="38.776211002841592" lon="-9.481276022270322">
        <ele>221.24000000000001</ele>
        <time>2025-05-04T15:40:35Z</time>
      </trkpt>
      <trkpt lat="38.776304963976145" lon="-9.481318015605211">
        <ele>221.24000000000001</ele>
        <time>2025-05-04T15:40:36Z</time>
      </trkpt>
      <trkpt lat="38.777124965563416" lon="-9.482070039957762">
        <ele>217.40000000000001</ele>
        <time>2025-05-04T15:40:46Z</time>
      </trkpt>
      <trkpt lat="38.777226973325014" lon="-9.482121001929045">
        <ele>216.43000000000001</ele>
        <time>2025-05-04T15:40:47Z</time>
      </trkpt>
      <trkpt lat="38.777360999956727" lon="-9.482187973335385">
        <ele>215.94999999999999</ele>
        <time>2025-05-04T15:40:48Z</time>
      </trkpt>
      <trkpt lat="38.777468958869576" lon="-9.482230972498655">
        <ele>215.47</ele>
        <time>2025-05-04T15:40:49Z</time>
      </trkpt>
      <trkpt lat="38.777580019086599" lon="-9.482286963611841">
        <ele>214.99000000000001</ele>
        <time>2025-05-04T15:40:50Z</time>
      </trkpt>
      <trkpt lat="38.777693007141352" lon="-9.482343038544059">
        <ele>214.03</ele>
        <time>2025-05-04T15:40:51Z</time>
      </trkpt>
      <trkpt lat="38.777984026819468" lon="-9.482502965256572">
        <ele>210.66999999999999</ele>
        <time>2025-05-04T15:40:54Z</time>
      </trkpt>
      <trkpt lat="38.778066001832485" lon="-9.482570020481944">
        <ele>209.69999999999999</ele>
        <time>2025-05-04T15:40:55Z</time>
      </trkpt>
      <trkpt lat="38.778144037351012" lon="-9.482633974403143">
        <ele>209.22</ele>
        <time>2025-05-04T15:40:56Z</time>
      </trkpt>
      <trkpt lat="38.77822701819241" lon="-9.482688959687948">
        <ele>208.25999999999999</ele>
        <time>2025-05-04T15:40:57Z</time>
      </trkpt>
      <trkpt lat="38.778305975720286" lon="-9.482733970507979">
        <ele>207.30000000000001</ele>
        <time>2025-05-04T15:40:58Z</time>
      </trkpt>
      <trkpt lat="38.778381999582052" lon="-9.482740005478263">
        <ele>206.34</ele>
        <time>2025-05-04T15:40:59Z</time>
      </trkpt>
      <trkpt lat="38.778459029272199" lon="-9.482731958851218">
        <ele>205.86000000000001</ele>
        <time>2025-05-04T15:41:00Z</time>
      </trkpt>
      <trkpt lat="38.7785470392555" lon="-9.482703963294625">
        <ele>204.41999999999999</ele>
        <time>2025-05-04T15:41:01Z</time>
      </trkpt>
      <trkpt lat="38.778629014268517" lon="-9.482639003545046">
        <ele>203.94</ele>
        <time>2025-05-04T15:41:02Z</time>
      </trkpt>
      <trkpt lat="38.778717024251819" lon="-9.482570020481944">
        <ele>203.46000000000001</ele>
        <time>2025-05-04T15:41:03Z</time>
      </trkpt>
      <trkpt lat="38.779206024482846" lon="-9.482289981096983">
        <ele>200.09</ele>
        <time>2025-05-04T15:41:08Z</time>
      </trkpt>
      <trkpt lat="38.779335021972656" lon="-9.482230972498655">
        <ele>199.13</ele>
        <time>2025-05-04T15:41:09Z</time>
      </trkpt>
      <trkpt lat="38.779772976413369" lon="-9.482184033840895">
        <ele>195.28</ele>
        <time>2025-05-04T15:41:13Z</time>
      </trkpt>
      <trkpt lat="38.779875990003347" lon="-9.482172969728708">
        <ele>194.31999999999999</ele>
        <time>2025-05-04T15:41:14Z</time>
      </trkpt>
      <trkpt lat="38.779977997764945" lon="-9.482185961678624">
        <ele>192.88</ele>
        <time>2025-05-04T15:41:15Z</time>
      </trkpt>
      <trkpt lat="38.780071958899498" lon="-9.482228960841894">
        <ele>191.91999999999999</ele>
        <time>2025-05-04T15:41:16Z</time>
      </trkpt>
      <trkpt lat="38.78016198053956" lon="-9.482271037995815">
        <ele>191.44</ele>
        <time>2025-05-04T15:41:17Z</time>
      </trkpt>
      <trkpt lat="38.780249990522861" lon="-9.482324011623859">
        <ele>190.47999999999999</ele>
        <time>2025-05-04T15:41:18Z</time>
      </trkpt>
      <trkpt lat="38.780330959707499" lon="-9.482389977201819">
        <ele>189.52000000000001</ele>
        <time>2025-05-04T15:41:19Z</time>
      </trkpt>
      <trkpt lat="38.780414024367929" lon="-9.482458960264921">
        <ele>188.56</ele>
        <time>2025-05-04T15:41:20Z</time>
      </trkpt>
      <trkpt lat="38.780491976067424" lon="-9.482551999390125">
        <ele>187.59</ele>
        <time>2025-05-04T15:41:21Z</time>
      </trkpt>
      <trkpt lat="38.780601024627686" lon="-9.482725001871586">
        <ele>185.66999999999999</ele>
        <time>2025-05-04T15:41:23Z</time>
      </trkpt>
      <trkpt lat="38.780635977163911" lon="-9.48286104016006">
        <ele>184.71000000000001</ele>
        <time>2025-05-04T15:41:24Z</time>
      </trkpt>
      <trkpt lat="38.780661961063743" lon="-9.482968999072909">
        <ele>183.75</ele>
        <time>2025-05-04T15:41:25Z</time>
      </trkpt>
      <trkpt lat="38.780665984377265" lon="-9.483070001006126">
        <ele>182.78999999999999</ele>
        <time>2025-05-04T15:41:26Z</time>
      </trkpt>
      <trkpt lat="38.780665984377265" lon="-9.483177959918976">
        <ele>181.34999999999999</ele>
        <time>2025-05-04T15:41:27Z</time>
      </trkpt>
      <trkpt lat="38.780641006305814" lon="-9.483576016500592">
        <ele>177.02000000000001</ele>
        <time>2025-05-04T15:41:31Z</time>
      </trkpt>
      <trkpt lat="38.780599012970924" lon="-9.483671989291906">
        <ele>176.06</ele>
        <time>2025-05-04T15:41:32Z</time>
      </trkpt>
      <trkpt lat="38.780519971624017" lon="-9.483852032572031">
        <ele>173.66</ele>
        <time>2025-05-04T15:41:34Z</time>
      </trkpt>
      <trkpt lat="38.78052500076592" lon="-9.483950017020106">
        <ele>172.69</ele>
        <time>2025-05-04T15:41:35Z</time>
      </trkpt>
      <trkpt lat="38.780534975230694" lon="-9.484031992033124">
        <ele>171.25</ele>
        <time>2025-05-04T15:41:36Z</time>
      </trkpt>
      <trkpt lat="38.780536986887455" lon="-9.484054958447814">
        <ele>170.28999999999999</ele>
        <time>2025-05-04T15:41:37Z</time>
      </trkpt>
      <trkpt lat="38.780599012970924" lon="-9.484126036986709">
        <ele>169.33000000000001</ele>
        <time>2025-05-04T15:41:38Z</time>
      </trkpt>
      <trkpt lat="38.780645029619336" lon="-9.484178004786372">
        <ele>168.37</ele>
        <time>2025-05-04T15:41:39Z</time>
      </trkpt>
      <trkpt lat="38.780687022954226" lon="-9.484227038919926">
        <ele>167.41</ele>
        <time>2025-05-04T15:41:40Z</time>
      </trkpt>
      <trkpt lat="38.78076396882534" lon="-9.484232990071178">
        <ele>165.96000000000001</ele>
        <time>2025-05-04T15:41:41Z</time>
      </trkpt>
      <trkpt lat="38.780863964930177" lon="-9.484241958707571">
        <ele>165</ele>
        <time>2025-05-04T15:41:42Z</time>
      </trkpt>
      <trkpt lat="38.780968990176916" lon="-9.484251011162996">
        <ele>164.03999999999999</ele>
        <time>2025-05-04T15:41:43Z</time>
      </trkpt>
      <trkpt lat="38.78108499571681" lon="-9.48426098562777">
        <ele>163.08000000000001</ele>
        <time>2025-05-04T15:41:44Z</time>
      </trkpt>
      <trkpt lat="38.781203012913465" lon="-9.484264003112912">
        <ele>162.59999999999999</ele>
        <time>2025-05-04T15:41:45Z</time>
      </trkpt>
      <trkpt lat="38.781329998746514" lon="-9.484233995899558">
        <ele>162.12</ele>
        <time>2025-05-04T15:41:46Z</time>
      </trkpt>
      <trkpt lat="38.781582964584231" lon="-9.48417398147285">
        <ele>161.63999999999999</ele>
        <time>2025-05-04T15:41:48Z</time>
      </trkpt>
      <trkpt lat="38.781713973730803" lon="-9.48417498730123">
        <ele>161.16</ele>
        <time>2025-05-04T15:41:49Z</time>
      </trkpt>
      <trkpt lat="38.781827967613935" lon="-9.484193008393049">
        <ele>160.68000000000001</ele>
        <time>2025-05-04T15:41:50Z</time>
      </trkpt>
      <trkpt lat="38.781955959275365" lon="-9.484270038083196">
        <ele>160.19999999999999</ele>
        <time>2025-05-04T15:41:51Z</time>
      </trkpt>
      <trkpt lat="38.782025026157498" lon="-9.484368022531271">
        <ele>160.68000000000001</ele>
        <time>2025-05-04T15:41:52Z</time>
      </trkpt>
      <trkpt lat="38.782097026705742" lon="-9.484469024464488">
        <ele>160.19999999999999</ele>
        <time>2025-05-04T15:41:53Z</time>
      </trkpt>
      <trkpt lat="38.782168021425605" lon="-9.484570026397705">
        <ele>160.68000000000001</ele>
        <time>2025-05-04T15:41:54Z</time>
      </trkpt>
      <trkpt lat="38.782248990610242" lon="-9.48462501168251">
        <ele>160.68000000000001</ele>
        <time>2025-05-04T15:41:55Z</time>
      </trkpt>
      <trkpt lat="38.782335994765162" lon="-9.484685026109219">
        <ele>160.68000000000001</ele>
        <time>2025-05-04T15:41:56Z</time>
      </trkpt>
      <trkpt lat="38.782419981434941" lon="-9.484742023050785">
        <ele>160.19999999999999</ele>
        <time>2025-05-04T15:41:57Z</time>
      </trkpt>
      <trkpt lat="38.78250396810472" lon="-9.484800025820732">
        <ele>160.19999999999999</ele>
        <time>2025-05-04T15:41:58Z</time>
      </trkpt>
      <trkpt lat="38.782611005008221" lon="-9.484923994168639">
        <ele>159.72</ele>
        <time>2025-05-04T15:41:59Z</time>
      </trkpt>
      <trkpt lat="38.782669007778168" lon="-9.485045028850436">
        <ele>159.72</ele>
        <time>2025-05-04T15:42:00Z</time>
      </trkpt>
      <trkpt lat="38.782728016376495" lon="-9.485167991369963">
        <ele>159.24000000000001</ele>
        <time>2025-05-04T15:42:01Z</time>
      </trkpt>
      <trkpt lat="38.782928008586168" lon="-9.485860001295805">
        <ele>157.31</ele>
        <time>2025-05-04T15:42:06Z</time>
      </trkpt>
      <trkpt lat="38.782980982214212" lon="-9.486428964883089">
        <ele>157.78999999999999</ele>
        <time>2025-05-04T15:42:10Z</time>
      </trkpt>
      <trkpt lat="38.783030016347766" lon="-9.486577995121479">
        <ele>158.75</ele>
        <time>2025-05-04T15:42:11Z</time>
      </trkpt>
      <trkpt lat="38.783145016059279" lon="-9.487037993967533">
        <ele>160.19999999999999</ele>
        <time>2025-05-04T15:42:14Z</time>
      </trkpt>
      <trkpt lat="38.783139986917377" lon="-9.487173026427627">
        <ele>160.68000000000001</ele>
        <time>2025-05-04T15:42:15Z</time>
      </trkpt>
      <trkpt lat="38.783120037987828" lon="-9.487289031967521">
        <ele>160.68000000000001</ele>
        <time>2025-05-04T15:42:16Z</time>
      </trkpt>
      <trkpt lat="38.783106962218881" lon="-9.487370001152158">
        <ele>160.68000000000001</ele>
        <time>2025-05-04T15:42:17Z</time>
      </trkpt>
      <trkpt lat="38.783100005239248" lon="-9.487409982830286">
        <ele>161.16</ele>
        <time>2025-05-04T15:42:18Z</time>
      </trkpt>
      <trkpt lat="38.783095981925726" lon="-9.487434960901737">
        <ele>161.16</ele>
        <time>2025-05-04T15:42:19Z</time>
      </trkpt>
      <trkpt lat="38.783095981925726" lon="-9.487434960901737">
        <ele>161.16</ele>
        <time>2025-05-04T15:42:20Z</time>
      </trkpt>
      <trkpt lat="38.783095981925726" lon="-9.487434960901737">
        <ele>161.63999999999999</ele>
        <time>2025-05-04T15:42:38Z</time>
      </trkpt>
      <trkpt lat="38.783061029389501" lon="-9.487709971144795">
        <ele>157.78999999999999</ele>
        <time>2025-05-04T15:42:54Z</time>
      </trkpt>
      <trkpt lat="38.783033033832908" lon="-9.487943993881345">
        <ele>153.47</ele>
        <time>2025-05-04T15:43:05Z</time>
      </trkpt>
      <trkpt lat="38.783033033832908" lon="-9.487943993881345">
        <ele>153.47</ele>
        <time>2025-05-04T15:43:38Z</time>
      </trkpt>
      <trkpt lat="38.783029010519385" lon="-9.487981963902712">
        <ele>152.99000000000001</ele>
        <time>2025-05-04T15:43:48Z</time>
      </trkpt>
      <trkpt lat="38.783023981377482" lon="-9.488023035228252">
        <ele>152.99000000000001</ele>
        <time>2025-05-04T15:43:49Z</time>
      </trkpt>
      <trkpt lat="38.78301702439785" lon="-9.488082965835929">
        <ele>152.50999999999999</ele>
        <time>2025-05-04T15:43:50Z</time>
      </trkpt>
      <trkpt lat="38.782917028293014" lon="-9.488910008221865">
        <ele>151.53999999999999</ele>
        <time>2025-05-04T15:43:57Z</time>
      </trkpt>
      <trkpt lat="38.782896995544434" lon="-9.489075969904661">
        <ele>151.53999999999999</ele>
        <time>2025-05-04T15:43:58Z</time>
      </trkpt>
      <trkpt lat="38.782914010807872" lon="-9.489226005971432">
        <ele>151.06</ele>
        <time>2025-05-04T15:43:59Z</time>
      </trkpt>
      <trkpt lat="38.782993974164128" lon="-9.490112978965044">
        <ele>150.09999999999999</ele>
        <time>2025-05-04T15:44:05Z</time>
      </trkpt>
      <trkpt lat="38.78297402523458" lon="-9.490238958969712">
        <ele>150.09999999999999</ele>
        <time>2025-05-04T15:44:06Z</time>
      </trkpt>
      <trkpt lat="38.782756011933088" lon="-9.491658015176654">
        <ele>143.84999999999999</ele>
        <time>2025-05-04T15:44:18Z</time>
      </trkpt>
      <trkpt lat="38.782409001141787" lon="-9.493445036932826">
        <ele>135.19999999999999</ele>
        <time>2025-05-04T15:44:32Z</time>
      </trkpt>
      <trkpt lat="38.782387962564826" lon="-9.493576968088746">
        <ele>134.72</ele>
        <time>2025-05-04T15:44:33Z</time>
      </trkpt>
      <trkpt lat="38.782295007258654" lon="-9.494150038808584">
        <ele>133.75999999999999</ele>
        <time>2025-05-04T15:44:38Z</time>
      </trkpt>
      <trkpt lat="38.782271035015583" lon="-9.494274007156491">
        <ele>133.75999999999999</ele>
        <time>2025-05-04T15:44:39Z</time>
      </trkpt>
      <trkpt lat="38.781777005642653" lon="-9.495156034827232">
        <ele>132.31999999999999</ele>
        <time>2025-05-04T15:44:48Z</time>
      </trkpt>
      <trkpt lat="38.781748004257679" lon="-9.495276985689998">
        <ele>131.84</ele>
        <time>2025-05-04T15:44:49Z</time>
      </trkpt>
      <trkpt lat="38.781721014529467" lon="-9.495390979573131">
        <ele>131.36000000000001</ele>
        <time>2025-05-04T15:44:50Z</time>
      </trkpt>
      <trkpt lat="38.78172998316586" lon="-9.49549600481987">
        <ele>131.36000000000001</ele>
        <time>2025-05-04T15:44:51Z</time>
      </trkpt>
      <trkpt lat="38.781745992600918" lon="-9.4956049695611">
        <ele>131.36000000000001</ele>
        <time>2025-05-04T15:44:52Z</time>
      </trkpt>
      <trkpt lat="38.781759990379214" lon="-9.495704965665937">
        <ele>131.36000000000001</ele>
        <time>2025-05-04T15:44:53Z</time>
      </trkpt>
      <trkpt lat="38.78177298232913" lon="-9.495798004791141">
        <ele>131.36000000000001</ele>
        <time>2025-05-04T15:44:54Z</time>
      </trkpt>
      <trkpt lat="38.781785974279046" lon="-9.495890038087964">
        <ele>131.36000000000001</ele>
        <time>2025-05-04T15:44:55Z</time>
      </trkpt>
      <trkpt lat="38.781957970932126" lon="-9.496481968089938">
        <ele>133.75999999999999</ele>
        <time>2025-05-04T15:45:02Z</time>
      </trkpt>
      <trkpt lat="38.781974986195564" lon="-9.496543994173408">
        <ele>134.24000000000001</ele>
        <time>2025-05-04T15:45:03Z</time>
      </trkpt>
      <trkpt lat="38.781967023387551" lon="-9.49663401581347">
        <ele>134.24000000000001</ele>
        <time>2025-05-04T15:45:04Z</time>
      </trkpt>
      <trkpt lat="38.781960988417268" lon="-9.496710961684585">
        <ele>134.72</ele>
        <time>2025-05-04T15:45:05Z</time>
      </trkpt>
      <trkpt lat="38.781953025609255" lon="-9.496800983324647">
        <ele>135.19999999999999</ele>
        <time>2025-05-04T15:45:06Z</time>
      </trkpt>
      <trkpt lat="38.781918995082378" lon="-9.496858986094594">
        <ele>135.19999999999999</ele>
        <time>2025-05-04T15:45:07Z</time>
      </trkpt>
      <trkpt lat="38.781868033111095" lon="-9.496926041319966">
        <ele>135.19999999999999</ele>
        <time>2025-05-04T15:45:08Z</time>
      </trkpt>
      <trkpt lat="38.781813969835639" lon="-9.496970968320966">
        <ele>135.68000000000001</ele>
        <time>2025-05-04T15:45:09Z</time>
      </trkpt>
      <trkpt lat="38.781573995947838" lon="-9.497170960530639">
        <ele>138.09</ele>
        <time>2025-05-04T15:45:17Z</time>
      </trkpt>
      <trkpt lat="38.781291022896767" lon="-9.497447982430458">
        <ele>138.56999999999999</ele>
        <time>2025-05-04T15:45:28Z</time>
      </trkpt>
      <trkpt lat="38.781020035967231" lon="-9.497676976025105">
        <ele>138.56999999999999</ele>
        <time>2025-05-04T15:45:39Z</time>
      </trkpt>
      <trkpt lat="38.780823983252048" lon="-9.497704971581698">
        <ele>136.16</ele>
        <time>2025-05-04T15:45:53Z</time>
      </trkpt>
      <trkpt lat="38.780751982703805" lon="-9.497680999338627">
        <ele>136.16</ele>
        <time>2025-05-04T15:46:10Z</time>
      </trkpt>
      <trkpt lat="38.780751982703805" lon="-9.497680999338627">
        <ele>136.16</ele>
        <time>2025-05-04T15:46:29Z</time>
      </trkpt>
      <trkpt lat="38.780678976327181" lon="-9.497679993510246">
        <ele>143.37</ele>
        <time>2025-05-04T16:06:16Z</time>
      </trkpt>
      <trkpt lat="38.780686017125845" lon="-9.497674964368343">
        <ele>143.37</ele>
        <time>2025-05-04T16:07:16Z</time>
      </trkpt>
      <trkpt lat="38.780687022954226" lon="-9.497674964368343">
        <ele>143.84999999999999</ele>
        <time>2025-05-04T16:08:08Z</time>
      </trkpt>
      <trkpt lat="38.780690962448716" lon="-9.497675970196724">
        <ele>143.84999999999999</ele>
        <time>2025-05-04T16:09:13Z</time>
      </trkpt>
      <trkpt lat="38.780691968277097" lon="-9.497675970196724">
        <ele>143.84999999999999</ele>
        <time>2025-05-04T16:10:08Z</time>
      </trkpt>
      <trkpt lat="38.780691968277097" lon="-9.497673958539963">
        <ele>143.84999999999999</ele>
        <time>2025-05-04T16:10:47Z</time>
      </trkpt>
      <trkpt lat="38.780620973557234" lon="-9.497696002945304">
        <ele>142.88999999999999</ele>
        <time>2025-05-04T16:10:58Z</time>
      </trkpt>
      <trkpt lat="38.780595995485783" lon="-9.497630037367344">
        <ele>141.44999999999999</ele>
        <time>2025-05-04T16:11:16Z</time>
      </trkpt>
      <trkpt lat="38.780594989657402" lon="-9.497627019882202">
        <ele>141.44999999999999</ele>
        <time>2025-05-04T16:12:05Z</time>
      </trkpt>
      <trkpt lat="38.780592978000641" lon="-9.497620984911919">
        <ele>140.97</ele>
        <time>2025-05-04T16:12:37Z</time>
      </trkpt>
      <trkpt lat="38.780579986050725" lon="-9.497562982141972">
        <ele>140.49000000000001</ele>
        <time>2025-05-04T16:12:40Z</time>
      </trkpt>
      <trkpt lat="38.780602030456066" lon="-9.497535992413759">
        <ele>140.97</ele>
        <time>2025-05-04T16:12:41Z</time>
      </trkpt>
      <trkpt lat="38.780621979385614" lon="-9.497519982978702">
        <ele>140.97</ele>
        <time>2025-05-04T16:12:42Z</time>
      </trkpt>
      <trkpt lat="38.780645029619336" lon="-9.497503973543644">
        <ele>140.97</ele>
        <time>2025-05-04T16:12:43Z</time>
      </trkpt>
      <trkpt lat="38.780665984377265" lon="-9.497487964108586">
        <ele>140.49000000000001</ele>
        <time>2025-05-04T16:12:44Z</time>
      </trkpt>
      <trkpt lat="38.780665984377265" lon="-9.497487964108586">
        <ele>140.49000000000001</ele>
        <time>2025-05-04T16:12:45Z</time>
      </trkpt>
      <trkpt lat="38.780751982703805" lon="-9.497453011572361">
        <ele>140.49000000000001</ele>
        <time>2025-05-04T16:12:48Z</time>
      </trkpt>
      <trkpt lat="38.780768997967243" lon="-9.4974319729954">
        <ele>140.49000000000001</ele>
        <time>2025-05-04T16:12:49Z</time>
      </trkpt>
      <trkpt lat="38.780785007402301" lon="-9.497411018237472">
        <ele>140.49000000000001</ele>
        <time>2025-05-04T16:12:50Z</time>
      </trkpt>
      <trkpt lat="38.780802022665739" lon="-9.49738897383213">
        <ele>140.49000000000001</ele>
        <time>2025-05-04T16:12:51Z</time>
      </trkpt>
      <trkpt lat="38.780820965766907" lon="-9.49736500158906">
        <ele>140.49000000000001</ele>
        <time>2025-05-04T16:12:52Z</time>
      </trkpt>
      <trkpt lat="38.780922973528504" lon="-9.496989995241165">
        <ele>140.00999999999999</ele>
        <time>2025-05-04T16:13:00Z</time>
      </trkpt>
      <trkpt lat="38.780964966863394" lon="-9.496963005512953">
        <ele>140.00999999999999</ele>
        <time>2025-05-04T16:13:01Z</time>
      </trkpt>
      <trkpt lat="38.781174011528492" lon="-9.496820010244846">
        <ele>140.00999999999999</ele>
        <time>2025-05-04T16:13:05Z</time>
      </trkpt>
      <trkpt lat="38.781210975721478" lon="-9.496758989989758">
        <ele>140.00999999999999</ele>
        <time>2025-05-04T16:13:06Z</time>
      </trkpt>
      <trkpt lat="38.781251041218638" lon="-9.496694030240178">
        <ele>140.00999999999999</ele>
        <time>2025-05-04T16:13:07Z</time>
      </trkpt>
      <trkpt lat="38.781290017068386" lon="-9.496629992499948">
        <ele>140.00999999999999</ele>
        <time>2025-05-04T16:13:09Z</time>
      </trkpt>
      <trkpt lat="38.781365035101771" lon="-9.496507029980421">
        <ele>140.00999999999999</ele>
        <time>2025-05-04T16:13:11Z</time>
      </trkpt>
      <trkpt lat="38.781524039804935" lon="-9.496371997520328">
        <ele>140.00999999999999</ele>
        <time>2025-05-04T16:13:14Z</time>
      </trkpt>
      <trkpt lat="38.781588999554515" lon="-9.496328998357058">
        <ele>140.49000000000001</ele>
        <time>2025-05-04T16:13:15Z</time>
      </trkpt>
      <trkpt lat="38.781627975404263" lon="-9.496268983930349">
        <ele>140.49000000000001</ele>
        <time>2025-05-04T16:13:16Z</time>
      </trkpt>
      <trkpt lat="38.781743980944157" lon="-9.496094975620508">
        <ele>140.49000000000001</ele>
        <time>2025-05-04T16:13:19Z</time>
      </trkpt>
      <trkpt lat="38.781778011471033" lon="-9.496046025305986">
        <ele>140.49000000000001</ele>
        <time>2025-05-04T16:13:20Z</time>
      </trkpt>
      <trkpt lat="38.78179200924933" lon="-9.49592599645257">
        <ele>140.49000000000001</ele>
        <time>2025-05-04T16:13:21Z</time>
      </trkpt>
      <trkpt lat="38.781767031177878" lon="-9.495752993971109">
        <ele>140.49000000000001</ele>
        <time>2025-05-04T16:13:22Z</time>
      </trkpt>
      <trkpt lat="38.781753033399582" lon="-9.495654003694654">
        <ele>140.97</ele>
        <time>2025-05-04T16:13:23Z</time>
      </trkpt>
      <trkpt lat="38.781738029792905" lon="-9.495553001761437">
        <ele>140.97</ele>
        <time>2025-05-04T16:13:24Z</time>
      </trkpt>
      <trkpt lat="38.781725037842989" lon="-9.495459962636232">
        <ele>140.97</ele>
        <time>2025-05-04T16:13:25Z</time>
      </trkpt>
      <trkpt lat="38.781723026186228" lon="-9.495382010936737">
        <ele>140.97</ele>
        <time>2025-05-04T16:13:26Z</time>
      </trkpt>
      <trkpt lat="38.781739035621285" lon="-9.495315961539745">
        <ele>140.97</ele>
        <time>2025-05-04T16:13:27Z</time>
      </trkpt>
      <trkpt lat="38.781754961237311" lon="-9.495248990133405">
        <ele>140.97</ele>
        <time>2025-05-04T16:13:28Z</time>
      </trkpt>
      <trkpt lat="38.781773988157511" lon="-9.495171960443258">
        <ele>140.97</ele>
        <time>2025-05-04T16:13:30Z</time>
      </trkpt>
      <trkpt lat="38.781812964007258" lon="-9.495008010417223">
        <ele>141.44999999999999</ele>
        <time>2025-05-04T16:13:32Z</time>
      </trkpt>
      <trkpt lat="38.782261982560158" lon="-9.494288004934788">
        <ele>144.34</ele>
        <time>2025-05-04T16:13:39Z</time>
      </trkpt>
      <trkpt lat="38.782261982560158" lon="-9.494288004934788">
        <ele>144.81999999999999</ele>
        <time>2025-05-04T16:13:40Z</time>
      </trkpt>
      <trkpt lat="38.782294001430273" lon="-9.494154984131455">
        <ele>144.81999999999999</ele>
        <time>2025-05-04T16:13:41Z</time>
      </trkpt>
      <trkpt lat="38.782315962016582" lon="-9.494019029662013">
        <ele>145.30000000000001</ele>
        <time>2025-05-04T16:13:42Z</time>
      </trkpt>
      <trkpt lat="38.782389974221587" lon="-9.493564981967211">
        <ele>146.74000000000001</ele>
        <time>2025-05-04T16:13:45Z</time>
      </trkpt>
      <trkpt lat="38.78241503611207" lon="-9.493408994749188">
        <ele>147.22</ele>
        <time>2025-05-04T16:13:46Z</time>
      </trkpt>
      <trkpt lat="38.782767998054624" lon="-9.491578973829746">
        <ele>155.38999999999999</ele>
        <time>2025-05-04T16:13:57Z</time>
      </trkpt>
      <trkpt lat="38.782978970557451" lon="-9.490208029747009">
        <ele>160.68000000000001</ele>
        <time>2025-05-04T16:14:05Z</time>
      </trkpt>
      <trkpt lat="38.783004032447934" lon="-9.490034021437168">
        <ele>161.16</ele>
        <time>2025-05-04T16:14:06Z</time>
      </trkpt>
      <trkpt lat="38.782905964180827" lon="-9.489155011251569">
        <ele>162.12</ele>
        <time>2025-05-04T16:14:11Z</time>
      </trkpt>
      <trkpt lat="38.782908981665969" lon="-9.488981002941728">
        <ele>162.59999999999999</ele>
        <time>2025-05-04T16:14:12Z</time>
      </trkpt>
      <trkpt lat="38.783021969720721" lon="-9.488037033006549">
        <ele>166.93000000000001</ele>
        <time>2025-05-04T16:14:19Z</time>
      </trkpt>
      <trkpt lat="38.783034961670637" lon="-9.48793200775981">
        <ele>167.41</ele>
        <time>2025-05-04T16:14:20Z</time>
      </trkpt>
      <trkpt lat="38.78306002356112" lon="-9.487724974751473">
        <ele>168.37</ele>
        <time>2025-05-04T16:14:22Z</time>
      </trkpt>
      <trkpt lat="38.783098999410868" lon="-9.48741601780057">
        <ele>169.81</ele>
        <time>2025-05-04T16:14:25Z</time>
      </trkpt>
      <trkpt lat="38.783116014674306" lon="-9.487311998382211">
        <ele>169.81</ele>
        <time>2025-05-04T16:14:26Z</time>
      </trkpt>
      <trkpt lat="38.783134035766125" lon="-9.487204039469361">
        <ele>169.81</ele>
        <time>2025-05-04T16:14:27Z</time>
      </trkpt>
      <trkpt lat="38.783124983310699" lon="-9.486945038661361">
        <ele>169.81</ele>
        <time>2025-05-04T16:14:28Z</time>
      </trkpt>
      <trkpt lat="38.783124983310699" lon="-9.486945038661361">
        <ele>169.81</ele>
        <time>2025-05-04T16:14:29Z</time>
      </trkpt>
      <trkpt lat="38.783028004691005" lon="-9.486571038141847">
        <ele>169.81</ele>
        <time>2025-05-04T16:14:32Z</time>
      </trkpt>
      <trkpt lat="38.782985005527735" lon="-9.486442040652037">
        <ele>169.33000000000001</ele>
        <time>2025-05-04T16:14:33Z</time>
      </trkpt>
      <trkpt lat="38.782946029677987" lon="-9.486146997660399">
        <ele>168.84999999999999</ele>
        <time>2025-05-04T16:14:35Z</time>
      </trkpt>
      <trkpt lat="38.782935971394181" lon="-9.485992016270757">
        <ele>168.37</ele>
        <time>2025-05-04T16:14:36Z</time>
      </trkpt>
      <trkpt lat="38.782927002757788" lon="-9.485839968547225">
        <ele>167.88999999999999</ele>
        <time>2025-05-04T16:14:37Z</time>
      </trkpt>
      <trkpt lat="38.78291099332273" lon="-9.485680963844061">
        <ele>167.88999999999999</ele>
        <time>2025-05-04T16:14:38Z</time>
      </trkpt>
      <trkpt lat="38.78286799415946" lon="-9.48554802685976">
        <ele>167.88999999999999</ele>
        <time>2025-05-04T16:14:39Z</time>
      </trkpt>
      <trkpt lat="38.782620979472995" lon="-9.484944026917219">
        <ele>168.84999999999999</ele>
        <time>2025-05-04T16:14:43Z</time>
      </trkpt>
      <trkpt lat="38.782556019723415" lon="-9.484835984185338">
        <ele>169.81</ele>
        <time>2025-05-04T16:14:45Z</time>
      </trkpt>
      <trkpt lat="38.782470021396875" lon="-9.48477697558701">
        <ele>170.28999999999999</ele>
        <time>2025-05-04T16:14:46Z</time>
      </trkpt>
      <trkpt lat="38.782203979790211" lon="-9.484595004469156">
        <ele>170.77000000000001</ele>
        <time>2025-05-04T16:14:48Z</time>
      </trkpt>
      <trkpt lat="38.782203979790211" lon="-9.484595004469156">
        <ele>170.77000000000001</ele>
        <time>2025-05-04T16:14:49Z</time>
      </trkpt>
      <trkpt lat="38.781993007287383" lon="-9.484322005882859">
        <ele>171.25</ele>
        <time>2025-05-04T16:14:51Z</time>
      </trkpt>
      <trkpt lat="38.781993007287383" lon="-9.484322005882859">
        <ele>171.25</ele>
        <time>2025-05-04T16:14:52Z</time>
      </trkpt>
      <trkpt lat="38.781808018684387" lon="-9.484189990907908">
        <ele>171.25</ele>
        <time>2025-05-04T16:14:53Z</time>
      </trkpt>
      <trkpt lat="38.781699975952506" lon="-9.484172975644469">
        <ele>171.72999999999999</ele>
        <time>2025-05-04T16:14:54Z</time>
      </trkpt>
      <trkpt lat="38.781699975952506" lon="-9.484172975644469">
        <ele>171.72999999999999</ele>
        <time>2025-05-04T16:14:55Z</time>
      </trkpt>
      <trkpt lat="38.781581958755851" lon="-9.48417398147285">
        <ele>172.21000000000001</ele>
        <time>2025-05-04T16:14:56Z</time>
      </trkpt>
      <trkpt lat="38.78112799488008" lon="-9.484265008941293">
        <ele>173.66</ele>
        <time>2025-05-04T16:15:00Z</time>
      </trkpt>
      <trkpt lat="38.781014000996947" lon="-9.484255034476519">
        <ele>174.62</ele>
        <time>2025-05-04T16:15:01Z</time>
      </trkpt>
      <trkpt lat="38.780899001285434" lon="-9.484244976192713">
        <ele>175.09999999999999</ele>
        <time>2025-05-04T16:15:02Z</time>
      </trkpt>
      <trkpt lat="38.78078400157392" lon="-9.484235001727939">
        <ele>176.06</ele>
        <time>2025-05-04T16:15:03Z</time>
      </trkpt>
      <trkpt lat="38.780687022954226" lon="-9.484227038919926">
        <ele>177.02000000000001</ele>
        <time>2025-05-04T16:15:04Z</time>
      </trkpt>
      <trkpt lat="38.780536986887455" lon="-9.484054958447814">
        <ele>178.46000000000001</ele>
        <time>2025-05-04T16:15:05Z</time>
      </trkpt>
      <trkpt lat="38.780536986887455" lon="-9.484054958447814">
        <ele>179.41999999999999</ele>
        <time>2025-05-04T16:15:06Z</time>
      </trkpt>
      <trkpt lat="38.7805260065943" lon="-9.483954040333629">
        <ele>180.38</ele>
        <time>2025-05-04T16:15:07Z</time>
      </trkpt>
      <trkpt lat="38.780523994937539" lon="-9.483842980116606">
        <ele>181.83000000000001</ele>
        <time>2025-05-04T16:15:08Z</time>
      </trkpt>
      <trkpt lat="38.780570011585951" lon="-9.483738038688898">
        <ele>182.78999999999999</ele>
        <time>2025-05-04T16:15:09Z</time>
      </trkpt>
      <trkpt lat="38.780616028234363" lon="-9.483632007613778">
        <ele>183.75</ele>
        <time>2025-05-04T16:15:10Z</time>
      </trkpt>
      <trkpt lat="38.780661961063743" lon="-9.483526982367039">
        <ele>184.71000000000001</ele>
        <time>2025-05-04T16:15:11Z</time>
      </trkpt>
      <trkpt lat="38.780665984377265" lon="-9.483394967392087">
        <ele>186.15000000000001</ele>
        <time>2025-05-04T16:15:12Z</time>
      </trkpt>
      <trkpt lat="38.780665984377265" lon="-9.483266975730658">
        <ele>187.11000000000001</ele>
        <time>2025-05-04T16:15:13Z</time>
      </trkpt>
      <trkpt lat="38.780665984377265" lon="-9.483011998236179">
        <ele>188.08000000000001</ele>
        <time>2025-05-04T16:15:14Z</time>
      </trkpt>
      <trkpt lat="38.780646035447717" lon="-9.482903033494949">
        <ele>189.03999999999999</ele>
        <time>2025-05-04T16:15:15Z</time>
      </trkpt>
      <trkpt lat="38.780646035447717" lon="-9.482902027666569">
        <ele>190</ele>
        <time>2025-05-04T16:15:16Z</time>
      </trkpt>
      <trkpt lat="38.780579986050725" lon="-9.482690971344709">
        <ele>190.96000000000001</ele>
        <time>2025-05-04T16:15:17Z</time>
      </trkpt>
      <trkpt lat="38.780579986050725" lon="-9.482690971344709">
        <ele>192.40000000000001</ele>
        <time>2025-05-04T16:15:18Z</time>
      </trkpt>
      <trkpt lat="38.780520977452397" lon="-9.482598016038537">
        <ele>193.36000000000001</ele>
        <time>2025-05-04T16:15:19Z</time>
      </trkpt>
      <trkpt lat="38.780384017154574" lon="-9.48243398219347">
        <ele>194.31999999999999</ele>
        <time>2025-05-04T16:15:20Z</time>
      </trkpt>
      <trkpt lat="38.780307993292809" lon="-9.482372039929032">
        <ele>195.77000000000001</ele>
        <time>2025-05-04T16:15:21Z</time>
      </trkpt>
      <trkpt lat="38.780307993292809" lon="-9.482372039929032">
        <ele>196.72999999999999</ele>
        <time>2025-05-04T16:15:22Z</time>
      </trkpt>
      <trkpt lat="38.780162986367941" lon="-9.482271960005164">
        <ele>198.16999999999999</ele>
        <time>2025-05-04T16:15:23Z</time>
      </trkpt>
      <trkpt lat="38.780081011354923" lon="-9.482233989983797">
        <ele>199.13</ele>
        <time>2025-05-04T16:15:24Z</time>
      </trkpt>
      <trkpt lat="38.780081011354923" lon="-9.482233989983797">
        <ele>200.09</ele>
        <time>2025-05-04T16:15:25Z</time>
      </trkpt>
      <trkpt lat="38.779895016923547" lon="-9.482171041890979">
        <ele>201.05000000000001</ele>
        <time>2025-05-04T16:15:26Z</time>
      </trkpt>
      <trkpt lat="38.779895016923547" lon="-9.482171041890979">
        <ele>202.49000000000001</ele>
        <time>2025-05-04T16:15:27Z</time>
      </trkpt>
      <trkpt lat="38.779798960313201" lon="-9.482182022184134">
        <ele>203.46000000000001</ele>
        <time>2025-05-04T16:15:28Z</time>
      </trkpt>
      <trkpt lat="38.779274001717567" lon="-9.482258968055248">
        <ele>207.30000000000001</ele>
        <time>2025-05-04T16:15:33Z</time>
      </trkpt>
      <trkpt lat="38.77917199395597" lon="-9.48230498470366">
        <ele>208.25999999999999</ele>
        <time>2025-05-04T16:15:34Z</time>
      </trkpt>
      <trkpt lat="38.779065040871501" lon="-9.482357036322355">
        <ele>209.22</ele>
        <time>2025-05-04T16:15:35Z</time>
      </trkpt>
      <trkpt lat="38.778646029531956" lon="-9.48262601159513">
        <ele>211.63</ele>
        <time>2025-05-04T16:15:39Z</time>
      </trkpt>
      <trkpt lat="38.778551984578371" lon="-9.482700023800135">
        <ele>212.59</ele>
        <time>2025-05-04T16:15:40Z</time>
      </trkpt>
      <trkpt lat="38.778467997908592" lon="-9.482731036841869">
        <ele>213.06999999999999</ele>
        <time>2025-05-04T16:15:41Z</time>
      </trkpt>
      <trkpt lat="38.778374036774039" lon="-9.482741011306644">
        <ele>214.03</ele>
        <time>2025-05-04T16:15:42Z</time>
      </trkpt>
      <trkpt lat="38.778299018740654" lon="-9.482730031013489">
        <ele>214.50999999999999</ele>
        <time>2025-05-04T16:15:43Z</time>
      </trkpt>
      <trkpt lat="38.778216959908605" lon="-9.482683008536696">
        <ele>215.47</ele>
        <time>2025-05-04T16:15:44Z</time>
      </trkpt>
      <trkpt lat="38.777912026271224" lon="-9.482453009113669">
        <ele>217.40000000000001</ele>
        <time>2025-05-04T16:15:48Z</time>
      </trkpt>
      <trkpt lat="38.777333004400134" lon="-9.482173975557089">
        <ele>221.24000000000001</ele>
        <time>2025-05-04T16:15:54Z</time>
      </trkpt>
      <trkpt lat="38.77723703160882" lon="-9.482126031070948">
        <ele>222.19999999999999</ele>
        <time>2025-05-04T16:15:55Z</time>
      </trkpt>
      <trkpt lat="38.777146004140377" lon="-9.482080014422536">
        <ele>222.68000000000001</ele>
        <time>2025-05-04T16:15:56Z</time>
      </trkpt>
      <trkpt lat="38.777054976671934" lon="-9.482031986117363">
        <ele>223.16</ele>
        <time>2025-05-04T16:15:57Z</time>
      </trkpt>
      <trkpt lat="38.776908041909337" lon="-9.48187398724258">
        <ele>223.63999999999999</ele>
        <time>2025-05-04T16:15:58Z</time>
      </trkpt>
      <trkpt lat="38.776908041909337" lon="-9.48187398724258">
        <ele>224.12</ele>
        <time>2025-05-04T16:15:59Z</time>
      </trkpt>
      <trkpt lat="38.776837969198823" lon="-9.481798969209194">
        <ele>225.09</ele>
        <time>2025-05-04T16:16:00Z</time>
      </trkpt>
      <trkpt lat="38.776691034436226" lon="-9.481653962284327">
        <ele>225.56999999999999</ele>
        <time>2025-05-04T16:16:01Z</time>
      </trkpt>
      <trkpt lat="38.776546027511358" lon="-9.481523958966136">
        <ele>227.49000000000001</ele>
        <time>2025-05-04T16:16:04Z</time>
      </trkpt>
      <trkpt lat="38.776198010891676" lon="-9.481270993128419">
        <ele>231.33000000000001</ele>
        <time>2025-05-04T16:16:11Z</time>
      </trkpt>
      <trkpt lat="38.776143025606871" lon="-9.481246015056968">
        <ele>231.81</ele>
        <time>2025-05-04T16:16:12Z</time>
      </trkpt>
      <trkpt lat="38.775467025116086" lon="-9.480809988453984">
        <ele>234.69999999999999</ele>
        <time>2025-05-04T16:16:21Z</time>
      </trkpt>
      <trkpt lat="38.774519031867385" lon="-9.480170030146837">
        <ele>239.99000000000001</ele>
        <time>2025-05-04T16:16:32Z</time>
      </trkpt>
      <trkpt lat="38.773681009188294" lon="-9.479439966380596">
        <ele>244.78999999999999</ele>
        <time>2025-05-04T16:16:41Z</time>
      </trkpt>
      <trkpt lat="38.773681009188294" lon="-9.479439966380596">
        <ele>245.27000000000001</ele>
        <time>2025-05-04T16:16:42Z</time>
      </trkpt>
      <trkpt lat="38.772692028433084" lon="-9.478773018345237">
        <ele>250.56</ele>
        <time>2025-05-04T16:16:50Z</time>
      </trkpt>
      <trkpt lat="38.772590020671487" lon="-9.478690037503839">
        <ele>251.52000000000001</ele>
        <time>2025-05-04T16:16:51Z</time>
      </trkpt>
      <trkpt lat="38.772590020671487" lon="-9.478690037503839">
        <ele>252.47999999999999</ele>
        <time>2025-05-04T16:16:52Z</time>
      </trkpt>
      <trkpt lat="38.772397991269827" lon="-9.478489961475134">
        <ele>253.44</ele>
        <time>2025-05-04T16:16:53Z</time>
      </trkpt>
      <trkpt lat="38.772397991269827" lon="-9.478489961475134">
        <ele>254.41</ele>
        <time>2025-05-04T16:16:54Z</time>
      </trkpt>
      <trkpt lat="38.772307969629765" lon="-9.478380996733904">
        <ele>255.37</ele>
        <time>2025-05-04T16:16:55Z</time>
      </trkpt>
      <trkpt lat="38.772133961319923" lon="-9.478172035887837">
        <ele>255.84999999999999</ele>
        <time>2025-05-04T16:16:56Z</time>
      </trkpt>
      <trkpt lat="38.771979985758662" lon="-9.47798796929419">
        <ele>257.76999999999998</ele>
        <time>2025-05-04T16:16:59Z</time>
      </trkpt>
      <trkpt lat="38.77195299603045" lon="-9.477882022038102">
        <ele>258.73000000000002</ele>
        <time>2025-05-04T16:17:00Z</time>
      </trkpt>
      <trkpt lat="38.771928017958999" lon="-9.47777003981173">
        <ele>259.20999999999998</ele>
        <time>2025-05-04T16:17:01Z</time>
      </trkpt>
      <trkpt lat="38.77184696495533" lon="-9.47719101794064">
        <ele>263.54000000000002</ele>
        <time>2025-05-04T16:17:06Z</time>
      </trkpt>
      <trkpt lat="38.77184696495533" lon="-9.477060008794069">
        <ele>264.01999999999998</ele>
        <time>2025-05-04T16:17:07Z</time>
      </trkpt>
      <trkpt lat="38.771893987432122" lon="-9.4769979827106">
        <ele>264.98000000000002</ele>
        <time>2025-05-04T16:17:08Z</time>
      </trkpt>
      <trkpt lat="38.771969005465508" lon="-9.476927993819118">
        <ele>265.94</ele>
        <time>2025-05-04T16:17:09Z</time>
      </trkpt>
      <trkpt lat="38.772053997963667" lon="-9.476860016584396">
        <ele>266.42000000000002</ele>
        <time>2025-05-04T16:17:10Z</time>
      </trkpt>
      <trkpt lat="38.77233998849988" lon="-9.47663102298975">
        <ele>269.31</ele>
        <time>2025-05-04T16:17:13Z</time>
      </trkpt>
      <trkpt lat="38.772636959329247" lon="-9.476447040215135">
        <ele>271.70999999999998</ele>
        <time>2025-05-04T16:17:16Z</time>
      </trkpt>
      <trkpt lat="38.772924961522222" lon="-9.476278983056545">
        <ele>274.58999999999997</ele>
        <time>2025-05-04T16:17:19Z</time>
      </trkpt>
      <trkpt lat="38.77309100702405" lon="-9.476116038858891">
        <ele>279.39999999999998</ele>
        <time>2025-05-04T16:17:27Z</time>
      </trkpt>
      <trkpt lat="38.77311103977263" lon="-9.476044960319996">
        <ele>280.36000000000001</ele>
        <time>2025-05-04T16:17:36Z</time>
      </trkpt>
      <trkpt lat="38.77311103977263" lon="-9.476044960319996">
        <ele>280.83999999999997</ele>
        <time>2025-05-04T16:17:38Z</time>
      </trkpt>
      <trkpt lat="38.773050019517541" lon="-9.475924009457231">
        <ele>280.83999999999997</ele>
        <time>2025-05-04T16:17:39Z</time>
      </trkpt>
      <trkpt lat="38.773019006475806" lon="-9.475908000022173">
        <ele>280.83999999999997</ele>
        <time>2025-05-04T16:17:40Z</time>
      </trkpt>
      <trkpt lat="38.77296301536262" lon="-9.47588000446558">
        <ele>280.83999999999997</ele>
        <time>2025-05-04T16:17:41Z</time>
      </trkpt>
      <trkpt lat="38.772903000935912" lon="-9.475825019180775">
        <ele>280.83999999999997</ele>
        <time>2025-05-04T16:17:42Z</time>
      </trkpt>
      <trkpt lat="38.772853966802359" lon="-9.47572804056108">
        <ele>280.83999999999997</ele>
        <time>2025-05-04T16:17:43Z</time>
      </trkpt>
      <trkpt lat="38.77281297929585" lon="-9.475627038627863">
        <ele>280.83999999999997</ele>
        <time>2025-05-04T16:17:44Z</time>
      </trkpt>
      <trkpt lat="38.772819014266133" lon="-9.475503992289305">
        <ele>280.36000000000001</ele>
        <time>2025-05-04T16:17:45Z</time>
      </trkpt>
      <trkpt lat="38.772824965417385" lon="-9.475368037819862">
        <ele>280.36000000000001</ele>
        <time>2025-05-04T16:17:46Z</time>
      </trkpt>
      <trkpt lat="38.772875005379319" lon="-9.474606961011887">
        <ele>279.39999999999998</ele>
        <time>2025-05-04T16:17:50Z</time>
      </trkpt>
      <trkpt lat="38.772875005379319" lon="-9.474606961011887">
        <ele>278.92000000000002</ele>
        <time>2025-05-04T16:17:51Z</time>
      </trkpt>
      <trkpt lat="38.772946000099182" lon="-9.474277971312404">
        <ele>278.44</ele>
        <time>2025-05-04T16:17:52Z</time>
      </trkpt>
      <trkpt lat="38.773174993693829" lon="-9.473633989691734">
        <ele>277.48000000000002</ele>
        <time>2025-05-04T16:17:57Z</time>
      </trkpt>
      <trkpt lat="38.773342967033386" lon="-9.473397033289075">
        <ele>277</ele>
        <time>2025-05-04T16:17:58Z</time>
      </trkpt>
      <trkpt lat="38.773438017815351" lon="-9.473264012485743">
        <ele>276.04000000000002</ele>
        <time>2025-05-04T16:18:00Z</time>
      </trkpt>
      <trkpt lat="38.773645972833037" lon="-9.47293602861464">
        <ele>275.56</ele>
        <time>2025-05-04T16:18:01Z</time>
      </trkpt>
      <trkpt lat="38.773835990577936" lon="-9.472581977024674">
        <ele>272.67000000000002</ele>
        <time>2025-05-04T16:18:04Z</time>
      </trkpt>
      <trkpt lat="38.773919977247715" lon="-9.472211999818683">
        <ele>271.70999999999998</ele>
        <time>2025-05-04T16:18:05Z</time>
      </trkpt>
      <trkpt lat="38.773900028318167" lon="-9.472065987065435">
        <ele>271.23000000000002</ele>
        <time>2025-05-04T16:18:06Z</time>
      </trkpt>
      <trkpt lat="38.773900028318167" lon="-9.472065987065435">
        <ele>270.75</ele>
        <time>2025-05-04T16:18:07Z</time>
      </trkpt>
      <trkpt lat="38.773847976699471" lon="-9.471919974312186">
        <ele>270.75</ele>
        <time>2025-05-04T16:18:08Z</time>
      </trkpt>
      <trkpt lat="38.773785028606653" lon="-9.471817966550589">
        <ele>270.26999999999998</ele>
        <time>2025-05-04T16:18:09Z</time>
      </trkpt>
      <trkpt lat="38.773677991703153" lon="-9.471735991537571">
        <ele>269.79000000000002</ele>
        <time>2025-05-04T16:18:10Z</time>
      </trkpt>
      <trkpt lat="38.773562991991639" lon="-9.47164898738265">
        <ele>269.31</ele>
        <time>2025-05-04T16:18:11Z</time>
      </trkpt>
      <trkpt lat="38.773444974794984" lon="-9.471543040126562">
        <ele>268.82999999999998</ele>
        <time>2025-05-04T16:18:12Z</time>
      </trkpt>
      <trkpt lat="38.773376997560263" lon="-9.471388980746269">
        <ele>268.35000000000002</ele>
        <time>2025-05-04T16:18:13Z</time>
      </trkpt>
      <trkpt lat="38.7733060028404" lon="-9.471227964386344">
        <ele>267.86000000000001</ele>
        <time>2025-05-04T16:18:14Z</time>
      </trkpt>
      <trkpt lat="38.773037027567625" lon="-9.470535032451153">
        <ele>265.45999999999998</ele>
        <time>2025-05-04T16:18:18Z</time>
      </trkpt>
      <trkpt lat="38.772983970120549" lon="-9.470387008041143">
        <ele>264.98000000000002</ele>
        <time>2025-05-04T16:18:19Z</time>
      </trkpt>
      <trkpt lat="38.772904006764293" lon="-9.470265973359346">
        <ele>264.5</ele>
        <time>2025-05-04T16:18:20Z</time>
      </trkpt>
      <trkpt lat="38.772825971245766" lon="-9.470180980861187">
        <ele>264.01999999999998</ele>
        <time>2025-05-04T16:18:21Z</time>
      </trkpt>
      <trkpt lat="38.772729998454452" lon="-9.470139993354678">
        <ele>263.54000000000002</ele>
        <time>2025-05-04T16:18:22Z</time>
      </trkpt>
      <trkpt lat="38.772632014006376" lon="-9.47018601000309">
        <ele>263.06</ele>
        <time>2025-05-04T16:18:23Z</time>
      </trkpt>
      <trkpt lat="38.772541992366314" lon="-9.470255998894572">
        <ele>262.57999999999998</ele>
        <time>2025-05-04T16:18:24Z</time>
      </trkpt>
      <trkpt lat="38.772466974332929" lon="-9.470384996384382">
        <ele>262.10000000000002</ele>
        <time>2025-05-04T16:18:25Z</time>
      </trkpt>
      <trkpt lat="38.772396985441446" lon="-9.470547018572688">
        <ele>261.62</ele>
        <time>2025-05-04T16:18:26Z</time>
      </trkpt>
      <trkpt lat="38.772234041243792" lon="-9.470930993556976">
        <ele>260.17000000000002</ele>
        <time>2025-05-04T16:18:28Z</time>
      </trkpt>
      <trkpt lat="38.772056009620428" lon="-9.471326032653451">
        <ele>259.69</ele>
        <time>2025-05-04T16:18:29Z</time>
      </trkpt>
      <trkpt lat="38.771353019401431" lon="-9.472318030893803">
        <ele>256.81</ele>
        <time>2025-05-04T16:18:36Z</time>
      </trkpt>
      <trkpt lat="38.771173981949687" lon="-9.472650960087776">
        <ele>256.81</ele>
        <time>2025-05-04T16:18:37Z</time>
      </trkpt>
      <trkpt lat="38.770809033885598" lon="-9.473330983892083">
        <ele>255.37</ele>
        <time>2025-05-04T16:18:43Z</time>
      </trkpt>
      <trkpt lat="38.770740972831845" lon="-9.473458975553513">
        <ele>255.37</ele>
        <time>2025-05-04T16:18:44Z</time>
      </trkpt>
      <trkpt lat="38.770638965070248" lon="-9.473542040213943">
        <ele>255.37</ele>
        <time>2025-05-04T16:18:45Z</time>
      </trkpt>
      <trkpt lat="38.770525977015495" lon="-9.47362300939858">
        <ele>255.37</ele>
        <time>2025-05-04T16:18:46Z</time>
      </trkpt>
      <trkpt lat="38.770415000617504" lon="-9.473694004118443">
        <ele>255.37</ele>
        <time>2025-05-04T16:18:47Z</time>
      </trkpt>
      <trkpt lat="38.770157005637884" lon="-9.473745971918106">
        <ele>256.32999999999998</ele>
        <time>2025-05-04T16:18:49Z</time>
      </trkpt>
      <trkpt lat="38.76896501518786" lon="-9.473691992461681">
        <ele>259.20999999999998</ele>
        <time>2025-05-04T16:18:59Z</time>
      </trkpt>
      <trkpt lat="38.767697000876069" lon="-9.473393009975553">
        <ele>261.13999999999999</ele>
        <time>2025-05-04T16:19:09Z</time>
      </trkpt>
      <trkpt lat="38.767561968415976" lon="-9.473370965570211">
        <ele>261.13999999999999</ele>
        <time>2025-05-04T16:19:10Z</time>
      </trkpt>
      <trkpt lat="38.766785971820354" lon="-9.473411031067371">
        <ele>261.62</ele>
        <time>2025-05-04T16:19:16Z</time>
      </trkpt>
      <trkpt lat="38.766662003472447" lon="-9.473392004147172">
        <ele>261.62</ele>
        <time>2025-05-04T16:19:17Z</time>
      </trkpt>
      <trkpt lat="38.766547003760934" lon="-9.473369037732482">
        <ele>261.62</ele>
        <time>2025-05-04T16:19:18Z</time>
      </trkpt>
      <trkpt lat="38.765500020235777" lon="-9.472433030605316">
        <ele>259.20999999999998</ele>
        <time>2025-05-04T16:19:28Z</time>
      </trkpt>
      <trkpt lat="38.765330035239458" lon="-9.472222980111837">
        <ele>258.25</ele>
        <time>2025-05-04T16:19:30Z</time>
      </trkpt>
      <trkpt lat="38.765244036912918" lon="-9.472116027027369">
        <ele>257.76999999999998</ele>
        <time>2025-05-04T16:19:31Z</time>
      </trkpt>
      <trkpt lat="38.765179999172688" lon="-9.47199197486043">
        <ele>257.29000000000002</ele>
        <time>2025-05-04T16:19:32Z</time>
      </trkpt>
      <trkpt lat="38.765119984745979" lon="-9.47184101678431">
        <ele>256.81</ele>
        <time>2025-05-04T16:19:33Z</time>
      </trkpt>
      <trkpt lat="38.76505603082478" lon="-9.471680000424385">
        <ele>256.32999999999998</ele>
        <time>2025-05-04T16:19:34Z</time>
      </trkpt>
      <trkpt lat="38.764999033883214" lon="-9.471514038741589">
        <ele>255.84999999999999</ele>
        <time>2025-05-04T16:19:35Z</time>
      </trkpt>
      <trkpt lat="38.764920998364687" lon="-9.471354028210044">
        <ele>255.37</ele>
        <time>2025-05-04T16:19:36Z</time>
      </trkpt>
      <trkpt lat="38.764815973117948" lon="-9.47123902849853">
        <ele>254.88999999999999</ele>
        <time>2025-05-04T16:19:37Z</time>
      </trkpt>
      <trkpt lat="38.764707008376718" lon="-9.471128974109888">
        <ele>254.88999999999999</ele>
        <time>2025-05-04T16:19:38Z</time>
      </trkpt>
      <trkpt lat="38.764580022543669" lon="-9.471059991046786">
        <ele>254.41</ele>
        <time>2025-05-04T16:19:39Z</time>
      </trkpt>
      <trkpt lat="38.763536978513002" lon="-9.470399999991059">
        <ele>248.63999999999999</ele>
        <time>2025-05-04T16:19:48Z</time>
      </trkpt>
      <trkpt lat="38.763341009616852" lon="-9.470267985016108">
        <ele>245.75</ele>
        <time>2025-05-04T16:19:54Z</time>
      </trkpt>
      <trkpt lat="38.763245958834887" lon="-9.470204031094909">
        <ele>244.31</ele>
        <time>2025-05-04T16:20:04Z</time>
      </trkpt>
      <trkpt lat="38.762795012444258" lon="-9.469862971454859">
        <ele>240.94999999999999</ele>
        <time>2025-05-04T16:20:11Z</time>
      </trkpt>
      <trkpt lat="38.76269199885428" lon="-9.469783008098602">
        <ele>240.47</ele>
        <time>2025-05-04T16:20:12Z</time>
      </trkpt>
      <trkpt lat="38.762593008577824" lon="-9.469687035307288">
        <ele>239.99000000000001</ele>
        <time>2025-05-04T16:20:13Z</time>
      </trkpt>
      <trkpt lat="38.762501981109381" lon="-9.46958402171731">
        <ele>239.02000000000001</ele>
        <time>2025-05-04T16:20:14Z</time>
      </trkpt>
      <trkpt lat="38.762409025803208" lon="-9.469260983169079">
        <ele>238.53999999999999</ele>
        <time>2025-05-04T16:20:15Z</time>
      </trkpt>
      <trkpt lat="38.762409025803208" lon="-9.469260983169079">
        <ele>238.06</ele>
        <time>2025-05-04T16:20:16Z</time>
      </trkpt>
      <trkpt lat="38.762236023321748" lon="-9.468609960749745">
        <ele>236.62</ele>
        <time>2025-05-04T16:20:20Z</time>
      </trkpt>
      <trkpt lat="38.762106020003557" lon="-9.468331011012197">
        <ele>236.62</ele>
        <time>2025-05-04T16:20:21Z</time>
      </trkpt>
      <trkpt lat="38.762019015848637" lon="-9.468176029622555">
        <ele>236.13999999999999</ele>
        <time>2025-05-04T16:20:22Z</time>
      </trkpt>
      <trkpt lat="38.76189898699522" lon="-9.468069998547435">
        <ele>235.18000000000001</ele>
        <time>2025-05-04T16:20:23Z</time>
      </trkpt>
      <trkpt lat="38.76189898699522" lon="-9.468069998547435">
        <ele>234.69999999999999</ele>
        <time>2025-05-04T16:20:24Z</time>
      </trkpt>
      <trkpt lat="38.761651972308755" lon="-9.467904036864638">
        <ele>234.22</ele>
        <time>2025-05-04T16:20:25Z</time>
      </trkpt>
      <trkpt lat="38.761651972308755" lon="-9.467904036864638">
        <ele>233.25999999999999</ele>
        <time>2025-05-04T16:20:26Z</time>
      </trkpt>
      <trkpt lat="38.761536972597241" lon="-9.467837987467647">
        <ele>232.78</ele>
        <time>2025-05-04T16:20:27Z</time>
      </trkpt>
      <trkpt lat="38.761418033391237" lon="-9.467769004404545">
        <ele>232.30000000000001</ele>
        <time>2025-05-04T16:20:28Z</time>
      </trkpt>
      <trkpt lat="38.761365981772542" lon="-9.46767202578485">
        <ele>231.81</ele>
        <time>2025-05-04T16:20:29Z</time>
      </trkpt>
      <trkpt lat="38.761301022022963" lon="-9.467550991103053">
        <ele>231.33000000000001</ele>
        <time>2025-05-04T16:20:30Z</time>
      </trkpt>
      <trkpt lat="38.761249976232648" lon="-9.467409001663327">
        <ele>230.84999999999999</ele>
        <time>2025-05-04T16:20:31Z</time>
      </trkpt>
      <trkpt lat="38.761214017868042" lon="-9.467256031930447">
        <ele>230.84999999999999</ele>
        <time>2025-05-04T16:20:32Z</time>
      </trkpt>
      <trkpt lat="38.761227009817958" lon="-9.467102978378534">
        <ele>230.84999999999999</ele>
        <time>2025-05-04T16:20:33Z</time>
      </trkpt>
      <trkpt lat="38.761259028688073" lon="-9.466955037787557">
        <ele>230.84999999999999</ele>
        <time>2025-05-04T16:20:34Z</time>
      </trkpt>
      <trkpt lat="38.761308984830976" lon="-9.466802990064025">
        <ele>230.84999999999999</ele>
        <time>2025-05-04T16:20:35Z</time>
      </trkpt>
      <trkpt lat="38.761491039767861" lon="-9.466307032853365">
        <ele>230.37</ele>
        <time>2025-05-04T16:20:38Z</time>
      </trkpt>
      <trkpt lat="38.761546025052667" lon="-9.466139981523156">
        <ele>230.37</ele>
        <time>2025-05-04T16:20:39Z</time>
      </trkpt>
      <trkpt lat="38.761558011174202" lon="-9.465966979041696">
        <ele>230.37</ele>
        <time>2025-05-04T16:20:40Z</time>
      </trkpt>
      <trkpt lat="38.761568991467357" lon="-9.465816020965576">
        <ele>230.37</ele>
        <time>2025-05-04T16:20:41Z</time>
      </trkpt>
      <trkpt lat="38.761536972597241" lon="-9.465634971857071">
        <ele>230.37</ele>
        <time>2025-05-04T16:20:42Z</time>
      </trkpt>
      <trkpt lat="38.761506965383887" lon="-9.465469010174274">
        <ele>230.37</ele>
        <time>2025-05-04T16:20:43Z</time>
      </trkpt>
      <trkpt lat="38.761434964835644" lon="-9.465346969664097">
        <ele>230.37</ele>
        <time>2025-05-04T16:20:44Z</time>
      </trkpt>
      <trkpt lat="38.76125399954617" lon="-9.465171033516526">
        <ele>230.37</ele>
        <time>2025-05-04T16:20:46Z</time>
      </trkpt>
      <trkpt lat="38.76097597181797" lon="-9.465110013261437">
        <ele>229.41</ele>
        <time>2025-05-04T16:20:48Z</time>
      </trkpt>
      <trkpt lat="38.760645976290107" lon="-9.465123005211353">
        <ele>228.93000000000001</ele>
        <time>2025-05-04T16:20:49Z</time>
      </trkpt>
      <trkpt lat="38.759953966364264" lon="-9.465166004374623">
        <ele>225.56999999999999</ele>
        <time>2025-05-04T16:20:54Z</time>
      </trkpt>
      <trkpt lat="38.759783981367946" lon="-9.465161981061101">
        <ele>225.09</ele>
        <time>2025-05-04T16:20:55Z</time>
      </trkpt>
      <trkpt lat="38.759610978886485" lon="-9.465124011039734">
        <ele>224.61000000000001</ele>
        <time>2025-05-04T16:20:56Z</time>
      </trkpt>
      <trkpt lat="38.759445017203689" lon="-9.465086963027716">
        <ele>223.63999999999999</ele>
        <time>2025-05-04T16:20:57Z</time>
      </trkpt>
      <trkpt lat="38.759311996400356" lon="-9.464982021600008">
        <ele>223.63999999999999</ele>
        <time>2025-05-04T16:20:58Z</time>
      </trkpt>
      <trkpt lat="38.759187022224069" lon="-9.464884037151933">
        <ele>223.16</ele>
        <time>2025-05-04T16:20:59Z</time>
      </trkpt>
      <trkpt lat="38.759076967835426" lon="-9.464797032997012">
        <ele>223.16</ele>
        <time>2025-05-04T16:21:00Z</time>
      </trkpt>
      <trkpt lat="38.758897008374333" lon="-9.464597040787339">
        <ele>222.19999999999999</ele>
        <time>2025-05-04T16:21:02Z</time>
      </trkpt>
      <trkpt lat="38.758821990340948" lon="-9.464507019147277">
        <ele>222.19999999999999</ele>
        <time>2025-05-04T16:21:03Z</time>
      </trkpt>
      <trkpt lat="38.758756024762988" lon="-9.464375004172325">
        <ele>221.24000000000001</ele>
        <time>2025-05-04T16:21:04Z</time>
      </trkpt>
      <trkpt lat="38.758692992851138" lon="-9.464249024167657">
        <ele>221.24000000000001</ele>
        <time>2025-05-04T16:21:05Z</time>
      </trkpt>
      <trkpt lat="38.758628033101559" lon="-9.464120026677847">
        <ele>220.28</ele>
        <time>2025-05-04T16:21:06Z</time>
      </trkpt>
      <trkpt lat="38.758596014231443" lon="-9.46397895924747">
        <ele>219.80000000000001</ele>
        <time>2025-05-04T16:21:07Z</time>
      </trkpt>
      <trkpt lat="38.758577993139625" lon="-9.463824983686209">
        <ele>219.31999999999999</ele>
        <time>2025-05-04T16:21:08Z</time>
      </trkpt>
      <trkpt lat="38.758540023118258" lon="-9.463496999815106">
        <ele>219.31999999999999</ele>
        <time>2025-05-04T16:21:09Z</time>
      </trkpt>
      <trkpt lat="38.758519990369678" lon="-9.463329026475549">
        <ele>218.84</ele>
        <time>2025-05-04T16:21:11Z</time>
      </trkpt>
      <trkpt lat="38.758500963449478" lon="-9.463159963488579">
        <ele>218.84</ele>
        <time>2025-05-04T16:21:12Z</time>
      </trkpt>
      <trkpt lat="38.758452013134956" lon="-9.462998025119305">
        <ele>218.36000000000001</ele>
        <time>2025-05-04T16:21:13Z</time>
      </trkpt>
      <trkpt lat="38.758316980674863" lon="-9.462713962420821">
        <ele>217.88</ele>
        <time>2025-05-04T16:21:14Z</time>
      </trkpt>
      <trkpt lat="38.758225031197071" lon="-9.462594017386437">
        <ele>217.40000000000001</ele>
        <time>2025-05-04T16:21:15Z</time>
      </trkpt>
      <trkpt lat="38.758225031197071" lon="-9.462594017386437">
        <ele>217.40000000000001</ele>
        <time>2025-05-04T16:21:16Z</time>
      </trkpt>
      <trkpt lat="38.757764026522636" lon="-9.462080961093307">
        <ele>216.43000000000001</ele>
        <time>2025-05-04T16:21:21Z</time>
      </trkpt>
      <trkpt lat="38.757677022367716" lon="-9.461961016058922">
        <ele>215.94999999999999</ele>
        <time>2025-05-04T16:21:22Z</time>
      </trkpt>
      <trkpt lat="38.757518017664552" lon="-9.461693968623877">
        <ele>215.94999999999999</ele>
        <time>2025-05-04T16:21:23Z</time>
      </trkpt>
      <trkpt lat="38.757518017664552" lon="-9.461693968623877">
        <ele>215.47</ele>
        <time>2025-05-04T16:21:24Z</time>
      </trkpt>
      <trkpt lat="38.757463032379746" lon="-9.461542004719377">
        <ele>214.99000000000001</ele>
        <time>2025-05-04T16:21:25Z</time>
      </trkpt>
      <trkpt lat="38.757360018789768" lon="-9.461256014183164">
        <ele>214.50999999999999</ele>
        <time>2025-05-04T16:21:27Z</time>
      </trkpt>
      <trkpt lat="38.757335962727666" lon="-9.461126010864973">
        <ele>214.03</ele>
        <time>2025-05-04T16:21:28Z</time>
      </trkpt>
      <trkpt lat="38.757326994091272" lon="-9.461001958698034">
        <ele>214.03</ele>
        <time>2025-05-04T16:21:29Z</time>
      </trkpt>
      <trkpt lat="38.75732003711164" lon="-9.460901962593198">
        <ele>214.03</ele>
        <time>2025-05-04T16:21:30Z</time>
      </trkpt>
      <trkpt lat="38.757367981597781" lon="-9.460814036428928">
        <ele>214.03</ele>
        <time>2025-05-04T16:21:31Z</time>
      </trkpt>
      <trkpt lat="38.757485998794436" lon="-9.460642039775848">
        <ele>214.03</ele>
        <time>2025-05-04T16:21:32Z</time>
      </trkpt>
      <trkpt lat="38.757576020434499" lon="-9.46058101952076">
        <ele>214.03</ele>
        <time>2025-05-04T16:21:33Z</time>
      </trkpt>
      <trkpt lat="38.757576020434499" lon="-9.46058101952076">
        <ele>214.03</ele>
        <time>2025-05-04T16:21:34Z</time>
      </trkpt>
      <trkpt lat="38.758625015616417" lon="-9.45998297072947">
        <ele>215.47</ele>
        <time>2025-05-04T16:21:45Z</time>
      </trkpt>
      <trkpt lat="38.758704978972673" lon="-9.459903007373214">
        <ele>215.47</ele>
        <time>2025-05-04T16:21:47Z</time>
      </trkpt>
      <trkpt lat="38.758757030591369" lon="-9.4597880076617">
        <ele>214.99000000000001</ele>
        <time>2025-05-04T16:21:48Z</time>
      </trkpt>
      <trkpt lat="38.758800029754639" lon="-9.459678959101439">
        <ele>214.99000000000001</ele>
        <time>2025-05-04T16:21:49Z</time>
      </trkpt>
      <trkpt lat="38.758800029754639" lon="-9.459560019895434">
        <ele>214.99000000000001</ele>
        <time>2025-05-04T16:21:50Z</time>
      </trkpt>
      <trkpt lat="38.758733980357647" lon="-9.459348963573575">
        <ele>214.99000000000001</ele>
        <time>2025-05-04T16:21:51Z</time>
      </trkpt>
      <trkpt lat="38.758733980357647" lon="-9.459348963573575">
        <ele>214.50999999999999</ele>
        <time>2025-05-04T16:21:52Z</time>
      </trkpt>
      <trkpt lat="38.758586039766669" lon="-9.45918601937592">
        <ele>214.50999999999999</ele>
        <time>2025-05-04T16:21:53Z</time>
      </trkpt>
      <trkpt lat="38.75846198759973" lon="-9.45918601937592">
        <ele>214.03</ele>
        <time>2025-05-04T16:21:54Z</time>
      </trkpt>
      <trkpt lat="38.75846198759973" lon="-9.45918601937592">
        <ele>214.03</ele>
        <time>2025-05-04T16:21:55Z</time>
      </trkpt>
      <trkpt lat="38.758231988176703" lon="-9.459231030195952">
        <ele>213.55000000000001</ele>
        <time>2025-05-04T16:21:56Z</time>
      </trkpt>
      <trkpt lat="38.758114976808429" lon="-9.459264976903796">
        <ele>212.59</ele>
        <time>2025-05-04T16:21:58Z</time>
      </trkpt>
      <trkpt lat="38.757891012355685" lon="-9.459290038794279">
        <ele>212.11000000000001</ele>
        <time>2025-05-04T16:21:59Z</time>
      </trkpt>
      <trkpt lat="38.757785987108946" lon="-9.459276963025332">
        <ele>211.63</ele>
        <time>2025-05-04T16:22:00Z</time>
      </trkpt>
      <trkpt lat="38.757785987108946" lon="-9.459276963025332">
        <ele>210.66999999999999</ele>
        <time>2025-05-04T16:22:01Z</time>
      </trkpt>
      <trkpt lat="38.757681967690587" lon="-9.459253996610642">
        <ele>210.19</ele>
        <time>2025-05-04T16:22:02Z</time>
      </trkpt>
      <trkpt lat="38.757516006007791" lon="-9.459111001342535">
        <ele>209.69999999999999</ele>
        <time>2025-05-04T16:22:03Z</time>
      </trkpt>
      <trkpt lat="38.757516006007791" lon="-9.459111001342535">
        <ele>209.22</ele>
        <time>2025-05-04T16:22:04Z</time>
      </trkpt>
      <trkpt lat="38.757434030994773" lon="-9.459032965824008">
        <ele>209.22</ele>
        <time>2025-05-04T16:22:05Z</time>
      </trkpt>
      <trkpt lat="38.756761969998479" lon="-9.4582200050354">
        <ele>206.34</ele>
        <time>2025-05-04T16:22:13Z</time>
      </trkpt>
      <trkpt lat="38.756582010537386" lon="-9.458012972027063">
        <ele>206.34</ele>
        <time>2025-05-04T16:22:14Z</time>
      </trkpt>
      <trkpt lat="38.756468016654253" lon="-9.4579610042274">
        <ele>206.34</ele>
        <time>2025-05-04T16:22:15Z</time>
      </trkpt>
      <trkpt lat="38.756468016654253" lon="-9.4579610042274">
        <ele>205.86000000000001</ele>
        <time>2025-05-04T16:22:16Z</time>
      </trkpt>
      <trkpt lat="38.756221001967788" lon="-9.457920016720891">
        <ele>205.86000000000001</ele>
        <time>2025-05-04T16:22:17Z</time>
      </trkpt>
      <trkpt lat="38.756098039448261" lon="-9.457921022549272">
        <ele>205.86000000000001</ele>
        <time>2025-05-04T16:22:18Z</time>
      </trkpt>
      <trkpt lat="38.755972981452942" lon="-9.457927979528904">
        <ele>204.90000000000001</ele>
        <time>2025-05-04T16:22:19Z</time>
      </trkpt>
      <trkpt lat="38.755972981452942" lon="-9.457927979528904">
        <ele>204.41999999999999</ele>
        <time>2025-05-04T16:22:20Z</time>
      </trkpt>
      <trkpt lat="38.755853036418557" lon="-9.457935020327568">
        <ele>203.94</ele>
        <time>2025-05-04T16:22:21Z</time>
      </trkpt>
      <trkpt lat="38.755639968439937" lon="-9.457872994244099">
        <ele>203.94</ele>
        <time>2025-05-04T16:22:22Z</time>
      </trkpt>
      <trkpt lat="38.7555399723351" lon="-9.457813985645771">
        <ele>203.46000000000001</ele>
        <time>2025-05-04T16:22:23Z</time>
      </trkpt>
      <trkpt lat="38.755467971786857" lon="-9.457699991762638">
        <ele>202.97999999999999</ele>
        <time>2025-05-04T16:22:24Z</time>
      </trkpt>
      <trkpt lat="38.755467971786857" lon="-9.457699991762638">
        <ele>202.00999999999999</ele>
        <time>2025-05-04T16:22:25Z</time>
      </trkpt>
      <trkpt lat="38.75532397069037" lon="-9.457468986511231">
        <ele>201.53</ele>
        <time>2025-05-04T16:22:26Z</time>
      </trkpt>
      <trkpt lat="38.755059018731117" lon="-9.456773959100246">
        <ele>197.69</ele>
        <time>2025-05-04T16:22:32Z</time>
      </trkpt>
      <trkpt lat="38.754997998476028" lon="-9.456692989915609">
        <ele>197.21000000000001</ele>
        <time>2025-05-04T16:22:33Z</time>
      </trkpt>
      <trkpt lat="38.754930021241307" lon="-9.456625012680888">
        <ele>196.25</ele>
        <time>2025-05-04T16:22:34Z</time>
      </trkpt>
      <trkpt lat="38.7548509798944" lon="-9.456604979932308">
        <ele>195.77000000000001</ele>
        <time>2025-05-04T16:22:35Z</time>
      </trkpt>
      <trkpt lat="38.75476598739624" lon="-9.456597017124295">
        <ele>194.80000000000001</ele>
        <time>2025-05-04T16:22:36Z</time>
      </trkpt>
      <trkpt lat="38.754660962149501" lon="-9.456599028781056">
        <ele>194.31999999999999</ele>
        <time>2025-05-04T16:22:37Z</time>
      </trkpt>
      <trkpt lat="38.754568006843328" lon="-9.456647979095578">
        <ele>193.84</ele>
        <time>2025-05-04T16:22:38Z</time>
      </trkpt>
      <trkpt lat="38.753340980038047" lon="-9.457355998456478">
        <ele>189.03999999999999</ele>
        <time>2025-05-04T16:22:50Z</time>
      </trkpt>
      <trkpt lat="38.753017019480467" lon="-9.457513997331262">
        <ele>188.56</ele>
        <time>2025-05-04T16:22:54Z</time>
      </trkpt>
      <trkpt lat="38.752920962870121" lon="-9.457533024251461">
        <ele>188.56</ele>
        <time>2025-05-04T16:22:55Z</time>
      </trkpt>
      <trkpt lat="38.752842005342245" lon="-9.457516008988023">
        <ele>188.56</ele>
        <time>2025-05-04T16:22:56Z</time>
      </trkpt>
      <trkpt lat="38.752842005342245" lon="-9.457516008988023">
        <ele>188.56</ele>
        <time>2025-05-04T16:22:57Z</time>
      </trkpt>
      <trkpt lat="38.752656010910869" lon="-9.457425987347961">
        <ele>188.08000000000001</ele>
        <time>2025-05-04T16:22:58Z</time>
      </trkpt>
      <trkpt lat="38.75257202424109" lon="-9.457350969314575">
        <ele>187.59</ele>
        <time>2025-05-04T16:22:59Z</time>
      </trkpt>
      <trkpt lat="38.752501029521227" lon="-9.457266982644796">
        <ele>187.11000000000001</ele>
        <time>2025-05-04T16:23:00Z</time>
      </trkpt>
      <trkpt lat="38.752455012872815" lon="-9.457150977104902">
        <ele>186.63</ele>
        <time>2025-05-04T16:23:01Z</time>
      </trkpt>
      <trkpt lat="38.752426011487842" lon="-9.457040000706911">
        <ele>186.15000000000001</ele>
        <time>2025-05-04T16:23:02Z</time>
      </trkpt>
      <trkpt lat="38.752426011487842" lon="-9.457041006535292">
        <ele>185.19</ele>
        <time>2025-05-04T16:23:03Z</time>
      </trkpt>
      <trkpt lat="38.752420982345939" lon="-9.456925000995398">
        <ele>184.22999999999999</ele>
        <time>2025-05-04T16:23:04Z</time>
      </trkpt>
      <trkpt lat="38.752416037023067" lon="-9.456815030425787">
        <ele>183.27000000000001</ele>
        <time>2025-05-04T16:23:05Z</time>
      </trkpt>
      <trkpt lat="38.752411007881165" lon="-9.456704976037145">
        <ele>182.78999999999999</ele>
        <time>2025-05-04T16:23:06Z</time>
      </trkpt>
      <trkpt lat="38.752405978739262" lon="-9.456588970497251">
        <ele>181.83000000000001</ele>
        <time>2025-05-04T16:23:07Z</time>
      </trkpt>
      <trkpt lat="38.752378989011049" lon="-9.456513030454516">
        <ele>181.34999999999999</ele>
        <time>2025-05-04T16:23:08Z</time>
      </trkpt>
      <trkpt lat="38.752156030386686" lon="-9.455869970843196">
        <ele>177.02000000000001</ele>
        <time>2025-05-04T16:23:15Z</time>
      </trkpt>
      <trkpt lat="38.752129040658474" lon="-9.45577098056674">
        <ele>176.53999999999999</ele>
        <time>2025-05-04T16:23:16Z</time>
      </trkpt>
      <trkpt lat="38.752105990424752" lon="-9.455674001947045">
        <ele>176.53999999999999</ele>
        <time>2025-05-04T16:23:17Z</time>
      </trkpt>
      <trkpt lat="38.752105990424752" lon="-9.455565037205815">
        <ele>176.06</ele>
        <time>2025-05-04T16:23:18Z</time>
      </trkpt>
      <trkpt lat="38.752105990424752" lon="-9.455454982817173">
        <ele>175.58000000000001</ele>
        <time>2025-05-04T16:23:19Z</time>
      </trkpt>
      <trkpt lat="38.752110013738275" lon="-9.455348029732704">
        <ele>175.09999999999999</ele>
        <time>2025-05-04T16:23:20Z</time>
      </trkpt>
      <trkpt lat="38.752134991809726" lon="-9.455241998657584">
        <ele>174.62</ele>
        <time>2025-05-04T16:23:21Z</time>
      </trkpt>
      <trkpt lat="38.75222803093493" lon="-9.454926000908017">
        <ele>172.69</ele>
        <time>2025-05-04T16:23:24Z</time>
      </trkpt>
      <trkpt lat="38.752664979547262" lon="-9.454130977392197">
        <ele>169.33000000000001</ele>
        <time>2025-05-04T16:23:32Z</time>
      </trkpt>
      <trkpt lat="38.752729017287493" lon="-9.454045984894037">
        <ele>169.33000000000001</ele>
        <time>2025-05-04T16:23:33Z</time>
      </trkpt>
      <trkpt lat="38.752988018095493" lon="-9.453696040436626">
        <ele>167.41</ele>
        <time>2025-05-04T16:23:37Z</time>
      </trkpt>
      <trkpt lat="38.753041997551918" lon="-9.45359998382628">
        <ele>166.93000000000001</ele>
        <time>2025-05-04T16:23:38Z</time>
      </trkpt>
      <trkpt lat="38.753090025857091" lon="-9.453505016863346">
        <ele>166.44999999999999</ele>
        <time>2025-05-04T16:23:39Z</time>
      </trkpt>
      <trkpt lat="38.753136964514852" lon="-9.453404014930129">
        <ele>165.96000000000001</ele>
        <time>2025-05-04T16:23:40Z</time>
      </trkpt>
      <trkpt lat="38.753151968121529" lon="-9.453290021046996">
        <ele>165.47999999999999</ele>
        <time>2025-05-04T16:23:41Z</time>
      </trkpt>
      <trkpt lat="38.753166971728206" lon="-9.453177032992244">
        <ele>165</ele>
        <time>2025-05-04T16:23:42Z</time>
      </trkpt>
      <trkpt lat="38.753160014748573" lon="-9.453060021623969">
        <ele>165</ele>
        <time>2025-05-04T16:23:43Z</time>
      </trkpt>
      <trkpt lat="38.753115003928542" lon="-9.452981986105442">
        <ele>165.47999999999999</ele>
        <time>2025-05-04T16:23:44Z</time>
      </trkpt>
      <trkpt lat="38.753070998936892" lon="-9.452907973900437">
        <ele>165.47999999999999</ele>
        <time>2025-05-04T16:23:45Z</time>
      </trkpt>
      <trkpt lat="38.753030011430383" lon="-9.452837985008955">
        <ele>165.47999999999999</ele>
        <time>2025-05-04T16:23:46Z</time>
      </trkpt>
      <trkpt lat="38.752472028136253" lon="-9.452197020873427">
        <ele>162.12</ele>
        <time>2025-05-04T16:23:55Z</time>
      </trkpt>
      <trkpt lat="38.752410002052784" lon="-9.452130971476436">
        <ele>160.68000000000001</ele>
        <time>2025-05-04T16:23:56Z</time>
      </trkpt>
      <trkpt lat="38.75235996209085" lon="-9.452056037262082">
        <ele>159.24000000000001</ele>
        <time>2025-05-04T16:23:57Z</time>
      </trkpt>
      <trkpt lat="38.75231796875596" lon="-9.451968027278781">
        <ele>157.78999999999999</ele>
        <time>2025-05-04T16:23:58Z</time>
      </trkpt>
      <trkpt lat="38.752292990684509" lon="-9.451866019517183">
        <ele>156.34999999999999</ele>
        <time>2025-05-04T16:23:59Z</time>
      </trkpt>
      <trkpt lat="38.752287039533257" lon="-9.451766023412347">
        <ele>155.38999999999999</ele>
        <time>2025-05-04T16:24:00Z</time>
      </trkpt>
      <trkpt lat="38.752312017604709" lon="-9.451667033135891">
        <ele>153.94999999999999</ele>
        <time>2025-05-04T16:24:01Z</time>
      </trkpt>
      <trkpt lat="38.752349987626076" lon="-9.451570976525545">
        <ele>152.99000000000001</ele>
        <time>2025-05-04T16:24:02Z</time>
      </trkpt>
      <trkpt lat="38.752398015931249" lon="-9.451470980420709">
        <ele>152.03</ele>
        <time>2025-05-04T16:24:03Z</time>
      </trkpt>
      <trkpt lat="38.752669002860785" lon="-9.45091400295496">
        <ele>147.69999999999999</ele>
        <time>2025-05-04T16:24:09Z</time>
      </trkpt>
      <trkpt lat="38.752712002024055" lon="-9.450826998800039">
        <ele>146.74000000000001</ele>
        <time>2025-05-04T16:24:10Z</time>
      </trkpt>
      <trkpt lat="38.752716025337577" lon="-9.450734965503216">
        <ele>146.74000000000001</ele>
        <time>2025-05-04T16:24:11Z</time>
      </trkpt>
      <trkpt lat="38.752687023952603" lon="-9.45059297606349">
        <ele>146.25999999999999</ele>
        <time>2025-05-04T16:24:12Z</time>
      </trkpt>
      <trkpt lat="38.752685012295842" lon="-9.450580989941955">
        <ele>145.78</ele>
        <time>2025-05-04T16:24:13Z</time>
      </trkpt>
      <trkpt lat="38.752685012295842" lon="-9.450580989941955">
        <ele>145.30000000000001</ele>
        <time>2025-05-04T16:24:14Z</time>
      </trkpt>
      <trkpt lat="38.752685012295842" lon="-9.450580989941955">
        <ele>144.81999999999999</ele>
        <time>2025-05-04T16:24:25Z</time>
      </trkpt>
      <trkpt lat="38.752685012295842" lon="-9.450580989941955">
        <ele>144.81999999999999</ele>
        <time>2025-05-04T16:24:33Z</time>
      </trkpt>
      <trkpt lat="38.752685012295842" lon="-9.450580989941955">
        <ele>144.81999999999999</ele>
        <time>2025-05-04T16:24:34Z</time>
      </trkpt>
      <trkpt lat="38.752716025337577" lon="-9.450327018275857">
        <ele>144.81999999999999</ele>
        <time>2025-05-04T16:24:35Z</time>
      </trkpt>
      <trkpt lat="38.752909982576966" lon="-9.450172036886215">
        <ele>143.37</ele>
        <time>2025-05-04T16:24:39Z</time>
      </trkpt>
      <trkpt lat="38.752963040024042" lon="-9.450123002752662">
        <ele>142.88999999999999</ele>
        <time>2025-05-04T16:24:40Z</time>
      </trkpt>
      <trkpt lat="38.753012996166945" lon="-9.450077991932631">
        <ele>141.93000000000001</ele>
        <time>2025-05-04T16:24:41Z</time>
      </trkpt>
      <trkpt lat="38.753070998936892" lon="-9.450023006647825">
        <ele>141.44999999999999</ele>
        <time>2025-05-04T16:24:42Z</time>
      </trkpt>
      <trkpt lat="38.753083990886807" lon="-9.449976989999414">
        <ele>140.97</ele>
        <time>2025-05-04T16:24:43Z</time>
      </trkpt>
      <trkpt lat="38.753100000321865" lon="-9.449919993057847">
        <ele>140.97</ele>
        <time>2025-05-04T16:24:44Z</time>
      </trkpt>
      <trkpt lat="38.753116009756923" lon="-9.449864001944661">
        <ele>140.49000000000001</ele>
        <time>2025-05-04T16:24:45Z</time>
      </trkpt>
      <trkpt lat="38.753130007535219" lon="-9.449812034144998">
        <ele>140.00999999999999</ele>
        <time>2025-05-04T16:24:46Z</time>
      </trkpt>
      <trkpt lat="38.753145011141896" lon="-9.449758976697922">
        <ele>139.53</ele>
        <time>2025-05-04T16:24:47Z</time>
      </trkpt>
      <trkpt lat="38.753162026405334" lon="-9.449698040261865">
        <ele>139.53</ele>
        <time>2025-05-04T16:24:48Z</time>
      </trkpt>
      <trkpt lat="38.753179041668773" lon="-9.449543980881572">
        <ele>139.05000000000001</ele>
        <time>2025-05-04T16:24:50Z</time>
      </trkpt>
      <trkpt lat="38.753179041668773" lon="-9.449269976466894">
        <ele>138.56999999999999</ele>
        <time>2025-05-04T16:24:53Z</time>
      </trkpt>
      <trkpt lat="38.753156997263432" lon="-9.449057998135686">
        <ele>138.56999999999999</ele>
        <time>2025-05-04T16:24:55Z</time>
      </trkpt>
      <trkpt lat="38.753141993656754" lon="-9.448968982324004">
        <ele>138.56999999999999</ele>
        <time>2025-05-04T16:24:56Z</time>
      </trkpt>
      <trkpt lat="38.753113998100162" lon="-9.448877032846212">
        <ele>138.56999999999999</ele>
        <time>2025-05-04T16:24:57Z</time>
      </trkpt>
      <trkpt lat="38.753077033907175" lon="-9.448792962357402">
        <ele>138.09</ele>
        <time>2025-05-04T16:24:58Z</time>
      </trkpt>
      <trkpt lat="38.753030011430383" lon="-9.448728002607822">
        <ele>138.56999999999999</ele>
        <time>2025-05-04T16:24:59Z</time>
      </trkpt>
      <trkpt lat="38.752985000610352" lon="-9.448673017323017">
        <ele>138.09</ele>
        <time>2025-05-04T16:25:00Z</time>
      </trkpt>
      <trkpt lat="38.752943007275462" lon="-9.448621971532702">
        <ele>138.09</ele>
        <time>2025-05-04T16:25:01Z</time>
      </trkpt>
      <trkpt lat="38.752943007275462" lon="-9.448621971532702">
        <ele>138.09</ele>
        <time>2025-05-04T16:25:02Z</time>
      </trkpt>
      <trkpt lat="38.752833036705852" lon="-9.448519963771105">
        <ele>137.61000000000001</ele>
        <time>2025-05-04T16:25:03Z</time>
      </trkpt>
      <trkpt lat="38.752833036705852" lon="-9.448519963771105">
        <ele>137.61000000000001</ele>
        <time>2025-05-04T16:25:04Z</time>
      </trkpt>
      <trkpt lat="38.752753995358944" lon="-9.448493979871273">
        <ele>138.09</ele>
        <time>2025-05-04T16:25:05Z</time>
      </trkpt>
      <trkpt lat="38.752675037831068" lon="-9.448479982092977">
        <ele>138.56999999999999</ele>
        <time>2025-05-04T16:25:06Z</time>
      </trkpt>
      <trkpt lat="38.752500023692846" lon="-9.448466990143061">
        <ele>138.56999999999999</ele>
        <time>2025-05-04T16:25:07Z</time>
      </trkpt>
      <trkpt lat="38.752499017864466" lon="-9.448466990143061">
        <ele>139.53</ele>
        <time>2025-05-04T16:25:08Z</time>
      </trkpt>
      <trkpt lat="38.752233982086182" lon="-9.448543014004827">
        <ele>140.49000000000001</ele>
        <time>2025-05-04T16:25:11Z</time>
      </trkpt>
      <trkpt lat="38.751763002946973" lon="-9.448761027306318">
        <ele>140.97</ele>
        <time>2025-05-04T16:25:18Z</time>
      </trkpt>
      <trkpt lat="38.751666024327278" lon="-9.448814000934362">
        <ele>141.44999999999999</ele>
        <time>2025-05-04T16:25:19Z</time>
      </trkpt>
      <trkpt lat="38.750441009178758" lon="-9.449212979525328">
        <ele>138.56999999999999</ele>
        <time>2025-05-04T16:25:28Z</time>
      </trkpt>
      <trkpt lat="38.749133013188839" lon="-9.449261007830501">
        <ele>130.88</ele>
        <time>2025-05-04T16:25:39Z</time>
      </trkpt>
      <trkpt lat="38.748113019391894" lon="-9.449418000876904">
        <ele>126.06999999999999</ele>
        <time>2025-05-04T16:25:48Z</time>
      </trkpt>
      <trkpt lat="38.747813031077385" lon="-9.449502993375063">
        <ele>125.11</ele>
        <time>2025-05-04T16:25:51Z</time>
      </trkpt>
      <trkpt lat="38.747710017487407" lon="-9.449530988931656">
        <ele>124.63</ele>
        <time>2025-05-04T16:25:52Z</time>
      </trkpt>
      <trkpt lat="38.74760901555419" lon="-9.449557978659868">
        <ele>124.15000000000001</ele>
        <time>2025-05-04T16:25:53Z</time>
      </trkpt>
      <trkpt lat="38.746530013158917" lon="-9.449864001944661">
        <ele>120.3</ele>
        <time>2025-05-04T16:26:02Z</time>
      </trkpt>
      <trkpt lat="38.745668018236756" lon="-9.450115961953998">
        <ele>116.94</ele>
        <time>2025-05-04T16:26:06Z</time>
      </trkpt>
      <trkpt lat="38.744210992008448" lon="-9.450610997155309">
        <ele>110.20999999999999</ele>
        <time>2025-05-04T16:26:13Z</time>
      </trkpt>
      <trkpt lat="38.743211030960083" lon="-9.451178032904863">
        <ele>104.92</ele>
        <time>2025-05-04T16:26:20Z</time>
      </trkpt>
      <trkpt lat="38.742824960500002" lon="-9.451320022344589">
        <ele>103.48</ele>
        <time>2025-05-04T16:26:22Z</time>
      </trkpt>
      <trkpt lat="38.742234036326408" lon="-9.451639037579298">
        <ele>99.150000000000006</ele>
        <time>2025-05-04T16:26:29Z</time>
      </trkpt>
      <trkpt lat="38.742143008857965" lon="-9.4516889937222">
        <ele>98.189999999999998</ele>
        <time>2025-05-04T16:26:30Z</time>
      </trkpt>
      <trkpt lat="38.742056004703045" lon="-9.451691005378962">
        <ele>97.709999999999994</ele>
        <time>2025-05-04T16:26:31Z</time>
      </trkpt>
      <trkpt lat="38.74196195974946" lon="-9.451682958751917">
        <ele>97.230000000000004</ele>
        <time>2025-05-04T16:26:32Z</time>
      </trkpt>
      <trkpt lat="38.741862969473004" lon="-9.451671978458762">
        <ele>96.269999999999996</ele>
        <time>2025-05-04T16:26:33Z</time>
      </trkpt>
      <trkpt lat="38.741769008338451" lon="-9.451628979295492">
        <ele>95.790000000000006</ele>
        <time>2025-05-04T16:26:34Z</time>
      </trkpt>
      <trkpt lat="38.741136007010937" lon="-9.451198987662792">
        <ele>92.900000000000006</ele>
        <time>2025-05-04T16:26:41Z</time>
      </trkpt>
      <trkpt lat="38.740202011540532" lon="-9.450336992740631">
        <ele>89.540000000000006</ele>
        <time>2025-05-04T16:26:50Z</time>
      </trkpt>
      <trkpt lat="38.738883035257459" lon="-9.449890991672874">
        <ele>94.349999999999994</ele>
        <time>2025-05-04T16:27:00Z</time>
      </trkpt>
      <trkpt lat="38.738738028332591" lon="-9.449852015823126">
        <ele>94.829999999999998</ele>
        <time>2025-05-04T16:27:01Z</time>
      </trkpt>
      <trkpt lat="38.738605007529259" lon="-9.449752019718289">
        <ele>95.790000000000006</ele>
        <time>2025-05-04T16:27:02Z</time>
      </trkpt>
      <trkpt lat="38.737503960728645" lon="-9.448917014524341">
        <ele>100.11</ele>
        <time>2025-05-04T16:27:11Z</time>
      </trkpt>
      <trkpt lat="38.736332003027201" lon="-9.448159039020538">
        <ele>103</ele>
        <time>2025-05-04T16:27:21Z</time>
      </trkpt>
      <trkpt lat="38.736211974173784" lon="-9.448089972138405">
        <ele>103</ele>
        <time>2025-05-04T16:27:22Z</time>
      </trkpt>
      <trkpt lat="38.7358140014112" lon="-9.448029035702348">
        <ele>103.95999999999999</ele>
        <time>2025-05-04T16:27:25Z</time>
      </trkpt>
      <trkpt lat="38.735676035284996" lon="-9.448000034317374">
        <ele>103.95999999999999</ele>
        <time>2025-05-04T16:27:26Z</time>
      </trkpt>
      <trkpt lat="38.734467029571533" lon="-9.447636008262634">
        <ele>102.04000000000001</ele>
        <time>2025-05-04T16:27:36Z</time>
      </trkpt>
      <trkpt lat="38.733394984155893" lon="-9.447211967781186">
        <ele>98.189999999999998</ele>
        <time>2025-05-04T16:27:46Z</time>
      </trkpt>
      <trkpt lat="38.732709009200335" lon="-9.446494979783893">
        <ele>95.790000000000006</ele>
        <time>2025-05-04T16:27:55Z</time>
      </trkpt>
      <trkpt lat="38.731932006776333" lon="-9.445556038990617">
        <ele>97.709999999999994</ele>
        <time>2025-05-04T16:28:07Z</time>
      </trkpt>
      <trkpt lat="38.731857994571328" lon="-9.445492001250386">
        <ele>98.189999999999998</ele>
        <time>2025-05-04T16:28:08Z</time>
      </trkpt>
      <trkpt lat="38.731780964881182" lon="-9.445425029844046">
        <ele>98.670000000000002</ele>
        <time>2025-05-04T16:28:09Z</time>
      </trkpt>
      <trkpt lat="38.731612991541624" lon="-9.445344982668757">
        <ele>99.629999999999995</ele>
        <time>2025-05-04T16:28:11Z</time>
      </trkpt>
      <trkpt lat="38.731520036235452" lon="-9.445305000990629">
        <ele>100.11</ele>
        <time>2025-05-04T16:28:12Z</time>
      </trkpt>
      <trkpt lat="38.730687964707613" lon="-9.445094028487802">
        <ele>103.48</ele>
        <time>2025-05-04T16:28:21Z</time>
      </trkpt>
      <trkpt lat="38.730627028271556" lon="-9.445087993517518">
        <ele>104.44</ele>
        <time>2025-05-04T16:28:22Z</time>
      </trkpt>
      <trkpt lat="38.729896964505315" lon="-9.444808959960938">
        <ele>106.84</ele>
        <time>2025-05-04T16:28:30Z</time>
      </trkpt>
      <trkpt lat="38.728772029280663" lon="-9.444257011637092">
        <ele>100.59999999999999</ele>
        <time>2025-05-04T16:28:42Z</time>
      </trkpt>
      <trkpt lat="38.727532010525465" lon="-9.443658040836453">
        <ele>93.870000000000005</ele>
        <time>2025-05-04T16:28:55Z</time>
      </trkpt>
      <trkpt lat="38.72743503190577" lon="-9.443641025573015">
        <ele>93.870000000000005</ele>
        <time>2025-05-04T16:28:56Z</time>
      </trkpt>
      <trkpt lat="38.726864978671074" lon="-9.44362903945148">
        <ele>91.939999999999998</ele>
        <time>2025-05-04T16:29:02Z</time>
      </trkpt>
      <trkpt lat="38.726775962859392" lon="-9.44362903945148">
        <ele>91.939999999999998</ele>
        <time>2025-05-04T16:29:03Z</time>
      </trkpt>
      <trkpt lat="38.725984962657094" lon="-9.44345997646451">
        <ele>90.019999999999996</ele>
        <time>2025-05-04T16:29:11Z</time>
      </trkpt>
      <trkpt lat="38.725798968225718" lon="-9.443393005058169">
        <ele>90.019999999999996</ele>
        <time>2025-05-04T16:29:14Z</time>
      </trkpt>
      <trkpt lat="38.725727973505855" lon="-9.443375989794731">
        <ele>90.019999999999996</ele>
        <time>2025-05-04T16:29:15Z</time>
      </trkpt>
      <trkpt lat="38.725605010986328" lon="-9.443499958142638">
        <ele>90.019999999999996</ele>
        <time>2025-05-04T16:29:16Z</time>
      </trkpt>
      <trkpt lat="38.725557988509536" lon="-9.443484032526612">
        <ele>90.019999999999996</ele>
        <time>2025-05-04T16:29:17Z</time>
      </trkpt>
      <trkpt lat="38.725484982132912" lon="-9.44345997646451">
        <ele>90.019999999999996</ele>
        <time>2025-05-04T16:29:18Z</time>
      </trkpt>
      <trkpt lat="38.725484982132912" lon="-9.44345997646451">
        <ele>90.019999999999996</ele>
        <time>2025-05-04T16:29:19Z</time>
      </trkpt>
      <trkpt lat="38.725431002676487" lon="-9.443302983418107">
        <ele>90.5</ele>
        <time>2025-05-04T16:29:20Z</time>
      </trkpt>
      <trkpt lat="38.725261017680168" lon="-9.443267025053501">
        <ele>90.5</ele>
        <time>2025-05-04T16:29:21Z</time>
      </trkpt>
      <trkpt lat="38.725178958848119" lon="-9.443243974819779">
        <ele>90.980000000000004</ele>
        <time>2025-05-04T16:29:22Z</time>
      </trkpt>
      <trkpt lat="38.725101007148623" lon="-9.443221008405089">
        <ele>91.459999999999994</ele>
        <time>2025-05-04T16:29:23Z</time>
      </trkpt>
      <trkpt lat="38.725024983286858" lon="-9.443199969828129">
        <ele>91.459999999999994</ele>
        <time>2025-05-04T16:29:24Z</time>
      </trkpt>
      <trkpt lat="38.724950971081853" lon="-9.443184966221452">
        <ele>91.459999999999994</ele>
        <time>2025-05-04T16:29:25Z</time>
      </trkpt>
      <trkpt lat="38.724878970533609" lon="-9.443166023120284">
        <ele>91.939999999999998</ele>
        <time>2025-05-04T16:29:26Z</time>
      </trkpt>
      <trkpt lat="38.724592979997396" lon="-9.443077007308602">
        <ele>92.900000000000006</ele>
        <time>2025-05-04T16:29:31Z</time>
      </trkpt>
      <trkpt lat="38.724547969177365" lon="-9.443063009530306">
        <ele>93.390000000000001</ele>
        <time>2025-05-04T16:29:33Z</time>
      </trkpt>
      <trkpt lat="38.724444033578038" lon="-9.443031996488571">
        <ele>93.870000000000005</ele>
        <time>2025-05-04T16:29:35Z</time>
      </trkpt>
      <trkpt lat="38.724382007494569" lon="-9.443012969568372">
        <ele>93.870000000000005</ele>
        <time>2025-05-04T16:29:36Z</time>
      </trkpt>
      <trkpt lat="38.724329033866525" lon="-9.442993020638824">
        <ele>93.870000000000005</ele>
        <time>2025-05-04T16:29:37Z</time>
      </trkpt>
      <trkpt lat="38.72416902333498" lon="-9.442919008433819">
        <ele>94.349999999999994</ele>
        <time>2025-05-04T16:29:40Z</time>
      </trkpt>
      <trkpt lat="38.724082019180059" lon="-9.442870980128646">
        <ele>94.349999999999994</ele>
        <time>2025-05-04T16:29:42Z</time>
      </trkpt>
      <trkpt lat="38.723361007869244" lon="-9.442464038729668">
        <ele>95.310000000000002</ele>
        <time>2025-05-04T16:29:54Z</time>
      </trkpt>
      <trkpt lat="38.722374038770795" lon="-9.442015020176768">
        <ele>93.870000000000005</ele>
        <time>2025-05-04T16:30:05Z</time>
      </trkpt>
      <trkpt lat="38.722290974110365" lon="-9.441980989649892">
        <ele>93.390000000000001</ele>
        <time>2025-05-04T16:30:06Z</time>
      </trkpt>
      <trkpt lat="38.722205981612206" lon="-9.441969003528357">
        <ele>93.390000000000001</ele>
        <time>2025-05-04T16:30:07Z</time>
      </trkpt>
      <trkpt lat="38.721402995288372" lon="-9.441914018243551">
        <ele>90.5</ele>
        <time>2025-05-04T16:30:14Z</time>
      </trkpt>
      <trkpt lat="38.721289001405239" lon="-9.441952994093299">
        <ele>90.5</ele>
        <time>2025-05-04T16:30:15Z</time>
      </trkpt>
      <trkpt lat="38.721105018630624" lon="-9.442079979926348">
        <ele>90.019999999999996</ele>
        <time>2025-05-04T16:30:16Z</time>
      </trkpt>
      <trkpt lat="38.721039975062013" lon="-9.442181987687945">
        <ele>89.540000000000006</ele>
        <time>2025-05-04T16:30:17Z</time>
      </trkpt>
      <trkpt lat="38.720976021140814" lon="-9.442290030419827">
        <ele>89.060000000000002</ele>
        <time>2025-05-04T16:30:18Z</time>
      </trkpt>
      <trkpt lat="38.720907960087061" lon="-9.442425984889269">
        <ele>88.099999999999994</ele>
        <time>2025-05-04T16:30:19Z</time>
      </trkpt>
      <trkpt lat="38.720922041684389" lon="-9.442550959065557">
        <ele>86.659999999999997</ele>
        <time>2025-05-04T16:30:20Z</time>
      </trkpt>
      <trkpt lat="38.720966968685389" lon="-9.442678028717637">
        <ele>86.180000000000007</ele>
        <time>2025-05-04T16:30:21Z</time>
      </trkpt>
      <trkpt lat="38.721013991162181" lon="-9.442770984023809">
        <ele>85.689999999999998</ele>
        <time>2025-05-04T16:30:22Z</time>
      </trkpt>
      <trkpt lat="38.721122033894062" lon="-9.442852037027478">
        <ele>85.689999999999998</ele>
        <time>2025-05-04T16:30:23Z</time>
      </trkpt>
      <trkpt lat="38.721214989200234" lon="-9.442902998998761">
        <ele>85.689999999999998</ele>
        <time>2025-05-04T16:30:24Z</time>
      </trkpt>
      <trkpt lat="38.721321020275354" lon="-9.442919008433819">
        <ele>86.180000000000007</ele>
        <time>2025-05-04T16:30:25Z</time>
      </trkpt>
      <trkpt lat="38.721426967531443" lon="-9.442881960421801">
        <ele>86.659999999999997</ele>
        <time>2025-05-04T16:30:26Z</time>
      </trkpt>
      <trkpt lat="38.721520006656647" lon="-9.442813983187079">
        <ele>86.659999999999997</ele>
        <time>2025-05-04T16:30:27Z</time>
      </trkpt>
      <trkpt lat="38.721588989719748" lon="-9.442711975425482">
        <ele>87.140000000000001</ele>
        <time>2025-05-04T16:30:28Z</time>
      </trkpt>
      <trkpt lat="38.721647998318076" lon="-9.442587001249194">
        <ele>87.140000000000001</ele>
        <time>2025-05-04T16:30:29Z</time>
      </trkpt>
      <trkpt lat="38.721709018573165" lon="-9.442459009587765">
        <ele>87.620000000000005</ele>
        <time>2025-05-04T16:30:30Z</time>
      </trkpt>
      <trkpt lat="38.721770038828254" lon="-9.442311991006136">
        <ele>87.620000000000005</ele>
        <time>2025-05-04T16:30:31Z</time>
      </trkpt>
      <trkpt lat="38.72206499800086" lon="-9.440349033102393">
        <ele>89.540000000000006</ele>
        <time>2025-05-04T16:30:42Z</time>
      </trkpt>
      <trkpt lat="38.722446039319038" lon="-9.438557988032699">
        <ele>91.459999999999994</ele>
        <time>2025-05-04T16:30:52Z</time>
      </trkpt>
      <trkpt lat="38.723056996241212" lon="-9.436520012095571">
        <ele>91.459999999999994</ele>
        <time>2025-05-04T16:31:03Z</time>
      </trkpt>
      <trkpt lat="38.723640963435173" lon="-9.434452028945088">
        <ele>89.540000000000006</ele>
        <time>2025-05-04T16:31:13Z</time>
      </trkpt>
      <trkpt lat="38.724419977515936" lon="-9.43174903281033">
        <ele>86.180000000000007</ele>
        <time>2025-05-04T16:31:25Z</time>
      </trkpt>
      <trkpt lat="38.725419016554952" lon="-9.42831102758646">
        <ele>95.310000000000002</ele>
        <time>2025-05-04T16:31:40Z</time>
      </trkpt>
      <trkpt lat="38.72623398900032" lon="-9.425512980669737">
        <ele>103.95999999999999</ele>
        <time>2025-05-04T16:31:52Z</time>
      </trkpt>
      <trkpt lat="38.726991964504123" lon="-9.422826999798417">
        <ele>110.69</ele>
        <time>2025-05-04T16:32:03Z</time>
      </trkpt>
      <trkpt lat="38.727235961705446" lon="-9.421190014109016">
        <ele>115.01000000000001</ele>
        <time>2025-05-04T16:32:10Z</time>
      </trkpt>
      <trkpt lat="38.727138983085752" lon="-9.419627962633967">
        <ele>116.45999999999999</ele>
        <time>2025-05-04T16:32:18Z</time>
      </trkpt>
      <trkpt lat="38.726901020854712" lon="-9.418991021811962">
        <ele>116.94</ele>
        <time>2025-05-04T16:32:21Z</time>
      </trkpt>
      <trkpt lat="38.726836983114481" lon="-9.418824976310134">
        <ele>116.94</ele>
        <time>2025-05-04T16:32:22Z</time>
      </trkpt>
      <trkpt lat="38.726765988394618" lon="-9.418662032112479">
        <ele>116.94</ele>
        <time>2025-05-04T16:32:23Z</time>
      </trkpt>
      <trkpt lat="38.726671021431684" lon="-9.418502021580935">
        <ele>117.42</ele>
        <time>2025-05-04T16:32:24Z</time>
      </trkpt>
      <trkpt lat="38.726572031155229" lon="-9.418336981907487">
        <ele>117.42</ele>
        <time>2025-05-04T16:32:25Z</time>
      </trkpt>
      <trkpt lat="38.725990997627378" lon="-9.417320005595684">
        <ele>122.70999999999999</ele>
        <time>2025-05-04T16:32:32Z</time>
      </trkpt>
      <trkpt lat="38.725926959887147" lon="-9.417171981185675">
        <ele>123.19</ele>
        <time>2025-05-04T16:32:33Z</time>
      </trkpt>
      <trkpt lat="38.725883960723877" lon="-9.417024040594697">
        <ele>123.67</ele>
        <time>2025-05-04T16:32:34Z</time>
      </trkpt>
      <trkpt lat="38.725883960723877" lon="-9.416877022013068">
        <ele>124.15000000000001</ele>
        <time>2025-05-04T16:32:35Z</time>
      </trkpt>
      <trkpt lat="38.725883960723877" lon="-9.416741989552975">
        <ele>124.63</ele>
        <time>2025-05-04T16:32:36Z</time>
      </trkpt>
      <trkpt lat="38.725944980978966" lon="-9.416597988456488">
        <ele>124.63</ele>
        <time>2025-05-04T16:32:37Z</time>
      </trkpt>
      <trkpt lat="38.725999966263771" lon="-9.416474020108581">
        <ele>124.63</ele>
        <time>2025-05-04T16:32:38Z</time>
      </trkpt>
      <trkpt lat="38.726076995953918" lon="-9.416367989033461">
        <ele>125.11</ele>
        <time>2025-05-04T16:32:39Z</time>
      </trkpt>
      <trkpt lat="38.726155031472445" lon="-9.416260030120611">
        <ele>124.63</ele>
        <time>2025-05-04T16:32:40Z</time>
      </trkpt>
      <trkpt lat="38.726269025355577" lon="-9.416190041229129">
        <ele>124.63</ele>
        <time>2025-05-04T16:32:41Z</time>
      </trkpt>
      <trkpt lat="38.726388970389962" lon="-9.416133966296911">
        <ele>124.15000000000001</ele>
        <time>2025-05-04T16:32:42Z</time>
      </trkpt>
      <trkpt lat="38.726519979536533" lon="-9.416102031245828">
        <ele>123.19</ele>
        <time>2025-05-04T16:32:43Z</time>
      </trkpt>
      <trkpt lat="38.726659035310149" lon="-9.416069006547332">
        <ele>122.22</ele>
        <time>2025-05-04T16:32:44Z</time>
      </trkpt>
      <trkpt lat="38.727768966928124" lon="-9.415700035169721">
        <ele>115.5</ele>
        <time>2025-05-04T16:32:51Z</time>
      </trkpt>
      <trkpt lat="38.728842018172145" lon="-9.415373979136348">
        <ele>114.53</ele>
        <time>2025-05-04T16:32:57Z</time>
      </trkpt>
      <trkpt lat="38.730317987501621" lon="-9.41556902602315">
        <ele>116.94</ele>
        <time>2025-05-04T16:33:04Z</time>
      </trkpt>
      <trkpt lat="38.731848020106554" lon="-9.415752002969384">
        <ele>124.15000000000001</ele>
        <time>2025-05-04T16:33:12Z</time>
      </trkpt>
      <trkpt lat="38.733155010268092" lon="-9.415238024666905">
        <ele>129.43000000000001</ele>
        <time>2025-05-04T16:33:18Z</time>
      </trkpt>
      <trkpt lat="38.734198976308107" lon="-9.41400496289134">
        <ele>130.40000000000001</ele>
        <time>2025-05-04T16:33:24Z</time>
      </trkpt>
      <trkpt lat="38.736204011365771" lon="-9.410829981788993">
        <ele>122.22</ele>
        <time>2025-05-04T16:33:36Z</time>
      </trkpt>
      <trkpt lat="38.737305980175734" lon="-9.40874096006155">
        <ele>128.47</ele>
        <time>2025-05-04T16:33:45Z</time>
      </trkpt>
      <trkpt lat="38.738251961767673" lon="-9.405282000079751">
        <ele>139.53</ele>
        <time>2025-05-04T16:33:56Z</time>
      </trkpt>
      <trkpt lat="38.739488963037729" lon="-9.40061504021287">
        <ele>144.81999999999999</ele>
        <time>2025-05-04T16:34:12Z</time>
      </trkpt>
      <trkpt lat="38.740469980984926" lon="-9.396949969232082">
        <ele>146.74000000000001</ele>
        <time>2025-05-04T16:34:25Z</time>
      </trkpt>
      <trkpt lat="38.741305992007256" lon="-9.395086001604796">
        <ele>145.30000000000001</ele>
        <time>2025-05-04T16:34:32Z</time>
      </trkpt>
      <trkpt lat="38.742378037422895" lon="-9.393710028380156">
        <ele>142.41</ele>
        <time>2025-05-04T16:34:39Z</time>
      </trkpt>
      <trkpt lat="38.744042012840509" lon="-9.392594983801246">
        <ele>137.61000000000001</ele>
        <time>2025-05-04T16:34:47Z</time>
      </trkpt>
      <trkpt lat="38.746740985661745" lon="-9.391186991706491">
        <ele>136.16</ele>
        <time>2025-05-04T16:34:59Z</time>
      </trkpt>
      <trkpt lat="38.749482035636902" lon="-9.389813030138612">
        <ele>141.93000000000001</ele>
        <time>2025-05-04T16:35:11Z</time>
      </trkpt>
      <trkpt lat="38.751367041841149" lon="-9.388774009421468">
        <ele>143.84999999999999</ele>
        <time>2025-05-04T16:35:21Z</time>
      </trkpt>
      <trkpt lat="38.751974981278181" lon="-9.388416018337011">
        <ele>149.62</ele>
        <time>2025-05-04T16:35:27Z</time>
      </trkpt>
      <trkpt lat="38.752137003466487" lon="-9.388302024453878">
        <ele>150.58000000000001</ele>
        <time>2025-05-04T16:35:29Z</time>
      </trkpt>
      <trkpt lat="38.752214033156633" lon="-9.38824201002717">
        <ele>151.06</ele>
        <time>2025-05-04T16:35:30Z</time>
      </trkpt>
      <trkpt lat="38.752377983182669" lon="-9.388094991445541">
        <ele>151.06</ele>
        <time>2025-05-04T16:35:32Z</time>
      </trkpt>
      <trkpt lat="38.752455012872815" lon="-9.38800698146224">
        <ele>151.06</ele>
        <time>2025-05-04T16:35:33Z</time>
      </trkpt>
      <trkpt lat="38.752554003149271" lon="-9.387951996177435">
        <ele>151.06</ele>
        <time>2025-05-04T16:35:34Z</time>
      </trkpt>
      <trkpt lat="38.752647964283824" lon="-9.387910002842546">
        <ele>151.06</ele>
        <time>2025-05-04T16:35:35Z</time>
      </trkpt>
      <trkpt lat="38.752755001187325" lon="-9.387926012277603">
        <ele>151.06</ele>
        <time>2025-05-04T16:35:36Z</time>
      </trkpt>
      <trkpt lat="38.752857008948922" lon="-9.387951996177435">
        <ele>151.53999999999999</ele>
        <time>2025-05-04T16:35:37Z</time>
      </trkpt>
      <trkpt lat="38.752952981740236" lon="-9.387994995340705">
        <ele>151.53999999999999</ele>
        <time>2025-05-04T16:35:38Z</time>
      </trkpt>
      <trkpt lat="38.753037974238396" lon="-9.388068001717329">
        <ele>152.03</ele>
        <time>2025-05-04T16:35:39Z</time>
      </trkpt>
      <trkpt lat="38.753106035292149" lon="-9.388159029185772">
        <ele>152.03</ele>
        <time>2025-05-04T16:35:40Z</time>
      </trkpt>
      <trkpt lat="38.753163032233715" lon="-9.38826103694737">
        <ele>152.50999999999999</ele>
        <time>2025-05-04T16:35:41Z</time>
      </trkpt>
      <trkpt lat="38.753190021961927" lon="-9.388378970324993">
        <ele>152.50999999999999</ele>
        <time>2025-05-04T16:35:42Z</time>
      </trkpt>
      <trkpt lat="38.753199996426702" lon="-9.388461029157043">
        <ele>152.50999999999999</ele>
        <time>2025-05-04T16:35:43Z</time>
      </trkpt>
      <trkpt lat="38.753199996426702" lon="-9.38860603608191">
        <ele>152.99000000000001</ele>
        <time>2025-05-04T16:35:44Z</time>
      </trkpt>
      <trkpt lat="38.753199996426702" lon="-9.388696979731321">
        <ele>152.99000000000001</ele>
        <time>2025-05-04T16:35:45Z</time>
      </trkpt>
      <trkpt lat="38.753163032233715" lon="-9.388809967786074">
        <ele>152.99000000000001</ele>
        <time>2025-05-04T16:35:46Z</time>
      </trkpt>
      <trkpt lat="38.753135958686471" lon="-9.388890014961362">
        <ele>152.99000000000001</ele>
        <time>2025-05-04T16:35:47Z</time>
      </trkpt>
      <trkpt lat="38.753135958686471" lon="-9.388890014961362">
        <ele>152.50999999999999</ele>
        <time>2025-05-04T16:35:48Z</time>
      </trkpt>
      <trkpt lat="38.753059012815356" lon="-9.388983976095915">
        <ele>152.50999999999999</ele>
        <time>2025-05-04T16:35:49Z</time>
      </trkpt>
      <trkpt lat="38.753104023635387" lon="-9.389248006045818">
        <ele>152.03</ele>
        <time>2025-05-04T16:35:50Z</time>
      </trkpt>
      <trkpt lat="38.753142999485135" lon="-9.389277007430792">
        <ele>152.03</ele>
        <time>2025-05-04T16:35:51Z</time>
      </trkpt>
      <trkpt lat="38.753191027790308" lon="-9.389312965795398">
        <ele>152.03</ele>
        <time>2025-05-04T16:35:52Z</time>
      </trkpt>
      <trkpt lat="38.753265962004662" lon="-9.389313971623778">
        <ele>151.53999999999999</ele>
        <time>2025-05-04T16:35:53Z</time>
      </trkpt>
      <trkpt lat="38.753328993916512" lon="-9.389308020472527">
        <ele>151.53999999999999</ele>
        <time>2025-05-04T16:35:54Z</time>
      </trkpt>
      <trkpt lat="38.753397976979613" lon="-9.389301985502243">
        <ele>151.53999999999999</ele>
        <time>2025-05-04T16:35:55Z</time>
      </trkpt>
      <trkpt lat="38.754350999370217" lon="-9.38899302855134">
        <ele>152.99000000000001</ele>
        <time>2025-05-04T16:36:05Z</time>
      </trkpt>
      <trkpt lat="38.755468977615237" lon="-9.388617016375065">
        <ele>154.43000000000001</ele>
        <time>2025-05-04T16:36:16Z</time>
      </trkpt>
      <trkpt lat="38.755651032552123" lon="-9.388548033311963">
        <ele>154.43000000000001</ele>
        <time>2025-05-04T16:36:17Z</time>
      </trkpt>
      <trkpt lat="38.755729990079999" lon="-9.388514002785087">
        <ele>154.43000000000001</ele>
        <time>2025-05-04T16:36:18Z</time>
      </trkpt>
      <trkpt lat="38.755785981193185" lon="-9.388388022780418">
        <ele>154.43000000000001</ele>
        <time>2025-05-04T16:36:20Z</time>
      </trkpt>
      <trkpt lat="38.755939034745097" lon="-9.388353992253542">
        <ele>154.43000000000001</ele>
        <time>2025-05-04T16:36:21Z</time>
      </trkpt>
      <trkpt lat="38.755939034745097" lon="-9.388352986425161">
        <ele>154.43000000000001</ele>
        <time>2025-05-04T16:36:22Z</time>
      </trkpt>
      <trkpt lat="38.755968036130071" lon="-9.388375030830503">
        <ele>154.43000000000001</ele>
        <time>2025-05-04T16:36:23Z</time>
      </trkpt>
      <trkpt lat="38.756121005862951" lon="-9.388446025550365">
        <ele>154.43000000000001</ele>
        <time>2025-05-04T16:36:24Z</time>
      </trkpt>
      <trkpt lat="38.756303982809186" lon="-9.388374025002122">
        <ele>153.94999999999999</ele>
        <time>2025-05-04T16:36:25Z</time>
      </trkpt>
      <trkpt lat="38.756304988637567" lon="-9.388374025002122">
        <ele>154.43000000000001</ele>
        <time>2025-05-04T16:36:26Z</time>
      </trkpt>
      <trkpt lat="38.756408002227545" lon="-9.388329014182091">
        <ele>154.43000000000001</ele>
        <time>2025-05-04T16:36:27Z</time>
      </trkpt>
      <trkpt lat="38.757700994610786" lon="-9.387894999235869">
        <ele>153.94999999999999</ele>
        <time>2025-05-04T16:36:37Z</time>
      </trkpt>
      <trkpt lat="38.759932005777955" lon="-9.387160995975137">
        <ele>169.81</ele>
        <time>2025-05-04T16:36:56Z</time>
      </trkpt>
      <trkpt lat="38.761568991467357" lon="-9.386616004630923">
        <ele>180.38</ele>
        <time>2025-05-04T16:37:10Z</time>
      </trkpt>
      <trkpt lat="38.761676028370857" lon="-9.386579962447286">
        <ele>180.87</ele>
        <time>2025-05-04T16:37:11Z</time>
      </trkpt>
      <trkpt lat="38.761762026697397" lon="-9.386422969400883">
        <ele>182.31</ele>
        <time>2025-05-04T16:37:13Z</time>
      </trkpt>
      <trkpt lat="38.761866968125105" lon="-9.386421963572502">
        <ele>182.78999999999999</ele>
        <time>2025-05-04T16:37:14Z</time>
      </trkpt>
      <trkpt lat="38.761868979781866" lon="-9.386422969400883">
        <ele>183.27000000000001</ele>
        <time>2025-05-04T16:37:15Z</time>
      </trkpt>
      <trkpt lat="38.762028990313411" lon="-9.386512991040945">
        <ele>183.75</ele>
        <time>2025-05-04T16:37:16Z</time>
      </trkpt>
      <trkpt lat="38.762119011953473" lon="-9.386477032676339">
        <ele>184.22999999999999</ele>
        <time>2025-05-04T16:37:17Z</time>
      </trkpt>
      <trkpt lat="38.762228982523084" lon="-9.38643503934145">
        <ele>184.71000000000001</ele>
        <time>2025-05-04T16:37:18Z</time>
      </trkpt>
      <trkpt lat="38.762353034690022" lon="-9.386389022693038">
        <ele>185.19</ele>
        <time>2025-05-04T16:37:19Z</time>
      </trkpt>
      <trkpt lat="38.762353034690022" lon="-9.386389022693038">
        <ele>185.19</ele>
        <time>2025-05-04T16:37:20Z</time>
      </trkpt>
      <trkpt lat="38.76290699467063" lon="-9.386199004948139">
        <ele>187.11000000000001</ele>
        <time>2025-05-04T16:37:24Z</time>
      </trkpt>
      <trkpt lat="38.763034986332059" lon="-9.386161034926772">
        <ele>188.08000000000001</ele>
        <time>2025-05-04T16:37:25Z</time>
      </trkpt>
      <trkpt lat="38.764215996488929" lon="-9.385890970006585">
        <ele>194.31999999999999</ele>
        <time>2025-05-04T16:37:34Z</time>
      </trkpt>
      <trkpt lat="38.765653995797038" lon="-9.385632975026965">
        <ele>199.13</ele>
        <time>2025-05-04T16:37:46Z</time>
      </trkpt>
      <trkpt lat="38.767065005376935" lon="-9.385233996436">
        <ele>203.94</ele>
        <time>2025-05-04T16:37:58Z</time>
      </trkpt>
      <trkpt lat="38.767194002866745" lon="-9.385182028636336">
        <ele>204.41999999999999</ele>
        <time>2025-05-04T16:37:59Z</time>
      </trkpt>
      <trkpt lat="38.768296977505088" lon="-9.384547015652061">
        <ele>207.78</ele>
        <time>2025-05-04T16:38:09Z</time>
      </trkpt>
      <trkpt lat="38.769875038415194" lon="-9.383356031030417">
        <ele>209.69999999999999</ele>
        <time>2025-05-04T16:38:23Z</time>
      </trkpt>
      <trkpt lat="38.771508000791073" lon="-9.382258001714945">
        <ele>217.40000000000001</ele>
        <time>2025-05-04T16:38:35Z</time>
      </trkpt>
      <trkpt lat="38.772711977362633" lon="-9.38147496432066">
        <ele>226.53</ele>
        <time>2025-05-04T16:38:45Z</time>
      </trkpt>
      <trkpt lat="38.77300500869751" lon="-9.381295004859567">
        <ele>229.41</ele>
        <time>2025-05-04T16:38:49Z</time>
      </trkpt>
      <trkpt lat="38.773086983710527" lon="-9.381240019574761">
        <ele>229.88999999999999</ele>
        <time>2025-05-04T16:38:50Z</time>
      </trkpt>
      <trkpt lat="38.773235008120537" lon="-9.381007002666593">
        <ele>231.33000000000001</ele>
        <time>2025-05-04T16:38:52Z</time>
      </trkpt>
      <trkpt lat="38.7734130397439" lon="-9.381014965474606">
        <ele>231.81</ele>
        <time>2025-05-04T16:38:53Z</time>
      </trkpt>
      <trkpt lat="38.7734130397439" lon="-9.381014965474606">
        <ele>232.78</ele>
        <time>2025-05-04T16:38:54Z</time>
      </trkpt>
      <trkpt lat="38.77350096590817" lon="-9.380982024595141">
        <ele>233.74000000000001</ele>
        <time>2025-05-04T16:38:56Z</time>
      </trkpt>
      <trkpt lat="38.77358503639698" lon="-9.380951011553407">
        <ele>234.22</ele>
        <time>2025-05-04T16:38:57Z</time>
      </trkpt>
      <trkpt lat="38.773709004744887" lon="-9.380904994904995">
        <ele>234.69999999999999</ele>
        <time>2025-05-04T16:38:58Z</time>
      </trkpt>
      <trkpt lat="38.7748740054667" lon="-9.380284985527396">
        <ele>235.18000000000001</ele>
        <time>2025-05-04T16:39:08Z</time>
      </trkpt>
      <trkpt lat="38.775337021797895" lon="-9.380035037174821">
        <ele>233.74000000000001</ele>
        <time>2025-05-04T16:39:11Z</time>
      </trkpt>
      <trkpt lat="38.775451015681028" lon="-9.379974016919732">
        <ele>233.25999999999999</ele>
        <time>2025-05-04T16:39:12Z</time>
      </trkpt>
      <trkpt lat="38.776546027511358" lon="-9.379385020583868">
        <ele>230.84999999999999</ele>
        <time>2025-05-04T16:39:20Z</time>
      </trkpt>
      <trkpt lat="38.778007999062538" lon="-9.378572981804609">
        <ele>236.13999999999999</ele>
        <time>2025-05-04T16:39:30Z</time>
      </trkpt>
      <trkpt lat="38.779577007517219" lon="-9.377722973003984">
        <ele>239.50999999999999</ele>
        <time>2025-05-04T16:39:40Z</time>
      </trkpt>
      <trkpt lat="38.780838986858726" lon="-9.37702601775527">
        <ele>240.94999999999999</ele>
        <time>2025-05-04T16:39:48Z</time>
      </trkpt>
      <trkpt lat="38.781625041738153" lon="-9.376587979495525">
        <ele>244.31</ele>
        <time>2025-05-04T16:39:56Z</time>
      </trkpt>
      <trkpt lat="38.781668040901423" lon="-9.376566018909216">
        <ele>244.31</ele>
        <time>2025-05-04T16:39:57Z</time>
      </trkpt>
      <trkpt lat="38.781668040901423" lon="-9.376566018909216">
        <ele>244.31</ele>
        <time>2025-05-04T16:39:58Z</time>
      </trkpt>
      <trkpt lat="38.781716991215944" lon="-9.37638103030622">
        <ele>244.78999999999999</ele>
        <time>2025-05-04T16:39:59Z</time>
      </trkpt>
      <trkpt lat="38.781745992600918" lon="-9.37633803114295">
        <ele>245.27000000000001</ele>
        <time>2025-05-04T16:40:00Z</time>
      </trkpt>
      <trkpt lat="38.781784968450665" lon="-9.376278016716242">
        <ele>245.75</ele>
        <time>2025-05-04T16:40:01Z</time>
      </trkpt>
      <trkpt lat="38.781853029504418" lon="-9.37625203281641">
        <ele>246.22999999999999</ele>
        <time>2025-05-04T16:40:02Z</time>
      </trkpt>
      <trkpt lat="38.781853029504418" lon="-9.37625203281641">
        <ele>246.72</ele>
        <time>2025-05-04T16:40:03Z</time>
      </trkpt>
      <trkpt lat="38.781910026445985" lon="-9.37625203281641">
        <ele>247.19999999999999</ele>
        <time>2025-05-04T16:40:04Z</time>
      </trkpt>
      <trkpt lat="38.782077999785542" lon="-9.376309029757977">
        <ele>247.68000000000001</ele>
        <time>2025-05-04T16:40:05Z</time>
      </trkpt>
      <trkpt lat="38.782079005613923" lon="-9.376309029757977">
        <ele>248.16</ele>
        <time>2025-05-04T16:40:06Z</time>
      </trkpt>
      <trkpt lat="38.782226024195552" lon="-9.376248009502888">
        <ele>248.16</ele>
        <time>2025-05-04T16:40:07Z</time>
      </trkpt>
      <trkpt lat="38.782313028350472" lon="-9.37621196731925">
        <ele>248.16</ele>
        <time>2025-05-04T16:40:08Z</time>
      </trkpt>
      <trkpt lat="38.782313028350472" lon="-9.37621196731925">
        <ele>248.63999999999999</ele>
        <time>2025-05-04T16:40:09Z</time>
      </trkpt>
      <trkpt lat="38.782404977828264" lon="-9.376173997297883">
        <ele>248.63999999999999</ele>
        <time>2025-05-04T16:40:10Z</time>
      </trkpt>
      <trkpt lat="38.783566039055586" lon="-9.375518029555678">
        <ele>252.47999999999999</ele>
        <time>2025-05-04T16:40:21Z</time>
      </trkpt>
      <trkpt lat="38.784486958757043" lon="-9.375005979090929">
        <ele>256.81</ele>
        <time>2025-05-04T16:40:30Z</time>
      </trkpt>
      <trkpt lat="38.785613989457488" lon="-9.374292008578777">
        <ele>260.64999999999998</ele>
        <time>2025-05-04T16:40:42Z</time>
      </trkpt>
      <trkpt lat="38.786442037671804" lon="-9.37376000918448">
        <ele>265.45999999999998</ele>
        <time>2025-05-04T16:40:53Z</time>
      </trkpt>
      <trkpt lat="38.786666002124548" lon="-9.373604021966457">
        <ele>265.45999999999998</ele>
        <time>2025-05-04T16:40:55Z</time>
      </trkpt>
      <trkpt lat="38.786666002124548" lon="-9.373604021966457">
        <ele>265.94</ele>
        <time>2025-05-04T16:40:56Z</time>
      </trkpt>
      <trkpt lat="38.786813020706177" lon="-9.373500002548099">
        <ele>266.42000000000002</ele>
        <time>2025-05-04T16:40:58Z</time>
      </trkpt>
      <trkpt lat="38.786946963518858" lon="-9.373405035585165">
        <ele>266.89999999999998</ele>
        <time>2025-05-04T16:40:59Z</time>
      </trkpt>
      <trkpt lat="38.786946963518858" lon="-9.373405035585165">
        <ele>266.89999999999998</ele>
        <time>2025-05-04T16:41:00Z</time>
      </trkpt>
      <trkpt lat="38.787032039836049" lon="-9.373321970924735">
        <ele>267.38</ele>
        <time>2025-05-04T16:41:01Z</time>
      </trkpt>
      <trkpt lat="38.787059029564261" lon="-9.373261034488678">
        <ele>267.86000000000001</ele>
        <time>2025-05-04T16:41:02Z</time>
      </trkpt>
      <trkpt lat="38.787103034555912" lon="-9.37316196039319">
        <ele>267.86000000000001</ele>
        <time>2025-05-04T16:41:03Z</time>
      </trkpt>
      <trkpt lat="38.787110997363925" lon="-9.373099012300372">
        <ele>268.35000000000002</ele>
        <time>2025-05-04T16:41:04Z</time>
      </trkpt>
      <trkpt lat="38.787120971828699" lon="-9.373016031458974">
        <ele>268.82999999999998</ele>
        <time>2025-05-04T16:41:05Z</time>
      </trkpt>
      <trkpt lat="38.78712197765708" lon="-9.373015025630593">
        <ele>268.82999999999998</ele>
        <time>2025-05-04T16:41:06Z</time>
      </trkpt>
      <trkpt lat="38.78701401874423" lon="-9.372789971530438">
        <ele>268.82999999999998</ele>
        <time>2025-05-04T16:41:07Z</time>
      </trkpt>
      <trkpt lat="38.786963978782296" lon="-9.372696010395885">
        <ele>268.35000000000002</ele>
        <time>2025-05-04T16:41:08Z</time>
      </trkpt>
      <trkpt lat="38.786733979359269" lon="-9.37225797213614">
        <ele>266.89999999999998</ele>
        <time>2025-05-04T16:41:12Z</time>
      </trkpt>
      <trkpt lat="38.786672037094831" lon="-9.372140038758516">
        <ele>265.94</ele>
        <time>2025-05-04T16:41:13Z</time>
      </trkpt>
      <trkpt lat="38.786607999354601" lon="-9.372016992419958">
        <ele>264.98000000000002</ele>
        <time>2025-05-04T16:41:14Z</time>
      </trkpt>
      <trkpt lat="38.786534992977977" lon="-9.371901992708445">
        <ele>264.01999999999998</ele>
        <time>2025-05-04T16:41:15Z</time>
      </trkpt>
      <trkpt lat="38.786446982994676" lon="-9.371800990775228">
        <ele>263.06</ele>
        <time>2025-05-04T16:41:16Z</time>
      </trkpt>
      <trkpt lat="38.786359978839755" lon="-9.371700994670391">
        <ele>262.57999999999998</ele>
        <time>2025-05-04T16:41:17Z</time>
      </trkpt>
      <trkpt lat="38.786270041018724" lon="-9.371602004393935">
        <ele>261.13999999999999</ele>
        <time>2025-05-04T16:41:18Z</time>
      </trkpt>
      <trkpt lat="38.786180019378662" lon="-9.371522041037679">
        <ele>258.73000000000002</ele>
        <time>2025-05-04T16:41:19Z</time>
      </trkpt>
      <trkpt lat="38.785568978637457" lon="-9.371138988062739">
        <ele>249.59999999999999</ele>
        <time>2025-05-04T16:41:25Z</time>
      </trkpt>
      <trkpt lat="38.784256959334016" lon="-9.370630960911512">
        <ele>240.94999999999999</ele>
        <time>2025-05-04T16:41:36Z</time>
      </trkpt>
      <trkpt lat="38.784057972952724" lon="-9.370550997555256">
        <ele>239.99000000000001</ele>
        <time>2025-05-04T16:41:38Z</time>
      </trkpt>
      <trkpt lat="38.783970968797803" lon="-9.370485031977296">
        <ele>239.50999999999999</ele>
        <time>2025-05-04T16:41:39Z</time>
      </trkpt>
      <trkpt lat="38.783888993784785" lon="-9.370414959266782">
        <ele>239.02000000000001</ele>
        <time>2025-05-04T16:41:40Z</time>
      </trkpt>
      <trkpt lat="38.783820010721684" lon="-9.370329966768622">
        <ele>238.53999999999999</ele>
        <time>2025-05-04T16:41:41Z</time>
      </trkpt>
      <trkpt lat="38.783778017386794" lon="-9.370213039219379">
        <ele>238.06</ele>
        <time>2025-05-04T16:41:42Z</time>
      </trkpt>
      <trkpt lat="38.783734012395144" lon="-9.370093010365963">
        <ele>237.58000000000001</ele>
        <time>2025-05-04T16:41:43Z</time>
      </trkpt>
      <trkpt lat="38.783726971596479" lon="-9.369999971240759">
        <ele>236.62</ele>
        <time>2025-05-04T16:41:44Z</time>
      </trkpt>
      <trkpt lat="38.783719008788466" lon="-9.369906010106206">
        <ele>236.13999999999999</ele>
        <time>2025-05-04T16:41:45Z</time>
      </trkpt>
      <trkpt lat="38.783712973818183" lon="-9.369815988466144">
        <ele>235.66</ele>
        <time>2025-05-04T16:41:46Z</time>
      </trkpt>
      <trkpt lat="38.783716997131705" lon="-9.368594996631146">
        <ele>225.56999999999999</ele>
        <time>2025-05-04T16:41:57Z</time>
      </trkpt>
      <trkpt lat="38.783759996294975" lon="-9.366839993745089">
        <ele>211.63</ele>
        <time>2025-05-04T16:42:10Z</time>
      </trkpt>
      <trkpt lat="38.783463025465608" lon="-9.365125978365541">
        <ele>204.41999999999999</ele>
        <time>2025-05-04T16:42:21Z</time>
      </trkpt>
      <trkpt lat="38.782948963344097" lon="-9.363184981048107">
        <ele>198.16999999999999</ele>
        <time>2025-05-04T16:42:34Z</time>
      </trkpt>
      <trkpt lat="38.78284796141088" lon="-9.362844005227089">
        <ele>197.69</ele>
        <time>2025-05-04T16:42:36Z</time>
      </trkpt>
      <trkpt lat="38.782789958640933" lon="-9.362668991088867">
        <ele>197.69</ele>
        <time>2025-05-04T16:42:37Z</time>
      </trkpt>
      <trkpt lat="38.782680993899703" lon="-9.362360034137964">
        <ele>197.21000000000001</ele>
        <time>2025-05-04T16:42:38Z</time>
      </trkpt>
      <trkpt lat="38.78215896897018" lon="-9.360564965754747">
        <ele>192.88</ele>
        <time>2025-05-04T16:42:48Z</time>
      </trkpt>
      <trkpt lat="38.781251963227987" lon="-9.357655020430684">
        <ele>189.52000000000001</ele>
        <time>2025-05-04T16:43:00Z</time>
      </trkpt>
      <trkpt lat="38.780205985531211" lon="-9.355339016765356">
        <ele>191.44</ele>
        <time>2025-05-04T16:43:09Z</time>
      </trkpt>
      <trkpt lat="38.778389040380716" lon="-9.351825993508101">
        <ele>187.59</ele>
        <time>2025-05-04T16:43:23Z</time>
      </trkpt>
      <trkpt lat="38.777219010517001" lon="-9.349552989006043">
        <ele>186.15000000000001</ele>
        <time>2025-05-04T16:43:39Z</time>
      </trkpt>
      <trkpt lat="38.776012016460299" lon="-9.345030030235648">
        <ele>182.78999999999999</ele>
        <time>2025-05-04T16:43:47Z</time>
      </trkpt>
      <trkpt lat="38.776107989251614" lon="-9.343267986550927">
        <ele>179.41999999999999</ele>
        <time>2025-05-04T16:43:54Z</time>
      </trkpt>
      <trkpt lat="38.776845009997487" lon="-9.339322037994862">
        <ele>172.21000000000001</ele>
        <time>2025-05-04T16:44:08Z</time>
      </trkpt>
      <trkpt lat="38.777640033513308" lon="-9.335289001464844">
        <ele>166.44999999999999</ele>
        <time>2025-05-04T16:44:23Z</time>
      </trkpt>
      <trkpt lat="38.777838014066219" lon="-9.334280993789434">
        <ele>164.52000000000001</ele>
        <time>2025-05-04T16:44:27Z</time>
      </trkpt>
      <trkpt lat="38.777886964380741" lon="-9.334032973274589">
        <ele>164.03999999999999</ele>
        <time>2025-05-04T16:44:28Z</time>
      </trkpt>
      <trkpt lat="38.778326008468866" lon="-9.331605993211269">
        <ele>153.94999999999999</ele>
        <time>2025-05-04T16:44:37Z</time>
      </trkpt>
      <trkpt lat="38.778539998456836" lon="-9.328914983198047">
        <ele>139.53</ele>
        <time>2025-05-04T16:44:46Z</time>
      </trkpt>
      <trkpt lat="38.778302036225796" lon="-9.32638599537313">
        <ele>129.43000000000001</ele>
        <time>2025-05-04T16:44:54Z</time>
      </trkpt>
      <trkpt lat="38.777679009363055" lon="-9.324441980570555">
        <ele>130.40000000000001</ele>
        <time>2025-05-04T16:45:01Z</time>
      </trkpt>
      <trkpt lat="38.776709977537394" lon="-9.322814969345927">
        <ele>140.49000000000001</ele>
        <time>2025-05-04T16:45:08Z</time>
      </trkpt>
      <trkpt lat="38.775258986279368" lon="-9.32144402526319">
        <ele>153.47</ele>
        <time>2025-05-04T16:45:16Z</time>
      </trkpt>
      <trkpt lat="38.772895038127899" lon="-9.319631019607186">
        <ele>167.41</ele>
        <time>2025-05-04T16:45:28Z</time>
      </trkpt>
      <trkpt lat="38.769748974591494" lon="-9.31721200235188">
        <ele>166.44999999999999</ele>
        <time>2025-05-04T16:45:44Z</time>
      </trkpt>
      <trkpt lat="38.7680200394243" lon="-9.315516008064151">
        <ele>162.12</ele>
        <time>2025-05-04T16:45:53Z</time>
      </trkpt>
      <trkpt lat="38.766823019832373" lon="-9.313541986048222">
        <ele>156.83000000000001</ele>
        <time>2025-05-04T16:46:00Z</time>
      </trkpt>
      <trkpt lat="38.766203010454774" lon="-9.311501998454332">
        <ele>150.58000000000001</ele>
        <time>2025-05-04T16:46:08Z</time>
      </trkpt>
      <trkpt lat="38.765881983563304" lon="-9.308695988729596">
        <ele>145.30000000000001</ele>
        <time>2025-05-04T16:46:17Z</time>
      </trkpt>
      <trkpt lat="38.765881983563304" lon="-9.30485799908638">
        <ele>149.62</ele>
        <time>2025-05-04T16:46:29Z</time>
      </trkpt>
      <trkpt lat="38.765878966078162" lon="-9.301601964980364">
        <ele>141.44999999999999</ele>
        <time>2025-05-04T16:46:43Z</time>
      </trkpt>
      <trkpt lat="38.765676040202379" lon="-9.300364041700959">
        <ele>137.61000000000001</ele>
        <time>2025-05-04T16:46:48Z</time>
      </trkpt>
      <trkpt lat="38.765491973608732" lon="-9.299876969307661">
        <ele>137.13</ele>
        <time>2025-05-04T16:46:50Z</time>
      </trkpt>
      <trkpt lat="38.765384014695883" lon="-9.299642024561763">
        <ele>137.13</ele>
        <time>2025-05-04T16:46:51Z</time>
      </trkpt>
      <trkpt lat="38.765251999720931" lon="-9.299429962411523">
        <ele>136.63999999999999</ele>
        <time>2025-05-04T16:46:52Z</time>
      </trkpt>
      <trkpt lat="38.764967015013099" lon="-9.299024026840925">
        <ele>136.16</ele>
        <time>2025-05-04T16:46:53Z</time>
      </trkpt>
      <trkpt lat="38.764805998653173" lon="-9.298841971904039">
        <ele>135.68000000000001</ele>
        <time>2025-05-04T16:46:54Z</time>
      </trkpt>
      <trkpt lat="38.763304967433214" lon="-9.297444960102439">
        <ele>128.47</ele>
        <time>2025-05-04T16:47:03Z</time>
      </trkpt>
      <trkpt lat="38.761384002864361" lon="-9.295771010220051">
        <ele>126.06999999999999</ele>
        <time>2025-05-04T16:47:14Z</time>
      </trkpt>
      <trkpt lat="38.758829031139612" lon="-9.293547039851546">
        <ele>127.03</ele>
        <time>2025-05-04T16:47:29Z</time>
      </trkpt>
      <trkpt lat="38.7572340387851" lon="-9.291774015873671">
        <ele>125.59</ele>
        <time>2025-05-04T16:47:38Z</time>
      </trkpt>
      <trkpt lat="38.755960995331407" lon="-9.290650002658367">
        <ele>127.03</ele>
        <time>2025-05-04T16:47:46Z</time>
      </trkpt>
      <trkpt lat="38.754852991551161" lon="-9.290358982980251">
        <ele>128.47</ele>
        <time>2025-05-04T16:47:53Z</time>
      </trkpt>
      <trkpt lat="38.753457991406322" lon="-9.289798988029361">
        <ele>130.40000000000001</ele>
        <time>2025-05-04T16:48:01Z</time>
      </trkpt>
      <trkpt lat="38.752330038696527" lon="-9.288587970659137">
        <ele>130.88</ele>
        <time>2025-05-04T16:48:09Z</time>
      </trkpt>
      <trkpt lat="38.750675031915307" lon="-9.286375986412168">
        <ele>136.63999999999999</ele>
        <time>2025-05-04T16:48:22Z</time>
      </trkpt>
      <trkpt lat="38.749594017863274" lon="-9.284603968262672">
        <ele>135.68000000000001</ele>
        <time>2025-05-04T16:48:31Z</time>
      </trkpt>
      <trkpt lat="38.749036034569144" lon="-9.282928006723523">
        <ele>133.75999999999999</ele>
        <time>2025-05-04T16:48:38Z</time>
      </trkpt>
      <trkpt lat="38.748677959665656" lon="-9.281750014051795">
        <ele>133.28</ele>
        <time>2025-05-04T16:48:47Z</time>
      </trkpt>
      <trkpt lat="38.748399009928107" lon="-9.280805038288236">
        <ele>132.31999999999999</ele>
        <time>2025-05-04T16:48:55Z</time>
      </trkpt>
      <trkpt lat="38.748289039358497" lon="-9.280430031940341">
        <ele>133.28</ele>
        <time>2025-05-04T16:49:04Z</time>
      </trkpt>
      <trkpt lat="38.748103966936469" lon="-9.27967700175941">
        <ele>135.19999999999999</ele>
        <time>2025-05-04T16:49:18Z</time>
      </trkpt>
      <trkpt lat="38.747999025508761" lon="-9.279188001528382">
        <ele>137.13</ele>
        <time>2025-05-04T16:49:29Z</time>
      </trkpt>
      <trkpt lat="38.747990978881717" lon="-9.279137039557099">
        <ele>137.13</ele>
        <time>2025-05-04T16:49:30Z</time>
      </trkpt>
      <trkpt lat="38.747982010245323" lon="-9.279082976281643">
        <ele>137.61000000000001</ele>
        <time>2025-05-04T16:49:31Z</time>
      </trkpt>
      <trkpt lat="38.747972035780549" lon="-9.279021034017205">
        <ele>137.61000000000001</ele>
        <time>2025-05-04T16:49:32Z</time>
      </trkpt>
      <trkpt lat="38.747958960011601" lon="-9.278940986841917">
        <ele>137.61000000000001</ele>
        <time>2025-05-04T16:49:33Z</time>
      </trkpt>
      <trkpt lat="38.747857036069036" lon="-9.278318965807557">
        <ele>140.49000000000001</ele>
        <time>2025-05-04T16:49:41Z</time>
      </trkpt>
      <trkpt lat="38.747806996107101" lon="-9.278012020513415">
        <ele>141.93000000000001</ele>
        <time>2025-05-04T16:49:48Z</time>
      </trkpt>
      <trkpt lat="38.747802972793579" lon="-9.277958041056991">
        <ele>141.93000000000001</ele>
        <time>2025-05-04T16:49:49Z</time>
      </trkpt>
      <trkpt lat="38.747757961973548" lon="-9.277267958968878">
        <ele>143.37</ele>
        <time>2025-05-04T16:50:01Z</time>
      </trkpt>
      <trkpt lat="38.747740024700761" lon="-9.276721961796284">
        <ele>144.81999999999999</ele>
        <time>2025-05-04T16:50:09Z</time>
      </trkpt>
      <trkpt lat="38.74773901887238" lon="-9.276664964854717">
        <ele>144.81999999999999</ele>
        <time>2025-05-04T16:50:10Z</time>
      </trkpt>
      <trkpt lat="38.747731978073716" lon="-9.276387020945549">
        <ele>145.78</ele>
        <time>2025-05-04T16:50:16Z</time>
      </trkpt>
      <trkpt lat="38.747728038579226" lon="-9.276059037074447">
        <ele>145.78</ele>
        <time>2025-05-04T16:50:21Z</time>
      </trkpt>
      <trkpt lat="38.747728038579226" lon="-9.275914030149579">
        <ele>146.25999999999999</ele>
        <time>2025-05-04T16:50:23Z</time>
      </trkpt>
      <trkpt lat="38.747728038579226" lon="-9.275841023772955">
        <ele>146.74000000000001</ele>
        <time>2025-05-04T16:50:24Z</time>
      </trkpt>
      <trkpt lat="38.74771798029542" lon="-9.27484299056232">
        <ele>147.22</ele>
        <time>2025-05-04T16:50:36Z</time>
      </trkpt>
      <trkpt lat="38.747705994173884" lon="-9.274100018665195">
        <ele>145.78</ele>
        <time>2025-05-04T16:50:46Z</time>
      </trkpt>
      <trkpt lat="38.747701970860362" lon="-9.273978983983398">
        <ele>145.30000000000001</ele>
        <time>2025-05-04T16:50:58Z</time>
      </trkpt>
      <trkpt lat="38.747694008052349" lon="-9.273761976510286">
        <ele>143.84999999999999</ele>
        <time>2025-05-04T16:51:18Z</time>
      </trkpt>
      <trkpt lat="38.747685039415956" lon="-9.273419994860888">
        <ele>140.49000000000001</ele>
        <time>2025-05-04T16:51:31Z</time>
      </trkpt>
      <trkpt lat="38.747685039415956" lon="-9.272911967709661">
        <ele>139.53</ele>
        <time>2025-05-04T16:51:45Z</time>
      </trkpt>
      <trkpt lat="38.747685039415956" lon="-9.27275899797678">
        <ele>137.61000000000001</ele>
        <time>2025-05-04T16:51:58Z</time>
      </trkpt>
      <trkpt lat="38.747685039415956" lon="-9.272477030754089">
        <ele>136.63999999999999</ele>
        <time>2025-05-04T16:52:09Z</time>
      </trkpt>
      <trkpt lat="38.747676992788911" lon="-9.272034969180822">
        <ele>134.72</ele>
        <time>2025-05-04T16:52:23Z</time>
      </trkpt>
      <trkpt lat="38.747673975303769" lon="-9.271854003891349">
        <ele>133.75999999999999</ele>
        <time>2025-05-04T16:52:35Z</time>
      </trkpt>
      <trkpt lat="38.747661989182234" lon="-9.271289985626936">
        <ele>131.36000000000001</ele>
        <time>2025-05-04T16:52:53Z</time>
      </trkpt>
      <trkpt lat="38.747661989182234" lon="-9.271289985626936">
        <ele>131.36000000000001</ele>
        <time>2025-05-04T16:53:15Z</time>
      </trkpt>
      <trkpt lat="38.747656960040331" lon="-9.271068032830954">
        <ele>132.31999999999999</ele>
        <time>2025-05-04T16:53:29Z</time>
      </trkpt>
      <trkpt lat="38.747656960040331" lon="-9.271068032830954">
        <ele>132.31999999999999</ele>
        <time>2025-05-04T16:53:51Z</time>
      </trkpt>
      <trkpt lat="38.747654026374221" lon="-9.270935012027621">
        <ele>131.84</ele>
        <time>2025-05-04T16:54:04Z</time>
      </trkpt>
      <trkpt lat="38.747641034424305" lon="-9.270301004871726">
        <ele>128.47</ele>
        <time>2025-05-04T16:54:21Z</time>
      </trkpt>
      <trkpt lat="38.747627036646008" lon="-9.269655011594296">
        <ele>125.59</ele>
        <time>2025-05-04T16:54:37Z</time>
      </trkpt>
      <trkpt lat="38.747622007504106" lon="-9.269376983866096">
        <ele>124.63</ele>
        <time>2025-05-04T16:54:50Z</time>
      </trkpt>
      <trkpt lat="38.74763298779726" lon="-9.269038019701839">
        <ele>121.73999999999999</ele>
        <time>2025-05-04T16:55:07Z</time>
      </trkpt>
      <trkpt lat="38.747642040252686" lon="-9.268754962831736">
        <ele>120.78</ele>
        <time>2025-05-04T16:55:17Z</time>
      </trkpt>
      <trkpt lat="38.747642040252686" lon="-9.268659995868802">
        <ele>119.81999999999999</ele>
        <time>2025-05-04T16:55:30Z</time>
      </trkpt>
      <trkpt lat="38.747642040252686" lon="-9.268659995868802">
        <ele>120.78</ele>
        <time>2025-05-04T16:55:44Z</time>
      </trkpt>
      <trkpt lat="38.747642040252686" lon="-9.268283983692527">
        <ele>119.81999999999999</ele>
        <time>2025-05-04T16:55:54Z</time>
      </trkpt>
      <trkpt lat="38.747640028595924" lon="-9.26811701618135">
        <ele>118.86</ele>
        <time>2025-05-04T16:56:09Z</time>
      </trkpt>
      <trkpt lat="38.747640028595924" lon="-9.268095977604389">
        <ele>118.38</ele>
        <time>2025-05-04T16:56:22Z</time>
      </trkpt>
      <trkpt lat="38.747634999454021" lon="-9.267779979854822">
        <ele>118.86</ele>
        <time>2025-05-04T16:56:36Z</time>
      </trkpt>
      <trkpt lat="38.747628964483738" lon="-9.267402961850166">
        <ele>117.90000000000001</ele>
        <time>2025-05-04T16:56:54Z</time>
      </trkpt>
      <trkpt lat="38.747626030817628" lon="-9.267228031530976">
        <ele>116.45999999999999</ele>
        <time>2025-05-04T16:57:15Z</time>
      </trkpt>
      <trkpt lat="38.747621001675725" lon="-9.266835004091263">
        <ele>113.56999999999999</ele>
        <time>2025-05-04T16:57:30Z</time>
      </trkpt>
      <trkpt lat="38.747621001675725" lon="-9.266682034358382">
        <ele>111.17</ele>
        <time>2025-05-04T16:57:47Z</time>
      </trkpt>
      <trkpt lat="38.747621001675725" lon="-9.266376011073589">
        <ele>110.20999999999999</ele>
        <time>2025-05-04T16:58:06Z</time>
      </trkpt>
      <trkpt lat="38.747621001675725" lon="-9.266354972496629">
        <ele>109.73</ele>
        <time>2025-05-04T16:58:17Z</time>
      </trkpt>
      <trkpt lat="38.747621001675725" lon="-9.26627098582685">
        <ele>109.73</ele>
        <time>2025-05-04T16:58:31Z</time>
      </trkpt>
      <trkpt lat="38.747621001675725" lon="-9.266031011939049">
        <ele>110.20999999999999</ele>
        <time>2025-05-04T16:58:41Z</time>
      </trkpt>
      <trkpt lat="38.747618990018964" lon="-9.265645025297999">
        <ele>108.29000000000001</ele>
        <time>2025-05-04T16:58:59Z</time>
      </trkpt>
      <trkpt lat="38.747616978362203" lon="-9.265602026134729">
        <ele>107.81</ele>
        <time>2025-05-04T16:59:16Z</time>
      </trkpt>
      <trkpt lat="38.74760901555419" lon="-9.265441009774804">
        <ele>106.84</ele>
        <time>2025-05-04T16:59:26Z</time>
      </trkpt>
      <trkpt lat="38.74760901555419" lon="-9.265441009774804">
        <ele>106.36</ele>
        <time>2025-05-04T16:59:53Z</time>
      </trkpt>
      <trkpt lat="38.747599963098764" lon="-9.265035996213555">
        <ele>104.44</ele>
        <time>2025-05-04T17:00:04Z</time>
      </trkpt>
      <trkpt lat="38.747599963098764" lon="-9.264588989317417">
        <ele>100.59999999999999</ele>
        <time>2025-05-04T17:00:19Z</time>
      </trkpt>
      <trkpt lat="38.747599963098764" lon="-9.264495028182864">
        <ele>100.11</ele>
        <time>2025-05-04T17:00:30Z</time>
      </trkpt>
      <trkpt lat="38.747599963098764" lon="-9.264495028182864">
        <ele>100.11</ele>
        <time>2025-05-04T17:00:52Z</time>
      </trkpt>
      <trkpt lat="38.747599963098764" lon="-9.264326971024275">
        <ele>102.52</ele>
        <time>2025-05-04T17:01:00Z</time>
      </trkpt>
      <trkpt lat="38.747599963098764" lon="-9.264259999617934">
        <ele>102.04000000000001</ele>
        <time>2025-05-04T17:01:07Z</time>
      </trkpt>
      <trkpt lat="38.747599963098764" lon="-9.264234015718103">
        <ele>101.56</ele>
        <time>2025-05-04T17:01:08Z</time>
      </trkpt>
      <trkpt lat="38.747578002512455" lon="-9.263739986345172">
        <ele>100.59999999999999</ele>
        <time>2025-05-04T17:01:24Z</time>
      </trkpt>
      <trkpt lat="38.747578002512455" lon="-9.263482997193933">
        <ele>102.04000000000001</ele>
        <time>2025-05-04T17:01:39Z</time>
      </trkpt>
      <trkpt lat="38.747578002512455" lon="-9.263130035251379">
        <ele>102.04000000000001</ele>
        <time>2025-05-04T17:01:54Z</time>
      </trkpt>
      <trkpt lat="38.747573979198933" lon="-9.262800961732864">
        <ele>101.56</ele>
        <time>2025-05-04T17:02:10Z</time>
      </trkpt>
      <trkpt lat="38.747568028047681" lon="-9.262383040040731">
        <ele>101.56</ele>
        <time>2025-05-04T17:02:26Z</time>
      </trkpt>
      <trkpt lat="38.747565010562539" lon="-9.262135019525886">
        <ele>101.56</ele>
        <time>2025-05-04T17:02:40Z</time>
      </trkpt>
      <trkpt lat="38.747562998905778" lon="-9.26203703507781">
        <ele>102.52</ele>
        <time>2025-05-04T17:02:49Z</time>
      </trkpt>
      <trkpt lat="38.747560987249017" lon="-9.261884987354279">
        <ele>103</ele>
        <time>2025-05-04T17:03:02Z</time>
      </trkpt>
      <trkpt lat="38.747559981420636" lon="-9.261764036491513">
        <ele>103.48</ele>
        <time>2025-05-04T17:03:13Z</time>
      </trkpt>
      <trkpt lat="38.747557969763875" lon="-9.261647025123239">
        <ele>103.48</ele>
        <time>2025-05-04T17:03:25Z</time>
      </trkpt>
      <trkpt lat="38.747556963935494" lon="-9.261596985161305">
        <ele>103</ele>
        <time>2025-05-04T17:03:38Z</time>
      </trkpt>
      <trkpt lat="38.747556963935494" lon="-9.261515010148287">
        <ele>103.95999999999999</ele>
        <time>2025-05-04T17:03:50Z</time>
      </trkpt>
      <trkpt lat="38.747556963935494" lon="-9.26143404096365">
        <ele>103.95999999999999</ele>
        <time>2025-05-04T17:04:04Z</time>
      </trkpt>
      <trkpt lat="38.747556963935494" lon="-9.261267995461822">
        <ele>103.95999999999999</ele>
        <time>2025-05-04T17:04:15Z</time>
      </trkpt>
      <trkpt lat="38.747552018612623" lon="-9.26102701574564">
        <ele>103</ele>
        <time>2025-05-04T17:04:28Z</time>
      </trkpt>
      <trkpt lat="38.747544977813959" lon="-9.260654021054506">
        <ele>102.04000000000001</ele>
        <time>2025-05-04T17:04:40Z</time>
      </trkpt>
      <trkpt lat="38.747541960328817" lon="-9.260484036058188">
        <ele>102.04000000000001</ele>
        <time>2025-05-04T17:04:50Z</time>
      </trkpt>
      <trkpt lat="38.747535003349185" lon="-9.260009033605456">
        <ele>99.629999999999995</ele>
        <time>2025-05-04T17:05:03Z</time>
      </trkpt>
      <trkpt lat="38.747535003349185" lon="-9.259394975379109">
        <ele>99.150000000000006</ele>
        <time>2025-05-04T17:05:10Z</time>
      </trkpt>
      <trkpt lat="38.74765302054584" lon="-9.258279008790851">
        <ele>100.11</ele>
        <time>2025-05-04T17:05:16Z</time>
      </trkpt>
      <trkpt lat="38.748174961656332" lon="-9.256552001461387">
        <ele>103.48</ele>
        <time>2025-05-04T17:05:24Z</time>
      </trkpt>
      <trkpt lat="38.748906031250954" lon="-9.254168020561338">
        <ele>105.40000000000001</ele>
        <time>2025-05-04T17:05:34Z</time>
      </trkpt>
      <trkpt lat="38.749075010418892" lon="-9.252058966085315">
        <ele>109.25</ele>
        <time>2025-05-04T17:05:42Z</time>
      </trkpt>
      <trkpt lat="38.749136030673981" lon="-9.24953400157392">
        <ele>118.86</ele>
        <time>2025-05-04T17:05:53Z</time>
      </trkpt>
      <trkpt lat="38.748974008485675" lon="-9.247402986511588">
        <ele>124.63</ele>
        <time>2025-05-04T17:06:01Z</time>
      </trkpt>
      <trkpt lat="38.748294990509748" lon="-9.244599994271994">
        <ele>129.43000000000001</ele>
        <time>2025-05-04T17:06:12Z</time>
      </trkpt>
      <trkpt lat="38.747621001675725" lon="-9.241916025057435">
        <ele>135.19999999999999</ele>
        <time>2025-05-04T17:06:25Z</time>
      </trkpt>
      <trkpt lat="38.746955981478095" lon="-9.239180004224181">
        <ele>141.93000000000001</ele>
        <time>2025-05-04T17:06:37Z</time>
      </trkpt>
      <trkpt lat="38.746440997347236" lon="-9.237153008580208">
        <ele>150.58000000000001</ele>
        <time>2025-05-04T17:06:47Z</time>
      </trkpt>
      <trkpt lat="38.745772037655115" lon="-9.235259033739567">
        <ele>164.52000000000001</ele>
        <time>2025-05-04T17:06:57Z</time>
      </trkpt>
      <trkpt lat="38.745603980496526" lon="-9.235000032931566">
        <ele>165.47999999999999</ele>
        <time>2025-05-04T17:06:58Z</time>
      </trkpt>
      <trkpt lat="38.745481017976999" lon="-9.234897019341588">
        <ele>166.44999999999999</ele>
        <time>2025-05-04T17:06:59Z</time>
      </trkpt>
      <trkpt lat="38.745368029922247" lon="-9.234802974388003">
        <ele>167.41</ele>
        <time>2025-05-04T17:07:00Z</time>
      </trkpt>
      <trkpt lat="38.745206007733941" lon="-9.234759975224733">
        <ele>168.37</ele>
        <time>2025-05-04T17:07:01Z</time>
      </trkpt>
      <trkpt lat="38.745050020515919" lon="-9.234719993546605">
        <ele>169.81</ele>
        <time>2025-05-04T17:07:02Z</time>
      </trkpt>
      <trkpt lat="38.744890009984374" lon="-9.234678000211716">
        <ele>170.77000000000001</ele>
        <time>2025-05-04T17:07:03Z</time>
      </trkpt>
      <trkpt lat="38.744420036673546" lon="-9.234540034085512">
        <ele>174.62</ele>
        <time>2025-05-04T17:07:06Z</time>
      </trkpt>
      <trkpt lat="38.744273018091917" lon="-9.234453029930592">
        <ele>175.58000000000001</ele>
        <time>2025-05-04T17:07:07Z</time>
      </trkpt>
      <trkpt lat="38.744122982025146" lon="-9.23436501994729">
        <ele>176.53999999999999</ele>
        <time>2025-05-04T17:07:08Z</time>
      </trkpt>
      <trkpt lat="38.743998007848859" lon="-9.234207021072507">
        <ele>177.5</ele>
        <time>2025-05-04T17:07:09Z</time>
      </trkpt>
      <trkpt lat="38.743887031450868" lon="-9.234052039682865">
        <ele>177.97999999999999</ele>
        <time>2025-05-04T17:07:10Z</time>
      </trkpt>
      <trkpt lat="38.743789969012141" lon="-9.233856992796063">
        <ele>178.94</ele>
        <time>2025-05-04T17:07:11Z</time>
      </trkpt>
      <trkpt lat="38.743692990392447" lon="-9.233664041385055">
        <ele>179.41999999999999</ele>
        <time>2025-05-04T17:07:12Z</time>
      </trkpt>
      <trkpt lat="38.743596011772752" lon="-9.233470000326634">
        <ele>180.38</ele>
        <time>2025-05-04T17:07:13Z</time>
      </trkpt>
      <trkpt lat="38.743499033153057" lon="-9.233275037258863">
        <ele>180.87</ele>
        <time>2025-05-04T17:07:14Z</time>
      </trkpt>
      <trkpt lat="38.743434995412827" lon="-9.233068004250526">
        <ele>181.34999999999999</ele>
        <time>2025-05-04T17:07:15Z</time>
      </trkpt>
      <trkpt lat="38.743383027613163" lon="-9.232870023697615">
        <ele>181.34999999999999</ele>
        <time>2025-05-04T17:07:16Z</time>
      </trkpt>
      <trkpt lat="38.743366012349725" lon="-9.232666008174419">
        <ele>180.87</ele>
        <time>2025-05-04T17:07:17Z</time>
      </trkpt>
      <trkpt lat="38.743366012349725" lon="-9.232666008174419">
        <ele>180.38</ele>
        <time>2025-05-04T17:07:18Z</time>
      </trkpt>
      <trkpt lat="38.743359977379441" lon="-9.232481019571424">
        <ele>179.90000000000001</ele>
        <time>2025-05-04T17:07:19Z</time>
      </trkpt>
      <trkpt lat="38.74331496655941" lon="-9.232213972136378">
        <ele>179.41999999999999</ele>
        <time>2025-05-04T17:07:20Z</time>
      </trkpt>
      <trkpt lat="38.743233997374773" lon="-9.232133002951741">
        <ele>179.41999999999999</ele>
        <time>2025-05-04T17:07:21Z</time>
      </trkpt>
      <trkpt lat="38.743134001269937" lon="-9.232033006846905">
        <ele>178.46000000000001</ele>
        <time>2025-05-04T17:07:22Z</time>
      </trkpt>
      <trkpt lat="38.743020007386804" lon="-9.231919012963772">
        <ele>177.97999999999999</ele>
        <time>2025-05-04T17:07:23Z</time>
      </trkpt>
      <trkpt lat="38.74273200519383" lon="-9.231693958863616">
        <ele>177.02000000000001</ele>
        <time>2025-05-04T17:07:25Z</time>
      </trkpt>
      <trkpt lat="38.74273200519383" lon="-9.231693958863616">
        <ele>176.53999999999999</ele>
        <time>2025-05-04T17:07:26Z</time>
      </trkpt>
      <trkpt lat="38.740981025621295" lon="-9.230569023638964">
        <ele>172.69</ele>
        <time>2025-05-04T17:07:35Z</time>
      </trkpt>
      <trkpt lat="38.739455016329885" lon="-9.229560010135174">
        <ele>174.13999999999999</ele>
        <time>2025-05-04T17:07:43Z</time>
      </trkpt>
      <trkpt lat="38.737143035978079" lon="-9.228040035814047">
        <ele>174.62</ele>
        <time>2025-05-04T17:07:55Z</time>
      </trkpt>
      <trkpt lat="38.735050996765494" lon="-9.226275980472565">
        <ele>175.09999999999999</ele>
        <time>2025-05-04T17:08:07Z</time>
      </trkpt>
      <trkpt lat="38.733717016875744" lon="-9.224667996168137">
        <ele>164.52000000000001</ele>
        <time>2025-05-04T17:08:16Z</time>
      </trkpt>
      <trkpt lat="38.732412038370967" lon="-9.223058000206947">
        <ele>152.03</ele>
        <time>2025-05-04T17:08:25Z</time>
      </trkpt>
      <trkpt lat="38.73227197676897" lon="-9.222880974411964">
        <ele>150.58000000000001</ele>
        <time>2025-05-04T17:08:26Z</time>
      </trkpt>
      <trkpt lat="38.730488978326321" lon="-9.220646023750305">
        <ele>132.80000000000001</ele>
        <time>2025-05-04T17:08:38Z</time>
      </trkpt>
      <trkpt lat="38.728481009602547" lon="-9.218001030385494">
        <ele>112.13</ele>
        <time>2025-05-04T17:08:52Z</time>
      </trkpt>
      <trkpt lat="38.726787026971579" lon="-9.215682009235025">
        <ele>90.980000000000004</ele>
        <time>2025-05-04T17:09:04Z</time>
      </trkpt>
      <trkpt lat="38.725068988278508" lon="-9.213538002222776">
        <ele>83.290000000000006</ele>
        <time>2025-05-04T17:09:17Z</time>
      </trkpt>
      <trkpt lat="38.723176019266248" lon="-9.211769001558423">
        <ele>84.730000000000004</ele>
        <time>2025-05-04T17:09:29Z</time>
      </trkpt>
      <trkpt lat="38.721242984756827" lon="-9.210206028074026">
        <ele>88.099999999999994</ele>
        <time>2025-05-04T17:09:41Z</time>
      </trkpt>
      <trkpt lat="38.720192983746529" lon="-9.209745023399591">
        <ele>94.829999999999998</ele>
        <time>2025-05-04T17:09:47Z</time>
      </trkpt>
      <trkpt lat="38.719838010147214" lon="-9.209609990939498">
        <ele>97.709999999999994</ele>
        <time>2025-05-04T17:09:50Z</time>
      </trkpt>
      <trkpt lat="38.719737008213997" lon="-9.209574032574892">
        <ele>98.189999999999998</ele>
        <time>2025-05-04T17:09:51Z</time>
      </trkpt>
      <trkpt lat="38.719403995200992" lon="-9.209440005943179">
        <ele>101.08</ele>
        <time>2025-05-04T17:09:54Z</time>
      </trkpt>
      <trkpt lat="38.719187993556261" lon="-9.209416033700109">
        <ele>102.04000000000001</ele>
        <time>2025-05-04T17:09:56Z</time>
      </trkpt>
      <trkpt lat="38.719079028815031" lon="-9.209403963759542">
        <ele>102.52</ele>
        <time>2025-05-04T17:09:57Z</time>
      </trkpt>
      <trkpt lat="38.718989007174969" lon="-9.209415027871728">
        <ele>103.48</ele>
        <time>2025-05-04T17:09:58Z</time>
      </trkpt>
      <trkpt lat="38.718904014676809" lon="-9.20946498401463">
        <ele>103.95999999999999</ele>
        <time>2025-05-04T17:09:59Z</time>
      </trkpt>
      <trkpt lat="38.71882002800703" lon="-9.209516029804945">
        <ele>104.92</ele>
        <time>2025-05-04T17:10:00Z</time>
      </trkpt>
      <trkpt lat="38.718779040500522" lon="-9.209622982889414">
        <ele>105.40000000000001</ele>
        <time>2025-05-04T17:10:01Z</time>
      </trkpt>
      <trkpt lat="38.718748027458787" lon="-9.209748040884733">
        <ele>106.36</ele>
        <time>2025-05-04T17:10:02Z</time>
      </trkpt>
      <trkpt lat="38.718732018023729" lon="-9.210012992843986">
        <ele>107.81</ele>
        <time>2025-05-04T17:10:04Z</time>
      </trkpt>
      <trkpt lat="38.718745009973645" lon="-9.210142996162176">
        <ele>108.29000000000001</ele>
        <time>2025-05-04T17:10:05Z</time>
      </trkpt>
      <trkpt lat="38.718756996095181" lon="-9.210262019187212">
        <ele>108.29000000000001</ele>
        <time>2025-05-04T17:10:06Z</time>
      </trkpt>
      <trkpt lat="38.718827990815043" lon="-9.210340976715088">
        <ele>107.81</ele>
        <time>2025-05-04T17:10:07Z</time>
      </trkpt>
      <trkpt lat="38.718908959999681" lon="-9.210392022505403">
        <ele>107.81</ele>
        <time>2025-05-04T17:10:08Z</time>
      </trkpt>
      <trkpt lat="38.719009039923549" lon="-9.210441978648305">
        <ele>107.81</ele>
        <time>2025-05-04T17:10:09Z</time>
      </trkpt>
      <trkpt lat="38.719095038250089" lon="-9.210398979485035">
        <ele>107.81</ele>
        <time>2025-05-04T17:10:10Z</time>
      </trkpt>
      <trkpt lat="38.719167038798332" lon="-9.21032102778554">
        <ele>107.81</ele>
        <time>2025-05-04T17:10:11Z</time>
      </trkpt>
      <trkpt lat="38.719231998547912" lon="-9.210223965346813">
        <ele>108.29000000000001</ele>
        <time>2025-05-04T17:10:12Z</time>
      </trkpt>
      <trkpt lat="38.719280026853085" lon="-9.210110977292061">
        <ele>108.29000000000001</ele>
        <time>2025-05-04T17:10:13Z</time>
      </trkpt>
      <trkpt lat="38.719322020187974" lon="-9.20997996814549">
        <ele>108.29000000000001</ele>
        <time>2025-05-04T17:10:14Z</time>
      </trkpt>
      <trkpt lat="38.719364013522863" lon="-9.20985097065568">
        <ele>108.77</ele>
        <time>2025-05-04T17:10:15Z</time>
      </trkpt>
      <trkpt lat="38.719774978235364" lon="-9.208496036008">
        <ele>112.61</ele>
        <time>2025-05-04T17:10:25Z</time>
      </trkpt>
      <trkpt lat="38.72034796513617" lon="-9.206642964854837">
        <ele>116.45999999999999</ele>
        <time>2025-05-04T17:10:35Z</time>
      </trkpt>
      <trkpt lat="38.720905026420951" lon="-9.205031041055918">
        <ele>122.70999999999999</ele>
        <time>2025-05-04T17:10:43Z</time>
      </trkpt>
      <trkpt lat="38.721684040501714" lon="-9.202585034072399">
        <ele>134.72</ele>
        <time>2025-05-04T17:10:54Z</time>
      </trkpt>
      <trkpt lat="38.722861027345061" lon="-9.199294969439507">
        <ele>151.06</ele>
        <time>2025-05-04T17:11:08Z</time>
      </trkpt>
      <trkpt lat="38.723879009485245" lon="-9.196498012170196">
        <ele>164.52000000000001</ele>
        <time>2025-05-04T17:11:19Z</time>
      </trkpt>
      <trkpt lat="38.724939990788698" lon="-9.193563004955649">
        <ele>171.25</ele>
        <time>2025-05-04T17:11:29Z</time>
      </trkpt>
      <trkpt lat="38.725388003513217" lon="-9.191272985190153">
        <ele>168.84999999999999</ele>
        <time>2025-05-04T17:11:37Z</time>
      </trkpt>
      <trkpt lat="38.725518006831408" lon="-9.189261998981237">
        <ele>159.24000000000001</ele>
        <time>2025-05-04T17:11:45Z</time>
      </trkpt>
      <trkpt lat="38.725261017680168" lon="-9.186866031959653">
        <ele>144.34</ele>
        <time>2025-05-04T17:11:54Z</time>
      </trkpt>
      <trkpt lat="38.724890034645796" lon="-9.184679025784135">
        <ele>127.98999999999999</ele>
        <time>2025-05-04T17:12:03Z</time>
      </trkpt>
      <trkpt lat="38.724615024402738" lon="-9.182485984638333">
        <ele>111.65000000000001</ele>
        <time>2025-05-04T17:12:12Z</time>
      </trkpt>
      <trkpt lat="38.724310006946325" lon="-9.180652024224401">
        <ele>96.75</ele>
        <time>2025-05-04T17:12:19Z</time>
      </trkpt>
      <trkpt lat="38.723573992028832" lon="-9.177507972344756">
        <ele>70.790000000000006</ele>
        <time>2025-05-04T17:12:32Z</time>
      </trkpt>
      <trkpt lat="38.722936967387795" lon="-9.174747979268432">
        <ele>66.469999999999999</ele>
        <time>2025-05-04T17:12:44Z</time>
      </trkpt>
      <trkpt lat="38.722505969926715" lon="-9.172878982499242">
        <ele>66.950000000000003</ele>
        <time>2025-05-04T17:12:54Z</time>
      </trkpt>
      <trkpt lat="38.722358029335737" lon="-9.172252016142011">
        <ele>67.909999999999997</ele>
        <time>2025-05-04T17:13:01Z</time>
      </trkpt>
      <trkpt lat="38.722308995202184" lon="-9.171837028115988">
        <ele>69.349999999999994</ele>
        <time>2025-05-04T17:13:10Z</time>
      </trkpt>
      <trkpt lat="38.722291979938745" lon="-9.171518012881279">
        <ele>69.829999999999998</ele>
        <time>2025-05-04T17:13:18Z</time>
      </trkpt>
      <trkpt lat="38.722289968281984" lon="-9.171463027596474">
        <ele>69.829999999999998</ele>
        <time>2025-05-04T17:13:19Z</time>
      </trkpt>
      <trkpt lat="38.722288040444255" lon="-9.17143302038312">
        <ele>69.349999999999994</ele>
        <time>2025-05-04T17:13:20Z</time>
      </trkpt>
      <trkpt lat="38.722286028787494" lon="-9.171394966542721">
        <ele>68.870000000000005</ele>
        <time>2025-05-04T17:13:21Z</time>
      </trkpt>
      <trkpt lat="38.722286028787494" lon="-9.171394966542721">
        <ele>68.870000000000005</ele>
        <time>2025-05-04T17:13:22Z</time>
      </trkpt>
      <trkpt lat="38.722284017130733" lon="-9.171358002349734">
        <ele>68.390000000000001</ele>
        <time>2025-05-04T17:13:23Z</time>
      </trkpt>
      <trkpt lat="38.722280999645591" lon="-9.171291030943394">
        <ele>68.390000000000001</ele>
        <time>2025-05-04T17:13:24Z</time>
      </trkpt>
      <trkpt lat="38.722314024344087" lon="-9.170820973813534">
        <ele>69.829999999999998</ele>
        <time>2025-05-04T17:13:34Z</time>
      </trkpt>
      <trkpt lat="38.722357023507357" lon="-9.170527020469308">
        <ele>71.269999999999996</ele>
        <time>2025-05-04T17:13:42Z</time>
      </trkpt>
      <trkpt lat="38.72257998213172" lon="-9.169359002262354">
        <ele>78</ele>
        <time>2025-05-04T17:13:53Z</time>
      </trkpt>
      <trkpt lat="38.722791038453579" lon="-9.168554004281759">
        <ele>84.730000000000004</ele>
        <time>2025-05-04T17:14:04Z</time>
      </trkpt>
      <trkpt lat="38.7228590156883" lon="-9.168282011523843">
        <ele>86.659999999999997</ele>
        <time>2025-05-04T17:14:12Z</time>
      </trkpt>
      <trkpt lat="38.722883993759751" lon="-9.168154019862413">
        <ele>87.620000000000005</ele>
        <time>2025-05-04T17:14:21Z</time>
      </trkpt>
      <trkpt lat="38.722949959337711" lon="-9.167809020727873">
        <ele>88.099999999999994</ele>
        <time>2025-05-04T17:14:28Z</time>
      </trkpt>
      <trkpt lat="38.722972003743052" lon="-9.167696032673121">
        <ele>89.060000000000002</ele>
        <time>2025-05-04T17:14:31Z</time>
      </trkpt>
      <trkpt lat="38.722972003743052" lon="-9.167696032673121">
        <ele>89.540000000000006</ele>
        <time>2025-05-04T17:14:32Z</time>
      </trkpt>
      <trkpt lat="38.723076023161411" lon="-9.167130002751946">
        <ele>93.390000000000001</ele>
        <time>2025-05-04T17:14:41Z</time>
      </trkpt>
      <trkpt lat="38.723122961819172" lon="-9.166840994730592">
        <ele>94.349999999999994</ele>
        <time>2025-05-04T17:14:49Z</time>
      </trkpt>
      <trkpt lat="38.723128996789455" lon="-9.166801013052464">
        <ele>94.349999999999994</ele>
        <time>2025-05-04T17:14:50Z</time>
      </trkpt>
      <trkpt lat="38.723207032307982" lon="-9.166374038904905">
        <ele>96.269999999999996</ele>
        <time>2025-05-04T17:14:57Z</time>
      </trkpt>
      <trkpt lat="38.723207032307982" lon="-9.166374038904905">
        <ele>96.75</ele>
        <time>2025-05-04T17:14:58Z</time>
      </trkpt>
      <trkpt lat="38.723221030086279" lon="-9.166303966194391">
        <ele>97.230000000000004</ele>
        <time>2025-05-04T17:14:59Z</time>
      </trkpt>
      <trkpt lat="38.723234022036195" lon="-9.166226014494896">
        <ele>97.230000000000004</ele>
        <time>2025-05-04T17:15:00Z</time>
      </trkpt>
      <trkpt lat="38.72324500232935" lon="-9.166159965097904">
        <ele>97.709999999999994</ele>
        <time>2025-05-04T17:15:01Z</time>
      </trkpt>
      <trkpt lat="38.723189011216164" lon="-9.166082013398409">
        <ele>98.189999999999998</ele>
        <time>2025-05-04T17:15:02Z</time>
      </trkpt>
      <trkpt lat="38.723145006224513" lon="-9.166021998971701">
        <ele>98.189999999999998</ele>
        <time>2025-05-04T17:15:03Z</time>
      </trkpt>
      <trkpt lat="38.723105024546385" lon="-9.165967013686895">
        <ele>98.670000000000002</ele>
        <time>2025-05-04T17:15:04Z</time>
      </trkpt>
      <trkpt lat="38.72307300567627" lon="-9.165924014523625">
        <ele>99.150000000000006</ele>
        <time>2025-05-04T17:15:05Z</time>
      </trkpt>
      <trkpt lat="38.723055990412831" lon="-9.165913034230471">
        <ele>99.150000000000006</ele>
        <time>2025-05-04T17:15:06Z</time>
      </trkpt>
      <trkpt lat="38.723055990412831" lon="-9.165913034230471">
        <ele>99.629999999999995</ele>
        <time>2025-05-04T17:15:17Z</time>
      </trkpt>
      <trkpt lat="38.722840994596481" lon="-9.16578596457839">
        <ele>102.04000000000001</ele>
        <time>2025-05-04T17:15:43Z</time>
      </trkpt>
      <trkpt lat="38.722740998491645" lon="-9.165727039799094">
        <ele>103</ele>
        <time>2025-05-04T17:15:45Z</time>
      </trkpt>
      <trkpt lat="38.72260102070868" lon="-9.165644980967045">
        <ele>103.48</ele>
        <time>2025-05-04T17:15:47Z</time>
      </trkpt>
      <trkpt lat="38.722290974110365" lon="-9.165123039856553">
        <ele>104.44</ele>
        <time>2025-05-04T17:15:55Z</time>
      </trkpt>
      <trkpt lat="38.722229031845927" lon="-9.16498800739646">
        <ele>104.92</ele>
        <time>2025-05-04T17:16:01Z</time>
      </trkpt>
      <trkpt lat="38.722229031845927" lon="-9.16498800739646">
        <ele>105.40000000000001</ele>
        <time>2025-05-04T17:16:04Z</time>
      </trkpt>
      <trkpt lat="38.722177986055613" lon="-9.164891028776765">
        <ele>105.40000000000001</ele>
        <time>2025-05-04T17:16:10Z</time>
      </trkpt>
      <trkpt lat="38.722158959135413" lon="-9.164855992421508">
        <ele>105.40000000000001</ele>
        <time>2025-05-04T17:16:11Z</time>
      </trkpt>
      <trkpt lat="38.72195603325963" lon="-9.164488026872277">
        <ele>106.36</ele>
        <time>2025-05-04T17:16:18Z</time>
      </trkpt>
      <trkpt lat="38.72195603325963" lon="-9.164488026872277">
        <ele>105.88</ele>
        <time>2025-05-04T17:16:32Z</time>
      </trkpt>
      <trkpt lat="38.721812032163143" lon="-9.164266996085644">
        <ele>106.36</ele>
        <time>2025-05-04T17:16:44Z</time>
      </trkpt>
      <trkpt lat="38.721367036923766" lon="-9.163532992824912">
        <ele>106.84</ele>
        <time>2025-05-04T17:16:54Z</time>
      </trkpt>
      <trkpt lat="38.721078028902411" lon="-9.163048015907407">
        <ele>108.29000000000001</ele>
        <time>2025-05-04T17:16:59Z</time>
      </trkpt>
      <trkpt lat="38.721078028902411" lon="-9.163048015907407">
        <ele>108.29000000000001</ele>
        <time>2025-05-04T17:17:00Z</time>
      </trkpt>
      <trkpt lat="38.720992030575871" lon="-9.162849029526115">
        <ele>108.77</ele>
        <time>2025-05-04T17:17:01Z</time>
      </trkpt>
      <trkpt lat="38.720992030575871" lon="-9.162738975137472">
        <ele>108.77</ele>
        <time>2025-05-04T17:17:02Z</time>
      </trkpt>
      <trkpt lat="38.720992030575871" lon="-9.162640990689397">
        <ele>109.25</ele>
        <time>2025-05-04T17:17:03Z</time>
      </trkpt>
      <trkpt lat="38.720999993383884" lon="-9.16251802816987">
        <ele>109.73</ele>
        <time>2025-05-04T17:17:04Z</time>
      </trkpt>
      <trkpt lat="38.721008040010929" lon="-9.161886032670736">
        <ele>113.09</ele>
        <time>2025-05-04T17:17:12Z</time>
      </trkpt>
      <trkpt lat="38.720999993383884" lon="-9.161827024072409">
        <ele>114.05</ele>
        <time>2025-05-04T17:17:23Z</time>
      </trkpt>
      <trkpt lat="38.720994964241982" lon="-9.161787964403629">
        <ele>114.05</ele>
        <time>2025-05-04T17:17:28Z</time>
      </trkpt>
      <trkpt lat="38.720992030575871" lon="-9.161767009645701">
        <ele>114.05</ele>
        <time>2025-05-04T17:17:29Z</time>
      </trkpt>
      <trkpt lat="38.720988007262349" lon="-9.161735996603966">
        <ele>114.53</ele>
        <time>2025-05-04T17:17:30Z</time>
      </trkpt>
      <trkpt lat="38.720979960635304" lon="-9.161676988005638">
        <ele>115.01000000000001</ele>
        <time>2025-05-04T17:17:31Z</time>
      </trkpt>
      <trkpt lat="38.720970991998911" lon="-9.161611022427678">
        <ele>115.5</ele>
        <time>2025-05-04T17:17:32Z</time>
      </trkpt>
      <trkpt lat="38.720928998664021" lon="-9.161375993862748">
        <ele>117.42</ele>
        <time>2025-05-04T17:17:37Z</time>
      </trkpt>
      <trkpt lat="38.720920030027628" lon="-9.161321008577943">
        <ele>117.90000000000001</ele>
        <time>2025-05-04T17:17:38Z</time>
      </trkpt>
      <trkpt lat="38.720910977572203" lon="-9.161271974444389">
        <ele>117.90000000000001</ele>
        <time>2025-05-04T17:17:39Z</time>
      </trkpt>
      <trkpt lat="38.720763958990574" lon="-9.160603014752269">
        <ele>118.38</ele>
        <time>2025-05-04T17:17:47Z</time>
      </trkpt>
      <trkpt lat="38.720718026161194" lon="-9.160411991178989">
        <ele>118.38</ele>
        <time>2025-05-04T17:17:49Z</time>
      </trkpt>
      <trkpt lat="38.720693970099092" lon="-9.160319035872817">
        <ele>117.90000000000001</ele>
        <time>2025-05-04T17:17:50Z</time>
      </trkpt>
      <trkpt lat="38.720592968165874" lon="-9.159928020089865">
        <ele>116.45999999999999</ele>
        <time>2025-05-04T17:17:55Z</time>
      </trkpt>
      <trkpt lat="38.720533959567547" lon="-9.159653009846807">
        <ele>112.13</ele>
        <time>2025-05-04T17:18:04Z</time>
      </trkpt>
      <trkpt lat="38.720532031729817" lon="-9.159643035382032">
        <ele>112.13</ele>
        <time>2025-05-04T17:18:20Z</time>
      </trkpt>
      <trkpt lat="38.720523985102773" lon="-9.159606993198395">
        <ele>111.65000000000001</ele>
        <time>2025-05-04T17:18:21Z</time>
      </trkpt>
      <trkpt lat="38.720365986227989" lon="-9.158909032121301">
        <ele>104.44</ele>
        <time>2025-05-04T17:18:29Z</time>
      </trkpt>
      <trkpt lat="38.720335979014635" lon="-9.158677021041513">
        <ele>102.04000000000001</ele>
        <time>2025-05-04T17:18:32Z</time>
      </trkpt>
      <trkpt lat="38.720314018428326" lon="-9.158421037718654">
        <ele>101.56</ele>
        <time>2025-05-04T17:18:33Z</time>
      </trkpt>
      <trkpt lat="38.72051996178925" lon="-9.157064007595182">
        <ele>91.459999999999994</ele>
        <time>2025-05-04T17:18:44Z</time>
      </trkpt>
      <trkpt lat="38.720706040039659" lon="-9.156642984598875">
        <ele>84.25</ele>
        <time>2025-05-04T17:18:49Z</time>
      </trkpt>
      <trkpt lat="38.720729006454349" lon="-9.15658799931407">
        <ele>82.810000000000002</ele>
        <time>2025-05-04T17:18:50Z</time>
      </trkpt>
      <trkpt lat="38.720752978697419" lon="-9.156533014029265">
        <ele>81.370000000000005</ele>
        <time>2025-05-04T17:18:51Z</time>
      </trkpt>
      <trkpt lat="38.720778962597251" lon="-9.156470987945795">
        <ele>79.930000000000007</ele>
        <time>2025-05-04T17:18:52Z</time>
      </trkpt>
      <trkpt lat="38.720808969810605" lon="-9.156402004882693">
        <ele>78.969999999999999</ele>
        <time>2025-05-04T17:18:53Z</time>
      </trkpt>
      <trkpt lat="38.720822967588902" lon="-9.156336961314082">
        <ele>77.519999999999996</ele>
        <time>2025-05-04T17:18:54Z</time>
      </trkpt>
      <trkpt lat="38.720830008387566" lon="-9.156254986301065">
        <ele>76.079999999999998</ele>
        <time>2025-05-04T17:18:55Z</time>
      </trkpt>
      <trkpt lat="38.720835959538817" lon="-9.156175022944808">
        <ele>75.120000000000005</ele>
        <time>2025-05-04T17:18:56Z</time>
      </trkpt>
      <trkpt lat="38.720841994509101" lon="-9.156093969941139">
        <ele>73.680000000000007</ele>
        <time>2025-05-04T17:18:57Z</time>
      </trkpt>
      <trkpt lat="38.72081802226603" lon="-9.156002020463347">
        <ele>73.200000000000003</ele>
        <time>2025-05-04T17:18:58Z</time>
      </trkpt>
      <trkpt lat="38.720798995345831" lon="-9.15592398494482">
        <ele>72.239999999999995</ele>
        <time>2025-05-04T17:18:59Z</time>
      </trkpt>
      <trkpt lat="38.720755996182561" lon="-9.155860031023622">
        <ele>71.269999999999996</ele>
        <time>2025-05-04T17:19:00Z</time>
      </trkpt>
      <trkpt lat="38.720698999240994" lon="-9.155789958313108">
        <ele>70.310000000000002</ele>
        <time>2025-05-04T17:19:01Z</time>
      </trkpt>
      <trkpt lat="38.720650970935822" lon="-9.155732039362192">
        <ele>69.349999999999994</ele>
        <time>2025-05-04T17:19:02Z</time>
      </trkpt>
      <trkpt lat="38.720610989257693" lon="-9.155683005228639">
        <ele>68.390000000000001</ele>
        <time>2025-05-04T17:19:03Z</time>
      </trkpt>
      <trkpt lat="38.72056296095252" lon="-9.155623996630311">
        <ele>67.430000000000007</ele>
        <time>2025-05-04T17:19:04Z</time>
      </trkpt>
      <trkpt lat="38.720510993152857" lon="-9.155614022165537">
        <ele>66.469999999999999</ele>
        <time>2025-05-04T17:19:05Z</time>
      </trkpt>
      <trkpt lat="38.720256015658379" lon="-9.155572028830648">
        <ele>60.219999999999999</ele>
        <time>2025-05-04T17:19:14Z</time>
      </trkpt>
      <trkpt lat="38.720133975148201" lon="-9.155559958890081">
        <ele>59.259999999999998</ele>
        <time>2025-05-04T17:19:36Z</time>
      </trkpt>
      <trkpt lat="38.720092987641692" lon="-9.155574962496758">
        <ele>58.780000000000001</ele>
        <time>2025-05-04T17:19:37Z</time>
      </trkpt>
      <trkpt lat="38.720034984871745" lon="-9.155597006902099">
        <ele>58.299999999999997</ele>
        <time>2025-05-04T17:19:38Z</time>
      </trkpt>
      <trkpt lat="38.719969019293785" lon="-9.155620979145169">
        <ele>57.82</ele>
        <time>2025-05-04T17:19:40Z</time>
      </trkpt>
      <trkpt lat="38.719362001866102" lon="-9.155662972480059">
        <ele>54.450000000000003</ele>
        <time>2025-05-04T17:19:49Z</time>
      </trkpt>
      <trkpt lat="38.719316991046071" lon="-9.155660038813949">
        <ele>54.450000000000003</ele>
        <time>2025-05-04T17:19:50Z</time>
      </trkpt>
      <trkpt lat="38.719276003539562" lon="-9.155657021328807">
        <ele>53.969999999999999</ele>
        <time>2025-05-04T17:19:51Z</time>
      </trkpt>
      <trkpt lat="38.719158992171288" lon="-9.155648974701762">
        <ele>53.009999999999998</ele>
        <time>2025-05-04T17:19:54Z</time>
      </trkpt>
      <trkpt lat="38.719118004664779" lon="-9.155646963045001">
        <ele>52.530000000000001</ele>
        <time>2025-05-04T17:19:55Z</time>
      </trkpt>
      <trkpt lat="38.719079028815031" lon="-9.155644029378891">
        <ele>52.530000000000001</ele>
        <time>2025-05-04T17:19:56Z</time>
      </trkpt>
      <trkpt lat="38.719039969146252" lon="-9.155641011893749">
        <ele>52.049999999999997</ele>
        <time>2025-05-04T17:19:57Z</time>
      </trkpt>
      <trkpt lat="38.71899101883173" lon="-9.155637994408608">
        <ele>51.57</ele>
        <time>2025-05-04T17:19:58Z</time>
      </trkpt>
      <trkpt lat="38.718934021890163" lon="-9.155633971095085">
        <ele>51.090000000000003</ele>
        <time>2025-05-04T17:19:59Z</time>
      </trkpt>
      <trkpt lat="38.718881970271468" lon="-9.155631037428975">
        <ele>51.090000000000003</ele>
        <time>2025-05-04T17:20:00Z</time>
      </trkpt>
      <trkpt lat="38.718828996643424" lon="-9.155627014115453">
        <ele>50.609999999999999</ele>
        <time>2025-05-04T17:20:01Z</time>
      </trkpt>
      <trkpt lat="38.71877602301538" lon="-9.15562299080193">
        <ele>50.609999999999999</ele>
        <time>2025-05-04T17:20:02Z</time>
      </trkpt>
      <trkpt lat="38.718716008588672" lon="-9.155615027993918">
        <ele>50.609999999999999</ele>
        <time>2025-05-04T17:20:03Z</time>
      </trkpt>
      <trkpt lat="38.718654988333583" lon="-9.155606981366873">
        <ele>50.609999999999999</ele>
        <time>2025-05-04T17:20:04Z</time>
      </trkpt>
      <trkpt lat="38.718421971425414" lon="-9.155569011345506">
        <ele>50.609999999999999</ele>
        <time>2025-05-04T17:20:08Z</time>
      </trkpt>
      <trkpt lat="38.718170011416078" lon="-9.155490975826979">
        <ele>49.649999999999999</ele>
        <time>2025-05-04T17:20:13Z</time>
      </trkpt>
      <trkpt lat="38.717614961788058" lon="-9.155304981395602">
        <ele>50.130000000000003</ele>
        <time>2025-05-04T17:20:21Z</time>
      </trkpt>
      <trkpt lat="38.717409018427134" lon="-9.155229041352868">
        <ele>49.159999999999997</ele>
        <time>2025-05-04T17:20:25Z</time>
      </trkpt>
      <trkpt lat="38.717327965423465" lon="-9.155199034139514">
        <ele>48.68</ele>
        <time>2025-05-04T17:20:27Z</time>
      </trkpt>
      <trkpt lat="38.717295024544001" lon="-9.155186964198947">
        <ele>48.68</ele>
        <time>2025-05-04T17:20:28Z</time>
      </trkpt>
      <trkpt lat="38.717261999845505" lon="-9.155173972249031">
        <ele>48.200000000000003</ele>
        <time>2025-05-04T17:20:29Z</time>
      </trkpt>
      <trkpt lat="38.717924002557993" lon="-9.155415035784245">
        <ele>79.930000000000007</ele>
        <time>2025-05-06T07:12:15Z</time>
      </trkpt>
      <trkpt lat="38.718141010031104" lon="-9.155482007190585">
        <ele>76.079999999999998</ele>
        <time>2025-05-06T07:12:19Z</time>
      </trkpt>
      <trkpt lat="38.718195995315909" lon="-9.155499022454023">
        <ele>75.599999999999994</ele>
        <time>2025-05-06T07:12:20Z</time>
      </trkpt>
      <trkpt lat="38.718323986977339" lon="-9.155539004132152">
        <ele>74.159999999999997</ele>
        <time>2025-05-06T07:12:22Z</time>
      </trkpt>
      <trkpt lat="38.718460025265813" lon="-9.155580997467041">
        <ele>72.719999999999999</ele>
        <time>2025-05-06T07:12:24Z</time>
      </trkpt>
      <trkpt lat="38.718526996672153" lon="-9.155589966103435">
        <ele>72.239999999999995</ele>
        <time>2025-05-06T07:12:25Z</time>
      </trkpt>
      <trkpt lat="38.718913989141583" lon="-9.155632965266705">
        <ele>64.069999999999993</ele>
        <time>2025-05-06T07:12:30Z</time>
      </trkpt>
      <trkpt lat="38.718998981639743" lon="-9.155637994408608">
        <ele>63.579999999999998</ele>
        <time>2025-05-06T07:12:31Z</time>
      </trkpt>
      <trkpt lat="38.719214983284473" lon="-9.155652998015285">
        <ele>62.140000000000001</ele>
        <time>2025-05-06T07:12:35Z</time>
      </trkpt>
      <trkpt lat="38.719426039606333" lon="-9.155666995793581">
        <ele>59.259999999999998</ele>
        <time>2025-05-06T07:12:43Z</time>
      </trkpt>
      <trkpt lat="38.719426039606333" lon="-9.155666995793581">
        <ele>55.890000000000001</ele>
        <time>2025-05-06T07:13:00Z</time>
      </trkpt>
      <trkpt lat="38.719510026276112" lon="-9.155674036592245">
        <ele>54.450000000000003</ele>
        <time>2025-05-06T07:13:02Z</time>
      </trkpt>
      <trkpt lat="38.719633994624019" lon="-9.155684011057019">
        <ele>55.890000000000001</ele>
        <time>2025-05-06T07:13:05Z</time>
      </trkpt>
      <trkpt lat="38.719683028757572" lon="-9.155688034370542">
        <ele>57.82</ele>
        <time>2025-05-06T07:13:06Z</time>
      </trkpt>
      <trkpt lat="38.719685962423682" lon="-9.155683005228639">
        <ele>58.780000000000001</ele>
        <time>2025-05-06T07:13:07Z</time>
      </trkpt>
      <trkpt lat="38.719697026535869" lon="-9.155657021328807">
        <ele>58.780000000000001</ele>
        <time>2025-05-06T07:13:08Z</time>
      </trkpt>
      <trkpt lat="38.719697026535869" lon="-9.155657021328807">
        <ele>71.269999999999996</ele>
        <time>2025-05-06T07:13:19Z</time>
      </trkpt>
      <trkpt lat="38.719814037904143" lon="-9.155397014692426">
        <ele>97.709999999999994</ele>
        <time>2025-05-06T07:13:39Z</time>
      </trkpt>
      <trkpt lat="38.719982011243701" lon="-9.154851017519832">
        <ele>91.459999999999994</ele>
        <time>2025-05-06T07:13:46Z</time>
      </trkpt>
      <trkpt lat="38.72008997015655" lon="-9.154393030330539">
        <ele>86.659999999999997</ele>
        <time>2025-05-06T07:13:55Z</time>
      </trkpt>
      <trkpt lat="38.720102040097117" lon="-9.154339972883463">
        <ele>86.180000000000007</ele>
        <time>2025-05-06T07:13:56Z</time>
      </trkpt>
      <trkpt lat="38.720182003453374" lon="-9.154154984280467">
        <ele>85.209999999999994</ele>
        <time>2025-05-06T07:13:59Z</time>
      </trkpt>
      <trkpt lat="38.720734035596251" lon="-9.153221994638443">
        <ele>84.25</ele>
        <time>2025-05-06T07:14:10Z</time>
      </trkpt>
      <trkpt lat="38.720922041684389" lon="-9.152860986068845">
        <ele>86.180000000000007</ele>
        <time>2025-05-06T07:14:17Z</time>
      </trkpt>
      <trkpt lat="38.721120022237301" lon="-9.152479022741318">
        <ele>87.620000000000005</ele>
        <time>2025-05-06T07:14:26Z</time>
      </trkpt>
      <trkpt lat="38.72116100974381" lon="-9.152391012758017">
        <ele>88.099999999999994</ele>
        <time>2025-05-06T07:14:27Z</time>
      </trkpt>
      <trkpt lat="38.721311967819929" lon="-9.152439963072538">
        <ele>88.579999999999998</ele>
        <time>2025-05-06T07:14:28Z</time>
      </trkpt>
      <trkpt lat="38.721392014995217" lon="-9.152397969737649">
        <ele>89.060000000000002</ele>
        <time>2025-05-06T07:14:29Z</time>
      </trkpt>
      <trkpt lat="38.721470972523093" lon="-9.152358993887901">
        <ele>89.060000000000002</ele>
        <time>2025-05-06T07:14:30Z</time>
      </trkpt>
      <trkpt lat="38.721728967502713" lon="-9.15220501832664">
        <ele>88.099999999999994</ele>
        <time>2025-05-06T07:14:33Z</time>
      </trkpt>
      <trkpt lat="38.721885960549116" lon="-9.152096975594759">
        <ele>86.659999999999997</ele>
        <time>2025-05-06T07:14:35Z</time>
      </trkpt>
      <trkpt lat="38.722068015486002" lon="-9.15199002251029">
        <ele>86.180000000000007</ele>
        <time>2025-05-06T07:14:37Z</time>
      </trkpt>
      <trkpt lat="38.722158037126064" lon="-9.151932019740343">
        <ele>86.180000000000007</ele>
        <time>2025-05-06T07:14:38Z</time>
      </trkpt>
      <trkpt lat="38.722906038165092" lon="-9.151459028944373">
        <ele>83.769999999999996</ele>
        <time>2025-05-06T07:14:46Z</time>
      </trkpt>
      <trkpt lat="38.722992036491632" lon="-9.151406977325678">
        <ele>83.290000000000006</ele>
        <time>2025-05-06T07:14:47Z</time>
      </trkpt>
      <trkpt lat="38.723165038973093" lon="-9.151300024241209">
        <ele>81.849999999999994</ele>
        <time>2025-05-06T07:14:49Z</time>
      </trkpt>
      <trkpt lat="38.723248019814491" lon="-9.151245038956404">
        <ele>81.370000000000005</ele>
        <time>2025-05-06T07:14:50Z</time>
      </trkpt>
      <trkpt lat="38.72333200648427" lon="-9.151189969852567">
        <ele>80.409999999999997</ele>
        <time>2025-05-06T07:14:51Z</time>
      </trkpt>
      <trkpt lat="38.723421022295952" lon="-9.151133978739381">
        <ele>79.450000000000003</ele>
        <time>2025-05-06T07:14:52Z</time>
      </trkpt>
      <trkpt lat="38.723509032279253" lon="-9.151081005111337">
        <ele>78.969999999999999</ele>
        <time>2025-05-06T07:14:53Z</time>
      </trkpt>
      <trkpt lat="38.723600981757045" lon="-9.151029959321022">
        <ele>78.480000000000004</ele>
        <time>2025-05-06T07:14:54Z</time>
      </trkpt>
      <trkpt lat="38.724036002531648" lon="-9.150784034281969">
        <ele>76.079999999999998</ele>
        <time>2025-05-06T07:14:59Z</time>
      </trkpt>
      <trkpt lat="38.724197018891573" lon="-9.150682026520371">
        <ele>75.599999999999994</ele>
        <time>2025-05-06T07:15:01Z</time>
      </trkpt>
      <trkpt lat="38.724254015833139" lon="-9.150645984336734">
        <ele>75.120000000000005</ele>
        <time>2025-05-06T07:15:02Z</time>
      </trkpt>
      <trkpt lat="38.72429802082479" lon="-9.150622012093663">
        <ele>75.120000000000005</ele>
        <time>2025-05-06T07:15:03Z</time>
      </trkpt>
      <trkpt lat="38.724332973361015" lon="-9.150602985173464">
        <ele>74.640000000000001</ele>
        <time>2025-05-06T07:15:04Z</time>
      </trkpt>
      <trkpt lat="38.724359963089228" lon="-9.150588987395167">
        <ele>74.640000000000001</ele>
        <time>2025-05-06T07:15:05Z</time>
      </trkpt>
      <trkpt lat="38.724378990009427" lon="-9.150578007102013">
        <ele>73.200000000000003</ele>
        <time>2025-05-06T07:15:15Z</time>
      </trkpt>
      <trkpt lat="38.724532965570688" lon="-9.150496032088995">
        <ele>69.829999999999998</ele>
        <time>2025-05-06T07:15:44Z</time>
      </trkpt>
      <trkpt lat="38.724511004984379" lon="-9.150367034599185">
        <ele>67.430000000000007</ele>
        <time>2025-05-06T07:15:47Z</time>
      </trkpt>
      <trkpt lat="38.724505975842476" lon="-9.150295034050942">
        <ele>66.469999999999999</ele>
        <time>2025-05-06T07:15:48Z</time>
      </trkpt>
      <trkpt lat="38.724488960579038" lon="-9.150082971900702">
        <ele>65.030000000000001</ele>
        <time>2025-05-06T07:15:51Z</time>
      </trkpt>
      <trkpt lat="38.724484015256166" lon="-9.150018012151122">
        <ele>64.549999999999997</ele>
        <time>2025-05-06T07:15:52Z</time>
      </trkpt>
      <trkpt lat="38.724479991942644" lon="-9.149957997724414">
        <ele>63.579999999999998</ele>
        <time>2025-05-06T07:15:53Z</time>
      </trkpt>
      <trkpt lat="38.724483009427786" lon="-9.149764962494373">
        <ele>60.219999999999999</ele>
        <time>2025-05-06T07:16:01Z</time>
      </trkpt>
      <trkpt lat="38.724572025239468" lon="-9.149496993049979">
        <ele>59.259999999999998</ele>
        <time>2025-05-06T07:16:23Z</time>
      </trkpt>
      <trkpt lat="38.724660035222769" lon="-9.149338994175196">
        <ele>58.780000000000001</ele>
        <time>2025-05-06T07:16:25Z</time>
      </trkpt>
      <trkpt lat="38.724708985537291" lon="-9.149272022768855">
        <ele>59.259999999999998</ele>
        <time>2025-05-06T07:16:26Z</time>
      </trkpt>
      <trkpt lat="38.724758019670844" lon="-9.149203961715102">
        <ele>58.780000000000001</ele>
        <time>2025-05-06T07:16:27Z</time>
      </trkpt>
      <trkpt lat="38.724806969985366" lon="-9.149135984480381">
        <ele>58.780000000000001</ele>
        <time>2025-05-06T07:16:28Z</time>
      </trkpt>
      <trkpt lat="38.724896991625428" lon="-9.149075970053673">
        <ele>58.780000000000001</ele>
        <time>2025-05-06T07:16:29Z</time>
      </trkpt>
      <trkpt lat="38.724971003830433" lon="-9.149046968668699">
        <ele>58.780000000000001</ele>
        <time>2025-05-06T07:16:30Z</time>
      </trkpt>
      <trkpt lat="38.725045016035438" lon="-9.149018973112106">
        <ele>58.299999999999997</ele>
        <time>2025-05-06T07:16:31Z</time>
      </trkpt>
      <trkpt lat="38.725119028240442" lon="-9.148988965898752">
        <ele>58.299999999999997</ele>
        <time>2025-05-06T07:16:32Z</time>
      </trkpt>
      <trkpt lat="38.725219024345279" lon="-9.148950995877385">
        <ele>58.299999999999997</ele>
        <time>2025-05-06T07:16:33Z</time>
      </trkpt>
      <trkpt lat="38.725312985479832" lon="-9.148969016969204">
        <ele>58.299999999999997</ele>
        <time>2025-05-06T07:16:35Z</time>
      </trkpt>
      <trkpt lat="38.725467966869473" lon="-9.149018973112106">
        <ele>57.82</ele>
        <time>2025-05-06T07:16:43Z</time>
      </trkpt>
      <trkpt lat="38.725477019324899" lon="-9.149021990597248">
        <ele>57.82</ele>
        <time>2025-05-06T07:16:44Z</time>
      </trkpt>
      <trkpt lat="38.72575999237597" lon="-9.149182001128793">
        <ele>58.299999999999997</ele>
        <time>2025-05-06T07:16:49Z</time>
      </trkpt>
      <trkpt lat="38.725811960175633" lon="-9.149231035262346">
        <ele>58.780000000000001</ele>
        <time>2025-05-06T07:16:50Z</time>
      </trkpt>
      <trkpt lat="38.725862000137568" lon="-9.149276968091726">
        <ele>58.780000000000001</ele>
        <time>2025-05-06T07:16:51Z</time>
      </trkpt>
      <trkpt lat="38.725914973765612" lon="-9.14932600222528">
        <ele>58.780000000000001</ele>
        <time>2025-05-06T07:16:52Z</time>
      </trkpt>
      <trkpt lat="38.725926959887147" lon="-9.149336982518435">
        <ele>58.780000000000001</ele>
        <time>2025-05-06T07:16:53Z</time>
      </trkpt>
      <trkpt lat="38.726002983748913" lon="-9.149472014978528">
        <ele>58.780000000000001</ele>
        <time>2025-05-06T07:16:54Z</time>
      </trkpt>
      <trkpt lat="38.726042965427041" lon="-9.14956203661859">
        <ele>59.259999999999998</ele>
        <time>2025-05-06T07:16:55Z</time>
      </trkpt>
      <trkpt lat="38.726074984297156" lon="-9.149673013016582">
        <ele>59.259999999999998</ele>
        <time>2025-05-06T07:16:56Z</time>
      </trkpt>
      <trkpt lat="38.726090993732214" lon="-9.149764040485025">
        <ele>59.740000000000002</ele>
        <time>2025-05-06T07:16:57Z</time>
      </trkpt>
      <trkpt lat="38.726099040359259" lon="-9.149840986356139">
        <ele>59.740000000000002</ele>
        <time>2025-05-06T07:16:58Z</time>
      </trkpt>
      <trkpt lat="38.726099040359259" lon="-9.149920027703047">
        <ele>60.219999999999999</ele>
        <time>2025-05-06T07:16:59Z</time>
      </trkpt>
      <trkpt lat="38.726099040359259" lon="-9.150138963013887">
        <ele>60.700000000000003</ele>
        <time>2025-05-06T07:17:03Z</time>
      </trkpt>
      <trkpt lat="38.726099040359259" lon="-9.150210041552782">
        <ele>61.18</ele>
        <time>2025-05-06T07:17:04Z</time>
      </trkpt>
      <trkpt lat="38.726044977083802" lon="-9.150423025712371">
        <ele>61.18</ele>
        <time>2025-05-06T07:17:11Z</time>
      </trkpt>
      <trkpt lat="38.726012036204338" lon="-9.150518998503685">
        <ele>62.140000000000001</ele>
        <time>2025-05-06T07:17:19Z</time>
      </trkpt>
      <trkpt lat="38.726012036204338" lon="-9.150518998503685">
        <ele>62.140000000000001</ele>
        <time>2025-05-06T07:18:05Z</time>
      </trkpt>
      <trkpt lat="38.725950010120869" lon="-9.150655036792159">
        <ele>62.619999999999997</ele>
        <time>2025-05-06T07:18:15Z</time>
      </trkpt>
      <trkpt lat="38.725869040936232" lon="-9.15076500736177">
        <ele>62.140000000000001</ele>
        <time>2025-05-06T07:18:17Z</time>
      </trkpt>
      <trkpt lat="38.725767033174634" lon="-9.150855029001832">
        <ele>62.140000000000001</ele>
        <time>2025-05-06T07:18:19Z</time>
      </trkpt>
      <trkpt lat="38.725713975727558" lon="-9.150901967659593">
        <ele>61.659999999999997</ele>
        <time>2025-05-06T07:18:20Z</time>
      </trkpt>
      <trkpt lat="38.725658990442753" lon="-9.150925017893314">
        <ele>61.659999999999997</ele>
        <time>2025-05-06T07:18:21Z</time>
      </trkpt>
      <trkpt lat="38.725486993789673" lon="-9.150994000956416">
        <ele>61.659999999999997</ele>
        <time>2025-05-06T07:18:24Z</time>
      </trkpt>
      <trkpt lat="38.725427985191345" lon="-9.151016967371106">
        <ele>61.659999999999997</ele>
        <time>2025-05-06T07:18:25Z</time>
      </trkpt>
      <trkpt lat="38.725377023220062" lon="-9.151160968467593">
        <ele>61.659999999999997</ele>
        <time>2025-05-06T07:18:26Z</time>
      </trkpt>
      <trkpt lat="38.725368976593018" lon="-9.151243027299643">
        <ele>61.659999999999997</ele>
        <time>2025-05-06T07:18:27Z</time>
      </trkpt>
      <trkpt lat="38.725357996299863" lon="-9.15134503506124">
        <ele>62.140000000000001</ele>
        <time>2025-05-06T07:18:28Z</time>
      </trkpt>
      <trkpt lat="38.725348021835089" lon="-9.151440002024174">
        <ele>62.619999999999997</ele>
        <time>2025-05-06T07:18:29Z</time>
      </trkpt>
      <trkpt lat="38.725342992693186" lon="-9.151574028655887">
        <ele>62.619999999999997</ele>
        <time>2025-05-06T07:18:30Z</time>
      </trkpt>
      <trkpt lat="38.725236039608717" lon="-9.152491008862853">
        <ele>67.430000000000007</ele>
        <time>2025-05-06T07:18:39Z</time>
      </trkpt>
      <trkpt lat="38.725211983546615" lon="-9.152821004390717">
        <ele>68.870000000000005</ele>
        <time>2025-05-06T07:18:42Z</time>
      </trkpt>
      <trkpt lat="38.725204020738602" lon="-9.152933992445469">
        <ele>69.349999999999994</ele>
        <time>2025-05-06T07:18:43Z</time>
      </trkpt>
      <trkpt lat="38.725193040445447" lon="-9.153075981885195">
        <ele>69.349999999999994</ele>
        <time>2025-05-06T07:18:44Z</time>
      </trkpt>
      <trkpt lat="38.725181976333261" lon="-9.153227023780346">
        <ele>69.349999999999994</ele>
        <time>2025-05-06T07:18:45Z</time>
      </trkpt>
      <trkpt lat="38.725166972726583" lon="-9.153445037081838">
        <ele>68.870000000000005</ele>
        <time>2025-05-06T07:18:47Z</time>
      </trkpt>
      <trkpt lat="38.725156998261809" lon="-9.153572022914887">
        <ele>68.870000000000005</ele>
        <time>2025-05-06T07:18:48Z</time>
      </trkpt>
      <trkpt lat="38.724865978583694" lon="-9.157385034486651">
        <ele>68.870000000000005</ele>
        <time>2025-05-06T07:19:19Z</time>
      </trkpt>
      <trkpt lat="38.724760031327605" lon="-9.158489014953375">
        <ele>68.870000000000005</ele>
        <time>2025-05-06T07:19:28Z</time>
      </trkpt>
      <trkpt lat="38.724656011909246" lon="-9.159093014895916">
        <ele>68.870000000000005</ele>
        <time>2025-05-06T07:19:33Z</time>
      </trkpt>
      <trkpt lat="38.724531037732959" lon="-9.159428039565682">
        <ele>68.870000000000005</ele>
        <time>2025-05-06T07:19:36Z</time>
      </trkpt>
      <trkpt lat="38.724315036088228" lon="-9.160551968961954">
        <ele>72.719999999999999</ele>
        <time>2025-05-06T07:19:46Z</time>
      </trkpt>
      <trkpt lat="38.723638029769063" lon="-9.164100028574467">
        <ele>90.019999999999996</ele>
        <time>2025-05-06T07:19:59Z</time>
      </trkpt>
      <trkpt lat="38.723233016207814" lon="-9.166230037808418">
        <ele>92.900000000000006</ele>
        <time>2025-05-06T07:20:10Z</time>
      </trkpt>
      <trkpt lat="38.722717026248574" lon="-9.168937979266048">
        <ele>80.409999999999997</ele>
        <time>2025-05-06T07:20:24Z</time>
      </trkpt>
      <trkpt lat="38.722369009628892" lon="-9.17117795906961">
        <ele>68.870000000000005</ele>
        <time>2025-05-06T07:20:34Z</time>
      </trkpt>
      <trkpt lat="38.722378984093666" lon="-9.171437965705991">
        <ele>67.909999999999997</ele>
        <time>2025-05-06T07:20:35Z</time>
      </trkpt>
      <trkpt lat="38.722391976043582" lon="-9.171696966513991">
        <ele>66.950000000000003</ele>
        <time>2025-05-06T07:20:36Z</time>
      </trkpt>
      <trkpt lat="38.722425000742078" lon="-9.171955967321992">
        <ele>65.989999999999995</ele>
        <time>2025-05-06T07:20:37Z</time>
      </trkpt>
      <trkpt lat="38.722458025440574" lon="-9.172199964523315">
        <ele>65.030000000000001</ele>
        <time>2025-05-06T07:20:38Z</time>
      </trkpt>
      <trkpt lat="38.722506975755095" lon="-9.172427030280232">
        <ele>64.069999999999993</ele>
        <time>2025-05-06T07:20:39Z</time>
      </trkpt>
      <trkpt lat="38.72311701066792" lon="-9.175081998109818">
        <ele>63.579999999999998</ele>
        <time>2025-05-06T07:20:51Z</time>
      </trkpt>
      <trkpt lat="38.723609028384089" lon="-9.177262969315052">
        <ele>65.510000000000005</ele>
        <time>2025-05-06T07:21:01Z</time>
      </trkpt>
      <trkpt lat="38.723720004782081" lon="-9.177356008440256">
        <ele>66.469999999999999</ele>
        <time>2025-05-06T07:21:02Z</time>
      </trkpt>
      <trkpt lat="38.723777001723647" lon="-9.177461033686996">
        <ele>67.430000000000007</ele>
        <time>2025-05-06T07:21:03Z</time>
      </trkpt>
      <trkpt lat="38.723871968686581" lon="-9.17749498039484">
        <ele>67.909999999999997</ele>
        <time>2025-05-06T07:21:04Z</time>
      </trkpt>
      <trkpt lat="38.723996020853519" lon="-9.177532028406858">
        <ele>68.870000000000005</ele>
        <time>2025-05-06T07:21:05Z</time>
      </trkpt>
      <trkpt lat="38.724178997799754" lon="-9.177476037293673">
        <ele>69.829999999999998</ele>
        <time>2025-05-06T07:21:07Z</time>
      </trkpt>
      <trkpt lat="38.724246975034475" lon="-9.177394984290004">
        <ele>70.310000000000002</ele>
        <time>2025-05-06T07:21:08Z</time>
      </trkpt>
      <trkpt lat="38.724289974197745" lon="-9.177302028983831">
        <ele>70.310000000000002</ele>
        <time>2025-05-06T07:21:09Z</time>
      </trkpt>
      <trkpt lat="38.724318975582719" lon="-9.177187029272318">
        <ele>70.310000000000002</ele>
        <time>2025-05-06T07:21:10Z</time>
      </trkpt>
      <trkpt lat="38.724360968917608" lon="-9.177016960456967">
        <ele>69.829999999999998</ele>
        <time>2025-05-06T07:21:11Z</time>
      </trkpt>
      <trkpt lat="38.724360968917608" lon="-9.176898021250963">
        <ele>69.349999999999994</ele>
        <time>2025-05-06T07:21:12Z</time>
      </trkpt>
      <trkpt lat="38.724336996674538" lon="-9.176713032647967">
        <ele>68.870000000000005</ele>
        <time>2025-05-06T07:21:13Z</time>
      </trkpt>
      <trkpt lat="38.724273964762688" lon="-9.176586968824267">
        <ele>68.390000000000001</ele>
        <time>2025-05-06T07:21:14Z</time>
      </trkpt>
      <trkpt lat="38.72421202249825" lon="-9.17646300047636">
        <ele>67.909999999999997</ele>
        <time>2025-05-06T07:21:15Z</time>
      </trkpt>
      <trkpt lat="38.724211016669869" lon="-9.176458977162838">
        <ele>67.430000000000007</ele>
        <time>2025-05-06T07:21:16Z</time>
      </trkpt>
      <trkpt lat="38.724037008360028" lon="-9.176303995773196">
        <ele>66.950000000000003</ele>
        <time>2025-05-06T07:21:17Z</time>
      </trkpt>
      <trkpt lat="38.723996020853519" lon="-9.176266025751829">
        <ele>66.469999999999999</ele>
        <time>2025-05-06T07:21:18Z</time>
      </trkpt>
      <trkpt lat="38.723850008100271" lon="-9.176221014931798">
        <ele>65.989999999999995</ele>
        <time>2025-05-06T07:21:19Z</time>
      </trkpt>
      <trkpt lat="38.723738025873899" lon="-9.176186984404922">
        <ele>65.510000000000005</ele>
        <time>2025-05-06T07:21:20Z</time>
      </trkpt>
      <trkpt lat="38.72365596704185" lon="-9.176200982183218">
        <ele>65.030000000000001</ele>
        <time>2025-05-06T07:21:21Z</time>
      </trkpt>
      <trkpt lat="38.723544990643859" lon="-9.176238030195236">
        <ele>64.069999999999993</ele>
        <time>2025-05-06T07:21:22Z</time>
      </trkpt>
      <trkpt lat="38.723427979275584" lon="-9.176277006044984">
        <ele>64.069999999999993</ele>
        <time>2025-05-06T07:21:23Z</time>
      </trkpt>
      <trkpt lat="38.723315997049212" lon="-9.176326962187886">
        <ele>63.579999999999998</ele>
        <time>2025-05-06T07:21:24Z</time>
      </trkpt>
      <trkpt lat="38.722543017938733" lon="-9.176782015711069">
        <ele>59.740000000000002</ele>
        <time>2025-05-06T07:21:31Z</time>
      </trkpt>
      <trkpt lat="38.722457019612193" lon="-9.176883017644286">
        <ele>58.780000000000001</ele>
        <time>2025-05-06T07:21:32Z</time>
      </trkpt>
      <trkpt lat="38.722372027114034" lon="-9.176984019577503">
        <ele>58.299999999999997</ele>
        <time>2025-05-06T07:21:33Z</time>
      </trkpt>
      <trkpt lat="38.722316036000848" lon="-9.177116034552455">
        <ele>57.82</ele>
        <time>2025-05-06T07:21:34Z</time>
      </trkpt>
      <trkpt lat="38.722314024344087" lon="-9.177266992628574">
        <ele>57.340000000000003</ele>
        <time>2025-05-06T07:21:35Z</time>
      </trkpt>
      <trkpt lat="38.722332967445254" lon="-9.1774089820683">
        <ele>56.859999999999999</ele>
        <time>2025-05-06T07:21:36Z</time>
      </trkpt>
      <trkpt lat="38.722374038770795" lon="-9.177539991214871">
        <ele>56.369999999999997</ele>
        <time>2025-05-06T07:21:37Z</time>
      </trkpt>
      <trkpt lat="38.722427012398839" lon="-9.177628001198173">
        <ele>55.890000000000001</ele>
        <time>2025-05-06T07:21:38Z</time>
      </trkpt>
      <trkpt lat="38.722473029047251" lon="-9.177704025059938">
        <ele>55.409999999999997</ele>
        <time>2025-05-06T07:21:39Z</time>
      </trkpt>
      <trkpt lat="38.72251502238214" lon="-9.177721040323377">
        <ele>54.93</ele>
        <time>2025-05-06T07:21:40Z</time>
      </trkpt>
      <trkpt lat="38.722570007666945" lon="-9.177743000909686">
        <ele>54.450000000000003</ele>
        <time>2025-05-06T07:21:41Z</time>
      </trkpt>
      <trkpt lat="38.722635973244905" lon="-9.177768984809518">
        <ele>53.969999999999999</ele>
        <time>2025-05-06T07:21:42Z</time>
      </trkpt>
      <trkpt lat="38.722713002935052" lon="-9.177799997851253">
        <ele>53.490000000000002</ele>
        <time>2025-05-06T07:21:43Z</time>
      </trkpt>
      <trkpt lat="38.722790032625198" lon="-9.177832016721368">
        <ele>53.009999999999998</ele>
        <time>2025-05-06T07:21:44Z</time>
      </trkpt>
      <trkpt lat="38.722857004031539" lon="-9.177860012277961">
        <ele>52.530000000000001</ele>
        <time>2025-05-06T07:21:45Z</time>
      </trkpt>
      <trkpt lat="38.72307401150465" lon="-9.177762027829886">
        <ele>52.530000000000001</ele>
        <time>2025-05-06T07:21:46Z</time>
      </trkpt>
      <trkpt lat="38.723081974312663" lon="-9.177689021453261">
        <ele>52.049999999999997</ele>
        <time>2025-05-06T07:21:47Z</time>
      </trkpt>
      <trkpt lat="38.723093960434198" lon="-9.177590031176806">
        <ele>52.049999999999997</ele>
        <time>2025-05-06T07:21:48Z</time>
      </trkpt>
      <trkpt lat="38.723108964040875" lon="-9.177470002323389">
        <ele>51.57</ele>
        <time>2025-05-06T07:21:49Z</time>
      </trkpt>
      <trkpt lat="38.723124973475933" lon="-9.177333964034915">
        <ele>51.090000000000003</ele>
        <time>2025-05-06T07:21:50Z</time>
      </trkpt>
      <trkpt lat="38.723149029538035" lon="-9.177197003737092">
        <ele>50.609999999999999</ele>
        <time>2025-05-06T07:21:51Z</time>
      </trkpt>
      <trkpt lat="38.723194962367415" lon="-9.177048979327083">
        <ele>50.130000000000003</ele>
        <time>2025-05-06T07:21:52Z</time>
      </trkpt>
      <trkpt lat="38.72324500232935" lon="-9.176888968795538">
        <ele>49.649999999999999</ele>
        <time>2025-05-06T07:21:53Z</time>
      </trkpt>
      <trkpt lat="38.723313985392451" lon="-9.17676298879087">
        <ele>49.159999999999997</ele>
        <time>2025-05-06T07:21:54Z</time>
      </trkpt>
      <trkpt lat="38.723394032567739" lon="-9.176628040149808">
        <ele>49.159999999999997</ele>
        <time>2025-05-06T07:21:55Z</time>
      </trkpt>
      <trkpt lat="38.72356996871531" lon="-9.176389994099736">
        <ele>48.200000000000003</ele>
        <time>2025-05-06T07:21:57Z</time>
      </trkpt>
      <trkpt lat="38.723650015890598" lon="-9.176274994388223">
        <ele>48.200000000000003</ele>
        <time>2025-05-06T07:21:58Z</time>
      </trkpt>
      <trkpt lat="38.723716987296939" lon="-9.176180027425289">
        <ele>48.200000000000003</ele>
        <time>2025-05-06T07:21:59Z</time>
      </trkpt>
      <trkpt lat="38.724414026364684" lon="-9.175164978951216">
        <ele>52.530000000000001</ele>
        <time>2025-05-06T07:22:07Z</time>
      </trkpt>
      <trkpt lat="38.724493989720941" lon="-9.175050985068083">
        <ele>53.009999999999998</ele>
        <time>2025-05-06T07:22:08Z</time>
      </trkpt>
      <trkpt lat="38.725117016583681" lon="-9.174229977652431">
        <ele>54.93</ele>
        <time>2025-05-06T07:22:16Z</time>
      </trkpt>
      <trkpt lat="38.725207960233092" lon="-9.174164012074471">
        <ele>55.409999999999997</ele>
        <time>2025-05-06T07:22:17Z</time>
      </trkpt>
      <trkpt lat="38.725296976044774" lon="-9.174098968505859">
        <ele>55.890000000000001</ele>
        <time>2025-05-06T07:22:18Z</time>
      </trkpt>
      <trkpt lat="38.725767033174634" lon="-9.173795040696859">
        <ele>57.82</ele>
        <time>2025-05-06T07:22:23Z</time>
      </trkpt>
      <trkpt lat="38.725969959050417" lon="-9.173676017671824">
        <ele>60.219999999999999</ele>
        <time>2025-05-06T07:22:26Z</time>
      </trkpt>
      <trkpt lat="38.726032990962267" lon="-9.173638969659805">
        <ele>60.219999999999999</ele>
        <time>2025-05-06T07:22:27Z</time>
      </trkpt>
      <trkpt lat="38.726263996213675" lon="-9.173544002696872">
        <ele>62.619999999999997</ele>
        <time>2025-05-06T07:22:32Z</time>
      </trkpt>
      <trkpt lat="38.726286962628365" lon="-9.173538973554969">
        <ele>63.100000000000001</ele>
        <time>2025-05-06T07:22:33Z</time>
      </trkpt>
      <trkpt lat="38.726286962628365" lon="-9.173538973554969">
        <ele>63.579999999999998</ele>
        <time>2025-05-06T07:22:46Z</time>
      </trkpt>
      <trkpt lat="38.726368015632033" lon="-9.173523969948292">
        <ele>64.069999999999993</ele>
        <time>2025-05-06T07:23:30Z</time>
      </trkpt>
      <trkpt lat="38.726922981441021" lon="-9.173567974939942">
        <ele>61.659999999999997</ele>
        <time>2025-05-06T07:23:41Z</time>
      </trkpt>
      <trkpt lat="38.727565035223961" lon="-9.173748018220067">
        <ele>58.299999999999997</ele>
        <time>2025-05-06T07:23:50Z</time>
      </trkpt>
      <trkpt lat="38.72762999497354" lon="-9.173766961321235">
        <ele>57.82</ele>
        <time>2025-05-06T07:23:51Z</time>
      </trkpt>
      <trkpt lat="38.727813977748156" lon="-9.173714993521571">
        <ele>54.93</ele>
        <time>2025-05-06T07:23:58Z</time>
      </trkpt>
      <trkpt lat="38.727813977748156" lon="-9.173714993521571">
        <ele>54.93</ele>
        <time>2025-05-06T07:24:38Z</time>
      </trkpt>
      <trkpt lat="38.72788798995316" lon="-9.173684986308217">
        <ele>53.969999999999999</ele>
        <time>2025-05-06T07:24:58Z</time>
      </trkpt>
      <trkpt lat="38.727928977459669" lon="-9.173640981316567">
        <ele>53.490000000000002</ele>
        <time>2025-05-06T07:24:59Z</time>
      </trkpt>
      <trkpt lat="38.727941969409585" lon="-9.173582978546619">
        <ele>53.009999999999998</ele>
        <time>2025-05-06T07:25:00Z</time>
      </trkpt>
      <trkpt lat="38.727955967187881" lon="-9.173519024625421">
        <ele>52.530000000000001</ele>
        <time>2025-05-06T07:25:01Z</time>
      </trkpt>
      <trkpt lat="38.727957978844643" lon="-9.173443000763655">
        <ele>51.57</ele>
        <time>2025-05-06T07:25:02Z</time>
      </trkpt>
      <trkpt lat="38.727938029915094" lon="-9.173364965245128">
        <ele>51.090000000000003</ele>
        <time>2025-05-06T07:25:03Z</time>
      </trkpt>
      <trkpt lat="38.727897964417934" lon="-9.17328299023211">
        <ele>50.130000000000003</ele>
        <time>2025-05-06T07:25:04Z</time>
      </trkpt>
      <trkpt lat="38.727840967476368" lon="-9.173232028260827">
        <ele>49.649999999999999</ele>
        <time>2025-05-06T07:25:05Z</time>
      </trkpt>
      <trkpt lat="38.727790005505085" lon="-9.173187017440796">
        <ele>49.649999999999999</ele>
        <time>2025-05-06T07:25:06Z</time>
      </trkpt>
      <trkpt lat="38.727686991915107" lon="-9.173161033540964">
        <ele>49.159999999999997</ele>
        <time>2025-05-06T07:25:07Z</time>
      </trkpt>
      <trkpt lat="38.727625971660018" lon="-9.173197997733951">
        <ele>48.68</ele>
        <time>2025-05-06T07:25:08Z</time>
      </trkpt>
      <trkpt lat="38.727555982768536" lon="-9.173240996897221">
        <ele>48.200000000000003</ele>
        <time>2025-05-06T07:25:09Z</time>
      </trkpt>
      <trkpt lat="38.727278960868716" lon="-9.173272009938955">
        <ele>47.719999999999999</ele>
        <time>2025-05-06T07:25:12Z</time>
      </trkpt>
      <trkpt lat="38.727057008072734" lon="-9.173295982182026">
        <ele>47.240000000000002</ele>
        <time>2025-05-06T07:25:14Z</time>
      </trkpt>
      <trkpt lat="38.725841967388988" lon="-9.173324983566999">
        <ele>47.240000000000002</ele>
        <time>2025-05-06T07:25:23Z</time>
      </trkpt>
      <trkpt lat="38.725708024576306" lon="-9.173354990780354">
        <ele>47.719999999999999</ele>
        <time>2025-05-06T07:25:24Z</time>
      </trkpt>
      <trkpt lat="38.725572992116213" lon="-9.173383992165327">
        <ele>47.240000000000002</ele>
        <time>2025-05-06T07:25:25Z</time>
      </trkpt>
      <trkpt lat="38.725441982969642" lon="-9.173474013805389">
        <ele>47.240000000000002</ele>
        <time>2025-05-06T07:25:26Z</time>
      </trkpt>
      <trkpt lat="38.725317008793354" lon="-9.173579039052129">
        <ele>47.240000000000002</ele>
        <time>2025-05-06T07:25:27Z</time>
      </trkpt>
      <trkpt lat="38.725192034617066" lon="-9.173683980479837">
        <ele>46.759999999999998</ele>
        <time>2025-05-06T07:25:28Z</time>
      </trkpt>
      <trkpt lat="38.725067982450128" lon="-9.173787999898195">
        <ele>46.759999999999998</ele>
        <time>2025-05-06T07:25:29Z</time>
      </trkpt>
      <trkpt lat="38.724938984960318" lon="-9.173942981287837">
        <ele>46.759999999999998</ele>
        <time>2025-05-06T07:25:30Z</time>
      </trkpt>
      <trkpt lat="38.724057041108608" lon="-9.175288025289774">
        <ele>45.799999999999997</ele>
        <time>2025-05-06T07:25:39Z</time>
      </trkpt>
      <trkpt lat="38.723867023363709" lon="-9.175558006390929">
        <ele>45.32</ele>
        <time>2025-05-06T07:25:41Z</time>
      </trkpt>
      <trkpt lat="38.723753029480577" lon="-9.175651967525482">
        <ele>45.32</ele>
        <time>2025-05-06T07:25:42Z</time>
      </trkpt>
      <trkpt lat="38.723630988970399" lon="-9.17575104162097">
        <ele>44.840000000000003</ele>
        <time>2025-05-06T07:25:43Z</time>
      </trkpt>
      <trkpt lat="38.723490005359054" lon="-9.17581700719893">
        <ele>44.840000000000003</ele>
        <time>2025-05-06T07:25:44Z</time>
      </trkpt>
      <trkpt lat="38.723347010090947" lon="-9.17588397860527">
        <ele>44.840000000000003</ele>
        <time>2025-05-06T07:25:45Z</time>
      </trkpt>
      <trkpt lat="38.72320200316608" lon="-9.17592303827405">
        <ele>44.359999999999999</ele>
        <time>2025-05-06T07:25:46Z</time>
      </trkpt>
      <trkpt lat="38.723045010119677" lon="-9.175994032993913">
        <ele>44.359999999999999</ele>
        <time>2025-05-06T07:25:47Z</time>
      </trkpt>
      <trkpt lat="38.72142001055181" lon="-9.176636002957821">
        <ele>44.359999999999999</ele>
        <time>2025-05-06T07:25:58Z</time>
      </trkpt>
      <trkpt lat="38.720166999846697" lon="-9.176660981029272">
        <ele>45.32</ele>
        <time>2025-05-06T07:26:06Z</time>
      </trkpt>
      <trkpt lat="38.719031000509858" lon="-9.176301984116435">
        <ele>44.840000000000003</ele>
        <time>2025-05-06T07:26:12Z</time>
      </trkpt>
      <trkpt lat="38.71826003305614" lon="-9.176201988011599">
        <ele>44.359999999999999</ele>
        <time>2025-05-06T07:26:16Z</time>
      </trkpt>
      <trkpt lat="38.718070015311241" lon="-9.176201988011599">
        <ele>44.359999999999999</ele>
        <time>2025-05-06T07:26:17Z</time>
      </trkpt>
      <trkpt lat="38.716777022927999" lon="-9.176597027108073">
        <ele>44.359999999999999</ele>
        <time>2025-05-06T07:26:24Z</time>
      </trkpt>
      <trkpt lat="38.71486796066165" lon="-9.177369000390172">
        <ele>43.880000000000003</ele>
        <time>2025-05-06T07:26:34Z</time>
      </trkpt>
      <trkpt lat="38.712987983599305" lon="-9.177579972893">
        <ele>44.840000000000003</ele>
        <time>2025-05-06T07:26:43Z</time>
      </trkpt>
      <trkpt lat="38.711238009855151" lon="-9.177737971767783">
        <ele>46.759999999999998</ele>
        <time>2025-05-06T07:26:52Z</time>
      </trkpt>
      <trkpt lat="38.709872011095285" lon="-9.177894964814186">
        <ele>49.159999999999997</ele>
        <time>2025-05-06T07:26:59Z</time>
      </trkpt>
      <trkpt lat="38.707781983539462" lon="-9.178141979500651">
        <ele>57.82</ele>
        <time>2025-05-06T07:27:10Z</time>
      </trkpt>
      <trkpt lat="38.705495987087488" lon="-9.178981008008122">
        <ele>63.579999999999998</ele>
        <time>2025-05-06T07:27:23Z</time>
      </trkpt>
      <trkpt lat="38.703528000041842" lon="-9.179692966863513">
        <ele>65.989999999999995</ele>
        <time>2025-05-06T07:27:35Z</time>
      </trkpt>
      <trkpt lat="38.701726980507374" lon="-9.179760022088885">
        <ele>68.870000000000005</ele>
        <time>2025-05-06T07:27:45Z</time>
      </trkpt>
      <trkpt lat="38.699789000675082" lon="-9.179403958842158">
        <ele>74.159999999999997</ele>
        <time>2025-05-06T07:27:56Z</time>
      </trkpt>
      <trkpt lat="38.698035003617406" lon="-9.179028030484915">
        <ele>78.969999999999999</ele>
        <time>2025-05-06T07:28:07Z</time>
      </trkpt>
      <trkpt lat="38.696141028776765" lon="-9.178596027195454">
        <ele>82.329999999999998</ele>
        <time>2025-05-06T07:28:18Z</time>
      </trkpt>
      <trkpt lat="38.693635007366538" lon="-9.178039971739054">
        <ele>88.099999999999994</ele>
        <time>2025-05-06T07:28:32Z</time>
      </trkpt>
      <trkpt lat="38.690899992361665" lon="-9.177441000938416">
        <ele>87.140000000000001</ele>
        <time>2025-05-06T07:28:47Z</time>
      </trkpt>
      <trkpt lat="38.688475023955107" lon="-9.176898021250963">
        <ele>86.180000000000007</ele>
        <time>2025-05-06T07:29:00Z</time>
      </trkpt>
      <trkpt lat="38.68590597063303" lon="-9.176330985501409">
        <ele>85.209999999999994</ele>
        <time>2025-05-06T07:29:14Z</time>
      </trkpt>
      <trkpt lat="38.683959022164345" lon="-9.17590401135385">
        <ele>82.329999999999998</ele>
        <time>2025-05-06T07:29:25Z</time>
      </trkpt>
      <trkpt lat="38.681696997955441" lon="-9.175406964495778">
        <ele>82.810000000000002</ele>
        <time>2025-05-06T07:29:38Z</time>
      </trkpt>
      <trkpt lat="38.679994968697429" lon="-9.175007985904813">
        <ele>77.519999999999996</ele>
        <time>2025-05-06T07:29:47Z</time>
      </trkpt>
      <trkpt lat="38.677944000810385" lon="-9.174734987318516">
        <ele>72.719999999999999</ele>
        <time>2025-05-06T07:29:58Z</time>
      </trkpt>
      <trkpt lat="38.675597989931703" lon="-9.174416977912188">
        <ele>68.390000000000001</ele>
        <time>2025-05-06T07:30:11Z</time>
      </trkpt>
      <trkpt lat="38.673898978158832" lon="-9.173823036253452">
        <ele>65.989999999999995</ele>
        <time>2025-05-06T07:30:21Z</time>
      </trkpt>
      <trkpt lat="38.672434994950891" lon="-9.173386003822088">
        <ele>63.100000000000001</ele>
        <time>2025-05-06T07:30:30Z</time>
      </trkpt>
      <trkpt lat="38.670708993449807" lon="-9.172996999695897">
        <ele>58.299999999999997</ele>
        <time>2025-05-06T07:30:39Z</time>
      </trkpt>
      <trkpt lat="38.668691972270608" lon="-9.172566002234817">
        <ele>47.240000000000002</ele>
        <time>2025-05-06T07:30:50Z</time>
      </trkpt>
      <trkpt lat="38.666119985282421" lon="-9.171991003677249">
        <ele>31.859999999999999</ele>
        <time>2025-05-06T07:31:04Z</time>
      </trkpt>
      <trkpt lat="38.664125008508563" lon="-9.171540979295969">
        <ele>27.050000000000001</ele>
        <time>2025-05-06T07:31:12Z</time>
      </trkpt>
      <trkpt lat="38.660367988049984" lon="-9.170715026557446">
        <ele>39.549999999999997</ele>
        <time>2025-05-06T07:31:26Z</time>
      </trkpt>
      <trkpt lat="38.658302016556263" lon="-9.170260978862643">
        <ele>51.57</ele>
        <time>2025-05-06T07:31:35Z</time>
      </trkpt>
      <trkpt lat="38.656489010900259" lon="-9.169841967523098">
        <ele>59.740000000000002</ele>
        <time>2025-05-06T07:31:42Z</time>
      </trkpt>
      <trkpt lat="38.654185999184847" lon="-9.169332012534142">
        <ele>63.100000000000001</ele>
        <time>2025-05-06T07:31:50Z</time>
      </trkpt>
      <trkpt lat="38.651402033865452" lon="-9.168704962357879">
        <ele>56.859999999999999</ele>
        <time>2025-05-06T07:32:00Z</time>
      </trkpt>
      <trkpt lat="38.649091981351376" lon="-9.167847996577621">
        <ele>57.82</ele>
        <time>2025-05-06T07:32:09Z</time>
      </trkpt>
      <trkpt lat="38.646922996267676" lon="-9.166489038616419">
        <ele>56.859999999999999</ele>
        <time>2025-05-06T07:32:18Z</time>
      </trkpt>
      <trkpt lat="38.644957020878792" lon="-9.164660023525357">
        <ele>49.649999999999999</ele>
        <time>2025-05-06T07:32:27Z</time>
      </trkpt>
      <trkpt lat="38.643412990495563" lon="-9.162654988467693">
        <ele>38.590000000000003</ele>
        <time>2025-05-06T07:32:35Z</time>
      </trkpt>
      <trkpt lat="38.641068991273642" lon="-9.159298958256841">
        <ele>25.609999999999999</ele>
        <time>2025-05-06T07:32:48Z</time>
      </trkpt>
      <trkpt lat="38.638657014816999" lon="-9.155829017981887">
        <ele>19.84</ele>
        <time>2025-05-06T07:33:01Z</time>
      </trkpt>
      <trkpt lat="38.636277979239821" lon="-9.152410961687565">
        <ele>20.32</ele>
        <time>2025-05-06T07:33:14Z</time>
      </trkpt>
      <trkpt lat="38.633710015565157" lon="-9.148730970919132">
        <ele>20.32</ele>
        <time>2025-05-06T07:33:27Z</time>
      </trkpt>
      <trkpt lat="38.630587002262473" lon="-9.144256040453911">
        <ele>17.440000000000001</ele>
        <time>2025-05-06T07:33:43Z</time>
      </trkpt>
      <trkpt lat="38.627902027219534" lon="-9.140416961163282">
        <ele>18.399999999999999</ele>
        <time>2025-05-06T07:33:57Z</time>
      </trkpt>
      <trkpt lat="38.62514303997159" lon="-9.136481992900372">
        <ele>20.32</ele>
        <time>2025-05-06T07:34:11Z</time>
      </trkpt>
      <trkpt lat="38.622516989707947" lon="-9.13271801546216">
        <ele>22.25</ele>
        <time>2025-05-06T07:34:25Z</time>
      </trkpt>
      <trkpt lat="38.61983897164464" lon="-9.128864016383886">
        <ele>29.940000000000001</ele>
        <time>2025-05-06T07:34:39Z</time>
      </trkpt>
      <trkpt lat="38.617506958544254" lon="-9.125437997281551">
        <ele>35.229999999999997</ele>
        <time>2025-05-06T07:34:52Z</time>
      </trkpt>
      <trkpt lat="38.616145988926291" lon="-9.123111013323069">
        <ele>36.670000000000002</ele>
        <time>2025-05-06T07:35:00Z</time>
      </trkpt>
      <trkpt lat="38.614827012643218" lon="-9.120422014966607">
        <ele>33.780000000000001</ele>
        <time>2025-05-06T07:35:08Z</time>
      </trkpt>
      <trkpt lat="38.613280970603228" lon="-9.116631969809532">
        <ele>29.940000000000001</ele>
        <time>2025-05-06T07:35:19Z</time>
      </trkpt>
      <trkpt lat="38.611475005745888" lon="-9.11215796135366">
        <ele>24.649999999999999</ele>
        <time>2025-05-06T07:35:32Z</time>
      </trkpt>
      <trkpt lat="38.610001970082521" lon="-9.108515018597245">
        <ele>19.359999999999999</ele>
        <time>2025-05-06T07:35:43Z</time>
      </trkpt>
      <trkpt lat="38.608819032087922" lon="-9.105597026646137">
        <ele>19.359999999999999</ele>
        <time>2025-05-06T07:35:52Z</time>
      </trkpt>
      <trkpt lat="38.607233008369803" lon="-9.102114010602236">
        <ele>22.25</ele>
        <time>2025-05-06T07:36:03Z</time>
      </trkpt>
      <trkpt lat="38.605732982978225" lon="-9.099742015823722">
        <ele>26.09</ele>
        <time>2025-05-06T07:36:11Z</time>
      </trkpt>
      <trkpt lat="38.603806989267468" lon="-9.096767026931047">
        <ele>35.229999999999997</ele>
        <time>2025-05-06T07:36:21Z</time>
      </trkpt>
      <trkpt lat="38.601873032748699" lon="-9.093321980908513">
        <ele>40.990000000000002</ele>
        <time>2025-05-06T07:36:32Z</time>
      </trkpt>
      <trkpt lat="38.600068995729089" lon="-9.089348036795855">
        <ele>40.509999999999998</ele>
        <time>2025-05-06T07:36:44Z</time>
      </trkpt>
      <trkpt lat="38.598745996132493" lon="-9.085677014663816">
        <ele>35.710000000000001</ele>
        <time>2025-05-06T07:36:55Z</time>
      </trkpt>
      <trkpt lat="38.597275977954268" lon="-9.080845015123487">
        <ele>30.899999999999999</ele>
        <time>2025-05-06T07:37:09Z</time>
      </trkpt>
      <trkpt lat="38.595717027783394" lon="-9.076080992817879">
        <ele>27.530000000000001</ele>
        <time>2025-05-06T07:37:23Z</time>
      </trkpt>
      <trkpt lat="38.594062021002173" lon="-9.071781998500228">
        <ele>27.530000000000001</ele>
        <time>2025-05-06T07:37:36Z</time>
      </trkpt>
      <trkpt lat="38.592296959832311" lon="-9.067556010559201">
        <ele>23.210000000000001</ele>
        <time>2025-05-06T07:37:49Z</time>
      </trkpt>
      <trkpt lat="38.590375995263457" lon="-9.063440999016166">
        <ele>20.32</ele>
        <time>2025-05-06T07:38:02Z</time>
      </trkpt>
      <trkpt lat="38.588653011247516" lon="-9.06005596742034">
        <ele>21.77</ele>
        <time>2025-05-06T07:38:13Z</time>
      </trkpt>
      <trkpt lat="38.586991969496012" lon="-9.057013001292944">
        <ele>22.25</ele>
        <time>2025-05-06T07:38:23Z</time>
      </trkpt>
      <trkpt lat="38.584010023623705" lon="-9.052028032019734">
        <ele>24.170000000000002</ele>
        <time>2025-05-06T07:38:40Z</time>
      </trkpt>
      <trkpt lat="38.582603959366679" lon="-9.049686966463924">
        <ele>27.050000000000001</ele>
        <time>2025-05-06T07:38:48Z</time>
      </trkpt>
      <trkpt lat="38.580682994797826" lon="-9.045985015109181">
        <ele>29.940000000000001</ele>
        <time>2025-05-06T07:39:00Z</time>
      </trkpt>
      <trkpt lat="38.579392014071345" lon="-9.042664021253586">
        <ele>25.609999999999999</ele>
        <time>2025-05-06T07:39:10Z</time>
      </trkpt>
      <trkpt lat="38.57830697670579" lon="-9.038853021338582">
        <ele>19.359999999999999</ele>
        <time>2025-05-06T07:39:21Z</time>
      </trkpt>
      <trkpt lat="38.577465014532208" lon="-9.034199975430965">
        <ele>18.399999999999999</ele>
        <time>2025-05-06T07:39:34Z</time>
      </trkpt>
      <trkpt lat="38.577155973762274" lon="-9.029810959473252">
        <ele>29.940000000000001</ele>
        <time>2025-05-06T07:39:46Z</time>
      </trkpt>
      <trkpt lat="38.577269967645407" lon="-9.025766020640731">
        <ele>44.840000000000003</ele>
        <time>2025-05-06T07:39:57Z</time>
      </trkpt>
      <trkpt lat="38.57757699675858" lon="-9.022824978455901">
        <ele>50.130000000000003</ele>
        <time>2025-05-06T07:40:05Z</time>
      </trkpt>
      <trkpt lat="38.578303037211299" lon="-9.0184819791466">
        <ele>50.609999999999999</ele>
        <time>2025-05-06T07:40:17Z</time>
      </trkpt>
      <trkpt lat="38.578705033287406" lon="-9.016196988523006">
        <ele>50.609999999999999</ele>
        <time>2025-05-06T07:40:24Z</time>
      </trkpt>
      <trkpt lat="38.57890997081995" lon="-9.014737028628588">
        <ele>51.090000000000003</ele>
        <time>2025-05-06T07:40:31Z</time>
      </trkpt>
      <trkpt lat="38.579035028815269" lon="-9.013533974066377">
        <ele>52.530000000000001</ele>
        <time>2025-05-06T07:40:40Z</time>
      </trkpt>
      <trkpt lat="38.57905900105834" lon="-9.013302968814969">
        <ele>53.009999999999998</ele>
        <time>2025-05-06T07:40:45Z</time>
      </trkpt>
      <trkpt lat="38.579061012715101" lon="-9.013285031542182">
        <ele>52.530000000000001</ele>
        <time>2025-05-06T07:40:57Z</time>
      </trkpt>
      <trkpt lat="38.579084984958172" lon="-9.013043968006969">
        <ele>51.090000000000003</ele>
        <time>2025-05-06T07:41:18Z</time>
      </trkpt>
      <trkpt lat="38.579213982447982" lon="-9.012161018326879">
        <ele>47.719999999999999</ele>
        <time>2025-05-06T07:41:23Z</time>
      </trkpt>
      <trkpt lat="38.579412968829274" lon="-9.010496037080884">
        <ele>46.759999999999998</ele>
        <time>2025-05-06T07:41:29Z</time>
      </trkpt>
      <trkpt lat="38.579532997682691" lon="-9.007637975737453">
        <ele>48.200000000000003</ele>
        <time>2025-05-06T07:41:37Z</time>
      </trkpt>
      <trkpt lat="38.579457979649305" lon="-9.003554983064532">
        <ele>49.649999999999999</ele>
        <time>2025-05-06T07:41:48Z</time>
      </trkpt>
      <trkpt lat="38.579197973012924" lon="-8.998018987476826">
        <ele>49.159999999999997</ele>
        <time>2025-05-06T07:42:03Z</time>
      </trkpt>
      <trkpt lat="38.579237032681704" lon="-8.993225041776896">
        <ele>47.719999999999999</ele>
        <time>2025-05-06T07:42:16Z</time>
      </trkpt>
      <trkpt lat="38.579719997942448" lon="-8.988478034734726">
        <ele>48.200000000000003</ele>
        <time>2025-05-06T07:42:29Z</time>
      </trkpt>
      <trkpt lat="38.580542011186481" lon="-8.983816020190716">
        <ele>48.200000000000003</ele>
        <time>2025-05-06T07:42:42Z</time>
      </trkpt>
      <trkpt lat="38.581317001953721" lon="-8.979126010090113">
        <ele>50.609999999999999</ele>
        <time>2025-05-06T07:42:55Z</time>
      </trkpt>
      <trkpt lat="38.581695025786757" lon="-8.974365005269647">
        <ele>52.530000000000001</ele>
        <time>2025-05-06T07:43:08Z</time>
      </trkpt>
      <trkpt lat="38.582151001319289" lon="-8.970724996179342">
        <ele>63.100000000000001</ele>
        <time>2025-05-06T07:43:18Z</time>
      </trkpt>
      <trkpt lat="38.583101006224751" lon="-8.96571303717792">
        <ele>82.329999999999998</ele>
        <time>2025-05-06T07:43:32Z</time>
      </trkpt>
      <trkpt lat="38.583538038656116" lon="-8.962057018652558">
        <ele>90.980000000000004</ele>
        <time>2025-05-06T07:43:42Z</time>
      </trkpt>
      <trkpt lat="38.583641974255443" lon="-8.957246979698539">
        <ele>89.540000000000006</ele>
        <time>2025-05-06T07:43:55Z</time>
      </trkpt>
      <trkpt lat="38.583772983402014" lon="-8.952362006530166">
        <ele>79.450000000000003</ele>
        <time>2025-05-06T07:44:08Z</time>
      </trkpt>
      <trkpt lat="38.584010023623705" lon="-8.949353992938995">
        <ele>74.159999999999997</ele>
        <time>2025-05-06T07:44:16Z</time>
      </trkpt>
      <trkpt lat="38.584142038598657" lon="-8.944830028340221">
        <ele>71.760000000000005</ele>
        <time>2025-05-06T07:44:28Z</time>
      </trkpt>
      <trkpt lat="38.584244968369603" lon="-8.938397001475096">
        <ele>69.829999999999998</ele>
        <time>2025-05-06T07:44:45Z</time>
      </trkpt>
      <trkpt lat="38.584744026884437" lon="-8.93353097140789">
        <ele>71.760000000000005</ele>
        <time>2025-05-06T07:44:58Z</time>
      </trkpt>
      <trkpt lat="38.585522035136819" lon="-8.927183020859957">
        <ele>69.829999999999998</ele>
        <time>2025-05-06T07:45:15Z</time>
      </trkpt>
      <trkpt lat="38.585738958790898" lon="-8.923396999016404">
        <ele>68.390000000000001</ele>
        <time>2025-05-06T07:45:25Z</time>
      </trkpt>
      <trkpt lat="38.585604010149837" lon="-8.918874962255359">
        <ele>67.909999999999997</ele>
        <time>2025-05-06T07:45:37Z</time>
      </trkpt>
      <trkpt lat="38.585209976881742" lon="-8.91402100212872">
        <ele>70.310000000000002</ele>
        <time>2025-05-06T07:45:50Z</time>
      </trkpt>
      <trkpt lat="38.585037980228662" lon="-8.909796020016074">
        <ele>76.560000000000002</ele>
        <time>2025-05-06T07:46:01Z</time>
      </trkpt>
      <trkpt lat="38.585190027952194" lon="-8.907183967530727">
        <ele>83.290000000000006</ele>
        <time>2025-05-06T07:46:08Z</time>
      </trkpt>
      <trkpt lat="38.585557993501425" lon="-8.903431976214051">
        <ele>92.420000000000002</ele>
        <time>2025-05-06T07:46:18Z</time>
      </trkpt>
      <trkpt lat="38.585905004292727" lon="-8.898154981434345">
        <ele>103</ele>
        <time>2025-05-06T07:46:32Z</time>
      </trkpt>
      <trkpt lat="38.585775000974536" lon="-8.893592040985823">
        <ele>100.59999999999999</ele>
        <time>2025-05-06T07:46:44Z</time>
      </trkpt>
      <trkpt lat="38.585410974919796" lon="-8.88982797972858">
        <ele>91.939999999999998</ele>
        <time>2025-05-06T07:46:54Z</time>
      </trkpt>
      <trkpt lat="38.584789037704468" lon="-8.886184031143785">
        <ele>84.25</ele>
        <time>2025-05-06T07:47:04Z</time>
      </trkpt>
      <trkpt lat="38.584054028615355" lon="-8.882515020668507">
        <ele>80.409999999999997</ele>
        <time>2025-05-06T07:47:14Z</time>
      </trkpt>
      <trkpt lat="38.582782996818423" lon="-8.877125037834048">
        <ele>69.349999999999994</ele>
        <time>2025-05-06T07:47:29Z</time>
      </trkpt>
      <trkpt lat="38.581588994711637" lon="-8.872585985809565">
        <ele>61.659999999999997</ele>
        <time>2025-05-06T07:47:42Z</time>
      </trkpt>
      <trkpt lat="38.581028999760747" lon="-8.869346966966987">
        <ele>58.780000000000001</ele>
        <time>2025-05-06T07:47:51Z</time>
      </trkpt>
      <trkpt lat="38.580897990614176" lon="-8.865668987855315">
        <ele>53.009999999999998</ele>
        <time>2025-05-06T07:48:01Z</time>
      </trkpt>
      <trkpt lat="38.581382967531681" lon="-8.861666964367032">
        <ele>51.090000000000003</ele>
        <time>2025-05-06T07:48:12Z</time>
      </trkpt>
      <trkpt lat="38.58206701464951" lon="-8.858834970742464">
        <ele>45.799999999999997</ele>
        <time>2025-05-06T07:48:20Z</time>
      </trkpt>
      <trkpt lat="38.583316002041101" lon="-8.854690035805106">
        <ele>35.710000000000001</ele>
        <time>2025-05-06T07:48:32Z</time>
      </trkpt>
      <trkpt lat="38.583874991163611" lon="-8.852231036871672">
        <ele>30.899999999999999</ele>
        <time>2025-05-06T07:48:39Z</time>
      </trkpt>
      <trkpt lat="38.584627015516162" lon="-8.847920978441834">
        <ele>28.98</ele>
        <time>2025-05-06T07:48:51Z</time>
      </trkpt>
      <trkpt lat="38.585390020161867" lon="-8.844365039840341">
        <ele>29.940000000000001</ele>
        <time>2025-05-06T07:49:01Z</time>
      </trkpt>
      <trkpt lat="38.586418982595205" lon="-8.840494025498629">
        <ele>23.210000000000001</ele>
        <time>2025-05-06T07:49:12Z</time>
      </trkpt>
      <trkpt lat="38.586947964504361" lon="-8.83727403357625">
        <ele>21.289999999999999</ele>
        <time>2025-05-06T07:49:21Z</time>
      </trkpt>
      <trkpt lat="38.587078973650932" lon="-8.8339679595083">
        <ele>21.289999999999999</ele>
        <time>2025-05-06T07:49:30Z</time>
      </trkpt>
      <trkpt lat="38.586778985336423" lon="-8.830684013664722">
        <ele>21.289999999999999</ele>
        <time>2025-05-06T07:49:39Z</time>
      </trkpt>
      <trkpt lat="38.5860859695822" lon="-8.82747801952064">
        <ele>23.690000000000001</ele>
        <time>2025-05-06T07:49:48Z</time>
      </trkpt>
      <trkpt lat="38.584873024374247" lon="-8.82217101752758">
        <ele>28.02</ele>
        <time>2025-05-06T07:50:03Z</time>
      </trkpt>
      <trkpt lat="38.584547974169254" lon="-8.818888999521732">
        <ele>28.5</ele>
        <time>2025-05-06T07:50:12Z</time>
      </trkpt>
      <trkpt lat="38.584526013582945" lon="-8.814460001885891">
        <ele>28.98</ele>
        <time>2025-05-06T07:50:24Z</time>
      </trkpt>
      <trkpt lat="38.584405984729528" lon="-8.809674018993974">
        <ele>28.5</ele>
        <time>2025-05-06T07:50:37Z</time>
      </trkpt>
      <trkpt lat="38.583946991711855" lon="-8.805287014693022">
        <ele>29.460000000000001</ele>
        <time>2025-05-06T07:50:49Z</time>
      </trkpt>
      <trkpt lat="38.583275014534593" lon="-8.801324972882867">
        <ele>30.420000000000002</ele>
        <time>2025-05-06T07:51:00Z</time>
      </trkpt>
      <trkpt lat="38.582814009860158" lon="-8.797690998762846">
        <ele>28.98</ele>
        <time>2025-05-06T07:51:10Z</time>
      </trkpt>
      <trkpt lat="38.582991035655141" lon="-8.794739982113242">
        <ele>28.02</ele>
        <time>2025-05-06T07:51:18Z</time>
      </trkpt>
      <trkpt lat="38.583687990903854" lon="-8.791849985718727">
        <ele>27.530000000000001</ele>
        <time>2025-05-06T07:51:26Z</time>
      </trkpt>
      <trkpt lat="38.585148034617305" lon="-8.787700021639466">
        <ele>25.609999999999999</ele>
        <time>2025-05-06T07:51:38Z</time>
      </trkpt>
      <trkpt lat="38.586029978469014" lon="-8.784496039152145">
        <ele>25.129999999999999</ele>
        <time>2025-05-06T07:51:47Z</time>
      </trkpt>
      <trkpt lat="38.586354022845626" lon="-8.781516021117568">
        <ele>26.09</ele>
        <time>2025-05-06T07:51:55Z</time>
      </trkpt>
      <trkpt lat="38.586323009803891" lon="-8.777734022587538">
        <ele>28.5</ele>
        <time>2025-05-06T07:52:05Z</time>
      </trkpt>
      <trkpt lat="38.586495006456971" lon="-8.773597972467542">
        <ele>30.899999999999999</ele>
        <time>2025-05-06T07:52:16Z</time>
      </trkpt>
      <trkpt lat="38.587113004177809" lon="-8.770685009658337">
        <ele>31.379999999999999</ele>
        <time>2025-05-06T07:52:24Z</time>
      </trkpt>
      <trkpt lat="38.588144984096289" lon="-8.767956029623747">
        <ele>32.340000000000003</ele>
        <time>2025-05-06T07:52:32Z</time>
      </trkpt>
      <trkpt lat="38.589690020307899" lon="-8.764297999441624">
        <ele>32.82</ele>
        <time>2025-05-06T07:52:43Z</time>
      </trkpt>
      <trkpt lat="38.590944958850741" lon="-8.760470990091562">
        <ele>37.630000000000003</ele>
        <time>2025-05-06T07:52:54Z</time>
      </trkpt>
      <trkpt lat="38.59205698594451" lon="-8.756155986338854">
        <ele>44.840000000000003</ele>
        <time>2025-05-06T07:53:06Z</time>
      </trkpt>
      <trkpt lat="38.593202959746122" lon="-8.752263011410832">
        <ele>52.049999999999997</ele>
        <time>2025-05-06T07:53:17Z</time>
      </trkpt>
      <trkpt lat="38.594738021492958" lon="-8.7485830206424">
        <ele>51.57</ele>
        <time>2025-05-06T07:53:28Z</time>
      </trkpt>
      <trkpt lat="38.596577011048794" lon="-8.745140992105007">
        <ele>51.090000000000003</ele>
        <time>2025-05-06T07:53:39Z</time>
      </trkpt>
      <trkpt lat="38.598424969241023" lon="-8.742191987112165">
        <ele>49.159999999999997</ele>
        <time>2025-05-06T07:53:49Z</time>
      </trkpt>
      <trkpt lat="38.600066984072328" lon="-8.739052964374423">
        <ele>47.240000000000002</ele>
        <time>2025-05-06T07:53:59Z</time>
      </trkpt>
      <trkpt lat="38.600971978157759" lon="-8.735963981598616">
        <ele>51.090000000000003</ele>
        <time>2025-05-06T07:54:08Z</time>
      </trkpt>
      <trkpt lat="38.601305996999145" lon="-8.733040038496256">
        <ele>53.490000000000002</ele>
        <time>2025-05-06T07:54:16Z</time>
      </trkpt>
      <trkpt lat="38.601190997287631" lon="-8.730083992704749">
        <ele>51.57</ele>
        <time>2025-05-06T07:54:24Z</time>
      </trkpt>
      <trkpt lat="38.600665032863617" lon="-8.727425001561642">
        <ele>46.280000000000001</ele>
        <time>2025-05-06T07:54:31Z</time>
      </trkpt>
      <trkpt lat="38.59970698133111" lon="-8.724728040397167">
        <ele>40.990000000000002</ele>
        <time>2025-05-06T07:54:39Z</time>
      </trkpt>
      <trkpt lat="38.597904033958912" lon="-8.719700993970037">
        <ele>35.229999999999997</ele>
        <time>2025-05-06T07:54:54Z</time>
      </trkpt>
      <trkpt lat="38.596921004354954" lon="-8.71584196574986">
        <ele>30.899999999999999</ele>
        <time>2025-05-06T07:55:05Z</time>
      </trkpt>
      <trkpt lat="38.596321027725935" lon="-8.71184203773737">
        <ele>29.940000000000001</ele>
        <time>2025-05-06T07:55:16Z</time>
      </trkpt>
      <trkpt lat="38.59609697945416" lon="-8.707673968747258">
        <ele>34.740000000000002</ele>
        <time>2025-05-06T07:55:27Z</time>
      </trkpt>
      <trkpt lat="38.596243998035789" lon="-8.703611008822918">
        <ele>36.189999999999998</ele>
        <time>2025-05-06T07:55:38Z</time>
      </trkpt>
      <trkpt lat="38.596476009115577" lon="-8.701402964070439">
        <ele>35.710000000000001</ele>
        <time>2025-05-06T07:55:44Z</time>
      </trkpt>
      <trkpt lat="38.5971499979496" lon="-8.69768600910902">
        <ele>30.899999999999999</ele>
        <time>2025-05-06T07:55:54Z</time>
      </trkpt>
      <trkpt lat="38.597911996766925" lon="-8.694802969694138">
        <ele>28.02</ele>
        <time>2025-05-06T07:56:02Z</time>
      </trkpt>
      <trkpt lat="38.599309008568525" lon="-8.689940040931106">
        <ele>32.82</ele>
        <time>2025-05-06T07:56:16Z</time>
      </trkpt>
      <trkpt lat="38.600058015435934" lon="-8.686326015740633">
        <ele>39.07</ele>
        <time>2025-05-06T07:56:26Z</time>
      </trkpt>
      <trkpt lat="38.600453976541758" lon="-8.683425961062312">
        <ele>40.509999999999998</ele>
        <time>2025-05-06T07:56:34Z</time>
      </trkpt>
      <trkpt lat="38.60080299898982" lon="-8.678668979555368">
        <ele>43.880000000000003</ele>
        <time>2025-05-06T07:56:47Z</time>
      </trkpt>
      <trkpt lat="38.600967032834888" lon="-8.676119036972523">
        <ele>46.759999999999998</ele>
        <time>2025-05-06T07:56:55Z</time>
      </trkpt>
      <trkpt lat="38.600916992872953" lon="-8.675382016226649">
        <ele>47.719999999999999</ele>
        <time>2025-05-06T07:56:58Z</time>
      </trkpt>
      <trkpt lat="38.600882962346077" lon="-8.67517095990479">
        <ele>47.719999999999999</ele>
        <time>2025-05-06T07:56:59Z</time>
      </trkpt>
      <trkpt lat="38.600828982889652" lon="-8.674964010715485">
        <ele>47.719999999999999</ele>
        <time>2025-05-06T07:57:00Z</time>
      </trkpt>
      <trkpt lat="38.600767962634563" lon="-8.674767035990953">
        <ele>47.240000000000002</ele>
        <time>2025-05-06T07:57:01Z</time>
      </trkpt>
      <trkpt lat="38.60067400150001" lon="-8.674592021852732">
        <ele>46.759999999999998</ele>
        <time>2025-05-06T07:57:02Z</time>
      </trkpt>
      <trkpt lat="38.600556990131736" lon="-8.674446009099484">
        <ele>45.799999999999997</ele>
        <time>2025-05-06T07:57:03Z</time>
      </trkpt>
      <trkpt lat="38.600422963500023" lon="-8.674319023266435">
        <ele>45.32</ele>
        <time>2025-05-06T07:57:04Z</time>
      </trkpt>
      <trkpt lat="38.600287009030581" lon="-8.674189019948244">
        <ele>44.840000000000003</ele>
        <time>2025-05-06T07:57:05Z</time>
      </trkpt>
      <trkpt lat="38.600148037075996" lon="-8.674078965559602">
        <ele>43.880000000000003</ele>
        <time>2025-05-06T07:57:06Z</time>
      </trkpt>
      <trkpt lat="38.599990960210562" lon="-8.674020962789655">
        <ele>42.920000000000002</ele>
        <time>2025-05-06T07:57:07Z</time>
      </trkpt>
      <trkpt lat="38.599842013791203" lon="-8.673965977504849">
        <ele>42.439999999999998</ele>
        <time>2025-05-06T07:57:08Z</time>
      </trkpt>
      <trkpt lat="38.599704969674349" lon="-8.673915015533567">
        <ele>41.950000000000003</ele>
        <time>2025-05-06T07:57:09Z</time>
      </trkpt>
      <trkpt lat="38.599573038518429" lon="-8.673866987228394">
        <ele>41.950000000000003</ele>
        <time>2025-05-06T07:57:10Z</time>
      </trkpt>
      <trkpt lat="38.598144007846713" lon="-8.673663977533579">
        <ele>43.399999999999999</ele>
        <time>2025-05-06T07:57:21Z</time>
      </trkpt>
      <trkpt lat="38.597812000662088" lon="-8.673626007512212">
        <ele>44.359999999999999</ele>
        <time>2025-05-06T07:57:27Z</time>
      </trkpt>
      <trkpt lat="38.597812000662088" lon="-8.673626007512212">
        <ele>44.840000000000003</ele>
        <time>2025-05-06T07:57:40Z</time>
      </trkpt>
      <trkpt lat="38.597812000662088" lon="-8.673626007512212">
        <ele>44.840000000000003</ele>
        <time>2025-05-06T07:58:34Z</time>
      </trkpt>
      <trkpt lat="38.597570015117526" lon="-8.673602035269141">
        <ele>44.359999999999999</ele>
        <time>2025-05-06T07:59:02Z</time>
      </trkpt>
      <trkpt lat="38.597510000690818" lon="-8.673596000298858">
        <ele>43.880000000000003</ele>
        <time>2025-05-06T07:59:03Z</time>
      </trkpt>
      <trkpt lat="38.597456021234393" lon="-8.673590971156955">
        <ele>43.399999999999999</ele>
        <time>2025-05-06T07:59:04Z</time>
      </trkpt>
      <trkpt lat="38.597350995987654" lon="-8.673580996692181">
        <ele>42.920000000000002</ele>
        <time>2025-05-06T07:59:06Z</time>
      </trkpt>
      <trkpt lat="38.597231972962618" lon="-8.673569010570645">
        <ele>40.990000000000002</ele>
        <time>2025-05-06T07:59:13Z</time>
      </trkpt>
      <trkpt lat="38.597231972962618" lon="-8.673569010570645">
        <ele>40.990000000000002</ele>
        <time>2025-05-06T07:59:33Z</time>
      </trkpt>
      <trkpt lat="38.597231972962618" lon="-8.673569010570645">
        <ele>40.990000000000002</ele>
        <time>2025-05-06T08:00:23Z</time>
      </trkpt>
      <trkpt lat="38.597231972962618" lon="-8.673569010570645">
        <ele>41.469999999999999</ele>
        <time>2025-05-06T08:01:16Z</time>
      </trkpt>
      <trkpt lat="38.597231972962618" lon="-8.673569010570645">
        <ele>41.950000000000003</ele>
        <time>2025-05-06T08:02:06Z</time>
      </trkpt>
      <trkpt lat="38.597231972962618" lon="-8.673569010570645">
        <ele>42.439999999999998</ele>
        <time>2025-05-06T08:02:59Z</time>
      </trkpt>
      <trkpt lat="38.597231972962618" lon="-8.673569010570645">
        <ele>42.439999999999998</ele>
        <time>2025-05-06T08:03:50Z</time>
      </trkpt>
      <trkpt lat="38.597231972962618" lon="-8.673569010570645">
        <ele>42.920000000000002</ele>
        <time>2025-05-06T08:04:48Z</time>
      </trkpt>
      <trkpt lat="38.597231972962618" lon="-8.673569010570645">
        <ele>42.439999999999998</ele>
        <time>2025-05-06T08:05:42Z</time>
      </trkpt>
      <trkpt lat="38.597231972962618" lon="-8.673569010570645">
        <ele>42.439999999999998</ele>
        <time>2025-05-06T08:06:35Z</time>
      </trkpt>
      <trkpt lat="38.597231972962618" lon="-8.673569010570645">
        <ele>42.439999999999998</ele>
        <time>2025-05-06T08:07:39Z</time>
      </trkpt>
      <trkpt lat="38.597231972962618" lon="-8.673569010570645">
        <ele>42.920000000000002</ele>
        <time>2025-05-06T08:08:30Z</time>
      </trkpt>
      <trkpt lat="38.597158966585994" lon="-8.673561969771981">
        <ele>42.439999999999998</ele>
        <time>2025-05-06T08:09:17Z</time>
      </trkpt>
      <trkpt lat="38.597125019878149" lon="-8.673559036105871">
        <ele>41.950000000000003</ele>
        <time>2025-05-06T08:09:18Z</time>
      </trkpt>
      <trkpt lat="38.597071040421724" lon="-8.673554006963968">
        <ele>41.469999999999999</ele>
        <time>2025-05-06T08:09:19Z</time>
      </trkpt>
      <trkpt lat="38.597004991024733" lon="-8.673548977822065">
        <ele>41.469999999999999</ele>
        <time>2025-05-06T08:09:20Z</time>
      </trkpt>
      <trkpt lat="38.596926033496857" lon="-8.673543026670814">
        <ele>41.469999999999999</ele>
        <time>2025-05-06T08:09:21Z</time>
      </trkpt>
      <trkpt lat="38.596837017685175" lon="-8.67353598587215">
        <ele>41.469999999999999</ele>
        <time>2025-05-06T08:09:22Z</time>
      </trkpt>
      <trkpt lat="38.595979968085885" lon="-8.673405982553959">
        <ele>40.509999999999998</ele>
        <time>2025-05-06T08:09:29Z</time>
      </trkpt>
      <trkpt lat="38.595833033323288" lon="-8.673323001712561">
        <ele>40.509999999999998</ele>
        <time>2025-05-06T08:09:30Z</time>
      </trkpt>
      <trkpt lat="38.59569096006453" lon="-8.673242032527924">
        <ele>40.030000000000001</ele>
        <time>2025-05-06T08:09:31Z</time>
      </trkpt>
      <trkpt lat="38.595546958968043" lon="-8.673160979524255">
        <ele>39.549999999999997</ele>
        <time>2025-05-06T08:09:32Z</time>
      </trkpt>
      <trkpt lat="38.594554960727692" lon="-8.672707015648484">
        <ele>38.109999999999999</ele>
        <time>2025-05-06T08:09:39Z</time>
      </trkpt>
      <trkpt lat="38.594424035400152" lon="-8.672654964029789">
        <ele>38.109999999999999</ele>
        <time>2025-05-06T08:09:40Z</time>
      </trkpt>
      <trkpt lat="38.5942920204252" lon="-8.672601990401745">
        <ele>37.630000000000003</ele>
        <time>2025-05-06T08:09:41Z</time>
      </trkpt>
      <trkpt lat="38.594168974086642" lon="-8.672600984573364">
        <ele>37.149999999999999</ele>
        <time>2025-05-06T08:09:42Z</time>
      </trkpt>
      <trkpt lat="38.594021033495665" lon="-8.672619005665183">
        <ele>36.670000000000002</ele>
        <time>2025-05-06T08:09:43Z</time>
      </trkpt>
      <trkpt lat="38.593886001035571" lon="-8.672640966251493">
        <ele>36.670000000000002</ele>
        <time>2025-05-06T08:09:44Z</time>
      </trkpt>
      <trkpt lat="38.593747029080987" lon="-8.672726964578033">
        <ele>36.189999999999998</ele>
        <time>2025-05-06T08:09:45Z</time>
      </trkpt>
      <trkpt lat="38.593608979135752" lon="-8.672812962904573">
        <ele>35.710000000000001</ele>
        <time>2025-05-06T08:09:46Z</time>
      </trkpt>
      <trkpt lat="38.593469001352787" lon="-8.672899967059493">
        <ele>35.710000000000001</ele>
        <time>2025-05-06T08:09:47Z</time>
      </trkpt>
      <trkpt lat="38.593329023569822" lon="-8.672986971214414">
        <ele>35.710000000000001</ele>
        <time>2025-05-06T08:09:48Z</time>
      </trkpt>
      <trkpt lat="38.592047011479735" lon="-8.674488002434373">
        <ele>34.259999999999998</ele>
        <time>2025-05-06T08:09:58Z</time>
      </trkpt>
      <trkpt lat="38.590881004929543" lon="-8.675837991759181">
        <ele>33.299999999999997</ele>
        <time>2025-05-06T08:10:06Z</time>
      </trkpt>
      <trkpt lat="38.590035019442439" lon="-8.676614994183183">
        <ele>31.859999999999999</ele>
        <time>2025-05-06T08:10:11Z</time>
      </trkpt>
      <trkpt lat="38.58986402861774" lon="-8.676741980016232">
        <ele>31.379999999999999</ele>
        <time>2025-05-06T08:10:12Z</time>
      </trkpt>
      <trkpt lat="38.589691026136279" lon="-8.676858991384506">
        <ele>30.899999999999999</ele>
        <time>2025-05-06T08:10:13Z</time>
      </trkpt>
      <trkpt lat="38.587843989953399" lon="-8.677724003791809">
        <ele>24.649999999999999</ele>
        <time>2025-05-06T08:10:23Z</time>
      </trkpt>
      <trkpt lat="38.586051017045975" lon="-8.678549034520984">
        <ele>23.210000000000001</ele>
        <time>2025-05-06T08:10:34Z</time>
      </trkpt>
      <trkpt lat="38.583739958703518" lon="-8.679605992510915">
        <ele>22.73</ele>
        <time>2025-05-06T08:10:47Z</time>
      </trkpt>
      <trkpt lat="38.581456979736686" lon="-8.680635038763285">
        <ele>21.289999999999999</ele>
        <time>2025-05-06T08:11:00Z</time>
      </trkpt>
      <trkpt lat="38.580822972580791" lon="-8.680989006534219">
        <ele>19.84</ele>
        <time>2025-05-06T08:11:05Z</time>
      </trkpt>
      <trkpt lat="38.580758012831211" lon="-8.681070981547236">
        <ele>19.84</ele>
        <time>2025-05-06T08:11:06Z</time>
      </trkpt>
      <trkpt lat="38.580702021718025" lon="-8.681140970438719">
        <ele>19.359999999999999</ele>
        <time>2025-05-06T08:11:07Z</time>
      </trkpt>
      <trkpt lat="38.580658016726375" lon="-8.681199979037046">
        <ele>19.359999999999999</ele>
        <time>2025-05-06T08:11:08Z</time>
      </trkpt>
      <trkpt lat="38.580637983977795" lon="-8.681282037869096">
        <ele>19.359999999999999</ele>
        <time>2025-05-06T08:11:09Z</time>
      </trkpt>
      <trkpt lat="38.580619040876627" lon="-8.681360995396972">
        <ele>19.359999999999999</ele>
        <time>2025-05-06T08:11:10Z</time>
      </trkpt>
      <trkpt lat="38.580600013956428" lon="-8.681441964581609">
        <ele>19.359999999999999</ele>
        <time>2025-05-06T08:11:11Z</time>
      </trkpt>
      <trkpt lat="38.580579981207848" lon="-8.681525029242039">
        <ele>18.879999999999999</ele>
        <time>2025-05-06T08:11:12Z</time>
      </trkpt>
      <trkpt lat="38.58056397177279" lon="-8.681684033945203">
        <ele>18.879999999999999</ele>
        <time>2025-05-06T08:11:13Z</time>
      </trkpt>
      <trkpt lat="38.581002010032535" lon="-8.683125972747803">
        <ele>19.84</ele>
        <time>2025-05-06T08:11:24Z</time>
      </trkpt>
      <trkpt lat="38.581300992518663" lon="-8.684082012623549">
        <ele>21.289999999999999</ele>
        <time>2025-05-06T08:11:31Z</time>
      </trkpt>
      <trkpt lat="38.581322031095624" lon="-8.684147978201509">
        <ele>21.289999999999999</ele>
        <time>2025-05-06T08:11:32Z</time>
      </trkpt>
      <trkpt lat="38.581333011388779" lon="-8.684182008728385">
        <ele>21.289999999999999</ele>
        <time>2025-05-06T08:11:33Z</time>
      </trkpt>
      <trkpt lat="38.581334017217159" lon="-8.684185026213527">
        <ele>21.289999999999999</ele>
        <time>2025-05-06T08:11:34Z</time>
      </trkpt>
      <trkpt lat="38.581326976418495" lon="-8.684164993464947">
        <ele>21.289999999999999</ele>
        <time>2025-05-06T08:11:35Z</time>
      </trkpt>
      <trkpt lat="38.58131499029696" lon="-8.68412702344358">
        <ele>20.809999999999999</ele>
        <time>2025-05-06T08:11:36Z</time>
      </trkpt>
      <trkpt lat="38.581298980861902" lon="-8.684073965996504">
        <ele>20.32</ele>
        <time>2025-05-06T08:11:37Z</time>
      </trkpt>
      <trkpt lat="38.581278026103973" lon="-8.684009006246924">
        <ele>19.84</ele>
        <time>2025-05-06T08:11:38Z</time>
      </trkpt>
      <trkpt lat="38.581256987527013" lon="-8.683941029012203">
        <ele>19.84</ele>
        <time>2025-05-06T08:11:39Z</time>
      </trkpt>
      <trkpt lat="38.581237038597465" lon="-8.683877997100353">
        <ele>19.359999999999999</ele>
        <time>2025-05-06T08:11:40Z</time>
      </trkpt>
      <trkpt lat="38.581213988363743" lon="-8.683801973238587">
        <ele>19.359999999999999</ele>
        <time>2025-05-06T08:11:41Z</time>
      </trkpt>
      <trkpt lat="38.581180041655898" lon="-8.683695020154119">
        <ele>18.879999999999999</ele>
        <time>2025-05-06T08:11:42Z</time>
      </trkpt>
      <trkpt lat="38.581138970330358" lon="-8.683563005179167">
        <ele>18.879999999999999</ele>
        <time>2025-05-06T08:11:43Z</time>
      </trkpt>
      <trkpt lat="38.581091025844216" lon="-8.683411041274667">
        <ele>18.879999999999999</ele>
        <time>2025-05-06T08:11:44Z</time>
      </trkpt>
      <trkpt lat="38.581038974225521" lon="-8.683242984116077">
        <ele>19.359999999999999</ele>
        <time>2025-05-06T08:11:45Z</time>
      </trkpt>
      <trkpt lat="38.580981977283955" lon="-8.683063024654985">
        <ele>19.359999999999999</ele>
        <time>2025-05-06T08:11:46Z</time>
      </trkpt>
      <trkpt lat="38.580466993153095" lon="-8.681368036195636">
        <ele>19.359999999999999</ele>
        <time>2025-05-06T08:11:54Z</time>
      </trkpt>
      <trkpt lat="38.579935999587178" lon="-8.679801961407065">
        <ele>18.879999999999999</ele>
        <time>2025-05-06T08:12:02Z</time>
      </trkpt>
      <trkpt lat="38.579530986025929" lon="-8.678512992337346">
        <ele>16</ele>
        <time>2025-05-06T08:12:11Z</time>
      </trkpt>
      <trkpt lat="38.579435013234615" lon="-8.678470999002457">
        <ele>15.52</ele>
        <time>2025-05-06T08:12:13Z</time>
      </trkpt>
      <trkpt lat="38.579399976879358" lon="-8.678444009274244">
        <ele>15.52</ele>
        <time>2025-05-06T08:12:14Z</time>
      </trkpt>
      <trkpt lat="38.579221023246646" lon="-8.678148966282606">
        <ele>15.039999999999999</ele>
        <time>2025-05-06T08:12:21Z</time>
      </trkpt>
      <trkpt lat="38.579221023246646" lon="-8.678124994039536">
        <ele>14.56</ele>
        <time>2025-05-06T08:12:22Z</time>
      </trkpt>
      <trkpt lat="38.579221023246646" lon="-8.678100015968084">
        <ele>14.56</ele>
        <time>2025-05-06T08:12:23Z</time>
      </trkpt>
      <trkpt lat="38.57886697165668" lon="-8.678385000675917">
        <ele>78.969999999999999</ele>
        <time>2025-05-06T08:16:12Z</time>
      </trkpt>
      <trkpt lat="38.579089008271694" lon="-8.678031032904983">
        <ele>20.809999999999999</ele>
        <time>2025-05-06T08:16:40Z</time>
      </trkpt>
      <trkpt lat="38.579094037413597" lon="-8.677993984892964">
        <ele>18.399999999999999</ele>
        <time>2025-05-06T08:17:25Z</time>
      </trkpt>
      <trkpt lat="38.579221023246646" lon="-8.677932964637876">
        <ele>18.399999999999999</ele>
        <time>2025-05-06T08:17:35Z</time>
      </trkpt>
      <trkpt lat="38.579257987439632" lon="-8.677677987143397">
        <ele>19.359999999999999</ele>
        <time>2025-05-06T08:17:43Z</time>
      </trkpt>
      <trkpt lat="38.57923099771142" lon="-8.677589977160096">
        <ele>18.879999999999999</ele>
        <time>2025-05-06T08:17:44Z</time>
      </trkpt>
      <trkpt lat="38.579198978841305" lon="-8.677473971620202">
        <ele>18.399999999999999</ele>
        <time>2025-05-06T08:17:45Z</time>
      </trkpt>
      <trkpt lat="38.578872000798583" lon="-8.676433023065329">
        <ele>15.52</ele>
        <time>2025-05-06T08:17:51Z</time>
      </trkpt>
      <trkpt lat="38.57817898504436" lon="-8.674298990517855">
        <ele>15.039999999999999</ele>
        <time>2025-05-06T08:18:00Z</time>
      </trkpt>
      <trkpt lat="38.577130995690823" lon="-8.670998029410839">
        <ele>18.879999999999999</ele>
        <time>2025-05-06T08:18:13Z</time>
      </trkpt>
      <trkpt lat="38.576285010203719" lon="-8.669069018214941">
        <ele>24.649999999999999</ele>
        <time>2025-05-06T08:18:21Z</time>
      </trkpt>
      <trkpt lat="38.575051026418805" lon="-8.6674789711833">
        <ele>30.899999999999999</ele>
        <time>2025-05-06T08:18:29Z</time>
      </trkpt>
      <trkpt lat="38.572516003623605" lon="-8.664667010307312">
        <ele>49.159999999999997</ele>
        <time>2025-05-06T08:18:44Z</time>
      </trkpt>
      <trkpt lat="38.570877006277442" lon="-8.662843024358153">
        <ele>61.18</ele>
        <time>2025-05-06T08:18:54Z</time>
      </trkpt>
      <trkpt lat="38.56851196847856" lon="-8.660217979922891">
        <ele>65.030000000000001</ele>
        <time>2025-05-06T08:19:08Z</time>
      </trkpt>
      <trkpt lat="38.566948994994164" lon="-8.658717032521963">
        <ele>61.18</ele>
        <time>2025-05-06T08:19:17Z</time>
      </trkpt>
      <trkpt lat="38.564896015450358" lon="-8.657183982431889">
        <ele>56.369999999999997</ele>
        <time>2025-05-06T08:19:28Z</time>
      </trkpt>
      <trkpt lat="38.563318038359284" lon="-8.656218973919749">
        <ele>53.969999999999999</ele>
        <time>2025-05-06T08:19:36Z</time>
      </trkpt>
      <trkpt lat="38.561862017959356" lon="-8.655871041119099">
        <ele>52.049999999999997</ele>
        <time>2025-05-06T08:19:43Z</time>
      </trkpt>
      <trkpt lat="38.560275994241238" lon="-8.655524030327797">
        <ele>49.649999999999999</ele>
        <time>2025-05-06T08:19:51Z</time>
      </trkpt>
      <trkpt lat="38.559115016832948" lon="-8.65501600317657">
        <ele>48.68</ele>
        <time>2025-05-06T08:19:58Z</time>
      </trkpt>
      <trkpt lat="38.557575009763241" lon="-8.654108997434378">
        <ele>49.649999999999999</ele>
        <time>2025-05-06T08:20:07Z</time>
      </trkpt>
      <trkpt lat="38.556218985468149" lon="-8.652960006147623">
        <ele>54.93</ele>
        <time>2025-05-06T08:20:16Z</time>
      </trkpt>
      <trkpt lat="38.554680990055203" lon="-8.651372976601124">
        <ele>55.409999999999997</ele>
        <time>2025-05-06T08:20:27Z</time>
      </trkpt>
      <trkpt lat="38.553528981283307" lon="-8.650644002482295">
        <ele>53.490000000000002</ele>
        <time>2025-05-06T08:20:34Z</time>
      </trkpt>
      <trkpt lat="38.551928959786892" lon="-8.650037990882993">
        <ele>51.57</ele>
        <time>2025-05-06T08:20:43Z</time>
      </trkpt>
      <trkpt lat="38.550434969365597" lon="-8.649463998153806">
        <ele>49.159999999999997</ele>
        <time>2025-05-06T08:20:51Z</time>
      </trkpt>
      <trkpt lat="38.548444015905261" lon="-8.648637961596251">
        <ele>44.359999999999999</ele>
        <time>2025-05-06T08:21:00Z</time>
      </trkpt>
      <trkpt lat="38.546353988349438" lon="-8.647731961682439">
        <ele>43.399999999999999</ele>
        <time>2025-05-06T08:21:10Z</time>
      </trkpt>
      <trkpt lat="38.545121010392904" lon="-8.646899973973632">
        <ele>45.32</ele>
        <time>2025-05-06T08:21:17Z</time>
      </trkpt>
      <trkpt lat="38.543687034398317" lon="-8.64577797241509">
        <ele>50.609999999999999</ele>
        <time>2025-05-06T08:21:25Z</time>
      </trkpt>
      <trkpt lat="38.54249001480639" lon="-8.644838025793433">
        <ele>55.890000000000001</ele>
        <time>2025-05-06T08:21:31Z</time>
      </trkpt>
      <trkpt lat="38.540801983326674" lon="-8.643509997054935">
        <ele>64.549999999999997</ele>
        <time>2025-05-06T08:21:40Z</time>
      </trkpt>
      <trkpt lat="38.53913800790906" lon="-8.642001003026962">
        <ele>72.239999999999995</ele>
        <time>2025-05-06T08:21:50Z</time>
      </trkpt>
      <trkpt lat="38.538034027442336" lon="-8.640152039006352">
        <ele>75.120000000000005</ele>
        <time>2025-05-06T08:21:59Z</time>
      </trkpt>
      <trkpt lat="38.536698035895824" lon="-8.637660015374422">
        <ele>77.040000000000006</ele>
        <time>2025-05-06T08:22:11Z</time>
      </trkpt>
      <trkpt lat="38.535458017140627" lon="-8.635371001437306">
        <ele>79.450000000000003</ele>
        <time>2025-05-06T08:22:22Z</time>
      </trkpt>
      <trkpt lat="38.53411003947258" lon="-8.633046029135585">
        <ele>77.519999999999996</ele>
        <time>2025-05-06T08:22:33Z</time>
      </trkpt>
      <trkpt lat="38.532922994345427" lon="-8.631332013756037">
        <ele>79.450000000000003</ele>
        <time>2025-05-06T08:22:42Z</time>
      </trkpt>
      <trkpt lat="38.531892020255327" lon="-8.629847997799516">
        <ele>83.290000000000006</ele>
        <time>2025-05-06T08:22:50Z</time>
      </trkpt>
      <trkpt lat="38.530283030122519" lon="-8.627568036317825">
        <ele>87.620000000000005</ele>
        <time>2025-05-06T08:23:02Z</time>
      </trkpt>
      <trkpt lat="38.52884603664279" lon="-8.626025011762977">
        <ele>90.5</ele>
        <time>2025-05-06T08:23:11Z</time>
      </trkpt>
      <trkpt lat="38.526832032948732" lon="-8.623846974223852">
        <ele>92.900000000000006</ele>
        <time>2025-05-06T08:23:24Z</time>
      </trkpt>
      <trkpt lat="38.525434015318751" lon="-8.621683018282056">
        <ele>94.829999999999998</ele>
        <time>2025-05-06T08:23:35Z</time>
      </trkpt>
      <trkpt lat="38.523975983262062" lon="-8.619592990726233">
        <ele>101.56</ele>
        <time>2025-05-06T08:23:46Z</time>
      </trkpt>
      <trkpt lat="38.522600010037422" lon="-8.618120960891247">
        <ele>103.95999999999999</ele>
        <time>2025-05-06T08:23:55Z</time>
      </trkpt>
      <trkpt lat="38.521355967968702" lon="-8.616843977943063">
        <ele>103.95999999999999</ele>
        <time>2025-05-06T08:24:03Z</time>
      </trkpt>
      <trkpt lat="38.519745972007513" lon="-8.615297013893724">
        <ele>103.95999999999999</ele>
        <time>2025-05-06T08:24:13Z</time>
      </trkpt>
      <trkpt lat="38.518248964101076" lon="-8.614619001746178">
        <ele>102.52</ele>
        <time>2025-05-06T08:24:21Z</time>
      </trkpt>
      <trkpt lat="38.515876969322562" lon="-8.6140669696033">
        <ele>97.230000000000004</ele>
        <time>2025-05-06T08:24:33Z</time>
      </trkpt>
      <trkpt lat="38.514361018314958" lon="-8.613521978259087">
        <ele>92.900000000000006</ele>
        <time>2025-05-06T08:24:41Z</time>
      </trkpt>
      <trkpt lat="38.512883959338069" lon="-8.61221800558269">
        <ele>93.390000000000001</ele>
        <time>2025-05-06T08:24:50Z</time>
      </trkpt>
      <trkpt lat="38.510396964848042" lon="-8.609640989452601">
        <ele>95.310000000000002</ele>
        <time>2025-05-06T08:25:06Z</time>
      </trkpt>
      <trkpt lat="38.50789999589324" lon="-8.607064979150891">
        <ele>89.540000000000006</ele>
        <time>2025-05-06T08:25:22Z</time>
      </trkpt>
      <trkpt lat="38.505719024688005" lon="-8.604819970205426">
        <ele>84.730000000000004</ele>
        <time>2025-05-06T08:25:36Z</time>
      </trkpt>
      <trkpt lat="38.504255963489413" lon="-8.60349303111434">
        <ele>77.519999999999996</ele>
        <time>2025-05-06T08:25:45Z</time>
      </trkpt>
      <trkpt lat="38.502599028870463" lon="-8.602611003443599">
        <ele>75.120000000000005</ele>
        <time>2025-05-06T08:25:54Z</time>
      </trkpt>
      <trkpt lat="38.500624001026154" lon="-8.602105993777514">
        <ele>70.310000000000002</ele>
        <time>2025-05-06T08:26:04Z</time>
      </trkpt>
      <trkpt lat="38.498074980452657" lon="-8.601478021591902">
        <ele>59.259999999999998</ele>
        <time>2025-05-06T08:26:17Z</time>
      </trkpt>
      <trkpt lat="38.495530989021063" lon="-8.600850971415639">
        <ele>55.890000000000001</ele>
        <time>2025-05-06T08:26:30Z</time>
      </trkpt>
      <trkpt lat="38.493767017498612" lon="-8.600416034460068">
        <ele>56.369999999999997</ele>
        <time>2025-05-06T08:26:39Z</time>
      </trkpt>
      <trkpt lat="38.491602977737784" lon="-8.599882023409009">
        <ele>57.340000000000003</ele>
        <time>2025-05-06T08:26:50Z</time>
      </trkpt>
      <trkpt lat="38.490691026672721" lon="-8.599657975137234">
        <ele>56.369999999999997</ele>
        <time>2025-05-06T08:26:56Z</time>
      </trkpt>
      <trkpt lat="38.489943025633693" lon="-8.599468963220716">
        <ele>54.93</ele>
        <time>2025-05-06T08:27:03Z</time>
      </trkpt>
      <trkpt lat="38.488959996029735" lon="-8.599217003211379">
        <ele>52.530000000000001</ele>
        <time>2025-05-06T08:27:10Z</time>
      </trkpt>
      <trkpt lat="38.487192001193762" lon="-8.598761027678847">
        <ele>45.32</ele>
        <time>2025-05-06T08:27:18Z</time>
      </trkpt>
      <trkpt lat="38.484819000586867" lon="-8.598169013857842">
        <ele>32.82</ele>
        <time>2025-05-06T08:27:27Z</time>
      </trkpt>
      <trkpt lat="38.483164999634027" lon="-8.597781015560031">
        <ele>27.530000000000001</ele>
        <time>2025-05-06T08:27:34Z</time>
      </trkpt>
      <trkpt lat="38.481630021706223" lon="-8.597272988408804">
        <ele>24.649999999999999</ele>
        <time>2025-05-06T08:27:42Z</time>
      </trkpt>
      <trkpt lat="38.479265989735723" lon="-8.595856027677655">
        <ele>22.25</ele>
        <time>2025-05-06T08:27:55Z</time>
      </trkpt>
      <trkpt lat="38.477460024878383" lon="-8.594736959785223">
        <ele>14.08</ele>
        <time>2025-05-06T08:28:05Z</time>
      </trkpt>
      <trkpt lat="38.475938960909843" lon="-8.593558967113495">
        <ele>13.119999999999999</ele>
        <time>2025-05-06T08:28:14Z</time>
      </trkpt>
      <trkpt lat="38.474397026002407" lon="-8.59157002530992">
        <ele>8.789999999999999</ele>
        <time>2025-05-06T08:28:25Z</time>
      </trkpt>
      <trkpt lat="38.47287998534739" lon="-8.589558033272624">
        <ele>4.46</ele>
        <time>2025-05-06T08:28:36Z</time>
      </trkpt>
      <trkpt lat="38.471077959984541" lon="-8.587177991867065">
        <ele>3.5</ele>
        <time>2025-05-06T08:28:49Z</time>
      </trkpt>
      <trkpt lat="38.469361010938883" lon="-8.58503800816834">
        <ele>4.46</ele>
        <time>2025-05-06T08:29:01Z</time>
      </trkpt>
      <trkpt lat="38.467936003580689" lon="-8.584163021296263">
        <ele>7.35</ele>
        <time>2025-05-06T08:29:09Z</time>
      </trkpt>
      <trkpt lat="38.465683031827211" lon="-8.583001960068941">
        <ele>7.83</ele>
        <time>2025-05-06T08:29:21Z</time>
      </trkpt>
      <trkpt lat="38.464981969445944" lon="-8.582512037828565">
        <ele>6.87</ele>
        <time>2025-05-06T08:29:25Z</time>
      </trkpt>
      <trkpt lat="38.464819025248289" lon="-8.582362001761794">
        <ele>6.39</ele>
        <time>2025-05-06T08:29:26Z</time>
      </trkpt>
      <trkpt lat="38.463701969012618" lon="-8.580932971090078">
        <ele>6.87</ele>
        <time>2025-05-06T08:29:34Z</time>
      </trkpt>
      <trkpt lat="38.462132038548589" lon="-8.578301975503564">
        <ele>12.15</ele>
        <time>2025-05-06T08:29:47Z</time>
      </trkpt>
      <trkpt lat="38.46106200478971" lon="-8.576160985976458">
        <ele>17.440000000000001</ele>
        <time>2025-05-06T08:29:57Z</time>
      </trkpt>
      <trkpt lat="38.460637964308262" lon="-8.575007971376181">
        <ele>19.359999999999999</ele>
        <time>2025-05-06T08:30:02Z</time>
      </trkpt>
      <trkpt lat="38.460553977638483" lon="-8.574776966124773">
        <ele>20.32</ele>
        <time>2025-05-06T08:30:03Z</time>
      </trkpt>
      <trkpt lat="38.459397023543715" lon="-8.571552028879523">
        <ele>27.530000000000001</ele>
        <time>2025-05-06T08:30:17Z</time>
      </trkpt>
      <trkpt lat="38.45829002559185" lon="-8.568562958389521">
        <ele>36.189999999999998</ele>
        <time>2025-05-06T08:30:30Z</time>
      </trkpt>
      <trkpt lat="38.457449991255999" lon="-8.566258018836379">
        <ele>42.920000000000002</ele>
        <time>2025-05-06T08:30:40Z</time>
      </trkpt>
      <trkpt lat="38.456273004412651" lon="-8.563051018863916">
        <ele>53.009999999999998</ele>
        <time>2025-05-06T08:30:54Z</time>
      </trkpt>
      <trkpt lat="38.455075984820724" lon="-8.56011601164937">
        <ele>58.299999999999997</ele>
        <time>2025-05-06T08:31:07Z</time>
      </trkpt>
      <trkpt lat="38.453938979655504" lon="-8.558049034327269">
        <ele>63.100000000000001</ele>
        <time>2025-05-06T08:31:17Z</time>
      </trkpt>
      <trkpt lat="38.453019987791777" lon="-8.556376006454229">
        <ele>66.469999999999999</ele>
        <time>2025-05-06T08:31:25Z</time>
      </trkpt>
      <trkpt lat="38.451568996533751" lon="-8.553966041654348">
        <ele>73.680000000000007</ele>
        <time>2025-05-06T08:31:37Z</time>
      </trkpt>
      <trkpt lat="38.450526036322117" lon="-8.552416982129216">
        <ele>78</ele>
        <time>2025-05-06T08:31:45Z</time>
      </trkpt>
      <trkpt lat="38.448775978758931" lon="-8.549935016781092">
        <ele>84.730000000000004</ele>
        <time>2025-05-06T08:31:58Z</time>
      </trkpt>
      <trkpt lat="38.447334039956331" lon="-8.548542028293014">
        <ele>85.209999999999994</ele>
        <time>2025-05-06T08:32:07Z</time>
      </trkpt>
      <trkpt lat="38.445939039811492" lon="-8.54720301926136">
        <ele>80.890000000000001</ele>
        <time>2025-05-06T08:32:16Z</time>
      </trkpt>
      <trkpt lat="38.444247990846634" lon="-8.545575002208352">
        <ele>74.640000000000001</ele>
        <time>2025-05-06T08:32:27Z</time>
      </trkpt>
      <trkpt lat="38.442387962713838" lon="-8.543782029300928">
        <ele>67.909999999999997</ele>
        <time>2025-05-06T08:32:39Z</time>
      </trkpt>
      <trkpt lat="38.440833035856485" lon="-8.542272029444575">
        <ele>64.549999999999997</ele>
        <time>2025-05-06T08:32:49Z</time>
      </trkpt>
      <trkpt lat="38.439574996009469" lon="-8.541065035387874">
        <ele>64.069999999999993</ele>
        <time>2025-05-06T08:32:57Z</time>
      </trkpt>
      <trkpt lat="38.438012022525072" lon="-8.53955302387476">
        <ele>59.740000000000002</ele>
        <time>2025-05-06T08:33:07Z</time>
      </trkpt>
      <trkpt lat="38.43641703017056" lon="-8.538018967956305">
        <ele>49.649999999999999</ele>
        <time>2025-05-06T08:33:17Z</time>
      </trkpt>
      <trkpt lat="38.434846010059118" lon="-8.536496981978416">
        <ele>38.590000000000003</ele>
        <time>2025-05-06T08:33:27Z</time>
      </trkpt>
      <trkpt lat="38.433771030977368" lon="-8.534989999607205">
        <ele>28.5</ele>
        <time>2025-05-06T08:33:35Z</time>
      </trkpt>
      <trkpt lat="38.433029986917973" lon="-8.533200966194272">
        <ele>18.399999999999999</ele>
        <time>2025-05-06T08:33:43Z</time>
      </trkpt>
      <trkpt lat="38.432335965335369" lon="-8.531118985265493">
        <ele>15.52</ele>
        <time>2025-05-06T08:33:52Z</time>
      </trkpt>
      <trkpt lat="38.431469025090337" lon="-8.52855496108532">
        <ele>14.56</ele>
        <time>2025-05-06T08:34:03Z</time>
      </trkpt>
      <trkpt lat="38.430534023791552" lon="-8.525768984109163">
        <ele>12.15</ele>
        <time>2025-05-06T08:34:15Z</time>
      </trkpt>
      <trkpt lat="38.429440017789602" lon="-8.522788966074586">
        <ele>12.630000000000001</ele>
        <time>2025-05-06T08:34:28Z</time>
      </trkpt>
      <trkpt lat="38.428167980164289" lon="-8.520857021212578">
        <ele>20.32</ele>
        <time>2025-05-06T08:34:38Z</time>
      </trkpt>
      <trkpt lat="38.426719000563025" lon="-8.519538966938853">
        <ele>31.379999999999999</ele>
        <time>2025-05-06T08:34:47Z</time>
      </trkpt>
      <trkpt lat="38.425248982384801" lon="-8.518750984221697">
        <ele>39.07</ele>
        <time>2025-05-06T08:34:55Z</time>
      </trkpt>
      <trkpt lat="38.423460032790899" lon="-8.518358962610364">
        <ele>41.950000000000003</ele>
        <time>2025-05-06T08:35:04Z</time>
      </trkpt>
      <trkpt lat="38.421072028577328" lon="-8.51798496209085">
        <ele>42.439999999999998</ele>
        <time>2025-05-06T08:35:16Z</time>
      </trkpt>
      <trkpt lat="38.419110998511314" lon="-8.517693020403385">
        <ele>47.240000000000002</ele>
        <time>2025-05-06T08:35:26Z</time>
      </trkpt>
      <trkpt lat="38.416721988469362" lon="-8.517323965206742">
        <ele>51.57</ele>
        <time>2025-05-06T08:35:38Z</time>
      </trkpt>
      <trkpt lat="38.414324009791017" lon="-8.516959017142654">
        <ele>48.68</ele>
        <time>2025-05-06T08:35:50Z</time>
      </trkpt>
      <trkpt lat="38.412345964461565" lon="-8.51665198802948">
        <ele>45.32</ele>
        <time>2025-05-06T08:36:00Z</time>
      </trkpt>
      <trkpt lat="38.409956032410264" lon="-8.516299026086927">
        <ele>40.990000000000002</ele>
        <time>2025-05-06T08:36:12Z</time>
      </trkpt>
      <trkpt lat="38.407363006845117" lon="-8.515994008630514">
        <ele>29.460000000000001</ele>
        <time>2025-05-06T08:36:25Z</time>
      </trkpt>
      <trkpt lat="38.40522101148963" lon="-8.516127029433847">
        <ele>22.25</ele>
        <time>2025-05-06T08:36:36Z</time>
      </trkpt>
      <trkpt lat="38.405113974586129" lon="-8.516271030530334">
        <ele>21.77</ele>
        <time>2025-05-06T08:36:37Z</time>
      </trkpt>
      <trkpt lat="38.404967039823532" lon="-8.516388963907957">
        <ele>21.77</ele>
        <time>2025-05-06T08:36:38Z</time>
      </trkpt>
      <trkpt lat="38.404851034283638" lon="-8.516480997204781">
        <ele>21.289999999999999</ele>
        <time>2025-05-06T08:36:39Z</time>
      </trkpt>
      <trkpt lat="38.404752966016531" lon="-8.516579987481237">
        <ele>21.289999999999999</ele>
        <time>2025-05-06T08:36:40Z</time>
      </trkpt>
      <trkpt lat="38.404665039852262" lon="-8.516696998849511">
        <ele>21.289999999999999</ele>
        <time>2025-05-06T08:36:41Z</time>
      </trkpt>
      <trkpt lat="38.40457602404058" lon="-8.516816021874547">
        <ele>21.77</ele>
        <time>2025-05-06T08:36:42Z</time>
      </trkpt>
      <trkpt lat="38.4043850004673" lon="-8.517061024904251">
        <ele>22.25</ele>
        <time>2025-05-06T08:36:44Z</time>
      </trkpt>
      <trkpt lat="38.404283998534083" lon="-8.517148029059172">
        <ele>22.73</ele>
        <time>2025-05-06T08:36:45Z</time>
      </trkpt>
      <trkpt lat="38.404162041842937" lon="-8.517197985202074">
        <ele>23.210000000000001</ele>
        <time>2025-05-06T08:36:46Z</time>
      </trkpt>
      <trkpt lat="38.40406003408134" lon="-8.517225980758667">
        <ele>23.690000000000001</ele>
        <time>2025-05-06T08:36:47Z</time>
      </trkpt>
      <trkpt lat="38.403951991349459" lon="-8.517215000465512">
        <ele>23.690000000000001</ele>
        <time>2025-05-06T08:36:48Z</time>
      </trkpt>
      <trkpt lat="38.403859036043286" lon="-8.517183987423778">
        <ele>24.170000000000002</ele>
        <time>2025-05-06T08:36:49Z</time>
      </trkpt>
      <trkpt lat="38.40376197360456" lon="-8.517150962725282">
        <ele>24.170000000000002</ele>
        <time>2025-05-06T08:36:50Z</time>
      </trkpt>
      <trkpt lat="38.403670024126768" lon="-8.517049960792065">
        <ele>24.170000000000002</ele>
        <time>2025-05-06T08:36:51Z</time>
      </trkpt>
      <trkpt lat="38.403578996658325" lon="-8.516950970515609">
        <ele>24.649999999999999</ele>
        <time>2025-05-06T08:36:52Z</time>
      </trkpt>
      <trkpt lat="38.403485035523772" lon="-8.516848040744662">
        <ele>25.129999999999999</ele>
        <time>2025-05-06T08:36:53Z</time>
      </trkpt>
      <trkpt lat="38.403387973085046" lon="-8.516741003841162">
        <ele>25.609999999999999</ele>
        <time>2025-05-06T08:36:54Z</time>
      </trkpt>
      <trkpt lat="38.402508040890098" lon="-8.515592012554407">
        <ele>25.609999999999999</ele>
        <time>2025-05-06T08:37:02Z</time>
      </trkpt>
      <trkpt lat="38.402191959321499" lon="-8.515356983989477">
        <ele>25.609999999999999</ele>
        <time>2025-05-06T08:37:04Z</time>
      </trkpt>
      <trkpt lat="38.40202197432518" lon="-8.51525598205626">
        <ele>25.609999999999999</ele>
        <time>2025-05-06T08:37:05Z</time>
      </trkpt>
      <trkpt lat="38.401850983500481" lon="-8.515154980123043">
        <ele>25.609999999999999</ele>
        <time>2025-05-06T08:37:06Z</time>
      </trkpt>
      <trkpt lat="38.401667000725865" lon="-8.515088008716703">
        <ele>25.609999999999999</ele>
        <time>2025-05-06T08:37:07Z</time>
      </trkpt>
      <trkpt lat="38.401481006294489" lon="-8.515046015381813">
        <ele>26.09</ele>
        <time>2025-05-06T08:37:08Z</time>
      </trkpt>
      <trkpt lat="38.401288976892829" lon="-8.515011984854937">
        <ele>26.09</ele>
        <time>2025-05-06T08:37:09Z</time>
      </trkpt>
      <trkpt lat="38.399234991520643" lon="-8.514697998762131">
        <ele>30.420000000000002</ele>
        <time>2025-05-06T08:37:20Z</time>
      </trkpt>
      <trkpt lat="38.397694984450936" lon="-8.514476967975497">
        <ele>36.189999999999998</ele>
        <time>2025-05-06T08:37:29Z</time>
      </trkpt>
      <trkpt lat="38.396663004532456" lon="-8.514345036819577">
        <ele>38.109999999999999</ele>
        <time>2025-05-06T08:37:38Z</time>
      </trkpt>
      <trkpt lat="38.394982013851404" lon="-8.514104979112744">
        <ele>40.030000000000001</ele>
        <time>2025-05-06T08:37:52Z</time>
      </trkpt>
      <trkpt lat="38.39329699985683" lon="-8.513838015496731">
        <ele>43.399999999999999</ele>
        <time>2025-05-06T08:38:06Z</time>
      </trkpt>
      <trkpt lat="38.391610980033875" lon="-8.513584965839982">
        <ele>45.799999999999997</ele>
        <time>2025-05-06T08:38:20Z</time>
      </trkpt>
      <trkpt lat="38.389680041000247" lon="-8.513295035809279">
        <ele>50.609999999999999</ele>
        <time>2025-05-06T08:38:36Z</time>
      </trkpt>
      <trkpt lat="38.388477992266417" lon="-8.513124966993928">
        <ele>52.049999999999997</ele>
        <time>2025-05-06T08:38:46Z</time>
      </trkpt>
      <trkpt lat="38.38736898265779" lon="-8.513023965060711">
        <ele>53.490000000000002</ele>
        <time>2025-05-06T08:38:56Z</time>
      </trkpt>
      <trkpt lat="38.386941002681851" lon="-8.513005021959543">
        <ele>54.93</ele>
        <time>2025-05-06T08:39:04Z</time>
      </trkpt>
      <trkpt lat="38.386877970770001" lon="-8.513003010302782">
        <ele>55.409999999999997</ele>
        <time>2025-05-06T08:39:05Z</time>
      </trkpt>
      <trkpt lat="38.386602960526943" lon="-8.512997981160879">
        <ele>55.890000000000001</ele>
        <time>2025-05-06T08:39:10Z</time>
      </trkpt>
      <trkpt lat="38.386362986639142" lon="-8.512993035838008">
        <ele>56.369999999999997</ele>
        <time>2025-05-06T08:39:14Z</time>
      </trkpt>
      <trkpt lat="38.385776001960039" lon="-8.513010973110795">
        <ele>56.859999999999999</ele>
        <time>2025-05-06T08:39:22Z</time>
      </trkpt>
      <trkpt lat="38.384163994342089" lon="-8.513185987249017">
        <ele>62.140000000000001</ele>
        <time>2025-05-06T08:39:36Z</time>
      </trkpt>
      <trkpt lat="38.382244035601616" lon="-8.513436019420624">
        <ele>63.579999999999998</ele>
        <time>2025-05-06T08:39:52Z</time>
      </trkpt>
      <trkpt lat="38.380759013816714" lon="-8.513465020805597">
        <ele>65.510000000000005</ele>
        <time>2025-05-06T08:40:05Z</time>
      </trkpt>
      <trkpt lat="38.380386019125581" lon="-8.513410035520792">
        <ele>65.510000000000005</ele>
        <time>2025-05-06T08:40:09Z</time>
      </trkpt>
      <trkpt lat="38.38027898222208" lon="-8.513433001935482">
        <ele>65.510000000000005</ele>
        <time>2025-05-06T08:40:10Z</time>
      </trkpt>
      <trkpt lat="38.380236988887191" lon="-8.513484969735146">
        <ele>65.510000000000005</ele>
        <time>2025-05-06T08:40:11Z</time>
      </trkpt>
      <trkpt lat="38.380222991108894" lon="-8.513502990826964">
        <ele>65.510000000000005</ele>
        <time>2025-05-06T08:40:12Z</time>
      </trkpt>
      <trkpt lat="38.380147973075509" lon="-8.513551019132137">
        <ele>65.030000000000001</ele>
        <time>2025-05-06T08:40:13Z</time>
      </trkpt>
      <trkpt lat="38.380147973075509" lon="-8.513551019132137">
        <ele>65.030000000000001</ele>
        <time>2025-05-06T08:40:23Z</time>
      </trkpt>
      <trkpt lat="38.380131963640451" lon="-8.513622013852">
        <ele>65.510000000000005</ele>
        <time>2025-05-06T08:40:26Z</time>
      </trkpt>
      <trkpt lat="38.38017001748085" lon="-8.51370801217854">
        <ele>65.510000000000005</ele>
        <time>2025-05-06T08:40:27Z</time>
      </trkpt>
      <trkpt lat="38.380115032196045" lon="-8.513696026057005">
        <ele>65.030000000000001</ele>
        <time>2025-05-06T08:40:28Z</time>
      </trkpt>
      <trkpt lat="38.379406007006764" lon="-8.513608016073704">
        <ele>62.619999999999997</ele>
        <time>2025-05-06T08:40:36Z</time>
      </trkpt>
      <trkpt lat="38.378592040389776" lon="-8.513502990826964">
        <ele>59.740000000000002</ele>
        <time>2025-05-06T08:40:44Z</time>
      </trkpt>
      <trkpt lat="38.378501012921333" lon="-8.513495028018951">
        <ele>59.259999999999998</ele>
        <time>2025-05-06T08:40:45Z</time>
      </trkpt>
      <trkpt lat="38.378407973796129" lon="-8.513485975563526">
        <ele>59.259999999999998</ele>
        <time>2025-05-06T08:40:46Z</time>
      </trkpt>
      <trkpt lat="38.378031961619854" lon="-8.51344901137054">
        <ele>58.299999999999997</ele>
        <time>2025-05-06T08:40:50Z</time>
      </trkpt>
      <trkpt lat="38.377830041572452" lon="-8.513427972793579">
        <ele>58.299999999999997</ele>
        <time>2025-05-06T08:40:52Z</time>
      </trkpt>
      <trkpt lat="38.377637006342411" lon="-8.513410035520792">
        <ele>57.82</ele>
        <time>2025-05-06T08:40:54Z</time>
      </trkpt>
      <trkpt lat="38.377545978873968" lon="-8.513402994722128">
        <ele>57.340000000000003</ele>
        <time>2025-05-06T08:40:55Z</time>
      </trkpt>
      <trkpt lat="38.376693958416581" lon="-8.513306016102433">
        <ele>54.450000000000003</ele>
        <time>2025-05-06T08:41:04Z</time>
      </trkpt>
      <trkpt lat="38.375625014305115" lon="-8.513195961713791">
        <ele>51.57</ele>
        <time>2025-05-06T08:41:14Z</time>
      </trkpt>
      <trkpt lat="38.375084968283772" lon="-8.5130849853158">
        <ele>47.719999999999999</ele>
        <time>2025-05-06T08:41:20Z</time>
      </trkpt>
      <trkpt lat="38.374997964128852" lon="-8.513046009466052">
        <ele>46.759999999999998</ele>
        <time>2025-05-06T08:41:21Z</time>
      </trkpt>
      <trkpt lat="38.374914983287454" lon="-8.512991024181247">
        <ele>45.799999999999997</ele>
        <time>2025-05-06T08:41:22Z</time>
      </trkpt>
      <trkpt lat="38.374829990789294" lon="-8.512922963127494">
        <ele>45.32</ele>
        <time>2025-05-06T08:41:23Z</time>
      </trkpt>
      <trkpt lat="38.374744998291135" lon="-8.512853980064392">
        <ele>44.359999999999999</ele>
        <time>2025-05-06T08:41:24Z</time>
      </trkpt>
      <trkpt lat="38.373990962281823" lon="-8.512246962636709">
        <ele>39.07</ele>
        <time>2025-05-06T08:41:34Z</time>
      </trkpt>
      <trkpt lat="38.373562982305884" lon="-8.511889977380633">
        <ele>37.630000000000003</ele>
        <time>2025-05-06T08:41:39Z</time>
      </trkpt>
      <trkpt lat="38.37350900284946" lon="-8.511803979054093">
        <ele>37.149999999999999</ele>
        <time>2025-05-06T08:41:40Z</time>
      </trkpt>
      <trkpt lat="38.373476983979344" lon="-8.511711023747921">
        <ele>36.670000000000002</ele>
        <time>2025-05-06T08:41:41Z</time>
      </trkpt>
      <trkpt lat="38.373462986201048" lon="-8.511609015986323">
        <ele>36.189999999999998</ele>
        <time>2025-05-06T08:41:42Z</time>
      </trkpt>
      <trkpt lat="38.37344697676599" lon="-8.511499967426062">
        <ele>36.189999999999998</ele>
        <time>2025-05-06T08:41:43Z</time>
      </trkpt>
      <trkpt lat="38.373429961502552" lon="-8.511379016563296">
        <ele>35.710000000000001</ele>
        <time>2025-05-06T08:41:44Z</time>
      </trkpt>
      <trkpt lat="38.373372964560986" lon="-8.51074299775064">
        <ele>33.299999999999997</ele>
        <time>2025-05-06T08:41:49Z</time>
      </trkpt>
      <trkpt lat="38.373332982882857" lon="-8.510618023574352">
        <ele>33.299999999999997</ele>
        <time>2025-05-06T08:41:50Z</time>
      </trkpt>
      <trkpt lat="38.373213037848473" lon="-8.509987033903599">
        <ele>32.340000000000003</ele>
        <time>2025-05-06T08:41:55Z</time>
      </trkpt>
      <trkpt lat="38.373250002041459" lon="-8.509887959808111">
        <ele>32.340000000000003</ele>
        <time>2025-05-06T08:41:56Z</time>
      </trkpt>
      <trkpt lat="38.373270034790039" lon="-8.509833980351687">
        <ele>31.859999999999999</ele>
        <time>2025-05-06T08:41:57Z</time>
      </trkpt>
      <trkpt lat="38.373361984267831" lon="-8.509750999510288">
        <ele>31.859999999999999</ele>
        <time>2025-05-06T08:41:58Z</time>
      </trkpt>
      <trkpt lat="38.373433984816074" lon="-8.509685033932328">
        <ele>31.379999999999999</ele>
        <time>2025-05-06T08:41:59Z</time>
      </trkpt>
      <trkpt lat="38.373506991192698" lon="-8.509618984535337">
        <ele>31.379999999999999</ele>
        <time>2025-05-06T08:42:00Z</time>
      </trkpt>
      <trkpt lat="38.373587038367987" lon="-8.509618984535337">
        <ele>30.899999999999999</ele>
        <time>2025-05-06T08:42:01Z</time>
      </trkpt>
      <trkpt lat="38.37368099950254" lon="-8.509618984535337">
        <ele>30.420000000000002</ele>
        <time>2025-05-06T08:42:02Z</time>
      </trkpt>
      <trkpt lat="38.373785018920898" lon="-8.509618984535337">
        <ele>30.420000000000002</ele>
        <time>2025-05-06T08:42:03Z</time>
      </trkpt>
      <trkpt lat="38.373860036954284" lon="-8.509651003405452">
        <ele>29.940000000000001</ele>
        <time>2025-05-06T08:42:04Z</time>
      </trkpt>
      <trkpt lat="38.373946035280824" lon="-8.509686961770058">
        <ele>29.460000000000001</ele>
        <time>2025-05-06T08:42:05Z</time>
      </trkpt>
      <trkpt lat="38.374033961445093" lon="-8.509724009782076">
        <ele>28.98</ele>
        <time>2025-05-06T08:42:06Z</time>
      </trkpt>
      <trkpt lat="38.374119037762284" lon="-8.509759968146682">
        <ele>28.5</ele>
        <time>2025-05-06T08:42:07Z</time>
      </trkpt>
      <trkpt lat="38.37421802803874" lon="-8.509772960096598">
        <ele>28.02</ele>
        <time>2025-05-06T08:42:08Z</time>
      </trkpt>
      <trkpt lat="38.374286005273461" lon="-8.509725015610457">
        <ele>27.530000000000001</ele>
        <time>2025-05-06T08:42:09Z</time>
      </trkpt>
      <trkpt lat="38.374353982508183" lon="-8.509657960385084">
        <ele>27.050000000000001</ele>
        <time>2025-05-06T08:42:10Z</time>
      </trkpt>
      <trkpt lat="38.374386001378298" lon="-8.509575985372067">
        <ele>26.09</ele>
        <time>2025-05-06T08:42:11Z</time>
      </trkpt>
      <trkpt lat="38.374378038570285" lon="-8.509457968175411">
        <ele>25.609999999999999</ele>
        <time>2025-05-06T08:42:12Z</time>
      </trkpt>
      <trkpt lat="38.37436999194324" lon="-8.509354032576084">
        <ele>24.170000000000002</ele>
        <time>2025-05-06T08:42:13Z</time>
      </trkpt>
      <trkpt lat="38.374353982508183" lon="-8.509264010936022">
        <ele>23.210000000000001</ele>
        <time>2025-05-06T08:42:14Z</time>
      </trkpt>
      <trkpt lat="38.374289022758603" lon="-8.509189998731017">
        <ele>21.77</ele>
        <time>2025-05-06T08:42:15Z</time>
      </trkpt>
      <trkpt lat="38.374210987240076" lon="-8.509102994576097">
        <ele>19.84</ele>
        <time>2025-05-06T08:42:16Z</time>
      </trkpt>
      <trkpt lat="38.374116020277143" lon="-8.509052032604814">
        <ele>18.399999999999999</ele>
        <time>2025-05-06T08:42:17Z</time>
      </trkpt>
      <trkpt lat="38.373254025354981" lon="-8.508648024871945">
        <ele>8.310000000000001</ele>
        <time>2025-05-06T08:42:25Z</time>
      </trkpt>
      <trkpt lat="38.373159980401397" lon="-8.50861500017345">
        <ele>7.35</ele>
        <time>2025-05-06T08:42:26Z</time>
      </trkpt>
      <trkpt lat="38.372969962656498" lon="-8.508546017110348">
        <ele>5.91</ele>
        <time>2025-05-06T08:42:28Z</time>
      </trkpt>
      <trkpt lat="38.372889999300241" lon="-8.508520033210516">
        <ele>4.94</ele>
        <time>2025-05-06T08:42:29Z</time>
      </trkpt>
      <trkpt lat="38.372794026508927" lon="-8.50846303626895">
        <ele>4.46</ele>
        <time>2025-05-06T08:42:30Z</time>
      </trkpt>
      <trkpt lat="38.372078966349363" lon="-8.507800027728081">
        <ele>-3.71</ele>
        <time>2025-05-06T08:42:40Z</time>
      </trkpt>
      <trkpt lat="38.37200403213501" lon="-8.507687961682677">
        <ele>-4.19</ele>
        <time>2025-05-06T08:42:41Z</time>
      </trkpt>
      <trkpt lat="38.371975030750036" lon="-8.50762601941824">
        <ele>-4.67</ele>
        <time>2025-05-06T08:42:42Z</time>
      </trkpt>
      <trkpt lat="38.371932031586766" lon="-8.507534991949797">
        <ele>-4.67</ele>
        <time>2025-05-06T08:42:43Z</time>
      </trkpt>
      <trkpt lat="38.371890960261226" lon="-8.507446981966496">
        <ele>-5.15</ele>
        <time>2025-05-06T08:42:44Z</time>
      </trkpt>
      <trkpt lat="38.37183304131031" lon="-8.507323013618588">
        <ele>-4.67</ele>
        <time>2025-05-06T08:42:45Z</time>
      </trkpt>
      <trkpt lat="38.371790964156389" lon="-8.507281020283699">
        <ele>-4.67</ele>
        <time>2025-05-06T08:42:46Z</time>
      </trkpt>
      <trkpt lat="38.371723992750049" lon="-8.507213965058327">
        <ele>-4.19</ele>
        <time>2025-05-06T08:42:47Z</time>
      </trkpt>
      <trkpt lat="38.371658027172089" lon="-8.507149005308747">
        <ele>-3.71</ele>
        <time>2025-05-06T08:42:48Z</time>
      </trkpt>
      <trkpt lat="38.371602036058903" lon="-8.507066024467349">
        <ele>-3.71</ele>
        <time>2025-05-06T08:42:49Z</time>
      </trkpt>
      <trkpt lat="38.371548978611827" lon="-8.506976002827287">
        <ele>-3.71</ele>
        <time>2025-05-06T08:42:50Z</time>
      </trkpt>
      <trkpt lat="38.371411012485623" lon="-8.506735023111105">
        <ele>-3.23</ele>
        <time>2025-05-06T08:42:53Z</time>
      </trkpt>
      <trkpt lat="38.371449988335371" lon="-8.506653970107436">
        <ele>-3.23</ele>
        <time>2025-05-06T08:42:54Z</time>
      </trkpt>
      <trkpt lat="38.371461974456906" lon="-8.50659797899425">
        <ele>-3.71</ele>
        <time>2025-05-06T08:42:55Z</time>
      </trkpt>
      <trkpt lat="38.371485024690628" lon="-8.506494965404272">
        <ele>-4.19</ele>
        <time>2025-05-06T08:42:57Z</time>
      </trkpt>
      <trkpt lat="38.371483013033867" lon="-8.506348030641675">
        <ele>-4.19</ele>
        <time>2025-05-06T08:42:58Z</time>
      </trkpt>
      <trkpt lat="38.371436996385455" lon="-8.50629597902298">
        <ele>-4.19</ele>
        <time>2025-05-06T08:42:59Z</time>
      </trkpt>
      <trkpt lat="38.37138301692903" lon="-8.506234958767891">
        <ele>-4.67</ele>
        <time>2025-05-06T08:43:00Z</time>
      </trkpt>
      <trkpt lat="38.371313028037548" lon="-8.50616698153317">
        <ele>-5.15</ele>
        <time>2025-05-06T08:43:01Z</time>
      </trkpt>
      <trkpt lat="38.371238010004163" lon="-8.506109984591603">
        <ele>-5.15</ele>
        <time>2025-05-06T08:43:02Z</time>
      </trkpt>
      <trkpt lat="38.3711479883641" lon="-8.506056005135179">
        <ele>-6.11</ele>
        <time>2025-05-06T08:43:03Z</time>
      </trkpt>
      <trkpt lat="38.371073976159096" lon="-8.506051981821656">
        <ele>-6.59</ele>
        <time>2025-05-06T08:43:04Z</time>
      </trkpt>
      <trkpt lat="38.370880018919706" lon="-8.506039995700121">
        <ele>-8.51</ele>
        <time>2025-05-06T08:43:07Z</time>
      </trkpt>
      <trkpt lat="38.370678015053272" lon="-8.506089029833674">
        <ele>-11.4</ele>
        <time>2025-05-06T08:43:12Z</time>
      </trkpt>
      <trkpt lat="38.370586987584829" lon="-8.5062310192734">
        <ele>-11.4</ele>
        <time>2025-05-06T08:43:15Z</time>
      </trkpt>
      <trkpt lat="38.370535019785166" lon="-8.506315005943179">
        <ele>-10.92</ele>
        <time>2025-05-06T08:43:16Z</time>
      </trkpt>
      <trkpt lat="38.370487997308373" lon="-8.506315005943179">
        <ele>-10.44</ele>
        <time>2025-05-06T08:43:17Z</time>
      </trkpt>
      <trkpt lat="38.370410967618227" lon="-8.506278963759542">
        <ele>-9.960000000000001</ele>
        <time>2025-05-06T08:43:18Z</time>
      </trkpt>
      <trkpt lat="38.370381966233253" lon="-8.506239987909794">
        <ele>-9.48</ele>
        <time>2025-05-06T08:43:19Z</time>
      </trkpt>
      <trkpt lat="38.370374003425241" lon="-8.506229007616639">
        <ele>-9</ele>
        <time>2025-05-06T08:43:20Z</time>
      </trkpt>
      <trkpt lat="38.370406022295356" lon="-8.506060028448701">
        <ele>-8.029999999999999</ele>
        <time>2025-05-06T08:43:21Z</time>
      </trkpt>
      <trkpt lat="38.370376015082002" lon="-8.506006971001625">
        <ele>-8.029999999999999</ele>
        <time>2025-05-06T08:43:22Z</time>
      </trkpt>
      <trkpt lat="38.370296973735094" lon="-8.505870010703802">
        <ele>-7.07</ele>
        <time>2025-05-06T08:43:29Z</time>
      </trkpt>
      <trkpt lat="38.370279036462307" lon="-8.505837991833687">
        <ele>-7.07</ele>
        <time>2025-05-06T08:43:33Z</time>
      </trkpt>
      <trkpt lat="38.370267972350121" lon="-8.505817959085107">
        <ele>-7.07</ele>
        <time>2025-05-06T08:43:34Z</time>
      </trkpt>
      <trkpt lat="38.370067980140448" lon="-8.505462985485792">
        <ele>-7.55</ele>
        <time>2025-05-06T08:43:45Z</time>
      </trkpt>
      <trkpt lat="38.369990028440952" lon="-8.505343040451407">
        <ele>-8.029999999999999</ele>
        <time>2025-05-06T08:43:47Z</time>
      </trkpt>
      <trkpt lat="38.369940994307399" lon="-8.505269028246403">
        <ele>-8.51</ele>
        <time>2025-05-06T08:43:48Z</time>
      </trkpt>
      <trkpt lat="38.369477977976203" lon="-8.504483979195356">
        <ele>-9</ele>
        <time>2025-05-06T08:43:59Z</time>
      </trkpt>
      <trkpt lat="38.369365995749831" lon="-8.504325980320573">
        <ele>-8.51</ele>
        <time>2025-05-06T08:44:07Z</time>
      </trkpt>
      <trkpt lat="38.369308998808265" lon="-8.504227995872498">
        <ele>-7.55</ele>
        <time>2025-05-06T08:44:10Z</time>
      </trkpt>
      <trkpt lat="38.368918988853693" lon="-8.503563981503248">
        <ele>-5.63</ele>
        <time>2025-05-06T08:44:18Z</time>
      </trkpt>
      <trkpt lat="38.368867021054029" lon="-8.503464991226792">
        <ele>-5.15</ele>
        <time>2025-05-06T08:44:19Z</time>
      </trkpt>
      <trkpt lat="38.368837013840675" lon="-8.503355020657182">
        <ele>-5.15</ele>
        <time>2025-05-06T08:44:20Z</time>
      </trkpt>
      <trkpt lat="38.368808012455702" lon="-8.503246977925301">
        <ele>-5.15</ele>
        <time>2025-05-06T08:44:21Z</time>
      </trkpt>
      <trkpt lat="38.368821004405618" lon="-8.503139019012451">
        <ele>-4.19</ele>
        <time>2025-05-06T08:44:22Z</time>
      </trkpt>
      <trkpt lat="38.368837013840675" lon="-8.503042962402105">
        <ele>-3.71</ele>
        <time>2025-05-06T08:44:23Z</time>
      </trkpt>
      <trkpt lat="38.368871966376901" lon="-8.502902984619141">
        <ele>-3.71</ele>
        <time>2025-05-06T08:44:24Z</time>
      </trkpt>
      <trkpt lat="38.368905996903777" lon="-8.502851016819477">
        <ele>-3.23</ele>
        <time>2025-05-06T08:44:25Z</time>
      </trkpt>
      <trkpt lat="38.36897699162364" lon="-8.502789996564388">
        <ele>-3.23</ele>
        <time>2025-05-06T08:44:26Z</time>
      </trkpt>
      <trkpt lat="38.369049998000264" lon="-8.502734005451202">
        <ele>-3.23</ele>
        <time>2025-05-06T08:44:27Z</time>
      </trkpt>
      <trkpt lat="38.369422992691398" lon="-8.502400992438197">
        <ele>-1.79</ele>
        <time>2025-05-06T08:44:32Z</time>
      </trkpt>
      <trkpt lat="38.369499016553164" lon="-8.502312982454896">
        <ele>-1.3</ele>
        <time>2025-05-06T08:44:33Z</time>
      </trkpt>
      <trkpt lat="38.369601024314761" lon="-8.502194965258241">
        <ele>-1.3</ele>
        <time>2025-05-06T08:44:34Z</time>
      </trkpt>
      <trkpt lat="38.369627008214593" lon="-8.502089018002152">
        <ele>-1.3</ele>
        <time>2025-05-06T08:44:35Z</time>
      </trkpt>
      <trkpt lat="38.369645029306412" lon="-8.501992039382458">
        <ele>-1.3</ele>
        <time>2025-05-06T08:44:36Z</time>
      </trkpt>
      <trkpt lat="38.369659027084708" lon="-8.501921966671944">
        <ele>-1.3</ele>
        <time>2025-05-06T08:44:37Z</time>
      </trkpt>
      <trkpt lat="38.369672019034624" lon="-8.501851977780461">
        <ele>-0.82</ele>
        <time>2025-05-06T08:44:38Z</time>
      </trkpt>
      <trkpt lat="38.369687022641301" lon="-8.501775031909347">
        <ele>-0.82</ele>
        <time>2025-05-06T08:44:39Z</time>
      </trkpt>
      <trkpt lat="38.369704037904739" lon="-8.501686016097665">
        <ele>-0.34</ele>
        <time>2025-05-06T08:44:40Z</time>
      </trkpt>
      <trkpt lat="38.369730021804571" lon="-8.500569965690374">
        <ele>1.58</ele>
        <time>2025-05-06T08:44:49Z</time>
      </trkpt>
      <trkpt lat="38.369748964905739" lon="-8.499408988282085">
        <ele>3.02</ele>
        <time>2025-05-06T08:44:57Z</time>
      </trkpt>
      <trkpt lat="38.369710994884372" lon="-8.499243026599288">
        <ele>3.02</ele>
        <time>2025-05-06T08:44:58Z</time>
      </trkpt>
      <trkpt lat="38.369663972407579" lon="-8.499078992754221">
        <ele>3.02</ele>
        <time>2025-05-06T08:44:59Z</time>
      </trkpt>
      <trkpt lat="38.369616027921438" lon="-8.498909007757902">
        <ele>3.02</ele>
        <time>2025-05-06T08:45:00Z</time>
      </trkpt>
      <trkpt lat="38.369559030979872" lon="-8.498736005276442">
        <ele>3.5</ele>
        <time>2025-05-06T08:45:01Z</time>
      </trkpt>
      <trkpt lat="38.369241021573544" lon="-8.498004013672471">
        <ele>3.98</ele>
        <time>2025-05-06T08:45:06Z</time>
      </trkpt>
      <trkpt lat="38.368927035480738" lon="-8.497257018461824">
        <ele>4.46</ele>
        <time>2025-05-06T08:45:11Z</time>
      </trkpt>
      <trkpt lat="38.368895016610622" lon="-8.497087033465505">
        <ele>4.46</ele>
        <time>2025-05-06T08:45:12Z</time>
      </trkpt>
      <trkpt lat="38.368864003568888" lon="-8.496914030984044">
        <ele>4.46</ele>
        <time>2025-05-06T08:45:13Z</time>
      </trkpt>
      <trkpt lat="38.368833996355534" lon="-8.496741028502584">
        <ele>4.94</ele>
        <time>2025-05-06T08:45:14Z</time>
      </trkpt>
      <trkpt lat="38.368802983313799" lon="-8.496569031849504">
        <ele>4.94</ele>
        <time>2025-05-06T08:45:15Z</time>
      </trkpt>
      <trkpt lat="38.368772976100445" lon="-8.496402986347675">
        <ele>5.42</ele>
        <time>2025-05-06T08:45:16Z</time>
      </trkpt>
      <trkpt lat="38.368743974715471" lon="-8.496238030493259">
        <ele>5.42</ele>
        <time>2025-05-06T08:45:17Z</time>
      </trkpt>
      <trkpt lat="38.368242988362908" lon="-8.494343971833587">
        <ele>7.35</ele>
        <time>2025-05-06T08:45:29Z</time>
      </trkpt>
      <trkpt lat="38.36781601421535" lon="-8.493168996647">
        <ele>8.789999999999999</ele>
        <time>2025-05-06T08:45:38Z</time>
      </trkpt>
      <trkpt lat="38.367440002039075" lon="-8.491711970418692">
        <ele>8.789999999999999</ele>
        <time>2025-05-06T08:45:49Z</time>
      </trkpt>
      <trkpt lat="38.367327013984323" lon="-8.491132026538253">
        <ele>9.75</ele>
        <time>2025-05-06T08:45:53Z</time>
      </trkpt>
      <trkpt lat="38.367307987064123" lon="-8.49097796715796">
        <ele>9.75</ele>
        <time>2025-05-06T08:45:54Z</time>
      </trkpt>
      <trkpt lat="38.367433967068791" lon="-8.489357996731997">
        <ele>9.27</ele>
        <time>2025-05-06T08:46:04Z</time>
      </trkpt>
      <trkpt lat="38.367670001462102" lon="-8.488623993471265">
        <ele>9.27</ele>
        <time>2025-05-06T08:46:09Z</time>
      </trkpt>
      <trkpt lat="38.367742002010345" lon="-8.488488961011171">
        <ele>8.789999999999999</ele>
        <time>2025-05-06T08:46:10Z</time>
      </trkpt>
      <trkpt lat="38.367832023650408" lon="-8.488373961299658">
        <ele>8.310000000000001</ele>
        <time>2025-05-06T08:46:11Z</time>
      </trkpt>
      <trkpt lat="38.367999996989965" lon="-8.488202970474958">
        <ele>8.310000000000001</ele>
        <time>2025-05-06T08:46:13Z</time>
      </trkpt>
      <trkpt lat="38.368077026680112" lon="-8.488130969926715">
        <ele>8.310000000000001</ele>
        <time>2025-05-06T08:46:14Z</time>
      </trkpt>
      <trkpt lat="38.368137963116169" lon="-8.488072967156768">
        <ele>8.789999999999999</ele>
        <time>2025-05-06T08:46:15Z</time>
      </trkpt>
      <trkpt lat="38.368131006136537" lon="-8.487793011590838">
        <ele>8.789999999999999</ele>
        <time>2025-05-06T08:46:16Z</time>
      </trkpt>
      <trkpt lat="38.368070991709828" lon="-8.487726962193847">
        <ele>9.27</ele>
        <time>2025-05-06T08:46:17Z</time>
      </trkpt>
      <trkpt lat="38.368001002818346" lon="-8.487650016322732">
        <ele>9.27</ele>
        <time>2025-05-06T08:46:18Z</time>
      </trkpt>
      <trkpt lat="38.367925984784961" lon="-8.487567035481334">
        <ele>8.789999999999999</ele>
        <time>2025-05-06T08:46:19Z</time>
      </trkpt>
      <trkpt lat="38.367844009771943" lon="-8.487476008012891">
        <ele>8.789999999999999</ele>
        <time>2025-05-06T08:46:20Z</time>
      </trkpt>
      <trkpt lat="38.366901967674494" lon="-8.48659398034215">
        <ele>7.35</ele>
        <time>2025-05-06T08:46:28Z</time>
      </trkpt>
      <trkpt lat="38.365614004433155" lon="-8.48597296513617">
        <ele>4.94</ele>
        <time>2025-05-06T08:46:35Z</time>
      </trkpt>
      <trkpt lat="38.363795969635248" lon="-8.48549896851182">
        <ele>5.42</ele>
        <time>2025-05-06T08:46:44Z</time>
      </trkpt>
      <trkpt lat="38.363635037094355" lon="-8.485439959913492">
        <ele>5.91</ele>
        <time>2025-05-06T08:46:45Z</time>
      </trkpt>
      <trkpt lat="38.363492963835597" lon="-8.485324960201979">
        <ele>6.39</ele>
        <time>2025-05-06T08:46:46Z</time>
      </trkpt>
      <trkpt lat="38.363348040729761" lon="-8.485208032652736">
        <ele>6.87</ele>
        <time>2025-05-06T08:46:47Z</time>
      </trkpt>
      <trkpt lat="38.363206973299384" lon="-8.485093032941222">
        <ele>6.87</ele>
        <time>2025-05-06T08:46:48Z</time>
      </trkpt>
      <trkpt lat="38.363100020214915" lon="-8.484907038509846">
        <ele>7.35</ele>
        <time>2025-05-06T08:46:49Z</time>
      </trkpt>
      <trkpt lat="38.362992983311415" lon="-8.484721966087818">
        <ele>7.35</ele>
        <time>2025-05-06T08:46:50Z</time>
      </trkpt>
      <trkpt lat="38.362884018570185" lon="-8.484531026333571">
        <ele>7.83</ele>
        <time>2025-05-06T08:46:51Z</time>
      </trkpt>
      <trkpt lat="38.362826015800238" lon="-8.484317036345601">
        <ele>8.310000000000001</ele>
        <time>2025-05-06T08:46:52Z</time>
      </trkpt>
      <trkpt lat="38.362772036343813" lon="-8.484116038307548">
        <ele>8.789999999999999</ele>
        <time>2025-05-06T08:46:53Z</time>
      </trkpt>
      <trkpt lat="38.362720990553498" lon="-8.483929038047791">
        <ele>8.789999999999999</ele>
        <time>2025-05-06T08:46:54Z</time>
      </trkpt>
      <trkpt lat="38.362308014184237" lon="-8.482072027400136">
        <ele>12.15</ele>
        <time>2025-05-06T08:47:05Z</time>
      </trkpt>
      <trkpt lat="38.361922027543187" lon="-8.480353988707066">
        <ele>14.08</ele>
        <time>2025-05-06T08:47:16Z</time>
      </trkpt>
      <trkpt lat="38.361698985099792" lon="-8.479389986023307">
        <ele>13.6</ele>
        <time>2025-05-06T08:47:22Z</time>
      </trkpt>
      <trkpt lat="38.361653974279761" lon="-8.479189993813634">
        <ele>13.6</ele>
        <time>2025-05-06T08:47:23Z</time>
      </trkpt>
      <trkpt lat="38.36143403314054" lon="-8.478370998054743">
        <ele>12.630000000000001</ele>
        <time>2025-05-06T08:47:27Z</time>
      </trkpt>
      <trkpt lat="38.361339988186955" lon="-8.478181986138225">
        <ele>12.630000000000001</ele>
        <time>2025-05-06T08:47:28Z</time>
      </trkpt>
      <trkpt lat="38.361206967383623" lon="-8.478041002526879">
        <ele>13.119999999999999</ele>
        <time>2025-05-06T08:47:29Z</time>
      </trkpt>
      <trkpt lat="38.361073024570942" lon="-8.477898007258773">
        <ele>13.6</ele>
        <time>2025-05-06T08:47:30Z</time>
      </trkpt>
      <trkpt lat="38.360930029302835" lon="-8.477768003940582">
        <ele>14.08</ele>
        <time>2025-05-06T08:47:31Z</time>
      </trkpt>
      <trkpt lat="38.360786028206348" lon="-8.477644035592675">
        <ele>15.039999999999999</ele>
        <time>2025-05-06T08:47:32Z</time>
      </trkpt>
      <trkpt lat="38.358993977308273" lon="-8.476035967469215">
        <ele>20.809999999999999</ele>
        <time>2025-05-06T08:47:44Z</time>
      </trkpt>
      <trkpt lat="38.357942970469594" lon="-8.475081017240882">
        <ele>24.649999999999999</ele>
        <time>2025-05-06T08:47:52Z</time>
      </trkpt>
      <trkpt lat="38.35758900269866" lon="-8.474655970931053">
        <ele>26.09</ele>
        <time>2025-05-06T08:47:55Z</time>
      </trkpt>
      <trkpt lat="38.357357997447252" lon="-8.474321030080319">
        <ele>27.530000000000001</ele>
        <time>2025-05-06T08:47:57Z</time>
      </trkpt>
      <trkpt lat="38.357222964987159" lon="-8.474166970700026">
        <ele>27.530000000000001</ele>
        <time>2025-05-06T08:47:58Z</time>
      </trkpt>
      <trkpt lat="38.357060020789504" lon="-8.474044008180499">
        <ele>27.530000000000001</ele>
        <time>2025-05-06T08:47:59Z</time>
      </trkpt>
      <trkpt lat="38.356597004458308" lon="-8.473635977134109">
        <ele>27.530000000000001</ele>
        <time>2025-05-06T08:48:02Z</time>
      </trkpt>
      <trkpt lat="38.356486028060317" lon="-8.473455011844635">
        <ele>27.530000000000001</ele>
        <time>2025-05-06T08:48:03Z</time>
      </trkpt>
      <trkpt lat="38.356374967843294" lon="-8.473260970786214">
        <ele>27.530000000000001</ele>
        <time>2025-05-06T08:48:04Z</time>
      </trkpt>
      <trkpt lat="38.355611963197589" lon="-8.471780978143215">
        <ele>27.530000000000001</ele>
        <time>2025-05-06T08:48:11Z</time>
      </trkpt>
      <trkpt lat="38.355476008728147" lon="-8.471630020067096">
        <ele>27.530000000000001</ele>
        <time>2025-05-06T08:48:12Z</time>
      </trkpt>
      <trkpt lat="38.355315998196602" lon="-8.47151099704206">
        <ele>27.050000000000001</ele>
        <time>2025-05-06T08:48:13Z</time>
      </trkpt>
      <trkpt lat="38.354986002668738" lon="-8.471266999840736">
        <ele>26.09</ele>
        <time>2025-05-06T08:48:15Z</time>
      </trkpt>
      <trkpt lat="38.353570969775319" lon="-8.470314983278513">
        <ele>21.77</ele>
        <time>2025-05-06T08:48:23Z</time>
      </trkpt>
      <trkpt lat="38.353391010314226" lon="-8.470195038244128">
        <ele>22.25</ele>
        <time>2025-05-06T08:48:24Z</time>
      </trkpt>
      <trkpt lat="38.353214990347624" lon="-8.470078026875854">
        <ele>22.25</ele>
        <time>2025-05-06T08:48:25Z</time>
      </trkpt>
      <trkpt lat="38.352217962965369" lon="-8.469348968937993">
        <ele>22.73</ele>
        <time>2025-05-06T08:48:31Z</time>
      </trkpt>
      <trkpt lat="38.352063987404108" lon="-8.469179989770055">
        <ele>22.73</ele>
        <time>2025-05-06T08:48:32Z</time>
      </trkpt>
      <trkpt lat="38.351919986307621" lon="-8.468990977853537">
        <ele>23.210000000000001</ele>
        <time>2025-05-06T08:48:33Z</time>
      </trkpt>
      <trkpt lat="38.351793000474572" lon="-8.468768019229174">
        <ele>22.73</ele>
        <time>2025-05-06T08:48:34Z</time>
      </trkpt>
      <trkpt lat="38.3516810182482" lon="-8.468542965129018">
        <ele>23.210000000000001</ele>
        <time>2025-05-06T08:48:35Z</time>
      </trkpt>
      <trkpt lat="38.351575993001461" lon="-8.468317994847894">
        <ele>24.170000000000002</ele>
        <time>2025-05-06T08:48:36Z</time>
      </trkpt>
      <trkpt lat="38.35103795863688" lon="-8.467126004397869">
        <ele>27.530000000000001</ele>
        <time>2025-05-06T08:48:41Z</time>
      </trkpt>
      <trkpt lat="38.35092999972403" lon="-8.466889970004559">
        <ele>28.02</ele>
        <time>2025-05-06T08:48:42Z</time>
      </trkpt>
      <trkpt lat="38.350106980651617" lon="-8.465103032067418">
        <ele>31.859999999999999</ele>
        <time>2025-05-06T08:48:49Z</time>
      </trkpt>
      <trkpt lat="38.349363002926111" lon="-8.463477026671171">
        <ele>38.109999999999999</ele>
        <time>2025-05-06T08:48:56Z</time>
      </trkpt>
      <trkpt lat="38.34835197776556" lon="-8.461287003010511">
        <ele>45.799999999999997</ele>
        <time>2025-05-06T08:49:05Z</time>
      </trkpt>
      <trkpt lat="38.34824301302433" lon="-8.461049040779471">
        <ele>46.280000000000001</ele>
        <time>2025-05-06T08:49:06Z</time>
      </trkpt>
      <trkpt lat="38.348134970292449" lon="-8.460814012214541">
        <ele>46.759999999999998</ele>
        <time>2025-05-06T08:49:07Z</time>
      </trkpt>
      <trkpt lat="38.347074994817376" lon="-8.458506977185607">
        <ele>57.82</ele>
        <time>2025-05-06T08:49:17Z</time>
      </trkpt>
      <trkpt lat="38.346306039020419" lon="-8.456832021474838">
        <ele>58.780000000000001</ele>
        <time>2025-05-06T08:49:24Z</time>
      </trkpt>
      <trkpt lat="38.345611011609435" lon="-8.455319004133344">
        <ele>60.700000000000003</ele>
        <time>2025-05-06T08:49:31Z</time>
      </trkpt>
      <trkpt lat="38.344792015850544" lon="-8.453536005690694">
        <ele>65.989999999999995</ele>
        <time>2025-05-06T08:49:39Z</time>
      </trkpt>
      <trkpt lat="38.343980982899666" lon="-8.451769016683102">
        <ele>71.269999999999996</ele>
        <time>2025-05-06T08:49:47Z</time>
      </trkpt>
      <trkpt lat="38.343916023150086" lon="-8.451625015586615">
        <ele>72.239999999999995</ele>
        <time>2025-05-06T08:49:48Z</time>
      </trkpt>
      <trkpt lat="38.343797000125051" lon="-8.451359979808331">
        <ele>73.200000000000003</ele>
        <time>2025-05-06T08:49:51Z</time>
      </trkpt>
      <trkpt lat="38.343788031488657" lon="-8.451340030878782">
        <ele>73.680000000000007</ele>
        <time>2025-05-06T08:49:52Z</time>
      </trkpt>
      <trkpt lat="38.343788031488657" lon="-8.451340030878782">
        <ele>74.640000000000001</ele>
        <time>2025-05-06T08:50:07Z</time>
      </trkpt>
      <trkpt lat="38.343699015676975" lon="-8.451153030619025">
        <ele>77.519999999999996</ele>
        <time>2025-05-06T08:50:29Z</time>
      </trkpt>
      <trkpt lat="38.343306994065642" lon="-8.450324982404709">
        <ele>81.370000000000005</ele>
        <time>2025-05-06T08:50:34Z</time>
      </trkpt>
      <trkpt lat="38.342375010251999" lon="-8.448771983385086">
        <ele>85.209999999999994</ele>
        <time>2025-05-06T08:50:41Z</time>
      </trkpt>
      <trkpt lat="38.341186959296465" lon="-8.446990996599197">
        <ele>90.5</ele>
        <time>2025-05-06T08:50:48Z</time>
      </trkpt>
      <trkpt lat="38.33973697386682" lon="-8.444814970716834">
        <ele>98.189999999999998</ele>
        <time>2025-05-06T08:50:57Z</time>
      </trkpt>
      <trkpt lat="38.339461041614413" lon="-8.444421021267772">
        <ele>99.150000000000006</ele>
        <time>2025-05-06T08:50:59Z</time>
      </trkpt>
      <trkpt lat="38.339313017204404" lon="-8.444257993251085">
        <ele>99.629999999999995</ele>
        <time>2025-05-06T08:51:00Z</time>
      </trkpt>
      <trkpt lat="38.339150995016098" lon="-8.444103011861444">
        <ele>99.629999999999995</ele>
        <time>2025-05-06T08:51:01Z</time>
      </trkpt>
      <trkpt lat="38.33896198309958" lon="-8.443987006321549">
        <ele>99.629999999999995</ele>
        <time>2025-05-06T08:51:02Z</time>
      </trkpt>
      <trkpt lat="38.338780011981726" lon="-8.443875024095178">
        <ele>99.629999999999995</ele>
        <time>2025-05-06T08:51:03Z</time>
      </trkpt>
      <trkpt lat="38.337719030678272" lon="-8.443247973918915">
        <ele>101.56</ele>
        <time>2025-05-06T08:51:10Z</time>
      </trkpt>
      <trkpt lat="38.336867010220885" lon="-8.442771965637803">
        <ele>102.04000000000001</ele>
        <time>2025-05-06T08:51:18Z</time>
      </trkpt>
      <trkpt lat="38.335990011692047" lon="-8.442294029518962">
        <ele>103.48</ele>
        <time>2025-05-06T08:51:26Z</time>
      </trkpt>
      <trkpt lat="38.33485702984035" lon="-8.441665973514319">
        <ele>102.52</ele>
        <time>2025-05-06T08:51:33Z</time>
      </trkpt>
      <trkpt lat="38.333966033533216" lon="-8.441220978274941">
        <ele>101.56</ele>
        <time>2025-05-06T08:51:40Z</time>
      </trkpt>
      <trkpt lat="38.332531973719597" lon="-8.440926019102335">
        <ele>101.08</ele>
        <time>2025-05-06T08:51:49Z</time>
      </trkpt>
      <trkpt lat="38.331335037946701" lon="-8.440681016072631">
        <ele>101.56</ele>
        <time>2025-05-06T08:51:57Z</time>
      </trkpt>
      <trkpt lat="38.330009020864964" lon="-8.440409023314714">
        <ele>100.11</ele>
        <time>2025-05-06T08:52:06Z</time>
      </trkpt>
      <trkpt lat="38.328877966850996" lon="-8.440179023891687">
        <ele>95.310000000000002</ele>
        <time>2025-05-06T08:52:13Z</time>
      </trkpt>
      <trkpt lat="38.327280040830374" lon="-8.439859002828598">
        <ele>90.980000000000004</ele>
        <time>2025-05-06T08:52:22Z</time>
      </trkpt>
      <trkpt lat="38.325917981564999" lon="-8.439575023949146">
        <ele>88.099999999999994</ele>
        <time>2025-05-06T08:52:30Z</time>
      </trkpt>
      <trkpt lat="38.325301995500922" lon="-8.439440997317433">
        <ele>86.659999999999997</ele>
        <time>2025-05-06T08:52:35Z</time>
      </trkpt>
      <trkpt lat="38.325249021872878" lon="-8.439429011195898">
        <ele>86.180000000000007</ele>
        <time>2025-05-06T08:52:36Z</time>
      </trkpt>
      <trkpt lat="38.325214991346002" lon="-8.439421970397234">
        <ele>85.689999999999998</ele>
        <time>2025-05-06T08:52:37Z</time>
      </trkpt>
      <trkpt lat="38.325162017717957" lon="-8.439409984275699">
        <ele>84.730000000000004</ele>
        <time>2025-05-06T08:52:40Z</time>
      </trkpt>
      <trkpt lat="38.325139973312616" lon="-8.439406966790557">
        <ele>84.25</ele>
        <time>2025-05-06T08:52:42Z</time>
      </trkpt>
      <trkpt lat="38.325046012178063" lon="-8.439405960962176">
        <ele>81.849999999999994</ele>
        <time>2025-05-06T09:05:01Z</time>
      </trkpt>
      <trkpt lat="38.3251269813627" lon="-8.439445020630956">
        <ele>91.939999999999998</ele>
        <time>2025-05-06T09:05:50Z</time>
      </trkpt>
      <trkpt lat="38.325107032433152" lon="-8.439463963732123">
        <ele>84.730000000000004</ele>
        <time>2025-05-06T09:06:34Z</time>
      </trkpt>
      <trkpt lat="38.325054980814457" lon="-8.439396992325783">
        <ele>85.689999999999998</ele>
        <time>2025-05-06T09:07:07Z</time>
      </trkpt>
      <trkpt lat="38.324988009408116" lon="-8.439388023689389">
        <ele>85.209999999999994</ele>
        <time>2025-05-06T09:07:08Z</time>
      </trkpt>
      <trkpt lat="38.324274960905313" lon="-8.439226001501083">
        <ele>83.769999999999996</ele>
        <time>2025-05-06T09:07:15Z</time>
      </trkpt>
      <trkpt lat="38.323597032576799" lon="-8.439151989296079">
        <ele>83.290000000000006</ele>
        <time>2025-05-06T09:07:20Z</time>
      </trkpt>
      <trkpt lat="38.323149019852281" lon="-8.439183002337813">
        <ele>82.810000000000002</ele>
        <time>2025-05-06T09:07:23Z</time>
      </trkpt>
      <trkpt lat="38.322989009320736" lon="-8.439194988459349">
        <ele>82.329999999999998</ele>
        <time>2025-05-06T09:07:24Z</time>
      </trkpt>
      <trkpt lat="38.321696016937494" lon="-8.439275035634637">
        <ele>78.969999999999999</ele>
        <time>2025-05-06T09:07:31Z</time>
      </trkpt>
      <trkpt lat="38.321287985891104" lon="-8.43930303119123">
        <ele>78</ele>
        <time>2025-05-06T09:07:33Z</time>
      </trkpt>
      <trkpt lat="38.321094028651714" lon="-8.439316023141146">
        <ele>77.040000000000006</ele>
        <time>2025-05-06T09:07:34Z</time>
      </trkpt>
      <trkpt lat="38.320904010906816" lon="-8.439329015091062">
        <ele>75.599999999999994</ele>
        <time>2025-05-06T09:07:35Z</time>
      </trkpt>
      <trkpt lat="38.320717010647058" lon="-8.439341001212597">
        <ele>74.640000000000001</ele>
        <time>2025-05-06T09:07:36Z</time>
      </trkpt>
      <trkpt lat="38.320533027872443" lon="-8.439353993162513">
        <ele>73.680000000000007</ele>
        <time>2025-05-06T09:07:37Z</time>
      </trkpt>
      <trkpt lat="38.320348961278796" lon="-8.439365979284048">
        <ele>72.239999999999995</ele>
        <time>2025-05-06T09:07:38Z</time>
      </trkpt>
      <trkpt lat="38.318435959517956" lon="-8.439466981217265">
        <ele>61.18</ele>
        <time>2025-05-06T09:07:48Z</time>
      </trkpt>
      <trkpt lat="38.31810001283884" lon="-8.439457006752491">
        <ele>59.740000000000002</ele>
        <time>2025-05-06T09:07:50Z</time>
      </trkpt>
      <trkpt lat="38.317932961508632" lon="-8.439416019245982">
        <ele>59.259999999999998</ele>
        <time>2025-05-06T09:07:51Z</time>
      </trkpt>
      <trkpt lat="38.317761970683932" lon="-8.439361033961177">
        <ele>58.299999999999997</ele>
        <time>2025-05-06T09:07:52Z</time>
      </trkpt>
      <trkpt lat="38.317591985687613" lon="-8.43928400427103">
        <ele>57.340000000000003</ele>
        <time>2025-05-06T09:07:53Z</time>
      </trkpt>
      <trkpt lat="38.317419989034534" lon="-8.439206974580884">
        <ele>56.859999999999999</ele>
        <time>2025-05-06T09:07:54Z</time>
      </trkpt>
      <trkpt lat="38.316261023283005" lon="-8.438672041520476">
        <ele>52.049999999999997</ele>
        <time>2025-05-06T09:08:00Z</time>
      </trkpt>
      <trkpt lat="38.315497012808919" lon="-8.438245989382267">
        <ele>46.759999999999998</ele>
        <time>2025-05-06T09:08:04Z</time>
      </trkpt>
      <trkpt lat="38.31425397656858" lon="-8.437147960066795">
        <ele>35.710000000000001</ele>
        <time>2025-05-06T09:08:11Z</time>
      </trkpt>
      <trkpt lat="38.312973976135254" lon="-8.435854967683554">
        <ele>25.609999999999999</ele>
        <time>2025-05-06T09:08:19Z</time>
      </trkpt>
      <trkpt lat="38.312884038314223" lon="-8.435714989900589">
        <ele>25.129999999999999</ele>
        <time>2025-05-06T09:08:20Z</time>
      </trkpt>
      <trkpt lat="38.312820000573993" lon="-8.435550034046173">
        <ele>24.649999999999999</ele>
        <time>2025-05-06T09:08:21Z</time>
      </trkpt>
      <trkpt lat="38.312798961997032" lon="-8.435380971059203">
        <ele>24.170000000000002</ele>
        <time>2025-05-06T09:08:22Z</time>
      </trkpt>
      <trkpt lat="38.312794016674161" lon="-8.435197994112968">
        <ele>24.649999999999999</ele>
        <time>2025-05-06T09:08:23Z</time>
      </trkpt>
      <trkpt lat="38.312788987532258" lon="-8.434996996074915">
        <ele>24.170000000000002</ele>
        <time>2025-05-06T09:08:24Z</time>
      </trkpt>
      <trkpt lat="38.312783036381006" lon="-8.434786023572087">
        <ele>24.170000000000002</ele>
        <time>2025-05-06T09:08:25Z</time>
      </trkpt>
      <trkpt lat="38.312723021954298" lon="-8.434573039412499">
        <ele>24.170000000000002</ele>
        <time>2025-05-06T09:08:26Z</time>
      </trkpt>
      <trkpt lat="38.312634006142616" lon="-8.434361983090639">
        <ele>24.170000000000002</ele>
        <time>2025-05-06T09:08:27Z</time>
      </trkpt>
      <trkpt lat="38.312544990330935" lon="-8.434153022244573">
        <ele>24.170000000000002</ele>
        <time>2025-05-06T09:08:28Z</time>
      </trkpt>
      <trkpt lat="38.312436025589705" lon="-8.433961998671293">
        <ele>24.649999999999999</ele>
        <time>2025-05-06T09:08:29Z</time>
      </trkpt>
      <trkpt lat="38.312103012576699" lon="-8.433368979021907">
        <ele>24.170000000000002</ele>
        <time>2025-05-06T09:08:32Z</time>
      </trkpt>
      <trkpt lat="38.312035035341978" lon="-8.433154989033938">
        <ele>24.170000000000002</ele>
        <time>2025-05-06T09:08:33Z</time>
      </trkpt>
      <trkpt lat="38.311986001208425" lon="-8.432942004874349">
        <ele>23.690000000000001</ele>
        <time>2025-05-06T09:08:34Z</time>
      </trkpt>
      <trkpt lat="38.311946019530296" lon="-8.432732038199902">
        <ele>22.73</ele>
        <time>2025-05-06T09:08:35Z</time>
      </trkpt>
      <trkpt lat="38.311894973739982" lon="-8.432531040161848">
        <ele>22.25</ele>
        <time>2025-05-06T09:08:36Z</time>
      </trkpt>
      <trkpt lat="38.311816016212106" lon="-8.432349991053343">
        <ele>21.289999999999999</ele>
        <time>2025-05-06T09:08:37Z</time>
      </trkpt>
      <trkpt lat="38.311691964045167" lon="-8.43223599717021">
        <ele>20.809999999999999</ele>
        <time>2025-05-06T09:08:38Z</time>
      </trkpt>
      <trkpt lat="38.311555003747344" lon="-8.432174976915121">
        <ele>20.32</ele>
        <time>2025-05-06T09:08:39Z</time>
      </trkpt>
      <trkpt lat="38.311411002650857" lon="-8.432143041864038">
        <ele>19.359999999999999</ele>
        <time>2025-05-06T09:08:40Z</time>
      </trkpt>
      <trkpt lat="38.311257027089596" lon="-8.432122003287077">
        <ele>18.879999999999999</ele>
        <time>2025-05-06T09:08:41Z</time>
      </trkpt>
      <trkpt lat="38.310976987704635" lon="-8.432082021608949">
        <ele>16.960000000000001</ele>
        <time>2025-05-06T09:08:43Z</time>
      </trkpt>
      <trkpt lat="38.310876991599798" lon="-8.432027958333492">
        <ele>16</ele>
        <time>2025-05-06T09:08:44Z</time>
      </trkpt>
      <trkpt lat="38.310809014365077" lon="-8.431951012462378">
        <ele>14.56</ele>
        <time>2025-05-06T09:08:45Z</time>
      </trkpt>
      <trkpt lat="38.310756040737033" lon="-8.431860990822315">
        <ele>13.6</ele>
        <time>2025-05-06T09:08:46Z</time>
      </trkpt>
      <trkpt lat="38.310729973018169" lon="-8.431744985282421">
        <ele>12.630000000000001</ele>
        <time>2025-05-06T09:08:47Z</time>
      </trkpt>
      <trkpt lat="38.310702983289957" lon="-8.431623028591275">
        <ele>12.15</ele>
        <time>2025-05-06T09:08:48Z</time>
      </trkpt>
      <trkpt lat="38.310657972469926" lon="-8.431498976424336">
        <ele>11.67</ele>
        <time>2025-05-06T09:08:49Z</time>
      </trkpt>
      <trkpt lat="38.310555964708328" lon="-8.431425970047712">
        <ele>11.19</ele>
        <time>2025-05-06T09:08:50Z</time>
      </trkpt>
      <trkpt lat="38.310425039380789" lon="-8.431395040825009">
        <ele>11.19</ele>
        <time>2025-05-06T09:08:51Z</time>
      </trkpt>
      <trkpt lat="38.310284977778792" lon="-8.431379031389952">
        <ele>11.19</ele>
        <time>2025-05-06T09:08:52Z</time>
      </trkpt>
      <trkpt lat="38.309791032224894" lon="-8.431302001699805">
        <ele>11.19</ele>
        <time>2025-05-06T09:08:55Z</time>
      </trkpt>
      <trkpt lat="38.309629010036588" lon="-8.431262020021677">
        <ele>12.15</ele>
        <time>2025-05-06T09:08:56Z</time>
      </trkpt>
      <trkpt lat="38.309501018375158" lon="-8.43116101808846">
        <ele>12.630000000000001</ele>
        <time>2025-05-06T09:08:57Z</time>
      </trkpt>
      <trkpt lat="38.30937696620822" lon="-8.431046018376946">
        <ele>13.6</ele>
        <time>2025-05-06T09:08:58Z</time>
      </trkpt>
      <trkpt lat="38.309276970103383" lon="-8.430895982310176">
        <ele>14.08</ele>
        <time>2025-05-06T09:08:59Z</time>
      </trkpt>
      <trkpt lat="38.309180997312069" lon="-8.430727003142238">
        <ele>14.56</ele>
        <time>2025-05-06T09:09:00Z</time>
      </trkpt>
      <trkpt lat="38.309116959571838" lon="-8.430529022589326">
        <ele>15.52</ele>
        <time>2025-05-06T09:09:01Z</time>
      </trkpt>
      <trkpt lat="38.309049988165498" lon="-8.430317966267467">
        <ele>16</ele>
        <time>2025-05-06T09:09:02Z</time>
      </trkpt>
      <trkpt lat="38.308414975181222" lon="-8.428338998928666">
        <ele>23.690000000000001</ele>
        <time>2025-05-06T09:09:11Z</time>
      </trkpt>
      <trkpt lat="38.308188999071717" lon="-8.427651012316346">
        <ele>26.09</ele>
        <time>2025-05-06T09:09:14Z</time>
      </trkpt>
      <trkpt lat="38.307425994426012" lon="-8.426438989117742">
        <ele>30.420000000000002</ele>
        <time>2025-05-06T09:09:20Z</time>
      </trkpt>
      <trkpt lat="38.306965995579958" lon="-8.425688976421952">
        <ele>31.859999999999999</ele>
        <time>2025-05-06T09:09:24Z</time>
      </trkpt>
      <trkpt lat="38.306877985596657" lon="-8.425488984212279">
        <ele>32.82</ele>
        <time>2025-05-06T09:09:25Z</time>
      </trkpt>
      <trkpt lat="38.306835992261767" lon="-8.42525496147573">
        <ele>33.780000000000001</ele>
        <time>2025-05-06T09:09:26Z</time>
      </trkpt>
      <trkpt lat="38.306546984240413" lon="-8.423122018575668">
        <ele>42.920000000000002</ele>
        <time>2025-05-06T09:09:34Z</time>
      </trkpt>
      <trkpt lat="38.306225035339594" lon="-8.421280011534691">
        <ele>53.009999999999998</ele>
        <time>2025-05-06T09:09:41Z</time>
      </trkpt>
      <trkpt lat="38.30611003562808" lon="-8.421095022931695">
        <ele>53.969999999999999</ele>
        <time>2025-05-06T09:09:42Z</time>
      </trkpt>
      <trkpt lat="38.304975964128971" lon="-8.41940900310874">
        <ele>60.700000000000003</ele>
        <time>2025-05-06T09:09:50Z</time>
      </trkpt>
      <trkpt lat="38.304008021950722" lon="-8.418002016842365">
        <ele>67.430000000000007</ele>
        <time>2025-05-06T09:09:57Z</time>
      </trkpt>
      <trkpt lat="38.303902996703982" lon="-8.417821973562241">
        <ele>67.909999999999997</ele>
        <time>2025-05-06T09:09:58Z</time>
      </trkpt>
      <trkpt lat="38.303825967013836" lon="-8.417618041858077">
        <ele>68.870000000000005</ele>
        <time>2025-05-06T09:09:59Z</time>
      </trkpt>
      <trkpt lat="38.303786991164088" lon="-8.417402962222695">
        <ele>69.349999999999994</ele>
        <time>2025-05-06T09:10:00Z</time>
      </trkpt>
      <trkpt lat="38.303780034184456" lon="-8.417159970849752">
        <ele>69.829999999999998</ele>
        <time>2025-05-06T09:10:01Z</time>
      </trkpt>
      <trkpt lat="38.303771987557411" lon="-8.416900970041752">
        <ele>70.310000000000002</ele>
        <time>2025-05-06T09:10:02Z</time>
      </trkpt>
      <trkpt lat="38.303748015314341" lon="-8.414957961067557">
        <ele>76.079999999999998</ele>
        <time>2025-05-06T09:10:09Z</time>
      </trkpt>
      <trkpt lat="38.303748015314341" lon="-8.414692003279924">
        <ele>77.040000000000006</ele>
        <time>2025-05-06T09:10:10Z</time>
      </trkpt>
      <trkpt lat="38.303708033636212" lon="-8.412486976012588">
        <ele>79.450000000000003</ele>
        <time>2025-05-06T09:10:18Z</time>
      </trkpt>
      <trkpt lat="38.303691018372774" lon="-8.41064496897161">
        <ele>80.890000000000001</ele>
        <time>2025-05-06T09:10:25Z</time>
      </trkpt>
      <trkpt lat="38.303944990038872" lon="-8.408613028004766">
        <ele>80.409999999999997</ele>
        <time>2025-05-06T09:10:33Z</time>
      </trkpt>
      <trkpt lat="38.304008021950722" lon="-8.40791598893702">
        <ele>80.409999999999997</ele>
        <time>2025-05-06T09:10:36Z</time>
      </trkpt>
      <trkpt lat="38.303953036665916" lon="-8.407738041132689">
        <ele>79.930000000000007</ele>
        <time>2025-05-06T09:10:37Z</time>
      </trkpt>
      <trkpt lat="38.303877012804151" lon="-8.407590016722679">
        <ele>79.450000000000003</ele>
        <time>2025-05-06T09:10:38Z</time>
      </trkpt>
      <trkpt lat="38.303752960637212" lon="-8.407469987869263">
        <ele>79.450000000000003</ele>
        <time>2025-05-06T09:10:39Z</time>
      </trkpt>
      <trkpt lat="38.303616000339389" lon="-8.407337972894311">
        <ele>78.969999999999999</ele>
        <time>2025-05-06T09:10:40Z</time>
      </trkpt>
      <trkpt lat="38.30346898175776" lon="-8.407194977626205">
        <ele>78.969999999999999</ele>
        <time>2025-05-06T09:10:41Z</time>
      </trkpt>
      <trkpt lat="38.302365001291037" lon="-8.406126033514738">
        <ele>74.640000000000001</ele>
        <time>2025-05-06T09:10:48Z</time>
      </trkpt>
      <trkpt lat="38.30114702694118" lon="-8.405035967007279">
        <ele>67.909999999999997</ele>
        <time>2025-05-06T09:10:56Z</time>
      </trkpt>
      <trkpt lat="38.301038984209299" lon="-8.404949968680739">
        <ele>66.950000000000003</ele>
        <time>2025-05-06T09:10:57Z</time>
      </trkpt>
      <trkpt lat="38.300919961184263" lon="-8.404865982010961">
        <ele>65.989999999999995</ele>
        <time>2025-05-06T09:10:58Z</time>
      </trkpt>
      <trkpt lat="38.299854034557939" lon="-8.404517965391278">
        <ele>62.619999999999997</ele>
        <time>2025-05-06T09:11:04Z</time>
      </trkpt>
      <trkpt lat="38.297956958413124" lon="-8.404310010373592">
        <ele>65.030000000000001</ele>
        <time>2025-05-06T09:11:13Z</time>
      </trkpt>
      <trkpt lat="38.297749003395438" lon="-8.404329037293792">
        <ele>65.030000000000001</ele>
        <time>2025-05-06T09:11:14Z</time>
      </trkpt>
      <trkpt lat="38.297545993700624" lon="-8.40439198538661">
        <ele>65.030000000000001</ele>
        <time>2025-05-06T09:11:15Z</time>
      </trkpt>
      <trkpt lat="38.296083016321063" lon="-8.405072009190917">
        <ele>61.659999999999997</ele>
        <time>2025-05-06T09:11:22Z</time>
      </trkpt>
      <trkpt lat="38.295400980859995" lon="-8.405398987233639">
        <ele>60.700000000000003</ele>
        <time>2025-05-06T09:11:26Z</time>
      </trkpt>
      <trkpt lat="38.295278018340468" lon="-8.405389012768865">
        <ele>60.219999999999999</ele>
        <time>2025-05-06T09:11:27Z</time>
      </trkpt>
      <trkpt lat="38.295169975608587" lon="-8.405379960313439">
        <ele>59.740000000000002</ele>
        <time>2025-05-06T09:11:28Z</time>
      </trkpt>
      <trkpt lat="38.295081965625286" lon="-8.405302008613944">
        <ele>58.780000000000001</ele>
        <time>2025-05-06T09:11:29Z</time>
      </trkpt>
      <trkpt lat="38.294990016147494" lon="-8.405189020559192">
        <ele>57.82</ele>
        <time>2025-05-06T09:11:30Z</time>
      </trkpt>
      <trkpt lat="38.294883985072374" lon="-8.40505700558424">
        <ele>56.859999999999999</ele>
        <time>2025-05-06T09:11:31Z</time>
      </trkpt>
      <trkpt lat="38.294625990092754" lon="-8.404761040583253">
        <ele>54.93</ele>
        <time>2025-05-06T09:11:33Z</time>
      </trkpt>
      <trkpt lat="38.294467991217971" lon="-8.404617039486766">
        <ele>53.969999999999999</ele>
        <time>2025-05-06T09:11:34Z</time>
      </trkpt>
      <trkpt lat="38.293901039287448" lon="-8.404216971248388">
        <ele>51.090000000000003</ele>
        <time>2025-05-06T09:11:37Z</time>
      </trkpt>
      <trkpt lat="38.292461028322577" lon="-8.403585981577635">
        <ele>43.399999999999999</ele>
        <time>2025-05-06T09:11:43Z</time>
      </trkpt>
      <trkpt lat="38.291344977915287" lon="-8.403275012969971">
        <ele>37.149999999999999</ele>
        <time>2025-05-06T09:11:48Z</time>
      </trkpt>
      <trkpt lat="38.291184967383742" lon="-8.403275012969971">
        <ele>36.189999999999998</ele>
        <time>2025-05-06T09:11:49Z</time>
      </trkpt>
      <trkpt lat="38.291056975722313" lon="-8.403355982154608">
        <ele>34.740000000000002</ele>
        <time>2025-05-06T09:11:50Z</time>
      </trkpt>
      <trkpt lat="38.290928984060884" lon="-8.403443992137909">
        <ele>33.780000000000001</ele>
        <time>2025-05-06T09:11:51Z</time>
      </trkpt>
      <trkpt lat="38.290814990177751" lon="-8.403555974364281">
        <ele>31.859999999999999</ele>
        <time>2025-05-06T09:11:52Z</time>
      </trkpt>
      <trkpt lat="38.290129015222192" lon="-8.40426198206842">
        <ele>24.649999999999999</ele>
        <time>2025-05-06T09:11:57Z</time>
      </trkpt>
      <trkpt lat="38.28997403383255" lon="-8.404352003708482">
        <ele>23.690000000000001</ele>
        <time>2025-05-06T09:11:58Z</time>
      </trkpt>
      <trkpt lat="38.289806982502341" lon="-8.404385028406978">
        <ele>22.25</ele>
        <time>2025-05-06T09:11:59Z</time>
      </trkpt>
      <trkpt lat="38.289628028869629" lon="-8.40441201813519">
        <ele>21.289999999999999</ele>
        <time>2025-05-06T09:12:00Z</time>
      </trkpt>
      <trkpt lat="38.289431976154447" lon="-8.40441201813519">
        <ele>20.32</ele>
        <time>2025-05-06T09:12:01Z</time>
      </trkpt>
      <trkpt lat="38.289226032793522" lon="-8.404418975114822">
        <ele>19.359999999999999</ele>
        <time>2025-05-06T09:12:02Z</time>
      </trkpt>
      <trkpt lat="38.289024028927088" lon="-8.404428027570248">
        <ele>18.399999999999999</ele>
        <time>2025-05-06T09:12:03Z</time>
      </trkpt>
      <trkpt lat="38.288827976211905" lon="-8.404459962621331">
        <ele>17.440000000000001</ele>
        <time>2025-05-06T09:12:04Z</time>
      </trkpt>
      <trkpt lat="38.288637958467007" lon="-8.404531963169575">
        <ele>16.48</ele>
        <time>2025-05-06T09:12:05Z</time>
      </trkpt>
      <trkpt lat="38.288465039804578" lon="-8.404597006738186">
        <ele>15.52</ele>
        <time>2025-05-06T09:12:06Z</time>
      </trkpt>
      <trkpt lat="38.288306035101414" lon="-8.404658026993275">
        <ele>14.56</ele>
        <time>2025-05-06T09:12:07Z</time>
      </trkpt>
      <trkpt lat="38.287895992398262" lon="-8.404791969805956">
        <ele>11.67</ele>
        <time>2025-05-06T09:12:10Z</time>
      </trkpt>
      <trkpt lat="38.287775041535497" lon="-8.404830023646355">
        <ele>10.710000000000001</ele>
        <time>2025-05-06T09:12:11Z</time>
      </trkpt>
      <trkpt lat="38.287660963833332" lon="-8.404815020039678">
        <ele>9.75</ele>
        <time>2025-05-06T09:12:12Z</time>
      </trkpt>
      <trkpt lat="38.287551999092102" lon="-8.404738996177912">
        <ele>9.27</ele>
        <time>2025-05-06T09:12:13Z</time>
      </trkpt>
      <trkpt lat="38.287435993552208" lon="-8.404622990638018">
        <ele>8.789999999999999</ele>
        <time>2025-05-06T09:12:14Z</time>
      </trkpt>
      <trkpt lat="38.287306996062398" lon="-8.404489969834685">
        <ele>8.310000000000001</ele>
        <time>2025-05-06T09:12:15Z</time>
      </trkpt>
      <trkpt lat="38.286371994763613" lon="-8.40342597104609">
        <ele>5.91</ele>
        <time>2025-05-06T09:12:21Z</time>
      </trkpt>
      <trkpt lat="38.284782031551003" lon="-8.401601985096932">
        <ele>3.98</ele>
        <time>2025-05-06T09:12:31Z</time>
      </trkpt>
      <trkpt lat="38.283733036369085" lon="-8.400418041273952">
        <ele>6.39</ele>
        <time>2025-05-06T09:12:39Z</time>
      </trkpt>
      <trkpt lat="38.282640036195517" lon="-8.399169975891709">
        <ele>11.67</ele>
        <time>2025-05-06T09:12:47Z</time>
      </trkpt>
      <trkpt lat="38.281171023845673" lon="-8.397509017959237">
        <ele>17.440000000000001</ele>
        <time>2025-05-06T09:12:56Z</time>
      </trkpt>
      <trkpt lat="38.279882976785302" lon="-8.396037993952632">
        <ele>18.399999999999999</ele>
        <time>2025-05-06T09:13:04Z</time>
      </trkpt>
      <trkpt lat="38.278324026614428" lon="-8.394193975254893">
        <ele>16.48</ele>
        <time>2025-05-06T09:13:14Z</time>
      </trkpt>
      <trkpt lat="38.278211960569024" lon="-8.394006974995136">
        <ele>16</ele>
        <time>2025-05-06T09:13:15Z</time>
      </trkpt>
      <trkpt lat="38.278142977505922" lon="-8.393802037462592">
        <ele>16</ele>
        <time>2025-05-06T09:13:16Z</time>
      </trkpt>
      <trkpt lat="38.278106013312936" lon="-8.393575977534056">
        <ele>15.52</ele>
        <time>2025-05-06T09:13:17Z</time>
      </trkpt>
      <trkpt lat="38.278106013312936" lon="-8.393356036394835">
        <ele>15.039999999999999</ele>
        <time>2025-05-06T09:13:18Z</time>
      </trkpt>
      <trkpt lat="38.278151024132967" lon="-8.393116984516382">
        <ele>14.08</ele>
        <time>2025-05-06T09:13:19Z</time>
      </trkpt>
      <trkpt lat="38.278207015246153" lon="-8.392862007021904">
        <ele>13.6</ele>
        <time>2025-05-06T09:13:20Z</time>
      </trkpt>
      <trkpt lat="38.278628960251808" lon="-8.390621021389961">
        <ele>8.310000000000001</ele>
        <time>2025-05-06T09:13:28Z</time>
      </trkpt>
      <trkpt lat="38.279089964926243" lon="-8.388002011924982">
        <ele>5.42</ele>
        <time>2025-05-06T09:13:37Z</time>
      </trkpt>
      <trkpt lat="38.279205970466137" lon="-8.386143995448947">
        <ele>6.39</ele>
        <time>2025-05-06T09:13:44Z</time>
      </trkpt>
      <trkpt lat="38.279134975746274" lon="-8.384594013914466">
        <ele>8.789999999999999</ele>
        <time>2025-05-06T09:13:52Z</time>
      </trkpt>
      <trkpt lat="38.279058029875159" lon="-8.382829036563635">
        <ele>9.27</ele>
        <time>2025-05-06T09:14:02Z</time>
      </trkpt>
      <trkpt lat="38.278935989364982" lon="-8.381206970661879">
        <ele>9.27</ele>
        <time>2025-05-06T09:14:09Z</time>
      </trkpt>
      <trkpt lat="38.278887961059809" lon="-8.380948975682259">
        <ele>9.27</ele>
        <time>2025-05-06T09:14:10Z</time>
      </trkpt>
      <trkpt lat="38.278801962733269" lon="-8.380699027329683">
        <ele>9.75</ele>
        <time>2025-05-06T09:14:11Z</time>
      </trkpt>
      <trkpt lat="38.278052033856511" lon="-8.378774961456657">
        <ele>12.630000000000001</ele>
        <time>2025-05-06T09:14:18Z</time>
      </trkpt>
      <trkpt lat="38.277258016169071" lon="-8.377238977700472">
        <ele>14.08</ele>
        <time>2025-05-06T09:14:24Z</time>
      </trkpt>
      <trkpt lat="38.277088031172752" lon="-8.377045020461083">
        <ele>14.08</ele>
        <time>2025-05-06T09:14:25Z</time>
      </trkpt>
      <trkpt lat="38.276911005377769" lon="-8.376866988837719">
        <ele>14.08</ele>
        <time>2025-05-06T09:14:26Z</time>
      </trkpt>
      <trkpt lat="38.276715958490968" lon="-8.376724999397993">
        <ele>14.08</ele>
        <time>2025-05-06T09:14:27Z</time>
      </trkpt>
      <trkpt lat="38.276506997644901" lon="-8.376604970544577">
        <ele>13.6</ele>
        <time>2025-05-06T09:14:28Z</time>
      </trkpt>
      <trkpt lat="38.276292001828551" lon="-8.37648100219667">
        <ele>13.119999999999999</ele>
        <time>2025-05-06T09:14:29Z</time>
      </trkpt>
      <trkpt lat="38.274660967290401" lon="-8.37551498785615">
        <ele>9.27</ele>
        <time>2025-05-06T09:14:37Z</time>
      </trkpt>
      <trkpt lat="38.274401966482401" lon="-8.375311978161335">
        <ele>8.310000000000001</ele>
        <time>2025-05-06T09:14:39Z</time>
      </trkpt>
      <trkpt lat="38.27431202866137" lon="-8.375190021470189">
        <ele>8.310000000000001</ele>
        <time>2025-05-06T09:14:40Z</time>
      </trkpt>
      <trkpt lat="38.274234998971224" lon="-8.375015007331967">
        <ele>7.83</ele>
        <time>2025-05-06T09:14:41Z</time>
      </trkpt>
      <trkpt lat="38.274168027564883" lon="-8.374831024557352">
        <ele>7.35</ele>
        <time>2025-05-06T09:14:42Z</time>
      </trkpt>
      <trkpt lat="38.274122010916471" lon="-8.374603036791086">
        <ele>7.35</ele>
        <time>2025-05-06T09:14:43Z</time>
      </trkpt>
      <trkpt lat="38.274073982611299" lon="-8.374363984912634">
        <ele>7.35</ele>
        <time>2025-05-06T09:14:44Z</time>
      </trkpt>
      <trkpt lat="38.27386099845171" lon="-8.372394992038608">
        <ele>5.91</ele>
        <time>2025-05-06T09:14:52Z</time>
      </trkpt>
      <trkpt lat="38.273565033450723" lon="-8.369682021439076">
        <ele>4.46</ele>
        <time>2025-05-06T09:15:03Z</time>
      </trkpt>
      <trkpt lat="38.273197989910841" lon="-8.366592032834888">
        <ele>4.94</ele>
        <time>2025-05-06T09:15:14Z</time>
      </trkpt>
      <trkpt lat="38.27255099080503" lon="-8.364249039441347">
        <ele>5.42</ele>
        <time>2025-05-06T09:15:23Z</time>
      </trkpt>
      <trkpt lat="38.271825034171343" lon="-8.361494997516275">
        <ele>7.83</ele>
        <time>2025-05-06T09:15:34Z</time>
      </trkpt>
      <trkpt lat="38.27186300419271" lon="-8.359889024868608">
        <ele>8.310000000000001</ele>
        <time>2025-05-06T09:15:40Z</time>
      </trkpt>
      <trkpt lat="38.271920001134276" lon="-8.359045973047614">
        <ele>7.83</ele>
        <time>2025-05-06T09:15:44Z</time>
      </trkpt>
      <trkpt lat="38.271892005577683" lon="-8.358920998871326">
        <ele>7.83</ele>
        <time>2025-05-06T09:15:45Z</time>
      </trkpt>
      <trkpt lat="38.271837020292878" lon="-8.358824020251632">
        <ele>7.83</ele>
        <time>2025-05-06T09:15:46Z</time>
      </trkpt>
      <trkpt lat="38.271752027794719" lon="-8.358738021925092">
        <ele>8.310000000000001</ele>
        <time>2025-05-06T09:15:47Z</time>
      </trkpt>
      <trkpt lat="38.271630993112922" lon="-8.3586719725281">
        <ele>8.789999999999999</ele>
        <time>2025-05-06T09:15:48Z</time>
      </trkpt>
      <trkpt lat="38.271491015329957" lon="-8.358596032485366">
        <ele>8.789999999999999</ele>
        <time>2025-05-06T09:15:49Z</time>
      </trkpt>
      <trkpt lat="38.26982201077044" lon="-8.357621971517801">
        <ele>14.08</ele>
        <time>2025-05-06T09:16:00Z</time>
      </trkpt>
      <trkpt lat="38.26967298053205" lon="-8.357496997341514">
        <ele>15.039999999999999</ele>
        <time>2025-05-06T09:16:01Z</time>
      </trkpt>
      <trkpt lat="38.269536020234227" lon="-8.357332963496447">
        <ele>15.52</ele>
        <time>2025-05-06T09:16:02Z</time>
      </trkpt>
      <trkpt lat="38.268395997583866" lon="-8.355655996128917">
        <ele>22.73</ele>
        <time>2025-05-06T09:16:10Z</time>
      </trkpt>
      <trkpt lat="38.266952969133854" lon="-8.35340604186058">
        <ele>32.340000000000003</ele>
        <time>2025-05-06T09:16:21Z</time>
      </trkpt>
      <trkpt lat="38.266896978020668" lon="-8.353171013295651">
        <ele>32.82</ele>
        <time>2025-05-06T09:16:22Z</time>
      </trkpt>
      <trkpt lat="38.266270011663437" lon="-8.350214967504144">
        <ele>40.030000000000001</ele>
        <time>2025-05-06T09:16:34Z</time>
      </trkpt>
      <trkpt lat="38.265896011143923" lon="-8.348448984324932">
        <ele>49.159999999999997</ele>
        <time>2025-05-06T09:16:43Z</time>
      </trkpt>
      <trkpt lat="38.26561102643609" lon="-8.347005033865571">
        <ele>52.530000000000001</ele>
        <time>2025-05-06T09:16:51Z</time>
      </trkpt>
      <trkpt lat="38.265588982030749" lon="-8.346907971426845">
        <ele>53.009999999999998</ele>
        <time>2025-05-06T09:16:52Z</time>
      </trkpt>
      <trkpt lat="38.265507007017732" lon="-8.346856003627181">
        <ele>53.009999999999998</ele>
        <time>2025-05-06T09:16:53Z</time>
      </trkpt>
      <trkpt lat="38.265445986762643" lon="-8.346870001405478">
        <ele>53.009999999999998</ele>
        <time>2025-05-06T09:16:54Z</time>
      </trkpt>
      <trkpt lat="38.26537499204278" lon="-8.346892967820168">
        <ele>53.009999999999998</ele>
        <time>2025-05-06T09:16:55Z</time>
      </trkpt>
      <trkpt lat="38.265312965959311" lon="-8.346976032480598">
        <ele>53.490000000000002</ele>
        <time>2025-05-06T09:16:56Z</time>
      </trkpt>
      <trkpt lat="38.265242977067828" lon="-8.347073011100292">
        <ele>53.490000000000002</ele>
        <time>2025-05-06T09:16:57Z</time>
      </trkpt>
      <trkpt lat="38.265174999833107" lon="-8.347194967791438">
        <ele>53.490000000000002</ele>
        <time>2025-05-06T09:16:58Z</time>
      </trkpt>
      <trkpt lat="38.264530012384057" lon="-8.348329961299896">
        <ele>52.530000000000001</ele>
        <time>2025-05-06T09:17:05Z</time>
      </trkpt>
      <trkpt lat="38.263154961168766" lon="-8.350682007148862">
        <ele>52.530000000000001</ele>
        <time>2025-05-06T09:17:18Z</time>
      </trkpt>
      <trkpt lat="38.261986020952463" lon="-8.35243902169168">
        <ele>51.57</ele>
        <time>2025-05-06T09:17:28Z</time>
      </trkpt>
      <trkpt lat="38.260649023577571" lon="-8.35383796133101">
        <ele>50.130000000000003</ele>
        <time>2025-05-06T09:17:37Z</time>
      </trkpt>
      <trkpt lat="38.259323006495833" lon="-8.35523497313261">
        <ele>50.130000000000003</ele>
        <time>2025-05-06T09:17:46Z</time>
      </trkpt>
      <trkpt lat="38.258225983008742" lon="-8.356378013268113">
        <ele>50.130000000000003</ele>
        <time>2025-05-06T09:17:54Z</time>
      </trkpt>
      <trkpt lat="38.257948039099574" lon="-8.356619998812676">
        <ele>49.649999999999999</ele>
        <time>2025-05-06T09:17:56Z</time>
      </trkpt>
      <trkpt lat="38.257786016911268" lon="-8.356700967997313">
        <ele>49.159999999999997</ele>
        <time>2025-05-06T09:17:57Z</time>
      </trkpt>
      <trkpt lat="38.25742500834167" lon="-8.356832982972264">
        <ele>48.200000000000003</ele>
        <time>2025-05-06T09:17:59Z</time>
      </trkpt>
      <trkpt lat="38.255359958857298" lon="-8.357389960438013">
        <ele>37.630000000000003</ele>
        <time>2025-05-06T09:18:10Z</time>
      </trkpt>
      <trkpt lat="38.25368600897491" lon="-8.357829004526138">
        <ele>20.809999999999999</ele>
        <time>2025-05-06T09:18:20Z</time>
      </trkpt>
      <trkpt lat="38.25351501815021" lon="-8.357870997861028">
        <ele>18.399999999999999</ele>
        <time>2025-05-06T09:18:22Z</time>
      </trkpt>
      <trkpt lat="38.25345098040998" lon="-8.357956996187568">
        <ele>17.440000000000001</ele>
        <time>2025-05-06T09:18:23Z</time>
      </trkpt>
      <trkpt lat="38.253426002338529" lon="-8.358054980635643">
        <ele>16.960000000000001</ele>
        <time>2025-05-06T09:18:24Z</time>
      </trkpt>
      <trkpt lat="38.25340898707509" lon="-8.358149025589228">
        <ele>16</ele>
        <time>2025-05-06T09:18:25Z</time>
      </trkpt>
      <trkpt lat="38.253418039530516" lon="-8.358264025300741">
        <ele>15.52</ele>
        <time>2025-05-06T09:18:26Z</time>
      </trkpt>
      <trkpt lat="38.253427008166909" lon="-8.358390005305409">
        <ele>15.039999999999999</ele>
        <time>2025-05-06T09:18:27Z</time>
      </trkpt>
      <trkpt lat="38.253446035087109" lon="-8.358639031648636">
        <ele>14.08</ele>
        <time>2025-05-06T09:18:29Z</time>
      </trkpt>
      <trkpt lat="38.253435976803303" lon="-8.358741039410234">
        <ele>14.08</ele>
        <time>2025-05-06T09:18:30Z</time>
      </trkpt>
      <trkpt lat="38.2533860206604" lon="-8.358857966959477">
        <ele>13.6</ele>
        <time>2025-05-06T09:18:31Z</time>
      </trkpt>
      <trkpt lat="38.25332298874855" lon="-8.358880011364818">
        <ele>13.6</ele>
        <time>2025-05-06T09:18:32Z</time>
      </trkpt>
      <trkpt lat="38.253228021785617" lon="-8.358914041891694">
        <ele>13.119999999999999</ele>
        <time>2025-05-06T09:18:33Z</time>
      </trkpt>
      <trkpt lat="38.253114027902484" lon="-8.358954023569822">
        <ele>13.119999999999999</ele>
        <time>2025-05-06T09:18:34Z</time>
      </trkpt>
      <trkpt lat="38.252984024584293" lon="-8.358989981934428">
        <ele>12.630000000000001</ele>
        <time>2025-05-06T09:18:35Z</time>
      </trkpt>
      <trkpt lat="38.252843962982297" lon="-8.359002973884344">
        <ele>12.630000000000001</ele>
        <time>2025-05-06T09:18:36Z</time>
      </trkpt>
      <trkpt lat="38.251765966415405" lon="-8.359084026888013">
        <ele>10.710000000000001</ele>
        <time>2025-05-06T09:18:45Z</time>
      </trkpt>
      <trkpt lat="38.251654990017414" lon="-8.359090983867645">
        <ele>10.710000000000001</ele>
        <time>2025-05-06T09:18:46Z</time>
      </trkpt>
      <trkpt lat="38.2515590172261" lon="-8.35905896499753">
        <ele>10.23</ele>
        <time>2025-05-06T09:18:47Z</time>
      </trkpt>
      <trkpt lat="38.251474024727941" lon="-8.358995011076331">
        <ele>10.23</ele>
        <time>2025-05-06T09:18:48Z</time>
      </trkpt>
      <trkpt lat="38.251390960067511" lon="-8.358900966122747">
        <ele>10.23</ele>
        <time>2025-05-06T09:18:49Z</time>
      </trkpt>
      <trkpt lat="38.251309990882874" lon="-8.358779009431601">
        <ele>9.75</ele>
        <time>2025-05-06T09:18:50Z</time>
      </trkpt>
      <trkpt lat="38.251222986727953" lon="-8.358661998063326">
        <ele>9.75</ele>
        <time>2025-05-06T09:18:51Z</time>
      </trkpt>
      <trkpt lat="38.251143023371696" lon="-8.358568958938122">
        <ele>9.75</ele>
        <time>2025-05-06T09:18:52Z</time>
      </trkpt>
      <trkpt lat="38.251051995903254" lon="-8.358543980866671">
        <ele>9.27</ele>
        <time>2025-05-06T09:18:53Z</time>
      </trkpt>
      <trkpt lat="38.250954011455178" lon="-8.358549010008574">
        <ele>9.27</ele>
        <time>2025-05-06T09:18:54Z</time>
      </trkpt>
      <trkpt lat="38.250838005915284" lon="-8.358579017221928">
        <ele>9.27</ele>
        <time>2025-05-06T09:18:55Z</time>
      </trkpt>
      <trkpt lat="38.250708002597094" lon="-8.358612963929772">
        <ele>9.27</ele>
        <time>2025-05-06T09:18:56Z</time>
      </trkpt>
      <trkpt lat="38.249248964712024" lon="-8.35899299941957">
        <ele>10.23</ele>
        <time>2025-05-06T09:19:06Z</time>
      </trkpt>
      <trkpt lat="38.248945036903024" lon="-8.359072040766478">
        <ele>10.710000000000001</ele>
        <time>2025-05-06T09:19:09Z</time>
      </trkpt>
      <trkpt lat="38.248848980292678" lon="-8.359029041603208">
        <ele>10.710000000000001</ele>
        <time>2025-05-06T09:19:10Z</time>
      </trkpt>
      <trkpt lat="38.248761976137757" lon="-8.358988976106048">
        <ele>11.19</ele>
        <time>2025-05-06T09:19:11Z</time>
      </trkpt>
      <trkpt lat="38.248677989467978" lon="-8.358909012749791">
        <ele>11.19</ele>
        <time>2025-05-06T09:19:12Z</time>
      </trkpt>
      <trkpt lat="38.248605988919735" lon="-8.358779009431601">
        <ele>11.67</ele>
        <time>2025-05-06T09:19:13Z</time>
      </trkpt>
      <trkpt lat="38.248528959229589" lon="-8.358640037477016">
        <ele>11.67</ele>
        <time>2025-05-06T09:19:14Z</time>
      </trkpt>
      <trkpt lat="38.248451007530093" lon="-8.358496958389878">
        <ele>11.67</ele>
        <time>2025-05-06T09:19:15Z</time>
      </trkpt>
      <trkpt lat="38.248087987303734" lon="-8.357904022559524">
        <ele>12.630000000000001</ele>
        <time>2025-05-06T09:19:21Z</time>
      </trkpt>
      <trkpt lat="38.248033002018929" lon="-8.357876027002931">
        <ele>12.630000000000001</ele>
        <time>2025-05-06T09:19:22Z</time>
      </trkpt>
      <trkpt lat="38.247979022562504" lon="-8.357849037274718">
        <ele>12.630000000000001</ele>
        <time>2025-05-06T09:19:23Z</time>
      </trkpt>
      <trkpt lat="38.247936023399234" lon="-8.357849037274718">
        <ele>12.630000000000001</ele>
        <time>2025-05-06T09:19:24Z</time>
      </trkpt>
      <trkpt lat="38.247904004529119" lon="-8.357906034216285">
        <ele>13.119999999999999</ele>
        <time>2025-05-06T09:19:25Z</time>
      </trkpt>
      <trkpt lat="38.247858993709087" lon="-8.357984991744161">
        <ele>13.119999999999999</ele>
        <time>2025-05-06T09:19:26Z</time>
      </trkpt>
      <trkpt lat="38.247804008424282" lon="-8.358080964535475">
        <ele>13.119999999999999</ele>
        <time>2025-05-06T09:19:27Z</time>
      </trkpt>
      <trkpt lat="38.247539978474379" lon="-8.358594020828605">
        <ele>13.6</ele>
        <time>2025-05-06T09:19:31Z</time>
      </trkpt>
      <trkpt lat="38.247491028159857" lon="-8.358746990561485">
        <ele>13.6</ele>
        <time>2025-05-06T09:19:32Z</time>
      </trkpt>
      <trkpt lat="38.247454985976219" lon="-8.358926028013229">
        <ele>13.6</ele>
        <time>2025-05-06T09:19:33Z</time>
      </trkpt>
      <trkpt lat="38.24743595905602" lon="-8.359105987474322">
        <ele>14.08</ele>
        <time>2025-05-06T09:19:34Z</time>
      </trkpt>
      <trkpt lat="38.247424978762865" lon="-8.359287036582828">
        <ele>14.08</ele>
        <time>2025-05-06T09:19:35Z</time>
      </trkpt>
      <trkpt lat="38.247346021234989" lon="-8.359918026253581">
        <ele>17.440000000000001</ele>
        <time>2025-05-06T09:19:39Z</time>
      </trkpt>
      <trkpt lat="38.247292963787913" lon="-8.360059009864926">
        <ele>18.399999999999999</ele>
        <time>2025-05-06T09:19:40Z</time>
      </trkpt>
      <trkpt lat="38.247223980724812" lon="-8.360162023454905">
        <ele>19.359999999999999</ele>
        <time>2025-05-06T09:19:41Z</time>
      </trkpt>
      <trkpt lat="38.247152986004949" lon="-8.360267970710993">
        <ele>20.32</ele>
        <time>2025-05-06T09:19:42Z</time>
      </trkpt>
      <trkpt lat="38.24704603292048" lon="-8.360362015664578">
        <ele>21.289999999999999</ele>
        <time>2025-05-06T09:19:43Z</time>
      </trkpt>
      <trkpt lat="38.246936984360218" lon="-8.360426975414157">
        <ele>22.25</ele>
        <time>2025-05-06T09:19:44Z</time>
      </trkpt>
      <trkpt lat="38.246820978820324" lon="-8.360496964305639">
        <ele>23.210000000000001</ele>
        <time>2025-05-06T09:19:45Z</time>
      </trkpt>
      <trkpt lat="38.24618998914957" lon="-8.36088303476572">
        <ele>28.98</ele>
        <time>2025-05-06T09:19:50Z</time>
      </trkpt>
      <trkpt lat="38.246078006923199" lon="-8.360953023657203">
        <ele>29.940000000000001</ele>
        <time>2025-05-06T09:19:51Z</time>
      </trkpt>
      <trkpt lat="38.245962001383305" lon="-8.361025024205446">
        <ele>31.379999999999999</ele>
        <time>2025-05-06T09:19:52Z</time>
      </trkpt>
      <trkpt lat="38.245899975299835" lon="-8.36114102974534">
        <ele>32.340000000000003</ele>
        <time>2025-05-06T09:19:53Z</time>
      </trkpt>
      <trkpt lat="38.245824035257101" lon="-8.361281007528305">
        <ele>33.780000000000001</ele>
        <time>2025-05-06T09:19:54Z</time>
      </trkpt>
      <trkpt lat="38.245052983984351" lon="-8.362742979079485">
        <ele>45.32</ele>
        <time>2025-05-06T09:20:03Z</time>
      </trkpt>
      <trkpt lat="38.244874030351639" lon="-8.363056965172291">
        <ele>47.240000000000002</ele>
        <time>2025-05-06T09:20:05Z</time>
      </trkpt>
      <trkpt lat="38.24477001093328" lon="-8.363199960440397">
        <ele>48.200000000000003</ele>
        <time>2025-05-06T09:20:06Z</time>
      </trkpt>
      <trkpt lat="38.244636990129948" lon="-8.363302974030376">
        <ele>49.159999999999997</ele>
        <time>2025-05-06T09:20:07Z</time>
      </trkpt>
      <trkpt lat="38.244496006518602" lon="-8.363405987620354">
        <ele>50.130000000000003</ele>
        <time>2025-05-06T09:20:08Z</time>
      </trkpt>
      <trkpt lat="38.244349993765354" lon="-8.363512018695474">
        <ele>51.57</ele>
        <time>2025-05-06T09:20:09Z</time>
      </trkpt>
      <trkpt lat="38.242693981155753" lon="-8.364553973078728">
        <ele>62.619999999999997</ele>
        <time>2025-05-06T09:20:19Z</time>
      </trkpt>
      <trkpt lat="38.24178596958518" lon="-8.365040039643645">
        <ele>71.760000000000005</ele>
        <time>2025-05-06T09:20:25Z</time>
      </trkpt>
      <trkpt lat="38.241628976538777" lon="-8.365069963037968">
        <ele>73.200000000000003</ele>
        <time>2025-05-06T09:20:26Z</time>
      </trkpt>
      <trkpt lat="38.240272030234337" lon="-8.365322006866336">
        <ele>83.290000000000006</ele>
        <time>2025-05-06T09:20:34Z</time>
      </trkpt>
      <trkpt lat="38.238790025934577" lon="-8.365584025159478">
        <ele>89.060000000000002</ele>
        <time>2025-05-06T09:20:42Z</time>
      </trkpt>
      <trkpt lat="38.238633032888174" lon="-8.365641022101045">
        <ele>89.540000000000006</ele>
        <time>2025-05-06T09:20:43Z</time>
      </trkpt>
      <trkpt lat="38.238484002649784" lon="-8.365744035691023">
        <ele>89.540000000000006</ele>
        <time>2025-05-06T09:20:44Z</time>
      </trkpt>
      <trkpt lat="38.238359028473496" lon="-8.365877978503704">
        <ele>90.019999999999996</ele>
        <time>2025-05-06T09:20:45Z</time>
      </trkpt>
      <trkpt lat="38.237383961677551" lon="-8.367198966443539">
        <ele>92.420000000000002</ele>
        <time>2025-05-06T09:20:53Z</time>
      </trkpt>
      <trkpt lat="38.236587010324001" lon="-8.368279980495572">
        <ele>94.349999999999994</ele>
        <time>2025-05-06T09:21:00Z</time>
      </trkpt>
      <trkpt lat="38.235756028443575" lon="-8.369406005367637">
        <ele>97.230000000000004</ele>
        <time>2025-05-06T09:21:07Z</time>
      </trkpt>
      <trkpt lat="38.235653014853597" lon="-8.369545983150601">
        <ele>97.709999999999994</ele>
        <time>2025-05-06T09:21:08Z</time>
      </trkpt>
      <trkpt lat="38.234812980517745" lon="-8.370503028854728">
        <ele>100.11</ele>
        <time>2025-05-06T09:21:15Z</time>
      </trkpt>
      <trkpt lat="38.233384033665061" lon="-8.372071031481028">
        <ele>103.95999999999999</ele>
        <time>2025-05-06T09:21:26Z</time>
      </trkpt>
      <trkpt lat="38.232238981872797" lon="-8.373261010274291">
        <ele>107.31999999999999</ele>
        <time>2025-05-06T09:21:35Z</time>
      </trkpt>
      <trkpt lat="38.231918960809708" lon="-8.373400988057256">
        <ele>107.81</ele>
        <time>2025-05-06T09:21:37Z</time>
      </trkpt>
      <trkpt lat="38.231747969985008" lon="-8.373441975563765">
        <ele>107.81</ele>
        <time>2025-05-06T09:21:38Z</time>
      </trkpt>
      <trkpt lat="38.230279963463545" lon="-8.373670969158411">
        <ele>110.20999999999999</ele>
        <time>2025-05-06T09:21:46Z</time>
      </trkpt>
      <trkpt lat="38.229750981554389" lon="-8.373656971380115">
        <ele>110.69</ele>
        <time>2025-05-06T09:21:49Z</time>
      </trkpt>
      <trkpt lat="38.229582002386451" lon="-8.373629981651902">
        <ele>110.69</ele>
        <time>2025-05-06T09:21:50Z</time>
      </trkpt>
      <trkpt lat="38.229420986026525" lon="-8.373551024124026">
        <ele>110.69</ele>
        <time>2025-05-06T09:21:51Z</time>
      </trkpt>
      <trkpt lat="38.229264998808503" lon="-8.373447004705668">
        <ele>110.69</ele>
        <time>2025-05-06T09:21:52Z</time>
      </trkpt>
      <trkpt lat="38.229111023247242" lon="-8.373338039964438">
        <ele>110.20999999999999</ele>
        <time>2025-05-06T09:21:53Z</time>
      </trkpt>
      <trkpt lat="38.228964004665613" lon="-8.373208036646247">
        <ele>109.73</ele>
        <time>2025-05-06T09:21:54Z</time>
      </trkpt>
      <trkpt lat="38.227415028959513" lon="-8.371832985430956">
        <ele>108.77</ele>
        <time>2025-05-06T09:22:04Z</time>
      </trkpt>
      <trkpt lat="38.226945977658033" lon="-8.371403999626637">
        <ele>109.73</ele>
        <time>2025-05-06T09:22:07Z</time>
      </trkpt>
      <trkpt lat="38.22678898461163" lon="-8.371353959664702">
        <ele>109.73</ele>
        <time>2025-05-06T09:22:08Z</time>
      </trkpt>
      <trkpt lat="38.226660992950201" lon="-8.371328981593251">
        <ele>109.73</ele>
        <time>2025-05-06T09:22:09Z</time>
      </trkpt>
      <trkpt lat="38.226545993238688" lon="-8.371371980756521">
        <ele>109.73</ele>
        <time>2025-05-06T09:22:10Z</time>
      </trkpt>
      <trkpt lat="38.226439040154219" lon="-8.371450016275048">
        <ele>110.20999999999999</ele>
        <time>2025-05-06T09:22:11Z</time>
      </trkpt>
      <trkpt lat="38.226334014907479" lon="-8.371569039300084">
        <ele>110.20999999999999</ele>
        <time>2025-05-06T09:22:12Z</time>
      </trkpt>
      <trkpt lat="38.226243993267417" lon="-8.371736006811261">
        <ele>110.20999999999999</ele>
        <time>2025-05-06T09:22:13Z</time>
      </trkpt>
      <trkpt lat="38.226152965798974" lon="-8.371904985979199">
        <ele>109.73</ele>
        <time>2025-05-06T09:22:14Z</time>
      </trkpt>
      <trkpt lat="38.225232968106866" lon="-8.373717991635203">
        <ele>106.84</ele>
        <time>2025-05-06T09:22:23Z</time>
      </trkpt>
      <trkpt lat="38.224182967096567" lon="-8.375798966735601">
        <ele>98.670000000000002</ele>
        <time>2025-05-06T09:22:33Z</time>
      </trkpt>
      <trkpt lat="38.223494980484247" lon="-8.377163959667087">
        <ele>93.870000000000005</ele>
        <time>2025-05-06T09:22:40Z</time>
      </trkpt>
      <trkpt lat="38.222505999729037" lon="-8.379121972247958">
        <ele>87.140000000000001</ele>
        <time>2025-05-06T09:22:50Z</time>
      </trkpt>
      <trkpt lat="38.221462033689022" lon="-8.381192972883582">
        <ele>85.209999999999994</ele>
        <time>2025-05-06T09:23:00Z</time>
      </trkpt>
      <trkpt lat="38.22051202878356" lon="-8.383074039593339">
        <ele>81.849999999999994</ele>
        <time>2025-05-06T09:23:09Z</time>
      </trkpt>
      <trkpt lat="38.219883972778916" lon="-8.384320009499788">
        <ele>78.480000000000004</ele>
        <time>2025-05-06T09:23:15Z</time>
      </trkpt>
      <trkpt lat="38.218735987320542" lon="-8.386595025658608">
        <ele>78</ele>
        <time>2025-05-06T09:23:26Z</time>
      </trkpt>
      <trkpt lat="38.217777013778687" lon="-8.388495035469532">
        <ele>82.810000000000002</ele>
        <time>2025-05-06T09:23:35Z</time>
      </trkpt>
      <trkpt lat="38.216804964467883" lon="-8.390423962846398">
        <ele>86.659999999999997</ele>
        <time>2025-05-06T09:23:44Z</time>
      </trkpt>
      <trkpt lat="38.215767033398151" lon="-8.392479959875345">
        <ele>89.540000000000006</ele>
        <time>2025-05-06T09:23:54Z</time>
      </trkpt>
      <trkpt lat="38.214571019634604" lon="-8.39485002681613">
        <ele>90.5</ele>
        <time>2025-05-06T09:24:06Z</time>
      </trkpt>
      <trkpt lat="38.213478019461036" lon="-8.396995961666107">
        <ele>95.310000000000002</ele>
        <time>2025-05-06T09:24:16Z</time>
      </trkpt>
      <trkpt lat="38.212828002870083" lon="-8.398255007341504">
        <ele>96.75</ele>
        <time>2025-05-06T09:24:22Z</time>
      </trkpt>
      <trkpt lat="38.21252197958529" lon="-8.398849032819271">
        <ele>96.75</ele>
        <time>2025-05-06T09:24:25Z</time>
      </trkpt>
      <trkpt lat="38.212425000965595" lon="-8.399038966745138">
        <ele>96.75</ele>
        <time>2025-05-06T09:24:26Z</time>
      </trkpt>
      <trkpt lat="38.211999032646418" lon="-8.399870032444596">
        <ele>96.75</ele>
        <time>2025-05-06T09:24:30Z</time>
      </trkpt>
      <trkpt lat="38.211894007399678" lon="-8.400075975805521">
        <ele>97.230000000000004</ele>
        <time>2025-05-06T09:24:31Z</time>
      </trkpt>
      <trkpt lat="38.2117909938097" lon="-8.400276973843575">
        <ele>97.230000000000004</ele>
        <time>2025-05-06T09:24:32Z</time>
      </trkpt>
      <trkpt lat="38.210534965619445" lon="-8.402729015797377">
        <ele>101.56</ele>
        <time>2025-05-06T09:24:44Z</time>
      </trkpt>
      <trkpt lat="38.209866005927324" lon="-8.40404698625207">
        <ele>103.95999999999999</ele>
        <time>2025-05-06T09:24:50Z</time>
      </trkpt>
      <trkpt lat="38.208629004657269" lon="-8.406466003507376">
        <ele>107.31999999999999</ele>
        <time>2025-05-06T09:25:02Z</time>
      </trkpt>
      <trkpt lat="38.207714036107063" lon="-8.408253025263548">
        <ele>109.25</ele>
        <time>2025-05-06T09:25:12Z</time>
      </trkpt>
      <trkpt lat="38.207120010629296" lon="-8.409537971019745">
        <ele>110.20999999999999</ele>
        <time>2025-05-06T09:25:21Z</time>
      </trkpt>
      <trkpt lat="38.207101989537477" lon="-8.409668980166316">
        <ele>110.20999999999999</ele>
        <time>2025-05-06T09:25:22Z</time>
      </trkpt>
      <trkpt lat="38.207136020064354" lon="-8.409806024283171">
        <ele>109.73</ele>
        <time>2025-05-06T09:25:23Z</time>
      </trkpt>
      <trkpt lat="38.207194022834301" lon="-8.409924041479826">
        <ele>109.73</ele>
        <time>2025-05-06T09:25:24Z</time>
      </trkpt>
      <trkpt lat="38.207270968705416" lon="-8.410053038969636">
        <ele>109.73</ele>
        <time>2025-05-06T09:25:25Z</time>
      </trkpt>
      <trkpt lat="38.20813899859786" lon="-8.411506963893771">
        <ele>109.25</ele>
        <time>2025-05-06T09:25:34Z</time>
      </trkpt>
      <trkpt lat="38.209100989624858" lon="-8.413121988996863">
        <ele>111.17</ele>
        <time>2025-05-06T09:25:43Z</time>
      </trkpt>
      <trkpt lat="38.21005099453032" lon="-8.414722010493279">
        <ele>112.13</ele>
        <time>2025-05-06T09:25:53Z</time>
      </trkpt>
      <trkpt lat="38.211065037176013" lon="-8.416434014216065">
        <ele>113.56999999999999</ele>
        <time>2025-05-06T09:26:03Z</time>
      </trkpt>
      <trkpt lat="38.211799962446094" lon="-8.417683001607657">
        <ele>113.56999999999999</ele>
        <time>2025-05-06T09:26:10Z</time>
      </trkpt>
      <trkpt lat="38.211912028491497" lon="-8.417874025180936">
        <ele>113.56999999999999</ele>
        <time>2025-05-06T09:26:11Z</time>
      </trkpt>
      <trkpt lat="38.212997987866402" lon="-8.419718965888023">
        <ele>111.17</ele>
        <time>2025-05-06T09:26:21Z</time>
      </trkpt>
      <trkpt lat="38.213998032733798" lon="-8.421418983489275">
        <ele>112.61</ele>
        <time>2025-05-06T09:26:30Z</time>
      </trkpt>
      <trkpt lat="38.215394960716367" lon="-8.42379298992455">
        <ele>113.09</ele>
        <time>2025-05-06T09:26:42Z</time>
      </trkpt>
      <trkpt lat="38.216535989195108" lon="-8.425731975585222">
        <ele>113.09</ele>
        <time>2025-05-06T09:26:52Z</time>
      </trkpt>
      <trkpt lat="38.217781037092209" lon="-8.427848992869258">
        <ele>112.13</ele>
        <time>2025-05-06T09:27:03Z</time>
      </trkpt>
      <trkpt lat="38.217939035966992" lon="-8.428160967305303">
        <ele>111.65000000000001</ele>
        <time>2025-05-06T09:27:06Z</time>
      </trkpt>
      <trkpt lat="38.217967031523585" lon="-8.4282629750669">
        <ele>111.65000000000001</ele>
        <time>2025-05-06T09:27:07Z</time>
      </trkpt>
      <trkpt lat="38.217967031523585" lon="-8.428370011970401">
        <ele>111.17</ele>
        <time>2025-05-06T09:27:08Z</time>
      </trkpt>
      <trkpt lat="38.217939035966992" lon="-8.428471013903618">
        <ele>111.17</ele>
        <time>2025-05-06T09:27:09Z</time>
      </trkpt>
      <trkpt lat="38.217911040410399" lon="-8.428565980866551">
        <ele>111.65000000000001</ele>
        <time>2025-05-06T09:27:10Z</time>
      </trkpt>
      <trkpt lat="38.21787198074162" lon="-8.428652985021472">
        <ele>111.65000000000001</ele>
        <time>2025-05-06T09:27:11Z</time>
      </trkpt>
      <trkpt lat="38.217836022377014" lon="-8.42873303219676">
        <ele>111.65000000000001</ele>
        <time>2025-05-06T09:27:12Z</time>
      </trkpt>
      <trkpt lat="38.217384992167354" lon="-8.4296790137887">
        <ele>111.65000000000001</ele>
        <time>2025-05-06T09:27:23Z</time>
      </trkpt>
      <trkpt lat="38.216804964467883" lon="-8.430909980088472">
        <ele>110.69</ele>
        <time>2025-05-06T09:27:33Z</time>
      </trkpt>
      <trkpt lat="38.216275982558727" lon="-8.432036004960537">
        <ele>109.73</ele>
        <time>2025-05-06T09:27:42Z</time>
      </trkpt>
      <trkpt lat="38.215667037293315" lon="-8.433325979858637">
        <ele>111.17</ele>
        <time>2025-05-06T09:27:53Z</time>
      </trkpt>
      <trkpt lat="38.215426979586482" lon="-8.433811040595174">
        <ele>111.65000000000001</ele>
        <time>2025-05-06T09:27:59Z</time>
      </trkpt>
      <trkpt lat="38.214909983798862" lon="-8.434908986091614">
        <ele>112.13</ele>
        <time>2025-05-06T09:28:10Z</time>
      </trkpt>
      <trkpt lat="38.214485021308064" lon="-8.435819009318948">
        <ele>110.20999999999999</ele>
        <time>2025-05-06T09:28:21Z</time>
      </trkpt>
      <trkpt lat="38.214050000533462" lon="-8.436701036989689">
        <ele>108.77</ele>
        <time>2025-05-06T09:28:30Z</time>
      </trkpt>
      <trkpt lat="38.213438037782907" lon="-8.437992017716169">
        <ele>108.77</ele>
        <time>2025-05-06T09:28:38Z</time>
      </trkpt>
      <trkpt lat="38.212398011237383" lon="-8.440173994749785">
        <ele>107.81</ele>
        <time>2025-05-06T09:28:49Z</time>
      </trkpt>
      <trkpt lat="38.211350021883845" lon="-8.442380027845502">
        <ele>106.84</ele>
        <time>2025-05-06T09:29:01Z</time>
      </trkpt>
      <trkpt lat="38.210579976439476" lon="-8.444040985777974">
        <ele>106.36</ele>
        <time>2025-05-06T09:29:11Z</time>
      </trkpt>
      <trkpt lat="38.209504997357726" lon="-8.445659028366208">
        <ele>105.88</ele>
        <time>2025-05-06T09:29:21Z</time>
      </trkpt>
      <trkpt lat="38.208553986623883" lon="-8.446997031569481">
        <ele>107.31999999999999</ele>
        <time>2025-05-06T09:29:29Z</time>
      </trkpt>
      <trkpt lat="38.207208020612597" lon="-8.448896035552025">
        <ele>107.31999999999999</ele>
        <time>2025-05-06T09:29:39Z</time>
      </trkpt>
      <trkpt lat="38.205742025747895" lon="-8.450961001217365">
        <ele>105.40000000000001</ele>
        <time>2025-05-06T09:29:50Z</time>
      </trkpt>
      <trkpt lat="38.205298036336899" lon="-8.451703973114491">
        <ele>103.95999999999999</ele>
        <time>2025-05-06T09:29:54Z</time>
      </trkpt>
      <trkpt lat="38.20521698333323" lon="-8.451905976980925">
        <ele>103.48</ele>
        <time>2025-05-06T09:29:55Z</time>
      </trkpt>
      <trkpt lat="38.205158980563283" lon="-8.452123990282416">
        <ele>103</ele>
        <time>2025-05-06T09:29:56Z</time>
      </trkpt>
      <trkpt lat="38.205116987228394" lon="-8.452357007190585">
        <ele>103</ele>
        <time>2025-05-06T09:29:57Z</time>
      </trkpt>
      <trkpt lat="38.205094020813704" lon="-8.452599998563528">
        <ele>102.52</ele>
        <time>2025-05-06T09:29:58Z</time>
      </trkpt>
      <trkpt lat="38.205091003328562" lon="-8.452851036563516">
        <ele>102.04000000000001</ele>
        <time>2025-05-06T09:29:59Z</time>
      </trkpt>
      <trkpt lat="38.205100977793336" lon="-8.453111965209246">
        <ele>101.56</ele>
        <time>2025-05-06T09:30:00Z</time>
      </trkpt>
      <trkpt lat="38.205121010541916" lon="-8.453374989330769">
        <ele>100.59999999999999</ele>
        <time>2025-05-06T09:30:01Z</time>
      </trkpt>
      <trkpt lat="38.205501968041062" lon="-8.456826992332935">
        <ele>95.790000000000006</ele>
        <time>2025-05-06T09:30:14Z</time>
      </trkpt>
      <trkpt lat="38.205841016024351" lon="-8.460008008405566">
        <ele>91.459999999999994</ele>
        <time>2025-05-06T09:30:27Z</time>
      </trkpt>
      <trkpt lat="38.206170005723834" lon="-8.463053992018104">
        <ele>89.060000000000002</ele>
        <time>2025-05-06T09:30:39Z</time>
      </trkpt>
      <trkpt lat="38.206222979351878" lon="-8.465361027047038">
        <ele>86.659999999999997</ele>
        <time>2025-05-06T09:30:48Z</time>
      </trkpt>
      <trkpt lat="38.206115020439029" lon="-8.468640027567744">
        <ele>86.659999999999997</ele>
        <time>2025-05-06T09:31:01Z</time>
      </trkpt>
      <trkpt lat="38.20626899600029" lon="-8.470996012911201">
        <ele>86.180000000000007</ele>
        <time>2025-05-06T09:31:10Z</time>
      </trkpt>
      <trkpt lat="38.206582982093096" lon="-8.474337039515376">
        <ele>84.730000000000004</ele>
        <time>2025-05-06T09:31:23Z</time>
      </trkpt>
      <trkpt lat="38.206855980679393" lon="-8.477275986224413">
        <ele>82.329999999999998</ele>
        <time>2025-05-06T09:31:35Z</time>
      </trkpt>
      <trkpt lat="38.206842988729477" lon="-8.477731961756945">
        <ele>82.329999999999998</ele>
        <time>2025-05-06T09:31:37Z</time>
      </trkpt>
      <trkpt lat="38.206826979294419" lon="-8.477961039170623">
        <ele>82.329999999999998</ele>
        <time>2025-05-06T09:31:38Z</time>
      </trkpt>
      <trkpt lat="38.206768976524472" lon="-8.478181986138225">
        <ele>82.329999999999998</ele>
        <time>2025-05-06T09:31:39Z</time>
      </trkpt>
      <trkpt lat="38.206697981804609" lon="-8.47840603441">
        <ele>82.329999999999998</ele>
        <time>2025-05-06T09:31:40Z</time>
      </trkpt>
      <trkpt lat="38.206601003184915" lon="-8.478606026619673">
        <ele>82.810000000000002</ele>
        <time>2025-05-06T09:31:41Z</time>
      </trkpt>
      <trkpt lat="38.20648399181664" lon="-8.478803001344204">
        <ele>82.810000000000002</ele>
        <time>2025-05-06T09:31:42Z</time>
      </trkpt>
      <trkpt lat="38.206363040953875" lon="-8.479006011039019">
        <ele>82.810000000000002</ele>
        <time>2025-05-06T09:31:43Z</time>
      </trkpt>
      <trkpt lat="38.204986983910203" lon="-8.481197040528059">
        <ele>81.849999999999994</ele>
        <time>2025-05-06T09:31:54Z</time>
      </trkpt>
      <trkpt lat="38.203311022371054" lon="-8.483816972002387">
        <ele>78.969999999999999</ele>
        <time>2025-05-06T09:32:07Z</time>
      </trkpt>
      <trkpt lat="38.201324008405209" lon="-8.486907966434956">
        <ele>75.120000000000005</ele>
        <time>2025-05-06T09:32:22Z</time>
      </trkpt>
      <trkpt lat="38.199692973867059" lon="-8.489465033635497">
        <ele>78.480000000000004</ele>
        <time>2025-05-06T09:32:35Z</time>
      </trkpt>
      <trkpt lat="38.198324963450432" lon="-8.491609962657094">
        <ele>79.930000000000007</ele>
        <time>2025-05-06T09:32:46Z</time>
      </trkpt>
      <trkpt lat="38.197214026004076" lon="-8.493350967764854">
        <ele>84.25</ele>
        <time>2025-05-06T09:32:55Z</time>
      </trkpt>
      <trkpt lat="38.195829000324011" lon="-8.495525987818837">
        <ele>84.730000000000004</ele>
        <time>2025-05-06T09:33:06Z</time>
      </trkpt>
      <trkpt lat="38.194269966334105" lon="-8.497971994802356">
        <ele>81.849999999999994</ele>
        <time>2025-05-06T09:33:18Z</time>
      </trkpt>
      <trkpt lat="38.192729959264398" lon="-8.500396963208914">
        <ele>79.450000000000003</ele>
        <time>2025-05-06T09:33:30Z</time>
      </trkpt>
      <trkpt lat="38.191188024356961" lon="-8.502835007384419">
        <ele>79.930000000000007</ele>
        <time>2025-05-06T09:33:42Z</time>
      </trkpt>
      <trkpt lat="38.190159983932972" lon="-8.504701992496848">
        <ele>79.450000000000003</ele>
        <time>2025-05-06T09:33:51Z</time>
      </trkpt>
      <trkpt lat="38.188978973776102" lon="-8.507130984216929">
        <ele>80.409999999999997</ele>
        <time>2025-05-06T09:34:02Z</time>
      </trkpt>
      <trkpt lat="38.187832999974489" lon="-8.509481018409133">
        <ele>84.730000000000004</ele>
        <time>2025-05-06T09:34:13Z</time>
      </trkpt>
      <trkpt lat="38.186527015641332" lon="-8.512213015928865">
        <ele>80.409999999999997</ele>
        <time>2025-05-06T09:34:25Z</time>
      </trkpt>
      <trkpt lat="38.185380036011338" lon="-8.514619963243604">
        <ele>81.849999999999994</ele>
        <time>2025-05-06T09:34:36Z</time>
      </trkpt>
      <trkpt lat="38.184218974784017" lon="-8.517014002427459">
        <ele>83.769999999999996</ele>
        <time>2025-05-06T09:34:47Z</time>
      </trkpt>
      <trkpt lat="38.183074006810784" lon="-8.519371999427676">
        <ele>86.180000000000007</ele>
        <time>2025-05-06T09:34:58Z</time>
      </trkpt>
      <trkpt lat="38.18196902051568" lon="-8.52169998921454">
        <ele>85.209999999999994</ele>
        <time>2025-05-06T09:35:09Z</time>
      </trkpt>
      <trkpt lat="38.181168967857957" lon="-8.523493967950344">
        <ele>82.810000000000002</ele>
        <time>2025-05-06T09:35:17Z</time>
      </trkpt>
      <trkpt lat="38.179871030151844" lon="-8.526493012905121">
        <ele>81.370000000000005</ele>
        <time>2025-05-06T09:35:30Z</time>
      </trkpt>
      <trkpt lat="38.179062008857727" lon="-8.528357986360788">
        <ele>80.409999999999997</ele>
        <time>2025-05-06T09:35:39Z</time>
      </trkpt>
      <trkpt lat="38.178536966443062" lon="-8.529591970145702">
        <ele>81.849999999999994</ele>
        <time>2025-05-06T09:35:47Z</time>
      </trkpt>
      <trkpt lat="38.177831964567304" lon="-8.531270027160645">
        <ele>84.730000000000004</ele>
        <time>2025-05-06T09:35:55Z</time>
      </trkpt>
      <trkpt lat="38.177467016503215" lon="-8.532170997932553">
        <ele>85.689999999999998</ele>
        <time>2025-05-06T09:35:59Z</time>
      </trkpt>
      <trkpt lat="38.177445977926254" lon="-8.532385993748903">
        <ele>85.689999999999998</ele>
        <time>2025-05-06T09:36:00Z</time>
      </trkpt>
      <trkpt lat="38.177428040653467" lon="-8.53259596042335">
        <ele>86.180000000000007</ele>
        <time>2025-05-06T09:36:01Z</time>
      </trkpt>
      <trkpt lat="38.177446983754635" lon="-8.532792013138533">
        <ele>86.180000000000007</ele>
        <time>2025-05-06T09:36:02Z</time>
      </trkpt>
      <trkpt lat="38.177463999018073" lon="-8.532973984256387">
        <ele>86.659999999999997</ele>
        <time>2025-05-06T09:36:03Z</time>
      </trkpt>
      <trkpt lat="38.177570030093193" lon="-8.533941004425287">
        <ele>87.140000000000001</ele>
        <time>2025-05-06T09:36:10Z</time>
      </trkpt>
      <trkpt lat="38.177729034796357" lon="-8.53534497320652">
        <ele>88.099999999999994</ele>
        <time>2025-05-06T09:36:21Z</time>
      </trkpt>
      <trkpt lat="38.177890973165631" lon="-8.536803005263209">
        <ele>90.019999999999996</ele>
        <time>2025-05-06T09:36:32Z</time>
      </trkpt>
      <trkpt lat="38.17790798842907" lon="-8.536953963339329">
        <ele>90.019999999999996</ele>
        <time>2025-05-06T09:36:33Z</time>
      </trkpt>
      <trkpt lat="38.177925003692508" lon="-8.537107016891241">
        <ele>90.019999999999996</ele>
        <time>2025-05-06T09:36:34Z</time>
      </trkpt>
      <trkpt lat="38.178062969818711" lon="-8.538321973755956">
        <ele>90.5</ele>
        <time>2025-05-06T09:36:42Z</time>
      </trkpt>
      <trkpt lat="38.178262962028384" lon="-8.540278980508447">
        <ele>92.900000000000006</ele>
        <time>2025-05-06T09:36:55Z</time>
      </trkpt>
      <trkpt lat="38.178495978936553" lon="-8.542086035013199">
        <ele>95.790000000000006</ele>
        <time>2025-05-06T09:37:07Z</time>
      </trkpt>
      <trkpt lat="38.178917001932859" lon="-8.543531997129321">
        <ele>99.150000000000006</ele>
        <time>2025-05-06T09:37:17Z</time>
      </trkpt>
      <trkpt lat="38.178985984995961" lon="-8.543972969055176">
        <ele>99.150000000000006</ele>
        <time>2025-05-06T09:37:20Z</time>
      </trkpt>
      <trkpt lat="38.179001994431019" lon="-8.544127028435469">
        <ele>99.629999999999995</ele>
        <time>2025-05-06T09:37:21Z</time>
      </trkpt>
      <trkpt lat="38.179011968895793" lon="-8.544276980683208">
        <ele>99.629999999999995</ele>
        <time>2025-05-06T09:37:22Z</time>
      </trkpt>
      <trkpt lat="38.178997971117496" lon="-8.5444310400635">
        <ele>99.629999999999995</ele>
        <time>2025-05-06T09:37:23Z</time>
      </trkpt>
      <trkpt lat="38.1789839733392" lon="-8.544586021453142">
        <ele>99.629999999999995</ele>
        <time>2025-05-06T09:37:24Z</time>
      </trkpt>
      <trkpt lat="38.178896969184279" lon="-8.54595503769815">
        <ele>100.59999999999999</ele>
        <time>2025-05-06T09:37:33Z</time>
      </trkpt>
      <trkpt lat="38.178901998326182" lon="-8.546820972114801">
        <ele>100.59999999999999</ele>
        <time>2025-05-06T09:37:39Z</time>
      </trkpt>
      <trkpt lat="38.178993025794625" lon="-8.546956004574895">
        <ele>100.11</ele>
        <time>2025-05-06T09:37:40Z</time>
      </trkpt>
      <trkpt lat="38.178993025794625" lon="-8.546956004574895">
        <ele>100.11</ele>
        <time>2025-05-06T09:37:41Z</time>
      </trkpt>
      <trkpt lat="38.179115988314152" lon="-8.547035967931151">
        <ele>99.629999999999995</ele>
        <time>2025-05-06T09:37:42Z</time>
      </trkpt>
      <trkpt lat="38.179197041317821" lon="-8.54703102260828">
        <ele>99.629999999999995</ele>
        <time>2025-05-06T09:37:43Z</time>
      </trkpt>
      <trkpt lat="38.179295025765896" lon="-8.547023981809616">
        <ele>99.150000000000006</ele>
        <time>2025-05-06T09:37:44Z</time>
      </trkpt>
      <trkpt lat="38.179404996335506" lon="-8.547019958496094">
        <ele>98.189999999999998</ele>
        <time>2025-05-06T09:37:45Z</time>
      </trkpt>
      <trkpt lat="38.179527036845684" lon="-8.547019958496094">
        <ele>97.709999999999994</ele>
        <time>2025-05-06T09:37:46Z</time>
      </trkpt>
      <trkpt lat="38.180249975994229" lon="-8.547022975981236">
        <ele>94.349999999999994</ele>
        <time>2025-05-06T09:37:51Z</time>
      </trkpt>
      <trkpt lat="38.18132596090436" lon="-8.547456990927458">
        <ele>90.019999999999996</ele>
        <time>2025-05-06T09:37:58Z</time>
      </trkpt>
      <trkpt lat="38.182801008224487" lon="-8.548259977251291">
        <ele>86.659999999999997</ele>
        <time>2025-05-06T09:38:07Z</time>
      </trkpt>
      <trkpt lat="38.183276010677218" lon="-8.548605982214212">
        <ele>86.180000000000007</ele>
        <time>2025-05-06T09:38:10Z</time>
      </trkpt>
      <trkpt lat="38.183419005945325" lon="-8.548731040209532">
        <ele>86.180000000000007</ele>
        <time>2025-05-06T09:38:11Z</time>
      </trkpt>
      <trkpt lat="38.183564012870193" lon="-8.548856014385819">
        <ele>85.689999999999998</ele>
        <time>2025-05-06T09:38:12Z</time>
      </trkpt>
      <trkpt lat="38.184399018064141" lon="-8.549992013722658">
        <ele>85.689999999999998</ele>
        <time>2025-05-06T09:38:19Z</time>
      </trkpt>
      <trkpt lat="38.184498008340597" lon="-8.550185970962048">
        <ele>85.209999999999994</ele>
        <time>2025-05-06T09:38:20Z</time>
      </trkpt>
      <trkpt lat="38.184571014717221" lon="-8.550395015627146">
        <ele>85.209999999999994</ele>
        <time>2025-05-06T09:38:21Z</time>
      </trkpt>
      <trkpt lat="38.184807971119881" lon="-8.55199403129518">
        <ele>84.730000000000004</ele>
        <time>2025-05-06T09:38:28Z</time>
      </trkpt>
      <trkpt lat="38.184807971119881" lon="-8.553163977339864">
        <ele>86.180000000000007</ele>
        <time>2025-05-06T09:38:35Z</time>
      </trkpt>
      <trkpt lat="38.184807971119881" lon="-8.553279982879758">
        <ele>86.180000000000007</ele>
        <time>2025-05-06T09:38:36Z</time>
      </trkpt>
      <trkpt lat="38.184807971119881" lon="-8.553329017013311">
        <ele>86.659999999999997</ele>
        <time>2025-05-06T09:38:37Z</time>
      </trkpt>
      <trkpt lat="38.184830015525222" lon="-8.55349900200963">
        <ele>86.659999999999997</ele>
        <time>2025-05-06T09:38:38Z</time>
      </trkpt>
      <trkpt lat="38.184754997491837" lon="-8.553595980629325">
        <ele>87.140000000000001</ele>
        <time>2025-05-06T09:38:39Z</time>
      </trkpt>
      <trkpt lat="38.184738988056779" lon="-8.553715003654361">
        <ele>87.140000000000001</ele>
        <time>2025-05-06T09:38:40Z</time>
      </trkpt>
      <trkpt lat="38.184721972793341" lon="-8.553846012800932">
        <ele>87.620000000000005</ele>
        <time>2025-05-06T09:38:41Z</time>
      </trkpt>
      <trkpt lat="38.184523992240429" lon="-8.555332962423563">
        <ele>85.689999999999998</ele>
        <time>2025-05-06T09:38:51Z</time>
      </trkpt>
      <trkpt lat="38.18450496532023" lon="-8.555476041510701">
        <ele>85.689999999999998</ele>
        <time>2025-05-06T09:38:52Z</time>
      </trkpt>
      <trkpt lat="38.184452997520566" lon="-8.555868985131383">
        <ele>86.659999999999997</ele>
        <time>2025-05-06T09:38:55Z</time>
      </trkpt>
      <trkpt lat="38.184443023055792" lon="-8.555946014821529">
        <ele>87.140000000000001</ele>
        <time>2025-05-06T09:38:56Z</time>
      </trkpt>
      <trkpt lat="38.184443023055792" lon="-8.555946014821529">
        <ele>87.140000000000001</ele>
        <time>2025-05-06T09:38:57Z</time>
      </trkpt>
      <trkpt lat="38.184474036097527" lon="-8.556124968454242">
        <ele>87.620000000000005</ele>
        <time>2025-05-06T09:38:58Z</time>
      </trkpt>
      <trkpt lat="38.184463977813721" lon="-8.556139972060919">
        <ele>87.620000000000005</ele>
        <time>2025-05-06T09:38:59Z</time>
      </trkpt>
      <trkpt lat="38.184400023892522" lon="-8.556161010637879">
        <ele>88.099999999999994</ele>
        <time>2025-05-06T09:39:00Z</time>
      </trkpt>
      <trkpt lat="38.18435300141573" lon="-8.556097978726029">
        <ele>88.099999999999994</ele>
        <time>2025-05-06T09:39:01Z</time>
      </trkpt>
      <trkpt lat="38.184335986152291" lon="-8.556075012311339">
        <ele>88.099999999999994</ele>
        <time>2025-05-06T09:39:02Z</time>
      </trkpt>
      <trkpt lat="38.1842250097543" lon="-8.555955989286304">
        <ele>88.099999999999994</ele>
        <time>2025-05-06T09:39:03Z</time>
      </trkpt>
      <trkpt lat="38.184141023084521" lon="-8.555935034528375">
        <ele>88.099999999999994</ele>
        <time>2025-05-06T09:39:04Z</time>
      </trkpt>
      <trkpt lat="38.184042032808065" lon="-8.555910978466272">
        <ele>88.579999999999998</ele>
        <time>2025-05-06T09:39:05Z</time>
      </trkpt>
      <trkpt lat="38.183936001732945" lon="-8.55588398873806">
        <ele>88.579999999999998</ele>
        <time>2025-05-06T09:39:06Z</time>
      </trkpt>
      <trkpt lat="38.182632029056549" lon="-8.555706040933728">
        <ele>92.900000000000006</ele>
        <time>2025-05-06T09:39:19Z</time>
      </trkpt>
      <trkpt lat="38.182379985228181" lon="-8.555702017620206">
        <ele>93.870000000000005</ele>
        <time>2025-05-06T09:39:22Z</time>
      </trkpt>
      <trkpt lat="38.182282000780106" lon="-8.555712997913361">
        <ele>93.870000000000005</ele>
        <time>2025-05-06T09:39:23Z</time>
      </trkpt>
      <trkpt lat="38.181773973628879" lon="-8.555983984842897">
        <ele>94.349999999999994</ele>
        <time>2025-05-06T09:39:28Z</time>
      </trkpt>
      <trkpt lat="38.181687975302339" lon="-8.556077023968101">
        <ele>94.829999999999998</ele>
        <time>2025-05-06T09:39:29Z</time>
      </trkpt>
      <trkpt lat="38.181602982804179" lon="-8.556167967617512">
        <ele>94.829999999999998</ele>
        <time>2025-05-06T09:39:30Z</time>
      </trkpt>
      <trkpt lat="38.181558977812529" lon="-8.556284978985786">
        <ele>94.349999999999994</ele>
        <time>2025-05-06T09:39:31Z</time>
      </trkpt>
      <trkpt lat="38.181522013619542" lon="-8.556407019495964">
        <ele>94.349999999999994</ele>
        <time>2025-05-06T09:39:32Z</time>
      </trkpt>
      <trkpt lat="38.181484965607524" lon="-8.556530987843871">
        <ele>94.349999999999994</ele>
        <time>2025-05-06T09:39:33Z</time>
      </trkpt>
      <trkpt lat="38.181448001414537" lon="-8.556654034182429">
        <ele>94.829999999999998</ele>
        <time>2025-05-06T09:39:34Z</time>
      </trkpt>
      <trkpt lat="38.181164022535086" lon="-8.558181971311569">
        <ele>100.11</ele>
        <time>2025-05-06T09:39:46Z</time>
      </trkpt>
      <trkpt lat="38.180877026170492" lon="-8.560038981959224">
        <ele>100.59999999999999</ele>
        <time>2025-05-06T09:40:00Z</time>
      </trkpt>
      <trkpt lat="38.180839978158474" lon="-8.560172002762556">
        <ele>100.59999999999999</ele>
        <time>2025-05-06T09:40:01Z</time>
      </trkpt>
      <trkpt lat="38.180801002308726" lon="-8.560308963060379">
        <ele>100.59999999999999</ele>
        <time>2025-05-06T09:40:02Z</time>
      </trkpt>
      <trkpt lat="38.180353995412588" lon="-8.562064971774817">
        <ele>99.629999999999995</ele>
        <time>2025-05-06T09:40:15Z</time>
      </trkpt>
      <trkpt lat="38.180113015696406" lon="-8.563115978613496">
        <ele>100.11</ele>
        <time>2025-05-06T09:40:24Z</time>
      </trkpt>
      <trkpt lat="38.179795006290078" lon="-8.564526988193393">
        <ele>100.59999999999999</ele>
        <time>2025-05-06T09:40:35Z</time>
      </trkpt>
      <trkpt lat="38.179655028507113" lon="-8.565172981470823">
        <ele>101.56</ele>
        <time>2025-05-06T09:40:42Z</time>
      </trkpt>
      <trkpt lat="38.179629966616631" lon="-8.565295021981001">
        <ele>102.52</ele>
        <time>2025-05-06T09:40:45Z</time>
      </trkpt>
      <trkpt lat="38.179594008252025" lon="-8.56538001447916">
        <ele>103</ele>
        <time>2025-05-06T09:40:46Z</time>
      </trkpt>
      <trkpt lat="38.179527036845684" lon="-8.565427036955953">
        <ele>103.48</ele>
        <time>2025-05-06T09:40:47Z</time>
      </trkpt>
      <trkpt lat="38.179449001327157" lon="-8.565481016412377">
        <ele>103.48</ele>
        <time>2025-05-06T09:40:48Z</time>
      </trkpt>
      <trkpt lat="38.179371971637011" lon="-8.565533990040422">
        <ele>103.95999999999999</ele>
        <time>2025-05-06T09:40:49Z</time>
      </trkpt>
      <trkpt lat="38.179288990795612" lon="-8.565590986981988">
        <ele>103.95999999999999</ele>
        <time>2025-05-06T09:40:50Z</time>
      </trkpt>
      <trkpt lat="38.178434958681464" lon="-8.566095996648073">
        <ele>107.81</ele>
        <time>2025-05-06T09:41:00Z</time>
      </trkpt>
      <trkpt lat="38.178386008366942" lon="-8.566117035225034">
        <ele>108.29000000000001</ele>
        <time>2025-05-06T09:41:01Z</time>
      </trkpt>
      <trkpt lat="38.177782008424401" lon="-8.566380981355906">
        <ele>112.13</ele>
        <time>2025-05-06T09:41:11Z</time>
      </trkpt>
      <trkpt lat="38.177727023139596" lon="-8.566404031589627">
        <ele>112.61</ele>
        <time>2025-05-06T09:41:13Z</time>
      </trkpt>
      <trkpt lat="38.177688969299197" lon="-8.566359020769596">
        <ele>112.61</ele>
        <time>2025-05-06T09:41:14Z</time>
      </trkpt>
      <trkpt lat="38.177652005106211" lon="-8.566335970535874">
        <ele>113.09</ele>
        <time>2025-05-06T09:41:15Z</time>
      </trkpt>
      <trkpt lat="38.177618980407715" lon="-8.566316021606326">
        <ele>113.09</ele>
        <time>2025-05-06T09:41:16Z</time>
      </trkpt>
      <trkpt lat="38.177589979022741" lon="-8.566296994686127">
        <ele>113.09</ele>
        <time>2025-05-06T09:41:17Z</time>
      </trkpt>
      <trkpt lat="38.177556032314897" lon="-8.566276039928198">
        <ele>113.09</ele>
        <time>2025-05-06T09:41:18Z</time>
      </trkpt>
      <trkpt lat="38.177527030929923" lon="-8.566258018836379">
        <ele>113.09</ele>
        <time>2025-05-06T09:41:19Z</time>
      </trkpt>
      <trkpt lat="38.17749903537333" lon="-8.56623999774456">
        <ele>112.61</ele>
        <time>2025-05-06T09:41:20Z</time>
      </trkpt>
      <trkpt lat="38.177471961826086" lon="-8.566223988309503">
        <ele>112.13</ele>
        <time>2025-05-06T09:41:21Z</time>
      </trkpt>
      <trkpt lat="38.177423011511564" lon="-8.566192975267768">
        <ele>111.65000000000001</ele>
        <time>2025-05-06T09:41:32Z</time>
      </trkpt>
      <trkpt lat="38.177107013761997" lon="-8.565996000543237">
        <ele>110.69</ele>
        <time>2025-05-06T09:41:39Z</time>
      </trkpt>
      <trkpt lat="38.177015986293554" lon="-8.566073030233383">
        <ele>110.20999999999999</ele>
        <time>2025-05-06T09:41:43Z</time>
      </trkpt>
      <trkpt lat="38.176991008222103" lon="-8.566132038831711">
        <ele>110.20999999999999</ele>
        <time>2025-05-06T09:41:44Z</time>
      </trkpt>
      <trkpt lat="38.176867961883545" lon="-8.566461028531194">
        <ele>108.77</ele>
        <time>2025-05-06T09:41:52Z</time>
      </trkpt>
      <trkpt lat="38.176865028217435" lon="-8.566500004380941">
        <ele>108.77</ele>
        <time>2025-05-06T09:41:53Z</time>
      </trkpt>
      <trkpt lat="38.176863016560674" lon="-8.566536968573928">
        <ele>108.77</ele>
        <time>2025-05-06T09:41:54Z</time>
      </trkpt>
      <trkpt lat="38.176858993247151" lon="-8.566580973565579">
        <ele>108.77</ele>
        <time>2025-05-06T09:41:55Z</time>
      </trkpt>
      <trkpt lat="38.176854969933629" lon="-8.566634031012654">
        <ele>108.77</ele>
        <time>2025-05-06T09:41:56Z</time>
      </trkpt>
      <trkpt lat="38.176851030439138" lon="-8.566683987155557">
        <ele>108.77</ele>
        <time>2025-05-06T09:41:57Z</time>
      </trkpt>
      <trkpt lat="38.176848012953997" lon="-8.566726986318827">
        <ele>108.77</ele>
        <time>2025-05-06T09:41:58Z</time>
      </trkpt>
      <trkpt lat="38.176881037652493" lon="-8.56679898686707">
        <ele>107.81</ele>
        <time>2025-05-06T09:42:06Z</time>
      </trkpt>
      <trkpt lat="38.176995031535625" lon="-8.566993027925491">
        <ele>107.81</ele>
        <time>2025-05-06T09:42:14Z</time>
      </trkpt>
      <trkpt lat="38.176996959373355" lon="-8.566996967419982">
        <ele>107.31999999999999</ele>
        <time>2025-05-06T09:42:15Z</time>
      </trkpt>
      <trkpt lat="38.177132997661829" lon="-8.567052958533168">
        <ele>107.31999999999999</ele>
        <time>2025-05-06T09:42:16Z</time>
      </trkpt>
      <trkpt lat="38.177140038460493" lon="-8.567107021808624">
        <ele>107.31999999999999</ele>
        <time>2025-05-06T09:42:17Z</time>
      </trkpt>
      <trkpt lat="38.17711397074163" lon="-8.567191008478403">
        <ele>107.31999999999999</ele>
        <time>2025-05-06T09:42:18Z</time>
      </trkpt>
      <trkpt lat="38.177083041518927" lon="-8.567211963236332">
        <ele>107.31999999999999</ele>
        <time>2025-05-06T09:42:19Z</time>
      </trkpt>
      <trkpt lat="38.177083041518927" lon="-8.567211963236332">
        <ele>107.31999999999999</ele>
        <time>2025-05-06T09:42:20Z</time>
      </trkpt>
      <trkpt lat="38.17696301266551" lon="-8.567289998754859">
        <ele>107.31999999999999</ele>
        <time>2025-05-06T09:42:21Z</time>
      </trkpt>
      <trkpt lat="38.17694297991693" lon="-8.5673569701612">
        <ele>107.31999999999999</ele>
        <time>2025-05-06T09:42:22Z</time>
      </trkpt>
      <trkpt lat="38.176923030987382" lon="-8.567429976537824">
        <ele>107.31999999999999</ele>
        <time>2025-05-06T09:42:23Z</time>
      </trkpt>
      <trkpt lat="38.176907021552324" lon="-8.567504994571209">
        <ele>107.31999999999999</ele>
        <time>2025-05-06T09:42:24Z</time>
      </trkpt>
      <trkpt lat="38.17689897492528" lon="-8.567578000947833">
        <ele>107.31999999999999</ele>
        <time>2025-05-06T09:42:25Z</time>
      </trkpt>
      <trkpt lat="38.176890006288886" lon="-8.567652013152838">
        <ele>107.31999999999999</ele>
        <time>2025-05-06T09:42:26Z</time>
      </trkpt>
      <trkpt lat="38.176792021840811" lon="-8.56855901889503">
        <ele>109.25</ele>
        <time>2025-05-06T09:42:37Z</time>
      </trkpt>
      <trkpt lat="38.176771989092231" lon="-8.568780971691012">
        <ele>110.69</ele>
        <time>2025-05-06T09:42:40Z</time>
      </trkpt>
      <trkpt lat="38.176702000200748" lon="-8.569575995206833">
        <ele>113.56999999999999</ele>
        <time>2025-05-06T09:42:50Z</time>
      </trkpt>
      <trkpt lat="38.176711974665523" lon="-8.569665011018515">
        <ele>113.56999999999999</ele>
        <time>2025-05-06T09:42:51Z</time>
      </trkpt>
      <trkpt lat="38.176723038777709" lon="-8.569759977981448">
        <ele>113.56999999999999</ele>
        <time>2025-05-06T09:42:52Z</time>
      </trkpt>
      <trkpt lat="38.176734019070864" lon="-8.569861985743046">
        <ele>114.05</ele>
        <time>2025-05-06T09:42:53Z</time>
      </trkpt>
      <trkpt lat="38.176746005192399" lon="-8.569970028474927">
        <ele>114.05</ele>
        <time>2025-05-06T09:42:54Z</time>
      </trkpt>
      <trkpt lat="38.176897969096899" lon="-8.571322029456496">
        <ele>110.69</ele>
        <time>2025-05-06T09:43:05Z</time>
      </trkpt>
      <trkpt lat="38.176902998238802" lon="-8.571579018607736">
        <ele>110.20999999999999</ele>
        <time>2025-05-06T09:43:07Z</time>
      </trkpt>
      <trkpt lat="38.176895035430789" lon="-8.571711033582687">
        <ele>109.73</ele>
        <time>2025-05-06T09:43:08Z</time>
      </trkpt>
      <trkpt lat="38.176804007962346" lon="-8.573182979598641">
        <ele>108.29000000000001</ele>
        <time>2025-05-06T09:43:18Z</time>
      </trkpt>
      <trkpt lat="38.176953960210085" lon="-8.574443031102419">
        <ele>108.29000000000001</ele>
        <time>2025-05-06T09:43:28Z</time>
      </trkpt>
      <trkpt lat="38.176973992958665" lon="-8.574512014165521">
        <ele>107.81</ele>
        <time>2025-05-06T09:43:29Z</time>
      </trkpt>
      <trkpt lat="38.177146995440125" lon="-8.574665989726782">
        <ele>107.81</ele>
        <time>2025-05-06T09:43:31Z</time>
      </trkpt>
      <trkpt lat="38.177146995440125" lon="-8.574766991659999">
        <ele>107.81</ele>
        <time>2025-05-06T09:43:32Z</time>
      </trkpt>
      <trkpt lat="38.177146995440125" lon="-8.574829017743468">
        <ele>107.81</ele>
        <time>2025-05-06T09:43:33Z</time>
      </trkpt>
      <trkpt lat="38.177089998498559" lon="-8.574992967769504">
        <ele>107.81</ele>
        <time>2025-05-06T09:43:34Z</time>
      </trkpt>
      <trkpt lat="38.177120005711913" lon="-8.575097993016243">
        <ele>108.29000000000001</ele>
        <time>2025-05-06T09:43:35Z</time>
      </trkpt>
      <trkpt lat="38.177146995440125" lon="-8.575193965807557">
        <ele>108.29000000000001</ele>
        <time>2025-05-06T09:43:36Z</time>
      </trkpt>
      <trkpt lat="38.177166022360325" lon="-8.575341990217567">
        <ele>108.77</ele>
        <time>2025-05-06T09:43:37Z</time>
      </trkpt>
      <trkpt lat="38.177181025967002" lon="-8.575466964393854">
        <ele>109.73</ele>
        <time>2025-05-06T09:43:38Z</time>
      </trkpt>
      <trkpt lat="38.177183959633112" lon="-8.575584981590509">
        <ele>110.69</ele>
        <time>2025-05-06T09:43:39Z</time>
      </trkpt>
      <trkpt lat="38.177168034017086" lon="-8.575713979080319">
        <ele>111.65000000000001</ele>
        <time>2025-05-06T09:43:40Z</time>
      </trkpt>
      <trkpt lat="38.177152024582028" lon="-8.575845994055271">
        <ele>112.61</ele>
        <time>2025-05-06T09:43:41Z</time>
      </trkpt>
      <trkpt lat="38.177125034853816" lon="-8.575978009030223">
        <ele>113.56999999999999</ele>
        <time>2025-05-06T09:43:42Z</time>
      </trkpt>
      <trkpt lat="38.176925964653492" lon="-8.576823994517326">
        <ele>116.94</ele>
        <time>2025-05-06T09:43:48Z</time>
      </trkpt>
      <trkpt lat="38.17691900767386" lon="-8.576956009492278">
        <ele>116.94</ele>
        <time>2025-05-06T09:43:49Z</time>
      </trkpt>
      <trkpt lat="38.176913978531957" lon="-8.577077966183424">
        <ele>116.45999999999999</ele>
        <time>2025-05-06T09:43:50Z</time>
      </trkpt>
      <trkpt lat="38.176948009058833" lon="-8.577190032228828">
        <ele>115.5</ele>
        <time>2025-05-06T09:43:51Z</time>
      </trkpt>
      <trkpt lat="38.1770050060004" lon="-8.577291034162045">
        <ele>115.01000000000001</ele>
        <time>2025-05-06T09:43:52Z</time>
      </trkpt>
      <trkpt lat="38.177065020427108" lon="-8.577398993074894">
        <ele>114.53</ele>
        <time>2025-05-06T09:43:53Z</time>
      </trkpt>
      <trkpt lat="38.177138026803732" lon="-8.577502006664872">
        <ele>114.05</ele>
        <time>2025-05-06T09:43:54Z</time>
      </trkpt>
      <trkpt lat="38.177225030958652" lon="-8.577589010819793">
        <ele>113.56999999999999</ele>
        <time>2025-05-06T09:43:55Z</time>
      </trkpt>
      <trkpt lat="38.177311029285192" lon="-8.57767098583281">
        <ele>113.09</ele>
        <time>2025-05-06T09:43:56Z</time>
      </trkpt>
      <trkpt lat="38.177390992641449" lon="-8.577742986381054">
        <ele>112.13</ele>
        <time>2025-05-06T09:43:57Z</time>
      </trkpt>
      <trkpt lat="38.177462993189692" lon="-8.577808029949665">
        <ele>111.17</ele>
        <time>2025-05-06T09:43:58Z</time>
      </trkpt>
      <trkpt lat="38.177609005942941" lon="-8.577753966674209">
        <ele>110.20999999999999</ele>
        <time>2025-05-06T09:43:59Z</time>
      </trkpt>
      <trkpt lat="38.177683018147945" lon="-8.577696969732642">
        <ele>110.20999999999999</ele>
        <time>2025-05-06T09:44:00Z</time>
      </trkpt>
      <trkpt lat="38.17775996401906" lon="-8.577617006376386">
        <ele>109.25</ele>
        <time>2025-05-06T09:44:01Z</time>
      </trkpt>
      <trkpt lat="38.177830958738923" lon="-8.577522961422801">
        <ele>108.77</ele>
        <time>2025-05-06T09:44:02Z</time>
      </trkpt>
      <trkpt lat="38.177868006750941" lon="-8.5773900244385">
        <ele>108.29000000000001</ele>
        <time>2025-05-06T09:44:03Z</time>
      </trkpt>
      <trkpt lat="38.17788502201438" lon="-8.577254991978407">
        <ele>107.81</ele>
        <time>2025-05-06T09:44:04Z</time>
      </trkpt>
      <trkpt lat="38.177884016185999" lon="-8.577105961740017">
        <ele>107.81</ele>
        <time>2025-05-06T09:44:05Z</time>
      </trkpt>
      <trkpt lat="38.177834982052445" lon="-8.576972018927336">
        <ele>107.31999999999999</ele>
        <time>2025-05-06T09:44:06Z</time>
      </trkpt>
      <trkpt lat="38.177753007039428" lon="-8.576837992295623">
        <ele>106.84</ele>
        <time>2025-05-06T09:44:07Z</time>
      </trkpt>
      <trkpt lat="38.177655022591352" lon="-8.576719975098968">
        <ele>106.36</ele>
        <time>2025-05-06T09:44:08Z</time>
      </trkpt>
      <trkpt lat="38.177554020658135" lon="-8.576597012579441">
        <ele>106.36</ele>
        <time>2025-05-06T09:44:09Z</time>
      </trkpt>
      <trkpt lat="38.177417982369661" lon="-8.576483018696308">
        <ele>106.36</ele>
        <time>2025-05-06T09:44:10Z</time>
      </trkpt>
      <trkpt lat="38.177281022071838" lon="-8.576391991227865">
        <ele>105.88</ele>
        <time>2025-05-06T09:44:11Z</time>
      </trkpt>
      <trkpt lat="38.17713500931859" lon="-8.576295012608171">
        <ele>105.88</ele>
        <time>2025-05-06T09:44:12Z</time>
      </trkpt>
      <trkpt lat="38.176996037364006" lon="-8.576202979311347">
        <ele>105.88</ele>
        <time>2025-05-06T09:44:13Z</time>
      </trkpt>
      <trkpt lat="38.176850024610758" lon="-8.576108012348414">
        <ele>105.40000000000001</ele>
        <time>2025-05-06T09:44:14Z</time>
      </trkpt>
      <trkpt lat="38.175337007269263" lon="-8.575079971924424">
        <ele>101.56</ele>
        <time>2025-05-06T09:44:22Z</time>
      </trkpt>
      <trkpt lat="38.173765987157822" lon="-8.573628980666399">
        <ele>95.790000000000006</ele>
        <time>2025-05-06T09:44:30Z</time>
      </trkpt>
      <trkpt lat="38.172841966152191" lon="-8.571969028562307">
        <ele>90.5</ele>
        <time>2025-05-06T09:44:37Z</time>
      </trkpt>
      <trkpt lat="38.171718958765268" lon="-8.569343984127045">
        <ele>90.019999999999996</ele>
        <time>2025-05-06T09:44:48Z</time>
      </trkpt>
      <trkpt lat="38.171417964622378" lon="-8.568646023049951">
        <ele>89.540000000000006</ele>
        <time>2025-05-06T09:44:52Z</time>
      </trkpt>
      <trkpt lat="38.171266000717878" lon="-8.568591037765145">
        <ele>89.060000000000002</ele>
        <time>2025-05-06T09:44:53Z</time>
      </trkpt>
      <trkpt lat="38.1711820140481" lon="-8.568542003631592">
        <ele>89.060000000000002</ele>
        <time>2025-05-06T09:44:54Z</time>
      </trkpt>
      <trkpt lat="38.171057961881161" lon="-8.568501016125083">
        <ele>88.579999999999998</ele>
        <time>2025-05-06T09:44:55Z</time>
      </trkpt>
      <trkpt lat="38.170943967998028" lon="-8.568477965891361">
        <ele>87.620000000000005</ele>
        <time>2025-05-06T09:44:56Z</time>
      </trkpt>
      <trkpt lat="38.170773983001709" lon="-8.568477965891361">
        <ele>87.140000000000001</ele>
        <time>2025-05-06T09:44:57Z</time>
      </trkpt>
      <trkpt lat="38.170664012432098" lon="-8.568506967276335">
        <ele>86.180000000000007</ele>
        <time>2025-05-06T09:44:58Z</time>
      </trkpt>
      <trkpt lat="38.169104978442192" lon="-8.568939976394177">
        <ele>85.209999999999994</ele>
        <time>2025-05-06T09:45:07Z</time>
      </trkpt>
      <trkpt lat="38.168220017105341" lon="-8.569111973047257">
        <ele>83.769999999999996</ele>
        <time>2025-05-06T09:45:12Z</time>
      </trkpt>
      <trkpt lat="38.166710017248988" lon="-8.568984987214208">
        <ele>84.730000000000004</ele>
        <time>2025-05-06T09:45:21Z</time>
      </trkpt>
      <trkpt lat="38.166540032252669" lon="-8.568976018577814">
        <ele>85.689999999999998</ele>
        <time>2025-05-06T09:45:22Z</time>
      </trkpt>
      <trkpt lat="38.166194027289748" lon="-8.569032009691">
        <ele>87.140000000000001</ele>
        <time>2025-05-06T09:45:24Z</time>
      </trkpt>
      <trkpt lat="38.1650619674474" lon="-8.569386983290315">
        <ele>94.829999999999998</ele>
        <time>2025-05-06T09:45:31Z</time>
      </trkpt>
      <trkpt lat="38.164919978007674" lon="-8.569395029917359">
        <ele>95.790000000000006</ele>
        <time>2025-05-06T09:45:32Z</time>
      </trkpt>
      <trkpt lat="38.164773965254426" lon="-8.569370973855257">
        <ele>96.75</ele>
        <time>2025-05-06T09:45:33Z</time>
      </trkpt>
      <trkpt lat="38.164628958329558" lon="-8.569295033812523">
        <ele>97.230000000000004</ele>
        <time>2025-05-06T09:45:34Z</time>
      </trkpt>
      <trkpt lat="38.164483029395342" lon="-8.569219009950757">
        <ele>97.709999999999994</ele>
        <time>2025-05-06T09:45:35Z</time>
      </trkpt>
      <trkpt lat="38.164331987500191" lon="-8.569138962775469">
        <ele>98.670000000000002</ele>
        <time>2025-05-06T09:45:36Z</time>
      </trkpt>
      <trkpt lat="38.162935981526971" lon="-8.568226005882025">
        <ele>104.92</ele>
        <time>2025-05-06T09:45:45Z</time>
      </trkpt>
      <trkpt lat="38.162771025672555" lon="-8.568199016153812">
        <ele>105.40000000000001</ele>
        <time>2025-05-06T09:45:46Z</time>
      </trkpt>
      <trkpt lat="38.16265401430428" lon="-8.568243021145463">
        <ele>106.36</ele>
        <time>2025-05-06T09:45:47Z</time>
      </trkpt>
      <trkpt lat="38.162520993500948" lon="-8.568341005593538">
        <ele>106.84</ele>
        <time>2025-05-06T09:45:48Z</time>
      </trkpt>
      <trkpt lat="38.162397025153041" lon="-8.568464973941445">
        <ele>107.31999999999999</ele>
        <time>2025-05-06T09:45:49Z</time>
      </trkpt>
      <trkpt lat="38.162264004349709" lon="-8.568604029715061">
        <ele>108.29000000000001</ele>
        <time>2025-05-06T09:45:50Z</time>
      </trkpt>
      <trkpt lat="38.160760039463639" lon="-8.570211008191109">
        <ele>113.56999999999999</ele>
        <time>2025-05-06T09:46:00Z</time>
      </trkpt>
      <trkpt lat="38.159812968224287" lon="-8.57133200392127">
        <ele>111.65000000000001</ele>
        <time>2025-05-06T09:46:07Z</time>
      </trkpt>
      <trkpt lat="38.158705970272422" lon="-8.573038978502154">
        <ele>109.73</ele>
        <time>2025-05-06T09:46:17Z</time>
      </trkpt>
      <trkpt lat="38.158606979995966" lon="-8.573217010125518">
        <ele>109.73</ele>
        <time>2025-05-06T09:46:18Z</time>
      </trkpt>
      <trkpt lat="38.158427020534873" lon="-8.573539964854717">
        <ele>109.73</ele>
        <time>2025-05-06T09:46:20Z</time>
      </trkpt>
      <trkpt lat="38.158298023045063" lon="-8.573643984273076">
        <ele>109.25</ele>
        <time>2025-05-06T09:46:21Z</time>
      </trkpt>
      <trkpt lat="38.158153016120195" lon="-8.573744986206293">
        <ele>109.25</ele>
        <time>2025-05-06T09:46:22Z</time>
      </trkpt>
      <trkpt lat="38.157878005877137" lon="-8.573957970365882">
        <ele>109.25</ele>
        <time>2025-05-06T09:46:24Z</time>
      </trkpt>
      <trkpt lat="38.157793013378978" lon="-8.574089985340834">
        <ele>109.25</ele>
        <time>2025-05-06T09:46:25Z</time>
      </trkpt>
      <trkpt lat="38.157738028094172" lon="-8.574233986437321">
        <ele>108.77</ele>
        <time>2025-05-06T09:46:26Z</time>
      </trkpt>
      <trkpt lat="38.157371990382671" lon="-8.575353976339102">
        <ele>109.73</ele>
        <time>2025-05-06T09:46:32Z</time>
      </trkpt>
      <trkpt lat="38.157263025641441" lon="-8.575539970770478">
        <ele>110.20999999999999</ele>
        <time>2025-05-06T09:46:33Z</time>
      </trkpt>
      <trkpt lat="38.157123969867826" lon="-8.575701992958784">
        <ele>110.20999999999999</ele>
        <time>2025-05-06T09:46:34Z</time>
      </trkpt>
      <trkpt lat="38.156032981351018" lon="-8.577125994488597">
        <ele>112.13</ele>
        <time>2025-05-06T09:46:42Z</time>
      </trkpt>
      <trkpt lat="38.155137961730361" lon="-8.578670024871826">
        <ele>115.98</ele>
        <time>2025-05-06T09:46:50Z</time>
      </trkpt>
      <trkpt lat="38.154997983947396" lon="-8.578988034278154">
        <ele>115.98</ele>
        <time>2025-05-06T09:46:52Z</time>
      </trkpt>
      <trkpt lat="38.154913997277617" lon="-8.579114014282823">
        <ele>116.45999999999999</ele>
        <time>2025-05-06T09:46:53Z</time>
      </trkpt>
      <trkpt lat="38.154808972030878" lon="-8.57919598929584">
        <ele>116.94</ele>
        <time>2025-05-06T09:46:54Z</time>
      </trkpt>
      <trkpt lat="38.154691960662603" lon="-8.579257009550929">
        <ele>117.42</ele>
        <time>2025-05-06T09:46:55Z</time>
      </trkpt>
      <trkpt lat="38.154560029506683" lon="-8.579290034249425">
        <ele>117.90000000000001</ele>
        <time>2025-05-06T09:46:56Z</time>
      </trkpt>
      <trkpt lat="38.154160967096686" lon="-8.579425988718867">
        <ele>119.34</ele>
        <time>2025-05-06T09:46:59Z</time>
      </trkpt>
      <trkpt lat="38.154048984870315" lon="-8.579537970945239">
        <ele>119.81999999999999</ele>
        <time>2025-05-06T09:47:00Z</time>
      </trkpt>
      <trkpt lat="38.152999989688396" lon="-8.580627031624317">
        <ele>122.22</ele>
        <time>2025-05-06T09:47:08Z</time>
      </trkpt>
      <trkpt lat="38.152358019724488" lon="-8.581405961886048">
        <ele>123.67</ele>
        <time>2025-05-06T09:47:13Z</time>
      </trkpt>
      <trkpt lat="38.151827026158571" lon="-8.582637012004852">
        <ele>124.63</ele>
        <time>2025-05-06T09:47:20Z</time>
      </trkpt>
      <trkpt lat="38.151741027832031" lon="-8.582746982574463">
        <ele>124.63</ele>
        <time>2025-05-06T09:47:21Z</time>
      </trkpt>
      <trkpt lat="38.151620998978615" lon="-8.582820994779468">
        <ele>125.11</ele>
        <time>2025-05-06T09:47:22Z</time>
      </trkpt>
      <trkpt lat="38.150742994621396" lon="-8.583362968638539">
        <ele>127.98999999999999</ele>
        <time>2025-05-06T09:47:28Z</time>
      </trkpt>
      <trkpt lat="38.150621959939599" lon="-8.583517028018832">
        <ele>128.47</ele>
        <time>2025-05-06T09:47:29Z</time>
      </trkpt>
      <trkpt lat="38.150380980223417" lon="-8.583796983584762">
        <ele>129.91999999999999</ele>
        <time>2025-05-06T09:47:31Z</time>
      </trkpt>
      <trkpt lat="38.150233961641788" lon="-8.58392002992332">
        <ele>130.40000000000001</ele>
        <time>2025-05-06T09:47:32Z</time>
      </trkpt>
      <trkpt lat="38.149042977020144" lon="-8.584558982402086">
        <ele>133.75999999999999</ele>
        <time>2025-05-06T09:47:39Z</time>
      </trkpt>
      <trkpt lat="38.148868968710303" lon="-8.584604999050498">
        <ele>134.72</ele>
        <time>2025-05-06T09:47:40Z</time>
      </trkpt>
      <trkpt lat="38.148359013721347" lon="-8.584739025682211">
        <ele>137.13</ele>
        <time>2025-05-06T09:47:43Z</time>
      </trkpt>
      <trkpt lat="38.148203026503325" lon="-8.58480398543179">
        <ele>137.61000000000001</ele>
        <time>2025-05-06T09:47:44Z</time>
      </trkpt>
      <trkpt lat="38.148064976558089" lon="-8.584894007071853">
        <ele>138.09</ele>
        <time>2025-05-06T09:47:45Z</time>
      </trkpt>
      <trkpt lat="38.147920975461602" lon="-8.584986962378025">
        <ele>138.56999999999999</ele>
        <time>2025-05-06T09:47:46Z</time>
      </trkpt>
      <trkpt lat="38.147794995456934" lon="-8.58512501232326">
        <ele>139.05000000000001</ele>
        <time>2025-05-06T09:47:47Z</time>
      </trkpt>
      <trkpt lat="38.147676978260279" lon="-8.585262978449464">
        <ele>138.56999999999999</ele>
        <time>2025-05-06T09:47:48Z</time>
      </trkpt>
      <trkpt lat="38.147564996033907" lon="-8.585394993424416">
        <ele>138.56999999999999</ele>
        <time>2025-05-06T09:47:49Z</time>
      </trkpt>
      <trkpt lat="38.147469023242593" lon="-8.585549974814057">
        <ele>138.56999999999999</ele>
        <time>2025-05-06T09:47:50Z</time>
      </trkpt>
      <trkpt lat="38.14737900160253" lon="-8.585710991173983">
        <ele>138.56999999999999</ele>
        <time>2025-05-06T09:47:51Z</time>
      </trkpt>
      <trkpt lat="38.14729300327599" lon="-8.585866978392005">
        <ele>138.56999999999999</ele>
        <time>2025-05-06T09:47:52Z</time>
      </trkpt>
      <trkpt lat="38.147213961929083" lon="-8.586008967831731">
        <ele>138.09</ele>
        <time>2025-05-06T09:47:53Z</time>
      </trkpt>
      <trkpt lat="38.147096028551459" lon="-8.5860900208354">
        <ele>138.09</ele>
        <time>2025-05-06T09:47:54Z</time>
      </trkpt>
      <trkpt lat="38.146965019404888" lon="-8.58617995865643">
        <ele>138.09</ele>
        <time>2025-05-06T09:47:55Z</time>
      </trkpt>
      <trkpt lat="38.146828981116414" lon="-8.586274003610015">
        <ele>138.56999999999999</ele>
        <time>2025-05-06T09:47:56Z</time>
      </trkpt>
      <trkpt lat="38.146087015047669" lon="-8.586761998012662">
        <ele>140.00999999999999</ele>
        <time>2025-05-06T09:48:01Z</time>
      </trkpt>
      <trkpt lat="38.145963968709111" lon="-8.586857970803976">
        <ele>140.49000000000001</ele>
        <time>2025-05-06T09:48:02Z</time>
      </trkpt>
      <trkpt lat="38.145862966775894" lon="-8.586986968293786">
        <ele>140.97</ele>
        <time>2025-05-06T09:48:03Z</time>
      </trkpt>
      <trkpt lat="38.145305989310145" lon="-8.587647965177894">
        <ele>144.81999999999999</ele>
        <time>2025-05-06T09:48:08Z</time>
      </trkpt>
      <trkpt lat="38.145174980163574" lon="-8.58776799403131">
        <ele>145.30000000000001</ele>
        <time>2025-05-06T09:48:09Z</time>
      </trkpt>
      <trkpt lat="38.145029973238707" lon="-8.587827002629638">
        <ele>146.25999999999999</ele>
        <time>2025-05-06T09:48:10Z</time>
      </trkpt>
      <trkpt lat="38.144717998802662" lon="-8.587953988462687">
        <ele>147.69999999999999</ele>
        <time>2025-05-06T09:48:12Z</time>
      </trkpt>
      <trkpt lat="38.144558994099498" lon="-8.588019032031298">
        <ele>148.66</ele>
        <time>2025-05-06T09:48:13Z</time>
      </trkpt>
      <trkpt lat="38.144414993003011" lon="-8.588117016479373">
        <ele>149.62</ele>
        <time>2025-05-06T09:48:14Z</time>
      </trkpt>
      <trkpt lat="38.144279960542917" lon="-8.588245008140802">
        <ele>150.09999999999999</ele>
        <time>2025-05-06T09:48:15Z</time>
      </trkpt>
      <trkpt lat="38.14415599219501" lon="-8.588364031165838">
        <ele>151.06</ele>
        <time>2025-05-06T09:48:16Z</time>
      </trkpt>
      <trkpt lat="38.144060019403696" lon="-8.588454974815249">
        <ele>152.03</ele>
        <time>2025-05-06T09:48:17Z</time>
      </trkpt>
      <trkpt lat="38.144030012190342" lon="-8.588585983961821">
        <ele>152.50999999999999</ele>
        <time>2025-05-06T09:48:18Z</time>
      </trkpt>
      <trkpt lat="38.14400402829051" lon="-8.588701989501715">
        <ele>152.99000000000001</ele>
        <time>2025-05-06T09:48:19Z</time>
      </trkpt>
      <trkpt lat="38.143977038562298" lon="-8.58882000669837">
        <ele>153.47</ele>
        <time>2025-05-06T09:48:20Z</time>
      </trkpt>
      <trkpt lat="38.14393999055028" lon="-8.58894900418818">
        <ele>153.94999999999999</ele>
        <time>2025-05-06T09:48:21Z</time>
      </trkpt>
      <trkpt lat="38.143868995830417" lon="-8.589076995849609">
        <ele>154.43000000000001</ele>
        <time>2025-05-06T09:48:22Z</time>
      </trkpt>
      <trkpt lat="38.143763970583677" lon="-8.589195013046265">
        <ele>154.91</ele>
        <time>2025-05-06T09:48:23Z</time>
      </trkpt>
      <trkpt lat="38.143643019720912" lon="-8.589306995272636">
        <ele>155.87</ele>
        <time>2025-05-06T09:48:24Z</time>
      </trkpt>
      <trkpt lat="38.143389970064163" lon="-8.589540012180805">
        <ele>157.31</ele>
        <time>2025-05-06T09:48:26Z</time>
      </trkpt>
      <trkpt lat="38.143249992281199" lon="-8.589641014114022">
        <ele>158.27000000000001</ele>
        <time>2025-05-06T09:48:27Z</time>
      </trkpt>
      <trkpt lat="38.143089981749654" lon="-8.589666998013854">
        <ele>158.75</ele>
        <time>2025-05-06T09:48:28Z</time>
      </trkpt>
      <trkpt lat="38.142917985096574" lon="-8.589694993570447">
        <ele>159.72</ele>
        <time>2025-05-06T09:48:29Z</time>
      </trkpt>
      <trkpt lat="38.142738025635481" lon="-8.589723994955421">
        <ele>160.68000000000001</ele>
        <time>2025-05-06T09:48:30Z</time>
      </trkpt>
      <trkpt lat="38.141200030222535" lon="-8.589924992993474">
        <ele>170.77000000000001</ele>
        <time>2025-05-06T09:48:38Z</time>
      </trkpt>
      <trkpt lat="38.140025977045298" lon="-8.590106964111328">
        <ele>175.09999999999999</ele>
        <time>2025-05-06T09:48:44Z</time>
      </trkpt>
      <trkpt lat="38.139864038676023" lon="-8.590182987973094">
        <ele>176.06</ele>
        <time>2025-05-06T09:48:45Z</time>
      </trkpt>
      <trkpt lat="38.138392008841038" lon="-8.590919002890587">
        <ele>177.97999999999999</ele>
        <time>2025-05-06T09:48:53Z</time>
      </trkpt>
      <trkpt lat="38.13809797167778" lon="-8.591158976778388">
        <ele>177.97999999999999</ele>
        <time>2025-05-06T09:48:55Z</time>
      </trkpt>
      <trkpt lat="38.137314012274146" lon="-8.591899015009403">
        <ele>180.87</ele>
        <time>2025-05-06T09:49:01Z</time>
      </trkpt>
      <trkpt lat="38.137229019775987" lon="-8.591923993080854">
        <ele>181.83000000000001</ele>
        <time>2025-05-06T09:49:02Z</time>
      </trkpt>
      <trkpt lat="38.137125000357628" lon="-8.591900020837784">
        <ele>182.78999999999999</ele>
        <time>2025-05-06T09:49:03Z</time>
      </trkpt>
      <trkpt lat="38.13670196570456" lon="-8.591802958399057">
        <ele>185.19</ele>
        <time>2025-05-06T09:49:06Z</time>
      </trkpt>
      <trkpt lat="38.136528041213751" lon="-8.591802036389709">
        <ele>186.15000000000001</ele>
        <time>2025-05-06T09:49:07Z</time>
      </trkpt>
      <trkpt lat="38.135120971128345" lon="-8.591802036389709">
        <ele>190.47999999999999</ele>
        <time>2025-05-06T09:49:15Z</time>
      </trkpt>
      <trkpt lat="38.134457962587476" lon="-8.591774962842464">
        <ele>188.56</ele>
        <time>2025-05-06T09:49:21Z</time>
      </trkpt>
      <trkpt lat="38.134147999808192" lon="-8.591761970892549">
        <ele>186.15000000000001</ele>
        <time>2025-05-06T09:49:29Z</time>
      </trkpt>
      <trkpt lat="38.133976003155112" lon="-8.591773035004735">
        <ele>185.66999999999999</ele>
        <time>2025-05-06T09:49:40Z</time>
      </trkpt>
      <trkpt lat="38.133910037577152" lon="-8.591782003641129">
        <ele>185.66999999999999</ele>
        <time>2025-05-06T09:49:57Z</time>
      </trkpt>
      <trkpt lat="38.133543999865651" lon="-8.591852998360992">
        <ele>187.11000000000001</ele>
        <time>2025-05-06T09:50:08Z</time>
      </trkpt>
      <trkpt lat="38.133329004049301" lon="-8.592061959207058">
        <ele>189.03999999999999</ele>
        <time>2025-05-06T09:50:15Z</time>
      </trkpt>
      <trkpt lat="38.133298996835947" lon="-8.592113004997373">
        <ele>189.03999999999999</ele>
        <time>2025-05-06T09:50:16Z</time>
      </trkpt>
      <trkpt lat="38.133203024044633" lon="-8.592405030503869">
        <ele>189.03999999999999</ele>
        <time>2025-05-06T09:50:19Z</time>
      </trkpt>
      <trkpt lat="38.133178967982531" lon="-8.592567974701524">
        <ele>189.03999999999999</ele>
        <time>2025-05-06T09:50:20Z</time>
      </trkpt>
      <trkpt lat="38.13317502848804" lon="-8.59275296330452">
        <ele>188.56</ele>
        <time>2025-05-06T09:50:21Z</time>
      </trkpt>
      <trkpt lat="38.133171005174518" lon="-8.592957984656096">
        <ele>188.08000000000001</ele>
        <time>2025-05-06T09:50:22Z</time>
      </trkpt>
      <trkpt lat="38.133165976032615" lon="-8.59318002127111">
        <ele>187.11000000000001</ele>
        <time>2025-05-06T09:50:23Z</time>
      </trkpt>
      <trkpt lat="38.133162036538124" lon="-8.593402979895473">
        <ele>186.63</ele>
        <time>2025-05-06T09:50:24Z</time>
      </trkpt>
      <trkpt lat="38.133135968819261" lon="-8.593602972105146">
        <ele>186.63</ele>
        <time>2025-05-06T09:50:25Z</time>
      </trkpt>
      <trkpt lat="38.1330890301615" lon="-8.593768011778593">
        <ele>185.66999999999999</ele>
        <time>2025-05-06T09:50:26Z</time>
      </trkpt>
      <trkpt lat="38.133051982149482" lon="-8.593902960419655">
        <ele>185.66999999999999</ele>
        <time>2025-05-06T09:50:27Z</time>
      </trkpt>
      <trkpt lat="38.133018035441637" lon="-8.594022989273071">
        <ele>185.66999999999999</ele>
        <time>2025-05-06T09:50:28Z</time>
      </trkpt>
      <trkpt lat="38.132858024910092" lon="-8.594607040286064">
        <ele>186.15000000000001</ele>
        <time>2025-05-06T09:50:33Z</time>
      </trkpt>
      <trkpt lat="38.132845032960176" lon="-8.594760010018945">
        <ele>186.63</ele>
        <time>2025-05-06T09:50:34Z</time>
      </trkpt>
      <trkpt lat="38.132674964144826" lon="-8.596140006557107">
        <ele>189.52000000000001</ele>
        <time>2025-05-06T09:50:41Z</time>
      </trkpt>
      <trkpt lat="38.132179006934166" lon="-8.597856033593416">
        <ele>196.25</ele>
        <time>2025-05-06T09:50:49Z</time>
      </trkpt>
      <trkpt lat="38.132108012214303" lon="-8.598111011087894">
        <ele>198.16999999999999</ele>
        <time>2025-05-06T09:50:51Z</time>
      </trkpt>
      <trkpt lat="38.132004998624325" lon="-8.598213018849492">
        <ele>199.61000000000001</ele>
        <time>2025-05-06T09:50:52Z</time>
      </trkpt>
      <trkpt lat="38.131914976984262" lon="-8.598303962498903">
        <ele>200.56999999999999</ele>
        <time>2025-05-06T09:50:53Z</time>
      </trkpt>
      <trkpt lat="38.131829984486103" lon="-8.598297005519271">
        <ele>202.00999999999999</ele>
        <time>2025-05-06T09:50:54Z</time>
      </trkpt>
      <trkpt lat="38.131705010309815" lon="-8.598288036882877">
        <ele>202.97999999999999</ele>
        <time>2025-05-06T09:50:55Z</time>
      </trkpt>
      <trkpt lat="38.131562015041709" lon="-8.598276972770691">
        <ele>203.94</ele>
        <time>2025-05-06T09:50:56Z</time>
      </trkpt>
      <trkpt lat="38.131256997585297" lon="-8.59825300052762">
        <ele>205.86000000000001</ele>
        <time>2025-05-06T09:50:58Z</time>
      </trkpt>
      <trkpt lat="38.131077960133553" lon="-8.598240008577704">
        <ele>206.81999999999999</ele>
        <time>2025-05-06T09:50:59Z</time>
      </trkpt>
      <trkpt lat="38.130933037027717" lon="-8.598293988034129">
        <ele>207.78</ele>
        <time>2025-05-06T09:51:00Z</time>
      </trkpt>
      <trkpt lat="38.13076900318265" lon="-8.598357019945979">
        <ele>209.22</ele>
        <time>2025-05-06T09:51:01Z</time>
      </trkpt>
      <trkpt lat="38.130594994872808" lon="-8.598421979695559">
        <ele>210.19</ele>
        <time>2025-05-06T09:51:02Z</time>
      </trkpt>
      <trkpt lat="38.129003020003438" lon="-8.599008964374661">
        <ele>219.31999999999999</ele>
        <time>2025-05-06T09:51:11Z</time>
      </trkpt>
      <trkpt lat="38.128860024735332" lon="-8.598996978253126">
        <ele>220.28</ele>
        <time>2025-05-06T09:51:12Z</time>
      </trkpt>
      <trkpt lat="38.128719963133335" lon="-8.598964959383011">
        <ele>221.24000000000001</ele>
        <time>2025-05-06T09:51:13Z</time>
      </trkpt>
      <trkpt lat="38.127502994611859" lon="-8.59853102825582">
        <ele>227.00999999999999</ele>
        <time>2025-05-06T09:51:20Z</time>
      </trkpt>
      <trkpt lat="38.126529017463326" lon="-8.598389960825443">
        <ele>231.81</ele>
        <time>2025-05-06T09:51:26Z</time>
      </trkpt>
      <trkpt lat="38.126384010538459" lon="-8.598437989130616">
        <ele>232.78</ele>
        <time>2025-05-06T09:51:27Z</time>
      </trkpt>
      <trkpt lat="38.126335982233286" lon="-8.598453998565674">
        <ele>233.74000000000001</ele>
        <time>2025-05-06T09:51:28Z</time>
      </trkpt>
      <trkpt lat="38.126231962814927" lon="-8.598579978570342">
        <ele>234.69999999999999</ele>
        <time>2025-05-06T09:51:29Z</time>
      </trkpt>
      <trkpt lat="38.126139007508755" lon="-8.598692966625094">
        <ele>235.18000000000001</ele>
        <time>2025-05-06T09:51:30Z</time>
      </trkpt>
      <trkpt lat="38.126035993918777" lon="-8.598818024620414">
        <ele>235.66</ele>
        <time>2025-05-06T09:51:31Z</time>
      </trkpt>
      <trkpt lat="38.124841991811991" lon="-8.600246971473098">
        <ele>240.94999999999999</ele>
        <time>2025-05-06T09:51:41Z</time>
      </trkpt>
      <trkpt lat="38.123609013855457" lon="-8.601771974936128">
        <ele>247.68000000000001</ele>
        <time>2025-05-06T09:51:50Z</time>
      </trkpt>
      <trkpt lat="38.122987998649478" lon="-8.602540008723736">
        <ele>253.93000000000001</ele>
        <time>2025-05-06T09:51:57Z</time>
      </trkpt>
      <trkpt lat="38.122093984857202" lon="-8.603619011119008">
        <ele>261.13999999999999</ele>
        <time>2025-05-06T09:52:08Z</time>
      </trkpt>
      <trkpt lat="38.121155966073275" lon="-8.604438006877899">
        <ele>257.29000000000002</ele>
        <time>2025-05-06T09:52:17Z</time>
      </trkpt>
      <trkpt lat="38.121028980240226" lon="-8.60446298494935">
        <ele>256.32999999999998</ele>
        <time>2025-05-06T09:52:18Z</time>
      </trkpt>
      <trkpt lat="38.120878022164106" lon="-8.604466002434492">
        <ele>255.37</ele>
        <time>2025-05-06T09:52:19Z</time>
      </trkpt>
      <trkpt lat="38.119414960965514" lon="-8.604527022689581">
        <ele>251.52000000000001</ele>
        <time>2025-05-06T09:52:27Z</time>
      </trkpt>
      <trkpt lat="38.11906099319458" lon="-8.604570021852851">
        <ele>252</ele>
        <time>2025-05-06T09:52:29Z</time>
      </trkpt>
      <trkpt lat="38.118893019855022" lon="-8.604658031836152">
        <ele>252.47999999999999</ele>
        <time>2025-05-06T09:52:30Z</time>
      </trkpt>
      <trkpt lat="38.117326023057103" lon="-8.605517009273171">
        <ele>257.76999999999998</ele>
        <time>2025-05-06T09:52:38Z</time>
      </trkpt>
      <trkpt lat="38.117155032232404" lon="-8.605612982064486">
        <ele>258.73000000000002</ele>
        <time>2025-05-06T09:52:39Z</time>
      </trkpt>
      <trkpt lat="38.117022011429071" lon="-8.605727981775999">
        <ele>259.20999999999998</ele>
        <time>2025-05-06T09:52:40Z</time>
      </trkpt>
      <trkpt lat="38.116920003667474" lon="-8.605876006186009">
        <ele>259.69</ele>
        <time>2025-05-06T09:52:41Z</time>
      </trkpt>
      <trkpt lat="38.116221958771348" lon="-8.6068020388484">
        <ele>259.69</ele>
        <time>2025-05-06T09:52:46Z</time>
      </trkpt>
      <trkpt lat="38.115661041811109" lon="-8.607372008264065">
        <ele>257.29000000000002</ele>
        <time>2025-05-06T09:52:50Z</time>
      </trkpt>
      <trkpt lat="38.115511005744338" lon="-8.607458006590605">
        <ele>256.81</ele>
        <time>2025-05-06T09:52:51Z</time>
      </trkpt>
      <trkpt lat="38.114249026402831" lon="-8.608041973784566">
        <ele>250.08000000000001</ele>
        <time>2025-05-06T09:52:58Z</time>
      </trkpt>
      <trkpt lat="38.114096978679299" lon="-8.608186980709434">
        <ele>249.59999999999999</ele>
        <time>2025-05-06T09:52:59Z</time>
      </trkpt>
      <trkpt lat="38.113422989845276" lon="-8.609054004773498">
        <ele>248.63999999999999</ele>
        <time>2025-05-06T09:53:04Z</time>
      </trkpt>
      <trkpt lat="38.113340009003878" lon="-8.609257014468312">
        <ele>248.63999999999999</ele>
        <time>2025-05-06T09:53:05Z</time>
      </trkpt>
      <trkpt lat="38.112948993220925" lon="-8.610782017931342">
        <ele>248.63999999999999</ele>
        <time>2025-05-06T09:53:12Z</time>
      </trkpt>
      <trkpt lat="38.112908005714417" lon="-8.610905986279249">
        <ele>248.63999999999999</ele>
        <time>2025-05-06T09:53:13Z</time>
      </trkpt>
      <trkpt lat="38.112839022651315" lon="-8.610996007919312">
        <ele>248.63999999999999</ele>
        <time>2025-05-06T09:53:14Z</time>
      </trkpt>
      <trkpt lat="38.112735003232956" lon="-8.611044958233833">
        <ele>248.16</ele>
        <time>2025-05-06T09:53:15Z</time>
      </trkpt>
      <trkpt lat="38.112612962722778" lon="-8.611102038994432">
        <ele>248.16</ele>
        <time>2025-05-06T09:53:16Z</time>
      </trkpt>
      <trkpt lat="38.112487988546491" lon="-8.611161969602108">
        <ele>247.19999999999999</ele>
        <time>2025-05-06T09:53:17Z</time>
      </trkpt>
      <trkpt lat="38.112398972734809" lon="-8.611252997070551">
        <ele>246.72</ele>
        <time>2025-05-06T09:53:18Z</time>
      </trkpt>
      <trkpt lat="38.112343987450004" lon="-8.611345030367374">
        <ele>246.22999999999999</ele>
        <time>2025-05-06T09:53:19Z</time>
      </trkpt>
      <trkpt lat="38.112334012985229" lon="-8.611479979008436">
        <ele>245.27000000000001</ele>
        <time>2025-05-06T09:53:20Z</time>
      </trkpt>
      <trkpt lat="38.112323032692075" lon="-8.611631020903587">
        <ele>244.78999999999999</ele>
        <time>2025-05-06T09:53:21Z</time>
      </trkpt>
      <trkpt lat="38.112310962751508" lon="-8.611792959272862">
        <ele>244.31</ele>
        <time>2025-05-06T09:53:22Z</time>
      </trkpt>
      <trkpt lat="38.112254971638322" lon="-8.61225999891758">
        <ele>242.87</ele>
        <time>2025-05-06T09:53:25Z</time>
      </trkpt>
      <trkpt lat="38.112195041030645" lon="-8.612379021942616">
        <ele>241.91</ele>
        <time>2025-05-06T09:53:26Z</time>
      </trkpt>
      <trkpt lat="38.112133014947176" lon="-8.612505001947284">
        <ele>241.43000000000001</ele>
        <time>2025-05-06T09:53:27Z</time>
      </trkpt>
      <trkpt lat="38.11207601800561" lon="-8.612645985558629">
        <ele>240.94999999999999</ele>
        <time>2025-05-06T09:53:28Z</time>
      </trkpt>
      <trkpt lat="38.112045004963875" lon="-8.612787974998355">
        <ele>240.47</ele>
        <time>2025-05-06T09:53:29Z</time>
      </trkpt>
      <trkpt lat="38.112064031884074" lon="-8.612941028550267">
        <ele>239.99000000000001</ele>
        <time>2025-05-06T09:53:30Z</time>
      </trkpt>
      <trkpt lat="38.112084986642003" lon="-8.613109001889825">
        <ele>239.99000000000001</ele>
        <time>2025-05-06T09:53:31Z</time>
      </trkpt>
      <trkpt lat="38.112108036875725" lon="-8.61329197883606">
        <ele>239.50999999999999</ele>
        <time>2025-05-06T09:53:32Z</time>
      </trkpt>
      <trkpt lat="38.1122060213238" lon="-8.614026987925172">
        <ele>238.53999999999999</ele>
        <time>2025-05-06T09:53:36Z</time>
      </trkpt>
      <trkpt lat="38.11218498274684" lon="-8.614183980971575">
        <ele>238.06</ele>
        <time>2025-05-06T09:53:37Z</time>
      </trkpt>
      <trkpt lat="38.112138966098428" lon="-8.614313984289765">
        <ele>237.58000000000001</ele>
        <time>2025-05-06T09:53:38Z</time>
      </trkpt>
      <trkpt lat="38.112074006348848" lon="-8.614438036456704">
        <ele>236.62</ele>
        <time>2025-05-06T09:53:39Z</time>
      </trkpt>
      <trkpt lat="38.111973004415631" lon="-8.614555969834328">
        <ele>235.66</ele>
        <time>2025-05-06T09:53:40Z</time>
      </trkpt>
      <trkpt lat="38.11186202801764" lon="-8.614685973152518">
        <ele>234.69999999999999</ele>
        <time>2025-05-06T09:53:41Z</time>
      </trkpt>
      <trkpt lat="38.111490039154887" lon="-8.615060979500413">
        <ele>231.81</ele>
        <time>2025-05-06T09:53:44Z</time>
      </trkpt>
      <trkpt lat="38.111351989209652" lon="-8.615145971998572">
        <ele>230.37</ele>
        <time>2025-05-06T09:53:45Z</time>
      </trkpt>
      <trkpt lat="38.111231038346887" lon="-8.615219984203577">
        <ele>229.41</ele>
        <time>2025-05-06T09:53:46Z</time>
      </trkpt>
      <trkpt lat="38.11113297007978" lon="-8.615233981981874">
        <ele>228.44999999999999</ele>
        <time>2025-05-06T09:53:47Z</time>
      </trkpt>
      <trkpt lat="38.111035991460085" lon="-8.615233981981874">
        <ele>227.49000000000001</ele>
        <time>2025-05-06T09:53:48Z</time>
      </trkpt>
      <trkpt lat="38.110957033932209" lon="-8.615180002525449">
        <ele>226.53</ele>
        <time>2025-05-06T09:53:49Z</time>
      </trkpt>
      <trkpt lat="38.110862988978624" lon="-8.615115964785218">
        <ele>225.56999999999999</ele>
        <time>2025-05-06T09:53:50Z</time>
      </trkpt>
      <trkpt lat="38.110771039500833" lon="-8.6150530166924">
        <ele>225.09</ele>
        <time>2025-05-06T09:53:51Z</time>
      </trkpt>
      <trkpt lat="38.110676994547248" lon="-8.614987973123789">
        <ele>223.63999999999999</ele>
        <time>2025-05-06T09:53:52Z</time>
      </trkpt>
      <trkpt lat="38.110579010099173" lon="-8.614962995052338">
        <ele>222.68000000000001</ele>
        <time>2025-05-06T09:53:53Z</time>
      </trkpt>
      <trkpt lat="38.110480019822717" lon="-8.614977998659015">
        <ele>222.19999999999999</ele>
        <time>2025-05-06T09:53:54Z</time>
      </trkpt>
      <trkpt lat="38.110370971262455" lon="-8.614996019750834">
        <ele>221.24000000000001</ele>
        <time>2025-05-06T09:53:55Z</time>
      </trkpt>
      <trkpt lat="38.11025395989418" lon="-8.615014040842652">
        <ele>220.75999999999999</ele>
        <time>2025-05-06T09:53:56Z</time>
      </trkpt>
      <trkpt lat="38.110137032344937" lon="-8.615008005872369">
        <ele>219.80000000000001</ele>
        <time>2025-05-06T09:53:57Z</time>
      </trkpt>
      <trkpt lat="38.110025972127914" lon="-8.614972969517112">
        <ele>218.36000000000001</ele>
        <time>2025-05-06T09:53:58Z</time>
      </trkpt>
      <trkpt lat="38.109920024871826" lon="-8.614912033081055">
        <ele>217.88</ele>
        <time>2025-05-06T09:53:59Z</time>
      </trkpt>
      <trkpt lat="38.109835032373667" lon="-8.614812958985567">
        <ele>216.91</ele>
        <time>2025-05-06T09:54:00Z</time>
      </trkpt>
      <trkpt lat="38.109740987420082" lon="-8.614701982587576">
        <ele>215.94999999999999</ele>
        <time>2025-05-06T09:54:01Z</time>
      </trkpt>
      <trkpt lat="38.109663035720587" lon="-8.614611960947514">
        <ele>214.99000000000001</ele>
        <time>2025-05-06T09:54:02Z</time>
      </trkpt>
      <trkpt lat="38.109528003260493" lon="-8.614543983712792">
        <ele>214.03</ele>
        <time>2025-05-06T09:54:03Z</time>
      </trkpt>
      <trkpt lat="38.10941300354898" lon="-8.614510037004948">
        <ele>213.06999999999999</ele>
        <time>2025-05-06T09:54:04Z</time>
      </trkpt>
      <trkpt lat="38.109303032979369" lon="-8.614544989541173">
        <ele>212.59</ele>
        <time>2025-05-06T09:54:05Z</time>
      </trkpt>
      <trkpt lat="38.109212005510926" lon="-8.614590000361204">
        <ele>212.11000000000001</ele>
        <time>2025-05-06T09:54:06Z</time>
      </trkpt>
      <trkpt lat="38.109132964164019" lon="-8.614710029214621">
        <ele>211.63</ele>
        <time>2025-05-06T09:54:07Z</time>
      </trkpt>
      <trkpt lat="38.109079990535975" lon="-8.614821005612612">
        <ele>210.66999999999999</ele>
        <time>2025-05-06T09:54:08Z</time>
      </trkpt>
      <trkpt lat="38.109065992757678" lon="-8.614972969517112">
        <ele>210.19</ele>
        <time>2025-05-06T09:54:09Z</time>
      </trkpt>
      <trkpt lat="38.109087031334639" lon="-8.615115964785218">
        <ele>210.19</ele>
        <time>2025-05-06T09:54:10Z</time>
      </trkpt>
      <trkpt lat="38.109130030497909" lon="-8.615282010287046">
        <ele>209.69999999999999</ele>
        <time>2025-05-06T09:54:11Z</time>
      </trkpt>
      <trkpt lat="38.109179986640811" lon="-8.615471022203565">
        <ele>209.69999999999999</ele>
        <time>2025-05-06T09:54:12Z</time>
      </trkpt>
      <trkpt lat="38.109232038259506" lon="-8.61567503772676">
        <ele>209.69999999999999</ele>
        <time>2025-05-06T09:54:13Z</time>
      </trkpt>
      <trkpt lat="38.10928501188755" lon="-8.615876035764813">
        <ele>209.69999999999999</ele>
        <time>2025-05-06T09:54:14Z</time>
      </trkpt>
      <trkpt lat="38.109361035749316" lon="-8.616554969921708">
        <ele>208.74000000000001</ele>
        <time>2025-05-06T09:54:18Z</time>
      </trkpt>
      <trkpt lat="38.109331028535962" lon="-8.616658989340067">
        <ele>208.74000000000001</ele>
        <time>2025-05-06T09:54:19Z</time>
      </trkpt>
      <trkpt lat="38.109290963038802" lon="-8.61675001680851">
        <ele>208.74000000000001</ele>
        <time>2025-05-06T09:54:20Z</time>
      </trkpt>
      <trkpt lat="38.109247041866183" lon="-8.616849007084966">
        <ele>208.25999999999999</ele>
        <time>2025-05-06T09:54:21Z</time>
      </trkpt>
      <trkpt lat="38.109208988025784" lon="-8.616961995139718">
        <ele>207.78</ele>
        <time>2025-05-06T09:54:22Z</time>
      </trkpt>
      <trkpt lat="38.109193984419107" lon="-8.617091998457909">
        <ele>207.30000000000001</ele>
        <time>2025-05-06T09:54:23Z</time>
      </trkpt>
      <trkpt lat="38.10921804048121" lon="-8.617214038968086">
        <ele>207.30000000000001</ele>
        <time>2025-05-06T09:54:24Z</time>
      </trkpt>
      <trkpt lat="38.109247963875532" lon="-8.617316968739033">
        <ele>206.81999999999999</ele>
        <time>2025-05-06T09:54:25Z</time>
      </trkpt>
      <trkpt lat="38.10930697247386" lon="-8.617515033110976">
        <ele>206.81999999999999</ele>
        <time>2025-05-06T09:54:27Z</time>
      </trkpt>
      <trkpt lat="38.109335973858833" lon="-8.617613017559052">
        <ele>206.34</ele>
        <time>2025-05-06T09:54:28Z</time>
      </trkpt>
      <trkpt lat="38.109352989122272" lon="-8.617732040584087">
        <ele>206.34</ele>
        <time>2025-05-06T09:54:29Z</time>
      </trkpt>
      <trkpt lat="38.109318036586046" lon="-8.617843016982079">
        <ele>206.34</ele>
        <time>2025-05-06T09:54:30Z</time>
      </trkpt>
      <trkpt lat="38.109278976917267" lon="-8.617967991158366">
        <ele>206.34</ele>
        <time>2025-05-06T09:54:31Z</time>
      </trkpt>
      <trkpt lat="38.109131958335638" lon="-8.61831801943481">
        <ele>206.34</ele>
        <time>2025-05-06T09:54:34Z</time>
      </trkpt>
      <trkpt lat="38.109084013849497" lon="-8.61842698417604">
        <ele>206.34</ele>
        <time>2025-05-06T09:54:35Z</time>
      </trkpt>
      <trkpt lat="38.109014024958014" lon="-8.618499990552664">
        <ele>205.86000000000001</ele>
        <time>2025-05-06T09:54:36Z</time>
      </trkpt>
      <trkpt lat="38.108927020803094" lon="-8.618548018857837">
        <ele>205.38</ele>
        <time>2025-05-06T09:54:37Z</time>
      </trkpt>
      <trkpt lat="38.108838004991412" lon="-8.618595963343978">
        <ele>204.90000000000001</ele>
        <time>2025-05-06T09:54:38Z</time>
      </trkpt>
      <trkpt lat="38.108743960037827" lon="-8.618593029677868">
        <ele>203.94</ele>
        <time>2025-05-06T09:54:39Z</time>
      </trkpt>
      <trkpt lat="38.108654022216797" lon="-8.618580959737301">
        <ele>203.46000000000001</ele>
        <time>2025-05-06T09:54:40Z</time>
      </trkpt>
      <trkpt lat="38.108569029718637" lon="-8.618495967239142">
        <ele>202.49000000000001</ele>
        <time>2025-05-06T09:54:41Z</time>
      </trkpt>
      <trkpt lat="38.108475990593433" lon="-8.618403011932969">
        <ele>202.00999999999999</ele>
        <time>2025-05-06T09:54:42Z</time>
      </trkpt>
      <trkpt lat="38.10838202945888" lon="-8.618308966979384">
        <ele>201.05000000000001</ele>
        <time>2025-05-06T09:54:43Z</time>
      </trkpt>
      <trkpt lat="38.108121016994119" lon="-8.618051977828145">
        <ele>198.16999999999999</ele>
        <time>2025-05-06T09:54:46Z</time>
      </trkpt>
      <trkpt lat="38.107937034219503" lon="-8.6179109942168">
        <ele>196.25</ele>
        <time>2025-05-06T09:54:48Z</time>
      </trkpt>
      <trkpt lat="38.107285005971789" lon="-8.617593990638852">
        <ele>190.96000000000001</ele>
        <time>2025-05-06T09:54:54Z</time>
      </trkpt>
      <trkpt lat="38.107196995988488" lon="-8.617593990638852">
        <ele>190</ele>
        <time>2025-05-06T09:54:55Z</time>
      </trkpt>
      <trkpt lat="38.107110997661948" lon="-8.617593990638852">
        <ele>189.52000000000001</ele>
        <time>2025-05-06T09:54:56Z</time>
      </trkpt>
      <trkpt lat="38.107029022648931" lon="-8.617620980367065">
        <ele>188.56</ele>
        <time>2025-05-06T09:54:57Z</time>
      </trkpt>
      <trkpt lat="38.106954004615545" lon="-8.61767403781414">
        <ele>188.08000000000001</ele>
        <time>2025-05-06T09:54:58Z</time>
      </trkpt>
      <trkpt lat="38.10689901933074" lon="-8.617736985906959">
        <ele>187.11000000000001</ele>
        <time>2025-05-06T09:54:59Z</time>
      </trkpt>
      <trkpt lat="38.10685602016747" lon="-8.617822984233499">
        <ele>186.63</ele>
        <time>2025-05-06T09:55:00Z</time>
      </trkpt>
      <trkpt lat="38.106824001297355" lon="-8.617935972288251">
        <ele>186.15000000000001</ele>
        <time>2025-05-06T09:55:01Z</time>
      </trkpt>
      <trkpt lat="38.106808997690678" lon="-8.618072010576725">
        <ele>185.66999999999999</ele>
        <time>2025-05-06T09:55:02Z</time>
      </trkpt>
      <trkpt lat="38.106791982427239" lon="-8.618222968652844">
        <ele>185.66999999999999</ele>
        <time>2025-05-06T09:55:03Z</time>
      </trkpt>
      <trkpt lat="38.106810003519058" lon="-8.618369987234473">
        <ele>185.19</ele>
        <time>2025-05-06T09:55:04Z</time>
      </trkpt>
      <trkpt lat="38.106837999075651" lon="-8.618509965017438">
        <ele>185.19</ele>
        <time>2025-05-06T09:55:05Z</time>
      </trkpt>
      <trkpt lat="38.106865994632244" lon="-8.618650026619434">
        <ele>185.19</ele>
        <time>2025-05-06T09:55:06Z</time>
      </trkpt>
      <trkpt lat="38.106916034594178" lon="-8.61892101354897">
        <ele>186.15000000000001</ele>
        <time>2025-05-06T09:55:08Z</time>
      </trkpt>
      <trkpt lat="38.106908993795514" lon="-8.619055962190032">
        <ele>186.15000000000001</ele>
        <time>2025-05-06T09:55:09Z</time>
      </trkpt>
      <trkpt lat="38.106902958825231" lon="-8.619188982993364">
        <ele>186.63</ele>
        <time>2025-05-06T09:55:10Z</time>
      </trkpt>
      <trkpt lat="38.106897007673979" lon="-8.619312029331923">
        <ele>186.63</ele>
        <time>2025-05-06T09:55:11Z</time>
      </trkpt>
      <trkpt lat="38.106860965490341" lon="-8.619400961324573">
        <ele>187.11000000000001</ele>
        <time>2025-05-06T09:55:12Z</time>
      </trkpt>
      <trkpt lat="38.106800029054284" lon="-8.619484025985003">
        <ele>187.59</ele>
        <time>2025-05-06T09:55:13Z</time>
      </trkpt>
      <trkpt lat="38.106722999364138" lon="-8.619589973241091">
        <ele>188.08000000000001</ele>
        <time>2025-05-06T09:55:14Z</time>
      </trkpt>
      <trkpt lat="38.106644041836262" lon="-8.619634984061122">
        <ele>188.56</ele>
        <time>2025-05-06T09:55:15Z</time>
      </trkpt>
      <trkpt lat="38.106543039903045" lon="-8.619691981002688">
        <ele>189.03999999999999</ele>
        <time>2025-05-06T09:55:16Z</time>
      </trkpt>
      <trkpt lat="38.106242967769504" lon="-8.619860960170627">
        <ele>190.96000000000001</ele>
        <time>2025-05-06T09:55:19Z</time>
      </trkpt>
      <trkpt lat="38.106158981099725" lon="-8.619960034266114">
        <ele>191.44</ele>
        <time>2025-05-06T09:55:20Z</time>
      </trkpt>
      <trkpt lat="38.106057979166508" lon="-8.620089031755924">
        <ele>191.91999999999999</ele>
        <time>2025-05-06T09:55:21Z</time>
      </trkpt>
      <trkpt lat="38.105943985283375" lon="-8.620235966518521">
        <ele>192.88</ele>
        <time>2025-05-06T09:55:22Z</time>
      </trkpt>
      <trkpt lat="38.10582404024899" lon="-8.620408968999982">
        <ele>193.84</ele>
        <time>2025-05-06T09:55:23Z</time>
      </trkpt>
      <trkpt lat="38.105113003402948" lon="-8.621395016089082">
        <ele>197.21000000000001</ele>
        <time>2025-05-06T09:55:28Z</time>
      </trkpt>
      <trkpt lat="38.105003032833338" lon="-8.621592996641994">
        <ele>198.16999999999999</ele>
        <time>2025-05-06T09:55:29Z</time>
      </trkpt>
      <trkpt lat="38.104893984273076" lon="-8.621796006336808">
        <ele>199.13</ele>
        <time>2025-05-06T09:55:30Z</time>
      </trkpt>
      <trkpt lat="38.104827012866735" lon="-8.622019970789552">
        <ele>199.61000000000001</ele>
        <time>2025-05-06T09:55:31Z</time>
      </trkpt>
      <trkpt lat="38.104763980954885" lon="-8.622244019061327">
        <ele>200.56999999999999</ele>
        <time>2025-05-06T09:55:32Z</time>
      </trkpt>
      <trkpt lat="38.104722993448377" lon="-8.622475024312735">
        <ele>201.53</ele>
        <time>2025-05-06T09:55:33Z</time>
      </trkpt>
      <trkpt lat="38.1045560259372" lon="-8.623418994247913">
        <ele>204.90000000000001</ele>
        <time>2025-05-06T09:55:37Z</time>
      </trkpt>
      <trkpt lat="38.104538004845381" lon="-8.623645976185799">
        <ele>205.86000000000001</ele>
        <time>2025-05-06T09:55:38Z</time>
      </trkpt>
      <trkpt lat="38.104624003171921" lon="-8.624382996931672">
        <ele>208.25999999999999</ele>
        <time>2025-05-06T09:55:42Z</time>
      </trkpt>
      <trkpt lat="38.104755012318492" lon="-8.624856993556023">
        <ele>210.19</ele>
        <time>2025-05-06T09:55:45Z</time>
      </trkpt>
      <trkpt lat="38.104760041460395" lon="-8.625009041279554">
        <ele>211.15000000000001</ele>
        <time>2025-05-06T09:55:46Z</time>
      </trkpt>
      <trkpt lat="38.104733973741531" lon="-8.625164022669196">
        <ele>211.63</ele>
        <time>2025-05-06T09:55:47Z</time>
      </trkpt>
      <trkpt lat="38.104692986235023" lon="-8.625329984351993">
        <ele>212.59</ele>
        <time>2025-05-06T09:55:48Z</time>
      </trkpt>
      <trkpt lat="38.104650992900133" lon="-8.625497035682201">
        <ele>213.55000000000001</ele>
        <time>2025-05-06T09:55:49Z</time>
      </trkpt>
      <trkpt lat="38.104627020657063" lon="-8.625659979879856">
        <ele>214.50999999999999</ele>
        <time>2025-05-06T09:55:50Z</time>
      </trkpt>
      <trkpt lat="38.104653004556894" lon="-8.625816972926259">
        <ele>215.47</ele>
        <time>2025-05-06T09:55:51Z</time>
      </trkpt>
      <trkpt lat="38.104678988456726" lon="-8.625971032306552">
        <ele>215.94999999999999</ele>
        <time>2025-05-06T09:55:52Z</time>
      </trkpt>
      <trkpt lat="38.104702960699797" lon="-8.62611603923142">
        <ele>216.91</ele>
        <time>2025-05-06T09:55:53Z</time>
      </trkpt>
      <trkpt lat="38.104683011770248" lon="-8.626259034499526">
        <ele>217.88</ele>
        <time>2025-05-06T09:55:54Z</time>
      </trkpt>
      <trkpt lat="38.104655016213655" lon="-8.626407980918884">
        <ele>218.36000000000001</ele>
        <time>2025-05-06T09:55:55Z</time>
      </trkpt>
      <trkpt lat="38.104589972645044" lon="-8.626550976186991">
        <ele>219.31999999999999</ele>
        <time>2025-05-06T09:55:56Z</time>
      </trkpt>
      <trkpt lat="38.104501040652394" lon="-8.62667502835393">
        <ele>220.28</ele>
        <time>2025-05-06T09:55:57Z</time>
      </trkpt>
      <trkpt lat="38.10442702844739" lon="-8.626777958124876">
        <ele>220.75999999999999</ele>
        <time>2025-05-06T09:55:58Z</time>
      </trkpt>
      <trkpt lat="38.104396015405655" lon="-8.626920031383634">
        <ele>221.72</ele>
        <time>2025-05-06T09:55:59Z</time>
      </trkpt>
      <trkpt lat="38.104395009577274" lon="-8.627053974196315">
        <ele>222.19999999999999</ele>
        <time>2025-05-06T09:56:00Z</time>
      </trkpt>
      <trkpt lat="38.104432979598641" lon="-8.627193029969931">
        <ele>222.68000000000001</ele>
        <time>2025-05-06T09:56:01Z</time>
      </trkpt>
      <trkpt lat="38.104500034824014" lon="-8.627318004146218">
        <ele>223.16</ele>
        <time>2025-05-06T09:56:02Z</time>
      </trkpt>
      <trkpt lat="38.104576980695128" lon="-8.627462005242705">
        <ele>224.12</ele>
        <time>2025-05-06T09:56:03Z</time>
      </trkpt>
      <trkpt lat="38.10472802259028" lon="-8.627743972465396">
        <ele>225.09</ele>
        <time>2025-05-06T09:56:05Z</time>
      </trkpt>
      <trkpt lat="38.104759035632014" lon="-8.627885961905122">
        <ele>225.56999999999999</ele>
        <time>2025-05-06T09:56:06Z</time>
      </trkpt>
      <trkpt lat="38.104763980954885" lon="-8.628029963001609">
        <ele>226.05000000000001</ele>
        <time>2025-05-06T09:56:07Z</time>
      </trkpt>
      <trkpt lat="38.104753000661731" lon="-8.628187961876392">
        <ele>227.00999999999999</ele>
        <time>2025-05-06T09:56:08Z</time>
      </trkpt>
      <trkpt lat="38.104716958478093" lon="-8.628343027085066">
        <ele>227.49000000000001</ele>
        <time>2025-05-06T09:56:09Z</time>
      </trkpt>
      <trkpt lat="38.104674965143204" lon="-8.628476969897747">
        <ele>227.97</ele>
        <time>2025-05-06T09:56:10Z</time>
      </trkpt>
      <trkpt lat="38.104607993736863" lon="-8.628564979881048">
        <ele>228.93000000000001</ele>
        <time>2025-05-06T09:56:11Z</time>
      </trkpt>
      <trkpt lat="38.104530964046717" lon="-8.62863396294415">
        <ele>229.88999999999999</ele>
        <time>2025-05-06T09:56:12Z</time>
      </trkpt>
      <trkpt lat="38.1044299621135" lon="-8.628693977370858">
        <ele>230.84999999999999</ele>
        <time>2025-05-06T09:56:13Z</time>
      </trkpt>
      <trkpt lat="38.10429803095758" lon="-8.628713004291058">
        <ele>231.81</ele>
        <time>2025-05-06T09:56:14Z</time>
      </trkpt>
      <trkpt lat="38.104154029861093" lon="-8.628733037039638">
        <ele>232.30000000000001</ele>
        <time>2025-05-06T09:56:15Z</time>
      </trkpt>
      <trkpt lat="38.103681961074471" lon="-8.628801014274359">
        <ele>234.69999999999999</ele>
        <time>2025-05-06T09:56:18Z</time>
      </trkpt>
      <trkpt lat="38.103525973856449" lon="-8.628813000395894">
        <ele>235.18000000000001</ele>
        <time>2025-05-06T09:56:19Z</time>
      </trkpt>
      <trkpt lat="38.103379961103201" lon="-8.628799002617598">
        <ele>236.13999999999999</ele>
        <time>2025-05-06T09:56:20Z</time>
      </trkpt>
      <trkpt lat="38.103149039670825" lon="-8.628776958212256">
        <ele>237.09999999999999</ele>
        <time>2025-05-06T09:56:22Z</time>
      </trkpt>
      <trkpt lat="38.103059018030763" lon="-8.62882599234581">
        <ele>237.58000000000001</ele>
        <time>2025-05-06T09:56:23Z</time>
      </trkpt>
      <trkpt lat="38.102963967248797" lon="-8.628909979015589">
        <ele>238.06</ele>
        <time>2025-05-06T09:56:24Z</time>
      </trkpt>
      <trkpt lat="38.102728016674519" lon="-8.629108965396881">
        <ele>239.50999999999999</ele>
        <time>2025-05-06T09:56:26Z</time>
      </trkpt>
      <trkpt lat="38.102315040305257" lon="-8.629366960376501">
        <ele>241.43000000000001</ele>
        <time>2025-05-06T09:56:29Z</time>
      </trkpt>
      <trkpt lat="38.102249996736646" lon="-8.629485983401537">
        <ele>241.91</ele>
        <time>2025-05-06T09:56:30Z</time>
      </trkpt>
      <trkpt lat="38.102205991744995" lon="-8.629630990326405">
        <ele>242.38999999999999</ele>
        <time>2025-05-06T09:56:31Z</time>
      </trkpt>
      <trkpt lat="38.102185036987066" lon="-8.629797035828233">
        <ele>242.87</ele>
        <time>2025-05-06T09:56:32Z</time>
      </trkpt>
      <trkpt lat="38.102160980924964" lon="-8.629981018602848">
        <ele>243.34999999999999</ele>
        <time>2025-05-06T09:56:33Z</time>
      </trkpt>
      <trkpt lat="38.102050004526973" lon="-8.630534978583455">
        <ele>244.78999999999999</ele>
        <time>2025-05-06T09:56:36Z</time>
      </trkpt>
      <trkpt lat="38.102000970393419" lon="-8.630732959136367">
        <ele>244.78999999999999</ele>
        <time>2025-05-06T09:56:37Z</time>
      </trkpt>
      <trkpt lat="38.101928969845176" lon="-8.630924988538027">
        <ele>244.31</ele>
        <time>2025-05-06T09:56:38Z</time>
      </trkpt>
      <trkpt lat="38.101840959861875" lon="-8.631118023768067">
        <ele>244.31</ele>
        <time>2025-05-06T09:56:39Z</time>
      </trkpt>
      <trkpt lat="38.101751022040844" lon="-8.631313992664218">
        <ele>244.31</ele>
        <time>2025-05-06T09:56:40Z</time>
      </trkpt>
      <trkpt lat="38.100921967998147" lon="-8.63305801525712">
        <ele>249.59999999999999</ele>
        <time>2025-05-06T09:56:49Z</time>
      </trkpt>
      <trkpt lat="38.100837981328368" lon="-8.633176032453775">
        <ele>250.08000000000001</ele>
        <time>2025-05-06T09:56:50Z</time>
      </trkpt>
      <trkpt lat="38.100762963294983" lon="-8.633270999416709">
        <ele>251.03999999999999</ele>
        <time>2025-05-06T09:56:51Z</time>
      </trkpt>
      <trkpt lat="38.100693980231881" lon="-8.633360015228391">
        <ele>252</ele>
        <time>2025-05-06T09:56:52Z</time>
      </trkpt>
      <trkpt lat="38.100598007440567" lon="-8.633431009948254">
        <ele>252.96000000000001</ele>
        <time>2025-05-06T09:56:53Z</time>
      </trkpt>
      <trkpt lat="38.100485019385815" lon="-8.633496975526214">
        <ele>253.93000000000001</ele>
        <time>2025-05-06T09:56:54Z</time>
      </trkpt>
      <trkpt lat="38.099372992292047" lon="-8.634128971025348">
        <ele>261.13999999999999</ele>
        <time>2025-05-06T09:57:01Z</time>
      </trkpt>
      <trkpt lat="38.097657971084118" lon="-8.634878983721137">
        <ele>275.06999999999999</ele>
        <time>2025-05-06T09:57:11Z</time>
      </trkpt>
      <trkpt lat="38.096326002851129" lon="-8.635441996157169">
        <ele>277</ele>
        <time>2025-05-06T09:57:18Z</time>
      </trkpt>
      <trkpt lat="38.094483995810151" lon="-8.636211035773158">
        <ele>277</ele>
        <time>2025-05-06T09:57:27Z</time>
      </trkpt>
      <trkpt lat="38.092387011274695" lon="-8.637102032080293">
        <ele>275.06999999999999</ele>
        <time>2025-05-06T09:57:37Z</time>
      </trkpt>
      <trkpt lat="38.091122014448047" lon="-8.6376369651407">
        <ele>278.44</ele>
        <time>2025-05-06T09:57:44Z</time>
      </trkpt>
      <trkpt lat="38.090057009831071" lon="-8.638081960380077">
        <ele>284.20999999999998</ele>
        <time>2025-05-06T09:57:53Z</time>
      </trkpt>
      <trkpt lat="38.089574966579676" lon="-8.638289999216795">
        <ele>286.61000000000001</ele>
        <time>2025-05-06T09:57:58Z</time>
      </trkpt>
      <trkpt lat="38.088575005531311" lon="-8.638718985021114">
        <ele>289.97000000000003</ele>
        <time>2025-05-06T09:58:07Z</time>
      </trkpt>
      <trkpt lat="38.087258962914348" lon="-8.639504034072161">
        <ele>290.94</ele>
        <time>2025-05-06T09:58:19Z</time>
      </trkpt>
      <trkpt lat="38.086004024371505" lon="-8.640450015664101">
        <ele>291.42000000000002</ele>
        <time>2025-05-06T09:58:31Z</time>
      </trkpt>
      <trkpt lat="38.085905034095049" lon="-8.640541965141892">
        <ele>291.89999999999998</ele>
        <time>2025-05-06T09:58:32Z</time>
      </trkpt>
      <trkpt lat="38.085815012454987" lon="-8.640647996217012">
        <ele>291.42000000000002</ele>
        <time>2025-05-06T09:58:33Z</time>
      </trkpt>
      <trkpt lat="38.084911024197936" lon="-8.641742002218962">
        <ele>286.61000000000001</ele>
        <time>2025-05-06T09:58:43Z</time>
      </trkpt>
      <trkpt lat="38.084775991737843" lon="-8.641860019415617">
        <ele>285.64999999999998</ele>
        <time>2025-05-06T09:58:44Z</time>
      </trkpt>
      <trkpt lat="38.0846400372684" lon="-8.641978958621621">
        <ele>284.69</ele>
        <time>2025-05-06T09:58:45Z</time>
      </trkpt>
      <trkpt lat="38.084494024515152" lon="-8.642036039382219">
        <ele>284.20999999999998</ele>
        <time>2025-05-06T09:58:46Z</time>
      </trkpt>
      <trkpt lat="38.084338959306479" lon="-8.642068980261684">
        <ele>283.25</ele>
        <time>2025-05-06T09:58:47Z</time>
      </trkpt>
      <trkpt lat="38.084181966260076" lon="-8.642050037160516">
        <ele>282.76999999999998</ele>
        <time>2025-05-06T09:58:48Z</time>
      </trkpt>
      <trkpt lat="38.084008963778615" lon="-8.642008965834975">
        <ele>281.80000000000001</ele>
        <time>2025-05-06T09:58:49Z</time>
      </trkpt>
      <trkpt lat="38.083834033459425" lon="-8.641947023570538">
        <ele>281.31999999999999</ele>
        <time>2025-05-06T09:58:50Z</time>
      </trkpt>
      <trkpt lat="38.083650972694159" lon="-8.641866976395249">
        <ele>280.36000000000001</ele>
        <time>2025-05-06T09:58:51Z</time>
      </trkpt>
      <trkpt lat="38.082085987553" lon="-8.641248978674412">
        <ele>271.23000000000002</ele>
        <time>2025-05-06T09:58:59Z</time>
      </trkpt>
      <trkpt lat="38.081903010606766" lon="-8.641225006431341">
        <ele>269.79000000000002</ele>
        <time>2025-05-06T09:59:00Z</time>
      </trkpt>
      <trkpt lat="38.081731013953686" lon="-8.641234980896115">
        <ele>269.31</ele>
        <time>2025-05-06T09:59:01Z</time>
      </trkpt>
      <trkpt lat="38.081553988158703" lon="-8.641259958967567">
        <ele>268.35000000000002</ele>
        <time>2025-05-06T09:59:02Z</time>
      </trkpt>
      <trkpt lat="38.081365982070565" lon="-8.641302036121488">
        <ele>266.89999999999998</ele>
        <time>2025-05-06T09:59:03Z</time>
      </trkpt>
      <trkpt lat="38.080038037151098" lon="-8.641568999737501">
        <ele>263.06</ele>
        <time>2025-05-06T09:59:10Z</time>
      </trkpt>
      <trkpt lat="38.079856988042593" lon="-8.641580985859036">
        <ele>263.06</ele>
        <time>2025-05-06T09:59:11Z</time>
      </trkpt>
      <trkpt lat="38.078249003738165" lon="-8.641487024724484">
        <ele>265.45999999999998</ele>
        <time>2025-05-06T09:59:19Z</time>
      </trkpt>
      <trkpt lat="38.078102990984917" lon="-8.641529018059373">
        <ele>265.45999999999998</ele>
        <time>2025-05-06T09:59:20Z</time>
      </trkpt>
      <trkpt lat="38.077942980453372" lon="-8.641614010557532">
        <ele>265.94</ele>
        <time>2025-05-06T09:59:21Z</time>
      </trkpt>
      <trkpt lat="38.077088026329875" lon="-8.642113991081715">
        <ele>263.54000000000002</ele>
        <time>2025-05-06T09:59:26Z</time>
      </trkpt>
      <trkpt lat="38.076082030311227" lon="-8.643065001815558">
        <ele>259.20999999999998</ele>
        <time>2025-05-06T09:59:32Z</time>
      </trkpt>
      <trkpt lat="38.075548019260168" lon="-8.64362902007997">
        <ele>258.73000000000002</ele>
        <time>2025-05-06T09:59:36Z</time>
      </trkpt>
      <trkpt lat="38.075434025377035" lon="-8.643805962055922">
        <ele>259.20999999999998</ele>
        <time>2025-05-06T09:59:37Z</time>
      </trkpt>
      <trkpt lat="38.074441021308303" lon="-8.645425010472536">
        <ele>265.94</ele>
        <time>2025-05-06T09:59:45Z</time>
      </trkpt>
      <trkpt lat="38.073625965043902" lon="-8.646812969818711">
        <ele>274.11000000000001</ele>
        <time>2025-05-06T09:59:53Z</time>
      </trkpt>
      <trkpt lat="38.07297402061522" lon="-8.647906975820661">
        <ele>276.04000000000002</ele>
        <time>2025-05-06T10:00:02Z</time>
      </trkpt>
      <trkpt lat="38.072181008756161" lon="-8.649257970973849">
        <ele>277.95999999999998</ele>
        <time>2025-05-06T10:00:13Z</time>
      </trkpt>
      <trkpt lat="38.071305016055703" lon="-8.650737041607499">
        <ele>279.88</ele>
        <time>2025-05-06T10:00:25Z</time>
      </trkpt>
      <trkpt lat="38.070362973958254" lon="-8.652338990941644">
        <ele>276.51999999999998</ele>
        <time>2025-05-06T10:00:37Z</time>
      </trkpt>
      <trkpt lat="38.069422021508217" lon="-8.653921997174621">
        <ele>274.11000000000001</ele>
        <time>2025-05-06T10:00:45Z</time>
      </trkpt>
      <trkpt lat="38.068516021594405" lon="-8.655312974005938">
        <ele>271.23000000000002</ele>
        <time>2025-05-06T10:00:52Z</time>
      </trkpt>
      <trkpt lat="38.068348970264196" lon="-8.655459992587566">
        <ele>271.23000000000002</ele>
        <time>2025-05-06T10:00:53Z</time>
      </trkpt>
      <trkpt lat="38.066884987056255" lon="-8.656676961109042">
        <ele>264.01999999999998</ele>
        <time>2025-05-06T10:01:01Z</time>
      </trkpt>
      <trkpt lat="38.065978987142444" lon="-8.657133020460606">
        <ele>258.73000000000002</ele>
        <time>2025-05-06T10:01:06Z</time>
      </trkpt>
      <trkpt lat="38.065782012417912" lon="-8.657168978825212">
        <ele>257.76999999999998</ele>
        <time>2025-05-06T10:01:07Z</time>
      </trkpt>
      <trkpt lat="38.065388984978199" lon="-8.657240979373455">
        <ele>256.32999999999998</ele>
        <time>2025-05-06T10:01:09Z</time>
      </trkpt>
      <trkpt lat="38.065184969455004" lon="-8.65729596465826">
        <ele>255.84999999999999</ele>
        <time>2025-05-06T10:01:10Z</time>
      </trkpt>
      <trkpt lat="38.064976008608937" lon="-8.657355979084969">
        <ele>255.84999999999999</ele>
        <time>2025-05-06T10:01:11Z</time>
      </trkpt>
      <trkpt lat="38.064751960337162" lon="-8.657420016825199">
        <ele>255.84999999999999</ele>
        <time>2025-05-06T10:01:12Z</time>
      </trkpt>
      <trkpt lat="38.064539982005954" lon="-8.657437032088637">
        <ele>256.32999999999998</ele>
        <time>2025-05-06T10:01:13Z</time>
      </trkpt>
      <trkpt lat="38.062571994960308" lon="-8.657584972679615">
        <ele>263.54000000000002</ele>
        <time>2025-05-06T10:01:22Z</time>
      </trkpt>
      <trkpt lat="38.060623034834862" lon="-8.657499980181456">
        <ele>261.62</ele>
        <time>2025-05-06T10:01:31Z</time>
      </trkpt>
      <trkpt lat="38.057946022599936" lon="-8.657347010448575">
        <ele>255.84999999999999</ele>
        <time>2025-05-06T10:01:43Z</time>
      </trkpt>
      <trkpt lat="38.055984992533922" lon="-8.657450024038553">
        <ele>253.44</ele>
        <time>2025-05-06T10:01:52Z</time>
      </trkpt>
      <trkpt lat="38.054118007421494" lon="-8.657548008486629">
        <ele>246.22999999999999</ele>
        <time>2025-05-06T10:02:00Z</time>
      </trkpt>
      <trkpt lat="38.051796974614263" lon="-8.65748698823154">
        <ele>242.87</ele>
        <time>2025-05-06T10:02:10Z</time>
      </trkpt>
      <trkpt lat="38.051374023780227" lon="-8.657568041235209">
        <ele>241.91</ele>
        <time>2025-05-06T10:02:12Z</time>
      </trkpt>
      <trkpt lat="38.051164979115129" lon="-8.657640041783452">
        <ele>241.91</ele>
        <time>2025-05-06T10:02:13Z</time>
      </trkpt>
      <trkpt lat="38.050948977470398" lon="-8.657713970169425">
        <ele>241.91</ele>
        <time>2025-05-06T10:02:14Z</time>
      </trkpt>
      <trkpt lat="38.04856700822711" lon="-8.658746033906937">
        <ele>239.50999999999999</ele>
        <time>2025-05-06T10:02:25Z</time>
      </trkpt>
      <trkpt lat="38.04701903834939" lon="-8.6592279933393">
        <ele>240.47</ele>
        <time>2025-05-06T10:02:33Z</time>
      </trkpt>
      <trkpt lat="38.04684704169631" lon="-8.659322038292885">
        <ele>240.47</ele>
        <time>2025-05-06T10:02:34Z</time>
      </trkpt>
      <trkpt lat="38.046668004244566" lon="-8.659440977498889">
        <ele>240.47</ele>
        <time>2025-05-06T10:02:35Z</time>
      </trkpt>
      <trkpt lat="38.046325016766787" lon="-8.659669971093535">
        <ele>240.47</ele>
        <time>2025-05-06T10:02:37Z</time>
      </trkpt>
      <trkpt lat="38.046155031770468" lon="-8.659772984683514">
        <ele>240.47</ele>
        <time>2025-05-06T10:02:38Z</time>
      </trkpt>
      <trkpt lat="38.044920964166522" lon="-8.660270031541586">
        <ele>239.50999999999999</ele>
        <time>2025-05-06T10:02:45Z</time>
      </trkpt>
      <trkpt lat="38.044607983902097" lon="-8.660413026809692">
        <ele>239.50999999999999</ele>
        <time>2025-05-06T10:02:47Z</time>
      </trkpt>
      <trkpt lat="38.044467000290751" lon="-8.660530960187316">
        <ele>239.50999999999999</ele>
        <time>2025-05-06T10:02:48Z</time>
      </trkpt>
      <trkpt lat="38.044022005051374" lon="-8.660904038697481">
        <ele>239.99000000000001</ele>
        <time>2025-05-06T10:02:51Z</time>
      </trkpt>
      <trkpt lat="38.043895019218326" lon="-8.661042004823685">
        <ele>240.47</ele>
        <time>2025-05-06T10:02:52Z</time>
      </trkpt>
      <trkpt lat="38.043788988143206" lon="-8.661194974556565">
        <ele>240.94999999999999</ele>
        <time>2025-05-06T10:02:53Z</time>
      </trkpt>
      <trkpt lat="38.042986001819372" lon="-8.662417978048325">
        <ele>245.75</ele>
        <time>2025-05-06T10:03:00Z</time>
      </trkpt>
      <trkpt lat="38.042018981650472" lon="-8.663723040372133">
        <ele>251.03999999999999</ele>
        <time>2025-05-06T10:03:07Z</time>
      </trkpt>
      <trkpt lat="38.040757002308965" lon="-8.665292970836163">
        <ele>257.29000000000002</ele>
        <time>2025-05-06T10:03:16Z</time>
      </trkpt>
      <trkpt lat="38.039288995787501" lon="-8.667115028947592">
        <ele>254.88999999999999</ele>
        <time>2025-05-06T10:03:28Z</time>
      </trkpt>
      <trkpt lat="38.038388025015593" lon="-8.668183973059058">
        <ele>251.03999999999999</ele>
        <time>2025-05-06T10:03:36Z</time>
      </trkpt>
      <trkpt lat="38.03825399838388" lon="-8.668310958892107">
        <ele>251.03999999999999</ele>
        <time>2025-05-06T10:03:37Z</time>
      </trkpt>
      <trkpt lat="38.038092982023954" lon="-8.668413972482085">
        <ele>251.03999999999999</ele>
        <time>2025-05-06T10:03:38Z</time>
      </trkpt>
      <trkpt lat="38.03726602345705" lon="-8.668941026553512">
        <ele>252</ele>
        <time>2025-05-06T10:03:43Z</time>
      </trkpt>
      <trkpt lat="38.03713995963335" lon="-8.669075975194573">
        <ele>252</ele>
        <time>2025-05-06T10:03:44Z</time>
      </trkpt>
      <trkpt lat="38.03701096214354" lon="-8.669214025139809">
        <ele>252</ele>
        <time>2025-05-06T10:03:45Z</time>
      </trkpt>
      <trkpt lat="38.036880036816001" lon="-8.669384010136128">
        <ele>252.47999999999999</ele>
        <time>2025-05-06T10:03:46Z</time>
      </trkpt>
      <trkpt lat="38.036755984649062" lon="-8.66956003010273">
        <ele>252.96000000000001</ele>
        <time>2025-05-06T10:03:47Z</time>
      </trkpt>
      <trkpt lat="38.036638973280787" lon="-8.669724985957146">
        <ele>252.96000000000001</ele>
        <time>2025-05-06T10:03:48Z</time>
      </trkpt>
      <trkpt lat="38.036420037969947" lon="-8.670014999806881">
        <ele>253.93000000000001</ele>
        <time>2025-05-06T10:03:50Z</time>
      </trkpt>
      <trkpt lat="38.036290034651756" lon="-8.670105021446943">
        <ele>253.93000000000001</ele>
        <time>2025-05-06T10:03:51Z</time>
      </trkpt>
      <trkpt lat="38.036152990534902" lon="-8.670191019773483">
        <ele>253.93000000000001</ele>
        <time>2025-05-06T10:03:52Z</time>
      </trkpt>
      <trkpt lat="38.035985017195344" lon="-8.670232007279992">
        <ele>253.93000000000001</ele>
        <time>2025-05-06T10:03:53Z</time>
      </trkpt>
      <trkpt lat="38.035800028592348" lon="-8.670277018100023">
        <ele>253.93000000000001</ele>
        <time>2025-05-06T10:03:54Z</time>
      </trkpt>
      <trkpt lat="38.033832041546702" lon="-8.670766018331051">
        <ele>251.52000000000001</ele>
        <time>2025-05-06T10:04:04Z</time>
      </trkpt>
      <trkpt lat="38.033415041863918" lon="-8.670920999720693">
        <ele>253.44</ele>
        <time>2025-05-06T10:04:07Z</time>
      </trkpt>
      <trkpt lat="38.033300964161754" lon="-8.671003980562091">
        <ele>253.93000000000001</ele>
        <time>2025-05-06T10:04:08Z</time>
      </trkpt>
      <trkpt lat="38.033199040219188" lon="-8.671115040779114">
        <ele>254.41</ele>
        <time>2025-05-06T10:04:09Z</time>
      </trkpt>
      <trkpt lat="38.032416002824903" lon="-8.672078959643841">
        <ele>253.93000000000001</ele>
        <time>2025-05-06T10:04:15Z</time>
      </trkpt>
      <trkpt lat="38.031709995120764" lon="-8.672852022573352">
        <ele>252.47999999999999</ele>
        <time>2025-05-06T10:04:20Z</time>
      </trkpt>
      <trkpt lat="38.031540010124445" lon="-8.672983031719923">
        <ele>252</ele>
        <time>2025-05-06T10:04:21Z</time>
      </trkpt>
      <trkpt lat="38.030353970825672" lon="-8.673705970868468">
        <ele>253.93000000000001</ele>
        <time>2025-05-06T10:04:28Z</time>
      </trkpt>
      <trkpt lat="38.030030010268092" lon="-8.673818036913872">
        <ele>253.93000000000001</ele>
        <time>2025-05-06T10:04:30Z</time>
      </trkpt>
      <trkpt lat="38.029857007786632" lon="-8.673833962529898">
        <ele>253.93000000000001</ele>
        <time>2025-05-06T10:04:31Z</time>
      </trkpt>
      <trkpt lat="38.02850098349154" lon="-8.673885008320212">
        <ele>251.03999999999999</ele>
        <time>2025-05-06T10:04:39Z</time>
      </trkpt>
      <trkpt lat="38.028352037072182" lon="-8.673910992220044">
        <ele>250.56</ele>
        <time>2025-05-06T10:04:40Z</time>
      </trkpt>
      <trkpt lat="38.026967011392117" lon="-8.674390017986298">
        <ele>246.22999999999999</ele>
        <time>2025-05-06T10:04:48Z</time>
      </trkpt>
      <trkpt lat="38.025612998753786" lon="-8.674834007397294">
        <ele>253.44</ele>
        <time>2025-05-06T10:04:56Z</time>
      </trkpt>
      <trkpt lat="38.025460029020905" lon="-8.674825960770249">
        <ele>253.93000000000001</ele>
        <time>2025-05-06T10:04:57Z</time>
      </trkpt>
      <trkpt lat="38.025303035974503" lon="-8.674766030162573">
        <ele>254.41</ele>
        <time>2025-05-06T10:04:58Z</time>
      </trkpt>
      <trkpt lat="38.024904979392886" lon="-8.674522032961249">
        <ele>253.44</ele>
        <time>2025-05-06T10:05:01Z</time>
      </trkpt>
      <trkpt lat="38.024817975237966" lon="-8.674360010772944">
        <ele>252.96000000000001</ele>
        <time>2025-05-06T10:05:02Z</time>
      </trkpt>
      <trkpt lat="38.024755027145147" lon="-8.674242999404669">
        <ele>252.47999999999999</ele>
        <time>2025-05-06T10:05:03Z</time>
      </trkpt>
      <trkpt lat="38.024737006053329" lon="-8.674082988873124">
        <ele>251.52000000000001</ele>
        <time>2025-05-06T10:05:04Z</time>
      </trkpt>
      <trkpt lat="38.024716973304749" lon="-8.673896994441748">
        <ele>251.03999999999999</ele>
        <time>2025-05-06T10:05:05Z</time>
      </trkpt>
      <trkpt lat="38.024694006890059" lon="-8.673689961433411">
        <ele>250.56</ele>
        <time>2025-05-06T10:05:06Z</time>
      </trkpt>
      <trkpt lat="38.024628963321447" lon="-8.673110017552972">
        <ele>248.16</ele>
        <time>2025-05-06T10:05:09Z</time>
      </trkpt>
      <trkpt lat="38.024556040763855" lon="-8.672973979264498">
        <ele>247.68000000000001</ele>
        <time>2025-05-06T10:05:10Z</time>
      </trkpt>
      <trkpt lat="38.024476999416947" lon="-8.672850010916591">
        <ele>246.22999999999999</ele>
        <time>2025-05-06T10:05:11Z</time>
      </trkpt>
      <trkpt lat="38.024360993877053" lon="-8.672779016196728">
        <ele>245.75</ele>
        <time>2025-05-06T10:05:12Z</time>
      </trkpt>
      <trkpt lat="38.024233002215624" lon="-8.672702992334962">
        <ele>244.78999999999999</ele>
        <time>2025-05-06T10:05:13Z</time>
      </trkpt>
      <trkpt lat="38.023956986144185" lon="-8.67254801094532">
        <ele>243.83000000000001</ele>
        <time>2025-05-06T10:05:15Z</time>
      </trkpt>
      <trkpt lat="38.023814996704459" lon="-8.672412978485227">
        <ele>243.83000000000001</ele>
        <time>2025-05-06T10:05:16Z</time>
      </trkpt>
      <trkpt lat="38.023679964244366" lon="-8.672265959903598">
        <ele>243.83000000000001</ele>
        <time>2025-05-06T10:05:17Z</time>
      </trkpt>
      <trkpt lat="38.023549960926175" lon="-8.672123970463872">
        <ele>243.34999999999999</ele>
        <time>2025-05-06T10:05:18Z</time>
      </trkpt>
      <trkpt lat="38.023418029770255" lon="-8.672003019601107">
        <ele>243.34999999999999</ele>
        <time>2025-05-06T10:05:19Z</time>
      </trkpt>
      <trkpt lat="38.023272017017007" lon="-8.671958008781076">
        <ele>242.87</ele>
        <time>2025-05-06T10:05:20Z</time>
      </trkpt>
      <trkpt lat="38.023166991770267" lon="-8.67192498408258">
        <ele>242.38999999999999</ele>
        <time>2025-05-06T10:05:21Z</time>
      </trkpt>
      <trkpt lat="38.023026008158922" lon="-8.6720119882375">
        <ele>242.38999999999999</ele>
        <time>2025-05-06T10:05:22Z</time>
      </trkpt>
      <trkpt lat="38.022887958213687" lon="-8.67209698073566">
        <ele>241.91</ele>
        <time>2025-05-06T10:05:23Z</time>
      </trkpt>
      <trkpt lat="38.022772958502173" lon="-8.672233019024134">
        <ele>241.91</ele>
        <time>2025-05-06T10:05:24Z</time>
      </trkpt>
      <trkpt lat="38.022646978497505" lon="-8.672382971271873">
        <ele>241.43000000000001</ele>
        <time>2025-05-06T10:05:25Z</time>
      </trkpt>
      <trkpt lat="38.021815996617079" lon="-8.673661965876818">
        <ele>240.47</ele>
        <time>2025-05-06T10:05:32Z</time>
      </trkpt>
      <trkpt lat="38.021751958876848" lon="-8.673860030248761">
        <ele>240.94999999999999</ele>
        <time>2025-05-06T10:05:33Z</time>
      </trkpt>
      <trkpt lat="38.021692028269172" lon="-8.674047030508518">
        <ele>240.94999999999999</ele>
        <time>2025-05-06T10:05:34Z</time>
      </trkpt>
      <trkpt lat="38.021265976130962" lon="-8.676097998395562">
        <ele>238.53999999999999</ele>
        <time>2025-05-06T10:05:45Z</time>
      </trkpt>
      <trkpt lat="38.021335965022445" lon="-8.677535997703672">
        <ele>238.06</ele>
        <time>2025-05-06T10:05:52Z</time>
      </trkpt>
      <trkpt lat="38.021598989143968" lon="-8.679275996983051">
        <ele>243.34999999999999</ele>
        <time>2025-05-06T10:06:01Z</time>
      </trkpt>
      <trkpt lat="38.021585997194052" lon="-8.679639017209411">
        <ele>245.27000000000001</ele>
        <time>2025-05-06T10:06:03Z</time>
      </trkpt>
      <trkpt lat="38.021579040214419" lon="-8.679800033569336">
        <ele>245.75</ele>
        <time>2025-05-06T10:06:04Z</time>
      </trkpt>
      <trkpt lat="38.021506033837795" lon="-8.679932970553637">
        <ele>246.22999999999999</ele>
        <time>2025-05-06T10:06:05Z</time>
      </trkpt>
      <trkpt lat="38.021421963348985" lon="-8.680085018277168">
        <ele>246.72</ele>
        <time>2025-05-06T10:06:06Z</time>
      </trkpt>
      <trkpt lat="38.021331019699574" lon="-8.680250979959965">
        <ele>246.72</ele>
        <time>2025-05-06T10:06:07Z</time>
      </trkpt>
      <trkpt lat="38.021038994193077" lon="-8.680779961869121">
        <ele>246.72</ele>
        <time>2025-05-06T10:06:10Z</time>
      </trkpt>
      <trkpt lat="38.020969005301595" lon="-8.680976014584303">
        <ele>246.72</ele>
        <time>2025-05-06T10:06:11Z</time>
      </trkpt>
      <trkpt lat="38.020930029451847" lon="-8.681187992915511">
        <ele>246.22999999999999</ele>
        <time>2025-05-06T10:06:12Z</time>
      </trkpt>
      <trkpt lat="38.020916031673551" lon="-8.681409023702145">
        <ele>246.22999999999999</ele>
        <time>2025-05-06T10:06:13Z</time>
      </trkpt>
      <trkpt lat="38.020914020016789" lon="-8.681612033396959">
        <ele>246.22999999999999</ele>
        <time>2025-05-06T10:06:14Z</time>
      </trkpt>
      <trkpt lat="38.020914020016789" lon="-8.681797021999955">
        <ele>245.75</ele>
        <time>2025-05-06T10:06:15Z</time>
      </trkpt>
      <trkpt lat="38.020920976996422" lon="-8.682779967784882">
        <ele>245.27000000000001</ele>
        <time>2025-05-06T10:06:22Z</time>
      </trkpt>
      <trkpt lat="38.020871020853519" lon="-8.683511959388852">
        <ele>244.78999999999999</ele>
        <time>2025-05-06T10:06:27Z</time>
      </trkpt>
      <trkpt lat="38.020813018083572" lon="-8.683670964092016">
        <ele>244.78999999999999</ele>
        <time>2025-05-06T10:06:28Z</time>
      </trkpt>
      <trkpt lat="38.020763983950019" lon="-8.683803984895349">
        <ele>245.27000000000001</ele>
        <time>2025-05-06T10:06:29Z</time>
      </trkpt>
      <trkpt lat="38.020715033635497" lon="-8.683928037062287">
        <ele>245.75</ele>
        <time>2025-05-06T10:06:30Z</time>
      </trkpt>
      <trkpt lat="38.020630963146687" lon="-8.684038007631898">
        <ele>246.72</ele>
        <time>2025-05-06T10:06:31Z</time>
      </trkpt>
      <trkpt lat="38.020544964820147" lon="-8.68415099568665">
        <ele>247.19999999999999</ele>
        <time>2025-05-06T10:06:32Z</time>
      </trkpt>
      <trkpt lat="38.019754970446229" lon="-8.685099994763732">
        <ele>251.52000000000001</ele>
        <time>2025-05-06T10:06:41Z</time>
      </trkpt>
      <trkpt lat="38.019654974341393" lon="-8.68518196977675">
        <ele>252.47999999999999</ele>
        <time>2025-05-06T10:06:42Z</time>
      </trkpt>
      <trkpt lat="38.019555984064937" lon="-8.685263022780418">
        <ele>253.44</ele>
        <time>2025-05-06T10:06:43Z</time>
      </trkpt>
      <trkpt lat="38.019450036808848" lon="-8.685327982529998">
        <ele>253.93000000000001</ele>
        <time>2025-05-06T10:06:44Z</time>
      </trkpt>
      <trkpt lat="38.018298028036952" lon="-8.685830980539322">
        <ele>257.29000000000002</ele>
        <time>2025-05-06T10:06:54Z</time>
      </trkpt>
      <trkpt lat="38.018175987526774" lon="-8.685836009681225">
        <ele>257.29000000000002</ele>
        <time>2025-05-06T10:06:55Z</time>
      </trkpt>
      <trkpt lat="38.018056964501739" lon="-8.685841038823128">
        <ele>257.29000000000002</ele>
        <time>2025-05-06T10:06:56Z</time>
      </trkpt>
      <trkpt lat="38.017581040039659" lon="-8.68587096221745">
        <ele>255.84999999999999</ele>
        <time>2025-05-06T10:07:00Z</time>
      </trkpt>
      <trkpt lat="38.01745698787272" lon="-8.685884037986398">
        <ele>255.37</ele>
        <time>2025-05-06T10:07:01Z</time>
      </trkpt>
      <trkpt lat="38.016996989026666" lon="-8.686026027426124">
        <ele>254.41</ele>
        <time>2025-05-06T10:07:05Z</time>
      </trkpt>
      <trkpt lat="38.016900010406971" lon="-8.686099033802748">
        <ele>254.41</ele>
        <time>2025-05-06T10:07:06Z</time>
      </trkpt>
      <trkpt lat="38.016817029565573" lon="-8.686187965795398">
        <ele>254.41</ele>
        <time>2025-05-06T10:07:07Z</time>
      </trkpt>
      <trkpt lat="38.01674603484571" lon="-8.68629802018404">
        <ele>253.93000000000001</ele>
        <time>2025-05-06T10:07:08Z</time>
      </trkpt>
      <trkpt lat="38.016699012368917" lon="-8.686441015452147">
        <ele>253.93000000000001</ele>
        <time>2025-05-06T10:07:09Z</time>
      </trkpt>
      <trkpt lat="38.016650984063745" lon="-8.686589961871505">
        <ele>253.44</ele>
        <time>2025-05-06T10:07:10Z</time>
      </trkpt>
      <trkpt lat="38.016344960778952" lon="-8.687554970383644">
        <ele>251.03999999999999</ele>
        <time>2025-05-06T10:07:18Z</time>
      </trkpt>
      <trkpt lat="38.016289975494146" lon="-8.68752496317029">
        <ele>251.03999999999999</ele>
        <time>2025-05-06T10:07:19Z</time>
      </trkpt>
      <trkpt lat="38.016221998259425" lon="-8.68752496317029">
        <ele>250.56</ele>
        <time>2025-05-06T10:07:20Z</time>
      </trkpt>
      <trkpt lat="38.016142034903169" lon="-8.68752496317029">
        <ele>250.56</ele>
        <time>2025-05-06T10:07:21Z</time>
      </trkpt>
      <trkpt lat="38.016053019091487" lon="-8.68752496317029">
        <ele>251.03999999999999</ele>
        <time>2025-05-06T10:07:22Z</time>
      </trkpt>
      <trkpt lat="38.015956962481141" lon="-8.68752496317029">
        <ele>252</ele>
        <time>2025-05-06T10:07:23Z</time>
      </trkpt>
      <trkpt lat="38.015860989689827" lon="-8.68752496317029">
        <ele>252.47999999999999</ele>
        <time>2025-05-06T10:07:24Z</time>
      </trkpt>
      <trkpt lat="38.01556603051722" lon="-8.687478024512529">
        <ele>255.37</ele>
        <time>2025-05-06T10:07:28Z</time>
      </trkpt>
      <trkpt lat="38.014779975637794" lon="-8.687195973470807">
        <ele>255.84999999999999</ele>
        <time>2025-05-06T10:07:38Z</time>
      </trkpt>
      <trkpt lat="38.014590963721275" lon="-8.687121961265802">
        <ele>255.37</ele>
        <time>2025-05-06T10:07:40Z</time>
      </trkpt>
      <trkpt lat="38.013683035969734" lon="-8.686796994879842">
        <ele>256.81</ele>
        <time>2025-05-06T10:07:50Z</time>
      </trkpt>
      <trkpt lat="38.013585973531008" lon="-8.686776040121913">
        <ele>256.32999999999998</ele>
        <time>2025-05-06T10:07:51Z</time>
      </trkpt>
      <trkpt lat="38.013482037931681" lon="-8.686788026243448">
        <ele>256.32999999999998</ele>
        <time>2025-05-06T10:07:52Z</time>
      </trkpt>
      <trkpt lat="38.013367960229516" lon="-8.686805041506887">
        <ele>256.81</ele>
        <time>2025-05-06T10:07:53Z</time>
      </trkpt>
      <trkpt lat="38.013254972174764" lon="-8.686821972951293">
        <ele>257.29000000000002</ele>
        <time>2025-05-06T10:07:54Z</time>
      </trkpt>
      <trkpt lat="38.013146007433534" lon="-8.686837982386351">
        <ele>257.29000000000002</ele>
        <time>2025-05-06T10:07:55Z</time>
      </trkpt>
      <trkpt lat="38.013040982186794" lon="-8.686856003478169">
        <ele>257.29000000000002</ele>
        <time>2025-05-06T10:07:56Z</time>
      </trkpt>
      <trkpt lat="38.012318965047598" lon="-8.686967985704541">
        <ele>257.29000000000002</ele>
        <time>2025-05-06T10:08:04Z</time>
      </trkpt>
      <trkpt lat="38.011971032246947" lon="-8.686974020674825">
        <ele>254.88999999999999</ele>
        <time>2025-05-06T10:08:08Z</time>
      </trkpt>
      <trkpt lat="38.01186902448535" lon="-8.686975026503205">
        <ele>254.41</ele>
        <time>2025-05-06T10:08:09Z</time>
      </trkpt>
      <trkpt lat="38.011769028380513" lon="-8.686977038159967">
        <ele>253.93000000000001</ele>
        <time>2025-05-06T10:08:10Z</time>
      </trkpt>
      <trkpt lat="38.011661991477013" lon="-8.686978965997696">
        <ele>253.93000000000001</ele>
        <time>2025-05-06T10:08:11Z</time>
      </trkpt>
      <trkpt lat="38.011556966230273" lon="-8.686979971826077">
        <ele>253.93000000000001</ele>
        <time>2025-05-06T10:08:12Z</time>
      </trkpt>
      <trkpt lat="38.010322982445359" lon="-8.68694300763309">
        <ele>253.93000000000001</ele>
        <time>2025-05-06T10:08:23Z</time>
      </trkpt>
      <trkpt lat="38.009340036660433" lon="-8.686592979356647">
        <ele>255.84999999999999</ele>
        <time>2025-05-06T10:08:32Z</time>
      </trkpt>
      <trkpt lat="38.008682979270816" lon="-8.686322998255491">
        <ele>256.81</ele>
        <time>2025-05-06T10:08:39Z</time>
      </trkpt>
      <trkpt lat="38.008575020357966" lon="-8.686329033225775">
        <ele>257.29000000000002</ele>
        <time>2025-05-06T10:08:40Z</time>
      </trkpt>
      <trkpt lat="38.008463960140944" lon="-8.686334984377027">
        <ele>257.29000000000002</ele>
        <time>2025-05-06T10:08:41Z</time>
      </trkpt>
      <trkpt lat="38.008353989571333" lon="-8.686342025175691">
        <ele>257.76999999999998</ele>
        <time>2025-05-06T10:08:42Z</time>
      </trkpt>
      <trkpt lat="38.008242007344961" lon="-8.68636297993362">
        <ele>257.76999999999998</ele>
        <time>2025-05-06T10:08:43Z</time>
      </trkpt>
      <trkpt lat="38.007169961929321" lon="-8.686650982126594">
        <ele>259.20999999999998</ele>
        <time>2025-05-06T10:08:52Z</time>
      </trkpt>
      <trkpt lat="38.006337974220514" lon="-8.686928004026413">
        <ele>259.69</ele>
        <time>2025-05-06T10:09:00Z</time>
      </trkpt>
      <trkpt lat="38.006110992282629" lon="-8.68700897321105">
        <ele>260.64999999999998</ele>
        <time>2025-05-06T10:09:02Z</time>
      </trkpt>
      <trkpt lat="38.006000015884638" lon="-8.686982989311218">
        <ele>260.64999999999998</ele>
        <time>2025-05-06T10:09:03Z</time>
      </trkpt>
      <trkpt lat="38.005887027829885" lon="-8.686954993754625">
        <ele>261.13999999999999</ele>
        <time>2025-05-06T10:09:04Z</time>
      </trkpt>
      <trkpt lat="38.005776973441243" lon="-8.686910988762975">
        <ele>261.13999999999999</ele>
        <time>2025-05-06T10:09:05Z</time>
      </trkpt>
      <trkpt lat="38.005659962072968" lon="-8.68685700930655">
        <ele>261.13999999999999</ele>
        <time>2025-05-06T10:09:06Z</time>
      </trkpt>
      <trkpt lat="38.004829986020923" lon="-8.686464987695217">
        <ele>259.69</ele>
        <time>2025-05-06T10:09:13Z</time>
      </trkpt>
      <trkpt lat="38.004219029098749" lon="-8.686104984954">
        <ele>255.84999999999999</ele>
        <time>2025-05-06T10:09:19Z</time>
      </trkpt>
      <trkpt lat="38.004103023558855" lon="-8.686070032417774">
        <ele>255.37</ele>
        <time>2025-05-06T10:09:20Z</time>
      </trkpt>
      <trkpt lat="38.003988023847342" lon="-8.686072966083884">
        <ele>254.88999999999999</ele>
        <time>2025-05-06T10:09:21Z</time>
      </trkpt>
      <trkpt lat="38.003870006650686" lon="-8.686081012710929">
        <ele>253.93000000000001</ele>
        <time>2025-05-06T10:09:22Z</time>
      </trkpt>
      <trkpt lat="38.003775961697102" lon="-8.686098027974367">
        <ele>253.44</ele>
        <time>2025-05-06T10:09:23Z</time>
      </trkpt>
      <trkpt lat="38.003711001947522" lon="-8.686146978288889">
        <ele>252.47999999999999</ele>
        <time>2025-05-06T10:09:24Z</time>
      </trkpt>
      <trkpt lat="38.003652999177575" lon="-8.68619098328054">
        <ele>252</ele>
        <time>2025-05-06T10:09:25Z</time>
      </trkpt>
      <trkpt lat="38.003592984750867" lon="-8.686235994100571">
        <ele>251.52000000000001</ele>
        <time>2025-05-06T10:09:26Z</time>
      </trkpt>
      <trkpt lat="38.003530958667397" lon="-8.686314029619098">
        <ele>250.56</ele>
        <time>2025-05-06T10:09:27Z</time>
      </trkpt>
      <trkpt lat="38.003520984202623" lon="-8.686430035158992">
        <ele>250.08000000000001</ele>
        <time>2025-05-06T10:09:28Z</time>
      </trkpt>
      <trkpt lat="38.003526013344526" lon="-8.68657898157835">
        <ele>250.08000000000001</ele>
        <time>2025-05-06T10:09:29Z</time>
      </trkpt>
      <trkpt lat="38.003568006679416" lon="-8.686704961583018">
        <ele>249.59999999999999</ele>
        <time>2025-05-06T10:09:30Z</time>
      </trkpt>
      <trkpt lat="38.003612011671066" lon="-8.686838988214731">
        <ele>249.59999999999999</ele>
        <time>2025-05-06T10:09:31Z</time>
      </trkpt>
      <trkpt lat="38.003630032762885" lon="-8.687000004574657">
        <ele>249.59999999999999</ele>
        <time>2025-05-06T10:09:32Z</time>
      </trkpt>
      <trkpt lat="38.003606982529163" lon="-8.687165966257453">
        <ele>249.59999999999999</ele>
        <time>2025-05-06T10:09:33Z</time>
      </trkpt>
      <trkpt lat="38.003582004457712" lon="-8.687345003709197">
        <ele>249.12</ele>
        <time>2025-05-06T10:09:34Z</time>
      </trkpt>
      <trkpt lat="38.003443032503128" lon="-8.688075989484787">
        <ele>246.72</ele>
        <time>2025-05-06T10:09:38Z</time>
      </trkpt>
      <trkpt lat="38.00336399115622" lon="-8.688190989196301">
        <ele>245.75</ele>
        <time>2025-05-06T10:09:39Z</time>
      </trkpt>
      <trkpt lat="38.003245973959565" lon="-8.688273970037699">
        <ele>244.78999999999999</ele>
        <time>2025-05-06T10:09:40Z</time>
      </trkpt>
      <trkpt lat="38.003117982298136" lon="-8.688364997506142">
        <ele>243.83000000000001</ele>
        <time>2025-05-06T10:09:41Z</time>
      </trkpt>
      <trkpt lat="38.00297599285841" lon="-8.688446972519159">
        <ele>242.87</ele>
        <time>2025-05-06T10:09:42Z</time>
      </trkpt>
      <trkpt lat="38.002555975690484" lon="-8.688703961670399">
        <ele>239.99000000000001</ele>
        <time>2025-05-06T10:09:45Z</time>
      </trkpt>
      <trkpt lat="38.002465032041073" lon="-8.688835976645351">
        <ele>239.02000000000001</ele>
        <time>2025-05-06T10:09:46Z</time>
      </trkpt>
      <trkpt lat="38.002395965158939" lon="-8.68896396830678">
        <ele>238.06</ele>
        <time>2025-05-06T10:09:47Z</time>
      </trkpt>
      <trkpt lat="38.002395965158939" lon="-8.689110986888409">
        <ele>237.09999999999999</ele>
        <time>2025-05-06T10:09:48Z</time>
      </trkpt>
      <trkpt lat="38.002422032877803" lon="-8.689233027398586">
        <ele>236.62</ele>
        <time>2025-05-06T10:09:49Z</time>
      </trkpt>
      <trkpt lat="38.002470983192325" lon="-8.689379040151835">
        <ele>236.13999999999999</ele>
        <time>2025-05-06T10:09:50Z</time>
      </trkpt>
      <trkpt lat="38.002561004832387" lon="-8.689508959650993">
        <ele>235.18000000000001</ele>
        <time>2025-05-06T10:09:51Z</time>
      </trkpt>
      <trkpt lat="38.002671981230378" lon="-8.689644997939467">
        <ele>233.74000000000001</ele>
        <time>2025-05-06T10:09:52Z</time>
      </trkpt>
      <trkpt lat="38.002797039225698" lon="-8.689765026792884">
        <ele>232.78</ele>
        <time>2025-05-06T10:09:53Z</time>
      </trkpt>
      <trkpt lat="38.003047993406653" lon="-8.690002989023924">
        <ele>230.37</ele>
        <time>2025-05-06T10:09:55Z</time>
      </trkpt>
      <trkpt lat="38.003177996724844" lon="-8.690083036199212">
        <ele>229.41</ele>
        <time>2025-05-06T10:09:56Z</time>
      </trkpt>
      <trkpt lat="38.003317974507809" lon="-8.690140033140779">
        <ele>228.44999999999999</ele>
        <time>2025-05-06T10:09:57Z</time>
      </trkpt>
      <trkpt lat="38.003462981432676" lon="-8.690181020647287">
        <ele>227.49000000000001</ele>
        <time>2025-05-06T10:09:58Z</time>
      </trkpt>
      <trkpt lat="38.003604970872402" lon="-8.690221002325416">
        <ele>226.53</ele>
        <time>2025-05-06T10:09:59Z</time>
      </trkpt>
      <trkpt lat="38.003740003332496" lon="-8.690282022580504">
        <ele>226.05000000000001</ele>
        <time>2025-05-06T10:10:00Z</time>
      </trkpt>
      <trkpt lat="38.003864977508783" lon="-8.690396016463637">
        <ele>224.61000000000001</ele>
        <time>2025-05-06T10:10:01Z</time>
      </trkpt>
      <trkpt lat="38.003995986655354" lon="-8.690515961498022">
        <ele>223.63999999999999</ele>
        <time>2025-05-06T10:10:02Z</time>
      </trkpt>
      <trkpt lat="38.004129007458687" lon="-8.6906380020082">
        <ele>222.68000000000001</ele>
        <time>2025-05-06T10:10:03Z</time>
      </trkpt>
      <trkpt lat="38.004407035186887" lon="-8.690900020301342">
        <ele>220.28</ele>
        <time>2025-05-06T10:10:05Z</time>
      </trkpt>
      <trkpt lat="38.005443960428238" lon="-8.691794034093618">
        <ele>209.22</ele>
        <time>2025-05-06T10:10:13Z</time>
      </trkpt>
      <trkpt lat="38.006081990897655" lon="-8.692287979647517">
        <ele>202.49000000000001</ele>
        <time>2025-05-06T10:10:20Z</time>
      </trkpt>
      <trkpt lat="38.006236972287297" lon="-8.692391999065876">
        <ele>201.05000000000001</ele>
        <time>2025-05-06T10:10:22Z</time>
      </trkpt>
      <trkpt lat="38.00630796700716" lon="-8.692419994622469">
        <ele>200.56999999999999</ele>
        <time>2025-05-06T10:10:23Z</time>
      </trkpt>
      <trkpt lat="38.00636999309063" lon="-8.69244396686554">
        <ele>200.09</ele>
        <time>2025-05-06T10:10:24Z</time>
      </trkpt>
      <trkpt lat="38.006408968940377" lon="-8.692459976300597">
        <ele>199.61000000000001</ele>
        <time>2025-05-06T10:10:25Z</time>
      </trkpt>
      <trkpt lat="38.006536960601807" lon="-8.692416977137327">
        <ele>199.13</ele>
        <time>2025-05-06T10:10:26Z</time>
      </trkpt>
      <trkpt lat="38.006565039977431" lon="-8.69244497269392">
        <ele>198.65000000000001</ele>
        <time>2025-05-06T10:10:27Z</time>
      </trkpt>
      <trkpt lat="38.006610972806811" lon="-8.692540023475885">
        <ele>198.65000000000001</ele>
        <time>2025-05-06T10:10:28Z</time>
      </trkpt>
      <trkpt lat="38.00658599473536" lon="-8.692660974338651">
        <ele>198.16999999999999</ele>
        <time>2025-05-06T10:10:29Z</time>
      </trkpt>
      <trkpt lat="38.006559005007148" lon="-8.692696010693908">
        <ele>198.16999999999999</ele>
        <time>2025-05-06T10:10:30Z</time>
      </trkpt>
      <trkpt lat="38.00643403083086" lon="-8.692691987380385">
        <ele>198.16999999999999</ele>
        <time>2025-05-06T10:10:31Z</time>
      </trkpt>
      <trkpt lat="38.00636999309063" lon="-8.692756025120616">
        <ele>197.69</ele>
        <time>2025-05-06T10:10:32Z</time>
      </trkpt>
      <trkpt lat="38.006291035562754" lon="-8.692834982648492">
        <ele>197.69</ele>
        <time>2025-05-06T10:10:33Z</time>
      </trkpt>
      <trkpt lat="38.005993980914354" lon="-8.693094989284873">
        <ele>198.16999999999999</ele>
        <time>2025-05-06T10:10:36Z</time>
      </trkpt>
      <trkpt lat="38.00587504170835" lon="-8.69315299205482">
        <ele>199.13</ele>
        <time>2025-05-06T10:10:37Z</time>
      </trkpt>
      <trkpt lat="38.005745960399508" lon="-8.69319599121809">
        <ele>200.56999999999999</ele>
        <time>2025-05-06T10:10:38Z</time>
      </trkpt>
      <trkpt lat="38.005488971248269" lon="-8.693234967067838">
        <ele>202.97999999999999</ele>
        <time>2025-05-06T10:10:40Z</time>
      </trkpt>
      <trkpt lat="38.004768965765834" lon="-8.693293975666165">
        <ele>208.74000000000001</ele>
        <time>2025-05-06T10:10:45Z</time>
      </trkpt>
      <trkpt lat="38.004617001861334" lon="-8.693347033113241">
        <ele>209.69999999999999</ele>
        <time>2025-05-06T10:10:46Z</time>
      </trkpt>
      <trkpt lat="38.003640007227659" lon="-8.693716004490852">
        <ele>214.50999999999999</ele>
        <time>2025-05-06T10:10:53Z</time>
      </trkpt>
      <trkpt lat="38.003500029444695" lon="-8.693727990612388">
        <ele>214.99000000000001</ele>
        <time>2025-05-06T10:10:54Z</time>
      </trkpt>
      <trkpt lat="38.00252596847713" lon="-8.693813988938928">
        <ele>221.24000000000001</ele>
        <time>2025-05-06T10:11:02Z</time>
      </trkpt>
      <trkpt lat="38.001861032098532" lon="-8.693967964500189">
        <ele>227.00999999999999</ele>
        <time>2025-05-06T10:11:07Z</time>
      </trkpt>
      <trkpt lat="38.00175198353827" lon="-8.694048011675477">
        <ele>227.97</ele>
        <time>2025-05-06T10:11:08Z</time>
      </trkpt>
      <trkpt lat="38.001645030453801" lon="-8.694154964759946">
        <ele>228.93000000000001</ele>
        <time>2025-05-06T10:11:09Z</time>
      </trkpt>
      <trkpt lat="38.001587027683854" lon="-8.694282034412026">
        <ele>230.37</ele>
        <time>2025-05-06T10:11:10Z</time>
      </trkpt>
      <trkpt lat="38.001522989943624" lon="-8.694424023851752">
        <ele>231.81</ele>
        <time>2025-05-06T10:11:11Z</time>
      </trkpt>
      <trkpt lat="38.001460041850805" lon="-8.694561989977956">
        <ele>233.25999999999999</ele>
        <time>2025-05-06T10:11:12Z</time>
      </trkpt>
      <trkpt lat="38.001367002725601" lon="-8.694685958325863">
        <ele>234.69999999999999</ele>
        <time>2025-05-06T10:11:13Z</time>
      </trkpt>
      <trkpt lat="38.001258037984371" lon="-8.69478696025908">
        <ele>235.66</ele>
        <time>2025-05-06T10:11:14Z</time>
      </trkpt>
      <trkpt lat="38.001140020787716" lon="-8.694887962192297">
        <ele>237.09999999999999</ele>
        <time>2025-05-06T10:11:15Z</time>
      </trkpt>
      <trkpt lat="38.001001970842481" lon="-8.694930961355567">
        <ele>238.06</ele>
        <time>2025-05-06T10:11:16Z</time>
      </trkpt>
      <trkpt lat="38.000856041908264" lon="-8.694967003539205">
        <ele>239.02000000000001</ele>
        <time>2025-05-06T10:11:17Z</time>
      </trkpt>
      <trkpt lat="38.00069997087121" lon="-8.69493599049747">
        <ele>240.47</ele>
        <time>2025-05-06T10:11:18Z</time>
      </trkpt>
      <trkpt lat="38.000549012795091" lon="-8.694855021312833">
        <ele>240.94999999999999</ele>
        <time>2025-05-06T10:11:19Z</time>
      </trkpt>
      <trkpt lat="38.000386990606785" lon="-8.694746978580952">
        <ele>241.91</ele>
        <time>2025-05-06T10:11:20Z</time>
      </trkpt>
      <trkpt lat="38.000208958983421" lon="-8.694639019668102">
        <ele>242.38999999999999</ele>
        <time>2025-05-06T10:11:21Z</time>
      </trkpt>
      <trkpt lat="38.000025982037187" lon="-8.694547992199659">
        <ele>242.87</ele>
        <time>2025-05-06T10:11:22Z</time>
      </trkpt>
      <trkpt lat="37.999830013141036" lon="-8.694519996643066">
        <ele>242.87</ele>
        <time>2025-05-06T10:11:23Z</time>
      </trkpt>
      <trkpt lat="37.999648964032531" lon="-8.694519996643066">
        <ele>243.34999999999999</ele>
        <time>2025-05-06T10:11:24Z</time>
      </trkpt>
      <trkpt lat="37.999440003186464" lon="-8.694567019119859">
        <ele>243.34999999999999</ele>
        <time>2025-05-06T10:11:25Z</time>
      </trkpt>
      <trkpt lat="37.99923799932003" lon="-8.69461202993989">
        <ele>243.34999999999999</ele>
        <time>2025-05-06T10:11:26Z</time>
      </trkpt>
      <trkpt lat="37.998225968331099" lon="-8.694838006049395">
        <ele>247.19999999999999</ele>
        <time>2025-05-06T10:11:32Z</time>
      </trkpt>
      <trkpt lat="37.997576035559177" lon="-8.694967003539205">
        <ele>252.47999999999999</ele>
        <time>2025-05-06T10:11:39Z</time>
      </trkpt>
      <trkpt lat="37.997021991759539" lon="-8.694878993555903">
        <ele>252.47999999999999</ele>
        <time>2025-05-06T10:11:45Z</time>
      </trkpt>
      <trkpt lat="37.996919983997941" lon="-8.694856027141213">
        <ele>252</ele>
        <time>2025-05-06T10:11:46Z</time>
      </trkpt>
      <trkpt lat="37.996391002088785" lon="-8.694734992459416">
        <ele>248.63999999999999</ele>
        <time>2025-05-06T10:11:51Z</time>
      </trkpt>
      <trkpt lat="37.996290000155568" lon="-8.694668021053076">
        <ele>248.16</ele>
        <time>2025-05-06T10:11:52Z</time>
      </trkpt>
      <trkpt lat="37.996184974908829" lon="-8.694596020504832">
        <ele>247.68000000000001</ele>
        <time>2025-05-06T10:11:53Z</time>
      </trkpt>
      <trkpt lat="37.995505034923553" lon="-8.694129986688495">
        <ele>244.31</ele>
        <time>2025-05-06T10:12:01Z</time>
      </trkpt>
      <trkpt lat="37.995229018852115" lon="-8.693940974771977">
        <ele>243.34999999999999</ele>
        <time>2025-05-06T10:12:04Z</time>
      </trkpt>
      <trkpt lat="37.995145032182336" lon="-8.693920020014048">
        <ele>243.34999999999999</ele>
        <time>2025-05-06T10:12:05Z</time>
      </trkpt>
      <trkpt lat="37.994314972311258" lon="-8.693708963692188">
        <ele>244.31</ele>
        <time>2025-05-06T10:12:11Z</time>
      </trkpt>
      <trkpt lat="37.993607958778739" lon="-8.693592958152294">
        <ele>245.27000000000001</ele>
        <time>2025-05-06T10:12:16Z</time>
      </trkpt>
      <trkpt lat="37.99345700070262" lon="-8.693606033921242">
        <ele>246.22999999999999</ele>
        <time>2025-05-06T10:12:17Z</time>
      </trkpt>
      <trkpt lat="37.993303025141358" lon="-8.693624977022409">
        <ele>246.72</ele>
        <time>2025-05-06T10:12:18Z</time>
      </trkpt>
      <trkpt lat="37.992474976927042" lon="-8.693933011963964">
        <ele>250.56</ele>
        <time>2025-05-06T10:12:25Z</time>
      </trkpt>
      <trkpt lat="37.99161097034812" lon="-8.694263007491827">
        <ele>254.88999999999999</ele>
        <time>2025-05-06T10:12:32Z</time>
      </trkpt>
      <trkpt lat="37.990949973464012" lon="-8.694457970559597">
        <ele>258.25</ele>
        <time>2025-05-06T10:12:36Z</time>
      </trkpt>
      <trkpt lat="37.990770014002919" lon="-8.6944629997015">
        <ele>258.73000000000002</ele>
        <time>2025-05-06T10:12:37Z</time>
      </trkpt>
      <trkpt lat="37.990233991295099" lon="-8.694388987496495">
        <ele>261.13999999999999</ele>
        <time>2025-05-06T10:12:40Z</time>
      </trkpt>
      <trkpt lat="37.99008697271347" lon="-8.694361997768283">
        <ele>262.10000000000002</ele>
        <time>2025-05-06T10:12:41Z</time>
      </trkpt>
      <trkpt lat="37.98987197689712" lon="-8.694233000278473">
        <ele>263.54000000000002</ele>
        <time>2025-05-06T10:12:43Z</time>
      </trkpt>
      <trkpt lat="37.989776004105806" lon="-8.694174997508526">
        <ele>264.01999999999998</ele>
        <time>2025-05-06T10:12:44Z</time>
      </trkpt>
      <trkpt lat="37.989671984687448" lon="-8.694111965596676">
        <ele>264.98000000000002</ele>
        <time>2025-05-06T10:12:45Z</time>
      </trkpt>
      <trkpt lat="37.989592021331191" lon="-8.694010963663459">
        <ele>265.94</ele>
        <time>2025-05-06T10:12:46Z</time>
      </trkpt>
      <trkpt lat="37.989495964720845" lon="-8.693891018629074">
        <ele>266.42000000000002</ele>
        <time>2025-05-06T10:12:47Z</time>
      </trkpt>
      <trkpt lat="37.989043006673455" lon="-8.693375028669834">
        <ele>268.35000000000002</ele>
        <time>2025-05-06T10:12:51Z</time>
      </trkpt>
      <trkpt lat="37.988890958949924" lon="-8.693319959565997">
        <ele>268.82999999999998</ele>
        <time>2025-05-06T10:12:52Z</time>
      </trkpt>
      <trkpt lat="37.988743018358946" lon="-8.693308979272842">
        <ele>269.31</ele>
        <time>2025-05-06T10:12:53Z</time>
      </trkpt>
      <trkpt lat="37.988598011434078" lon="-8.693333035334945">
        <ele>270.26999999999998</ele>
        <time>2025-05-06T10:12:54Z</time>
      </trkpt>
      <trkpt lat="37.988477982580662" lon="-8.693406963720918">
        <ele>270.75</ele>
        <time>2025-05-06T10:12:55Z</time>
      </trkpt>
      <trkpt lat="37.988374968990684" lon="-8.693518023937941">
        <ele>271.70999999999998</ele>
        <time>2025-05-06T10:12:56Z</time>
      </trkpt>
      <trkpt lat="37.988288970664144" lon="-8.69366898201406">
        <ele>272.67000000000002</ele>
        <time>2025-05-06T10:12:57Z</time>
      </trkpt>
      <trkpt lat="37.988224010914564" lon="-8.693863023072481">
        <ele>274.11000000000001</ele>
        <time>2025-05-06T10:12:58Z</time>
      </trkpt>
      <trkpt lat="37.988155027851462" lon="-8.694069972261787">
        <ele>275.06999999999999</ele>
        <time>2025-05-06T10:12:59Z</time>
      </trkpt>
      <trkpt lat="37.987773986533284" lon="-8.695132965222001">
        <ele>279.39999999999998</ele>
        <time>2025-05-06T10:13:04Z</time>
      </trkpt>
      <trkpt lat="37.987685976549983" lon="-8.695296999067068">
        <ele>279.88</ele>
        <time>2025-05-06T10:13:05Z</time>
      </trkpt>
      <trkpt lat="37.987562008202076" lon="-8.69542901404202">
        <ele>279.39999999999998</ele>
        <time>2025-05-06T10:13:06Z</time>
      </trkpt>
      <trkpt lat="37.987412977963686" lon="-8.695547031238675">
        <ele>279.39999999999998</ele>
        <time>2025-05-06T10:13:07Z</time>
      </trkpt>
      <trkpt lat="37.987250033766031" lon="-8.695655995979905">
        <ele>279.39999999999998</ele>
        <time>2025-05-06T10:13:08Z</time>
      </trkpt>
      <trkpt lat="37.986130965873599" lon="-8.696257984265685">
        <ele>276.51999999999998</ele>
        <time>2025-05-06T10:13:14Z</time>
      </trkpt>
      <trkpt lat="37.985951006412506" lon="-8.696279022842646">
        <ele>276.04000000000002</ele>
        <time>2025-05-06T10:13:15Z</time>
      </trkpt>
      <trkpt lat="37.985742967575788" lon="-8.696302995085716">
        <ele>275.56</ele>
        <time>2025-05-06T10:13:16Z</time>
      </trkpt>
      <trkpt lat="37.985539035871625" lon="-8.696324033662677">
        <ele>275.06999999999999</ele>
        <time>2025-05-06T10:13:17Z</time>
      </trkpt>
      <trkpt lat="37.985339965671301" lon="-8.696329984813929">
        <ele>274.58999999999997</ele>
        <time>2025-05-06T10:13:18Z</time>
      </trkpt>
      <trkpt lat="37.985149025917053" lon="-8.696336019784212">
        <ele>274.58999999999997</ele>
        <time>2025-05-06T10:13:19Z</time>
      </trkpt>
      <trkpt lat="37.984958002343774" lon="-8.696341970935464">
        <ele>274.11000000000001</ele>
        <time>2025-05-06T10:13:20Z</time>
      </trkpt>
      <trkpt lat="37.984763039276004" lon="-8.696296038106084">
        <ele>273.63</ele>
        <time>2025-05-06T10:13:21Z</time>
      </trkpt>
      <trkpt lat="37.983451019972563" lon="-8.695844002068043">
        <ele>272.67000000000002</ele>
        <time>2025-05-06T10:13:27Z</time>
      </trkpt>
      <trkpt lat="37.981854015961289" lon="-8.695269003510475">
        <ele>273.63</ele>
        <time>2025-05-06T10:13:34Z</time>
      </trkpt>
      <trkpt lat="37.981282034888864" lon="-8.695099018514156">
        <ele>274.58999999999997</ele>
        <time>2025-05-06T10:13:37Z</time>
      </trkpt>
      <trkpt lat="37.979424018412828" lon="-8.694860972464085">
        <ele>277</ele>
        <time>2025-05-06T10:13:46Z</time>
      </trkpt>
      <trkpt lat="37.978316014632583" lon="-8.695080997422338">
        <ele>278.92000000000002</ele>
        <time>2025-05-06T10:13:52Z</time>
      </trkpt>
      <trkpt lat="37.978146029636264" lon="-8.695176970213652">
        <ele>279.39999999999998</ele>
        <time>2025-05-06T10:13:53Z</time>
      </trkpt>
      <trkpt lat="37.977984007447958" lon="-8.695290964096785">
        <ele>279.39999999999998</ele>
        <time>2025-05-06T10:13:54Z</time>
      </trkpt>
      <trkpt lat="37.977846041321754" lon="-8.695421973243356">
        <ele>279.88</ele>
        <time>2025-05-06T10:13:55Z</time>
      </trkpt>
      <trkpt lat="37.977739004418254" lon="-8.695572009310126">
        <ele>280.36000000000001</ele>
        <time>2025-05-06T10:13:56Z</time>
      </trkpt>
      <trkpt lat="37.977633979171515" lon="-8.695721961557865">
        <ele>280.83999999999997</ele>
        <time>2025-05-06T10:13:57Z</time>
      </trkpt>
      <trkpt lat="37.97756097279489" lon="-8.695893958210945">
        <ele>281.31999999999999</ele>
        <time>2025-05-06T10:13:58Z</time>
      </trkpt>
      <trkpt lat="37.977331979200244" lon="-8.696435010060668">
        <ele>282.27999999999997</ele>
        <time>2025-05-06T10:14:01Z</time>
      </trkpt>
      <trkpt lat="37.977187978103757" lon="-8.696975978091359">
        <ele>281.80000000000001</ele>
        <time>2025-05-06T10:14:04Z</time>
      </trkpt>
      <trkpt lat="37.977115977555513" lon="-8.697131965309382">
        <ele>281.31999999999999</ele>
        <time>2025-05-06T10:14:05Z</time>
      </trkpt>
      <trkpt lat="37.977016987279058" lon="-8.697259034961462">
        <ele>280.83999999999997</ele>
        <time>2025-05-06T10:14:06Z</time>
      </trkpt>
      <trkpt lat="37.976882960647345" lon="-8.697315026074648">
        <ele>279.88</ele>
        <time>2025-05-06T10:14:07Z</time>
      </trkpt>
      <trkpt lat="37.976744994521141" lon="-8.697366993874311">
        <ele>279.39999999999998</ele>
        <time>2025-05-06T10:14:08Z</time>
      </trkpt>
      <trkpt lat="37.976619014516473" lon="-8.697438994422555">
        <ele>278.92000000000002</ele>
        <time>2025-05-06T10:14:09Z</time>
      </trkpt>
      <trkpt lat="37.97650502063334" lon="-8.697537984699011">
        <ele>278.44</ele>
        <time>2025-05-06T10:14:10Z</time>
      </trkpt>
      <trkpt lat="37.976445006206632" lon="-8.69766203686595">
        <ele>277.95999999999998</ele>
        <time>2025-05-06T10:14:11Z</time>
      </trkpt>
      <trkpt lat="37.976406030356884" lon="-8.697798997163773">
        <ele>277.95999999999998</ele>
        <time>2025-05-06T10:14:12Z</time>
      </trkpt>
      <trkpt lat="37.976392032578588" lon="-8.697984991595149">
        <ele>277.48000000000002</ele>
        <time>2025-05-06T10:14:13Z</time>
      </trkpt>
      <trkpt lat="37.976412987336516" lon="-8.69815799407661">
        <ele>277</ele>
        <time>2025-05-06T10:14:14Z</time>
      </trkpt>
      <trkpt lat="37.976449029520154" lon="-8.698363015428186">
        <ele>276.51999999999998</ele>
        <time>2025-05-06T10:14:15Z</time>
      </trkpt>
      <trkpt lat="37.976486999541521" lon="-8.698586979880929">
        <ele>276.04000000000002</ele>
        <time>2025-05-06T10:14:16Z</time>
      </trkpt>
      <trkpt lat="37.976514995098114" lon="-8.698819996789098">
        <ele>275.56</ele>
        <time>2025-05-06T10:14:17Z</time>
      </trkpt>
      <trkpt lat="37.976502003148198" lon="-8.699047984555364">
        <ele>274.58999999999997</ele>
        <time>2025-05-06T10:14:18Z</time>
      </trkpt>
      <trkpt lat="37.976488005369902" lon="-8.699288964271545">
        <ele>273.63</ele>
        <time>2025-05-06T10:14:19Z</time>
      </trkpt>
      <trkpt lat="37.976473001763225" lon="-8.69953497312963">
        <ele>272.67000000000002</ele>
        <time>2025-05-06T10:14:20Z</time>
      </trkpt>
      <trkpt lat="37.976444000378251" lon="-8.700035037472844">
        <ele>269.79000000000002</ele>
        <time>2025-05-06T10:14:22Z</time>
      </trkpt>
      <trkpt lat="37.976452969014645" lon="-8.700945982709527">
        <ele>265.45999999999998</ele>
        <time>2025-05-06T10:14:26Z</time>
      </trkpt>
      <trkpt lat="37.976392032578588" lon="-8.701111022382975">
        <ele>264.01999999999998</ele>
        <time>2025-05-06T10:14:27Z</time>
      </trkpt>
      <trkpt lat="37.976307962089777" lon="-8.701235996559262">
        <ele>262.57999999999998</ele>
        <time>2025-05-06T10:14:28Z</time>
      </trkpt>
      <trkpt lat="37.976202014833689" lon="-8.701347978785634">
        <ele>261.13999999999999</ele>
        <time>2025-05-06T10:14:29Z</time>
      </trkpt>
      <trkpt lat="37.976092966273427" lon="-8.701462978497148">
        <ele>260.17000000000002</ele>
        <time>2025-05-06T10:14:30Z</time>
      </trkpt>
      <trkpt lat="37.9759890306741" lon="-8.701593987643719">
        <ele>258.73000000000002</ele>
        <time>2025-05-06T10:14:31Z</time>
      </trkpt>
      <trkpt lat="37.975919963791966" lon="-8.701773025095463">
        <ele>257.29000000000002</ele>
        <time>2025-05-06T10:14:32Z</time>
      </trkpt>
      <trkpt lat="37.975844023749232" lon="-8.701973017305136">
        <ele>255.84999999999999</ele>
        <time>2025-05-06T10:14:33Z</time>
      </trkpt>
      <trkpt lat="37.975375978276134" lon="-8.703326024115086">
        <ele>247.68000000000001</ele>
        <time>2025-05-06T10:14:39Z</time>
      </trkpt>
      <trkpt lat="37.975273970514536" lon="-8.703511012718082">
        <ele>246.72</ele>
        <time>2025-05-06T10:14:40Z</time>
      </trkpt>
      <trkpt lat="37.975143967196345" lon="-8.703640010207892">
        <ele>245.75</ele>
        <time>2025-05-06T10:14:41Z</time>
      </trkpt>
      <trkpt lat="37.974998038262129" lon="-8.703756015747786">
        <ele>245.75</ele>
        <time>2025-05-06T10:14:42Z</time>
      </trkpt>
      <trkpt lat="37.974842973053455" lon="-8.703866992145777">
        <ele>245.27000000000001</ele>
        <time>2025-05-06T10:14:43Z</time>
      </trkpt>
      <trkpt lat="37.974680028855801" lon="-8.703982997685671">
        <ele>245.27000000000001</ele>
        <time>2025-05-06T10:14:44Z</time>
      </trkpt>
      <trkpt lat="37.973849968984723" lon="-8.704574005678296">
        <ele>244.78999999999999</ele>
        <time>2025-05-06T10:14:49Z</time>
      </trkpt>
      <trkpt lat="37.973686018958688" lon="-8.704691017046571">
        <ele>244.31</ele>
        <time>2025-05-06T10:14:50Z</time>
      </trkpt>
      <trkpt lat="37.972074011340737" lon="-8.705328963696957">
        <ele>245.27000000000001</ele>
        <time>2025-05-06T10:14:59Z</time>
      </trkpt>
      <trkpt lat="37.971536982804537" lon="-8.705428037792444">
        <ele>247.19999999999999</ele>
        <time>2025-05-06T10:15:02Z</time>
      </trkpt>
      <trkpt lat="37.971345037221909" lon="-8.70546299032867">
        <ele>247.68000000000001</ele>
        <time>2025-05-06T10:15:03Z</time>
      </trkpt>
      <trkpt lat="37.971164993941784" lon="-8.705396018922329">
        <ele>248.16</ele>
        <time>2025-05-06T10:15:04Z</time>
      </trkpt>
      <trkpt lat="37.969752978533506" lon="-8.705063005909324">
        <ele>251.03999999999999</ele>
        <time>2025-05-06T10:15:11Z</time>
      </trkpt>
      <trkpt lat="37.967520039528608" lon="-8.705078009516001">
        <ele>254.41</ele>
        <time>2025-05-06T10:15:21Z</time>
      </trkpt>
      <trkpt lat="37.966115986928344" lon="-8.70527096092701">
        <ele>254.88999999999999</ele>
        <time>2025-05-06T10:15:28Z</time>
      </trkpt>
      <trkpt lat="37.96563402749598" lon="-8.705385960638523">
        <ele>254.41</ele>
        <time>2025-05-06T10:15:31Z</time>
      </trkpt>
      <trkpt lat="37.965531013906002" lon="-8.705500038340688">
        <ele>254.41</ele>
        <time>2025-05-06T10:15:32Z</time>
      </trkpt>
      <trkpt lat="37.96542095951736" lon="-8.705619983375073">
        <ele>254.41</ele>
        <time>2025-05-06T10:15:33Z</time>
      </trkpt>
      <trkpt lat="37.964939000084996" lon="-8.706102026626468">
        <ele>254.41</ele>
        <time>2025-05-06T10:15:37Z</time>
      </trkpt>
      <trkpt lat="37.964824000373483" lon="-8.70617201551795">
        <ele>253.44</ele>
        <time>2025-05-06T10:15:38Z</time>
      </trkpt>
      <trkpt lat="37.964660972356796" lon="-8.70617201551795">
        <ele>253.44</ele>
        <time>2025-05-06T10:15:39Z</time>
      </trkpt>
      <trkpt lat="37.964503979310393" lon="-8.706163968890905">
        <ele>253.44</ele>
        <time>2025-05-06T10:15:40Z</time>
      </trkpt>
      <trkpt lat="37.964330976828933" lon="-8.706133039668202">
        <ele>253.44</ele>
        <time>2025-05-06T10:15:41Z</time>
      </trkpt>
      <trkpt lat="37.963837031275034" lon="-8.70604301802814">
        <ele>252.47999999999999</ele>
        <time>2025-05-06T10:15:44Z</time>
      </trkpt>
      <trkpt lat="37.963689006865025" lon="-8.706091968342662">
        <ele>252.47999999999999</ele>
        <time>2025-05-06T10:15:45Z</time>
      </trkpt>
      <trkpt lat="37.96357300132513" lon="-8.706135973334312">
        <ele>252</ele>
        <time>2025-05-06T10:15:46Z</time>
      </trkpt>
      <trkpt lat="37.963494965806603" lon="-8.706229012459517">
        <ele>252</ele>
        <time>2025-05-06T10:15:47Z</time>
      </trkpt>
      <trkpt lat="37.963453978300095" lon="-8.706348035484552">
        <ele>252.47999999999999</ele>
        <time>2025-05-06T10:15:48Z</time>
      </trkpt>
      <trkpt lat="37.963429000228643" lon="-8.706472003832459">
        <ele>252.47999999999999</ele>
        <time>2025-05-06T10:15:49Z</time>
      </trkpt>
      <trkpt lat="37.963436963036656" lon="-8.706628996878862">
        <ele>252.47999999999999</ele>
        <time>2025-05-06T10:15:50Z</time>
      </trkpt>
      <trkpt lat="37.963447021320462" lon="-8.706799987703562">
        <ele>252.47999999999999</ele>
        <time>2025-05-06T10:15:51Z</time>
      </trkpt>
      <trkpt lat="37.963455989956856" lon="-8.706978019326925">
        <ele>252.47999999999999</ele>
        <time>2025-05-06T10:15:52Z</time>
      </trkpt>
      <trkpt lat="37.963471999391913" lon="-8.707266021519899">
        <ele>252.47999999999999</ele>
        <time>2025-05-06T10:15:54Z</time>
      </trkpt>
      <trkpt lat="37.963418019935489" lon="-8.707454027608037">
        <ele>252.47999999999999</ele>
        <time>2025-05-06T10:15:55Z</time>
      </trkpt>
      <trkpt lat="37.963364962488413" lon="-8.70759098790586">
        <ele>252.47999999999999</ele>
        <time>2025-05-06T10:15:56Z</time>
      </trkpt>
      <trkpt lat="37.963257003575563" lon="-8.707716967910528">
        <ele>252.47999999999999</ele>
        <time>2025-05-06T10:15:57Z</time>
      </trkpt>
      <trkpt lat="37.963128006085753" lon="-8.707787962630391">
        <ele>252</ele>
        <time>2025-05-06T10:15:58Z</time>
      </trkpt>
      <trkpt lat="37.962981993332505" lon="-8.707868009805679">
        <ele>252</ele>
        <time>2025-05-06T10:15:59Z</time>
      </trkpt>
      <trkpt lat="37.962827011942863" lon="-8.707953002303839">
        <ele>252.47999999999999</ele>
        <time>2025-05-06T10:16:00Z</time>
      </trkpt>
      <trkpt lat="37.962678987532854" lon="-8.708033971488476">
        <ele>252.47999999999999</ele>
        <time>2025-05-06T10:16:01Z</time>
      </trkpt>
      <trkpt lat="37.962561976164579" lon="-8.708132039755583">
        <ele>252.47999999999999</ele>
        <time>2025-05-06T10:16:02Z</time>
      </trkpt>
      <trkpt lat="37.962482012808323" lon="-8.708266988396645">
        <ele>252.47999999999999</ele>
        <time>2025-05-06T10:16:03Z</time>
      </trkpt>
      <trkpt lat="37.962402971461415" lon="-8.708401015028358">
        <ele>252.47999999999999</ele>
        <time>2025-05-06T10:16:04Z</time>
      </trkpt>
      <trkpt lat="37.96232501976192" lon="-8.708532024174929">
        <ele>252</ele>
        <time>2025-05-06T10:16:05Z</time>
      </trkpt>
      <trkpt lat="37.962248995900154" lon="-8.708661021664739">
        <ele>251.52000000000001</ele>
        <time>2025-05-06T10:16:06Z</time>
      </trkpt>
      <trkpt lat="37.962141036987305" lon="-8.70870703831315">
        <ele>251.03999999999999</ele>
        <time>2025-05-06T10:16:07Z</time>
      </trkpt>
      <trkpt lat="37.96202402561903" lon="-8.70870703831315">
        <ele>250.56</ele>
        <time>2025-05-06T10:16:08Z</time>
      </trkpt>
      <trkpt lat="37.96189796179533" lon="-8.708675019443035">
        <ele>250.08000000000001</ele>
        <time>2025-05-06T10:16:09Z</time>
      </trkpt>
      <trkpt lat="37.961781034246087" lon="-8.708646018058062">
        <ele>249.59999999999999</ele>
        <time>2025-05-06T10:16:10Z</time>
      </trkpt>
      <trkpt lat="37.961663017049432" lon="-8.708692034706473">
        <ele>249.12</ele>
        <time>2025-05-06T10:16:11Z</time>
      </trkpt>
      <trkpt lat="37.961580958217382" lon="-8.708777027204633">
        <ele>248.63999999999999</ele>
        <time>2025-05-06T10:16:12Z</time>
      </trkpt>
      <trkpt lat="37.961523961275816" lon="-8.708899989724159">
        <ele>248.16</ele>
        <time>2025-05-06T10:16:13Z</time>
      </trkpt>
      <trkpt lat="37.961468975991011" lon="-8.70905002579093">
        <ele>247.68000000000001</ele>
        <time>2025-05-06T10:16:14Z</time>
      </trkpt>
      <trkpt lat="37.961440980434418" lon="-8.709235014393926">
        <ele>247.19999999999999</ele>
        <time>2025-05-06T10:16:15Z</time>
      </trkpt>
      <trkpt lat="37.961412984877825" lon="-8.709423020482063">
        <ele>246.22999999999999</ele>
        <time>2025-05-06T10:16:16Z</time>
      </trkpt>
      <trkpt lat="37.961385995149612" lon="-8.709599040448666">
        <ele>245.75</ele>
        <time>2025-05-06T10:16:17Z</time>
      </trkpt>
      <trkpt lat="37.961340984329581" lon="-8.709752010181546">
        <ele>245.27000000000001</ele>
        <time>2025-05-06T10:16:18Z</time>
      </trkpt>
      <trkpt lat="37.961263032630086" lon="-8.709860974922776">
        <ele>244.78999999999999</ele>
        <time>2025-05-06T10:16:19Z</time>
      </trkpt>
      <trkpt lat="37.961160019040108" lon="-8.709885030984879">
        <ele>244.31</ele>
        <time>2025-05-06T10:16:20Z</time>
      </trkpt>
      <trkpt lat="37.96105700545013" lon="-8.709899028763175">
        <ele>243.83000000000001</ele>
        <time>2025-05-06T10:16:21Z</time>
      </trkpt>
      <trkpt lat="37.960947034880519" lon="-8.709833985194564">
        <ele>243.34999999999999</ele>
        <time>2025-05-06T10:16:22Z</time>
      </trkpt>
      <trkpt lat="37.9608219768852" lon="-8.709758967161179">
        <ele>242.87</ele>
        <time>2025-05-06T10:16:23Z</time>
      </trkpt>
      <trkpt lat="37.960690967738628" lon="-8.709683027118444">
        <ele>242.38999999999999</ele>
        <time>2025-05-06T10:16:24Z</time>
      </trkpt>
      <trkpt lat="37.960554007440805" lon="-8.709616977721453">
        <ele>242.38999999999999</ele>
        <time>2025-05-06T10:16:25Z</time>
      </trkpt>
      <trkpt lat="37.960416041314602" lon="-8.709585964679718">
        <ele>241.91</ele>
        <time>2025-05-06T10:16:26Z</time>
      </trkpt>
      <trkpt lat="37.960270028561354" lon="-8.709640027955174">
        <ele>241.43000000000001</ele>
        <time>2025-05-06T10:16:27Z</time>
      </trkpt>
      <trkpt lat="37.960128039121628" lon="-8.709700964391232">
        <ele>240.94999999999999</ele>
        <time>2025-05-06T10:16:28Z</time>
      </trkpt>
      <trkpt lat="37.959984038025141" lon="-8.709762990474701">
        <ele>240.47</ele>
        <time>2025-05-06T10:16:29Z</time>
      </trkpt>
      <trkpt lat="37.959845988079906" lon="-8.709821999073029">
        <ele>239.50999999999999</ele>
        <time>2025-05-06T10:16:30Z</time>
      </trkpt>
      <trkpt lat="37.959723025560379" lon="-8.709829039871693">
        <ele>238.53999999999999</ele>
        <time>2025-05-06T10:16:31Z</time>
      </trkpt>
      <trkpt lat="37.95959503389895" lon="-8.709810012951493">
        <ele>237.58000000000001</ele>
        <time>2025-05-06T10:16:32Z</time>
      </trkpt>
      <trkpt lat="37.959466958418489" lon="-8.709790986031294">
        <ele>236.62</ele>
        <time>2025-05-06T10:16:33Z</time>
      </trkpt>
      <trkpt lat="37.959341984242201" lon="-8.709772964939475">
        <ele>235.66</ele>
        <time>2025-05-06T10:16:34Z</time>
      </trkpt>
      <trkpt lat="37.959222961217165" lon="-8.709755027666688">
        <ele>234.69999999999999</ele>
        <time>2025-05-06T10:16:35Z</time>
      </trkpt>
      <trkpt lat="37.959126988425851" lon="-8.709838008508086">
        <ele>234.22</ele>
        <time>2025-05-06T10:16:36Z</time>
      </trkpt>
      <trkpt lat="37.959025986492634" lon="-8.709926018491387">
        <ele>233.74000000000001</ele>
        <time>2025-05-06T10:16:37Z</time>
      </trkpt>
      <trkpt lat="37.958919033408165" lon="-8.710017967969179">
        <ele>232.30000000000001</ele>
        <time>2025-05-06T10:16:38Z</time>
      </trkpt>
      <trkpt lat="37.958800010383129" lon="-8.710064990445972">
        <ele>231.81</ele>
        <time>2025-05-06T10:16:39Z</time>
      </trkpt>
      <trkpt lat="37.958687022328377" lon="-8.710098015144467">
        <ele>231.33000000000001</ele>
        <time>2025-05-06T10:16:40Z</time>
      </trkpt>
      <trkpt lat="37.958567999303341" lon="-8.710045041516423">
        <ele>230.37</ele>
        <time>2025-05-06T10:16:41Z</time>
      </trkpt>
      <trkpt lat="37.958448976278305" lon="-8.709987960755825">
        <ele>229.88999999999999</ele>
        <time>2025-05-06T10:16:42Z</time>
      </trkpt>
      <trkpt lat="37.958378987386823" lon="-8.709852006286383">
        <ele>229.41</ele>
        <time>2025-05-06T10:16:43Z</time>
      </trkpt>
      <trkpt lat="37.958302963525057" lon="-8.709705993533135">
        <ele>229.41</ele>
        <time>2025-05-06T10:16:44Z</time>
      </trkpt>
      <trkpt lat="37.958227023482323" lon="-8.709557969123125">
        <ele>228.93000000000001</ele>
        <time>2025-05-06T10:16:45Z</time>
      </trkpt>
      <trkpt lat="37.958152005448937" lon="-8.709413968026638">
        <ele>228.93000000000001</ele>
        <time>2025-05-06T10:16:46Z</time>
      </trkpt>
      <trkpt lat="37.958052009344101" lon="-8.709310032427311">
        <ele>229.41</ele>
        <time>2025-05-06T10:16:47Z</time>
      </trkpt>
      <trkpt lat="37.957927035167813" lon="-8.709212969988585">
        <ele>229.41</ele>
        <time>2025-05-06T10:16:48Z</time>
      </trkpt>
      <trkpt lat="37.957787979394197" lon="-8.709105011075735">
        <ele>229.41</ele>
        <time>2025-05-06T10:16:49Z</time>
      </trkpt>
      <trkpt lat="37.957640960812569" lon="-8.708985988050699">
        <ele>229.88999999999999</ele>
        <time>2025-05-06T10:16:50Z</time>
      </trkpt>
      <trkpt lat="37.957509029656649" lon="-8.708827989175916">
        <ele>229.88999999999999</ele>
        <time>2025-05-06T10:16:51Z</time>
      </trkpt>
      <trkpt lat="37.957120025530457" lon="-8.708363967016339">
        <ele>229.88999999999999</ele>
        <time>2025-05-06T10:16:54Z</time>
      </trkpt>
      <trkpt lat="37.956964960321784" lon="-8.708253996446729">
        <ele>229.88999999999999</ele>
        <time>2025-05-06T10:16:55Z</time>
      </trkpt>
      <trkpt lat="37.956802016124129" lon="-8.70814997702837">
        <ele>229.88999999999999</ele>
        <time>2025-05-06T10:16:56Z</time>
      </trkpt>
      <trkpt lat="37.95598603785038" lon="-8.707686960697174">
        <ele>230.37</ele>
        <time>2025-05-06T10:17:01Z</time>
      </trkpt>
      <trkpt lat="37.955824015662074" lon="-8.707639016211033">
        <ele>230.37</ele>
        <time>2025-05-06T10:17:02Z</time>
      </trkpt>
      <trkpt lat="37.955660987645388" lon="-8.707589982077479">
        <ele>229.88999999999999</ele>
        <time>2025-05-06T10:17:03Z</time>
      </trkpt>
      <trkpt lat="37.955511035397649" lon="-8.707544971257448">
        <ele>229.88999999999999</ele>
        <time>2025-05-06T10:17:04Z</time>
      </trkpt>
      <trkpt lat="37.955387989059091" lon="-8.707405999302864">
        <ele>229.88999999999999</ele>
        <time>2025-05-06T10:17:05Z</time>
      </trkpt>
      <trkpt lat="37.955276006832719" lon="-8.707254035398364">
        <ele>229.41</ele>
        <time>2025-05-06T10:17:06Z</time>
      </trkpt>
      <trkpt lat="37.955161007121205" lon="-8.707077009603381">
        <ele>228.93000000000001</ele>
        <time>2025-05-06T10:17:07Z</time>
      </trkpt>
      <trkpt lat="37.955039972439408" lon="-8.706891015172005">
        <ele>228.44999999999999</ele>
        <time>2025-05-06T10:17:08Z</time>
      </trkpt>
      <trkpt lat="37.954798992723227" lon="-8.706521037966013">
        <ele>226.53</ele>
        <time>2025-05-06T10:17:10Z</time>
      </trkpt>
      <trkpt lat="37.95463303104043" lon="-8.706394974142313">
        <ele>226.05000000000001</ele>
        <time>2025-05-06T10:17:11Z</time>
      </trkpt>
      <trkpt lat="37.95446396805346" lon="-8.706296989694238">
        <ele>225.09</ele>
        <time>2025-05-06T10:17:12Z</time>
      </trkpt>
      <trkpt lat="37.954285014420748" lon="-8.706222977489233">
        <ele>224.12</ele>
        <time>2025-05-06T10:17:13Z</time>
      </trkpt>
      <trkpt lat="37.954112011939287" lon="-8.70615097694099">
        <ele>222.68000000000001</ele>
        <time>2025-05-06T10:17:14Z</time>
      </trkpt>
      <trkpt lat="37.953950995579362" lon="-8.70608501136303">
        <ele>221.24000000000001</ele>
        <time>2025-05-06T10:17:15Z</time>
      </trkpt>
      <trkpt lat="37.953832978382707" lon="-8.705977974459529">
        <ele>220.28</ele>
        <time>2025-05-06T10:17:16Z</time>
      </trkpt>
      <trkpt lat="37.953726025298238" lon="-8.705845037475228">
        <ele>219.31999999999999</ele>
        <time>2025-05-06T10:17:17Z</time>
      </trkpt>
      <trkpt lat="37.953616976737976" lon="-8.705708999186754">
        <ele>218.36000000000001</ele>
        <time>2025-05-06T10:17:18Z</time>
      </trkpt>
      <trkpt lat="37.953508011996746" lon="-8.705572038888931">
        <ele>217.88</ele>
        <time>2025-05-06T10:17:19Z</time>
      </trkpt>
      <trkpt lat="37.953403992578387" lon="-8.705442035570741">
        <ele>216.91</ele>
        <time>2025-05-06T10:17:20Z</time>
      </trkpt>
      <trkpt lat="37.953268038108945" lon="-8.705390989780426">
        <ele>215.94999999999999</ele>
        <time>2025-05-06T10:17:21Z</time>
      </trkpt>
      <trkpt lat="37.95313099399209" lon="-8.705384032800794">
        <ele>214.99000000000001</ele>
        <time>2025-05-06T10:17:22Z</time>
      </trkpt>
      <trkpt lat="37.952976012602448" lon="-8.705395013093948">
        <ele>214.03</ele>
        <time>2025-05-06T10:17:23Z</time>
      </trkpt>
      <trkpt lat="37.95280703343451" lon="-8.705406999215484">
        <ele>213.06999999999999</ele>
        <time>2025-05-06T10:17:24Z</time>
      </trkpt>
      <trkpt lat="37.952515007928014" lon="-8.705396018922329">
        <ele>211.15000000000001</ele>
        <time>2025-05-06T10:17:26Z</time>
      </trkpt>
      <trkpt lat="37.952409982681274" lon="-8.705340027809143">
        <ele>210.66999999999999</ele>
        <time>2025-05-06T10:17:27Z</time>
      </trkpt>
      <trkpt lat="37.95231400988996" lon="-8.705227039754391">
        <ele>210.19</ele>
        <time>2025-05-06T10:17:28Z</time>
      </trkpt>
      <trkpt lat="37.952242009341717" lon="-8.705093013122678">
        <ele>209.69999999999999</ele>
        <time>2025-05-06T10:17:29Z</time>
      </trkpt>
      <trkpt lat="37.952160034328699" lon="-8.704938031733036">
        <ele>209.22</ele>
        <time>2025-05-06T10:17:30Z</time>
      </trkpt>
      <trkpt lat="37.952066995203495" lon="-8.704824959859252">
        <ele>208.74000000000001</ele>
        <time>2025-05-06T10:17:31Z</time>
      </trkpt>
      <trkpt lat="37.951957024633884" lon="-8.704748013988137">
        <ele>208.74000000000001</ele>
        <time>2025-05-06T10:17:32Z</time>
      </trkpt>
      <trkpt lat="37.951843030750751" lon="-8.704713983461261">
        <ele>208.74000000000001</ele>
        <time>2025-05-06T10:17:33Z</time>
      </trkpt>
      <trkpt lat="37.951701963320374" lon="-8.704718006774783">
        <ele>208.74000000000001</ele>
        <time>2025-05-06T10:17:34Z</time>
      </trkpt>
      <trkpt lat="37.951548993587494" lon="-8.704723035916686">
        <ele>208.74000000000001</ele>
        <time>2025-05-06T10:17:35Z</time>
      </trkpt>
      <trkpt lat="37.951212041079998" lon="-8.70473301038146">
        <ele>209.22</ele>
        <time>2025-05-06T10:17:37Z</time>
      </trkpt>
      <trkpt lat="37.951034009456635" lon="-8.704708032310009">
        <ele>209.22</ele>
        <time>2025-05-06T10:17:38Z</time>
      </trkpt>
      <trkpt lat="37.949435999616981" lon="-8.704576017335057">
        <ele>207.30000000000001</ele>
        <time>2025-05-06T10:17:46Z</time>
      </trkpt>
      <trkpt lat="37.947732964530587" lon="-8.704987987875938">
        <ele>201.53</ele>
        <time>2025-05-06T10:17:54Z</time>
      </trkpt>
      <trkpt lat="37.946618003770709" lon="-8.705443041399121">
        <ele>201.53</ele>
        <time>2025-05-06T10:18:00Z</time>
      </trkpt>
      <trkpt lat="37.94649001210928" lon="-8.705514958128333">
        <ele>201.53</ele>
        <time>2025-05-06T10:18:01Z</time>
      </trkpt>
      <trkpt lat="37.94636202044785" lon="-8.705617971718311">
        <ele>202.00999999999999</ele>
        <time>2025-05-06T10:18:02Z</time>
      </trkpt>
      <trkpt lat="37.946270992979407" lon="-8.705760966986418">
        <ele>202.00999999999999</ele>
        <time>2025-05-06T10:18:03Z</time>
      </trkpt>
      <trkpt lat="37.946197986602783" lon="-8.705937992781401">
        <ele>202.00999999999999</ele>
        <time>2025-05-06T10:18:04Z</time>
      </trkpt>
      <trkpt lat="37.946140989661217" lon="-8.70610797777772">
        <ele>202.00999999999999</ele>
        <time>2025-05-06T10:18:05Z</time>
      </trkpt>
      <trkpt lat="37.946087010204792" lon="-8.706269999966025">
        <ele>202.00999999999999</ele>
        <time>2025-05-06T10:18:06Z</time>
      </trkpt>
      <trkpt lat="37.94601702131331" lon="-8.706417018547654">
        <ele>202.00999999999999</ele>
        <time>2025-05-06T10:18:07Z</time>
      </trkpt>
      <trkpt lat="37.945909984409809" lon="-8.706523971632123">
        <ele>202.00999999999999</ele>
        <time>2025-05-06T10:18:08Z</time>
      </trkpt>
      <trkpt lat="37.945780986919999" lon="-8.706587003543973">
        <ele>202.00999999999999</ele>
        <time>2025-05-06T10:18:09Z</time>
      </trkpt>
      <trkpt lat="37.945646960288286" lon="-8.706628996878862">
        <ele>201.53</ele>
        <time>2025-05-06T10:18:10Z</time>
      </trkpt>
      <trkpt lat="37.945517040789127" lon="-8.706626985222101">
        <ele>201.53</ele>
        <time>2025-05-06T10:18:11Z</time>
      </trkpt>
      <trkpt lat="37.945393994450569" lon="-8.706599995493889">
        <ele>201.53</ele>
        <time>2025-05-06T10:18:12Z</time>
      </trkpt>
      <trkpt lat="37.945258961990476" lon="-8.706534029915929">
        <ele>202.00999999999999</ele>
        <time>2025-05-06T10:18:13Z</time>
      </trkpt>
      <trkpt lat="37.9451609775424" lon="-8.706418024376035">
        <ele>202.49000000000001</ele>
        <time>2025-05-06T10:18:14Z</time>
      </trkpt>
      <trkpt lat="37.945063998922706" lon="-8.706303024664521">
        <ele>202.97999999999999</ele>
        <time>2025-05-06T10:18:15Z</time>
      </trkpt>
      <trkpt lat="37.944999039173126" lon="-8.706134967505932">
        <ele>203.46000000000001</ele>
        <time>2025-05-06T10:18:16Z</time>
      </trkpt>
      <trkpt lat="37.944972971454263" lon="-8.705943021923304">
        <ele>203.94</ele>
        <time>2025-05-06T10:18:17Z</time>
      </trkpt>
      <trkpt lat="37.944946987554431" lon="-8.705740012228489">
        <ele>203.94</ele>
        <time>2025-05-06T10:18:18Z</time>
      </trkpt>
      <trkpt lat="37.944919997826219" lon="-8.705534990876913">
        <ele>204.41999999999999</ele>
        <time>2025-05-06T10:18:19Z</time>
      </trkpt>
      <trkpt lat="37.944856965914369" lon="-8.705356037244201">
        <ele>204.90000000000001</ele>
        <time>2025-05-06T10:18:20Z</time>
      </trkpt>
      <trkpt lat="37.94477398507297" lon="-8.705189991742373">
        <ele>205.38</ele>
        <time>2025-05-06T10:18:21Z</time>
      </trkpt>
      <trkpt lat="37.944668037816882" lon="-8.705042973160744">
        <ele>206.34</ele>
        <time>2025-05-06T10:18:22Z</time>
      </trkpt>
      <trkpt lat="37.944521019235253" lon="-8.704941971227527">
        <ele>206.34</ele>
        <time>2025-05-06T10:18:23Z</time>
      </trkpt>
      <trkpt lat="37.944360002875328" lon="-8.704837029799819">
        <ele>206.34</ele>
        <time>2025-05-06T10:18:24Z</time>
      </trkpt>
      <trkpt lat="37.944180965423584" lon="-8.704779027029872">
        <ele>206.34</ele>
        <time>2025-05-06T10:18:25Z</time>
      </trkpt>
      <trkpt lat="37.943994970992208" lon="-8.704720018431544">
        <ele>206.34</ele>
        <time>2025-05-06T10:18:26Z</time>
      </trkpt>
      <trkpt lat="37.943797996267676" lon="-8.704667966812849">
        <ele>206.34</ele>
        <time>2025-05-06T10:18:27Z</time>
      </trkpt>
      <trkpt lat="37.943586017936468" lon="-8.704662015661597">
        <ele>206.34</ele>
        <time>2025-05-06T10:18:28Z</time>
      </trkpt>
      <trkpt lat="37.943370016291738" lon="-8.704654974862933">
        <ele>206.34</ele>
        <time>2025-05-06T10:18:29Z</time>
      </trkpt>
      <trkpt lat="37.943163989111781" lon="-8.704651035368443">
        <ele>206.34</ele>
        <time>2025-05-06T10:18:30Z</time>
      </trkpt>
      <trkpt lat="37.942984029650688" lon="-8.704704008996487">
        <ele>206.34</ele>
        <time>2025-05-06T10:18:31Z</time>
      </trkpt>
      <trkpt lat="37.942827036604285" lon="-8.704750025644898">
        <ele>205.86000000000001</ele>
        <time>2025-05-06T10:18:32Z</time>
      </trkpt>
      <trkpt lat="37.942699966952205" lon="-8.704815991222858">
        <ele>205.38</ele>
        <time>2025-05-06T10:18:33Z</time>
      </trkpt>
      <trkpt lat="37.94258002191782" lon="-8.704913975670934">
        <ele>204.90000000000001</ele>
        <time>2025-05-06T10:18:34Z</time>
      </trkpt>
      <trkpt lat="37.942486982792616" lon="-8.70505403727293">
        <ele>204.41999999999999</ele>
        <time>2025-05-06T10:18:35Z</time>
      </trkpt>
      <trkpt lat="37.942384975031018" lon="-8.705208012834191">
        <ele>204.41999999999999</ele>
        <time>2025-05-06T10:18:36Z</time>
      </trkpt>
      <trkpt lat="37.941843001171947" lon="-8.706020973622799">
        <ele>204.41999999999999</ele>
        <time>2025-05-06T10:18:41Z</time>
      </trkpt>
      <trkpt lat="37.941732024773955" lon="-8.706084005534649">
        <ele>204.41999999999999</ele>
        <time>2025-05-06T10:18:42Z</time>
      </trkpt>
      <trkpt lat="37.941619958728552" lon="-8.706106971949339">
        <ele>204.41999999999999</ele>
        <time>2025-05-06T10:18:43Z</time>
      </trkpt>
      <trkpt lat="37.941494984552264" lon="-8.70608501136303">
        <ele>204.41999999999999</ele>
        <time>2025-05-06T10:18:44Z</time>
      </trkpt>
      <trkpt lat="37.941370010375977" lon="-8.705977974459529">
        <ele>204.90000000000001</ele>
        <time>2025-05-06T10:18:45Z</time>
      </trkpt>
      <trkpt lat="37.941275965422392" lon="-8.705862974748015">
        <ele>204.90000000000001</ele>
        <time>2025-05-06T10:18:46Z</time>
      </trkpt>
      <trkpt lat="37.941161971539259" lon="-8.705724002793431">
        <ele>205.38</ele>
        <time>2025-05-06T10:18:47Z</time>
      </trkpt>
      <trkpt lat="37.94058102183044" lon="-8.704853961244226">
        <ele>205.38</ele>
        <time>2025-05-06T10:18:52Z</time>
      </trkpt>
      <trkpt lat="37.940512038767338" lon="-8.704649023711681">
        <ele>205.38</ele>
        <time>2025-05-06T10:18:53Z</time>
      </trkpt>
      <trkpt lat="37.940468033775687" lon="-8.704442996531725">
        <ele>205.86000000000001</ele>
        <time>2025-05-06T10:18:54Z</time>
      </trkpt>
      <trkpt lat="37.940263012424111" lon="-8.703298028558493">
        <ele>205.86000000000001</ele>
        <time>2025-05-06T10:18:59Z</time>
      </trkpt>
      <trkpt lat="37.940202997997403" lon="-8.703092001378536">
        <ele>206.81999999999999</ele>
        <time>2025-05-06T10:19:00Z</time>
      </trkpt>
      <trkpt lat="37.940095039084554" lon="-8.702948000282049">
        <ele>206.81999999999999</ele>
        <time>2025-05-06T10:19:01Z</time>
      </trkpt>
      <trkpt lat="37.939983978867531" lon="-8.702827971428633">
        <ele>207.30000000000001</ele>
        <time>2025-05-06T10:19:02Z</time>
      </trkpt>
      <trkpt lat="37.939860010519624" lon="-8.702767034992576">
        <ele>207.78</ele>
        <time>2025-05-06T10:19:03Z</time>
      </trkpt>
      <trkpt lat="37.939720032736659" lon="-8.702794024720788">
        <ele>207.78</ele>
        <time>2025-05-06T10:19:04Z</time>
      </trkpt>
      <trkpt lat="37.939590029418468" lon="-8.702827971428633">
        <ele>208.25999999999999</ele>
        <time>2025-05-06T10:19:05Z</time>
      </trkpt>
      <trkpt lat="37.93946698307991" lon="-8.702921010553837">
        <ele>208.25999999999999</ele>
        <time>2025-05-06T10:19:06Z</time>
      </trkpt>
      <trkpt lat="37.939371010288596" lon="-8.703044978901744">
        <ele>208.25999999999999</ele>
        <time>2025-05-06T10:19:07Z</time>
      </trkpt>
      <trkpt lat="37.939274031668901" lon="-8.703170036897063">
        <ele>208.74000000000001</ele>
        <time>2025-05-06T10:19:08Z</time>
      </trkpt>
      <trkpt lat="37.939184010028839" lon="-8.703286964446306">
        <ele>208.74000000000001</ele>
        <time>2025-05-06T10:19:09Z</time>
      </trkpt>
      <trkpt lat="37.939060963690281" lon="-8.703333986923099">
        <ele>208.74000000000001</ele>
        <time>2025-05-06T10:19:10Z</time>
      </trkpt>
      <trkpt lat="37.938947975635529" lon="-8.703304985538125">
        <ele>208.74000000000001</ele>
        <time>2025-05-06T10:19:11Z</time>
      </trkpt>
      <trkpt lat="37.93884202837944" lon="-8.703259974718094">
        <ele>209.22</ele>
        <time>2025-05-06T10:19:12Z</time>
      </trkpt>
      <trkpt lat="37.938729962334037" lon="-8.703247988596559">
        <ele>209.22</ele>
        <time>2025-05-06T10:19:13Z</time>
      </trkpt>
      <trkpt lat="37.938628038391471" lon="-8.703286964446306">
        <ele>209.22</ele>
        <time>2025-05-06T10:19:14Z</time>
      </trkpt>
      <trkpt lat="37.93854002840817" lon="-8.703373968601227">
        <ele>209.69999999999999</ele>
        <time>2025-05-06T10:19:15Z</time>
      </trkpt>
      <trkpt lat="37.938439026474953" lon="-8.703498020768166">
        <ele>209.69999999999999</ele>
        <time>2025-05-06T10:19:16Z</time>
      </trkpt>
      <trkpt lat="37.93832897208631" lon="-8.703633975237608">
        <ele>209.22</ele>
        <time>2025-05-06T10:19:17Z</time>
      </trkpt>
      <trkpt lat="37.937515005469322" lon="-8.704424975439906">
        <ele>206.81999999999999</ele>
        <time>2025-05-06T10:19:23Z</time>
      </trkpt>
      <trkpt lat="37.937372010201216" lon="-8.70445397682488">
        <ele>206.34</ele>
        <time>2025-05-06T10:19:24Z</time>
      </trkpt>
      <trkpt lat="37.937224991619587" lon="-8.70447501540184">
        <ele>205.86000000000001</ele>
        <time>2025-05-06T10:19:25Z</time>
      </trkpt>
      <trkpt lat="37.937065986916423" lon="-8.704424975439906">
        <ele>204.90000000000001</ele>
        <time>2025-05-06T10:19:26Z</time>
      </trkpt>
      <trkpt lat="37.93688703328371" lon="-8.70436797849834">
        <ele>204.41999999999999</ele>
        <time>2025-05-06T10:19:27Z</time>
      </trkpt>
      <trkpt lat="37.935430007055402" lon="-8.704189024865627">
        <ele>200.09</ele>
        <time>2025-05-06T10:19:34Z</time>
      </trkpt>
      <trkpt lat="37.935088025406003" lon="-8.704144014045596">
        <ele>199.13</ele>
        <time>2025-05-06T10:19:36Z</time>
      </trkpt>
      <trkpt lat="37.9349759593606" lon="-8.704068996012211">
        <ele>199.13</ele>
        <time>2025-05-06T10:19:37Z</time>
      </trkpt>
      <trkpt lat="37.934895996004343" lon="-8.703924994915724">
        <ele>198.65000000000001</ele>
        <time>2025-05-06T10:19:38Z</time>
      </trkpt>
      <trkpt lat="37.934831958264112" lon="-8.703770013526082">
        <ele>198.65000000000001</ele>
        <time>2025-05-06T10:19:39Z</time>
      </trkpt>
      <trkpt lat="37.934770015999675" lon="-8.703592987731099">
        <ele>198.65000000000001</ele>
        <time>2025-05-06T10:19:40Z</time>
      </trkpt>
      <trkpt lat="37.93469600379467" lon="-8.703406993299723">
        <ele>198.16999999999999</ele>
        <time>2025-05-06T10:19:41Z</time>
      </trkpt>
      <trkpt lat="37.934591984376311" lon="-8.703224016353488">
        <ele>198.16999999999999</ele>
        <time>2025-05-06T10:19:42Z</time>
      </trkpt>
      <trkpt lat="37.933595962822437" lon="-8.701568003743887">
        <ele>193.84</ele>
        <time>2025-05-06T10:19:50Z</time>
      </trkpt>
      <trkpt lat="37.933453973382711" lon="-8.701473036780953">
        <ele>193.36000000000001</ele>
        <time>2025-05-06T10:19:51Z</time>
      </trkpt>
      <trkpt lat="37.933313995599747" lon="-8.701421990990639">
        <ele>192.88</ele>
        <time>2025-05-06T10:19:52Z</time>
      </trkpt>
      <trkpt lat="37.933154990896583" lon="-8.701405981555581">
        <ele>192.40000000000001</ele>
        <time>2025-05-06T10:19:53Z</time>
      </trkpt>
      <trkpt lat="37.932959022000432" lon="-8.701387038454413">
        <ele>191.44</ele>
        <time>2025-05-06T10:19:54Z</time>
      </trkpt>
      <trkpt lat="37.932013962417841" lon="-8.701263992115855">
        <ele>190</ele>
        <time>2025-05-06T10:19:59Z</time>
      </trkpt>
      <trkpt lat="37.931852024048567" lon="-8.701190985739231">
        <ele>189.52000000000001</ele>
        <time>2025-05-06T10:20:00Z</time>
      </trkpt>
      <trkpt lat="37.931691007688642" lon="-8.701112028211355">
        <ele>188.56</ele>
        <time>2025-05-06T10:20:01Z</time>
      </trkpt>
      <trkpt lat="37.930458029732108" lon="-8.700250033289194">
        <ele>185.19</ele>
        <time>2025-05-06T10:20:08Z</time>
      </trkpt>
      <trkpt lat="37.93026901781559" lon="-8.700182978063822">
        <ele>184.71000000000001</ele>
        <time>2025-05-06T10:20:09Z</time>
      </trkpt>
      <trkpt lat="37.928636977449059" lon="-8.699673023074865">
        <ele>183.27000000000001</ele>
        <time>2025-05-06T10:20:18Z</time>
      </trkpt>
      <trkpt lat="37.928484007716179" lon="-8.699714010581374">
        <ele>183.75</ele>
        <time>2025-05-06T10:20:19Z</time>
      </trkpt>
      <trkpt lat="37.928334977477789" lon="-8.69976899586618">
        <ele>183.75</ele>
        <time>2025-05-06T10:20:20Z</time>
      </trkpt>
      <trkpt lat="37.927149021998048" lon="-8.70017996057868">
        <ele>185.66999999999999</ele>
        <time>2025-05-06T10:20:27Z</time>
      </trkpt>
      <trkpt lat="37.927006026729941" lon="-8.700167974457145">
        <ele>185.66999999999999</ele>
        <time>2025-05-06T10:20:28Z</time>
      </trkpt>
      <trkpt lat="37.926878035068512" lon="-8.700115000829101">
        <ele>185.66999999999999</ele>
        <time>2025-05-06T10:20:29Z</time>
      </trkpt>
      <trkpt lat="37.926740990951657" lon="-8.700020033866167">
        <ele>185.66999999999999</ele>
        <time>2025-05-06T10:20:30Z</time>
      </trkpt>
      <trkpt lat="37.92659598402679" lon="-8.699892964214087">
        <ele>185.19</ele>
        <time>2025-05-06T10:20:31Z</time>
      </trkpt>
      <trkpt lat="37.925332998856902" lon="-8.698784038424492">
        <ele>182.78999999999999</ele>
        <time>2025-05-06T10:20:38Z</time>
      </trkpt>
      <trkpt lat="37.924617016687989" lon="-8.698168974369764">
        <ele>182.78999999999999</ele>
        <time>2025-05-06T10:20:42Z</time>
      </trkpt>
      <trkpt lat="37.924439990893006" lon="-8.69807199575007">
        <ele>182.78999999999999</ele>
        <time>2025-05-06T10:20:43Z</time>
      </trkpt>
      <trkpt lat="37.924248967319727" lon="-8.69800896383822">
        <ele>182.31</ele>
        <time>2025-05-06T10:20:44Z</time>
      </trkpt>
      <trkpt lat="37.922674007713795" lon="-8.697532033547759">
        <ele>181.34999999999999</ele>
        <time>2025-05-06T10:20:51Z</time>
      </trkpt>
      <trkpt lat="37.920904001221061" lon="-8.696986036375165">
        <ele>181.83000000000001</ele>
        <time>2025-05-06T10:20:59Z</time>
      </trkpt>
      <trkpt lat="37.918685982003808" lon="-8.696311041712761">
        <ele>187.11000000000001</ele>
        <time>2025-05-06T10:21:09Z</time>
      </trkpt>
      <trkpt lat="37.917929012328386" lon="-8.696023039519787">
        <ele>189.52000000000001</ele>
        <time>2025-05-06T10:21:13Z</time>
      </trkpt>
      <trkpt lat="37.91776699014008" lon="-8.695914996787906">
        <ele>190.47999999999999</ele>
        <time>2025-05-06T10:21:14Z</time>
      </trkpt>
      <trkpt lat="37.917661964893341" lon="-8.695785999298096">
        <ele>190.96000000000001</ele>
        <time>2025-05-06T10:21:15Z</time>
      </trkpt>
      <trkpt lat="37.917395001277328" lon="-8.695514006540179">
        <ele>191.91999999999999</ele>
        <time>2025-05-06T10:21:17Z</time>
      </trkpt>
      <trkpt lat="37.917243959382176" lon="-8.695418033748865">
        <ele>192.40000000000001</ele>
        <time>2025-05-06T10:21:18Z</time>
      </trkpt>
      <trkpt lat="37.917093001306057" lon="-8.695364976301789">
        <ele>192.40000000000001</ele>
        <time>2025-05-06T10:21:19Z</time>
      </trkpt>
      <trkpt lat="37.91677700355649" lon="-8.695256011560559">
        <ele>193.36000000000001</ele>
        <time>2025-05-06T10:21:21Z</time>
      </trkpt>
      <trkpt lat="37.91662503965199" lon="-8.695157021284103">
        <ele>193.36000000000001</ele>
        <time>2025-05-06T10:21:22Z</time>
      </trkpt>
      <trkpt lat="37.916166968643665" lon="-8.694814033806324">
        <ele>195.28</ele>
        <time>2025-05-06T10:21:25Z</time>
      </trkpt>
      <trkpt lat="37.916050963103771" lon="-8.694645976647735">
        <ele>195.77000000000001</ele>
        <time>2025-05-06T10:21:26Z</time>
      </trkpt>
      <trkpt lat="37.915937975049019" lon="-8.694465011358261">
        <ele>196.25</ele>
        <time>2025-05-06T10:21:27Z</time>
      </trkpt>
      <trkpt lat="37.915534973144531" lon="-8.693714998662472">
        <ele>197.21000000000001</ele>
        <time>2025-05-06T10:21:31Z</time>
      </trkpt>
      <trkpt lat="37.915449980646372" lon="-8.693619025871158">
        <ele>197.21000000000001</ele>
        <time>2025-05-06T10:21:32Z</time>
      </trkpt>
      <trkpt lat="37.915302962064743" lon="-8.6936030164361">
        <ele>197.21000000000001</ele>
        <time>2025-05-06T10:21:33Z</time>
      </trkpt>
      <trkpt lat="37.91516499593854" lon="-8.693587007001042">
        <ele>196.72999999999999</ele>
        <time>2025-05-06T10:21:34Z</time>
      </trkpt>
      <trkpt lat="37.915009008720517" lon="-8.693569991737604">
        <ele>196.72999999999999</ele>
        <time>2025-05-06T10:21:35Z</time>
      </trkpt>
      <trkpt lat="37.914333008229733" lon="-8.693494973704219">
        <ele>195.77000000000001</ele>
        <time>2025-05-06T10:21:39Z</time>
      </trkpt>
      <trkpt lat="37.914166040718555" lon="-8.693418027833104">
        <ele>195.77000000000001</ele>
        <time>2025-05-06T10:21:40Z</time>
      </trkpt>
      <trkpt lat="37.91400502435863" lon="-8.693317025899887">
        <ele>195.77000000000001</ele>
        <time>2025-05-06T10:21:41Z</time>
      </trkpt>
      <trkpt lat="37.913849959149957" lon="-8.693192973732948">
        <ele>195.77000000000001</ele>
        <time>2025-05-06T10:21:42Z</time>
      </trkpt>
      <trkpt lat="37.913706041872501" lon="-8.693032041192055">
        <ele>195.77000000000001</ele>
        <time>2025-05-06T10:21:43Z</time>
      </trkpt>
      <trkpt lat="37.913566986098886" lon="-8.692847974598408">
        <ele>195.77000000000001</ele>
        <time>2025-05-06T10:21:44Z</time>
      </trkpt>
      <trkpt lat="37.912551015615463" lon="-8.691521035507321">
        <ele>198.65000000000001</ele>
        <time>2025-05-06T10:21:51Z</time>
      </trkpt>
      <trkpt lat="37.912413971498609" lon="-8.691420033574104">
        <ele>199.61000000000001</ele>
        <time>2025-05-06T10:21:52Z</time>
      </trkpt>
      <trkpt lat="37.912280028685927" lon="-8.691375022754073">
        <ele>200.09</ele>
        <time>2025-05-06T10:21:53Z</time>
      </trkpt>
      <trkpt lat="37.912149019539356" lon="-8.691378962248564">
        <ele>201.05000000000001</ele>
        <time>2025-05-06T10:21:54Z</time>
      </trkpt>
      <trkpt lat="37.912008035928011" lon="-8.691395977512002">
        <ele>201.53</ele>
        <time>2025-05-06T10:21:55Z</time>
      </trkpt>
      <trkpt lat="37.911859005689621" lon="-8.691415004432201">
        <ele>202.49000000000001</ele>
        <time>2025-05-06T10:21:56Z</time>
      </trkpt>
      <trkpt lat="37.911696983501315" lon="-8.691420033574104">
        <ele>202.97999999999999</ele>
        <time>2025-05-06T10:21:57Z</time>
      </trkpt>
      <trkpt lat="37.911530015990138" lon="-8.691377034410834">
        <ele>203.46000000000001</ele>
        <time>2025-05-06T10:21:58Z</time>
      </trkpt>
      <trkpt lat="37.91104101575911" lon="-8.691250970587134">
        <ele>204.41999999999999</ele>
        <time>2025-05-06T10:22:01Z</time>
      </trkpt>
      <trkpt lat="37.910919981077313" lon="-8.691145023331046">
        <ele>204.41999999999999</ele>
        <time>2025-05-06T10:22:02Z</time>
      </trkpt>
      <trkpt lat="37.91080598719418" lon="-8.690985012799501">
        <ele>204.41999999999999</ele>
        <time>2025-05-06T10:22:03Z</time>
      </trkpt>
      <trkpt lat="37.909952038899064" lon="-8.689850019291043">
        <ele>204.41999999999999</ele>
        <time>2025-05-06T10:22:09Z</time>
      </trkpt>
      <trkpt lat="37.909806026145816" lon="-8.689748011529446">
        <ele>203.94</ele>
        <time>2025-05-06T10:22:10Z</time>
      </trkpt>
      <trkpt lat="37.909662025049329" lon="-8.689681962132454">
        <ele>203.94</ele>
        <time>2025-05-06T10:22:11Z</time>
      </trkpt>
      <trkpt lat="37.909521963447332" lon="-8.689664024859667">
        <ele>203.94</ele>
        <time>2025-05-06T10:22:12Z</time>
      </trkpt>
      <trkpt lat="37.909353990107775" lon="-8.689698977395892">
        <ele>204.41999999999999</ele>
        <time>2025-05-06T10:22:13Z</time>
      </trkpt>
      <trkpt lat="37.909172018989921" lon="-8.68973895907402">
        <ele>204.90000000000001</ele>
        <time>2025-05-06T10:22:14Z</time>
      </trkpt>
      <trkpt lat="37.908808998763561" lon="-8.689853958785534">
        <ele>205.38</ele>
        <time>2025-05-06T10:22:16Z</time>
      </trkpt>
      <trkpt lat="37.908617975190282" lon="-8.689884971827269">
        <ele>205.38</ele>
        <time>2025-05-06T10:22:17Z</time>
      </trkpt>
      <trkpt lat="37.908407002687454" lon="-8.689884971827269">
        <ele>205.38</ele>
        <time>2025-05-06T10:22:18Z</time>
      </trkpt>
      <trkpt lat="37.906674966216087" lon="-8.68986401706934">
        <ele>200.56999999999999</ele>
        <time>2025-05-06T10:22:26Z</time>
      </trkpt>
      <trkpt lat="37.904743021354079" lon="-8.689839038997889">
        <ele>195.28</ele>
        <time>2025-05-06T10:22:36Z</time>
      </trkpt>
      <trkpt lat="37.904229965060949" lon="-8.689833004027605">
        <ele>192.88</ele>
        <time>2025-05-06T10:22:39Z</time>
      </trkpt>
      <trkpt lat="37.904078001156449" lon="-8.689881032332778">
        <ele>191.91999999999999</ele>
        <time>2025-05-06T10:22:40Z</time>
      </trkpt>
      <trkpt lat="37.903956966474652" lon="-8.689982034265995">
        <ele>190.96000000000001</ele>
        <time>2025-05-06T10:22:41Z</time>
      </trkpt>
      <trkpt lat="37.903838027268648" lon="-8.690083036199212">
        <ele>190</ele>
        <time>2025-05-06T10:22:42Z</time>
      </trkpt>
      <trkpt lat="37.903737025335431" lon="-8.690225025638938">
        <ele>189.03999999999999</ele>
        <time>2025-05-06T10:22:43Z</time>
      </trkpt>
      <trkpt lat="37.903627976775169" lon="-8.690377995371819">
        <ele>188.08000000000001</ele>
        <time>2025-05-06T10:22:44Z</time>
      </trkpt>
      <trkpt lat="37.902669003233314" lon="-8.691721027716994">
        <ele>183.75</ele>
        <time>2025-05-06T10:22:52Z</time>
      </trkpt>
      <trkpt lat="37.902549980208278" lon="-8.691827980801463">
        <ele>183.27000000000001</ele>
        <time>2025-05-06T10:22:53Z</time>
      </trkpt>
      <trkpt lat="37.902413019910455" lon="-8.691934011876583">
        <ele>183.27000000000001</ele>
        <time>2025-05-06T10:22:54Z</time>
      </trkpt>
      <trkpt lat="37.901982022449374" lon="-8.692151019349694">
        <ele>183.75</ele>
        <time>2025-05-06T10:22:57Z</time>
      </trkpt>
      <trkpt lat="37.901858976110816" lon="-8.692119000479579">
        <ele>183.75</ele>
        <time>2025-05-06T10:22:58Z</time>
      </trkpt>
      <trkpt lat="37.901726039126515" lon="-8.692083964124322">
        <ele>183.27000000000001</ele>
        <time>2025-05-06T10:22:59Z</time>
      </trkpt>
      <trkpt lat="37.901591006666422" lon="-8.692049011588097">
        <ele>182.78999999999999</ele>
        <time>2025-05-06T10:23:00Z</time>
      </trkpt>
      <trkpt lat="37.901464020833373" lon="-8.692015986889601">
        <ele>182.31</ele>
        <time>2025-05-06T10:23:01Z</time>
      </trkpt>
      <trkpt lat="37.901343991979957" lon="-8.692055968567729">
        <ele>181.83000000000001</ele>
        <time>2025-05-06T10:23:02Z</time>
      </trkpt>
      <trkpt lat="37.901237960904837" lon="-8.692128974944353">
        <ele>181.34999999999999</ele>
        <time>2025-05-06T10:23:03Z</time>
      </trkpt>
      <trkpt lat="37.901151040568948" lon="-8.692232994362712">
        <ele>181.34999999999999</ele>
        <time>2025-05-06T10:23:04Z</time>
      </trkpt>
      <trkpt lat="37.90105096064508" lon="-8.692353023216128">
        <ele>180.87</ele>
        <time>2025-05-06T10:23:05Z</time>
      </trkpt>
      <trkpt lat="37.900949958711863" lon="-8.692386969923973">
        <ele>180.38</ele>
        <time>2025-05-06T10:23:06Z</time>
      </trkpt>
      <trkpt lat="37.900823978707194" lon="-8.692365009337664">
        <ele>180.38</ele>
        <time>2025-05-06T10:23:07Z</time>
      </trkpt>
      <trkpt lat="37.900644019246101" lon="-8.692310024052858">
        <ele>180.38</ele>
        <time>2025-05-06T10:23:08Z</time>
      </trkpt>
      <trkpt lat="37.900543017312884" lon="-8.692226959392428">
        <ele>180.38</ele>
        <time>2025-05-06T10:23:09Z</time>
      </trkpt>
      <trkpt lat="37.900395998731256" lon="-8.692106008529663">
        <ele>180.38</ele>
        <time>2025-05-06T10:23:10Z</time>
      </trkpt>
      <trkpt lat="37.900242023169994" lon="-8.691978016868234">
        <ele>180.38</ele>
        <time>2025-05-06T10:23:11Z</time>
      </trkpt>
      <trkpt lat="37.899402994662523" lon="-8.691353984177113">
        <ele>178.94</ele>
        <time>2025-05-06T10:23:16Z</time>
      </trkpt>
      <trkpt lat="37.89922496303916" lon="-8.691305033862591">
        <ele>178.94</ele>
        <time>2025-05-06T10:23:17Z</time>
      </trkpt>
      <trkpt lat="37.899036034941673" lon="-8.69128399528563">
        <ele>178.94</ele>
        <time>2025-05-06T10:23:18Z</time>
      </trkpt>
      <trkpt lat="37.898833025246859" lon="-8.691302016377449">
        <ele>178.94</ele>
        <time>2025-05-06T10:23:19Z</time>
      </trkpt>
      <trkpt lat="37.898625992238522" lon="-8.691320959478617">
        <ele>178.94</ele>
        <time>2025-05-06T10:23:20Z</time>
      </trkpt>
      <trkpt lat="37.898419965058565" lon="-8.69138902053237">
        <ele>179.41999999999999</ele>
        <time>2025-05-06T10:23:21Z</time>
      </trkpt>
      <trkpt lat="37.898207986727357" lon="-8.691464960575104">
        <ele>179.41999999999999</ele>
        <time>2025-05-06T10:23:22Z</time>
      </trkpt>
      <trkpt lat="37.896777028217912" lon="-8.692242968827486">
        <ele>181.34999999999999</ele>
        <time>2025-05-06T10:23:29Z</time>
      </trkpt>
      <trkpt lat="37.894208980724216" lon="-8.693938963115215">
        <ele>179.90000000000001</ele>
        <time>2025-05-06T10:23:42Z</time>
      </trkpt>
      <trkpt lat="37.892811968922615" lon="-8.694890979677439">
        <ele>176.06</ele>
        <time>2025-05-06T10:23:50Z</time>
      </trkpt>
      <trkpt lat="37.892664028331637" lon="-8.694940013810992">
        <ele>176.06</ele>
        <time>2025-05-06T10:23:51Z</time>
      </trkpt>
      <trkpt lat="37.892513992264867" lon="-8.694938002154231">
        <ele>175.58000000000001</ele>
        <time>2025-05-06T10:23:52Z</time>
      </trkpt>
      <trkpt lat="37.891995990648866" lon="-8.694862984120846">
        <ele>175.09999999999999</ele>
        <time>2025-05-06T10:23:55Z</time>
      </trkpt>
      <trkpt lat="37.891287971287966" lon="-8.694928027689457">
        <ele>173.66</ele>
        <time>2025-05-06T10:23:59Z</time>
      </trkpt>
      <trkpt lat="37.891156962141395" lon="-8.695018971338868">
        <ele>173.16999999999999</ele>
        <time>2025-05-06T10:24:00Z</time>
      </trkpt>
      <trkpt lat="37.891049003228545" lon="-8.695098012685776">
        <ele>173.16999999999999</ele>
        <time>2025-05-06T10:24:01Z</time>
      </trkpt>
      <trkpt lat="37.890944983810186" lon="-8.695185016840696">
        <ele>173.16999999999999</ele>
        <time>2025-05-06T10:24:02Z</time>
      </trkpt>
      <trkpt lat="37.890839036554098" lon="-8.695274032652378">
        <ele>173.16999999999999</ele>
        <time>2025-05-06T10:24:03Z</time>
      </trkpt>
      <trkpt lat="37.890710039064288" lon="-8.695272020995617">
        <ele>173.66</ele>
        <time>2025-05-06T10:24:04Z</time>
      </trkpt>
      <trkpt lat="37.890555979683995" lon="-8.695243019610643">
        <ele>173.66</ele>
        <time>2025-05-06T10:24:05Z</time>
      </trkpt>
      <trkpt lat="37.890399992465973" lon="-8.695213012397289">
        <ele>173.66</ele>
        <time>2025-05-06T10:24:06Z</time>
      </trkpt>
      <trkpt lat="37.890259008854628" lon="-8.695186022669077">
        <ele>173.16999999999999</ele>
        <time>2025-05-06T10:24:07Z</time>
      </trkpt>
      <trkpt lat="37.890132023021579" lon="-8.695232039317489">
        <ele>172.69</ele>
        <time>2025-05-06T10:24:08Z</time>
      </trkpt>
      <trkpt lat="37.890035966411233" lon="-8.695327006280422">
        <ele>172.69</ele>
        <time>2025-05-06T10:24:09Z</time>
      </trkpt>
      <trkpt lat="37.889947034418583" lon="-8.695463966578245">
        <ele>172.69</ele>
        <time>2025-05-06T10:24:10Z</time>
      </trkpt>
      <trkpt lat="37.889845026656985" lon="-8.695620959624648">
        <ele>172.21000000000001</ele>
        <time>2025-05-06T10:24:11Z</time>
      </trkpt>
      <trkpt lat="37.889249995350838" lon="-8.696537017822266">
        <ele>174.13999999999999</ele>
        <time>2025-05-06T10:24:16Z</time>
      </trkpt>
      <trkpt lat="37.889102976769209" lon="-8.696684036403894">
        <ele>174.62</ele>
        <time>2025-05-06T10:24:17Z</time>
      </trkpt>
      <trkpt lat="37.887958008795977" lon="-8.697604034096003">
        <ele>176.53999999999999</ele>
        <time>2025-05-06T10:24:23Z</time>
      </trkpt>
      <trkpt lat="37.885675029829144" lon="-8.699399018660188">
        <ele>168.84999999999999</ele>
        <time>2025-05-06T10:24:34Z</time>
      </trkpt>
      <trkpt lat="37.884125970304012" lon="-8.700817991048098">
        <ele>165</ele>
        <time>2025-05-06T10:24:43Z</time>
      </trkpt>
      <trkpt lat="37.882660981267691" lon="-8.702139984816313">
        <ele>162.12</ele>
        <time>2025-05-06T10:24:52Z</time>
      </trkpt>
      <trkpt lat="37.882498959079385" lon="-8.702207962051034">
        <ele>162.12</ele>
        <time>2025-05-06T10:24:53Z</time>
      </trkpt>
      <trkpt lat="37.882340038195252" lon="-8.702222965657711">
        <ele>162.12</ele>
        <time>2025-05-06T10:24:54Z</time>
      </trkpt>
      <trkpt lat="37.882150020450354" lon="-8.702192036435008">
        <ele>162.12</ele>
        <time>2025-05-06T10:24:55Z</time>
      </trkpt>
      <trkpt lat="37.881953967735171" lon="-8.702159011736512">
        <ele>161.63999999999999</ele>
        <time>2025-05-06T10:24:56Z</time>
      </trkpt>
      <trkpt lat="37.881780965253711" lon="-8.702067984268069">
        <ele>161.63999999999999</ele>
        <time>2025-05-06T10:24:57Z</time>
      </trkpt>
      <trkpt lat="37.881588013842702" lon="-8.701965976506472">
        <ele>161.63999999999999</ele>
        <time>2025-05-06T10:24:58Z</time>
      </trkpt>
      <trkpt lat="37.88044597953558" lon="-8.701434982940555">
        <ele>162.12</ele>
        <time>2025-05-06T10:25:04Z</time>
      </trkpt>
      <trkpt lat="37.88027498871088" lon="-8.701407993212342">
        <ele>162.12</ele>
        <time>2025-05-06T10:25:05Z</time>
      </trkpt>
      <trkpt lat="37.880105003714561" lon="-8.701407993212342">
        <ele>162.12</ele>
        <time>2025-05-06T10:25:06Z</time>
      </trkpt>
      <trkpt lat="37.879941975697875" lon="-8.701407993212342">
        <ele>162.59999999999999</ele>
        <time>2025-05-06T10:25:07Z</time>
      </trkpt>
      <trkpt lat="37.87978095933795" lon="-8.701407993212342">
        <ele>162.59999999999999</ele>
        <time>2025-05-06T10:25:08Z</time>
      </trkpt>
      <trkpt lat="37.879622960463166" lon="-8.701375974342227">
        <ele>163.08000000000001</ele>
        <time>2025-05-06T10:25:09Z</time>
      </trkpt>
      <trkpt lat="37.879467979073524" lon="-8.701312020421028">
        <ele>164.03999999999999</ele>
        <time>2025-05-06T10:25:10Z</time>
      </trkpt>
      <trkpt lat="37.879335964098573" lon="-8.701258040964603">
        <ele>164.52000000000001</ele>
        <time>2025-05-06T10:25:11Z</time>
      </trkpt>
      <trkpt lat="37.879160027951002" lon="-8.701258040964603">
        <ele>165</ele>
        <time>2025-05-06T10:25:12Z</time>
      </trkpt>
      <trkpt lat="37.879009991884232" lon="-8.701258040964603">
        <ele>165</ele>
        <time>2025-05-06T10:25:13Z</time>
      </trkpt>
      <trkpt lat="37.878874037414789" lon="-8.701271032914519">
        <ele>165.47999999999999</ele>
        <time>2025-05-06T10:25:14Z</time>
      </trkpt>
      <trkpt lat="37.878636997193098" lon="-8.701330963522196">
        <ele>165.47999999999999</ele>
        <time>2025-05-06T10:25:16Z</time>
      </trkpt>
      <trkpt lat="37.878546975553036" lon="-8.701396007090807">
        <ele>165.96000000000001</ele>
        <time>2025-05-06T10:25:17Z</time>
      </trkpt>
      <trkpt lat="37.878466006368399" lon="-8.701506983488798">
        <ele>165.96000000000001</ele>
        <time>2025-05-06T10:25:18Z</time>
      </trkpt>
      <trkpt lat="37.878385037183762" lon="-8.701646039262414">
        <ele>165.96000000000001</ele>
        <time>2025-05-06T10:25:19Z</time>
      </trkpt>
      <trkpt lat="37.878311024978757" lon="-8.701819041743875">
        <ele>165.96000000000001</ele>
        <time>2025-05-06T10:25:20Z</time>
      </trkpt>
      <trkpt lat="37.878239024430513" lon="-8.701987015083432">
        <ele>165.96000000000001</ele>
        <time>2025-05-06T10:25:21Z</time>
      </trkpt>
      <trkpt lat="37.878145985305309" lon="-8.702122969552875">
        <ele>165.96000000000001</ele>
        <time>2025-05-06T10:25:22Z</time>
      </trkpt>
      <trkpt lat="37.87804096005857" lon="-8.702251967042685">
        <ele>165.47999999999999</ele>
        <time>2025-05-06T10:25:23Z</time>
      </trkpt>
      <trkpt lat="37.877114005386829" lon="-8.703347984701395">
        <ele>164.03999999999999</ele>
        <time>2025-05-06T10:25:30Z</time>
      </trkpt>
      <trkpt lat="37.87664202041924" lon="-8.703900016844273">
        <ele>165.47999999999999</ele>
        <time>2025-05-06T10:25:34Z</time>
      </trkpt>
      <trkpt lat="37.87582696415484" lon="-8.704575011506677">
        <ele>167.41</ele>
        <time>2025-05-06T10:25:41Z</time>
      </trkpt>
      <trkpt lat="37.875706013292074" lon="-8.704590015113354">
        <ele>167.41</ele>
        <time>2025-05-06T10:25:42Z</time>
      </trkpt>
      <trkpt lat="37.875587996095419" lon="-8.704562019556761">
        <ele>167.88999999999999</ele>
        <time>2025-05-06T10:25:43Z</time>
      </trkpt>
      <trkpt lat="37.875466039404273" lon="-8.704511979594827">
        <ele>168.37</ele>
        <time>2025-05-06T10:25:44Z</time>
      </trkpt>
      <trkpt lat="37.875355985015631" lon="-8.704406032338738">
        <ele>168.84999999999999</ele>
        <time>2025-05-06T10:25:45Z</time>
      </trkpt>
      <trkpt lat="37.875236961990595" lon="-8.704292038455606">
        <ele>169.33000000000001</ele>
        <time>2025-05-06T10:25:46Z</time>
      </trkpt>
      <trkpt lat="37.874520979821682" lon="-8.703600028529763">
        <ele>170.77000000000001</ele>
        <time>2025-05-06T10:25:53Z</time>
      </trkpt>
      <trkpt lat="37.874183021485806" lon="-8.70331697165966">
        <ele>171.25</ele>
        <time>2025-05-06T10:25:56Z</time>
      </trkpt>
      <trkpt lat="37.874055029824376" lon="-8.70327397249639">
        <ele>171.25</ele>
        <time>2025-05-06T10:25:57Z</time>
      </trkpt>
      <trkpt lat="37.873939024284482" lon="-8.703263998031616">
        <ele>171.25</ele>
        <time>2025-05-06T10:25:58Z</time>
      </trkpt>
      <trkpt lat="37.873820001259446" lon="-8.703287970274687">
        <ele>170.77000000000001</ele>
        <time>2025-05-06T10:25:59Z</time>
      </trkpt>
      <trkpt lat="37.873670971021056" lon="-8.703317977488041">
        <ele>170.77000000000001</ele>
        <time>2025-05-06T10:26:00Z</time>
      </trkpt>
      <trkpt lat="37.873567035421729" lon="-8.703374974429607">
        <ele>170.77000000000001</ele>
        <time>2025-05-06T10:26:01Z</time>
      </trkpt>
      <trkpt lat="37.873435020446777" lon="-8.70344596914947">
        <ele>171.25</ele>
        <time>2025-05-06T10:26:02Z</time>
      </trkpt>
      <trkpt lat="37.873319014906883" lon="-8.703556023538113">
        <ele>171.25</ele>
        <time>2025-05-06T10:26:03Z</time>
      </trkpt>
      <trkpt lat="37.873207032680511" lon="-8.70366096496582">
        <ele>171.72999999999999</ele>
        <time>2025-05-06T10:26:04Z</time>
      </trkpt>
      <trkpt lat="37.872687019407749" lon="-8.704137979075313">
        <ele>174.13999999999999</ele>
        <time>2025-05-06T10:26:09Z</time>
      </trkpt>
      <trkpt lat="37.872553998604417" lon="-8.704176032915711">
        <ele>174.13999999999999</ele>
        <time>2025-05-06T10:26:10Z</time>
      </trkpt>
      <trkpt lat="37.872417038306594" lon="-8.70421601459384">
        <ele>174.62</ele>
        <time>2025-05-06T10:26:11Z</time>
      </trkpt>
      <trkpt lat="37.872129958122969" lon="-8.704263959079981">
        <ele>176.06</ele>
        <time>2025-05-06T10:26:13Z</time>
      </trkpt>
      <trkpt lat="37.871992997825146" lon="-8.704286003485322">
        <ele>176.53999999999999</ele>
        <time>2025-05-06T10:26:14Z</time>
      </trkpt>
      <trkpt lat="37.871682029217482" lon="-8.704335959628224">
        <ele>177.5</ele>
        <time>2025-05-06T10:26:17Z</time>
      </trkpt>
      <trkpt lat="37.8715930134058" lon="-8.704350963234901">
        <ele>177.5</ele>
        <time>2025-05-06T10:26:18Z</time>
      </trkpt>
      <trkpt lat="37.871509026736021" lon="-8.704365966841579">
        <ele>177.5</ele>
        <time>2025-05-06T10:26:19Z</time>
      </trkpt>
      <trkpt lat="37.871376005932689" lon="-8.70453997515142">
        <ele>177.97999999999999</ele>
        <time>2025-05-06T10:26:20Z</time>
      </trkpt>
      <trkpt lat="37.871376005932689" lon="-8.704648017883301">
        <ele>177.97999999999999</ele>
        <time>2025-05-06T10:26:21Z</time>
      </trkpt>
      <trkpt lat="37.871372988447547" lon="-8.704760000109673">
        <ele>177.97999999999999</ele>
        <time>2025-05-06T10:26:22Z</time>
      </trkpt>
      <trkpt lat="37.871369970962405" lon="-8.704892015084624">
        <ele>177.97999999999999</ele>
        <time>2025-05-06T10:26:23Z</time>
      </trkpt>
      <trkpt lat="37.871366031467915" lon="-8.70503299869597">
        <ele>177.97999999999999</ele>
        <time>2025-05-06T10:26:24Z</time>
      </trkpt>
      <trkpt lat="37.87135899066925" lon="-8.705331981182098">
        <ele>177.97999999999999</ele>
        <time>2025-05-06T10:26:26Z</time>
      </trkpt>
      <trkpt lat="37.871354967355728" lon="-8.705497020855546">
        <ele>177.97999999999999</ele>
        <time>2025-05-06T10:26:27Z</time>
      </trkpt>
      <trkpt lat="37.871325965970755" lon="-8.705667005851865">
        <ele>177.97999999999999</ele>
        <time>2025-05-06T10:26:28Z</time>
      </trkpt>
      <trkpt lat="37.870962023735046" lon="-8.707214975729585">
        <ele>176.53999999999999</ele>
        <time>2025-05-06T10:26:35Z</time>
      </trkpt>
      <trkpt lat="37.870313012972474" lon="-8.709862986579537">
        <ele>175.58000000000001</ele>
        <time>2025-05-06T10:26:46Z</time>
      </trkpt>
      <trkpt lat="37.869619997218251" lon="-8.7126590218395">
        <ele>172.69</ele>
        <time>2025-05-06T10:26:58Z</time>
      </trkpt>
      <trkpt lat="37.869043992832303" lon="-8.715146016329527">
        <ele>177.02000000000001</ele>
        <time>2025-05-06T10:27:07Z</time>
      </trkpt>
      <trkpt lat="37.868406968191266" lon="-8.71758196502924">
        <ele>179.41999999999999</ele>
        <time>2025-05-06T10:27:15Z</time>
      </trkpt>
      <trkpt lat="37.868016958236694" lon="-8.718776972964406">
        <ele>177.97999999999999</ele>
        <time>2025-05-06T10:27:21Z</time>
      </trkpt>
      <trkpt lat="37.867843033745885" lon="-8.719101017341018">
        <ele>179.90000000000001</ele>
        <time>2025-05-06T10:27:25Z</time>
      </trkpt>
      <trkpt lat="37.867803974077106" lon="-8.719162037596107">
        <ele>180.38</ele>
        <time>2025-05-06T10:27:26Z</time>
      </trkpt>
      <trkpt lat="37.867652010172606" lon="-8.719394970685244">
        <ele>182.31</ele>
        <time>2025-05-06T10:27:30Z</time>
      </trkpt>
      <trkpt lat="37.867612028494477" lon="-8.719447022303939">
        <ele>182.31</ele>
        <time>2025-05-06T10:27:31Z</time>
      </trkpt>
      <trkpt lat="37.867160998284817" lon="-8.720009028911591">
        <ele>183.75</ele>
        <time>2025-05-06T10:27:39Z</time>
      </trkpt>
      <trkpt lat="37.86699403077364" lon="-8.720215978100896">
        <ele>184.22999999999999</ele>
        <time>2025-05-06T10:27:42Z</time>
      </trkpt>
      <trkpt lat="37.86693200469017" lon="-8.720292001962662">
        <ele>184.22999999999999</ele>
        <time>2025-05-06T10:27:43Z</time>
      </trkpt>
      <trkpt lat="37.866552975028753" lon="-8.720611017197371">
        <ele>183.27000000000001</ele>
        <time>2025-05-06T10:27:50Z</time>
      </trkpt>
      <trkpt lat="37.866549035534263" lon="-8.720687041059136">
        <ele>182.78999999999999</ele>
        <time>2025-05-06T10:27:51Z</time>
      </trkpt>
      <trkpt lat="37.866577031090856" lon="-8.720750994980335">
        <ele>182.31</ele>
        <time>2025-05-06T10:27:52Z</time>
      </trkpt>
      <trkpt lat="37.866613995283842" lon="-8.720832969993353">
        <ele>181.83000000000001</ele>
        <time>2025-05-06T10:27:53Z</time>
      </trkpt>
      <trkpt lat="37.866658000275493" lon="-8.720932966098189">
        <ele>181.83000000000001</ele>
        <time>2025-05-06T10:27:54Z</time>
      </trkpt>
      <trkpt lat="37.866709968075156" lon="-8.721051989123225">
        <ele>181.34999999999999</ele>
        <time>2025-05-06T10:27:55Z</time>
      </trkpt>
      <trkpt lat="37.867279015481472" lon="-8.722341964021325">
        <ele>177.5</ele>
        <time>2025-05-06T10:28:03Z</time>
      </trkpt>
      <trkpt lat="37.867611022666097" lon="-8.72314696200192">
        <ele>175.09999999999999</ele>
        <time>2025-05-06T10:28:07Z</time>
      </trkpt>
      <trkpt lat="37.867665002122521" lon="-8.723346032202244">
        <ele>174.62</ele>
        <time>2025-05-06T10:28:08Z</time>
      </trkpt>
      <trkpt lat="37.867673970758915" lon="-8.72357401996851">
        <ele>174.13999999999999</ele>
        <time>2025-05-06T10:28:09Z</time>
      </trkpt>
      <trkpt lat="37.86768302321434" lon="-8.723820028826594">
        <ele>173.16999999999999</ele>
        <time>2025-05-06T10:28:10Z</time>
      </trkpt>
      <trkpt lat="37.867685034871101" lon="-8.724075006321073">
        <ele>172.69</ele>
        <time>2025-05-06T10:28:11Z</time>
      </trkpt>
      <trkpt lat="37.867649998515844" lon="-8.72608800418675">
        <ele>162.59999999999999</ele>
        <time>2025-05-06T10:28:19Z</time>
      </trkpt>
      <trkpt lat="37.867622002959251" lon="-8.726243991404772">
        <ele>161.63999999999999</ele>
        <time>2025-05-06T10:28:20Z</time>
      </trkpt>
      <trkpt lat="37.867540027946234" lon="-8.726372988894582">
        <ele>160.68000000000001</ele>
        <time>2025-05-06T10:28:21Z</time>
      </trkpt>
      <trkpt lat="37.867430979385972" lon="-8.726482959464192">
        <ele>159.72</ele>
        <time>2025-05-06T10:28:22Z</time>
      </trkpt>
      <trkpt lat="37.86729502491653" lon="-8.726556971669197">
        <ele>159.24000000000001</ele>
        <time>2025-05-06T10:28:23Z</time>
      </trkpt>
      <trkpt lat="37.867151023820043" lon="-8.726636013016105">
        <ele>158.27000000000001</ele>
        <time>2025-05-06T10:28:24Z</time>
      </trkpt>
      <trkpt lat="37.867009034380317" lon="-8.726727040484548">
        <ele>157.78999999999999</ele>
        <time>2025-05-06T10:28:25Z</time>
      </trkpt>
      <trkpt lat="37.866866961121559" lon="-8.726838016882539">
        <ele>156.83000000000001</ele>
        <time>2025-05-06T10:28:26Z</time>
      </trkpt>
      <trkpt lat="37.866740981116891" lon="-8.726980006322265">
        <ele>156.34999999999999</ele>
        <time>2025-05-06T10:28:27Z</time>
      </trkpt>
      <trkpt lat="37.866625981405377" lon="-8.727146973833442">
        <ele>155.87</ele>
        <time>2025-05-06T10:28:28Z</time>
      </trkpt>
      <trkpt lat="37.866517016664147" lon="-8.727330034598708">
        <ele>155.38999999999999</ele>
        <time>2025-05-06T10:28:29Z</time>
      </trkpt>
      <trkpt lat="37.865871023386717" lon="-8.728489000350237">
        <ele>152.50999999999999</ele>
        <time>2025-05-06T10:28:35Z</time>
      </trkpt>
      <trkpt lat="37.865801034495234" lon="-8.72871003113687">
        <ele>151.53999999999999</ele>
        <time>2025-05-06T10:28:36Z</time>
      </trkpt>
      <trkpt lat="37.865797011181712" lon="-8.728959979489446">
        <ele>151.06</ele>
        <time>2025-05-06T10:28:37Z</time>
      </trkpt>
      <trkpt lat="37.865797011181712" lon="-8.729216968640685">
        <ele>150.58000000000001</ele>
        <time>2025-05-06T10:28:38Z</time>
      </trkpt>
      <trkpt lat="37.865850990638137" lon="-8.729454008862376">
        <ele>149.62</ele>
        <time>2025-05-06T10:28:39Z</time>
      </trkpt>
      <trkpt lat="37.865907987579703" lon="-8.729703035205603">
        <ele>149.13999999999999</ele>
        <time>2025-05-06T10:28:40Z</time>
      </trkpt>
      <trkpt lat="37.86596599034965" lon="-8.729954995214939">
        <ele>148.18000000000001</ele>
        <time>2025-05-06T10:28:41Z</time>
      </trkpt>
      <trkpt lat="37.86691096611321" lon="-8.733538007363677">
        <ele>138.09</ele>
        <time>2025-05-06T10:28:55Z</time>
      </trkpt>
      <trkpt lat="37.867552014067769" lon="-8.735829032957554">
        <ele>133.28</ele>
        <time>2025-05-06T10:29:04Z</time>
      </trkpt>
      <trkpt lat="37.867648992687464" lon="-8.736016033217311">
        <ele>132.31999999999999</ele>
        <time>2025-05-06T10:29:05Z</time>
      </trkpt>
      <trkpt lat="37.867762986570597" lon="-8.736176965758205">
        <ele>131.84</ele>
        <time>2025-05-06T10:29:06Z</time>
      </trkpt>
      <trkpt lat="37.86798401735723" lon="-8.736492041498423">
        <ele>129.91999999999999</ele>
        <time>2025-05-06T10:29:08Z</time>
      </trkpt>
      <trkpt lat="37.868085019290447" lon="-8.736650040373206">
        <ele>129.43000000000001</ele>
        <time>2025-05-06T10:29:09Z</time>
      </trkpt>
      <trkpt lat="37.868125000968575" lon="-8.736840980127454">
        <ele>128.94999999999999</ele>
        <time>2025-05-06T10:29:10Z</time>
      </trkpt>
      <trkpt lat="37.868161965161562" lon="-8.737048013135791">
        <ele>127.98999999999999</ele>
        <time>2025-05-06T10:29:11Z</time>
      </trkpt>
      <trkpt lat="37.868189038708806" lon="-8.737270971760154">
        <ele>127.51000000000001</ele>
        <time>2025-05-06T10:29:12Z</time>
      </trkpt>
      <trkpt lat="37.868351982906461" lon="-8.738780971616507">
        <ele>124.15000000000001</ele>
        <time>2025-05-06T10:29:18Z</time>
      </trkpt>
      <trkpt lat="37.868926981464028" lon="-8.741120025515556">
        <ele>118.38</ele>
        <time>2025-05-06T10:29:27Z</time>
      </trkpt>
      <trkpt lat="37.869034018367529" lon="-8.741299984976649">
        <ele>117.42</ele>
        <time>2025-05-06T10:29:28Z</time>
      </trkpt>
      <trkpt lat="37.869148012250662" lon="-8.741490002721548">
        <ele>116.45999999999999</ele>
        <time>2025-05-06T10:29:29Z</time>
      </trkpt>
      <trkpt lat="37.870245035737753" lon="-8.743103016167879">
        <ele>111.17</ele>
        <time>2025-05-06T10:29:37Z</time>
      </trkpt>
      <trkpt lat="37.870809976011515" lon="-8.743805000558496">
        <ele>110.69</ele>
        <time>2025-05-06T10:29:42Z</time>
      </trkpt>
      <trkpt lat="37.870894968509674" lon="-8.743846993893385">
        <ele>110.69</ele>
        <time>2025-05-06T10:29:43Z</time>
      </trkpt>
      <trkpt lat="37.8709920309484" lon="-8.743860991671681">
        <ele>110.20999999999999</ele>
        <time>2025-05-06T10:29:44Z</time>
      </trkpt>
      <trkpt lat="37.871804991737008" lon="-8.743638033047319">
        <ele>110.69</ele>
        <time>2025-05-06T10:29:50Z</time>
      </trkpt>
      <trkpt lat="37.872123001143336" lon="-8.743485985323787">
        <ele>109.73</ele>
        <time>2025-05-06T10:29:52Z</time>
      </trkpt>
      <trkpt lat="37.873459998518229" lon="-8.742579985409975">
        <ele>106.36</ele>
        <time>2025-05-06T10:30:00Z</time>
      </trkpt>
      <trkpt lat="37.873620009049773" lon="-8.742551989853382">
        <ele>106.36</ele>
        <time>2025-05-06T10:30:01Z</time>
      </trkpt>
      <trkpt lat="37.873790999874473" lon="-8.742574034258723">
        <ele>106.36</ele>
        <time>2025-05-06T10:30:02Z</time>
      </trkpt>
      <trkpt lat="37.873976994305849" lon="-8.742598006501794">
        <ele>105.88</ele>
        <time>2025-05-06T10:30:03Z</time>
      </trkpt>
      <trkpt lat="37.874172041192651" lon="-8.742623990401626">
        <ele>105.40000000000001</ele>
        <time>2025-05-06T10:30:04Z</time>
      </trkpt>
      <trkpt lat="37.87565496750176" lon="-8.742944011464715">
        <ele>102.52</ele>
        <time>2025-05-06T10:30:11Z</time>
      </trkpt>
      <trkpt lat="37.876303978264332" lon="-8.743121037259698">
        <ele>101.56</ele>
        <time>2025-05-06T10:30:14Z</time>
      </trkpt>
      <trkpt lat="37.876516962423921" lon="-8.743208041414619">
        <ele>101.56</ele>
        <time>2025-05-06T10:30:15Z</time>
      </trkpt>
      <trkpt lat="37.878701034933329" lon="-8.744336999952793">
        <ele>98.189999999999998</ele>
        <time>2025-05-06T10:30:26Z</time>
      </trkpt>
      <trkpt lat="37.879593959078193" lon="-8.744916021823883">
        <ele>98.189999999999998</ele>
        <time>2025-05-06T10:30:31Z</time>
      </trkpt>
      <trkpt lat="37.879741983488202" lon="-8.745104027912021">
        <ele>98.189999999999998</ele>
        <time>2025-05-06T10:30:32Z</time>
      </trkpt>
      <trkpt lat="37.881049979478121" lon="-8.74684302136302">
        <ele>94.829999999999998</ele>
        <time>2025-05-06T10:30:40Z</time>
      </trkpt>
      <trkpt lat="37.883006986230612" lon="-8.749524978920817">
        <ele>86.180000000000007</ele>
        <time>2025-05-06T10:30:52Z</time>
      </trkpt>
      <trkpt lat="37.884459989145398" lon="-8.751491038128734">
        <ele>81.370000000000005</ele>
        <time>2025-05-06T10:31:01Z</time>
      </trkpt>
      <trkpt lat="37.885949034243822" lon="-8.753516022115946">
        <ele>78.480000000000004</ele>
        <time>2025-05-06T10:31:11Z</time>
      </trkpt>
      <trkpt lat="37.886729976162314" lon="-8.754598964005709">
        <ele>77.040000000000006</ele>
        <time>2025-05-06T10:31:17Z</time>
      </trkpt>
      <trkpt lat="37.887115040794015" lon="-8.755133980885148">
        <ele>76.560000000000002</ele>
        <time>2025-05-06T10:31:22Z</time>
      </trkpt>
      <trkpt lat="37.887189975008368" lon="-8.755232971161604">
        <ele>76.560000000000002</ele>
        <time>2025-05-06T10:31:23Z</time>
      </trkpt>
      <trkpt lat="37.887648968026042" lon="-8.755855998024344">
        <ele>76.079999999999998</ele>
        <time>2025-05-06T10:31:29Z</time>
      </trkpt>
      <trkpt lat="37.887691967189312" lon="-8.755914000794292">
        <ele>76.079999999999998</ele>
        <time>2025-05-06T10:31:30Z</time>
      </trkpt>
      <trkpt lat="37.887652991339564" lon="-8.755962029099464">
        <ele>76.079999999999998</ele>
        <time>2025-05-06T10:31:31Z</time>
      </trkpt>
      <trkpt lat="37.887610998004675" lon="-8.755987007170916">
        <ele>76.079999999999998</ele>
        <time>2025-05-06T10:31:32Z</time>
      </trkpt>
      <trkpt lat="37.887545032426715" lon="-8.756024977192283">
        <ele>76.079999999999998</ele>
        <time>2025-05-06T10:31:33Z</time>
      </trkpt>
      <trkpt lat="37.887446964159608" lon="-8.756081974133849">
        <ele>76.560000000000002</ele>
        <time>2025-05-06T10:31:34Z</time>
      </trkpt>
      <trkpt lat="37.887359960004687" lon="-8.756111981347203">
        <ele>76.560000000000002</ele>
        <time>2025-05-06T10:31:35Z</time>
      </trkpt>
      <trkpt lat="37.886285986751318" lon="-8.756483970209956">
        <ele>76.079999999999998</ele>
        <time>2025-05-06T10:31:42Z</time>
      </trkpt>
      <trkpt lat="37.88435404188931" lon="-8.757153013721108">
        <ele>76.560000000000002</ele>
        <time>2025-05-06T10:31:51Z</time>
      </trkpt>
      <trkpt lat="37.881589019671082" lon="-8.758108969777823">
        <ele>77.040000000000006</ele>
        <time>2025-05-06T10:32:02Z</time>
      </trkpt>
      <trkpt lat="37.879355996847153" lon="-8.759105997160077">
        <ele>78.969999999999999</ele>
        <time>2025-05-06T10:32:11Z</time>
      </trkpt>
      <trkpt lat="37.877642987295985" lon="-8.760068994015455">
        <ele>79.930000000000007</ele>
        <time>2025-05-06T10:32:19Z</time>
      </trkpt>
      <trkpt lat="37.877405025064945" lon="-8.760134037584066">
        <ele>79.930000000000007</ele>
        <time>2025-05-06T10:32:20Z</time>
      </trkpt>
      <trkpt lat="37.877155998721719" lon="-8.76018600538373">
        <ele>79.930000000000007</ele>
        <time>2025-05-06T10:32:21Z</time>
      </trkpt>
      <trkpt lat="37.874948037788272" lon="-8.760346015915275">
        <ele>80.409999999999997</ele>
        <time>2025-05-06T10:32:30Z</time>
      </trkpt>
      <trkpt lat="37.872501024976373" lon="-8.760523041710258">
        <ele>81.849999999999994</ele>
        <time>2025-05-06T10:32:40Z</time>
      </trkpt>
      <trkpt lat="37.870522979646921" lon="-8.760666958987713">
        <ele>82.810000000000002</ele>
        <time>2025-05-06T10:32:48Z</time>
      </trkpt>
      <trkpt lat="37.86807001568377" lon="-8.7609370239079">
        <ele>83.290000000000006</ele>
        <time>2025-05-06T10:32:58Z</time>
      </trkpt>
      <trkpt lat="37.864402011036873" lon="-8.761294009163976">
        <ele>81.849999999999994</ele>
        <time>2025-05-06T10:33:13Z</time>
      </trkpt>
      <trkpt lat="37.861017985269427" lon="-8.761745039373636">
        <ele>81.849999999999994</ele>
        <time>2025-05-06T10:33:27Z</time>
      </trkpt>
      <trkpt lat="37.860806006938219" lon="-8.761871019378305">
        <ele>82.329999999999998</ele>
        <time>2025-05-06T10:33:28Z</time>
      </trkpt>
      <trkpt lat="37.8585309907794" lon="-8.763296026736498">
        <ele>79.930000000000007</ele>
        <time>2025-05-06T10:33:39Z</time>
      </trkpt>
      <trkpt lat="37.857933025807142" lon="-8.763671033084393">
        <ele>77.519999999999996</ele>
        <time>2025-05-06T10:33:42Z</time>
      </trkpt>
      <trkpt lat="37.857810985296965" lon="-8.763825008645654">
        <ele>77.040000000000006</ele>
        <time>2025-05-06T10:33:43Z</time>
      </trkpt>
      <trkpt lat="37.857720041647553" lon="-8.7639469653368">
        <ele>76.560000000000002</ele>
        <time>2025-05-06T10:33:44Z</time>
      </trkpt>
      <trkpt lat="37.857651980593801" lon="-8.764051990583539">
        <ele>76.079999999999998</ele>
        <time>2025-05-06T10:33:45Z</time>
      </trkpt>
      <trkpt lat="37.85760797560215" lon="-8.764155004173517">
        <ele>75.599999999999994</ele>
        <time>2025-05-06T10:33:46Z</time>
      </trkpt>
      <trkpt lat="37.857570005580783" lon="-8.764247037470341">
        <ele>75.120000000000005</ele>
        <time>2025-05-06T10:33:47Z</time>
      </trkpt>
      <trkpt lat="37.857590960338712" lon="-8.764359019696713">
        <ele>75.120000000000005</ele>
        <time>2025-05-06T10:33:48Z</time>
      </trkpt>
      <trkpt lat="37.857608981430531" lon="-8.764465972781181">
        <ele>74.640000000000001</ele>
        <time>2025-05-06T10:33:49Z</time>
      </trkpt>
      <trkpt lat="37.857582997530699" lon="-8.764544008299708">
        <ele>74.159999999999997</ele>
        <time>2025-05-06T10:33:50Z</time>
      </trkpt>
      <trkpt lat="37.857526000589132" lon="-8.76459295861423">
        <ele>73.680000000000007</ele>
        <time>2025-05-06T10:33:51Z</time>
      </trkpt>
      <trkpt lat="37.857461962848902" lon="-8.764636041596532">
        <ele>73.680000000000007</ele>
        <time>2025-05-06T10:33:52Z</time>
      </trkpt>
      <trkpt lat="37.857395997270942" lon="-8.76459002494812">
        <ele>73.200000000000003</ele>
        <time>2025-05-06T10:33:53Z</time>
      </trkpt>
      <trkpt lat="37.857334977015853" lon="-8.764529004693031">
        <ele>72.719999999999999</ele>
        <time>2025-05-06T10:33:54Z</time>
      </trkpt>
      <trkpt lat="37.857320979237556" lon="-8.764474019408226">
        <ele>72.239999999999995</ele>
        <time>2025-05-06T10:33:55Z</time>
      </trkpt>
      <trkpt lat="37.857251996174455" lon="-8.764284001663327">
        <ele>71.760000000000005</ele>
        <time>2025-05-06T10:33:56Z</time>
      </trkpt>
      <trkpt lat="37.857165997847915" lon="-8.764236979186535">
        <ele>71.760000000000005</ele>
        <time>2025-05-06T10:33:57Z</time>
      </trkpt>
      <trkpt lat="37.857055021449924" lon="-8.764175958931446">
        <ele>71.760000000000005</ele>
        <time>2025-05-06T10:33:58Z</time>
      </trkpt>
      <trkpt lat="37.856928035616875" lon="-8.764106975868344">
        <ele>71.269999999999996</ele>
        <time>2025-05-06T10:33:59Z</time>
      </trkpt>
      <trkpt lat="37.856794008985162" lon="-8.76403296366334">
        <ele>70.790000000000006</ele>
        <time>2025-05-06T10:34:00Z</time>
      </trkpt>
      <trkpt lat="37.855819026008248" lon="-8.763548992574215">
        <ele>71.269999999999996</ele>
        <time>2025-05-06T10:34:07Z</time>
      </trkpt>
      <trkpt lat="37.855659015476704" lon="-8.763558967038989">
        <ele>71.269999999999996</ele>
        <time>2025-05-06T10:34:08Z</time>
      </trkpt>
      <trkpt lat="37.855503028258681" lon="-8.763569025322795">
        <ele>71.269999999999996</ele>
        <time>2025-05-06T10:34:09Z</time>
      </trkpt>
      <trkpt lat="37.855347963050008" lon="-8.763638008385897">
        <ele>71.269999999999996</ele>
        <time>2025-05-06T10:34:10Z</time>
      </trkpt>
      <trkpt lat="37.855191975831985" lon="-8.763720989227295">
        <ele>71.269999999999996</ele>
        <time>2025-05-06T10:34:11Z</time>
      </trkpt>
      <trkpt lat="37.853629002347589" lon="-8.764535961672664">
        <ele>71.760000000000005</ele>
        <time>2025-05-06T10:34:20Z</time>
      </trkpt>
      <trkpt lat="37.851374018937349" lon="-8.765713032335043">
        <ele>70.790000000000006</ele>
        <time>2025-05-06T10:34:33Z</time>
      </trkpt>
      <trkpt lat="37.848885012790561" lon="-8.767023039981723">
        <ele>69.349999999999994</ele>
        <time>2025-05-06T10:34:47Z</time>
      </trkpt>
      <trkpt lat="37.847951017320156" lon="-8.76751396805048">
        <ele>68.390000000000001</ele>
        <time>2025-05-06T10:34:53Z</time>
      </trkpt>
      <trkpt lat="37.847859989851713" lon="-8.76751396805048">
        <ele>67.909999999999997</ele>
        <time>2025-05-06T10:34:54Z</time>
      </trkpt>
      <trkpt lat="37.847769968211651" lon="-8.767456971108913">
        <ele>68.390000000000001</ele>
        <time>2025-05-06T10:34:55Z</time>
      </trkpt>
      <trkpt lat="37.847665026783943" lon="-8.767391005530953">
        <ele>68.390000000000001</ele>
        <time>2025-05-06T10:34:56Z</time>
      </trkpt>
      <trkpt lat="37.847538962960243" lon="-8.767310036346316">
        <ele>68.390000000000001</ele>
        <time>2025-05-06T10:34:57Z</time>
      </trkpt>
      <trkpt lat="37.847391022369266" lon="-8.767215991392732">
        <ele>68.390000000000001</ele>
        <time>2025-05-06T10:34:58Z</time>
      </trkpt>
      <trkpt lat="37.847224976867437" lon="-8.767110966145992">
        <ele>68.870000000000005</ele>
        <time>2025-05-06T10:34:59Z</time>
      </trkpt>
      <trkpt lat="37.84703797660768" lon="-8.767027985304594">
        <ele>68.870000000000005</ele>
        <time>2025-05-06T10:35:00Z</time>
      </trkpt>
      <trkpt lat="37.846836978569627" lon="-8.766996972262859">
        <ele>68.870000000000005</ele>
        <time>2025-05-06T10:35:01Z</time>
      </trkpt>
      <trkpt lat="37.846642015501857" lon="-8.766986997798085">
        <ele>68.870000000000005</ele>
        <time>2025-05-06T10:35:02Z</time>
      </trkpt>
      <trkpt lat="37.844359036535025" lon="-8.766955984756351">
        <ele>70.790000000000006</ele>
        <time>2025-05-06T10:35:14Z</time>
      </trkpt>
      <trkpt lat="37.843479020521045" lon="-8.767047012224793">
        <ele>70.310000000000002</ele>
        <time>2025-05-06T10:35:20Z</time>
      </trkpt>
      <trkpt lat="37.842745017260313" lon="-8.767138039693236">
        <ele>70.310000000000002</ele>
        <time>2025-05-06T10:35:28Z</time>
      </trkpt>
      <trkpt lat="37.8420739620924" lon="-8.767160000279546">
        <ele>69.349999999999994</ele>
        <time>2025-05-06T10:35:35Z</time>
      </trkpt>
      <trkpt lat="37.841291008517146" lon="-8.766689021140337">
        <ele>67.909999999999997</ele>
        <time>2025-05-06T10:35:42Z</time>
      </trkpt>
      <trkpt lat="37.839869018644094" lon="-8.765694005414844">
        <ele>69.829999999999998</ele>
        <time>2025-05-06T10:35:52Z</time>
      </trkpt>
      <trkpt lat="37.837992981076241" lon="-8.764429008588195">
        <ele>71.269999999999996</ele>
        <time>2025-05-06T10:36:03Z</time>
      </trkpt>
      <trkpt lat="37.835703967139125" lon="-8.763283034786582">
        <ele>71.269999999999996</ele>
        <time>2025-05-06T10:36:15Z</time>
      </trkpt>
      <trkpt lat="37.833853997290134" lon="-8.762363037094474">
        <ele>70.790000000000006</ele>
        <time>2025-05-06T10:36:26Z</time>
      </trkpt>
      <trkpt lat="37.832836015149951" lon="-8.76184000633657">
        <ele>70.310000000000002</ele>
        <time>2025-05-06T10:36:34Z</time>
      </trkpt>
      <trkpt lat="37.831164998933673" lon="-8.760987985879183">
        <ele>66.950000000000003</ele>
        <time>2025-05-06T10:36:46Z</time>
      </trkpt>
      <trkpt lat="37.829264989122748" lon="-8.760235039517283">
        <ele>65.030000000000001</ele>
        <time>2025-05-06T10:36:57Z</time>
      </trkpt>
      <trkpt lat="37.827942995354533" lon="-8.759781997650862">
        <ele>67.430000000000007</ele>
        <time>2025-05-06T10:37:04Z</time>
      </trkpt>
      <trkpt lat="37.827760018408298" lon="-8.75975601375103">
        <ele>67.909999999999997</ele>
        <time>2025-05-06T10:37:05Z</time>
      </trkpt>
      <trkpt lat="37.827567989006639" lon="-8.759798007085919">
        <ele>68.390000000000001</ele>
        <time>2025-05-06T10:37:06Z</time>
      </trkpt>
      <trkpt lat="37.82737797126174" lon="-8.759851986542344">
        <ele>69.349999999999994</ele>
        <time>2025-05-06T10:37:07Z</time>
      </trkpt>
      <trkpt lat="37.827189965173602" lon="-8.759905965998769">
        <ele>70.310000000000002</ele>
        <time>2025-05-06T10:37:08Z</time>
      </trkpt>
      <trkpt lat="37.827003970742226" lon="-8.759964974597096">
        <ele>71.269999999999996</ele>
        <time>2025-05-06T10:37:09Z</time>
      </trkpt>
      <trkpt lat="37.824716968461871" lon="-8.760734014213085">
        <ele>72.719999999999999</ele>
        <time>2025-05-06T10:37:20Z</time>
      </trkpt>
      <trkpt lat="37.82258503139019" lon="-8.76145401969552">
        <ele>71.269999999999996</ele>
        <time>2025-05-06T10:37:29Z</time>
      </trkpt>
      <trkpt lat="37.820236003026366" lon="-8.76224803738296">
        <ele>71.269999999999996</ele>
        <time>2025-05-06T10:37:39Z</time>
      </trkpt>
      <trkpt lat="37.817176021635532" lon="-8.763276999816299">
        <ele>68.390000000000001</ele>
        <time>2025-05-06T10:37:53Z</time>
      </trkpt>
      <trkpt lat="37.814761027693748" lon="-8.763945959508419">
        <ele>54.93</ele>
        <time>2025-05-06T10:38:04Z</time>
      </trkpt>
      <trkpt lat="37.813618993386626" lon="-8.764315014705062">
        <ele>58.780000000000001</ele>
        <time>2025-05-06T10:38:11Z</time>
      </trkpt>
      <trkpt lat="37.81345303170383" lon="-8.764367988333106">
        <ele>60.219999999999999</ele>
        <time>2025-05-06T10:38:12Z</time>
      </trkpt>
      <trkpt lat="37.813290003687143" lon="-8.764442000538111">
        <ele>61.18</ele>
        <time>2025-05-06T10:38:13Z</time>
      </trkpt>
      <trkpt lat="37.81201402656734" lon="-8.765141973271966">
        <ele>69.829999999999998</ele>
        <time>2025-05-06T10:38:20Z</time>
      </trkpt>
      <trkpt lat="37.810463039204478" lon="-8.766076974570751">
        <ele>73.680000000000007</ele>
        <time>2025-05-06T10:38:28Z</time>
      </trkpt>
      <trkpt lat="37.809299966320395" lon="-8.766778958961368">
        <ele>74.159999999999997</ele>
        <time>2025-05-06T10:38:34Z</time>
      </trkpt>
      <trkpt lat="37.809109026566148" lon="-8.766892030835152">
        <ele>74.159999999999997</ele>
        <time>2025-05-06T10:38:35Z</time>
      </trkpt>
      <trkpt lat="37.807262996211648" lon="-8.76798402518034">
        <ele>76.560000000000002</ele>
        <time>2025-05-06T10:38:45Z</time>
      </trkpt>
      <trkpt lat="37.805302971974015" lon="-8.769321022555232">
        <ele>73.680000000000007</ele>
        <time>2025-05-06T10:38:57Z</time>
      </trkpt>
      <trkpt lat="37.804293036460876" lon="-8.770017977803946">
        <ele>70.310000000000002</ele>
        <time>2025-05-06T10:39:05Z</time>
      </trkpt>
      <trkpt lat="37.803376978263259" lon="-8.770617032423616">
        <ele>69.349999999999994</ele>
        <time>2025-05-06T10:39:14Z</time>
      </trkpt>
      <trkpt lat="37.802112987264991" lon="-8.771513979882002">
        <ele>68.870000000000005</ele>
        <time>2025-05-06T10:39:26Z</time>
      </trkpt>
      <trkpt lat="37.80097003094852" lon="-8.77264897339046">
        <ele>66.950000000000003</ele>
        <time>2025-05-06T10:39:38Z</time>
      </trkpt>
      <trkpt lat="37.800467032939196" lon="-8.773244004696608">
        <ele>64.549999999999997</ele>
        <time>2025-05-06T10:39:43Z</time>
      </trkpt>
      <trkpt lat="37.800382962450385" lon="-8.773397980257869">
        <ele>63.579999999999998</ele>
        <time>2025-05-06T10:39:44Z</time>
      </trkpt>
      <trkpt lat="37.800295958295465" lon="-8.773558996617794">
        <ele>63.100000000000001</ele>
        <time>2025-05-06T10:39:45Z</time>
      </trkpt>
      <trkpt lat="37.80022001825273" lon="-8.773748008534312">
        <ele>62.619999999999997</ele>
        <time>2025-05-06T10:39:46Z</time>
      </trkpt>
      <trkpt lat="37.800169978290796" lon="-8.773950012400746">
        <ele>61.659999999999997</ele>
        <time>2025-05-06T10:39:47Z</time>
      </trkpt>
      <trkpt lat="37.800118010491133" lon="-8.774156961590052">
        <ele>61.18</ele>
        <time>2025-05-06T10:39:48Z</time>
      </trkpt>
      <trkpt lat="37.799738980829716" lon="-8.775894027203322">
        <ele>55.890000000000001</ele>
        <time>2025-05-06T10:39:56Z</time>
      </trkpt>
      <trkpt lat="37.799413008615375" lon="-8.777355998754501">
        <ele>51.57</ele>
        <time>2025-05-06T10:40:04Z</time>
      </trkpt>
      <trkpt lat="37.799183009192348" lon="-8.778270967304707">
        <ele>49.159999999999997</ele>
        <time>2025-05-06T10:40:09Z</time>
      </trkpt>
      <trkpt lat="37.799084018915892" lon="-8.778414968401194">
        <ele>48.68</ele>
        <time>2025-05-06T10:40:10Z</time>
      </trkpt>
      <trkpt lat="37.798976982012391" lon="-8.778570033609867">
        <ele>48.68</ele>
        <time>2025-05-06T10:40:11Z</time>
      </trkpt>
      <trkpt lat="37.798854019492865" lon="-8.778647985309362">
        <ele>48.68</ele>
        <time>2025-05-06T10:40:12Z</time>
      </trkpt>
      <trkpt lat="37.798711024224758" lon="-8.778729038313031">
        <ele>48.68</ele>
        <time>2025-05-06T10:40:13Z</time>
      </trkpt>
      <trkpt lat="37.798552019521594" lon="-8.778776982799172">
        <ele>49.159999999999997</ele>
        <time>2025-05-06T10:40:14Z</time>
      </trkpt>
      <trkpt lat="37.798389997333288" lon="-8.778826016932726">
        <ele>49.159999999999997</ele>
        <time>2025-05-06T10:40:15Z</time>
      </trkpt>
      <trkpt lat="37.796090003103018" lon="-8.779561026021838">
        <ele>55.890000000000001</ele>
        <time>2025-05-06T10:40:28Z</time>
      </trkpt>
      <trkpt lat="37.793607031926513" lon="-8.780388990417123">
        <ele>56.369999999999997</ele>
        <time>2025-05-06T10:40:41Z</time>
      </trkpt>
      <trkpt lat="37.790935970842838" lon="-8.781335977837443">
        <ele>58.299999999999997</ele>
        <time>2025-05-06T10:40:54Z</time>
      </trkpt>
      <trkpt lat="37.788120992481709" lon="-8.782254969701171">
        <ele>63.579999999999998</ele>
        <time>2025-05-06T10:41:08Z</time>
      </trkpt>
      <trkpt lat="37.786024007946253" lon="-8.782939016819">
        <ele>66.950000000000003</ele>
        <time>2025-05-06T10:41:18Z</time>
      </trkpt>
      <trkpt lat="37.785801971331239" lon="-8.783012023195624">
        <ele>67.430000000000007</ele>
        <time>2025-05-06T10:41:19Z</time>
      </trkpt>
      <trkpt lat="37.785590998828411" lon="-8.783032977953553">
        <ele>67.909999999999997</ele>
        <time>2025-05-06T10:41:20Z</time>
      </trkpt>
      <trkpt lat="37.783294022083282" lon="-8.783062985166907">
        <ele>66.469999999999999</ele>
        <time>2025-05-06T10:41:30Z</time>
      </trkpt>
      <trkpt lat="37.781411027535796" lon="-8.783115036785603">
        <ele>64.549999999999997</ele>
        <time>2025-05-06T10:41:39Z</time>
      </trkpt>
      <trkpt lat="37.780122980475426" lon="-8.783275969326496">
        <ele>63.579999999999998</ele>
        <time>2025-05-06T10:41:46Z</time>
      </trkpt>
      <trkpt lat="37.778757987543941" lon="-8.78347403369844">
        <ele>65.030000000000001</ele>
        <time>2025-05-06T10:41:54Z</time>
      </trkpt>
      <trkpt lat="37.776662008836865" lon="-8.78377796150744">
        <ele>66.469999999999999</ele>
        <time>2025-05-06T10:42:04Z</time>
      </trkpt>
      <trkpt lat="37.775642015039921" lon="-8.783832024782896">
        <ele>65.510000000000005</ele>
        <time>2025-05-06T10:42:09Z</time>
      </trkpt>
      <trkpt lat="37.775428025051951" lon="-8.783810986205936">
        <ele>65.030000000000001</ele>
        <time>2025-05-06T10:42:10Z</time>
      </trkpt>
      <trkpt lat="37.775224009528756" lon="-8.783718030899763">
        <ele>65.030000000000001</ele>
        <time>2025-05-06T10:42:11Z</time>
      </trkpt>
      <trkpt lat="37.775025023147464" lon="-8.783602025359869">
        <ele>65.030000000000001</ele>
        <time>2025-05-06T10:42:12Z</time>
      </trkpt>
      <trkpt lat="37.774831987917423" lon="-8.783489959314466">
        <ele>64.549999999999997</ele>
        <time>2025-05-06T10:42:13Z</time>
      </trkpt>
      <trkpt lat="37.772280033677816" lon="-8.782004015520215">
        <ele>63.579999999999998</ele>
        <time>2025-05-06T10:42:26Z</time>
      </trkpt>
      <trkpt lat="37.770358985289931" lon="-8.780901040881872">
        <ele>69.829999999999998</ele>
        <time>2025-05-06T10:42:36Z</time>
      </trkpt>
      <trkpt lat="37.7701620105654" lon="-8.78085401840508">
        <ele>70.790000000000006</ele>
        <time>2025-05-06T10:42:37Z</time>
      </trkpt>
      <trkpt lat="37.769945003092289" lon="-8.780800960958004">
        <ele>71.269999999999996</ele>
        <time>2025-05-06T10:42:38Z</time>
      </trkpt>
      <trkpt lat="37.76975397951901" lon="-8.780808001756668">
        <ele>71.760000000000005</ele>
        <time>2025-05-06T10:42:39Z</time>
      </trkpt>
      <trkpt lat="37.769545018672943" lon="-8.780814958736301">
        <ele>72.239999999999995</ele>
        <time>2025-05-06T10:42:40Z</time>
      </trkpt>
      <trkpt lat="37.767204958945513" lon="-8.780938005074859">
        <ele>75.120000000000005</ele>
        <time>2025-05-06T10:42:51Z</time>
      </trkpt>
      <trkpt lat="37.767003960907459" lon="-8.780931970104575">
        <ele>74.640000000000001</ele>
        <time>2025-05-06T10:42:52Z</time>
      </trkpt>
      <trkpt lat="37.766807992011309" lon="-8.780892994254828">
        <ele>74.640000000000001</ele>
        <time>2025-05-06T10:42:53Z</time>
      </trkpt>
      <trkpt lat="37.766615962609649" lon="-8.780839014798403">
        <ele>74.640000000000001</ele>
        <time>2025-05-06T10:42:54Z</time>
      </trkpt>
      <trkpt lat="37.766404990106821" lon="-8.780780006200075">
        <ele>74.640000000000001</ele>
        <time>2025-05-06T10:42:55Z</time>
      </trkpt>
      <trkpt lat="37.766246991232038" lon="-8.780652014538646">
        <ele>74.640000000000001</ele>
        <time>2025-05-06T10:42:56Z</time>
      </trkpt>
      <trkpt lat="37.766077006235719" lon="-8.780513964593411">
        <ele>74.640000000000001</ele>
        <time>2025-05-06T10:42:57Z</time>
      </trkpt>
      <trkpt lat="37.765953037887812" lon="-8.780292011797428">
        <ele>74.640000000000001</ele>
        <time>2025-05-06T10:42:58Z</time>
      </trkpt>
      <trkpt lat="37.765841977670789" lon="-8.780079027637839">
        <ele>75.120000000000005</ele>
        <time>2025-05-06T10:42:59Z</time>
      </trkpt>
      <trkpt lat="37.765726977959275" lon="-8.779857996851206">
        <ele>75.120000000000005</ele>
        <time>2025-05-06T10:43:00Z</time>
      </trkpt>
      <trkpt lat="37.765612984076142" lon="-8.779637971892953">
        <ele>75.599999999999994</ele>
        <time>2025-05-06T10:43:01Z</time>
      </trkpt>
      <trkpt lat="37.764932038262486" lon="-8.778336010873318">
        <ele>76.079999999999998</ele>
        <time>2025-05-06T10:43:08Z</time>
      </trkpt>
      <trkpt lat="37.764851991087198" lon="-8.778183963149786">
        <ele>76.560000000000002</ele>
        <time>2025-05-06T10:43:09Z</time>
      </trkpt>
      <trkpt lat="37.764628026634455" lon="-8.777757994830608">
        <ele>77.040000000000006</ele>
        <time>2025-05-06T10:43:12Z</time>
      </trkpt>
      <trkpt lat="37.763441987335682" lon="-8.776270961388946">
        <ele>78.480000000000004</ele>
        <time>2025-05-06T10:43:25Z</time>
      </trkpt>
      <trkpt lat="37.76201899163425" lon="-8.774506989866495">
        <ele>80.409999999999997</ele>
        <time>2025-05-06T10:43:40Z</time>
      </trkpt>
      <trkpt lat="37.760863965377212" lon="-8.773117018863559">
        <ele>80.409999999999997</ele>
        <time>2025-05-06T10:43:53Z</time>
      </trkpt>
      <trkpt lat="37.759858975186944" lon="-8.771868031471968">
        <ele>78.480000000000004</ele>
        <time>2025-05-06T10:44:03Z</time>
      </trkpt>
      <trkpt lat="37.758990023285151" lon="-8.770489962771535">
        <ele>77.040000000000006</ele>
        <time>2025-05-06T10:44:10Z</time>
      </trkpt>
      <trkpt lat="37.757692001760006" lon="-8.767924010753632">
        <ele>74.159999999999997</ele>
        <time>2025-05-06T10:44:22Z</time>
      </trkpt>
      <trkpt lat="37.756438991054893" lon="-8.7663300242275">
        <ele>71.269999999999996</ele>
        <time>2025-05-06T10:44:30Z</time>
      </trkpt>
      <trkpt lat="37.75443403981626" lon="-8.763984013348818">
        <ele>68.390000000000001</ele>
        <time>2025-05-06T10:44:42Z</time>
      </trkpt>
      <trkpt lat="37.753331987187266" lon="-8.762693032622337">
        <ele>68.390000000000001</ele>
        <time>2025-05-06T10:44:50Z</time>
      </trkpt>
      <trkpt lat="37.752555990591645" lon="-8.7617779802531">
        <ele>68.390000000000001</ele>
        <time>2025-05-06T10:44:57Z</time>
      </trkpt>
      <trkpt lat="37.752375025302172" lon="-8.761477991938591">
        <ele>69.349999999999994</ele>
        <time>2025-05-06T10:44:59Z</time>
      </trkpt>
      <trkpt lat="37.752316016703844" lon="-8.761301971971989">
        <ele>69.829999999999998</ele>
        <time>2025-05-06T10:45:00Z</time>
      </trkpt>
      <trkpt lat="37.752016028389335" lon="-8.759757019579411">
        <ele>69.349999999999994</ele>
        <time>2025-05-06T10:45:08Z</time>
      </trkpt>
      <trkpt lat="37.751669017598033" lon="-8.757537994533777">
        <ele>65.989999999999995</ele>
        <time>2025-05-06T10:45:20Z</time>
      </trkpt>
      <trkpt lat="37.751537002623081" lon="-8.757268013432622">
        <ele>65.989999999999995</ele>
        <time>2025-05-06T10:45:22Z</time>
      </trkpt>
      <trkpt lat="37.751470031216741" lon="-8.757133986800909">
        <ele>65.989999999999995</ele>
        <time>2025-05-06T10:45:23Z</time>
      </trkpt>
      <trkpt lat="37.751410016790032" lon="-8.757043965160847">
        <ele>65.989999999999995</ele>
        <time>2025-05-06T10:45:24Z</time>
      </trkpt>
      <trkpt lat="37.751355031505227" lon="-8.756960984319449">
        <ele>65.989999999999995</ele>
        <time>2025-05-06T10:45:25Z</time>
      </trkpt>
      <trkpt lat="37.751239025965333" lon="-8.756960984319449">
        <ele>65.989999999999995</ele>
        <time>2025-05-06T10:45:26Z</time>
      </trkpt>
      <trkpt lat="37.7511699590832" lon="-8.757020998746157">
        <ele>65.989999999999995</ele>
        <time>2025-05-06T10:45:27Z</time>
      </trkpt>
      <trkpt lat="37.751099970191717" lon="-8.757085036486387">
        <ele>65.989999999999995</ele>
        <time>2025-05-06T10:45:28Z</time>
      </trkpt>
      <trkpt lat="37.751023024320602" lon="-8.75715502537787">
        <ele>65.510000000000005</ele>
        <time>2025-05-06T10:45:29Z</time>
      </trkpt>
      <trkpt lat="37.750938031822443" lon="-8.757250998169184">
        <ele>65.510000000000005</ele>
        <time>2025-05-06T10:45:30Z</time>
      </trkpt>
      <trkpt lat="37.750856978818774" lon="-8.757360968738794">
        <ele>65.510000000000005</ele>
        <time>2025-05-06T10:45:31Z</time>
      </trkpt>
      <trkpt lat="37.74970798753202" lon="-8.758624037727714">
        <ele>65.510000000000005</ele>
        <time>2025-05-06T10:45:42Z</time>
      </trkpt>
      <trkpt lat="37.748220032081008" lon="-8.75992801040411">
        <ele>64.549999999999997</ele>
        <time>2025-05-06T10:45:55Z</time>
      </trkpt>
      <trkpt lat="37.746931985020638" lon="-8.760911962017417">
        <ele>63.100000000000001</ele>
        <time>2025-05-06T10:46:04Z</time>
      </trkpt>
      <trkpt lat="37.745009008795023" lon="-8.762341998517513">
        <ele>61.18</ele>
        <time>2025-05-06T10:46:14Z</time>
      </trkpt>
      <trkpt lat="37.742963992059231" lon="-8.763898015022278">
        <ele>58.780000000000001</ele>
        <time>2025-05-06T10:46:25Z</time>
      </trkpt>
      <trkpt lat="37.741583995521069" lon="-8.764928989112377">
        <ele>56.369999999999997</ele>
        <time>2025-05-06T10:46:35Z</time>
      </trkpt>
      <trkpt lat="37.74031899869442" lon="-8.765815040096641">
        <ele>54.450000000000003</ele>
        <time>2025-05-06T10:46:45Z</time>
      </trkpt>
      <trkpt lat="37.740201987326145" lon="-8.765843035653234">
        <ele>54.450000000000003</ele>
        <time>2025-05-06T10:46:46Z</time>
      </trkpt>
      <trkpt lat="37.739996965974569" lon="-8.765890980139375">
        <ele>54.450000000000003</ele>
        <time>2025-05-06T10:46:48Z</time>
      </trkpt>
      <trkpt lat="37.739904010668397" lon="-8.765910007059574">
        <ele>54.93</ele>
        <time>2025-05-06T10:46:49Z</time>
      </trkpt>
      <trkpt lat="37.739829998463392" lon="-8.765959041193128">
        <ele>54.93</ele>
        <time>2025-05-06T10:46:50Z</time>
      </trkpt>
      <trkpt lat="37.739776019006968" lon="-8.766146041452885">
        <ele>55.409999999999997</ele>
        <time>2025-05-06T10:46:51Z</time>
      </trkpt>
      <trkpt lat="37.739713992923498" lon="-8.766198009252548">
        <ele>55.890000000000001</ele>
        <time>2025-05-06T10:46:52Z</time>
      </trkpt>
      <trkpt lat="37.739690020680428" lon="-8.766209995374084">
        <ele>55.409999999999997</ele>
        <time>2025-05-06T10:46:53Z</time>
      </trkpt>
      <trkpt lat="37.739497991278768" lon="-8.766252994537354">
        <ele>55.409999999999997</ele>
        <time>2025-05-06T10:46:54Z</time>
      </trkpt>
      <trkpt lat="37.739421967417002" lon="-8.766349973157048">
        <ele>55.409999999999997</ele>
        <time>2025-05-06T10:46:55Z</time>
      </trkpt>
      <trkpt lat="37.739342004060745" lon="-8.766452986747026">
        <ele>55.890000000000001</ele>
        <time>2025-05-06T10:46:56Z</time>
      </trkpt>
      <trkpt lat="37.739142011851072" lon="-8.766751969233155">
        <ele>55.409999999999997</ele>
        <time>2025-05-06T10:46:59Z</time>
      </trkpt>
      <trkpt lat="37.739056013524532" lon="-8.766822963953018">
        <ele>54.93</ele>
        <time>2025-05-06T10:47:00Z</time>
      </trkpt>
      <trkpt lat="37.73810600861907" lon="-8.767571970820427">
        <ele>52.049999999999997</ele>
        <time>2025-05-06T10:47:10Z</time>
      </trkpt>
      <trkpt lat="37.73724501952529" lon="-8.768231039866805">
        <ele>51.090000000000003</ele>
        <time>2025-05-06T10:47:19Z</time>
      </trkpt>
      <trkpt lat="37.736041964963078" lon="-8.769150031730533">
        <ele>50.130000000000003</ele>
        <time>2025-05-06T10:47:31Z</time>
      </trkpt>
      <trkpt lat="37.735022976994514" lon="-8.770232973620296">
        <ele>49.649999999999999</ele>
        <time>2025-05-06T10:47:41Z</time>
      </trkpt>
      <trkpt lat="37.733947997912765" lon="-8.771135034039617">
        <ele>46.759999999999998</ele>
        <time>2025-05-06T10:47:52Z</time>
      </trkpt>
      <trkpt lat="37.733676005154848" lon="-8.771349024027586">
        <ele>45.32</ele>
        <time>2025-05-06T10:47:55Z</time>
      </trkpt>
      <trkpt lat="37.733607022091746" lon="-8.771438961848617">
        <ele>44.840000000000003</ele>
        <time>2025-05-06T10:47:56Z</time>
      </trkpt>
      <trkpt lat="37.733548013493419" lon="-8.771549016237259">
        <ele>44.359999999999999</ele>
        <time>2025-05-06T10:47:57Z</time>
      </trkpt>
      <trkpt lat="37.733501996845007" lon="-8.771670972928405">
        <ele>44.840000000000003</ele>
        <time>2025-05-06T10:47:58Z</time>
      </trkpt>
      <trkpt lat="37.733489004895091" lon="-8.771768035367131">
        <ele>44.359999999999999</ele>
        <time>2025-05-06T10:47:59Z</time>
      </trkpt>
      <trkpt lat="37.733403006568551" lon="-8.771896027028561">
        <ele>43.880000000000003</ele>
        <time>2025-05-06T10:48:00Z</time>
      </trkpt>
      <trkpt lat="37.733254982158542" lon="-8.772339010611177">
        <ele>43.880000000000003</ele>
        <time>2025-05-06T10:48:04Z</time>
      </trkpt>
      <trkpt lat="37.733218017965555" lon="-8.772451998665929">
        <ele>44.359999999999999</ele>
        <time>2025-05-06T10:48:05Z</time>
      </trkpt>
      <trkpt lat="37.733121961355209" lon="-8.772547971457243">
        <ele>44.359999999999999</ele>
        <time>2025-05-06T10:48:06Z</time>
      </trkpt>
      <trkpt lat="37.733037974685431" lon="-8.772616032510996">
        <ele>44.359999999999999</ele>
        <time>2025-05-06T10:48:07Z</time>
      </trkpt>
      <trkpt lat="37.732953988015652" lon="-8.772686021402478">
        <ele>44.840000000000003</ele>
        <time>2025-05-06T10:48:08Z</time>
      </trkpt>
      <trkpt lat="37.731827041134238" lon="-8.773741973564029">
        <ele>43.399999999999999</ele>
        <time>2025-05-06T10:48:21Z</time>
      </trkpt>
      <trkpt lat="37.731010979041457" lon="-8.774679992347956">
        <ele>41.950000000000003</ele>
        <time>2025-05-06T10:48:32Z</time>
      </trkpt>
      <trkpt lat="37.730898996815085" lon="-8.774809995666146">
        <ele>40.990000000000002</ele>
        <time>2025-05-06T10:48:34Z</time>
      </trkpt>
      <trkpt lat="37.730848034843802" lon="-8.774869004264474">
        <ele>40.990000000000002</ele>
        <time>2025-05-06T10:48:35Z</time>
      </trkpt>
      <trkpt lat="37.730828002095222" lon="-8.775050975382328">
        <ele>41.469999999999999</ele>
        <time>2025-05-06T10:48:36Z</time>
      </trkpt>
      <trkpt lat="37.730818027630448" lon="-8.77507503144443">
        <ele>40.990000000000002</ele>
        <time>2025-05-06T10:48:37Z</time>
      </trkpt>
      <trkpt lat="37.730749966576695" lon="-8.775169998407364">
        <ele>40.990000000000002</ele>
        <time>2025-05-06T10:48:38Z</time>
      </trkpt>
      <trkpt lat="37.730719959363341" lon="-8.775178967043757">
        <ele>40.990000000000002</ele>
        <time>2025-05-06T10:48:39Z</time>
      </trkpt>
      <trkpt lat="37.73060797713697" lon="-8.775129010900855">
        <ele>40.509999999999998</ele>
        <time>2025-05-06T10:48:40Z</time>
      </trkpt>
      <trkpt lat="37.730570007115602" lon="-8.775178967043757">
        <ele>40.509999999999998</ele>
        <time>2025-05-06T10:48:41Z</time>
      </trkpt>
      <trkpt lat="37.730570007115602" lon="-8.775178967043757">
        <ele>40.030000000000001</ele>
        <time>2025-05-06T10:48:42Z</time>
      </trkpt>
      <trkpt lat="37.730561038479209" lon="-8.775190031155944">
        <ele>40.030000000000001</ele>
        <time>2025-05-06T10:48:43Z</time>
      </trkpt>
      <trkpt lat="37.730541005730629" lon="-8.775209980085492">
        <ele>40.030000000000001</ele>
        <time>2025-05-06T10:48:44Z</time>
      </trkpt>
      <trkpt lat="37.730519967153668" lon="-8.775233030319214">
        <ele>39.549999999999997</ele>
        <time>2025-05-06T10:48:45Z</time>
      </trkpt>
      <trkpt lat="37.730493983253837" lon="-8.775261025875807">
        <ele>39.549999999999997</ele>
        <time>2025-05-06T10:48:46Z</time>
      </trkpt>
      <trkpt lat="37.730463976040483" lon="-8.775292038917542">
        <ele>39.07</ele>
        <time>2025-05-06T10:48:47Z</time>
      </trkpt>
      <trkpt lat="37.730427011847496" lon="-8.77533202059567">
        <ele>39.07</ele>
        <time>2025-05-06T10:48:48Z</time>
      </trkpt>
      <trkpt lat="37.730384012684226" lon="-8.775377031415701">
        <ele>38.590000000000003</ele>
        <time>2025-05-06T10:48:49Z</time>
      </trkpt>
      <trkpt lat="37.730341013520956" lon="-8.775422964245081">
        <ele>38.590000000000003</ele>
        <time>2025-05-06T10:48:50Z</time>
      </trkpt>
      <trkpt lat="37.729844972491264" lon="-8.775951024144888">
        <ele>37.630000000000003</ele>
        <time>2025-05-06T10:49:03Z</time>
      </trkpt>
      <trkpt lat="37.729775989428163" lon="-8.776027970016003">
        <ele>37.149999999999999</ele>
        <time>2025-05-06T10:49:11Z</time>
      </trkpt>
      <trkpt lat="37.72970600053668" lon="-8.776104999706149">
        <ele>37.630000000000003</ele>
        <time>2025-05-06T10:49:23Z</time>
      </trkpt>
      <trkpt lat="37.729522017762065" lon="-8.776307003572583">
        <ele>37.149999999999999</ele>
        <time>2025-05-06T10:49:33Z</time>
      </trkpt>
      <trkpt lat="37.728980965912342" lon="-8.776893988251686">
        <ele>38.109999999999999</ele>
        <time>2025-05-06T10:49:45Z</time>
      </trkpt>
      <trkpt lat="37.728548962622881" lon="-8.777351975440979">
        <ele>36.670000000000002</ele>
        <time>2025-05-06T10:49:55Z</time>
      </trkpt>
      <trkpt lat="37.728461036458611" lon="-8.777449959889054">
        <ele>36.189999999999998</ele>
        <time>2025-05-06T10:49:57Z</time>
      </trkpt>
      <trkpt lat="37.728417031466961" lon="-8.777499999850988">
        <ele>36.189999999999998</ele>
        <time>2025-05-06T10:49:58Z</time>
      </trkpt>
      <trkpt lat="37.727782018482685" lon="-8.77821103669703">
        <ele>38.590000000000003</ele>
        <time>2025-05-06T10:50:10Z</time>
      </trkpt>
      <trkpt lat="37.7272770088166" lon="-8.778768014162779">
        <ele>40.509999999999998</ele>
        <time>2025-05-06T10:50:20Z</time>
      </trkpt>
      <trkpt lat="37.727223029360175" lon="-8.778827022761107">
        <ele>40.030000000000001</ele>
        <time>2025-05-06T10:50:21Z</time>
      </trkpt>
      <trkpt lat="37.727179024368525" lon="-8.778863986954093">
        <ele>40.030000000000001</ele>
        <time>2025-05-06T10:50:22Z</time>
      </trkpt>
      <trkpt lat="37.726629003882408" lon="-8.779460024088621">
        <ele>35.710000000000001</ele>
        <time>2025-05-06T10:50:34Z</time>
      </trkpt>
      <trkpt lat="37.726167999207973" lon="-8.780003003776074">
        <ele>34.259999999999998</ele>
        <time>2025-05-06T10:50:45Z</time>
      </trkpt>
      <trkpt lat="37.726123994216323" lon="-8.780055977404118">
        <ele>34.259999999999998</ele>
        <time>2025-05-06T10:50:46Z</time>
      </trkpt>
      <trkpt lat="37.726086024194956" lon="-8.780100988224149">
        <ele>34.259999999999998</ele>
        <time>2025-05-06T10:50:47Z</time>
      </trkpt>
      <trkpt lat="37.726054005324841" lon="-8.780138958245516">
        <ele>34.259999999999998</ele>
        <time>2025-05-06T10:50:48Z</time>
      </trkpt>
      <trkpt lat="37.72603296674788" lon="-8.780165025964379">
        <ele>34.259999999999998</ele>
        <time>2025-05-06T10:50:49Z</time>
      </trkpt>
      <trkpt lat="37.726033972576261" lon="-8.780196961015463">
        <ele>34.259999999999998</ele>
        <time>2025-05-06T10:50:50Z</time>
      </trkpt>
      <trkpt lat="37.726059034466743" lon="-8.78023199737072">
        <ele>33.780000000000001</ele>
        <time>2025-05-06T10:50:51Z</time>
      </trkpt>
      <trkpt lat="37.726091975346208" lon="-8.780279019847512">
        <ele>33.780000000000001</ele>
        <time>2025-05-06T10:50:52Z</time>
      </trkpt>
      <trkpt lat="37.726130029186606" lon="-8.780331993475556">
        <ele>33.299999999999997</ele>
        <time>2025-05-06T10:50:53Z</time>
      </trkpt>
      <trkpt lat="37.726167999207973" lon="-8.78038396127522">
        <ele>33.299999999999997</ele>
        <time>2025-05-06T10:50:54Z</time>
      </trkpt>
      <trkpt lat="37.726242011412978" lon="-8.780484963208437">
        <ele>33.299999999999997</ele>
        <time>2025-05-06T10:50:56Z</time>
      </trkpt>
      <trkpt lat="37.726278975605965" lon="-8.780536008998752">
        <ele>33.299999999999997</ele>
        <time>2025-05-06T10:50:57Z</time>
      </trkpt>
      <trkpt lat="37.726302025839686" lon="-8.780608009546995">
        <ele>33.299999999999997</ele>
        <time>2025-05-06T10:50:58Z</time>
      </trkpt>
      <trkpt lat="37.726305965334177" lon="-8.780675986781716">
        <ele>33.299999999999997</ele>
        <time>2025-05-06T10:50:59Z</time>
      </trkpt>
      <trkpt lat="37.726309988647699" lon="-8.780743964016438">
        <ele>33.299999999999997</ele>
        <time>2025-05-06T10:51:00Z</time>
      </trkpt>
      <trkpt lat="37.726313006132841" lon="-8.780810013413429">
        <ele>33.299999999999997</ele>
        <time>2025-05-06T10:51:01Z</time>
      </trkpt>
      <trkpt lat="37.726325998082757" lon="-8.781072031706572">
        <ele>33.299999999999997</ele>
        <time>2025-05-06T10:51:05Z</time>
      </trkpt>
      <trkpt lat="37.726328009739518" lon="-8.78113598562777">
        <ele>33.299999999999997</ele>
        <time>2025-05-06T10:51:06Z</time>
      </trkpt>
      <trkpt lat="37.72633102722466" lon="-8.781201029196382">
        <ele>33.299999999999997</ele>
        <time>2025-05-06T10:51:07Z</time>
      </trkpt>
      <trkpt lat="37.726341001689434" lon="-8.781529013067484">
        <ele>33.780000000000001</ele>
        <time>2025-05-06T10:51:14Z</time>
      </trkpt>
      <trkpt lat="37.72633396089077" lon="-8.781592966988683">
        <ele>34.259999999999998</ele>
        <time>2025-05-06T10:51:15Z</time>
      </trkpt>
      <trkpt lat="37.726316023617983" lon="-8.781743003055453">
        <ele>34.740000000000002</ele>
        <time>2025-05-06T10:51:17Z</time>
      </trkpt>
      <trkpt lat="37.726186020299792" lon="-8.782470971345902">
        <ele>31.859999999999999</ele>
        <time>2025-05-06T10:51:25Z</time>
      </trkpt>
      <trkpt lat="37.725927019491792" lon="-8.783187959343195">
        <ele>30.420000000000002</ele>
        <time>2025-05-06T10:51:34Z</time>
      </trkpt>
      <trkpt lat="37.725690985098481" lon="-8.783838981762528">
        <ele>28.5</ele>
        <time>2025-05-06T10:51:43Z</time>
      </trkpt>
      <trkpt lat="37.725663995370269" lon="-8.783902013674378">
        <ele>28.5</ele>
        <time>2025-05-06T10:51:44Z</time>
      </trkpt>
      <trkpt lat="37.725614039227366" lon="-8.784020030871034">
        <ele>28.5</ele>
        <time>2025-05-06T10:51:46Z</time>
      </trkpt>
      <trkpt lat="37.725669024512172" lon="-8.784132013097405">
        <ele>28.02</ele>
        <time>2025-05-06T10:51:47Z</time>
      </trkpt>
      <trkpt lat="37.725630970671773" lon="-8.784155985340476">
        <ele>28.02</ele>
        <time>2025-05-06T10:51:48Z</time>
      </trkpt>
      <trkpt lat="37.725584032014012" lon="-8.784183980897069">
        <ele>27.530000000000001</ele>
        <time>2025-05-06T10:51:49Z</time>
      </trkpt>
      <trkpt lat="37.725529968738556" lon="-8.784229997545481">
        <ele>27.050000000000001</ele>
        <time>2025-05-06T10:51:50Z</time>
      </trkpt>
      <trkpt lat="37.725488981232047" lon="-8.78429101780057">
        <ele>27.050000000000001</ele>
        <time>2025-05-06T10:51:51Z</time>
      </trkpt>
      <trkpt lat="37.725443970412016" lon="-8.78435798920691">
        <ele>26.57</ele>
        <time>2025-05-06T10:51:52Z</time>
      </trkpt>
      <trkpt lat="37.725396025925875" lon="-8.784428983926773">
        <ele>26.57</ele>
        <time>2025-05-06T10:51:53Z</time>
      </trkpt>
      <trkpt lat="37.724868971854448" lon="-8.785184025764465">
        <ele>26.09</ele>
        <time>2025-05-06T10:52:04Z</time>
      </trkpt>
      <trkpt lat="37.724798982962966" lon="-8.785221995785832">
        <ele>26.09</ele>
        <time>2025-05-06T10:52:05Z</time>
      </trkpt>
      <trkpt lat="37.724722037091851" lon="-8.785215960815549">
        <ele>26.09</ele>
        <time>2025-05-06T10:52:06Z</time>
      </trkpt>
      <trkpt lat="37.724642995744944" lon="-8.785207998007536">
        <ele>26.09</ele>
        <time>2025-05-06T10:52:07Z</time>
      </trkpt>
      <trkpt lat="37.724568983539939" lon="-8.785200035199523">
        <ele>25.609999999999999</ele>
        <time>2025-05-06T10:52:08Z</time>
      </trkpt>
      <trkpt lat="37.724494971334934" lon="-8.785191988572478">
        <ele>25.129999999999999</ele>
        <time>2025-05-06T10:52:09Z</time>
      </trkpt>
      <trkpt lat="37.7244190312922" lon="-8.785184025764465">
        <ele>24.649999999999999</ele>
        <time>2025-05-06T10:52:10Z</time>
      </trkpt>
      <trkpt lat="37.723744036629796" lon="-8.785113031044602">
        <ele>19.359999999999999</ele>
        <time>2025-05-06T10:52:19Z</time>
      </trkpt>
      <trkpt lat="37.723548989742994" lon="-8.785140020772815">
        <ele>15.52</ele>
        <time>2025-05-06T10:52:25Z</time>
      </trkpt>
      <trkpt lat="37.723543960601091" lon="-8.785185031592846">
        <ele>15.039999999999999</ele>
        <time>2025-05-06T10:52:26Z</time>
      </trkpt>
      <trkpt lat="37.72353901527822" lon="-8.785240016877651">
        <ele>14.08</ele>
        <time>2025-05-06T10:52:27Z</time>
      </trkpt>
      <trkpt lat="37.723532980307937" lon="-8.78530397079885">
        <ele>13.6</ele>
        <time>2025-05-06T10:52:28Z</time>
      </trkpt>
      <trkpt lat="37.723525017499924" lon="-8.785379994660616">
        <ele>13.6</ele>
        <time>2025-05-06T10:52:29Z</time>
      </trkpt>
      <trkpt lat="37.723492998629808" lon="-8.785700015723705">
        <ele>12.630000000000001</ele>
        <time>2025-05-06T10:52:33Z</time>
      </trkpt>
      <trkpt lat="37.72347598336637" lon="-8.785778973251581">
        <ele>12.630000000000001</ele>
        <time>2025-05-06T10:52:34Z</time>
      </trkpt>
      <trkpt lat="37.723451005294919" lon="-8.785864971578121">
        <ele>13.119999999999999</ele>
        <time>2025-05-06T10:52:35Z</time>
      </trkpt>
      <trkpt lat="37.723348997533321" lon="-8.78620401956141">
        <ele>12.15</ele>
        <time>2025-05-06T10:52:39Z</time>
      </trkpt>
      <trkpt lat="37.723270962014794" lon="-8.786442987620831">
        <ele>11.67</ele>
        <time>2025-05-06T10:52:42Z</time>
      </trkpt>
      <trkpt lat="37.722919005900621" lon="-8.787328032776713">
        <ele>11.19</ele>
        <time>2025-05-06T10:52:52Z</time>
      </trkpt>
      <trkpt lat="37.722882963716984" lon="-8.787419982254505">
        <ele>11.19</ele>
        <time>2025-05-06T10:52:54Z</time>
      </trkpt>
      <trkpt lat="37.722877012565732" lon="-8.787435991689563">
        <ele>11.19</ele>
        <time>2025-05-06T10:52:55Z</time>
      </trkpt>
      <trkpt lat="37.722877012565732" lon="-8.787435991689563">
        <ele>11.67</ele>
        <time>2025-05-06T10:53:06Z</time>
      </trkpt>
      <trkpt lat="37.722880030050874" lon="-8.78742802888155">
        <ele>11.67</ele>
        <time>2025-05-06T10:53:17Z</time>
      </trkpt>
      <trkpt lat="37.722878018394113" lon="-8.787432974204421">
        <ele>12.15</ele>
        <time>2025-05-06T10:53:18Z</time>
      </trkpt>
      <trkpt lat="37.722884975373745" lon="-8.78740900196135">
        <ele>12.15</ele>
        <time>2025-05-06T12:57:14Z</time>
      </trkpt>
      <trkpt lat="37.722859997302294" lon="-8.787415958940983">
        <ele>10.710000000000001</ele>
        <time>2025-05-06T12:57:57Z</time>
      </trkpt>
      <trkpt lat="37.72285396233201" lon="-8.787415958940983">
        <ele>9.75</ele>
        <time>2025-05-06T12:58:45Z</time>
      </trkpt>
      <trkpt lat="37.722876006737351" lon="-8.787427023053169">
        <ele>10.23</ele>
        <time>2025-05-06T12:59:21Z</time>
      </trkpt>
      <trkpt lat="37.722896039485931" lon="-8.787371031939983">
        <ele>10.23</ele>
        <time>2025-05-06T12:59:35Z</time>
      </trkpt>
      <trkpt lat="37.72293602116406" lon="-8.787282016128302">
        <ele>10.23</ele>
        <time>2025-05-06T12:59:37Z</time>
      </trkpt>
      <trkpt lat="37.722955970093608" lon="-8.787230970337987">
        <ele>9.75</ele>
        <time>2025-05-06T12:59:38Z</time>
      </trkpt>
      <trkpt lat="37.722974997013807" lon="-8.787182020023465">
        <ele>9.75</ele>
        <time>2025-05-06T12:59:39Z</time>
      </trkpt>
      <trkpt lat="37.722995029762387" lon="-8.78712804056704">
        <ele>9.75</ele>
        <time>2025-05-06T12:59:40Z</time>
      </trkpt>
      <trkpt lat="37.723269034177065" lon="-8.786447010934353">
        <ele>12.630000000000001</ele>
        <time>2025-05-06T12:59:50Z</time>
      </trkpt>
      <trkpt lat="37.723327958956361" lon="-8.786273002624512">
        <ele>14.08</ele>
        <time>2025-05-06T12:59:52Z</time>
      </trkpt>
      <trkpt lat="37.723543038591743" lon="-8.78519500605762">
        <ele>18.879999999999999</ele>
        <time>2025-05-06T13:00:03Z</time>
      </trkpt>
      <trkpt lat="37.723548989742994" lon="-8.785133985802531">
        <ele>18.879999999999999</ele>
        <time>2025-05-06T13:00:04Z</time>
      </trkpt>
      <trkpt lat="37.723548989742994" lon="-8.785133985802531">
        <ele>18.879999999999999</ele>
        <time>2025-05-06T13:00:05Z</time>
      </trkpt>
      <trkpt lat="37.72358201444149" lon="-8.785096015781164">
        <ele>18.879999999999999</ele>
        <time>2025-05-06T13:00:06Z</time>
      </trkpt>
      <trkpt lat="37.723616966977715" lon="-8.785099033266306">
        <ele>18.399999999999999</ele>
        <time>2025-05-06T13:00:07Z</time>
      </trkpt>
      <trkpt lat="37.723658960312605" lon="-8.785103978589177">
        <ele>17.920000000000002</ele>
        <time>2025-05-06T13:00:08Z</time>
      </trkpt>
      <trkpt lat="37.723769014701247" lon="-8.785115964710712">
        <ele>17.920000000000002</ele>
        <time>2025-05-06T13:00:09Z</time>
      </trkpt>
      <trkpt lat="37.724567977711558" lon="-8.785200035199523">
        <ele>20.32</ele>
        <time>2025-05-06T13:00:21Z</time>
      </trkpt>
      <trkpt lat="37.724642995744944" lon="-8.785207998007536">
        <ele>20.32</ele>
        <time>2025-05-06T13:00:22Z</time>
      </trkpt>
      <trkpt lat="37.724716002121568" lon="-8.7852150388062">
        <ele>20.32</ele>
        <time>2025-05-06T13:00:23Z</time>
      </trkpt>
      <trkpt lat="37.724789008498192" lon="-8.785221995785832">
        <ele>20.809999999999999</ele>
        <time>2025-05-06T13:00:24Z</time>
      </trkpt>
      <trkpt lat="37.724949019029737" lon="-8.785073971375823">
        <ele>20.809999999999999</ele>
        <time>2025-05-06T13:00:25Z</time>
      </trkpt>
      <trkpt lat="37.724950024858117" lon="-8.785073971375823">
        <ele>21.289999999999999</ele>
        <time>2025-05-06T13:00:26Z</time>
      </trkpt>
      <trkpt lat="37.72549401037395" lon="-8.784282971173525">
        <ele>25.129999999999999</ele>
        <time>2025-05-06T13:00:34Z</time>
      </trkpt>
      <trkpt lat="37.725538015365601" lon="-8.784218011423945">
        <ele>25.129999999999999</ele>
        <time>2025-05-06T13:00:35Z</time>
      </trkpt>
      <trkpt lat="37.725539021193981" lon="-8.784218011423945">
        <ele>25.609999999999999</ele>
        <time>2025-05-06T13:00:36Z</time>
      </trkpt>
      <trkpt lat="37.725597023963928" lon="-8.78403696231544">
        <ele>26.09</ele>
        <time>2025-05-06T13:00:38Z</time>
      </trkpt>
      <trkpt lat="37.725647985935211" lon="-8.783939983695746">
        <ele>26.57</ele>
        <time>2025-05-06T13:00:39Z</time>
      </trkpt>
      <trkpt lat="37.725934982299805" lon="-8.783162981271744">
        <ele>28.02</ele>
        <time>2025-05-06T13:00:47Z</time>
      </trkpt>
      <trkpt lat="37.72628802806139" lon="-8.781989011913538">
        <ele>35.710000000000001</ele>
        <time>2025-05-06T13:01:00Z</time>
      </trkpt>
      <trkpt lat="37.726308982819319" lon="-8.781807040795684">
        <ele>37.149999999999999</ele>
        <time>2025-05-06T13:01:02Z</time>
      </trkpt>
      <trkpt lat="37.726317029446363" lon="-8.781732022762299">
        <ele>37.630000000000003</ele>
        <time>2025-05-06T13:01:03Z</time>
      </trkpt>
      <trkpt lat="37.726334966719151" lon="-8.781576035544276">
        <ele>39.549999999999997</ele>
        <time>2025-05-06T13:01:06Z</time>
      </trkpt>
      <trkpt lat="37.726343013346195" lon="-8.781509986147285">
        <ele>39.549999999999997</ele>
        <time>2025-05-06T13:01:07Z</time>
      </trkpt>
      <trkpt lat="37.726334966719151" lon="-8.781313011422753">
        <ele>40.509999999999998</ele>
        <time>2025-05-06T13:01:10Z</time>
      </trkpt>
      <trkpt lat="37.726333038881421" lon="-8.781252996996045">
        <ele>40.990000000000002</ele>
        <time>2025-05-06T13:01:11Z</time>
      </trkpt>
      <trkpt lat="37.726330021396279" lon="-8.781189965084195">
        <ele>40.990000000000002</ele>
        <time>2025-05-06T13:01:12Z</time>
      </trkpt>
      <trkpt lat="37.726328009739518" lon="-8.781123999506235">
        <ele>40.990000000000002</ele>
        <time>2025-05-06T13:01:13Z</time>
      </trkpt>
      <trkpt lat="37.726324992254376" lon="-8.781054010614753">
        <ele>41.469999999999999</ele>
        <time>2025-05-06T13:01:14Z</time>
      </trkpt>
      <trkpt lat="37.726321974769235" lon="-8.780973041430116">
        <ele>41.469999999999999</ele>
        <time>2025-05-06T13:01:15Z</time>
      </trkpt>
      <trkpt lat="37.726307976990938" lon="-8.780712028965354">
        <ele>40.990000000000002</ele>
        <time>2025-05-06T13:01:19Z</time>
      </trkpt>
      <trkpt lat="37.726304959505796" lon="-8.780650002881885">
        <ele>40.990000000000002</ele>
        <time>2025-05-06T13:01:20Z</time>
      </trkpt>
      <trkpt lat="37.726266989484429" lon="-8.780519999563694">
        <ele>40.990000000000002</ele>
        <time>2025-05-06T13:01:22Z</time>
      </trkpt>
      <trkpt lat="37.726192977279425" lon="-8.780417991802096">
        <ele>40.990000000000002</ele>
        <time>2025-05-06T13:01:23Z</time>
      </trkpt>
      <trkpt lat="37.726192977279425" lon="-8.780417991802096">
        <ele>40.990000000000002</ele>
        <time>2025-05-06T13:01:24Z</time>
      </trkpt>
      <trkpt lat="37.726157018914819" lon="-8.780368035659194">
        <ele>40.990000000000002</ele>
        <time>2025-05-06T13:01:25Z</time>
      </trkpt>
      <trkpt lat="37.726129023358226" lon="-8.780328975990415">
        <ele>40.990000000000002</ele>
        <time>2025-05-06T13:01:26Z</time>
      </trkpt>
      <trkpt lat="37.726100021973252" lon="-8.780288994312286">
        <ele>40.509999999999998</ele>
        <time>2025-05-06T13:01:27Z</time>
      </trkpt>
      <trkpt lat="37.726035984233022" lon="-8.780199978500605">
        <ele>40.990000000000002</ele>
        <time>2025-05-06T13:01:30Z</time>
      </trkpt>
      <trkpt lat="37.726020980626345" lon="-8.780179023742676">
        <ele>40.509999999999998</ele>
        <time>2025-05-06T13:01:31Z</time>
      </trkpt>
      <trkpt lat="37.726037995889783" lon="-8.780158990994096">
        <ele>40.509999999999998</ele>
        <time>2025-05-06T13:01:32Z</time>
      </trkpt>
      <trkpt lat="37.726066997274756" lon="-8.780124038457871">
        <ele>40.030000000000001</ele>
        <time>2025-05-06T13:01:33Z</time>
      </trkpt>
      <trkpt lat="37.726131035014987" lon="-8.780048014596105">
        <ele>40.030000000000001</ele>
        <time>2025-05-06T13:01:34Z</time>
      </trkpt>
      <trkpt lat="37.726192977279425" lon="-8.779972996562719">
        <ele>39.549999999999997</ele>
        <time>2025-05-06T13:01:36Z</time>
      </trkpt>
      <trkpt lat="37.726229019463062" lon="-8.779929997399449">
        <ele>39.07</ele>
        <time>2025-05-06T13:01:37Z</time>
      </trkpt>
      <trkpt lat="37.72658902220428" lon="-8.779502017423511">
        <ele>38.109999999999999</ele>
        <time>2025-05-06T13:01:47Z</time>
      </trkpt>
      <trkpt lat="37.726849028840661" lon="-8.779224995523691">
        <ele>38.109999999999999</ele>
        <time>2025-05-06T13:01:55Z</time>
      </trkpt>
      <trkpt lat="37.726989006623626" lon="-8.779060961678624">
        <ele>38.109999999999999</ele>
        <time>2025-05-06T13:01:58Z</time>
      </trkpt>
      <trkpt lat="37.727034017443657" lon="-8.779005976393819">
        <ele>38.109999999999999</ele>
        <time>2025-05-06T13:01:59Z</time>
      </trkpt>
      <trkpt lat="37.727082967758179" lon="-8.778947973623872">
        <ele>38.109999999999999</ele>
        <time>2025-05-06T13:02:00Z</time>
      </trkpt>
      <trkpt lat="37.727570962160826" lon="-8.778442963957787">
        <ele>39.07</ele>
        <time>2025-05-06T13:02:10Z</time>
      </trkpt>
      <trkpt lat="37.727617984637618" lon="-8.778392001986504">
        <ele>39.07</ele>
        <time>2025-05-06T13:02:11Z</time>
      </trkpt>
      <trkpt lat="37.72770800627768" lon="-8.778292005881667">
        <ele>39.549999999999997</ele>
        <time>2025-05-06T13:02:13Z</time>
      </trkpt>
      <trkpt lat="37.727756034582853" lon="-8.778240038082004">
        <ele>39.549999999999997</ele>
        <time>2025-05-06T13:02:14Z</time>
      </trkpt>
      <trkpt lat="37.728293985128403" lon="-8.777638971805573">
        <ele>39.549999999999997</ele>
        <time>2025-05-06T13:02:26Z</time>
      </trkpt>
      <trkpt lat="37.728856997564435" lon="-8.777020974084735">
        <ele>40.509999999999998</ele>
        <time>2025-05-06T13:02:36Z</time>
      </trkpt>
      <trkpt lat="37.729526963084936" lon="-8.77630197443068">
        <ele>41.469999999999999</ele>
        <time>2025-05-06T13:02:48Z</time>
      </trkpt>
      <trkpt lat="37.730072038248181" lon="-8.775708032771945">
        <ele>42.439999999999998</ele>
        <time>2025-05-06T13:02:57Z</time>
      </trkpt>
      <trkpt lat="37.730561960488558" lon="-8.775189025327563">
        <ele>42.920000000000002</ele>
        <time>2025-05-06T13:03:06Z</time>
      </trkpt>
      <trkpt lat="37.731029000133276" lon="-8.774658031761646">
        <ele>41.950000000000003</ele>
        <time>2025-05-06T13:03:14Z</time>
      </trkpt>
      <trkpt lat="37.732014963403344" lon="-8.773541981354356">
        <ele>40.990000000000002</ele>
        <time>2025-05-06T13:03:27Z</time>
      </trkpt>
      <trkpt lat="37.733135959133506" lon="-8.772391984239221">
        <ele>39.07</ele>
        <time>2025-05-06T13:03:39Z</time>
      </trkpt>
      <trkpt lat="37.733135959133506" lon="-8.772391984239221">
        <ele>39.07</ele>
        <time>2025-05-06T13:03:40Z</time>
      </trkpt>
      <trkpt lat="37.733188010752201" lon="-8.77230397425592">
        <ele>39.07</ele>
        <time>2025-05-06T13:03:41Z</time>
      </trkpt>
      <trkpt lat="37.733199996873736" lon="-8.772192997857928">
        <ele>39.549999999999997</ele>
        <time>2025-05-06T13:03:42Z</time>
      </trkpt>
      <trkpt lat="37.733210977166891" lon="-8.772086966782808">
        <ele>39.549999999999997</ele>
        <time>2025-05-06T13:03:43Z</time>
      </trkpt>
      <trkpt lat="37.733222041279078" lon="-8.771984959021211">
        <ele>39.549999999999997</ele>
        <time>2025-05-06T13:03:44Z</time>
      </trkpt>
      <trkpt lat="37.733197985216975" lon="-8.77185202203691">
        <ele>39.549999999999997</ele>
        <time>2025-05-06T13:03:45Z</time>
      </trkpt>
      <trkpt lat="37.733095977455378" lon="-8.771784966811538">
        <ele>39.549999999999997</ele>
        <time>2025-05-06T13:03:46Z</time>
      </trkpt>
      <trkpt lat="37.732994975522161" lon="-8.771748002618551">
        <ele>39.07</ele>
        <time>2025-05-06T13:03:47Z</time>
      </trkpt>
      <trkpt lat="37.732881987467408" lon="-8.771725036203861">
        <ele>39.07</ele>
        <time>2025-05-06T13:03:48Z</time>
      </trkpt>
      <trkpt lat="37.732770005241036" lon="-8.771725036203861">
        <ele>38.109999999999999</ele>
        <time>2025-05-06T13:03:49Z</time>
      </trkpt>
      <trkpt lat="37.732655005529523" lon="-8.771738028153777">
        <ele>37.149999999999999</ele>
        <time>2025-05-06T13:03:50Z</time>
      </trkpt>
      <trkpt lat="37.731914967298508" lon="-8.771878005936742">
        <ele>34.259999999999998</ele>
        <time>2025-05-06T13:03:56Z</time>
      </trkpt>
      <trkpt lat="37.731793010607362" lon="-8.771896027028561">
        <ele>33.299999999999997</ele>
        <time>2025-05-06T13:03:57Z</time>
      </trkpt>
      <trkpt lat="37.731678010895848" lon="-8.771896027028561">
        <ele>32.340000000000003</ele>
        <time>2025-05-06T13:03:58Z</time>
      </trkpt>
      <trkpt lat="37.731283977627754" lon="-8.771896027028561">
        <ele>28.98</ele>
        <time>2025-05-06T13:04:01Z</time>
      </trkpt>
      <trkpt lat="37.731152968481183" lon="-8.771896027028561">
        <ele>28.02</ele>
        <time>2025-05-06T13:04:02Z</time>
      </trkpt>
      <trkpt lat="37.729948991909623" lon="-8.771623028442264">
        <ele>21.77</ele>
        <time>2025-05-06T13:04:10Z</time>
      </trkpt>
      <trkpt lat="37.728482997044921" lon="-8.770876033231616">
        <ele>17.920000000000002</ele>
        <time>2025-05-06T13:04:19Z</time>
      </trkpt>
      <trkpt lat="37.726734029129148" lon="-8.769920999184251">
        <ele>20.809999999999999</ele>
        <time>2025-05-06T13:04:31Z</time>
      </trkpt>
      <trkpt lat="37.725168960168958" lon="-8.769076019525528">
        <ele>22.73</ele>
        <time>2025-05-06T13:04:41Z</time>
      </trkpt>
      <trkpt lat="37.723913015797734" lon="-8.768395995721221">
        <ele>24.170000000000002</ele>
        <time>2025-05-06T13:04:47Z</time>
      </trkpt>
      <trkpt lat="37.721733972430229" lon="-8.767432998865843">
        <ele>32.340000000000003</ele>
        <time>2025-05-06T13:04:56Z</time>
      </trkpt>
      <trkpt lat="37.720035966485739" lon="-8.766925977542996">
        <ele>41.469999999999999</ele>
        <time>2025-05-06T13:05:04Z</time>
      </trkpt>
      <trkpt lat="37.718348018825054" lon="-8.766601011157036">
        <ele>50.609999999999999</ele>
        <time>2025-05-06T13:05:12Z</time>
      </trkpt>
      <trkpt lat="37.715974012389779" lon="-8.766530016437173">
        <ele>55.409999999999997</ele>
        <time>2025-05-06T13:05:22Z</time>
      </trkpt>
      <trkpt lat="37.714222026988864" lon="-8.766721962019801">
        <ele>57.340000000000003</ele>
        <time>2025-05-06T13:05:31Z</time>
      </trkpt>
      <trkpt lat="37.711856989189982" lon="-8.767342977225781">
        <ele>57.82</ele>
        <time>2025-05-06T13:05:42Z</time>
      </trkpt>
      <trkpt lat="37.709749024361372" lon="-8.768231961876154">
        <ele>59.259999999999998</ele>
        <time>2025-05-06T13:05:52Z</time>
      </trkpt>
      <trkpt lat="37.707448024302721" lon="-8.769277017563582">
        <ele>56.369999999999997</ele>
        <time>2025-05-06T13:06:03Z</time>
      </trkpt>
      <trkpt lat="37.705371994525194" lon="-8.770226016640663">
        <ele>56.859999999999999</ele>
        <time>2025-05-06T13:06:13Z</time>
      </trkpt>
      <trkpt lat="37.703285990282893" lon="-8.771161017939448">
        <ele>54.450000000000003</ele>
        <time>2025-05-06T13:06:23Z</time>
      </trkpt>
      <trkpt lat="37.701744977384806" lon="-8.771181972697377">
        <ele>52.530000000000001</ele>
        <time>2025-05-06T13:06:30Z</time>
      </trkpt>
      <trkpt lat="37.699838010594249" lon="-8.770516030490398">
        <ele>50.609999999999999</ele>
        <time>2025-05-06T13:06:39Z</time>
      </trkpt>
      <trkpt lat="37.697753012180328" lon="-8.769712038338184">
        <ele>50.609999999999999</ele>
        <time>2025-05-06T13:06:49Z</time>
      </trkpt>
      <trkpt lat="37.696278970688581" lon="-8.76912496984005">
        <ele>50.609999999999999</ele>
        <time>2025-05-06T13:06:55Z</time>
      </trkpt>
      <trkpt lat="37.693706983700395" lon="-8.768099024891853">
        <ele>53.009999999999998</ele>
        <time>2025-05-06T13:07:07Z</time>
      </trkpt>
      <trkpt lat="37.691574962809682" lon="-8.76727600581944">
        <ele>52.530000000000001</ele>
        <time>2025-05-06T13:07:16Z</time>
      </trkpt>
      <trkpt lat="37.689417041838169" lon="-8.766433037817478">
        <ele>54.93</ele>
        <time>2025-05-06T13:07:27Z</time>
      </trkpt>
      <trkpt lat="37.686631986871362" lon="-8.76534297131002">
        <ele>53.969999999999999</ele>
        <time>2025-05-06T13:07:40Z</time>
      </trkpt>
      <trkpt lat="37.68340403214097" lon="-8.764065988361836">
        <ele>54.450000000000003</ele>
        <time>2025-05-06T13:07:55Z</time>
      </trkpt>
      <trkpt lat="37.680624006316066" lon="-8.762967037037015">
        <ele>57.340000000000003</ele>
        <time>2025-05-06T13:08:08Z</time>
      </trkpt>
      <trkpt lat="37.676964970305562" lon="-8.761527026072145">
        <ele>57.82</ele>
        <time>2025-05-06T13:08:24Z</time>
      </trkpt>
      <trkpt lat="37.674614014104009" lon="-8.760600993409753">
        <ele>54.93</ele>
        <time>2025-05-06T13:08:36Z</time>
      </trkpt>
      <trkpt lat="37.672220980748534" lon="-8.759815022349358">
        <ele>57.82</ele>
        <time>2025-05-06T13:08:47Z</time>
      </trkpt>
      <trkpt lat="37.670199014246464" lon="-8.759536994621158">
        <ele>58.780000000000001</ele>
        <time>2025-05-06T13:08:56Z</time>
      </trkpt>
      <trkpt lat="37.667954005300999" lon="-8.759505981579423">
        <ele>57.340000000000003</ele>
        <time>2025-05-06T13:09:06Z</time>
      </trkpt>
      <trkpt lat="37.665258971974254" lon="-8.759515034034848">
        <ele>54.93</ele>
        <time>2025-05-06T13:09:18Z</time>
      </trkpt>
      <trkpt lat="37.663002982735634" lon="-8.759515034034848">
        <ele>55.409999999999997</ele>
        <time>2025-05-06T13:09:28Z</time>
      </trkpt>
      <trkpt lat="37.660750010982156" lon="-8.759515034034848">
        <ele>56.369999999999997</ele>
        <time>2025-05-06T13:09:38Z</time>
      </trkpt>
      <trkpt lat="37.658295035362244" lon="-8.759515034034848">
        <ele>54.93</ele>
        <time>2025-05-06T13:09:49Z</time>
      </trkpt>
      <trkpt lat="37.656711023300886" lon="-8.759536994621158">
        <ele>52.530000000000001</ele>
        <time>2025-05-06T13:09:58Z</time>
      </trkpt>
      <trkpt lat="37.655828995630145" lon="-8.75956398434937">
        <ele>51.090000000000003</ele>
        <time>2025-05-06T13:10:03Z</time>
      </trkpt>
      <trkpt lat="37.655639983713627" lon="-8.759730029851198">
        <ele>51.090000000000003</ele>
        <time>2025-05-06T13:10:04Z</time>
      </trkpt>
      <trkpt lat="37.655623974278569" lon="-8.759738998487592">
        <ele>50.609999999999999</ele>
        <time>2025-05-06T13:10:05Z</time>
      </trkpt>
      <trkpt lat="37.655506962910295" lon="-8.759780991822481">
        <ele>51.090000000000003</ele>
        <time>2025-05-06T13:10:06Z</time>
      </trkpt>
      <trkpt lat="37.655442003160715" lon="-8.759691976010799">
        <ele>51.090000000000003</ele>
        <time>2025-05-06T13:10:07Z</time>
      </trkpt>
      <trkpt lat="37.655442003160715" lon="-8.75969298183918">
        <ele>51.57</ele>
        <time>2025-05-06T13:10:08Z</time>
      </trkpt>
      <trkpt lat="37.655364973470569" lon="-8.759589968249202">
        <ele>51.57</ele>
        <time>2025-05-06T13:10:09Z</time>
      </trkpt>
      <trkpt lat="37.655257014557719" lon="-8.759571025148034">
        <ele>51.57</ele>
        <time>2025-05-06T13:10:10Z</time>
      </trkpt>
      <trkpt lat="37.654988039284945" lon="-8.759536994621158">
        <ele>51.57</ele>
        <time>2025-05-06T13:10:11Z</time>
      </trkpt>
      <trkpt lat="37.653697980567813" lon="-8.759543029591441">
        <ele>52.049999999999997</ele>
        <time>2025-05-06T13:10:18Z</time>
      </trkpt>
      <trkpt lat="37.651706021279097" lon="-8.759559961035848">
        <ele>51.57</ele>
        <time>2025-05-06T13:10:28Z</time>
      </trkpt>
      <trkpt lat="37.649207962676883" lon="-8.759571025148034">
        <ele>53.009999999999998</ele>
        <time>2025-05-06T13:10:39Z</time>
      </trkpt>
      <trkpt lat="37.646488035097718" lon="-8.759589968249202">
        <ele>54.93</ele>
        <time>2025-05-06T13:10:51Z</time>
      </trkpt>
      <trkpt lat="37.644232967868447" lon="-8.759562978520989">
        <ele>54.93</ele>
        <time>2025-05-06T13:11:01Z</time>
      </trkpt>
      <trkpt lat="37.642231034114957" lon="-8.759343037381768">
        <ele>56.859999999999999</ele>
        <time>2025-05-06T13:11:10Z</time>
      </trkpt>
      <trkpt lat="37.640560017898679" lon="-8.758501997217536">
        <ele>57.82</ele>
        <time>2025-05-06T13:11:18Z</time>
      </trkpt>
      <trkpt lat="37.639028979465365" lon="-8.757299026474357">
        <ele>57.82</ele>
        <time>2025-05-06T13:11:25Z</time>
      </trkpt>
      <trkpt lat="37.637495007365942" lon="-8.755625998601317">
        <ele>56.859999999999999</ele>
        <time>2025-05-06T13:11:35Z</time>
      </trkpt>
      <trkpt lat="37.636413993313909" lon="-8.754153968766332">
        <ele>55.409999999999997</ele>
        <time>2025-05-06T13:11:42Z</time>
      </trkpt>
      <trkpt lat="37.635619975626469" lon="-8.752971030771732">
        <ele>55.409999999999997</ele>
        <time>2025-05-06T13:11:51Z</time>
      </trkpt>
      <trkpt lat="37.63474197126925" lon="-8.751664040610194">
        <ele>56.369999999999997</ele>
        <time>2025-05-06T13:11:58Z</time>
      </trkpt>
      <trkpt lat="37.633446967229247" lon="-8.749720025807619">
        <ele>58.780000000000001</ele>
        <time>2025-05-06T13:12:07Z</time>
      </trkpt>
      <trkpt lat="37.632237039506435" lon="-8.747913977131248">
        <ele>59.259999999999998</ele>
        <time>2025-05-06T13:12:15Z</time>
      </trkpt>
      <trkpt lat="37.630923008546233" lon="-8.745982032269239">
        <ele>61.18</ele>
        <time>2025-05-06T13:12:24Z</time>
      </trkpt>
      <trkpt lat="37.629031967371702" lon="-8.7431709934026">
        <ele>63.100000000000001</ele>
        <time>2025-05-06T13:12:37Z</time>
      </trkpt>
      <trkpt lat="37.627302026376128" lon="-8.740599006414414">
        <ele>62.140000000000001</ele>
        <time>2025-05-06T13:12:49Z</time>
      </trkpt>
      <trkpt lat="37.626006016507745" lon="-8.738681981340051">
        <ele>60.700000000000003</ele>
        <time>2025-05-06T13:12:58Z</time>
      </trkpt>
      <trkpt lat="37.624704977497458" lon="-8.736757999286056">
        <ele>60.219999999999999</ele>
        <time>2025-05-06T13:13:07Z</time>
      </trkpt>
      <trkpt lat="37.622376987710595" lon="-8.733285963535309">
        <ele>64.549999999999997</ele>
        <time>2025-05-06T13:13:23Z</time>
      </trkpt>
      <trkpt lat="37.621297985315323" lon="-8.731692982837558">
        <ele>69.349999999999994</ele>
        <time>2025-05-06T13:13:31Z</time>
      </trkpt>
      <trkpt lat="37.620105994865298" lon="-8.729937979951501">
        <ele>74.640000000000001</ele>
        <time>2025-05-06T13:13:41Z</time>
      </trkpt>
      <trkpt lat="37.618919033557177" lon="-8.728352962061763">
        <ele>78</ele>
        <time>2025-05-06T13:13:50Z</time>
      </trkpt>
      <trkpt lat="37.617720002308488" lon="-8.72701495885849">
        <ele>78</ele>
        <time>2025-05-06T13:13:58Z</time>
      </trkpt>
      <trkpt lat="37.615624023601413" lon="-8.724739020690322">
        <ele>74.640000000000001</ele>
        <time>2025-05-06T13:14:10Z</time>
      </trkpt>
      <trkpt lat="37.613497031852603" lon="-8.72243701480329">
        <ele>68.390000000000001</ele>
        <time>2025-05-06T13:14:23Z</time>
      </trkpt>
      <trkpt lat="37.612429009750485" lon="-8.721252987161279">
        <ele>63.100000000000001</ele>
        <time>2025-05-06T13:14:30Z</time>
      </trkpt>
      <trkpt lat="37.612280985340476" lon="-8.721087025478482">
        <ele>62.140000000000001</ele>
        <time>2025-05-06T13:14:31Z</time>
      </trkpt>
      <trkpt lat="37.611563997343183" lon="-8.719849018380046">
        <ele>55.409999999999997</ele>
        <time>2025-05-06T13:14:37Z</time>
      </trkpt>
      <trkpt lat="37.611467018723488" lon="-8.71962103061378">
        <ele>53.969999999999999</ele>
        <time>2025-05-06T13:14:38Z</time>
      </trkpt>
      <trkpt lat="37.611040966585279" lon="-8.717844989150763">
        <ele>39.549999999999997</ele>
        <time>2025-05-06T13:14:45Z</time>
      </trkpt>
      <trkpt lat="37.610985981300473" lon="-8.717326987534761">
        <ele>35.229999999999997</ele>
        <time>2025-05-06T13:14:47Z</time>
      </trkpt>
      <trkpt lat="37.610965026542544" lon="-8.717115009203553">
        <ele>32.82</ele>
        <time>2025-05-06T13:14:48Z</time>
      </trkpt>
      <trkpt lat="37.610992016270757" lon="-8.71682801283896">
        <ele>30.420000000000002</ele>
        <time>2025-05-06T13:14:49Z</time>
      </trkpt>
      <trkpt lat="37.611016994342208" lon="-8.716563982889056">
        <ele>28.5</ele>
        <time>2025-05-06T13:14:50Z</time>
      </trkpt>
      <trkpt lat="37.611044989898801" lon="-8.716305987909436">
        <ele>27.050000000000001</ele>
        <time>2025-05-06T13:14:51Z</time>
      </trkpt>
      <trkpt lat="37.611077008768916" lon="-8.716052016243339">
        <ele>25.129999999999999</ele>
        <time>2025-05-06T13:14:52Z</time>
      </trkpt>
      <trkpt lat="37.611200977116823" lon="-8.715078961104155">
        <ele>19.84</ele>
        <time>2025-05-06T13:14:56Z</time>
      </trkpt>
      <trkpt lat="37.611200977116823" lon="-8.714858014136553">
        <ele>18.399999999999999</ele>
        <time>2025-05-06T13:14:57Z</time>
      </trkpt>
      <trkpt lat="37.611177004873753" lon="-8.714649975299835">
        <ele>16.960000000000001</ele>
        <time>2025-05-06T13:14:58Z</time>
      </trkpt>
      <trkpt lat="37.611137023195624" lon="-8.714475966989994">
        <ele>16</ele>
        <time>2025-05-06T13:14:59Z</time>
      </trkpt>
      <trkpt lat="37.611047001555562" lon="-8.714316040277481">
        <ele>15.039999999999999</ele>
        <time>2025-05-06T13:15:00Z</time>
      </trkpt>
      <trkpt lat="37.610959997400641" lon="-8.714159969240427">
        <ele>14.56</ele>
        <time>2025-05-06T13:15:01Z</time>
      </trkpt>
      <trkpt lat="37.610867964103818" lon="-8.713996019214392">
        <ele>13.6</ele>
        <time>2025-05-06T13:15:02Z</time>
      </trkpt>
      <trkpt lat="37.610755981877446" lon="-8.71384397149086">
        <ele>13.119999999999999</ele>
        <time>2025-05-06T13:15:03Z</time>
      </trkpt>
      <trkpt lat="37.61063695885241" lon="-8.713702987879515">
        <ele>13.119999999999999</ele>
        <time>2025-05-06T13:15:04Z</time>
      </trkpt>
      <trkpt lat="37.609503977000713" lon="-8.712352998554707">
        <ele>4.46</ele>
        <time>2025-05-06T13:15:13Z</time>
      </trkpt>
      <trkpt lat="37.608699984848499" lon="-8.711127983406186">
        <ele>-2.75</ele>
        <time>2025-05-06T13:15:20Z</time>
      </trkpt>
      <trkpt lat="37.608011998236179" lon="-8.709964994341135">
        <ele>-3.71</ele>
        <time>2025-05-06T13:15:26Z</time>
      </trkpt>
      <trkpt lat="37.607921976596117" lon="-8.709769025444984">
        <ele>-2.75</ele>
        <time>2025-05-06T13:15:27Z</time>
      </trkpt>
      <trkpt lat="37.607837989926338" lon="-8.709580013528466">
        <ele>-1.79</ele>
        <time>2025-05-06T13:15:28Z</time>
      </trkpt>
      <trkpt lat="37.607800019904971" lon="-8.709340961650014">
        <ele>-0.34</ele>
        <time>2025-05-06T13:15:29Z</time>
      </trkpt>
      <trkpt lat="37.607789039611816" lon="-8.709153961390257">
        <ele>1.1</ele>
        <time>2025-05-06T13:15:30Z</time>
      </trkpt>
      <trkpt lat="37.607838995754719" lon="-8.70892102830112">
        <ele>3.02</ele>
        <time>2025-05-06T13:15:31Z</time>
      </trkpt>
      <trkpt lat="37.607878977432847" lon="-8.708735033869743">
        <ele>4.94</ele>
        <time>2025-05-06T13:15:32Z</time>
      </trkpt>
      <trkpt lat="37.608169997110963" lon="-8.707373980432749">
        <ele>17.920000000000002</ele>
        <time>2025-05-06T13:15:41Z</time>
      </trkpt>
      <trkpt lat="37.608436038717628" lon="-8.705909997224808">
        <ele>28.5</ele>
        <time>2025-05-06T13:15:48Z</time>
      </trkpt>
      <trkpt lat="37.608450958505273" lon="-8.705684021115303">
        <ele>29.940000000000001</ele>
        <time>2025-05-06T13:15:49Z</time>
      </trkpt>
      <trkpt lat="37.608433021232486" lon="-8.705465001985431">
        <ele>31.859999999999999</ele>
        <time>2025-05-06T13:15:50Z</time>
      </trkpt>
      <trkpt lat="37.608393961563706" lon="-8.705243971198797">
        <ele>33.299999999999997</ele>
        <time>2025-05-06T13:15:51Z</time>
      </trkpt>
      <trkpt lat="37.60831399820745" lon="-8.705028975382447">
        <ele>35.229999999999997</ele>
        <time>2025-05-06T13:15:52Z</time>
      </trkpt>
      <trkpt lat="37.608234034851193" lon="-8.704814985394478">
        <ele>36.670000000000002</ele>
        <time>2025-05-06T13:15:53Z</time>
      </trkpt>
      <trkpt lat="37.607597010210156" lon="-8.703027041628957">
        <ele>50.130000000000003</ele>
        <time>2025-05-06T13:16:02Z</time>
      </trkpt>
      <trkpt lat="37.607078002765775" lon="-8.701017983257771">
        <ele>64.069999999999993</ele>
        <time>2025-05-06T13:16:11Z</time>
      </trkpt>
      <trkpt lat="37.606737026944757" lon="-8.699834039434791">
        <ele>71.760000000000005</ele>
        <time>2025-05-06T13:16:16Z</time>
      </trkpt>
      <trkpt lat="37.606638036668301" lon="-8.699615020304918">
        <ele>72.719999999999999</ele>
        <time>2025-05-06T13:16:17Z</time>
      </trkpt>
      <trkpt lat="37.606528988108039" lon="-8.699399018660188">
        <ele>73.680000000000007</ele>
        <time>2025-05-06T13:16:18Z</time>
      </trkpt>
      <trkpt lat="37.606403008103371" lon="-8.69921000674367">
        <ele>74.640000000000001</ele>
        <time>2025-05-06T13:16:19Z</time>
      </trkpt>
      <trkpt lat="37.606265963986516" lon="-8.699032980948687">
        <ele>75.599999999999994</ele>
        <time>2025-05-06T13:16:20Z</time>
      </trkpt>
      <trkpt lat="37.605127030983567" lon="-8.697971999645233">
        <ele>82.329999999999998</ele>
        <time>2025-05-06T13:16:27Z</time>
      </trkpt>
      <trkpt lat="37.603112021461129" lon="-8.696348005905747">
        <ele>90.5</ele>
        <time>2025-05-06T13:16:39Z</time>
      </trkpt>
      <trkpt lat="37.60148199275136" lon="-8.695016037672758">
        <ele>89.540000000000006</ele>
        <time>2025-05-06T13:16:48Z</time>
      </trkpt>
      <trkpt lat="37.599752973765135" lon="-8.693649033084512">
        <ele>89.060000000000002</ele>
        <time>2025-05-06T13:16:58Z</time>
      </trkpt>
      <trkpt lat="37.598160998895764" lon="-8.692361991852522">
        <ele>88.579999999999998</ele>
        <time>2025-05-06T13:17:07Z</time>
      </trkpt>
      <trkpt lat="37.5964339915663" lon="-8.690990963950753">
        <ele>89.540000000000006</ele>
        <time>2025-05-06T13:17:17Z</time>
      </trkpt>
      <trkpt lat="37.595274019986391" lon="-8.689810959622264">
        <ele>86.659999999999997</ele>
        <time>2025-05-06T13:17:24Z</time>
      </trkpt>
      <trkpt lat="37.594408001750708" lon="-8.688328033313155">
        <ele>83.290000000000006</ele>
        <time>2025-05-06T13:17:31Z</time>
      </trkpt>
      <trkpt lat="37.593561010435224" lon="-8.686240017414093">
        <ele>81.849999999999994</ele>
        <time>2025-05-06T13:17:38Z</time>
      </trkpt>
      <trkpt lat="37.592645036056638" lon="-8.684095004573464">
        <ele>81.849999999999994</ele>
        <time>2025-05-06T13:17:46Z</time>
      </trkpt>
      <trkpt lat="37.591944979503751" lon="-8.6825389880687">
        <ele>86.180000000000007</ele>
        <time>2025-05-06T13:17:53Z</time>
      </trkpt>
      <trkpt lat="37.591535020619631" lon="-8.681500973179936">
        <ele>90.5</ele>
        <time>2025-05-06T13:17:58Z</time>
      </trkpt>
      <trkpt lat="37.591449022293091" lon="-8.681287989020348">
        <ele>90.980000000000004</ele>
        <time>2025-05-06T13:17:59Z</time>
      </trkpt>
      <trkpt lat="37.590618040412664" lon="-8.679286977276206">
        <ele>97.709999999999994</ele>
        <time>2025-05-06T13:18:08Z</time>
      </trkpt>
      <trkpt lat="37.590209003537893" lon="-8.677469026297331">
        <ele>101.08</ele>
        <time>2025-05-06T13:18:16Z</time>
      </trkpt>
      <trkpt lat="37.590258037671447" lon="-8.675640011206269">
        <ele>105.40000000000001</ele>
        <time>2025-05-06T13:18:24Z</time>
      </trkpt>
      <trkpt lat="37.590692974627018" lon="-8.671906962990761">
        <ele>111.17</ele>
        <time>2025-05-06T13:18:40Z</time>
      </trkpt>
      <trkpt lat="37.591026993468404" lon="-8.66908997297287">
        <ele>114.05</ele>
        <time>2025-05-06T13:18:53Z</time>
      </trkpt>
      <trkpt lat="37.591102011501789" lon="-8.667391967028379">
        <ele>115.01000000000001</ele>
        <time>2025-05-06T13:19:03Z</time>
      </trkpt>
      <trkpt lat="37.590835969895124" lon="-8.666056981310248">
        <ele>118.38</ele>
        <time>2025-05-06T13:19:13Z</time>
      </trkpt>
      <trkpt lat="37.59058996103704" lon="-8.664869014173746">
        <ele>119.81999999999999</ele>
        <time>2025-05-06T13:19:23Z</time>
      </trkpt>
      <trkpt lat="37.590579986572266" lon="-8.664616970345378">
        <ele>119.81999999999999</ele>
        <time>2025-05-06T13:19:26Z</time>
      </trkpt>
      <trkpt lat="37.590451994910836" lon="-8.664500964805484">
        <ele>119.81999999999999</ele>
        <time>2025-05-06T13:19:27Z</time>
      </trkpt>
      <trkpt lat="37.590451994910836" lon="-8.664500964805484">
        <ele>119.81999999999999</ele>
        <time>2025-05-06T13:19:28Z</time>
      </trkpt>
      <trkpt lat="37.590451994910836" lon="-8.664500964805484">
        <ele>119.81999999999999</ele>
        <time>2025-05-06T13:19:29Z</time>
      </trkpt>
      <trkpt lat="37.590428022667766" lon="-8.664370961487293">
        <ele>119.81999999999999</ele>
        <time>2025-05-06T13:19:30Z</time>
      </trkpt>
      <trkpt lat="37.590383011847734" lon="-8.664353024214506">
        <ele>119.81999999999999</ele>
        <time>2025-05-06T13:19:31Z</time>
      </trkpt>
      <trkpt lat="37.590322997421026" lon="-8.664328968152404">
        <ele>119.81999999999999</ele>
        <time>2025-05-06T13:19:32Z</time>
      </trkpt>
      <trkpt lat="37.590282009914517" lon="-8.664309019222856">
        <ele>119.81999999999999</ele>
        <time>2025-05-06T13:19:33Z</time>
      </trkpt>
      <trkpt lat="37.590214032679796" lon="-8.664308013394475">
        <ele>119.81999999999999</ele>
        <time>2025-05-06T13:19:34Z</time>
      </trkpt>
      <trkpt lat="37.59013800881803" lon="-8.66431899368763">
        <ele>119.81999999999999</ele>
        <time>2025-05-06T13:19:35Z</time>
      </trkpt>
      <trkpt lat="37.590053016319871" lon="-8.664345983415842">
        <ele>119.81999999999999</ele>
        <time>2025-05-06T13:19:36Z</time>
      </trkpt>
      <trkpt lat="37.589208036661148" lon="-8.664634991437197">
        <ele>116.45999999999999</ele>
        <time>2025-05-06T13:19:43Z</time>
      </trkpt>
      <trkpt lat="37.587655959650874" lon="-8.665133966132999">
        <ele>114.05</ele>
        <time>2025-05-06T13:19:52Z</time>
      </trkpt>
      <trkpt lat="37.586042024195194" lon="-8.665670994669199">
        <ele>116.45999999999999</ele>
        <time>2025-05-06T13:20:00Z</time>
      </trkpt>
      <trkpt lat="37.585004009306431" lon="-8.666038038209081">
        <ele>115.5</ele>
        <time>2025-05-06T13:20:08Z</time>
      </trkpt>
      <trkpt lat="37.584156012162566" lon="-8.666315982118249">
        <ele>115.01000000000001</ele>
        <time>2025-05-06T13:20:18Z</time>
      </trkpt>
      <trkpt lat="37.583964988589287" lon="-8.666378008201718">
        <ele>114.53</ele>
        <time>2025-05-06T13:20:28Z</time>
      </trkpt>
      <trkpt lat="37.583750998601317" lon="-8.666447997093201">
        <ele>114.05</ele>
        <time>2025-05-06T13:20:35Z</time>
      </trkpt>
      <trkpt lat="37.582718012854457" lon="-8.666795007884502">
        <ele>115.5</ele>
        <time>2025-05-06T13:20:42Z</time>
      </trkpt>
      <trkpt lat="37.580973990261555" lon="-8.667380986735225">
        <ele>117.90000000000001</ele>
        <time>2025-05-06T13:20:55Z</time>
      </trkpt>
      <trkpt lat="37.578971972689033" lon="-8.668040977790952">
        <ele>117.42</ele>
        <time>2025-05-06T13:21:09Z</time>
      </trkpt>
      <trkpt lat="37.577695995569229" lon="-8.668462000787258">
        <ele>120.3</ele>
        <time>2025-05-06T13:21:18Z</time>
      </trkpt>
      <trkpt lat="37.576610958203673" lon="-8.668814040720463">
        <ele>124.63</ele>
        <time>2025-05-06T13:21:27Z</time>
      </trkpt>
      <trkpt lat="37.574885040521622" lon="-8.669401025399566">
        <ele>121.26000000000001</ele>
        <time>2025-05-06T13:21:37Z</time>
      </trkpt>
      <trkpt lat="37.572923004627228" lon="-8.670057998970151">
        <ele>121.26000000000001</ele>
        <time>2025-05-06T13:21:49Z</time>
      </trkpt>
      <trkpt lat="37.57148802280426" lon="-8.670546999201179">
        <ele>126.06999999999999</ele>
        <time>2025-05-06T13:21:59Z</time>
      </trkpt>
      <trkpt lat="37.570330984890461" lon="-8.670963998883963">
        <ele>129.91999999999999</ele>
        <time>2025-05-06T13:22:06Z</time>
      </trkpt>
      <trkpt lat="37.570176003500819" lon="-8.671057038009167">
        <ele>129.91999999999999</ele>
        <time>2025-05-06T13:22:07Z</time>
      </trkpt>
      <trkpt lat="37.570032002404332" lon="-8.671166002750397">
        <ele>130.40000000000001</ele>
        <time>2025-05-06T13:22:08Z</time>
      </trkpt>
      <trkpt lat="37.56906196475029" lon="-8.672192031517625">
        <ele>135.19999999999999</ele>
        <time>2025-05-06T13:22:16Z</time>
      </trkpt>
      <trkpt lat="37.56893003359437" lon="-8.672295967116952">
        <ele>136.16</ele>
        <time>2025-05-06T13:22:17Z</time>
      </trkpt>
      <trkpt lat="37.56880103610456" lon="-8.672396969050169">
        <ele>136.63999999999999</ele>
        <time>2025-05-06T13:22:18Z</time>
      </trkpt>
      <trkpt lat="37.56727603264153" lon="-8.672568965703249">
        <ele>141.44999999999999</ele>
        <time>2025-05-06T13:22:27Z</time>
      </trkpt>
      <trkpt lat="37.565305028110743" lon="-8.672722019255161">
        <ele>152.03</ele>
        <time>2025-05-06T13:22:38Z</time>
      </trkpt>
      <trkpt lat="37.563433013856411" lon="-8.672919999808073">
        <ele>153.94999999999999</ele>
        <time>2025-05-06T13:22:47Z</time>
      </trkpt>
      <trkpt lat="37.561133019626141" lon="-8.67332199588418">
        <ele>154.91</ele>
        <time>2025-05-06T13:22:58Z</time>
      </trkpt>
      <trkpt lat="37.559102000668645" lon="-8.673728015273809">
        <ele>158.75</ele>
        <time>2025-05-06T13:23:07Z</time>
      </trkpt>
      <trkpt lat="37.55870696157217" lon="-8.673888025805354">
        <ele>159.24000000000001</ele>
        <time>2025-05-06T13:23:09Z</time>
      </trkpt>
      <trkpt lat="37.558519039303064" lon="-8.674003025516868">
        <ele>159.24000000000001</ele>
        <time>2025-05-06T13:23:10Z</time>
      </trkpt>
      <trkpt lat="37.558518033474684" lon="-8.674003025516868">
        <ele>158.75</ele>
        <time>2025-05-06T13:23:11Z</time>
      </trkpt>
      <trkpt lat="37.557939011603594" lon="-8.674357999116182">
        <ele>157.78999999999999</ele>
        <time>2025-05-06T13:23:14Z</time>
      </trkpt>
      <trkpt lat="37.557754023000598" lon="-8.674470987170935">
        <ele>157.31</ele>
        <time>2025-05-06T13:23:15Z</time>
      </trkpt>
      <trkpt lat="37.55760801024735" lon="-8.674633009359241">
        <ele>157.31</ele>
        <time>2025-05-06T13:23:16Z</time>
      </trkpt>
      <trkpt lat="37.557380022481084" lon="-8.675014972686768">
        <ele>156.83000000000001</ele>
        <time>2025-05-06T13:23:17Z</time>
      </trkpt>
      <trkpt lat="37.557269968092442" lon="-8.675225023180246">
        <ele>156.83000000000001</ele>
        <time>2025-05-06T13:23:18Z</time>
      </trkpt>
      <trkpt lat="37.557224035263062" lon="-8.675455022603273">
        <ele>156.34999999999999</ele>
        <time>2025-05-06T13:23:19Z</time>
      </trkpt>
      <trkpt lat="37.557188998907804" lon="-8.675673035904765">
        <ele>155.87</ele>
        <time>2025-05-06T13:23:21Z</time>
      </trkpt>
      <trkpt lat="37.557098977267742" lon="-8.67602901533246">
        <ele>155.38999999999999</ele>
        <time>2025-05-06T13:23:22Z</time>
      </trkpt>
      <trkpt lat="37.557011973112822" lon="-8.676154995337129">
        <ele>154.91</ele>
        <time>2025-05-06T13:23:23Z</time>
      </trkpt>
      <trkpt lat="37.556892028078437" lon="-8.676260020583868">
        <ele>154.43000000000001</ele>
        <time>2025-05-06T13:23:24Z</time>
      </trkpt>
      <trkpt lat="37.556746015325189" lon="-8.676353981718421">
        <ele>154.43000000000001</ele>
        <time>2025-05-06T13:23:25Z</time>
      </trkpt>
      <trkpt lat="37.556582987308502" lon="-8.676460012793541">
        <ele>153.94999999999999</ele>
        <time>2025-05-06T13:23:26Z</time>
      </trkpt>
      <trkpt lat="37.555964989587665" lon="-8.676938032731414">
        <ele>152.50999999999999</ele>
        <time>2025-05-06T13:23:31Z</time>
      </trkpt>
      <trkpt lat="37.55586801096797" lon="-8.677108017727733">
        <ele>152.03</ele>
        <time>2025-05-06T13:23:32Z</time>
      </trkpt>
      <trkpt lat="37.555763991549611" lon="-8.677288983017206">
        <ele>151.53999999999999</ele>
        <time>2025-05-06T13:23:33Z</time>
      </trkpt>
      <trkpt lat="37.555645974352956" lon="-8.677472965791822">
        <ele>151.06</ele>
        <time>2025-05-06T13:23:34Z</time>
      </trkpt>
      <trkpt lat="37.555522006005049" lon="-8.677628031000495">
        <ele>151.06</ele>
        <time>2025-05-06T13:23:35Z</time>
      </trkpt>
      <trkpt lat="37.555340034887195" lon="-8.677709000185132">
        <ele>150.58000000000001</ele>
        <time>2025-05-06T13:23:36Z</time>
      </trkpt>
      <trkpt lat="37.555165020748973" lon="-8.677783012390137">
        <ele>149.62</ele>
        <time>2025-05-06T13:23:37Z</time>
      </trkpt>
      <trkpt lat="37.55275103263557" lon="-8.678769981488586">
        <ele>143.84999999999999</ele>
        <time>2025-05-06T13:23:48Z</time>
      </trkpt>
      <trkpt lat="37.552574006840587" lon="-8.678887998685241">
        <ele>143.37</ele>
        <time>2025-05-06T13:23:49Z</time>
      </trkpt>
      <trkpt lat="37.550969962030649" lon="-8.680210998281837">
        <ele>147.69999999999999</ele>
        <time>2025-05-06T13:23:58Z</time>
      </trkpt>
      <trkpt lat="37.549628019332886" lon="-8.681076010689139">
        <ele>154.43000000000001</ele>
        <time>2025-05-06T13:24:05Z</time>
      </trkpt>
      <trkpt lat="37.549455016851425" lon="-8.681207019835711">
        <ele>155.38999999999999</ele>
        <time>2025-05-06T13:24:06Z</time>
      </trkpt>
      <trkpt lat="37.549300035461783" lon="-8.681362001225352">
        <ele>156.34999999999999</ele>
        <time>2025-05-06T13:24:07Z</time>
      </trkpt>
      <trkpt lat="37.549152011051774" lon="-8.681511031463742">
        <ele>156.83000000000001</ele>
        <time>2025-05-06T13:24:08Z</time>
      </trkpt>
      <trkpt lat="37.549004992470145" lon="-8.681656960397959">
        <ele>157.78999999999999</ele>
        <time>2025-05-06T13:24:09Z</time>
      </trkpt>
      <trkpt lat="37.548839030787349" lon="-8.681759973987937">
        <ele>158.75</ele>
        <time>2025-05-06T13:24:10Z</time>
      </trkpt>
      <trkpt lat="37.548655970022082" lon="-8.681816970929503">
        <ele>159.24000000000001</ele>
        <time>2025-05-06T13:24:11Z</time>
      </trkpt>
      <trkpt lat="37.548475004732609" lon="-8.681872962042689">
        <ele>159.72</ele>
        <time>2025-05-06T13:24:12Z</time>
      </trkpt>
      <trkpt lat="37.548308959230781" lon="-8.681924007833004">
        <ele>160.19999999999999</ele>
        <time>2025-05-06T13:24:13Z</time>
      </trkpt>
      <trkpt lat="37.548298984766006" lon="-8.681930964812636">
        <ele>161.16</ele>
        <time>2025-05-06T13:24:14Z</time>
      </trkpt>
      <trkpt lat="37.548149032518268" lon="-8.682030960917473">
        <ele>161.63999999999999</ele>
        <time>2025-05-06T13:24:15Z</time>
      </trkpt>
      <trkpt lat="37.547891959547997" lon="-8.682340001687408">
        <ele>161.63999999999999</ele>
        <time>2025-05-06T13:24:16Z</time>
      </trkpt>
      <trkpt lat="37.547763967886567" lon="-8.682535970583558">
        <ele>162.12</ele>
        <time>2025-05-06T13:24:17Z</time>
      </trkpt>
      <trkpt lat="37.547192992642522" lon="-8.683371981605887">
        <ele>160.68000000000001</ele>
        <time>2025-05-06T13:24:22Z</time>
      </trkpt>
      <trkpt lat="37.546613970771432" lon="-8.684091987088323">
        <ele>159.72</ele>
        <time>2025-05-06T13:24:25Z</time>
      </trkpt>
      <trkpt lat="37.546520009636879" lon="-8.68434302508831">
        <ele>159.24000000000001</ele>
        <time>2025-05-06T13:24:26Z</time>
      </trkpt>
      <trkpt lat="37.546332003548741" lon="-8.684754995629191">
        <ele>158.75</ele>
        <time>2025-05-06T13:24:28Z</time>
      </trkpt>
      <trkpt lat="37.54622002132237" lon="-8.684940990060568">
        <ele>158.27000000000001</ele>
        <time>2025-05-06T13:24:29Z</time>
      </trkpt>
      <trkpt lat="37.546083983033895" lon="-8.685105023905635">
        <ele>158.27000000000001</ele>
        <time>2025-05-06T13:24:30Z</time>
      </trkpt>
      <trkpt lat="37.54591902717948" lon="-8.685249025002122">
        <ele>157.78999999999999</ele>
        <time>2025-05-06T13:24:31Z</time>
      </trkpt>
      <trkpt lat="37.54575097002089" lon="-8.6853969655931">
        <ele>157.78999999999999</ele>
        <time>2025-05-06T13:24:32Z</time>
      </trkpt>
      <trkpt lat="37.544167041778564" lon="-8.686419976875186">
        <ele>156.83000000000001</ele>
        <time>2025-05-06T13:24:41Z</time>
      </trkpt>
      <trkpt lat="37.544012982398272" lon="-8.686538999900222">
        <ele>156.34999999999999</ele>
        <time>2025-05-06T13:24:42Z</time>
      </trkpt>
      <trkpt lat="37.543905023485422" lon="-8.686687024310231">
        <ele>155.87</ele>
        <time>2025-05-06T13:24:43Z</time>
      </trkpt>
      <trkpt lat="37.543823970481753" lon="-8.686860026791692">
        <ele>155.38999999999999</ele>
        <time>2025-05-06T13:24:44Z</time>
      </trkpt>
      <trkpt lat="37.54377300851047" lon="-8.687067981809378">
        <ele>155.38999999999999</ele>
        <time>2025-05-06T13:24:45Z</time>
      </trkpt>
      <trkpt lat="37.543723974376917" lon="-8.687273003160954">
        <ele>154.91</ele>
        <time>2025-05-06T13:24:46Z</time>
      </trkpt>
      <trkpt lat="37.543674018234015" lon="-8.687476012855768">
        <ele>154.43000000000001</ele>
        <time>2025-05-06T13:24:47Z</time>
      </trkpt>
      <trkpt lat="37.543621966615319" lon="-8.687667958438397">
        <ele>153.94999999999999</ele>
        <time>2025-05-06T13:24:48Z</time>
      </trkpt>
      <trkpt lat="37.543516019359231" lon="-8.687835009768605">
        <ele>153.47</ele>
        <time>2025-05-06T13:24:49Z</time>
      </trkpt>
      <trkpt lat="37.54336598329246" lon="-8.687971970066428">
        <ele>153.47</ele>
        <time>2025-05-06T13:24:50Z</time>
      </trkpt>
      <trkpt lat="37.543189963325858" lon="-8.688074983656406">
        <ele>152.99000000000001</ele>
        <time>2025-05-06T13:24:51Z</time>
      </trkpt>
      <trkpt lat="37.543001035228372" lon="-8.688172968104482">
        <ele>152.99000000000001</ele>
        <time>2025-05-06T13:24:52Z</time>
      </trkpt>
      <trkpt lat="37.542794002220035" lon="-8.688247986137867">
        <ele>153.47</ele>
        <time>2025-05-06T13:24:53Z</time>
      </trkpt>
      <trkpt lat="37.541044028475881" lon="-8.689075028523803">
        <ele>159.24000000000001</ele>
        <time>2025-05-06T13:25:01Z</time>
      </trkpt>
      <trkpt lat="37.538942014798522" lon="-8.690392998978496">
        <ele>159.72</ele>
        <time>2025-05-06T13:25:11Z</time>
      </trkpt>
      <trkpt lat="37.536493996158242" lon="-8.691727984696627">
        <ele>165.47999999999999</ele>
        <time>2025-05-06T13:25:23Z</time>
      </trkpt>
      <trkpt lat="37.535253977403045" lon="-8.692413037642837">
        <ele>170.28999999999999</ele>
        <time>2025-05-06T13:25:29Z</time>
      </trkpt>
      <trkpt lat="37.535077035427094" lon="-8.692583022639155">
        <ele>170.77000000000001</ele>
        <time>2025-05-06T13:25:30Z</time>
      </trkpt>
      <trkpt lat="37.533464021980762" lon="-8.694561989977956">
        <ele>170.77000000000001</ele>
        <time>2025-05-06T13:25:40Z</time>
      </trkpt>
      <trkpt lat="37.53300896845758" lon="-8.695077979937196">
        <ele>172.21000000000001</ele>
        <time>2025-05-06T13:25:43Z</time>
      </trkpt>
      <trkpt lat="37.532822974026203" lon="-8.69517202489078">
        <ele>172.69</ele>
        <time>2025-05-06T13:25:44Z</time>
      </trkpt>
      <trkpt lat="37.532671010121703" lon="-8.695202032104135">
        <ele>173.16999999999999</ele>
        <time>2025-05-06T13:25:45Z</time>
      </trkpt>
      <trkpt lat="37.532505970448256" lon="-8.695223992690444">
        <ele>174.13999999999999</ele>
        <time>2025-05-06T13:25:46Z</time>
      </trkpt>
      <trkpt lat="37.532332967966795" lon="-8.695246959105134">
        <ele>175.09999999999999</ele>
        <time>2025-05-06T13:25:47Z</time>
      </trkpt>
      <trkpt lat="37.532157031819224" lon="-8.695270009338856">
        <ele>175.58000000000001</ele>
        <time>2025-05-06T13:25:48Z</time>
      </trkpt>
      <trkpt lat="37.531985035166144" lon="-8.695353996008635">
        <ele>176.53999999999999</ele>
        <time>2025-05-06T13:25:49Z</time>
      </trkpt>
      <trkpt lat="37.531831981614232" lon="-8.695461032912135">
        <ele>177.02000000000001</ele>
        <time>2025-05-06T13:25:50Z</time>
      </trkpt>
      <trkpt lat="37.53169602714479" lon="-8.695596987381578">
        <ele>177.5</ele>
        <time>2025-05-06T13:25:51Z</time>
      </trkpt>
      <trkpt lat="37.531420011073351" lon="-8.695874009281397">
        <ele>178.94</ele>
        <time>2025-05-06T13:25:53Z</time>
      </trkpt>
      <trkpt lat="37.53133200109005" lon="-8.696026979014278">
        <ele>179.90000000000001</ele>
        <time>2025-05-06T13:25:54Z</time>
      </trkpt>
      <trkpt lat="37.531277015805244" lon="-8.696227977052331">
        <ele>180.38</ele>
        <time>2025-05-06T13:25:55Z</time>
      </trkpt>
      <trkpt lat="37.531068976968527" lon="-8.696961980313063">
        <ele>181.83000000000001</ele>
        <time>2025-05-06T13:25:58Z</time>
      </trkpt>
      <trkpt lat="37.530944002792239" lon="-8.697194997221232">
        <ele>182.31</ele>
        <time>2025-05-06T13:25:59Z</time>
      </trkpt>
      <trkpt lat="37.530479980632663" lon="-8.698117006570101">
        <ele>185.66999999999999</ele>
        <time>2025-05-06T13:26:04Z</time>
      </trkpt>
      <trkpt lat="37.530297003686428" lon="-8.698541969060898">
        <ele>187.11000000000001</ele>
        <time>2025-05-06T13:26:06Z</time>
      </trkpt>
      <trkpt lat="37.530208993703127" lon="-8.698745984584093">
        <ele>187.59</ele>
        <time>2025-05-06T13:26:07Z</time>
      </trkpt>
      <trkpt lat="37.530115032568574" lon="-8.698941031470895">
        <ele>187.59</ele>
        <time>2025-05-06T13:26:08Z</time>
      </trkpt>
      <trkpt lat="37.529981005936861" lon="-8.699098024517298">
        <ele>187.59</ele>
        <time>2025-05-06T13:26:09Z</time>
      </trkpt>
      <trkpt lat="37.529823007062078" lon="-8.699243031442165">
        <ele>187.59</ele>
        <time>2025-05-06T13:26:10Z</time>
      </trkpt>
      <trkpt lat="37.529627960175276" lon="-8.699316959828138">
        <ele>187.11000000000001</ele>
        <time>2025-05-06T13:26:11Z</time>
      </trkpt>
      <trkpt lat="37.529423022642732" lon="-8.69935903698206">
        <ele>186.63</ele>
        <time>2025-05-06T13:26:12Z</time>
      </trkpt>
      <trkpt lat="37.52899001352489" lon="-8.69944796897471">
        <ele>185.66999999999999</ele>
        <time>2025-05-06T13:26:14Z</time>
      </trkpt>
      <trkpt lat="37.528776023536921" lon="-8.699523992836475">
        <ele>185.19</ele>
        <time>2025-05-06T13:26:15Z</time>
      </trkpt>
      <trkpt lat="37.527752006426454" lon="-8.699916014447808">
        <ele>181.83000000000001</ele>
        <time>2025-05-06T13:26:20Z</time>
      </trkpt>
      <trkpt lat="37.527567017823458" lon="-8.699937975034118">
        <ele>180.87</ele>
        <time>2025-05-06T13:26:21Z</time>
      </trkpt>
      <trkpt lat="37.527373982593417" lon="-8.699916014447808">
        <ele>179.41999999999999</ele>
        <time>2025-05-06T13:26:22Z</time>
      </trkpt>
      <trkpt lat="37.526958994567394" lon="-8.699869997799397">
        <ele>177.02000000000001</ele>
        <time>2025-05-06T13:26:24Z</time>
      </trkpt>
      <trkpt lat="37.526745004579425" lon="-8.699847031384707">
        <ele>176.53999999999999</ele>
        <time>2025-05-06T13:26:25Z</time>
      </trkpt>
      <trkpt lat="37.526522967964411" lon="-8.699852982535958">
        <ele>175.58000000000001</ele>
        <time>2025-05-06T13:26:26Z</time>
      </trkpt>
      <trkpt lat="37.524807024747133" lon="-8.700308036059141">
        <ele>168.84999999999999</ele>
        <time>2025-05-06T13:26:34Z</time>
      </trkpt>
      <trkpt lat="37.523291995748878" lon="-8.700812961906195">
        <ele>164.52000000000001</ele>
        <time>2025-05-06T13:26:42Z</time>
      </trkpt>
      <trkpt lat="37.521809991449118" lon="-8.701496003195643">
        <ele>161.63999999999999</ele>
        <time>2025-05-06T13:26:50Z</time>
      </trkpt>
      <trkpt lat="37.521506985649467" lon="-8.701738994568586">
        <ele>161.63999999999999</ele>
        <time>2025-05-06T13:26:54Z</time>
      </trkpt>
      <trkpt lat="37.521452000364661" lon="-8.701801020652056">
        <ele>162.12</ele>
        <time>2025-05-06T13:26:55Z</time>
      </trkpt>
      <trkpt lat="37.521294001489878" lon="-8.701730025932193">
        <ele>162.12</ele>
        <time>2025-05-06T13:26:56Z</time>
      </trkpt>
      <trkpt lat="37.521343035623431" lon="-8.701790040358901">
        <ele>162.59999999999999</ele>
        <time>2025-05-06T13:26:57Z</time>
      </trkpt>
      <trkpt lat="37.521294001489878" lon="-8.701730025932193">
        <ele>162.59999999999999</ele>
        <time>2025-05-06T13:26:58Z</time>
      </trkpt>
      <trkpt lat="37.521050004288554" lon="-8.701673028990626">
        <ele>162.59999999999999</ele>
        <time>2025-05-06T13:26:59Z</time>
      </trkpt>
      <trkpt lat="37.520916983485222" lon="-8.701643021777272">
        <ele>162.12</ele>
        <time>2025-05-06T13:27:00Z</time>
      </trkpt>
      <trkpt lat="37.520915977656841" lon="-8.701643021777272">
        <ele>162.12</ele>
        <time>2025-05-06T13:27:01Z</time>
      </trkpt>
      <trkpt lat="37.51917103305459" lon="-8.701513018459082">
        <ele>154.91</ele>
        <time>2025-05-06T13:27:12Z</time>
      </trkpt>
      <trkpt lat="37.518607014790177" lon="-8.701514024287462">
        <ele>152.03</ele>
        <time>2025-05-06T13:27:16Z</time>
      </trkpt>
      <trkpt lat="37.518476005643606" lon="-8.701534979045391">
        <ele>151.53999999999999</ele>
        <time>2025-05-06T13:27:17Z</time>
      </trkpt>
      <trkpt lat="37.517933025956154" lon="-8.701740000396967">
        <ele>147.22</ele>
        <time>2025-05-06T13:27:21Z</time>
      </trkpt>
      <trkpt lat="37.517805034294724" lon="-8.70178903453052">
        <ele>146.25999999999999</ele>
        <time>2025-05-06T13:27:22Z</time>
      </trkpt>
      <trkpt lat="37.517676958814263" lon="-8.701837984845042">
        <ele>145.30000000000001</ele>
        <time>2025-05-06T13:27:23Z</time>
      </trkpt>
      <trkpt lat="37.517547961324453" lon="-8.701852988451719">
        <ele>143.84999999999999</ele>
        <time>2025-05-06T13:27:24Z</time>
      </trkpt>
      <trkpt lat="37.517414018511772" lon="-8.701842008158565">
        <ele>142.88999999999999</ele>
        <time>2025-05-06T13:27:25Z</time>
      </trkpt>
      <trkpt lat="37.517279991880059" lon="-8.70183102786541">
        <ele>142.41</ele>
        <time>2025-05-06T13:27:26Z</time>
      </trkpt>
      <trkpt lat="37.517147976905107" lon="-8.701819963753223">
        <ele>140.97</ele>
        <time>2025-05-06T13:27:27Z</time>
      </trkpt>
      <trkpt lat="37.517010010778904" lon="-8.701808983460069">
        <ele>140.00999999999999</ele>
        <time>2025-05-06T13:27:28Z</time>
      </trkpt>
      <trkpt lat="37.516863998025656" lon="-8.701796997338533">
        <ele>139.05000000000001</ele>
        <time>2025-05-06T13:27:29Z</time>
      </trkpt>
      <trkpt lat="37.516716979444027" lon="-8.701814012601972">
        <ele>138.09</ele>
        <time>2025-05-06T13:27:30Z</time>
      </trkpt>
      <trkpt lat="37.516568033024669" lon="-8.701841002330184">
        <ele>137.13</ele>
        <time>2025-05-06T13:27:31Z</time>
      </trkpt>
      <trkpt lat="37.516426965594292" lon="-8.70187503285706">
        <ele>136.63999999999999</ele>
        <time>2025-05-06T13:27:32Z</time>
      </trkpt>
      <trkpt lat="37.515030037611723" lon="-8.702656980603933">
        <ele>127.51000000000001</ele>
        <time>2025-05-06T13:27:42Z</time>
      </trkpt>
      <trkpt lat="37.514774976298213" lon="-8.702854039147496">
        <ele>127.03</ele>
        <time>2025-05-06T13:27:44Z</time>
      </trkpt>
      <trkpt lat="37.514654025435448" lon="-8.702948000282049">
        <ele>127.51000000000001</ele>
        <time>2025-05-06T13:27:45Z</time>
      </trkpt>
      <trkpt lat="37.514538019895554" lon="-8.702994016930461">
        <ele>127.51000000000001</ele>
        <time>2025-05-06T13:27:46Z</time>
      </trkpt>
      <trkpt lat="37.514420002698898" lon="-8.703022012487054">
        <ele>127.98999999999999</ele>
        <time>2025-05-06T13:27:47Z</time>
      </trkpt>
      <trkpt lat="37.514298968017101" lon="-8.703050008043647">
        <ele>127.98999999999999</ele>
        <time>2025-05-06T13:27:48Z</time>
      </trkpt>
      <trkpt lat="37.51418698579073" lon="-8.70305503718555">
        <ele>127.98999999999999</ele>
        <time>2025-05-06T13:27:49Z</time>
      </trkpt>
      <trkpt lat="37.5140589941293" lon="-8.703043973073363">
        <ele>128.47</ele>
        <time>2025-05-06T13:27:50Z</time>
      </trkpt>
      <trkpt lat="37.513910969719291" lon="-8.703024024143815">
        <ele>128.47</ele>
        <time>2025-05-06T13:27:51Z</time>
      </trkpt>
      <trkpt lat="37.513763029128313" lon="-8.702999968081713">
        <ele>128.47</ele>
        <time>2025-05-06T13:27:52Z</time>
      </trkpt>
      <trkpt lat="37.513611987233162" lon="-8.702973984181881">
        <ele>128.94999999999999</ele>
        <time>2025-05-06T13:27:53Z</time>
      </trkpt>
      <trkpt lat="37.512614037841558" lon="-8.702893014997244">
        <ele>135.68000000000001</ele>
        <time>2025-05-06T13:28:01Z</time>
      </trkpt>
      <trkpt lat="37.512426031753421" lon="-8.702900977805257">
        <ele>136.63999999999999</ele>
        <time>2025-05-06T13:28:04Z</time>
      </trkpt>
      <trkpt lat="37.512343972921371" lon="-8.702853033319116">
        <ele>137.13</ele>
        <time>2025-05-06T13:28:05Z</time>
      </trkpt>
      <trkpt lat="37.51234196126461" lon="-8.702798970043659">
        <ele>137.61000000000001</ele>
        <time>2025-05-06T13:28:06Z</time>
      </trkpt>
      <trkpt lat="37.512340033426881" lon="-8.702726969495416">
        <ele>138.09</ele>
        <time>2025-05-06T13:28:07Z</time>
      </trkpt>
      <trkpt lat="37.512340033426881" lon="-8.702726969495416">
        <ele>138.56999999999999</ele>
        <time>2025-05-06T13:28:08Z</time>
      </trkpt>
      <trkpt lat="37.512337015941739" lon="-8.702626973390579">
        <ele>139.05000000000001</ele>
        <time>2025-05-06T13:28:09Z</time>
      </trkpt>
      <trkpt lat="37.512289993464947" lon="-8.701382009312511">
        <ele>138.09</ele>
        <time>2025-05-06T13:28:17Z</time>
      </trkpt>
      <trkpt lat="37.512084972113371" lon="-8.700638031587005">
        <ele>133.75999999999999</ele>
        <time>2025-05-06T13:28:21Z</time>
      </trkpt>
      <trkpt lat="37.511290032416582" lon="-8.698773980140686">
        <ele>127.51000000000001</ele>
        <time>2025-05-06T13:28:29Z</time>
      </trkpt>
      <trkpt lat="37.510754009708762" lon="-8.697563968598843">
        <ele>128.47</ele>
        <time>2025-05-06T13:28:34Z</time>
      </trkpt>
      <trkpt lat="37.510645966976881" lon="-8.697325000539422">
        <ele>128.94999999999999</ele>
        <time>2025-05-06T13:28:35Z</time>
      </trkpt>
      <trkpt lat="37.510498026385903" lon="-8.697147974744439">
        <ele>129.43000000000001</ele>
        <time>2025-05-06T13:28:36Z</time>
      </trkpt>
      <trkpt lat="37.510373974218965" lon="-8.696999028325081">
        <ele>130.40000000000001</ele>
        <time>2025-05-06T13:28:37Z</time>
      </trkpt>
      <trkpt lat="37.510244976729155" lon="-8.696921998634934">
        <ele>131.36000000000001</ele>
        <time>2025-05-06T13:28:38Z</time>
      </trkpt>
      <trkpt lat="37.510089995339513" lon="-8.696881011128426">
        <ele>132.31999999999999</ele>
        <time>2025-05-06T13:28:39Z</time>
      </trkpt>
      <trkpt lat="37.508369022980332" lon="-8.696423023939133">
        <ele>146.25999999999999</ele>
        <time>2025-05-06T13:28:48Z</time>
      </trkpt>
      <trkpt lat="37.507585985586047" lon="-8.696163017302752">
        <ele>152.03</ele>
        <time>2025-05-06T13:28:52Z</time>
      </trkpt>
      <trkpt lat="37.507447013631463" lon="-8.696087999269366">
        <ele>153.47</ele>
        <time>2025-05-06T13:28:53Z</time>
      </trkpt>
      <trkpt lat="37.50690302811563" lon="-8.695636969059706">
        <ele>158.75</ele>
        <time>2025-05-06T13:28:59Z</time>
      </trkpt>
      <trkpt lat="37.506824992597103" lon="-8.695563040673733">
        <ele>159.24000000000001</ele>
        <time>2025-05-06T13:29:00Z</time>
      </trkpt>
      <trkpt lat="37.506757015362382" lon="-8.695474024862051">
        <ele>159.24000000000001</ele>
        <time>2025-05-06T13:29:01Z</time>
      </trkpt>
      <trkpt lat="37.506467001512647" lon="-8.69491302408278">
        <ele>161.16</ele>
        <time>2025-05-06T13:29:07Z</time>
      </trkpt>
      <trkpt lat="37.506422996520996" lon="-8.694809004664421">
        <ele>161.63999999999999</ele>
        <time>2025-05-06T13:29:08Z</time>
      </trkpt>
      <trkpt lat="37.50617397017777" lon="-8.694206010550261">
        <ele>163.56</ele>
        <time>2025-05-06T13:29:14Z</time>
      </trkpt>
      <trkpt lat="37.506136000156403" lon="-8.694122023880482">
        <ele>163.56</ele>
        <time>2025-05-06T13:29:15Z</time>
      </trkpt>
      <trkpt lat="37.505792006850243" lon="-8.693318031728268">
        <ele>168.37</ele>
        <time>2025-05-06T13:29:23Z</time>
      </trkpt>
      <trkpt lat="37.505165040493011" lon="-8.69212101213634">
        <ele>175.09999999999999</ele>
        <time>2025-05-06T13:29:30Z</time>
      </trkpt>
      <trkpt lat="37.503930972889066" lon="-8.690607994794846">
        <ele>180.38</ele>
        <time>2025-05-06T13:29:38Z</time>
      </trkpt>
      <trkpt lat="37.502043033018708" lon="-8.688373966142535">
        <ele>188.56</ele>
        <time>2025-05-06T13:29:50Z</time>
      </trkpt>
      <trkpt lat="37.501133009791374" lon="-8.687040992081165">
        <ele>191.44</ele>
        <time>2025-05-06T13:29:58Z</time>
      </trkpt>
      <trkpt lat="37.500059036538005" lon="-8.685378022491932">
        <ele>193.36000000000001</ele>
        <time>2025-05-06T13:30:06Z</time>
      </trkpt>
      <trkpt lat="37.498919013887644" lon="-8.683620002120733">
        <ele>195.28</ele>
        <time>2025-05-06T13:30:14Z</time>
      </trkpt>
      <trkpt lat="37.497663991525769" lon="-8.681638017296791">
        <ele>195.77000000000001</ele>
        <time>2025-05-06T13:30:23Z</time>
      </trkpt>
      <trkpt lat="37.496520029380918" lon="-8.679863987490535">
        <ele>196.25</ele>
        <time>2025-05-06T13:30:31Z</time>
      </trkpt>
      <trkpt lat="37.495507998391986" lon="-8.678293973207474">
        <ele>196.25</ele>
        <time>2025-05-06T13:30:38Z</time>
      </trkpt>
      <trkpt lat="37.494096988812089" lon="-8.676105039194226">
        <ele>193.84</ele>
        <time>2025-05-06T13:30:48Z</time>
      </trkpt>
      <trkpt lat="37.492773989215493" lon="-8.673841003328562">
        <ele>195.28</ele>
        <time>2025-05-06T13:30:58Z</time>
      </trkpt>
      <trkpt lat="37.492353972047567" lon="-8.673211019486189">
        <ele>195.77000000000001</ele>
        <time>2025-05-06T13:31:01Z</time>
      </trkpt>
      <trkpt lat="37.492205025628209" lon="-8.673069030046463">
        <ele>196.25</ele>
        <time>2025-05-06T13:31:02Z</time>
      </trkpt>
      <trkpt lat="37.4920570012182" lon="-8.672945983707905">
        <ele>196.25</ele>
        <time>2025-05-06T13:31:03Z</time>
      </trkpt>
      <trkpt lat="37.490785969421268" lon="-8.672090023756027">
        <ele>196.72999999999999</ele>
        <time>2025-05-06T13:31:11Z</time>
      </trkpt>
      <trkpt lat="37.489103972911835" lon="-8.671020995825529">
        <ele>199.13</ele>
        <time>2025-05-06T13:31:22Z</time>
      </trkpt>
      <trkpt lat="37.487647030502558" lon="-8.670095968991518">
        <ele>199.13</ele>
        <time>2025-05-06T13:31:32Z</time>
      </trkpt>
      <trkpt lat="37.486477000638843" lon="-8.669351991266012">
        <ele>197.69</ele>
        <time>2025-05-06T13:31:43Z</time>
      </trkpt>
      <trkpt lat="37.486083973199129" lon="-8.669095002114773">
        <ele>198.16999999999999</ele>
        <time>2025-05-06T13:31:46Z</time>
      </trkpt>
      <trkpt lat="37.485665967687964" lon="-8.668812029063702">
        <ele>199.13</ele>
        <time>2025-05-06T13:31:49Z</time>
      </trkpt>
      <trkpt lat="37.485117958858609" lon="-8.668385976925492">
        <ele>199.13</ele>
        <time>2025-05-06T13:31:53Z</time>
      </trkpt>
      <trkpt lat="37.483474016189575" lon="-8.666826020926237">
        <ele>198.16999999999999</ele>
        <time>2025-05-06T13:32:05Z</time>
      </trkpt>
      <trkpt lat="37.481981031596661" lon="-8.665576027706265">
        <ele>199.13</ele>
        <time>2025-05-06T13:32:14Z</time>
      </trkpt>
      <trkpt lat="37.480858024209738" lon="-8.66489801555872">
        <ele>200.09</ele>
        <time>2025-05-06T13:32:20Z</time>
      </trkpt>
      <trkpt lat="37.479012999683619" lon="-8.664317987859249">
        <ele>201.53</ele>
        <time>2025-05-06T13:32:28Z</time>
      </trkpt>
      <trkpt lat="37.4761370010674" lon="-8.663689009845257">
        <ele>206.34</ele>
        <time>2025-05-06T13:32:41Z</time>
      </trkpt>
      <trkpt lat="37.472574021667242" lon="-8.6630720179528">
        <ele>211.63</ele>
        <time>2025-05-06T13:32:57Z</time>
      </trkpt>
      <trkpt lat="37.471677996218204" lon="-8.662999011576176">
        <ele>214.50999999999999</ele>
        <time>2025-05-06T13:33:01Z</time>
      </trkpt>
      <trkpt lat="37.469559973105788" lon="-8.663217024877667">
        <ele>223.16</ele>
        <time>2025-05-06T13:33:11Z</time>
      </trkpt>
      <trkpt lat="37.469000983983278" lon="-8.663277961313725">
        <ele>225.09</ele>
        <time>2025-05-06T13:33:14Z</time>
      </trkpt>
      <trkpt lat="37.468803003430367" lon="-8.663253989070654">
        <ele>225.09</ele>
        <time>2025-05-06T13:33:15Z</time>
      </trkpt>
      <trkpt lat="37.467030985280871" lon="-8.662889041006565">
        <ele>228.93000000000001</ele>
        <time>2025-05-06T13:33:24Z</time>
      </trkpt>
      <trkpt lat="37.466653967276216" lon="-8.662798013538122">
        <ele>230.37</ele>
        <time>2025-05-06T13:33:26Z</time>
      </trkpt>
      <trkpt lat="37.465113960206509" lon="-8.661980023607612">
        <ele>237.09999999999999</ele>
        <time>2025-05-06T13:33:34Z</time>
      </trkpt>
      <trkpt lat="37.463675960898399" lon="-8.66111702285707">
        <ele>244.31</ele>
        <time>2025-05-06T13:33:42Z</time>
      </trkpt>
      <trkpt lat="37.463518967851996" lon="-8.660992970690131">
        <ele>245.27000000000001</ele>
        <time>2025-05-06T13:33:43Z</time>
      </trkpt>
      <trkpt lat="37.463371027261019" lon="-8.660845030099154">
        <ele>245.75</ele>
        <time>2025-05-06T13:33:44Z</time>
      </trkpt>
      <trkpt lat="37.463223002851009" lon="-8.660693988204002">
        <ele>246.72</ele>
        <time>2025-05-06T13:33:45Z</time>
      </trkpt>
      <trkpt lat="37.462256988510489" lon="-8.659489005804062">
        <ele>252</ele>
        <time>2025-05-06T13:33:52Z</time>
      </trkpt>
      <trkpt lat="37.462107958272099" lon="-8.659381968900561">
        <ele>252.47999999999999</ele>
        <time>2025-05-06T13:33:53Z</time>
      </trkpt>
      <trkpt lat="37.46032202616334" lon="-8.658684007823467">
        <ele>257.76999999999998</ele>
        <time>2025-05-06T13:34:03Z</time>
      </trkpt>
      <trkpt lat="37.459418037906289" lon="-8.658364992588759">
        <ele>260.64999999999998</ele>
        <time>2025-05-06T13:34:08Z</time>
      </trkpt>
      <trkpt lat="37.459241012111306" lon="-8.658301960676909">
        <ele>261.13999999999999</ele>
        <time>2025-05-06T13:34:09Z</time>
      </trkpt>
      <trkpt lat="37.457762025296688" lon="-8.657280961051583">
        <ele>268.35000000000002</ele>
        <time>2025-05-06T13:34:17Z</time>
      </trkpt>
      <trkpt lat="37.456764997914433" lon="-8.656559027731419">
        <ele>274.11000000000001</ele>
        <time>2025-05-06T13:34:23Z</time>
      </trkpt>
      <trkpt lat="37.45544602163136" lon="-8.655295036733151">
        <ele>281.31999999999999</ele>
        <time>2025-05-06T13:34:32Z</time>
      </trkpt>
      <trkpt lat="37.45529598556459" lon="-8.655151035636663">
        <ele>281.80000000000001</ele>
        <time>2025-05-06T13:34:33Z</time>
      </trkpt>
      <trkpt lat="37.455118037760258" lon="-8.655064031481743">
        <ele>282.27999999999997</ele>
        <time>2025-05-06T13:34:34Z</time>
      </trkpt>
      <trkpt lat="37.454057978466153" lon="-8.654535971581936">
        <ele>284.20999999999998</ele>
        <time>2025-05-06T13:34:40Z</time>
      </trkpt>
      <trkpt lat="37.453912971541286" lon="-8.654424995183945">
        <ele>284.20999999999998</ele>
        <time>2025-05-06T13:34:41Z</time>
      </trkpt>
      <trkpt lat="37.453787997364998" lon="-8.654330028221011">
        <ele>284.69</ele>
        <time>2025-05-06T13:34:42Z</time>
      </trkpt>
      <trkpt lat="37.453694036230445" lon="-8.654175968840718">
        <ele>285.17000000000002</ele>
        <time>2025-05-06T13:34:43Z</time>
      </trkpt>
      <trkpt lat="37.453600997105241" lon="-8.654024004936218">
        <ele>285.64999999999998</ele>
        <time>2025-05-06T13:34:44Z</time>
      </trkpt>
      <trkpt lat="37.453526984900236" lon="-8.653849996626377">
        <ele>285.64999999999998</ele>
        <time>2025-05-06T13:34:45Z</time>
      </trkpt>
      <trkpt lat="37.453474011272192" lon="-8.653642041608691">
        <ele>286.13</ele>
        <time>2025-05-06T13:34:46Z</time>
      </trkpt>
      <trkpt lat="37.453157007694244" lon="-8.652274031192064">
        <ele>288.52999999999997</ele>
        <time>2025-05-06T13:34:52Z</time>
      </trkpt>
      <trkpt lat="37.45310596190393" lon="-8.652086025103927">
        <ele>288.52999999999997</ele>
        <time>2025-05-06T13:34:53Z</time>
      </trkpt>
      <trkpt lat="37.453027004376054" lon="-8.651929032057524">
        <ele>289.49000000000001</ele>
        <time>2025-05-06T13:34:54Z</time>
      </trkpt>
      <trkpt lat="37.452950980514288" lon="-8.651775978505611">
        <ele>289.97000000000003</ele>
        <time>2025-05-06T13:34:55Z</time>
      </trkpt>
      <trkpt lat="37.452807985246181" lon="-8.651633989065886">
        <ele>290.94</ele>
        <time>2025-05-06T13:34:56Z</time>
      </trkpt>
      <trkpt lat="37.452665995806456" lon="-8.65149199962616">
        <ele>291.42000000000002</ele>
        <time>2025-05-06T13:34:57Z</time>
      </trkpt>
      <trkpt lat="37.452507996931672" lon="-8.651370964944363">
        <ele>291.42000000000002</ele>
        <time>2025-05-06T13:34:58Z</time>
      </trkpt>
      <trkpt lat="37.450864976271987" lon="-8.650378966704011">
        <ele>291.42000000000002</ele>
        <time>2025-05-06T13:35:07Z</time>
      </trkpt>
      <trkpt lat="37.450476977974176" lon="-8.650134969502688">
        <ele>291.89999999999998</ele>
        <time>2025-05-06T13:35:09Z</time>
      </trkpt>
      <trkpt lat="37.450291989371181" lon="-8.650017958134413">
        <ele>291.89999999999998</ele>
        <time>2025-05-06T13:35:10Z</time>
      </trkpt>
      <trkpt lat="37.449717996641994" lon="-8.649657033383846">
        <ele>291.89999999999998</ele>
        <time>2025-05-06T13:35:13Z</time>
      </trkpt>
      <trkpt lat="37.448210008442402" lon="-8.649153029546142">
        <ele>295.74000000000001</ele>
        <time>2025-05-06T13:35:21Z</time>
      </trkpt>
      <trkpt lat="37.447209963575006" lon="-8.648906014859676">
        <ele>299.58999999999997</ele>
        <time>2025-05-06T13:35:27Z</time>
      </trkpt>
      <trkpt lat="37.447078032419086" lon="-8.648839965462685">
        <ele>300.06999999999999</ele>
        <time>2025-05-06T13:35:28Z</time>
      </trkpt>
      <trkpt lat="37.446980969980359" lon="-8.648756984621286">
        <ele>300.55000000000001</ele>
        <time>2025-05-06T13:35:29Z</time>
      </trkpt>
      <trkpt lat="37.446888014674187" lon="-8.648642990738154">
        <ele>301.02999999999997</ele>
        <time>2025-05-06T13:35:30Z</time>
      </trkpt>
      <trkpt lat="37.446806039661169" lon="-8.648497983813286">
        <ele>301.02999999999997</ele>
        <time>2025-05-06T13:35:31Z</time>
      </trkpt>
      <trkpt lat="37.446736972779036" lon="-8.648307966068387">
        <ele>301.50999999999999</ele>
        <time>2025-05-06T13:35:32Z</time>
      </trkpt>
      <trkpt lat="37.446088967844844" lon="-8.646555980667472">
        <ele>300.06999999999999</ele>
        <time>2025-05-06T13:35:40Z</time>
      </trkpt>
      <trkpt lat="37.446007998660207" lon="-8.646374009549618">
        <ele>299.58999999999997</ele>
        <time>2025-05-06T13:35:41Z</time>
      </trkpt>
      <trkpt lat="37.445903979241848" lon="-8.646239982917905">
        <ele>299.11000000000001</ele>
        <time>2025-05-06T13:35:42Z</time>
      </trkpt>
      <trkpt lat="37.445774981752038" lon="-8.646126994863153">
        <ele>299.11000000000001</ele>
        <time>2025-05-06T13:35:43Z</time>
      </trkpt>
      <trkpt lat="37.445641960948706" lon="-8.646008977666497">
        <ele>299.11000000000001</ele>
        <time>2025-05-06T13:35:44Z</time>
      </trkpt>
      <trkpt lat="37.445485973730683" lon="-8.645930020138621">
        <ele>298.63</ele>
        <time>2025-05-06T13:35:45Z</time>
      </trkpt>
      <trkpt lat="37.443788973614573" lon="-8.645213032141328">
        <ele>299.11000000000001</ele>
        <time>2025-05-06T13:35:54Z</time>
      </trkpt>
      <trkpt lat="37.441575983539224" lon="-8.644288005307317">
        <ele>304.38999999999999</ele>
        <time>2025-05-06T13:36:05Z</time>
      </trkpt>
      <trkpt lat="37.441071979701519" lon="-8.644077032804489">
        <ele>305.36000000000001</ele>
        <time>2025-05-06T13:36:08Z</time>
      </trkpt>
      <trkpt lat="37.440925966948271" lon="-8.64403897896409">
        <ele>305.83999999999997</ele>
        <time>2025-05-06T13:36:09Z</time>
      </trkpt>
      <trkpt lat="37.440775008872151" lon="-8.644012995064259">
        <ele>305.83999999999997</ele>
        <time>2025-05-06T13:36:10Z</time>
      </trkpt>
      <trkpt lat="37.440634025260806" lon="-8.644030010327697">
        <ele>305.83999999999997</ele>
        <time>2025-05-06T13:36:11Z</time>
      </trkpt>
      <trkpt lat="37.440493041649461" lon="-8.64410100504756">
        <ele>306.31999999999999</ele>
        <time>2025-05-06T13:36:12Z</time>
      </trkpt>
      <trkpt lat="37.440354991704226" lon="-8.644175017252564">
        <ele>306.31999999999999</ele>
        <time>2025-05-06T13:36:13Z</time>
      </trkpt>
      <trkpt lat="37.440205039456487" lon="-8.644288005307317">
        <ele>306.31999999999999</ele>
        <time>2025-05-06T13:36:14Z</time>
      </trkpt>
      <trkpt lat="37.44010697118938" lon="-8.644418008625507">
        <ele>306.31999999999999</ele>
        <time>2025-05-06T13:36:15Z</time>
      </trkpt>
      <trkpt lat="37.440012004226446" lon="-8.644544994458556">
        <ele>306.31999999999999</ele>
        <time>2025-05-06T13:36:16Z</time>
      </trkpt>
      <trkpt lat="37.439951989799738" lon="-8.644717996940017">
        <ele>306.31999999999999</ele>
        <time>2025-05-06T13:36:17Z</time>
      </trkpt>
      <trkpt lat="37.439899016171694" lon="-8.644871972501278">
        <ele>306.31999999999999</ele>
        <time>2025-05-06T13:36:18Z</time>
      </trkpt>
      <trkpt lat="37.439847970381379" lon="-8.645018991082907">
        <ele>305.83999999999997</ele>
        <time>2025-05-06T13:36:19Z</time>
      </trkpt>
      <trkpt lat="37.439815029501915" lon="-8.645177995786071">
        <ele>305.83999999999997</ele>
        <time>2025-05-06T13:36:20Z</time>
      </trkpt>
      <trkpt lat="37.43980597704649" lon="-8.64532602019608">
        <ele>305.36000000000001</ele>
        <time>2025-05-06T13:36:21Z</time>
      </trkpt>
      <trkpt lat="37.439799020066857" lon="-8.64545501768589">
        <ele>305.36000000000001</ele>
        <time>2025-05-06T13:36:22Z</time>
      </trkpt>
      <trkpt lat="37.43993598036468" lon="-8.64642002619803">
        <ele>302.94999999999999</ele>
        <time>2025-05-06T13:36:31Z</time>
      </trkpt>
      <trkpt lat="37.440251978114247" lon="-8.648257004097104">
        <ele>299.58999999999997</ele>
        <time>2025-05-06T13:36:44Z</time>
      </trkpt>
      <trkpt lat="37.44055699557066" lon="-8.650034973397851">
        <ele>294.30000000000001</ele>
        <time>2025-05-06T13:36:55Z</time>
      </trkpt>
      <trkpt lat="37.440956979990005" lon="-8.652494978159666">
        <ele>290.94</ele>
        <time>2025-05-06T13:37:07Z</time>
      </trkpt>
      <trkpt lat="37.441195026040077" lon="-8.654130036011338">
        <ele>289.49000000000001</ele>
        <time>2025-05-06T13:37:15Z</time>
      </trkpt>
      <trkpt lat="37.441255962476134" lon="-8.655530987307429">
        <ele>288.52999999999997</ele>
        <time>2025-05-06T13:37:23Z</time>
      </trkpt>
      <trkpt lat="37.441111039370298" lon="-8.656427012756467">
        <ele>286.61000000000001</ele>
        <time>2025-05-06T13:37:31Z</time>
      </trkpt>
      <trkpt lat="37.440994028002024" lon="-8.656850969418883">
        <ele>285.64999999999998</ele>
        <time>2025-05-06T13:37:34Z</time>
      </trkpt>
      <trkpt lat="37.440953040495515" lon="-8.656992958858609">
        <ele>285.17000000000002</ele>
        <time>2025-05-06T13:37:35Z</time>
      </trkpt>
      <trkpt lat="37.440891014412045" lon="-8.657103013247252">
        <ele>285.17000000000002</ele>
        <time>2025-05-06T13:37:36Z</time>
      </trkpt>
      <trkpt lat="37.440807027742267" lon="-8.657194962725043">
        <ele>285.17000000000002</ele>
        <time>2025-05-06T13:37:37Z</time>
      </trkpt>
      <trkpt lat="37.440724968910217" lon="-8.657284984365106">
        <ele>285.17000000000002</ele>
        <time>2025-05-06T13:37:38Z</time>
      </trkpt>
      <trkpt lat="37.440623966977" lon="-8.657331001013517">
        <ele>285.17000000000002</ele>
        <time>2025-05-06T13:37:39Z</time>
      </trkpt>
      <trkpt lat="37.440507961437106" lon="-8.657380035147071">
        <ele>285.17000000000002</ele>
        <time>2025-05-06T13:37:40Z</time>
      </trkpt>
      <trkpt lat="37.440387010574341" lon="-8.657430997118354">
        <ele>285.17000000000002</ele>
        <time>2025-05-06T13:37:41Z</time>
      </trkpt>
      <trkpt lat="37.440262036398053" lon="-8.657472990453243">
        <ele>284.69</ele>
        <time>2025-05-06T13:37:42Z</time>
      </trkpt>
      <trkpt lat="37.438956974074244" lon="-8.657726962119341">
        <ele>283.25</ele>
        <time>2025-05-06T13:37:50Z</time>
      </trkpt>
      <trkpt lat="37.437388971447945" lon="-8.658034997060895">
        <ele>282.27999999999997</ele>
        <time>2025-05-06T13:37:57Z</time>
      </trkpt>
      <trkpt lat="37.436521025374532" lon="-8.658115966245532">
        <ele>284.69</ele>
        <time>2025-05-06T13:38:01Z</time>
      </trkpt>
      <trkpt lat="37.436331007629633" lon="-8.658117977902293">
        <ele>285.17000000000002</ele>
        <time>2025-05-06T13:38:02Z</time>
      </trkpt>
      <trkpt lat="37.436139984056354" lon="-8.658063998445869">
        <ele>286.13</ele>
        <time>2025-05-06T13:38:03Z</time>
      </trkpt>
      <trkpt lat="37.435952983796597" lon="-8.657995015382767">
        <ele>286.61000000000001</ele>
        <time>2025-05-06T13:38:04Z</time>
      </trkpt>
      <trkpt lat="37.43576698936522" lon="-8.657914968207479">
        <ele>287.56999999999999</ele>
        <time>2025-05-06T13:38:05Z</time>
      </trkpt>
      <trkpt lat="37.435577977448702" lon="-8.6578309815377">
        <ele>288.05000000000001</ele>
        <time>2025-05-06T13:38:06Z</time>
      </trkpt>
      <trkpt lat="37.43370302952826" lon="-8.656739993020892">
        <ele>289.49000000000001</ele>
        <time>2025-05-06T13:38:16Z</time>
      </trkpt>
      <trkpt lat="37.433043960481882" lon="-8.656454002484679">
        <ele>287.56999999999999</ele>
        <time>2025-05-06T13:38:22Z</time>
      </trkpt>
      <trkpt lat="37.432745983824134" lon="-8.65639298222959">
        <ele>285.64999999999998</ele>
        <time>2025-05-06T13:38:26Z</time>
      </trkpt>
      <trkpt lat="37.43269301019609" lon="-8.656382001936436">
        <ele>285.17000000000002</ele>
        <time>2025-05-06T13:38:27Z</time>
      </trkpt>
      <trkpt lat="37.432642970234156" lon="-8.656371021643281">
        <ele>284.69</ele>
        <time>2025-05-06T13:38:28Z</time>
      </trkpt>
      <trkpt lat="37.432488994672894" lon="-8.656360041350126">
        <ele>282.27999999999997</ele>
        <time>2025-05-06T13:38:36Z</time>
      </trkpt>
      <trkpt lat="37.432422023266554" lon="-8.656356018036604">
        <ele>280.83999999999997</ele>
        <time>2025-05-06T13:39:29Z</time>
      </trkpt>
      <trkpt lat="37.431956995278597" lon="-8.656328022480011">
        <ele>279.39999999999998</ele>
        <time>2025-05-06T13:39:34Z</time>
      </trkpt>
      <trkpt lat="37.431194996461272" lon="-8.656294997781515">
        <ele>277.95999999999998</ele>
        <time>2025-05-06T13:39:38Z</time>
      </trkpt>
      <trkpt lat="37.42936497554183" lon="-8.65624001249671">
        <ele>283.25</ele>
        <time>2025-05-06T13:39:46Z</time>
      </trkpt>
      <trkpt lat="37.428117999807" lon="-8.656302960589528">
        <ele>293.33999999999997</ele>
        <time>2025-05-06T13:39:51Z</time>
      </trkpt>
      <trkpt lat="37.427952960133553" lon="-8.656346965581179">
        <ele>294.77999999999997</ele>
        <time>2025-05-06T13:39:52Z</time>
      </trkpt>
      <trkpt lat="37.427779035642743" lon="-8.65647898055613">
        <ele>296.22000000000003</ele>
        <time>2025-05-06T13:39:53Z</time>
      </trkpt>
      <trkpt lat="37.427605027332902" lon="-8.656612001359463">
        <ele>297.18000000000001</ele>
        <time>2025-05-06T13:39:54Z</time>
      </trkpt>
      <trkpt lat="37.427454991266131" lon="-8.656760025769472">
        <ele>297.67000000000002</ele>
        <time>2025-05-06T13:39:55Z</time>
      </trkpt>
      <trkpt lat="37.427328005433083" lon="-8.65694803185761">
        <ele>297.67000000000002</ele>
        <time>2025-05-06T13:39:56Z</time>
      </trkpt>
      <trkpt lat="37.42719498462975" lon="-8.65714400075376">
        <ele>297.18000000000001</ele>
        <time>2025-05-06T13:39:57Z</time>
      </trkpt>
      <trkpt lat="37.427051989361644" lon="-8.657354973256588">
        <ele>296.69999999999999</ele>
        <time>2025-05-06T13:39:58Z</time>
      </trkpt>
      <trkpt lat="37.42693698965013" lon="-8.657568041235209">
        <ele>295.74000000000001</ele>
        <time>2025-05-06T13:39:59Z</time>
      </trkpt>
      <trkpt lat="37.425589011982083" lon="-8.660051012411714">
        <ele>279.39999999999998</ele>
        <time>2025-05-06T13:40:10Z</time>
      </trkpt>
      <trkpt lat="37.425326993688941" lon="-8.660463988780975">
        <ele>277.95999999999998</ele>
        <time>2025-05-06T13:40:13Z</time>
      </trkpt>
      <trkpt lat="37.425172012299299" lon="-8.660640008747578">
        <ele>277.95999999999998</ele>
        <time>2025-05-06T13:40:14Z</time>
      </trkpt>
      <trkpt lat="37.425000015646219" lon="-8.660789960995317">
        <ele>277.95999999999998</ele>
        <time>2025-05-06T13:40:15Z</time>
      </trkpt>
      <trkpt lat="37.424597013741732" lon="-8.661011997610331">
        <ele>278.44</ele>
        <time>2025-05-06T13:40:16Z</time>
      </trkpt>
      <trkpt lat="37.424375982955098" lon="-8.661079974845052">
        <ele>279.39999999999998</ele>
        <time>2025-05-06T13:40:17Z</time>
      </trkpt>
      <trkpt lat="37.424151012673974" lon="-8.661149963736534">
        <ele>279.88</ele>
        <time>2025-05-06T13:40:18Z</time>
      </trkpt>
      <trkpt lat="37.422541016712785" lon="-8.661272004246712">
        <ele>288.05000000000001</ele>
        <time>2025-05-06T13:40:25Z</time>
      </trkpt>
      <trkpt lat="37.42231504060328" lon="-8.6612259875983">
        <ele>289.97000000000003</ele>
        <time>2025-05-06T13:40:26Z</time>
      </trkpt>
      <trkpt lat="37.419798960909247" lon="-8.66055803373456">
        <ele>304.38999999999999</ele>
        <time>2025-05-06T13:40:37Z</time>
      </trkpt>
      <trkpt lat="37.41917903535068" lon="-8.660445967689157">
        <ele>305.83999999999997</ele>
        <time>2025-05-06T13:40:40Z</time>
      </trkpt>
      <trkpt lat="37.418969990685582" lon="-8.660426018759608">
        <ele>306.31999999999999</ele>
        <time>2025-05-06T13:40:41Z</time>
      </trkpt>
      <trkpt lat="37.418970996513963" lon="-8.660426018759608">
        <ele>306.31999999999999</ele>
        <time>2025-05-06T13:40:42Z</time>
      </trkpt>
      <trkpt lat="37.418774021789432" lon="-8.660463988780975">
        <ele>306.31999999999999</ele>
        <time>2025-05-06T13:40:43Z</time>
      </trkpt>
      <trkpt lat="37.418393986299634" lon="-8.660590974614024">
        <ele>305.83999999999997</ele>
        <time>2025-05-06T13:40:44Z</time>
      </trkpt>
      <trkpt lat="37.418198017403483" lon="-8.660705974325538">
        <ele>305.83999999999997</ele>
        <time>2025-05-06T13:40:45Z</time>
      </trkpt>
      <trkpt lat="37.418198017403483" lon="-8.660705974325538">
        <ele>305.36000000000001</ele>
        <time>2025-05-06T13:40:46Z</time>
      </trkpt>
      <trkpt lat="37.417987966910005" lon="-8.660829020664096">
        <ele>304.88</ele>
        <time>2025-05-06T13:40:47Z</time>
      </trkpt>
      <trkpt lat="37.416235981509089" lon="-8.662222009152174">
        <ele>302.94999999999999</ele>
        <time>2025-05-06T13:40:56Z</time>
      </trkpt>
      <trkpt lat="37.415783023461699" lon="-8.662624005228281">
        <ele>303.91000000000003</ele>
        <time>2025-05-06T13:40:59Z</time>
      </trkpt>
      <trkpt lat="37.415644973516464" lon="-8.662745961919427">
        <ele>303.91000000000003</ele>
        <time>2025-05-06T13:41:00Z</time>
      </trkpt>
      <trkpt lat="37.415509019047022" lon="-8.662878982722759">
        <ele>303.91000000000003</ele>
        <time>2025-05-06T13:41:01Z</time>
      </trkpt>
      <trkpt lat="37.41539997048676" lon="-8.663047039881349">
        <ele>303.91000000000003</ele>
        <time>2025-05-06T13:41:02Z</time>
      </trkpt>
      <trkpt lat="37.415295029059052" lon="-8.663207972422242">
        <ele>303.43000000000001</ele>
        <time>2025-05-06T13:41:03Z</time>
      </trkpt>
      <trkpt lat="37.415148010477424" lon="-8.663542997092009">
        <ele>302.47000000000003</ele>
        <time>2025-05-06T13:41:04Z</time>
      </trkpt>
      <trkpt lat="37.415084978565574" lon="-8.663706025108695">
        <ele>301.50999999999999</ele>
        <time>2025-05-06T13:41:05Z</time>
      </trkpt>
      <trkpt lat="37.415026975795627" lon="-8.66386704146862">
        <ele>300.55000000000001</ele>
        <time>2025-05-06T13:41:06Z</time>
      </trkpt>
      <trkpt lat="37.414984982460737" lon="-8.664035014808178">
        <ele>299.58999999999997</ele>
        <time>2025-05-06T13:41:07Z</time>
      </trkpt>
      <trkpt lat="37.414692034944892" lon="-8.665487011894584">
        <ele>290.94</ele>
        <time>2025-05-06T13:41:16Z</time>
      </trkpt>
      <trkpt lat="37.414692034944892" lon="-8.665690021589398">
        <ele>290.45999999999998</ele>
        <time>2025-05-06T13:41:17Z</time>
      </trkpt>
      <trkpt lat="37.414692034944892" lon="-8.665905017405748">
        <ele>289.97000000000003</ele>
        <time>2025-05-06T13:41:18Z</time>
      </trkpt>
      <trkpt lat="37.414692034944892" lon="-8.666126970201731">
        <ele>289.97000000000003</ele>
        <time>2025-05-06T13:41:19Z</time>
      </trkpt>
      <trkpt lat="37.41477400995791" lon="-8.666351018473506">
        <ele>289.97000000000003</ele>
        <time>2025-05-06T13:41:20Z</time>
      </trkpt>
      <trkpt lat="37.414855984970927" lon="-8.666568025946617">
        <ele>289.97000000000003</ele>
        <time>2025-05-06T13:41:21Z</time>
      </trkpt>
      <trkpt lat="37.414966961368918" lon="-8.666777992621064">
        <ele>289.97000000000003</ele>
        <time>2025-05-06T13:41:22Z</time>
      </trkpt>
      <trkpt lat="37.416076976805925" lon="-8.668601978570223">
        <ele>294.30000000000001</ele>
        <time>2025-05-06T13:41:31Z</time>
      </trkpt>
      <trkpt lat="37.416654992848635" lon="-8.670160006731749">
        <ele>291.42000000000002</ele>
        <time>2025-05-06T13:41:38Z</time>
      </trkpt>
      <trkpt lat="37.417132006958127" lon="-8.671446964144707">
        <ele>289.00999999999999</ele>
        <time>2025-05-06T13:41:43Z</time>
      </trkpt>
      <trkpt lat="37.417132006958127" lon="-8.671446964144707">
        <ele>288.05000000000001</ele>
        <time>2025-05-06T13:41:44Z</time>
      </trkpt>
      <trkpt lat="37.417250024154782" lon="-8.671603035181761">
        <ele>287.56999999999999</ele>
        <time>2025-05-06T13:41:45Z</time>
      </trkpt>
      <trkpt lat="37.417383966967463" lon="-8.671727003529668">
        <ele>287.56999999999999</ele>
        <time>2025-05-06T13:41:46Z</time>
      </trkpt>
      <trkpt lat="37.41752402856946" lon="-8.671843009069562">
        <ele>287.08999999999997</ele>
        <time>2025-05-06T13:41:47Z</time>
      </trkpt>
      <trkpt lat="37.418269012123346" lon="-8.672406021505594">
        <ele>286.13</ele>
        <time>2025-05-06T13:41:52Z</time>
      </trkpt>
      <trkpt lat="37.418494988232851" lon="-8.672708021476865">
        <ele>285.64999999999998</ele>
        <time>2025-05-06T13:41:53Z</time>
      </trkpt>
      <trkpt lat="37.418593978509307" lon="-8.672888986766338">
        <ele>285.64999999999998</ele>
        <time>2025-05-06T13:41:54Z</time>
      </trkpt>
      <trkpt lat="37.418695986270905" lon="-8.673072969540954">
        <ele>285.17000000000002</ele>
        <time>2025-05-06T13:41:55Z</time>
      </trkpt>
      <trkpt lat="37.418695986270905" lon="-8.673072969540954">
        <ele>284.69</ele>
        <time>2025-05-06T13:41:56Z</time>
      </trkpt>
      <trkpt lat="37.418766980990767" lon="-8.67327799089253">
        <ele>284.20999999999998</ele>
        <time>2025-05-06T13:41:57Z</time>
      </trkpt>
      <trkpt lat="37.418824983760715" lon="-8.673489969223738">
        <ele>283.73000000000002</ele>
        <time>2025-05-06T13:41:58Z</time>
      </trkpt>
      <trkpt lat="37.418876029551029" lon="-8.673924989998341">
        <ele>283.73000000000002</ele>
        <time>2025-05-06T13:41:59Z</time>
      </trkpt>
      <trkpt lat="37.418876029551029" lon="-8.673924989998341">
        <ele>283.25</ele>
        <time>2025-05-06T13:42:00Z</time>
      </trkpt>
      <trkpt lat="37.41887703537941" lon="-8.675552001222968">
        <ele>276.51999999999998</ele>
        <time>2025-05-06T13:42:07Z</time>
      </trkpt>
      <trkpt lat="37.418863959610462" lon="-8.67577102035284">
        <ele>275.56</ele>
        <time>2025-05-06T13:42:08Z</time>
      </trkpt>
      <trkpt lat="37.418768992647529" lon="-8.676151977851987">
        <ele>274.11000000000001</ele>
        <time>2025-05-06T13:42:09Z</time>
      </trkpt>
      <trkpt lat="37.418768992647529" lon="-8.676151977851987">
        <ele>273.14999999999998</ele>
        <time>2025-05-06T13:42:10Z</time>
      </trkpt>
      <trkpt lat="37.418699003756046" lon="-8.676326991990209">
        <ele>272.19</ele>
        <time>2025-05-06T13:42:11Z</time>
      </trkpt>
      <trkpt lat="37.418627003207803" lon="-8.676485996693373">
        <ele>270.75</ele>
        <time>2025-05-06T13:42:12Z</time>
      </trkpt>
      <trkpt lat="37.418498005717993" lon="-8.676602002233267">
        <ele>269.79000000000002</ele>
        <time>2025-05-06T13:42:13Z</time>
      </trkpt>
      <trkpt lat="37.418351992964745" lon="-8.676703004166484">
        <ele>269.31</ele>
        <time>2025-05-06T13:42:14Z</time>
      </trkpt>
      <trkpt lat="37.418184019625187" lon="-8.67678296752274">
        <ele>268.35000000000002</ele>
        <time>2025-05-06T13:42:15Z</time>
      </trkpt>
      <trkpt lat="37.41700803861022" lon="-8.677272973582149">
        <ele>270.75</ele>
        <time>2025-05-06T13:42:22Z</time>
      </trkpt>
      <trkpt lat="37.416893960908055" lon="-8.677354026585817">
        <ele>271.23000000000002</ele>
        <time>2025-05-06T13:42:23Z</time>
      </trkpt>
      <trkpt lat="37.416789019480348" lon="-8.677449999377132">
        <ele>272.19</ele>
        <time>2025-05-06T13:42:25Z</time>
      </trkpt>
      <trkpt lat="37.416612999513745" lon="-8.677699025720358">
        <ele>272.67000000000002</ele>
        <time>2025-05-06T13:42:26Z</time>
      </trkpt>
      <trkpt lat="37.416612999513745" lon="-8.677699025720358">
        <ele>273.14999999999998</ele>
        <time>2025-05-06T13:42:27Z</time>
      </trkpt>
      <trkpt lat="37.416430022567511" lon="-8.67798401042819">
        <ele>273.14999999999998</ele>
        <time>2025-05-06T13:42:28Z</time>
      </trkpt>
      <trkpt lat="37.416430022567511" lon="-8.67798401042819">
        <ele>272.67000000000002</ele>
        <time>2025-05-06T13:42:29Z</time>
      </trkpt>
      <trkpt lat="37.416228018701077" lon="-8.678230019286275">
        <ele>272.19</ele>
        <time>2025-05-06T13:42:30Z</time>
      </trkpt>
      <trkpt lat="37.416115030646324" lon="-8.67834996432066">
        <ele>271.70999999999998</ele>
        <time>2025-05-06T13:42:31Z</time>
      </trkpt>
      <trkpt lat="37.416115030646324" lon="-8.67834996432066">
        <ele>271.23000000000002</ele>
        <time>2025-05-06T13:42:32Z</time>
      </trkpt>
      <trkpt lat="37.415724014863372" lon="-8.67864903062582">
        <ele>267.38</ele>
        <time>2025-05-06T13:42:35Z</time>
      </trkpt>
      <trkpt lat="37.415585964918137" lon="-8.67871499620378">
        <ele>265.94</ele>
        <time>2025-05-06T13:42:36Z</time>
      </trkpt>
      <trkpt lat="37.415327969938517" lon="-8.678809963166714">
        <ele>264.5</ele>
        <time>2025-05-06T13:42:37Z</time>
      </trkpt>
      <trkpt lat="37.415327969938517" lon="-8.678809963166714">
        <ele>262.57999999999998</ele>
        <time>2025-05-06T13:42:38Z</time>
      </trkpt>
      <trkpt lat="37.415191009640694" lon="-8.678803006187081">
        <ele>261.13999999999999</ele>
        <time>2025-05-06T13:42:39Z</time>
      </trkpt>
      <trkpt lat="37.414935026317835" lon="-8.678770987316966">
        <ele>259.20999999999998</ele>
        <time>2025-05-06T13:42:40Z</time>
      </trkpt>
      <trkpt lat="37.414814997464418" lon="-8.678725976496935">
        <ele>257.76999999999998</ele>
        <time>2025-05-06T13:42:41Z</time>
      </trkpt>
      <trkpt lat="37.414814997464418" lon="-8.678725976496935">
        <ele>256.32999999999998</ele>
        <time>2025-05-06T13:42:42Z</time>
      </trkpt>
      <trkpt lat="37.414583992213011" lon="-8.678640983998776">
        <ele>253.44</ele>
        <time>2025-05-06T13:42:44Z</time>
      </trkpt>
      <trkpt lat="37.41447301581502" lon="-8.678598990663886">
        <ele>251.52000000000001</ele>
        <time>2025-05-06T13:42:45Z</time>
      </trkpt>
      <trkpt lat="37.414351981133223" lon="-8.678582981228828">
        <ele>250.08000000000001</ele>
        <time>2025-05-06T13:42:46Z</time>
      </trkpt>
      <trkpt lat="37.414090968668461" lon="-8.678654981777072">
        <ele>248.63999999999999</ele>
        <time>2025-05-06T13:42:47Z</time>
      </trkpt>
      <trkpt lat="37.413956020027399" lon="-8.678726982325316">
        <ele>246.72</ele>
        <time>2025-05-06T13:42:48Z</time>
      </trkpt>
      <trkpt lat="37.413817970082164" lon="-8.67879998870194">
        <ele>245.27000000000001</ele>
        <time>2025-05-06T13:42:49Z</time>
      </trkpt>
      <trkpt lat="37.413012972101569" lon="-8.67927398532629">
        <ele>232.78</ele>
        <time>2025-05-06T13:42:56Z</time>
      </trkpt>
      <trkpt lat="37.412896966561675" lon="-8.679298963397741">
        <ele>230.84999999999999</ele>
        <time>2025-05-06T13:42:57Z</time>
      </trkpt>
      <trkpt lat="37.412792025133967" lon="-8.679321007803083">
        <ele>229.41</ele>
        <time>2025-05-06T13:42:58Z</time>
      </trkpt>
      <trkpt lat="37.412705020979047" lon="-8.679321007803083">
        <ele>227.97</ele>
        <time>2025-05-06T13:42:59Z</time>
      </trkpt>
      <trkpt lat="37.412631008774042" lon="-8.679312039166689">
        <ele>226.05000000000001</ele>
        <time>2025-05-06T13:43:00Z</time>
      </trkpt>
      <trkpt lat="37.41256202571094" lon="-8.679302986711264">
        <ele>224.61000000000001</ele>
        <time>2025-05-06T13:43:01Z</time>
      </trkpt>
      <trkpt lat="37.412482984364033" lon="-8.67929401807487">
        <ele>223.16</ele>
        <time>2025-05-06T13:43:02Z</time>
      </trkpt>
      <trkpt lat="37.412262037396431" lon="-8.679252024739981">
        <ele>217.88</ele>
        <time>2025-05-06T13:43:05Z</time>
      </trkpt>
      <trkpt lat="37.412194982171059" lon="-8.679238026961684">
        <ele>216.43000000000001</ele>
        <time>2025-05-06T13:43:06Z</time>
      </trkpt>
      <trkpt lat="37.412057016044855" lon="-8.679209025576711">
        <ele>213.06999999999999</ele>
        <time>2025-05-06T13:43:08Z</time>
      </trkpt>
      <trkpt lat="37.411052025854588" lon="-8.678919011726975">
        <ele>196.25</ele>
        <time>2025-05-06T13:43:23Z</time>
      </trkpt>
      <trkpt lat="37.410765029489994" lon="-8.678792025893927">
        <ele>187.59</ele>
        <time>2025-05-06T13:43:33Z</time>
      </trkpt>
      <trkpt lat="37.410361021757126" lon="-8.67860896512866">
        <ele>182.31</ele>
        <time>2025-05-06T13:43:41Z</time>
      </trkpt>
      <trkpt lat="37.410194976255298" lon="-8.678507963195443">
        <ele>178.46000000000001</ele>
        <time>2025-05-06T13:43:50Z</time>
      </trkpt>
      <trkpt lat="37.410194976255298" lon="-8.678507963195443">
        <ele>178.46000000000001</ele>
        <time>2025-05-06T13:44:10Z</time>
      </trkpt>
      <trkpt lat="37.410194976255298" lon="-8.678507963195443">
        <ele>177.97999999999999</ele>
        <time>2025-05-06T13:45:10Z</time>
      </trkpt>
      <trkpt lat="37.410194976255298" lon="-8.678507963195443">
        <ele>177.97999999999999</ele>
        <time>2025-05-06T13:45:57Z</time>
      </trkpt>
      <trkpt lat="37.410011999309063" lon="-8.678396986797452">
        <ele>178.46000000000001</ele>
        <time>2025-05-06T13:46:07Z</time>
      </trkpt>
      <trkpt lat="37.409270033240318" lon="-8.677990967407823">
        <ele>175.09999999999999</ele>
        <time>2025-05-06T13:46:13Z</time>
      </trkpt>
      <trkpt lat="37.408368978649378" lon="-8.677699025720358">
        <ele>169.81</ele>
        <time>2025-05-06T13:46:18Z</time>
      </trkpt>
      <trkpt lat="37.408176027238369" lon="-8.677715035155416">
        <ele>168.37</ele>
        <time>2025-05-06T13:46:19Z</time>
      </trkpt>
      <trkpt lat="37.407648973166943" lon="-8.67776901461184">
        <ele>165.47999999999999</ele>
        <time>2025-05-06T13:46:21Z</time>
      </trkpt>
      <trkpt lat="37.407464990392327" lon="-8.677779994904995">
        <ele>164.03999999999999</ele>
        <time>2025-05-06T13:46:22Z</time>
      </trkpt>
      <trkpt lat="37.406641971319914" lon="-8.677677987143397">
        <ele>156.83000000000001</ele>
        <time>2025-05-06T13:46:27Z</time>
      </trkpt>
      <trkpt lat="37.40639504045248" lon="-8.677563993260264">
        <ele>153.47</ele>
        <time>2025-05-06T13:46:29Z</time>
      </trkpt>
      <trkpt lat="37.406173003837466" lon="-8.677460979670286">
        <ele>150.09999999999999</ele>
        <time>2025-05-06T13:46:31Z</time>
      </trkpt>
      <trkpt lat="37.406046018004417" lon="-8.677448993548751">
        <ele>148.18000000000001</ele>
        <time>2025-05-06T13:46:32Z</time>
      </trkpt>
      <trkpt lat="37.405929006636143" lon="-8.677460979670286">
        <ele>146.25999999999999</ele>
        <time>2025-05-06T13:46:33Z</time>
      </trkpt>
      <trkpt lat="37.405825993046165" lon="-8.677534991875291">
        <ele>144.34</ele>
        <time>2025-05-06T13:46:34Z</time>
      </trkpt>
      <trkpt lat="37.405731026083231" lon="-8.677629036828876">
        <ele>142.88999999999999</ele>
        <time>2025-05-06T13:46:35Z</time>
      </trkpt>
      <trkpt lat="37.405633041635156" lon="-8.677732972428203">
        <ele>141.44999999999999</ele>
        <time>2025-05-06T13:46:36Z</time>
      </trkpt>
      <trkpt lat="37.405530028045177" lon="-8.677843026816845">
        <ele>139.53</ele>
        <time>2025-05-06T13:46:37Z</time>
      </trkpt>
      <trkpt lat="37.405405975878239" lon="-8.677943022921681">
        <ele>138.09</ele>
        <time>2025-05-06T13:46:38Z</time>
      </trkpt>
      <trkpt lat="37.405260968953371" lon="-8.678021980449557">
        <ele>136.63999999999999</ele>
        <time>2025-05-06T13:46:39Z</time>
      </trkpt>
      <trkpt lat="37.405100958421826" lon="-8.678080989047885">
        <ele>134.72</ele>
        <time>2025-05-06T13:46:40Z</time>
      </trkpt>
      <trkpt lat="37.404928961768746" lon="-8.678119964897633">
        <ele>132.80000000000001</ele>
        <time>2025-05-06T13:46:41Z</time>
      </trkpt>
      <trkpt lat="37.404746990650892" lon="-8.678161958232522">
        <ele>130.88</ele>
        <time>2025-05-06T13:46:42Z</time>
      </trkpt>
      <trkpt lat="37.404037965461612" lon="-8.678406039252877">
        <ele>122.70999999999999</ele>
        <time>2025-05-06T13:46:46Z</time>
      </trkpt>
      <trkpt lat="37.403874015435576" lon="-8.678492037579417">
        <ele>120.78</ele>
        <time>2025-05-06T13:46:47Z</time>
      </trkpt>
      <trkpt lat="37.403545025736094" lon="-8.678665040060878">
        <ele>116.45999999999999</ele>
        <time>2025-05-06T13:46:49Z</time>
      </trkpt>
      <trkpt lat="37.403385015204549" lon="-8.678733017295599">
        <ele>114.53</ele>
        <time>2025-05-06T13:46:50Z</time>
      </trkpt>
      <trkpt lat="37.40321796387434" lon="-8.678754977881908">
        <ele>112.13</ele>
        <time>2025-05-06T13:46:51Z</time>
      </trkpt>
      <trkpt lat="37.402568031102419" lon="-8.678891016170383">
        <ele>104.44</ele>
        <time>2025-05-06T13:46:55Z</time>
      </trkpt>
      <trkpt lat="37.402431992813945" lon="-8.679002998396754">
        <ele>102.52</ele>
        <time>2025-05-06T13:46:56Z</time>
      </trkpt>
      <trkpt lat="37.402299977838993" lon="-8.679134007543325">
        <ele>100.59999999999999</ele>
        <time>2025-05-06T13:46:57Z</time>
      </trkpt>
      <trkpt lat="37.402173997834325" lon="-8.679296029731631">
        <ele>98.189999999999998</ele>
        <time>2025-05-06T13:46:58Z</time>
      </trkpt>
      <trkpt lat="37.402046006172895" lon="-8.679460985586047">
        <ele>95.310000000000002</ele>
        <time>2025-05-06T13:46:59Z</time>
      </trkpt>
      <trkpt lat="37.401918014511466" lon="-8.679627031087875">
        <ele>92.420000000000002</ele>
        <time>2025-05-06T13:47:00Z</time>
      </trkpt>
      <trkpt lat="37.401787005364895" lon="-8.679775977507234">
        <ele>90.019999999999996</ele>
        <time>2025-05-06T13:47:01Z</time>
      </trkpt>
      <trkpt lat="37.401635041460395" lon="-8.67987203411758">
        <ele>88.099999999999994</ele>
        <time>2025-05-06T13:47:02Z</time>
      </trkpt>
      <trkpt lat="37.401483999565244" lon="-8.679968006908894">
        <ele>85.689999999999998</ele>
        <time>2025-05-06T13:47:03Z</time>
      </trkpt>
      <trkpt lat="37.401315020397305" lon="-8.680029027163982">
        <ele>83.769999999999996</ele>
        <time>2025-05-06T13:47:04Z</time>
      </trkpt>
      <trkpt lat="37.401131959632039" lon="-8.680058028548956">
        <ele>81.849999999999994</ele>
        <time>2025-05-06T13:47:05Z</time>
      </trkpt>
      <trkpt lat="37.400944037362933" lon="-8.680087029933929">
        <ele>79.930000000000007</ele>
        <time>2025-05-06T13:47:06Z</time>
      </trkpt>
      <trkpt lat="37.399200014770031" lon="-8.680243017151952">
        <ele>62.140000000000001</ele>
        <time>2025-05-06T13:47:16Z</time>
      </trkpt>
      <trkpt lat="37.398731969296932" lon="-8.680215021595359">
        <ele>59.259999999999998</ele>
        <time>2025-05-06T13:47:18Z</time>
      </trkpt>
      <trkpt lat="37.398615041747689" lon="-8.680160958319902">
        <ele>57.82</ele>
        <time>2025-05-06T13:47:19Z</time>
      </trkpt>
      <trkpt lat="37.39851001650095" lon="-8.68006699718535">
        <ele>56.369999999999997</ele>
        <time>2025-05-06T13:47:20Z</time>
      </trkpt>
      <trkpt lat="37.398402979597449" lon="-8.67996197193861">
        <ele>55.409999999999997</ele>
        <time>2025-05-06T13:47:21Z</time>
      </trkpt>
      <trkpt lat="37.398304995149374" lon="-8.679833980277181">
        <ele>54.450000000000003</ele>
        <time>2025-05-06T13:47:22Z</time>
      </trkpt>
      <trkpt lat="37.39821002818644" lon="-8.679709006100893">
        <ele>53.490000000000002</ele>
        <time>2025-05-06T13:47:23Z</time>
      </trkpt>
      <trkpt lat="37.397838039323688" lon="-8.679232997819781">
        <ele>50.609999999999999</ele>
        <time>2025-05-06T13:47:28Z</time>
      </trkpt>
      <trkpt lat="37.397810965776443" lon="-8.679076004773378">
        <ele>49.649999999999999</ele>
        <time>2025-05-06T13:47:30Z</time>
      </trkpt>
      <trkpt lat="37.397854970768094" lon="-8.679023031145334">
        <ele>49.649999999999999</ele>
        <time>2025-05-06T13:47:31Z</time>
      </trkpt>
      <trkpt lat="37.397915991023183" lon="-8.67895002476871">
        <ele>49.159999999999997</ele>
        <time>2025-05-06T13:47:32Z</time>
      </trkpt>
      <trkpt lat="37.397998971864581" lon="-8.678850028663874">
        <ele>49.159999999999997</ele>
        <time>2025-05-06T13:47:33Z</time>
      </trkpt>
      <trkpt lat="37.398097962141037" lon="-8.678732011467218">
        <ele>49.159999999999997</ele>
        <time>2025-05-06T13:47:34Z</time>
      </trkpt>
      <trkpt lat="37.398883011192083" lon="-8.67781100794673">
        <ele>56.369999999999997</ele>
        <time>2025-05-06T13:47:41Z</time>
      </trkpt>
      <trkpt lat="37.399133965373039" lon="-8.67744698189199">
        <ele>59.259999999999998</ele>
        <time>2025-05-06T13:47:43Z</time>
      </trkpt>
      <trkpt lat="37.399256005883217" lon="-8.677259981632233">
        <ele>60.700000000000003</ele>
        <time>2025-05-06T13:47:44Z</time>
      </trkpt>
      <trkpt lat="37.399346027523279" lon="-8.67705998942256">
        <ele>62.619999999999997</ele>
        <time>2025-05-06T13:47:45Z</time>
      </trkpt>
      <trkpt lat="37.399416016414762" lon="-8.676902996376157">
        <ele>63.579999999999998</ele>
        <time>2025-05-06T13:47:46Z</time>
      </trkpt>
      <trkpt lat="37.399426996707916" lon="-8.67678296752274">
        <ele>64.549999999999997</ele>
        <time>2025-05-06T13:47:47Z</time>
      </trkpt>
      <trkpt lat="37.399414004758" lon="-8.676666961982846">
        <ele>65.510000000000005</ele>
        <time>2025-05-06T13:47:48Z</time>
      </trkpt>
      <trkpt lat="37.399379974231124" lon="-8.676598984748125">
        <ele>66.469999999999999</ele>
        <time>2025-05-06T13:47:49Z</time>
      </trkpt>
      <trkpt lat="37.399324988946319" lon="-8.676490020006895">
        <ele>66.950000000000003</ele>
        <time>2025-05-06T13:47:50Z</time>
      </trkpt>
      <trkpt lat="37.399257011711597" lon="-8.676363034173846">
        <ele>67.909999999999997</ele>
        <time>2025-05-06T13:47:51Z</time>
      </trkpt>
      <trkpt lat="37.398711014539003" lon="-8.675298029556871">
        <ele>74.640000000000001</ele>
        <time>2025-05-06T13:47:57Z</time>
      </trkpt>
      <trkpt lat="37.398648988455534" lon="-8.675098959356546">
        <ele>75.599999999999994</ele>
        <time>2025-05-06T13:47:58Z</time>
      </trkpt>
      <trkpt lat="37.398499958217144" lon="-8.674537958577275">
        <ele>76.560000000000002</ele>
        <time>2025-05-06T13:48:01Z</time>
      </trkpt>
      <trkpt lat="37.398433992639184" lon="-8.674368979409337">
        <ele>76.560000000000002</ele>
        <time>2025-05-06T13:48:02Z</time>
      </trkpt>
      <trkpt lat="37.398366015404463" lon="-8.674212992191315">
        <ele>76.560000000000002</ele>
        <time>2025-05-06T13:48:03Z</time>
      </trkpt>
      <trkpt lat="37.398273982107639" lon="-8.674101009964943">
        <ele>76.079999999999998</ele>
        <time>2025-05-06T13:48:04Z</time>
      </trkpt>
      <trkpt lat="37.39816602319479" lon="-8.674005959182978">
        <ele>75.599999999999994</ele>
        <time>2025-05-06T13:48:05Z</time>
      </trkpt>
      <trkpt lat="37.397953039035201" lon="-8.673805966973305">
        <ele>74.159999999999997</ele>
        <time>2025-05-06T13:48:07Z</time>
      </trkpt>
      <trkpt lat="37.397856982424855" lon="-8.67370898835361">
        <ele>73.680000000000007</ele>
        <time>2025-05-06T13:48:08Z</time>
      </trkpt>
      <trkpt lat="37.397784981876612" lon="-8.673601029440761">
        <ele>73.680000000000007</ele>
        <time>2025-05-06T13:48:09Z</time>
      </trkpt>
      <trkpt lat="37.397770984098315" lon="-8.673472031950951">
        <ele>73.200000000000003</ele>
        <time>2025-05-06T13:48:10Z</time>
      </trkpt>
      <trkpt lat="37.397775007411838" lon="-8.67334496229887">
        <ele>72.719999999999999</ele>
        <time>2025-05-06T13:48:11Z</time>
      </trkpt>
      <trkpt lat="37.39782202988863" lon="-8.673201967030764">
        <ele>72.719999999999999</ele>
        <time>2025-05-06T13:48:12Z</time>
      </trkpt>
      <trkpt lat="37.398141967132688" lon="-8.672009976580739">
        <ele>76.560000000000002</ele>
        <time>2025-05-06T13:48:18Z</time>
      </trkpt>
      <trkpt lat="37.398165017366409" lon="-8.67177302017808">
        <ele>78</ele>
        <time>2025-05-06T13:48:19Z</time>
      </trkpt>
      <trkpt lat="37.39818898960948" lon="-8.67153799161315">
        <ele>78.969999999999999</ele>
        <time>2025-05-06T13:48:20Z</time>
      </trkpt>
      <trkpt lat="37.398174991831183" lon="-8.67130296304822">
        <ele>79.930000000000007</ele>
        <time>2025-05-06T13:48:21Z</time>
      </trkpt>
      <trkpt lat="37.398039037361741" lon="-8.669892959296703">
        <ele>81.849999999999994</ele>
        <time>2025-05-06T13:48:27Z</time>
      </trkpt>
      <trkpt lat="37.398012969642878" lon="-8.66967000067234">
        <ele>81.370000000000005</ele>
        <time>2025-05-06T13:48:28Z</time>
      </trkpt>
      <trkpt lat="37.3980169929564" lon="-8.669451987370849">
        <ele>81.370000000000005</ele>
        <time>2025-05-06T13:48:29Z</time>
      </trkpt>
      <trkpt lat="37.398105002939701" lon="-8.669028030708432">
        <ele>80.890000000000001</ele>
        <time>2025-05-06T13:48:31Z</time>
      </trkpt>
      <trkpt lat="37.398303989320993" lon="-8.668411960825324">
        <ele>79.930000000000007</ele>
        <time>2025-05-06T13:48:34Z</time>
      </trkpt>
      <trkpt lat="37.39838495850563" lon="-8.668240970000625">
        <ele>79.450000000000003</ele>
        <time>2025-05-06T13:48:35Z</time>
      </trkpt>
      <trkpt lat="37.399251982569695" lon="-8.666920987889171">
        <ele>78.969999999999999</ele>
        <time>2025-05-06T13:48:42Z</time>
      </trkpt>
      <trkpt lat="37.399675017222762" lon="-8.666137028485537">
        <ele>79.930000000000007</ele>
        <time>2025-05-06T13:48:46Z</time>
      </trkpt>
      <trkpt lat="37.399753974750638" lon="-8.665968971326947">
        <ele>79.930000000000007</ele>
        <time>2025-05-06T13:48:47Z</time>
      </trkpt>
      <trkpt lat="37.399794040247798" lon="-8.66575799882412">
        <ele>79.930000000000007</ele>
        <time>2025-05-06T13:48:48Z</time>
      </trkpt>
      <trkpt lat="37.399813989177346" lon="-8.665549959987402">
        <ele>80.409999999999997</ele>
        <time>2025-05-06T13:48:49Z</time>
      </trkpt>
      <trkpt lat="37.399822035804391" lon="-8.665336975827813">
        <ele>80.409999999999997</ele>
        <time>2025-05-06T13:48:50Z</time>
      </trkpt>
      <trkpt lat="37.399822035804391" lon="-8.66513597778976">
        <ele>80.890000000000001</ele>
        <time>2025-05-06T13:48:51Z</time>
      </trkpt>
      <trkpt lat="37.399822035804391" lon="-8.664950989186764">
        <ele>80.890000000000001</ele>
        <time>2025-05-06T13:48:52Z</time>
      </trkpt>
      <trkpt lat="37.39978096447885" lon="-8.664738005027175">
        <ele>81.370000000000005</ele>
        <time>2025-05-06T13:48:53Z</time>
      </trkpt>
      <trkpt lat="37.399738971143961" lon="-8.664518985897303">
        <ele>81.849999999999994</ele>
        <time>2025-05-06T13:48:54Z</time>
      </trkpt>
      <trkpt lat="37.399569991976023" lon="-8.663836028426886">
        <ele>82.810000000000002</ele>
        <time>2025-05-06T13:48:57Z</time>
      </trkpt>
      <trkpt lat="37.399496985599399" lon="-8.663621032610536">
        <ele>83.290000000000006</ele>
        <time>2025-05-06T13:48:58Z</time>
      </trkpt>
      <trkpt lat="37.399407969787717" lon="-8.663412993773818">
        <ele>83.290000000000006</ele>
        <time>2025-05-06T13:48:59Z</time>
      </trkpt>
      <trkpt lat="37.399303028360009" lon="-8.663211995735765">
        <ele>83.290000000000006</ele>
        <time>2025-05-06T13:49:00Z</time>
      </trkpt>
      <trkpt lat="37.399171013385057" lon="-8.663028012961149">
        <ele>83.290000000000006</ele>
        <time>2025-05-06T13:49:01Z</time>
      </trkpt>
      <trkpt lat="37.399038998410106" lon="-8.662843024358153">
        <ele>83.290000000000006</ele>
        <time>2025-05-06T13:49:02Z</time>
      </trkpt>
      <trkpt lat="37.398885022848845" lon="-8.66268502548337">
        <ele>82.810000000000002</ele>
        <time>2025-05-06T13:49:03Z</time>
      </trkpt>
      <trkpt lat="37.3987250123173" lon="-8.662525014951825">
        <ele>82.810000000000002</ele>
        <time>2025-05-06T13:49:04Z</time>
      </trkpt>
      <trkpt lat="37.397580966353416" lon="-8.661442995071411">
        <ele>81.370000000000005</ele>
        <time>2025-05-06T13:49:11Z</time>
      </trkpt>
      <trkpt lat="37.397406036034226" lon="-8.661299999803305">
        <ele>80.890000000000001</ele>
        <time>2025-05-06T13:49:12Z</time>
      </trkpt>
      <trkpt lat="37.397250970825553" lon="-8.661129008978605">
        <ele>80.890000000000001</ele>
        <time>2025-05-06T13:49:13Z</time>
      </trkpt>
      <trkpt lat="37.396864984184504" lon="-8.660596003755927">
        <ele>80.890000000000001</ele>
        <time>2025-05-06T13:49:16Z</time>
      </trkpt>
      <trkpt lat="37.396753001958132" lon="-8.660444961860776">
        <ele>80.409999999999997</ele>
        <time>2025-05-06T13:49:17Z</time>
      </trkpt>
      <trkpt lat="37.396625010296702" lon="-8.660300960764289">
        <ele>80.409999999999997</ele>
        <time>2025-05-06T13:49:18Z</time>
      </trkpt>
      <trkpt lat="37.39646902307868" lon="-8.660196019336581">
        <ele>80.409999999999997</ele>
        <time>2025-05-06T13:49:19Z</time>
      </trkpt>
      <trkpt lat="37.396295014768839" lon="-8.660109015181661">
        <ele>79.930000000000007</ele>
        <time>2025-05-06T13:49:20Z</time>
      </trkpt>
      <trkpt lat="37.394725000485778" lon="-8.659305023029447">
        <ele>78</ele>
        <time>2025-05-06T13:49:28Z</time>
      </trkpt>
      <trkpt lat="37.394378995522857" lon="-8.659077035263181">
        <ele>78</ele>
        <time>2025-05-06T13:49:30Z</time>
      </trkpt>
      <trkpt lat="37.394099961966276" lon="-8.658804958686233">
        <ele>78.480000000000004</ele>
        <time>2025-05-06T13:49:32Z</time>
      </trkpt>
      <trkpt lat="37.393811959773302" lon="-8.658241024240851">
        <ele>79.450000000000003</ele>
        <time>2025-05-06T13:49:35Z</time>
      </trkpt>
      <trkpt lat="37.393724033609033" lon="-8.6580899823457">
        <ele>79.930000000000007</ele>
        <time>2025-05-06T13:49:36Z</time>
      </trkpt>
      <trkpt lat="37.393596963956952" lon="-8.658004989847541">
        <ele>79.930000000000007</ele>
        <time>2025-05-06T13:49:37Z</time>
      </trkpt>
      <trkpt lat="37.392930015921593" lon="-8.657672982662916">
        <ele>81.849999999999994</ele>
        <time>2025-05-06T13:49:41Z</time>
      </trkpt>
      <trkpt lat="37.392375972121954" lon="-8.657526969909668">
        <ele>83.769999999999996</ele>
        <time>2025-05-06T13:49:44Z</time>
      </trkpt>
      <trkpt lat="37.392201041802764" lon="-8.657526969909668">
        <ele>84.25</ele>
        <time>2025-05-06T13:49:45Z</time>
      </trkpt>
      <trkpt lat="37.392024016007781" lon="-8.65753099322319">
        <ele>85.209999999999994</ele>
        <time>2025-05-06T13:49:46Z</time>
      </trkpt>
      <trkpt lat="37.391556976363063" lon="-8.657721010968089">
        <ele>88.099999999999994</ele>
        <time>2025-05-06T13:49:49Z</time>
      </trkpt>
      <trkpt lat="37.391432002186775" lon="-8.657763004302979">
        <ele>89.060000000000002</ele>
        <time>2025-05-06T13:49:50Z</time>
      </trkpt>
      <trkpt lat="37.391290012747049" lon="-8.657740959897637">
        <ele>89.540000000000006</ele>
        <time>2025-05-06T13:49:51Z</time>
      </trkpt>
      <trkpt lat="37.391152968630195" lon="-8.657720005139709">
        <ele>90.019999999999996</ele>
        <time>2025-05-06T13:49:52Z</time>
      </trkpt>
      <trkpt lat="37.391046015545726" lon="-8.657630989328027">
        <ele>90.5</ele>
        <time>2025-05-06T13:49:53Z</time>
      </trkpt>
      <trkpt lat="37.390952976420522" lon="-8.65748799405992">
        <ele>90.980000000000004</ele>
        <time>2025-05-06T13:49:54Z</time>
      </trkpt>
      <trkpt lat="37.390851974487305" lon="-8.657311974093318">
        <ele>90.980000000000004</ele>
        <time>2025-05-06T13:49:55Z</time>
      </trkpt>
      <trkpt lat="37.390781985595822" lon="-8.657107958570123">
        <ele>90.980000000000004</ele>
        <time>2025-05-06T13:49:56Z</time>
      </trkpt>
      <trkpt lat="37.39071199670434" lon="-8.65690796636045">
        <ele>90.980000000000004</ele>
        <time>2025-05-06T13:49:57Z</time>
      </trkpt>
      <trkpt lat="37.390645025297999" lon="-8.656722977757454">
        <ele>90.019999999999996</ele>
        <time>2025-05-06T13:49:58Z</time>
      </trkpt>
      <trkpt lat="37.390571013092995" lon="-8.656561961397529">
        <ele>89.540000000000006</ele>
        <time>2025-05-06T13:49:59Z</time>
      </trkpt>
      <trkpt lat="37.390490965917706" lon="-8.65643598139286">
        <ele>88.579999999999998</ele>
        <time>2025-05-06T13:50:00Z</time>
      </trkpt>
      <trkpt lat="37.390395998954773" lon="-8.656374039128423">
        <ele>88.099999999999994</ele>
        <time>2025-05-06T13:50:01Z</time>
      </trkpt>
      <trkpt lat="37.390288962051272" lon="-8.656337996944785">
        <ele>87.140000000000001</ele>
        <time>2025-05-06T13:50:02Z</time>
      </trkpt>
      <trkpt lat="37.390161976218224" lon="-8.656304972246289">
        <ele>86.180000000000007</ele>
        <time>2025-05-06T13:50:03Z</time>
      </trkpt>
      <trkpt lat="37.38875599578023" lon="-8.656325004994869">
        <ele>78</ele>
        <time>2025-05-06T13:50:12Z</time>
      </trkpt>
      <trkpt lat="37.388599002733827" lon="-8.656307989731431">
        <ele>77.519999999999996</ele>
        <time>2025-05-06T13:50:13Z</time>
      </trkpt>
      <trkpt lat="37.38753299228847" lon="-8.655857965350151">
        <ele>73.680000000000007</ele>
        <time>2025-05-06T13:50:20Z</time>
      </trkpt>
      <trkpt lat="37.387405000627041" lon="-8.655797028914094">
        <ele>73.200000000000003</ele>
        <time>2025-05-06T13:50:21Z</time>
      </trkpt>
      <trkpt lat="37.386718019843102" lon="-8.655449012294412">
        <ele>75.120000000000005</ele>
        <time>2025-05-06T13:50:29Z</time>
      </trkpt>
      <trkpt lat="37.386620035395026" lon="-8.655399978160858">
        <ele>75.599999999999994</ele>
        <time>2025-05-06T13:50:31Z</time>
      </trkpt>
      <trkpt lat="37.386562032625079" lon="-8.655370976775885">
        <ele>76.560000000000002</ele>
        <time>2025-05-06T13:50:33Z</time>
      </trkpt>
      <trkpt lat="37.386510986834764" lon="-8.655437026172876">
        <ele>77.040000000000006</ele>
        <time>2025-05-06T13:50:34Z</time>
      </trkpt>
      <trkpt lat="37.386517021805048" lon="-8.655483964830637">
        <ele>77.519999999999996</ele>
        <time>2025-05-06T13:50:35Z</time>
      </trkpt>
      <trkpt lat="37.38654401153326" lon="-8.655534004792571">
        <ele>78</ele>
        <time>2025-05-06T13:50:36Z</time>
      </trkpt>
      <trkpt lat="37.386580975726247" lon="-8.655600976198912">
        <ele>78.480000000000004</ele>
        <time>2025-05-06T13:50:37Z</time>
      </trkpt>
      <trkpt lat="37.386627998203039" lon="-8.655683035030961">
        <ele>79.450000000000003</ele>
        <time>2025-05-06T13:50:38Z</time>
      </trkpt>
      <trkpt lat="37.386682983487844" lon="-8.655781019479036">
        <ele>80.409999999999997</ele>
        <time>2025-05-06T13:50:39Z</time>
      </trkpt>
      <trkpt lat="37.386796977370977" lon="-8.655984029173851">
        <ele>80.890000000000001</ele>
        <time>2025-05-06T13:50:40Z</time>
      </trkpt>
      <trkpt lat="37.386796977370977" lon="-8.655984029173851">
        <ele>81.849999999999994</ele>
        <time>2025-05-06T13:50:41Z</time>
      </trkpt>
      <trkpt lat="37.38682203926146" lon="-8.656114032492042">
        <ele>82.329999999999998</ele>
        <time>2025-05-06T13:50:42Z</time>
      </trkpt>
      <trkpt lat="37.386849028989673" lon="-8.656258033588529">
        <ele>82.810000000000002</ele>
        <time>2025-05-06T13:50:43Z</time>
      </trkpt>
      <trkpt lat="37.386956987902522" lon="-8.657152969390154">
        <ele>84.25</ele>
        <time>2025-05-06T13:50:48Z</time>
      </trkpt>
      <trkpt lat="37.386977020651102" lon="-8.657329995185137">
        <ele>83.769999999999996</ele>
        <time>2025-05-06T13:50:49Z</time>
      </trkpt>
      <trkpt lat="37.386980960145593" lon="-8.65750702098012">
        <ele>83.769999999999996</ele>
        <time>2025-05-06T13:50:50Z</time>
      </trkpt>
      <trkpt lat="37.386956987902522" lon="-8.657687986269593">
        <ele>83.769999999999996</ele>
        <time>2025-05-06T13:50:51Z</time>
      </trkpt>
      <trkpt lat="37.38690996542573" lon="-8.657855037599802">
        <ele>83.769999999999996</ele>
        <time>2025-05-06T13:50:52Z</time>
      </trkpt>
      <trkpt lat="37.386861015111208" lon="-8.657978000119329">
        <ele>83.769999999999996</ele>
        <time>2025-05-06T13:50:53Z</time>
      </trkpt>
      <trkpt lat="37.386741992086172" lon="-8.658103980123997">
        <ele>83.290000000000006</ele>
        <time>2025-05-06T13:50:54Z</time>
      </trkpt>
      <trkpt lat="37.38662900403142" lon="-8.658225014805794">
        <ele>82.810000000000002</ele>
        <time>2025-05-06T13:50:55Z</time>
      </trkpt>
      <trkpt lat="37.386505035683513" lon="-8.658350994810462">
        <ele>82.329999999999998</ele>
        <time>2025-05-06T13:50:56Z</time>
      </trkpt>
      <trkpt lat="37.385842027142644" lon="-8.658809987828136">
        <ele>81.370000000000005</ele>
        <time>2025-05-06T13:51:00Z</time>
      </trkpt>
      <trkpt lat="37.385677993297577" lon="-8.658922975882888">
        <ele>81.370000000000005</ele>
        <time>2025-05-06T13:51:01Z</time>
      </trkpt>
      <trkpt lat="37.385508008301258" lon="-8.65899296477437">
        <ele>81.370000000000005</ele>
        <time>2025-05-06T13:51:02Z</time>
      </trkpt>
      <trkpt lat="37.383742025122046" lon="-8.659440977498889">
        <ele>82.329999999999998</ele>
        <time>2025-05-06T13:51:11Z</time>
      </trkpt>
      <trkpt lat="37.382438974454999" lon="-8.659755969420075">
        <ele>86.659999999999997</ele>
        <time>2025-05-06T13:51:18Z</time>
      </trkpt>
      <trkpt lat="37.38142803311348" lon="-8.660134999081492">
        <ele>91.939999999999998</ele>
        <time>2025-05-06T13:51:24Z</time>
      </trkpt>
      <trkpt lat="37.381306998431683" lon="-8.660165006294847">
        <ele>93.390000000000001</ele>
        <time>2025-05-06T13:51:25Z</time>
      </trkpt>
      <trkpt lat="37.381190992891788" lon="-8.660175986588001">
        <ele>94.349999999999994</ele>
        <time>2025-05-06T13:51:26Z</time>
      </trkpt>
      <trkpt lat="37.38108403980732" lon="-8.660127958282828">
        <ele>94.829999999999998</ele>
        <time>2025-05-06T13:51:27Z</time>
      </trkpt>
      <trkpt lat="37.380966022610664" lon="-8.660061992704868">
        <ele>95.790000000000006</ele>
        <time>2025-05-06T13:51:28Z</time>
      </trkpt>
      <trkpt lat="37.380712972953916" lon="-8.659885972738266">
        <ele>97.230000000000004</ele>
        <time>2025-05-06T13:51:30Z</time>
      </trkpt>
      <trkpt lat="37.380581963807344" lon="-8.659796034917235">
        <ele>98.189999999999998</ele>
        <time>2025-05-06T13:51:31Z</time>
      </trkpt>
      <trkpt lat="37.380454977974296" lon="-8.659711964428425">
        <ele>98.189999999999998</ele>
        <time>2025-05-06T13:51:32Z</time>
      </trkpt>
      <trkpt lat="37.38018399104476" lon="-8.659688998013735">
        <ele>99.150000000000006</ele>
        <time>2025-05-06T13:51:34Z</time>
      </trkpt>
      <trkpt lat="37.380043007433414" lon="-8.659753035753965">
        <ele>99.629999999999995</ele>
        <time>2025-05-06T13:51:35Z</time>
      </trkpt>
      <trkpt lat="37.379628019407392" lon="-8.659992003813386">
        <ele>101.08</ele>
        <time>2025-05-06T13:51:38Z</time>
      </trkpt>
      <trkpt lat="37.379508996382356" lon="-8.660060986876488">
        <ele>101.08</ele>
        <time>2025-05-06T13:51:39Z</time>
      </trkpt>
      <trkpt lat="37.379407994449139" lon="-8.660097029060125">
        <ele>101.08</ele>
        <time>2025-05-06T13:51:40Z</time>
      </trkpt>
      <trkpt lat="37.379275979474187" lon="-8.660072972998023">
        <ele>101.08</ele>
        <time>2025-05-06T13:51:41Z</time>
      </trkpt>
      <trkpt lat="37.379119992256165" lon="-8.66004497744143">
        <ele>101.08</ele>
        <time>2025-05-06T13:51:42Z</time>
      </trkpt>
      <trkpt lat="37.378947995603085" lon="-8.660013964399695">
        <ele>101.08</ele>
        <time>2025-05-06T13:51:43Z</time>
      </trkpt>
      <trkpt lat="37.378756972029805" lon="-8.659980017691851">
        <ele>100.59999999999999</ele>
        <time>2025-05-06T13:51:44Z</time>
      </trkpt>
      <trkpt lat="37.377430032938719" lon="-8.660186966881156">
        <ele>97.709999999999994</ele>
        <time>2025-05-06T13:51:50Z</time>
      </trkpt>
      <trkpt lat="37.375447964295745" lon="-8.660747967660427">
        <ele>97.709999999999994</ele>
        <time>2025-05-06T13:52:00Z</time>
      </trkpt>
      <trkpt lat="37.374215992167592" lon="-8.661072012037039">
        <ele>101.08</ele>
        <time>2025-05-06T13:52:07Z</time>
      </trkpt>
      <trkpt lat="37.373080998659134" lon="-8.661465961486101">
        <ele>104.44</ele>
        <time>2025-05-06T13:52:14Z</time>
      </trkpt>
      <trkpt lat="37.372738011181355" lon="-8.661654973402619">
        <ele>105.40000000000001</ele>
        <time>2025-05-06T13:52:16Z</time>
      </trkpt>
      <trkpt lat="37.372567020356655" lon="-8.661771984770894">
        <ele>106.36</ele>
        <time>2025-05-06T13:52:17Z</time>
      </trkpt>
      <trkpt lat="37.372108027338982" lon="-8.662184961140156">
        <ele>107.81</ele>
        <time>2025-05-06T13:52:20Z</time>
      </trkpt>
      <trkpt lat="37.371960002928972" lon="-8.662307001650333">
        <ele>108.29000000000001</ele>
        <time>2025-05-06T13:52:21Z</time>
      </trkpt>
      <trkpt lat="37.370745968073606" lon="-8.662945032119751">
        <ele>113.56999999999999</ele>
        <time>2025-05-06T13:52:28Z</time>
      </trkpt>
      <trkpt lat="37.370247999206185" lon="-8.663101019337773">
        <ele>116.94</ele>
        <time>2025-05-06T13:52:35Z</time>
      </trkpt>
      <trkpt lat="37.36976302228868" lon="-8.663226999342442">
        <ele>121.26000000000001</ele>
        <time>2025-05-06T13:52:43Z</time>
      </trkpt>
      <trkpt lat="37.369528999552131" lon="-8.663248037919402">
        <ele>122.70999999999999</ele>
        <time>2025-05-06T13:52:47Z</time>
      </trkpt>
      <trkpt lat="37.369469990953803" lon="-8.663243008777499">
        <ele>123.19</ele>
        <time>2025-05-06T13:52:48Z</time>
      </trkpt>
      <trkpt lat="37.36939899623394" lon="-8.663237979635596">
        <ele>123.67</ele>
        <time>2025-05-06T13:52:49Z</time>
      </trkpt>
      <trkpt lat="37.369308974593878" lon="-8.663234962150455">
        <ele>124.15000000000001</ele>
        <time>2025-05-06T13:52:50Z</time>
      </trkpt>
      <trkpt lat="37.369200009852648" lon="-8.663234962150455">
        <ele>124.63</ele>
        <time>2025-05-06T13:52:51Z</time>
      </trkpt>
      <trkpt lat="37.36879600211978" lon="-8.66326798684895">
        <ele>126.06999999999999</ele>
        <time>2025-05-06T13:52:54Z</time>
      </trkpt>
      <trkpt lat="37.368654012680054" lon="-8.66328701376915">
        <ele>127.03</ele>
        <time>2025-05-06T13:52:55Z</time>
      </trkpt>
      <trkpt lat="37.368528032675385" lon="-8.663319032639265">
        <ele>127.51000000000001</ele>
        <time>2025-05-06T13:52:56Z</time>
      </trkpt>
      <trkpt lat="37.368414960801601" lon="-8.663392039015889">
        <ele>128.47</ele>
        <time>2025-05-06T13:52:57Z</time>
      </trkpt>
      <trkpt lat="37.368294009938836" lon="-8.663470996543765">
        <ele>129.43000000000001</ele>
        <time>2025-05-06T13:52:58Z</time>
      </trkpt>
      <trkpt lat="37.367781037464738" lon="-8.663805015385151">
        <ele>132.80000000000001</ele>
        <time>2025-05-06T13:53:02Z</time>
      </trkpt>
      <trkpt lat="37.367665031924844" lon="-8.663881039246917">
        <ele>133.28</ele>
        <time>2025-05-06T13:53:03Z</time>
      </trkpt>
      <trkpt lat="37.367562018334866" lon="-8.663982963189483">
        <ele>134.24000000000001</ele>
        <time>2025-05-06T13:53:04Z</time>
      </trkpt>
      <trkpt lat="37.367456993088126" lon="-8.664106009528041">
        <ele>134.72</ele>
        <time>2025-05-06T13:53:05Z</time>
      </trkpt>
      <trkpt lat="37.367372000589967" lon="-8.664265014231205">
        <ele>135.68000000000001</ele>
        <time>2025-05-06T13:53:06Z</time>
      </trkpt>
      <trkpt lat="37.366743022575974" lon="-8.665188029408455">
        <ele>141.93000000000001</ele>
        <time>2025-05-06T13:53:12Z</time>
      </trkpt>
      <trkpt lat="37.366518974304199" lon="-8.665445018559694">
        <ele>144.34</ele>
        <time>2025-05-06T13:53:15Z</time>
      </trkpt>
      <trkpt lat="37.366446973755956" lon="-8.665498998016119">
        <ele>145.30000000000001</ele>
        <time>2025-05-06T13:53:16Z</time>
      </trkpt>
      <trkpt lat="37.366395005956292" lon="-8.665537973865867">
        <ele>146.25999999999999</ele>
        <time>2025-05-06T13:53:17Z</time>
      </trkpt>
      <trkpt lat="37.366341026499867" lon="-8.665578961372376">
        <ele>146.74000000000001</ele>
        <time>2025-05-06T13:53:18Z</time>
      </trkpt>
      <trkpt lat="37.36628201790154" lon="-8.665622966364026">
        <ele>147.69999999999999</ele>
        <time>2025-05-06T13:53:19Z</time>
      </trkpt>
      <trkpt lat="37.366216974332929" lon="-8.66565297357738">
        <ele>148.18000000000001</ele>
        <time>2025-05-06T13:53:20Z</time>
      </trkpt>
      <trkpt lat="37.366150002926588" lon="-8.665675017982721">
        <ele>148.66</ele>
        <time>2025-05-06T13:53:21Z</time>
      </trkpt>
      <trkpt lat="37.365523036569357" lon="-8.665899988263845">
        <ele>151.53999999999999</ele>
        <time>2025-05-06T13:53:29Z</time>
      </trkpt>
      <trkpt lat="37.365419017150998" lon="-8.665987998247147">
        <ele>151.53999999999999</ele>
        <time>2025-05-06T13:53:30Z</time>
      </trkpt>
      <trkpt lat="37.365308040753007" lon="-8.6660819593817">
        <ele>151.53999999999999</ele>
        <time>2025-05-06T13:53:31Z</time>
      </trkpt>
      <trkpt lat="37.365219024941325" lon="-8.666216991841793">
        <ele>151.53999999999999</ele>
        <time>2025-05-06T13:53:32Z</time>
      </trkpt>
      <trkpt lat="37.36514501273632" lon="-8.666355963796377">
        <ele>151.06</ele>
        <time>2025-05-06T13:53:33Z</time>
      </trkpt>
      <trkpt lat="37.365081980824471" lon="-8.666474986821413">
        <ele>150.09999999999999</ele>
        <time>2025-05-06T13:53:34Z</time>
      </trkpt>
      <trkpt lat="37.365049961954355" lon="-8.666946971789002">
        <ele>147.69999999999999</ele>
        <time>2025-05-06T13:53:37Z</time>
      </trkpt>
      <trkpt lat="37.365041999146342" lon="-8.667073035612702">
        <ele>147.69999999999999</ele>
        <time>2025-05-06T13:53:38Z</time>
      </trkpt>
      <trkpt lat="37.364998999983072" lon="-8.667188035324216">
        <ele>147.22</ele>
        <time>2025-05-06T13:53:39Z</time>
      </trkpt>
      <trkpt lat="37.364952983334661" lon="-8.667269004508853">
        <ele>146.74000000000001</ele>
        <time>2025-05-06T13:53:40Z</time>
      </trkpt>
      <trkpt lat="37.364880982786417" lon="-8.667322983965278">
        <ele>146.25999999999999</ele>
        <time>2025-05-06T13:53:41Z</time>
      </trkpt>
      <trkpt lat="37.364780986681581" lon="-8.667398001998663">
        <ele>145.78</ele>
        <time>2025-05-06T13:53:42Z</time>
      </trkpt>
      <trkpt lat="37.364702029153705" lon="-8.667420968413353">
        <ele>144.81999999999999</ele>
        <time>2025-05-06T13:53:43Z</time>
      </trkpt>
      <trkpt lat="37.364450991153717" lon="-8.667496992275119">
        <ele>142.41</ele>
        <time>2025-05-06T13:53:45Z</time>
      </trkpt>
      <trkpt lat="37.364317970350385" lon="-8.667547032237053">
        <ele>140.97</ele>
        <time>2025-05-06T13:53:46Z</time>
      </trkpt>
      <trkpt lat="37.364194002002478" lon="-8.667623978108168">
        <ele>139.53</ele>
        <time>2025-05-06T13:53:47Z</time>
      </trkpt>
      <trkpt lat="37.363514984026551" lon="-8.668040977790952">
        <ele>131.36000000000001</ele>
        <time>2025-05-06T13:53:53Z</time>
      </trkpt>
      <trkpt lat="37.362861027941108" lon="-8.668647995218635">
        <ele>126.55</ele>
        <time>2025-05-06T13:54:02Z</time>
      </trkpt>
      <trkpt lat="37.362300027161837" lon="-8.669125009328127">
        <ele>126.06999999999999</ele>
        <time>2025-05-06T13:54:09Z</time>
      </trkpt>
      <trkpt lat="37.362197013571858" lon="-8.669246966019273">
        <ele>126.06999999999999</ele>
        <time>2025-05-06T13:54:10Z</time>
      </trkpt>
      <trkpt lat="37.362086959183216" lon="-8.669377975165844">
        <ele>126.55</ele>
        <time>2025-05-06T13:54:11Z</time>
      </trkpt>
      <trkpt lat="37.361410958692431" lon="-8.670664010569453">
        <ele>127.98999999999999</ele>
        <time>2025-05-06T13:54:18Z</time>
      </trkpt>
      <trkpt lat="37.361266035586596" lon="-8.671038011088967">
        <ele>128.47</ele>
        <time>2025-05-06T13:54:20Z</time>
      </trkpt>
      <trkpt lat="37.361214989796281" lon="-8.671241020783782">
        <ele>128.47</ele>
        <time>2025-05-06T13:54:21Z</time>
      </trkpt>
      <trkpt lat="37.361134020611644" lon="-8.67183898575604">
        <ele>129.43000000000001</ele>
        <time>2025-05-06T13:54:25Z</time>
      </trkpt>
      <trkpt lat="37.361082974821329" lon="-8.671949962154031">
        <ele>129.91999999999999</ele>
        <time>2025-05-06T13:54:26Z</time>
      </trkpt>
      <trkpt lat="37.361042993143201" lon="-8.672039983794093">
        <ele>129.91999999999999</ele>
        <time>2025-05-06T13:54:27Z</time>
      </trkpt>
      <trkpt lat="37.360970992594957" lon="-8.672108966857195">
        <ele>130.88</ele>
        <time>2025-05-06T13:54:28Z</time>
      </trkpt>
      <trkpt lat="37.360870996490121" lon="-8.672167975455523">
        <ele>130.88</ele>
        <time>2025-05-06T13:54:29Z</time>
      </trkpt>
      <trkpt lat="37.3603540007025" lon="-8.672479027882218">
        <ele>132.31999999999999</ele>
        <time>2025-05-06T13:54:33Z</time>
      </trkpt>
      <trkpt lat="37.360226009041071" lon="-8.672585980966687">
        <ele>132.31999999999999</ele>
        <time>2025-05-06T13:54:34Z</time>
      </trkpt>
      <trkpt lat="37.36011503264308" lon="-8.672723025083542">
        <ele>132.31999999999999</ele>
        <time>2025-05-06T13:54:35Z</time>
      </trkpt>
      <trkpt lat="37.359919985756278" lon="-8.673022007569671">
        <ele>132.80000000000001</ele>
        <time>2025-05-06T13:54:36Z</time>
      </trkpt>
      <trkpt lat="37.359592001885176" lon="-8.673676969483495">
        <ele>134.72</ele>
        <time>2025-05-06T13:54:41Z</time>
      </trkpt>
      <trkpt lat="37.359506003558636" lon="-8.67381501942873">
        <ele>135.19999999999999</ele>
        <time>2025-05-06T13:54:42Z</time>
      </trkpt>
      <trkpt lat="37.359397960826755" lon="-8.673933958634734">
        <ele>135.68000000000001</ele>
        <time>2025-05-06T13:54:43Z</time>
      </trkpt>
      <trkpt lat="37.358882976695895" lon="-8.674287004396319">
        <ele>137.61000000000001</ele>
        <time>2025-05-06T13:54:47Z</time>
      </trkpt>
      <trkpt lat="37.358751967549324" lon="-8.674370991066098">
        <ele>138.09</ele>
        <time>2025-05-06T13:54:48Z</time>
      </trkpt>
      <trkpt lat="37.35863302834332" lon="-8.67439404129982">
        <ele>138.09</ele>
        <time>2025-05-06T13:54:49Z</time>
      </trkpt>
      <trkpt lat="37.35816003754735" lon="-8.674485990777612">
        <ele>139.05000000000001</ele>
        <time>2025-05-06T13:54:52Z</time>
      </trkpt>
      <trkpt lat="37.357978988438845" lon="-8.674522032961249">
        <ele>139.53</ele>
        <time>2025-05-06T13:54:53Z</time>
      </trkpt>
      <trkpt lat="37.357840016484261" lon="-8.674586992710829">
        <ele>140.00999999999999</ele>
        <time>2025-05-06T13:54:54Z</time>
      </trkpt>
      <trkpt lat="37.357686040922999" lon="-8.674658993259072">
        <ele>140.00999999999999</ele>
        <time>2025-05-06T13:54:55Z</time>
      </trkpt>
      <trkpt lat="37.357550002634525" lon="-8.674768041819334">
        <ele>140.00999999999999</ele>
        <time>2025-05-06T13:54:56Z</time>
      </trkpt>
      <trkpt lat="37.357444977387786" lon="-8.67488999851048">
        <ele>140.00999999999999</ele>
        <time>2025-05-06T13:54:57Z</time>
      </trkpt>
      <trkpt lat="37.357355961576104" lon="-8.674998041242361">
        <ele>140.00999999999999</ele>
        <time>2025-05-06T13:54:58Z</time>
      </trkpt>
      <trkpt lat="37.35732302069664" lon="-8.675155034288764">
        <ele>140.00999999999999</ele>
        <time>2025-05-06T13:54:59Z</time>
      </trkpt>
      <trkpt lat="37.357283961027861" lon="-8.67534002289176">
        <ele>140.00999999999999</ele>
        <time>2025-05-06T13:55:00Z</time>
      </trkpt>
      <trkpt lat="37.357220007106662" lon="-8.677021013572812">
        <ele>141.44999999999999</ele>
        <time>2025-05-06T13:55:08Z</time>
      </trkpt>
      <trkpt lat="37.357213972136378" lon="-8.677215976640582">
        <ele>141.93000000000001</ele>
        <time>2025-05-06T13:55:09Z</time>
      </trkpt>
      <trkpt lat="37.357208020985126" lon="-8.677396019920707">
        <ele>141.93000000000001</ele>
        <time>2025-05-06T13:55:10Z</time>
      </trkpt>
      <trkpt lat="37.357163010165095" lon="-8.677563993260264">
        <ele>141.93000000000001</ele>
        <time>2025-05-06T13:55:11Z</time>
      </trkpt>
      <trkpt lat="37.357109030708671" lon="-8.677719980478287">
        <ele>141.93000000000001</ele>
        <time>2025-05-06T13:55:12Z</time>
      </trkpt>
      <trkpt lat="37.357053039595485" lon="-8.67787403985858">
        <ele>142.41</ele>
        <time>2025-05-06T13:55:13Z</time>
      </trkpt>
      <trkpt lat="37.356964023783803" lon="-8.677998008206487">
        <ele>142.41</ele>
        <time>2025-05-06T13:55:14Z</time>
      </trkpt>
      <trkpt lat="37.35687299631536" lon="-8.678122982382774">
        <ele>142.41</ele>
        <time>2025-05-06T13:55:15Z</time>
      </trkpt>
      <trkpt lat="37.356673004105687" lon="-8.678348958492279">
        <ele>142.88999999999999</ele>
        <time>2025-05-06T13:55:17Z</time>
      </trkpt>
      <trkpt lat="37.356563033536077" lon="-8.678448032587767">
        <ele>143.37</ele>
        <time>2025-05-06T13:55:18Z</time>
      </trkpt>
      <trkpt lat="37.356424983590841" lon="-8.678510980680585">
        <ele>143.84999999999999</ele>
        <time>2025-05-06T13:55:19Z</time>
      </trkpt>
      <trkpt lat="37.356289029121399" lon="-8.67856496013701">
        <ele>144.81999999999999</ele>
        <time>2025-05-06T13:55:20Z</time>
      </trkpt>
      <trkpt lat="37.35614201053977" lon="-8.678604019805789">
        <ele>145.78</ele>
        <time>2025-05-06T13:55:21Z</time>
      </trkpt>
      <trkpt lat="37.355825006961823" lon="-8.678685994818807">
        <ele>146.74000000000001</ele>
        <time>2025-05-06T13:55:23Z</time>
      </trkpt>
      <trkpt lat="37.354772994294763" lon="-8.679353026673198">
        <ele>151.53999999999999</ele>
        <time>2025-05-06T13:55:30Z</time>
      </trkpt>
      <trkpt lat="37.354645002633333" lon="-8.679472971707583">
        <ele>152.03</ele>
        <time>2025-05-06T13:55:31Z</time>
      </trkpt>
      <trkpt lat="37.353832041844726" lon="-8.680603019893169">
        <ele>155.38999999999999</ele>
        <time>2025-05-06T13:55:38Z</time>
      </trkpt>
      <trkpt lat="37.353723999112844" lon="-8.680739980190992">
        <ele>155.87</ele>
        <time>2025-05-06T13:55:39Z</time>
      </trkpt>
      <trkpt lat="37.352757984772325" lon="-8.681745976209641">
        <ele>159.24000000000001</ele>
        <time>2025-05-06T13:55:46Z</time>
      </trkpt>
      <trkpt lat="37.352137975394726" lon="-8.682126011699438">
        <ele>162.12</ele>
        <time>2025-05-06T13:55:50Z</time>
      </trkpt>
      <trkpt lat="37.351975031197071" lon="-8.682180996984243">
        <ele>162.59999999999999</ele>
        <time>2025-05-06T13:55:51Z</time>
      </trkpt>
      <trkpt lat="37.351807979866862" lon="-8.682229025289416">
        <ele>163.08000000000001</ele>
        <time>2025-05-06T13:55:52Z</time>
      </trkpt>
      <trkpt lat="37.351631037890911" lon="-8.682254003360868">
        <ele>164.03999999999999</ele>
        <time>2025-05-06T13:55:53Z</time>
      </trkpt>
      <trkpt lat="37.351450994610786" lon="-8.682277975603938">
        <ele>164.52000000000001</ele>
        <time>2025-05-06T13:55:54Z</time>
      </trkpt>
      <trkpt lat="37.351083029061556" lon="-8.682246962562203">
        <ele>165.96000000000001</ele>
        <time>2025-05-06T13:55:56Z</time>
      </trkpt>
      <trkpt lat="37.350897034630179" lon="-8.682218967005611">
        <ele>166.44999999999999</ele>
        <time>2025-05-06T13:55:57Z</time>
      </trkpt>
      <trkpt lat="37.349444031715393" lon="-8.681797021999955">
        <ele>169.81</ele>
        <time>2025-05-06T13:56:05Z</time>
      </trkpt>
      <trkpt lat="37.349270023405552" lon="-8.681768020614982">
        <ele>170.28999999999999</ele>
        <time>2025-05-06T13:56:06Z</time>
      </trkpt>
      <trkpt lat="37.348954025655985" lon="-8.681753017008305">
        <ele>170.77000000000001</ele>
        <time>2025-05-06T13:56:08Z</time>
      </trkpt>
      <trkpt lat="37.348809018731117" lon="-8.681714963167906">
        <ele>171.25</ele>
        <time>2025-05-06T13:56:09Z</time>
      </trkpt>
      <trkpt lat="37.348660994321108" lon="-8.68163600564003">
        <ele>171.72999999999999</ele>
        <time>2025-05-06T13:56:10Z</time>
      </trkpt>
      <trkpt lat="37.347894972190261" lon="-8.680995041504502">
        <ele>173.66</ele>
        <time>2025-05-06T13:56:15Z</time>
      </trkpt>
      <trkpt lat="37.347768992185593" lon="-8.680851962417364">
        <ele>174.62</ele>
        <time>2025-05-06T13:56:16Z</time>
      </trkpt>
      <trkpt lat="37.34767603687942" lon="-8.680703015998006">
        <ele>175.58000000000001</ele>
        <time>2025-05-06T13:56:17Z</time>
      </trkpt>
      <trkpt lat="37.347587021067739" lon="-8.680559014901519">
        <ele>176.53999999999999</ele>
        <time>2025-05-06T13:56:18Z</time>
      </trkpt>
      <trkpt lat="37.347502028569579" lon="-8.680421970784664">
        <ele>177.02000000000001</ele>
        <time>2025-05-06T13:56:19Z</time>
      </trkpt>
      <trkpt lat="37.347421981394291" lon="-8.680293979123235">
        <ele>177.5</ele>
        <time>2025-05-06T13:56:20Z</time>
      </trkpt>
      <trkpt lat="37.34731201082468" lon="-8.68023899383843">
        <ele>177.97999999999999</ele>
        <time>2025-05-06T13:56:21Z</time>
      </trkpt>
      <trkpt lat="37.347184019163251" lon="-8.680175039917231">
        <ele>178.46000000000001</ele>
        <time>2025-05-06T13:56:22Z</time>
      </trkpt>
      <trkpt lat="37.346594016999006" lon="-8.679879996925592">
        <ele>179.41999999999999</ele>
        <time>2025-05-06T13:56:26Z</time>
      </trkpt>
      <trkpt lat="37.346435012295842" lon="-8.679800033569336">
        <ele>179.90000000000001</ele>
        <time>2025-05-06T13:56:27Z</time>
      </trkpt>
      <trkpt lat="37.345033977180719" lon="-8.679690985009074">
        <ele>187.11000000000001</ele>
        <time>2025-05-06T13:56:36Z</time>
      </trkpt>
      <trkpt lat="37.344528967514634" lon="-8.67972400970757">
        <ele>190.47999999999999</ele>
        <time>2025-05-06T13:56:39Z</time>
      </trkpt>
      <trkpt lat="37.343781972303987" lon="-8.679644968360663">
        <ele>197.69</ele>
        <time>2025-05-06T13:56:44Z</time>
      </trkpt>
      <trkpt lat="37.343649035319686" lon="-8.679588977247477">
        <ele>199.13</ele>
        <time>2025-05-06T13:56:45Z</time>
      </trkpt>
      <trkpt lat="37.343522971495986" lon="-8.679538015276194">
        <ele>200.56999999999999</ele>
        <time>2025-05-06T13:56:46Z</time>
      </trkpt>
      <trkpt lat="37.343403026461601" lon="-8.679499961435795">
        <ele>202.00999999999999</ele>
        <time>2025-05-06T13:56:47Z</time>
      </trkpt>
      <trkpt lat="37.343288026750088" lon="-8.679499961435795">
        <ele>202.97999999999999</ele>
        <time>2025-05-06T13:56:48Z</time>
      </trkpt>
      <trkpt lat="37.343180989846587" lon="-8.679499961435795">
        <ele>204.41999999999999</ele>
        <time>2025-05-06T13:56:49Z</time>
      </trkpt>
      <trkpt lat="37.343084011226892" lon="-8.67946500889957">
        <ele>205.86000000000001</ele>
        <time>2025-05-06T13:56:50Z</time>
      </trkpt>
      <trkpt lat="37.343022990971804" lon="-8.67937901057303">
        <ele>207.30000000000001</ele>
        <time>2025-05-06T13:56:51Z</time>
      </trkpt>
      <trkpt lat="37.342978985980153" lon="-8.679258981719613">
        <ele>208.74000000000001</ele>
        <time>2025-05-06T13:56:52Z</time>
      </trkpt>
      <trkpt lat="37.342944033443928" lon="-8.679119003936648">
        <ele>210.66999999999999</ele>
        <time>2025-05-06T13:56:53Z</time>
      </trkpt>
      <trkpt lat="37.342904973775148" lon="-8.678962010890245">
        <ele>212.11000000000001</ele>
        <time>2025-05-06T13:56:54Z</time>
      </trkpt>
      <trkpt lat="37.342860968783498" lon="-8.678784985095263">
        <ele>213.55000000000001</ele>
        <time>2025-05-06T13:56:55Z</time>
      </trkpt>
      <trkpt lat="37.342788968235254" lon="-8.678617011755705">
        <ele>214.50999999999999</ele>
        <time>2025-05-06T13:56:56Z</time>
      </trkpt>
      <trkpt lat="37.342711016535759" lon="-8.678451972082257">
        <ele>215.94999999999999</ele>
        <time>2025-05-06T13:56:57Z</time>
      </trkpt>
      <trkpt lat="37.34262702986598" lon="-8.67830403149128">
        <ele>217.40000000000001</ele>
        <time>2025-05-06T13:56:58Z</time>
      </trkpt>
      <trkpt lat="37.342187985777855" lon="-8.677792986854911">
        <ele>222.19999999999999</ele>
        <time>2025-05-06T13:57:02Z</time>
      </trkpt>
      <trkpt lat="37.342066029086709" lon="-8.677695002406836">
        <ele>223.63999999999999</ele>
        <time>2025-05-06T13:57:03Z</time>
      </trkpt>
      <trkpt lat="37.341493964195251" lon="-8.677365006878972">
        <ele>228.44999999999999</ele>
        <time>2025-05-06T13:57:07Z</time>
      </trkpt>
      <trkpt lat="37.34136002138257" lon="-8.677288983017206">
        <ele>229.88999999999999</ele>
        <time>2025-05-06T13:57:08Z</time>
      </trkpt>
      <trkpt lat="37.341205962002277" lon="-8.677230980247259">
        <ele>230.84999999999999</ele>
        <time>2025-05-06T13:57:09Z</time>
      </trkpt>
      <trkpt lat="37.341033965349197" lon="-8.677197033539414">
        <ele>232.30000000000001</ele>
        <time>2025-05-06T13:57:10Z</time>
      </trkpt>
      <trkpt lat="37.34086699783802" lon="-8.677163003012538">
        <ele>233.74000000000001</ele>
        <time>2025-05-06T13:57:11Z</time>
      </trkpt>
      <trkpt lat="37.340701036155224" lon="-8.677117992192507">
        <ele>235.18000000000001</ele>
        <time>2025-05-06T13:57:12Z</time>
      </trkpt>
      <trkpt lat="37.340534990653396" lon="-8.677042974159122">
        <ele>237.09999999999999</ele>
        <time>2025-05-06T13:57:13Z</time>
      </trkpt>
      <trkpt lat="37.340380009263754" lon="-8.676971979439259">
        <ele>239.02000000000001</ele>
        <time>2025-05-06T13:57:14Z</time>
      </trkpt>
      <trkpt lat="37.340242965146899" lon="-8.676925962790847">
        <ele>240.94999999999999</ele>
        <time>2025-05-06T13:57:15Z</time>
      </trkpt>
      <trkpt lat="37.339982036501169" lon="-8.676938032731414">
        <ele>244.31</ele>
        <time>2025-05-06T13:57:17Z</time>
      </trkpt>
      <trkpt lat="37.33987801708281" lon="-8.676941972225905">
        <ele>246.22999999999999</ele>
        <time>2025-05-06T13:57:18Z</time>
      </trkpt>
      <trkpt lat="37.339779026806355" lon="-8.676939038559794">
        <ele>247.68000000000001</ele>
        <time>2025-05-06T13:57:19Z</time>
      </trkpt>
      <trkpt lat="37.339733010157943" lon="-8.676864020526409">
        <ele>249.59999999999999</ele>
        <time>2025-05-06T13:57:20Z</time>
      </trkpt>
      <trkpt lat="37.339719012379646" lon="-8.676744997501373">
        <ele>251.52000000000001</ele>
        <time>2025-05-06T13:57:21Z</time>
      </trkpt>
      <trkpt lat="37.339719012379646" lon="-8.676620023325086">
        <ele>252.96000000000001</ele>
        <time>2025-05-06T13:57:22Z</time>
      </trkpt>
      <trkpt lat="37.339719012379646" lon="-8.676517009735107">
        <ele>254.88999999999999</ele>
        <time>2025-05-06T13:57:23Z</time>
      </trkpt>
      <trkpt lat="37.339672995731235" lon="-8.676390023902059">
        <ele>255.84999999999999</ele>
        <time>2025-05-06T13:57:24Z</time>
      </trkpt>
      <trkpt lat="37.339626979082823" lon="-8.676277035847306">
        <ele>256.81</ele>
        <time>2025-05-06T13:57:25Z</time>
      </trkpt>
      <trkpt lat="37.339521031826735" lon="-8.676205035299063">
        <ele>257.76999999999998</ele>
        <time>2025-05-06T13:57:26Z</time>
      </trkpt>
      <trkpt lat="37.339397985488176" lon="-8.676121970638633">
        <ele>258.73000000000002</ele>
        <time>2025-05-06T13:57:27Z</time>
      </trkpt>
      <trkpt lat="37.339266976341605" lon="-8.676033960655332">
        <ele>260.17000000000002</ele>
        <time>2025-05-06T13:57:28Z</time>
      </trkpt>
      <trkpt lat="37.339019039645791" lon="-8.675865987315774">
        <ele>263.06</ele>
        <time>2025-05-06T13:57:30Z</time>
      </trkpt>
      <trkpt lat="37.338903034105897" lon="-8.675788035616279">
        <ele>264.98000000000002</ele>
        <time>2025-05-06T13:57:31Z</time>
      </trkpt>
      <trkpt lat="37.338788034394383" lon="-8.675733972340822">
        <ele>266.42000000000002</ele>
        <time>2025-05-06T13:57:32Z</time>
      </trkpt>
      <trkpt lat="37.338359970599413" lon="-8.675536997616291">
        <ele>271.23000000000002</ele>
        <time>2025-05-06T13:57:35Z</time>
      </trkpt>
      <trkpt lat="37.338224016129971" lon="-8.675505984574556">
        <ele>272.67000000000002</ele>
        <time>2025-05-06T13:57:36Z</time>
      </trkpt>
      <trkpt lat="37.338096024468541" lon="-8.675480000674725">
        <ele>274.11000000000001</ele>
        <time>2025-05-06T13:57:37Z</time>
      </trkpt>
      <trkpt lat="37.337968032807112" lon="-8.675482012331486">
        <ele>276.04000000000002</ele>
        <time>2025-05-06T13:57:38Z</time>
      </trkpt>
      <trkpt lat="37.337736021727324" lon="-8.675618972629309">
        <ele>279.39999999999998</ele>
        <time>2025-05-06T13:57:40Z</time>
      </trkpt>
      <trkpt lat="37.337360009551048" lon="-8.67592197842896">
        <ele>283.73000000000002</ele>
        <time>2025-05-06T13:57:43Z</time>
      </trkpt>
      <trkpt lat="37.337258001789451" lon="-8.676004959270358">
        <ele>284.69</ele>
        <time>2025-05-06T13:57:44Z</time>
      </trkpt>
      <trkpt lat="37.337165968492627" lon="-8.67602800950408">
        <ele>286.13</ele>
        <time>2025-05-06T13:57:45Z</time>
      </trkpt>
      <trkpt lat="37.337052980437875" lon="-8.675980987027288">
        <ele>287.08999999999997</ele>
        <time>2025-05-06T13:57:46Z</time>
      </trkpt>
      <trkpt lat="37.336919959634542" lon="-8.675924995914102">
        <ele>289.00999999999999</ele>
        <time>2025-05-06T13:57:47Z</time>
      </trkpt>
      <trkpt lat="37.336773024871945" lon="-8.675863975659013">
        <ele>290.45999999999998</ele>
        <time>2025-05-06T13:57:48Z</time>
      </trkpt>
      <trkpt lat="37.336614020168781" lon="-8.675830028951168">
        <ele>291.89999999999998</ele>
        <time>2025-05-06T13:57:49Z</time>
      </trkpt>
      <trkpt lat="37.336454009637237" lon="-8.675834974274039">
        <ele>293.33999999999997</ele>
        <time>2025-05-06T13:57:50Z</time>
      </trkpt>
      <trkpt lat="37.336283018812537" lon="-8.675847966223955">
        <ele>295.25999999999999</ele>
        <time>2025-05-06T13:57:51Z</time>
      </trkpt>
      <trkpt lat="37.335598971694708" lon="-8.675919966772199">
        <ele>301.50999999999999</ele>
        <time>2025-05-06T13:57:55Z</time>
      </trkpt>
      <trkpt lat="37.335294960066676" lon="-8.676035972312093">
        <ele>304.88</ele>
        <time>2025-05-06T13:57:57Z</time>
      </trkpt>
      <trkpt lat="37.335154982283711" lon="-8.676090035587549">
        <ele>306.80000000000001</ele>
        <time>2025-05-06T13:57:58Z</time>
      </trkpt>
      <trkpt lat="37.334997989237309" lon="-8.676103027537465">
        <ele>308.24000000000001</ele>
        <time>2025-05-06T13:57:59Z</time>
      </trkpt>
      <trkpt lat="37.334837978705764" lon="-8.676092969253659">
        <ele>310.16000000000003</ele>
        <time>2025-05-06T13:58:00Z</time>
      </trkpt>
      <trkpt lat="37.334677968174219" lon="-8.676082994788885">
        <ele>311.60000000000002</ele>
        <time>2025-05-06T13:58:01Z</time>
      </trkpt>
      <trkpt lat="37.334514018148184" lon="-8.676073020324111">
        <ele>313.05000000000001</ele>
        <time>2025-05-06T13:58:02Z</time>
      </trkpt>
      <trkpt lat="37.33418301679194" lon="-8.676004959270358">
        <ele>316.41000000000003</ele>
        <time>2025-05-06T13:58:04Z</time>
      </trkpt>
      <trkpt lat="37.334017977118492" lon="-8.675961960107088">
        <ele>317.37</ele>
        <time>2025-05-06T13:58:05Z</time>
      </trkpt>
      <trkpt lat="37.333466028794646" lon="-8.675918038934469">
        <ele>324.57999999999998</ele>
        <time>2025-05-06T13:58:10Z</time>
      </trkpt>
      <trkpt lat="37.333394028246403" lon="-8.675897000357509">
        <ele>325.54000000000002</ele>
        <time>2025-05-06T13:58:11Z</time>
      </trkpt>
      <trkpt lat="37.33330300077796" lon="-8.675851989537478">
        <ele>326.01999999999998</ele>
        <time>2025-05-06T13:58:12Z</time>
      </trkpt>
      <trkpt lat="37.332585006952286" lon="-8.675365000963211">
        <ele>323.62</ele>
        <time>2025-05-06T13:58:17Z</time>
      </trkpt>
      <trkpt lat="37.331187995150685" lon="-8.674281975254417">
        <ele>310.63999999999999</ele>
        <time>2025-05-06T13:58:25Z</time>
      </trkpt>
      <trkpt lat="37.330205971375108" lon="-8.673723991960287">
        <ele>298.63</ele>
        <time>2025-05-06T13:58:31Z</time>
      </trkpt>
      <trkpt lat="37.330090971663594" lon="-8.673666995018721">
        <ele>296.69999999999999</ele>
        <time>2025-05-06T13:58:32Z</time>
      </trkpt>
      <trkpt lat="37.32999499887228" lon="-8.673618966713548">
        <ele>294.77999999999997</ele>
        <time>2025-05-06T13:58:33Z</time>
      </trkpt>
      <trkpt lat="37.329948982223868" lon="-8.673571022227407">
        <ele>292.86000000000001</ele>
        <time>2025-05-06T13:58:34Z</time>
      </trkpt>
      <trkpt lat="37.329926015809178" lon="-8.67347102612257">
        <ele>290.94</ele>
        <time>2025-05-06T13:58:35Z</time>
      </trkpt>
      <trkpt lat="37.329899026080966" lon="-8.673354014754295">
        <ele>289.49000000000001</ele>
        <time>2025-05-06T13:58:36Z</time>
      </trkpt>
      <trkpt lat="37.329904977232218" lon="-8.673225017264485">
        <ele>287.08999999999997</ele>
        <time>2025-05-06T13:58:37Z</time>
      </trkpt>
      <trkpt lat="37.329926015809178" lon="-8.673077998682857">
        <ele>285.17000000000002</ele>
        <time>2025-05-06T13:58:38Z</time>
      </trkpt>
      <trkpt lat="37.329945964738727" lon="-8.672938020899892">
        <ele>283.25</ele>
        <time>2025-05-06T13:58:39Z</time>
      </trkpt>
      <trkpt lat="37.32990900054574" lon="-8.672760995104909">
        <ele>279.88</ele>
        <time>2025-05-06T13:58:41Z</time>
      </trkpt>
      <trkpt lat="37.329862983897328" lon="-8.672705003991723">
        <ele>277.95999999999998</ele>
        <time>2025-05-06T13:58:42Z</time>
      </trkpt>
      <trkpt lat="37.329804981127381" lon="-8.67267600260675">
        <ele>276.51999999999998</ele>
        <time>2025-05-06T13:58:43Z</time>
      </trkpt>
      <trkpt lat="37.329719988629222" lon="-8.672654964029789">
        <ele>274.58999999999997</ele>
        <time>2025-05-06T13:58:44Z</time>
      </trkpt>
      <trkpt lat="37.329660980030894" lon="-8.67269896902144">
        <ele>273.14999999999998</ele>
        <time>2025-05-06T13:58:45Z</time>
      </trkpt>
      <trkpt lat="37.329600965604186" lon="-8.672772981226444">
        <ele>271.70999999999998</ele>
        <time>2025-05-06T13:58:46Z</time>
      </trkpt>
      <trkpt lat="37.329533994197845" lon="-8.672885969281197">
        <ele>269.79000000000002</ele>
        <time>2025-05-06T13:58:47Z</time>
      </trkpt>
      <trkpt lat="37.32945897616446" lon="-8.673011027276516">
        <ele>268.35000000000002</ele>
        <time>2025-05-06T13:58:48Z</time>
      </trkpt>
      <trkpt lat="37.329367026686668" lon="-8.67312896065414">
        <ele>267.38</ele>
        <time>2025-05-06T13:58:49Z</time>
      </trkpt>
      <trkpt lat="37.329277005046606" lon="-8.673237003386021">
        <ele>266.42000000000002</ele>
        <time>2025-05-06T13:58:50Z</time>
      </trkpt>
      <trkpt lat="37.329172985628247" lon="-8.673304980620742">
        <ele>265.94</ele>
        <time>2025-05-06T13:58:51Z</time>
      </trkpt>
      <trkpt lat="37.329058991745114" lon="-8.673318978399038">
        <ele>264.98000000000002</ele>
        <time>2025-05-06T13:58:52Z</time>
      </trkpt>
      <trkpt lat="37.328923959285021" lon="-8.673334987834096">
        <ele>264.01999999999998</ele>
        <time>2025-05-06T13:58:53Z</time>
      </trkpt>
      <trkpt lat="37.328445017337799" lon="-8.673393996432424">
        <ele>259.69</ele>
        <time>2025-05-06T13:58:56Z</time>
      </trkpt>
      <trkpt lat="37.328287018463016" lon="-8.67338796146214">
        <ele>258.25</ele>
        <time>2025-05-06T13:58:57Z</time>
      </trkpt>
      <trkpt lat="37.3281479626894" lon="-8.673345968127251">
        <ele>257.29000000000002</ele>
        <time>2025-05-06T13:58:58Z</time>
      </trkpt>
      <trkpt lat="37.328015025705099" lon="-8.673274973407388">
        <ele>255.84999999999999</ele>
        <time>2025-05-06T13:58:59Z</time>
      </trkpt>
      <trkpt lat="37.327874964103103" lon="-8.673195010051131">
        <ele>254.88999999999999</ele>
        <time>2025-05-06T13:59:00Z</time>
      </trkpt>
      <trkpt lat="37.327732974663377" lon="-8.67308302782476">
        <ele>254.41</ele>
        <time>2025-05-06T13:59:01Z</time>
      </trkpt>
      <trkpt lat="37.326979022473097" lon="-8.67241901345551">
        <ele>249.59999999999999</ele>
        <time>2025-05-06T13:59:07Z</time>
      </trkpt>
      <trkpt lat="37.32640502974391" lon="-8.672012994065881">
        <ele>245.27000000000001</ele>
        <time>2025-05-06T13:59:11Z</time>
      </trkpt>
      <trkpt lat="37.325986018404365" lon="-8.671829011291266">
        <ele>242.38999999999999</ele>
        <time>2025-05-06T13:59:14Z</time>
      </trkpt>
      <trkpt lat="37.325857020914555" lon="-8.671775031834841">
        <ele>241.43000000000001</ele>
        <time>2025-05-06T13:59:15Z</time>
      </trkpt>
      <trkpt lat="37.325744032859802" lon="-8.671791963279247">
        <ele>240.47</ele>
        <time>2025-05-06T13:59:16Z</time>
      </trkpt>
      <trkpt lat="37.325486959889531" lon="-8.671830017119646">
        <ele>238.06</ele>
        <time>2025-05-06T13:59:18Z</time>
      </trkpt>
      <trkpt lat="37.325149001553655" lon="-8.67188198491931">
        <ele>234.22</ele>
        <time>2025-05-06T13:59:21Z</time>
      </trkpt>
      <trkpt lat="37.325020004063845" lon="-8.671875027939677">
        <ele>232.78</ele>
        <time>2025-05-06T13:59:22Z</time>
      </trkpt>
      <trkpt lat="37.324898969382048" lon="-8.671867987141013">
        <ele>231.33000000000001</ele>
        <time>2025-05-06T13:59:23Z</time>
      </trkpt>
      <trkpt lat="37.324778018519282" lon="-8.671858012676239">
        <ele>229.88999999999999</ele>
        <time>2025-05-06T13:59:24Z</time>
      </trkpt>
      <trkpt lat="37.324654972180724" lon="-8.671797998249531">
        <ele>228.93000000000001</ele>
        <time>2025-05-06T13:59:25Z</time>
      </trkpt>
      <trkpt lat="37.324379039928317" lon="-8.671664977446199">
        <ele>226.05000000000001</ele>
        <time>2025-05-06T13:59:27Z</time>
      </trkpt>
      <trkpt lat="37.324243001639843" lon="-8.671599011868238">
        <ele>224.61000000000001</ele>
        <time>2025-05-06T13:59:28Z</time>
      </trkpt>
      <trkpt lat="37.324106963351369" lon="-8.671534974128008">
        <ele>223.16</ele>
        <time>2025-05-06T13:59:29Z</time>
      </trkpt>
      <trkpt lat="37.323622992262244" lon="-8.671457022428513">
        <ele>218.36000000000001</ele>
        <time>2025-05-06T13:59:33Z</time>
      </trkpt>
      <trkpt lat="37.323517967015505" lon="-8.671470014378429">
        <ele>217.40000000000001</ele>
        <time>2025-05-06T13:59:34Z</time>
      </trkpt>
      <trkpt lat="37.32341998256743" lon="-8.671506978571415">
        <ele>216.91</ele>
        <time>2025-05-06T13:59:35Z</time>
      </trkpt>
      <trkpt lat="37.323329960927367" lon="-8.671542014926672">
        <ele>215.94999999999999</ele>
        <time>2025-05-06T13:59:36Z</time>
      </trkpt>
      <trkpt lat="37.32324899174273" lon="-8.671599011868238">
        <ele>215.94999999999999</ele>
        <time>2025-05-06T13:59:37Z</time>
      </trkpt>
      <trkpt lat="37.323185037821531" lon="-8.671674029901624">
        <ele>215.47</ele>
        <time>2025-05-06T13:59:38Z</time>
      </trkpt>
      <trkpt lat="37.323123011738062" lon="-8.671772014349699">
        <ele>214.99000000000001</ele>
        <time>2025-05-06T13:59:39Z</time>
      </trkpt>
      <trkpt lat="37.322945985943079" lon="-8.672124976292253">
        <ele>214.50999999999999</ele>
        <time>2025-05-06T13:59:42Z</time>
      </trkpt>
      <trkpt lat="37.322866022586823" lon="-8.672238970175386">
        <ele>214.03</ele>
        <time>2025-05-06T13:59:43Z</time>
      </trkpt>
      <trkpt lat="37.322481041774154" lon="-8.672743979841471">
        <ele>213.55000000000001</ele>
        <time>2025-05-06T13:59:47Z</time>
      </trkpt>
      <trkpt lat="37.322359001263976" lon="-8.672855040058494">
        <ele>213.06999999999999</ele>
        <time>2025-05-06T13:59:48Z</time>
      </trkpt>
      <trkpt lat="37.322233021259308" lon="-8.67295403033495">
        <ele>212.59</ele>
        <time>2025-05-06T13:59:49Z</time>
      </trkpt>
      <trkpt lat="37.322102012112737" lon="-8.67301999591291">
        <ele>212.11000000000001</ele>
        <time>2025-05-06T13:59:50Z</time>
      </trkpt>
      <trkpt lat="37.321977037936449" lon="-8.673068024218082">
        <ele>211.63</ele>
        <time>2025-05-06T13:59:51Z</time>
      </trkpt>
      <trkpt lat="37.321838987991214" lon="-8.673088978976011">
        <ele>211.15000000000001</ele>
        <time>2025-05-06T13:59:52Z</time>
      </trkpt>
      <trkpt lat="37.321042036637664" lon="-8.673206996172667">
        <ele>207.30000000000001</ele>
        <time>2025-05-06T13:59:57Z</time>
      </trkpt>
      <trkpt lat="37.320739030838013" lon="-8.673259969800711">
        <ele>207.30000000000001</ele>
        <time>2025-05-06T13:59:59Z</time>
      </trkpt>
      <trkpt lat="37.320607015863061" lon="-8.673289977014065">
        <ele>207.78</ele>
        <time>2025-05-06T14:00:00Z</time>
      </trkpt>
      <trkpt lat="37.320463014766574" lon="-8.673317972570658">
        <ele>207.78</ele>
        <time>2025-05-06T14:00:01Z</time>
      </trkpt>
      <trkpt lat="37.320323958992958" lon="-8.673282014206052">
        <ele>208.25999999999999</ele>
        <time>2025-05-06T14:00:02Z</time>
      </trkpt>
      <trkpt lat="37.320182975381613" lon="-8.673244966194034">
        <ele>209.22</ele>
        <time>2025-05-06T14:00:03Z</time>
      </trkpt>
      <trkpt lat="37.319905031472445" lon="-8.673157962039113">
        <ele>209.69999999999999</ele>
        <time>2025-05-06T14:00:05Z</time>
      </trkpt>
      <trkpt lat="37.319786008447409" lon="-8.673103982582688">
        <ele>210.66999999999999</ele>
        <time>2025-05-06T14:00:06Z</time>
      </trkpt>
      <trkpt lat="37.319442015141249" lon="-8.672770969569683">
        <ele>213.06999999999999</ele>
        <time>2025-05-06T14:00:09Z</time>
      </trkpt>
      <trkpt lat="37.319328021258116" lon="-8.672651024535298">
        <ele>214.03</ele>
        <time>2025-05-06T14:00:10Z</time>
      </trkpt>
      <trkpt lat="37.319197012111545" lon="-8.672583969309926">
        <ele>214.99000000000001</ele>
        <time>2025-05-06T14:00:11Z</time>
      </trkpt>
      <trkpt lat="37.31892803683877" lon="-8.672562008723617">
        <ele>217.88</ele>
        <time>2025-05-06T14:00:13Z</time>
      </trkpt>
      <trkpt lat="37.318795016035438" lon="-8.672551028430462">
        <ele>218.84</ele>
        <time>2025-05-06T14:00:14Z</time>
      </trkpt>
      <trkpt lat="37.318667024374008" lon="-8.672539964318276">
        <ele>219.80000000000001</ele>
        <time>2025-05-06T14:00:15Z</time>
      </trkpt>
      <trkpt lat="37.318549007177353" lon="-8.672530995681882">
        <ele>220.28</ele>
        <time>2025-05-06T14:00:16Z</time>
      </trkpt>
      <trkpt lat="37.318459991365671" lon="-8.672540970146656">
        <ele>220.75999999999999</ele>
        <time>2025-05-06T14:00:17Z</time>
      </trkpt>
      <trkpt lat="37.318384973332286" lon="-8.672580029815435">
        <ele>221.72</ele>
        <time>2025-05-06T14:00:18Z</time>
      </trkpt>
      <trkpt lat="37.318353960290551" lon="-8.672658987343311">
        <ele>222.19999999999999</ele>
        <time>2025-05-06T14:00:19Z</time>
      </trkpt>
      <trkpt lat="37.31837198138237" lon="-8.672775998711586">
        <ele>222.68000000000001</ele>
        <time>2025-05-06T14:00:20Z</time>
      </trkpt>
      <trkpt lat="37.318399976938963" lon="-8.6728909984231">
        <ele>223.16</ele>
        <time>2025-05-06T14:00:21Z</time>
      </trkpt>
      <trkpt lat="37.31850097887218" lon="-8.672973979264498">
        <ele>223.63999999999999</ele>
        <time>2025-05-06T14:00:22Z</time>
      </trkpt>
      <trkpt lat="37.318604998290539" lon="-8.67301999591291">
        <ele>224.61000000000001</ele>
        <time>2025-05-06T14:00:23Z</time>
      </trkpt>
      <trkpt lat="37.318716980516911" lon="-8.673069030046463">
        <ele>226.05000000000001</ele>
        <time>2025-05-06T14:00:24Z</time>
      </trkpt>
      <trkpt lat="37.318836003541946" lon="-8.673122003674507">
        <ele>227.97</ele>
        <time>2025-05-06T14:00:25Z</time>
      </trkpt>
      <trkpt lat="37.318945974111557" lon="-8.67317195981741">
        <ele>229.88999999999999</ele>
        <time>2025-05-06T14:00:26Z</time>
      </trkpt>
      <trkpt lat="37.319035995751619" lon="-8.673263993114233">
        <ele>231.81</ele>
        <time>2025-05-06T14:00:27Z</time>
      </trkpt>
      <trkpt lat="37.319115037098527" lon="-8.673389973118901">
        <ele>233.74000000000001</ele>
        <time>2025-05-06T14:00:28Z</time>
      </trkpt>
      <trkpt lat="37.319198017939925" lon="-8.673521988093853">
        <ele>235.66</ele>
        <time>2025-05-06T14:00:29Z</time>
      </trkpt>
      <trkpt lat="37.319319974631071" lon="-8.673603041097522">
        <ele>237.58000000000001</ele>
        <time>2025-05-06T14:00:30Z</time>
      </trkpt>
      <trkpt lat="37.319432962685823" lon="-8.673671018332243">
        <ele>239.50999999999999</ele>
        <time>2025-05-06T14:00:31Z</time>
      </trkpt>
      <trkpt lat="37.319516027346253" lon="-8.673720974475145">
        <ele>241.43000000000001</ele>
        <time>2025-05-06T14:00:32Z</time>
      </trkpt>
      <trkpt lat="37.319545028731227" lon="-8.673818958923221">
        <ele>243.34999999999999</ele>
        <time>2025-05-06T14:00:33Z</time>
      </trkpt>
      <trkpt lat="37.319527007639408" lon="-8.673877967521548">
        <ele>245.27000000000001</ele>
        <time>2025-05-06T14:00:34Z</time>
      </trkpt>
      <trkpt lat="37.319505969062448" lon="-8.673920966684818">
        <ele>246.22999999999999</ele>
        <time>2025-05-06T14:00:35Z</time>
      </trkpt>
      <trkpt lat="37.319407984614372" lon="-8.67394401691854">
        <ele>247.19999999999999</ele>
        <time>2025-05-06T14:00:36Z</time>
      </trkpt>
      <trkpt lat="37.319306982681155" lon="-8.673967989161611">
        <ele>248.63999999999999</ele>
        <time>2025-05-06T14:00:37Z</time>
      </trkpt>
      <trkpt lat="37.31905804015696" lon="-8.674028003588319">
        <ele>250.56</ele>
        <time>2025-05-06T14:00:39Z</time>
      </trkpt>
      <trkpt lat="37.318941028788686" lon="-8.674042001366615">
        <ele>252</ele>
        <time>2025-05-06T14:00:40Z</time>
      </trkpt>
      <trkpt lat="37.318818988278508" lon="-8.674006965011358">
        <ele>253.44</ele>
        <time>2025-05-06T14:00:41Z</time>
      </trkpt>
      <trkpt lat="37.318593012169003" lon="-8.673825999721885">
        <ele>256.81</ele>
        <time>2025-05-06T14:00:43Z</time>
      </trkpt>
      <trkpt lat="37.318454962223768" lon="-8.673748970031738">
        <ele>258.73000000000002</ele>
        <time>2025-05-06T14:00:44Z</time>
      </trkpt>
      <trkpt lat="37.318323031067848" lon="-8.673748970031738">
        <ele>260.64999999999998</ele>
        <time>2025-05-06T14:00:45Z</time>
      </trkpt>
      <trkpt lat="37.318066963925958" lon="-8.673834968358278">
        <ele>264.5</ele>
        <time>2025-05-06T14:00:47Z</time>
      </trkpt>
      <trkpt lat="37.317961016669869" lon="-8.673877967521548">
        <ele>266.42000000000002</ele>
        <time>2025-05-06T14:00:48Z</time>
      </trkpt>
      <trkpt lat="37.317872000858188" lon="-8.673847960308194">
        <ele>267.86000000000001</ele>
        <time>2025-05-06T14:00:49Z</time>
      </trkpt>
      <trkpt lat="37.317709978669882" lon="-8.673666995018721">
        <ele>271.23000000000002</ele>
        <time>2025-05-06T14:00:51Z</time>
      </trkpt>
      <trkpt lat="37.3176209628582" lon="-8.673590971156955">
        <ele>272.19</ele>
        <time>2025-05-06T14:00:52Z</time>
      </trkpt>
      <trkpt lat="37.317492971196771" lon="-8.673564987257123">
        <ele>273.63</ele>
        <time>2025-05-06T14:00:53Z</time>
      </trkpt>
      <trkpt lat="37.317337989807129" lon="-8.673533974215388">
        <ele>275.06999999999999</ele>
        <time>2025-05-06T14:00:54Z</time>
      </trkpt>
      <trkpt lat="37.317193988710642" lon="-8.67355702444911">
        <ele>276.51999999999998</ele>
        <time>2025-05-06T14:00:55Z</time>
      </trkpt>
      <trkpt lat="37.317067002877593" lon="-8.673576973378658">
        <ele>278.44</ele>
        <time>2025-05-06T14:00:56Z</time>
      </trkpt>
      <trkpt lat="37.316971030086279" lon="-8.673591976985335">
        <ele>279.88</ele>
        <time>2025-05-06T14:00:57Z</time>
      </trkpt>
      <trkpt lat="37.316912021487951" lon="-8.673617960885167">
        <ele>281.80000000000001</ele>
        <time>2025-05-06T14:00:58Z</time>
      </trkpt>
      <trkpt lat="37.316877990961075" lon="-8.673651991412044">
        <ele>283.25</ele>
        <time>2025-05-06T14:00:59Z</time>
      </trkpt>
      <trkpt lat="37.316890982910991" lon="-8.673712005838752">
        <ele>285.17000000000002</ele>
        <time>2025-05-06T14:01:00Z</time>
      </trkpt>
      <trkpt lat="37.316930964589119" lon="-8.673759028315544">
        <ele>286.61000000000001</ele>
        <time>2025-05-06T14:01:01Z</time>
      </trkpt>
      <trkpt lat="37.317011011764407" lon="-8.673796998336911">
        <ele>288.52999999999997</ele>
        <time>2025-05-06T14:01:02Z</time>
      </trkpt>
      <trkpt lat="37.317107990384102" lon="-8.673843014985323">
        <ele>290.45999999999998</ele>
        <time>2025-05-06T14:01:03Z</time>
      </trkpt>
      <trkpt lat="37.31721100397408" lon="-8.673891965299845">
        <ele>291.89999999999998</ele>
        <time>2025-05-06T14:01:04Z</time>
      </trkpt>
      <trkpt lat="37.317308988422155" lon="-8.673937981948257">
        <ele>292.86000000000001</ele>
        <time>2025-05-06T14:01:05Z</time>
      </trkpt>
      <trkpt lat="37.31736296787858" lon="-8.674048958346248">
        <ele>293.33999999999997</ele>
        <time>2025-05-06T14:01:06Z</time>
      </trkpt>
      <trkpt lat="37.317364979535341" lon="-8.674134034663439">
        <ele>293.33999999999997</ele>
        <time>2025-05-06T14:01:07Z</time>
      </trkpt>
      <trkpt lat="37.317337989807129" lon="-8.674200000241399">
        <ele>293.33999999999997</ele>
        <time>2025-05-06T14:01:08Z</time>
      </trkpt>
      <trkpt lat="37.317278981208801" lon="-8.674189019948244">
        <ele>293.81999999999999</ele>
        <time>2025-05-06T14:01:09Z</time>
      </trkpt>
      <trkpt lat="37.317193988710642" lon="-8.674174016341567">
        <ele>294.77999999999997</ele>
        <time>2025-05-06T14:01:10Z</time>
      </trkpt>
      <trkpt lat="37.317090975120664" lon="-8.674155995249748">
        <ele>295.74000000000001</ele>
        <time>2025-05-06T14:01:11Z</time>
      </trkpt>
      <trkpt lat="37.316973963752389" lon="-8.674135040491819">
        <ele>296.69999999999999</ele>
        <time>2025-05-06T14:01:12Z</time>
      </trkpt>
      <trkpt lat="37.316844966262579" lon="-8.674166975542903">
        <ele>298.14999999999998</ele>
        <time>2025-05-06T14:01:13Z</time>
      </trkpt>
      <trkpt lat="37.316707000136375" lon="-8.67420201189816">
        <ele>299.11000000000001</ele>
        <time>2025-05-06T14:01:14Z</time>
      </trkpt>
      <trkpt lat="37.316560987383127" lon="-8.674238976091147">
        <ele>300.06999999999999</ele>
        <time>2025-05-06T14:01:15Z</time>
      </trkpt>
      <trkpt lat="37.316120015457273" lon="-8.674280969426036">
        <ele>303.43000000000001</ele>
        <time>2025-05-06T14:01:18Z</time>
      </trkpt>
      <trkpt lat="37.316023036837578" lon="-8.674307037144899">
        <ele>304.38999999999999</ele>
        <time>2025-05-06T14:01:19Z</time>
      </trkpt>
      <trkpt lat="37.315961010754108" lon="-8.674333021044731">
        <ele>305.36000000000001</ele>
        <time>2025-05-06T14:01:20Z</time>
      </trkpt>
      <trkpt lat="37.315922034904361" lon="-8.674391023814678">
        <ele>306.31999999999999</ele>
        <time>2025-05-06T14:01:21Z</time>
      </trkpt>
      <trkpt lat="37.315922034904361" lon="-8.674436034634709">
        <ele>307.27999999999997</ele>
        <time>2025-05-06T14:01:22Z</time>
      </trkpt>
      <trkpt lat="37.315997974947095" lon="-8.674463024362922">
        <ele>308.24000000000001</ele>
        <time>2025-05-06T14:01:23Z</time>
      </trkpt>
      <trkpt lat="37.316066036000848" lon="-8.674489008262754">
        <ele>309.68000000000001</ele>
        <time>2025-05-06T14:01:24Z</time>
      </trkpt>
      <trkpt lat="37.316141976043582" lon="-8.674517003819346">
        <ele>310.16000000000003</ele>
        <time>2025-05-06T14:01:25Z</time>
      </trkpt>
      <trkpt lat="37.316224034875631" lon="-8.674547011032701">
        <ele>311.12</ele>
        <time>2025-05-06T14:01:26Z</time>
      </trkpt>
      <trkpt lat="37.31632998213172" lon="-8.674585986882448">
        <ele>312.56999999999999</ele>
        <time>2025-05-06T14:01:27Z</time>
      </trkpt>
      <trkpt lat="37.316388990730047" lon="-8.674692017957568">
        <ele>314.00999999999999</ele>
        <time>2025-05-06T14:01:28Z</time>
      </trkpt>
      <trkpt lat="37.316446993499994" lon="-8.674816992133856">
        <ele>314.97000000000003</ele>
        <time>2025-05-06T14:01:29Z</time>
      </trkpt>
      <trkpt lat="37.316484963521361" lon="-8.674961999058723">
        <ele>316.41000000000003</ele>
        <time>2025-05-06T14:01:30Z</time>
      </trkpt>
      <trkpt lat="37.316525029018521" lon="-8.675113962963224">
        <ele>317.85000000000002</ele>
        <time>2025-05-06T14:01:31Z</time>
      </trkpt>
      <trkpt lat="37.31656601652503" lon="-8.675272967666388">
        <ele>319.30000000000001</ele>
        <time>2025-05-06T14:01:32Z</time>
      </trkpt>
      <trkpt lat="37.316675987094641" lon="-8.67538302205503">
        <ele>320.74000000000001</ele>
        <time>2025-05-06T14:01:33Z</time>
      </trkpt>
      <trkpt lat="37.316796015948057" lon="-8.675483018159866">
        <ele>322.18000000000001</ele>
        <time>2025-05-06T14:01:34Z</time>
      </trkpt>
      <trkpt lat="37.316912021487951" lon="-8.675569016486406">
        <ele>323.13999999999999</ele>
        <time>2025-05-06T14:01:35Z</time>
      </trkpt>
      <trkpt lat="37.317007994279265" lon="-8.67564202286303">
        <ele>324.57999999999998</ele>
        <time>2025-05-06T14:01:36Z</time>
      </trkpt>
      <trkpt lat="37.317088963463902" lon="-8.675702037289739">
        <ele>326.01999999999998</ele>
        <time>2025-05-06T14:01:37Z</time>
      </trkpt>
      <trkpt lat="37.317160964012146" lon="-8.675756016746163">
        <ele>326.99000000000001</ele>
        <time>2025-05-06T14:01:38Z</time>
      </trkpt>
      <trkpt lat="37.317226007580757" lon="-8.675804967060685">
        <ele>327.94999999999999</ele>
        <time>2025-05-06T14:01:39Z</time>
      </trkpt>
      <trkpt lat="37.317240005359054" lon="-8.675903035327792">
        <ele>328.43000000000001</ele>
        <time>2025-05-06T14:01:40Z</time>
      </trkpt>
      <trkpt lat="37.317247968167067" lon="-8.675993978977203">
        <ele>328.43000000000001</ele>
        <time>2025-05-06T14:01:41Z</time>
      </trkpt>
      <trkpt lat="37.317226007580757" lon="-8.676076959818602">
        <ele>328.91000000000003</ele>
        <time>2025-05-06T14:01:42Z</time>
      </trkpt>
      <trkpt lat="37.317045964300632" lon="-8.676214003935456">
        <ele>329.38999999999999</ele>
        <time>2025-05-06T14:01:44Z</time>
      </trkpt>
      <trkpt lat="37.316619995981455" lon="-8.676251973956823">
        <ele>330.35000000000002</ele>
        <time>2025-05-06T14:01:47Z</time>
      </trkpt>
      <trkpt lat="37.316241972148418" lon="-8.6763930413872">
        <ele>331.31</ele>
        <time>2025-05-06T14:01:50Z</time>
      </trkpt>
      <trkpt lat="37.316148011013865" lon="-8.676436962559819">
        <ele>331.31</ele>
        <time>2025-05-06T14:01:51Z</time>
      </trkpt>
      <trkpt lat="37.316051032394171" lon="-8.676452971994877">
        <ele>331.79000000000002</ele>
        <time>2025-05-06T14:01:52Z</time>
      </trkpt>
      <trkpt lat="37.315957993268967" lon="-8.676405027508736">
        <ele>332.26999999999998</ele>
        <time>2025-05-06T14:01:53Z</time>
      </trkpt>
      <trkpt lat="37.315870989114046" lon="-8.676304025575519">
        <ele>332.26999999999998</ele>
        <time>2025-05-06T14:01:54Z</time>
      </trkpt>
      <trkpt lat="37.315805023536086" lon="-8.676165975630283">
        <ele>332.26999999999998</ele>
        <time>2025-05-06T14:01:55Z</time>
      </trkpt>
      <trkpt lat="37.315730005502701" lon="-8.67600898258388">
        <ele>332.75</ele>
        <time>2025-05-06T14:01:56Z</time>
      </trkpt>
      <trkpt lat="37.315639983862638" lon="-8.675871016457677">
        <ele>333.23000000000002</ele>
        <time>2025-05-06T14:01:57Z</time>
      </trkpt>
      <trkpt lat="37.315510986372828" lon="-8.675742018967867">
        <ele>333.70999999999998</ele>
        <time>2025-05-06T14:01:58Z</time>
      </trkpt>
      <trkpt lat="37.315102033317089" lon="-8.675433984026313">
        <ele>335.16000000000003</ele>
        <time>2025-05-06T14:02:01Z</time>
      </trkpt>
      <trkpt lat="37.314820988103747" lon="-8.675274979323149">
        <ele>335.63999999999999</ele>
        <time>2025-05-06T14:02:03Z</time>
      </trkpt>
      <trkpt lat="37.314684027805924" lon="-8.675201972946525">
        <ele>336.60000000000002</ele>
        <time>2025-05-06T14:02:04Z</time>
      </trkpt>
      <trkpt lat="37.314560981467366" lon="-8.675098037347198">
        <ele>337.56</ele>
        <time>2025-05-06T14:02:05Z</time>
      </trkpt>
      <trkpt lat="37.314472971484065" lon="-8.674985971301794">
        <ele>339</ele>
        <time>2025-05-06T14:02:06Z</time>
      </trkpt>
      <trkpt lat="37.314390996471047" lon="-8.674881029874086">
        <ele>340.92000000000002</ele>
        <time>2025-05-06T14:02:07Z</time>
      </trkpt>
      <trkpt lat="37.31422696262598" lon="-8.674671985208988">
        <ele>343.81</ele>
        <time>2025-05-06T14:02:09Z</time>
      </trkpt>
      <trkpt lat="37.314173988997936" lon="-8.674644995480776">
        <ele>344.76999999999998</ele>
        <time>2025-05-06T14:02:10Z</time>
      </trkpt>
      <trkpt lat="37.314063012599945" lon="-8.674607025459409">
        <ele>347.17000000000002</ele>
        <time>2025-05-06T14:02:12Z</time>
      </trkpt>
      <trkpt lat="37.313994029536843" lon="-8.674607025459409">
        <ele>349.57999999999998</ele>
        <time>2025-05-06T14:02:14Z</time>
      </trkpt>
      <trkpt lat="37.313926974311471" lon="-8.67465203627944">
        <ele>350.54000000000002</ele>
        <time>2025-05-06T14:02:15Z</time>
      </trkpt>
      <trkpt lat="37.313967039808631" lon="-8.675337005406618">
        <ele>356.79000000000002</ele>
        <time>2025-05-06T14:02:21Z</time>
      </trkpt>
      <trkpt lat="37.313951030373573" lon="-8.676126999780536">
        <ele>360.63</ele>
        <time>2025-05-06T14:02:25Z</time>
      </trkpt>
      <trkpt lat="37.313927980139852" lon="-8.67634903639555">
        <ele>361.58999999999997</ele>
        <time>2025-05-06T14:02:26Z</time>
      </trkpt>
      <trkpt lat="37.313905013725162" lon="-8.676581969484687">
        <ele>363.04000000000002</ele>
        <time>2025-05-06T14:02:27Z</time>
      </trkpt>
      <trkpt lat="37.313856985419989" lon="-8.676821021363139">
        <ele>364.48000000000002</ele>
        <time>2025-05-06T14:02:28Z</time>
      </trkpt>
      <trkpt lat="37.313781967386603" lon="-8.677064012736082">
        <ele>365.44</ele>
        <time>2025-05-06T14:02:29Z</time>
      </trkpt>
      <trkpt lat="37.313561020419002" lon="-8.677534991875291">
        <ele>366.39999999999998</ele>
        <time>2025-05-06T14:02:30Z</time>
      </trkpt>
      <trkpt lat="37.313426993787289" lon="-8.677753005176783">
        <ele>367.83999999999997</ele>
        <time>2025-05-06T14:02:31Z</time>
      </trkpt>
      <trkpt lat="37.313267989084125" lon="-8.677956014871597">
        <ele>369.27999999999997</ele>
        <time>2025-05-06T14:02:32Z</time>
      </trkpt>
      <trkpt lat="37.313100015744567" lon="-8.678151983767748">
        <ele>370.24000000000001</ele>
        <time>2025-05-06T14:02:33Z</time>
      </trkpt>
      <trkpt lat="37.312909997999668" lon="-8.678302019834518">
        <ele>372.64999999999998</ele>
        <time>2025-05-06T14:02:35Z</time>
      </trkpt>
      <trkpt lat="37.312712017446756" lon="-8.678424982354045">
        <ele>373.61000000000001</ele>
        <time>2025-05-06T14:02:36Z</time>
      </trkpt>
      <trkpt lat="37.3125059902668" lon="-8.678533025085926">
        <ele>374.56999999999999</ele>
        <time>2025-05-06T14:02:37Z</time>
      </trkpt>
      <trkpt lat="37.312282025814056" lon="-8.678619023412466">
        <ele>375.05000000000001</ele>
        <time>2025-05-06T14:02:38Z</time>
      </trkpt>
      <trkpt lat="37.312046997249126" lon="-8.678667973726988">
        <ele>375.52999999999997</ele>
        <time>2025-05-06T14:02:39Z</time>
      </trkpt>
      <trkpt lat="37.31046399101615" lon="-8.679024036973715">
        <ele>375.52999999999997</ele>
        <time>2025-05-06T14:02:46Z</time>
      </trkpt>
      <trkpt lat="37.310251006856561" lon="-8.679111041128635">
        <ele>375.52999999999997</ele>
        <time>2025-05-06T14:02:47Z</time>
      </trkpt>
      <trkpt lat="37.310061994940042" lon="-8.67925001308322">
        <ele>375.52999999999997</ele>
        <time>2025-05-06T14:02:48Z</time>
      </trkpt>
      <trkpt lat="37.30988597497344" lon="-8.679406000301242">
        <ele>376.00999999999999</ele>
        <time>2025-05-06T14:02:49Z</time>
      </trkpt>
      <trkpt lat="37.309737028554082" lon="-8.679593000560999">
        <ele>376.97000000000003</ele>
        <time>2025-05-06T14:02:50Z</time>
      </trkpt>
      <trkpt lat="37.309494037181139" lon="-8.680035984143615">
        <ele>378.42000000000002</ele>
        <time>2025-05-06T14:02:51Z</time>
      </trkpt>
      <trkpt lat="37.309494037181139" lon="-8.680034978315234">
        <ele>379.38</ele>
        <time>2025-05-06T14:02:52Z</time>
      </trkpt>
      <trkpt lat="37.309431005269289" lon="-8.680277969688177">
        <ele>380.81999999999999</ele>
        <time>2025-05-06T14:02:53Z</time>
      </trkpt>
      <trkpt lat="37.309385994449258" lon="-8.680524984374642">
        <ele>381.77999999999997</ele>
        <time>2025-05-06T14:02:54Z</time>
      </trkpt>
      <trkpt lat="37.309382976964116" lon="-8.680762024596334">
        <ele>382.74000000000001</ele>
        <time>2025-05-06T14:02:55Z</time>
      </trkpt>
      <trkpt lat="37.309396974742413" lon="-8.681280026212335">
        <ele>383.69999999999999</ele>
        <time>2025-05-06T14:02:56Z</time>
      </trkpt>
      <trkpt lat="37.309480961412191" lon="-8.683952009305358">
        <ele>385.63</ele>
        <time>2025-05-06T14:03:07Z</time>
      </trkpt>
      <trkpt lat="37.309184996411204" lon="-8.685840032994747">
        <ele>380.81999999999999</ele>
        <time>2025-05-06T14:03:13Z</time>
      </trkpt>
      <trkpt lat="37.308355020359159" lon="-8.688508998602629">
        <ele>369.75999999999999</ele>
        <time>2025-05-06T14:03:23Z</time>
      </trkpt>
      <trkpt lat="37.307595033198595" lon="-8.690827013924718">
        <ele>358.23000000000002</ele>
        <time>2025-05-06T14:03:32Z</time>
      </trkpt>
      <trkpt lat="37.307498976588249" lon="-8.691363958641887">
        <ele>355.33999999999997</ele>
        <time>2025-05-06T14:03:34Z</time>
      </trkpt>
      <trkpt lat="37.307452037930489" lon="-8.691624971106648">
        <ele>352.94</ele>
        <time>2025-05-06T14:03:36Z</time>
      </trkpt>
      <trkpt lat="37.307294961065054" lon="-8.692082958295941">
        <ele>351.5</ele>
        <time>2025-05-06T14:03:37Z</time>
      </trkpt>
      <trkpt lat="37.307294961065054" lon="-8.692082958295941">
        <ele>349.57999999999998</ele>
        <time>2025-05-06T14:03:38Z</time>
      </trkpt>
      <trkpt lat="37.30704702436924" lon="-8.692483026534319">
        <ele>348.13</ele>
        <time>2025-05-06T14:03:39Z</time>
      </trkpt>
      <trkpt lat="37.30704702436924" lon="-8.692483026534319">
        <ele>346.69</ele>
        <time>2025-05-06T14:03:40Z</time>
      </trkpt>
      <trkpt lat="37.306906040757895" lon="-8.69267899543047">
        <ele>345.25</ele>
        <time>2025-05-06T14:03:41Z</time>
      </trkpt>
      <trkpt lat="37.306734966114163" lon="-8.692849986255169">
        <ele>343.81</ele>
        <time>2025-05-06T14:03:42Z</time>
      </trkpt>
      <trkpt lat="37.305712038651109" lon="-8.693919014185667">
        <ele>335.63999999999999</ele>
        <time>2025-05-06T14:03:48Z</time>
      </trkpt>
      <trkpt lat="37.305550016462803" lon="-8.694116994738579">
        <ele>334.68000000000001</ele>
        <time>2025-05-06T14:03:49Z</time>
      </trkpt>
      <trkpt lat="37.305434010922909" lon="-8.694355040788651">
        <ele>333.70999999999998</ele>
        <time>2025-05-06T14:03:50Z</time>
      </trkpt>
      <trkpt lat="37.305237958207726" lon="-8.694841023534536">
        <ele>332.26999999999998</ele>
        <time>2025-05-06T14:03:51Z</time>
      </trkpt>
      <trkpt lat="37.305189007893205" lon="-8.695112010464072">
        <ele>331.31</ele>
        <time>2025-05-06T14:03:52Z</time>
      </trkpt>
      <trkpt lat="37.305118013173342" lon="-8.695664964616299">
        <ele>329.38999999999999</ele>
        <time>2025-05-06T14:03:54Z</time>
      </trkpt>
      <trkpt lat="37.304874015972018" lon="-8.698163023218513">
        <ele>321.22000000000003</ele>
        <time>2025-05-06T14:04:04Z</time>
      </trkpt>
      <trkpt lat="37.304801009595394" lon="-8.698418000712991">
        <ele>321.22000000000003</ele>
        <time>2025-05-06T14:04:05Z</time>
      </trkpt>
      <trkpt lat="37.304576961323619" lon="-8.698881017044187">
        <ele>321.22000000000003</ele>
        <time>2025-05-06T14:04:06Z</time>
      </trkpt>
      <trkpt lat="37.304455004632473" lon="-8.699100036174059">
        <ele>321.69999999999999</ele>
        <time>2025-05-06T14:04:07Z</time>
      </trkpt>
      <trkpt lat="37.304318966343999" lon="-8.699317965656519">
        <ele>322.18000000000001</ele>
        <time>2025-05-06T14:04:08Z</time>
      </trkpt>
      <trkpt lat="37.303627040237188" lon="-8.700421024113894">
        <ele>328.43000000000001</ele>
        <time>2025-05-06T14:04:13Z</time>
      </trkpt>
      <trkpt lat="37.302954979240894" lon="-8.702186001464725">
        <ele>338.51999999999998</ele>
        <time>2025-05-06T14:04:20Z</time>
      </trkpt>
      <trkpt lat="37.302821036428213" lon="-8.702410971745849">
        <ele>339.48000000000002</ele>
        <time>2025-05-06T14:04:21Z</time>
      </trkpt>
      <trkpt lat="37.302662031725049" lon="-8.702607024461031">
        <ele>340.92000000000002</ele>
        <time>2025-05-06T14:04:22Z</time>
      </trkpt>
      <trkpt lat="37.302500009536743" lon="-8.702794024720788">
        <ele>341.88999999999999</ele>
        <time>2025-05-06T14:04:23Z</time>
      </trkpt>
      <trkpt lat="37.302334969863296" lon="-8.702981024980545">
        <ele>342.85000000000002</ele>
        <time>2025-05-06T14:04:24Z</time>
      </trkpt>
      <trkpt lat="37.300373017787933" lon="-8.704895032569766">
        <ele>344.76999999999998</ele>
        <time>2025-05-06T14:04:35Z</time>
      </trkpt>
      <trkpt lat="37.299315975978971" lon="-8.70531102642417">
        <ele>342.37</ele>
        <time>2025-05-06T14:04:41Z</time>
      </trkpt>
      <trkpt lat="37.297060992568731" lon="-8.70537799783051">
        <ele>339</ele>
        <time>2025-05-06T14:04:51Z</time>
      </trkpt>
      <trkpt lat="37.296638041734695" lon="-8.70535695925355">
        <ele>339.95999999999998</ele>
        <time>2025-05-06T14:04:53Z</time>
      </trkpt>
      <trkpt lat="37.296420028433204" lon="-8.705369029194117">
        <ele>340.92000000000002</ele>
        <time>2025-05-06T14:04:54Z</time>
      </trkpt>
      <trkpt lat="37.296205032616854" lon="-8.70539995841682">
        <ele>341.88999999999999</ele>
        <time>2025-05-06T14:04:55Z</time>
      </trkpt>
      <trkpt lat="37.295990036800504" lon="-8.705480005592108">
        <ele>342.85000000000002</ele>
        <time>2025-05-06T14:04:56Z</time>
      </trkpt>
      <trkpt lat="37.295786021277308" lon="-8.705582013353705">
        <ele>343.81</ele>
        <time>2025-05-06T14:04:57Z</time>
      </trkpt>
      <trkpt lat="37.295591980218887" lon="-8.705724002793431">
        <ele>344.76999999999998</ele>
        <time>2025-05-06T14:04:58Z</time>
      </trkpt>
      <trkpt lat="37.295396011322737" lon="-8.705868003889918">
        <ele>345.73000000000002</ele>
        <time>2025-05-06T14:04:59Z</time>
      </trkpt>
      <trkpt lat="37.295200964435935" lon="-8.706012004986405">
        <ele>347.17000000000002</ele>
        <time>2025-05-06T14:05:00Z</time>
      </trkpt>
      <trkpt lat="37.295019999146461" lon="-8.706174027174711">
        <ele>348.13</ele>
        <time>2025-05-06T14:05:01Z</time>
      </trkpt>
      <trkpt lat="37.29484498500824" lon="-8.706352980807424">
        <ele>348.62</ele>
        <time>2025-05-06T14:05:02Z</time>
      </trkpt>
      <trkpt lat="37.294713975861669" lon="-8.706577029079199">
        <ele>349.10000000000002</ele>
        <time>2025-05-06T14:05:03Z</time>
      </trkpt>
      <trkpt lat="37.294581960886717" lon="-8.706805016845465">
        <ele>349.57999999999998</ele>
        <time>2025-05-06T14:05:04Z</time>
      </trkpt>
      <trkpt lat="37.2944809589535" lon="-8.707053959369659">
        <ele>349.57999999999998</ele>
        <time>2025-05-06T14:05:05Z</time>
      </trkpt>
      <trkpt lat="37.294399989768863" lon="-8.707301979884505">
        <ele>349.57999999999998</ele>
        <time>2025-05-06T14:05:06Z</time>
      </trkpt>
      <trkpt lat="37.294335030019283" lon="-8.707544971257448">
        <ele>349.57999999999998</ele>
        <time>2025-05-06T14:05:07Z</time>
      </trkpt>
      <trkpt lat="37.293895985931158" lon="-8.709286982193589">
        <ele>348.13</ele>
        <time>2025-05-06T14:05:16Z</time>
      </trkpt>
      <trkpt lat="37.293866984546185" lon="-8.709412040188909">
        <ele>348.62</ele>
        <time>2025-05-06T14:05:17Z</time>
      </trkpt>
      <trkpt lat="37.293846029788256" lon="-8.7095039896667">
        <ele>348.62</ele>
        <time>2025-05-06T14:05:18Z</time>
      </trkpt>
      <trkpt lat="37.293756008148193" lon="-8.709539026021957">
        <ele>348.62</ele>
        <time>2025-05-06T14:05:19Z</time>
      </trkpt>
      <trkpt lat="37.293667998164892" lon="-8.709558974951506">
        <ele>348.62</ele>
        <time>2025-05-06T14:05:20Z</time>
      </trkpt>
      <trkpt lat="37.293562972918153" lon="-8.709583031013608">
        <ele>348.13</ele>
        <time>2025-05-06T14:05:21Z</time>
      </trkpt>
      <trkpt lat="37.292968025431037" lon="-8.70971898548305">
        <ele>344.76999999999998</ele>
        <time>2025-05-06T14:05:25Z</time>
      </trkpt>
      <trkpt lat="37.292812038213015" lon="-8.709755027666688">
        <ele>343.81</ele>
        <time>2025-05-06T14:05:26Z</time>
      </trkpt>
      <trkpt lat="37.292638029903173" lon="-8.709719991311431">
        <ele>342.37</ele>
        <time>2025-05-06T14:05:27Z</time>
      </trkpt>
      <trkpt lat="37.292467039078474" lon="-8.709685960784555">
        <ele>341.41000000000003</ele>
        <time>2025-05-06T14:05:28Z</time>
      </trkpt>
      <trkpt lat="37.292297976091504" lon="-8.709623012691736">
        <ele>340.44</ele>
        <time>2025-05-06T14:05:29Z</time>
      </trkpt>
      <trkpt lat="37.291101040318608" lon="-8.70918296277523">
        <ele>336.12</ele>
        <time>2025-05-06T14:05:35Z</time>
      </trkpt>
      <trkpt lat="37.290002005174756" lon="-8.708904013037682">
        <ele>336.60000000000002</ele>
        <time>2025-05-06T14:05:40Z</time>
      </trkpt>
      <trkpt lat="37.290002005174756" lon="-8.708904013037682">
        <ele>337.07999999999998</ele>
        <time>2025-05-06T14:05:41Z</time>
      </trkpt>
      <trkpt lat="37.289694976061583" lon="-8.708984982222319">
        <ele>338.04000000000002</ele>
        <time>2025-05-06T14:05:43Z</time>
      </trkpt>
      <trkpt lat="37.289549969136715" lon="-8.709057988598943">
        <ele>338.51999999999998</ele>
        <time>2025-05-06T14:05:44Z</time>
      </trkpt>
      <trkpt lat="37.289410997182131" lon="-8.709127977490425">
        <ele>338.04000000000002</ele>
        <time>2025-05-06T14:05:45Z</time>
      </trkpt>
      <trkpt lat="37.289266996085644" lon="-8.709143986925483">
        <ele>337.56</ele>
        <time>2025-05-06T14:05:46Z</time>
      </trkpt>
      <trkpt lat="37.289116960018873" lon="-8.70913702994585">
        <ele>337.56</ele>
        <time>2025-05-06T14:05:47Z</time>
      </trkpt>
      <trkpt lat="37.288987040519714" lon="-8.70905002579093">
        <ele>337.07999999999998</ele>
        <time>2025-05-06T14:05:48Z</time>
      </trkpt>
      <trkpt lat="37.288842033594847" lon="-8.708953969180584">
        <ele>336.60000000000002</ele>
        <time>2025-05-06T14:05:49Z</time>
      </trkpt>
      <trkpt lat="37.288561994209886" lon="-8.708745008334518">
        <ele>335.63999999999999</ele>
        <time>2025-05-06T14:05:51Z</time>
      </trkpt>
      <trkpt lat="37.288453029468656" lon="-8.708635959774256">
        <ele>335.16000000000003</ele>
        <time>2025-05-06T14:05:52Z</time>
      </trkpt>
      <trkpt lat="37.28835697285831" lon="-8.708531018346548">
        <ele>334.68000000000001</ele>
        <time>2025-05-06T14:05:53Z</time>
      </trkpt>
      <trkpt lat="37.288282038643956" lon="-8.708411995321512">
        <ele>334.19999999999999</ele>
        <time>2025-05-06T14:05:54Z</time>
      </trkpt>
      <trkpt lat="37.288238033652306" lon="-8.708253996446729">
        <ele>334.19999999999999</ele>
        <time>2025-05-06T14:05:55Z</time>
      </trkpt>
      <trkpt lat="37.288202997297049" lon="-8.708081999793649">
        <ele>334.19999999999999</ele>
        <time>2025-05-06T14:05:56Z</time>
      </trkpt>
      <trkpt lat="37.287806030362844" lon="-8.706355998292565">
        <ele>330.82999999999998</ele>
        <time>2025-05-06T14:06:04Z</time>
      </trkpt>
      <trkpt lat="37.287489026784897" lon="-8.705112962052226">
        <ele>323.62</ele>
        <time>2025-05-06T14:06:10Z</time>
      </trkpt>
      <trkpt lat="37.287434041500092" lon="-8.704964015632868">
        <ele>322.18000000000001</ele>
        <time>2025-05-06T14:06:11Z</time>
      </trkpt>
      <trkpt lat="37.287362040951848" lon="-8.704820014536381">
        <ele>321.22000000000003</ele>
        <time>2025-05-06T14:06:12Z</time>
      </trkpt>
      <trkpt lat="37.287261039018631" lon="-8.704718006774783">
        <ele>319.77999999999997</ele>
        <time>2025-05-06T14:06:13Z</time>
      </trkpt>
      <trkpt lat="37.28715299628675" lon="-8.704610969871283">
        <ele>318.32999999999998</ele>
        <time>2025-05-06T14:06:14Z</time>
      </trkpt>
      <trkpt lat="37.287045959383249" lon="-8.704504016786814">
        <ele>316.88999999999999</ele>
        <time>2025-05-06T14:06:15Z</time>
      </trkpt>
      <trkpt lat="37.286977982148528" lon="-8.704347023740411">
        <ele>315.44999999999999</ele>
        <time>2025-05-06T14:06:16Z</time>
      </trkpt>
      <trkpt lat="37.286920985206962" lon="-8.704169997945428">
        <ele>314.00999999999999</ele>
        <time>2025-05-06T14:06:17Z</time>
      </trkpt>
      <trkpt lat="37.286864994093776" lon="-8.703990038484335">
        <ele>312.56999999999999</ele>
        <time>2025-05-06T14:06:18Z</time>
      </trkpt>
      <trkpt lat="37.28681000880897" lon="-8.703818963840604">
        <ele>311.12</ele>
        <time>2025-05-06T14:06:19Z</time>
      </trkpt>
      <trkpt lat="37.286752006039023" lon="-8.703634981065989">
        <ele>309.68000000000001</ele>
        <time>2025-05-06T14:06:20Z</time>
      </trkpt>
      <trkpt lat="37.286114981397986" lon="-8.702579028904438">
        <ele>301.02999999999997</ele>
        <time>2025-05-06T14:06:26Z</time>
      </trkpt>
      <trkpt lat="37.285815998911858" lon="-8.70219798758626">
        <ele>298.63</ele>
        <time>2025-05-06T14:06:28Z</time>
      </trkpt>
      <trkpt lat="37.285753972828388" lon="-8.702083993703127">
        <ele>297.67000000000002</ele>
        <time>2025-05-06T14:06:29Z</time>
      </trkpt>
      <trkpt lat="37.285757996141911" lon="-8.701943010091782">
        <ele>296.69999999999999</ele>
        <time>2025-05-06T14:06:30Z</time>
      </trkpt>
      <trkpt lat="37.285765958949924" lon="-8.701647967100143">
        <ele>293.33999999999997</ele>
        <time>2025-05-06T14:06:33Z</time>
      </trkpt>
      <trkpt lat="37.285770988091826" lon="-8.701502960175276">
        <ele>292.38</ele>
        <time>2025-05-06T14:06:34Z</time>
      </trkpt>
      <trkpt lat="37.285667974501848" lon="-8.701215041801333">
        <ele>291.42000000000002</ele>
        <time>2025-05-06T14:06:35Z</time>
      </trkpt>
      <trkpt lat="37.285279976204038" lon="-8.700619004666805">
        <ele>285.64999999999998</ele>
        <time>2025-05-06T14:06:40Z</time>
      </trkpt>
      <trkpt lat="37.285173023119569" lon="-8.700525965541601">
        <ele>284.69</ele>
        <time>2025-05-06T14:06:41Z</time>
      </trkpt>
      <trkpt lat="37.285054000094533" lon="-8.700479026883841">
        <ele>283.73000000000002</ele>
        <time>2025-05-06T14:06:42Z</time>
      </trkpt>
      <trkpt lat="37.284787958487868" lon="-8.700540969148278">
        <ele>281.80000000000001</ele>
        <time>2025-05-06T14:06:44Z</time>
      </trkpt>
      <trkpt lat="37.284154035151005" lon="-8.700769962742925">
        <ele>277.95999999999998</ele>
        <time>2025-05-06T14:06:48Z</time>
      </trkpt>
      <trkpt lat="37.284005004912615" lon="-8.700824026018381">
        <ele>277.48000000000002</ele>
        <time>2025-05-06T14:06:49Z</time>
      </trkpt>
      <trkpt lat="37.283871984109282" lon="-8.700818996876478">
        <ele>276.51999999999998</ele>
        <time>2025-05-06T14:06:50Z</time>
      </trkpt>
      <trkpt lat="37.283753966912627" lon="-8.700809022411704">
        <ele>276.51999999999998</ele>
        <time>2025-05-06T14:06:51Z</time>
      </trkpt>
      <trkpt lat="37.283679032698274" lon="-8.700739033520222">
        <ele>276.04000000000002</ele>
        <time>2025-05-06T14:06:52Z</time>
      </trkpt>
      <trkpt lat="37.283612983301282" lon="-8.700638031587005">
        <ele>276.04000000000002</ele>
        <time>2025-05-06T14:06:53Z</time>
      </trkpt>
      <trkpt lat="37.28356302715838" lon="-8.700495958328247">
        <ele>276.04000000000002</ele>
        <time>2025-05-06T14:06:54Z</time>
      </trkpt>
      <trkpt lat="37.283552968874574" lon="-8.70032899081707">
        <ele>275.56</ele>
        <time>2025-05-06T14:06:55Z</time>
      </trkpt>
      <trkpt lat="37.283540982753038" lon="-8.700152970850468">
        <ele>276.04000000000002</ele>
        <time>2025-05-06T14:06:56Z</time>
      </trkpt>
      <trkpt lat="37.283530002459884" lon="-8.699978040531278">
        <ele>275.56</ele>
        <time>2025-05-06T14:06:57Z</time>
      </trkpt>
      <trkpt lat="37.283516004681587" lon="-8.699820963665843">
        <ele>275.06999999999999</ele>
        <time>2025-05-06T14:06:58Z</time>
      </trkpt>
      <trkpt lat="37.28347803466022" lon="-8.699681991711259">
        <ele>274.11000000000001</ele>
        <time>2025-05-06T14:06:59Z</time>
      </trkpt>
      <trkpt lat="37.283407961949706" lon="-8.699566991999745">
        <ele>273.63</ele>
        <time>2025-05-06T14:07:00Z</time>
      </trkpt>
      <trkpt lat="37.283297991380095" lon="-8.699478982016444">
        <ele>272.67000000000002</ele>
        <time>2025-05-06T14:07:01Z</time>
      </trkpt>
      <trkpt lat="37.283173017203808" lon="-8.699378985911608">
        <ele>271.23000000000002</ele>
        <time>2025-05-06T14:07:02Z</time>
      </trkpt>
      <trkpt lat="37.281896034255624" lon="-8.698356980457902">
        <ele>259.20999999999998</ele>
        <time>2025-05-06T14:07:10Z</time>
      </trkpt>
      <trkpt lat="37.281596967950463" lon="-8.698156988248229">
        <ele>256.81</ele>
        <time>2025-05-06T14:07:12Z</time>
      </trkpt>
      <trkpt lat="37.281451961025596" lon="-8.698079958558083">
        <ele>255.84999999999999</ele>
        <time>2025-05-06T14:07:13Z</time>
      </trkpt>
      <trkpt lat="37.281307959929109" lon="-8.698019022122026">
        <ele>254.88999999999999</ele>
        <time>2025-05-06T14:07:14Z</time>
      </trkpt>
      <trkpt lat="37.281145015731454" lon="-8.698026984930039">
        <ele>253.44</ele>
        <time>2025-05-06T14:07:15Z</time>
      </trkpt>
      <trkpt lat="37.280980981886387" lon="-8.698036037385464">
        <ele>252</ele>
        <time>2025-05-06T14:07:16Z</time>
      </trkpt>
      <trkpt lat="37.280833963304758" lon="-8.698123963549733">
        <ele>250.08000000000001</ele>
        <time>2025-05-06T14:07:17Z</time>
      </trkpt>
      <trkpt lat="37.28070898912847" lon="-8.698241980746388">
        <ele>248.63999999999999</ele>
        <time>2025-05-06T14:07:18Z</time>
      </trkpt>
      <trkpt lat="37.280576974153519" lon="-8.698365027084947">
        <ele>247.19999999999999</ele>
        <time>2025-05-06T14:07:19Z</time>
      </trkpt>
      <trkpt lat="37.280442025512457" lon="-8.698493018746376">
        <ele>245.75</ele>
        <time>2025-05-06T14:07:20Z</time>
      </trkpt>
      <trkpt lat="37.279878007248044" lon="-8.698885040357709">
        <ele>240.94999999999999</ele>
        <time>2025-05-06T14:07:24Z</time>
      </trkpt>
      <trkpt lat="37.279721014201641" lon="-8.698920998722315">
        <ele>239.50999999999999</ele>
        <time>2025-05-06T14:07:25Z</time>
      </trkpt>
      <trkpt lat="37.279562009498477" lon="-8.698929967358708">
        <ele>238.53999999999999</ele>
        <time>2025-05-06T14:07:26Z</time>
      </trkpt>
      <trkpt lat="37.278324002400041" lon="-8.698517996817827">
        <ele>229.41</ele>
        <time>2025-05-06T14:07:33Z</time>
      </trkpt>
      <trkpt lat="37.278157034888864" lon="-8.698447002097964">
        <ele>228.44999999999999</ele>
        <time>2025-05-06T14:07:34Z</time>
      </trkpt>
      <trkpt lat="37.277981014922261" lon="-8.698438033461571">
        <ele>227.49000000000001</ele>
        <time>2025-05-06T14:07:35Z</time>
      </trkpt>
      <trkpt lat="37.277237037196755" lon="-8.698556972667575">
        <ele>221.72</ele>
        <time>2025-05-06T14:07:39Z</time>
      </trkpt>
      <trkpt lat="37.27705498225987" lon="-8.698603995144367">
        <ele>220.28</ele>
        <time>2025-05-06T14:07:40Z</time>
      </trkpt>
      <trkpt lat="37.276888014748693" lon="-8.698700973764062">
        <ele>218.84</ele>
        <time>2025-05-06T14:07:41Z</time>
      </trkpt>
      <trkpt lat="37.276117969304323" lon="-8.699284018948674">
        <ele>210.66999999999999</ele>
        <time>2025-05-06T14:07:46Z</time>
      </trkpt>
      <trkpt lat="37.275930969044566" lon="-8.699335986748338">
        <ele>208.74000000000001</ele>
        <time>2025-05-06T14:07:47Z</time>
      </trkpt>
      <trkpt lat="37.275784034281969" lon="-8.699376974254847">
        <ele>206.81999999999999</ele>
        <time>2025-05-06T14:07:48Z</time>
      </trkpt>
      <trkpt lat="37.275624023750424" lon="-8.699368005618453">
        <ele>204.90000000000001</ele>
        <time>2025-05-06T14:07:49Z</time>
      </trkpt>
      <trkpt lat="37.275456972420216" lon="-8.699332969263196">
        <ele>202.49000000000001</ele>
        <time>2025-05-06T14:07:50Z</time>
      </trkpt>
      <trkpt lat="37.275281958281994" lon="-8.699274966493249">
        <ele>200.09</ele>
        <time>2025-05-06T14:07:51Z</time>
      </trkpt>
      <trkpt lat="37.275109961628914" lon="-8.699153009802103">
        <ele>197.21000000000001</ele>
        <time>2025-05-06T14:07:52Z</time>
      </trkpt>
      <trkpt lat="37.273518992587924" lon="-8.698026984930039">
        <ele>177.5</ele>
        <time>2025-05-06T14:08:00Z</time>
      </trkpt>
      <trkpt lat="37.271783016622066" lon="-8.696791995316744">
        <ele>155.87</ele>
        <time>2025-05-06T14:08:09Z</time>
      </trkpt>
      <trkpt lat="37.271625017747283" lon="-8.696707002818584">
        <ele>153.47</ele>
        <time>2025-05-06T14:08:10Z</time>
      </trkpt>
      <trkpt lat="37.271465007215738" lon="-8.69665402919054">
        <ele>152.03</ele>
        <time>2025-05-06T14:08:11Z</time>
      </trkpt>
      <trkpt lat="37.271307008340955" lon="-8.696631984785199">
        <ele>150.58000000000001</ele>
        <time>2025-05-06T14:08:12Z</time>
      </trkpt>
      <trkpt lat="37.271136017516255" lon="-8.696658974513412">
        <ele>149.13999999999999</ele>
        <time>2025-05-06T14:08:13Z</time>
      </trkpt>
      <trkpt lat="37.270959997549653" lon="-8.696716977283359">
        <ele>148.18000000000001</ele>
        <time>2025-05-06T14:08:14Z</time>
      </trkpt>
      <trkpt lat="37.270569987595081" lon="-8.696843963116407">
        <ele>145.78</ele>
        <time>2025-05-06T14:08:16Z</time>
      </trkpt>
      <trkpt lat="37.26912503130734" lon="-8.697595987468958">
        <ele>137.13</ele>
        <time>2025-05-06T14:08:23Z</time>
      </trkpt>
      <trkpt lat="37.267612013965845" lon="-8.698517996817827">
        <ele>129.43000000000001</ele>
        <time>2025-05-06T14:08:31Z</time>
      </trkpt>
      <trkpt lat="37.267461977899075" lon="-8.698657974600792">
        <ele>128.94999999999999</ele>
        <time>2025-05-06T14:08:32Z</time>
      </trkpt>
      <trkpt lat="37.266860995441675" lon="-8.69927597232163">
        <ele>125.59</ele>
        <time>2025-05-06T14:08:36Z</time>
      </trkpt>
      <trkpt lat="37.26672001183033" lon="-8.699455009773374">
        <ele>124.63</ele>
        <time>2025-05-06T14:08:37Z</time>
      </trkpt>
      <trkpt lat="37.265859022736549" lon="-8.700568964704871">
        <ele>119.81999999999999</ele>
        <time>2025-05-06T14:08:44Z</time>
      </trkpt>
      <trkpt lat="37.265548976138234" lon="-8.700900971889496">
        <ele>119.34</ele>
        <time>2025-05-06T14:08:46Z</time>
      </trkpt>
      <trkpt lat="37.263850970193744" lon="-8.702095979824662">
        <ele>121.26000000000001</ele>
        <time>2025-05-06T14:08:55Z</time>
      </trkpt>
      <trkpt lat="37.262407019734383" lon="-8.703498020768166">
        <ele>118.38</ele>
        <time>2025-05-06T14:09:04Z</time>
      </trkpt>
      <trkpt lat="37.261834032833576" lon="-8.704120041802526">
        <ele>116.94</ele>
        <time>2025-05-06T14:09:09Z</time>
      </trkpt>
      <trkpt lat="37.261732025071979" lon="-8.704223977401853">
        <ele>116.94</ele>
        <time>2025-05-06T14:09:10Z</time>
      </trkpt>
      <trkpt lat="37.261599004268646" lon="-8.704287009313703">
        <ele>116.94</ele>
        <time>2025-05-06T14:09:11Z</time>
      </trkpt>
      <trkpt lat="37.260282039642334" lon="-8.704699985682964">
        <ele>118.86</ele>
        <time>2025-05-06T14:09:19Z</time>
      </trkpt>
      <trkpt lat="37.259338991716504" lon="-8.70488396845758">
        <ele>122.70999999999999</ele>
        <time>2025-05-06T14:09:24Z</time>
      </trkpt>
      <trkpt lat="37.259154003113508" lon="-8.704896038398147">
        <ele>123.67</ele>
        <time>2025-05-06T14:09:25Z</time>
      </trkpt>
      <trkpt lat="37.258970020338893" lon="-8.704902995377779">
        <ele>124.15000000000001</ele>
        <time>2025-05-06T14:09:26Z</time>
      </trkpt>
      <trkpt lat="37.258462999016047" lon="-8.704847004264593">
        <ele>127.03</ele>
        <time>2025-05-06T14:09:29Z</time>
      </trkpt>
      <trkpt lat="37.258322015404701" lon="-8.704830994829536">
        <ele>127.51000000000001</ele>
        <time>2025-05-06T14:09:30Z</time>
      </trkpt>
      <trkpt lat="37.258182037621737" lon="-8.704839963465929">
        <ele>128.47</ele>
        <time>2025-05-06T14:09:31Z</time>
      </trkpt>
      <trkpt lat="37.257060036063194" lon="-8.70542099699378">
        <ele>130.40000000000001</ele>
        <time>2025-05-06T14:09:37Z</time>
      </trkpt>
      <trkpt lat="37.256658961996436" lon="-8.705628030002117">
        <ele>129.43000000000001</ele>
        <time>2025-05-06T14:09:39Z</time>
      </trkpt>
      <trkpt lat="37.256471961736679" lon="-8.705725008621812">
        <ele>128.47</ele>
        <time>2025-05-06T14:09:40Z</time>
      </trkpt>
      <trkpt lat="37.256290996447206" lon="-8.705796003341675">
        <ele>127.51000000000001</ele>
        <time>2025-05-06T14:09:41Z</time>
      </trkpt>
      <trkpt lat="37.255018958821893" lon="-8.70593698695302">
        <ele>120.3</ele>
        <time>2025-05-06T14:09:47Z</time>
      </trkpt>
      <trkpt lat="37.254156963899732" lon="-8.705819975584745">
        <ele>115.5</ele>
        <time>2025-05-06T14:09:51Z</time>
      </trkpt>
      <trkpt lat="37.253931993618608" lon="-8.705787034705281">
        <ele>114.53</ele>
        <time>2025-05-06T14:09:52Z</time>
      </trkpt>
      <trkpt lat="37.252443032339215" lon="-8.705855011940002">
        <ele>110.20999999999999</ele>
        <time>2025-05-06T14:09:59Z</time>
      </trkpt>
      <trkpt lat="37.251375010237098" lon="-8.70608601719141">
        <ele>110.20999999999999</ele>
        <time>2025-05-06T14:10:05Z</time>
      </trkpt>
      <trkpt lat="37.249422026798129" lon="-8.706714995205402">
        <ele>109.73</ele>
        <time>2025-05-06T14:10:14Z</time>
      </trkpt>
      <trkpt lat="37.24772703833878" lon="-8.707427959889174">
        <ele>107.81</ele>
        <time>2025-05-06T14:10:22Z</time>
      </trkpt>
      <trkpt lat="37.247565016150475" lon="-8.707509012892842">
        <ele>108.77</ele>
        <time>2025-05-06T14:10:23Z</time>
      </trkpt>
      <trkpt lat="37.247419003397226" lon="-8.707598028704524">
        <ele>109.73</ele>
        <time>2025-05-06T14:10:24Z</time>
      </trkpt>
      <trkpt lat="37.2472960408777" lon="-8.707728032022715">
        <ele>110.69</ele>
        <time>2025-05-06T14:10:25Z</time>
      </trkpt>
      <trkpt lat="37.247228985652328" lon="-8.707900028675795">
        <ele>111.65000000000001</ele>
        <time>2025-05-06T14:10:26Z</time>
      </trkpt>
      <trkpt lat="37.247155979275703" lon="-8.708089040592313">
        <ele>113.09</ele>
        <time>2025-05-06T14:10:27Z</time>
      </trkpt>
      <trkpt lat="37.246796982362866" lon="-8.709047008305788">
        <ele>119.34</ele>
        <time>2025-05-06T14:10:32Z</time>
      </trkpt>
      <trkpt lat="37.246748032048345" lon="-8.709208024665713">
        <ele>120.3</ele>
        <time>2025-05-06T14:10:33Z</time>
      </trkpt>
      <trkpt lat="37.246701009571552" lon="-8.709360994398594">
        <ele>121.73999999999999</ele>
        <time>2025-05-06T14:10:34Z</time>
      </trkpt>
      <trkpt lat="37.246694974601269" lon="-8.709518993273377">
        <ele>122.22</ele>
        <time>2025-05-06T14:10:35Z</time>
      </trkpt>
      <trkpt lat="37.246727999299765" lon="-8.709680009633303">
        <ele>123.19</ele>
        <time>2025-05-06T14:10:36Z</time>
      </trkpt>
      <trkpt lat="37.246764041483402" lon="-8.709861980751157">
        <ele>123.67</ele>
        <time>2025-05-06T14:10:37Z</time>
      </trkpt>
      <trkpt lat="37.246840987354517" lon="-8.70999600738287">
        <ele>124.63</ele>
        <time>2025-05-06T14:10:38Z</time>
      </trkpt>
      <trkpt lat="37.247051959857345" lon="-8.710284009575844">
        <ele>126.06999999999999</ele>
        <time>2025-05-06T14:10:40Z</time>
      </trkpt>
      <trkpt lat="37.2478589694947" lon="-8.711146004498005">
        <ele>128.47</ele>
        <time>2025-05-06T14:10:46Z</time>
      </trkpt>
      <trkpt lat="37.24807103164494" lon="-8.711445992812514">
        <ele>128.94999999999999</ele>
        <time>2025-05-06T14:10:47Z</time>
      </trkpt>
      <trkpt lat="37.248130962252617" lon="-8.711637016385794">
        <ele>128.94999999999999</ele>
        <time>2025-05-06T14:10:49Z</time>
      </trkpt>
      <trkpt lat="37.248202040791512" lon="-8.711857963353396">
        <ele>129.43000000000001</ele>
        <time>2025-05-06T14:10:50Z</time>
      </trkpt>
      <trkpt lat="37.248379988595843" lon="-8.713001003488898">
        <ele>130.40000000000001</ele>
        <time>2025-05-06T14:10:55Z</time>
      </trkpt>
      <trkpt lat="37.248413013294339" lon="-8.713208958506584">
        <ele>130.40000000000001</ele>
        <time>2025-05-06T14:10:56Z</time>
      </trkpt>
      <trkpt lat="37.248416030779481" lon="-8.713420014828444">
        <ele>130.40000000000001</ele>
        <time>2025-05-06T14:10:57Z</time>
      </trkpt>
      <trkpt lat="37.248405972495675" lon="-8.713634004816413">
        <ele>130.88</ele>
        <time>2025-05-06T14:10:58Z</time>
      </trkpt>
      <trkpt lat="37.24835199303925" lon="-8.713831985369325">
        <ele>131.84</ele>
        <time>2025-05-06T14:10:59Z</time>
      </trkpt>
      <trkpt lat="37.24777196533978" lon="-8.71547500602901">
        <ele>136.63999999999999</ele>
        <time>2025-05-06T14:11:06Z</time>
      </trkpt>
      <trkpt lat="37.247263016179204" lon="-8.716864977031946">
        <ele>134.72</ele>
        <time>2025-05-06T14:11:13Z</time>
      </trkpt>
      <trkpt lat="37.247065035626292" lon="-8.717393958941102">
        <ele>130.40000000000001</ele>
        <time>2025-05-06T14:11:16Z</time>
      </trkpt>
      <trkpt lat="37.247051959857345" lon="-8.717612978070974">
        <ele>129.43000000000001</ele>
        <time>2025-05-06T14:11:17Z</time>
      </trkpt>
      <trkpt lat="37.247042991220951" lon="-8.717780029401183">
        <ele>127.98999999999999</ele>
        <time>2025-05-06T14:11:18Z</time>
      </trkpt>
      <trkpt lat="37.24708397872746" lon="-8.717912966385484">
        <ele>126.55</ele>
        <time>2025-05-06T14:11:19Z</time>
      </trkpt>
      <trkpt lat="37.247129995375872" lon="-8.718063002452254">
        <ele>124.63</ele>
        <time>2025-05-06T14:11:20Z</time>
      </trkpt>
      <trkpt lat="37.247172994539142" lon="-8.718202980235219">
        <ele>123.19</ele>
        <time>2025-05-06T14:11:21Z</time>
      </trkpt>
      <trkpt lat="37.247211970388889" lon="-8.718330971896648">
        <ele>121.73999999999999</ele>
        <time>2025-05-06T14:11:22Z</time>
      </trkpt>
      <trkpt lat="37.247184980660677" lon="-8.718455024063587">
        <ele>120.3</ele>
        <time>2025-05-06T14:11:23Z</time>
      </trkpt>
      <trkpt lat="37.247142987325788" lon="-8.718559965491295">
        <ele>118.86</ele>
        <time>2025-05-06T14:11:24Z</time>
      </trkpt>
      <trkpt lat="37.247085990384221" lon="-8.718659961596131">
        <ele>117.42</ele>
        <time>2025-05-06T14:11:25Z</time>
      </trkpt>
      <trkpt lat="37.246981970965862" lon="-8.718712013214827">
        <ele>115.98</ele>
        <time>2025-05-06T14:11:26Z</time>
      </trkpt>
      <trkpt lat="37.246864037588239" lon="-8.718754006549716">
        <ele>114.05</ele>
        <time>2025-05-06T14:11:27Z</time>
      </trkpt>
      <trkpt lat="37.246715007349849" lon="-8.718776972964406">
        <ele>112.61</ele>
        <time>2025-05-06T14:11:28Z</time>
      </trkpt>
      <trkpt lat="37.245507007464767" lon="-8.718986017629504">
        <ele>100.59999999999999</ele>
        <time>2025-05-06T14:11:35Z</time>
      </trkpt>
      <trkpt lat="37.244275035336614" lon="-8.719561016187072">
        <ele>95.790000000000006</ele>
        <time>2025-05-06T14:11:42Z</time>
      </trkpt>
      <trkpt lat="37.244086023420095" lon="-8.719613989815116">
        <ele>95.310000000000002</ele>
        <time>2025-05-06T14:11:43Z</time>
      </trkpt>
      <trkpt lat="37.243888964876533" lon="-8.719667969271541">
        <ele>95.790000000000006</ele>
        <time>2025-05-06T14:11:44Z</time>
      </trkpt>
      <trkpt lat="37.241940004751086" lon="-8.719776012003422">
        <ele>92.900000000000006</ele>
        <time>2025-05-06T14:11:54Z</time>
      </trkpt>
      <trkpt lat="37.241352014243603" lon="-8.719856981188059">
        <ele>92.420000000000002</ele>
        <time>2025-05-06T14:11:57Z</time>
      </trkpt>
      <trkpt lat="37.241168031468987" lon="-8.719911966472864">
        <ele>92.420000000000002</ele>
        <time>2025-05-06T14:11:58Z</time>
      </trkpt>
      <trkpt lat="37.239728020504117" lon="-8.720710007473826">
        <ele>96.75</ele>
        <time>2025-05-06T14:12:06Z</time>
      </trkpt>
      <trkpt lat="37.238183990120888" lon="-8.721599997952581">
        <ele>102.52</ele>
        <time>2025-05-06T14:12:15Z</time>
      </trkpt>
      <trkpt lat="37.237103981897235" lon="-8.722076006233692">
        <ele>101.08</ele>
        <time>2025-05-06T14:12:22Z</time>
      </trkpt>
      <trkpt lat="37.23696400411427" lon="-8.722133003175259">
        <ele>100.11</ele>
        <time>2025-05-06T14:12:23Z</time>
      </trkpt>
      <trkpt lat="37.236820003017783" lon="-8.722168039530516">
        <ele>100.11</ele>
        <time>2025-05-06T14:12:24Z</time>
      </trkpt>
      <trkpt lat="37.236680025234818" lon="-8.72211598791182">
        <ele>99.629999999999995</ele>
        <time>2025-05-06T14:12:25Z</time>
      </trkpt>
      <trkpt lat="37.236526971682906" lon="-8.722059996798635">
        <ele>99.150000000000006</ele>
        <time>2025-05-06T14:12:26Z</time>
      </trkpt>
      <trkpt lat="37.236205022782087" lon="-8.721924964338541">
        <ele>98.670000000000002</ele>
        <time>2025-05-06T14:12:28Z</time>
      </trkpt>
      <trkpt lat="37.236035037785769" lon="-8.721875008195639">
        <ele>98.670000000000002</ele>
        <time>2025-05-06T14:12:29Z</time>
      </trkpt>
      <trkpt lat="37.235852982848883" lon="-8.721863022074103">
        <ele>98.670000000000002</ele>
        <time>2025-05-06T14:12:30Z</time>
      </trkpt>
      <trkpt lat="37.234947988763452" lon="-8.721836032345891">
        <ele>98.189999999999998</ele>
        <time>2025-05-06T14:12:35Z</time>
      </trkpt>
      <trkpt lat="37.234785966575146" lon="-8.721875008195639">
        <ele>98.189999999999998</ele>
        <time>2025-05-06T14:12:36Z</time>
      </trkpt>
      <trkpt lat="37.234631991013885" lon="-8.721928987652063">
        <ele>97.709999999999994</ele>
        <time>2025-05-06T14:12:37Z</time>
      </trkpt>
      <trkpt lat="37.234491007402539" lon="-8.721978021785617">
        <ele>97.230000000000004</ele>
        <time>2025-05-06T14:12:38Z</time>
      </trkpt>
      <trkpt lat="37.234399979934096" lon="-8.722108025103807">
        <ele>97.230000000000004</ele>
        <time>2025-05-06T14:12:39Z</time>
      </trkpt>
      <trkpt lat="37.234329991042614" lon="-8.722234005108476">
        <ele>96.75</ele>
        <time>2025-05-06T14:12:40Z</time>
      </trkpt>
      <trkpt lat="37.23427802324295" lon="-8.722368031740189">
        <ele>96.75</ele>
        <time>2025-05-06T14:12:41Z</time>
      </trkpt>
      <trkpt lat="37.234284980222583" lon="-8.722518989816308">
        <ele>96.269999999999996</ele>
        <time>2025-05-06T14:12:42Z</time>
      </trkpt>
      <trkpt lat="37.234292021021247" lon="-8.722681012004614">
        <ele>95.310000000000002</ele>
        <time>2025-05-06T14:12:43Z</time>
      </trkpt>
      <trkpt lat="37.234324039891362" lon="-8.722858037799597">
        <ele>94.829999999999998</ele>
        <time>2025-05-06T14:12:44Z</time>
      </trkpt>
      <trkpt lat="37.23445001989603" lon="-8.723224997520447">
        <ele>93.870000000000005</ele>
        <time>2025-05-06T14:12:45Z</time>
      </trkpt>
      <trkpt lat="37.234876994043589" lon="-8.724388992413878">
        <ele>90.019999999999996</ele>
        <time>2025-05-06T14:12:53Z</time>
      </trkpt>
      <trkpt lat="37.234876994043589" lon="-8.724507009610534">
        <ele>90.019999999999996</ele>
        <time>2025-05-06T14:12:54Z</time>
      </trkpt>
      <trkpt lat="37.234876994043589" lon="-8.724604994058609">
        <ele>90.019999999999996</ele>
        <time>2025-05-06T14:12:55Z</time>
      </trkpt>
      <trkpt lat="37.23485997878015" lon="-8.724658973515034">
        <ele>89.540000000000006</ele>
        <time>2025-05-06T14:12:56Z</time>
      </trkpt>
      <trkpt lat="37.234785966575146" lon="-8.7247159704566">
        <ele>89.540000000000006</ele>
        <time>2025-05-06T14:12:57Z</time>
      </trkpt>
      <trkpt lat="37.234696028754115" lon="-8.724784031510353">
        <ele>89.060000000000002</ele>
        <time>2025-05-06T14:12:58Z</time>
      </trkpt>
      <trkpt lat="37.234491007402539" lon="-8.724940018728375">
        <ele>88.099999999999994</ele>
        <time>2025-05-06T14:13:00Z</time>
      </trkpt>
      <trkpt lat="37.234393022954464" lon="-8.724989974871278">
        <ele>87.620000000000005</ele>
        <time>2025-05-06T14:13:01Z</time>
      </trkpt>
      <trkpt lat="37.234319010749459" lon="-8.724989974871278">
        <ele>87.620000000000005</ele>
        <time>2025-05-06T14:13:02Z</time>
      </trkpt>
      <trkpt lat="37.234224965795875" lon="-8.724943036213517">
        <ele>87.140000000000001</ele>
        <time>2025-05-06T14:13:03Z</time>
      </trkpt>
      <trkpt lat="37.23414801992476" lon="-8.724862989038229">
        <ele>86.659999999999997</ele>
        <time>2025-05-06T14:13:04Z</time>
      </trkpt>
      <trkpt lat="37.233970994129777" lon="-8.724595019593835">
        <ele>87.140000000000001</ele>
        <time>2025-05-06T14:13:05Z</time>
      </trkpt>
      <trkpt lat="37.233235985040665" lon="-8.723487015813589">
        <ele>87.140000000000001</ele>
        <time>2025-05-06T14:13:11Z</time>
      </trkpt>
      <trkpt lat="37.232536012306809" lon="-8.722214978188276">
        <ele>88.099999999999994</ele>
        <time>2025-05-06T14:13:18Z</time>
      </trkpt>
      <trkpt lat="37.232154970988631" lon="-8.721483992412686">
        <ele>90.980000000000004</ele>
        <time>2025-05-06T14:13:24Z</time>
      </trkpt>
      <trkpt lat="37.232047012075782" lon="-8.721358012408018">
        <ele>93.870000000000005</ele>
        <time>2025-05-06T14:13:29Z</time>
      </trkpt>
      <trkpt lat="37.232033014297485" lon="-8.721343008801341">
        <ele>94.349999999999994</ele>
        <time>2025-05-06T14:13:30Z</time>
      </trkpt>
      <trkpt lat="37.232033014297485" lon="-8.721343008801341">
        <ele>94.829999999999998</ele>
        <time>2025-05-06T14:13:41Z</time>
      </trkpt>
      <trkpt lat="37.232065033167601" lon="-8.721262039616704">
        <ele>101.08</ele>
        <time>2025-05-06T14:21:20Z</time>
      </trkpt>
      <trkpt lat="37.232036031782627" lon="-8.721301015466452">
        <ele>103.48</ele>
        <time>2025-05-06T14:22:08Z</time>
      </trkpt>
      <trkpt lat="37.231845008209348" lon="-8.721185009926558">
        <ele>103.95999999999999</ele>
        <time>2025-05-06T14:22:25Z</time>
      </trkpt>
      <trkpt lat="37.231087032705545" lon="-8.720704978331924">
        <ele>104.44</ele>
        <time>2025-05-06T14:22:33Z</time>
      </trkpt>
      <trkpt lat="37.230642037466168" lon="-8.720432985574007">
        <ele>105.40000000000001</ele>
        <time>2025-05-06T14:22:36Z</time>
      </trkpt>
      <trkpt lat="37.230465011671185" lon="-8.720384035259485">
        <ele>105.40000000000001</ele>
        <time>2025-05-06T14:22:37Z</time>
      </trkpt>
      <trkpt lat="37.229282995685935" lon="-8.719977010041475">
        <ele>108.77</ele>
        <time>2025-05-06T14:22:44Z</time>
      </trkpt>
      <trkpt lat="37.229008991271257" lon="-8.719863016158342">
        <ele>110.69</ele>
        <time>2025-05-06T14:22:46Z</time>
      </trkpt>
      <trkpt lat="37.228865996003151" lon="-8.719867039471865">
        <ele>111.17</ele>
        <time>2025-05-06T14:22:47Z</time>
      </trkpt>
      <trkpt lat="37.22871202044189" lon="-8.719870978966355">
        <ele>112.13</ele>
        <time>2025-05-06T14:22:48Z</time>
      </trkpt>
      <trkpt lat="37.228549998253584" lon="-8.719875002279878">
        <ele>113.09</ele>
        <time>2025-05-06T14:22:49Z</time>
      </trkpt>
      <trkpt lat="37.228384958580136" lon="-8.7198790255934">
        <ele>114.05</ele>
        <time>2025-05-06T14:22:50Z</time>
      </trkpt>
      <trkpt lat="37.228214973583817" lon="-8.719883970916271">
        <ele>115.01000000000001</ele>
        <time>2025-05-06T14:22:51Z</time>
      </trkpt>
      <trkpt lat="37.227254994213581" lon="-8.719977010041475">
        <ele>121.73999999999999</ele>
        <time>2025-05-06T14:22:57Z</time>
      </trkpt>
      <trkpt lat="37.227130020037293" lon="-8.720027972012758">
        <ele>122.70999999999999</ele>
        <time>2025-05-06T14:22:58Z</time>
      </trkpt>
      <trkpt lat="37.227020971477032" lon="-8.720108019188047">
        <ele>124.15000000000001</ele>
        <time>2025-05-06T14:22:59Z</time>
      </trkpt>
      <trkpt lat="37.226930027827621" lon="-8.720217989757657">
        <ele>124.63</ele>
        <time>2025-05-06T14:23:00Z</time>
      </trkpt>
      <trkpt lat="37.226837994530797" lon="-8.720343969762325">
        <ele>125.11</ele>
        <time>2025-05-06T14:23:01Z</time>
      </trkpt>
      <trkpt lat="37.226775968447328" lon="-8.720487970858812">
        <ele>125.59</ele>
        <time>2025-05-06T14:23:02Z</time>
      </trkpt>
      <trkpt lat="37.226716037839651" lon="-8.720628032460809">
        <ele>126.06999999999999</ele>
        <time>2025-05-06T14:23:03Z</time>
      </trkpt>
      <trkpt lat="37.226086976006627" lon="-8.72209302149713">
        <ele>125.11</ele>
        <time>2025-05-06T14:23:12Z</time>
      </trkpt>
      <trkpt lat="37.225321959704161" lon="-8.7238750141114">
        <ele>110.69</ele>
        <time>2025-05-06T14:23:20Z</time>
      </trkpt>
      <trkpt lat="37.225207965821028" lon="-8.724266029894352">
        <ele>107.31999999999999</ele>
        <time>2025-05-06T14:23:22Z</time>
      </trkpt>
      <trkpt lat="37.22521198913455" lon="-8.724441966041923">
        <ele>105.88</ele>
        <time>2025-05-06T14:23:23Z</time>
      </trkpt>
      <trkpt lat="37.225227998569608" lon="-8.724622009322047">
        <ele>103.95999999999999</ele>
        <time>2025-05-06T14:23:24Z</time>
      </trkpt>
      <trkpt lat="37.225250964984298" lon="-8.724814038723707">
        <ele>102.52</ele>
        <time>2025-05-06T14:23:25Z</time>
      </trkpt>
      <trkpt lat="37.225292036309838" lon="-8.7249939981848">
        <ele>101.56</ele>
        <time>2025-05-06T14:23:26Z</time>
      </trkpt>
      <trkpt lat="37.225589007139206" lon="-8.72658203355968">
        <ele>95.790000000000006</ele>
        <time>2025-05-06T14:23:35Z</time>
      </trkpt>
      <trkpt lat="37.225615996867418" lon="-8.726757969707251">
        <ele>96.75</ele>
        <time>2025-05-06T14:23:36Z</time>
      </trkpt>
      <trkpt lat="37.22559898160398" lon="-8.726900964975357">
        <ele>97.709999999999994</ele>
        <time>2025-05-06T14:23:37Z</time>
      </trkpt>
      <trkpt lat="37.225547013804317" lon="-8.727014036849141">
        <ele>99.150000000000006</ele>
        <time>2025-05-06T14:23:38Z</time>
      </trkpt>
      <trkpt lat="37.225481970235705" lon="-8.727090982720256">
        <ele>100.59999999999999</ele>
        <time>2025-05-06T14:23:39Z</time>
      </trkpt>
      <trkpt lat="37.225393960252404" lon="-8.727134987711906">
        <ele>102.52</ele>
        <time>2025-05-06T14:23:40Z</time>
      </trkpt>
      <trkpt lat="37.225292036309838" lon="-8.727133981883526">
        <ele>103.95999999999999</ele>
        <time>2025-05-06T14:23:41Z</time>
      </trkpt>
      <trkpt lat="37.225186005234718" lon="-8.727089976891875">
        <ele>105.40000000000001</ele>
        <time>2025-05-06T14:23:42Z</time>
      </trkpt>
      <trkpt lat="37.225087014958262" lon="-8.727048989385366">
        <ele>106.84</ele>
        <time>2025-05-06T14:23:43Z</time>
      </trkpt>
      <trkpt lat="37.224187972024083" lon="-8.726654034107924">
        <ele>120.78</ele>
        <time>2025-05-06T14:23:54Z</time>
      </trkpt>
      <trkpt lat="37.22336302511394" lon="-8.726267041638494">
        <ele>127.98999999999999</ele>
        <time>2025-05-06T14:24:00Z</time>
      </trkpt>
      <trkpt lat="37.22310796380043" lon="-8.726121028885245">
        <ele>129.91999999999999</ele>
        <time>2025-05-06T14:24:02Z</time>
      </trkpt>
      <trkpt lat="37.223010985180736" lon="-8.726033018901944">
        <ele>130.88</ele>
        <time>2025-05-06T14:24:03Z</time>
      </trkpt>
      <trkpt lat="37.222917024046183" lon="-8.72593897394836">
        <ele>131.36000000000001</ele>
        <time>2025-05-06T14:24:04Z</time>
      </trkpt>
      <trkpt lat="37.222841000184417" lon="-8.725778041407466">
        <ele>132.31999999999999</ele>
        <time>2025-05-06T14:24:05Z</time>
      </trkpt>
      <trkpt lat="37.222759025171399" lon="-8.725603027269244">
        <ele>132.80000000000001</ele>
        <time>2025-05-06T14:24:06Z</time>
      </trkpt>
      <trkpt lat="37.222488038241863" lon="-8.725104974582791">
        <ele>135.19999999999999</ele>
        <time>2025-05-06T14:24:09Z</time>
      </trkpt>
      <trkpt lat="37.222378989681602" lon="-8.724962985143066">
        <ele>136.16</ele>
        <time>2025-05-06T14:24:10Z</time>
      </trkpt>
      <trkpt lat="37.222250998020172" lon="-8.724838010966778">
        <ele>137.13</ele>
        <time>2025-05-06T14:24:11Z</time>
      </trkpt>
      <trkpt lat="37.220954988151789" lon="-8.723723972216249">
        <ele>142.88999999999999</ele>
        <time>2025-05-06T14:24:21Z</time>
      </trkpt>
      <trkpt lat="37.220833031460643" lon="-8.72366001829505">
        <ele>142.88999999999999</ele>
        <time>2025-05-06T14:24:22Z</time>
      </trkpt>
      <trkpt lat="37.22069900482893" lon="-8.72366001829505">
        <ele>142.88999999999999</ele>
        <time>2025-05-06T14:24:23Z</time>
      </trkpt>
      <trkpt lat="37.220552992075682" lon="-8.72366001829505">
        <ele>142.41</ele>
        <time>2025-05-06T14:24:24Z</time>
      </trkpt>
      <trkpt lat="37.220402033999562" lon="-8.72366001829505">
        <ele>141.44999999999999</ele>
        <time>2025-05-06T14:24:25Z</time>
      </trkpt>
      <trkpt lat="37.220249986276031" lon="-8.723684996366501">
        <ele>140.00999999999999</ele>
        <time>2025-05-06T14:24:26Z</time>
      </trkpt>
      <trkpt lat="37.220092993229628" lon="-8.72372598387301">
        <ele>139.05000000000001</ele>
        <time>2025-05-06T14:24:27Z</time>
      </trkpt>
      <trkpt lat="37.218861021101475" lon="-8.723965035751462">
        <ele>128.94999999999999</ele>
        <time>2025-05-06T14:24:34Z</time>
      </trkpt>
      <trkpt lat="37.217301987111568" lon="-8.723890017718077">
        <ele>118.38</ele>
        <time>2025-05-06T14:24:43Z</time>
      </trkpt>
      <trkpt lat="37.215571040287614" lon="-8.723347038030624">
        <ele>108.29000000000001</ele>
        <time>2025-05-06T14:24:53Z</time>
      </trkpt>
      <trkpt lat="37.214702004566789" lon="-8.722826018929482">
        <ele>103.95999999999999</ele>
        <time>2025-05-06T14:24:59Z</time>
      </trkpt>
      <trkpt lat="37.214644001796842" lon="-8.722790982574225">
        <ele>103.48</ele>
        <time>2025-05-06T14:25:00Z</time>
      </trkpt>
      <trkpt lat="37.214534031227231" lon="-8.72278100810945">
        <ele>103.48</ele>
        <time>2025-05-06T14:25:01Z</time>
      </trkpt>
      <trkpt lat="37.214504024013877" lon="-8.722841022536159">
        <ele>103</ele>
        <time>2025-05-06T14:25:02Z</time>
      </trkpt>
      <trkpt lat="37.214393969625235" lon="-8.722985023632646">
        <ele>103.48</ele>
        <time>2025-05-06T14:25:04Z</time>
      </trkpt>
      <trkpt lat="37.21429699100554" lon="-8.723001033067703">
        <ele>103.48</ele>
        <time>2025-05-06T14:25:05Z</time>
      </trkpt>
      <trkpt lat="37.214214010164142" lon="-8.72297303751111">
        <ele>103.95999999999999</ele>
        <time>2025-05-06T14:25:06Z</time>
      </trkpt>
      <trkpt lat="37.214141003787518" lon="-8.722890978679061">
        <ele>103.95999999999999</ele>
        <time>2025-05-06T14:25:07Z</time>
      </trkpt>
      <trkpt lat="37.2140590287745" lon="-8.722797017544508">
        <ele>104.44</ele>
        <time>2025-05-06T14:25:08Z</time>
      </trkpt>
      <trkpt lat="37.213970012962818" lon="-8.72269500978291">
        <ele>105.40000000000001</ele>
        <time>2025-05-06T14:25:09Z</time>
      </trkpt>
      <trkpt lat="37.213885020464659" lon="-8.722620997577906">
        <ele>105.88</ele>
        <time>2025-05-06T14:25:10Z</time>
      </trkpt>
      <trkpt lat="37.213784018531442" lon="-8.722586967051029">
        <ele>106.84</ele>
        <time>2025-05-06T14:25:11Z</time>
      </trkpt>
      <trkpt lat="37.213693996891379" lon="-8.722604988142848">
        <ele>107.81</ele>
        <time>2025-05-06T14:25:12Z</time>
      </trkpt>
      <trkpt lat="37.213616967201233" lon="-8.722679000347853">
        <ele>109.25</ele>
        <time>2025-05-06T14:25:13Z</time>
      </trkpt>
      <trkpt lat="37.213555024936795" lon="-8.722772961482406">
        <ele>111.17</ele>
        <time>2025-05-06T14:25:14Z</time>
      </trkpt>
      <trkpt lat="37.21350003965199" lon="-8.72291000559926">
        <ele>113.09</ele>
        <time>2025-05-06T14:25:15Z</time>
      </trkpt>
      <trkpt lat="37.213495010510087" lon="-8.723066998645663">
        <ele>115.5</ele>
        <time>2025-05-06T14:25:16Z</time>
      </trkpt>
      <trkpt lat="37.213512025773525" lon="-8.723240001127124">
        <ele>117.90000000000001</ele>
        <time>2025-05-06T14:25:17Z</time>
      </trkpt>
      <trkpt lat="37.213537003844976" lon="-8.723413003608584">
        <ele>120.3</ele>
        <time>2025-05-06T14:25:18Z</time>
      </trkpt>
      <trkpt lat="37.213592994958162" lon="-8.723587011918426">
        <ele>122.70999999999999</ele>
        <time>2025-05-06T14:25:19Z</time>
      </trkpt>
      <trkpt lat="37.213647980242968" lon="-8.723754985257983">
        <ele>124.63</ele>
        <time>2025-05-06T14:25:20Z</time>
      </trkpt>
      <trkpt lat="37.213787036016583" lon="-8.724181959405541">
        <ele>130.40000000000001</ele>
        <time>2025-05-06T14:25:23Z</time>
      </trkpt>
      <trkpt lat="37.213791981339455" lon="-8.724316991865635">
        <ele>131.84</ele>
        <time>2025-05-06T14:25:24Z</time>
      </trkpt>
      <trkpt lat="37.213761974126101" lon="-8.724496029317379">
        <ele>133.28</ele>
        <time>2025-05-06T14:25:25Z</time>
      </trkpt>
      <trkpt lat="37.213701959699392" lon="-8.724597031250596">
        <ele>134.72</ele>
        <time>2025-05-06T14:25:26Z</time>
      </trkpt>
      <trkpt lat="37.213619984686375" lon="-8.724732985720038">
        <ele>135.68000000000001</ele>
        <time>2025-05-06T14:25:27Z</time>
      </trkpt>
      <trkpt lat="37.21354597248137" lon="-8.7248869612813">
        <ele>137.13</ele>
        <time>2025-05-06T14:25:28Z</time>
      </trkpt>
      <trkpt lat="37.213487969711423" lon="-8.725060969591141">
        <ele>138.56999999999999</ele>
        <time>2025-05-06T14:25:29Z</time>
      </trkpt>
      <trkpt lat="37.21343700774014" lon="-8.725241012871265">
        <ele>139.53</ele>
        <time>2025-05-06T14:25:30Z</time>
      </trkpt>
      <trkpt lat="37.213342962786555" lon="-8.726664008572698">
        <ele>149.62</ele>
        <time>2025-05-06T14:25:37Z</time>
      </trkpt>
      <trkpt lat="37.2133510094136" lon="-8.726854026317596">
        <ele>151.06</ele>
        <time>2025-05-06T14:25:38Z</time>
      </trkpt>
      <trkpt lat="37.213391996920109" lon="-8.727021999657154">
        <ele>152.50999999999999</ele>
        <time>2025-05-06T14:25:39Z</time>
      </trkpt>
      <trkpt lat="37.213461985811591" lon="-8.727170024067164">
        <ele>153.94999999999999</ele>
        <time>2025-05-06T14:25:40Z</time>
      </trkpt>
      <trkpt lat="37.213525017723441" lon="-8.727302961051464">
        <ele>155.38999999999999</ele>
        <time>2025-05-06T14:25:41Z</time>
      </trkpt>
      <trkpt lat="37.213570028543472" lon="-8.727438999339938">
        <ele>156.34999999999999</ele>
        <time>2025-05-06T14:25:42Z</time>
      </trkpt>
      <trkpt lat="37.213569022715092" lon="-8.727590963244438">
        <ele>157.78999999999999</ele>
        <time>2025-05-06T14:25:43Z</time>
      </trkpt>
      <trkpt lat="37.213528035208583" lon="-8.727725995704532">
        <ele>158.27000000000001</ele>
        <time>2025-05-06T14:25:44Z</time>
      </trkpt>
      <trkpt lat="37.213471038267016" lon="-8.727873014286161">
        <ele>159.24000000000001</ele>
        <time>2025-05-06T14:25:45Z</time>
      </trkpt>
      <trkpt lat="37.213400965556502" lon="-8.72802103869617">
        <ele>160.19999999999999</ele>
        <time>2025-05-06T14:25:46Z</time>
      </trkpt>
      <trkpt lat="37.213175995275378" lon="-8.728499980643392">
        <ele>164.52000000000001</ele>
        <time>2025-05-06T14:25:49Z</time>
      </trkpt>
      <trkpt lat="37.213062001392245" lon="-8.72860299423337">
        <ele>165.47999999999999</ele>
        <time>2025-05-06T14:25:50Z</time>
      </trkpt>
      <trkpt lat="37.212927974760532" lon="-8.728700978681445">
        <ele>166.44999999999999</ele>
        <time>2025-05-06T14:25:51Z</time>
      </trkpt>
      <trkpt lat="37.212518015876412" lon="-8.729002978652716">
        <ele>169.81</ele>
        <time>2025-05-06T14:25:54Z</time>
      </trkpt>
      <trkpt lat="37.212430005893111" lon="-8.729154020547867">
        <ele>170.28999999999999</ele>
        <time>2025-05-06T14:25:55Z</time>
      </trkpt>
      <trkpt lat="37.212366973981261" lon="-8.729262985289097">
        <ele>170.77000000000001</ele>
        <time>2025-05-06T14:25:56Z</time>
      </trkpt>
      <trkpt lat="37.212346019223332" lon="-8.729365998879075">
        <ele>170.77000000000001</ele>
        <time>2025-05-06T14:25:57Z</time>
      </trkpt>
      <trkpt lat="37.212324980646372" lon="-8.729474963620305">
        <ele>170.77000000000001</ele>
        <time>2025-05-06T14:25:58Z</time>
      </trkpt>
      <trkpt lat="37.212345013394952" lon="-8.729562973603606">
        <ele>170.77000000000001</ele>
        <time>2025-05-06T14:25:59Z</time>
      </trkpt>
      <trkpt lat="37.212489014491439" lon="-8.73036696575582">
        <ele>166.93000000000001</ele>
        <time>2025-05-06T14:26:05Z</time>
      </trkpt>
      <trkpt lat="37.212474010884762" lon="-8.730528987944126">
        <ele>165.96000000000001</ele>
        <time>2025-05-06T14:26:06Z</time>
      </trkpt>
      <trkpt lat="37.212436962872744" lon="-8.730714982375503">
        <ele>165</ele>
        <time>2025-05-06T14:26:07Z</time>
      </trkpt>
      <trkpt lat="37.212397987022996" lon="-8.730912040919066">
        <ele>163.56</ele>
        <time>2025-05-06T14:26:08Z</time>
      </trkpt>
      <trkpt lat="37.212358005344868" lon="-8.731110021471977">
        <ele>162.12</ele>
        <time>2025-05-06T14:26:09Z</time>
      </trkpt>
      <trkpt lat="37.212264966219664" lon="-8.731628023087978">
        <ele>157.78999999999999</ele>
        <time>2025-05-06T14:26:12Z</time>
      </trkpt>
      <trkpt lat="37.212291033938527" lon="-8.731766995042563">
        <ele>156.83000000000001</ele>
        <time>2025-05-06T14:26:13Z</time>
      </trkpt>
      <trkpt lat="37.212339984253049" lon="-8.731908984482288">
        <ele>155.87</ele>
        <time>2025-05-06T14:26:14Z</time>
      </trkpt>
      <trkpt lat="37.212879024446011" lon="-8.733026962727308">
        <ele>148.18000000000001</ele>
        <time>2025-05-06T14:26:21Z</time>
      </trkpt>
      <trkpt lat="37.212968040257692" lon="-8.733294010162354">
        <ele>145.30000000000001</ele>
        <time>2025-05-06T14:26:23Z</time>
      </trkpt>
      <trkpt lat="37.212968040257692" lon="-8.73345997184515">
        <ele>143.84999999999999</ele>
        <time>2025-05-06T14:26:24Z</time>
      </trkpt>
      <trkpt lat="37.212947001680732" lon="-8.733606990426779">
        <ele>141.93000000000001</ele>
        <time>2025-05-06T14:26:25Z</time>
      </trkpt>
      <trkpt lat="37.212906014174223" lon="-8.733759038150311">
        <ele>140.97</ele>
        <time>2025-05-06T14:26:26Z</time>
      </trkpt>
      <trkpt lat="37.212865026667714" lon="-8.73390999622643">
        <ele>139.53</ele>
        <time>2025-05-06T14:26:27Z</time>
      </trkpt>
      <trkpt lat="37.212810041382909" lon="-8.734043017029762">
        <ele>138.09</ele>
        <time>2025-05-06T14:26:28Z</time>
      </trkpt>
      <trkpt lat="37.212735023349524" lon="-8.734148964285851">
        <ele>136.63999999999999</ele>
        <time>2025-05-06T14:26:29Z</time>
      </trkpt>
      <trkpt lat="37.212641984224319" lon="-8.734215013682842">
        <ele>135.19999999999999</ele>
        <time>2025-05-06T14:26:30Z</time>
      </trkpt>
      <trkpt lat="37.212526984512806" lon="-8.734293971210718">
        <ele>133.75999999999999</ele>
        <time>2025-05-06T14:26:31Z</time>
      </trkpt>
      <trkpt lat="37.212395975366235" lon="-8.734384998679161">
        <ele>132.31999999999999</ele>
        <time>2025-05-06T14:26:32Z</time>
      </trkpt>
      <trkpt lat="37.212251974269748" lon="-8.734484994783998">
        <ele>130.88</ele>
        <time>2025-05-06T14:26:33Z</time>
      </trkpt>
      <trkpt lat="37.2121059615165" lon="-8.734608963131905">
        <ele>128.94999999999999</ele>
        <time>2025-05-06T14:26:34Z</time>
      </trkpt>
      <trkpt lat="37.211961960420012" lon="-8.734757993370295">
        <ele>127.03</ele>
        <time>2025-05-06T14:26:35Z</time>
      </trkpt>
      <trkpt lat="37.211538003757596" lon="-8.735195025801659">
        <ele>121.26000000000001</ele>
        <time>2025-05-06T14:26:38Z</time>
      </trkpt>
      <trkpt lat="37.211390985175967" lon="-8.735323017463088">
        <ele>118.86</ele>
        <time>2025-05-06T14:26:39Z</time>
      </trkpt>
      <trkpt lat="37.211232986301184" lon="-8.735453020781279">
        <ele>116.94</ele>
        <time>2025-05-06T14:26:40Z</time>
      </trkpt>
      <trkpt lat="37.211063001304865" lon="-8.735571959987283">
        <ele>114.53</ele>
        <time>2025-05-06T14:26:41Z</time>
      </trkpt>
      <trkpt lat="37.210881030187011" lon="-8.735674973577261">
        <ele>111.65000000000001</ele>
        <time>2025-05-06T14:26:42Z</time>
      </trkpt>
      <trkpt lat="37.209796998649836" lon="-8.736594971269369">
        <ele>103.95999999999999</ele>
        <time>2025-05-06T14:26:49Z</time>
      </trkpt>
      <trkpt lat="37.209543026983738" lon="-8.736898982897401">
        <ele>103.48</ele>
        <time>2025-05-06T14:26:51Z</time>
      </trkpt>
      <trkpt lat="37.209315039217472" lon="-8.737178016453981">
        <ele>102.04000000000001</ele>
        <time>2025-05-06T14:26:53Z</time>
      </trkpt>
      <trkpt lat="37.209208002313972" lon="-8.737308019772172">
        <ele>101.08</ele>
        <time>2025-05-06T14:26:54Z</time>
      </trkpt>
      <trkpt lat="37.208676002919674" lon="-8.737722001969814">
        <ele>96.75</ele>
        <time>2025-05-06T14:26:59Z</time>
      </trkpt>
      <trkpt lat="37.208578018471599" lon="-8.73775796033442">
        <ele>96.269999999999996</ele>
        <time>2025-05-06T14:27:00Z</time>
      </trkpt>
      <trkpt lat="37.208480034023523" lon="-8.737786039710045">
        <ele>95.310000000000002</ele>
        <time>2025-05-06T14:27:01Z</time>
      </trkpt>
      <trkpt lat="37.208225978538394" lon="-8.737886035814881">
        <ele>94.829999999999998</ele>
        <time>2025-05-06T14:27:04Z</time>
      </trkpt>
      <trkpt lat="37.208155989646912" lon="-8.737967004999518">
        <ele>94.349999999999994</ele>
        <time>2025-05-06T14:27:05Z</time>
      </trkpt>
      <trkpt lat="37.208086000755429" lon="-8.738047974184156">
        <ele>93.870000000000005</ele>
        <time>2025-05-06T14:27:06Z</time>
      </trkpt>
      <trkpt lat="37.208015006035566" lon="-8.738129027187824">
        <ele>93.390000000000001</ele>
        <time>2025-05-06T14:27:07Z</time>
      </trkpt>
      <trkpt lat="37.207944011315703" lon="-8.7382079847157">
        <ele>92.420000000000002</ele>
        <time>2025-05-06T14:27:08Z</time>
      </trkpt>
      <trkpt lat="37.207834962755442" lon="-8.7382079847157">
        <ele>91.459999999999994</ele>
        <time>2025-05-06T14:27:09Z</time>
      </trkpt>
      <trkpt lat="37.207706971094012" lon="-8.7382079847157">
        <ele>89.540000000000006</ele>
        <time>2025-05-06T14:27:10Z</time>
      </trkpt>
      <trkpt lat="37.207566993311048" lon="-8.7382079847157">
        <ele>88.579999999999998</ele>
        <time>2025-05-06T14:27:11Z</time>
      </trkpt>
      <trkpt lat="37.206333009526134" lon="-8.738189963623881">
        <ele>82.810000000000002</ele>
        <time>2025-05-06T14:27:19Z</time>
      </trkpt>
      <trkpt lat="37.205316033214331" lon="-8.73850797303021">
        <ele>82.329999999999998</ele>
        <time>2025-05-06T14:27:26Z</time>
      </trkpt>
      <trkpt lat="37.205249983817339" lon="-8.738588020205498">
        <ele>82.329999999999998</ele>
        <time>2025-05-06T14:27:27Z</time>
      </trkpt>
      <trkpt lat="37.205196004360914" lon="-8.738674018532038">
        <ele>82.810000000000002</ele>
        <time>2025-05-06T14:27:28Z</time>
      </trkpt>
      <trkpt lat="37.20518502406776" lon="-8.73876596800983">
        <ele>83.290000000000006</ele>
        <time>2025-05-06T14:27:29Z</time>
      </trkpt>
      <trkpt lat="37.205194998532534" lon="-8.738885996863246">
        <ele>84.25</ele>
        <time>2025-05-06T14:27:30Z</time>
      </trkpt>
      <trkpt lat="37.205221988260746" lon="-8.739017006009817">
        <ele>85.209999999999994</ele>
        <time>2025-05-06T14:27:31Z</time>
      </trkpt>
      <trkpt lat="37.205276973545551" lon="-8.739169975742698">
        <ele>87.140000000000001</ele>
        <time>2025-05-06T14:27:32Z</time>
      </trkpt>
      <trkpt lat="37.205335982143879" lon="-8.739331997931004">
        <ele>89.060000000000002</ele>
        <time>2025-05-06T14:27:33Z</time>
      </trkpt>
      <trkpt lat="37.205411000177264" lon="-8.739486979320645">
        <ele>91.459999999999994</ele>
        <time>2025-05-06T14:27:34Z</time>
      </trkpt>
      <trkpt lat="37.20550898462534" lon="-8.739627962931991">
        <ele>93.390000000000001</ele>
        <time>2025-05-06T14:27:35Z</time>
      </trkpt>
      <trkpt lat="37.205625995993614" lon="-8.739761989563704">
        <ele>96.269999999999996</ele>
        <time>2025-05-06T14:27:36Z</time>
      </trkpt>
      <trkpt lat="37.205755999311805" lon="-8.739873971790075">
        <ele>98.670000000000002</ele>
        <time>2025-05-06T14:27:37Z</time>
      </trkpt>
      <trkpt lat="37.20587401650846" lon="-8.739974973723292">
        <ele>101.56</ele>
        <time>2025-05-06T14:27:38Z</time>
      </trkpt>
      <trkpt lat="37.206583963707089" lon="-8.740532035008073">
        <ele>116.94</ele>
        <time>2025-05-06T14:27:46Z</time>
      </trkpt>
      <trkpt lat="37.207504967227578" lon="-8.740966971963644">
        <ele>126.06999999999999</ele>
        <time>2025-05-06T14:27:55Z</time>
      </trkpt>
      <trkpt lat="37.20770101994276" lon="-8.741137962788343">
        <ele>127.98999999999999</ele>
        <time>2025-05-06T14:27:57Z</time>
      </trkpt>
      <trkpt lat="37.207788024097681" lon="-8.741246005520225">
        <ele>128.94999999999999</ele>
        <time>2025-05-06T14:27:58Z</time>
      </trkpt>
      <trkpt lat="37.20787301659584" lon="-8.74136402271688">
        <ele>129.43000000000001</ele>
        <time>2025-05-06T14:27:59Z</time>
      </trkpt>
      <trkpt lat="37.207958009094" lon="-8.741481034085155">
        <ele>130.40000000000001</ele>
        <time>2025-05-06T14:28:00Z</time>
      </trkpt>
      <trkpt lat="37.20804400742054" lon="-8.741599973291159">
        <ele>131.84</ele>
        <time>2025-05-06T14:28:01Z</time>
      </trkpt>
      <trkpt lat="37.20813000574708" lon="-8.741718996316195">
        <ele>132.80000000000001</ele>
        <time>2025-05-06T14:28:02Z</time>
      </trkpt>
      <trkpt lat="37.208218015730381" lon="-8.741841036826372">
        <ele>133.28</ele>
        <time>2025-05-06T14:28:03Z</time>
      </trkpt>
      <trkpt lat="37.209197022020817" lon="-8.742971001192927">
        <ele>135.68000000000001</ele>
        <time>2025-05-06T14:28:14Z</time>
      </trkpt>
      <trkpt lat="37.209256030619144" lon="-8.743072003126144">
        <ele>135.68000000000001</ele>
        <time>2025-05-06T14:28:15Z</time>
      </trkpt>
      <trkpt lat="37.209301963448524" lon="-8.743194965645671">
        <ele>135.68000000000001</ele>
        <time>2025-05-06T14:28:16Z</time>
      </trkpt>
      <trkpt lat="37.209347980096936" lon="-8.743318011984229">
        <ele>135.68000000000001</ele>
        <time>2025-05-06T14:28:17Z</time>
      </trkpt>
      <trkpt lat="37.209448982030153" lon="-8.743699975311756">
        <ele>133.75999999999999</ele>
        <time>2025-05-06T14:28:20Z</time>
      </trkpt>
      <trkpt lat="37.209448982030153" lon="-8.743830984458327">
        <ele>133.28</ele>
        <time>2025-05-06T14:28:21Z</time>
      </trkpt>
      <trkpt lat="37.209448982030153" lon="-8.743937015533447">
        <ele>132.31999999999999</ele>
        <time>2025-05-06T14:28:22Z</time>
      </trkpt>
      <trkpt lat="37.209391985088587" lon="-8.744099037721753">
        <ele>131.84</ele>
        <time>2025-05-06T14:28:23Z</time>
      </trkpt>
      <trkpt lat="37.209340017288923" lon="-8.744247984141111">
        <ele>131.84</ele>
        <time>2025-05-06T14:28:24Z</time>
      </trkpt>
      <trkpt lat="37.209286959841847" lon="-8.744396008551121">
        <ele>131.36000000000001</ele>
        <time>2025-05-06T14:28:25Z</time>
      </trkpt>
      <trkpt lat="37.209191992878914" lon="-8.744796998798847">
        <ele>129.91999999999999</ele>
        <time>2025-05-06T14:28:28Z</time>
      </trkpt>
      <trkpt lat="37.209191992878914" lon="-8.744933037087321">
        <ele>129.91999999999999</ele>
        <time>2025-05-06T14:28:29Z</time>
      </trkpt>
      <trkpt lat="37.209191992878914" lon="-8.745073014870286">
        <ele>129.43000000000001</ele>
        <time>2025-05-06T14:28:30Z</time>
      </trkpt>
      <trkpt lat="37.209154022857547" lon="-8.745203018188477">
        <ele>129.43000000000001</ele>
        <time>2025-05-06T14:28:31Z</time>
      </trkpt>
      <trkpt lat="37.209085961803794" lon="-8.745332015678287">
        <ele>129.43000000000001</ele>
        <time>2025-05-06T14:28:32Z</time>
      </trkpt>
      <trkpt lat="37.208982026204467" lon="-8.745445003733039">
        <ele>129.91999999999999</ele>
        <time>2025-05-06T14:28:33Z</time>
      </trkpt>
      <trkpt lat="37.208877000957727" lon="-8.745557991787791">
        <ele>129.91999999999999</ele>
        <time>2025-05-06T14:28:34Z</time>
      </trkpt>
      <trkpt lat="37.208828972652555" lon="-8.745706016197801">
        <ele>130.40000000000001</ele>
        <time>2025-05-06T14:28:35Z</time>
      </trkpt>
      <trkpt lat="37.208808017894626" lon="-8.74583300203085">
        <ele>130.88</ele>
        <time>2025-05-06T14:28:36Z</time>
      </trkpt>
      <trkpt lat="37.208823021501303" lon="-8.745957976207137">
        <ele>130.88</ele>
        <time>2025-05-06T14:28:37Z</time>
      </trkpt>
      <trkpt lat="37.208845987915993" lon="-8.746107006445527">
        <ele>131.36000000000001</ele>
        <time>2025-05-06T14:28:38Z</time>
      </trkpt>
      <trkpt lat="37.208870965987444" lon="-8.746266011148691">
        <ele>131.36000000000001</ele>
        <time>2025-05-06T14:28:39Z</time>
      </trkpt>
      <trkpt lat="37.20898998901248" lon="-8.746726009994745">
        <ele>132.80000000000001</ele>
        <time>2025-05-06T14:28:42Z</time>
      </trkpt>
      <trkpt lat="37.209042040631175" lon="-8.746855007484555">
        <ele>133.28</ele>
        <time>2025-05-06T14:28:43Z</time>
      </trkpt>
      <trkpt lat="37.209124015644193" lon="-8.746959026902914">
        <ele>133.75999999999999</ele>
        <time>2025-05-06T14:28:44Z</time>
      </trkpt>
      <trkpt lat="37.209217976778746" lon="-8.747074026614428">
        <ele>133.75999999999999</ele>
        <time>2025-05-06T14:28:45Z</time>
      </trkpt>
      <trkpt lat="37.209338005632162" lon="-8.747171005234122">
        <ele>133.75999999999999</ele>
        <time>2025-05-06T14:28:46Z</time>
      </trkpt>
      <trkpt lat="37.210059016942978" lon="-8.747754972428083">
        <ele>131.84</ele>
        <time>2025-05-06T14:28:52Z</time>
      </trkpt>
      <trkpt lat="37.21014903858304" lon="-8.747858991846442">
        <ele>130.88</ele>
        <time>2025-05-06T14:28:53Z</time>
      </trkpt>
      <trkpt lat="37.210227996110916" lon="-8.747993018478155">
        <ele>129.91999999999999</ele>
        <time>2025-05-06T14:28:54Z</time>
      </trkpt>
      <trkpt lat="37.21070702187717" lon="-8.748815031722188">
        <ele>122.22</ele>
        <time>2025-05-06T14:29:00Z</time>
      </trkpt>
      <trkpt lat="37.210743986070156" lon="-8.748965989798307">
        <ele>120.78</ele>
        <time>2025-05-06T14:29:01Z</time>
      </trkpt>
      <trkpt lat="37.210776004940271" lon="-8.749118037521839">
        <ele>119.34</ele>
        <time>2025-05-06T14:29:02Z</time>
      </trkpt>
      <trkpt lat="37.210798971354961" lon="-8.749279975891113">
        <ele>117.42</ele>
        <time>2025-05-06T14:29:03Z</time>
      </trkpt>
      <trkpt lat="37.210788996890187" lon="-8.749449038878083">
        <ele>115.98</ele>
        <time>2025-05-06T14:29:04Z</time>
      </trkpt>
      <trkpt lat="37.210780028253794" lon="-8.749622963368893">
        <ele>115.01000000000001</ele>
        <time>2025-05-06T14:29:05Z</time>
      </trkpt>
      <trkpt lat="37.210714984685183" lon="-8.749782973900437">
        <ele>114.05</ele>
        <time>2025-05-06T14:29:06Z</time>
      </trkpt>
      <trkpt lat="37.210649019107223" lon="-8.749943990260363">
        <ele>112.61</ele>
        <time>2025-05-06T14:29:07Z</time>
      </trkpt>
      <trkpt lat="37.21058196388185" lon="-8.750107018277049">
        <ele>111.65000000000001</ele>
        <time>2025-05-06T14:29:08Z</time>
      </trkpt>
      <trkpt lat="37.21051499247551" lon="-8.750271974131465">
        <ele>110.69</ele>
        <time>2025-05-06T14:29:09Z</time>
      </trkpt>
      <trkpt lat="37.210313994437456" lon="-8.750735996291041">
        <ele>108.29000000000001</ele>
        <time>2025-05-06T14:29:12Z</time>
      </trkpt>
      <trkpt lat="37.210238976404071" lon="-8.750859964638948">
        <ele>107.81</ele>
        <time>2025-05-06T14:29:13Z</time>
      </trkpt>
      <trkpt lat="37.21014803275466" lon="-8.75092601403594">
        <ele>106.84</ele>
        <time>2025-05-06T14:29:14Z</time>
      </trkpt>
      <trkpt lat="37.210048036649823" lon="-8.750975970178843">
        <ele>106.36</ele>
        <time>2025-05-06T14:29:15Z</time>
      </trkpt>
      <trkpt lat="37.209920966997743" lon="-8.751040007919073">
        <ele>105.40000000000001</ele>
        <time>2025-05-06T14:29:16Z</time>
      </trkpt>
      <trkpt lat="37.209815019741654" lon="-8.751069009304047">
        <ele>104.44</ele>
        <time>2025-05-06T14:29:17Z</time>
      </trkpt>
      <trkpt lat="37.209316967055202" lon="-8.75120596960187">
        <ele>101.08</ele>
        <time>2025-05-06T14:29:21Z</time>
      </trkpt>
      <trkpt lat="37.209229040890932" lon="-8.751294985413551">
        <ele>100.11</ele>
        <time>2025-05-06T14:29:22Z</time>
      </trkpt>
      <trkpt lat="37.209171038120985" lon="-8.751396993175149">
        <ele>99.629999999999995</ele>
        <time>2025-05-06T14:29:23Z</time>
      </trkpt>
      <trkpt lat="37.209128038957715" lon="-8.751519033685327">
        <ele>99.629999999999995</ele>
        <time>2025-05-06T14:29:24Z</time>
      </trkpt>
      <trkpt lat="37.209084033966064" lon="-8.751639984548092">
        <ele>99.629999999999995</ele>
        <time>2025-05-06T14:29:25Z</time>
      </trkpt>
      <trkpt lat="37.209067018702626" lon="-8.751807035878301">
        <ele>100.11</ele>
        <time>2025-05-06T14:29:26Z</time>
      </trkpt>
      <trkpt lat="37.209048997610807" lon="-8.751974003389478">
        <ele>100.59999999999999</ele>
        <time>2025-05-06T14:29:27Z</time>
      </trkpt>
      <trkpt lat="37.209029970690608" lon="-8.752144994214177">
        <ele>101.08</ele>
        <time>2025-05-06T14:29:28Z</time>
      </trkpt>
      <trkpt lat="37.209031982347369" lon="-8.752302993088961">
        <ele>102.04000000000001</ele>
        <time>2025-05-06T14:29:29Z</time>
      </trkpt>
      <trkpt lat="37.209062995389104" lon="-8.752465015277267">
        <ele>103.48</ele>
        <time>2025-05-06T14:29:30Z</time>
      </trkpt>
      <trkpt lat="37.2090960200876" lon="-8.752637011930347">
        <ele>103.95999999999999</ele>
        <time>2025-05-06T14:29:31Z</time>
      </trkpt>
      <trkpt lat="37.209127033129334" lon="-8.752811020240188">
        <ele>105.40000000000001</ele>
        <time>2025-05-06T14:29:32Z</time>
      </trkpt>
      <trkpt lat="37.209127033129334" lon="-8.752985028550029">
        <ele>106.36</ele>
        <time>2025-05-06T14:29:33Z</time>
      </trkpt>
      <trkpt lat="37.209127033129334" lon="-8.753160964697599">
        <ele>107.31999999999999</ele>
        <time>2025-05-06T14:29:34Z</time>
      </trkpt>
      <trkpt lat="37.209126027300954" lon="-8.753346037119627">
        <ele>108.77</ele>
        <time>2025-05-06T14:29:35Z</time>
      </trkpt>
      <trkpt lat="37.2090960200876" lon="-8.753527002409101">
        <ele>109.73</ele>
        <time>2025-05-06T14:29:36Z</time>
      </trkpt>
      <trkpt lat="37.208888987079263" lon="-8.755239006131887">
        <ele>119.34</ele>
        <time>2025-05-06T14:29:45Z</time>
      </trkpt>
      <trkpt lat="37.208851017057896" lon="-8.755399016663432">
        <ele>120.3</ele>
        <time>2025-05-06T14:29:46Z</time>
      </trkpt>
      <trkpt lat="37.208799971267581" lon="-8.755557015538216">
        <ele>121.26000000000001</ele>
        <time>2025-05-06T14:29:47Z</time>
      </trkpt>
      <trkpt lat="37.208333015441895" lon="-8.75649000518024">
        <ele>124.15000000000001</ele>
        <time>2025-05-06T14:29:53Z</time>
      </trkpt>
      <trkpt lat="37.208237964659929" lon="-8.75659603625536">
        <ele>123.67</ele>
        <time>2025-05-06T14:29:54Z</time>
      </trkpt>
      <trkpt lat="37.207860024645925" lon="-8.757037008181214">
        <ele>121.26000000000001</ele>
        <time>2025-05-06T14:29:57Z</time>
      </trkpt>
      <trkpt lat="37.207735972478986" lon="-8.757203975692391">
        <ele>120.78</ele>
        <time>2025-05-06T14:29:58Z</time>
      </trkpt>
      <trkpt lat="37.206947989761829" lon="-8.758843978866935">
        <ele>112.13</ele>
        <time>2025-05-06T14:30:06Z</time>
      </trkpt>
      <trkpt lat="37.206624029204249" lon="-8.759501958265901">
        <ele>107.31999999999999</ele>
        <time>2025-05-06T14:30:10Z</time>
      </trkpt>
      <trkpt lat="37.206526966765523" lon="-8.759607989341021">
        <ele>106.36</ele>
        <time>2025-05-06T14:30:11Z</time>
      </trkpt>
      <trkpt lat="37.206399980932474" lon="-8.759700022637844">
        <ele>105.40000000000001</ele>
        <time>2025-05-06T14:30:12Z</time>
      </trkpt>
      <trkpt lat="37.206255979835987" lon="-8.759773029014468">
        <ele>103.95999999999999</ele>
        <time>2025-05-06T14:30:13Z</time>
      </trkpt>
      <trkpt lat="37.206103010103106" lon="-8.759837988764048">
        <ele>102.52</ele>
        <time>2025-05-06T14:30:14Z</time>
      </trkpt>
      <trkpt lat="37.205792963504791" lon="-8.759920969605446">
        <ele>101.08</ele>
        <time>2025-05-06T14:30:16Z</time>
      </trkpt>
      <trkpt lat="37.205607974901795" lon="-8.759945025667548">
        <ele>100.11</ele>
        <time>2025-05-06T14:30:17Z</time>
      </trkpt>
      <trkpt lat="37.204939015209675" lon="-8.75992801040411">
        <ele>97.230000000000004</ele>
        <time>2025-05-06T14:30:21Z</time>
      </trkpt>
      <trkpt lat="37.204772969707847" lon="-8.759923987090588">
        <ele>96.75</ele>
        <time>2025-05-06T14:30:22Z</time>
      </trkpt>
      <trkpt lat="37.204604996368289" lon="-8.759962962940335">
        <ele>96.269999999999996</ele>
        <time>2025-05-06T14:30:23Z</time>
      </trkpt>
      <trkpt lat="37.203120980411768" lon="-8.760368982329965">
        <ele>92.420000000000002</ele>
        <time>2025-05-06T14:30:31Z</time>
      </trkpt>
      <trkpt lat="37.202732982113957" lon="-8.760460009798408">
        <ele>90.5</ele>
        <time>2025-05-06T14:30:34Z</time>
      </trkpt>
      <trkpt lat="37.202642960473895" lon="-8.760460009798408">
        <ele>90.019999999999996</ele>
        <time>2025-05-06T14:30:35Z</time>
      </trkpt>
      <trkpt lat="37.202554028481245" lon="-8.760431008413434">
        <ele>88.579999999999998</ele>
        <time>2025-05-06T14:30:36Z</time>
      </trkpt>
      <trkpt lat="37.202454032376409" lon="-8.760331012308598">
        <ele>87.620000000000005</ele>
        <time>2025-05-06T14:30:37Z</time>
      </trkpt>
      <trkpt lat="37.202402986586094" lon="-8.760233027860522">
        <ele>86.659999999999997</ele>
        <time>2025-05-06T14:30:38Z</time>
      </trkpt>
      <trkpt lat="37.202327968552709" lon="-8.760091960430145">
        <ele>85.689999999999998</ele>
        <time>2025-05-06T14:30:39Z</time>
      </trkpt>
      <trkpt lat="37.202239036560059" lon="-8.759922981262207">
        <ele>84.730000000000004</ele>
        <time>2025-05-06T14:30:40Z</time>
      </trkpt>
      <trkpt lat="37.202149014919996" lon="-8.759803036227822">
        <ele>84.25</ele>
        <time>2025-05-06T14:30:41Z</time>
      </trkpt>
      <trkpt lat="37.20202999189496" lon="-8.759707985445857">
        <ele>83.769999999999996</ele>
        <time>2025-05-06T14:30:42Z</time>
      </trkpt>
      <trkpt lat="37.201895965263247" lon="-8.759635984897614">
        <ele>83.769999999999996</ele>
        <time>2025-05-06T14:30:43Z</time>
      </trkpt>
      <trkpt lat="37.201756993308663" lon="-8.759583011269569">
        <ele>83.769999999999996</ele>
        <time>2025-05-06T14:30:44Z</time>
      </trkpt>
      <trkpt lat="37.201617015525699" lon="-8.759547974914312">
        <ele>83.290000000000006</ele>
        <time>2025-05-06T14:30:45Z</time>
      </trkpt>
      <trkpt lat="37.201476031914353" lon="-8.759528025984764">
        <ele>83.290000000000006</ele>
        <time>2025-05-06T14:30:46Z</time>
      </trkpt>
      <trkpt lat="37.201337981969118" lon="-8.759515034034848">
        <ele>83.290000000000006</ele>
        <time>2025-05-06T14:30:47Z</time>
      </trkpt>
      <trkpt lat="37.201193980872631" lon="-8.759534982964397">
        <ele>83.290000000000006</ele>
        <time>2025-05-06T14:30:48Z</time>
      </trkpt>
      <trkpt lat="37.201047968119383" lon="-8.759555015712977">
        <ele>83.290000000000006</ele>
        <time>2025-05-06T14:30:49Z</time>
      </trkpt>
      <trkpt lat="37.200740016996861" lon="-8.759598014876247">
        <ele>82.810000000000002</ele>
        <time>2025-05-06T14:30:51Z</time>
      </trkpt>
      <trkpt lat="37.200572965666652" lon="-8.759585022926331">
        <ele>82.810000000000002</ele>
        <time>2025-05-06T14:30:52Z</time>
      </trkpt>
      <trkpt lat="37.19944903627038" lon="-8.759481003507972">
        <ele>82.329999999999998</ele>
        <time>2025-05-06T14:30:58Z</time>
      </trkpt>
      <trkpt lat="37.199260024353862" lon="-8.759490977972746">
        <ele>82.329999999999998</ele>
        <time>2025-05-06T14:30:59Z</time>
      </trkpt>
      <trkpt lat="37.197365965694189" lon="-8.759933039546013">
        <ele>78.969999999999999</ele>
        <time>2025-05-06T14:31:09Z</time>
      </trkpt>
      <trkpt lat="37.197207966819406" lon="-8.75999397598207">
        <ele>78.480000000000004</ele>
        <time>2025-05-06T14:31:10Z</time>
      </trkpt>
      <trkpt lat="37.197064971551299" lon="-8.760060025379062">
        <ele>78</ele>
        <time>2025-05-06T14:31:11Z</time>
      </trkpt>
      <trkpt lat="37.196641014888883" lon="-8.760350039228797">
        <ele>79.450000000000003</ele>
        <time>2025-05-06T14:31:16Z</time>
      </trkpt>
      <trkpt lat="37.196597009897232" lon="-8.760393960401416">
        <ele>79.930000000000007</ele>
        <time>2025-05-06T14:31:17Z</time>
      </trkpt>
      <trkpt lat="37.196567002683878" lon="-8.76042396761477">
        <ele>80.409999999999997</ele>
        <time>2025-05-06T14:31:18Z</time>
      </trkpt>
      <trkpt lat="37.196516040712595" lon="-8.76050996594131">
        <ele>80.890000000000001</ele>
        <time>2025-05-06T14:31:19Z</time>
      </trkpt>
      <trkpt lat="37.196522997692227" lon="-8.760543996468186">
        <ele>81.849999999999994</ele>
        <time>2025-05-06T14:31:20Z</time>
      </trkpt>
      <trkpt lat="37.196522997692227" lon="-8.760543996468186">
        <ele>82.329999999999998</ele>
        <time>2025-05-06T14:31:21Z</time>
      </trkpt>
      <trkpt lat="37.196642020717263" lon="-8.760598981752992">
        <ele>84.730000000000004</ele>
        <time>2025-05-06T14:31:26Z</time>
      </trkpt>
      <trkpt lat="37.196716032922268" lon="-8.760607028380036">
        <ele>84.730000000000004</ele>
        <time>2025-05-06T14:31:27Z</time>
      </trkpt>
      <trkpt lat="37.196812005713582" lon="-8.760609962046146">
        <ele>85.209999999999994</ele>
        <time>2025-05-06T14:31:28Z</time>
      </trkpt>
      <trkpt lat="37.197586996480823" lon="-8.760603005066514">
        <ele>86.659999999999997</ele>
        <time>2025-05-06T14:31:33Z</time>
      </trkpt>
      <trkpt lat="37.199166985228658" lon="-8.760503008961678">
        <ele>91.459999999999994</ele>
        <time>2025-05-06T14:31:40Z</time>
      </trkpt>
      <trkpt lat="37.199632013216615" lon="-8.760539973154664">
        <ele>93.390000000000001</ele>
        <time>2025-05-06T14:31:42Z</time>
      </trkpt>
      <trkpt lat="37.199847009032965" lon="-8.760607028380036">
        <ele>94.829999999999998</ele>
        <time>2025-05-06T14:31:43Z</time>
      </trkpt>
      <trkpt lat="37.20005102455616" lon="-8.760691015049815">
        <ele>95.790000000000006</ele>
        <time>2025-05-06T14:31:44Z</time>
      </trkpt>
      <trkpt lat="37.200247999280691" lon="-8.760772990062833">
        <ele>96.269999999999996</ele>
        <time>2025-05-06T14:31:45Z</time>
      </trkpt>
      <trkpt lat="37.200433993712068" lon="-8.760819006711245">
        <ele>97.230000000000004</ele>
        <time>2025-05-06T14:31:46Z</time>
      </trkpt>
      <trkpt lat="37.200617976486683" lon="-8.760801991447806">
        <ele>98.189999999999998</ele>
        <time>2025-05-06T14:31:47Z</time>
      </trkpt>
      <trkpt lat="37.200800031423569" lon="-8.760785982012749">
        <ele>98.670000000000002</ele>
        <time>2025-05-06T14:31:48Z</time>
      </trkpt>
      <trkpt lat="37.200991977006197" lon="-8.76076796092093">
        <ele>98.670000000000002</ele>
        <time>2025-05-06T14:31:49Z</time>
      </trkpt>
      <trkpt lat="37.201194986701012" lon="-8.760791011154652">
        <ele>99.150000000000006</ele>
        <time>2025-05-06T14:31:50Z</time>
      </trkpt>
      <trkpt lat="37.201399002224207" lon="-8.760845996439457">
        <ele>99.629999999999995</ele>
        <time>2025-05-06T14:31:51Z</time>
      </trkpt>
      <trkpt lat="37.201597988605499" lon="-8.760898970067501">
        <ele>100.11</ele>
        <time>2025-05-06T14:31:52Z</time>
      </trkpt>
      <trkpt lat="37.201773002743721" lon="-8.760999972000718">
        <ele>101.08</ele>
        <time>2025-05-06T14:31:53Z</time>
      </trkpt>
      <trkpt lat="37.201926978304982" lon="-8.761121006682515">
        <ele>102.52</ele>
        <time>2025-05-06T14:31:54Z</time>
      </trkpt>
      <trkpt lat="37.202046001330018" lon="-8.761274982243776">
        <ele>103.48</ele>
        <time>2025-05-06T14:31:55Z</time>
      </trkpt>
      <trkpt lat="37.202126970514655" lon="-8.761485032737255">
        <ele>104.44</ele>
        <time>2025-05-06T14:31:56Z</time>
      </trkpt>
      <trkpt lat="37.202211963012815" lon="-8.761705979704857">
        <ele>105.88</ele>
        <time>2025-05-06T14:31:57Z</time>
      </trkpt>
      <trkpt lat="37.202302990481257" lon="-8.761941008269787">
        <ele>106.84</ele>
        <time>2025-05-06T14:31:58Z</time>
      </trkpt>
      <trkpt lat="37.202751003205776" lon="-8.762883972376585">
        <ele>110.69</ele>
        <time>2025-05-06T14:32:02Z</time>
      </trkpt>
      <trkpt lat="37.204308025538921" lon="-8.765005012974143">
        <ele>127.98999999999999</ele>
        <time>2025-05-06T14:32:12Z</time>
      </trkpt>
      <trkpt lat="37.204618994146585" lon="-8.765383958816528">
        <ele>130.88</ele>
        <time>2025-05-06T14:32:14Z</time>
      </trkpt>
      <trkpt lat="37.204807000234723" lon="-8.765501976013184">
        <ele>132.31999999999999</ele>
        <time>2025-05-06T14:32:15Z</time>
      </trkpt>
      <trkpt lat="37.20499400049448" lon="-8.765585962682962">
        <ele>133.75999999999999</ele>
        <time>2025-05-06T14:32:16Z</time>
      </trkpt>
      <trkpt lat="37.205176977440715" lon="-8.765641031786799">
        <ele>135.19999999999999</ele>
        <time>2025-05-06T14:32:17Z</time>
      </trkpt>
      <trkpt lat="37.205366995185614" lon="-8.765662992373109">
        <ele>135.68000000000001</ele>
        <time>2025-05-06T14:32:18Z</time>
      </trkpt>
      <trkpt lat="37.205553995445371" lon="-8.765685958787799">
        <ele>136.63999999999999</ele>
        <time>2025-05-06T14:32:19Z</time>
      </trkpt>
      <trkpt lat="37.205905029550195" lon="-8.765727030113339">
        <ele>138.09</ele>
        <time>2025-05-06T14:32:21Z</time>
      </trkpt>
      <trkpt lat="37.206054981797934" lon="-8.765763994306326">
        <ele>139.05000000000001</ele>
        <time>2025-05-06T14:32:22Z</time>
      </trkpt>
      <trkpt lat="37.206200994551182" lon="-8.765827026218176">
        <ele>139.53</ele>
        <time>2025-05-06T14:32:23Z</time>
      </trkpt>
      <trkpt lat="37.206457983702421" lon="-8.765981001779437">
        <ele>140.97</ele>
        <time>2025-05-06T14:32:25Z</time>
      </trkpt>
      <trkpt lat="37.206560997292399" lon="-8.766090972349048">
        <ele>141.44999999999999</ele>
        <time>2025-05-06T14:32:26Z</time>
      </trkpt>
      <trkpt lat="37.206654036417603" lon="-8.766228016465902">
        <ele>141.93000000000001</ele>
        <time>2025-05-06T14:32:27Z</time>
      </trkpt>
      <trkpt lat="37.206746991723776" lon="-8.766367994248867">
        <ele>142.41</ele>
        <time>2025-05-06T14:32:28Z</time>
      </trkpt>
      <trkpt lat="37.206793008372188" lon="-8.766556000337005">
        <ele>142.88999999999999</ele>
        <time>2025-05-06T14:32:29Z</time>
      </trkpt>
      <trkpt lat="37.206839025020599" lon="-8.766744006425142">
        <ele>142.88999999999999</ele>
        <time>2025-05-06T14:32:30Z</time>
      </trkpt>
      <trkpt lat="37.207177989184856" lon="-8.768084021285176">
        <ele>144.81999999999999</ele>
        <time>2025-05-06T14:32:37Z</time>
      </trkpt>
      <trkpt lat="37.207262981683016" lon="-8.768254006281495">
        <ele>145.78</ele>
        <time>2025-05-06T14:32:38Z</time>
      </trkpt>
      <trkpt lat="37.207358032464981" lon="-8.768407981842756">
        <ele>147.22</ele>
        <time>2025-05-06T14:32:39Z</time>
      </trkpt>
      <trkpt lat="37.207477977499366" lon="-8.768519964069128">
        <ele>148.18000000000001</ele>
        <time>2025-05-06T14:32:40Z</time>
      </trkpt>
      <trkpt lat="37.207602029666305" lon="-8.768635969609022">
        <ele>149.62</ele>
        <time>2025-05-06T14:32:41Z</time>
      </trkpt>
      <trkpt lat="37.207742007449269" lon="-8.768724985420704">
        <ele>151.06</ele>
        <time>2025-05-06T14:32:42Z</time>
      </trkpt>
      <trkpt lat="37.207889026030898" lon="-8.768798997625709">
        <ele>152.50999999999999</ele>
        <time>2025-05-06T14:32:43Z</time>
      </trkpt>
      <trkpt lat="37.208033027127385" lon="-8.768870998173952">
        <ele>153.94999999999999</ele>
        <time>2025-05-06T14:32:44Z</time>
      </trkpt>
      <trkpt lat="37.208177028223872" lon="-8.768908968195319">
        <ele>154.91</ele>
        <time>2025-05-06T14:32:45Z</time>
      </trkpt>
      <trkpt lat="37.208333015441895" lon="-8.768935035914183">
        <ele>156.34999999999999</ele>
        <time>2025-05-06T14:32:46Z</time>
      </trkpt>
      <trkpt lat="37.208464024588466" lon="-8.768911985680461">
        <ele>157.78999999999999</ele>
        <time>2025-05-06T14:32:47Z</time>
      </trkpt>
      <trkpt lat="37.208600984886289" lon="-8.76888801343739">
        <ele>159.24000000000001</ele>
        <time>2025-05-06T14:32:48Z</time>
      </trkpt>
      <trkpt lat="37.208867026492953" lon="-8.768839985132217">
        <ele>161.63999999999999</ele>
        <time>2025-05-06T14:32:50Z</time>
      </trkpt>
      <trkpt lat="37.208994012326002" lon="-8.768849959596992">
        <ele>163.08000000000001</ele>
        <time>2025-05-06T14:32:51Z</time>
      </trkpt>
      <trkpt lat="37.20911898650229" lon="-8.768895976245403">
        <ele>164.52000000000001</ele>
        <time>2025-05-06T14:32:52Z</time>
      </trkpt>
      <trkpt lat="37.209245972335339" lon="-8.768942998722196">
        <ele>165.96000000000001</ele>
        <time>2025-05-06T14:32:53Z</time>
      </trkpt>
      <trkpt lat="37.209360972046852" lon="-8.768998989835382">
        <ele>166.93000000000001</ele>
        <time>2025-05-06T14:32:54Z</time>
      </trkpt>
      <trkpt lat="37.209460968151689" lon="-8.769108038395643">
        <ele>167.88999999999999</ele>
        <time>2025-05-06T14:32:55Z</time>
      </trkpt>
      <trkpt lat="37.209577979519963" lon="-8.769236030057073">
        <ele>168.84999999999999</ele>
        <time>2025-05-06T14:32:56Z</time>
      </trkpt>
      <trkpt lat="37.209642017260194" lon="-8.769371984526515">
        <ele>169.81</ele>
        <time>2025-05-06T14:32:57Z</time>
      </trkpt>
      <trkpt lat="37.209716029465199" lon="-8.769528977572918">
        <ele>170.77000000000001</ele>
        <time>2025-05-06T14:32:58Z</time>
      </trkpt>
      <trkpt lat="37.210248028859496" lon="-8.770635975524783">
        <ele>178.94</ele>
        <time>2025-05-06T14:33:05Z</time>
      </trkpt>
      <trkpt lat="37.210361016914248" lon="-8.770748041570187">
        <ele>179.90000000000001</ele>
        <time>2025-05-06T14:33:06Z</time>
      </trkpt>
      <trkpt lat="37.210476016625762" lon="-8.7708630412817">
        <ele>180.87</ele>
        <time>2025-05-06T14:33:07Z</time>
      </trkpt>
      <trkpt lat="37.21060199663043" lon="-8.770964965224266">
        <ele>181.83000000000001</ele>
        <time>2025-05-06T14:33:08Z</time>
      </trkpt>
      <trkpt lat="37.210736023262143" lon="-8.771068984642625">
        <ele>182.78999999999999</ele>
        <time>2025-05-06T14:33:09Z</time>
      </trkpt>
      <trkpt lat="37.21085999161005" lon="-8.771195970475674">
        <ele>183.75</ele>
        <time>2025-05-06T14:33:10Z</time>
      </trkpt>
      <trkpt lat="37.210982032120228" lon="-8.77133603207767">
        <ele>184.71000000000001</ele>
        <time>2025-05-06T14:33:11Z</time>
      </trkpt>
      <trkpt lat="37.211092002689838" lon="-8.771490007638931">
        <ele>185.66999999999999</ele>
        <time>2025-05-06T14:33:12Z</time>
      </trkpt>
      <trkpt lat="37.2115049790591" lon="-8.772366000339389">
        <ele>190.96000000000001</ele>
        <time>2025-05-06T14:33:17Z</time>
      </trkpt>
      <trkpt lat="37.21156700514257" lon="-8.77256297506392">
        <ele>191.91999999999999</ele>
        <time>2025-05-06T14:33:18Z</time>
      </trkpt>
      <trkpt lat="37.211587959900498" lon="-8.772771013900638">
        <ele>192.88</ele>
        <time>2025-05-06T14:33:19Z</time>
      </trkpt>
      <trkpt lat="37.211595000699162" lon="-8.772983998060226">
        <ele>194.31999999999999</ele>
        <time>2025-05-06T14:33:20Z</time>
      </trkpt>
      <trkpt lat="37.211595000699162" lon="-8.773204023018479">
        <ele>195.28</ele>
        <time>2025-05-06T14:33:21Z</time>
      </trkpt>
      <trkpt lat="37.211595000699162" lon="-8.773425975814462">
        <ele>196.72999999999999</ele>
        <time>2025-05-06T14:33:22Z</time>
      </trkpt>
      <trkpt lat="37.211595000699162" lon="-8.774111028760672">
        <ele>200.09</ele>
        <time>2025-05-06T14:33:25Z</time>
      </trkpt>
      <trkpt lat="37.211647974327207" lon="-8.774329964071512">
        <ele>201.05000000000001</ele>
        <time>2025-05-06T14:33:26Z</time>
      </trkpt>
      <trkpt lat="37.211702959612012" lon="-8.774541020393372">
        <ele>202.00999999999999</ele>
        <time>2025-05-06T14:33:27Z</time>
      </trkpt>
      <trkpt lat="37.212283993139863" lon="-8.77580601722002">
        <ele>209.69999999999999</ele>
        <time>2025-05-06T14:33:34Z</time>
      </trkpt>
      <trkpt lat="37.212406033650041" lon="-8.775941971689463">
        <ele>210.66999999999999</ele>
        <time>2025-05-06T14:33:35Z</time>
      </trkpt>
      <trkpt lat="37.212550034746528" lon="-8.776035010814667">
        <ele>211.63</ele>
        <time>2025-05-06T14:33:36Z</time>
      </trkpt>
      <trkpt lat="37.212710967287421" lon="-8.776101982221007">
        <ele>213.06999999999999</ele>
        <time>2025-05-06T14:33:37Z</time>
      </trkpt>
      <trkpt lat="37.212866032496095" lon="-8.776136012747884">
        <ele>214.03</ele>
        <time>2025-05-06T14:33:38Z</time>
      </trkpt>
      <trkpt lat="37.213024031370878" lon="-8.776169959455729">
        <ele>215.47</ele>
        <time>2025-05-06T14:33:39Z</time>
      </trkpt>
      <trkpt lat="37.213181024417281" lon="-8.776203989982605">
        <ele>216.43000000000001</ele>
        <time>2025-05-06T14:33:40Z</time>
      </trkpt>
      <trkpt lat="37.213327037170529" lon="-8.776290994137526">
        <ele>217.88</ele>
        <time>2025-05-06T14:33:41Z</time>
      </trkpt>
      <trkpt lat="37.213479001075029" lon="-8.776391996070743">
        <ele>219.31999999999999</ele>
        <time>2025-05-06T14:33:42Z</time>
      </trkpt>
      <trkpt lat="37.215037029236555" lon="-8.777468986809254">
        <ele>230.37</ele>
        <time>2025-05-06T14:33:52Z</time>
      </trkpt>
      <trkpt lat="37.216151989996433" lon="-8.77812503837049">
        <ele>235.18000000000001</ele>
        <time>2025-05-06T14:34:00Z</time>
      </trkpt>
      <trkpt lat="37.216409984976053" lon="-8.778230985626578">
        <ele>236.13999999999999</ele>
        <time>2025-05-06T14:34:05Z</time>
      </trkpt>
      <trkpt lat="37.216293979436159" lon="-8.778325030580163">
        <ele>236.62</ele>
        <time>2025-05-06T14:34:06Z</time>
      </trkpt>
      <trkpt lat="37.216293979436159" lon="-8.778402982279658">
        <ele>236.62</ele>
        <time>2025-05-06T14:34:07Z</time>
      </trkpt>
      <trkpt lat="37.216293979436159" lon="-8.778489986434579">
        <ele>236.13999999999999</ele>
        <time>2025-05-06T14:34:08Z</time>
      </trkpt>
      <trkpt lat="37.216293979436159" lon="-8.77860096283257">
        <ele>235.66</ele>
        <time>2025-05-06T14:34:09Z</time>
      </trkpt>
      <trkpt lat="37.216293979436159" lon="-8.778745969757438">
        <ele>235.18000000000001</ele>
        <time>2025-05-06T14:34:10Z</time>
      </trkpt>
      <trkpt lat="37.216293979436159" lon="-8.778918972238898">
        <ele>234.69999999999999</ele>
        <time>2025-05-06T14:34:11Z</time>
      </trkpt>
      <trkpt lat="37.216293979436159" lon="-8.779115024954081">
        <ele>233.74000000000001</ele>
        <time>2025-05-06T14:34:12Z</time>
      </trkpt>
      <trkpt lat="37.216274030506611" lon="-8.779555996879935">
        <ele>231.81</ele>
        <time>2025-05-06T14:34:14Z</time>
      </trkpt>
      <trkpt lat="37.216238994151354" lon="-8.779788007959724">
        <ele>230.84999999999999</ele>
        <time>2025-05-06T14:34:15Z</time>
      </trkpt>
      <trkpt lat="37.215944034978747" lon="-8.780971029773355">
        <ele>224.61000000000001</ele>
        <time>2025-05-06T14:34:20Z</time>
      </trkpt>
      <trkpt lat="37.215853007510304" lon="-8.78117898479104">
        <ele>223.63999999999999</ele>
        <time>2025-05-06T14:34:21Z</time>
      </trkpt>
      <trkpt lat="37.215661983937025" lon="-8.781631020829082">
        <ele>220.28</ele>
        <time>2025-05-06T14:34:23Z</time>
      </trkpt>
      <trkpt lat="37.215162003412843" lon="-8.783270018175244">
        <ele>207.78</ele>
        <time>2025-05-06T14:34:30Z</time>
      </trkpt>
      <trkpt lat="37.215121015906334" lon="-8.783491970971227">
        <ele>205.86000000000001</ele>
        <time>2025-05-06T14:34:31Z</time>
      </trkpt>
      <trkpt lat="37.215144988149405" lon="-8.783704033121467">
        <ele>204.41999999999999</ele>
        <time>2025-05-06T14:34:32Z</time>
      </trkpt>
      <trkpt lat="37.215182036161423" lon="-8.783920034766197">
        <ele>202.49000000000001</ele>
        <time>2025-05-06T14:34:33Z</time>
      </trkpt>
      <trkpt lat="37.215239033102989" lon="-8.78412296064198">
        <ele>201.05000000000001</ele>
        <time>2025-05-06T14:34:34Z</time>
      </trkpt>
      <trkpt lat="37.215320002287626" lon="-8.78433502279222">
        <ele>200.09</ele>
        <time>2025-05-06T14:34:35Z</time>
      </trkpt>
      <trkpt lat="37.215548995882273" lon="-8.785009011626244">
        <ele>196.72999999999999</ele>
        <time>2025-05-06T14:34:38Z</time>
      </trkpt>
      <trkpt lat="37.215611021965742" lon="-8.785241022706032">
        <ele>196.25</ele>
        <time>2025-05-06T14:34:39Z</time>
      </trkpt>
      <trkpt lat="37.215858958661556" lon="-8.786418009549379">
        <ele>192.88</ele>
        <time>2025-05-06T14:34:44Z</time>
      </trkpt>
      <trkpt lat="37.215939005836844" lon="-8.786647003144026">
        <ele>192.40000000000001</ele>
        <time>2025-05-06T14:34:45Z</time>
      </trkpt>
      <trkpt lat="37.216029027476907" lon="-8.78689200617373">
        <ele>191.44</ele>
        <time>2025-05-06T14:34:46Z</time>
      </trkpt>
      <trkpt lat="37.216517021879554" lon="-8.788222968578339">
        <ele>187.11000000000001</ele>
        <time>2025-05-06T14:34:51Z</time>
      </trkpt>
      <trkpt lat="37.216620035469532" lon="-8.788455985486507">
        <ele>186.15000000000001</ele>
        <time>2025-05-06T14:34:52Z</time>
      </trkpt>
      <trkpt lat="37.216749032959342" lon="-8.78867500461638">
        <ele>185.19</ele>
        <time>2025-05-06T14:34:53Z</time>
      </trkpt>
      <trkpt lat="37.216890016570687" lon="-8.788879020139575">
        <ele>184.22999999999999</ele>
        <time>2025-05-06T14:34:54Z</time>
      </trkpt>
      <trkpt lat="37.217039968818426" lon="-8.78908202983439">
        <ele>183.27000000000001</ele>
        <time>2025-05-06T14:34:55Z</time>
      </trkpt>
      <trkpt lat="37.217760980129242" lon="-8.790055001154542">
        <ele>180.87</ele>
        <time>2025-05-06T14:35:00Z</time>
      </trkpt>
      <trkpt lat="37.217890983447433" lon="-8.790230015292764">
        <ele>179.90000000000001</ele>
        <time>2025-05-06T14:35:01Z</time>
      </trkpt>
      <trkpt lat="37.218519039452076" lon="-8.791094021871686">
        <ele>177.97999999999999</ele>
        <time>2025-05-06T14:35:06Z</time>
      </trkpt>
      <trkpt lat="37.218608977273107" lon="-8.791312035173178">
        <ele>177.5</ele>
        <time>2025-05-06T14:35:07Z</time>
      </trkpt>
      <trkpt lat="37.218924975022674" lon="-8.792247036471963">
        <ele>176.53999999999999</ele>
        <time>2025-05-06T14:35:11Z</time>
      </trkpt>
      <trkpt lat="37.219322025775909" lon="-8.794234972447157">
        <ele>170.77000000000001</ele>
        <time>2025-05-06T14:35:19Z</time>
      </trkpt>
      <trkpt lat="37.219627965241671" lon="-8.795218002051115">
        <ele>167.88999999999999</ele>
        <time>2025-05-06T14:35:23Z</time>
      </trkpt>
      <trkpt lat="37.219673981890082" lon="-8.79548798315227">
        <ele>167.88999999999999</ele>
        <time>2025-05-06T14:35:24Z</time>
      </trkpt>
      <trkpt lat="37.220029961317778" lon="-8.797476002946496">
        <ele>170.28999999999999</ele>
        <time>2025-05-06T14:35:31Z</time>
      </trkpt>
      <trkpt lat="37.220361968502402" lon="-8.800357030704618">
        <ele>167.41</ele>
        <time>2025-05-06T14:35:41Z</time>
      </trkpt>
      <trkpt lat="37.220470011234283" lon="-8.800784004852176">
        <ele>165.96000000000001</ele>
        <time>2025-05-06T14:35:43Z</time>
      </trkpt>
      <trkpt lat="37.220565984025598" lon="-8.800952984020114">
        <ele>165</ele>
        <time>2025-05-06T14:35:44Z</time>
      </trkpt>
      <trkpt lat="37.221439965069294" lon="-8.802137011662126">
        <ele>154.43000000000001</ele>
        <time>2025-05-06T14:35:50Z</time>
      </trkpt>
      <trkpt lat="37.221895018592477" lon="-8.802733970806003">
        <ele>151.06</ele>
        <time>2025-05-06T14:35:53Z</time>
      </trkpt>
      <trkpt lat="37.222003983333707" lon="-8.802931029349566">
        <ele>150.09999999999999</ele>
        <time>2025-05-06T14:35:54Z</time>
      </trkpt>
      <trkpt lat="37.222072966396809" lon="-8.803137978538871">
        <ele>149.62</ele>
        <time>2025-05-06T14:35:55Z</time>
      </trkpt>
      <trkpt lat="37.222113031893969" lon="-8.803356997668743">
        <ele>149.13999999999999</ele>
        <time>2025-05-06T14:35:56Z</time>
      </trkpt>
      <trkpt lat="37.222119988873601" lon="-8.80356595851481">
        <ele>149.13999999999999</ele>
        <time>2025-05-06T14:35:57Z</time>
      </trkpt>
      <trkpt lat="37.222127029672265" lon="-8.80375798791647">
        <ele>149.62</ele>
        <time>2025-05-06T14:35:58Z</time>
      </trkpt>
      <trkpt lat="37.222130969166756" lon="-8.80386795848608">
        <ele>149.62</ele>
        <time>2025-05-06T14:35:59Z</time>
      </trkpt>
      <trkpt lat="37.222220990806818" lon="-8.80403601564467">
        <ele>150.09999999999999</ele>
        <time>2025-05-06T14:36:00Z</time>
      </trkpt>
      <trkpt lat="37.222312018275261" lon="-8.804203988984227">
        <ele>150.09999999999999</ele>
        <time>2025-05-06T14:36:01Z</time>
      </trkpt>
      <trkpt lat="37.222414026036859" lon="-8.804395012557507">
        <ele>149.62</ele>
        <time>2025-05-06T14:36:02Z</time>
      </trkpt>
      <trkpt lat="37.222490971907973" lon="-8.804630041122437">
        <ele>148.66</ele>
        <time>2025-05-06T14:36:03Z</time>
      </trkpt>
      <trkpt lat="37.222562972456217" lon="-8.804873032495379">
        <ele>148.18000000000001</ele>
        <time>2025-05-06T14:36:04Z</time>
      </trkpt>
      <trkpt lat="37.223072005435824" lon="-8.80674303509295">
        <ele>141.44999999999999</ele>
        <time>2025-05-06T14:36:11Z</time>
      </trkpt>
      <trkpt lat="37.223242996260524" lon="-8.807439990341663">
        <ele>140.00999999999999</ele>
        <time>2025-05-06T14:36:14Z</time>
      </trkpt>
      <trkpt lat="37.223343998193741" lon="-8.807629002258182">
        <ele>140.00999999999999</ele>
        <time>2025-05-06T14:36:15Z</time>
      </trkpt>
      <trkpt lat="37.223451035097241" lon="-8.807831006124616">
        <ele>138.56999999999999</ele>
        <time>2025-05-06T14:36:16Z</time>
      </trkpt>
      <trkpt lat="37.223989991471171" lon="-8.808726025745273">
        <ele>132.80000000000001</ele>
        <time>2025-05-06T14:36:20Z</time>
      </trkpt>
      <trkpt lat="37.224121000617743" lon="-8.808968011289835">
        <ele>131.36000000000001</ele>
        <time>2025-05-06T14:36:21Z</time>
      </trkpt>
      <trkpt lat="37.224960029125214" lon="-8.810769030824304">
        <ele>134.72</ele>
        <time>2025-05-06T14:36:27Z</time>
      </trkpt>
      <trkpt lat="37.225747006013989" lon="-8.81256896071136">
        <ele>144.81999999999999</ele>
        <time>2025-05-06T14:36:34Z</time>
      </trkpt>
      <trkpt lat="37.226118994876742" lon="-8.813900006935">
        <ele>142.41</ele>
        <time>2025-05-06T14:36:40Z</time>
      </trkpt>
      <trkpt lat="37.226122012361884" lon="-8.814107039943337">
        <ele>141.44999999999999</ele>
        <time>2025-05-06T14:36:41Z</time>
      </trkpt>
      <trkpt lat="37.226122012361884" lon="-8.814343996345997">
        <ele>140.00999999999999</ele>
        <time>2025-05-06T14:36:42Z</time>
      </trkpt>
      <trkpt lat="37.226133998483419" lon="-8.814998036250472">
        <ele>135.19999999999999</ele>
        <time>2025-05-06T14:36:45Z</time>
      </trkpt>
      <trkpt lat="37.226185966283083" lon="-8.815155029296875">
        <ele>133.75999999999999</ele>
        <time>2025-05-06T14:36:46Z</time>
      </trkpt>
      <trkpt lat="37.226269030943513" lon="-8.815281009301543">
        <ele>132.31999999999999</ele>
        <time>2025-05-06T14:36:47Z</time>
      </trkpt>
      <trkpt lat="37.226383024826646" lon="-8.815395003184676">
        <ele>131.36000000000001</ele>
        <time>2025-05-06T14:36:48Z</time>
      </trkpt>
      <trkpt lat="37.226526020094752" lon="-8.815496005117893">
        <ele>130.88</ele>
        <time>2025-05-06T14:36:49Z</time>
      </trkpt>
      <trkpt lat="37.226687958464026" lon="-8.815603964030743">
        <ele>129.91999999999999</ele>
        <time>2025-05-06T14:36:50Z</time>
      </trkpt>
      <trkpt lat="37.227010997012258" lon="-8.81583496928215">
        <ele>127.51000000000001</ele>
        <time>2025-05-06T14:36:52Z</time>
      </trkpt>
      <trkpt lat="37.227148041129112" lon="-8.815952986478806">
        <ele>127.03</ele>
        <time>2025-05-06T14:36:53Z</time>
      </trkpt>
      <trkpt lat="37.227260023355484" lon="-8.816108973696828">
        <ele>126.06999999999999</ele>
        <time>2025-05-06T14:36:54Z</time>
      </trkpt>
      <trkpt lat="37.227363958954811" lon="-8.816278036683798">
        <ele>126.06999999999999</ele>
        <time>2025-05-06T14:36:55Z</time>
      </trkpt>
      <trkpt lat="37.227440988644958" lon="-8.816482974216342">
        <ele>125.59</ele>
        <time>2025-05-06T14:36:56Z</time>
      </trkpt>
      <trkpt lat="37.227501003071666" lon="-8.816704005002976">
        <ele>126.06999999999999</ele>
        <time>2025-05-06T14:36:57Z</time>
      </trkpt>
      <trkpt lat="37.227548025548458" lon="-8.8169289752841">
        <ele>127.03</ele>
        <time>2025-05-06T14:36:58Z</time>
      </trkpt>
      <trkpt lat="37.227580966427922" lon="-8.817139025777578">
        <ele>127.98999999999999</ele>
        <time>2025-05-06T14:36:59Z</time>
      </trkpt>
      <trkpt lat="37.227580966427922" lon="-8.817333988845348">
        <ele>128.47</ele>
        <time>2025-05-06T14:37:00Z</time>
      </trkpt>
      <trkpt lat="37.227570991963148" lon="-8.817520989105105">
        <ele>128.94999999999999</ele>
        <time>2025-05-06T14:37:01Z</time>
      </trkpt>
      <trkpt lat="37.227541990578175" lon="-8.817715030163527">
        <ele>129.43000000000001</ele>
        <time>2025-05-06T14:37:02Z</time>
      </trkpt>
      <trkpt lat="37.227512989193201" lon="-8.817913010716438">
        <ele>129.91999999999999</ele>
        <time>2025-05-06T14:37:03Z</time>
      </trkpt>
      <trkpt lat="37.227263040840626" lon="-8.819413958117366">
        <ele>127.03</ele>
        <time>2025-05-06T14:37:11Z</time>
      </trkpt>
      <trkpt lat="37.227163966745138" lon="-8.820426994934678">
        <ele>123.67</ele>
        <time>2025-05-06T14:37:18Z</time>
      </trkpt>
      <trkpt lat="37.227208977565169" lon="-8.820564039051533">
        <ele>123.19</ele>
        <time>2025-05-06T14:37:19Z</time>
      </trkpt>
      <trkpt lat="37.22725298255682" lon="-8.820694964379072">
        <ele>122.22</ele>
        <time>2025-05-06T14:37:20Z</time>
      </trkpt>
      <trkpt lat="37.227431014180183" lon="-8.82127096876502">
        <ele>118.86</ele>
        <time>2025-05-06T14:37:24Z</time>
      </trkpt>
      <trkpt lat="37.227436965331435" lon="-8.821413964033127">
        <ele>117.90000000000001</ele>
        <time>2025-05-06T14:37:25Z</time>
      </trkpt>
      <trkpt lat="37.22744501195848" lon="-8.821594007313252">
        <ele>117.42</ele>
        <time>2025-05-06T14:37:26Z</time>
      </trkpt>
      <trkpt lat="37.227513995021582" lon="-8.823196040466428">
        <ele>108.29000000000001</ele>
        <time>2025-05-06T14:37:35Z</time>
      </trkpt>
      <trkpt lat="37.227550037205219" lon="-8.823337024077773">
        <ele>107.31999999999999</ele>
        <time>2025-05-06T14:37:36Z</time>
      </trkpt>
      <trkpt lat="37.227598987519741" lon="-8.823473984375596">
        <ele>106.84</ele>
        <time>2025-05-06T14:37:37Z</time>
      </trkpt>
      <trkpt lat="37.227674005553126" lon="-8.82360901683569">
        <ele>105.88</ele>
        <time>2025-05-06T14:37:38Z</time>
      </trkpt>
      <trkpt lat="37.227770984172821" lon="-8.823732985183597">
        <ele>105.40000000000001</ele>
        <time>2025-05-06T14:37:39Z</time>
      </trkpt>
      <trkpt lat="37.22794096916914" lon="-8.824030961841345">
        <ele>105.40000000000001</ele>
        <time>2025-05-06T14:37:41Z</time>
      </trkpt>
      <trkpt lat="37.228501969948411" lon="-8.825679011642933">
        <ele>104.44</ele>
        <time>2025-05-06T14:37:49Z</time>
      </trkpt>
      <trkpt lat="37.229166990146041" lon="-8.828191990032792">
        <ele>102.04000000000001</ele>
        <time>2025-05-06T14:38:00Z</time>
      </trkpt>
      <trkpt lat="37.229519030079246" lon="-8.82964700460434">
        <ele>103.95999999999999</ele>
        <time>2025-05-06T14:38:07Z</time>
      </trkpt>
      <trkpt lat="37.229592958465219" lon="-8.829921009019017">
        <ele>104.92</ele>
        <time>2025-05-06T14:38:09Z</time>
      </trkpt>
      <trkpt lat="37.229622965678573" lon="-8.830026034265757">
        <ele>105.40000000000001</ele>
        <time>2025-05-06T14:38:10Z</time>
      </trkpt>
      <trkpt lat="37.229644004255533" lon="-8.830101974308491">
        <ele>105.40000000000001</ele>
        <time>2025-05-06T14:38:11Z</time>
      </trkpt>
      <trkpt lat="37.22965800203383" lon="-8.830147990956903">
        <ele>105.40000000000001</ele>
        <time>2025-05-06T14:38:12Z</time>
      </trkpt>
      <trkpt lat="37.229665964841843" lon="-8.830176992341876">
        <ele>105.88</ele>
        <time>2025-05-06T14:38:13Z</time>
      </trkpt>
      <trkpt lat="37.229674011468887" lon="-8.83020599372685">
        <ele>105.88</ele>
        <time>2025-05-06T14:38:14Z</time>
      </trkpt>
      <trkpt lat="37.229683985933661" lon="-8.830240024253726">
        <ele>106.36</ele>
        <time>2025-05-06T14:38:15Z</time>
      </trkpt>
      <trkpt lat="37.229664959013462" lon="-8.830252010375261">
        <ele>106.36</ele>
        <time>2025-05-06T14:38:16Z</time>
      </trkpt>
      <trkpt lat="37.229612991213799" lon="-8.830286040902138">
        <ele>106.84</ele>
        <time>2025-05-06T14:38:17Z</time>
      </trkpt>
      <trkpt lat="37.229550965130329" lon="-8.830326022580266">
        <ele>106.84</ele>
        <time>2025-05-06T14:38:18Z</time>
      </trkpt>
      <trkpt lat="37.228957023471594" lon="-8.830705974251032">
        <ele>108.29000000000001</ele>
        <time>2025-05-06T14:38:24Z</time>
      </trkpt>
      <trkpt lat="37.227562023326755" lon="-8.831580961123109">
        <ele>111.17</ele>
        <time>2025-05-06T14:38:33Z</time>
      </trkpt>
      <trkpt lat="37.225950015708804" lon="-8.832578994333744">
        <ele>115.5</ele>
        <time>2025-05-06T14:38:43Z</time>
      </trkpt>
      <trkpt lat="37.225461015477777" lon="-8.832856016233563">
        <ele>117.42</ele>
        <time>2025-05-06T14:38:46Z</time>
      </trkpt>
      <trkpt lat="37.22403097897768" lon="-8.833331018686295">
        <ele>118.38</ele>
        <time>2025-05-06T14:38:54Z</time>
      </trkpt>
      <trkpt lat="37.222627010196447" lon="-8.833727985620499">
        <ele>117.90000000000001</ele>
        <time>2025-05-06T14:39:02Z</time>
      </trkpt>
      <trkpt lat="37.221260005608201" lon="-8.834114978089929">
        <ele>117.90000000000001</ele>
        <time>2025-05-06T14:39:10Z</time>
      </trkpt>
      <trkpt lat="37.219134019687772" lon="-8.834715960547328">
        <ele>121.26000000000001</ele>
        <time>2025-05-06T14:39:21Z</time>
      </trkpt>
      <trkpt lat="37.217829963192344" lon="-8.835046039894223">
        <ele>127.98999999999999</ele>
        <time>2025-05-06T14:39:28Z</time>
      </trkpt>
      <trkpt lat="37.217665007337928" lon="-8.835046039894223">
        <ele>128.94999999999999</ele>
        <time>2025-05-06T14:39:29Z</time>
      </trkpt>
      <trkpt lat="37.217503990978003" lon="-8.835025001317263">
        <ele>130.40000000000001</ele>
        <time>2025-05-06T14:39:30Z</time>
      </trkpt>
      <trkpt lat="37.2173469979316" lon="-8.834963981062174">
        <ele>131.84</ele>
        <time>2025-05-06T14:39:31Z</time>
      </trkpt>
      <trkpt lat="37.217185981571674" lon="-8.834901032969356">
        <ele>132.80000000000001</ele>
        <time>2025-05-06T14:39:32Z</time>
      </trkpt>
      <trkpt lat="37.217027982696891" lon="-8.834840012714267">
        <ele>134.24000000000001</ele>
        <time>2025-05-06T14:39:33Z</time>
      </trkpt>
      <trkpt lat="37.216894961893559" lon="-8.834788966923952">
        <ele>135.68000000000001</ele>
        <time>2025-05-06T14:39:34Z</time>
      </trkpt>
      <trkpt lat="37.216709973290563" lon="-8.834772035479546">
        <ele>136.63999999999999</ele>
        <time>2025-05-06T14:39:35Z</time>
      </trkpt>
      <trkpt lat="37.216540994122624" lon="-8.834757031872869">
        <ele>138.09</ele>
        <time>2025-05-06T14:39:36Z</time>
      </trkpt>
      <trkpt lat="37.216360028833151" lon="-8.834747979417443">
        <ele>138.56999999999999</ele>
        <time>2025-05-06T14:39:37Z</time>
      </trkpt>
      <trkpt lat="37.214706027880311" lon="-8.834797013550997">
        <ele>141.44999999999999</ele>
        <time>2025-05-06T14:39:45Z</time>
      </trkpt>
      <trkpt lat="37.21453302539885" lon="-8.834806988015771">
        <ele>140.97</ele>
        <time>2025-05-06T14:39:46Z</time>
      </trkpt>
      <trkpt lat="37.214377038180828" lon="-8.834863984957337">
        <ele>140.49000000000001</ele>
        <time>2025-05-06T14:39:47Z</time>
      </trkpt>
      <trkpt lat="37.214251980185509" lon="-8.834964986890554">
        <ele>140.00999999999999</ele>
        <time>2025-05-06T14:39:48Z</time>
      </trkpt>
      <trkpt lat="37.214127006009221" lon="-8.835089039057493">
        <ele>139.53</ele>
        <time>2025-05-06T14:39:49Z</time>
      </trkpt>
      <trkpt lat="37.213994991034269" lon="-8.835220970213413">
        <ele>139.05000000000001</ele>
        <time>2025-05-06T14:39:50Z</time>
      </trkpt>
      <trkpt lat="37.213855013251305" lon="-8.83536103181541">
        <ele>138.09</ele>
        <time>2025-05-06T14:39:51Z</time>
      </trkpt>
      <trkpt lat="37.213706988841295" lon="-8.835509978234768">
        <ele>137.13</ele>
        <time>2025-05-06T14:39:52Z</time>
      </trkpt>
      <trkpt lat="37.213542032986879" lon="-8.835651967674494">
        <ele>135.68000000000001</ele>
        <time>2025-05-06T14:39:53Z</time>
      </trkpt>
      <trkpt lat="37.213364001363516" lon="-8.835784988477826">
        <ele>134.24000000000001</ele>
        <time>2025-05-06T14:39:54Z</time>
      </trkpt>
      <trkpt lat="37.213192004710436" lon="-8.835913985967636">
        <ele>132.31999999999999</ele>
        <time>2025-05-06T14:39:55Z</time>
      </trkpt>
      <trkpt lat="37.212746003642678" lon="-8.836339032277465">
        <ele>127.51000000000001</ele>
        <time>2025-05-06T14:39:58Z</time>
      </trkpt>
      <trkpt lat="37.212625974789262" lon="-8.836524020880461">
        <ele>125.59</ele>
        <time>2025-05-06T14:39:59Z</time>
      </trkpt>
      <trkpt lat="37.212368985638022" lon="-8.836919981986284">
        <ele>122.22</ele>
        <time>2025-05-06T14:40:01Z</time>
      </trkpt>
      <trkpt lat="37.212209980934858" lon="-8.837105976417661">
        <ele>120.3</ele>
        <time>2025-05-06T14:40:02Z</time>
      </trkpt>
      <trkpt lat="37.211291994899511" lon="-8.838141979649663">
        <ele>110.20999999999999</ele>
        <time>2025-05-06T14:40:08Z</time>
      </trkpt>
      <trkpt lat="37.21122301183641" lon="-8.838302996009588">
        <ele>108.77</ele>
        <time>2025-05-06T14:40:09Z</time>
      </trkpt>
      <trkpt lat="37.211187975481153" lon="-8.838475998491049">
        <ele>107.31999999999999</ele>
        <time>2025-05-06T14:40:10Z</time>
      </trkpt>
      <trkpt lat="37.211123015731573" lon="-8.838800964877009">
        <ele>105.40000000000001</ele>
        <time>2025-05-06T14:40:12Z</time>
      </trkpt>
      <trkpt lat="37.211058977991343" lon="-8.838929962366819">
        <ele>104.44</ele>
        <time>2025-05-06T14:40:13Z</time>
      </trkpt>
      <trkpt lat="37.210958981886506" lon="-8.838970027863979">
        <ele>103.48</ele>
        <time>2025-05-06T14:40:14Z</time>
      </trkpt>
      <trkpt lat="37.210876001045108" lon="-8.838960975408554">
        <ele>102.52</ele>
        <time>2025-05-06T14:40:15Z</time>
      </trkpt>
      <trkpt lat="37.210783967748284" lon="-8.838924011215568">
        <ele>101.56</ele>
        <time>2025-05-06T14:40:16Z</time>
      </trkpt>
      <trkpt lat="37.210675003007054" lon="-8.838843964040279">
        <ele>101.08</ele>
        <time>2025-05-06T14:40:17Z</time>
      </trkpt>
      <trkpt lat="37.210551034659147" lon="-8.838753020390868">
        <ele>100.11</ele>
        <time>2025-05-06T14:40:18Z</time>
      </trkpt>
      <trkpt lat="37.210405021905899" lon="-8.838687976822257">
        <ele>99.629999999999995</ele>
        <time>2025-05-06T14:40:19Z</time>
      </trkpt>
      <trkpt lat="37.210254985839128" lon="-8.838644977658987">
        <ele>99.150000000000006</ele>
        <time>2025-05-06T14:40:20Z</time>
      </trkpt>
      <trkpt lat="37.210096986964345" lon="-8.838660987094045">
        <ele>98.670000000000002</ele>
        <time>2025-05-06T14:40:21Z</time>
      </trkpt>
      <trkpt lat="37.2099369764328" lon="-8.838709015399218">
        <ele>98.189999999999998</ele>
        <time>2025-05-06T14:40:22Z</time>
      </trkpt>
      <trkpt lat="37.209769003093243" lon="-8.83875897154212">
        <ele>97.709999999999994</ele>
        <time>2025-05-06T14:40:23Z</time>
      </trkpt>
      <trkpt lat="37.209603963419795" lon="-8.838856033980846">
        <ele>97.230000000000004</ele>
        <time>2025-05-06T14:40:24Z</time>
      </trkpt>
      <trkpt lat="37.20931202173233" lon="-8.839026018977165">
        <ele>95.790000000000006</ele>
        <time>2025-05-06T14:40:26Z</time>
      </trkpt>
      <trkpt lat="37.209253013134003" lon="-8.83910003118217">
        <ele>94.829999999999998</ele>
        <time>2025-05-06T14:40:27Z</time>
      </trkpt>
      <trkpt lat="37.209243038669229" lon="-8.839218970388174">
        <ele>94.349999999999994</ele>
        <time>2025-05-06T14:40:28Z</time>
      </trkpt>
      <trkpt lat="37.209230968728662" lon="-8.83935802616179">
        <ele>93.870000000000005</ele>
        <time>2025-05-06T14:40:29Z</time>
      </trkpt>
      <trkpt lat="37.209218982607126" lon="-8.839502027258277">
        <ele>93.390000000000001</ele>
        <time>2025-05-06T14:40:30Z</time>
      </trkpt>
      <trkpt lat="37.209180006757379" lon="-8.839623983949423">
        <ele>92.420000000000002</ele>
        <time>2025-05-06T14:40:31Z</time>
      </trkpt>
      <trkpt lat="37.209116974845529" lon="-8.839719034731388">
        <ele>91.939999999999998</ele>
        <time>2025-05-06T14:40:32Z</time>
      </trkpt>
      <trkpt lat="37.209025025367737" lon="-8.839778965339065">
        <ele>90.980000000000004</ele>
        <time>2025-05-06T14:40:33Z</time>
      </trkpt>
      <trkpt lat="37.208915976807475" lon="-8.83976798504591">
        <ele>90.5</ele>
        <time>2025-05-06T14:40:34Z</time>
      </trkpt>
      <trkpt lat="37.208810029551387" lon="-8.839708976447582">
        <ele>90.019999999999996</ele>
        <time>2025-05-06T14:40:35Z</time>
      </trkpt>
      <trkpt lat="37.208701986819506" lon="-8.839605962857604">
        <ele>89.540000000000006</ele>
        <time>2025-05-06T14:40:36Z</time>
      </trkpt>
      <trkpt lat="37.208586987107992" lon="-8.839494986459613">
        <ele>89.060000000000002</ele>
        <time>2025-05-06T14:40:37Z</time>
      </trkpt>
      <trkpt lat="37.208237964659929" lon="-8.839220982044935">
        <ele>87.620000000000005</ele>
        <time>2025-05-06T14:40:40Z</time>
      </trkpt>
      <trkpt lat="37.208119025453925" lon="-8.83916599676013">
        <ele>87.140000000000001</ele>
        <time>2025-05-06T14:40:41Z</time>
      </trkpt>
      <trkpt lat="37.207993967458606" lon="-8.839201033115387">
        <ele>86.659999999999997</ele>
        <time>2025-05-06T14:40:42Z</time>
      </trkpt>
      <trkpt lat="37.207845021039248" lon="-8.839243026450276">
        <ele>86.180000000000007</ele>
        <time>2025-05-06T14:40:43Z</time>
      </trkpt>
      <trkpt lat="37.207684004679322" lon="-8.839288037270308">
        <ele>85.209999999999994</ele>
        <time>2025-05-06T14:40:44Z</time>
      </trkpt>
      <trkpt lat="37.207531034946442" lon="-8.839331958442926">
        <ele>84.730000000000004</ele>
        <time>2025-05-06T14:40:45Z</time>
      </trkpt>
      <trkpt lat="37.207387033849955" lon="-8.839334975928068">
        <ele>84.25</ele>
        <time>2025-05-06T14:40:46Z</time>
      </trkpt>
      <trkpt lat="37.207254013046622" lon="-8.839264987036586">
        <ele>83.290000000000006</ele>
        <time>2025-05-06T14:40:47Z</time>
      </trkpt>
      <trkpt lat="37.207123003900051" lon="-8.839194998145104">
        <ele>82.810000000000002</ele>
        <time>2025-05-06T14:40:48Z</time>
      </trkpt>
      <trkpt lat="37.206994006410241" lon="-8.839127020910382">
        <ele>81.849999999999994</ele>
        <time>2025-05-06T14:40:49Z</time>
      </trkpt>
      <trkpt lat="37.206414984539151" lon="-8.838819991797209">
        <ele>78</ele>
        <time>2025-05-06T14:40:54Z</time>
      </trkpt>
      <trkpt lat="37.206329992040992" lon="-8.838817980140448">
        <ele>77.040000000000006</ele>
        <time>2025-05-06T14:40:55Z</time>
      </trkpt>
      <trkpt lat="37.206235025078058" lon="-8.838849999010563">
        <ele>76.560000000000002</ele>
        <time>2025-05-06T14:40:56Z</time>
      </trkpt>
      <trkpt lat="37.206134023144841" lon="-8.838884029537439">
        <ele>76.079999999999998</ele>
        <time>2025-05-06T14:40:57Z</time>
      </trkpt>
      <trkpt lat="37.206030003726482" lon="-8.838923005387187">
        <ele>75.120000000000005</ele>
        <time>2025-05-06T14:40:58Z</time>
      </trkpt>
      <trkpt lat="37.205344028770924" lon="-8.839256018400192">
        <ele>71.269999999999996</ele>
        <time>2025-05-06T14:41:04Z</time>
      </trkpt>
      <trkpt lat="37.205254007130861" lon="-8.839343022555113">
        <ele>70.790000000000006</ele>
        <time>2025-05-06T14:41:05Z</time>
      </trkpt>
      <trkpt lat="37.205181000754237" lon="-8.839436983689666">
        <ele>69.829999999999998</ele>
        <time>2025-05-06T14:41:06Z</time>
      </trkpt>
      <trkpt lat="37.205118974670768" lon="-8.839560030028224">
        <ele>69.349999999999994</ele>
        <time>2025-05-06T14:41:07Z</time>
      </trkpt>
      <trkpt lat="37.205063989385962" lon="-8.839694978669286">
        <ele>68.390000000000001</ele>
        <time>2025-05-06T14:41:08Z</time>
      </trkpt>
      <trkpt lat="37.205007998272777" lon="-8.83983101695776">
        <ele>67.909999999999997</ele>
        <time>2025-05-06T14:41:09Z</time>
      </trkpt>
      <trkpt lat="37.204711027443409" lon="-8.841010015457869">
        <ele>61.18</ele>
        <time>2025-05-06T14:41:17Z</time>
      </trkpt>
      <trkpt lat="37.20465000718832" lon="-8.841143036261201">
        <ele>61.18</ele>
        <time>2025-05-06T14:41:18Z</time>
      </trkpt>
      <trkpt lat="37.204569038003683" lon="-8.841272033751011">
        <ele>60.700000000000003</ele>
        <time>2025-05-06T14:41:19Z</time>
      </trkpt>
      <trkpt lat="37.204473987221718" lon="-8.841391978785396">
        <ele>61.18</ele>
        <time>2025-05-06T14:41:20Z</time>
      </trkpt>
      <trkpt lat="37.204369967803359" lon="-8.841515025123954">
        <ele>60.700000000000003</ele>
        <time>2025-05-06T14:41:21Z</time>
      </trkpt>
      <trkpt lat="37.204224038869143" lon="-8.841610997915268">
        <ele>60.219999999999999</ele>
        <time>2025-05-06T14:41:22Z</time>
      </trkpt>
      <trkpt lat="37.204046007245779" lon="-8.841728009283543">
        <ele>59.259999999999998</ele>
        <time>2025-05-06T14:41:23Z</time>
      </trkpt>
      <trkpt lat="37.202947977930307" lon="-8.842449020594358">
        <ele>49.649999999999999</ele>
        <time>2025-05-06T14:41:29Z</time>
      </trkpt>
      <trkpt lat="37.202810011804104" lon="-8.842572988942266">
        <ele>47.719999999999999</ele>
        <time>2025-05-06T14:41:30Z</time>
      </trkpt>
      <trkpt lat="37.202696017920971" lon="-8.842711038887501">
        <ele>45.799999999999997</ele>
        <time>2025-05-06T14:41:31Z</time>
      </trkpt>
      <trkpt lat="37.202611025422812" lon="-8.842870965600014">
        <ele>43.880000000000003</ele>
        <time>2025-05-06T14:41:32Z</time>
      </trkpt>
      <trkpt lat="37.202540030702949" lon="-8.843048997223377">
        <ele>42.439999999999998</ele>
        <time>2025-05-06T14:41:33Z</time>
      </trkpt>
      <trkpt lat="37.202485967427492" lon="-8.843258963897824">
        <ele>40.509999999999998</ele>
        <time>2025-05-06T14:41:34Z</time>
      </trkpt>
      <trkpt lat="37.202430982142687" lon="-8.843472031876445">
        <ele>39.549999999999997</ele>
        <time>2025-05-06T14:41:35Z</time>
      </trkpt>
      <trkpt lat="37.201982969418168" lon="-8.845271961763501">
        <ele>32.340000000000003</ele>
        <time>2025-05-06T14:41:43Z</time>
      </trkpt>
      <trkpt lat="37.201691027730703" lon="-8.846194976940751">
        <ele>31.379999999999999</ele>
        <time>2025-05-06T14:41:47Z</time>
      </trkpt>
      <trkpt lat="37.20088804140687" lon="-8.847607998177409">
        <ele>31.859999999999999</ele>
        <time>2025-05-06T14:41:53Z</time>
      </trkpt>
      <trkpt lat="37.200411027297378" lon="-8.848408972844482">
        <ele>32.340000000000003</ele>
        <time>2025-05-06T14:41:57Z</time>
      </trkpt>
      <trkpt lat="37.200286975130439" lon="-8.848607959225774">
        <ele>32.340000000000003</ele>
        <time>2025-05-06T14:41:58Z</time>
      </trkpt>
      <trkpt lat="37.200141968205571" lon="-8.848760006949306">
        <ele>32.82</ele>
        <time>2025-05-06T14:41:59Z</time>
      </trkpt>
      <trkpt lat="37.199565963819623" lon="-8.84937004186213">
        <ele>34.740000000000002</ele>
        <time>2025-05-06T14:42:03Z</time>
      </trkpt>
      <trkpt lat="37.199461022391915" lon="-8.849539021030068">
        <ele>34.740000000000002</ele>
        <time>2025-05-06T14:42:04Z</time>
      </trkpt>
      <trkpt lat="37.199392961338162" lon="-8.849701965227723">
        <ele>35.229999999999997</ele>
        <time>2025-05-06T14:42:05Z</time>
      </trkpt>
      <trkpt lat="37.199350968003273" lon="-8.849899023771286">
        <ele>35.710000000000001</ele>
        <time>2025-05-06T14:42:06Z</time>
      </trkpt>
      <trkpt lat="37.199332024902105" lon="-8.850103039294481">
        <ele>36.189999999999998</ele>
        <time>2025-05-06T14:42:07Z</time>
      </trkpt>
      <trkpt lat="37.199315009638667" lon="-8.850339995697141">
        <ele>36.189999999999998</ele>
        <time>2025-05-06T14:42:08Z</time>
      </trkpt>
      <trkpt lat="37.199219036847353" lon="-8.851344985887408">
        <ele>35.229999999999997</ele>
        <time>2025-05-06T14:42:12Z</time>
      </trkpt>
      <trkpt lat="37.199149969965219" lon="-8.851568028330803">
        <ele>34.740000000000002</ele>
        <time>2025-05-06T14:42:13Z</time>
      </trkpt>
      <trkpt lat="37.199045028537512" lon="-8.851779000833631">
        <ele>34.740000000000002</ele>
        <time>2025-05-06T14:42:14Z</time>
      </trkpt>
      <trkpt lat="37.198652001097798" lon="-8.852642001584172">
        <ele>32.82</ele>
        <time>2025-05-06T14:42:18Z</time>
      </trkpt>
      <trkpt lat="37.198632974177599" lon="-8.852862026542425">
        <ele>32.82</ele>
        <time>2025-05-06T14:42:19Z</time>
      </trkpt>
      <trkpt lat="37.198613025248051" lon="-8.853096971288323">
        <ele>32.340000000000003</ele>
        <time>2025-05-06T14:42:20Z</time>
      </trkpt>
      <trkpt lat="37.198546975851059" lon="-8.855018019676209">
        <ele>31.379999999999999</ele>
        <time>2025-05-06T14:42:27Z</time>
      </trkpt>
      <trkpt lat="37.198473969474435" lon="-8.857458997517824">
        <ele>30.899999999999999</ele>
        <time>2025-05-06T14:42:36Z</time>
      </trkpt>
      <trkpt lat="37.198413033038378" lon="-8.859778018668294">
        <ele>28.98</ele>
        <time>2025-05-06T14:42:45Z</time>
      </trkpt>
      <trkpt lat="37.198401968926191" lon="-8.860250003635883">
        <ele>28.5</ele>
        <time>2025-05-06T14:42:47Z</time>
      </trkpt>
      <trkpt lat="37.198416972532868" lon="-8.860468016937375">
        <ele>28.02</ele>
        <time>2025-05-06T14:42:48Z</time>
      </trkpt>
      <trkpt lat="37.19846298918128" lon="-8.860667003318667">
        <ele>28.02</ele>
        <time>2025-05-06T14:42:49Z</time>
      </trkpt>
      <trkpt lat="37.198558039963245" lon="-8.860858026891947">
        <ele>27.530000000000001</ele>
        <time>2025-05-06T14:42:50Z</time>
      </trkpt>
      <trkpt lat="37.198652001097798" lon="-8.861044021323323">
        <ele>27.530000000000001</ele>
        <time>2025-05-06T14:42:51Z</time>
      </trkpt>
      <trkpt lat="37.198730958625674" lon="-8.861223980784416">
        <ele>27.050000000000001</ele>
        <time>2025-05-06T14:42:52Z</time>
      </trkpt>
      <trkpt lat="37.198776975274086" lon="-8.861407041549683">
        <ele>27.530000000000001</ele>
        <time>2025-05-06T14:42:53Z</time>
      </trkpt>
      <trkpt lat="37.198777981102467" lon="-8.861588006839156">
        <ele>27.530000000000001</ele>
        <time>2025-05-06T14:42:54Z</time>
      </trkpt>
      <trkpt lat="37.198768006637692" lon="-8.861796967685223">
        <ele>27.530000000000001</ele>
        <time>2025-05-06T14:42:55Z</time>
      </trkpt>
      <trkpt lat="37.198739005252719" lon="-8.862011963501573">
        <ele>27.050000000000001</ele>
        <time>2025-05-06T14:42:56Z</time>
      </trkpt>
      <trkpt lat="37.198693994432688" lon="-8.862235005944967">
        <ele>26.57</ele>
        <time>2025-05-06T14:42:57Z</time>
      </trkpt>
      <trkpt lat="37.198441028594971" lon="-8.863604022189975">
        <ele>26.57</ele>
        <time>2025-05-06T14:43:03Z</time>
      </trkpt>
      <trkpt lat="37.198441028594971" lon="-8.863848019391298">
        <ele>27.050000000000001</ele>
        <time>2025-05-06T14:43:04Z</time>
      </trkpt>
      <trkpt lat="37.198540018871427" lon="-8.865064987912774">
        <ele>27.050000000000001</ele>
        <time>2025-05-06T14:43:09Z</time>
      </trkpt>
      <trkpt lat="37.198589975014329" lon="-8.865252994000912">
        <ele>27.050000000000001</ele>
        <time>2025-05-06T14:43:10Z</time>
      </trkpt>
      <trkpt lat="37.198659963905811" lon="-8.86542197316885">
        <ele>27.050000000000001</ele>
        <time>2025-05-06T14:43:11Z</time>
      </trkpt>
      <trkpt lat="37.198768006637692" lon="-8.865572009235621">
        <ele>27.530000000000001</ele>
        <time>2025-05-06T14:43:12Z</time>
      </trkpt>
      <trkpt lat="37.198899015784264" lon="-8.865692038089037">
        <ele>28.02</ele>
        <time>2025-05-06T14:43:13Z</time>
      </trkpt>
      <trkpt lat="37.199049973860383" lon="-8.865803014487028">
        <ele>28.98</ele>
        <time>2025-05-06T14:43:14Z</time>
      </trkpt>
      <trkpt lat="37.19921400770545" lon="-8.865923965349793">
        <ele>29.940000000000001</ele>
        <time>2025-05-06T14:43:15Z</time>
      </trkpt>
      <trkpt lat="37.199378041550517" lon="-8.865945003926754">
        <ele>30.420000000000002</ele>
        <time>2025-05-06T14:43:16Z</time>
      </trkpt>
      <trkpt lat="37.199552971869707" lon="-8.865967970341444">
        <ele>30.899999999999999</ele>
        <time>2025-05-06T14:43:17Z</time>
      </trkpt>
      <trkpt lat="37.199737038463354" lon="-8.865991020575166">
        <ele>31.379999999999999</ele>
        <time>2025-05-06T14:43:18Z</time>
      </trkpt>
      <trkpt lat="37.199918003752828" lon="-8.866025973111391">
        <ele>32.340000000000003</ele>
        <time>2025-05-06T14:43:19Z</time>
      </trkpt>
      <trkpt lat="37.200096035376191" lon="-8.866099985316396">
        <ele>32.82</ele>
        <time>2025-05-06T14:43:20Z</time>
      </trkpt>
      <trkpt lat="37.200253028422594" lon="-8.866224959492683">
        <ele>33.780000000000001</ele>
        <time>2025-05-06T14:43:21Z</time>
      </trkpt>
      <trkpt lat="37.200379008427262" lon="-8.866341970860958">
        <ele>34.740000000000002</ele>
        <time>2025-05-06T14:43:22Z</time>
      </trkpt>
      <trkpt lat="37.200459977611899" lon="-8.866470968350768">
        <ele>34.740000000000002</ele>
        <time>2025-05-06T14:43:23Z</time>
      </trkpt>
      <trkpt lat="37.200512029230595" lon="-8.866635002195835">
        <ele>35.229999999999997</ele>
        <time>2025-05-06T14:43:24Z</time>
      </trkpt>
      <trkpt lat="37.200530972331762" lon="-8.866800963878632">
        <ele>35.710000000000001</ele>
        <time>2025-05-06T14:43:25Z</time>
      </trkpt>
      <trkpt lat="37.200494008138776" lon="-8.866975978016853">
        <ele>35.710000000000001</ele>
        <time>2025-05-06T14:43:26Z</time>
      </trkpt>
      <trkpt lat="37.200457965955138" lon="-8.867146968841553">
        <ele>36.189999999999998</ele>
        <time>2025-05-06T14:43:27Z</time>
      </trkpt>
      <trkpt lat="37.20035201869905" lon="-8.867292981594801">
        <ele>36.670000000000002</ele>
        <time>2025-05-06T14:43:28Z</time>
      </trkpt>
      <trkpt lat="37.200232995674014" lon="-8.867457015439868">
        <ele>37.630000000000003</ele>
        <time>2025-05-06T14:43:29Z</time>
      </trkpt>
      <trkpt lat="37.200114978477359" lon="-8.867619037628174">
        <ele>38.590000000000003</ele>
        <time>2025-05-06T14:43:30Z</time>
      </trkpt>
      <trkpt lat="37.200028980150819" lon="-8.867835039272904">
        <ele>39.07</ele>
        <time>2025-05-06T14:43:31Z</time>
      </trkpt>
      <trkpt lat="37.199942981824279" lon="-8.868048023432493">
        <ele>39.549999999999997</ele>
        <time>2025-05-06T14:43:32Z</time>
      </trkpt>
      <trkpt lat="37.199924038723111" lon="-8.868269976228476">
        <ele>40.030000000000001</ele>
        <time>2025-05-06T14:43:33Z</time>
      </trkpt>
      <trkpt lat="37.199903000146151" lon="-8.868509028106928">
        <ele>40.509999999999998</ele>
        <time>2025-05-06T14:43:34Z</time>
      </trkpt>
      <trkpt lat="37.199933007359505" lon="-8.868746990337968">
        <ele>41.469999999999999</ele>
        <time>2025-05-06T14:43:35Z</time>
      </trkpt>
      <trkpt lat="37.199971983209252" lon="-8.868991993367672">
        <ele>41.950000000000003</ele>
        <time>2025-05-06T14:43:36Z</time>
      </trkpt>
      <trkpt lat="37.200009031221271" lon="-8.869226016104221">
        <ele>42.439999999999998</ele>
        <time>2025-05-06T14:43:37Z</time>
      </trkpt>
      <trkpt lat="37.200024034827948" lon="-8.869455009698868">
        <ele>43.399999999999999</ele>
        <time>2025-05-06T14:43:38Z</time>
      </trkpt>
      <trkpt lat="37.200010959059" lon="-8.869676040485501">
        <ele>44.359999999999999</ele>
        <time>2025-05-06T14:43:39Z</time>
      </trkpt>
      <trkpt lat="37.199953962117434" lon="-8.86988902464509">
        <ele>44.840000000000003</ele>
        <time>2025-05-06T14:43:40Z</time>
      </trkpt>
      <trkpt lat="37.19988196156919" lon="-8.870112989097834">
        <ele>45.32</ele>
        <time>2025-05-06T14:43:41Z</time>
      </trkpt>
      <trkpt lat="37.199806021526456" lon="-8.870352040976286">
        <ele>45.32</ele>
        <time>2025-05-06T14:43:42Z</time>
      </trkpt>
      <trkpt lat="37.199455993250012" lon="-8.871549982577562">
        <ele>43.399999999999999</ele>
        <time>2025-05-06T14:43:47Z</time>
      </trkpt>
      <trkpt lat="37.199432021006942" lon="-8.871789034456015">
        <ele>42.920000000000002</ele>
        <time>2025-05-06T14:43:48Z</time>
      </trkpt>
      <trkpt lat="37.199454987421632" lon="-8.872033031657338">
        <ele>41.950000000000003</ele>
        <time>2025-05-06T14:43:49Z</time>
      </trkpt>
      <trkpt lat="37.199556995183229" lon="-8.873127959668636">
        <ele>37.630000000000003</ele>
        <time>2025-05-06T14:43:53Z</time>
      </trkpt>
      <trkpt lat="37.199533022940159" lon="-8.873414034023881">
        <ele>36.670000000000002</ele>
        <time>2025-05-06T14:43:54Z</time>
      </trkpt>
      <trkpt lat="37.199495974928141" lon="-8.873717961832881">
        <ele>35.710000000000001</ele>
        <time>2025-05-06T14:43:55Z</time>
      </trkpt>
      <trkpt lat="37.199350968003273" lon="-8.87489402666688">
        <ele>31.379999999999999</ele>
        <time>2025-05-06T14:43:59Z</time>
      </trkpt>
      <trkpt lat="37.199352979660034" lon="-8.875159984454513">
        <ele>30.420000000000002</ele>
        <time>2025-05-06T14:44:00Z</time>
      </trkpt>
      <trkpt lat="37.199377035722136" lon="-8.875416973605752">
        <ele>29.460000000000001</ele>
        <time>2025-05-06T14:44:01Z</time>
      </trkpt>
      <trkpt lat="37.199438977986574" lon="-8.875664994120598">
        <ele>28.98</ele>
        <time>2025-05-06T14:44:02Z</time>
      </trkpt>
      <trkpt lat="37.199504021555185" lon="-8.875907985493541">
        <ele>28.02</ele>
        <time>2025-05-06T14:44:03Z</time>
      </trkpt>
      <trkpt lat="37.199661014601588" lon="-8.876387011259794">
        <ele>26.09</ele>
        <time>2025-05-06T14:44:05Z</time>
      </trkpt>
      <trkpt lat="37.199775008484721" lon="-8.876616004854441">
        <ele>25.129999999999999</ele>
        <time>2025-05-06T14:44:06Z</time>
      </trkpt>
      <trkpt lat="37.199890008196235" lon="-8.876846004277468">
        <ele>24.649999999999999</ele>
        <time>2025-05-06T14:44:07Z</time>
      </trkpt>
      <trkpt lat="37.201357008889318" lon="-8.879101993516088">
        <ele>20.809999999999999</ele>
        <time>2025-05-06T14:44:18Z</time>
      </trkpt>
      <trkpt lat="37.202427964657545" lon="-8.880751971155405">
        <ele>18.879999999999999</ele>
        <time>2025-05-06T14:44:28Z</time>
      </trkpt>
      <trkpt lat="37.202808000147343" lon="-8.881396036595106">
        <ele>18.879999999999999</ele>
        <time>2025-05-06T14:44:34Z</time>
      </trkpt>
      <trkpt lat="37.202842030674219" lon="-8.881530985236168">
        <ele>18.879999999999999</ele>
        <time>2025-05-06T14:44:35Z</time>
      </trkpt>
      <trkpt lat="37.202876983210444" lon="-8.881670963019133">
        <ele>18.879999999999999</ele>
        <time>2025-05-06T14:44:36Z</time>
      </trkpt>
      <trkpt lat="37.202864997088909" lon="-8.881798032671213">
        <ele>18.879999999999999</ele>
        <time>2025-05-06T14:44:37Z</time>
      </trkpt>
      <trkpt lat="37.202840019017458" lon="-8.881943039596081">
        <ele>19.359999999999999</ele>
        <time>2025-05-06T14:44:38Z</time>
      </trkpt>
      <trkpt lat="37.202814035117626" lon="-8.882091986015439">
        <ele>19.359999999999999</ele>
        <time>2025-05-06T14:44:39Z</time>
      </trkpt>
      <trkpt lat="37.202775981277227" lon="-8.882231041789055">
        <ele>19.359999999999999</ele>
        <time>2025-05-06T14:44:40Z</time>
      </trkpt>
      <trkpt lat="37.202699035406113" lon="-8.882378982380033">
        <ele>19.84</ele>
        <time>2025-05-06T14:44:41Z</time>
      </trkpt>
      <trkpt lat="37.202614964917302" lon="-8.882542010396719">
        <ele>19.359999999999999</ele>
        <time>2025-05-06T14:44:42Z</time>
      </trkpt>
      <trkpt lat="37.202046001330018" lon="-8.883643979206681">
        <ele>18.399999999999999</ele>
        <time>2025-05-06T14:44:47Z</time>
      </trkpt>
      <trkpt lat="37.201644005253911" lon="-8.884575963020325">
        <ele>17.920000000000002</ele>
        <time>2025-05-06T14:44:51Z</time>
      </trkpt>
      <trkpt lat="37.201601006090641" lon="-8.884809985756874">
        <ele>17.440000000000001</ele>
        <time>2025-05-06T14:44:52Z</time>
      </trkpt>
      <trkpt lat="37.201574016362429" lon="-8.885064041242003">
        <ele>17.440000000000001</ele>
        <time>2025-05-06T14:44:53Z</time>
      </trkpt>
      <trkpt lat="37.201574016362429" lon="-8.885288005694747">
        <ele>17.440000000000001</ele>
        <time>2025-05-06T14:44:54Z</time>
      </trkpt>
      <trkpt lat="37.201574016362429" lon="-8.885521022602916">
        <ele>17.440000000000001</ele>
        <time>2025-05-06T14:44:55Z</time>
      </trkpt>
      <trkpt lat="37.201574016362429" lon="-8.885957971215248">
        <ele>17.440000000000001</ele>
        <time>2025-05-06T14:44:57Z</time>
      </trkpt>
      <trkpt lat="37.201545014977455" lon="-8.886171961203218">
        <ele>16.960000000000001</ele>
        <time>2025-05-06T14:44:58Z</time>
      </trkpt>
      <trkpt lat="37.201482988893986" lon="-8.886373965069652">
        <ele>17.440000000000001</ele>
        <time>2025-05-06T14:44:59Z</time>
      </trkpt>
      <trkpt lat="37.201400008052588" lon="-8.886561971157789">
        <ele>17.440000000000001</ele>
        <time>2025-05-06T14:45:00Z</time>
      </trkpt>
      <trkpt lat="37.201290959492326" lon="-8.886716030538082">
        <ele>17.440000000000001</ele>
        <time>2025-05-06T14:45:01Z</time>
      </trkpt>
      <trkpt lat="37.2011489700526" lon="-8.886848967522383">
        <ele>16.960000000000001</ele>
        <time>2025-05-06T14:45:02Z</time>
      </trkpt>
      <trkpt lat="37.2009970061481" lon="-8.886974025517702">
        <ele>16.960000000000001</ele>
        <time>2025-05-06T14:45:03Z</time>
      </trkpt>
      <trkpt lat="37.200816962867975" lon="-8.887068992480636">
        <ele>16.960000000000001</ele>
        <time>2025-05-06T14:45:04Z</time>
      </trkpt>
      <trkpt lat="37.199014015495777" lon="-8.888012040406466">
        <ele>16.48</ele>
        <time>2025-05-06T14:45:13Z</time>
      </trkpt>
      <trkpt lat="37.196546969935298" lon="-8.88916295953095">
        <ele>16.48</ele>
        <time>2025-05-06T14:45:25Z</time>
      </trkpt>
      <trkpt lat="37.194557022303343" lon="-8.889528997242451">
        <ele>13.119999999999999</ele>
        <time>2025-05-06T14:45:34Z</time>
      </trkpt>
      <trkpt lat="37.192507982254028" lon="-8.88991397805512">
        <ele>10.710000000000001</ele>
        <time>2025-05-06T14:45:43Z</time>
      </trkpt>
      <trkpt lat="37.189983017742634" lon="-8.890373976901174">
        <ele>15.039999999999999</ele>
        <time>2025-05-06T14:45:55Z</time>
      </trkpt>
      <trkpt lat="37.189032007008791" lon="-8.89060003682971">
        <ele>17.920000000000002</ele>
        <time>2025-05-06T14:46:00Z</time>
      </trkpt>
      <trkpt lat="37.188870990648866" lon="-8.890707995742559">
        <ele>17.920000000000002</ele>
        <time>2025-05-06T14:46:01Z</time>
      </trkpt>
      <trkpt lat="37.188705028966069" lon="-8.89081796631217">
        <ele>17.920000000000002</ele>
        <time>2025-05-06T14:46:02Z</time>
      </trkpt>
      <trkpt lat="37.188545018434525" lon="-8.890964984893799">
        <ele>17.920000000000002</ele>
        <time>2025-05-06T14:46:03Z</time>
      </trkpt>
      <trkpt lat="37.188395988196135" lon="-8.891150979325175">
        <ele>17.440000000000001</ele>
        <time>2025-05-06T14:46:04Z</time>
      </trkpt>
      <trkpt lat="37.188243018463254" lon="-8.891342002898455">
        <ele>17.440000000000001</ele>
        <time>2025-05-06T14:46:05Z</time>
      </trkpt>
      <trkpt lat="37.188087031245232" lon="-8.891535960137844">
        <ele>16.960000000000001</ele>
        <time>2025-05-06T14:46:06Z</time>
      </trkpt>
      <trkpt lat="37.187040969729424" lon="-8.89283599331975">
        <ele>17.440000000000001</ele>
        <time>2025-05-06T14:46:14Z</time>
      </trkpt>
      <trkpt lat="37.186300009489059" lon="-8.89378298074007">
        <ele>17.440000000000001</ele>
        <time>2025-05-06T14:46:23Z</time>
      </trkpt>
      <trkpt lat="37.185280015692115" lon="-8.89506901614368">
        <ele>23.210000000000001</ele>
        <time>2025-05-06T14:46:35Z</time>
      </trkpt>
      <trkpt lat="37.184836026281118" lon="-8.895576037466526">
        <ele>27.050000000000001</ele>
        <time>2025-05-06T14:46:40Z</time>
      </trkpt>
      <trkpt lat="37.184741981327534" lon="-8.895668992772698">
        <ele>28.02</ele>
        <time>2025-05-06T14:46:41Z</time>
      </trkpt>
      <trkpt lat="37.184641985222697" lon="-8.895712997764349">
        <ele>28.98</ele>
        <time>2025-05-06T14:46:42Z</time>
      </trkpt>
      <trkpt lat="37.184473006054759" lon="-8.89575800858438">
        <ele>30.420000000000002</ele>
        <time>2025-05-06T14:46:44Z</time>
      </trkpt>
      <trkpt lat="37.184326993301511" lon="-8.895771000534296">
        <ele>31.379999999999999</ele>
        <time>2025-05-06T14:46:46Z</time>
      </trkpt>
      <trkpt lat="37.18426002189517" lon="-8.895748034119606">
        <ele>31.859999999999999</ele>
        <time>2025-05-06T14:46:47Z</time>
      </trkpt>
      <trkpt lat="37.184188021346927" lon="-8.895720038563013">
        <ele>32.82</ele>
        <time>2025-05-06T14:46:48Z</time>
      </trkpt>
      <trkpt lat="37.184119960293174" lon="-8.89569397084415">
        <ele>33.299999999999997</ele>
        <time>2025-05-06T14:46:49Z</time>
      </trkpt>
      <trkpt lat="37.184050977230072" lon="-8.895666981115937">
        <ele>33.780000000000001</ele>
        <time>2025-05-06T14:46:50Z</time>
      </trkpt>
      <trkpt lat="37.183979982510209" lon="-8.895639991387725">
        <ele>33.780000000000001</ele>
        <time>2025-05-06T14:46:51Z</time>
      </trkpt>
      <trkpt lat="37.183912005275488" lon="-8.895614007487893">
        <ele>33.780000000000001</ele>
        <time>2025-05-06T14:46:52Z</time>
      </trkpt>
      <trkpt lat="37.183152018114924" lon="-8.895236989483237">
        <ele>33.299999999999997</ele>
        <time>2025-05-06T14:47:04Z</time>
      </trkpt>
      <trkpt lat="37.18247601762414" lon="-8.89483499340713">
        <ele>30.899999999999999</ele>
        <time>2025-05-06T14:47:14Z</time>
      </trkpt>
      <trkpt lat="37.182163037359715" lon="-8.89455595985055">
        <ele>31.379999999999999</ele>
        <time>2025-05-06T14:47:18Z</time>
      </trkpt>
      <trkpt lat="37.182078966870904" lon="-8.894472979009152">
        <ele>31.379999999999999</ele>
        <time>2025-05-06T14:47:19Z</time>
      </trkpt>
      <trkpt lat="37.181996991857886" lon="-8.894368959590793">
        <ele>30.899999999999999</ele>
        <time>2025-05-06T14:47:20Z</time>
      </trkpt>
      <trkpt lat="37.181445965543389" lon="-8.893321976065636">
        <ele>30.899999999999999</ele>
        <time>2025-05-06T14:47:26Z</time>
      </trkpt>
      <trkpt lat="37.180417003110051" lon="-8.891150979325175">
        <ele>34.740000000000002</ele>
        <time>2025-05-06T14:47:37Z</time>
      </trkpt>
      <trkpt lat="37.179992962628603" lon="-8.890329971909523">
        <ele>39.07</ele>
        <time>2025-05-06T14:47:41Z</time>
      </trkpt>
      <trkpt lat="37.179892966523767" lon="-8.890144983306527">
        <ele>40.030000000000001</ele>
        <time>2025-05-06T14:47:42Z</time>
      </trkpt>
      <trkpt lat="37.179068019613624" lon="-8.889100011438131">
        <ele>46.280000000000001</ele>
        <time>2025-05-06T14:47:48Z</time>
      </trkpt>
      <trkpt lat="37.178032016381621" lon="-8.888016985729337">
        <ele>54.450000000000003</ele>
        <time>2025-05-06T14:47:54Z</time>
      </trkpt>
      <trkpt lat="37.176077021285892" lon="-8.886531963944435">
        <ele>58.780000000000001</ele>
        <time>2025-05-06T14:48:03Z</time>
      </trkpt>
      <trkpt lat="37.174083972349763" lon="-8.885038979351521">
        <ele>56.369999999999997</ele>
        <time>2025-05-06T14:48:12Z</time>
      </trkpt>
      <trkpt lat="37.172945039346814" lon="-8.884148988872767">
        <ele>55.409999999999997</ele>
        <time>2025-05-06T14:48:18Z</time>
      </trkpt>
      <trkpt lat="37.172789974138141" lon="-8.883973974734545">
        <ele>55.409999999999997</ele>
        <time>2025-05-06T14:48:19Z</time>
      </trkpt>
      <trkpt lat="37.172644967213273" lon="-8.883782029151917">
        <ele>55.890000000000001</ele>
        <time>2025-05-06T14:48:20Z</time>
      </trkpt>
      <trkpt lat="37.172517981380224" lon="-8.883563010022044">
        <ele>55.890000000000001</ele>
        <time>2025-05-06T14:48:21Z</time>
      </trkpt>
      <trkpt lat="37.172387978062034" lon="-8.883338961750269">
        <ele>56.369999999999997</ele>
        <time>2025-05-06T14:48:22Z</time>
      </trkpt>
      <trkpt lat="37.172277001664042" lon="-8.883093958720565">
        <ele>56.859999999999999</ele>
        <time>2025-05-06T14:48:23Z</time>
      </trkpt>
      <trkpt lat="37.171452976763248" lon="-8.881269972771406">
        <ele>64.069999999999993</ele>
        <time>2025-05-06T14:48:31Z</time>
      </trkpt>
      <trkpt lat="37.171163968741894" lon="-8.880745014175773">
        <ele>65.989999999999995</ele>
        <time>2025-05-06T14:48:34Z</time>
      </trkpt>
      <trkpt lat="37.171057015657425" lon="-8.880609981715679">
        <ele>66.950000000000003</ele>
        <time>2025-05-06T14:48:35Z</time>
      </trkpt>
      <trkpt lat="37.170929023995996" lon="-8.880519038066268">
        <ele>67.430000000000007</ele>
        <time>2025-05-06T14:48:36Z</time>
      </trkpt>
      <trkpt lat="37.170803966000676" lon="-8.880429016426206">
        <ele>67.909999999999997</ele>
        <time>2025-05-06T14:48:37Z</time>
      </trkpt>
      <trkpt lat="37.170663988217711" lon="-8.880370007827878">
        <ele>68.870000000000005</ele>
        <time>2025-05-06T14:48:38Z</time>
      </trkpt>
      <trkpt lat="37.170517975464463" lon="-8.880307981744409">
        <ele>69.829999999999998</ele>
        <time>2025-05-06T14:48:39Z</time>
      </trkpt>
      <trkpt lat="37.169143008068204" lon="-8.879498038440943">
        <ele>76.560000000000002</ele>
        <time>2025-05-06T14:48:48Z</time>
      </trkpt>
      <trkpt lat="37.167990999296308" lon="-8.87811996974051">
        <ele>81.849999999999994</ele>
        <time>2025-05-06T14:48:56Z</time>
      </trkpt>
      <trkpt lat="37.166897999122739" lon="-8.876728992909193">
        <ele>85.689999999999998</ele>
        <time>2025-05-06T14:49:02Z</time>
      </trkpt>
      <trkpt lat="37.166422996670008" lon="-8.876179978251457">
        <ele>87.620000000000005</ele>
        <time>2025-05-06T14:49:05Z</time>
      </trkpt>
      <trkpt lat="37.166249994188547" lon="-8.876033965498209">
        <ele>88.099999999999994</ele>
        <time>2025-05-06T14:49:06Z</time>
      </trkpt>
      <trkpt lat="37.166056958958507" lon="-8.875914020463824">
        <ele>88.579999999999998</ele>
        <time>2025-05-06T14:49:07Z</time>
      </trkpt>
      <trkpt lat="37.165857972577214" lon="-8.87581997551024">
        <ele>89.540000000000006</ele>
        <time>2025-05-06T14:49:08Z</time>
      </trkpt>
      <trkpt lat="37.165645994246006" lon="-8.875760966911912">
        <ele>90.019999999999996</ele>
        <time>2025-05-06T14:49:09Z</time>
      </trkpt>
      <trkpt lat="37.16543703339994" lon="-8.875716039910913">
        <ele>90.980000000000004</ele>
        <time>2025-05-06T14:49:10Z</time>
      </trkpt>
      <trkpt lat="37.165237041190267" lon="-8.875673962756991">
        <ele>91.459999999999994</ele>
        <time>2025-05-06T14:49:11Z</time>
      </trkpt>
      <trkpt lat="37.164861029013991" lon="-8.875593999400735">
        <ele>93.390000000000001</ele>
        <time>2025-05-06T14:49:13Z</time>
      </trkpt>
      <trkpt lat="37.164692971855402" lon="-8.875525016337633">
        <ele>93.870000000000005</ele>
        <time>2025-05-06T14:49:14Z</time>
      </trkpt>
      <trkpt lat="37.164532961323857" lon="-8.875438012182713">
        <ele>94.829999999999998</ele>
        <time>2025-05-06T14:49:15Z</time>
      </trkpt>
      <trkpt lat="37.164403963834047" lon="-8.875285964459181">
        <ele>95.790000000000006</ele>
        <time>2025-05-06T14:49:16Z</time>
      </trkpt>
      <trkpt lat="37.164273960515857" lon="-8.875117991119623">
        <ele>96.269999999999996</ele>
        <time>2025-05-06T14:49:17Z</time>
      </trkpt>
      <trkpt lat="37.164158960804343" lon="-8.874923028051853">
        <ele>96.75</ele>
        <time>2025-05-06T14:49:18Z</time>
      </trkpt>
      <trkpt lat="37.16404102742672" lon="-8.87472303584218">
        <ele>97.230000000000004</ele>
        <time>2025-05-06T14:49:19Z</time>
      </trkpt>
      <trkpt lat="37.163553033024073" lon="-8.873953996226192">
        <ele>98.189999999999998</ele>
        <time>2025-05-06T14:49:23Z</time>
      </trkpt>
      <trkpt lat="37.163413977250457" lon="-8.87382198125124">
        <ele>99.150000000000006</ele>
        <time>2025-05-06T14:49:24Z</time>
      </trkpt>
      <trkpt lat="37.163243992254138" lon="-8.873723996803165">
        <ele>99.629999999999995</ele>
        <time>2025-05-06T14:49:25Z</time>
      </trkpt>
      <trkpt lat="37.163056991994381" lon="-8.873645961284638">
        <ele>100.11</ele>
        <time>2025-05-06T14:49:26Z</time>
      </trkpt>
      <trkpt lat="37.16286001726985" lon="-8.873575972393155">
        <ele>100.59999999999999</ele>
        <time>2025-05-06T14:49:27Z</time>
      </trkpt>
      <trkpt lat="37.161687975749373" lon="-8.873052019625902">
        <ele>104.44</ele>
        <time>2025-05-06T14:49:34Z</time>
      </trkpt>
      <trkpt lat="37.161565013229847" lon="-8.872944982722402">
        <ele>104.92</ele>
        <time>2025-05-06T14:49:35Z</time>
      </trkpt>
      <trkpt lat="37.161460993811488" lon="-8.872805004939437">
        <ele>104.92</ele>
        <time>2025-05-06T14:49:36Z</time>
      </trkpt>
      <trkpt lat="37.161353034898639" lon="-8.872658992186189">
        <ele>105.40000000000001</ele>
        <time>2025-05-06T14:49:37Z</time>
      </trkpt>
      <trkpt lat="37.161242980509996" lon="-8.872492024675012">
        <ele>105.40000000000001</ele>
        <time>2025-05-06T14:49:38Z</time>
      </trkpt>
      <trkpt lat="37.161137033253908" lon="-8.87229697778821">
        <ele>105.40000000000001</ele>
        <time>2025-05-06T14:49:39Z</time>
      </trkpt>
      <trkpt lat="37.160296998918056" lon="-8.8707709684968">
        <ele>109.25</ele>
        <time>2025-05-06T14:49:47Z</time>
      </trkpt>
      <trkpt lat="37.159756030887365" lon="-8.870137967169285">
        <ele>113.09</ele>
        <time>2025-05-06T14:49:51Z</time>
      </trkpt>
      <trkpt lat="37.159587973728776" lon="-8.870023973286152">
        <ele>114.05</ele>
        <time>2025-05-06T14:49:52Z</time>
      </trkpt>
      <trkpt lat="37.159062009304762" lon="-8.869668999686837">
        <ele>116.94</ele>
        <time>2025-05-06T14:49:55Z</time>
      </trkpt>
      <trkpt lat="37.158534033223987" lon="-8.869337998330593">
        <ele>120.3</ele>
        <time>2025-05-06T14:49:58Z</time>
      </trkpt>
      <trkpt lat="37.158356001600623" lon="-8.869248982518911">
        <ele>121.26000000000001</ele>
        <time>2025-05-06T14:49:59Z</time>
      </trkpt>
      <trkpt lat="37.158172018826008" lon="-8.869187040254474">
        <ele>121.73999999999999</ele>
        <time>2025-05-06T14:50:00Z</time>
      </trkpt>
      <trkpt lat="37.157982001081109" lon="-8.869168013334274">
        <ele>122.70999999999999</ele>
        <time>2025-05-06T14:50:01Z</time>
      </trkpt>
      <trkpt lat="37.157800029963255" lon="-8.869178993627429">
        <ele>123.67</ele>
        <time>2025-05-06T14:50:02Z</time>
      </trkpt>
      <trkpt lat="37.157612023875117" lon="-8.869213024154306">
        <ele>124.63</ele>
        <time>2025-05-06T14:50:03Z</time>
      </trkpt>
      <trkpt lat="37.15742502361536" lon="-8.869274966418743">
        <ele>125.11</ele>
        <time>2025-05-06T14:50:04Z</time>
      </trkpt>
      <trkpt lat="37.157243974506855" lon="-8.869334980845451">
        <ele>126.06999999999999</ele>
        <time>2025-05-06T14:50:05Z</time>
      </trkpt>
      <trkpt lat="37.156885983422399" lon="-8.869455009698868">
        <ele>127.03</ele>
        <time>2025-05-06T14:50:07Z</time>
      </trkpt>
      <trkpt lat="37.156698983162642" lon="-8.869473030790687">
        <ele>127.51000000000001</ele>
        <time>2025-05-06T14:50:08Z</time>
      </trkpt>
      <trkpt lat="37.156503014266491" lon="-8.869484011083841">
        <ele>127.98999999999999</ele>
        <time>2025-05-06T14:50:09Z</time>
      </trkpt>
      <trkpt lat="37.156304027885199" lon="-8.86945802718401">
        <ele>128.47</ele>
        <time>2025-05-06T14:50:10Z</time>
      </trkpt>
      <trkpt lat="37.156100012362003" lon="-8.869423996657133">
        <ele>128.94999999999999</ele>
        <time>2025-05-06T14:50:11Z</time>
      </trkpt>
      <trkpt lat="37.155893985182047" lon="-8.869374040514231">
        <ele>128.94999999999999</ele>
        <time>2025-05-06T14:50:12Z</time>
      </trkpt>
      <trkpt lat="37.154845995828509" lon="-8.869103975594044">
        <ele>130.40000000000001</ele>
        <time>2025-05-06T14:50:17Z</time>
      </trkpt>
      <trkpt lat="37.153669008985162" lon="-8.868890991434455">
        <ele>133.75999999999999</ele>
        <time>2025-05-06T14:50:23Z</time>
      </trkpt>
      <trkpt lat="37.153520984575152" lon="-8.86896500363946">
        <ele>133.75999999999999</ele>
        <time>2025-05-06T14:50:24Z</time>
      </trkpt>
      <trkpt lat="37.153375977650285" lon="-8.869041027501226">
        <ele>134.24000000000001</ele>
        <time>2025-05-06T14:50:25Z</time>
      </trkpt>
      <trkpt lat="37.153274975717068" lon="-8.869188968092203">
        <ele>134.72</ele>
        <time>2025-05-06T14:50:26Z</time>
      </trkpt>
      <trkpt lat="37.153143966570497" lon="-8.869378985837102">
        <ele>135.19999999999999</ele>
        <time>2025-05-06T14:50:27Z</time>
      </trkpt>
      <trkpt lat="37.153091998770833" lon="-8.869553999975324">
        <ele>135.68000000000001</ele>
        <time>2025-05-06T14:50:28Z</time>
      </trkpt>
      <trkpt lat="37.153024021536112" lon="-8.869780981913209">
        <ele>136.16</ele>
        <time>2025-05-06T14:50:29Z</time>
      </trkpt>
      <trkpt lat="37.152955960482359" lon="-8.870007041841745">
        <ele>136.16</ele>
        <time>2025-05-06T14:50:30Z</time>
      </trkpt>
      <trkpt lat="37.152873985469341" lon="-8.870203010737896">
        <ele>135.68000000000001</ele>
        <time>2025-05-06T14:50:31Z</time>
      </trkpt>
      <trkpt lat="37.152782035991549" lon="-8.870376013219357">
        <ele>135.68000000000001</ele>
        <time>2025-05-06T14:50:32Z</time>
      </trkpt>
      <trkpt lat="37.152653960511088" lon="-8.870547004044056">
        <ele>135.68000000000001</ele>
        <time>2025-05-06T14:50:33Z</time>
      </trkpt>
      <trkpt lat="37.152500990778208" lon="-8.870752025395632">
        <ele>135.19999999999999</ele>
        <time>2025-05-06T14:50:34Z</time>
      </trkpt>
      <trkpt lat="37.151742009446025" lon="-8.87147999368608">
        <ele>136.63999999999999</ele>
        <time>2025-05-06T14:50:39Z</time>
      </trkpt>
      <trkpt lat="37.151595996692777" lon="-8.871582001447678">
        <ele>136.63999999999999</ele>
        <time>2025-05-06T14:50:40Z</time>
      </trkpt>
      <trkpt lat="37.151435986161232" lon="-8.871640004217625">
        <ele>136.16</ele>
        <time>2025-05-06T14:50:41Z</time>
      </trkpt>
      <trkpt lat="37.1512580383569" lon="-8.871673028916121">
        <ele>136.63999999999999</ele>
        <time>2025-05-06T14:50:42Z</time>
      </trkpt>
      <trkpt lat="37.151067014783621" lon="-8.871664982289076">
        <ele>136.63999999999999</ele>
        <time>2025-05-06T14:50:43Z</time>
      </trkpt>
      <trkpt lat="37.150866016745567" lon="-8.871657019481063">
        <ele>137.13</ele>
        <time>2025-05-06T14:50:44Z</time>
      </trkpt>
      <trkpt lat="37.148914039134979" lon="-8.871510000899434">
        <ele>138.56999999999999</ele>
        <time>2025-05-06T14:50:53Z</time>
      </trkpt>
      <trkpt lat="37.148295035585761" lon="-8.871512012556195">
        <ele>138.56999999999999</ele>
        <time>2025-05-06T14:50:56Z</time>
      </trkpt>
      <trkpt lat="37.148109963163733" lon="-8.871539002284408">
        <ele>138.56999999999999</ele>
        <time>2025-05-06T14:50:57Z</time>
      </trkpt>
      <trkpt lat="37.147926986217499" lon="-8.87160899117589">
        <ele>138.56999999999999</ele>
        <time>2025-05-06T14:50:58Z</time>
      </trkpt>
      <trkpt lat="37.147745015099645" lon="-8.871695995330811">
        <ele>138.56999999999999</ele>
        <time>2025-05-06T14:50:59Z</time>
      </trkpt>
      <trkpt lat="37.147570000961423" lon="-8.871793979778886">
        <ele>138.56999999999999</ele>
        <time>2025-05-06T14:51:00Z</time>
      </trkpt>
      <trkpt lat="37.147407978773117" lon="-8.871938986703754">
        <ele>138.09</ele>
        <time>2025-05-06T14:51:01Z</time>
      </trkpt>
      <trkpt lat="37.147235982120037" lon="-8.872091034427285">
        <ele>138.09</ele>
        <time>2025-05-06T14:51:02Z</time>
      </trkpt>
      <trkpt lat="37.145641995593905" lon="-8.873556023463607">
        <ele>138.09</ele>
        <time>2025-05-06T14:51:11Z</time>
      </trkpt>
      <trkpt lat="37.144312039017677" lon="-8.874238980934024">
        <ele>135.68000000000001</ele>
        <time>2025-05-06T14:51:17Z</time>
      </trkpt>
      <trkpt lat="37.142380010336637" lon="-8.87496099807322">
        <ele>133.28</ele>
        <time>2025-05-06T14:51:26Z</time>
      </trkpt>
      <trkpt lat="37.140981992706656" lon="-8.875778988003731">
        <ele>132.31999999999999</ele>
        <time>2025-05-06T14:51:33Z</time>
      </trkpt>
      <trkpt lat="37.139310976490378" lon="-8.876825971528888">
        <ele>131.36000000000001</ele>
        <time>2025-05-06T14:51:41Z</time>
      </trkpt>
      <trkpt lat="37.137595033273101" lon="-8.877903968095779">
        <ele>132.80000000000001</ele>
        <time>2025-05-06T14:51:49Z</time>
      </trkpt>
      <trkpt lat="37.135082976892591" lon="-8.879458978772163">
        <ele>135.19999999999999</ele>
        <time>2025-05-06T14:52:01Z</time>
      </trkpt>
      <trkpt lat="37.133185984566808" lon="-8.880637977272272">
        <ele>139.05000000000001</ele>
        <time>2025-05-06T14:52:10Z</time>
      </trkpt>
      <trkpt lat="37.131323022767901" lon="-8.881802977994084">
        <ele>141.44999999999999</ele>
        <time>2025-05-06T14:52:19Z</time>
      </trkpt>
      <trkpt lat="37.130591031163931" lon="-8.882260965183377">
        <ele>140.97</ele>
        <time>2025-05-06T14:52:23Z</time>
      </trkpt>
      <trkpt lat="37.128987992182374" lon="-8.883264027535915">
        <ele>144.81999999999999</ele>
        <time>2025-05-06T14:52:32Z</time>
      </trkpt>
      <trkpt lat="37.127615958452225" lon="-8.884124010801315">
        <ele>150.09999999999999</ele>
        <time>2025-05-06T14:52:40Z</time>
      </trkpt>
      <trkpt lat="37.126039993017912" lon="-8.88518700376153">
        <ele>144.81999999999999</ele>
        <time>2025-05-06T14:52:49Z</time>
      </trkpt>
      <trkpt lat="37.124944981187582" lon="-8.886344041675329">
        <ele>138.09</ele>
        <time>2025-05-06T14:52:56Z</time>
      </trkpt>
      <trkpt lat="37.123745027929544" lon="-8.88774398714304">
        <ele>136.63999999999999</ele>
        <time>2025-05-06T14:53:04Z</time>
      </trkpt>
      <trkpt lat="37.123343031853437" lon="-8.888224018737674">
        <ele>135.19999999999999</ele>
        <time>2025-05-06T14:53:07Z</time>
      </trkpt>
      <trkpt lat="37.122905999422073" lon="-8.888736991211772">
        <ele>135.19999999999999</ele>
        <time>2025-05-06T14:53:10Z</time>
      </trkpt>
      <trkpt lat="37.121590040624142" lon="-8.890182031318545">
        <ele>132.80000000000001</ele>
        <time>2025-05-06T14:53:18Z</time>
      </trkpt>
      <trkpt lat="37.119695981964469" lon="-8.892021020874381">
        <ele>132.31999999999999</ele>
        <time>2025-05-06T14:53:29Z</time>
      </trkpt>
      <trkpt lat="37.118325959891081" lon="-8.893310995772481">
        <ele>132.80000000000001</ele>
        <time>2025-05-06T14:53:37Z</time>
      </trkpt>
      <trkpt lat="37.116272980347276" lon="-8.895254004746676">
        <ele>133.75999999999999</ele>
        <time>2025-05-06T14:53:49Z</time>
      </trkpt>
      <trkpt lat="37.114868005737662" lon="-8.896596031263471">
        <ele>133.28</ele>
        <time>2025-05-06T14:53:57Z</time>
      </trkpt>
      <trkpt lat="37.112855007871985" lon="-8.898522024974227">
        <ele>131.36000000000001</ele>
        <time>2025-05-06T14:54:08Z</time>
      </trkpt>
      <trkpt lat="37.111371997743845" lon="-8.899932028725743">
        <ele>133.75999999999999</ele>
        <time>2025-05-06T14:54:16Z</time>
      </trkpt>
      <trkpt lat="37.109678015112877" lon="-8.901564991101623">
        <ele>128.94999999999999</ele>
        <time>2025-05-06T14:54:25Z</time>
      </trkpt>
      <trkpt lat="37.108103977516294" lon="-8.903073985129595">
        <ele>126.06999999999999</ele>
        <time>2025-05-06T14:54:35Z</time>
      </trkpt>
      <trkpt lat="37.106598000973463" lon="-8.904520031064749">
        <ele>130.88</ele>
        <time>2025-05-06T14:54:45Z</time>
      </trkpt>
      <trkpt lat="37.10538798943162" lon="-8.905698023736477">
        <ele>130.88</ele>
        <time>2025-05-06T14:54:51Z</time>
      </trkpt>
      <trkpt lat="37.102942988276482" lon="-8.908022996038199">
        <ele>127.03</ele>
        <time>2025-05-06T14:55:04Z</time>
      </trkpt>
      <trkpt lat="37.101418990641832" lon="-8.909307019785047">
        <ele>125.11</ele>
        <time>2025-05-06T14:55:12Z</time>
      </trkpt>
      <trkpt lat="37.099434994161129" lon="-8.910185024142265">
        <ele>127.51000000000001</ele>
        <time>2025-05-06T14:55:21Z</time>
      </trkpt>
      <trkpt lat="37.097958019003272" lon="-8.910787012428045">
        <ele>126.06999999999999</ele>
        <time>2025-05-06T14:55:28Z</time>
      </trkpt>
      <trkpt lat="37.09640996530652" lon="-8.911343989893794">
        <ele>127.51000000000001</ele>
        <time>2025-05-06T14:55:35Z</time>
      </trkpt>
      <trkpt lat="37.093690037727356" lon="-8.912196010351181">
        <ele>127.51000000000001</ele>
        <time>2025-05-06T14:55:47Z</time>
      </trkpt>
      <trkpt lat="37.092078030109406" lon="-8.912293994799256">
        <ele>128.94999999999999</ele>
        <time>2025-05-06T14:55:54Z</time>
      </trkpt>
      <trkpt lat="37.090237028896809" lon="-8.911896022036672">
        <ele>127.98999999999999</ele>
        <time>2025-05-06T14:56:02Z</time>
      </trkpt>
      <trkpt lat="37.088035019114614" lon="-8.911413978785276">
        <ele>115.98</ele>
        <time>2025-05-06T14:56:11Z</time>
      </trkpt>
      <trkpt lat="37.086488977074623" lon="-8.911066967993975">
        <ele>103.95999999999999</ele>
        <time>2025-05-06T14:56:19Z</time>
      </trkpt>
      <trkpt lat="37.086082035675645" lon="-8.910887008532882">
        <ele>99.629999999999995</ele>
        <time>2025-05-06T14:56:22Z</time>
      </trkpt>
      <trkpt lat="37.085968041792512" lon="-8.9107979927212">
        <ele>98.189999999999998</ele>
        <time>2025-05-06T14:56:23Z</time>
      </trkpt>
      <trkpt lat="37.085866034030914" lon="-8.91069196164608">
        <ele>96.75</ele>
        <time>2025-05-06T14:56:24Z</time>
      </trkpt>
      <trkpt lat="37.085667969658971" lon="-8.910485012456775">
        <ele>93.870000000000005</ele>
        <time>2025-05-06T14:56:26Z</time>
      </trkpt>
      <trkpt lat="37.08557803183794" lon="-8.910391973331571">
        <ele>92.420000000000002</ele>
        <time>2025-05-06T14:56:27Z</time>
      </trkpt>
      <trkpt lat="37.085248036310077" lon="-8.909836001694202">
        <ele>88.579999999999998</ele>
        <time>2025-05-06T14:56:33Z</time>
      </trkpt>
      <trkpt lat="37.084835981950164" lon="-8.90877895988524">
        <ele>86.180000000000007</ele>
        <time>2025-05-06T14:56:39Z</time>
      </trkpt>
      <trkpt lat="37.084750989452004" lon="-8.908608974888921">
        <ele>85.689999999999998</ele>
        <time>2025-05-06T14:56:40Z</time>
      </trkpt>
      <trkpt lat="37.084673037752509" lon="-8.908452987670898">
        <ele>85.209999999999994</ele>
        <time>2025-05-06T14:56:41Z</time>
      </trkpt>
      <trkpt lat="37.084560971707106" lon="-8.90832600183785">
        <ele>85.209999999999994</ele>
        <time>2025-05-06T14:56:42Z</time>
      </trkpt>
      <trkpt lat="37.084453012794256" lon="-8.908202033489943">
        <ele>84.730000000000004</ele>
        <time>2025-05-06T14:56:43Z</time>
      </trkpt>
      <trkpt lat="37.084346981719136" lon="-8.908088961616159">
        <ele>84.25</ele>
        <time>2025-05-06T14:56:44Z</time>
      </trkpt>
      <trkpt lat="37.08422502502799" lon="-8.907989971339703">
        <ele>83.769999999999996</ele>
        <time>2025-05-06T14:56:45Z</time>
      </trkpt>
      <trkpt lat="37.084102984517813" lon="-8.907890981063247">
        <ele>82.810000000000002</ele>
        <time>2025-05-06T14:56:46Z</time>
      </trkpt>
      <trkpt lat="37.083983039483428" lon="-8.907812023535371">
        <ele>82.329999999999998</ele>
        <time>2025-05-06T14:56:47Z</time>
      </trkpt>
      <trkpt lat="37.083847001194954" lon="-8.907756032422185">
        <ele>81.849999999999994</ele>
        <time>2025-05-06T14:56:48Z</time>
      </trkpt>
      <trkpt lat="37.08371196873486" lon="-8.907700041308999">
        <ele>81.849999999999994</ele>
        <time>2025-05-06T14:56:49Z</time>
      </trkpt>
      <trkpt lat="37.083580959588289" lon="-8.907663999125361">
        <ele>81.849999999999994</ele>
        <time>2025-05-06T14:56:50Z</time>
      </trkpt>
      <trkpt lat="37.082904037088156" lon="-8.907525027170777">
        <ele>83.290000000000006</ele>
        <time>2025-05-06T14:56:56Z</time>
      </trkpt>
      <trkpt lat="37.08280798047781" lon="-8.90750901773572">
        <ele>82.810000000000002</ele>
        <time>2025-05-06T14:56:57Z</time>
      </trkpt>
      <trkpt lat="37.082713013514876" lon="-8.907527038827539">
        <ele>82.810000000000002</ele>
        <time>2025-05-06T14:56:58Z</time>
      </trkpt>
      <trkpt lat="37.082623997703195" lon="-8.907572971656919">
        <ele>82.810000000000002</ele>
        <time>2025-05-06T14:56:59Z</time>
      </trkpt>
      <trkpt lat="37.082531964406371" lon="-8.907642038539052">
        <ele>82.329999999999998</ele>
        <time>2025-05-06T14:57:00Z</time>
      </trkpt>
      <trkpt lat="37.082470022141933" lon="-8.907742034643889">
        <ele>82.810000000000002</ele>
        <time>2025-05-06T14:57:01Z</time>
      </trkpt>
      <trkpt lat="37.082419982179999" lon="-8.907850999385119">
        <ele>82.810000000000002</ele>
        <time>2025-05-06T14:57:02Z</time>
      </trkpt>
      <trkpt lat="37.082387963309884" lon="-8.907946972176433">
        <ele>82.810000000000002</ele>
        <time>2025-05-06T14:57:03Z</time>
      </trkpt>
      <trkpt lat="37.082362985238433" lon="-8.908022996038199">
        <ele>82.810000000000002</ele>
        <time>2025-05-06T14:57:04Z</time>
      </trkpt>
      <trkpt lat="37.082343958318233" lon="-8.908078987151384">
        <ele>83.290000000000006</ele>
        <time>2025-05-06T14:57:05Z</time>
      </trkpt>
      <trkpt lat="37.082331972196698" lon="-8.908116035163403">
        <ele>83.290000000000006</ele>
        <time>2025-05-06T14:57:06Z</time>
      </trkpt>
      <trkpt lat="37.082321997731924" lon="-8.908145958557725">
        <ele>83.290000000000006</ele>
        <time>2025-05-06T14:57:07Z</time>
      </trkpt>
      <trkpt lat="37.08231202326715" lon="-8.908174959942699">
        <ele>83.290000000000006</ele>
        <time>2025-05-06T14:57:08Z</time>
      </trkpt>
      <trkpt lat="37.082302970811725" lon="-8.908203961327672">
        <ele>83.290000000000006</ele>
        <time>2025-05-06T14:57:09Z</time>
      </trkpt>
      <trkpt lat="37.082290984690189" lon="-8.908237991854549">
        <ele>83.769999999999996</ele>
        <time>2025-05-06T14:57:10Z</time>
      </trkpt>
      <trkpt lat="37.082273969426751" lon="-8.908289959654212">
        <ele>83.769999999999996</ele>
        <time>2025-05-06T14:57:11Z</time>
      </trkpt>
      <trkpt lat="37.082251003012061" lon="-8.908358020707965">
        <ele>83.769999999999996</ele>
        <time>2025-05-06T14:57:12Z</time>
      </trkpt>
      <trkpt lat="37.082227030768991" lon="-8.908431027084589">
        <ele>84.25</ele>
        <time>2025-05-06T14:57:13Z</time>
      </trkpt>
      <trkpt lat="37.082145977765322" lon="-8.908674018457532">
        <ele>84.25</ele>
        <time>2025-05-06T14:57:16Z</time>
      </trkpt>
      <trkpt lat="37.082117982208729" lon="-8.908761022612453">
        <ele>84.730000000000004</ele>
        <time>2025-05-06T14:57:17Z</time>
      </trkpt>
      <trkpt lat="37.082095015794039" lon="-8.908850960433483">
        <ele>84.730000000000004</ele>
        <time>2025-05-06T14:57:18Z</time>
      </trkpt>
      <trkpt lat="37.082070037722588" lon="-8.908940982073546">
        <ele>85.209999999999994</ele>
        <time>2025-05-06T14:57:19Z</time>
      </trkpt>
      <trkpt lat="37.082030978053808" lon="-8.909029997885227">
        <ele>84.730000000000004</ele>
        <time>2025-05-06T14:57:20Z</time>
      </trkpt>
      <trkpt lat="37.081903992220759" lon="-8.909454038366675">
        <ele>81.849999999999994</ele>
        <time>2025-05-06T14:57:24Z</time>
      </trkpt>
      <trkpt lat="37.081865016371012" lon="-8.90955101698637">
        <ele>81.370000000000005</ele>
        <time>2025-05-06T14:57:25Z</time>
      </trkpt>
      <trkpt lat="37.08145204000175" lon="-8.91081802546978">
        <ele>78.969999999999999</ele>
        <time>2025-05-06T14:57:37Z</time>
      </trkpt>
      <trkpt lat="37.081261016428471" lon="-8.911199988797307">
        <ele>78</ele>
        <time>2025-05-06T14:57:41Z</time>
      </trkpt>
      <trkpt lat="37.081213993951678" lon="-8.911275006830692">
        <ele>77.519999999999996</ele>
        <time>2025-05-06T14:57:42Z</time>
      </trkpt>
      <trkpt lat="37.08119697868824" lon="-8.911479022353888">
        <ele>77.040000000000006</ele>
        <time>2025-05-06T14:57:43Z</time>
      </trkpt>
      <trkpt lat="37.08119697868824" lon="-8.911607014015317">
        <ele>75.599999999999994</ele>
        <time>2025-05-06T14:57:45Z</time>
      </trkpt>
      <trkpt lat="37.081165965646505" lon="-8.911644984036684">
        <ele>75.120000000000005</ele>
        <time>2025-05-06T14:57:46Z</time>
      </trkpt>
      <trkpt lat="37.081121038645506" lon="-8.91169804148376">
        <ele>74.640000000000001</ele>
        <time>2025-05-06T14:57:47Z</time>
      </trkpt>
      <trkpt lat="37.08104501478374" lon="-8.911725031211972">
        <ele>74.640000000000001</ele>
        <time>2025-05-06T14:57:48Z</time>
      </trkpt>
      <trkpt lat="37.080978965386748" lon="-8.911709021776915">
        <ele>74.159999999999997</ele>
        <time>2025-05-06T14:57:49Z</time>
      </trkpt>
      <trkpt lat="37.080899002030492" lon="-8.911654958501458">
        <ele>74.640000000000001</ele>
        <time>2025-05-06T14:57:50Z</time>
      </trkpt>
      <trkpt lat="37.080875029787421" lon="-8.911607014015317">
        <ele>74.640000000000001</ele>
        <time>2025-05-06T14:57:51Z</time>
      </trkpt>
      <trkpt lat="37.080888021737337" lon="-8.91146301291883">
        <ele>75.599999999999994</ele>
        <time>2025-05-06T14:57:52Z</time>
      </trkpt>
      <trkpt lat="37.080861032009125" lon="-8.911328986287117">
        <ele>75.599999999999994</ele>
        <time>2025-05-06T14:57:53Z</time>
      </trkpt>
      <trkpt lat="37.080793976783752" lon="-8.911249022930861">
        <ele>76.079999999999998</ele>
        <time>2025-05-06T14:57:54Z</time>
      </trkpt>
      <trkpt lat="37.080715019255877" lon="-8.911167969927192">
        <ele>76.079999999999998</ele>
        <time>2025-05-06T14:57:55Z</time>
      </trkpt>
      <trkpt lat="37.080638995394111" lon="-8.911093035712838">
        <ele>76.560000000000002</ele>
        <time>2025-05-06T14:57:56Z</time>
      </trkpt>
      <trkpt lat="37.080538999289274" lon="-8.911079959943891">
        <ele>77.040000000000006</ele>
        <time>2025-05-06T14:57:57Z</time>
      </trkpt>
      <trkpt lat="37.080447971820831" lon="-8.911068979650736">
        <ele>77.519999999999996</ele>
        <time>2025-05-06T14:57:58Z</time>
      </trkpt>
      <trkpt lat="37.080296007916331" lon="-8.911049030721188">
        <ele>78</ele>
        <time>2025-05-06T14:57:59Z</time>
      </trkpt>
      <trkpt lat="37.080236999318004" lon="-8.911087000742555">
        <ele>78</ele>
        <time>2025-05-06T14:58:00Z</time>
      </trkpt>
      <trkpt lat="37.080134991556406" lon="-8.911151960492134">
        <ele>78.480000000000004</ele>
        <time>2025-05-06T14:58:01Z</time>
      </trkpt>
      <trkpt lat="37.07999300211668" lon="-8.911246005445719">
        <ele>78.480000000000004</ele>
        <time>2025-05-06T14:58:02Z</time>
      </trkpt>
      <trkpt lat="37.079901974648237" lon="-8.911382965743542">
        <ele>78.480000000000004</ele>
        <time>2025-05-06T14:58:03Z</time>
      </trkpt>
      <trkpt lat="37.078848034143448" lon="-8.912854995578528">
        <ele>78</ele>
        <time>2025-05-06T14:58:12Z</time>
      </trkpt>
      <trkpt lat="37.077663000673056" lon="-8.914029970765114">
        <ele>78.969999999999999</ele>
        <time>2025-05-06T14:58:19Z</time>
      </trkpt>
      <trkpt lat="37.075809007510543" lon="-8.915304020047188">
        <ele>83.769999999999996</ele>
        <time>2025-05-06T14:58:28Z</time>
      </trkpt>
      <trkpt lat="37.07285899668932" lon="-8.917259015142918">
        <ele>94.349999999999994</ele>
        <time>2025-05-06T14:58:42Z</time>
      </trkpt>
      <trkpt lat="37.070553973317146" lon="-8.918887032195926">
        <ele>96.269999999999996</ele>
        <time>2025-05-06T14:58:54Z</time>
      </trkpt>
      <trkpt lat="37.068292032927275" lon="-8.921019975095987">
        <ele>90.5</ele>
        <time>2025-05-06T14:59:06Z</time>
      </trkpt>
      <trkpt lat="37.066232012584805" lon="-8.922495022416115">
        <ele>82.329999999999998</ele>
        <time>2025-05-06T14:59:16Z</time>
      </trkpt>
      <trkpt lat="37.064474998041987" lon="-8.92284999601543">
        <ele>77.040000000000006</ele>
        <time>2025-05-06T14:59:23Z</time>
      </trkpt>
      <trkpt lat="37.061200020834804" lon="-8.922943035140634">
        <ele>70.310000000000002</ele>
        <time>2025-05-06T14:59:36Z</time>
      </trkpt>
      <trkpt lat="37.057380974292755" lon="-8.92304303124547">
        <ele>68.390000000000001</ele>
        <time>2025-05-06T14:59:52Z</time>
      </trkpt>
      <trkpt lat="37.05483203753829" lon="-8.923363974317908">
        <ele>69.349999999999994</ele>
        <time>2025-05-06T15:00:02Z</time>
      </trkpt>
      <trkpt lat="37.053219024091959" lon="-8.92433300614357">
        <ele>67.909999999999997</ele>
        <time>2025-05-06T15:00:09Z</time>
      </trkpt>
      <trkpt lat="37.050748961046338" lon="-8.926635012030602">
        <ele>61.659999999999997</ele>
        <time>2025-05-06T15:00:21Z</time>
      </trkpt>
      <trkpt lat="37.047986034303904" lon="-8.92893098294735">
        <ele>57.82</ele>
        <time>2025-05-06T15:00:34Z</time>
      </trkpt>
      <trkpt lat="37.045626025646925" lon="-8.929946031421423">
        <ele>55.890000000000001</ele>
        <time>2025-05-06T15:00:44Z</time>
      </trkpt>
      <trkpt lat="37.042080983519554" lon="-8.931395011022687">
        <ele>52.530000000000001</ele>
        <time>2025-05-06T15:00:59Z</time>
      </trkpt>
      <trkpt lat="37.038941038772464" lon="-8.932678028941155">
        <ele>50.609999999999999</ele>
        <time>2025-05-06T15:01:12Z</time>
      </trkpt>
      <trkpt lat="37.035857001319528" lon="-8.933939002454281">
        <ele>48.200000000000003</ele>
        <time>2025-05-06T15:01:25Z</time>
      </trkpt>
      <trkpt lat="37.032373985275626" lon="-8.935361998155713">
        <ele>47.240000000000002</ele>
        <time>2025-05-06T15:01:40Z</time>
      </trkpt>
      <trkpt lat="37.030010959133506" lon="-8.936263974756002">
        <ele>43.880000000000003</ele>
        <time>2025-05-06T15:01:51Z</time>
      </trkpt>
      <trkpt lat="37.027416005730629" lon="-8.937097974121571">
        <ele>39.07</ele>
        <time>2025-05-06T15:02:03Z</time>
      </trkpt>
      <trkpt lat="37.02550602145493" lon="-8.937645982950926">
        <ele>35.710000000000001</ele>
        <time>2025-05-06T15:02:13Z</time>
      </trkpt>
      <trkpt lat="37.024228032678366" lon="-8.937785960733891">
        <ele>34.259999999999998</ele>
        <time>2025-05-06T15:02:21Z</time>
      </trkpt>
      <trkpt lat="37.022438999265432" lon="-8.937830971553922">
        <ele>28.98</ele>
        <time>2025-05-06T15:02:33Z</time>
      </trkpt>
      <trkpt lat="37.021256983280182" lon="-8.938390966504812">
        <ele>27.050000000000001</ele>
        <time>2025-05-06T15:02:42Z</time>
      </trkpt>
      <trkpt lat="37.020118972286582" lon="-8.938939981162548">
        <ele>27.530000000000001</ele>
        <time>2025-05-06T15:02:52Z</time>
      </trkpt>
      <trkpt lat="37.019049022346735" lon="-8.939462006092072">
        <ele>21.77</ele>
        <time>2025-05-06T15:03:03Z</time>
      </trkpt>
      <trkpt lat="37.017829958349466" lon="-8.940040022134781">
        <ele>17.920000000000002</ele>
        <time>2025-05-06T15:03:14Z</time>
      </trkpt>
      <trkpt lat="37.016430012881756" lon="-8.940714010968804">
        <ele>18.399999999999999</ele>
        <time>2025-05-06T15:03:27Z</time>
      </trkpt>
      <trkpt lat="37.01545100659132" lon="-8.941187001764774">
        <ele>20.32</ele>
        <time>2025-05-06T15:03:39Z</time>
      </trkpt>
      <trkpt lat="37.014866033568978" lon="-8.941462012007833">
        <ele>20.32</ele>
        <time>2025-05-06T15:03:49Z</time>
      </trkpt>
      <trkpt lat="37.014693031087518" lon="-8.941537030041218">
        <ele>20.32</ele>
        <time>2025-05-06T15:03:56Z</time>
      </trkpt>
      <trkpt lat="37.013848973438144" lon="-8.941952018067241">
        <ele>22.25</ele>
        <time>2025-05-06T15:04:05Z</time>
      </trkpt>
      <trkpt lat="37.012653965502977" lon="-8.942520981654525">
        <ele>25.609999999999999</ele>
        <time>2025-05-06T15:04:16Z</time>
      </trkpt>
      <trkpt lat="37.01104799285531" lon="-8.943291027098894">
        <ele>30.899999999999999</ele>
        <time>2025-05-06T15:04:29Z</time>
      </trkpt>
      <trkpt lat="37.009700015187263" lon="-8.943943977355957">
        <ele>35.229999999999997</ele>
        <time>2025-05-06T15:04:41Z</time>
      </trkpt>
      <trkpt lat="37.009466998279095" lon="-8.944153022021055">
        <ele>37.149999999999999</ele>
        <time>2025-05-06T15:04:47Z</time>
      </trkpt>
      <trkpt lat="37.00941301882267" lon="-8.944360977038741">
        <ele>39.07</ele>
        <time>2025-05-06T15:04:53Z</time>
      </trkpt>
      <trkpt lat="37.00939298607409" lon="-8.944411017000675">
        <ele>39.07</ele>
        <time>2025-05-06T15:04:54Z</time>
      </trkpt>
      <trkpt lat="37.009369013831019" lon="-8.944471031427383">
        <ele>39.549999999999997</ele>
        <time>2025-05-06T15:04:55Z</time>
      </trkpt>
      <trkpt lat="37.009224006906152" lon="-8.944789040833712">
        <ele>40.030000000000001</ele>
        <time>2025-05-06T15:05:00Z</time>
      </trkpt>
      <trkpt lat="37.009158963337541" lon="-8.944918960332871">
        <ele>40.509999999999998</ele>
        <time>2025-05-06T15:05:02Z</time>
      </trkpt>
      <trkpt lat="37.009092997759581" lon="-8.945050975307822">
        <ele>40.509999999999998</ele>
        <time>2025-05-06T15:05:04Z</time>
      </trkpt>
      <trkpt lat="37.009056033566594" lon="-8.945123981684446">
        <ele>40.509999999999998</ele>
        <time>2025-05-06T15:05:05Z</time>
      </trkpt>
      <trkpt lat="37.009023008868098" lon="-8.945198999717832">
        <ele>40.509999999999998</ele>
        <time>2025-05-06T15:05:06Z</time>
      </trkpt>
      <trkpt lat="37.008744981139898" lon="-8.945993017405272">
        <ele>40.030000000000001</ele>
        <time>2025-05-06T15:05:16Z</time>
      </trkpt>
      <trkpt lat="37.008734000846744" lon="-8.946025036275387">
        <ele>40.030000000000001</ele>
        <time>2025-05-06T15:05:17Z</time>
      </trkpt>
      <trkpt lat="37.008669963106513" lon="-8.946106005460024">
        <ele>40.030000000000001</ele>
        <time>2025-05-06T15:05:18Z</time>
      </trkpt>
      <trkpt lat="37.008624030277133" lon="-8.946164008229971">
        <ele>40.030000000000001</ele>
        <time>2025-05-06T15:05:19Z</time>
      </trkpt>
      <trkpt lat="37.008579019457102" lon="-8.946221005171537">
        <ele>39.549999999999997</ele>
        <time>2025-05-06T15:05:20Z</time>
      </trkpt>
      <trkpt lat="37.008492015302181" lon="-8.946330975741148">
        <ele>39.549999999999997</ele>
        <time>2025-05-06T15:05:22Z</time>
      </trkpt>
      <trkpt lat="37.008351031690836" lon="-8.946584025397897">
        <ele>37.630000000000003</ele>
        <time>2025-05-06T15:05:29Z</time>
      </trkpt>
      <trkpt lat="37.008379027247429" lon="-8.94663599319756">
        <ele>37.630000000000003</ele>
        <time>2025-05-06T15:05:30Z</time>
      </trkpt>
      <trkpt lat="37.008741963654757" lon="-8.947293972596526">
        <ele>38.109999999999999</ele>
        <time>2025-05-06T15:05:37Z</time>
      </trkpt>
      <trkpt lat="37.009584009647369" lon="-8.94858998246491">
        <ele>36.189999999999998</ele>
        <time>2025-05-06T15:05:48Z</time>
      </trkpt>
      <trkpt lat="37.010884964838624" lon="-8.949683988466859">
        <ele>31.859999999999999</ele>
        <time>2025-05-06T15:05:58Z</time>
      </trkpt>
      <trkpt lat="37.012891005724669" lon="-8.951400015503168">
        <ele>26.09</ele>
        <time>2025-05-06T15:06:11Z</time>
      </trkpt>
      <trkpt lat="37.015726016834378" lon="-8.953822972252965">
        <ele>28.5</ele>
        <time>2025-05-06T15:06:27Z</time>
      </trkpt>
      <trkpt lat="37.017077011987567" lon="-8.95497196353972">
        <ele>29.460000000000001</ele>
        <time>2025-05-06T15:06:36Z</time>
      </trkpt>
      <trkpt lat="37.01792299747467" lon="-8.955685012042522">
        <ele>30.899999999999999</ele>
        <time>2025-05-06T15:06:45Z</time>
      </trkpt>
      <trkpt lat="37.0187399815768" lon="-8.956331005319953">
        <ele>31.379999999999999</ele>
        <time>2025-05-06T15:06:51Z</time>
      </trkpt>
      <trkpt lat="37.019956028088927" lon="-8.957294002175331">
        <ele>36.189999999999998</ele>
        <time>2025-05-06T15:07:00Z</time>
      </trkpt>
      <trkpt lat="37.021002005785704" lon="-8.958120960742235">
        <ele>38.590000000000003</ele>
        <time>2025-05-06T15:07:06Z</time>
      </trkpt>
      <trkpt lat="37.023713970556855" lon="-8.960254993289709">
        <ele>42.920000000000002</ele>
        <time>2025-05-06T15:07:20Z</time>
      </trkpt>
      <trkpt lat="37.025747001171112" lon="-8.96184403449297">
        <ele>47.719999999999999</ele>
        <time>2025-05-06T15:07:32Z</time>
      </trkpt>
      <trkpt lat="37.027208972722292" lon="-8.962977016344667">
        <ele>53.009999999999998</ele>
        <time>2025-05-06T15:07:45Z</time>
      </trkpt>
      <trkpt lat="37.02733201906085" lon="-8.963122023269534">
        <ele>53.009999999999998</ele>
        <time>2025-05-06T15:07:46Z</time>
      </trkpt>
      <trkpt lat="37.02741801738739" lon="-8.963263006880879">
        <ele>53.009999999999998</ele>
        <time>2025-05-06T15:07:47Z</time>
      </trkpt>
      <trkpt lat="37.027507033199072" lon="-8.963410025462508">
        <ele>53.009999999999998</ele>
        <time>2025-05-06T15:07:48Z</time>
      </trkpt>
      <trkpt lat="37.027548020705581" lon="-8.963573975488544">
        <ele>52.530000000000001</ele>
        <time>2025-05-06T15:07:49Z</time>
      </trkpt>
      <trkpt lat="37.027576016262174" lon="-8.963776985183358">
        <ele>52.530000000000001</ele>
        <time>2025-05-06T15:07:50Z</time>
      </trkpt>
      <trkpt lat="37.027596971020103" lon="-8.963988041505218">
        <ele>52.530000000000001</ele>
        <time>2025-05-06T15:07:51Z</time>
      </trkpt>
      <trkpt lat="37.027636030688882" lon="-8.966283006593585">
        <ele>52.530000000000001</ele>
        <time>2025-05-06T15:08:00Z</time>
      </trkpt>
      <trkpt lat="37.027631001546979" lon="-8.969697039574385">
        <ele>54.450000000000003</ele>
        <time>2025-05-06T15:08:13Z</time>
      </trkpt>
      <trkpt lat="37.027512984350324" lon="-8.971553966403008">
        <ele>54.93</ele>
        <time>2025-05-06T15:08:21Z</time>
      </trkpt>
      <trkpt lat="37.027321038767695" lon="-8.97420197725296">
        <ele>57.82</ele>
        <time>2025-05-06T15:08:33Z</time>
      </trkpt>
      <trkpt lat="37.027350040152669" lon="-8.976512029767036">
        <ele>60.700000000000003</ele>
        <time>2025-05-06T15:08:43Z</time>
      </trkpt>
      <trkpt lat="37.02780400402844" lon="-8.979073958471417">
        <ele>66.469999999999999</ele>
        <time>2025-05-06T15:08:55Z</time>
      </trkpt>
      <trkpt lat="37.028260985389352" lon="-8.982021035626531">
        <ele>65.989999999999995</ele>
        <time>2025-05-06T15:09:10Z</time>
      </trkpt>
      <trkpt lat="37.028174987062812" lon="-8.983963038772345">
        <ele>64.549999999999997</ele>
        <time>2025-05-06T15:09:19Z</time>
      </trkpt>
      <trkpt lat="37.028083959594369" lon="-8.984189014881849">
        <ele>64.069999999999993</ele>
        <time>2025-05-06T15:09:20Z</time>
      </trkpt>
      <trkpt lat="37.028002990409732" lon="-8.984391018748283">
        <ele>63.100000000000001</ele>
        <time>2025-05-06T15:09:21Z</time>
      </trkpt>
      <trkpt lat="37.026898004114628" lon="-8.987095020711422">
        <ele>63.579999999999998</ele>
        <time>2025-05-06T15:09:35Z</time>
      </trkpt>
      <trkpt lat="37.026526015251875" lon="-8.98799498565495">
        <ele>64.069999999999993</ele>
        <time>2025-05-06T15:09:42Z</time>
      </trkpt>
      <trkpt lat="37.025964008644223" lon="-8.989356961101294">
        <ele>65.030000000000001</ele>
        <time>2025-05-06T15:09:56Z</time>
      </trkpt>
      <trkpt lat="37.025448018684983" lon="-8.990608965978026">
        <ele>66.469999999999999</ele>
        <time>2025-05-06T15:10:09Z</time>
      </trkpt>
      <trkpt lat="37.024909984320402" lon="-8.99190497584641">
        <ele>65.030000000000001</ele>
        <time>2025-05-06T15:10:21Z</time>
      </trkpt>
      <trkpt lat="37.024431964382529" lon="-8.993038041517139">
        <ele>64.549999999999997</ele>
        <time>2025-05-06T15:10:34Z</time>
      </trkpt>
      <trkpt lat="37.024156032130122" lon="-8.993693003430963">
        <ele>65.510000000000005</ele>
        <time>2025-05-06T15:10:45Z</time>
      </trkpt>
      <trkpt lat="37.024014964699745" lon="-8.994026016443968">
        <ele>66.469999999999999</ele>
        <time>2025-05-06T15:10:57Z</time>
      </trkpt>
      <trkpt lat="37.023828970268369" lon="-8.994466988369823">
        <ele>66.950000000000003</ele>
        <time>2025-05-06T15:11:12Z</time>
      </trkpt>
      <trkpt lat="37.023753030225635" lon="-8.994647031649947">
        <ele>66.950000000000003</ele>
        <time>2025-05-06T15:11:19Z</time>
      </trkpt>
      <trkpt lat="37.023783037438989" lon="-8.994530020281673">
        <ele>66.469999999999999</ele>
        <time>2025-05-06T15:11:26Z</time>
      </trkpt>
      <trkpt lat="37.023820001631975" lon="-8.994488026946783">
        <ele>65.989999999999995</ele>
        <time>2025-05-06T15:11:40Z</time>
      </trkpt>
      <trkpt lat="37.023820001631975" lon="-8.994488026946783">
        <ele>65.989999999999995</ele>
        <time>2025-05-06T15:11:49Z</time>
      </trkpt>
      <trkpt lat="37.023823019117117" lon="-8.994470005854964">
        <ele>65.510000000000005</ele>
        <time>2025-05-06T16:11:35Z</time>
      </trkpt>
      <trkpt lat="37.023822013288736" lon="-8.994466988369823">
        <ele>65.989999999999995</ele>
        <time>2025-05-06T16:12:24Z</time>
      </trkpt>
      <trkpt lat="37.023817989975214" lon="-8.9944629650563">
        <ele>65.989999999999995</ele>
        <time>2025-05-06T16:13:20Z</time>
      </trkpt>
      <trkpt lat="37.023817989975214" lon="-8.994461037218571">
        <ele>65.989999999999995</ele>
        <time>2025-05-06T16:14:17Z</time>
      </trkpt>
      <trkpt lat="37.023820001631975" lon="-8.994466988369823">
        <ele>66.469999999999999</ele>
        <time>2025-05-06T16:15:18Z</time>
      </trkpt>
      <trkpt lat="37.023816984146833" lon="-8.994463970884681">
        <ele>66.469999999999999</ele>
        <time>2025-05-06T16:16:11Z</time>
      </trkpt>
      <trkpt lat="37.023816984146833" lon="-8.994463970884681">
        <ele>66.469999999999999</ele>
        <time>2025-05-06T16:16:14Z</time>
      </trkpt>
      <trkpt lat="37.02385202050209" lon="-8.994413008913398">
        <ele>67.430000000000007</ele>
        <time>2025-05-06T16:16:20Z</time>
      </trkpt>
      <trkpt lat="37.023868029937148" lon="-8.994375038892031">
        <ele>67.909999999999997</ele>
        <time>2025-05-06T16:16:21Z</time>
      </trkpt>
      <trkpt lat="37.023889990523458" lon="-8.994322987273336">
        <ele>67.909999999999997</ele>
        <time>2025-05-06T16:16:22Z</time>
      </trkpt>
      <trkpt lat="37.024212023243308" lon="-8.99355897679925">
        <ele>68.390000000000001</ele>
        <time>2025-05-06T16:16:32Z</time>
      </trkpt>
      <trkpt lat="37.024829015135765" lon="-8.99209801107645">
        <ele>66.950000000000003</ele>
        <time>2025-05-06T16:16:43Z</time>
      </trkpt>
      <trkpt lat="37.025748006999493" lon="-8.989882003515959">
        <ele>67.909999999999997</ele>
        <time>2025-05-06T16:16:55Z</time>
      </trkpt>
      <trkpt lat="37.027284996584058" lon="-8.986166976392269">
        <ele>67.430000000000007</ele>
        <time>2025-05-06T16:17:12Z</time>
      </trkpt>
      <trkpt lat="37.028144979849458" lon="-8.984037972986698">
        <ele>65.510000000000005</ele>
        <time>2025-05-06T16:17:22Z</time>
      </trkpt>
      <trkpt lat="37.028193008154631" lon="-8.983832029625773">
        <ele>65.989999999999995</ele>
        <time>2025-05-06T16:17:23Z</time>
      </trkpt>
      <trkpt lat="37.028222009539604" lon="-8.983621979132295">
        <ele>66.469999999999999</ele>
        <time>2025-05-06T16:17:24Z</time>
      </trkpt>
      <trkpt lat="37.02821396291256" lon="-8.98139800876379">
        <ele>68.390000000000001</ele>
        <time>2025-05-06T16:17:34Z</time>
      </trkpt>
      <trkpt lat="37.027828982099891" lon="-8.979216031730175">
        <ele>71.269999999999996</ele>
        <time>2025-05-06T16:17:45Z</time>
      </trkpt>
      <trkpt lat="37.027716999873519" lon="-8.978580012917519">
        <ele>72.239999999999995</ele>
        <time>2025-05-06T16:17:53Z</time>
      </trkpt>
      <trkpt lat="37.02760904096067" lon="-8.977971989661455">
        <ele>71.760000000000005</ele>
        <time>2025-05-06T16:18:00Z</time>
      </trkpt>
      <trkpt lat="37.027602000162005" lon="-8.977929996326566">
        <ele>71.269999999999996</ele>
        <time>2025-05-06T16:18:07Z</time>
      </trkpt>
      <trkpt lat="37.027594037353992" lon="-8.977883979678154">
        <ele>70.790000000000006</ele>
        <time>2025-05-06T16:18:45Z</time>
      </trkpt>
      <trkpt lat="37.027475014328957" lon="-8.977216025814414">
        <ele>69.349999999999994</ele>
        <time>2025-05-06T16:18:50Z</time>
      </trkpt>
      <trkpt lat="37.027259012684226" lon="-8.975734021514654">
        <ele>66.469999999999999</ele>
        <time>2025-05-06T16:18:56Z</time>
      </trkpt>
      <trkpt lat="37.027231017127633" lon="-8.975444007664919">
        <ele>65.510000000000005</ele>
        <time>2025-05-06T16:18:57Z</time>
      </trkpt>
      <trkpt lat="37.027249960228801" lon="-8.975179977715015">
        <ele>65.030000000000001</ele>
        <time>2025-05-06T16:18:58Z</time>
      </trkpt>
      <trkpt lat="37.02746101655066" lon="-8.972272966057062">
        <ele>60.219999999999999</ele>
        <time>2025-05-06T16:19:08Z</time>
      </trkpt>
      <trkpt lat="37.027580039575696" lon="-8.970508994534612">
        <ele>58.780000000000001</ele>
        <time>2025-05-06T16:19:15Z</time>
      </trkpt>
      <trkpt lat="37.027674000710249" lon="-8.968445034697652">
        <ele>58.780000000000001</ele>
        <time>2025-05-06T16:19:24Z</time>
      </trkpt>
      <trkpt lat="37.027667965739965" lon="-8.968126019462943">
        <ele>58.299999999999997</ele>
        <time>2025-05-06T16:19:29Z</time>
      </trkpt>
      <trkpt lat="37.027667965739965" lon="-8.968126019462943">
        <ele>58.299999999999997</ele>
        <time>2025-05-06T16:19:43Z</time>
      </trkpt>
      <trkpt lat="37.027662014588714" lon="-8.96773299202323">
        <ele>56.369999999999997</ele>
        <time>2025-05-06T16:19:51Z</time>
      </trkpt>
      <trkpt lat="37.027644999325275" lon="-8.966753985732794">
        <ele>55.890000000000001</ele>
        <time>2025-05-06T16:19:57Z</time>
      </trkpt>
      <trkpt lat="37.027605017647147" lon="-8.96446798928082">
        <ele>55.409999999999997</ele>
        <time>2025-05-06T16:20:07Z</time>
      </trkpt>
      <trkpt lat="37.027551038190722" lon="-8.963598031550646">
        <ele>54.93</ele>
        <time>2025-05-06T16:20:11Z</time>
      </trkpt>
      <trkpt lat="37.027502004057169" lon="-8.963400973007083">
        <ele>54.450000000000003</ele>
        <time>2025-05-06T16:20:12Z</time>
      </trkpt>
      <trkpt lat="37.027404019609094" lon="-8.963240040466189">
        <ele>53.969999999999999</ele>
        <time>2025-05-06T16:20:13Z</time>
      </trkpt>
      <trkpt lat="37.027308968827128" lon="-8.963084975257516">
        <ele>53.490000000000002</ele>
        <time>2025-05-06T16:20:14Z</time>
      </trkpt>
      <trkpt lat="37.027190029621124" lon="-8.962962012737989">
        <ele>53.009999999999998</ele>
        <time>2025-05-06T16:20:15Z</time>
      </trkpt>
      <trkpt lat="37.027062959969044" lon="-8.962860004976392">
        <ele>53.009999999999998</ele>
        <time>2025-05-06T16:20:16Z</time>
      </trkpt>
      <trkpt lat="37.025802992284298" lon="-8.96188703365624">
        <ele>50.130000000000003</ele>
        <time>2025-05-06T16:20:26Z</time>
      </trkpt>
      <trkpt lat="37.024343032389879" lon="-8.960747011005878">
        <ele>46.280000000000001</ele>
        <time>2025-05-06T16:20:35Z</time>
      </trkpt>
      <trkpt lat="37.022051000967622" lon="-8.958952026441693">
        <ele>41.469999999999999</ele>
        <time>2025-05-06T16:20:48Z</time>
      </trkpt>
      <trkpt lat="37.019400978460908" lon="-8.956855041906238">
        <ele>35.229999999999997</ele>
        <time>2025-05-06T16:21:03Z</time>
      </trkpt>
      <trkpt lat="37.01738596893847" lon="-8.955234987661243">
        <ele>29.460000000000001</ele>
        <time>2025-05-06T16:21:15Z</time>
      </trkpt>
      <trkpt lat="37.014982039108872" lon="-8.953191982582212">
        <ele>28.02</ele>
        <time>2025-05-06T16:21:29Z</time>
      </trkpt>
      <trkpt lat="37.012459002435207" lon="-8.951030038297176">
        <ele>25.129999999999999</ele>
        <time>2025-05-06T16:21:45Z</time>
      </trkpt>
      <trkpt lat="37.010396970435977" lon="-8.949274029582739">
        <ele>30.420000000000002</ele>
        <time>2025-05-06T16:21:58Z</time>
      </trkpt>
      <trkpt lat="37.009383011609316" lon="-8.948327964171767">
        <ele>34.259999999999998</ele>
        <time>2025-05-06T16:22:07Z</time>
      </trkpt>
      <trkpt lat="37.008766019716859" lon="-8.947338983416557">
        <ele>36.189999999999998</ele>
        <time>2025-05-06T16:22:16Z</time>
      </trkpt>
      <trkpt lat="37.007962027564645" lon="-8.945749020203948">
        <ele>40.990000000000002</ele>
        <time>2025-05-06T16:22:31Z</time>
      </trkpt>
      <trkpt lat="37.007811991497874" lon="-8.945215009152889">
        <ele>42.439999999999998</ele>
        <time>2025-05-06T16:22:36Z</time>
      </trkpt>
      <trkpt lat="37.007639994844794" lon="-8.945103026926518">
        <ele>42.439999999999998</ele>
        <time>2025-05-06T16:22:37Z</time>
      </trkpt>
      <trkpt lat="37.007594984024763" lon="-8.945058016106486">
        <ele>42.439999999999998</ele>
        <time>2025-05-06T16:22:39Z</time>
      </trkpt>
      <trkpt lat="37.0075430162251" lon="-8.944951985031366">
        <ele>41.950000000000003</ele>
        <time>2025-05-06T16:22:40Z</time>
      </trkpt>
      <trkpt lat="37.007533041760325" lon="-8.944888031110168">
        <ele>41.950000000000003</ele>
        <time>2025-05-06T16:22:41Z</time>
      </trkpt>
      <trkpt lat="37.007596995681524" lon="-8.944759033620358">
        <ele>41.469999999999999</ele>
        <time>2025-05-06T16:22:42Z</time>
      </trkpt>
      <trkpt lat="37.007620967924595" lon="-8.944592988118529">
        <ele>40.990000000000002</ele>
        <time>2025-05-06T16:22:43Z</time>
      </trkpt>
      <trkpt lat="37.007575035095215" lon="-8.944481005892158">
        <ele>40.509999999999998</ele>
        <time>2025-05-06T16:22:44Z</time>
      </trkpt>
      <trkpt lat="37.007562965154648" lon="-8.944382015615702">
        <ele>40.509999999999998</ele>
        <time>2025-05-06T16:22:45Z</time>
      </trkpt>
      <trkpt lat="37.007411001250148" lon="-8.943117018789053">
        <ele>40.509999999999998</ele>
        <time>2025-05-06T16:22:57Z</time>
      </trkpt>
      <trkpt lat="37.007370013743639" lon="-8.942756010219455">
        <ele>40.030000000000001</ele>
        <time>2025-05-06T16:23:05Z</time>
      </trkpt>
      <trkpt lat="37.007360961288214" lon="-8.942677974700928">
        <ele>39.07</ele>
        <time>2025-05-06T16:23:16Z</time>
      </trkpt>
      <trkpt lat="37.007360961288214" lon="-8.942677974700928">
        <ele>36.189999999999998</ele>
        <time>2025-05-06T16:23:29Z</time>
      </trkpt>
      <trkpt lat="37.007360961288214" lon="-8.942677974700928">
        <ele>33.780000000000001</ele>
        <time>2025-05-06T16:23:57Z</time>
      </trkpt>
      <trkpt lat="37.007360961288214" lon="-8.942677974700928">
        <ele>33.780000000000001</ele>
        <time>2025-05-06T16:23:58Z</time>
      </trkpt>
      <trkpt lat="37.007377976551652" lon="-8.942832034081221">
        <ele>29.940000000000001</ele>
        <time>2025-05-06T16:24:04Z</time>
      </trkpt>
      <trkpt lat="37.007377976551652" lon="-8.942832034081221">
        <ele>28.98</ele>
        <time>2025-05-06T16:24:16Z</time>
      </trkpt>
      <trkpt lat="37.007389962673187" lon="-8.942861035466194">
        <ele>35.229999999999997</ele>
        <time>2025-05-06T16:48:38Z</time>
      </trkpt>
      <trkpt lat="37.00733195990324" lon="-8.942857012152672">
        <ele>26.09</ele>
        <time>2025-05-06T16:49:15Z</time>
      </trkpt>
      <trkpt lat="37.007332965731621" lon="-8.942861035466194">
        <ele>26.57</ele>
        <time>2025-05-06T16:49:22Z</time>
      </trkpt>
      <trkpt lat="37.007388034835458" lon="-8.942918032407761">
        <ele>27.530000000000001</ele>
        <time>2025-05-06T16:49:25Z</time>
      </trkpt>
      <trkpt lat="37.007392980158329" lon="-8.94296295940876">
        <ele>27.530000000000001</ele>
        <time>2025-05-06T16:49:26Z</time>
      </trkpt>
      <trkpt lat="37.007398009300232" lon="-8.943007970228791">
        <ele>27.530000000000001</ele>
        <time>2025-05-06T16:49:27Z</time>
      </trkpt>
      <trkpt lat="37.007403038442135" lon="-8.94304602406919">
        <ele>28.5</ele>
        <time>2025-05-06T16:49:35Z</time>
      </trkpt>
      <trkpt lat="37.007435979321599" lon="-8.943337965756655">
        <ele>29.940000000000001</ele>
        <time>2025-05-06T16:49:46Z</time>
      </trkpt>
      <trkpt lat="37.007557014003396" lon="-8.94433599896729">
        <ele>29.460000000000001</ele>
        <time>2025-05-06T16:49:56Z</time>
      </trkpt>
      <trkpt lat="37.007567994296551" lon="-8.94442199729383">
        <ele>29.940000000000001</ele>
        <time>2025-05-06T16:49:57Z</time>
      </trkpt>
      <trkpt lat="37.007590960711241" lon="-8.944518975913525">
        <ele>30.420000000000002</ele>
        <time>2025-05-06T16:49:58Z</time>
      </trkpt>
      <trkpt lat="37.007622979581356" lon="-8.944600028917193">
        <ele>30.420000000000002</ele>
        <time>2025-05-06T16:49:59Z</time>
      </trkpt>
      <trkpt lat="37.007790030911565" lon="-8.944694995880127">
        <ele>30.420000000000002</ele>
        <time>2025-05-06T16:50:00Z</time>
      </trkpt>
      <trkpt lat="37.007790030911565" lon="-8.944694995880127">
        <ele>30.899999999999999</ele>
        <time>2025-05-06T16:50:01Z</time>
      </trkpt>
      <trkpt lat="37.007790030911565" lon="-8.944694995880127">
        <ele>30.899999999999999</ele>
        <time>2025-05-06T16:50:02Z</time>
      </trkpt>
      <trkpt lat="37.007980970665812" lon="-8.944772025570273">
        <ele>31.379999999999999</ele>
        <time>2025-05-06T16:50:03Z</time>
      </trkpt>
      <trkpt lat="37.008062023669481" lon="-8.944731960073113">
        <ele>31.859999999999999</ele>
        <time>2025-05-06T16:50:04Z</time>
      </trkpt>
      <trkpt lat="37.00814601033926" lon="-8.944692984223366">
        <ele>32.340000000000003</ele>
        <time>2025-05-06T16:50:05Z</time>
      </trkpt>
      <trkpt lat="37.008233014494181" lon="-8.944653002545238">
        <ele>32.82</ele>
        <time>2025-05-06T16:50:06Z</time>
      </trkpt>
      <trkpt lat="37.009153012186289" lon="-8.94420700147748">
        <ele>36.189999999999998</ele>
        <time>2025-05-06T16:50:16Z</time>
      </trkpt>
      <trkpt lat="37.010521022602916" lon="-8.943551033735275">
        <ele>32.82</ele>
        <time>2025-05-06T16:50:29Z</time>
      </trkpt>
      <trkpt lat="37.01164897531271" lon="-8.942991038784385">
        <ele>30.899999999999999</ele>
        <time>2025-05-06T16:50:40Z</time>
      </trkpt>
      <trkpt lat="37.012983961030841" lon="-8.942356025800109">
        <ele>27.050000000000001</ele>
        <time>2025-05-06T16:50:52Z</time>
      </trkpt>
      <trkpt lat="37.014777017757297" lon="-8.94150098785758">
        <ele>22.25</ele>
        <time>2025-05-06T16:51:08Z</time>
      </trkpt>
      <trkpt lat="37.016346026211977" lon="-8.940754998475313">
        <ele>20.809999999999999</ele>
        <time>2025-05-06T16:51:22Z</time>
      </trkpt>
      <trkpt lat="37.017928026616573" lon="-8.939991993829608">
        <ele>19.84</ele>
        <time>2025-05-06T16:51:36Z</time>
      </trkpt>
      <trkpt lat="37.018938967958093" lon="-8.939511962234974">
        <ele>21.77</ele>
        <time>2025-05-06T16:51:45Z</time>
      </trkpt>
      <trkpt lat="37.0206050388515" lon="-8.938701013103128">
        <ele>26.57</ele>
        <time>2025-05-06T16:51:59Z</time>
      </trkpt>
      <trkpt lat="37.0221540145576" lon="-8.937958963215351">
        <ele>24.170000000000002</ele>
        <time>2025-05-06T16:52:10Z</time>
      </trkpt>
      <trkpt lat="37.022451991215348" lon="-8.937827032059431">
        <ele>24.649999999999999</ele>
        <time>2025-05-06T16:52:12Z</time>
      </trkpt>
      <trkpt lat="37.022773018106818" lon="-8.937766011804342">
        <ele>25.129999999999999</ele>
        <time>2025-05-06T16:52:14Z</time>
      </trkpt>
      <trkpt lat="37.02294803224504" lon="-8.937769029289484">
        <ele>25.609999999999999</ele>
        <time>2025-05-06T16:52:15Z</time>
      </trkpt>
      <trkpt lat="37.025022972375154" lon="-8.937742039561272">
        <ele>29.940000000000001</ele>
        <time>2025-05-06T16:52:26Z</time>
      </trkpt>
      <trkpt lat="37.026935974135995" lon="-8.937249016016722">
        <ele>34.259999999999998</ele>
        <time>2025-05-06T16:52:35Z</time>
      </trkpt>
      <trkpt lat="37.029045028612018" lon="-8.936575027182698">
        <ele>37.630000000000003</ele>
        <time>2025-05-06T16:52:44Z</time>
      </trkpt>
      <trkpt lat="37.031877022236586" lon="-8.935565007850528">
        <ele>40.990000000000002</ele>
        <time>2025-05-06T16:52:57Z</time>
      </trkpt>
      <trkpt lat="37.035528011620045" lon="-8.934073029085994">
        <ele>44.840000000000003</ele>
        <time>2025-05-06T16:53:14Z</time>
      </trkpt>
      <trkpt lat="37.039345968514681" lon="-8.932512989267707">
        <ele>47.719999999999999</ele>
        <time>2025-05-06T16:53:31Z</time>
      </trkpt>
      <trkpt lat="37.043146993964911" lon="-8.930958984419704">
        <ele>53.009999999999998</ele>
        <time>2025-05-06T16:53:48Z</time>
      </trkpt>
      <trkpt lat="37.046559015288949" lon="-8.929564990103245">
        <ele>57.340000000000003</ele>
        <time>2025-05-06T16:54:04Z</time>
      </trkpt>
      <trkpt lat="37.048845011740923" lon="-8.928362019360066">
        <ele>60.219999999999999</ele>
        <time>2025-05-06T16:54:15Z</time>
      </trkpt>
      <trkpt lat="37.050862032920122" lon="-8.92652696929872">
        <ele>62.619999999999997</ele>
        <time>2025-05-06T16:54:26Z</time>
      </trkpt>
      <trkpt lat="37.053490011021495" lon="-8.924104012548924">
        <ele>66.950000000000003</ele>
        <time>2025-05-06T16:54:40Z</time>
      </trkpt>
      <trkpt lat="37.055005040019751" lon="-8.923297002911568">
        <ele>69.829999999999998</ele>
        <time>2025-05-06T16:54:47Z</time>
      </trkpt>
      <trkpt lat="37.056603971868753" lon="-8.923062980175018">
        <ele>68.870000000000005</ele>
        <time>2025-05-06T16:54:54Z</time>
      </trkpt>
      <trkpt lat="37.060072990134358" lon="-8.922972036525607">
        <ele>65.989999999999995</ele>
        <time>2025-05-06T16:55:09Z</time>
      </trkpt>
      <trkpt lat="37.063683997839689" lon="-8.922877991572022">
        <ele>67.430000000000007</ele>
        <time>2025-05-06T16:55:25Z</time>
      </trkpt>
      <trkpt lat="37.066111983731389" lon="-8.922551013529301">
        <ele>74.159999999999997</ele>
        <time>2025-05-06T16:55:36Z</time>
      </trkpt>
      <trkpt lat="37.067521987482905" lon="-8.921704022213817">
        <ele>80.409999999999997</ele>
        <time>2025-05-06T16:55:43Z</time>
      </trkpt>
      <trkpt lat="37.069490980356932" lon="-8.919876012951136">
        <ele>90.019999999999996</ele>
        <time>2025-05-06T16:55:54Z</time>
      </trkpt>
      <trkpt lat="37.071615038439631" lon="-8.918091002851725">
        <ele>95.790000000000006</ele>
        <time>2025-05-06T16:56:05Z</time>
      </trkpt>
      <trkpt lat="37.0747060328722" lon="-8.91603802330792">
        <ele>90.019999999999996</ele>
        <time>2025-05-06T16:56:20Z</time>
      </trkpt>
      <trkpt lat="37.076290966942906" lon="-8.914983998984098">
        <ele>84.25</ele>
        <time>2025-05-06T16:56:29Z</time>
      </trkpt>
      <trkpt lat="37.077456973493099" lon="-8.914185035973787">
        <ele>78.969999999999999</ele>
        <time>2025-05-06T16:56:37Z</time>
      </trkpt>
      <trkpt lat="37.077597035095096" lon="-8.914080010727048">
        <ele>78</ele>
        <time>2025-05-06T16:56:38Z</time>
      </trkpt>
      <trkpt lat="37.07773600704968" lon="-8.913974985480309">
        <ele>77.040000000000006</ele>
        <time>2025-05-06T16:56:39Z</time>
      </trkpt>
      <trkpt lat="37.078993963077664" lon="-8.912652991712093">
        <ele>74.640000000000001</ele>
        <time>2025-05-06T16:56:49Z</time>
      </trkpt>
      <trkpt lat="37.080494994297624" lon="-8.910558018833399">
        <ele>76.560000000000002</ele>
        <time>2025-05-06T16:57:02Z</time>
      </trkpt>
      <trkpt lat="37.081866022199392" lon="-8.908299012109637">
        <ele>77.519999999999996</ele>
        <time>2025-05-06T16:57:14Z</time>
      </trkpt>
      <trkpt lat="37.082367008551955" lon="-8.906360026448965">
        <ele>73.680000000000007</ele>
        <time>2025-05-06T16:57:22Z</time>
      </trkpt>
      <trkpt lat="37.082424005493522" lon="-8.904262958094478">
        <ele>70.310000000000002</ele>
        <time>2025-05-06T16:57:30Z</time>
      </trkpt>
      <trkpt lat="37.082430040463805" lon="-8.900629989802837">
        <ele>74.640000000000001</ele>
        <time>2025-05-06T16:57:44Z</time>
      </trkpt>
      <trkpt lat="37.082257959991693" lon="-8.897724989801645">
        <ele>77.040000000000006</ele>
        <time>2025-05-06T16:57:55Z</time>
      </trkpt>
      <trkpt lat="37.082412019371986" lon="-8.895775023847818">
        <ele>71.269999999999996</ele>
        <time>2025-05-06T16:58:03Z</time>
      </trkpt>
      <trkpt lat="37.082629026845098" lon="-8.894046004861593">
        <ele>61.659999999999997</ele>
        <time>2025-05-06T16:58:10Z</time>
      </trkpt>
      <trkpt lat="37.082630032673478" lon="-8.893018970265985">
        <ele>56.859999999999999</ele>
        <time>2025-05-06T16:58:16Z</time>
      </trkpt>
      <trkpt lat="37.082573035731912" lon="-8.892330983653665">
        <ele>54.450000000000003</ele>
        <time>2025-05-06T16:58:23Z</time>
      </trkpt>
      <trkpt lat="37.082500029355288" lon="-8.89178398065269">
        <ele>53.490000000000002</ele>
        <time>2025-05-06T16:58:32Z</time>
      </trkpt>
      <trkpt lat="37.082447977736592" lon="-8.891405034810305">
        <ele>53.009999999999998</ele>
        <time>2025-05-06T16:58:38Z</time>
      </trkpt>
      <trkpt lat="37.082366002723575" lon="-8.890704978257418">
        <ele>53.969999999999999</ele>
        <time>2025-05-06T16:58:51Z</time>
      </trkpt>
      <trkpt lat="37.082361979410052" lon="-8.890658039599657">
        <ele>53.969999999999999</ele>
        <time>2025-05-06T16:58:52Z</time>
      </trkpt>
      <trkpt lat="37.082337001338601" lon="-8.890485037118197">
        <ele>53.490000000000002</ele>
        <time>2025-05-06T16:59:02Z</time>
      </trkpt>
      <trkpt lat="37.082307999953628" lon="-8.890250008553267">
        <ele>54.450000000000003</ele>
        <time>2025-05-06T16:59:21Z</time>
      </trkpt>
      <trkpt lat="37.082275981083512" lon="-8.889365969225764">
        <ele>58.780000000000001</ele>
        <time>2025-05-06T16:59:31Z</time>
      </trkpt>
      <trkpt lat="37.082157041877508" lon="-8.887881031259894">
        <ele>65.030000000000001</ele>
        <time>2025-05-06T16:59:41Z</time>
      </trkpt>
      <trkpt lat="37.081780023872852" lon="-8.885321030393243">
        <ele>80.409999999999997</ele>
        <time>2025-05-06T16:59:55Z</time>
      </trkpt>
      <trkpt lat="37.081742975860834" lon="-8.883667029440403">
        <ele>87.620000000000005</ele>
        <time>2025-05-06T17:00:03Z</time>
      </trkpt>
      <trkpt lat="37.082189982756972" lon="-8.881844971328974">
        <ele>91.459999999999994</ele>
        <time>2025-05-06T17:00:11Z</time>
      </trkpt>
      <trkpt lat="37.082902025431395" lon="-8.879245994612575">
        <ele>87.620000000000005</ele>
        <time>2025-05-06T17:00:22Z</time>
      </trkpt>
      <trkpt lat="37.083522034808993" lon="-8.876769980415702">
        <ele>81.849999999999994</ele>
        <time>2025-05-06T17:00:32Z</time>
      </trkpt>
      <trkpt lat="37.084085969254375" lon="-8.874300001189113">
        <ele>75.120000000000005</ele>
        <time>2025-05-06T17:00:42Z</time>
      </trkpt>
      <trkpt lat="37.084168028086424" lon="-8.873851988464594">
        <ele>75.120000000000005</ele>
        <time>2025-05-06T17:00:45Z</time>
      </trkpt>
      <trkpt lat="37.084187977015972" lon="-8.873739000409842">
        <ele>75.120000000000005</ele>
        <time>2025-05-06T17:00:46Z</time>
      </trkpt>
      <trkpt lat="37.084051016718149" lon="-8.873562980443239">
        <ele>75.120000000000005</ele>
        <time>2025-05-06T17:00:47Z</time>
      </trkpt>
      <trkpt lat="37.084051016718149" lon="-8.873500032350421">
        <ele>75.120000000000005</ele>
        <time>2025-05-06T17:00:48Z</time>
      </trkpt>
      <trkpt lat="37.084057973697782" lon="-8.873400036245585">
        <ele>75.120000000000005</ele>
        <time>2025-05-06T17:00:49Z</time>
      </trkpt>
      <trkpt lat="37.084071971476078" lon="-8.873304985463619">
        <ele>75.599999999999994</ele>
        <time>2025-05-06T17:00:50Z</time>
      </trkpt>
      <trkpt lat="37.084071971476078" lon="-8.873304985463619">
        <ele>75.599999999999994</ele>
        <time>2025-05-06T17:00:51Z</time>
      </trkpt>
      <trkpt lat="37.084200968965888" lon="-8.873105999082327">
        <ele>76.079999999999998</ele>
        <time>2025-05-06T17:00:52Z</time>
      </trkpt>
      <trkpt lat="37.084199963137507" lon="-8.872994016855955">
        <ele>75.599999999999994</ele>
        <time>2025-05-06T17:00:53Z</time>
      </trkpt>
      <trkpt lat="37.084197029471397" lon="-8.872867031022906">
        <ele>75.599999999999994</ele>
        <time>2025-05-06T17:00:54Z</time>
      </trkpt>
      <trkpt lat="37.084194011986256" lon="-8.87272696942091">
        <ele>76.079999999999998</ele>
        <time>2025-05-06T17:00:55Z</time>
      </trkpt>
      <trkpt lat="37.084168028086424" lon="-8.871444035321474">
        <ele>73.680000000000007</ele>
        <time>2025-05-06T17:01:02Z</time>
      </trkpt>
      <trkpt lat="37.084064008668065" lon="-8.869255017489195">
        <ele>65.989999999999995</ele>
        <time>2025-05-06T17:01:11Z</time>
      </trkpt>
      <trkpt lat="37.083604009822011" lon="-8.867551982402802">
        <ele>58.299999999999997</ele>
        <time>2025-05-06T17:01:18Z</time>
      </trkpt>
      <trkpt lat="37.08263598382473" lon="-8.865856993943453">
        <ele>54.93</ele>
        <time>2025-05-06T17:01:26Z</time>
      </trkpt>
      <trkpt lat="37.081427983939648" lon="-8.863688008859754">
        <ele>62.140000000000001</ele>
        <time>2025-05-06T17:01:37Z</time>
      </trkpt>
      <trkpt lat="37.080718036741018" lon="-8.861455991864204">
        <ele>64.549999999999997</ele>
        <time>2025-05-06T17:01:47Z</time>
      </trkpt>
      <trkpt lat="37.079850006848574" lon="-8.859916990622878">
        <ele>60.700000000000003</ele>
        <time>2025-05-06T17:01:54Z</time>
      </trkpt>
      <trkpt lat="37.078469004482031" lon="-8.858471028506756">
        <ele>56.369999999999997</ele>
        <time>2025-05-06T17:02:02Z</time>
      </trkpt>
      <trkpt lat="37.076390963047743" lon="-8.856412013992667">
        <ele>53.969999999999999</ele>
        <time>2025-05-06T17:02:15Z</time>
      </trkpt>
      <trkpt lat="37.075489992275834" lon="-8.854952976107597">
        <ele>50.609999999999999</ele>
        <time>2025-05-06T17:02:22Z</time>
      </trkpt>
      <trkpt lat="37.07438500598073" lon="-8.852646024897695">
        <ele>51.090000000000003</ele>
        <time>2025-05-06T17:02:33Z</time>
      </trkpt>
      <trkpt lat="37.073941016569734" lon="-8.850856991484761">
        <ele>48.200000000000003</ele>
        <time>2025-05-06T17:02:42Z</time>
      </trkpt>
      <trkpt lat="37.073974963277578" lon="-8.849119003862143">
        <ele>40.030000000000001</ele>
        <time>2025-05-06T17:02:51Z</time>
      </trkpt>
      <trkpt lat="37.074112007394433" lon="-8.848095992580056">
        <ele>34.259999999999998</ele>
        <time>2025-05-06T17:02:58Z</time>
      </trkpt>
      <trkpt lat="37.074126005172729" lon="-8.847986022010446">
        <ele>33.780000000000001</ele>
        <time>2025-05-06T17:02:59Z</time>
      </trkpt>
      <trkpt lat="37.074050987139344" lon="-8.847791980952025">
        <ele>33.299999999999997</ele>
        <time>2025-05-06T17:03:00Z</time>
      </trkpt>
      <trkpt lat="37.074050987139344" lon="-8.847791980952025">
        <ele>33.299999999999997</ele>
        <time>2025-05-06T17:03:01Z</time>
      </trkpt>
      <trkpt lat="37.07404101267457" lon="-8.84771796874702">
        <ele>32.82</ele>
        <time>2025-05-06T17:03:02Z</time>
      </trkpt>
      <trkpt lat="37.074031038209796" lon="-8.847646974027157">
        <ele>32.340000000000003</ele>
        <time>2025-05-06T17:03:03Z</time>
      </trkpt>
      <trkpt lat="37.074060961604118" lon="-8.847580002620816">
        <ele>32.340000000000003</ele>
        <time>2025-05-06T17:03:04Z</time>
      </trkpt>
      <trkpt lat="37.074092980474234" lon="-8.847515964880586">
        <ele>32.340000000000003</ele>
        <time>2025-05-06T17:03:05Z</time>
      </trkpt>
      <trkpt lat="37.074142014607787" lon="-8.847494004294276">
        <ele>31.859999999999999</ele>
        <time>2025-05-06T17:03:06Z</time>
      </trkpt>
      <trkpt lat="37.074198005720973" lon="-8.847471959888935">
        <ele>31.859999999999999</ele>
        <time>2025-05-06T17:03:07Z</time>
      </trkpt>
      <trkpt lat="37.074246034026146" lon="-8.847508002072573">
        <ele>31.379999999999999</ele>
        <time>2025-05-06T17:03:08Z</time>
      </trkpt>
      <trkpt lat="37.074305964633822" lon="-8.847559969872236">
        <ele>31.379999999999999</ele>
        <time>2025-05-06T17:03:09Z</time>
      </trkpt>
      <trkpt lat="37.074351981282234" lon="-8.847599029541016">
        <ele>31.379999999999999</ele>
        <time>2025-05-06T17:03:10Z</time>
      </trkpt>
      <trkpt lat="37.074373019859195" lon="-8.847767002880573">
        <ele>31.379999999999999</ele>
        <time>2025-05-06T17:03:11Z</time>
      </trkpt>
      <trkpt lat="37.07449397072196" lon="-8.847884014248848">
        <ele>31.379999999999999</ele>
        <time>2025-05-06T17:03:13Z</time>
      </trkpt>
      <trkpt lat="37.074519032612443" lon="-8.847978981211782">
        <ele>31.859999999999999</ele>
        <time>2025-05-06T17:03:14Z</time>
      </trkpt>
      <trkpt lat="37.074509980157018" lon="-8.848064979538322">
        <ele>31.859999999999999</ele>
        <time>2025-05-06T17:03:15Z</time>
      </trkpt>
      <trkpt lat="37.07449103705585" lon="-8.84814796037972">
        <ele>31.859999999999999</ele>
        <time>2025-05-06T17:03:16Z</time>
      </trkpt>
      <trkpt lat="37.074436973780394" lon="-8.848213003948331">
        <ele>31.859999999999999</ele>
        <time>2025-05-06T17:03:17Z</time>
      </trkpt>
      <trkpt lat="37.074375031515956" lon="-8.848288021981716">
        <ele>31.859999999999999</ele>
        <time>2025-05-06T17:03:18Z</time>
      </trkpt>
      <trkpt lat="37.074309987947345" lon="-8.848365973681212">
        <ele>31.379999999999999</ele>
        <time>2025-05-06T17:03:19Z</time>
      </trkpt>
      <trkpt lat="37.07425600849092" lon="-8.848455995321274">
        <ele>31.379999999999999</ele>
        <time>2025-05-06T17:03:20Z</time>
      </trkpt>
      <trkpt lat="37.074212003499269" lon="-8.848544005304575">
        <ele>30.899999999999999</ele>
        <time>2025-05-06T17:03:21Z</time>
      </trkpt>
      <trkpt lat="37.07419297657907" lon="-8.848627991974354">
        <ele>30.899999999999999</ele>
        <time>2025-05-06T17:03:22Z</time>
      </trkpt>
      <trkpt lat="37.074181996285915" lon="-8.848706027492881">
        <ele>30.899999999999999</ele>
        <time>2025-05-06T17:03:23Z</time>
      </trkpt>
      <trkpt lat="37.074142014607787" lon="-8.848994029685855">
        <ele>31.379999999999999</ele>
        <time>2025-05-06T17:03:31Z</time>
      </trkpt>
      <trkpt lat="37.074142014607787" lon="-8.848994029685855">
        <ele>31.379999999999999</ele>
        <time>2025-05-06T17:03:59Z</time>
      </trkpt>
      <trkpt lat="37.074142014607787" lon="-8.848994029685855">
        <ele>31.859999999999999</ele>
        <time>2025-05-06T17:04:32Z</time>
      </trkpt>
      <trkpt lat="37.074142014607787" lon="-8.848994029685855">
        <ele>33.299999999999997</ele>
        <time>2025-05-06T17:04:49Z</time>
      </trkpt>
      <trkpt lat="37.074142014607787" lon="-8.848994029685855">
        <ele>32.82</ele>
        <time>2025-05-06T17:06:06Z</time>
      </trkpt>
      <trkpt lat="37.074092980474234" lon="-8.849082039669156">
        <ele>38.590000000000003</ele>
        <time>2025-05-06T17:09:05Z</time>
      </trkpt>
      <trkpt lat="37.074066996574402" lon="-8.849076004698873">
        <ele>35.229999999999997</ele>
        <time>2025-05-06T17:09:16Z</time>
      </trkpt>
      <trkpt lat="37.074115024879575" lon="-8.849059995263815">
        <ele>34.740000000000002</ele>
        <time>2025-05-06T17:09:35Z</time>
      </trkpt>
      <trkpt lat="37.0741499774158" lon="-8.849073993042111">
        <ele>35.229999999999997</ele>
        <time>2025-05-06T17:09:56Z</time>
      </trkpt>
      <trkpt lat="37.074204962700605" lon="-8.849086984992027">
        <ele>37.149999999999999</ele>
        <time>2025-05-06T17:10:15Z</time>
      </trkpt>
      <trkpt lat="37.074230024591088" lon="-8.849082961678505">
        <ele>38.109999999999999</ele>
        <time>2025-05-06T17:10:32Z</time>
      </trkpt>
      <trkpt lat="37.074253996834159" lon="-8.849094025790691">
        <ele>36.189999999999998</ele>
        <time>2025-05-07T07:11:20Z</time>
      </trkpt>
      <trkpt lat="37.074245028197765" lon="-8.84907097555697">
        <ele>39.549999999999997</ele>
        <time>2025-05-07T07:11:42Z</time>
      </trkpt>
      <trkpt lat="37.074246034026146" lon="-8.84906804189086">
        <ele>40.990000000000002</ele>
        <time>2025-05-07T07:12:21Z</time>
      </trkpt>
      <trkpt lat="37.073988039046526" lon="-8.849022025242448">
        <ele>40.509999999999998</ele>
        <time>2025-05-07T07:12:49Z</time>
      </trkpt>
      <trkpt lat="37.073989966884255" lon="-8.849007021635771">
        <ele>40.990000000000002</ele>
        <time>2025-05-07T07:12:57Z</time>
      </trkpt>
      <trkpt lat="37.074137991294265" lon="-8.849024958908558">
        <ele>41.469999999999999</ele>
        <time>2025-05-07T07:13:00Z</time>
      </trkpt>
      <trkpt lat="37.074140002951026" lon="-8.849011966958642">
        <ele>41.469999999999999</ele>
        <time>2025-05-07T07:13:01Z</time>
      </trkpt>
      <trkpt lat="37.074143020436168" lon="-8.848991012200713">
        <ele>41.469999999999999</ele>
        <time>2025-05-07T07:13:02Z</time>
      </trkpt>
      <trkpt lat="37.074146037921309" lon="-8.848967961966991">
        <ele>41.469999999999999</ele>
        <time>2025-05-07T07:13:03Z</time>
      </trkpt>
      <trkpt lat="37.07414897158742" lon="-8.848944995552301">
        <ele>41.469999999999999</ele>
        <time>2025-05-07T07:13:04Z</time>
      </trkpt>
      <trkpt lat="37.07414897158742" lon="-8.848944995552301">
        <ele>41.469999999999999</ele>
        <time>2025-05-07T07:13:05Z</time>
      </trkpt>
      <trkpt lat="37.07414897158742" lon="-8.848944995552301">
        <ele>41.469999999999999</ele>
        <time>2025-05-07T07:13:25Z</time>
      </trkpt>
      <trkpt lat="37.074189959093928" lon="-8.848649030551314">
        <ele>40.509999999999998</ele>
        <time>2025-05-07T07:13:56Z</time>
      </trkpt>
      <trkpt lat="37.074201023206115" lon="-8.848568983376026">
        <ele>40.030000000000001</ele>
        <time>2025-05-07T07:13:57Z</time>
      </trkpt>
      <trkpt lat="37.074232036247849" lon="-8.848504023626447">
        <ele>40.030000000000001</ele>
        <time>2025-05-07T07:13:58Z</time>
      </trkpt>
      <trkpt lat="37.074287021532655" lon="-8.848392963409424">
        <ele>40.030000000000001</ele>
        <time>2025-05-07T07:13:59Z</time>
      </trkpt>
      <trkpt lat="37.074323985725641" lon="-8.848348958417773">
        <ele>40.030000000000001</ele>
        <time>2025-05-07T07:14:00Z</time>
      </trkpt>
      <trkpt lat="37.07438500598073" lon="-8.848276035860181">
        <ele>40.030000000000001</ele>
        <time>2025-05-07T07:14:01Z</time>
      </trkpt>
      <trkpt lat="37.074446026235819" lon="-8.848203029483557">
        <ele>40.030000000000001</ele>
        <time>2025-05-07T07:14:02Z</time>
      </trkpt>
      <trkpt lat="37.074500005692244" lon="-8.848137985914946">
        <ele>40.030000000000001</ele>
        <time>2025-05-07T07:14:03Z</time>
      </trkpt>
      <trkpt lat="37.074512997642159" lon="-8.84803899563849">
        <ele>40.030000000000001</ele>
        <time>2025-05-07T07:14:04Z</time>
      </trkpt>
      <trkpt lat="37.074520960450172" lon="-8.847963977605104">
        <ele>40.030000000000001</ele>
        <time>2025-05-07T07:14:05Z</time>
      </trkpt>
      <trkpt lat="37.07449397072196" lon="-8.847883008420467">
        <ele>40.030000000000001</ele>
        <time>2025-05-07T07:14:06Z</time>
      </trkpt>
      <trkpt lat="37.074445020407438" lon="-8.847827017307282">
        <ele>40.030000000000001</ele>
        <time>2025-05-07T07:14:07Z</time>
      </trkpt>
      <trkpt lat="37.074390035122633" lon="-8.84778200648725">
        <ele>39.549999999999997</ele>
        <time>2025-05-07T07:14:08Z</time>
      </trkpt>
      <trkpt lat="37.074265982955694" lon="-8.847877979278565">
        <ele>40.030000000000001</ele>
        <time>2025-05-07T07:14:09Z</time>
      </trkpt>
      <trkpt lat="37.074219966307282" lon="-8.847886025905609">
        <ele>40.030000000000001</ele>
        <time>2025-05-07T07:14:10Z</time>
      </trkpt>
      <trkpt lat="37.0741499774158" lon="-8.847897006198764">
        <ele>40.030000000000001</ele>
        <time>2025-05-07T07:14:11Z</time>
      </trkpt>
      <trkpt lat="37.074082000181079" lon="-8.847830034792423">
        <ele>40.030000000000001</ele>
        <time>2025-05-07T07:14:12Z</time>
      </trkpt>
      <trkpt lat="37.074046963825822" lon="-8.847763985395432">
        <ele>40.030000000000001</ele>
        <time>2025-05-07T07:14:13Z</time>
      </trkpt>
      <trkpt lat="37.074034977704287" lon="-8.847679998725653">
        <ele>40.030000000000001</ele>
        <time>2025-05-07T07:14:14Z</time>
      </trkpt>
      <trkpt lat="37.074048975482583" lon="-8.847603974863887">
        <ele>39.549999999999997</ele>
        <time>2025-05-07T07:14:15Z</time>
      </trkpt>
      <trkpt lat="37.074089040979743" lon="-8.84752401150763">
        <ele>39.549999999999997</ele>
        <time>2025-05-07T07:14:16Z</time>
      </trkpt>
      <trkpt lat="37.074093986302614" lon="-8.847513031214476">
        <ele>39.549999999999997</ele>
        <time>2025-05-07T07:14:17Z</time>
      </trkpt>
      <trkpt lat="37.074245028197765" lon="-8.84722301736474">
        <ele>39.549999999999997</ele>
        <time>2025-05-07T07:14:19Z</time>
      </trkpt>
      <trkpt lat="37.074266988784075" lon="-8.847100976854563">
        <ele>39.549999999999997</ele>
        <time>2025-05-07T07:14:20Z</time>
      </trkpt>
      <trkpt lat="37.074796976521611" lon="-8.845803961157799">
        <ele>39.07</ele>
        <time>2025-05-07T07:14:29Z</time>
      </trkpt>
      <trkpt lat="37.075766008347273" lon="-8.844744991511107">
        <ele>41.950000000000003</ele>
        <time>2025-05-07T07:14:37Z</time>
      </trkpt>
      <trkpt lat="37.077396959066391" lon="-8.843439007177949">
        <ele>53.490000000000002</ele>
        <time>2025-05-07T07:14:48Z</time>
      </trkpt>
      <trkpt lat="37.078129034489393" lon="-8.842358998954296">
        <ele>59.259999999999998</ele>
        <time>2025-05-07T07:14:55Z</time>
      </trkpt>
      <trkpt lat="37.078486019745469" lon="-8.84082100354135">
        <ele>62.619999999999997</ele>
        <time>2025-05-07T07:15:03Z</time>
      </trkpt>
      <trkpt lat="37.078476967290044" lon="-8.838785039260984">
        <ele>60.219999999999999</ele>
        <time>2025-05-07T07:15:12Z</time>
      </trkpt>
      <trkpt lat="37.078503035008907" lon="-8.837120980024338">
        <ele>58.299999999999997</ele>
        <time>2025-05-07T07:15:20Z</time>
      </trkpt>
      <trkpt lat="37.078739991411567" lon="-8.836012976244092">
        <ele>55.409999999999997</ele>
        <time>2025-05-07T07:15:27Z</time>
      </trkpt>
      <trkpt lat="37.078664973378181" lon="-8.835796974599361">
        <ele>55.409999999999997</ele>
        <time>2025-05-07T07:15:28Z</time>
      </trkpt>
      <trkpt lat="37.078664973378181" lon="-8.835796974599361">
        <ele>55.409999999999997</ele>
        <time>2025-05-07T07:15:29Z</time>
      </trkpt>
      <trkpt lat="37.078652987256646" lon="-8.835703013464809">
        <ele>55.409999999999997</ele>
        <time>2025-05-07T07:15:30Z</time>
      </trkpt>
      <trkpt lat="37.078643012791872" lon="-8.835625983774662">
        <ele>55.409999999999997</ele>
        <time>2025-05-07T07:15:31Z</time>
      </trkpt>
      <trkpt lat="37.078695986419916" lon="-8.835531016811729">
        <ele>55.409999999999997</ele>
        <time>2025-05-07T07:15:32Z</time>
      </trkpt>
      <trkpt lat="37.078739991411567" lon="-8.835451975464821">
        <ele>54.93</ele>
        <time>2025-05-07T07:15:33Z</time>
      </trkpt>
      <trkpt lat="37.078800005838275" lon="-8.83540797047317">
        <ele>54.93</ele>
        <time>2025-05-07T07:15:34Z</time>
      </trkpt>
      <trkpt lat="37.078835964202881" lon="-8.835390033200383">
        <ele>54.450000000000003</ele>
        <time>2025-05-07T07:15:35Z</time>
      </trkpt>
      <trkpt lat="37.078996980562806" lon="-8.835354996845126">
        <ele>53.969999999999999</ele>
        <time>2025-05-07T07:15:36Z</time>
      </trkpt>
      <trkpt lat="37.079036040231586" lon="-8.835281990468502">
        <ele>53.490000000000002</ele>
        <time>2025-05-07T07:15:37Z</time>
      </trkpt>
      <trkpt lat="37.079093959182501" lon="-8.835175037384033">
        <ele>53.490000000000002</ele>
        <time>2025-05-07T07:15:38Z</time>
      </trkpt>
      <trkpt lat="37.079134024679661" lon="-8.835113011300564">
        <ele>53.009999999999998</ele>
        <time>2025-05-07T07:15:39Z</time>
      </trkpt>
      <trkpt lat="37.079192027449608" lon="-8.835022989660502">
        <ele>53.009999999999998</ele>
        <time>2025-05-07T07:15:40Z</time>
      </trkpt>
      <trkpt lat="37.079857969656587" lon="-8.834134005010128">
        <ele>51.090000000000003</ele>
        <time>2025-05-07T07:15:48Z</time>
      </trkpt>
      <trkpt lat="37.080901013687253" lon="-8.832949977368116">
        <ele>46.280000000000001</ele>
        <time>2025-05-07T07:15:57Z</time>
      </trkpt>
      <trkpt lat="37.08242098800838" lon="-8.831249959766865">
        <ele>35.710000000000001</ele>
        <time>2025-05-07T07:16:09Z</time>
      </trkpt>
      <trkpt lat="37.083703000098467" lon="-8.830021005123854">
        <ele>31.859999999999999</ele>
        <time>2025-05-07T07:16:21Z</time>
      </trkpt>
      <trkpt lat="37.084973026067019" lon="-8.828846029937267">
        <ele>31.379999999999999</ele>
        <time>2025-05-07T07:16:33Z</time>
      </trkpt>
      <trkpt lat="37.085984973236918" lon="-8.827812038362026">
        <ele>28.5</ele>
        <time>2025-05-07T07:16:45Z</time>
      </trkpt>
      <trkpt lat="37.086169961839914" lon="-8.827625960111618">
        <ele>28.02</ele>
        <time>2025-05-07T07:16:48Z</time>
      </trkpt>
      <trkpt lat="37.086217990145087" lon="-8.827428985387087">
        <ele>27.530000000000001</ele>
        <time>2025-05-07T07:16:49Z</time>
      </trkpt>
      <trkpt lat="37.086279010400176" lon="-8.827286995947361">
        <ele>27.050000000000001</ele>
        <time>2025-05-07T07:16:51Z</time>
      </trkpt>
      <trkpt lat="37.086378000676632" lon="-8.827223964035511">
        <ele>27.050000000000001</ele>
        <time>2025-05-07T07:16:52Z</time>
      </trkpt>
      <trkpt lat="37.086431980133057" lon="-8.827193034812808">
        <ele>26.57</ele>
        <time>2025-05-07T07:16:53Z</time>
      </trkpt>
      <trkpt lat="37.086677988991141" lon="-8.827075017616153">
        <ele>26.57</ele>
        <time>2025-05-07T07:16:55Z</time>
      </trkpt>
      <trkpt lat="37.08676096983254" lon="-8.826977033168078">
        <ele>26.57</ele>
        <time>2025-05-07T07:16:56Z</time>
      </trkpt>
      <trkpt lat="37.087593963369727" lon="-8.826072039082646">
        <ele>28.5</ele>
        <time>2025-05-07T07:17:04Z</time>
      </trkpt>
      <trkpt lat="37.088944036513567" lon="-8.824607972055674">
        <ele>34.259999999999998</ele>
        <time>2025-05-07T07:17:17Z</time>
      </trkpt>
      <trkpt lat="37.090099984779954" lon="-8.823125967755914">
        <ele>37.630000000000003</ele>
        <time>2025-05-07T07:17:29Z</time>
      </trkpt>
      <trkpt lat="37.09071303717792" lon="-8.821575986221433">
        <ele>39.549999999999997</ele>
        <time>2025-05-07T07:17:37Z</time>
      </trkpt>
      <trkpt lat="37.091348972171545" lon="-8.818639973178506">
        <ele>32.82</ele>
        <time>2025-05-07T07:17:51Z</time>
      </trkpt>
      <trkpt lat="37.09191701374948" lon="-8.815928008407354">
        <ele>29.460000000000001</ele>
        <time>2025-05-07T07:18:05Z</time>
      </trkpt>
      <trkpt lat="37.09223703481257" lon="-8.81439202465117">
        <ele>28.5</ele>
        <time>2025-05-07T07:18:15Z</time>
      </trkpt>
      <trkpt lat="37.092525959014893" lon="-8.812859980389476">
        <ele>28.98</ele>
        <time>2025-05-07T07:18:27Z</time>
      </trkpt>
      <trkpt lat="37.092499975115061" lon="-8.812640961259604">
        <ele>28.98</ele>
        <time>2025-05-07T07:18:30Z</time>
      </trkpt>
      <trkpt lat="37.092471979558468" lon="-8.812550017610192">
        <ele>28.98</ele>
        <time>2025-05-07T07:18:31Z</time>
      </trkpt>
      <trkpt lat="37.092440966516733" lon="-8.812327980995178">
        <ele>28.98</ele>
        <time>2025-05-07T07:18:33Z</time>
      </trkpt>
      <trkpt lat="37.09249896928668" lon="-8.812231002375484">
        <ele>28.98</ele>
        <time>2025-05-07T07:18:34Z</time>
      </trkpt>
      <trkpt lat="37.092555966228247" lon="-8.812141986563802">
        <ele>28.98</ele>
        <time>2025-05-07T07:18:35Z</time>
      </trkpt>
      <trkpt lat="37.092616986483335" lon="-8.812038972973824">
        <ele>28.98</ele>
        <time>2025-05-07T07:18:36Z</time>
      </trkpt>
      <trkpt lat="37.092678006738424" lon="-8.811926990747452">
        <ele>28.98</ele>
        <time>2025-05-07T07:18:37Z</time>
      </trkpt>
      <trkpt lat="37.092738021165133" lon="-8.811806961894035">
        <ele>28.98</ele>
        <time>2025-05-07T07:18:38Z</time>
      </trkpt>
      <trkpt lat="37.092789988964796" lon="-8.811673019081354">
        <ele>28.98</ele>
        <time>2025-05-07T07:18:39Z</time>
      </trkpt>
      <trkpt lat="37.092821002006531" lon="-8.811527006328106">
        <ele>28.98</ele>
        <time>2025-05-07T07:18:40Z</time>
      </trkpt>
      <trkpt lat="37.092853020876646" lon="-8.811374958604574">
        <ele>28.98</ele>
        <time>2025-05-07T07:18:41Z</time>
      </trkpt>
      <trkpt lat="37.09326901473105" lon="-8.809421975165606">
        <ele>28.5</ele>
        <time>2025-05-07T07:18:53Z</time>
      </trkpt>
      <trkpt lat="37.093685008585453" lon="-8.806802965700626">
        <ele>35.710000000000001</ele>
        <time>2025-05-07T07:19:07Z</time>
      </trkpt>
      <trkpt lat="37.09346397779882" lon="-8.804926006123424">
        <ele>46.759999999999998</ele>
        <time>2025-05-07T07:19:17Z</time>
      </trkpt>
      <trkpt lat="37.092868024483323" lon="-8.802859028801322">
        <ele>55.890000000000001</ele>
        <time>2025-05-07T07:19:28Z</time>
      </trkpt>
      <trkpt lat="37.092593014240265" lon="-8.801122969016433">
        <ele>58.299999999999997</ele>
        <time>2025-05-07T07:19:37Z</time>
      </trkpt>
      <trkpt lat="37.092427974566817" lon="-8.798421984538436">
        <ele>53.969999999999999</ele>
        <time>2025-05-07T07:19:50Z</time>
      </trkpt>
      <trkpt lat="37.092328984290361" lon="-8.796829003840685">
        <ele>50.130000000000003</ele>
        <time>2025-05-07T07:20:00Z</time>
      </trkpt>
      <trkpt lat="37.09232403896749" lon="-8.796695983037353">
        <ele>49.649999999999999</ele>
        <time>2025-05-07T07:20:01Z</time>
      </trkpt>
      <trkpt lat="37.092319009825587" lon="-8.79658198915422">
        <ele>49.649999999999999</ele>
        <time>2025-05-07T07:20:02Z</time>
      </trkpt>
      <trkpt lat="37.092314986512065" lon="-8.79647696390748">
        <ele>49.649999999999999</ele>
        <time>2025-05-07T07:20:03Z</time>
      </trkpt>
      <trkpt lat="37.092205015942454" lon="-8.796379985287786">
        <ele>49.649999999999999</ele>
        <time>2025-05-07T07:20:04Z</time>
      </trkpt>
      <trkpt lat="37.092168973758817" lon="-8.796307984739542">
        <ele>49.649999999999999</ele>
        <time>2025-05-07T07:20:05Z</time>
      </trkpt>
      <trkpt lat="37.092128992080688" lon="-8.796228021383286">
        <ele>49.159999999999997</ele>
        <time>2025-05-07T07:20:06Z</time>
      </trkpt>
      <trkpt lat="37.092136032879353" lon="-8.79612903110683">
        <ele>49.159999999999997</ele>
        <time>2025-05-07T07:20:07Z</time>
      </trkpt>
      <trkpt lat="37.092155981808901" lon="-8.796038003638387">
        <ele>49.159999999999997</ele>
        <time>2025-05-07T07:20:08Z</time>
      </trkpt>
      <trkpt lat="37.092162016779184" lon="-8.796015037223697">
        <ele>49.159999999999997</ele>
        <time>2025-05-07T07:20:09Z</time>
      </trkpt>
      <trkpt lat="37.092279028147459" lon="-8.795819990336895">
        <ele>49.159999999999997</ele>
        <time>2025-05-07T07:20:10Z</time>
      </trkpt>
      <trkpt lat="37.092271987348795" lon="-8.795725023373961">
        <ele>49.159999999999997</ele>
        <time>2025-05-07T07:20:11Z</time>
      </trkpt>
      <trkpt lat="37.092264024540782" lon="-8.795627960935235">
        <ele>48.68</ele>
        <time>2025-05-07T07:20:12Z</time>
      </trkpt>
      <trkpt lat="37.092255977913737" lon="-8.795526959002018">
        <ele>48.68</ele>
        <time>2025-05-07T07:20:13Z</time>
      </trkpt>
      <trkpt lat="37.092248015105724" lon="-8.795420005917549">
        <ele>48.68</ele>
        <time>2025-05-07T07:20:14Z</time>
      </trkpt>
      <trkpt lat="37.092238962650299" lon="-8.795301988720894">
        <ele>48.68</ele>
        <time>2025-05-07T07:20:15Z</time>
      </trkpt>
      <trkpt lat="37.09219696931541" lon="-8.794735036790371">
        <ele>48.200000000000003</ele>
        <time>2025-05-07T07:20:20Z</time>
      </trkpt>
      <trkpt lat="37.092151958495378" lon="-8.79381000995636">
        <ele>47.240000000000002</ele>
        <time>2025-05-07T07:20:26Z</time>
      </trkpt>
      <trkpt lat="37.091961018741131" lon="-8.791062003001571">
        <ele>44.840000000000003</ele>
        <time>2025-05-07T07:20:40Z</time>
      </trkpt>
      <trkpt lat="37.091671004891396" lon="-8.788034040480852">
        <ele>32.340000000000003</ele>
        <time>2025-05-07T07:20:54Z</time>
      </trkpt>
      <trkpt lat="37.09116498939693" lon="-8.7856450304389">
        <ele>26.57</ele>
        <time>2025-05-07T07:21:06Z</time>
      </trkpt>
      <trkpt lat="37.090932978317142" lon="-8.784396965056658">
        <ele>24.649999999999999</ele>
        <time>2025-05-07T07:21:14Z</time>
      </trkpt>
      <trkpt lat="37.090895008295774" lon="-8.783860020339489">
        <ele>21.77</ele>
        <time>2025-05-07T07:21:21Z</time>
      </trkpt>
      <trkpt lat="37.090888973325491" lon="-8.783611999824643">
        <ele>19.359999999999999</ele>
        <time>2025-05-07T07:21:33Z</time>
      </trkpt>
      <trkpt lat="37.090877993032336" lon="-8.783190976828337">
        <ele>19.359999999999999</ele>
        <time>2025-05-07T07:21:39Z</time>
      </trkpt>
      <trkpt lat="37.090947981923819" lon="-8.782060006633401">
        <ele>18.879999999999999</ele>
        <time>2025-05-07T07:21:47Z</time>
      </trkpt>
      <trkpt lat="37.091247970238328" lon="-8.78038102760911">
        <ele>18.399999999999999</ele>
        <time>2025-05-07T07:21:56Z</time>
      </trkpt>
      <trkpt lat="37.091774018481374" lon="-8.778280019760132">
        <ele>18.879999999999999</ele>
        <time>2025-05-07T07:22:06Z</time>
      </trkpt>
      <trkpt lat="37.092382041737437" lon="-8.775807023048401">
        <ele>18.879999999999999</ele>
        <time>2025-05-07T07:22:19Z</time>
      </trkpt>
      <trkpt lat="37.09309802390635" lon="-8.77294996753335">
        <ele>18.399999999999999</ele>
        <time>2025-05-07T07:22:34Z</time>
      </trkpt>
      <trkpt lat="37.093794979155064" lon="-8.770364988595247">
        <ele>19.359999999999999</ele>
        <time>2025-05-07T07:22:48Z</time>
      </trkpt>
      <trkpt lat="37.094209967181087" lon="-8.768843002617359">
        <ele>19.359999999999999</ele>
        <time>2025-05-07T07:22:58Z</time>
      </trkpt>
      <trkpt lat="37.094292026013136" lon="-8.768504038453102">
        <ele>19.84</ele>
        <time>2025-05-07T07:23:01Z</time>
      </trkpt>
      <trkpt lat="37.094319015741348" lon="-8.768333969637752">
        <ele>19.84</ele>
        <time>2025-05-07T07:23:03Z</time>
      </trkpt>
      <trkpt lat="37.094326978549361" lon="-8.768260963261128">
        <ele>19.84</ele>
        <time>2025-05-07T07:23:04Z</time>
      </trkpt>
      <trkpt lat="37.094240980222821" lon="-8.768017971888185">
        <ele>20.32</ele>
        <time>2025-05-07T07:23:07Z</time>
      </trkpt>
      <trkpt lat="37.094265958294272" lon="-8.767943037673831">
        <ele>20.32</ele>
        <time>2025-05-07T07:23:08Z</time>
      </trkpt>
      <trkpt lat="37.094285991042852" lon="-8.767884029075503">
        <ele>20.32</ele>
        <time>2025-05-07T07:23:09Z</time>
      </trkpt>
      <trkpt lat="37.094285991042852" lon="-8.767884029075503">
        <ele>20.32</ele>
        <time>2025-05-07T07:23:10Z</time>
      </trkpt>
      <trkpt lat="37.094481959939003" lon="-8.767823008820415">
        <ele>20.32</ele>
        <time>2025-05-07T07:23:11Z</time>
      </trkpt>
      <trkpt lat="37.094510961323977" lon="-8.76775000244379">
        <ele>20.32</ele>
        <time>2025-05-07T07:23:12Z</time>
      </trkpt>
      <trkpt lat="37.094545997679234" lon="-8.76766299828887">
        <ele>20.32</ele>
        <time>2025-05-07T07:23:13Z</time>
      </trkpt>
      <trkpt lat="37.094578016549349" lon="-8.767566019669175">
        <ele>19.84</ele>
        <time>2025-05-07T07:23:14Z</time>
      </trkpt>
      <trkpt lat="37.094612969085574" lon="-8.767462000250816">
        <ele>19.84</ele>
        <time>2025-05-07T07:23:15Z</time>
      </trkpt>
      <trkpt lat="37.095000967383385" lon="-8.766202032566071">
        <ele>20.809999999999999</ele>
        <time>2025-05-07T07:23:25Z</time>
      </trkpt>
      <trkpt lat="37.095478987321258" lon="-8.764577032998204">
        <ele>18.879999999999999</ele>
        <time>2025-05-07T07:23:35Z</time>
      </trkpt>
      <trkpt lat="37.095587030053139" lon="-8.7642059661448">
        <ele>18.399999999999999</ele>
        <time>2025-05-07T07:23:37Z</time>
      </trkpt>
      <trkpt lat="37.095643021166325" lon="-8.764015026390553">
        <ele>18.399999999999999</ele>
        <time>2025-05-07T07:23:38Z</time>
      </trkpt>
      <trkpt lat="37.096309969201684" lon="-8.761756019666791">
        <ele>20.32</ele>
        <time>2025-05-07T07:23:50Z</time>
      </trkpt>
      <trkpt lat="37.09724698215723" lon="-8.759718965739012">
        <ele>25.129999999999999</ele>
        <time>2025-05-07T07:24:01Z</time>
      </trkpt>
      <trkpt lat="37.098656985908747" lon="-8.75722199678421">
        <ele>26.57</ele>
        <time>2025-05-07T07:24:15Z</time>
      </trkpt>
      <trkpt lat="37.099202983081341" lon="-8.755474034696817">
        <ele>28.5</ele>
        <time>2025-05-07T07:24:24Z</time>
      </trkpt>
      <trkpt lat="37.099448991939425" lon="-8.753140009939671">
        <ele>34.259999999999998</ele>
        <time>2025-05-07T07:24:35Z</time>
      </trkpt>
      <trkpt lat="37.099634986370802" lon="-8.751300014555454">
        <ele>36.189999999999998</ele>
        <time>2025-05-07T07:24:43Z</time>
      </trkpt>
      <trkpt lat="37.099773958325386" lon="-8.749818010255694">
        <ele>38.590000000000003</ele>
        <time>2025-05-07T07:24:51Z</time>
      </trkpt>
      <trkpt lat="37.099788039922714" lon="-8.748439019545913">
        <ele>39.07</ele>
        <time>2025-05-07T07:25:00Z</time>
      </trkpt>
      <trkpt lat="37.099783010780811" lon="-8.74834799207747">
        <ele>39.07</ele>
        <time>2025-05-07T07:25:01Z</time>
      </trkpt>
      <trkpt lat="37.099649989977479" lon="-8.748228969052434">
        <ele>39.549999999999997</ele>
        <time>2025-05-07T07:25:02Z</time>
      </trkpt>
      <trkpt lat="37.099627023562789" lon="-8.748098965734243">
        <ele>40.030000000000001</ele>
        <time>2025-05-07T07:25:04Z</time>
      </trkpt>
      <trkpt lat="37.099612019956112" lon="-8.748014979064465">
        <ele>40.509999999999998</ele>
        <time>2025-05-07T07:25:05Z</time>
      </trkpt>
      <trkpt lat="37.099606990814209" lon="-8.747993018478155">
        <ele>40.509999999999998</ele>
        <time>2025-05-07T07:25:06Z</time>
      </trkpt>
      <trkpt lat="37.099677985534072" lon="-8.747908025979996">
        <ele>41.469999999999999</ele>
        <time>2025-05-07T07:25:07Z</time>
      </trkpt>
      <trkpt lat="37.099687959998846" lon="-8.747751032933593">
        <ele>41.469999999999999</ele>
        <time>2025-05-07T07:25:08Z</time>
      </trkpt>
      <trkpt lat="37.099668011069298" lon="-8.747666040435433">
        <ele>41.950000000000003</ele>
        <time>2025-05-07T07:25:09Z</time>
      </trkpt>
      <trkpt lat="37.099646972492337" lon="-8.747581969946623">
        <ele>42.439999999999998</ele>
        <time>2025-05-07T07:25:10Z</time>
      </trkpt>
      <trkpt lat="37.099627023562789" lon="-8.747496977448463">
        <ele>42.920000000000002</ele>
        <time>2025-05-07T07:25:11Z</time>
      </trkpt>
      <trkpt lat="37.099604979157448" lon="-8.747405027970672">
        <ele>43.399999999999999</ele>
        <time>2025-05-07T07:25:12Z</time>
      </trkpt>
      <trkpt lat="37.099412027746439" lon="-8.746813014149666">
        <ele>46.759999999999998</ele>
        <time>2025-05-07T07:25:18Z</time>
      </trkpt>
      <trkpt lat="37.098910035565495" lon="-8.745753038674593">
        <ele>54.450000000000003</ele>
        <time>2025-05-07T07:25:27Z</time>
      </trkpt>
      <trkpt lat="37.098043011501431" lon="-8.744217976927757">
        <ele>64.069999999999993</ele>
        <time>2025-05-07T07:25:39Z</time>
      </trkpt>
      <trkpt lat="37.09793396294117" lon="-8.743940033018589">
        <ele>65.030000000000001</ele>
        <time>2025-05-07T07:25:41Z</time>
      </trkpt>
      <trkpt lat="37.097515035420656" lon="-8.742172960191965">
        <ele>71.760000000000005</ele>
        <time>2025-05-07T07:25:52Z</time>
      </trkpt>
      <trkpt lat="37.097578989341855" lon="-8.74054997228086">
        <ele>73.200000000000003</ele>
        <time>2025-05-07T07:26:01Z</time>
      </trkpt>
      <trkpt lat="37.097648978233337" lon="-8.740192987024784">
        <ele>73.200000000000003</ele>
        <time>2025-05-07T07:26:03Z</time>
      </trkpt>
      <trkpt lat="37.098121969029307" lon="-8.738889014348388">
        <ele>71.760000000000005</ele>
        <time>2025-05-07T07:26:11Z</time>
      </trkpt>
      <trkpt lat="37.098864018917084" lon="-8.73767196200788">
        <ele>68.870000000000005</ele>
        <time>2025-05-07T07:26:20Z</time>
      </trkpt>
      <trkpt lat="37.099375985562801" lon="-8.736967965960503">
        <ele>68.390000000000001</ele>
        <time>2025-05-07T07:26:28Z</time>
      </trkpt>
      <trkpt lat="37.09939300082624" lon="-8.736749030649662">
        <ele>68.390000000000001</ele>
        <time>2025-05-07T07:26:31Z</time>
      </trkpt>
      <trkpt lat="37.099397024139762" lon="-8.73672497458756">
        <ele>67.909999999999997</ele>
        <time>2025-05-07T07:26:32Z</time>
      </trkpt>
      <trkpt lat="37.099408004432917" lon="-8.73666001483798">
        <ele>67.909999999999997</ele>
        <time>2025-05-07T07:26:33Z</time>
      </trkpt>
      <trkpt lat="37.09945603273809" lon="-8.736578961834312">
        <ele>67.909999999999997</ele>
        <time>2025-05-07T07:26:34Z</time>
      </trkpt>
      <trkpt lat="37.09950003772974" lon="-8.736534034833312">
        <ele>68.390000000000001</ele>
        <time>2025-05-07T07:26:35Z</time>
      </trkpt>
      <trkpt lat="37.09952199831605" lon="-8.736512996256352">
        <ele>68.390000000000001</ele>
        <time>2025-05-07T07:26:36Z</time>
      </trkpt>
      <trkpt lat="37.09952199831605" lon="-8.736512996256352">
        <ele>68.390000000000001</ele>
        <time>2025-05-07T07:26:37Z</time>
      </trkpt>
      <trkpt lat="37.099668011069298" lon="-8.736414005979896">
        <ele>68.390000000000001</ele>
        <time>2025-05-07T07:26:38Z</time>
      </trkpt>
      <trkpt lat="37.099700029939413" lon="-8.736333958804607">
        <ele>68.390000000000001</ele>
        <time>2025-05-07T07:26:39Z</time>
      </trkpt>
      <trkpt lat="37.099735988304019" lon="-8.736244020983577">
        <ele>68.390000000000001</ele>
        <time>2025-05-07T07:26:40Z</time>
      </trkpt>
      <trkpt lat="37.099776975810528" lon="-8.736147964373231">
        <ele>68.870000000000005</ele>
        <time>2025-05-07T07:26:41Z</time>
      </trkpt>
      <trkpt lat="37.1001479588449" lon="-8.735201982781291">
        <ele>70.790000000000006</ele>
        <time>2025-05-07T07:26:50Z</time>
      </trkpt>
      <trkpt lat="37.100593959912658" lon="-8.733503976836801">
        <ele>71.760000000000005</ele>
        <time>2025-05-07T07:27:01Z</time>
      </trkpt>
      <trkpt lat="37.100795041769743" lon="-8.732551038265228">
        <ele>73.680000000000007</ele>
        <time>2025-05-07T07:27:08Z</time>
      </trkpt>
      <trkpt lat="37.100826976820827" lon="-8.732387004420161">
        <ele>75.120000000000005</ele>
        <time>2025-05-07T07:27:16Z</time>
      </trkpt>
      <trkpt lat="37.100875005125999" lon="-8.73214996419847">
        <ele>77.040000000000006</ele>
        <time>2025-05-07T07:27:39Z</time>
      </trkpt>
      <trkpt lat="37.101074997335672" lon="-8.731226027011871">
        <ele>76.560000000000002</ele>
        <time>2025-05-07T07:27:48Z</time>
      </trkpt>
      <trkpt lat="37.101534996181726" lon="-8.729100041091442">
        <ele>79.930000000000007</ele>
        <time>2025-05-07T07:27:59Z</time>
      </trkpt>
      <trkpt lat="37.102242009714246" lon="-8.726472984999418">
        <ele>82.329999999999998</ele>
        <time>2025-05-07T07:28:10Z</time>
      </trkpt>
      <trkpt lat="37.102958997711539" lon="-8.724321015179157">
        <ele>83.769999999999996</ele>
        <time>2025-05-07T07:28:19Z</time>
      </trkpt>
      <trkpt lat="37.103929035365582" lon="-8.721251981332898">
        <ele>93.870000000000005</ele>
        <time>2025-05-07T07:28:33Z</time>
      </trkpt>
      <trkpt lat="37.104590032249689" lon="-8.71878401376307">
        <ele>94.349999999999994</ele>
        <time>2025-05-07T07:28:44Z</time>
      </trkpt>
      <trkpt lat="37.105338033288717" lon="-8.716908982023597">
        <ele>89.540000000000006</ele>
        <time>2025-05-07T07:28:53Z</time>
      </trkpt>
      <trkpt lat="37.106625996530056" lon="-8.714055027812719">
        <ele>79.930000000000007</ele>
        <time>2025-05-07T07:29:06Z</time>
      </trkpt>
      <trkpt lat="37.107716985046864" lon="-8.711400981992483">
        <ele>72.719999999999999</ele>
        <time>2025-05-07T07:29:19Z</time>
      </trkpt>
      <trkpt lat="37.107953019440174" lon="-8.709608009085059">
        <ele>71.269999999999996</ele>
        <time>2025-05-07T07:29:27Z</time>
      </trkpt>
      <trkpt lat="37.107717990875244" lon="-8.708060039207339">
        <ele>67.909999999999997</ele>
        <time>2025-05-07T07:29:35Z</time>
      </trkpt>
      <trkpt lat="37.107602991163731" lon="-8.707666005939245">
        <ele>66.469999999999999</ele>
        <time>2025-05-07T07:29:38Z</time>
      </trkpt>
      <trkpt lat="37.107574995607138" lon="-8.707570033147931">
        <ele>65.989999999999995</ele>
        <time>2025-05-07T07:29:39Z</time>
      </trkpt>
      <trkpt lat="37.107517998665571" lon="-8.70750498957932">
        <ele>65.989999999999995</ele>
        <time>2025-05-07T07:29:40Z</time>
      </trkpt>
      <trkpt lat="37.107466030865908" lon="-8.707462996244431">
        <ele>65.510000000000005</ele>
        <time>2025-05-07T07:29:41Z</time>
      </trkpt>
      <trkpt lat="37.107411967590451" lon="-8.707419997081161">
        <ele>65.030000000000001</ele>
        <time>2025-05-07T07:29:42Z</time>
      </trkpt>
      <trkpt lat="37.107353964820504" lon="-8.707372974604368">
        <ele>64.549999999999997</ele>
        <time>2025-05-07T07:29:43Z</time>
      </trkpt>
      <trkpt lat="37.107290010899305" lon="-8.707366017624736">
        <ele>64.549999999999997</ele>
        <time>2025-05-07T07:29:44Z</time>
      </trkpt>
      <trkpt lat="37.107221027836204" lon="-8.707358976826072">
        <ele>64.069999999999993</ele>
        <time>2025-05-07T07:29:45Z</time>
      </trkpt>
      <trkpt lat="37.107136035338044" lon="-8.707331987097859">
        <ele>63.579999999999998</ele>
        <time>2025-05-07T07:29:46Z</time>
      </trkpt>
      <trkpt lat="37.107050959020853" lon="-8.707259986549616">
        <ele>63.579999999999998</ele>
        <time>2025-05-07T07:29:47Z</time>
      </trkpt>
      <trkpt lat="37.107010977342725" lon="-8.707168037071824">
        <ele>63.579999999999998</ele>
        <time>2025-05-07T07:29:48Z</time>
      </trkpt>
      <trkpt lat="37.107007037848234" lon="-8.707014983519912">
        <ele>63.579999999999998</ele>
        <time>2025-05-07T07:29:49Z</time>
      </trkpt>
      <trkpt lat="37.107028998434544" lon="-8.706894032657147">
        <ele>63.579999999999998</ele>
        <time>2025-05-07T07:29:50Z</time>
      </trkpt>
      <trkpt lat="37.107015000656247" lon="-8.706760006025434">
        <ele>63.579999999999998</ele>
        <time>2025-05-07T07:29:51Z</time>
      </trkpt>
      <trkpt lat="37.106993962079287" lon="-8.706614999100566">
        <ele>63.579999999999998</ele>
        <time>2025-05-07T07:29:52Z</time>
      </trkpt>
      <trkpt lat="37.1069569978863" lon="-8.706474015489221">
        <ele>63.579999999999998</ele>
        <time>2025-05-07T07:29:53Z</time>
      </trkpt>
      <trkpt lat="37.106894971802831" lon="-8.706329008564353">
        <ele>63.579999999999998</ele>
        <time>2025-05-07T07:29:54Z</time>
      </trkpt>
      <trkpt lat="37.106792964041233" lon="-8.706206968054175">
        <ele>63.579999999999998</ele>
        <time>2025-05-07T07:29:55Z</time>
      </trkpt>
      <trkpt lat="37.106683999300003" lon="-8.706075958907604">
        <ele>63.579999999999998</ele>
        <time>2025-05-07T07:29:56Z</time>
      </trkpt>
      <trkpt lat="37.105628969147801" lon="-8.704808028414846">
        <ele>64.549999999999997</ele>
        <time>2025-05-07T07:30:04Z</time>
      </trkpt>
      <trkpt lat="37.104139002040029" lon="-8.703021006658673">
        <ele>66.950000000000003</ele>
        <time>2025-05-07T07:30:14Z</time>
      </trkpt>
      <trkpt lat="37.102894959971309" lon="-8.701328029856086">
        <ele>67.430000000000007</ele>
        <time>2025-05-07T07:30:23Z</time>
      </trkpt>
      <trkpt lat="37.102675018832088" lon="-8.700852021574974">
        <ele>67.430000000000007</ele>
        <time>2025-05-07T07:30:25Z</time>
      </trkpt>
      <trkpt lat="37.102061966434121" lon="-8.698728969320655">
        <ele>65.989999999999995</ele>
        <time>2025-05-07T07:30:33Z</time>
      </trkpt>
      <trkpt lat="37.101843031123281" lon="-8.696055980399251">
        <ele>60.700000000000003</ele>
        <time>2025-05-07T07:30:43Z</time>
      </trkpt>
      <trkpt lat="37.101743035018444" lon="-8.695231033489108">
        <ele>56.859999999999999</ele>
        <time>2025-05-07T07:30:48Z</time>
      </trkpt>
      <trkpt lat="37.101704981178045" lon="-8.695111004635692">
        <ele>56.369999999999997</ele>
        <time>2025-05-07T07:30:49Z</time>
      </trkpt>
      <trkpt lat="37.101647984236479" lon="-8.69497898966074">
        <ele>55.890000000000001</ele>
        <time>2025-05-07T07:30:50Z</time>
      </trkpt>
      <trkpt lat="37.101464001461864" lon="-8.694830965250731">
        <ele>54.450000000000003</ele>
        <time>2025-05-07T07:30:52Z</time>
      </trkpt>
      <trkpt lat="37.101425025612116" lon="-8.694714037701488">
        <ele>54.450000000000003</ele>
        <time>2025-05-07T07:30:53Z</time>
      </trkpt>
      <trkpt lat="37.101410022005439" lon="-8.694585040211678">
        <ele>53.490000000000002</ele>
        <time>2025-05-07T07:30:54Z</time>
      </trkpt>
      <trkpt lat="37.101410022005439" lon="-8.694455958902836">
        <ele>52.530000000000001</ele>
        <time>2025-05-07T07:30:55Z</time>
      </trkpt>
      <trkpt lat="37.101441035047174" lon="-8.694331990554929">
        <ele>52.049999999999997</ele>
        <time>2025-05-07T07:30:56Z</time>
      </trkpt>
      <trkpt lat="37.101517980918288" lon="-8.694230988621712">
        <ele>51.57</ele>
        <time>2025-05-07T07:30:57Z</time>
      </trkpt>
      <trkpt lat="37.101597022265196" lon="-8.694166028872132">
        <ele>51.090000000000003</ele>
        <time>2025-05-07T07:30:58Z</time>
      </trkpt>
      <trkpt lat="37.101683020591736" lon="-8.693985985592008">
        <ele>50.609999999999999</ele>
        <time>2025-05-07T07:30:59Z</time>
      </trkpt>
      <trkpt lat="37.101674973964691" lon="-8.693853970617056">
        <ele>50.609999999999999</ele>
        <time>2025-05-07T07:31:00Z</time>
      </trkpt>
      <trkpt lat="37.101667011156678" lon="-8.693720027804375">
        <ele>50.130000000000003</ele>
        <time>2025-05-07T07:31:01Z</time>
      </trkpt>
      <trkpt lat="37.101660976186395" lon="-8.69358298368752">
        <ele>49.159999999999997</ele>
        <time>2025-05-07T07:31:02Z</time>
      </trkpt>
      <trkpt lat="37.101577995344996" lon="-8.692286973819137">
        <ele>44.840000000000003</ele>
        <time>2025-05-07T07:31:13Z</time>
      </trkpt>
      <trkpt lat="37.101561985909939" lon="-8.692001989111304">
        <ele>44.840000000000003</ele>
        <time>2025-05-07T07:31:17Z</time>
      </trkpt>
      <trkpt lat="37.101559974253178" lon="-8.691972987726331">
        <ele>44.840000000000003</ele>
        <time>2025-05-07T07:31:18Z</time>
      </trkpt>
      <trkpt lat="37.101590987294912" lon="-8.692011963576078">
        <ele>45.32</ele>
        <time>2025-05-07T07:31:20Z</time>
      </trkpt>
      <trkpt lat="37.101618982851505" lon="-8.692054962739348">
        <ele>44.840000000000003</ele>
        <time>2025-05-07T07:31:21Z</time>
      </trkpt>
      <trkpt lat="37.101645972579718" lon="-8.692096034064889">
        <ele>45.32</ele>
        <time>2025-05-07T07:31:22Z</time>
      </trkpt>
      <trkpt lat="37.101672040298581" lon="-8.692135009914637">
        <ele>45.32</ele>
        <time>2025-05-07T07:31:23Z</time>
      </trkpt>
      <trkpt lat="37.101731970906258" lon="-8.692224025726318">
        <ele>45.32</ele>
        <time>2025-05-07T07:31:24Z</time>
      </trkpt>
      <trkpt lat="37.101731970906258" lon="-8.692224025726318">
        <ele>45.32</ele>
        <time>2025-05-07T07:31:25Z</time>
      </trkpt>
      <trkpt lat="37.101724008098245" lon="-8.692279011011124">
        <ele>45.32</ele>
        <time>2025-05-07T07:31:26Z</time>
      </trkpt>
      <trkpt lat="37.101710010319948" lon="-8.692373977974057">
        <ele>45.32</ele>
        <time>2025-05-07T07:31:27Z</time>
      </trkpt>
      <trkpt lat="37.101719984784722" lon="-8.69244497269392">
        <ele>45.799999999999997</ele>
        <time>2025-05-07T07:31:28Z</time>
      </trkpt>
      <trkpt lat="37.101733982563019" lon="-8.692532982677221">
        <ele>45.799999999999997</ele>
        <time>2025-05-07T07:31:29Z</time>
      </trkpt>
      <trkpt lat="37.101838001981378" lon="-8.69285099208355">
        <ele>46.280000000000001</ele>
        <time>2025-05-07T07:31:37Z</time>
      </trkpt>
      <trkpt lat="37.101838001981378" lon="-8.69285099208355">
        <ele>46.759999999999998</ele>
        <time>2025-05-07T07:31:52Z</time>
      </trkpt>
      <trkpt lat="37.101965993642807" lon="-8.692858032882214">
        <ele>48.200000000000003</ele>
        <time>2025-05-07T07:34:40Z</time>
      </trkpt>
      <trkpt lat="37.101914025843143" lon="-8.692907989025116">
        <ele>41.950000000000003</ele>
        <time>2025-05-07T07:35:03Z</time>
      </trkpt>
      <trkpt lat="37.101873038336635" lon="-8.692918969318271">
        <ele>52.049999999999997</ele>
        <time>2025-05-07T07:35:40Z</time>
      </trkpt>
      <trkpt lat="37.101874966174364" lon="-8.692964985966682">
        <ele>50.609999999999999</ele>
        <time>2025-05-07T07:35:53Z</time>
      </trkpt>
      <trkpt lat="37.101881001144648" lon="-8.692986024543643">
        <ele>50.609999999999999</ele>
        <time>2025-05-07T07:35:54Z</time>
      </trkpt>
      <trkpt lat="37.10188795812428" lon="-8.693006979301572">
        <ele>50.609999999999999</ele>
        <time>2025-05-07T07:35:55Z</time>
      </trkpt>
      <trkpt lat="37.101897010579705" lon="-8.693032963201404">
        <ele>50.609999999999999</ele>
        <time>2025-05-07T07:35:56Z</time>
      </trkpt>
      <trkpt lat="37.101905979216099" lon="-8.693060958757997">
        <ele>50.130000000000003</ele>
        <time>2025-05-07T07:35:57Z</time>
      </trkpt>
      <trkpt lat="37.101917965337634" lon="-8.693099012598395">
        <ele>49.649999999999999</ele>
        <time>2025-05-07T07:35:58Z</time>
      </trkpt>
      <trkpt lat="37.101933974772692" lon="-8.693147040903568">
        <ele>49.159999999999997</ele>
        <time>2025-05-07T07:35:59Z</time>
      </trkpt>
      <trkpt lat="37.102192975580692" lon="-8.693523975089192">
        <ele>45.799999999999997</ele>
        <time>2025-05-07T07:36:07Z</time>
      </trkpt>
      <trkpt lat="37.102217031642795" lon="-8.693534033372998">
        <ele>45.32</ele>
        <time>2025-05-07T07:36:08Z</time>
      </trkpt>
      <trkpt lat="37.102267993614078" lon="-8.693554988130927">
        <ele>44.840000000000003</ele>
        <time>2025-05-07T07:36:09Z</time>
      </trkpt>
      <trkpt lat="37.102241003885865" lon="-8.693488016724587">
        <ele>44.359999999999999</ele>
        <time>2025-05-07T07:36:10Z</time>
      </trkpt>
      <trkpt lat="37.102221976965666" lon="-8.693437976762652">
        <ele>43.880000000000003</ele>
        <time>2025-05-07T07:36:11Z</time>
      </trkpt>
      <trkpt lat="37.102193981409073" lon="-8.693368993699551">
        <ele>43.399999999999999</ele>
        <time>2025-05-07T07:36:12Z</time>
      </trkpt>
      <trkpt lat="37.102160034701228" lon="-8.693285007029772">
        <ele>42.920000000000002</ele>
        <time>2025-05-07T07:36:13Z</time>
      </trkpt>
      <trkpt lat="37.102124998345971" lon="-8.69319599121809">
        <ele>42.439999999999998</ele>
        <time>2025-05-07T07:36:14Z</time>
      </trkpt>
      <trkpt lat="37.101674973964691" lon="-8.692139033228159">
        <ele>40.509999999999998</ele>
        <time>2025-05-07T07:36:25Z</time>
      </trkpt>
      <trkpt lat="37.101647984236479" lon="-8.692097961902618">
        <ele>40.990000000000002</ele>
        <time>2025-05-07T07:36:26Z</time>
      </trkpt>
      <trkpt lat="37.10162996314466" lon="-8.692071978002787">
        <ele>41.469999999999999</ele>
        <time>2025-05-07T07:36:27Z</time>
      </trkpt>
      <trkpt lat="37.10162996314466" lon="-8.692071978002787">
        <ele>41.950000000000003</ele>
        <time>2025-05-07T07:36:32Z</time>
      </trkpt>
      <trkpt lat="37.101566009223461" lon="-8.692068960517645">
        <ele>42.920000000000002</ele>
        <time>2025-05-07T07:36:34Z</time>
      </trkpt>
      <trkpt lat="37.101568020880222" lon="-8.692111037671566">
        <ele>43.399999999999999</ele>
        <time>2025-05-07T07:36:35Z</time>
      </trkpt>
      <trkpt lat="37.101572966203094" lon="-8.692191001027823">
        <ele>43.399999999999999</ele>
        <time>2025-05-07T07:36:36Z</time>
      </trkpt>
      <trkpt lat="37.101579001173377" lon="-8.692295020446181">
        <ele>43.880000000000003</ele>
        <time>2025-05-07T07:36:37Z</time>
      </trkpt>
      <trkpt lat="37.101585958153009" lon="-8.692418988794088">
        <ele>43.880000000000003</ele>
        <time>2025-05-07T07:36:38Z</time>
      </trkpt>
      <trkpt lat="37.10167002864182" lon="-8.693773001432419">
        <ele>48.200000000000003</ele>
        <time>2025-05-07T07:36:46Z</time>
      </trkpt>
      <trkpt lat="37.101678997278214" lon="-8.693932006135583">
        <ele>49.159999999999997</ele>
        <time>2025-05-07T07:36:47Z</time>
      </trkpt>
      <trkpt lat="37.101686960086226" lon="-8.694058991968632">
        <ele>49.649999999999999</ele>
        <time>2025-05-07T07:36:48Z</time>
      </trkpt>
      <trkpt lat="37.101882006973028" lon="-8.694154964759946">
        <ele>50.130000000000003</ele>
        <time>2025-05-07T07:36:49Z</time>
      </trkpt>
      <trkpt lat="37.101929029449821" lon="-8.694213973358274">
        <ele>50.130000000000003</ele>
        <time>2025-05-07T07:36:50Z</time>
      </trkpt>
      <trkpt lat="37.102007986977696" lon="-8.694312963634729">
        <ele>50.609999999999999</ele>
        <time>2025-05-07T07:36:51Z</time>
      </trkpt>
      <trkpt lat="37.102066995576024" lon="-8.694451013579965">
        <ele>51.090000000000003</ele>
        <time>2025-05-07T07:36:52Z</time>
      </trkpt>
      <trkpt lat="37.102064983919263" lon="-8.694587973877788">
        <ele>51.57</ele>
        <time>2025-05-07T07:36:53Z</time>
      </trkpt>
      <trkpt lat="37.102044029161334" lon="-8.694716971367598">
        <ele>52.049999999999997</ele>
        <time>2025-05-07T07:36:54Z</time>
      </trkpt>
      <trkpt lat="37.101996000856161" lon="-8.694837000221014">
        <ele>52.530000000000001</ele>
        <time>2025-05-07T07:36:55Z</time>
      </trkpt>
      <trkpt lat="37.10190799087286" lon="-8.694950994104147">
        <ele>52.530000000000001</ele>
        <time>2025-05-07T07:36:56Z</time>
      </trkpt>
      <trkpt lat="37.101797014474869" lon="-8.69497898966074">
        <ele>53.009999999999998</ele>
        <time>2025-05-07T07:36:57Z</time>
      </trkpt>
      <trkpt lat="37.10169299505651" lon="-8.694989969953895">
        <ele>53.490000000000002</ele>
        <time>2025-05-07T07:36:58Z</time>
      </trkpt>
      <trkpt lat="37.101598028093576" lon="-8.694945964962244">
        <ele>53.969999999999999</ele>
        <time>2025-05-07T07:36:59Z</time>
      </trkpt>
      <trkpt lat="37.101509012281895" lon="-8.694887040182948">
        <ele>53.969999999999999</ele>
        <time>2025-05-07T07:37:00Z</time>
      </trkpt>
      <trkpt lat="37.101447992026806" lon="-8.694785032421351">
        <ele>53.969999999999999</ele>
        <time>2025-05-07T07:37:01Z</time>
      </trkpt>
      <trkpt lat="37.101410022005439" lon="-8.694670032709837">
        <ele>54.450000000000003</ele>
        <time>2025-05-07T07:37:02Z</time>
      </trkpt>
      <trkpt lat="37.101410022005439" lon="-8.69452896527946">
        <ele>54.450000000000003</ele>
        <time>2025-05-07T07:37:03Z</time>
      </trkpt>
      <trkpt lat="37.101425025612116" lon="-8.694393010810018">
        <ele>54.450000000000003</ele>
        <time>2025-05-07T07:37:04Z</time>
      </trkpt>
      <trkpt lat="37.101453021168709" lon="-8.694283962249756">
        <ele>53.969999999999999</ele>
        <time>2025-05-07T07:37:05Z</time>
      </trkpt>
      <trkpt lat="37.101569026708603" lon="-8.694188995286822">
        <ele>53.969999999999999</ele>
        <time>2025-05-07T07:37:06Z</time>
      </trkpt>
      <trkpt lat="37.101682014763355" lon="-8.693979028612375">
        <ele>53.969999999999999</ele>
        <time>2025-05-07T07:37:07Z</time>
      </trkpt>
      <trkpt lat="37.10167296230793" lon="-8.693819018080831">
        <ele>53.490000000000002</ele>
        <time>2025-05-07T07:37:08Z</time>
      </trkpt>
      <trkpt lat="37.101663993671536" lon="-8.693649033084512">
        <ele>53.009999999999998</ele>
        <time>2025-05-07T07:37:09Z</time>
      </trkpt>
      <trkpt lat="37.101547988131642" lon="-8.691651038825512">
        <ele>48.68</ele>
        <time>2025-05-07T07:37:20Z</time>
      </trkpt>
      <trkpt lat="37.101451009511948" lon="-8.690112959593535">
        <ele>47.719999999999999</ele>
        <time>2025-05-07T07:37:30Z</time>
      </trkpt>
      <trkpt lat="37.101249005645514" lon="-8.688300037756562">
        <ele>46.280000000000001</ele>
        <time>2025-05-07T07:37:41Z</time>
      </trkpt>
      <trkpt lat="37.101225033402443" lon="-8.688187971711159">
        <ele>46.759999999999998</ele>
        <time>2025-05-07T07:37:42Z</time>
      </trkpt>
      <trkpt lat="37.10119703784585" lon="-8.688093004748225">
        <ele>46.759999999999998</ele>
        <time>2025-05-07T07:37:43Z</time>
      </trkpt>
      <trkpt lat="37.101163007318974" lon="-8.687999965623021">
        <ele>46.759999999999998</ele>
        <time>2025-05-07T07:37:44Z</time>
      </trkpt>
      <trkpt lat="37.101127970963717" lon="-8.687907010316849">
        <ele>46.759999999999998</ele>
        <time>2025-05-07T07:37:45Z</time>
      </trkpt>
      <trkpt lat="37.101079020649195" lon="-8.687820006161928">
        <ele>47.240000000000002</ele>
        <time>2025-05-07T07:37:46Z</time>
      </trkpt>
      <trkpt lat="37.101060999557376" lon="-8.687711963430047">
        <ele>47.240000000000002</ele>
        <time>2025-05-07T07:37:47Z</time>
      </trkpt>
      <trkpt lat="37.101090000942349" lon="-8.687626970931888">
        <ele>47.240000000000002</ele>
        <time>2025-05-07T07:37:48Z</time>
      </trkpt>
      <trkpt lat="37.101101987063885" lon="-8.687505014240742">
        <ele>47.240000000000002</ele>
        <time>2025-05-07T07:37:49Z</time>
      </trkpt>
      <trkpt lat="37.101078014820814" lon="-8.687298987060785">
        <ele>46.280000000000001</ele>
        <time>2025-05-07T07:37:51Z</time>
      </trkpt>
      <trkpt lat="37.101065022870898" lon="-8.687190022319555">
        <ele>46.280000000000001</ele>
        <time>2025-05-07T07:37:52Z</time>
      </trkpt>
      <trkpt lat="37.100890008732677" lon="-8.685946986079216">
        <ele>44.840000000000003</ele>
        <time>2025-05-07T07:38:01Z</time>
      </trkpt>
      <trkpt lat="37.100834017619491" lon="-8.685630988329649">
        <ele>44.359999999999999</ele>
        <time>2025-05-07T07:38:03Z</time>
      </trkpt>
      <trkpt lat="37.100807027891278" lon="-8.685473995283246">
        <ele>44.359999999999999</ele>
        <time>2025-05-07T07:38:04Z</time>
      </trkpt>
      <trkpt lat="37.100706025958061" lon="-8.684861026704311">
        <ele>46.280000000000001</ele>
        <time>2025-05-07T07:38:08Z</time>
      </trkpt>
      <trkpt lat="37.10068398155272" lon="-8.684719037264586">
        <ele>47.240000000000002</ele>
        <time>2025-05-07T07:38:09Z</time>
      </trkpt>
      <trkpt lat="37.100612986832857" lon="-8.684280999004841">
        <ele>49.649999999999999</ele>
        <time>2025-05-07T07:38:12Z</time>
      </trkpt>
      <trkpt lat="37.100590020418167" lon="-8.684132974594832">
        <ele>50.609999999999999</ele>
        <time>2025-05-07T07:38:13Z</time>
      </trkpt>
      <trkpt lat="37.100419029593468" lon="-8.683156985789537">
        <ele>55.890000000000001</ele>
        <time>2025-05-07T07:38:21Z</time>
      </trkpt>
      <trkpt lat="37.100415006279945" lon="-8.683132007718086">
        <ele>56.369999999999997</ele>
        <time>2025-05-07T07:38:22Z</time>
      </trkpt>
      <trkpt lat="37.100415006279945" lon="-8.683132007718086">
        <ele>56.369999999999997</ele>
        <time>2025-05-07T07:38:34Z</time>
      </trkpt>
      <trkpt lat="37.100412994623184" lon="-8.683124966919422">
        <ele>56.369999999999997</ele>
        <time>2025-05-07T07:38:37Z</time>
      </trkpt>
      <trkpt lat="37.100363960489631" lon="-8.682855991646648">
        <ele>56.859999999999999</ele>
        <time>2025-05-07T07:38:42Z</time>
      </trkpt>
      <trkpt lat="37.100352980196476" lon="-8.682795977219939">
        <ele>56.859999999999999</ele>
        <time>2025-05-07T07:38:43Z</time>
      </trkpt>
      <trkpt lat="37.100343005731702" lon="-8.682737974449992">
        <ele>56.369999999999997</ele>
        <time>2025-05-07T07:38:44Z</time>
      </trkpt>
      <trkpt lat="37.100322972983122" lon="-8.68262599222362">
        <ele>56.369999999999997</ele>
        <time>2025-05-07T07:38:46Z</time>
      </trkpt>
      <trkpt lat="37.100312998518348" lon="-8.682565977796912">
        <ele>55.890000000000001</ele>
        <time>2025-05-07T07:38:47Z</time>
      </trkpt>
      <trkpt lat="37.100305035710335" lon="-8.682520966976881">
        <ele>55.890000000000001</ele>
        <time>2025-05-07T07:38:48Z</time>
      </trkpt>
      <trkpt lat="37.100293971598148" lon="-8.682461036369205">
        <ele>55.409999999999997</ele>
        <time>2025-05-07T07:38:50Z</time>
      </trkpt>
      <trkpt lat="37.100254995748401" lon="-8.682147972285748">
        <ele>52.049999999999997</ele>
        <time>2025-05-07T07:38:59Z</time>
      </trkpt>
      <trkpt lat="37.10010102018714" lon="-8.681839015334845">
        <ele>49.159999999999997</ele>
        <time>2025-05-07T07:39:08Z</time>
      </trkpt>
      <trkpt lat="37.100180983543396" lon="-8.681600969284773">
        <ele>48.68</ele>
        <time>2025-05-07T07:39:09Z</time>
      </trkpt>
      <trkpt lat="37.100149970501661" lon="-8.68148404173553">
        <ele>48.200000000000003</ele>
        <time>2025-05-07T07:39:10Z</time>
      </trkpt>
      <trkpt lat="37.100118035450578" lon="-8.681363007053733">
        <ele>48.200000000000003</ele>
        <time>2025-05-07T07:39:11Z</time>
      </trkpt>
      <trkpt lat="37.100085010752082" lon="-8.681236021220684">
        <ele>48.200000000000003</ele>
        <time>2025-05-07T07:39:12Z</time>
      </trkpt>
      <trkpt lat="37.099817963317037" lon="-8.680337984114885">
        <ele>46.759999999999998</ele>
        <time>2025-05-07T07:39:19Z</time>
      </trkpt>
      <trkpt lat="37.099747974425554" lon="-8.680223990231752">
        <ele>46.759999999999998</ele>
        <time>2025-05-07T07:39:20Z</time>
      </trkpt>
      <trkpt lat="37.099665999412537" lon="-8.680115025490522">
        <ele>46.759999999999998</ele>
        <time>2025-05-07T07:39:21Z</time>
      </trkpt>
      <trkpt lat="37.099584024399519" lon="-8.68000497110188">
        <ele>46.759999999999998</ele>
        <time>2025-05-07T07:39:22Z</time>
      </trkpt>
      <trkpt lat="37.099496014416218" lon="-8.679912015795708">
        <ele>47.240000000000002</ele>
        <time>2025-05-07T07:39:23Z</time>
      </trkpt>
      <trkpt lat="37.099398029968143" lon="-8.67983196862042">
        <ele>47.719999999999999</ele>
        <time>2025-05-07T07:39:24Z</time>
      </trkpt>
      <trkpt lat="37.099299961701035" lon="-8.679752005264163">
        <ele>48.200000000000003</ele>
        <time>2025-05-07T07:39:25Z</time>
      </trkpt>
      <trkpt lat="37.099107010290027" lon="-8.67959400638938">
        <ele>48.68</ele>
        <time>2025-05-07T07:39:27Z</time>
      </trkpt>
      <trkpt lat="37.097968999296427" lon="-8.678846005350351">
        <ele>50.130000000000003</ele>
        <time>2025-05-07T07:39:38Z</time>
      </trkpt>
      <trkpt lat="37.096608029678464" lon="-8.678007982671261">
        <ele>53.969999999999999</ele>
        <time>2025-05-07T07:39:51Z</time>
      </trkpt>
      <trkpt lat="37.095842007547617" lon="-8.677136013284326">
        <ele>52.049999999999997</ele>
        <time>2025-05-07T07:40:00Z</time>
      </trkpt>
      <trkpt lat="37.09572097286582" lon="-8.676894027739763">
        <ele>51.57</ele>
        <time>2025-05-07T07:40:02Z</time>
      </trkpt>
      <trkpt lat="37.095445040613413" lon="-8.675682004541159">
        <ele>53.490000000000002</ele>
        <time>2025-05-07T07:40:11Z</time>
      </trkpt>
      <trkpt lat="37.095445040613413" lon="-8.675572033971548">
        <ele>53.490000000000002</ele>
        <time>2025-05-07T07:40:12Z</time>
      </trkpt>
      <trkpt lat="37.095445040613413" lon="-8.675471032038331">
        <ele>53.490000000000002</ele>
        <time>2025-05-07T07:40:13Z</time>
      </trkpt>
      <trkpt lat="37.095445040613413" lon="-8.67538302205503">
        <ele>53.009999999999998</ele>
        <time>2025-05-07T07:40:14Z</time>
      </trkpt>
      <trkpt lat="37.095445040613413" lon="-8.675309009850025">
        <ele>53.009999999999998</ele>
        <time>2025-05-07T07:40:15Z</time>
      </trkpt>
      <trkpt lat="37.095445040613413" lon="-8.675142964348197">
        <ele>52.049999999999997</ele>
        <time>2025-05-07T07:40:18Z</time>
      </trkpt>
      <trkpt lat="37.095445040613413" lon="-8.675085967406631">
        <ele>52.049999999999997</ele>
        <time>2025-05-07T07:40:19Z</time>
      </trkpt>
      <trkpt lat="37.095336997881532" lon="-8.674994017928839">
        <ele>51.57</ele>
        <time>2025-05-07T07:40:20Z</time>
      </trkpt>
      <trkpt lat="37.095319982618093" lon="-8.674925034865737">
        <ele>51.090000000000003</ele>
        <time>2025-05-07T07:40:22Z</time>
      </trkpt>
      <trkpt lat="37.095303973183036" lon="-8.674858985468745">
        <ele>50.609999999999999</ele>
        <time>2025-05-07T07:40:23Z</time>
      </trkpt>
      <trkpt lat="37.095313025638461" lon="-8.674756977707148">
        <ele>50.609999999999999</ele>
        <time>2025-05-07T07:40:24Z</time>
      </trkpt>
      <trkpt lat="37.09533398039639" lon="-8.674682965502143">
        <ele>50.130000000000003</ele>
        <time>2025-05-07T07:40:25Z</time>
      </trkpt>
      <trkpt lat="37.095336997881532" lon="-8.674671985208988">
        <ele>50.130000000000003</ele>
        <time>2025-05-07T07:40:26Z</time>
      </trkpt>
      <trkpt lat="37.095422996208072" lon="-8.674522032961249">
        <ele>49.649999999999999</ele>
        <time>2025-05-07T07:40:27Z</time>
      </trkpt>
      <trkpt lat="37.095422996208072" lon="-8.674429999664426">
        <ele>49.159999999999997</ele>
        <time>2025-05-07T07:40:28Z</time>
      </trkpt>
      <trkpt lat="37.095422996208072" lon="-8.674328997731209">
        <ele>49.159999999999997</ele>
        <time>2025-05-07T07:40:29Z</time>
      </trkpt>
      <trkpt lat="37.095456020906568" lon="-8.67306299507618">
        <ele>50.130000000000003</ele>
        <time>2025-05-07T07:40:39Z</time>
      </trkpt>
      <trkpt lat="37.095488039776683" lon="-8.671578979119659">
        <ele>48.68</ele>
        <time>2025-05-07T07:40:50Z</time>
      </trkpt>
      <trkpt lat="37.095544030889869" lon="-8.670255979523063">
        <ele>44.840000000000003</ele>
        <time>2025-05-07T07:41:01Z</time>
      </trkpt>
      <trkpt lat="37.095680991187692" lon="-8.669792963191867">
        <ele>42.439999999999998</ele>
        <time>2025-05-07T07:41:06Z</time>
      </trkpt>
      <trkpt lat="37.095762966200709" lon="-8.669602023437619">
        <ele>41.469999999999999</ele>
        <time>2025-05-07T07:41:08Z</time>
      </trkpt>
      <trkpt lat="37.096207039430737" lon="-8.669002968817949">
        <ele>38.109999999999999</ele>
        <time>2025-05-07T07:41:15Z</time>
      </trkpt>
      <trkpt lat="37.096288008615375" lon="-8.668953012675047">
        <ele>37.630000000000003</ele>
        <time>2025-05-07T07:41:16Z</time>
      </trkpt>
      <trkpt lat="37.096367971971631" lon="-8.668903978541493">
        <ele>37.149999999999999</ele>
        <time>2025-05-07T07:41:17Z</time>
      </trkpt>
      <trkpt lat="37.0964490249753" lon="-8.668854022398591">
        <ele>36.189999999999998</ele>
        <time>2025-05-07T07:41:18Z</time>
      </trkpt>
      <trkpt lat="37.096528988331556" lon="-8.668804988265038">
        <ele>35.710000000000001</ele>
        <time>2025-05-07T07:41:19Z</time>
      </trkpt>
      <trkpt lat="37.096667038276792" lon="-8.668719995766878">
        <ele>34.740000000000002</ele>
        <time>2025-05-07T07:41:21Z</time>
      </trkpt>
      <trkpt lat="37.096719006076455" lon="-8.66863701492548">
        <ele>34.259999999999998</ele>
        <time>2025-05-07T07:41:22Z</time>
      </trkpt>
      <trkpt lat="37.096817996352911" lon="-8.668512962758541">
        <ele>32.82</ele>
        <time>2025-05-07T07:41:25Z</time>
      </trkpt>
      <trkpt lat="37.096860995516181" lon="-8.668511034920812">
        <ele>32.340000000000003</ele>
        <time>2025-05-07T07:41:26Z</time>
      </trkpt>
      <trkpt lat="37.096905000507832" lon="-8.668509023264051">
        <ele>31.859999999999999</ele>
        <time>2025-05-07T07:41:27Z</time>
      </trkpt>
      <trkpt lat="37.096949005499482" lon="-8.668507011607289">
        <ele>31.379999999999999</ele>
        <time>2025-05-07T07:41:28Z</time>
      </trkpt>
      <trkpt lat="37.096989993005991" lon="-8.668504999950528">
        <ele>30.899999999999999</ele>
        <time>2025-05-07T07:41:29Z</time>
      </trkpt>
      <trkpt lat="37.097176993265748" lon="-8.668496031314135">
        <ele>28.02</ele>
        <time>2025-05-07T07:41:35Z</time>
      </trkpt>
      <trkpt lat="37.097196020185947" lon="-8.668495025485754">
        <ele>28.02</ele>
        <time>2025-05-07T07:41:36Z</time>
      </trkpt>
      <trkpt lat="37.097214041277766" lon="-8.668495025485754">
        <ele>27.530000000000001</ele>
        <time>2025-05-07T07:41:37Z</time>
      </trkpt>
      <trkpt lat="37.097228961065412" lon="-8.668494019657373">
        <ele>27.050000000000001</ele>
        <time>2025-05-07T07:41:51Z</time>
      </trkpt>
      <trkpt lat="37.097269026562572" lon="-8.668492008000612">
        <ele>26.09</ele>
        <time>2025-05-07T07:42:23Z</time>
      </trkpt>
      <trkpt lat="37.0973090082407" lon="-8.668523021042347">
        <ele>25.609999999999999</ele>
        <time>2025-05-07T07:42:24Z</time>
      </trkpt>
      <trkpt lat="37.097329962998629" lon="-8.668540036305785">
        <ele>25.129999999999999</ele>
        <time>2025-05-07T07:42:25Z</time>
      </trkpt>
      <trkpt lat="37.097349995747209" lon="-8.668555039912462">
        <ele>25.129999999999999</ele>
        <time>2025-05-07T07:42:26Z</time>
      </trkpt>
      <trkpt lat="37.097370028495789" lon="-8.668569959700108">
        <ele>24.649999999999999</ele>
        <time>2025-05-07T07:42:27Z</time>
      </trkpt>
      <trkpt lat="37.097387965768576" lon="-8.668584963306785">
        <ele>24.170000000000002</ele>
        <time>2025-05-07T07:42:28Z</time>
      </trkpt>
      <trkpt lat="37.09739601239562" lon="-8.668590998277068">
        <ele>24.170000000000002</ele>
        <time>2025-05-07T07:42:31Z</time>
      </trkpt>
      <trkpt lat="37.097416967153549" lon="-8.668608013540506">
        <ele>23.690000000000001</ele>
        <time>2025-05-07T07:42:32Z</time>
      </trkpt>
      <trkpt lat="37.097462983801961" lon="-8.668641960248351">
        <ele>23.210000000000001</ele>
        <time>2025-05-07T07:42:33Z</time>
      </trkpt>
      <trkpt lat="37.09752500988543" lon="-8.668646989390254">
        <ele>22.73</ele>
        <time>2025-05-07T07:42:34Z</time>
      </trkpt>
      <trkpt lat="37.097597010433674" lon="-8.668653024360538">
        <ele>22.25</ele>
        <time>2025-05-07T07:42:35Z</time>
      </trkpt>
      <trkpt lat="37.09767404012382" lon="-8.668658975511789">
        <ele>22.25</ele>
        <time>2025-05-07T07:42:36Z</time>
      </trkpt>
      <trkpt lat="37.098408965393901" lon="-8.668718989938498">
        <ele>17.440000000000001</ele>
        <time>2025-05-07T07:42:48Z</time>
      </trkpt>
      <trkpt lat="37.098464034497738" lon="-8.668724019080401">
        <ele>16.960000000000001</ele>
        <time>2025-05-07T07:42:49Z</time>
      </trkpt>
      <trkpt lat="37.098522959277034" lon="-8.668728964403272">
        <ele>16.960000000000001</ele>
        <time>2025-05-07T07:42:50Z</time>
      </trkpt>
      <trkpt lat="37.098581967875361" lon="-8.668732987716794">
        <ele>16.48</ele>
        <time>2025-05-07T07:42:51Z</time>
      </trkpt>
      <trkpt lat="37.098633013665676" lon="-8.668737011030316">
        <ele>16.48</ele>
        <time>2025-05-07T07:42:52Z</time>
      </trkpt>
      <trkpt lat="37.098672995343804" lon="-8.668740028515458">
        <ele>16</ele>
        <time>2025-05-07T07:42:53Z</time>
      </trkpt>
      <trkpt lat="37.098703002557158" lon="-8.668742962181568">
        <ele>16</ele>
        <time>2025-05-07T07:42:54Z</time>
      </trkpt>
      <trkpt lat="37.098723035305738" lon="-8.668743968009949">
        <ele>15.52</ele>
        <time>2025-05-07T07:42:55Z</time>
      </trkpt>
      <trkpt lat="37.098733009770513" lon="-8.668744973838329">
        <ele>15.039999999999999</ele>
        <time>2025-05-07T07:42:56Z</time>
      </trkpt>
      <trkpt lat="37.098652962595224" lon="-8.668837007135153">
        <ele>13.119999999999999</ele>
        <time>2025-05-07T07:43:04Z</time>
      </trkpt>
      <trkpt lat="37.098631002008915" lon="-8.668935997411609">
        <ele>18.399999999999999</ele>
        <time>2025-05-07T08:27:22Z</time>
      </trkpt>
      <trkpt lat="37.098623961210251" lon="-8.668914036825299">
        <ele>14.56</ele>
        <time>2025-05-07T08:28:03Z</time>
      </trkpt>
      <trkpt lat="37.098643993958831" lon="-8.668888974934816">
        <ele>14.08</ele>
        <time>2025-05-07T08:28:34Z</time>
      </trkpt>
      <trkpt lat="37.098704008385539" lon="-8.668877994641662">
        <ele>13.6</ele>
        <time>2025-05-07T08:28:56Z</time>
      </trkpt>
      <trkpt lat="37.098699985072017" lon="-8.668862991034985">
        <ele>13.6</ele>
        <time>2025-05-07T08:28:57Z</time>
      </trkpt>
      <trkpt lat="37.098709037527442" lon="-8.668768024072051">
        <ele>12.15</ele>
        <time>2025-05-07T08:29:10Z</time>
      </trkpt>
      <trkpt lat="37.098722029477358" lon="-8.668743968009949">
        <ele>12.15</ele>
        <time>2025-05-07T08:29:11Z</time>
      </trkpt>
      <trkpt lat="37.098752036690712" lon="-8.66874597966671">
        <ele>12.15</ele>
        <time>2025-05-07T08:29:12Z</time>
      </trkpt>
      <trkpt lat="37.098802998661995" lon="-8.668753020465374">
        <ele>11.67</ele>
        <time>2025-05-07T08:29:13Z</time>
      </trkpt>
      <trkpt lat="37.098868964239955" lon="-8.668771963566542">
        <ele>11.67</ele>
        <time>2025-05-07T08:29:14Z</time>
      </trkpt>
      <trkpt lat="37.098940964788198" lon="-8.668794007971883">
        <ele>11.19</ele>
        <time>2025-05-07T08:29:15Z</time>
      </trkpt>
      <trkpt lat="37.099097035825253" lon="-8.668841030448675">
        <ele>10.23</ele>
        <time>2025-05-07T08:29:17Z</time>
      </trkpt>
      <trkpt lat="37.099878983572125" lon="-8.669191980734468">
        <ele>8.310000000000001</ele>
        <time>2025-05-07T08:29:26Z</time>
      </trkpt>
      <trkpt lat="37.099979985505342" lon="-8.669254006817937">
        <ele>8.789999999999999</ele>
        <time>2025-05-07T08:29:27Z</time>
      </trkpt>
      <trkpt lat="37.100082999095321" lon="-8.669317960739136">
        <ele>9.27</ele>
        <time>2025-05-07T08:29:28Z</time>
      </trkpt>
      <trkpt lat="37.100731004029512" lon="-8.669895976781845">
        <ele>9.27</ele>
        <time>2025-05-07T08:29:37Z</time>
      </trkpt>
      <trkpt lat="37.100808033719659" lon="-8.669979041442275">
        <ele>9.27</ele>
        <time>2025-05-07T08:29:39Z</time>
      </trkpt>
      <trkpt lat="37.100843992084265" lon="-8.670019023120403">
        <ele>9.27</ele>
        <time>2025-05-07T08:29:40Z</time>
      </trkpt>
      <trkpt lat="37.100884979590774" lon="-8.670063028112054">
        <ele>9.75</ele>
        <time>2025-05-07T08:29:41Z</time>
      </trkpt>
      <trkpt lat="37.100936025381088" lon="-8.670118013396859">
        <ele>9.75</ele>
        <time>2025-05-07T08:29:42Z</time>
      </trkpt>
      <trkpt lat="37.100996961817145" lon="-8.670181967318058">
        <ele>10.23</ele>
        <time>2025-05-07T08:29:43Z</time>
      </trkpt>
      <trkpt lat="37.101441035047174" lon="-8.670611958950758">
        <ele>11.67</ele>
        <time>2025-05-07T08:29:51Z</time>
      </trkpt>
      <trkpt lat="37.101530972868204" lon="-8.670697035267949">
        <ele>11.67</ele>
        <time>2025-05-07T08:29:54Z</time>
      </trkpt>
      <trkpt lat="37.102003963664174" lon="-8.671120991930366">
        <ele>11.19</ele>
        <time>2025-05-07T08:30:02Z</time>
      </trkpt>
      <trkpt lat="37.102834023535252" lon="-8.671789029613137">
        <ele>6.87</ele>
        <time>2025-05-07T08:30:12Z</time>
      </trkpt>
      <trkpt lat="37.103426037356257" lon="-8.672224972397089">
        <ele>4.94</ele>
        <time>2025-05-07T08:30:20Z</time>
      </trkpt>
      <trkpt lat="37.103993995115161" lon="-8.672597967088223">
        <ele>5.42</ele>
        <time>2025-05-07T08:30:29Z</time>
      </trkpt>
      <trkpt lat="37.104085022583604" lon="-8.672665022313595">
        <ele>5.91</ele>
        <time>2025-05-07T08:30:31Z</time>
      </trkpt>
      <trkpt lat="37.104131039232016" lon="-8.67269997484982">
        <ele>5.91</ele>
        <time>2025-05-07T08:30:32Z</time>
      </trkpt>
      <trkpt lat="37.104180995374918" lon="-8.672735011205077">
        <ele>6.39</ele>
        <time>2025-05-07T08:30:33Z</time>
      </trkpt>
      <trkpt lat="37.104324996471405" lon="-8.672831989824772">
        <ele>6.39</ele>
        <time>2025-05-07T08:30:36Z</time>
      </trkpt>
      <trkpt lat="37.104481989517808" lon="-8.673008009791374">
        <ele>5.91</ele>
        <time>2025-05-07T08:30:39Z</time>
      </trkpt>
      <trkpt lat="37.104547033086419" lon="-8.673051008954644">
        <ele>5.42</ele>
        <time>2025-05-07T08:30:40Z</time>
      </trkpt>
      <trkpt lat="37.105100993067026" lon="-8.673433978110552">
        <ele>3.98</ele>
        <time>2025-05-07T08:30:49Z</time>
      </trkpt>
      <trkpt lat="37.105811024084687" lon="-8.673908980563283">
        <ele>2.06</ele>
        <time>2025-05-07T08:31:00Z</time>
      </trkpt>
      <trkpt lat="37.106543015688658" lon="-8.674434022977948">
        <ele>-0.82</ele>
        <time>2025-05-07T08:31:10Z</time>
      </trkpt>
      <trkpt lat="37.107626041397452" lon="-8.675176994875073">
        <ele>-0.82</ele>
        <time>2025-05-07T08:31:23Z</time>
      </trkpt>
      <trkpt lat="37.108689034357667" lon="-8.675918038934469">
        <ele>1.1</ele>
        <time>2025-05-07T08:31:36Z</time>
      </trkpt>
      <trkpt lat="37.109403004869819" lon="-8.67643503472209">
        <ele>0.62</ele>
        <time>2025-05-07T08:31:48Z</time>
      </trkpt>
      <trkpt lat="37.10970701649785" lon="-8.676637038588524">
        <ele>-1.3</ele>
        <time>2025-05-07T08:31:56Z</time>
      </trkpt>
      <trkpt lat="37.109995018690825" lon="-8.676857985556126">
        <ele>-2.75</ele>
        <time>2025-05-07T08:32:00Z</time>
      </trkpt>
      <trkpt lat="37.11026499979198" lon="-8.677137019112706">
        <ele>-1.79</ele>
        <time>2025-05-07T08:32:04Z</time>
      </trkpt>
      <trkpt lat="37.110298024490476" lon="-8.677181024104357">
        <ele>-1.3</ele>
        <time>2025-05-07T08:32:05Z</time>
      </trkpt>
      <trkpt lat="37.110384022817016" lon="-8.67729501798749">
        <ele>1.1</ele>
        <time>2025-05-07T08:32:14Z</time>
      </trkpt>
      <trkpt lat="37.110439008101821" lon="-8.677348997443914">
        <ele>2.54</ele>
        <time>2025-05-07T08:32:16Z</time>
      </trkpt>
      <trkpt lat="37.110577980056405" lon="-8.677371963858604">
        <ele>2.54</ele>
        <time>2025-05-07T08:32:17Z</time>
      </trkpt>
      <trkpt lat="37.110634976997972" lon="-8.677332988008857">
        <ele>3.02</ele>
        <time>2025-05-07T08:32:18Z</time>
      </trkpt>
      <trkpt lat="37.110699014738202" lon="-8.677290994673967">
        <ele>3.5</ele>
        <time>2025-05-07T08:32:19Z</time>
      </trkpt>
      <trkpt lat="37.11076196283102" lon="-8.677249001339078">
        <ele>3.98</ele>
        <time>2025-05-07T08:32:20Z</time>
      </trkpt>
      <trkpt lat="37.110820971429348" lon="-8.67720901966095">
        <ele>3.98</ele>
        <time>2025-05-07T08:32:21Z</time>
      </trkpt>
      <trkpt lat="37.110874028876424" lon="-8.677173983305693">
        <ele>4.46</ele>
        <time>2025-05-07T08:32:22Z</time>
      </trkpt>
      <trkpt lat="37.110927002504468" lon="-8.677140958607197">
        <ele>4.94</ele>
        <time>2025-05-07T08:32:23Z</time>
      </trkpt>
      <trkpt lat="37.111625969409943" lon="-8.676723958924413">
        <ele>7.83</ele>
        <time>2025-05-07T08:32:33Z</time>
      </trkpt>
      <trkpt lat="37.111892011016607" lon="-8.676565960049629">
        <ele>8.310000000000001</ele>
        <time>2025-05-07T08:32:38Z</time>
      </trkpt>
      <trkpt lat="37.112074987962842" lon="-8.676455989480019">
        <ele>8.310000000000001</ele>
        <time>2025-05-07T08:32:45Z</time>
      </trkpt>
      <trkpt lat="37.112113041803241" lon="-8.676434028893709">
        <ele>8.310000000000001</ele>
        <time>2025-05-07T08:32:46Z</time>
      </trkpt>
      <trkpt lat="37.112267017364502" lon="-8.676341995596886">
        <ele>8.310000000000001</ele>
        <time>2025-05-07T08:32:50Z</time>
      </trkpt>
      <trkpt lat="37.112310016527772" lon="-8.676317017525435">
        <ele>8.310000000000001</ele>
        <time>2025-05-07T08:32:51Z</time>
      </trkpt>
      <trkpt lat="37.112883003428578" lon="-8.676016023382545">
        <ele>7.35</ele>
        <time>2025-05-07T08:33:01Z</time>
      </trkpt>
      <trkpt lat="37.113435035571456" lon="-8.675572033971548">
        <ele>7.35</ele>
        <time>2025-05-07T08:33:12Z</time>
      </trkpt>
      <trkpt lat="37.113516004756093" lon="-8.675541020929813">
        <ele>7.35</ele>
        <time>2025-05-07T08:33:13Z</time>
      </trkpt>
      <trkpt lat="37.113582976162434" lon="-8.675570022314787">
        <ele>6.87</ele>
        <time>2025-05-07T08:33:14Z</time>
      </trkpt>
      <trkpt lat="37.113640978932381" lon="-8.675593994557858">
        <ele>6.39</ele>
        <time>2025-05-07T08:33:15Z</time>
      </trkpt>
      <trkpt lat="37.113699987530708" lon="-8.675801027566195">
        <ele>6.39</ele>
        <time>2025-05-07T08:33:16Z</time>
      </trkpt>
      <trkpt lat="37.113777017220855" lon="-8.675818964838982">
        <ele>6.39</ele>
        <time>2025-05-07T08:33:17Z</time>
      </trkpt>
      <trkpt lat="37.114012967795134" lon="-8.675875039771199">
        <ele>5.42</ele>
        <time>2025-05-07T08:33:20Z</time>
      </trkpt>
      <trkpt lat="37.114083962514997" lon="-8.675892977043986">
        <ele>5.42</ele>
        <time>2025-05-07T08:33:21Z</time>
      </trkpt>
      <trkpt lat="37.114135008305311" lon="-8.675902029499412">
        <ele>4.94</ele>
        <time>2025-05-07T08:33:22Z</time>
      </trkpt>
      <trkpt lat="37.114164009690285" lon="-8.675905968993902">
        <ele>4.94</ele>
        <time>2025-05-07T08:33:23Z</time>
      </trkpt>
      <trkpt lat="37.114182030782104" lon="-8.675908986479044">
        <ele>4.46</ele>
        <time>2025-05-07T08:33:24Z</time>
      </trkpt>
      <trkpt lat="37.114194016903639" lon="-8.675910998135805">
        <ele>4.46</ele>
        <time>2025-05-07T08:33:25Z</time>
      </trkpt>
      <trkpt lat="37.114285966381431" lon="-8.675924995914102">
        <ele>4.46</ele>
        <time>2025-05-07T08:33:31Z</time>
      </trkpt>
      <trkpt lat="37.114342041313648" lon="-8.675932958722115">
        <ele>4.46</ele>
        <time>2025-05-07T08:33:32Z</time>
      </trkpt>
      <trkpt lat="37.114630965515971" lon="-8.675885014235973">
        <ele>4.46</ele>
        <time>2025-05-07T08:33:36Z</time>
      </trkpt>
      <trkpt lat="37.114730961620808" lon="-8.675862969830632">
        <ele>3.98</ele>
        <time>2025-05-07T08:33:37Z</time>
      </trkpt>
      <trkpt lat="37.114826012402773" lon="-8.675803039222956">
        <ele>4.46</ele>
        <time>2025-05-07T08:33:38Z</time>
      </trkpt>
      <trkpt lat="37.114930031821132" lon="-8.675737995654345">
        <ele>4.46</ele>
        <time>2025-05-07T08:33:39Z</time>
      </trkpt>
      <trkpt lat="37.11503597907722" lon="-8.675672030076385">
        <ele>4.94</ele>
        <time>2025-05-07T08:33:40Z</time>
      </trkpt>
      <trkpt lat="37.115123989060521" lon="-8.675562981516123">
        <ele>4.94</ele>
        <time>2025-05-07T08:33:41Z</time>
      </trkpt>
      <trkpt lat="37.115203030407429" lon="-8.675449993461371">
        <ele>5.42</ele>
        <time>2025-05-07T08:33:42Z</time>
      </trkpt>
      <trkpt lat="37.116090003401041" lon="-8.674220032989979">
        <ele>7.35</ele>
        <time>2025-05-07T08:33:52Z</time>
      </trkpt>
      <trkpt lat="37.117175040766597" lon="-8.673426015302539">
        <ele>7.83</ele>
        <time>2025-05-07T08:33:59Z</time>
      </trkpt>
      <trkpt lat="37.11815002374351" lon="-8.673226023092866">
        <ele>7.83</ele>
        <time>2025-05-07T08:34:05Z</time>
      </trkpt>
      <trkpt lat="37.119042025879025" lon="-8.673189980909228">
        <ele>8.310000000000001</ele>
        <time>2025-05-07T08:34:13Z</time>
      </trkpt>
      <trkpt lat="37.120631989091635" lon="-8.673134995624423">
        <ele>6.87</ele>
        <time>2025-05-07T08:34:26Z</time>
      </trkpt>
      <trkpt lat="37.122713970020413" lon="-8.67308403365314">
        <ele>6.39</ele>
        <time>2025-05-07T08:34:40Z</time>
      </trkpt>
      <trkpt lat="37.124280966818333" lon="-8.672799970954657">
        <ele>10.23</ele>
        <time>2025-05-07T08:34:51Z</time>
      </trkpt>
      <trkpt lat="37.125010024756193" lon="-8.672532001510263">
        <ele>10.710000000000001</ele>
        <time>2025-05-07T08:34:59Z</time>
      </trkpt>
      <trkpt lat="37.12506802752614" lon="-8.672507023438811">
        <ele>10.23</ele>
        <time>2025-05-07T08:35:00Z</time>
      </trkpt>
      <trkpt lat="37.125122006982565" lon="-8.672481961548328">
        <ele>10.23</ele>
        <time>2025-05-07T08:35:01Z</time>
      </trkpt>
      <trkpt lat="37.125244969502091" lon="-8.672399986535311">
        <ele>10.23</ele>
        <time>2025-05-07T08:35:03Z</time>
      </trkpt>
      <trkpt lat="37.125395005568862" lon="-8.672299990430474">
        <ele>10.23</ele>
        <time>2025-05-07T08:35:05Z</time>
      </trkpt>
      <trkpt lat="37.125486033037305" lon="-8.672238970175386">
        <ele>10.23</ele>
        <time>2025-05-07T08:35:06Z</time>
      </trkpt>
      <trkpt lat="37.126416005194187" lon="-8.671616027131677">
        <ele>10.710000000000001</ele>
        <time>2025-05-07T08:35:14Z</time>
      </trkpt>
      <trkpt lat="37.127351006492972" lon="-8.670988976955414">
        <ele>11.19</ele>
        <time>2025-05-07T08:35:23Z</time>
      </trkpt>
      <trkpt lat="37.128483988344669" lon="-8.670196970924735">
        <ele>14.56</ele>
        <time>2025-05-07T08:35:34Z</time>
      </trkpt>
      <trkpt lat="37.129806987941265" lon="-8.669001962989569">
        <ele>21.289999999999999</ele>
        <time>2025-05-07T08:35:45Z</time>
      </trkpt>
      <trkpt lat="37.130908034741879" lon="-8.667793041095138">
        <ele>27.050000000000001</ele>
        <time>2025-05-07T08:35:56Z</time>
      </trkpt>
      <trkpt lat="37.131573976948857" lon="-8.667020983994007">
        <ele>28.98</ele>
        <time>2025-05-07T08:36:07Z</time>
      </trkpt>
      <trkpt lat="37.131761983036995" lon="-8.666754020377994">
        <ele>29.460000000000001</ele>
        <time>2025-05-07T08:36:16Z</time>
      </trkpt>
      <trkpt lat="37.131810011342168" lon="-8.66648999042809">
        <ele>29.460000000000001</ele>
        <time>2025-05-07T08:36:21Z</time>
      </trkpt>
      <trkpt lat="37.131846975535154" lon="-8.666418995708227">
        <ele>28.98</ele>
        <time>2025-05-07T08:36:22Z</time>
      </trkpt>
      <trkpt lat="37.131906989961863" lon="-8.666393011808395">
        <ele>28.98</ele>
        <time>2025-05-07T08:36:23Z</time>
      </trkpt>
      <trkpt lat="37.13196599856019" lon="-8.666368033736944">
        <ele>29.460000000000001</ele>
        <time>2025-05-07T08:36:24Z</time>
      </trkpt>
      <trkpt lat="37.13196599856019" lon="-8.666368033736944">
        <ele>28.98</ele>
        <time>2025-05-07T08:36:25Z</time>
      </trkpt>
      <trkpt lat="37.132186023518443" lon="-8.666395023465157">
        <ele>28.98</ele>
        <time>2025-05-07T08:36:26Z</time>
      </trkpt>
      <trkpt lat="37.13224402628839" lon="-8.666327968239784">
        <ele>28.98</ele>
        <time>2025-05-07T08:36:27Z</time>
      </trkpt>
      <trkpt lat="37.132317032665014" lon="-8.666243981570005">
        <ele>28.98</ele>
        <time>2025-05-07T08:36:28Z</time>
      </trkpt>
      <trkpt lat="37.132398001849651" lon="-8.666148008778691">
        <ele>28.98</ele>
        <time>2025-05-07T08:36:29Z</time>
      </trkpt>
      <trkpt lat="37.133272988721728" lon="-8.665161039680243">
        <ele>29.460000000000001</ele>
        <time>2025-05-07T08:36:37Z</time>
      </trkpt>
      <trkpt lat="37.134535973891616" lon="-8.66406200453639">
        <ele>29.460000000000001</ele>
        <time>2025-05-07T08:36:46Z</time>
      </trkpt>
      <trkpt lat="37.135221026837826" lon="-8.663707030937076">
        <ele>29.460000000000001</ele>
        <time>2025-05-07T08:36:52Z</time>
      </trkpt>
      <trkpt lat="37.136460039764643" lon="-8.663415005430579">
        <ele>28.02</ele>
        <time>2025-05-07T08:37:02Z</time>
      </trkpt>
      <trkpt lat="37.137672984972596" lon="-8.663230016827583">
        <ele>26.09</ele>
        <time>2025-05-07T08:37:10Z</time>
      </trkpt>
      <trkpt lat="37.13894996792078" lon="-8.663092972710729">
        <ele>26.09</ele>
        <time>2025-05-07T08:37:21Z</time>
      </trkpt>
      <trkpt lat="37.139047030359507" lon="-8.663081992417574">
        <ele>25.609999999999999</ele>
        <time>2025-05-07T08:37:22Z</time>
      </trkpt>
      <trkpt lat="37.139135040342808" lon="-8.663071012124419">
        <ele>25.609999999999999</ele>
        <time>2025-05-07T08:37:23Z</time>
      </trkpt>
      <trkpt lat="37.139362022280693" lon="-8.662740010768175">
        <ele>25.129999999999999</ele>
        <time>2025-05-07T08:37:26Z</time>
      </trkpt>
      <trkpt lat="37.139437962323427" lon="-8.662705980241299">
        <ele>25.129999999999999</ele>
        <time>2025-05-07T08:37:27Z</time>
      </trkpt>
      <trkpt lat="37.139522032812238" lon="-8.662724001333118">
        <ele>25.129999999999999</ele>
        <time>2025-05-07T08:37:28Z</time>
      </trkpt>
      <trkpt lat="37.139589004218578" lon="-8.662748979404569">
        <ele>25.129999999999999</ele>
        <time>2025-05-07T08:37:29Z</time>
      </trkpt>
      <trkpt lat="37.139625968411565" lon="-8.662762977182865">
        <ele>25.129999999999999</ele>
        <time>2025-05-07T08:37:30Z</time>
      </trkpt>
      <trkpt lat="37.139625968411565" lon="-8.662762977182865">
        <ele>25.129999999999999</ele>
        <time>2025-05-07T08:37:31Z</time>
      </trkpt>
      <trkpt lat="37.139881029725075" lon="-8.662928016856313">
        <ele>25.129999999999999</ele>
        <time>2025-05-07T08:37:33Z</time>
      </trkpt>
      <trkpt lat="37.139971973374486" lon="-8.662912007421255">
        <ele>24.649999999999999</ele>
        <time>2025-05-07T08:37:34Z</time>
      </trkpt>
      <trkpt lat="37.140068029984832" lon="-8.662889963015914">
        <ele>24.649999999999999</ele>
        <time>2025-05-07T08:37:35Z</time>
      </trkpt>
      <trkpt lat="37.141272006556392" lon="-8.662571031600237">
        <ele>23.690000000000001</ele>
        <time>2025-05-07T08:37:45Z</time>
      </trkpt>
      <trkpt lat="37.143225995823741" lon="-8.661984968930483">
        <ele>22.73</ele>
        <time>2025-05-07T08:37:59Z</time>
      </trkpt>
      <trkpt lat="37.144634993746877" lon="-8.661322966217995">
        <ele>21.77</ele>
        <time>2025-05-07T08:38:09Z</time>
      </trkpt>
      <trkpt lat="37.14560997672379" lon="-8.660784009844065">
        <ele>22.25</ele>
        <time>2025-05-07T08:38:18Z</time>
      </trkpt>
      <trkpt lat="37.146398965269327" lon="-8.66021596826613">
        <ele>23.210000000000001</ele>
        <time>2025-05-07T08:38:26Z</time>
      </trkpt>
      <trkpt lat="37.147217039018869" lon="-8.659443994984031">
        <ele>25.129999999999999</ele>
        <time>2025-05-07T08:38:36Z</time>
      </trkpt>
      <trkpt lat="37.147366991266608" lon="-8.659300999715924">
        <ele>25.129999999999999</ele>
        <time>2025-05-07T08:38:38Z</time>
      </trkpt>
      <trkpt lat="37.148119015619159" lon="-8.658546041697264">
        <ele>23.690000000000001</ele>
        <time>2025-05-07T08:38:49Z</time>
      </trkpt>
      <trkpt lat="37.14825002476573" lon="-8.65838997066021">
        <ele>23.210000000000001</ele>
        <time>2025-05-07T08:38:51Z</time>
      </trkpt>
      <trkpt lat="37.148366030305624" lon="-8.658219985663891">
        <ele>22.25</ele>
        <time>2025-05-07T08:38:53Z</time>
      </trkpt>
      <trkpt lat="37.148760985583067" lon="-8.657581033185124">
        <ele>19.84</ele>
        <time>2025-05-07T08:39:02Z</time>
      </trkpt>
      <trkpt lat="37.148784035816789" lon="-8.657540967687964">
        <ele>19.84</ele>
        <time>2025-05-07T08:39:03Z</time>
      </trkpt>
      <trkpt lat="37.148893000558019" lon="-8.657312979921699">
        <ele>19.359999999999999</ele>
        <time>2025-05-07T08:39:14Z</time>
      </trkpt>
      <trkpt lat="37.148975981399417" lon="-8.657111981883645">
        <ele>19.359999999999999</ele>
        <time>2025-05-07T08:39:26Z</time>
      </trkpt>
      <trkpt lat="37.149155018851161" lon="-8.65662700496614">
        <ele>19.359999999999999</ele>
        <time>2025-05-07T08:39:34Z</time>
      </trkpt>
      <trkpt lat="37.14919600635767" lon="-8.656503036618233">
        <ele>19.359999999999999</ele>
        <time>2025-05-07T08:39:36Z</time>
      </trkpt>
      <trkpt lat="37.149311006069183" lon="-8.656189972534776">
        <ele>19.84</ele>
        <time>2025-05-07T08:39:41Z</time>
      </trkpt>
      <trkpt lat="37.149342019110918" lon="-8.656105985864997">
        <ele>19.84</ele>
        <time>2025-05-07T08:39:42Z</time>
      </trkpt>
      <trkpt lat="37.14969196356833" lon="-8.655148018151522">
        <ele>20.809999999999999</ele>
        <time>2025-05-07T08:39:52Z</time>
      </trkpt>
      <trkpt lat="37.150171995162964" lon="-8.653573980554938">
        <ele>16.960000000000001</ele>
        <time>2025-05-07T08:40:05Z</time>
      </trkpt>
      <trkpt lat="37.150773983448744" lon="-8.651561988517642">
        <ele>12.15</ele>
        <time>2025-05-07T08:40:20Z</time>
      </trkpt>
      <trkpt lat="37.151336995884776" lon="-8.650219039991498">
        <ele>8.310000000000001</ele>
        <time>2025-05-07T08:40:30Z</time>
      </trkpt>
      <trkpt lat="37.152209971100092" lon="-8.648876007646322">
        <ele>4.94</ele>
        <time>2025-05-07T08:40:38Z</time>
      </trkpt>
      <trkpt lat="37.153621986508369" lon="-8.646757984533906">
        <ele>5.42</ele>
        <time>2025-05-07T08:40:50Z</time>
      </trkpt>
      <trkpt lat="37.155181020498276" lon="-8.644495038315654">
        <ele>7.35</ele>
        <time>2025-05-07T08:41:04Z</time>
      </trkpt>
      <trkpt lat="37.15688900090754" lon="-8.641711995005608">
        <ele>7.83</ele>
        <time>2025-05-07T08:41:19Z</time>
      </trkpt>
      <trkpt lat="37.157650999724865" lon="-8.639743002131581">
        <ele>6.87</ele>
        <time>2025-05-07T08:41:29Z</time>
      </trkpt>
      <trkpt lat="37.158236978575587" lon="-8.637396991252899">
        <ele>5.42</ele>
        <time>2025-05-07T08:41:41Z</time>
      </trkpt>
      <trkpt lat="37.158726984634995" lon="-8.634870015084744">
        <ele>4.94</ele>
        <time>2025-05-07T08:41:55Z</time>
      </trkpt>
      <trkpt lat="37.158697983250022" lon="-8.633470991626382">
        <ele>4.46</ele>
        <time>2025-05-07T08:42:04Z</time>
      </trkpt>
      <trkpt lat="37.158630006015301" lon="-8.632949972525239">
        <ele>4.94</ele>
        <time>2025-05-07T08:42:08Z</time>
      </trkpt>
      <trkpt lat="37.158577032387257" lon="-8.632829021662474">
        <ele>4.94</ele>
        <time>2025-05-07T08:42:09Z</time>
      </trkpt>
      <trkpt lat="37.158530009910464" lon="-8.632721984758973">
        <ele>4.94</ele>
        <time>2025-05-07T08:42:10Z</time>
      </trkpt>
      <trkpt lat="37.158337980508804" lon="-8.632516963407397">
        <ele>4.94</ele>
        <time>2025-05-07T08:42:12Z</time>
      </trkpt>
      <trkpt lat="37.15830797329545" lon="-8.632375979796052">
        <ele>4.94</ele>
        <time>2025-05-07T08:42:13Z</time>
      </trkpt>
      <trkpt lat="37.158297998830676" lon="-8.632257962599397">
        <ele>5.42</ele>
        <time>2025-05-07T08:42:14Z</time>
      </trkpt>
      <trkpt lat="37.158344015479088" lon="-8.632124019786716">
        <ele>5.42</ele>
        <time>2025-05-07T08:42:15Z</time>
      </trkpt>
      <trkpt lat="37.158402018249035" lon="-8.632027041167021">
        <ele>5.91</ele>
        <time>2025-05-07T08:42:16Z</time>
      </trkpt>
      <trkpt lat="37.15850000269711" lon="-8.631967026740313">
        <ele>5.91</ele>
        <time>2025-05-07T08:42:17Z</time>
      </trkpt>
      <trkpt lat="37.158589018508792" lon="-8.631937019526959">
        <ele>6.39</ele>
        <time>2025-05-07T08:42:18Z</time>
      </trkpt>
      <trkpt lat="37.158687002956867" lon="-8.631947999820113">
        <ele>6.39</ele>
        <time>2025-05-07T08:42:19Z</time>
      </trkpt>
      <trkpt lat="37.158785993233323" lon="-8.631994016468525">
        <ele>6.39</ele>
        <time>2025-05-07T08:42:20Z</time>
      </trkpt>
      <trkpt lat="37.15886402875185" lon="-8.632084960117936">
        <ele>6.39</ele>
        <time>2025-05-07T08:42:21Z</time>
      </trkpt>
      <trkpt lat="37.158895041793585" lon="-8.632121002301574">
        <ele>6.87</ele>
        <time>2025-05-07T08:42:22Z</time>
      </trkpt>
      <trkpt lat="37.159042982384562" lon="-8.632364999502897">
        <ele>6.87</ele>
        <time>2025-05-07T08:42:23Z</time>
      </trkpt>
      <trkpt lat="37.159155970439315" lon="-8.63237296231091">
        <ele>6.87</ele>
        <time>2025-05-07T08:42:24Z</time>
      </trkpt>
      <trkpt lat="37.159284967929125" lon="-8.63236902281642">
        <ele>6.39</ele>
        <time>2025-05-07T08:42:25Z</time>
      </trkpt>
      <trkpt lat="37.159414971247315" lon="-8.632343038916588">
        <ele>5.91</ele>
        <time>2025-05-07T08:42:26Z</time>
      </trkpt>
      <trkpt lat="37.15955201536417" lon="-8.632315965369344">
        <ele>5.91</ele>
        <time>2025-05-07T08:42:27Z</time>
      </trkpt>
      <trkpt lat="37.159700961783528" lon="-8.632277995347977">
        <ele>5.91</ele>
        <time>2025-05-07T08:42:28Z</time>
      </trkpt>
      <trkpt lat="37.159850997850299" lon="-8.632212029770017">
        <ele>5.91</ele>
        <time>2025-05-07T08:42:29Z</time>
      </trkpt>
      <trkpt lat="37.160011008381844" lon="-8.632142962887883">
        <ele>5.91</ele>
        <time>2025-05-07T08:42:30Z</time>
      </trkpt>
      <trkpt lat="37.161611029878259" lon="-8.63157500512898">
        <ele>5.91</ele>
        <time>2025-05-07T08:42:39Z</time>
      </trkpt>
      <trkpt lat="37.162720961496234" lon="-8.631399990990758">
        <ele>7.83</ele>
        <time>2025-05-07T08:42:45Z</time>
      </trkpt>
      <trkpt lat="37.162880972027779" lon="-8.631408037617803">
        <ele>8.310000000000001</ele>
        <time>2025-05-07T08:42:46Z</time>
      </trkpt>
      <trkpt lat="37.163035031408072" lon="-8.631429998204112">
        <ele>8.789999999999999</ele>
        <time>2025-05-07T08:42:47Z</time>
      </trkpt>
      <trkpt lat="37.163178026676178" lon="-8.63148900680244">
        <ele>9.75</ele>
        <time>2025-05-07T08:42:48Z</time>
      </trkpt>
      <trkpt lat="37.163316998630762" lon="-8.631544997915626">
        <ele>10.23</ele>
        <time>2025-05-07T08:42:49Z</time>
      </trkpt>
      <trkpt lat="37.163447001948953" lon="-8.63159897737205">
        <ele>10.710000000000001</ele>
        <time>2025-05-07T08:42:50Z</time>
      </trkpt>
      <trkpt lat="37.163557978346944" lon="-8.6316620092839">
        <ele>11.67</ele>
        <time>2025-05-07T08:42:51Z</time>
      </trkpt>
      <trkpt lat="37.163651017472148" lon="-8.631718000397086">
        <ele>12.15</ele>
        <time>2025-05-07T08:42:52Z</time>
      </trkpt>
      <trkpt lat="37.163885962218046" lon="-8.631594032049179">
        <ele>12.630000000000001</ele>
        <time>2025-05-07T08:42:54Z</time>
      </trkpt>
      <trkpt lat="37.163997022435069" lon="-8.631653962656856">
        <ele>12.630000000000001</ele>
        <time>2025-05-07T08:42:55Z</time>
      </trkpt>
      <trkpt lat="37.16404496692121" lon="-8.631712971255183">
        <ele>13.119999999999999</ele>
        <time>2025-05-07T08:42:56Z</time>
      </trkpt>
      <trkpt lat="37.164082014933228" lon="-8.631959985941649">
        <ele>13.119999999999999</ele>
        <time>2025-05-07T08:42:57Z</time>
      </trkpt>
      <trkpt lat="37.164179999381304" lon="-8.63202502951026">
        <ele>13.6</ele>
        <time>2025-05-07T08:42:58Z</time>
      </trkpt>
      <trkpt lat="37.164288964122534" lon="-8.632098035886884">
        <ele>14.08</ele>
        <time>2025-05-07T08:42:59Z</time>
      </trkpt>
      <trkpt lat="37.164411004632711" lon="-8.632179005071521">
        <ele>14.56</ele>
        <time>2025-05-07T08:43:00Z</time>
      </trkpt>
      <trkpt lat="37.164543019607663" lon="-8.632268020883203">
        <ele>15.52</ele>
        <time>2025-05-07T08:43:01Z</time>
      </trkpt>
      <trkpt lat="37.165869036689401" lon="-8.633107971400023">
        <ele>22.73</ele>
        <time>2025-05-07T08:43:09Z</time>
      </trkpt>
      <trkpt lat="37.167622027918696" lon="-8.633518014103174">
        <ele>31.859999999999999</ele>
        <time>2025-05-07T08:43:17Z</time>
      </trkpt>
      <trkpt lat="37.171164974570274" lon="-8.633712977170944">
        <ele>51.57</ele>
        <time>2025-05-07T08:43:33Z</time>
      </trkpt>
      <trkpt lat="37.172652008011937" lon="-8.633786989375949">
        <ele>57.340000000000003</ele>
        <time>2025-05-07T08:43:41Z</time>
      </trkpt>
      <trkpt lat="37.172804977744818" lon="-8.633795036002994">
        <ele>57.82</ele>
        <time>2025-05-07T08:43:42Z</time>
      </trkpt>
      <trkpt lat="37.172961970791221" lon="-8.633805010467768">
        <ele>58.299999999999997</ele>
        <time>2025-05-07T08:43:43Z</time>
      </trkpt>
      <trkpt lat="37.173825977370143" lon="-8.633891008794308">
        <ele>59.740000000000002</ele>
        <time>2025-05-07T08:43:49Z</time>
      </trkpt>
      <trkpt lat="37.174066035076976" lon="-8.633730998262763">
        <ele>60.219999999999999</ele>
        <time>2025-05-07T08:43:50Z</time>
      </trkpt>
      <trkpt lat="37.174167037010193" lon="-8.633711971342564">
        <ele>60.700000000000003</ele>
        <time>2025-05-07T08:43:52Z</time>
      </trkpt>
      <trkpt lat="37.174316989257932" lon="-8.633708031848073">
        <ele>60.700000000000003</ele>
        <time>2025-05-07T08:43:53Z</time>
      </trkpt>
      <trkpt lat="37.174381026998162" lon="-8.633793024346232">
        <ele>60.700000000000003</ele>
        <time>2025-05-07T08:43:54Z</time>
      </trkpt>
      <trkpt lat="37.174429977312684" lon="-8.633858989924192">
        <ele>60.219999999999999</ele>
        <time>2025-05-07T08:43:55Z</time>
      </trkpt>
      <trkpt lat="37.17446300201118" lon="-8.634124025702477">
        <ele>60.219999999999999</ele>
        <time>2025-05-07T08:43:56Z</time>
      </trkpt>
      <trkpt lat="37.174566015601158" lon="-8.634193008765578">
        <ele>60.219999999999999</ele>
        <time>2025-05-07T08:43:57Z</time>
      </trkpt>
      <trkpt lat="37.174709010869265" lon="-8.634287975728512">
        <ele>60.219999999999999</ele>
        <time>2025-05-07T08:43:58Z</time>
      </trkpt>
      <trkpt lat="37.17573101632297" lon="-8.635426992550492">
        <ele>58.299999999999997</ele>
        <time>2025-05-07T08:44:06Z</time>
      </trkpt>
      <trkpt lat="37.17622697353363" lon="-8.635890008881688">
        <ele>57.340000000000003</ele>
        <time>2025-05-07T08:44:09Z</time>
      </trkpt>
      <trkpt lat="37.176794009283185" lon="-8.636198965832591">
        <ele>55.890000000000001</ele>
        <time>2025-05-07T08:44:12Z</time>
      </trkpt>
      <trkpt lat="37.176988972350955" lon="-8.636287981644273">
        <ele>55.890000000000001</ele>
        <time>2025-05-07T08:44:13Z</time>
      </trkpt>
      <trkpt lat="37.177193993702531" lon="-8.63632301799953">
        <ele>56.369999999999997</ele>
        <time>2025-05-07T08:44:14Z</time>
      </trkpt>
      <trkpt lat="37.177404966205359" lon="-8.63634598441422">
        <ele>56.369999999999997</ele>
        <time>2025-05-07T08:44:15Z</time>
      </trkpt>
      <trkpt lat="37.177616022527218" lon="-8.636369034647942">
        <ele>56.859999999999999</ele>
        <time>2025-05-07T08:44:16Z</time>
      </trkpt>
      <trkpt lat="37.177825989201665" lon="-8.636354031041265">
        <ele>57.340000000000003</ele>
        <time>2025-05-07T08:44:17Z</time>
      </trkpt>
      <trkpt lat="37.178037967532873" lon="-8.636337015777826">
        <ele>57.340000000000003</ele>
        <time>2025-05-07T08:44:18Z</time>
      </trkpt>
      <trkpt lat="37.178236031904817" lon="-8.63630399107933">
        <ele>57.340000000000003</ele>
        <time>2025-05-07T08:44:19Z</time>
      </trkpt>
      <trkpt lat="37.178423032164574" lon="-8.636244982481003">
        <ele>57.82</ele>
        <time>2025-05-07T08:44:20Z</time>
      </trkpt>
      <trkpt lat="37.178605003282428" lon="-8.636180022731423">
        <ele>57.82</ele>
        <time>2025-05-07T08:44:21Z</time>
      </trkpt>
      <trkpt lat="37.179404972121119" lon="-8.635673001408577">
        <ele>58.299999999999997</ele>
        <time>2025-05-07T08:44:27Z</time>
      </trkpt>
      <trkpt lat="37.179489964619279" lon="-8.635605024173856">
        <ele>57.82</ele>
        <time>2025-05-07T08:44:28Z</time>
      </trkpt>
      <trkpt lat="37.179576968774199" lon="-8.635536041110754">
        <ele>57.82</ele>
        <time>2025-05-07T08:44:29Z</time>
      </trkpt>
      <trkpt lat="37.179594989866018" lon="-8.635361026972532">
        <ele>57.340000000000003</ele>
        <time>2025-05-07T08:44:30Z</time>
      </trkpt>
      <trkpt lat="37.179723987355828" lon="-8.635302018374205">
        <ele>57.82</ele>
        <time>2025-05-07T08:44:31Z</time>
      </trkpt>
      <trkpt lat="37.17985600233078" lon="-8.635330013930798">
        <ele>57.82</ele>
        <time>2025-05-07T08:44:32Z</time>
      </trkpt>
      <trkpt lat="37.179961027577519" lon="-8.635245021432638">
        <ele>57.82</ele>
        <time>2025-05-07T08:44:33Z</time>
      </trkpt>
      <trkpt lat="37.180079966783524" lon="-8.635148964822292">
        <ele>57.82</ele>
        <time>2025-05-07T08:44:34Z</time>
      </trkpt>
      <trkpt lat="37.180209970101714" lon="-8.635043017566204">
        <ele>57.82</ele>
        <time>2025-05-07T08:44:35Z</time>
      </trkpt>
      <trkpt lat="37.181417969986796" lon="-8.634242964908481">
        <ele>54.93</ele>
        <time>2025-05-07T08:44:42Z</time>
      </trkpt>
      <trkpt lat="37.182742981240153" lon="-8.633896037936211">
        <ele>49.159999999999997</ele>
        <time>2025-05-07T08:44:48Z</time>
      </trkpt>
      <trkpt lat="37.184223979711533" lon="-8.634207006543875">
        <ele>43.880000000000003</ele>
        <time>2025-05-07T08:44:54Z</time>
      </trkpt>
      <trkpt lat="37.185499034821987" lon="-8.635156005620956">
        <ele>44.359999999999999</ele>
        <time>2025-05-07T08:45:00Z</time>
      </trkpt>
      <trkpt lat="37.187444977462292" lon="-8.637290960177779">
        <ele>57.82</ele>
        <time>2025-05-07T08:45:11Z</time>
      </trkpt>
      <trkpt lat="37.188194990158081" lon="-8.637866964563727">
        <ele>59.740000000000002</ele>
        <time>2025-05-07T08:45:15Z</time>
      </trkpt>
      <trkpt lat="37.188399005681276" lon="-8.637979030609131">
        <ele>60.219999999999999</ele>
        <time>2025-05-07T08:45:16Z</time>
      </trkpt>
      <trkpt lat="37.188614001497626" lon="-8.638038039207459">
        <ele>60.219999999999999</ele>
        <time>2025-05-07T08:45:17Z</time>
      </trkpt>
      <trkpt lat="37.188828997313976" lon="-8.638095958158374">
        <ele>59.740000000000002</ele>
        <time>2025-05-07T08:45:18Z</time>
      </trkpt>
      <trkpt lat="37.18905002810061" lon="-8.638118002563715">
        <ele>59.740000000000002</ele>
        <time>2025-05-07T08:45:19Z</time>
      </trkpt>
      <trkpt lat="37.189269969239831" lon="-8.638127977028489">
        <ele>59.740000000000002</ele>
        <time>2025-05-07T08:45:20Z</time>
      </trkpt>
      <trkpt lat="37.189495023339987" lon="-8.638110039755702">
        <ele>59.740000000000002</ele>
        <time>2025-05-07T08:45:21Z</time>
      </trkpt>
      <trkpt lat="37.189722005277872" lon="-8.638092018663883">
        <ele>59.259999999999998</ele>
        <time>2025-05-07T08:45:22Z</time>
      </trkpt>
      <trkpt lat="37.191569963470101" lon="-8.638120014220476">
        <ele>55.409999999999997</ele>
        <time>2025-05-07T08:45:30Z</time>
      </trkpt>
      <trkpt lat="37.191796023398638" lon="-8.638196038082242">
        <ele>54.93</ele>
        <time>2025-05-07T08:45:31Z</time>
      </trkpt>
      <trkpt lat="37.192020993679762" lon="-8.638270972296596">
        <ele>54.450000000000003</ele>
        <time>2025-05-07T08:45:32Z</time>
      </trkpt>
      <trkpt lat="37.19223196618259" lon="-8.638379015028477">
        <ele>53.490000000000002</ele>
        <time>2025-05-07T08:45:33Z</time>
      </trkpt>
      <trkpt lat="37.192440005019307" lon="-8.638514969497919">
        <ele>53.009999999999998</ele>
        <time>2025-05-07T08:45:34Z</time>
      </trkpt>
      <trkpt lat="37.19263999722898" lon="-8.638668023049831">
        <ele>53.009999999999998</ele>
        <time>2025-05-07T08:45:35Z</time>
      </trkpt>
      <trkpt lat="37.19283202663064" lon="-8.638839013874531">
        <ele>52.530000000000001</ele>
        <time>2025-05-07T08:45:36Z</time>
      </trkpt>
      <trkpt lat="37.193021960556507" lon="-8.639014028012753">
        <ele>52.530000000000001</ele>
        <time>2025-05-07T08:45:37Z</time>
      </trkpt>
      <trkpt lat="37.194613013416529" lon="-8.64014801569283">
        <ele>54.93</ele>
        <time>2025-05-07T08:45:45Z</time>
      </trkpt>
      <trkpt lat="37.196814017370343" lon="-8.640758972615004">
        <ele>65.510000000000005</ele>
        <time>2025-05-07T08:45:55Z</time>
      </trkpt>
      <trkpt lat="37.198767000809312" lon="-8.640988972038031">
        <ele>75.599999999999994</ele>
        <time>2025-05-07T08:46:04Z</time>
      </trkpt>
      <trkpt lat="37.200271971523762" lon="-8.640388995409012">
        <ele>83.769999999999996</ele>
        <time>2025-05-07T08:46:11Z</time>
      </trkpt>
      <trkpt lat="37.201553983613849" lon="-8.640238037332892">
        <ele>91.939999999999998</ele>
        <time>2025-05-07T08:46:17Z</time>
      </trkpt>
      <trkpt lat="37.202787967398763" lon="-8.640714967623353">
        <ele>100.11</ele>
        <time>2025-05-07T08:46:23Z</time>
      </trkpt>
      <trkpt lat="37.204831978306174" lon="-8.641725992783904">
        <ele>112.13</ele>
        <time>2025-05-07T08:46:33Z</time>
      </trkpt>
      <trkpt lat="37.205484006553888" lon="-8.641930008307099">
        <ele>114.05</ele>
        <time>2025-05-07T08:46:36Z</time>
      </trkpt>
      <trkpt lat="37.205705037340522" lon="-8.641940988600254">
        <ele>114.53</ele>
        <time>2025-05-07T08:46:37Z</time>
      </trkpt>
      <trkpt lat="37.207008004188538" lon="-8.641703026369214">
        <ele>116.45999999999999</ele>
        <time>2025-05-07T08:46:43Z</time>
      </trkpt>
      <trkpt lat="37.208837019279599" lon="-8.640669034793973">
        <ele>115.01000000000001</ele>
        <time>2025-05-07T08:46:52Z</time>
      </trkpt>
      <trkpt lat="37.212205035611987" lon="-8.638681014999747">
        <ele>110.20999999999999</ele>
        <time>2025-05-07T08:47:08Z</time>
      </trkpt>
      <trkpt lat="37.214880958199501" lon="-8.637102032080293">
        <ele>106.36</ele>
        <time>2025-05-07T08:47:22Z</time>
      </trkpt>
      <trkpt lat="37.217642962932587" lon="-8.635360021144152">
        <ele>103.48</ele>
        <time>2025-05-07T08:47:39Z</time>
      </trkpt>
      <trkpt lat="37.2177769895643" lon="-8.635210990905762">
        <ele>103</ele>
        <time>2025-05-07T08:47:40Z</time>
      </trkpt>
      <trkpt lat="37.2178840264678" lon="-8.635033965110779">
        <ele>103</ele>
        <time>2025-05-07T08:47:41Z</time>
      </trkpt>
      <trkpt lat="37.217986034229398" lon="-8.634854005649686">
        <ele>103</ele>
        <time>2025-05-07T08:47:42Z</time>
      </trkpt>
      <trkpt lat="37.218084018677473" lon="-8.634662982076407">
        <ele>103</ele>
        <time>2025-05-07T08:47:43Z</time>
      </trkpt>
      <trkpt lat="37.218137998133898" lon="-8.634451003745198">
        <ele>102.52</ele>
        <time>2025-05-07T08:47:44Z</time>
      </trkpt>
      <trkpt lat="37.218193989247084" lon="-8.634237013757229">
        <ele>102.52</ele>
        <time>2025-05-07T08:47:45Z</time>
      </trkpt>
      <trkpt lat="37.218247968703508" lon="-8.634020006284118">
        <ele>102.52</ele>
        <time>2025-05-07T08:47:46Z</time>
      </trkpt>
      <trkpt lat="37.218273030593991" lon="-8.633797969669104">
        <ele>102.04000000000001</ele>
        <time>2025-05-07T08:47:47Z</time>
      </trkpt>
      <trkpt lat="37.218563966453075" lon="-8.63099698908627">
        <ele>91.939999999999998</ele>
        <time>2025-05-07T08:47:59Z</time>
      </trkpt>
      <trkpt lat="37.218614006415009" lon="-8.630788028240204">
        <ele>90.5</ele>
        <time>2025-05-07T08:48:00Z</time>
      </trkpt>
      <trkpt lat="37.218668991699815" lon="-8.630575966089964">
        <ele>87.620000000000005</ele>
        <time>2025-05-07T08:48:02Z</time>
      </trkpt>
      <trkpt lat="37.218831013888121" lon="-8.630197020247579">
        <ele>86.659999999999997</ele>
        <time>2025-05-07T08:48:03Z</time>
      </trkpt>
      <trkpt lat="37.219003010541201" lon="-8.629913963377476">
        <ele>84.25</ele>
        <time>2025-05-07T08:48:05Z</time>
      </trkpt>
      <trkpt lat="37.219100994989276" lon="-8.629745990037918">
        <ele>83.290000000000006</ele>
        <time>2025-05-07T08:48:06Z</time>
      </trkpt>
      <trkpt lat="37.219068976119161" lon="-8.629628978669643">
        <ele>82.810000000000002</ele>
        <time>2025-05-07T08:48:07Z</time>
      </trkpt>
      <trkpt lat="37.219040980562568" lon="-8.629524959251285">
        <ele>82.329999999999998</ele>
        <time>2025-05-07T08:48:08Z</time>
      </trkpt>
      <trkpt lat="37.219040980562568" lon="-8.629524959251285">
        <ele>82.329999999999998</ele>
        <time>2025-05-07T08:48:09Z</time>
      </trkpt>
      <trkpt lat="37.218868983909488" lon="-8.629138972610235">
        <ele>81.849999999999994</ele>
        <time>2025-05-07T08:48:10Z</time>
      </trkpt>
      <trkpt lat="37.218817016109824" lon="-8.629085998982191">
        <ele>81.849999999999994</ele>
        <time>2025-05-07T08:48:11Z</time>
      </trkpt>
      <trkpt lat="37.218698998913169" lon="-8.628967981785536">
        <ele>81.370000000000005</ele>
        <time>2025-05-07T08:48:12Z</time>
      </trkpt>
      <trkpt lat="37.217929037287831" lon="-8.627780014649034">
        <ele>80.890000000000001</ele>
        <time>2025-05-07T08:48:19Z</time>
      </trkpt>
      <trkpt lat="37.21762795932591" lon="-8.627241980284452">
        <ele>80.890000000000001</ele>
        <time>2025-05-07T08:48:22Z</time>
      </trkpt>
      <trkpt lat="37.217556964606047" lon="-8.627036958932877">
        <ele>80.890000000000001</ele>
        <time>2025-05-07T08:48:23Z</time>
      </trkpt>
      <trkpt lat="37.217473983764648" lon="-8.626800002530217">
        <ele>80.409999999999997</ele>
        <time>2025-05-07T08:48:24Z</time>
      </trkpt>
      <trkpt lat="37.217050027102232" lon="-8.625038964673877">
        <ele>76.560000000000002</ele>
        <time>2025-05-07T08:48:31Z</time>
      </trkpt>
      <trkpt lat="37.216801000759006" lon="-8.624323988333345">
        <ele>75.120000000000005</ele>
        <time>2025-05-07T08:48:34Z</time>
      </trkpt>
      <trkpt lat="37.216689018532634" lon="-8.624123996123672">
        <ele>75.120000000000005</ele>
        <time>2025-05-07T08:48:35Z</time>
      </trkpt>
      <trkpt lat="37.216550968587399" lon="-8.623944958671928">
        <ele>74.640000000000001</ele>
        <time>2025-05-07T08:48:36Z</time>
      </trkpt>
      <trkpt lat="37.216414008289576" lon="-8.623764999210835">
        <ele>74.640000000000001</ele>
        <time>2025-05-07T08:48:37Z</time>
      </trkpt>
      <trkpt lat="37.21627302467823" lon="-8.623581016436219">
        <ele>74.640000000000001</ele>
        <time>2025-05-07T08:48:38Z</time>
      </trkpt>
      <trkpt lat="37.21569299697876" lon="-8.623001994565129">
        <ele>75.599999999999994</ele>
        <time>2025-05-07T08:48:42Z</time>
      </trkpt>
      <trkpt lat="37.215624013915658" lon="-8.622814994305372">
        <ele>76.079999999999998</ele>
        <time>2025-05-07T08:48:43Z</time>
      </trkpt>
      <trkpt lat="37.21554497256875" lon="-8.622601004317403">
        <ele>76.560000000000002</ele>
        <time>2025-05-07T08:48:44Z</time>
      </trkpt>
      <trkpt lat="37.215069970116019" lon="-8.621287979185581">
        <ele>76.079999999999998</ele>
        <time>2025-05-07T08:48:50Z</time>
      </trkpt>
      <trkpt lat="37.214970979839563" lon="-8.621131991967559">
        <ele>75.599999999999994</ele>
        <time>2025-05-07T08:48:51Z</time>
      </trkpt>
      <trkpt lat="37.21487701870501" lon="-8.62098203971982">
        <ele>75.120000000000005</ele>
        <time>2025-05-07T08:48:52Z</time>
      </trkpt>
      <trkpt lat="37.21477098762989" lon="-8.62081297673285">
        <ele>74.640000000000001</ele>
        <time>2025-05-07T08:48:53Z</time>
      </trkpt>
      <trkpt lat="37.214737962931395" lon="-8.620651960372925">
        <ele>74.640000000000001</ele>
        <time>2025-05-07T08:48:54Z</time>
      </trkpt>
      <trkpt lat="37.214698987081647" lon="-8.620464038103819">
        <ele>74.159999999999997</ele>
        <time>2025-05-07T08:48:55Z</time>
      </trkpt>
      <trkpt lat="37.214657999575138" lon="-8.620266979560256">
        <ele>74.159999999999997</ele>
        <time>2025-05-07T08:48:56Z</time>
      </trkpt>
      <trkpt lat="37.214595973491669" lon="-8.62006195820868">
        <ele>74.159999999999997</ele>
        <time>2025-05-07T08:48:57Z</time>
      </trkpt>
      <trkpt lat="37.214366979897022" lon="-8.619426023215056">
        <ele>73.200000000000003</ele>
        <time>2025-05-07T08:49:00Z</time>
      </trkpt>
      <trkpt lat="37.21427796408534" lon="-8.619226031005383">
        <ele>72.719999999999999</ele>
        <time>2025-05-07T08:49:01Z</time>
      </trkpt>
      <trkpt lat="37.213085973635316" lon="-8.61728997901082">
        <ele>65.030000000000001</ele>
        <time>2025-05-07T08:49:11Z</time>
      </trkpt>
      <trkpt lat="37.211574967950583" lon="-8.614686978980899">
        <ele>50.609999999999999</ele>
        <time>2025-05-07T08:49:24Z</time>
      </trkpt>
      <trkpt lat="37.210929980501533" lon="-8.613560032099485">
        <ele>46.280000000000001</ele>
        <time>2025-05-07T08:49:32Z</time>
      </trkpt>
      <trkpt lat="37.210873989388347" lon="-8.613467998802662">
        <ele>46.759999999999998</ele>
        <time>2025-05-07T08:49:33Z</time>
      </trkpt>
      <trkpt lat="37.210843982174993" lon="-8.613417036831379">
        <ele>46.759999999999998</ele>
        <time>2025-05-07T08:49:34Z</time>
      </trkpt>
      <trkpt lat="37.210883041843772" lon="-8.613305976614356">
        <ele>46.280000000000001</ele>
        <time>2025-05-07T08:49:35Z</time>
      </trkpt>
      <trkpt lat="37.210938027128577" lon="-8.613278986886144">
        <ele>45.799999999999997</ele>
        <time>2025-05-07T08:49:36Z</time>
      </trkpt>
      <trkpt lat="37.211016984656453" lon="-8.613241016864777">
        <ele>45.799999999999997</ele>
        <time>2025-05-07T08:49:37Z</time>
      </trkpt>
      <trkpt lat="37.211115974932909" lon="-8.613192988559604">
        <ele>45.32</ele>
        <time>2025-05-07T08:49:38Z</time>
      </trkpt>
      <trkpt lat="37.212096992880106" lon="-8.612709017470479">
        <ele>47.719999999999999</ele>
        <time>2025-05-07T08:49:45Z</time>
      </trkpt>
      <trkpt lat="37.213974958285689" lon="-8.611581986770034">
        <ele>51.57</ele>
        <time>2025-05-07T08:49:57Z</time>
      </trkpt>
      <trkpt lat="37.215644968673587" lon="-8.610699037089944">
        <ele>50.130000000000003</ele>
        <time>2025-05-07T08:50:05Z</time>
      </trkpt>
      <trkpt lat="37.217077016830444" lon="-8.609911976382136">
        <ele>53.009999999999998</ele>
        <time>2025-05-07T08:50:13Z</time>
      </trkpt>
      <trkpt lat="37.217447999864817" lon="-8.609848022460938">
        <ele>53.969999999999999</ele>
        <time>2025-05-07T08:50:15Z</time>
      </trkpt>
      <trkpt lat="37.217645980417728" lon="-8.609848022460938">
        <ele>54.450000000000003</ele>
        <time>2025-05-07T08:50:16Z</time>
      </trkpt>
      <trkpt lat="37.217829963192344" lon="-8.609886998310685">
        <ele>54.93</ele>
        <time>2025-05-07T08:50:17Z</time>
      </trkpt>
      <trkpt lat="37.220046976581216" lon="-8.610604992136359">
        <ele>60.700000000000003</ele>
        <time>2025-05-07T08:50:28Z</time>
      </trkpt>
      <trkpt lat="37.221526969224215" lon="-8.611654993146658">
        <ele>64.549999999999997</ele>
        <time>2025-05-07T08:50:36Z</time>
      </trkpt>
      <trkpt lat="37.223097989335656" lon="-8.612284976989031">
        <ele>67.430000000000007</ele>
        <time>2025-05-07T08:50:44Z</time>
      </trkpt>
      <trkpt lat="37.223677011206746" lon="-8.612462002784014">
        <ele>67.909999999999997</ele>
        <time>2025-05-07T08:50:47Z</time>
      </trkpt>
      <trkpt lat="37.223877003416419" lon="-8.612481029704213">
        <ele>67.909999999999997</ele>
        <time>2025-05-07T08:50:48Z</time>
      </trkpt>
      <trkpt lat="37.224078001454473" lon="-8.612469965592027">
        <ele>67.430000000000007</ele>
        <time>2025-05-07T08:50:49Z</time>
      </trkpt>
      <trkpt lat="37.225998966023326" lon="-8.612415986135602">
        <ele>68.390000000000001</ele>
        <time>2025-05-07T08:50:59Z</time>
      </trkpt>
      <trkpt lat="37.226182026788592" lon="-8.612441970035434">
        <ele>68.870000000000005</ele>
        <time>2025-05-07T08:51:00Z</time>
      </trkpt>
      <trkpt lat="37.226366009563208" lon="-8.612483041360974">
        <ele>68.870000000000005</ele>
        <time>2025-05-07T08:51:01Z</time>
      </trkpt>
      <trkpt lat="37.22845695912838" lon="-8.613013029098511">
        <ele>70.310000000000002</ele>
        <time>2025-05-07T08:51:12Z</time>
      </trkpt>
      <trkpt lat="37.230257978662848" lon="-8.613070026040077">
        <ele>69.349999999999994</ele>
        <time>2025-05-07T08:51:21Z</time>
      </trkpt>
      <trkpt lat="37.232018010690808" lon="-8.613154012709856">
        <ele>68.390000000000001</ele>
        <time>2025-05-07T08:51:29Z</time>
      </trkpt>
      <trkpt lat="37.232196964323521" lon="-8.613260965794325">
        <ele>68.870000000000005</ele>
        <time>2025-05-07T08:51:30Z</time>
      </trkpt>
      <trkpt lat="37.232382958754897" lon="-8.613373031839728">
        <ele>69.349999999999994</ele>
        <time>2025-05-07T08:51:31Z</time>
      </trkpt>
      <trkpt lat="37.233695983886719" lon="-8.614010978490114">
        <ele>74.640000000000001</ele>
        <time>2025-05-07T08:51:38Z</time>
      </trkpt>
      <trkpt lat="37.234741039574146" lon="-8.614134024828672">
        <ele>78</ele>
        <time>2025-05-07T08:51:43Z</time>
      </trkpt>
      <trkpt lat="37.234933990985155" lon="-8.61413000151515">
        <ele>78.969999999999999</ele>
        <time>2025-05-07T08:51:44Z</time>
      </trkpt>
      <trkpt lat="37.235123002901673" lon="-8.614079961553216">
        <ele>79.450000000000003</ele>
        <time>2025-05-07T08:51:45Z</time>
      </trkpt>
      <trkpt lat="37.235312014818192" lon="-8.614007961004973">
        <ele>79.930000000000007</ele>
        <time>2025-05-07T08:51:46Z</time>
      </trkpt>
      <trkpt lat="37.235491974279284" lon="-8.61391399987042">
        <ele>80.890000000000001</ele>
        <time>2025-05-07T08:51:47Z</time>
      </trkpt>
      <trkpt lat="37.235651984810829" lon="-8.613790031522512">
        <ele>81.370000000000005</ele>
        <time>2025-05-07T08:51:48Z</time>
      </trkpt>
      <trkpt lat="37.235810989513993" lon="-8.613665979355574">
        <ele>82.329999999999998</ele>
        <time>2025-05-07T08:51:49Z</time>
      </trkpt>
      <trkpt lat="37.235957002267241" lon="-8.61352700740099">
        <ele>82.810000000000002</ele>
        <time>2025-05-07T08:51:50Z</time>
      </trkpt>
      <trkpt lat="37.236093962565064" lon="-8.613383006304503">
        <ele>83.769999999999996</ele>
        <time>2025-05-07T08:51:51Z</time>
      </trkpt>
      <trkpt lat="37.236368972808123" lon="-8.613109001889825">
        <ele>85.209999999999994</ele>
        <time>2025-05-07T08:51:53Z</time>
      </trkpt>
      <trkpt lat="37.236529989168048" lon="-8.613001964986324">
        <ele>85.689999999999998</ele>
        <time>2025-05-07T08:51:54Z</time>
      </trkpt>
      <trkpt lat="37.236697962507606" lon="-8.612919989973307">
        <ele>85.689999999999998</ele>
        <time>2025-05-07T08:51:55Z</time>
      </trkpt>
      <trkpt lat="37.236875994130969" lon="-8.612854024395347">
        <ele>85.689999999999998</ele>
        <time>2025-05-07T08:51:56Z</time>
      </trkpt>
      <trkpt lat="37.237064000219107" lon="-8.61281898804009">
        <ele>85.209999999999994</ele>
        <time>2025-05-07T08:51:57Z</time>
      </trkpt>
      <trkpt lat="37.237254017964005" lon="-8.61279996111989">
        <ele>84.730000000000004</ele>
        <time>2025-05-07T08:51:58Z</time>
      </trkpt>
      <trkpt lat="37.237602034583688" lon="-8.612766014412046">
        <ele>83.290000000000006</ele>
        <time>2025-05-07T08:52:00Z</time>
      </trkpt>
      <trkpt lat="37.237785011529922" lon="-8.612657971680164">
        <ele>82.329999999999998</ele>
        <time>2025-05-07T08:52:01Z</time>
      </trkpt>
      <trkpt lat="37.23795298486948" lon="-8.612558981403709">
        <ele>82.329999999999998</ele>
        <time>2025-05-07T08:52:02Z</time>
      </trkpt>
      <trkpt lat="37.239297023043036" lon="-8.611629009246826">
        <ele>78.969999999999999</ele>
        <time>2025-05-07T08:52:11Z</time>
      </trkpt>
      <trkpt lat="37.23943498916924" lon="-8.611634038388729">
        <ele>79.450000000000003</ele>
        <time>2025-05-07T08:52:12Z</time>
      </trkpt>
      <trkpt lat="37.239572033286095" lon="-8.6116389837116">
        <ele>79.930000000000007</ele>
        <time>2025-05-07T08:52:13Z</time>
      </trkpt>
      <trkpt lat="37.240538969635963" lon="-8.61153001897037">
        <ele>83.769999999999996</ele>
        <time>2025-05-07T08:52:21Z</time>
      </trkpt>
      <trkpt lat="37.240798976272345" lon="-8.611478973180056">
        <ele>85.209999999999994</ele>
        <time>2025-05-07T08:52:24Z</time>
      </trkpt>
      <trkpt lat="37.240834012627602" lon="-8.611478973180056">
        <ele>85.209999999999994</ele>
        <time>2025-05-07T08:52:25Z</time>
      </trkpt>
      <trkpt lat="37.240915987640619" lon="-8.611490959301591">
        <ele>85.689999999999998</ele>
        <time>2025-05-07T08:52:26Z</time>
      </trkpt>
      <trkpt lat="37.241049008443952" lon="-8.611600007861853">
        <ele>86.180000000000007</ele>
        <time>2025-05-07T08:52:28Z</time>
      </trkpt>
      <trkpt lat="37.241144981235266" lon="-8.611623980104923">
        <ele>86.659999999999997</ele>
        <time>2025-05-07T08:52:29Z</time>
      </trkpt>
      <trkpt lat="37.241249000653625" lon="-8.611593972891569">
        <ele>87.140000000000001</ele>
        <time>2025-05-07T08:52:30Z</time>
      </trkpt>
      <trkpt lat="37.241358971223235" lon="-8.611548962071538">
        <ele>87.620000000000005</ele>
        <time>2025-05-07T08:52:31Z</time>
      </trkpt>
      <trkpt lat="37.241477994248271" lon="-8.611501017585397">
        <ele>88.099999999999994</ele>
        <time>2025-05-07T08:52:32Z</time>
      </trkpt>
      <trkpt lat="37.241600034758449" lon="-8.611450977623463">
        <ele>88.579999999999998</ele>
        <time>2025-05-07T08:52:33Z</time>
      </trkpt>
      <trkpt lat="37.241718973964453" lon="-8.611393980681896">
        <ele>90.019999999999996</ele>
        <time>2025-05-07T08:52:34Z</time>
      </trkpt>
      <trkpt lat="37.242737961933017" lon="-8.610872039571405">
        <ele>94.829999999999998</ele>
        <time>2025-05-07T08:52:43Z</time>
      </trkpt>
      <trkpt lat="37.243207013234496" lon="-8.61062603071332">
        <ele>94.829999999999998</ele>
        <time>2025-05-07T08:52:47Z</time>
      </trkpt>
      <trkpt lat="37.243318995460868" lon="-8.610599040985107">
        <ele>94.829999999999998</ele>
        <time>2025-05-07T08:52:48Z</time>
      </trkpt>
      <trkpt lat="37.243439024314284" lon="-8.610599040985107">
        <ele>95.310000000000002</ele>
        <time>2025-05-07T08:52:49Z</time>
      </trkpt>
      <trkpt lat="37.24355997517705" lon="-8.610599040985107">
        <ele>94.829999999999998</ele>
        <time>2025-05-07T08:52:50Z</time>
      </trkpt>
      <trkpt lat="37.243686961010098" lon="-8.61062896437943">
        <ele>94.349999999999994</ele>
        <time>2025-05-07T08:52:51Z</time>
      </trkpt>
      <trkpt lat="37.243824005126953" lon="-8.610702976584435">
        <ele>94.349999999999994</ele>
        <time>2025-05-07T08:52:52Z</time>
      </trkpt>
      <trkpt lat="37.243959037587047" lon="-8.610775982961059">
        <ele>94.349999999999994</ele>
        <time>2025-05-07T08:52:53Z</time>
      </trkpt>
      <trkpt lat="37.244189037010074" lon="-8.610900035127997">
        <ele>93.870000000000005</ele>
        <time>2025-05-07T08:52:55Z</time>
      </trkpt>
      <trkpt lat="37.244742996990681" lon="-8.611104972660542">
        <ele>91.939999999999998</ele>
        <time>2025-05-07T08:53:00Z</time>
      </trkpt>
      <trkpt lat="37.244850033894181" lon="-8.611111007630825">
        <ele>91.939999999999998</ele>
        <time>2025-05-07T08:53:01Z</time>
      </trkpt>
      <trkpt lat="37.244967967271805" lon="-8.611106984317303">
        <ele>91.939999999999998</ele>
        <time>2025-05-07T08:53:02Z</time>
      </trkpt>
      <trkpt lat="37.246260959655046" lon="-8.611105978488922">
        <ele>95.790000000000006</ele>
        <time>2025-05-07T08:53:13Z</time>
      </trkpt>
      <trkpt lat="37.246509985998273" lon="-8.611154006794095">
        <ele>96.269999999999996</ele>
        <time>2025-05-07T08:53:15Z</time>
      </trkpt>
      <trkpt lat="37.246640995144844" lon="-8.611176973208785">
        <ele>96.269999999999996</ele>
        <time>2025-05-07T08:53:16Z</time>
      </trkpt>
      <trkpt lat="37.246774015948176" lon="-8.61114596016705">
        <ele>95.790000000000006</ele>
        <time>2025-05-07T08:53:17Z</time>
      </trkpt>
      <trkpt lat="37.246907036751509" lon="-8.611115030944347">
        <ele>95.790000000000006</ele>
        <time>2025-05-07T08:53:18Z</time>
      </trkpt>
      <trkpt lat="37.247029999271035" lon="-8.611087035387754">
        <ele>95.790000000000006</ele>
        <time>2025-05-07T08:53:19Z</time>
      </trkpt>
      <trkpt lat="37.24714801646769" lon="-8.611059039831162">
        <ele>95.310000000000002</ele>
        <time>2025-05-07T08:53:20Z</time>
      </trkpt>
      <trkpt lat="37.247279025614262" lon="-8.611028026789427">
        <ele>95.310000000000002</ele>
        <time>2025-05-07T08:53:21Z</time>
      </trkpt>
      <trkpt lat="37.247356977313757" lon="-8.611065996810794">
        <ele>95.790000000000006</ele>
        <time>2025-05-07T08:53:22Z</time>
      </trkpt>
      <trkpt lat="37.247477006167173" lon="-8.611123999580741">
        <ele>95.790000000000006</ele>
        <time>2025-05-07T08:53:23Z</time>
      </trkpt>
      <trkpt lat="37.247608015313745" lon="-8.61118602566421">
        <ele>95.790000000000006</ele>
        <time>2025-05-07T08:53:24Z</time>
      </trkpt>
      <trkpt lat="37.247741958126426" lon="-8.61125098541379">
        <ele>95.790000000000006</ele>
        <time>2025-05-07T08:53:25Z</time>
      </trkpt>
      <trkpt lat="37.247875984758139" lon="-8.611309994012117">
        <ele>95.790000000000006</ele>
        <time>2025-05-07T08:53:26Z</time>
      </trkpt>
      <trkpt lat="37.248015040531754" lon="-8.611328015103936">
        <ele>95.790000000000006</ele>
        <time>2025-05-07T08:53:27Z</time>
      </trkpt>
      <trkpt lat="37.24908197298646" lon="-8.611408984288573">
        <ele>100.11</ele>
        <time>2025-05-07T08:53:36Z</time>
      </trkpt>
      <trkpt lat="37.249184986576438" lon="-8.611445026472211">
        <ele>100.11</ele>
        <time>2025-05-07T08:53:37Z</time>
      </trkpt>
      <trkpt lat="37.249290011823177" lon="-8.611482996493578">
        <ele>100.59999999999999</ele>
        <time>2025-05-07T08:53:38Z</time>
      </trkpt>
      <trkpt lat="37.249394031241536" lon="-8.611533036455512">
        <ele>101.08</ele>
        <time>2025-05-07T08:53:39Z</time>
      </trkpt>
      <trkpt lat="37.249498972669244" lon="-8.61159497871995">
        <ele>101.56</ele>
        <time>2025-05-07T08:53:40Z</time>
      </trkpt>
      <trkpt lat="37.250522989779711" lon="-8.612056989222765">
        <ele>103</ele>
        <time>2025-05-07T08:53:49Z</time>
      </trkpt>
      <trkpt lat="37.251105029135942" lon="-8.612146005034447">
        <ele>105.40000000000001</ele>
        <time>2025-05-07T08:53:54Z</time>
      </trkpt>
      <trkpt lat="37.252265000715852" lon="-8.612574990838766">
        <ele>105.88</ele>
        <time>2025-05-07T08:54:02Z</time>
      </trkpt>
      <trkpt lat="37.253534020856023" lon="-8.612789986655116">
        <ele>104.44</ele>
        <time>2025-05-07T08:54:11Z</time>
      </trkpt>
      <trkpt lat="37.254412025213242" lon="-8.61260399222374">
        <ele>108.29000000000001</ele>
        <time>2025-05-07T08:54:17Z</time>
      </trkpt>
      <trkpt lat="37.254575975239277" lon="-8.612524028867483">
        <ele>109.73</ele>
        <time>2025-05-07T08:54:18Z</time>
      </trkpt>
      <trkpt lat="37.254740009084344" lon="-8.612422021105886">
        <ele>110.69</ele>
        <time>2025-05-07T08:54:19Z</time>
      </trkpt>
      <trkpt lat="37.256062002852559" lon="-8.611500011757016">
        <ele>119.34</ele>
        <time>2025-05-07T08:54:27Z</time>
      </trkpt>
      <trkpt lat="37.25621497258544" lon="-8.611386017873883">
        <ele>119.81999999999999</ele>
        <time>2025-05-07T08:54:28Z</time>
      </trkpt>
      <trkpt lat="37.256358973681927" lon="-8.61125199124217">
        <ele>120.78</ele>
        <time>2025-05-07T08:54:29Z</time>
      </trkpt>
      <trkpt lat="37.256606994196773" lon="-8.610973041504622">
        <ele>121.73999999999999</ele>
        <time>2025-05-07T08:54:31Z</time>
      </trkpt>
      <trkpt lat="37.256749989464879" lon="-8.610871033743024">
        <ele>122.22</ele>
        <time>2025-05-07T08:54:32Z</time>
      </trkpt>
      <trkpt lat="37.256914023309946" lon="-8.610771037638187">
        <ele>122.70999999999999</ele>
        <time>2025-05-07T08:54:33Z</time>
      </trkpt>
      <trkpt lat="37.257080990821123" lon="-8.610705994069576">
        <ele>122.70999999999999</ele>
        <time>2025-05-07T08:54:34Z</time>
      </trkpt>
      <trkpt lat="37.257260028272867" lon="-8.610637011006475">
        <ele>123.19</ele>
        <time>2025-05-07T08:54:35Z</time>
      </trkpt>
      <trkpt lat="37.258291002362967" lon="-8.610294023528695">
        <ele>127.03</ele>
        <time>2025-05-07T08:54:41Z</time>
      </trkpt>
      <trkpt lat="37.259193984791636" lon="-8.610319001600146">
        <ele>128.94999999999999</ele>
        <time>2025-05-07T08:54:46Z</time>
      </trkpt>
      <trkpt lat="37.260594014078379" lon="-8.610559981316328">
        <ele>131.36000000000001</ele>
        <time>2025-05-07T08:54:54Z</time>
      </trkpt>
      <trkpt lat="37.260730974376202" lon="-8.610574984923005">
        <ele>131.84</ele>
        <time>2025-05-07T08:54:55Z</time>
      </trkpt>
      <trkpt lat="37.260862989351153" lon="-8.610645979642868">
        <ele>132.31999999999999</ele>
        <time>2025-05-07T08:54:56Z</time>
      </trkpt>
      <trkpt lat="37.261001961305737" lon="-8.610733989626169">
        <ele>132.31999999999999</ele>
        <time>2025-05-07T08:54:57Z</time>
      </trkpt>
      <trkpt lat="37.261145040392876" lon="-8.610824011266232">
        <ele>132.80000000000001</ele>
        <time>2025-05-07T08:54:58Z</time>
      </trkpt>
      <trkpt lat="37.261262973770499" lon="-8.610976980999112">
        <ele>132.80000000000001</ele>
        <time>2025-05-07T08:54:59Z</time>
      </trkpt>
      <trkpt lat="37.261375961825252" lon="-8.611133974045515">
        <ele>132.80000000000001</ele>
        <time>2025-05-07T08:55:00Z</time>
      </trkpt>
      <trkpt lat="37.261490039527416" lon="-8.611299013718963">
        <ele>132.80000000000001</ele>
        <time>2025-05-07T08:55:01Z</time>
      </trkpt>
      <trkpt lat="37.261573020368814" lon="-8.611491965129972">
        <ele>132.80000000000001</ele>
        <time>2025-05-07T08:55:02Z</time>
      </trkpt>
      <trkpt lat="37.261654995381832" lon="-8.61168198287487">
        <ele>132.80000000000001</ele>
        <time>2025-05-07T08:55:03Z</time>
      </trkpt>
      <trkpt lat="37.261731019243598" lon="-8.611858002841473">
        <ele>132.80000000000001</ele>
        <time>2025-05-07T08:55:04Z</time>
      </trkpt>
      <trkpt lat="37.261804025620222" lon="-8.61202497035265">
        <ele>132.80000000000001</ele>
        <time>2025-05-07T08:55:05Z</time>
      </trkpt>
      <trkpt lat="37.261911984533072" lon="-8.612144999206066">
        <ele>132.31999999999999</ele>
        <time>2025-05-07T08:55:06Z</time>
      </trkpt>
      <trkpt lat="37.262050034478307" lon="-8.612252036109567">
        <ele>131.84</ele>
        <time>2025-05-07T08:55:07Z</time>
      </trkpt>
      <trkpt lat="37.262199986726046" lon="-8.61236703582108">
        <ele>130.88</ele>
        <time>2025-05-07T08:55:08Z</time>
      </trkpt>
      <trkpt lat="37.262787977233529" lon="-8.612841032445431">
        <ele>129.43000000000001</ele>
        <time>2025-05-07T08:55:12Z</time>
      </trkpt>
      <trkpt lat="37.262871041893959" lon="-8.612998025491834">
        <ele>129.91999999999999</ele>
        <time>2025-05-07T08:55:13Z</time>
      </trkpt>
      <trkpt lat="37.262957962229848" lon="-8.61316398717463">
        <ele>129.91999999999999</ele>
        <time>2025-05-07T08:55:14Z</time>
      </trkpt>
      <trkpt lat="37.263228027150035" lon="-8.613650975748897">
        <ele>131.36000000000001</ele>
        <time>2025-05-07T08:55:17Z</time>
      </trkpt>
      <trkpt lat="37.26334503851831" lon="-8.613768992945552">
        <ele>131.84</ele>
        <time>2025-05-07T08:55:18Z</time>
      </trkpt>
      <trkpt lat="37.263470012694597" lon="-8.613884998485446">
        <ele>132.31999999999999</ele>
        <time>2025-05-07T08:55:19Z</time>
      </trkpt>
      <trkpt lat="37.263632034882903" lon="-8.613930009305477">
        <ele>133.28</ele>
        <time>2025-05-07T08:55:20Z</time>
      </trkpt>
      <trkpt lat="37.263809982687235" lon="-8.61397996544838">
        <ele>133.75999999999999</ele>
        <time>2025-05-07T08:55:21Z</time>
      </trkpt>
      <trkpt lat="37.263992037624121" lon="-8.613981977105141">
        <ele>134.72</ele>
        <time>2025-05-07T08:55:22Z</time>
      </trkpt>
      <trkpt lat="37.264177026227117" lon="-8.613973008468747">
        <ele>135.68000000000001</ele>
        <time>2025-05-07T08:55:23Z</time>
      </trkpt>
      <trkpt lat="37.264346005395055" lon="-8.613926991820335">
        <ele>136.63999999999999</ele>
        <time>2025-05-07T08:55:24Z</time>
      </trkpt>
      <trkpt lat="37.264510961249471" lon="-8.613833030685782">
        <ele>138.09</ele>
        <time>2025-05-07T08:55:25Z</time>
      </trkpt>
      <trkpt lat="37.264659991487861" lon="-8.613730017095804">
        <ele>139.53</ele>
        <time>2025-05-07T08:55:26Z</time>
      </trkpt>
      <trkpt lat="37.264796029776335" lon="-8.613624991849065">
        <ele>140.97</ele>
        <time>2025-05-07T08:55:27Z</time>
      </trkpt>
      <trkpt lat="37.265060981735587" lon="-8.613412007689476">
        <ele>143.84999999999999</ele>
        <time>2025-05-07T08:55:29Z</time>
      </trkpt>
      <trkpt lat="37.265159972012043" lon="-8.613284016028047">
        <ele>145.30000000000001</ele>
        <time>2025-05-07T08:55:30Z</time>
      </trkpt>
      <trkpt lat="37.26526097394526" lon="-8.613153006881475">
        <ele>146.74000000000001</ele>
        <time>2025-05-07T08:55:31Z</time>
      </trkpt>
      <trkpt lat="37.265330040827394" lon="-8.612973969429731">
        <ele>148.18000000000001</ele>
        <time>2025-05-07T08:55:32Z</time>
      </trkpt>
      <trkpt lat="37.26541000418365" lon="-8.612770037725568">
        <ele>150.09999999999999</ele>
        <time>2025-05-07T08:55:33Z</time>
      </trkpt>
      <trkpt lat="37.266047028824687" lon="-8.61071596853435">
        <ele>169.81</ele>
        <time>2025-05-07T08:55:42Z</time>
      </trkpt>
      <trkpt lat="37.266306029632688" lon="-8.610105011612177">
        <ele>176.06</ele>
        <time>2025-05-07T08:55:45Z</time>
      </trkpt>
      <trkpt lat="37.266431003808975" lon="-8.609931003302336">
        <ele>177.97999999999999</ele>
        <time>2025-05-07T08:55:46Z</time>
      </trkpt>
      <trkpt lat="37.266784971579909" lon="-8.609391041100025">
        <ele>184.22999999999999</ele>
        <time>2025-05-07T08:55:49Z</time>
      </trkpt>
      <trkpt lat="37.266952022910118" lon="-8.609042018651962">
        <ele>188.08000000000001</ele>
        <time>2025-05-07T08:55:51Z</time>
      </trkpt>
      <trkpt lat="37.267060987651348" lon="-8.608905980363488">
        <ele>190</ele>
        <time>2025-05-07T08:55:52Z</time>
      </trkpt>
      <trkpt lat="37.2671930026263" lon="-8.608773965388537">
        <ele>192.40000000000001</ele>
        <time>2025-05-07T08:55:53Z</time>
      </trkpt>
      <trkpt lat="37.267682002857327" lon="-8.608279014006257">
        <ele>200.09</ele>
        <time>2025-05-07T08:55:57Z</time>
      </trkpt>
      <trkpt lat="37.26777303032577" lon="-8.608154039829969">
        <ele>201.53</ele>
        <time>2025-05-07T08:55:58Z</time>
      </trkpt>
      <trkpt lat="37.267850982025266" lon="-8.608012972399592">
        <ele>202.97999999999999</ele>
        <time>2025-05-07T08:55:59Z</time>
      </trkpt>
      <trkpt lat="37.267899010330439" lon="-8.607846004888415">
        <ele>204.90000000000001</ele>
        <time>2025-05-07T08:56:00Z</time>
      </trkpt>
      <trkpt lat="37.267907978966832" lon="-8.607646012678742">
        <ele>206.81999999999999</ele>
        <time>2025-05-07T08:56:01Z</time>
      </trkpt>
      <trkpt lat="37.267884006723762" lon="-8.607430011034012">
        <ele>208.25999999999999</ele>
        <time>2025-05-07T08:56:02Z</time>
      </trkpt>
      <trkpt lat="37.267869003117085" lon="-8.607200011610985">
        <ele>210.19</ele>
        <time>2025-05-07T08:56:03Z</time>
      </trkpt>
      <trkpt lat="37.267829021438956" lon="-8.606057977303863">
        <ele>220.75999999999999</ele>
        <time>2025-05-07T08:56:09Z</time>
      </trkpt>
      <trkpt lat="37.267874032258987" lon="-8.605954041704536">
        <ele>221.72</ele>
        <time>2025-05-07T08:56:10Z</time>
      </trkpt>
      <trkpt lat="37.267933962866664" lon="-8.605925040319562">
        <ele>223.16</ele>
        <time>2025-05-07T08:56:11Z</time>
      </trkpt>
      <trkpt lat="37.268037982285023" lon="-8.605891009792686">
        <ele>224.61000000000001</ele>
        <time>2025-05-07T08:56:12Z</time>
      </trkpt>
      <trkpt lat="37.268166979774833" lon="-8.605850022286177">
        <ele>225.56999999999999</ele>
        <time>2025-05-07T08:56:13Z</time>
      </trkpt>
      <trkpt lat="37.268312992528081" lon="-8.605801993981004">
        <ele>227.00999999999999</ele>
        <time>2025-05-07T08:56:14Z</time>
      </trkpt>
      <trkpt lat="37.268453976139426" lon="-8.605756983160973">
        <ele>227.97</ele>
        <time>2025-05-07T08:56:15Z</time>
      </trkpt>
      <trkpt lat="37.268577022477984" lon="-8.605717001482844">
        <ele>228.93000000000001</ele>
        <time>2025-05-07T08:56:16Z</time>
      </trkpt>
      <trkpt lat="37.268669977784157" lon="-8.605632008984685">
        <ele>229.88999999999999</ele>
        <time>2025-05-07T08:56:17Z</time>
      </trkpt>
      <trkpt lat="37.268724963068962" lon="-8.605539975687861">
        <ele>230.84999999999999</ele>
        <time>2025-05-07T08:56:18Z</time>
      </trkpt>
      <trkpt lat="37.268752036616206" lon="-8.605432016775012">
        <ele>231.81</ele>
        <time>2025-05-07T08:56:19Z</time>
      </trkpt>
      <trkpt lat="37.268723035231233" lon="-8.60532196238637">
        <ele>232.78</ele>
        <time>2025-05-07T08:56:20Z</time>
      </trkpt>
      <trkpt lat="37.26867500692606" lon="-8.605206040665507">
        <ele>233.25999999999999</ele>
        <time>2025-05-07T08:56:21Z</time>
      </trkpt>
      <trkpt lat="37.268593031913042" lon="-8.605121970176697">
        <ele>234.22</ele>
        <time>2025-05-07T08:56:22Z</time>
      </trkpt>
      <trkpt lat="37.268476020544767" lon="-8.605066984891892">
        <ele>235.18000000000001</ele>
        <time>2025-05-07T08:56:23Z</time>
      </trkpt>
      <trkpt lat="37.268348028883338" lon="-8.605006970465183">
        <ele>236.62</ele>
        <time>2025-05-07T08:56:24Z</time>
      </trkpt>
      <trkpt lat="37.268234035000205" lon="-8.604918960481882">
        <ele>237.58000000000001</ele>
        <time>2025-05-07T08:56:25Z</time>
      </trkpt>
      <trkpt lat="37.268134960904717" lon="-8.604808989912272">
        <ele>238.53999999999999</ele>
        <time>2025-05-07T08:56:26Z</time>
      </trkpt>
      <trkpt lat="37.268060026690364" lon="-8.60467404127121">
        <ele>239.99000000000001</ele>
        <time>2025-05-07T08:56:27Z</time>
      </trkpt>
      <trkpt lat="37.267999006435275" lon="-8.604511013254523">
        <ele>240.94999999999999</ele>
        <time>2025-05-07T08:56:28Z</time>
      </trkpt>
      <trkpt lat="37.267900016158819" lon="-8.604217981919646">
        <ele>243.83000000000001</ele>
        <time>2025-05-07T08:56:30Z</time>
      </trkpt>
      <trkpt lat="37.267900016158819" lon="-8.604113040491939">
        <ele>245.27000000000001</ele>
        <time>2025-05-07T08:56:31Z</time>
      </trkpt>
      <trkpt lat="37.267935974523425" lon="-8.604043973609805">
        <ele>246.22999999999999</ele>
        <time>2025-05-07T08:56:32Z</time>
      </trkpt>
      <trkpt lat="37.267986014485359" lon="-8.603969039395452">
        <ele>247.19999999999999</ele>
        <time>2025-05-07T08:56:33Z</time>
      </trkpt>
      <trkpt lat="37.268046028912067" lon="-8.603927968069911">
        <ele>248.63999999999999</ele>
        <time>2025-05-07T08:56:34Z</time>
      </trkpt>
      <trkpt lat="37.268115011975169" lon="-8.603883041068912">
        <ele>249.59999999999999</ele>
        <time>2025-05-07T08:56:35Z</time>
      </trkpt>
      <trkpt lat="37.268195981159806" lon="-8.603883041068912">
        <ele>251.03999999999999</ele>
        <time>2025-05-07T08:56:36Z</time>
      </trkpt>
      <trkpt lat="37.268282985314727" lon="-8.603883041068912">
        <ele>252</ele>
        <time>2025-05-07T08:56:37Z</time>
      </trkpt>
      <trkpt lat="37.268370995298028" lon="-8.603935008868575">
        <ele>252.96000000000001</ele>
        <time>2025-05-07T08:56:38Z</time>
      </trkpt>
      <trkpt lat="37.268478032201529" lon="-8.603999968618155">
        <ele>253.93000000000001</ele>
        <time>2025-05-07T08:56:39Z</time>
      </trkpt>
      <trkpt lat="37.268596971407533" lon="-8.604072974994779">
        <ele>255.37</ele>
        <time>2025-05-07T08:56:40Z</time>
      </trkpt>
      <trkpt lat="37.268726974725723" lon="-8.60416098497808">
        <ele>256.81</ele>
        <time>2025-05-07T08:56:41Z</time>
      </trkpt>
      <trkpt lat="37.269673040136695" lon="-8.604893982410431">
        <ele>267.38</ele>
        <time>2025-05-07T08:56:47Z</time>
      </trkpt>
      <trkpt lat="37.270406037569046" lon="-8.605481972917914">
        <ele>277</ele>
        <time>2025-05-07T08:56:51Z</time>
      </trkpt>
      <trkpt lat="37.27129896171391" lon="-8.606150010600686">
        <ele>288.52999999999997</ele>
        <time>2025-05-07T08:56:57Z</time>
      </trkpt>
      <trkpt lat="37.272356003522873" lon="-8.606800027191639">
        <ele>291.89999999999998</ele>
        <time>2025-05-07T08:57:06Z</time>
      </trkpt>
      <trkpt lat="37.272569993510842" lon="-8.606914021074772">
        <ele>292.86000000000001</ele>
        <time>2025-05-07T08:57:08Z</time>
      </trkpt>
      <trkpt lat="37.27267200127244" lon="-8.606985015794635">
        <ele>293.81999999999999</ele>
        <time>2025-05-07T08:57:09Z</time>
      </trkpt>
      <trkpt lat="37.272750958800316" lon="-8.607094986364245">
        <ele>294.77999999999997</ele>
        <time>2025-05-07T08:57:10Z</time>
      </trkpt>
      <trkpt lat="37.272830000147223" lon="-8.607217026874423">
        <ele>295.74000000000001</ele>
        <time>2025-05-07T08:57:11Z</time>
      </trkpt>
      <trkpt lat="37.272910969331861" lon="-8.60734099522233">
        <ele>296.69999999999999</ele>
        <time>2025-05-07T08:57:12Z</time>
      </trkpt>
      <trkpt lat="37.273328974843025" lon="-8.607981037348509">
        <ele>303.43000000000001</ele>
        <time>2025-05-07T08:57:17Z</time>
      </trkpt>
      <trkpt lat="37.273412961512804" lon="-8.608048008754849">
        <ele>304.88</ele>
        <time>2025-05-07T08:57:18Z</time>
      </trkpt>
      <trkpt lat="37.273513963446021" lon="-8.608128977939487">
        <ele>306.31999999999999</ele>
        <time>2025-05-07T08:57:19Z</time>
      </trkpt>
      <trkpt lat="37.274768985807896" lon="-8.608740018680692">
        <ele>310.16000000000003</ele>
        <time>2025-05-07T08:57:29Z</time>
      </trkpt>
      <trkpt lat="37.274892032146454" lon="-8.608748987317085">
        <ele>310.16000000000003</ele>
        <time>2025-05-07T08:57:30Z</time>
      </trkpt>
      <trkpt lat="37.275009965524077" lon="-8.608730966225267">
        <ele>309.68000000000001</ele>
        <time>2025-05-07T08:57:31Z</time>
      </trkpt>
      <trkpt lat="37.275132006034255" lon="-8.608675980940461">
        <ele>309.68000000000001</ele>
        <time>2025-05-07T08:57:32Z</time>
      </trkpt>
      <trkpt lat="37.275253962725401" lon="-8.608620995655656">
        <ele>309.19999999999999</ele>
        <time>2025-05-07T08:57:33Z</time>
      </trkpt>
      <trkpt lat="37.275727959349751" lon="-8.608408011496067">
        <ele>309.68000000000001</ele>
        <time>2025-05-07T08:57:37Z</time>
      </trkpt>
      <trkpt lat="37.275834996253252" lon="-8.608336010947824">
        <ele>309.68000000000001</ele>
        <time>2025-05-07T08:57:38Z</time>
      </trkpt>
      <trkpt lat="37.27589400485158" lon="-8.608229979872704">
        <ele>310.16000000000003</ele>
        <time>2025-05-07T08:57:39Z</time>
      </trkpt>
      <trkpt lat="37.275946978479624" lon="-8.608112968504429">
        <ele>309.68000000000001</ele>
        <time>2025-05-07T08:57:40Z</time>
      </trkpt>
      <trkpt lat="37.275994000956416" lon="-8.607979025691748">
        <ele>309.68000000000001</ele>
        <time>2025-05-07T08:57:41Z</time>
      </trkpt>
      <trkpt lat="37.27604303508997" lon="-8.607838964089751">
        <ele>309.19999999999999</ele>
        <time>2025-05-07T08:57:42Z</time>
      </trkpt>
      <trkpt lat="37.276102965697646" lon="-8.607718013226986">
        <ele>309.19999999999999</ele>
        <time>2025-05-07T08:57:43Z</time>
      </trkpt>
      <trkpt lat="37.276197010651231" lon="-8.607622962445021">
        <ele>308.72000000000003</ele>
        <time>2025-05-07T08:57:44Z</time>
      </trkpt>
      <trkpt lat="37.27630203589797" lon="-8.607551967725158">
        <ele>308.24000000000001</ele>
        <time>2025-05-07T08:57:45Z</time>
      </trkpt>
      <trkpt lat="37.27643103338778" lon="-8.607503017410636">
        <ele>307.75999999999999</ele>
        <time>2025-05-07T08:57:46Z</time>
      </trkpt>
      <trkpt lat="37.276565982028842" lon="-8.60744995996356">
        <ele>307.75999999999999</ele>
        <time>2025-05-07T08:57:47Z</time>
      </trkpt>
      <trkpt lat="37.276955991983414" lon="-8.607278969138861">
        <ele>306.80000000000001</ele>
        <time>2025-05-07T08:57:50Z</time>
      </trkpt>
      <trkpt lat="37.277062023058534" lon="-8.607187019661069">
        <ele>306.31999999999999</ele>
        <time>2025-05-07T08:57:51Z</time>
      </trkpt>
      <trkpt lat="37.277153972536325" lon="-8.60705902799964">
        <ele>305.83999999999997</ele>
        <time>2025-05-07T08:57:52Z</time>
      </trkpt>
      <trkpt lat="37.277238965034485" lon="-8.606941010802984">
        <ele>305.36000000000001</ele>
        <time>2025-05-07T08:57:53Z</time>
      </trkpt>
      <trkpt lat="37.277321023866534" lon="-8.606826011091471">
        <ele>304.38999999999999</ele>
        <time>2025-05-07T08:57:54Z</time>
      </trkpt>
      <trkpt lat="37.27739998139441" lon="-8.606726014986634">
        <ele>303.91000000000003</ele>
        <time>2025-05-07T08:57:55Z</time>
      </trkpt>
      <trkpt lat="37.27750601246953" lon="-8.606656026095152">
        <ele>302.94999999999999</ele>
        <time>2025-05-07T08:57:56Z</time>
      </trkpt>
      <trkpt lat="37.27761497721076" lon="-8.606650996953249">
        <ele>302.47000000000003</ele>
        <time>2025-05-07T08:57:57Z</time>
      </trkpt>
      <trkpt lat="37.277717990800738" lon="-8.6066950019449">
        <ele>302.47000000000003</ele>
        <time>2025-05-07T08:57:58Z</time>
      </trkpt>
      <trkpt lat="37.277836007997394" lon="-8.606763985008001">
        <ele>301.99000000000001</ele>
        <time>2025-05-07T08:57:59Z</time>
      </trkpt>
      <trkpt lat="37.277933992445469" lon="-8.606849983334541">
        <ele>301.99000000000001</ele>
        <time>2025-05-07T08:58:00Z</time>
      </trkpt>
      <trkpt lat="37.278023008257151" lon="-8.60697696916759">
        <ele>301.99000000000001</ele>
        <time>2025-05-07T08:58:01Z</time>
      </trkpt>
      <trkpt lat="37.278115041553974" lon="-8.607107978314161">
        <ele>301.50999999999999</ele>
        <time>2025-05-07T08:58:02Z</time>
      </trkpt>
      <trkpt lat="37.278455011546612" lon="-8.607564959675074">
        <ele>302.47000000000003</ele>
        <time>2025-05-07T08:58:06Z</time>
      </trkpt>
      <trkpt lat="37.278549978509545" lon="-8.607628997415304">
        <ele>302.94999999999999</ele>
        <time>2025-05-07T08:58:07Z</time>
      </trkpt>
      <trkpt lat="37.278659027069807" lon="-8.607679959386587">
        <ele>303.43000000000001</ele>
        <time>2025-05-07T08:58:08Z</time>
      </trkpt>
      <trkpt lat="37.278914004564285" lon="-8.607775010168552">
        <ele>304.88</ele>
        <time>2025-05-07T08:58:10Z</time>
      </trkpt>
      <trkpt lat="37.279049959033728" lon="-8.607792025431991">
        <ele>305.36000000000001</ele>
        <time>2025-05-07T08:58:11Z</time>
      </trkpt>
      <trkpt lat="37.279187003150582" lon="-8.607809962704778">
        <ele>305.83999999999997</ele>
        <time>2025-05-07T08:58:12Z</time>
      </trkpt>
      <trkpt lat="37.279331004247069" lon="-8.607756989076734">
        <ele>306.31999999999999</ele>
        <time>2025-05-07T08:58:13Z</time>
      </trkpt>
      <trkpt lat="37.279473999515176" lon="-8.60770401544869">
        <ele>306.80000000000001</ele>
        <time>2025-05-07T08:58:14Z</time>
      </trkpt>
      <trkpt lat="37.27961297146976" lon="-8.607652969658375">
        <ele>307.27999999999997</ele>
        <time>2025-05-07T08:58:15Z</time>
      </trkpt>
      <trkpt lat="37.279746998101473" lon="-8.607604019343853">
        <ele>307.75999999999999</ele>
        <time>2025-05-07T08:58:16Z</time>
      </trkpt>
      <trkpt lat="37.279867026954889" lon="-8.607578035444021">
        <ele>307.75999999999999</ele>
        <time>2025-05-07T08:58:17Z</time>
      </trkpt>
      <trkpt lat="37.279989989474416" lon="-8.607591027393937">
        <ele>308.24000000000001</ele>
        <time>2025-05-07T08:58:18Z</time>
      </trkpt>
      <trkpt lat="37.280112029984593" lon="-8.607644001021981">
        <ele>307.75999999999999</ele>
        <time>2025-05-07T08:58:19Z</time>
      </trkpt>
      <trkpt lat="37.280240021646023" lon="-8.607714995741844">
        <ele>307.75999999999999</ele>
        <time>2025-05-07T08:58:20Z</time>
      </trkpt>
      <trkpt lat="37.280366001650691" lon="-8.607784984633327">
        <ele>307.27999999999997</ele>
        <time>2025-05-07T08:58:21Z</time>
      </trkpt>
      <trkpt lat="37.280488964170218" lon="-8.607817003503442">
        <ele>306.80000000000001</ele>
        <time>2025-05-07T08:58:22Z</time>
      </trkpt>
      <trkpt lat="37.280615027993917" lon="-8.607827983796597">
        <ele>306.31999999999999</ele>
        <time>2025-05-07T08:58:23Z</time>
      </trkpt>
      <trkpt lat="37.280735978856683" lon="-8.607794037088752">
        <ele>305.83999999999997</ele>
        <time>2025-05-07T08:58:24Z</time>
      </trkpt>
      <trkpt lat="37.280870005488396" lon="-8.607738967984915">
        <ele>304.88</ele>
        <time>2025-05-07T08:58:25Z</time>
      </trkpt>
      <trkpt lat="37.281014006584883" lon="-8.607679959386587">
        <ele>303.91000000000003</ele>
        <time>2025-05-07T08:58:26Z</time>
      </trkpt>
      <trkpt lat="37.282182024791837" lon="-8.607128011062741">
        <ele>301.99000000000001</ele>
        <time>2025-05-07T08:58:34Z</time>
      </trkpt>
      <trkpt lat="37.282309010624886" lon="-8.6071059666574">
        <ele>301.50999999999999</ele>
        <time>2025-05-07T08:58:35Z</time>
      </trkpt>
      <trkpt lat="37.282441025599837" lon="-8.607087023556233">
        <ele>301.50999999999999</ele>
        <time>2025-05-07T08:58:36Z</time>
      </trkpt>
      <trkpt lat="37.282573040574789" lon="-8.607098003849387">
        <ele>301.50999999999999</ele>
        <time>2025-05-07T08:58:37Z</time>
      </trkpt>
      <trkpt lat="37.282708995044231" lon="-8.607139997184277">
        <ele>301.50999999999999</ele>
        <time>2025-05-07T08:58:38Z</time>
      </trkpt>
      <trkpt lat="37.282838998362422" lon="-8.60723102465272">
        <ele>301.50999999999999</ele>
        <time>2025-05-07T08:58:39Z</time>
      </trkpt>
      <trkpt lat="37.2829610388726" lon="-8.607347030192614">
        <ele>301.50999999999999</ele>
        <time>2025-05-07T08:58:40Z</time>
      </trkpt>
      <trkpt lat="37.283067991957068" lon="-8.607476027682424">
        <ele>301.50999999999999</ele>
        <time>2025-05-07T08:58:41Z</time>
      </trkpt>
      <trkpt lat="37.283149966970086" lon="-8.607633020728827">
        <ele>302.47000000000003</ele>
        <time>2025-05-07T08:58:42Z</time>
      </trkpt>
      <trkpt lat="37.283214004710317" lon="-8.60781298018992">
        <ele>302.94999999999999</ele>
        <time>2025-05-07T08:58:43Z</time>
      </trkpt>
      <trkpt lat="37.283281981945038" lon="-8.608001992106438">
        <ele>303.91000000000003</ele>
        <time>2025-05-07T08:58:44Z</time>
      </trkpt>
      <trkpt lat="37.283431012183428" lon="-8.608320001512766">
        <ele>305.83999999999997</ele>
        <time>2025-05-07T08:58:46Z</time>
      </trkpt>
      <trkpt lat="37.283511981368065" lon="-8.608402982354164">
        <ele>306.80000000000001</ele>
        <time>2025-05-07T08:58:47Z</time>
      </trkpt>
      <trkpt lat="37.283618012443185" lon="-8.608470959588885">
        <ele>307.75999999999999</ele>
        <time>2025-05-07T08:58:48Z</time>
      </trkpt>
      <trkpt lat="37.283720020204782" lon="-8.608537008985877">
        <ele>309.19999999999999</ele>
        <time>2025-05-07T08:58:49Z</time>
      </trkpt>
      <trkpt lat="37.283824039623141" lon="-8.608586965128779">
        <ele>310.63999999999999</ele>
        <time>2025-05-07T08:58:50Z</time>
      </trkpt>
      <trkpt lat="37.283943984657526" lon="-8.608633987605572">
        <ele>311.60000000000002</ele>
        <time>2025-05-07T08:58:51Z</time>
      </trkpt>
      <trkpt lat="37.284441031515598" lon="-8.608830040320754">
        <ele>315.93000000000001</ele>
        <time>2025-05-07T08:58:56Z</time>
      </trkpt>
      <trkpt lat="37.2845100145787" lon="-8.60888896510005">
        <ele>316.41000000000003</ele>
        <time>2025-05-07T08:58:57Z</time>
      </trkpt>
      <trkpt lat="37.284568017348647" lon="-8.6089519970119">
        <ele>316.41000000000003</ele>
        <time>2025-05-07T08:58:58Z</time>
      </trkpt>
      <trkpt lat="37.284624008461833" lon="-8.609014023095369">
        <ele>316.88999999999999</ele>
        <time>2025-05-07T08:58:59Z</time>
      </trkpt>
      <trkpt lat="37.284679999575019" lon="-8.609075965359807">
        <ele>316.88999999999999</ele>
        <time>2025-05-07T08:59:00Z</time>
      </trkpt>
      <trkpt lat="37.284698020666838" lon="-8.609183002263308">
        <ele>316.88999999999999</ele>
        <time>2025-05-07T08:59:01Z</time>
      </trkpt>
      <trkpt lat="37.284716041758657" lon="-8.609292972832918">
        <ele>316.88999999999999</ele>
        <time>2025-05-07T08:59:02Z</time>
      </trkpt>
      <trkpt lat="37.284718975424767" lon="-8.609403027221561">
        <ele>316.88999999999999</ele>
        <time>2025-05-07T08:59:03Z</time>
      </trkpt>
      <trkpt lat="37.284713024273515" lon="-8.609517021104693">
        <ele>316.88999999999999</ele>
        <time>2025-05-07T08:59:04Z</time>
      </trkpt>
      <trkpt lat="37.284705983474851" lon="-8.609637971967459">
        <ele>316.88999999999999</ele>
        <time>2025-05-07T08:59:05Z</time>
      </trkpt>
      <trkpt lat="37.284697014838457" lon="-8.609763029962778">
        <ele>316.88999999999999</ele>
        <time>2025-05-07T08:59:06Z</time>
      </trkpt>
      <trkpt lat="37.284685028716922" lon="-8.609886998310685">
        <ele>316.88999999999999</ele>
        <time>2025-05-07T08:59:07Z</time>
      </trkpt>
      <trkpt lat="37.284672958776355" lon="-8.610011972486973">
        <ele>317.37</ele>
        <time>2025-05-07T08:59:08Z</time>
      </trkpt>
      <trkpt lat="37.2846619784832" lon="-8.610137030482292">
        <ele>317.37</ele>
        <time>2025-05-07T08:59:09Z</time>
      </trkpt>
      <trkpt lat="37.284675976261497" lon="-8.610259993001819">
        <ele>317.37</ele>
        <time>2025-05-07T08:59:10Z</time>
      </trkpt>
      <trkpt lat="37.284700032323599" lon="-8.610379016026855">
        <ele>317.37</ele>
        <time>2025-05-07T08:59:11Z</time>
      </trkpt>
      <trkpt lat="37.284753005951643" lon="-8.61047800630331">
        <ele>317.85000000000002</ele>
        <time>2025-05-07T08:59:12Z</time>
      </trkpt>
      <trkpt lat="37.284813020378351" lon="-8.610584959387779">
        <ele>318.32999999999998</ele>
        <time>2025-05-07T08:59:13Z</time>
      </trkpt>
      <trkpt lat="37.284873034805059" lon="-8.610694007948041">
        <ele>318.32999999999998</ele>
        <time>2025-05-07T08:59:14Z</time>
      </trkpt>
      <trkpt lat="37.284933971241117" lon="-8.610788974910975">
        <ele>318.81</ele>
        <time>2025-05-07T08:59:15Z</time>
      </trkpt>
      <trkpt lat="37.285147961229086" lon="-8.611002964898944">
        <ele>319.30000000000001</ele>
        <time>2025-05-07T08:59:18Z</time>
      </trkpt>
      <trkpt lat="37.285217028111219" lon="-8.611072031781077">
        <ele>319.77999999999997</ele>
        <time>2025-05-07T08:59:19Z</time>
      </trkpt>
      <trkpt lat="37.285287017002702" lon="-8.611135985702276">
        <ele>319.77999999999997</ele>
        <time>2025-05-07T08:59:20Z</time>
      </trkpt>
      <trkpt lat="37.285371003672481" lon="-8.611135985702276">
        <ele>320.25999999999999</ele>
        <time>2025-05-07T08:59:21Z</time>
      </trkpt>
      <trkpt lat="37.285463036969304" lon="-8.611119976267219">
        <ele>320.74000000000001</ele>
        <time>2025-05-07T08:59:22Z</time>
      </trkpt>
      <trkpt lat="37.285547023639083" lon="-8.611077982932329">
        <ele>321.69999999999999</ele>
        <time>2025-05-07T08:59:23Z</time>
      </trkpt>
      <trkpt lat="37.285631010308862" lon="-8.611034983769059">
        <ele>322.66000000000003</ele>
        <time>2025-05-07T08:59:24Z</time>
      </trkpt>
      <trkpt lat="37.286217994987965" lon="-8.610668024048209">
        <ele>327.47000000000003</ele>
        <time>2025-05-07T08:59:32Z</time>
      </trkpt>
      <trkpt lat="37.286217994987965" lon="-8.610571967437863">
        <ele>327.94999999999999</ele>
        <time>2025-05-07T08:59:33Z</time>
      </trkpt>
      <trkpt lat="37.286297958344221" lon="-8.610483035445213">
        <ele>328.91000000000003</ele>
        <time>2025-05-07T08:59:34Z</time>
      </trkpt>
      <trkpt lat="37.286289995536208" lon="-8.610388990491629">
        <ele>329.38999999999999</ele>
        <time>2025-05-07T08:59:35Z</time>
      </trkpt>
      <trkpt lat="37.286282032728195" lon="-8.610283965244889">
        <ele>329.87</ele>
        <time>2025-05-07T08:59:36Z</time>
      </trkpt>
      <trkpt lat="37.286134008318186" lon="-8.609148971736431">
        <ele>331.31</ele>
        <time>2025-05-07T08:59:45Z</time>
      </trkpt>
      <trkpt lat="37.286102995276451" lon="-8.609009999781847">
        <ele>331.31</ele>
        <time>2025-05-07T08:59:46Z</time>
      </trkpt>
      <trkpt lat="37.285753972828388" lon="-8.608069969341159">
        <ele>331.31</ele>
        <time>2025-05-07T08:59:53Z</time>
      </trkpt>
      <trkpt lat="37.285592034459114" lon="-8.60691100358963">
        <ele>329.87</ele>
        <time>2025-05-07T09:00:01Z</time>
      </trkpt>
      <trkpt lat="37.285603014752269" lon="-8.606779994443059">
        <ele>329.38999999999999</ele>
        <time>2025-05-07T09:00:02Z</time>
      </trkpt>
      <trkpt lat="37.285641990602016" lon="-8.606619983911514">
        <ele>328.91000000000003</ele>
        <time>2025-05-07T09:00:03Z</time>
      </trkpt>
      <trkpt lat="37.285682978108525" lon="-8.606488974764943">
        <ele>328.91000000000003</ele>
        <time>2025-05-07T09:00:04Z</time>
      </trkpt>
      <trkpt lat="37.285743998363614" lon="-8.606369029730558">
        <ele>328.43000000000001</ele>
        <time>2025-05-07T09:00:05Z</time>
      </trkpt>
      <trkpt lat="37.285802001133561" lon="-8.606251012533903">
        <ele>327.94999999999999</ele>
        <time>2025-05-07T09:00:06Z</time>
      </trkpt>
      <trkpt lat="37.286139037460089" lon="-8.605756983160973">
        <ele>326.5</ele>
        <time>2025-05-07T09:00:11Z</time>
      </trkpt>
      <trkpt lat="37.286227969452739" lon="-8.605675008147955">
        <ele>326.01999999999998</ele>
        <time>2025-05-07T09:00:12Z</time>
      </trkpt>
      <trkpt lat="37.286313967779279" lon="-8.605597978457809">
        <ele>325.06</ele>
        <time>2025-05-07T09:00:13Z</time>
      </trkpt>
      <trkpt lat="37.286427961662412" lon="-8.605540981516242">
        <ele>324.10000000000002</ele>
        <time>2025-05-07T09:00:14Z</time>
      </trkpt>
      <trkpt lat="37.286546984687448" lon="-8.605480967089534">
        <ele>322.66000000000003</ele>
        <time>2025-05-07T09:00:15Z</time>
      </trkpt>
      <trkpt lat="37.286663996055722" lon="-8.605464035645127">
        <ele>321.69999999999999</ele>
        <time>2025-05-07T09:00:16Z</time>
      </trkpt>
      <trkpt lat="37.286787964403629" lon="-8.605454983189702">
        <ele>321.22000000000003</ele>
        <time>2025-05-07T09:00:17Z</time>
      </trkpt>
      <trkpt lat="37.286911010742187" lon="-8.605441991239786">
        <ele>320.25999999999999</ele>
        <time>2025-05-07T09:00:18Z</time>
      </trkpt>
      <trkpt lat="37.287028022110462" lon="-8.605422964319587">
        <ele>319.30000000000001</ele>
        <time>2025-05-07T09:00:19Z</time>
      </trkpt>
      <trkpt lat="37.287142015993595" lon="-8.6053860001266">
        <ele>318.32999999999998</ele>
        <time>2025-05-07T09:00:20Z</time>
      </trkpt>
      <trkpt lat="37.287218039855361" lon="-8.605292038992047">
        <ele>317.37</ele>
        <time>2025-05-07T09:00:21Z</time>
      </trkpt>
      <trkpt lat="37.287296997383237" lon="-8.60519296489656">
        <ele>316.88999999999999</ele>
        <time>2025-05-07T09:00:22Z</time>
      </trkpt>
      <trkpt lat="37.287377966567874" lon="-8.605091040953994">
        <ele>315.93000000000001</ele>
        <time>2025-05-07T09:00:23Z</time>
      </trkpt>
      <trkpt lat="37.287494977936149" lon="-8.605045024305582">
        <ele>314.97000000000003</ele>
        <time>2025-05-07T09:00:24Z</time>
      </trkpt>
      <trkpt lat="37.287609977647662" lon="-8.605004958808422">
        <ele>314.00999999999999</ele>
        <time>2025-05-07T09:00:25Z</time>
      </trkpt>
      <trkpt lat="37.287726989015937" lon="-8.604962965473533">
        <ele>313.05000000000001</ele>
        <time>2025-05-07T09:00:26Z</time>
      </trkpt>
      <trkpt lat="37.287851963192225" lon="-8.604961959645152">
        <ele>312.56999999999999</ele>
        <time>2025-05-07T09:00:27Z</time>
      </trkpt>
      <trkpt lat="37.287988001480699" lon="-8.604971012100577">
        <ele>311.60000000000002</ele>
        <time>2025-05-07T09:00:28Z</time>
      </trkpt>
      <trkpt lat="37.28814197704196" lon="-8.604993978515267">
        <ele>311.12</ele>
        <time>2025-05-07T09:00:29Z</time>
      </trkpt>
      <trkpt lat="37.288301987573504" lon="-8.605047035962343">
        <ele>310.63999999999999</ele>
        <time>2025-05-07T09:00:30Z</time>
      </trkpt>
      <trkpt lat="37.289137998595834" lon="-8.605306036770344">
        <ele>307.27999999999997</ele>
        <time>2025-05-07T09:00:36Z</time>
      </trkpt>
      <trkpt lat="37.289231959730387" lon="-8.605302013456821">
        <ele>306.80000000000001</ele>
        <time>2025-05-07T09:00:37Z</time>
      </trkpt>
      <trkpt lat="37.289292979985476" lon="-8.605278041213751">
        <ele>305.83999999999997</ele>
        <time>2025-05-07T09:00:38Z</time>
      </trkpt>
      <trkpt lat="37.289329022169113" lon="-8.605205034837127">
        <ele>304.88</ele>
        <time>2025-05-07T09:00:39Z</time>
      </trkpt>
      <trkpt lat="37.289355006068945" lon="-8.605119036510587">
        <ele>304.38999999999999</ele>
        <time>2025-05-07T09:00:40Z</time>
      </trkpt>
      <trkpt lat="37.289342014119029" lon="-8.604963971301913">
        <ele>303.91000000000003</ele>
        <time>2025-05-07T09:00:41Z</time>
      </trkpt>
      <trkpt lat="37.289327010512352" lon="-8.604782000184059">
        <ele>303.43000000000001</ele>
        <time>2025-05-07T09:00:42Z</time>
      </trkpt>
      <trkpt lat="37.289315024390817" lon="-8.604583013802767">
        <ele>303.43000000000001</ele>
        <time>2025-05-07T09:00:43Z</time>
      </trkpt>
      <trkpt lat="37.289315024390817" lon="-8.604385033249855">
        <ele>303.43000000000001</ele>
        <time>2025-05-07T09:00:44Z</time>
      </trkpt>
      <trkpt lat="37.289314018562436" lon="-8.604044979438186">
        <ele>303.43000000000001</ele>
        <time>2025-05-07T09:00:46Z</time>
      </trkpt>
      <trkpt lat="37.289293985813856" lon="-8.603898966684938">
        <ele>303.43000000000001</ele>
        <time>2025-05-07T09:00:47Z</time>
      </trkpt>
      <trkpt lat="37.289272025227547" lon="-8.603733005002141">
        <ele>303.43000000000001</ele>
        <time>2025-05-07T09:00:48Z</time>
      </trkpt>
      <trkpt lat="37.289212010800838" lon="-8.603672990575433">
        <ele>303.43000000000001</ele>
        <time>2025-05-07T09:00:49Z</time>
      </trkpt>
      <trkpt lat="37.28910799138248" lon="-8.603630997240543">
        <ele>303.43000000000001</ele>
        <time>2025-05-07T09:00:50Z</time>
      </trkpt>
      <trkpt lat="37.288987040519714" lon="-8.603653963655233">
        <ele>303.43000000000001</ele>
        <time>2025-05-07T09:00:51Z</time>
      </trkpt>
      <trkpt lat="37.288861982524395" lon="-8.603693023324013">
        <ele>303.91000000000003</ele>
        <time>2025-05-07T09:00:52Z</time>
      </trkpt>
      <trkpt lat="37.288732985034585" lon="-8.603733005002141">
        <ele>304.88</ele>
        <time>2025-05-07T09:00:53Z</time>
      </trkpt>
      <trkpt lat="37.288503991439939" lon="-8.603803999722004">
        <ele>306.31999999999999</ele>
        <time>2025-05-07T09:00:55Z</time>
      </trkpt>
      <trkpt lat="37.28840097784996" lon="-8.603791007772088">
        <ele>306.80000000000001</ele>
        <time>2025-05-07T09:00:56Z</time>
      </trkpt>
      <trkpt lat="37.288284972310066" lon="-8.603733005002141">
        <ele>307.27999999999997</ele>
        <time>2025-05-07T09:00:57Z</time>
      </trkpt>
      <trkpt lat="37.288196962326765" lon="-8.60362496227026">
        <ele>308.24000000000001</ele>
        <time>2025-05-07T09:00:58Z</time>
      </trkpt>
      <trkpt lat="37.288090009242296" lon="-8.603492025285959">
        <ele>309.19999999999999</ele>
        <time>2025-05-07T09:00:59Z</time>
      </trkpt>
      <trkpt lat="37.288039969280362" lon="-8.603325979784131">
        <ele>309.68000000000001</ele>
        <time>2025-05-07T09:01:00Z</time>
      </trkpt>
      <trkpt lat="37.288007028400898" lon="-8.603134034201503">
        <ele>310.63999999999999</ele>
        <time>2025-05-07T09:01:01Z</time>
      </trkpt>
      <trkpt lat="37.287980038672686" lon="-8.602937981486321">
        <ele>311.60000000000002</ele>
        <time>2025-05-07T09:01:02Z</time>
      </trkpt>
      <trkpt lat="37.287976015359163" lon="-8.602727008983493">
        <ele>312.56999999999999</ele>
        <time>2025-05-07T09:01:03Z</time>
      </trkpt>
      <trkpt lat="37.288009962067008" lon="-8.602516036480665">
        <ele>313.52999999999997</ele>
        <time>2025-05-07T09:01:04Z</time>
      </trkpt>
      <trkpt lat="37.288047010079026" lon="-8.602290982380509">
        <ele>314.00999999999999</ele>
        <time>2025-05-07T09:01:05Z</time>
      </trkpt>
      <trkpt lat="37.288083974272013" lon="-8.602062994614244">
        <ele>314.97000000000003</ele>
        <time>2025-05-07T09:01:06Z</time>
      </trkpt>
      <trkpt lat="37.288219006732106" lon="-8.601637026295066">
        <ele>316.41000000000003</ele>
        <time>2025-05-07T09:01:08Z</time>
      </trkpt>
      <trkpt lat="37.288724016398191" lon="-8.600416034460068">
        <ele>321.69999999999999</ele>
        <time>2025-05-07T09:01:15Z</time>
      </trkpt>
      <trkpt lat="37.289461037144065" lon="-8.598794974386692">
        <ele>319.77999999999997</ele>
        <time>2025-05-07T09:01:25Z</time>
      </trkpt>
      <trkpt lat="37.289934027940035" lon="-8.598266998305917">
        <ele>319.77999999999997</ele>
        <time>2025-05-07T09:01:31Z</time>
      </trkpt>
      <trkpt lat="37.290016002953053" lon="-8.598213018849492">
        <ele>319.77999999999997</ele>
        <time>2025-05-07T09:01:32Z</time>
      </trkpt>
      <trkpt lat="37.290620002895594" lon="-8.598002968356013">
        <ele>319.30000000000001</ele>
        <time>2025-05-07T09:01:37Z</time>
      </trkpt>
      <trkpt lat="37.290773978456855" lon="-8.598002968356013">
        <ele>319.30000000000001</ele>
        <time>2025-05-07T09:01:38Z</time>
      </trkpt>
      <trkpt lat="37.291227020323277" lon="-8.597978996112943">
        <ele>318.81</ele>
        <time>2025-05-07T09:01:41Z</time>
      </trkpt>
      <trkpt lat="37.291356017813087" lon="-8.597964998334646">
        <ele>318.81</ele>
        <time>2025-05-07T09:01:42Z</time>
      </trkpt>
      <trkpt lat="37.291449978947639" lon="-8.597913030534983">
        <ele>318.81</ele>
        <time>2025-05-07T09:01:43Z</time>
      </trkpt>
      <trkpt lat="37.291526002809405" lon="-8.597846981137991">
        <ele>318.32999999999998</ele>
        <time>2025-05-07T09:01:44Z</time>
      </trkpt>
      <trkpt lat="37.291567996144295" lon="-8.597774980589747">
        <ele>317.85000000000002</ele>
        <time>2025-05-07T09:01:45Z</time>
      </trkpt>
      <trkpt lat="37.291558021679521" lon="-8.597671966999769">
        <ele>317.85000000000002</ele>
        <time>2025-05-07T09:01:46Z</time>
      </trkpt>
      <trkpt lat="37.291503036394715" lon="-8.597616981714964">
        <ele>317.37</ele>
        <time>2025-05-07T09:01:47Z</time>
      </trkpt>
      <trkpt lat="37.291389964520931" lon="-8.5975650139153">
        <ele>316.88999999999999</ele>
        <time>2025-05-07T09:01:48Z</time>
      </trkpt>
      <trkpt lat="37.291273036971688" lon="-8.597511034458876">
        <ele>316.41000000000003</ele>
        <time>2025-05-07T09:01:49Z</time>
      </trkpt>
      <trkpt lat="37.291155019775033" lon="-8.597439033910632">
        <ele>315.93000000000001</ele>
        <time>2025-05-07T09:01:50Z</time>
      </trkpt>
      <trkpt lat="37.291030967608094" lon="-8.597351023927331">
        <ele>315.93000000000001</ele>
        <time>2025-05-07T09:01:51Z</time>
      </trkpt>
      <trkpt lat="37.290904987603426" lon="-8.597250021994114">
        <ele>315.93000000000001</ele>
        <time>2025-05-07T09:01:52Z</time>
      </trkpt>
      <trkpt lat="37.290799962356687" lon="-8.597119012847543">
        <ele>315.44999999999999</ele>
        <time>2025-05-07T09:01:53Z</time>
      </trkpt>
      <trkpt lat="37.290702983736992" lon="-8.596997978165746">
        <ele>315.44999999999999</ele>
        <time>2025-05-07T09:01:54Z</time>
      </trkpt>
      <trkpt lat="37.290615979582071" lon="-8.596889013424516">
        <ele>315.44999999999999</ele>
        <time>2025-05-07T09:01:55Z</time>
      </trkpt>
      <trkpt lat="37.290557976812124" lon="-8.596762027591467">
        <ele>314.97000000000003</ele>
        <time>2025-05-07T09:01:56Z</time>
      </trkpt>
      <trkpt lat="37.290521012619138" lon="-8.596625989302993">
        <ele>314.97000000000003</ele>
        <time>2025-05-07T09:01:57Z</time>
      </trkpt>
      <trkpt lat="37.290539033710957" lon="-8.596466984599829">
        <ele>314.97000000000003</ele>
        <time>2025-05-07T09:01:58Z</time>
      </trkpt>
      <trkpt lat="37.29056702926755" lon="-8.59629699960351">
        <ele>314.49000000000001</ele>
        <time>2025-05-07T09:01:59Z</time>
      </trkpt>
      <trkpt lat="37.290596030652523" lon="-8.596113016828895">
        <ele>314.49000000000001</ele>
        <time>2025-05-07T09:02:00Z</time>
      </trkpt>
      <trkpt lat="37.290630983188748" lon="-8.595920987427235">
        <ele>314.49000000000001</ele>
        <time>2025-05-07T09:02:01Z</time>
      </trkpt>
      <trkpt lat="37.290888978168368" lon="-8.595101991668344">
        <ele>314.49000000000001</ele>
        <time>2025-05-07T09:02:06Z</time>
      </trkpt>
      <trkpt lat="37.290924014523625" lon="-8.595021022483707">
        <ele>314.49000000000001</ele>
        <time>2025-05-07T09:02:07Z</time>
      </trkpt>
      <trkpt lat="37.291027028113604" lon="-8.594918008893728">
        <ele>314.49000000000001</ele>
        <time>2025-05-07T09:02:08Z</time>
      </trkpt>
      <trkpt lat="37.291102968156338" lon="-8.594881966710091">
        <ele>314.49000000000001</ele>
        <time>2025-05-07T09:02:09Z</time>
      </trkpt>
      <trkpt lat="37.291214028373361" lon="-8.594860006123781">
        <ele>314.49000000000001</ele>
        <time>2025-05-07T09:02:10Z</time>
      </trkpt>
      <trkpt lat="37.291374960914254" lon="-8.594827987253666">
        <ele>314.49000000000001</ele>
        <time>2025-05-07T09:02:11Z</time>
      </trkpt>
      <trkpt lat="37.2914710175246" lon="-8.594834022223949">
        <ele>314.49000000000001</ele>
        <time>2025-05-07T09:02:12Z</time>
      </trkpt>
      <trkpt lat="37.291612001135945" lon="-8.594842990860343">
        <ele>314.49000000000001</ele>
        <time>2025-05-07T09:02:13Z</time>
      </trkpt>
      <trkpt lat="37.291757008060813" lon="-8.594833016395569">
        <ele>314.00999999999999</ele>
        <time>2025-05-07T09:02:14Z</time>
      </trkpt>
      <trkpt lat="37.291889023035765" lon="-8.594779036939144">
        <ele>314.00999999999999</ele>
        <time>2025-05-07T09:02:15Z</time>
      </trkpt>
      <trkpt lat="37.292015003040433" lon="-8.59472799114883">
        <ele>313.52999999999997</ele>
        <time>2025-05-07T09:02:16Z</time>
      </trkpt>
      <trkpt lat="37.29213603772223" lon="-8.594678035005927">
        <ele>313.52999999999997</ele>
        <time>2025-05-07T09:02:17Z</time>
      </trkpt>
      <trkpt lat="37.29273903183639" lon="-8.594539985060692">
        <ele>313.52999999999997</ele>
        <time>2025-05-07T09:02:22Z</time>
      </trkpt>
      <trkpt lat="37.292828969657421" lon="-8.59449002891779">
        <ele>313.52999999999997</ele>
        <time>2025-05-07T09:02:23Z</time>
      </trkpt>
      <trkpt lat="37.292888984084129" lon="-8.59440797008574">
        <ele>313.05000000000001</ele>
        <time>2025-05-07T09:02:24Z</time>
      </trkpt>
      <trkpt lat="37.29291102848947" lon="-8.594309985637665">
        <ele>312.56999999999999</ele>
        <time>2025-05-07T09:02:25Z</time>
      </trkpt>
      <trkpt lat="37.292895019054413" lon="-8.594219963997603">
        <ele>312.08999999999997</ele>
        <time>2025-05-07T09:02:26Z</time>
      </trkpt>
      <trkpt lat="37.292841961607337" lon="-8.594131032004952">
        <ele>311.60000000000002</ele>
        <time>2025-05-07T09:02:27Z</time>
      </trkpt>
      <trkpt lat="37.292751017957926" lon="-8.594058025628328">
        <ele>311.60000000000002</ele>
        <time>2025-05-07T09:02:28Z</time>
      </trkpt>
      <trkpt lat="37.292642975226045" lon="-8.59401703812182">
        <ele>311.12</ele>
        <time>2025-05-07T09:02:29Z</time>
      </trkpt>
      <trkpt lat="37.292522024363279" lon="-8.593973033130169">
        <ele>310.63999999999999</ele>
        <time>2025-05-07T09:02:30Z</time>
      </trkpt>
      <trkpt lat="37.292391015216708" lon="-8.593925004824996">
        <ele>310.63999999999999</ele>
        <time>2025-05-07T09:02:31Z</time>
      </trkpt>
      <trkpt lat="37.29179497808218" lon="-8.593701962381601">
        <ele>309.19999999999999</ele>
        <time>2025-05-07T09:02:35Z</time>
      </trkpt>
      <trkpt lat="37.291642008349299" lon="-8.59363398514688">
        <ele>308.72000000000003</ele>
        <time>2025-05-07T09:02:36Z</time>
      </trkpt>
      <trkpt lat="37.291181003674865" lon="-8.593419995158911">
        <ele>308.24000000000001</ele>
        <time>2025-05-07T09:02:39Z</time>
      </trkpt>
      <trkpt lat="37.291034990921617" lon="-8.593338020145893">
        <ele>308.24000000000001</ele>
        <time>2025-05-07T09:02:40Z</time>
      </trkpt>
      <trkpt lat="37.290782025083899" lon="-8.593139033764601">
        <ele>308.72000000000003</ele>
        <time>2025-05-07T09:02:42Z</time>
      </trkpt>
      <trkpt lat="37.290684040635824" lon="-8.592998972162604">
        <ele>308.72000000000003</ele>
        <time>2025-05-07T09:02:43Z</time>
      </trkpt>
      <trkpt lat="37.29059100151062" lon="-8.592857988551259">
        <ele>308.72000000000003</ele>
        <time>2025-05-07T09:02:44Z</time>
      </trkpt>
      <trkpt lat="37.290491005405784" lon="-8.592708958312869">
        <ele>308.72000000000003</ele>
        <time>2025-05-07T09:02:45Z</time>
      </trkpt>
      <trkpt lat="37.290391009300947" lon="-8.59255900606513">
        <ele>308.72000000000003</ele>
        <time>2025-05-07T09:02:46Z</time>
      </trkpt>
      <trkpt lat="37.290322026237845" lon="-8.592381980270147">
        <ele>309.19999999999999</ele>
        <time>2025-05-07T09:02:47Z</time>
      </trkpt>
      <trkpt lat="37.290267962962389" lon="-8.592197997495532">
        <ele>309.19999999999999</ele>
        <time>2025-05-07T09:02:48Z</time>
      </trkpt>
      <trkpt lat="37.290235022082925" lon="-8.592001022771001">
        <ele>309.19999999999999</ele>
        <time>2025-05-07T09:02:49Z</time>
      </trkpt>
      <trkpt lat="37.290210966020823" lon="-8.591804970055819">
        <ele>309.68000000000001</ele>
        <time>2025-05-07T09:02:50Z</time>
      </trkpt>
      <trkpt lat="37.290198979899287" lon="-8.59161201864481">
        <ele>310.16000000000003</ele>
        <time>2025-05-07T09:02:51Z</time>
      </trkpt>
      <trkpt lat="37.29022404178977" lon="-8.591416971758008">
        <ele>311.12</ele>
        <time>2025-05-07T09:02:52Z</time>
      </trkpt>
      <trkpt lat="37.290270980447531" lon="-8.591230977326632">
        <ele>311.60000000000002</ele>
        <time>2025-05-07T09:02:53Z</time>
      </trkpt>
      <trkpt lat="37.290336024016142" lon="-8.591049006208777">
        <ele>311.60000000000002</ele>
        <time>2025-05-07T09:02:54Z</time>
      </trkpt>
      <trkpt lat="37.290404001250863" lon="-8.590857982635498">
        <ele>312.56999999999999</ele>
        <time>2025-05-07T09:02:55Z</time>
      </trkpt>
      <trkpt lat="37.290872968733311" lon="-8.589633973315358">
        <ele>316.41000000000003</ele>
        <time>2025-05-07T09:03:02Z</time>
      </trkpt>
      <trkpt lat="37.290965002030134" lon="-8.589527020230889">
        <ele>316.88999999999999</ele>
        <time>2025-05-07T09:03:03Z</time>
      </trkpt>
      <trkpt lat="37.291148984804749" lon="-8.589312024414539">
        <ele>317.85000000000002</ele>
        <time>2025-05-07T09:03:05Z</time>
      </trkpt>
      <trkpt lat="37.291228026151657" lon="-8.589204987511039">
        <ele>317.85000000000002</ele>
        <time>2025-05-07T09:03:06Z</time>
      </trkpt>
      <trkpt lat="37.291288962587714" lon="-8.589099040254951">
        <ele>318.32999999999998</ele>
        <time>2025-05-07T09:03:07Z</time>
      </trkpt>
      <trkpt lat="37.291288962587714" lon="-8.588947998359799">
        <ele>318.32999999999998</ele>
        <time>2025-05-07T09:03:08Z</time>
      </trkpt>
      <trkpt lat="37.291288962587714" lon="-8.588798968121409">
        <ele>318.32999999999998</ele>
        <time>2025-05-07T09:03:09Z</time>
      </trkpt>
      <trkpt lat="37.291288962587714" lon="-8.588645998388529">
        <ele>318.32999999999998</ele>
        <time>2025-05-07T09:03:10Z</time>
      </trkpt>
      <trkpt lat="37.291288962587714" lon="-8.588346010074019">
        <ele>318.81</ele>
        <time>2025-05-07T09:03:12Z</time>
      </trkpt>
      <trkpt lat="37.291301032528281" lon="-8.588211983442307">
        <ele>318.81</ele>
        <time>2025-05-07T09:03:13Z</time>
      </trkpt>
      <trkpt lat="37.291334979236126" lon="-8.588081980124116">
        <ele>318.81</ele>
        <time>2025-05-07T09:03:14Z</time>
      </trkpt>
      <trkpt lat="37.291509993374348" lon="-8.58768199570477">
        <ele>317.85000000000002</ele>
        <time>2025-05-07T09:03:17Z</time>
      </trkpt>
      <trkpt lat="37.291570007801056" lon="-8.587544029578567">
        <ele>316.88999999999999</ele>
        <time>2025-05-07T09:03:18Z</time>
      </trkpt>
      <trkpt lat="37.291627004742622" lon="-8.587413020431995">
        <ele>317.37</ele>
        <time>2025-05-07T09:03:19Z</time>
      </trkpt>
      <trkpt lat="37.291681990027428" lon="-8.587287040427327">
        <ele>317.37</ele>
        <time>2025-05-07T09:03:20Z</time>
      </trkpt>
      <trkpt lat="37.291765976697206" lon="-8.587200958281755">
        <ele>317.37</ele>
        <time>2025-05-07T09:03:21Z</time>
      </trkpt>
      <trkpt lat="37.291868990287185" lon="-8.587124012410641">
        <ele>317.85000000000002</ele>
        <time>2025-05-07T09:03:22Z</time>
      </trkpt>
      <trkpt lat="37.291984995827079" lon="-8.587045976892114">
        <ele>318.32999999999998</ele>
        <time>2025-05-07T09:03:23Z</time>
      </trkpt>
      <trkpt lat="37.292715981602669" lon="-8.586738025769591">
        <ele>321.22000000000003</ele>
        <time>2025-05-07T09:03:29Z</time>
      </trkpt>
      <trkpt lat="37.292812960222363" lon="-8.586718998849392">
        <ele>321.69999999999999</ele>
        <time>2025-05-07T09:03:30Z</time>
      </trkpt>
      <trkpt lat="37.292897030711174" lon="-8.586703995242715">
        <ele>321.69999999999999</ele>
        <time>2025-05-07T09:03:31Z</time>
      </trkpt>
      <trkpt lat="37.292952015995979" lon="-8.586682034656405">
        <ele>322.18000000000001</ele>
        <time>2025-05-07T09:03:32Z</time>
      </trkpt>
      <trkpt lat="37.29299702681601" lon="-8.586625037714839">
        <ele>322.18000000000001</ele>
        <time>2025-05-07T09:03:33Z</time>
      </trkpt>
      <trkpt lat="37.292998032644391" lon="-8.586507020518184">
        <ele>322.18000000000001</ele>
        <time>2025-05-07T09:03:34Z</time>
      </trkpt>
      <trkpt lat="37.29295302182436" lon="-8.586383974179626">
        <ele>322.18000000000001</ele>
        <time>2025-05-07T09:03:35Z</time>
      </trkpt>
      <trkpt lat="37.292902981862426" lon="-8.586243996396661">
        <ele>322.66000000000003</ele>
        <time>2025-05-07T09:03:36Z</time>
      </trkpt>
      <trkpt lat="37.292640963569283" lon="-8.585515022277832">
        <ele>324.10000000000002</ele>
        <time>2025-05-07T09:03:41Z</time>
      </trkpt>
      <trkpt lat="37.292640963569283" lon="-8.585392981767654">
        <ele>324.57999999999998</ele>
        <time>2025-05-07T09:03:42Z</time>
      </trkpt>
      <trkpt lat="37.292664013803005" lon="-8.585280999541283">
        <ele>324.10000000000002</ele>
        <time>2025-05-07T09:03:43Z</time>
      </trkpt>
      <trkpt lat="37.292705001309514" lon="-8.585129035636783">
        <ele>324.10000000000002</ele>
        <time>2025-05-07T09:03:44Z</time>
      </trkpt>
      <trkpt lat="37.292754035443068" lon="-8.585003977641463">
        <ele>323.62</ele>
        <time>2025-05-07T09:03:45Z</time>
      </trkpt>
      <trkpt lat="37.292941035702825" lon="-8.584527969360352">
        <ele>323.13999999999999</ele>
        <time>2025-05-07T09:03:48Z</time>
      </trkpt>
      <trkpt lat="37.292984034866095" lon="-8.584398971870542">
        <ele>323.13999999999999</ele>
        <time>2025-05-07T09:03:49Z</time>
      </trkpt>
      <trkpt lat="37.293013036251068" lon="-8.584261005744338">
        <ele>323.13999999999999</ele>
        <time>2025-05-07T09:03:50Z</time>
      </trkpt>
      <trkpt lat="37.293073972687125" lon="-8.5839659627527">
        <ele>323.13999999999999</ele>
        <time>2025-05-07T09:03:52Z</time>
      </trkpt>
      <trkpt lat="37.29310599155724" lon="-8.583811987191439">
        <ele>323.13999999999999</ele>
        <time>2025-05-07T09:03:53Z</time>
      </trkpt>
      <trkpt lat="37.293172962963581" lon="-8.58349297195673">
        <ele>323.62</ele>
        <time>2025-05-07T09:03:55Z</time>
      </trkpt>
      <trkpt lat="37.293204981833696" lon="-8.583328016102314">
        <ele>323.62</ele>
        <time>2025-05-07T09:03:56Z</time>
      </trkpt>
      <trkpt lat="37.293231971561909" lon="-8.583170017227531">
        <ele>323.62</ele>
        <time>2025-05-07T09:03:57Z</time>
      </trkpt>
      <trkpt lat="37.293262984603643" lon="-8.582983016967773">
        <ele>323.62</ele>
        <time>2025-05-07T09:03:58Z</time>
      </trkpt>
      <trkpt lat="37.293330039829016" lon="-8.582855025306344">
        <ele>324.10000000000002</ele>
        <time>2025-05-07T09:03:59Z</time>
      </trkpt>
      <trkpt lat="37.293408997356892" lon="-8.582704989239574">
        <ele>324.10000000000002</ele>
        <time>2025-05-07T09:04:00Z</time>
      </trkpt>
      <trkpt lat="37.293482003733516" lon="-8.582556964829564">
        <ele>324.57999999999998</ele>
        <time>2025-05-07T09:04:01Z</time>
      </trkpt>
      <trkpt lat="37.293527014553547" lon="-8.582393014803529">
        <ele>324.57999999999998</ele>
        <time>2025-05-07T09:04:02Z</time>
      </trkpt>
      <trkpt lat="37.293546963483095" lon="-8.582218000665307">
        <ele>325.06</ele>
        <time>2025-05-07T09:04:03Z</time>
      </trkpt>
      <trkpt lat="37.293561967089772" lon="-8.581835031509399">
        <ele>325.06</ele>
        <time>2025-05-07T09:04:05Z</time>
      </trkpt>
      <trkpt lat="37.293590968474746" lon="-8.581638978794217">
        <ele>325.54000000000002</ele>
        <time>2025-05-07T09:04:06Z</time>
      </trkpt>
      <trkpt lat="37.293863967061043" lon="-8.580000987276435">
        <ele>327.94999999999999</ele>
        <time>2025-05-07T09:04:14Z</time>
      </trkpt>
      <trkpt lat="37.293936973437667" lon="-8.579812981188297">
        <ele>327.94999999999999</ele>
        <time>2025-05-07T09:04:15Z</time>
      </trkpt>
      <trkpt lat="37.294014003127813" lon="-8.579613994807005">
        <ele>328.43000000000001</ele>
        <time>2025-05-07T09:04:16Z</time>
      </trkpt>
      <trkpt lat="37.29411500506103" lon="-8.579481979832053">
        <ele>328.91000000000003</ele>
        <time>2025-05-07T09:04:17Z</time>
      </trkpt>
      <trkpt lat="37.294226987287402" lon="-8.579333033412695">
        <ele>329.38999999999999</ele>
        <time>2025-05-07T09:04:18Z</time>
      </trkpt>
      <trkpt lat="37.294507026672363" lon="-8.578935982659459">
        <ele>330.82999999999998</ele>
        <time>2025-05-07T09:04:21Z</time>
      </trkpt>
      <trkpt lat="37.294550025835633" lon="-8.578819977119565">
        <ele>331.31</ele>
        <time>2025-05-07T09:04:22Z</time>
      </trkpt>
      <trkpt lat="37.294550025835633" lon="-8.578670024871826">
        <ele>331.79000000000002</ele>
        <time>2025-05-07T09:04:23Z</time>
      </trkpt>
      <trkpt lat="37.294517001137137" lon="-8.578534992411733">
        <ele>332.26999999999998</ele>
        <time>2025-05-07T09:04:24Z</time>
      </trkpt>
      <trkpt lat="37.294465033337474" lon="-8.578389985486865">
        <ele>332.75</ele>
        <time>2025-05-07T09:04:25Z</time>
      </trkpt>
      <trkpt lat="37.294408036395907" lon="-8.57822997495532">
        <ele>333.23000000000002</ele>
        <time>2025-05-07T09:04:26Z</time>
      </trkpt>
      <trkpt lat="37.294346010312438" lon="-8.578058984130621">
        <ele>334.19999999999999</ele>
        <time>2025-05-07T09:04:27Z</time>
      </trkpt>
      <trkpt lat="37.294281972572207" lon="-8.577880030497909">
        <ele>335.16000000000003</ele>
        <time>2025-05-07T09:04:28Z</time>
      </trkpt>
      <trkpt lat="37.294224975630641" lon="-8.577695963904262">
        <ele>336.60000000000002</ele>
        <time>2025-05-07T09:04:29Z</time>
      </trkpt>
      <trkpt lat="37.294087009504437" lon="-8.577005965635181">
        <ele>341.41000000000003</ele>
        <time>2025-05-07T09:04:33Z</time>
      </trkpt>
      <trkpt lat="37.294088015332818" lon="-8.576862970367074">
        <ele>342.37</ele>
        <time>2025-05-07T09:04:34Z</time>
      </trkpt>
      <trkpt lat="37.294111987575889" lon="-8.576721986755729">
        <ele>342.85000000000002</ele>
        <time>2025-05-07T09:04:35Z</time>
      </trkpt>
      <trkpt lat="37.294197985902429" lon="-8.57644597068429">
        <ele>343.81</ele>
        <time>2025-05-07T09:04:37Z</time>
      </trkpt>
      <trkpt lat="37.294267974793911" lon="-8.576334994286299">
        <ele>343.81</ele>
        <time>2025-05-07T09:04:38Z</time>
      </trkpt>
      <trkpt lat="37.29435196146369" lon="-8.576221000403166">
        <ele>343.81</ele>
        <time>2025-05-07T09:04:39Z</time>
      </trkpt>
      <trkpt lat="37.294439971446991" lon="-8.576100971549749">
        <ele>343.32999999999998</ele>
        <time>2025-05-07T09:04:40Z</time>
      </trkpt>
      <trkpt lat="37.294535022228956" lon="-8.575983038172126">
        <ele>342.37</ele>
        <time>2025-05-07T09:04:41Z</time>
      </trkpt>
      <trkpt lat="37.295486032962799" lon="-8.57498399913311">
        <ele>337.56</ele>
        <time>2025-05-07T09:04:50Z</time>
      </trkpt>
      <trkpt lat="37.296325983479619" lon="-8.573602996766567">
        <ele>335.63999999999999</ele>
        <time>2025-05-07T09:05:00Z</time>
      </trkpt>
      <trkpt lat="37.296984968706965" lon="-8.572002975270152">
        <ele>337.56</ele>
        <time>2025-05-07T09:05:12Z</time>
      </trkpt>
      <trkpt lat="37.297010030597448" lon="-8.571942960843444">
        <ele>338.04000000000002</ele>
        <time>2025-05-07T09:05:13Z</time>
      </trkpt>
      <trkpt lat="37.297039031982422" lon="-8.57186802662909">
        <ele>338.51999999999998</ele>
        <time>2025-05-07T09:05:14Z</time>
      </trkpt>
      <trkpt lat="37.297074990347028" lon="-8.571899039670825">
        <ele>339</ele>
        <time>2025-05-07T09:05:15Z</time>
      </trkpt>
      <trkpt lat="37.297117989510298" lon="-8.571937009692192">
        <ele>339</ele>
        <time>2025-05-07T09:05:16Z</time>
      </trkpt>
      <trkpt lat="37.297173980623484" lon="-8.571985960006714">
        <ele>339.48000000000002</ele>
        <time>2025-05-07T09:05:17Z</time>
      </trkpt>
      <trkpt lat="37.297233995050192" lon="-8.572060978040099">
        <ele>339.95999999999998</ele>
        <time>2025-05-07T09:05:18Z</time>
      </trkpt>
      <trkpt lat="37.297284035012126" lon="-8.572154017165303">
        <ele>339.95999999999998</ele>
        <time>2025-05-07T09:05:19Z</time>
      </trkpt>
      <trkpt lat="37.29733700864017" lon="-8.572250995784998">
        <ele>340.44</ele>
        <time>2025-05-07T09:05:20Z</time>
      </trkpt>
      <trkpt lat="37.297387970611453" lon="-8.572349986061454">
        <ele>340.92000000000002</ele>
        <time>2025-05-07T09:05:21Z</time>
      </trkpt>
      <trkpt lat="37.297431975603104" lon="-8.572439001873136">
        <ele>341.88999999999999</ele>
        <time>2025-05-07T09:05:22Z</time>
      </trkpt>
      <trkpt lat="37.297497019171715" lon="-8.572474960237742">
        <ele>342.85000000000002</ele>
        <time>2025-05-07T09:05:23Z</time>
      </trkpt>
      <trkpt lat="37.297571031376719" lon="-8.572485018521547">
        <ele>343.81</ele>
        <time>2025-05-07T09:05:24Z</time>
      </trkpt>
      <trkpt lat="37.297641020268202" lon="-8.572494992986321">
        <ele>344.76999999999998</ele>
        <time>2025-05-07T09:05:25Z</time>
      </trkpt>
      <trkpt lat="37.29770396836102" lon="-8.572503039613366">
        <ele>345.73000000000002</ele>
        <time>2025-05-07T09:05:26Z</time>
      </trkpt>
      <trkpt lat="37.297774963080883" lon="-8.57253497466445">
        <ele>346.69</ele>
        <time>2025-05-07T09:05:27Z</time>
      </trkpt>
      <trkpt lat="37.29778996668756" lon="-8.5725980065763">
        <ele>347.64999999999998</ele>
        <time>2025-05-07T09:05:28Z</time>
      </trkpt>
      <trkpt lat="37.29778703302145" lon="-8.572679981589317">
        <ele>348.62</ele>
        <time>2025-05-07T09:05:29Z</time>
      </trkpt>
      <trkpt lat="37.297783009707928" lon="-8.572774026542902">
        <ele>349.57999999999998</ele>
        <time>2025-05-07T09:05:30Z</time>
      </trkpt>
      <trkpt lat="37.297770017758012" lon="-8.573096981272101">
        <ele>353.42000000000002</ele>
        <time>2025-05-07T09:05:34Z</time>
      </trkpt>
      <trkpt lat="37.297780998051167" lon="-8.57313696295023">
        <ele>354.38</ele>
        <time>2025-05-07T09:05:35Z</time>
      </trkpt>
      <trkpt lat="37.29778996668756" lon="-8.573155989870429">
        <ele>355.33999999999997</ele>
        <time>2025-05-07T09:05:36Z</time>
      </trkpt>
      <trkpt lat="37.297817040234804" lon="-8.573150038719177">
        <ele>355.82999999999998</ele>
        <time>2025-05-07T09:05:37Z</time>
      </trkpt>
      <trkpt lat="37.297898009419441" lon="-8.57313402928412">
        <ele>356.79000000000002</ele>
        <time>2025-05-07T09:05:38Z</time>
      </trkpt>
      <trkpt lat="37.297932039946318" lon="-8.573095975443721">
        <ele>357.75</ele>
        <time>2025-05-07T09:05:39Z</time>
      </trkpt>
      <trkpt lat="37.297983001917601" lon="-8.573038978502154">
        <ele>358.23000000000002</ele>
        <time>2025-05-07T09:05:40Z</time>
      </trkpt>
      <trkpt lat="37.29802499525249" lon="-8.572992961853743">
        <ele>358.70999999999998</ele>
        <time>2025-05-07T09:05:41Z</time>
      </trkpt>
      <trkpt lat="37.298133037984371" lon="-8.57296203263104">
        <ele>359.67000000000002</ele>
        <time>2025-05-07T09:05:42Z</time>
      </trkpt>
      <trkpt lat="37.29813395999372" lon="-8.57296203263104">
        <ele>360.14999999999998</ele>
        <time>2025-05-07T09:05:43Z</time>
      </trkpt>
      <trkpt lat="37.298162961378694" lon="-8.573136040940881">
        <ele>361.11000000000001</ele>
        <time>2025-05-07T09:05:44Z</time>
      </trkpt>
      <trkpt lat="37.29817695915699" lon="-8.57322002761066">
        <ele>361.58999999999997</ele>
        <time>2025-05-07T09:05:45Z</time>
      </trkpt>
      <trkpt lat="37.29817402549088" lon="-8.57330895960331">
        <ele>362.06999999999999</ele>
        <time>2025-05-07T09:05:46Z</time>
      </trkpt>
      <trkpt lat="37.298171008005738" lon="-8.573417002335191">
        <ele>362.55000000000001</ele>
        <time>2025-05-07T09:05:47Z</time>
      </trkpt>
      <trkpt lat="37.298166984692216" lon="-8.573524039238691">
        <ele>363.04000000000002</ele>
        <time>2025-05-07T09:05:48Z</time>
      </trkpt>
      <trkpt lat="37.298163967207074" lon="-8.573624035343528">
        <ele>363.51999999999998</ele>
        <time>2025-05-07T09:05:49Z</time>
      </trkpt>
      <trkpt lat="37.298156004399061" lon="-8.573898961767554">
        <ele>364.95999999999998</ele>
        <time>2025-05-07T09:05:53Z</time>
      </trkpt>
      <trkpt lat="37.298183999955654" lon="-8.573964005336165">
        <ele>365.44</ele>
        <time>2025-05-07T09:05:54Z</time>
      </trkpt>
      <trkpt lat="37.298200009390712" lon="-8.573996024206281">
        <ele>365.92000000000002</ele>
        <time>2025-05-07T09:05:55Z</time>
      </trkpt>
      <trkpt lat="37.29826002381742" lon="-8.574014967307448">
        <ele>366.39999999999998</ele>
        <time>2025-05-07T09:05:56Z</time>
      </trkpt>
      <trkpt lat="37.29828299023211" lon="-8.573953025043011">
        <ele>366.88</ele>
        <time>2025-05-07T09:05:57Z</time>
      </trkpt>
      <trkpt lat="37.298304028809071" lon="-8.573889993131161">
        <ele>366.88</ele>
        <time>2025-05-07T09:05:58Z</time>
      </trkpt>
      <trkpt lat="37.298331018537283" lon="-8.573809023946524">
        <ele>367.36000000000001</ele>
        <time>2025-05-07T09:05:59Z</time>
      </trkpt>
      <trkpt lat="37.298369994387031" lon="-8.573692012578249">
        <ele>367.36000000000001</ele>
        <time>2025-05-07T09:06:00Z</time>
      </trkpt>
      <trkpt lat="37.298803003504872" lon="-8.57304903678596">
        <ele>372.64999999999998</ele>
        <time>2025-05-07T09:06:07Z</time>
      </trkpt>
      <trkpt lat="37.299184966832399" lon="-8.572618961334229">
        <ele>381.30000000000001</ele>
        <time>2025-05-07T09:06:13Z</time>
      </trkpt>
      <trkpt lat="37.299270965158939" lon="-8.5725980065763">
        <ele>382.74000000000001</ele>
        <time>2025-05-07T09:06:14Z</time>
      </trkpt>
      <trkpt lat="37.299327040091157" lon="-8.572626002132893">
        <ele>384.18000000000001</ele>
        <time>2025-05-07T09:06:15Z</time>
      </trkpt>
      <trkpt lat="37.299356963485479" lon="-8.57264100573957">
        <ele>385.14999999999998</ele>
        <time>2025-05-07T09:06:16Z</time>
      </trkpt>
      <trkpt lat="37.299380013719201" lon="-8.572712000459433">
        <ele>386.58999999999997</ele>
        <time>2025-05-07T09:06:17Z</time>
      </trkpt>
      <trkpt lat="37.299404991790652" lon="-8.572787018492818">
        <ele>388.02999999999997</ele>
        <time>2025-05-07T09:06:18Z</time>
      </trkpt>
      <trkpt lat="37.299427958205342" lon="-8.572859019041061">
        <ele>388.99000000000001</ele>
        <time>2025-05-07T09:06:19Z</time>
      </trkpt>
      <trkpt lat="37.299447990953922" lon="-8.572920961305499">
        <ele>390.43000000000001</ele>
        <time>2025-05-07T09:06:20Z</time>
      </trkpt>
      <trkpt lat="37.299466012045741" lon="-8.572975024580956">
        <ele>391.38999999999999</ele>
        <time>2025-05-07T09:06:21Z</time>
      </trkpt>
      <trkpt lat="37.299617975950241" lon="-8.573446003720164">
        <ele>399.56999999999999</ele>
        <time>2025-05-07T09:06:29Z</time>
      </trkpt>
      <trkpt lat="37.29963599704206" lon="-8.573498977348208">
        <ele>400.05000000000001</ele>
        <time>2025-05-07T09:06:30Z</time>
      </trkpt>
      <trkpt lat="37.29963599704206" lon="-8.573581958189607">
        <ele>401.00999999999999</ele>
        <time>2025-05-07T09:06:31Z</time>
      </trkpt>
      <trkpt lat="37.29963599704206" lon="-8.573656976222992">
        <ele>401.97000000000003</ele>
        <time>2025-05-07T09:06:32Z</time>
      </trkpt>
      <trkpt lat="37.29963599704206" lon="-8.573755966499448">
        <ele>402.44999999999999</ele>
        <time>2025-05-07T09:06:33Z</time>
      </trkpt>
      <trkpt lat="37.299628034234047" lon="-8.573796031996608">
        <ele>403.41000000000003</ele>
        <time>2025-05-07T09:06:34Z</time>
      </trkpt>
      <trkpt lat="37.299587968736887" lon="-8.573997030034661">
        <ele>406.29000000000002</ele>
        <time>2025-05-07T09:06:37Z</time>
      </trkpt>
      <trkpt lat="37.299536000937223" lon="-8.574254019185901">
        <ele>409.18000000000001</ele>
        <time>2025-05-07T09:06:41Z</time>
      </trkpt>
      <trkpt lat="37.299528960138559" lon="-8.574292995035648">
        <ele>409.66000000000003</ele>
        <time>2025-05-07T09:06:42Z</time>
      </trkpt>
      <trkpt lat="37.299543041735888" lon="-8.574388967826963">
        <ele>410.62</ele>
        <time>2025-05-07T09:06:43Z</time>
      </trkpt>
      <trkpt lat="37.299555027857423" lon="-8.57446800917387">
        <ele>411.10000000000002</ele>
        <time>2025-05-07T09:06:44Z</time>
      </trkpt>
      <trkpt lat="37.29957103729248" lon="-8.574572028592229">
        <ele>412.06</ele>
        <time>2025-05-07T09:06:45Z</time>
      </trkpt>
      <trkpt lat="37.29959299787879" lon="-8.574631959199905">
        <ele>412.54000000000002</ele>
        <time>2025-05-07T09:06:46Z</time>
      </trkpt>
      <trkpt lat="37.299624010920525" lon="-8.574718963354826">
        <ele>413.98000000000002</ele>
        <time>2025-05-07T09:06:47Z</time>
      </trkpt>
      <trkpt lat="37.299889968708158" lon="-8.575639966875315">
        <ele>424.56</ele>
        <time>2025-05-07T09:06:59Z</time>
      </trkpt>
      <trkpt lat="37.299902038648725" lon="-8.575696041807532">
        <ele>426.95999999999998</ele>
        <time>2025-05-07T09:07:08Z</time>
      </trkpt>
      <trkpt lat="37.299902038648725" lon="-8.575696041807532">
        <ele>426.48000000000002</ele>
        <time>2025-05-07T09:07:49Z</time>
      </trkpt>
      <trkpt lat="37.299962975084782" lon="-8.575806012377143">
        <ele>427.92000000000002</ele>
        <time>2025-05-07T09:07:58Z</time>
      </trkpt>
      <trkpt lat="37.300120973959565" lon="-8.576037017628551">
        <ele>428.39999999999998</ele>
        <time>2025-05-07T09:08:01Z</time>
      </trkpt>
      <trkpt lat="37.300150981172919" lon="-8.576116980984807">
        <ele>428.88999999999999</ele>
        <time>2025-05-07T09:08:02Z</time>
      </trkpt>
      <trkpt lat="37.300144024193287" lon="-8.576176995411515">
        <ele>428.88999999999999</ele>
        <time>2025-05-07T09:08:03Z</time>
      </trkpt>
      <trkpt lat="37.30012902058661" lon="-8.576310016214848">
        <ele>429.37</ele>
        <time>2025-05-07T09:08:04Z</time>
      </trkpt>
      <trkpt lat="37.30010999366641" lon="-8.57635703869164">
        <ele>429.37</ele>
        <time>2025-05-07T09:08:05Z</time>
      </trkpt>
      <trkpt lat="37.300070011988282" lon="-8.576458962634206">
        <ele>429.37</ele>
        <time>2025-05-07T09:08:06Z</time>
      </trkpt>
      <trkpt lat="37.300021983683109" lon="-8.576578991487622">
        <ele>429.37</ele>
        <time>2025-05-07T09:08:07Z</time>
      </trkpt>
      <trkpt lat="37.299970015883446" lon="-8.576708994805813">
        <ele>429.37</ele>
        <time>2025-05-07T09:08:08Z</time>
      </trkpt>
      <trkpt lat="37.299879994243383" lon="-8.576932037249208">
        <ele>428.88999999999999</ele>
        <time>2025-05-07T09:08:10Z</time>
      </trkpt>
      <trkpt lat="37.29978896677494" lon="-8.577161030843854">
        <ele>429.85000000000002</ele>
        <time>2025-05-07T09:08:14Z</time>
      </trkpt>
      <trkpt lat="37.299798019230366" lon="-8.57721802778542">
        <ele>429.85000000000002</ele>
        <time>2025-05-07T09:08:15Z</time>
      </trkpt>
      <trkpt lat="37.299836995080113" lon="-8.577267983928323">
        <ele>430.32999999999998</ele>
        <time>2025-05-07T09:08:16Z</time>
      </trkpt>
      <trkpt lat="37.299910001456738" lon="-8.577302014455199">
        <ele>430.32999999999998</ele>
        <time>2025-05-07T09:08:17Z</time>
      </trkpt>
      <trkpt lat="37.299997005611658" lon="-8.577343001961708">
        <ele>430.81</ele>
        <time>2025-05-07T09:08:18Z</time>
      </trkpt>
      <trkpt lat="37.300094990059733" lon="-8.5773900244385">
        <ele>431.29000000000002</ele>
        <time>2025-05-07T09:08:19Z</time>
      </trkpt>
      <trkpt lat="37.300439989194274" lon="-8.577552968636155">
        <ele>433.69</ele>
        <time>2025-05-07T09:08:23Z</time>
      </trkpt>
      <trkpt lat="37.300492040812969" lon="-8.577577024698257">
        <ele>434.64999999999998</ele>
        <time>2025-05-07T09:08:24Z</time>
      </trkpt>
      <trkpt lat="37.300742994993925" lon="-8.577552968636155">
        <ele>436.57999999999998</ele>
        <time>2025-05-07T09:08:27Z</time>
      </trkpt>
      <trkpt lat="37.300835028290749" lon="-8.577517010271549">
        <ele>436.57999999999998</ele>
        <time>2025-05-07T09:08:28Z</time>
      </trkpt>
      <trkpt lat="37.300928989425302" lon="-8.577479040250182">
        <ele>437.06</ele>
        <time>2025-05-07T09:08:29Z</time>
      </trkpt>
      <trkpt lat="37.301282035186887" lon="-8.577337972819805">
        <ele>438.5</ele>
        <time>2025-05-07T09:08:33Z</time>
      </trkpt>
      <trkpt lat="37.301371973007917" lon="-8.577323975041509">
        <ele>439.45999999999998</ele>
        <time>2025-05-07T09:08:34Z</time>
      </trkpt>
      <trkpt lat="37.301467023789883" lon="-8.577336966991425">
        <ele>440.89999999999998</ele>
        <time>2025-05-07T09:08:35Z</time>
      </trkpt>
      <trkpt lat="37.301562996581197" lon="-8.57734995894134">
        <ele>442.33999999999997</ele>
        <time>2025-05-07T09:08:36Z</time>
      </trkpt>
      <trkpt lat="37.301651006564498" lon="-8.577362028881908">
        <ele>443.79000000000002</ele>
        <time>2025-05-07T09:08:37Z</time>
      </trkpt>
      <trkpt lat="37.301727030426264" lon="-8.577373009175062">
        <ele>445.23000000000002</ele>
        <time>2025-05-07T09:08:38Z</time>
      </trkpt>
      <trkpt lat="37.301795007660985" lon="-8.577381977811456">
        <ele>446.67000000000002</ele>
        <time>2025-05-07T09:08:39Z</time>
      </trkpt>
      <trkpt lat="37.301850998774171" lon="-8.5773900244385">
        <ele>448.11000000000001</ele>
        <time>2025-05-07T09:08:40Z</time>
      </trkpt>
      <trkpt lat="37.301893997937441" lon="-8.577395975589752">
        <ele>449.55000000000001</ele>
        <time>2025-05-07T09:08:41Z</time>
      </trkpt>
      <trkpt lat="37.301930040121078" lon="-8.577401004731655">
        <ele>451</ele>
        <time>2025-05-07T09:08:42Z</time>
      </trkpt>
      <trkpt lat="37.301947977393866" lon="-8.577470993623138">
        <ele>452.44</ele>
        <time>2025-05-07T09:08:43Z</time>
      </trkpt>
      <trkpt lat="37.301944037899375" lon="-8.577521033585072">
        <ele>453.88</ele>
        <time>2025-05-07T09:08:44Z</time>
      </trkpt>
      <trkpt lat="37.301939008757472" lon="-8.577588004991412">
        <ele>455.31999999999999</ele>
        <time>2025-05-07T09:08:45Z</time>
      </trkpt>
      <trkpt lat="37.301932973787189" lon="-8.577666040509939">
        <ele>456.27999999999997</ele>
        <time>2025-05-07T09:08:46Z</time>
      </trkpt>
      <trkpt lat="37.301931967958808" lon="-8.577682971954346">
        <ele>457.72000000000003</ele>
        <time>2025-05-07T09:08:47Z</time>
      </trkpt>
      <trkpt lat="37.301971027627587" lon="-8.577840970829129">
        <ele>458.69</ele>
        <time>2025-05-07T09:08:48Z</time>
      </trkpt>
      <trkpt lat="37.3019980173558" lon="-8.577974997460842">
        <ele>459.64999999999998</ele>
        <time>2025-05-07T09:08:49Z</time>
      </trkpt>
      <trkpt lat="37.302061971276999" lon="-8.578480007126927">
        <ele>464.44999999999999</ele>
        <time>2025-05-07T09:08:54Z</time>
      </trkpt>
      <trkpt lat="37.302086027339101" lon="-8.578542033210397">
        <ele>464.93000000000001</ele>
        <time>2025-05-07T09:08:55Z</time>
      </trkpt>
      <trkpt lat="37.302102958783507" lon="-8.578584026545286">
        <ele>465.89999999999998</ele>
        <time>2025-05-07T09:08:56Z</time>
      </trkpt>
      <trkpt lat="37.302139000967145" lon="-8.57861403375864">
        <ele>466.86000000000001</ele>
        <time>2025-05-07T09:08:57Z</time>
      </trkpt>
      <trkpt lat="37.302179988473654" lon="-8.578647980466485">
        <ele>467.81999999999999</ele>
        <time>2025-05-07T09:08:58Z</time>
      </trkpt>
      <trkpt lat="37.302215024828911" lon="-8.578677987679839">
        <ele>468.77999999999997</ele>
        <time>2025-05-07T09:08:59Z</time>
      </trkpt>
      <trkpt lat="37.302232040092349" lon="-8.578691985458136">
        <ele>469.74000000000001</ele>
        <time>2025-05-07T09:09:00Z</time>
      </trkpt>
      <trkpt lat="37.302273027598858" lon="-8.578682010993362">
        <ele>470.69999999999999</ele>
        <time>2025-05-07T09:09:01Z</time>
      </trkpt>
      <trkpt lat="37.302332958206534" lon="-8.578644962981343">
        <ele>471.66000000000003</ele>
        <time>2025-05-07T09:09:02Z</time>
      </trkpt>
      <trkpt lat="37.302388027310371" lon="-8.578552007675171">
        <ele>472.63</ele>
        <time>2025-05-07T09:09:03Z</time>
      </trkpt>
      <trkpt lat="37.30244804173708" lon="-8.578449999913573">
        <ele>473.58999999999997</ele>
        <time>2025-05-07T09:09:04Z</time>
      </trkpt>
      <trkpt lat="37.30260000564158" lon="-8.578131990507245">
        <ele>476.47000000000003</ele>
        <time>2025-05-07T09:09:07Z</time>
      </trkpt>
      <trkpt lat="37.302662031725049" lon="-8.577972985804081">
        <ele>477.43000000000001</ele>
        <time>2025-05-07T09:09:09Z</time>
      </trkpt>
      <trkpt lat="37.302716011181474" lon="-8.577919006347656">
        <ele>478.38999999999999</ele>
        <time>2025-05-07T09:09:10Z</time>
      </trkpt>
      <trkpt lat="37.302754987031221" lon="-8.577919006347656">
        <ele>478.87</ele>
        <time>2025-05-07T09:09:11Z</time>
      </trkpt>
      <trkpt lat="37.302784994244576" lon="-8.577919006347656">
        <ele>479.35000000000002</ele>
        <time>2025-05-07T09:09:12Z</time>
      </trkpt>
      <trkpt lat="37.302776025608182" lon="-8.578017996624112">
        <ele>479.83999999999997</ele>
        <time>2025-05-07T09:09:13Z</time>
      </trkpt>
      <trkpt lat="37.302764039486647" lon="-8.578098965808749">
        <ele>480.31999999999999</ele>
        <time>2025-05-07T09:09:14Z</time>
      </trkpt>
      <trkpt lat="37.302750963717699" lon="-8.578194016590715">
        <ele>480.80000000000001</ele>
        <time>2025-05-07T09:09:15Z</time>
      </trkpt>
      <trkpt lat="37.302735960111022" lon="-8.578300969675183">
        <ele>481.27999999999997</ele>
        <time>2025-05-07T09:09:16Z</time>
      </trkpt>
      <trkpt lat="37.302662031725049" lon="-8.579090964049101">
        <ele>483.19999999999999</ele>
        <time>2025-05-07T09:09:22Z</time>
      </trkpt>
      <trkpt lat="37.302677035331726" lon="-8.579223984852433">
        <ele>483.68000000000001</ele>
        <time>2025-05-07T09:09:23Z</time>
      </trkpt>
      <trkpt lat="37.302693966776133" lon="-8.579358011484146">
        <ele>483.68000000000001</ele>
        <time>2025-05-07T09:09:24Z</time>
      </trkpt>
      <trkpt lat="37.302811983972788" lon="-8.580279015004635">
        <ele>488.49000000000001</ele>
        <time>2025-05-07T09:09:31Z</time>
      </trkpt>
      <trkpt lat="37.302806032821536" lon="-8.580387979745865">
        <ele>489.44999999999999</ele>
        <time>2025-05-07T09:09:32Z</time>
      </trkpt>
      <trkpt lat="37.302801003679633" lon="-8.580502979457378">
        <ele>490.41000000000003</ele>
        <time>2025-05-07T09:09:33Z</time>
      </trkpt>
      <trkpt lat="37.302790023386478" lon="-8.580718981102109">
        <ele>491.85000000000002</ele>
        <time>2025-05-07T09:09:35Z</time>
      </trkpt>
      <trkpt lat="37.302784994244576" lon="-8.58082601800561">
        <ele>492.81</ele>
        <time>2025-05-07T09:09:36Z</time>
      </trkpt>
      <trkpt lat="37.302775019779801" lon="-8.581039002165198">
        <ele>494.25999999999999</ele>
        <time>2025-05-07T09:09:38Z</time>
      </trkpt>
      <trkpt lat="37.302769990637898" lon="-8.581141009926796">
        <ele>495.22000000000003</ele>
        <time>2025-05-07T09:09:39Z</time>
      </trkpt>
      <trkpt lat="37.302745012566447" lon="-8.581244023516774">
        <ele>495.69999999999999</ele>
        <time>2025-05-07T09:09:40Z</time>
      </trkpt>
      <trkpt lat="37.302712993696332" lon="-8.581352988258004">
        <ele>496.18000000000001</ele>
        <time>2025-05-07T09:09:41Z</time>
      </trkpt>
      <trkpt lat="37.302682986482978" lon="-8.581460025161505">
        <ele>496.66000000000003</ele>
        <time>2025-05-07T09:09:42Z</time>
      </trkpt>
      <trkpt lat="37.302646022289991" lon="-8.58157997019589">
        <ele>497.13999999999999</ele>
        <time>2025-05-07T09:09:43Z</time>
      </trkpt>
      <trkpt lat="37.302611991763115" lon="-8.581692958250642">
        <ele>497.62</ele>
        <time>2025-05-07T09:09:44Z</time>
      </trkpt>
      <trkpt lat="37.302533034235239" lon="-8.581952964887023">
        <ele>499.06</ele>
        <time>2025-05-07T09:09:46Z</time>
      </trkpt>
      <trkpt lat="37.302492968738079" lon="-8.582039969041944">
        <ele>499.06</ele>
        <time>2025-05-07T09:09:47Z</time>
      </trkpt>
      <trkpt lat="37.302444018423557" lon="-8.582144994288683">
        <ele>499.54000000000002</ele>
        <time>2025-05-07T09:09:48Z</time>
      </trkpt>
      <trkpt lat="37.302318960428238" lon="-8.582344986498356">
        <ele>500.5</ele>
        <time>2025-05-07T09:09:50Z</time>
      </trkpt>
      <trkpt lat="37.302055014297366" lon="-8.582698032259941">
        <ele>501.94999999999999</ele>
        <time>2025-05-07T09:09:54Z</time>
      </trkpt>
      <trkpt lat="37.302013020962477" lon="-8.582786964252591">
        <ele>502.43000000000001</ele>
        <time>2025-05-07T09:09:55Z</time>
      </trkpt>
      <trkpt lat="37.302000029012561" lon="-8.582906993106008">
        <ele>502.43000000000001</ele>
        <time>2025-05-07T09:09:56Z</time>
      </trkpt>
      <trkpt lat="37.301944959908724" lon="-8.583419965580106">
        <ele>504.35000000000002</ele>
        <time>2025-05-07T09:10:00Z</time>
      </trkpt>
      <trkpt lat="37.301936997100711" lon="-8.583549968898296">
        <ele>504.82999999999998</ele>
        <time>2025-05-07T09:10:01Z</time>
      </trkpt>
      <trkpt lat="37.301992988213897" lon="-8.583648037165403">
        <ele>505.31</ele>
        <time>2025-05-07T09:10:02Z</time>
      </trkpt>
      <trkpt lat="37.302191974595189" lon="-8.583995969966054">
        <ele>507.70999999999998</ele>
        <time>2025-05-07T09:10:05Z</time>
      </trkpt>
      <trkpt lat="37.302468996495008" lon="-8.584482036530972">
        <ele>511.07999999999998</ele>
        <time>2025-05-07T09:10:09Z</time>
      </trkpt>
      <trkpt lat="37.302533034235239" lon="-8.584592007100582">
        <ele>512.03999999999996</ele>
        <time>2025-05-07T09:10:10Z</time>
      </trkpt>
      <trkpt lat="37.302616015076637" lon="-8.58469502069056">
        <ele>513</ele>
        <time>2025-05-07T09:10:11Z</time>
      </trkpt>
      <trkpt lat="37.302689021453261" lon="-8.584783030673862">
        <ele>513.48000000000002</ele>
        <time>2025-05-07T09:10:12Z</time>
      </trkpt>
      <trkpt lat="37.302743000909686" lon="-8.584881015121937">
        <ele>514.44000000000005</ele>
        <time>2025-05-07T09:10:13Z</time>
      </trkpt>
      <trkpt lat="37.302790023386478" lon="-8.585021998733282">
        <ele>515.88</ele>
        <time>2025-05-07T09:10:14Z</time>
      </trkpt>
      <trkpt lat="37.302780970931053" lon="-8.585118977352977">
        <ele>516.85000000000002</ele>
        <time>2025-05-07T09:10:15Z</time>
      </trkpt>
      <trkpt lat="37.302768984809518" lon="-8.585258033126593">
        <ele>517.80999999999995</ele>
        <time>2025-05-07T09:10:16Z</time>
      </trkpt>
      <trkpt lat="37.302778037264943" lon="-8.585334978997707">
        <ele>518.76999999999998</ele>
        <time>2025-05-07T09:10:17Z</time>
      </trkpt>
      <trkpt lat="37.302807038649917" lon="-8.58544603921473">
        <ele>519.73000000000002</ele>
        <time>2025-05-07T09:10:18Z</time>
      </trkpt>
      <trkpt lat="37.302876021713018" lon="-8.585515022277832">
        <ele>520.21000000000004</ele>
        <time>2025-05-07T09:10:19Z</time>
      </trkpt>
      <trkpt lat="37.302989009767771" lon="-8.585549974814057">
        <ele>520.69000000000005</ele>
        <time>2025-05-07T09:10:20Z</time>
      </trkpt>
      <trkpt lat="37.303104009479284" lon="-8.585584005340934">
        <ele>521.16999999999996</ele>
        <time>2025-05-07T09:10:21Z</time>
      </trkpt>
      <trkpt lat="37.303214985877275" lon="-8.58561803586781">
        <ele>521.64999999999998</ele>
        <time>2025-05-07T09:10:22Z</time>
      </trkpt>
      <trkpt lat="37.303326968103647" lon="-8.585651982575655">
        <ele>522.13</ele>
        <time>2025-05-07T09:10:23Z</time>
      </trkpt>
      <trkpt lat="37.303427970036864" lon="-8.58570403419435">
        <ele>522.61000000000001</ele>
        <time>2025-05-07T09:10:24Z</time>
      </trkpt>
      <trkpt lat="37.303525032475591" lon="-8.585766982287169">
        <ele>523.09000000000003</ele>
        <time>2025-05-07T09:10:25Z</time>
      </trkpt>
      <trkpt lat="37.303895009681582" lon="-8.586008967831731">
        <ele>527.89999999999998</ele>
        <time>2025-05-07T09:10:31Z</time>
      </trkpt>
      <trkpt lat="37.304087961092591" lon="-8.586107958108187">
        <ele>530.29999999999995</ele>
        <time>2025-05-07T09:10:36Z</time>
      </trkpt>
      <trkpt lat="37.304131966084242" lon="-8.586128996685147">
        <ele>530.78999999999996</ele>
        <time>2025-05-07T09:10:37Z</time>
      </trkpt>
      <trkpt lat="37.304178988561034" lon="-8.586151041090488">
        <ele>531.26999999999998</ele>
        <time>2025-05-07T09:10:38Z</time>
      </trkpt>
      <trkpt lat="37.304220981895924" lon="-8.586171995848417">
        <ele>531.75</ele>
        <time>2025-05-07T09:10:39Z</time>
      </trkpt>
      <trkpt lat="37.304261969402432" lon="-8.586191022768617">
        <ele>532.23000000000002</ele>
        <time>2025-05-07T09:10:40Z</time>
      </trkpt>
      <trkpt lat="37.304303040727973" lon="-8.586211977526546">
        <ele>532.71000000000004</ele>
        <time>2025-05-07T09:10:41Z</time>
      </trkpt>
      <trkpt lat="37.304348973557353" lon="-8.586234021931887">
        <ele>533.19000000000005</ele>
        <time>2025-05-07T09:10:42Z</time>
      </trkpt>
      <trkpt lat="37.304549971595407" lon="-8.586331000551581">
        <ele>535.11000000000001</ele>
        <time>2025-05-07T09:10:45Z</time>
      </trkpt>
      <trkpt lat="37.304558018222451" lon="-8.586352961137891">
        <ele>535.59000000000003</ele>
        <time>2025-05-07T09:10:46Z</time>
      </trkpt>
      <trkpt lat="37.304587019607425" lon="-8.586432002484798">
        <ele>536.07000000000005</ele>
        <time>2025-05-07T09:10:47Z</time>
      </trkpt>
      <trkpt lat="37.304617026820779" lon="-8.586514983326197">
        <ele>536.54999999999995</ele>
        <time>2025-05-07T09:10:48Z</time>
      </trkpt>
      <trkpt lat="37.304647034034133" lon="-8.586597964167595">
        <ele>537.02999999999997</ele>
        <time>2025-05-07T09:10:49Z</time>
      </trkpt>
      <trkpt lat="37.304676035419106" lon="-8.586678011342883">
        <ele>537.02999999999997</ele>
        <time>2025-05-07T09:10:50Z</time>
      </trkpt>
      <trkpt lat="37.30470797047019" lon="-8.586765015497804">
        <ele>537.50999999999999</ele>
        <time>2025-05-07T09:10:51Z</time>
      </trkpt>
      <trkpt lat="37.304744012653828" lon="-8.586847996339202">
        <ele>537.50999999999999</ele>
        <time>2025-05-07T09:10:52Z</time>
      </trkpt>
      <trkpt lat="37.30479103513062" lon="-8.586935000494123">
        <ele>537.50999999999999</ele>
        <time>2025-05-07T09:10:53Z</time>
      </trkpt>
      <trkpt lat="37.304860018193722" lon="-8.586981017142534">
        <ele>537.50999999999999</ele>
        <time>2025-05-07T09:10:54Z</time>
      </trkpt>
      <trkpt lat="37.304926989600062" lon="-8.587025022134185">
        <ele>537.50999999999999</ele>
        <time>2025-05-07T09:10:55Z</time>
      </trkpt>
      <trkpt lat="37.304992033168674" lon="-8.587069027125835">
        <ele>537.50999999999999</ele>
        <time>2025-05-07T09:10:56Z</time>
      </trkpt>
      <trkpt lat="37.305053975433111" lon="-8.587110014632344">
        <ele>537.50999999999999</ele>
        <time>2025-05-07T09:10:57Z</time>
      </trkpt>
      <trkpt lat="37.305120024830103" lon="-8.587182015180588">
        <ele>537.50999999999999</ele>
        <time>2025-05-07T09:10:58Z</time>
      </trkpt>
      <trkpt lat="37.305146008729935" lon="-8.587261978536844">
        <ele>537.99000000000001</ele>
        <time>2025-05-07T09:10:59Z</time>
      </trkpt>
      <trkpt lat="37.305152965709567" lon="-8.587355017662048">
        <ele>538.48000000000002</ele>
        <time>2025-05-07T09:11:00Z</time>
      </trkpt>
      <trkpt lat="37.305154977366328" lon="-8.587449984624982">
        <ele>538.48000000000002</ele>
        <time>2025-05-07T09:11:01Z</time>
      </trkpt>
      <trkpt lat="37.30515799485147" lon="-8.587549980729818">
        <ele>538.96000000000004</ele>
        <time>2025-05-07T09:11:02Z</time>
      </trkpt>
      <trkpt lat="37.305168975144625" lon="-8.587977038696408">
        <ele>540.39999999999998</ele>
        <time>2025-05-07T09:11:06Z</time>
      </trkpt>
      <trkpt lat="37.305170986801386" lon="-8.588060019537807">
        <ele>540.39999999999998</ele>
        <time>2025-05-07T09:11:07Z</time>
      </trkpt>
      <trkpt lat="37.305140979588032" lon="-8.588135959580541">
        <ele>540.39999999999998</ele>
        <time>2025-05-07T09:11:08Z</time>
      </trkpt>
      <trkpt lat="37.305085994303226" lon="-8.588219024240971">
        <ele>540.39999999999998</ele>
        <time>2025-05-07T09:11:09Z</time>
      </trkpt>
      <trkpt lat="37.305032014846802" lon="-8.588232016190887">
        <ele>539.91999999999996</ele>
        <time>2025-05-07T09:11:10Z</time>
      </trkpt>
      <trkpt lat="37.304944004863501" lon="-8.588212989270687">
        <ele>539.91999999999996</ele>
        <time>2025-05-07T09:11:11Z</time>
      </trkpt>
      <trkpt lat="37.304867981001735" lon="-8.588176025077701">
        <ele>539.91999999999996</ele>
        <time>2025-05-07T09:11:12Z</time>
      </trkpt>
      <trkpt lat="37.304782988503575" lon="-8.588135959580541">
        <ele>539.91999999999996</ele>
        <time>2025-05-07T09:11:13Z</time>
      </trkpt>
      <trkpt lat="37.304616020992398" lon="-8.588054990395904">
        <ele>540.39999999999998</ele>
        <time>2025-05-07T09:11:15Z</time>
      </trkpt>
      <trkpt lat="37.30447000823915" lon="-8.587985001504421">
        <ele>540.39999999999998</ele>
        <time>2025-05-07T09:11:17Z</time>
      </trkpt>
      <trkpt lat="37.304413011297584" lon="-8.587957005947828">
        <ele>540.39999999999998</ele>
        <time>2025-05-07T09:11:18Z</time>
      </trkpt>
      <trkpt lat="37.304352996870875" lon="-8.587974021211267">
        <ele>540.88</ele>
        <time>2025-05-07T09:11:19Z</time>
      </trkpt>
      <trkpt lat="37.304304968565702" lon="-8.588036969304085">
        <ele>541.36000000000001</ele>
        <time>2025-05-07T09:11:20Z</time>
      </trkpt>
      <trkpt lat="37.304247971624136" lon="-8.588112993165851">
        <ele>541.84000000000003</ele>
        <time>2025-05-07T09:11:21Z</time>
      </trkpt>
      <trkpt lat="37.304189968854189" lon="-8.588190022855997">
        <ele>542.32000000000005</ele>
        <time>2025-05-07T09:11:22Z</time>
      </trkpt>
      <trkpt lat="37.304082009941339" lon="-8.588334023952484">
        <ele>543.27999999999997</ele>
        <time>2025-05-07T09:11:24Z</time>
      </trkpt>
      <trkpt lat="37.304053008556366" lon="-8.588396972045302">
        <ele>543.75999999999999</ele>
        <time>2025-05-07T09:11:25Z</time>
      </trkpt>
      <trkpt lat="37.304041022434831" lon="-8.588487999513745">
        <ele>545.20000000000005</ele>
        <time>2025-05-07T09:11:26Z</time>
      </trkpt>
      <trkpt lat="37.304070023819804" lon="-8.588564023375511">
        <ele>545.69000000000005</ele>
        <time>2025-05-07T09:11:27Z</time>
      </trkpt>
      <trkpt lat="37.304122997447848" lon="-8.588598975911737">
        <ele>546.64999999999998</ele>
        <time>2025-05-07T09:11:28Z</time>
      </trkpt>
      <trkpt lat="37.304178988561034" lon="-8.588637029752135">
        <ele>546.64999999999998</ele>
        <time>2025-05-07T09:11:29Z</time>
      </trkpt>
      <trkpt lat="37.304244032129645" lon="-8.588680028915405">
        <ele>547.13</ele>
        <time>2025-05-07T09:11:30Z</time>
      </trkpt>
      <trkpt lat="37.304653991013765" lon="-8.588954033330083">
        <ele>550.00999999999999</ele>
        <time>2025-05-07T09:11:36Z</time>
      </trkpt>
      <trkpt lat="37.304732026532292" lon="-8.589006001129746">
        <ele>550.97000000000003</ele>
        <time>2025-05-07T09:11:37Z</time>
      </trkpt>
      <trkpt lat="37.304878961294889" lon="-8.589102979749441">
        <ele>552.89999999999998</ele>
        <time>2025-05-07T09:11:39Z</time>
      </trkpt>
      <trkpt lat="37.305337032303214" lon="-8.589253015816212">
        <ele>560.59000000000003</ele>
        <time>2025-05-07T09:11:45Z</time>
      </trkpt>
      <trkpt lat="37.306052008643746" lon="-8.589370027184486">
        <ele>568.75999999999999</ele>
        <time>2025-05-07T09:11:54Z</time>
      </trkpt>
      <trkpt lat="37.306175976991653" lon="-8.58940196223557">
        <ele>570.67999999999995</ele>
        <time>2025-05-07T09:11:56Z</time>
      </trkpt>
      <trkpt lat="37.306244960054755" lon="-8.589419983327389">
        <ele>571.63999999999999</ele>
        <time>2025-05-07T09:11:57Z</time>
      </trkpt>
      <trkpt lat="37.306288965046406" lon="-8.589375978335738">
        <ele>572.60000000000002</ele>
        <time>2025-05-07T09:11:58Z</time>
      </trkpt>
      <trkpt lat="37.306330958381295" lon="-8.58931596390903">
        <ele>573.55999999999995</ele>
        <time>2025-05-07T09:11:59Z</time>
      </trkpt>
      <trkpt lat="37.306327018886805" lon="-8.589234994724393">
        <ele>574.52999999999997</ele>
        <time>2025-05-07T09:12:00Z</time>
      </trkpt>
      <trkpt lat="37.306300029158592" lon="-8.589146984741092">
        <ele>575.00999999999999</ele>
        <time>2025-05-07T09:12:01Z</time>
      </trkpt>
      <trkpt lat="37.306270021945238" lon="-8.589045982807875">
        <ele>575.49000000000001</ele>
        <time>2025-05-07T09:12:02Z</time>
      </trkpt>
      <trkpt lat="37.306239008903503" lon="-8.588939029723406">
        <ele>576.45000000000005</ele>
        <time>2025-05-07T09:12:03Z</time>
      </trkpt>
      <trkpt lat="37.306055026128888" lon="-8.588251965120435">
        <ele>575.97000000000003</ele>
        <time>2025-05-07T09:12:10Z</time>
      </trkpt>
      <trkpt lat="37.306067012250423" lon="-8.58815498650074">
        <ele>575.49000000000001</ele>
        <time>2025-05-07T09:12:11Z</time>
      </trkpt>
      <trkpt lat="37.306085033342242" lon="-8.588058007881045">
        <ele>575.49000000000001</ele>
        <time>2025-05-07T09:12:12Z</time>
      </trkpt>
      <trkpt lat="37.306114034727216" lon="-8.587964968755841">
        <ele>575.00999999999999</ele>
        <time>2025-05-07T09:12:13Z</time>
      </trkpt>
      <trkpt lat="37.306158039718866" lon="-8.587877964600921">
        <ele>574.52999999999997</ele>
        <time>2025-05-07T09:12:14Z</time>
      </trkpt>
      <trkpt lat="37.306200033053756" lon="-8.587792972102761">
        <ele>574.52999999999997</ele>
        <time>2025-05-07T09:12:15Z</time>
      </trkpt>
      <trkpt lat="37.306259963661432" lon="-8.587743015959859">
        <ele>574.52999999999997</ele>
        <time>2025-05-07T09:12:16Z</time>
      </trkpt>
      <trkpt lat="37.306326013058424" lon="-8.587690964341164">
        <ele>575.00999999999999</ele>
        <time>2025-05-07T09:12:17Z</time>
      </trkpt>
      <trkpt lat="37.306389966979623" lon="-8.5876389965415">
        <ele>575.49000000000001</ele>
        <time>2025-05-07T09:12:18Z</time>
      </trkpt>
      <trkpt lat="37.306455010548234" lon="-8.587588034570217">
        <ele>575.49000000000001</ele>
        <time>2025-05-07T09:12:19Z</time>
      </trkpt>
      <trkpt lat="37.306584008038044" lon="-8.587484015151858">
        <ele>575.97000000000003</ele>
        <time>2025-05-07T09:12:21Z</time>
      </trkpt>
      <trkpt lat="37.306644022464752" lon="-8.587435986846685">
        <ele>575.97000000000003</ele>
        <time>2025-05-07T09:12:22Z</time>
      </trkpt>
      <trkpt lat="37.306702025234699" lon="-8.587388964369893">
        <ele>575.97000000000003</ele>
        <time>2025-05-07T09:12:23Z</time>
      </trkpt>
      <trkpt lat="37.306762039661407" lon="-8.587342025712133">
        <ele>575.97000000000003</ele>
        <time>2025-05-07T09:12:24Z</time>
      </trkpt>
      <trkpt lat="37.306817024946213" lon="-8.587297014892101">
        <ele>575.97000000000003</ele>
        <time>2025-05-07T09:12:25Z</time>
      </trkpt>
      <trkpt lat="37.306871004402637" lon="-8.587254015728831">
        <ele>576.45000000000005</ele>
        <time>2025-05-07T09:12:26Z</time>
      </trkpt>
      <trkpt lat="37.306926995515823" lon="-8.587210010737181">
        <ele>576.45000000000005</ele>
        <time>2025-05-07T09:12:27Z</time>
      </trkpt>
      <trkpt lat="37.307145008817315" lon="-8.58703600242734">
        <ele>576.92999999999995</ele>
        <time>2025-05-07T09:12:31Z</time>
      </trkpt>
      <trkpt lat="37.307178033515811" lon="-8.586975988000631">
        <ele>576.92999999999995</ele>
        <time>2025-05-07T09:12:32Z</time>
      </trkpt>
      <trkpt lat="37.307189013808966" lon="-8.5869309771806">
        <ele>577.40999999999997</ele>
        <time>2025-05-07T09:12:33Z</time>
      </trkpt>
      <trkpt lat="37.307154983282089" lon="-8.586889989674091">
        <ele>577.40999999999997</ele>
        <time>2025-05-07T09:12:34Z</time>
      </trkpt>
      <trkpt lat="37.307108966633677" lon="-8.586835004389286">
        <ele>577.40999999999997</ele>
        <time>2025-05-07T09:12:35Z</time>
      </trkpt>
      <trkpt lat="37.307056998834014" lon="-8.586789993569255">
        <ele>577.88999999999999</ele>
        <time>2025-05-07T09:12:36Z</time>
      </trkpt>
      <trkpt lat="37.306975023820996" lon="-8.586746994405985">
        <ele>577.88999999999999</ele>
        <time>2025-05-07T09:12:37Z</time>
      </trkpt>
      <trkpt lat="37.306892964988947" lon="-8.586703995242715">
        <ele>578.37</ele>
        <time>2025-05-07T09:12:38Z</time>
      </trkpt>
      <trkpt lat="37.306586019694805" lon="-8.586544990539551">
        <ele>579.80999999999995</ele>
        <time>2025-05-07T09:12:42Z</time>
      </trkpt>
      <trkpt lat="37.306519970297813" lon="-8.586473995819688">
        <ele>579.80999999999995</ele>
        <time>2025-05-07T09:12:43Z</time>
      </trkpt>
      <trkpt lat="37.30648803524673" lon="-8.586408030241728">
        <ele>580.28999999999996</ele>
        <time>2025-05-07T09:12:44Z</time>
      </trkpt>
      <trkpt lat="37.306454004719853" lon="-8.586340975016356">
        <ele>580.76999999999998</ele>
        <time>2025-05-07T09:12:45Z</time>
      </trkpt>
      <trkpt lat="37.306419974192977" lon="-8.586274003610015">
        <ele>580.76999999999998</ele>
        <time>2025-05-07T09:12:46Z</time>
      </trkpt>
      <trkpt lat="37.306387033313513" lon="-8.586207032203674">
        <ele>581.25</ele>
        <time>2025-05-07T09:12:47Z</time>
      </trkpt>
      <trkpt lat="37.306350991129875" lon="-8.586135031655431">
        <ele>581.73000000000002</ele>
        <time>2025-05-07T09:12:48Z</time>
      </trkpt>
      <trkpt lat="37.306245965883136" lon="-8.585954988375306">
        <ele>583.65999999999997</ele>
        <time>2025-05-07T09:12:53Z</time>
      </trkpt>
      <trkpt lat="37.306245965883136" lon="-8.585954988375306">
        <ele>585.10000000000002</ele>
        <time>2025-05-07T09:13:05Z</time>
      </trkpt>
      <trkpt lat="37.306287959218025" lon="-8.586008967831731">
        <ele>585.10000000000002</ele>
        <time>2025-05-07T09:13:20Z</time>
      </trkpt>
      <trkpt lat="37.306287959218025" lon="-8.586008967831731">
        <ele>585.58000000000004</ele>
        <time>2025-05-07T09:13:21Z</time>
      </trkpt>
      <trkpt lat="37.306326013058424" lon="-8.586018020287156">
        <ele>585.58000000000004</ele>
        <time>2025-05-07T09:13:22Z</time>
      </trkpt>
      <trkpt lat="37.306399019435048" lon="-8.586036041378975">
        <ele>586.05999999999995</ele>
        <time>2025-05-07T09:13:23Z</time>
      </trkpt>
      <trkpt lat="37.30648803524673" lon="-8.586060013622046">
        <ele>586.53999999999996</ele>
        <time>2025-05-07T09:13:24Z</time>
      </trkpt>
      <trkpt lat="37.306589037179947" lon="-8.586093038320541">
        <ele>587.01999999999998</ele>
        <time>2025-05-07T09:13:25Z</time>
      </trkpt>
      <trkpt lat="37.306986004114151" lon="-8.586174007505179">
        <ele>589.42999999999995</ele>
        <time>2025-05-07T09:13:29Z</time>
      </trkpt>
      <trkpt lat="37.307861996814609" lon="-8.58630602248013">
        <ele>596.14999999999998</ele>
        <time>2025-05-07T09:13:38Z</time>
      </trkpt>
      <trkpt lat="37.307967022061348" lon="-8.586303004994988">
        <ele>597.12</ele>
        <time>2025-05-07T09:13:39Z</time>
      </trkpt>
      <trkpt lat="37.308197021484375" lon="-8.586288001388311">
        <ele>601.91999999999996</ele>
        <time>2025-05-07T09:13:44Z</time>
      </trkpt>
      <trkpt lat="37.308240020647645" lon="-8.586223041638732">
        <ele>602.88</ele>
        <time>2025-05-07T09:13:45Z</time>
      </trkpt>
      <trkpt lat="37.308240020647645" lon="-8.586223041638732">
        <ele>603.36000000000001</ele>
        <time>2025-05-07T09:13:46Z</time>
      </trkpt>
      <trkpt lat="37.308183023706079" lon="-8.586061019450426">
        <ele>604.80999999999995</ele>
        <time>2025-05-07T09:13:48Z</time>
      </trkpt>
      <trkpt lat="37.308095013722777" lon="-8.585978960618377">
        <ele>605.76999999999998</ele>
        <time>2025-05-07T09:13:49Z</time>
      </trkpt>
      <trkpt lat="37.308011027052999" lon="-8.585900003090501">
        <ele>606.73000000000002</ele>
        <time>2025-05-07T09:13:50Z</time>
      </trkpt>
      <trkpt lat="37.307463018223643" lon="-8.585379989817739">
        <ele>614.41999999999996</ele>
        <time>2025-05-07T09:13:57Z</time>
      </trkpt>
      <trkpt lat="37.307367967441678" lon="-8.58523003757">
        <ele>617.77999999999997</ele>
        <time>2025-05-07T09:13:59Z</time>
      </trkpt>
      <trkpt lat="37.307336032390594" lon="-8.585164994001389">
        <ele>619.23000000000002</ele>
        <time>2025-05-07T09:14:00Z</time>
      </trkpt>
      <trkpt lat="37.307318011298776" lon="-8.585129035636783">
        <ele>621.14999999999998</ele>
        <time>2025-05-07T09:14:01Z</time>
      </trkpt>
      <trkpt lat="37.307326979935169" lon="-8.585042031481862">
        <ele>623.07000000000005</ele>
        <time>2025-05-07T09:14:02Z</time>
      </trkpt>
      <trkpt lat="37.307332009077072" lon="-8.585003977641463">
        <ele>625.47000000000003</ele>
        <time>2025-05-07T09:14:03Z</time>
      </trkpt>
      <trkpt lat="37.307315999642015" lon="-8.584954021498561">
        <ele>627.39999999999998</ele>
        <time>2025-05-07T09:14:04Z</time>
      </trkpt>
      <trkpt lat="37.307338966056705" lon="-8.584936000406742">
        <ele>629.32000000000005</ele>
        <time>2025-05-07T09:14:05Z</time>
      </trkpt>
      <trkpt lat="37.307376014068723" lon="-8.584986040368676">
        <ele>630.27999999999997</ele>
        <time>2025-05-07T09:14:06Z</time>
      </trkpt>
      <trkpt lat="37.307410966604948" lon="-8.585033984854817">
        <ele>630.75999999999999</ele>
        <time>2025-05-07T09:14:07Z</time>
      </trkpt>
      <trkpt lat="37.307458994910121" lon="-8.58510104008019">
        <ele>631.72000000000003</ele>
        <time>2025-05-07T09:14:08Z</time>
      </trkpt>
      <trkpt lat="37.307530995458364" lon="-8.585181003436446">
        <ele>632.67999999999995</ele>
        <time>2025-05-07T09:14:09Z</time>
      </trkpt>
      <trkpt lat="37.307622022926807" lon="-8.585222996771336">
        <ele>633.16999999999996</ele>
        <time>2025-05-07T09:14:10Z</time>
      </trkpt>
      <trkpt lat="37.307717995718122" lon="-8.585267001762986">
        <ele>634.13</ele>
        <time>2025-05-07T09:14:11Z</time>
      </trkpt>
      <trkpt lat="37.308597005903721" lon="-8.585418965667486">
        <ele>638.45000000000005</ele>
        <time>2025-05-07T09:14:18Z</time>
      </trkpt>
      <trkpt lat="37.308698007836938" lon="-8.585458025336266">
        <ele>639.40999999999997</ele>
        <time>2025-05-07T09:14:19Z</time>
      </trkpt>
      <trkpt lat="37.308798003941774" lon="-8.585558021441102">
        <ele>639.88999999999999</ele>
        <time>2025-05-07T09:14:20Z</time>
      </trkpt>
      <trkpt lat="37.308837985619903" lon="-8.585667992010713">
        <ele>640.86000000000001</ele>
        <time>2025-05-07T09:14:21Z</time>
      </trkpt>
      <trkpt lat="37.308884002268314" lon="-8.585793972015381">
        <ele>642.29999999999995</ele>
        <time>2025-05-07T09:14:22Z</time>
      </trkpt>
      <trkpt lat="37.308957008644938" lon="-8.585951970890164">
        <ele>643.74000000000001</ele>
        <time>2025-05-07T09:14:23Z</time>
      </trkpt>
      <trkpt lat="37.309036972001195" lon="-8.586107036098838">
        <ele>645.17999999999995</ele>
        <time>2025-05-07T09:14:24Z</time>
      </trkpt>
      <trkpt lat="37.309135962277651" lon="-8.586248019710183">
        <ele>646.13999999999999</ele>
        <time>2025-05-07T09:14:25Z</time>
      </trkpt>
      <trkpt lat="37.309236964210868" lon="-8.586390009149909">
        <ele>647.10000000000002</ele>
        <time>2025-05-07T09:14:26Z</time>
      </trkpt>
      <trkpt lat="37.309348024427891" lon="-8.586509032174945">
        <ele>648.07000000000005</ele>
        <time>2025-05-07T09:14:27Z</time>
      </trkpt>
      <trkpt lat="37.309463024139404" lon="-8.586612967774272">
        <ele>649.02999999999997</ele>
        <time>2025-05-07T09:14:28Z</time>
      </trkpt>
      <trkpt lat="37.309782039374113" lon="-8.586924020200968">
        <ele>650.95000000000005</ele>
        <time>2025-05-07T09:14:31Z</time>
      </trkpt>
      <trkpt lat="37.309843981638551" lon="-8.587047988548875">
        <ele>651.42999999999995</ele>
        <time>2025-05-07T09:14:32Z</time>
      </trkpt>
      <trkpt lat="37.309850016608834" lon="-8.587176986038685">
        <ele>651.90999999999997</ele>
        <time>2025-05-07T09:14:33Z</time>
      </trkpt>
      <trkpt lat="37.309850016608834" lon="-8.587339008226991">
        <ele>652.87</ele>
        <time>2025-05-07T09:14:34Z</time>
      </trkpt>
      <trkpt lat="37.309850016608834" lon="-8.587512010708451">
        <ele>653.35000000000002</ele>
        <time>2025-05-07T09:14:35Z</time>
      </trkpt>
      <trkpt lat="37.309850016608834" lon="-8.587685013189912">
        <ele>654.30999999999995</ele>
        <time>2025-05-07T09:14:36Z</time>
      </trkpt>
      <trkpt lat="37.309833001345396" lon="-8.587844017893076">
        <ele>655.27999999999997</ele>
        <time>2025-05-07T09:14:37Z</time>
      </trkpt>
      <trkpt lat="37.309788996353745" lon="-8.587987013161182">
        <ele>655.75999999999999</ele>
        <time>2025-05-07T09:14:38Z</time>
      </trkpt>
      <trkpt lat="37.309711966663599" lon="-8.588107964023948">
        <ele>656.72000000000003</ele>
        <time>2025-05-07T09:14:39Z</time>
      </trkpt>
      <trkpt lat="37.30960501357913" lon="-8.588191028684378">
        <ele>657.67999999999995</ele>
        <time>2025-05-07T09:14:40Z</time>
      </trkpt>
      <trkpt lat="37.30949797667563" lon="-8.588274009525776">
        <ele>658.63999999999999</ele>
        <time>2025-05-07T09:14:41Z</time>
      </trkpt>
      <trkpt lat="37.309293039143085" lon="-8.58843301422894">
        <ele>660.08000000000004</ele>
        <time>2025-05-07T09:14:43Z</time>
      </trkpt>
      <trkpt lat="37.309238975867629" lon="-8.588558994233608">
        <ele>660.55999999999995</ele>
        <time>2025-05-07T09:14:44Z</time>
      </trkpt>
      <trkpt lat="37.309180973097682" lon="-8.588696038350463">
        <ele>661.51999999999998</ele>
        <time>2025-05-07T09:14:45Z</time>
      </trkpt>
      <trkpt lat="37.309120958670974" lon="-8.588839033618569">
        <ele>662.49000000000001</ele>
        <time>2025-05-07T09:14:46Z</time>
      </trkpt>
      <trkpt lat="37.309044012799859" lon="-8.588982028886676">
        <ele>663.45000000000005</ele>
        <time>2025-05-07T09:14:47Z</time>
      </trkpt>
      <trkpt lat="37.308964971452951" lon="-8.589127035811544">
        <ele>664.40999999999997</ele>
        <time>2025-05-07T09:14:48Z</time>
      </trkpt>
      <trkpt lat="37.308886013925076" lon="-8.58927296474576">
        <ele>665.37</ele>
        <time>2025-05-07T09:14:49Z</time>
      </trkpt>
      <trkpt lat="37.308718040585518" lon="-8.589602960273624">
        <ele>668.25</ele>
        <time>2025-05-07T09:14:52Z</time>
      </trkpt>
      <trkpt lat="37.308712005615234" lon="-8.58961402438581">
        <ele>669.70000000000005</ele>
        <time>2025-05-07T09:14:53Z</time>
      </trkpt>
      <trkpt lat="37.308712005615234" lon="-8.589803958311677">
        <ele>676.41999999999996</ele>
        <time>2025-05-07T09:15:00Z</time>
      </trkpt>
      <trkpt lat="37.308673029765487" lon="-8.589824996888638">
        <ele>679.30999999999995</ele>
        <time>2025-05-07T09:15:42Z</time>
      </trkpt>
      <trkpt lat="37.308712005615234" lon="-8.590048039332032">
        <ele>678.35000000000002</ele>
        <time>2025-05-07T09:15:47Z</time>
      </trkpt>
      <trkpt lat="37.308712005615234" lon="-8.590176030993462">
        <ele>678.83000000000004</ele>
        <time>2025-05-07T09:15:48Z</time>
      </trkpt>
      <trkpt lat="37.308712005615234" lon="-8.590428996831179">
        <ele>678.83000000000004</ele>
        <time>2025-05-07T09:15:49Z</time>
      </trkpt>
      <trkpt lat="37.308772020041943" lon="-8.591429963707924">
        <ele>682.66999999999996</ele>
        <time>2025-05-07T09:15:57Z</time>
      </trkpt>
      <trkpt lat="37.308886013925076" lon="-8.592066988348961">
        <ele>686.03999999999996</ele>
        <time>2025-05-07T09:16:02Z</time>
      </trkpt>
      <trkpt lat="37.308929013088346" lon="-8.5921910405159">
        <ele>686.51999999999998</ele>
        <time>2025-05-07T09:16:03Z</time>
      </trkpt>
      <trkpt lat="37.30898299254477" lon="-8.592291958630085">
        <ele>687</ele>
        <time>2025-05-07T09:16:04Z</time>
      </trkpt>
      <trkpt lat="37.309120036661625" lon="-8.592552971094847">
        <ele>688.91999999999996</ele>
        <time>2025-05-07T09:16:07Z</time>
      </trkpt>
      <trkpt lat="37.309120036661625" lon="-8.592650033533573">
        <ele>689.39999999999998</ele>
        <time>2025-05-07T09:16:08Z</time>
      </trkpt>
      <trkpt lat="37.309114001691341" lon="-8.592760004103184">
        <ele>690.36000000000001</ele>
        <time>2025-05-07T09:16:09Z</time>
      </trkpt>
      <trkpt lat="37.30906899087131" lon="-8.592866035178304">
        <ele>691.33000000000004</ele>
        <time>2025-05-07T09:16:10Z</time>
      </trkpt>
      <trkpt lat="37.309005036950111" lon="-8.59296795912087">
        <ele>692.28999999999996</ele>
        <time>2025-05-07T09:16:11Z</time>
      </trkpt>
      <trkpt lat="37.308922978118062" lon="-8.593072984367609">
        <ele>693.25</ele>
        <time>2025-05-07T09:16:12Z</time>
      </trkpt>
      <trkpt lat="37.308818958699703" lon="-8.593170968815684">
        <ele>694.21000000000004</ele>
        <time>2025-05-07T09:16:13Z</time>
      </trkpt>
      <trkpt lat="37.308708988130093" lon="-8.593271970748901">
        <ele>695.16999999999996</ele>
        <time>2025-05-07T09:16:14Z</time>
      </trkpt>
      <trkpt lat="37.307725958526134" lon="-8.594056013971567">
        <ele>702.86000000000001</ele>
        <time>2025-05-07T09:16:22Z</time>
      </trkpt>
      <trkpt lat="37.307081976905465" lon="-8.594549037516117">
        <ele>707.19000000000005</ele>
        <time>2025-05-07T09:16:28Z</time>
      </trkpt>
      <trkpt lat="37.306996984407306" lon="-8.594689015299082">
        <ele>707.66999999999996</ele>
        <time>2025-05-07T09:16:29Z</time>
      </trkpt>
      <trkpt lat="37.306917021051049" lon="-8.594819018617272">
        <ele>708.14999999999998</ele>
        <time>2025-05-07T09:16:30Z</time>
      </trkpt>
      <trkpt lat="37.306766984984279" lon="-8.595082964748144">
        <ele>709.59000000000003</ele>
        <time>2025-05-07T09:16:32Z</time>
      </trkpt>
      <trkpt lat="37.306514019146562" lon="-8.595981001853943">
        <ele>711.99000000000001</ele>
        <time>2025-05-07T09:16:38Z</time>
      </trkpt>
      <trkpt lat="37.306509995833039" lon="-8.59610497020185">
        <ele>711.99000000000001</ele>
        <time>2025-05-07T09:16:39Z</time>
      </trkpt>
      <trkpt lat="37.306544026359916" lon="-8.596252994611859">
        <ele>711.99000000000001</ele>
        <time>2025-05-07T09:16:40Z</time>
      </trkpt>
      <trkpt lat="37.306586019694805" lon="-8.596404958516359">
        <ele>711.99000000000001</ele>
        <time>2025-05-07T09:16:41Z</time>
      </trkpt>
      <trkpt lat="37.30663999915123" lon="-8.596558012068272">
        <ele>712.47000000000003</ele>
        <time>2025-05-07T09:16:42Z</time>
      </trkpt>
      <trkpt lat="37.306902017444372" lon="-8.597294026985765">
        <ele>713.91999999999996</ele>
        <time>2025-05-07T09:16:47Z</time>
      </trkpt>
      <trkpt lat="37.306978041306138" lon="-8.597431993111968">
        <ele>714.39999999999998</ele>
        <time>2025-05-07T09:16:48Z</time>
      </trkpt>
      <trkpt lat="37.307598972693086" lon="-8.598406976088882">
        <ele>718.72000000000003</ele>
        <time>2025-05-07T09:16:56Z</time>
      </trkpt>
      <trkpt lat="37.307697040960193" lon="-8.598503032699227">
        <ele>719.20000000000005</ele>
        <time>2025-05-07T09:16:57Z</time>
      </trkpt>
      <trkpt lat="37.307794019579887" lon="-8.598589031025767">
        <ele>719.67999999999995</ele>
        <time>2025-05-07T09:16:58Z</time>
      </trkpt>
      <trkpt lat="37.308217976242304" lon="-8.598829004913569">
        <ele>722.09000000000003</ele>
        <time>2025-05-07T09:17:02Z</time>
      </trkpt>
      <trkpt lat="37.308654002845287" lon="-8.59909001737833">
        <ele>725.45000000000005</ele>
        <time>2025-05-07T09:17:06Z</time>
      </trkpt>
      <trkpt lat="37.308759028092027" lon="-8.599157994613051">
        <ele>726.40999999999997</ele>
        <time>2025-05-07T09:17:07Z</time>
      </trkpt>
      <trkpt lat="37.308825999498367" lon="-8.599253967404366">
        <ele>726.88999999999999</ele>
        <time>2025-05-07T09:17:08Z</time>
      </trkpt>
      <trkpt lat="37.308884002268314" lon="-8.599397968500853">
        <ele>727.86000000000001</ele>
        <time>2025-05-07T09:17:09Z</time>
      </trkpt>
      <trkpt lat="37.308905962854624" lon="-8.599548004567623">
        <ele>728.82000000000005</ele>
        <time>2025-05-07T09:17:10Z</time>
      </trkpt>
      <trkpt lat="37.308886013925076" lon="-8.599673984572291">
        <ele>730.25999999999999</ele>
        <time>2025-05-07T09:17:11Z</time>
      </trkpt>
      <trkpt lat="37.308861035853624" lon="-8.599830977618694">
        <ele>731.22000000000003</ele>
        <time>2025-05-07T09:17:12Z</time>
      </trkpt>
      <trkpt lat="37.308835973963141" lon="-8.599995011463761">
        <ele>732.17999999999995</ele>
        <time>2025-05-07T09:17:13Z</time>
      </trkpt>
      <trkpt lat="37.308807978406549" lon="-8.600172959268093">
        <ele>732.65999999999997</ele>
        <time>2025-05-07T09:17:14Z</time>
      </trkpt>
      <trkpt lat="37.30879096314311" lon="-8.60035602003336">
        <ele>733.62</ele>
        <time>2025-05-07T09:17:15Z</time>
      </trkpt>
      <trkpt lat="37.308755004778504" lon="-8.600943004712462">
        <ele>736.02999999999997</ele>
        <time>2025-05-07T09:17:18Z</time>
      </trkpt>
      <trkpt lat="37.308718962594867" lon="-8.601093962788582">
        <ele>736.99000000000001</ele>
        <time>2025-05-07T09:17:19Z</time>
      </trkpt>
      <trkpt lat="37.308678980916739" lon="-8.601262019947171">
        <ele>737.95000000000005</ele>
        <time>2025-05-07T09:17:20Z</time>
      </trkpt>
      <trkpt lat="37.308632964268327" lon="-8.601423036307097">
        <ele>738.42999999999995</ele>
        <time>2025-05-07T09:17:21Z</time>
      </trkpt>
      <trkpt lat="37.308559035882354" lon="-8.601571982726455">
        <ele>739.38999999999999</ele>
        <time>2025-05-07T09:17:22Z</time>
      </trkpt>
      <trkpt lat="37.30848703533411" lon="-8.601714977994561">
        <ele>740.35000000000002</ele>
        <time>2025-05-07T09:17:23Z</time>
      </trkpt>
      <trkpt lat="37.30842299759388" lon="-8.601843975484371">
        <ele>741.30999999999995</ele>
        <time>2025-05-07T09:17:24Z</time>
      </trkpt>
      <trkpt lat="37.308390978723764" lon="-8.601969033479691">
        <ele>742.27999999999997</ele>
        <time>2025-05-07T09:17:25Z</time>
      </trkpt>
      <trkpt lat="37.308390978723764" lon="-8.602106999605894">
        <ele>742.75999999999999</ele>
        <time>2025-05-07T09:17:26Z</time>
      </trkpt>
      <trkpt lat="37.308390978723764" lon="-8.602992966771126">
        <ele>748.03999999999996</ele>
        <time>2025-05-07T09:17:32Z</time>
      </trkpt>
      <trkpt lat="37.308383015915751" lon="-8.603130010887981">
        <ele>748.51999999999998</ele>
        <time>2025-05-07T09:17:33Z</time>
      </trkpt>
      <trkpt lat="37.308334987610579" lon="-8.603260014206171">
        <ele>749.49000000000001</ele>
        <time>2025-05-07T09:17:34Z</time>
      </trkpt>
      <trkpt lat="37.308286959305406" lon="-8.603389011695981">
        <ele>749.97000000000003</ele>
        <time>2025-05-07T09:17:35Z</time>
      </trkpt>
      <trkpt lat="37.308242032304406" lon="-8.603509040549398">
        <ele>750.92999999999995</ele>
        <time>2025-05-07T09:17:36Z</time>
      </trkpt>
      <trkpt lat="37.307817991822958" lon="-8.604643028229475">
        <ele>756.21000000000004</ele>
        <time>2025-05-07T09:17:45Z</time>
      </trkpt>
      <trkpt lat="37.307768035680056" lon="-8.60478401184082">
        <ele>757.17999999999995</ele>
        <time>2025-05-07T09:17:46Z</time>
      </trkpt>
      <trkpt lat="37.30773601680994" lon="-8.604812007397413">
        <ele>757.65999999999997</ele>
        <time>2025-05-07T09:17:47Z</time>
      </trkpt>
      <trkpt lat="37.307573994621634" lon="-8.604949973523617">
        <ele>761.5</ele>
        <time>2025-05-07T09:17:52Z</time>
      </trkpt>
      <trkpt lat="37.307557985186577" lon="-8.604963971301913">
        <ele>761.98000000000002</ele>
        <time>2025-05-07T09:17:53Z</time>
      </trkpt>
      <trkpt lat="37.307548010721803" lon="-8.604973023757339">
        <ele>762.46000000000004</ele>
        <time>2025-05-07T09:17:54Z</time>
      </trkpt>
      <trkpt lat="37.307548010721803" lon="-8.604973023757339">
        <ele>764.38999999999999</ele>
        <time>2025-05-07T09:18:07Z</time>
      </trkpt>
      <trkpt lat="37.307548010721803" lon="-8.604973023757339">
        <ele>764.87</ele>
        <time>2025-05-07T09:18:28Z</time>
      </trkpt>
      <trkpt lat="37.307548010721803" lon="-8.604973023757339">
        <ele>765.83000000000004</ele>
        <time>2025-05-07T09:19:00Z</time>
      </trkpt>
      <trkpt lat="37.307548010721803" lon="-8.604973023757339">
        <ele>766.78999999999996</ele>
        <time>2025-05-07T09:19:44Z</time>
      </trkpt>
      <trkpt lat="37.307548010721803" lon="-8.604973023757339">
        <ele>767.75</ele>
        <time>2025-05-07T09:20:19Z</time>
      </trkpt>
      <trkpt lat="37.307467963546515" lon="-8.60504200682044">
        <ele>768.23000000000002</ele>
        <time>2025-05-07T09:20:20Z</time>
      </trkpt>
      <trkpt lat="37.307566031813622" lon="-8.604958020150662">
        <ele>768.71000000000004</ele>
        <time>2025-05-07T09:20:21Z</time>
      </trkpt>
      <trkpt lat="37.30758598074317" lon="-8.604941004887223">
        <ele>769.19000000000005</ele>
        <time>2025-05-07T09:20:22Z</time>
      </trkpt>
      <trkpt lat="37.307610958814621" lon="-8.604918960481882">
        <ele>769.19000000000005</ele>
        <time>2025-05-07T09:20:23Z</time>
      </trkpt>
      <trkpt lat="37.307636020705104" lon="-8.604896999895573">
        <ele>769.19000000000005</ele>
        <time>2025-05-07T09:20:24Z</time>
      </trkpt>
      <trkpt lat="37.307660998776555" lon="-8.604875961318612">
        <ele>769.19000000000005</ele>
        <time>2025-05-07T09:20:25Z</time>
      </trkpt>
      <trkpt lat="37.307745991274714" lon="-8.60480303876102">
        <ele>769.19000000000005</ele>
        <time>2025-05-07T09:20:28Z</time>
      </trkpt>
      <trkpt lat="37.307783961296082" lon="-8.60474000684917">
        <ele>769.19000000000005</ele>
        <time>2025-05-07T09:20:29Z</time>
      </trkpt>
      <trkpt lat="37.307812040671706" lon="-8.604660965502262">
        <ele>768.71000000000004</ele>
        <time>2025-05-07T09:20:30Z</time>
      </trkpt>
      <trkpt lat="37.307842969894409" lon="-8.604572033509612">
        <ele>768.23000000000002</ele>
        <time>2025-05-07T09:20:31Z</time>
      </trkpt>
      <trkpt lat="37.307880017906427" lon="-8.604468014091253">
        <ele>767.75</ele>
        <time>2025-05-07T09:20:32Z</time>
      </trkpt>
      <trkpt lat="37.308267010375857" lon="-8.603441985324025">
        <ele>763.41999999999996</ele>
        <time>2025-05-07T09:20:39Z</time>
      </trkpt>
      <trkpt lat="37.308390978723764" lon="-8.60310897231102">
        <ele>761.98000000000002</ele>
        <time>2025-05-07T09:20:41Z</time>
      </trkpt>
      <trkpt lat="37.308390978723764" lon="-8.602934964001179">
        <ele>761.5</ele>
        <time>2025-05-07T09:20:42Z</time>
      </trkpt>
      <trkpt lat="37.308390978723764" lon="-8.602760033681989">
        <ele>760.53999999999996</ele>
        <time>2025-05-07T09:20:43Z</time>
      </trkpt>
      <trkpt lat="37.308390978723764" lon="-8.60207699239254">
        <ele>758.62</ele>
        <time>2025-05-07T09:20:47Z</time>
      </trkpt>
      <trkpt lat="37.308390978723764" lon="-8.601922011002898">
        <ele>758.62</ele>
        <time>2025-05-07T09:20:48Z</time>
      </trkpt>
      <trkpt lat="37.308439007028937" lon="-8.601811034604907">
        <ele>758.13999999999999</ele>
        <time>2025-05-07T09:20:49Z</time>
      </trkpt>
      <trkpt lat="37.308502038940787" lon="-8.601685976609588">
        <ele>757.17999999999995</ele>
        <time>2025-05-07T09:20:50Z</time>
      </trkpt>
      <trkpt lat="37.308566998690367" lon="-8.601555973291397">
        <ele>756.69000000000005</ele>
        <time>2025-05-07T09:20:51Z</time>
      </trkpt>
      <trkpt lat="37.308634975925088" lon="-8.601419012993574">
        <ele>755.73000000000002</ele>
        <time>2025-05-07T09:20:52Z</time>
      </trkpt>
      <trkpt lat="37.3086809925735" lon="-8.601256990805268">
        <ele>755.25</ele>
        <time>2025-05-07T09:20:53Z</time>
      </trkpt>
      <trkpt lat="37.308757016435266" lon="-8.600922971963882">
        <ele>753.80999999999995</ele>
        <time>2025-05-07T09:20:55Z</time>
      </trkpt>
      <trkpt lat="37.30876699090004" lon="-8.600747035816312">
        <ele>753.33000000000004</ele>
        <time>2025-05-07T09:20:56Z</time>
      </trkpt>
      <trkpt lat="37.308888025581837" lon="-8.599427975714207">
        <ele>746.12</ele>
        <time>2025-05-07T09:21:03Z</time>
      </trkpt>
      <trkpt lat="37.308839997276664" lon="-8.599286992102861">
        <ele>745.15999999999997</ele>
        <time>2025-05-07T09:21:04Z</time>
      </trkpt>
      <trkpt lat="37.308777971193194" lon="-8.599169980734587">
        <ele>743.72000000000003</ele>
        <time>2025-05-07T09:21:05Z</time>
      </trkpt>
      <trkpt lat="37.308663977310061" lon="-8.599096974357963">
        <ele>742.27999999999997</ele>
        <time>2025-05-07T09:21:06Z</time>
      </trkpt>
      <trkpt lat="37.308539003133774" lon="-8.599016005173326">
        <ele>741.30999999999995</ele>
        <time>2025-05-07T09:21:07Z</time>
      </trkpt>
      <trkpt lat="37.308408999815583" lon="-8.598934030160308">
        <ele>739.87</ele>
        <time>2025-05-07T09:21:08Z</time>
      </trkpt>
      <trkpt lat="37.308130972087383" lon="-8.598780976608396">
        <ele>736.99000000000001</ele>
        <time>2025-05-07T09:21:10Z</time>
      </trkpt>
      <trkpt lat="37.307617999613285" lon="-8.598432959988713">
        <ele>732.17999999999995</ele>
        <time>2025-05-07T09:21:14Z</time>
      </trkpt>
      <trkpt lat="37.307510962709785" lon="-8.598287031054497">
        <ele>731.70000000000005</ele>
        <time>2025-05-07T09:21:15Z</time>
      </trkpt>
      <trkpt lat="37.307407027110457" lon="-8.598145041614771">
        <ele>730.74000000000001</ele>
        <time>2025-05-07T09:21:16Z</time>
      </trkpt>
      <trkpt lat="37.307307031005621" lon="-8.597985031083226">
        <ele>729.77999999999997</ele>
        <time>2025-05-07T09:21:17Z</time>
      </trkpt>
      <trkpt lat="37.307204017415643" lon="-8.597811022773385">
        <ele>728.82000000000005</ele>
        <time>2025-05-07T09:21:18Z</time>
      </trkpt>
      <trkpt lat="37.30689799413085" lon="-8.597282040864229">
        <ele>725.92999999999995</ele>
        <time>2025-05-07T09:21:21Z</time>
      </trkpt>
      <trkpt lat="37.306513013318181" lon="-8.596119973808527">
        <ele>719.20000000000005</ele>
        <time>2025-05-07T09:21:27Z</time>
      </trkpt>
      <trkpt lat="37.306537991389632" lon="-8.595789978280664">
        <ele>717.27999999999997</ele>
        <time>2025-05-07T09:21:29Z</time>
      </trkpt>
      <trkpt lat="37.306819958612323" lon="-8.594978023320437">
        <ele>712.47000000000003</ele>
        <time>2025-05-07T09:21:34Z</time>
      </trkpt>
      <trkpt lat="37.307081976905465" lon="-8.594549037516117">
        <ele>709.11000000000001</ele>
        <time>2025-05-07T09:21:37Z</time>
      </trkpt>
      <trkpt lat="37.307192031294107" lon="-8.59444702975452">
        <ele>708.14999999999998</ele>
        <time>2025-05-07T09:21:38Z</time>
      </trkpt>
      <trkpt lat="37.307310970500112" lon="-8.594335969537497">
        <ele>707.19000000000005</ele>
        <time>2025-05-07T09:21:39Z</time>
      </trkpt>
      <trkpt lat="37.308611003682017" lon="-8.593361992388964">
        <ele>697.57000000000005</ele>
        <time>2025-05-07T09:21:48Z</time>
      </trkpt>
      <trkpt lat="37.308870004490018" lon="-8.593124030157924">
        <ele>695.16999999999996</ele>
        <time>2025-05-07T09:21:50Z</time>
      </trkpt>
      <trkpt lat="37.30898198671639" lon="-8.592999977990985">
        <ele>694.21000000000004</ele>
        <time>2025-05-07T09:21:51Z</time>
      </trkpt>
      <trkpt lat="37.309072008356452" lon="-8.59286000020802">
        <ele>693.25</ele>
        <time>2025-05-07T09:21:52Z</time>
      </trkpt>
      <trkpt lat="37.309120036661625" lon="-8.592704012989998">
        <ele>692.28999999999996</ele>
        <time>2025-05-07T09:21:53Z</time>
      </trkpt>
      <trkpt lat="37.309120036661625" lon="-8.592566968873143">
        <ele>691.33000000000004</ele>
        <time>2025-05-07T09:21:54Z</time>
      </trkpt>
      <trkpt lat="37.309063961729407" lon="-8.592447023838759">
        <ele>690.84000000000003</ele>
        <time>2025-05-07T09:21:55Z</time>
      </trkpt>
      <trkpt lat="37.309005036950111" lon="-8.592334035784006">
        <ele>689.88</ele>
        <time>2025-05-07T09:21:56Z</time>
      </trkpt>
      <trkpt lat="37.308940999209881" lon="-8.592213001102209">
        <ele>688.91999999999996</ele>
        <time>2025-05-07T09:21:57Z</time>
      </trkpt>
      <trkpt lat="37.308889031410217" lon="-8.592079980298877">
        <ele>687.96000000000004</ele>
        <time>2025-05-07T09:21:58Z</time>
      </trkpt>
      <trkpt lat="37.308851983398199" lon="-8.591931033879519">
        <ele>687</ele>
        <time>2025-05-07T09:21:59Z</time>
      </trkpt>
      <trkpt lat="37.308712005615234" lon="-8.590579032897949">
        <ele>680.75</ele>
        <time>2025-05-07T09:22:06Z</time>
      </trkpt>
      <trkpt lat="37.308712005615234" lon="-8.589770011603832">
        <ele>676.90999999999997</ele>
        <time>2025-05-07T09:22:10Z</time>
      </trkpt>
      <trkpt lat="37.308714017271996" lon="-8.589611006900668">
        <ele>675.46000000000004</ele>
        <time>2025-05-07T09:22:11Z</time>
      </trkpt>
      <trkpt lat="37.308785011991858" lon="-8.589469017460942">
        <ele>674.5</ele>
        <time>2025-05-07T09:22:12Z</time>
      </trkpt>
      <trkpt lat="37.308864975348115" lon="-8.589312024414539">
        <ele>673.53999999999996</ele>
        <time>2025-05-07T09:22:13Z</time>
      </trkpt>
      <trkpt lat="37.308956002816558" lon="-8.589142961427569">
        <ele>672.10000000000002</ele>
        <time>2025-05-07T09:22:14Z</time>
      </trkpt>
      <trkpt lat="37.309049963951111" lon="-8.588970964774489">
        <ele>671.13999999999999</ele>
        <time>2025-05-07T09:22:15Z</time>
      </trkpt>
      <trkpt lat="37.309137973934412" lon="-8.588798968121409">
        <ele>669.70000000000005</ele>
        <time>2025-05-07T09:22:16Z</time>
      </trkpt>
      <trkpt lat="37.309273006394506" lon="-8.588478025048971">
        <ele>667.28999999999996</ele>
        <time>2025-05-07T09:22:18Z</time>
      </trkpt>
      <trkpt lat="37.309356993064284" lon="-8.588382974267006">
        <ele>666.33000000000004</ele>
        <time>2025-05-07T09:22:19Z</time>
      </trkpt>
      <trkpt lat="37.309465035796165" lon="-8.588299993425608">
        <ele>665.37</ele>
        <time>2025-05-07T09:22:20Z</time>
      </trkpt>
      <trkpt lat="37.309682965278625" lon="-8.588131014257669">
        <ele>663.45000000000005</ele>
        <time>2025-05-07T09:22:22Z</time>
      </trkpt>
      <trkpt lat="37.309772986918688" lon="-8.588037975132465">
        <ele>662.49000000000001</ele>
        <time>2025-05-07T09:22:23Z</time>
      </trkpt>
      <trkpt lat="37.309811962768435" lon="-8.587913000956178">
        <ele>661.51999999999998</ele>
        <time>2025-05-07T09:22:24Z</time>
      </trkpt>
      <trkpt lat="37.309850016608834" lon="-8.587779980152845">
        <ele>660.55999999999995</ele>
        <time>2025-05-07T09:22:25Z</time>
      </trkpt>
      <trkpt lat="37.309850016608834" lon="-8.587622987106443">
        <ele>659.12</ele>
        <time>2025-05-07T09:22:26Z</time>
      </trkpt>
      <trkpt lat="37.309850016608834" lon="-8.587457025423646">
        <ele>658.15999999999997</ele>
        <time>2025-05-07T09:22:27Z</time>
      </trkpt>
      <trkpt lat="37.309850016608834" lon="-8.587289974093437">
        <ele>657.20000000000005</ele>
        <time>2025-05-07T09:22:28Z</time>
      </trkpt>
      <trkpt lat="37.309850016608834" lon="-8.587134992703795">
        <ele>655.75999999999999</ele>
        <time>2025-05-07T09:22:29Z</time>
      </trkpt>
      <trkpt lat="37.309825038537383" lon="-8.587011024355888">
        <ele>654.79999999999995</ele>
        <time>2025-05-07T09:22:30Z</time>
      </trkpt>
      <trkpt lat="37.309764018282294" lon="-8.58688797801733">
        <ele>653.83000000000004</ele>
        <time>2025-05-07T09:22:31Z</time>
      </trkpt>
      <trkpt lat="37.309679025784135" lon="-8.586811032146215">
        <ele>652.87</ele>
        <time>2025-05-07T09:22:32Z</time>
      </trkpt>
      <trkpt lat="37.309579029679298" lon="-8.586720004677773">
        <ele>652.38999999999999</ele>
        <time>2025-05-07T09:22:33Z</time>
      </trkpt>
      <trkpt lat="37.309471992775798" lon="-8.586622020229697">
        <ele>651.42999999999995</ele>
        <time>2025-05-07T09:22:34Z</time>
      </trkpt>
      <trkpt lat="37.309355987235904" lon="-8.586515989154577">
        <ele>650.47000000000003</ele>
        <time>2025-05-07T09:22:35Z</time>
      </trkpt>
      <trkpt lat="37.30924098752439" lon="-8.586396966129541">
        <ele>649.50999999999999</ele>
        <time>2025-05-07T09:22:36Z</time>
      </trkpt>
      <trkpt lat="37.309140991419554" lon="-8.586253970861435">
        <ele>648.54999999999995</ele>
        <time>2025-05-07T09:22:37Z</time>
      </trkpt>
      <trkpt lat="37.309043006971478" lon="-8.586116004735231">
        <ele>648.07000000000005</ele>
        <time>2025-05-07T09:22:38Z</time>
      </trkpt>
      <trkpt lat="37.308962037786841" lon="-8.585963035002351">
        <ele>647.10000000000002</ele>
        <time>2025-05-07T09:22:39Z</time>
      </trkpt>
      <trkpt lat="37.308884002268314" lon="-8.585793972015381">
        <ele>646.13999999999999</ele>
        <time>2025-05-07T09:22:40Z</time>
      </trkpt>
      <trkpt lat="37.308833040297031" lon="-8.585651982575655">
        <ele>645.65999999999997</ele>
        <time>2025-05-07T09:22:41Z</time>
      </trkpt>
      <trkpt lat="37.30876799672842" lon="-8.585528014227748">
        <ele>644.70000000000005</ele>
        <time>2025-05-07T09:22:42Z</time>
      </trkpt>
      <trkpt lat="37.308677975088358" lon="-8.585436986759305">
        <ele>643.74000000000001</ele>
        <time>2025-05-07T09:22:43Z</time>
      </trkpt>
      <trkpt lat="37.308562975376844" lon="-8.585414020344615">
        <ele>642.77999999999997</ele>
        <time>2025-05-07T09:22:44Z</time>
      </trkpt>
      <trkpt lat="37.308432972058654" lon="-8.585394993424416">
        <ele>641.82000000000005</ele>
        <time>2025-05-07T09:22:45Z</time>
      </trkpt>
      <trkpt lat="37.307713972404599" lon="-8.585265995934606">
        <ele>636.52999999999997</ele>
        <time>2025-05-07T09:22:50Z</time>
      </trkpt>
      <trkpt lat="37.307583969086409" lon="-8.585205981507897">
        <ele>635.57000000000005</ele>
        <time>2025-05-07T09:22:51Z</time>
      </trkpt>
      <trkpt lat="37.307476010173559" lon="-8.58512400649488">
        <ele>634.13</ele>
        <time>2025-05-07T09:22:52Z</time>
      </trkpt>
      <trkpt lat="37.307399986311793" lon="-8.58501898124814">
        <ele>633.16999999999996</ele>
        <time>2025-05-07T09:22:53Z</time>
      </trkpt>
      <trkpt lat="37.307332009077072" lon="-8.584917979314923">
        <ele>632.20000000000005</ele>
        <time>2025-05-07T09:22:54Z</time>
      </trkpt>
      <trkpt lat="37.30728599242866" lon="-8.58480297960341">
        <ele>631.24000000000001</ele>
        <time>2025-05-07T09:22:55Z</time>
      </trkpt>
      <trkpt lat="37.307250034064054" lon="-8.584680017083883">
        <ele>630.27999999999997</ele>
        <time>2025-05-07T09:22:56Z</time>
      </trkpt>
      <trkpt lat="37.307238969951868" lon="-8.584540961310267">
        <ele>629.79999999999995</ele>
        <time>2025-05-07T09:22:57Z</time>
      </trkpt>
      <trkpt lat="37.307236958295107" lon="-8.584382962435484">
        <ele>628.84000000000003</ele>
        <time>2025-05-07T09:22:58Z</time>
      </trkpt>
      <trkpt lat="37.307251039892435" lon="-8.584213983267546">
        <ele>628.36000000000001</ele>
        <time>2025-05-07T09:22:59Z</time>
      </trkpt>
      <trkpt lat="37.30726595968008" lon="-8.584033017978072">
        <ele>627.39999999999998</ele>
        <time>2025-05-07T09:23:00Z</time>
      </trkpt>
      <trkpt lat="37.307269982993603" lon="-8.58383797109127">
        <ele>626.44000000000005</ele>
        <time>2025-05-07T09:23:01Z</time>
      </trkpt>
      <trkpt lat="37.307169986888766" lon="-8.582444982603192">
        <ele>618.25999999999999</ele>
        <time>2025-05-07T09:23:08Z</time>
      </trkpt>
      <trkpt lat="37.307189013808966" lon="-8.582296036183834">
        <ele>617.29999999999995</ele>
        <time>2025-05-07T09:23:09Z</time>
      </trkpt>
      <trkpt lat="37.307231007143855" lon="-8.582154968753457">
        <ele>615.86000000000001</ele>
        <time>2025-05-07T09:23:10Z</time>
      </trkpt>
      <trkpt lat="37.30730895884335" lon="-8.582023959606886">
        <ele>614.89999999999998</ele>
        <time>2025-05-07T09:23:11Z</time>
      </trkpt>
      <trkpt lat="37.307399986311793" lon="-8.581892028450966">
        <ele>613.94000000000005</ele>
        <time>2025-05-07T09:23:12Z</time>
      </trkpt>
      <trkpt lat="37.307602996006608" lon="-8.581617018207908">
        <ele>611.53999999999996</ele>
        <time>2025-05-07T09:23:14Z</time>
      </trkpt>
      <trkpt lat="37.307717995718122" lon="-8.581489026546478">
        <ele>610.57000000000005</ele>
        <time>2025-05-07T09:23:15Z</time>
      </trkpt>
      <trkpt lat="37.308339010924101" lon="-8.580830041319132">
        <ele>606.73000000000002</ele>
        <time>2025-05-07T09:23:20Z</time>
      </trkpt>
      <trkpt lat="37.308614021167159" lon="-8.580322014167905">
        <ele>603.36000000000001</ele>
        <time>2025-05-07T09:23:23Z</time>
      </trkpt>
      <trkpt lat="37.308678980916739" lon="-8.580158986151218">
        <ele>602.39999999999998</ele>
        <time>2025-05-07T09:23:24Z</time>
      </trkpt>
      <trkpt lat="37.308686021715403" lon="-8.579980032518506">
        <ele>601.44000000000005</ele>
        <time>2025-05-07T09:23:25Z</time>
      </trkpt>
      <trkpt lat="37.308678980916739" lon="-8.57979697175324">
        <ele>600.48000000000002</ele>
        <time>2025-05-07T09:23:26Z</time>
      </trkpt>
      <trkpt lat="37.308672023937106" lon="-8.579601002857089">
        <ele>599.51999999999998</ele>
        <time>2025-05-07T09:23:27Z</time>
      </trkpt>
      <trkpt lat="37.308630030602217" lon="-8.579398998990655">
        <ele>598.08000000000004</ele>
        <time>2025-05-07T09:23:28Z</time>
      </trkpt>
      <trkpt lat="37.308570016175508" lon="-8.579199006780982">
        <ele>597.12</ele>
        <time>2025-05-07T09:23:29Z</time>
      </trkpt>
      <trkpt lat="37.3085100017488" lon="-8.57900102622807">
        <ele>596.14999999999998</ele>
        <time>2025-05-07T09:23:30Z</time>
      </trkpt>
      <trkpt lat="37.308398019522429" lon="-8.578629959374666">
        <ele>595.19000000000005</ele>
        <time>2025-05-07T09:23:32Z</time>
      </trkpt>
      <trkpt lat="37.308378992602229" lon="-8.578447988256812">
        <ele>594.23000000000002</ele>
        <time>2025-05-07T09:23:33Z</time>
      </trkpt>
      <trkpt lat="37.308382010087371" lon="-8.578267022967339">
        <ele>593.26999999999998</ele>
        <time>2025-05-07T09:23:34Z</time>
      </trkpt>
      <trkpt lat="37.30842299759388" lon="-8.578081028535962">
        <ele>592.30999999999995</ele>
        <time>2025-05-07T09:23:35Z</time>
      </trkpt>
      <trkpt lat="37.308464990928769" lon="-8.577890004962683">
        <ele>591.83000000000004</ele>
        <time>2025-05-07T09:23:36Z</time>
      </trkpt>
      <trkpt lat="37.308507990092039" lon="-8.577692024409771">
        <ele>590.87</ele>
        <time>2025-05-07T09:23:37Z</time>
      </trkpt>
      <trkpt lat="37.308587031438947" lon="-8.577505024150014">
        <ele>590.38999999999999</ele>
        <time>2025-05-07T09:23:38Z</time>
      </trkpt>
      <trkpt lat="37.308671018108726" lon="-8.577337972819805">
        <ele>589.42999999999995</ele>
        <time>2025-05-07T09:23:39Z</time>
      </trkpt>
      <trkpt lat="37.308778977021575" lon="-8.577203024178743">
        <ele>588.95000000000005</ele>
        <time>2025-05-07T09:23:40Z</time>
      </trkpt>
      <trkpt lat="37.30923998169601" lon="-8.576688040047884">
        <ele>586.05999999999995</ele>
        <time>2025-05-07T09:23:44Z</time>
      </trkpt>
      <trkpt lat="37.309297984465957" lon="-8.576571028679609">
        <ele>585.58000000000004</ele>
        <time>2025-05-07T09:23:45Z</time>
      </trkpt>
      <trkpt lat="37.309332014992833" lon="-8.57644597068429">
        <ele>584.62</ele>
        <time>2025-05-07T09:23:46Z</time>
      </trkpt>
      <trkpt lat="37.309305025264621" lon="-8.576324013993144">
        <ele>584.13999999999999</ele>
        <time>2025-05-07T09:23:47Z</time>
      </trkpt>
      <trkpt lat="37.309248028323054" lon="-8.576214965432882">
        <ele>583.17999999999995</ele>
        <time>2025-05-07T09:23:48Z</time>
      </trkpt>
      <trkpt lat="37.309168986976147" lon="-8.57612201012671">
        <ele>582.70000000000005</ele>
        <time>2025-05-07T09:23:49Z</time>
      </trkpt>
      <trkpt lat="37.309085000306368" lon="-8.576023019850254">
        <ele>581.73000000000002</ele>
        <time>2025-05-07T09:23:50Z</time>
      </trkpt>
      <trkpt lat="37.309023980051279" lon="-8.575899973511696">
        <ele>581.25</ele>
        <time>2025-05-07T09:23:51Z</time>
      </trkpt>
      <trkpt lat="37.308970000594854" lon="-8.575752032920718">
        <ele>580.76999999999998</ele>
        <time>2025-05-07T09:23:52Z</time>
      </trkpt>
      <trkpt lat="37.308956002816558" lon="-8.575579030439258">
        <ele>580.28999999999996</ele>
        <time>2025-05-07T09:23:53Z</time>
      </trkpt>
      <trkpt lat="37.308958014473319" lon="-8.575393036007881">
        <ele>579.33000000000004</ele>
        <time>2025-05-07T09:23:54Z</time>
      </trkpt>
      <trkpt lat="37.308977041393518" lon="-8.57519899494946">
        <ele>578.85000000000002</ele>
        <time>2025-05-07T09:23:55Z</time>
      </trkpt>
      <trkpt lat="37.309007970616221" lon="-8.575008977204561">
        <ele>578.37</ele>
        <time>2025-05-07T09:23:56Z</time>
      </trkpt>
      <trkpt lat="37.309079971164465" lon="-8.574856007471681">
        <ele>577.88999999999999</ele>
        <time>2025-05-07T09:23:57Z</time>
      </trkpt>
      <trkpt lat="37.309147026389837" lon="-8.574715023860335">
        <ele>577.40999999999997</ele>
        <time>2025-05-07T09:23:58Z</time>
      </trkpt>
      <trkpt lat="37.309223972260952" lon="-8.574598012492061">
        <ele>576.45000000000005</ele>
        <time>2025-05-07T09:23:59Z</time>
      </trkpt>
      <trkpt lat="37.309331009164453" lon="-8.574496004730463">
        <ele>575.97000000000003</ele>
        <time>2025-05-07T09:24:00Z</time>
      </trkpt>
      <trkpt lat="37.309443997219205" lon="-8.574387039989233">
        <ele>575.49000000000001</ele>
        <time>2025-05-07T09:24:01Z</time>
      </trkpt>
      <trkpt lat="37.309653963893652" lon="-8.574185036122799">
        <ele>573.55999999999995</ele>
        <time>2025-05-07T09:24:03Z</time>
      </trkpt>
      <trkpt lat="37.309721019119024" lon="-8.574120998382568">
        <ele>572.60000000000002</ele>
        <time>2025-05-07T09:24:04Z</time>
      </trkpt>
      <trkpt lat="37.309771981090307" lon="-8.573957970365882">
        <ele>571.63999999999999</ele>
        <time>2025-05-07T09:24:05Z</time>
      </trkpt>
      <trkpt lat="37.309813974425197" lon="-8.57382201589644">
        <ele>570.67999999999995</ele>
        <time>2025-05-07T09:24:06Z</time>
      </trkpt>
      <trkpt lat="37.30983903631568" lon="-8.573677008971572">
        <ele>569.72000000000003</ele>
        <time>2025-05-07T09:24:07Z</time>
      </trkpt>
      <trkpt lat="37.309856973588467" lon="-8.573518004268408">
        <ele>568.75999999999999</ele>
        <time>2025-05-07T09:24:08Z</time>
      </trkpt>
      <trkpt lat="37.309869965538383" lon="-8.572649974375963">
        <ele>563.47000000000003</ele>
        <time>2025-05-07T09:24:13Z</time>
      </trkpt>
      <trkpt lat="37.309888992458582" lon="-8.57189099304378">
        <ele>562.02999999999997</ele>
        <time>2025-05-07T09:24:17Z</time>
      </trkpt>
      <trkpt lat="37.309915982186794" lon="-8.571701981127262">
        <ele>561.54999999999995</ele>
        <time>2025-05-07T09:24:18Z</time>
      </trkpt>
      <trkpt lat="37.310044979676604" lon="-8.570951968431473">
        <ele>559.13999999999999</ele>
        <time>2025-05-07T09:24:22Z</time>
      </trkpt>
      <trkpt lat="37.310081021860242" lon="-8.570466991513968">
        <ele>556.74000000000001</ele>
        <time>2025-05-07T09:24:25Z</time>
      </trkpt>
      <trkpt lat="37.310113962739706" lon="-8.570323996245861">
        <ele>556.25999999999999</ele>
        <time>2025-05-07T09:24:26Z</time>
      </trkpt>
      <trkpt lat="37.31018403545022" lon="-8.570027025416493">
        <ele>554.82000000000005</ele>
        <time>2025-05-07T09:24:28Z</time>
      </trkpt>
      <trkpt lat="37.310431972146034" lon="-8.568589026108384">
        <ele>547.61000000000001</ele>
        <time>2025-05-07T09:24:36Z</time>
      </trkpt>
      <trkpt lat="37.31061696074903" lon="-8.567370967939496">
        <ele>540.88</ele>
        <time>2025-05-07T09:24:42Z</time>
      </trkpt>
      <trkpt lat="37.311021974310279" lon="-8.565643960610032">
        <ele>530.78999999999996</ele>
        <time>2025-05-07T09:24:50Z</time>
      </trkpt>
      <trkpt lat="37.311364961788058" lon="-8.564309980720282">
        <ele>525.98000000000002</ele>
        <time>2025-05-07T09:24:59Z</time>
      </trkpt>
      <trkpt lat="37.311824038624763" lon="-8.562976000830531">
        <ele>525.5</ele>
        <time>2025-05-07T09:25:07Z</time>
      </trkpt>
      <trkpt lat="37.312059989199042" lon="-8.562621027231216">
        <ele>524.05999999999995</ele>
        <time>2025-05-07T09:25:10Z</time>
      </trkpt>
      <trkpt lat="37.31214196421206" lon="-8.562525976449251">
        <ele>523.58000000000004</ele>
        <time>2025-05-07T09:25:11Z</time>
      </trkpt>
      <trkpt lat="37.312219999730587" lon="-8.562444001436234">
        <ele>523.09000000000003</ele>
        <time>2025-05-07T09:25:12Z</time>
      </trkpt>
      <trkpt lat="37.312318990007043" lon="-8.562399996444583">
        <ele>522.13</ele>
        <time>2025-05-07T09:25:13Z</time>
      </trkpt>
      <trkpt lat="37.312420997768641" lon="-8.562354985624552">
        <ele>521.64999999999998</ele>
        <time>2025-05-07T09:25:14Z</time>
      </trkpt>
      <trkpt lat="37.312788963317871" lon="-8.562191035598517">
        <ele>518.76999999999998</ele>
        <time>2025-05-07T09:25:17Z</time>
      </trkpt>
      <trkpt lat="37.312904968857765" lon="-8.562089027836919">
        <ele>517.80999999999995</ele>
        <time>2025-05-07T09:25:18Z</time>
      </trkpt>
      <trkpt lat="37.313661016523838" lon="-8.561370028182864">
        <ele>511.56</ele>
        <time>2025-05-07T09:25:24Z</time>
      </trkpt>
      <trkpt lat="37.313792025670409" lon="-8.56123298406601">
        <ele>510.12</ele>
        <time>2025-05-07T09:25:25Z</time>
      </trkpt>
      <trkpt lat="37.313890010118484" lon="-8.561055958271027">
        <ele>508.67000000000002</ele>
        <time>2025-05-07T09:25:26Z</time>
      </trkpt>
      <trkpt lat="37.313963016495109" lon="-8.56086703017354">
        <ele>507.70999999999998</ele>
        <time>2025-05-07T09:25:27Z</time>
      </trkpt>
      <trkpt lat="37.314038034528494" lon="-8.56067500077188">
        <ele>506.26999999999998</ele>
        <time>2025-05-07T09:25:28Z</time>
      </trkpt>
      <trkpt lat="37.314447993412614" lon="-8.559795990586281">
        <ele>500.01999999999998</ele>
        <time>2025-05-07T09:25:33Z</time>
      </trkpt>
      <trkpt lat="37.314508007839322" lon="-8.559617036953569">
        <ele>498.57999999999998</ele>
        <time>2025-05-07T09:25:34Z</time>
      </trkpt>
      <trkpt lat="37.314548995345831" lon="-8.55943095870316">
        <ele>497.13999999999999</ele>
        <time>2025-05-07T09:25:35Z</time>
      </trkpt>
      <trkpt lat="37.314570033922791" lon="-8.559227026998997">
        <ele>495.69999999999999</ele>
        <time>2025-05-07T09:25:36Z</time>
      </trkpt>
      <trkpt lat="37.314570033922791" lon="-8.559025023132563">
        <ele>494.74000000000001</ele>
        <time>2025-05-07T09:25:37Z</time>
      </trkpt>
      <trkpt lat="37.314635999500751" lon="-8.557702023535967">
        <ele>483.19999999999999</ele>
        <time>2025-05-07T09:25:45Z</time>
      </trkpt>
      <trkpt lat="37.314725015312433" lon="-8.55745199136436">
        <ele>480.80000000000001</ele>
        <time>2025-05-07T09:25:47Z</time>
      </trkpt>
      <trkpt lat="37.314781006425619" lon="-8.557355012744665">
        <ele>479.83999999999997</ele>
        <time>2025-05-07T09:25:48Z</time>
      </trkpt>
      <trkpt lat="37.314856024459004" lon="-8.557259039953351">
        <ele>478.38999999999999</ele>
        <time>2025-05-07T09:25:49Z</time>
      </trkpt>
      <trkpt lat="37.314937999472022" lon="-8.557184021919966">
        <ele>477.43000000000001</ele>
        <time>2025-05-07T09:25:50Z</time>
      </trkpt>
      <trkpt lat="37.315041013062" lon="-8.557117972522974">
        <ele>475.99000000000001</ele>
        <time>2025-05-07T09:25:51Z</time>
      </trkpt>
      <trkpt lat="37.31514603830874" lon="-8.557052006945014">
        <ele>474.55000000000001</ele>
        <time>2025-05-07T09:25:52Z</time>
      </trkpt>
      <trkpt lat="37.315247962251306" lon="-8.556987969204783">
        <ele>473.11000000000001</ele>
        <time>2025-05-07T09:25:53Z</time>
      </trkpt>
      <trkpt lat="37.315350975841284" lon="-8.556926026940346">
        <ele>471.66000000000003</ele>
        <time>2025-05-07T09:25:54Z</time>
      </trkpt>
      <trkpt lat="37.315571000799537" lon="-8.556798035278916">
        <ele>468.30000000000001</ele>
        <time>2025-05-07T09:25:56Z</time>
      </trkpt>
      <trkpt lat="37.315679965540767" lon="-8.556735003367066">
        <ele>466.38</ele>
        <time>2025-05-07T09:25:57Z</time>
      </trkpt>
      <trkpt lat="37.315767975524068" lon="-8.556623021140695">
        <ele>464.93000000000001</ele>
        <time>2025-05-07T09:25:58Z</time>
      </trkpt>
      <trkpt lat="37.315843999385834" lon="-8.556505003944039">
        <ele>463.00999999999999</ele>
        <time>2025-05-07T09:25:59Z</time>
      </trkpt>
      <trkpt lat="37.315919017419219" lon="-8.556384975090623">
        <ele>462.05000000000001</ele>
        <time>2025-05-07T09:26:00Z</time>
      </trkpt>
      <trkpt lat="37.316332999616861" lon="-8.555738981813192">
        <ele>452.92000000000002</ele>
        <time>2025-05-07T09:26:07Z</time>
      </trkpt>
      <trkpt lat="37.31632998213172" lon="-8.555581988766789">
        <ele>452.44</ele>
        <time>2025-05-07T09:26:08Z</time>
      </trkpt>
      <trkpt lat="37.31632998213172" lon="-8.555581988766789">
        <ele>451.48000000000002</ele>
        <time>2025-05-07T09:26:09Z</time>
      </trkpt>
      <trkpt lat="37.316305004060268" lon="-8.555505964905024">
        <ele>451</ele>
        <time>2025-05-07T09:26:10Z</time>
      </trkpt>
      <trkpt lat="37.316253958269954" lon="-8.555436981841922">
        <ele>450.02999999999997</ele>
        <time>2025-05-07T09:26:11Z</time>
      </trkpt>
      <trkpt lat="37.316193021833897" lon="-8.55536699295044">
        <ele>449.06999999999999</ele>
        <time>2025-05-07T09:26:12Z</time>
      </trkpt>
      <trkpt lat="37.316123032942414" lon="-8.555361963808537">
        <ele>448.58999999999997</ele>
        <time>2025-05-07T09:26:13Z</time>
      </trkpt>
      <trkpt lat="37.316042985767126" lon="-8.555356012657285">
        <ele>447.63</ele>
        <time>2025-05-07T09:26:14Z</time>
      </trkpt>
      <trkpt lat="37.315957993268967" lon="-8.555349977687001">
        <ele>446.67000000000002</ele>
        <time>2025-05-07T09:26:15Z</time>
      </trkpt>
      <trkpt lat="37.3159009963274" lon="-8.555346038192511">
        <ele>446.19</ele>
        <time>2025-05-07T09:26:16Z</time>
      </trkpt>
      <trkpt lat="37.315799994394183" lon="-8.555371016263962">
        <ele>445.70999999999998</ele>
        <time>2025-05-07T09:26:17Z</time>
      </trkpt>
      <trkpt lat="37.31572799384594" lon="-8.555389037355781">
        <ele>445.23000000000002</ele>
        <time>2025-05-07T09:26:18Z</time>
      </trkpt>
      <trkpt lat="37.315658004954457" lon="-8.555407980456948">
        <ele>444.26999999999998</ele>
        <time>2025-05-07T09:26:19Z</time>
      </trkpt>
      <trkpt lat="37.31549296528101" lon="-8.555452991276979">
        <ele>443.31</ele>
        <time>2025-05-07T09:26:21Z</time>
      </trkpt>
      <trkpt lat="37.314699031412601" lon="-8.555538989603519">
        <ele>437.06</ele>
        <time>2025-05-07T09:26:28Z</time>
      </trkpt>
      <trkpt lat="37.314584031701088" lon="-8.555585006251931">
        <ele>436.57999999999998</ele>
        <time>2025-05-07T09:26:29Z</time>
      </trkpt>
      <trkpt lat="37.31413995847106" lon="-8.555737975984812">
        <ele>433.69</ele>
        <time>2025-05-07T09:26:34Z</time>
      </trkpt>
      <trkpt lat="37.314043985679746" lon="-8.555759014561772">
        <ele>432.73000000000002</ele>
        <time>2025-05-07T09:26:35Z</time>
      </trkpt>
      <trkpt lat="37.313938960433006" lon="-8.555778041481972">
        <ele>431.76999999999998</ele>
        <time>2025-05-07T09:26:36Z</time>
      </trkpt>
      <trkpt lat="37.313007982447743" lon="-8.555721966549754">
        <ele>420.70999999999998</ele>
        <time>2025-05-07T09:26:44Z</time>
      </trkpt>
      <trkpt lat="37.312794998288155" lon="-8.55566899292171">
        <ele>416.87</ele>
        <time>2025-05-07T09:26:47Z</time>
      </trkpt>
      <trkpt lat="37.312747975811362" lon="-8.555615013465285">
        <ele>415.43000000000001</ele>
        <time>2025-05-07T09:26:48Z</time>
      </trkpt>
      <trkpt lat="37.312652003020048" lon="-8.555494984611869">
        <ele>412.54000000000002</ele>
        <time>2025-05-07T09:26:51Z</time>
      </trkpt>
      <trkpt lat="37.312558041885495" lon="-8.555465983226895">
        <ele>411.57999999999998</ele>
        <time>2025-05-07T09:26:52Z</time>
      </trkpt>
      <trkpt lat="37.312496015802026" lon="-8.555479981005192">
        <ele>411.10000000000002</ele>
        <time>2025-05-07T09:26:53Z</time>
      </trkpt>
      <trkpt lat="37.312372969463468" lon="-8.555503031238914">
        <ele>409.66000000000003</ele>
        <time>2025-05-07T09:26:55Z</time>
      </trkpt>
      <trkpt lat="37.312339022755623" lon="-8.555507976561785">
        <ele>409.18000000000001</ele>
        <time>2025-05-07T09:26:56Z</time>
      </trkpt>
      <trkpt lat="37.312230980023742" lon="-8.555624987930059">
        <ele>405.81</ele>
        <time>2025-05-07T09:27:01Z</time>
      </trkpt>
      <trkpt lat="37.312192004173994" lon="-8.555644014850259">
        <ele>405.81</ele>
        <time>2025-05-07T09:27:02Z</time>
      </trkpt>
      <trkpt lat="37.312140036374331" lon="-8.555597998201847">
        <ele>405.32999999999998</ele>
        <time>2025-05-07T09:27:03Z</time>
      </trkpt>
      <trkpt lat="37.312095025554299" lon="-8.555552987381816">
        <ele>404.85000000000002</ele>
        <time>2025-05-07T09:27:04Z</time>
      </trkpt>
      <trkpt lat="37.312099970877171" lon="-8.555501019582152">
        <ele>404.85000000000002</ele>
        <time>2025-05-07T09:27:05Z</time>
      </trkpt>
      <trkpt lat="37.312130983918905" lon="-8.555438993498683">
        <ele>404.37</ele>
        <time>2025-05-07T09:27:06Z</time>
      </trkpt>
      <trkpt lat="37.312155961990356" lon="-8.555346038192511">
        <ele>404.37</ele>
        <time>2025-05-07T09:27:07Z</time>
      </trkpt>
      <trkpt lat="37.312173983082175" lon="-8.555246964097023">
        <ele>404.37</ele>
        <time>2025-05-07T09:27:08Z</time>
      </trkpt>
      <trkpt lat="37.31244295835495" lon="-8.55405698530376">
        <ele>409.66000000000003</ele>
        <time>2025-05-07T09:27:17Z</time>
      </trkpt>
      <trkpt lat="37.312586959451437" lon="-8.553065992891789">
        <ele>414.94999999999999</ele>
        <time>2025-05-07T09:27:24Z</time>
      </trkpt>
      <trkpt lat="37.312578996643424" lon="-8.55291897431016">
        <ele>415.91000000000003</ele>
        <time>2025-05-07T09:27:25Z</time>
      </trkpt>
      <trkpt lat="37.312477994710207" lon="-8.552507003769279">
        <ele>418.31</ele>
        <time>2025-05-07T09:27:28Z</time>
      </trkpt>
      <trkpt lat="37.312427032738924" lon="-8.552378006279469">
        <ele>418.79000000000002</ele>
        <time>2025-05-07T09:27:29Z</time>
      </trkpt>
      <trkpt lat="37.312052026391029" lon="-8.551464965566993">
        <ele>423.12</ele>
        <time>2025-05-07T09:27:36Z</time>
      </trkpt>
      <trkpt lat="37.311995029449463" lon="-8.551311995834112">
        <ele>423.60000000000002</ele>
        <time>2025-05-07T09:27:37Z</time>
      </trkpt>
      <trkpt lat="37.311983965337276" lon="-8.55117998085916">
        <ele>424.07999999999998</ele>
        <time>2025-05-07T09:27:38Z</time>
      </trkpt>
      <trkpt lat="37.311982959508896" lon="-8.551029022783041">
        <ele>424.56</ele>
        <time>2025-05-07T09:27:39Z</time>
      </trkpt>
      <trkpt lat="37.312025958672166" lon="-8.55089901946485">
        <ele>424.56</ele>
        <time>2025-05-07T09:27:40Z</time>
      </trkpt>
      <trkpt lat="37.312078010290861" lon="-8.550771027803421">
        <ele>424.56</ele>
        <time>2025-05-07T09:27:41Z</time>
      </trkpt>
      <trkpt lat="37.312154034152627" lon="-8.550664996728301">
        <ele>424.56</ele>
        <time>2025-05-07T09:27:42Z</time>
      </trkpt>
      <trkpt lat="37.312243971973658" lon="-8.550581010058522">
        <ele>424.56</ele>
        <time>2025-05-07T09:27:43Z</time>
      </trkpt>
      <trkpt lat="37.312338016927242" lon="-8.550509009510279">
        <ele>425.04000000000002</ele>
        <time>2025-05-07T09:27:44Z</time>
      </trkpt>
      <trkpt lat="37.312445975840092" lon="-8.550463998690248">
        <ele>425.04000000000002</ele>
        <time>2025-05-07T09:27:45Z</time>
      </trkpt>
      <trkpt lat="37.312574973329902" lon="-8.550410019233823">
        <ele>425.51999999999998</ele>
        <time>2025-05-07T09:27:46Z</time>
      </trkpt>
      <trkpt lat="37.312673963606358" lon="-8.550395015627146">
        <ele>425.51999999999998</ele>
        <time>2025-05-07T09:27:47Z</time>
      </trkpt>
      <trkpt lat="37.312789969146252" lon="-8.550375988706946">
        <ele>426</ele>
        <time>2025-05-07T09:27:48Z</time>
      </trkpt>
      <trkpt lat="37.312902035191655" lon="-8.550357967615128">
        <ele>426.48000000000002</ele>
        <time>2025-05-07T09:27:49Z</time>
      </trkpt>
      <trkpt lat="37.31312901712954" lon="-8.550311028957367">
        <ele>426.95999999999998</ele>
        <time>2025-05-07T09:27:51Z</time>
      </trkpt>
      <trkpt lat="37.313326997682452" lon="-8.550158981233835">
        <ele>427.44</ele>
        <time>2025-05-07T09:27:53Z</time>
      </trkpt>
      <trkpt lat="37.313410984352231" lon="-8.550077006220818">
        <ele>427.92000000000002</ele>
        <time>2025-05-07T09:27:54Z</time>
      </trkpt>
      <trkpt lat="37.313480973243713" lon="-8.549967035651207">
        <ele>428.39999999999998</ele>
        <time>2025-05-07T09:27:55Z</time>
      </trkpt>
      <trkpt lat="37.313547022640705" lon="-8.549855975434184">
        <ele>428.88999999999999</ele>
        <time>2025-05-07T09:27:56Z</time>
      </trkpt>
      <trkpt lat="37.313597984611988" lon="-8.549723960459232">
        <ele>429.37</ele>
        <time>2025-05-07T09:27:57Z</time>
      </trkpt>
      <trkpt lat="37.313648024573922" lon="-8.549590017646551">
        <ele>429.85000000000002</ele>
        <time>2025-05-07T09:27:58Z</time>
      </trkpt>
      <trkpt lat="37.313698986545205" lon="-8.549456996843219">
        <ele>429.85000000000002</ele>
        <time>2025-05-07T09:27:59Z</time>
      </trkpt>
      <trkpt lat="37.313720025122166" lon="-8.549310984089971">
        <ele>430.32999999999998</ele>
        <time>2025-05-07T09:28:00Z</time>
      </trkpt>
      <trkpt lat="37.31372999958694" lon="-8.549161031842232">
        <ele>430.32999999999998</ele>
        <time>2025-05-07T09:28:01Z</time>
      </trkpt>
      <trkpt lat="37.313799988478422" lon="-8.547769971191883">
        <ele>432.73000000000002</ele>
        <time>2025-05-07T09:28:08Z</time>
      </trkpt>
      <trkpt lat="37.313866959884763" lon="-8.545827968046069">
        <ele>432.25</ele>
        <time>2025-05-07T09:28:16Z</time>
      </trkpt>
      <trkpt lat="37.313878023996949" lon="-8.545633004978299">
        <ele>432.25</ele>
        <time>2025-05-07T09:28:17Z</time>
      </trkpt>
      <trkpt lat="37.313914988189936" lon="-8.545466037467122">
        <ele>432.25</ele>
        <time>2025-05-07T09:28:18Z</time>
      </trkpt>
      <trkpt lat="37.314000986516476" lon="-8.545342991128564">
        <ele>432.25</ele>
        <time>2025-05-07T09:28:19Z</time>
      </trkpt>
      <trkpt lat="37.314111040905118" lon="-8.545245006680489">
        <ele>431.76999999999998</ele>
        <time>2025-05-07T09:28:20Z</time>
      </trkpt>
      <trkpt lat="37.31422696262598" lon="-8.545201001688838">
        <ele>431.76999999999998</ele>
        <time>2025-05-07T09:28:21Z</time>
      </trkpt>
      <trkpt lat="37.31435596011579" lon="-8.545175017789006">
        <ele>431.29000000000002</ele>
        <time>2025-05-07T09:28:22Z</time>
      </trkpt>
      <trkpt lat="37.314489986747503" lon="-8.545223968103528">
        <ele>431.29000000000002</ele>
        <time>2025-05-07T09:28:23Z</time>
      </trkpt>
      <trkpt lat="37.31463398784399" lon="-8.545276019722223">
        <ele>431.29000000000002</ele>
        <time>2025-05-07T09:28:24Z</time>
      </trkpt>
      <trkpt lat="37.314785029739141" lon="-8.545332010835409">
        <ele>431.29000000000002</ele>
        <time>2025-05-07T09:28:25Z</time>
      </trkpt>
      <trkpt lat="37.315080994740129" lon="-8.545439969748259">
        <ele>430.81</ele>
        <time>2025-05-07T09:28:27Z</time>
      </trkpt>
      <trkpt lat="37.31523597612977" lon="-8.545496966689825">
        <ele>430.81</ele>
        <time>2025-05-07T09:28:28Z</time>
      </trkpt>
      <trkpt lat="37.31538500636816" lon="-8.545475006103516">
        <ele>430.81</ele>
        <time>2025-05-07T09:28:29Z</time>
      </trkpt>
      <trkpt lat="37.315550968050957" lon="-8.545443993061781">
        <ele>430.81</ele>
        <time>2025-05-07T09:28:30Z</time>
      </trkpt>
      <trkpt lat="37.315702009946108" lon="-8.545342991128564">
        <ele>430.81</ele>
        <time>2025-05-07T09:28:31Z</time>
      </trkpt>
      <trkpt lat="37.31585799716413" lon="-8.545238971710205">
        <ele>430.81</ele>
        <time>2025-05-07T09:28:32Z</time>
      </trkpt>
      <trkpt lat="37.316012978553772" lon="-8.545099999755621">
        <ele>430.81</ele>
        <time>2025-05-07T09:28:33Z</time>
      </trkpt>
      <trkpt lat="37.316311961039901" lon="-8.544814009219408">
        <ele>430.32999999999998</ele>
        <time>2025-05-07T09:28:35Z</time>
      </trkpt>
      <trkpt lat="37.316574985161424" lon="-8.544469010084868">
        <ele>429.37</ele>
        <time>2025-05-07T09:28:37Z</time>
      </trkpt>
      <trkpt lat="37.316917972639203" lon="-8.543891999870539">
        <ele>427.92000000000002</ele>
        <time>2025-05-07T09:28:40Z</time>
      </trkpt>
      <trkpt lat="37.317026015371084" lon="-8.543727966025472">
        <ele>427.44</ele>
        <time>2025-05-07T09:28:41Z</time>
      </trkpt>
      <trkpt lat="37.317156018689275" lon="-8.543597040697932">
        <ele>426.95999999999998</ele>
        <time>2025-05-07T09:28:42Z</time>
      </trkpt>
      <trkpt lat="37.317303959280252" lon="-8.543517999351025">
        <ele>426.48000000000002</ele>
        <time>2025-05-07T09:28:43Z</time>
      </trkpt>
      <trkpt lat="37.317460030317307" lon="-8.543447004631162">
        <ele>426</ele>
        <time>2025-05-07T09:28:44Z</time>
      </trkpt>
      <trkpt lat="37.317622974514961" lon="-8.543395036831498">
        <ele>425.51999999999998</ele>
        <time>2025-05-07T09:28:45Z</time>
      </trkpt>
      <trkpt lat="37.317788014188409" lon="-8.543342985212803">
        <ele>425.04000000000002</ele>
        <time>2025-05-07T09:28:46Z</time>
      </trkpt>
      <trkpt lat="37.317930003628135" lon="-8.543240977451205">
        <ele>424.56</ele>
        <time>2025-05-07T09:28:47Z</time>
      </trkpt>
      <trkpt lat="37.318067969754338" lon="-8.543114997446537">
        <ele>424.07999999999998</ele>
        <time>2025-05-07T09:28:48Z</time>
      </trkpt>
      <trkpt lat="37.318153968080878" lon="-8.542941994965076">
        <ele>423.60000000000002</ele>
        <time>2025-05-07T09:28:49Z</time>
      </trkpt>
      <trkpt lat="37.318225968629122" lon="-8.542740996927023">
        <ele>423.12</ele>
        <time>2025-05-07T09:28:50Z</time>
      </trkpt>
      <trkpt lat="37.318283971399069" lon="-8.542517032474279">
        <ele>422.63999999999999</ele>
        <time>2025-05-07T09:28:51Z</time>
      </trkpt>
      <trkpt lat="37.318342979997396" lon="-8.542286027222872">
        <ele>421.68000000000001</ele>
        <time>2025-05-07T09:28:52Z</time>
      </trkpt>
      <trkpt lat="37.318454040214419" lon="-8.541559986770153">
        <ele>419.75</ele>
        <time>2025-05-07T09:28:55Z</time>
      </trkpt>
      <trkpt lat="37.318476000800729" lon="-8.541311966255307">
        <ele>419.26999999999998</ele>
        <time>2025-05-07T09:28:56Z</time>
      </trkpt>
      <trkpt lat="37.318498967215419" lon="-8.540149983018637">
        <ele>416.87</ele>
        <time>2025-05-07T09:29:01Z</time>
      </trkpt>
      <trkpt lat="37.318567028269172" lon="-8.539977986365557">
        <ele>416.38999999999999</ele>
        <time>2025-05-07T09:29:02Z</time>
      </trkpt>
      <trkpt lat="37.318655960261822" lon="-8.539804983884096">
        <ele>416.38999999999999</ele>
        <time>2025-05-07T09:29:03Z</time>
      </trkpt>
      <trkpt lat="37.318790992721915" lon="-8.539685038849711">
        <ele>416.38999999999999</ele>
        <time>2025-05-07T09:29:04Z</time>
      </trkpt>
      <trkpt lat="37.318909009918571" lon="-8.539535002782941">
        <ele>416.38999999999999</ele>
        <time>2025-05-07T09:29:05Z</time>
      </trkpt>
      <trkpt lat="37.31914303265512" lon="-8.53921003639698">
        <ele>416.38999999999999</ele>
        <time>2025-05-07T09:29:07Z</time>
      </trkpt>
      <trkpt lat="37.319237999618053" lon="-8.539038961753249">
        <ele>416.38999999999999</ele>
        <time>2025-05-07T09:29:08Z</time>
      </trkpt>
      <trkpt lat="37.319317040964961" lon="-8.538838969543576">
        <ele>416.38999999999999</ele>
        <time>2025-05-07T09:29:09Z</time>
      </trkpt>
      <trkpt lat="37.319394992664456" lon="-8.538638977333903">
        <ele>416.87</ele>
        <time>2025-05-07T09:29:10Z</time>
      </trkpt>
      <trkpt lat="37.319428017362952" lon="-8.538424987345934">
        <ele>417.35000000000002</ele>
        <time>2025-05-07T09:29:11Z</time>
      </trkpt>
      <trkpt lat="37.319458024576306" lon="-8.538214014843106">
        <ele>417.82999999999998</ele>
        <time>2025-05-07T09:29:12Z</time>
      </trkpt>
      <trkpt lat="37.319483002647758" lon="-8.538015028461814">
        <ele>418.79000000000002</ele>
        <time>2025-05-07T09:29:13Z</time>
      </trkpt>
      <trkpt lat="37.319459030404687" lon="-8.537802966311574">
        <ele>419.26999999999998</ele>
        <time>2025-05-07T09:29:14Z</time>
      </trkpt>
      <trkpt lat="37.319432962685823" lon="-8.53757799603045">
        <ele>420.23000000000002</ele>
        <time>2025-05-07T09:29:15Z</time>
      </trkpt>
      <trkpt lat="37.319407984614372" lon="-8.537354031577706">
        <ele>420.70999999999998</ele>
        <time>2025-05-07T09:29:16Z</time>
      </trkpt>
      <trkpt lat="37.31935903429985" lon="-8.536924039945006">
        <ele>422.63999999999999</ele>
        <time>2025-05-07T09:29:18Z</time>
      </trkpt>
      <trkpt lat="37.319398010149598" lon="-8.536702003329992">
        <ele>423.60000000000002</ele>
        <time>2025-05-07T09:29:19Z</time>
      </trkpt>
      <trkpt lat="37.319474034011364" lon="-8.536496981978416">
        <ele>424.56</ele>
        <time>2025-05-07T09:29:20Z</time>
      </trkpt>
      <trkpt lat="37.319976026192307" lon="-8.535510012879968">
        <ele>427.92000000000002</ele>
        <time>2025-05-07T09:29:25Z</time>
      </trkpt>
      <trkpt lat="37.320118015632033" lon="-8.535347990691662">
        <ele>428.88999999999999</ele>
        <time>2025-05-07T09:29:26Z</time>
      </trkpt>
      <trkpt lat="37.320282971486449" lon="-8.535218993201852">
        <ele>429.37</ele>
        <time>2025-05-07T09:29:27Z</time>
      </trkpt>
      <trkpt lat="37.32110196724534" lon="-8.534619016572833">
        <ele>432.73000000000002</ele>
        <time>2025-05-07T09:29:32Z</time>
      </trkpt>
      <trkpt lat="37.32159499078989" lon="-8.534323973581195">
        <ele>434.17000000000002</ele>
        <time>2025-05-07T09:29:35Z</time>
      </trkpt>
      <trkpt lat="37.321785008534789" lon="-8.534238981083036">
        <ele>434.64999999999998</ele>
        <time>2025-05-07T09:29:36Z</time>
      </trkpt>
      <trkpt lat="37.323216972872615" lon="-8.533577984198928">
        <ele>435.61000000000001</ele>
        <time>2025-05-07T09:29:44Z</time>
      </trkpt>
      <trkpt lat="37.323751989752054" lon="-8.533244971185923">
        <ele>434.64999999999998</ele>
        <time>2025-05-07T09:29:47Z</time>
      </trkpt>
      <trkpt lat="37.323925998061895" lon="-8.533103987574577">
        <ele>434.17000000000002</ele>
        <time>2025-05-07T09:29:48Z</time>
      </trkpt>
      <trkpt lat="37.324088020250201" lon="-8.532942971214652">
        <ele>433.20999999999998</ele>
        <time>2025-05-07T09:29:49Z</time>
      </trkpt>
      <trkpt lat="37.324241995811462" lon="-8.532773992046714">
        <ele>432.25</ele>
        <time>2025-05-07T09:29:50Z</time>
      </trkpt>
      <trkpt lat="37.324397983029485" lon="-8.532600989565253">
        <ele>431.29000000000002</ele>
        <time>2025-05-07T09:29:51Z</time>
      </trkpt>
      <trkpt lat="37.324513988569379" lon="-8.532394962385297">
        <ele>430.32999999999998</ele>
        <time>2025-05-07T09:29:52Z</time>
      </trkpt>
      <trkpt lat="37.324634017422795" lon="-8.532181978225708">
        <ele>428.88999999999999</ele>
        <time>2025-05-07T09:29:53Z</time>
      </trkpt>
      <trkpt lat="37.324742982164025" lon="-8.531960025429726">
        <ele>427.92000000000002</ele>
        <time>2025-05-07T09:29:54Z</time>
      </trkpt>
      <trkpt lat="37.325041964650154" lon="-8.531085960566998">
        <ele>424.07999999999998</ele>
        <time>2025-05-07T09:29:58Z</time>
      </trkpt>
      <trkpt lat="37.325084041804075" lon="-8.530865013599396">
        <ele>423.60000000000002</ele>
        <time>2025-05-07T09:29:59Z</time>
      </trkpt>
      <trkpt lat="37.325055962428451" lon="-8.530631996691227">
        <ele>423.12</ele>
        <time>2025-05-07T09:30:00Z</time>
      </trkpt>
      <trkpt lat="37.325002988800406" lon="-8.530206028372049">
        <ele>422.16000000000003</ele>
        <time>2025-05-07T09:30:02Z</time>
      </trkpt>
      <trkpt lat="37.325026039034128" lon="-8.530009975656867">
        <ele>421.68000000000001</ele>
        <time>2025-05-07T09:30:03Z</time>
      </trkpt>
      <trkpt lat="37.325081024318933" lon="-8.529852982610464">
        <ele>421.19</ele>
        <time>2025-05-07T09:30:04Z</time>
      </trkpt>
      <trkpt lat="37.325170040130615" lon="-8.529704036191106">
        <ele>421.19</ele>
        <time>2025-05-07T09:30:05Z</time>
      </trkpt>
      <trkpt lat="37.325282022356987" lon="-8.529588030651212">
        <ele>421.19</ele>
        <time>2025-05-07T09:30:06Z</time>
      </trkpt>
      <trkpt lat="37.325412025675178" lon="-8.529452998191118">
        <ele>421.19</ele>
        <time>2025-05-07T09:30:07Z</time>
      </trkpt>
      <trkpt lat="37.325552003458142" lon="-8.52930698543787">
        <ele>421.19</ele>
        <time>2025-05-07T09:30:08Z</time>
      </trkpt>
      <trkpt lat="37.325701033696532" lon="-8.529153009876609">
        <ele>420.70999999999998</ele>
        <time>2025-05-07T09:30:09Z</time>
      </trkpt>
      <trkpt lat="37.325819972902536" lon="-8.528954023495317">
        <ele>420.70999999999998</ele>
        <time>2025-05-07T09:30:10Z</time>
      </trkpt>
      <trkpt lat="37.325930027291179" lon="-8.528752019628882">
        <ele>420.70999999999998</ele>
        <time>2025-05-07T09:30:11Z</time>
      </trkpt>
      <trkpt lat="37.326016025617719" lon="-8.52855202741921">
        <ele>420.23000000000002</ele>
        <time>2025-05-07T09:30:12Z</time>
      </trkpt>
      <trkpt lat="37.326047038659453" lon="-8.528344994410873">
        <ele>420.23000000000002</ele>
        <time>2025-05-07T09:30:13Z</time>
      </trkpt>
      <trkpt lat="37.326072016730905" lon="-8.528143996372819">
        <ele>420.23000000000002</ele>
        <time>2025-05-07T09:30:14Z</time>
      </trkpt>
      <trkpt lat="37.326072016730905" lon="-8.527944004163146">
        <ele>420.23000000000002</ele>
        <time>2025-05-07T09:30:15Z</time>
      </trkpt>
      <trkpt lat="37.325994987040758" lon="-8.527730014175177">
        <ele>420.23000000000002</ele>
        <time>2025-05-07T09:30:16Z</time>
      </trkpt>
      <trkpt lat="37.325922986492515" lon="-8.527529016137123">
        <ele>419.75</ele>
        <time>2025-05-07T09:30:17Z</time>
      </trkpt>
      <trkpt lat="37.325857020914555" lon="-8.527343021705747">
        <ele>419.75</ele>
        <time>2025-05-07T09:30:18Z</time>
      </trkpt>
      <trkpt lat="37.325837993994355" lon="-8.527132971212268">
        <ele>419.75</ele>
        <time>2025-05-07T09:30:19Z</time>
      </trkpt>
      <trkpt lat="37.325887028127909" lon="-8.526954017579556">
        <ele>419.75</ele>
        <time>2025-05-07T09:30:20Z</time>
      </trkpt>
      <trkpt lat="37.325945030897856" lon="-8.526779003441334">
        <ele>419.26999999999998</ele>
        <time>2025-05-07T09:30:21Z</time>
      </trkpt>
      <trkpt lat="37.326038992032409" lon="-8.526661992073059">
        <ele>418.79000000000002</ele>
        <time>2025-05-07T09:30:22Z</time>
      </trkpt>
      <trkpt lat="37.32617000117898" lon="-8.52655696682632">
        <ele>418.31</ele>
        <time>2025-05-07T09:30:23Z</time>
      </trkpt>
      <trkpt lat="37.326306961476803" lon="-8.526451019570231">
        <ele>417.82999999999998</ele>
        <time>2025-05-07T09:30:24Z</time>
      </trkpt>
      <trkpt lat="37.326465966179967" lon="-8.526351023465395">
        <ele>417.35000000000002</ele>
        <time>2025-05-07T09:30:25Z</time>
      </trkpt>
      <trkpt lat="37.32692101970315" lon="-8.525981968268752">
        <ele>415.91000000000003</ele>
        <time>2025-05-07T09:30:28Z</time>
      </trkpt>
      <trkpt lat="37.327013975009322" lon="-8.525830004364252">
        <ele>414.94999999999999</ele>
        <time>2025-05-07T09:30:29Z</time>
      </trkpt>
      <trkpt lat="37.327077006921172" lon="-8.525659013539553">
        <ele>414.94999999999999</ele>
        <time>2025-05-07T09:30:30Z</time>
      </trkpt>
      <trkpt lat="37.327138027176261" lon="-8.525494979694486">
        <ele>414.94999999999999</ele>
        <time>2025-05-07T09:30:31Z</time>
      </trkpt>
      <trkpt lat="37.327206004410982" lon="-8.525344021618366">
        <ele>414.47000000000003</ele>
        <time>2025-05-07T09:30:32Z</time>
      </trkpt>
      <trkpt lat="37.327271969988942" lon="-8.525200020521879">
        <ele>414.47000000000003</ele>
        <time>2025-05-07T09:30:33Z</time>
      </trkpt>
      <trkpt lat="37.327338019385934" lon="-8.525058031082153">
        <ele>414.94999999999999</ele>
        <time>2025-05-07T09:30:34Z</time>
      </trkpt>
      <trkpt lat="37.327729035168886" lon="-8.524226965382695">
        <ele>415.91000000000003</ele>
        <time>2025-05-07T09:30:40Z</time>
      </trkpt>
      <trkpt lat="37.327763987705112" lon="-8.524059997871518">
        <ele>415.91000000000003</ele>
        <time>2025-05-07T09:30:41Z</time>
      </trkpt>
      <trkpt lat="37.327959034591913" lon="-8.52290497161448">
        <ele>415.43000000000001</ele>
        <time>2025-05-07T09:30:48Z</time>
      </trkpt>
      <trkpt lat="37.327988035976887" lon="-8.522756025195122">
        <ele>414.94999999999999</ele>
        <time>2025-05-07T09:30:49Z</time>
      </trkpt>
      <trkpt lat="37.328042015433311" lon="-8.522615041583777">
        <ele>414.47000000000003</ele>
        <time>2025-05-07T09:30:50Z</time>
      </trkpt>
      <trkpt lat="37.328101024031639" lon="-8.52247497998178">
        <ele>414.47000000000003</ele>
        <time>2025-05-07T09:30:51Z</time>
      </trkpt>
      <trkpt lat="37.328185010701418" lon="-8.522350005805492">
        <ele>413.98000000000002</ele>
        <time>2025-05-07T09:30:52Z</time>
      </trkpt>
      <trkpt lat="37.328267991542816" lon="-8.522225031629205">
        <ele>413.98000000000002</ele>
        <time>2025-05-07T09:30:53Z</time>
      </trkpt>
      <trkpt lat="37.329024039208889" lon="-8.520998004823923">
        <ele>410.13999999999999</ele>
        <time>2025-05-07T09:31:02Z</time>
      </trkpt>
      <trkpt lat="37.32979902997613" lon="-8.519494961947203">
        <ele>402.44999999999999</ele>
        <time>2025-05-07T09:31:11Z</time>
      </trkpt>
      <trkpt lat="37.33059698715806" lon="-8.5183069948107">
        <ele>398.12</ele>
        <time>2025-05-07T09:31:16Z</time>
      </trkpt>
      <trkpt lat="37.331702979281545" lon="-8.516862960532308">
        <ele>392.83999999999997</ele>
        <time>2025-05-07T09:31:23Z</time>
      </trkpt>
      <trkpt lat="37.332220980897546" lon="-8.516206992790103">
        <ele>389.47000000000003</ele>
        <time>2025-05-07T09:31:27Z</time>
      </trkpt>
      <trkpt lat="37.332318965345621" lon="-8.516043964773417">
        <ele>388.99000000000001</ele>
        <time>2025-05-07T09:31:28Z</time>
      </trkpt>
      <trkpt lat="37.33237998560071" lon="-8.515854030847549">
        <ele>388.02999999999997</ele>
        <time>2025-05-07T09:31:29Z</time>
      </trkpt>
      <trkpt lat="37.332421978935599" lon="-8.51566300727427">
        <ele>387.55000000000001</ele>
        <time>2025-05-07T09:31:30Z</time>
      </trkpt>
      <trkpt lat="37.332413010299206" lon="-8.515465026721358">
        <ele>386.58999999999997</ele>
        <time>2025-05-07T09:31:31Z</time>
      </trkpt>
      <trkpt lat="37.332404041662812" lon="-8.515256987884641">
        <ele>385.63</ele>
        <time>2025-05-07T09:31:32Z</time>
      </trkpt>
      <trkpt lat="37.332394989207387" lon="-8.515047021210194">
        <ele>385.14999999999998</ele>
        <time>2025-05-07T09:31:33Z</time>
      </trkpt>
      <trkpt lat="37.332386020570993" lon="-8.514838982373476">
        <ele>384.18000000000001</ele>
        <time>2025-05-07T09:31:34Z</time>
      </trkpt>
      <trkpt lat="37.332391971722245" lon="-8.514647036790848">
        <ele>383.69999999999999</ele>
        <time>2025-05-07T09:31:35Z</time>
      </trkpt>
      <trkpt lat="37.332432037219405" lon="-8.514475040137768">
        <ele>382.74000000000001</ele>
        <time>2025-05-07T09:31:36Z</time>
      </trkpt>
      <trkpt lat="37.332519041374326" lon="-8.514331039041281">
        <ele>382.25999999999999</ele>
        <time>2025-05-07T09:31:37Z</time>
      </trkpt>
      <trkpt lat="37.332629011943936" lon="-8.514202041551471">
        <ele>381.30000000000001</ele>
        <time>2025-05-07T09:31:38Z</time>
      </trkpt>
      <trkpt lat="37.332764966413379" lon="-8.5140710324049">
        <ele>380.81999999999999</ele>
        <time>2025-05-07T09:31:39Z</time>
      </trkpt>
      <trkpt lat="37.333051040768623" lon="-8.513797027990222">
        <ele>378.42000000000002</ele>
        <time>2025-05-07T09:31:41Z</time>
      </trkpt>
      <trkpt lat="37.333155982196331" lon="-8.513604998588562">
        <ele>376.97000000000003</ele>
        <time>2025-05-07T09:31:42Z</time>
      </trkpt>
      <trkpt lat="37.333243992179632" lon="-8.513402994722128">
        <ele>375.05000000000001</ele>
        <time>2025-05-07T09:31:43Z</time>
      </trkpt>
      <trkpt lat="37.333311969414353" lon="-8.513203002512455">
        <ele>373.61000000000001</ele>
        <time>2025-05-07T09:31:44Z</time>
      </trkpt>
      <trkpt lat="37.333340970799327" lon="-8.512987000867724">
        <ele>372.64999999999998</ele>
        <time>2025-05-07T09:31:45Z</time>
      </trkpt>
      <trkpt lat="37.333363015204668" lon="-8.51276395842433">
        <ele>371.20999999999998</ele>
        <time>2025-05-07T09:31:46Z</time>
      </trkpt>
      <trkpt lat="37.333329990506172" lon="-8.512535970658064">
        <ele>369.75999999999999</ele>
        <time>2025-05-07T09:31:47Z</time>
      </trkpt>
      <trkpt lat="37.333295037969947" lon="-8.512301025912166">
        <ele>368.80000000000001</ele>
        <time>2025-05-07T09:31:48Z</time>
      </trkpt>
      <trkpt lat="37.33326100744307" lon="-8.512063985690475">
        <ele>367.83999999999997</ele>
        <time>2025-05-07T09:31:49Z</time>
      </trkpt>
      <trkpt lat="37.333225971087813" lon="-8.511827029287815">
        <ele>366.88</ele>
        <time>2025-05-07T09:31:50Z</time>
      </trkpt>
      <trkpt lat="37.3332370352" lon="-8.511576997116208">
        <ele>366.39999999999998</ele>
        <time>2025-05-07T09:31:51Z</time>
      </trkpt>
      <trkpt lat="37.33326000161469" lon="-8.511356972157955">
        <ele>365.44</ele>
        <time>2025-05-07T09:31:52Z</time>
      </trkpt>
      <trkpt lat="37.333339964970946" lon="-8.511096965521574">
        <ele>364.48000000000002</ele>
        <time>2025-05-07T09:31:53Z</time>
      </trkpt>
      <trkpt lat="37.33341297134757" lon="-8.510861014947295">
        <ele>363.51999999999998</ele>
        <time>2025-05-07T09:31:54Z</time>
      </trkpt>
      <trkpt lat="37.33351799659431" lon="-8.510644007474184">
        <ele>362.55000000000001</ele>
        <time>2025-05-07T09:31:55Z</time>
      </trkpt>
      <trkpt lat="37.333634002134204" lon="-8.510434962809086">
        <ele>361.58999999999997</ele>
        <time>2025-05-07T09:31:56Z</time>
      </trkpt>
      <trkpt lat="37.333946982398629" lon="-8.509805984795094">
        <ele>358.23000000000002</ele>
        <time>2025-05-07T09:31:59Z</time>
      </trkpt>
      <trkpt lat="37.334020994603634" lon="-8.509586965665221">
        <ele>357.26999999999998</ele>
        <time>2025-05-07T09:32:00Z</time>
      </trkpt>
      <trkpt lat="37.334063993766904" lon="-8.509350009262562">
        <ele>356.31</ele>
        <time>2025-05-07T09:32:01Z</time>
      </trkpt>
      <trkpt lat="37.334073968231678" lon="-8.508871989324689">
        <ele>354.38</ele>
        <time>2025-05-07T09:32:03Z</time>
      </trkpt>
      <trkpt lat="37.33405401930213" lon="-8.50842297077179">
        <ele>352.94</ele>
        <time>2025-05-07T09:32:05Z</time>
      </trkpt>
      <trkpt lat="37.334110010415316" lon="-8.508204035460949">
        <ele>351.98000000000002</ele>
        <time>2025-05-07T09:32:06Z</time>
      </trkpt>
      <trkpt lat="37.334167007356882" lon="-8.507983004674316">
        <ele>351.5</ele>
        <time>2025-05-07T09:32:07Z</time>
      </trkpt>
      <trkpt lat="37.334297010675073" lon="-8.507529040798545">
        <ele>349.10000000000002</ele>
        <time>2025-05-07T09:32:09Z</time>
      </trkpt>
      <trkpt lat="37.334359036758542" lon="-8.50728495977819">
        <ele>348.13</ele>
        <time>2025-05-07T09:32:10Z</time>
      </trkpt>
      <trkpt lat="37.33442198485136" lon="-8.507031993940473">
        <ele>346.69</ele>
        <time>2025-05-07T09:32:11Z</time>
      </trkpt>
      <trkpt lat="37.334486022591591" lon="-8.506775004789233">
        <ele>345.73000000000002</ele>
        <time>2025-05-07T09:32:12Z</time>
      </trkpt>
      <trkpt lat="37.334551988169551" lon="-8.506512986496091">
        <ele>344.29000000000002</ele>
        <time>2025-05-07T09:32:13Z</time>
      </trkpt>
      <trkpt lat="37.334804031997919" lon="-8.505519982427359">
        <ele>339.95999999999998</ele>
        <time>2025-05-07T09:32:17Z</time>
      </trkpt>
      <trkpt lat="37.334904028102756" lon="-8.505324013531208">
        <ele>339</ele>
        <time>2025-05-07T09:32:18Z</time>
      </trkpt>
      <trkpt lat="37.335034031420946" lon="-8.505140030756593">
        <ele>338.04000000000002</ele>
        <time>2025-05-07T09:32:19Z</time>
      </trkpt>
      <trkpt lat="37.336295004934072" lon="-8.503568004816771">
        <ele>333.70999999999998</ele>
        <time>2025-05-07T09:32:28Z</time>
      </trkpt>
      <trkpt lat="37.336660958826542" lon="-8.503069030120969">
        <ele>332.75</ele>
        <time>2025-05-07T09:32:31Z</time>
      </trkpt>
      <trkpt lat="37.336744023486972" lon="-8.502855040132999">
        <ele>332.26999999999998</ele>
        <time>2025-05-07T09:32:32Z</time>
      </trkpt>
      <trkpt lat="37.336819041520357" lon="-8.502631997689605">
        <ele>331.79000000000002</ele>
        <time>2025-05-07T09:32:33Z</time>
      </trkpt>
      <trkpt lat="37.336874026805162" lon="-8.502399986609817">
        <ele>330.82999999999998</ele>
        <time>2025-05-07T09:32:34Z</time>
      </trkpt>
      <trkpt lat="37.336895987391472" lon="-8.502154983580113">
        <ele>330.35000000000002</ele>
        <time>2025-05-07T09:32:35Z</time>
      </trkpt>
      <trkpt lat="37.336867991834879" lon="-8.501906963065267">
        <ele>329.87</ele>
        <time>2025-05-07T09:32:36Z</time>
      </trkpt>
      <trkpt lat="37.336838990449905" lon="-8.501651985570788">
        <ele>328.91000000000003</ele>
        <time>2025-05-07T09:32:37Z</time>
      </trkpt>
      <trkpt lat="37.336778976023197" lon="-8.500882023945451">
        <ele>326.99000000000001</ele>
        <time>2025-05-07T09:32:40Z</time>
      </trkpt>
      <trkpt lat="37.336774030700326" lon="-8.500637020915747">
        <ele>326.5</ele>
        <time>2025-05-07T09:32:41Z</time>
      </trkpt>
      <trkpt lat="37.336765984073281" lon="-8.500412972643971">
        <ele>326.01999999999998</ele>
        <time>2025-05-07T09:32:42Z</time>
      </trkpt>
      <trkpt lat="37.336758021265268" lon="-8.50021499209106">
        <ele>325.54000000000002</ele>
        <time>2025-05-07T09:32:43Z</time>
      </trkpt>
      <trkpt lat="37.336685014888644" lon="-8.500080965459347">
        <ele>324.57999999999998</ele>
        <time>2025-05-07T09:32:44Z</time>
      </trkpt>
      <trkpt lat="37.336603039875627" lon="-8.499949034303427">
        <ele>323.62</ele>
        <time>2025-05-07T09:32:45Z</time>
      </trkpt>
      <trkpt lat="37.336488962173462" lon="-8.499865969642997">
        <ele>323.13999999999999</ele>
        <time>2025-05-07T09:32:46Z</time>
      </trkpt>
      <trkpt lat="37.336347978562117" lon="-8.49980603903532">
        <ele>322.18000000000001</ele>
        <time>2025-05-07T09:32:47Z</time>
      </trkpt>
      <trkpt lat="37.336192997172475" lon="-8.499779971316457">
        <ele>321.69999999999999</ele>
        <time>2025-05-07T09:32:48Z</time>
      </trkpt>
      <trkpt lat="37.336007002741098" lon="-8.499748958274722">
        <ele>320.74000000000001</ele>
        <time>2025-05-07T09:32:49Z</time>
      </trkpt>
      <trkpt lat="37.335882028564811" lon="-8.499646028503776">
        <ele>320.25999999999999</ele>
        <time>2025-05-07T09:32:50Z</time>
      </trkpt>
      <trkpt lat="37.335737021639943" lon="-8.499525999650359">
        <ele>319.77999999999997</ele>
        <time>2025-05-07T09:32:51Z</time>
      </trkpt>
      <trkpt lat="37.335452036932111" lon="-8.499289965257049">
        <ele>318.81</ele>
        <time>2025-05-07T09:32:53Z</time>
      </trkpt>
      <trkpt lat="37.335297977551818" lon="-8.499210001900792">
        <ele>318.32999999999998</ele>
        <time>2025-05-07T09:32:54Z</time>
      </trkpt>
      <trkpt lat="37.335125980898738" lon="-8.499171026051045">
        <ele>317.85000000000002</ele>
        <time>2025-05-07T09:32:55Z</time>
      </trkpt>
      <trkpt lat="37.334941998124123" lon="-8.49918301217258">
        <ele>317.37</ele>
        <time>2025-05-07T09:32:56Z</time>
      </trkpt>
      <trkpt lat="37.334748040884733" lon="-8.499196004122496">
        <ele>316.41000000000003</ele>
        <time>2025-05-07T09:32:57Z</time>
      </trkpt>
      <trkpt lat="37.334040021523833" lon="-8.499197009950876">
        <ele>313.05000000000001</ele>
        <time>2025-05-07T09:33:01Z</time>
      </trkpt>
      <trkpt lat="37.33390599489212" lon="-8.499130960553885">
        <ele>312.08999999999997</ele>
        <time>2025-05-07T09:33:02Z</time>
      </trkpt>
      <trkpt lat="37.333793006837368" lon="-8.499029958620668">
        <ele>311.12</ele>
        <time>2025-05-07T09:33:03Z</time>
      </trkpt>
      <trkpt lat="37.333688987419009" lon="-8.498912025243044">
        <ele>310.16000000000003</ele>
        <time>2025-05-07T09:33:04Z</time>
      </trkpt>
      <trkpt lat="37.333631990477443" lon="-8.498756038025022">
        <ele>309.19999999999999</ele>
        <time>2025-05-07T09:33:05Z</time>
      </trkpt>
      <trkpt lat="37.333610029891133" lon="-8.498593010008335">
        <ele>308.72000000000003</ele>
        <time>2025-05-07T09:33:06Z</time>
      </trkpt>
      <trkpt lat="37.333623021841049" lon="-8.498421013355255">
        <ele>307.75999999999999</ele>
        <time>2025-05-07T09:33:07Z</time>
      </trkpt>
      <trkpt lat="37.333682030439377" lon="-8.498291010037065">
        <ele>306.80000000000001</ele>
        <time>2025-05-07T09:33:08Z</time>
      </trkpt>
      <trkpt lat="37.333757970482111" lon="-8.4981510322541">
        <ele>306.31999999999999</ele>
        <time>2025-05-07T09:33:09Z</time>
      </trkpt>
      <trkpt lat="37.33383902348578" lon="-8.49800200201571">
        <ele>305.83999999999997</ele>
        <time>2025-05-07T09:33:10Z</time>
      </trkpt>
      <trkpt lat="37.333918986842036" lon="-8.497835034504533">
        <ele>304.88</ele>
        <time>2025-05-07T09:33:11Z</time>
      </trkpt>
      <trkpt lat="37.333972966298461" lon="-8.497661026194692">
        <ele>303.43000000000001</ele>
        <time>2025-05-07T09:33:12Z</time>
      </trkpt>
      <trkpt lat="37.33401102013886" lon="-8.49746597930789">
        <ele>302.47000000000003</ele>
        <time>2025-05-07T09:33:13Z</time>
      </trkpt>
      <trkpt lat="37.33401102013886" lon="-8.497280990704894">
        <ele>301.50999999999999</ele>
        <time>2025-05-07T09:33:14Z</time>
      </trkpt>
      <trkpt lat="37.333972966298461" lon="-8.497089967131615">
        <ele>300.55000000000001</ele>
        <time>2025-05-07T09:33:15Z</time>
      </trkpt>
      <trkpt lat="37.333918986842036" lon="-8.496911013498902">
        <ele>299.58999999999997</ele>
        <time>2025-05-07T09:33:16Z</time>
      </trkpt>
      <trkpt lat="37.333822008222342" lon="-8.496745973825455">
        <ele>298.63</ele>
        <time>2025-05-07T09:33:17Z</time>
      </trkpt>
      <trkpt lat="37.333697034046054" lon="-8.496612031012774">
        <ele>297.18000000000001</ele>
        <time>2025-05-07T09:33:18Z</time>
      </trkpt>
      <trkpt lat="37.333553032949567" lon="-8.496481021866202">
        <ele>296.22000000000003</ele>
        <time>2025-05-07T09:33:19Z</time>
      </trkpt>
      <trkpt lat="37.33341196551919" lon="-8.496354036033154">
        <ele>294.77999999999997</ele>
        <time>2025-05-07T09:33:20Z</time>
      </trkpt>
      <trkpt lat="37.333257989957929" lon="-8.496280023828149">
        <ele>293.81999999999999</ele>
        <time>2025-05-07T09:33:21Z</time>
      </trkpt>
      <trkpt lat="37.333073001354933" lon="-8.496250016614795">
        <ele>292.86000000000001</ele>
        <time>2025-05-07T09:33:22Z</time>
      </trkpt>
      <trkpt lat="37.332881977781653" lon="-8.49621799774468">
        <ele>292.38</ele>
        <time>2025-05-07T09:33:23Z</time>
      </trkpt>
      <trkpt lat="37.332360958680511" lon="-8.496134011074901">
        <ele>289.97000000000003</ele>
        <time>2025-05-07T09:33:26Z</time>
      </trkpt>
      <trkpt lat="37.332233972847462" lon="-8.496063016355038">
        <ele>289.00999999999999</ele>
        <time>2025-05-07T09:33:27Z</time>
      </trkpt>
      <trkpt lat="37.332136994227767" lon="-8.495938964188099">
        <ele>288.52999999999997</ele>
        <time>2025-05-07T09:33:28Z</time>
      </trkpt>
      <trkpt lat="37.332052001729608" lon="-8.495777025818825">
        <ele>288.05000000000001</ele>
        <time>2025-05-07T09:33:29Z</time>
      </trkpt>
      <trkpt lat="37.331958040595055" lon="-8.495600000023842">
        <ele>287.56999999999999</ele>
        <time>2025-05-07T09:33:30Z</time>
      </trkpt>
      <trkpt lat="37.331192018464208" lon="-8.494039960205555">
        <ele>285.17000000000002</ele>
        <time>2025-05-07T09:33:38Z</time>
      </trkpt>
      <trkpt lat="37.330989008769393" lon="-8.493569986894727">
        <ele>284.20999999999998</ele>
        <time>2025-05-07T09:33:41Z</time>
      </trkpt>
      <trkpt lat="37.330942992120981" lon="-8.493411988019943">
        <ele>283.73000000000002</ele>
        <time>2025-05-07T09:33:42Z</time>
      </trkpt>
      <trkpt lat="37.330942992120981" lon="-8.493268992751837">
        <ele>283.73000000000002</ele>
        <time>2025-05-07T09:33:43Z</time>
      </trkpt>
      <trkpt lat="37.331009963527322" lon="-8.493092972785235">
        <ele>283.25</ele>
        <time>2025-05-07T09:33:44Z</time>
      </trkpt>
      <trkpt lat="37.331079030409455" lon="-8.492938997223973">
        <ele>282.76999999999998</ele>
        <time>2025-05-07T09:33:45Z</time>
      </trkpt>
      <trkpt lat="37.331179026514292" lon="-8.492792984470725">
        <ele>282.27999999999997</ele>
        <time>2025-05-07T09:33:46Z</time>
      </trkpt>
      <trkpt lat="37.331297965720296" lon="-8.492662981152535">
        <ele>281.80000000000001</ele>
        <time>2025-05-07T09:33:47Z</time>
      </trkpt>
      <trkpt lat="37.331430986523628" lon="-8.492548987269402">
        <ele>281.31999999999999</ele>
        <time>2025-05-07T09:33:48Z</time>
      </trkpt>
      <trkpt lat="37.331571970134974" lon="-8.492472041398287">
        <ele>280.83999999999997</ele>
        <time>2025-05-07T09:33:49Z</time>
      </trkpt>
      <trkpt lat="37.331710020080209" lon="-8.492396017536521">
        <ele>280.36000000000001</ele>
        <time>2025-05-07T09:33:50Z</time>
      </trkpt>
      <trkpt lat="37.332021994516253" lon="-8.492294009774923">
        <ele>278.92000000000002</ele>
        <time>2025-05-07T09:33:52Z</time>
      </trkpt>
      <trkpt lat="37.332189967855811" lon="-8.492264002561569">
        <ele>278.44</ele>
        <time>2025-05-07T09:33:53Z</time>
      </trkpt>
      <trkpt lat="37.332350984215736" lon="-8.492294009774923">
        <ele>277.48000000000002</ele>
        <time>2025-05-07T09:33:54Z</time>
      </trkpt>
      <trkpt lat="37.33250898309052" lon="-8.492367016151547">
        <ele>276.51999999999998</ele>
        <time>2025-05-07T09:33:55Z</time>
      </trkpt>
      <trkpt lat="37.332652984187007" lon="-8.492472041398287">
        <ele>276.04000000000002</ele>
        <time>2025-05-07T09:33:56Z</time>
      </trkpt>
      <trkpt lat="37.332779970020056" lon="-8.492612019181252">
        <ele>274.58999999999997</ele>
        <time>2025-05-07T09:33:57Z</time>
      </trkpt>
      <trkpt lat="37.332910979166627" lon="-8.492757026106119">
        <ele>273.63</ele>
        <time>2025-05-07T09:33:58Z</time>
      </trkpt>
      <trkpt lat="37.333295037969947" lon="-8.493148041889072">
        <ele>271.23000000000002</ele>
        <time>2025-05-07T09:34:01Z</time>
      </trkpt>
      <trkpt lat="37.333438033238053" lon="-8.493224987760186">
        <ele>269.31</ele>
        <time>2025-05-07T09:34:02Z</time>
      </trkpt>
      <trkpt lat="37.33358396217227" lon="-8.493290031328797">
        <ele>267.86000000000001</ele>
        <time>2025-05-07T09:34:03Z</time>
      </trkpt>
      <trkpt lat="37.333739027380943" lon="-8.493290031328797">
        <ele>266.42000000000002</ele>
        <time>2025-05-07T09:34:04Z</time>
      </trkpt>
      <trkpt lat="37.333895014598966" lon="-8.49325499497354">
        <ele>264.98000000000002</ele>
        <time>2025-05-07T09:34:05Z</time>
      </trkpt>
      <trkpt lat="37.33405502513051" lon="-8.493205960839987">
        <ele>263.54000000000002</ele>
        <time>2025-05-07T09:34:06Z</time>
      </trkpt>
      <trkpt lat="37.334217969328165" lon="-8.493134966120124">
        <ele>262.10000000000002</ele>
        <time>2025-05-07T09:34:07Z</time>
      </trkpt>
      <trkpt lat="37.334354007616639" lon="-8.493075035512447">
        <ele>260.64999999999998</ele>
        <time>2025-05-07T09:34:08Z</time>
      </trkpt>
      <trkpt lat="37.334533967077732" lon="-8.49310495890677">
        <ele>259.20999999999998</ele>
        <time>2025-05-07T09:34:09Z</time>
      </trkpt>
      <trkpt lat="37.334676962345839" lon="-8.493162961676717">
        <ele>257.76999999999998</ele>
        <time>2025-05-07T09:34:10Z</time>
      </trkpt>
      <trkpt lat="37.334822975099087" lon="-8.493263041600585">
        <ele>256.32999999999998</ele>
        <time>2025-05-07T09:34:11Z</time>
      </trkpt>
      <trkpt lat="37.334978962317109" lon="-8.493368988856673">
        <ele>254.41</ele>
        <time>2025-05-07T09:34:12Z</time>
      </trkpt>
      <trkpt lat="37.335131010040641" lon="-8.493492035195231">
        <ele>252.96000000000001</ele>
        <time>2025-05-07T09:34:13Z</time>
      </trkpt>
      <trkpt lat="37.335285991430283" lon="-8.493595970794559">
        <ele>251.52000000000001</ele>
        <time>2025-05-07T09:34:14Z</time>
      </trkpt>
      <trkpt lat="37.335449019446969" lon="-8.493694039061666">
        <ele>250.08000000000001</ele>
        <time>2025-05-07T09:34:15Z</time>
      </trkpt>
      <trkpt lat="37.335630990564823" lon="-8.493762016296387">
        <ele>248.63999999999999</ele>
        <time>2025-05-07T09:34:16Z</time>
      </trkpt>
      <trkpt lat="37.337216008454561" lon="-8.494180021807551">
        <ele>236.62</ele>
        <time>2025-05-07T09:34:24Z</time>
      </trkpt>
      <trkpt lat="37.337424969300628" lon="-8.494186978787184">
        <ele>234.69999999999999</ele>
        <time>2025-05-07T09:34:25Z</time>
      </trkpt>
      <trkpt lat="37.338893981650472" lon="-8.493991009891033">
        <ele>222.68000000000001</ele>
        <time>2025-05-07T09:34:32Z</time>
      </trkpt>
      <trkpt lat="37.339063966646791" lon="-8.493913980200887">
        <ele>221.24000000000001</ele>
        <time>2025-05-07T09:34:33Z</time>
      </trkpt>
      <trkpt lat="37.339204028248787" lon="-8.493805015459657">
        <ele>219.80000000000001</ele>
        <time>2025-05-07T09:34:34Z</time>
      </trkpt>
      <trkpt lat="37.339316010475159" lon="-8.493663026019931">
        <ele>218.36000000000001</ele>
        <time>2025-05-07T09:34:35Z</time>
      </trkpt>
      <trkpt lat="37.339438972994685" lon="-8.493507038801909">
        <ele>217.40000000000001</ele>
        <time>2025-05-07T09:34:36Z</time>
      </trkpt>
      <trkpt lat="37.339560007676482" lon="-8.493335964158177">
        <ele>216.43000000000001</ele>
        <time>2025-05-07T09:34:37Z</time>
      </trkpt>
      <trkpt lat="37.33966302126646" lon="-8.493153993040323">
        <ele>214.99000000000001</ele>
        <time>2025-05-07T09:34:38Z</time>
      </trkpt>
      <trkpt lat="37.339735021814704" lon="-8.492948971688747">
        <ele>213.55000000000001</ele>
        <time>2025-05-07T09:34:39Z</time>
      </trkpt>
      <trkpt lat="37.339767962694168" lon="-8.492727018892765">
        <ele>212.11000000000001</ele>
        <time>2025-05-07T09:34:40Z</time>
      </trkpt>
      <trkpt lat="37.339786989614367" lon="-8.492485033348203">
        <ele>211.15000000000001</ele>
        <time>2025-05-07T09:34:41Z</time>
      </trkpt>
      <trkpt lat="37.339795036241412" lon="-8.492227960377932">
        <ele>209.69999999999999</ele>
        <time>2025-05-07T09:34:42Z</time>
      </trkpt>
      <trkpt lat="37.339839963242412" lon="-8.491489011794329">
        <ele>205.86000000000001</ele>
        <time>2025-05-07T09:34:45Z</time>
      </trkpt>
      <trkpt lat="37.339885979890823" lon="-8.491286002099514">
        <ele>204.41999999999999</ele>
        <time>2025-05-07T09:34:46Z</time>
      </trkpt>
      <trkpt lat="37.339957980439067" lon="-8.491110987961292">
        <ele>203.46000000000001</ele>
        <time>2025-05-07T09:34:47Z</time>
      </trkpt>
      <trkpt lat="37.340060994029045" lon="-8.49097503349185">
        <ele>202.00999999999999</ele>
        <time>2025-05-07T09:34:48Z</time>
      </trkpt>
      <trkpt lat="37.340184962376952" lon="-8.490887023508549">
        <ele>201.05000000000001</ele>
        <time>2025-05-07T09:34:49Z</time>
      </trkpt>
      <trkpt lat="37.340313959866762" lon="-8.490797001868486">
        <ele>200.09</ele>
        <time>2025-05-07T09:34:50Z</time>
      </trkpt>
      <trkpt lat="37.340439017862082" lon="-8.490708991885185">
        <ele>199.13</ele>
        <time>2025-05-07T09:34:51Z</time>
      </trkpt>
      <trkpt lat="37.340549994260073" lon="-8.490605978295207">
        <ele>198.16999999999999</ele>
        <time>2025-05-07T09:34:52Z</time>
      </trkpt>
      <trkpt lat="37.340649990364909" lon="-8.490476980805397">
        <ele>197.21000000000001</ele>
        <time>2025-05-07T09:34:53Z</time>
      </trkpt>
      <trkpt lat="37.34071696177125" lon="-8.490302972495556">
        <ele>196.25</ele>
        <time>2025-05-07T09:34:54Z</time>
      </trkpt>
      <trkpt lat="37.340790973976254" lon="-8.490111026912928">
        <ele>195.77000000000001</ele>
        <time>2025-05-07T09:34:55Z</time>
      </trkpt>
      <trkpt lat="37.340871021151543" lon="-8.48990298807621">
        <ele>194.80000000000001</ele>
        <time>2025-05-07T09:34:56Z</time>
      </trkpt>
      <trkpt lat="37.341246027499437" lon="-8.489033030346036">
        <ele>190.47999999999999</ele>
        <time>2025-05-07T09:35:00Z</time>
      </trkpt>
      <trkpt lat="37.341373013332486" lon="-8.488864973187447">
        <ele>189.52000000000001</ele>
        <time>2025-05-07T09:35:01Z</time>
      </trkpt>
      <trkpt lat="37.341516008600593" lon="-8.488726001232863">
        <ele>188.08000000000001</ele>
        <time>2025-05-07T09:35:02Z</time>
      </trkpt>
      <trkpt lat="37.341686999425292" lon="-8.488622987642884">
        <ele>186.63</ele>
        <time>2025-05-07T09:35:03Z</time>
      </trkpt>
      <trkpt lat="37.341865031048656" lon="-8.488515028730035">
        <ele>185.19</ele>
        <time>2025-05-07T09:35:04Z</time>
      </trkpt>
      <trkpt lat="37.342211036011577" lon="-8.488284023478627">
        <ele>182.31</ele>
        <time>2025-05-07T09:35:06Z</time>
      </trkpt>
      <trkpt lat="37.3423479963094" lon="-8.488135999068618">
        <ele>181.34999999999999</ele>
        <time>2025-05-07T09:35:07Z</time>
      </trkpt>
      <trkpt lat="37.3424550332129" lon="-8.487997027114034">
        <ele>179.90000000000001</ele>
        <time>2025-05-07T09:35:08Z</time>
      </trkpt>
      <trkpt lat="37.342515969648957" lon="-8.487800974398851">
        <ele>178.94</ele>
        <time>2025-05-07T09:35:09Z</time>
      </trkpt>
      <trkpt lat="37.342566009610891" lon="-8.487597964704037">
        <ele>177.5</ele>
        <time>2025-05-07T09:35:10Z</time>
      </trkpt>
      <trkpt lat="37.34260599128902" lon="-8.487362014129758">
        <ele>176.53999999999999</ele>
        <time>2025-05-07T09:35:11Z</time>
      </trkpt>
      <trkpt lat="37.342645972967148" lon="-8.487121034413576">
        <ele>175.09999999999999</ele>
        <time>2025-05-07T09:35:12Z</time>
      </trkpt>
      <trkpt lat="37.342686960473657" lon="-8.486877037212253">
        <ele>174.13999999999999</ele>
        <time>2025-05-07T09:35:13Z</time>
      </trkpt>
      <trkpt lat="37.342742029577494" lon="-8.486624993383884">
        <ele>172.69</ele>
        <time>2025-05-07T09:35:14Z</time>
      </trkpt>
      <trkpt lat="37.34282098710537" lon="-8.486374039202929">
        <ele>171.25</ele>
        <time>2025-05-07T09:35:15Z</time>
      </trkpt>
      <trkpt lat="37.343235975131392" lon="-8.485164027661085">
        <ele>163.08000000000001</ele>
        <time>2025-05-07T09:35:20Z</time>
      </trkpt>
      <trkpt lat="37.343280985951424" lon="-8.484936039894819">
        <ele>161.63999999999999</ele>
        <time>2025-05-07T09:35:21Z</time>
      </trkpt>
      <trkpt lat="37.343280985951424" lon="-8.484708974137902">
        <ele>160.19999999999999</ele>
        <time>2025-05-07T09:35:22Z</time>
      </trkpt>
      <trkpt lat="37.343235975131392" lon="-8.484508981928229">
        <ele>158.27000000000001</ele>
        <time>2025-05-07T09:35:23Z</time>
      </trkpt>
      <trkpt lat="37.34316598623991" lon="-8.484332961961627">
        <ele>156.34999999999999</ele>
        <time>2025-05-07T09:35:24Z</time>
      </trkpt>
      <trkpt lat="37.343073030933738" lon="-8.484156019985676">
        <ele>154.91</ele>
        <time>2025-05-07T09:35:25Z</time>
      </trkpt>
      <trkpt lat="37.342974962666631" lon="-8.483986034989357">
        <ele>152.99000000000001</ele>
        <time>2025-05-07T09:35:26Z</time>
      </trkpt>
      <trkpt lat="37.342859040945768" lon="-8.483837004750967">
        <ele>151.53999999999999</ele>
        <time>2025-05-07T09:35:27Z</time>
      </trkpt>
      <trkpt lat="37.342754015699029" lon="-8.483701972290874">
        <ele>149.62</ele>
        <time>2025-05-07T09:35:28Z</time>
      </trkpt>
      <trkpt lat="37.342685032635927" lon="-8.483542967587709">
        <ele>148.18000000000001</ele>
        <time>2025-05-07T09:35:29Z</time>
      </trkpt>
      <trkpt lat="37.342659970745444" lon="-8.483408018946648">
        <ele>147.22</ele>
        <time>2025-05-07T09:35:30Z</time>
      </trkpt>
      <trkpt lat="37.342699030414224" lon="-8.483261000365019">
        <ele>145.78</ele>
        <time>2025-05-07T09:35:31Z</time>
      </trkpt>
      <trkpt lat="37.342742029577494" lon="-8.483116999268532">
        <ele>144.81999999999999</ele>
        <time>2025-05-07T09:35:32Z</time>
      </trkpt>
      <trkpt lat="37.342789974063635" lon="-8.482953971251845">
        <ele>143.84999999999999</ele>
        <time>2025-05-07T09:35:33Z</time>
      </trkpt>
      <trkpt lat="37.343077976256609" lon="-8.482199013233185">
        <ele>141.93000000000001</ele>
        <time>2025-05-07T09:35:37Z</time>
      </trkpt>
      <trkpt lat="37.343180989846587" lon="-8.481997009366751">
        <ele>141.93000000000001</ele>
        <time>2025-05-07T09:35:38Z</time>
      </trkpt>
      <trkpt lat="37.343374025076628" lon="-8.481617979705334">
        <ele>142.41</ele>
        <time>2025-05-07T09:35:40Z</time>
      </trkpt>
      <trkpt lat="37.343463962897658" lon="-8.481442965567112">
        <ele>142.88999999999999</ele>
        <time>2025-05-07T09:35:41Z</time>
      </trkpt>
      <trkpt lat="37.343528000637889" lon="-8.481256971135736">
        <ele>143.37</ele>
        <time>2025-05-07T09:35:42Z</time>
      </trkpt>
      <trkpt lat="37.343555996194482" lon="-8.481063013896346">
        <ele>143.84999999999999</ele>
        <time>2025-05-07T09:35:43Z</time>
      </trkpt>
      <trkpt lat="37.343533029779792" lon="-8.480866961181164">
        <ele>144.81999999999999</ele>
        <time>2025-05-07T09:35:44Z</time>
      </trkpt>
      <trkpt lat="37.343504028394818" lon="-8.480678033083677">
        <ele>145.78</ele>
        <time>2025-05-07T09:35:45Z</time>
      </trkpt>
      <trkpt lat="37.343476032838225" lon="-8.480494972318411">
        <ele>146.74000000000001</ele>
        <time>2025-05-07T09:35:46Z</time>
      </trkpt>
      <trkpt lat="37.343496987596154" lon="-8.480331022292376">
        <ele>147.69999999999999</ele>
        <time>2025-05-07T09:35:47Z</time>
      </trkpt>
      <trkpt lat="37.34353001229465" lon="-8.480186015367508">
        <ele>148.66</ele>
        <time>2025-05-07T09:35:48Z</time>
      </trkpt>
      <trkpt lat="37.343619028106332" lon="-8.480078978464007">
        <ele>150.09999999999999</ele>
        <time>2025-05-07T09:35:49Z</time>
      </trkpt>
      <trkpt lat="37.343731010332704" lon="-8.479943023994565">
        <ele>151.06</ele>
        <time>2025-05-07T09:35:50Z</time>
      </trkpt>
      <trkpt lat="37.343850033357739" lon="-8.479906981810927">
        <ele>152.03</ele>
        <time>2025-05-07T09:35:51Z</time>
      </trkpt>
      <trkpt lat="37.344004008919001" lon="-8.479859959334135">
        <ele>152.99000000000001</ele>
        <time>2025-05-07T09:35:52Z</time>
      </trkpt>
      <trkpt lat="37.344704987481236" lon="-8.479613028466702">
        <ele>156.83000000000001</ele>
        <time>2025-05-07T09:35:56Z</time>
      </trkpt>
      <trkpt lat="37.344872038811445" lon="-8.479497022926807">
        <ele>158.27000000000001</ele>
        <time>2025-05-07T09:35:57Z</time>
      </trkpt>
      <trkpt lat="37.345036994665861" lon="-8.479367019608617">
        <ele>159.24000000000001</ele>
        <time>2025-05-07T09:35:58Z</time>
      </trkpt>
      <trkpt lat="37.345178984105587" lon="-8.479198040440679">
        <ele>160.68000000000001</ele>
        <time>2025-05-07T09:35:59Z</time>
      </trkpt>
      <trkpt lat="37.345323991030455" lon="-8.479023026302457">
        <ele>162.12</ele>
        <time>2025-05-07T09:36:00Z</time>
      </trkpt>
      <trkpt lat="37.345468997955322" lon="-8.478849017992616">
        <ele>163.56</ele>
        <time>2025-05-07T09:36:01Z</time>
      </trkpt>
      <trkpt lat="37.346209036186337" lon="-8.477788958698511">
        <ele>170.28999999999999</ele>
        <time>2025-05-07T09:36:07Z</time>
      </trkpt>
      <trkpt lat="37.34630199149251" lon="-8.477626014500856">
        <ele>171.25</ele>
        <time>2025-05-07T09:36:08Z</time>
      </trkpt>
      <trkpt lat="37.346541965380311" lon="-8.477089991793037">
        <ele>173.16999999999999</ele>
        <time>2025-05-07T09:36:11Z</time>
      </trkpt>
      <trkpt lat="37.346652019768953" lon="-8.47694699652493">
        <ele>173.66</ele>
        <time>2025-05-07T09:36:12Z</time>
      </trkpt>
      <trkpt lat="37.346764001995325" lon="-8.476805007085204">
        <ele>173.66</ele>
        <time>2025-05-07T09:36:13Z</time>
      </trkpt>
      <trkpt lat="37.34690397977829" lon="-8.476695958524942">
        <ele>174.13999999999999</ele>
        <time>2025-05-07T09:36:14Z</time>
      </trkpt>
      <trkpt lat="37.347064996138215" lon="-8.476617000997067">
        <ele>174.62</ele>
        <time>2025-05-07T09:36:15Z</time>
      </trkpt>
      <trkpt lat="37.347615016624331" lon="-8.47641097381711">
        <ele>177.02000000000001</ele>
        <time>2025-05-07T09:36:19Z</time>
      </trkpt>
      <trkpt lat="37.34771903604269" lon="-8.476348025724292">
        <ele>177.5</ele>
        <time>2025-05-07T09:36:20Z</time>
      </trkpt>
      <trkpt lat="37.347830012440681" lon="-8.476274013519287">
        <ele>177.5</ele>
        <time>2025-05-07T09:36:21Z</time>
      </trkpt>
      <trkpt lat="37.347875023260713" lon="-8.47619497217238">
        <ele>177.97999999999999</ele>
        <time>2025-05-07T09:36:22Z</time>
      </trkpt>
      <trkpt lat="37.347921039909124" lon="-8.476094976067543">
        <ele>177.97999999999999</ele>
        <time>2025-05-07T09:36:23Z</time>
      </trkpt>
      <trkpt lat="37.347941994667053" lon="-8.475992968305945">
        <ele>178.46000000000001</ele>
        <time>2025-05-07T09:36:24Z</time>
      </trkpt>
      <trkpt lat="37.347959009930491" lon="-8.475908981636167">
        <ele>178.94</ele>
        <time>2025-05-07T09:36:25Z</time>
      </trkpt>
      <trkpt lat="37.347931014373899" lon="-8.475804962217808">
        <ele>179.41999999999999</ele>
        <time>2025-05-07T09:36:26Z</time>
      </trkpt>
      <trkpt lat="37.347906958311796" lon="-8.475717036053538">
        <ele>180.38</ele>
        <time>2025-05-07T09:36:27Z</time>
      </trkpt>
      <trkpt lat="37.347873011603951" lon="-8.475587032735348">
        <ele>180.87</ele>
        <time>2025-05-07T09:36:28Z</time>
      </trkpt>
      <trkpt lat="37.34780402854085" lon="-8.47552802413702">
        <ele>181.83000000000001</ele>
        <time>2025-05-07T09:36:29Z</time>
      </trkpt>
      <trkpt lat="37.347713001072407" lon="-8.475448982790113">
        <ele>182.78999999999999</ele>
        <time>2025-05-07T09:36:30Z</time>
      </trkpt>
      <trkpt lat="37.347615016624331" lon="-8.475363990291953">
        <ele>183.27000000000001</ele>
        <time>2025-05-07T09:36:31Z</time>
      </trkpt>
      <trkpt lat="37.347495993599296" lon="-8.475288972258568">
        <ele>184.22999999999999</ele>
        <time>2025-05-07T09:36:32Z</time>
      </trkpt>
      <trkpt lat="37.347244033589959" lon="-8.475197022780776">
        <ele>187.11000000000001</ele>
        <time>2025-05-07T09:36:34Z</time>
      </trkpt>
      <trkpt lat="37.347115036100149" lon="-8.475150000303984">
        <ele>188.56</ele>
        <time>2025-05-07T09:36:35Z</time>
      </trkpt>
      <trkpt lat="37.346971035003662" lon="-8.47514295950532">
        <ele>190</ele>
        <time>2025-05-07T09:36:36Z</time>
      </trkpt>
      <trkpt lat="37.346830973401666" lon="-8.475152011960745">
        <ele>191.44</ele>
        <time>2025-05-07T09:36:37Z</time>
      </trkpt>
      <trkpt lat="37.346685966476798" lon="-8.475165003910661">
        <ele>193.36000000000001</ele>
        <time>2025-05-07T09:36:38Z</time>
      </trkpt>
      <trkpt lat="37.345983982086182" lon="-8.475266005843878">
        <ele>202.49000000000001</ele>
        <time>2025-05-07T09:36:43Z</time>
      </trkpt>
      <trkpt lat="37.345865964889526" lon="-8.475229041650891">
        <ele>203.94</ele>
        <time>2025-05-07T09:36:44Z</time>
      </trkpt>
      <trkpt lat="37.345749959349632" lon="-8.475194005295634">
        <ele>205.86000000000001</ele>
        <time>2025-05-07T09:36:46Z</time>
      </trkpt>
      <trkpt lat="37.345490958541632" lon="-8.475029971450567">
        <ele>213.55000000000001</ele>
        <time>2025-05-07T09:36:54Z</time>
      </trkpt>
      <trkpt lat="37.345490958541632" lon="-8.475029971450567">
        <ele>215.47</ele>
        <time>2025-05-07T09:37:05Z</time>
      </trkpt>
      <trkpt lat="37.345534041523933" lon="-8.4751629922539">
        <ele>215.94999999999999</ele>
        <time>2025-05-07T09:38:24Z</time>
      </trkpt>
      <trkpt lat="37.345490958541632" lon="-8.475029971450567">
        <ele>215.94999999999999</ele>
        <time>2025-05-07T09:38:39Z</time>
      </trkpt>
      <trkpt lat="37.345490958541632" lon="-8.475029971450567">
        <ele>215.94999999999999</ele>
        <time>2025-05-07T09:38:40Z</time>
      </trkpt>
      <trkpt lat="37.345470003783703" lon="-8.475002981722355">
        <ele>216.43000000000001</ele>
        <time>2025-05-07T09:38:41Z</time>
      </trkpt>
      <trkpt lat="37.34540001489222" lon="-8.474916983395815">
        <ele>216.91</ele>
        <time>2025-05-07T09:38:42Z</time>
      </trkpt>
      <trkpt lat="37.345318039879203" lon="-8.474816987290978">
        <ele>217.40000000000001</ele>
        <time>2025-05-07T09:38:43Z</time>
      </trkpt>
      <trkpt lat="37.344480017200112" lon="-8.47372499294579">
        <ele>226.05000000000001</ele>
        <time>2025-05-07T09:38:52Z</time>
      </trkpt>
      <trkpt lat="37.343974001705647" lon="-8.472983026877046">
        <ele>234.22</ele>
        <time>2025-05-07T09:38:57Z</time>
      </trkpt>
      <trkpt lat="37.343897977843881" lon="-8.472816981375217">
        <ele>235.66</ele>
        <time>2025-05-07T09:38:58Z</time>
      </trkpt>
      <trkpt lat="37.343617016449571" lon="-8.472114996984601">
        <ele>243.34999999999999</ele>
        <time>2025-05-07T09:39:02Z</time>
      </trkpt>
      <trkpt lat="37.343525988981128" lon="-8.471935037523508">
        <ele>245.27000000000001</ele>
        <time>2025-05-07T09:39:03Z</time>
      </trkpt>
      <trkpt lat="37.342822998762131" lon="-8.470892999321222">
        <ele>256.81</ele>
        <time>2025-05-07T09:39:09Z</time>
      </trkpt>
      <trkpt lat="37.342683020979166" lon="-8.470765007659793">
        <ele>258.73000000000002</ele>
        <time>2025-05-07T09:39:10Z</time>
      </trkpt>
      <trkpt lat="37.342531979084015" lon="-8.470656964927912">
        <ele>260.64999999999998</ele>
        <time>2025-05-07T09:39:11Z</time>
      </trkpt>
      <trkpt lat="37.342384038493037" lon="-8.470551017671824">
        <ele>263.06</ele>
        <time>2025-05-07T09:39:12Z</time>
      </trkpt>
      <trkpt lat="37.342228973284364" lon="-8.470458984375">
        <ele>264.98000000000002</ele>
        <time>2025-05-07T09:39:13Z</time>
      </trkpt>
      <trkpt lat="37.341465968638659" lon="-8.47009495832026">
        <ele>274.11000000000001</ele>
        <time>2025-05-07T09:39:18Z</time>
      </trkpt>
      <trkpt lat="37.3413170222193" lon="-8.470055982470512">
        <ele>276.04000000000002</ele>
        <time>2025-05-07T09:39:19Z</time>
      </trkpt>
      <trkpt lat="37.341160029172897" lon="-8.470043996348977">
        <ele>277.95999999999998</ele>
        <time>2025-05-07T09:39:20Z</time>
      </trkpt>
      <trkpt lat="37.340999012812972" lon="-8.470080038532615">
        <ele>279.88</ele>
        <time>2025-05-07T09:39:21Z</time>
      </trkpt>
      <trkpt lat="37.340837996453047" lon="-8.470117002725601">
        <ele>281.31999999999999</ele>
        <time>2025-05-07T09:39:22Z</time>
      </trkpt>
      <trkpt lat="37.340676980093122" lon="-8.470167964696884">
        <ele>282.76999999999998</ele>
        <time>2025-05-07T09:39:23Z</time>
      </trkpt>
      <trkpt lat="37.340518981218338" lon="-8.470237031579018">
        <ele>284.69</ele>
        <time>2025-05-07T09:39:24Z</time>
      </trkpt>
      <trkpt lat="37.340239025652409" lon="-8.470352031290531">
        <ele>288.05000000000001</ele>
        <time>2025-05-07T09:39:26Z</time>
      </trkpt>
      <trkpt lat="37.340083960443735" lon="-8.470352031290531">
        <ele>289.49000000000001</ele>
        <time>2025-05-07T09:39:27Z</time>
      </trkpt>
      <trkpt lat="37.339976001530886" lon="-8.470306014642119">
        <ele>290.94</ele>
        <time>2025-05-07T09:39:28Z</time>
      </trkpt>
      <trkpt lat="37.339880028739572" lon="-8.470203001052141">
        <ele>292.38</ele>
        <time>2025-05-07T09:39:29Z</time>
      </trkpt>
      <trkpt lat="37.339799981564283" lon="-8.470078026875854">
        <ele>293.81999999999999</ele>
        <time>2025-05-07T09:39:30Z</time>
      </trkpt>
      <trkpt lat="37.339767962694168" lon="-8.469933019950986">
        <ele>295.25999999999999</ele>
        <time>2025-05-07T09:39:31Z</time>
      </trkpt>
      <trkpt lat="37.339777015149593" lon="-8.46979396417737">
        <ele>297.18000000000001</ele>
        <time>2025-05-07T09:39:32Z</time>
      </trkpt>
      <trkpt lat="37.339804004877806" lon="-8.469645017758012">
        <ele>298.63</ele>
        <time>2025-05-07T09:39:33Z</time>
      </trkpt>
      <trkpt lat="37.339864019304514" lon="-8.46951300278306">
        <ele>300.06999999999999</ele>
        <time>2025-05-07T09:39:34Z</time>
      </trkpt>
      <trkpt lat="37.339929984882474" lon="-8.469373025000095">
        <ele>301.99000000000001</ele>
        <time>2025-05-07T09:39:35Z</time>
      </trkpt>
      <trkpt lat="37.340005002915859" lon="-8.469229023903608">
        <ele>303.43000000000001</ele>
        <time>2025-05-07T09:39:36Z</time>
      </trkpt>
      <trkpt lat="37.340207006782293" lon="-8.468743041157723">
        <ele>309.19999999999999</ele>
        <time>2025-05-07T09:39:39Z</time>
      </trkpt>
      <trkpt lat="37.340255035087466" lon="-8.468570960685611">
        <ele>310.63999999999999</ele>
        <time>2025-05-07T09:39:40Z</time>
      </trkpt>
      <trkpt lat="37.340266015380621" lon="-8.468384966254234">
        <ele>312.08999999999997</ele>
        <time>2025-05-07T09:39:41Z</time>
      </trkpt>
      <trkpt lat="37.340275989845395" lon="-8.468196960166097">
        <ele>313.52999999999997</ele>
        <time>2025-05-07T09:39:42Z</time>
      </trkpt>
      <trkpt lat="37.340227039530873" lon="-8.468017000705004">
        <ele>314.97000000000003</ele>
        <time>2025-05-07T09:39:43Z</time>
      </trkpt>
      <trkpt lat="37.340169036760926" lon="-8.467820025980473">
        <ele>316.41000000000003</ele>
        <time>2025-05-07T09:39:44Z</time>
      </trkpt>
      <trkpt lat="37.340087983757257" lon="-8.467649035155773">
        <ele>317.85000000000002</ele>
        <time>2025-05-07T09:39:45Z</time>
      </trkpt>
      <trkpt lat="37.339997040107846" lon="-8.467459017410874">
        <ele>319.30000000000001</ele>
        <time>2025-05-07T09:39:46Z</time>
      </trkpt>
      <trkpt lat="37.339508039876819" lon="-8.466342967003584">
        <ele>326.99000000000001</ele>
        <time>2025-05-07T09:39:52Z</time>
      </trkpt>
      <trkpt lat="37.339482977986336" lon="-8.466188991442323">
        <ele>327.94999999999999</ele>
        <time>2025-05-07T09:39:53Z</time>
      </trkpt>
      <trkpt lat="37.339547015726566" lon="-8.466027975082398">
        <ele>328.91000000000003</ele>
        <time>2025-05-07T09:39:54Z</time>
      </trkpt>
      <trkpt lat="37.339606024324894" lon="-8.46588003449142">
        <ele>329.38999999999999</ele>
        <time>2025-05-07T09:39:55Z</time>
      </trkpt>
      <trkpt lat="37.33970501460135" lon="-8.465794958174229">
        <ele>330.35000000000002</ele>
        <time>2025-05-07T09:39:56Z</time>
      </trkpt>
      <trkpt lat="37.339818002656102" lon="-8.465713988989592">
        <ele>330.82999999999998</ele>
        <time>2025-05-07T09:39:57Z</time>
      </trkpt>
      <trkpt lat="37.339962003752589" lon="-8.465678030624986">
        <ele>331.79000000000002</ele>
        <time>2025-05-07T09:39:58Z</time>
      </trkpt>
      <trkpt lat="37.340126037597656" lon="-8.465697979554534">
        <ele>331.79000000000002</ele>
        <time>2025-05-07T09:39:59Z</time>
      </trkpt>
      <trkpt lat="37.340300967916846" lon="-8.465724969282746">
        <ele>331.79000000000002</ele>
        <time>2025-05-07T09:40:00Z</time>
      </trkpt>
      <trkpt lat="37.341866958886385" lon="-8.46596603281796">
        <ele>328.43000000000001</ele>
        <time>2025-05-07T09:40:08Z</time>
      </trkpt>
      <trkpt lat="37.342043984681368" lon="-8.465929990634322">
        <ele>327.47000000000003</ele>
        <time>2025-05-07T09:40:09Z</time>
      </trkpt>
      <trkpt lat="37.34219703823328" lon="-8.465862013399601">
        <ele>326.5</ele>
        <time>2025-05-07T09:40:10Z</time>
      </trkpt>
      <trkpt lat="37.34232502989471" lon="-8.465747013688088">
        <ele>325.54000000000002</ele>
        <time>2025-05-07T09:40:11Z</time>
      </trkpt>
      <trkpt lat="37.342429971322417" lon="-8.465608963742852">
        <ele>324.57999999999998</ele>
        <time>2025-05-07T09:40:12Z</time>
      </trkpt>
      <trkpt lat="37.342507001012564" lon="-8.465438978746533">
        <ele>323.62</ele>
        <time>2025-05-07T09:40:13Z</time>
      </trkpt>
      <trkpt lat="37.342557040974498" lon="-8.465233035385609">
        <ele>323.13999999999999</ele>
        <time>2025-05-07T09:40:14Z</time>
      </trkpt>
      <trkpt lat="37.342609008774161" lon="-8.465018039569259">
        <ele>322.66000000000003</ele>
        <time>2025-05-07T09:40:15Z</time>
      </trkpt>
      <trkpt lat="37.342729959636927" lon="-8.464563991874456">
        <ele>322.18000000000001</ele>
        <time>2025-05-07T09:40:17Z</time>
      </trkpt>
      <trkpt lat="37.342827022075653" lon="-8.464350001886487">
        <ele>321.69999999999999</ele>
        <time>2025-05-07T09:40:18Z</time>
      </trkpt>
      <trkpt lat="37.343655992299318" lon="-8.462952990084887">
        <ele>324.57999999999998</ele>
        <time>2025-05-07T09:40:25Z</time>
      </trkpt>
      <trkpt lat="37.343805022537708" lon="-8.462795997038484">
        <ele>324.57999999999998</ele>
        <time>2025-05-07T09:40:26Z</time>
      </trkpt>
      <trkpt lat="37.343972995877266" lon="-8.462668005377054">
        <ele>324.10000000000002</ele>
        <time>2025-05-07T09:40:27Z</time>
      </trkpt>
      <trkpt lat="37.344153961166739" lon="-8.462578989565373">
        <ele>323.62</ele>
        <time>2025-05-07T09:40:28Z</time>
      </trkpt>
      <trkpt lat="37.344336016103625" lon="-8.462489973753691">
        <ele>323.13999999999999</ele>
        <time>2025-05-07T09:40:29Z</time>
      </trkpt>
      <trkpt lat="37.344521004706621" lon="-8.46239903010428">
        <ele>322.66000000000003</ele>
        <time>2025-05-07T09:40:30Z</time>
      </trkpt>
      <trkpt lat="37.345113018527627" lon="-8.462096024304628">
        <ele>320.25999999999999</ele>
        <time>2025-05-07T09:40:33Z</time>
      </trkpt>
      <trkpt lat="37.345303958281875" lon="-8.461957974359393">
        <ele>319.30000000000001</ele>
        <time>2025-05-07T09:40:34Z</time>
      </trkpt>
      <trkpt lat="37.345500010997057" lon="-8.461798969656229">
        <ele>317.85000000000002</ele>
        <time>2025-05-07T09:40:35Z</time>
      </trkpt>
      <trkpt lat="37.345687011256814" lon="-8.461596965789795">
        <ele>316.41000000000003</ele>
        <time>2025-05-07T09:40:36Z</time>
      </trkpt>
      <trkpt lat="37.345870994031429" lon="-8.461380964145064">
        <ele>314.97000000000003</ele>
        <time>2025-05-07T09:40:37Z</time>
      </trkpt>
      <trkpt lat="37.346484968438745" lon="-8.460569009184837">
        <ele>306.31999999999999</ele>
        <time>2025-05-07T09:40:41Z</time>
      </trkpt>
      <trkpt lat="37.346592005342245" lon="-8.46035803668201">
        <ele>303.91000000000003</ele>
        <time>2025-05-07T09:40:42Z</time>
      </trkpt>
      <trkpt lat="37.346627963706851" lon="-8.460125019773841">
        <ele>301.50999999999999</ele>
        <time>2025-05-07T09:40:43Z</time>
      </trkpt>
      <trkpt lat="37.346627963706851" lon="-8.459903988987207">
        <ele>299.11000000000001</ele>
        <time>2025-05-07T09:40:44Z</time>
      </trkpt>
      <trkpt lat="37.346571972593665" lon="-8.459692010655999">
        <ele>296.22000000000003</ele>
        <time>2025-05-07T09:40:45Z</time>
      </trkpt>
      <trkpt lat="37.346506007015705" lon="-8.459492018446326">
        <ele>293.81999999999999</ele>
        <time>2025-05-07T09:40:46Z</time>
      </trkpt>
      <trkpt lat="37.3464319948107" lon="-8.459274005144835">
        <ele>291.42000000000002</ele>
        <time>2025-05-07T09:40:47Z</time>
      </trkpt>
      <trkpt lat="37.346326969563961" lon="-8.459063032642007">
        <ele>289.00999999999999</ele>
        <time>2025-05-07T09:40:48Z</time>
      </trkpt>
      <trkpt lat="37.345953974872828" lon="-8.458200031891465">
        <ele>279.39999999999998</ele>
        <time>2025-05-07T09:40:52Z</time>
      </trkpt>
      <trkpt lat="37.345898989588022" lon="-8.457999033853412">
        <ele>277.48000000000002</ele>
        <time>2025-05-07T09:40:53Z</time>
      </trkpt>
      <trkpt lat="37.345898989588022" lon="-8.457773979753256">
        <ele>275.56</ele>
        <time>2025-05-07T09:40:54Z</time>
      </trkpt>
      <trkpt lat="37.345898989588022" lon="-8.457563007250428">
        <ele>273.14999999999998</ele>
        <time>2025-05-07T09:40:55Z</time>
      </trkpt>
      <trkpt lat="37.345952969044447" lon="-8.457333007827401">
        <ele>270.75</ele>
        <time>2025-05-07T09:40:56Z</time>
      </trkpt>
      <trkpt lat="37.346014995127916" lon="-8.457079036161304">
        <ele>268.35000000000002</ele>
        <time>2025-05-07T09:40:57Z</time>
      </trkpt>
      <trkpt lat="37.3465839587152" lon="-8.455194029957056">
        <ele>250.56</ele>
        <time>2025-05-07T09:41:04Z</time>
      </trkpt>
      <trkpt lat="37.347058961167932" lon="-8.453942025080323">
        <ele>239.99000000000001</ele>
        <time>2025-05-07T09:41:09Z</time>
      </trkpt>
      <trkpt lat="37.347087040543556" lon="-8.453670032322407">
        <ele>238.06</ele>
        <time>2025-05-07T09:41:10Z</time>
      </trkpt>
      <trkpt lat="37.347115036100149" lon="-8.45339803956449">
        <ele>236.13999999999999</ele>
        <time>2025-05-07T09:41:11Z</time>
      </trkpt>
      <trkpt lat="37.347115958109498" lon="-8.453127974644303">
        <ele>234.22</ele>
        <time>2025-05-07T09:41:12Z</time>
      </trkpt>
      <trkpt lat="37.347109001129866" lon="-8.452851036563516">
        <ele>232.30000000000001</ele>
        <time>2025-05-07T09:41:13Z</time>
      </trkpt>
      <trkpt lat="37.347101038321853" lon="-8.452574014663696">
        <ele>230.84999999999999</ele>
        <time>2025-05-07T09:41:14Z</time>
      </trkpt>
      <trkpt lat="37.347048986703157" lon="-8.451537005603313">
        <ele>223.63999999999999</ele>
        <time>2025-05-07T09:41:18Z</time>
      </trkpt>
      <trkpt lat="37.347092991694808" lon="-8.451306000351906">
        <ele>221.72</ele>
        <time>2025-05-07T09:41:19Z</time>
      </trkpt>
      <trkpt lat="37.347164992243052" lon="-8.451060997322202">
        <ele>219.31999999999999</ele>
        <time>2025-05-07T09:41:20Z</time>
      </trkpt>
      <trkpt lat="37.347945012152195" lon="-8.449184037744999">
        <ele>203.94</ele>
        <time>2025-05-07T09:41:28Z</time>
      </trkpt>
      <trkpt lat="37.348036961629987" lon="-8.448964012786746">
        <ele>202.00999999999999</ele>
        <time>2025-05-07T09:41:29Z</time>
      </trkpt>
      <trkpt lat="37.348159002140164" lon="-8.448776006698608">
        <ele>200.56999999999999</ele>
        <time>2025-05-07T09:41:30Z</time>
      </trkpt>
      <trkpt lat="37.34829998575151" lon="-8.448597975075245">
        <ele>199.13</ele>
        <time>2025-05-07T09:41:31Z</time>
      </trkpt>
      <trkpt lat="37.348453039303422" lon="-8.448427990078926">
        <ele>197.21000000000001</ele>
        <time>2025-05-07T09:41:32Z</time>
      </trkpt>
      <trkpt lat="37.348625035956502" lon="-8.448273008689284">
        <ele>195.77000000000001</ele>
        <time>2025-05-07T09:41:33Z</time>
      </trkpt>
      <trkpt lat="37.348798038437963" lon="-8.448117021471262">
        <ele>193.84</ele>
        <time>2025-05-07T09:41:34Z</time>
      </trkpt>
      <trkpt lat="37.349284021183848" lon="-8.447652999311686">
        <ele>188.08000000000001</ele>
        <time>2025-05-07T09:41:37Z</time>
      </trkpt>
      <trkpt lat="37.34939499758184" lon="-8.447467004880309">
        <ele>185.66999999999999</ele>
        <time>2025-05-07T09:41:38Z</time>
      </trkpt>
      <trkpt lat="37.349483007565141" lon="-8.447272041812539">
        <ele>183.27000000000001</ele>
        <time>2025-05-07T09:41:39Z</time>
      </trkpt>
      <trkpt lat="37.349532963708043" lon="-8.447070959955454">
        <ele>180.87</ele>
        <time>2025-05-07T09:41:40Z</time>
      </trkpt>
      <trkpt lat="37.349543021991849" lon="-8.446858981624246">
        <ele>178.46000000000001</ele>
        <time>2025-05-07T09:41:41Z</time>
      </trkpt>
      <trkpt lat="37.34952399507165" lon="-8.446639040485025">
        <ele>176.06</ele>
        <time>2025-05-07T09:41:42Z</time>
      </trkpt>
      <trkpt lat="37.34950396232307" lon="-8.44641599804163">
        <ele>173.66</ele>
        <time>2025-05-07T09:41:43Z</time>
      </trkpt>
      <trkpt lat="37.349485019221902" lon="-8.446198990568519">
        <ele>171.25</ele>
        <time>2025-05-07T09:41:44Z</time>
      </trkpt>
      <trkpt lat="37.34952500090003" lon="-8.445990029722452">
        <ele>168.84999999999999</ele>
        <time>2025-05-07T09:41:45Z</time>
      </trkpt>
      <trkpt lat="37.349574035033584" lon="-8.445780985057354">
        <ele>166.93000000000001</ele>
        <time>2025-05-07T09:41:46Z</time>
      </trkpt>
      <trkpt lat="37.349686017259955" lon="-8.445597002282739">
        <ele>164.03999999999999</ele>
        <time>2025-05-07T09:41:47Z</time>
      </trkpt>
      <trkpt lat="37.349821971729398" lon="-8.445426011458039">
        <ele>161.63999999999999</ele>
        <time>2025-05-07T09:41:48Z</time>
      </trkpt>
      <trkpt lat="37.349960021674633" lon="-8.445252003148198">
        <ele>159.72</ele>
        <time>2025-05-07T09:41:49Z</time>
      </trkpt>
      <trkpt lat="37.350236037746072" lon="-8.444904992356896">
        <ele>154.91</ele>
        <time>2025-05-07T09:41:51Z</time>
      </trkpt>
      <trkpt lat="37.350335028022528" lon="-8.444710029289126">
        <ele>152.99000000000001</ele>
        <time>2025-05-07T09:41:52Z</time>
      </trkpt>
      <trkpt lat="37.350425971671939" lon="-8.444516994059086">
        <ele>150.58000000000001</ele>
        <time>2025-05-07T09:41:53Z</time>
      </trkpt>
      <trkpt lat="37.350444998592138" lon="-8.444279031828046">
        <ele>148.18000000000001</ele>
        <time>2025-05-07T09:41:54Z</time>
      </trkpt>
      <trkpt lat="37.350464025512338" lon="-8.444028999656439">
        <ele>145.78</ele>
        <time>2025-05-07T09:41:55Z</time>
      </trkpt>
      <trkpt lat="37.350483974441886" lon="-8.443769998848438">
        <ele>143.37</ele>
        <time>2025-05-07T09:41:56Z</time>
      </trkpt>
      <trkpt lat="37.350609032437205" lon="-8.442481029778719">
        <ele>131.84</ele>
        <time>2025-05-07T09:42:01Z</time>
      </trkpt>
      <trkpt lat="37.350683966651559" lon="-8.442236026749015">
        <ele>129.43000000000001</ele>
        <time>2025-05-07T09:42:02Z</time>
      </trkpt>
      <trkpt lat="37.350759990513325" lon="-8.44199001789093">
        <ele>127.03</ele>
        <time>2025-05-07T09:42:03Z</time>
      </trkpt>
      <trkpt lat="37.350904997438192" lon="-8.441518032923341">
        <ele>122.70999999999999</ele>
        <time>2025-05-07T09:42:05Z</time>
      </trkpt>
      <trkpt lat="37.350945984944701" lon="-8.441288033500314">
        <ele>120.78</ele>
        <time>2025-05-07T09:42:06Z</time>
      </trkpt>
      <trkpt lat="37.350953025743365" lon="-8.441062979400158">
        <ele>118.86</ele>
        <time>2025-05-07T09:42:07Z</time>
      </trkpt>
      <trkpt lat="37.350914971902966" lon="-8.440848989412189">
        <ele>116.94</ele>
        <time>2025-05-07T09:42:08Z</time>
      </trkpt>
      <trkpt lat="37.350848000496626" lon="-8.440642040222883">
        <ele>115.5</ele>
        <time>2025-05-07T09:42:09Z</time>
      </trkpt>
      <trkpt lat="37.350736018270254" lon="-8.440466020256281">
        <ele>114.05</ele>
        <time>2025-05-07T09:42:10Z</time>
      </trkpt>
      <trkpt lat="37.350594028830528" lon="-8.440310033038259">
        <ele>113.09</ele>
        <time>2025-05-07T09:42:11Z</time>
      </trkpt>
      <trkpt lat="37.350437035784125" lon="-8.440156979486346">
        <ele>112.13</ele>
        <time>2025-05-07T09:42:12Z</time>
      </trkpt>
      <trkpt lat="37.350278031080961" lon="-8.440001998096705">
        <ele>111.65000000000001</ele>
        <time>2025-05-07T09:42:13Z</time>
      </trkpt>
      <trkpt lat="37.349796993657947" lon="-8.439520038664341">
        <ele>109.73</ele>
        <time>2025-05-07T09:42:16Z</time>
      </trkpt>
      <trkpt lat="37.349647041410208" lon="-8.439331026747823">
        <ele>109.25</ele>
        <time>2025-05-07T09:42:17Z</time>
      </trkpt>
      <trkpt lat="37.349537992849946" lon="-8.439102033153176">
        <ele>108.29000000000001</ele>
        <time>2025-05-07T09:42:18Z</time>
      </trkpt>
      <trkpt lat="37.349225012585521" lon="-8.438443969935179">
        <ele>105.88</ele>
        <time>2025-05-07T09:42:21Z</time>
      </trkpt>
      <trkpt lat="37.34909500926733" lon="-8.438298963010311">
        <ele>104.44</ele>
        <time>2025-05-07T09:42:22Z</time>
      </trkpt>
      <trkpt lat="37.348940027877688" lon="-8.438186980783939">
        <ele>103.48</ele>
        <time>2025-05-07T09:42:23Z</time>
      </trkpt>
      <trkpt lat="37.348752021789551" lon="-8.43807902187109">
        <ele>102.04000000000001</ele>
        <time>2025-05-07T09:42:24Z</time>
      </trkpt>
      <trkpt lat="37.348584970459342" lon="-8.43805898912251">
        <ele>101.08</ele>
        <time>2025-05-07T09:42:25Z</time>
      </trkpt>
      <trkpt lat="37.348396964371204" lon="-8.438037028536201">
        <ele>100.59999999999999</ele>
        <time>2025-05-07T09:42:26Z</time>
      </trkpt>
      <trkpt lat="37.348212981596589" lon="-8.438013978302479">
        <ele>99.629999999999995</ele>
        <time>2025-05-07T09:42:27Z</time>
      </trkpt>
      <trkpt lat="37.348037967458367" lon="-8.437955975532532">
        <ele>99.150000000000006</ele>
        <time>2025-05-07T09:42:28Z</time>
      </trkpt>
      <trkpt lat="37.347880974411964" lon="-8.437853967770934">
        <ele>98.189999999999998</ele>
        <time>2025-05-07T09:42:29Z</time>
      </trkpt>
      <trkpt lat="37.347724987193942" lon="-8.437748020514846">
        <ele>98.189999999999998</ele>
        <time>2025-05-07T09:42:30Z</time>
      </trkpt>
      <trkpt lat="37.347550978884101" lon="-8.43762899748981">
        <ele>97.709999999999994</ele>
        <time>2025-05-07T09:42:31Z</time>
      </trkpt>
      <trkpt lat="37.34744100831449" lon="-8.437487008050084">
        <ele>98.189999999999998</ele>
        <time>2025-05-07T09:42:32Z</time>
      </trkpt>
      <trkpt lat="37.347320979461074" lon="-8.437318028882146">
        <ele>98.189999999999998</ele>
        <time>2025-05-07T09:42:33Z</time>
      </trkpt>
      <trkpt lat="37.347232969477773" lon="-8.437129016965628">
        <ele>99.150000000000006</ele>
        <time>2025-05-07T09:42:34Z</time>
      </trkpt>
      <trkpt lat="37.347142025828362" lon="-8.436934975907207">
        <ele>99.150000000000006</ele>
        <time>2025-05-07T09:42:35Z</time>
      </trkpt>
      <trkpt lat="37.346745980903506" lon="-8.436197033151984">
        <ele>103.48</ele>
        <time>2025-05-07T09:42:39Z</time>
      </trkpt>
      <trkpt lat="37.346639027819037" lon="-8.436011038720608">
        <ele>104.92</ele>
        <time>2025-05-07T09:42:40Z</time>
      </trkpt>
      <trkpt lat="37.346506007015705" lon="-8.43584599904716">
        <ele>106.84</ele>
        <time>2025-05-07T09:42:41Z</time>
      </trkpt>
      <trkpt lat="37.34574400819838" lon="-8.435011999681592">
        <ele>116.45999999999999</ele>
        <time>2025-05-07T09:42:46Z</time>
      </trkpt>
      <trkpt lat="37.345574023202062" lon="-8.434884008020163">
        <ele>118.38</ele>
        <time>2025-05-07T09:42:47Z</time>
      </trkpt>
      <trkpt lat="37.345384005457163" lon="-8.434774959459901">
        <ele>120.3</ele>
        <time>2025-05-07T09:42:48Z</time>
      </trkpt>
      <trkpt lat="37.343962015584111" lon="-8.434343039989471">
        <ele>134.72</ele>
        <time>2025-05-07T09:42:55Z</time>
      </trkpt>
      <trkpt lat="37.343782978132367" lon="-8.43425402417779">
        <ele>135.19999999999999</ele>
        <time>2025-05-07T09:42:56Z</time>
      </trkpt>
      <trkpt lat="37.343623973429203" lon="-8.4341049939394">
        <ele>135.19999999999999</ele>
        <time>2025-05-07T09:42:57Z</time>
      </trkpt>
      <trkpt lat="37.342397030442953" lon="-8.432625001296401">
        <ele>131.36000000000001</ele>
        <time>2025-05-07T09:43:05Z</time>
      </trkpt>
      <trkpt lat="37.342096958309412" lon="-8.432249994948506">
        <ele>126.55</ele>
        <time>2025-05-07T09:43:09Z</time>
      </trkpt>
      <trkpt lat="37.342080026865005" lon="-8.432228034362197">
        <ele>124.15000000000001</ele>
        <time>2025-05-07T09:43:16Z</time>
      </trkpt>
      <trkpt lat="37.342080026865005" lon="-8.432228034362197">
        <ele>123.67</ele>
        <time>2025-05-07T09:43:51Z</time>
      </trkpt>
      <trkpt lat="37.341916998848319" lon="-8.432089984416962">
        <ele>122.70999999999999</ele>
        <time>2025-05-07T09:44:10Z</time>
      </trkpt>
      <trkpt lat="37.341820020228624" lon="-8.432013960555196">
        <ele>122.22</ele>
        <time>2025-05-07T09:44:11Z</time>
      </trkpt>
      <trkpt lat="37.341567976400256" lon="-8.431814974173904">
        <ele>121.73999999999999</ele>
        <time>2025-05-07T09:44:13Z</time>
      </trkpt>
      <trkpt lat="37.341420035809278" lon="-8.431708021089435">
        <ele>121.73999999999999</ele>
        <time>2025-05-07T09:44:14Z</time>
      </trkpt>
      <trkpt lat="37.3407799936831" lon="-8.431352041661739">
        <ele>121.73999999999999</ele>
        <time>2025-05-07T09:44:18Z</time>
      </trkpt>
      <trkpt lat="37.340659964829683" lon="-8.431262020021677">
        <ele>121.73999999999999</ele>
        <time>2025-05-07T09:44:19Z</time>
      </trkpt>
      <trkpt lat="37.34056600369513" lon="-8.431121958419681">
        <ele>122.22</ele>
        <time>2025-05-07T09:44:20Z</time>
      </trkpt>
      <trkpt lat="37.34050297178328" lon="-8.430965971201658">
        <ele>122.22</ele>
        <time>2025-05-07T09:44:21Z</time>
      </trkpt>
      <trkpt lat="37.34048000536859" lon="-8.430781988427043">
        <ele>122.70999999999999</ele>
        <time>2025-05-07T09:44:22Z</time>
      </trkpt>
      <trkpt lat="37.340477993711829" lon="-8.430604040622711">
        <ele>122.70999999999999</ele>
        <time>2025-05-07T09:44:23Z</time>
      </trkpt>
      <trkpt lat="37.340512024238706" lon="-8.430428020656109">
        <ele>123.19</ele>
        <time>2025-05-07T09:44:24Z</time>
      </trkpt>
      <trkpt lat="37.340599028393626" lon="-8.430289970710874">
        <ele>123.19</ele>
        <time>2025-05-07T09:44:25Z</time>
      </trkpt>
      <trkpt lat="37.34071696177125" lon="-8.430156027898192">
        <ele>122.70999999999999</ele>
        <time>2025-05-07T09:44:26Z</time>
      </trkpt>
      <trkpt lat="37.34084696508944" lon="-8.430008003488183">
        <ele>122.70999999999999</ele>
        <time>2025-05-07T09:44:27Z</time>
      </trkpt>
      <trkpt lat="37.341264970600605" lon="-8.429482039064169">
        <ele>121.73999999999999</ele>
        <time>2025-05-07T09:44:30Z</time>
      </trkpt>
      <trkpt lat="37.341352980583906" lon="-8.429262014105916">
        <ele>121.26000000000001</ele>
        <time>2025-05-07T09:44:31Z</time>
      </trkpt>
      <trkpt lat="37.341457000002265" lon="-8.429003013297916">
        <ele>120.78</ele>
        <time>2025-05-07T09:44:32Z</time>
      </trkpt>
      <trkpt lat="37.341673001646996" lon="-8.428131965920329">
        <ele>119.34</ele>
        <time>2025-05-07T09:44:36Z</time>
      </trkpt>
      <trkpt lat="37.341763023287058" lon="-8.427945971488953">
        <ele>118.38</ele>
        <time>2025-05-07T09:44:37Z</time>
      </trkpt>
      <trkpt lat="37.341913981363177" lon="-8.427817979827523">
        <ele>117.90000000000001</ele>
        <time>2025-05-07T09:44:38Z</time>
      </trkpt>
      <trkpt lat="37.342074997723103" lon="-8.4276810195297">
        <ele>117.42</ele>
        <time>2025-05-07T09:44:39Z</time>
      </trkpt>
      <trkpt lat="37.34224297106266" lon="-8.427538024261594">
        <ele>116.94</ele>
        <time>2025-05-07T09:44:40Z</time>
      </trkpt>
      <trkpt lat="37.342847976833582" lon="-8.426975011825562">
        <ele>114.05</ele>
        <time>2025-05-07T09:44:44Z</time>
      </trkpt>
      <trkpt lat="37.342959037050605" lon="-8.426813995465636">
        <ele>113.56999999999999</ele>
        <time>2025-05-07T09:44:45Z</time>
      </trkpt>
      <trkpt lat="37.343015028163791" lon="-8.426602017134428">
        <ele>113.56999999999999</ele>
        <time>2025-05-07T09:44:46Z</time>
      </trkpt>
      <trkpt lat="37.343050986528397" lon="-8.426394984126091">
        <ele>113.56999999999999</ele>
        <time>2025-05-07T09:44:47Z</time>
      </trkpt>
      <trkpt lat="37.343066995963454" lon="-8.426170013844967">
        <ele>113.56999999999999</ele>
        <time>2025-05-07T09:44:48Z</time>
      </trkpt>
      <trkpt lat="37.343083005398512" lon="-8.425933979451656">
        <ele>114.05</ele>
        <time>2025-05-07T09:44:49Z</time>
      </trkpt>
      <trkpt lat="37.343095997348428" lon="-8.425463000312448">
        <ele>115.5</ele>
        <time>2025-05-07T09:44:51Z</time>
      </trkpt>
      <trkpt lat="37.343060960993171" lon="-8.425226965919137">
        <ele>116.45999999999999</ele>
        <time>2025-05-07T09:44:52Z</time>
      </trkpt>
      <trkpt lat="37.343002036213875" lon="-8.424997972324491">
        <ele>116.94</ele>
        <time>2025-05-07T09:44:53Z</time>
      </trkpt>
      <trkpt lat="37.342921989038587" lon="-8.424768978729844">
        <ele>117.90000000000001</ele>
        <time>2025-05-07T09:44:54Z</time>
      </trkpt>
      <trkpt lat="37.342815035954118" lon="-8.424550965428352">
        <ele>118.86</ele>
        <time>2025-05-07T09:44:55Z</time>
      </trkpt>
      <trkpt lat="37.342685032635927" lon="-8.424340998753905">
        <ele>120.3</ele>
        <time>2025-05-07T09:44:56Z</time>
      </trkpt>
      <trkpt lat="37.342530973255634" lon="-8.424146035686135">
        <ele>121.73999999999999</ele>
        <time>2025-05-07T09:44:57Z</time>
      </trkpt>
      <trkpt lat="37.341713989153504" lon="-8.423209022730589">
        <ele>130.88</ele>
        <time>2025-05-07T09:45:02Z</time>
      </trkpt>
      <trkpt lat="37.341516008600593" lon="-8.423082958906889">
        <ele>132.80000000000001</ele>
        <time>2025-05-07T09:45:03Z</time>
      </trkpt>
      <trkpt lat="37.341310987249017" lon="-8.42295203357935">
        <ele>134.72</ele>
        <time>2025-05-07T09:45:04Z</time>
      </trkpt>
      <trkpt lat="37.339845998212695" lon="-8.421957017853856">
        <ele>152.03</ele>
        <time>2025-05-07T09:45:12Z</time>
      </trkpt>
      <trkpt lat="37.339724963530898" lon="-8.421812010928989">
        <ele>153.94999999999999</ele>
        <time>2025-05-07T09:45:13Z</time>
      </trkpt>
      <trkpt lat="37.339638965204358" lon="-8.421631967648864">
        <ele>155.38999999999999</ele>
        <time>2025-05-07T09:45:14Z</time>
      </trkpt>
      <trkpt lat="37.339580040425062" lon="-8.421432981267571">
        <ele>157.31</ele>
        <time>2025-05-07T09:45:15Z</time>
      </trkpt>
      <trkpt lat="37.339522037655115" lon="-8.421240029856563">
        <ele>159.24000000000001</ele>
        <time>2025-05-07T09:45:16Z</time>
      </trkpt>
      <trkpt lat="37.33942799270153" lon="-8.420690009370446">
        <ele>164.52000000000001</ele>
        <time>2025-05-07T09:45:19Z</time>
      </trkpt>
      <trkpt lat="37.339408965781331" lon="-8.420518012717366">
        <ele>166.44999999999999</ele>
        <time>2025-05-07T09:45:20Z</time>
      </trkpt>
      <trkpt lat="37.339407037943602" lon="-8.420339981094003">
        <ele>167.88999999999999</ele>
        <time>2025-05-07T09:45:21Z</time>
      </trkpt>
      <trkpt lat="37.339435033500195" lon="-8.420166978612542">
        <ele>169.81</ele>
        <time>2025-05-07T09:45:22Z</time>
      </trkpt>
      <trkpt lat="37.339468980208039" lon="-8.419987019151449">
        <ele>171.25</ele>
        <time>2025-05-07T09:45:23Z</time>
      </trkpt>
      <trkpt lat="37.339520025998354" lon="-8.41981996782124">
        <ele>173.16999999999999</ele>
        <time>2025-05-07T09:45:24Z</time>
      </trkpt>
      <trkpt lat="37.339720018208027" lon="-8.419305989518762">
        <ele>177.97999999999999</ele>
        <time>2025-05-07T09:45:27Z</time>
      </trkpt>
      <trkpt lat="37.33981498517096" lon="-8.419144973158836">
        <ele>179.90000000000001</ele>
        <time>2025-05-07T09:45:28Z</time>
      </trkpt>
      <trkpt lat="37.339937025681138" lon="-8.419032990932465">
        <ele>181.34999999999999</ele>
        <time>2025-05-07T09:45:29Z</time>
      </trkpt>
      <trkpt lat="37.3400719743222" lon="-8.418946992605925">
        <ele>182.78999999999999</ele>
        <time>2025-05-07T09:45:30Z</time>
      </trkpt>
      <trkpt lat="37.34022100456059" lon="-8.418939029797912">
        <ele>184.71000000000001</ele>
        <time>2025-05-07T09:45:31Z</time>
      </trkpt>
      <trkpt lat="37.340383026748896" lon="-8.418939029797912">
        <ele>186.15000000000001</ele>
        <time>2025-05-07T09:45:32Z</time>
      </trkpt>
      <trkpt lat="37.340534990653396" lon="-8.419027039781213">
        <ele>187.59</ele>
        <time>2025-05-07T09:45:33Z</time>
      </trkpt>
      <trkpt lat="37.340692989528179" lon="-8.419137010350823">
        <ele>189.52000000000001</ele>
        <time>2025-05-07T09:45:34Z</time>
      </trkpt>
      <trkpt lat="37.340858029201627" lon="-8.419290985912085">
        <ele>190.96000000000001</ele>
        <time>2025-05-07T09:45:35Z</time>
      </trkpt>
      <trkpt lat="37.341036982834339" lon="-8.419455019757152">
        <ele>192.88</ele>
        <time>2025-05-07T09:45:36Z</time>
      </trkpt>
      <trkpt lat="37.342273984104395" lon="-8.420331012457609">
        <ele>204.41999999999999</ele>
        <time>2025-05-07T09:45:42Z</time>
      </trkpt>
      <trkpt lat="37.343124998733401" lon="-8.420930989086628">
        <ele>210.66999999999999</ele>
        <time>2025-05-07T09:45:47Z</time>
      </trkpt>
      <trkpt lat="37.343261037021875" lon="-8.421098962426186">
        <ele>211.15000000000001</ele>
        <time>2025-05-07T09:45:48Z</time>
      </trkpt>
      <trkpt lat="37.343375030905008" lon="-8.421295015141368">
        <ele>211.63</ele>
        <time>2025-05-07T09:45:49Z</time>
      </trkpt>
      <trkpt lat="37.344273990020156" lon="-8.422786993905902">
        <ele>213.06999999999999</ele>
        <time>2025-05-07T09:45:56Z</time>
      </trkpt>
      <trkpt lat="37.344464007765055" lon="-8.422922026365995">
        <ele>213.06999999999999</ele>
        <time>2025-05-07T09:45:57Z</time>
      </trkpt>
      <trkpt lat="37.34619696624577" lon="-8.424151986837387">
        <ele>220.75999999999999</ele>
        <time>2025-05-07T09:46:06Z</time>
      </trkpt>
      <trkpt lat="37.347940988838673" lon="-8.425322016701102">
        <ele>226.05000000000001</ele>
        <time>2025-05-07T09:46:15Z</time>
      </trkpt>
      <trkpt lat="37.348147016018629" lon="-8.425399968400598">
        <ele>226.53</ele>
        <time>2025-05-07T09:46:16Z</time>
      </trkpt>
      <trkpt lat="37.348358994349837" lon="-8.425463000312448">
        <ele>227.00999999999999</ele>
        <time>2025-05-07T09:46:17Z</time>
      </trkpt>
      <trkpt lat="37.348577007651329" lon="-8.425472974777222">
        <ele>227.49000000000001</ele>
        <time>2025-05-07T09:46:18Z</time>
      </trkpt>
      <trkpt lat="37.34879401512444" lon="-8.425484038889408">
        <ele>227.97</ele>
        <time>2025-05-07T09:46:19Z</time>
      </trkpt>
      <trkpt lat="37.349006999284029" lon="-8.425408015027642">
        <ele>228.44999999999999</ele>
        <time>2025-05-07T09:46:20Z</time>
      </trkpt>
      <trkpt lat="37.349216965958476" lon="-8.425331991165876">
        <ele>229.41</ele>
        <time>2025-05-07T09:46:21Z</time>
      </trkpt>
      <trkpt lat="37.34941796399653" lon="-8.425225038081408">
        <ele>230.37</ele>
        <time>2025-05-07T09:46:22Z</time>
      </trkpt>
      <trkpt lat="37.34961099922657" lon="-8.425078019499779">
        <ele>231.81</ele>
        <time>2025-05-07T09:46:23Z</time>
      </trkpt>
      <trkpt lat="37.349801016971469" lon="-8.424925971776247">
        <ele>233.25999999999999</ele>
        <time>2025-05-07T09:46:24Z</time>
      </trkpt>
      <trkpt lat="37.35089804045856" lon="-8.423659969121218">
        <ele>246.22999999999999</ele>
        <time>2025-05-07T09:46:31Z</time>
      </trkpt>
      <trkpt lat="37.351986011490226" lon="-8.422194980084896">
        <ele>259.20999999999998</ele>
        <time>2025-05-07T09:46:39Z</time>
      </trkpt>
      <trkpt lat="37.352422038093209" lon="-8.421299960464239">
        <ele>256.81</ele>
        <time>2025-05-07T09:46:44Z</time>
      </trkpt>
      <trkpt lat="37.352567967027426" lon="-8.421185966581106">
        <ele>255.84999999999999</ele>
        <time>2025-05-07T09:46:45Z</time>
      </trkpt>
      <trkpt lat="37.352714985609055" lon="-8.421096028760076">
        <ele>254.41</ele>
        <time>2025-05-07T09:46:46Z</time>
      </trkpt>
      <trkpt lat="37.353217983618379" lon="-8.42082797549665">
        <ele>250.56</ele>
        <time>2025-05-07T09:46:49Z</time>
      </trkpt>
      <trkpt lat="37.35336902551353" lon="-8.420672994107008">
        <ele>248.63999999999999</ele>
        <time>2025-05-07T09:46:50Z</time>
      </trkpt>
      <trkpt lat="37.353490982204676" lon="-8.420498985797167">
        <ele>247.19999999999999</ele>
        <time>2025-05-07T09:46:51Z</time>
      </trkpt>
      <trkpt lat="37.353558959439397" lon="-8.420308968052268">
        <ele>245.75</ele>
        <time>2025-05-07T09:46:52Z</time>
      </trkpt>
      <trkpt lat="37.353615034371614" lon="-8.420102018862963">
        <ele>243.83000000000001</ele>
        <time>2025-05-07T09:46:53Z</time>
      </trkpt>
      <trkpt lat="37.353664990514517" lon="-8.419885011389852">
        <ele>242.38999999999999</ele>
        <time>2025-05-07T09:46:54Z</time>
      </trkpt>
      <trkpt lat="37.353798011317849" lon="-8.419461976736784">
        <ele>239.02000000000001</ele>
        <time>2025-05-07T09:46:56Z</time>
      </trkpt>
      <trkpt lat="37.353889960795641" lon="-8.419265002012253">
        <ele>237.58000000000001</ele>
        <time>2025-05-07T09:46:57Z</time>
      </trkpt>
      <trkpt lat="37.35401501879096" lon="-8.419127035886049">
        <ele>235.66</ele>
        <time>2025-05-07T09:46:58Z</time>
      </trkpt>
      <trkpt lat="37.354153990745544" lon="-8.419006001204252">
        <ele>234.22</ele>
        <time>2025-05-07T09:46:59Z</time>
      </trkpt>
      <trkpt lat="37.354325987398624" lon="-8.418914973735809">
        <ele>232.30000000000001</ele>
        <time>2025-05-07T09:47:00Z</time>
      </trkpt>
      <trkpt lat="37.354504019021988" lon="-8.418822018429637">
        <ele>230.37</ele>
        <time>2025-05-07T09:47:01Z</time>
      </trkpt>
      <trkpt lat="37.3546829726547" lon="-8.418739959597588">
        <ele>228.44999999999999</ele>
        <time>2025-05-07T09:47:02Z</time>
      </trkpt>
      <trkpt lat="37.354840971529484" lon="-8.418622026219964">
        <ele>227.00999999999999</ele>
        <time>2025-05-07T09:47:03Z</time>
      </trkpt>
      <trkpt lat="37.354990001767874" lon="-8.418489005416632">
        <ele>225.09</ele>
        <time>2025-05-07T09:47:04Z</time>
      </trkpt>
      <trkpt lat="37.355108018964529" lon="-8.418318014591932">
        <ele>223.16</ele>
        <time>2025-05-07T09:47:05Z</time>
      </trkpt>
      <trkpt lat="37.355199968442321" lon="-8.418123973533511">
        <ele>221.72</ele>
        <time>2025-05-07T09:47:06Z</time>
      </trkpt>
      <trkpt lat="37.35526098869741" lon="-8.417914006859064">
        <ele>219.80000000000001</ele>
        <time>2025-05-07T09:47:07Z</time>
      </trkpt>
      <trkpt lat="37.355269035324454" lon="-8.417693981900811">
        <ele>217.40000000000001</ele>
        <time>2025-05-07T09:47:08Z</time>
      </trkpt>
      <trkpt lat="37.35526199452579" lon="-8.417473034933209">
        <ele>215.47</ele>
        <time>2025-05-07T09:47:09Z</time>
      </trkpt>
      <trkpt lat="37.355249002575874" lon="-8.417249992489815">
        <ele>213.55000000000001</ele>
        <time>2025-05-07T09:47:10Z</time>
      </trkpt>
      <trkpt lat="37.355184964835644" lon="-8.417031979188323">
        <ele>211.63</ele>
        <time>2025-05-07T09:47:11Z</time>
      </trkpt>
      <trkpt lat="37.355106007307768" lon="-8.416823018342257">
        <ele>209.69999999999999</ele>
        <time>2025-05-07T09:47:12Z</time>
      </trkpt>
      <trkpt lat="37.355008022859693" lon="-8.4166360180825">
        <ele>208.25999999999999</ele>
        <time>2025-05-07T09:47:13Z</time>
      </trkpt>
      <trkpt lat="37.354858992621303" lon="-8.416265035048127">
        <ele>205.38</ele>
        <time>2025-05-07T09:47:15Z</time>
      </trkpt>
      <trkpt lat="37.354804007336497" lon="-8.416064037010074">
        <ele>204.41999999999999</ele>
        <time>2025-05-07T09:47:16Z</time>
      </trkpt>
      <trkpt lat="37.354804007336497" lon="-8.41586496680975">
        <ele>202.97999999999999</ele>
        <time>2025-05-07T09:47:17Z</time>
      </trkpt>
      <trkpt lat="37.354822028428316" lon="-8.415657011792064">
        <ele>202.00999999999999</ele>
        <time>2025-05-07T09:47:18Z</time>
      </trkpt>
      <trkpt lat="37.354879025369883" lon="-8.41545601375401">
        <ele>200.56999999999999</ele>
        <time>2025-05-07T09:47:19Z</time>
      </trkpt>
      <trkpt lat="37.35498296096921" lon="-8.415259961038828">
        <ele>199.61000000000001</ele>
        <time>2025-05-07T09:47:20Z</time>
      </trkpt>
      <trkpt lat="37.355100978165865" lon="-8.415060974657536">
        <ele>198.65000000000001</ele>
        <time>2025-05-07T09:47:21Z</time>
      </trkpt>
      <trkpt lat="37.355258977040648" lon="-8.414873974397779">
        <ele>197.69</ele>
        <time>2025-05-07T09:47:22Z</time>
      </trkpt>
      <trkpt lat="37.356546018272638" lon="-8.413219973444939">
        <ele>186.63</ele>
        <time>2025-05-07T09:47:30Z</time>
      </trkpt>
      <trkpt lat="37.35719402320683" lon="-8.411779040470719">
        <ele>171.72999999999999</ele>
        <time>2025-05-07T09:47:36Z</time>
      </trkpt>
      <trkpt lat="37.357324026525021" lon="-8.411282999441028">
        <ele>166.93000000000001</ele>
        <time>2025-05-07T09:47:38Z</time>
      </trkpt>
      <trkpt lat="37.357353027909994" lon="-8.411032967269421">
        <ele>164.52000000000001</ele>
        <time>2025-05-07T09:47:39Z</time>
      </trkpt>
      <trkpt lat="37.357330983504653" lon="-8.410780001431704">
        <ele>162.12</ele>
        <time>2025-05-07T09:47:40Z</time>
      </trkpt>
      <trkpt lat="37.357292007654905" lon="-8.410541033372283">
        <ele>159.72</ele>
        <time>2025-05-07T09:47:41Z</time>
      </trkpt>
      <trkpt lat="37.357235010713339" lon="-8.410298964008689">
        <ele>157.31</ele>
        <time>2025-05-07T09:47:42Z</time>
      </trkpt>
      <trkpt lat="37.357139037922025" lon="-8.410066030919552">
        <ele>154.91</ele>
        <time>2025-05-07T09:47:43Z</time>
      </trkpt>
      <trkpt lat="37.357038035988808" lon="-8.409834019839764">
        <ele>152.03</ele>
        <time>2025-05-07T09:47:44Z</time>
      </trkpt>
      <trkpt lat="37.356708962470293" lon="-8.409123988822103">
        <ele>144.34</ele>
        <time>2025-05-07T09:47:47Z</time>
      </trkpt>
      <trkpt lat="37.356552975252271" lon="-8.408922990784049">
        <ele>141.44999999999999</ele>
        <time>2025-05-07T09:47:48Z</time>
      </trkpt>
      <trkpt lat="37.356383996084332" lon="-8.408743031322956">
        <ele>139.05000000000001</ele>
        <time>2025-05-07T09:47:49Z</time>
      </trkpt>
      <trkpt lat="37.356218034401536" lon="-8.408566005527973">
        <ele>136.16</ele>
        <time>2025-05-07T09:47:50Z</time>
      </trkpt>
      <trkpt lat="37.356057018041611" lon="-8.408395014703274">
        <ele>133.75999999999999</ele>
        <time>2025-05-07T09:47:51Z</time>
      </trkpt>
      <trkpt lat="37.355489982292056" lon="-8.407686995342374">
        <ele>124.15000000000001</ele>
        <time>2025-05-07T09:47:55Z</time>
      </trkpt>
      <trkpt lat="37.355397026985884" lon="-8.407488008961082">
        <ele>121.73999999999999</ele>
        <time>2025-05-07T09:47:56Z</time>
      </trkpt>
      <trkpt lat="37.355313040316105" lon="-8.40729103423655">
        <ele>119.81999999999999</ele>
        <time>2025-05-07T09:47:57Z</time>
      </trkpt>
      <trkpt lat="37.354577025398612" lon="-8.404934965074062">
        <ele>110.69</ele>
        <time>2025-05-07T09:48:07Z</time>
      </trkpt>
      <trkpt lat="37.35416698269546" lon="-8.403423959389329">
        <ele>109.73</ele>
        <time>2025-05-07T09:48:13Z</time>
      </trkpt>
      <trkpt lat="37.35414401628077" lon="-8.403171999379993">
        <ele>110.20999999999999</ele>
        <time>2025-05-07T09:48:14Z</time>
      </trkpt>
      <trkpt lat="37.354175029322505" lon="-8.402937976643443">
        <ele>110.20999999999999</ele>
        <time>2025-05-07T09:48:15Z</time>
      </trkpt>
      <trkpt lat="37.354223979637027" lon="-8.402704037725925">
        <ele>110.69</ele>
        <time>2025-05-07T09:48:16Z</time>
      </trkpt>
      <trkpt lat="37.354306038469076" lon="-8.402469009160996">
        <ele>110.69</ele>
        <time>2025-05-07T09:48:17Z</time>
      </trkpt>
      <trkpt lat="37.354406034573913" lon="-8.402235992252827">
        <ele>111.17</ele>
        <time>2025-05-07T09:48:18Z</time>
      </trkpt>
      <trkpt lat="37.354523967951536" lon="-8.401998030021787">
        <ele>111.17</ele>
        <time>2025-05-07T09:48:19Z</time>
      </trkpt>
      <trkpt lat="37.355791982263327" lon="-8.399510029703379">
        <ele>116.45999999999999</ele>
        <time>2025-05-07T09:48:29Z</time>
      </trkpt>
      <trkpt lat="37.356961006298661" lon="-8.396061966195703">
        <ele>126.06999999999999</ele>
        <time>2025-05-07T09:48:42Z</time>
      </trkpt>
      <trkpt lat="37.357039041817188" lon="-8.39579600840807">
        <ele>126.55</ele>
        <time>2025-05-07T09:48:43Z</time>
      </trkpt>
      <trkpt lat="37.357068965211511" lon="-8.395514963194728">
        <ele>127.03</ele>
        <time>2025-05-07T09:48:44Z</time>
      </trkpt>
      <trkpt lat="37.357364008203149" lon="-8.392293965443969">
        <ele>134.24000000000001</ele>
        <time>2025-05-07T09:48:55Z</time>
      </trkpt>
      <trkpt lat="37.357378005981445" lon="-8.392007974907756">
        <ele>134.72</ele>
        <time>2025-05-07T09:48:56Z</time>
      </trkpt>
      <trkpt lat="37.357342969626188" lon="-8.391725001856685">
        <ele>135.19999999999999</ele>
        <time>2025-05-07T09:48:57Z</time>
      </trkpt>
      <trkpt lat="37.357299970462918" lon="-8.391442028805614">
        <ele>136.16</ele>
        <time>2025-05-07T09:48:58Z</time>
      </trkpt>
      <trkpt lat="37.35676595941186" lon="-8.389464989304543">
        <ele>144.34</ele>
        <time>2025-05-07T09:49:06Z</time>
      </trkpt>
      <trkpt lat="37.356601003557444" lon="-8.387705041095614">
        <ele>149.62</ele>
        <time>2025-05-07T09:49:13Z</time>
      </trkpt>
      <trkpt lat="37.35654903575778" lon="-8.387474035844207">
        <ele>150.09999999999999</ele>
        <time>2025-05-07T09:49:14Z</time>
      </trkpt>
      <trkpt lat="37.356460019946098" lon="-8.387251999229193">
        <ele>150.58000000000001</ele>
        <time>2025-05-07T09:49:15Z</time>
      </trkpt>
      <trkpt lat="37.356360023841262" lon="-8.387042032554746">
        <ele>150.58000000000001</ele>
        <time>2025-05-07T09:49:16Z</time>
      </trkpt>
      <trkpt lat="37.356244018301368" lon="-8.386845979839563">
        <ele>151.06</ele>
        <time>2025-05-07T09:49:17Z</time>
      </trkpt>
      <trkpt lat="37.356128012761474" lon="-8.386649005115032">
        <ele>151.53999999999999</ele>
        <time>2025-05-07T09:49:18Z</time>
      </trkpt>
      <trkpt lat="37.355889966711402" lon="-8.386287996545434">
        <ele>152.03</ele>
        <time>2025-05-07T09:49:20Z</time>
      </trkpt>
      <trkpt lat="37.355752000585198" lon="-8.386137038469315">
        <ele>152.03</ele>
        <time>2025-05-07T09:49:21Z</time>
      </trkpt>
      <trkpt lat="37.355591990053654" lon="-8.386027989909053">
        <ele>152.03</ele>
        <time>2025-05-07T09:49:22Z</time>
      </trkpt>
      <trkpt lat="37.35543399117887" lon="-8.385933022946119">
        <ele>152.50999999999999</ele>
        <time>2025-05-07T09:49:23Z</time>
      </trkpt>
      <trkpt lat="37.355297030881047" lon="-8.38585096411407">
        <ele>152.50999999999999</ele>
        <time>2025-05-07T09:49:24Z</time>
      </trkpt>
      <trkpt lat="37.354950020089746" lon="-8.385574026033282">
        <ele>152.50999999999999</ele>
        <time>2025-05-07T09:49:27Z</time>
      </trkpt>
      <trkpt lat="37.354865027591586" lon="-8.385505964979529">
        <ele>152.50999999999999</ele>
        <time>2025-05-07T09:49:28Z</time>
      </trkpt>
      <trkpt lat="37.354589011520147" lon="-8.385593974962831">
        <ele>152.50999999999999</ele>
        <time>2025-05-07T09:49:29Z</time>
      </trkpt>
      <trkpt lat="37.353645041584969" lon="-8.385531026870012">
        <ele>147.22</ele>
        <time>2025-05-07T09:49:35Z</time>
      </trkpt>
      <trkpt lat="37.352454978972673" lon="-8.385373027995229">
        <ele>138.56999999999999</ele>
        <time>2025-05-07T09:49:41Z</time>
      </trkpt>
      <trkpt lat="37.3522740136832" lon="-8.385347966104746">
        <ele>137.61000000000001</ele>
        <time>2025-05-07T09:49:42Z</time>
      </trkpt>
      <trkpt lat="37.352091958746314" lon="-8.385358024388552">
        <ele>136.16</ele>
        <time>2025-05-07T09:49:43Z</time>
      </trkpt>
      <trkpt lat="37.351906970143318" lon="-8.385401023551822">
        <ele>135.19999999999999</ele>
        <time>2025-05-07T09:49:44Z</time>
      </trkpt>
      <trkpt lat="37.351724999025464" lon="-8.385485010221601">
        <ele>134.24000000000001</ele>
        <time>2025-05-07T09:49:45Z</time>
      </trkpt>
      <trkpt lat="37.351549984887242" lon="-8.385566985234618">
        <ele>133.28</ele>
        <time>2025-05-07T09:49:46Z</time>
      </trkpt>
      <trkpt lat="37.351377988234162" lon="-8.385646026581526">
        <ele>131.84</ele>
        <time>2025-05-07T09:49:47Z</time>
      </trkpt>
      <trkpt lat="37.351194005459547" lon="-8.385690031573176">
        <ele>130.40000000000001</ele>
        <time>2025-05-07T09:49:48Z</time>
      </trkpt>
      <trkpt lat="37.350998036563396" lon="-8.385685002431274">
        <ele>129.43000000000001</ele>
        <time>2025-05-07T09:49:49Z</time>
      </trkpt>
      <trkpt lat="37.350797038525343" lon="-8.385638985782862">
        <ele>128.47</ele>
        <time>2025-05-07T09:49:50Z</time>
      </trkpt>
      <trkpt lat="37.350588999688625" lon="-8.385591041296721">
        <ele>127.51000000000001</ele>
        <time>2025-05-07T09:49:51Z</time>
      </trkpt>
      <trkpt lat="37.349172038957477" lon="-8.385393982753158">
        <ele>121.73999999999999</ele>
        <time>2025-05-07T09:49:58Z</time>
      </trkpt>
      <trkpt lat="37.34898797236383" lon="-8.385421978309751">
        <ele>121.26000000000001</ele>
        <time>2025-05-07T09:49:59Z</time>
      </trkpt>
      <trkpt lat="37.348830979317427" lon="-8.385501019656658">
        <ele>120.78</ele>
        <time>2025-05-07T09:50:00Z</time>
      </trkpt>
      <trkpt lat="37.348293028771877" lon="-8.385769994929433">
        <ele>119.34</ele>
        <time>2025-05-07T09:50:03Z</time>
      </trkpt>
      <trkpt lat="37.347948029637337" lon="-8.38595699518919">
        <ele>118.38</ele>
        <time>2025-05-07T09:50:05Z</time>
      </trkpt>
      <trkpt lat="37.347787013277411" lon="-8.386079035699368">
        <ele>117.90000000000001</ele>
        <time>2025-05-07T09:50:06Z</time>
      </trkpt>
      <trkpt lat="37.347620967775583" lon="-8.386206021532416">
        <ele>117.42</ele>
        <time>2025-05-07T09:50:07Z</time>
      </trkpt>
      <trkpt lat="37.3474629689008" lon="-8.386363014578819">
        <ele>116.94</ele>
        <time>2025-05-07T09:50:08Z</time>
      </trkpt>
      <trkpt lat="37.347315028309822" lon="-8.386539034545422">
        <ele>115.98</ele>
        <time>2025-05-07T09:50:09Z</time>
      </trkpt>
      <trkpt lat="37.346448004245758" lon="-8.38756900280714">
        <ele>111.17</ele>
        <time>2025-05-07T09:50:16Z</time>
      </trkpt>
      <trkpt lat="37.345999991521239" lon="-8.388020033016801">
        <ele>108.29000000000001</ele>
        <time>2025-05-07T09:50:22Z</time>
      </trkpt>
      <trkpt lat="37.345889015123248" lon="-8.388103013858199">
        <ele>107.81</ele>
        <time>2025-05-07T09:50:23Z</time>
      </trkpt>
      <trkpt lat="37.344791991636157" lon="-8.388607017695904">
        <ele>103.48</ele>
        <time>2025-05-07T09:50:30Z</time>
      </trkpt>
      <trkpt lat="37.34464799053967" lon="-8.38868597522378">
        <ele>103</ele>
        <time>2025-05-07T09:50:31Z</time>
      </trkpt>
      <trkpt lat="37.344510024413466" lon="-8.388766022399068">
        <ele>102.52</ele>
        <time>2025-05-07T09:50:32Z</time>
      </trkpt>
      <trkpt lat="37.344371974468231" lon="-8.388846991583705">
        <ele>102.04000000000001</ele>
        <time>2025-05-07T09:50:33Z</time>
      </trkpt>
      <trkpt lat="37.344230990856886" lon="-8.388925027102232">
        <ele>101.08</ele>
        <time>2025-05-07T09:50:34Z</time>
      </trkpt>
      <trkpt lat="37.344073997810483" lon="-8.388973977416754">
        <ele>100.59999999999999</ele>
        <time>2025-05-07T09:50:35Z</time>
      </trkpt>
      <trkpt lat="37.343903006985784" lon="-8.38902703486383">
        <ele>100.11</ele>
        <time>2025-05-07T09:50:36Z</time>
      </trkpt>
      <trkpt lat="37.343234969303012" lon="-8.389172963798046">
        <ele>99.629999999999995</ele>
        <time>2025-05-07T09:50:40Z</time>
      </trkpt>
      <trkpt lat="37.343097003176808" lon="-8.389276983216405">
        <ele>99.629999999999995</ele>
        <time>2025-05-07T09:50:41Z</time>
      </trkpt>
      <trkpt lat="37.342961970716715" lon="-8.389387959614396">
        <ele>99.629999999999995</ele>
        <time>2025-05-07T09:50:42Z</time>
      </trkpt>
      <trkpt lat="37.342571960762143" lon="-8.389700017869473">
        <ele>99.150000000000006</ele>
        <time>2025-05-07T09:50:45Z</time>
      </trkpt>
      <trkpt lat="37.342427037656307" lon="-8.389750979840756">
        <ele>99.629999999999995</ele>
        <time>2025-05-07T09:50:46Z</time>
      </trkpt>
      <trkpt lat="37.342278007417917" lon="-8.389804037287831">
        <ele>99.629999999999995</ele>
        <time>2025-05-07T09:50:47Z</time>
      </trkpt>
      <trkpt lat="37.34211003407836" lon="-8.389813005924225">
        <ele>99.629999999999995</ele>
        <time>2025-05-07T09:50:48Z</time>
      </trkpt>
      <trkpt lat="37.341943988576531" lon="-8.389800013974309">
        <ele>100.11</ele>
        <time>2025-05-07T09:50:49Z</time>
      </trkpt>
      <trkpt lat="37.341778026893735" lon="-8.389788027852774">
        <ele>100.11</ele>
        <time>2025-05-07T09:50:50Z</time>
      </trkpt>
      <trkpt lat="37.339603006839752" lon="-8.389619970694184">
        <ele>101.08</ele>
        <time>2025-05-07T09:51:02Z</time>
      </trkpt>
      <trkpt lat="37.339412989094853" lon="-8.389599015936256">
        <ele>101.08</ele>
        <time>2025-05-07T09:51:03Z</time>
      </trkpt>
      <trkpt lat="37.339228000491858" lon="-8.389560962095857">
        <ele>101.08</ele>
        <time>2025-05-07T09:51:04Z</time>
      </trkpt>
      <trkpt lat="37.339047035202384" lon="-8.389491979032755">
        <ele>101.08</ele>
        <time>2025-05-07T09:51:05Z</time>
      </trkpt>
      <trkpt lat="37.338879983872175" lon="-8.389379996806383">
        <ele>101.08</ele>
        <time>2025-05-07T09:51:06Z</time>
      </trkpt>
      <trkpt lat="37.338719973340631" lon="-8.389259967952967">
        <ele>101.08</ele>
        <time>2025-05-07T09:51:07Z</time>
      </trkpt>
      <trkpt lat="37.338581001386046" lon="-8.38911303319037">
        <ele>101.08</ele>
        <time>2025-05-07T09:51:08Z</time>
      </trkpt>
      <trkpt lat="37.338459966704249" lon="-8.38896400295198">
        <ele>101.08</ele>
        <time>2025-05-07T09:51:09Z</time>
      </trkpt>
      <trkpt lat="37.3383520077914" lon="-8.388828970491886">
        <ele>101.56</ele>
        <time>2025-05-07T09:51:10Z</time>
      </trkpt>
      <trkpt lat="37.338252011686563" lon="-8.38870600797236">
        <ele>102.04000000000001</ele>
        <time>2025-05-07T09:51:11Z</time>
      </trkpt>
      <trkpt lat="37.338170958682895" lon="-8.388582961633802">
        <ele>102.52</ele>
        <time>2025-05-07T09:51:12Z</time>
      </trkpt>
      <trkpt lat="37.338023018091917" lon="-8.388404008001089">
        <ele>103.95999999999999</ele>
        <time>2025-05-07T09:51:14Z</time>
      </trkpt>
      <trkpt lat="37.337949005886912" lon="-8.388340976089239">
        <ele>104.44</ele>
        <time>2025-05-07T09:51:15Z</time>
      </trkpt>
      <trkpt lat="37.337867030873895" lon="-8.388282973319292">
        <ele>104.92</ele>
        <time>2025-05-07T09:51:16Z</time>
      </trkpt>
      <trkpt lat="37.337475009262562" lon="-8.388023972511292">
        <ele>106.36</ele>
        <time>2025-05-07T09:51:20Z</time>
      </trkpt>
      <trkpt lat="37.337351962924004" lon="-8.387987008318305">
        <ele>106.84</ele>
        <time>2025-05-07T09:51:21Z</time>
      </trkpt>
      <trkpt lat="37.337232017889619" lon="-8.387982985004783">
        <ele>108.29000000000001</ele>
        <time>2025-05-07T09:51:22Z</time>
      </trkpt>
      <trkpt lat="37.336543025448918" lon="-8.388033024966717">
        <ele>114.05</ele>
        <time>2025-05-07T09:51:28Z</time>
      </trkpt>
      <trkpt lat="37.336435988545418" lon="-8.387994971126318">
        <ele>115.01000000000001</ele>
        <time>2025-05-07T09:51:29Z</time>
      </trkpt>
      <trkpt lat="37.336320988833904" lon="-8.387953983619809">
        <ele>115.5</ele>
        <time>2025-05-07T09:51:30Z</time>
      </trkpt>
      <trkpt lat="37.336200037971139" lon="-8.387910984456539">
        <ele>115.98</ele>
        <time>2025-05-07T09:51:31Z</time>
      </trkpt>
      <trkpt lat="37.336089983582497" lon="-8.387863961979747">
        <ele>115.98</ele>
        <time>2025-05-07T09:51:32Z</time>
      </trkpt>
      <trkpt lat="37.335353968665004" lon="-8.387614013627172">
        <ele>116.94</ele>
        <time>2025-05-07T09:51:38Z</time>
      </trkpt>
      <trkpt lat="37.33521499671042" lon="-8.387645026668906">
        <ele>116.94</ele>
        <time>2025-05-07T09:51:39Z</time>
      </trkpt>
      <trkpt lat="37.335076024755836" lon="-8.387682996690273">
        <ele>117.42</ele>
        <time>2025-05-07T09:51:40Z</time>
      </trkpt>
      <trkpt lat="37.334529021754861" lon="-8.387793973088265">
        <ele>119.81999999999999</ele>
        <time>2025-05-07T09:51:44Z</time>
      </trkpt>
      <trkpt lat="37.334392983466387" lon="-8.387765977531672">
        <ele>120.3</ele>
        <time>2025-05-07T09:51:45Z</time>
      </trkpt>
      <trkpt lat="37.334261974319816" lon="-8.387682996690273">
        <ele>121.26000000000001</ele>
        <time>2025-05-07T09:51:46Z</time>
      </trkpt>
      <trkpt lat="37.334123002365232" lon="-8.387580988928676">
        <ele>122.22</ele>
        <time>2025-05-07T09:51:47Z</time>
      </trkpt>
      <trkpt lat="37.333980007097125" lon="-8.387458026409149">
        <ele>123.19</ele>
        <time>2025-05-07T09:51:48Z</time>
      </trkpt>
      <trkpt lat="37.333837011829019" lon="-8.38733397424221">
        <ele>124.15000000000001</ele>
        <time>2025-05-07T09:51:49Z</time>
      </trkpt>
      <trkpt lat="37.33368999324739" lon="-8.387214029207826">
        <ele>125.59</ele>
        <time>2025-05-07T09:51:50Z</time>
      </trkpt>
      <trkpt lat="37.333521014079452" lon="-8.387124007567763">
        <ele>127.03</ele>
        <time>2025-05-07T09:51:51Z</time>
      </trkpt>
      <trkpt lat="37.333337031304836" lon="-8.38702904060483">
        <ele>128.47</ele>
        <time>2025-05-07T09:51:52Z</time>
      </trkpt>
      <trkpt lat="37.333143996074796" lon="-8.386973971500993">
        <ele>129.91999999999999</ele>
        <time>2025-05-07T09:51:53Z</time>
      </trkpt>
      <trkpt lat="37.332777036353946" lon="-8.386894008144736">
        <ele>132.80000000000001</ele>
        <time>2025-05-07T09:51:55Z</time>
      </trkpt>
      <trkpt lat="37.332593975588679" lon="-8.386887973174453">
        <ele>133.75999999999999</ele>
        <time>2025-05-07T09:51:56Z</time>
      </trkpt>
      <trkpt lat="37.332419967278838" lon="-8.386939018964768">
        <ele>134.72</ele>
        <time>2025-05-07T09:51:57Z</time>
      </trkpt>
      <trkpt lat="37.332241013646126" lon="-8.386991992592812">
        <ele>135.68000000000001</ele>
        <time>2025-05-07T09:51:58Z</time>
      </trkpt>
      <trkpt lat="37.332063987851143" lon="-8.387043960392475">
        <ele>136.63999999999999</ele>
        <time>2025-05-07T09:51:59Z</time>
      </trkpt>
      <trkpt lat="37.331900037825108" lon="-8.387091988697648">
        <ele>138.09</ele>
        <time>2025-05-07T09:52:00Z</time>
      </trkpt>
      <trkpt lat="37.331737009808421" lon="-8.387076985090971">
        <ele>139.05000000000001</ele>
        <time>2025-05-07T09:52:01Z</time>
      </trkpt>
      <trkpt lat="37.331560989841819" lon="-8.387055024504662">
        <ele>140.49000000000001</ele>
        <time>2025-05-07T09:52:02Z</time>
      </trkpt>
      <trkpt lat="37.331382958218455" lon="-8.38703298009932">
        <ele>141.44999999999999</ele>
        <time>2025-05-07T09:52:03Z</time>
      </trkpt>
      <trkpt lat="37.331195035949349" lon="-8.38701001368463">
        <ele>142.88999999999999</ele>
        <time>2025-05-07T09:52:04Z</time>
      </trkpt>
      <trkpt lat="37.330998983234167" lon="-8.38698998093605">
        <ele>143.84999999999999</ele>
        <time>2025-05-07T09:52:05Z</time>
      </trkpt>
      <trkpt lat="37.330794967710972" lon="-8.387001967057586">
        <ele>144.34</ele>
        <time>2025-05-07T09:52:06Z</time>
      </trkpt>
      <trkpt lat="37.329528965055943" lon="-8.3870720397681">
        <ele>145.78</ele>
        <time>2025-05-07T09:52:13Z</time>
      </trkpt>
      <trkpt lat="37.328315014019608" lon="-8.386721005663276">
        <ele>147.22</ele>
        <time>2025-05-07T09:52:20Z</time>
      </trkpt>
      <trkpt lat="37.327680001035333" lon="-8.386396039277315">
        <ele>152.03</ele>
        <time>2025-05-07T09:52:24Z</time>
      </trkpt>
      <trkpt lat="37.327558966353536" lon="-8.386299982666969">
        <ele>153.94999999999999</ele>
        <time>2025-05-07T09:52:25Z</time>
      </trkpt>
      <trkpt lat="37.32745997607708" lon="-8.386176014319062">
        <ele>155.38999999999999</ele>
        <time>2025-05-07T09:52:26Z</time>
      </trkpt>
      <trkpt lat="37.327380012720823" lon="-8.386008040979505">
        <ele>157.31</ele>
        <time>2025-05-07T09:52:27Z</time>
      </trkpt>
      <trkpt lat="37.327312035486102" lon="-8.385818023234606">
        <ele>158.75</ele>
        <time>2025-05-07T09:52:28Z</time>
      </trkpt>
      <trkpt lat="37.327240034937859" lon="-8.385614007711411">
        <ele>160.68000000000001</ele>
        <time>2025-05-07T09:52:29Z</time>
      </trkpt>
      <trkpt lat="37.326934011653066" lon="-8.384800041094422">
        <ele>169.33000000000001</ele>
        <time>2025-05-07T09:52:33Z</time>
      </trkpt>
      <trkpt lat="37.326843990013003" lon="-8.384650005027652">
        <ele>171.72999999999999</ele>
        <time>2025-05-07T09:52:34Z</time>
      </trkpt>
      <trkpt lat="37.326698983088136" lon="-8.384535005316138">
        <ele>173.66</ele>
        <time>2025-05-07T09:52:35Z</time>
      </trkpt>
      <trkpt lat="37.325995992869139" lon="-8.38397903367877">
        <ele>184.71000000000001</ele>
        <time>2025-05-07T09:52:41Z</time>
      </trkpt>
      <trkpt lat="37.325961962342262" lon="-8.383952965959907">
        <ele>190</ele>
        <time>2025-05-07T09:52:46Z</time>
      </trkpt>
      <trkpt lat="37.325961962342262" lon="-8.383952965959907">
        <ele>196.72999999999999</ele>
        <time>2025-05-07T09:53:18Z</time>
      </trkpt>
      <trkpt lat="37.325855009257793" lon="-8.383867973461747">
        <ele>200.09</ele>
        <time>2025-05-07T09:53:55Z</time>
      </trkpt>
      <trkpt lat="37.325238017365336" lon="-8.383380984887481">
        <ele>202.00999999999999</ele>
        <time>2025-05-07T09:54:00Z</time>
      </trkpt>
      <trkpt lat="37.324008978903294" lon="-8.382764998823404">
        <ele>205.38</ele>
        <time>2025-05-07T09:54:06Z</time>
      </trkpt>
      <trkpt lat="37.321946024894714" lon="-8.381705023348332">
        <ele>229.88999999999999</ele>
        <time>2025-05-07T09:54:16Z</time>
      </trkpt>
      <trkpt lat="37.32075403444469" lon="-8.381141005083919">
        <ele>250.56</ele>
        <time>2025-05-07T09:54:22Z</time>
      </trkpt>
      <trkpt lat="37.318603992462158" lon="-8.379935016855598">
        <ele>290.45999999999998</ele>
        <time>2025-05-07T09:54:33Z</time>
      </trkpt>
      <trkpt lat="37.317294990643859" lon="-8.379303021356463">
        <ele>306.80000000000001</ele>
        <time>2025-05-07T09:54:40Z</time>
      </trkpt>
      <trkpt lat="37.31549397110939" lon="-8.378673037514091">
        <ele>313.52999999999997</ele>
        <time>2025-05-07T09:54:49Z</time>
      </trkpt>
      <trkpt lat="37.31344903819263" lon="-8.378063002601266">
        <ele>299.11000000000001</ele>
        <time>2025-05-07T09:54:59Z</time>
      </trkpt>
      <trkpt lat="37.311896961182356" lon="-8.377509964630008">
        <ele>286.13</ele>
        <time>2025-05-07T09:55:07Z</time>
      </trkpt>
      <trkpt lat="37.311781039461493" lon="-8.377482974901795">
        <ele>285.17000000000002</ele>
        <time>2025-05-07T09:55:08Z</time>
      </trkpt>
      <trkpt lat="37.311636032536626" lon="-8.377554975450039">
        <ele>283.73000000000002</ele>
        <time>2025-05-07T09:55:09Z</time>
      </trkpt>
      <trkpt lat="37.311537964269519" lon="-8.377604009583592">
        <ele>282.27999999999997</ele>
        <time>2025-05-07T09:55:10Z</time>
      </trkpt>
      <trkpt lat="37.311468981206417" lon="-8.377687996253371">
        <ele>280.83999999999997</ele>
        <time>2025-05-07T09:55:11Z</time>
      </trkpt>
      <trkpt lat="37.311382982879877" lon="-8.377806013450027">
        <ele>279.39999999999998</ele>
        <time>2025-05-07T09:55:12Z</time>
      </trkpt>
      <trkpt lat="37.311288015916944" lon="-8.377940040081739">
        <ele>277.95999999999998</ele>
        <time>2025-05-07T09:55:13Z</time>
      </trkpt>
      <trkpt lat="37.310440018773079" lon="-8.379024993628264">
        <ele>268.35000000000002</ele>
        <time>2025-05-07T09:55:20Z</time>
      </trkpt>
      <trkpt lat="37.310305992141366" lon="-8.379156002774835">
        <ele>267.38</ele>
        <time>2025-05-07T09:55:21Z</time>
      </trkpt>
      <trkpt lat="37.310148999094963" lon="-8.379246024414897">
        <ele>266.42000000000002</ele>
        <time>2025-05-07T09:55:22Z</time>
      </trkpt>
      <trkpt lat="37.309989994391799" lon="-8.379336968064308">
        <ele>265.45999999999998</ele>
        <time>2025-05-07T09:55:23Z</time>
      </trkpt>
      <trkpt lat="37.309830989688635" lon="-8.379427995532751">
        <ele>264.5</ele>
        <time>2025-05-07T09:55:24Z</time>
      </trkpt>
      <trkpt lat="37.309687994420528" lon="-8.379538971930742">
        <ele>263.54000000000002</ele>
        <time>2025-05-07T09:55:25Z</time>
      </trkpt>
      <trkpt lat="37.309571988880634" lon="-8.379666041582823">
        <ele>262.57999999999998</ele>
        <time>2025-05-07T09:55:26Z</time>
      </trkpt>
      <trkpt lat="37.309468975290656" lon="-8.379779029637575">
        <ele>261.62</ele>
        <time>2025-05-07T09:55:27Z</time>
      </trkpt>
      <trkpt lat="37.309377025812864" lon="-8.379880031570792">
        <ele>260.64999999999998</ele>
        <time>2025-05-07T09:55:28Z</time>
      </trkpt>
      <trkpt lat="37.309293961152434" lon="-8.379959994927049">
        <ele>259.69</ele>
        <time>2025-05-07T09:55:29Z</time>
      </trkpt>
      <trkpt lat="37.30919798836112" lon="-8.380008023232222">
        <ele>259.20999999999998</ele>
        <time>2025-05-07T09:55:30Z</time>
      </trkpt>
      <trkpt lat="37.309091035276651" lon="-8.380036018788815">
        <ele>258.73000000000002</ele>
        <time>2025-05-07T09:55:31Z</time>
      </trkpt>
      <trkpt lat="37.308970000594854" lon="-8.380036018788815">
        <ele>257.29000000000002</ele>
        <time>2025-05-07T09:55:32Z</time>
      </trkpt>
      <trkpt lat="37.308847960084677" lon="-8.37998203933239">
        <ele>256.32999999999998</ele>
        <time>2025-05-07T09:55:33Z</time>
      </trkpt>
      <trkpt lat="37.308756010606885" lon="-8.379924958571792">
        <ele>254.88999999999999</ele>
        <time>2025-05-07T09:55:34Z</time>
      </trkpt>
      <trkpt lat="37.308676969259977" lon="-8.379826974123716">
        <ele>253.93000000000001</ele>
        <time>2025-05-07T09:55:35Z</time>
      </trkpt>
      <trkpt lat="37.308588037267327" lon="-8.379718009382486">
        <ele>252.47999999999999</ele>
        <time>2025-05-07T09:55:36Z</time>
      </trkpt>
      <trkpt lat="37.308491980656981" lon="-8.379598986357451">
        <ele>252</ele>
        <time>2025-05-07T09:55:37Z</time>
      </trkpt>
      <trkpt lat="37.308387039229274" lon="-8.379487004131079">
        <ele>251.03999999999999</ele>
        <time>2025-05-07T09:55:38Z</time>
      </trkpt>
      <trkpt lat="37.30825200676918" lon="-8.379415003582835">
        <ele>250.56</ele>
        <time>2025-05-07T09:55:39Z</time>
      </trkpt>
      <trkpt lat="37.308104988187551" lon="-8.379336968064308">
        <ele>249.59999999999999</ele>
        <time>2025-05-07T09:55:40Z</time>
      </trkpt>
      <trkpt lat="37.307467963546515" lon="-8.379048965871334">
        <ele>244.31</ele>
        <time>2025-05-07T09:55:44Z</time>
      </trkpt>
      <trkpt lat="37.307299990206957" lon="-8.379024993628264">
        <ele>242.38999999999999</ele>
        <time>2025-05-07T09:55:45Z</time>
      </trkpt>
      <trkpt lat="37.30676899664104" lon="-8.379033040255308">
        <ele>235.18000000000001</ele>
        <time>2025-05-07T09:55:49Z</time>
      </trkpt>
      <trkpt lat="37.306678975000978" lon="-8.379086013883352">
        <ele>233.25999999999999</ele>
        <time>2025-05-07T09:55:50Z</time>
      </trkpt>
      <trkpt lat="37.30661703273654" lon="-8.379162037745118">
        <ele>231.33000000000001</ele>
        <time>2025-05-07T09:55:51Z</time>
      </trkpt>
      <trkpt lat="37.30657797306776" lon="-8.379294974729419">
        <ele>229.41</ele>
        <time>2025-05-07T09:55:52Z</time>
      </trkpt>
      <trkpt lat="37.30653103441" lon="-8.379452973604202">
        <ele>227.49000000000001</ele>
        <time>2025-05-07T09:55:53Z</time>
      </trkpt>
      <trkpt lat="37.306503960862756" lon="-8.379636034369469">
        <ele>226.05000000000001</ele>
        <time>2025-05-07T09:55:54Z</time>
      </trkpt>
      <trkpt lat="37.306385021656752" lon="-8.381205964833498">
        <ele>220.75999999999999</ele>
        <time>2025-05-07T09:56:01Z</time>
      </trkpt>
      <trkpt lat="37.306413017213345" lon="-8.382960967719555">
        <ele>230.37</ele>
        <time>2025-05-07T09:56:09Z</time>
      </trkpt>
      <trkpt lat="37.3064049705863" lon="-8.3843660261482">
        <ele>237.09999999999999</ele>
        <time>2025-05-07T09:56:16Z</time>
      </trkpt>
      <trkpt lat="37.306455010548234" lon="-8.384554032236338">
        <ele>237.09999999999999</ele>
        <time>2025-05-07T09:56:17Z</time>
      </trkpt>
      <trkpt lat="37.306508990004659" lon="-8.384760981425643">
        <ele>237.09999999999999</ele>
        <time>2025-05-07T09:56:18Z</time>
      </trkpt>
      <trkpt lat="37.306569004431367" lon="-8.384987041354179">
        <ele>236.62</ele>
        <time>2025-05-07T09:56:19Z</time>
      </trkpt>
      <trkpt lat="37.306632958352566" lon="-8.385229026898742">
        <ele>236.13999999999999</ele>
        <time>2025-05-07T09:56:20Z</time>
      </trkpt>
      <trkpt lat="37.306696996092796" lon="-8.385480986908078">
        <ele>235.66</ele>
        <time>2025-05-07T09:56:21Z</time>
      </trkpt>
      <trkpt lat="37.306718034669757" lon="-8.385749040171504">
        <ele>234.69999999999999</ele>
        <time>2025-05-07T09:56:22Z</time>
      </trkpt>
      <trkpt lat="37.306738989427686" lon="-8.386022038757801">
        <ele>234.22</ele>
        <time>2025-05-07T09:56:23Z</time>
      </trkpt>
      <trkpt lat="37.306779976934195" lon="-8.386548003181815">
        <ele>233.25999999999999</ele>
        <time>2025-05-07T09:56:25Z</time>
      </trkpt>
      <trkpt lat="37.306857006624341" lon="-8.386765010654926">
        <ele>232.78</ele>
        <time>2025-05-07T09:56:26Z</time>
      </trkpt>
      <trkpt lat="37.306934036314487" lon="-8.386973971500993">
        <ele>232.78</ele>
        <time>2025-05-07T09:56:27Z</time>
      </trkpt>
      <trkpt lat="37.307009976357222" lon="-8.387178992852569">
        <ele>232.78</ele>
        <time>2025-05-07T09:56:28Z</time>
      </trkpt>
      <trkpt lat="37.307086000218987" lon="-8.387383008375764">
        <ele>233.25999999999999</ele>
        <time>2025-05-07T09:56:29Z</time>
      </trkpt>
      <trkpt lat="37.307149032130837" lon="-8.387574031949043">
        <ele>234.22</ele>
        <time>2025-05-07T09:56:30Z</time>
      </trkpt>
      <trkpt lat="37.307170992717147" lon="-8.387770000845194">
        <ele>235.18000000000001</ele>
        <time>2025-05-07T09:56:31Z</time>
      </trkpt>
      <trkpt lat="37.307192031294107" lon="-8.387959012761712">
        <ele>236.62</ele>
        <time>2025-05-07T09:56:32Z</time>
      </trkpt>
      <trkpt lat="37.307209968566895" lon="-8.388125980272889">
        <ele>237.58000000000001</ele>
        <time>2025-05-07T09:56:33Z</time>
      </trkpt>
      <trkpt lat="37.30717702768743" lon="-8.388294037431479">
        <ele>239.02000000000001</ele>
        <time>2025-05-07T09:56:34Z</time>
      </trkpt>
      <trkpt lat="37.307142997160554" lon="-8.388453964143992">
        <ele>240.94999999999999</ele>
        <time>2025-05-07T09:56:35Z</time>
      </trkpt>
      <trkpt lat="37.30706999078393" lon="-8.388612968847156">
        <ele>242.87</ele>
        <time>2025-05-07T09:56:36Z</time>
      </trkpt>
      <trkpt lat="37.30696203187108" lon="-8.388752024620771">
        <ele>244.78999999999999</ele>
        <time>2025-05-07T09:56:37Z</time>
      </trkpt>
      <trkpt lat="37.306845020502806" lon="-8.38890097104013">
        <ele>246.72</ele>
        <time>2025-05-07T09:56:38Z</time>
      </trkpt>
      <trkpt lat="37.306394996121526" lon="-8.389477981254458">
        <ele>254.88999999999999</ele>
        <time>2025-05-07T09:56:42Z</time>
      </trkpt>
      <trkpt lat="37.306255018338561" lon="-8.389558028429747">
        <ele>256.81</ele>
        <time>2025-05-07T09:56:43Z</time>
      </trkpt>
      <trkpt lat="37.306095007807016" lon="-8.389648972079158">
        <ele>259.20999999999998</ele>
        <time>2025-05-07T09:56:44Z</time>
      </trkpt>
      <trkpt lat="37.305927034467459" lon="-8.389666993170977">
        <ele>261.62</ele>
        <time>2025-05-07T09:56:45Z</time>
      </trkpt>
      <trkpt lat="37.305738022550941" lon="-8.389686020091176">
        <ele>264.01999999999998</ele>
        <time>2025-05-07T09:56:46Z</time>
      </trkpt>
      <trkpt lat="37.304790029302239" lon="-8.389862962067127">
        <ele>276.04000000000002</ele>
        <time>2025-05-07T09:56:51Z</time>
      </trkpt>
      <trkpt lat="37.304617026820779" lon="-8.389856005087495">
        <ele>278.44</ele>
        <time>2025-05-07T09:56:52Z</time>
      </trkpt>
      <trkpt lat="37.30429801158607" lon="-8.38984502479434">
        <ele>282.76999999999998</ele>
        <time>2025-05-07T09:56:54Z</time>
      </trkpt>
      <trkpt lat="37.304172031581402" lon="-8.38986799120903">
        <ele>285.17000000000002</ele>
        <time>2025-05-07T09:56:55Z</time>
      </trkpt>
      <trkpt lat="37.304056026041508" lon="-8.389906967058778">
        <ele>287.56999999999999</ele>
        <time>2025-05-07T09:56:56Z</time>
      </trkpt>
      <trkpt lat="37.303973967209458" lon="-8.390011992305517">
        <ele>289.97000000000003</ele>
        <time>2025-05-07T09:56:57Z</time>
      </trkpt>
      <trkpt lat="37.303900960832834" lon="-8.390123974531889">
        <ele>291.89999999999998</ele>
        <time>2025-05-07T09:56:58Z</time>
      </trkpt>
      <trkpt lat="37.303870031610131" lon="-8.390269987285137">
        <ele>293.81999999999999</ele>
        <time>2025-05-07T09:56:59Z</time>
      </trkpt>
      <trkpt lat="37.303843963891268" lon="-8.390436032786965">
        <ele>295.25999999999999</ele>
        <time>2025-05-07T09:57:00Z</time>
      </trkpt>
      <trkpt lat="37.303854022175074" lon="-8.390606017783284">
        <ele>297.18000000000001</ele>
        <time>2025-05-07T09:57:01Z</time>
      </trkpt>
      <trkpt lat="37.303862990811467" lon="-8.390743983909488">
        <ele>298.63</ele>
        <time>2025-05-07T09:57:02Z</time>
      </trkpt>
      <trkpt lat="37.303926022723317" lon="-8.390900976955891">
        <ele>300.06999999999999</ele>
        <time>2025-05-07T09:57:03Z</time>
      </trkpt>
      <trkpt lat="37.304006991907954" lon="-8.391016982495785">
        <ele>301.50999999999999</ele>
        <time>2025-05-07T09:57:04Z</time>
      </trkpt>
      <trkpt lat="37.304159961640835" lon="-8.391213035210967">
        <ele>303.43000000000001</ele>
        <time>2025-05-07T09:57:06Z</time>
      </trkpt>
      <trkpt lat="37.304196003824472" lon="-8.391331974416971">
        <ele>304.38999999999999</ele>
        <time>2025-05-07T09:57:07Z</time>
      </trkpt>
      <trkpt lat="37.304176976904273" lon="-8.391444962471724">
        <ele>304.88</ele>
        <time>2025-05-07T09:57:08Z</time>
      </trkpt>
      <trkpt lat="37.304130960255861" lon="-8.391571026295424">
        <ele>305.83999999999997</ele>
        <time>2025-05-07T09:57:09Z</time>
      </trkpt>
      <trkpt lat="37.304078992456198" lon="-8.391713015735149">
        <ele>306.31999999999999</ele>
        <time>2025-05-07T09:57:10Z</time>
      </trkpt>
      <trkpt lat="37.303899032995105" lon="-8.392205033451319">
        <ele>306.80000000000001</ele>
        <time>2025-05-07T09:57:13Z</time>
      </trkpt>
      <trkpt lat="37.303858967497945" lon="-8.392407959327102">
        <ele>307.27999999999997</ele>
        <time>2025-05-07T09:57:14Z</time>
      </trkpt>
      <trkpt lat="37.3038250207901" lon="-8.392623960971832">
        <ele>307.27999999999997</ele>
        <time>2025-05-07T09:57:15Z</time>
      </trkpt>
      <trkpt lat="37.303528971970081" lon="-8.394373012706637">
        <ele>308.24000000000001</ele>
        <time>2025-05-07T09:57:23Z</time>
      </trkpt>
      <trkpt lat="37.303315987810493" lon="-8.395542958751321">
        <ele>305.36000000000001</ele>
        <time>2025-05-07T09:57:29Z</time>
      </trkpt>
      <trkpt lat="37.303283968940377" lon="-8.395719984546304">
        <ele>304.38999999999999</ele>
        <time>2025-05-07T09:57:30Z</time>
      </trkpt>
      <trkpt lat="37.303317999467254" lon="-8.395898016169667">
        <ele>303.91000000000003</ele>
        <time>2025-05-07T09:57:31Z</time>
      </trkpt>
      <trkpt lat="37.303350018337369" lon="-8.396060960367322">
        <ele>302.94999999999999</ele>
        <time>2025-05-07T09:57:32Z</time>
      </trkpt>
      <trkpt lat="37.303382959216833" lon="-8.396228011697531">
        <ele>301.99000000000001</ele>
        <time>2025-05-07T09:57:33Z</time>
      </trkpt>
      <trkpt lat="37.303414978086948" lon="-8.396393973380327">
        <ele>300.55000000000001</ele>
        <time>2025-05-07T09:57:34Z</time>
      </trkpt>
      <trkpt lat="37.303445991128683" lon="-8.396552978083491">
        <ele>299.58999999999997</ele>
        <time>2025-05-07T09:57:35Z</time>
      </trkpt>
      <trkpt lat="37.303473986685276" lon="-8.396696979179978">
        <ele>298.14999999999998</ele>
        <time>2025-05-07T09:57:36Z</time>
      </trkpt>
      <trkpt lat="37.303426964208484" lon="-8.396824970841408">
        <ele>297.18000000000001</ele>
        <time>2025-05-07T09:57:37Z</time>
      </trkpt>
      <trkpt lat="37.303376002237201" lon="-8.396943993866444">
        <ele>295.74000000000001</ele>
        <time>2025-05-07T09:57:38Z</time>
      </trkpt>
      <trkpt lat="37.303297966718674" lon="-8.397041978314519">
        <ele>295.25999999999999</ele>
        <time>2025-05-07T09:57:39Z</time>
      </trkpt>
      <trkpt lat="37.30318003334105" lon="-8.397121019661427">
        <ele>294.77999999999997</ele>
        <time>2025-05-07T09:57:40Z</time>
      </trkpt>
      <trkpt lat="37.303054975345731" lon="-8.397201988846064">
        <ele>294.30000000000001</ele>
        <time>2025-05-07T09:57:41Z</time>
      </trkpt>
      <trkpt lat="37.302497997879982" lon="-8.397518992424011">
        <ele>294.77999999999997</ele>
        <time>2025-05-07T09:57:45Z</time>
      </trkpt>
      <trkpt lat="37.302396995946765" lon="-8.397668022662401">
        <ele>295.25999999999999</ele>
        <time>2025-05-07T09:57:46Z</time>
      </trkpt>
      <trkpt lat="37.302292976528406" lon="-8.397828033193946">
        <ele>296.22000000000003</ele>
        <time>2025-05-07T09:57:47Z</time>
      </trkpt>
      <trkpt lat="37.302207984030247" lon="-8.398011010140181">
        <ele>297.18000000000001</ele>
        <time>2025-05-07T09:57:48Z</time>
      </trkpt>
      <trkpt lat="37.302135983482003" lon="-8.398203039541841">
        <ele>298.14999999999998</ele>
        <time>2025-05-07T09:57:49Z</time>
      </trkpt>
      <trkpt lat="37.302011009305716" lon="-8.398537980392575">
        <ele>299.58999999999997</ele>
        <time>2025-05-07T09:57:51Z</time>
      </trkpt>
      <trkpt lat="37.30195501819253" lon="-8.398687010630965">
        <ele>300.06999999999999</ele>
        <time>2025-05-07T09:57:52Z</time>
      </trkpt>
      <trkpt lat="37.301837000995874" lon="-8.398808967322111">
        <ele>300.55000000000001</ele>
        <time>2025-05-07T09:57:53Z</time>
      </trkpt>
      <trkpt lat="37.301705991849303" lon="-8.398892031982541">
        <ele>301.02999999999997</ele>
        <time>2025-05-07T09:57:54Z</time>
      </trkpt>
      <trkpt lat="37.301557967439294" lon="-8.398970989510417">
        <ele>301.50999999999999</ele>
        <time>2025-05-07T09:57:55Z</time>
      </trkpt>
      <trkpt lat="37.301404997706413" lon="-8.399035027250648">
        <ele>301.99000000000001</ele>
        <time>2025-05-07T09:57:56Z</time>
      </trkpt>
      <trkpt lat="37.301039965823293" lon="-8.399232001975179">
        <ele>304.38999999999999</ele>
        <time>2025-05-07T09:57:59Z</time>
      </trkpt>
      <trkpt lat="37.300972994416952" lon="-8.399323029443622">
        <ele>305.36000000000001</ele>
        <time>2025-05-07T09:58:00Z</time>
      </trkpt>
      <trkpt lat="37.30092697776854" lon="-8.399444986134768">
        <ele>306.31999999999999</ele>
        <time>2025-05-07T09:58:01Z</time>
      </trkpt>
      <trkpt lat="37.30075104162097" lon="-8.400327013805509">
        <ele>310.63999999999999</ele>
        <time>2025-05-07T09:58:07Z</time>
      </trkpt>
      <trkpt lat="37.30073100887239" lon="-8.400465985760093">
        <ele>311.12</ele>
        <time>2025-05-07T09:58:08Z</time>
      </trkpt>
      <trkpt lat="37.300779037177563" lon="-8.400595989078283">
        <ele>311.60000000000002</ele>
        <time>2025-05-07T09:58:09Z</time>
      </trkpt>
      <trkpt lat="37.300965031608939" lon="-8.401095969602466">
        <ele>312.08999999999997</ele>
        <time>2025-05-07T09:58:12Z</time>
      </trkpt>
      <trkpt lat="37.301024040207267" lon="-8.401290010660887">
        <ele>312.08999999999997</ele>
        <time>2025-05-07T09:58:13Z</time>
      </trkpt>
      <trkpt lat="37.301522009074688" lon="-8.403844982385635">
        <ele>307.27999999999997</ele>
        <time>2025-05-07T09:58:25Z</time>
      </trkpt>
      <trkpt lat="37.301601972430944" lon="-8.404028965160251">
        <ele>307.27999999999997</ele>
        <time>2025-05-07T09:58:26Z</time>
      </trkpt>
      <trkpt lat="37.302520964294672" lon="-8.406076999381185">
        <ele>300.55000000000001</ele>
        <time>2025-05-07T09:58:36Z</time>
      </trkpt>
      <trkpt lat="37.303259996697307" lon="-8.407346019521356">
        <ele>292.86000000000001</ele>
        <time>2025-05-07T09:58:43Z</time>
      </trkpt>
      <trkpt lat="37.303403997793794" lon="-8.40746202506125">
        <ele>291.89999999999998</ele>
        <time>2025-05-07T09:58:44Z</time>
      </trkpt>
      <trkpt lat="37.303551016375422" lon="-8.407579958438873">
        <ele>290.94</ele>
        <time>2025-05-07T09:58:45Z</time>
      </trkpt>
      <trkpt lat="37.304935036227107" lon="-8.408826012164354">
        <ele>283.73000000000002</ele>
        <time>2025-05-07T09:58:55Z</time>
      </trkpt>
      <trkpt lat="37.305002007633448" lon="-8.408986022695899">
        <ele>282.76999999999998</ele>
        <time>2025-05-07T09:58:56Z</time>
      </trkpt>
      <trkpt lat="37.305069984868169" lon="-8.409147961065173">
        <ele>282.27999999999997</ele>
        <time>2025-05-07T09:58:57Z</time>
      </trkpt>
      <trkpt lat="37.305257990956306" lon="-8.409871989861131">
        <ele>277.95999999999998</ele>
        <time>2025-05-07T09:59:01Z</time>
      </trkpt>
      <trkpt lat="37.305270982906222" lon="-8.410066030919552">
        <ele>277</ele>
        <time>2025-05-07T09:59:02Z</time>
      </trkpt>
      <trkpt lat="37.305248016491532" lon="-8.410269962623715">
        <ele>276.04000000000002</ele>
        <time>2025-05-07T09:59:03Z</time>
      </trkpt>
      <trkpt lat="37.305204011499882" lon="-8.410467021167278">
        <ele>275.06999999999999</ele>
        <time>2025-05-07T09:59:04Z</time>
      </trkpt>
      <trkpt lat="37.305132010951638" lon="-8.410667013376951">
        <ele>274.58999999999997</ele>
        <time>2025-05-07T09:59:05Z</time>
      </trkpt>
      <trkpt lat="37.305055987089872" lon="-8.410873962566257">
        <ele>274.11000000000001</ele>
        <time>2025-05-07T09:59:06Z</time>
      </trkpt>
      <trkpt lat="37.304475959390402" lon="-8.41257699765265">
        <ele>273.14999999999998</ele>
        <time>2025-05-07T09:59:14Z</time>
      </trkpt>
      <trkpt lat="37.304442012682557" lon="-8.412800040096045">
        <ele>272.67000000000002</ele>
        <time>2025-05-07T09:59:15Z</time>
      </trkpt>
      <trkpt lat="37.304442012682557" lon="-8.413032973185182">
        <ele>272.67000000000002</ele>
        <time>2025-05-07T09:59:16Z</time>
      </trkpt>
      <trkpt lat="37.304442012682557" lon="-8.413269007578492">
        <ele>272.67000000000002</ele>
        <time>2025-05-07T09:59:17Z</time>
      </trkpt>
      <trkpt lat="37.304450981318951" lon="-8.413506969809532">
        <ele>272.67000000000002</ele>
        <time>2025-05-07T09:59:18Z</time>
      </trkpt>
      <trkpt lat="37.304609986022115" lon="-8.414987968280911">
        <ele>275.56</ele>
        <time>2025-05-07T09:59:25Z</time>
      </trkpt>
      <trkpt lat="37.304585007950664" lon="-8.415127024054527">
        <ele>276.04000000000002</ele>
        <time>2025-05-07T09:59:26Z</time>
      </trkpt>
      <trkpt lat="37.304542008787394" lon="-8.415234982967377">
        <ele>276.04000000000002</ele>
        <time>2025-05-07T09:59:27Z</time>
      </trkpt>
      <trkpt lat="37.304456010460854" lon="-8.415319975465536">
        <ele>276.04000000000002</ele>
        <time>2025-05-07T09:59:28Z</time>
      </trkpt>
      <trkpt lat="37.304361965507269" lon="-8.415402034297586">
        <ele>275.56</ele>
        <time>2025-05-07T09:59:29Z</time>
      </trkpt>
      <trkpt lat="37.304231040179729" lon="-8.415428018197417">
        <ele>275.06999999999999</ele>
        <time>2025-05-07T09:59:30Z</time>
      </trkpt>
      <trkpt lat="37.304082009941339" lon="-8.415459031239152">
        <ele>274.58999999999997</ele>
        <time>2025-05-07T09:59:31Z</time>
      </trkpt>
      <trkpt lat="37.303120018914342" lon="-8.41569397598505">
        <ele>266.89999999999998</ele>
        <time>2025-05-07T09:59:37Z</time>
      </trkpt>
      <trkpt lat="37.302974006161094" lon="-8.415791038423777">
        <ele>264.98000000000002</ele>
        <time>2025-05-07T09:59:38Z</time>
      </trkpt>
      <trkpt lat="37.30283796787262" lon="-8.415917018428445">
        <ele>263.54000000000002</ele>
        <time>2025-05-07T09:59:39Z</time>
      </trkpt>
      <trkpt lat="37.302725985646248" lon="-8.416021037846804">
        <ele>262.10000000000002</ele>
        <time>2025-05-07T09:59:40Z</time>
      </trkpt>
      <trkpt lat="37.302630012854934" lon="-8.416231004521251">
        <ele>260.64999999999998</ele>
        <time>2025-05-07T09:59:41Z</time>
      </trkpt>
      <trkpt lat="37.302585002034903" lon="-8.416408030316234">
        <ele>259.69</ele>
        <time>2025-05-07T09:59:42Z</time>
      </trkpt>
      <trkpt lat="37.302544014528394" lon="-8.41659402474761">
        <ele>258.73000000000002</ele>
        <time>2025-05-07T09:59:43Z</time>
      </trkpt>
      <trkpt lat="37.302504032850266" lon="-8.416771972551942">
        <ele>258.25</ele>
        <time>2025-05-07T09:59:44Z</time>
      </trkpt>
      <trkpt lat="37.302446030080318" lon="-8.416925026103854">
        <ele>257.76999999999998</ele>
        <time>2025-05-07T09:59:45Z</time>
      </trkpt>
      <trkpt lat="37.302378974854946" lon="-8.417058968916535">
        <ele>257.29000000000002</ele>
        <time>2025-05-07T09:59:46Z</time>
      </trkpt>
      <trkpt lat="37.302274033427238" lon="-8.41715301387012">
        <ele>257.29000000000002</ele>
        <time>2025-05-07T09:59:47Z</time>
      </trkpt>
      <trkpt lat="37.302148975431919" lon="-8.417237000539899">
        <ele>257.76999999999998</ele>
        <time>2025-05-07T09:59:48Z</time>
      </trkpt>
      <trkpt lat="37.302016960456967" lon="-8.417327022179961">
        <ele>257.76999999999998</ele>
        <time>2025-05-07T09:59:49Z</time>
      </trkpt>
      <trkpt lat="37.301630973815918" lon="-8.417587028816342">
        <ele>256.81</ele>
        <time>2025-05-07T09:59:52Z</time>
      </trkpt>
      <trkpt lat="37.30150499381125" lon="-8.417745027691126">
        <ele>256.32999999999998</ele>
        <time>2025-05-07T09:59:53Z</time>
      </trkpt>
      <trkpt lat="37.30139996856451" lon="-8.417876036837697">
        <ele>256.32999999999998</ele>
        <time>2025-05-07T09:59:54Z</time>
      </trkpt>
      <trkpt lat="37.301326040178537" lon="-8.418032024055719">
        <ele>255.84999999999999</ele>
        <time>2025-05-07T09:59:55Z</time>
      </trkpt>
      <trkpt lat="37.301256973296404" lon="-8.418207038193941">
        <ele>255.84999999999999</ele>
        <time>2025-05-07T09:59:56Z</time>
      </trkpt>
      <trkpt lat="37.301186984404922" lon="-8.418388003483415">
        <ele>255.37</ele>
        <time>2025-05-07T09:59:57Z</time>
      </trkpt>
      <trkpt lat="37.301135016605258" lon="-8.418582966551185">
        <ele>255.37</ele>
        <time>2025-05-07T09:59:58Z</time>
      </trkpt>
      <trkpt lat="37.301082964986563" lon="-8.418783964589238">
        <ele>255.37</ele>
        <time>2025-05-07T09:59:59Z</time>
      </trkpt>
      <trkpt lat="37.30047301389277" lon="-8.420327994972467">
        <ele>256.81</ele>
        <time>2025-05-07T10:00:07Z</time>
      </trkpt>
      <trkpt lat="37.299995999783278" lon="-8.420980023220182">
        <ele>259.20999999999998</ele>
        <time>2025-05-07T10:00:11Z</time>
      </trkpt>
      <trkpt lat="37.299849987030029" lon="-8.421099968254566">
        <ele>260.64999999999998</ele>
        <time>2025-05-07T10:00:12Z</time>
      </trkpt>
      <trkpt lat="37.299696011468768" lon="-8.42119300737977">
        <ele>261.62</ele>
        <time>2025-05-07T10:00:13Z</time>
      </trkpt>
      <trkpt lat="37.29952996596694" lon="-8.421245981007814">
        <ele>263.06</ele>
        <time>2025-05-07T10:00:14Z</time>
      </trkpt>
      <trkpt lat="37.299368027597666" lon="-8.42129803262651">
        <ele>264.01999999999998</ele>
        <time>2025-05-07T10:00:15Z</time>
      </trkpt>
      <trkpt lat="37.299073990434408" lon="-8.421414038166404">
        <ele>266.42000000000002</ele>
        <time>2025-05-07T10:00:17Z</time>
      </trkpt>
      <trkpt lat="37.298949016258121" lon="-8.421496013179421">
        <ele>267.38</ele>
        <time>2025-05-07T10:00:18Z</time>
      </trkpt>
      <trkpt lat="37.298839967697859" lon="-8.421619981527329">
        <ele>268.35000000000002</ele>
        <time>2025-05-07T10:00:19Z</time>
      </trkpt>
      <trkpt lat="37.298401007428765" lon="-8.422219036146998">
        <ele>272.67000000000002</ele>
        <time>2025-05-07T10:00:23Z</time>
      </trkpt>
      <trkpt lat="37.298304028809071" lon="-8.422404024749994">
        <ele>273.14999999999998</ele>
        <time>2025-05-07T10:00:24Z</time>
      </trkpt>
      <trkpt lat="37.298095989972353" lon="-8.423022022470832">
        <ele>274.11000000000001</ele>
        <time>2025-05-07T10:00:27Z</time>
      </trkpt>
      <trkpt lat="37.29804502800107" lon="-8.423220003023744">
        <ele>274.11000000000001</ele>
        <time>2025-05-07T10:00:28Z</time>
      </trkpt>
      <trkpt lat="37.29802499525249" lon="-8.423428041860461">
        <ele>274.11000000000001</ele>
        <time>2025-05-07T10:00:29Z</time>
      </trkpt>
      <trkpt lat="37.29800496250391" lon="-8.423635996878147">
        <ele>274.11000000000001</ele>
        <time>2025-05-07T10:00:30Z</time>
      </trkpt>
      <trkpt lat="37.298015020787716" lon="-8.423848981037736">
        <ele>274.11000000000001</ele>
        <time>2025-05-07T10:00:31Z</time>
      </trkpt>
      <trkpt lat="37.298026001080871" lon="-8.424073029309511">
        <ele>273.63</ele>
        <time>2025-05-07T10:00:32Z</time>
      </trkpt>
      <trkpt lat="37.298037987202406" lon="-8.424303028732538">
        <ele>273.14999999999998</ele>
        <time>2025-05-07T10:00:33Z</time>
      </trkpt>
      <trkpt lat="37.298066988587379" lon="-8.424960002303124">
        <ele>270.26999999999998</ele>
        <time>2025-05-07T10:00:36Z</time>
      </trkpt>
      <trkpt lat="37.298018960282207" lon="-8.425164017826319">
        <ele>269.31</ele>
        <time>2025-05-07T10:00:37Z</time>
      </trkpt>
      <trkpt lat="37.297958023846149" lon="-8.425369039177895">
        <ele>268.35000000000002</ele>
        <time>2025-05-07T10:00:38Z</time>
      </trkpt>
      <trkpt lat="37.297868002206087" lon="-8.425569031387568">
        <ele>266.89999999999998</ele>
        <time>2025-05-07T10:00:39Z</time>
      </trkpt>
      <trkpt lat="37.297772029414773" lon="-8.42576801776886">
        <ele>265.94</ele>
        <time>2025-05-07T10:00:40Z</time>
      </trkpt>
      <trkpt lat="37.297648983076215" lon="-8.425943031907082">
        <ele>264.98000000000002</ele>
        <time>2025-05-07T10:00:41Z</time>
      </trkpt>
      <trkpt lat="37.297500958666205" lon="-8.426094995811582">
        <ele>264.01999999999998</ele>
        <time>2025-05-07T10:00:42Z</time>
      </trkpt>
      <trkpt lat="37.297345977276564" lon="-8.426249977201223">
        <ele>263.06</ele>
        <time>2025-05-07T10:00:43Z</time>
      </trkpt>
      <trkpt lat="37.297168029472232" lon="-8.426376963034272">
        <ele>262.10000000000002</ele>
        <time>2025-05-07T10:00:44Z</time>
      </trkpt>
      <trkpt lat="37.296266974881291" lon="-8.4269730001688">
        <ele>258.25</ele>
        <time>2025-05-07T10:00:49Z</time>
      </trkpt>
      <trkpt lat="37.296085003763437" lon="-8.427042989060283">
        <ele>257.76999999999998</ele>
        <time>2025-05-07T10:00:50Z</time>
      </trkpt>
      <trkpt lat="37.295899009332061" lon="-8.427061010152102">
        <ele>257.29000000000002</ele>
        <time>2025-05-07T10:00:51Z</time>
      </trkpt>
      <trkpt lat="37.29570597410202" lon="-8.427040977403522">
        <ele>257.29000000000002</ele>
        <time>2025-05-07T10:00:52Z</time>
      </trkpt>
      <trkpt lat="37.295508999377489" lon="-8.427008958533406">
        <ele>256.81</ele>
        <time>2025-05-07T10:00:53Z</time>
      </trkpt>
      <trkpt lat="37.295310012996197" lon="-8.42695296742022">
        <ele>256.81</ele>
        <time>2025-05-07T10:00:54Z</time>
      </trkpt>
      <trkpt lat="37.293708985671401" lon="-8.426717016845942">
        <ele>258.25</ele>
        <time>2025-05-07T10:01:02Z</time>
      </trkpt>
      <trkpt lat="37.291075978428125" lon="-8.426809972152114">
        <ele>260.64999999999998</ele>
        <time>2025-05-07T10:01:15Z</time>
      </trkpt>
      <trkpt lat="37.290710024535656" lon="-8.426879039034247">
        <ele>260.64999999999998</ele>
        <time>2025-05-07T10:01:17Z</time>
      </trkpt>
      <trkpt lat="37.290517995133996" lon="-8.426933018490672">
        <ele>260.64999999999998</ele>
        <time>2025-05-07T10:01:18Z</time>
      </trkpt>
      <trkpt lat="37.290322026237845" lon="-8.426986997947097">
        <ele>260.17000000000002</ele>
        <time>2025-05-07T10:01:19Z</time>
      </trkpt>
      <trkpt lat="37.290136031806469" lon="-8.427052041515708">
        <ele>259.69</ele>
        <time>2025-05-07T10:01:20Z</time>
      </trkpt>
      <trkpt lat="37.289966968819499" lon="-8.427158994600177">
        <ele>258.73000000000002</ele>
        <time>2025-05-07T10:01:21Z</time>
      </trkpt>
      <trkpt lat="37.289801007136703" lon="-8.427264019846916">
        <ele>258.25</ele>
        <time>2025-05-07T10:01:22Z</time>
      </trkpt>
      <trkpt lat="37.289673015475273" lon="-8.427419001236558">
        <ele>257.29000000000002</ele>
        <time>2025-05-07T10:01:23Z</time>
      </trkpt>
      <trkpt lat="37.289548041298985" lon="-8.427598038688302">
        <ele>256.32999999999998</ele>
        <time>2025-05-07T10:01:24Z</time>
      </trkpt>
      <trkpt lat="37.289421977475286" lon="-8.427779003977776">
        <ele>255.37</ele>
        <time>2025-05-07T10:01:25Z</time>
      </trkpt>
      <trkpt lat="37.289124000817537" lon="-8.428381998091936">
        <ele>251.52000000000001</ele>
        <time>2025-05-07T10:01:28Z</time>
      </trkpt>
      <trkpt lat="37.28904596529901" lon="-8.428585007786751">
        <ele>250.08000000000001</ele>
        <time>2025-05-07T10:01:29Z</time>
      </trkpt>
      <trkpt lat="37.288820995017886" lon="-8.429175009950995">
        <ele>246.72</ele>
        <time>2025-05-07T10:01:32Z</time>
      </trkpt>
      <trkpt lat="37.288685962557793" lon="-8.429350024089217">
        <ele>245.27000000000001</ele>
        <time>2025-05-07T10:01:33Z</time>
      </trkpt>
      <trkpt lat="37.288555037230253" lon="-8.429499976336956">
        <ele>244.78999999999999</ele>
        <time>2025-05-07T10:01:34Z</time>
      </trkpt>
      <trkpt lat="37.288416987285018" lon="-8.429626040160656">
        <ele>243.83000000000001</ele>
        <time>2025-05-07T10:01:35Z</time>
      </trkpt>
      <trkpt lat="37.288269968703389" lon="-8.429702986031771">
        <ele>242.87</ele>
        <time>2025-05-07T10:01:36Z</time>
      </trkpt>
      <trkpt lat="37.28812001645565" lon="-8.429755959659815">
        <ele>241.91</ele>
        <time>2025-05-07T10:01:37Z</time>
      </trkpt>
      <trkpt lat="37.28797098621726" lon="-8.42980801127851">
        <ele>240.94999999999999</ele>
        <time>2025-05-07T10:01:38Z</time>
      </trkpt>
      <trkpt lat="37.287810975685716" lon="-8.429817985743284">
        <ele>239.50999999999999</ele>
        <time>2025-05-07T10:01:39Z</time>
      </trkpt>
      <trkpt lat="37.287683989852667" lon="-8.429817985743284">
        <ele>238.53999999999999</ele>
        <time>2025-05-07T10:01:40Z</time>
      </trkpt>
      <trkpt lat="37.287499001249671" lon="-8.429736010730267">
        <ele>238.06</ele>
        <time>2025-05-07T10:01:41Z</time>
      </trkpt>
      <trkpt lat="37.287330022081733" lon="-8.429659986868501">
        <ele>236.62</ele>
        <time>2025-05-07T10:01:42Z</time>
      </trkpt>
      <trkpt lat="37.286188993602991" lon="-8.429233012720943">
        <ele>229.41</ele>
        <time>2025-05-07T10:01:48Z</time>
      </trkpt>
      <trkpt lat="37.285893028602004" lon="-8.429264025762677">
        <ele>226.05000000000001</ele>
        <time>2025-05-07T10:01:50Z</time>
      </trkpt>
      <trkpt lat="37.285752967000008" lon="-8.429324962198734">
        <ele>224.12</ele>
        <time>2025-05-07T10:01:51Z</time>
      </trkpt>
      <trkpt lat="37.285661017522216" lon="-8.429429987445474">
        <ele>222.68000000000001</ele>
        <time>2025-05-07T10:01:52Z</time>
      </trkpt>
      <trkpt lat="37.285192972049117" lon="-8.430067012086511">
        <ele>214.99000000000001</ele>
        <time>2025-05-07T10:01:56Z</time>
      </trkpt>
      <trkpt lat="37.285123988986015" lon="-8.430232973769307">
        <ele>213.06999999999999</ele>
        <time>2025-05-07T10:01:57Z</time>
      </trkpt>
      <trkpt lat="37.285098005086184" lon="-8.430393990129232">
        <ele>211.63</ele>
        <time>2025-05-07T10:01:58Z</time>
      </trkpt>
      <trkpt lat="37.285122983157635" lon="-8.430546037852764">
        <ele>209.69999999999999</ele>
        <time>2025-05-07T10:01:59Z</time>
      </trkpt>
      <trkpt lat="37.285149972885847" lon="-8.43071099370718">
        <ele>208.25999999999999</ele>
        <time>2025-05-07T10:02:00Z</time>
      </trkpt>
      <trkpt lat="37.285176040604711" lon="-8.430865975096822">
        <ele>206.81999999999999</ele>
        <time>2025-05-07T10:02:01Z</time>
      </trkpt>
      <trkpt lat="37.285208981484175" lon="-8.431166969239712">
        <ele>202.97999999999999</ele>
        <time>2025-05-07T10:02:04Z</time>
      </trkpt>
      <trkpt lat="37.285199007019401" lon="-8.431247016415">
        <ele>202.00999999999999</ele>
        <time>2025-05-07T10:02:05Z</time>
      </trkpt>
      <trkpt lat="37.285163970664144" lon="-8.431291021406651">
        <ele>200.56999999999999</ele>
        <time>2025-05-07T10:02:06Z</time>
      </trkpt>
      <trkpt lat="37.285096999257803" lon="-8.431321028620005">
        <ele>199.61000000000001</ele>
        <time>2025-05-07T10:02:07Z</time>
      </trkpt>
      <trkpt lat="37.284993985667825" lon="-8.431358998641372">
        <ele>198.65000000000001</ele>
        <time>2025-05-07T10:02:08Z</time>
      </trkpt>
      <trkpt lat="37.28487404063344" lon="-8.431299990043044">
        <ele>197.69</ele>
        <time>2025-05-07T10:02:09Z</time>
      </trkpt>
      <trkpt lat="37.284728027880192" lon="-8.43122698366642">
        <ele>196.25</ele>
        <time>2025-05-07T10:02:10Z</time>
      </trkpt>
      <trkpt lat="37.284570029005408" lon="-8.431147020310164">
        <ele>194.80000000000001</ele>
        <time>2025-05-07T10:02:11Z</time>
      </trkpt>
      <trkpt lat="37.284400966018438" lon="-8.431063033640385">
        <ele>193.36000000000001</ele>
        <time>2025-05-07T10:02:12Z</time>
      </trkpt>
      <trkpt lat="37.284226035699248" lon="-8.431049035862088">
        <ele>191.91999999999999</ele>
        <time>2025-05-07T10:02:13Z</time>
      </trkpt>
      <trkpt lat="37.284049009904265" lon="-8.431051969528198">
        <ele>190.47999999999999</ele>
        <time>2025-05-07T10:02:14Z</time>
      </trkpt>
      <trkpt lat="37.283883970230818" lon="-8.431078037247062">
        <ele>188.56</ele>
        <time>2025-05-07T10:02:15Z</time>
      </trkpt>
      <trkpt lat="37.28373896330595" lon="-8.431151965633035">
        <ele>186.63</ele>
        <time>2025-05-07T10:02:16Z</time>
      </trkpt>
      <trkpt lat="37.283593034371734" lon="-8.431246010586619">
        <ele>184.71000000000001</ele>
        <time>2025-05-07T10:02:17Z</time>
      </trkpt>
      <trkpt lat="37.28343796916306" lon="-8.431362016126514">
        <ele>182.78999999999999</ele>
        <time>2025-05-07T10:02:18Z</time>
      </trkpt>
      <trkpt lat="37.282380005344748" lon="-8.432591976597905">
        <ele>172.69</ele>
        <time>2025-05-07T10:02:25Z</time>
      </trkpt>
      <trkpt lat="37.28156796656549" lon="-8.433379959315062">
        <ele>167.41</ele>
        <time>2025-05-07T10:02:30Z</time>
      </trkpt>
      <trkpt lat="37.281441986560822" lon="-8.433580035343766">
        <ele>165.96000000000001</ele>
        <time>2025-05-07T10:02:31Z</time>
      </trkpt>
      <trkpt lat="37.281325981020927" lon="-8.433763012290001">
        <ele>165.47999999999999</ele>
        <time>2025-05-07T10:02:32Z</time>
      </trkpt>
      <trkpt lat="37.2810959815979" lon="-8.43412603251636">
        <ele>163.56</ele>
        <time>2025-05-07T10:02:34Z</time>
      </trkpt>
      <trkpt lat="37.280962038785219" lon="-8.434293000027537">
        <ele>162.59999999999999</ele>
        <time>2025-05-07T10:02:35Z</time>
      </trkpt>
      <trkpt lat="37.280801022425294" lon="-8.434402970597148">
        <ele>162.12</ele>
        <time>2025-05-07T10:02:36Z</time>
      </trkpt>
      <trkpt lat="37.280637994408607" lon="-8.434515036642551">
        <ele>161.16</ele>
        <time>2025-05-07T10:02:37Z</time>
      </trkpt>
      <trkpt lat="37.280460968613625" lon="-8.434616038575769">
        <ele>160.68000000000001</ele>
        <time>2025-05-07T10:02:38Z</time>
      </trkpt>
      <trkpt lat="37.278430033475161" lon="-8.435577023774386">
        <ele>156.34999999999999</ele>
        <time>2025-05-07T10:02:48Z</time>
      </trkpt>
      <trkpt lat="37.276997985318303" lon="-8.43616995960474">
        <ele>154.43000000000001</ele>
        <time>2025-05-07T10:02:55Z</time>
      </trkpt>
      <trkpt lat="37.274772003293037" lon="-8.436542032286525">
        <ele>151.53999999999999</ele>
        <time>2025-05-07T10:03:06Z</time>
      </trkpt>
      <trkpt lat="37.27460503578186" lon="-8.436569022014737">
        <ele>151.06</ele>
        <time>2025-05-07T10:03:07Z</time>
      </trkpt>
      <trkpt lat="37.274431027472019" lon="-8.436556030064821">
        <ele>150.58000000000001</ele>
        <time>2025-05-07T10:03:08Z</time>
      </trkpt>
      <trkpt lat="37.274249978363514" lon="-8.43651101924479">
        <ele>150.58000000000001</ele>
        <time>2025-05-07T10:03:09Z</time>
      </trkpt>
      <trkpt lat="37.273547993972898" lon="-8.436284037306905">
        <ele>150.09999999999999</ele>
        <time>2025-05-07T10:03:13Z</time>
      </trkpt>
      <trkpt lat="37.272463040426373" lon="-8.436312032863498">
        <ele>148.18000000000001</ele>
        <time>2025-05-07T10:03:20Z</time>
      </trkpt>
      <trkpt lat="37.272314010187984" lon="-8.436344973742962">
        <ele>147.69999999999999</ele>
        <time>2025-05-07T10:03:21Z</time>
      </trkpt>
      <trkpt lat="37.272167997434735" lon="-8.436399959027767">
        <ele>147.69999999999999</ele>
        <time>2025-05-07T10:03:22Z</time>
      </trkpt>
      <trkpt lat="37.272019973024726" lon="-8.43649098649621">
        <ele>147.69999999999999</ele>
        <time>2025-05-07T10:03:23Z</time>
      </trkpt>
      <trkpt lat="37.271888041868806" lon="-8.436623001471162">
        <ele>147.69999999999999</ele>
        <time>2025-05-07T10:03:24Z</time>
      </trkpt>
      <trkpt lat="37.271749991923571" lon="-8.436761973425746">
        <ele>147.69999999999999</ele>
        <time>2025-05-07T10:03:25Z</time>
      </trkpt>
      <trkpt lat="37.27056697010994" lon="-8.437842987477779">
        <ele>147.69999999999999</ele>
        <time>2025-05-07T10:03:32Z</time>
      </trkpt>
      <trkpt lat="37.269960958510637" lon="-8.438387978821993">
        <ele>147.22</ele>
        <time>2025-05-07T10:03:36Z</time>
      </trkpt>
      <trkpt lat="37.269843025133014" lon="-8.438557963818312">
        <ele>146.74000000000001</ele>
        <time>2025-05-07T10:03:37Z</time>
      </trkpt>
      <trkpt lat="37.269734982401133" lon="-8.438761979341507">
        <ele>146.74000000000001</ele>
        <time>2025-05-07T10:03:38Z</time>
      </trkpt>
      <trkpt lat="37.269282024353743" lon="-8.439787002280355">
        <ele>145.78</ele>
        <time>2025-05-07T10:03:43Z</time>
      </trkpt>
      <trkpt lat="37.2691909968853" lon="-8.439946006983519">
        <ele>145.30000000000001</ele>
        <time>2025-05-07T10:03:44Z</time>
      </trkpt>
      <trkpt lat="37.269079014658928" lon="-8.440029993653297">
        <ele>144.81999999999999</ele>
        <time>2025-05-07T10:03:45Z</time>
      </trkpt>
      <trkpt lat="37.26895596832037" lon="-8.440086990594864">
        <ele>144.34</ele>
        <time>2025-05-07T10:03:46Z</time>
      </trkpt>
      <trkpt lat="37.268824959173799" lon="-8.440141975879669">
        <ele>144.34</ele>
        <time>2025-05-07T10:03:47Z</time>
      </trkpt>
      <trkpt lat="37.268669977784157" lon="-8.440165026113391">
        <ele>144.34</ele>
        <time>2025-05-07T10:03:48Z</time>
      </trkpt>
      <trkpt lat="37.268023984506726" lon="-8.440258987247944">
        <ele>143.37</ele>
        <time>2025-05-07T10:03:52Z</time>
      </trkpt>
      <trkpt lat="37.267915019765496" lon="-8.440309027209878">
        <ele>143.37</ele>
        <time>2025-05-07T10:03:53Z</time>
      </trkpt>
      <trkpt lat="37.267827009782195" lon="-8.440395025536418">
        <ele>143.37</ele>
        <time>2025-05-07T10:03:54Z</time>
      </trkpt>
      <trkpt lat="37.267770012840629" lon="-8.440523017197847">
        <ele>143.37</ele>
        <time>2025-05-07T10:03:55Z</time>
      </trkpt>
      <trkpt lat="37.267727013677359" lon="-8.440691996365786">
        <ele>142.88999999999999</ele>
        <time>2025-05-07T10:03:56Z</time>
      </trkpt>
      <trkpt lat="37.267692983150482" lon="-8.440882014110684">
        <ele>143.37</ele>
        <time>2025-05-07T10:03:57Z</time>
      </trkpt>
      <trkpt lat="37.267659036442637" lon="-8.44108996912837">
        <ele>142.88999999999999</ele>
        <time>2025-05-07T10:03:58Z</time>
      </trkpt>
      <trkpt lat="37.267349995672703" lon="-8.44321696087718">
        <ele>140.00999999999999</ele>
        <time>2025-05-07T10:04:07Z</time>
      </trkpt>
      <trkpt lat="37.267153020948172" lon="-8.444510037079454">
        <ele>138.56999999999999</ele>
        <time>2025-05-07T10:04:13Z</time>
      </trkpt>
      <trkpt lat="37.267092000693083" lon="-8.44469603151083">
        <ele>138.09</ele>
        <time>2025-05-07T10:04:14Z</time>
      </trkpt>
      <trkpt lat="37.267003990709782" lon="-8.444859981536865">
        <ele>138.09</ele>
        <time>2025-05-07T10:04:15Z</time>
      </trkpt>
      <trkpt lat="37.266899971291423" lon="-8.445010017603636">
        <ele>138.09</ele>
        <time>2025-05-07T10:04:16Z</time>
      </trkpt>
      <trkpt lat="37.26676401682198" lon="-8.445117976516485">
        <ele>138.09</ele>
        <time>2025-05-07T10:04:17Z</time>
      </trkpt>
      <trkpt lat="37.266609035432339" lon="-8.445213027298451">
        <ele>138.09</ele>
        <time>2025-05-07T10:04:18Z</time>
      </trkpt>
      <trkpt lat="37.26644198410213" lon="-8.445304976776242">
        <ele>137.61000000000001</ele>
        <time>2025-05-07T10:04:19Z</time>
      </trkpt>
      <trkpt lat="37.266259007155895" lon="-8.445375971496105">
        <ele>137.61000000000001</ele>
        <time>2025-05-07T10:04:20Z</time>
      </trkpt>
      <trkpt lat="37.264237962663174" lon="-8.446048032492399">
        <ele>137.13</ele>
        <time>2025-05-07T10:04:30Z</time>
      </trkpt>
      <trkpt lat="37.263618037104607" lon="-8.446081979200244">
        <ele>137.61000000000001</ele>
        <time>2025-05-07T10:04:33Z</time>
      </trkpt>
      <trkpt lat="37.263422990217805" lon="-8.446058006957173">
        <ele>137.61000000000001</ele>
        <time>2025-05-07T10:04:34Z</time>
      </trkpt>
      <trkpt lat="37.263238001614809" lon="-8.446011990308762">
        <ele>138.09</ele>
        <time>2025-05-07T10:04:35Z</time>
      </trkpt>
      <trkpt lat="37.263057036325336" lon="-8.445905959233642">
        <ele>137.61000000000001</ele>
        <time>2025-05-07T10:04:36Z</time>
      </trkpt>
      <trkpt lat="37.262873975560069" lon="-8.445778973400593">
        <ele>137.61000000000001</ele>
        <time>2025-05-07T10:04:37Z</time>
      </trkpt>
      <trkpt lat="37.261136993765831" lon="-8.444539038464427">
        <ele>136.16</ele>
        <time>2025-05-07T10:04:46Z</time>
      </trkpt>
      <trkpt lat="37.260806998237967" lon="-8.44422597438097">
        <ele>136.16</ele>
        <time>2025-05-07T10:04:48Z</time>
      </trkpt>
      <trkpt lat="37.260672971606255" lon="-8.444050960242748">
        <ele>136.16</ele>
        <time>2025-05-07T10:04:49Z</time>
      </trkpt>
      <trkpt lat="37.260559983551502" lon="-8.443863959982991">
        <ele>136.16</ele>
        <time>2025-05-07T10:04:50Z</time>
      </trkpt>
      <trkpt lat="37.260449007153511" lon="-8.443678971379995">
        <ele>136.16</ele>
        <time>2025-05-07T10:04:51Z</time>
      </trkpt>
      <trkpt lat="37.260371977463365" lon="-8.443473028019071">
        <ele>136.16</ele>
        <time>2025-05-07T10:04:52Z</time>
      </trkpt>
      <trkpt lat="37.260310035198927" lon="-8.443245040252805">
        <ele>136.63999999999999</ele>
        <time>2025-05-07T10:04:53Z</time>
      </trkpt>
      <trkpt lat="37.260265024378896" lon="-8.44300095923245">
        <ele>136.63999999999999</ele>
        <time>2025-05-07T10:04:54Z</time>
      </trkpt>
      <trkpt lat="37.260230993852019" lon="-8.442735001444817">
        <ele>137.13</ele>
        <time>2025-05-07T10:04:55Z</time>
      </trkpt>
      <trkpt lat="37.259949026629329" lon="-8.440499966964126">
        <ele>133.75999999999999</ele>
        <time>2025-05-07T10:05:03Z</time>
      </trkpt>
      <trkpt lat="37.259899992495775" lon="-8.440280025824904">
        <ele>133.28</ele>
        <time>2025-05-07T10:05:04Z</time>
      </trkpt>
      <trkpt lat="37.259844001382589" lon="-8.440084978938103">
        <ele>133.28</ele>
        <time>2025-05-07T10:05:05Z</time>
      </trkpt>
      <trkpt lat="37.259768983349204" lon="-8.439913988113403">
        <ele>133.28</ele>
        <time>2025-05-07T10:05:06Z</time>
      </trkpt>
      <trkpt lat="37.259657001122832" lon="-8.439767975360155">
        <ele>133.28</ele>
        <time>2025-05-07T10:05:07Z</time>
      </trkpt>
      <trkpt lat="37.259515011683106" lon="-8.439639983698726">
        <ele>133.75999999999999</ele>
        <time>2025-05-07T10:05:08Z</time>
      </trkpt>
      <trkpt lat="37.25935198366642" lon="-8.43954199925065">
        <ele>133.75999999999999</ele>
        <time>2025-05-07T10:05:09Z</time>
      </trkpt>
      <trkpt lat="37.259190967306495" lon="-8.439472010359168">
        <ele>134.24000000000001</ele>
        <time>2025-05-07T10:05:10Z</time>
      </trkpt>
      <trkpt lat="37.25902802310884" lon="-8.439425993710756">
        <ele>134.24000000000001</ele>
        <time>2025-05-07T10:05:11Z</time>
      </trkpt>
      <trkpt lat="37.258869018405676" lon="-8.439417025074363">
        <ele>134.72</ele>
        <time>2025-05-07T10:05:12Z</time>
      </trkpt>
      <trkpt lat="37.258720993995667" lon="-8.439428005367518">
        <ele>134.72</ele>
        <time>2025-05-07T10:05:13Z</time>
      </trkpt>
      <trkpt lat="37.258602976799011" lon="-8.43947502784431">
        <ele>135.19999999999999</ele>
        <time>2025-05-07T10:05:14Z</time>
      </trkpt>
      <trkpt lat="37.258504992350936" lon="-8.439534958451986">
        <ele>135.19999999999999</ele>
        <time>2025-05-07T10:05:15Z</time>
      </trkpt>
      <trkpt lat="37.258408013731241" lon="-8.439594972878695">
        <ele>135.68000000000001</ele>
        <time>2025-05-07T10:05:16Z</time>
      </trkpt>
      <trkpt lat="37.258314974606037" lon="-8.439652975648642">
        <ele>135.68000000000001</ele>
        <time>2025-05-07T10:05:17Z</time>
      </trkpt>
      <trkpt lat="37.25821397267282" lon="-8.439719025045633">
        <ele>135.19999999999999</ele>
        <time>2025-05-07T10:05:18Z</time>
      </trkpt>
      <trkpt lat="37.258025966584682" lon="-8.439907031133771">
        <ele>134.24000000000001</ele>
        <time>2025-05-07T10:05:20Z</time>
      </trkpt>
      <trkpt lat="37.257105968892574" lon="-8.440891988575459">
        <ele>125.59</ele>
        <time>2025-05-07T10:05:30Z</time>
      </trkpt>
      <trkpt lat="37.256692992523313" lon="-8.44125903211534">
        <ele>121.26000000000001</ele>
        <time>2025-05-07T10:05:34Z</time>
      </trkpt>
      <trkpt lat="37.256571035832167" lon="-8.441334972158074">
        <ele>120.3</ele>
        <time>2025-05-07T10:05:35Z</time>
      </trkpt>
      <trkpt lat="37.25520696491003" lon="-8.441981971263886">
        <ele>111.17</ele>
        <time>2025-05-07T10:05:44Z</time>
      </trkpt>
      <trkpt lat="37.254487965255976" lon="-8.442339040338993">
        <ele>107.81</ele>
        <time>2025-05-07T10:05:50Z</time>
      </trkpt>
      <trkpt lat="37.254386963322759" lon="-8.442426966503263">
        <ele>107.81</ele>
        <time>2025-05-07T10:05:51Z</time>
      </trkpt>
      <trkpt lat="37.254286967217922" lon="-8.442512964829803">
        <ele>107.81</ele>
        <time>2025-05-07T10:05:52Z</time>
      </trkpt>
      <trkpt lat="37.254197029396892" lon="-8.442630982026458">
        <ele>107.81</ele>
        <time>2025-05-07T10:05:53Z</time>
      </trkpt>
      <trkpt lat="37.254112958908081" lon="-8.442765008658171">
        <ele>107.81</ele>
        <time>2025-05-07T10:05:54Z</time>
      </trkpt>
      <trkpt lat="37.25402302108705" lon="-8.442906998097897">
        <ele>107.81</ele>
        <time>2025-05-07T10:05:55Z</time>
      </trkpt>
      <trkpt lat="37.253493033349514" lon="-8.443752983585">
        <ele>108.29000000000001</ele>
        <time>2025-05-07T10:06:01Z</time>
      </trkpt>
      <trkpt lat="37.253394965082407" lon="-8.44385901466012">
        <ele>108.29000000000001</ele>
        <time>2025-05-07T10:06:02Z</time>
      </trkpt>
      <trkpt lat="37.253280971199274" lon="-8.443947024643421">
        <ele>108.29000000000001</ele>
        <time>2025-05-07T10:06:03Z</time>
      </trkpt>
      <trkpt lat="37.253145016729832" lon="-8.443998992443085">
        <ele>108.29000000000001</ele>
        <time>2025-05-07T10:06:04Z</time>
      </trkpt>
      <trkpt lat="37.252995986491442" lon="-8.444049032405019">
        <ele>108.29000000000001</ele>
        <time>2025-05-07T10:06:05Z</time>
      </trkpt>
      <trkpt lat="37.252835975959897" lon="-8.444102006033063">
        <ele>108.29000000000001</ele>
        <time>2025-05-07T10:06:06Z</time>
      </trkpt>
      <trkpt lat="37.25137903355062" lon="-8.444441976025701">
        <ele>107.31999999999999</ele>
        <time>2025-05-07T10:06:14Z</time>
      </trkpt>
      <trkpt lat="37.250316962599754" lon="-8.445033989846706">
        <ele>107.31999999999999</ele>
        <time>2025-05-07T10:06:21Z</time>
      </trkpt>
      <trkpt lat="37.249321024864912" lon="-8.445862038061023">
        <ele>107.81</ele>
        <time>2025-05-07T10:06:30Z</time>
      </trkpt>
      <trkpt lat="37.248173039406538" lon="-8.446926036849618">
        <ele>104.92</ele>
        <time>2025-05-07T10:06:38Z</time>
      </trkpt>
      <trkpt lat="37.248029038310051" lon="-8.447004994377494">
        <ele>104.44</ele>
        <time>2025-05-07T10:06:39Z</time>
      </trkpt>
      <trkpt lat="37.247869027778506" lon="-8.447050005197525">
        <ele>104.44</ele>
        <time>2025-05-07T10:06:40Z</time>
      </trkpt>
      <trkpt lat="37.247698958963156" lon="-8.44708202406764">
        <ele>103.95999999999999</ele>
        <time>2025-05-07T10:06:41Z</time>
      </trkpt>
      <trkpt lat="37.247524028643966" lon="-8.447113959118724">
        <ele>103.48</ele>
        <time>2025-05-07T10:06:42Z</time>
      </trkpt>
      <trkpt lat="37.24734297953546" lon="-8.447128962725401">
        <ele>103.48</ele>
        <time>2025-05-07T10:06:43Z</time>
      </trkpt>
      <trkpt lat="37.246830007061362" lon="-8.447109013795853">
        <ele>103</ele>
        <time>2025-05-07T10:06:46Z</time>
      </trkpt>
      <trkpt lat="37.246669996529818" lon="-8.447065008804202">
        <ele>103</ele>
        <time>2025-05-07T10:06:47Z</time>
      </trkpt>
      <trkpt lat="37.246519960463047" lon="-8.446961995214224">
        <ele>103</ele>
        <time>2025-05-07T10:06:48Z</time>
      </trkpt>
      <trkpt lat="37.246374031528831" lon="-8.446827968582511">
        <ele>103</ele>
        <time>2025-05-07T10:06:49Z</time>
      </trkpt>
      <trkpt lat="37.246222989633679" lon="-8.446687990799546">
        <ele>103.48</ele>
        <time>2025-05-07T10:06:50Z</time>
      </trkpt>
      <trkpt lat="37.245265021920204" lon="-8.445555008947849">
        <ele>107.31999999999999</ele>
        <time>2025-05-07T10:06:57Z</time>
      </trkpt>
      <trkpt lat="37.244467986747622" lon="-8.444324964657426">
        <ele>114.53</ele>
        <time>2025-05-07T10:07:04Z</time>
      </trkpt>
      <trkpt lat="37.244366984814405" lon="-8.444137964397669">
        <ele>115.5</ele>
        <time>2025-05-07T10:07:05Z</time>
      </trkpt>
      <trkpt lat="37.243413962423801" lon="-8.441793965175748">
        <ele>129.43000000000001</ele>
        <time>2025-05-07T10:07:16Z</time>
      </trkpt>
      <trkpt lat="37.24330198019743" lon="-8.441655999049544">
        <ele>130.88</ele>
        <time>2025-05-07T10:07:17Z</time>
      </trkpt>
      <trkpt lat="37.243176000192761" lon="-8.441529013216496">
        <ele>132.31999999999999</ele>
        <time>2025-05-07T10:07:18Z</time>
      </trkpt>
      <trkpt lat="37.243012972176075" lon="-8.441436979919672">
        <ele>133.75999999999999</ele>
        <time>2025-05-07T10:07:19Z</time>
      </trkpt>
      <trkpt lat="37.24282898940146" lon="-8.441377971321344">
        <ele>135.68000000000001</ele>
        <time>2025-05-07T10:07:20Z</time>
      </trkpt>
      <trkpt lat="37.242636037990451" lon="-8.441316029056907">
        <ele>137.13</ele>
        <time>2025-05-07T10:07:21Z</time>
      </trkpt>
      <trkpt lat="37.241428960114717" lon="-8.440930964425206">
        <ele>142.88999999999999</ele>
        <time>2025-05-07T10:07:28Z</time>
      </trkpt>
      <trkpt lat="37.239887025207281" lon="-8.440711023285985">
        <ele>134.72</ele>
        <time>2025-05-07T10:07:35Z</time>
      </trkpt>
      <trkpt lat="37.239437000826001" lon="-8.440651008859277">
        <ele>132.31999999999999</ele>
        <time>2025-05-07T10:07:37Z</time>
      </trkpt>
      <trkpt lat="37.23799598403275" lon="-8.439997974783182">
        <ele>128.47</ele>
        <time>2025-05-07T10:07:44Z</time>
      </trkpt>
      <trkpt lat="37.237810995429754" lon="-8.439902001991868">
        <ele>127.98999999999999</ele>
        <time>2025-05-07T10:07:45Z</time>
      </trkpt>
      <trkpt lat="37.237632963806391" lon="-8.439845005050302">
        <ele>127.98999999999999</ele>
        <time>2025-05-07T10:07:46Z</time>
      </trkpt>
      <trkpt lat="37.23745996132493" lon="-8.439797982573509">
        <ele>127.98999999999999</ele>
        <time>2025-05-07T10:07:47Z</time>
      </trkpt>
      <trkpt lat="37.237292993813753" lon="-8.439809968695045">
        <ele>127.98999999999999</ele>
        <time>2025-05-07T10:07:48Z</time>
      </trkpt>
      <trkpt lat="37.237140024080873" lon="-8.439859002828598">
        <ele>128.47</ele>
        <time>2025-05-07T10:07:49Z</time>
      </trkpt>
      <trkpt lat="37.236999962478876" lon="-8.43994801864028">
        <ele>128.94999999999999</ele>
        <time>2025-05-07T10:07:50Z</time>
      </trkpt>
      <trkpt lat="37.236873982474208" lon="-8.440082967281342">
        <ele>129.91999999999999</ele>
        <time>2025-05-07T10:07:51Z</time>
      </trkpt>
      <trkpt lat="37.236742973327637" lon="-8.440222023054957">
        <ele>130.40000000000001</ele>
        <time>2025-05-07T10:07:52Z</time>
      </trkpt>
      <trkpt lat="37.236222038045526" lon="-8.440742958337069">
        <ele>133.28</ele>
        <time>2025-05-07T10:07:56Z</time>
      </trkpt>
      <trkpt lat="37.236091028898954" lon="-8.440818982198834">
        <ele>133.75999999999999</ele>
        <time>2025-05-07T10:07:57Z</time>
      </trkpt>
      <trkpt lat="37.23595499061048" lon="-8.440856030210853">
        <ele>133.75999999999999</ele>
        <time>2025-05-07T10:07:58Z</time>
      </trkpt>
      <trkpt lat="37.235822975635529" lon="-8.440858963876963">
        <ele>133.75999999999999</ele>
        <time>2025-05-07T10:07:59Z</time>
      </trkpt>
      <trkpt lat="37.235690038651228" lon="-8.440842032432556">
        <ele>133.28</ele>
        <time>2025-05-07T10:08:00Z</time>
      </trkpt>
      <trkpt lat="37.235549977049232" lon="-8.440817976370454">
        <ele>132.31999999999999</ele>
        <time>2025-05-07T10:08:01Z</time>
      </trkpt>
      <trkpt lat="37.235411005094647" lon="-8.440727032721043">
        <ele>131.36000000000001</ele>
        <time>2025-05-07T10:08:02Z</time>
      </trkpt>
      <trkpt lat="37.235259963199496" lon="-8.440628964453936">
        <ele>130.88</ele>
        <time>2025-05-07T10:08:03Z</time>
      </trkpt>
      <trkpt lat="37.233948027715087" lon="-8.439797982573509">
        <ele>121.73999999999999</ele>
        <time>2025-05-07T10:08:11Z</time>
      </trkpt>
      <trkpt lat="37.233789023011923" lon="-8.43973402865231">
        <ele>120.3</ele>
        <time>2025-05-07T10:08:12Z</time>
      </trkpt>
      <trkpt lat="37.233628006651998" lon="-8.439679965376854">
        <ele>118.86</ele>
        <time>2025-05-07T10:08:13Z</time>
      </trkpt>
      <trkpt lat="37.23346003331244" lon="-8.439623974263668">
        <ele>116.94</ele>
        <time>2025-05-07T10:08:14Z</time>
      </trkpt>
      <trkpt lat="37.233266998082399" lon="-8.439629003405571">
        <ele>115.01000000000001</ele>
        <time>2025-05-07T10:08:15Z</time>
      </trkpt>
      <trkpt lat="37.23307304084301" lon="-8.439633026719093">
        <ele>113.09</ele>
        <time>2025-05-07T10:08:16Z</time>
      </trkpt>
      <trkpt lat="37.231155009940267" lon="-8.439744003117085">
        <ele>90.019999999999996</ele>
        <time>2025-05-07T10:08:26Z</time>
      </trkpt>
      <trkpt lat="37.23101201467216" lon="-8.439781973138452">
        <ele>87.620000000000005</ele>
        <time>2025-05-07T10:08:27Z</time>
      </trkpt>
      <trkpt lat="37.230873964726925" lon="-8.439827989786863">
        <ele>85.209999999999994</ele>
        <time>2025-05-07T10:08:28Z</time>
      </trkpt>
      <trkpt lat="37.230734992772341" lon="-8.439937960356474">
        <ele>82.810000000000002</ele>
        <time>2025-05-07T10:08:29Z</time>
      </trkpt>
      <trkpt lat="37.230591997504234" lon="-8.440069975331426">
        <ele>80.409999999999997</ele>
        <time>2025-05-07T10:08:30Z</time>
      </trkpt>
      <trkpt lat="37.230445984750986" lon="-8.440204001963139">
        <ele>78.480000000000004</ele>
        <time>2025-05-07T10:08:31Z</time>
      </trkpt>
      <trkpt lat="37.230142978951335" lon="-8.440423021093011">
        <ele>74.640000000000001</ele>
        <time>2025-05-07T10:08:33Z</time>
      </trkpt>
      <trkpt lat="37.229989003390074" lon="-8.440467026084662">
        <ele>72.719999999999999</ele>
        <time>2025-05-07T10:08:34Z</time>
      </trkpt>
      <trkpt lat="37.229833016172051" lon="-8.440473983064294">
        <ele>71.269999999999996</ele>
        <time>2025-05-07T10:08:35Z</time>
      </trkpt>
      <trkpt lat="37.229664037004113" lon="-8.440455961972475">
        <ele>69.829999999999998</ele>
        <time>2025-05-07T10:08:36Z</time>
      </trkpt>
      <trkpt lat="37.229482987895608" lon="-8.440431989729404">
        <ele>67.909999999999997</ele>
        <time>2025-05-07T10:08:37Z</time>
      </trkpt>
      <trkpt lat="37.229292970150709" lon="-8.440380021929741">
        <ele>66.469999999999999</ele>
        <time>2025-05-07T10:08:38Z</time>
      </trkpt>
      <trkpt lat="37.228704979643226" lon="-8.440220011398196">
        <ele>62.619999999999997</ele>
        <time>2025-05-07T10:08:41Z</time>
      </trkpt>
      <trkpt lat="37.22819996997714" lon="-8.440124960616231">
        <ele>59.740000000000002</ele>
        <time>2025-05-07T10:08:44Z</time>
      </trkpt>
      <trkpt lat="37.22804800607264" lon="-8.440134013071656">
        <ele>58.780000000000001</ele>
        <time>2025-05-07T10:08:45Z</time>
      </trkpt>
      <trkpt lat="37.227902999147773" lon="-8.440155973657966">
        <ele>57.82</ele>
        <time>2025-05-07T10:08:46Z</time>
      </trkpt>
      <trkpt lat="37.227429002523422" lon="-8.440345991402865">
        <ele>54.93</ele>
        <time>2025-05-07T10:08:50Z</time>
      </trkpt>
      <trkpt lat="37.227302016690373" lon="-8.440397037193179">
        <ele>53.969999999999999</ele>
        <time>2025-05-07T10:08:51Z</time>
      </trkpt>
      <trkpt lat="37.227200008928776" lon="-8.440403994172812">
        <ele>53.009999999999998</ele>
        <time>2025-05-07T10:08:52Z</time>
      </trkpt>
      <trkpt lat="37.227077968418598" lon="-8.440412962809205">
        <ele>51.57</ele>
        <time>2025-05-07T10:08:53Z</time>
      </trkpt>
      <trkpt lat="37.226949976757169" lon="-8.44042201526463">
        <ele>50.609999999999999</ele>
        <time>2025-05-07T10:08:54Z</time>
      </trkpt>
      <trkpt lat="37.225500997155905" lon="-8.440460991114378">
        <ele>40.990000000000002</ele>
        <time>2025-05-07T10:09:04Z</time>
      </trkpt>
      <trkpt lat="37.224898003041744" lon="-8.440460991114378">
        <ele>39.07</ele>
        <time>2025-05-07T10:09:08Z</time>
      </trkpt>
      <trkpt lat="37.224747966974974" lon="-8.440490998327732">
        <ele>38.590000000000003</ele>
        <time>2025-05-07T10:09:09Z</time>
      </trkpt>
      <trkpt lat="37.223608028143644" lon="-8.441008999943733">
        <ele>37.149999999999999</ele>
        <time>2025-05-07T10:09:17Z</time>
      </trkpt>
      <trkpt lat="37.223230004310608" lon="-8.441162975504994">
        <ele>36.670000000000002</ele>
        <time>2025-05-07T10:09:20Z</time>
      </trkpt>
      <trkpt lat="37.22310402430594" lon="-8.441188037395477">
        <ele>36.670000000000002</ele>
        <time>2025-05-07T10:09:21Z</time>
      </trkpt>
      <trkpt lat="37.222841000184417" lon="-8.44117596745491">
        <ele>36.670000000000002</ele>
        <time>2025-05-07T10:09:23Z</time>
      </trkpt>
      <trkpt lat="37.221554964780807" lon="-8.440813031047583">
        <ele>36.670000000000002</ele>
        <time>2025-05-07T10:09:31Z</time>
      </trkpt>
      <trkpt lat="37.2205900400877" lon="-8.440498961135745">
        <ele>37.149999999999999</ele>
        <time>2025-05-07T10:09:36Z</time>
      </trkpt>
      <trkpt lat="37.22042097710073" lon="-8.440418997779489">
        <ele>36.670000000000002</ele>
        <time>2025-05-07T10:09:37Z</time>
      </trkpt>
      <trkpt lat="37.220253003761172" lon="-8.440311038866639">
        <ele>36.189999999999998</ele>
        <time>2025-05-07T10:09:38Z</time>
      </trkpt>
      <trkpt lat="37.220091987401247" lon="-8.440172988921404">
        <ele>35.710000000000001</ele>
        <time>2025-05-07T10:09:39Z</time>
      </trkpt>
      <trkpt lat="37.219932982698083" lon="-8.440006021410227">
        <ele>35.710000000000001</ele>
        <time>2025-05-07T10:09:40Z</time>
      </trkpt>
      <trkpt lat="37.219780012965202" lon="-8.439826983958483">
        <ele>35.710000000000001</ele>
        <time>2025-05-07T10:09:41Z</time>
      </trkpt>
      <trkpt lat="37.218994963914156" lon="-8.438906986266375">
        <ele>34.740000000000002</ele>
        <time>2025-05-07T10:09:46Z</time>
      </trkpt>
      <trkpt lat="37.218840988352895" lon="-8.43876700848341">
        <ele>34.740000000000002</ele>
        <time>2025-05-07T10:09:47Z</time>
      </trkpt>
      <trkpt lat="37.218668991699815" lon="-8.438666006550193">
        <ele>34.740000000000002</ele>
        <time>2025-05-07T10:09:48Z</time>
      </trkpt>
      <trkpt lat="37.217271979898214" lon="-8.438098970800638">
        <ele>34.740000000000002</ele>
        <time>2025-05-07T10:09:56Z</time>
      </trkpt>
      <trkpt lat="37.217104006558657" lon="-8.43807902187109">
        <ele>34.259999999999998</ele>
        <time>2025-05-07T10:09:57Z</time>
      </trkpt>
      <trkpt lat="37.216947013512254" lon="-8.438086984679103">
        <ele>33.299999999999997</ele>
        <time>2025-05-07T10:09:58Z</time>
      </trkpt>
      <trkpt lat="37.216782979667187" lon="-8.438124032691121">
        <ele>32.82</ele>
        <time>2025-05-07T10:09:59Z</time>
      </trkpt>
      <trkpt lat="37.215324025601149" lon="-8.438443969935179">
        <ele>28.98</ele>
        <time>2025-05-07T10:10:07Z</time>
      </trkpt>
      <trkpt lat="37.215159991756082" lon="-8.438443969935179">
        <ele>28.98</ele>
        <time>2025-05-07T10:10:08Z</time>
      </trkpt>
      <trkpt lat="37.214998975396156" lon="-8.438443969935179">
        <ele>28.98</ele>
        <time>2025-05-07T10:10:09Z</time>
      </trkpt>
      <trkpt lat="37.21483301371336" lon="-8.438393007963896">
        <ele>28.5</ele>
        <time>2025-05-07T10:10:10Z</time>
      </trkpt>
      <trkpt lat="37.214663028717041" lon="-8.438326958566904">
        <ele>28.02</ele>
        <time>2025-05-07T10:10:11Z</time>
      </trkpt>
      <trkpt lat="37.214488014578819" lon="-8.438257975503802">
        <ele>28.02</ele>
        <time>2025-05-07T10:10:12Z</time>
      </trkpt>
      <trkpt lat="37.214313000440598" lon="-8.438157979398966">
        <ele>28.02</ele>
        <time>2025-05-07T10:10:13Z</time>
      </trkpt>
      <trkpt lat="37.212589010596275" lon="-8.43726497143507">
        <ele>25.129999999999999</ele>
        <time>2025-05-07T10:10:22Z</time>
      </trkpt>
      <trkpt lat="37.211429961025715" lon="-8.436871021986008">
        <ele>24.170000000000002</ele>
        <time>2025-05-07T10:10:28Z</time>
      </trkpt>
      <trkpt lat="37.211242960765958" lon="-8.436839003115892">
        <ele>23.690000000000001</ele>
        <time>2025-05-07T10:10:29Z</time>
      </trkpt>
      <trkpt lat="37.211057972162962" lon="-8.436865992844105">
        <ele>23.210000000000001</ele>
        <time>2025-05-07T10:10:30Z</time>
      </trkpt>
      <trkpt lat="37.210872983559966" lon="-8.436891976743937">
        <ele>22.73</ele>
        <time>2025-05-07T10:10:31Z</time>
      </trkpt>
      <trkpt lat="37.210681959986687" lon="-8.436954002827406">
        <ele>22.73</ele>
        <time>2025-05-07T10:10:32Z</time>
      </trkpt>
      <trkpt lat="37.210491020232439" lon="-8.437029020860791">
        <ele>22.73</ele>
        <time>2025-05-07T10:10:33Z</time>
      </trkpt>
      <trkpt lat="37.20933398231864" lon="-8.437405033037067">
        <ele>22.25</ele>
        <time>2025-05-07T10:10:40Z</time>
      </trkpt>
      <trkpt lat="37.209191992878914" lon="-8.437394974753261">
        <ele>22.25</ele>
        <time>2025-05-07T10:10:41Z</time>
      </trkpt>
      <trkpt lat="37.209060983732343" lon="-8.437355998903513">
        <ele>22.25</ele>
        <time>2025-05-07T10:10:42Z</time>
      </trkpt>
      <trkpt lat="37.208941038697958" lon="-8.437275029718876">
        <ele>21.77</ele>
        <time>2025-05-07T10:10:43Z</time>
      </trkpt>
      <trkpt lat="37.208822015672922" lon="-8.437185008078814">
        <ele>21.289999999999999</ele>
        <time>2025-05-07T10:10:44Z</time>
      </trkpt>
      <trkpt lat="37.20870902761817" lon="-8.437062967568636">
        <ele>21.289999999999999</ele>
        <time>2025-05-07T10:10:45Z</time>
      </trkpt>
      <trkpt lat="37.208596039563417" lon="-8.436921983957291">
        <ele>21.289999999999999</ele>
        <time>2025-05-07T10:10:46Z</time>
      </trkpt>
      <trkpt lat="37.207527011632919" lon="-8.435547016561031">
        <ele>20.809999999999999</ele>
        <time>2025-05-07T10:10:54Z</time>
      </trkpt>
      <trkpt lat="37.206445997580886" lon="-8.434333987534046">
        <ele>20.32</ele>
        <time>2025-05-07T10:11:01Z</time>
      </trkpt>
      <trkpt lat="37.206265032291412" lon="-8.434239020571113">
        <ele>20.32</ele>
        <time>2025-05-07T10:11:02Z</time>
      </trkpt>
      <trkpt lat="37.206070991232991" lon="-8.434142963960767">
        <ele>20.32</ele>
        <time>2025-05-07T10:11:03Z</time>
      </trkpt>
      <trkpt lat="37.204710021615028" lon="-8.433726970106363">
        <ele>21.289999999999999</ele>
        <time>2025-05-07T10:11:10Z</time>
      </trkpt>
      <trkpt lat="37.203386016190052" lon="-8.433100003749132">
        <ele>24.170000000000002</ele>
        <time>2025-05-07T10:11:18Z</time>
      </trkpt>
      <trkpt lat="37.202422013506293" lon="-8.432489968836308">
        <ele>22.25</ele>
        <time>2025-05-07T10:11:24Z</time>
      </trkpt>
      <trkpt lat="37.202260997146368" lon="-8.432435989379883">
        <ele>21.77</ele>
        <time>2025-05-07T10:11:25Z</time>
      </trkpt>
      <trkpt lat="37.202080031856894" lon="-8.432414028793573">
        <ele>21.77</ele>
        <time>2025-05-07T10:11:26Z</time>
      </trkpt>
      <trkpt lat="37.201897976920009" lon="-8.432390978559852">
        <ele>21.289999999999999</ele>
        <time>2025-05-07T10:11:27Z</time>
      </trkpt>
      <trkpt lat="37.201714999973774" lon="-8.432368012145162">
        <ele>21.289999999999999</ele>
        <time>2025-05-07T10:11:28Z</time>
      </trkpt>
      <trkpt lat="37.200539018958807" lon="-8.432288970798254">
        <ele>23.210000000000001</ele>
        <time>2025-05-07T10:11:35Z</time>
      </trkpt>
      <trkpt lat="37.200389988720417" lon="-8.432320989668369">
        <ele>24.170000000000002</ele>
        <time>2025-05-07T10:11:36Z</time>
      </trkpt>
      <trkpt lat="37.200251016765833" lon="-8.432390978559852">
        <ele>25.609999999999999</ele>
        <time>2025-05-07T10:11:37Z</time>
      </trkpt>
      <trkpt lat="37.199339987710118" lon="-8.432958014309406">
        <ele>33.299999999999997</ele>
        <time>2025-05-07T10:11:45Z</time>
      </trkpt>
      <trkpt lat="37.198574971407652" lon="-8.433610964566469">
        <ele>35.710000000000001</ele>
        <time>2025-05-07T10:11:55Z</time>
      </trkpt>
      <trkpt lat="37.198065016418695" lon="-8.434131983667612">
        <ele>30.899999999999999</ele>
        <time>2025-05-07T10:12:03Z</time>
      </trkpt>
      <trkpt lat="37.19753997400403" lon="-8.434559963643551">
        <ele>23.210000000000001</ele>
        <time>2025-05-07T10:12:11Z</time>
      </trkpt>
      <trkpt lat="37.197510972619057" lon="-8.434505984187126">
        <ele>22.73</ele>
        <time>2025-05-07T10:12:12Z</time>
      </trkpt>
      <trkpt lat="37.197480965405703" lon="-8.43444898724556">
        <ele>21.77</ele>
        <time>2025-05-07T10:12:13Z</time>
      </trkpt>
      <trkpt lat="37.197440983727574" lon="-8.434373969212174">
        <ele>20.809999999999999</ele>
        <time>2025-05-07T10:12:14Z</time>
      </trkpt>
      <trkpt lat="37.197368983179331" lon="-8.434239020571113">
        <ele>20.32</ele>
        <time>2025-05-07T10:12:15Z</time>
      </trkpt>
      <trkpt lat="37.197356997057796" lon="-8.434179006144404">
        <ele>19.359999999999999</ele>
        <time>2025-05-07T10:12:16Z</time>
      </trkpt>
      <trkpt lat="37.197245014831424" lon="-8.433603001758456">
        <ele>16.48</ele>
        <time>2025-05-07T10:12:21Z</time>
      </trkpt>
      <trkpt lat="37.197226993739605" lon="-8.433508034795523">
        <ele>16</ele>
        <time>2025-05-07T10:12:22Z</time>
      </trkpt>
      <trkpt lat="37.197120962664485" lon="-8.433434022590518">
        <ele>15.52</ele>
        <time>2025-05-07T10:12:23Z</time>
      </trkpt>
      <trkpt lat="37.197032030671835" lon="-8.433404015377164">
        <ele>15.039999999999999</ele>
        <time>2025-05-07T10:12:24Z</time>
      </trkpt>
      <trkpt lat="37.196928011253476" lon="-8.433371996507049">
        <ele>14.56</ele>
        <time>2025-05-07T10:12:25Z</time>
      </trkpt>
      <trkpt lat="37.196813011541963" lon="-8.433345006778836">
        <ele>13.6</ele>
        <time>2025-05-07T10:12:26Z</time>
      </trkpt>
      <trkpt lat="37.196691976860166" lon="-8.433316005393863">
        <ele>13.119999999999999</ele>
        <time>2025-05-07T10:12:27Z</time>
      </trkpt>
      <trkpt lat="37.195360008627176" lon="-8.43303102068603">
        <ele>7.35</ele>
        <time>2025-05-07T10:12:38Z</time>
      </trkpt>
      <trkpt lat="37.194836977869272" lon="-8.432930018752813">
        <ele>6.39</ele>
        <time>2025-05-07T10:12:43Z</time>
      </trkpt>
      <trkpt lat="37.19474502839148" lon="-8.432954996824265">
        <ele>5.91</ele>
        <time>2025-05-07T10:12:44Z</time>
      </trkpt>
      <trkpt lat="37.194660035893321" lon="-8.432977963238955">
        <ele>5.91</ele>
        <time>2025-05-07T10:12:45Z</time>
      </trkpt>
      <trkpt lat="37.19427203759551" lon="-8.433195976540446">
        <ele>4.94</ele>
        <time>2025-05-07T10:12:50Z</time>
      </trkpt>
      <trkpt lat="37.194211017340422" lon="-8.433215003460646">
        <ele>4.94</ele>
        <time>2025-05-07T10:12:51Z</time>
      </trkpt>
      <trkpt lat="37.194161983206868" lon="-8.433229001238942">
        <ele>4.46</ele>
        <time>2025-05-07T10:12:52Z</time>
      </trkpt>
      <trkpt lat="37.19412200152874" lon="-8.433241993188858">
        <ele>3.98</ele>
        <time>2025-05-07T10:12:53Z</time>
      </trkpt>
      <trkpt lat="37.194096017628908" lon="-8.433250039815903">
        <ele>3.5</ele>
        <time>2025-05-07T10:12:54Z</time>
      </trkpt>
      <trkpt lat="37.194020999595523" lon="-8.433273006230593">
        <ele>3.02</ele>
        <time>2025-05-07T10:12:57Z</time>
      </trkpt>
      <trkpt lat="37.194028962403536" lon="-8.433190025389195">
        <ele>2.54</ele>
        <time>2025-05-07T10:12:58Z</time>
      </trkpt>
      <trkpt lat="37.1940360032022" lon="-8.433129005134106">
        <ele>2.54</ele>
        <time>2025-05-07T10:12:59Z</time>
      </trkpt>
      <trkpt lat="37.194042960181832" lon="-8.433054992929101">
        <ele>2.54</ele>
        <time>2025-05-07T10:13:00Z</time>
      </trkpt>
      <trkpt lat="37.194050000980496" lon="-8.432985004037619">
        <ele>2.06</ele>
        <time>2025-05-07T10:13:01Z</time>
      </trkpt>
      <trkpt lat="37.194054024294019" lon="-8.432939993217588">
        <ele>2.06</ele>
        <time>2025-05-07T10:13:02Z</time>
      </trkpt>
      <trkpt lat="37.194022005423903" lon="-8.432836979627609">
        <ele>2.06</ele>
        <time>2025-05-07T10:13:03Z</time>
      </trkpt>
      <trkpt lat="37.193999961018562" lon="-8.432833040133119">
        <ele>1.58</ele>
        <time>2025-05-07T10:13:04Z</time>
      </trkpt>
      <trkpt lat="37.193967020139098" lon="-8.432828010991216">
        <ele>1.58</ele>
        <time>2025-05-07T10:13:05Z</time>
      </trkpt>
      <trkpt lat="37.193935001268983" lon="-8.432821976020932">
        <ele>1.58</ele>
        <time>2025-05-07T10:13:06Z</time>
      </trkpt>
      <trkpt lat="37.193912034854293" lon="-8.43277595937252">
        <ele>1.58</ele>
        <time>2025-05-07T10:13:07Z</time>
      </trkpt>
      <trkpt lat="37.193772979080677" lon="-8.432706976309419">
        <ele>1.58</ele>
        <time>2025-05-07T10:13:09Z</time>
      </trkpt>
      <trkpt lat="37.193721011281013" lon="-8.432715022936463">
        <ele>1.58</ele>
        <time>2025-05-07T10:13:10Z</time>
      </trkpt>
      <trkpt lat="37.193642975762486" lon="-8.432738995179534">
        <ele>1.58</ele>
        <time>2025-05-07T10:13:11Z</time>
      </trkpt>
      <trkpt lat="37.193576004356146" lon="-8.432759027928114">
        <ele>1.58</ele>
        <time>2025-05-07T10:13:12Z</time>
      </trkpt>
      <trkpt lat="37.193508027121425" lon="-8.432779982686043">
        <ele>1.58</ele>
        <time>2025-05-07T10:13:13Z</time>
      </trkpt>
      <trkpt lat="37.193436026573181" lon="-8.432803032919765">
        <ele>1.1</ele>
        <time>2025-05-07T10:13:14Z</time>
      </trkpt>
      <trkpt lat="37.192480992525816" lon="-8.433231012895703">
        <ele>1.58</ele>
        <time>2025-05-07T10:13:24Z</time>
      </trkpt>
      <trkpt lat="37.191862994804978" lon="-8.433505017310381">
        <ele>0.14</ele>
        <time>2025-05-07T10:13:30Z</time>
      </trkpt>
      <trkpt lat="37.191769033670425" lon="-8.433542987331748">
        <ele>-0.34</ele>
        <time>2025-05-07T10:13:31Z</time>
      </trkpt>
      <trkpt lat="37.19087602570653" lon="-8.433927968144417">
        <ele>-0.34</ele>
        <time>2025-05-07T10:13:41Z</time>
      </trkpt>
      <trkpt lat="37.190451985225081" lon="-8.434132989495993">
        <ele>0.14</ele>
        <time>2025-05-07T10:13:46Z</time>
      </trkpt>
      <trkpt lat="37.18937499448657" lon="-8.434789041057229">
        <ele>4.46</ele>
        <time>2025-05-07T10:13:57Z</time>
      </trkpt>
      <trkpt lat="37.189278015866876" lon="-8.434873027727008">
        <ele>4.46</ele>
        <time>2025-05-07T10:13:58Z</time>
      </trkpt>
      <trkpt lat="37.188731012865901" lon="-8.435581969097257">
        <ele>4.94</ele>
        <time>2025-05-07T10:14:06Z</time>
      </trkpt>
      <trkpt lat="37.188464971259236" lon="-8.436020007357001">
        <ele>5.91</ele>
        <time>2025-05-07T10:14:13Z</time>
      </trkpt>
      <trkpt lat="37.188424989581108" lon="-8.436078010126948">
        <ele>5.91</ele>
        <time>2025-05-07T10:14:14Z</time>
      </trkpt>
      <trkpt lat="37.188327005133033" lon="-8.436240032315254">
        <ele>5.42</ele>
        <time>2025-05-07T10:14:21Z</time>
      </trkpt>
      <trkpt lat="37.188202030956745" lon="-8.436457961797714">
        <ele>5.91</ele>
        <time>2025-05-07T10:14:37Z</time>
      </trkpt>
      <trkpt lat="37.188161965459585" lon="-8.436529040336609">
        <ele>5.91</ele>
        <time>2025-05-07T10:14:38Z</time>
      </trkpt>
      <trkpt lat="37.18812801875174" lon="-8.436589976772666">
        <ele>5.91</ele>
        <time>2025-05-07T10:14:39Z</time>
      </trkpt>
      <trkpt lat="37.188065992668271" lon="-8.436623001471162">
        <ele>6.39</ele>
        <time>2025-05-07T10:14:40Z</time>
      </trkpt>
      <trkpt lat="37.188016036525369" lon="-8.436592994257808">
        <ele>6.39</ele>
        <time>2025-05-07T10:14:41Z</time>
      </trkpt>
      <trkpt lat="37.187959961593151" lon="-8.436560975387693">
        <ele>6.39</ele>
        <time>2025-05-07T10:14:42Z</time>
      </trkpt>
      <trkpt lat="37.187900030985475" lon="-8.436526022851467">
        <ele>5.42</ele>
        <time>2025-05-07T10:14:43Z</time>
      </trkpt>
      <trkpt lat="37.187834987416863" lon="-8.436487969011068">
        <ele>5.42</ele>
        <time>2025-05-07T10:14:44Z</time>
      </trkpt>
      <trkpt lat="37.187005011364818" lon="-8.436023024842143">
        <ele>5.91</ele>
        <time>2025-05-07T10:14:53Z</time>
      </trkpt>
      <trkpt lat="37.186822034418583" lon="-8.435916993767023">
        <ele>6.39</ele>
        <time>2025-05-07T10:14:55Z</time>
      </trkpt>
      <trkpt lat="37.186736958101392" lon="-8.43586502596736">
        <ele>6.39</ele>
        <time>2025-05-07T10:14:56Z</time>
      </trkpt>
      <trkpt lat="37.186453985050321" lon="-8.435692023485899">
        <ele>7.35</ele>
        <time>2025-05-07T10:15:00Z</time>
      </trkpt>
      <trkpt lat="37.186419032514095" lon="-8.435669979080558">
        <ele>7.83</ele>
        <time>2025-05-07T10:15:01Z</time>
      </trkpt>
      <trkpt lat="37.186397993937135" lon="-8.435656987130642">
        <ele>7.83</ele>
        <time>2025-05-07T10:15:02Z</time>
      </trkpt>
      <trkpt lat="37.186363041400909" lon="-8.435636032372713">
        <ele>9.27</ele>
        <time>2025-05-07T10:15:04Z</time>
      </trkpt>
      <trkpt lat="37.186334040015936" lon="-8.435618011280894">
        <ele>9.27</ele>
        <time>2025-05-07T10:15:05Z</time>
      </trkpt>
      <trkpt lat="37.186268996447325" lon="-8.435539975762367">
        <ele>9.75</ele>
        <time>2025-05-07T10:15:06Z</time>
      </trkpt>
      <trkpt lat="37.186296992003918" lon="-8.435491025447846">
        <ele>10.23</ele>
        <time>2025-05-07T10:15:07Z</time>
      </trkpt>
      <trkpt lat="37.186332028359175" lon="-8.435425981879234">
        <ele>10.23</ele>
        <time>2025-05-07T10:15:08Z</time>
      </trkpt>
      <trkpt lat="37.186378967016935" lon="-8.435341995209456">
        <ele>10.23</ele>
        <time>2025-05-07T10:15:09Z</time>
      </trkpt>
      <trkpt lat="37.186432024464011" lon="-8.435245016589761">
        <ele>10.23</ele>
        <time>2025-05-07T10:15:10Z</time>
      </trkpt>
      <trkpt lat="37.186823962256312" lon="-8.434308003634214">
        <ele>10.23</ele>
        <time>2025-05-07T10:15:18Z</time>
      </trkpt>
      <trkpt lat="37.186871990561485" lon="-8.434182023629546">
        <ele>10.23</ele>
        <time>2025-05-07T10:15:19Z</time>
      </trkpt>
      <trkpt lat="37.186928987503052" lon="-8.434057971462607">
        <ele>10.710000000000001</ele>
        <time>2025-05-07T10:15:20Z</time>
      </trkpt>
      <trkpt lat="37.187254959717393" lon="-8.433285998180509">
        <ele>13.119999999999999</ele>
        <time>2025-05-07T10:15:26Z</time>
      </trkpt>
      <trkpt lat="37.187322014942765" lon="-8.433152977377176">
        <ele>14.08</ele>
        <time>2025-05-07T10:15:27Z</time>
      </trkpt>
      <trkpt lat="37.187643963843584" lon="-8.432743018493056">
        <ele>17.440000000000001</ele>
        <time>2025-05-07T10:15:31Z</time>
      </trkpt>
      <trkpt lat="37.188375033438206" lon="-8.43184900470078">
        <ele>26.57</ele>
        <time>2025-05-07T10:15:40Z</time>
      </trkpt>
      <trkpt lat="37.188442004844546" lon="-8.431725036352873">
        <ele>27.530000000000001</ele>
        <time>2025-05-07T10:15:41Z</time>
      </trkpt>
      <trkpt lat="37.188496990129352" lon="-8.431599978357554">
        <ele>28.5</ele>
        <time>2025-05-07T10:15:42Z</time>
      </trkpt>
      <trkpt lat="37.188547030091286" lon="-8.431471986696124">
        <ele>29.460000000000001</ele>
        <time>2025-05-07T10:15:43Z</time>
      </trkpt>
      <trkpt lat="37.188595980405807" lon="-8.431345000863075">
        <ele>30.420000000000002</ele>
        <time>2025-05-07T10:15:44Z</time>
      </trkpt>
      <trkpt lat="37.188629005104303" lon="-8.431214997544885">
        <ele>31.379999999999999</ele>
        <time>2025-05-07T10:15:45Z</time>
      </trkpt>
      <trkpt lat="37.188650965690613" lon="-8.431086000055075">
        <ele>32.340000000000003</ele>
        <time>2025-05-07T10:15:46Z</time>
      </trkpt>
      <trkpt lat="37.188669992610812" lon="-8.430653996765614">
        <ele>37.630000000000003</ele>
        <time>2025-05-07T10:15:52Z</time>
      </trkpt>
      <trkpt lat="37.188669992610812" lon="-8.430653996765614">
        <ele>38.109999999999999</ele>
        <time>2025-05-07T10:16:04Z</time>
      </trkpt>
      <trkpt lat="37.188669992610812" lon="-8.430653996765614">
        <ele>39.07</ele>
        <time>2025-05-07T10:16:44Z</time>
      </trkpt>
      <trkpt lat="37.188669992610812" lon="-8.430653996765614">
        <ele>40.030000000000001</ele>
        <time>2025-05-07T10:17:35Z</time>
      </trkpt>
      <trkpt lat="37.188669992610812" lon="-8.430653996765614">
        <ele>40.030000000000001</ele>
        <time>2025-05-07T10:18:25Z</time>
      </trkpt>
      <trkpt lat="37.188669992610812" lon="-8.430653996765614">
        <ele>40.509999999999998</ele>
        <time>2025-05-07T10:18:56Z</time>
      </trkpt>
      <trkpt lat="37.188669992610812" lon="-8.430633964017034">
        <ele>40.509999999999998</ele>
        <time>2025-05-07T10:18:58Z</time>
      </trkpt>
      <trkpt lat="37.18866303563118" lon="-8.430403964594007">
        <ele>38.590000000000003</ele>
        <time>2025-05-07T10:19:03Z</time>
      </trkpt>
      <trkpt lat="37.188660018146038" lon="-8.430287037044764">
        <ele>39.07</ele>
        <time>2025-05-07T10:19:04Z</time>
      </trkpt>
      <trkpt lat="37.188651971518993" lon="-8.430140018463135">
        <ele>39.07</ele>
        <time>2025-05-07T10:19:05Z</time>
      </trkpt>
      <trkpt lat="37.188590029254556" lon="-8.428902011364698">
        <ele>41.950000000000003</ele>
        <time>2025-05-07T10:19:11Z</time>
      </trkpt>
      <trkpt lat="37.188499001786113" lon="-8.426939975470305">
        <ele>52.049999999999997</ele>
        <time>2025-05-07T10:19:20Z</time>
      </trkpt>
      <trkpt lat="37.188367992639542" lon="-8.426360031589866">
        <ele>54.93</ele>
        <time>2025-05-07T10:19:23Z</time>
      </trkpt>
      <trkpt lat="37.188309989869595" lon="-8.426158027723432">
        <ele>56.369999999999997</ele>
        <time>2025-05-07T10:19:24Z</time>
      </trkpt>
      <trkpt lat="37.188232038170099" lon="-8.425955018028617">
        <ele>57.340000000000003</ele>
        <time>2025-05-07T10:19:25Z</time>
      </trkpt>
      <trkpt lat="37.188125001266599" lon="-8.425770029425621">
        <ele>58.780000000000001</ele>
        <time>2025-05-07T10:19:26Z</time>
      </trkpt>
      <trkpt lat="37.187994997948408" lon="-8.425610018894076">
        <ele>60.219999999999999</ele>
        <time>2025-05-07T10:19:27Z</time>
      </trkpt>
      <trkpt lat="37.187863988801837" lon="-8.425452020019293">
        <ele>61.659999999999997</ele>
        <time>2025-05-07T10:19:28Z</time>
      </trkpt>
      <trkpt lat="37.187714958563447" lon="-8.425325034186244">
        <ele>62.619999999999997</ele>
        <time>2025-05-07T10:19:29Z</time>
      </trkpt>
      <trkpt lat="37.187556037679315" lon="-8.425212968140841">
        <ele>63.579999999999998</ele>
        <time>2025-05-07T10:19:30Z</time>
      </trkpt>
      <trkpt lat="37.187390998005867" lon="-8.425097968429327">
        <ele>65.030000000000001</ele>
        <time>2025-05-07T10:19:31Z</time>
      </trkpt>
      <trkpt lat="37.187220007181168" lon="-8.425028985366225">
        <ele>65.989999999999995</ele>
        <time>2025-05-07T10:19:32Z</time>
      </trkpt>
      <trkpt lat="37.187044993042946" lon="-8.424966959282756">
        <ele>66.469999999999999</ele>
        <time>2025-05-07T10:19:33Z</time>
      </trkpt>
      <trkpt lat="37.186862016096711" lon="-8.424952039495111">
        <ele>67.430000000000007</ele>
        <time>2025-05-07T10:19:34Z</time>
      </trkpt>
      <trkpt lat="37.186679961159825" lon="-8.424937035888434">
        <ele>67.909999999999997</ele>
        <time>2025-05-07T10:19:35Z</time>
      </trkpt>
      <trkpt lat="37.186498995870352" lon="-8.424936030060053">
        <ele>68.390000000000001</ele>
        <time>2025-05-07T10:19:36Z</time>
      </trkpt>
      <trkpt lat="37.186319036409259" lon="-8.424966959282756">
        <ele>68.870000000000005</ele>
        <time>2025-05-07T10:19:37Z</time>
      </trkpt>
      <trkpt lat="37.186130024492741" lon="-8.425024040043354">
        <ele>69.349999999999994</ele>
        <time>2025-05-07T10:19:38Z</time>
      </trkpt>
      <trkpt lat="37.185954004526138" lon="-8.42512596398592">
        <ele>69.829999999999998</ele>
        <time>2025-05-07T10:19:39Z</time>
      </trkpt>
      <trkpt lat="37.185771027579904" lon="-8.425230989232659">
        <ele>69.829999999999998</ele>
        <time>2025-05-07T10:19:40Z</time>
      </trkpt>
      <trkpt lat="37.185584027320147" lon="-8.425353029742837">
        <ele>70.310000000000002</ele>
        <time>2025-05-07T10:19:41Z</time>
      </trkpt>
      <trkpt lat="37.183870011940598" lon="-8.426563963294029">
        <ele>76.079999999999998</ele>
        <time>2025-05-07T10:19:50Z</time>
      </trkpt>
      <trkpt lat="37.183671025559306" lon="-8.426660019904375">
        <ele>77.040000000000006</ele>
        <time>2025-05-07T10:19:51Z</time>
      </trkpt>
      <trkpt lat="37.181751988828182" lon="-8.427084982395172">
        <ele>82.329999999999998</ele>
        <time>2025-05-07T10:20:00Z</time>
      </trkpt>
      <trkpt lat="37.181539004668593" lon="-8.427103003486991">
        <ele>82.810000000000002</ele>
        <time>2025-05-07T10:20:01Z</time>
      </trkpt>
      <trkpt lat="37.181329037994146" lon="-8.427072996273637">
        <ele>82.810000000000002</ele>
        <time>2025-05-07T10:20:02Z</time>
      </trkpt>
      <trkpt lat="37.181119993329048" lon="-8.427043994888663">
        <ele>83.290000000000006</ele>
        <time>2025-05-07T10:20:03Z</time>
      </trkpt>
      <trkpt lat="37.180915977805853" lon="-8.426978029310703">
        <ele>83.769999999999996</ele>
        <time>2025-05-07T10:20:04Z</time>
      </trkpt>
      <trkpt lat="37.180716991424561" lon="-8.426879039034247">
        <ele>83.769999999999996</ele>
        <time>2025-05-07T10:20:05Z</time>
      </trkpt>
      <trkpt lat="37.180520016700029" lon="-8.426766972988844">
        <ele>83.769999999999996</ele>
        <time>2025-05-07T10:20:06Z</time>
      </trkpt>
      <trkpt lat="37.178900968283415" lon="-8.425619993358851">
        <ele>78</ele>
        <time>2025-05-07T10:20:14Z</time>
      </trkpt>
      <trkpt lat="37.177111012861133" lon="-8.423808999359608">
        <ele>74.640000000000001</ele>
        <time>2025-05-07T10:20:24Z</time>
      </trkpt>
      <trkpt lat="37.176194032654166" lon="-8.422437971457839">
        <ele>76.079999999999998</ele>
        <time>2025-05-07T10:20:31Z</time>
      </trkpt>
      <trkpt lat="37.175497999414802" lon="-8.420500997453928">
        <ele>73.680000000000007</ele>
        <time>2025-05-07T10:20:39Z</time>
      </trkpt>
      <trkpt lat="37.174224033951759" lon="-8.416446000337601">
        <ele>63.579999999999998</ele>
        <time>2025-05-07T10:20:54Z</time>
      </trkpt>
      <trkpt lat="37.173218037933111" lon="-8.413230031728745">
        <ele>62.140000000000001</ele>
        <time>2025-05-07T10:21:06Z</time>
      </trkpt>
      <trkpt lat="37.17270196415484" lon="-8.411615006625652">
        <ele>65.510000000000005</ele>
        <time>2025-05-07T10:21:13Z</time>
      </trkpt>
      <trkpt lat="37.172097964212298" lon="-8.409727988764644">
        <ele>68.390000000000001</ele>
        <time>2025-05-07T10:21:22Z</time>
      </trkpt>
      <trkpt lat="37.172021018341184" lon="-8.409558003768325">
        <ele>68.870000000000005</ele>
        <time>2025-05-07T10:21:23Z</time>
      </trkpt>
      <trkpt lat="37.17192797921598" lon="-8.409403022378683">
        <ele>69.349999999999994</ele>
        <time>2025-05-07T10:21:24Z</time>
      </trkpt>
      <trkpt lat="37.171797975897789" lon="-8.409305959939957">
        <ele>69.829999999999998</ele>
        <time>2025-05-07T10:21:25Z</time>
      </trkpt>
      <trkpt lat="37.171662021428347" lon="-8.409206969663501">
        <ele>70.790000000000006</ele>
        <time>2025-05-07T10:21:26Z</time>
      </trkpt>
      <trkpt lat="37.171527994796634" lon="-8.409107979387045">
        <ele>71.269999999999996</ele>
        <time>2025-05-07T10:21:27Z</time>
      </trkpt>
      <trkpt lat="37.170430971309543" lon="-8.408360984176397">
        <ele>74.640000000000001</ele>
        <time>2025-05-07T10:21:35Z</time>
      </trkpt>
      <trkpt lat="37.169602001085877" lon="-8.407746003940702">
        <ele>73.680000000000007</ele>
        <time>2025-05-07T10:21:42Z</time>
      </trkpt>
      <trkpt lat="37.169532012194395" lon="-8.407590016722679">
        <ele>73.680000000000007</ele>
        <time>2025-05-07T10:21:43Z</time>
      </trkpt>
      <trkpt lat="37.169432016089559" lon="-8.40744299814105">
        <ele>74.159999999999997</ele>
        <time>2025-05-07T10:21:44Z</time>
      </trkpt>
      <trkpt lat="37.168593993410468" lon="-8.406236004084349">
        <ele>72.239999999999995</ele>
        <time>2025-05-07T10:21:52Z</time>
      </trkpt>
      <trkpt lat="37.168449992313981" lon="-8.406168026849628">
        <ele>71.760000000000005</ele>
        <time>2025-05-07T10:21:53Z</time>
      </trkpt>
      <trkpt lat="37.168325018137693" lon="-8.4061090182513">
        <ele>71.269999999999996</ele>
        <time>2025-05-07T10:21:54Z</time>
      </trkpt>
      <trkpt lat="37.168193003162742" lon="-8.406044980511069">
        <ele>70.790000000000006</ele>
        <time>2025-05-07T10:21:55Z</time>
      </trkpt>
      <trkpt lat="37.168049002066255" lon="-8.405983960255981">
        <ele>70.310000000000002</ele>
        <time>2025-05-07T10:21:56Z</time>
      </trkpt>
      <trkpt lat="37.167897960171103" lon="-8.405924029648304">
        <ele>69.349999999999994</ele>
        <time>2025-05-07T10:21:57Z</time>
      </trkpt>
      <trkpt lat="37.167752031236887" lon="-8.405846999958158">
        <ele>67.909999999999997</ele>
        <time>2025-05-07T10:21:58Z</time>
      </trkpt>
      <trkpt lat="37.167606018483639" lon="-8.405749015510082">
        <ele>66.950000000000003</ele>
        <time>2025-05-07T10:21:59Z</time>
      </trkpt>
      <trkpt lat="37.167451037093997" lon="-8.405646001920104">
        <ele>65.510000000000005</ele>
        <time>2025-05-07T10:22:00Z</time>
      </trkpt>
      <trkpt lat="37.166461972519755" lon="-8.404818959534168">
        <ele>57.340000000000003</ele>
        <time>2025-05-07T10:22:06Z</time>
      </trkpt>
      <trkpt lat="37.16552403755486" lon="-8.404406988993287">
        <ele>52.530000000000001</ele>
        <time>2025-05-07T10:22:11Z</time>
      </trkpt>
      <trkpt lat="37.165360003709793" lon="-8.404321996495128">
        <ele>52.049999999999997</ele>
        <time>2025-05-07T10:22:12Z</time>
      </trkpt>
      <trkpt lat="37.165204016491771" lon="-8.404214037582278">
        <ele>51.57</ele>
        <time>2025-05-07T10:22:13Z</time>
      </trkpt>
      <trkpt lat="37.165082981809974" lon="-8.404061989858747">
        <ele>51.090000000000003</ele>
        <time>2025-05-07T10:22:14Z</time>
      </trkpt>
      <trkpt lat="37.164958007633686" lon="-8.403903990983963">
        <ele>50.609999999999999</ele>
        <time>2025-05-07T10:22:15Z</time>
      </trkpt>
      <trkpt lat="37.164829010143876" lon="-8.403741968795657">
        <ele>50.130000000000003</ele>
        <time>2025-05-07T10:22:16Z</time>
      </trkpt>
      <trkpt lat="37.163568958640099" lon="-8.401883030310273">
        <ele>42.920000000000002</ele>
        <time>2025-05-07T10:22:26Z</time>
      </trkpt>
      <trkpt lat="37.162243025377393" lon="-8.40007396414876">
        <ele>36.189999999999998</ele>
        <time>2025-05-07T10:22:36Z</time>
      </trkpt>
      <trkpt lat="37.161023961380124" lon="-8.398837968707085">
        <ele>33.780000000000001</ele>
        <time>2025-05-07T10:22:44Z</time>
      </trkpt>
      <trkpt lat="37.15901599265635" lon="-8.396852966398001">
        <ele>31.859999999999999</ele>
        <time>2025-05-07T10:22:57Z</time>
      </trkpt>
      <trkpt lat="37.158139999955893" lon="-8.39601100422442">
        <ele>31.379999999999999</ele>
        <time>2025-05-07T10:23:03Z</time>
      </trkpt>
      <trkpt lat="37.158019971102476" lon="-8.395893992856145">
        <ele>31.379999999999999</ele>
        <time>2025-05-07T10:23:04Z</time>
      </trkpt>
      <trkpt lat="37.157911006361246" lon="-8.395772036164999">
        <ele>31.859999999999999</ele>
        <time>2025-05-07T10:23:05Z</time>
      </trkpt>
      <trkpt lat="37.157803969457746" lon="-8.395649995654821">
        <ele>31.859999999999999</ele>
        <time>2025-05-07T10:23:06Z</time>
      </trkpt>
      <trkpt lat="37.157701039686799" lon="-8.39551898650825">
        <ele>31.859999999999999</ele>
        <time>2025-05-07T10:23:07Z</time>
      </trkpt>
      <trkpt lat="37.157629961147904" lon="-8.395351013168693">
        <ele>32.340000000000003</ele>
        <time>2025-05-07T10:23:08Z</time>
      </trkpt>
      <trkpt lat="37.157556032761931" lon="-8.395181028172374">
        <ele>32.82</ele>
        <time>2025-05-07T10:23:09Z</time>
      </trkpt>
      <trkpt lat="37.157503981143236" lon="-8.39500199072063">
        <ele>33.299999999999997</ele>
        <time>2025-05-07T10:23:10Z</time>
      </trkpt>
      <trkpt lat="37.157469028607011" lon="-8.394809039309621">
        <ele>33.299999999999997</ele>
        <time>2025-05-07T10:23:11Z</time>
      </trkpt>
      <trkpt lat="37.157198041677475" lon="-8.392892014235258">
        <ele>34.259999999999998</ele>
        <time>2025-05-07T10:23:20Z</time>
      </trkpt>
      <trkpt lat="37.156976005062461" lon="-8.391239019110799">
        <ele>35.710000000000001</ele>
        <time>2025-05-07T10:23:28Z</time>
      </trkpt>
      <trkpt lat="37.156712980940938" lon="-8.388909017667174">
        <ele>34.740000000000002</ele>
        <time>2025-05-07T10:23:39Z</time>
      </trkpt>
      <trkpt lat="37.156654978170991" lon="-8.387444028630853">
        <ele>34.259999999999998</ele>
        <time>2025-05-07T10:23:47Z</time>
      </trkpt>
      <trkpt lat="37.156648021191359" lon="-8.387259962037206">
        <ele>34.259999999999998</ele>
        <time>2025-05-07T10:23:49Z</time>
      </trkpt>
      <trkpt lat="37.156622037291527" lon="-8.387023005634546">
        <ele>33.780000000000001</ele>
        <time>2025-05-07T10:23:52Z</time>
      </trkpt>
      <trkpt lat="37.156603010371327" lon="-8.386932983994484">
        <ele>33.780000000000001</ele>
        <time>2025-05-07T10:23:53Z</time>
      </trkpt>
      <trkpt lat="37.156579038128257" lon="-8.386818990111351">
        <ele>33.299999999999997</ele>
        <time>2025-05-07T10:23:54Z</time>
      </trkpt>
      <trkpt lat="37.156550036743283" lon="-8.386684963479638">
        <ele>32.82</ele>
        <time>2025-05-07T10:23:55Z</time>
      </trkpt>
      <trkpt lat="37.156518017873168" lon="-8.386534005403519">
        <ele>32.340000000000003</ele>
        <time>2025-05-07T10:23:56Z</time>
      </trkpt>
      <trkpt lat="37.156204031780362" lon="-8.385545024648309">
        <ele>29.940000000000001</ele>
        <time>2025-05-07T10:24:04Z</time>
      </trkpt>
      <trkpt lat="37.155904965475202" lon="-8.384686969220638">
        <ele>29.460000000000001</ele>
        <time>2025-05-07T10:24:12Z</time>
      </trkpt>
      <trkpt lat="37.155511016026139" lon="-8.383382996544242">
        <ele>26.57</ele>
        <time>2025-05-07T10:24:20Z</time>
      </trkpt>
      <trkpt lat="37.155496012419462" lon="-8.383192978799343">
        <ele>26.09</ele>
        <time>2025-05-07T10:24:21Z</time>
      </trkpt>
      <trkpt lat="37.155486037954688" lon="-8.383001033216715">
        <ele>26.09</ele>
        <time>2025-05-07T10:24:22Z</time>
      </trkpt>
      <trkpt lat="37.155461981892586" lon="-8.380958028137684">
        <ele>23.690000000000001</ele>
        <time>2025-05-07T10:24:32Z</time>
      </trkpt>
      <trkpt lat="37.155435997992754" lon="-8.379954965785146">
        <ele>22.73</ele>
        <time>2025-05-07T10:24:37Z</time>
      </trkpt>
      <trkpt lat="37.155395010486245" lon="-8.379758996888995">
        <ele>22.25</ele>
        <time>2025-05-07T10:24:38Z</time>
      </trkpt>
      <trkpt lat="37.155351005494595" lon="-8.379555987194181">
        <ele>22.25</ele>
        <time>2025-05-07T10:24:39Z</time>
      </trkpt>
      <trkpt lat="37.155274981632829" lon="-8.379365969449282">
        <ele>22.25</ele>
        <time>2025-05-07T10:24:40Z</time>
      </trkpt>
      <trkpt lat="37.155198035761714" lon="-8.379174023866653">
        <ele>23.210000000000001</ele>
        <time>2025-05-07T10:24:41Z</time>
      </trkpt>
      <trkpt lat="37.154194973409176" lon="-8.376755006611347">
        <ele>27.530000000000001</ele>
        <time>2025-05-07T10:24:54Z</time>
      </trkpt>
      <trkpt lat="37.15360002592206" lon="-8.375228997319937">
        <ele>23.210000000000001</ele>
        <time>2025-05-07T10:25:02Z</time>
      </trkpt>
      <trkpt lat="37.15289200656116" lon="-8.373905997723341">
        <ele>17.440000000000001</ele>
        <time>2025-05-07T10:25:08Z</time>
      </trkpt>
      <trkpt lat="37.151460964232683" lon="-8.371364017948508">
        <ele>13.119999999999999</ele>
        <time>2025-05-07T10:25:18Z</time>
      </trkpt>
      <trkpt lat="37.150545995682478" lon="-8.369819987565279">
        <ele>12.630000000000001</ele>
        <time>2025-05-07T10:25:25Z</time>
      </trkpt>
      <trkpt lat="37.150405012071133" lon="-8.369638016447425">
        <ele>12.630000000000001</ele>
        <time>2025-05-07T10:25:26Z</time>
      </trkpt>
      <trkpt lat="37.150239972397685" lon="-8.369479011744261">
        <ele>12.15</ele>
        <time>2025-05-07T10:25:27Z</time>
      </trkpt>
      <trkpt lat="37.148816976696253" lon="-8.368094991892576">
        <ele>11.67</ele>
        <time>2025-05-07T10:25:36Z</time>
      </trkpt>
      <trkpt lat="37.148059001192451" lon="-8.367355037480593">
        <ele>10.710000000000001</ele>
        <time>2025-05-07T10:25:43Z</time>
      </trkpt>
      <trkpt lat="37.14790896512568" lon="-8.367333998903632">
        <ele>10.23</ele>
        <time>2025-05-07T10:25:44Z</time>
      </trkpt>
      <trkpt lat="37.147854985669255" lon="-8.367315977811813">
        <ele>10.710000000000001</ele>
        <time>2025-05-07T10:25:45Z</time>
      </trkpt>
      <trkpt lat="37.14777996763587" lon="-8.367290999740362">
        <ele>10.710000000000001</ele>
        <time>2025-05-07T10:25:46Z</time>
      </trkpt>
      <trkpt lat="37.147741997614503" lon="-8.36707198061049">
        <ele>10.23</ele>
        <time>2025-05-07T10:25:47Z</time>
      </trkpt>
      <trkpt lat="37.14764803647995" lon="-8.367009032517672">
        <ele>10.710000000000001</ele>
        <time>2025-05-07T10:25:48Z</time>
      </trkpt>
      <trkpt lat="37.147536976262927" lon="-8.366936026141048">
        <ele>10.710000000000001</ele>
        <time>2025-05-07T10:25:49Z</time>
      </trkpt>
      <trkpt lat="37.147412002086639" lon="-8.366852039471269">
        <ele>11.19</ele>
        <time>2025-05-07T10:25:50Z</time>
      </trkpt>
      <trkpt lat="37.147275041788816" lon="-8.366761012002826">
        <ele>10.710000000000001</ele>
        <time>2025-05-07T10:25:51Z</time>
      </trkpt>
      <trkpt lat="37.145761018618941" lon="-8.365835985168815">
        <ele>9.75</ele>
        <time>2025-05-07T10:26:00Z</time>
      </trkpt>
      <trkpt lat="37.144793998450041" lon="-8.365131989121437">
        <ele>9.27</ele>
        <time>2025-05-07T10:26:07Z</time>
      </trkpt>
      <trkpt lat="37.144542960450053" lon="-8.365077003836632">
        <ele>10.23</ele>
        <time>2025-05-07T10:26:09Z</time>
      </trkpt>
      <trkpt lat="37.144517982378602" lon="-8.365015983581543">
        <ele>10.23</ele>
        <time>2025-05-07T10:26:10Z</time>
      </trkpt>
      <trkpt lat="37.144389990717173" lon="-8.364741979166865">
        <ele>10.23</ele>
        <time>2025-05-07T10:26:12Z</time>
      </trkpt>
      <trkpt lat="37.144292006269097" lon="-8.364633014425635">
        <ele>10.23</ele>
        <time>2025-05-07T10:26:13Z</time>
      </trkpt>
      <trkpt lat="37.143338983878493" lon="-8.363570021465421">
        <ele>9.27</ele>
        <time>2025-05-07T10:26:23Z</time>
      </trkpt>
      <trkpt lat="37.1428809966892" lon="-8.363057971000671">
        <ele>8.789999999999999</ele>
        <time>2025-05-07T10:26:27Z</time>
      </trkpt>
      <trkpt lat="37.142730038613081" lon="-8.362888991832733">
        <ele>8.789999999999999</ele>
        <time>2025-05-07T10:26:28Z</time>
      </trkpt>
      <trkpt lat="37.142051020637155" lon="-8.3620860055089">
        <ele>7.83</ele>
        <time>2025-05-07T10:26:33Z</time>
      </trkpt>
      <trkpt lat="37.141925962641835" lon="-8.361916020512581">
        <ele>7.83</ele>
        <time>2025-05-07T10:26:34Z</time>
      </trkpt>
      <trkpt lat="37.140483018010855" lon="-8.359685009345412">
        <ele>8.310000000000001</ele>
        <time>2025-05-07T10:26:46Z</time>
      </trkpt>
      <trkpt lat="37.140133995562792" lon="-8.359162984415889">
        <ele>9.27</ele>
        <time>2025-05-07T10:26:49Z</time>
      </trkpt>
      <trkpt lat="37.139999968931079" lon="-8.359017977491021">
        <ele>8.789999999999999</ele>
        <time>2025-05-07T10:26:50Z</time>
      </trkpt>
      <trkpt lat="37.13985001668334" lon="-8.358901971951127">
        <ele>8.789999999999999</ele>
        <time>2025-05-07T10:26:51Z</time>
      </trkpt>
      <trkpt lat="37.139696963131428" lon="-8.358818991109729">
        <ele>9.27</ele>
        <time>2025-05-07T10:26:52Z</time>
      </trkpt>
      <trkpt lat="37.139525972306728" lon="-8.358784960582852">
        <ele>9.27</ele>
        <time>2025-05-07T10:26:53Z</time>
      </trkpt>
      <trkpt lat="37.13935598731041" lon="-8.358754031360149">
        <ele>9.75</ele>
        <time>2025-05-07T10:26:54Z</time>
      </trkpt>
      <trkpt lat="37.13793802075088" lon="-8.358448008075357">
        <ele>16.960000000000001</ele>
        <time>2025-05-07T10:27:02Z</time>
      </trkpt>
      <trkpt lat="37.137769963592291" lon="-8.358400985598564">
        <ele>18.399999999999999</ele>
        <time>2025-05-07T10:27:03Z</time>
      </trkpt>
      <trkpt lat="37.137102009728551" lon="-8.358104014769197">
        <ele>22.25</ele>
        <time>2025-05-07T10:27:07Z</time>
      </trkpt>
      <trkpt lat="37.136940993368626" lon="-8.358030002564192">
        <ele>23.210000000000001</ele>
        <time>2025-05-07T10:27:08Z</time>
      </trkpt>
      <trkpt lat="37.13677603751421" lon="-8.357998989522457">
        <ele>24.170000000000002</ele>
        <time>2025-05-07T10:27:09Z</time>
      </trkpt>
      <trkpt lat="37.136604962870479" lon="-8.357974011451006">
        <ele>25.609999999999999</ele>
        <time>2025-05-07T10:27:10Z</time>
      </trkpt>
      <trkpt lat="37.136432966217399" lon="-8.357948027551174">
        <ele>26.57</ele>
        <time>2025-05-07T10:27:11Z</time>
      </trkpt>
      <trkpt lat="37.136261975392699" lon="-8.357953978702426">
        <ele>27.530000000000001</ele>
        <time>2025-05-07T10:27:12Z</time>
      </trkpt>
      <trkpt lat="37.136096013709903" lon="-8.357993960380554">
        <ele>27.530000000000001</ele>
        <time>2025-05-07T10:27:13Z</time>
      </trkpt>
      <trkpt lat="37.135929968208075" lon="-8.358035031706095">
        <ele>28.5</ele>
        <time>2025-05-07T10:27:14Z</time>
      </trkpt>
      <trkpt lat="37.135760989040136" lon="-8.358075013384223">
        <ele>29.460000000000001</ele>
        <time>2025-05-07T10:27:15Z</time>
      </trkpt>
      <trkpt lat="37.13559796102345" lon="-8.358137039467692">
        <ele>30.420000000000002</ele>
        <time>2025-05-07T10:27:16Z</time>
      </trkpt>
      <trkpt lat="37.135435016825795" lon="-8.358223959803581">
        <ele>31.859999999999999</ele>
        <time>2025-05-07T10:27:17Z</time>
      </trkpt>
      <trkpt lat="37.135114995762706" lon="-8.358453959226608">
        <ele>34.259999999999998</ele>
        <time>2025-05-07T10:27:19Z</time>
      </trkpt>
      <trkpt lat="37.134389961138368" lon="-8.359033986926079">
        <ele>40.030000000000001</ele>
        <time>2025-05-07T10:27:24Z</time>
      </trkpt>
      <trkpt lat="37.134266998618841" lon="-8.359091989696026">
        <ele>40.990000000000002</ele>
        <time>2025-05-07T10:27:25Z</time>
      </trkpt>
      <trkpt lat="37.134148981422186" lon="-8.3591019641608">
        <ele>41.950000000000003</ele>
        <time>2025-05-07T10:27:26Z</time>
      </trkpt>
      <trkpt lat="37.134040016680956" lon="-8.359110010787845">
        <ele>42.439999999999998</ele>
        <time>2025-05-07T10:27:27Z</time>
      </trkpt>
      <trkpt lat="37.133960975334048" lon="-8.359115039929748">
        <ele>42.439999999999998</ele>
        <time>2025-05-07T10:27:28Z</time>
      </trkpt>
      <trkpt lat="37.133701974526048" lon="-8.359064999967814">
        <ele>44.359999999999999</ele>
        <time>2025-05-07T10:27:33Z</time>
      </trkpt>
      <trkpt lat="37.133520003408194" lon="-8.359248982742429">
        <ele>45.32</ele>
        <time>2025-05-07T10:27:40Z</time>
      </trkpt>
      <trkpt lat="37.133304001763463" lon="-8.359297011047602">
        <ele>45.799999999999997</ele>
        <time>2025-05-07T10:27:42Z</time>
      </trkpt>
      <trkpt lat="37.133232001215219" lon="-8.359287036582828">
        <ele>45.799999999999997</ele>
        <time>2025-05-07T10:27:43Z</time>
      </trkpt>
      <trkpt lat="37.133094035089016" lon="-8.359203971922398">
        <ele>45.799999999999997</ele>
        <time>2025-05-07T10:27:44Z</time>
      </trkpt>
      <trkpt lat="37.13301700539887" lon="-8.359158039093018">
        <ele>45.799999999999997</ele>
        <time>2025-05-07T10:27:45Z</time>
      </trkpt>
      <trkpt lat="37.132939975708723" lon="-8.359027029946446">
        <ele>45.799999999999997</ele>
        <time>2025-05-07T10:27:46Z</time>
      </trkpt>
      <trkpt lat="37.132871998474002" lon="-8.358909012749791">
        <ele>45.32</ele>
        <time>2025-05-07T10:27:47Z</time>
      </trkpt>
      <trkpt lat="37.132866969332099" lon="-8.358765011653304">
        <ele>44.840000000000003</ele>
        <time>2025-05-07T10:27:48Z</time>
      </trkpt>
      <trkpt lat="37.132866969332099" lon="-8.358599971979857">
        <ele>44.840000000000003</ele>
        <time>2025-05-07T10:27:49Z</time>
      </trkpt>
      <trkpt lat="37.132907034829259" lon="-8.358452031388879">
        <ele>44.840000000000003</ele>
        <time>2025-05-07T10:27:50Z</time>
      </trkpt>
      <trkpt lat="37.13293100707233" lon="-8.358364021405578">
        <ele>44.840000000000003</ele>
        <time>2025-05-07T10:27:51Z</time>
      </trkpt>
      <trkpt lat="37.133042989298701" lon="-8.35813301615417">
        <ele>44.840000000000003</ele>
        <time>2025-05-07T10:27:52Z</time>
      </trkpt>
      <trkpt lat="37.133050030097365" lon="-8.357963031157851">
        <ele>44.840000000000003</ele>
        <time>2025-05-07T10:27:53Z</time>
      </trkpt>
      <trkpt lat="37.133057992905378" lon="-8.357783993706107">
        <ele>45.32</ele>
        <time>2025-05-07T10:27:54Z</time>
      </trkpt>
      <trkpt lat="37.133057992905378" lon="-8.357599005103111">
        <ele>45.799999999999997</ele>
        <time>2025-05-07T10:27:55Z</time>
      </trkpt>
      <trkpt lat="37.132690027356148" lon="-8.355568991973996">
        <ele>49.649999999999999</ele>
        <time>2025-05-07T10:28:06Z</time>
      </trkpt>
      <trkpt lat="37.132334969937801" lon="-8.353632017970085">
        <ele>50.130000000000003</ele>
        <time>2025-05-07T10:28:17Z</time>
      </trkpt>
      <trkpt lat="37.131941020488739" lon="-8.351467978209257">
        <ele>45.799999999999997</ele>
        <time>2025-05-07T10:28:30Z</time>
      </trkpt>
      <trkpt lat="37.1315579675138" lon="-8.349882960319519">
        <ele>40.990000000000002</ele>
        <time>2025-05-07T10:28:41Z</time>
      </trkpt>
      <trkpt lat="37.131040971726179" lon="-8.34857102483511">
        <ele>34.740000000000002</ele>
        <time>2025-05-07T10:28:51Z</time>
      </trkpt>
      <trkpt lat="37.130979029461741" lon="-8.348473962396383">
        <ele>33.780000000000001</ele>
        <time>2025-05-07T10:28:52Z</time>
      </trkpt>
      <trkpt lat="37.130850031971931" lon="-8.348321998491883">
        <ele>32.340000000000003</ele>
        <time>2025-05-07T10:28:54Z</time>
      </trkpt>
      <trkpt lat="37.130809966474771" lon="-8.348166011273861">
        <ele>31.379999999999999</ele>
        <time>2025-05-07T10:28:55Z</time>
      </trkpt>
      <trkpt lat="37.130679963156581" lon="-8.347970964387059">
        <ele>28.98</ele>
        <time>2025-05-07T10:28:57Z</time>
      </trkpt>
      <trkpt lat="37.130604023113847" lon="-8.34788303822279">
        <ele>28.02</ele>
        <time>2025-05-07T10:28:58Z</time>
      </trkpt>
      <trkpt lat="37.130522970110178" lon="-8.347801985219121">
        <ele>27.050000000000001</ele>
        <time>2025-05-07T10:28:59Z</time>
      </trkpt>
      <trkpt lat="37.129357969388366" lon="-8.347081979736686">
        <ele>17.920000000000002</ele>
        <time>2025-05-07T10:29:11Z</time>
      </trkpt>
      <trkpt lat="37.128738965839148" lon="-8.346715020015836">
        <ele>13.6</ele>
        <time>2025-05-07T10:29:19Z</time>
      </trkpt>
      <trkpt lat="37.127963975071907" lon="-8.346430035308003">
        <ele>11.19</ele>
        <time>2025-05-07T10:29:28Z</time>
      </trkpt>
      <trkpt lat="37.127248998731375" lon="-8.346237000077963">
        <ele>9.75</ele>
        <time>2025-05-07T10:29:37Z</time>
      </trkpt>
      <trkpt lat="37.126785982400179" lon="-8.346180003136396">
        <ele>10.710000000000001</ele>
        <time>2025-05-07T10:29:44Z</time>
      </trkpt>
      <trkpt lat="37.126729991286993" lon="-8.346175979822874">
        <ele>10.710000000000001</ele>
        <time>2025-05-07T10:29:45Z</time>
      </trkpt>
      <trkpt lat="37.126669976860285" lon="-8.3461660053581">
        <ele>10.710000000000001</ele>
        <time>2025-05-07T10:29:46Z</time>
      </trkpt>
      <trkpt lat="37.126557994633913" lon="-8.346218978986144">
        <ele>10.710000000000001</ele>
        <time>2025-05-07T10:29:47Z</time>
      </trkpt>
      <trkpt lat="37.126543996855617" lon="-8.346218978986144">
        <ele>10.710000000000001</ele>
        <time>2025-05-07T10:29:48Z</time>
      </trkpt>
      <trkpt lat="37.126477025449276" lon="-8.346218978986144">
        <ele>10.710000000000001</ele>
        <time>2025-05-07T10:29:49Z</time>
      </trkpt>
      <trkpt lat="37.126424973830581" lon="-8.346214033663273">
        <ele>11.19</ele>
        <time>2025-05-07T10:29:50Z</time>
      </trkpt>
      <trkpt lat="37.126372000202537" lon="-8.346146978437901">
        <ele>11.19</ele>
        <time>2025-05-07T10:29:51Z</time>
      </trkpt>
      <trkpt lat="37.126298993825912" lon="-8.346075983718038">
        <ele>11.67</ele>
        <time>2025-05-07T10:29:52Z</time>
      </trkpt>
      <trkpt lat="37.126220958307385" lon="-8.3460140414536">
        <ele>11.67</ele>
        <time>2025-05-07T10:29:53Z</time>
      </trkpt>
      <trkpt lat="37.126137977465987" lon="-8.345946986228228">
        <ele>11.67</ele>
        <time>2025-05-07T10:29:54Z</time>
      </trkpt>
      <trkpt lat="37.125351000577211" lon="-8.345378022640944">
        <ele>13.6</ele>
        <time>2025-05-07T10:30:01Z</time>
      </trkpt>
      <trkpt lat="37.124404013156891" lon="-8.344587022438645">
        <ele>17.920000000000002</ele>
        <time>2025-05-07T10:30:10Z</time>
      </trkpt>
      <trkpt lat="37.123691970482469" lon="-8.343593012541533">
        <ele>25.129999999999999</ele>
        <time>2025-05-07T10:30:19Z</time>
      </trkpt>
      <trkpt lat="37.123523997142911" lon="-8.343196967616677">
        <ele>28.02</ele>
        <time>2025-05-07T10:30:22Z</time>
      </trkpt>
      <trkpt lat="37.1233069896698" lon="-8.341746982187033">
        <ele>37.149999999999999</ele>
        <time>2025-05-07T10:30:32Z</time>
      </trkpt>
      <trkpt lat="37.123312018811703" lon="-8.341640029102564">
        <ele>38.109999999999999</ele>
        <time>2025-05-07T10:30:33Z</time>
      </trkpt>
      <trkpt lat="37.123231971636415" lon="-8.341520000249147">
        <ele>39.07</ele>
        <time>2025-05-07T10:30:34Z</time>
      </trkpt>
      <trkpt lat="37.123176986351609" lon="-8.341520000249147">
        <ele>40.030000000000001</ele>
        <time>2025-05-07T10:30:35Z</time>
      </trkpt>
      <trkpt lat="37.123108003288507" lon="-8.341520000249147">
        <ele>40.509999999999998</ele>
        <time>2025-05-07T10:30:36Z</time>
      </trkpt>
      <trkpt lat="37.123030973598361" lon="-8.341520000249147">
        <ele>40.990000000000002</ele>
        <time>2025-05-07T10:30:37Z</time>
      </trkpt>
      <trkpt lat="37.122948998585343" lon="-8.341523017734289">
        <ele>41.469999999999999</ele>
        <time>2025-05-07T10:30:38Z</time>
      </trkpt>
      <trkpt lat="37.122074011713266" lon="-8.341562999412417">
        <ele>43.880000000000003</ele>
        <time>2025-05-07T10:30:49Z</time>
      </trkpt>
      <trkpt lat="37.121921963989735" lon="-8.341562999412417">
        <ele>43.399999999999999</ele>
        <time>2025-05-07T10:30:51Z</time>
      </trkpt>
      <trkpt lat="37.121504964306951" lon="-8.341584037989378">
        <ele>42.439999999999998</ele>
        <time>2025-05-07T10:30:56Z</time>
      </trkpt>
      <trkpt lat="37.121423995122313" lon="-8.341584037989378">
        <ele>42.439999999999998</ele>
        <time>2025-05-07T10:30:57Z</time>
      </trkpt>
      <trkpt lat="37.121001966297626" lon="-8.341584037989378">
        <ele>40.990000000000002</ele>
        <time>2025-05-07T10:31:03Z</time>
      </trkpt>
      <trkpt lat="37.120812032371759" lon="-8.341584037989378">
        <ele>40.509999999999998</ele>
        <time>2025-05-07T10:31:06Z</time>
      </trkpt>
      <trkpt lat="37.120722010731697" lon="-8.341584037989378">
        <ele>40.030000000000001</ele>
        <time>2025-05-07T10:31:07Z</time>
      </trkpt>
      <trkpt lat="37.120669959113002" lon="-8.341555958613753">
        <ele>40.030000000000001</ele>
        <time>2025-05-07T10:31:08Z</time>
      </trkpt>
      <trkpt lat="37.120610028505325" lon="-8.341522011905909">
        <ele>39.549999999999997</ele>
        <time>2025-05-07T10:31:09Z</time>
      </trkpt>
      <trkpt lat="37.120544984936714" lon="-8.341485969722271">
        <ele>39.549999999999997</ele>
        <time>2025-05-07T10:31:10Z</time>
      </trkpt>
      <trkpt lat="37.120478013530374" lon="-8.341444982215762">
        <ele>39.549999999999997</ele>
        <time>2025-05-07T10:31:11Z</time>
      </trkpt>
      <trkpt lat="37.120412969961762" lon="-8.341405000537634">
        <ele>39.549999999999997</ele>
        <time>2025-05-07T10:31:12Z</time>
      </trkpt>
      <trkpt lat="37.120347004383802" lon="-8.341363007202745">
        <ele>39.549999999999997</ele>
        <time>2025-05-07T10:31:13Z</time>
      </trkpt>
      <trkpt lat="37.120284978300333" lon="-8.341317996382713">
        <ele>39.549999999999997</ele>
        <time>2025-05-07T10:31:14Z</time>
      </trkpt>
      <trkpt lat="37.120224963873625" lon="-8.341274997219443">
        <ele>39.549999999999997</ele>
        <time>2025-05-07T10:31:15Z</time>
      </trkpt>
      <trkpt lat="37.120050033554435" lon="-8.341149017214775">
        <ele>40.030000000000001</ele>
        <time>2025-05-07T10:31:18Z</time>
      </trkpt>
      <trkpt lat="37.119859009981155" lon="-8.34101096726954">
        <ele>39.549999999999997</ele>
        <time>2025-05-07T10:31:21Z</time>
      </trkpt>
      <trkpt lat="37.119794972240925" lon="-8.340963022783399">
        <ele>39.549999999999997</ele>
        <time>2025-05-07T10:31:22Z</time>
      </trkpt>
      <trkpt lat="37.119732024148107" lon="-8.340912982821465">
        <ele>40.030000000000001</ele>
        <time>2025-05-07T10:31:23Z</time>
      </trkpt>
      <trkpt lat="37.11961098946631" lon="-8.34079597145319">
        <ele>40.030000000000001</ele>
        <time>2025-05-07T10:31:25Z</time>
      </trkpt>
      <trkpt lat="37.119445027783513" lon="-8.340600002557039">
        <ele>40.509999999999998</ele>
        <time>2025-05-07T10:31:28Z</time>
      </trkpt>
      <trkpt lat="37.119375038892031" lon="-8.34055901505053">
        <ele>40.509999999999998</ele>
        <time>2025-05-07T10:31:29Z</time>
      </trkpt>
      <trkpt lat="37.119304966181517" lon="-8.340518027544022">
        <ele>40.990000000000002</ele>
        <time>2025-05-07T10:31:30Z</time>
      </trkpt>
      <trkpt lat="37.119233971461654" lon="-8.340477040037513">
        <ele>41.469999999999999</ele>
        <time>2025-05-07T10:31:31Z</time>
      </trkpt>
      <trkpt lat="37.119162976741791" lon="-8.340444015339017">
        <ele>41.469999999999999</ele>
        <time>2025-05-07T10:31:32Z</time>
      </trkpt>
      <trkpt lat="37.118952004238963" lon="-8.340345025062561">
        <ele>41.950000000000003</ele>
        <time>2025-05-07T10:31:35Z</time>
      </trkpt>
      <trkpt lat="37.118883021175861" lon="-8.340310994535685">
        <ele>41.950000000000003</ele>
        <time>2025-05-07T10:31:36Z</time>
      </trkpt>
      <trkpt lat="37.118814960122108" lon="-8.340276964008808">
        <ele>42.439999999999998</ele>
        <time>2025-05-07T10:31:37Z</time>
      </trkpt>
      <trkpt lat="37.118613040074706" lon="-8.340160036459565">
        <ele>42.439999999999998</ele>
        <time>2025-05-07T10:31:40Z</time>
      </trkpt>
      <trkpt lat="37.118553025647998" lon="-8.340094992890954">
        <ele>41.950000000000003</ele>
        <time>2025-05-07T10:31:41Z</time>
      </trkpt>
      <trkpt lat="37.118489993736148" lon="-8.340027015656233">
        <ele>41.950000000000003</ele>
        <time>2025-05-07T10:31:42Z</time>
      </trkpt>
      <trkpt lat="37.118307016789913" lon="-8.339813025668263">
        <ele>40.990000000000002</ele>
        <time>2025-05-07T10:31:45Z</time>
      </trkpt>
      <trkpt lat="37.117989007383585" lon="-8.3392050024122">
        <ele>39.549999999999997</ele>
        <time>2025-05-07T10:31:51Z</time>
      </trkpt>
      <trkpt lat="37.117597991600633" lon="-8.337947968393564">
        <ele>36.670000000000002</ele>
        <time>2025-05-07T10:32:01Z</time>
      </trkpt>
      <trkpt lat="37.117557004094124" lon="-8.337812013924122">
        <ele>36.670000000000002</ele>
        <time>2025-05-07T10:32:02Z</time>
      </trkpt>
      <trkpt lat="37.117511993274093" lon="-8.337674969807267">
        <ele>36.189999999999998</ele>
        <time>2025-05-07T10:32:03Z</time>
      </trkpt>
      <trkpt lat="37.117439992725849" lon="-8.337548989802599">
        <ele>35.710000000000001</ele>
        <time>2025-05-07T10:32:04Z</time>
      </trkpt>
      <trkpt lat="37.11692500859499" lon="-8.336968962103128">
        <ele>33.780000000000001</ele>
        <time>2025-05-07T10:32:09Z</time>
      </trkpt>
      <trkpt lat="37.11681897751987" lon="-8.336851028725505">
        <ele>33.299999999999997</ele>
        <time>2025-05-07T10:32:10Z</time>
      </trkpt>
      <trkpt lat="37.116705989465117" lon="-8.336747009307146">
        <ele>32.82</ele>
        <time>2025-05-07T10:32:11Z</time>
      </trkpt>
      <trkpt lat="37.115823039785028" lon="-8.336163964122534">
        <ele>30.420000000000002</ele>
        <time>2025-05-07T10:32:19Z</time>
      </trkpt>
      <trkpt lat="37.114555025473237" lon="-8.335284031927586">
        <ele>22.25</ele>
        <time>2025-05-07T10:32:31Z</time>
      </trkpt>
      <trkpt lat="37.113742986693978" lon="-8.334659999236465">
        <ele>17.920000000000002</ele>
        <time>2025-05-07T10:32:39Z</time>
      </trkpt>
      <trkpt lat="37.113633016124368" lon="-8.334603002294898">
        <ele>17.440000000000001</ele>
        <time>2025-05-07T10:32:40Z</time>
      </trkpt>
      <trkpt lat="37.113522961735725" lon="-8.334546005353332">
        <ele>16.960000000000001</ele>
        <time>2025-05-07T10:32:41Z</time>
      </trkpt>
      <trkpt lat="37.112106001004577" lon="-8.333741007372737">
        <ele>17.920000000000002</ele>
        <time>2025-05-07T10:32:54Z</time>
      </trkpt>
      <trkpt lat="37.111771982163191" lon="-8.333545038476586">
        <ele>18.399999999999999</ele>
        <time>2025-05-07T10:32:57Z</time>
      </trkpt>
      <trkpt lat="37.111652037128806" lon="-8.333507990464568">
        <ele>18.399999999999999</ele>
        <time>2025-05-07T10:32:58Z</time>
      </trkpt>
      <trkpt lat="37.111535025760531" lon="-8.333471026271582">
        <ele>18.399999999999999</ele>
        <time>2025-05-07T10:32:59Z</time>
      </trkpt>
      <trkpt lat="37.111410973593593" lon="-8.33346800878644">
        <ele>18.399999999999999</ele>
        <time>2025-05-07T10:33:00Z</time>
      </trkpt>
      <trkpt lat="37.11129798553884" lon="-8.333498015999794">
        <ele>18.399999999999999</ele>
        <time>2025-05-07T10:33:01Z</time>
      </trkpt>
      <trkpt lat="37.111181979998946" lon="-8.333528023213148">
        <ele>18.879999999999999</ele>
        <time>2025-05-07T10:33:02Z</time>
      </trkpt>
      <trkpt lat="37.111063962802291" lon="-8.333559958264232">
        <ele>18.879999999999999</ele>
        <time>2025-05-07T10:33:03Z</time>
      </trkpt>
      <trkpt lat="37.1109529864043" lon="-8.333616033196449">
        <ele>18.879999999999999</ele>
        <time>2025-05-07T10:33:04Z</time>
      </trkpt>
      <trkpt lat="37.109730988740921" lon="-8.334227995947003">
        <ele>18.879999999999999</ele>
        <time>2025-05-07T10:33:15Z</time>
      </trkpt>
      <trkpt lat="37.109667034819722" lon="-8.334279041737318">
        <ele>18.399999999999999</ele>
        <time>2025-05-07T10:33:16Z</time>
      </trkpt>
      <trkpt lat="37.109653037041426" lon="-8.334409967064858">
        <ele>17.920000000000002</ele>
        <time>2025-05-07T10:33:17Z</time>
      </trkpt>
      <trkpt lat="37.109655970707536" lon="-8.334505017846823">
        <ele>17.920000000000002</ele>
        <time>2025-05-07T10:33:18Z</time>
      </trkpt>
      <trkpt lat="37.109609032049775" lon="-8.334574000909925">
        <ele>17.920000000000002</ele>
        <time>2025-05-07T10:33:19Z</time>
      </trkpt>
      <trkpt lat="37.109555974602699" lon="-8.334624962881208">
        <ele>17.920000000000002</ele>
        <time>2025-05-07T10:33:20Z</time>
      </trkpt>
      <trkpt lat="37.109487997367978" lon="-8.334647007286549">
        <ele>17.440000000000001</ele>
        <time>2025-05-07T10:33:21Z</time>
      </trkpt>
      <trkpt lat="37.109431000426412" lon="-8.334612976759672">
        <ele>17.440000000000001</ele>
        <time>2025-05-07T10:33:22Z</time>
      </trkpt>
      <trkpt lat="37.109383977949619" lon="-8.334562014788389">
        <ele>17.440000000000001</ele>
        <time>2025-05-07T10:33:23Z</time>
      </trkpt>
      <trkpt lat="37.10936201736331" lon="-8.334481967613101">
        <ele>17.440000000000001</ele>
        <time>2025-05-07T10:33:24Z</time>
      </trkpt>
      <trkpt lat="37.109349025413394" lon="-8.334438968449831">
        <ele>17.440000000000001</ele>
        <time>2025-05-07T10:33:25Z</time>
      </trkpt>
      <trkpt lat="37.109388001263142" lon="-8.334232019260526">
        <ele>17.440000000000001</ele>
        <time>2025-05-07T10:33:26Z</time>
      </trkpt>
      <trkpt lat="37.109332010149956" lon="-8.334152977913618">
        <ele>16.960000000000001</ele>
        <time>2025-05-07T10:33:27Z</time>
      </trkpt>
      <trkpt lat="37.109265960752964" lon="-8.334054993465543">
        <ele>16.48</ele>
        <time>2025-05-07T10:33:28Z</time>
      </trkpt>
      <trkpt lat="37.10919002071023" lon="-8.333939993754029">
        <ele>16.48</ele>
        <time>2025-05-07T10:33:29Z</time>
      </trkpt>
      <trkpt lat="37.109106034040451" lon="-8.3338120020926">
        <ele>16</ele>
        <time>2025-05-07T10:33:30Z</time>
      </trkpt>
      <trkpt lat="37.108109006658196" lon="-8.33230996504426">
        <ele>10.23</ele>
        <time>2025-05-07T10:33:40Z</time>
      </trkpt>
      <trkpt lat="37.107723020017147" lon="-8.331759022548795">
        <ele>8.789999999999999</ele>
        <time>2025-05-07T10:33:44Z</time>
      </trkpt>
      <trkpt lat="37.107625035569072" lon="-8.331637987866998">
        <ele>8.310000000000001</ele>
        <time>2025-05-07T10:33:45Z</time>
      </trkpt>
      <trkpt lat="37.107529984787107" lon="-8.331520976498723">
        <ele>7.83</ele>
        <time>2025-05-07T10:33:46Z</time>
      </trkpt>
      <trkpt lat="37.107441974803805" lon="-8.331419974565506">
        <ele>7.35</ele>
        <time>2025-05-07T10:33:47Z</time>
      </trkpt>
      <trkpt lat="37.107340972870588" lon="-8.331342022866011">
        <ele>6.87</ele>
        <time>2025-05-07T10:33:48Z</time>
      </trkpt>
      <trkpt lat="37.107242988422513" lon="-8.331265999004245">
        <ele>6.39</ele>
        <time>2025-05-07T10:33:49Z</time>
      </trkpt>
      <trkpt lat="37.106415024027228" lon="-8.330615982413292">
        <ele>5.42</ele>
        <time>2025-05-07T10:33:56Z</time>
      </trkpt>
      <trkpt lat="37.106314022094011" lon="-8.33050400018692">
        <ele>5.91</ele>
        <time>2025-05-07T10:33:57Z</time>
      </trkpt>
      <trkpt lat="37.106231963261962" lon="-8.330371985211968">
        <ele>5.91</ele>
        <time>2025-05-07T10:33:58Z</time>
      </trkpt>
      <trkpt lat="37.105819992721081" lon="-8.32960101775825">
        <ele>4.94</ele>
        <time>2025-05-07T10:34:04Z</time>
      </trkpt>
      <trkpt lat="37.105767019093037" lon="-8.329459028318524">
        <ele>4.94</ele>
        <time>2025-05-07T10:34:05Z</time>
      </trkpt>
      <trkpt lat="37.105364017188549" lon="-8.32805497571826">
        <ele>4.94</ele>
        <time>2025-05-07T10:34:14Z</time>
      </trkpt>
      <trkpt lat="37.105251029133797" lon="-8.327749036252499">
        <ele>4.94</ele>
        <time>2025-05-07T10:34:16Z</time>
      </trkpt>
      <trkpt lat="37.105179028585553" lon="-8.327619032934308">
        <ele>5.42</ele>
        <time>2025-05-07T10:34:17Z</time>
      </trkpt>
      <trkpt lat="37.105094958096743" lon="-8.327518031001091">
        <ele>5.91</ele>
        <time>2025-05-07T10:34:18Z</time>
      </trkpt>
      <trkpt lat="37.105011977255344" lon="-8.327425997704268">
        <ele>6.39</ele>
        <time>2025-05-07T10:34:19Z</time>
      </trkpt>
      <trkpt lat="37.104931008070707" lon="-8.327343016862869">
        <ele>6.87</ele>
        <time>2025-05-07T10:34:20Z</time>
      </trkpt>
      <trkpt lat="37.104847021400928" lon="-8.327277973294258">
        <ele>7.83</ele>
        <time>2025-05-07T10:34:21Z</time>
      </trkpt>
      <trkpt lat="37.104503028094769" lon="-8.327018972486258">
        <ele>9.75</ele>
        <time>2025-05-07T10:34:27Z</time>
      </trkpt>
      <trkpt lat="37.104503028094769" lon="-8.327018972486258">
        <ele>10.23</ele>
        <time>2025-05-07T10:34:38Z</time>
      </trkpt>
      <trkpt lat="37.104503028094769" lon="-8.327018972486258">
        <ele>10.23</ele>
        <time>2025-05-07T10:35:08Z</time>
      </trkpt>
      <trkpt lat="37.104503028094769" lon="-8.327018972486258">
        <ele>10.23</ele>
        <time>2025-05-07T10:35:41Z</time>
      </trkpt>
      <trkpt lat="37.104496993124485" lon="-8.327015032991767">
        <ele>10.23</ele>
        <time>2025-05-07T10:36:02Z</time>
      </trkpt>
      <trkpt lat="37.104417029768229" lon="-8.32695703022182">
        <ele>10.710000000000001</ele>
        <time>2025-05-07T10:36:04Z</time>
      </trkpt>
      <trkpt lat="37.104345029219985" lon="-8.326904978603125">
        <ele>10.23</ele>
        <time>2025-05-07T10:36:05Z</time>
      </trkpt>
      <trkpt lat="37.103522010147572" lon="-8.326278012245894">
        <ele>8.310000000000001</ele>
        <time>2025-05-07T10:36:13Z</time>
      </trkpt>
      <trkpt lat="37.102382993325591" lon="-8.325352985411882">
        <ele>9.27</ele>
        <time>2025-05-07T10:36:24Z</time>
      </trkpt>
      <trkpt lat="37.102300012484193" lon="-8.325261035934091">
        <ele>9.27</ele>
        <time>2025-05-07T10:36:25Z</time>
      </trkpt>
      <trkpt lat="37.101990971714258" lon="-8.324804976582527">
        <ele>10.710000000000001</ele>
        <time>2025-05-07T10:36:29Z</time>
      </trkpt>
      <trkpt lat="37.101365011185408" lon="-8.323526987805963">
        <ele>12.630000000000001</ele>
        <time>2025-05-07T10:36:36Z</time>
      </trkpt>
      <trkpt lat="37.100545009598136" lon="-8.32186602987349">
        <ele>14.08</ele>
        <time>2025-05-07T10:36:45Z</time>
      </trkpt>
      <trkpt lat="37.099617971107364" lon="-8.320035003125668">
        <ele>14.56</ele>
        <time>2025-05-07T10:36:56Z</time>
      </trkpt>
      <trkpt lat="37.09911497309804" lon="-8.318352000787854">
        <ele>15.52</ele>
        <time>2025-05-07T10:37:07Z</time>
      </trkpt>
      <trkpt lat="37.098849015310407" lon="-8.317166967317462">
        <ele>16</ele>
        <time>2025-05-07T10:37:17Z</time>
      </trkpt>
      <trkpt lat="37.098809033632278" lon="-8.317056996747851">
        <ele>16</ele>
        <time>2025-05-07T10:37:18Z</time>
      </trkpt>
      <trkpt lat="37.098767962306738" lon="-8.316948032006621">
        <ele>15.039999999999999</ele>
        <time>2025-05-07T10:37:19Z</time>
      </trkpt>
      <trkpt lat="37.098200004547834" lon="-8.315568035468459">
        <ele>10.23</ele>
        <time>2025-05-07T10:37:30Z</time>
      </trkpt>
      <trkpt lat="37.097628023475409" lon="-8.314086031168699">
        <ele>9.27</ele>
        <time>2025-05-07T10:37:41Z</time>
      </trkpt>
      <trkpt lat="37.096940958872437" lon="-8.312659012153745">
        <ele>11.67</ele>
        <time>2025-05-07T10:37:52Z</time>
      </trkpt>
      <trkpt lat="37.096830988302827" lon="-8.31239003688097">
        <ele>11.67</ele>
        <time>2025-05-07T10:37:54Z</time>
      </trkpt>
      <trkpt lat="37.096800981089473" lon="-8.312256010249257">
        <ele>11.67</ele>
        <time>2025-05-07T10:37:55Z</time>
      </trkpt>
      <trkpt lat="37.096774997189641" lon="-8.312101028859615">
        <ele>11.19</ele>
        <time>2025-05-07T10:37:56Z</time>
      </trkpt>
      <trkpt lat="37.096774997189641" lon="-8.311965996399522">
        <ele>11.19</ele>
        <time>2025-05-07T10:37:57Z</time>
      </trkpt>
      <trkpt lat="37.096785977482796" lon="-8.311816966161132">
        <ele>11.19</ele>
        <time>2025-05-07T10:37:58Z</time>
      </trkpt>
      <trkpt lat="37.096799975261092" lon="-8.311665002256632">
        <ele>11.67</ele>
        <time>2025-05-07T10:37:59Z</time>
      </trkpt>
      <trkpt lat="37.096817996352911" lon="-8.311479007825255">
        <ele>11.67</ele>
        <time>2025-05-07T10:38:00Z</time>
      </trkpt>
      <trkpt lat="37.096939031034708" lon="-8.309887032955885">
        <ele>16.960000000000001</ele>
        <time>2025-05-07T10:38:12Z</time>
      </trkpt>
      <trkpt lat="37.09696602076292" lon="-8.309586960822344">
        <ele>19.84</ele>
        <time>2025-05-07T10:38:20Z</time>
      </trkpt>
      <trkpt lat="37.096897959709167" lon="-8.309411024674773">
        <ele>22.25</ele>
        <time>2025-05-07T10:38:32Z</time>
      </trkpt>
      <trkpt lat="37.096867030486465" lon="-8.309335000813007">
        <ele>22.73</ele>
        <time>2025-05-07T10:38:45Z</time>
      </trkpt>
      <trkpt lat="37.096883039921522" lon="-8.309289989992976">
        <ele>22.73</ele>
        <time>2025-05-07T10:38:46Z</time>
      </trkpt>
      <trkpt lat="37.096898965537548" lon="-8.309239028021693">
        <ele>22.73</ele>
        <time>2025-05-07T10:38:47Z</time>
      </trkpt>
      <trkpt lat="37.09694498218596" lon="-8.309226036071777">
        <ele>22.73</ele>
        <time>2025-05-07T10:38:48Z</time>
      </trkpt>
      <trkpt lat="37.096981024369597" lon="-8.309226036071777">
        <ele>22.73</ele>
        <time>2025-05-07T10:38:49Z</time>
      </trkpt>
      <trkpt lat="37.097011031582952" lon="-8.309226036071777">
        <ele>23.210000000000001</ele>
        <time>2025-05-07T10:38:50Z</time>
      </trkpt>
      <trkpt lat="37.097011031582952" lon="-8.309226036071777">
        <ele>23.210000000000001</ele>
        <time>2025-05-07T10:38:51Z</time>
      </trkpt>
      <trkpt lat="37.097136005759239" lon="-8.30936199054122">
        <ele>23.210000000000001</ele>
        <time>2025-05-07T10:38:52Z</time>
      </trkpt>
      <trkpt lat="37.097263997420669" lon="-8.309371965005994">
        <ele>23.690000000000001</ele>
        <time>2025-05-07T10:38:54Z</time>
      </trkpt>
      <trkpt lat="37.097334992140532" lon="-8.309375988319516">
        <ele>23.690000000000001</ele>
        <time>2025-05-07T10:38:55Z</time>
      </trkpt>
      <trkpt lat="37.097663981840014" lon="-8.309369031339884">
        <ele>26.57</ele>
        <time>2025-05-07T10:39:04Z</time>
      </trkpt>
      <trkpt lat="37.097901022061706" lon="-8.3093629963696">
        <ele>28.02</ele>
        <time>2025-05-07T10:39:14Z</time>
      </trkpt>
      <trkpt lat="37.098422041162848" lon="-8.309327960014343">
        <ele>30.420000000000002</ele>
        <time>2025-05-07T10:39:21Z</time>
      </trkpt>
      <trkpt lat="37.09849001839757" lon="-8.309314968064427">
        <ele>30.420000000000002</ele>
        <time>2025-05-07T10:39:22Z</time>
      </trkpt>
      <trkpt lat="37.098554978147149" lon="-8.309302981942892">
        <ele>30.899999999999999</ele>
        <time>2025-05-07T10:39:23Z</time>
      </trkpt>
      <trkpt lat="37.098644999787211" lon="-8.309238022193313">
        <ele>31.379999999999999</ele>
        <time>2025-05-07T10:39:24Z</time>
      </trkpt>
      <trkpt lat="37.098682969808578" lon="-8.309158980846405">
        <ele>31.859999999999999</ele>
        <time>2025-05-07T10:39:25Z</time>
      </trkpt>
      <trkpt lat="37.098724041134119" lon="-8.309072982519865">
        <ele>32.340000000000003</ele>
        <time>2025-05-07T10:39:26Z</time>
      </trkpt>
      <trkpt lat="37.098796963691711" lon="-8.308919006958604">
        <ele>32.82</ele>
        <time>2025-05-07T10:39:28Z</time>
      </trkpt>
      <trkpt lat="37.098839962854981" lon="-8.308837031945586">
        <ele>33.299999999999997</ele>
        <time>2025-05-07T10:39:29Z</time>
      </trkpt>
      <trkpt lat="37.098905006423593" lon="-8.308797972276807">
        <ele>34.259999999999998</ele>
        <time>2025-05-07T10:39:30Z</time>
      </trkpt>
      <trkpt lat="37.09911597892642" lon="-8.308671992272139">
        <ele>35.710000000000001</ele>
        <time>2025-05-07T10:39:33Z</time>
      </trkpt>
      <trkpt lat="37.099187979474664" lon="-8.308634022250772">
        <ele>35.710000000000001</ele>
        <time>2025-05-07T10:39:34Z</time>
      </trkpt>
      <trkpt lat="37.09958796389401" lon="-8.308474011719227">
        <ele>35.710000000000001</ele>
        <time>2025-05-07T10:39:39Z</time>
      </trkpt>
      <trkpt lat="37.099741017445922" lon="-8.308412991464138">
        <ele>36.189999999999998</ele>
        <time>2025-05-07T10:39:41Z</time>
      </trkpt>
      <trkpt lat="37.099814023822546" lon="-8.308383990079165">
        <ele>36.189999999999998</ele>
        <time>2025-05-07T10:39:42Z</time>
      </trkpt>
      <trkpt lat="37.100069001317024" lon="-8.308254992589355">
        <ele>37.149999999999999</ele>
        <time>2025-05-07T10:39:46Z</time>
      </trkpt>
      <trkpt lat="37.100129015743732" lon="-8.30820201896131">
        <ele>37.149999999999999</ele>
        <time>2025-05-07T10:39:47Z</time>
      </trkpt>
      <trkpt lat="37.100269999355078" lon="-8.308101017028093">
        <ele>37.630000000000003</ele>
        <time>2025-05-07T10:39:49Z</time>
      </trkpt>
      <trkpt lat="37.10033898241818" lon="-8.308065980672836">
        <ele>38.109999999999999</ele>
        <time>2025-05-07T10:39:50Z</time>
      </trkpt>
      <trkpt lat="37.100409977138042" lon="-8.308031028136611">
        <ele>38.590000000000003</ele>
        <time>2025-05-07T10:39:51Z</time>
      </trkpt>
      <trkpt lat="37.100758999586105" lon="-8.307840004563332">
        <ele>41.469999999999999</ele>
        <time>2025-05-07T10:39:56Z</time>
      </trkpt>
      <trkpt lat="37.100808033719659" lon="-8.307804968208075">
        <ele>41.950000000000003</ele>
        <time>2025-05-07T10:39:57Z</time>
      </trkpt>
      <trkpt lat="37.100909035652876" lon="-8.307732967659831">
        <ele>42.439999999999998</ele>
        <time>2025-05-07T10:39:59Z</time>
      </trkpt>
      <trkpt lat="37.100981036201119" lon="-8.307680999860168">
        <ele>42.920000000000002</ele>
        <time>2025-05-07T10:40:00Z</time>
      </trkpt>
      <trkpt lat="37.101425025612116" lon="-8.307680999860168">
        <ele>45.32</ele>
        <time>2025-05-07T10:40:08Z</time>
      </trkpt>
      <trkpt lat="37.101442962884903" lon="-8.307680999860168">
        <ele>45.32</ele>
        <time>2025-05-07T10:40:09Z</time>
      </trkpt>
      <trkpt lat="37.101446986198425" lon="-8.307631965726614">
        <ele>45.799999999999997</ele>
        <time>2025-05-07T10:40:10Z</time>
      </trkpt>
      <trkpt lat="37.101442962884903" lon="-8.307593995705247">
        <ele>45.799999999999997</ele>
        <time>2025-05-07T10:40:11Z</time>
      </trkpt>
      <trkpt lat="37.101437011733651" lon="-8.307538004592061">
        <ele>45.799999999999997</ele>
        <time>2025-05-07T10:40:12Z</time>
      </trkpt>
      <trkpt lat="37.101429970934987" lon="-8.307472039014101">
        <ele>45.799999999999997</ele>
        <time>2025-05-07T10:40:13Z</time>
      </trkpt>
      <trkpt lat="37.101422008126974" lon="-8.307403977960348">
        <ele>45.799999999999997</ele>
        <time>2025-05-07T10:40:14Z</time>
      </trkpt>
      <trkpt lat="37.101359982043505" lon="-8.307012962177396">
        <ele>45.799999999999997</ele>
        <time>2025-05-07T10:40:22Z</time>
      </trkpt>
      <trkpt lat="37.101337015628815" lon="-8.306938027963042">
        <ele>45.799999999999997</ele>
        <time>2025-05-07T10:40:23Z</time>
      </trkpt>
      <trkpt lat="37.101238025352359" lon="-8.306641979143024">
        <ele>46.280000000000001</ele>
        <time>2025-05-07T10:40:27Z</time>
      </trkpt>
      <trkpt lat="37.101143980398774" lon="-8.30641801469028">
        <ele>46.280000000000001</ele>
        <time>2025-05-07T10:40:30Z</time>
      </trkpt>
      <trkpt lat="37.101112967357039" lon="-8.306344002485275">
        <ele>46.759999999999998</ele>
        <time>2025-05-07T10:40:31Z</time>
      </trkpt>
      <trkpt lat="37.101078014820814" lon="-8.306262027472258">
        <ele>46.759999999999998</ele>
        <time>2025-05-07T10:40:32Z</time>
      </trkpt>
      <trkpt lat="37.101039960980415" lon="-8.306169994175434">
        <ele>46.759999999999998</ele>
        <time>2025-05-07T10:40:33Z</time>
      </trkpt>
      <trkpt lat="37.101000985130668" lon="-8.306077038869262">
        <ele>46.759999999999998</ele>
        <time>2025-05-07T10:40:34Z</time>
      </trkpt>
      <trkpt lat="37.100955974310637" lon="-8.305989028885961">
        <ele>46.759999999999998</ele>
        <time>2025-05-07T10:40:35Z</time>
      </trkpt>
      <trkpt lat="37.100904006510973" lon="-8.30590495839715">
        <ele>46.759999999999998</ele>
        <time>2025-05-07T10:40:36Z</time>
      </trkpt>
      <trkpt lat="37.100852960720658" lon="-8.305820971727371">
        <ele>47.240000000000002</ele>
        <time>2025-05-07T10:40:37Z</time>
      </trkpt>
      <trkpt lat="37.10051198489964" lon="-8.30540799535811">
        <ele>47.719999999999999</ele>
        <time>2025-05-07T10:40:42Z</time>
      </trkpt>
      <trkpt lat="37.100433027371764" lon="-8.305317973718047">
        <ele>48.68</ele>
        <time>2025-05-07T10:40:43Z</time>
      </trkpt>
      <trkpt lat="37.099999012425542" lon="-8.304754961282015">
        <ele>52.530000000000001</ele>
        <time>2025-05-07T10:40:49Z</time>
      </trkpt>
      <trkpt lat="37.099942015483975" lon="-8.304662005975843">
        <ele>52.530000000000001</ele>
        <time>2025-05-07T10:40:50Z</time>
      </trkpt>
      <trkpt lat="37.0995850302279" lon="-8.303703032433987">
        <ele>52.530000000000001</ele>
        <time>2025-05-07T10:40:58Z</time>
      </trkpt>
      <trkpt lat="37.099509006366134" lon="-8.303542016074061">
        <ele>52.049999999999997</ele>
        <time>2025-05-07T10:41:00Z</time>
      </trkpt>
      <trkpt lat="37.099487967789173" lon="-8.30349700525403">
        <ele>52.049999999999997</ele>
        <time>2025-05-07T10:41:01Z</time>
      </trkpt>
      <trkpt lat="37.099475981667638" lon="-8.303472027182579">
        <ele>52.049999999999997</ele>
        <time>2025-05-07T10:41:02Z</time>
      </trkpt>
      <trkpt lat="37.09945703856647" lon="-8.3034329675138">
        <ele>51.57</ele>
        <time>2025-05-07T10:41:13Z</time>
      </trkpt>
      <trkpt lat="37.099445974454284" lon="-8.303402038291097">
        <ele>51.57</ele>
        <time>2025-05-07T10:41:14Z</time>
      </trkpt>
      <trkpt lat="37.099325023591518" lon="-8.303049998357892">
        <ele>51.57</ele>
        <time>2025-05-07T10:41:18Z</time>
      </trkpt>
      <trkpt lat="37.099248999729753" lon="-8.302688989788294">
        <ele>51.57</ele>
        <time>2025-05-07T10:41:21Z</time>
      </trkpt>
      <trkpt lat="37.099242964759469" lon="-8.302564015612006">
        <ele>51.57</ele>
        <time>2025-05-07T10:41:22Z</time>
      </trkpt>
      <trkpt lat="37.099242964759469" lon="-8.302448010072112">
        <ele>51.57</ele>
        <time>2025-05-07T10:41:23Z</time>
      </trkpt>
      <trkpt lat="37.099255034700036" lon="-8.30233602784574">
        <ele>51.57</ele>
        <time>2025-05-07T10:41:24Z</time>
      </trkpt>
      <trkpt lat="37.099280012771487" lon="-8.302240977063775">
        <ele>51.57</ele>
        <time>2025-05-07T10:41:25Z</time>
      </trkpt>
      <trkpt lat="37.099302979186177" lon="-8.302152967080474">
        <ele>52.049999999999997</ele>
        <time>2025-05-07T10:41:26Z</time>
      </trkpt>
      <trkpt lat="37.09932804107666" lon="-8.302059005945921">
        <ele>52.049999999999997</ele>
        <time>2025-05-07T10:41:27Z</time>
      </trkpt>
      <trkpt lat="37.09954303689301" lon="-8.301193993538618">
        <ele>53.490000000000002</ele>
        <time>2025-05-07T10:41:39Z</time>
      </trkpt>
      <trkpt lat="37.09954303689301" lon="-8.301116041839123">
        <ele>53.490000000000002</ele>
        <time>2025-05-07T10:41:40Z</time>
      </trkpt>
      <trkpt lat="37.099483022466302" lon="-8.300422020256519">
        <ele>54.93</ele>
        <time>2025-05-07T10:41:49Z</time>
      </trkpt>
      <trkpt lat="37.099469024688005" lon="-8.30035999417305">
        <ele>54.93</ele>
        <time>2025-05-07T10:41:50Z</time>
      </trkpt>
      <trkpt lat="37.099457960575819" lon="-8.300312971696258">
        <ele>54.93</ele>
        <time>2025-05-07T10:41:51Z</time>
      </trkpt>
      <trkpt lat="37.099453015252948" lon="-8.300288999453187">
        <ele>54.93</ele>
        <time>2025-05-07T10:41:59Z</time>
      </trkpt>
      <trkpt lat="37.099452009424567" lon="-8.300283970311284">
        <ele>54.93</ele>
        <time>2025-05-07T10:42:02Z</time>
      </trkpt>
      <trkpt lat="37.09943599998951" lon="-8.300213981419802">
        <ele>54.93</ele>
        <time>2025-05-07T10:42:03Z</time>
      </trkpt>
      <trkpt lat="37.099440023303032" lon="-8.300197971984744">
        <ele>54.93</ele>
        <time>2025-05-07T10:42:04Z</time>
      </trkpt>
      <trkpt lat="37.099474975839257" lon="-8.300066962838173">
        <ele>53.969999999999999</ele>
        <time>2025-05-07T10:42:06Z</time>
      </trkpt>
      <trkpt lat="37.099535996094346" lon="-8.299837969243527">
        <ele>53.009999999999998</ele>
        <time>2025-05-07T10:42:10Z</time>
      </trkpt>
      <trkpt lat="37.099606990814209" lon="-8.299432033672929">
        <ele>51.57</ele>
        <time>2025-05-07T10:42:17Z</time>
      </trkpt>
      <trkpt lat="37.099606990814209" lon="-8.299363972619176">
        <ele>51.57</ele>
        <time>2025-05-07T10:42:18Z</time>
      </trkpt>
      <trkpt lat="37.099606990814209" lon="-8.299298007041216">
        <ele>51.57</ele>
        <time>2025-05-07T10:42:19Z</time>
      </trkpt>
      <trkpt lat="37.099578995257616" lon="-8.298958959057927">
        <ele>51.57</ele>
        <time>2025-05-07T10:42:24Z</time>
      </trkpt>
      <trkpt lat="37.099454021081328" lon="-8.298570960760117">
        <ele>47.719999999999999</ele>
        <time>2025-05-07T10:42:32Z</time>
      </trkpt>
      <trkpt lat="37.099434994161129" lon="-8.298519998788834">
        <ele>47.240000000000002</ele>
        <time>2025-05-07T10:42:33Z</time>
      </trkpt>
      <trkpt lat="37.099313037469983" lon="-8.298213975504041">
        <ele>44.840000000000003</ele>
        <time>2025-05-07T10:42:39Z</time>
      </trkpt>
      <trkpt lat="37.09928403608501" lon="-8.2981660310179">
        <ele>44.359999999999999</ele>
        <time>2025-05-07T10:42:40Z</time>
      </trkpt>
      <trkpt lat="37.099250005558133" lon="-8.298110961914063">
        <ele>43.880000000000003</ele>
        <time>2025-05-07T10:42:41Z</time>
      </trkpt>
      <trkpt lat="37.099213041365147" lon="-8.298051031306386">
        <ele>43.399999999999999</ele>
        <time>2025-05-07T10:42:42Z</time>
      </trkpt>
      <trkpt lat="37.099175993353128" lon="-8.297990011051297">
        <ele>42.920000000000002</ele>
        <time>2025-05-07T10:42:43Z</time>
      </trkpt>
      <trkpt lat="37.099141040816903" lon="-8.297933014109731">
        <ele>42.439999999999998</ele>
        <time>2025-05-07T10:42:44Z</time>
      </trkpt>
      <trkpt lat="37.09909200668335" lon="-8.297853972762823">
        <ele>41.950000000000003</ele>
        <time>2025-05-07T10:42:45Z</time>
      </trkpt>
      <trkpt lat="37.099052025005221" lon="-8.29761098138988">
        <ele>40.990000000000002</ele>
        <time>2025-05-07T10:42:49Z</time>
      </trkpt>
      <trkpt lat="37.098978012800217" lon="-8.297165986150503">
        <ele>39.549999999999997</ele>
        <time>2025-05-07T10:42:56Z</time>
      </trkpt>
      <trkpt lat="37.098967032507062" lon="-8.297103960067034">
        <ele>39.549999999999997</ele>
        <time>2025-05-07T10:42:57Z</time>
      </trkpt>
      <trkpt lat="37.098928978666663" lon="-8.296872032806277">
        <ele>39.07</ele>
        <time>2025-05-07T10:43:01Z</time>
      </trkpt>
      <trkpt lat="37.098823031410575" lon="-8.296714033931494">
        <ele>39.549999999999997</ele>
        <time>2025-05-07T10:43:06Z</time>
      </trkpt>
      <trkpt lat="37.098784977570176" lon="-8.296723002567887">
        <ele>39.07</ele>
        <time>2025-05-07T10:43:07Z</time>
      </trkpt>
      <trkpt lat="37.098752958700061" lon="-8.2967309653759">
        <ele>39.07</ele>
        <time>2025-05-07T10:43:08Z</time>
      </trkpt>
      <trkpt lat="37.098720017820597" lon="-8.296740017831326">
        <ele>39.07</ele>
        <time>2025-05-07T10:43:09Z</time>
      </trkpt>
      <trkpt lat="37.09868498146534" lon="-8.296747980639339">
        <ele>38.590000000000003</ele>
        <time>2025-05-07T10:43:10Z</time>
      </trkpt>
      <trkpt lat="37.098370995372534" lon="-8.296827021986246">
        <ele>38.590000000000003</ele>
        <time>2025-05-07T10:43:18Z</time>
      </trkpt>
      <trkpt lat="37.098288014531136" lon="-8.296847976744175">
        <ele>38.590000000000003</ele>
        <time>2025-05-07T10:43:20Z</time>
      </trkpt>
      <trkpt lat="37.098247027024627" lon="-8.296858035027981">
        <ele>38.109999999999999</ele>
        <time>2025-05-07T10:43:21Z</time>
      </trkpt>
      <trkpt lat="37.09780496545136" lon="-8.296931963413954">
        <ele>41.469999999999999</ele>
        <time>2025-05-07T10:43:30Z</time>
      </trkpt>
      <trkpt lat="37.097462983801961" lon="-8.296992983669043">
        <ele>43.880000000000003</ele>
        <time>2025-05-07T10:43:36Z</time>
      </trkpt>
      <trkpt lat="37.097416967153549" lon="-8.297016033902764">
        <ele>43.880000000000003</ele>
        <time>2025-05-07T10:43:37Z</time>
      </trkpt>
      <trkpt lat="37.097371034324169" lon="-8.297036988660693">
        <ele>44.840000000000003</ele>
        <time>2025-05-07T10:43:38Z</time>
      </trkpt>
      <trkpt lat="37.097232984378934" lon="-8.297103038057685">
        <ele>46.280000000000001</ele>
        <time>2025-05-07T10:43:41Z</time>
      </trkpt>
      <trkpt lat="37.097182022407651" lon="-8.297128016129136">
        <ele>46.759999999999998</ele>
        <time>2025-05-07T10:43:42Z</time>
      </trkpt>
      <trkpt lat="37.097070040181279" lon="-8.297181995585561">
        <ele>48.68</ele>
        <time>2025-05-07T10:43:44Z</time>
      </trkpt>
      <trkpt lat="37.097014971077442" lon="-8.297207979485393">
        <ele>49.649999999999999</ele>
        <time>2025-05-07T10:43:45Z</time>
      </trkpt>
      <trkpt lat="37.09696501493454" lon="-8.297259025275707">
        <ele>50.130000000000003</ele>
        <time>2025-05-07T10:43:46Z</time>
      </trkpt>
      <trkpt lat="37.096918998286128" lon="-8.29730898141861">
        <ele>51.090000000000003</ele>
        <time>2025-05-07T10:43:47Z</time>
      </trkpt>
      <trkpt lat="37.096873987466097" lon="-8.297358015552163">
        <ele>51.57</ele>
        <time>2025-05-07T10:43:48Z</time>
      </trkpt>
      <trkpt lat="37.096716994419694" lon="-8.297529006376863">
        <ele>53.490000000000002</ele>
        <time>2025-05-07T10:43:52Z</time>
      </trkpt>
      <trkpt lat="37.096684975549579" lon="-8.297563036903739">
        <ele>53.969999999999999</ele>
        <time>2025-05-07T10:43:53Z</time>
      </trkpt>
      <trkpt lat="37.096656979992986" lon="-8.297592960298061">
        <ele>54.450000000000003</ele>
        <time>2025-05-07T10:43:54Z</time>
      </trkpt>
      <trkpt lat="37.096554972231388" lon="-8.297704020515084">
        <ele>55.890000000000001</ele>
        <time>2025-05-07T10:44:03Z</time>
      </trkpt>
      <trkpt lat="37.096573999151587" lon="-8.297751965001226">
        <ele>52.049999999999997</ele>
        <time>2025-05-07T10:49:12Z</time>
      </trkpt>
      <trkpt lat="37.096554972231388" lon="-8.29775900579989">
        <ele>62.619999999999997</ele>
        <time>2025-05-07T10:49:55Z</time>
      </trkpt>
      <trkpt lat="37.096568970009685" lon="-8.297737967222929">
        <ele>61.659999999999997</ele>
        <time>2025-05-07T10:50:39Z</time>
      </trkpt>
      <trkpt lat="37.096566036343575" lon="-8.297747019678354">
        <ele>61.18</ele>
        <time>2025-05-07T10:51:29Z</time>
      </trkpt>
      <trkpt lat="37.096562013030052" lon="-8.297744002193213">
        <ele>60.700000000000003</ele>
        <time>2025-05-07T10:52:15Z</time>
      </trkpt>
      <trkpt lat="37.096562013030052" lon="-8.297746013849974">
        <ele>60.700000000000003</ele>
        <time>2025-05-07T10:53:00Z</time>
      </trkpt>
      <trkpt lat="37.09655899554491" lon="-8.297742996364832">
        <ele>60.219999999999999</ele>
        <time>2025-05-07T10:53:40Z</time>
      </trkpt>
      <trkpt lat="37.09645296446979" lon="-8.297907030209899">
        <ele>59.259999999999998</ele>
        <time>2025-05-07T10:53:53Z</time>
      </trkpt>
      <trkpt lat="37.096434021368623" lon="-8.297968972474337">
        <ele>58.299999999999997</ele>
        <time>2025-05-07T10:54:02Z</time>
      </trkpt>
      <trkpt lat="37.096400996670127" lon="-8.298081960529089">
        <ele>58.299999999999997</ele>
        <time>2025-05-07T10:54:23Z</time>
      </trkpt>
      <trkpt lat="37.096379036083817" lon="-8.298165025189519">
        <ele>57.82</ele>
        <time>2025-05-07T10:54:24Z</time>
      </trkpt>
      <trkpt lat="37.096353974193335" lon="-8.298259992152453">
        <ele>57.340000000000003</ele>
        <time>2025-05-07T10:54:25Z</time>
      </trkpt>
      <trkpt lat="37.096327990293503" lon="-8.298359988257289">
        <ele>56.859999999999999</ele>
        <time>2025-05-07T10:54:26Z</time>
      </trkpt>
      <trkpt lat="37.09630100056529" lon="-8.298463001847267">
        <ele>56.369999999999997</ele>
        <time>2025-05-07T10:54:27Z</time>
      </trkpt>
      <trkpt lat="37.096260013058782" lon="-8.298689983785152">
        <ele>55.409999999999997</ele>
        <time>2025-05-07T10:54:29Z</time>
      </trkpt>
      <trkpt lat="37.096231011673808" lon="-8.298999024555087">
        <ele>54.450000000000003</ele>
        <time>2025-05-07T10:54:32Z</time>
      </trkpt>
      <trkpt lat="37.096217013895512" lon="-8.299141013994813">
        <ele>53.969999999999999</ele>
        <time>2025-05-07T10:54:33Z</time>
      </trkpt>
      <trkpt lat="37.09606303833425" lon="-8.299461035057902">
        <ele>53.490000000000002</ele>
        <time>2025-05-07T10:54:38Z</time>
      </trkpt>
      <trkpt lat="37.096014004200697" lon="-8.299525994807482">
        <ele>53.490000000000002</ele>
        <time>2025-05-07T10:54:39Z</time>
      </trkpt>
      <trkpt lat="37.095960024744272" lon="-8.299597995355725">
        <ele>53.490000000000002</ele>
        <time>2025-05-07T10:54:40Z</time>
      </trkpt>
      <trkpt lat="37.095900010317564" lon="-8.299677958711982">
        <ele>53.009999999999998</ele>
        <time>2025-05-07T10:54:41Z</time>
      </trkpt>
      <trkpt lat="37.095834966748953" lon="-8.299765968695283">
        <ele>52.530000000000001</ele>
        <time>2025-05-07T10:54:42Z</time>
      </trkpt>
      <trkpt lat="37.095764977857471" lon="-8.299858001992106">
        <ele>51.57</ele>
        <time>2025-05-07T10:54:43Z</time>
      </trkpt>
      <trkpt lat="37.095705969259143" lon="-8.299963027238846">
        <ele>51.090000000000003</ele>
        <time>2025-05-07T10:54:44Z</time>
      </trkpt>
      <trkpt lat="37.095465995371342" lon="-8.300513969734311">
        <ele>47.240000000000002</ele>
        <time>2025-05-07T10:54:49Z</time>
      </trkpt>
      <trkpt lat="37.095389971509576" lon="-8.300610026344657">
        <ele>46.280000000000001</ele>
        <time>2025-05-07T10:54:50Z</time>
      </trkpt>
      <trkpt lat="37.095310008153319" lon="-8.300669034942985">
        <ele>45.32</ele>
        <time>2025-05-07T10:54:51Z</time>
      </trkpt>
      <trkpt lat="37.095028040930629" lon="-8.300862992182374">
        <ele>42.439999999999998</ele>
        <time>2025-05-07T10:54:54Z</time>
      </trkpt>
      <trkpt lat="37.094931984320283" lon="-8.300909008830786">
        <ele>41.950000000000003</ele>
        <time>2025-05-07T10:54:55Z</time>
      </trkpt>
      <trkpt lat="37.094389004632831" lon="-8.301116963848472">
        <ele>39.07</ele>
        <time>2025-05-07T10:55:00Z</time>
      </trkpt>
      <trkpt lat="37.093564979732037" lon="-8.301386022940278">
        <ele>35.710000000000001</ele>
        <time>2025-05-07T10:55:08Z</time>
      </trkpt>
      <trkpt lat="37.093246970325708" lon="-8.30147897824645">
        <ele>32.82</ele>
        <time>2025-05-07T10:55:15Z</time>
      </trkpt>
      <trkpt lat="37.093222998082638" lon="-8.301486019045115">
        <ele>32.340000000000003</ele>
        <time>2025-05-07T10:55:19Z</time>
      </trkpt>
      <trkpt lat="37.093170024454594" lon="-8.301501022651792">
        <ele>31.859999999999999</ele>
        <time>2025-05-07T10:55:20Z</time>
      </trkpt>
      <trkpt lat="37.093138005584478" lon="-8.301446959376335">
        <ele>31.859999999999999</ele>
        <time>2025-05-07T10:55:21Z</time>
      </trkpt>
      <trkpt lat="37.093090983107686" lon="-8.301366996020079">
        <ele>31.859999999999999</ele>
        <time>2025-05-07T10:55:22Z</time>
      </trkpt>
      <trkpt lat="37.09303398616612" lon="-8.301269011572003">
        <ele>31.859999999999999</ele>
        <time>2025-05-07T10:55:23Z</time>
      </trkpt>
      <trkpt lat="37.092348011210561" lon="-8.300094036385417">
        <ele>31.379999999999999</ele>
        <time>2025-05-07T10:55:32Z</time>
      </trkpt>
      <trkpt lat="37.091747028753161" lon="-8.298675986006856">
        <ele>32.82</ele>
        <time>2025-05-07T10:55:41Z</time>
      </trkpt>
      <trkpt lat="37.09105996415019" lon="-8.297092979773879">
        <ele>34.740000000000002</ele>
        <time>2025-05-07T10:55:52Z</time>
      </trkpt>
      <trkpt lat="37.090287990868092" lon="-8.295523971319199">
        <ele>32.340000000000003</ele>
        <time>2025-05-07T10:56:04Z</time>
      </trkpt>
      <trkpt lat="37.089228015393019" lon="-8.294036015868187">
        <ele>28.02</ele>
        <time>2025-05-07T10:56:17Z</time>
      </trkpt>
      <trkpt lat="37.089136987924576" lon="-8.293939037248492">
        <ele>28.02</ele>
        <time>2025-05-07T10:56:18Z</time>
      </trkpt>
      <trkpt lat="37.089043026790023" lon="-8.293839963153005">
        <ele>28.02</ele>
        <time>2025-05-07T10:56:19Z</time>
      </trkpt>
      <trkpt lat="37.088943030685186" lon="-8.293734015896916">
        <ele>28.02</ele>
        <time>2025-05-07T10:56:20Z</time>
      </trkpt>
      <trkpt lat="37.088849991559982" lon="-8.293664027005434">
        <ele>28.5</ele>
        <time>2025-05-07T10:56:21Z</time>
      </trkpt>
      <trkpt lat="37.088754018768668" lon="-8.293594038113952">
        <ele>28.5</ele>
        <time>2025-05-07T10:56:22Z</time>
      </trkpt>
      <trkpt lat="37.088196035474539" lon="-8.293201010674238">
        <ele>30.420000000000002</ele>
        <time>2025-05-07T10:56:28Z</time>
      </trkpt>
      <trkpt lat="37.088099978864193" lon="-8.293105959892273">
        <ele>30.899999999999999</ele>
        <time>2025-05-07T10:56:29Z</time>
      </trkpt>
      <trkpt lat="37.088023032993078" lon="-8.292985009029508">
        <ele>30.899999999999999</ele>
        <time>2025-05-07T10:56:30Z</time>
      </trkpt>
      <trkpt lat="37.087958995252848" lon="-8.292851988226175">
        <ele>31.379999999999999</ele>
        <time>2025-05-07T10:56:31Z</time>
      </trkpt>
      <trkpt lat="37.087898980826139" lon="-8.292726008221507">
        <ele>31.379999999999999</ele>
        <time>2025-05-07T10:56:32Z</time>
      </trkpt>
      <trkpt lat="37.087131030857563" lon="-8.290989026427269">
        <ele>34.259999999999998</ele>
        <time>2025-05-07T10:56:45Z</time>
      </trkpt>
      <trkpt lat="37.086590984836221" lon="-8.28961699269712">
        <ele>38.590000000000003</ele>
        <time>2025-05-07T10:56:55Z</time>
      </trkpt>
      <trkpt lat="37.086557038128376" lon="-8.289469974115491">
        <ele>38.590000000000003</ele>
        <time>2025-05-07T10:56:56Z</time>
      </trkpt>
      <trkpt lat="37.086099972948432" lon="-8.287228988483548">
        <ele>37.630000000000003</ele>
        <time>2025-05-07T10:57:11Z</time>
      </trkpt>
      <trkpt lat="37.085825968533754" lon="-8.28555696643889">
        <ele>36.189999999999998</ele>
        <time>2025-05-07T10:57:23Z</time>
      </trkpt>
      <trkpt lat="37.085703006014228" lon="-8.284452985972166">
        <ele>30.899999999999999</ele>
        <time>2025-05-07T10:57:32Z</time>
      </trkpt>
      <trkpt lat="37.085550958290696" lon="-8.282958995550871">
        <ele>22.73</ele>
        <time>2025-05-07T10:57:42Z</time>
      </trkpt>
      <trkpt lat="37.085380973294377" lon="-8.281310023739934">
        <ele>15.52</ele>
        <time>2025-05-07T10:57:53Z</time>
      </trkpt>
      <trkpt lat="37.085360018536448" lon="-8.279356034472585">
        <ele>12.15</ele>
        <time>2025-05-07T10:58:06Z</time>
      </trkpt>
      <trkpt lat="37.085459008812904" lon="-8.277599019929767">
        <ele>11.19</ele>
        <time>2025-05-07T10:58:18Z</time>
      </trkpt>
      <trkpt lat="37.085455991327763" lon="-8.277473961934447">
        <ele>10.710000000000001</ele>
        <time>2025-05-07T10:58:19Z</time>
      </trkpt>
      <trkpt lat="37.085426989942789" lon="-8.277372037991881">
        <ele>10.710000000000001</ele>
        <time>2025-05-07T10:58:20Z</time>
      </trkpt>
      <trkpt lat="37.085333028808236" lon="-8.277288973331451">
        <ele>10.710000000000001</ele>
        <time>2025-05-07T10:58:21Z</time>
      </trkpt>
      <trkpt lat="37.085273014381528" lon="-8.277195012196899">
        <ele>10.710000000000001</ele>
        <time>2025-05-07T10:58:22Z</time>
      </trkpt>
      <trkpt lat="37.085188021883368" lon="-8.277060985565186">
        <ele>10.710000000000001</ele>
        <time>2025-05-07T10:58:23Z</time>
      </trkpt>
      <trkpt lat="37.085177963599563" lon="-8.276966018602252">
        <ele>10.710000000000001</ele>
        <time>2025-05-07T10:58:24Z</time>
      </trkpt>
      <trkpt lat="37.085163965821266" lon="-8.2768340036273">
        <ele>10.710000000000001</ele>
        <time>2025-05-07T10:58:25Z</time>
      </trkpt>
      <trkpt lat="37.085145022720098" lon="-8.276169989258051">
        <ele>10.710000000000001</ele>
        <time>2025-05-07T10:58:31Z</time>
      </trkpt>
      <trkpt lat="37.085145022720098" lon="-8.276131013408303">
        <ele>10.23</ele>
        <time>2025-05-07T10:58:32Z</time>
      </trkpt>
      <trkpt lat="37.085145022720098" lon="-8.276107963174582">
        <ele>10.23</ele>
        <time>2025-05-07T10:58:33Z</time>
      </trkpt>
      <trkpt lat="37.085145022720098" lon="-8.276086002588272">
        <ele>10.23</ele>
        <time>2025-05-07T10:58:34Z</time>
      </trkpt>
      <trkpt lat="37.085145022720098" lon="-8.276052977889776">
        <ele>9.75</ele>
        <time>2025-05-07T10:58:35Z</time>
      </trkpt>
      <trkpt lat="37.085144016891718" lon="-8.275992041453719">
        <ele>9.27</ele>
        <time>2025-05-07T10:58:36Z</time>
      </trkpt>
      <trkpt lat="37.085142005234957" lon="-8.275923980399966">
        <ele>9.27</ele>
        <time>2025-05-07T10:58:37Z</time>
      </trkpt>
      <trkpt lat="37.085138987749815" lon="-8.275850974023342">
        <ele>8.789999999999999</ele>
        <time>2025-05-07T10:58:38Z</time>
      </trkpt>
      <trkpt lat="37.085134964436293" lon="-8.275761036202312">
        <ele>8.789999999999999</ele>
        <time>2025-05-07T10:58:39Z</time>
      </trkpt>
      <trkpt lat="37.085131024941802" lon="-8.275658022612333">
        <ele>7.83</ele>
        <time>2025-05-07T10:58:40Z</time>
      </trkpt>
      <trkpt lat="37.08512700162828" lon="-8.27554302290082">
        <ele>7.83</ele>
        <time>2025-05-07T10:58:41Z</time>
      </trkpt>
      <trkpt lat="37.085121972486377" lon="-8.275423999875784">
        <ele>7.83</ele>
        <time>2025-05-07T10:58:42Z</time>
      </trkpt>
      <trkpt lat="37.085060030221939" lon="-8.273815009742975">
        <ele>7.83</ele>
        <time>2025-05-07T10:58:54Z</time>
      </trkpt>
      <trkpt lat="37.085165977478027" lon="-8.272254969924688">
        <ele>7.35</ele>
        <time>2025-05-07T10:59:05Z</time>
      </trkpt>
      <trkpt lat="37.085208976641297" lon="-8.270642962306738">
        <ele>8.789999999999999</ele>
        <time>2025-05-07T10:59:17Z</time>
      </trkpt>
      <trkpt lat="37.085246024653316" lon="-8.269859002903104">
        <ele>7.83</ele>
        <time>2025-05-07T10:59:26Z</time>
      </trkpt>
      <trkpt lat="37.085274020209908" lon="-8.269753977656364">
        <ele>7.83</ele>
        <time>2025-05-07T10:59:29Z</time>
      </trkpt>
      <trkpt lat="37.085251975804567" lon="-8.26955096796155">
        <ele>7.83</ele>
        <time>2025-05-07T10:59:31Z</time>
      </trkpt>
      <trkpt lat="37.085268991068006" lon="-8.269275035709143">
        <ele>8.310000000000001</ele>
        <time>2025-05-07T10:59:34Z</time>
      </trkpt>
      <trkpt lat="37.085274020209908" lon="-8.26920798048377">
        <ele>8.789999999999999</ele>
        <time>2025-05-07T10:59:35Z</time>
      </trkpt>
      <trkpt lat="37.085309978574514" lon="-8.269159030169249">
        <ele>8.789999999999999</ele>
        <time>2025-05-07T10:59:36Z</time>
      </trkpt>
      <trkpt lat="37.085337974131107" lon="-8.26912198215723">
        <ele>9.27</ele>
        <time>2025-05-07T10:59:37Z</time>
      </trkpt>
      <trkpt lat="37.085389019921422" lon="-8.269102033227682">
        <ele>9.27</ele>
        <time>2025-05-07T10:59:38Z</time>
      </trkpt>
      <trkpt lat="37.085439981892705" lon="-8.269080994650722">
        <ele>9.27</ele>
        <time>2025-05-07T10:59:39Z</time>
      </trkpt>
      <trkpt lat="37.085445011034608" lon="-8.268982004374266">
        <ele>9.27</ele>
        <time>2025-05-07T10:59:40Z</time>
      </trkpt>
      <trkpt lat="37.085445011034608" lon="-8.268918972462416">
        <ele>9.75</ele>
        <time>2025-05-07T10:59:41Z</time>
      </trkpt>
      <trkpt lat="37.085445011034608" lon="-8.26884102076292">
        <ele>9.75</ele>
        <time>2025-05-07T10:59:42Z</time>
      </trkpt>
      <trkpt lat="37.085445011034608" lon="-8.268757034093142">
        <ele>10.23</ele>
        <time>2025-05-07T10:59:43Z</time>
      </trkpt>
      <trkpt lat="37.085445011034608" lon="-8.26866902410984">
        <ele>10.23</ele>
        <time>2025-05-07T10:59:44Z</time>
      </trkpt>
      <trkpt lat="37.085445011034608" lon="-8.268580008298159">
        <ele>10.710000000000001</ele>
        <time>2025-05-07T10:59:45Z</time>
      </trkpt>
      <trkpt lat="37.085445011034608" lon="-8.268215982243419">
        <ele>10.23</ele>
        <time>2025-05-07T10:59:49Z</time>
      </trkpt>
      <trkpt lat="37.085445011034608" lon="-8.268140964210033">
        <ele>10.23</ele>
        <time>2025-05-07T10:59:50Z</time>
      </trkpt>
      <trkpt lat="37.085445011034608" lon="-8.268073992803693">
        <ele>10.23</ele>
        <time>2025-05-07T10:59:51Z</time>
      </trkpt>
      <trkpt lat="37.085445011034608" lon="-8.268019007518888">
        <ele>10.23</ele>
        <time>2025-05-07T10:59:52Z</time>
      </trkpt>
      <trkpt lat="37.085445011034608" lon="-8.267983971163631">
        <ele>9.75</ele>
        <time>2025-05-07T10:59:53Z</time>
      </trkpt>
      <trkpt lat="37.085445011034608" lon="-8.267983971163631">
        <ele>10.23</ele>
        <time>2025-05-07T11:00:03Z</time>
      </trkpt>
      <trkpt lat="37.085445011034608" lon="-8.267983971163631">
        <ele>10.23</ele>
        <time>2025-05-07T11:00:48Z</time>
      </trkpt>
      <trkpt lat="37.085445011034608" lon="-8.267957987263799">
        <ele>10.710000000000001</ele>
        <time>2025-05-07T11:01:23Z</time>
      </trkpt>
      <trkpt lat="37.085445011034608" lon="-8.267927980050445">
        <ele>11.67</ele>
        <time>2025-05-07T11:01:24Z</time>
      </trkpt>
      <trkpt lat="37.085445011034608" lon="-8.267869977280498">
        <ele>12.630000000000001</ele>
        <time>2025-05-07T11:01:25Z</time>
      </trkpt>
      <trkpt lat="37.085445011034608" lon="-8.267791019752622">
        <ele>13.119999999999999</ele>
        <time>2025-05-07T11:01:26Z</time>
      </trkpt>
      <trkpt lat="37.085440987721086" lon="-8.267697980627418">
        <ele>13.119999999999999</ele>
        <time>2025-05-07T11:01:27Z</time>
      </trkpt>
      <trkpt lat="37.085436964407563" lon="-8.267605025321245">
        <ele>12.630000000000001</ele>
        <time>2025-05-07T11:01:28Z</time>
      </trkpt>
      <trkpt lat="37.085423972457647" lon="-8.267074031755328">
        <ele>12.15</ele>
        <time>2025-05-07T11:01:33Z</time>
      </trkpt>
      <trkpt lat="37.085380973294377" lon="-8.265795959159732">
        <ele>11.67</ele>
        <time>2025-05-07T11:01:45Z</time>
      </trkpt>
      <trkpt lat="37.085366975516081" lon="-8.265120964497328">
        <ele>11.67</ele>
        <time>2025-05-07T11:01:55Z</time>
      </trkpt>
      <trkpt lat="37.085360018536448" lon="-8.265045024454594">
        <ele>11.67</ele>
        <time>2025-05-07T11:01:56Z</time>
      </trkpt>
      <trkpt lat="37.085293969139457" lon="-8.264978975057602">
        <ele>12.15</ele>
        <time>2025-05-07T11:01:58Z</time>
      </trkpt>
      <trkpt lat="37.085251975804567" lon="-8.264928013086319">
        <ele>12.15</ele>
        <time>2025-05-07T11:01:59Z</time>
      </trkpt>
      <trkpt lat="37.085251975804567" lon="-8.264859030023217">
        <ele>12.15</ele>
        <time>2025-05-07T11:02:00Z</time>
      </trkpt>
      <trkpt lat="37.085251975804567" lon="-8.26471502892673">
        <ele>11.67</ele>
        <time>2025-05-07T11:02:02Z</time>
      </trkpt>
      <trkpt lat="37.085251975804567" lon="-8.264644034206867">
        <ele>11.67</ele>
        <time>2025-05-07T11:02:03Z</time>
      </trkpt>
      <trkpt lat="37.085251975804567" lon="-8.264574967324734">
        <ele>11.67</ele>
        <time>2025-05-07T11:02:04Z</time>
      </trkpt>
      <trkpt lat="37.085248958319426" lon="-8.264507995918393">
        <ele>11.19</ele>
        <time>2025-05-07T11:02:05Z</time>
      </trkpt>
      <trkpt lat="37.085246024653316" lon="-8.264438007026911">
        <ele>11.19</ele>
        <time>2025-05-07T11:02:06Z</time>
      </trkpt>
      <trkpt lat="37.085242001339793" lon="-8.264358965680003">
        <ele>11.19</ele>
        <time>2025-05-07T11:02:07Z</time>
      </trkpt>
      <trkpt lat="37.085202019661665" lon="-8.263940960168839">
        <ele>10.710000000000001</ele>
        <time>2025-05-07T11:02:12Z</time>
      </trkpt>
      <trkpt lat="37.085188021883368" lon="-8.263842975720763">
        <ele>10.710000000000001</ele>
        <time>2025-05-07T11:02:13Z</time>
      </trkpt>
      <trkpt lat="37.085157008841634" lon="-8.263786984607577">
        <ele>10.710000000000001</ele>
        <time>2025-05-07T11:02:14Z</time>
      </trkpt>
      <trkpt lat="37.08504100330174" lon="-8.263585986569524">
        <ele>10.710000000000001</ele>
        <time>2025-05-07T11:02:17Z</time>
      </trkpt>
      <trkpt lat="37.084875041618943" lon="-8.26331902295351">
        <ele>12.15</ele>
        <time>2025-05-07T11:02:21Z</time>
      </trkpt>
      <trkpt lat="37.084625009447336" lon="-8.26293496415019">
        <ele>13.119999999999999</ele>
        <time>2025-05-07T11:02:26Z</time>
      </trkpt>
      <trkpt lat="37.084430968388915" lon="-8.262643022462726">
        <ele>14.08</ele>
        <time>2025-05-07T11:02:30Z</time>
      </trkpt>
      <trkpt lat="37.084386963397264" lon="-8.262576973065734">
        <ele>14.08</ele>
        <time>2025-05-07T11:02:31Z</time>
      </trkpt>
      <trkpt lat="37.084269030019641" lon="-8.262400031089783">
        <ele>15.039999999999999</ele>
        <time>2025-05-07T11:02:35Z</time>
      </trkpt>
      <trkpt lat="37.084243968129158" lon="-8.262362983077765">
        <ele>15.039999999999999</ele>
        <time>2025-05-07T11:02:36Z</time>
      </trkpt>
      <trkpt lat="37.084121005609632" lon="-8.26224597170949">
        <ele>15.039999999999999</ele>
        <time>2025-05-07T11:02:38Z</time>
      </trkpt>
      <trkpt lat="37.084056967869401" lon="-8.262229962274432">
        <ele>15.039999999999999</ele>
        <time>2025-05-07T11:02:39Z</time>
      </trkpt>
      <trkpt lat="37.083983961492777" lon="-8.262212025001645">
        <ele>15.52</ele>
        <time>2025-05-07T11:02:40Z</time>
      </trkpt>
      <trkpt lat="37.083910033106804" lon="-8.262201966717839">
        <ele>15.52</ele>
        <time>2025-05-07T11:02:41Z</time>
      </trkpt>
      <trkpt lat="37.083833003416657" lon="-8.262190986424685">
        <ele>16</ele>
        <time>2025-05-07T11:02:42Z</time>
      </trkpt>
      <trkpt lat="37.083446010947227" lon="-8.262134995311499">
        <ele>18.399999999999999</ele>
        <time>2025-05-07T11:02:47Z</time>
      </trkpt>
      <trkpt lat="37.083374010398984" lon="-8.26211798004806">
        <ele>18.879999999999999</ele>
        <time>2025-05-07T11:02:48Z</time>
      </trkpt>
      <trkpt lat="37.083315001800656" lon="-8.262072969228029">
        <ele>19.84</ele>
        <time>2025-05-07T11:02:49Z</time>
      </trkpt>
      <trkpt lat="37.083273008465767" lon="-8.26200800947845">
        <ele>20.809999999999999</ele>
        <time>2025-05-07T11:02:50Z</time>
      </trkpt>
      <trkpt lat="37.0832350384444" lon="-8.261932991445065">
        <ele>21.77</ele>
        <time>2025-05-07T11:02:51Z</time>
      </trkpt>
      <trkpt lat="37.083197990432382" lon="-8.261857973411679">
        <ele>22.73</ele>
        <time>2025-05-07T11:02:52Z</time>
      </trkpt>
      <trkpt lat="37.08314904011786" lon="-8.261762000620365">
        <ele>23.690000000000001</ele>
        <time>2025-05-07T11:02:53Z</time>
      </trkpt>
      <trkpt lat="37.083141999319196" lon="-8.261703997850418">
        <ele>24.649999999999999</ele>
        <time>2025-05-07T11:02:54Z</time>
      </trkpt>
      <trkpt lat="37.083131019026041" lon="-8.261623028665781">
        <ele>25.129999999999999</ele>
        <time>2025-05-07T11:02:55Z</time>
      </trkpt>
      <trkpt lat="37.08310998044908" lon="-8.261466035619378">
        <ele>26.09</ele>
        <time>2025-05-07T11:02:57Z</time>
      </trkpt>
      <trkpt lat="37.083119032904506" lon="-8.261389005929232">
        <ele>26.57</ele>
        <time>2025-05-07T11:02:58Z</time>
      </trkpt>
      <trkpt lat="37.083140993490815" lon="-8.261304013431072">
        <ele>26.57</ele>
        <time>2025-05-07T11:02:59Z</time>
      </trkpt>
      <trkpt lat="37.083183992654085" lon="-8.261131010949612">
        <ele>27.050000000000001</ele>
        <time>2025-05-07T11:03:01Z</time>
      </trkpt>
      <trkpt lat="37.083244007080793" lon="-8.260891037061811">
        <ele>27.050000000000001</ele>
        <time>2025-05-07T11:03:04Z</time>
      </trkpt>
      <trkpt lat="37.083264039829373" lon="-8.260813001543284">
        <ele>27.050000000000001</ele>
        <time>2025-05-07T11:03:05Z</time>
      </trkpt>
      <trkpt lat="37.083374010398984" lon="-8.260415028780699">
        <ele>28.02</ele>
        <time>2025-05-07T11:03:10Z</time>
      </trkpt>
      <trkpt lat="37.083394965156913" lon="-8.260337999090552">
        <ele>28.5</ele>
        <time>2025-05-07T11:03:11Z</time>
      </trkpt>
      <trkpt lat="37.083417009562254" lon="-8.260259963572025">
        <ele>28.5</ele>
        <time>2025-05-07T11:03:12Z</time>
      </trkpt>
      <trkpt lat="37.083619013428688" lon="-8.259234018623829">
        <ele>32.340000000000003</ele>
        <time>2025-05-07T11:03:24Z</time>
      </trkpt>
      <trkpt lat="37.083651032298803" lon="-8.259002007544041">
        <ele>34.259999999999998</ele>
        <time>2025-05-07T11:03:27Z</time>
      </trkpt>
      <trkpt lat="37.083686990663409" lon="-8.258939981460571">
        <ele>34.740000000000002</ele>
        <time>2025-05-07T11:03:28Z</time>
      </trkpt>
      <trkpt lat="37.083722027018666" lon="-8.258878961205483">
        <ele>35.229999999999997</ele>
        <time>2025-05-07T11:03:29Z</time>
      </trkpt>
      <trkpt lat="37.083758991211653" lon="-8.258816013112664">
        <ele>35.710000000000001</ele>
        <time>2025-05-07T11:03:30Z</time>
      </trkpt>
      <trkpt lat="37.08379402756691" lon="-8.258755998685956">
        <ele>36.189999999999998</ele>
        <time>2025-05-07T11:03:31Z</time>
      </trkpt>
      <trkpt lat="37.083825040608644" lon="-8.258702019229531">
        <ele>36.670000000000002</ele>
        <time>2025-05-07T11:03:32Z</time>
      </trkpt>
      <trkpt lat="37.083853036165237" lon="-8.258653990924358">
        <ele>37.149999999999999</ele>
        <time>2025-05-07T11:03:33Z</time>
      </trkpt>
      <trkpt lat="37.083882037550211" lon="-8.258604034781456">
        <ele>38.109999999999999</ele>
        <time>2025-05-07T11:03:34Z</time>
      </trkpt>
      <trkpt lat="37.083906009793282" lon="-8.258575033396483">
        <ele>38.590000000000003</ele>
        <time>2025-05-07T11:03:35Z</time>
      </trkpt>
      <trkpt lat="37.083922019228339" lon="-8.258556006476283">
        <ele>39.07</ele>
        <time>2025-05-07T11:03:36Z</time>
      </trkpt>
      <trkpt lat="37.083922019228339" lon="-8.258556006476283">
        <ele>39.549999999999997</ele>
        <time>2025-05-07T11:03:49Z</time>
      </trkpt>
      <trkpt lat="37.083922019228339" lon="-8.258556006476283">
        <ele>40.509999999999998</ele>
        <time>2025-05-07T11:04:32Z</time>
      </trkpt>
      <trkpt lat="37.083934005349874" lon="-8.258535973727703">
        <ele>43.399999999999999</ele>
        <time>2025-05-07T11:05:26Z</time>
      </trkpt>
      <trkpt lat="37.08392595872283" lon="-8.258561035618186">
        <ele>35.229999999999997</ele>
        <time>2025-05-07T11:05:50Z</time>
      </trkpt>
      <trkpt lat="37.083916990086436" lon="-8.258573021739721">
        <ele>29.940000000000001</ele>
        <time>2025-05-07T11:05:57Z</time>
      </trkpt>
      <trkpt lat="37.083909027278423" lon="-8.258523987606168">
        <ele>27.530000000000001</ele>
        <time>2025-05-07T11:05:59Z</time>
      </trkpt>
      <trkpt lat="37.08392595872283" lon="-8.258477970957756">
        <ele>26.09</ele>
        <time>2025-05-07T11:06:00Z</time>
      </trkpt>
      <trkpt lat="37.08394699729979" lon="-8.25842097401619">
        <ele>25.129999999999999</ele>
        <time>2025-05-07T11:06:01Z</time>
      </trkpt>
      <trkpt lat="37.083975998684764" lon="-8.258354002609849">
        <ele>23.690000000000001</ele>
        <time>2025-05-07T11:06:02Z</time>
      </trkpt>
      <trkpt lat="37.084051016718149" lon="-8.258242020383477">
        <ele>20.809999999999999</ele>
        <time>2025-05-07T11:06:04Z</time>
      </trkpt>
      <trkpt lat="37.084094015881419" lon="-8.258177982643247">
        <ele>19.359999999999999</ele>
        <time>2025-05-07T11:06:05Z</time>
      </trkpt>
      <trkpt lat="37.084141038358212" lon="-8.258145041763783">
        <ele>18.399999999999999</ele>
        <time>2025-05-07T11:06:06Z</time>
      </trkpt>
      <trkpt lat="37.084270035848022" lon="-8.258067006245256">
        <ele>15.039999999999999</ele>
        <time>2025-05-07T11:06:09Z</time>
      </trkpt>
      <trkpt lat="37.084309011697769" lon="-8.258059965446591">
        <ele>14.08</ele>
        <time>2025-05-07T11:06:10Z</time>
      </trkpt>
      <trkpt lat="37.084343964233994" lon="-8.25805401429534">
        <ele>13.119999999999999</ele>
        <time>2025-05-07T11:06:11Z</time>
      </trkpt>
      <trkpt lat="37.084451001137495" lon="-8.258036999031901">
        <ele>10.23</ele>
        <time>2025-05-07T11:06:19Z</time>
      </trkpt>
      <trkpt lat="37.084451001137495" lon="-8.258036999031901">
        <ele>9.27</ele>
        <time>2025-05-07T11:06:22Z</time>
      </trkpt>
      <trkpt lat="37.084501041099429" lon="-8.258028030395508">
        <ele>8.789999999999999</ele>
        <time>2025-05-07T11:06:23Z</time>
      </trkpt>
      <trkpt lat="37.084500035271049" lon="-8.258006991818547">
        <ele>8.789999999999999</ele>
        <time>2025-05-07T11:06:24Z</time>
      </trkpt>
      <trkpt lat="37.084497017785907" lon="-8.257957035675645">
        <ele>8.310000000000001</ele>
        <time>2025-05-07T11:06:25Z</time>
      </trkpt>
      <trkpt lat="37.084494000300765" lon="-8.257894003763795">
        <ele>7.83</ele>
        <time>2025-05-07T11:06:26Z</time>
      </trkpt>
      <trkpt lat="37.084488971158862" lon="-8.257822003215551">
        <ele>6.87</ele>
        <time>2025-05-07T11:06:27Z</time>
      </trkpt>
      <trkpt lat="37.084485031664371" lon="-8.257742961868644">
        <ele>6.39</ele>
        <time>2025-05-07T11:06:28Z</time>
      </trkpt>
      <trkpt lat="37.084480002522469" lon="-8.257656963542104">
        <ele>5.91</ele>
        <time>2025-05-07T11:06:29Z</time>
      </trkpt>
      <trkpt lat="37.084474973380566" lon="-8.257569037377834">
        <ele>5.42</ele>
        <time>2025-05-07T11:06:30Z</time>
      </trkpt>
      <trkpt lat="37.084470028057694" lon="-8.257482033222914">
        <ele>4.94</ele>
        <time>2025-05-07T11:06:31Z</time>
      </trkpt>
      <trkpt lat="37.084464998915792" lon="-8.257394023239613">
        <ele>3.98</ele>
        <time>2025-05-07T11:06:32Z</time>
      </trkpt>
      <trkpt lat="37.084457958117127" lon="-8.257277011871338">
        <ele>3.5</ele>
        <time>2025-05-07T11:06:33Z</time>
      </trkpt>
      <trkpt lat="37.084457958117127" lon="-8.257143991068006">
        <ele>2.54</ele>
        <time>2025-05-07T11:06:35Z</time>
      </trkpt>
      <trkpt lat="37.084457958117127" lon="-8.257085988298059">
        <ele>2.06</ele>
        <time>2025-05-07T11:06:36Z</time>
      </trkpt>
      <trkpt lat="37.084457958117127" lon="-8.257039971649647">
        <ele>1.58</ele>
        <time>2025-05-07T11:06:37Z</time>
      </trkpt>
      <trkpt lat="37.084457958117127" lon="-8.256934024393559">
        <ele>1.1</ele>
        <time>2025-05-07T11:06:38Z</time>
      </trkpt>
      <trkpt lat="37.084516966715455" lon="-8.256930001080036">
        <ele>1.1</ele>
        <time>2025-05-07T11:06:39Z</time>
      </trkpt>
      <trkpt lat="37.084562983363867" lon="-8.256926983594894">
        <ele>1.1</ele>
        <time>2025-05-07T11:06:40Z</time>
      </trkpt>
      <trkpt lat="37.08461201749742" lon="-8.256922960281372">
        <ele>0.62</ele>
        <time>2025-05-07T11:06:41Z</time>
      </trkpt>
      <trkpt lat="37.084772028028965" lon="-8.256911979988217">
        <ele>0.14</ele>
        <time>2025-05-07T11:06:44Z</time>
      </trkpt>
      <trkpt lat="37.085216017439961" lon="-8.256879961118102">
        <ele>3.5</ele>
        <time>2025-05-07T11:06:52Z</time>
      </trkpt>
      <trkpt lat="37.085315007716417" lon="-8.256871998310089">
        <ele>5.42</ele>
        <time>2025-05-07T11:06:55Z</time>
      </trkpt>
      <trkpt lat="37.085344009101391" lon="-8.256906028836966">
        <ele>6.87</ele>
        <time>2025-05-07T11:06:56Z</time>
      </trkpt>
      <trkpt lat="37.085349038243294" lon="-8.256933018565178">
        <ele>8.310000000000001</ele>
        <time>2025-05-07T11:06:57Z</time>
      </trkpt>
      <trkpt lat="37.085357001051307" lon="-8.25698004104197">
        <ele>9.27</ele>
        <time>2025-05-07T11:06:58Z</time>
      </trkpt>
      <trkpt lat="37.0853659696877" lon="-8.257037959992886">
        <ele>9.75</ele>
        <time>2025-05-07T11:06:59Z</time>
      </trkpt>
      <trkpt lat="37.085393965244293" lon="-8.257204005494714">
        <ele>12.630000000000001</ele>
        <time>2025-05-07T11:07:07Z</time>
      </trkpt>
      <trkpt lat="37.085400000214577" lon="-8.257241975516081">
        <ele>13.119999999999999</ele>
        <time>2025-05-07T11:07:10Z</time>
      </trkpt>
      <trkpt lat="37.085404023528099" lon="-8.257267037406564">
        <ele>13.6</ele>
        <time>2025-05-07T11:07:11Z</time>
      </trkpt>
      <trkpt lat="37.08547099493444" lon="-8.257306013256311">
        <ele>14.56</ele>
        <time>2025-05-07T11:07:12Z</time>
      </trkpt>
      <trkpt lat="37.085489016026258" lon="-8.257277011871338">
        <ele>15.039999999999999</ele>
        <time>2025-05-07T11:07:13Z</time>
      </trkpt>
      <trkpt lat="37.085518017411232" lon="-8.257227977737784">
        <ele>15.039999999999999</ele>
        <time>2025-05-07T11:07:14Z</time>
      </trkpt>
      <trkpt lat="37.085550036281347" lon="-8.257172992452979">
        <ele>15.039999999999999</ele>
        <time>2025-05-07T11:07:15Z</time>
      </trkpt>
      <trkpt lat="37.085589012131095" lon="-8.257119012996554">
        <ele>15.52</ele>
        <time>2025-05-07T11:07:16Z</time>
      </trkpt>
      <trkpt lat="37.085762014612556" lon="-8.256859006360173">
        <ele>15.52</ele>
        <time>2025-05-07T11:07:20Z</time>
      </trkpt>
      <trkpt lat="37.085806019604206" lon="-8.256789017468691">
        <ele>15.52</ele>
        <time>2025-05-07T11:07:21Z</time>
      </trkpt>
      <trkpt lat="37.086074994876981" lon="-8.256365982815623">
        <ele>16</ele>
        <time>2025-05-07T11:07:27Z</time>
      </trkpt>
      <trkpt lat="37.086370959877968" lon="-8.255899026989937">
        <ele>14.08</ele>
        <time>2025-05-07T11:07:35Z</time>
      </trkpt>
      <trkpt lat="37.086517978459597" lon="-8.255668021738529">
        <ele>12.630000000000001</ele>
        <time>2025-05-07T11:07:39Z</time>
      </trkpt>
      <trkpt lat="37.086640018969774" lon="-8.255556039512157">
        <ele>12.15</ele>
        <time>2025-05-07T11:07:42Z</time>
      </trkpt>
      <trkpt lat="37.087162965908647" lon="-8.255314975976944">
        <ele>13.119999999999999</ele>
        <time>2025-05-07T11:07:51Z</time>
      </trkpt>
      <trkpt lat="37.087526991963387" lon="-8.255240963771939">
        <ele>16</ele>
        <time>2025-05-07T11:07:58Z</time>
      </trkpt>
      <trkpt lat="37.087548030540347" lon="-8.25523903593421">
        <ele>16.48</ele>
        <time>2025-05-07T11:07:59Z</time>
      </trkpt>
      <trkpt lat="37.087548030540347" lon="-8.25523903593421">
        <ele>16.960000000000001</ele>
        <time>2025-05-07T11:08:00Z</time>
      </trkpt>
      <trkpt lat="37.087548030540347" lon="-8.25523903593421">
        <ele>17.920000000000002</ele>
        <time>2025-05-07T11:08:01Z</time>
      </trkpt>
      <trkpt lat="37.087591029703617" lon="-8.255259990692139">
        <ele>18.399999999999999</ele>
        <time>2025-05-07T11:08:02Z</time>
      </trkpt>
      <trkpt lat="37.087624976411462" lon="-8.255277005955577">
        <ele>18.879999999999999</ele>
        <time>2025-05-07T11:08:03Z</time>
      </trkpt>
      <trkpt lat="37.087677028030157" lon="-8.255302989855409">
        <ele>19.359999999999999</ele>
        <time>2025-05-07T11:08:04Z</time>
      </trkpt>
      <trkpt lat="37.087693037465215" lon="-8.255351018160582">
        <ele>19.84</ele>
        <time>2025-05-07T11:08:05Z</time>
      </trkpt>
      <trkpt lat="37.087716003879905" lon="-8.255422012880445">
        <ele>20.32</ele>
        <time>2025-05-07T11:08:06Z</time>
      </trkpt>
      <trkpt lat="37.087737964466214" lon="-8.255485966801643">
        <ele>20.809999999999999</ele>
        <time>2025-05-07T11:08:07Z</time>
      </trkpt>
      <trkpt lat="37.087763026356697" lon="-8.255559979006648">
        <ele>21.289999999999999</ele>
        <time>2025-05-07T11:08:08Z</time>
      </trkpt>
      <trkpt lat="37.087829997763038" lon="-8.255780003964901">
        <ele>23.690000000000001</ele>
        <time>2025-05-07T11:08:14Z</time>
      </trkpt>
      <trkpt lat="37.087848018854856" lon="-8.255837000906467">
        <ele>24.170000000000002</ele>
        <time>2025-05-07T11:08:15Z</time>
      </trkpt>
      <trkpt lat="37.088112970814109" lon="-8.256667982786894">
        <ele>29.940000000000001</ele>
        <time>2025-05-07T11:08:26Z</time>
      </trkpt>
      <trkpt lat="37.08813501521945" lon="-8.25674400664866">
        <ele>30.420000000000002</ele>
        <time>2025-05-07T11:08:27Z</time>
      </trkpt>
      <trkpt lat="37.088169967755675" lon="-8.257020022720099">
        <ele>32.340000000000003</ele>
        <time>2025-05-07T11:08:31Z</time>
      </trkpt>
      <trkpt lat="37.088234005495906" lon="-8.25706603936851">
        <ele>32.340000000000003</ele>
        <time>2025-05-07T11:08:32Z</time>
      </trkpt>
      <trkpt lat="37.088288990780711" lon="-8.257086994126439">
        <ele>32.82</ele>
        <time>2025-05-07T11:08:33Z</time>
      </trkpt>
      <trkpt lat="37.088356968015432" lon="-8.257112978026271">
        <ele>33.299999999999997</ele>
        <time>2025-05-07T11:08:34Z</time>
      </trkpt>
      <trkpt lat="37.088435003533959" lon="-8.257142985239625">
        <ele>33.780000000000001</ele>
        <time>2025-05-07T11:08:35Z</time>
      </trkpt>
      <trkpt lat="37.088525025174022" lon="-8.257158994674683">
        <ele>34.259999999999998</ele>
        <time>2025-05-07T11:08:36Z</time>
      </trkpt>
      <trkpt lat="37.088614040985703" lon="-8.257171986624599">
        <ele>34.259999999999998</ele>
        <time>2025-05-07T11:08:37Z</time>
      </trkpt>
      <trkpt lat="37.088709007948637" lon="-8.257184978574514">
        <ele>34.740000000000002</ele>
        <time>2025-05-07T11:08:38Z</time>
      </trkpt>
      <trkpt lat="37.089521968737245" lon="-8.257328979671001">
        <ele>39.07</ele>
        <time>2025-05-07T11:08:47Z</time>
      </trkpt>
      <trkpt lat="37.089549964293838" lon="-8.257334008812904">
        <ele>41.469999999999999</ele>
        <time>2025-05-07T11:08:55Z</time>
      </trkpt>
      <trkpt lat="37.089549964293838" lon="-8.257334008812904">
        <ele>42.439999999999998</ele>
        <time>2025-05-07T11:09:40Z</time>
      </trkpt>
      <trkpt lat="37.089684996753931" lon="-8.257357981055975">
        <ele>45.799999999999997</ele>
        <time>2025-05-07T11:10:01Z</time>
      </trkpt>
      <trkpt lat="37.089744005352259" lon="-8.257363010197878">
        <ele>46.280000000000001</ele>
        <time>2025-05-07T11:10:02Z</time>
      </trkpt>
      <trkpt lat="37.089836038649082" lon="-8.257205011323094">
        <ele>46.759999999999998</ele>
        <time>2025-05-07T11:10:03Z</time>
      </trkpt>
      <trkpt lat="37.089842995628715" lon="-8.257133010774851">
        <ele>47.240000000000002</ele>
        <time>2025-05-07T11:10:04Z</time>
      </trkpt>
      <trkpt lat="37.089850036427379" lon="-8.257049024105072">
        <ele>47.240000000000002</ele>
        <time>2025-05-07T11:10:05Z</time>
      </trkpt>
      <trkpt lat="37.089859005063772" lon="-8.256949028000236">
        <ele>46.759999999999998</ele>
        <time>2025-05-07T11:10:06Z</time>
      </trkpt>
      <trkpt lat="37.089881971478462" lon="-8.256826987490058">
        <ele>46.280000000000001</ele>
        <time>2025-05-07T11:10:07Z</time>
      </trkpt>
      <trkpt lat="37.089929999783635" lon="-8.25670100748539">
        <ele>46.280000000000001</ele>
        <time>2025-05-07T11:10:08Z</time>
      </trkpt>
      <trkpt lat="37.089980961754918" lon="-8.256566980853677">
        <ele>45.799999999999997</ele>
        <time>2025-05-07T11:10:09Z</time>
      </trkpt>
      <trkpt lat="37.090034019201994" lon="-8.256425997242332">
        <ele>45.32</ele>
        <time>2025-05-07T11:10:10Z</time>
      </trkpt>
      <trkpt lat="37.090135021135211" lon="-8.256316026672721">
        <ele>44.359999999999999</ele>
        <time>2025-05-07T11:10:11Z</time>
      </trkpt>
      <trkpt lat="37.090233005583286" lon="-8.256211001425982">
        <ele>43.880000000000003</ele>
        <time>2025-05-07T11:10:12Z</time>
      </trkpt>
      <trkpt lat="37.090336019173265" lon="-8.256101030856371">
        <ele>43.399999999999999</ele>
        <time>2025-05-07T11:10:13Z</time>
      </trkpt>
      <trkpt lat="37.090464010834694" lon="-8.256021989509463">
        <ele>42.920000000000002</ele>
        <time>2025-05-07T11:10:14Z</time>
      </trkpt>
      <trkpt lat="37.090603988617659" lon="-8.255967004224658">
        <ele>42.439999999999998</ele>
        <time>2025-05-07T11:10:15Z</time>
      </trkpt>
      <trkpt lat="37.090767016634345" lon="-8.255903972312808">
        <ele>41.950000000000003</ele>
        <time>2025-05-07T11:10:16Z</time>
      </trkpt>
      <trkpt lat="37.090903976932168" lon="-8.255880000069737">
        <ele>41.469999999999999</ele>
        <time>2025-05-07T11:10:17Z</time>
      </trkpt>
      <trkpt lat="37.092244997620583" lon="-8.255557967349887">
        <ele>30.420000000000002</ele>
        <time>2025-05-07T11:10:26Z</time>
      </trkpt>
      <trkpt lat="37.092379024252295" lon="-8.255468029528856">
        <ele>28.98</ele>
        <time>2025-05-07T11:10:27Z</time>
      </trkpt>
      <trkpt lat="37.092509027570486" lon="-8.255364010110498">
        <ele>28.02</ele>
        <time>2025-05-07T11:10:28Z</time>
      </trkpt>
      <trkpt lat="37.092639030888677" lon="-8.255260996520519">
        <ele>27.050000000000001</ele>
        <time>2025-05-07T11:10:29Z</time>
      </trkpt>
      <trkpt lat="37.09275302477181" lon="-8.255144990980625">
        <ele>25.609999999999999</ele>
        <time>2025-05-07T11:10:30Z</time>
      </trkpt>
      <trkpt lat="37.092845980077982" lon="-8.255007024854422">
        <ele>24.649999999999999</ele>
        <time>2025-05-07T11:10:31Z</time>
      </trkpt>
      <trkpt lat="37.092934995889664" lon="-8.254871992394328">
        <ele>24.170000000000002</ele>
        <time>2025-05-07T11:10:32Z</time>
      </trkpt>
      <trkpt lat="37.0933130197227" lon="-8.254305040463805">
        <ele>22.25</ele>
        <time>2025-05-07T11:10:38Z</time>
      </trkpt>
      <trkpt lat="37.093516029417515" lon="-8.253923999145627">
        <ele>19.84</ele>
        <time>2025-05-07T11:10:44Z</time>
      </trkpt>
      <trkpt lat="37.093555005267262" lon="-8.2538459636271">
        <ele>19.359999999999999</ele>
        <time>2025-05-07T11:10:49Z</time>
      </trkpt>
      <trkpt lat="37.093580989167094" lon="-8.253795001655817">
        <ele>19.359999999999999</ele>
        <time>2025-05-07T11:10:50Z</time>
      </trkpt>
      <trkpt lat="37.093610996380448" lon="-8.253686958923936">
        <ele>18.879999999999999</ele>
        <time>2025-05-07T11:10:52Z</time>
      </trkpt>
      <trkpt lat="37.093649972230196" lon="-8.253612024709582">
        <ele>18.879999999999999</ele>
        <time>2025-05-07T11:10:53Z</time>
      </trkpt>
      <trkpt lat="37.093707975000143" lon="-8.253576988354325">
        <ele>18.879999999999999</ele>
        <time>2025-05-07T11:10:54Z</time>
      </trkpt>
      <trkpt lat="37.093766983598471" lon="-8.253520997241139">
        <ele>18.399999999999999</ele>
        <time>2025-05-07T11:10:55Z</time>
      </trkpt>
      <trkpt lat="37.093834960833192" lon="-8.253442961722612">
        <ele>18.879999999999999</ele>
        <time>2025-05-07T11:10:56Z</time>
      </trkpt>
      <trkpt lat="37.093904027715325" lon="-8.253351012244821">
        <ele>20.32</ele>
        <time>2025-05-07T11:10:57Z</time>
      </trkpt>
      <trkpt lat="37.093975022435188" lon="-8.253234000876546">
        <ele>21.77</ele>
        <time>2025-05-07T11:10:58Z</time>
      </trkpt>
      <trkpt lat="37.094744984060526" lon="-8.25193002820015">
        <ele>37.149999999999999</ele>
        <time>2025-05-07T11:11:08Z</time>
      </trkpt>
      <trkpt lat="37.094865012913942" lon="-8.251698017120361">
        <ele>40.509999999999998</ele>
        <time>2025-05-07T11:11:10Z</time>
      </trkpt>
      <trkpt lat="37.094899965450168" lon="-8.251550998538733">
        <ele>41.950000000000003</ele>
        <time>2025-05-07T11:11:11Z</time>
      </trkpt>
      <trkpt lat="37.094933995977044" lon="-8.251403979957104">
        <ele>43.399999999999999</ele>
        <time>2025-05-07T11:11:12Z</time>
      </trkpt>
      <trkpt lat="37.095014965161681" lon="-8.250951021909714">
        <ele>48.200000000000003</ele>
        <time>2025-05-07T11:11:15Z</time>
      </trkpt>
      <trkpt lat="37.095014965161681" lon="-8.250790005549789">
        <ele>49.649999999999999</ele>
        <time>2025-05-07T11:11:16Z</time>
      </trkpt>
      <trkpt lat="37.095014965161681" lon="-8.250629995018244">
        <ele>51.090000000000003</ele>
        <time>2025-05-07T11:11:17Z</time>
      </trkpt>
      <trkpt lat="37.095014965161681" lon="-8.250469984486699">
        <ele>52.049999999999997</ele>
        <time>2025-05-07T11:11:18Z</time>
      </trkpt>
      <trkpt lat="37.094986969605088" lon="-8.250312991440296">
        <ele>53.490000000000002</ele>
        <time>2025-05-07T11:11:19Z</time>
      </trkpt>
      <trkpt lat="37.094952017068863" lon="-8.250163039192557">
        <ele>54.93</ele>
        <time>2025-05-07T11:11:20Z</time>
      </trkpt>
      <trkpt lat="37.094908012077212" lon="-8.25001903809607">
        <ele>55.890000000000001</ele>
        <time>2025-05-07T11:11:21Z</time>
      </trkpt>
      <trkpt lat="37.094846991822124" lon="-8.249884005635977">
        <ele>56.859999999999999</ele>
        <time>2025-05-07T11:11:22Z</time>
      </trkpt>
      <trkpt lat="37.094789994880557" lon="-8.249756013974547">
        <ele>57.82</ele>
        <time>2025-05-07T11:11:23Z</time>
      </trkpt>
      <trkpt lat="37.094737021252513" lon="-8.249637996777892">
        <ele>58.780000000000001</ele>
        <time>2025-05-07T11:11:24Z</time>
      </trkpt>
      <trkpt lat="37.094653034582734" lon="-8.249531965702772">
        <ele>59.259999999999998</ele>
        <time>2025-05-07T11:11:25Z</time>
      </trkpt>
      <trkpt lat="37.094573993235826" lon="-8.249430963769555">
        <ele>60.219999999999999</ele>
        <time>2025-05-07T11:11:26Z</time>
      </trkpt>
      <trkpt lat="37.094499981030822" lon="-8.249338008463383">
        <ele>61.18</ele>
        <time>2025-05-07T11:11:27Z</time>
      </trkpt>
      <trkpt lat="37.094423035159707" lon="-8.249274976551533">
        <ele>61.659999999999997</ele>
        <time>2025-05-07T11:11:28Z</time>
      </trkpt>
      <trkpt lat="37.094369977712631" lon="-8.249164000153542">
        <ele>62.140000000000001</ele>
        <time>2025-05-07T11:11:29Z</time>
      </trkpt>
      <trkpt lat="37.094298982992768" lon="-8.249072972685099">
        <ele>62.619999999999997</ele>
        <time>2025-05-07T11:11:30Z</time>
      </trkpt>
      <trkpt lat="37.094221031293273" lon="-8.248972976580262">
        <ele>63.100000000000001</ele>
        <time>2025-05-07T11:11:31Z</time>
      </trkpt>
      <trkpt lat="37.09413000382483" lon="-8.248872980475426">
        <ele>63.579999999999998</ele>
        <time>2025-05-07T11:11:32Z</time>
      </trkpt>
      <trkpt lat="37.094035036861897" lon="-8.248770972713828">
        <ele>63.579999999999998</ele>
        <time>2025-05-07T11:11:33Z</time>
      </trkpt>
      <trkpt lat="37.093113027513027" lon="-8.247772017493844">
        <ele>63.579999999999998</ele>
        <time>2025-05-07T11:11:43Z</time>
      </trkpt>
      <trkpt lat="37.09183101542294" lon="-8.246370982378721">
        <ele>55.890000000000001</ele>
        <time>2025-05-07T11:11:57Z</time>
      </trkpt>
      <trkpt lat="37.091726996004581" lon="-8.246207032352686">
        <ele>53.969999999999999</ele>
        <time>2025-05-07T11:11:59Z</time>
      </trkpt>
      <trkpt lat="37.091645020991564" lon="-8.246077029034495">
        <ele>52.049999999999997</ele>
        <time>2025-05-07T11:12:02Z</time>
      </trkpt>
      <trkpt lat="37.091626999899745" lon="-8.246049033477902">
        <ele>51.090000000000003</ele>
        <time>2025-05-07T11:12:03Z</time>
      </trkpt>
      <trkpt lat="37.091611996293068" lon="-8.24602397158742">
        <ele>50.609999999999999</ele>
        <time>2025-05-07T11:12:04Z</time>
      </trkpt>
      <trkpt lat="37.091604033485055" lon="-8.246011985465884">
        <ele>50.130000000000003</ele>
        <time>2025-05-07T11:12:05Z</time>
      </trkpt>
      <trkpt lat="37.091591041535139" lon="-8.245986001566052">
        <ele>49.649999999999999</ele>
        <time>2025-05-07T11:12:06Z</time>
      </trkpt>
      <trkpt lat="37.091581989079714" lon="-8.245967980474234">
        <ele>49.159999999999997</ele>
        <time>2025-05-07T11:12:07Z</time>
      </trkpt>
      <trkpt lat="37.091581989079714" lon="-8.245967980474234">
        <ele>48.68</ele>
        <time>2025-05-07T11:12:21Z</time>
      </trkpt>
      <trkpt lat="37.091539995744824" lon="-8.245883993804455">
        <ele>48.68</ele>
        <time>2025-05-07T11:12:50Z</time>
      </trkpt>
      <trkpt lat="37.091278983280063" lon="-8.245345037430525">
        <ele>48.68</ele>
        <time>2025-05-07T11:12:56Z</time>
      </trkpt>
      <trkpt lat="37.090981006622314" lon="-8.243980966508389">
        <ele>45.799999999999997</ele>
        <time>2025-05-07T11:13:06Z</time>
      </trkpt>
      <trkpt lat="37.091022999957204" lon="-8.243039008229971">
        <ele>43.399999999999999</ele>
        <time>2025-05-07T11:13:15Z</time>
      </trkpt>
      <trkpt lat="37.091030962765217" lon="-8.242954015731812">
        <ele>42.439999999999998</ele>
        <time>2025-05-07T11:13:16Z</time>
      </trkpt>
      <trkpt lat="37.091231038793921" lon="-8.242018008604646">
        <ele>39.549999999999997</ele>
        <time>2025-05-07T11:13:24Z</time>
      </trkpt>
      <trkpt lat="37.091519040986896" lon="-8.240997008979321">
        <ele>38.590000000000003</ele>
        <time>2025-05-07T11:13:33Z</time>
      </trkpt>
      <trkpt lat="37.091554999351501" lon="-8.240872034803033">
        <ele>38.109999999999999</ele>
        <time>2025-05-07T11:13:35Z</time>
      </trkpt>
      <trkpt lat="37.091586012393236" lon="-8.240762986242771">
        <ele>37.630000000000003</ele>
        <time>2025-05-07T11:13:42Z</time>
      </trkpt>
      <trkpt lat="37.091653989627957" lon="-8.240512032061815">
        <ele>37.149999999999999</ele>
        <time>2025-05-07T11:13:50Z</time>
      </trkpt>
      <trkpt lat="37.091671004891396" lon="-8.240442965179682">
        <ele>37.630000000000003</ele>
        <time>2025-05-07T11:13:59Z</time>
      </trkpt>
      <trkpt lat="37.091703023761511" lon="-8.240317991003394">
        <ele>38.590000000000003</ele>
        <time>2025-05-07T11:14:10Z</time>
      </trkpt>
      <trkpt lat="37.091751974076033" lon="-8.239991012960672">
        <ele>41.469999999999999</ele>
        <time>2025-05-07T11:14:18Z</time>
      </trkpt>
      <trkpt lat="37.091736970469356" lon="-8.239904008805752">
        <ele>41.950000000000003</ele>
        <time>2025-05-07T11:14:19Z</time>
      </trkpt>
      <trkpt lat="37.091763038188219" lon="-8.239798983559012">
        <ele>42.920000000000002</ele>
        <time>2025-05-07T11:14:20Z</time>
      </trkpt>
      <trkpt lat="37.091841995716095" lon="-8.239718014374375">
        <ele>43.399999999999999</ele>
        <time>2025-05-07T11:14:21Z</time>
      </trkpt>
      <trkpt lat="37.091884994879365" lon="-8.239608965814114">
        <ele>43.399999999999999</ele>
        <time>2025-05-07T11:14:22Z</time>
      </trkpt>
      <trkpt lat="37.091921959072351" lon="-8.23951399885118">
        <ele>44.359999999999999</ele>
        <time>2025-05-07T11:14:23Z</time>
      </trkpt>
      <trkpt lat="37.091945009306073" lon="-8.239454990252852">
        <ele>44.840000000000003</ele>
        <time>2025-05-07T11:14:24Z</time>
      </trkpt>
      <trkpt lat="37.091990020126104" lon="-8.239337978884578">
        <ele>45.32</ele>
        <time>2025-05-07T11:14:26Z</time>
      </trkpt>
      <trkpt lat="37.092008963227272" lon="-8.239260027185082">
        <ele>45.799999999999997</ele>
        <time>2025-05-07T11:14:27Z</time>
      </trkpt>
      <trkpt lat="37.092037964612246" lon="-8.239139998331666">
        <ele>46.280000000000001</ele>
        <time>2025-05-07T11:14:28Z</time>
      </trkpt>
      <trkpt lat="37.092070989310741" lon="-8.239003038033843">
        <ele>46.280000000000001</ele>
        <time>2025-05-07T11:14:29Z</time>
      </trkpt>
      <trkpt lat="37.092104014009237" lon="-8.23886800557375">
        <ele>46.759999999999998</ele>
        <time>2025-05-07T11:14:30Z</time>
      </trkpt>
      <trkpt lat="37.092348011210561" lon="-8.237811969593167">
        <ele>48.68</ele>
        <time>2025-05-07T11:14:37Z</time>
      </trkpt>
      <trkpt lat="37.092720000073314" lon="-8.235727977007628">
        <ele>40.509999999999998</ele>
        <time>2025-05-07T11:14:51Z</time>
      </trkpt>
      <trkpt lat="37.092872969806194" lon="-8.234995985403657">
        <ele>39.549999999999997</ele>
        <time>2025-05-07T11:14:56Z</time>
      </trkpt>
      <trkpt lat="37.09290498867631" lon="-8.234855001792312">
        <ele>39.549999999999997</ele>
        <time>2025-05-07T11:14:57Z</time>
      </trkpt>
      <trkpt lat="37.093509994447231" lon="-8.233407028019428">
        <ele>41.469999999999999</ele>
        <time>2025-05-07T11:15:08Z</time>
      </trkpt>
      <trkpt lat="37.093668999150395" lon="-8.233094969764352">
        <ele>41.950000000000003</ele>
        <time>2025-05-07T11:15:11Z</time>
      </trkpt>
      <trkpt lat="37.093706969171762" lon="-8.233007965609431">
        <ele>42.439999999999998</ele>
        <time>2025-05-07T11:15:12Z</time>
      </trkpt>
      <trkpt lat="37.093776036053896" lon="-8.232768997550011">
        <ele>42.439999999999998</ele>
        <time>2025-05-07T11:15:14Z</time>
      </trkpt>
      <trkpt lat="37.093801014125347" lon="-8.232646035030484">
        <ele>42.439999999999998</ele>
        <time>2025-05-07T11:15:15Z</time>
      </trkpt>
      <trkpt lat="37.093825992196798" lon="-8.232504967600107">
        <ele>42.920000000000002</ele>
        <time>2025-05-07T11:15:16Z</time>
      </trkpt>
      <trkpt lat="37.094079041853547" lon="-8.230985999107361">
        <ele>49.649999999999999</ele>
        <time>2025-05-07T11:15:26Z</time>
      </trkpt>
      <trkpt lat="37.094189012423158" lon="-8.230389039963484">
        <ele>51.57</ele>
        <time>2025-05-07T11:15:30Z</time>
      </trkpt>
      <trkpt lat="37.094264030456543" lon="-8.228566981852055">
        <ele>54.450000000000003</ele>
        <time>2025-05-07T11:15:42Z</time>
      </trkpt>
      <trkpt lat="37.094354974105954" lon="-8.228287026286125">
        <ele>53.969999999999999</ele>
        <time>2025-05-07T11:15:44Z</time>
      </trkpt>
      <trkpt lat="37.094636019319296" lon="-8.227630974724889">
        <ele>53.969999999999999</ele>
        <time>2025-05-07T11:15:49Z</time>
      </trkpt>
      <trkpt lat="37.095217974856496" lon="-8.225919976830483">
        <ele>56.859999999999999</ele>
        <time>2025-05-07T11:16:01Z</time>
      </trkpt>
      <trkpt lat="37.095561968162656" lon="-8.224849021062255">
        <ele>57.340000000000003</ele>
        <time>2025-05-07T11:16:09Z</time>
      </trkpt>
      <trkpt lat="37.095654001459479" lon="-8.224584991112351">
        <ele>55.890000000000001</ele>
        <time>2025-05-07T11:16:12Z</time>
      </trkpt>
      <trkpt lat="37.095670010894537" lon="-8.22453998029232">
        <ele>55.409999999999997</ele>
        <time>2025-05-07T11:16:13Z</time>
      </trkpt>
      <trkpt lat="37.095646960660815" lon="-8.224207973107696">
        <ele>54.450000000000003</ele>
        <time>2025-05-07T11:16:17Z</time>
      </trkpt>
      <trkpt lat="37.095659030601382" lon="-8.224189030006528">
        <ele>54.450000000000003</ele>
        <time>2025-05-07T11:16:18Z</time>
      </trkpt>
      <trkpt lat="37.095818035304546" lon="-8.224091967567802">
        <ele>54.450000000000003</ele>
        <time>2025-05-07T11:16:19Z</time>
      </trkpt>
      <trkpt lat="37.095952983945608" lon="-8.223745040595532">
        <ele>53.009999999999998</ele>
        <time>2025-05-07T11:16:22Z</time>
      </trkpt>
      <trkpt lat="37.096007969230413" lon="-8.223606990650296">
        <ele>52.049999999999997</ele>
        <time>2025-05-07T11:16:23Z</time>
      </trkpt>
      <trkpt lat="37.096477020531893" lon="-8.222355991601944">
        <ele>42.439999999999998</ele>
        <time>2025-05-07T11:16:32Z</time>
      </trkpt>
      <trkpt lat="37.09720398299396" lon="-8.220445001497865">
        <ele>37.149999999999999</ele>
        <time>2025-05-07T11:16:46Z</time>
      </trkpt>
      <trkpt lat="37.097744029015303" lon="-8.219240019097924">
        <ele>40.509999999999998</ele>
        <time>2025-05-07T11:16:54Z</time>
      </trkpt>
      <trkpt lat="37.098522959277034" lon="-8.218181971460581">
        <ele>46.280000000000001</ele>
        <time>2025-05-07T11:17:01Z</time>
      </trkpt>
      <trkpt lat="37.09874901920557" lon="-8.217902015894651">
        <ele>47.240000000000002</ele>
        <time>2025-05-07T11:17:04Z</time>
      </trkpt>
      <trkpt lat="37.09874901920557" lon="-8.217688025906682">
        <ele>47.719999999999999</ele>
        <time>2025-05-07T11:17:05Z</time>
      </trkpt>
      <trkpt lat="37.098800987005234" lon="-8.217601021751761">
        <ele>48.200000000000003</ele>
        <time>2025-05-07T11:17:06Z</time>
      </trkpt>
      <trkpt lat="37.09894297644496" lon="-8.217544024810195">
        <ele>48.68</ele>
        <time>2025-05-07T11:17:07Z</time>
      </trkpt>
      <trkpt lat="37.099113967269659" lon="-8.217516029253602">
        <ele>49.159999999999997</ele>
        <time>2025-05-07T11:17:08Z</time>
      </trkpt>
      <trkpt lat="37.099246988072991" lon="-8.217364987358451">
        <ele>49.649999999999999</ele>
        <time>2025-05-07T11:17:10Z</time>
      </trkpt>
      <trkpt lat="37.09965099580586" lon="-8.217014037072659">
        <ele>50.609999999999999</ele>
        <time>2025-05-07T11:17:14Z</time>
      </trkpt>
      <trkpt lat="37.09975702688098" lon="-8.216971037909389">
        <ele>50.609999999999999</ele>
        <time>2025-05-07T11:17:15Z</time>
      </trkpt>
      <trkpt lat="37.099857022985816" lon="-8.216930972412229">
        <ele>50.130000000000003</ele>
        <time>2025-05-07T11:17:16Z</time>
      </trkpt>
      <trkpt lat="37.099950984120369" lon="-8.216894008219242">
        <ele>50.130000000000003</ele>
        <time>2025-05-07T11:17:17Z</time>
      </trkpt>
      <trkpt lat="37.100049974396825" lon="-8.216881016269326">
        <ele>49.649999999999999</ele>
        <time>2025-05-07T11:17:18Z</time>
      </trkpt>
      <trkpt lat="37.100152987986803" lon="-8.216866012662649">
        <ele>49.649999999999999</ele>
        <time>2025-05-07T11:17:19Z</time>
      </trkpt>
      <trkpt lat="37.101097041741014" lon="-8.216636013239622">
        <ele>51.57</ele>
        <time>2025-05-07T11:17:28Z</time>
      </trkpt>
      <trkpt lat="37.101195026189089" lon="-8.216582033783197">
        <ele>52.049999999999997</ele>
        <time>2025-05-07T11:17:29Z</time>
      </trkpt>
      <trkpt lat="37.101379008963704" lon="-8.216430991888046">
        <ele>52.530000000000001</ele>
        <time>2025-05-07T11:17:31Z</time>
      </trkpt>
      <trkpt lat="37.101465007290244" lon="-8.216344993561506">
        <ele>53.009999999999998</ele>
        <time>2025-05-07T11:17:32Z</time>
      </trkpt>
      <trkpt lat="37.101726019755006" lon="-8.216080963611603">
        <ele>54.93</ele>
        <time>2025-05-07T11:17:35Z</time>
      </trkpt>
      <trkpt lat="37.101810006424785" lon="-8.215993959456682">
        <ele>55.890000000000001</ele>
        <time>2025-05-07T11:17:36Z</time>
      </trkpt>
      <trkpt lat="37.102664038538933" lon="-8.215225003659725">
        <ele>60.700000000000003</ele>
        <time>2025-05-07T11:17:46Z</time>
      </trkpt>
      <trkpt lat="37.103472976014018" lon="-8.214664002880454">
        <ele>65.030000000000001</ele>
        <time>2025-05-07T11:17:55Z</time>
      </trkpt>
      <trkpt lat="37.10358202457428" lon="-8.214636007323861">
        <ele>65.510000000000005</ele>
        <time>2025-05-07T11:17:56Z</time>
      </trkpt>
      <trkpt lat="37.103696018457413" lon="-8.214627038687468">
        <ele>66.469999999999999</ele>
        <time>2025-05-07T11:17:57Z</time>
      </trkpt>
      <trkpt lat="37.103810012340546" lon="-8.214621003717184">
        <ele>66.950000000000003</ele>
        <time>2025-05-07T11:17:58Z</time>
      </trkpt>
      <trkpt lat="37.103930041193962" lon="-8.214631984010339">
        <ele>67.430000000000007</ele>
        <time>2025-05-07T11:17:59Z</time>
      </trkpt>
      <trkpt lat="37.104051997885108" lon="-8.214642964303494">
        <ele>67.430000000000007</ele>
        <time>2025-05-07T11:18:00Z</time>
      </trkpt>
      <trkpt lat="37.104868981987238" lon="-8.214702978730202">
        <ele>69.829999999999998</ele>
        <time>2025-05-07T11:18:07Z</time>
      </trkpt>
      <trkpt lat="37.104975013062358" lon="-8.214672971516848">
        <ele>70.310000000000002</ele>
        <time>2025-05-07T11:18:08Z</time>
      </trkpt>
      <trkpt lat="37.105079032480717" lon="-8.214624021202326">
        <ele>70.790000000000006</ele>
        <time>2025-05-07T11:18:09Z</time>
      </trkpt>
      <trkpt lat="37.105189003050327" lon="-8.21457096375525">
        <ele>70.790000000000006</ele>
        <time>2025-05-07T11:18:10Z</time>
      </trkpt>
      <trkpt lat="37.10530299693346" lon="-8.214516984298825">
        <ele>71.269999999999996</ele>
        <time>2025-05-07T11:18:11Z</time>
      </trkpt>
      <trkpt lat="37.105417996644974" lon="-8.214455964043737">
        <ele>71.760000000000005</ele>
        <time>2025-05-07T11:18:12Z</time>
      </trkpt>
      <trkpt lat="37.106690034270287" lon="-8.213730007410049">
        <ele>72.239999999999995</ele>
        <time>2025-05-07T11:18:23Z</time>
      </trkpt>
      <trkpt lat="37.106988010928035" lon="-8.213477041572332">
        <ele>72.719999999999999</ele>
        <time>2025-05-07T11:18:26Z</time>
      </trkpt>
      <trkpt lat="37.107061017304659" lon="-8.213371010497212">
        <ele>73.200000000000003</ele>
        <time>2025-05-07T11:18:27Z</time>
      </trkpt>
      <trkpt lat="37.107116002589464" lon="-8.213238995522261">
        <ele>73.680000000000007</ele>
        <time>2025-05-07T11:18:28Z</time>
      </trkpt>
      <trkpt lat="37.107166964560747" lon="-8.213117038831115">
        <ele>73.680000000000007</ele>
        <time>2025-05-07T11:18:29Z</time>
      </trkpt>
      <trkpt lat="37.107207030057907" lon="-8.213014025241137">
        <ele>74.159999999999997</ele>
        <time>2025-05-07T11:18:30Z</time>
      </trkpt>
      <trkpt lat="37.107386989519" lon="-8.212173990905285">
        <ele>79.450000000000003</ele>
        <time>2025-05-07T11:18:38Z</time>
      </trkpt>
      <trkpt lat="37.107650013640523" lon="-8.211138993501663">
        <ele>81.849999999999994</ele>
        <time>2025-05-07T11:18:48Z</time>
      </trkpt>
      <trkpt lat="37.107693012803793" lon="-8.21104796603322">
        <ele>81.370000000000005</ele>
        <time>2025-05-07T11:18:49Z</time>
      </trkpt>
      <trkpt lat="37.107744980603456" lon="-8.210957022383809">
        <ele>81.370000000000005</ele>
        <time>2025-05-07T11:18:50Z</time>
      </trkpt>
      <trkpt lat="37.108290977776051" lon="-8.209893023595214">
        <ele>76.560000000000002</ele>
        <time>2025-05-07T11:18:59Z</time>
      </trkpt>
      <trkpt lat="37.108336994424462" lon="-8.209750028327107">
        <ele>76.079999999999998</ele>
        <time>2025-05-07T11:19:00Z</time>
      </trkpt>
      <trkpt lat="37.108380999416113" lon="-8.209611978381872">
        <ele>76.079999999999998</ele>
        <time>2025-05-07T11:19:01Z</time>
      </trkpt>
      <trkpt lat="37.108427016064525" lon="-8.209467977285385">
        <ele>75.599999999999994</ele>
        <time>2025-05-07T11:19:02Z</time>
      </trkpt>
      <trkpt lat="37.108445037156343" lon="-8.209012001752853">
        <ele>74.159999999999997</ele>
        <time>2025-05-07T11:19:05Z</time>
      </trkpt>
      <trkpt lat="37.108429027721286" lon="-8.208861965686083">
        <ele>74.159999999999997</ele>
        <time>2025-05-07T11:19:06Z</time>
      </trkpt>
      <trkpt lat="37.108376976102591" lon="-8.207033034414053">
        <ele>74.159999999999997</ele>
        <time>2025-05-07T11:19:18Z</time>
      </trkpt>
      <trkpt lat="37.108429027721286" lon="-8.205979010090232">
        <ele>75.599999999999994</ele>
        <time>2025-05-07T11:19:25Z</time>
      </trkpt>
      <trkpt lat="37.108437996357679" lon="-8.205827968195081">
        <ele>75.599999999999994</ele>
        <time>2025-05-07T11:19:26Z</time>
      </trkpt>
      <trkpt lat="37.108484013006091" lon="-8.205308960750699">
        <ele>75.599999999999994</ele>
        <time>2025-05-07T11:19:30Z</time>
      </trkpt>
      <trkpt lat="37.108420981094241" lon="-8.205192033201456">
        <ele>76.079999999999998</ele>
        <time>2025-05-07T11:19:31Z</time>
      </trkpt>
      <trkpt lat="37.108361972495914" lon="-8.205150961875916">
        <ele>76.079999999999998</ele>
        <time>2025-05-07T11:19:32Z</time>
      </trkpt>
      <trkpt lat="37.108508991077542" lon="-8.205101005733013">
        <ele>76.079999999999998</ele>
        <time>2025-05-07T11:19:33Z</time>
      </trkpt>
      <trkpt lat="37.108519971370697" lon="-8.205032022669911">
        <ele>76.079999999999998</ele>
        <time>2025-05-07T11:19:34Z</time>
      </trkpt>
      <trkpt lat="37.108535980805755" lon="-8.204952981323004">
        <ele>76.079999999999998</ele>
        <time>2025-05-07T11:19:35Z</time>
      </trkpt>
      <trkpt lat="37.108550984412432" lon="-8.204877963289619">
        <ele>75.599999999999994</ele>
        <time>2025-05-07T11:19:36Z</time>
      </trkpt>
      <trkpt lat="37.108570011332631" lon="-8.204779978841543">
        <ele>75.120000000000005</ele>
        <time>2025-05-07T11:19:37Z</time>
      </trkpt>
      <trkpt lat="37.108598006889224" lon="-8.204641006886959">
        <ele>75.120000000000005</ele>
        <time>2025-05-07T11:19:38Z</time>
      </trkpt>
      <trkpt lat="37.108627008274198" lon="-8.204509997740388">
        <ele>75.120000000000005</ele>
        <time>2025-05-07T11:19:39Z</time>
      </trkpt>
      <trkpt lat="37.108669001609087" lon="-8.204355016350746">
        <ele>74.640000000000001</ele>
        <time>2025-05-07T11:19:40Z</time>
      </trkpt>
      <trkpt lat="37.108713006600738" lon="-8.204201962798834">
        <ele>74.159999999999997</ele>
        <time>2025-05-07T11:19:41Z</time>
      </trkpt>
      <trkpt lat="37.108751982450485" lon="-8.204048993065953">
        <ele>73.200000000000003</ele>
        <time>2025-05-07T11:19:42Z</time>
      </trkpt>
      <trkpt lat="37.108876034617424" lon="-8.203445998951793">
        <ele>71.269999999999996</ele>
        <time>2025-05-07T11:19:46Z</time>
      </trkpt>
      <trkpt lat="37.108851978555322" lon="-8.2032660394907">
        <ele>71.269999999999996</ele>
        <time>2025-05-07T11:19:47Z</time>
      </trkpt>
      <trkpt lat="37.108810991048813" lon="-8.203082978725433">
        <ele>71.269999999999996</ele>
        <time>2025-05-07T11:19:48Z</time>
      </trkpt>
      <trkpt lat="37.108733961358666" lon="-8.202900001779199">
        <ele>71.269999999999996</ele>
        <time>2025-05-07T11:19:49Z</time>
      </trkpt>
      <trkpt lat="37.108651986345649" lon="-8.202705960720778">
        <ele>71.269999999999996</ele>
        <time>2025-05-07T11:19:50Z</time>
      </trkpt>
      <trkpt lat="37.10856799967587" lon="-8.202504040673375">
        <ele>70.790000000000006</ele>
        <time>2025-05-07T11:19:51Z</time>
      </trkpt>
      <trkpt lat="37.107735006138682" lon="-8.200876023620367">
        <ele>70.310000000000002</ele>
        <time>2025-05-07T11:20:00Z</time>
      </trkpt>
      <trkpt lat="37.107574995607138" lon="-8.200624985620379">
        <ele>69.829999999999998</ele>
        <time>2025-05-07T11:20:02Z</time>
      </trkpt>
      <trkpt lat="37.107504000887275" lon="-8.200521972030401">
        <ele>69.829999999999998</ele>
        <time>2025-05-07T11:20:03Z</time>
      </trkpt>
      <trkpt lat="37.107373997569084" lon="-8.200438991189003">
        <ele>69.349999999999994</ele>
        <time>2025-05-07T11:20:04Z</time>
      </trkpt>
      <trkpt lat="37.107255980372429" lon="-8.200363973155618">
        <ele>69.829999999999998</ele>
        <time>2025-05-07T11:20:05Z</time>
      </trkpt>
      <trkpt lat="37.107137041166425" lon="-8.200288033112884">
        <ele>69.829999999999998</ele>
        <time>2025-05-07T11:20:06Z</time>
      </trkpt>
      <trkpt lat="37.107031010091305" lon="-8.200220977887511">
        <ele>69.829999999999998</ele>
        <time>2025-05-07T11:20:07Z</time>
      </trkpt>
      <trkpt lat="37.106158034875989" lon="-8.199664000421763">
        <ele>68.870000000000005</ele>
        <time>2025-05-07T11:20:16Z</time>
      </trkpt>
      <trkpt lat="37.106058960780501" lon="-8.199582025408745">
        <ele>68.390000000000001</ele>
        <time>2025-05-07T11:20:17Z</time>
      </trkpt>
      <trkpt lat="37.105966005474329" lon="-8.199479011818767">
        <ele>67.909999999999997</ele>
        <time>2025-05-07T11:20:18Z</time>
      </trkpt>
      <trkpt lat="37.105203000828624" lon="-8.198249973356724">
        <ele>63.579999999999998</ele>
        <time>2025-05-07T11:20:28Z</time>
      </trkpt>
      <trkpt lat="37.104330025613308" lon="-8.196791019290686">
        <ele>64.069999999999993</ele>
        <time>2025-05-07T11:20:40Z</time>
      </trkpt>
      <trkpt lat="37.104264982044697" lon="-8.196662021800876">
        <ele>64.069999999999993</ele>
        <time>2025-05-07T11:20:41Z</time>
      </trkpt>
      <trkpt lat="37.104174960404634" lon="-8.196375025436282">
        <ele>64.549999999999997</ele>
        <time>2025-05-07T11:20:43Z</time>
      </trkpt>
      <trkpt lat="37.104134978726506" lon="-8.196230018511415">
        <ele>64.549999999999997</ele>
        <time>2025-05-07T11:20:44Z</time>
      </trkpt>
      <trkpt lat="37.104119975119829" lon="-8.196076964959502">
        <ele>64.549999999999997</ele>
        <time>2025-05-07T11:20:45Z</time>
      </trkpt>
      <trkpt lat="37.104103965684772" lon="-8.195923995226622">
        <ele>64.549999999999997</ele>
        <time>2025-05-07T11:20:46Z</time>
      </trkpt>
      <trkpt lat="37.104089967906475" lon="-8.195771025493741">
        <ele>64.549999999999997</ele>
        <time>2025-05-07T11:20:47Z</time>
      </trkpt>
      <trkpt lat="37.104076975956559" lon="-8.195615960285068">
        <ele>64.069999999999993</ele>
        <time>2025-05-07T11:20:48Z</time>
      </trkpt>
      <trkpt lat="37.103962982073426" lon="-8.193289982154965">
        <ele>63.579999999999998</ele>
        <time>2025-05-07T11:21:03Z</time>
      </trkpt>
      <trkpt lat="37.104118969291449" lon="-8.191798003390431">
        <ele>64.069999999999993</ele>
        <time>2025-05-07T11:21:13Z</time>
      </trkpt>
      <trkpt lat="37.10472397506237" lon="-8.190121036022902">
        <ele>61.659999999999997</ele>
        <time>2025-05-07T11:21:25Z</time>
      </trkpt>
      <trkpt lat="37.1052370313555" lon="-8.188739027827978">
        <ele>58.299999999999997</ele>
        <time>2025-05-07T11:21:35Z</time>
      </trkpt>
      <trkpt lat="37.10528296418488" lon="-8.188600977882743">
        <ele>57.82</ele>
        <time>2025-05-07T11:21:36Z</time>
      </trkpt>
      <trkpt lat="37.105745980516076" lon="-8.187437988817692">
        <ele>54.450000000000003</ele>
        <time>2025-05-07T11:21:45Z</time>
      </trkpt>
      <trkpt lat="37.105680014938116" lon="-8.187217963859439">
        <ele>54.450000000000003</ele>
        <time>2025-05-07T11:21:46Z</time>
      </trkpt>
      <trkpt lat="37.105680014938116" lon="-8.187126014381647">
        <ele>53.969999999999999</ele>
        <time>2025-05-07T11:21:47Z</time>
      </trkpt>
      <trkpt lat="37.105742041021585" lon="-8.18698100745678">
        <ele>53.490000000000002</ele>
        <time>2025-05-07T11:21:48Z</time>
      </trkpt>
      <trkpt lat="37.105786968022585" lon="-8.186916969716549">
        <ele>53.490000000000002</ele>
        <time>2025-05-07T11:21:49Z</time>
      </trkpt>
      <trkpt lat="37.105934992432594" lon="-8.186836000531912">
        <ele>53.490000000000002</ele>
        <time>2025-05-07T11:21:50Z</time>
      </trkpt>
      <trkpt lat="37.105995006859303" lon="-8.186716977506876">
        <ele>53.009999999999998</ele>
        <time>2025-05-07T11:21:51Z</time>
      </trkpt>
      <trkpt lat="37.106044963002205" lon="-8.186582028865814">
        <ele>53.009999999999998</ele>
        <time>2025-05-07T11:21:52Z</time>
      </trkpt>
      <trkpt lat="37.106095002964139" lon="-8.18644498474896">
        <ele>53.490000000000002</ele>
        <time>2025-05-07T11:21:53Z</time>
      </trkpt>
      <trkpt lat="37.106144037097692" lon="-8.186308024451137">
        <ele>53.490000000000002</ele>
        <time>2025-05-07T11:21:54Z</time>
      </trkpt>
      <trkpt lat="37.106447964906693" lon="-8.185488022863865">
        <ele>52.530000000000001</ele>
        <time>2025-05-07T11:22:00Z</time>
      </trkpt>
      <trkpt lat="37.107077026739717" lon="-8.183841984719038">
        <ele>50.609999999999999</ele>
        <time>2025-05-07T11:22:12Z</time>
      </trkpt>
      <trkpt lat="37.107127988710999" lon="-8.183706030249596">
        <ele>50.609999999999999</ele>
        <time>2025-05-07T11:22:13Z</time>
      </trkpt>
      <trkpt lat="37.107548005878925" lon="-8.18257799372077">
        <ele>50.130000000000003</ele>
        <time>2025-05-07T11:22:22Z</time>
      </trkpt>
      <trkpt lat="37.108127027750015" lon="-8.18103002384305">
        <ele>50.609999999999999</ele>
        <time>2025-05-07T11:22:34Z</time>
      </trkpt>
      <trkpt lat="37.108487030491233" lon="-8.179671987891197">
        <ele>51.57</ele>
        <time>2025-05-07T11:22:45Z</time>
      </trkpt>
      <trkpt lat="37.108733039349318" lon="-8.177741970866919">
        <ele>48.200000000000003</ele>
        <time>2025-05-07T11:22:58Z</time>
      </trkpt>
      <trkpt lat="37.108995979651809" lon="-8.175347009673715">
        <ele>42.920000000000002</ele>
        <time>2025-05-07T11:23:14Z</time>
      </trkpt>
      <trkpt lat="37.109214998781681" lon="-8.173399977385998">
        <ele>40.990000000000002</ele>
        <time>2025-05-07T11:23:27Z</time>
      </trkpt>
      <trkpt lat="37.109145009890199" lon="-8.172805029898882">
        <ele>39.549999999999997</ele>
        <time>2025-05-07T11:23:31Z</time>
      </trkpt>
      <trkpt lat="37.108733961358666" lon="-8.170913988724351">
        <ele>36.189999999999998</ele>
        <time>2025-05-07T11:23:44Z</time>
      </trkpt>
      <trkpt lat="37.108399020507932" lon="-8.169310027733445">
        <ele>32.82</ele>
        <time>2025-05-07T11:23:54Z</time>
      </trkpt>
      <trkpt lat="37.108388962224126" lon="-8.169090002775192">
        <ele>32.340000000000003</ele>
        <time>2025-05-07T11:23:55Z</time>
      </trkpt>
      <trkpt lat="37.108314028009772" lon="-8.167462991550565">
        <ele>28.98</ele>
        <time>2025-05-07T11:24:03Z</time>
      </trkpt>
      <trkpt lat="37.108212020248175" lon="-8.166124988347292">
        <ele>26.09</ele>
        <time>2025-05-07T11:24:12Z</time>
      </trkpt>
      <trkpt lat="37.108104983344674" lon="-8.164328997954726">
        <ele>21.289999999999999</ele>
        <time>2025-05-07T11:24:23Z</time>
      </trkpt>
      <trkpt lat="37.108104983344674" lon="-8.163890037685633">
        <ele>20.809999999999999</ele>
        <time>2025-05-07T11:24:25Z</time>
      </trkpt>
      <trkpt lat="37.108104983344674" lon="-8.163660038262606">
        <ele>20.809999999999999</ele>
        <time>2025-05-07T11:24:26Z</time>
      </trkpt>
      <trkpt lat="37.108104983344674" lon="-8.163448981940746">
        <ele>20.32</ele>
        <time>2025-05-07T11:24:27Z</time>
      </trkpt>
      <trkpt lat="37.108129039406776" lon="-8.1623600050807">
        <ele>18.879999999999999</ele>
        <time>2025-05-07T11:24:34Z</time>
      </trkpt>
      <trkpt lat="37.108230041339993" lon="-8.161230040714145">
        <ele>17.920000000000002</ele>
        <time>2025-05-07T11:24:43Z</time>
      </trkpt>
      <trkpt lat="37.108258036896586" lon="-8.16111596301198">
        <ele>17.920000000000002</ele>
        <time>2025-05-07T11:24:44Z</time>
      </trkpt>
      <trkpt lat="37.108308998867869" lon="-8.161014961078763">
        <ele>17.920000000000002</ele>
        <time>2025-05-07T11:24:45Z</time>
      </trkpt>
      <trkpt lat="37.108384016901255" lon="-8.160911025479436">
        <ele>17.920000000000002</ele>
        <time>2025-05-07T11:24:46Z</time>
      </trkpt>
      <trkpt lat="37.108437996357679" lon="-8.160842964425683">
        <ele>17.440000000000001</ele>
        <time>2025-05-07T11:24:47Z</time>
      </trkpt>
      <trkpt lat="37.10936302319169" lon="-8.15948098897934">
        <ele>15.52</ele>
        <time>2025-05-07T11:25:01Z</time>
      </trkpt>
      <trkpt lat="37.109985966235399" lon="-8.157917009666562">
        <ele>18.879999999999999</ele>
        <time>2025-05-07T11:25:13Z</time>
      </trkpt>
      <trkpt lat="37.110214959830046" lon="-8.157392973080277">
        <ele>19.359999999999999</ele>
        <time>2025-05-07T11:25:17Z</time>
      </trkpt>
      <trkpt lat="37.110272962599993" lon="-8.157260958105326">
        <ele>19.359999999999999</ele>
        <time>2025-05-07T11:25:18Z</time>
      </trkpt>
      <trkpt lat="37.111320029944181" lon="-8.156019011512399">
        <ele>18.399999999999999</ele>
        <time>2025-05-07T11:25:30Z</time>
      </trkpt>
      <trkpt lat="37.112571028992534" lon="-8.154605990275741">
        <ele>27.530000000000001</ele>
        <time>2025-05-07T11:25:44Z</time>
      </trkpt>
      <trkpt lat="37.113836025819182" lon="-8.15316203981638">
        <ele>28.98</ele>
        <time>2025-05-07T11:25:58Z</time>
      </trkpt>
      <trkpt lat="37.114634988829494" lon="-8.152056969702244">
        <ele>25.609999999999999</ele>
        <time>2025-05-07T11:26:08Z</time>
      </trkpt>
      <trkpt lat="37.11552900262177" lon="-8.150125024840236">
        <ele>28.98</ele>
        <time>2025-05-07T11:26:23Z</time>
      </trkpt>
      <trkpt lat="37.115568984299898" lon="-8.150017987936735">
        <ele>29.940000000000001</ele>
        <time>2025-05-07T11:26:24Z</time>
      </trkpt>
      <trkpt lat="37.115608965978026" lon="-8.14994296990335">
        <ele>30.420000000000002</ele>
        <time>2025-05-07T11:26:25Z</time>
      </trkpt>
      <trkpt lat="37.115647019818425" lon="-8.149874992668629">
        <ele>31.379999999999999</ele>
        <time>2025-05-07T11:26:26Z</time>
      </trkpt>
      <trkpt lat="37.115712985396385" lon="-8.149740966036916">
        <ele>32.340000000000003</ele>
        <time>2025-05-07T11:26:28Z</time>
      </trkpt>
      <trkpt lat="37.115737041458488" lon="-8.149686986580491">
        <ele>33.299999999999997</ele>
        <time>2025-05-07T11:26:29Z</time>
      </trkpt>
      <trkpt lat="37.11576503701508" lon="-8.149624038487673">
        <ele>33.780000000000001</ele>
        <time>2025-05-07T11:26:30Z</time>
      </trkpt>
      <trkpt lat="37.11578699760139" lon="-8.149567963555455">
        <ele>34.259999999999998</ele>
        <time>2025-05-07T11:26:31Z</time>
      </trkpt>
      <trkpt lat="37.11580803617835" lon="-8.149515995755792">
        <ele>34.259999999999998</ele>
        <time>2025-05-07T11:26:32Z</time>
      </trkpt>
      <trkpt lat="37.11585103534162" lon="-8.149408958852291">
        <ele>34.259999999999998</ele>
        <time>2025-05-07T11:26:33Z</time>
      </trkpt>
      <trkpt lat="37.115852041170001" lon="-8.149406025186181">
        <ele>34.259999999999998</ele>
        <time>2025-05-07T11:26:34Z</time>
      </trkpt>
      <trkpt lat="37.115881964564323" lon="-8.149337964132428">
        <ele>34.259999999999998</ele>
        <time>2025-05-07T11:26:35Z</time>
      </trkpt>
      <trkpt lat="37.115911971777678" lon="-8.149265963584185">
        <ele>34.740000000000002</ele>
        <time>2025-05-07T11:26:36Z</time>
      </trkpt>
      <trkpt lat="37.115946002304554" lon="-8.149187006056309">
        <ele>35.710000000000001</ele>
        <time>2025-05-07T11:26:37Z</time>
      </trkpt>
      <trkpt lat="37.11598003283143" lon="-8.149108970537782">
        <ele>36.189999999999998</ele>
        <time>2025-05-07T11:26:38Z</time>
      </trkpt>
      <trkpt lat="37.11600199341774" lon="-8.149008974432945">
        <ele>36.670000000000002</ele>
        <time>2025-05-07T11:26:39Z</time>
      </trkpt>
      <trkpt lat="37.116027977317572" lon="-8.148896992206574">
        <ele>36.670000000000002</ele>
        <time>2025-05-07T11:26:40Z</time>
      </trkpt>
      <trkpt lat="37.116054967045784" lon="-8.148776041343808">
        <ele>37.149999999999999</ele>
        <time>2025-05-07T11:26:41Z</time>
      </trkpt>
      <trkpt lat="37.116083968430758" lon="-8.148648971691728">
        <ele>37.630000000000003</ele>
        <time>2025-05-07T11:26:42Z</time>
      </trkpt>
      <trkpt lat="37.116094026714563" lon="-8.14852399751544">
        <ele>38.109999999999999</ele>
        <time>2025-05-07T11:26:43Z</time>
      </trkpt>
      <trkpt lat="37.116167033091187" lon="-8.147768033668399">
        <ele>40.030000000000001</ele>
        <time>2025-05-07T11:26:48Z</time>
      </trkpt>
      <trkpt lat="37.116202991455793" lon="-8.147627972066402">
        <ele>40.509999999999998</ele>
        <time>2025-05-07T11:26:49Z</time>
      </trkpt>
      <trkpt lat="37.116253031417727" lon="-8.147477013990283">
        <ele>40.509999999999998</ele>
        <time>2025-05-07T11:26:50Z</time>
      </trkpt>
      <trkpt lat="37.116326037794352" lon="-8.147366037592292">
        <ele>40.509999999999998</ele>
        <time>2025-05-07T11:26:51Z</time>
      </trkpt>
      <trkpt lat="37.116403989493847" lon="-8.147250032052398">
        <ele>40.509999999999998</ele>
        <time>2025-05-07T11:26:52Z</time>
      </trkpt>
      <trkpt lat="37.116482025012374" lon="-8.147133020684123">
        <ele>40.030000000000001</ele>
        <time>2025-05-07T11:26:53Z</time>
      </trkpt>
      <trkpt lat="37.11737796664238" lon="-8.146126018837094">
        <ele>40.030000000000001</ele>
        <time>2025-05-07T11:27:03Z</time>
      </trkpt>
      <trkpt lat="37.117471005767584" lon="-8.146034991368651">
        <ele>40.030000000000001</ele>
        <time>2025-05-07T11:27:04Z</time>
      </trkpt>
      <trkpt lat="37.118345992639661" lon="-8.145517995581031">
        <ele>40.030000000000001</ele>
        <time>2025-05-07T11:27:12Z</time>
      </trkpt>
      <trkpt lat="37.118401983752847" lon="-8.145390003919601">
        <ele>40.030000000000001</ele>
        <time>2025-05-07T11:27:13Z</time>
      </trkpt>
      <trkpt lat="37.118449006229639" lon="-8.14525899477303">
        <ele>40.509999999999998</ele>
        <time>2025-05-07T11:27:14Z</time>
      </trkpt>
      <trkpt lat="37.118461998179555" lon="-8.145131003111601">
        <ele>40.509999999999998</ele>
        <time>2025-05-07T11:27:15Z</time>
      </trkpt>
      <trkpt lat="37.118446994572878" lon="-8.144983984529972">
        <ele>40.509999999999998</ele>
        <time>2025-05-07T11:27:16Z</time>
      </trkpt>
      <trkpt lat="37.118431990966201" lon="-8.144832020625472">
        <ele>40.509999999999998</ele>
        <time>2025-05-07T11:27:17Z</time>
      </trkpt>
      <trkpt lat="37.118190005421638" lon="-8.142913989722729">
        <ele>42.920000000000002</ele>
        <time>2025-05-07T11:27:30Z</time>
      </trkpt>
      <trkpt lat="37.118104007095098" lon="-8.141093021258712">
        <ele>45.799999999999997</ele>
        <time>2025-05-07T11:27:42Z</time>
      </trkpt>
      <trkpt lat="37.118164021521807" lon="-8.13913400284946">
        <ele>43.880000000000003</ele>
        <time>2025-05-07T11:27:55Z</time>
      </trkpt>
      <trkpt lat="37.118210960179567" lon="-8.139002993702889">
        <ele>43.880000000000003</ele>
        <time>2025-05-07T11:27:56Z</time>
      </trkpt>
      <trkpt lat="37.118269968777895" lon="-8.138913977891207">
        <ele>43.880000000000003</ele>
        <time>2025-05-07T11:27:57Z</time>
      </trkpt>
      <trkpt lat="37.11849401704967" lon="-8.138420032337308">
        <ele>41.950000000000003</ele>
        <time>2025-05-07T11:28:04Z</time>
      </trkpt>
      <trkpt lat="37.118512038141489" lon="-8.138402011245489">
        <ele>41.469999999999999</ele>
        <time>2025-05-07T11:28:05Z</time>
      </trkpt>
      <trkpt lat="37.118627959862351" lon="-8.138259015977383">
        <ele>40.509999999999998</ele>
        <time>2025-05-07T11:28:06Z</time>
      </trkpt>
      <trkpt lat="37.118635000661016" lon="-8.138162959367037">
        <ele>39.549999999999997</ele>
        <time>2025-05-07T11:28:07Z</time>
      </trkpt>
      <trkpt lat="37.118640029802918" lon="-8.138079978525639">
        <ele>39.07</ele>
        <time>2025-05-07T11:28:08Z</time>
      </trkpt>
      <trkpt lat="37.118625026196241" lon="-8.137959027662873">
        <ele>38.590000000000003</ele>
        <time>2025-05-07T11:28:09Z</time>
      </trkpt>
      <trkpt lat="37.118598958477378" lon="-8.137741014361382">
        <ele>38.109999999999999</ele>
        <time>2025-05-07T11:28:11Z</time>
      </trkpt>
      <trkpt lat="37.118584038689733" lon="-8.137620985507965">
        <ele>38.109999999999999</ele>
        <time>2025-05-07T11:28:12Z</time>
      </trkpt>
      <trkpt lat="37.118402989581227" lon="-8.136157002300024">
        <ele>37.630000000000003</ele>
        <time>2025-05-07T11:28:22Z</time>
      </trkpt>
      <trkpt lat="37.118185982108116" lon="-8.134218016639352">
        <ele>39.07</ele>
        <time>2025-05-07T11:28:35Z</time>
      </trkpt>
      <trkpt lat="37.118124961853027" lon="-8.133766986429691">
        <ele>39.07</ele>
        <time>2025-05-07T11:28:38Z</time>
      </trkpt>
      <trkpt lat="37.117942990735173" lon="-8.132266039028764">
        <ele>40.030000000000001</ele>
        <time>2025-05-07T11:28:48Z</time>
      </trkpt>
      <trkpt lat="37.11767703294754" lon="-8.130026981234551">
        <ele>38.109999999999999</ele>
        <time>2025-05-07T11:29:03Z</time>
      </trkpt>
      <trkpt lat="37.11737796664238" lon="-8.127629002556205">
        <ele>37.630000000000003</ele>
        <time>2025-05-07T11:29:19Z</time>
      </trkpt>
      <trkpt lat="37.11709700524807" lon="-8.125339988619089">
        <ele>36.670000000000002</ele>
        <time>2025-05-07T11:29:34Z</time>
      </trkpt>
      <trkpt lat="37.11679601110518" lon="-8.122749980539084">
        <ele>37.630000000000003</ele>
        <time>2025-05-07T11:29:51Z</time>
      </trkpt>
      <trkpt lat="37.116523012518883" lon="-8.120766989886761">
        <ele>38.109999999999999</ele>
        <time>2025-05-07T11:30:04Z</time>
      </trkpt>
      <trkpt lat="37.1160679589957" lon="-8.119181971997023">
        <ele>39.07</ele>
        <time>2025-05-07T11:30:15Z</time>
      </trkpt>
      <trkpt lat="37.115782974287868" lon="-8.118328023701906">
        <ele>38.590000000000003</ele>
        <time>2025-05-07T11:30:21Z</time>
      </trkpt>
      <trkpt lat="37.115734023973346" lon="-8.118191985413432">
        <ele>38.109999999999999</ele>
        <time>2025-05-07T11:30:22Z</time>
      </trkpt>
      <trkpt lat="37.11552900262177" lon="-8.11805997043848">
        <ele>38.109999999999999</ele>
        <time>2025-05-07T11:30:23Z</time>
      </trkpt>
      <trkpt lat="37.115506958216429" lon="-8.118029963225126">
        <ele>37.630000000000003</ele>
        <time>2025-05-07T11:30:24Z</time>
      </trkpt>
      <trkpt lat="37.115446021780372" lon="-8.117943964898586">
        <ele>37.149999999999999</ele>
        <time>2025-05-07T11:30:25Z</time>
      </trkpt>
      <trkpt lat="37.115438980981708" lon="-8.117825025692582">
        <ele>37.149999999999999</ele>
        <time>2025-05-07T11:30:26Z</time>
      </trkpt>
      <trkpt lat="37.11544300429523" lon="-8.11780197545886">
        <ele>37.149999999999999</ele>
        <time>2025-05-07T11:30:27Z</time>
      </trkpt>
      <trkpt lat="37.115406962111592" lon="-8.117587985470891">
        <ele>37.149999999999999</ele>
        <time>2025-05-07T11:30:28Z</time>
      </trkpt>
      <trkpt lat="37.115521039813757" lon="-8.117470974102616">
        <ele>36.670000000000002</ele>
        <time>2025-05-07T11:30:29Z</time>
      </trkpt>
      <trkpt lat="37.115491032600403" lon="-8.117351029068232">
        <ele>36.189999999999998</ele>
        <time>2025-05-07T11:30:30Z</time>
      </trkpt>
      <trkpt lat="37.115460019558668" lon="-8.117231000214815">
        <ele>35.710000000000001</ele>
        <time>2025-05-07T11:30:31Z</time>
      </trkpt>
      <trkpt lat="37.115058023482561" lon="-8.115961980074644">
        <ele>33.299999999999997</ele>
        <time>2025-05-07T11:30:40Z</time>
      </trkpt>
      <trkpt lat="37.114524012431502" lon="-8.114258022978902">
        <ele>33.299999999999997</ele>
        <time>2025-05-07T11:30:50Z</time>
      </trkpt>
      <trkpt lat="37.113993018865585" lon="-8.112564962357283">
        <ele>33.780000000000001</ele>
        <time>2025-05-07T11:31:00Z</time>
      </trkpt>
      <trkpt lat="37.113222973421216" lon="-8.110013008117676">
        <ele>34.740000000000002</ele>
        <time>2025-05-07T11:31:15Z</time>
      </trkpt>
      <trkpt lat="37.112687034532428" lon="-8.108048960566521">
        <ele>35.710000000000001</ele>
        <time>2025-05-07T11:31:26Z</time>
      </trkpt>
      <trkpt lat="37.112259976565838" lon="-8.106070999056101">
        <ele>35.229999999999997</ele>
        <time>2025-05-07T11:31:37Z</time>
      </trkpt>
      <trkpt lat="37.112169032916427" lon="-8.105646958574653">
        <ele>35.229999999999997</ele>
        <time>2025-05-07T11:31:40Z</time>
      </trkpt>
      <trkpt lat="37.112141037359834" lon="-8.105517039075494">
        <ele>34.740000000000002</ele>
        <time>2025-05-07T11:31:41Z</time>
      </trkpt>
      <trkpt lat="37.111980020999908" lon="-8.105473034083843">
        <ele>34.259999999999998</ele>
        <time>2025-05-07T11:31:42Z</time>
      </trkpt>
      <trkpt lat="37.111923024058342" lon="-8.1052749697119">
        <ele>33.780000000000001</ele>
        <time>2025-05-07T11:31:43Z</time>
      </trkpt>
      <trkpt lat="37.111945990473032" lon="-8.105185031890869">
        <ele>33.780000000000001</ele>
        <time>2025-05-07T11:31:44Z</time>
      </trkpt>
      <trkpt lat="37.112007010728121" lon="-8.105012029409409">
        <ele>33.299999999999997</ele>
        <time>2025-05-07T11:31:45Z</time>
      </trkpt>
      <trkpt lat="37.111972980201244" lon="-8.104861993342638">
        <ele>33.299999999999997</ele>
        <time>2025-05-07T11:31:46Z</time>
      </trkpt>
      <trkpt lat="37.111936016008258" lon="-8.104699971154332">
        <ele>32.82</ele>
        <time>2025-05-07T11:31:47Z</time>
      </trkpt>
      <trkpt lat="37.111897962167859" lon="-8.104525962844491">
        <ele>32.82</ele>
        <time>2025-05-07T11:31:48Z</time>
      </trkpt>
      <trkpt lat="37.111462019383907" lon="-8.102518999949098">
        <ele>34.740000000000002</ele>
        <time>2025-05-07T11:31:59Z</time>
      </trkpt>
      <trkpt lat="37.110981987789273" lon="-8.100325036793947">
        <ele>36.189999999999998</ele>
        <time>2025-05-07T11:32:11Z</time>
      </trkpt>
      <trkpt lat="37.110502040013671" lon="-8.0981620028615">
        <ele>33.780000000000001</ele>
        <time>2025-05-07T11:32:23Z</time>
      </trkpt>
      <trkpt lat="37.110225018113852" lon="-8.097050981596112">
        <ele>31.859999999999999</ele>
        <time>2025-05-07T11:32:30Z</time>
      </trkpt>
      <trkpt lat="37.110191993415356" lon="-8.096938999369741">
        <ele>31.379999999999999</ele>
        <time>2025-05-07T11:32:31Z</time>
      </trkpt>
      <trkpt lat="37.110168021172285" lon="-8.096831040456891">
        <ele>31.379999999999999</ele>
        <time>2025-05-07T11:32:32Z</time>
      </trkpt>
      <trkpt lat="37.110056960955262" lon="-8.096751999109983">
        <ele>31.859999999999999</ele>
        <time>2025-05-07T11:32:33Z</time>
      </trkpt>
      <trkpt lat="37.110017985105515" lon="-8.096655020490289">
        <ele>31.859999999999999</ele>
        <time>2025-05-07T11:32:34Z</time>
      </trkpt>
      <trkpt lat="37.110047992318869" lon="-8.096511019393802">
        <ele>31.379999999999999</ele>
        <time>2025-05-07T11:32:35Z</time>
      </trkpt>
      <trkpt lat="37.110060984268785" lon="-8.096375986933708">
        <ele>31.379999999999999</ele>
        <time>2025-05-07T11:32:36Z</time>
      </trkpt>
      <trkpt lat="37.110067019239068" lon="-8.096231985837221">
        <ele>30.899999999999999</ele>
        <time>2025-05-07T11:32:37Z</time>
      </trkpt>
      <trkpt lat="37.1100739762187" lon="-8.096080021932721">
        <ele>30.899999999999999</ele>
        <time>2025-05-07T11:32:38Z</time>
      </trkpt>
      <trkpt lat="37.109834002330899" lon="-8.094309009611607">
        <ele>32.340000000000003</ele>
        <time>2025-05-07T11:32:48Z</time>
      </trkpt>
      <trkpt lat="37.109498977661133" lon="-8.091855961829424">
        <ele>32.340000000000003</ele>
        <time>2025-05-07T11:33:01Z</time>
      </trkpt>
      <trkpt lat="37.109185997396708" lon="-8.089186996221542">
        <ele>34.259999999999998</ele>
        <time>2025-05-07T11:33:16Z</time>
      </trkpt>
      <trkpt lat="37.109138974919915" lon="-8.088763961568475">
        <ele>33.780000000000001</ele>
        <time>2025-05-07T11:33:20Z</time>
      </trkpt>
      <trkpt lat="37.10912698879838" lon="-8.088661031797528">
        <ele>33.780000000000001</ele>
        <time>2025-05-07T11:33:21Z</time>
      </trkpt>
      <trkpt lat="37.108942000195384" lon="-8.088361965492368">
        <ele>34.740000000000002</ele>
        <time>2025-05-07T11:33:24Z</time>
      </trkpt>
      <trkpt lat="37.10899899713695" lon="-8.088207989931107">
        <ele>35.229999999999997</ele>
        <time>2025-05-07T11:33:25Z</time>
      </trkpt>
      <trkpt lat="37.109053982421756" lon="-8.087897021323443">
        <ele>35.710000000000001</ele>
        <time>2025-05-07T11:33:27Z</time>
      </trkpt>
      <trkpt lat="37.109031016007066" lon="-8.087744973599911">
        <ele>35.710000000000001</ele>
        <time>2025-05-07T11:33:28Z</time>
      </trkpt>
      <trkpt lat="37.109007965773344" lon="-8.087585968896747">
        <ele>36.189999999999998</ele>
        <time>2025-05-07T11:33:29Z</time>
      </trkpt>
      <trkpt lat="37.108713006600738" lon="-8.086031964048743">
        <ele>36.670000000000002</ele>
        <time>2025-05-07T11:33:38Z</time>
      </trkpt>
      <trkpt lat="37.108133984729648" lon="-8.083811011165381">
        <ele>39.07</ele>
        <time>2025-05-07T11:33:51Z</time>
      </trkpt>
      <trkpt lat="37.10715196095407" lon="-8.081520991399884">
        <ele>43.880000000000003</ele>
        <time>2025-05-07T11:34:05Z</time>
      </trkpt>
      <trkpt lat="37.106134984642267" lon="-8.079228037968278">
        <ele>48.200000000000003</ele>
        <time>2025-05-07T11:34:19Z</time>
      </trkpt>
      <trkpt lat="37.105328980833292" lon="-8.077421989291906">
        <ele>50.609999999999999</ele>
        <time>2025-05-07T11:34:31Z</time>
      </trkpt>
      <trkpt lat="37.105190008878708" lon="-8.077098028734326">
        <ele>51.090000000000003</ele>
        <time>2025-05-07T11:34:34Z</time>
      </trkpt>
      <trkpt lat="37.105014994740486" lon="-8.076989986002445">
        <ele>51.090000000000003</ele>
        <time>2025-05-07T11:34:35Z</time>
      </trkpt>
      <trkpt lat="37.105008959770203" lon="-8.076984034851193">
        <ele>51.57</ele>
        <time>2025-05-07T11:34:36Z</time>
      </trkpt>
      <trkpt lat="37.104939976707101" lon="-8.07691496796906">
        <ele>52.049999999999997</ele>
        <time>2025-05-07T11:34:37Z</time>
      </trkpt>
      <trkpt lat="37.104907035827637" lon="-8.076783958822489">
        <ele>52.530000000000001</ele>
        <time>2025-05-07T11:34:38Z</time>
      </trkpt>
      <trkpt lat="37.104907035827637" lon="-8.076731991022825">
        <ele>53.009999999999998</ele>
        <time>2025-05-07T11:34:39Z</time>
      </trkpt>
      <trkpt lat="37.104932013899088" lon="-8.076493022963405">
        <ele>53.009999999999998</ele>
        <time>2025-05-07T11:34:40Z</time>
      </trkpt>
      <trkpt lat="37.104875016957521" lon="-8.076370982453227">
        <ele>53.009999999999998</ele>
        <time>2025-05-07T11:34:41Z</time>
      </trkpt>
      <trkpt lat="37.104812990874052" lon="-8.076238967478275">
        <ele>53.009999999999998</ele>
        <time>2025-05-07T11:34:42Z</time>
      </trkpt>
      <trkpt lat="37.104749958962202" lon="-8.076103013008833">
        <ele>53.009999999999998</ele>
        <time>2025-05-07T11:34:43Z</time>
      </trkpt>
      <trkpt lat="37.103930963203311" lon="-8.07427198626101">
        <ele>55.409999999999997</ele>
        <time>2025-05-07T11:34:56Z</time>
      </trkpt>
      <trkpt lat="37.10298296995461" lon="-8.072114987298846">
        <ele>57.82</ele>
        <time>2025-05-07T11:35:10Z</time>
      </trkpt>
      <trkpt lat="37.102409983053803" lon="-8.070620996877551">
        <ele>57.340000000000003</ele>
        <time>2025-05-07T11:35:21Z</time>
      </trkpt>
      <trkpt lat="37.102007986977696" lon="-8.068564999848604">
        <ele>56.369999999999997</ele>
        <time>2025-05-07T11:35:35Z</time>
      </trkpt>
      <trkpt lat="37.101620994508266" lon="-8.066616961732507">
        <ele>59.259999999999998</ele>
        <time>2025-05-07T11:35:48Z</time>
      </trkpt>
      <trkpt lat="37.101312037557364" lon="-8.064977964386344">
        <ele>61.18</ele>
        <time>2025-05-07T11:35:59Z</time>
      </trkpt>
      <trkpt lat="37.100927978754044" lon="-8.063019029796124">
        <ele>61.659999999999997</ele>
        <time>2025-05-07T11:36:13Z</time>
      </trkpt>
      <trkpt lat="37.100656991824508" lon="-8.061675997450948">
        <ele>65.510000000000005</ele>
        <time>2025-05-07T11:36:25Z</time>
      </trkpt>
      <trkpt lat="37.100617010146379" lon="-8.061467036604881">
        <ele>66.950000000000003</ele>
        <time>2025-05-07T11:36:33Z</time>
      </trkpt>
      <trkpt lat="37.100542997941375" lon="-8.06116403080523">
        <ele>67.909999999999997</ele>
        <time>2025-05-07T11:36:41Z</time>
      </trkpt>
      <trkpt lat="37.100486000999808" lon="-8.060959009453654">
        <ele>68.390000000000001</ele>
        <time>2025-05-07T11:36:45Z</time>
      </trkpt>
      <trkpt lat="37.100461022928357" lon="-8.06090796366334">
        <ele>68.390000000000001</ele>
        <time>2025-05-07T11:36:46Z</time>
      </trkpt>
      <trkpt lat="37.100336970761418" lon="-8.060853984206915">
        <ele>68.390000000000001</ele>
        <time>2025-05-07T11:36:47Z</time>
      </trkpt>
      <trkpt lat="37.100311992689967" lon="-8.060838980600238">
        <ele>68.390000000000001</ele>
        <time>2025-05-07T11:36:48Z</time>
      </trkpt>
      <trkpt lat="37.100251978263259" lon="-8.060803022235632">
        <ele>68.870000000000005</ele>
        <time>2025-05-07T11:36:49Z</time>
      </trkpt>
      <trkpt lat="37.10023001767695" lon="-8.060715012252331">
        <ele>68.870000000000005</ele>
        <time>2025-05-07T11:36:50Z</time>
      </trkpt>
      <trkpt lat="37.10023001767695" lon="-8.060638988390565">
        <ele>69.349999999999994</ele>
        <time>2025-05-07T11:36:51Z</time>
      </trkpt>
      <trkpt lat="37.100267987698317" lon="-8.060593977570534">
        <ele>69.349999999999994</ele>
        <time>2025-05-07T11:36:52Z</time>
      </trkpt>
      <trkpt lat="37.100328002125025" lon="-8.060446958988905">
        <ele>69.349999999999994</ele>
        <time>2025-05-07T11:36:53Z</time>
      </trkpt>
      <trkpt lat="37.100315010175109" lon="-8.060357021167874">
        <ele>69.349999999999994</ele>
        <time>2025-05-07T11:36:54Z</time>
      </trkpt>
      <trkpt lat="37.100307969376445" lon="-8.060249984264374">
        <ele>69.349999999999994</ele>
        <time>2025-05-07T11:36:55Z</time>
      </trkpt>
      <trkpt lat="37.100162962451577" lon="-8.05901700630784">
        <ele>70.310000000000002</ele>
        <time>2025-05-07T11:37:04Z</time>
      </trkpt>
      <trkpt lat="37.099874038249254" lon="-8.057391000911593">
        <ele>70.310000000000002</ele>
        <time>2025-05-07T11:37:15Z</time>
      </trkpt>
      <trkpt lat="37.099683014675975" lon="-8.05635298602283">
        <ele>67.430000000000007</ele>
        <time>2025-05-07T11:37:24Z</time>
      </trkpt>
      <trkpt lat="37.09962903521955" lon="-8.056109994649887">
        <ele>66.950000000000003</ele>
        <time>2025-05-07T11:37:26Z</time>
      </trkpt>
      <trkpt lat="37.09960799664259" lon="-8.056004969403148">
        <ele>66.469999999999999</ele>
        <time>2025-05-07T11:37:27Z</time>
      </trkpt>
      <trkpt lat="37.099592993035913" lon="-8.055917965248227">
        <ele>66.469999999999999</ele>
        <time>2025-05-07T11:37:28Z</time>
      </trkpt>
      <trkpt lat="37.099567009136081" lon="-8.055762983858585">
        <ele>64.549999999999997</ele>
        <time>2025-05-07T11:37:34Z</time>
      </trkpt>
      <trkpt lat="37.099510012194514" lon="-8.055441034957767">
        <ele>63.100000000000001</ele>
        <time>2025-05-07T11:37:42Z</time>
      </trkpt>
      <trkpt lat="37.099281018599868" lon="-8.054228005930781">
        <ele>59.740000000000002</ele>
        <time>2025-05-07T11:37:50Z</time>
      </trkpt>
      <trkpt lat="37.098931996151805" lon="-8.052430003881455">
        <ele>52.049999999999997</ele>
        <time>2025-05-07T11:38:02Z</time>
      </trkpt>
      <trkpt lat="37.098730998113751" lon="-8.051414033398032">
        <ele>46.759999999999998</ele>
        <time>2025-05-07T11:38:09Z</time>
      </trkpt>
      <trkpt lat="37.09855598397553" lon="-8.051283024251461">
        <ele>45.799999999999997</ele>
        <time>2025-05-07T11:38:10Z</time>
      </trkpt>
      <trkpt lat="37.09855598397553" lon="-8.051283024251461">
        <ele>45.32</ele>
        <time>2025-05-07T11:38:11Z</time>
      </trkpt>
      <trkpt lat="37.09842698648572" lon="-8.051218986511231">
        <ele>45.32</ele>
        <time>2025-05-07T11:38:12Z</time>
      </trkpt>
      <trkpt lat="37.098373007029295" lon="-8.051111027598381">
        <ele>44.840000000000003</ele>
        <time>2025-05-07T11:38:13Z</time>
      </trkpt>
      <trkpt lat="37.09834098815918" lon="-8.051046989858151">
        <ele>43.880000000000003</ele>
        <time>2025-05-07T11:38:14Z</time>
      </trkpt>
      <trkpt lat="37.098330007866025" lon="-8.050869964063168">
        <ele>43.399999999999999</ele>
        <time>2025-05-07T11:38:15Z</time>
      </trkpt>
      <trkpt lat="37.098353980109096" lon="-8.050749013200402">
        <ele>42.439999999999998</ele>
        <time>2025-05-07T11:38:16Z</time>
      </trkpt>
      <trkpt lat="37.098413994535804" lon="-8.050659997388721">
        <ele>41.950000000000003</ele>
        <time>2025-05-07T11:38:17Z</time>
      </trkpt>
      <trkpt lat="37.098525976762176" lon="-8.050505015999079">
        <ele>41.469999999999999</ele>
        <time>2025-05-07T11:38:18Z</time>
      </trkpt>
      <trkpt lat="37.098506027832627" lon="-8.050397979095578">
        <ele>40.990000000000002</ele>
        <time>2025-05-07T11:38:19Z</time>
      </trkpt>
      <trkpt lat="37.098480965942144" lon="-8.050273004919291">
        <ele>40.509999999999998</ele>
        <time>2025-05-07T11:38:20Z</time>
      </trkpt>
      <trkpt lat="37.098449030891061" lon="-8.050132021307945">
        <ele>40.030000000000001</ele>
        <time>2025-05-07T11:38:21Z</time>
      </trkpt>
      <trkpt lat="37.09840402007103" lon="-8.049979973584414">
        <ele>39.549999999999997</ele>
        <time>2025-05-07T11:38:22Z</time>
      </trkpt>
      <trkpt lat="37.097750985994935" lon="-8.048642976209521">
        <ele>36.670000000000002</ele>
        <time>2025-05-07T11:38:31Z</time>
      </trkpt>
      <trkpt lat="37.096938025206327" lon="-8.046973971650004">
        <ele>34.259999999999998</ele>
        <time>2025-05-07T11:38:42Z</time>
      </trkpt>
      <trkpt lat="37.096263030543923" lon="-8.045812994241715">
        <ele>39.07</ele>
        <time>2025-05-07T11:38:50Z</time>
      </trkpt>
      <trkpt lat="37.096193041652441" lon="-8.045731019228697">
        <ele>40.509999999999998</ele>
        <time>2025-05-07T11:38:51Z</time>
      </trkpt>
      <trkpt lat="37.096106959506869" lon="-8.045661030337215">
        <ele>41.469999999999999</ele>
        <time>2025-05-07T11:38:52Z</time>
      </trkpt>
      <trkpt lat="37.095996988937259" lon="-8.045625993981957">
        <ele>41.950000000000003</ele>
        <time>2025-05-07T11:38:53Z</time>
      </trkpt>
      <trkpt lat="37.095887018367648" lon="-8.045591041445732">
        <ele>42.920000000000002</ele>
        <time>2025-05-07T11:38:54Z</time>
      </trkpt>
      <trkpt lat="37.095788028091192" lon="-8.045560028403997">
        <ele>42.920000000000002</ele>
        <time>2025-05-07T11:38:55Z</time>
      </trkpt>
      <trkpt lat="37.095683002844453" lon="-8.045516023412347">
        <ele>43.399999999999999</ele>
        <time>2025-05-07T11:38:56Z</time>
      </trkpt>
      <trkpt lat="37.095603039488196" lon="-8.045446034520865">
        <ele>43.399999999999999</ele>
        <time>2025-05-07T11:38:57Z</time>
      </trkpt>
      <trkpt lat="37.095451997593045" lon="-8.045319970697165">
        <ele>43.399999999999999</ele>
        <time>2025-05-07T11:38:59Z</time>
      </trkpt>
      <trkpt lat="37.095391983166337" lon="-8.04526599124074">
        <ele>43.399999999999999</ele>
        <time>2025-05-07T11:39:00Z</time>
      </trkpt>
      <trkpt lat="37.095128037035465" lon="-8.045283006504178">
        <ele>43.880000000000003</ele>
        <time>2025-05-07T11:39:03Z</time>
      </trkpt>
      <trkpt lat="37.095070034265518" lon="-8.045232966542244">
        <ele>43.880000000000003</ele>
        <time>2025-05-07T11:39:04Z</time>
      </trkpt>
      <trkpt lat="37.094994010403752" lon="-8.04511796683073">
        <ele>43.880000000000003</ele>
        <time>2025-05-07T11:39:05Z</time>
      </trkpt>
      <trkpt lat="37.094994010403752" lon="-8.0450280290097">
        <ele>44.359999999999999</ele>
        <time>2025-05-07T11:39:06Z</time>
      </trkpt>
      <trkpt lat="37.094994010403752" lon="-8.044974971562624">
        <ele>43.880000000000003</ele>
        <time>2025-05-07T11:39:07Z</time>
      </trkpt>
      <trkpt lat="37.095013037323952" lon="-8.044804986566305">
        <ele>43.880000000000003</ele>
        <time>2025-05-07T11:39:08Z</time>
      </trkpt>
      <trkpt lat="37.094965009018779" lon="-8.044715970754623">
        <ele>43.880000000000003</ele>
        <time>2025-05-07T11:39:09Z</time>
      </trkpt>
      <trkpt lat="37.094908012077212" lon="-8.044610023498535">
        <ele>43.880000000000003</ele>
        <time>2025-05-07T11:39:10Z</time>
      </trkpt>
      <trkpt lat="37.094858977943659" lon="-8.044532993808389">
        <ele>43.880000000000003</ele>
        <time>2025-05-07T11:39:11Z</time>
      </trkpt>
      <trkpt lat="37.094801981002092" lon="-8.044440960511565">
        <ele>43.399999999999999</ele>
        <time>2025-05-07T11:39:12Z</time>
      </trkpt>
      <trkpt lat="37.094178032130003" lon="-8.043406968936324">
        <ele>45.799999999999997</ele>
        <time>2025-05-07T11:39:21Z</time>
      </trkpt>
      <trkpt lat="37.093658018857241" lon="-8.04223501123488">
        <ele>47.719999999999999</ele>
        <time>2025-05-07T11:39:30Z</time>
      </trkpt>
      <trkpt lat="37.093053013086319" lon="-8.040743032470346">
        <ele>52.049999999999997</ele>
        <time>2025-05-07T11:39:42Z</time>
      </trkpt>
      <trkpt lat="37.093022000044584" lon="-8.040673965588212">
        <ele>52.049999999999997</ele>
        <time>2025-05-07T11:39:43Z</time>
      </trkpt>
      <trkpt lat="37.092995010316372" lon="-8.040615962818265">
        <ele>52.530000000000001</ele>
        <time>2025-05-07T11:39:44Z</time>
      </trkpt>
      <trkpt lat="37.092976989224553" lon="-8.040575981140137">
        <ele>52.530000000000001</ele>
        <time>2025-05-07T11:39:45Z</time>
      </trkpt>
      <trkpt lat="37.092890990898013" lon="-8.04053901694715">
        <ele>53.490000000000002</ele>
        <time>2025-05-07T11:39:46Z</time>
      </trkpt>
      <trkpt lat="37.092890990898013" lon="-8.04047497920692">
        <ele>53.969999999999999</ele>
        <time>2025-05-07T11:39:47Z</time>
      </trkpt>
      <trkpt lat="37.092890990898013" lon="-8.040403984487057">
        <ele>54.450000000000003</ele>
        <time>2025-05-07T11:39:48Z</time>
      </trkpt>
      <trkpt lat="37.092617992311716" lon="-8.039664030075073">
        <ele>59.259999999999998</ele>
        <time>2025-05-07T11:39:56Z</time>
      </trkpt>
      <trkpt lat="37.09197903983295" lon="-8.038213960826397">
        <ele>66.469999999999999</ele>
        <time>2025-05-07T11:40:07Z</time>
      </trkpt>
      <trkpt lat="37.091170018538833" lon="-8.037258004769683">
        <ele>70.790000000000006</ele>
        <time>2025-05-07T11:40:17Z</time>
      </trkpt>
      <trkpt lat="37.09023904055357" lon="-8.036271035671234">
        <ele>70.790000000000006</ele>
        <time>2025-05-07T11:40:28Z</time>
      </trkpt>
      <trkpt lat="37.089850036427379" lon="-8.035850012674928">
        <ele>69.829999999999998</ele>
        <time>2025-05-07T11:40:35Z</time>
      </trkpt>
      <trkpt lat="37.089687008410692" lon="-8.035678016021848">
        <ele>70.310000000000002</ele>
        <time>2025-05-07T11:40:43Z</time>
      </trkpt>
      <trkpt lat="37.089594975113869" lon="-8.035600986331701">
        <ele>70.310000000000002</ele>
        <time>2025-05-07T11:40:45Z</time>
      </trkpt>
      <trkpt lat="37.089521968737245" lon="-8.035594029352069">
        <ele>70.790000000000006</ele>
        <time>2025-05-07T11:40:46Z</time>
      </trkpt>
      <trkpt lat="37.089485004544258" lon="-8.035609032958746">
        <ele>70.790000000000006</ele>
        <time>2025-05-07T11:40:47Z</time>
      </trkpt>
      <trkpt lat="37.08944502286613" lon="-8.035587994381785">
        <ele>70.790000000000006</ele>
        <time>2025-05-07T11:40:48Z</time>
      </trkpt>
      <trkpt lat="37.089427001774311" lon="-8.035542983561754">
        <ele>70.790000000000006</ele>
        <time>2025-05-07T11:40:49Z</time>
      </trkpt>
      <trkpt lat="37.089415015652776" lon="-8.03551197052002">
        <ele>70.790000000000006</ele>
        <time>2025-05-07T11:40:50Z</time>
      </trkpt>
      <trkpt lat="37.089414009824395" lon="-8.035408034920692">
        <ele>70.790000000000006</ele>
        <time>2025-05-07T11:40:51Z</time>
      </trkpt>
      <trkpt lat="37.089376961812377" lon="-8.035356989130378">
        <ele>70.790000000000006</ele>
        <time>2025-05-07T11:40:52Z</time>
      </trkpt>
      <trkpt lat="37.08933899179101" lon="-8.035306027159095">
        <ele>70.790000000000006</ele>
        <time>2025-05-07T11:40:53Z</time>
      </trkpt>
      <trkpt lat="37.089298004284501" lon="-8.035262022167444">
        <ele>70.790000000000006</ele>
        <time>2025-05-07T11:40:54Z</time>
      </trkpt>
      <trkpt lat="37.089262967929244" lon="-8.035223968327045">
        <ele>70.790000000000006</ele>
        <time>2025-05-07T11:40:55Z</time>
      </trkpt>
      <trkpt lat="37.089236984029412" lon="-8.035195972770453">
        <ele>71.269999999999996</ele>
        <time>2025-05-07T11:40:56Z</time>
      </trkpt>
      <trkpt lat="37.089220974594355" lon="-8.035178035497665">
        <ele>71.269999999999996</ele>
        <time>2025-05-07T11:40:57Z</time>
      </trkpt>
      <trkpt lat="37.089220974594355" lon="-8.035178035497665">
        <ele>71.269999999999996</ele>
        <time>2025-05-07T11:40:58Z</time>
      </trkpt>
      <trkpt lat="37.089085020124912" lon="-8.035031016916037">
        <ele>70.790000000000006</ele>
        <time>2025-05-07T11:41:09Z</time>
      </trkpt>
      <trkpt lat="37.088879998773336" lon="-8.034786013886333">
        <ele>71.760000000000005</ele>
        <time>2025-05-07T11:41:15Z</time>
      </trkpt>
      <trkpt lat="37.088825013488531" lon="-8.034720970317721">
        <ele>71.760000000000005</ele>
        <time>2025-05-07T11:41:16Z</time>
      </trkpt>
      <trkpt lat="37.088192012161016" lon="-8.033908009529114">
        <ele>67.909999999999997</ele>
        <time>2025-05-07T11:41:26Z</time>
      </trkpt>
      <trkpt lat="37.087794961407781" lon="-8.033335022628307">
        <ele>66.469999999999999</ele>
        <time>2025-05-07T11:41:32Z</time>
      </trkpt>
      <trkpt lat="37.087731007486582" lon="-8.033243995159864">
        <ele>66.469999999999999</ele>
        <time>2025-05-07T11:41:33Z</time>
      </trkpt>
      <trkpt lat="37.087418027222157" lon="-8.032791037112474">
        <ele>65.030000000000001</ele>
        <time>2025-05-07T11:41:38Z</time>
      </trkpt>
      <trkpt lat="37.087079985067248" lon="-8.031913032755256">
        <ele>60.700000000000003</ele>
        <time>2025-05-07T11:41:48Z</time>
      </trkpt>
      <trkpt lat="37.087024999782443" lon="-8.031685966998339">
        <ele>60.700000000000003</ele>
        <time>2025-05-07T11:41:51Z</time>
      </trkpt>
      <trkpt lat="37.087005972862244" lon="-8.031608015298843">
        <ele>61.18</ele>
        <time>2025-05-07T11:41:52Z</time>
      </trkpt>
      <trkpt lat="37.086779996752739" lon="-8.030786002054811">
        <ele>65.030000000000001</ele>
        <time>2025-05-07T11:42:04Z</time>
      </trkpt>
      <trkpt lat="37.086770022287965" lon="-8.030737973749638">
        <ele>65.030000000000001</ele>
        <time>2025-05-07T11:42:05Z</time>
      </trkpt>
      <trkpt lat="37.086759964004159" lon="-8.030681982636452">
        <ele>64.549999999999997</ele>
        <time>2025-05-07T11:42:06Z</time>
      </trkpt>
      <trkpt lat="37.086748983711004" lon="-8.030624985694885">
        <ele>64.549999999999997</ele>
        <time>2025-05-07T11:42:07Z</time>
      </trkpt>
      <trkpt lat="37.08673800341785" lon="-8.030563965439796">
        <ele>64.549999999999997</ele>
        <time>2025-05-07T11:42:08Z</time>
      </trkpt>
      <trkpt lat="37.086729034781456" lon="-8.030500011518598">
        <ele>64.549999999999997</ele>
        <time>2025-05-07T11:42:09Z</time>
      </trkpt>
      <trkpt lat="37.086721993982792" lon="-8.030436979606748">
        <ele>64.549999999999997</ele>
        <time>2025-05-07T11:42:10Z</time>
      </trkpt>
      <trkpt lat="37.086711013689637" lon="-8.030341006815434">
        <ele>64.549999999999997</ele>
        <time>2025-05-07T11:42:12Z</time>
      </trkpt>
      <trkpt lat="37.086668014526367" lon="-8.030190970748663">
        <ele>64.549999999999997</ele>
        <time>2025-05-07T11:42:13Z</time>
      </trkpt>
      <trkpt lat="37.086657034233212" lon="-8.03016297519207">
        <ele>64.549999999999997</ele>
        <time>2025-05-07T11:42:14Z</time>
      </trkpt>
      <trkpt lat="37.086210027337074" lon="-8.029182041063905">
        <ele>62.140000000000001</ele>
        <time>2025-05-07T11:42:24Z</time>
      </trkpt>
      <trkpt lat="37.085561016574502" lon="-8.027742030099034">
        <ele>61.659999999999997</ele>
        <time>2025-05-07T11:42:37Z</time>
      </trkpt>
      <trkpt lat="37.085122978314757" lon="-8.026306964457035">
        <ele>62.619999999999997</ele>
        <time>2025-05-07T11:42:49Z</time>
      </trkpt>
      <trkpt lat="37.084862971678376" lon="-8.025023024529219">
        <ele>59.740000000000002</ele>
        <time>2025-05-07T11:43:00Z</time>
      </trkpt>
      <trkpt lat="37.084601959213614" lon="-8.023786023259163">
        <ele>58.299999999999997</ele>
        <time>2025-05-07T11:43:10Z</time>
      </trkpt>
      <trkpt lat="37.08437698893249" lon="-8.022386999800801">
        <ele>59.259999999999998</ele>
        <time>2025-05-07T11:43:22Z</time>
      </trkpt>
      <trkpt lat="37.084285961464047" lon="-8.021123008802533">
        <ele>62.140000000000001</ele>
        <time>2025-05-07T11:43:32Z</time>
      </trkpt>
      <trkpt lat="37.084169033914804" lon="-8.019399018958211">
        <ele>64.549999999999997</ele>
        <time>2025-05-07T11:43:44Z</time>
      </trkpt>
      <trkpt lat="37.084035007283092" lon="-8.01780603826046">
        <ele>63.100000000000001</ele>
        <time>2025-05-07T11:43:55Z</time>
      </trkpt>
      <trkpt lat="37.083765026181936" lon="-8.016149019822478">
        <ele>58.299999999999997</ele>
        <time>2025-05-07T11:44:05Z</time>
      </trkpt>
      <trkpt lat="37.08373200148344" lon="-8.01494998857379">
        <ele>59.259999999999998</ele>
        <time>2025-05-07T11:44:13Z</time>
      </trkpt>
      <trkpt lat="37.083614990115166" lon="-8.014012975618243">
        <ele>60.219999999999999</ele>
        <time>2025-05-07T11:44:19Z</time>
      </trkpt>
      <trkpt lat="37.083060024306178" lon="-8.012820985168219">
        <ele>53.009999999999998</ele>
        <time>2025-05-07T11:44:27Z</time>
      </trkpt>
      <trkpt lat="37.082287967205048" lon="-8.011321965605021">
        <ele>48.68</ele>
        <time>2025-05-07T11:44:37Z</time>
      </trkpt>
      <trkpt lat="37.081509036943316" lon="-8.009225986897945">
        <ele>45.32</ele>
        <time>2025-05-07T11:44:49Z</time>
      </trkpt>
      <trkpt lat="37.08141197450459" lon="-8.00880596973002">
        <ele>44.359999999999999</ele>
        <time>2025-05-07T11:44:51Z</time>
      </trkpt>
      <trkpt lat="37.081080973148346" lon="-8.006424000486732">
        <ele>40.030000000000001</ele>
        <time>2025-05-07T11:45:03Z</time>
      </trkpt>
      <trkpt lat="37.081109974533319" lon="-8.004168011248112">
        <ele>45.32</ele>
        <time>2025-05-07T11:45:14Z</time>
      </trkpt>
      <trkpt lat="37.080950969830155" lon="-8.002630015835166">
        <ele>47.719999999999999</ele>
        <time>2025-05-07T11:45:22Z</time>
      </trkpt>
      <trkpt lat="37.080410001799464" lon="-8.000303031876683">
        <ele>48.200000000000003</ele>
        <time>2025-05-07T11:45:35Z</time>
      </trkpt>
      <trkpt lat="37.079979004338384" lon="-7.997854007408023">
        <ele>43.399999999999999</ele>
        <time>2025-05-07T11:45:48Z</time>
      </trkpt>
      <trkpt lat="37.079564016312361" lon="-7.995106000453234">
        <ele>49.649999999999999</ele>
        <time>2025-05-07T11:46:02Z</time>
      </trkpt>
      <trkpt lat="37.079058000817895" lon="-7.992580030113459">
        <ele>58.299999999999997</ele>
        <time>2025-05-07T11:46:15Z</time>
      </trkpt>
      <trkpt lat="37.078581992536783" lon="-7.991365995258093">
        <ele>58.299999999999997</ele>
        <time>2025-05-07T11:46:22Z</time>
      </trkpt>
      <trkpt lat="37.078505968675017" lon="-7.991224005818367">
        <ele>57.82</ele>
        <time>2025-05-07T11:46:23Z</time>
      </trkpt>
      <trkpt lat="37.07767004147172" lon="-7.989920033141971">
        <ele>56.369999999999997</ele>
        <time>2025-05-07T11:46:32Z</time>
      </trkpt>
      <trkpt lat="37.077594017609954" lon="-7.989761028438807">
        <ele>56.369999999999997</ele>
        <time>2025-05-07T11:46:33Z</time>
      </trkpt>
      <trkpt lat="37.0771149918437" lon="-7.988641038537026">
        <ele>54.450000000000003</ele>
        <time>2025-05-07T11:46:41Z</time>
      </trkpt>
      <trkpt lat="37.077035028487444" lon="-7.988354964181781">
        <ele>53.969999999999999</ele>
        <time>2025-05-07T11:46:43Z</time>
      </trkpt>
      <trkpt lat="37.076991023495793" lon="-7.988197971135378">
        <ele>53.490000000000002</ele>
        <time>2025-05-07T11:46:44Z</time>
      </trkpt>
      <trkpt lat="37.076976019889116" lon="-7.988043995574117">
        <ele>53.490000000000002</ele>
        <time>2025-05-07T11:46:45Z</time>
      </trkpt>
      <trkpt lat="37.07687602378428" lon="-7.986201988533139">
        <ele>55.890000000000001</ele>
        <time>2025-05-07T11:46:56Z</time>
      </trkpt>
      <trkpt lat="37.076804023236036" lon="-7.985689016059041">
        <ele>55.409999999999997</ele>
        <time>2025-05-07T11:46:59Z</time>
      </trkpt>
      <trkpt lat="37.076759012416005" lon="-7.985516013577581">
        <ele>55.409999999999997</ele>
        <time>2025-05-07T11:47:00Z</time>
      </trkpt>
      <trkpt lat="37.076692041009665" lon="-7.985351979732513">
        <ele>55.409999999999997</ele>
        <time>2025-05-07T11:47:01Z</time>
      </trkpt>
      <trkpt lat="37.076622974127531" lon="-7.985183000564575">
        <ele>55.409999999999997</ele>
        <time>2025-05-07T11:47:02Z</time>
      </trkpt>
      <trkpt lat="37.076553991064429" lon="-7.985013015568256">
        <ele>55.409999999999997</ele>
        <time>2025-05-07T11:47:03Z</time>
      </trkpt>
      <trkpt lat="37.076460029929876" lon="-7.984857028350234">
        <ele>54.93</ele>
        <time>2025-05-07T11:47:04Z</time>
      </trkpt>
      <trkpt lat="37.07636397331953" lon="-7.984710009768605">
        <ele>54.93</ele>
        <time>2025-05-07T11:47:05Z</time>
      </trkpt>
      <trkpt lat="37.076265988871455" lon="-7.984559973701835">
        <ele>54.450000000000003</ele>
        <time>2025-05-07T11:47:06Z</time>
      </trkpt>
      <trkpt lat="37.075140969827771" lon="-7.98276599496603">
        <ele>50.130000000000003</ele>
        <time>2025-05-07T11:47:18Z</time>
      </trkpt>
      <trkpt lat="37.074290961027145" lon="-7.980755008757114">
        <ele>48.200000000000003</ele>
        <time>2025-05-07T11:47:30Z</time>
      </trkpt>
      <trkpt lat="37.073500966653228" lon="-7.979244003072381">
        <ele>46.759999999999998</ele>
        <time>2025-05-07T11:47:40Z</time>
      </trkpt>
      <trkpt lat="37.073284965008497" lon="-7.979011991992593">
        <ele>44.840000000000003</ele>
        <time>2025-05-07T11:47:42Z</time>
      </trkpt>
      <trkpt lat="37.07197998650372" lon="-7.978169023990631">
        <ele>35.229999999999997</ele>
        <time>2025-05-07T11:47:53Z</time>
      </trkpt>
      <trkpt lat="37.070631003007293" lon="-7.977261012420058">
        <ele>32.82</ele>
        <time>2025-05-07T11:48:04Z</time>
      </trkpt>
      <trkpt lat="37.069300962612033" lon="-7.976563973352313">
        <ele>32.340000000000003</ele>
        <time>2025-05-07T11:48:13Z</time>
      </trkpt>
      <trkpt lat="37.067986009642482" lon="-7.975731985643506">
        <ele>32.340000000000003</ele>
        <time>2025-05-07T11:48:22Z</time>
      </trkpt>
      <trkpt lat="37.066486990079284" lon="-7.974292980507016">
        <ele>29.940000000000001</ele>
        <time>2025-05-07T11:48:33Z</time>
      </trkpt>
      <trkpt lat="37.064680019393563" lon="-7.972040008753538">
        <ele>25.609999999999999</ele>
        <time>2025-05-07T11:48:48Z</time>
      </trkpt>
      <trkpt lat="37.062817979604006" lon="-7.969629960134625">
        <ele>29.940000000000001</ele>
        <time>2025-05-07T11:49:03Z</time>
      </trkpt>
      <trkpt lat="37.061844002455473" lon="-7.968047959730029">
        <ele>31.859999999999999</ele>
        <time>2025-05-07T11:49:13Z</time>
      </trkpt>
      <trkpt lat="37.061631018295884" lon="-7.967694997787476">
        <ele>31.859999999999999</ele>
        <time>2025-05-07T11:49:19Z</time>
      </trkpt>
      <trkpt lat="37.06153797917068" lon="-7.967538004741073">
        <ele>30.899999999999999</ele>
        <time>2025-05-07T11:49:29Z</time>
      </trkpt>
      <trkpt lat="37.061456004157662" lon="-7.967400960624218">
        <ele>30.899999999999999</ele>
        <time>2025-05-07T11:49:57Z</time>
      </trkpt>
      <trkpt lat="37.060898020863533" lon="-7.966490015387535">
        <ele>30.899999999999999</ele>
        <time>2025-05-07T11:50:04Z</time>
      </trkpt>
      <trkpt lat="37.059690020978451" lon="-7.964518005028367">
        <ele>29.940000000000001</ele>
        <time>2025-05-07T11:50:15Z</time>
      </trkpt>
      <trkpt lat="37.058096034452319" lon="-7.961901007220149">
        <ele>29.460000000000001</ele>
        <time>2025-05-07T11:50:29Z</time>
      </trkpt>
      <trkpt lat="37.056577987968922" lon="-7.959533035755158">
        <ele>27.530000000000001</ele>
        <time>2025-05-07T11:50:42Z</time>
      </trkpt>
      <trkpt lat="37.054800018668175" lon="-7.957015028223395">
        <ele>24.649999999999999</ele>
        <time>2025-05-07T11:50:57Z</time>
      </trkpt>
      <trkpt lat="37.053440976887941" lon="-7.955149970948696">
        <ele>24.170000000000002</ele>
        <time>2025-05-07T11:51:10Z</time>
      </trkpt>
      <trkpt lat="37.052259966731071" lon="-7.954454021528363">
        <ele>27.050000000000001</ele>
        <time>2025-05-07T11:51:18Z</time>
      </trkpt>
      <trkpt lat="37.050473028793931" lon="-7.95343897305429">
        <ele>26.09</ele>
        <time>2025-05-07T11:51:30Z</time>
      </trkpt>
      <trkpt lat="37.04920400865376" lon="-7.952967993915081">
        <ele>25.129999999999999</ele>
        <time>2025-05-07T11:51:38Z</time>
      </trkpt>
      <trkpt lat="37.048324998468161" lon="-7.952918959781528">
        <ele>24.649999999999999</ele>
        <time>2025-05-07T11:51:45Z</time>
      </trkpt>
      <trkpt lat="37.046935027465224" lon="-7.952822986990213">
        <ele>22.73</ele>
        <time>2025-05-07T11:51:55Z</time>
      </trkpt>
      <trkpt lat="37.045729039236903" lon="-7.952569015324116">
        <ele>21.77</ele>
        <time>2025-05-07T11:52:03Z</time>
      </trkpt>
      <trkpt lat="37.044467981904745" lon="-7.952238013967872">
        <ele>19.84</ele>
        <time>2025-05-07T11:52:12Z</time>
      </trkpt>
      <trkpt lat="37.042919006198645" lon="-7.95174197293818">
        <ele>16.48</ele>
        <time>2025-05-07T11:52:22Z</time>
      </trkpt>
      <trkpt lat="37.041009021922946" lon="-7.950879978016019">
        <ele>15.52</ele>
        <time>2025-05-07T11:52:33Z</time>
      </trkpt>
      <trkpt lat="37.039631959050894" lon="-7.950220992788672">
        <ele>17.440000000000001</ele>
        <time>2025-05-07T11:52:41Z</time>
      </trkpt>
      <trkpt lat="37.039461974054575" lon="-7.950152009725571">
        <ele>17.440000000000001</ele>
        <time>2025-05-07T11:52:42Z</time>
      </trkpt>
      <trkpt lat="37.03794501721859" lon="-7.949890997260809">
        <ele>16.960000000000001</ele>
        <time>2025-05-07T11:52:50Z</time>
      </trkpt>
      <trkpt lat="37.036067973822355" lon="-7.950116973370314">
        <ele>15.52</ele>
        <time>2025-05-07T11:53:00Z</time>
      </trkpt>
      <trkpt lat="37.035159962251782" lon="-7.950217975303531">
        <ele>14.56</ele>
        <time>2025-05-07T11:53:05Z</time>
      </trkpt>
      <trkpt lat="37.034986037760973" lon="-7.950180005282164">
        <ele>14.56</ele>
        <time>2025-05-07T11:53:06Z</time>
      </trkpt>
      <trkpt lat="37.034804988652468" lon="-7.950131976976991">
        <ele>14.56</ele>
        <time>2025-05-07T11:53:07Z</time>
      </trkpt>
      <trkpt lat="37.034655958414078" lon="-7.950068023055792">
        <ele>14.08</ele>
        <time>2025-05-07T11:53:08Z</time>
      </trkpt>
      <trkpt lat="37.03450701199472" lon="-7.950003985315561">
        <ele>14.08</ele>
        <time>2025-05-07T11:53:09Z</time>
      </trkpt>
      <trkpt lat="37.03366999514401" lon="-7.949621016159654">
        <ele>13.119999999999999</ele>
        <time>2025-05-07T11:53:16Z</time>
      </trkpt>
      <trkpt lat="37.033361960202456" lon="-7.949481038376689">
        <ele>13.6</ele>
        <time>2025-05-07T11:53:19Z</time>
      </trkpt>
      <trkpt lat="37.033261964097619" lon="-7.949436027556658">
        <ele>14.56</ele>
        <time>2025-05-07T11:53:20Z</time>
      </trkpt>
      <trkpt lat="37.031835028901696" lon="-7.948771007359028">
        <ele>16.960000000000001</ele>
        <time>2025-05-07T11:53:33Z</time>
      </trkpt>
      <trkpt lat="37.030647983774543" lon="-7.948010014370084">
        <ele>17.920000000000002</ele>
        <time>2025-05-07T11:53:44Z</time>
      </trkpt>
      <trkpt lat="37.029300006106496" lon="-7.94705799780786">
        <ele>18.399999999999999</ele>
        <time>2025-05-07T11:53:58Z</time>
      </trkpt>
      <trkpt lat="37.028670022264123" lon="-7.946608979254961">
        <ele>17.920000000000002</ele>
        <time>2025-05-07T11:54:07Z</time>
      </trkpt>
      <trkpt lat="37.028414960950613" lon="-7.946422984823585">
        <ele>18.879999999999999</ele>
        <time>2025-05-07T11:54:12Z</time>
      </trkpt>
      <trkpt lat="37.028161995112896" lon="-7.946254005655646">
        <ele>19.359999999999999</ele>
        <time>2025-05-07T11:54:17Z</time>
      </trkpt>
      <trkpt lat="37.028112038969994" lon="-7.946234978735447">
        <ele>19.359999999999999</ele>
        <time>2025-05-07T11:54:18Z</time>
      </trkpt>
      <trkpt lat="37.028067028149962" lon="-7.946218969300389">
        <ele>19.359999999999999</ele>
        <time>2025-05-07T11:54:19Z</time>
      </trkpt>
      <trkpt lat="37.02802000567317" lon="-7.946203965693712">
        <ele>19.359999999999999</ele>
        <time>2025-05-07T11:54:20Z</time>
      </trkpt>
      <trkpt lat="37.027970971539617" lon="-7.946187034249306">
        <ele>19.359999999999999</ele>
        <time>2025-05-07T11:54:21Z</time>
      </trkpt>
      <trkpt lat="37.027911962941289" lon="-7.946168007329106">
        <ele>19.359999999999999</ele>
        <time>2025-05-07T11:54:22Z</time>
      </trkpt>
      <trkpt lat="37.02767601236701" lon="-7.946073962375522">
        <ele>18.879999999999999</ele>
        <time>2025-05-07T11:54:25Z</time>
      </trkpt>
      <trkpt lat="37.027597976848483" lon="-7.946007996797562">
        <ele>19.359999999999999</ele>
        <time>2025-05-07T11:54:26Z</time>
      </trkpt>
      <trkpt lat="37.02752597630024" lon="-7.945924010127783">
        <ele>19.84</ele>
        <time>2025-05-07T11:54:27Z</time>
      </trkpt>
      <trkpt lat="37.027059020474553" lon="-7.945196963846684">
        <ele>23.210000000000001</ele>
        <time>2025-05-07T11:54:35Z</time>
      </trkpt>
      <trkpt lat="37.026989031583071" lon="-7.945150025188923">
        <ele>22.73</ele>
        <time>2025-05-07T11:54:36Z</time>
      </trkpt>
      <trkpt lat="37.026335997506976" lon="-7.944709975272417">
        <ele>22.25</ele>
        <time>2025-05-07T11:54:43Z</time>
      </trkpt>
      <trkpt lat="37.025532005354762" lon="-7.944039003923535">
        <ele>20.32</ele>
        <time>2025-05-07T11:54:53Z</time>
      </trkpt>
      <trkpt lat="37.025436032563448" lon="-7.943956023082137">
        <ele>20.32</ele>
        <time>2025-05-07T11:54:55Z</time>
      </trkpt>
      <trkpt lat="37.025203015655279" lon="-7.943796012550592">
        <ele>20.32</ele>
        <time>2025-05-07T11:55:00Z</time>
      </trkpt>
      <trkpt lat="37.025145012885332" lon="-7.943788971751928">
        <ele>19.84</ele>
        <time>2025-05-07T11:55:01Z</time>
      </trkpt>
      <trkpt lat="37.025080975145102" lon="-7.943781008943915">
        <ele>19.84</ele>
        <time>2025-05-07T11:55:02Z</time>
      </trkpt>
      <trkpt lat="37.02494896017015" lon="-7.943766005337238">
        <ele>19.84</ele>
        <time>2025-05-07T11:55:04Z</time>
      </trkpt>
      <trkpt lat="37.02488299459219" lon="-7.943760976195335">
        <ele>19.84</ele>
        <time>2025-05-07T11:55:05Z</time>
      </trkpt>
      <trkpt lat="37.024811999872327" lon="-7.943774973973632">
        <ele>19.84</ele>
        <time>2025-05-07T11:55:06Z</time>
      </trkpt>
      <trkpt lat="37.024729019030929" lon="-7.9437489900738">
        <ele>19.84</ele>
        <time>2025-05-07T11:55:07Z</time>
      </trkpt>
      <trkpt lat="37.024655006825924" lon="-7.943706996738911">
        <ele>19.84</ele>
        <time>2025-05-07T11:55:08Z</time>
      </trkpt>
      <trkpt lat="37.024590969085693" lon="-7.943629967048764">
        <ele>19.84</ele>
        <time>2025-05-07T11:55:09Z</time>
      </trkpt>
      <trkpt lat="37.024523997679353" lon="-7.943555032834411">
        <ele>19.84</ele>
        <time>2025-05-07T11:55:10Z</time>
      </trkpt>
      <trkpt lat="37.024459037929773" lon="-7.943484038114548">
        <ele>19.84</ele>
        <time>2025-05-07T11:55:11Z</time>
      </trkpt>
      <trkpt lat="37.024392988532782" lon="-7.943410025909543">
        <ele>19.359999999999999</ele>
        <time>2025-05-07T11:55:12Z</time>
      </trkpt>
      <trkpt lat="37.024322999641299" lon="-7.943328972905874">
        <ele>19.359999999999999</ele>
        <time>2025-05-07T11:55:13Z</time>
      </trkpt>
      <trkpt lat="37.024246975779533" lon="-7.943242974579334">
        <ele>18.879999999999999</ele>
        <time>2025-05-07T11:55:14Z</time>
      </trkpt>
      <trkpt lat="37.024167012423277" lon="-7.943150019273162">
        <ele>18.879999999999999</ele>
        <time>2025-05-07T11:55:15Z</time>
      </trkpt>
      <trkpt lat="37.023240979760885" lon="-7.942001027986407">
        <ele>20.809999999999999</ele>
        <time>2025-05-07T11:55:26Z</time>
      </trkpt>
      <trkpt lat="37.022278988733888" lon="-7.940818006172776">
        <ele>27.050000000000001</ele>
        <time>2025-05-07T11:55:37Z</time>
      </trkpt>
      <trkpt lat="37.021559989079833" lon="-7.939976966008544">
        <ele>27.530000000000001</ele>
        <time>2025-05-07T11:55:45Z</time>
      </trkpt>
      <trkpt lat="37.021393021568656" lon="-7.939776973798871">
        <ele>27.050000000000001</ele>
        <time>2025-05-07T11:55:47Z</time>
      </trkpt>
      <trkpt lat="37.021257989108562" lon="-7.939603971317411">
        <ele>26.09</ele>
        <time>2025-05-07T11:55:49Z</time>
      </trkpt>
      <trkpt lat="37.021199986338615" lon="-7.939539011567831">
        <ele>26.09</ele>
        <time>2025-05-07T11:55:50Z</time>
      </trkpt>
      <trkpt lat="37.021154975518584" lon="-7.939488971605897">
        <ele>25.609999999999999</ele>
        <time>2025-05-07T11:55:51Z</time>
      </trkpt>
      <trkpt lat="37.021136032417417" lon="-7.939467011019588">
        <ele>25.129999999999999</ele>
        <time>2025-05-07T11:55:52Z</time>
      </trkpt>
      <trkpt lat="37.021137038245797" lon="-7.939468016847968">
        <ele>24.170000000000002</ele>
        <time>2025-05-07T11:55:53Z</time>
      </trkpt>
      <trkpt lat="37.021094039082527" lon="-7.939382018521428">
        <ele>23.690000000000001</ele>
        <time>2025-05-07T11:55:54Z</time>
      </trkpt>
      <trkpt lat="37.021004017442465" lon="-7.939382018521428">
        <ele>22.73</ele>
        <time>2025-05-07T11:55:55Z</time>
      </trkpt>
      <trkpt lat="37.02095003798604" lon="-7.939382018521428">
        <ele>22.25</ele>
        <time>2025-05-07T11:55:56Z</time>
      </trkpt>
      <trkpt lat="37.020903015509248" lon="-7.939382018521428">
        <ele>22.25</ele>
        <time>2025-05-07T11:55:57Z</time>
      </trkpt>
      <trkpt lat="37.020889017730951" lon="-7.939404984936118">
        <ele>21.77</ele>
        <time>2025-05-07T11:55:58Z</time>
      </trkpt>
      <trkpt lat="37.020854987204075" lon="-7.93947204016149">
        <ele>21.289999999999999</ele>
        <time>2025-05-07T11:55:59Z</time>
      </trkpt>
      <trkpt lat="37.020754991099238" lon="-7.939673960208893">
        <ele>19.359999999999999</ele>
        <time>2025-05-07T11:56:02Z</time>
      </trkpt>
      <trkpt lat="37.020707968622446" lon="-7.939768005162478">
        <ele>18.399999999999999</ele>
        <time>2025-05-07T11:56:03Z</time>
      </trkpt>
      <trkpt lat="37.020678967237473" lon="-7.939819972962141">
        <ele>17.920000000000002</ele>
        <time>2025-05-07T11:56:04Z</time>
      </trkpt>
      <trkpt lat="37.020642003044486" lon="-7.939889039844275">
        <ele>16.960000000000001</ele>
        <time>2025-05-07T11:56:05Z</time>
      </trkpt>
      <trkpt lat="37.020602021366358" lon="-7.939961040392518">
        <ele>16.48</ele>
        <time>2025-05-07T11:56:06Z</time>
      </trkpt>
      <trkpt lat="37.020523985847831" lon="-7.940105041489005">
        <ele>15.039999999999999</ele>
        <time>2025-05-07T11:56:08Z</time>
      </trkpt>
      <trkpt lat="37.020496996119618" lon="-7.940154997631908">
        <ele>13.6</ele>
        <time>2025-05-07T11:56:09Z</time>
      </trkpt>
      <trkpt lat="37.020402029156685" lon="-7.940197996795178">
        <ele>12.630000000000001</ele>
        <time>2025-05-07T11:56:10Z</time>
      </trkpt>
      <trkpt lat="37.02035098336637" lon="-7.940152985975146">
        <ele>11.67</ele>
        <time>2025-05-07T11:56:11Z</time>
      </trkpt>
      <trkpt lat="37.020286023616791" lon="-7.94009598903358">
        <ele>11.19</ele>
        <time>2025-05-07T11:56:12Z</time>
      </trkpt>
      <trkpt lat="37.020216034725308" lon="-7.94003396295011">
        <ele>10.710000000000001</ele>
        <time>2025-05-07T11:56:13Z</time>
      </trkpt>
      <trkpt lat="37.020141016691923" lon="-7.939969003200531">
        <ele>10.23</ele>
        <time>2025-05-07T11:56:14Z</time>
      </trkpt>
      <trkpt lat="37.019396033138037" lon="-7.939309012144804">
        <ele>9.75</ele>
        <time>2025-05-07T11:56:25Z</time>
      </trkpt>
      <trkpt lat="37.019200986251235" lon="-7.939133998006582">
        <ele>9.27</ele>
        <time>2025-05-07T11:56:29Z</time>
      </trkpt>
      <trkpt lat="37.018909966573119" lon="-7.938917996361852">
        <ele>8.789999999999999</ele>
        <time>2025-05-07T11:56:38Z</time>
      </trkpt>
      <trkpt lat="37.018884988501668" lon="-7.938963007181883">
        <ele>8.789999999999999</ele>
        <time>2025-05-07T11:56:39Z</time>
      </trkpt>
      <trkpt lat="37.018854981288314" lon="-7.939017992466688">
        <ele>8.789999999999999</ele>
        <time>2025-05-07T11:56:40Z</time>
      </trkpt>
      <trkpt lat="37.018754985183477" lon="-7.939197029918432">
        <ele>8.789999999999999</ele>
        <time>2025-05-07T11:56:43Z</time>
      </trkpt>
      <trkpt lat="37.018647026270628" lon="-7.939404984936118">
        <ele>8.789999999999999</ele>
        <time>2025-05-07T11:56:48Z</time>
      </trkpt>
      <trkpt lat="37.018624981865287" lon="-7.939448989927769">
        <ele>8.789999999999999</ele>
        <time>2025-05-07T11:56:49Z</time>
      </trkpt>
      <trkpt lat="37.018546024337411" lon="-7.939445972442627">
        <ele>8.789999999999999</ele>
        <time>2025-05-07T11:56:50Z</time>
      </trkpt>
      <trkpt lat="37.018497996032238" lon="-7.939411019906402">
        <ele>8.789999999999999</ele>
        <time>2025-05-07T11:56:51Z</time>
      </trkpt>
      <trkpt lat="37.018446028232574" lon="-7.939373971894383">
        <ele>8.310000000000001</ele>
        <time>2025-05-07T11:56:52Z</time>
      </trkpt>
      <trkpt lat="37.018368998542428" lon="-7.939316974952817">
        <ele>7.83</ele>
        <time>2025-05-07T11:56:53Z</time>
      </trkpt>
      <trkpt lat="37.018318036571145" lon="-7.939316974952817">
        <ele>7.83</ele>
        <time>2025-05-07T11:56:54Z</time>
      </trkpt>
      <trkpt lat="37.018252993002534" lon="-7.939316974952817">
        <ele>7.83</ele>
        <time>2025-05-07T11:56:55Z</time>
      </trkpt>
      <trkpt lat="37.018154002726078" lon="-7.939316974952817">
        <ele>7.83</ele>
        <time>2025-05-07T11:56:56Z</time>
      </trkpt>
      <trkpt lat="37.018138999119401" lon="-7.939302977174521">
        <ele>7.83</ele>
        <time>2025-05-07T11:56:57Z</time>
      </trkpt>
      <trkpt lat="37.018084013834596" lon="-7.939253021031618">
        <ele>7.83</ele>
        <time>2025-05-07T11:56:58Z</time>
      </trkpt>
      <trkpt lat="37.0180319622159" lon="-7.939204992726445">
        <ele>8.789999999999999</ele>
        <time>2025-05-07T11:56:59Z</time>
      </trkpt>
      <trkpt lat="37.017933977767825" lon="-7.939114971086383">
        <ele>9.27</ele>
        <time>2025-05-07T11:57:01Z</time>
      </trkpt>
      <trkpt lat="37.017866000533104" lon="-7.938963007181883">
        <ele>9.75</ele>
        <time>2025-05-07T11:57:03Z</time>
      </trkpt>
      <trkpt lat="37.017844961956143" lon="-7.938881032168865">
        <ele>10.710000000000001</ele>
        <time>2025-05-07T11:57:04Z</time>
      </trkpt>
      <trkpt lat="37.017804980278015" lon="-7.938724039122462">
        <ele>11.19</ele>
        <time>2025-05-07T11:57:06Z</time>
      </trkpt>
      <trkpt lat="37.017740020528436" lon="-7.938476018607616">
        <ele>11.67</ele>
        <time>2025-05-07T11:57:10Z</time>
      </trkpt>
      <trkpt lat="37.017725016921759" lon="-7.938416004180908">
        <ele>11.67</ele>
        <time>2025-05-07T11:57:11Z</time>
      </trkpt>
      <trkpt lat="37.017712024971843" lon="-7.938380967825651">
        <ele>11.67</ele>
        <time>2025-05-07T11:57:12Z</time>
      </trkpt>
      <trkpt lat="37.017697021365166" lon="-7.938340986147523">
        <ele>11.67</ele>
        <time>2025-05-07T11:57:13Z</time>
      </trkpt>
      <trkpt lat="37.017683023586869" lon="-7.938305027782917">
        <ele>11.67</ele>
        <time>2025-05-07T11:57:14Z</time>
      </trkpt>
      <trkpt lat="37.017667014151812" lon="-7.938261022791266">
        <ele>11.67</ele>
        <time>2025-05-07T11:57:15Z</time>
      </trkpt>
      <trkpt lat="37.017643041908741" lon="-7.93820695951581">
        <ele>11.67</ele>
        <time>2025-05-07T11:57:16Z</time>
      </trkpt>
      <trkpt lat="37.017338024452329" lon="-7.93753799982369">
        <ele>7.83</ele>
        <time>2025-05-07T11:57:26Z</time>
      </trkpt>
      <trkpt lat="37.017322015017271" lon="-7.937503969296813">
        <ele>5.91</ele>
        <time>2025-05-07T11:57:34Z</time>
      </trkpt>
      <trkpt lat="37.017195029184222" lon="-7.937224013730884">
        <ele>3.02</ele>
        <time>2025-05-07T11:57:45Z</time>
      </trkpt>
      <trkpt lat="37.016991013661027" lon="-7.936782035976648">
        <ele>0.62</ele>
        <time>2025-05-07T11:57:53Z</time>
      </trkpt>
      <trkpt lat="37.016967041417956" lon="-7.936737025156617">
        <ele>0.62</ele>
        <time>2025-05-07T11:57:54Z</time>
      </trkpt>
      <trkpt lat="37.016944997012615" lon="-7.936695031821728">
        <ele>0.62</ele>
        <time>2025-05-07T11:57:55Z</time>
      </trkpt>
      <trkpt lat="37.01689001172781" lon="-7.936591012403369">
        <ele>1.58</ele>
        <time>2025-05-07T11:57:58Z</time>
      </trkpt>
      <trkpt lat="37.016872996464372" lon="-7.936559999361634">
        <ele>1.1</ele>
        <time>2025-05-07T11:57:59Z</time>
      </trkpt>
      <trkpt lat="37.016845000907779" lon="-7.93650601990521">
        <ele>1.58</ele>
        <time>2025-05-07T11:58:00Z</time>
      </trkpt>
      <trkpt lat="37.016813987866044" lon="-7.936437958851457">
        <ele>2.06</ele>
        <time>2025-05-07T11:58:01Z</time>
      </trkpt>
      <trkpt lat="37.016779035329819" lon="-7.936361012980342">
        <ele>3.02</ele>
        <time>2025-05-07T11:58:02Z</time>
      </trkpt>
      <trkpt lat="37.016680967062712" lon="-7.936145011335611">
        <ele>4.94</ele>
        <time>2025-05-07T11:58:05Z</time>
      </trkpt>
      <trkpt lat="37.016591029241681" lon="-7.935985000804067">
        <ele>6.39</ele>
        <time>2025-05-07T11:58:08Z</time>
      </trkpt>
      <trkpt lat="37.016555992886424" lon="-7.935940995812416">
        <ele>6.87</ele>
        <time>2025-05-07T11:58:09Z</time>
      </trkpt>
      <trkpt lat="37.016519028693438" lon="-7.935894979164004">
        <ele>6.87</ele>
        <time>2025-05-07T11:58:10Z</time>
      </trkpt>
      <trkpt lat="37.016480974853039" lon="-7.935848040506244">
        <ele>7.35</ele>
        <time>2025-05-07T11:58:11Z</time>
      </trkpt>
      <trkpt lat="37.016447028145194" lon="-7.93579900637269">
        <ele>7.83</ele>
        <time>2025-05-07T11:58:12Z</time>
      </trkpt>
      <trkpt lat="37.016386007890105" lon="-7.93569196946919">
        <ele>7.83</ele>
        <time>2025-05-07T11:58:14Z</time>
      </trkpt>
      <trkpt lat="37.016157014295459" lon="-7.935413019731641">
        <ele>8.310000000000001</ele>
        <time>2025-05-07T11:58:25Z</time>
      </trkpt>
      <trkpt lat="37.016075039282441" lon="-7.935345964506269">
        <ele>7.83</ele>
        <time>2025-05-07T11:58:34Z</time>
      </trkpt>
      <trkpt lat="37.016075039282441" lon="-7.935345964506269">
        <ele>7.83</ele>
        <time>2025-05-07T11:58:37Z</time>
      </trkpt>
      <trkpt lat="37.016222979873419" lon="-7.935190983116627">
        <ele>7.35</ele>
        <time>2025-05-07T11:58:38Z</time>
      </trkpt>
      <trkpt lat="37.016222979873419" lon="-7.935112025588751">
        <ele>6.39</ele>
        <time>2025-05-07T11:58:42Z</time>
      </trkpt>
      <trkpt lat="37.016222979873419" lon="-7.935112025588751">
        <ele>5.91</ele>
        <time>2025-05-07T11:58:43Z</time>
      </trkpt>
      <trkpt lat="37.016222979873419" lon="-7.935112025588751">
        <ele>5.42</ele>
        <time>2025-05-07T11:58:44Z</time>
      </trkpt>
      <trkpt lat="37.016222979873419" lon="-7.935112025588751">
        <ele>4.94</ele>
        <time>2025-05-07T11:58:59Z</time>
      </trkpt>
      <trkpt lat="37.016233038157225" lon="-7.93500398285687">
        <ele>23.690000000000001</ele>
        <time>2025-05-07T12:56:11Z</time>
      </trkpt>
      <trkpt lat="37.016167994588614" lon="-7.935018986463547">
        <ele>20.809999999999999</ele>
        <time>2025-05-07T12:56:31Z</time>
      </trkpt>
      <trkpt lat="37.016165982931852" lon="-7.935063997283578">
        <ele>18.399999999999999</ele>
        <time>2025-05-07T12:56:49Z</time>
      </trkpt>
      <trkpt lat="37.016165982931852" lon="-7.935063997283578">
        <ele>18.399999999999999</ele>
        <time>2025-05-07T12:57:03Z</time>
      </trkpt>
      <trkpt lat="37.016330016776919" lon="-7.935069026425481">
        <ele>18.399999999999999</ele>
        <time>2025-05-07T12:57:05Z</time>
      </trkpt>
      <trkpt lat="37.016203030943871" lon="-7.935249991714954">
        <ele>17.920000000000002</ele>
        <time>2025-05-07T12:57:06Z</time>
      </trkpt>
      <trkpt lat="37.016189033165574" lon="-7.935257032513619">
        <ele>17.440000000000001</ele>
        <time>2025-05-07T12:57:07Z</time>
      </trkpt>
      <trkpt lat="37.016176041215658" lon="-7.935263989493251">
        <ele>16.960000000000001</ele>
        <time>2025-05-07T12:57:08Z</time>
      </trkpt>
      <trkpt lat="37.016090964898467" lon="-7.93530598282814">
        <ele>14.56</ele>
        <time>2025-05-07T12:57:12Z</time>
      </trkpt>
      <trkpt lat="37.016050983220339" lon="-7.93532601557672">
        <ele>14.56</ele>
        <time>2025-05-07T12:57:13Z</time>
      </trkpt>
      <trkpt lat="37.015997003763914" lon="-7.935332972556353">
        <ele>14.08</ele>
        <time>2025-05-07T12:57:14Z</time>
      </trkpt>
      <trkpt lat="37.015932966023684" lon="-7.935341019183397">
        <ele>14.08</ele>
        <time>2025-05-07T12:57:15Z</time>
      </trkpt>
      <trkpt lat="37.015877980738878" lon="-7.93534797616303">
        <ele>14.08</ele>
        <time>2025-05-07T12:57:16Z</time>
      </trkpt>
      <trkpt lat="37.015762981027365" lon="-7.935359040275216">
        <ele>13.6</ele>
        <time>2025-05-07T12:57:18Z</time>
      </trkpt>
      <trkpt lat="37.015703972429037" lon="-7.935364991426468">
        <ele>13.6</ele>
        <time>2025-05-07T12:57:19Z</time>
      </trkpt>
      <trkpt lat="37.015080023556948" lon="-7.935443026944995">
        <ele>11.19</ele>
        <time>2025-05-07T12:57:30Z</time>
      </trkpt>
      <trkpt lat="37.014764025807381" lon="-7.935518966987729">
        <ele>10.23</ele>
        <time>2025-05-07T12:57:35Z</time>
      </trkpt>
      <trkpt lat="37.014764025807381" lon="-7.935518966987729">
        <ele>10.23</ele>
        <time>2025-05-07T12:57:36Z</time>
      </trkpt>
      <trkpt lat="37.014733012765646" lon="-7.935508992522955">
        <ele>9.75</ele>
        <time>2025-05-07T12:57:37Z</time>
      </trkpt>
      <trkpt lat="37.014685990288854" lon="-7.935470016673207">
        <ele>9.27</ele>
        <time>2025-05-07T12:57:38Z</time>
      </trkpt>
      <trkpt lat="37.014665035530925" lon="-7.935429029166699">
        <ele>9.27</ele>
        <time>2025-05-07T12:57:39Z</time>
      </trkpt>
      <trkpt lat="37.014674004167318" lon="-7.935344036668539">
        <ele>9.27</ele>
        <time>2025-05-07T12:57:40Z</time>
      </trkpt>
      <trkpt lat="37.014678027480841" lon="-7.93532601557672">
        <ele>9.27</ele>
        <time>2025-05-07T12:57:41Z</time>
      </trkpt>
      <trkpt lat="37.014751033857465" lon="-7.935248985886574">
        <ele>8.789999999999999</ele>
        <time>2025-05-07T12:57:42Z</time>
      </trkpt>
      <trkpt lat="37.014767965301871" lon="-7.935185031965375">
        <ele>8.310000000000001</ele>
        <time>2025-05-07T12:57:43Z</time>
      </trkpt>
      <trkpt lat="37.01478498056531" lon="-7.935122000053525">
        <ele>7.83</ele>
        <time>2025-05-07T12:57:44Z</time>
      </trkpt>
      <trkpt lat="37.014800990000367" lon="-7.935058968141675">
        <ele>7.35</ele>
        <time>2025-05-07T12:57:45Z</time>
      </trkpt>
      <trkpt lat="37.014816999435425" lon="-7.934999037533999">
        <ele>6.39</ele>
        <time>2025-05-07T12:57:46Z</time>
      </trkpt>
      <trkpt lat="37.014833008870482" lon="-7.934940028935671">
        <ele>5.91</ele>
        <time>2025-05-07T12:57:47Z</time>
      </trkpt>
      <trkpt lat="37.014858992770314" lon="-7.934612967073917">
        <ele>2.06</ele>
        <time>2025-05-07T12:57:52Z</time>
      </trkpt>
      <trkpt lat="37.014862010255456" lon="-7.934547001495957">
        <ele>1.58</ele>
        <time>2025-05-07T12:57:53Z</time>
      </trkpt>
      <trkpt lat="37.014867961406708" lon="-7.934364024549723">
        <ele>0.62</ele>
        <time>2025-05-07T12:57:56Z</time>
      </trkpt>
      <trkpt lat="37.01487097889185" lon="-7.934306021779776">
        <ele>0.62</ele>
        <time>2025-05-07T12:57:57Z</time>
      </trkpt>
      <trkpt lat="37.01487097889185" lon="-7.934193033725023">
        <ele>0.14</ele>
        <time>2025-05-07T12:57:59Z</time>
      </trkpt>
      <trkpt lat="37.01484801247716" lon="-7.934154979884625">
        <ele>-0.34</ele>
        <time>2025-05-07T12:58:00Z</time>
      </trkpt>
      <trkpt lat="37.014779029414058" lon="-7.934050960466266">
        <ele>-0.82</ele>
        <time>2025-05-07T12:58:02Z</time>
      </trkpt>
      <trkpt lat="37.01474198140204" lon="-7.93399496935308">
        <ele>-0.82</ele>
        <time>2025-05-07T12:58:03Z</time>
      </trkpt>
      <trkpt lat="37.014379967004061" lon="-7.933409996330738">
        <ele>-3.23</ele>
        <time>2025-05-07T12:58:14Z</time>
      </trkpt>
      <trkpt lat="37.01435498893261" lon="-7.933354005217552">
        <ele>-3.23</ele>
        <time>2025-05-07T12:58:15Z</time>
      </trkpt>
      <trkpt lat="37.014305032789707" lon="-7.933245040476322">
        <ele>-3.71</ele>
        <time>2025-05-07T12:58:17Z</time>
      </trkpt>
      <trkpt lat="37.014257004484534" lon="-7.933139009401202">
        <ele>-3.71</ele>
        <time>2025-05-07T12:58:19Z</time>
      </trkpt>
      <trkpt lat="37.01422699727118" lon="-7.933072960004211">
        <ele>-4.19</ele>
        <time>2025-05-07T12:58:20Z</time>
      </trkpt>
      <trkpt lat="37.014200007542968" lon="-7.933066003024578">
        <ele>-4.19</ele>
        <time>2025-05-07T12:58:21Z</time>
      </trkpt>
      <trkpt lat="37.014148961752653" lon="-7.933052005246282">
        <ele>-4.19</ele>
        <time>2025-05-07T12:58:22Z</time>
      </trkpt>
      <trkpt lat="37.014090036973357" lon="-7.933037001639605">
        <ele>-4.67</ele>
        <time>2025-05-07T12:58:23Z</time>
      </trkpt>
      <trkpt lat="37.013717964291573" lon="-7.932938011363149">
        <ele>-6.11</ele>
        <time>2025-05-07T12:58:32Z</time>
      </trkpt>
      <trkpt lat="37.013662979006767" lon="-7.932924013584852">
        <ele>-7.07</ele>
        <time>2025-05-07T12:58:34Z</time>
      </trkpt>
      <trkpt lat="37.013630038127303" lon="-7.932914961129427">
        <ele>-7.55</ele>
        <time>2025-05-07T12:58:35Z</time>
      </trkpt>
      <trkpt lat="37.013595001772046" lon="-7.932905992493033">
        <ele>-7.55</ele>
        <time>2025-05-07T12:58:36Z</time>
      </trkpt>
      <trkpt lat="37.013554014265537" lon="-7.932895012199879">
        <ele>-7.07</ele>
        <time>2025-05-07T12:58:37Z</time>
      </trkpt>
      <trkpt lat="37.013498023152351" lon="-7.932880008593202">
        <ele>-7.07</ele>
        <time>2025-05-07T12:58:38Z</time>
      </trkpt>
      <trkpt lat="37.013451000675559" lon="-7.932863999158144">
        <ele>-7.07</ele>
        <time>2025-05-07T12:58:39Z</time>
      </trkpt>
      <trkpt lat="37.013391992077231" lon="-7.932844972237945">
        <ele>-7.07</ele>
        <time>2025-05-07T12:58:40Z</time>
      </trkpt>
      <trkpt lat="37.013326026499271" lon="-7.932823011651635">
        <ele>-7.07</ele>
        <time>2025-05-07T12:58:41Z</time>
      </trkpt>
      <trkpt lat="37.013253020122647" lon="-7.932807002216578">
        <ele>-7.55</ele>
        <time>2025-05-07T12:58:42Z</time>
      </trkpt>
      <trkpt lat="37.013178002089262" lon="-7.932794010266662">
        <ele>-8.029999999999999</ele>
        <time>2025-05-07T12:58:43Z</time>
      </trkpt>
      <trkpt lat="37.013097032904625" lon="-7.932780012488365">
        <ele>-8.51</ele>
        <time>2025-05-07T12:58:44Z</time>
      </trkpt>
      <trkpt lat="37.013014974072576" lon="-7.932766014710069">
        <ele>-9</ele>
        <time>2025-05-07T12:58:45Z</time>
      </trkpt>
      <trkpt lat="37.012930987402797" lon="-7.932752016931772">
        <ele>-9</ele>
        <time>2025-05-07T12:58:46Z</time>
      </trkpt>
      <trkpt lat="37.012848006561399" lon="-7.932737013325095">
        <ele>-9.48</ele>
        <time>2025-05-07T12:58:47Z</time>
      </trkpt>
      <trkpt lat="37.011895989999175" lon="-7.93255596421659">
        <ele>-9.48</ele>
        <time>2025-05-07T12:58:58Z</time>
      </trkpt>
      <trkpt lat="37.011438002809882" lon="-7.932471977546811">
        <ele>-8.029999999999999</ele>
        <time>2025-05-07T12:59:04Z</time>
      </trkpt>
      <trkpt lat="37.011418975889683" lon="-7.932468038052321">
        <ele>-7.55</ele>
        <time>2025-05-07T12:59:05Z</time>
      </trkpt>
      <trkpt lat="37.011396009474993" lon="-7.932462003082037">
        <ele>-7.55</ele>
        <time>2025-05-07T12:59:06Z</time>
      </trkpt>
      <trkpt lat="37.011374970898032" lon="-7.932456973940134">
        <ele>-7.07</ele>
        <time>2025-05-07T12:59:07Z</time>
      </trkpt>
      <trkpt lat="37.011272963136435" lon="-7.932370975613594">
        <ele>-6.11</ele>
        <time>2025-05-07T12:59:08Z</time>
      </trkpt>
      <trkpt lat="37.011280003935099" lon="-7.932310961186886">
        <ele>-5.15</ele>
        <time>2025-05-07T12:59:09Z</time>
      </trkpt>
      <trkpt lat="37.011288972571492" lon="-7.932230997830629">
        <ele>-4.19</ele>
        <time>2025-05-07T12:59:10Z</time>
      </trkpt>
      <trkpt lat="37.011449988931417" lon="-7.931295996531844">
        <ele>1.1</ele>
        <time>2025-05-07T12:59:20Z</time>
      </trkpt>
      <trkpt lat="37.011473961174488" lon="-7.931197006255388">
        <ele>1.1</ele>
        <time>2025-05-07T12:59:21Z</time>
      </trkpt>
      <trkpt lat="37.011573035269976" lon="-7.931123999878764">
        <ele>1.58</ele>
        <time>2025-05-07T12:59:22Z</time>
      </trkpt>
      <trkpt lat="37.011614022776484" lon="-7.931009000167251">
        <ele>1.58</ele>
        <time>2025-05-07T12:59:23Z</time>
      </trkpt>
      <trkpt lat="37.011657021939754" lon="-7.930888971313834">
        <ele>1.58</ele>
        <time>2025-05-07T12:59:24Z</time>
      </trkpt>
      <trkpt lat="37.012332016602159" lon="-7.929814998060465">
        <ele>2.06</ele>
        <time>2025-05-07T12:59:34Z</time>
      </trkpt>
      <trkpt lat="37.012892011553049" lon="-7.928490992635489">
        <ele>3.5</ele>
        <time>2025-05-07T12:59:44Z</time>
      </trkpt>
      <trkpt lat="37.013226030394435" lon="-7.926898011937738">
        <ele>6.39</ele>
        <time>2025-05-07T12:59:55Z</time>
      </trkpt>
      <trkpt lat="37.013287972658873" lon="-7.926777983084321">
        <ele>6.39</ele>
        <time>2025-05-07T12:59:56Z</time>
      </trkpt>
      <trkpt lat="37.013357961550355" lon="-7.926673963665962">
        <ele>6.87</ele>
        <time>2025-05-07T12:59:57Z</time>
      </trkpt>
      <trkpt lat="37.013540016487241" lon="-7.926393002271652">
        <ele>7.35</ele>
        <time>2025-05-07T13:00:02Z</time>
      </trkpt>
      <trkpt lat="37.013544961810112" lon="-7.926385039463639">
        <ele>7.35</ele>
        <time>2025-05-07T13:00:05Z</time>
      </trkpt>
      <trkpt lat="37.013554014265537" lon="-7.926327036693692">
        <ele>7.83</ele>
        <time>2025-05-07T13:00:07Z</time>
      </trkpt>
      <trkpt lat="37.013536999002099" lon="-7.926268028095365">
        <ele>7.83</ele>
        <time>2025-05-07T13:00:08Z</time>
      </trkpt>
      <trkpt lat="37.01351897791028" lon="-7.926207007840276">
        <ele>8.310000000000001</ele>
        <time>2025-05-07T13:00:09Z</time>
      </trkpt>
      <trkpt lat="37.013524007052183" lon="-7.926092008128762">
        <ele>8.310000000000001</ele>
        <time>2025-05-07T13:00:10Z</time>
      </trkpt>
      <trkpt lat="37.013455023989081" lon="-7.925970973446965">
        <ele>8.310000000000001</ele>
        <time>2025-05-07T13:00:11Z</time>
      </trkpt>
      <trkpt lat="37.013443037867546" lon="-7.925897967070341">
        <ele>8.310000000000001</ele>
        <time>2025-05-07T13:00:12Z</time>
      </trkpt>
      <trkpt lat="37.013429962098598" lon="-7.925781961530447">
        <ele>8.789999999999999</ele>
        <time>2025-05-07T13:00:13Z</time>
      </trkpt>
      <trkpt lat="37.013424010947347" lon="-7.925666039809585">
        <ele>8.789999999999999</ele>
        <time>2025-05-07T13:00:14Z</time>
      </trkpt>
      <trkpt lat="37.013416970148683" lon="-7.925548022612929">
        <ele>9.27</ele>
        <time>2025-05-07T13:00:15Z</time>
      </trkpt>
      <trkpt lat="37.013416970148683" lon="-7.92542296461761">
        <ele>9.27</ele>
        <time>2025-05-07T13:00:16Z</time>
      </trkpt>
      <trkpt lat="37.013439014554024" lon="-7.925292039290071">
        <ele>9.27</ele>
        <time>2025-05-07T13:00:17Z</time>
      </trkpt>
      <trkpt lat="37.01373003423214" lon="-7.923524966463447">
        <ele>10.23</ele>
        <time>2025-05-07T13:00:29Z</time>
      </trkpt>
      <trkpt lat="37.014061035588384" lon="-7.921453965827823">
        <ele>11.19</ele>
        <time>2025-05-07T13:00:43Z</time>
      </trkpt>
      <trkpt lat="37.014530003070831" lon="-7.918642004951835">
        <ele>12.630000000000001</ele>
        <time>2025-05-07T13:01:02Z</time>
      </trkpt>
      <trkpt lat="37.01497801579535" lon="-7.916443012654781">
        <ele>10.710000000000001</ele>
        <time>2025-05-07T13:01:17Z</time>
      </trkpt>
      <trkpt lat="37.015514960512519" lon="-7.915457971394062">
        <ele>9.27</ele>
        <time>2025-05-07T13:01:25Z</time>
      </trkpt>
      <trkpt lat="37.015611017122865" lon="-7.915397034958005">
        <ele>9.75</ele>
        <time>2025-05-07T13:01:26Z</time>
      </trkpt>
      <trkpt lat="37.015691986307502" lon="-7.915350012481213">
        <ele>10.23</ele>
        <time>2025-05-07T13:01:27Z</time>
      </trkpt>
      <trkpt lat="37.015778990462422" lon="-7.915367027744651">
        <ele>10.710000000000001</ele>
        <time>2025-05-07T13:01:28Z</time>
      </trkpt>
      <trkpt lat="37.015830036252737" lon="-7.915407009422779">
        <ele>11.19</ele>
        <time>2025-05-07T13:01:29Z</time>
      </trkpt>
      <trkpt lat="37.015893990173936" lon="-7.915470041334629">
        <ele>11.67</ele>
        <time>2025-05-07T13:01:30Z</time>
      </trkpt>
      <trkpt lat="37.01594403013587" lon="-7.915521003305912">
        <ele>11.67</ele>
        <time>2025-05-07T13:01:31Z</time>
      </trkpt>
      <trkpt lat="37.016155002638698" lon="-7.915561990812421">
        <ele>12.15</ele>
        <time>2025-05-07T13:01:32Z</time>
      </trkpt>
      <trkpt lat="37.01622499153018" lon="-7.915513040497899">
        <ele>12.15</ele>
        <time>2025-05-07T13:01:33Z</time>
      </trkpt>
      <trkpt lat="37.016309984028339" lon="-7.915453026071191">
        <ele>12.15</ele>
        <time>2025-05-07T13:01:34Z</time>
      </trkpt>
      <trkpt lat="37.016408974304795" lon="-7.915383959189057">
        <ele>12.15</ele>
        <time>2025-05-07T13:01:35Z</time>
      </trkpt>
      <trkpt lat="37.016938962042332" lon="-7.915028985589743">
        <ele>13.6</ele>
        <time>2025-05-07T13:01:40Z</time>
      </trkpt>
      <trkpt lat="37.017884021624923" lon="-7.914559012278915">
        <ele>13.6</ele>
        <time>2025-05-07T13:01:47Z</time>
      </trkpt>
      <trkpt lat="37.019155975431204" lon="-7.914319038391113">
        <ele>15.52</ele>
        <time>2025-05-07T13:01:56Z</time>
      </trkpt>
      <trkpt lat="37.020405968651175" lon="-7.914536967873573">
        <ele>16</ele>
        <time>2025-05-07T13:02:05Z</time>
      </trkpt>
      <trkpt lat="37.021521013230085" lon="-7.91515002027154">
        <ele>16</ele>
        <time>2025-05-07T13:02:14Z</time>
      </trkpt>
      <trkpt lat="37.022700011730194" lon="-7.916208989918232">
        <ele>15.039999999999999</ele>
        <time>2025-05-07T13:02:25Z</time>
      </trkpt>
      <trkpt lat="37.023505009710789" lon="-7.916840985417366">
        <ele>14.56</ele>
        <time>2025-05-07T13:02:32Z</time>
      </trkpt>
      <trkpt lat="37.023629983887076" lon="-7.916917009279132">
        <ele>15.039999999999999</ele>
        <time>2025-05-07T13:02:33Z</time>
      </trkpt>
      <trkpt lat="37.023755041882396" lon="-7.916982974857092">
        <ele>15.039999999999999</ele>
        <time>2025-05-07T13:02:34Z</time>
      </trkpt>
      <trkpt lat="37.023896025493741" lon="-7.917007030919194">
        <ele>15.039999999999999</ele>
        <time>2025-05-07T13:02:35Z</time>
      </trkpt>
      <trkpt lat="37.024038014933467" lon="-7.917017005383968">
        <ele>15.039999999999999</ele>
        <time>2025-05-07T13:02:36Z</time>
      </trkpt>
      <trkpt lat="37.02417598105967" lon="-7.91699999012053">
        <ele>15.039999999999999</ele>
        <time>2025-05-07T13:02:37Z</time>
      </trkpt>
      <trkpt lat="37.024305984377861" lon="-7.916983980685473">
        <ele>15.039999999999999</ele>
        <time>2025-05-07T13:02:38Z</time>
      </trkpt>
      <trkpt lat="37.025088015943766" lon="-7.916846014559269">
        <ele>15.52</ele>
        <time>2025-05-07T13:02:44Z</time>
      </trkpt>
      <trkpt lat="37.02565697953105" lon="-7.91691298596561">
        <ele>16.48</ele>
        <time>2025-05-07T13:02:50Z</time>
      </trkpt>
      <trkpt lat="37.025793017819524" lon="-7.9167649615556">
        <ele>16.48</ele>
        <time>2025-05-07T13:02:51Z</time>
      </trkpt>
      <trkpt lat="37.025854038074613" lon="-7.916773008182645">
        <ele>16</ele>
        <time>2025-05-07T13:02:54Z</time>
      </trkpt>
      <trkpt lat="37.025967026129365" lon="-7.9167839884758">
        <ele>16</ele>
        <time>2025-05-07T13:02:55Z</time>
      </trkpt>
      <trkpt lat="37.026037015020847" lon="-7.916693966835737">
        <ele>16</ele>
        <time>2025-05-07T13:02:56Z</time>
      </trkpt>
      <trkpt lat="37.026634979993105" lon="-7.915912019088864">
        <ele>16.960000000000001</ele>
        <time>2025-05-07T13:03:04Z</time>
      </trkpt>
      <trkpt lat="37.02673296444118" lon="-7.915821997448802">
        <ele>16.960000000000001</ele>
        <time>2025-05-07T13:03:05Z</time>
      </trkpt>
      <trkpt lat="37.026849975809455" lon="-7.915762988850474">
        <ele>17.440000000000001</ele>
        <time>2025-05-07T13:03:06Z</time>
      </trkpt>
      <trkpt lat="37.026972016319633" lon="-7.915735999122262">
        <ele>17.920000000000002</ele>
        <time>2025-05-07T13:03:07Z</time>
      </trkpt>
      <trkpt lat="37.027099002152681" lon="-7.915708003565669">
        <ele>18.399999999999999</ele>
        <time>2025-05-07T13:03:08Z</time>
      </trkpt>
      <trkpt lat="37.027235962450504" lon="-7.915696017444134">
        <ele>18.879999999999999</ele>
        <time>2025-05-07T13:03:09Z</time>
      </trkpt>
      <trkpt lat="37.02737401239574" lon="-7.915704986080527">
        <ele>18.879999999999999</ele>
        <time>2025-05-07T13:03:10Z</time>
      </trkpt>
      <trkpt lat="37.027512984350324" lon="-7.915713032707572">
        <ele>18.879999999999999</ele>
        <time>2025-05-07T13:03:11Z</time>
      </trkpt>
      <trkpt lat="37.028773035854101" lon="-7.915805988013744">
        <ele>20.809999999999999</ele>
        <time>2025-05-07T13:03:20Z</time>
      </trkpt>
      <trkpt lat="37.028895998373628" lon="-7.915850998833776">
        <ele>20.32</ele>
        <time>2025-05-07T13:03:21Z</time>
      </trkpt>
      <trkpt lat="37.028989959508181" lon="-7.915886035189033">
        <ele>20.32</ele>
        <time>2025-05-07T13:03:22Z</time>
      </trkpt>
      <trkpt lat="37.029118034988642" lon="-7.915983013808727">
        <ele>20.32</ele>
        <time>2025-05-07T13:03:23Z</time>
      </trkpt>
      <trkpt lat="37.029218031093478" lon="-7.916059037670493">
        <ele>20.32</ele>
        <time>2025-05-07T13:03:24Z</time>
      </trkpt>
      <trkpt lat="37.029308974742889" lon="-7.916128020733595">
        <ele>19.84</ele>
        <time>2025-05-07T13:03:25Z</time>
      </trkpt>
      <trkpt lat="37.029463034123182" lon="-7.916250983253121">
        <ele>19.84</ele>
        <time>2025-05-07T13:03:27Z</time>
      </trkpt>
      <trkpt lat="37.029522964730859" lon="-7.91631099767983">
        <ele>19.84</ele>
        <time>2025-05-07T13:03:28Z</time>
      </trkpt>
      <trkpt lat="37.029763022437692" lon="-7.916292976588011">
        <ele>19.84</ele>
        <time>2025-05-07T13:03:29Z</time>
      </trkpt>
      <trkpt lat="37.029876010492444" lon="-7.916306974366307">
        <ele>20.809999999999999</ele>
        <time>2025-05-07T13:03:32Z</time>
      </trkpt>
      <trkpt lat="37.029934013262391" lon="-7.916315020993352">
        <ele>20.809999999999999</ele>
        <time>2025-05-07T13:03:33Z</time>
      </trkpt>
      <trkpt lat="37.029982041567564" lon="-7.916410993784666">
        <ele>20.809999999999999</ele>
        <time>2025-05-07T13:03:34Z</time>
      </trkpt>
      <trkpt lat="37.030022023245692" lon="-7.916491040959954">
        <ele>20.809999999999999</ele>
        <time>2025-05-07T13:03:35Z</time>
      </trkpt>
      <trkpt lat="37.030041972175241" lon="-7.916529010981321">
        <ele>20.809999999999999</ele>
        <time>2025-05-07T13:03:36Z</time>
      </trkpt>
      <trkpt lat="37.030014982447028" lon="-7.916634036228061">
        <ele>20.809999999999999</ele>
        <time>2025-05-07T13:03:37Z</time>
      </trkpt>
      <trkpt lat="37.03012403100729" lon="-7.916810978204012">
        <ele>20.32</ele>
        <time>2025-05-07T13:03:38Z</time>
      </trkpt>
      <trkpt lat="37.030209023505449" lon="-7.916878033429384">
        <ele>19.84</ele>
        <time>2025-05-07T13:03:39Z</time>
      </trkpt>
      <trkpt lat="37.030309019610286" lon="-7.916948022320867">
        <ele>19.359999999999999</ele>
        <time>2025-05-07T13:03:40Z</time>
      </trkpt>
      <trkpt lat="37.030421001836658" lon="-7.91701901704073">
        <ele>18.879999999999999</ele>
        <time>2025-05-07T13:03:41Z</time>
      </trkpt>
      <trkpt lat="37.030547987669706" lon="-7.917080037295818">
        <ele>18.879999999999999</ele>
        <time>2025-05-07T13:03:42Z</time>
      </trkpt>
      <trkpt lat="37.03207902610302" lon="-7.91783600114286">
        <ele>17.920000000000002</ele>
        <time>2025-05-07T13:03:52Z</time>
      </trkpt>
      <trkpt lat="37.033782983198762" lon="-7.918916009366512">
        <ele>19.359999999999999</ele>
        <time>2025-05-07T13:04:02Z</time>
      </trkpt>
      <trkpt lat="37.034127982333302" lon="-7.919146008789539">
        <ele>20.32</ele>
        <time>2025-05-07T13:04:04Z</time>
      </trkpt>
      <trkpt lat="37.034305008128285" lon="-7.919238964095712">
        <ele>21.77</ele>
        <time>2025-05-07T13:04:05Z</time>
      </trkpt>
      <trkpt lat="37.034485973417759" lon="-7.919253967702389">
        <ele>22.73</ele>
        <time>2025-05-07T13:04:06Z</time>
      </trkpt>
      <trkpt lat="37.034668028354645" lon="-7.919253967702389">
        <ele>23.690000000000001</ele>
        <time>2025-05-07T13:04:07Z</time>
      </trkpt>
      <trkpt lat="37.034841030836105" lon="-7.919213986024261">
        <ele>24.649999999999999</ele>
        <time>2025-05-07T13:04:08Z</time>
      </trkpt>
      <trkpt lat="37.035017972812057" lon="-7.919154977425933">
        <ele>26.09</ele>
        <time>2025-05-07T13:04:09Z</time>
      </trkpt>
      <trkpt lat="37.035197010263801" lon="-7.919085994362831">
        <ele>26.57</ele>
        <time>2025-05-07T13:04:10Z</time>
      </trkpt>
      <trkpt lat="37.036340972408652" lon="-7.918668994680047">
        <ele>22.73</ele>
        <time>2025-05-07T13:04:16Z</time>
      </trkpt>
      <trkpt lat="37.036538030952215" lon="-7.918642004951835">
        <ele>21.77</ele>
        <time>2025-05-07T13:04:17Z</time>
      </trkpt>
      <trkpt lat="37.038167975842953" lon="-7.918466990813613">
        <ele>18.879999999999999</ele>
        <time>2025-05-07T13:04:26Z</time>
      </trkpt>
      <trkpt lat="37.039976036176085" lon="-7.918090978637338">
        <ele>21.289999999999999</ele>
        <time>2025-05-07T13:04:36Z</time>
      </trkpt>
      <trkpt lat="37.041636994108558" lon="-7.91770700365305">
        <ele>23.690000000000001</ele>
        <time>2025-05-07T13:04:45Z</time>
      </trkpt>
      <trkpt lat="37.044109990820289" lon="-7.917223032563925">
        <ele>25.609999999999999</ele>
        <time>2025-05-07T13:04:58Z</time>
      </trkpt>
      <trkpt lat="37.046824973076582" lon="-7.916786000132561">
        <ele>27.050000000000001</ele>
        <time>2025-05-07T13:05:12Z</time>
      </trkpt>
      <trkpt lat="37.047708006575704" lon="-7.916668988764286">
        <ele>28.02</ele>
        <time>2025-05-07T13:05:17Z</time>
      </trkpt>
      <trkpt lat="37.047883020713925" lon="-7.916692961007357">
        <ele>28.5</ele>
        <time>2025-05-07T13:05:18Z</time>
      </trkpt>
      <trkpt lat="37.048420971259475" lon="-7.916925977915525">
        <ele>28.02</ele>
        <time>2025-05-07T13:05:21Z</time>
      </trkpt>
      <trkpt lat="37.049957038834691" lon="-7.917727036401629">
        <ele>26.57</ele>
        <time>2025-05-07T13:05:30Z</time>
      </trkpt>
      <trkpt lat="37.051198985427618" lon="-7.91830999776721">
        <ele>27.530000000000001</ele>
        <time>2025-05-07T13:05:38Z</time>
      </trkpt>
      <trkpt lat="37.05133100040257" lon="-7.918427009135485">
        <ele>27.530000000000001</ele>
        <time>2025-05-07T13:05:39Z</time>
      </trkpt>
      <trkpt lat="37.051410963758826" lon="-7.918527005240321">
        <ele>27.530000000000001</ele>
        <time>2025-05-07T13:05:40Z</time>
      </trkpt>
      <trkpt lat="37.051455974578857" lon="-7.918632030487061">
        <ele>28.02</ele>
        <time>2025-05-07T13:05:41Z</time>
      </trkpt>
      <trkpt lat="37.051464021205902" lon="-7.91878298856318">
        <ele>27.530000000000001</ele>
        <time>2025-05-07T13:05:42Z</time>
      </trkpt>
      <trkpt lat="37.051470978185534" lon="-7.918939981609583">
        <ele>27.530000000000001</ele>
        <time>2025-05-07T13:05:43Z</time>
      </trkpt>
      <trkpt lat="37.051477013155818" lon="-7.919105021283031">
        <ele>28.02</ele>
        <time>2025-05-07T13:05:44Z</time>
      </trkpt>
      <trkpt lat="37.051435019820929" lon="-7.920585013926029">
        <ele>27.050000000000001</ele>
        <time>2025-05-07T13:05:53Z</time>
      </trkpt>
      <trkpt lat="37.051435019820929" lon="-7.920658020302653">
        <ele>27.050000000000001</ele>
        <time>2025-05-07T13:05:54Z</time>
      </trkpt>
      <trkpt lat="37.051435019820929" lon="-7.920724991708994">
        <ele>27.050000000000001</ele>
        <time>2025-05-07T13:05:55Z</time>
      </trkpt>
      <trkpt lat="37.051435019820929" lon="-7.920774025842547">
        <ele>26.57</ele>
        <time>2025-05-07T13:05:56Z</time>
      </trkpt>
      <trkpt lat="37.051521018147469" lon="-7.920863963663578">
        <ele>26.57</ele>
        <time>2025-05-07T13:05:57Z</time>
      </trkpt>
      <trkpt lat="37.051521018147469" lon="-7.920863963663578">
        <ele>26.09</ele>
        <time>2025-05-07T13:05:58Z</time>
      </trkpt>
      <trkpt lat="37.051521018147469" lon="-7.920863963663578">
        <ele>25.609999999999999</ele>
        <time>2025-05-07T13:05:59Z</time>
      </trkpt>
      <trkpt lat="37.051521018147469" lon="-7.920863963663578">
        <ele>25.609999999999999</ele>
        <time>2025-05-07T13:06:00Z</time>
      </trkpt>
      <trkpt lat="37.051710030063987" lon="-7.92097301222384">
        <ele>25.609999999999999</ele>
        <time>2025-05-07T13:06:01Z</time>
      </trkpt>
      <trkpt lat="37.051798962056637" lon="-7.920943005010486">
        <ele>25.609999999999999</ele>
        <time>2025-05-07T13:06:02Z</time>
      </trkpt>
      <trkpt lat="37.051900969818234" lon="-7.92091098614037">
        <ele>25.609999999999999</ele>
        <time>2025-05-07T13:06:03Z</time>
      </trkpt>
      <trkpt lat="37.052010018378496" lon="-7.920877039432526">
        <ele>26.09</ele>
        <time>2025-05-07T13:06:04Z</time>
      </trkpt>
      <trkpt lat="37.05309203825891" lon="-7.920580990612507">
        <ele>27.050000000000001</ele>
        <time>2025-05-07T13:06:12Z</time>
      </trkpt>
      <trkpt lat="37.055018031969666" lon="-7.920074975118041">
        <ele>28.02</ele>
        <time>2025-05-07T13:06:24Z</time>
      </trkpt>
      <trkpt lat="37.056308006867766" lon="-7.919854028150439">
        <ele>29.460000000000001</ele>
        <time>2025-05-07T13:06:33Z</time>
      </trkpt>
      <trkpt lat="37.057494968175888" lon="-7.919651018455625">
        <ele>29.460000000000001</ele>
        <time>2025-05-07T13:06:43Z</time>
      </trkpt>
      <trkpt lat="37.058042977005243" lon="-7.919565020129085">
        <ele>29.460000000000001</ele>
        <time>2025-05-07T13:06:50Z</time>
      </trkpt>
      <trkpt lat="37.058198964223266" lon="-7.919497964903712">
        <ele>29.460000000000001</ele>
        <time>2025-05-07T13:06:52Z</time>
      </trkpt>
      <trkpt lat="37.059163972735405" lon="-7.918875021860004">
        <ele>32.340000000000003</ele>
        <time>2025-05-07T13:07:03Z</time>
      </trkpt>
      <trkpt lat="37.060015993192792" lon="-7.918371018022299">
        <ele>32.82</ele>
        <time>2025-05-07T13:07:12Z</time>
      </trkpt>
      <trkpt lat="37.06063399091363" lon="-7.918068012222648">
        <ele>33.780000000000001</ele>
        <time>2025-05-07T13:07:20Z</time>
      </trkpt>
      <trkpt lat="37.060694005340338" lon="-7.918058037757874">
        <ele>34.259999999999998</ele>
        <time>2025-05-07T13:07:21Z</time>
      </trkpt>
      <trkpt lat="37.060903972014785" lon="-7.918023001402617">
        <ele>35.229999999999997</ele>
        <time>2025-05-07T13:07:24Z</time>
      </trkpt>
      <trkpt lat="37.060968009755015" lon="-7.918013026937842">
        <ele>36.189999999999998</ele>
        <time>2025-05-07T13:07:25Z</time>
      </trkpt>
      <trkpt lat="37.061032969504595" lon="-7.917992994189262">
        <ele>36.670000000000002</ele>
        <time>2025-05-07T13:07:26Z</time>
      </trkpt>
      <trkpt lat="37.061094995588064" lon="-7.917971033602953">
        <ele>37.630000000000003</ele>
        <time>2025-05-07T13:07:27Z</time>
      </trkpt>
      <trkpt lat="37.061157021671534" lon="-7.917948989197612">
        <ele>38.590000000000003</ele>
        <time>2025-05-07T13:07:28Z</time>
      </trkpt>
      <trkpt lat="37.061557006090879" lon="-7.917784033343196">
        <ele>42.439999999999998</ele>
        <time>2025-05-07T13:07:34Z</time>
      </trkpt>
      <trkpt lat="37.06183897331357" lon="-7.917569037526846">
        <ele>44.359999999999999</ele>
        <time>2025-05-07T13:07:39Z</time>
      </trkpt>
      <trkpt lat="37.061877027153969" lon="-7.917540036141872">
        <ele>44.840000000000003</ele>
        <time>2025-05-07T13:07:40Z</time>
      </trkpt>
      <trkpt lat="37.061906028538942" lon="-7.91751598007977">
        <ele>44.840000000000003</ele>
        <time>2025-05-07T13:07:41Z</time>
      </trkpt>
      <trkpt lat="37.061935029923916" lon="-7.917506005614996">
        <ele>45.32</ele>
        <time>2025-05-07T13:07:42Z</time>
      </trkpt>
      <trkpt lat="37.061972999945283" lon="-7.91749301366508">
        <ele>45.799999999999997</ele>
        <time>2025-05-07T13:07:43Z</time>
      </trkpt>
      <trkpt lat="37.062449008226395" lon="-7.917377008125186">
        <ele>45.799999999999997</ele>
        <time>2025-05-07T13:07:49Z</time>
      </trkpt>
      <trkpt lat="37.063301028683782" lon="-7.917326968163252">
        <ele>40.030000000000001</ele>
        <time>2025-05-07T13:07:58Z</time>
      </trkpt>
      <trkpt lat="37.063486017286777" lon="-7.917293021455407">
        <ele>36.670000000000002</ele>
        <time>2025-05-07T13:08:05Z</time>
      </trkpt>
      <trkpt lat="37.063594982028008" lon="-7.917266031727195">
        <ele>34.740000000000002</ele>
        <time>2025-05-07T13:08:17Z</time>
      </trkpt>
      <trkpt lat="37.063615014776587" lon="-7.917261002585292">
        <ele>34.740000000000002</ele>
        <time>2025-05-07T13:08:19Z</time>
      </trkpt>
      <trkpt lat="37.0636229775846" lon="-7.917258990928531">
        <ele>34.740000000000002</ele>
        <time>2025-05-07T13:08:20Z</time>
      </trkpt>
      <trkpt lat="37.063620965927839" lon="-7.917304001748562">
        <ele>34.259999999999998</ele>
        <time>2025-05-07T13:08:21Z</time>
      </trkpt>
      <trkpt lat="37.063617026433349" lon="-7.917377008125186">
        <ele>34.259999999999998</ele>
        <time>2025-05-07T13:08:22Z</time>
      </trkpt>
      <trkpt lat="37.063610991463065" lon="-7.917478010058403">
        <ele>34.259999999999998</ele>
        <time>2025-05-07T13:08:23Z</time>
      </trkpt>
      <trkpt lat="37.063597999513149" lon="-7.917734999209642">
        <ele>33.780000000000001</ele>
        <time>2025-05-07T13:08:25Z</time>
      </trkpt>
      <trkpt lat="37.063590036705136" lon="-7.917886041104794">
        <ele>33.780000000000001</ele>
        <time>2025-05-07T13:08:26Z</time>
      </trkpt>
      <trkpt lat="37.06349398009479" lon="-7.91923301294446">
        <ele>34.259999999999998</ele>
        <time>2025-05-07T13:08:34Z</time>
      </trkpt>
      <trkpt lat="37.063613003119826" lon="-7.920358031988144">
        <ele>34.259999999999998</ele>
        <time>2025-05-07T13:08:42Z</time>
      </trkpt>
      <trkpt lat="37.063796985894442" lon="-7.921225978061557">
        <ele>36.189999999999998</ele>
        <time>2025-05-07T13:08:51Z</time>
      </trkpt>
      <trkpt lat="37.063796985894442" lon="-7.921225978061557">
        <ele>36.670000000000002</ele>
        <time>2025-05-07T13:09:02Z</time>
      </trkpt>
      <trkpt lat="37.063806960359216" lon="-7.921273000538349">
        <ele>37.149999999999999</ele>
        <time>2025-05-07T13:09:52Z</time>
      </trkpt>
      <trkpt lat="37.06383797340095" lon="-7.921349024400115">
        <ele>37.149999999999999</ele>
        <time>2025-05-07T13:09:53Z</time>
      </trkpt>
      <trkpt lat="37.06387703306973" lon="-7.921410966664553">
        <ele>37.630000000000003</ele>
        <time>2025-05-07T13:09:54Z</time>
      </trkpt>
      <trkpt lat="37.063912991434336" lon="-7.9214689694345">
        <ele>37.630000000000003</ele>
        <time>2025-05-07T13:09:55Z</time>
      </trkpt>
      <trkpt lat="37.064034026116133" lon="-7.921430999413133">
        <ele>37.630000000000003</ele>
        <time>2025-05-07T13:09:56Z</time>
      </trkpt>
      <trkpt lat="37.064121030271053" lon="-7.921385988593102">
        <ele>38.109999999999999</ele>
        <time>2025-05-07T13:09:57Z</time>
      </trkpt>
      <trkpt lat="37.064223960042" lon="-7.921331003308296">
        <ele>38.109999999999999</ele>
        <time>2025-05-07T13:09:58Z</time>
      </trkpt>
      <trkpt lat="37.065107999369502" lon="-7.92088801972568">
        <ele>38.109999999999999</ele>
        <time>2025-05-07T13:10:04Z</time>
      </trkpt>
      <trkpt lat="37.066400991752744" lon="-7.92050002142787">
        <ele>39.549999999999997</ele>
        <time>2025-05-07T13:10:12Z</time>
      </trkpt>
      <trkpt lat="37.068163035437465" lon="-7.919873977079988">
        <ele>42.439999999999998</ele>
        <time>2025-05-07T13:10:23Z</time>
      </trkpt>
      <trkpt lat="37.069704970344901" lon="-7.919122958555818">
        <ele>44.840000000000003</ele>
        <time>2025-05-07T13:10:33Z</time>
      </trkpt>
      <trkpt lat="37.071539014577866" lon="-7.91815803386271">
        <ele>45.32</ele>
        <time>2025-05-07T13:10:45Z</time>
      </trkpt>
      <trkpt lat="37.073086984455585" lon="-7.91725798510015">
        <ele>45.799999999999997</ele>
        <time>2025-05-07T13:10:56Z</time>
      </trkpt>
      <trkpt lat="37.074985988438129" lon="-7.915996005758643">
        <ele>46.280000000000001</ele>
        <time>2025-05-07T13:11:08Z</time>
      </trkpt>
      <trkpt lat="37.07651199772954" lon="-7.915443973615766">
        <ele>48.200000000000003</ele>
        <time>2025-05-07T13:11:16Z</time>
      </trkpt>
      <trkpt lat="37.07921901717782" lon="-7.914558006450534">
        <ele>48.68</ele>
        <time>2025-05-07T13:11:31Z</time>
      </trkpt>
      <trkpt lat="37.081189015880227" lon="-7.91401301510632">
        <ele>52.049999999999997</ele>
        <time>2025-05-07T13:11:43Z</time>
      </trkpt>
      <trkpt lat="37.083035968244076" lon="-7.913892986252904">
        <ele>56.859999999999999</ele>
        <time>2025-05-07T13:11:55Z</time>
      </trkpt>
      <trkpt lat="37.085265973582864" lon="-7.913747979328036">
        <ele>62.140000000000001</ele>
        <time>2025-05-07T13:12:09Z</time>
      </trkpt>
      <trkpt lat="37.087416015565395" lon="-7.913584029302001">
        <ele>65.030000000000001</ele>
        <time>2025-05-07T13:12:22Z</time>
      </trkpt>
      <trkpt lat="37.088783020153642" lon="-7.913380013778806">
        <ele>65.989999999999995</ele>
        <time>2025-05-07T13:12:32Z</time>
      </trkpt>
      <trkpt lat="37.088871030136943" lon="-7.913336008787155">
        <ele>65.989999999999995</ele>
        <time>2025-05-07T13:12:33Z</time>
      </trkpt>
      <trkpt lat="37.088947976008058" lon="-7.913284040987492">
        <ele>65.989999999999995</ele>
        <time>2025-05-07T13:12:34Z</time>
      </trkpt>
      <trkpt lat="37.089029029011726" lon="-7.91323903016746">
        <ele>65.989999999999995</ele>
        <time>2025-05-07T13:12:35Z</time>
      </trkpt>
      <trkpt lat="37.089115027338266" lon="-7.913225032389164">
        <ele>65.989999999999995</ele>
        <time>2025-05-07T13:12:36Z</time>
      </trkpt>
      <trkpt lat="37.089186022058129" lon="-7.913278006017208">
        <ele>66.469999999999999</ele>
        <time>2025-05-07T13:12:37Z</time>
      </trkpt>
      <trkpt lat="37.089200019836426" lon="-7.913288986310363">
        <ele>65.989999999999995</ele>
        <time>2025-05-07T13:12:38Z</time>
      </trkpt>
      <trkpt lat="37.089390959590673" lon="-7.913396023213863">
        <ele>65.989999999999995</ele>
        <time>2025-05-07T13:12:39Z</time>
      </trkpt>
      <trkpt lat="37.089505037292838" lon="-7.913396023213863">
        <ele>65.989999999999995</ele>
        <time>2025-05-07T13:12:40Z</time>
      </trkpt>
      <trkpt lat="37.089633028954268" lon="-7.913393005728722">
        <ele>65.989999999999995</ele>
        <time>2025-05-07T13:12:41Z</time>
      </trkpt>
      <trkpt lat="37.091020988300443" lon="-7.913269037380815">
        <ele>67.430000000000007</ele>
        <time>2025-05-07T13:12:50Z</time>
      </trkpt>
      <trkpt lat="37.091778963804245" lon="-7.913398034870625">
        <ele>68.870000000000005</ele>
        <time>2025-05-07T13:12:54Z</time>
      </trkpt>
      <trkpt lat="37.091977028176188" lon="-7.913462994620204">
        <ele>69.349999999999994</ele>
        <time>2025-05-07T13:12:55Z</time>
      </trkpt>
      <trkpt lat="37.092163022607565" lon="-7.913572965189815">
        <ele>69.829999999999998</ele>
        <time>2025-05-07T13:12:56Z</time>
      </trkpt>
      <trkpt lat="37.092349017038941" lon="-7.913703974336386">
        <ele>70.310000000000002</ele>
        <time>2025-05-07T13:12:57Z</time>
      </trkpt>
      <trkpt lat="37.092537023127079" lon="-7.913834983482957">
        <ele>71.269999999999996</ele>
        <time>2025-05-07T13:12:58Z</time>
      </trkpt>
      <trkpt lat="37.092727962881327" lon="-7.91396901011467">
        <ele>72.239999999999995</ele>
        <time>2025-05-07T13:12:59Z</time>
      </trkpt>
      <trkpt lat="37.094781026244164" lon="-7.915470963343978">
        <ele>82.810000000000002</ele>
        <time>2025-05-07T13:13:10Z</time>
      </trkpt>
      <trkpt lat="37.095276983454823" lon="-7.915631979703903">
        <ele>85.689999999999998</ele>
        <time>2025-05-07T13:13:13Z</time>
      </trkpt>
      <trkpt lat="37.095443028956652" lon="-7.915654024109244">
        <ele>88.099999999999994</ele>
        <time>2025-05-07T13:13:15Z</time>
      </trkpt>
      <trkpt lat="37.095787022262812" lon="-7.915622005239129">
        <ele>89.540000000000006</ele>
        <time>2025-05-07T13:13:16Z</time>
      </trkpt>
      <trkpt lat="37.095960024744272" lon="-7.915548998862505">
        <ele>90.5</ele>
        <time>2025-05-07T13:13:17Z</time>
      </trkpt>
      <trkpt lat="37.096131015568972" lon="-7.915455959737301">
        <ele>91.939999999999998</ele>
        <time>2025-05-07T13:13:18Z</time>
      </trkpt>
      <trkpt lat="37.096291026100516" lon="-7.915303995832801">
        <ele>93.390000000000001</ele>
        <time>2025-05-07T13:13:19Z</time>
      </trkpt>
      <trkpt lat="37.09645296446979" lon="-7.915149014443159">
        <ele>94.829999999999998</ele>
        <time>2025-05-07T13:13:20Z</time>
      </trkpt>
      <trkpt lat="37.09662496112287" lon="-7.914983974769712">
        <ele>95.790000000000006</ele>
        <time>2025-05-07T13:13:21Z</time>
      </trkpt>
      <trkpt lat="37.096740966662765" lon="-7.914752969518304">
        <ele>96.75</ele>
        <time>2025-05-07T13:13:22Z</time>
      </trkpt>
      <trkpt lat="37.096863007172942" lon="-7.914509978145361">
        <ele>97.709999999999994</ele>
        <time>2025-05-07T13:13:23Z</time>
      </trkpt>
      <trkpt lat="37.0978909637779" lon="-7.912302017211914">
        <ele>99.629999999999995</ele>
        <time>2025-05-07T13:13:31Z</time>
      </trkpt>
      <trkpt lat="37.098923027515411" lon="-7.909108009189367">
        <ele>94.829999999999998</ele>
        <time>2025-05-07T13:13:41Z</time>
      </trkpt>
      <trkpt lat="37.099525015801191" lon="-7.905866978690028">
        <ele>88.579999999999998</ele>
        <time>2025-05-07T13:13:50Z</time>
      </trkpt>
      <trkpt lat="37.099655019119382" lon="-7.902570962905884">
        <ele>89.060000000000002</ele>
        <time>2025-05-07T13:13:59Z</time>
      </trkpt>
      <trkpt lat="37.09937104023993" lon="-7.898914022371173">
        <ele>99.150000000000006</ele>
        <time>2025-05-07T13:14:09Z</time>
      </trkpt>
      <trkpt lat="37.099169958382845" lon="-7.89523302577436">
        <ele>114.53</ele>
        <time>2025-05-07T13:14:19Z</time>
      </trkpt>
      <trkpt lat="37.099279006943107" lon="-7.891899039968848">
        <ele>127.98999999999999</ele>
        <time>2025-05-07T13:14:28Z</time>
      </trkpt>
      <trkpt lat="37.099132994189858" lon="-7.888945005834103">
        <ele>134.24000000000001</ele>
        <time>2025-05-07T13:14:36Z</time>
      </trkpt>
      <trkpt lat="37.098517008125782" lon="-7.886103959754109">
        <ele>140.49000000000001</ele>
        <time>2025-05-07T13:14:44Z</time>
      </trkpt>
      <trkpt lat="37.096961997449398" lon="-7.881705975160003">
        <ele>153.94999999999999</ele>
        <time>2025-05-07T13:14:57Z</time>
      </trkpt>
      <trkpt lat="37.095198025926948" lon="-7.876990986987948">
        <ele>152.50999999999999</ele>
        <time>2025-05-07T13:15:11Z</time>
      </trkpt>
      <trkpt lat="37.093207994475961" lon="-7.8716229647398">
        <ele>141.93000000000001</ele>
        <time>2025-05-07T13:15:27Z</time>
      </trkpt>
      <trkpt lat="37.09198197349906" lon="-7.867848007008433">
        <ele>145.78</ele>
        <time>2025-05-07T13:15:38Z</time>
      </trkpt>
      <trkpt lat="37.091372022405267" lon="-7.864224007353187">
        <ele>145.30000000000001</ele>
        <time>2025-05-07T13:15:48Z</time>
      </trkpt>
      <trkpt lat="37.091125007718801" lon="-7.860146965831518">
        <ele>140.00999999999999</ele>
        <time>2025-05-07T13:15:59Z</time>
      </trkpt>
      <trkpt lat="37.090904982760549" lon="-7.856086017563939">
        <ele>135.19999999999999</ele>
        <time>2025-05-07T13:16:10Z</time>
      </trkpt>
      <trkpt lat="37.09062896668911" lon="-7.850514985620976">
        <ele>127.03</ele>
        <time>2025-05-07T13:16:25Z</time>
      </trkpt>
      <trkpt lat="37.090323027223349" lon="-7.845356008037925">
        <ele>119.81999999999999</ele>
        <time>2025-05-07T13:16:39Z</time>
      </trkpt>
      <trkpt lat="37.089623976498842" lon="-7.839899975806475">
        <ele>118.38</ele>
        <time>2025-05-07T13:16:54Z</time>
      </trkpt>
      <trkpt lat="37.088642036542296" lon="-7.834869995713234">
        <ele>123.67</ele>
        <time>2025-05-07T13:17:08Z</time>
      </trkpt>
      <trkpt lat="37.088168039917946" lon="-7.830819021910429">
        <ele>126.06999999999999</ele>
        <time>2025-05-07T13:17:19Z</time>
      </trkpt>
      <trkpt lat="37.08826401270926" lon="-7.827097037807107">
        <ele>124.15000000000001</ele>
        <time>2025-05-07T13:17:29Z</time>
      </trkpt>
      <trkpt lat="37.088872035965323" lon="-7.823459962382913">
        <ele>124.63</ele>
        <time>2025-05-07T13:17:39Z</time>
      </trkpt>
      <trkpt lat="37.089922036975622" lon="-7.819979963824153">
        <ele>126.55</ele>
        <time>2025-05-07T13:17:49Z</time>
      </trkpt>
      <trkpt lat="37.091432036831975" lon="-7.816776987165213">
        <ele>127.51000000000001</ele>
        <time>2025-05-07T13:17:59Z</time>
      </trkpt>
      <trkpt lat="37.093328023329377" lon="-7.813938036561012">
        <ele>125.59</ele>
        <time>2025-05-07T13:18:09Z</time>
      </trkpt>
      <trkpt lat="37.096015010029078" lon="-7.810508999973536">
        <ele>121.73999999999999</ele>
        <time>2025-05-07T13:18:22Z</time>
      </trkpt>
      <trkpt lat="37.099130982533097" lon="-7.806574031710625">
        <ele>125.11</ele>
        <time>2025-05-07T13:18:37Z</time>
      </trkpt>
      <trkpt lat="37.101465007290244" lon="-7.803683029487729">
        <ele>127.03</ele>
        <time>2025-05-07T13:18:48Z</time>
      </trkpt>
      <trkpt lat="37.103426959365606" lon="-7.802064986899495">
        <ele>125.59</ele>
        <time>2025-05-07T13:18:56Z</time>
      </trkpt>
      <trkpt lat="37.105658976361156" lon="-7.801078017801046">
        <ele>128.94999999999999</ele>
        <time>2025-05-07T13:19:04Z</time>
      </trkpt>
      <trkpt lat="37.108618961647153" lon="-7.800546018406749">
        <ele>125.59</ele>
        <time>2025-05-07T13:19:14Z</time>
      </trkpt>
      <trkpt lat="37.112712012603879" lon="-7.799744959920645">
        <ele>124.15000000000001</ele>
        <time>2025-05-07T13:19:28Z</time>
      </trkpt>
      <trkpt lat="37.114616967737675" lon="-7.798775006085634">
        <ele>128.47</ele>
        <time>2025-05-07T13:19:35Z</time>
      </trkpt>
      <trkpt lat="37.116270968690515" lon="-7.797204991802573">
        <ele>130.88</ele>
        <time>2025-05-07T13:19:42Z</time>
      </trkpt>
      <trkpt lat="37.11754803545773" lon="-7.795175984501839">
        <ele>132.31999999999999</ele>
        <time>2025-05-07T13:19:49Z</time>
      </trkpt>
      <trkpt lat="37.1183439809829" lon="-7.792770965024829">
        <ele>132.31999999999999</ele>
        <time>2025-05-07T13:19:56Z</time>
      </trkpt>
      <trkpt lat="37.119234977290034" lon="-7.788086989894509">
        <ele>136.16</ele>
        <time>2025-05-07T13:20:09Z</time>
      </trkpt>
      <trkpt lat="37.120218006893992" lon="-7.782674040645361">
        <ele>142.41</ele>
        <time>2025-05-07T13:20:24Z</time>
      </trkpt>
      <trkpt lat="37.121130963787436" lon="-7.779141990467906">
        <ele>140.00999999999999</ele>
        <time>2025-05-07T13:20:34Z</time>
      </trkpt>
      <trkpt lat="37.122425967827439" lon="-7.776640998199582">
        <ele>134.72</ele>
        <time>2025-05-07T13:20:42Z</time>
      </trkpt>
      <trkpt lat="37.124326983466744" lon="-7.773380018770695">
        <ele>126.06999999999999</ele>
        <time>2025-05-07T13:20:53Z</time>
      </trkpt>
      <trkpt lat="37.125319987535477" lon="-7.770723039284349">
        <ele>123.19</ele>
        <time>2025-05-07T13:21:01Z</time>
      </trkpt>
      <trkpt lat="37.126062037423253" lon="-7.767170034348965">
        <ele>120.78</ele>
        <time>2025-05-07T13:21:11Z</time>
      </trkpt>
      <trkpt lat="37.126801991835237" lon="-7.764006033539772">
        <ele>118.38</ele>
        <time>2025-05-07T13:21:20Z</time>
      </trkpt>
      <trkpt lat="37.128004962578416" lon="-7.761474028229713">
        <ele>115.01000000000001</ele>
        <time>2025-05-07T13:21:28Z</time>
      </trkpt>
      <trkpt lat="37.12964303791523" lon="-7.75936296209693">
        <ele>111.65000000000001</ele>
        <time>2025-05-07T13:21:36Z</time>
      </trkpt>
      <trkpt lat="37.131784027442336" lon="-7.756343968212605">
        <ele>108.77</ele>
        <time>2025-05-07T13:21:47Z</time>
      </trkpt>
      <trkpt lat="37.133220015093684" lon="-7.753150966018438">
        <ele>106.84</ele>
        <time>2025-05-07T13:21:57Z</time>
      </trkpt>
      <trkpt lat="37.134035993367434" lon="-7.750018984079361">
        <ele>106.36</ele>
        <time>2025-05-07T13:22:06Z</time>
      </trkpt>
      <trkpt lat="37.134916009381413" lon="-7.746141012758017">
        <ele>103.95999999999999</ele>
        <time>2025-05-07T13:22:17Z</time>
      </trkpt>
      <trkpt lat="37.136589037254453" lon="-7.740280972793698">
        <ele>114.05</ele>
        <time>2025-05-07T13:22:34Z</time>
      </trkpt>
      <trkpt lat="37.137318011373281" lon="-7.736749006435275">
        <ele>124.63</ele>
        <time>2025-05-07T13:22:44Z</time>
      </trkpt>
      <trkpt lat="37.137353969737887" lon="-7.73381601087749">
        <ele>129.91999999999999</ele>
        <time>2025-05-07T13:22:52Z</time>
      </trkpt>
      <trkpt lat="37.136850971728563" lon="-7.730935988947749">
        <ele>131.84</ele>
        <time>2025-05-07T13:23:00Z</time>
      </trkpt>
      <trkpt lat="37.135666022077203" lon="-7.727190032601357">
        <ele>130.40000000000001</ele>
        <time>2025-05-07T13:23:11Z</time>
      </trkpt>
      <trkpt lat="37.134314021095634" lon="-7.722721975296736">
        <ele>125.11</ele>
        <time>2025-05-07T13:23:24Z</time>
      </trkpt>
      <trkpt lat="37.134003974497318" lon="-7.719803983345628">
        <ele>116.45999999999999</ele>
        <time>2025-05-07T13:23:32Z</time>
      </trkpt>
      <trkpt lat="37.134225005283952" lon="-7.716126004233956">
        <ele>107.81</ele>
        <time>2025-05-07T13:23:42Z</time>
      </trkpt>
      <trkpt lat="37.134240008890629" lon="-7.712102020159364">
        <ele>106.36</ele>
        <time>2025-05-07T13:23:53Z</time>
      </trkpt>
      <trkpt lat="37.133967010304332" lon="-7.706583961844444">
        <ele>100.59999999999999</ele>
        <time>2025-05-07T13:24:08Z</time>
      </trkpt>
      <trkpt lat="37.134032975882292" lon="-7.704023960977793">
        <ele>97.709999999999994</ele>
        <time>2025-05-07T13:24:15Z</time>
      </trkpt>
      <trkpt lat="37.134602023288608" lon="-7.701570997014642">
        <ele>100.11</ele>
        <time>2025-05-07T13:24:22Z</time>
      </trkpt>
      <trkpt lat="37.135771969333291" lon="-7.69901099614799">
        <ele>107.81</ele>
        <time>2025-05-07T13:24:30Z</time>
      </trkpt>
      <trkpt lat="37.136818030849099" lon="-7.696357034146786">
        <ele>110.20999999999999</ele>
        <time>2025-05-07T13:24:38Z</time>
      </trkpt>
      <trkpt lat="37.137964004650712" lon="-7.692129034548998">
        <ele>103.95999999999999</ele>
        <time>2025-05-07T13:24:50Z</time>
      </trkpt>
      <trkpt lat="37.139186002314091" lon="-7.688738973811269">
        <ele>95.790000000000006</ele>
        <time>2025-05-07T13:25:00Z</time>
      </trkpt>
      <trkpt lat="37.141008982434869" lon="-7.684077965095639">
        <ele>83.769999999999996</ele>
        <time>2025-05-07T13:25:14Z</time>
      </trkpt>
      <trkpt lat="37.142586037516594" lon="-7.679272033274174">
        <ele>71.269999999999996</ele>
        <time>2025-05-07T13:25:28Z</time>
      </trkpt>
      <trkpt lat="37.144027976319194" lon="-7.676027985289693">
        <ele>60.700000000000003</ele>
        <time>2025-05-07T13:25:38Z</time>
      </trkpt>
      <trkpt lat="37.145923040807247" lon="-7.67318501137197">
        <ele>50.609999999999999</ele>
        <time>2025-05-07T13:25:48Z</time>
      </trkpt>
      <trkpt lat="37.147946013137698" lon="-7.671007979661226">
        <ele>40.990000000000002</ele>
        <time>2025-05-07T13:25:57Z</time>
      </trkpt>
      <trkpt lat="37.150499979034066" lon="-7.669125990942121">
        <ele>30.899999999999999</ele>
        <time>2025-05-07T13:26:07Z</time>
      </trkpt>
      <trkpt lat="37.152988985180855" lon="-7.667931988835335">
        <ele>21.289999999999999</ele>
        <time>2025-05-07T13:26:16Z</time>
      </trkpt>
      <trkpt lat="37.156132031232119" lon="-7.66693496145308">
        <ele>19.359999999999999</ele>
        <time>2025-05-07T13:26:27Z</time>
      </trkpt>
      <trkpt lat="37.157419994473457" lon="-7.66609501093626">
        <ele>21.77</ele>
        <time>2025-05-07T13:26:32Z</time>
      </trkpt>
      <trkpt lat="37.158682979643345" lon="-7.664572019129992">
        <ele>28.02</ele>
        <time>2025-05-07T13:26:38Z</time>
      </trkpt>
      <trkpt lat="37.159001994878054" lon="-7.66394798643887">
        <ele>30.420000000000002</ele>
        <time>2025-05-07T13:26:40Z</time>
      </trkpt>
      <trkpt lat="37.15983297675848" lon="-7.661567023023963">
        <ele>38.109999999999999</ele>
        <time>2025-05-07T13:26:47Z</time>
      </trkpt>
      <trkpt lat="37.161058997735381" lon="-7.65820998698473">
        <ele>50.609999999999999</ele>
        <time>2025-05-07T13:26:57Z</time>
      </trkpt>
      <trkpt lat="37.162375962361693" lon="-7.656210986897349">
        <ele>59.259999999999998</ele>
        <time>2025-05-07T13:27:04Z</time>
      </trkpt>
      <trkpt lat="37.163231000304222" lon="-7.654264038428664">
        <ele>65.989999999999995</ele>
        <time>2025-05-07T13:27:10Z</time>
      </trkpt>
      <trkpt lat="37.164462972432375" lon="-7.651314027607441">
        <ele>74.640000000000001</ele>
        <time>2025-05-07T13:27:19Z</time>
      </trkpt>
      <trkpt lat="37.166217975318432" lon="-7.648308025673032">
        <ele>78</ele>
        <time>2025-05-07T13:27:29Z</time>
      </trkpt>
      <trkpt lat="37.167083993554115" lon="-7.645944999530911">
        <ele>77.519999999999996</ele>
        <time>2025-05-07T13:27:36Z</time>
      </trkpt>
      <trkpt lat="37.168199960142374" lon="-7.642517974600196">
        <ele>74.159999999999997</ele>
        <time>2025-05-07T13:27:46Z</time>
      </trkpt>
      <trkpt lat="37.169594038277864" lon="-7.638819962739945">
        <ele>69.829999999999998</ele>
        <time>2025-05-07T13:27:57Z</time>
      </trkpt>
      <trkpt lat="37.170279007405043" lon="-7.635613968595862">
        <ele>65.510000000000005</ele>
        <time>2025-05-07T13:28:06Z</time>
      </trkpt>
      <trkpt lat="37.170409010723233" lon="-7.63229900971055">
        <ele>59.740000000000002</ele>
        <time>2025-05-07T13:28:15Z</time>
      </trkpt>
      <trkpt lat="37.170114973559976" lon="-7.628620024770498">
        <ele>51.090000000000003</ele>
        <time>2025-05-07T13:28:25Z</time>
      </trkpt>
      <trkpt lat="37.170051019638777" lon="-7.62565903365612">
        <ele>44.359999999999999</ele>
        <time>2025-05-07T13:28:33Z</time>
      </trkpt>
      <trkpt lat="37.170611014589667" lon="-7.623164998367429">
        <ele>37.630000000000003</ele>
        <time>2025-05-07T13:28:40Z</time>
      </trkpt>
      <trkpt lat="37.171548027545214" lon="-7.620440041646361">
        <ele>32.340000000000003</ele>
        <time>2025-05-07T13:28:48Z</time>
      </trkpt>
      <trkpt lat="37.172004003077745" lon="-7.618331992998719">
        <ele>32.340000000000003</ele>
        <time>2025-05-07T13:28:54Z</time>
      </trkpt>
      <trkpt lat="37.17252803966403" lon="-7.614707993343473">
        <ele>38.590000000000003</ele>
        <time>2025-05-07T13:29:04Z</time>
      </trkpt>
      <trkpt lat="37.173463040962815" lon="-7.611975995823741">
        <ele>45.32</ele>
        <time>2025-05-07T13:29:12Z</time>
      </trkpt>
      <trkpt lat="37.173953969031572" lon="-7.609852021560073">
        <ele>50.609999999999999</ele>
        <time>2025-05-07T13:29:18Z</time>
      </trkpt>
      <trkpt lat="37.174530979245901" lon="-7.606234978884459">
        <ele>60.219999999999999</ele>
        <time>2025-05-07T13:29:28Z</time>
      </trkpt>
      <trkpt lat="37.175569999963045" lon="-7.603160999715328">
        <ele>66.950000000000003</ele>
        <time>2025-05-07T13:29:37Z</time>
      </trkpt>
      <trkpt lat="37.176695019006729" lon="-7.599725006148219">
        <ele>72.719999999999999</ele>
        <time>2025-05-07T13:29:47Z</time>
      </trkpt>
      <trkpt lat="37.177736973389983" lon="-7.597481003031135">
        <ele>73.680000000000007</ele>
        <time>2025-05-07T13:29:54Z</time>
      </trkpt>
      <trkpt lat="37.179042035713792" lon="-7.594573991373181">
        <ele>69.829999999999998</ele>
        <time>2025-05-07T13:30:03Z</time>
      </trkpt>
      <trkpt lat="37.179435985162854" lon="-7.592425039038062">
        <ele>66.469999999999999</ele>
        <time>2025-05-07T13:30:09Z</time>
      </trkpt>
      <trkpt lat="37.179441014304757" lon="-7.590222023427486">
        <ele>63.579999999999998</ele>
        <time>2025-05-07T13:30:15Z</time>
      </trkpt>
      <trkpt lat="37.179100960493088" lon="-7.586571034044027">
        <ele>63.100000000000001</ele>
        <time>2025-05-07T13:30:25Z</time>
      </trkpt>
      <trkpt lat="37.179002976045012" lon="-7.583255991339684">
        <ele>68.870000000000005</ele>
        <time>2025-05-07T13:30:34Z</time>
      </trkpt>
      <trkpt lat="37.179579986259341" lon="-7.580787017941475">
        <ele>74.640000000000001</ele>
        <time>2025-05-07T13:30:41Z</time>
      </trkpt>
      <trkpt lat="37.180493026971817" lon="-7.578881978988648">
        <ele>78.480000000000004</ele>
        <time>2025-05-07T13:30:47Z</time>
      </trkpt>
      <trkpt lat="37.18249998986721" lon="-7.576141012832522">
        <ele>86.659999999999997</ele>
        <time>2025-05-07T13:30:57Z</time>
      </trkpt>
      <trkpt lat="37.184158014133573" lon="-7.57353600114584">
        <ele>92.420000000000002</ele>
        <time>2025-05-07T13:31:06Z</time>
      </trkpt>
      <trkpt lat="37.184827979654074" lon="-7.571484027430415">
        <ele>94.829999999999998</ele>
        <time>2025-05-07T13:31:12Z</time>
      </trkpt>
      <trkpt lat="37.185241039842367" lon="-7.568195974454284">
        <ele>97.709999999999994</ele>
        <time>2025-05-07T13:31:21Z</time>
      </trkpt>
      <trkpt lat="37.185732973739505" lon="-7.563015958294272">
        <ele>91.459999999999994</ele>
        <time>2025-05-07T13:31:35Z</time>
      </trkpt>
      <trkpt lat="37.186247035861015" lon="-7.557871984317899">
        <ele>79.450000000000003</ele>
        <time>2025-05-07T13:31:49Z</time>
      </trkpt>
      <trkpt lat="37.186835026368499" lon="-7.554614022374153">
        <ele>74.159999999999997</ele>
        <time>2025-05-07T13:31:58Z</time>
      </trkpt>
      <trkpt lat="37.187852002680302" lon="-7.551527973264456">
        <ele>71.760000000000005</ele>
        <time>2025-05-07T13:32:07Z</time>
      </trkpt>
      <trkpt lat="37.189787970855832" lon="-7.546520037576556">
        <ele>75.120000000000005</ele>
        <time>2025-05-07T13:32:22Z</time>
      </trkpt>
      <trkpt lat="37.19137298874557" lon="-7.542936019599438">
        <ele>77.519999999999996</ele>
        <time>2025-05-07T13:32:33Z</time>
      </trkpt>
      <trkpt lat="37.193896025419235" lon="-7.537919031456113">
        <ele>74.640000000000001</ele>
        <time>2025-05-07T13:32:49Z</time>
      </trkpt>
      <trkpt lat="37.195376018062234" lon="-7.534703984856606">
        <ele>67.909999999999997</ele>
        <time>2025-05-07T13:32:59Z</time>
      </trkpt>
      <trkpt lat="37.196438005194068" lon="-7.531247958540916">
        <ele>63.100000000000001</ele>
        <time>2025-05-07T13:33:09Z</time>
      </trkpt>
      <trkpt lat="37.197761004790664" lon="-7.526321997866035">
        <ele>54.450000000000003</ele>
        <time>2025-05-07T13:33:23Z</time>
      </trkpt>
      <trkpt lat="37.198791978880763" lon="-7.522457018494606">
        <ele>48.200000000000003</ele>
        <time>2025-05-07T13:33:34Z</time>
      </trkpt>
      <trkpt lat="37.199768973514438" lon="-7.518186019733548">
        <ele>41.469999999999999</ele>
        <time>2025-05-07T13:33:46Z</time>
      </trkpt>
      <trkpt lat="37.200243975967169" lon="-7.514909030869603">
        <ele>37.630000000000003</ele>
        <time>2025-05-07T13:33:55Z</time>
      </trkpt>
      <trkpt lat="37.200787039473653" lon="-7.509398013353348">
        <ele>32.340000000000003</ele>
        <time>2025-05-07T13:34:10Z</time>
      </trkpt>
      <trkpt lat="37.200609007850289" lon="-7.506819991394877">
        <ele>31.859999999999999</ele>
        <time>2025-05-07T13:34:17Z</time>
      </trkpt>
      <trkpt lat="37.199904005974531" lon="-7.503999983891845">
        <ele>33.780000000000001</ele>
        <time>2025-05-07T13:34:25Z</time>
      </trkpt>
      <trkpt lat="37.199061037972569" lon="-7.500452008098364">
        <ele>29.460000000000001</ele>
        <time>2025-05-07T13:34:35Z</time>
      </trkpt>
      <trkpt lat="37.199121974408627" lon="-7.498236000537872">
        <ele>24.649999999999999</ele>
        <time>2025-05-07T13:34:41Z</time>
      </trkpt>
      <trkpt lat="37.199630001559854" lon="-7.496108002960682">
        <ele>20.32</ele>
        <time>2025-05-07T13:34:47Z</time>
      </trkpt>
      <trkpt lat="37.200637003406882" lon="-7.494265995919704">
        <ele>17.920000000000002</ele>
        <time>2025-05-07T13:34:53Z</time>
      </trkpt>
      <trkpt lat="37.201975006610155" lon="-7.492811987176538">
        <ele>18.879999999999999</ele>
        <time>2025-05-07T13:34:59Z</time>
      </trkpt>
      <trkpt lat="37.204579012468457" lon="-7.491005016490817">
        <ele>21.289999999999999</ele>
        <time>2025-05-07T13:35:09Z</time>
      </trkpt>
      <trkpt lat="37.208751020953059" lon="-7.488147038966417">
        <ele>25.609999999999999</ele>
        <time>2025-05-07T13:35:25Z</time>
      </trkpt>
      <trkpt lat="37.211218988522887" lon="-7.486076960340142">
        <ele>28.5</ele>
        <time>2025-05-07T13:35:35Z</time>
      </trkpt>
      <trkpt lat="37.214149972423911" lon="-7.483502961695194">
        <ele>27.530000000000001</ele>
        <time>2025-05-07T13:35:47Z</time>
      </trkpt>
      <trkpt lat="37.217061007395387" lon="-7.480945978313685">
        <ele>20.32</ele>
        <time>2025-05-07T13:35:59Z</time>
      </trkpt>
      <trkpt lat="37.221640963107347" lon="-7.47689601033926">
        <ele>14.08</ele>
        <time>2025-05-07T13:36:18Z</time>
      </trkpt>
      <trkpt lat="37.223938023671508" lon="-7.474559973925352">
        <ele>21.77</ele>
        <time>2025-05-07T13:36:28Z</time>
      </trkpt>
      <trkpt lat="37.226605983451009" lon="-7.471092967316508">
        <ele>35.710000000000001</ele>
        <time>2025-05-07T13:36:41Z</time>
      </trkpt>
      <trkpt lat="37.229077974334359" lon="-7.467413982376456">
        <ele>53.009999999999998</ele>
        <time>2025-05-07T13:36:54Z</time>
      </trkpt>
      <trkpt lat="37.229402018710971" lon="-7.466379990801215">
        <ele>55.890000000000001</ele>
        <time>2025-05-07T13:36:57Z</time>
      </trkpt>
      <trkpt lat="37.229460021480918" lon="-7.466020993888378">
        <ele>56.859999999999999</ele>
        <time>2025-05-07T13:36:58Z</time>
      </trkpt>
      <trkpt lat="37.229564962908626" lon="-7.463805992156267">
        <ele>59.740000000000002</ele>
        <time>2025-05-07T13:37:04Z</time>
      </trkpt>
      <trkpt lat="37.229519030079246" lon="-7.45970799587667">
        <ele>57.82</ele>
        <time>2025-05-07T13:37:15Z</time>
      </trkpt>
      <trkpt lat="37.22948600538075" lon="-7.453770004212856">
        <ele>49.159999999999997</ele>
        <time>2025-05-07T13:37:31Z</time>
      </trkpt>
      <trkpt lat="37.229821030050516" lon="-7.451204974204302">
        <ele>44.359999999999999</ele>
        <time>2025-05-07T13:37:38Z</time>
      </trkpt>
      <trkpt lat="37.230611024424434" lon="-7.448778999969363">
        <ele>35.710000000000001</ele>
        <time>2025-05-07T13:37:45Z</time>
      </trkpt>
      <trkpt lat="37.232011975720525" lon="-7.446386972442269">
        <ele>24.649999999999999</ele>
        <time>2025-05-07T13:37:53Z</time>
      </trkpt>
      <trkpt lat="37.233755998313427" lon="-7.444525016471744">
        <ele>13.119999999999999</ele>
        <time>2025-05-07T13:38:01Z</time>
      </trkpt>
      <trkpt lat="37.234784038737416" lon="-7.443187013268471">
        <ele>10.710000000000001</ele>
        <time>2025-05-07T13:38:07Z</time>
      </trkpt>
      <trkpt lat="37.235562968999147" lon="-7.44129697792232">
        <ele>14.08</ele>
        <time>2025-05-07T13:38:15Z</time>
      </trkpt>
      <trkpt lat="37.236122963950038" lon="-7.438805960118771">
        <ele>17.440000000000001</ele>
        <time>2025-05-07T13:38:24Z</time>
      </trkpt>
      <trkpt lat="37.236995017156005" lon="-7.43484903126955">
        <ele>20.809999999999999</ele>
        <time>2025-05-07T13:38:39Z</time>
      </trkpt>
      <trkpt lat="37.237548977136612" lon="-7.431245986372232">
        <ele>20.32</ele>
        <time>2025-05-07T13:38:52Z</time>
      </trkpt>
      <trkpt lat="37.237622989341617" lon="-7.428024988621473">
        <ele>18.879999999999999</ele>
        <time>2025-05-07T13:39:04Z</time>
      </trkpt>
      <trkpt lat="37.237602034583688" lon="-7.424156991764903">
        <ele>20.809999999999999</ele>
        <time>2025-05-07T13:39:18Z</time>
      </trkpt>
      <trkpt lat="37.237602034583688" lon="-7.42163797840476">
        <ele>28.98</ele>
        <time>2025-05-07T13:39:28Z</time>
      </trkpt>
      <trkpt lat="37.237602034583688" lon="-7.418825011700392">
        <ele>31.379999999999999</ele>
        <time>2025-05-07T13:39:39Z</time>
      </trkpt>
      <trkpt lat="37.237602034583688" lon="-7.416876973584294">
        <ele>28.98</ele>
        <time>2025-05-07T13:39:47Z</time>
      </trkpt>
      <trkpt lat="37.237634975463152" lon="-7.414644034579396">
        <ele>22.25</ele>
        <time>2025-05-07T13:39:56Z</time>
      </trkpt>
      <trkpt lat="37.238098997622728" lon="-7.412212025374174">
        <ele>16.48</ele>
        <time>2025-05-07T13:40:05Z</time>
      </trkpt>
      <trkpt lat="37.23868397064507" lon="-7.410075981169939">
        <ele>18.399999999999999</ele>
        <time>2025-05-07T13:40:12Z</time>
      </trkpt>
      <trkpt lat="37.238928973674774" lon="-7.407705998048186">
        <ele>21.77</ele>
        <time>2025-05-07T13:40:19Z</time>
      </trkpt>
      <trkpt lat="37.238797964528203" lon="-7.405197964981198">
        <ele>22.25</ele>
        <time>2025-05-07T13:40:26Z</time>
      </trkpt>
      <trkpt lat="37.238437039777637" lon="-7.400134038180113">
        <ele>19.84</ele>
        <time>2025-05-07T13:40:40Z</time>
      </trkpt>
      <trkpt lat="37.238480960950255" lon="-7.396415993571281">
        <ele>17.440000000000001</ele>
        <time>2025-05-07T13:40:50Z</time>
      </trkpt>
      <trkpt lat="37.238653963431716" lon="-7.391356006264687">
        <ele>15.52</ele>
        <time>2025-05-07T13:41:04Z</time>
      </trkpt>
      <trkpt lat="37.238798970356584" lon="-7.386918039992452">
        <ele>13.119999999999999</ele>
        <time>2025-05-07T13:41:16Z</time>
      </trkpt>
      <trkpt lat="37.238978007808328" lon="-7.381724026054144">
        <ele>12.15</ele>
        <time>2025-05-07T13:41:31Z</time>
      </trkpt>
      <trkpt lat="37.239170959219337" lon="-7.376923961564899">
        <ele>16.48</ele>
        <time>2025-05-07T13:41:43Z</time>
      </trkpt>
      <trkpt lat="37.239589970558882" lon="-7.371415039524436">
        <ele>31.379999999999999</ele>
        <time>2025-05-07T13:41:58Z</time>
      </trkpt>
      <trkpt lat="37.240317016839981" lon="-7.365934029221535">
        <ele>45.32</ele>
        <time>2025-05-07T13:42:13Z</time>
      </trkpt>
      <trkpt lat="37.241186974570155" lon="-7.361599998548627">
        <ele>46.759999999999998</ele>
        <time>2025-05-07T13:42:25Z</time>
      </trkpt>
      <trkpt lat="37.24250502884388" lon="-7.356324009597302">
        <ele>42.439999999999998</ele>
        <time>2025-05-07T13:42:40Z</time>
      </trkpt>
      <trkpt lat="37.2440529987216" lon="-7.35150701366365">
        <ele>53.009999999999998</ele>
        <time>2025-05-07T13:42:54Z</time>
      </trkpt>
      <trkpt lat="37.24547297693789" lon="-7.347827022895217">
        <ele>56.859999999999999</ele>
        <time>2025-05-07T13:43:05Z</time>
      </trkpt>
      <trkpt lat="37.247348008677363" lon="-7.343614026904106">
        <ele>57.82</ele>
        <time>2025-05-07T13:43:18Z</time>
      </trkpt>
      <trkpt lat="37.248898996040225" lon="-7.340442985296249">
        <ele>54.93</ele>
        <time>2025-05-07T13:43:35Z</time>
      </trkpt>
      <trkpt lat="37.253037979826331" lon="-7.33273196965456">
        <ele>50.130000000000003</ele>
        <time>2025-05-07T13:43:53Z</time>
      </trkpt>
      <trkpt lat="37.25546495988965" lon="-7.328101973980665">
        <ele>46.759999999999998</ele>
        <time>2025-05-07T13:44:08Z</time>
      </trkpt>
      <trkpt lat="37.256997004151344" lon="-7.324513010680676">
        <ele>49.649999999999999</ele>
        <time>2025-05-07T13:44:19Z</time>
      </trkpt>
      <trkpt lat="37.258281027898192" lon="-7.320374026894569">
        <ele>53.969999999999999</ele>
        <time>2025-05-07T13:44:31Z</time>
      </trkpt>
      <trkpt lat="37.259111003950238" lon="-7.316421959549189">
        <ele>55.409999999999997</ele>
        <time>2025-05-07T13:44:42Z</time>
      </trkpt>
      <trkpt lat="37.259573014453053" lon="-7.312374003231525">
        <ele>49.159999999999997</ele>
        <time>2025-05-07T13:44:53Z</time>
      </trkpt>
      <trkpt lat="37.259809970855713" lon="-7.309060972183943">
        <ele>51.57</ele>
        <time>2025-05-07T13:45:02Z</time>
      </trkpt>
      <trkpt lat="37.260206015780568" lon="-7.3038549721241">
        <ele>57.82</ele>
        <time>2025-05-07T13:45:16Z</time>
      </trkpt>
      <trkpt lat="37.260883022099733" lon="-7.298733964562416">
        <ele>63.100000000000001</ele>
        <time>2025-05-07T13:45:30Z</time>
      </trkpt>
      <trkpt lat="37.261778963729739" lon="-7.294054012745619">
        <ele>57.340000000000003</ele>
        <time>2025-05-07T13:45:43Z</time>
      </trkpt>
      <trkpt lat="37.263374039903283" lon="-7.287682006135583">
        <ele>46.759999999999998</ele>
        <time>2025-05-07T13:46:01Z</time>
      </trkpt>
      <trkpt lat="37.264869958162308" lon="-7.282049031928182">
        <ele>37.630000000000003</ele>
        <time>2025-05-07T13:46:17Z</time>
      </trkpt>
      <trkpt lat="37.266000006347895" lon="-7.277445020154119">
        <ele>38.590000000000003</ele>
        <time>2025-05-07T13:46:30Z</time>
      </trkpt>
      <trkpt lat="37.266790000721812" lon="-7.273855973035097">
        <ele>46.759999999999998</ele>
        <time>2025-05-07T13:46:40Z</time>
      </trkpt>
      <trkpt lat="37.267611008137465" lon="-7.269127992913127">
        <ele>45.799999999999997</ele>
        <time>2025-05-07T13:46:53Z</time>
      </trkpt>
      <trkpt lat="37.268510973080993" lon="-7.263283962383866">
        <ele>42.439999999999998</ele>
        <time>2025-05-07T13:47:09Z</time>
      </trkpt>
      <trkpt lat="37.26947003044188" lon="-7.259776974096894">
        <ele>43.399999999999999</ele>
        <time>2025-05-07T13:47:19Z</time>
      </trkpt>
      <trkpt lat="37.270862013101578" lon="-7.256518006324768">
        <ele>44.359999999999999</ele>
        <time>2025-05-07T13:47:29Z</time>
      </trkpt>
      <trkpt lat="37.271897010505199" lon="-7.254697037860751">
        <ele>52.530000000000001</ele>
        <time>2025-05-07T13:47:42Z</time>
      </trkpt>
      <trkpt lat="37.273282958194613" lon="-7.252760985866189">
        <ele>53.009999999999998</ele>
        <time>2025-05-07T13:47:49Z</time>
      </trkpt>
      <trkpt lat="37.277658982202411" lon="-7.248287983238697">
        <ele>55.890000000000001</ele>
        <time>2025-05-07T13:48:01Z</time>
      </trkpt>
      <trkpt lat="37.280252007767558" lon="-7.245244011282921">
        <ele>53.009999999999998</ele>
        <time>2025-05-07T13:48:13Z</time>
      </trkpt>
      <trkpt lat="37.282238015905023" lon="-7.242313027381897">
        <ele>48.200000000000003</ele>
        <time>2025-05-07T13:48:23Z</time>
      </trkpt>
      <trkpt lat="37.283533019945025" lon="-7.240367000922561">
        <ele>45.32</ele>
        <time>2025-05-07T13:48:29Z</time>
      </trkpt>
      <trkpt lat="37.284523006528616" lon="-7.239004019647837">
        <ele>41.950000000000003</ele>
        <time>2025-05-07T13:48:41Z</time>
      </trkpt>
      <trkpt lat="37.288661990314722" lon="-7.234200015664101">
        <ele>48.200000000000003</ele>
        <time>2025-05-07T13:49:00Z</time>
      </trkpt>
      <trkpt lat="37.292356984689832" lon="-7.228867029771209">
        <ele>47.719999999999999</ele>
        <time>2025-05-07T13:49:12Z</time>
      </trkpt>
      <trkpt lat="37.294033030048013" lon="-7.225363980978727">
        <ele>44.840000000000003</ele>
        <time>2025-05-07T13:49:23Z</time>
      </trkpt>
      <trkpt lat="37.295541018247604" lon="-7.221760014072061">
        <ele>42.439999999999998</ele>
        <time>2025-05-07T13:49:41Z</time>
      </trkpt>
      <trkpt lat="37.296660002321005" lon="-7.219579964876175">
        <ele>42.920000000000002</ele>
        <time>2025-05-07T13:49:48Z</time>
      </trkpt>
      <trkpt lat="37.297949977219105" lon="-7.217533020302653">
        <ele>44.840000000000003</ele>
        <time>2025-05-07T13:49:55Z</time>
      </trkpt>
      <trkpt lat="37.301348000764847" lon="-7.212912999093533">
        <ele>48.68</ele>
        <time>2025-05-07T13:50:05Z</time>
      </trkpt>
      <trkpt lat="37.3030099645257" lon="-7.209832984954119">
        <ele>50.130000000000003</ele>
        <time>2025-05-07T13:50:15Z</time>
      </trkpt>
      <trkpt lat="37.304841997101903" lon="-7.205583024770021">
        <ele>46.280000000000001</ele>
        <time>2025-05-07T13:50:28Z</time>
      </trkpt>
      <trkpt lat="37.30659699998796" lon="-7.202584985643625">
        <ele>41.950000000000003</ele>
        <time>2025-05-07T13:50:38Z</time>
      </trkpt>
      <trkpt lat="37.308838991448283" lon="-7.199595998972654">
        <ele>30.420000000000002</ele>
        <time>2025-05-07T13:50:49Z</time>
      </trkpt>
      <trkpt lat="37.310727015137672" lon="-7.196749001741409">
        <ele>24.170000000000002</ele>
        <time>2025-05-07T13:50:59Z</time>
      </trkpt>
      <trkpt lat="37.31259198859334" lon="-7.192978989332914">
        <ele>28.98</ele>
        <time>2025-05-07T13:51:11Z</time>
      </trkpt>
      <trkpt lat="37.314495015889406" lon="-7.189664030447602">
        <ele>40.030000000000001</ele>
        <time>2025-05-07T13:51:22Z</time>
      </trkpt>
      <trkpt lat="37.317110002040863" lon="-7.186104990541935">
        <ele>49.649999999999999</ele>
        <time>2025-05-07T13:51:35Z</time>
      </trkpt>
      <trkpt lat="37.318746987730265" lon="-7.183456979691982">
        <ele>51.090000000000003</ele>
        <time>2025-05-07T13:51:44Z</time>
      </trkpt>
      <trkpt lat="37.320942962542176" lon="-7.179480018094182">
        <ele>49.159999999999997</ele>
        <time>2025-05-07T13:51:57Z</time>
      </trkpt>
      <trkpt lat="37.322809025645256" lon="-7.177085978910327">
        <ele>45.32</ele>
        <time>2025-05-07T13:52:06Z</time>
      </trkpt>
      <trkpt lat="37.325182026252151" lon="-7.174866031855345">
        <ele>42.439999999999998</ele>
        <time>2025-05-07T13:52:16Z</time>
      </trkpt>
      <trkpt lat="37.327215978875756" lon="-7.17273099347949">
        <ele>41.469999999999999</ele>
        <time>2025-05-07T13:52:25Z</time>
      </trkpt>
      <trkpt lat="37.328607961535454" lon="-7.170343995094299">
        <ele>42.439999999999998</ele>
        <time>2025-05-07T13:52:33Z</time>
      </trkpt>
      <trkpt lat="37.329513039439917" lon="-7.167604034766555">
        <ele>43.880000000000003</ele>
        <time>2025-05-07T13:52:41Z</time>
      </trkpt>
      <trkpt lat="37.330676028504968" lon="-7.163800997659564">
        <ele>47.719999999999999</ele>
        <time>2025-05-07T13:52:52Z</time>
      </trkpt>
      <trkpt lat="37.332004979252815" lon="-7.160879988223314">
        <ele>52.049999999999997</ele>
        <time>2025-05-07T13:53:01Z</time>
      </trkpt>
      <trkpt lat="37.332950038835406" lon="-7.158166011795402">
        <ele>53.490000000000002</ele>
        <time>2025-05-07T13:53:09Z</time>
      </trkpt>
      <trkpt lat="37.33330300077796" lon="-7.155621014535427">
        <ele>54.93</ele>
        <time>2025-05-07T13:53:16Z</time>
      </trkpt>
      <trkpt lat="37.333161011338234" lon="-7.153020026162267">
        <ele>57.340000000000003</ele>
        <time>2025-05-07T13:53:23Z</time>
      </trkpt>
      <trkpt lat="37.332547958940268" lon="-7.150539988651872">
        <ele>56.369999999999997</ele>
        <time>2025-05-07T13:53:30Z</time>
      </trkpt>
      <trkpt lat="37.331400979310274" lon="-7.147940006107092">
        <ele>54.450000000000003</ele>
        <time>2025-05-07T13:53:38Z</time>
      </trkpt>
      <trkpt lat="37.330406969413161" lon="-7.145246984437108">
        <ele>53.969999999999999</ele>
        <time>2025-05-07T13:53:46Z</time>
      </trkpt>
      <trkpt lat="37.329340036958456" lon="-7.141385022550821">
        <ele>53.009999999999998</ele>
        <time>2025-05-07T13:53:57Z</time>
      </trkpt>
      <trkpt lat="37.328139999881387" lon="-7.138394024223089">
        <ele>53.969999999999999</ele>
        <time>2025-05-07T13:54:06Z</time>
      </trkpt>
      <trkpt lat="37.326444005593657" lon="-7.134088994935155">
        <ele>59.740000000000002</ele>
        <time>2025-05-07T13:54:19Z</time>
      </trkpt>
      <trkpt lat="37.325530964881182" lon="-7.13055401109159">
        <ele>62.619999999999997</ele>
        <time>2025-05-07T13:54:29Z</time>
      </trkpt>
      <trkpt lat="37.324940040707588" lon="-7.126532038673759">
        <ele>63.100000000000001</ele>
        <time>2025-05-07T13:54:40Z</time>
      </trkpt>
      <trkpt lat="37.324549024924636" lon="-7.121743960306048">
        <ele>60.700000000000003</ele>
        <time>2025-05-07T13:54:53Z</time>
      </trkpt>
      <trkpt lat="37.324264962226152" lon="-7.119850991293788">
        <ele>59.740000000000002</ele>
        <time>2025-05-07T13:54:59Z</time>
      </trkpt>
      <trkpt lat="37.323889033868909" lon="-7.118159020319581">
        <ele>59.259999999999998</ele>
        <time>2025-05-07T13:55:06Z</time>
      </trkpt>
      <trkpt lat="37.323845028877258" lon="-7.11798501200974">
        <ele>58.780000000000001</ele>
        <time>2025-05-07T13:55:08Z</time>
      </trkpt>
      <trkpt lat="37.32348301447928" lon="-7.117311023175716">
        <ele>59.740000000000002</ele>
        <time>2025-05-07T13:55:12Z</time>
      </trkpt>
      <trkpt lat="37.323411013931036" lon="-7.117187976837158">
        <ele>59.740000000000002</ele>
        <time>2025-05-07T13:55:13Z</time>
      </trkpt>
      <trkpt lat="37.323332978412509" lon="-7.117151012644172">
        <ele>59.740000000000002</ele>
        <time>2025-05-07T13:55:14Z</time>
      </trkpt>
      <trkpt lat="37.323191994801164" lon="-7.117083035409451">
        <ele>60.219999999999999</ele>
        <time>2025-05-07T13:55:16Z</time>
      </trkpt>
      <trkpt lat="37.323134997859597" lon="-7.117055961862207">
        <ele>60.700000000000003</ele>
        <time>2025-05-07T13:55:17Z</time>
      </trkpt>
      <trkpt lat="37.323035001754761" lon="-7.117007011547685">
        <ele>61.18</ele>
        <time>2025-05-07T13:55:19Z</time>
      </trkpt>
      <trkpt lat="37.322992002591491" lon="-7.116985972970724">
        <ele>61.18</ele>
        <time>2025-05-07T13:55:20Z</time>
      </trkpt>
      <trkpt lat="37.32279796153307" lon="-7.116876002401114">
        <ele>62.619999999999997</ele>
        <time>2025-05-07T13:55:25Z</time>
      </trkpt>
      <trkpt lat="37.322784969583154" lon="-7.116863010451198">
        <ele>63.100000000000001</ele>
        <time>2025-05-07T13:55:26Z</time>
      </trkpt>
      <trkpt lat="37.322770971804857" lon="-7.116849012672901">
        <ele>63.100000000000001</ele>
        <time>2025-05-07T13:55:27Z</time>
      </trkpt>
      <trkpt lat="37.32275596819818" lon="-7.116833003237844">
        <ele>63.100000000000001</ele>
        <time>2025-05-07T13:55:28Z</time>
      </trkpt>
      <trkpt lat="37.322738030925393" lon="-7.116814982146025">
        <ele>63.100000000000001</ele>
        <time>2025-05-07T13:55:29Z</time>
      </trkpt>
      <trkpt lat="37.322616996243596" lon="-7.11669503711164">
        <ele>63.100000000000001</ele>
        <time>2025-05-07T13:55:30Z</time>
      </trkpt>
      <trkpt lat="37.322616996243596" lon="-7.11669503711164">
        <ele>63.100000000000001</ele>
        <time>2025-05-07T13:55:43Z</time>
      </trkpt>
      <trkpt lat="37.322616996243596" lon="-7.11669503711164">
        <ele>62.619999999999997</ele>
        <time>2025-05-07T13:56:38Z</time>
      </trkpt>
      <trkpt lat="37.322859987616539" lon="-7.116105034947395">
        <ele>65.030000000000001</ele>
        <time>2025-05-07T14:03:03Z</time>
      </trkpt>
      <trkpt lat="37.322828974574804" lon="-7.116171000525355">
        <ele>64.549999999999997</ele>
        <time>2025-05-07T14:03:13Z</time>
      </trkpt>
      <trkpt lat="37.323093004524708" lon="-7.11603001691401">
        <ele>64.069999999999993</ele>
        <time>2025-05-07T14:03:16Z</time>
      </trkpt>
      <trkpt lat="37.322806008160114" lon="-7.116046026349068">
        <ele>63.579999999999998</ele>
        <time>2025-05-07T14:03:17Z</time>
      </trkpt>
      <trkpt lat="37.322917990386486" lon="-7.11588098667562">
        <ele>64.069999999999993</ele>
        <time>2025-05-07T14:03:22Z</time>
      </trkpt>
      <trkpt lat="37.323032990098" lon="-7.11579498834908">
        <ele>65.030000000000001</ele>
        <time>2025-05-07T14:03:24Z</time>
      </trkpt>
      <trkpt lat="37.323021003976464" lon="-7.115746960043907">
        <ele>65.030000000000001</ele>
        <time>2025-05-07T14:03:25Z</time>
      </trkpt>
      <trkpt lat="37.323003988713026" lon="-7.115682000294328">
        <ele>65.030000000000001</ele>
        <time>2025-05-07T14:03:26Z</time>
      </trkpt>
      <trkpt lat="37.322984961792827" lon="-7.115607988089323">
        <ele>65.510000000000005</ele>
        <time>2025-05-07T14:03:27Z</time>
      </trkpt>
      <trkpt lat="37.322965012863278" lon="-7.115527018904686">
        <ele>65.510000000000005</ele>
        <time>2025-05-07T14:03:28Z</time>
      </trkpt>
      <trkpt lat="37.322941962629557" lon="-7.115436997264624">
        <ele>65.510000000000005</ele>
        <time>2025-05-07T14:03:29Z</time>
      </trkpt>
      <trkpt lat="37.322702994570136" lon="-7.114499984309077">
        <ele>69.349999999999994</ele>
        <time>2025-05-07T14:03:39Z</time>
      </trkpt>
      <trkpt lat="37.322679022327065" lon="-7.114407029002905">
        <ele>69.829999999999998</ele>
        <time>2025-05-07T14:03:40Z</time>
      </trkpt>
      <trkpt lat="37.322657983750105" lon="-7.114324970170856">
        <ele>70.790000000000006</ele>
        <time>2025-05-07T14:03:41Z</time>
      </trkpt>
      <trkpt lat="37.322636023163795" lon="-7.114236038178206">
        <ele>71.269999999999996</ele>
        <time>2025-05-07T14:03:42Z</time>
      </trkpt>
      <trkpt lat="37.322610039263964" lon="-7.114121960476041">
        <ele>71.760000000000005</ele>
        <time>2025-05-07T14:03:43Z</time>
      </trkpt>
      <trkpt lat="37.3226029984653" lon="-7.11330003105104">
        <ele>73.680000000000007</ele>
        <time>2025-05-07T14:03:48Z</time>
      </trkpt>
      <trkpt lat="37.322611967101693" lon="-7.113110013306141">
        <ele>73.680000000000007</ele>
        <time>2025-05-07T14:03:49Z</time>
      </trkpt>
      <trkpt lat="37.322372999042273" lon="-7.111226012930274">
        <ele>77.519999999999996</ele>
        <time>2025-05-07T14:03:57Z</time>
      </trkpt>
      <trkpt lat="37.322161020711064" lon="-7.107971990481019">
        <ele>83.769999999999996</ele>
        <time>2025-05-07T14:04:08Z</time>
      </trkpt>
      <trkpt lat="37.322276020422578" lon="-7.105002030730248">
        <ele>88.099999999999994</ele>
        <time>2025-05-07T14:04:16Z</time>
      </trkpt>
      <trkpt lat="37.322656977921724" lon="-7.10131399333477">
        <ele>87.620000000000005</ele>
        <time>2025-05-07T14:04:26Z</time>
      </trkpt>
      <trkpt lat="37.322802990674973" lon="-7.096855994313955">
        <ele>84.730000000000004</ele>
        <time>2025-05-07T14:04:38Z</time>
      </trkpt>
      <trkpt lat="37.322529992088675" lon="-7.09203103557229">
        <ele>78</ele>
        <time>2025-05-07T14:04:51Z</time>
      </trkpt>
      <trkpt lat="37.322420021519065" lon="-7.087217979133129">
        <ele>71.269999999999996</ele>
        <time>2025-05-07T14:05:04Z</time>
      </trkpt>
      <trkpt lat="37.32275303453207" lon="-7.083173962309957">
        <ele>68.870000000000005</ele>
        <time>2025-05-07T14:05:15Z</time>
      </trkpt>
      <trkpt lat="37.323259972035885" lon="-7.078005010262132">
        <ele>66.469999999999999</ele>
        <time>2025-05-07T14:05:29Z</time>
      </trkpt>
      <trkpt lat="37.323238011449575" lon="-7.0743059925735">
        <ele>65.030000000000001</ele>
        <time>2025-05-07T14:05:39Z</time>
      </trkpt>
      <trkpt lat="37.323089987039566" lon="-7.068717023357749">
        <ele>59.259999999999998</ele>
        <time>2025-05-07T14:05:54Z</time>
      </trkpt>
      <trkpt lat="37.323332978412509" lon="-7.064299006015062">
        <ele>50.609999999999999</ele>
        <time>2025-05-07T14:06:06Z</time>
      </trkpt>
      <trkpt lat="37.324116015806794" lon="-7.059574965387583">
        <ele>46.759999999999998</ele>
        <time>2025-05-07T14:06:19Z</time>
      </trkpt>
      <trkpt lat="37.325182026252151" lon="-7.055708980187774">
        <ele>48.200000000000003</ele>
        <time>2025-05-07T14:06:30Z</time>
      </trkpt>
      <trkpt lat="37.326367981731892" lon="-7.052312968298793">
        <ele>50.609999999999999</ele>
        <time>2025-05-07T14:06:40Z</time>
      </trkpt>
      <trkpt lat="37.328708963468671" lon="-7.046314040198922">
        <ele>50.609999999999999</ele>
        <time>2025-05-07T14:06:58Z</time>
      </trkpt>
      <trkpt lat="37.330371011048555" lon="-7.041951008141041">
        <ele>46.280000000000001</ele>
        <time>2025-05-07T14:07:11Z</time>
      </trkpt>
      <trkpt lat="37.332119978964329" lon="-7.036812985315919">
        <ele>44.359999999999999</ele>
        <time>2025-05-07T14:07:26Z</time>
      </trkpt>
      <trkpt lat="37.333428980782628" lon="-7.032273011282086">
        <ele>40.990000000000002</ele>
        <time>2025-05-07T14:07:39Z</time>
      </trkpt>
      <trkpt lat="37.334598004817963" lon="-7.027265997603536">
        <ele>37.149999999999999</ele>
        <time>2025-05-07T14:07:53Z</time>
      </trkpt>
      <trkpt lat="37.335484977811575" lon="-7.022959962487221">
        <ele>35.229999999999997</ele>
        <time>2025-05-07T14:08:05Z</time>
      </trkpt>
      <trkpt lat="37.336306991055608" lon="-7.018998004496098">
        <ele>30.420000000000002</ele>
        <time>2025-05-07T14:08:16Z</time>
      </trkpt>
      <trkpt lat="37.337692016735673" lon="-7.013697037473321">
        <ele>28.5</ele>
        <time>2025-05-07T14:08:31Z</time>
      </trkpt>
      <trkpt lat="37.339135967195034" lon="-7.009622007608414">
        <ele>28.5</ele>
        <time>2025-05-07T14:08:43Z</time>
      </trkpt>
      <trkpt lat="37.341073025017977" lon="-7.005453016608954">
        <ele>31.859999999999999</ele>
        <time>2025-05-07T14:08:56Z</time>
      </trkpt>
      <trkpt lat="37.342954007908702" lon="-7.002093968912959">
        <ele>35.229999999999997</ele>
        <time>2025-05-07T14:09:07Z</time>
      </trkpt>
      <trkpt lat="37.345059961080551" lon="-6.998483967036009">
        <ele>28.98</ele>
        <time>2025-05-07T14:09:19Z</time>
      </trkpt>
      <trkpt lat="37.346999030560255" lon="-6.994863990694284">
        <ele>17.440000000000001</ele>
        <time>2025-05-07T14:09:31Z</time>
      </trkpt>
      <trkpt lat="37.34821499325335" lon="-6.991956979036331">
        <ele>16.960000000000001</ele>
        <time>2025-05-07T14:09:42Z</time>
      </trkpt>
      <trkpt lat="37.348884958773851" lon="-6.990120001137257">
        <ele>15.52</ele>
        <time>2025-05-07T14:09:50Z</time>
      </trkpt>
      <trkpt lat="37.349702026695013" lon="-6.987640969455242">
        <ele>15.52</ele>
        <time>2025-05-07T14:10:02Z</time>
      </trkpt>
      <trkpt lat="37.350573996081948" lon="-6.984919030219317">
        <ele>15.039999999999999</ele>
        <time>2025-05-07T14:10:15Z</time>
      </trkpt>
      <trkpt lat="37.351172966882586" lon="-6.982980966567993">
        <ele>16.960000000000001</ele>
        <time>2025-05-07T14:10:22Z</time>
      </trkpt>
      <trkpt lat="37.35201601870358" lon="-6.980253998190165">
        <ele>15.52</ele>
        <time>2025-05-07T14:10:30Z</time>
      </trkpt>
      <trkpt lat="37.353408001363277" lon="-6.975748976692557">
        <ele>14.08</ele>
        <time>2025-05-07T14:10:43Z</time>
      </trkpt>
      <trkpt lat="37.354320036247373" lon="-6.97223000228405">
        <ele>11.67</ele>
        <time>2025-05-07T14:10:53Z</time>
      </trkpt>
      <trkpt lat="37.355317985638976" lon="-6.967573016881943">
        <ele>12.15</ele>
        <time>2025-05-07T14:11:06Z</time>
      </trkpt>
      <trkpt lat="37.355979988351464" lon="-6.962817963212729">
        <ele>16.960000000000001</ele>
        <time>2025-05-07T14:11:19Z</time>
      </trkpt>
      <trkpt lat="37.356460019946098" lon="-6.957640964537859">
        <ele>24.170000000000002</ele>
        <time>2025-05-07T14:11:33Z</time>
      </trkpt>
      <trkpt lat="37.356588011607528" lon="-6.952427001670003">
        <ele>28.5</ele>
        <time>2025-05-07T14:11:47Z</time>
      </trkpt>
      <trkpt lat="37.356483992189169" lon="-6.948719015344977">
        <ele>27.530000000000001</ele>
        <time>2025-05-07T14:11:57Z</time>
      </trkpt>
      <trkpt lat="37.356190038844943" lon="-6.945025026798248">
        <ele>26.09</ele>
        <time>2025-05-07T14:12:07Z</time>
      </trkpt>
      <trkpt lat="37.355643035843968" lon="-6.941777039319277">
        <ele>24.170000000000002</ele>
        <time>2025-05-07T14:12:16Z</time>
      </trkpt>
      <trkpt lat="37.354614995419979" lon="-6.937890015542507">
        <ele>21.77</ele>
        <time>2025-05-07T14:12:27Z</time>
      </trkpt>
      <trkpt lat="37.353147994726896" lon="-6.934235002845526">
        <ele>20.809999999999999</ele>
        <time>2025-05-07T14:12:38Z</time>
      </trkpt>
      <trkpt lat="37.351118987426162" lon="-6.93059197627008">
        <ele>21.289999999999999</ele>
        <time>2025-05-07T14:12:50Z</time>
      </trkpt>
      <trkpt lat="37.34911696985364" lon="-6.927858972921968">
        <ele>21.289999999999999</ele>
        <time>2025-05-07T14:13:00Z</time>
      </trkpt>
      <trkpt lat="37.346620000898838" lon="-6.925247004255652">
        <ele>21.77</ele>
        <time>2025-05-07T14:13:11Z</time>
      </trkpt>
      <trkpt lat="37.343584997579455" lon="-6.922922031953931">
        <ele>26.09</ele>
        <time>2025-05-07T14:13:23Z</time>
      </trkpt>
      <trkpt lat="37.340418985113502" lon="-6.92092495970428">
        <ele>32.340000000000003</ele>
        <time>2025-05-07T14:13:35Z</time>
      </trkpt>
      <trkpt lat="37.336909985169768" lon="-6.918973987922072">
        <ele>33.780000000000001</ele>
        <time>2025-05-07T14:13:48Z</time>
      </trkpt>
      <trkpt lat="37.333093034103513" lon="-6.916854958981276">
        <ele>27.050000000000001</ele>
        <time>2025-05-07T14:14:02Z</time>
      </trkpt>
      <trkpt lat="37.330005979165435" lon="-6.914879009127617">
        <ele>22.73</ele>
        <time>2025-05-07T14:14:14Z</time>
      </trkpt>
      <trkpt lat="37.327862977981567" lon="-6.913317963480949">
        <ele>19.84</ele>
        <time>2025-05-07T14:14:24Z</time>
      </trkpt>
      <trkpt lat="37.32589197345078" lon="-6.911702016368508">
        <ele>18.879999999999999</ele>
        <time>2025-05-07T14:14:32Z</time>
      </trkpt>
      <trkpt lat="37.322845989838243" lon="-6.908758040517569">
        <ele>16.48</ele>
        <time>2025-05-07T14:14:45Z</time>
      </trkpt>
      <trkpt lat="37.32066803611815" lon="-6.906274985522032">
        <ele>16</ele>
        <time>2025-05-07T14:14:55Z</time>
      </trkpt>
      <trkpt lat="37.31807098723948" lon="-6.902776965871453">
        <ele>14.56</ele>
        <time>2025-05-07T14:15:08Z</time>
      </trkpt>
      <trkpt lat="37.316213976591825" lon="-6.899435017257929">
        <ele>15.039999999999999</ele>
        <time>2025-05-07T14:15:19Z</time>
      </trkpt>
      <trkpt lat="37.314741024747491" lon="-6.895820992067456">
        <ele>15.039999999999999</ele>
        <time>2025-05-07T14:15:30Z</time>
      </trkpt>
      <trkpt lat="37.313596978783607" lon="-6.891627022996545">
        <ele>16.48</ele>
        <time>2025-05-07T14:15:42Z</time>
      </trkpt>
      <trkpt lat="37.313147038221359" lon="-6.888748006895185">
        <ele>16</ele>
        <time>2025-05-07T14:15:50Z</time>
      </trkpt>
      <trkpt lat="37.312658959999681" lon="-6.884004017338157">
        <ele>18.879999999999999</ele>
        <time>2025-05-07T14:16:03Z</time>
      </trkpt>
      <trkpt lat="37.312000980600715" lon="-6.880417987704277">
        <ele>22.73</ele>
        <time>2025-05-07T14:16:13Z</time>
      </trkpt>
      <trkpt lat="37.311808029189706" lon="-6.877851029857993">
        <ele>25.609999999999999</ele>
        <time>2025-05-07T14:16:20Z</time>
      </trkpt>
      <trkpt lat="37.3120759986341" lon="-6.875771982595325">
        <ele>25.609999999999999</ele>
        <time>2025-05-07T14:16:26Z</time>
      </trkpt>
      <trkpt lat="37.312934976071119" lon="-6.873413985595107">
        <ele>22.73</ele>
        <time>2025-05-07T14:16:33Z</time>
      </trkpt>
      <trkpt lat="37.314205002039671" lon="-6.870934031903744">
        <ele>19.359999999999999</ele>
        <time>2025-05-07T14:16:41Z</time>
      </trkpt>
      <trkpt lat="37.315002959221601" lon="-6.86856203712523">
        <ele>17.920000000000002</ele>
        <time>2025-05-07T14:16:48Z</time>
      </trkpt>
      <trkpt lat="37.315666973590851" lon="-6.865562992170453">
        <ele>16.48</ele>
        <time>2025-05-07T14:16:57Z</time>
      </trkpt>
      <trkpt lat="37.31645897962153" lon="-6.862224983051419">
        <ele>16.960000000000001</ele>
        <time>2025-05-07T14:17:07Z</time>
      </trkpt>
      <trkpt lat="37.317433040589094" lon="-6.858837017789483">
        <ele>16.48</ele>
        <time>2025-05-07T14:17:17Z</time>
      </trkpt>
      <trkpt lat="37.319111013785005" lon="-6.854118006303906">
        <ele>17.440000000000001</ele>
        <time>2025-05-07T14:17:31Z</time>
      </trkpt>
      <trkpt lat="37.320659989491105" lon="-6.850566007196903">
        <ele>16.960000000000001</ele>
        <time>2025-05-07T14:17:42Z</time>
      </trkpt>
      <trkpt lat="37.322175018489361" lon="-6.847021970897913">
        <ele>13.6</ele>
        <time>2025-05-07T14:17:53Z</time>
      </trkpt>
      <trkpt lat="37.323257038369775" lon="-6.843615984544158">
        <ele>11.67</ele>
        <time>2025-05-07T14:18:03Z</time>
      </trkpt>
      <trkpt lat="37.323961034417152" lon="-6.840024003759027">
        <ele>12.15</ele>
        <time>2025-05-07T14:18:13Z</time>
      </trkpt>
      <trkpt lat="37.32483996078372" lon="-6.834972985088825">
        <ele>16.960000000000001</ele>
        <time>2025-05-07T14:18:27Z</time>
      </trkpt>
      <trkpt lat="37.325945030897856" lon="-6.831171037629247">
        <ele>18.879999999999999</ele>
        <time>2025-05-07T14:18:38Z</time>
      </trkpt>
      <trkpt lat="37.32771503739059" lon="-6.825706036761403">
        <ele>17.920000000000002</ele>
        <time>2025-05-07T14:18:54Z</time>
      </trkpt>
      <trkpt lat="37.328944997861981" lon="-6.820779992267489">
        <ele>18.879999999999999</ele>
        <time>2025-05-07T14:19:08Z</time>
      </trkpt>
      <trkpt lat="37.329916963353753" lon="-6.815013997256756">
        <ele>18.399999999999999</ele>
        <time>2025-05-07T14:19:24Z</time>
      </trkpt>
      <trkpt lat="37.330809971317649" lon="-6.809983011335135">
        <ele>20.32</ele>
        <time>2025-05-07T14:19:38Z</time>
      </trkpt>
      <trkpt lat="37.332084020599723" lon="-6.803545039147139">
        <ele>22.25</ele>
        <time>2025-05-07T14:19:56Z</time>
      </trkpt>
      <trkpt lat="37.332686008885503" lon="-6.798811024054885">
        <ele>24.170000000000002</ele>
        <time>2025-05-07T14:20:09Z</time>
      </trkpt>
      <trkpt lat="37.333051040768623" lon="-6.793668977916241">
        <ele>29.940000000000001</ele>
        <time>2025-05-07T14:20:23Z</time>
      </trkpt>
      <trkpt lat="37.333419006317854" lon="-6.789265964180231">
        <ele>30.420000000000002</ele>
        <time>2025-05-07T14:20:35Z</time>
      </trkpt>
      <trkpt lat="37.333914963528514" lon="-6.785251032561064">
        <ele>28.98</ele>
        <time>2025-05-07T14:20:46Z</time>
      </trkpt>
      <trkpt lat="37.334324000403285" lon="-6.781235011294484">
        <ele>29.460000000000001</ele>
        <time>2025-05-07T14:20:57Z</time>
      </trkpt>
      <trkpt lat="37.334483005106449" lon="-6.776451962068677">
        <ele>29.460000000000001</ele>
        <time>2025-05-07T14:21:10Z</time>
      </trkpt>
      <trkpt lat="37.334489040076733" lon="-6.771248979493976">
        <ele>27.530000000000001</ele>
        <time>2025-05-07T14:21:24Z</time>
      </trkpt>
      <trkpt lat="37.334715016186237" lon="-6.767162969335914">
        <ele>29.460000000000001</ele>
        <time>2025-05-07T14:21:35Z</time>
      </trkpt>
      <trkpt lat="37.335003018379211" lon="-6.764975041151047">
        <ele>26.09</ele>
        <time>2025-05-07T14:21:41Z</time>
      </trkpt>
      <trkpt lat="37.335798963904381" lon="-6.761038983240724">
        <ele>23.690000000000001</ele>
        <time>2025-05-07T14:21:52Z</time>
      </trkpt>
      <trkpt lat="37.336973017081618" lon="-6.756834033876658">
        <ele>16</ele>
        <time>2025-05-07T14:22:04Z</time>
      </trkpt>
      <trkpt lat="37.338191997259855" lon="-6.752247959375382">
        <ele>15.52</ele>
        <time>2025-05-07T14:22:17Z</time>
      </trkpt>
      <trkpt lat="37.33923302963376" lon="-6.74721403978765">
        <ele>21.289999999999999</ele>
        <time>2025-05-07T14:22:31Z</time>
      </trkpt>
      <trkpt lat="37.339914981275797" lon="-6.741697993129492">
        <ele>26.09</ele>
        <time>2025-05-07T14:22:46Z</time>
      </trkpt>
      <trkpt lat="37.340174987912178" lon="-6.736865993589163">
        <ele>27.050000000000001</ele>
        <time>2025-05-07T14:22:59Z</time>
      </trkpt>
      <trkpt lat="37.340210024267435" lon="-6.732019996270537">
        <ele>25.129999999999999</ele>
        <time>2025-05-07T14:23:12Z</time>
      </trkpt>
      <trkpt lat="37.340572960674763" lon="-6.727585969492793">
        <ele>23.690000000000001</ele>
        <time>2025-05-07T14:23:24Z</time>
      </trkpt>
      <trkpt lat="37.34086699783802" lon="-6.722778026014566">
        <ele>28.5</ele>
        <time>2025-05-07T14:23:37Z</time>
      </trkpt>
      <trkpt lat="37.340643033385277" lon="-6.718321032822132">
        <ele>28.5</ele>
        <time>2025-05-07T14:23:49Z</time>
      </trkpt>
      <trkpt lat="37.340173982083797" lon="-6.712418999522924">
        <ele>21.289999999999999</ele>
        <time>2025-05-07T14:24:06Z</time>
      </trkpt>
      <trkpt lat="37.340149004012346" lon="-6.707602003589273">
        <ele>21.289999999999999</ele>
        <time>2025-05-07T14:24:18Z</time>
      </trkpt>
      <trkpt lat="37.340509006753564" lon="-6.702059973031282">
        <ele>25.129999999999999</ele>
        <time>2025-05-07T14:24:33Z</time>
      </trkpt>
      <trkpt lat="37.340958025306463" lon="-6.696140002459288">
        <ele>38.109999999999999</ele>
        <time>2025-05-07T14:24:49Z</time>
      </trkpt>
      <trkpt lat="37.341238986700773" lon="-6.690948000177741">
        <ele>44.359999999999999</ele>
        <time>2025-05-07T14:25:03Z</time>
      </trkpt>
      <trkpt lat="37.341794958338141" lon="-6.686912029981613">
        <ele>48.68</ele>
        <time>2025-05-07T14:25:14Z</time>
      </trkpt>
      <trkpt lat="37.342514041811228" lon="-6.681802002713084">
        <ele>56.859999999999999</ele>
        <time>2025-05-07T14:25:28Z</time>
      </trkpt>
      <trkpt lat="37.342637004330754" lon="-6.678460976108909">
        <ele>62.619999999999997</ele>
        <time>2025-05-07T14:25:37Z</time>
      </trkpt>
      <trkpt lat="37.342393007129431" lon="-6.674776962026954">
        <ele>68.390000000000001</ele>
        <time>2025-05-07T14:25:47Z</time>
      </trkpt>
      <trkpt lat="37.341698985546827" lon="-6.670802012085915">
        <ele>78</ele>
        <time>2025-05-07T14:25:58Z</time>
      </trkpt>
      <trkpt lat="37.340911002829671" lon="-6.666841981932521">
        <ele>89.540000000000006</ele>
        <time>2025-05-07T14:26:09Z</time>
      </trkpt>
      <trkpt lat="37.34075702726841" lon="-6.663881996646524">
        <ele>98.189999999999998</ele>
        <time>2025-05-07T14:26:17Z</time>
      </trkpt>
      <trkpt lat="37.341049974784255" lon="-6.660555973649025">
        <ele>106.84</ele>
        <time>2025-05-07T14:26:26Z</time>
      </trkpt>
      <trkpt lat="37.341848015785217" lon="-6.65736498311162">
        <ele>114.53</ele>
        <time>2025-05-07T14:26:35Z</time>
      </trkpt>
      <trkpt lat="37.342728031799197" lon="-6.654509017243981">
        <ele>115.98</ele>
        <time>2025-05-07T14:26:43Z</time>
      </trkpt>
      <trkpt lat="37.343447031453252" lon="-6.6512839961797">
        <ele>113.09</ele>
        <time>2025-05-07T14:26:52Z</time>
      </trkpt>
      <trkpt lat="37.343875011429191" lon="-6.647985968738794">
        <ele>112.13</ele>
        <time>2025-05-07T14:27:01Z</time>
      </trkpt>
      <trkpt lat="37.343963021412492" lon="-6.643919991329312">
        <ele>120.78</ele>
        <time>2025-05-07T14:27:12Z</time>
      </trkpt>
      <trkpt lat="37.343699997290969" lon="-6.639869017526507">
        <ele>132.80000000000001</ele>
        <time>2025-05-07T14:27:23Z</time>
      </trkpt>
      <trkpt lat="37.343537975102663" lon="-6.635804967954755">
        <ele>139.05000000000001</ele>
        <time>2025-05-07T14:27:34Z</time>
      </trkpt>
      <trkpt lat="37.343876017257571" lon="-6.631746031343937">
        <ele>143.37</ele>
        <time>2025-05-07T14:27:45Z</time>
      </trkpt>
      <trkpt lat="37.344575989991426" lon="-6.628138041123748">
        <ele>146.74000000000001</ele>
        <time>2025-05-07T14:27:55Z</time>
      </trkpt>
      <trkpt lat="37.345527000725269" lon="-6.625030031427741">
        <ele>150.58000000000001</ele>
        <time>2025-05-07T14:28:04Z</time>
      </trkpt>
      <trkpt lat="37.347117969766259" lon="-6.621030019596219">
        <ele>155.38999999999999</ele>
        <time>2025-05-07T14:28:16Z</time>
      </trkpt>
      <trkpt lat="37.348432000726461" lon="-6.617267969995737">
        <ele>162.12</ele>
        <time>2025-05-07T14:28:27Z</time>
      </trkpt>
      <trkpt lat="37.349258959293365" lon="-6.613698033615947">
        <ele>159.24000000000001</ele>
        <time>2025-05-07T14:28:37Z</time>
      </trkpt>
      <trkpt lat="37.349650980904698" lon="-6.610779035836458">
        <ele>153.94999999999999</ele>
        <time>2025-05-07T14:28:45Z</time>
      </trkpt>
      <trkpt lat="37.350303009152412" lon="-6.606403011828661">
        <ele>145.78</ele>
        <time>2025-05-07T14:28:57Z</time>
      </trkpt>
      <trkpt lat="37.351133991032839" lon="-6.603235993534327">
        <ele>142.41</ele>
        <time>2025-05-07T14:29:06Z</time>
      </trkpt>
      <trkpt lat="37.352394964545965" lon="-6.599093992263079">
        <ele>138.56999999999999</ele>
        <time>2025-05-07T14:29:18Z</time>
      </trkpt>
      <trkpt lat="37.352965017780662" lon="-6.596657959744334">
        <ele>138.56999999999999</ele>
        <time>2025-05-07T14:29:26Z</time>
      </trkpt>
      <trkpt lat="37.353433985263109" lon="-6.593370996415615">
        <ele>141.44999999999999</ele>
        <time>2025-05-07T14:29:36Z</time>
      </trkpt>
      <trkpt lat="37.353571029379964" lon="-6.589713972061873">
        <ele>149.13999999999999</ele>
        <time>2025-05-07T14:29:47Z</time>
      </trkpt>
      <trkpt lat="37.353394003584981" lon="-6.586354002356529">
        <ele>149.62</ele>
        <time>2025-05-07T14:29:57Z</time>
      </trkpt>
      <trkpt lat="37.352891005575657" lon="-6.582667976617813">
        <ele>144.81999999999999</ele>
        <time>2025-05-07T14:30:08Z</time>
      </trkpt>
      <trkpt lat="37.35249001532793" lon="-6.578818000853062">
        <ele>146.74000000000001</ele>
        <time>2025-05-07T14:30:20Z</time>
      </trkpt>
      <trkpt lat="37.352439975365996" lon="-6.575642013922334">
        <ele>150.58000000000001</ele>
        <time>2025-05-07T14:30:31Z</time>
      </trkpt>
      <trkpt lat="37.352694030851126" lon="-6.572405006736517">
        <ele>152.99000000000001</ele>
        <time>2025-05-07T14:30:43Z</time>
      </trkpt>
      <trkpt lat="37.352969041094184" lon="-6.570603987202048">
        <ele>152.50999999999999</ele>
        <time>2025-05-07T14:30:51Z</time>
      </trkpt>
      <trkpt lat="37.353352010250092" lon="-6.568117998540402">
        <ele>149.62</ele>
        <time>2025-05-07T14:31:02Z</time>
      </trkpt>
      <trkpt lat="37.353679994121194" lon="-6.565592028200626">
        <ele>144.81999999999999</ele>
        <time>2025-05-07T14:31:12Z</time>
      </trkpt>
      <trkpt lat="37.353974031284451" lon="-6.561838025227189">
        <ele>138.09</ele>
        <time>2025-05-07T14:31:26Z</time>
      </trkpt>
      <trkpt lat="37.354266978800297" lon="-6.559289004653692">
        <ele>133.75999999999999</ele>
        <time>2025-05-07T14:31:35Z</time>
      </trkpt>
      <trkpt lat="37.354872990399599" lon="-6.556216031312943">
        <ele>131.36000000000001</ele>
        <time>2025-05-07T14:31:46Z</time>
      </trkpt>
      <trkpt lat="37.355704978108406" lon="-6.55333399772644">
        <ele>133.28</ele>
        <time>2025-05-07T14:31:57Z</time>
      </trkpt>
      <trkpt lat="37.356728995218873" lon="-6.549846958369017">
        <ele>139.05000000000001</ele>
        <time>2025-05-07T14:32:10Z</time>
      </trkpt>
      <trkpt lat="37.357341041788459" lon="-6.546904994174838">
        <ele>145.30000000000001</ele>
        <time>2025-05-07T14:32:21Z</time>
      </trkpt>
      <trkpt lat="37.357677994295955" lon="-6.54409496113658">
        <ele>153.94999999999999</ele>
        <time>2025-05-07T14:32:32Z</time>
      </trkpt>
      <trkpt lat="37.357863988727331" lon="-6.541434964165092">
        <ele>159.72</ele>
        <time>2025-05-07T14:32:43Z</time>
      </trkpt>
      <trkpt lat="37.358012013137341" lon="-6.539326999336481">
        <ele>159.72</ele>
        <time>2025-05-07T14:32:52Z</time>
      </trkpt>
      <trkpt lat="37.35816003754735" lon="-6.53758398257196">
        <ele>158.75</ele>
        <time>2025-05-07T14:33:02Z</time>
      </trkpt>
      <trkpt lat="37.358288029208779" lon="-6.536515038460493">
        <ele>154.91</ele>
        <time>2025-05-07T14:33:10Z</time>
      </trkpt>
      <trkpt lat="37.35833496786654" lon="-6.536126034334302">
        <ele>153.47</ele>
        <time>2025-05-07T14:33:19Z</time>
      </trkpt>
      <trkpt lat="37.358379978686571" lon="-6.535748010501266">
        <ele>154.91</ele>
        <time>2025-05-07T14:33:32Z</time>
      </trkpt>
      <trkpt lat="37.358451979234815" lon="-6.53519899584353">
        <ele>155.38999999999999</ele>
        <time>2025-05-07T14:33:44Z</time>
      </trkpt>
      <trkpt lat="37.358518028631806" lon="-6.534732962027192">
        <ele>155.38999999999999</ele>
        <time>2025-05-07T14:33:56Z</time>
      </trkpt>
      <trkpt lat="37.35854703001678" lon="-6.534521989524365">
        <ele>155.38999999999999</ele>
        <time>2025-05-07T14:34:00Z</time>
      </trkpt>
      <trkpt lat="37.358559016138315" lon="-6.534441020339727">
        <ele>155.38999999999999</ele>
        <time>2025-05-07T14:34:01Z</time>
      </trkpt>
      <trkpt lat="37.358645014464855" lon="-6.533899968490005">
        <ele>154.91</ele>
        <time>2025-05-07T14:34:09Z</time>
      </trkpt>
      <trkpt lat="37.358737969771028" lon="-6.533319018781185">
        <ele>154.91</ele>
        <time>2025-05-07T14:34:19Z</time>
      </trkpt>
      <trkpt lat="37.358877025544643" lon="-6.532451994717121">
        <ele>154.43000000000001</ele>
        <time>2025-05-07T14:34:31Z</time>
      </trkpt>
      <trkpt lat="37.359032006934285" lon="-6.531640039756894">
        <ele>153.94999999999999</ele>
        <time>2025-05-07T14:34:43Z</time>
      </trkpt>
      <trkpt lat="37.359164021909237" lon="-6.530713001266122">
        <ele>153.47</ele>
        <time>2025-05-07T14:34:52Z</time>
      </trkpt>
      <trkpt lat="37.359334006905556" lon="-6.529570966959">
        <ele>151.53999999999999</ele>
        <time>2025-05-07T14:34:59Z</time>
      </trkpt>
      <trkpt lat="37.359458981081843" lon="-6.528533035889268">
        <ele>150.09999999999999</ele>
        <time>2025-05-07T14:35:06Z</time>
      </trkpt>
      <trkpt lat="37.359633995220065" lon="-6.527084978297353">
        <ele>146.74000000000001</ele>
        <time>2025-05-07T14:35:16Z</time>
      </trkpt>
      <trkpt lat="37.359765004366636" lon="-6.525590987876058">
        <ele>143.84999999999999</ele>
        <time>2025-05-07T14:35:22Z</time>
      </trkpt>
      <trkpt lat="37.359941024333239" lon="-6.522922022268176">
        <ele>142.41</ele>
        <time>2025-05-07T14:35:30Z</time>
      </trkpt>
      <trkpt lat="37.360003972426057" lon="-6.518456982448697">
        <ele>147.69999999999999</ele>
        <time>2025-05-07T14:35:42Z</time>
      </trkpt>
      <trkpt lat="37.35977397300303" lon="-6.514013987034559">
        <ele>153.47</ele>
        <time>2025-05-07T14:35:54Z</time>
      </trkpt>
      <trkpt lat="37.359323026612401" lon="-6.50997499935329">
        <ele>157.78999999999999</ele>
        <time>2025-05-07T14:36:05Z</time>
      </trkpt>
      <trkpt lat="37.358410991728306" lon="-6.504899002611637">
        <ele>161.16</ele>
        <time>2025-05-07T14:36:19Z</time>
      </trkpt>
      <trkpt lat="37.357613034546375" lon="-6.501715974882245">
        <ele>160.19999999999999</ele>
        <time>2025-05-07T14:36:28Z</time>
      </trkpt>
      <trkpt lat="37.356244018301368" lon="-6.497205002233386">
        <ele>156.34999999999999</ele>
        <time>2025-05-07T14:36:41Z</time>
      </trkpt>
      <trkpt lat="37.3546829726547" lon="-6.493193004280329">
        <ele>152.03</ele>
        <time>2025-05-07T14:36:53Z</time>
      </trkpt>
      <trkpt lat="37.352862004190683" lon="-6.488515986129642">
        <ele>146.25999999999999</ele>
        <time>2025-05-07T14:37:07Z</time>
      </trkpt>
      <trkpt lat="37.351544033735991" lon="-6.484369039535523">
        <ele>141.44999999999999</ele>
        <time>2025-05-07T14:37:19Z</time>
      </trkpt>
      <trkpt lat="37.350653959438205" lon="-6.480823997408152">
        <ele>136.63999999999999</ele>
        <time>2025-05-07T14:37:29Z</time>
      </trkpt>
      <trkpt lat="37.349706972017884" lon="-6.47575001232326">
        <ele>129.91999999999999</ele>
        <time>2025-05-07T14:37:43Z</time>
      </trkpt>
      <trkpt lat="37.3491380084306" lon="-6.471348004415631">
        <ele>124.15000000000001</ele>
        <time>2025-05-07T14:37:55Z</time>
      </trkpt>
      <trkpt lat="37.348340973258018" lon="-6.466245017945766">
        <ele>120.3</ele>
        <time>2025-05-07T14:38:09Z</time>
      </trkpt>
      <trkpt lat="37.347696991637349" lon="-6.463381005451083">
        <ele>121.73999999999999</ele>
        <time>2025-05-07T14:38:17Z</time>
      </trkpt>
      <trkpt lat="37.346491003409028" lon="-6.45840902812779">
        <ele>122.70999999999999</ele>
        <time>2025-05-07T14:38:31Z</time>
      </trkpt>
      <trkpt lat="37.345543010160327" lon="-6.453349962830544">
        <ele>123.67</ele>
        <time>2025-05-07T14:38:45Z</time>
      </trkpt>
      <trkpt lat="37.344997012987733" lon="-6.44857001490891">
        <ele>125.11</ele>
        <time>2025-05-07T14:38:58Z</time>
      </trkpt>
      <trkpt lat="37.344780005514622" lon="-6.445221025496721">
        <ele>127.03</ele>
        <time>2025-05-07T14:39:08Z</time>
      </trkpt>
      <trkpt lat="37.344829961657524" lon="-6.439653011038899">
        <ele>131.36000000000001</ele>
        <time>2025-05-07T14:39:22Z</time>
      </trkpt>
      <trkpt lat="37.34527001157403" lon="-6.434103017672896">
        <ele>139.05000000000001</ele>
        <time>2025-05-07T14:39:37Z</time>
      </trkpt>
      <trkpt lat="37.346042990684509" lon="-6.42936397343874">
        <ele>144.34</ele>
        <time>2025-05-07T14:39:50Z</time>
      </trkpt>
      <trkpt lat="37.346653025597334" lon="-6.426478000357747">
        <ele>145.30000000000001</ele>
        <time>2025-05-07T14:39:59Z</time>
      </trkpt>
      <trkpt lat="37.348287999629974" lon="-6.420871010050178">
        <ele>145.30000000000001</ele>
        <time>2025-05-07T14:40:14Z</time>
      </trkpt>
      <trkpt lat="37.349896989762783" lon="-6.416026018559933">
        <ele>132.31999999999999</ele>
        <time>2025-05-07T14:40:29Z</time>
      </trkpt>
      <trkpt lat="37.351133991032839" lon="-6.411447990685701">
        <ele>120.3</ele>
        <time>2025-05-07T14:40:41Z</time>
      </trkpt>
      <trkpt lat="37.352148033678532" lon="-6.406038980931044">
        <ele>109.25</ele>
        <time>2025-05-07T14:40:56Z</time>
      </trkpt>
      <trkpt lat="37.352696964517236" lon="-6.401286022737622">
        <ele>111.65000000000001</ele>
        <time>2025-05-07T14:41:09Z</time>
      </trkpt>
      <trkpt lat="37.352884970605373" lon="-6.397013012319803">
        <ele>117.90000000000001</ele>
        <time>2025-05-07T14:41:21Z</time>
      </trkpt>
      <trkpt lat="37.353084962815046" lon="-6.392281008884311">
        <ele>123.67</ele>
        <time>2025-05-07T14:41:36Z</time>
      </trkpt>
      <trkpt lat="37.353441026061773" lon="-6.388380993157625">
        <ele>126.55</ele>
        <time>2025-05-07T14:41:48Z</time>
      </trkpt>
      <trkpt lat="37.353700026869774" lon="-6.384376036003232">
        <ele>134.24000000000001</ele>
        <time>2025-05-07T14:41:59Z</time>
      </trkpt>
      <trkpt lat="37.353697009384632" lon="-6.378475008532405">
        <ele>140.49000000000001</ele>
        <time>2025-05-07T14:42:15Z</time>
      </trkpt>
      <trkpt lat="37.353495005518198" lon="-6.372574986889958">
        <ele>143.37</ele>
        <time>2025-05-07T14:42:31Z</time>
      </trkpt>
      <trkpt lat="37.353601036593318" lon="-6.368508003652096">
        <ele>139.53</ele>
        <time>2025-05-07T14:42:42Z</time>
      </trkpt>
      <trkpt lat="37.354062041267753" lon="-6.363337961956859">
        <ele>127.03</ele>
        <time>2025-05-07T14:42:56Z</time>
      </trkpt>
      <trkpt lat="37.354585994035006" lon="-6.359311966225505">
        <ele>115.5</ele>
        <time>2025-05-07T14:43:07Z</time>
      </trkpt>
      <trkpt lat="37.355039035901427" lon="-6.354145025834441">
        <ele>102.04000000000001</ele>
        <time>2025-05-07T14:43:21Z</time>
      </trkpt>
      <trkpt lat="37.355226036161184" lon="-6.350435027852655">
        <ele>92.900000000000006</ele>
        <time>2025-05-07T14:43:31Z</time>
      </trkpt>
      <trkpt lat="37.355528036132455" lon="-6.347113028168678">
        <ele>83.290000000000006</ele>
        <time>2025-05-07T14:43:40Z</time>
      </trkpt>
      <trkpt lat="37.356259021908045" lon="-6.341996965929866">
        <ele>71.760000000000005</ele>
        <time>2025-05-07T14:43:54Z</time>
      </trkpt>
      <trkpt lat="37.357349004596472" lon="-6.336980983614922">
        <ele>66.950000000000003</ele>
        <time>2025-05-07T14:44:08Z</time>
      </trkpt>
      <trkpt lat="37.35846203751862" lon="-6.331596029922366">
        <ele>69.829999999999998</ele>
        <time>2025-05-07T14:44:23Z</time>
      </trkpt>
      <trkpt lat="37.359139965847135" lon="-6.32644803263247">
        <ele>72.719999999999999</ele>
        <time>2025-05-07T14:44:37Z</time>
      </trkpt>
      <trkpt lat="37.359402989968657" lon="-6.322002019733191">
        <ele>77.040000000000006</ele>
        <time>2025-05-07T14:44:49Z</time>
      </trkpt>
      <trkpt lat="37.35936501994729" lon="-6.317201033234596">
        <ele>86.180000000000007</ele>
        <time>2025-05-07T14:45:02Z</time>
      </trkpt>
      <trkpt lat="37.359392009675503" lon="-6.312776980921626">
        <ele>97.230000000000004</ele>
        <time>2025-05-07T14:45:14Z</time>
      </trkpt>
      <trkpt lat="37.359679006040096" lon="-6.308340020477772">
        <ele>109.25</ele>
        <time>2025-05-07T14:45:26Z</time>
      </trkpt>
      <trkpt lat="37.360190972685814" lon="-6.304306983947754">
        <ele>111.17</ele>
        <time>2025-05-07T14:45:37Z</time>
      </trkpt>
      <trkpt lat="37.360907960683107" lon="-6.298768976703286">
        <ele>98.189999999999998</ele>
        <time>2025-05-07T14:45:52Z</time>
      </trkpt>
      <trkpt lat="37.361218007281423" lon="-6.294342996552587">
        <ele>86.659999999999997</ele>
        <time>2025-05-07T14:46:04Z</time>
      </trkpt>
      <trkpt lat="37.361198980361223" lon="-6.289142025634646">
        <ele>74.159999999999997</ele>
        <time>2025-05-07T14:46:18Z</time>
      </trkpt>
      <trkpt lat="37.360968980938196" lon="-6.284699030220509">
        <ele>66.950000000000003</ele>
        <time>2025-05-07T14:46:30Z</time>
      </trkpt>
      <trkpt lat="37.360839983448386" lon="-6.280223010107875">
        <ele>64.549999999999997</ele>
        <time>2025-05-07T14:46:42Z</time>
      </trkpt>
      <trkpt lat="37.361081968992949" lon="-6.274673016741872">
        <ele>51.57</ele>
        <time>2025-05-07T14:46:57Z</time>
      </trkpt>
      <trkpt lat="37.361238040030003" lon="-6.272845007479191">
        <ele>48.68</ele>
        <time>2025-05-07T14:47:02Z</time>
      </trkpt>
      <trkpt lat="37.361280033364892" lon="-6.272483998909593">
        <ele>48.68</ele>
        <time>2025-05-07T14:47:03Z</time>
      </trkpt>
      <trkpt lat="37.361727962270379" lon="-6.269149007275701">
        <ele>45.32</ele>
        <time>2025-05-07T14:47:12Z</time>
      </trkpt>
      <trkpt lat="37.362502031028271" lon="-6.265168022364378">
        <ele>41.950000000000003</ele>
        <time>2025-05-07T14:47:23Z</time>
      </trkpt>
      <trkpt lat="37.363376012071967" lon="-6.261617029085755">
        <ele>43.399999999999999</ele>
        <time>2025-05-07T14:47:33Z</time>
      </trkpt>
      <trkpt lat="37.36445602029562" lon="-6.258151028305292">
        <ele>47.719999999999999</ele>
        <time>2025-05-07T14:47:43Z</time>
      </trkpt>
      <trkpt lat="37.36538196913898" lon="-6.255422970280051">
        <ele>46.759999999999998</ele>
        <time>2025-05-07T14:47:51Z</time>
      </trkpt>
      <trkpt lat="37.366757020354271" lon="-6.250865980982781">
        <ele>43.880000000000003</ele>
        <time>2025-05-07T14:48:04Z</time>
      </trkpt>
      <trkpt lat="37.367691015824676" lon="-6.246938975527883">
        <ele>41.950000000000003</ele>
        <time>2025-05-07T14:48:15Z</time>
      </trkpt>
      <trkpt lat="37.368241036310792" lon="-6.244045039638877">
        <ele>41.950000000000003</ele>
        <time>2025-05-07T14:48:23Z</time>
      </trkpt>
      <trkpt lat="37.36890303902328" lon="-6.240455992519856">
        <ele>39.07</ele>
        <time>2025-05-07T14:48:33Z</time>
      </trkpt>
      <trkpt lat="37.370049012824893" lon="-6.236250037327409">
        <ele>36.189999999999998</ele>
        <time>2025-05-07T14:48:45Z</time>
      </trkpt>
      <trkpt lat="37.371031036600471" lon="-6.232745982706547">
        <ele>35.710000000000001</ele>
        <time>2025-05-07T14:48:55Z</time>
      </trkpt>
      <trkpt lat="37.371404031291604" lon="-6.229459019377828">
        <ele>34.259999999999998</ele>
        <time>2025-05-07T14:49:04Z</time>
      </trkpt>
      <trkpt lat="37.371294982731342" lon="-6.226527029648423">
        <ele>34.259999999999998</ele>
        <time>2025-05-07T14:49:12Z</time>
      </trkpt>
      <trkpt lat="37.370719984173775" lon="-6.223292034119368">
        <ele>38.109999999999999</ele>
        <time>2025-05-07T14:49:21Z</time>
      </trkpt>
      <trkpt lat="37.369642993435264" lon="-6.22026901692152">
        <ele>49.649999999999999</ele>
        <time>2025-05-07T14:49:30Z</time>
      </trkpt>
      <trkpt lat="37.368271965533495" lon="-6.217851005494595">
        <ele>62.140000000000001</ele>
        <time>2025-05-07T14:49:38Z</time>
      </trkpt>
      <trkpt lat="37.36596199683845" lon="-6.214442001655698">
        <ele>81.370000000000005</ele>
        <time>2025-05-07T14:49:50Z</time>
      </trkpt>
      <trkpt lat="37.364338003098965" lon="-6.211354024708271">
        <ele>97.709999999999994</ele>
        <time>2025-05-07T14:50:00Z</time>
      </trkpt>
      <trkpt lat="37.362528014928102" lon="-6.2071199901402">
        <ele>117.42</ele>
        <time>2025-05-07T14:50:13Z</time>
      </trkpt>
      <trkpt lat="37.361830975860357" lon="-6.204674988985062">
        <ele>124.15000000000001</ele>
        <time>2025-05-07T14:50:20Z</time>
      </trkpt>
      <trkpt lat="37.361261006444693" lon="-6.201003966853023">
        <ele>127.98999999999999</ele>
        <time>2025-05-07T14:50:30Z</time>
      </trkpt>
      <trkpt lat="37.360607972368598" lon="-6.198159987106919">
        <ele>130.40000000000001</ele>
        <time>2025-05-07T14:50:38Z</time>
      </trkpt>
      <trkpt lat="37.359328977763653" lon="-6.194810997694731">
        <ele>132.80000000000001</ele>
        <time>2025-05-07T14:50:48Z</time>
      </trkpt>
      <trkpt lat="37.358347959816456" lon="-6.191700976341963">
        <ele>132.31999999999999</ele>
        <time>2025-05-07T14:50:57Z</time>
      </trkpt>
      <trkpt lat="37.357846973463893" lon="-6.18840797804296">
        <ele>129.91999999999999</ele>
        <time>2025-05-07T14:51:06Z</time>
      </trkpt>
      <trkpt lat="37.357773967087269" lon="-6.184662021696568">
        <ele>127.98999999999999</ele>
        <time>2025-05-07T14:51:16Z</time>
      </trkpt>
      <trkpt lat="37.35762401483953" lon="-6.180207962170243">
        <ele>127.51000000000001</ele>
        <time>2025-05-07T14:51:28Z</time>
      </trkpt>
      <trkpt lat="37.357120011001825" lon="-6.17579597979784">
        <ele>130.40000000000001</ele>
        <time>2025-05-07T14:51:41Z</time>
      </trkpt>
      <trkpt lat="37.3569589946419" lon="-6.17169002071023">
        <ele>130.40000000000001</ele>
        <time>2025-05-07T14:51:51Z</time>
      </trkpt>
      <trkpt lat="37.357220007106662" lon="-6.16799502633512">
        <ele>129.91999999999999</ele>
        <time>2025-05-07T14:52:01Z</time>
      </trkpt>
      <trkpt lat="37.357840016484261" lon="-6.163210971280932">
        <ele>127.98999999999999</ele>
        <time>2025-05-07T14:52:14Z</time>
      </trkpt>
      <trkpt lat="37.358078984543681" lon="-6.160635966807604">
        <ele>124.63</ele>
        <time>2025-05-07T14:52:21Z</time>
      </trkpt>
      <trkpt lat="37.358242012560368" lon="-6.157292006537318">
        <ele>120.78</ele>
        <time>2025-05-07T14:52:30Z</time>
      </trkpt>
      <trkpt lat="37.358487015590072" lon="-6.151721980422735">
        <ele>115.98</ele>
        <time>2025-05-07T14:52:45Z</time>
      </trkpt>
      <trkpt lat="37.358991019427776" lon="-6.146567026153207">
        <ele>111.17</ele>
        <time>2025-05-07T14:52:59Z</time>
      </trkpt>
      <trkpt lat="37.359895007684827" lon="-6.141495974734426">
        <ele>112.61</ele>
        <time>2025-05-07T14:53:13Z</time>
      </trkpt>
      <trkpt lat="37.360973004251719" lon="-6.137239979580045">
        <ele>114.53</ele>
        <time>2025-05-07T14:53:25Z</time>
      </trkpt>
      <trkpt lat="37.362489961087704" lon="-6.131604993715882">
        <ele>114.05</ele>
        <time>2025-05-07T14:53:41Z</time>
      </trkpt>
      <trkpt lat="37.363464022055268" lon="-6.126554980874062">
        <ele>116.94</ele>
        <time>2025-05-07T14:53:55Z</time>
      </trkpt>
      <trkpt lat="37.363875992596149" lon="-6.123672025278211">
        <ele>120.3</ele>
        <time>2025-05-07T14:54:03Z</time>
      </trkpt>
      <trkpt lat="37.364652995020151" lon="-6.118508018553257">
        <ele>119.81999999999999</ele>
        <time>2025-05-07T14:54:17Z</time>
      </trkpt>
      <trkpt lat="37.365624038502574" lon="-6.113812979310751">
        <ele>115.5</ele>
        <time>2025-05-07T14:54:30Z</time>
      </trkpt>
      <trkpt lat="37.367154993116856" lon="-6.108563980087638">
        <ele>108.77</ele>
        <time>2025-05-07T14:54:45Z</time>
      </trkpt>
      <trkpt lat="37.36890496686101" lon="-6.10384002327919">
        <ele>94.349999999999994</ele>
        <time>2025-05-07T14:54:59Z</time>
      </trkpt>
      <trkpt lat="37.370167030021548" lon="-6.100484998896718">
        <ele>84.730000000000004</ele>
        <time>2025-05-07T14:55:09Z</time>
      </trkpt>
      <trkpt lat="37.371650962159038" lon="-6.095606982707977">
        <ele>79.930000000000007</ele>
        <time>2025-05-07T14:55:23Z</time>
      </trkpt>
      <trkpt lat="37.372766006737947" lon="-6.090612960979343">
        <ele>89.060000000000002</ele>
        <time>2025-05-07T14:55:37Z</time>
      </trkpt>
      <trkpt lat="37.373960008844733" lon="-6.085651963949204">
        <ele>101.08</ele>
        <time>2025-05-07T14:55:51Z</time>
      </trkpt>
      <trkpt lat="37.375646028667688" lon="-6.081304019317031">
        <ele>114.53</ele>
        <time>2025-05-07T14:56:04Z</time>
      </trkpt>
      <trkpt lat="37.37696198746562" lon="-6.078839991241694">
        <ele>122.22</ele>
        <time>2025-05-07T14:56:12Z</time>
      </trkpt>
      <trkpt lat="37.379829017445445" lon="-6.074093990027905">
        <ele>128.94999999999999</ele>
        <time>2025-05-07T14:56:28Z</time>
      </trkpt>
      <trkpt lat="37.381165008991957" lon="-6.071216985583305">
        <ele>130.40000000000001</ele>
        <time>2025-05-07T14:56:37Z</time>
      </trkpt>
      <trkpt lat="37.381875962018967" lon="-6.069239024072886">
        <ele>127.98999999999999</ele>
        <time>2025-05-07T14:56:44Z</time>
      </trkpt>
      <trkpt lat="37.382370997220278" lon="-6.067626010626555">
        <ele>125.59</ele>
        <time>2025-05-07T14:56:50Z</time>
      </trkpt>
      <trkpt lat="37.382972985506058" lon="-6.065163994207978">
        <ele>123.19</ele>
        <time>2025-05-07T14:56:59Z</time>
      </trkpt>
      <trkpt lat="37.38344999961555" lon="-6.061592968180776">
        <ele>122.70999999999999</ele>
        <time>2025-05-07T14:57:11Z</time>
      </trkpt>
      <trkpt lat="37.383596012368798" lon="-6.059171017259359">
        <ele>120.78</ele>
        <time>2025-05-07T14:57:20Z</time>
      </trkpt>
      <trkpt lat="37.383706988766789" lon="-6.056569023057818">
        <ele>113.56999999999999</ele>
        <time>2025-05-07T14:57:28Z</time>
      </trkpt>
      <trkpt lat="37.383706988766789" lon="-6.056261993944645">
        <ele>111.65000000000001</ele>
        <time>2025-05-07T14:57:30Z</time>
      </trkpt>
      <trkpt lat="37.383399959653616" lon="-6.0532630328089">
        <ele>108.29000000000001</ele>
        <time>2025-05-07T14:57:39Z</time>
      </trkpt>
      <trkpt lat="37.38263301551342" lon="-6.049214992672205">
        <ele>105.88</ele>
        <time>2025-05-07T14:57:53Z</time>
      </trkpt>
      <trkpt lat="37.382004959508777" lon="-6.045942027121782">
        <ele>98.670000000000002</ele>
        <time>2025-05-07T14:58:04Z</time>
      </trkpt>
      <trkpt lat="37.381597012281418" lon="-6.043913019821048">
        <ele>90.5</ele>
        <time>2025-05-07T14:58:11Z</time>
      </trkpt>
      <trkpt lat="37.381068030372262" lon="-6.041236007586122">
        <ele>77.040000000000006</ele>
        <time>2025-05-07T14:58:21Z</time>
      </trkpt>
      <trkpt lat="37.380734011530876" lon="-6.038724035024643">
        <ele>65.030000000000001</ele>
        <time>2025-05-07T14:58:32Z</time>
      </trkpt>
      <trkpt lat="37.381160985678434" lon="-6.036823019385338">
        <ele>55.409999999999997</ele>
        <time>2025-05-07T14:58:38Z</time>
      </trkpt>
      <trkpt lat="37.381375981494784" lon="-6.036371989175677">
        <ele>51.57</ele>
        <time>2025-05-07T14:58:41Z</time>
      </trkpt>
      <trkpt lat="37.382347024977207" lon="-6.035161977633834">
        <ele>43.880000000000003</ele>
        <time>2025-05-07T14:58:46Z</time>
      </trkpt>
      <trkpt lat="37.382954964414239" lon="-6.034750007092953">
        <ele>37.630000000000003</ele>
        <time>2025-05-07T14:58:50Z</time>
      </trkpt>
      <trkpt lat="37.384548028931022" lon="-6.034326972439885">
        <ele>28.02</ele>
        <time>2025-05-07T14:58:57Z</time>
      </trkpt>
      <trkpt lat="37.386284004896879" lon="-6.034084986895323">
        <ele>22.73</ele>
        <time>2025-05-07T14:59:07Z</time>
      </trkpt>
      <trkpt lat="37.388045964762568" lon="-6.033835960552096">
        <ele>19.359999999999999</ele>
        <time>2025-05-07T14:59:17Z</time>
      </trkpt>
      <trkpt lat="37.388523984700441" lon="-6.033689025789499">
        <ele>17.920000000000002</ele>
        <time>2025-05-07T14:59:20Z</time>
      </trkpt>
      <trkpt lat="37.388673014938831" lon="-6.033621970564127">
        <ele>16.960000000000001</ele>
        <time>2025-05-07T14:59:21Z</time>
      </trkpt>
      <trkpt lat="37.388807041570544" lon="-6.033533960580826">
        <ele>15.52</ele>
        <time>2025-05-07T14:59:23Z</time>
      </trkpt>
      <trkpt lat="37.389388997107744" lon="-6.032872963696718">
        <ele>12.630000000000001</ele>
        <time>2025-05-07T14:59:28Z</time>
      </trkpt>
      <trkpt lat="37.389546995982528" lon="-6.032555038109422">
        <ele>12.630000000000001</ele>
        <time>2025-05-07T14:59:29Z</time>
      </trkpt>
      <trkpt lat="37.389609022065997" lon="-6.032394021749497">
        <ele>12.630000000000001</ele>
        <time>2025-05-07T14:59:30Z</time>
      </trkpt>
      <trkpt lat="37.389669036492705" lon="-6.032239040359855">
        <ele>12.630000000000001</ele>
        <time>2025-05-07T14:59:31Z</time>
      </trkpt>
      <trkpt lat="37.389727039262652" lon="-6.032090010121465">
        <ele>12.630000000000001</ele>
        <time>2025-05-07T14:59:32Z</time>
      </trkpt>
      <trkpt lat="37.389769032597542" lon="-6.031937962397933">
        <ele>13.119999999999999</ele>
        <time>2025-05-07T14:59:33Z</time>
      </trkpt>
      <trkpt lat="37.389795016497374" lon="-6.031772000715137">
        <ele>12.630000000000001</ele>
        <time>2025-05-07T14:59:34Z</time>
      </trkpt>
      <trkpt lat="37.389805996790528" lon="-6.031606961041689">
        <ele>13.119999999999999</ele>
        <time>2025-05-07T14:59:35Z</time>
      </trkpt>
      <trkpt lat="37.389797028154135" lon="-6.030379012227058">
        <ele>11.67</ele>
        <time>2025-05-07T14:59:43Z</time>
      </trkpt>
      <trkpt lat="37.389506008476019" lon="-6.029032962396741">
        <ele>12.630000000000001</ele>
        <time>2025-05-07T14:59:51Z</time>
      </trkpt>
      <trkpt lat="37.389297969639301" lon="-6.028573969379067">
        <ele>14.08</ele>
        <time>2025-05-07T14:59:54Z</time>
      </trkpt>
      <trkpt lat="37.389222029596567" lon="-6.028451006859541">
        <ele>15.039999999999999</ele>
        <time>2025-05-07T14:59:55Z</time>
      </trkpt>
      <trkpt lat="37.389139970764518" lon="-6.028333995491266">
        <ele>16</ele>
        <time>2025-05-07T14:59:56Z</time>
      </trkpt>
      <trkpt lat="37.389039974659681" lon="-6.02823399938643">
        <ele>16.960000000000001</ele>
        <time>2025-05-07T14:59:57Z</time>
      </trkpt>
      <trkpt lat="37.388934027403593" lon="-6.028143977746368">
        <ele>17.440000000000001</ele>
        <time>2025-05-07T14:59:58Z</time>
      </trkpt>
      <trkpt lat="37.38882296718657" lon="-6.028054039925337">
        <ele>17.920000000000002</ele>
        <time>2025-05-07T14:59:59Z</time>
      </trkpt>
      <trkpt lat="37.388704027980566" lon="-6.027992013841867">
        <ele>18.399999999999999</ele>
        <time>2025-05-07T15:00:00Z</time>
      </trkpt>
      <trkpt lat="37.388582993298769" lon="-6.027927976101637">
        <ele>18.879999999999999</ele>
        <time>2025-05-07T15:00:01Z</time>
      </trkpt>
      <trkpt lat="37.388457013294101" lon="-6.027862010523677">
        <ele>19.84</ele>
        <time>2025-05-07T15:00:02Z</time>
      </trkpt>
      <trkpt lat="37.387543972581625" lon="-6.027450961992145">
        <ele>22.25</ele>
        <time>2025-05-07T15:00:10Z</time>
      </trkpt>
      <trkpt lat="37.386615006253123" lon="-6.026685023680329">
        <ele>20.809999999999999</ele>
        <time>2025-05-07T15:00:17Z</time>
      </trkpt>
      <trkpt lat="37.385352021083236" lon="-6.025969963520765">
        <ele>18.879999999999999</ele>
        <time>2025-05-07T15:00:24Z</time>
      </trkpt>
      <trkpt lat="37.383861970156431" lon="-6.025775000452995">
        <ele>18.399999999999999</ele>
        <time>2025-05-07T15:00:32Z</time>
      </trkpt>
      <trkpt lat="37.38132300786674" lon="-6.026039030402899">
        <ele>19.359999999999999</ele>
        <time>2025-05-07T15:00:45Z</time>
      </trkpt>
      <trkpt lat="37.379042962566018" lon="-6.026396015658975">
        <ele>18.399999999999999</ele>
        <time>2025-05-07T15:00:57Z</time>
      </trkpt>
      <trkpt lat="37.376711033284664" lon="-6.026758030056953">
        <ele>17.440000000000001</ele>
        <time>2025-05-07T15:01:09Z</time>
      </trkpt>
      <trkpt lat="37.375314021483064" lon="-6.027103029191494">
        <ele>15.52</ele>
        <time>2025-05-07T15:01:16Z</time>
      </trkpt>
      <trkpt lat="37.373831011354923" lon="-6.027605021372438">
        <ele>17.440000000000001</ele>
        <time>2025-05-07T15:01:25Z</time>
      </trkpt>
      <trkpt lat="37.373404037207365" lon="-6.027747010812163">
        <ele>16.960000000000001</ele>
        <time>2025-05-07T15:01:28Z</time>
      </trkpt>
      <trkpt lat="37.373248971998692" lon="-6.027766959741712">
        <ele>16.48</ele>
        <time>2025-05-07T15:01:30Z</time>
      </trkpt>
      <trkpt lat="37.372756032273173" lon="-6.027714991942048">
        <ele>15.52</ele>
        <time>2025-05-07T15:01:32Z</time>
      </trkpt>
      <trkpt lat="37.37259803339839" lon="-6.027664029970765">
        <ele>15.039999999999999</ele>
        <time>2025-05-07T15:01:33Z</time>
      </trkpt>
      <trkpt lat="37.372454032301903" lon="-6.027563028037548">
        <ele>14.56</ele>
        <time>2025-05-07T15:01:34Z</time>
      </trkpt>
      <trkpt lat="37.37230097874999" lon="-6.027472000569105">
        <ele>14.56</ele>
        <time>2025-05-07T15:01:35Z</time>
      </trkpt>
      <trkpt lat="37.372157983481884" lon="-6.027347026392818">
        <ele>14.08</ele>
        <time>2025-05-07T15:01:36Z</time>
      </trkpt>
      <trkpt lat="37.372032003477216" lon="-6.027199001982808">
        <ele>14.08</ele>
        <time>2025-05-07T15:01:37Z</time>
      </trkpt>
      <trkpt lat="37.371923038735986" lon="-6.027032034471631">
        <ele>14.56</ele>
        <time>2025-05-07T15:01:38Z</time>
      </trkpt>
      <trkpt lat="37.371816001832485" lon="-6.026866994798183">
        <ele>15.52</ele>
        <time>2025-05-07T15:01:39Z</time>
      </trkpt>
      <trkpt lat="37.371725980192423" lon="-6.026693992316723">
        <ele>16</ele>
        <time>2025-05-07T15:01:40Z</time>
      </trkpt>
      <trkpt lat="37.371660014614463" lon="-6.02651403285563">
        <ele>16.48</ele>
        <time>2025-05-07T15:01:41Z</time>
      </trkpt>
      <trkpt lat="37.371600000187755" lon="-6.026325020939112">
        <ele>16.960000000000001</ele>
        <time>2025-05-07T15:01:42Z</time>
      </trkpt>
      <trkpt lat="37.371575022116303" lon="-6.026128968223929">
        <ele>16.960000000000001</ele>
        <time>2025-05-07T15:01:43Z</time>
      </trkpt>
      <trkpt lat="37.371549038216472" lon="-6.025927970185876">
        <ele>16.960000000000001</ele>
        <time>2025-05-07T15:01:44Z</time>
      </trkpt>
      <trkpt lat="37.371522970497608" lon="-6.025725966319442">
        <ele>17.440000000000001</ele>
        <time>2025-05-07T15:01:45Z</time>
      </trkpt>
      <trkpt lat="37.371497992426157" lon="-6.025523962453008">
        <ele>17.440000000000001</ele>
        <time>2025-05-07T15:01:46Z</time>
      </trkpt>
      <trkpt lat="37.371401013806462" lon="-6.0229910351336">
        <ele>16</ele>
        <time>2025-05-07T15:01:58Z</time>
      </trkpt>
      <trkpt lat="37.371351979672909" lon="-6.019703987985849">
        <ele>15.039999999999999</ele>
        <time>2025-05-07T15:02:13Z</time>
      </trkpt>
      <trkpt lat="37.371626989915967" lon="-6.017450010403991">
        <ele>13.119999999999999</ele>
        <time>2025-05-07T15:02:23Z</time>
      </trkpt>
      <trkpt lat="37.371840979903936" lon="-6.01581403054297">
        <ele>12.15</ele>
        <time>2025-05-07T15:02:31Z</time>
      </trkpt>
      <trkpt lat="37.371840979903936" lon="-6.01562300696969">
        <ele>12.15</ele>
        <time>2025-05-07T15:02:32Z</time>
      </trkpt>
      <trkpt lat="37.371808961033821" lon="-6.015439024195075">
        <ele>12.630000000000001</ele>
        <time>2025-05-07T15:02:33Z</time>
      </trkpt>
      <trkpt lat="37.371753975749016" lon="-6.015248000621796">
        <ele>12.630000000000001</ele>
        <time>2025-05-07T15:02:34Z</time>
      </trkpt>
      <trkpt lat="37.371694967150688" lon="-6.015068041160703">
        <ele>13.119999999999999</ele>
        <time>2025-05-07T15:02:35Z</time>
      </trkpt>
      <trkpt lat="37.371607040986419" lon="-6.014898978173733">
        <ele>13.6</ele>
        <time>2025-05-07T15:02:36Z</time>
      </trkpt>
      <trkpt lat="37.371518025174737" lon="-6.014731004834175">
        <ele>14.08</ele>
        <time>2025-05-07T15:02:37Z</time>
      </trkpt>
      <trkpt lat="37.371418029069901" lon="-6.014592032879591">
        <ele>14.56</ele>
        <time>2025-05-07T15:02:38Z</time>
      </trkpt>
      <trkpt lat="37.371292971074581" lon="-6.014466974884272">
        <ele>15.039999999999999</ele>
        <time>2025-05-07T15:02:39Z</time>
      </trkpt>
      <trkpt lat="37.37116196192801" lon="-6.01435599848628">
        <ele>15.039999999999999</ele>
        <time>2025-05-07T15:02:40Z</time>
      </trkpt>
      <trkpt lat="37.371016032993793" lon="-6.014262037351728">
        <ele>15.52</ele>
        <time>2025-05-07T15:02:41Z</time>
      </trkpt>
      <trkpt lat="37.370870020240545" lon="-6.014186013489962">
        <ele>16</ele>
        <time>2025-05-07T15:02:42Z</time>
      </trkpt>
      <trkpt lat="37.370715038850904" lon="-6.014143014326692">
        <ele>16</ele>
        <time>2025-05-07T15:02:43Z</time>
      </trkpt>
      <trkpt lat="37.370563996955752" lon="-6.014101020991802">
        <ele>16</ele>
        <time>2025-05-07T15:02:44Z</time>
      </trkpt>
      <trkpt lat="37.370412033051252" lon="-6.014101020991802">
        <ele>16</ele>
        <time>2025-05-07T15:02:45Z</time>
      </trkpt>
      <trkpt lat="37.370231989771128" lon="-6.014113007113338">
        <ele>15.52</ele>
        <time>2025-05-07T15:02:46Z</time>
      </trkpt>
      <trkpt lat="37.370094023644924" lon="-6.014143014326692">
        <ele>15.52</ele>
        <time>2025-05-07T15:02:47Z</time>
      </trkpt>
      <trkpt lat="37.369926972314715" lon="-6.014178972691298">
        <ele>15.039999999999999</ele>
        <time>2025-05-07T15:02:48Z</time>
      </trkpt>
      <trkpt lat="37.368525015190244" lon="-6.014433028176427">
        <ele>13.6</ele>
        <time>2025-05-07T15:02:56Z</time>
      </trkpt>
      <trkpt lat="37.367145018652081" lon="-6.014134967699647">
        <ele>15.52</ele>
        <time>2025-05-07T15:03:05Z</time>
      </trkpt>
      <trkpt lat="37.36581003293395" lon="-6.013134000822902">
        <ele>16.960000000000001</ele>
        <time>2025-05-07T15:03:13Z</time>
      </trkpt>
      <trkpt lat="37.364362981170416" lon="-6.011486034840345">
        <ele>17.920000000000002</ele>
        <time>2025-05-07T15:03:24Z</time>
      </trkpt>
      <trkpt lat="37.362915007397532" lon="-6.009752992540598">
        <ele>21.289999999999999</ele>
        <time>2025-05-07T15:03:35Z</time>
      </trkpt>
      <trkpt lat="37.361710024997592" lon="-6.008321028202772">
        <ele>22.25</ele>
        <time>2025-05-07T15:03:43Z</time>
      </trkpt>
      <trkpt lat="37.360254004597664" lon="-6.006540963426232">
        <ele>23.690000000000001</ele>
        <time>2025-05-07T15:03:54Z</time>
      </trkpt>
      <trkpt lat="37.35871902666986" lon="-6.004731981083751">
        <ele>23.690000000000001</ele>
        <time>2025-05-07T15:04:06Z</time>
      </trkpt>
      <trkpt lat="37.357540028169751" lon="-6.003306973725557">
        <ele>25.129999999999999</ele>
        <time>2025-05-07T15:04:15Z</time>
      </trkpt>
      <trkpt lat="37.356431018561125" lon="-6.002034014090896">
        <ele>28.98</ele>
        <time>2025-05-07T15:04:26Z</time>
      </trkpt>
      <trkpt lat="37.355576986446977" lon="-6.000941013917327">
        <ele>31.379999999999999</ele>
        <time>2025-05-07T15:04:35Z</time>
      </trkpt>
      <trkpt lat="37.354532014578581" lon="-5.999694038182497">
        <ele>32.82</ele>
        <time>2025-05-07T15:04:46Z</time>
      </trkpt>
      <trkpt lat="37.353467009961605" lon="-5.998416971415281">
        <ele>36.670000000000002</ele>
        <time>2025-05-07T15:04:57Z</time>
      </trkpt>
      <trkpt lat="37.352277031168342" lon="-5.996976960450411">
        <ele>42.920000000000002</ele>
        <time>2025-05-07T15:05:11Z</time>
      </trkpt>
      <trkpt lat="37.35141696408391" lon="-5.995981022715569">
        <ele>49.159999999999997</ele>
        <time>2025-05-07T15:05:21Z</time>
      </trkpt>
      <trkpt lat="37.350422032177448" lon="-5.994816021993756">
        <ele>55.409999999999997</ele>
        <time>2025-05-07T15:05:32Z</time>
      </trkpt>
      <trkpt lat="37.349487030878663" lon="-5.99370701238513">
        <ele>64.069999999999993</ele>
        <time>2025-05-07T15:05:42Z</time>
      </trkpt>
      <trkpt lat="37.348452033475041" lon="-5.992478979751468">
        <ele>67.909999999999997</ele>
        <time>2025-05-07T15:05:52Z</time>
      </trkpt>
      <trkpt lat="37.347587021067739" lon="-5.991454040631652">
        <ele>65.510000000000005</ele>
        <time>2025-05-07T15:06:00Z</time>
      </trkpt>
      <trkpt lat="37.346459990367293" lon="-5.990127017721534">
        <ele>59.259999999999998</ele>
        <time>2025-05-07T15:06:11Z</time>
      </trkpt>
      <trkpt lat="37.345293983817101" lon="-5.988799994811416">
        <ele>51.57</ele>
        <time>2025-05-07T15:06:22Z</time>
      </trkpt>
      <trkpt lat="37.344228979200125" lon="-5.987556958571076">
        <ele>44.359999999999999</ele>
        <time>2025-05-07T15:06:33Z</time>
      </trkpt>
      <trkpt lat="37.343323985114694" lon="-5.986496983096004">
        <ele>39.549999999999997</ele>
        <time>2025-05-07T15:06:41Z</time>
      </trkpt>
      <trkpt lat="37.342395018786192" lon="-5.985212959349155">
        <ele>33.299999999999997</ele>
        <time>2025-05-07T15:06:50Z</time>
      </trkpt>
      <trkpt lat="37.341755982488394" lon="-5.983700025826693">
        <ele>28.98</ele>
        <time>2025-05-07T15:06:57Z</time>
      </trkpt>
      <trkpt lat="37.341645006090403" lon="-5.983260981738567">
        <ele>26.57</ele>
        <time>2025-05-07T15:07:00Z</time>
      </trkpt>
      <trkpt lat="37.341082999482751" lon="-5.980512974783778">
        <ele>21.289999999999999</ele>
        <time>2025-05-07T15:07:11Z</time>
      </trkpt>
      <trkpt lat="37.340326029807329" lon="-5.976586975157261">
        <ele>14.08</ele>
        <time>2025-05-07T15:07:27Z</time>
      </trkpt>
      <trkpt lat="37.340138023719192" lon="-5.975248971953988">
        <ele>13.119999999999999</ele>
        <time>2025-05-07T15:07:32Z</time>
      </trkpt>
      <trkpt lat="37.340126037597656" lon="-5.975002963095903">
        <ele>12.630000000000001</ele>
        <time>2025-05-07T15:07:33Z</time>
      </trkpt>
      <trkpt lat="37.340338015928864" lon="-5.973305040970445">
        <ele>9.75</ele>
        <time>2025-05-07T15:07:40Z</time>
      </trkpt>
      <trkpt lat="37.340810000896454" lon="-5.972199970856309">
        <ele>9.27</ele>
        <time>2025-05-07T15:07:46Z</time>
      </trkpt>
      <trkpt lat="37.341808034107089" lon="-5.970304990187287">
        <ele>9.27</ele>
        <time>2025-05-07T15:07:54Z</time>
      </trkpt>
      <trkpt lat="37.343166992068291" lon="-5.968280006200075">
        <ele>6.39</ele>
        <time>2025-05-07T15:08:05Z</time>
      </trkpt>
      <trkpt lat="37.344393013045192" lon="-5.966748967766762">
        <ele>4.94</ele>
        <time>2025-05-07T15:08:14Z</time>
      </trkpt>
      <trkpt lat="37.345956992357969" lon="-5.964949959889054">
        <ele>2.54</ele>
        <time>2025-05-07T15:08:25Z</time>
      </trkpt>
      <trkpt lat="37.347982982173562" lon="-5.962966969236732">
        <ele>3.5</ele>
        <time>2025-05-07T15:08:38Z</time>
      </trkpt>
      <trkpt lat="37.349755000323057" lon="-5.961704989895225">
        <ele>5.42</ele>
        <time>2025-05-07T15:08:48Z</time>
      </trkpt>
      <trkpt lat="37.351884003728628" lon="-5.960504030808806">
        <ele>0.62</ele>
        <time>2025-05-07T15:09:00Z</time>
      </trkpt>
      <trkpt lat="37.354068998247385" lon="-5.959418993443251">
        <ele>3.5</ele>
        <time>2025-05-07T15:09:12Z</time>
      </trkpt>
      <trkpt lat="37.354609966278076" lon="-5.959139037877321">
        <ele>4.46</ele>
        <time>2025-05-07T15:09:15Z</time>
      </trkpt>
      <trkpt lat="37.354781962931156" lon="-5.959040969610214">
        <ele>4.46</ele>
        <time>2025-05-07T15:09:16Z</time>
      </trkpt>
      <trkpt lat="37.356564961373806" lon="-5.957781001925468">
        <ele>3.98</ele>
        <time>2025-05-07T15:09:27Z</time>
      </trkpt>
      <trkpt lat="37.357917968183756" lon="-5.95653897151351">
        <ele>4.94</ele>
        <time>2025-05-07T15:09:35Z</time>
      </trkpt>
      <trkpt lat="37.358770994469523" lon="-5.955674964934588">
        <ele>8.310000000000001</ele>
        <time>2025-05-07T15:09:42Z</time>
      </trkpt>
      <trkpt lat="37.359758969396353" lon="-5.954554975032806">
        <ele>9.75</ele>
        <time>2025-05-07T15:09:51Z</time>
      </trkpt>
      <trkpt lat="37.359983017668128" lon="-5.954268984496594">
        <ele>5.91</ele>
        <time>2025-05-07T15:10:00Z</time>
      </trkpt>
      <trkpt lat="37.360157025977969" lon="-5.953210014849901">
        <ele>5.42</ele>
        <time>2025-05-07T15:10:01Z</time>
      </trkpt>
      <trkpt lat="37.360086031258106" lon="-5.953129967674613">
        <ele>5.42</ele>
        <time>2025-05-07T15:10:02Z</time>
      </trkpt>
      <trkpt lat="37.359974971041083" lon="-5.953066013753414">
        <ele>4.94</ele>
        <time>2025-05-07T15:10:03Z</time>
      </trkpt>
      <trkpt lat="37.359862988814712" lon="-5.953045981004834">
        <ele>4.94</ele>
        <time>2025-05-07T15:10:04Z</time>
      </trkpt>
      <trkpt lat="37.359743965789676" lon="-5.953089985996485">
        <ele>4.94</ele>
        <time>2025-05-07T15:10:05Z</time>
      </trkpt>
      <trkpt lat="37.359613962471485" lon="-5.953146982938051">
        <ele>5.42</ele>
        <time>2025-05-07T15:10:06Z</time>
      </trkpt>
      <trkpt lat="37.359507009387016" lon="-5.953245973214507">
        <ele>5.42</ele>
        <time>2025-05-07T15:10:07Z</time>
      </trkpt>
      <trkpt lat="37.359397960826755" lon="-5.953347980976105">
        <ele>5.91</ele>
        <time>2025-05-07T15:10:08Z</time>
      </trkpt>
      <trkpt lat="37.359290001913905" lon="-5.953459041193128">
        <ele>5.91</ele>
        <time>2025-05-07T15:10:09Z</time>
      </trkpt>
      <trkpt lat="37.359195034950972" lon="-5.953571023419499">
        <ele>5.91</ele>
        <time>2025-05-07T15:10:10Z</time>
      </trkpt>
      <trkpt lat="37.359093027189374" lon="-5.953697003424168">
        <ele>6.39</ele>
        <time>2025-05-07T15:10:11Z</time>
      </trkpt>
      <trkpt lat="37.359058996662498" lon="-5.953833041712642">
        <ele>6.87</ele>
        <time>2025-05-07T15:10:12Z</time>
      </trkpt>
      <trkpt lat="37.359036030247808" lon="-5.95400202088058">
        <ele>7.35</ele>
        <time>2025-05-07T15:10:13Z</time>
      </trkpt>
      <trkpt lat="37.359051033854485" lon="-5.954149039462209">
        <ele>7.35</ele>
        <time>2025-05-07T15:10:14Z</time>
      </trkpt>
      <trkpt lat="37.359116999432445" lon="-5.954307038336992">
        <ele>7.35</ele>
        <time>2025-05-07T15:10:15Z</time>
      </trkpt>
      <trkpt lat="37.359181037172675" lon="-5.954451039433479">
        <ele>7.35</ele>
        <time>2025-05-07T15:10:16Z</time>
      </trkpt>
      <trkpt lat="37.359248008579016" lon="-5.954599985852838">
        <ele>7.35</ele>
        <time>2025-05-07T15:10:17Z</time>
      </trkpt>
      <trkpt lat="37.359396032989025" lon="-5.954912966117263">
        <ele>7.83</ele>
        <time>2025-05-07T15:10:19Z</time>
      </trkpt>
      <trkpt lat="37.360015958547592" lon="-5.956349037587643">
        <ele>8.789999999999999</ele>
        <time>2025-05-07T15:10:27Z</time>
      </trkpt>
      <trkpt lat="37.3605249915272" lon="-5.95780597999692">
        <ele>6.87</ele>
        <time>2025-05-07T15:10:36Z</time>
      </trkpt>
      <trkpt lat="37.360788015648723" lon="-5.958091970533133">
        <ele>6.39</ele>
        <time>2025-05-07T15:10:40Z</time>
      </trkpt>
      <trkpt lat="37.360838977620006" lon="-5.958204036578536">
        <ele>6.87</ele>
        <time>2025-05-07T15:10:41Z</time>
      </trkpt>
      <trkpt lat="37.360952971503139" lon="-5.958422971889377">
        <ele>7.35</ele>
        <time>2025-05-07T15:10:43Z</time>
      </trkpt>
      <trkpt lat="37.361189005896449" lon="-5.958761014044285">
        <ele>6.87</ele>
        <time>2025-05-07T15:10:47Z</time>
      </trkpt>
      <trkpt lat="37.361348010599613" lon="-5.958946002647281">
        <ele>5.91</ele>
        <time>2025-05-07T15:10:54Z</time>
      </trkpt>
      <trkpt lat="37.36136200837791" lon="-5.958995036780834">
        <ele>5.42</ele>
        <time>2025-05-07T15:11:13Z</time>
      </trkpt>
      <trkpt lat="37.361381035298109" lon="-5.959066031500697">
        <ele>4.94</ele>
        <time>2025-05-07T15:11:52Z</time>
      </trkpt>
      <trkpt lat="37.361367959529161" lon="-5.959282033145428">
        <ele>4.46</ele>
        <time>2025-05-07T15:11:57Z</time>
      </trkpt>
      <trkpt lat="37.361481031402946" lon="-5.959568023681641">
        <ele>4.46</ele>
        <time>2025-05-07T15:11:59Z</time>
      </trkpt>
      <trkpt lat="37.361527970060706" lon="-5.959627032279968">
        <ele>4.46</ele>
        <time>2025-05-07T15:12:00Z</time>
      </trkpt>
      <trkpt lat="37.361692003905773" lon="-5.959840016439557">
        <ele>3.98</ele>
        <time>2025-05-07T15:12:03Z</time>
      </trkpt>
      <trkpt lat="37.361742965877056" lon="-5.959905982017517">
        <ele>3.98</ele>
        <time>2025-05-07T15:12:04Z</time>
      </trkpt>
      <trkpt lat="37.362097017467022" lon="-5.959919979795814">
        <ele>3.98</ele>
        <time>2025-05-07T15:12:11Z</time>
      </trkpt>
      <trkpt lat="37.362121995538473" lon="-5.959913022816181">
        <ele>3.98</ele>
        <time>2025-05-07T15:12:12Z</time>
      </trkpt>
      <trkpt lat="37.362142028287053" lon="-5.959907993674278">
        <ele>3.5</ele>
        <time>2025-05-07T15:12:22Z</time>
      </trkpt>
      <trkpt lat="37.362142028287053" lon="-5.959907993674278">
        <ele>3.5</ele>
        <time>2025-05-07T15:12:29Z</time>
      </trkpt>
      <trkpt lat="37.362188966944814" lon="-5.959756029769778">
        <ele>3.02</ele>
        <time>2025-05-07T15:12:30Z</time>
      </trkpt>
      <trkpt lat="37.361975982785225" lon="-5.959476996213198">
        <ele>1.58</ele>
        <time>2025-05-07T15:12:39Z</time>
      </trkpt>
      <trkpt lat="37.36194396391511" lon="-5.959436008706689">
        <ele>-0.34</ele>
        <time>2025-05-07T15:12:49Z</time>
      </trkpt>
      <trkpt lat="37.36194396391511" lon="-5.959436008706689">
        <ele>-0.82</ele>
        <time>2025-05-07T15:12:50Z</time>
      </trkpt>
      <trkpt lat="37.361914040520787" lon="-5.959397032856941">
        <ele>-0.82</ele>
        <time>2025-05-07T15:12:53Z</time>
      </trkpt>
      <trkpt lat="37.362037003040314" lon="-5.959556959569454">
        <ele>-1.79</ele>
        <time>2025-05-07T15:13:03Z</time>
      </trkpt>
      <trkpt lat="37.362037003040314" lon="-5.959556959569454">
        <ele>-2.27</ele>
        <time>2025-05-07T15:13:25Z</time>
      </trkpt>
      <trkpt lat="37.362037003040314" lon="-5.959556959569454">
        <ele>-2.27</ele>
        <time>2025-05-07T15:13:39Z</time>
      </trkpt>
      <trkpt lat="37.362037003040314" lon="-5.959556959569454">
        <ele>-2.27</ele>
        <time>2025-05-07T15:14:10Z</time>
      </trkpt>
      <trkpt lat="37.362037003040314" lon="-5.959556959569454">
        <ele>-2.27</ele>
        <time>2025-05-07T15:14:28Z</time>
      </trkpt>
      <trkpt lat="37.362023005262017" lon="-5.959488982334733">
        <ele>24.649999999999999</ele>
        <time>2025-05-08T06:08:09Z</time>
      </trkpt>
      <trkpt lat="37.362026022747159" lon="-5.959490993991494">
        <ele>24.649999999999999</ele>
        <time>2025-05-08T06:09:02Z</time>
      </trkpt>
      <trkpt lat="37.362024011090398" lon="-5.959483031183481">
        <ele>24.649999999999999</ele>
        <time>2025-05-08T06:09:54Z</time>
      </trkpt>
      <trkpt lat="37.362026022747159" lon="-5.959486970677972">
        <ele>25.129999999999999</ele>
        <time>2025-05-08T06:10:44Z</time>
      </trkpt>
      <trkpt lat="37.362025016918778" lon="-5.959479007869959">
        <ele>25.609999999999999</ele>
        <time>2025-05-08T06:11:33Z</time>
      </trkpt>
      <trkpt lat="37.362045971676707" lon="-5.959493005648255">
        <ele>26.09</ele>
        <time>2025-05-08T06:12:01Z</time>
      </trkpt>
      <trkpt lat="37.362337997183204" lon="-5.959934983402491">
        <ele>15.52</ele>
        <time>2025-05-08T06:12:09Z</time>
      </trkpt>
      <trkpt lat="37.36288801766932" lon="-5.960592040792108">
        <ele>10.710000000000001</ele>
        <time>2025-05-08T06:12:20Z</time>
      </trkpt>
      <trkpt lat="37.363085998222232" lon="-5.96083402633667">
        <ele>10.23</ele>
        <time>2025-05-08T06:12:24Z</time>
      </trkpt>
      <trkpt lat="37.363133020699024" lon="-5.960894040763378">
        <ele>9.75</ele>
        <time>2025-05-08T06:12:25Z</time>
      </trkpt>
      <trkpt lat="37.363484976813197" lon="-5.961351022124291">
        <ele>10.710000000000001</ele>
        <time>2025-05-08T06:12:35Z</time>
      </trkpt>
      <trkpt lat="37.363451030105352" lon="-5.961498962715268">
        <ele>12.630000000000001</ele>
        <time>2025-05-08T06:12:41Z</time>
      </trkpt>
      <trkpt lat="37.363405013456941" lon="-5.961574986577034">
        <ele>12.630000000000001</ele>
        <time>2025-05-08T06:12:42Z</time>
      </trkpt>
      <trkpt lat="37.363394033163786" lon="-5.961594013497233">
        <ele>12.630000000000001</ele>
        <time>2025-05-08T06:12:43Z</time>
      </trkpt>
      <trkpt lat="37.363380035385489" lon="-5.961811020970345">
        <ele>13.119999999999999</ele>
        <time>2025-05-08T06:12:51Z</time>
      </trkpt>
      <trkpt lat="37.363365031778812" lon="-5.961863994598389">
        <ele>13.119999999999999</ele>
        <time>2025-05-08T06:12:52Z</time>
      </trkpt>
      <trkpt lat="37.363286996260285" lon="-5.961911017075181">
        <ele>13.119999999999999</ele>
        <time>2025-05-08T06:12:53Z</time>
      </trkpt>
      <trkpt lat="37.363288002088666" lon="-5.9619100112468">
        <ele>13.119999999999999</ele>
        <time>2025-05-08T06:12:54Z</time>
      </trkpt>
      <trkpt lat="37.363234022632241" lon="-5.961924009025097">
        <ele>13.119999999999999</ele>
        <time>2025-05-08T06:12:55Z</time>
      </trkpt>
      <trkpt lat="37.363256989046931" lon="-5.96173700876534">
        <ele>12.630000000000001</ele>
        <time>2025-05-08T06:12:56Z</time>
      </trkpt>
      <trkpt lat="37.36323201097548" lon="-5.961707001551986">
        <ele>12.630000000000001</ele>
        <time>2025-05-08T06:12:57Z</time>
      </trkpt>
      <trkpt lat="37.363203009590507" lon="-5.961672971025109">
        <ele>12.630000000000001</ele>
        <time>2025-05-08T06:12:58Z</time>
      </trkpt>
      <trkpt lat="37.363170990720391" lon="-5.961635001003742">
        <ele>12.15</ele>
        <time>2025-05-08T06:12:59Z</time>
      </trkpt>
      <trkpt lat="37.363137966021895" lon="-5.961596025153995">
        <ele>11.67</ele>
        <time>2025-05-08T06:13:00Z</time>
      </trkpt>
      <trkpt lat="37.363113993778825" lon="-5.96156501211226">
        <ele>11.67</ele>
        <time>2025-05-08T06:13:01Z</time>
      </trkpt>
      <trkpt lat="37.362782992422581" lon="-5.961163016036153">
        <ele>8.789999999999999</ele>
        <time>2025-05-08T06:13:08Z</time>
      </trkpt>
      <trkpt lat="37.362240012735128" lon="-5.9605129994452">
        <ele>6.87</ele>
        <time>2025-05-08T06:13:17Z</time>
      </trkpt>
      <trkpt lat="37.3620929941535" lon="-5.960334967821837">
        <ele>6.39</ele>
        <time>2025-05-08T06:13:21Z</time>
      </trkpt>
      <trkpt lat="37.362059969455004" lon="-5.960294986143708">
        <ele>6.39</ele>
        <time>2025-05-08T06:13:22Z</time>
      </trkpt>
      <trkpt lat="37.361990986391902" lon="-5.96021200530231">
        <ele>6.87</ele>
        <time>2025-05-08T06:13:24Z</time>
      </trkpt>
      <trkpt lat="37.36189803108573" lon="-5.960100023075938">
        <ele>6.87</ele>
        <time>2025-05-08T06:13:26Z</time>
      </trkpt>
      <trkpt lat="37.361700972542167" lon="-5.959852002561092">
        <ele>6.87</ele>
        <time>2025-05-08T06:13:30Z</time>
      </trkpt>
      <trkpt lat="37.361157992854714" lon="-5.959098972380161">
        <ele>11.19</ele>
        <time>2025-05-08T06:13:39Z</time>
      </trkpt>
      <trkpt lat="37.36039599403739" lon="-5.95774102024734">
        <ele>12.630000000000001</ele>
        <time>2025-05-08T06:13:52Z</time>
      </trkpt>
      <trkpt lat="37.360130036249757" lon="-5.957356039434671">
        <ele>13.119999999999999</ele>
        <time>2025-05-08T06:13:56Z</time>
      </trkpt>
      <trkpt lat="37.360046971589327" lon="-5.957265011966229">
        <ele>13.119999999999999</ele>
        <time>2025-05-08T06:13:57Z</time>
      </trkpt>
      <trkpt lat="37.359974971041083" lon="-5.957185970619321">
        <ele>13.119999999999999</ele>
        <time>2025-05-08T06:13:58Z</time>
      </trkpt>
      <trkpt lat="37.35988100990653" lon="-5.957144983112812">
        <ele>13.119999999999999</ele>
        <time>2025-05-08T06:13:59Z</time>
      </trkpt>
      <trkpt lat="37.359784031286836" lon="-5.957101983949542">
        <ele>13.6</ele>
        <time>2025-05-08T06:14:00Z</time>
      </trkpt>
      <trkpt lat="37.359700966626406" lon="-5.957121010869741">
        <ele>13.6</ele>
        <time>2025-05-08T06:14:01Z</time>
      </trkpt>
      <trkpt lat="37.359596025198698" lon="-5.957146994769573">
        <ele>14.08</ele>
        <time>2025-05-08T06:14:02Z</time>
      </trkpt>
      <trkpt lat="37.359490999951959" lon="-5.957180019468069">
        <ele>14.08</ele>
        <time>2025-05-08T06:14:03Z</time>
      </trkpt>
      <trkpt lat="37.359379017725587" lon="-5.957231987267733">
        <ele>14.56</ele>
        <time>2025-05-08T06:14:04Z</time>
      </trkpt>
      <trkpt lat="37.358801001682878" lon="-5.957499034702778">
        <ele>14.08</ele>
        <time>2025-05-08T06:14:09Z</time>
      </trkpt>
      <trkpt lat="37.35867602750659" lon="-5.957549996674061">
        <ele>14.56</ele>
        <time>2025-05-08T06:14:10Z</time>
      </trkpt>
      <trkpt lat="37.358555998653173" lon="-5.957531975582242">
        <ele>14.56</ele>
        <time>2025-05-08T06:14:11Z</time>
      </trkpt>
      <trkpt lat="37.358434963971376" lon="-5.957485036924481">
        <ele>14.56</ele>
        <time>2025-05-08T06:14:12Z</time>
      </trkpt>
      <trkpt lat="37.358319964259863" lon="-5.957433991134167">
        <ele>15.039999999999999</ele>
        <time>2025-05-08T06:14:13Z</time>
      </trkpt>
      <trkpt lat="37.35820303671062" lon="-5.957383029162884">
        <ele>15.039999999999999</ele>
        <time>2025-05-08T06:14:14Z</time>
      </trkpt>
      <trkpt lat="37.358082002028823" lon="-5.957328965887427">
        <ele>15.039999999999999</ele>
        <time>2025-05-08T06:14:16Z</time>
      </trkpt>
      <trkpt lat="37.357836998999119" lon="-5.957249002531171">
        <ele>15.039999999999999</ele>
        <time>2025-05-08T06:14:17Z</time>
      </trkpt>
      <trkpt lat="37.357721999287605" lon="-5.957244979217649">
        <ele>14.56</ele>
        <time>2025-05-08T06:14:18Z</time>
      </trkpt>
      <trkpt lat="37.357599036768079" lon="-5.957287978380919">
        <ele>14.56</ele>
        <time>2025-05-08T06:14:19Z</time>
      </trkpt>
      <trkpt lat="37.357464004307985" lon="-5.957336006686091">
        <ele>14.56</ele>
        <time>2025-05-08T06:14:20Z</time>
      </trkpt>
      <trkpt lat="37.357349004596472" lon="-5.957413036376238">
        <ele>14.56</ele>
        <time>2025-05-08T06:14:21Z</time>
      </trkpt>
      <trkpt lat="37.355855014175177" lon="-5.958504024893045">
        <ele>15.52</ele>
        <time>2025-05-08T06:14:32Z</time>
      </trkpt>
      <trkpt lat="37.353913011029363" lon="-5.959701966494322">
        <ele>16.48</ele>
        <time>2025-05-08T06:14:44Z</time>
      </trkpt>
      <trkpt lat="37.351848967373371" lon="-5.960716009140015">
        <ele>16</ele>
        <time>2025-05-08T06:14:56Z</time>
      </trkpt>
      <trkpt lat="37.349102972075343" lon="-5.962326005101204">
        <ele>17.920000000000002</ele>
        <time>2025-05-08T06:15:12Z</time>
      </trkpt>
      <trkpt lat="37.347085028886795" lon="-5.963982017710805">
        <ele>16.960000000000001</ele>
        <time>2025-05-08T06:15:25Z</time>
      </trkpt>
      <trkpt lat="37.345203040167689" lon="-5.96603499725461">
        <ele>14.08</ele>
        <time>2025-05-08T06:15:39Z</time>
      </trkpt>
      <trkpt lat="37.343655992299318" lon="-5.967823024839163">
        <ele>11.67</ele>
        <time>2025-05-08T06:15:51Z</time>
      </trkpt>
      <trkpt lat="37.34275502152741" lon="-5.969206038862467">
        <ele>11.67</ele>
        <time>2025-05-08T06:16:00Z</time>
      </trkpt>
      <trkpt lat="37.342269038781524" lon="-5.970629034563899">
        <ele>9.75</ele>
        <time>2025-05-08T06:16:08Z</time>
      </trkpt>
      <trkpt lat="37.341670989990234" lon="-5.972528960555792">
        <ele>8.310000000000001</ele>
        <time>2025-05-08T06:16:19Z</time>
      </trkpt>
      <trkpt lat="37.341560013592243" lon="-5.972787961363792">
        <ele>8.789999999999999</ele>
        <time>2025-05-08T06:16:20Z</time>
      </trkpt>
      <trkpt lat="37.341265976428986" lon="-5.973509978502989">
        <ele>11.19</ele>
        <time>2025-05-08T06:16:24Z</time>
      </trkpt>
      <trkpt lat="37.341164974495769" lon="-5.973655991256237">
        <ele>11.67</ele>
        <time>2025-05-08T06:16:25Z</time>
      </trkpt>
      <trkpt lat="37.341049974784255" lon="-5.973779037594795">
        <ele>12.15</ele>
        <time>2025-05-08T06:16:26Z</time>
      </trkpt>
      <trkpt lat="37.340928018093109" lon="-5.973871992900968">
        <ele>12.15</ele>
        <time>2025-05-08T06:16:27Z</time>
      </trkpt>
      <trkpt lat="37.340806983411312" lon="-5.973964026197791">
        <ele>12.630000000000001</ele>
        <time>2025-05-08T06:16:28Z</time>
      </trkpt>
      <trkpt lat="37.34065099619329" lon="-5.974023034796119">
        <ele>12.630000000000001</ele>
        <time>2025-05-08T06:16:29Z</time>
      </trkpt>
      <trkpt lat="37.340509006753564" lon="-5.974042983725667">
        <ele>13.119999999999999</ele>
        <time>2025-05-08T06:16:30Z</time>
      </trkpt>
      <trkpt lat="37.340379003435373" lon="-5.974062010645866">
        <ele>13.119999999999999</ele>
        <time>2025-05-08T06:16:31Z</time>
      </trkpt>
      <trkpt lat="37.340226033702493" lon="-5.974044995382428">
        <ele>13.6</ele>
        <time>2025-05-08T06:16:32Z</time>
      </trkpt>
      <trkpt lat="37.340098964050412" lon="-5.973987998440862">
        <ele>14.08</ele>
        <time>2025-05-08T06:16:33Z</time>
      </trkpt>
      <trkpt lat="37.339971978217363" lon="-5.973927984014154">
        <ele>14.56</ele>
        <time>2025-05-08T06:16:34Z</time>
      </trkpt>
      <trkpt lat="37.339837029576302" lon="-5.973846009001136">
        <ele>15.039999999999999</ele>
        <time>2025-05-08T06:16:35Z</time>
      </trkpt>
      <trkpt lat="37.339733010157943" lon="-5.973734026774764">
        <ele>15.039999999999999</ele>
        <time>2025-05-08T06:16:36Z</time>
      </trkpt>
      <trkpt lat="37.339627984911203" lon="-5.973622966557741">
        <ele>15.039999999999999</ele>
        <time>2025-05-08T06:16:37Z</time>
      </trkpt>
      <trkpt lat="37.339528994634748" lon="-5.973487012088299">
        <ele>15.52</ele>
        <time>2025-05-08T06:16:38Z</time>
      </trkpt>
      <trkpt lat="37.339449031278491" lon="-5.97333999350667">
        <ele>15.52</ele>
        <time>2025-05-08T06:16:39Z</time>
      </trkpt>
      <trkpt lat="37.339368984103203" lon="-5.973194986581802">
        <ele>15.52</ele>
        <time>2025-05-08T06:16:40Z</time>
      </trkpt>
      <trkpt lat="37.339307041838765" lon="-5.973019972443581">
        <ele>15.52</ele>
        <time>2025-05-08T06:16:41Z</time>
      </trkpt>
      <trkpt lat="37.339266976341605" lon="-5.97284403629601">
        <ele>15.52</ele>
        <time>2025-05-08T06:16:42Z</time>
      </trkpt>
      <trkpt lat="37.33884796500206" lon="-5.971494968980551">
        <ele>14.56</ele>
        <time>2025-05-08T06:16:50Z</time>
      </trkpt>
      <trkpt lat="37.338771019130945" lon="-5.97134099341929">
        <ele>14.08</ele>
        <time>2025-05-08T06:16:51Z</time>
      </trkpt>
      <trkpt lat="37.338674962520599" lon="-5.971197998151183">
        <ele>13.6</ele>
        <time>2025-05-08T06:16:52Z</time>
      </trkpt>
      <trkpt lat="37.338582007214427" lon="-5.971090961247683">
        <ele>13.119999999999999</ele>
        <time>2025-05-08T06:16:53Z</time>
      </trkpt>
      <trkpt lat="37.338429959490895" lon="-5.970989959314466">
        <ele>12.15</ele>
        <time>2025-05-08T06:16:54Z</time>
      </trkpt>
      <trkpt lat="37.338295010849833" lon="-5.970904966816306">
        <ele>11.67</ele>
        <time>2025-05-08T06:16:55Z</time>
      </trkpt>
      <trkpt lat="37.338144974783063" lon="-5.970834977924824">
        <ele>11.19</ele>
        <time>2025-05-08T06:16:56Z</time>
      </trkpt>
      <trkpt lat="37.337993010878563" lon="-5.970763983204961">
        <ele>10.710000000000001</ele>
        <time>2025-05-08T06:16:57Z</time>
      </trkpt>
      <trkpt lat="37.336688032373786" lon="-5.970178004354239">
        <ele>10.710000000000001</ele>
        <time>2025-05-08T06:17:07Z</time>
      </trkpt>
      <trkpt lat="37.336170030757785" lon="-5.969972983002663">
        <ele>11.19</ele>
        <time>2025-05-08T06:17:14Z</time>
      </trkpt>
      <trkpt lat="37.336116973310709" lon="-5.969953034073114">
        <ele>11.19</ele>
        <time>2025-05-08T06:17:15Z</time>
      </trkpt>
      <trkpt lat="37.336067017167807" lon="-5.969933001324534">
        <ele>11.19</ele>
        <time>2025-05-08T06:17:16Z</time>
      </trkpt>
      <trkpt lat="37.336019994691014" lon="-5.969914980232716">
        <ele>11.19</ele>
        <time>2025-05-08T06:17:17Z</time>
      </trkpt>
      <trkpt lat="37.335973978042603" lon="-5.969896959140897">
        <ele>11.67</ele>
        <time>2025-05-08T06:17:18Z</time>
      </trkpt>
      <trkpt lat="37.335764011368155" lon="-5.969823030754924">
        <ele>12.630000000000001</ele>
        <time>2025-05-08T06:17:28Z</time>
      </trkpt>
      <trkpt lat="37.335540968924761" lon="-5.969740971922875">
        <ele>13.119999999999999</ele>
        <time>2025-05-08T06:17:38Z</time>
      </trkpt>
      <trkpt lat="37.33521499671042" lon="-5.969632007181644">
        <ele>14.56</ele>
        <time>2025-05-08T06:17:43Z</time>
      </trkpt>
      <trkpt lat="37.334303967654705" lon="-5.96932296641171">
        <ele>18.879999999999999</ele>
        <time>2025-05-08T06:17:53Z</time>
      </trkpt>
      <trkpt lat="37.333365026861429" lon="-5.968975033611059">
        <ele>20.809999999999999</ele>
        <time>2025-05-08T06:18:02Z</time>
      </trkpt>
      <trkpt lat="37.332292981445789" lon="-5.968583011999726">
        <ele>19.359999999999999</ele>
        <time>2025-05-08T06:18:12Z</time>
      </trkpt>
      <trkpt lat="37.332188040018082" lon="-5.968546969816089">
        <ele>18.879999999999999</ele>
        <time>2025-05-08T06:18:13Z</time>
      </trkpt>
      <trkpt lat="37.332079997286201" lon="-5.968516040593386">
        <ele>18.399999999999999</ele>
        <time>2025-05-08T06:18:14Z</time>
      </trkpt>
      <trkpt lat="37.331299977377057" lon="-5.968279000371695">
        <ele>15.52</ele>
        <time>2025-05-08T06:18:23Z</time>
      </trkpt>
      <trkpt lat="37.331061009317636" lon="-5.968224015086889">
        <ele>14.08</ele>
        <time>2025-05-08T06:18:27Z</time>
      </trkpt>
      <trkpt lat="37.330830004066229" lon="-5.968171963468194">
        <ele>14.08</ele>
        <time>2025-05-08T06:18:36Z</time>
      </trkpt>
      <trkpt lat="37.330803014338017" lon="-5.968171041458845">
        <ele>14.56</ele>
        <time>2025-05-08T06:18:48Z</time>
      </trkpt>
      <trkpt lat="37.330360030755401" lon="-5.968205993995071">
        <ele>15.52</ele>
        <time>2025-05-08T06:18:56Z</time>
      </trkpt>
      <trkpt lat="37.330253999680281" lon="-5.968257961794734">
        <ele>16.48</ele>
        <time>2025-05-08T06:18:58Z</time>
      </trkpt>
      <trkpt lat="37.330203959718347" lon="-5.968281012028456">
        <ele>16.48</ele>
        <time>2025-05-08T06:18:59Z</time>
      </trkpt>
      <trkpt lat="37.330150986090302" lon="-5.968305990099907">
        <ele>16.48</ele>
        <time>2025-05-08T06:19:00Z</time>
      </trkpt>
      <trkpt lat="37.33003699220717" lon="-5.968359969556332">
        <ele>16.48</ele>
        <time>2025-05-08T06:19:02Z</time>
      </trkpt>
      <trkpt lat="37.32997102662921" lon="-5.968390982598066">
        <ele>16.48</ele>
        <time>2025-05-08T06:19:03Z</time>
      </trkpt>
      <trkpt lat="37.3298420291394" lon="-5.968512017279863">
        <ele>16.48</ele>
        <time>2025-05-08T06:19:05Z</time>
      </trkpt>
      <trkpt lat="37.329775979742408" lon="-5.968564990907908">
        <ele>16.48</ele>
        <time>2025-05-08T06:19:06Z</time>
      </trkpt>
      <trkpt lat="37.329710014164448" lon="-5.968617964535952">
        <ele>16.48</ele>
        <time>2025-05-08T06:19:07Z</time>
      </trkpt>
      <trkpt lat="37.329643964767456" lon="-5.968642020598054">
        <ele>16.960000000000001</ele>
        <time>2025-05-08T06:19:08Z</time>
      </trkpt>
      <trkpt lat="37.329566013067961" lon="-5.96863497979939">
        <ele>16.960000000000001</ele>
        <time>2025-05-08T06:19:09Z</time>
      </trkpt>
      <trkpt lat="37.329486971721053" lon="-5.968628022819758">
        <ele>16.960000000000001</ele>
        <time>2025-05-08T06:19:10Z</time>
      </trkpt>
      <trkpt lat="37.329412959516048" lon="-5.96859198063612">
        <ele>16.960000000000001</ele>
        <time>2025-05-08T06:19:11Z</time>
      </trkpt>
      <trkpt lat="37.329355040565133" lon="-5.968525009229779">
        <ele>16.960000000000001</ele>
        <time>2025-05-08T06:19:12Z</time>
      </trkpt>
      <trkpt lat="37.329121017828584" lon="-5.968353012576699">
        <ele>16.48</ele>
        <time>2025-05-08T06:19:15Z</time>
      </trkpt>
      <trkpt lat="37.329018004238605" lon="-5.968395005911589">
        <ele>16.48</ele>
        <time>2025-05-08T06:19:17Z</time>
      </trkpt>
      <trkpt lat="37.328954972326756" lon="-5.96842098981142">
        <ele>16.48</ele>
        <time>2025-05-08T06:19:18Z</time>
      </trkpt>
      <trkpt lat="37.328878026455641" lon="-5.968452002853155">
        <ele>16.48</ele>
        <time>2025-05-08T06:19:19Z</time>
      </trkpt>
      <trkpt lat="37.328792028129101" lon="-5.968487961217761">
        <ele>16.960000000000001</ele>
        <time>2025-05-08T06:19:20Z</time>
      </trkpt>
      <trkpt lat="37.328708041459322" lon="-5.968522997573018">
        <ele>16.960000000000001</ele>
        <time>2025-05-08T06:19:21Z</time>
      </trkpt>
      <trkpt lat="37.327830959111452" lon="-5.968896998092532">
        <ele>20.32</ele>
        <time>2025-05-08T06:19:33Z</time>
      </trkpt>
      <trkpt lat="37.326970975846052" lon="-5.969165973365307">
        <ele>20.809999999999999</ele>
        <time>2025-05-08T06:19:44Z</time>
      </trkpt>
      <trkpt lat="37.326688002794981" lon="-5.969182988628745">
        <ele>20.809999999999999</ele>
        <time>2025-05-08T06:19:47Z</time>
      </trkpt>
      <trkpt lat="37.325802035629749" lon="-5.969070000573993">
        <ele>21.77</ele>
        <time>2025-05-08T06:19:56Z</time>
      </trkpt>
      <trkpt lat="37.324992008507252" lon="-5.968778980895877">
        <ele>22.25</ele>
        <time>2025-05-08T06:20:05Z</time>
      </trkpt>
      <trkpt lat="37.324906010180712" lon="-5.968866990879178">
        <ele>22.25</ele>
        <time>2025-05-08T06:20:06Z</time>
      </trkpt>
      <trkpt lat="37.324830992147326" lon="-5.968879982829094">
        <ele>22.25</ele>
        <time>2025-05-08T06:20:07Z</time>
      </trkpt>
      <trkpt lat="37.324763014912605" lon="-5.968816028907895">
        <ele>22.25</ele>
        <time>2025-05-08T06:20:08Z</time>
      </trkpt>
      <trkpt lat="37.324679028242826" lon="-5.968700023368001">
        <ele>22.25</ele>
        <time>2025-05-08T06:20:09Z</time>
      </trkpt>
      <trkpt lat="37.324511976912618" lon="-5.968659035861492">
        <ele>22.25</ele>
        <time>2025-05-08T06:20:11Z</time>
      </trkpt>
      <trkpt lat="37.324418015778065" lon="-5.968625005334616">
        <ele>22.73</ele>
        <time>2025-05-08T06:20:12Z</time>
      </trkpt>
      <trkpt lat="37.323689963668585" lon="-5.968473041430116">
        <ele>19.359999999999999</ele>
        <time>2025-05-08T06:20:21Z</time>
      </trkpt>
      <trkpt lat="37.323577981442213" lon="-5.968467006459832">
        <ele>18.399999999999999</ele>
        <time>2025-05-08T06:20:28Z</time>
      </trkpt>
      <trkpt lat="37.323413025587797" lon="-5.968458959832788">
        <ele>18.879999999999999</ele>
        <time>2025-05-08T06:20:48Z</time>
      </trkpt>
      <trkpt lat="37.323224013671279" lon="-5.968452002853155">
        <ele>18.879999999999999</ele>
        <time>2025-05-08T06:20:51Z</time>
      </trkpt>
      <trkpt lat="37.323153018951416" lon="-5.968452002853155">
        <ele>18.879999999999999</ele>
        <time>2025-05-08T06:20:52Z</time>
      </trkpt>
      <trkpt lat="37.322837021201849" lon="-5.968479998409748">
        <ele>19.359999999999999</ele>
        <time>2025-05-08T06:20:56Z</time>
      </trkpt>
      <trkpt lat="37.322768960148096" lon="-5.968487039208412">
        <ele>19.359999999999999</ele>
        <time>2025-05-08T06:20:57Z</time>
      </trkpt>
      <trkpt lat="37.322000004351139" lon="-5.968531966209412">
        <ele>19.84</ele>
        <time>2025-05-08T06:21:06Z</time>
      </trkpt>
      <trkpt lat="37.320875991135836" lon="-5.968617964535952">
        <ele>18.879999999999999</ele>
        <time>2025-05-08T06:21:17Z</time>
      </trkpt>
      <trkpt lat="37.320470977574587" lon="-5.968688037246466">
        <ele>18.399999999999999</ele>
        <time>2025-05-08T06:21:21Z</time>
      </trkpt>
      <trkpt lat="37.320427978411317" lon="-5.968719972297549">
        <ele>18.399999999999999</ele>
        <time>2025-05-08T06:21:22Z</time>
      </trkpt>
      <trkpt lat="37.320354972034693" lon="-5.968775041401386">
        <ele>18.399999999999999</ele>
        <time>2025-05-08T06:21:23Z</time>
      </trkpt>
      <trkpt lat="37.320321025326848" lon="-5.968966986984015">
        <ele>18.879999999999999</ele>
        <time>2025-05-08T06:21:24Z</time>
      </trkpt>
      <trkpt lat="37.320295963436365" lon="-5.969033036381006">
        <ele>19.359999999999999</ele>
        <time>2025-05-08T06:21:25Z</time>
      </trkpt>
      <trkpt lat="37.320253970101476" lon="-5.969139989465475">
        <ele>19.359999999999999</ele>
        <time>2025-05-08T06:21:26Z</time>
      </trkpt>
      <trkpt lat="37.320180963724852" lon="-5.969176031649113">
        <ele>19.359999999999999</ele>
        <time>2025-05-08T06:21:27Z</time>
      </trkpt>
      <trkpt lat="37.320079039782286" lon="-5.969221964478493">
        <ele>19.84</ele>
        <time>2025-05-08T06:21:28Z</time>
      </trkpt>
      <trkpt lat="37.319998992606997" lon="-5.969190029427409">
        <ele>19.84</ele>
        <time>2025-05-08T06:21:29Z</time>
      </trkpt>
      <trkpt lat="37.319923974573612" lon="-5.969105958938599">
        <ele>19.84</ele>
        <time>2025-05-08T06:21:30Z</time>
      </trkpt>
      <trkpt lat="37.319869995117188" lon="-5.969031024724245">
        <ele>19.84</ele>
        <time>2025-05-08T06:21:31Z</time>
      </trkpt>
      <trkpt lat="37.319764969870448" lon="-5.968990959227085">
        <ele>19.84</ele>
        <time>2025-05-08T06:21:32Z</time>
      </trkpt>
      <trkpt lat="37.319672014564276" lon="-5.968955000862479">
        <ele>20.32</ele>
        <time>2025-05-08T06:21:33Z</time>
      </trkpt>
      <trkpt lat="37.319590039551258" lon="-5.968923987820745">
        <ele>20.32</ele>
        <time>2025-05-08T06:21:34Z</time>
      </trkpt>
      <trkpt lat="37.319494988769293" lon="-5.968923987820745">
        <ele>20.32</ele>
        <time>2025-05-08T06:21:35Z</time>
      </trkpt>
      <trkpt lat="37.319397004321218" lon="-5.968923987820745">
        <ele>20.32</ele>
        <time>2025-05-08T06:21:36Z</time>
      </trkpt>
      <trkpt lat="37.319313017651439" lon="-5.968923987820745">
        <ele>20.32</ele>
        <time>2025-05-08T06:21:37Z</time>
      </trkpt>
      <trkpt lat="37.319216961041093" lon="-5.968943014740944">
        <ele>20.32</ele>
        <time>2025-05-08T06:21:38Z</time>
      </trkpt>
      <trkpt lat="37.318665012717247" lon="-5.968981990590692">
        <ele>22.25</ele>
        <time>2025-05-08T06:21:46Z</time>
      </trkpt>
      <trkpt lat="37.318599969148636" lon="-5.968986013904214">
        <ele>22.25</ele>
        <time>2025-05-08T06:21:51Z</time>
      </trkpt>
      <trkpt lat="37.318558981642127" lon="-5.968989031389356">
        <ele>22.73</ele>
        <time>2025-05-08T06:21:52Z</time>
      </trkpt>
      <trkpt lat="37.318252036347985" lon="-5.969008980318904">
        <ele>23.210000000000001</ele>
        <time>2025-05-08T06:21:58Z</time>
      </trkpt>
      <trkpt lat="37.318054977804422" lon="-5.969033036381006">
        <ele>23.210000000000001</ele>
        <time>2025-05-08T06:22:01Z</time>
      </trkpt>
      <trkpt lat="37.317985994741321" lon="-5.96906203776598">
        <ele>22.25</ele>
        <time>2025-05-08T06:22:02Z</time>
      </trkpt>
      <trkpt lat="37.317907959222794" lon="-5.969093972817063">
        <ele>21.77</ele>
        <time>2025-05-08T06:22:03Z</time>
      </trkpt>
      <trkpt lat="37.317816009745002" lon="-5.969147030264139">
        <ele>21.289999999999999</ele>
        <time>2025-05-08T06:22:04Z</time>
      </trkpt>
      <trkpt lat="37.317729005590081" lon="-5.969232022762299">
        <ele>20.809999999999999</ele>
        <time>2025-05-08T06:22:05Z</time>
      </trkpt>
      <trkpt lat="37.317681983113289" lon="-5.969309974461794">
        <ele>20.809999999999999</ele>
        <time>2025-05-08T06:22:06Z</time>
      </trkpt>
      <trkpt lat="37.317625992000103" lon="-5.969337970018387">
        <ele>20.809999999999999</ele>
        <time>2025-05-08T06:22:07Z</time>
      </trkpt>
      <trkpt lat="37.317561032250524" lon="-5.969369988888502">
        <ele>20.32</ele>
        <time>2025-05-08T06:22:08Z</time>
      </trkpt>
      <trkpt lat="37.317499006167054" lon="-5.969355991110206">
        <ele>20.32</ele>
        <time>2025-05-08T06:22:09Z</time>
      </trkpt>
      <trkpt lat="37.317434968426824" lon="-5.969309974461794">
        <ele>20.32</ele>
        <time>2025-05-08T06:22:10Z</time>
      </trkpt>
      <trkpt lat="37.317353999242187" lon="-5.969248032197356">
        <ele>20.32</ele>
        <time>2025-05-08T06:22:11Z</time>
      </trkpt>
      <trkpt lat="37.317273030057549" lon="-5.969192963093519">
        <ele>19.84</ele>
        <time>2025-05-08T06:22:12Z</time>
      </trkpt>
      <trkpt lat="37.317091980949044" lon="-5.969067988917232">
        <ele>19.84</ele>
        <time>2025-05-08T06:22:14Z</time>
      </trkpt>
      <trkpt lat="37.316976981237531" lon="-5.969040999189019">
        <ele>19.359999999999999</ele>
        <time>2025-05-08T06:22:15Z</time>
      </trkpt>
      <trkpt lat="37.316870028153062" lon="-5.969058014452457">
        <ele>18.879999999999999</ele>
        <time>2025-05-08T06:22:16Z</time>
      </trkpt>
      <trkpt lat="37.31675997376442" lon="-5.969076035544276">
        <ele>18.399999999999999</ele>
        <time>2025-05-08T06:22:17Z</time>
      </trkpt>
      <trkpt lat="37.316646985709667" lon="-5.969094978645444">
        <ele>18.399999999999999</ele>
        <time>2025-05-08T06:22:18Z</time>
      </trkpt>
      <trkpt lat="37.315219966694713" lon="-5.969351967796683">
        <ele>17.440000000000001</ele>
        <time>2025-05-08T06:22:29Z</time>
      </trkpt>
      <trkpt lat="37.313662022352219" lon="-5.969692021608353">
        <ele>20.32</ele>
        <time>2025-05-08T06:22:39Z</time>
      </trkpt>
      <trkpt lat="37.311856979504228" lon="-5.970068033784628">
        <ele>23.690000000000001</ele>
        <time>2025-05-08T06:22:50Z</time>
      </trkpt>
      <trkpt lat="37.310051014646888" lon="-5.9703319799155">
        <ele>25.129999999999999</ele>
        <time>2025-05-08T06:23:01Z</time>
      </trkpt>
      <trkpt lat="37.308683004230261" lon="-5.970000978559256">
        <ele>24.649999999999999</ele>
        <time>2025-05-08T06:23:09Z</time>
      </trkpt>
      <trkpt lat="37.306699007749557" lon="-5.969297988340259">
        <ele>23.210000000000001</ele>
        <time>2025-05-08T06:23:22Z</time>
      </trkpt>
      <trkpt lat="37.305444991216063" lon="-5.968519980087876">
        <ele>23.210000000000001</ele>
        <time>2025-05-08T06:23:30Z</time>
      </trkpt>
      <trkpt lat="37.303639026358724" lon="-5.96685198135674">
        <ele>25.129999999999999</ele>
        <time>2025-05-08T06:23:42Z</time>
      </trkpt>
      <trkpt lat="37.302573015913367" lon="-5.965116005390883">
        <ele>25.609999999999999</ele>
        <time>2025-05-08T06:23:50Z</time>
      </trkpt>
      <trkpt lat="37.301490996032953" lon="-5.962773011997342">
        <ele>26.57</ele>
        <time>2025-05-08T06:24:01Z</time>
      </trkpt>
      <trkpt lat="37.30045398697257" lon="-5.960588017478585">
        <ele>24.649999999999999</ele>
        <time>2025-05-08T06:24:11Z</time>
      </trkpt>
      <trkpt lat="37.298614997416735" lon="-5.957245985046029">
        <ele>21.77</ele>
        <time>2025-05-08T06:24:27Z</time>
      </trkpt>
      <trkpt lat="37.29677701368928" lon="-5.953906970098615">
        <ele>22.25</ele>
        <time>2025-05-08T06:24:43Z</time>
      </trkpt>
      <trkpt lat="37.295904038473964" lon="-5.952307032421231">
        <ele>19.359999999999999</ele>
        <time>2025-05-08T06:24:52Z</time>
      </trkpt>
      <trkpt lat="37.294255988672376" lon="-5.949381999671459">
        <ele>19.359999999999999</ele>
        <time>2025-05-08T06:25:06Z</time>
      </trkpt>
      <trkpt lat="37.293292991816998" lon="-5.947922039777041">
        <ele>21.289999999999999</ele>
        <time>2025-05-08T06:25:15Z</time>
      </trkpt>
      <trkpt lat="37.291836971417069" lon="-5.94661102630198">
        <ele>24.649999999999999</ele>
        <time>2025-05-08T06:25:26Z</time>
      </trkpt>
      <trkpt lat="37.29140798561275" lon="-5.94626996666193">
        <ele>24.649999999999999</ele>
        <time>2025-05-08T06:25:29Z</time>
      </trkpt>
      <trkpt lat="37.290424033999443" lon="-5.945379976183176">
        <ele>25.609999999999999</ele>
        <time>2025-05-08T06:25:36Z</time>
      </trkpt>
      <trkpt lat="37.289145961403847" lon="-5.94422603957355">
        <ele>32.340000000000003</ele>
        <time>2025-05-08T06:25:46Z</time>
      </trkpt>
      <trkpt lat="37.288533998653293" lon="-5.943720024079084">
        <ele>34.740000000000002</ele>
        <time>2025-05-08T06:25:52Z</time>
      </trkpt>
      <trkpt lat="37.28844003751874" lon="-5.943651041015983">
        <ele>35.229999999999997</ele>
        <time>2025-05-08T06:25:53Z</time>
      </trkpt>
      <trkpt lat="37.288350015878677" lon="-5.943587003275752">
        <ele>35.229999999999997</ele>
        <time>2025-05-08T06:25:55Z</time>
      </trkpt>
      <trkpt lat="37.288182964548469" lon="-5.943464040756226">
        <ele>35.229999999999997</ele>
        <time>2025-05-08T06:25:56Z</time>
      </trkpt>
      <trkpt lat="37.28777602314949" lon="-5.943223983049393">
        <ele>37.149999999999999</ele>
        <time>2025-05-08T06:26:04Z</time>
      </trkpt>
      <trkpt lat="37.287735035642982" lon="-5.943207973614335">
        <ele>37.149999999999999</ele>
        <time>2025-05-08T06:26:09Z</time>
      </trkpt>
      <trkpt lat="37.287529008463025" lon="-5.943193975836039">
        <ele>38.109999999999999</ele>
        <time>2025-05-08T06:26:12Z</time>
      </trkpt>
      <trkpt lat="37.287468994036317" lon="-5.943003036081791">
        <ele>38.590000000000003</ele>
        <time>2025-05-08T06:26:13Z</time>
      </trkpt>
      <trkpt lat="37.287450972944498" lon="-5.942978980019689">
        <ele>38.590000000000003</ele>
        <time>2025-05-08T06:26:14Z</time>
      </trkpt>
      <trkpt lat="37.28685200214386" lon="-5.942360982298851">
        <ele>40.990000000000002</ele>
        <time>2025-05-08T06:26:22Z</time>
      </trkpt>
      <trkpt lat="37.285655988380313" lon="-5.941320033743978">
        <ele>43.880000000000003</ele>
        <time>2025-05-08T06:26:31Z</time>
      </trkpt>
      <trkpt lat="37.284240033477545" lon="-5.940090995281935">
        <ele>42.920000000000002</ele>
        <time>2025-05-08T06:26:42Z</time>
      </trkpt>
      <trkpt lat="37.283205036073923" lon="-5.939161023125053">
        <ele>38.590000000000003</ele>
        <time>2025-05-08T06:26:53Z</time>
      </trkpt>
      <trkpt lat="37.282711006700993" lon="-5.938694989308715">
        <ele>38.590000000000003</ele>
        <time>2025-05-08T06:27:00Z</time>
      </trkpt>
      <trkpt lat="37.282649986445904" lon="-5.938642015680671">
        <ele>39.07</ele>
        <time>2025-05-08T06:27:01Z</time>
      </trkpt>
      <trkpt lat="37.282583015039563" lon="-5.938584012910724">
        <ele>39.549999999999997</ele>
        <time>2025-05-08T06:27:02Z</time>
      </trkpt>
      <trkpt lat="37.282556025311351" lon="-5.938560962677002">
        <ele>40.030000000000001</ele>
        <time>2025-05-08T06:27:03Z</time>
      </trkpt>
      <trkpt lat="37.282349998131394" lon="-5.93853397294879">
        <ele>40.030000000000001</ele>
        <time>2025-05-08T06:27:04Z</time>
      </trkpt>
      <trkpt lat="37.28227699175477" lon="-5.938368011265993">
        <ele>40.509999999999998</ele>
        <time>2025-05-08T06:27:05Z</time>
      </trkpt>
      <trkpt lat="37.282248996198177" lon="-5.938338004052639">
        <ele>40.509999999999998</ele>
        <time>2025-05-08T06:27:06Z</time>
      </trkpt>
      <trkpt lat="37.281398987397552" lon="-5.937569970265031">
        <ele>42.920000000000002</ele>
        <time>2025-05-08T06:27:15Z</time>
      </trkpt>
      <trkpt lat="37.280209008604288" lon="-5.936527010053396">
        <ele>44.359999999999999</ele>
        <time>2025-05-08T06:27:28Z</time>
      </trkpt>
      <trkpt lat="37.279184991493821" lon="-5.935635007917881">
        <ele>43.399999999999999</ele>
        <time>2025-05-08T06:27:41Z</time>
      </trkpt>
      <trkpt lat="37.278786012902856" lon="-5.935435015708208">
        <ele>41.950000000000003</ele>
        <time>2025-05-08T06:27:46Z</time>
      </trkpt>
      <trkpt lat="37.278719041496515" lon="-5.935372989624739">
        <ele>41.469999999999999</ele>
        <time>2025-05-08T06:27:47Z</time>
      </trkpt>
      <trkpt lat="37.277730982750654" lon="-5.934552988037467">
        <ele>40.990000000000002</ele>
        <time>2025-05-08T06:27:59Z</time>
      </trkpt>
      <trkpt lat="37.276544021442533" lon="-5.933445990085602">
        <ele>46.280000000000001</ele>
        <time>2025-05-08T06:28:12Z</time>
      </trkpt>
      <trkpt lat="37.274545021355152" lon="-5.932166995480657">
        <ele>48.68</ele>
        <time>2025-05-08T06:28:30Z</time>
      </trkpt>
      <trkpt lat="37.273669028654695" lon="-5.931622004136443">
        <ele>49.159999999999997</ele>
        <time>2025-05-08T06:28:39Z</time>
      </trkpt>
      <trkpt lat="37.273588981479406" lon="-5.931588979437947">
        <ele>49.159999999999997</ele>
        <time>2025-05-08T06:28:41Z</time>
      </trkpt>
      <trkpt lat="37.273456966504455" lon="-5.931609012186527">
        <ele>49.649999999999999</ele>
        <time>2025-05-08T06:28:42Z</time>
      </trkpt>
      <trkpt lat="37.273397035896778" lon="-5.931562995538116">
        <ele>49.649999999999999</ele>
        <time>2025-05-08T06:28:43Z</time>
      </trkpt>
      <trkpt lat="37.273279018700123" lon="-5.93133500777185">
        <ele>49.649999999999999</ele>
        <time>2025-05-08T06:28:44Z</time>
      </trkpt>
      <trkpt lat="37.273196959868073" lon="-5.931273987516761">
        <ele>49.159999999999997</ele>
        <time>2025-05-08T06:28:45Z</time>
      </trkpt>
      <trkpt lat="37.273108027875423" lon="-5.931213973090053">
        <ele>48.68</ele>
        <time>2025-05-08T06:28:46Z</time>
      </trkpt>
      <trkpt lat="37.271937998011708" lon="-5.930394977331162">
        <ele>47.240000000000002</ele>
        <time>2025-05-08T06:28:56Z</time>
      </trkpt>
      <trkpt lat="37.270277040079236" lon="-5.929041970521212">
        <ele>46.280000000000001</ele>
        <time>2025-05-08T06:29:09Z</time>
      </trkpt>
      <trkpt lat="37.26889100857079" lon="-5.927890967577696">
        <ele>48.68</ele>
        <time>2025-05-08T06:29:21Z</time>
      </trkpt>
      <trkpt lat="37.267994983121753" lon="-5.927149001508951">
        <ele>48.68</ele>
        <time>2025-05-08T06:29:32Z</time>
      </trkpt>
      <trkpt lat="37.267004996538162" lon="-5.926345009356737">
        <ele>47.240000000000002</ele>
        <time>2025-05-08T06:29:42Z</time>
      </trkpt>
      <trkpt lat="37.265987014397979" lon="-5.925439009442926">
        <ele>47.719999999999999</ele>
        <time>2025-05-08T06:29:52Z</time>
      </trkpt>
      <trkpt lat="37.264696033671498" lon="-5.924230003729463">
        <ele>52.530000000000001</ele>
        <time>2025-05-08T06:30:05Z</time>
      </trkpt>
      <trkpt lat="37.263452997431159" lon="-5.922980010509491">
        <ele>53.969999999999999</ele>
        <time>2025-05-08T06:30:19Z</time>
      </trkpt>
      <trkpt lat="37.263124007731676" lon="-5.922606009989977">
        <ele>54.450000000000003</ele>
        <time>2025-05-08T06:30:24Z</time>
      </trkpt>
      <trkpt lat="37.263051001355052" lon="-5.922567034140229">
        <ele>54.450000000000003</ele>
        <time>2025-05-08T06:30:25Z</time>
      </trkpt>
      <trkpt lat="37.262957040220499" lon="-5.922534009441733">
        <ele>54.93</ele>
        <time>2025-05-08T06:30:26Z</time>
      </trkpt>
      <trkpt lat="37.262778002768755" lon="-5.92254800722003">
        <ele>55.409999999999997</ele>
        <time>2025-05-08T06:30:28Z</time>
      </trkpt>
      <trkpt lat="37.262697033584118" lon="-5.92254800722003">
        <ele>55.409999999999997</ele>
        <time>2025-05-08T06:30:29Z</time>
      </trkpt>
      <trkpt lat="37.262612041085958" lon="-5.92250601388514">
        <ele>54.93</ele>
        <time>2025-05-08T06:30:30Z</time>
      </trkpt>
      <trkpt lat="37.262525958940387" lon="-5.92246301472187">
        <ele>55.409999999999997</ele>
        <time>2025-05-08T06:30:31Z</time>
      </trkpt>
      <trkpt lat="37.262454964220524" lon="-5.922394031658769">
        <ele>55.409999999999997</ele>
        <time>2025-05-08T06:30:32Z</time>
      </trkpt>
      <trkpt lat="37.262393021956086" lon="-5.922306021675468">
        <ele>55.890000000000001</ele>
        <time>2025-05-08T06:30:33Z</time>
      </trkpt>
      <trkpt lat="37.262328984215856" lon="-5.922218011692166">
        <ele>55.890000000000001</ele>
        <time>2025-05-08T06:30:34Z</time>
      </trkpt>
      <trkpt lat="37.26227299310267" lon="-5.922123966738582">
        <ele>56.369999999999997</ele>
        <time>2025-05-08T06:30:35Z</time>
      </trkpt>
      <trkpt lat="37.262247009202838" lon="-5.922004021704197">
        <ele>56.369999999999997</ele>
        <time>2025-05-08T06:30:36Z</time>
      </trkpt>
      <trkpt lat="37.262108037248254" lon="-5.921639995649457">
        <ele>57.340000000000003</ele>
        <time>2025-05-08T06:30:39Z</time>
      </trkpt>
      <trkpt lat="37.262041987851262" lon="-5.921545028686523">
        <ele>57.340000000000003</ele>
        <time>2025-05-08T06:30:40Z</time>
      </trkpt>
      <trkpt lat="37.261925982311368" lon="-5.921475039795041">
        <ele>57.340000000000003</ele>
        <time>2025-05-08T06:30:41Z</time>
      </trkpt>
      <trkpt lat="37.261206982657313" lon="-5.920918984338641">
        <ele>56.859999999999999</ele>
        <time>2025-05-08T06:30:48Z</time>
      </trkpt>
      <trkpt lat="37.260955022647977" lon="-5.920695019885898">
        <ele>56.369999999999997</ele>
        <time>2025-05-08T06:30:49Z</time>
      </trkpt>
      <trkpt lat="37.260826025158167" lon="-5.920569961890578">
        <ele>55.890000000000001</ele>
        <time>2025-05-08T06:30:50Z</time>
      </trkpt>
      <trkpt lat="37.259505959227681" lon="-5.91930203139782">
        <ele>53.009999999999998</ele>
        <time>2025-05-08T06:31:00Z</time>
      </trkpt>
      <trkpt lat="37.256957022473216" lon="-5.916888965293765">
        <ele>55.890000000000001</ele>
        <time>2025-05-08T06:31:14Z</time>
      </trkpt>
      <trkpt lat="37.255146028473973" lon="-5.915192971006036">
        <ele>55.890000000000001</ele>
        <time>2025-05-08T06:31:24Z</time>
      </trkpt>
      <trkpt lat="37.253115009516478" lon="-5.913282986730337">
        <ele>56.369999999999997</ele>
        <time>2025-05-08T06:31:35Z</time>
      </trkpt>
      <trkpt lat="37.25133896805346" lon="-5.911929979920387">
        <ele>52.049999999999997</ele>
        <time>2025-05-08T06:31:44Z</time>
      </trkpt>
      <trkpt lat="37.24912497214973" lon="-5.910904034972191">
        <ele>48.200000000000003</ele>
        <time>2025-05-08T06:31:54Z</time>
      </trkpt>
      <trkpt lat="37.246746020391583" lon="-5.910486029461026">
        <ele>45.799999999999997</ele>
        <time>2025-05-08T06:32:04Z</time>
      </trkpt>
      <trkpt lat="37.245180029422045" lon="-5.91055903583765">
        <ele>45.32</ele>
        <time>2025-05-08T06:32:11Z</time>
      </trkpt>
      <trkpt lat="37.243134006857872" lon="-5.91073396615684">
        <ele>45.32</ele>
        <time>2025-05-08T06:32:20Z</time>
      </trkpt>
      <trkpt lat="37.239688038825989" lon="-5.91096798889339">
        <ele>44.840000000000003</ele>
        <time>2025-05-08T06:32:35Z</time>
      </trkpt>
      <trkpt lat="37.23777998238802" lon="-5.911149960011244">
        <ele>45.799999999999997</ele>
        <time>2025-05-08T06:32:45Z</time>
      </trkpt>
      <trkpt lat="37.235254012048244" lon="-5.911202011629939">
        <ele>43.399999999999999</ele>
        <time>2025-05-08T06:32:57Z</time>
      </trkpt>
      <trkpt lat="37.231891024857759" lon="-5.911116013303399">
        <ele>39.549999999999997</ele>
        <time>2025-05-08T06:33:11Z</time>
      </trkpt>
      <trkpt lat="37.226931033656001" lon="-5.910738995298743">
        <ele>34.740000000000002</ele>
        <time>2025-05-08T06:33:31Z</time>
      </trkpt>
      <trkpt lat="37.223712969571352" lon="-5.910315038636327">
        <ele>33.299999999999997</ele>
        <time>2025-05-08T06:33:44Z</time>
      </trkpt>
      <trkpt lat="37.221504002809525" lon="-5.909943971782923">
        <ele>32.82</ele>
        <time>2025-05-08T06:33:53Z</time>
      </trkpt>
      <trkpt lat="37.219273997470737" lon="-5.909598972648382">
        <ele>34.259999999999998</ele>
        <time>2025-05-08T06:34:03Z</time>
      </trkpt>
      <trkpt lat="37.217225041240454" lon="-5.909346006810665">
        <ele>33.299999999999997</ele>
        <time>2025-05-08T06:34:11Z</time>
      </trkpt>
      <trkpt lat="37.214338984340429" lon="-5.909133022651076">
        <ele>31.859999999999999</ele>
        <time>2025-05-08T06:34:20Z</time>
      </trkpt>
      <trkpt lat="37.211539009585977" lon="-5.909045012667775">
        <ele>28.98</ele>
        <time>2025-05-08T06:34:30Z</time>
      </trkpt>
      <trkpt lat="37.208873983472586" lon="-5.909091029316187">
        <ele>29.460000000000001</ele>
        <time>2025-05-08T06:34:40Z</time>
      </trkpt>
      <trkpt lat="37.205849038437009" lon="-5.90931499376893">
        <ele>30.899999999999999</ele>
        <time>2025-05-08T06:34:52Z</time>
      </trkpt>
      <trkpt lat="37.203378975391388" lon="-5.909591009840369">
        <ele>28.98</ele>
        <time>2025-05-08T06:35:02Z</time>
      </trkpt>
      <trkpt lat="37.19992496073246" lon="-5.910123009234667">
        <ele>26.57</ele>
        <time>2025-05-08T06:35:16Z</time>
      </trkpt>
      <trkpt lat="37.196455020457506" lon="-5.910606980323792">
        <ele>24.649999999999999</ele>
        <time>2025-05-08T06:35:30Z</time>
      </trkpt>
      <trkpt lat="37.193961990997195" lon="-5.91086296364665">
        <ele>24.649999999999999</ele>
        <time>2025-05-08T06:35:40Z</time>
      </trkpt>
      <trkpt lat="37.190227014943957" lon="-5.911026997491717">
        <ele>22.73</ele>
        <time>2025-05-08T06:35:56Z</time>
      </trkpt>
      <trkpt lat="37.187997009605169" lon="-5.911057004705071">
        <ele>19.84</ele>
        <time>2025-05-08T06:36:05Z</time>
      </trkpt>
      <trkpt lat="37.184267984703183" lon="-5.910918032750487">
        <ele>19.84</ele>
        <time>2025-05-08T06:36:19Z</time>
      </trkpt>
      <trkpt lat="37.18127497471869" lon="-5.910703958943486">
        <ele>22.25</ele>
        <time>2025-05-08T06:36:31Z</time>
      </trkpt>
      <trkpt lat="37.179044969379902" lon="-5.910439006984234">
        <ele>22.25</ele>
        <time>2025-05-08T06:36:40Z</time>
      </trkpt>
      <trkpt lat="37.176318001002073" lon="-5.910039022564888">
        <ele>23.210000000000001</ele>
        <time>2025-05-08T06:36:51Z</time>
      </trkpt>
      <trkpt lat="37.174890981987119" lon="-5.909779015928507">
        <ele>21.289999999999999</ele>
        <time>2025-05-08T06:36:57Z</time>
      </trkpt>
      <trkpt lat="37.174247000366449" lon="-5.909650018438697">
        <ele>19.359999999999999</ele>
        <time>2025-05-08T06:37:00Z</time>
      </trkpt>
      <trkpt lat="37.172041973099113" lon="-5.909211980178952">
        <ele>15.039999999999999</ele>
        <time>2025-05-08T06:37:10Z</time>
      </trkpt>
      <trkpt lat="37.16902800835669" lon="-5.908725997433066">
        <ele>14.08</ele>
        <time>2025-05-08T06:37:24Z</time>
      </trkpt>
      <trkpt lat="37.166846031323075" lon="-5.908617032691836">
        <ele>15.52</ele>
        <time>2025-05-08T06:37:33Z</time>
      </trkpt>
      <trkpt lat="37.165094967931509" lon="-5.908680986613035">
        <ele>16</ele>
        <time>2025-05-08T06:37:40Z</time>
      </trkpt>
      <trkpt lat="37.162375962361693" lon="-5.909105027094483">
        <ele>15.52</ele>
        <time>2025-05-08T06:37:51Z</time>
      </trkpt>
      <trkpt lat="37.159709008410573" lon="-5.909826960414648">
        <ele>15.039999999999999</ele>
        <time>2025-05-08T06:38:02Z</time>
      </trkpt>
      <trkpt lat="37.157115982845426" lon="-5.91090596280992">
        <ele>10.23</ele>
        <time>2025-05-08T06:38:13Z</time>
      </trkpt>
      <trkpt lat="37.154123978689313" lon="-5.91242702677846">
        <ele>6.87</ele>
        <time>2025-05-08T06:38:26Z</time>
      </trkpt>
      <trkpt lat="37.151776039972901" lon="-5.913512986153364">
        <ele>7.83</ele>
        <time>2025-05-08T06:38:36Z</time>
      </trkpt>
      <trkpt lat="37.148951003327966" lon="-5.914678992703557">
        <ele>4.46</ele>
        <time>2025-05-08T06:38:48Z</time>
      </trkpt>
      <trkpt lat="37.145761018618941" lon="-5.915864026173949">
        <ele>3.02</ele>
        <time>2025-05-08T06:39:01Z</time>
      </trkpt>
      <trkpt lat="37.142640016973019" lon="-5.917208986356854">
        <ele>3.5</ele>
        <time>2025-05-08T06:39:13Z</time>
      </trkpt>
      <trkpt lat="37.14064403437078" lon="-5.918198972940445">
        <ele>5.42</ele>
        <time>2025-05-08T06:39:21Z</time>
      </trkpt>
      <trkpt lat="37.137353969737887" lon="-5.920050032436848">
        <ele>5.91</ele>
        <time>2025-05-08T06:39:35Z</time>
      </trkpt>
      <trkpt lat="37.134632030501962" lon="-5.921766981482506">
        <ele>4.94</ele>
        <time>2025-05-08T06:39:47Z</time>
      </trkpt>
      <trkpt lat="37.131637008860707" lon="-5.92364695854485">
        <ele>1.58</ele>
        <time>2025-05-08T06:40:00Z</time>
      </trkpt>
      <trkpt lat="37.128684986382723" lon="-5.925373965874314">
        <ele>0.62</ele>
        <time>2025-05-08T06:40:14Z</time>
      </trkpt>
      <trkpt lat="37.124535022303462" lon="-5.927492994815111">
        <ele>0.14</ele>
        <time>2025-05-08T06:40:31Z</time>
      </trkpt>
      <trkpt lat="37.120550014078617" lon="-5.929242968559265">
        <ele>0.62</ele>
        <time>2025-05-08T06:40:48Z</time>
      </trkpt>
      <trkpt lat="37.117144027724862" lon="-5.930553982034326">
        <ele>1.1</ele>
        <time>2025-05-08T06:41:01Z</time>
      </trkpt>
      <trkpt lat="37.114256964996457" lon="-5.931518990546465">
        <ele>1.1</ele>
        <time>2025-05-08T06:41:12Z</time>
      </trkpt>
      <trkpt lat="37.109962999820709" lon="-5.932713998481631">
        <ele>0.62</ele>
        <time>2025-05-08T06:41:28Z</time>
      </trkpt>
      <trkpt lat="37.10641703568399" lon="-5.933492006734014">
        <ele>2.54</ele>
        <time>2025-05-08T06:41:41Z</time>
      </trkpt>
      <trkpt lat="37.102860007435083" lon="-5.934119978919625">
        <ele>6.87</ele>
        <time>2025-05-08T06:41:54Z</time>
      </trkpt>
      <trkpt lat="37.098723035305738" lon="-5.934707969427109">
        <ele>8.310000000000001</ele>
        <time>2025-05-08T06:42:09Z</time>
      </trkpt>
      <trkpt lat="37.094868030399084" lon="-5.935280034318566">
        <ele>8.789999999999999</ele>
        <time>2025-05-08T06:42:23Z</time>
      </trkpt>
      <trkpt lat="37.092120023444295" lon="-5.935679012909532">
        <ele>7.83</ele>
        <time>2025-05-08T06:42:33Z</time>
      </trkpt>
      <trkpt lat="37.089094994589686" lon="-5.936116967350245">
        <ele>6.87</ele>
        <time>2025-05-08T06:42:45Z</time>
      </trkpt>
      <trkpt lat="37.085791015997529" lon="-5.936505971476436">
        <ele>7.83</ele>
        <time>2025-05-08T06:42:56Z</time>
      </trkpt>
      <trkpt lat="37.083385996520519" lon="-5.936725996434689">
        <ele>7.35</ele>
        <time>2025-05-08T06:43:05Z</time>
      </trkpt>
      <trkpt lat="37.081974986940622" lon="-5.936779975891113">
        <ele>7.35</ele>
        <time>2025-05-08T06:43:10Z</time>
      </trkpt>
      <trkpt lat="37.079343991354108" lon="-5.936786010861397">
        <ele>6.87</ele>
        <time>2025-05-08T06:43:20Z</time>
      </trkpt>
      <trkpt lat="37.075121020898223" lon="-5.936596998944879">
        <ele>7.83</ele>
        <time>2025-05-08T06:43:36Z</time>
      </trkpt>
      <trkpt lat="37.071287976577878" lon="-5.936125013977289">
        <ele>8.789999999999999</ele>
        <time>2025-05-08T06:43:51Z</time>
      </trkpt>
      <trkpt lat="37.06746599636972" lon="-5.935388999059796">
        <ele>8.310000000000001</ele>
        <time>2025-05-08T06:44:05Z</time>
      </trkpt>
      <trkpt lat="37.064471980556846" lon="-5.934642003849149">
        <ele>4.46</ele>
        <time>2025-05-08T06:44:16Z</time>
      </trkpt>
      <trkpt lat="37.062057992443442" lon="-5.933917975053191">
        <ele>2.06</ele>
        <time>2025-05-08T06:44:25Z</time>
      </trkpt>
      <trkpt lat="37.059135977178812" lon="-5.932894041761756">
        <ele>3.02</ele>
        <time>2025-05-08T06:44:36Z</time>
      </trkpt>
      <trkpt lat="37.05674503929913" lon="-5.931948982179165">
        <ele>4.46</ele>
        <time>2025-05-08T06:44:46Z</time>
      </trkpt>
      <trkpt lat="37.053067982196808" lon="-5.930415010079742">
        <ele>8.310000000000001</ele>
        <time>2025-05-08T06:44:59Z</time>
      </trkpt>
      <trkpt lat="37.050394993275404" lon="-5.92948897741735">
        <ele>9.75</ele>
        <time>2025-05-08T06:45:09Z</time>
      </trkpt>
      <trkpt lat="37.047158991917968" lon="-5.928571997210383">
        <ele>9.27</ele>
        <time>2025-05-08T06:45:21Z</time>
      </trkpt>
      <trkpt lat="37.04415500164032" lon="-5.927914017811418">
        <ele>9.75</ele>
        <time>2025-05-08T06:45:32Z</time>
      </trkpt>
      <trkpt lat="37.041135001927614" lon="-5.927474973723292">
        <ele>10.23</ele>
        <time>2025-05-08T06:45:43Z</time>
      </trkpt>
      <trkpt lat="37.036452032625675" lon="-5.927168028429151">
        <ele>9.27</ele>
        <time>2025-05-08T06:46:00Z</time>
      </trkpt>
      <trkpt lat="37.032566014677286" lon="-5.92729602009058">
        <ele>15.52</ele>
        <time>2025-05-08T06:46:15Z</time>
      </trkpt>
      <trkpt lat="37.028987025842071" lon="-5.927669014781714">
        <ele>10.710000000000001</ele>
        <time>2025-05-08T06:46:27Z</time>
      </trkpt>
      <trkpt lat="37.026532972231507" lon="-5.928084002807736">
        <ele>7.35</ele>
        <time>2025-05-08T06:46:36Z</time>
      </trkpt>
      <trkpt lat="37.024093000218272" lon="-5.928656989708543">
        <ele>6.39</ele>
        <time>2025-05-08T06:46:45Z</time>
      </trkpt>
      <trkpt lat="37.02086697332561" lon="-5.929604982957244">
        <ele>7.35</ele>
        <time>2025-05-08T06:46:57Z</time>
      </trkpt>
      <trkpt lat="37.018731012940407" lon="-5.930359018966556">
        <ele>7.83</ele>
        <time>2025-05-08T06:47:05Z</time>
      </trkpt>
      <trkpt lat="37.016645008698106" lon="-5.931214978918433">
        <ele>8.310000000000001</ele>
        <time>2025-05-08T06:47:13Z</time>
      </trkpt>
      <trkpt lat="37.01407503336668" lon="-5.932408981025219">
        <ele>9.27</ele>
        <time>2025-05-08T06:47:23Z</time>
      </trkpt>
      <trkpt lat="37.012541983276606" lon="-5.933191012591124">
        <ele>9.75</ele>
        <time>2025-05-08T06:47:29Z</time>
      </trkpt>
      <trkpt lat="37.010274007916451" lon="-5.934492973610759">
        <ele>13.119999999999999</ele>
        <time>2025-05-08T06:47:38Z</time>
      </trkpt>
      <trkpt lat="37.007820038124919" lon="-5.936071034520865">
        <ele>20.32</ele>
        <time>2025-05-08T06:47:48Z</time>
      </trkpt>
      <trkpt lat="37.004169970750809" lon="-5.938535984605551">
        <ele>33.780000000000001</ele>
        <time>2025-05-08T06:48:03Z</time>
      </trkpt>
      <trkpt lat="37.001609969884157" lon="-5.939912963658571">
        <ele>44.840000000000003</ele>
        <time>2025-05-08T06:48:13Z</time>
      </trkpt>
      <trkpt lat="36.998949972912669" lon="-5.940935974940658">
        <ele>49.159999999999997</ele>
        <time>2025-05-08T06:48:23Z</time>
      </trkpt>
      <trkpt lat="36.995944976806641" lon="-5.941669978201389">
        <ele>43.880000000000003</ele>
        <time>2025-05-08T06:48:34Z</time>
      </trkpt>
      <trkpt lat="36.992677040398121" lon="-5.94227003864944">
        <ele>33.299999999999997</ele>
        <time>2025-05-08T06:48:46Z</time>
      </trkpt>
      <trkpt lat="36.990027017891407" lon="-5.943132033571601">
        <ele>28.98</ele>
        <time>2025-05-08T06:48:56Z</time>
      </trkpt>
      <trkpt lat="36.987468022853136" lon="-5.944413961842656">
        <ele>26.57</ele>
        <time>2025-05-08T06:49:06Z</time>
      </trkpt>
      <trkpt lat="36.98502603918314" lon="-5.94609503634274">
        <ele>23.210000000000001</ele>
        <time>2025-05-08T06:49:16Z</time>
      </trkpt>
      <trkpt lat="36.982570979744196" lon="-5.94828799366951">
        <ele>19.359999999999999</ele>
        <time>2025-05-08T06:49:27Z</time>
      </trkpt>
      <trkpt lat="36.979415025562048" lon="-5.951656010001898">
        <ele>17.920000000000002</ele>
        <time>2025-05-08T06:49:42Z</time>
      </trkpt>
      <trkpt lat="36.977613000199199" lon="-5.953243961557746">
        <ele>15.039999999999999</ele>
        <time>2025-05-08T06:49:50Z</time>
      </trkpt>
      <trkpt lat="36.975160958245397" lon="-5.954868039116263">
        <ele>13.119999999999999</ele>
        <time>2025-05-08T06:50:00Z</time>
      </trkpt>
      <trkpt lat="36.972325025126338" lon="-5.956229008734226">
        <ele>11.67</ele>
        <time>2025-05-08T06:50:11Z</time>
      </trkpt>
      <trkpt lat="36.969652036204934" lon="-5.957065019756556">
        <ele>10.23</ele>
        <time>2025-05-08T06:50:21Z</time>
      </trkpt>
      <trkpt lat="36.967183984816074" lon="-5.957423010841012">
        <ele>8.789999999999999</ele>
        <time>2025-05-08T06:50:30Z</time>
      </trkpt>
      <trkpt lat="36.964134983718395" lon="-5.957571035251021">
        <ele>8.789999999999999</ele>
        <time>2025-05-08T06:50:41Z</time>
      </trkpt>
      <trkpt lat="36.961385970935225" lon="-5.957799023017287">
        <ele>8.310000000000001</ele>
        <time>2025-05-08T06:50:51Z</time>
      </trkpt>
      <trkpt lat="36.958421040326357" lon="-5.958559010177851">
        <ele>11.19</ele>
        <time>2025-05-08T06:51:02Z</time>
      </trkpt>
      <trkpt lat="36.955538000911474" lon="-5.959791988134384">
        <ele>18.399999999999999</ele>
        <time>2025-05-08T06:51:13Z</time>
      </trkpt>
      <trkpt lat="36.953054023906589" lon="-5.961359990760684">
        <ele>22.73</ele>
        <time>2025-05-08T06:51:23Z</time>
      </trkpt>
      <trkpt lat="36.950471978634596" lon="-5.963386986404657">
        <ele>21.289999999999999</ele>
        <time>2025-05-08T06:51:34Z</time>
      </trkpt>
      <trkpt lat="36.948569035157561" lon="-5.964768994599581">
        <ele>18.399999999999999</ele>
        <time>2025-05-08T06:51:42Z</time>
      </trkpt>
      <trkpt lat="36.946086985990405" lon="-5.966281006112695">
        <ele>11.67</ele>
        <time>2025-05-08T06:51:52Z</time>
      </trkpt>
      <trkpt lat="36.943502007052302" lon="-5.967523958534002">
        <ele>7.35</ele>
        <time>2025-05-08T06:52:02Z</time>
      </trkpt>
      <trkpt lat="36.940907975658774" lon="-5.968454014509916">
        <ele>7.83</ele>
        <time>2025-05-08T06:52:12Z</time>
      </trkpt>
      <trkpt lat="36.939064040780067" lon="-5.968933962285519">
        <ele>10.23</ele>
        <time>2025-05-08T06:52:19Z</time>
      </trkpt>
      <trkpt lat="36.936595989391208" lon="-5.969351967796683">
        <ele>17.440000000000001</ele>
        <time>2025-05-08T06:52:28Z</time>
      </trkpt>
      <trkpt lat="36.932994034141302" lon="-5.969532011076808">
        <ele>20.809999999999999</ele>
        <time>2025-05-08T06:52:41Z</time>
      </trkpt>
      <trkpt lat="36.930238986387849" lon="-5.969364959746599">
        <ele>24.170000000000002</ele>
        <time>2025-05-08T06:52:51Z</time>
      </trkpt>
      <trkpt lat="36.926914975047112" lon="-5.96927703358233">
        <ele>27.530000000000001</ele>
        <time>2025-05-08T06:53:03Z</time>
      </trkpt>
      <trkpt lat="36.922771967947483" lon="-5.96957802772522">
        <ele>26.09</ele>
        <time>2025-05-08T06:53:18Z</time>
      </trkpt>
      <trkpt lat="36.918354034423828" lon="-5.970050012692809">
        <ele>26.57</ele>
        <time>2025-05-08T06:53:34Z</time>
      </trkpt>
      <trkpt lat="36.915030023083091" lon="-5.97018102183938">
        <ele>26.09</ele>
        <time>2025-05-08T06:53:46Z</time>
      </trkpt>
      <trkpt lat="36.911702994257212" lon="-5.970039032399654">
        <ele>28.02</ele>
        <time>2025-05-08T06:53:58Z</time>
      </trkpt>
      <trkpt lat="36.907572979107499" lon="-5.969824958592653">
        <ele>28.5</ele>
        <time>2025-05-08T06:54:13Z</time>
      </trkpt>
      <trkpt lat="36.905101994052529" lon="-5.970040038228035">
        <ele>26.09</ele>
        <time>2025-05-08T06:54:22Z</time>
      </trkpt>
      <trkpt lat="36.902102027088404" lon="-5.970634985715151">
        <ele>26.09</ele>
        <time>2025-05-08T06:54:33Z</time>
      </trkpt>
      <trkpt lat="36.899187974631786" lon="-5.971677023917437">
        <ele>26.57</ele>
        <time>2025-05-08T06:54:44Z</time>
      </trkpt>
      <trkpt lat="36.896128999069333" lon="-5.973238991573453">
        <ele>28.98</ele>
        <time>2025-05-08T06:54:56Z</time>
      </trkpt>
      <trkpt lat="36.892788978293538" lon="-5.975655997171998">
        <ele>33.299999999999997</ele>
        <time>2025-05-08T06:55:10Z</time>
      </trkpt>
      <trkpt lat="36.890569031238556" lon="-5.977748036384583">
        <ele>35.710000000000001</ele>
        <time>2025-05-08T06:55:20Z</time>
      </trkpt>
      <trkpt lat="36.888370960950851" lon="-5.98034399561584">
        <ele>37.630000000000003</ele>
        <time>2025-05-08T06:55:31Z</time>
      </trkpt>
      <trkpt lat="36.885669976472855" lon="-5.984246022999287">
        <ele>40.509999999999998</ele>
        <time>2025-05-08T06:55:46Z</time>
      </trkpt>
      <trkpt lat="36.883343998342752" lon="-5.987194022163749">
        <ele>43.399999999999999</ele>
        <time>2025-05-08T06:55:58Z</time>
      </trkpt>
      <trkpt lat="36.881372993811965" lon="-5.989096965640783">
        <ele>47.240000000000002</ele>
        <time>2025-05-08T06:56:07Z</time>
      </trkpt>
      <trkpt lat="36.879251031205058" lon="-5.990740992128849">
        <ele>50.609999999999999</ele>
        <time>2025-05-08T06:56:17Z</time>
      </trkpt>
      <trkpt lat="36.876736041158438" lon="-5.992207992821932">
        <ele>50.130000000000003</ele>
        <time>2025-05-08T06:56:26Z</time>
      </trkpt>
      <trkpt lat="36.875426033511758" lon="-5.992791960015893">
        <ele>53.009999999999998</ele>
        <time>2025-05-08T06:56:32Z</time>
      </trkpt>
      <trkpt lat="36.87302403151989" lon="-5.993579020723701">
        <ele>54.93</ele>
        <time>2025-05-08T06:56:40Z</time>
      </trkpt>
      <trkpt lat="36.870577018707991" lon="-5.994032984599471">
        <ele>56.369999999999997</ele>
        <time>2025-05-08T06:56:49Z</time>
      </trkpt>
      <trkpt lat="36.86780596151948" lon="-5.994162987917662">
        <ele>59.740000000000002</ele>
        <time>2025-05-08T06:56:59Z</time>
      </trkpt>
      <trkpt lat="36.865319972857833" lon="-5.994215961545706">
        <ele>61.659999999999997</ele>
        <time>2025-05-08T06:57:08Z</time>
      </trkpt>
      <trkpt lat="36.86284102499485" lon="-5.994551992043853">
        <ele>65.510000000000005</ele>
        <time>2025-05-08T06:57:17Z</time>
      </trkpt>
      <trkpt lat="36.860689977183938" lon="-5.99506102502346">
        <ele>67.909999999999997</ele>
        <time>2025-05-08T06:57:25Z</time>
      </trkpt>
      <trkpt lat="36.858294010162354" lon="-5.995912961661816">
        <ele>71.760000000000005</ele>
        <time>2025-05-08T06:57:34Z</time>
      </trkpt>
      <trkpt lat="36.855715988203883" lon="-5.997168989852071">
        <ele>74.640000000000001</ele>
        <time>2025-05-08T06:57:44Z</time>
      </trkpt>
      <trkpt lat="36.853253971785307" lon="-5.998717965558171">
        <ele>77.519999999999996</ele>
        <time>2025-05-08T06:57:54Z</time>
      </trkpt>
      <trkpt lat="36.850944003090262" lon="-6.000597020611167">
        <ele>79.450000000000003</ele>
        <time>2025-05-08T06:58:05Z</time>
      </trkpt>
      <trkpt lat="36.848392970860004" lon="-6.003218963742256">
        <ele>82.329999999999998</ele>
        <time>2025-05-08T06:58:16Z</time>
      </trkpt>
      <trkpt lat="36.846069004386663" lon="-6.005662959069014">
        <ele>83.769999999999996</ele>
        <time>2025-05-08T06:58:27Z</time>
      </trkpt>
      <trkpt lat="36.843299958854914" lon="-6.007986003533006">
        <ele>76.079999999999998</ele>
        <time>2025-05-08T06:58:39Z</time>
      </trkpt>
      <trkpt lat="36.841108007356524" lon="-6.00945501588285">
        <ele>68.870000000000005</ele>
        <time>2025-05-08T06:58:48Z</time>
      </trkpt>
      <trkpt lat="36.839368008077145" lon="-6.010481966659427">
        <ele>63.100000000000001</ele>
        <time>2025-05-08T06:58:55Z</time>
      </trkpt>
      <trkpt lat="36.836944967508316" lon="-6.012111995369196">
        <ele>58.780000000000001</ele>
        <time>2025-05-08T06:59:05Z</time>
      </trkpt>
      <trkpt lat="36.835156017914414" lon="-6.013717968016863">
        <ele>56.859999999999999</ele>
        <time>2025-05-08T06:59:14Z</time>
      </trkpt>
      <trkpt lat="36.833532024174929" lon="-6.015606997534633">
        <ele>56.369999999999997</ele>
        <time>2025-05-08T06:59:21Z</time>
      </trkpt>
      <trkpt lat="36.831697979941964" lon="-6.01817898452282">
        <ele>53.490000000000002</ele>
        <time>2025-05-08T06:59:31Z</time>
      </trkpt>
      <trkpt lat="36.82919698767364" lon="-6.022310005500913">
        <ele>53.009999999999998</ele>
        <time>2025-05-08T06:59:46Z</time>
      </trkpt>
      <trkpt lat="36.827575005590916" lon="-6.025523040443659">
        <ele>48.200000000000003</ele>
        <time>2025-05-08T06:59:57Z</time>
      </trkpt>
      <trkpt lat="36.826182017102838" lon="-6.028505992144346">
        <ele>42.439999999999998</ele>
        <time>2025-05-08T07:00:07Z</time>
      </trkpt>
      <trkpt lat="36.824733959510922" lon="-6.031019976362586">
        <ele>39.07</ele>
        <time>2025-05-08T07:00:16Z</time>
      </trkpt>
      <trkpt lat="36.82292397134006" lon="-6.033159960061312">
        <ele>37.149999999999999</ele>
        <time>2025-05-08T07:00:25Z</time>
      </trkpt>
      <trkpt lat="36.8208600115031" lon="-6.034862995147705">
        <ele>36.189999999999998</ele>
        <time>2025-05-08T07:00:34Z</time>
      </trkpt>
      <trkpt lat="36.818556999787688" lon="-6.036046016961336">
        <ele>37.630000000000003</ele>
        <time>2025-05-08T07:00:43Z</time>
      </trkpt>
      <trkpt lat="36.816214006394148" lon="-6.036837017163634">
        <ele>37.149999999999999</ele>
        <time>2025-05-08T07:00:52Z</time>
      </trkpt>
      <trkpt lat="36.813718965277076" lon="-6.037717033177614">
        <ele>33.780000000000001</ele>
        <time>2025-05-08T07:01:02Z</time>
      </trkpt>
      <trkpt lat="36.811068020761013" lon="-6.038857977837324">
        <ele>26.57</ele>
        <time>2025-05-08T07:01:14Z</time>
      </trkpt>
      <trkpt lat="36.80848496966064" lon="-6.040009986609221">
        <ele>24.170000000000002</ele>
        <time>2025-05-08T07:01:24Z</time>
      </trkpt>
      <trkpt lat="36.806233003735542" lon="-6.04086896404624">
        <ele>24.170000000000002</ele>
        <time>2025-05-08T07:01:33Z</time>
      </trkpt>
      <trkpt lat="36.803546017035842" lon="-6.041678991168737">
        <ele>26.09</ele>
        <time>2025-05-08T07:01:43Z</time>
      </trkpt>
      <trkpt lat="36.80147803388536" lon="-6.042165979743004">
        <ele>26.57</ele>
        <time>2025-05-08T07:01:50Z</time>
      </trkpt>
      <trkpt lat="36.799270994961262" lon="-6.042537968605757">
        <ele>26.57</ele>
        <time>2025-05-08T07:01:58Z</time>
      </trkpt>
      <trkpt lat="36.79707502014935" lon="-6.042777020484209">
        <ele>28.02</ele>
        <time>2025-05-08T07:02:06Z</time>
      </trkpt>
      <trkpt lat="36.79486102424562" lon="-6.042926972731948">
        <ele>28.98</ele>
        <time>2025-05-08T07:02:15Z</time>
      </trkpt>
      <trkpt lat="36.791283963248134" lon="-6.043300973251462">
        <ele>36.189999999999998</ele>
        <time>2025-05-08T07:02:27Z</time>
      </trkpt>
      <trkpt lat="36.788273015990853" lon="-6.04370498098433">
        <ele>41.950000000000003</ele>
        <time>2025-05-08T07:02:38Z</time>
      </trkpt>
      <trkpt lat="36.784928971901536" lon="-6.04385401122272">
        <ele>46.280000000000001</ele>
        <time>2025-05-08T07:02:50Z</time>
      </trkpt>
      <trkpt lat="36.781337996944785" lon="-6.043670028448105">
        <ele>43.880000000000003</ele>
        <time>2025-05-08T07:03:03Z</time>
      </trkpt>
      <trkpt lat="36.778589989989996" lon="-6.043300973251462">
        <ele>42.920000000000002</ele>
        <time>2025-05-08T07:03:14Z</time>
      </trkpt>
      <trkpt lat="36.775027010589838" lon="-6.0426289960742">
        <ele>41.469999999999999</ele>
        <time>2025-05-08T07:03:26Z</time>
      </trkpt>
      <trkpt lat="36.772271040827036" lon="-6.04222297668457">
        <ele>38.109999999999999</ele>
        <time>2025-05-08T07:03:37Z</time>
      </trkpt>
      <trkpt lat="36.768950968980789" lon="-6.042019966989756">
        <ele>34.259999999999998</ele>
        <time>2025-05-08T07:03:48Z</time>
      </trkpt>
      <trkpt lat="36.765360999852419" lon="-6.042067995294929">
        <ele>30.899999999999999</ele>
        <time>2025-05-08T07:04:01Z</time>
      </trkpt>
      <trkpt lat="36.762323984876275" lon="-6.04232900775969">
        <ele>28.98</ele>
        <time>2025-05-08T07:04:12Z</time>
      </trkpt>
      <trkpt lat="36.758478032425046" lon="-6.042967960238457">
        <ele>26.09</ele>
        <time>2025-05-08T07:04:26Z</time>
      </trkpt>
      <trkpt lat="36.755784004926682" lon="-6.043651001527906">
        <ele>25.129999999999999</ele>
        <time>2025-05-08T07:04:36Z</time>
      </trkpt>
      <trkpt lat="36.753754997625947" lon="-6.044258018955588">
        <ele>26.09</ele>
        <time>2025-05-08T07:04:44Z</time>
      </trkpt>
      <trkpt lat="36.751364981755614" lon="-6.045153960585594">
        <ele>25.129999999999999</ele>
        <time>2025-05-08T07:04:53Z</time>
      </trkpt>
      <trkpt lat="36.749030034989119" lon="-6.046129027381539">
        <ele>23.690000000000001</ele>
        <time>2025-05-08T07:05:02Z</time>
      </trkpt>
      <trkpt lat="36.746732974424958" lon="-6.047284975647926">
        <ele>19.359999999999999</ele>
        <time>2025-05-08T07:05:11Z</time>
      </trkpt>
      <trkpt lat="36.744451001286507" lon="-6.048533041030169">
        <ele>14.56</ele>
        <time>2025-05-08T07:05:20Z</time>
      </trkpt>
      <trkpt lat="36.741999965161085" lon="-6.050104983150959">
        <ele>13.119999999999999</ele>
        <time>2025-05-08T07:05:30Z</time>
      </trkpt>
      <trkpt lat="36.739343991503119" lon="-6.052007004618645">
        <ele>11.67</ele>
        <time>2025-05-08T07:05:41Z</time>
      </trkpt>
      <trkpt lat="36.736347964033484" lon="-6.054460974410176">
        <ele>11.67</ele>
        <time>2025-05-08T07:05:54Z</time>
      </trkpt>
      <trkpt lat="36.734569994732738" lon="-6.056108018383384">
        <ele>8.789999999999999</ele>
        <time>2025-05-08T07:06:02Z</time>
      </trkpt>
      <trkpt lat="36.732402015477419" lon="-6.058199973776937">
        <ele>3.02</ele>
        <time>2025-05-08T07:06:12Z</time>
      </trkpt>
      <trkpt lat="36.729731038212776" lon="-6.060652015730739">
        <ele>3.98</ele>
        <time>2025-05-08T07:06:24Z</time>
      </trkpt>
      <trkpt lat="36.726739034056664" lon="-6.063171029090881">
        <ele>7.35</ele>
        <time>2025-05-08T07:06:37Z</time>
      </trkpt>
      <trkpt lat="36.723898993805051" lon="-6.065315958112478">
        <ele>10.23</ele>
        <time>2025-05-08T07:06:49Z</time>
      </trkpt>
      <trkpt lat="36.721973000094295" lon="-6.066678017377853">
        <ele>8.310000000000001</ele>
        <time>2025-05-08T07:06:57Z</time>
      </trkpt>
      <trkpt lat="36.719769984483719" lon="-6.068077040836215">
        <ele>5.42</ele>
        <time>2025-05-08T07:07:06Z</time>
      </trkpt>
      <trkpt lat="36.716987024992704" lon="-6.06969902291894">
        <ele>3.98</ele>
        <time>2025-05-08T07:07:17Z</time>
      </trkpt>
      <trkpt lat="36.713942969217896" lon="-6.071271970868111">
        <ele>3.5</ele>
        <time>2025-05-08T07:07:29Z</time>
      </trkpt>
      <trkpt lat="36.711357990279794" lon="-6.072454992681742">
        <ele>0.62</ele>
        <time>2025-05-08T07:07:39Z</time>
      </trkpt>
      <trkpt lat="36.708459025248885" lon="-6.073624016717076">
        <ele>0.62</ele>
        <time>2025-05-08T07:07:50Z</time>
      </trkpt>
      <trkpt lat="36.705803973600268" lon="-6.074517024680972">
        <ele>0.14</ele>
        <time>2025-05-08T07:08:00Z</time>
      </trkpt>
      <trkpt lat="36.702565960586071" lon="-6.075463006272912">
        <ele>3.02</ele>
        <time>2025-05-08T07:08:12Z</time>
      </trkpt>
      <trkpt lat="36.698212986811996" lon="-6.076542008668184">
        <ele>3.5</ele>
        <time>2025-05-08T07:08:28Z</time>
      </trkpt>
      <trkpt lat="36.69596697203815" lon="-6.077222032472491">
        <ele>3.02</ele>
        <time>2025-05-08T07:08:37Z</time>
      </trkpt>
      <trkpt lat="36.693036993965507" lon="-6.078275972977281">
        <ele>5.42</ele>
        <time>2025-05-08T07:08:48Z</time>
      </trkpt>
      <trkpt lat="36.690383031964302" lon="-6.079533006995916">
        <ele>8.789999999999999</ele>
        <time>2025-05-08T07:08:58Z</time>
      </trkpt>
      <trkpt lat="36.687764022499323" lon="-6.080965977162123">
        <ele>10.23</ele>
        <time>2025-05-08T07:09:08Z</time>
      </trkpt>
      <trkpt lat="36.685534017160535" lon="-6.082399031147361">
        <ele>12.630000000000001</ele>
        <time>2025-05-08T07:09:17Z</time>
      </trkpt>
      <trkpt lat="36.682418966665864" lon="-6.084599029272795">
        <ele>10.710000000000001</ele>
        <time>2025-05-08T07:09:30Z</time>
      </trkpt>
      <trkpt lat="36.67972301132977" lon="-6.086283037438989">
        <ele>6.87</ele>
        <time>2025-05-08T07:09:42Z</time>
      </trkpt>
      <trkpt lat="36.676849024370313" lon="-6.087487014010549">
        <ele>6.87</ele>
        <time>2025-05-08T07:09:52Z</time>
      </trkpt>
      <trkpt lat="36.674412991851568" lon="-6.088106017559767">
        <ele>5.42</ele>
        <time>2025-05-08T07:10:01Z</time>
      </trkpt>
      <trkpt lat="36.671947035938501" lon="-6.088403994217515">
        <ele>5.91</ele>
        <time>2025-05-08T07:10:10Z</time>
      </trkpt>
      <trkpt lat="36.668886970728636" lon="-6.088300980627537">
        <ele>6.87</ele>
        <time>2025-05-08T07:10:21Z</time>
      </trkpt>
      <trkpt lat="36.666421014815569" lon="-6.087825978174806">
        <ele>6.39</ele>
        <time>2025-05-08T07:10:30Z</time>
      </trkpt>
      <trkpt lat="36.664009960368276" lon="-6.087046964094043">
        <ele>9.27</ele>
        <time>2025-05-08T07:10:39Z</time>
      </trkpt>
      <trkpt lat="36.661390028893948" lon="-6.085973996669054">
        <ele>7.83</ele>
        <time>2025-05-08T07:10:49Z</time>
      </trkpt>
      <trkpt lat="36.659249039366841" lon="-6.085259020328522">
        <ele>4.46</ele>
        <time>2025-05-08T07:10:57Z</time>
      </trkpt>
      <trkpt lat="36.65677897632122" lon="-6.084899017587304">
        <ele>3.02</ele>
        <time>2025-05-08T07:11:06Z</time>
      </trkpt>
      <trkpt lat="36.654292987659574" lon="-6.084954002872109">
        <ele>1.1</ele>
        <time>2025-05-08T07:11:15Z</time>
      </trkpt>
      <trkpt lat="36.652111010625958" lon="-6.085363961756229">
        <ele>1.58</ele>
        <time>2025-05-08T07:11:23Z</time>
      </trkpt>
      <trkpt lat="36.64943098090589" lon="-6.086206007748842">
        <ele>3.98</ele>
        <time>2025-05-08T07:11:33Z</time>
      </trkpt>
      <trkpt lat="36.646748017519712" lon="-6.087076971307397">
        <ele>7.35</ele>
        <time>2025-05-08T07:11:43Z</time>
      </trkpt>
      <trkpt lat="36.64442103356123" lon="-6.08766102232039">
        <ele>8.310000000000001</ele>
        <time>2025-05-08T07:11:52Z</time>
      </trkpt>
      <trkpt lat="36.641378989443183" lon="-6.088196961209178">
        <ele>8.789999999999999</ele>
        <time>2025-05-08T07:12:04Z</time>
      </trkpt>
      <trkpt lat="36.638770960271358" lon="-6.088441964238882">
        <ele>7.83</ele>
        <time>2025-05-08T07:12:15Z</time>
      </trkpt>
      <trkpt lat="36.635835031047463" lon="-6.088485969230533">
        <ele>7.35</ele>
        <time>2025-05-08T07:12:25Z</time>
      </trkpt>
      <trkpt lat="36.632790975272655" lon="-6.088205007836223">
        <ele>9.75</ele>
        <time>2025-05-08T07:12:36Z</time>
      </trkpt>
      <trkpt lat="36.630626013502479" lon="-6.087595978751779">
        <ele>9.75</ele>
        <time>2025-05-08T07:12:44Z</time>
      </trkpt>
      <trkpt lat="36.628021001815796" lon="-6.086408011615276">
        <ele>9.27</ele>
        <time>2025-05-08T07:12:54Z</time>
      </trkpt>
      <trkpt lat="36.626175977289677" lon="-6.085667973384261">
        <ele>8.310000000000001</ele>
        <time>2025-05-08T07:13:01Z</time>
      </trkpt>
      <trkpt lat="36.624001963064075" lon="-6.085177967324853">
        <ele>7.83</ele>
        <time>2025-05-08T07:13:09Z</time>
      </trkpt>
      <trkpt lat="36.620708964765072" lon="-6.084602968767285">
        <ele>10.23</ele>
        <time>2025-05-08T07:13:21Z</time>
      </trkpt>
      <trkpt lat="36.618550959974527" lon="-6.084066024050117">
        <ele>11.67</ele>
        <time>2025-05-08T07:13:29Z</time>
      </trkpt>
      <trkpt lat="36.61610503681004" lon="-6.083508040755987">
        <ele>14.08</ele>
        <time>2025-05-08T07:13:38Z</time>
      </trkpt>
      <trkpt lat="36.613902021199465" lon="-6.083267983049154">
        <ele>20.32</ele>
        <time>2025-05-08T07:13:46Z</time>
      </trkpt>
      <trkpt lat="36.610860982909799" lon="-6.083367979153991">
        <ele>24.649999999999999</ele>
        <time>2025-05-08T07:13:57Z</time>
      </trkpt>
      <trkpt lat="36.607861015945673" lon="-6.084000980481505">
        <ele>26.09</ele>
        <time>2025-05-08T07:14:08Z</time>
      </trkpt>
      <trkpt lat="36.604960039258003" lon="-6.085117030888796">
        <ele>26.09</ele>
        <time>2025-05-08T07:14:19Z</time>
      </trkpt>
      <trkpt lat="36.602332983165979" lon="-6.086084973067045">
        <ele>31.859999999999999</ele>
        <time>2025-05-08T07:14:29Z</time>
      </trkpt>
      <trkpt lat="36.600134996697307" lon="-6.086256969720125">
        <ele>38.590000000000003</ele>
        <time>2025-05-08T07:14:37Z</time>
      </trkpt>
      <trkpt lat="36.597955031320453" lon="-6.085804011672735">
        <ele>46.759999999999998</ele>
        <time>2025-05-08T07:14:45Z</time>
      </trkpt>
      <trkpt lat="36.59575997851789" lon="-6.085383994504809">
        <ele>54.93</ele>
        <time>2025-05-08T07:14:53Z</time>
      </trkpt>
      <trkpt lat="36.593560986220837" lon="-6.085481978952885">
        <ele>61.18</ele>
        <time>2025-05-08T07:15:01Z</time>
      </trkpt>
      <trkpt lat="36.591405998915434" lon="-6.086110034957528">
        <ele>65.989999999999995</ele>
        <time>2025-05-08T07:15:09Z</time>
      </trkpt>
      <trkpt lat="36.589397024363279" lon="-6.087303031235933">
        <ele>66.950000000000003</ele>
        <time>2025-05-08T07:15:17Z</time>
      </trkpt>
      <trkpt lat="36.587022012099624" lon="-6.089147971943021">
        <ele>66.469999999999999</ele>
        <time>2025-05-08T07:15:27Z</time>
      </trkpt>
      <trkpt lat="36.585185034200549" lon="-6.090717986226082">
        <ele>64.069999999999993</ele>
        <time>2025-05-08T07:15:35Z</time>
      </trkpt>
      <trkpt lat="36.582999033853412" lon="-6.092797033488751">
        <ele>55.409999999999997</ele>
        <time>2025-05-08T07:15:45Z</time>
      </trkpt>
      <trkpt lat="36.581512000411749" lon="-6.094351960346103">
        <ele>48.200000000000003</ele>
        <time>2025-05-08T07:15:52Z</time>
      </trkpt>
      <trkpt lat="36.579273026436567" lon="-6.0969009809196">
        <ele>42.439999999999998</ele>
        <time>2025-05-08T07:16:03Z</time>
      </trkpt>
      <trkpt lat="36.577541995793581" lon="-6.099106008186936">
        <ele>40.990000000000002</ele>
        <time>2025-05-08T07:16:12Z</time>
      </trkpt>
      <trkpt lat="36.576089998707175" lon="-6.101003000512719">
        <ele>40.990000000000002</ele>
        <time>2025-05-08T07:16:19Z</time>
      </trkpt>
      <trkpt lat="36.574708996340632" lon="-6.10237997956574">
        <ele>37.149999999999999</ele>
        <time>2025-05-08T07:16:25Z</time>
      </trkpt>
      <trkpt lat="36.572996992617846" lon="-6.103460993617773">
        <ele>29.460000000000001</ele>
        <time>2025-05-08T07:16:32Z</time>
      </trkpt>
      <trkpt lat="36.57115900889039" lon="-6.104071028530598">
        <ele>20.809999999999999</ele>
        <time>2025-05-08T07:16:39Z</time>
      </trkpt>
      <trkpt lat="36.569248018786311" lon="-6.104320976883173">
        <ele>11.19</ele>
        <time>2025-05-08T07:16:46Z</time>
      </trkpt>
      <trkpt lat="36.56651996076107" lon="-6.104758009314537">
        <ele>4.94</ele>
        <time>2025-05-08T07:16:56Z</time>
      </trkpt>
      <trkpt lat="36.563869016245008" lon="-6.105700973421335">
        <ele>7.35</ele>
        <time>2025-05-08T07:17:06Z</time>
      </trkpt>
      <trkpt lat="36.561351008713245" lon="-6.107121035456657">
        <ele>10.23</ele>
        <time>2025-05-08T07:17:16Z</time>
      </trkpt>
      <trkpt lat="36.559259975329041" lon="-6.10878299921751">
        <ele>12.630000000000001</ele>
        <time>2025-05-08T07:17:25Z</time>
      </trkpt>
      <trkpt lat="36.5580740198493" lon="-6.110012037679553">
        <ele>14.08</ele>
        <time>2025-05-08T07:17:31Z</time>
      </trkpt>
      <trkpt lat="36.556112989783287" lon="-6.112390989437699">
        <ele>16.960000000000001</ele>
        <time>2025-05-08T07:17:41Z</time>
      </trkpt>
      <trkpt lat="36.554551022127271" lon="-6.114504989236593">
        <ele>17.920000000000002</ele>
        <time>2025-05-08T07:17:49Z</time>
      </trkpt>
      <trkpt lat="36.552787972614169" lon="-6.117209997028112">
        <ele>17.920000000000002</ele>
        <time>2025-05-08T07:17:59Z</time>
      </trkpt>
      <trkpt lat="36.551424991339445" lon="-6.119566988199949">
        <ele>17.920000000000002</ele>
        <time>2025-05-08T07:18:08Z</time>
      </trkpt>
      <trkpt lat="36.549784988164902" lon="-6.12276996485889">
        <ele>18.399999999999999</ele>
        <time>2025-05-08T07:18:20Z</time>
      </trkpt>
      <trkpt lat="36.549080992117524" lon="-6.124311983585358">
        <ele>19.359999999999999</ele>
        <time>2025-05-08T07:18:26Z</time>
      </trkpt>
      <trkpt lat="36.54834195971489" lon="-6.126117026433349">
        <ele>17.440000000000001</ele>
        <time>2025-05-08T07:18:34Z</time>
      </trkpt>
      <trkpt lat="36.547033041715622" lon="-6.129660978913307">
        <ele>13.6</ele>
        <time>2025-05-08T07:18:50Z</time>
      </trkpt>
      <trkpt lat="36.54606300406158" lon="-6.13282598555088">
        <ele>13.119999999999999</ele>
        <time>2025-05-08T07:19:04Z</time>
      </trkpt>
      <trkpt lat="36.545184999704361" lon="-6.136119989678264">
        <ele>15.52</ele>
        <time>2025-05-08T07:19:18Z</time>
      </trkpt>
      <trkpt lat="36.544490978121758" lon="-6.138997999951243">
        <ele>19.84</ele>
        <time>2025-05-08T07:19:29Z</time>
      </trkpt>
      <trkpt lat="36.543809026479721" lon="-6.142025962471962">
        <ele>23.210000000000001</ele>
        <time>2025-05-08T07:19:40Z</time>
      </trkpt>
      <trkpt lat="36.543216006830335" lon="-6.145189041271806">
        <ele>28.98</ele>
        <time>2025-05-08T07:19:51Z</time>
      </trkpt>
      <trkpt lat="36.54266900382936" lon="-6.148276012390852">
        <ele>29.940000000000001</ele>
        <time>2025-05-08T07:20:02Z</time>
      </trkpt>
      <trkpt lat="36.542324004694819" lon="-6.150752026587725">
        <ele>27.050000000000001</ele>
        <time>2025-05-08T07:20:12Z</time>
      </trkpt>
      <trkpt lat="36.542041031643748" lon="-6.15299804136157">
        <ele>22.73</ele>
        <time>2025-05-08T07:20:21Z</time>
      </trkpt>
      <trkpt lat="36.541758980602026" lon="-6.155433990061283">
        <ele>19.84</ele>
        <time>2025-05-08T07:20:31Z</time>
      </trkpt>
      <trkpt lat="36.541513977572322" lon="-6.157994996756315">
        <ele>17.440000000000001</ele>
        <time>2025-05-08T07:20:41Z</time>
      </trkpt>
      <trkpt lat="36.541353967040777" lon="-6.159974969923496">
        <ele>15.039999999999999</ele>
        <time>2025-05-08T07:20:49Z</time>
      </trkpt>
      <trkpt lat="36.541192028671503" lon="-6.162772011011839">
        <ele>11.19</ele>
        <time>2025-05-08T07:21:01Z</time>
      </trkpt>
      <trkpt lat="36.541061019524932" lon="-6.165969036519527">
        <ele>5.91</ele>
        <time>2025-05-08T07:21:15Z</time>
      </trkpt>
      <trkpt lat="36.541021037846804" lon="-6.168487966060638">
        <ele>3.02</ele>
        <time>2025-05-08T07:21:27Z</time>
      </trkpt>
      <trkpt lat="36.541021037846804" lon="-6.169014014303684">
        <ele>3.02</ele>
        <time>2025-05-08T07:21:30Z</time>
      </trkpt>
      <trkpt lat="36.541021037846804" lon="-6.169162038713694">
        <ele>2.54</ele>
        <time>2025-05-08T07:21:31Z</time>
      </trkpt>
      <trkpt lat="36.541262017562985" lon="-6.169226998463273">
        <ele>2.54</ele>
        <time>2025-05-08T07:21:32Z</time>
      </trkpt>
      <trkpt lat="36.541342986747622" lon="-6.169360019266605">
        <ele>2.06</ele>
        <time>2025-05-08T07:21:33Z</time>
      </trkpt>
      <trkpt lat="36.541412975639105" lon="-6.169401006773114">
        <ele>1.58</ele>
        <time>2025-05-08T07:21:34Z</time>
      </trkpt>
      <trkpt lat="36.541523030027747" lon="-6.169464038684964">
        <ele>1.1</ele>
        <time>2025-05-08T07:21:35Z</time>
      </trkpt>
      <trkpt lat="36.541623026132584" lon="-6.169518018141389">
        <ele>0.62</ele>
        <time>2025-05-08T07:21:36Z</time>
      </trkpt>
      <trkpt lat="36.541728973388672" lon="-6.169557999819517">
        <ele>0.62</ele>
        <time>2025-05-08T07:21:37Z</time>
      </trkpt>
      <trkpt lat="36.541839027777314" lon="-6.169565040618181">
        <ele>0.14</ele>
        <time>2025-05-08T07:21:38Z</time>
      </trkpt>
      <trkpt lat="36.541942041367292" lon="-6.169550037011504">
        <ele>0.14</ele>
        <time>2025-05-08T07:21:39Z</time>
      </trkpt>
      <trkpt lat="36.542040025815368" lon="-6.169536039233208">
        <ele>0.14</ele>
        <time>2025-05-08T07:21:40Z</time>
      </trkpt>
      <trkpt lat="36.54213298112154" lon="-6.16952296346426">
        <ele>0.14</ele>
        <time>2025-05-08T07:21:41Z</time>
      </trkpt>
      <trkpt lat="36.542248986661434" lon="-6.16947895847261">
        <ele>0.14</ele>
        <time>2025-05-08T07:21:42Z</time>
      </trkpt>
      <trkpt lat="36.542311012744904" lon="-6.169407041743398">
        <ele>0.14</ele>
        <time>2025-05-08T07:21:43Z</time>
      </trkpt>
      <trkpt lat="36.542358035221696" lon="-6.169352978467941">
        <ele>-0.34</ele>
        <time>2025-05-08T07:21:44Z</time>
      </trkpt>
      <trkpt lat="36.542401034384966" lon="-6.169310985133052">
        <ele>-0.34</ele>
        <time>2025-05-08T07:21:45Z</time>
      </trkpt>
      <trkpt lat="36.542436992749572" lon="-6.169275026768446">
        <ele>-0.34</ele>
        <time>2025-05-08T07:21:46Z</time>
      </trkpt>
      <trkpt lat="36.542502036318183" lon="-6.168951988220215">
        <ele>-0.34</ele>
        <time>2025-05-08T07:21:50Z</time>
      </trkpt>
      <trkpt lat="36.542533971369267" lon="-6.168908989056945">
        <ele>-0.82</ele>
        <time>2025-05-08T07:21:51Z</time>
      </trkpt>
      <trkpt lat="36.542565990239382" lon="-6.168865989893675">
        <ele>-0.82</ele>
        <time>2025-05-08T07:21:52Z</time>
      </trkpt>
      <trkpt lat="36.542565990239382" lon="-6.168865989893675">
        <ele>-0.82</ele>
        <time>2025-05-08T07:21:53Z</time>
      </trkpt>
      <trkpt lat="36.542690964415669" lon="-6.168694999068975">
        <ele>-1.3</ele>
        <time>2025-05-08T07:21:55Z</time>
      </trkpt>
      <trkpt lat="36.542709991335869" lon="-6.168530965223908">
        <ele>-1.3</ele>
        <time>2025-05-08T07:21:56Z</time>
      </trkpt>
      <trkpt lat="36.542718959972262" lon="-6.168449996039271">
        <ele>-1.3</ele>
        <time>2025-05-08T07:21:57Z</time>
      </trkpt>
      <trkpt lat="36.542728012427688" lon="-6.168368021026254">
        <ele>-0.82</ele>
        <time>2025-05-08T07:21:58Z</time>
      </trkpt>
      <trkpt lat="36.542737986892462" lon="-6.168285040184856">
        <ele>-0.82</ele>
        <time>2025-05-08T07:21:59Z</time>
      </trkpt>
      <trkpt lat="36.542747039347887" lon="-6.168202981352806">
        <ele>-0.82</ele>
        <time>2025-05-08T07:22:00Z</time>
      </trkpt>
      <trkpt lat="36.542757013812661" lon="-6.168117988854647">
        <ele>-0.82</ele>
        <time>2025-05-08T07:22:01Z</time>
      </trkpt>
      <trkpt lat="36.542780986055732" lon="-6.167965019121766">
        <ele>-0.82</ele>
        <time>2025-05-08T07:22:02Z</time>
      </trkpt>
      <trkpt lat="36.542780986055732" lon="-6.167965019121766">
        <ele>-0.82</ele>
        <time>2025-05-08T07:22:03Z</time>
      </trkpt>
      <trkpt lat="36.543020037934184" lon="-6.16662098094821">
        <ele>2.06</ele>
        <time>2025-05-08T07:22:14Z</time>
      </trkpt>
      <trkpt lat="36.54372101649642" lon="-6.164921969175339">
        <ele>2.06</ele>
        <time>2025-05-08T07:22:26Z</time>
      </trkpt>
      <trkpt lat="36.544107003137469" lon="-6.16400096565485">
        <ele>2.54</ele>
        <time>2025-05-08T07:22:33Z</time>
      </trkpt>
      <trkpt lat="36.544146984815598" lon="-6.163903987035155">
        <ele>3.02</ele>
        <time>2025-05-08T07:22:34Z</time>
      </trkpt>
      <trkpt lat="36.544224014505744" lon="-6.163717992603779">
        <ele>3.5</ele>
        <time>2025-05-08T07:22:40Z</time>
      </trkpt>
      <trkpt lat="36.544224014505744" lon="-6.163717992603779">
        <ele>3.5</ele>
        <time>2025-05-08T07:23:08Z</time>
      </trkpt>
      <trkpt lat="36.544227031990886" lon="-6.163711035624147">
        <ele>3.5</ele>
        <time>2025-05-08T07:23:16Z</time>
      </trkpt>
      <trkpt lat="36.544229965656996" lon="-6.163703994825482">
        <ele>3.02</ele>
        <time>2025-05-08T07:23:22Z</time>
      </trkpt>
      <trkpt lat="36.544226026162505" lon="-6.163712963461876">
        <ele>2.54</ele>
        <time>2025-05-08T07:23:23Z</time>
      </trkpt>
      <trkpt lat="36.544226026162505" lon="-6.163712963461876">
        <ele>2.06</ele>
        <time>2025-05-08T07:23:24Z</time>
      </trkpt>
      <trkpt lat="36.544226026162505" lon="-6.163712963461876">
        <ele>1.58</ele>
        <time>2025-05-08T07:23:25Z</time>
      </trkpt>
      <trkpt lat="36.544205993413925" lon="-6.163760991767049">
        <ele>1.58</ele>
        <time>2025-05-08T07:23:26Z</time>
      </trkpt>
      <trkpt lat="36.544189983978868" lon="-6.163798961788416">
        <ele>2.06</ele>
        <time>2025-05-08T07:23:27Z</time>
      </trkpt>
      <trkpt lat="36.544169029220939" lon="-6.16384900175035">
        <ele>2.06</ele>
        <time>2025-05-08T07:23:28Z</time>
      </trkpt>
      <trkpt lat="36.544140027835965" lon="-6.163919996470213">
        <ele>2.06</ele>
        <time>2025-05-08T07:23:29Z</time>
      </trkpt>
      <trkpt lat="36.543754041194916" lon="-6.164847034960985">
        <ele>1.58</ele>
        <time>2025-05-08T07:23:37Z</time>
      </trkpt>
      <trkpt lat="36.543219024315476" lon="-6.166097028180957">
        <ele>1.1</ele>
        <time>2025-05-08T07:23:46Z</time>
      </trkpt>
      <trkpt lat="36.542837982997298" lon="-6.167514994740486">
        <ele>0.62</ele>
        <time>2025-05-08T07:23:55Z</time>
      </trkpt>
      <trkpt lat="36.542780986055732" lon="-6.167879020795226">
        <ele>0.14</ele>
        <time>2025-05-08T07:23:57Z</time>
      </trkpt>
      <trkpt lat="36.542720971629024" lon="-6.168434992432594">
        <ele>-0.82</ele>
        <time>2025-05-08T07:24:00Z</time>
      </trkpt>
      <trkpt lat="36.542683001607656" lon="-6.168762976303697">
        <ele>-1.79</ele>
        <time>2025-05-08T07:24:05Z</time>
      </trkpt>
      <trkpt lat="36.542780986055732" lon="-6.168908989056945">
        <ele>-1.3</ele>
        <time>2025-05-08T07:24:13Z</time>
      </trkpt>
      <trkpt lat="36.542780986055732" lon="-6.168909994885325">
        <ele>-1.3</ele>
        <time>2025-05-08T07:24:15Z</time>
      </trkpt>
      <trkpt lat="36.542813004925847" lon="-6.169130019843578">
        <ele>-0.82</ele>
        <time>2025-05-08T07:24:16Z</time>
      </trkpt>
      <trkpt lat="36.542781991884112" lon="-6.169205959886313">
        <ele>-0.82</ele>
        <time>2025-05-08T07:24:17Z</time>
      </trkpt>
      <trkpt lat="36.542698005214334" lon="-6.169259017333388">
        <ele>-0.34</ele>
        <time>2025-05-08T07:24:18Z</time>
      </trkpt>
      <trkpt lat="36.542674032971263" lon="-6.169274020940065">
        <ele>-0.34</ele>
        <time>2025-05-08T07:24:19Z</time>
      </trkpt>
      <trkpt lat="36.542485021054745" lon="-6.169225992634893">
        <ele>0.14</ele>
        <time>2025-05-08T07:24:20Z</time>
      </trkpt>
      <trkpt lat="36.542419977486134" lon="-6.169291958212853">
        <ele>0.14</ele>
        <time>2025-05-08T07:24:21Z</time>
      </trkpt>
      <trkpt lat="36.542345965281129" lon="-6.169365970417857">
        <ele>0.62</ele>
        <time>2025-05-08T07:24:22Z</time>
      </trkpt>
      <trkpt lat="36.542063998058438" lon="-6.169577026739717">
        <ele>3.02</ele>
        <time>2025-05-08T07:24:25Z</time>
      </trkpt>
      <trkpt lat="36.541937012225389" lon="-6.169630000367761">
        <ele>3.5</ele>
        <time>2025-05-08T07:24:26Z</time>
      </trkpt>
      <trkpt lat="36.541801979765296" lon="-6.169681968167424">
        <ele>3.98</ele>
        <time>2025-05-08T07:24:27Z</time>
      </trkpt>
      <trkpt lat="36.5413579903543" lon="-6.169703006744385">
        <ele>5.91</ele>
        <time>2025-05-08T07:24:30Z</time>
      </trkpt>
      <trkpt lat="36.540067009627819" lon="-6.16979998536408">
        <ele>6.39</ele>
        <time>2025-05-08T07:24:39Z</time>
      </trkpt>
      <trkpt lat="36.539668031036854" lon="-6.169915990903974">
        <ele>4.94</ele>
        <time>2025-05-08T07:24:42Z</time>
      </trkpt>
      <trkpt lat="36.539559988304973" lon="-6.169962007552385">
        <ele>4.94</ele>
        <time>2025-05-08T07:24:43Z</time>
      </trkpt>
      <trkpt lat="36.539225969463587" lon="-6.170189995318651">
        <ele>5.42</ele>
        <time>2025-05-08T07:24:47Z</time>
      </trkpt>
      <trkpt lat="36.538982978090644" lon="-6.170389987528324">
        <ele>6.39</ele>
        <time>2025-05-08T07:24:51Z</time>
      </trkpt>
      <trkpt lat="36.538933021947742" lon="-6.170440027490258">
        <ele>6.87</ele>
        <time>2025-05-08T07:24:52Z</time>
      </trkpt>
      <trkpt lat="36.538768988102674" lon="-6.170603977516294">
        <ele>8.310000000000001</ele>
        <time>2025-05-08T07:24:55Z</time>
      </trkpt>
      <trkpt lat="36.538721965625882" lon="-6.170672960579395">
        <ele>8.789999999999999</ele>
        <time>2025-05-08T07:24:56Z</time>
      </trkpt>
      <trkpt lat="36.538700005039573" lon="-6.170825008302927">
        <ele>10.710000000000001</ele>
        <time>2025-05-08T07:24:59Z</time>
      </trkpt>
      <trkpt lat="36.538669997826219" lon="-6.170870019122958">
        <ele>11.19</ele>
        <time>2025-05-08T07:25:00Z</time>
      </trkpt>
      <trkpt lat="36.538646025583148" lon="-6.170923998579383">
        <ele>11.67</ele>
        <time>2025-05-08T07:25:01Z</time>
      </trkpt>
      <trkpt lat="36.538313012570143" lon="-6.171621959656477">
        <ele>15.039999999999999</ele>
        <time>2025-05-08T07:25:09Z</time>
      </trkpt>
      <trkpt lat="36.537785958498716" lon="-6.172655029222369">
        <ele>14.08</ele>
        <time>2025-05-08T07:25:19Z</time>
      </trkpt>
      <trkpt lat="36.53742503374815" lon="-6.173401018604636">
        <ele>14.08</ele>
        <time>2025-05-08T07:25:28Z</time>
      </trkpt>
      <trkpt lat="36.537079028785229" lon="-6.174111971631646">
        <ele>16</ele>
        <time>2025-05-08T07:25:36Z</time>
      </trkpt>
      <trkpt lat="36.536986995488405" lon="-6.174284974113107">
        <ele>16</ele>
        <time>2025-05-08T07:25:38Z</time>
      </trkpt>
      <trkpt lat="36.536943996325135" lon="-6.174364015460014">
        <ele>16.48</ele>
        <time>2025-05-08T07:25:39Z</time>
      </trkpt>
      <trkpt lat="36.536530014127493" lon="-6.175231039524078">
        <ele>20.809999999999999</ele>
        <time>2025-05-08T07:25:49Z</time>
      </trkpt>
      <trkpt lat="36.536344019696116" lon="-6.175690032541752">
        <ele>22.73</ele>
        <time>2025-05-08T07:25:57Z</time>
      </trkpt>
      <trkpt lat="36.536303032189608" lon="-6.175744011998177">
        <ele>22.73</ele>
        <time>2025-05-08T07:25:59Z</time>
      </trkpt>
      <trkpt lat="36.536278976127505" lon="-6.175776030868292">
        <ele>23.210000000000001</ele>
        <time>2025-05-08T07:26:00Z</time>
      </trkpt>
      <trkpt lat="36.536217033863068" lon="-6.175849959254265">
        <ele>23.210000000000001</ele>
        <time>2025-05-08T07:26:02Z</time>
      </trkpt>
      <trkpt lat="36.536172023043036" lon="-6.175904022529721">
        <ele>23.210000000000001</ele>
        <time>2025-05-08T07:26:03Z</time>
      </trkpt>
      <trkpt lat="36.536059034988284" lon="-6.17605003528297">
        <ele>22.73</ele>
        <time>2025-05-08T07:26:05Z</time>
      </trkpt>
      <trkpt lat="36.53562200255692" lon="-6.176618998870254">
        <ele>21.289999999999999</ele>
        <time>2025-05-08T07:26:15Z</time>
      </trkpt>
      <trkpt lat="36.53551303781569" lon="-6.176747996360064">
        <ele>21.289999999999999</ele>
        <time>2025-05-08T07:26:17Z</time>
      </trkpt>
      <trkpt lat="36.535461992025375" lon="-6.176809016615152">
        <ele>21.289999999999999</ele>
        <time>2025-05-08T07:26:18Z</time>
      </trkpt>
      <trkpt lat="36.535416981205344" lon="-6.176861990243197">
        <ele>20.809999999999999</ele>
        <time>2025-05-08T07:26:19Z</time>
      </trkpt>
      <trkpt lat="36.535253031179309" lon="-6.177080003544688">
        <ele>19.84</ele>
        <time>2025-05-08T07:26:23Z</time>
      </trkpt>
      <trkpt lat="36.535176001489162" lon="-6.177159966900945">
        <ele>19.359999999999999</ele>
        <time>2025-05-08T07:26:25Z</time>
      </trkpt>
      <trkpt lat="36.535139959305525" lon="-6.177205983549357">
        <ele>18.879999999999999</ele>
        <time>2025-05-08T07:26:26Z</time>
      </trkpt>
      <trkpt lat="36.535054966807365" lon="-6.177314026281238">
        <ele>18.879999999999999</ele>
        <time>2025-05-08T07:26:28Z</time>
      </trkpt>
      <trkpt lat="36.535010961815715" lon="-6.177370017394424">
        <ele>18.879999999999999</ele>
        <time>2025-05-08T07:26:29Z</time>
      </trkpt>
      <trkpt lat="36.534803006798029" lon="-6.177643015980721">
        <ele>17.920000000000002</ele>
        <time>2025-05-08T07:26:34Z</time>
      </trkpt>
      <trkpt lat="36.534780962392688" lon="-6.17794300429523">
        <ele>16</ele>
        <time>2025-05-08T07:26:40Z</time>
      </trkpt>
      <trkpt lat="36.535100983455777" lon="-6.178506016731262">
        <ele>15.52</ele>
        <time>2025-05-08T07:26:47Z</time>
      </trkpt>
      <trkpt lat="36.535652009770274" lon="-6.179479993879795">
        <ele>15.039999999999999</ele>
        <time>2025-05-08T07:26:58Z</time>
      </trkpt>
      <trkpt lat="36.535796010866761" lon="-6.179704964160919">
        <ele>14.08</ele>
        <time>2025-05-08T07:27:02Z</time>
      </trkpt>
      <trkpt lat="36.535806991159916" lon="-6.179723991081119">
        <ele>13.6</ele>
        <time>2025-05-08T07:27:03Z</time>
      </trkpt>
      <trkpt lat="36.535886032506824" lon="-6.179752992466092">
        <ele>13.6</ele>
        <time>2025-05-08T07:27:04Z</time>
      </trkpt>
      <trkpt lat="36.535908998921514" lon="-6.179798003286123">
        <ele>13.6</ele>
        <time>2025-05-08T07:27:05Z</time>
      </trkpt>
      <trkpt lat="36.535892989486456" lon="-6.179852988570929">
        <ele>13.119999999999999</ele>
        <time>2025-05-08T07:27:06Z</time>
      </trkpt>
      <trkpt lat="36.535871028900146" lon="-6.179894981905818">
        <ele>13.119999999999999</ele>
        <time>2025-05-08T07:27:07Z</time>
      </trkpt>
      <trkpt lat="36.535828029736876" lon="-6.179887019097805">
        <ele>13.119999999999999</ele>
        <time>2025-05-08T07:27:08Z</time>
      </trkpt>
      <trkpt lat="36.53573096729815" lon="-6.179888024926186">
        <ele>12.15</ele>
        <time>2025-05-08T07:27:09Z</time>
      </trkpt>
      <trkpt lat="36.535307010635734" lon="-6.180118024349213">
        <ele>10.23</ele>
        <time>2025-05-08T07:27:14Z</time>
      </trkpt>
      <trkpt lat="36.534428000450134" lon="-6.180869964882731">
        <ele>8.310000000000001</ele>
        <time>2025-05-08T07:27:24Z</time>
      </trkpt>
      <trkpt lat="36.533713024109602" lon="-6.181779988110066">
        <ele>6.39</ele>
        <time>2025-05-08T07:27:34Z</time>
      </trkpt>
      <trkpt lat="36.533313961699605" lon="-6.18238901719451">
        <ele>6.39</ele>
        <time>2025-05-08T07:27:44Z</time>
      </trkpt>
      <trkpt lat="36.533281020820141" lon="-6.182431010529399">
        <ele>6.39</ele>
        <time>2025-05-08T07:27:45Z</time>
      </trkpt>
      <trkpt lat="36.533254031091928" lon="-6.182465041056275">
        <ele>6.39</ele>
        <time>2025-05-08T07:27:46Z</time>
      </trkpt>
      <trkpt lat="36.533283032476902" lon="-6.182704009115696">
        <ele>5.91</ele>
        <time>2025-05-08T07:27:49Z</time>
      </trkpt>
      <trkpt lat="36.533218994736671" lon="-6.182791013270617">
        <ele>5.91</ele>
        <time>2025-05-08T07:27:50Z</time>
      </trkpt>
      <trkpt lat="36.533145988360047" lon="-6.182807022705674">
        <ele>5.91</ele>
        <time>2025-05-08T07:27:51Z</time>
      </trkpt>
      <trkpt lat="36.533093014732003" lon="-6.182797970250249">
        <ele>5.42</ele>
        <time>2025-05-08T07:27:52Z</time>
      </trkpt>
      <trkpt lat="36.533026965335011" lon="-6.182837029919028">
        <ele>4.94</ele>
        <time>2025-05-08T07:27:53Z</time>
      </trkpt>
      <trkpt lat="36.53297902084887" lon="-6.182899978011847">
        <ele>4.94</ele>
        <time>2025-05-08T07:27:54Z</time>
      </trkpt>
      <trkpt lat="36.532931998372078" lon="-6.182964015752077">
        <ele>4.94</ele>
        <time>2025-05-08T07:27:55Z</time>
      </trkpt>
      <trkpt lat="36.532402010634542" lon="-6.183736994862557">
        <ele>5.42</ele>
        <time>2025-05-08T07:28:06Z</time>
      </trkpt>
      <trkpt lat="36.532033961266279" lon="-6.184118958190084">
        <ele>3.98</ele>
        <time>2025-05-08T07:28:13Z</time>
      </trkpt>
      <trkpt lat="36.53197000734508" lon="-6.184162041172385">
        <ele>3.5</ele>
        <time>2025-05-08T07:28:14Z</time>
      </trkpt>
      <trkpt lat="36.531771020963788" lon="-6.184289027005434">
        <ele>3.02</ele>
        <time>2025-05-08T07:28:17Z</time>
      </trkpt>
      <trkpt lat="36.531204991042614" lon="-6.184573005884886">
        <ele>8.310000000000001</ele>
        <time>2025-05-08T07:28:27Z</time>
      </trkpt>
      <trkpt lat="36.53115302324295" lon="-6.184593960642815">
        <ele>8.310000000000001</ele>
        <time>2025-05-08T07:28:28Z</time>
      </trkpt>
      <trkpt lat="36.531074987724423" lon="-6.184766041114926">
        <ele>9.75</ele>
        <time>2025-05-08T07:28:30Z</time>
      </trkpt>
      <trkpt lat="36.531018996611238" lon="-6.184766041114926">
        <ele>9.75</ele>
        <time>2025-05-08T07:28:31Z</time>
      </trkpt>
      <trkpt lat="36.530979014933109" lon="-6.184766041114926">
        <ele>10.23</ele>
        <time>2025-05-08T07:28:32Z</time>
      </trkpt>
      <trkpt lat="36.530893016606569" lon="-6.184637965634465">
        <ele>10.23</ele>
        <time>2025-05-08T07:28:33Z</time>
      </trkpt>
      <trkpt lat="36.530825961381197" lon="-6.184649029746652">
        <ele>10.23</ele>
        <time>2025-05-08T07:28:34Z</time>
      </trkpt>
      <trkpt lat="36.530763013288379" lon="-6.184659004211426">
        <ele>10.23</ele>
        <time>2025-05-08T07:28:35Z</time>
      </trkpt>
      <trkpt lat="36.530699981376529" lon="-6.184659004211426">
        <ele>10.23</ele>
        <time>2025-05-08T07:28:36Z</time>
      </trkpt>
      <trkpt lat="36.530656982213259" lon="-6.184659004211426">
        <ele>10.23</ele>
        <time>2025-05-08T07:28:37Z</time>
      </trkpt>
      <trkpt lat="36.530612977221608" lon="-6.184659004211426">
        <ele>9.75</ele>
        <time>2025-05-08T07:28:38Z</time>
      </trkpt>
      <trkpt lat="36.530537959188223" lon="-6.184699991717935">
        <ele>9.75</ele>
        <time>2025-05-08T07:28:39Z</time>
      </trkpt>
      <trkpt lat="36.53050702996552" lon="-6.184809040278196">
        <ele>9.27</ele>
        <time>2025-05-08T07:28:40Z</time>
      </trkpt>
      <trkpt lat="36.530499989166856" lon="-6.184812979772687">
        <ele>9.27</ele>
        <time>2025-05-08T07:28:41Z</time>
      </trkpt>
      <trkpt lat="36.530455984175205" lon="-6.184835024178028">
        <ele>9.27</ele>
        <time>2025-05-08T07:28:42Z</time>
      </trkpt>
      <trkpt lat="36.53042103163898" lon="-6.184852039441466">
        <ele>8.789999999999999</ele>
        <time>2025-05-08T07:28:43Z</time>
      </trkpt>
      <trkpt lat="36.53042103163898" lon="-6.184852039441466">
        <ele>8.789999999999999</ele>
        <time>2025-05-08T07:28:44Z</time>
      </trkpt>
      <trkpt lat="36.53037803247571" lon="-6.184823038056493">
        <ele>8.789999999999999</ele>
        <time>2025-05-08T07:28:45Z</time>
      </trkpt>
      <trkpt lat="36.530347019433975" lon="-6.184803005307913">
        <ele>8.310000000000001</ele>
        <time>2025-05-08T07:28:46Z</time>
      </trkpt>
      <trkpt lat="36.53029203414917" lon="-6.184766041114926">
        <ele>8.310000000000001</ele>
        <time>2025-05-08T07:28:47Z</time>
      </trkpt>
      <trkpt lat="36.530291028320789" lon="-6.184752965345979">
        <ele>8.310000000000001</ele>
        <time>2025-05-08T07:28:48Z</time>
      </trkpt>
      <trkpt lat="36.530280970036983" lon="-6.184686999768019">
        <ele>8.310000000000001</ele>
        <time>2025-05-08T07:28:49Z</time>
      </trkpt>
      <trkpt lat="36.530270995572209" lon="-6.184618016704917">
        <ele>7.83</ele>
        <time>2025-05-08T07:28:50Z</time>
      </trkpt>
      <trkpt lat="36.530326986685395" lon="-6.184569988399744">
        <ele>7.83</ele>
        <time>2025-05-08T07:28:51Z</time>
      </trkpt>
      <trkpt lat="36.530365962535143" lon="-6.184536963701248">
        <ele>7.35</ele>
        <time>2025-05-08T07:28:52Z</time>
      </trkpt>
      <trkpt lat="36.530399993062019" lon="-6.184508968144655">
        <ele>7.35</ele>
        <time>2025-05-08T07:28:53Z</time>
      </trkpt>
      <trkpt lat="36.530418014153838" lon="-6.184512991458178">
        <ele>6.87</ele>
        <time>2025-05-08T07:28:54Z</time>
      </trkpt>
      <trkpt lat="36.53046696446836" lon="-6.184525983408094">
        <ele>6.87</ele>
        <time>2025-05-08T07:28:55Z</time>
      </trkpt>
      <trkpt lat="36.530494960024953" lon="-6.184548027813435">
        <ele>6.39</ele>
        <time>2025-05-08T07:28:56Z</time>
      </trkpt>
      <trkpt lat="36.530526978895068" lon="-6.184613993391395">
        <ele>5.91</ele>
        <time>2025-05-08T07:28:57Z</time>
      </trkpt>
      <trkpt lat="36.530541982501745" lon="-6.184686999768019">
        <ele>5.91</ele>
        <time>2025-05-08T07:28:58Z</time>
      </trkpt>
      <trkpt lat="36.530519016087055" lon="-6.184767968952656">
        <ele>5.42</ele>
        <time>2025-05-08T07:28:59Z</time>
      </trkpt>
      <trkpt lat="36.53050702996552" lon="-6.184809040278196">
        <ele>5.42</ele>
        <time>2025-05-08T07:29:00Z</time>
      </trkpt>
      <trkpt lat="36.53042103163898" lon="-6.184912975877523">
        <ele>4.94</ele>
        <time>2025-05-08T07:29:02Z</time>
      </trkpt>
      <trkpt lat="36.53042103163898" lon="-6.184978019446135">
        <ele>4.94</ele>
        <time>2025-05-08T07:29:03Z</time>
      </trkpt>
      <trkpt lat="36.53042103163898" lon="-6.185039961710572">
        <ele>4.46</ele>
        <time>2025-05-08T07:29:04Z</time>
      </trkpt>
      <trkpt lat="36.53042103163898" lon="-6.185096958652139">
        <ele>4.46</ele>
        <time>2025-05-08T07:29:05Z</time>
      </trkpt>
      <trkpt lat="36.530433017760515" lon="-6.185198966413736">
        <ele>4.46</ele>
        <time>2025-05-08T07:29:06Z</time>
      </trkpt>
      <trkpt lat="36.530537037178874" lon="-6.18557003326714">
        <ele>3.5</ele>
        <time>2025-05-08T07:29:16Z</time>
      </trkpt>
      <trkpt lat="36.530540976673365" lon="-6.185584031045437">
        <ele>3.5</ele>
        <time>2025-05-08T07:29:17Z</time>
      </trkpt>
      <trkpt lat="36.530540976673365" lon="-6.185584031045437">
        <ele>3.5</ele>
        <time>2025-05-08T07:29:18Z</time>
      </trkpt>
      <trkpt lat="36.530542988330126" lon="-6.185589982196689">
        <ele>3.5</ele>
        <time>2025-05-08T07:29:19Z</time>
      </trkpt>
      <trkpt lat="36.530542988330126" lon="-6.185589982196689">
        <ele>3.02</ele>
        <time>2025-05-08T07:29:33Z</time>
      </trkpt>
      <trkpt lat="36.530743986368179" lon="-6.185509013012052">
        <ele>15.039999999999999</ele>
        <time>2025-05-08T08:08:02Z</time>
      </trkpt>
      <trkpt lat="36.530758989974856" lon="-6.18550599552691">
        <ele>15.52</ele>
        <time>2025-05-08T08:08:56Z</time>
      </trkpt>
      <trkpt lat="36.530751027166843" lon="-6.185511024668813">
        <ele>15.039999999999999</ele>
        <time>2025-05-08T08:09:44Z</time>
      </trkpt>
      <trkpt lat="36.530739041045308" lon="-6.185525022447109">
        <ele>14.08</ele>
        <time>2025-05-08T08:10:37Z</time>
      </trkpt>
      <trkpt lat="36.530736023560166" lon="-6.185528039932251">
        <ele>13.6</ele>
        <time>2025-05-08T08:11:35Z</time>
      </trkpt>
      <trkpt lat="36.53072303161025" lon="-6.185531979426742">
        <ele>12.630000000000001</ele>
        <time>2025-05-08T08:12:19Z</time>
      </trkpt>
      <trkpt lat="36.530720014125109" lon="-6.18552703410387">
        <ele>12.630000000000001</ele>
        <time>2025-05-08T08:13:03Z</time>
      </trkpt>
      <trkpt lat="36.530715990811586" lon="-6.1855289619416">
        <ele>12.15</ele>
        <time>2025-05-08T08:13:47Z</time>
      </trkpt>
      <trkpt lat="36.53068003244698" lon="-6.185522004961968">
        <ele>11.19</ele>
        <time>2025-05-08T08:14:06Z</time>
      </trkpt>
      <trkpt lat="36.530641978606582" lon="-6.185556035488844">
        <ele>9.75</ele>
        <time>2025-05-08T08:14:17Z</time>
      </trkpt>
      <trkpt lat="36.530541982501745" lon="-6.185585958883166">
        <ele>9.75</ele>
        <time>2025-05-08T08:14:19Z</time>
      </trkpt>
      <trkpt lat="36.530533013865352" lon="-6.185556035488844">
        <ele>9.27</ele>
        <time>2025-05-08T08:14:20Z</time>
      </trkpt>
      <trkpt lat="36.530481968075037" lon="-6.185375992208719">
        <ele>7.83</ele>
        <time>2025-05-08T08:14:23Z</time>
      </trkpt>
      <trkpt lat="36.53046503663063" lon="-6.185315977782011">
        <ele>7.83</ele>
        <time>2025-05-08T08:14:24Z</time>
      </trkpt>
      <trkpt lat="36.530449027195573" lon="-6.185259986668825">
        <ele>7.35</ele>
        <time>2025-05-08T08:14:25Z</time>
      </trkpt>
      <trkpt lat="36.530434023588896" lon="-6.18520500138402">
        <ele>6.87</ele>
        <time>2025-05-08T08:14:26Z</time>
      </trkpt>
      <trkpt lat="36.53029203414917" lon="-6.184763023629785">
        <ele>5.42</ele>
        <time>2025-05-08T08:14:34Z</time>
      </trkpt>
      <trkpt lat="36.530280970036983" lon="-6.184684988111258">
        <ele>4.94</ele>
        <time>2025-05-08T08:14:35Z</time>
      </trkpt>
      <trkpt lat="36.530270995572209" lon="-6.184616005048156">
        <ele>4.94</ele>
        <time>2025-05-08T08:14:36Z</time>
      </trkpt>
      <trkpt lat="36.530367974191904" lon="-6.184411989524961">
        <ele>5.42</ele>
        <time>2025-05-08T08:14:38Z</time>
      </trkpt>
      <trkpt lat="36.53033503331244" lon="-6.184316016733646">
        <ele>5.42</ele>
        <time>2025-05-08T08:14:39Z</time>
      </trkpt>
      <trkpt lat="36.530317012220621" lon="-6.184243010357022">
        <ele>5.42</ele>
        <time>2025-05-08T08:14:40Z</time>
      </trkpt>
      <trkpt lat="36.530276024714112" lon="-6.184079982340336">
        <ele>5.42</ele>
        <time>2025-05-08T08:14:42Z</time>
      </trkpt>
      <trkpt lat="36.530256997793913" lon="-6.184003036469221">
        <ele>5.42</ele>
        <time>2025-05-08T08:14:43Z</time>
      </trkpt>
      <trkpt lat="36.530191032215953" lon="-6.183931035920978">
        <ele>5.42</ele>
        <time>2025-05-08T08:14:44Z</time>
      </trkpt>
      <trkpt lat="36.530120959505439" lon="-6.183882001787424">
        <ele>5.42</ele>
        <time>2025-05-08T08:14:45Z</time>
      </trkpt>
      <trkpt lat="36.530050970613956" lon="-6.183832967653871">
        <ele>4.94</ele>
        <time>2025-05-08T08:14:46Z</time>
      </trkpt>
      <trkpt lat="36.529967989772558" lon="-6.183816036209464">
        <ele>4.94</ele>
        <time>2025-05-08T08:14:47Z</time>
      </trkpt>
      <trkpt lat="36.529890960082412" lon="-6.1838089954108">
        <ele>4.46</ele>
        <time>2025-05-08T08:14:48Z</time>
      </trkpt>
      <trkpt lat="36.529487036168575" lon="-6.183769013732672">
        <ele>3.98</ele>
        <time>2025-05-08T08:14:55Z</time>
      </trkpt>
      <trkpt lat="36.529441019520164" lon="-6.183761972934008">
        <ele>3.5</ele>
        <time>2025-05-08T08:14:56Z</time>
      </trkpt>
      <trkpt lat="36.529334988445044" lon="-6.183844031766057">
        <ele>3.5</ele>
        <time>2025-05-08T08:14:58Z</time>
      </trkpt>
      <trkpt lat="36.529281008988619" lon="-6.183844031766057">
        <ele>3.5</ele>
        <time>2025-05-08T08:14:59Z</time>
      </trkpt>
      <trkpt lat="36.529241027310491" lon="-6.183715034276247">
        <ele>3.5</ele>
        <time>2025-05-08T08:15:00Z</time>
      </trkpt>
      <trkpt lat="36.528533007949591" lon="-6.183328963816166">
        <ele>5.42</ele>
        <time>2025-05-08T08:15:10Z</time>
      </trkpt>
      <trkpt lat="36.52788600884378" lon="-6.182972984388471">
        <ele>4.46</ele>
        <time>2025-05-08T08:15:18Z</time>
      </trkpt>
      <trkpt lat="36.527799004688859" lon="-6.182941971346736">
        <ele>4.46</ele>
        <time>2025-05-08T08:15:19Z</time>
      </trkpt>
      <trkpt lat="36.527717029675841" lon="-6.182941971346736">
        <ele>4.46</ele>
        <time>2025-05-08T08:15:20Z</time>
      </trkpt>
      <trkpt lat="36.527559030801058" lon="-6.182941971346736">
        <ele>4.46</ele>
        <time>2025-05-08T08:15:22Z</time>
      </trkpt>
      <trkpt lat="36.527482001110911" lon="-6.182941971346736">
        <ele>3.98</ele>
        <time>2025-05-08T08:15:23Z</time>
      </trkpt>
      <trkpt lat="36.527295000851154" lon="-6.182997962459922">
        <ele>3.98</ele>
        <time>2025-05-08T08:15:28Z</time>
      </trkpt>
      <trkpt lat="36.52715602889657" lon="-6.183058982715011">
        <ele>3.5</ele>
        <time>2025-05-08T08:15:31Z</time>
      </trkpt>
      <trkpt lat="36.526989983394742" lon="-6.183118997141719">
        <ele>3.98</ele>
        <time>2025-05-08T08:15:34Z</time>
      </trkpt>
      <trkpt lat="36.526944972574711" lon="-6.183136012405157">
        <ele>3.98</ele>
        <time>2025-05-08T08:15:35Z</time>
      </trkpt>
      <trkpt lat="36.526837013661861" lon="-6.183312032371759">
        <ele>3.98</ele>
        <time>2025-05-08T08:15:37Z</time>
      </trkpt>
      <trkpt lat="36.526760989800096" lon="-6.183317983523011">
        <ele>3.98</ele>
        <time>2025-05-08T08:15:38Z</time>
      </trkpt>
      <trkpt lat="36.526698963716626" lon="-6.183254029601812">
        <ele>3.98</ele>
        <time>2025-05-08T08:15:39Z</time>
      </trkpt>
      <trkpt lat="36.526651019230485" lon="-6.183188986033201">
        <ele>3.5</ele>
        <time>2025-05-08T08:15:40Z</time>
      </trkpt>
      <trkpt lat="36.526578012853861" lon="-6.183140035718679">
        <ele>3.5</ele>
        <time>2025-05-08T08:15:41Z</time>
      </trkpt>
      <trkpt lat="36.526342984288931" lon="-6.182978013530374">
        <ele>3.02</ele>
        <time>2025-05-08T08:15:44Z</time>
      </trkpt>
      <trkpt lat="36.525646029040217" lon="-6.181950978934765">
        <ele>2.54</ele>
        <time>2025-05-08T08:15:54Z</time>
      </trkpt>
      <trkpt lat="36.524710021913052" lon="-6.180427987128496">
        <ele>1.58</ele>
        <time>2025-05-08T08:16:05Z</time>
      </trkpt>
      <trkpt lat="36.523988004773855" lon="-6.178486989811063">
        <ele>0.62</ele>
        <time>2025-05-08T08:16:15Z</time>
      </trkpt>
      <trkpt lat="36.523441001772881" lon="-6.176508022472262">
        <ele>0.14</ele>
        <time>2025-05-08T08:16:25Z</time>
      </trkpt>
      <trkpt lat="36.523136990144849" lon="-6.175223998725414">
        <ele>2.54</ele>
        <time>2025-05-08T08:16:34Z</time>
      </trkpt>
      <trkpt lat="36.522493008524179" lon="-6.172812022268772">
        <ele>4.46</ele>
        <time>2025-05-08T08:16:49Z</time>
      </trkpt>
      <trkpt lat="36.52197802439332" lon="-6.170624010264874">
        <ele>3.98</ele>
        <time>2025-05-08T08:17:04Z</time>
      </trkpt>
      <trkpt lat="36.521635036915541" lon="-6.169148962944746">
        <ele>2.54</ele>
        <time>2025-05-08T08:17:14Z</time>
      </trkpt>
      <trkpt lat="36.521388022229075" lon="-6.16782202385366">
        <ele>0.14</ele>
        <time>2025-05-08T08:17:23Z</time>
      </trkpt>
      <trkpt lat="36.521388022229075" lon="-6.167670981958509">
        <ele>-0.34</ele>
        <time>2025-05-08T08:17:24Z</time>
      </trkpt>
      <trkpt lat="36.521538980305195" lon="-6.165711041539908">
        <ele>-0.34</ele>
        <time>2025-05-08T08:17:37Z</time>
      </trkpt>
      <trkpt lat="36.52167602442205" lon="-6.164503041654825">
        <ele>3.5</ele>
        <time>2025-05-08T08:17:45Z</time>
      </trkpt>
      <trkpt lat="36.521726986393332" lon="-6.164378989487886">
        <ele>4.46</ele>
        <time>2025-05-08T08:17:46Z</time>
      </trkpt>
      <trkpt lat="36.521793035790324" lon="-6.164266001433134">
        <ele>5.42</ele>
        <time>2025-05-08T08:17:47Z</time>
      </trkpt>
      <trkpt lat="36.521854978054762" lon="-6.164168016985059">
        <ele>6.87</ele>
        <time>2025-05-08T08:17:48Z</time>
      </trkpt>
      <trkpt lat="36.521923039108515" lon="-6.16408696398139">
        <ele>7.83</ele>
        <time>2025-05-08T08:17:49Z</time>
      </trkpt>
      <trkpt lat="36.522317994385958" lon="-6.163639035075903">
        <ele>8.310000000000001</ele>
        <time>2025-05-08T08:17:55Z</time>
      </trkpt>
      <trkpt lat="36.522370968014002" lon="-6.163551025092602">
        <ele>7.83</ele>
        <time>2025-05-08T08:17:56Z</time>
      </trkpt>
      <trkpt lat="36.522348001599312" lon="-6.163454968482256">
        <ele>7.35</ele>
        <time>2025-05-08T08:17:57Z</time>
      </trkpt>
      <trkpt lat="36.522324029356241" lon="-6.163372993469238">
        <ele>7.35</ele>
        <time>2025-05-08T08:17:58Z</time>
      </trkpt>
      <trkpt lat="36.522299973294139" lon="-6.163292024284601">
        <ele>7.35</ele>
        <time>2025-05-08T08:17:59Z</time>
      </trkpt>
      <trkpt lat="36.522267032414675" lon="-6.163179958239198">
        <ele>7.35</ele>
        <time>2025-05-08T08:18:00Z</time>
      </trkpt>
      <trkpt lat="36.522192014381289" lon="-6.16316000930965">
        <ele>7.35</ele>
        <time>2025-05-08T08:18:01Z</time>
      </trkpt>
      <trkpt lat="36.522102998569608" lon="-6.163136959075928">
        <ele>7.35</ele>
        <time>2025-05-08T08:18:02Z</time>
      </trkpt>
      <trkpt lat="36.522015994414687" lon="-6.163113992661238">
        <ele>7.35</ele>
        <time>2025-05-08T08:18:03Z</time>
      </trkpt>
      <trkpt lat="36.52184802107513" lon="-6.163070993497968">
        <ele>7.35</ele>
        <time>2025-05-08T08:18:05Z</time>
      </trkpt>
      <trkpt lat="36.521776020526886" lon="-6.163051966577768">
        <ele>7.35</ele>
        <time>2025-05-08T08:18:06Z</time>
      </trkpt>
      <trkpt lat="36.521753976121545" lon="-6.162991030141711">
        <ele>7.83</ele>
        <time>2025-05-08T08:18:07Z</time>
      </trkpt>
      <trkpt lat="36.521731009706855" lon="-6.162921963259578">
        <ele>7.35</ele>
        <time>2025-05-08T08:18:08Z</time>
      </trkpt>
      <trkpt lat="36.521731009706855" lon="-6.162921963259578">
        <ele>7.35</ele>
        <time>2025-05-08T08:18:09Z</time>
      </trkpt>
      <trkpt lat="36.521710976958275" lon="-6.162697998806834">
        <ele>7.35</ele>
        <time>2025-05-08T08:18:10Z</time>
      </trkpt>
      <trkpt lat="36.521662026643753" lon="-6.16260495968163">
        <ele>6.87</ele>
        <time>2025-05-08T08:18:11Z</time>
      </trkpt>
      <trkpt lat="36.521608969196677" lon="-6.162505969405174">
        <ele>6.39</ele>
        <time>2025-05-08T08:18:12Z</time>
      </trkpt>
      <trkpt lat="36.521535962820053" lon="-6.162420976907015">
        <ele>5.91</ele>
        <time>2025-05-08T08:18:13Z</time>
      </trkpt>
      <trkpt lat="36.521457005292177" lon="-6.162335984408855">
        <ele>5.42</ele>
        <time>2025-05-08T08:18:14Z</time>
      </trkpt>
      <trkpt lat="36.521372012794018" lon="-6.162244034931064">
        <ele>4.46</ele>
        <time>2025-05-08T08:18:15Z</time>
      </trkpt>
      <trkpt lat="36.520557040348649" lon="-6.161477006971836">
        <ele>0.14</ele>
        <time>2025-05-08T08:18:24Z</time>
      </trkpt>
      <trkpt lat="36.520471964031458" lon="-6.16137801669538">
        <ele>0.14</ele>
        <time>2025-05-08T08:18:25Z</time>
      </trkpt>
      <trkpt lat="36.51955297216773" lon="-6.16004403680563">
        <ele>1.58</ele>
        <time>2025-05-08T08:18:35Z</time>
      </trkpt>
      <trkpt lat="36.518253022804856" lon="-6.158361034467816">
        <ele>-0.82</ele>
        <time>2025-05-08T08:18:45Z</time>
      </trkpt>
      <trkpt lat="36.515676006674767" lon="-6.155321002006531">
        <ele>-0.82</ele>
        <time>2025-05-08T08:19:02Z</time>
      </trkpt>
      <trkpt lat="36.513561001047492" lon="-6.153157968074083">
        <ele>-1.79</ele>
        <time>2025-05-08T08:19:14Z</time>
      </trkpt>
      <trkpt lat="36.510851969942451" lon="-6.150507023558021">
        <ele>-1.3</ele>
        <time>2025-05-08T08:19:28Z</time>
      </trkpt>
      <trkpt lat="36.508909966796637" lon="-6.148525960743427">
        <ele>-1.3</ele>
        <time>2025-05-08T08:19:38Z</time>
      </trkpt>
      <trkpt lat="36.506622964516282" lon="-6.146578006446362">
        <ele>-4.19</ele>
        <time>2025-05-08T08:19:49Z</time>
      </trkpt>
      <trkpt lat="36.504358006641269" lon="-6.145238997414708">
        <ele>-5.63</ele>
        <time>2025-05-08T08:19:59Z</time>
      </trkpt>
      <trkpt lat="36.502391025424004" lon="-6.14472602494061">
        <ele>-4.67</ele>
        <time>2025-05-08T08:20:07Z</time>
      </trkpt>
      <trkpt lat="36.49989296682179" lon="-6.144395023584366">
        <ele>-4.67</ele>
        <time>2025-05-08T08:20:17Z</time>
      </trkpt>
      <trkpt lat="36.495628003031015" lon="-6.143836034461856">
        <ele>-3.71</ele>
        <time>2025-05-08T08:20:34Z</time>
      </trkpt>
      <trkpt lat="36.492105005308986" lon="-6.143578961491585">
        <ele>-1.79</ele>
        <time>2025-05-08T08:20:48Z</time>
      </trkpt>
      <trkpt lat="36.489088023081422" lon="-6.14378297701478">
        <ele>-0.34</ele>
        <time>2025-05-08T08:21:00Z</time>
      </trkpt>
      <trkpt lat="36.485072001814842" lon="-6.144179021939635">
        <ele>-0.34</ele>
        <time>2025-05-08T08:21:16Z</time>
      </trkpt>
      <trkpt lat="36.480794968083501" lon="-6.144612031057477">
        <ele>0.14</ele>
        <time>2025-05-08T08:21:33Z</time>
      </trkpt>
      <trkpt lat="36.477027973160148" lon="-6.144975973293185">
        <ele>1.58</ele>
        <time>2025-05-08T08:21:48Z</time>
      </trkpt>
      <trkpt lat="36.474139988422394" lon="-6.145317032933235">
        <ele>2.06</ele>
        <time>2025-05-08T08:22:00Z</time>
      </trkpt>
      <trkpt lat="36.4725630171597" lon="-6.145869987085462">
        <ele>1.58</ele>
        <time>2025-05-08T08:22:07Z</time>
      </trkpt>
      <trkpt lat="36.471262983977795" lon="-6.146987965330482">
        <ele>0.62</ele>
        <time>2025-05-08T08:22:14Z</time>
      </trkpt>
      <trkpt lat="36.470367964357138" lon="-6.148461000993848">
        <ele>0.14</ele>
        <time>2025-05-08T08:22:21Z</time>
      </trkpt>
      <trkpt lat="36.46974703297019" lon="-6.150396969169378">
        <ele>-0.34</ele>
        <time>2025-05-08T08:22:29Z</time>
      </trkpt>
      <trkpt lat="36.469115959480405" lon="-6.152566038072109">
        <ele>0.62</ele>
        <time>2025-05-08T08:22:38Z</time>
      </trkpt>
      <trkpt lat="36.468338035047054" lon="-6.155509008094668">
        <ele>-0.34</ele>
        <time>2025-05-08T08:22:50Z</time>
      </trkpt>
      <trkpt lat="36.468198979273438" lon="-6.157729960978031">
        <ele>-0.34</ele>
        <time>2025-05-08T08:22:59Z</time>
      </trkpt>
      <trkpt lat="36.468488993123174" lon="-6.159843038767576">
        <ele>0.14</ele>
        <time>2025-05-08T08:23:08Z</time>
      </trkpt>
      <trkpt lat="36.468683034181595" lon="-6.16144297644496">
        <ele>-1.79</ele>
        <time>2025-05-08T08:23:16Z</time>
      </trkpt>
      <trkpt lat="36.46856501698494" lon="-6.163206025958061">
        <ele>-0.34</ele>
        <time>2025-05-08T08:23:26Z</time>
      </trkpt>
      <trkpt lat="36.468392014503479" lon="-6.163983028382063">
        <ele>2.54</ele>
        <time>2025-05-08T08:23:33Z</time>
      </trkpt>
      <trkpt lat="36.468016002327204" lon="-6.165008973330259">
        <ele>7.35</ele>
        <time>2025-05-08T08:23:41Z</time>
      </trkpt>
      <trkpt lat="36.467266995459795" lon="-6.166471028700471">
        <ele>11.19</ele>
        <time>2025-05-08T08:23:53Z</time>
      </trkpt>
      <trkpt lat="36.466637011617422" lon="-6.167852031067014">
        <ele>5.42</ele>
        <time>2025-05-08T08:24:04Z</time>
      </trkpt>
      <trkpt lat="36.466520000249147" lon="-6.168265007436276">
        <ele>2.54</ele>
        <time>2025-05-08T08:24:08Z</time>
      </trkpt>
      <trkpt lat="36.466527041047812" lon="-6.168383024632931">
        <ele>2.06</ele>
        <time>2025-05-08T08:24:09Z</time>
      </trkpt>
      <trkpt lat="36.466532992199063" lon="-6.168491989374161">
        <ele>2.06</ele>
        <time>2025-05-08T08:24:10Z</time>
      </trkpt>
      <trkpt lat="36.466539027169347" lon="-6.168601037934423">
        <ele>1.58</ele>
        <time>2025-05-08T08:24:11Z</time>
      </trkpt>
      <trkpt lat="36.466569034382701" lon="-6.168697010725737">
        <ele>1.1</ele>
        <time>2025-05-08T08:24:12Z</time>
      </trkpt>
      <trkpt lat="36.466622008010745" lon="-6.168782003223896">
        <ele>0.62</ele>
        <time>2025-05-08T08:24:13Z</time>
      </trkpt>
      <trkpt lat="36.46667699329555" lon="-6.168872024863958">
        <ele>0.62</ele>
        <time>2025-05-08T08:24:14Z</time>
      </trkpt>
      <trkpt lat="36.466745976358652" lon="-6.168944025412202">
        <ele>0.14</ele>
        <time>2025-05-08T08:24:15Z</time>
      </trkpt>
      <trkpt lat="36.466831974685192" lon="-6.168979983776808">
        <ele>0.62</ele>
        <time>2025-05-08T08:24:16Z</time>
      </trkpt>
      <trkpt lat="36.466918978840113" lon="-6.169016025960445">
        <ele>0.62</ele>
        <time>2025-05-08T08:24:17Z</time>
      </trkpt>
      <trkpt lat="36.467004977166653" lon="-6.169021977111697">
        <ele>0.62</ele>
        <time>2025-05-08T08:24:18Z</time>
      </trkpt>
      <trkpt lat="36.467088041827083" lon="-6.16898400709033">
        <ele>0.62</ele>
        <time>2025-05-08T08:24:19Z</time>
      </trkpt>
      <trkpt lat="36.467174040153623" lon="-6.168944025412202">
        <ele>0.62</ele>
        <time>2025-05-08T08:24:20Z</time>
      </trkpt>
      <trkpt lat="36.467258026823401" lon="-6.168900020420551">
        <ele>1.1</ele>
        <time>2025-05-08T08:24:21Z</time>
      </trkpt>
      <trkpt lat="36.467330027371645" lon="-6.168817961588502">
        <ele>1.1</ele>
        <time>2025-05-08T08:24:22Z</time>
      </trkpt>
      <trkpt lat="36.467400016263127" lon="-6.168736992403865">
        <ele>1.1</ele>
        <time>2025-05-08T08:24:23Z</time>
      </trkpt>
      <trkpt lat="36.467461036518216" lon="-6.1686160415411">
        <ele>1.1</ele>
        <time>2025-05-08T08:24:24Z</time>
      </trkpt>
      <trkpt lat="36.467519961297512" lon="-6.168497018516064">
        <ele>1.1</ele>
        <time>2025-05-08T08:24:25Z</time>
      </trkpt>
      <trkpt lat="36.467692963778973" lon="-6.168086975812912">
        <ele>0.62</ele>
        <time>2025-05-08T08:24:28Z</time>
      </trkpt>
      <trkpt lat="36.467732023447752" lon="-6.167938029393554">
        <ele>0.14</ele>
        <time>2025-05-08T08:24:29Z</time>
      </trkpt>
      <trkpt lat="36.467769993469119" lon="-6.167792016640306">
        <ele>0.14</ele>
        <time>2025-05-08T08:24:30Z</time>
      </trkpt>
      <trkpt lat="36.467786002904177" lon="-6.16763100028038">
        <ele>0.14</ele>
        <time>2025-05-08T08:24:31Z</time>
      </trkpt>
      <trkpt lat="36.467786002904177" lon="-6.167476018890739">
        <ele>0.14</ele>
        <time>2025-05-08T08:24:32Z</time>
      </trkpt>
      <trkpt lat="36.467783991247416" lon="-6.167320031672716">
        <ele>0.14</ele>
        <time>2025-05-08T08:24:33Z</time>
      </trkpt>
      <trkpt lat="36.467777034267783" lon="-6.167162032797933">
        <ele>0.14</ele>
        <time>2025-05-08T08:24:34Z</time>
      </trkpt>
      <trkpt lat="36.467768987640738" lon="-6.167002022266388">
        <ele>-0.34</ele>
        <time>2025-05-08T08:24:35Z</time>
      </trkpt>
      <trkpt lat="36.46736397407949" lon="-6.165768038481474">
        <ele>0.14</ele>
        <time>2025-05-08T08:24:43Z</time>
      </trkpt>
      <trkpt lat="36.467274958267808" lon="-6.165626971051097">
        <ele>0.62</ele>
        <time>2025-05-08T08:24:44Z</time>
      </trkpt>
      <trkpt lat="36.467182002961636" lon="-6.165489004924893">
        <ele>1.1</ele>
        <time>2025-05-08T08:24:45Z</time>
      </trkpt>
      <trkpt lat="36.466080034151673" lon="-6.164480997249484">
        <ele>2.06</ele>
        <time>2025-05-08T08:24:54Z</time>
      </trkpt>
      <trkpt lat="36.464351015165448" lon="-6.162978038191795">
        <ele>-0.82</ele>
        <time>2025-05-08T08:25:07Z</time>
      </trkpt>
      <trkpt lat="36.46229200065136" lon="-6.161268968135119">
        <ele>-1.79</ele>
        <time>2025-05-08T08:25:21Z</time>
      </trkpt>
      <trkpt lat="36.460535991936922" lon="-6.159812025725842">
        <ele>-2.75</ele>
        <time>2025-05-08T08:25:32Z</time>
      </trkpt>
      <trkpt lat="36.458498015999794" lon="-6.15809197537601">
        <ele>-2.75</ele>
        <time>2025-05-08T08:25:44Z</time>
      </trkpt>
      <trkpt lat="36.456537991762161" lon="-6.156355999410152">
        <ele>-2.27</ele>
        <time>2025-05-08T08:25:57Z</time>
      </trkpt>
      <trkpt lat="36.454962026327848" lon="-6.154942978173494">
        <ele>-2.27</ele>
        <time>2025-05-08T08:26:07Z</time>
      </trkpt>
      <trkpt lat="36.453067967668176" lon="-6.153269028291106">
        <ele>-3.71</ele>
        <time>2025-05-08T08:26:19Z</time>
      </trkpt>
      <trkpt lat="36.450839973986149" lon="-6.151298023760319">
        <ele>-2.75</ele>
        <time>2025-05-08T08:26:33Z</time>
      </trkpt>
      <trkpt lat="36.449372973293066" lon="-6.149975024163723">
        <ele>-3.23</ele>
        <time>2025-05-08T08:26:43Z</time>
      </trkpt>
      <trkpt lat="36.447572959586978" lon="-6.148396041244268">
        <ele>-2.75</ele>
        <time>2025-05-08T08:26:55Z</time>
      </trkpt>
      <trkpt lat="36.445910995826125" lon="-6.146787973120809">
        <ele>-0.82</ele>
        <time>2025-05-08T08:27:14Z</time>
      </trkpt>
      <trkpt lat="36.445122007280588" lon="-6.145660020411015">
        <ele>-0.34</ele>
        <time>2025-05-08T08:27:22Z</time>
      </trkpt>
      <trkpt lat="36.444500992074609" lon="-6.14410400390625">
        <ele>-0.34</ele>
        <time>2025-05-08T08:27:29Z</time>
      </trkpt>
      <trkpt lat="36.444242997094989" lon="-6.140374979004264">
        <ele>3.5</ele>
        <time>2025-05-08T08:27:39Z</time>
      </trkpt>
      <trkpt lat="36.444137971848249" lon="-6.13815201446414">
        <ele>4.94</ele>
        <time>2025-05-08T08:27:48Z</time>
      </trkpt>
      <trkpt lat="36.443592980504036" lon="-6.136128036305308">
        <ele>5.91</ele>
        <time>2025-05-08T08:27:57Z</time>
      </trkpt>
      <trkpt lat="36.442660996690392" lon="-6.133866012096405">
        <ele>9.75</ele>
        <time>2025-05-08T08:28:07Z</time>
      </trkpt>
      <trkpt lat="36.441475041210651" lon="-6.131061008200049">
        <ele>10.710000000000001</ele>
        <time>2025-05-08T08:28:19Z</time>
      </trkpt>
      <trkpt lat="36.440439037978649" lon="-6.128923958167434">
        <ele>13.119999999999999</ele>
        <time>2025-05-08T08:28:28Z</time>
      </trkpt>
      <trkpt lat="36.438712030649185" lon="-6.126002026721835">
        <ele>16.960000000000001</ele>
        <time>2025-05-08T08:28:40Z</time>
      </trkpt>
      <trkpt lat="36.437165988609195" lon="-6.123848967254162">
        <ele>21.289999999999999</ele>
        <time>2025-05-08T08:28:49Z</time>
      </trkpt>
      <trkpt lat="36.434398032724857" lon="-6.120768031105399">
        <ele>26.09</ele>
        <time>2025-05-08T08:29:02Z</time>
      </trkpt>
      <trkpt lat="36.431707022711635" lon="-6.118039973080158">
        <ele>28.02</ele>
        <time>2025-05-08T08:29:14Z</time>
      </trkpt>
      <trkpt lat="36.428909981623292" lon="-6.115476032719016">
        <ele>28.02</ele>
        <time>2025-05-08T08:29:26Z</time>
      </trkpt>
      <trkpt lat="36.427334016188979" lon="-6.114574978128076">
        <ele>27.530000000000001</ele>
        <time>2025-05-08T08:29:32Z</time>
      </trkpt>
      <trkpt lat="36.425626035779715" lon="-6.114202989265323">
        <ele>25.609999999999999</ele>
        <time>2025-05-08T08:29:38Z</time>
      </trkpt>
      <trkpt lat="36.423885030671954" lon="-6.114355958998203">
        <ele>24.170000000000002</ele>
        <time>2025-05-08T08:29:44Z</time>
      </trkpt>
      <trkpt lat="36.42224301584065" lon="-6.115064984187484">
        <ele>19.359999999999999</ele>
        <time>2025-05-08T08:29:50Z</time>
      </trkpt>
      <trkpt lat="36.420034971088171" lon="-6.116757038980722">
        <ele>7.83</ele>
        <time>2025-05-08T08:29:59Z</time>
      </trkpt>
      <trkpt lat="36.418346017599106" lon="-6.117755994200707">
        <ele>8.789999999999999</ele>
        <time>2025-05-08T08:30:06Z</time>
      </trkpt>
      <trkpt lat="36.415996989235282" lon="-6.11862201243639">
        <ele>10.710000000000001</ele>
        <time>2025-05-08T08:30:15Z</time>
      </trkpt>
      <trkpt lat="36.413687020540237" lon="-6.118957959115505">
        <ele>10.710000000000001</ele>
        <time>2025-05-08T08:30:23Z</time>
      </trkpt>
      <trkpt lat="36.410527965053916" lon="-6.119317039847374">
        <ele>7.83</ele>
        <time>2025-05-08T08:30:34Z</time>
      </trkpt>
      <trkpt lat="36.408704984933138" lon="-6.120367962867022">
        <ele>6.87</ele>
        <time>2025-05-08T08:30:41Z</time>
      </trkpt>
      <trkpt lat="36.407431019470096" lon="-6.121721975505352">
        <ele>6.39</ele>
        <time>2025-05-08T08:30:47Z</time>
      </trkpt>
      <trkpt lat="36.406210027635098" lon="-6.123686023056507">
        <ele>7.35</ele>
        <time>2025-05-08T08:30:55Z</time>
      </trkpt>
      <trkpt lat="36.404929021373391" lon="-6.125135002657771">
        <ele>8.789999999999999</ele>
        <time>2025-05-08T08:31:02Z</time>
      </trkpt>
      <trkpt lat="36.40335900709033" lon="-6.126079978421331">
        <ele>12.15</ele>
        <time>2025-05-08T08:31:09Z</time>
      </trkpt>
      <trkpt lat="36.401884965598583" lon="-6.12642296589911">
        <ele>14.08</ele>
        <time>2025-05-08T08:31:15Z</time>
      </trkpt>
      <trkpt lat="36.400143960490823" lon="-6.126193972304463">
        <ele>15.039999999999999</ele>
        <time>2025-05-08T08:31:22Z</time>
      </trkpt>
      <trkpt lat="36.398486020043492" lon="-6.125443959608674">
        <ele>14.56</ele>
        <time>2025-05-08T08:31:29Z</time>
      </trkpt>
      <trkpt lat="36.394920023158193" lon="-6.123145977035165">
        <ele>16.960000000000001</ele>
        <time>2025-05-08T08:31:45Z</time>
      </trkpt>
      <trkpt lat="36.391679998487234" lon="-6.120722014456987">
        <ele>15.039999999999999</ele>
        <time>2025-05-08T08:32:00Z</time>
      </trkpt>
      <trkpt lat="36.389128966256976" lon="-6.118747992441058">
        <ele>18.399999999999999</ele>
        <time>2025-05-08T08:32:12Z</time>
      </trkpt>
      <trkpt lat="36.38690197840333" lon="-6.117343017831445">
        <ele>20.32</ele>
        <time>2025-05-08T08:32:22Z</time>
      </trkpt>
      <trkpt lat="36.383846020326018" lon="-6.115920022130013">
        <ele>23.690000000000001</ele>
        <time>2025-05-08T08:32:35Z</time>
      </trkpt>
      <trkpt lat="36.381203960627317" lon="-6.1149260122329">
        <ele>25.609999999999999</ele>
        <time>2025-05-08T08:32:46Z</time>
      </trkpt>
      <trkpt lat="36.378469029441476" lon="-6.114422008395195">
        <ele>26.09</ele>
        <time>2025-05-08T08:32:57Z</time>
      </trkpt>
      <trkpt lat="36.377005968242884" lon="-6.114169964566827">
        <ele>24.170000000000002</ele>
        <time>2025-05-08T08:33:04Z</time>
      </trkpt>
      <trkpt lat="36.374804964289069" lon="-6.113790012896061">
        <ele>20.32</ele>
        <time>2025-05-08T08:33:16Z</time>
      </trkpt>
      <trkpt lat="36.372890034690499" lon="-6.113460017368197">
        <ele>16.48</ele>
        <time>2025-05-08T08:33:28Z</time>
      </trkpt>
      <trkpt lat="36.370820961892605" lon="-6.113103032112122">
        <ele>16.48</ele>
        <time>2025-05-08T08:33:42Z</time>
      </trkpt>
      <trkpt lat="36.369048021733761" lon="-6.112779993563891">
        <ele>16.960000000000001</ele>
        <time>2025-05-08T08:33:54Z</time>
      </trkpt>
      <trkpt lat="36.367473984137177" lon="-6.112439017742872">
        <ele>19.84</ele>
        <time>2025-05-08T08:34:05Z</time>
      </trkpt>
      <trkpt lat="36.365830963477492" lon="-6.111982958391309">
        <ele>24.170000000000002</ele>
        <time>2025-05-08T08:34:17Z</time>
      </trkpt>
      <trkpt lat="36.364055005833507" lon="-6.111309975385666">
        <ele>26.57</ele>
        <time>2025-05-08T08:34:28Z</time>
      </trkpt>
      <trkpt lat="36.361669013276696" lon="-6.110154027119279">
        <ele>27.050000000000001</ele>
        <time>2025-05-08T08:34:42Z</time>
      </trkpt>
      <trkpt lat="36.360161025077105" lon="-6.109201004728675">
        <ele>28.5</ele>
        <time>2025-05-08T08:34:51Z</time>
      </trkpt>
      <trkpt lat="36.358380960300565" lon="-6.107595032081008">
        <ele>27.530000000000001</ele>
        <time>2025-05-08T08:35:02Z</time>
      </trkpt>
      <trkpt lat="36.357146976515651" lon="-6.105842962861061">
        <ele>27.050000000000001</ele>
        <time>2025-05-08T08:35:11Z</time>
      </trkpt>
      <trkpt lat="36.356183979660273" lon="-6.103767016902566">
        <ele>27.050000000000001</ele>
        <time>2025-05-08T08:35:20Z</time>
      </trkpt>
      <trkpt lat="36.35555500164628" lon="-6.101259989663959">
        <ele>29.460000000000001</ele>
        <time>2025-05-08T08:35:29Z</time>
      </trkpt>
      <trkpt lat="36.355374036356807" lon="-6.098599992692471">
        <ele>33.780000000000001</ele>
        <time>2025-05-08T08:35:37Z</time>
      </trkpt>
      <trkpt lat="36.355549972504377" lon="-6.09436696395278">
        <ele>38.109999999999999</ele>
        <time>2025-05-08T08:35:50Z</time>
      </trkpt>
      <trkpt lat="36.355689028277993" lon="-6.089994041249156">
        <ele>43.880000000000003</ele>
        <time>2025-05-08T08:36:04Z</time>
      </trkpt>
      <trkpt lat="36.355414018034935" lon="-6.085611982271075">
        <ele>49.159999999999997</ele>
        <time>2025-05-08T08:36:18Z</time>
      </trkpt>
      <trkpt lat="36.354711027815938" lon="-6.080889031291008">
        <ele>55.890000000000001</ele>
        <time>2025-05-08T08:36:33Z</time>
      </trkpt>
      <trkpt lat="36.353932013735175" lon="-6.076413011178374">
        <ele>62.140000000000001</ele>
        <time>2025-05-08T08:36:47Z</time>
      </trkpt>
      <trkpt lat="36.353014027699828" lon="-6.071855016052723">
        <ele>66.469999999999999</ele>
        <time>2025-05-08T08:37:01Z</time>
      </trkpt>
      <trkpt lat="36.352207018062472" lon="-6.069718971848488">
        <ele>67.909999999999997</ele>
        <time>2025-05-08T08:37:08Z</time>
      </trkpt>
      <trkpt lat="36.350903967395425" lon="-6.067505981773138">
        <ele>69.829999999999998</ele>
        <time>2025-05-08T08:37:16Z</time>
      </trkpt>
      <trkpt lat="36.349405031651258" lon="-6.06564000248909">
        <ele>71.760000000000005</ele>
        <time>2025-05-08T08:37:24Z</time>
      </trkpt>
      <trkpt lat="36.347936019301414" lon="-6.063612001016736">
        <ele>72.239999999999995</ele>
        <time>2025-05-08T08:37:33Z</time>
      </trkpt>
      <trkpt lat="36.346665993332863" lon="-6.061120983213186">
        <ele>72.719999999999999</ele>
        <time>2025-05-08T08:37:42Z</time>
      </trkpt>
      <trkpt lat="36.345670977607369" lon="-6.057994030416012">
        <ele>76.560000000000002</ele>
        <time>2025-05-08T08:37:52Z</time>
      </trkpt>
      <trkpt lat="36.344945020973682" lon="-6.05513202957809">
        <ele>76.079999999999998</ele>
        <time>2025-05-08T08:38:01Z</time>
      </trkpt>
      <trkpt lat="36.343861995264888" lon="-6.052838992327452">
        <ele>73.200000000000003</ele>
        <time>2025-05-08T08:38:09Z</time>
      </trkpt>
      <trkpt lat="36.342503037303686" lon="-6.05113503523171">
        <ele>69.829999999999998</ele>
        <time>2025-05-08T08:38:16Z</time>
      </trkpt>
      <trkpt lat="36.341027989983559" lon="-6.04999702423811">
        <ele>65.030000000000001</ele>
        <time>2025-05-08T08:38:23Z</time>
      </trkpt>
      <trkpt lat="36.339128986001015" lon="-6.049194959923625">
        <ele>58.780000000000001</ele>
        <time>2025-05-08T08:38:31Z</time>
      </trkpt>
      <trkpt lat="36.337346993386745" lon="-6.048984993249178">
        <ele>52.049999999999997</ele>
        <time>2025-05-08T08:38:38Z</time>
      </trkpt>
      <trkpt lat="36.33557497523725" lon="-6.049283975735307">
        <ele>46.759999999999998</ele>
        <time>2025-05-08T08:38:45Z</time>
      </trkpt>
      <trkpt lat="36.333629032596946" lon="-6.050252001732588">
        <ele>46.280000000000001</ele>
        <time>2025-05-08T08:38:53Z</time>
      </trkpt>
      <trkpt lat="36.331300036981702" lon="-6.052024019882083">
        <ele>53.490000000000002</ele>
        <time>2025-05-08T08:39:03Z</time>
      </trkpt>
      <trkpt lat="36.328994007781148" lon="-6.053666034713388">
        <ele>61.18</ele>
        <time>2025-05-08T08:39:13Z</time>
      </trkpt>
      <trkpt lat="36.326599968597293" lon="-6.054994985461235">
        <ele>65.989999999999995</ele>
        <time>2025-05-08T08:39:23Z</time>
      </trkpt>
      <trkpt lat="36.323592960834503" lon="-6.056204997003079">
        <ele>64.549999999999997</ele>
        <time>2025-05-08T08:39:35Z</time>
      </trkpt>
      <trkpt lat="36.320695001631975" lon="-6.056963978335261">
        <ele>54.450000000000003</ele>
        <time>2025-05-08T08:39:46Z</time>
      </trkpt>
      <trkpt lat="36.317522032186389" lon="-6.057319035753608">
        <ele>42.920000000000002</ele>
        <time>2025-05-08T08:39:58Z</time>
      </trkpt>
      <trkpt lat="36.314015965908766" lon="-6.057182997465134">
        <ele>30.899999999999999</ele>
        <time>2025-05-08T08:40:11Z</time>
      </trkpt>
      <trkpt lat="36.310228016227484" lon="-6.056599030271173">
        <ele>27.530000000000001</ele>
        <time>2025-05-08T08:40:26Z</time>
      </trkpt>
      <trkpt lat="36.306220041587949" lon="-6.056042974814773">
        <ele>33.299999999999997</ele>
        <time>2025-05-08T08:40:42Z</time>
      </trkpt>
      <trkpt lat="36.302708024159074" lon="-6.056023025885224">
        <ele>33.780000000000001</ele>
        <time>2025-05-08T08:40:56Z</time>
      </trkpt>
      <trkpt lat="36.299774022772908" lon="-6.056479001417756">
        <ele>30.420000000000002</ele>
        <time>2025-05-08T08:41:08Z</time>
      </trkpt>
      <trkpt lat="36.297103967517614" lon="-6.057065986096859">
        <ele>25.129999999999999</ele>
        <time>2025-05-08T08:41:20Z</time>
      </trkpt>
      <trkpt lat="36.295300014317036" lon="-6.057261032983661">
        <ele>20.809999999999999</ele>
        <time>2025-05-08T08:41:29Z</time>
      </trkpt>
      <trkpt lat="36.293308977037668" lon="-6.057501006871462">
        <ele>11.67</ele>
        <time>2025-05-08T08:41:41Z</time>
      </trkpt>
      <trkpt lat="36.292613027617335" lon="-6.057650959119201">
        <ele>5.42</ele>
        <time>2025-05-08T08:41:46Z</time>
      </trkpt>
      <trkpt lat="36.292515965178609" lon="-6.057683983817697">
        <ele>4.46</ele>
        <time>2025-05-08T08:41:47Z</time>
      </trkpt>
      <trkpt lat="36.292438013479114" lon="-6.057718014344573">
        <ele>4.46</ele>
        <time>2025-05-08T08:41:48Z</time>
      </trkpt>
      <trkpt lat="36.292343968525529" lon="-6.057794038206339">
        <ele>3.98</ele>
        <time>2025-05-08T08:41:49Z</time>
      </trkpt>
      <trkpt lat="36.292327037081122" lon="-6.057929992675781">
        <ele>3.98</ele>
        <time>2025-05-08T08:41:50Z</time>
      </trkpt>
      <trkpt lat="36.292293006554246" lon="-6.057986989617348">
        <ele>3.98</ele>
        <time>2025-05-08T08:41:51Z</time>
      </trkpt>
      <trkpt lat="36.292053032666445" lon="-6.05816300958395">
        <ele>3.02</ele>
        <time>2025-05-08T08:41:53Z</time>
      </trkpt>
      <trkpt lat="36.292023025453091" lon="-6.058311033993959">
        <ele>3.02</ele>
        <time>2025-05-08T08:41:54Z</time>
      </trkpt>
      <trkpt lat="36.291990000754595" lon="-6.058475989848375">
        <ele>2.54</ele>
        <time>2025-05-08T08:41:55Z</time>
      </trkpt>
      <trkpt lat="36.291652964428067" lon="-6.059953970834613">
        <ele>2.06</ele>
        <time>2025-05-08T08:42:03Z</time>
      </trkpt>
      <trkpt lat="36.29126999527216" lon="-6.061485009267926">
        <ele>8.789999999999999</ele>
        <time>2025-05-08T08:42:11Z</time>
      </trkpt>
      <trkpt lat="36.290659960359335" lon="-6.062586978077889">
        <ele>12.630000000000001</ele>
        <time>2025-05-08T08:42:18Z</time>
      </trkpt>
      <trkpt lat="36.290166014805436" lon="-6.063273036852479">
        <ele>11.19</ele>
        <time>2025-05-08T08:42:24Z</time>
      </trkpt>
      <trkpt lat="36.290181018412113" lon="-6.063465988263488">
        <ele>11.19</ele>
        <time>2025-05-08T08:42:25Z</time>
      </trkpt>
      <trkpt lat="36.290147993713617" lon="-6.063682995736599">
        <ele>10.710000000000001</ele>
        <time>2025-05-08T08:42:27Z</time>
      </trkpt>
      <trkpt lat="36.290101977065206" lon="-6.063775029033423">
        <ele>10.710000000000001</ele>
        <time>2025-05-08T08:42:28Z</time>
      </trkpt>
      <trkpt lat="36.290073981508613" lon="-6.063831020146608">
        <ele>10.23</ele>
        <time>2025-05-08T08:42:29Z</time>
      </trkpt>
      <trkpt lat="36.289868960157037" lon="-6.063861027359963">
        <ele>10.23</ele>
        <time>2025-05-08T08:42:30Z</time>
      </trkpt>
      <trkpt lat="36.289822021499276" lon="-6.063978038728237">
        <ele>9.75</ele>
        <time>2025-05-08T08:42:31Z</time>
      </trkpt>
      <trkpt lat="36.289772987365723" lon="-6.064117010682821">
        <ele>9.75</ele>
        <time>2025-05-08T08:42:32Z</time>
      </trkpt>
      <trkpt lat="36.289728982374072" lon="-6.06426402926445">
        <ele>9.75</ele>
        <time>2025-05-08T08:42:33Z</time>
      </trkpt>
      <trkpt lat="36.289667040109634" lon="-6.064411969855428">
        <ele>9.27</ele>
        <time>2025-05-08T08:42:34Z</time>
      </trkpt>
      <trkpt lat="36.289566960185766" lon="-6.064686980098486">
        <ele>8.789999999999999</ele>
        <time>2025-05-08T08:42:36Z</time>
      </trkpt>
      <trkpt lat="36.289527984336019" lon="-6.06480298563838">
        <ele>8.789999999999999</ele>
        <time>2025-05-08T08:42:37Z</time>
      </trkpt>
      <trkpt lat="36.289565032348037" lon="-6.065034996718168">
        <ele>8.789999999999999</ele>
        <time>2025-05-08T08:42:39Z</time>
      </trkpt>
      <trkpt lat="36.289513986557722" lon="-6.065109008923173">
        <ele>8.789999999999999</ele>
        <time>2025-05-08T08:42:40Z</time>
      </trkpt>
      <trkpt lat="36.289472999051213" lon="-6.065140021964908">
        <ele>8.789999999999999</ele>
        <time>2025-05-08T08:42:41Z</time>
      </trkpt>
      <trkpt lat="36.28942497074604" lon="-6.06510397978127">
        <ele>8.310000000000001</ele>
        <time>2025-05-08T08:42:42Z</time>
      </trkpt>
      <trkpt lat="36.289391024038196" lon="-6.065077995881438">
        <ele>8.310000000000001</ele>
        <time>2025-05-08T08:42:43Z</time>
      </trkpt>
      <trkpt lat="36.289387000724673" lon="-6.065074978396297">
        <ele>8.310000000000001</ele>
        <time>2025-05-08T08:42:44Z</time>
      </trkpt>
      <trkpt lat="36.289379959926009" lon="-6.065018987283111">
        <ele>8.310000000000001</ele>
        <time>2025-05-08T08:42:45Z</time>
      </trkpt>
      <trkpt lat="36.289374008774757" lon="-6.064968025311828">
        <ele>8.310000000000001</ele>
        <time>2025-05-08T08:42:46Z</time>
      </trkpt>
      <trkpt lat="36.289383983239532" lon="-6.064896024763584">
        <ele>8.310000000000001</ele>
        <time>2025-05-08T08:42:47Z</time>
      </trkpt>
      <trkpt lat="36.289434023201466" lon="-6.064874986186624">
        <ele>7.83</ele>
        <time>2025-05-08T08:42:48Z</time>
      </trkpt>
      <trkpt lat="36.289483979344368" lon="-6.064853025600314">
        <ele>7.83</ele>
        <time>2025-05-08T08:42:49Z</time>
      </trkpt>
      <trkpt lat="36.289535025134683" lon="-6.064865011721849">
        <ele>7.35</ele>
        <time>2025-05-08T08:42:50Z</time>
      </trkpt>
      <trkpt lat="36.289567966014147" lon="-6.0649090167135">
        <ele>7.35</ele>
        <time>2025-05-08T08:42:51Z</time>
      </trkpt>
      <trkpt lat="36.289580035954714" lon="-6.064925026148558">
        <ele>7.35</ele>
        <time>2025-05-08T08:42:52Z</time>
      </trkpt>
      <trkpt lat="36.289580035954714" lon="-6.064925026148558">
        <ele>7.35</ele>
        <time>2025-05-08T08:42:53Z</time>
      </trkpt>
      <trkpt lat="36.289608031511307" lon="-6.065141027793288">
        <ele>7.35</ele>
        <time>2025-05-08T08:42:54Z</time>
      </trkpt>
      <trkpt lat="36.289649019017816" lon="-6.065196013078094">
        <ele>6.87</ele>
        <time>2025-05-08T08:42:55Z</time>
      </trkpt>
      <trkpt lat="36.289687994867563" lon="-6.065246975049377">
        <ele>6.87</ele>
        <time>2025-05-08T08:42:56Z</time>
      </trkpt>
      <trkpt lat="36.289721019566059" lon="-6.065303971990943">
        <ele>6.39</ele>
        <time>2025-05-08T08:42:57Z</time>
      </trkpt>
      <trkpt lat="36.289750020951033" lon="-6.065355017781258">
        <ele>6.39</ele>
        <time>2025-05-08T08:42:58Z</time>
      </trkpt>
      <trkpt lat="36.289778016507626" lon="-6.065403968095779">
        <ele>5.91</ele>
        <time>2025-05-08T08:42:59Z</time>
      </trkpt>
      <trkpt lat="36.289804000407457" lon="-6.06544797308743">
        <ele>5.42</ele>
        <time>2025-05-08T08:43:00Z</time>
      </trkpt>
      <trkpt lat="36.289838030934334" lon="-6.065505975857377">
        <ele>4.46</ele>
        <time>2025-05-08T08:43:08Z</time>
      </trkpt>
      <trkpt lat="36.289881030097604" lon="-6.065581999719143">
        <ele>3.02</ele>
        <time>2025-05-08T08:43:25Z</time>
      </trkpt>
      <trkpt lat="36.289881030097604" lon="-6.065581999719143">
        <ele>2.06</ele>
        <time>2025-05-08T08:43:34Z</time>
      </trkpt>
      <trkpt lat="36.289924029260874" lon="-6.065655006095767">
        <ele>1.58</ele>
        <time>2025-05-08T08:43:35Z</time>
      </trkpt>
      <trkpt lat="36.289887987077236" lon="-6.065593985840678">
        <ele>1.58</ele>
        <time>2025-05-08T08:43:36Z</time>
      </trkpt>
      <trkpt lat="36.289870971813798" lon="-6.065563978627324">
        <ele>1.1</ele>
        <time>2025-05-08T08:43:37Z</time>
      </trkpt>
      <trkpt lat="36.289844987913966" lon="-6.065518967807293">
        <ele>1.1</ele>
        <time>2025-05-08T08:43:38Z</time>
      </trkpt>
      <trkpt lat="36.289814980700612" lon="-6.06546800583601">
        <ele>1.1</ele>
        <time>2025-05-08T08:43:39Z</time>
      </trkpt>
      <trkpt lat="36.28968296572566" lon="-6.065241023898125">
        <ele>1.1</ele>
        <time>2025-05-08T08:43:44Z</time>
      </trkpt>
      <trkpt lat="36.289649019017816" lon="-6.065196013078094">
        <ele>1.1</ele>
        <time>2025-05-08T08:43:45Z</time>
      </trkpt>
      <trkpt lat="36.289618005976081" lon="-6.065154019743204">
        <ele>0.62</ele>
        <time>2025-05-08T08:43:46Z</time>
      </trkpt>
      <trkpt lat="36.289472999051213" lon="-6.065140021964908">
        <ele>1.1</ele>
        <time>2025-05-08T08:43:48Z</time>
      </trkpt>
      <trkpt lat="36.28942497074604" lon="-6.06510397978127">
        <ele>1.1</ele>
        <time>2025-05-08T08:43:49Z</time>
      </trkpt>
      <trkpt lat="36.289383983239532" lon="-6.065054023638368">
        <ele>1.1</ele>
        <time>2025-05-08T08:43:50Z</time>
      </trkpt>
      <trkpt lat="36.289375014603138" lon="-6.064979005604982">
        <ele>1.1</ele>
        <time>2025-05-08T08:43:51Z</time>
      </trkpt>
      <trkpt lat="36.289406027644873" lon="-6.064886972308159">
        <ele>1.58</ele>
        <time>2025-05-08T08:43:52Z</time>
      </trkpt>
      <trkpt lat="36.289515998214483" lon="-6.064839027822018">
        <ele>1.58</ele>
        <time>2025-05-08T08:43:53Z</time>
      </trkpt>
      <trkpt lat="36.289654970169067" lon="-6.064441977068782">
        <ele>2.54</ele>
        <time>2025-05-08T08:43:57Z</time>
      </trkpt>
      <trkpt lat="36.28970299847424" lon="-6.064324965700507">
        <ele>3.02</ele>
        <time>2025-05-08T08:43:58Z</time>
      </trkpt>
      <trkpt lat="36.289842976257205" lon="-6.063924981281161">
        <ele>4.46</ele>
        <time>2025-05-08T08:44:03Z</time>
      </trkpt>
      <trkpt lat="36.289752032607794" lon="-6.063702022656798">
        <ele>4.94</ele>
        <time>2025-05-08T08:44:06Z</time>
      </trkpt>
      <trkpt lat="36.289752032607794" lon="-6.063648965209723">
        <ele>5.42</ele>
        <time>2025-05-08T08:44:07Z</time>
      </trkpt>
      <trkpt lat="36.289752032607794" lon="-6.063581993803382">
        <ele>5.42</ele>
        <time>2025-05-08T08:44:08Z</time>
      </trkpt>
      <trkpt lat="36.289752032607794" lon="-6.063516028225422">
        <ele>5.91</ele>
        <time>2025-05-08T08:44:09Z</time>
      </trkpt>
      <trkpt lat="36.289792014285922" lon="-6.063440004363656">
        <ele>6.39</ele>
        <time>2025-05-08T08:44:10Z</time>
      </trkpt>
      <trkpt lat="36.289824033156037" lon="-6.063401028513908">
        <ele>6.39</ele>
        <time>2025-05-08T08:44:11Z</time>
      </trkpt>
      <trkpt lat="36.289858985692263" lon="-6.063359035179019">
        <ele>6.39</ele>
        <time>2025-05-08T08:44:12Z</time>
      </trkpt>
      <trkpt lat="36.289927968755364" lon="-6.063339002430439">
        <ele>6.87</ele>
        <time>2025-05-08T08:44:13Z</time>
      </trkpt>
      <trkpt lat="36.289989994838834" lon="-6.063321987167001">
        <ele>6.87</ele>
        <time>2025-05-08T08:44:14Z</time>
      </trkpt>
      <trkpt lat="36.290068030357361" lon="-6.063345037400723">
        <ele>6.87</ele>
        <time>2025-05-08T08:44:15Z</time>
      </trkpt>
      <trkpt lat="36.290128966793418" lon="-6.063401028513908">
        <ele>6.87</ele>
        <time>2025-05-08T08:44:16Z</time>
      </trkpt>
      <trkpt lat="36.290181018412113" lon="-6.063465988263488">
        <ele>7.35</ele>
        <time>2025-05-08T08:44:17Z</time>
      </trkpt>
      <trkpt lat="36.290181018412113" lon="-6.063585011288524">
        <ele>7.35</ele>
        <time>2025-05-08T08:44:18Z</time>
      </trkpt>
      <trkpt lat="36.290181018412113" lon="-6.063616024330258">
        <ele>7.83</ele>
        <time>2025-05-08T08:44:19Z</time>
      </trkpt>
      <trkpt lat="36.290111029520631" lon="-6.063904026523233">
        <ele>7.83</ele>
        <time>2025-05-08T08:44:20Z</time>
      </trkpt>
      <trkpt lat="36.290165008977056" lon="-6.064013997092843">
        <ele>7.83</ele>
        <time>2025-05-08T08:44:21Z</time>
      </trkpt>
      <trkpt lat="36.290225023403764" lon="-6.064133020117879">
        <ele>7.35</ele>
        <time>2025-05-08T08:44:22Z</time>
      </trkpt>
      <trkpt lat="36.290286965668201" lon="-6.06426696293056">
        <ele>7.83</ele>
        <time>2025-05-08T08:44:23Z</time>
      </trkpt>
      <trkpt lat="36.291033960878849" lon="-6.065930016338825">
        <ele>8.310000000000001</ele>
        <time>2025-05-08T08:44:33Z</time>
      </trkpt>
      <trkpt lat="36.291928980499506" lon="-6.068516001105309">
        <ele>11.67</ele>
        <time>2025-05-08T08:44:48Z</time>
      </trkpt>
      <trkpt lat="36.292456034570932" lon="-6.070177964866161">
        <ele>14.56</ele>
        <time>2025-05-08T08:44:59Z</time>
      </trkpt>
      <trkpt lat="36.293129017576575" lon="-6.071838000789285">
        <ele>21.289999999999999</ele>
        <time>2025-05-08T08:45:11Z</time>
      </trkpt>
      <trkpt lat="36.293879030272365" lon="-6.072749029844999">
        <ele>25.129999999999999</ele>
        <time>2025-05-08T08:45:19Z</time>
      </trkpt>
      <trkpt lat="36.294117998331785" lon="-6.073038959875703">
        <ele>27.050000000000001</ele>
        <time>2025-05-08T08:45:23Z</time>
      </trkpt>
      <trkpt lat="36.294237021356821" lon="-6.073036026209593">
        <ele>27.050000000000001</ele>
        <time>2025-05-08T08:45:24Z</time>
      </trkpt>
      <trkpt lat="36.294269040226936" lon="-6.073047006502748">
        <ele>27.530000000000001</ele>
        <time>2025-05-08T08:45:25Z</time>
      </trkpt>
      <trkpt lat="36.294314973056316" lon="-6.073062010109425">
        <ele>27.530000000000001</ele>
        <time>2025-05-08T08:45:26Z</time>
      </trkpt>
      <trkpt lat="36.294370964169502" lon="-6.073121018707752">
        <ele>28.02</ele>
        <time>2025-05-08T08:45:27Z</time>
      </trkpt>
      <trkpt lat="36.294379010796547" lon="-6.073173992335796">
        <ele>28.02</ele>
        <time>2025-05-08T08:45:28Z</time>
      </trkpt>
      <trkpt lat="36.294324025511742" lon="-6.073280023410916">
        <ele>28.02</ele>
        <time>2025-05-08T08:45:29Z</time>
      </trkpt>
      <trkpt lat="36.29425898194313" lon="-6.073334002867341">
        <ele>28.02</ele>
        <time>2025-05-08T08:45:30Z</time>
      </trkpt>
      <trkpt lat="36.29419301636517" lon="-6.07339602895081">
        <ele>28.02</ele>
        <time>2025-05-08T08:45:31Z</time>
      </trkpt>
      <trkpt lat="36.294054966419935" lon="-6.07352502644062">
        <ele>27.530000000000001</ele>
        <time>2025-05-08T08:45:33Z</time>
      </trkpt>
      <trkpt lat="36.293663028627634" lon="-6.073892991989851">
        <ele>27.050000000000001</ele>
        <time>2025-05-08T08:45:39Z</time>
      </trkpt>
      <trkpt lat="36.292821988463402" lon="-6.074547031894326">
        <ele>26.57</ele>
        <time>2025-05-08T08:45:48Z</time>
      </trkpt>
      <trkpt lat="36.291339984163642" lon="-6.075440039858222">
        <ele>28.5</ele>
        <time>2025-05-08T08:46:02Z</time>
      </trkpt>
      <trkpt lat="36.29107897169888" lon="-6.075598038733006">
        <ele>29.940000000000001</ele>
        <time>2025-05-08T08:46:05Z</time>
      </trkpt>
      <trkpt lat="36.290913010016084" lon="-6.075705997645855">
        <ele>30.899999999999999</ele>
        <time>2025-05-08T08:46:07Z</time>
      </trkpt>
      <trkpt lat="36.289974991232157" lon="-6.076300023123622">
        <ele>33.299999999999997</ele>
        <time>2025-05-08T08:46:17Z</time>
      </trkpt>
      <trkpt lat="36.289418013766408" lon="-6.076633036136627">
        <ele>35.710000000000001</ele>
        <time>2025-05-08T08:46:24Z</time>
      </trkpt>
      <trkpt lat="36.289352970197797" lon="-6.076673017814755">
        <ele>35.710000000000001</ele>
        <time>2025-05-08T08:46:25Z</time>
      </trkpt>
      <trkpt lat="36.289288010448217" lon="-6.076714005321264">
        <ele>35.710000000000001</ele>
        <time>2025-05-08T08:46:26Z</time>
      </trkpt>
      <trkpt lat="36.288614021614194" lon="-6.077247010543943">
        <ele>37.149999999999999</ele>
        <time>2025-05-08T08:46:36Z</time>
      </trkpt>
      <trkpt lat="36.287858979776502" lon="-6.078288964927197">
        <ele>39.549999999999997</ele>
        <time>2025-05-08T08:46:44Z</time>
      </trkpt>
      <trkpt lat="36.287198988720775" lon="-6.079409960657358">
        <ele>43.399999999999999</ele>
        <time>2025-05-08T08:46:52Z</time>
      </trkpt>
      <trkpt lat="36.286413017660379" lon="-6.08022996224463">
        <ele>43.399999999999999</ele>
        <time>2025-05-08T08:47:01Z</time>
      </trkpt>
      <trkpt lat="36.286340011283755" lon="-6.080288970842958">
        <ele>43.399999999999999</ele>
        <time>2025-05-08T08:47:02Z</time>
      </trkpt>
      <trkpt lat="36.286359038203955" lon="-6.080463984981179">
        <ele>43.399999999999999</ele>
        <time>2025-05-08T08:47:03Z</time>
      </trkpt>
      <trkpt lat="36.286305980756879" lon="-6.080531040206552">
        <ele>43.399999999999999</ele>
        <time>2025-05-08T08:47:04Z</time>
      </trkpt>
      <trkpt lat="36.286216964945197" lon="-6.080579990521073">
        <ele>43.399999999999999</ele>
        <time>2025-05-08T08:47:05Z</time>
      </trkpt>
      <trkpt lat="36.286169020459056" lon="-6.080588959157467">
        <ele>43.399999999999999</ele>
        <time>2025-05-08T08:47:06Z</time>
      </trkpt>
      <trkpt lat="36.286023007705808" lon="-6.080530034378171">
        <ele>42.920000000000002</ele>
        <time>2025-05-08T08:47:07Z</time>
      </trkpt>
      <trkpt lat="36.285940026864409" lon="-6.080589964985848">
        <ele>42.920000000000002</ele>
        <time>2025-05-08T08:47:08Z</time>
      </trkpt>
      <trkpt lat="36.285842964425683" lon="-6.080659031867981">
        <ele>42.439999999999998</ele>
        <time>2025-05-08T08:47:09Z</time>
      </trkpt>
      <trkpt lat="36.28475901670754" lon="-6.081421030685306">
        <ele>43.399999999999999</ele>
        <time>2025-05-08T08:47:18Z</time>
      </trkpt>
      <trkpt lat="36.283700969070196" lon="-6.082195015624166">
        <ele>43.880000000000003</ele>
        <time>2025-05-08T08:47:28Z</time>
      </trkpt>
      <trkpt lat="36.283399974927306" lon="-6.082413028925657">
        <ele>43.880000000000003</ele>
        <time>2025-05-08T08:47:31Z</time>
      </trkpt>
      <trkpt lat="36.283339960500598" lon="-6.082473965361714">
        <ele>44.359999999999999</ele>
        <time>2025-05-08T08:47:32Z</time>
      </trkpt>
      <trkpt lat="36.283314982429147" lon="-6.082605980336666">
        <ele>44.359999999999999</ele>
        <time>2025-05-08T08:47:33Z</time>
      </trkpt>
      <trkpt lat="36.283298972994089" lon="-6.082660965621471">
        <ele>45.32</ele>
        <time>2025-05-08T08:47:34Z</time>
      </trkpt>
      <trkpt lat="36.283228984102607" lon="-6.082761967554689">
        <ele>45.32</ele>
        <time>2025-05-08T08:47:35Z</time>
      </trkpt>
      <trkpt lat="36.283175004646182" lon="-6.082769008353353">
        <ele>45.32</ele>
        <time>2025-05-08T08:47:36Z</time>
      </trkpt>
      <trkpt lat="36.283115996047854" lon="-6.082775965332985">
        <ele>45.32</ele>
        <time>2025-05-08T08:47:37Z</time>
      </trkpt>
      <trkpt lat="36.283055981621146" lon="-6.082733971998096">
        <ele>45.32</ele>
        <time>2025-05-08T08:47:38Z</time>
      </trkpt>
      <trkpt lat="36.283012982457876" lon="-6.082682004198432">
        <ele>45.32</ele>
        <time>2025-05-08T08:47:39Z</time>
      </trkpt>
      <trkpt lat="36.283005019649863" lon="-6.082627018913627">
        <ele>45.32</ele>
        <time>2025-05-08T08:47:40Z</time>
      </trkpt>
      <trkpt lat="36.282996973022819" lon="-6.082572033628821">
        <ele>44.840000000000003</ele>
        <time>2025-05-08T08:47:41Z</time>
      </trkpt>
      <trkpt lat="36.282993033528328" lon="-6.082542026415467">
        <ele>44.840000000000003</ele>
        <time>2025-05-08T08:47:42Z</time>
      </trkpt>
      <trkpt lat="36.282993033528328" lon="-6.082542026415467">
        <ele>44.840000000000003</ele>
        <time>2025-05-08T08:47:43Z</time>
      </trkpt>
      <trkpt lat="36.282993033528328" lon="-6.082542026415467">
        <ele>43.880000000000003</ele>
        <time>2025-05-08T08:47:54Z</time>
      </trkpt>
      <trkpt lat="36.283007031306624" lon="-6.08233499340713">
        <ele>43.880000000000003</ele>
        <time>2025-05-08T08:48:02Z</time>
      </trkpt>
      <trkpt lat="36.282974006608129" lon="-6.082275984808803">
        <ele>43.880000000000003</ele>
        <time>2025-05-08T08:48:03Z</time>
      </trkpt>
      <trkpt lat="36.282550971955061" lon="-6.081621022894979">
        <ele>45.32</ele>
        <time>2025-05-08T08:48:11Z</time>
      </trkpt>
      <trkpt lat="36.282157022505999" lon="-6.081105032935739">
        <ele>43.399999999999999</ele>
        <time>2025-05-08T08:48:18Z</time>
      </trkpt>
      <trkpt lat="36.282082004472613" lon="-6.081030014902353">
        <ele>42.920000000000002</ele>
        <time>2025-05-08T08:48:26Z</time>
      </trkpt>
      <trkpt lat="36.282024001702666" lon="-6.080972012132406">
        <ele>42.920000000000002</ele>
        <time>2025-05-08T08:48:54Z</time>
      </trkpt>
      <trkpt lat="36.281986031681299" lon="-6.080933958292007">
        <ele>43.399999999999999</ele>
        <time>2025-05-08T08:48:55Z</time>
      </trkpt>
      <trkpt lat="36.281880000606179" lon="-6.080891964957118">
        <ele>43.880000000000003</ele>
        <time>2025-05-08T08:48:56Z</time>
      </trkpt>
      <trkpt lat="36.281784027814865" lon="-6.08091602101922">
        <ele>44.359999999999999</ele>
        <time>2025-05-08T08:48:58Z</time>
      </trkpt>
      <trkpt lat="36.281723007559776" lon="-6.080878973007202">
        <ele>44.359999999999999</ele>
        <time>2025-05-08T08:48:59Z</time>
      </trkpt>
      <trkpt lat="36.281676990911365" lon="-6.080820970237255">
        <ele>44.359999999999999</ele>
        <time>2025-05-08T08:49:00Z</time>
      </trkpt>
      <trkpt lat="36.281641032546759" lon="-6.080761039629579">
        <ele>44.840000000000003</ele>
        <time>2025-05-08T08:49:02Z</time>
      </trkpt>
      <trkpt lat="36.281586969271302" lon="-6.080514024943113">
        <ele>44.840000000000003</ele>
        <time>2025-05-08T08:49:03Z</time>
      </trkpt>
      <trkpt lat="36.281519997864962" lon="-6.080446969717741">
        <ele>44.840000000000003</ele>
        <time>2025-05-08T08:49:04Z</time>
      </trkpt>
      <trkpt lat="36.281438022851944" lon="-6.080382009968162">
        <ele>44.840000000000003</ele>
        <time>2025-05-08T08:49:05Z</time>
      </trkpt>
      <trkpt lat="36.281364010646939" lon="-6.080319983884692">
        <ele>44.840000000000003</ele>
        <time>2025-05-08T08:49:06Z</time>
      </trkpt>
      <trkpt lat="36.280300011858344" lon="-6.079602995887399">
        <ele>38.590000000000003</ele>
        <time>2025-05-08T08:49:17Z</time>
      </trkpt>
      <trkpt lat="36.279090000316501" lon="-6.079302001744509">
        <ele>29.460000000000001</ele>
        <time>2025-05-08T08:49:27Z</time>
      </trkpt>
      <trkpt lat="36.278235968202353" lon="-6.079209968447685">
        <ele>23.210000000000001</ele>
        <time>2025-05-08T08:49:34Z</time>
      </trkpt>
      <trkpt lat="36.278130020946264" lon="-6.079164035618305">
        <ele>21.77</ele>
        <time>2025-05-08T08:49:35Z</time>
      </trkpt>
      <trkpt lat="36.277960035949945" lon="-6.079043000936508">
        <ele>19.84</ele>
        <time>2025-05-08T08:49:37Z</time>
      </trkpt>
      <trkpt lat="36.277891974896193" lon="-6.078993966802955">
        <ele>18.879999999999999</ele>
        <time>2025-05-08T08:49:38Z</time>
      </trkpt>
      <trkpt lat="36.277802959084511" lon="-6.078964965417981">
        <ele>17.920000000000002</ele>
        <time>2025-05-08T08:49:39Z</time>
      </trkpt>
      <trkpt lat="36.277591986581683" lon="-6.078908974304795">
        <ele>16</ele>
        <time>2025-05-08T08:49:42Z</time>
      </trkpt>
      <trkpt lat="36.277533983811736" lon="-6.078944010660052">
        <ele>15.52</ele>
        <time>2025-05-08T08:49:43Z</time>
      </trkpt>
      <trkpt lat="36.277470029890537" lon="-6.0789829865098">
        <ele>15.52</ele>
        <time>2025-05-08T08:49:44Z</time>
      </trkpt>
      <trkpt lat="36.277371039614081" lon="-6.079044006764889">
        <ele>15.52</ele>
        <time>2025-05-08T08:49:45Z</time>
      </trkpt>
      <trkpt lat="36.277334997430444" lon="-6.07911198399961">
        <ele>15.52</ele>
        <time>2025-05-08T08:49:46Z</time>
      </trkpt>
      <trkpt lat="36.277286969125271" lon="-6.079200999811292">
        <ele>15.52</ele>
        <time>2025-05-08T08:49:47Z</time>
      </trkpt>
      <trkpt lat="36.277007013559341" lon="-6.079779015854001">
        <ele>15.039999999999999</ele>
        <time>2025-05-08T08:49:54Z</time>
      </trkpt>
      <trkpt lat="36.276972983032465" lon="-6.079841963946819">
        <ele>15.039999999999999</ele>
        <time>2025-05-08T08:49:55Z</time>
      </trkpt>
      <trkpt lat="36.276942975819111" lon="-6.079900972545147">
        <ele>15.039999999999999</ele>
        <time>2025-05-08T08:49:56Z</time>
      </trkpt>
      <trkpt lat="36.276881033554673" lon="-6.079980013892055">
        <ele>15.039999999999999</ele>
        <time>2025-05-08T08:49:57Z</time>
      </trkpt>
      <trkpt lat="36.276840968057513" lon="-6.079959981143475">
        <ele>15.52</ele>
        <time>2025-05-08T08:49:58Z</time>
      </trkpt>
      <trkpt lat="36.276834011077881" lon="-6.079795025289059">
        <ele>15.039999999999999</ele>
        <time>2025-05-08T08:49:59Z</time>
      </trkpt>
      <trkpt lat="36.27683199942112" lon="-6.079782033339143">
        <ele>15.039999999999999</ele>
        <time>2025-05-08T08:50:00Z</time>
      </trkpt>
      <trkpt lat="36.276816995814443" lon="-6.079700980335474">
        <ele>15.039999999999999</ele>
        <time>2025-05-08T08:50:01Z</time>
      </trkpt>
      <trkpt lat="36.276799980551004" lon="-6.079606013372541">
        <ele>14.56</ele>
        <time>2025-05-08T08:50:02Z</time>
      </trkpt>
      <trkpt lat="36.276728985831141" lon="-6.079379031434655">
        <ele>13.6</ele>
        <time>2025-05-08T08:50:04Z</time>
      </trkpt>
      <trkpt lat="36.276310980319977" lon="-6.078146975487471">
        <ele>7.83</ele>
        <time>2025-05-08T08:50:12Z</time>
      </trkpt>
      <trkpt lat="36.276254989206791" lon="-6.077967016026378">
        <ele>7.35</ele>
        <time>2025-05-08T08:50:13Z</time>
      </trkpt>
      <trkpt lat="36.276240991428494" lon="-6.07777800410986">
        <ele>6.87</ele>
        <time>2025-05-08T08:50:14Z</time>
      </trkpt>
      <trkpt lat="36.27623101696372" lon="-6.077588992193341">
        <ele>6.39</ele>
        <time>2025-05-08T08:50:15Z</time>
      </trkpt>
      <trkpt lat="36.276151975616813" lon="-6.076263980939984">
        <ele>1.1</ele>
        <time>2025-05-08T08:50:23Z</time>
      </trkpt>
      <trkpt lat="36.276023983955383" lon="-6.075772969052196">
        <ele>-0.34</ele>
        <time>2025-05-08T08:50:27Z</time>
      </trkpt>
      <trkpt lat="36.27597201615572" lon="-6.075643971562386">
        <ele>-0.34</ele>
        <time>2025-05-08T08:50:28Z</time>
      </trkpt>
      <trkpt lat="36.275912001729012" lon="-6.075514974072576">
        <ele>-0.82</ele>
        <time>2025-05-08T08:50:29Z</time>
      </trkpt>
      <trkpt lat="36.275832960382104" lon="-6.075400980189443">
        <ele>-0.82</ele>
        <time>2025-05-08T08:50:30Z</time>
      </trkpt>
      <trkpt lat="36.275752997025847" lon="-6.075284974649549">
        <ele>-0.82</ele>
        <time>2025-05-08T08:50:31Z</time>
      </trkpt>
      <trkpt lat="36.275568008422852" lon="-6.075085988268256">
        <ele>-1.79</ele>
        <time>2025-05-08T08:50:33Z</time>
      </trkpt>
      <trkpt lat="36.275470023974776" lon="-6.074996972456574">
        <ele>-1.79</ele>
        <time>2025-05-08T08:50:34Z</time>
      </trkpt>
      <trkpt lat="36.27535100094974" lon="-6.074959002435207">
        <ele>-2.27</ele>
        <time>2025-05-08T08:50:35Z</time>
      </trkpt>
      <trkpt lat="36.275242958217859" lon="-6.074930001050234">
        <ele>-2.27</ele>
        <time>2025-05-08T08:50:36Z</time>
      </trkpt>
      <trkpt lat="36.275142962113023" lon="-6.074902005493641">
        <ele>-2.27</ele>
        <time>2025-05-08T08:50:37Z</time>
      </trkpt>
      <trkpt lat="36.274008974432945" lon="-6.074628001078963">
        <ele>-0.82</ele>
        <time>2025-05-08T08:50:49Z</time>
      </trkpt>
      <trkpt lat="36.273531960323453" lon="-6.074463967233896">
        <ele>-1.79</ele>
        <time>2025-05-08T08:50:54Z</time>
      </trkpt>
      <trkpt lat="36.273426013067365" lon="-6.074419962242246">
        <ele>-2.27</ele>
        <time>2025-05-08T08:50:55Z</time>
      </trkpt>
      <trkpt lat="36.272229999303818" lon="-6.07376298867166">
        <ele>-4.67</ele>
        <time>2025-05-08T08:51:06Z</time>
      </trkpt>
      <trkpt lat="36.270968019962311" lon="-6.073517985641956">
        <ele>-4.67</ele>
        <time>2025-05-08T08:51:17Z</time>
      </trkpt>
      <trkpt lat="36.269985996186733" lon="-6.073703980073333">
        <ele>-4.67</ele>
        <time>2025-05-08T08:51:26Z</time>
      </trkpt>
      <trkpt lat="36.268551014363766" lon="-6.073999023064971">
        <ele>-1.79</ele>
        <time>2025-05-08T08:51:38Z</time>
      </trkpt>
      <trkpt lat="36.267021987587214" lon="-6.074142018333077">
        <ele>-1.3</ele>
        <time>2025-05-08T08:51:45Z</time>
      </trkpt>
      <trkpt lat="36.265118960291147" lon="-6.074237991124392">
        <ele>-0.82</ele>
        <time>2025-05-08T08:51:54Z</time>
      </trkpt>
      <trkpt lat="36.263386001810431" lon="-6.073861978948116">
        <ele>3.5</ele>
        <time>2025-05-08T08:52:04Z</time>
      </trkpt>
      <trkpt lat="36.261996030807495" lon="-6.073069972917438">
        <ele>7.35</ele>
        <time>2025-05-08T08:52:12Z</time>
      </trkpt>
      <trkpt lat="36.259868033230305" lon="-6.07161495834589">
        <ele>7.83</ele>
        <time>2025-05-08T08:52:23Z</time>
      </trkpt>
      <trkpt lat="36.25775596126914" lon="-6.07086000032723">
        <ele>7.35</ele>
        <time>2025-05-08T08:52:34Z</time>
      </trkpt>
      <trkpt lat="36.255150027573109" lon="-6.069945031777024">
        <ele>4.46</ele>
        <time>2025-05-08T08:52:48Z</time>
      </trkpt>
      <trkpt lat="36.253039967268705" lon="-6.069286968559027">
        <ele>3.02</ele>
        <time>2025-05-08T08:53:00Z</time>
      </trkpt>
      <trkpt lat="36.251197960227728" lon="-6.068523041903973">
        <ele>2.54</ele>
        <time>2025-05-08T08:53:12Z</time>
      </trkpt>
      <trkpt lat="36.249707993119955" lon="-6.067355023697019">
        <ele>2.06</ele>
        <time>2025-05-08T08:53:23Z</time>
      </trkpt>
      <trkpt lat="36.247875960543752" lon="-6.065948959439993">
        <ele>3.5</ele>
        <time>2025-05-08T08:53:37Z</time>
      </trkpt>
      <trkpt lat="36.246187007054687" lon="-6.064552031457424">
        <ele>3.5</ele>
        <time>2025-05-08T08:53:50Z</time>
      </trkpt>
      <trkpt lat="36.244461005553603" lon="-6.06319097802043">
        <ele>3.5</ele>
        <time>2025-05-08T08:54:04Z</time>
      </trkpt>
      <trkpt lat="36.243571015074849" lon="-6.062089009210467">
        <ele>4.46</ele>
        <time>2025-05-08T08:54:13Z</time>
      </trkpt>
      <trkpt lat="36.242094961926341" lon="-6.060918979346752">
        <ele>4.94</ele>
        <time>2025-05-08T08:54:25Z</time>
      </trkpt>
      <trkpt lat="36.241297004744411" lon="-6.059923963621259">
        <ele>6.87</ele>
        <time>2025-05-08T08:54:33Z</time>
      </trkpt>
      <trkpt lat="36.240253960713744" lon="-6.058086985722184">
        <ele>7.35</ele>
        <time>2025-05-08T08:54:44Z</time>
      </trkpt>
      <trkpt lat="36.238451013341546" lon="-6.054798010736704">
        <ele>12.630000000000001</ele>
        <time>2025-05-08T08:55:02Z</time>
      </trkpt>
      <trkpt lat="36.237559011206031" lon="-6.053245011717081">
        <ele>16</ele>
        <time>2025-05-08T08:55:10Z</time>
      </trkpt>
      <trkpt lat="36.237411992624402" lon="-6.053097993135452">
        <ele>16.48</ele>
        <time>2025-05-08T08:55:11Z</time>
      </trkpt>
      <trkpt lat="36.237263968214393" lon="-6.052948962897062">
        <ele>16.960000000000001</ele>
        <time>2025-05-08T08:55:12Z</time>
      </trkpt>
      <trkpt lat="36.235737036913633" lon="-6.051165964454413">
        <ele>22.25</ele>
        <time>2025-05-08T08:55:23Z</time>
      </trkpt>
      <trkpt lat="36.234975960105658" lon="-6.049580024555326">
        <ele>24.170000000000002</ele>
        <time>2025-05-08T08:55:31Z</time>
      </trkpt>
      <trkpt lat="36.233963007107377" lon="-6.047938009724021">
        <ele>25.129999999999999</ele>
        <time>2025-05-08T08:55:40Z</time>
      </trkpt>
      <trkpt lat="36.233807019889355" lon="-6.047815969213843">
        <ele>24.649999999999999</ele>
        <time>2025-05-08T08:55:41Z</time>
      </trkpt>
      <trkpt lat="36.233656983822584" lon="-6.0476990416646">
        <ele>24.649999999999999</ele>
        <time>2025-05-08T08:55:42Z</time>
      </trkpt>
      <trkpt lat="36.233496973291039" lon="-6.04761597700417">
        <ele>25.129999999999999</ele>
        <time>2025-05-08T08:55:43Z</time>
      </trkpt>
      <trkpt lat="36.233327994123101" lon="-6.047564009204507">
        <ele>25.129999999999999</ele>
        <time>2025-05-08T08:55:44Z</time>
      </trkpt>
      <trkpt lat="36.233149040490389" lon="-6.047554034739733">
        <ele>25.129999999999999</ele>
        <time>2025-05-08T08:55:45Z</time>
      </trkpt>
      <trkpt lat="36.232963968068361" lon="-6.047545988112688">
        <ele>25.609999999999999</ele>
        <time>2025-05-08T08:55:46Z</time>
      </trkpt>
      <trkpt lat="36.232773028314114" lon="-6.0475729778409">
        <ele>25.609999999999999</ele>
        <time>2025-05-08T08:55:47Z</time>
      </trkpt>
      <trkpt lat="36.230415031313896" lon="-6.048078993335366">
        <ele>22.25</ele>
        <time>2025-05-08T08:55:59Z</time>
      </trkpt>
      <trkpt lat="36.228481996804476" lon="-6.048167003318667">
        <ele>19.359999999999999</ele>
        <time>2025-05-08T08:56:09Z</time>
      </trkpt>
      <trkpt lat="36.227482035756111" lon="-6.048167003318667">
        <ele>17.440000000000001</ele>
        <time>2025-05-08T08:56:16Z</time>
      </trkpt>
      <trkpt lat="36.227417998015881" lon="-6.048183012753725">
        <ele>17.440000000000001</ele>
        <time>2025-05-08T08:56:17Z</time>
      </trkpt>
      <trkpt lat="36.227352032437921" lon="-6.048199022188783">
        <ele>16.960000000000001</ele>
        <time>2025-05-08T08:56:18Z</time>
      </trkpt>
      <trkpt lat="36.227227980270982" lon="-6.048346040770412">
        <ele>16.48</ele>
        <time>2025-05-08T08:56:20Z</time>
      </trkpt>
      <trkpt lat="36.227160003036261" lon="-6.048360038548708">
        <ele>16.48</ele>
        <time>2025-05-08T08:56:21Z</time>
      </trkpt>
      <trkpt lat="36.227099988609552" lon="-6.048315027728677">
        <ele>16.48</ele>
        <time>2025-05-08T08:56:22Z</time>
      </trkpt>
      <trkpt lat="36.227074004709721" lon="-6.048296000808477">
        <ele>16.48</ele>
        <time>2025-05-08T08:56:23Z</time>
      </trkpt>
      <trkpt lat="36.227027988061309" lon="-6.048116963356733">
        <ele>16</ele>
        <time>2025-05-08T08:56:24Z</time>
      </trkpt>
      <trkpt lat="36.226359028369188" lon="-6.047376003116369">
        <ele>15.039999999999999</ele>
        <time>2025-05-08T08:56:33Z</time>
      </trkpt>
      <trkpt lat="36.225618990138173" lon="-6.046030037105084">
        <ele>15.52</ele>
        <time>2025-05-08T08:56:42Z</time>
      </trkpt>
      <trkpt lat="36.224576029926538" lon="-6.044259024783969">
        <ele>14.56</ele>
        <time>2025-05-08T08:56:53Z</time>
      </trkpt>
      <trkpt lat="36.223489986732602" lon="-6.042997967451811">
        <ele>14.56</ele>
        <time>2025-05-08T08:57:03Z</time>
      </trkpt>
      <trkpt lat="36.222507962957025" lon="-6.042102025821805">
        <ele>16</ele>
        <time>2025-05-08T08:57:13Z</time>
      </trkpt>
      <trkpt lat="36.221989961341023" lon="-6.041722996160388">
        <ele>17.440000000000001</ele>
        <time>2025-05-08T08:57:19Z</time>
      </trkpt>
      <trkpt lat="36.221940005198121" lon="-6.041689971461892">
        <ele>17.440000000000001</ele>
        <time>2025-05-08T08:57:20Z</time>
      </trkpt>
      <trkpt lat="36.221913015469909" lon="-6.041623000055552">
        <ele>17.440000000000001</ele>
        <time>2025-05-08T08:57:21Z</time>
      </trkpt>
      <trkpt lat="36.221923995763063" lon="-6.041571032255888">
        <ele>17.440000000000001</ele>
        <time>2025-05-08T08:57:22Z</time>
      </trkpt>
      <trkpt lat="36.22193799354136" lon="-6.041514035314322">
        <ele>17.440000000000001</ele>
        <time>2025-05-08T08:57:23Z</time>
      </trkpt>
      <trkpt lat="36.221950985491276" lon="-6.041455026715994">
        <ele>17.440000000000001</ele>
        <time>2025-05-08T08:57:24Z</time>
      </trkpt>
      <trkpt lat="36.222007982432842" lon="-6.04121102951467">
        <ele>17.920000000000002</ele>
        <time>2025-05-08T08:57:28Z</time>
      </trkpt>
      <trkpt lat="36.222019968554378" lon="-6.041157972067595">
        <ele>17.920000000000002</ele>
        <time>2025-05-08T08:57:29Z</time>
      </trkpt>
      <trkpt lat="36.222031032666564" lon="-6.041110027581453">
        <ele>18.399999999999999</ele>
        <time>2025-05-08T08:57:30Z</time>
      </trkpt>
      <trkpt lat="36.222032038494945" lon="-6.041107010096312">
        <ele>18.399999999999999</ele>
        <time>2025-05-08T08:57:31Z</time>
      </trkpt>
      <trkpt lat="36.222032038494945" lon="-6.041107010096312">
        <ele>18.399999999999999</ele>
        <time>2025-05-08T08:57:32Z</time>
      </trkpt>
      <trkpt lat="36.222052993252873" lon="-6.040913974866271">
        <ele>18.399999999999999</ele>
        <time>2025-05-08T08:57:33Z</time>
      </trkpt>
      <trkpt lat="36.222052993252873" lon="-6.040913974866271">
        <ele>18.399999999999999</ele>
        <time>2025-05-08T08:57:34Z</time>
      </trkpt>
      <trkpt lat="36.222052993252873" lon="-6.040913974866271">
        <ele>17.920000000000002</ele>
        <time>2025-05-08T08:57:42Z</time>
      </trkpt>
      <trkpt lat="36.222351975739002" lon="-6.041068034246564">
        <ele>13.6</ele>
        <time>2025-05-08T09:03:32Z</time>
      </trkpt>
      <trkpt lat="36.222328003495932" lon="-6.041163001209498">
        <ele>-2.27</ele>
        <time>2025-05-08T09:04:03Z</time>
      </trkpt>
      <trkpt lat="36.222391035407782" lon="-6.041096029803157">
        <ele>-3.71</ele>
        <time>2025-05-08T09:04:47Z</time>
      </trkpt>
      <trkpt lat="36.22241199016571" lon="-6.04108203202486">
        <ele>9.27</ele>
        <time>2025-05-08T09:04:53Z</time>
      </trkpt>
      <trkpt lat="36.222052993252873" lon="-6.040913974866271">
        <ele>11.67</ele>
        <time>2025-05-08T09:05:01Z</time>
      </trkpt>
      <trkpt lat="36.222052993252873" lon="-6.040913974866271">
        <ele>11.19</ele>
        <time>2025-05-08T09:05:02Z</time>
      </trkpt>
      <trkpt lat="36.221891976892948" lon="-6.040746001526713">
        <ele>9.75</ele>
        <time>2025-05-08T09:05:10Z</time>
      </trkpt>
      <trkpt lat="36.221848977729678" lon="-6.04075999930501">
        <ele>9.27</ele>
        <time>2025-05-08T09:05:11Z</time>
      </trkpt>
      <trkpt lat="36.221796004101634" lon="-6.040778020396829">
        <ele>8.789999999999999</ele>
        <time>2025-05-08T09:05:12Z</time>
      </trkpt>
      <trkpt lat="36.221276996657252" lon="-6.040940964594483">
        <ele>5.91</ele>
        <time>2025-05-08T09:05:20Z</time>
      </trkpt>
      <trkpt lat="36.221214970573783" lon="-6.040966026484966">
        <ele>5.91</ele>
        <time>2025-05-08T09:05:21Z</time>
      </trkpt>
      <trkpt lat="36.221155961975455" lon="-6.040989998728037">
        <ele>5.91</ele>
        <time>2025-05-08T09:05:22Z</time>
      </trkpt>
      <trkpt lat="36.221109023317695" lon="-6.041150009259582">
        <ele>5.42</ele>
        <time>2025-05-08T09:05:23Z</time>
      </trkpt>
      <trkpt lat="36.221064012497663" lon="-6.041158977895975">
        <ele>5.42</ele>
        <time>2025-05-08T09:05:24Z</time>
      </trkpt>
      <trkpt lat="36.220999974757433" lon="-6.04117096401751">
        <ele>5.42</ele>
        <time>2025-05-08T09:05:25Z</time>
      </trkpt>
      <trkpt lat="36.220939038321376" lon="-6.041129976511002">
        <ele>5.42</ele>
        <time>2025-05-08T09:05:26Z</time>
      </trkpt>
      <trkpt lat="36.220937026664615" lon="-6.041128970682621">
        <ele>5.42</ele>
        <time>2025-05-08T09:05:27Z</time>
      </trkpt>
      <trkpt lat="36.220698980614543" lon="-6.04093199595809">
        <ele>5.42</ele>
        <time>2025-05-08T09:05:29Z</time>
      </trkpt>
      <trkpt lat="36.21974503621459" lon="-6.040202016010881">
        <ele>5.42</ele>
        <time>2025-05-08T09:05:37Z</time>
      </trkpt>
      <trkpt lat="36.218207040801644" lon="-6.038857977837324">
        <ele>6.39</ele>
        <time>2025-05-08T09:05:47Z</time>
      </trkpt>
      <trkpt lat="36.216183984652162" lon="-6.03695503436029">
        <ele>9.27</ele>
        <time>2025-05-08T09:06:00Z</time>
      </trkpt>
      <trkpt lat="36.214007036760449" lon="-6.035272032022476">
        <ele>11.19</ele>
        <time>2025-05-08T09:06:14Z</time>
      </trkpt>
      <trkpt lat="36.212307019159198" lon="-6.033506970852613">
        <ele>14.08</ele>
        <time>2025-05-08T09:06:27Z</time>
      </trkpt>
      <trkpt lat="36.211647028103471" lon="-6.032934989780188">
        <ele>15.52</ele>
        <time>2025-05-08T09:06:32Z</time>
      </trkpt>
      <trkpt lat="36.21149598620832" lon="-6.032868018373847">
        <ele>15.52</ele>
        <time>2025-05-08T09:06:33Z</time>
      </trkpt>
      <trkpt lat="36.211331030353904" lon="-6.032851003110409">
        <ele>15.52</ele>
        <time>2025-05-08T09:06:34Z</time>
      </trkpt>
      <trkpt lat="36.211161967366934" lon="-6.032833987846971">
        <ele>16</ele>
        <time>2025-05-08T09:06:35Z</time>
      </trkpt>
      <trkpt lat="36.210991982370615" lon="-6.032825019210577">
        <ele>16</ele>
        <time>2025-05-08T09:06:36Z</time>
      </trkpt>
      <trkpt lat="36.210481021553278" lon="-6.032874975353479">
        <ele>15.52</ele>
        <time>2025-05-08T09:06:39Z</time>
      </trkpt>
      <trkpt lat="36.210318999364972" lon="-6.032929960638285">
        <ele>15.52</ele>
        <time>2025-05-08T09:06:40Z</time>
      </trkpt>
      <trkpt lat="36.210159994661808" lon="-6.033010007813573">
        <ele>15.52</ele>
        <time>2025-05-08T09:06:41Z</time>
      </trkpt>
      <trkpt lat="36.210006019100547" lon="-6.033087037503719">
        <ele>15.52</ele>
        <time>2025-05-08T09:06:42Z</time>
      </trkpt>
      <trkpt lat="36.209867969155312" lon="-6.033182004466653">
        <ele>15.039999999999999</ele>
        <time>2025-05-08T09:06:43Z</time>
      </trkpt>
      <trkpt lat="36.20973696000874" lon="-6.03328300639987">
        <ele>15.039999999999999</ele>
        <time>2025-05-08T09:06:44Z</time>
      </trkpt>
      <trkpt lat="36.209093984216452" lon="-6.033811988309026">
        <ele>13.6</ele>
        <time>2025-05-08T09:06:49Z</time>
      </trkpt>
      <trkpt lat="36.208987031131983" lon="-6.033959006890655">
        <ele>13.119999999999999</ele>
        <time>2025-05-08T09:06:50Z</time>
      </trkpt>
      <trkpt lat="36.208347994834185" lon="-6.035029040649533">
        <ele>10.710000000000001</ele>
        <time>2025-05-08T09:06:57Z</time>
      </trkpt>
      <trkpt lat="36.208255961537361" lon="-6.035136999562383">
        <ele>10.710000000000001</ele>
        <time>2025-05-08T09:06:58Z</time>
      </trkpt>
      <trkpt lat="36.20816501788795" lon="-6.035207994282246">
        <ele>10.710000000000001</ele>
        <time>2025-05-08T09:06:59Z</time>
      </trkpt>
      <trkpt lat="36.207945998758078" lon="-6.035348977893591">
        <ele>10.23</ele>
        <time>2025-05-08T09:07:02Z</time>
      </trkpt>
      <trkpt lat="36.20786402374506" lon="-6.03551703505218">
        <ele>10.23</ele>
        <time>2025-05-08T09:07:04Z</time>
      </trkpt>
      <trkpt lat="36.207848014310002" lon="-6.035528015345335">
        <ele>10.23</ele>
        <time>2025-05-08T09:07:05Z</time>
      </trkpt>
      <trkpt lat="36.207727985456586" lon="-6.035400023683906">
        <ele>10.23</ele>
        <time>2025-05-08T09:07:06Z</time>
      </trkpt>
      <trkpt lat="36.207575015723705" lon="-6.035400023683906">
        <ele>10.23</ele>
        <time>2025-05-08T09:07:08Z</time>
      </trkpt>
      <trkpt lat="36.207462027668953" lon="-6.035400023683906">
        <ele>9.75</ele>
        <time>2025-05-08T09:07:09Z</time>
      </trkpt>
      <trkpt lat="36.207401007413864" lon="-6.035374961793423">
        <ele>9.75</ele>
        <time>2025-05-08T09:07:10Z</time>
      </trkpt>
      <trkpt lat="36.20730796828866" lon="-6.035330034792423">
        <ele>9.75</ele>
        <time>2025-05-08T09:07:11Z</time>
      </trkpt>
      <trkpt lat="36.207204032689333" lon="-6.035271026194096">
        <ele>10.23</ele>
        <time>2025-05-08T09:07:12Z</time>
      </trkpt>
      <trkpt lat="36.207102024927735" lon="-6.035209000110626">
        <ele>10.23</ele>
        <time>2025-05-08T09:07:13Z</time>
      </trkpt>
      <trkpt lat="36.20578296482563" lon="-6.034417999908328">
        <ele>11.67</ele>
        <time>2025-05-08T09:07:24Z</time>
      </trkpt>
      <trkpt lat="36.205070000141859" lon="-6.033938974142075">
        <ele>12.15</ele>
        <time>2025-05-08T09:07:31Z</time>
      </trkpt>
      <trkpt lat="36.204950977116823" lon="-6.033939979970455">
        <ele>12.630000000000001</ele>
        <time>2025-05-08T09:07:32Z</time>
      </trkpt>
      <trkpt lat="36.204890040680766" lon="-6.033909972757101">
        <ele>12.15</ele>
        <time>2025-05-08T09:07:33Z</time>
      </trkpt>
      <trkpt lat="36.20479398407042" lon="-6.033939979970455">
        <ele>12.15</ele>
        <time>2025-05-08T09:07:34Z</time>
      </trkpt>
      <trkpt lat="36.204705974087119" lon="-6.03399203158915">
        <ele>12.15</ele>
        <time>2025-05-08T09:07:35Z</time>
      </trkpt>
      <trkpt lat="36.204613018780947" lon="-6.034047016873956">
        <ele>12.15</ele>
        <time>2025-05-08T09:07:36Z</time>
      </trkpt>
      <trkpt lat="36.20451201684773" lon="-6.034107031300664">
        <ele>12.15</ele>
        <time>2025-05-08T09:07:37Z</time>
      </trkpt>
      <trkpt lat="36.203185999765992" lon="-6.034951005131006">
        <ele>8.789999999999999</ele>
        <time>2025-05-08T09:07:49Z</time>
      </trkpt>
      <trkpt lat="36.202436992898583" lon="-6.035290975123644">
        <ele>8.310000000000001</ele>
        <time>2025-05-08T09:07:57Z</time>
      </trkpt>
      <trkpt lat="36.202411008998752" lon="-6.035298015922308">
        <ele>8.310000000000001</ele>
        <time>2025-05-08T09:08:05Z</time>
      </trkpt>
      <trkpt lat="36.202187966555357" lon="-6.035369010642171">
        <ele>7.83</ele>
        <time>2025-05-08T09:08:19Z</time>
      </trkpt>
      <trkpt lat="36.201814971864223" lon="-6.035477975383401">
        <ele>7.35</ele>
        <time>2025-05-08T09:08:24Z</time>
      </trkpt>
      <trkpt lat="36.201507020741701" lon="-6.035506976768374">
        <ele>7.35</ele>
        <time>2025-05-08T09:08:31Z</time>
      </trkpt>
      <trkpt lat="36.201432002708316" lon="-6.035614013671875">
        <ele>7.83</ele>
        <time>2025-05-08T09:08:34Z</time>
      </trkpt>
      <trkpt lat="36.201392021030188" lon="-6.035614013671875">
        <ele>7.83</ele>
        <time>2025-05-08T09:08:35Z</time>
      </trkpt>
      <trkpt lat="36.201346004381776" lon="-6.035614013671875">
        <ele>7.83</ele>
        <time>2025-05-08T09:08:36Z</time>
      </trkpt>
      <trkpt lat="36.201303005218506" lon="-6.035463977605104">
        <ele>7.83</ele>
        <time>2025-05-08T09:08:37Z</time>
      </trkpt>
      <trkpt lat="36.201264029368758" lon="-6.035438999533653">
        <ele>7.83</ele>
        <time>2025-05-08T09:08:38Z</time>
      </trkpt>
      <trkpt lat="36.201207032427192" lon="-6.035403041169047">
        <ele>8.310000000000001</ele>
        <time>2025-05-08T09:08:39Z</time>
      </trkpt>
      <trkpt lat="36.201150035485625" lon="-6.035365993157029">
        <ele>8.310000000000001</ele>
        <time>2025-05-08T09:08:40Z</time>
      </trkpt>
      <trkpt lat="36.201085997745395" lon="-6.035326011478901">
        <ele>8.310000000000001</ele>
        <time>2025-05-08T09:08:41Z</time>
      </trkpt>
      <trkpt lat="36.200580988079309" lon="-6.034986963495612">
        <ele>10.23</ele>
        <time>2025-05-08T09:08:48Z</time>
      </trkpt>
      <trkpt lat="36.200499013066292" lon="-6.034925021231175">
        <ele>10.23</ele>
        <time>2025-05-08T09:08:49Z</time>
      </trkpt>
      <trkpt lat="36.199429985135794" lon="-6.034169979393482">
        <ele>12.15</ele>
        <time>2025-05-08T09:09:01Z</time>
      </trkpt>
      <trkpt lat="36.199354967102408" lon="-6.034080041572452">
        <ele>12.15</ele>
        <time>2025-05-08T09:09:02Z</time>
      </trkpt>
      <trkpt lat="36.199283972382545" lon="-6.033982979133725">
        <ele>12.15</ele>
        <time>2025-05-08T09:09:03Z</time>
      </trkpt>
      <trkpt lat="36.199213983491063" lon="-6.033881977200508">
        <ele>12.15</ele>
        <time>2025-05-08T09:09:04Z</time>
      </trkpt>
      <trkpt lat="36.199152963235974" lon="-6.033764965832233">
        <ele>12.15</ele>
        <time>2025-05-08T09:09:05Z</time>
      </trkpt>
      <trkpt lat="36.199093032628298" lon="-6.033648038282991">
        <ele>12.15</ele>
        <time>2025-05-08T09:09:06Z</time>
      </trkpt>
      <trkpt lat="36.198362968862057" lon="-6.032180031761527">
        <ele>11.19</ele>
        <time>2025-05-08T09:09:18Z</time>
      </trkpt>
      <trkpt lat="36.197608010843396" lon="-6.030723005533218">
        <ele>10.710000000000001</ele>
        <time>2025-05-08T09:09:30Z</time>
      </trkpt>
      <trkpt lat="36.197513965889812" lon="-6.030636001378298">
        <ele>10.710000000000001</ele>
        <time>2025-05-08T09:09:31Z</time>
      </trkpt>
      <trkpt lat="36.197421010583639" lon="-6.030550003051758">
        <ele>10.710000000000001</ele>
        <time>2025-05-08T09:09:32Z</time>
      </trkpt>
      <trkpt lat="36.197310034185648" lon="-6.030528964474797">
        <ele>11.19</ele>
        <time>2025-05-08T09:09:33Z</time>
      </trkpt>
      <trkpt lat="36.197197968140244" lon="-6.030528964474797">
        <ele>11.19</ele>
        <time>2025-05-08T09:09:34Z</time>
      </trkpt>
      <trkpt lat="36.197076011449099" lon="-6.030528964474797">
        <ele>10.710000000000001</ele>
        <time>2025-05-08T09:09:35Z</time>
      </trkpt>
      <trkpt lat="36.19697199203074" lon="-6.030569029971957">
        <ele>10.710000000000001</ele>
        <time>2025-05-08T09:09:36Z</time>
      </trkpt>
      <trkpt lat="36.196857998147607" lon="-6.030612029135227">
        <ele>10.710000000000001</ele>
        <time>2025-05-08T09:09:37Z</time>
      </trkpt>
      <trkpt lat="36.195527035742998" lon="-6.030977983027697">
        <ele>8.789999999999999</ele>
        <time>2025-05-08T09:09:48Z</time>
      </trkpt>
      <trkpt lat="36.19538102298975" lon="-6.031001033261418">
        <ele>8.310000000000001</ele>
        <time>2025-05-08T09:09:49Z</time>
      </trkpt>
      <trkpt lat="36.195253031328321" lon="-6.031016958877444">
        <ele>7.83</ele>
        <time>2025-05-08T09:09:50Z</time>
      </trkpt>
      <trkpt lat="36.193364001810551" lon="-6.031251987442374">
        <ele>6.87</ele>
        <time>2025-05-08T09:10:04Z</time>
      </trkpt>
      <trkpt lat="36.19310500100255" lon="-6.031245030462742">
        <ele>6.87</ele>
        <time>2025-05-08T09:10:06Z</time>
      </trkpt>
      <trkpt lat="36.19297600351274" lon="-6.031227009370923">
        <ele>6.39</ele>
        <time>2025-05-08T09:10:07Z</time>
      </trkpt>
      <trkpt lat="36.192354988306761" lon="-6.030931966379285">
        <ele>5.91</ele>
        <time>2025-05-08T09:10:12Z</time>
      </trkpt>
      <trkpt lat="36.192243006080389" lon="-6.030842028558254">
        <ele>5.91</ele>
        <time>2025-05-08T09:10:13Z</time>
      </trkpt>
      <trkpt lat="36.192150972783566" lon="-6.030727028846741">
        <ele>6.39</ele>
        <time>2025-05-08T09:10:14Z</time>
      </trkpt>
      <trkpt lat="36.192070003598928" lon="-6.030594008043408">
        <ele>6.39</ele>
        <time>2025-05-08T09:10:15Z</time>
      </trkpt>
      <trkpt lat="36.192004038020968" lon="-6.030445983633399">
        <ele>6.39</ele>
        <time>2025-05-08T09:10:16Z</time>
      </trkpt>
      <trkpt lat="36.191935976967216" lon="-6.030293013900518">
        <ele>5.91</ele>
        <time>2025-05-08T09:10:17Z</time>
      </trkpt>
      <trkpt lat="36.191164003685117" lon="-6.02838596329093">
        <ele>3.5</ele>
        <time>2025-05-08T09:10:30Z</time>
      </trkpt>
      <trkpt lat="36.190464030951262" lon="-6.02664303034544">
        <ele>2.54</ele>
        <time>2025-05-08T09:10:43Z</time>
      </trkpt>
      <trkpt lat="36.19039898738265" lon="-6.026523001492024">
        <ele>3.02</ele>
        <time>2025-05-08T09:10:44Z</time>
      </trkpt>
      <trkpt lat="36.18969096802175" lon="-6.025468977168202">
        <ele>3.02</ele>
        <time>2025-05-08T09:10:54Z</time>
      </trkpt>
      <trkpt lat="36.189414029940963" lon="-6.025193966925144">
        <ele>2.54</ele>
        <time>2025-05-08T09:11:01Z</time>
      </trkpt>
      <trkpt lat="36.189390979707241" lon="-6.025220034644008">
        <ele>2.06</ele>
        <time>2025-05-08T09:11:02Z</time>
      </trkpt>
      <trkpt lat="36.189363989979029" lon="-6.025250963866711">
        <ele>2.06</ele>
        <time>2025-05-08T09:11:03Z</time>
      </trkpt>
      <trkpt lat="36.188911031931639" lon="-6.025819005444646">
        <ele>0.62</ele>
        <time>2025-05-08T09:11:14Z</time>
      </trkpt>
      <trkpt lat="36.188534013926983" lon="-6.02629903703928">
        <ele>-0.82</ele>
        <time>2025-05-08T09:11:23Z</time>
      </trkpt>
      <trkpt lat="36.188482968136668" lon="-6.026345975697041">
        <ele>-1.3</ele>
        <time>2025-05-08T09:11:24Z</time>
      </trkpt>
      <trkpt lat="36.188439968973398" lon="-6.026376988738775">
        <ele>-1.3</ele>
        <time>2025-05-08T09:11:25Z</time>
      </trkpt>
      <trkpt lat="36.188207035884261" lon="-6.026544962078333">
        <ele>-2.75</ele>
        <time>2025-05-08T09:11:35Z</time>
      </trkpt>
      <trkpt lat="36.188207035884261" lon="-6.026544962078333">
        <ele>-2.75</ele>
        <time>2025-05-08T09:12:05Z</time>
      </trkpt>
      <trkpt lat="36.188207035884261" lon="-6.026544962078333">
        <ele>-1.3</ele>
        <time>2025-05-08T09:12:42Z</time>
      </trkpt>
      <trkpt lat="36.188228996470571" lon="-6.026529036462307">
        <ele>-1.79</ele>
        <time>2025-05-08T09:12:56Z</time>
      </trkpt>
      <trkpt lat="36.188292028382421" lon="-6.026484025642276">
        <ele>-1.3</ele>
        <time>2025-05-08T09:12:59Z</time>
      </trkpt>
      <trkpt lat="36.188332010060549" lon="-6.026455024257302">
        <ele>-1.3</ele>
        <time>2025-05-08T09:13:00Z</time>
      </trkpt>
      <trkpt lat="36.188370985910296" lon="-6.026427028700709">
        <ele>-1.3</ele>
        <time>2025-05-08T09:13:01Z</time>
      </trkpt>
      <trkpt lat="36.188409039750695" lon="-6.026399033144116">
        <ele>-0.82</ele>
        <time>2025-05-08T09:13:02Z</time>
      </trkpt>
      <trkpt lat="36.188741968944669" lon="-6.026034001260996">
        <ele>-0.82</ele>
        <time>2025-05-08T09:13:13Z</time>
      </trkpt>
      <trkpt lat="36.188912959769368" lon="-6.025817999616265">
        <ele>-1.79</ele>
        <time>2025-05-08T09:13:21Z</time>
      </trkpt>
      <trkpt lat="36.189191993325949" lon="-6.025463026016951">
        <ele>-1.79</ele>
        <time>2025-05-08T09:13:32Z</time>
      </trkpt>
      <trkpt lat="36.189309004694223" lon="-6.025313995778561">
        <ele>-1.79</ele>
        <time>2025-05-08T09:13:41Z</time>
      </trkpt>
      <trkpt lat="36.189309004694223" lon="-6.025313995778561">
        <ele>-0.82</ele>
        <time>2025-05-08T09:13:49Z</time>
      </trkpt>
      <trkpt lat="36.189270028844476" lon="-6.025363029912114">
        <ele>-0.82</ele>
        <time>2025-05-08T09:14:05Z</time>
      </trkpt>
      <trkpt lat="36.189124016091228" lon="-6.025549024343491">
        <ele>-0.34</ele>
        <time>2025-05-08T09:14:17Z</time>
      </trkpt>
      <trkpt lat="36.188899967819452" lon="-6.025834009051323">
        <ele>-0.34</ele>
        <time>2025-05-08T09:14:28Z</time>
      </trkpt>
      <trkpt lat="36.188886975869536" lon="-6.025850018486381">
        <ele>-1.3</ele>
        <time>2025-05-08T09:14:41Z</time>
      </trkpt>
      <trkpt lat="36.188826039433479" lon="-6.026025032624602">
        <ele>21.289999999999999</ele>
        <time>2025-05-08T09:15:37Z</time>
      </trkpt>
      <trkpt lat="36.188781028613448" lon="-6.025987984612584">
        <ele>13.6</ele>
        <time>2025-05-08T09:15:47Z</time>
      </trkpt>
      <trkpt lat="36.188759990036488" lon="-6.026011034846306">
        <ele>19.84</ele>
        <time>2025-05-08T09:15:58Z</time>
      </trkpt>
      <trkpt lat="36.188738029450178" lon="-6.026040036231279">
        <ele>21.289999999999999</ele>
        <time>2025-05-08T09:15:59Z</time>
      </trkpt>
      <trkpt lat="36.188467964529991" lon="-6.026356033980846">
        <ele>27.530000000000001</ele>
        <time>2025-05-08T09:16:05Z</time>
      </trkpt>
      <trkpt lat="36.188127994537354" lon="-6.026601959019899">
        <ele>34.259999999999998</ele>
        <time>2025-05-08T09:16:14Z</time>
      </trkpt>
      <trkpt lat="36.188127994537354" lon="-6.026601959019899">
        <ele>35.229999999999997</ele>
        <time>2025-05-08T09:16:17Z</time>
      </trkpt>
      <trkpt lat="36.188127994537354" lon="-6.026601959019899">
        <ele>35.710000000000001</ele>
        <time>2025-05-08T09:16:18Z</time>
      </trkpt>
      <trkpt lat="36.188202006742358" lon="-6.026913011446595">
        <ele>36.189999999999998</ele>
        <time>2025-05-08T09:16:25Z</time>
      </trkpt>
      <trkpt lat="36.188412979245186" lon="-6.026887027546763">
        <ele>23.210000000000001</ele>
        <time>2025-05-08T09:16:39Z</time>
      </trkpt>
      <trkpt lat="36.188396969810128" lon="-6.026905970647931">
        <ele>-4.19</ele>
        <time>2025-05-08T10:24:17Z</time>
      </trkpt>
      <trkpt lat="36.188391018658876" lon="-6.026903036981821">
        <ele>-0.34</ele>
        <time>2025-05-08T10:24:46Z</time>
      </trkpt>
      <trkpt lat="36.188371991738677" lon="-6.026932960376144">
        <ele>3.02</ele>
        <time>2025-05-08T10:25:33Z</time>
      </trkpt>
      <trkpt lat="36.188366040587425" lon="-6.026922985911369">
        <ele>3.98</ele>
        <time>2025-05-08T10:26:10Z</time>
      </trkpt>
      <trkpt lat="36.188349025323987" lon="-6.026920974254608">
        <ele>4.46</ele>
        <time>2025-05-08T10:26:27Z</time>
      </trkpt>
      <trkpt lat="36.188285993412137" lon="-6.026878980919719">
        <ele>3.02</ele>
        <time>2025-05-08T10:26:38Z</time>
      </trkpt>
      <trkpt lat="36.18812195956707" lon="-6.026675971224904">
        <ele>2.54</ele>
        <time>2025-05-08T10:26:48Z</time>
      </trkpt>
      <trkpt lat="36.188294962048531" lon="-6.026481008157134">
        <ele>3.5</ele>
        <time>2025-05-08T10:26:58Z</time>
      </trkpt>
      <trkpt lat="36.188612971454859" lon="-6.026198035106063">
        <ele>4.46</ele>
        <time>2025-05-08T10:27:08Z</time>
      </trkpt>
      <trkpt lat="36.188641972839832" lon="-6.026160987094045">
        <ele>4.46</ele>
        <time>2025-05-08T10:27:09Z</time>
      </trkpt>
      <trkpt lat="36.188668962568045" lon="-6.026126034557819">
        <ele>4.46</ele>
        <time>2025-05-08T10:27:10Z</time>
      </trkpt>
      <trkpt lat="36.188788991421461" lon="-6.025974992662668">
        <ele>4.94</ele>
        <time>2025-05-08T10:27:15Z</time>
      </trkpt>
      <trkpt lat="36.189170032739639" lon="-6.025491021573544">
        <ele>7.83</ele>
        <time>2025-05-08T10:27:25Z</time>
      </trkpt>
      <trkpt lat="36.189405983313918" lon="-6.02520301938057">
        <ele>6.39</ele>
        <time>2025-05-08T10:27:35Z</time>
      </trkpt>
      <trkpt lat="36.189473960548639" lon="-6.025162031874061">
        <ele>5.91</ele>
        <time>2025-05-08T10:27:50Z</time>
      </trkpt>
      <trkpt lat="36.189498016610742" lon="-6.025194972753525">
        <ele>5.42</ele>
        <time>2025-05-08T10:27:51Z</time>
      </trkpt>
      <trkpt lat="36.189533974975348" lon="-6.025241995230317">
        <ele>5.42</ele>
        <time>2025-05-08T10:27:52Z</time>
      </trkpt>
      <trkpt lat="36.189574962481856" lon="-6.025296980515122">
        <ele>5.42</ele>
        <time>2025-05-08T10:27:53Z</time>
      </trkpt>
      <trkpt lat="36.189617961645126" lon="-6.025361018255353">
        <ele>5.42</ele>
        <time>2025-05-08T10:27:54Z</time>
      </trkpt>
      <trkpt lat="36.190245011821389" lon="-6.026285961270332">
        <ele>6.39</ele>
        <time>2025-05-08T10:28:05Z</time>
      </trkpt>
      <trkpt lat="36.190555980429053" lon="-6.02685802616179">
        <ele>6.87</ele>
        <time>2025-05-08T10:28:10Z</time>
      </trkpt>
      <trkpt lat="36.191230975091457" lon="-6.028554020449519">
        <ele>8.310000000000001</ele>
        <time>2025-05-08T10:28:21Z</time>
      </trkpt>
      <trkpt lat="36.191795999184251" lon="-6.029952960088849">
        <ele>8.310000000000001</ele>
        <time>2025-05-08T10:28:30Z</time>
      </trkpt>
      <trkpt lat="36.19215901941061" lon="-6.030739014968276">
        <ele>7.35</ele>
        <time>2025-05-08T10:28:36Z</time>
      </trkpt>
      <trkpt lat="36.192226996645331" lon="-6.030829036608338">
        <ele>7.35</ele>
        <time>2025-05-08T10:28:37Z</time>
      </trkpt>
      <trkpt lat="36.192345013841987" lon="-6.030922997742891">
        <ele>7.35</ele>
        <time>2025-05-08T10:28:38Z</time>
      </trkpt>
      <trkpt lat="36.192440986633301" lon="-6.031001033261418">
        <ele>7.35</ele>
        <time>2025-05-08T10:28:39Z</time>
      </trkpt>
      <trkpt lat="36.192554980516434" lon="-6.03104897774756">
        <ele>7.35</ele>
        <time>2025-05-08T10:28:40Z</time>
      </trkpt>
      <trkpt lat="36.192671991884708" lon="-6.031098011881113">
        <ele>7.83</ele>
        <time>2025-05-08T10:28:41Z</time>
      </trkpt>
      <trkpt lat="36.193149005994201" lon="-6.031247964128852">
        <ele>7.83</ele>
        <time>2025-05-08T10:28:45Z</time>
      </trkpt>
      <trkpt lat="36.193271968513727" lon="-6.031258022412658">
        <ele>7.83</ele>
        <time>2025-05-08T10:28:46Z</time>
      </trkpt>
      <trkpt lat="36.193396020680666" lon="-6.031248969957233">
        <ele>8.310000000000001</ele>
        <time>2025-05-08T10:28:47Z</time>
      </trkpt>
      <trkpt lat="36.194985983893275" lon="-6.031051995232701">
        <ele>6.87</ele>
        <time>2025-05-08T10:29:00Z</time>
      </trkpt>
      <trkpt lat="36.196563038975" lon="-6.03072602301836">
        <ele>8.310000000000001</ele>
        <time>2025-05-08T10:29:13Z</time>
      </trkpt>
      <trkpt lat="36.196675021201372" lon="-6.03068302385509">
        <ele>8.310000000000001</ele>
        <time>2025-05-08T10:29:14Z</time>
      </trkpt>
      <trkpt lat="36.196790020912886" lon="-6.03063901886344">
        <ele>8.789999999999999</ele>
        <time>2025-05-08T10:29:15Z</time>
      </trkpt>
      <trkpt lat="36.197141977027059" lon="-6.030528964474797">
        <ele>8.789999999999999</ele>
        <time>2025-05-08T10:29:18Z</time>
      </trkpt>
      <trkpt lat="36.197264017537236" lon="-6.030528964474797">
        <ele>9.27</ele>
        <time>2025-05-08T10:29:19Z</time>
      </trkpt>
      <trkpt lat="36.197384968400002" lon="-6.030528964474797">
        <ele>9.27</ele>
        <time>2025-05-08T10:29:20Z</time>
      </trkpt>
      <trkpt lat="36.197481025010347" lon="-6.030604988336563">
        <ele>9.27</ele>
        <time>2025-05-08T10:29:21Z</time>
      </trkpt>
      <trkpt lat="36.197581021115184" lon="-6.030697021633387">
        <ele>9.27</ele>
        <time>2025-05-08T10:29:22Z</time>
      </trkpt>
      <trkpt lat="36.197676993906498" lon="-6.030786037445068">
        <ele>9.27</ele>
        <time>2025-05-08T10:29:23Z</time>
      </trkpt>
      <trkpt lat="36.197743965312839" lon="-6.030914029106498">
        <ele>9.27</ele>
        <time>2025-05-08T10:29:24Z</time>
      </trkpt>
      <trkpt lat="36.197811020538211" lon="-6.031044032424688">
        <ele>9.27</ele>
        <time>2025-05-08T10:29:25Z</time>
      </trkpt>
      <trkpt lat="36.198385013267398" lon="-6.032224036753178">
        <ele>9.75</ele>
        <time>2025-05-08T10:29:34Z</time>
      </trkpt>
      <trkpt lat="36.19862599298358" lon="-6.032742038369179">
        <ele>11.19</ele>
        <time>2025-05-08T10:29:38Z</time>
      </trkpt>
      <trkpt lat="36.198688019067049" lon="-6.032868018373847">
        <ele>11.67</ele>
        <time>2025-05-08T10:29:39Z</time>
      </trkpt>
      <trkpt lat="36.19895095936954" lon="-6.033375961706042">
        <ele>11.19</ele>
        <time>2025-05-08T10:29:43Z</time>
      </trkpt>
      <trkpt lat="36.199017008766532" lon="-6.033502025529742">
        <ele>11.19</ele>
        <time>2025-05-08T10:29:44Z</time>
      </trkpt>
      <trkpt lat="36.199151035398245" lon="-6.033760020509362">
        <ele>11.19</ele>
        <time>2025-05-08T10:29:46Z</time>
      </trkpt>
      <trkpt lat="36.199297970160842" lon="-6.034001000225544">
        <ele>11.67</ele>
        <time>2025-05-08T10:29:48Z</time>
      </trkpt>
      <trkpt lat="36.199394026771188" lon="-6.034134021028876">
        <ele>11.67</ele>
        <time>2025-05-08T10:29:49Z</time>
      </trkpt>
      <trkpt lat="36.199477007612586" lon="-6.034203004091978">
        <ele>11.67</ele>
        <time>2025-05-08T10:29:50Z</time>
      </trkpt>
      <trkpt lat="36.199578009545803" lon="-6.03429595939815">
        <ele>11.67</ele>
        <time>2025-05-08T10:29:51Z</time>
      </trkpt>
      <trkpt lat="36.199682028964162" lon="-6.034381035715342">
        <ele>11.67</ele>
        <time>2025-05-08T10:29:52Z</time>
      </trkpt>
      <trkpt lat="36.200141021981835" lon="-6.034688986837864">
        <ele>11.67</ele>
        <time>2025-05-08T10:29:57Z</time>
      </trkpt>
      <trkpt lat="36.200226014479995" lon="-6.03474497795105">
        <ele>11.67</ele>
        <time>2025-05-08T10:29:58Z</time>
      </trkpt>
      <trkpt lat="36.200466994196177" lon="-6.034900965169072">
        <ele>11.67</ele>
        <time>2025-05-08T10:30:01Z</time>
      </trkpt>
      <trkpt lat="36.200530026108027" lon="-6.034947987645865">
        <ele>12.15</ele>
        <time>2025-05-08T10:30:02Z</time>
      </trkpt>
      <trkpt lat="36.200644019991159" lon="-6.035031974315643">
        <ele>12.15</ele>
        <time>2025-05-08T10:30:04Z</time>
      </trkpt>
      <trkpt lat="36.200763965025544" lon="-6.035124007612467">
        <ele>12.630000000000001</ele>
        <time>2025-05-08T10:30:06Z</time>
      </trkpt>
      <trkpt lat="36.200820961967111" lon="-6.035160971805453">
        <ele>13.119999999999999</ele>
        <time>2025-05-08T10:30:07Z</time>
      </trkpt>
      <trkpt lat="36.200871001929045" lon="-6.035191984847188">
        <ele>13.6</ele>
        <time>2025-05-08T10:30:08Z</time>
      </trkpt>
      <trkpt lat="36.200921041890979" lon="-6.035224003717303">
        <ele>13.6</ele>
        <time>2025-05-08T10:30:09Z</time>
      </trkpt>
      <trkpt lat="36.200980972498655" lon="-6.03526197373867">
        <ele>14.08</ele>
        <time>2025-05-08T10:30:10Z</time>
      </trkpt>
      <trkpt lat="36.201216001063585" lon="-6.035407986491919">
        <ele>15.039999999999999</ele>
        <time>2025-05-08T10:30:14Z</time>
      </trkpt>
      <trkpt lat="36.201266041025519" lon="-6.035440005362034">
        <ele>15.039999999999999</ele>
        <time>2025-05-08T10:30:15Z</time>
      </trkpt>
      <trkpt lat="36.201346004381776" lon="-6.035400023683906">
        <ele>15.039999999999999</ele>
        <time>2025-05-08T10:30:16Z</time>
      </trkpt>
      <trkpt lat="36.201389003545046" lon="-6.035400023683906">
        <ele>15.52</ele>
        <time>2025-05-08T10:30:17Z</time>
      </trkpt>
      <trkpt lat="36.201475001871586" lon="-6.035506976768374">
        <ele>15.52</ele>
        <time>2025-05-08T10:30:18Z</time>
      </trkpt>
      <trkpt lat="36.201524036005139" lon="-6.035506976768374">
        <ele>15.52</ele>
        <time>2025-05-08T10:30:19Z</time>
      </trkpt>
      <trkpt lat="36.201593019068241" lon="-6.035506976768374">
        <ele>16</ele>
        <time>2025-05-08T10:30:20Z</time>
      </trkpt>
      <trkpt lat="36.201668037101626" lon="-6.035506976768374">
        <ele>16</ele>
        <time>2025-05-08T10:30:21Z</time>
      </trkpt>
      <trkpt lat="36.201755041256547" lon="-6.035499013960362">
        <ele>16</ele>
        <time>2025-05-08T10:30:22Z</time>
      </trkpt>
      <trkpt lat="36.202645031735301" lon="-6.035227021202445">
        <ele>18.399999999999999</ele>
        <time>2025-05-08T10:30:31Z</time>
      </trkpt>
      <trkpt lat="36.203749012202024" lon="-6.034608017653227">
        <ele>17.920000000000002</ele>
        <time>2025-05-08T10:30:42Z</time>
      </trkpt>
      <trkpt lat="36.20479297824204" lon="-6.033940985798836">
        <ele>17.440000000000001</ele>
        <time>2025-05-08T10:30:54Z</time>
      </trkpt>
      <trkpt lat="36.204913007095456" lon="-6.03373303078115">
        <ele>16.960000000000001</ele>
        <time>2025-05-08T10:30:57Z</time>
      </trkpt>
      <trkpt lat="36.204995987936854" lon="-6.033737976104021">
        <ele>16</ele>
        <time>2025-05-08T10:30:58Z</time>
      </trkpt>
      <trkpt lat="36.205036975443363" lon="-6.033768989145756">
        <ele>15.52</ele>
        <time>2025-05-08T10:30:59Z</time>
      </trkpt>
      <trkpt lat="36.205045022070408" lon="-6.033907039090991">
        <ele>16</ele>
        <time>2025-05-08T10:31:00Z</time>
      </trkpt>
      <trkpt lat="36.205097995698452" lon="-6.033974010497332">
        <ele>16</ele>
        <time>2025-05-08T10:31:01Z</time>
      </trkpt>
      <trkpt lat="36.205174019560218" lon="-6.034047016873956">
        <ele>15.52</ele>
        <time>2025-05-08T10:31:02Z</time>
      </trkpt>
      <trkpt lat="36.205257000401616" lon="-6.034114994108677">
        <ele>15.52</ele>
        <time>2025-05-08T10:31:03Z</time>
      </trkpt>
      <trkpt lat="36.205348027870059" lon="-6.034166961908341">
        <ele>15.52</ele>
        <time>2025-05-08T10:31:04Z</time>
      </trkpt>
      <trkpt lat="36.205444000661373" lon="-6.034223036840558">
        <ele>15.52</ele>
        <time>2025-05-08T10:31:05Z</time>
      </trkpt>
      <trkpt lat="36.206673961132765" lon="-6.034953016787767">
        <ele>14.56</ele>
        <time>2025-05-08T10:31:17Z</time>
      </trkpt>
      <trkpt lat="36.207446018233895" lon="-6.035392982885242">
        <ele>14.08</ele>
        <time>2025-05-08T10:31:26Z</time>
      </trkpt>
      <trkpt lat="36.207516007125378" lon="-6.035400023683906">
        <ele>14.08</ele>
        <time>2025-05-08T10:31:27Z</time>
      </trkpt>
      <trkpt lat="36.207583984360099" lon="-6.035400023683906">
        <ele>14.08</ele>
        <time>2025-05-08T10:31:28Z</time>
      </trkpt>
      <trkpt lat="36.207646010443568" lon="-6.035400023683906">
        <ele>14.08</ele>
        <time>2025-05-08T10:31:29Z</time>
      </trkpt>
      <trkpt lat="36.207703007385135" lon="-6.035400023683906">
        <ele>14.08</ele>
        <time>2025-05-08T10:31:30Z</time>
      </trkpt>
      <trkpt lat="36.207740977406502" lon="-6.035400023683906">
        <ele>14.08</ele>
        <time>2025-05-08T10:31:31Z</time>
      </trkpt>
      <trkpt lat="36.207848014310002" lon="-6.035291980952025">
        <ele>14.08</ele>
        <time>2025-05-08T10:31:33Z</time>
      </trkpt>
      <trkpt lat="36.207953039556742" lon="-6.0353450383991">
        <ele>14.08</ele>
        <time>2025-05-08T10:31:34Z</time>
      </trkpt>
      <trkpt lat="36.208024034276605" lon="-6.035298015922308">
        <ele>14.08</ele>
        <time>2025-05-08T10:31:35Z</time>
      </trkpt>
      <trkpt lat="36.208106009289622" lon="-6.035245964303613">
        <ele>14.08</ele>
        <time>2025-05-08T10:31:36Z</time>
      </trkpt>
      <trkpt lat="36.208194019272923" lon="-6.035189973190427">
        <ele>14.08</ele>
        <time>2025-05-08T10:31:37Z</time>
      </trkpt>
      <trkpt lat="36.208280017599463" lon="-6.03511000983417">
        <ele>14.08</ele>
        <time>2025-05-08T10:31:38Z</time>
      </trkpt>
      <trkpt lat="36.208361992612481" lon="-6.035013031214476">
        <ele>14.56</ele>
        <time>2025-05-08T10:31:39Z</time>
      </trkpt>
      <trkpt lat="36.208446985110641" lon="-6.034912029281259">
        <ele>14.56</ele>
        <time>2025-05-08T10:31:40Z</time>
      </trkpt>
      <trkpt lat="36.208523008972406" lon="-6.034785965457559">
        <ele>14.56</ele>
        <time>2025-05-08T10:31:41Z</time>
      </trkpt>
      <trkpt lat="36.209191968664527" lon="-6.033699000254273">
        <ele>15.039999999999999</ele>
        <time>2025-05-08T10:31:49Z</time>
      </trkpt>
      <trkpt lat="36.209308980032802" lon="-6.033607972785831">
        <ele>14.56</ele>
        <time>2025-05-08T10:31:50Z</time>
      </trkpt>
      <trkpt lat="36.210187990218401" lon="-6.032996010035276">
        <ele>14.56</ele>
        <time>2025-05-08T10:31:58Z</time>
      </trkpt>
      <trkpt lat="36.210435004904866" lon="-6.032883021980524">
        <ele>15.039999999999999</ele>
        <time>2025-05-08T10:32:00Z</time>
      </trkpt>
      <trkpt lat="36.210564002394676" lon="-6.032859971746802">
        <ele>15.039999999999999</ele>
        <time>2025-05-08T10:32:01Z</time>
      </trkpt>
      <trkpt lat="36.210814034566283" lon="-6.032825019210577">
        <ele>15.52</ele>
        <time>2025-05-08T10:32:03Z</time>
      </trkpt>
      <trkpt lat="36.211621966212988" lon="-6.032924009487033">
        <ele>16</ele>
        <time>2025-05-08T10:32:10Z</time>
      </trkpt>
      <trkpt lat="36.212551016360521" lon="-6.033752979710698">
        <ele>15.039999999999999</ele>
        <time>2025-05-08T10:32:19Z</time>
      </trkpt>
      <trkpt lat="36.213602023199201" lon="-6.034862995147705">
        <ele>14.08</ele>
        <time>2025-05-08T10:32:29Z</time>
      </trkpt>
      <trkpt lat="36.214880011975765" lon="-6.036022966727614">
        <ele>13.119999999999999</ele>
        <time>2025-05-08T10:32:40Z</time>
      </trkpt>
      <trkpt lat="36.215530028566718" lon="-6.036487994715571">
        <ele>13.6</ele>
        <time>2025-05-08T10:32:45Z</time>
      </trkpt>
      <trkpt lat="36.216830983757973" lon="-6.037547970190644">
        <ele>14.56</ele>
        <time>2025-05-08T10:32:55Z</time>
      </trkpt>
      <trkpt lat="36.218207040801644" lon="-6.038857977837324">
        <ele>14.56</ele>
        <time>2025-05-08T10:33:04Z</time>
      </trkpt>
      <trkpt lat="36.219801027327776" lon="-6.040248032659292">
        <ele>14.56</ele>
        <time>2025-05-08T10:33:14Z</time>
      </trkpt>
      <trkpt lat="36.220637038350105" lon="-6.040896959602833">
        <ele>14.56</ele>
        <time>2025-05-08T10:33:21Z</time>
      </trkpt>
      <trkpt lat="36.220719013363123" lon="-6.040942976251245">
        <ele>14.56</ele>
        <time>2025-05-08T10:33:22Z</time>
      </trkpt>
      <trkpt lat="36.220798976719379" lon="-6.04097499512136">
        <ele>14.56</ele>
        <time>2025-05-08T10:33:23Z</time>
      </trkpt>
      <trkpt lat="36.220872988924384" lon="-6.040999973192811">
        <ele>14.56</ele>
        <time>2025-05-08T10:33:24Z</time>
      </trkpt>
      <trkpt lat="36.221001986414194" lon="-6.040936019271612">
        <ele>14.56</ele>
        <time>2025-05-08T10:33:25Z</time>
      </trkpt>
      <trkpt lat="36.221129978075624" lon="-6.040999973192811">
        <ele>14.56</ele>
        <time>2025-05-08T10:33:26Z</time>
      </trkpt>
      <trkpt lat="36.222146032378078" lon="-6.040687998756766">
        <ele>15.039999999999999</ele>
        <time>2025-05-08T10:33:35Z</time>
      </trkpt>
      <trkpt lat="36.223686039447784" lon="-6.04035004042089">
        <ele>15.52</ele>
        <time>2025-05-08T10:33:45Z</time>
      </trkpt>
      <trkpt lat="36.226269006729126" lon="-6.039820974692702">
        <ele>16.48</ele>
        <time>2025-05-08T10:33:59Z</time>
      </trkpt>
      <trkpt lat="36.227289000526071" lon="-6.039582006633282">
        <ele>18.879999999999999</ele>
        <time>2025-05-08T10:34:04Z</time>
      </trkpt>
      <trkpt lat="36.227692002430558" lon="-6.039435993880034">
        <ele>20.32</ele>
        <time>2025-05-08T10:34:06Z</time>
      </trkpt>
      <trkpt lat="36.227692002430558" lon="-6.039435993880034">
        <ele>21.289999999999999</ele>
        <time>2025-05-08T10:34:07Z</time>
      </trkpt>
      <trkpt lat="36.228066002950072" lon="-6.039205994457007">
        <ele>21.77</ele>
        <time>2025-05-08T10:34:08Z</time>
      </trkpt>
      <trkpt lat="36.228230958804488" lon="-6.039049001410604">
        <ele>22.73</ele>
        <time>2025-05-08T10:34:09Z</time>
      </trkpt>
      <trkpt lat="36.228397004306316" lon="-6.038883961737156">
        <ele>23.690000000000001</ele>
        <time>2025-05-08T10:34:10Z</time>
      </trkpt>
      <trkpt lat="36.228558020666242" lon="-6.038704002276063">
        <ele>24.649999999999999</ele>
        <time>2025-05-08T10:34:11Z</time>
      </trkpt>
      <trkpt lat="36.2298449780792" lon="-6.036778008565307">
        <ele>29.460000000000001</ele>
        <time>2025-05-08T10:34:20Z</time>
      </trkpt>
      <trkpt lat="36.2314129807055" lon="-6.033383002504706">
        <ele>34.259999999999998</ele>
        <time>2025-05-08T10:34:34Z</time>
      </trkpt>
      <trkpt lat="36.232438003644347" lon="-6.031935028731823">
        <ele>36.189999999999998</ele>
        <time>2025-05-08T10:34:41Z</time>
      </trkpt>
      <trkpt lat="36.234888033941388" lon="-6.029117032885552">
        <ele>34.740000000000002</ele>
        <time>2025-05-08T10:34:55Z</time>
      </trkpt>
      <trkpt lat="36.235021976754069" lon="-6.02887999266386">
        <ele>34.740000000000002</ele>
        <time>2025-05-08T10:34:56Z</time>
      </trkpt>
      <trkpt lat="36.235157009214163" lon="-6.028643036261201">
        <ele>34.740000000000002</ele>
        <time>2025-05-08T10:34:57Z</time>
      </trkpt>
      <trkpt lat="36.235251976177096" lon="-6.028376994654536">
        <ele>34.740000000000002</ele>
        <time>2025-05-08T10:34:58Z</time>
      </trkpt>
      <trkpt lat="36.235322970896959" lon="-6.028099972754717">
        <ele>34.740000000000002</ele>
        <time>2025-05-08T10:34:59Z</time>
      </trkpt>
      <trkpt lat="36.235394971445203" lon="-6.027818005532026">
        <ele>34.740000000000002</ele>
        <time>2025-05-08T10:35:00Z</time>
      </trkpt>
      <trkpt lat="36.23545297421515" lon="-6.027527991682291">
        <ele>34.259999999999998</ele>
        <time>2025-05-08T10:35:01Z</time>
      </trkpt>
      <trkpt lat="36.235494967550039" lon="-6.027231020852923">
        <ele>34.259999999999998</ele>
        <time>2025-05-08T10:35:02Z</time>
      </trkpt>
      <trkpt lat="36.235930994153023" lon="-6.023005032911897">
        <ele>34.740000000000002</ele>
        <time>2025-05-08T10:35:16Z</time>
      </trkpt>
      <trkpt lat="36.23633399605751" lon="-6.018926985561848">
        <ele>41.469999999999999</ele>
        <time>2025-05-08T10:35:30Z</time>
      </trkpt>
      <trkpt lat="36.236574975773692" lon="-6.016562031581998">
        <ele>50.609999999999999</ele>
        <time>2025-05-08T10:35:39Z</time>
      </trkpt>
      <trkpt lat="36.236641025170684" lon="-6.014371002092958">
        <ele>61.659999999999997</ele>
        <time>2025-05-08T10:35:50Z</time>
      </trkpt>
      <trkpt lat="36.236514961346984" lon="-6.012004036456347">
        <ele>65.989999999999995</ele>
        <time>2025-05-08T10:35:59Z</time>
      </trkpt>
      <trkpt lat="36.236343970522285" lon="-6.00900499150157">
        <ele>70.790000000000006</ele>
        <time>2025-05-08T10:36:10Z</time>
      </trkpt>
      <trkpt lat="36.236577993258834" lon="-6.006922004744411">
        <ele>65.989999999999995</ele>
        <time>2025-05-08T10:36:18Z</time>
      </trkpt>
      <trkpt lat="36.236889967694879" lon="-6.004560990259051">
        <ele>63.579999999999998</ele>
        <time>2025-05-08T10:36:27Z</time>
      </trkpt>
      <trkpt lat="36.23684898018837" lon="-6.002383958548307">
        <ele>65.989999999999995</ele>
        <time>2025-05-08T10:36:35Z</time>
      </trkpt>
      <trkpt lat="36.237014019861817" lon="-6.000571036711335">
        <ele>67.430000000000007</ele>
        <time>2025-05-08T10:36:42Z</time>
      </trkpt>
      <trkpt lat="36.237453985959291" lon="-5.998963974416256">
        <ele>66.950000000000003</ele>
        <time>2025-05-08T10:36:50Z</time>
      </trkpt>
      <trkpt lat="36.237538978457451" lon="-5.998852998018265">
        <ele>66.950000000000003</ele>
        <time>2025-05-08T10:36:51Z</time>
      </trkpt>
      <trkpt lat="36.237652972340584" lon="-5.998760964721441">
        <ele>66.950000000000003</ele>
        <time>2025-05-08T10:36:52Z</time>
      </trkpt>
      <trkpt lat="36.237766966223717" lon="-5.998668009415269">
        <ele>66.950000000000003</ele>
        <time>2025-05-08T10:36:53Z</time>
      </trkpt>
      <trkpt lat="36.237898981198668" lon="-5.998601960018277">
        <ele>66.950000000000003</ele>
        <time>2025-05-08T10:36:54Z</time>
      </trkpt>
      <trkpt lat="36.238048011437058" lon="-5.99856298416853">
        <ele>66.950000000000003</ele>
        <time>2025-05-08T10:36:55Z</time>
      </trkpt>
      <trkpt lat="36.238369038328528" lon="-5.998491989448667">
        <ele>67.430000000000007</ele>
        <time>2025-05-08T10:36:57Z</time>
      </trkpt>
      <trkpt lat="36.238540029153228" lon="-5.998491989448667">
        <ele>67.909999999999997</ele>
        <time>2025-05-08T10:36:58Z</time>
      </trkpt>
      <trkpt lat="36.239443011581898" lon="-5.998667003586888">
        <ele>70.790000000000006</ele>
        <time>2025-05-08T10:37:03Z</time>
      </trkpt>
      <trkpt lat="36.239623976871371" lon="-5.998736992478371">
        <ele>71.760000000000005</ele>
        <time>2025-05-08T10:37:04Z</time>
      </trkpt>
      <trkpt lat="36.240678001195192" lon="-5.999223981052637">
        <ele>77.040000000000006</ele>
        <time>2025-05-08T10:37:10Z</time>
      </trkpt>
      <trkpt lat="36.240862989798188" lon="-5.999243007972837">
        <ele>78</ele>
        <time>2025-05-08T10:37:11Z</time>
      </trkpt>
      <trkpt lat="36.241061976179481" lon="-5.999243007972837">
        <ele>78</ele>
        <time>2025-05-08T10:37:12Z</time>
      </trkpt>
      <trkpt lat="36.241258028894663" lon="-5.999243007972837">
        <ele>78</ele>
        <time>2025-05-08T10:37:13Z</time>
      </trkpt>
      <trkpt lat="36.241433965042233" lon="-5.999148963019252">
        <ele>78</ele>
        <time>2025-05-08T10:37:14Z</time>
      </trkpt>
      <trkpt lat="36.24159699305892" lon="-5.99905701354146">
        <ele>78</ele>
        <time>2025-05-08T10:37:15Z</time>
      </trkpt>
      <trkpt lat="36.241745017468929" lon="-5.998935978859663">
        <ele>78</ele>
        <time>2025-05-08T10:37:16Z</time>
      </trkpt>
      <trkpt lat="36.242942037060857" lon="-5.997887989506126">
        <ele>69.829999999999998</ele>
        <time>2025-05-08T10:37:24Z</time>
      </trkpt>
      <trkpt lat="36.243081009015441" lon="-5.997722027823329">
        <ele>68.390000000000001</ele>
        <time>2025-05-08T10:37:25Z</time>
      </trkpt>
      <trkpt lat="36.243682997301221" lon="-5.996574964374304">
        <ele>61.18</ele>
        <time>2025-05-08T10:37:31Z</time>
      </trkpt>
      <trkpt lat="36.244570976123214" lon="-5.994476974010468">
        <ele>51.57</ele>
        <time>2025-05-08T10:37:42Z</time>
      </trkpt>
      <trkpt lat="36.245174976065755" lon="-5.99202903918922">
        <ele>43.399999999999999</ele>
        <time>2025-05-08T10:37:54Z</time>
      </trkpt>
      <trkpt lat="36.245412016287446" lon="-5.991481030359864">
        <ele>41.950000000000003</ele>
        <time>2025-05-08T10:37:57Z</time>
      </trkpt>
      <trkpt lat="36.245508994907141" lon="-5.991281038150191">
        <ele>41.469999999999999</ele>
        <time>2025-05-08T10:37:58Z</time>
      </trkpt>
      <trkpt lat="36.246438967064023" lon="-5.989943034946919">
        <ele>37.630000000000003</ele>
        <time>2025-05-08T10:38:04Z</time>
      </trkpt>
      <trkpt lat="36.247317977249622" lon="-5.98822901956737">
        <ele>35.229999999999997</ele>
        <time>2025-05-08T10:38:11Z</time>
      </trkpt>
      <trkpt lat="36.248714989051223" lon="-5.984779028221965">
        <ele>30.899999999999999</ele>
        <time>2025-05-08T10:38:25Z</time>
      </trkpt>
      <trkpt lat="36.249706987291574" lon="-5.983354020863771">
        <ele>29.460000000000001</ele>
        <time>2025-05-08T10:38:33Z</time>
      </trkpt>
      <trkpt lat="36.250786995515227" lon="-5.982467969879508">
        <ele>28.02</ele>
        <time>2025-05-08T10:38:40Z</time>
      </trkpt>
      <trkpt lat="36.252290960401297" lon="-5.9816740360111">
        <ele>24.649999999999999</ele>
        <time>2025-05-08T10:38:51Z</time>
      </trkpt>
      <trkpt lat="36.252503022551537" lon="-5.981561969965696">
        <ele>23.690000000000001</ele>
        <time>2025-05-08T10:38:54Z</time>
      </trkpt>
      <trkpt lat="36.252632020041347" lon="-5.98148200660944">
        <ele>23.210000000000001</ele>
        <time>2025-05-08T10:38:57Z</time>
      </trkpt>
      <trkpt lat="36.252664038911462" lon="-5.981248989701271">
        <ele>22.25</ele>
        <time>2025-05-08T10:39:00Z</time>
      </trkpt>
      <trkpt lat="36.252727992832661" lon="-5.981201967224479">
        <ele>21.77</ele>
        <time>2025-05-08T10:39:01Z</time>
      </trkpt>
      <trkpt lat="36.252807034179568" lon="-5.981197021901608">
        <ele>21.77</ele>
        <time>2025-05-08T10:39:02Z</time>
      </trkpt>
      <trkpt lat="36.252885991707444" lon="-5.981228034943342">
        <ele>21.77</ele>
        <time>2025-05-08T10:39:03Z</time>
      </trkpt>
      <trkpt lat="36.252924967557192" lon="-5.981257958337665">
        <ele>21.77</ele>
        <time>2025-05-08T10:39:04Z</time>
      </trkpt>
      <trkpt lat="36.252931002527475" lon="-5.981261981651187">
        <ele>21.77</ele>
        <time>2025-05-08T10:39:05Z</time>
      </trkpt>
      <trkpt lat="36.252949023619294" lon="-5.981352003291249">
        <ele>21.77</ele>
        <time>2025-05-08T10:39:06Z</time>
      </trkpt>
      <trkpt lat="36.252952041104436" lon="-5.981369018554688">
        <ele>21.77</ele>
        <time>2025-05-08T10:39:07Z</time>
      </trkpt>
      <trkpt lat="36.252939971163869" lon="-5.981449987739325">
        <ele>21.289999999999999</ele>
        <time>2025-05-08T10:39:08Z</time>
      </trkpt>
      <trkpt lat="36.252931002527475" lon="-5.981518970802426">
        <ele>21.289999999999999</ele>
        <time>2025-05-08T10:39:09Z</time>
      </trkpt>
      <trkpt lat="36.252808040007949" lon="-5.981675963848829">
        <ele>20.809999999999999</ele>
        <time>2025-05-08T10:39:10Z</time>
      </trkpt>
      <trkpt lat="36.252821031957865" lon="-5.981818037107587">
        <ele>20.32</ele>
        <time>2025-05-08T10:39:11Z</time>
      </trkpt>
      <trkpt lat="36.252846010029316" lon="-5.981967989355326">
        <ele>20.32</ele>
        <time>2025-05-08T10:39:12Z</time>
      </trkpt>
      <trkpt lat="36.252865958958864" lon="-5.982077037915587">
        <ele>20.32</ele>
        <time>2025-05-08T10:39:13Z</time>
      </trkpt>
      <trkpt lat="36.252908036112785" lon="-5.982245011255145">
        <ele>20.809999999999999</ele>
        <time>2025-05-08T10:39:14Z</time>
      </trkpt>
      <trkpt lat="36.252942988649011" lon="-5.98238498903811">
        <ele>21.289999999999999</ele>
        <time>2025-05-08T10:39:15Z</time>
      </trkpt>
      <trkpt lat="36.252977019175887" lon="-5.982512980699539">
        <ele>22.25</ele>
        <time>2025-05-08T10:39:16Z</time>
      </trkpt>
      <trkpt lat="36.253028986975551" lon="-5.982623035088182">
        <ele>23.210000000000001</ele>
        <time>2025-05-08T10:39:17Z</time>
      </trkpt>
      <trkpt lat="36.253122026100755" lon="-5.982819003984332">
        <ele>24.649999999999999</ele>
        <time>2025-05-08T10:39:19Z</time>
      </trkpt>
      <trkpt lat="36.253167036920786" lon="-5.982913970947266">
        <ele>25.609999999999999</ele>
        <time>2025-05-08T10:39:20Z</time>
      </trkpt>
      <trkpt lat="36.253205006942153" lon="-5.982970967888832">
        <ele>26.09</ele>
        <time>2025-05-08T10:39:21Z</time>
      </trkpt>
      <trkpt lat="36.253327969461679" lon="-5.983004998415709">
        <ele>26.57</ele>
        <time>2025-05-08T10:39:22Z</time>
      </trkpt>
      <trkpt lat="36.253394018858671" lon="-5.982978008687496">
        <ele>26.57</ele>
        <time>2025-05-08T10:39:23Z</time>
      </trkpt>
      <trkpt lat="36.253482028841972" lon="-5.982978008687496">
        <ele>27.050000000000001</ele>
        <time>2025-05-08T10:39:24Z</time>
      </trkpt>
      <trkpt lat="36.253581019118428" lon="-5.982896033674479">
        <ele>27.050000000000001</ele>
        <time>2025-05-08T10:39:25Z</time>
      </trkpt>
      <trkpt lat="36.253662994131446" lon="-5.982823027297854">
        <ele>27.530000000000001</ele>
        <time>2025-05-08T10:39:26Z</time>
      </trkpt>
      <trkpt lat="36.253746980801225" lon="-5.982747003436089">
        <ele>27.530000000000001</ele>
        <time>2025-05-08T10:39:27Z</time>
      </trkpt>
      <trkpt lat="36.253835996612906" lon="-5.982667040079832">
        <ele>27.530000000000001</ele>
        <time>2025-05-08T10:39:28Z</time>
      </trkpt>
      <trkpt lat="36.25393096357584" lon="-5.982566038146615">
        <ele>27.530000000000001</ele>
        <time>2025-05-08T10:39:29Z</time>
      </trkpt>
      <trkpt lat="36.254608975723386" lon="-5.981449987739325">
        <ele>24.170000000000002</ele>
        <time>2025-05-08T10:39:36Z</time>
      </trkpt>
      <trkpt lat="36.255743969231844" lon="-5.979455010965467">
        <ele>19.84</ele>
        <time>2025-05-08T10:39:46Z</time>
      </trkpt>
      <trkpt lat="36.25706797465682" lon="-5.977967977523804">
        <ele>16.48</ele>
        <time>2025-05-08T10:39:55Z</time>
      </trkpt>
      <trkpt lat="36.258575962856412" lon="-5.976052964106202">
        <ele>16.960000000000001</ele>
        <time>2025-05-08T10:40:06Z</time>
      </trkpt>
      <trkpt lat="36.25973098911345" lon="-5.974531983956695">
        <ele>17.440000000000001</ele>
        <time>2025-05-08T10:40:15Z</time>
      </trkpt>
      <trkpt lat="36.260362984612584" lon="-5.972915031015873">
        <ele>13.119999999999999</ele>
        <time>2025-05-08T10:40:23Z</time>
      </trkpt>
      <trkpt lat="36.260453006252646" lon="-5.972467018291354">
        <ele>12.15</ele>
        <time>2025-05-08T10:40:25Z</time>
      </trkpt>
      <trkpt lat="36.260690968483686" lon="-5.969740971922875">
        <ele>10.710000000000001</ele>
        <time>2025-05-08T10:40:37Z</time>
      </trkpt>
      <trkpt lat="36.260827006772161" lon="-5.967880021780729">
        <ele>9.75</ele>
        <time>2025-05-08T10:40:45Z</time>
      </trkpt>
      <trkpt lat="36.260933959856629" lon="-5.965576004236937">
        <ele>8.789999999999999</ele>
        <time>2025-05-08T10:40:56Z</time>
      </trkpt>
      <trkpt lat="36.260933959856629" lon="-5.965409958735108">
        <ele>8.789999999999999</ele>
        <time>2025-05-08T10:40:57Z</time>
      </trkpt>
      <trkpt lat="36.260924991220236" lon="-5.965269980952144">
        <ele>8.789999999999999</ele>
        <time>2025-05-08T10:40:58Z</time>
      </trkpt>
      <trkpt lat="36.260881992056966" lon="-5.965150035917759">
        <ele>8.789999999999999</ele>
        <time>2025-05-08T10:40:59Z</time>
      </trkpt>
      <trkpt lat="36.260829018428922" lon="-5.965044004842639">
        <ele>8.789999999999999</ele>
        <time>2025-05-08T10:41:00Z</time>
      </trkpt>
      <trkpt lat="36.26071996986866" lon="-5.964953983202577">
        <ele>9.27</ele>
        <time>2025-05-08T10:41:01Z</time>
      </trkpt>
      <trkpt lat="36.260714018717408" lon="-5.964834960177541">
        <ele>9.75</ele>
        <time>2025-05-08T10:41:02Z</time>
      </trkpt>
      <trkpt lat="36.260741008445621" lon="-5.964738987386227">
        <ele>9.75</ele>
        <time>2025-05-08T10:41:03Z</time>
      </trkpt>
      <trkpt lat="36.260793982073665" lon="-5.964633962139487">
        <ele>9.75</ele>
        <time>2025-05-08T10:41:04Z</time>
      </trkpt>
      <trkpt lat="36.260847961530089" lon="-5.964498007670045">
        <ele>9.75</ele>
        <time>2025-05-08T10:41:05Z</time>
      </trkpt>
      <trkpt lat="36.260847961530089" lon="-5.964349983260036">
        <ele>9.75</ele>
        <time>2025-05-08T10:41:06Z</time>
      </trkpt>
      <trkpt lat="36.260775038972497" lon="-5.962926987558603">
        <ele>8.789999999999999</ele>
        <time>2025-05-08T10:41:14Z</time>
      </trkpt>
      <trkpt lat="36.260749977082014" lon="-5.962760020047426">
        <ele>8.789999999999999</ele>
        <time>2025-05-08T10:41:15Z</time>
      </trkpt>
      <trkpt lat="36.260704966261983" lon="-5.962605038657785">
        <ele>8.310000000000001</ele>
        <time>2025-05-08T10:41:16Z</time>
      </trkpt>
      <trkpt lat="36.260645035654306" lon="-5.96244896762073">
        <ele>8.310000000000001</ele>
        <time>2025-05-08T10:41:17Z</time>
      </trkpt>
      <trkpt lat="36.260584015399218" lon="-5.962287029251456">
        <ele>8.310000000000001</ele>
        <time>2025-05-08T10:41:18Z</time>
      </trkpt>
      <trkpt lat="36.260483013466001" lon="-5.962156020104885">
        <ele>8.310000000000001</ele>
        <time>2025-05-08T10:41:19Z</time>
      </trkpt>
      <trkpt lat="36.260373964905739" lon="-5.962035991251469">
        <ele>8.310000000000001</ele>
        <time>2025-05-08T10:41:20Z</time>
      </trkpt>
      <trkpt lat="36.260270029306412" lon="-5.961919985711575">
        <ele>7.83</ele>
        <time>2025-05-08T10:41:21Z</time>
      </trkpt>
      <trkpt lat="36.259453967213631" lon="-5.961198974400759">
        <ele>7.35</ele>
        <time>2025-05-08T10:41:30Z</time>
      </trkpt>
      <trkpt lat="36.259400993585587" lon="-5.96113502047956">
        <ele>6.87</ele>
        <time>2025-05-08T10:41:31Z</time>
      </trkpt>
      <trkpt lat="36.259352965280414" lon="-5.961079029366374">
        <ele>6.87</ele>
        <time>2025-05-08T10:41:32Z</time>
      </trkpt>
      <trkpt lat="36.259195972234011" lon="-5.961177013814449">
        <ele>7.35</ele>
        <time>2025-05-08T10:41:33Z</time>
      </trkpt>
      <trkpt lat="36.25915196724236" lon="-5.961154969409108">
        <ele>7.83</ele>
        <time>2025-05-08T10:41:34Z</time>
      </trkpt>
      <trkpt lat="36.25908499583602" lon="-5.961109036579728">
        <ele>8.310000000000001</ele>
        <time>2025-05-08T10:41:35Z</time>
      </trkpt>
      <trkpt lat="36.259039985015988" lon="-5.961024966090918">
        <ele>8.789999999999999</ele>
        <time>2025-05-08T10:41:36Z</time>
      </trkpt>
      <trkpt lat="36.259030010551214" lon="-5.960941985249519">
        <ele>8.789999999999999</ele>
        <time>2025-05-08T10:41:37Z</time>
      </trkpt>
      <trkpt lat="36.259058006107807" lon="-5.960842994973064">
        <ele>9.27</ele>
        <time>2025-05-08T10:41:38Z</time>
      </trkpt>
      <trkpt lat="36.259089019149542" lon="-5.9607910271734">
        <ele>9.27</ele>
        <time>2025-05-08T10:41:39Z</time>
      </trkpt>
      <trkpt lat="36.259145010262728" lon="-5.960632022470236">
        <ele>9.75</ele>
        <time>2025-05-08T10:41:40Z</time>
      </trkpt>
      <trkpt lat="36.259105028584599" lon="-5.96053596585989">
        <ele>9.27</ele>
        <time>2025-05-08T10:41:41Z</time>
      </trkpt>
      <trkpt lat="36.259068986400962" lon="-5.960408980026841">
        <ele>9.27</ele>
        <time>2025-05-08T10:41:42Z</time>
      </trkpt>
      <trkpt lat="36.25900000333786" lon="-5.960286017507315">
        <ele>9.27</ele>
        <time>2025-05-08T10:41:43Z</time>
      </trkpt>
      <trkpt lat="36.258932026103139" lon="-5.960144028067589">
        <ele>9.27</ele>
        <time>2025-05-08T10:41:44Z</time>
      </trkpt>
      <trkpt lat="36.258229035884142" lon="-5.958714997395873">
        <ele>9.27</ele>
        <time>2025-05-08T10:41:52Z</time>
      </trkpt>
      <trkpt lat="36.257981015369296" lon="-5.958348037675023">
        <ele>9.27</ele>
        <time>2025-05-08T10:41:54Z</time>
      </trkpt>
      <trkpt lat="36.257831985130906" lon="-5.958191966637969">
        <ele>8.789999999999999</ele>
        <time>2025-05-08T10:41:55Z</time>
      </trkpt>
      <trkpt lat="36.257683960720897" lon="-5.958036985248327">
        <ele>8.789999999999999</ele>
        <time>2025-05-08T10:41:56Z</time>
      </trkpt>
      <trkpt lat="36.256265994161367" lon="-5.957170967012644">
        <ele>11.19</ele>
        <time>2025-05-08T10:42:04Z</time>
      </trkpt>
      <trkpt lat="36.255415985360742" lon="-5.956589011475444">
        <ele>10.710000000000001</ele>
        <time>2025-05-08T10:42:09Z</time>
      </trkpt>
      <trkpt lat="36.253978991881013" lon="-5.955295013263822">
        <ele>11.67</ele>
        <time>2025-05-08T10:42:18Z</time>
      </trkpt>
      <trkpt lat="36.252433033660054" lon="-5.953730028122664">
        <ele>14.56</ele>
        <time>2025-05-08T10:42:28Z</time>
      </trkpt>
      <trkpt lat="36.252322979271412" lon="-5.953533975407481">
        <ele>15.039999999999999</ele>
        <time>2025-05-08T10:42:29Z</time>
      </trkpt>
      <trkpt lat="36.252212002873421" lon="-5.953338006511331">
        <ele>15.52</ele>
        <time>2025-05-08T10:42:30Z</time>
      </trkpt>
      <trkpt lat="36.252128016203642" lon="-5.953125022351742">
        <ele>16</ele>
        <time>2025-05-08T10:42:31Z</time>
      </trkpt>
      <trkpt lat="36.252050986513495" lon="-5.952895022928715">
        <ele>16.48</ele>
        <time>2025-05-08T10:42:32Z</time>
      </trkpt>
      <trkpt lat="36.252031037583947" lon="-5.952674997970462">
        <ele>16.960000000000001</ele>
        <time>2025-05-08T10:42:33Z</time>
      </trkpt>
      <trkpt lat="36.252042017877102" lon="-5.952448016032577">
        <ele>17.440000000000001</ele>
        <time>2025-05-08T10:42:34Z</time>
      </trkpt>
      <trkpt lat="36.252068001776934" lon="-5.952227991074324">
        <ele>17.920000000000002</ele>
        <time>2025-05-08T10:42:35Z</time>
      </trkpt>
      <trkpt lat="36.25212399289012" lon="-5.952017018571496">
        <ele>18.879999999999999</ele>
        <time>2025-05-08T10:42:36Z</time>
      </trkpt>
      <trkpt lat="36.252195993438363" lon="-5.951813003048301">
        <ele>19.84</ele>
        <time>2025-05-08T10:42:37Z</time>
      </trkpt>
      <trkpt lat="36.252293977886438" lon="-5.951624996960163">
        <ele>20.809999999999999</ele>
        <time>2025-05-08T10:42:38Z</time>
      </trkpt>
      <trkpt lat="36.252393973991275" lon="-5.951431961730123">
        <ele>21.289999999999999</ele>
        <time>2025-05-08T10:42:39Z</time>
      </trkpt>
      <trkpt lat="36.252508973702788" lon="-5.951258959248662">
        <ele>21.77</ele>
        <time>2025-05-08T10:42:40Z</time>
      </trkpt>
      <trkpt lat="36.252643000334501" lon="-5.951088974252343">
        <ele>21.77</ele>
        <time>2025-05-08T10:42:41Z</time>
      </trkpt>
      <trkpt lat="36.253861980512738" lon="-5.949546033516526">
        <ele>16.960000000000001</ele>
        <time>2025-05-08T10:42:50Z</time>
      </trkpt>
      <trkpt lat="36.255275001749396" lon="-5.947792958468199">
        <ele>22.73</ele>
        <time>2025-05-08T10:43:01Z</time>
      </trkpt>
      <trkpt lat="36.255372986197472" lon="-5.947610987350345">
        <ele>23.690000000000001</ele>
        <time>2025-05-08T10:43:02Z</time>
      </trkpt>
      <trkpt lat="36.255460996180773" lon="-5.947418035939336">
        <ele>24.649999999999999</ele>
        <time>2025-05-08T10:43:03Z</time>
      </trkpt>
      <trkpt lat="36.255534002557397" lon="-5.947220977395773">
        <ele>26.09</ele>
        <time>2025-05-08T10:43:04Z</time>
      </trkpt>
      <trkpt lat="36.255569960922003" lon="-5.946972034871578">
        <ele>27.530000000000001</ele>
        <time>2025-05-08T10:43:05Z</time>
      </trkpt>
      <trkpt lat="36.255586976185441" lon="-5.946782017126679">
        <ele>28.98</ele>
        <time>2025-05-08T10:43:06Z</time>
      </trkpt>
      <trkpt lat="36.255564009770751" lon="-5.946557968854904">
        <ele>30.420000000000002</ele>
        <time>2025-05-08T10:43:07Z</time>
      </trkpt>
      <trkpt lat="36.255530985072255" lon="-5.946340961381793">
        <ele>31.859999999999999</ele>
        <time>2025-05-08T10:43:08Z</time>
      </trkpt>
      <trkpt lat="36.255054976791143" lon="-5.943700997158885">
        <ele>46.759999999999998</ele>
        <time>2025-05-08T10:43:20Z</time>
      </trkpt>
      <trkpt lat="36.254539992660284" lon="-5.941523965448141">
        <ele>54.450000000000003</ele>
        <time>2025-05-08T10:43:29Z</time>
      </trkpt>
      <trkpt lat="36.253513041883707" lon="-5.937626967206597">
        <ele>51.090000000000003</ele>
        <time>2025-05-08T10:43:43Z</time>
      </trkpt>
      <trkpt lat="36.252676025032997" lon="-5.934434970840812">
        <ele>45.799999999999997</ele>
        <time>2025-05-08T10:43:55Z</time>
      </trkpt>
      <trkpt lat="36.25171503983438" lon="-5.930726984515786">
        <ele>36.670000000000002</ele>
        <time>2025-05-08T10:44:09Z</time>
      </trkpt>
      <trkpt lat="36.250938037410378" lon="-5.927830031141639">
        <ele>27.050000000000001</ele>
        <time>2025-05-08T10:44:20Z</time>
      </trkpt>
      <trkpt lat="36.249965988099575" lon="-5.924165965989232">
        <ele>25.609999999999999</ele>
        <time>2025-05-08T10:44:34Z</time>
      </trkpt>
      <trkpt lat="36.249050013720989" lon="-5.920717986300588">
        <ele>27.530000000000001</ele>
        <time>2025-05-08T10:44:47Z</time>
      </trkpt>
      <trkpt lat="36.248312992975116" lon="-5.917854979634285">
        <ele>32.340000000000003</ele>
        <time>2025-05-08T10:44:58Z</time>
      </trkpt>
      <trkpt lat="36.247905967757106" lon="-5.915246028453112">
        <ele>37.149999999999999</ele>
        <time>2025-05-08T10:45:09Z</time>
      </trkpt>
      <trkpt lat="36.247538002207875" lon="-5.912832040339708">
        <ele>39.07</ele>
        <time>2025-05-08T10:45:18Z</time>
      </trkpt>
      <trkpt lat="36.246872982010245" lon="-5.908465990796685">
        <ele>41.950000000000003</ele>
        <time>2025-05-08T10:45:34Z</time>
      </trkpt>
      <trkpt lat="36.246413988992572" lon="-5.905454959720373">
        <ele>45.32</ele>
        <time>2025-05-08T10:45:45Z</time>
      </trkpt>
      <trkpt lat="36.245983997359872" lon="-5.902449963614345">
        <ele>48.68</ele>
        <time>2025-05-08T10:45:56Z</time>
      </trkpt>
      <trkpt lat="36.245536990463734" lon="-5.899462988600135">
        <ele>49.649999999999999</ele>
        <time>2025-05-08T10:46:07Z</time>
      </trkpt>
      <trkpt lat="36.244942964985967" lon="-5.895459959283471">
        <ele>49.649999999999999</ele>
        <time>2025-05-08T10:46:22Z</time>
      </trkpt>
      <trkpt lat="36.244717994704843" lon="-5.894289007410407">
        <ele>49.649999999999999</ele>
        <time>2025-05-08T10:46:27Z</time>
      </trkpt>
      <trkpt lat="36.244642976671457" lon="-5.894067976623774">
        <ele>49.649999999999999</ele>
        <time>2025-05-08T10:46:28Z</time>
      </trkpt>
      <trkpt lat="36.244543986395001" lon="-5.893854992464185">
        <ele>49.649999999999999</ele>
        <time>2025-05-08T10:46:29Z</time>
      </trkpt>
      <trkpt lat="36.244415994733572" lon="-5.893659023568034">
        <ele>50.130000000000003</ele>
        <time>2025-05-08T10:46:30Z</time>
      </trkpt>
      <trkpt lat="36.244277022778988" lon="-5.893466994166374">
        <ele>50.130000000000003</ele>
        <time>2025-05-08T10:46:31Z</time>
      </trkpt>
      <trkpt lat="36.243216041475534" lon="-5.892056990414858">
        <ele>51.57</ele>
        <time>2025-05-08T10:46:38Z</time>
      </trkpt>
      <trkpt lat="36.241490039974451" lon="-5.889860009774566">
        <ele>51.57</ele>
        <time>2025-05-08T10:46:49Z</time>
      </trkpt>
      <trkpt lat="36.240656962618232" lon="-5.888801040127873">
        <ele>51.090000000000003</ele>
        <time>2025-05-08T10:46:55Z</time>
      </trkpt>
      <trkpt lat="36.239414010196924" lon="-5.887655988335609">
        <ele>48.68</ele>
        <time>2025-05-08T10:47:03Z</time>
      </trkpt>
      <trkpt lat="36.239011008292437" lon="-5.887473011389375">
        <ele>47.719999999999999</ele>
        <time>2025-05-08T10:47:05Z</time>
      </trkpt>
      <trkpt lat="36.237077973783016" lon="-5.886774966493249">
        <ele>39.07</ele>
        <time>2025-05-08T10:47:14Z</time>
      </trkpt>
      <trkpt lat="36.235053995624185" lon="-5.885600997135043">
        <ele>30.420000000000002</ele>
        <time>2025-05-08T10:47:24Z</time>
      </trkpt>
      <trkpt lat="36.233029011636972" lon="-5.884383022785187">
        <ele>22.25</ele>
        <time>2025-05-08T10:47:34Z</time>
      </trkpt>
      <trkpt lat="36.231009978801012" lon="-5.883183991536498">
        <ele>18.399999999999999</ele>
        <time>2025-05-08T10:47:44Z</time>
      </trkpt>
      <trkpt lat="36.22950199060142" lon="-5.882011028006673">
        <ele>16.48</ele>
        <time>2025-05-08T10:47:52Z</time>
      </trkpt>
      <trkpt lat="36.226924974471331" lon="-5.879314988851547">
        <ele>21.77</ele>
        <time>2025-05-08T10:48:07Z</time>
      </trkpt>
      <trkpt lat="36.223840015009046" lon="-5.876049986109138">
        <ele>20.32</ele>
        <time>2025-05-08T10:48:25Z</time>
      </trkpt>
      <trkpt lat="36.221968000754714" lon="-5.873687965795398">
        <ele>13.119999999999999</ele>
        <time>2025-05-08T10:48:37Z</time>
      </trkpt>
      <trkpt lat="36.221355032175779" lon="-5.87190899066627">
        <ele>10.23</ele>
        <time>2025-05-08T10:48:44Z</time>
      </trkpt>
      <trkpt lat="36.220530001446605" lon="-5.868741972371936">
        <ele>11.19</ele>
        <time>2025-05-08T10:48:56Z</time>
      </trkpt>
      <trkpt lat="36.219367012381554" lon="-5.86423602886498">
        <ele>14.56</ele>
        <time>2025-05-08T10:49:13Z</time>
      </trkpt>
      <trkpt lat="36.218515997752547" lon="-5.860517984256148">
        <ele>10.23</ele>
        <time>2025-05-08T10:49:27Z</time>
      </trkpt>
      <trkpt lat="36.218555979430676" lon="-5.858583021908999">
        <ele>10.710000000000001</ele>
        <time>2025-05-08T10:49:34Z</time>
      </trkpt>
      <trkpt lat="36.219098037108779" lon="-5.856774039566517">
        <ele>13.119999999999999</ele>
        <time>2025-05-08T10:49:41Z</time>
      </trkpt>
      <trkpt lat="36.220996035262942" lon="-5.852993968874216">
        <ele>18.879999999999999</ele>
        <time>2025-05-08T10:49:57Z</time>
      </trkpt>
      <trkpt lat="36.221149004995823" lon="-5.852793976664543">
        <ele>18.399999999999999</ele>
        <time>2025-05-08T10:49:58Z</time>
      </trkpt>
      <trkpt lat="36.221303986385465" lon="-5.852600019425154">
        <ele>17.920000000000002</ele>
        <time>2025-05-08T10:49:59Z</time>
      </trkpt>
      <trkpt lat="36.223934981971979" lon="-5.850045969709754">
        <ele>13.119999999999999</ele>
        <time>2025-05-08T10:50:14Z</time>
      </trkpt>
      <trkpt lat="36.227111974731088" lon="-5.84696302190423">
        <ele>13.119999999999999</ele>
        <time>2025-05-08T10:50:32Z</time>
      </trkpt>
      <trkpt lat="36.228280998766422" lon="-5.845691990107298">
        <ele>17.920000000000002</ele>
        <time>2025-05-08T10:50:39Z</time>
      </trkpt>
      <trkpt lat="36.229125978425145" lon="-5.844047963619232">
        <ele>20.809999999999999</ele>
        <time>2025-05-08T10:50:46Z</time>
      </trkpt>
      <trkpt lat="36.229950003325939" lon="-5.841129971668124">
        <ele>17.440000000000001</ele>
        <time>2025-05-08T10:50:57Z</time>
      </trkpt>
      <trkpt lat="36.231098994612694" lon="-5.836957041174173">
        <ele>8.310000000000001</ele>
        <time>2025-05-08T10:51:13Z</time>
      </trkpt>
      <trkpt lat="36.231945985928178" lon="-5.83351300098002">
        <ele>8.310000000000001</ele>
        <time>2025-05-08T10:51:26Z</time>
      </trkpt>
      <trkpt lat="36.231908015906811" lon="-5.831587007269263">
        <ele>12.15</ele>
        <time>2025-05-08T10:51:33Z</time>
      </trkpt>
      <trkpt lat="36.231377022340894" lon="-5.829765032976866">
        <ele>13.6</ele>
        <time>2025-05-08T10:51:40Z</time>
      </trkpt>
      <trkpt lat="36.229685973376036" lon="-5.825519012287259">
        <ele>8.310000000000001</ele>
        <time>2025-05-08T10:51:57Z</time>
      </trkpt>
      <trkpt lat="36.228388035669923" lon="-5.822308994829655">
        <ele>7.35</ele>
        <time>2025-05-08T10:52:10Z</time>
      </trkpt>
      <trkpt lat="36.227080039680004" lon="-5.81907500512898">
        <ele>8.310000000000001</ele>
        <time>2025-05-08T10:52:23Z</time>
      </trkpt>
      <trkpt lat="36.225469037890434" lon="-5.815089996904135">
        <ele>6.39</ele>
        <time>2025-05-08T10:52:39Z</time>
      </trkpt>
      <trkpt lat="36.223955014720559" lon="-5.811373963952065">
        <ele>7.35</ele>
        <time>2025-05-08T10:52:54Z</time>
      </trkpt>
      <trkpt lat="36.222843993455172" lon="-5.808668034151197">
        <ele>11.19</ele>
        <time>2025-05-08T10:53:05Z</time>
      </trkpt>
      <trkpt lat="36.221405994147062" lon="-5.805208990350366">
        <ele>11.19</ele>
        <time>2025-05-08T10:53:19Z</time>
      </trkpt>
      <trkpt lat="36.220463030040264" lon="-5.803661020472646">
        <ele>13.6</ele>
        <time>2025-05-08T10:53:26Z</time>
      </trkpt>
      <trkpt lat="36.218766029924154" lon="-5.801454987376928">
        <ele>21.77</ele>
        <time>2025-05-08T10:53:37Z</time>
      </trkpt>
      <trkpt lat="36.218165969476104" lon="-5.800628028810024">
        <ele>23.210000000000001</ele>
        <time>2025-05-08T10:53:41Z</time>
      </trkpt>
      <trkpt lat="36.218057004734874" lon="-5.800388976931572">
        <ele>23.210000000000001</ele>
        <time>2025-05-08T10:53:42Z</time>
      </trkpt>
      <trkpt lat="36.217960026115179" lon="-5.800141962245107">
        <ele>23.690000000000001</ele>
        <time>2025-05-08T10:53:43Z</time>
      </trkpt>
      <trkpt lat="36.217870004475117" lon="-5.799891008064151">
        <ele>23.690000000000001</ele>
        <time>2025-05-08T10:53:44Z</time>
      </trkpt>
      <trkpt lat="36.217799009755254" lon="-5.799628989771009">
        <ele>23.690000000000001</ele>
        <time>2025-05-08T10:53:45Z</time>
      </trkpt>
      <trkpt lat="36.21686995960772" lon="-5.796814011409879">
        <ele>22.73</ele>
        <time>2025-05-08T10:53:56Z</time>
      </trkpt>
      <trkpt lat="36.215830016881227" lon="-5.79468802548945">
        <ele>24.170000000000002</ele>
        <time>2025-05-08T10:54:05Z</time>
      </trkpt>
      <trkpt lat="36.215653996914625" lon="-5.794522985816002">
        <ele>24.170000000000002</ele>
        <time>2025-05-08T10:54:06Z</time>
      </trkpt>
      <trkpt lat="36.215474959462881" lon="-5.794355012476444">
        <ele>24.649999999999999</ele>
        <time>2025-05-08T10:54:07Z</time>
      </trkpt>
      <trkpt lat="36.21529902331531" lon="-5.794190978631377">
        <ele>24.649999999999999</ele>
        <time>2025-05-08T10:54:08Z</time>
      </trkpt>
      <trkpt lat="36.215120991691947" lon="-5.794025016948581">
        <ele>25.129999999999999</ele>
        <time>2025-05-08T10:54:09Z</time>
      </trkpt>
      <trkpt lat="36.213140012696385" lon="-5.792242018505931">
        <ele>24.170000000000002</ele>
        <time>2025-05-08T10:54:20Z</time>
      </trkpt>
      <trkpt lat="36.211374029517174" lon="-5.790475029498339">
        <ele>24.649999999999999</ele>
        <time>2025-05-08T10:54:31Z</time>
      </trkpt>
      <trkpt lat="36.210155971348286" lon="-5.788981961086392">
        <ele>22.73</ele>
        <time>2025-05-08T10:54:39Z</time>
      </trkpt>
      <trkpt lat="36.208784021437168" lon="-5.787289990112186">
        <ele>19.84</ele>
        <time>2025-05-08T10:54:48Z</time>
      </trkpt>
      <trkpt lat="36.206863978877664" lon="-5.784912966191769">
        <ele>20.809999999999999</ele>
        <time>2025-05-08T10:55:00Z</time>
      </trkpt>
      <trkpt lat="36.205129008740187" lon="-5.782731994986534">
        <ele>17.440000000000001</ele>
        <time>2025-05-08T10:55:11Z</time>
      </trkpt>
      <trkpt lat="36.203265963122249" lon="-5.780433006584644">
        <ele>15.039999999999999</ele>
        <time>2025-05-08T10:55:23Z</time>
      </trkpt>
      <trkpt lat="36.201154980808496" lon="-5.77780201099813">
        <ele>17.920000000000002</ele>
        <time>2025-05-08T10:55:38Z</time>
      </trkpt>
      <trkpt lat="36.199050033465028" lon="-5.77518199570477">
        <ele>12.15</ele>
        <time>2025-05-08T10:55:53Z</time>
      </trkpt>
      <trkpt lat="36.197633994743228" lon="-5.773402014747262">
        <ele>10.710000000000001</ele>
        <time>2025-05-08T10:56:03Z</time>
      </trkpt>
      <trkpt lat="36.196131035685539" lon="-5.771524971351028">
        <ele>7.83</ele>
        <time>2025-05-08T10:56:14Z</time>
      </trkpt>
      <trkpt lat="36.194569990038872" lon="-5.76957399956882">
        <ele>9.27</ele>
        <time>2025-05-08T10:56:26Z</time>
      </trkpt>
      <trkpt lat="36.193158980458975" lon="-5.76781296171248">
        <ele>10.23</ele>
        <time>2025-05-08T10:56:37Z</time>
      </trkpt>
      <trkpt lat="36.1914739664644" lon="-5.765689993277192">
        <ele>13.6</ele>
        <time>2025-05-08T10:56:50Z</time>
      </trkpt>
      <trkpt lat="36.189965978264809" lon="-5.763805992901325">
        <ele>14.56</ele>
        <time>2025-05-08T10:57:02Z</time>
      </trkpt>
      <trkpt lat="36.188530996441841" lon="-5.762031963095069">
        <ele>16</ele>
        <time>2025-05-08T10:57:15Z</time>
      </trkpt>
      <trkpt lat="36.187028037384152" lon="-5.760157015174627">
        <ele>16.960000000000001</ele>
        <time>2025-05-08T10:57:28Z</time>
      </trkpt>
      <trkpt lat="36.186369974166155" lon="-5.758684985339642">
        <ele>16.48</ele>
        <time>2025-05-08T10:57:36Z</time>
      </trkpt>
      <trkpt lat="36.185249984264374" lon="-5.755835976451635">
        <ele>22.25</ele>
        <time>2025-05-08T10:57:51Z</time>
      </trkpt>
      <trkpt lat="36.184244994074106" lon="-5.754004027694464">
        <ele>22.73</ele>
        <time>2025-05-08T10:58:01Z</time>
      </trkpt>
      <trkpt lat="36.183082005009055" lon="-5.752878002822399">
        <ele>20.809999999999999</ele>
        <time>2025-05-08T10:58:08Z</time>
      </trkpt>
      <trkpt lat="36.180548993870616" lon="-5.750684961676598">
        <ele>21.77</ele>
        <time>2025-05-08T10:58:22Z</time>
      </trkpt>
      <trkpt lat="36.179056009277701" lon="-5.749409990385175">
        <ele>20.809999999999999</ele>
        <time>2025-05-08T10:58:30Z</time>
      </trkpt>
      <trkpt lat="36.177171003073454" lon="-5.747765963897109">
        <ele>20.809999999999999</ele>
        <time>2025-05-08T10:58:40Z</time>
      </trkpt>
      <trkpt lat="36.174981985241175" lon="-5.74585597962141">
        <ele>21.289999999999999</ele>
        <time>2025-05-08T10:58:53Z</time>
      </trkpt>
      <trkpt lat="36.173203010112047" lon="-5.744313960894942">
        <ele>22.25</ele>
        <time>2025-05-08T10:59:03Z</time>
      </trkpt>
      <trkpt lat="36.171679012477398" lon="-5.743000013753772">
        <ele>24.170000000000002</ele>
        <time>2025-05-08T10:59:11Z</time>
      </trkpt>
      <trkpt lat="36.168964030221105" lon="-5.740647967904806">
        <ele>30.420000000000002</ele>
        <time>2025-05-08T10:59:25Z</time>
      </trkpt>
      <trkpt lat="36.166391037404537" lon="-5.738449981436133">
        <ele>34.740000000000002</ele>
        <time>2025-05-08T10:59:39Z</time>
      </trkpt>
      <trkpt lat="36.164063969627023" lon="-5.736737977713347">
        <ele>39.549999999999997</ele>
        <time>2025-05-08T10:59:51Z</time>
      </trkpt>
      <trkpt lat="36.161275980994105" lon="-5.734925977885723">
        <ele>38.590000000000003</ele>
        <time>2025-05-08T11:00:05Z</time>
      </trkpt>
      <trkpt lat="36.158694019541144" lon="-5.733265019953251">
        <ele>47.719999999999999</ele>
        <time>2025-05-08T11:00:18Z</time>
      </trkpt>
      <trkpt lat="36.157219978049397" lon="-5.731986025348306">
        <ele>51.090000000000003</ele>
        <time>2025-05-08T11:00:26Z</time>
      </trkpt>
      <trkpt lat="36.155674019828439" lon="-5.729988031089306">
        <ele>48.200000000000003</ele>
        <time>2025-05-08T11:00:36Z</time>
      </trkpt>
      <trkpt lat="36.154896011576056" lon="-5.728615997359157">
        <ele>47.240000000000002</ele>
        <time>2025-05-08T11:00:42Z</time>
      </trkpt>
      <trkpt lat="36.154005015268922" lon="-5.727030979469419">
        <ele>46.759999999999998</ele>
        <time>2025-05-08T11:00:49Z</time>
      </trkpt>
      <trkpt lat="36.152343973517418" lon="-5.724074011668563">
        <ele>47.240000000000002</ele>
        <time>2025-05-08T11:01:02Z</time>
      </trkpt>
      <trkpt lat="36.150919971987605" lon="-5.721558015793562">
        <ele>47.719999999999999</ele>
        <time>2025-05-08T11:01:13Z</time>
      </trkpt>
      <trkpt lat="36.149066984653473" lon="-5.718445982784033">
        <ele>47.240000000000002</ele>
        <time>2025-05-08T11:01:27Z</time>
      </trkpt>
      <trkpt lat="36.147769968956709" lon="-5.717374021187425">
        <ele>47.719999999999999</ele>
        <time>2025-05-08T11:01:34Z</time>
      </trkpt>
      <trkpt lat="36.144881984218955" lon="-5.715792020782828">
        <ele>46.280000000000001</ele>
        <time>2025-05-08T11:01:48Z</time>
      </trkpt>
      <trkpt lat="36.141597032546997" lon="-5.713989995419979">
        <ele>48.68</ele>
        <time>2025-05-08T11:02:04Z</time>
      </trkpt>
      <trkpt lat="36.139224031940103" lon="-5.712674036622047">
        <ele>55.890000000000001</ele>
        <time>2025-05-08T11:02:16Z</time>
      </trkpt>
      <trkpt lat="36.138676023110747" lon="-5.712370024994016">
        <ele>58.780000000000001</ele>
        <time>2025-05-08T11:02:21Z</time>
      </trkpt>
      <trkpt lat="36.138407969847322" lon="-5.712220994755626">
        <ele>60.219999999999999</ele>
        <time>2025-05-08T11:02:28Z</time>
      </trkpt>
      <trkpt lat="36.138407969847322" lon="-5.712220994755626">
        <ele>60.219999999999999</ele>
        <time>2025-05-08T11:02:57Z</time>
      </trkpt>
      <trkpt lat="36.138371005654335" lon="-5.712200962007046">
        <ele>60.700000000000003</ele>
        <time>2025-05-08T11:03:32Z</time>
      </trkpt>
      <trkpt lat="36.138313002884388" lon="-5.712168021127582">
        <ele>60.700000000000003</ele>
        <time>2025-05-08T11:03:33Z</time>
      </trkpt>
      <trkpt lat="36.137570030987263" lon="-5.711772982031107">
        <ele>62.140000000000001</ele>
        <time>2025-05-08T11:03:40Z</time>
      </trkpt>
      <trkpt lat="36.136359013617039" lon="-5.710977036505938">
        <ele>66.469999999999999</ele>
        <time>2025-05-08T11:03:47Z</time>
      </trkpt>
      <trkpt lat="36.135179009288549" lon="-5.709756966680288">
        <ele>73.680000000000007</ele>
        <time>2025-05-08T11:03:54Z</time>
      </trkpt>
      <trkpt lat="36.134999971836805" lon="-5.709588993340731">
        <ele>74.640000000000001</ele>
        <time>2025-05-08T11:03:55Z</time>
      </trkpt>
      <trkpt lat="36.134797967970371" lon="-5.709459995850921">
        <ele>75.599999999999994</ele>
        <time>2025-05-08T11:03:56Z</time>
      </trkpt>
      <trkpt lat="36.134597975760698" lon="-5.709333010017872">
        <ele>76.560000000000002</ele>
        <time>2025-05-08T11:03:57Z</time>
      </trkpt>
      <trkpt lat="36.134382979944348" lon="-5.709249023348093">
        <ele>77.519999999999996</ele>
        <time>2025-05-08T11:03:58Z</time>
      </trkpt>
      <trkpt lat="36.134162032976747" lon="-5.709163025021553">
        <ele>78.969999999999999</ele>
        <time>2025-05-08T11:03:59Z</time>
      </trkpt>
      <trkpt lat="36.133937984704971" lon="-5.709095969796181">
        <ele>79.930000000000007</ele>
        <time>2025-05-08T11:04:00Z</time>
      </trkpt>
      <trkpt lat="36.13236797042191" lon="-5.70879296399653">
        <ele>87.140000000000001</ele>
        <time>2025-05-08T11:04:07Z</time>
      </trkpt>
      <trkpt lat="36.130342986434698" lon="-5.708748959004879">
        <ele>84.25</ele>
        <time>2025-05-08T11:04:16Z</time>
      </trkpt>
      <trkpt lat="36.128361001610756" lon="-5.708764968439937">
        <ele>78.480000000000004</ele>
        <time>2025-05-08T11:04:26Z</time>
      </trkpt>
      <trkpt lat="36.127226008102298" lon="-5.708545027300715">
        <ele>74.159999999999997</ele>
        <time>2025-05-08T11:04:32Z</time>
      </trkpt>
      <trkpt lat="36.125715002417564" lon="-5.708567993715406">
        <ele>67.430000000000007</ele>
        <time>2025-05-08T11:04:39Z</time>
      </trkpt>
      <trkpt lat="36.123786997050047" lon="-5.708462968468666">
        <ele>61.18</ele>
        <time>2025-05-08T11:04:48Z</time>
      </trkpt>
      <trkpt lat="36.122384034097195" lon="-5.707758972421289">
        <ele>60.219999999999999</ele>
        <time>2025-05-08T11:04:55Z</time>
      </trkpt>
      <trkpt lat="36.120820976793766" lon="-5.707014994695783">
        <ele>55.890000000000001</ele>
        <time>2025-05-08T11:05:03Z</time>
      </trkpt>
      <trkpt lat="36.119290022179484" lon="-5.706925978884101">
        <ele>51.57</ele>
        <time>2025-05-08T11:05:10Z</time>
      </trkpt>
      <trkpt lat="36.117814974859357" lon="-5.707454960793257">
        <ele>46.759999999999998</ele>
        <time>2025-05-08T11:05:17Z</time>
      </trkpt>
      <trkpt lat="36.115327980369329" lon="-5.708892038092017">
        <ele>37.149999999999999</ele>
        <time>2025-05-08T11:05:30Z</time>
      </trkpt>
      <trkpt lat="36.113526038825512" lon="-5.709669040516019">
        <ele>34.259999999999998</ele>
        <time>2025-05-08T11:05:39Z</time>
      </trkpt>
      <trkpt lat="36.1120830103755" lon="-5.709728971123695">
        <ele>32.82</ele>
        <time>2025-05-08T11:05:46Z</time>
      </trkpt>
      <trkpt lat="36.110256006941199" lon="-5.709641966968775">
        <ele>30.899999999999999</ele>
        <time>2025-05-08T11:05:54Z</time>
      </trkpt>
      <trkpt lat="36.109513035044074" lon="-5.709611959755421">
        <ele>28.02</ele>
        <time>2025-05-08T11:05:59Z</time>
      </trkpt>
      <trkpt lat="36.108488012105227" lon="-5.709274001419544">
        <ele>27.050000000000001</ele>
        <time>2025-05-08T11:06:06Z</time>
      </trkpt>
      <trkpt lat="36.106901988387108" lon="-5.708467997610569">
        <ele>27.050000000000001</ele>
        <time>2025-05-08T11:06:16Z</time>
      </trkpt>
      <trkpt lat="36.104640970006585" lon="-5.707337027415633">
        <ele>24.649999999999999</ele>
        <time>2025-05-08T11:06:28Z</time>
      </trkpt>
      <trkpt lat="36.102619003504515" lon="-5.706263976171613">
        <ele>26.09</ele>
        <time>2025-05-08T11:06:39Z</time>
      </trkpt>
      <trkpt lat="36.102452035993338" lon="-5.706131039187312">
        <ele>26.57</ele>
        <time>2025-05-08T11:06:40Z</time>
      </trkpt>
      <trkpt lat="36.102309040725231" lon="-5.705961976200342">
        <ele>26.57</ele>
        <time>2025-05-08T11:06:41Z</time>
      </trkpt>
      <trkpt lat="36.101288963109255" lon="-5.704435966908932">
        <ele>27.530000000000001</ele>
        <time>2025-05-08T11:06:49Z</time>
      </trkpt>
      <trkpt lat="36.099782986566424" lon="-5.702467979863286">
        <ele>25.129999999999999</ele>
        <time>2025-05-08T11:07:00Z</time>
      </trkpt>
      <trkpt lat="36.098142983391881" lon="-5.700668971985579">
        <ele>23.210000000000001</ele>
        <time>2025-05-08T11:07:11Z</time>
      </trkpt>
      <trkpt lat="36.096968008205295" lon="-5.699410010129213">
        <ele>22.25</ele>
        <time>2025-05-08T11:07:19Z</time>
      </trkpt>
      <trkpt lat="36.096802968531847" lon="-5.699313031509519">
        <ele>22.25</ele>
        <time>2025-05-08T11:07:20Z</time>
      </trkpt>
      <trkpt lat="36.096638012677431" lon="-5.699215969070792">
        <ele>22.25</ele>
        <time>2025-05-08T11:07:21Z</time>
      </trkpt>
      <trkpt lat="36.094752000644803" lon="-5.69839496165514">
        <ele>20.32</ele>
        <time>2025-05-08T11:07:32Z</time>
      </trkpt>
      <trkpt lat="36.094607999548316" lon="-5.69826303049922">
        <ele>20.32</ele>
        <time>2025-05-08T11:07:33Z</time>
      </trkpt>
      <trkpt lat="36.092953998595476" lon="-5.696713970974088">
        <ele>18.399999999999999</ele>
        <time>2025-05-08T11:07:44Z</time>
      </trkpt>
      <trkpt lat="36.091730995103717" lon="-5.695960018783808">
        <ele>20.32</ele>
        <time>2025-05-08T11:07:52Z</time>
      </trkpt>
      <trkpt lat="36.090070037171245" lon="-5.694852015003562">
        <ele>18.879999999999999</ele>
        <time>2025-05-08T11:08:03Z</time>
      </trkpt>
      <trkpt lat="36.089941961690784" lon="-5.694708013907075">
        <ele>18.399999999999999</ele>
        <time>2025-05-08T11:08:04Z</time>
      </trkpt>
      <trkpt lat="36.089012995362282" lon="-5.693444022908807">
        <ele>15.039999999999999</ele>
        <time>2025-05-08T11:08:12Z</time>
      </trkpt>
      <trkpt lat="36.087884958833456" lon="-5.692385975271463">
        <ele>12.630000000000001</ele>
        <time>2025-05-08T11:08:20Z</time>
      </trkpt>
      <trkpt lat="36.086603030562401" lon="-5.691983979195356">
        <ele>10.23</ele>
        <time>2025-05-08T11:08:27Z</time>
      </trkpt>
      <trkpt lat="36.084767980501056" lon="-5.691991019994021">
        <ele>9.75</ele>
        <time>2025-05-08T11:08:37Z</time>
      </trkpt>
      <trkpt lat="36.082865037024021" lon="-5.691791027784348">
        <ele>10.710000000000001</ele>
        <time>2025-05-08T11:08:47Z</time>
      </trkpt>
      <trkpt lat="36.080981036648154" lon="-5.691266991198063">
        <ele>8.789999999999999</ele>
        <time>2025-05-08T11:08:57Z</time>
      </trkpt>
      <trkpt lat="36.078965021297336" lon="-5.690595014020801">
        <ele>6.87</ele>
        <time>2025-05-08T11:09:08Z</time>
      </trkpt>
      <trkpt lat="36.0769550409168" lon="-5.68982002325356">
        <ele>7.35</ele>
        <time>2025-05-08T11:09:19Z</time>
      </trkpt>
      <trkpt lat="36.076783966273069" lon="-5.689688008278608">
        <ele>7.35</ele>
        <time>2025-05-08T11:09:20Z</time>
      </trkpt>
      <trkpt lat="36.07465697452426" lon="-5.687786992639303">
        <ele>10.23</ele>
        <time>2025-05-08T11:09:33Z</time>
      </trkpt>
      <trkpt lat="36.072451025247574" lon="-5.685770977288485">
        <ele>11.67</ele>
        <time>2025-05-08T11:09:47Z</time>
      </trkpt>
      <trkpt lat="36.070727035403252" lon="-5.684056039899588">
        <ele>13.119999999999999</ele>
        <time>2025-05-08T11:09:59Z</time>
      </trkpt>
      <trkpt lat="36.069722967222333" lon="-5.68236599676311">
        <ele>12.630000000000001</ele>
        <time>2025-05-08T11:10:09Z</time>
      </trkpt>
      <trkpt lat="36.068269964307547" lon="-5.679951002821326">
        <ele>12.630000000000001</ele>
        <time>2025-05-08T11:10:23Z</time>
      </trkpt>
      <trkpt lat="36.066571958363056" lon="-5.67766098305583">
        <ele>16.48</ele>
        <time>2025-05-08T11:10:36Z</time>
      </trkpt>
      <trkpt lat="36.064541023224592" lon="-5.674915993586183">
        <ele>18.879999999999999</ele>
        <time>2025-05-08T11:10:52Z</time>
      </trkpt>
      <trkpt lat="36.062784008681774" lon="-5.672569982707501">
        <ele>21.289999999999999</ele>
        <time>2025-05-08T11:11:05Z</time>
      </trkpt>
      <trkpt lat="36.061152974143624" lon="-5.670264037325978">
        <ele>26.09</ele>
        <time>2025-05-08T11:11:18Z</time>
      </trkpt>
      <trkpt lat="36.059341980144382" lon="-5.667117973789573">
        <ele>25.609999999999999</ele>
        <time>2025-05-08T11:11:34Z</time>
      </trkpt>
      <trkpt lat="36.057982016354799" lon="-5.664722006767988">
        <ele>22.73</ele>
        <time>2025-05-08T11:11:46Z</time>
      </trkpt>
      <trkpt lat="36.057029999792576" lon="-5.662666009739041">
        <ele>21.289999999999999</ele>
        <time>2025-05-08T11:11:56Z</time>
      </trkpt>
      <trkpt lat="36.056558014824986" lon="-5.660177003592253">
        <ele>21.289999999999999</ele>
        <time>2025-05-08T11:12:07Z</time>
      </trkpt>
      <trkpt lat="36.056468999013305" lon="-5.658233994618058">
        <ele>22.73</ele>
        <time>2025-05-08T11:12:16Z</time>
      </trkpt>
      <trkpt lat="36.056402027606964" lon="-5.656197024509311">
        <ele>23.210000000000001</ele>
        <time>2025-05-08T11:12:26Z</time>
      </trkpt>
      <trkpt lat="36.056279987096786" lon="-5.653009973466396">
        <ele>16.48</ele>
        <time>2025-05-08T11:12:40Z</time>
      </trkpt>
      <trkpt lat="36.056140009313822" lon="-5.651918984949589">
        <ele>14.08</ele>
        <time>2025-05-08T11:12:45Z</time>
      </trkpt>
      <trkpt lat="36.05544900521636" lon="-5.650503030046821">
        <ele>14.56</ele>
        <time>2025-05-08T11:12:53Z</time>
      </trkpt>
      <trkpt lat="36.054465975612402" lon="-5.648951958864927">
        <ele>15.039999999999999</ele>
        <time>2025-05-08T11:13:02Z</time>
      </trkpt>
      <trkpt lat="36.052911970764399" lon="-5.64650603570044">
        <ele>15.52</ele>
        <time>2025-05-08T11:13:16Z</time>
      </trkpt>
      <trkpt lat="36.051145987585187" lon="-5.643731039017439">
        <ele>15.039999999999999</ele>
        <time>2025-05-08T11:13:32Z</time>
      </trkpt>
      <trkpt lat="36.049895994365215" lon="-5.641763973981142">
        <ele>12.15</ele>
        <time>2025-05-08T11:13:43Z</time>
      </trkpt>
      <trkpt lat="36.047952985391021" lon="-5.638698041439056">
        <ele>8.789999999999999</ele>
        <time>2025-05-08T11:14:00Z</time>
      </trkpt>
      <trkpt lat="36.046493025496602" lon="-5.636419001966715">
        <ele>8.789999999999999</ele>
        <time>2025-05-08T11:14:13Z</time>
      </trkpt>
      <trkpt lat="36.045055026188493" lon="-5.634077014401555">
        <ele>9.75</ele>
        <time>2025-05-08T11:14:27Z</time>
      </trkpt>
      <trkpt lat="36.044193031266332" lon="-5.631912974640727">
        <ele>12.630000000000001</ele>
        <time>2025-05-08T11:14:38Z</time>
      </trkpt>
      <trkpt lat="36.043303962796926" lon="-5.62916798517108">
        <ele>9.75</ele>
        <time>2025-05-08T11:14:51Z</time>
      </trkpt>
      <trkpt lat="36.042388994246721" lon="-5.627318015322089">
        <ele>8.310000000000001</ele>
        <time>2025-05-08T11:15:01Z</time>
      </trkpt>
      <trkpt lat="36.040426958352327" lon="-5.623897025361657">
        <ele>8.789999999999999</ele>
        <time>2025-05-08T11:15:20Z</time>
      </trkpt>
      <trkpt lat="36.039282996207476" lon="-5.622229026630521">
        <ele>11.19</ele>
        <time>2025-05-08T11:15:30Z</time>
      </trkpt>
      <trkpt lat="36.037996038794518" lon="-5.621209032833576">
        <ele>12.15</ele>
        <time>2025-05-08T11:15:39Z</time>
      </trkpt>
      <trkpt lat="36.036688964813948" lon="-5.61992903240025">
        <ele>10.710000000000001</ele>
        <time>2025-05-08T11:15:49Z</time>
      </trkpt>
      <trkpt lat="36.035477025434375" lon="-5.618549035862088">
        <ele>12.630000000000001</ele>
        <time>2025-05-08T11:15:59Z</time>
      </trkpt>
      <trkpt lat="36.034079007804394" lon="-5.617002993822098">
        <ele>12.630000000000001</ele>
        <time>2025-05-08T11:16:11Z</time>
      </trkpt>
      <trkpt lat="36.03218000382185" lon="-5.614883964881301">
        <ele>13.119999999999999</ele>
        <time>2025-05-08T11:16:27Z</time>
      </trkpt>
      <trkpt lat="36.030323999002576" lon="-5.612793015316129">
        <ele>12.15</ele>
        <time>2025-05-08T11:16:43Z</time>
      </trkpt>
      <trkpt lat="36.029440965503454" lon="-5.611753994598985">
        <ele>11.19</ele>
        <time>2025-05-08T11:16:52Z</time>
      </trkpt>
      <trkpt lat="36.029277015477419" lon="-5.611824989318848">
        <ele>11.19</ele>
        <time>2025-05-08T11:16:53Z</time>
      </trkpt>
      <trkpt lat="36.029119016602635" lon="-5.611778972670436">
        <ele>11.19</ele>
        <time>2025-05-08T11:16:54Z</time>
      </trkpt>
      <trkpt lat="36.028998987749219" lon="-5.61174301430583">
        <ele>11.19</ele>
        <time>2025-05-08T11:16:55Z</time>
      </trkpt>
      <trkpt lat="36.028881976380944" lon="-5.611718036234379">
        <ele>11.19</ele>
        <time>2025-05-08T11:16:56Z</time>
      </trkpt>
      <trkpt lat="36.028533037751913" lon="-5.611732034012675">
        <ele>11.19</ele>
        <time>2025-05-08T11:16:59Z</time>
      </trkpt>
      <trkpt lat="36.027446994557977" lon="-5.611864970996976">
        <ele>11.19</ele>
        <time>2025-05-08T11:17:09Z</time>
      </trkpt>
      <trkpt lat="36.026607966050506" lon="-5.6117860134691">
        <ele>9.27</ele>
        <time>2025-05-08T11:17:18Z</time>
      </trkpt>
      <trkpt lat="36.02625198662281" lon="-5.611738990992308">
        <ele>7.35</ele>
        <time>2025-05-08T11:17:24Z</time>
      </trkpt>
      <trkpt lat="36.02625198662281" lon="-5.611738990992308">
        <ele>7.35</ele>
        <time>2025-05-08T11:17:25Z</time>
      </trkpt>
      <trkpt lat="36.026059035211802" lon="-5.611695991829038">
        <ele>6.87</ele>
        <time>2025-05-08T11:17:26Z</time>
      </trkpt>
      <trkpt lat="36.026039002463222" lon="-5.611694986000657">
        <ele>6.39</ele>
        <time>2025-05-08T11:17:27Z</time>
      </trkpt>
      <trkpt lat="36.02597395889461" lon="-5.611690040677786">
        <ele>6.39</ele>
        <time>2025-05-08T11:17:28Z</time>
      </trkpt>
      <trkpt lat="36.025904975831509" lon="-5.611685011535883">
        <ele>5.91</ele>
        <time>2025-05-08T11:17:29Z</time>
      </trkpt>
      <trkpt lat="36.025833981111646" lon="-5.611678976565599">
        <ele>5.91</ele>
        <time>2025-05-08T11:17:30Z</time>
      </trkpt>
      <trkpt lat="36.025760974735022" lon="-5.611673025414348">
        <ele>5.42</ele>
        <time>2025-05-08T11:17:31Z</time>
      </trkpt>
      <trkpt lat="36.02509100921452" lon="-5.611586021259427">
        <ele>5.42</ele>
        <time>2025-05-08T11:17:40Z</time>
      </trkpt>
      <trkpt lat="36.024228008463979" lon="-5.611546961590648">
        <ele>4.94</ele>
        <time>2025-05-08T11:17:51Z</time>
      </trkpt>
      <trkpt lat="36.023312034085393" lon="-5.611609993502498">
        <ele>4.46</ele>
        <time>2025-05-08T11:18:02Z</time>
      </trkpt>
      <trkpt lat="36.023245984688401" lon="-5.611609993502498">
        <ele>4.46</ele>
        <time>2025-05-08T11:18:03Z</time>
      </trkpt>
      <trkpt lat="36.023170966655016" lon="-5.611609993502498">
        <ele>4.46</ele>
        <time>2025-05-08T11:18:04Z</time>
      </trkpt>
      <trkpt lat="36.022608960047364" lon="-5.611573029309511">
        <ele>5.91</ele>
        <time>2025-05-08T11:18:11Z</time>
      </trkpt>
      <trkpt lat="36.021587960422039" lon="-5.611148988828063">
        <ele>15.039999999999999</ele>
        <time>2025-05-08T11:18:23Z</time>
      </trkpt>
      <trkpt lat="36.020891005173326" lon="-5.610420014709234">
        <ele>22.25</ele>
        <time>2025-05-08T11:18:34Z</time>
      </trkpt>
      <trkpt lat="36.019945023581386" lon="-5.609691962599754">
        <ele>24.170000000000002</ele>
        <time>2025-05-08T11:18:46Z</time>
      </trkpt>
      <trkpt lat="36.019243961200118" lon="-5.609174966812134">
        <ele>20.809999999999999</ele>
        <time>2025-05-08T11:18:57Z</time>
      </trkpt>
      <trkpt lat="36.019137008115649" lon="-5.6090990267694">
        <ele>19.84</ele>
        <time>2025-05-08T11:19:02Z</time>
      </trkpt>
      <trkpt lat="36.018912037834525" lon="-5.60893096961081">
        <ele>17.920000000000002</ele>
        <time>2025-05-08T11:19:09Z</time>
      </trkpt>
      <trkpt lat="36.01866602897644" lon="-5.608744975179434">
        <ele>16.960000000000001</ele>
        <time>2025-05-08T11:19:13Z</time>
      </trkpt>
      <trkpt lat="36.017816020175815" lon="-5.608040979132056">
        <ele>19.84</ele>
        <time>2025-05-08T11:19:27Z</time>
      </trkpt>
      <trkpt lat="36.017295001074672" lon="-5.607530018314719">
        <ele>23.690000000000001</ele>
        <time>2025-05-08T11:19:37Z</time>
      </trkpt>
      <trkpt lat="36.017258958891034" lon="-5.607496993616223">
        <ele>23.690000000000001</ele>
        <time>2025-05-08T11:19:38Z</time>
      </trkpt>
      <trkpt lat="36.017230963334441" lon="-5.607471009716392">
        <ele>24.170000000000002</ele>
        <time>2025-05-08T11:19:39Z</time>
      </trkpt>
      <trkpt lat="36.017211014404893" lon="-5.607451982796192">
        <ele>24.649999999999999</ele>
        <time>2025-05-08T11:19:40Z</time>
      </trkpt>
      <trkpt lat="36.017193999141455" lon="-5.607435973361135">
        <ele>24.649999999999999</ele>
        <time>2025-05-08T11:19:41Z</time>
      </trkpt>
      <trkpt lat="36.017173966392875" lon="-5.607418036088347">
        <ele>24.649999999999999</ele>
        <time>2025-05-08T11:19:42Z</time>
      </trkpt>
      <trkpt lat="36.016966011375189" lon="-5.607217038050294">
        <ele>26.09</ele>
        <time>2025-05-08T11:19:52Z</time>
      </trkpt>
      <trkpt lat="36.016966011375189" lon="-5.607217038050294">
        <ele>26.09</ele>
        <time>2025-05-08T11:20:09Z</time>
      </trkpt>
      <trkpt lat="36.016938015818596" lon="-5.607188958674669">
        <ele>27.050000000000001</ele>
        <time>2025-05-08T11:20:31Z</time>
      </trkpt>
      <trkpt lat="36.016627969220281" lon="-5.606896011158824">
        <ele>28.98</ele>
        <time>2025-05-08T11:20:38Z</time>
      </trkpt>
      <trkpt lat="36.016506012529135" lon="-5.606775982305408">
        <ele>28.02</ele>
        <time>2025-05-08T11:20:41Z</time>
      </trkpt>
      <trkpt lat="36.016435017809272" lon="-5.606701970100403">
        <ele>27.530000000000001</ele>
        <time>2025-05-08T11:20:43Z</time>
      </trkpt>
      <trkpt lat="36.016119020059705" lon="-5.606370968744159">
        <ele>27.050000000000001</ele>
        <time>2025-05-08T11:20:51Z</time>
      </trkpt>
      <trkpt lat="36.016084989532828" lon="-5.606336016207933">
        <ele>27.050000000000001</ele>
        <time>2025-05-08T11:20:52Z</time>
      </trkpt>
      <trkpt lat="36.016054982319474" lon="-5.606306008994579">
        <ele>27.050000000000001</ele>
        <time>2025-05-08T11:20:53Z</time>
      </trkpt>
      <trkpt lat="36.016031010076404" lon="-5.606282036751509">
        <ele>27.050000000000001</ele>
        <time>2025-05-08T11:20:54Z</time>
      </trkpt>
      <trkpt lat="36.016011983156204" lon="-5.606263009831309">
        <ele>26.57</ele>
        <time>2025-05-08T11:20:55Z</time>
      </trkpt>
      <trkpt lat="36.015995973721147" lon="-5.606247000396252">
        <ele>26.57</ele>
        <time>2025-05-08T11:20:56Z</time>
      </trkpt>
      <trkpt lat="36.01598197594285" lon="-5.606233002617955">
        <ele>26.57</ele>
        <time>2025-05-08T11:20:57Z</time>
      </trkpt>
      <trkpt lat="36.015970995649695" lon="-5.606222022324801">
        <ele>26.57</ele>
        <time>2025-05-08T11:20:58Z</time>
      </trkpt>
      <trkpt lat="36.015970995649695" lon="-5.606222022324801">
        <ele>26.57</ele>
        <time>2025-05-08T11:20:59Z</time>
      </trkpt>
      <trkpt lat="36.015948029235005" lon="-5.606198972091079">
        <ele>26.57</ele>
        <time>2025-05-08T11:21:00Z</time>
      </trkpt>
      <trkpt lat="36.015643011778593" lon="-5.605894038453698">
        <ele>27.050000000000001</ele>
        <time>2025-05-08T11:21:10Z</time>
      </trkpt>
      <trkpt lat="36.015605963766575" lon="-5.60585699044168">
        <ele>27.050000000000001</ele>
        <time>2025-05-08T11:21:11Z</time>
      </trkpt>
      <trkpt lat="36.015537986531854" lon="-5.605789013206959">
        <ele>27.530000000000001</ele>
        <time>2025-05-08T11:21:13Z</time>
      </trkpt>
      <trkpt lat="36.015501022338867" lon="-5.605751965194941">
        <ele>27.530000000000001</ele>
        <time>2025-05-08T11:21:14Z</time>
      </trkpt>
      <trkpt lat="36.01520799100399" lon="-5.605438984930515">
        <ele>28.02</ele>
        <time>2025-05-08T11:21:23Z</time>
      </trkpt>
      <trkpt lat="36.014672974124551" lon="-5.604902962222695">
        <ele>26.09</ele>
        <time>2025-05-08T11:21:37Z</time>
      </trkpt>
      <trkpt lat="36.014599967747927" lon="-5.604816963896155">
        <ele>26.09</ele>
        <time>2025-05-08T11:21:39Z</time>
      </trkpt>
      <trkpt lat="36.014310037717223" lon="-5.604574978351593">
        <ele>26.57</ele>
        <time>2025-05-08T11:21:45Z</time>
      </trkpt>
      <trkpt lat="36.014244994148612" lon="-5.604547988623381">
        <ele>26.57</ele>
        <time>2025-05-08T11:21:46Z</time>
      </trkpt>
      <trkpt lat="36.014225967228413" lon="-5.604577995836735">
        <ele>26.57</ele>
        <time>2025-05-08T11:21:47Z</time>
      </trkpt>
      <trkpt lat="36.014200989156961" lon="-5.604616971686482">
        <ele>27.050000000000001</ele>
        <time>2025-05-08T11:21:48Z</time>
      </trkpt>
      <trkpt lat="36.014170981943607" lon="-5.604662988334894">
        <ele>27.050000000000001</ele>
        <time>2025-05-08T11:21:49Z</time>
      </trkpt>
      <trkpt lat="36.014037961140275" lon="-5.604881001636386">
        <ele>27.530000000000001</ele>
        <time>2025-05-08T11:21:53Z</time>
      </trkpt>
      <trkpt lat="36.013677036389709" lon="-5.605520037934184">
        <ele>24.649999999999999</ele>
        <time>2025-05-08T11:22:05Z</time>
      </trkpt>
      <trkpt lat="36.013617021963" lon="-5.605622967705131">
        <ele>24.170000000000002</ele>
        <time>2025-05-08T11:22:07Z</time>
      </trkpt>
      <trkpt lat="36.013587014749646" lon="-5.605677030980587">
        <ele>24.170000000000002</ele>
        <time>2025-05-08T11:22:08Z</time>
      </trkpt>
      <trkpt lat="36.013559019193053" lon="-5.605732016265392">
        <ele>24.170000000000002</ele>
        <time>2025-05-08T11:22:09Z</time>
      </trkpt>
      <trkpt lat="36.013407977297902" lon="-5.606004009023309">
        <ele>24.170000000000002</ele>
        <time>2025-05-08T11:22:14Z</time>
      </trkpt>
      <trkpt lat="36.013376964256167" lon="-5.606052959337831">
        <ele>24.170000000000002</ele>
        <time>2025-05-08T11:22:15Z</time>
      </trkpt>
      <trkpt lat="36.013362966477871" lon="-5.606076009571552">
        <ele>23.690000000000001</ele>
        <time>2025-05-08T11:22:16Z</time>
      </trkpt>
      <trkpt lat="36.013347962871194" lon="-5.606101993471384">
        <ele>23.210000000000001</ele>
        <time>2025-05-08T11:22:17Z</time>
      </trkpt>
      <trkpt lat="36.013334970921278" lon="-5.606124037876725">
        <ele>23.210000000000001</ele>
        <time>2025-05-08T11:22:18Z</time>
      </trkpt>
      <trkpt lat="36.013320973142982" lon="-5.606145998463035">
        <ele>23.210000000000001</ele>
        <time>2025-05-08T11:22:19Z</time>
      </trkpt>
      <trkpt lat="36.013132967054844" lon="-5.606492003425956">
        <ele>21.77</ele>
        <time>2025-05-08T11:22:27Z</time>
      </trkpt>
      <trkpt lat="36.01310396566987" lon="-5.606545982882381">
        <ele>21.289999999999999</ele>
        <time>2025-05-08T11:22:28Z</time>
      </trkpt>
      <trkpt lat="36.013074964284897" lon="-5.606598034501076">
        <ele>20.809999999999999</ele>
        <time>2025-05-08T11:22:29Z</time>
      </trkpt>
      <trkpt lat="36.013046968728304" lon="-5.60665100812912">
        <ele>20.809999999999999</ele>
        <time>2025-05-08T11:22:30Z</time>
      </trkpt>
      <trkpt lat="36.013019979000092" lon="-5.606701970100403">
        <ele>20.809999999999999</ele>
        <time>2025-05-08T11:22:31Z</time>
      </trkpt>
      <trkpt lat="36.01299500092864" lon="-5.606754021719098">
        <ele>20.32</ele>
        <time>2025-05-08T11:22:32Z</time>
      </trkpt>
      <trkpt lat="36.012968011200428" lon="-5.606808001175523">
        <ele>20.809999999999999</ele>
        <time>2025-05-08T11:22:33Z</time>
      </trkpt>
      <trkpt lat="36.012789979577065" lon="-5.607141014188528">
        <ele>20.809999999999999</ele>
        <time>2025-05-08T11:22:39Z</time>
      </trkpt>
      <trkpt lat="36.012722002342343" lon="-5.60723103582859">
        <ele>20.32</ele>
        <time>2025-05-08T11:22:41Z</time>
      </trkpt>
      <trkpt lat="36.012623012065887" lon="-5.607399009168148">
        <ele>19.84</ele>
        <time>2025-05-08T11:22:44Z</time>
      </trkpt>
      <trkpt lat="36.012604990974069" lon="-5.60742599889636">
        <ele>19.84</ele>
        <time>2025-05-08T11:22:45Z</time>
      </trkpt>
      <trkpt lat="36.012539025396109" lon="-5.607459023594856">
        <ele>19.84</ele>
        <time>2025-05-08T11:22:46Z</time>
      </trkpt>
      <trkpt lat="36.012488985434175" lon="-5.607484001666307">
        <ele>18.879999999999999</ele>
        <time>2025-05-08T11:22:47Z</time>
      </trkpt>
      <trkpt lat="36.012441040948033" lon="-5.607507973909378">
        <ele>18.399999999999999</ele>
        <time>2025-05-08T11:22:48Z</time>
      </trkpt>
      <trkpt lat="36.012389995157719" lon="-5.607534041628242">
        <ele>17.920000000000002</ele>
        <time>2025-05-08T11:22:49Z</time>
      </trkpt>
      <trkpt lat="36.012352025136352" lon="-5.607521971687675">
        <ele>17.440000000000001</ele>
        <time>2025-05-08T11:22:50Z</time>
      </trkpt>
      <trkpt lat="36.012305002659559" lon="-5.607507973909378">
        <ele>16.960000000000001</ele>
        <time>2025-05-08T11:22:51Z</time>
      </trkpt>
      <trkpt lat="36.012123031541705" lon="-5.607452988624573">
        <ele>15.52</ele>
        <time>2025-05-08T11:22:55Z</time>
      </trkpt>
      <trkpt lat="36.01196302101016" lon="-5.6074049603194">
        <ele>13.6</ele>
        <time>2025-05-08T11:22:58Z</time>
      </trkpt>
      <trkpt lat="36.011664960533381" lon="-5.607313010841608">
        <ele>10.23</ele>
        <time>2025-05-08T11:23:04Z</time>
      </trkpt>
      <trkpt lat="36.011610981076956" lon="-5.60729599557817">
        <ele>9.75</ele>
        <time>2025-05-08T11:23:05Z</time>
      </trkpt>
      <trkpt lat="36.011034976691008" lon="-5.607106983661652">
        <ele>5.42</ele>
        <time>2025-05-08T11:23:18Z</time>
      </trkpt>
      <trkpt lat="36.010731970891356" lon="-5.607019979506731">
        <ele>3.5</ele>
        <time>2025-05-08T11:23:25Z</time>
      </trkpt>
      <trkpt lat="36.010697018355131" lon="-5.607010005041957">
        <ele>3.02</ele>
        <time>2025-05-08T11:23:26Z</time>
      </trkpt>
      <trkpt lat="36.010669022798538" lon="-5.607001958414912">
        <ele>3.02</ele>
        <time>2025-05-08T11:23:27Z</time>
      </trkpt>
      <trkpt lat="36.010643038898706" lon="-5.60699600726366">
        <ele>2.54</ele>
        <time>2025-05-08T11:23:28Z</time>
      </trkpt>
      <trkpt lat="36.010608002543449" lon="-5.606988966464996">
        <ele>2.54</ele>
        <time>2025-05-08T11:23:29Z</time>
      </trkpt>
      <trkpt lat="36.010562991723418" lon="-5.606981003656983">
        <ele>2.06</ele>
        <time>2025-05-08T11:23:30Z</time>
      </trkpt>
      <trkpt lat="36.010511023923755" lon="-5.60697203502059">
        <ele>1.58</ele>
        <time>2025-05-08T11:23:31Z</time>
      </trkpt>
      <trkpt lat="36.010362999513745" lon="-5.606945967301726">
        <ele>0.62</ele>
        <time>2025-05-08T11:23:34Z</time>
      </trkpt>
      <trkpt lat="36.010286975651979" lon="-5.606932975351811">
        <ele>0.14</ele>
        <time>2025-05-08T11:23:35Z</time>
      </trkpt>
      <trkpt lat="36.010220004245639" lon="-5.606887964531779">
        <ele>-0.34</ele>
        <time>2025-05-08T11:23:37Z</time>
      </trkpt>
      <trkpt lat="36.010094024240971" lon="-5.606803977862001">
        <ele>-0.34</ele>
        <time>2025-05-08T11:23:40Z</time>
      </trkpt>
      <trkpt lat="36.010074997320771" lon="-5.606758967041969">
        <ele>-0.34</ele>
        <time>2025-05-08T11:23:41Z</time>
      </trkpt>
      <trkpt lat="36.010055970400572" lon="-5.60671404004097">
        <ele>-0.34</ele>
        <time>2025-05-08T11:23:42Z</time>
      </trkpt>
      <trkpt lat="36.009881962090731" lon="-5.606317995116115">
        <ele>0.62</ele>
        <time>2025-05-08T11:23:53Z</time>
      </trkpt>
      <trkpt lat="36.009812979027629" lon="-5.606162007898092">
        <ele>0.62</ele>
        <time>2025-05-08T11:24:03Z</time>
      </trkpt>
      <trkpt lat="36.009756987914443" lon="-5.606141975149512">
        <ele>0.62</ele>
        <time>2025-05-08T11:24:06Z</time>
      </trkpt>
      <trkpt lat="36.009737960994244" lon="-5.606154967099428">
        <ele>0.62</ele>
        <time>2025-05-08T11:24:07Z</time>
      </trkpt>
      <trkpt lat="36.009708037599921" lon="-5.606173994019628">
        <ele>0.62</ele>
        <time>2025-05-08T11:24:08Z</time>
      </trkpt>
      <trkpt lat="36.009665960446" lon="-5.606202995404601">
        <ele>0.62</ele>
        <time>2025-05-08T11:24:09Z</time>
      </trkpt>
      <trkpt lat="36.009614998474717" lon="-5.606237025931478">
        <ele>0.62</ele>
        <time>2025-05-08T11:24:10Z</time>
      </trkpt>
      <trkpt lat="36.00938499905169" lon="-5.606388989835978">
        <ele>0.62</ele>
        <time>2025-05-08T11:24:14Z</time>
      </trkpt>
      <trkpt lat="36.008921982720494" lon="-5.606693001464009">
        <ele>0.14</ele>
        <time>2025-05-08T11:24:25Z</time>
      </trkpt>
      <trkpt lat="36.008880995213985" lon="-5.606719991192222">
        <ele>1.1</ele>
        <time>2025-05-08T11:24:36Z</time>
      </trkpt>
      <trkpt lat="36.008880995213985" lon="-5.606719991192222">
        <ele>1.58</ele>
        <time>2025-05-08T11:24:52Z</time>
      </trkpt>
      <trkpt lat="36.008880995213985" lon="-5.606719991192222">
        <ele>1.58</ele>
        <time>2025-05-08T11:25:09Z</time>
      </trkpt>
      <trkpt lat="36.008879989385605" lon="-5.606719991192222">
        <ele>2.06</ele>
        <time>2025-05-08T12:18:24Z</time>
      </trkpt>
      <trkpt lat="36.008861968293786" lon="-5.606746980920434">
        <ele>1.58</ele>
        <time>2025-05-08T12:18:49Z</time>
      </trkpt>
      <trkpt lat="36.008749986067414" lon="-5.60680297203362">
        <ele>0.62</ele>
        <time>2025-05-08T12:18:54Z</time>
      </trkpt>
      <trkpt lat="36.008707992732525" lon="-5.606830967590213">
        <ele>0.14</ele>
        <time>2025-05-08T12:18:55Z</time>
      </trkpt>
      <trkpt lat="36.008674968034029" lon="-5.606852006167173">
        <ele>-0.34</ele>
        <time>2025-05-08T12:18:56Z</time>
      </trkpt>
      <trkpt lat="36.008648984134197" lon="-5.606869021430612">
        <ele>-0.34</ele>
        <time>2025-05-08T12:18:57Z</time>
      </trkpt>
      <trkpt lat="36.008627023547888" lon="-5.606883019208908">
        <ele>-0.34</ele>
        <time>2025-05-08T12:18:58Z</time>
      </trkpt>
      <trkpt lat="36.008621994405985" lon="-5.607001036405563">
        <ele>-0.82</ele>
        <time>2025-05-08T12:18:59Z</time>
      </trkpt>
      <trkpt lat="36.008640015497804" lon="-5.60701796784997">
        <ele>-1.3</ele>
        <time>2025-05-08T12:19:00Z</time>
      </trkpt>
      <trkpt lat="36.008665999397635" lon="-5.607042023912072">
        <ele>-1.79</ele>
        <time>2025-05-08T12:19:01Z</time>
      </trkpt>
      <trkpt lat="36.00869600661099" lon="-5.607070019468665">
        <ele>-2.27</ele>
        <time>2025-05-08T12:19:02Z</time>
      </trkpt>
      <trkpt lat="36.008728025481105" lon="-5.607100026682019">
        <ele>-2.75</ele>
        <time>2025-05-08T12:19:03Z</time>
      </trkpt>
      <trkpt lat="36.00876297801733" lon="-5.607131961733103">
        <ele>-3.23</ele>
        <time>2025-05-08T12:19:04Z</time>
      </trkpt>
      <trkpt lat="36.009300006553531" lon="-5.607634959742427">
        <ele>-6.59</ele>
        <time>2025-05-08T12:19:18Z</time>
      </trkpt>
      <trkpt lat="36.009317021816969" lon="-5.607650969177485">
        <ele>-5.63</ele>
        <time>2025-05-08T12:19:29Z</time>
      </trkpt>
      <trkpt lat="36.009436966851354" lon="-5.607763035222888">
        <ele>-3.23</ele>
        <time>2025-05-08T12:19:45Z</time>
      </trkpt>
      <trkpt lat="36.009553978219628" lon="-5.607807962223887">
        <ele>-2.27</ele>
        <time>2025-05-08T12:19:54Z</time>
      </trkpt>
      <trkpt lat="36.009562024846673" lon="-5.60778901912272">
        <ele>-2.27</ele>
        <time>2025-05-08T12:19:55Z</time>
      </trkpt>
      <trkpt lat="36.009571999311447" lon="-5.607763035222888">
        <ele>-1.79</ele>
        <time>2025-05-08T12:19:56Z</time>
      </trkpt>
      <trkpt lat="36.009587002918124" lon="-5.607722969725728">
        <ele>-1.3</ele>
        <time>2025-05-08T12:19:57Z</time>
      </trkpt>
      <trkpt lat="36.009607035666704" lon="-5.607672007754445">
        <ele>-0.82</ele>
        <time>2025-05-08T12:19:58Z</time>
      </trkpt>
      <trkpt lat="36.009625978767872" lon="-5.60762096196413">
        <ele>-0.82</ele>
        <time>2025-05-08T12:19:59Z</time>
      </trkpt>
      <trkpt lat="36.009646011516452" lon="-5.607568994164467">
        <ele>-0.82</ele>
        <time>2025-05-08T12:20:00Z</time>
      </trkpt>
      <trkpt lat="36.009786995127797" lon="-5.60718996450305">
        <ele>-0.82</ele>
        <time>2025-05-08T12:20:06Z</time>
      </trkpt>
      <trkpt lat="36.010035015642643" lon="-5.606667017564178">
        <ele>-1.79</ele>
        <time>2025-05-08T12:20:16Z</time>
      </trkpt>
      <trkpt lat="36.010018000379205" lon="-5.606627035886049">
        <ele>-1.79</ele>
        <time>2025-05-08T12:20:17Z</time>
      </trkpt>
      <trkpt lat="36.009994028136134" lon="-5.606571966782212">
        <ele>-2.27</ele>
        <time>2025-05-08T12:20:18Z</time>
      </trkpt>
      <trkpt lat="36.009807027876377" lon="-5.606109034270048">
        <ele>-2.27</ele>
        <time>2025-05-08T12:20:26Z</time>
      </trkpt>
      <trkpt lat="36.009837035089731" lon="-5.606089001521468">
        <ele>-2.27</ele>
        <time>2025-05-08T12:20:27Z</time>
      </trkpt>
      <trkpt lat="36.009881962090731" lon="-5.606060000136495">
        <ele>-2.75</ele>
        <time>2025-05-08T12:20:28Z</time>
      </trkpt>
      <trkpt lat="36.009929990395904" lon="-5.606029992923141">
        <ele>-2.27</ele>
        <time>2025-05-08T12:20:29Z</time>
      </trkpt>
      <trkpt lat="36.009980030357838" lon="-5.605996968224645">
        <ele>-2.75</ele>
        <time>2025-05-08T12:20:30Z</time>
      </trkpt>
      <trkpt lat="36.010236013680696" lon="-5.605832012370229">
        <ele>-3.71</ele>
        <time>2025-05-08T12:20:35Z</time>
      </trkpt>
      <trkpt lat="36.010283036157489" lon="-5.605802005156875">
        <ele>-3.71</ele>
        <time>2025-05-08T12:20:36Z</time>
      </trkpt>
      <trkpt lat="36.010481016710401" lon="-5.605674013495445">
        <ele>-3.23</ele>
        <time>2025-05-08T12:20:40Z</time>
      </trkpt>
      <trkpt lat="36.010793996974826" lon="-5.605442002415657">
        <ele>-4.19</ele>
        <time>2025-05-08T12:20:49Z</time>
      </trkpt>
      <trkpt lat="36.010821992531419" lon="-5.605401014909148">
        <ele>-4.19</ele>
        <time>2025-05-08T12:20:50Z</time>
      </trkpt>
      <trkpt lat="36.010851999744773" lon="-5.605356004089117">
        <ele>-4.67</ele>
        <time>2025-05-08T12:20:51Z</time>
      </trkpt>
      <trkpt lat="36.010887958109379" lon="-5.605302024632692">
        <ele>-4.67</ele>
        <time>2025-05-08T12:20:52Z</time>
      </trkpt>
      <trkpt lat="36.010907990857959" lon="-5.605262964963913">
        <ele>-4.67</ele>
        <time>2025-05-08T12:20:53Z</time>
      </trkpt>
      <trkpt lat="36.01093296892941" lon="-5.60521200299263">
        <ele>-4.67</ele>
        <time>2025-05-08T12:20:54Z</time>
      </trkpt>
      <trkpt lat="36.01127402856946" lon="-5.604528961703181">
        <ele>-3.71</ele>
        <time>2025-05-08T12:21:06Z</time>
      </trkpt>
      <trkpt lat="36.011541998013854" lon="-5.60392102226615">
        <ele>-1.79</ele>
        <time>2025-05-08T12:21:18Z</time>
      </trkpt>
      <trkpt lat="36.011605029925704" lon="-5.603541992604733">
        <ele>1.1</ele>
        <time>2025-05-08T12:21:30Z</time>
      </trkpt>
      <trkpt lat="36.011668983846903" lon="-5.603430010378361">
        <ele>1.1</ele>
        <time>2025-05-08T12:21:33Z</time>
      </trkpt>
      <trkpt lat="36.011739978566766" lon="-5.603334037587047">
        <ele>1.58</ele>
        <time>2025-05-08T12:21:35Z</time>
      </trkpt>
      <trkpt lat="36.011774009093642" lon="-5.603288020938635">
        <ele>1.58</ele>
        <time>2025-05-08T12:21:36Z</time>
      </trkpt>
      <trkpt lat="36.011946005746722" lon="-5.603056009858847">
        <ele>1.58</ele>
        <time>2025-05-08T12:21:41Z</time>
      </trkpt>
      <trkpt lat="36.012123031541705" lon="-5.602808995172381">
        <ele>2.06</ele>
        <time>2025-05-08T12:21:46Z</time>
      </trkpt>
      <trkpt lat="36.012154966592789" lon="-5.60276297852397">
        <ele>2.54</ele>
        <time>2025-05-08T12:21:47Z</time>
      </trkpt>
      <trkpt lat="36.012277007102966" lon="-5.602584024891257">
        <ele>2.06</ele>
        <time>2025-05-08T12:21:56Z</time>
      </trkpt>
      <trkpt lat="36.012277007102966" lon="-5.602584024891257">
        <ele>2.54</ele>
        <time>2025-05-08T12:22:28Z</time>
      </trkpt>
      <trkpt lat="36.012277007102966" lon="-5.602584024891257">
        <ele>3.02</ele>
        <time>2025-05-08T12:23:04Z</time>
      </trkpt>
      <trkpt lat="36.012277007102966" lon="-5.602584024891257">
        <ele>3.02</ele>
        <time>2025-05-08T12:23:28Z</time>
      </trkpt>
      <trkpt lat="36.012089001014829" lon="-5.602508001029491">
        <ele>14.56</ele>
        <time>2025-05-08T12:50:01Z</time>
      </trkpt>
      <trkpt lat="36.012319000437856" lon="-5.602595005184412">
        <ele>5.91</ele>
        <time>2025-05-08T12:50:20Z</time>
      </trkpt>
      <trkpt lat="36.012283964082599" lon="-5.602615037932992">
        <ele>5.42</ele>
        <time>2025-05-08T12:50:38Z</time>
      </trkpt>
      <trkpt lat="36.012267032638192" lon="-5.602645967155695">
        <ele>9.27</ele>
        <time>2025-05-08T12:51:04Z</time>
      </trkpt>
      <trkpt lat="36.012235013768077" lon="-5.602683015167713">
        <ele>8.310000000000001</ele>
        <time>2025-05-08T12:51:20Z</time>
      </trkpt>
      <trkpt lat="36.012454032897949" lon="-5.602942015975714">
        <ele>7.35</ele>
        <time>2025-05-08T12:51:30Z</time>
      </trkpt>
      <trkpt lat="36.011668983846903" lon="-5.603394974023104">
        <ele>6.39</ele>
        <time>2025-05-08T12:51:43Z</time>
      </trkpt>
      <trkpt lat="36.01157502271235" lon="-5.603532018139958">
        <ele>5.42</ele>
        <time>2025-05-08T12:51:48Z</time>
      </trkpt>
      <trkpt lat="36.011578962206841" lon="-5.603603012859821">
        <ele>4.94</ele>
        <time>2025-05-08T12:51:56Z</time>
      </trkpt>
      <trkpt lat="36.011616010218859" lon="-5.603653974831104">
        <ele>4.46</ele>
        <time>2025-05-08T12:52:12Z</time>
      </trkpt>
      <trkpt lat="36.011616010218859" lon="-5.603653974831104">
        <ele>4.46</ele>
        <time>2025-05-08T12:52:22Z</time>
      </trkpt>
      <trkpt lat="36.011745007708669" lon="-5.603700997307897">
        <ele>2.06</ele>
        <time>2025-05-08T12:52:32Z</time>
      </trkpt>
      <trkpt lat="36.011825976893306" lon="-5.603581974282861">
        <ele>-0.82</ele>
        <time>2025-05-08T12:52:45Z</time>
      </trkpt>
      <trkpt lat="36.011818014085293" lon="-5.60355800203979">
        <ele>-1.3</ele>
        <time>2025-05-08T12:58:52Z</time>
      </trkpt>
      <trkpt lat="36.011896971613169" lon="-5.603541992604733">
        <ele>-5.63</ele>
        <time>2025-05-08T12:59:01Z</time>
      </trkpt>
      <trkpt lat="36.012176005169749" lon="-5.603584991768003">
        <ele>-6.11</ele>
        <time>2025-05-08T12:59:13Z</time>
      </trkpt>
      <trkpt lat="36.012180028483272" lon="-5.603574011474848">
        <ele>-6.59</ele>
        <time>2025-05-08T12:59:14Z</time>
      </trkpt>
      <trkpt lat="36.012193020433187" lon="-5.603539980947971">
        <ele>-7.55</ele>
        <time>2025-05-08T12:59:16Z</time>
      </trkpt>
      <trkpt lat="36.012326963245869" lon="-5.603199005126953">
        <ele>-10.44</ele>
        <time>2025-05-08T12:59:27Z</time>
      </trkpt>
      <trkpt lat="36.012326963245869" lon="-5.603199005126953">
        <ele>-6.11</ele>
        <time>2025-05-08T12:59:40Z</time>
      </trkpt>
      <trkpt lat="36.012326963245869" lon="-5.603199005126953">
        <ele>-2.75</ele>
        <time>2025-05-08T13:00:03Z</time>
      </trkpt>
      <trkpt lat="36.012326963245869" lon="-5.603199005126953">
        <ele>-1.3</ele>
        <time>2025-05-08T13:00:40Z</time>
      </trkpt>
      <trkpt lat="36.012326963245869" lon="-5.603199005126953">
        <ele>-1.3</ele>
        <time>2025-05-08T13:01:06Z</time>
      </trkpt>
      <trkpt lat="36.012326963245869" lon="-5.603199005126953">
        <ele>-1.3</ele>
        <time>2025-05-08T13:01:54Z</time>
      </trkpt>
      <trkpt lat="36.012398041784763" lon="-5.60304100625217">
        <ele>-0.82</ele>
        <time>2025-05-08T13:02:13Z</time>
      </trkpt>
      <trkpt lat="36.01241597905755" lon="-5.603007981553674">
        <ele>-1.3</ele>
        <time>2025-05-08T13:02:14Z</time>
      </trkpt>
      <trkpt lat="36.012454032897949" lon="-5.602942015975714">
        <ele>-2.27</ele>
        <time>2025-05-08T13:02:15Z</time>
      </trkpt>
      <trkpt lat="36.012469036504626" lon="-5.602936986833811">
        <ele>-2.75</ele>
        <time>2025-05-08T13:02:16Z</time>
      </trkpt>
      <trkpt lat="36.012529972940683" lon="-5.602922989055514">
        <ele>-2.75</ele>
        <time>2025-05-08T13:02:17Z</time>
      </trkpt>
      <trkpt lat="36.012561991810799" lon="-5.602932963520289">
        <ele>-3.23</ele>
        <time>2025-05-08T13:02:18Z</time>
      </trkpt>
      <trkpt lat="36.012593004852533" lon="-5.602942015975714">
        <ele>-3.71</ele>
        <time>2025-05-08T13:02:19Z</time>
      </trkpt>
      <trkpt lat="36.012622006237507" lon="-5.602950984612107">
        <ele>-4.19</ele>
        <time>2025-05-08T13:02:20Z</time>
      </trkpt>
      <trkpt lat="36.013064989820123" lon="-5.60293204151094">
        <ele>-5.15</ele>
        <time>2025-05-08T13:02:33Z</time>
      </trkpt>
      <trkpt lat="36.013213014230132" lon="-5.602640016004443">
        <ele>-11.880000000000001</ele>
        <time>2025-05-08T13:02:49Z</time>
      </trkpt>
      <trkpt lat="36.013298006728292" lon="-5.602422002702951">
        <ele>-13.32</ele>
        <time>2025-05-08T13:03:07Z</time>
      </trkpt>
      <trkpt lat="36.013384005054832" lon="-5.602241959422827">
        <ele>-13.800000000000001</ele>
        <time>2025-05-08T13:03:20Z</time>
      </trkpt>
      <trkpt lat="36.01344502530992" lon="-5.602169036865234">
        <ele>-13.800000000000001</ele>
        <time>2025-05-08T13:03:23Z</time>
      </trkpt>
      <trkpt lat="36.013468997552991" lon="-5.602169036865234">
        <ele>-14.279999999999999</ele>
        <time>2025-05-08T13:03:24Z</time>
      </trkpt>
      <trkpt lat="36.013504033908248" lon="-5.602169036865234">
        <ele>-13.800000000000001</ele>
        <time>2025-05-08T13:03:25Z</time>
      </trkpt>
      <trkpt lat="36.013505961745977" lon="-5.602169036865234">
        <ele>-13.800000000000001</ele>
        <time>2025-05-08T13:03:26Z</time>
      </trkpt>
      <trkpt lat="36.013522977009416" lon="-5.602145986631513">
        <ele>-14.279999999999999</ele>
        <time>2025-05-08T13:03:27Z</time>
      </trkpt>
      <trkpt lat="36.013535968959332" lon="-5.602128971368074">
        <ele>-14.76</ele>
        <time>2025-05-08T13:03:28Z</time>
      </trkpt>
      <trkpt lat="36.013551978394389" lon="-5.602108016610146">
        <ele>-15.24</ele>
        <time>2025-05-08T13:03:29Z</time>
      </trkpt>
      <trkpt lat="36.013569999486208" lon="-5.602083038538694">
        <ele>-15.720000000000001</ele>
        <time>2025-05-08T13:03:30Z</time>
      </trkpt>
      <trkpt lat="36.0137689858675" lon="-5.601584985852242">
        <ele>-20.050000000000001</ele>
        <time>2025-05-08T13:03:46Z</time>
      </trkpt>
      <trkpt lat="36.013868981972337" lon="-5.601362027227879">
        <ele>-20.050000000000001</ele>
        <time>2025-05-08T13:03:57Z</time>
      </trkpt>
      <trkpt lat="36.013879962265491" lon="-5.601338976994157">
        <ele>-19.57</ele>
        <time>2025-05-08T13:03:58Z</time>
      </trkpt>
      <trkpt lat="36.013955986127257" lon="-5.601332020014525">
        <ele>-19.57</ele>
        <time>2025-05-08T13:03:59Z</time>
      </trkpt>
      <trkpt lat="36.01396000944078" lon="-5.60132497921586">
        <ele>-19.09</ele>
        <time>2025-05-08T13:04:00Z</time>
      </trkpt>
      <trkpt lat="36.013970989733934" lon="-5.601298995316029">
        <ele>-19.09</ele>
        <time>2025-05-08T13:04:01Z</time>
      </trkpt>
      <trkpt lat="36.013955986127257" lon="-5.601332020014525">
        <ele>-18.609999999999999</ele>
        <time>2025-05-08T13:04:02Z</time>
      </trkpt>
      <trkpt lat="36.014072997495532" lon="-5.60123797506094">
        <ele>-17.170000000000002</ele>
        <time>2025-05-08T13:04:03Z</time>
      </trkpt>
      <trkpt lat="36.014086995273829" lon="-5.601253984495997">
        <ele>-15.720000000000001</ele>
        <time>2025-05-08T13:04:04Z</time>
      </trkpt>
      <trkpt lat="36.014100993052125" lon="-5.601268988102675">
        <ele>-14.76</ele>
        <time>2025-05-08T13:04:05Z</time>
      </trkpt>
      <trkpt lat="36.014100993052125" lon="-5.601268988102675">
        <ele>-13.32</ele>
        <time>2025-05-08T13:04:06Z</time>
      </trkpt>
      <trkpt lat="36.014211969450116" lon="-5.601391028612852">
        <ele>-11.4</ele>
        <time>2025-05-08T13:04:12Z</time>
      </trkpt>
      <trkpt lat="36.014306014403701" lon="-5.601552966982126">
        <ele>-9.48</ele>
        <time>2025-05-08T13:04:16Z</time>
      </trkpt>
      <trkpt lat="36.014321018010378" lon="-5.601590014994144">
        <ele>-9</ele>
        <time>2025-05-08T13:04:17Z</time>
      </trkpt>
      <trkpt lat="36.014353036880493" lon="-5.601642988622189">
        <ele>-8.029999999999999</ele>
        <time>2025-05-08T13:04:18Z</time>
      </trkpt>
      <trkpt lat="36.014495026320219" lon="-5.601894026622176">
        <ele>-4.67</ele>
        <time>2025-05-08T13:04:24Z</time>
      </trkpt>
      <trkpt lat="36.014627041295171" lon="-5.602112039923668">
        <ele>-2.27</ele>
        <time>2025-05-08T13:04:28Z</time>
      </trkpt>
      <trkpt lat="36.014665011316538" lon="-5.602170964702964">
        <ele>-1.3</ele>
        <time>2025-05-08T13:04:29Z</time>
      </trkpt>
      <trkpt lat="36.014968017116189" lon="-5.602626018226147">
        <ele>5.42</ele>
        <time>2025-05-08T13:04:37Z</time>
      </trkpt>
      <trkpt lat="36.015009004622698" lon="-5.602669017389417">
        <ele>6.39</ele>
        <time>2025-05-08T13:04:38Z</time>
      </trkpt>
      <trkpt lat="36.015130039304495" lon="-5.602798014879227">
        <ele>8.789999999999999</ele>
        <time>2025-05-08T13:04:41Z</time>
      </trkpt>
      <trkpt lat="36.015160968527198" lon="-5.602831039577723">
        <ele>9.27</ele>
        <time>2025-05-08T13:04:42Z</time>
      </trkpt>
      <trkpt lat="36.015203967690468" lon="-5.602875966578722">
        <ele>11.67</ele>
        <time>2025-05-08T13:04:45Z</time>
      </trkpt>
      <trkpt lat="36.015278985723853" lon="-5.602919971570373">
        <ele>12.630000000000001</ele>
        <time>2025-05-08T13:04:46Z</time>
      </trkpt>
      <trkpt lat="36.015325002372265" lon="-5.602844031527638">
        <ele>13.6</ele>
        <time>2025-05-08T13:04:48Z</time>
      </trkpt>
      <trkpt lat="36.015363978222013" lon="-5.602778987959027">
        <ele>14.56</ele>
        <time>2025-05-08T13:04:49Z</time>
      </trkpt>
      <trkpt lat="36.015779972076416" lon="-5.602141041308641">
        <ele>20.32</ele>
        <time>2025-05-08T13:04:57Z</time>
      </trkpt>
      <trkpt lat="36.015837974846363" lon="-5.602063005790114">
        <ele>21.289999999999999</ele>
        <time>2025-05-08T13:04:58Z</time>
      </trkpt>
      <trkpt lat="36.015910981222987" lon="-5.601985976099968">
        <ele>22.25</ele>
        <time>2025-05-08T13:04:59Z</time>
      </trkpt>
      <trkpt lat="36.015992034226656" lon="-5.601948006078601">
        <ele>22.73</ele>
        <time>2025-05-08T13:05:00Z</time>
      </trkpt>
      <trkpt lat="36.01606504060328" lon="-5.601913975551724">
        <ele>23.690000000000001</ele>
        <time>2025-05-08T13:05:01Z</time>
      </trkpt>
      <trkpt lat="36.01613100618124" lon="-5.60188296250999">
        <ele>24.649999999999999</ele>
        <time>2025-05-08T13:05:02Z</time>
      </trkpt>
      <trkpt lat="36.016197977587581" lon="-5.601851027458906">
        <ele>25.129999999999999</ele>
        <time>2025-05-08T13:05:03Z</time>
      </trkpt>
      <trkpt lat="36.016276013106108" lon="-5.601820014417172">
        <ele>25.609999999999999</ele>
        <time>2025-05-08T13:05:04Z</time>
      </trkpt>
      <trkpt lat="36.016424037516117" lon="-5.601782966405153">
        <ele>28.5</ele>
        <time>2025-05-08T13:05:09Z</time>
      </trkpt>
      <trkpt lat="36.016714973375201" lon="-5.601649023592472">
        <ele>32.340000000000003</ele>
        <time>2025-05-08T13:05:18Z</time>
      </trkpt>
      <trkpt lat="36.017008004710078" lon="-5.601491024717689">
        <ele>32.340000000000003</ele>
        <time>2025-05-08T13:05:22Z</time>
      </trkpt>
      <trkpt lat="36.017081011086702" lon="-5.601445008069277">
        <ele>31.379999999999999</ele>
        <time>2025-05-08T13:05:23Z</time>
      </trkpt>
      <trkpt lat="36.017641006037593" lon="-5.600956007838249">
        <ele>30.420000000000002</ele>
        <time>2025-05-08T13:05:32Z</time>
      </trkpt>
      <trkpt lat="36.017782995477319" lon="-5.600849976763129">
        <ele>30.899999999999999</ele>
        <time>2025-05-08T13:05:34Z</time>
      </trkpt>
      <trkpt lat="36.018084995448589" lon="-5.600651996210218">
        <ele>32.340000000000003</ele>
        <time>2025-05-08T13:05:38Z</time>
      </trkpt>
      <trkpt lat="36.018162025138736" lon="-5.60061402618885">
        <ele>32.82</ele>
        <time>2025-05-08T13:05:39Z</time>
      </trkpt>
      <trkpt lat="36.018835008144379" lon="-5.600276989862323">
        <ele>32.82</ele>
        <time>2025-05-08T13:05:48Z</time>
      </trkpt>
      <trkpt lat="36.018908014521003" lon="-5.600241031497717">
        <ele>32.82</ele>
        <time>2025-05-08T13:05:49Z</time>
      </trkpt>
      <trkpt lat="36.018981020897627" lon="-5.600203983485699">
        <ele>32.82</ele>
        <time>2025-05-08T13:05:50Z</time>
      </trkpt>
      <trkpt lat="36.019549984484911" lon="-5.599897960200906">
        <ele>31.379999999999999</ele>
        <time>2025-05-08T13:06:00Z</time>
      </trkpt>
      <trkpt lat="36.019663978368044" lon="-5.599840963259339">
        <ele>31.379999999999999</ele>
        <time>2025-05-08T13:06:02Z</time>
      </trkpt>
      <trkpt lat="36.01972097530961" lon="-5.599812967702746">
        <ele>30.899999999999999</ele>
        <time>2025-05-08T13:06:03Z</time>
      </trkpt>
      <trkpt lat="36.019878974184394" lon="-5.599696040153503">
        <ele>30.899999999999999</ele>
        <time>2025-05-08T13:06:06Z</time>
      </trkpt>
      <trkpt lat="36.01993496529758" lon="-5.599653962999582">
        <ele>31.379999999999999</ele>
        <time>2025-05-08T13:06:07Z</time>
      </trkpt>
      <trkpt lat="36.019986011087894" lon="-5.599529994651675">
        <ele>31.859999999999999</ele>
        <time>2025-05-08T13:06:08Z</time>
      </trkpt>
      <trkpt lat="36.019993973895907" lon="-5.599513985216618">
        <ele>31.859999999999999</ele>
        <time>2025-05-08T13:06:09Z</time>
      </trkpt>
      <trkpt lat="36.020135963335633" lon="-5.599486995488405">
        <ele>31.859999999999999</ele>
        <time>2025-05-08T13:06:10Z</time>
      </trkpt>
      <trkpt lat="36.020151972770691" lon="-5.599472997710109">
        <ele>31.859999999999999</ele>
        <time>2025-05-08T13:06:11Z</time>
      </trkpt>
      <trkpt lat="36.02021299302578" lon="-5.599421029910445">
        <ele>32.340000000000003</ele>
        <time>2025-05-08T13:06:12Z</time>
      </trkpt>
      <trkpt lat="36.02027996443212" lon="-5.599364032968879">
        <ele>32.82</ele>
        <time>2025-05-08T13:06:13Z</time>
      </trkpt>
      <trkpt lat="36.020357999950647" lon="-5.599297983571887">
        <ele>32.82</ele>
        <time>2025-05-08T13:06:14Z</time>
      </trkpt>
      <trkpt lat="36.021156962960958" lon="-5.598627012223005">
        <ele>35.710000000000001</ele>
        <time>2025-05-08T13:06:23Z</time>
      </trkpt>
      <trkpt lat="36.022058017551899" lon="-5.597725035622716">
        <ele>41.950000000000003</ele>
        <time>2025-05-08T13:06:35Z</time>
      </trkpt>
      <trkpt lat="36.023036018013954" lon="-5.596268009394407">
        <ele>53.490000000000002</ele>
        <time>2025-05-08T13:06:48Z</time>
      </trkpt>
      <trkpt lat="36.023616967722774" lon="-5.595066966488957">
        <ele>60.700000000000003</ele>
        <time>2025-05-08T13:06:56Z</time>
      </trkpt>
      <trkpt lat="36.024461025372148" lon="-5.592560023069382">
        <ele>61.659999999999997</ele>
        <time>2025-05-08T13:07:09Z</time>
      </trkpt>
      <trkpt lat="36.025600964203477" lon="-5.590095994994044">
        <ele>72.719999999999999</ele>
        <time>2025-05-08T13:07:22Z</time>
      </trkpt>
      <trkpt lat="36.026902003213763" lon="-5.58742200024426">
        <ele>91.939999999999998</ele>
        <time>2025-05-08T13:07:36Z</time>
      </trkpt>
      <trkpt lat="36.028254004195333" lon="-5.585502963513136">
        <ele>103.95999999999999</ele>
        <time>2025-05-08T13:07:47Z</time>
      </trkpt>
      <trkpt lat="36.029973970726132" lon="-5.58344797231257">
        <ele>117.42</ele>
        <time>2025-05-08T13:08:00Z</time>
      </trkpt>
      <trkpt lat="36.031164033338428" lon="-5.5816850066185">
        <ele>126.55</ele>
        <time>2025-05-08T13:08:10Z</time>
      </trkpt>
      <trkpt lat="36.031831987202168" lon="-5.580016002058983">
        <ele>135.68000000000001</ele>
        <time>2025-05-08T13:08:18Z</time>
      </trkpt>
      <trkpt lat="36.032453002408147" lon="-5.577487014234066">
        <ele>151.06</ele>
        <time>2025-05-08T13:08:29Z</time>
      </trkpt>
      <trkpt lat="36.032635979354382" lon="-5.576600963249803">
        <ele>155.87</ele>
        <time>2025-05-08T13:08:33Z</time>
      </trkpt>
      <trkpt lat="36.032707979902625" lon="-5.576398959383369">
        <ele>156.83000000000001</ele>
        <time>2025-05-08T13:08:34Z</time>
      </trkpt>
      <trkpt lat="36.032800013199449" lon="-5.576208019629121">
        <ele>157.78999999999999</ele>
        <time>2025-05-08T13:08:35Z</time>
      </trkpt>
      <trkpt lat="36.032909983769059" lon="-5.576037028804421">
        <ele>158.75</ele>
        <time>2025-05-08T13:08:36Z</time>
      </trkpt>
      <trkpt lat="36.033032024279237" lon="-5.575840976089239">
        <ele>159.72</ele>
        <time>2025-05-08T13:08:37Z</time>
      </trkpt>
      <trkpt lat="36.033149035647511" lon="-5.575703009963036">
        <ele>160.68000000000001</ele>
        <time>2025-05-08T13:08:38Z</time>
      </trkpt>
      <trkpt lat="36.033291025087237" lon="-5.575560014694929">
        <ele>161.63999999999999</ele>
        <time>2025-05-08T13:08:39Z</time>
      </trkpt>
      <trkpt lat="36.034143967553973" lon="-5.574430972337723">
        <ele>167.41</ele>
        <time>2025-05-08T13:08:46Z</time>
      </trkpt>
      <trkpt lat="36.034228960052133" lon="-5.574226034805179">
        <ele>168.37</ele>
        <time>2025-05-08T13:08:47Z</time>
      </trkpt>
      <trkpt lat="36.034775963053107" lon="-5.572777977213264">
        <ele>172.69</ele>
        <time>2025-05-08T13:08:55Z</time>
      </trkpt>
      <trkpt lat="36.034915018826723" lon="-5.572445970028639">
        <ele>173.16999999999999</ele>
        <time>2025-05-08T13:08:57Z</time>
      </trkpt>
      <trkpt lat="36.035007974132895" lon="-5.572294006124139">
        <ele>173.16999999999999</ele>
        <time>2025-05-08T13:08:58Z</time>
      </trkpt>
      <trkpt lat="36.035112999379635" lon="-5.572158973664045">
        <ele>173.16999999999999</ele>
        <time>2025-05-08T13:08:59Z</time>
      </trkpt>
      <trkpt lat="36.035243002697825" lon="-5.572055038064718">
        <ele>172.69</ele>
        <time>2025-05-08T13:09:00Z</time>
      </trkpt>
      <trkpt lat="36.03538197465241" lon="-5.571983037516475">
        <ele>172.69</ele>
        <time>2025-05-08T13:09:01Z</time>
      </trkpt>
      <trkpt lat="36.035533016547561" lon="-5.571926962584257">
        <ele>172.21000000000001</ele>
        <time>2025-05-08T13:09:02Z</time>
      </trkpt>
      <trkpt lat="36.035696966573596" lon="-5.571885975077748">
        <ele>171.72999999999999</ele>
        <time>2025-05-08T13:09:03Z</time>
      </trkpt>
      <trkpt lat="36.035864017903805" lon="-5.571843981742859">
        <ele>171.25</ele>
        <time>2025-05-08T13:09:04Z</time>
      </trkpt>
      <trkpt lat="36.036207005381584" lon="-5.571733005344868">
        <ele>169.81</ele>
        <time>2025-05-08T13:09:06Z</time>
      </trkpt>
      <trkpt lat="36.036372967064381" lon="-5.571639966219664">
        <ele>169.33000000000001</ele>
        <time>2025-05-08T13:09:07Z</time>
      </trkpt>
      <trkpt lat="36.036526020616293" lon="-5.57152496650815">
        <ele>168.84999999999999</ele>
        <time>2025-05-08T13:09:08Z</time>
      </trkpt>
      <trkpt lat="36.036672033369541" lon="-5.571404015645385">
        <ele>167.88999999999999</ele>
        <time>2025-05-08T13:09:09Z</time>
      </trkpt>
      <trkpt lat="36.036804970353842" lon="-5.571258002892137">
        <ele>167.41</ele>
        <time>2025-05-08T13:09:10Z</time>
      </trkpt>
      <trkpt lat="36.036938996985555" lon="-5.571111990138888">
        <ele>166.44999999999999</ele>
        <time>2025-05-08T13:09:11Z</time>
      </trkpt>
      <trkpt lat="36.038589980453253" lon="-5.569403003901243">
        <ele>159.24000000000001</ele>
        <time>2025-05-08T13:09:23Z</time>
      </trkpt>
      <trkpt lat="36.038769017904997" lon="-5.569329997524619">
        <ele>158.75</ele>
        <time>2025-05-08T13:09:24Z</time>
      </trkpt>
      <trkpt lat="36.038931962102652" lon="-5.569263026118279">
        <ele>158.75</ele>
        <time>2025-05-08T13:09:25Z</time>
      </trkpt>
      <trkpt lat="36.039092978462577" lon="-5.569206029176712">
        <ele>158.27000000000001</ele>
        <time>2025-05-08T13:09:26Z</time>
      </trkpt>
      <trkpt lat="36.039265980944037" lon="-5.569179961457849">
        <ele>157.78999999999999</ele>
        <time>2025-05-08T13:09:27Z</time>
      </trkpt>
      <trkpt lat="36.039440995082259" lon="-5.569152971729636">
        <ele>157.78999999999999</ele>
        <time>2025-05-08T13:09:28Z</time>
      </trkpt>
      <trkpt lat="36.040120013058186" lon="-5.569020034745336">
        <ele>156.34999999999999</ele>
        <time>2025-05-08T13:09:32Z</time>
      </trkpt>
      <trkpt lat="36.040273988619447" lon="-5.568933030590415">
        <ele>156.34999999999999</ele>
        <time>2025-05-08T13:09:33Z</time>
      </trkpt>
      <trkpt lat="36.040422013029456" lon="-5.568842003121972">
        <ele>155.87</ele>
        <time>2025-05-08T13:09:34Z</time>
      </trkpt>
      <trkpt lat="36.040556961670518" lon="-5.568719040602446">
        <ele>155.38999999999999</ele>
        <time>2025-05-08T13:09:35Z</time>
      </trkpt>
      <trkpt lat="36.040683025494218" lon="-5.568575039505959">
        <ele>155.38999999999999</ele>
        <time>2025-05-08T13:09:36Z</time>
      </trkpt>
      <trkpt lat="36.040910007432103" lon="-5.568243032321334">
        <ele>154.91</ele>
        <time>2025-05-08T13:09:38Z</time>
      </trkpt>
      <trkpt lat="36.041001034900546" lon="-5.568068018183112">
        <ele>155.38999999999999</ele>
        <time>2025-05-08T13:09:39Z</time>
      </trkpt>
      <trkpt lat="36.041058031842113" lon="-5.567873977124691">
        <ele>155.38999999999999</ele>
        <time>2025-05-08T13:09:40Z</time>
      </trkpt>
      <trkpt lat="36.041104970499873" lon="-5.56767700240016">
        <ele>155.87</ele>
        <time>2025-05-08T13:09:41Z</time>
      </trkpt>
      <trkpt lat="36.041122991591692" lon="-5.567457983270288">
        <ele>156.83000000000001</ele>
        <time>2025-05-08T13:09:42Z</time>
      </trkpt>
      <trkpt lat="36.041142018511891" lon="-5.567232007160783">
        <ele>157.31</ele>
        <time>2025-05-08T13:09:43Z</time>
      </trkpt>
      <trkpt lat="36.041123997420073" lon="-5.567004019394517">
        <ele>158.27000000000001</ele>
        <time>2025-05-08T13:09:44Z</time>
      </trkpt>
      <trkpt lat="36.041100025177002" lon="-5.566742001101375">
        <ele>159.24000000000001</ele>
        <time>2025-05-08T13:09:45Z</time>
      </trkpt>
      <trkpt lat="36.041039004921913" lon="-5.566547038033605">
        <ele>160.68000000000001</ele>
        <time>2025-05-08T13:09:46Z</time>
      </trkpt>
      <trkpt lat="36.040944959968328" lon="-5.566338999196887">
        <ele>161.63999999999999</ele>
        <time>2025-05-08T13:09:47Z</time>
      </trkpt>
      <trkpt lat="36.04081504046917" lon="-5.566175971180201">
        <ele>162.59999999999999</ele>
        <time>2025-05-08T13:09:48Z</time>
      </trkpt>
      <trkpt lat="36.040683025494218" lon="-5.566011015325785">
        <ele>163.56</ele>
        <time>2025-05-08T13:09:49Z</time>
      </trkpt>
      <trkpt lat="36.040551010519266" lon="-5.565846981480718">
        <ele>164.52000000000001</ele>
        <time>2025-05-08T13:09:50Z</time>
      </trkpt>
      <trkpt lat="36.040424024686217" lon="-5.565687976777554">
        <ele>166.44999999999999</ele>
        <time>2025-05-08T13:09:51Z</time>
      </trkpt>
      <trkpt lat="36.040328973904252" lon="-5.565506005659699">
        <ele>167.88999999999999</ele>
        <time>2025-05-08T13:09:52Z</time>
      </trkpt>
      <trkpt lat="36.040273988619447" lon="-5.565301990136504">
        <ele>168.84999999999999</ele>
        <time>2025-05-08T13:09:53Z</time>
      </trkpt>
      <trkpt lat="36.040230989456177" lon="-5.565095040947199">
        <ele>170.77000000000001</ele>
        <time>2025-05-08T13:09:54Z</time>
      </trkpt>
      <trkpt lat="36.040221014991403" lon="-5.56486101821065">
        <ele>172.21000000000001</ele>
        <time>2025-05-08T13:09:55Z</time>
      </trkpt>
      <trkpt lat="36.040234006941319" lon="-5.564601011574268">
        <ele>173.66</ele>
        <time>2025-05-08T13:09:56Z</time>
      </trkpt>
      <trkpt lat="36.040310030803084" lon="-5.564380986616015">
        <ele>175.09999999999999</ele>
        <time>2025-05-08T13:09:57Z</time>
      </trkpt>
      <trkpt lat="36.040386976674199" lon="-5.564156016334891">
        <ele>177.02000000000001</ele>
        <time>2025-05-08T13:09:58Z</time>
      </trkpt>
      <trkpt lat="36.040991982445121" lon="-5.562366982921958">
        <ele>188.08000000000001</ele>
        <time>2025-05-08T13:10:06Z</time>
      </trkpt>
      <trkpt lat="36.041155010461807" lon="-5.561719983816147">
        <ele>191.91999999999999</ele>
        <time>2025-05-08T13:10:09Z</time>
      </trkpt>
      <trkpt lat="36.041246959939599" lon="-5.561536001041532">
        <ele>193.36000000000001</ele>
        <time>2025-05-08T13:10:10Z</time>
      </trkpt>
      <trkpt lat="36.041351985186338" lon="-5.561367021873593">
        <ele>194.31999999999999</ele>
        <time>2025-05-08T13:10:11Z</time>
      </trkpt>
      <trkpt lat="36.041497997939587" lon="-5.561241041868925">
        <ele>195.77000000000001</ele>
        <time>2025-05-08T13:10:12Z</time>
      </trkpt>
      <trkpt lat="36.041636969894171" lon="-5.561121013015509">
        <ele>196.72999999999999</ele>
        <time>2025-05-08T13:10:13Z</time>
      </trkpt>
      <trkpt lat="36.041813995689154" lon="-5.561035014688969">
        <ele>198.16999999999999</ele>
        <time>2025-05-08T13:10:14Z</time>
      </trkpt>
      <trkpt lat="36.041989009827375" lon="-5.56095102801919">
        <ele>199.13</ele>
        <time>2025-05-08T13:10:15Z</time>
      </trkpt>
      <trkpt lat="36.043243026360869" lon="-5.56047803722322">
        <ele>206.81999999999999</ele>
        <time>2025-05-08T13:10:22Z</time>
      </trkpt>
      <trkpt lat="36.043427009135485" lon="-5.560483988374472">
        <ele>208.25999999999999</ele>
        <time>2025-05-08T13:10:23Z</time>
      </trkpt>
      <trkpt lat="36.0436109919101" lon="-5.560489017516375">
        <ele>209.22</ele>
        <time>2025-05-08T13:10:24Z</time>
      </trkpt>
      <trkpt lat="36.043787011876702" lon="-5.560493962839246">
        <ele>210.66999999999999</ele>
        <time>2025-05-08T13:10:25Z</time>
      </trkpt>
      <trkpt lat="36.043951967731118" lon="-5.560503015294671">
        <ele>212.11000000000001</ele>
        <time>2025-05-08T13:10:26Z</time>
      </trkpt>
      <trkpt lat="36.044962992891669" lon="-5.560606028884649">
        <ele>221.72</ele>
        <time>2025-05-08T13:10:34Z</time>
      </trkpt>
      <trkpt lat="36.045282008126378" lon="-5.560626983642578">
        <ele>224.12</ele>
        <time>2025-05-08T13:10:37Z</time>
      </trkpt>
      <trkpt lat="36.045378986746073" lon="-5.560588007792831">
        <ele>224.61000000000001</ele>
        <time>2025-05-08T13:10:38Z</time>
      </trkpt>
      <trkpt lat="36.045483006164432" lon="-5.560546014457941">
        <ele>225.09</ele>
        <time>2025-05-08T13:10:39Z</time>
      </trkpt>
      <trkpt lat="36.04558702558279" lon="-5.560503015294671">
        <ele>225.56999999999999</ele>
        <time>2025-05-08T13:10:40Z</time>
      </trkpt>
      <trkpt lat="36.045648967847228" lon="-5.560477031394839">
        <ele>226.05000000000001</ele>
        <time>2025-05-08T13:10:41Z</time>
      </trkpt>
      <trkpt lat="36.045757010579109" lon="-5.560355996713042">
        <ele>226.53</ele>
        <time>2025-05-08T13:10:42Z</time>
      </trkpt>
      <trkpt lat="36.045842003077269" lon="-5.560262035578489">
        <ele>226.53</ele>
        <time>2025-05-08T13:10:43Z</time>
      </trkpt>
      <trkpt lat="36.04593001306057" lon="-5.560163967311382">
        <ele>226.53</ele>
        <time>2025-05-08T13:10:44Z</time>
      </trkpt>
      <trkpt lat="36.046015005558729" lon="-5.560065982863307">
        <ele>226.05000000000001</ele>
        <time>2025-05-08T13:10:45Z</time>
      </trkpt>
      <trkpt lat="36.046066973358393" lon="-5.559928016737104">
        <ele>226.05000000000001</ele>
        <time>2025-05-08T13:10:46Z</time>
      </trkpt>
      <trkpt lat="36.046119024977088" lon="-5.559788960963488">
        <ele>226.05000000000001</ele>
        <time>2025-05-08T13:10:47Z</time>
      </trkpt>
      <trkpt lat="36.046149032190442" lon="-5.559656023979187">
        <ele>226.05000000000001</ele>
        <time>2025-05-08T13:10:48Z</time>
      </trkpt>
      <trkpt lat="36.046162024140358" lon="-5.559502970427275">
        <ele>226.53</ele>
        <time>2025-05-08T13:10:49Z</time>
      </trkpt>
      <trkpt lat="36.046176021918654" lon="-5.559346983209252">
        <ele>227.49000000000001</ele>
        <time>2025-05-08T13:10:50Z</time>
      </trkpt>
      <trkpt lat="36.046348018571734" lon="-5.55775098502636">
        <ele>237.09999999999999</ele>
        <time>2025-05-08T13:11:00Z</time>
      </trkpt>
      <trkpt lat="36.046389006078243" lon="-5.55759902112186">
        <ele>238.06</ele>
        <time>2025-05-08T13:11:01Z</time>
      </trkpt>
      <trkpt lat="36.046471986919641" lon="-5.557462982833386">
        <ele>239.02000000000001</ele>
        <time>2025-05-08T13:11:02Z</time>
      </trkpt>
      <trkpt lat="36.046565026044846" lon="-5.557339014485478">
        <ele>239.99000000000001</ele>
        <time>2025-05-08T13:11:03Z</time>
      </trkpt>
      <trkpt lat="36.046686982735991" lon="-5.5572550278157">
        <ele>240.94999999999999</ele>
        <time>2025-05-08T13:11:04Z</time>
      </trkpt>
      <trkpt lat="36.04681103490293" lon="-5.55719300173223">
        <ele>241.91</ele>
        <time>2025-05-08T13:11:05Z</time>
      </trkpt>
      <trkpt lat="36.04694196023047" lon="-5.55717196315527">
        <ele>242.87</ele>
        <time>2025-05-08T13:11:06Z</time>
      </trkpt>
      <trkpt lat="36.047074981033802" lon="-5.55717196315527">
        <ele>243.83000000000001</ele>
        <time>2025-05-08T13:11:07Z</time>
      </trkpt>
      <trkpt lat="36.047214036807418" lon="-5.55717196315527">
        <ele>244.78999999999999</ele>
        <time>2025-05-08T13:11:08Z</time>
      </trkpt>
      <trkpt lat="36.047352002933621" lon="-5.557151008397341">
        <ele>245.27000000000001</ele>
        <time>2025-05-08T13:11:09Z</time>
      </trkpt>
      <trkpt lat="36.04747898876667" lon="-5.557096023112536">
        <ele>246.22999999999999</ele>
        <time>2025-05-08T13:11:10Z</time>
      </trkpt>
      <trkpt lat="36.047604968771338" lon="-5.55704103782773">
        <ele>246.72</ele>
        <time>2025-05-08T13:11:11Z</time>
      </trkpt>
      <trkpt lat="36.047721980139613" lon="-5.556944981217384">
        <ele>247.68000000000001</ele>
        <time>2025-05-08T13:11:12Z</time>
      </trkpt>
      <trkpt lat="36.04784200899303" lon="-5.556844985112548">
        <ele>248.16</ele>
        <time>2025-05-08T13:11:13Z</time>
      </trkpt>
      <trkpt lat="36.04833503253758" lon="-5.55639898404479">
        <ele>251.52000000000001</ele>
        <time>2025-05-08T13:11:17Z</time>
      </trkpt>
      <trkpt lat="36.048427987843752" lon="-5.556236039847136">
        <ele>252.47999999999999</ele>
        <time>2025-05-08T13:11:18Z</time>
      </trkpt>
      <trkpt lat="36.048514991998672" lon="-5.556071000173688">
        <ele>253.44</ele>
        <time>2025-05-08T13:11:19Z</time>
      </trkpt>
      <trkpt lat="36.04876896366477" lon="-5.555595997720957">
        <ele>257.29000000000002</ele>
        <time>2025-05-08T13:11:22Z</time>
      </trkpt>
      <trkpt lat="36.048871977254748" lon="-5.555467000231147">
        <ele>258.73000000000002</ele>
        <time>2025-05-08T13:11:23Z</time>
      </trkpt>
      <trkpt lat="36.048997035250068" lon="-5.555370021611452">
        <ele>259.69</ele>
        <time>2025-05-08T13:11:24Z</time>
      </trkpt>
      <trkpt lat="36.049141036346555" lon="-5.555315036326647">
        <ele>260.64999999999998</ele>
        <time>2025-05-08T13:11:25Z</time>
      </trkpt>
      <trkpt lat="36.049288976937532" lon="-5.555254016071558">
        <ele>261.62</ele>
        <time>2025-05-08T13:11:26Z</time>
      </trkpt>
      <trkpt lat="36.049716034904122" lon="-5.555028961971402">
        <ele>264.01999999999998</ele>
        <time>2025-05-08T13:11:29Z</time>
      </trkpt>
      <trkpt lat="36.049833968281746" lon="-5.554941035807133">
        <ele>264.98000000000002</ele>
        <time>2025-05-08T13:11:30Z</time>
      </trkpt>
      <trkpt lat="36.049946034327149" lon="-5.554797034710646">
        <ele>265.94</ele>
        <time>2025-05-08T13:11:31Z</time>
      </trkpt>
      <trkpt lat="36.050051981583238" lon="-5.554660996422172">
        <ele>266.89999999999998</ele>
        <time>2025-05-08T13:11:32Z</time>
      </trkpt>
      <trkpt lat="36.050157006829977" lon="-5.554524958133698">
        <ele>267.86000000000001</ele>
        <time>2025-05-08T13:11:33Z</time>
      </trkpt>
      <trkpt lat="36.050387006253004" lon="-5.554293030872941">
        <ele>269.79000000000002</ele>
        <time>2025-05-08T13:11:35Z</time>
      </trkpt>
      <trkpt lat="36.050512986257672" lon="-5.554208960384131">
        <ele>270.75</ele>
        <time>2025-05-08T13:11:36Z</time>
      </trkpt>
      <trkpt lat="36.050651958212256" lon="-5.554147018119693">
        <ele>271.70999999999998</ele>
        <time>2025-05-08T13:11:37Z</time>
      </trkpt>
      <trkpt lat="36.050799982622266" lon="-5.554147018119693">
        <ele>272.67000000000002</ele>
        <time>2025-05-08T13:11:38Z</time>
      </trkpt>
      <trkpt lat="36.050950018689036" lon="-5.554147018119693">
        <ele>273.63</ele>
        <time>2025-05-08T13:11:39Z</time>
      </trkpt>
      <trkpt lat="36.051080022007227" lon="-5.554225975647569">
        <ele>274.58999999999997</ele>
        <time>2025-05-08T13:11:40Z</time>
      </trkpt>
      <trkpt lat="36.051212958991528" lon="-5.554307028651238">
        <ele>275.56</ele>
        <time>2025-05-08T13:11:41Z</time>
      </trkpt>
      <trkpt lat="36.051348997280002" lon="-5.554390009492636">
        <ele>276.51999999999998</ele>
        <time>2025-05-08T13:11:42Z</time>
      </trkpt>
      <trkpt lat="36.051491992548108" lon="-5.554458992555738">
        <ele>277</ele>
        <time>2025-05-08T13:11:43Z</time>
      </trkpt>
      <trkpt lat="36.051636999472976" lon="-5.554496040567756">
        <ele>277.95999999999998</ele>
        <time>2025-05-08T13:11:44Z</time>
      </trkpt>
      <trkpt lat="36.051782006397843" lon="-5.554501991719008">
        <ele>278.44</ele>
        <time>2025-05-08T13:11:45Z</time>
      </trkpt>
      <trkpt lat="36.05192600749433" lon="-5.554461004212499">
        <ele>279.39999999999998</ele>
        <time>2025-05-08T13:11:46Z</time>
      </trkpt>
      <trkpt lat="36.052062967792153" lon="-5.554385986179113">
        <ele>280.36000000000001</ele>
        <time>2025-05-08T13:11:47Z</time>
      </trkpt>
      <trkpt lat="36.052194982767105" lon="-5.554284984245896">
        <ele>281.31999999999999</ele>
        <time>2025-05-08T13:11:48Z</time>
      </trkpt>
      <trkpt lat="36.052320962771773" lon="-5.554181970655918">
        <ele>282.27999999999997</ele>
        <time>2025-05-08T13:11:49Z</time>
      </trkpt>
      <trkpt lat="36.052445014938712" lon="-5.554091027006507">
        <ele>283.25</ele>
        <time>2025-05-08T13:11:50Z</time>
      </trkpt>
      <trkpt lat="36.052573006600142" lon="-5.554018020629883">
        <ele>284.20999999999998</ele>
        <time>2025-05-08T13:11:51Z</time>
      </trkpt>
      <trkpt lat="36.052705021575093" lon="-5.553968986496329">
        <ele>285.17000000000002</ele>
        <time>2025-05-08T13:11:52Z</time>
      </trkpt>
      <trkpt lat="36.052837036550045" lon="-5.553919030353427">
        <ele>286.13</ele>
        <time>2025-05-08T13:11:53Z</time>
      </trkpt>
      <trkpt lat="36.053096037358046" lon="-5.553799001500011">
        <ele>287.56999999999999</ele>
        <time>2025-05-08T13:11:55Z</time>
      </trkpt>
      <trkpt lat="36.053213970735669" lon="-5.553713003173471">
        <ele>288.05000000000001</ele>
        <time>2025-05-08T13:11:56Z</time>
      </trkpt>
      <trkpt lat="36.053317990154028" lon="-5.553594985976815">
        <ele>289.00999999999999</ele>
        <time>2025-05-08T13:11:57Z</time>
      </trkpt>
      <trkpt lat="36.053416980430484" lon="-5.553438998758793">
        <ele>289.97000000000003</ele>
        <time>2025-05-08T13:11:58Z</time>
      </trkpt>
      <trkpt lat="36.053469032049179" lon="-5.553297009319067">
        <ele>290.94</ele>
        <time>2025-05-08T13:11:59Z</time>
      </trkpt>
      <trkpt lat="36.053588977083564" lon="-5.552967013791204">
        <ele>292.38</ele>
        <time>2025-05-08T13:12:01Z</time>
      </trkpt>
      <trkpt lat="36.053683022037148" lon="-5.552844973281026">
        <ele>293.33999999999997</ele>
        <time>2025-05-08T13:12:02Z</time>
      </trkpt>
      <trkpt lat="36.053979992866516" lon="-5.552441971376538">
        <ele>296.22000000000003</ele>
        <time>2025-05-08T13:12:05Z</time>
      </trkpt>
      <trkpt lat="36.054055010899901" lon="-5.55229302495718">
        <ele>296.22000000000003</ele>
        <time>2025-05-08T13:12:06Z</time>
      </trkpt>
      <trkpt lat="36.054086023941636" lon="-5.55212002247572">
        <ele>297.18000000000001</ele>
        <time>2025-05-08T13:12:07Z</time>
      </trkpt>
      <trkpt lat="36.054113013669848" lon="-5.551947019994259">
        <ele>297.67000000000002</ele>
        <time>2025-05-08T13:12:08Z</time>
      </trkpt>
      <trkpt lat="36.054136985912919" lon="-5.55177703499794">
        <ele>299.11000000000001</ele>
        <time>2025-05-08T13:12:09Z</time>
      </trkpt>
      <trkpt lat="36.05418099090457" lon="-5.550887966528535">
        <ele>303.91000000000003</ele>
        <time>2025-05-08T13:12:15Z</time>
      </trkpt>
      <trkpt lat="36.054187025874853" lon="-5.550756035372615">
        <ele>304.88</ele>
        <time>2025-05-08T13:12:16Z</time>
      </trkpt>
      <trkpt lat="36.05420102365315" lon="-5.550624020397663">
        <ele>305.83999999999997</ele>
        <time>2025-05-08T13:12:17Z</time>
      </trkpt>
      <trkpt lat="36.054222984239459" lon="-5.550490999594331">
        <ele>306.31999999999999</ele>
        <time>2025-05-08T13:12:18Z</time>
      </trkpt>
      <trkpt lat="36.054276963695884" lon="-5.550358984619379">
        <ele>306.80000000000001</ele>
        <time>2025-05-08T13:12:19Z</time>
      </trkpt>
      <trkpt lat="36.054345024749637" lon="-5.550242979079485">
        <ele>307.27999999999997</ele>
        <time>2025-05-08T13:12:20Z</time>
      </trkpt>
      <trkpt lat="36.054414007812738" lon="-5.550126973539591">
        <ele>307.75999999999999</ele>
        <time>2025-05-08T13:12:21Z</time>
      </trkpt>
      <trkpt lat="36.054489025846124" lon="-5.550012979656458">
        <ele>307.75999999999999</ele>
        <time>2025-05-08T13:12:22Z</time>
      </trkpt>
      <trkpt lat="36.054565971717238" lon="-5.549906026571989">
        <ele>307.75999999999999</ele>
        <time>2025-05-08T13:12:23Z</time>
      </trkpt>
      <trkpt lat="36.055283965542912" lon="-5.549253998324275">
        <ele>308.24000000000001</ele>
        <time>2025-05-08T13:12:31Z</time>
      </trkpt>
      <trkpt lat="36.055602980777621" lon="-5.548849990591407">
        <ele>308.72000000000003</ele>
        <time>2025-05-08T13:12:39Z</time>
      </trkpt>
      <trkpt lat="36.055609015747905" lon="-5.548843033611774">
        <ele>309.19999999999999</ele>
        <time>2025-05-08T13:12:40Z</time>
      </trkpt>
      <trkpt lat="36.055613039061427" lon="-5.548838004469872">
        <ele>309.68000000000001</ele>
        <time>2025-05-08T13:12:43Z</time>
      </trkpt>
      <trkpt lat="36.055581020191312" lon="-5.548877986148">
        <ele>310.16000000000003</ele>
        <time>2025-05-08T13:12:44Z</time>
      </trkpt>
      <trkpt lat="36.055526034906507" lon="-5.548946969211102">
        <ele>310.16000000000003</ele>
        <time>2025-05-08T13:12:45Z</time>
      </trkpt>
      <trkpt lat="36.055452022701502" lon="-5.549040008336306">
        <ele>310.16000000000003</ele>
        <time>2025-05-08T13:12:46Z</time>
      </trkpt>
      <trkpt lat="36.055242978036404" lon="-5.549290040507913">
        <ele>309.68000000000001</ele>
        <time>2025-05-08T13:12:48Z</time>
      </trkpt>
      <trkpt lat="36.054793037474155" lon="-5.549681978300214">
        <ele>308.24000000000001</ele>
        <time>2025-05-08T13:12:51Z</time>
      </trkpt>
      <trkpt lat="36.054663034155965" lon="-5.549795972183347">
        <ele>307.75999999999999</ele>
        <time>2025-05-08T13:12:52Z</time>
      </trkpt>
      <trkpt lat="36.054324992001057" lon="-5.550278015434742">
        <ele>306.31999999999999</ele>
        <time>2025-05-08T13:12:57Z</time>
      </trkpt>
      <trkpt lat="36.054249973967671" lon="-5.550405001267791">
        <ele>304.88</ele>
        <time>2025-05-08T13:13:04Z</time>
      </trkpt>
      <trkpt lat="36.054232958704233" lon="-5.550435008481145">
        <ele>304.88</ele>
        <time>2025-05-08T13:13:10Z</time>
      </trkpt>
      <trkpt lat="36.054232958704233" lon="-5.550435008481145">
        <ele>304.38999999999999</ele>
        <time>2025-05-08T13:13:11Z</time>
      </trkpt>
      <trkpt lat="36.054232958704233" lon="-5.550435008481145">
        <ele>304.38999999999999</ele>
        <time>2025-05-08T13:13:12Z</time>
      </trkpt>
      <trkpt lat="36.054232958704233" lon="-5.550435008481145">
        <ele>304.38999999999999</ele>
        <time>2025-05-08T13:13:13Z</time>
      </trkpt>
      <trkpt lat="36.054232958704233" lon="-5.550435008481145">
        <ele>304.38999999999999</ele>
        <time>2025-05-08T13:13:14Z</time>
      </trkpt>
      <trkpt lat="36.054232958704233" lon="-5.550435008481145">
        <ele>304.38999999999999</ele>
        <time>2025-05-08T13:13:15Z</time>
      </trkpt>
      <trkpt lat="36.05387999676168" lon="-5.550579009577632">
        <ele>303.43000000000001</ele>
        <time>2025-05-08T13:13:27Z</time>
      </trkpt>
      <trkpt lat="36.053957026451826" lon="-5.550583032891154">
        <ele>303.91000000000003</ele>
        <time>2025-05-08T13:15:25Z</time>
      </trkpt>
      <trkpt lat="36.053906986489892" lon="-5.550572974607348">
        <ele>306.31999999999999</ele>
        <time>2025-05-08T13:15:55Z</time>
      </trkpt>
      <trkpt lat="36.05390296317637" lon="-5.550508014857769">
        <ele>307.75999999999999</ele>
        <time>2025-05-08T13:16:42Z</time>
      </trkpt>
      <trkpt lat="36.05390296317637" lon="-5.550518995150924">
        <ele>304.88</ele>
        <time>2025-05-08T13:16:51Z</time>
      </trkpt>
      <trkpt lat="36.054232958704233" lon="-5.550435008481145">
        <ele>304.88</ele>
        <time>2025-05-08T13:16:55Z</time>
      </trkpt>
      <trkpt lat="36.054232958704233" lon="-5.550435008481145">
        <ele>304.88</ele>
        <time>2025-05-08T13:16:56Z</time>
      </trkpt>
      <trkpt lat="36.054232958704233" lon="-5.550435008481145">
        <ele>304.88</ele>
        <time>2025-05-08T13:16:57Z</time>
      </trkpt>
      <trkpt lat="36.054252991452813" lon="-5.550398966297507">
        <ele>304.88</ele>
        <time>2025-05-08T13:16:58Z</time>
      </trkpt>
      <trkpt lat="36.054272018373013" lon="-5.550367031246424">
        <ele>303.91000000000003</ele>
        <time>2025-05-08T13:16:59Z</time>
      </trkpt>
      <trkpt lat="36.054272018373013" lon="-5.550367031246424">
        <ele>303.91000000000003</ele>
        <time>2025-05-08T13:17:00Z</time>
      </trkpt>
      <trkpt lat="36.054272018373013" lon="-5.550367031246424">
        <ele>300.06999999999999</ele>
        <time>2025-05-08T13:17:11Z</time>
      </trkpt>
      <trkpt lat="36.054317029193044" lon="-5.550291007384658">
        <ele>299.11000000000001</ele>
        <time>2025-05-08T13:17:22Z</time>
      </trkpt>
      <trkpt lat="36.054356005042791" lon="-5.550225041806698">
        <ele>299.11000000000001</ele>
        <time>2025-05-08T13:17:23Z</time>
      </trkpt>
      <trkpt lat="36.054862020537257" lon="-5.549621963873506">
        <ele>299.58999999999997</ele>
        <time>2025-05-08T13:17:30Z</time>
      </trkpt>
      <trkpt lat="36.055228980258107" lon="-5.549302026629448">
        <ele>300.55000000000001</ele>
        <time>2025-05-08T13:17:34Z</time>
      </trkpt>
      <trkpt lat="36.055314978584647" lon="-5.549215022474527">
        <ele>300.55000000000001</ele>
        <time>2025-05-08T13:17:35Z</time>
      </trkpt>
      <trkpt lat="36.055394019931555" lon="-5.54911402054131">
        <ele>300.55000000000001</ele>
        <time>2025-05-08T13:17:36Z</time>
      </trkpt>
      <trkpt lat="36.056380989030004" lon="-5.548102995380759">
        <ele>303.43000000000001</ele>
        <time>2025-05-08T13:17:47Z</time>
      </trkpt>
      <trkpt lat="36.057032011449337" lon="-5.547711979597807">
        <ele>305.83999999999997</ele>
        <time>2025-05-08T13:17:53Z</time>
      </trkpt>
      <trkpt lat="36.057114992290735" lon="-5.547604020684958">
        <ele>306.31999999999999</ele>
        <time>2025-05-08T13:17:54Z</time>
      </trkpt>
      <trkpt lat="36.057199984788895" lon="-5.547492960467935">
        <ele>306.31999999999999</ele>
        <time>2025-05-08T13:17:55Z</time>
      </trkpt>
      <trkpt lat="36.057272991165519" lon="-5.547366980463266">
        <ele>306.80000000000001</ele>
        <time>2025-05-08T13:17:56Z</time>
      </trkpt>
      <trkpt lat="36.057343985885382" lon="-5.547236977145076">
        <ele>307.27999999999997</ele>
        <time>2025-05-08T13:17:57Z</time>
      </trkpt>
      <trkpt lat="36.057384973391891" lon="-5.547074032947421">
        <ele>307.75999999999999</ele>
        <time>2025-05-08T13:17:58Z</time>
      </trkpt>
      <trkpt lat="36.05742503888905" lon="-5.546911004930735">
        <ele>308.24000000000001</ele>
        <time>2025-05-08T13:17:59Z</time>
      </trkpt>
      <trkpt lat="36.057930970564485" lon="-5.545212998986244">
        <ele>312.08999999999997</ele>
        <time>2025-05-08T13:18:08Z</time>
      </trkpt>
      <trkpt lat="36.058125011622906" lon="-5.544601958245039">
        <ele>313.05000000000001</ele>
        <time>2025-05-08T13:18:11Z</time>
      </trkpt>
      <trkpt lat="36.058149989694357" lon="-5.544384028762579">
        <ele>313.52999999999997</ele>
        <time>2025-05-08T13:18:12Z</time>
      </trkpt>
      <trkpt lat="36.058143032714725" lon="-5.544186970219016">
        <ele>313.52999999999997</ele>
        <time>2025-05-08T13:18:13Z</time>
      </trkpt>
      <trkpt lat="36.058115037158132" lon="-5.543985972180963">
        <ele>313.52999999999997</ele>
        <time>2025-05-08T13:18:14Z</time>
      </trkpt>
      <trkpt lat="36.058088969439268" lon="-5.543781034648418">
        <ele>314.00999999999999</ele>
        <time>2025-05-08T13:18:15Z</time>
      </trkpt>
      <trkpt lat="36.058058962225914" lon="-5.543194971978664">
        <ele>315.44999999999999</ele>
        <time>2025-05-08T13:18:18Z</time>
      </trkpt>
      <trkpt lat="36.058052005246282" lon="-5.54298902861774">
        <ele>316.41000000000003</ele>
        <time>2025-05-08T13:18:19Z</time>
      </trkpt>
      <trkpt lat="36.058105984702706" lon="-5.542815020307899">
        <ele>316.41000000000003</ele>
        <time>2025-05-08T13:18:20Z</time>
      </trkpt>
      <trkpt lat="36.058163987472653" lon="-5.542633971199393">
        <ele>316.88999999999999</ele>
        <time>2025-05-08T13:18:21Z</time>
      </trkpt>
      <trkpt lat="36.058236993849277" lon="-5.542455017566681">
        <ele>316.88999999999999</ele>
        <time>2025-05-08T13:18:22Z</time>
      </trkpt>
      <trkpt lat="36.058312011882663" lon="-5.542270028963685">
        <ele>316.88999999999999</ele>
        <time>2025-05-08T13:18:23Z</time>
      </trkpt>
      <trkpt lat="36.059194039553404" lon="-5.540166003629565">
        <ele>309.68000000000001</ele>
        <time>2025-05-08T13:18:33Z</time>
      </trkpt>
      <trkpt lat="36.059581032022834" lon="-5.539400987327099">
        <ele>308.24000000000001</ele>
        <time>2025-05-08T13:18:37Z</time>
      </trkpt>
      <trkpt lat="36.059683039784431" lon="-5.539234019815922">
        <ele>308.24000000000001</ele>
        <time>2025-05-08T13:18:38Z</time>
      </trkpt>
      <trkpt lat="36.059827962890267" lon="-5.539108961820602">
        <ele>307.75999999999999</ele>
        <time>2025-05-08T13:18:39Z</time>
      </trkpt>
      <trkpt lat="36.059971963986754" lon="-5.538983987644315">
        <ele>307.75999999999999</ele>
        <time>2025-05-08T13:18:40Z</time>
      </trkpt>
      <trkpt lat="36.060119988396764" lon="-5.538857001811266">
        <ele>306.80000000000001</ele>
        <time>2025-05-08T13:18:41Z</time>
      </trkpt>
      <trkpt lat="36.060269018635154" lon="-5.538729010149837">
        <ele>306.80000000000001</ele>
        <time>2025-05-08T13:18:42Z</time>
      </trkpt>
      <trkpt lat="36.060572024434805" lon="-5.538471015170217">
        <ele>305.36000000000001</ele>
        <time>2025-05-08T13:18:44Z</time>
      </trkpt>
      <trkpt lat="36.06071300804615" lon="-5.538314022123814">
        <ele>304.38999999999999</ele>
        <time>2025-05-08T13:18:45Z</time>
      </trkpt>
      <trkpt lat="36.060856003314257" lon="-5.538168009370565">
        <ele>303.43000000000001</ele>
        <time>2025-05-08T13:18:46Z</time>
      </trkpt>
      <trkpt lat="36.061003021895885" lon="-5.538020990788937">
        <ele>302.47000000000003</ele>
        <time>2025-05-08T13:18:47Z</time>
      </trkpt>
      <trkpt lat="36.061148028820753" lon="-5.537875983864069">
        <ele>301.50999999999999</ele>
        <time>2025-05-08T13:18:48Z</time>
      </trkpt>
      <trkpt lat="36.061299992725253" lon="-5.537775987759233">
        <ele>300.06999999999999</ele>
        <time>2025-05-08T13:18:49Z</time>
      </trkpt>
      <trkpt lat="36.06146696023643" lon="-5.537701975554228">
        <ele>299.11000000000001</ele>
        <time>2025-05-08T13:18:50Z</time>
      </trkpt>
      <trkpt lat="36.061630994081497" lon="-5.537628969177604">
        <ele>298.14999999999998</ele>
        <time>2025-05-08T13:18:51Z</time>
      </trkpt>
      <trkpt lat="36.061952020972967" lon="-5.537485973909497">
        <ele>295.74000000000001</ele>
        <time>2025-05-08T13:18:53Z</time>
      </trkpt>
      <trkpt lat="36.062097027897835" lon="-5.537367034703493">
        <ele>294.77999999999997</ele>
        <time>2025-05-08T13:18:54Z</time>
      </trkpt>
      <trkpt lat="36.062232982367277" lon="-5.537226973101497">
        <ele>293.81999999999999</ele>
        <time>2025-05-08T13:18:55Z</time>
      </trkpt>
      <trkpt lat="36.062337001785636" lon="-5.537042990326881">
        <ele>292.38</ele>
        <time>2025-05-08T13:18:56Z</time>
      </trkpt>
      <trkpt lat="36.062442027032375" lon="-5.536858001723886">
        <ele>290.94</ele>
        <time>2025-05-08T13:18:57Z</time>
      </trkpt>
      <trkpt lat="36.062550991773605" lon="-5.536666978150606">
        <ele>289.97000000000003</ele>
        <time>2025-05-08T13:18:58Z</time>
      </trkpt>
      <trkpt lat="36.063042003661394" lon="-5.535636004060507">
        <ele>285.17000000000002</ele>
        <time>2025-05-08T13:19:03Z</time>
      </trkpt>
      <trkpt lat="36.063146023079753" lon="-5.53542603738606">
        <ele>284.20999999999998</ele>
        <time>2025-05-08T13:19:04Z</time>
      </trkpt>
      <trkpt lat="36.063896035775542" lon="-5.534323984757066">
        <ele>278.92000000000002</ele>
        <time>2025-05-08T13:19:10Z</time>
      </trkpt>
      <trkpt lat="36.063971975818276" lon="-5.534111000597477">
        <ele>277.95999999999998</ele>
        <time>2025-05-08T13:19:11Z</time>
      </trkpt>
      <trkpt lat="36.064173979684711" lon="-5.533468024805188">
        <ele>275.06999999999999</ele>
        <time>2025-05-08T13:19:14Z</time>
      </trkpt>
      <trkpt lat="36.064275987446308" lon="-5.533294016495347">
        <ele>274.11000000000001</ele>
        <time>2025-05-08T13:19:15Z</time>
      </trkpt>
      <trkpt lat="36.064389981329441" lon="-5.533131994307041">
        <ele>273.14999999999998</ele>
        <time>2025-05-08T13:19:16Z</time>
      </trkpt>
      <trkpt lat="36.064501963555813" lon="-5.532982964068651">
        <ele>272.19</ele>
        <time>2025-05-08T13:19:17Z</time>
      </trkpt>
      <trkpt lat="36.064657028764486" lon="-5.532898977398872">
        <ele>271.70999999999998</ele>
        <time>2025-05-08T13:19:18Z</time>
      </trkpt>
      <trkpt lat="36.06481502763927" lon="-5.532823037356138">
        <ele>270.75</ele>
        <time>2025-05-08T13:19:19Z</time>
      </trkpt>
      <trkpt lat="36.064984006807208" lon="-5.532764028757811">
        <ele>269.79000000000002</ele>
        <time>2025-05-08T13:19:20Z</time>
      </trkpt>
      <trkpt lat="36.065154997631907" lon="-5.532704014331102">
        <ele>268.82999999999998</ele>
        <time>2025-05-08T13:19:21Z</time>
      </trkpt>
      <trkpt lat="36.065333029255271" lon="-5.532665038481355">
        <ele>267.38</ele>
        <time>2025-05-08T13:19:22Z</time>
      </trkpt>
      <trkpt lat="36.065501002594829" lon="-5.532592032104731">
        <ele>266.42000000000002</ele>
        <time>2025-05-08T13:19:23Z</time>
      </trkpt>
      <trkpt lat="36.065637040883303" lon="-5.532493963837624">
        <ele>264.98000000000002</ele>
        <time>2025-05-08T13:19:24Z</time>
      </trkpt>
      <trkpt lat="36.065766960382462" lon="-5.532402014359832">
        <ele>264.01999999999998</ele>
        <time>2025-05-08T13:19:25Z</time>
      </trkpt>
      <trkpt lat="36.065906016156077" lon="-5.532303024083376">
        <ele>263.06</ele>
        <time>2025-05-08T13:19:26Z</time>
      </trkpt>
      <trkpt lat="36.066005006432533" lon="-5.532211996614933">
        <ele>262.10000000000002</ele>
        <time>2025-05-08T13:19:27Z</time>
      </trkpt>
      <trkpt lat="36.06737301684916" lon="-5.53102201782167">
        <ele>255.84999999999999</ele>
        <time>2025-05-08T13:19:40Z</time>
      </trkpt>
      <trkpt lat="36.067944997921586" lon="-5.530715994536877">
        <ele>255.37</ele>
        <time>2025-05-08T13:19:45Z</time>
      </trkpt>
      <trkpt lat="36.068071983754635" lon="-5.53067802451551">
        <ele>255.37</ele>
        <time>2025-05-08T13:19:46Z</time>
      </trkpt>
      <trkpt lat="36.068874970078468" lon="-5.530461017042399">
        <ele>255.37</ele>
        <time>2025-05-08T13:19:52Z</time>
      </trkpt>
      <trkpt lat="36.068994998931885" lon="-5.530415000393987">
        <ele>255.84999999999999</ele>
        <time>2025-05-08T13:19:53Z</time>
      </trkpt>
      <trkpt lat="36.069126008078456" lon="-5.530295977368951">
        <ele>255.84999999999999</ele>
        <time>2025-05-08T13:19:54Z</time>
      </trkpt>
      <trkpt lat="36.069238996133208" lon="-5.530189024284482">
        <ele>255.84999999999999</ele>
        <time>2025-05-08T13:19:55Z</time>
      </trkpt>
      <trkpt lat="36.069338992238045" lon="-5.530048962682486">
        <ele>256.32999999999998</ele>
        <time>2025-05-08T13:19:56Z</time>
      </trkpt>
      <trkpt lat="36.069442005828023" lon="-5.529904961585999">
        <ele>256.81</ele>
        <time>2025-05-08T13:19:57Z</time>
      </trkpt>
      <trkpt lat="36.069493973627687" lon="-5.529726007953286">
        <ele>257.29000000000002</ele>
        <time>2025-05-08T13:19:58Z</time>
      </trkpt>
      <trkpt lat="36.069552982226014" lon="-5.529513023793697">
        <ele>257.29000000000002</ele>
        <time>2025-05-08T13:19:59Z</time>
      </trkpt>
      <trkpt lat="36.069575026631355" lon="-5.529362987726927">
        <ele>258.25</ele>
        <time>2025-05-08T13:20:00Z</time>
      </trkpt>
      <trkpt lat="36.069549964740872" lon="-5.529155032709241">
        <ele>258.73000000000002</ele>
        <time>2025-05-08T13:20:01Z</time>
      </trkpt>
      <trkpt lat="36.069526998326182" lon="-5.52896099165082">
        <ele>259.69</ele>
        <time>2025-05-08T13:20:02Z</time>
      </trkpt>
      <trkpt lat="36.069490034133196" lon="-5.528776003047824">
        <ele>260.64999999999998</ele>
        <time>2025-05-08T13:20:03Z</time>
      </trkpt>
      <trkpt lat="36.069419039413333" lon="-5.52859503775835">
        <ele>261.13999999999999</ele>
        <time>2025-05-08T13:20:04Z</time>
      </trkpt>
      <trkpt lat="36.069347038865089" lon="-5.528412982821465">
        <ele>262.10000000000002</ele>
        <time>2025-05-08T13:20:05Z</time>
      </trkpt>
      <trkpt lat="36.069274032488465" lon="-5.528227994218469">
        <ele>263.06</ele>
        <time>2025-05-08T13:20:06Z</time>
      </trkpt>
      <trkpt lat="36.068919980898499" lon="-5.527245970442891">
        <ele>265.45999999999998</ele>
        <time>2025-05-08T13:20:11Z</time>
      </trkpt>
      <trkpt lat="36.068872036412358" lon="-5.527033992111683">
        <ele>265.45999999999998</ele>
        <time>2025-05-08T13:20:12Z</time>
      </trkpt>
      <trkpt lat="36.068841023370624" lon="-5.526814972981811">
        <ele>265.45999999999998</ele>
        <time>2025-05-08T13:20:13Z</time>
      </trkpt>
      <trkpt lat="36.068830965086818" lon="-5.526588996872306">
        <ele>264.98000000000002</ele>
        <time>2025-05-08T13:20:14Z</time>
      </trkpt>
      <trkpt lat="36.068833982571959" lon="-5.526357991620898">
        <ele>264.98000000000002</ele>
        <time>2025-05-08T13:20:15Z</time>
      </trkpt>
      <trkpt lat="36.068870024755597" lon="-5.526126986369491">
        <ele>264.5</ele>
        <time>2025-05-08T13:20:16Z</time>
      </trkpt>
      <trkpt lat="36.068906988948584" lon="-5.525889024138451">
        <ele>264.01999999999998</ele>
        <time>2025-05-08T13:20:17Z</time>
      </trkpt>
      <trkpt lat="36.068955017253757" lon="-5.525653995573521">
        <ele>264.01999999999998</ele>
        <time>2025-05-08T13:20:18Z</time>
      </trkpt>
      <trkpt lat="36.069390038028359" lon="-5.523763038218021">
        <ele>264.5</ele>
        <time>2025-05-08T13:20:26Z</time>
      </trkpt>
      <trkpt lat="36.069515012204647" lon="-5.523050995543599">
        <ele>265.45999999999998</ele>
        <time>2025-05-08T13:20:29Z</time>
      </trkpt>
      <trkpt lat="36.06956597417593" lon="-5.522824013605714">
        <ele>266.42000000000002</ele>
        <time>2025-05-08T13:20:30Z</time>
      </trkpt>
      <trkpt lat="36.069652978330851" lon="-5.522607006132603">
        <ele>266.42000000000002</ele>
        <time>2025-05-08T13:20:31Z</time>
      </trkpt>
      <trkpt lat="36.069774013012648" lon="-5.522428974509239">
        <ele>266.89999999999998</ele>
        <time>2025-05-08T13:20:32Z</time>
      </trkpt>
      <trkpt lat="36.069895969703794" lon="-5.522251026704907">
        <ele>266.89999999999998</ele>
        <time>2025-05-08T13:20:33Z</time>
      </trkpt>
      <trkpt lat="36.070343982428312" lon="-5.521514005959034">
        <ele>268.35000000000002</ele>
        <time>2025-05-08T13:20:37Z</time>
      </trkpt>
      <trkpt lat="36.070417994633317" lon="-5.521301021799445">
        <ele>269.31</ele>
        <time>2025-05-08T13:20:38Z</time>
      </trkpt>
      <trkpt lat="36.070482032373548" lon="-5.521082002669573">
        <ele>269.79000000000002</ele>
        <time>2025-05-08T13:20:39Z</time>
      </trkpt>
      <trkpt lat="36.071127019822598" lon="-5.518745966255665">
        <ele>279.39999999999998</ele>
        <time>2025-05-08T13:20:49Z</time>
      </trkpt>
      <trkpt lat="36.071964036673307" lon="-5.515630999580026">
        <ele>295.25999999999999</ele>
        <time>2025-05-08T13:21:02Z</time>
      </trkpt>
      <trkpt lat="36.072729974985123" lon="-5.512794982641935">
        <ele>307.27999999999997</ele>
        <time>2025-05-08T13:21:14Z</time>
      </trkpt>
      <trkpt lat="36.073035998269916" lon="-5.512014040723443">
        <ele>308.72000000000003</ele>
        <time>2025-05-08T13:21:18Z</time>
      </trkpt>
      <trkpt lat="36.073147980496287" lon="-5.511841038241983">
        <ele>309.19999999999999</ele>
        <time>2025-05-08T13:21:19Z</time>
      </trkpt>
      <trkpt lat="36.07326197437942" lon="-5.511666024103761">
        <ele>308.72000000000003</ele>
        <time>2025-05-08T13:21:20Z</time>
      </trkpt>
      <trkpt lat="36.073391977697611" lon="-5.511520011350513">
        <ele>308.72000000000003</ele>
        <time>2025-05-08T13:21:21Z</time>
      </trkpt>
      <trkpt lat="36.073528015986085" lon="-5.511368969455361">
        <ele>308.24000000000001</ele>
        <time>2025-05-08T13:21:22Z</time>
      </trkpt>
      <trkpt lat="36.073665982112288" lon="-5.511222034692764">
        <ele>307.75999999999999</ele>
        <time>2025-05-08T13:21:23Z</time>
      </trkpt>
      <trkpt lat="36.073830015957355" lon="-5.511110974475741">
        <ele>307.27999999999997</ele>
        <time>2025-05-08T13:21:24Z</time>
      </trkpt>
      <trkpt lat="36.075798003003001" lon="-5.50977498292923">
        <ele>296.69999999999999</ele>
        <time>2025-05-08T13:21:35Z</time>
      </trkpt>
      <trkpt lat="36.07648397795856" lon="-5.509210964664817">
        <ele>292.38</ele>
        <time>2025-05-08T13:21:39Z</time>
      </trkpt>
      <trkpt lat="36.076628984883428" lon="-5.509041985496879">
        <ele>290.94</ele>
        <time>2025-05-08T13:21:40Z</time>
      </trkpt>
      <trkpt lat="36.076754964888096" lon="-5.508853979408741">
        <ele>289.49000000000001</ele>
        <time>2025-05-08T13:21:41Z</time>
      </trkpt>
      <trkpt lat="36.076844986528158" lon="-5.50863797776401">
        <ele>288.52999999999997</ele>
        <time>2025-05-08T13:21:42Z</time>
      </trkpt>
      <trkpt lat="36.076924027875066" lon="-5.508407978340983">
        <ele>287.08999999999997</ele>
        <time>2025-05-08T13:21:43Z</time>
      </trkpt>
      <trkpt lat="36.076987981796265" lon="-5.508172027766705">
        <ele>286.13</ele>
        <time>2025-05-08T13:21:44Z</time>
      </trkpt>
      <trkpt lat="36.077262992039323" lon="-5.507302992045879">
        <ele>282.27999999999997</ele>
        <time>2025-05-08T13:21:48Z</time>
      </trkpt>
      <trkpt lat="36.077351002022624" lon="-5.507119009271264">
        <ele>281.31999999999999</ele>
        <time>2025-05-08T13:21:49Z</time>
      </trkpt>
      <trkpt lat="36.077467007562518" lon="-5.506970984861255">
        <ele>280.36000000000001</ele>
        <time>2025-05-08T13:21:50Z</time>
      </trkpt>
      <trkpt lat="36.077590975910425" lon="-5.506840981543064">
        <ele>279.39999999999998</ele>
        <time>2025-05-08T13:21:51Z</time>
      </trkpt>
      <trkpt lat="36.077717961743474" lon="-5.506715001538396">
        <ele>278.44</ele>
        <time>2025-05-08T13:21:52Z</time>
      </trkpt>
      <trkpt lat="36.077859029173851" lon="-5.506617017090321">
        <ele>277.48000000000002</ele>
        <time>2025-05-08T13:21:53Z</time>
      </trkpt>
      <trkpt lat="36.078010993078351" lon="-5.506540993228555">
        <ele>276.51999999999998</ele>
        <time>2025-05-08T13:21:54Z</time>
      </trkpt>
      <trkpt lat="36.078172009438276" lon="-5.506504029035568">
        <ele>276.04000000000002</ele>
        <time>2025-05-08T13:21:55Z</time>
      </trkpt>
      <trkpt lat="36.078338976949453" lon="-5.506469998508692">
        <ele>275.06999999999999</ele>
        <time>2025-05-08T13:21:56Z</time>
      </trkpt>
      <trkpt lat="36.078512985259295" lon="-5.506436973810196">
        <ele>274.11000000000001</ele>
        <time>2025-05-08T13:21:57Z</time>
      </trkpt>
      <trkpt lat="36.078693028539419" lon="-5.506418030709028">
        <ele>273.14999999999998</ele>
        <time>2025-05-08T13:21:58Z</time>
      </trkpt>
      <trkpt lat="36.080631008371711" lon="-5.506218960508704">
        <ele>263.06</ele>
        <time>2025-05-08T13:22:09Z</time>
      </trkpt>
      <trkpt lat="36.080957986414433" lon="-5.506044030189514">
        <ele>260.64999999999998</ele>
        <time>2025-05-08T13:22:11Z</time>
      </trkpt>
      <trkpt lat="36.081107016652822" lon="-5.505921989679337">
        <ele>259.20999999999998</ele>
        <time>2025-05-08T13:22:12Z</time>
      </trkpt>
      <trkpt lat="36.081250011920929" lon="-5.50577899441123">
        <ele>258.25</ele>
        <time>2025-05-08T13:22:13Z</time>
      </trkpt>
      <trkpt lat="36.081392001360655" lon="-5.505637004971504">
        <ele>256.81</ele>
        <time>2025-05-08T13:22:14Z</time>
      </trkpt>
      <trkpt lat="36.081530973315239" lon="-5.50549803301692">
        <ele>255.84999999999999</ele>
        <time>2025-05-08T13:22:15Z</time>
      </trkpt>
      <trkpt lat="36.081927018240094" lon="-5.504821026697755">
        <ele>250.56</ele>
        <time>2025-05-08T13:22:19Z</time>
      </trkpt>
      <trkpt lat="36.082002958282828" lon="-5.504631008952856">
        <ele>249.59999999999999</ele>
        <time>2025-05-08T13:22:20Z</time>
      </trkpt>
      <trkpt lat="36.082621961832047" lon="-5.502670984715223">
        <ele>239.50999999999999</ele>
        <time>2025-05-08T13:22:30Z</time>
      </trkpt>
      <trkpt lat="36.083167959004641" lon="-5.500570982694626">
        <ele>228.44999999999999</ele>
        <time>2025-05-08T13:22:40Z</time>
      </trkpt>
      <trkpt lat="36.083521004766226" lon="-5.498725958168507">
        <ele>218.36000000000001</ele>
        <time>2025-05-08T13:22:50Z</time>
      </trkpt>
      <trkpt lat="36.083664000034332" lon="-5.497843008488417">
        <ele>211.63</ele>
        <time>2025-05-08T13:22:57Z</time>
      </trkpt>
      <trkpt lat="36.083675986155868" lon="-5.497782994061709">
        <ele>210.66999999999999</ele>
        <time>2025-05-08T13:22:58Z</time>
      </trkpt>
      <trkpt lat="36.083685960620642" lon="-5.497733037918806">
        <ele>210.19</ele>
        <time>2025-05-08T13:22:59Z</time>
      </trkpt>
      <trkpt lat="36.083698030561209" lon="-5.497674029320478">
        <ele>208.74000000000001</ele>
        <time>2025-05-08T13:23:01Z</time>
      </trkpt>
      <trkpt lat="36.08370297588408" lon="-5.49765600822866">
        <ele>208.25999999999999</ele>
        <time>2025-05-08T13:23:02Z</time>
      </trkpt>
      <trkpt lat="36.083742035552859" lon="-5.497499015182257">
        <ele>205.38</ele>
        <time>2025-05-08T13:23:10Z</time>
      </trkpt>
      <trkpt lat="36.083755027502775" lon="-5.497445035725832">
        <ele>204.90000000000001</ele>
        <time>2025-05-08T13:23:11Z</time>
      </trkpt>
      <trkpt lat="36.08376600779593" lon="-5.497402036562562">
        <ele>203.94</ele>
        <time>2025-05-08T13:23:12Z</time>
      </trkpt>
      <trkpt lat="36.083774976432323" lon="-5.497365994378924">
        <ele>203.46000000000001</ele>
        <time>2025-05-08T13:23:13Z</time>
      </trkpt>
      <trkpt lat="36.083780005574226" lon="-5.497347973287106">
        <ele>202.97999999999999</ele>
        <time>2025-05-08T13:23:14Z</time>
      </trkpt>
      <trkpt lat="36.083780005574226" lon="-5.497347973287106">
        <ele>202.49000000000001</ele>
        <time>2025-05-08T13:23:15Z</time>
      </trkpt>
      <trkpt lat="36.083796015009284" lon="-5.497315032407641">
        <ele>202.00999999999999</ele>
        <time>2025-05-08T13:23:16Z</time>
      </trkpt>
      <trkpt lat="36.083803977817297" lon="-5.497298017144203">
        <ele>201.53</ele>
        <time>2025-05-08T13:23:17Z</time>
      </trkpt>
      <trkpt lat="36.083803977817297" lon="-5.497298017144203">
        <ele>201.53</ele>
        <time>2025-05-08T13:23:18Z</time>
      </trkpt>
      <trkpt lat="36.083845971152186" lon="-5.497204978018999">
        <ele>198.65000000000001</ele>
        <time>2025-05-08T13:23:30Z</time>
      </trkpt>
      <trkpt lat="36.083845971152186" lon="-5.497204978018999">
        <ele>198.65000000000001</ele>
        <time>2025-05-08T13:23:47Z</time>
      </trkpt>
      <trkpt lat="36.083845971152186" lon="-5.497204978018999">
        <ele>198.16999999999999</ele>
        <time>2025-05-08T13:24:20Z</time>
      </trkpt>
      <trkpt lat="36.083845971152186" lon="-5.497204978018999">
        <ele>199.13</ele>
        <time>2025-05-08T13:25:08Z</time>
      </trkpt>
      <trkpt lat="36.083845971152186" lon="-5.497204978018999">
        <ele>199.61000000000001</ele>
        <time>2025-05-08T13:25:38Z</time>
      </trkpt>
      <trkpt lat="36.08387497253716" lon="-5.49714001826942">
        <ele>199.61000000000001</ele>
        <time>2025-05-08T13:26:08Z</time>
      </trkpt>
      <trkpt lat="36.083883019164205" lon="-5.497123003005981">
        <ele>200.09</ele>
        <time>2025-05-08T13:26:09Z</time>
      </trkpt>
      <trkpt lat="36.083901962265372" lon="-5.497081009671092">
        <ele>199.61000000000001</ele>
        <time>2025-05-08T13:26:10Z</time>
      </trkpt>
      <trkpt lat="36.083932975307107" lon="-5.497010014951229">
        <ele>199.61000000000001</ele>
        <time>2025-05-08T13:26:11Z</time>
      </trkpt>
      <trkpt lat="36.083973962813616" lon="-5.496919993311167">
        <ele>199.13</ele>
        <time>2025-05-08T13:26:12Z</time>
      </trkpt>
      <trkpt lat="36.084491964429617" lon="-5.496004018932581">
        <ele>195.28</ele>
        <time>2025-05-08T13:26:19Z</time>
      </trkpt>
      <trkpt lat="36.085186991840601" lon="-5.494918981567025">
        <ele>189.52000000000001</ele>
        <time>2025-05-08T13:26:26Z</time>
      </trkpt>
      <trkpt lat="36.085987966507673" lon="-5.493200020864606">
        <ele>181.83000000000001</ele>
        <time>2025-05-08T13:26:36Z</time>
      </trkpt>
      <trkpt lat="36.08617203310132" lon="-5.492833983153105">
        <ele>180.38</ele>
        <time>2025-05-08T13:26:38Z</time>
      </trkpt>
      <trkpt lat="36.08628099784255" lon="-5.492655029520392">
        <ele>180.38</ele>
        <time>2025-05-08T13:26:39Z</time>
      </trkpt>
      <trkpt lat="36.08716000802815" lon="-5.491349967196584">
        <ele>176.53999999999999</ele>
        <time>2025-05-08T13:26:47Z</time>
      </trkpt>
      <trkpt lat="36.087235026061535" lon="-5.491160033270717">
        <ele>175.58000000000001</ele>
        <time>2025-05-08T13:26:48Z</time>
      </trkpt>
      <trkpt lat="36.087294034659863" lon="-5.490974960848689">
        <ele>175.09999999999999</ele>
        <time>2025-05-08T13:26:49Z</time>
      </trkpt>
      <trkpt lat="36.087348014116287" lon="-5.490793995559216">
        <ele>174.13999999999999</ele>
        <time>2025-05-08T13:26:50Z</time>
      </trkpt>
      <trkpt lat="36.087384978309274" lon="-5.49060900695622">
        <ele>173.16999999999999</ele>
        <time>2025-05-08T13:26:51Z</time>
      </trkpt>
      <trkpt lat="36.087407022714615" lon="-5.490427035838366">
        <ele>172.21000000000001</ele>
        <time>2025-05-08T13:26:52Z</time>
      </trkpt>
      <trkpt lat="36.087428983300924" lon="-5.490237018093467">
        <ele>171.25</ele>
        <time>2025-05-08T13:26:53Z</time>
      </trkpt>
      <trkpt lat="36.087899962440133" lon="-5.487778019160032">
        <ele>161.16</ele>
        <time>2025-05-08T13:27:06Z</time>
      </trkpt>
      <trkpt lat="36.088512009009719" lon="-5.485896030440927">
        <ele>156.83000000000001</ele>
        <time>2025-05-08T13:27:16Z</time>
      </trkpt>
      <trkpt lat="36.089020036160946" lon="-5.484252003952861">
        <ele>153.47</ele>
        <time>2025-05-08T13:27:24Z</time>
      </trkpt>
      <trkpt lat="36.089653037488461" lon="-5.482434974983335">
        <ele>144.81999999999999</ele>
        <time>2025-05-08T13:27:33Z</time>
      </trkpt>
      <trkpt lat="36.090583009645343" lon="-5.48087602481246">
        <ele>139.53</ele>
        <time>2025-05-08T13:27:42Z</time>
      </trkpt>
      <trkpt lat="36.09079398214817" lon="-5.480587016791105">
        <ele>139.05000000000001</ele>
        <time>2025-05-08T13:27:44Z</time>
      </trkpt>
      <trkpt lat="36.090913005173206" lon="-5.480470005422831">
        <ele>139.05000000000001</ele>
        <time>2025-05-08T13:27:45Z</time>
      </trkpt>
      <trkpt lat="36.091046025976539" lon="-5.480370009317994">
        <ele>138.56999999999999</ele>
        <time>2025-05-08T13:27:46Z</time>
      </trkpt>
      <trkpt lat="36.091178962960839" lon="-5.480271019041538">
        <ele>138.56999999999999</ele>
        <time>2025-05-08T13:27:47Z</time>
      </trkpt>
      <trkpt lat="36.091312989592552" lon="-5.480171022936702">
        <ele>138.09</ele>
        <time>2025-05-08T13:27:48Z</time>
      </trkpt>
      <trkpt lat="36.091464031487703" lon="-5.480101034045219">
        <ele>137.61000000000001</ele>
        <time>2025-05-08T13:27:49Z</time>
      </trkpt>
      <trkpt lat="36.091619012877345" lon="-5.480045964941382">
        <ele>137.61000000000001</ele>
        <time>2025-05-08T13:27:50Z</time>
      </trkpt>
      <trkpt lat="36.092386040836573" lon="-5.479770032688975">
        <ele>134.72</ele>
        <time>2025-05-08T13:27:55Z</time>
      </trkpt>
      <trkpt lat="36.092535993084311" lon="-5.479689985513687">
        <ele>133.75999999999999</ele>
        <time>2025-05-08T13:27:56Z</time>
      </trkpt>
      <trkpt lat="36.092667002230883" lon="-5.479568028822541">
        <ele>132.80000000000001</ele>
        <time>2025-05-08T13:27:57Z</time>
      </trkpt>
      <trkpt lat="36.092798011377454" lon="-5.479443976655603">
        <ele>131.84</ele>
        <time>2025-05-08T13:27:58Z</time>
      </trkpt>
      <trkpt lat="36.092907981947064" lon="-5.479296036064625">
        <ele>130.40000000000001</ele>
        <time>2025-05-08T13:27:59Z</time>
      </trkpt>
      <trkpt lat="36.09300596639514" lon="-5.479143988341093">
        <ele>129.43000000000001</ele>
        <time>2025-05-08T13:28:00Z</time>
      </trkpt>
      <trkpt lat="36.093072015792131" lon="-5.478955982252955">
        <ele>128.47</ele>
        <time>2025-05-08T13:28:01Z</time>
      </trkpt>
      <trkpt lat="36.093118032440543" lon="-5.478762025013566">
        <ele>127.03</ele>
        <time>2025-05-08T13:28:02Z</time>
      </trkpt>
      <trkpt lat="36.093137981370091" lon="-5.478561026975513">
        <ele>126.06999999999999</ele>
        <time>2025-05-08T13:28:03Z</time>
      </trkpt>
      <trkpt lat="36.093158014118671" lon="-5.478352988138795">
        <ele>125.11</ele>
        <time>2025-05-08T13:28:04Z</time>
      </trkpt>
      <trkpt lat="36.0931789688766" lon="-5.478142015635967">
        <ele>123.67</ele>
        <time>2025-05-08T13:28:05Z</time>
      </trkpt>
      <trkpt lat="36.093478035181761" lon="-5.476521039381623">
        <ele>115.5</ele>
        <time>2025-05-08T13:28:13Z</time>
      </trkpt>
      <trkpt lat="36.09377701766789" lon="-5.474837031215429">
        <ele>108.77</ele>
        <time>2025-05-08T13:28:21Z</time>
      </trkpt>
      <trkpt lat="36.093839965760708" lon="-5.47421601600945">
        <ele>106.36</ele>
        <time>2025-05-08T13:28:24Z</time>
      </trkpt>
      <trkpt lat="36.093873996287584" lon="-5.474010994657874">
        <ele>105.88</ele>
        <time>2025-05-08T13:28:25Z</time>
      </trkpt>
      <trkpt lat="36.093924958258867" lon="-5.473816031590104">
        <ele>104.92</ele>
        <time>2025-05-08T13:28:26Z</time>
      </trkpt>
      <trkpt lat="36.093984972685575" lon="-5.473627019673586">
        <ele>104.44</ele>
        <time>2025-05-08T13:28:27Z</time>
      </trkpt>
      <trkpt lat="36.094056973233819" lon="-5.473445970565081">
        <ele>103.95999999999999</ele>
        <time>2025-05-08T13:28:28Z</time>
      </trkpt>
      <trkpt lat="36.094142971560359" lon="-5.473274979740381">
        <ele>103</ele>
        <time>2025-05-08T13:28:29Z</time>
      </trkpt>
      <trkpt lat="36.094243973493576" lon="-5.473111029714346">
        <ele>102.52</ele>
        <time>2025-05-08T13:28:30Z</time>
      </trkpt>
      <trkpt lat="36.094354027882218" lon="-5.472964011132717">
        <ele>101.56</ele>
        <time>2025-05-08T13:28:31Z</time>
      </trkpt>
      <trkpt lat="36.094471039250493" lon="-5.472821015864611">
        <ele>100.59999999999999</ele>
        <time>2025-05-08T13:28:32Z</time>
      </trkpt>
      <trkpt lat="36.094602970406413" lon="-5.472710961475968">
        <ele>99.629999999999995</ele>
        <time>2025-05-08T13:28:33Z</time>
      </trkpt>
      <trkpt lat="36.094736997038126" lon="-5.472606020048261">
        <ele>98.670000000000002</ele>
        <time>2025-05-08T13:28:34Z</time>
      </trkpt>
      <trkpt lat="36.09487496316433" lon="-5.472513986751437">
        <ele>97.230000000000004</ele>
        <time>2025-05-08T13:28:35Z</time>
      </trkpt>
      <trkpt lat="36.095722960308194" lon="-5.471860030665994">
        <ele>90.980000000000004</ele>
        <time>2025-05-08T13:28:41Z</time>
      </trkpt>
      <trkpt lat="36.095829997211695" lon="-5.471697002649307">
        <ele>90.019999999999996</ele>
        <time>2025-05-08T13:28:42Z</time>
      </trkpt>
      <trkpt lat="36.096930038183928" lon="-5.470119025558233">
        <ele>80.890000000000001</ele>
        <time>2025-05-08T13:28:52Z</time>
      </trkpt>
      <trkpt lat="36.09781701117754" lon="-5.469041028991342">
        <ele>74.159999999999997</ele>
        <time>2025-05-08T13:28:59Z</time>
      </trkpt>
      <trkpt lat="36.097938967868686" lon="-5.468872971832752">
        <ele>73.200000000000003</ele>
        <time>2025-05-08T13:29:00Z</time>
      </trkpt>
      <trkpt lat="36.098023038357496" lon="-5.468681026250124">
        <ele>72.239999999999995</ele>
        <time>2025-05-08T13:29:01Z</time>
      </trkpt>
      <trkpt lat="36.098443977534771" lon="-5.467796986922622">
        <ele>68.390000000000001</ele>
        <time>2025-05-08T13:29:06Z</time>
      </trkpt>
      <trkpt lat="36.098564006388187" lon="-5.467629013583064">
        <ele>67.430000000000007</ele>
        <time>2025-05-08T13:29:07Z</time>
      </trkpt>
      <trkpt lat="36.098672971129417" lon="-5.467520970851183">
        <ele>66.469999999999999</ele>
        <time>2025-05-08T13:29:08Z</time>
      </trkpt>
      <trkpt lat="36.098814960569143" lon="-5.467421980574727">
        <ele>65.510000000000005</ele>
        <time>2025-05-08T13:29:09Z</time>
      </trkpt>
      <trkpt lat="36.098962984979153" lon="-5.467326007783413">
        <ele>64.549999999999997</ele>
        <time>2025-05-08T13:29:10Z</time>
      </trkpt>
      <trkpt lat="36.099544018507004" lon="-5.466875983402133">
        <ele>59.740000000000002</ele>
        <time>2025-05-08T13:29:14Z</time>
      </trkpt>
      <trkpt lat="36.099676033481956" lon="-5.466733993962407">
        <ele>58.299999999999997</ele>
        <time>2025-05-08T13:29:15Z</time>
      </trkpt>
      <trkpt lat="36.099776029586792" lon="-5.46654598787427">
        <ele>57.340000000000003</ele>
        <time>2025-05-08T13:29:16Z</time>
      </trkpt>
      <trkpt lat="36.099865967407823" lon="-5.466350018978119">
        <ele>56.369999999999997</ele>
        <time>2025-05-08T13:29:17Z</time>
      </trkpt>
      <trkpt lat="36.099959006533027" lon="-5.466148015111685">
        <ele>55.890000000000001</ele>
        <time>2025-05-08T13:29:18Z</time>
      </trkpt>
      <trkpt lat="36.100367959588766" lon="-5.465376041829586">
        <ele>55.409999999999997</ele>
        <time>2025-05-08T13:29:22Z</time>
      </trkpt>
      <trkpt lat="36.100491005927324" lon="-5.465203039348126">
        <ele>54.93</ele>
        <time>2025-05-08T13:29:23Z</time>
      </trkpt>
      <trkpt lat="36.100621009245515" lon="-5.465043028816581">
        <ele>54.450000000000003</ele>
        <time>2025-05-08T13:29:24Z</time>
      </trkpt>
      <trkpt lat="36.100775990635157" lon="-5.464914031326771">
        <ele>53.490000000000002</ele>
        <time>2025-05-08T13:29:25Z</time>
      </trkpt>
      <trkpt lat="36.100931977853179" lon="-5.46478402800858">
        <ele>52.530000000000001</ele>
        <time>2025-05-08T13:29:26Z</time>
      </trkpt>
      <trkpt lat="36.10207200050354" lon="-5.463995039463043">
        <ele>44.359999999999999</ele>
        <time>2025-05-08T13:29:33Z</time>
      </trkpt>
      <trkpt lat="36.102245002985001" lon="-5.463919015601277">
        <ele>43.399999999999999</ele>
        <time>2025-05-08T13:29:34Z</time>
      </trkpt>
      <trkpt lat="36.104153981432319" lon="-5.463095996528864">
        <ele>32.340000000000003</ele>
        <time>2025-05-08T13:29:45Z</time>
      </trkpt>
      <trkpt lat="36.104465033859015" lon="-5.462900027632713">
        <ele>31.379999999999999</ele>
        <time>2025-05-08T13:29:47Z</time>
      </trkpt>
      <trkpt lat="36.10460601747036" lon="-5.462791984900832">
        <ele>30.899999999999999</ele>
        <time>2025-05-08T13:29:48Z</time>
      </trkpt>
      <trkpt lat="36.105458959937096" lon="-5.462062004953623">
        <ele>28.5</ele>
        <time>2025-05-08T13:29:56Z</time>
      </trkpt>
      <trkpt lat="36.105865985155106" lon="-5.461539980024099">
        <ele>27.530000000000001</ele>
        <time>2025-05-08T13:30:03Z</time>
      </trkpt>
      <trkpt lat="36.105915019288659" lon="-5.461473008617759">
        <ele>27.530000000000001</ele>
        <time>2025-05-08T13:30:04Z</time>
      </trkpt>
      <trkpt lat="36.105971010401845" lon="-5.461406959220767">
        <ele>27.530000000000001</ele>
        <time>2025-05-08T13:30:05Z</time>
      </trkpt>
      <trkpt lat="36.105958018451929" lon="-5.461258012801409">
        <ele>27.050000000000001</ele>
        <time>2025-05-08T13:30:06Z</time>
      </trkpt>
      <trkpt lat="36.106005040928721" lon="-5.461179977282882">
        <ele>27.530000000000001</ele>
        <time>2025-05-08T13:30:07Z</time>
      </trkpt>
      <trkpt lat="36.106138983741403" lon="-5.461191963404417">
        <ele>27.050000000000001</ele>
        <time>2025-05-08T13:30:08Z</time>
      </trkpt>
      <trkpt lat="36.10619698651135" lon="-5.46113396063447">
        <ele>27.050000000000001</ele>
        <time>2025-05-08T13:30:09Z</time>
      </trkpt>
      <trkpt lat="36.1062600184232" lon="-5.461066989228129">
        <ele>27.050000000000001</ele>
        <time>2025-05-08T13:30:10Z</time>
      </trkpt>
      <trkpt lat="36.106319027021527" lon="-5.460990965366364">
        <ele>27.050000000000001</ele>
        <time>2025-05-08T13:30:11Z</time>
      </trkpt>
      <trkpt lat="36.107048001140356" lon="-5.460098963230848">
        <ele>26.57</ele>
        <time>2025-05-08T13:30:21Z</time>
      </trkpt>
      <trkpt lat="36.108093978837132" lon="-5.459220036864281">
        <ele>20.809999999999999</ele>
        <time>2025-05-08T13:30:30Z</time>
      </trkpt>
      <trkpt lat="36.108783977106214" lon="-5.458760038018227">
        <ele>20.32</ele>
        <time>2025-05-08T13:30:37Z</time>
      </trkpt>
      <trkpt lat="36.109454026445746" lon="-5.458321999758482">
        <ele>23.210000000000001</ele>
        <time>2025-05-08T13:30:47Z</time>
      </trkpt>
      <trkpt lat="36.109604984521866" lon="-5.458246981725097">
        <ele>24.170000000000002</ele>
        <time>2025-05-08T13:30:55Z</time>
      </trkpt>
      <trkpt lat="36.109690982848406" lon="-5.458203982561827">
        <ele>25.129999999999999</ele>
        <time>2025-05-08T13:31:24Z</time>
      </trkpt>
      <trkpt lat="36.109818974509835" lon="-5.458140028640628">
        <ele>26.09</ele>
        <time>2025-05-08T13:31:33Z</time>
      </trkpt>
      <trkpt lat="36.109818974509835" lon="-5.458140028640628">
        <ele>26.09</ele>
        <time>2025-05-08T13:31:58Z</time>
      </trkpt>
      <trkpt lat="36.109960963949561" lon="-5.458065010607243">
        <ele>26.09</ele>
        <time>2025-05-08T13:32:10Z</time>
      </trkpt>
      <trkpt lat="36.109960963949561" lon="-5.458065010607243">
        <ele>25.609999999999999</ele>
        <time>2025-05-08T13:32:26Z</time>
      </trkpt>
      <trkpt lat="36.110087027773261" lon="-5.45790902338922">
        <ele>24.170000000000002</ele>
        <time>2025-05-08T13:32:41Z</time>
      </trkpt>
      <trkpt lat="36.110118962824345" lon="-5.457869041711092">
        <ele>23.690000000000001</ele>
        <time>2025-05-08T13:32:50Z</time>
      </trkpt>
      <trkpt lat="36.110212001949549" lon="-5.457795029506087">
        <ele>22.73</ele>
        <time>2025-05-08T13:32:54Z</time>
      </trkpt>
      <trkpt lat="36.110261958092451" lon="-5.457786982879043">
        <ele>22.25</ele>
        <time>2025-05-08T13:32:55Z</time>
      </trkpt>
      <trkpt lat="36.11030101776123" lon="-5.45778002589941">
        <ele>22.25</ele>
        <time>2025-05-08T13:32:56Z</time>
      </trkpt>
      <trkpt lat="36.11030101776123" lon="-5.45778002589941">
        <ele>22.25</ele>
        <time>2025-05-08T13:32:57Z</time>
      </trkpt>
      <trkpt lat="36.110367989167571" lon="-5.457886978983879">
        <ele>22.25</ele>
        <time>2025-05-08T13:32:58Z</time>
      </trkpt>
      <trkpt lat="36.110390033572912" lon="-5.457883039489389">
        <ele>22.25</ele>
        <time>2025-05-08T13:32:59Z</time>
      </trkpt>
      <trkpt lat="36.110390033572912" lon="-5.457883039489389">
        <ele>22.25</ele>
        <time>2025-05-08T13:33:11Z</time>
      </trkpt>
      <trkpt lat="36.110632019117475" lon="-5.457830987870693">
        <ele>22.25</ele>
        <time>2025-05-08T13:33:20Z</time>
      </trkpt>
      <trkpt lat="36.11092303879559" lon="-5.457730991765857">
        <ele>23.210000000000001</ele>
        <time>2025-05-08T13:33:36Z</time>
      </trkpt>
      <trkpt lat="36.110957991331816" lon="-5.457719005644321">
        <ele>23.210000000000001</ele>
        <time>2025-05-08T13:33:51Z</time>
      </trkpt>
      <trkpt lat="36.111278012394905" lon="-5.457600988447666">
        <ele>24.170000000000002</ele>
        <time>2025-05-08T13:34:01Z</time>
      </trkpt>
      <trkpt lat="36.111509017646313" lon="-5.457485988736153">
        <ele>24.170000000000002</ele>
        <time>2025-05-08T13:34:06Z</time>
      </trkpt>
      <trkpt lat="36.111551010981202" lon="-5.457462016493082">
        <ele>23.690000000000001</ele>
        <time>2025-05-08T13:34:07Z</time>
      </trkpt>
      <trkpt lat="36.111596021801233" lon="-5.45743603259325">
        <ele>23.690000000000001</ele>
        <time>2025-05-08T13:34:08Z</time>
      </trkpt>
      <trkpt lat="36.111920988187194" lon="-5.457202009856701">
        <ele>20.32</ele>
        <time>2025-05-08T13:34:18Z</time>
      </trkpt>
      <trkpt lat="36.112030036747456" lon="-5.457098996266723">
        <ele>17.440000000000001</ele>
        <time>2025-05-08T13:34:27Z</time>
      </trkpt>
      <trkpt lat="36.112232962623239" lon="-5.45687897130847">
        <ele>15.52</ele>
        <time>2025-05-08T13:34:42Z</time>
      </trkpt>
      <trkpt lat="36.112332958728075" lon="-5.456716027110815">
        <ele>13.119999999999999</ele>
        <time>2025-05-08T13:34:59Z</time>
      </trkpt>
      <trkpt lat="36.112396996468306" lon="-5.456612007692456">
        <ele>13.119999999999999</ele>
        <time>2025-05-08T13:35:13Z</time>
      </trkpt>
      <trkpt lat="36.112519958987832" lon="-5.456402041018009">
        <ele>12.630000000000001</ele>
        <time>2025-05-08T13:35:25Z</time>
      </trkpt>
      <trkpt lat="36.11262196674943" lon="-5.456229038536549">
        <ele>12.15</ele>
        <time>2025-05-08T13:35:38Z</time>
      </trkpt>
      <trkpt lat="36.112690027803183" lon="-5.456114038825035">
        <ele>12.15</ele>
        <time>2025-05-08T13:35:42Z</time>
      </trkpt>
      <trkpt lat="36.112712994217873" lon="-5.456072967499495">
        <ele>12.15</ele>
        <time>2025-05-08T13:35:43Z</time>
      </trkpt>
      <trkpt lat="36.1125130020082" lon="-5.455768033862114">
        <ele>11.19</ele>
        <time>2025-05-08T13:35:45Z</time>
      </trkpt>
      <trkpt lat="36.112525993958116" lon="-5.455724028870463">
        <ele>10.710000000000001</ele>
        <time>2025-05-08T13:35:46Z</time>
      </trkpt>
      <trkpt lat="36.11253404058516" lon="-5.455694021657109">
        <ele>10.23</ele>
        <time>2025-05-08T13:35:47Z</time>
      </trkpt>
      <trkpt lat="36.112545020878315" lon="-5.455657979473472">
        <ele>9.75</ele>
        <time>2025-05-08T13:35:48Z</time>
      </trkpt>
      <trkpt lat="36.11255700699985" lon="-5.455614980310202">
        <ele>9.75</ele>
        <time>2025-05-08T13:35:49Z</time>
      </trkpt>
      <trkpt lat="36.112586008384824" lon="-5.455507021397352">
        <ele>8.789999999999999</ele>
        <time>2025-05-08T13:35:51Z</time>
      </trkpt>
      <trkpt lat="36.112726991996169" lon="-5.455066971480846">
        <ele>8.789999999999999</ele>
        <time>2025-05-08T13:35:57Z</time>
      </trkpt>
      <trkpt lat="36.112754987552762" lon="-5.454996982589364">
        <ele>9.27</ele>
        <time>2025-05-08T13:35:58Z</time>
      </trkpt>
      <trkpt lat="36.1127910297364" lon="-5.454905033111572">
        <ele>9.27</ele>
        <time>2025-05-08T13:35:59Z</time>
      </trkpt>
      <trkpt lat="36.112846015021205" lon="-5.454867985099554">
        <ele>9.27</ele>
        <time>2025-05-08T13:36:00Z</time>
      </trkpt>
      <trkpt lat="36.112902006134391" lon="-5.454831020906568">
        <ele>9.27</ele>
        <time>2025-05-08T13:36:01Z</time>
      </trkpt>
      <trkpt lat="36.11296403221786" lon="-5.45481501147151">
        <ele>9.27</ele>
        <time>2025-05-08T13:36:02Z</time>
      </trkpt>
      <trkpt lat="36.113014994189143" lon="-5.454810988157988">
        <ele>8.789999999999999</ele>
        <time>2025-05-08T13:36:03Z</time>
      </trkpt>
      <trkpt lat="36.113066039979458" lon="-5.454805959016085">
        <ele>9.27</ele>
        <time>2025-05-08T13:36:04Z</time>
      </trkpt>
      <trkpt lat="36.113120019435883" lon="-5.454801013693214">
        <ele>9.27</ele>
        <time>2025-05-08T13:36:05Z</time>
      </trkpt>
      <trkpt lat="36.113154971972108" lon="-5.454797996208072">
        <ele>9.75</ele>
        <time>2025-05-08T13:36:06Z</time>
      </trkpt>
      <trkpt lat="36.113226972520351" lon="-5.454846024513245">
        <ele>9.75</ele>
        <time>2025-05-08T13:36:07Z</time>
      </trkpt>
      <trkpt lat="36.113278018310666" lon="-5.454879971221089">
        <ele>9.75</ele>
        <time>2025-05-08T13:36:08Z</time>
      </trkpt>
      <trkpt lat="36.113283969461918" lon="-5.454883994534612">
        <ele>10.23</ele>
        <time>2025-05-08T13:36:09Z</time>
      </trkpt>
      <trkpt lat="36.113339038565755" lon="-5.454970998689532">
        <ele>10.23</ele>
        <time>2025-05-08T13:36:10Z</time>
      </trkpt>
      <trkpt lat="36.113380026072264" lon="-5.455034030601382">
        <ele>10.710000000000001</ele>
        <time>2025-05-08T13:36:11Z</time>
      </trkpt>
      <trkpt lat="36.113424031063914" lon="-5.455104019492865">
        <ele>10.710000000000001</ele>
        <time>2025-05-08T13:36:12Z</time>
      </trkpt>
      <trkpt lat="36.11343702301383" lon="-5.455156993120909">
        <ele>11.19</ele>
        <time>2025-05-08T13:36:13Z</time>
      </trkpt>
      <trkpt lat="36.113444985821843" lon="-5.455250032246113">
        <ele>11.19</ele>
        <time>2025-05-08T13:36:14Z</time>
      </trkpt>
      <trkpt lat="36.113454038277268" lon="-5.455352040007711">
        <ele>11.67</ele>
        <time>2025-05-08T13:36:15Z</time>
      </trkpt>
      <trkpt lat="36.113498965278268" lon="-5.455479025840759">
        <ele>11.67</ele>
        <time>2025-05-08T13:36:16Z</time>
      </trkpt>
      <trkpt lat="36.113540958613157" lon="-5.455577010288835">
        <ele>11.67</ele>
        <time>2025-05-08T13:36:17Z</time>
      </trkpt>
      <trkpt lat="36.113584041595459" lon="-5.455678012222052">
        <ele>12.15</ele>
        <time>2025-05-08T13:36:18Z</time>
      </trkpt>
      <trkpt lat="36.113649001345038" lon="-5.455768033862114">
        <ele>12.630000000000001</ele>
        <time>2025-05-08T13:36:19Z</time>
      </trkpt>
      <trkpt lat="36.113711027428508" lon="-5.455854032188654">
        <ele>13.119999999999999</ele>
        <time>2025-05-08T13:36:20Z</time>
      </trkpt>
      <trkpt lat="36.113768024370074" lon="-5.455935001373291">
        <ele>13.6</ele>
        <time>2025-05-08T13:36:21Z</time>
      </trkpt>
      <trkpt lat="36.113820997998118" lon="-5.456009013578296">
        <ele>14.56</ele>
        <time>2025-05-08T13:36:22Z</time>
      </trkpt>
      <trkpt lat="36.113871037960052" lon="-5.456079002469778">
        <ele>15.039999999999999</ele>
        <time>2025-05-08T13:36:23Z</time>
      </trkpt>
      <trkpt lat="36.113923005759716" lon="-5.456152008846402">
        <ele>16</ele>
        <time>2025-05-08T13:36:24Z</time>
      </trkpt>
      <trkpt lat="36.113977991044521" lon="-5.456229038536549">
        <ele>16.960000000000001</ele>
        <time>2025-05-08T13:36:25Z</time>
      </trkpt>
      <trkpt lat="36.114301029592752" lon="-5.457011992111802">
        <ele>23.690000000000001</ele>
        <time>2025-05-08T13:36:34Z</time>
      </trkpt>
      <trkpt lat="36.114542009308934" lon="-5.45743603259325">
        <ele>26.09</ele>
        <time>2025-05-08T13:36:38Z</time>
      </trkpt>
      <trkpt lat="36.114607974886894" lon="-5.457534017041326">
        <ele>26.57</ele>
        <time>2025-05-08T13:36:39Z</time>
      </trkpt>
      <trkpt lat="36.114740995690227" lon="-5.457734009250999">
        <ele>28.5</ele>
        <time>2025-05-08T13:36:41Z</time>
      </trkpt>
      <trkpt lat="36.114797992631793" lon="-5.457826964557171">
        <ele>28.98</ele>
        <time>2025-05-08T13:36:42Z</time>
      </trkpt>
      <trkpt lat="36.114847026765347" lon="-5.457924026995897">
        <ele>29.460000000000001</ele>
        <time>2025-05-08T13:36:43Z</time>
      </trkpt>
      <trkpt lat="36.115382965654135" lon="-5.458848970010877">
        <ele>32.82</ele>
        <time>2025-05-08T13:36:51Z</time>
      </trkpt>
      <trkpt lat="36.116061983630061" lon="-5.459883967414498">
        <ele>39.07</ele>
        <time>2025-05-08T13:36:57Z</time>
      </trkpt>
      <trkpt lat="36.116868993267417" lon="-5.460640015080571">
        <ele>44.359999999999999</ele>
        <time>2025-05-08T13:37:02Z</time>
      </trkpt>
      <trkpt lat="36.117233019322157" lon="-5.460831960663199">
        <ele>46.280000000000001</ele>
        <time>2025-05-08T13:37:04Z</time>
      </trkpt>
      <trkpt lat="36.117420019581914" lon="-5.460906978696585">
        <ele>46.759999999999998</ele>
        <time>2025-05-08T13:37:05Z</time>
      </trkpt>
      <trkpt lat="36.118952985852957" lon="-5.461032036691904">
        <ele>48.200000000000003</ele>
        <time>2025-05-08T13:37:13Z</time>
      </trkpt>
      <trkpt lat="36.121551040560007" lon="-5.460788039490581">
        <ele>39.549999999999997</ele>
        <time>2025-05-08T13:37:27Z</time>
      </trkpt>
      <trkpt lat="36.123539982363582" lon="-5.460857022553682">
        <ele>33.780000000000001</ele>
        <time>2025-05-08T13:37:38Z</time>
      </trkpt>
      <trkpt lat="36.124495016410947" lon="-5.461490023881197">
        <ele>29.940000000000001</ele>
        <time>2025-05-08T13:37:44Z</time>
      </trkpt>
      <trkpt lat="36.125909965485334" lon="-5.46287203207612">
        <ele>24.649999999999999</ele>
        <time>2025-05-08T13:37:54Z</time>
      </trkpt>
      <trkpt lat="36.127132968977094" lon="-5.463386010378599">
        <ele>21.289999999999999</ele>
        <time>2025-05-08T13:38:01Z</time>
      </trkpt>
      <trkpt lat="36.129621975123882" lon="-5.464046001434326">
        <ele>16</ele>
        <time>2025-05-08T13:38:15Z</time>
      </trkpt>
      <trkpt lat="36.131471022963524" lon="-5.464243981987238">
        <ele>13.6</ele>
        <time>2025-05-08T13:38:26Z</time>
      </trkpt>
      <trkpt lat="36.13180504180491" lon="-5.464123031124473">
        <ele>13.6</ele>
        <time>2025-05-08T13:38:28Z</time>
      </trkpt>
      <trkpt lat="36.131969997659326" lon="-5.464049018919468">
        <ele>13.6</ele>
        <time>2025-05-08T13:38:29Z</time>
      </trkpt>
      <trkpt lat="36.132131014019251" lon="-5.463976012542844">
        <ele>13.119999999999999</ele>
        <time>2025-05-08T13:38:30Z</time>
      </trkpt>
      <trkpt lat="36.13228197209537" lon="-5.463886996731162">
        <ele>12.630000000000001</ele>
        <time>2025-05-08T13:38:31Z</time>
      </trkpt>
      <trkpt lat="36.132434019818902" lon="-5.463790018111467">
        <ele>12.15</ele>
        <time>2025-05-08T13:38:32Z</time>
      </trkpt>
      <trkpt lat="36.132576009258628" lon="-5.463676024228334">
        <ele>11.67</ele>
        <time>2025-05-08T13:38:33Z</time>
      </trkpt>
      <trkpt lat="36.133693987503648" lon="-5.46237800270319">
        <ele>13.119999999999999</ele>
        <time>2025-05-08T13:38:42Z</time>
      </trkpt>
      <trkpt lat="36.135197030380368" lon="-5.460712015628815">
        <ele>21.77</ele>
        <time>2025-05-08T13:38:53Z</time>
      </trkpt>
      <trkpt lat="36.136472001671791" lon="-5.460069961845875">
        <ele>28.5</ele>
        <time>2025-05-08T13:39:01Z</time>
      </trkpt>
      <trkpt lat="36.137873958796263" lon="-5.45999201014638">
        <ele>32.340000000000003</ele>
        <time>2025-05-08T13:39:09Z</time>
      </trkpt>
      <trkpt lat="36.138951033353806" lon="-5.46020801179111">
        <ele>32.82</ele>
        <time>2025-05-08T13:39:15Z</time>
      </trkpt>
      <trkpt lat="36.141107026487589" lon="-5.460502970963717">
        <ele>32.82</ele>
        <time>2025-05-08T13:39:28Z</time>
      </trkpt>
      <trkpt lat="36.142041021957994" lon="-5.460071973502636">
        <ele>34.259999999999998</ele>
        <time>2025-05-08T13:39:34Z</time>
      </trkpt>
      <trkpt lat="36.142189968377352" lon="-5.459967032074928">
        <ele>34.259999999999998</ele>
        <time>2025-05-08T13:39:35Z</time>
      </trkpt>
      <trkpt lat="36.142312008887529" lon="-5.459828982129693">
        <ele>34.259999999999998</ele>
        <time>2025-05-08T13:39:36Z</time>
      </trkpt>
      <trkpt lat="36.142436983063817" lon="-5.459687998518348">
        <ele>33.780000000000001</ele>
        <time>2025-05-08T13:39:37Z</time>
      </trkpt>
      <trkpt lat="36.142560029402375" lon="-5.459538968279958">
        <ele>33.299999999999997</ele>
        <time>2025-05-08T13:39:38Z</time>
      </trkpt>
      <trkpt lat="36.142666982486844" lon="-5.459378035739064">
        <ele>32.82</ele>
        <time>2025-05-08T13:39:39Z</time>
      </trkpt>
      <trkpt lat="36.142775025218725" lon="-5.459216013550758">
        <ele>31.859999999999999</ele>
        <time>2025-05-08T13:39:40Z</time>
      </trkpt>
      <trkpt lat="36.142865968868136" lon="-5.459029013291001">
        <ele>31.379999999999999</ele>
        <time>2025-05-08T13:39:41Z</time>
      </trkpt>
      <trkpt lat="36.142951967194676" lon="-5.458841007202864">
        <ele>29.940000000000001</ele>
        <time>2025-05-08T13:39:42Z</time>
      </trkpt>
      <trkpt lat="36.143037965521216" lon="-5.458655012771487">
        <ele>28.5</ele>
        <time>2025-05-08T13:39:43Z</time>
      </trkpt>
      <trkpt lat="36.143116001039743" lon="-5.458461977541447">
        <ele>27.530000000000001</ele>
        <time>2025-05-08T13:39:44Z</time>
      </trkpt>
      <trkpt lat="36.143842963501811" lon="-5.45653598383069">
        <ele>20.809999999999999</ele>
        <time>2025-05-08T13:39:54Z</time>
      </trkpt>
      <trkpt lat="36.144474959000945" lon="-5.454762959852815">
        <ele>20.809999999999999</ele>
        <time>2025-05-08T13:40:04Z</time>
      </trkpt>
      <trkpt lat="36.144816018640995" lon="-5.454123001545668">
        <ele>22.73</ele>
        <time>2025-05-08T13:40:09Z</time>
      </trkpt>
      <trkpt lat="36.14489103667438" lon="-5.454014036804438">
        <ele>23.210000000000001</ele>
        <time>2025-05-08T13:40:10Z</time>
      </trkpt>
      <trkpt lat="36.14497703500092" lon="-5.453917980194092">
        <ele>23.690000000000001</ele>
        <time>2025-05-08T13:40:11Z</time>
      </trkpt>
      <trkpt lat="36.145068984478712" lon="-5.453827036544681">
        <ele>24.170000000000002</ele>
        <time>2025-05-08T13:40:12Z</time>
      </trkpt>
      <trkpt lat="36.145169986411929" lon="-5.453746989369392">
        <ele>24.170000000000002</ele>
        <time>2025-05-08T13:40:13Z</time>
      </trkpt>
      <trkpt lat="36.145378025248647" lon="-5.453608017414808">
        <ele>25.129999999999999</ele>
        <time>2025-05-08T13:40:15Z</time>
      </trkpt>
      <trkpt lat="36.14549302496016" lon="-5.453558983281255">
        <ele>25.129999999999999</ele>
        <time>2025-05-08T13:40:16Z</time>
      </trkpt>
      <trkpt lat="36.145610036328435" lon="-5.453530987724662">
        <ele>25.609999999999999</ele>
        <time>2025-05-08T13:40:17Z</time>
      </trkpt>
      <trkpt lat="36.14572998136282" lon="-5.453501986339688">
        <ele>25.609999999999999</ele>
        <time>2025-05-08T13:40:18Z</time>
      </trkpt>
      <trkpt lat="36.145850010216236" lon="-5.453472984954715">
        <ele>26.09</ele>
        <time>2025-05-08T13:40:19Z</time>
      </trkpt>
      <trkpt lat="36.145971966907382" lon="-5.453445995226502">
        <ele>26.09</ele>
        <time>2025-05-08T13:40:20Z</time>
      </trkpt>
      <trkpt lat="36.146089984104037" lon="-5.453451024368405">
        <ele>26.57</ele>
        <time>2025-05-08T13:40:21Z</time>
      </trkpt>
      <trkpt lat="36.146199032664299" lon="-5.453464016318321">
        <ele>26.57</ele>
        <time>2025-05-08T13:40:22Z</time>
      </trkpt>
      <trkpt lat="36.146399024873972" lon="-5.453507015481591">
        <ele>26.57</ele>
        <time>2025-05-08T13:40:24Z</time>
      </trkpt>
      <trkpt lat="36.146494997665286" lon="-5.45352797023952">
        <ele>26.57</ele>
        <time>2025-05-08T13:40:25Z</time>
      </trkpt>
      <trkpt lat="36.146607985720038" lon="-5.453553032130003">
        <ele>26.57</ele>
        <time>2025-05-08T13:40:26Z</time>
      </trkpt>
      <trkpt lat="36.146966982632875" lon="-5.453744977712631">
        <ele>27.530000000000001</ele>
        <time>2025-05-08T13:40:33Z</time>
      </trkpt>
      <trkpt lat="36.147030014544725" lon="-5.453778002411127">
        <ele>27.530000000000001</ele>
        <time>2025-05-08T13:40:41Z</time>
      </trkpt>
      <trkpt lat="36.14714602008462" lon="-5.453840028494597">
        <ele>27.530000000000001</ele>
        <time>2025-05-08T13:40:54Z</time>
      </trkpt>
      <trkpt lat="36.14714602008462" lon="-5.453840028494597">
        <ele>28.02</ele>
        <time>2025-05-08T13:41:06Z</time>
      </trkpt>
      <trkpt lat="36.147308964282274" lon="-5.453927032649517">
        <ele>28.02</ele>
        <time>2025-05-08T13:41:35Z</time>
      </trkpt>
      <trkpt lat="36.147897038608789" lon="-5.454241018742323">
        <ele>25.129999999999999</ele>
        <time>2025-05-08T13:41:44Z</time>
      </trkpt>
      <trkpt lat="36.148104993626475" lon="-5.454345038160682">
        <ele>24.170000000000002</ele>
        <time>2025-05-08T13:41:46Z</time>
      </trkpt>
      <trkpt lat="36.148214964196086" lon="-5.454402035102248">
        <ele>24.170000000000002</ele>
        <time>2025-05-08T13:41:47Z</time>
      </trkpt>
      <trkpt lat="36.148322001099586" lon="-5.454458026215434">
        <ele>23.690000000000001</ele>
        <time>2025-05-08T13:41:48Z</time>
      </trkpt>
      <trkpt lat="36.148420991376042" lon="-5.454509994015098">
        <ele>23.210000000000001</ele>
        <time>2025-05-08T13:41:49Z</time>
      </trkpt>
      <trkpt lat="36.148525010794401" lon="-5.454563973471522">
        <ele>23.210000000000001</ele>
        <time>2025-05-08T13:41:50Z</time>
      </trkpt>
      <trkpt lat="36.149569982662797" lon="-5.454797996208072">
        <ele>22.73</ele>
        <time>2025-05-08T13:41:59Z</time>
      </trkpt>
      <trkpt lat="36.150827016681433" lon="-5.454760026186705">
        <ele>23.210000000000001</ele>
        <time>2025-05-08T13:42:09Z</time>
      </trkpt>
      <trkpt lat="36.152154039591551" lon="-5.454698000103235">
        <ele>24.649999999999999</ele>
        <time>2025-05-08T13:42:20Z</time>
      </trkpt>
      <trkpt lat="36.153971990570426" lon="-5.454639997333288">
        <ele>19.359999999999999</ele>
        <time>2025-05-08T13:42:35Z</time>
      </trkpt>
      <trkpt lat="36.154671963304281" lon="-5.454627005383372">
        <ele>16.960000000000001</ele>
        <time>2025-05-08T13:42:43Z</time>
      </trkpt>
      <trkpt lat="36.154797021299601" lon="-5.454642008990049">
        <ele>16</ele>
        <time>2025-05-08T13:42:52Z</time>
      </trkpt>
      <trkpt lat="36.155060967430472" lon="-5.454682996496558">
        <ele>15.039999999999999</ele>
        <time>2025-05-08T13:43:09Z</time>
      </trkpt>
      <trkpt lat="36.155745014548302" lon="-5.455003017559648">
        <ele>14.56</ele>
        <time>2025-05-08T13:43:16Z</time>
      </trkpt>
      <trkpt lat="36.156315989792347" lon="-5.455540968105197">
        <ele>15.52</ele>
        <time>2025-05-08T13:43:22Z</time>
      </trkpt>
      <trkpt lat="36.156412968412042" lon="-5.455635013058782">
        <ele>15.52</ele>
        <time>2025-05-08T13:43:23Z</time>
      </trkpt>
      <trkpt lat="36.157346041873097" lon="-5.456782998517156">
        <ele>12.630000000000001</ele>
        <time>2025-05-08T13:43:33Z</time>
      </trkpt>
      <trkpt lat="36.158353965729475" lon="-5.458056963980198">
        <ele>6.87</ele>
        <time>2025-05-08T13:43:43Z</time>
      </trkpt>
      <trkpt lat="36.159542016685009" lon="-5.459091039374471">
        <ele>1.58</ele>
        <time>2025-05-08T13:43:52Z</time>
      </trkpt>
      <trkpt lat="36.160768959671259" lon="-5.459561012685299">
        <ele>-0.34</ele>
        <time>2025-05-08T13:44:00Z</time>
      </trkpt>
      <trkpt lat="36.162032028660178" lon="-5.459394967183471">
        <ele>-4.19</ele>
        <time>2025-05-08T13:44:08Z</time>
      </trkpt>
      <trkpt lat="36.163813015446067" lon="-5.45874604023993">
        <ele>-6.11</ele>
        <time>2025-05-08T13:44:20Z</time>
      </trkpt>
      <trkpt lat="36.16491599008441" lon="-5.458298027515411">
        <ele>-8.029999999999999</ele>
        <time>2025-05-08T13:44:27Z</time>
      </trkpt>
      <trkpt lat="36.166693959385157" lon="-5.457420023158193">
        <ele>-10.92</ele>
        <time>2025-05-08T13:44:37Z</time>
      </trkpt>
      <trkpt lat="36.168788010254502" lon="-5.456720972433686">
        <ele>-11.880000000000001</ele>
        <time>2025-05-08T13:44:48Z</time>
      </trkpt>
      <trkpt lat="36.170794973149896" lon="-5.456177992746234">
        <ele>-11.4</ele>
        <time>2025-05-08T13:44:58Z</time>
      </trkpt>
      <trkpt lat="36.172941997647285" lon="-5.455375006422401">
        <ele>-14.279999999999999</ele>
        <time>2025-05-08T13:45:09Z</time>
      </trkpt>
      <trkpt lat="36.174844019114971" lon="-5.454398011788726">
        <ele>-13.800000000000001</ele>
        <time>2025-05-08T13:45:20Z</time>
      </trkpt>
      <trkpt lat="36.175851020962" lon="-5.453114993870258">
        <ele>-11.880000000000001</ele>
        <time>2025-05-08T13:45:28Z</time>
      </trkpt>
      <trkpt lat="36.17759102024138" lon="-5.450165988877416">
        <ele>-13.800000000000001</ele>
        <time>2025-05-08T13:45:44Z</time>
      </trkpt>
      <trkpt lat="36.179286008700728" lon="-5.447337012737989">
        <ele>-14.279999999999999</ele>
        <time>2025-05-08T13:45:59Z</time>
      </trkpt>
      <trkpt lat="36.180806988850236" lon="-5.444860998541117">
        <ele>-13.800000000000001</ele>
        <time>2025-05-08T13:46:12Z</time>
      </trkpt>
      <trkpt lat="36.18281596340239" lon="-5.441549979150295">
        <ele>-13.800000000000001</ele>
        <time>2025-05-08T13:46:29Z</time>
      </trkpt>
      <trkpt lat="36.184195959940553" lon="-5.439483001828194">
        <ele>-12.84</ele>
        <time>2025-05-08T13:46:40Z</time>
      </trkpt>
      <trkpt lat="36.184336021542549" lon="-5.439328020438552">
        <ele>-12.84</ele>
        <time>2025-05-08T13:46:41Z</time>
      </trkpt>
      <trkpt lat="36.185783995315433" lon="-5.438018012791872">
        <ele>-11.880000000000001</ele>
        <time>2025-05-08T13:46:50Z</time>
      </trkpt>
      <trkpt lat="36.187923979014158" lon="-5.436121020466089">
        <ele>-9.960000000000001</ele>
        <time>2025-05-08T13:47:03Z</time>
      </trkpt>
      <trkpt lat="36.189762968569994" lon="-5.434481017291546">
        <ele>-11.4</ele>
        <time>2025-05-08T13:47:13Z</time>
      </trkpt>
      <trkpt lat="36.191830029711127" lon="-5.432653008028865">
        <ele>-9.48</ele>
        <time>2025-05-08T13:47:25Z</time>
      </trkpt>
      <trkpt lat="36.193913016468287" lon="-5.430894987657666">
        <ele>-8.51</ele>
        <time>2025-05-08T13:47:37Z</time>
      </trkpt>
      <trkpt lat="36.196001032367349" lon="-5.429307958111167">
        <ele>-6.59</ele>
        <time>2025-05-08T13:47:49Z</time>
      </trkpt>
      <trkpt lat="36.198836965486407" lon="-5.427047023549676">
        <ele>-8.029999999999999</ele>
        <time>2025-05-08T13:48:05Z</time>
      </trkpt>
      <trkpt lat="36.200585011392832" lon="-5.425307024270296">
        <ele>-7.07</ele>
        <time>2025-05-08T13:48:16Z</time>
      </trkpt>
      <trkpt lat="36.2025379948318" lon="-5.42321196757257">
        <ele>-9</ele>
        <time>2025-05-08T13:48:29Z</time>
      </trkpt>
      <trkpt lat="36.202809987589717" lon="-5.422873003408313">
        <ele>-9.48</ele>
        <time>2025-05-08T13:48:31Z</time>
      </trkpt>
      <trkpt lat="36.202926998957992" lon="-5.422677034512162">
        <ele>-9.48</ele>
        <time>2025-05-08T13:48:32Z</time>
      </trkpt>
      <trkpt lat="36.203040992841125" lon="-5.422478970140219">
        <ele>-9.960000000000001</ele>
        <time>2025-05-08T13:48:33Z</time>
      </trkpt>
      <trkpt lat="36.203530998900533" lon="-5.42086897417903">
        <ele>-10.92</ele>
        <time>2025-05-08T13:48:40Z</time>
      </trkpt>
      <trkpt lat="36.203754963353276" lon="-5.418665958568454">
        <ele>-10.92</ele>
        <time>2025-05-08T13:48:49Z</time>
      </trkpt>
      <trkpt lat="36.203808020800352" lon="-5.418435037136078">
        <ele>-10.92</ele>
        <time>2025-05-08T13:48:50Z</time>
      </trkpt>
      <trkpt lat="36.203859988600016" lon="-5.41820302605629">
        <ele>-10.44</ele>
        <time>2025-05-08T13:48:51Z</time>
      </trkpt>
      <trkpt lat="36.20391296222806" lon="-5.417972020804882">
        <ele>-10.44</ele>
        <time>2025-05-08T13:48:52Z</time>
      </trkpt>
      <trkpt lat="36.20399703271687" lon="-5.417758030816913">
        <ele>-10.44</ele>
        <time>2025-05-08T13:48:53Z</time>
      </trkpt>
      <trkpt lat="36.204087976366282" lon="-5.417544040828943">
        <ele>-9.960000000000001</ele>
        <time>2025-05-08T13:48:54Z</time>
      </trkpt>
      <trkpt lat="36.20483698323369" lon="-5.416083997115493">
        <ele>-10.44</ele>
        <time>2025-05-08T13:49:02Z</time>
      </trkpt>
      <trkpt lat="36.20556796900928" lon="-5.414290018379688">
        <ele>-11.4</ele>
        <time>2025-05-08T13:49:12Z</time>
      </trkpt>
      <trkpt lat="36.206482015550137" lon="-5.411576963961124">
        <ele>-11.880000000000001</ele>
        <time>2025-05-08T13:49:25Z</time>
      </trkpt>
      <trkpt lat="36.207020971924067" lon="-5.409187031909823">
        <ele>-12.84</ele>
        <time>2025-05-08T13:49:36Z</time>
      </trkpt>
      <trkpt lat="36.207490023225546" lon="-5.406515970826149">
        <ele>-13.32</ele>
        <time>2025-05-08T13:49:48Z</time>
      </trkpt>
      <trkpt lat="36.207762015983462" lon="-5.404555024579167">
        <ele>-10.92</ele>
        <time>2025-05-08T13:49:57Z</time>
      </trkpt>
      <trkpt lat="36.207772996276617" lon="-5.404343968257308">
        <ele>-10.44</ele>
        <time>2025-05-08T13:49:58Z</time>
      </trkpt>
      <trkpt lat="36.207639975473285" lon="-5.402243966236711">
        <ele>-7.07</ele>
        <time>2025-05-08T13:50:08Z</time>
      </trkpt>
      <trkpt lat="36.207620026543736" lon="-5.402020001783967">
        <ele>-6.59</ele>
        <time>2025-05-08T13:50:09Z</time>
      </trkpt>
      <trkpt lat="36.207376029342413" lon="-5.399593021720648">
        <ele>-7.07</ele>
        <time>2025-05-08T13:50:19Z</time>
      </trkpt>
      <trkpt lat="36.207077968865633" lon="-5.396585008129478">
        <ele>-1.3</ele>
        <time>2025-05-08T13:50:32Z</time>
      </trkpt>
      <trkpt lat="36.206983001902699" lon="-5.393814034759998">
        <ele>10.23</ele>
        <time>2025-05-08T13:50:44Z</time>
      </trkpt>
      <trkpt lat="36.20743696577847" lon="-5.390602005645633">
        <ele>24.649999999999999</ele>
        <time>2025-05-08T13:50:58Z</time>
      </trkpt>
      <trkpt lat="36.207461021840572" lon="-5.388388009741902">
        <ele>32.82</ele>
        <time>2025-05-08T13:51:08Z</time>
      </trkpt>
      <trkpt lat="36.207203026860952" lon="-5.387423001229763">
        <ele>38.109999999999999</ele>
        <time>2025-05-08T13:51:13Z</time>
      </trkpt>
      <trkpt lat="36.207048967480659" lon="-5.387108009308577">
        <ele>40.030000000000001</ele>
        <time>2025-05-08T13:51:15Z</time>
      </trkpt>
      <trkpt lat="36.205938030034304" lon="-5.385394999757409">
        <ele>49.159999999999997</ele>
        <time>2025-05-08T13:51:27Z</time>
      </trkpt>
      <trkpt lat="36.205833004787564" lon="-5.38526801392436">
        <ele>49.649999999999999</ele>
        <time>2025-05-08T13:51:28Z</time>
      </trkpt>
      <trkpt lat="36.204870007932186" lon="-5.384640041738749">
        <ele>51.090000000000003</ele>
        <time>2025-05-08T13:51:35Z</time>
      </trkpt>
      <trkpt lat="36.203524963930249" lon="-5.38406596519053">
        <ele>50.130000000000003</ele>
        <time>2025-05-08T13:51:44Z</time>
      </trkpt>
      <trkpt lat="36.201476007699966" lon="-5.383488032966852">
        <ele>39.07</ele>
        <time>2025-05-08T13:51:56Z</time>
      </trkpt>
      <trkpt lat="36.198621969670057" lon="-5.382711030542851">
        <ele>20.32</ele>
        <time>2025-05-08T13:52:11Z</time>
      </trkpt>
      <trkpt lat="36.197484964504838" lon="-5.382708013057709">
        <ele>12.630000000000001</ele>
        <time>2025-05-08T13:52:17Z</time>
      </trkpt>
      <trkpt lat="36.197300981730223" lon="-5.382756041362882">
        <ele>11.19</ele>
        <time>2025-05-08T13:52:18Z</time>
      </trkpt>
      <trkpt lat="36.195383034646511" lon="-5.383612001314759">
        <ele>5.42</ele>
        <time>2025-05-08T13:52:29Z</time>
      </trkpt>
      <trkpt lat="36.193183036521077" lon="-5.384564017876983">
        <ele>0.14</ele>
        <time>2025-05-08T13:52:41Z</time>
      </trkpt>
      <trkpt lat="36.191907981410623" lon="-5.385065004229546">
        <ele>-1.3</ele>
        <time>2025-05-08T13:52:49Z</time>
      </trkpt>
      <trkpt lat="36.191691979765892" lon="-5.385209005326033">
        <ele>-1.3</ele>
        <time>2025-05-08T13:52:51Z</time>
      </trkpt>
      <trkpt lat="36.191598018631339" lon="-5.385282011702657">
        <ele>-1.79</ele>
        <time>2025-05-08T13:52:52Z</time>
      </trkpt>
      <trkpt lat="36.191515037789941" lon="-5.385363986715674">
        <ele>-1.79</ele>
        <time>2025-05-08T13:52:53Z</time>
      </trkpt>
      <trkpt lat="36.191398026421666" lon="-5.385436993092299">
        <ele>-1.79</ele>
        <time>2025-05-08T13:52:54Z</time>
      </trkpt>
      <trkpt lat="36.191295012831688" lon="-5.385406985878944">
        <ele>-1.79</ele>
        <time>2025-05-08T13:52:55Z</time>
      </trkpt>
      <trkpt lat="36.191190993413329" lon="-5.385436993092299">
        <ele>-1.79</ele>
        <time>2025-05-08T13:52:56Z</time>
      </trkpt>
      <trkpt lat="36.191074987873435" lon="-5.385478986427188">
        <ele>-1.79</ele>
        <time>2025-05-08T13:52:57Z</time>
      </trkpt>
      <trkpt lat="36.190945990383625" lon="-5.38552600890398">
        <ele>-1.79</ele>
        <time>2025-05-08T13:52:58Z</time>
      </trkpt>
      <trkpt lat="36.190809030085802" lon="-5.385575965046883">
        <ele>-1.79</ele>
        <time>2025-05-08T13:52:59Z</time>
      </trkpt>
      <trkpt lat="36.189833963289857" lon="-5.385908978059888">
        <ele>-2.75</ele>
        <time>2025-05-08T13:53:05Z</time>
      </trkpt>
      <trkpt lat="36.189657021313906" lon="-5.385949965566397">
        <ele>-3.23</ele>
        <time>2025-05-08T13:53:06Z</time>
      </trkpt>
      <trkpt lat="36.189476978033781" lon="-5.38597603328526">
        <ele>-3.23</ele>
        <time>2025-05-08T13:53:07Z</time>
      </trkpt>
      <trkpt lat="36.18930003605783" lon="-5.385966980829835">
        <ele>-3.23</ele>
        <time>2025-05-08T13:53:08Z</time>
      </trkpt>
      <trkpt lat="36.189122004434466" lon="-5.385945020243526">
        <ele>-3.23</ele>
        <time>2025-05-08T13:53:09Z</time>
      </trkpt>
      <trkpt lat="36.188947996124625" lon="-5.385923981666565">
        <ele>-3.23</ele>
        <time>2025-05-08T13:53:10Z</time>
      </trkpt>
      <trkpt lat="36.188783962279558" lon="-5.385862961411476">
        <ele>-3.23</ele>
        <time>2025-05-08T13:53:11Z</time>
      </trkpt>
      <trkpt lat="36.188623029738665" lon="-5.385786015540361">
        <ele>-2.75</ele>
        <time>2025-05-08T13:53:12Z</time>
      </trkpt>
      <trkpt lat="36.188461007550359" lon="-5.385708985850215">
        <ele>-3.23</ele>
        <time>2025-05-08T13:53:13Z</time>
      </trkpt>
      <trkpt lat="36.18831398896873" lon="-5.385607983916998">
        <ele>-3.23</ele>
        <time>2025-05-08T13:53:14Z</time>
      </trkpt>
      <trkpt lat="36.188168982043862" lon="-5.385491978377104">
        <ele>-3.23</ele>
        <time>2025-05-08T13:53:15Z</time>
      </trkpt>
      <trkpt lat="36.188023975118995" lon="-5.38537597283721">
        <ele>-3.71</ele>
        <time>2025-05-08T13:53:16Z</time>
      </trkpt>
      <trkpt lat="36.185855995863676" lon="-5.383440004661679">
        <ele>-8.51</ele>
        <time>2025-05-08T13:53:31Z</time>
      </trkpt>
      <trkpt lat="36.184263015165925" lon="-5.382129997014999">
        <ele>-10.44</ele>
        <time>2025-05-08T13:53:43Z</time>
      </trkpt>
      <trkpt lat="36.183051997795701" lon="-5.381418038159609">
        <ele>-9.48</ele>
        <time>2025-05-08T13:53:52Z</time>
      </trkpt>
      <trkpt lat="36.182503988966346" lon="-5.381176974624395">
        <ele>-8.51</ele>
        <time>2025-05-08T13:53:58Z</time>
      </trkpt>
      <trkpt lat="36.182263009250164" lon="-5.381215028464794">
        <ele>-8.029999999999999</ele>
        <time>2025-05-08T13:54:01Z</time>
      </trkpt>
      <trkpt lat="36.182196037843823" lon="-5.381172029301524">
        <ele>-7.55</ele>
        <time>2025-05-08T13:54:02Z</time>
      </trkpt>
      <trkpt lat="36.182124959304929" lon="-5.381127018481493">
        <ele>-7.55</ele>
        <time>2025-05-08T13:54:03Z</time>
      </trkpt>
      <trkpt lat="36.182052958756685" lon="-5.381081001833081">
        <ele>-7.55</ele>
        <time>2025-05-08T13:54:04Z</time>
      </trkpt>
      <trkpt lat="36.181996967643499" lon="-5.380987040698528">
        <ele>-7.55</ele>
        <time>2025-05-08T13:54:05Z</time>
      </trkpt>
      <trkpt lat="36.18195497430861" lon="-5.380894001573324">
        <ele>-7.55</ele>
        <time>2025-05-08T13:54:06Z</time>
      </trkpt>
      <trkpt lat="36.181886997073889" lon="-5.380805991590023">
        <ele>-7.55</ele>
        <time>2025-05-08T13:54:07Z</time>
      </trkpt>
      <trkpt lat="36.181795969605446" lon="-5.380743965506554">
        <ele>-7.07</ele>
        <time>2025-05-08T13:54:08Z</time>
      </trkpt>
      <trkpt lat="36.18169697932899" lon="-5.380675988271833">
        <ele>-7.07</ele>
        <time>2025-05-08T13:54:09Z</time>
      </trkpt>
      <trkpt lat="36.180727025493979" lon="-5.380052961409092">
        <ele>-5.15</ele>
        <time>2025-05-08T13:54:19Z</time>
      </trkpt>
      <trkpt lat="36.179653974249959" lon="-5.379260033369064">
        <ele>-0.34</ele>
        <time>2025-05-08T13:54:30Z</time>
      </trkpt>
      <trkpt lat="36.179475020617247" lon="-5.379089964553714">
        <ele>0.62</ele>
        <time>2025-05-08T13:54:32Z</time>
      </trkpt>
      <trkpt lat="36.179395979270339" lon="-5.379010001197457">
        <ele>1.1</ele>
        <time>2025-05-08T13:54:33Z</time>
      </trkpt>
      <trkpt lat="36.179321967065334" lon="-5.378936994820833">
        <ele>1.58</ele>
        <time>2025-05-08T13:54:34Z</time>
      </trkpt>
      <trkpt lat="36.179190035909414" lon="-5.378814032301307">
        <ele>2.06</ele>
        <time>2025-05-08T13:54:36Z</time>
      </trkpt>
      <trkpt lat="36.178529961034656" lon="-5.378159992396832">
        <ele>5.42</ele>
        <time>2025-05-08T13:54:47Z</time>
      </trkpt>
      <trkpt lat="36.178458966314793" lon="-5.378104001283646">
        <ele>5.91</ele>
        <time>2025-05-08T13:54:48Z</time>
      </trkpt>
      <trkpt lat="36.178100975230336" lon="-5.377759002149105">
        <ele>6.39</ele>
        <time>2025-05-08T13:54:53Z</time>
      </trkpt>
      <trkpt lat="36.178041966632009" lon="-5.377674009650946">
        <ele>6.39</ele>
        <time>2025-05-08T13:54:54Z</time>
      </trkpt>
      <trkpt lat="36.177489012479782" lon="-5.376710006967187">
        <ele>5.42</ele>
        <time>2025-05-08T13:55:05Z</time>
      </trkpt>
      <trkpt lat="36.177340988069773" lon="-5.376474978402257">
        <ele>5.42</ele>
        <time>2025-05-08T13:55:08Z</time>
      </trkpt>
      <trkpt lat="36.177172008901834" lon="-5.376252019777894">
        <ele>5.91</ele>
        <time>2025-05-08T13:55:11Z</time>
      </trkpt>
      <trkpt lat="36.177109982818365" lon="-5.376182030886412">
        <ele>6.39</ele>
        <time>2025-05-08T13:55:12Z</time>
      </trkpt>
      <trkpt lat="36.176688959822059" lon="-5.375703005120158">
        <ele>8.789999999999999</ele>
        <time>2025-05-08T13:55:18Z</time>
      </trkpt>
      <trkpt lat="36.175760999321938" lon="-5.374595001339912">
        <ele>9.75</ele>
        <time>2025-05-08T13:55:30Z</time>
      </trkpt>
      <trkpt lat="36.17567902430892" lon="-5.37450397387147">
        <ele>9.75</ele>
        <time>2025-05-08T13:55:31Z</time>
      </trkpt>
      <trkpt lat="36.17540099658072" lon="-5.374280009418726">
        <ele>10.23</ele>
        <time>2025-05-08T13:55:34Z</time>
      </trkpt>
      <trkpt lat="36.174447974190116" lon="-5.37362102419138">
        <ele>9.27</ele>
        <time>2025-05-08T13:55:45Z</time>
      </trkpt>
      <trkpt lat="36.173428986221552" lon="-5.372835975140333">
        <ele>7.83</ele>
        <time>2025-05-08T13:55:57Z</time>
      </trkpt>
      <trkpt lat="36.173032019287348" lon="-5.37250597961247">
        <ele>6.87</ele>
        <time>2025-05-08T13:56:04Z</time>
      </trkpt>
      <trkpt lat="36.173032019287348" lon="-5.37250597961247">
        <ele>6.87</ele>
        <time>2025-05-08T13:56:15Z</time>
      </trkpt>
      <trkpt lat="36.172900004312396" lon="-5.372399026528001">
        <ele>6.87</ele>
        <time>2025-05-08T13:56:52Z</time>
      </trkpt>
      <trkpt lat="36.172164995223284" lon="-5.371768958866596">
        <ele>4.46</ele>
        <time>2025-05-08T13:57:02Z</time>
      </trkpt>
      <trkpt lat="36.171027990058064" lon="-5.37113101221621">
        <ele>3.02</ele>
        <time>2025-05-08T13:57:13Z</time>
      </trkpt>
      <trkpt lat="36.170916007831693" lon="-5.371086001396179">
        <ele>3.02</ele>
        <time>2025-05-08T13:57:14Z</time>
      </trkpt>
      <trkpt lat="36.170078990980983" lon="-5.370775032788515">
        <ele>3.02</ele>
        <time>2025-05-08T13:57:21Z</time>
      </trkpt>
      <trkpt lat="36.169962985441089" lon="-5.370696997269988">
        <ele>3.02</ele>
        <time>2025-05-08T13:57:22Z</time>
      </trkpt>
      <trkpt lat="36.169845974072814" lon="-5.370618961751461">
        <ele>3.02</ele>
        <time>2025-05-08T13:57:23Z</time>
      </trkpt>
      <trkpt lat="36.168851964175701" lon="-5.369635010138154">
        <ele>3.5</ele>
        <time>2025-05-08T13:57:33Z</time>
      </trkpt>
      <trkpt lat="36.168785998597741" lon="-5.369524033740163">
        <ele>3.5</ele>
        <time>2025-05-08T13:57:34Z</time>
      </trkpt>
      <trkpt lat="36.168560022488236" lon="-5.369103010743856">
        <ele>3.02</ele>
        <time>2025-05-08T13:57:38Z</time>
      </trkpt>
      <trkpt lat="36.168496990576386" lon="-5.369012989103794">
        <ele>2.54</ele>
        <time>2025-05-08T13:57:39Z</time>
      </trkpt>
      <trkpt lat="36.168436976149678" lon="-5.368951968848705">
        <ele>2.54</ele>
        <time>2025-05-08T13:57:40Z</time>
      </trkpt>
      <trkpt lat="36.168378973379731" lon="-5.368894971907139">
        <ele>2.54</ele>
        <time>2025-05-08T13:57:41Z</time>
      </trkpt>
      <trkpt lat="36.168325999751687" lon="-5.368840992450714">
        <ele>2.06</ele>
        <time>2025-05-08T13:57:42Z</time>
      </trkpt>
      <trkpt lat="36.168275037780404" lon="-5.368791036307812">
        <ele>2.06</ele>
        <time>2025-05-08T13:57:43Z</time>
      </trkpt>
      <trkpt lat="36.168226003646851" lon="-5.368748037144542">
        <ele>1.58</ele>
        <time>2025-05-08T13:57:44Z</time>
      </trkpt>
      <trkpt lat="36.168177975341678" lon="-5.368709983304143">
        <ele>1.58</ele>
        <time>2025-05-08T13:57:45Z</time>
      </trkpt>
      <trkpt lat="36.168142016977072" lon="-5.368648041039705">
        <ele>1.1</ele>
        <time>2025-05-08T13:57:46Z</time>
      </trkpt>
      <trkpt lat="36.168127013370395" lon="-5.368576962500811">
        <ele>0.14</ele>
        <time>2025-05-08T13:57:47Z</time>
      </trkpt>
      <trkpt lat="36.168107986450195" lon="-5.368494987487793">
        <ele>-0.34</ele>
        <time>2025-05-08T13:57:48Z</time>
      </trkpt>
      <trkpt lat="36.168107986450195" lon="-5.368418963626027">
        <ele>-0.82</ele>
        <time>2025-05-08T13:57:49Z</time>
      </trkpt>
      <trkpt lat="36.168098011985421" lon="-5.368148982524872">
        <ele>-2.27</ele>
        <time>2025-05-08T13:57:52Z</time>
      </trkpt>
      <trkpt lat="36.168088959529996" lon="-5.36805996671319">
        <ele>-2.75</ele>
        <time>2025-05-08T13:57:53Z</time>
      </trkpt>
      <trkpt lat="36.16807596758008" lon="-5.367917977273464">
        <ele>-3.71</ele>
        <time>2025-05-08T13:57:55Z</time>
      </trkpt>
      <trkpt lat="36.167988041415811" lon="-5.367580018937588">
        <ele>-6.11</ele>
        <time>2025-05-08T13:58:06Z</time>
      </trkpt>
      <trkpt lat="36.16794403642416" lon="-5.367455966770649">
        <ele>-5.15</ele>
        <time>2025-05-08T13:58:43Z</time>
      </trkpt>
      <trkpt lat="36.16753701120615" lon="-5.36638199351728">
        <ele>-4.19</ele>
        <time>2025-05-08T13:58:56Z</time>
      </trkpt>
      <trkpt lat="36.167158987373114" lon="-5.365339033305645">
        <ele>-3.71</ele>
        <time>2025-05-08T13:59:07Z</time>
      </trkpt>
      <trkpt lat="36.16704298183322" lon="-5.365102998912334">
        <ele>-3.71</ele>
        <time>2025-05-08T13:59:10Z</time>
      </trkpt>
      <trkpt lat="36.166953966021538" lon="-5.364966038614512">
        <ele>-3.23</ele>
        <time>2025-05-08T13:59:12Z</time>
      </trkpt>
      <trkpt lat="36.166908033192158" lon="-5.364895965903997">
        <ele>-2.75</ele>
        <time>2025-05-08T13:59:13Z</time>
      </trkpt>
      <trkpt lat="36.16676302626729" lon="-5.364675018936396">
        <ele>-2.27</ele>
        <time>2025-05-08T13:59:16Z</time>
      </trkpt>
      <trkpt lat="36.166714997962117" lon="-5.364603018388152">
        <ele>-2.27</ele>
        <time>2025-05-08T13:59:17Z</time>
      </trkpt>
      <trkpt lat="36.166710974648595" lon="-5.364520037546754">
        <ele>-2.27</ele>
        <time>2025-05-08T13:59:18Z</time>
      </trkpt>
      <trkpt lat="36.166727989912033" lon="-5.364253995940089">
        <ele>-2.27</ele>
        <time>2025-05-08T13:59:20Z</time>
      </trkpt>
      <trkpt lat="36.166687002405524" lon="-5.364171015098691">
        <ele>-2.27</ele>
        <time>2025-05-08T13:59:21Z</time>
      </trkpt>
      <trkpt lat="36.166457002982497" lon="-5.363711016252637">
        <ele>-1.79</ele>
        <time>2025-05-08T13:59:26Z</time>
      </trkpt>
      <trkpt lat="36.166408974677324" lon="-5.363618982955813">
        <ele>-1.79</ele>
        <time>2025-05-08T13:59:27Z</time>
      </trkpt>
      <trkpt lat="36.165935983881354" lon="-5.362728992477059">
        <ele>0.62</ele>
        <time>2025-05-08T13:59:38Z</time>
      </trkpt>
      <trkpt lat="36.165399961173534" lon="-5.361841013655067">
        <ele>2.06</ele>
        <time>2025-05-08T13:59:49Z</time>
      </trkpt>
      <trkpt lat="36.164939040318131" lon="-5.361207006499171">
        <ele>2.06</ele>
        <time>2025-05-08T13:59:58Z</time>
      </trkpt>
      <trkpt lat="36.16487299092114" lon="-5.361150009557605">
        <ele>2.06</ele>
        <time>2025-05-08T13:59:59Z</time>
      </trkpt>
      <trkpt lat="36.164741981774569" lon="-5.361029980704188">
        <ele>2.06</ele>
        <time>2025-05-08T14:00:01Z</time>
      </trkpt>
      <trkpt lat="36.16467903368175" lon="-5.360968038439751">
        <ele>2.06</ele>
        <time>2025-05-08T14:00:02Z</time>
      </trkpt>
      <trkpt lat="36.164626982063055" lon="-5.360871981829405">
        <ele>2.06</ele>
        <time>2025-05-08T14:00:03Z</time>
      </trkpt>
      <trkpt lat="36.164617007598281" lon="-5.360780032351613">
        <ele>1.58</ele>
        <time>2025-05-08T14:00:04Z</time>
      </trkpt>
      <trkpt lat="36.164606027305126" lon="-5.360683975741267">
        <ele>1.1</ele>
        <time>2025-05-08T14:00:05Z</time>
      </trkpt>
      <trkpt lat="36.16459496319294" lon="-5.360583979636431">
        <ele>1.1</ele>
        <time>2025-05-08T14:00:06Z</time>
      </trkpt>
      <trkpt lat="36.164577025920153" lon="-5.360475014895201">
        <ele>1.1</ele>
        <time>2025-05-08T14:00:07Z</time>
      </trkpt>
      <trkpt lat="36.164535032585263" lon="-5.360263036563993">
        <ele>0.62</ele>
        <time>2025-05-08T14:00:09Z</time>
      </trkpt>
      <trkpt lat="36.164513994008303" lon="-5.360157005488873">
        <ele>0.62</ele>
        <time>2025-05-08T14:00:10Z</time>
      </trkpt>
      <trkpt lat="36.164472000673413" lon="-5.360048040747643">
        <ele>0.62</ele>
        <time>2025-05-08T14:00:11Z</time>
      </trkpt>
      <trkpt lat="36.16442296653986" lon="-5.359960030764341">
        <ele>0.62</ele>
        <time>2025-05-08T14:00:12Z</time>
      </trkpt>
      <trkpt lat="36.164374016225338" lon="-5.35987202078104">
        <ele>1.1</ele>
        <time>2025-05-08T14:00:13Z</time>
      </trkpt>
      <trkpt lat="36.163688963279128" lon="-5.3587999753654">
        <ele>3.5</ele>
        <time>2025-05-08T14:00:25Z</time>
      </trkpt>
      <trkpt lat="36.163026038557291" lon="-5.357871009036899">
        <ele>3.02</ele>
        <time>2025-05-08T14:00:37Z</time>
      </trkpt>
      <trkpt lat="36.162767959758639" lon="-5.357578983530402">
        <ele>3.98</ele>
        <time>2025-05-08T14:00:42Z</time>
      </trkpt>
      <trkpt lat="36.162711968645453" lon="-5.357539001852274">
        <ele>4.46</ele>
        <time>2025-05-08T14:00:43Z</time>
      </trkpt>
      <trkpt lat="36.162653965875506" lon="-5.357498014345765">
        <ele>4.94</ele>
        <time>2025-05-08T14:00:44Z</time>
      </trkpt>
      <trkpt lat="36.162597974762321" lon="-5.357459038496018">
        <ele>4.94</ele>
        <time>2025-05-08T14:00:45Z</time>
      </trkpt>
      <trkpt lat="36.162540977820754" lon="-5.357418972998858">
        <ele>5.42</ele>
        <time>2025-05-08T14:00:46Z</time>
      </trkpt>
      <trkpt lat="36.162401000037789" lon="-5.357358958572149">
        <ele>5.91</ele>
        <time>2025-05-08T14:00:48Z</time>
      </trkpt>
      <trkpt lat="36.162361018359661" lon="-5.357318976894021">
        <ele>6.39</ele>
        <time>2025-05-08T14:00:49Z</time>
      </trkpt>
      <trkpt lat="36.162307038903236" lon="-5.357264997437596">
        <ele>6.39</ele>
        <time>2025-05-08T14:00:50Z</time>
      </trkpt>
      <trkpt lat="36.162251969799399" lon="-5.357210012152791">
        <ele>6.87</ele>
        <time>2025-05-08T14:00:51Z</time>
      </trkpt>
      <trkpt lat="36.162202013656497" lon="-5.357137005776167">
        <ele>6.87</ele>
        <time>2025-05-08T14:00:52Z</time>
      </trkpt>
      <trkpt lat="36.162186004221439" lon="-5.35705603659153">
        <ele>6.87</ele>
        <time>2025-05-08T14:00:53Z</time>
      </trkpt>
      <trkpt lat="36.162168988958001" lon="-5.356971966102719">
        <ele>7.35</ele>
        <time>2025-05-08T14:00:54Z</time>
      </trkpt>
      <trkpt lat="36.162059018388391" lon="-5.356826959177852">
        <ele>6.87</ele>
        <time>2025-05-08T14:00:56Z</time>
      </trkpt>
      <trkpt lat="36.162005960941315" lon="-5.356763005256653">
        <ele>6.87</ele>
        <time>2025-05-08T14:00:57Z</time>
      </trkpt>
      <trkpt lat="36.16195198148489" lon="-5.356699973344803">
        <ele>6.87</ele>
        <time>2025-05-08T14:00:58Z</time>
      </trkpt>
      <trkpt lat="36.161898002028465" lon="-5.356636019423604">
        <ele>7.35</ele>
        <time>2025-05-08T14:00:59Z</time>
      </trkpt>
      <trkpt lat="36.161844022572041" lon="-5.356572987511754">
        <ele>7.35</ele>
        <time>2025-05-08T14:01:00Z</time>
      </trkpt>
      <trkpt lat="36.161791970953345" lon="-5.356511967256665">
        <ele>7.83</ele>
        <time>2025-05-08T14:01:01Z</time>
      </trkpt>
      <trkpt lat="36.161737991496921" lon="-5.356449019163847">
        <ele>8.310000000000001</ele>
        <time>2025-05-08T14:01:02Z</time>
      </trkpt>
      <trkpt lat="36.160926036536694" lon="-5.355627005919814">
        <ele>8.789999999999999</ele>
        <time>2025-05-08T14:01:14Z</time>
      </trkpt>
      <trkpt lat="36.16016898304224" lon="-5.354912029579282">
        <ele>7.83</ele>
        <time>2025-05-08T14:01:25Z</time>
      </trkpt>
      <trkpt lat="36.159450989216566" lon="-5.354261007159948">
        <ele>6.87</ele>
        <time>2025-05-08T14:01:35Z</time>
      </trkpt>
      <trkpt lat="36.158735007047653" lon="-5.35362197086215">
        <ele>6.87</ele>
        <time>2025-05-08T14:01:47Z</time>
      </trkpt>
      <trkpt lat="36.158520011231303" lon="-5.353601016104221">
        <ele>7.83</ele>
        <time>2025-05-08T14:01:52Z</time>
      </trkpt>
      <trkpt lat="36.158463014289737" lon="-5.353566985577345">
        <ele>7.83</ele>
        <time>2025-05-08T14:01:53Z</time>
      </trkpt>
      <trkpt lat="36.158452033996582" lon="-5.353561034426093">
        <ele>7.83</ele>
        <time>2025-05-08T14:01:54Z</time>
      </trkpt>
      <trkpt lat="36.158386990427971" lon="-5.35340596921742">
        <ele>7.83</ele>
        <time>2025-05-08T14:01:55Z</time>
      </trkpt>
      <trkpt lat="36.158330999314785" lon="-5.353373028337956">
        <ele>7.35</ele>
        <time>2025-05-08T14:01:56Z</time>
      </trkpt>
      <trkpt lat="36.158269979059696" lon="-5.353337991982698">
        <ele>7.35</ele>
        <time>2025-05-08T14:01:57Z</time>
      </trkpt>
      <trkpt lat="36.158199990168214" lon="-5.35329700447619">
        <ele>7.35</ele>
        <time>2025-05-08T14:01:58Z</time>
      </trkpt>
      <trkpt lat="36.158120026811957" lon="-5.353251993656158">
        <ele>7.35</ele>
        <time>2025-05-08T14:01:59Z</time>
      </trkpt>
      <trkpt lat="36.158036040142179" lon="-5.353205977007747">
        <ele>7.83</ele>
        <time>2025-05-08T14:02:00Z</time>
      </trkpt>
      <trkpt lat="36.157037001103163" lon="-5.352581022307277">
        <ele>7.35</ele>
        <time>2025-05-08T14:02:11Z</time>
      </trkpt>
      <trkpt lat="36.15660298615694" lon="-5.35213896073401">
        <ele>5.42</ele>
        <time>2025-05-08T14:02:17Z</time>
      </trkpt>
      <trkpt lat="36.156545989215374" lon="-5.352054974064231">
        <ele>5.42</ele>
        <time>2025-05-08T14:02:18Z</time>
      </trkpt>
      <trkpt lat="36.15649402141571" lon="-5.351980039849877">
        <ele>5.42</ele>
        <time>2025-05-08T14:02:19Z</time>
      </trkpt>
      <trkpt lat="36.156445993110538" lon="-5.351910972967744">
        <ele>5.42</ele>
        <time>2025-05-08T14:02:20Z</time>
      </trkpt>
      <trkpt lat="36.156370975077152" lon="-5.351801002398133">
        <ele>5.42</ele>
        <time>2025-05-08T14:02:21Z</time>
      </trkpt>
      <trkpt lat="36.156324958428741" lon="-5.351769989356399">
        <ele>5.42</ele>
        <time>2025-05-08T14:02:22Z</time>
      </trkpt>
      <trkpt lat="36.156185986474156" lon="-5.351818017661572">
        <ele>4.94</ele>
        <time>2025-05-08T14:02:23Z</time>
      </trkpt>
      <trkpt lat="36.156117003411055" lon="-5.351852970197797">
        <ele>4.94</ele>
        <time>2025-05-08T14:02:24Z</time>
      </trkpt>
      <trkpt lat="36.156048020347953" lon="-5.351894963532686">
        <ele>4.46</ele>
        <time>2025-05-08T14:02:25Z</time>
      </trkpt>
      <trkpt lat="36.1559799592942" lon="-5.351939974352717">
        <ele>4.46</ele>
        <time>2025-05-08T14:02:26Z</time>
      </trkpt>
      <trkpt lat="36.155914999544621" lon="-5.351982973515987">
        <ele>3.98</ele>
        <time>2025-05-08T14:02:27Z</time>
      </trkpt>
      <trkpt lat="36.155853979289532" lon="-5.35207400098443">
        <ele>3.98</ele>
        <time>2025-05-08T14:02:28Z</time>
      </trkpt>
      <trkpt lat="36.155815003439784" lon="-5.352144995704293">
        <ele>3.5</ele>
        <time>2025-05-08T14:02:29Z</time>
      </trkpt>
      <trkpt lat="36.155776027590036" lon="-5.352186989039183">
        <ele>3.5</ele>
        <time>2025-05-08T14:02:30Z</time>
      </trkpt>
      <trkpt lat="36.155706960707903" lon="-5.352186989039183">
        <ele>3.02</ele>
        <time>2025-05-08T14:02:31Z</time>
      </trkpt>
      <trkpt lat="36.155642000958323" lon="-5.352186989039183">
        <ele>3.02</ele>
        <time>2025-05-08T14:02:32Z</time>
      </trkpt>
      <trkpt lat="36.155587015673518" lon="-5.352147007361054">
        <ele>3.02</ele>
        <time>2025-05-08T14:02:33Z</time>
      </trkpt>
      <trkpt lat="36.155548961833119" lon="-5.352107025682926">
        <ele>3.02</ele>
        <time>2025-05-08T14:02:34Z</time>
      </trkpt>
      <trkpt lat="36.155528007075191" lon="-5.352054974064231">
        <ele>3.02</ele>
        <time>2025-05-08T14:02:35Z</time>
      </trkpt>
      <trkpt lat="36.155513003468513" lon="-5.352015998214483">
        <ele>3.02</ele>
        <time>2025-05-08T14:02:36Z</time>
      </trkpt>
      <trkpt lat="36.155476961284876" lon="-5.351980039849877">
        <ele>3.02</ele>
        <time>2025-05-08T14:02:37Z</time>
      </trkpt>
      <trkpt lat="36.155445026233792" lon="-5.351948020979762">
        <ele>3.02</ele>
        <time>2025-05-08T14:02:38Z</time>
      </trkpt>
      <trkpt lat="36.155398003757" lon="-5.351916002109647">
        <ele>3.02</ele>
        <time>2025-05-08T14:02:39Z</time>
      </trkpt>
      <trkpt lat="36.155343018472195" lon="-5.351888006553054">
        <ele>3.02</ele>
        <time>2025-05-08T14:02:40Z</time>
      </trkpt>
      <trkpt lat="36.155284009873867" lon="-5.3518579993397">
        <ele>3.02</ele>
        <time>2025-05-08T14:02:41Z</time>
      </trkpt>
      <trkpt lat="36.155221983790398" lon="-5.351826986297965">
        <ele>3.02</ele>
        <time>2025-05-08T14:02:42Z</time>
      </trkpt>
      <trkpt lat="36.155159035697579" lon="-5.351784992963076">
        <ele>3.02</ele>
        <time>2025-05-08T14:02:43Z</time>
      </trkpt>
      <trkpt lat="36.155106984078884" lon="-5.351710980758071">
        <ele>3.02</ele>
        <time>2025-05-08T14:02:44Z</time>
      </trkpt>
      <trkpt lat="36.15505401045084" lon="-5.351635962724686">
        <ele>3.02</ele>
        <time>2025-05-08T14:02:45Z</time>
      </trkpt>
      <trkpt lat="36.155012017115951" lon="-5.351552981883287">
        <ele>2.54</ele>
        <time>2025-05-08T14:02:46Z</time>
      </trkpt>
      <trkpt lat="36.154991984367371" lon="-5.351463966071606">
        <ele>2.06</ele>
        <time>2025-05-08T14:02:47Z</time>
      </trkpt>
      <trkpt lat="36.154977986589074" lon="-5.351368999108672">
        <ele>1.58</ele>
        <time>2025-05-08T14:02:48Z</time>
      </trkpt>
      <trkpt lat="36.154985027387738" lon="-5.351286018267274">
        <ele>1.1</ele>
        <time>2025-05-08T14:02:49Z</time>
      </trkpt>
      <trkpt lat="36.154988966882229" lon="-5.351227009668946">
        <ele>0.62</ele>
        <time>2025-05-08T14:02:50Z</time>
      </trkpt>
      <trkpt lat="36.155016040429473" lon="-5.350878993049264">
        <ele>-3.23</ele>
        <time>2025-05-08T14:02:59Z</time>
      </trkpt>
      <trkpt lat="36.155022997409105" lon="-5.350785031914711">
        <ele>-4.19</ele>
        <time>2025-05-08T14:03:06Z</time>
      </trkpt>
      <trkpt lat="36.155022997409105" lon="-5.350785031914711">
        <ele>-5.15</ele>
        <time>2025-05-08T14:03:23Z</time>
      </trkpt>
      <trkpt lat="36.155041018500924" lon="-5.350556038320065">
        <ele>-6.11</ele>
        <time>2025-05-08T14:03:55Z</time>
      </trkpt>
      <trkpt lat="36.155111007392406" lon="-5.349628999829292">
        <ele>-7.07</ele>
        <time>2025-05-08T14:04:04Z</time>
      </trkpt>
      <trkpt lat="36.155142020434141" lon="-5.349544007331133">
        <ele>-7.07</ele>
        <time>2025-05-08T14:04:05Z</time>
      </trkpt>
      <trkpt lat="36.155212009325624" lon="-5.349520035088062">
        <ele>-6.59</ele>
        <time>2025-05-08T14:04:06Z</time>
      </trkpt>
      <trkpt lat="36.155293984338641" lon="-5.349511988461018">
        <ele>-6.59</ele>
        <time>2025-05-08T14:04:07Z</time>
      </trkpt>
      <trkpt lat="36.15537797100842" lon="-5.349503019824624">
        <ele>-6.11</ele>
        <time>2025-05-08T14:04:08Z</time>
      </trkpt>
      <trkpt lat="36.155897984281182" lon="-5.349449962377548">
        <ele>-5.63</ele>
        <time>2025-05-08T14:04:15Z</time>
      </trkpt>
      <trkpt lat="36.155936038121581" lon="-5.349446022883058">
        <ele>-5.63</ele>
        <time>2025-05-08T14:04:16Z</time>
      </trkpt>
      <trkpt lat="36.155967973172665" lon="-5.349443005397916">
        <ele>-5.63</ele>
        <time>2025-05-08T14:04:17Z</time>
      </trkpt>
      <trkpt lat="36.156003009527922" lon="-5.349385002627969">
        <ele>-5.63</ele>
        <time>2025-05-08T14:04:18Z</time>
      </trkpt>
      <trkpt lat="36.156018013134599" lon="-5.349339991807938">
        <ele>-6.11</ele>
        <time>2025-05-08T14:04:19Z</time>
      </trkpt>
      <trkpt lat="36.156027987599373" lon="-5.349272014573216">
        <ele>-6.11</ele>
        <time>2025-05-08T14:04:20Z</time>
      </trkpt>
      <trkpt lat="36.156027987599373" lon="-5.349193979054689">
        <ele>-6.11</ele>
        <time>2025-05-08T14:04:21Z</time>
      </trkpt>
      <trkpt lat="36.156027987599373" lon="-5.349116027355194">
        <ele>-6.11</ele>
        <time>2025-05-08T14:04:22Z</time>
      </trkpt>
      <trkpt lat="36.156027987599373" lon="-5.349044026806951">
        <ele>-6.59</ele>
        <time>2025-05-08T14:04:23Z</time>
      </trkpt>
      <trkpt lat="36.156027987599373" lon="-5.348471039906144">
        <ele>-5.15</ele>
        <time>2025-05-08T14:04:32Z</time>
      </trkpt>
      <trkpt lat="36.155922962352633" lon="-5.348345981910825">
        <ele>-2.27</ele>
        <time>2025-05-08T14:04:37Z</time>
      </trkpt>
      <trkpt lat="36.155889015644789" lon="-5.348345981910825">
        <ele>-1.79</ele>
        <time>2025-05-08T14:04:38Z</time>
      </trkpt>
      <trkpt lat="36.155850039795041" lon="-5.348345981910825">
        <ele>-1.3</ele>
        <time>2025-05-08T14:04:39Z</time>
      </trkpt>
      <trkpt lat="36.155819026753306" lon="-5.348345981910825">
        <ele>-0.82</ele>
        <time>2025-05-08T14:04:40Z</time>
      </trkpt>
      <trkpt lat="36.155797988176346" lon="-5.348345981910825">
        <ele>-0.82</ele>
        <time>2025-05-08T14:04:41Z</time>
      </trkpt>
      <trkpt lat="36.155779967084527" lon="-5.348345981910825">
        <ele>-0.34</ele>
        <time>2025-05-08T14:04:42Z</time>
      </trkpt>
      <trkpt lat="36.155763035640121" lon="-5.348345981910825">
        <ele>0.14</ele>
        <time>2025-05-08T14:04:43Z</time>
      </trkpt>
      <trkpt lat="36.155649963766336" lon="-5.348350005224347">
        <ele>1.1</ele>
        <time>2025-05-08T14:04:49Z</time>
      </trkpt>
      <trkpt lat="36.155609982088208" lon="-5.348352016881108">
        <ele>1.1</ele>
        <time>2025-05-08T14:04:50Z</time>
      </trkpt>
      <trkpt lat="36.155573017895222" lon="-5.348353022709489">
        <ele>1.1</ele>
        <time>2025-05-08T14:04:51Z</time>
      </trkpt>
      <trkpt lat="36.155544016510248" lon="-5.34835402853787">
        <ele>1.1</ele>
        <time>2025-05-08T14:04:52Z</time>
      </trkpt>
      <trkpt lat="36.155519038438797" lon="-5.34835503436625">
        <ele>0.62</ele>
        <time>2025-05-08T14:04:53Z</time>
      </trkpt>
      <trkpt lat="36.155493976548314" lon="-5.348356040194631">
        <ele>0.62</ele>
        <time>2025-05-08T14:04:54Z</time>
      </trkpt>
      <trkpt lat="36.15546396933496" lon="-5.34835696220398">
        <ele>0.14</ele>
        <time>2025-05-08T14:04:55Z</time>
      </trkpt>
      <trkpt lat="36.155434967949986" lon="-5.34835796803236">
        <ele>-0.34</ele>
        <time>2025-05-08T14:04:56Z</time>
      </trkpt>
      <trkpt lat="36.155407978221774" lon="-5.348358973860741">
        <ele>-0.34</ele>
        <time>2025-05-08T14:04:57Z</time>
      </trkpt>
      <trkpt lat="36.155375959351659" lon="-5.348359979689121">
        <ele>-0.34</ele>
        <time>2025-05-08T14:04:58Z</time>
      </trkpt>
      <trkpt lat="36.155335977673531" lon="-5.348360985517502">
        <ele>-0.34</ele>
        <time>2025-05-08T14:04:59Z</time>
      </trkpt>
      <trkpt lat="36.155295995995402" lon="-5.348362997174263">
        <ele>-0.34</ele>
        <time>2025-05-08T14:05:00Z</time>
      </trkpt>
      <trkpt lat="36.155073959380388" lon="-5.348373977467418">
        <ele>0.14</ele>
        <time>2025-05-08T14:05:12Z</time>
      </trkpt>
      <trkpt lat="36.155073959380388" lon="-5.348373977467418">
        <ele>0.14</ele>
        <time>2025-05-08T14:05:47Z</time>
      </trkpt>
      <trkpt lat="36.155073959380388" lon="-5.348373977467418">
        <ele>0.14</ele>
        <time>2025-05-08T14:06:20Z</time>
      </trkpt>
      <trkpt lat="36.155030038207769" lon="-5.34837699495256">
        <ele>-0.34</ele>
        <time>2025-05-08T14:07:04Z</time>
      </trkpt>
      <trkpt lat="36.155007993802428" lon="-5.348379006609321">
        <ele>-0.82</ele>
        <time>2025-05-08T14:07:05Z</time>
      </trkpt>
      <trkpt lat="36.154983015730977" lon="-5.348381018266082">
        <ele>-1.79</ele>
        <time>2025-05-08T14:07:18Z</time>
      </trkpt>
      <trkpt lat="36.154957031831145" lon="-5.348384035751224">
        <ele>-2.75</ele>
        <time>2025-05-08T14:07:21Z</time>
      </trkpt>
      <trkpt lat="36.154917972162366" lon="-5.348386969417334">
        <ele>-3.71</ele>
        <time>2025-05-08T14:07:22Z</time>
      </trkpt>
      <trkpt lat="36.154852006584406" lon="-5.348388981074095">
        <ele>-4.67</ele>
        <time>2025-05-08T14:07:23Z</time>
      </trkpt>
      <trkpt lat="36.154669029638171" lon="-5.348388981074095">
        <ele>-9.48</ele>
        <time>2025-05-08T14:07:31Z</time>
      </trkpt>
      <trkpt lat="36.154394019395113" lon="-5.348411025479436">
        <ele>-12.359999999999999</ele>
        <time>2025-05-08T14:07:40Z</time>
      </trkpt>
      <trkpt lat="36.154329981654882" lon="-5.348387975245714">
        <ele>-11.4</ele>
        <time>2025-05-08T14:07:43Z</time>
      </trkpt>
      <trkpt lat="36.154327969998121" lon="-5.348361991345882">
        <ele>-11.4</ele>
        <time>2025-05-08T14:07:44Z</time>
      </trkpt>
      <trkpt lat="36.15432595834136" lon="-5.348340030759573">
        <ele>-11.4</ele>
        <time>2025-05-08T14:07:45Z</time>
      </trkpt>
      <trkpt lat="36.154311960563064" lon="-5.348198041319847">
        <ele>-10.44</ele>
        <time>2025-05-08T14:07:56Z</time>
      </trkpt>
      <trkpt lat="36.154331993311644" lon="-5.347853964194655">
        <ele>-9</ele>
        <time>2025-05-08T14:08:05Z</time>
      </trkpt>
      <trkpt lat="36.154389996081591" lon="-5.34704796038568">
        <ele>-7.07</ele>
        <time>2025-05-08T14:08:16Z</time>
      </trkpt>
      <trkpt lat="36.154397036880255" lon="-5.346428034827113">
        <ele>-5.15</ele>
        <time>2025-05-08T14:08:22Z</time>
      </trkpt>
      <trkpt lat="36.154397036880255" lon="-5.34596904180944">
        <ele>-5.15</ele>
        <time>2025-05-08T14:08:26Z</time>
      </trkpt>
      <trkpt lat="36.154397036880255" lon="-5.345594035461545">
        <ele>-5.15</ele>
        <time>2025-05-08T14:08:30Z</time>
      </trkpt>
      <trkpt lat="36.154268039390445" lon="-5.345450034365058">
        <ele>-5.15</ele>
        <time>2025-05-08T14:08:31Z</time>
      </trkpt>
      <trkpt lat="36.154252029955387" lon="-5.345365963876247">
        <ele>-5.63</ele>
        <time>2025-05-08T14:08:33Z</time>
      </trkpt>
      <trkpt lat="36.154247000813484" lon="-5.345341991633177">
        <ele>-5.63</ele>
        <time>2025-05-08T14:08:34Z</time>
      </trkpt>
      <trkpt lat="36.154305003583431" lon="-5.345226991921663">
        <ele>-5.63</ele>
        <time>2025-05-08T14:08:35Z</time>
      </trkpt>
      <trkpt lat="36.15432595834136" lon="-5.345106041058898">
        <ele>-6.11</ele>
        <time>2025-05-08T14:08:36Z</time>
      </trkpt>
      <trkpt lat="36.154315983876586" lon="-5.345005039125681">
        <ele>-6.59</ele>
        <time>2025-05-08T14:08:37Z</time>
      </trkpt>
      <trkpt lat="36.154305003583431" lon="-5.344892973080277">
        <ele>-6.59</ele>
        <time>2025-05-08T14:08:38Z</time>
      </trkpt>
      <trkpt lat="36.154289999976754" lon="-5.344741009175777">
        <ele>-6.59</ele>
        <time>2025-05-08T14:08:39Z</time>
      </trkpt>
      <trkpt lat="36.154268039390445" lon="-5.344643024727702">
        <ele>-6.59</ele>
        <time>2025-05-08T14:08:40Z</time>
      </trkpt>
      <trkpt lat="36.15423996001482" lon="-5.344516038894653">
        <ele>-6.11</ele>
        <time>2025-05-08T14:08:41Z</time>
      </trkpt>
      <trkpt lat="36.153796976432204" lon="-5.342713007703424">
        <ele>-5.63</ele>
        <time>2025-05-08T14:08:55Z</time>
      </trkpt>
      <trkpt lat="36.153260031715035" lon="-5.34120099619031">
        <ele>-11.4</ele>
        <time>2025-05-08T14:09:06Z</time>
      </trkpt>
      <trkpt lat="36.153191970661283" lon="-5.34109496511519">
        <ele>-12.359999999999999</ele>
        <time>2025-05-08T14:09:07Z</time>
      </trkpt>
      <trkpt lat="36.153046041727066" lon="-5.340864965692163">
        <ele>-13.800000000000001</ele>
        <time>2025-05-08T14:09:09Z</time>
      </trkpt>
      <trkpt lat="36.152963982895017" lon="-5.340736974030733">
        <ele>-14.76</ele>
        <time>2025-05-08T14:09:10Z</time>
      </trkpt>
      <trkpt lat="36.152959037572145" lon="-5.34072901122272">
        <ele>-15.720000000000001</ele>
        <time>2025-05-08T14:09:11Z</time>
      </trkpt>
      <trkpt lat="36.152766002342105" lon="-5.34055701456964">
        <ele>-16.690000000000001</ele>
        <time>2025-05-08T14:09:12Z</time>
      </trkpt>
      <trkpt lat="36.152659971266985" lon="-5.340462969616056">
        <ele>-17.649999999999999</ele>
        <time>2025-05-08T14:09:13Z</time>
      </trkpt>
      <trkpt lat="36.149706020951271" lon="-5.340168010443449">
        <ele>-16.210000000000001</ele>
        <time>2025-05-08T14:09:40Z</time>
      </trkpt>
      <trkpt lat="36.149585992097855" lon="-5.340207992121577">
        <ele>-15.24</ele>
        <time>2025-05-08T14:09:41Z</time>
      </trkpt>
      <trkpt lat="36.148493997752666" lon="-5.340519966557622">
        <ele>4.94</ele>
        <time>2025-05-08T14:09:50Z</time>
      </trkpt>
      <trkpt lat="36.147124981507659" lon="-5.340749965980649">
        <ele>2.54</ele>
        <time>2025-05-08T14:10:02Z</time>
      </trkpt>
      <trkpt lat="36.146908979862928" lon="-5.340820038691163">
        <ele>0.62</ele>
        <time>2025-05-08T14:10:09Z</time>
      </trkpt>
      <trkpt lat="36.146831028163433" lon="-5.340849040076137">
        <ele>1.1</ele>
        <time>2025-05-08T14:10:19Z</time>
      </trkpt>
      <trkpt lat="36.146801020950079" lon="-5.340860020369291">
        <ele>1.1</ele>
        <time>2025-05-08T14:10:20Z</time>
      </trkpt>
      <trkpt lat="36.14675902761519" lon="-5.340876029804349">
        <ele>1.1</ele>
        <time>2025-05-08T14:10:21Z</time>
      </trkpt>
      <trkpt lat="36.146704964339733" lon="-5.340895978733897">
        <ele>1.1</ele>
        <time>2025-05-08T14:10:22Z</time>
      </trkpt>
      <trkpt lat="36.146641010418534" lon="-5.340920034796">
        <ele>1.1</ele>
        <time>2025-05-08T14:10:23Z</time>
      </trkpt>
      <trkpt lat="36.146425008773804" lon="-5.341016007587314">
        <ele>0.62</ele>
        <time>2025-05-08T14:10:26Z</time>
      </trkpt>
      <trkpt lat="36.146356025710702" lon="-5.34105196595192">
        <ele>0.62</ele>
        <time>2025-05-08T14:10:27Z</time>
      </trkpt>
      <trkpt lat="36.146293999627233" lon="-5.341084990650415">
        <ele>0.62</ele>
        <time>2025-05-08T14:10:28Z</time>
      </trkpt>
      <trkpt lat="36.146239014342427" lon="-5.341113992035389">
        <ele>0.14</ele>
        <time>2025-05-08T14:10:29Z</time>
      </trkpt>
      <trkpt lat="36.146136000752449" lon="-5.341414986178279">
        <ele>0.14</ele>
        <time>2025-05-08T14:10:30Z</time>
      </trkpt>
      <trkpt lat="36.146136000752449" lon="-5.341414986178279">
        <ele>-0.34</ele>
        <time>2025-05-08T14:10:31Z</time>
      </trkpt>
      <trkpt lat="36.146136000752449" lon="-5.341414986178279">
        <ele>-0.34</ele>
        <time>2025-05-08T14:10:33Z</time>
      </trkpt>
      <trkpt lat="36.14607104100287" lon="-5.34156602807343">
        <ele>-0.82</ele>
        <time>2025-05-08T14:10:34Z</time>
      </trkpt>
      <trkpt lat="36.146013038232923" lon="-5.341600980609655">
        <ele>-0.82</ele>
        <time>2025-05-08T14:10:35Z</time>
      </trkpt>
      <trkpt lat="36.145856967195868" lon="-5.3416090272367">
        <ele>-0.82</ele>
        <time>2025-05-08T14:10:36Z</time>
      </trkpt>
      <trkpt lat="36.145841963589191" lon="-5.341615984216332">
        <ele>-0.82</ele>
        <time>2025-05-08T14:10:37Z</time>
      </trkpt>
      <trkpt lat="36.145754959434271" lon="-5.341658983379602">
        <ele>-0.82</ele>
        <time>2025-05-08T14:10:38Z</time>
      </trkpt>
      <trkpt lat="36.145667033270001" lon="-5.341702988371253">
        <ele>-0.34</ele>
        <time>2025-05-08T14:10:39Z</time>
      </trkpt>
      <trkpt lat="36.145581034943461" lon="-5.341654038056731">
        <ele>-0.34</ele>
        <time>2025-05-08T14:10:40Z</time>
      </trkpt>
      <trkpt lat="36.145511968061328" lon="-5.341585977002978">
        <ele>-0.34</ele>
        <time>2025-05-08T14:10:41Z</time>
      </trkpt>
      <trkpt lat="36.145438961684704" lon="-5.341512970626354">
        <ele>-0.34</ele>
        <time>2025-05-08T14:10:42Z</time>
      </trkpt>
      <trkpt lat="36.145362015813589" lon="-5.34143602475524">
        <ele>-0.34</ele>
        <time>2025-05-08T14:10:43Z</time>
      </trkpt>
      <trkpt lat="36.145093962550163" lon="-5.341195967048407">
        <ele>0.14</ele>
        <time>2025-05-08T14:10:46Z</time>
      </trkpt>
      <trkpt lat="36.144137000665069" lon="-5.340358028188348">
        <ele>-3.23</ele>
        <time>2025-05-08T14:10:57Z</time>
      </trkpt>
      <trkpt lat="36.143840029835701" lon="-5.340128028765321">
        <ele>-3.23</ele>
        <time>2025-05-08T14:11:00Z</time>
      </trkpt>
      <trkpt lat="36.143757971003652" lon="-5.340087041258812">
        <ele>-2.75</ele>
        <time>2025-05-08T14:11:01Z</time>
      </trkpt>
      <trkpt lat="36.14272297360003" lon="-5.339913032948971">
        <ele>0.14</ele>
        <time>2025-05-08T14:11:10Z</time>
      </trkpt>
      <trkpt lat="36.141886040568352" lon="-5.339931976050139">
        <ele>2.06</ele>
        <time>2025-05-08T14:11:17Z</time>
      </trkpt>
      <trkpt lat="36.141769029200077" lon="-5.339963994920254">
        <ele>2.54</ele>
        <time>2025-05-08T14:11:18Z</time>
      </trkpt>
      <trkpt lat="36.141414977610111" lon="-5.34006399102509">
        <ele>2.54</ele>
        <time>2025-05-08T14:11:21Z</time>
      </trkpt>
      <trkpt lat="36.141320010647178" lon="-5.340141020715237">
        <ele>2.06</ele>
        <time>2025-05-08T14:11:22Z</time>
      </trkpt>
      <trkpt lat="36.140932012349367" lon="-5.340460035949945">
        <ele>1.58</ele>
        <time>2025-05-08T14:11:27Z</time>
      </trkpt>
      <trkpt lat="36.140882978215814" lon="-5.340504962950945">
        <ele>1.58</ele>
        <time>2025-05-08T14:11:28Z</time>
      </trkpt>
      <trkpt lat="36.140839979052544" lon="-5.340544022619724">
        <ele>1.58</ele>
        <time>2025-05-08T14:11:29Z</time>
      </trkpt>
      <trkpt lat="36.140789017081261" lon="-5.340590961277485">
        <ele>1.1</ele>
        <time>2025-05-08T14:11:30Z</time>
      </trkpt>
      <trkpt lat="36.140735037624836" lon="-5.340639995411038">
        <ele>1.1</ele>
        <time>2025-05-08T14:11:31Z</time>
      </trkpt>
      <trkpt lat="36.140683991834521" lon="-5.340687017887831">
        <ele>1.1</ele>
        <time>2025-05-08T14:11:32Z</time>
      </trkpt>
      <trkpt lat="36.140630012378097" lon="-5.340735968202353">
        <ele>1.1</ele>
        <time>2025-05-08T14:11:33Z</time>
      </trkpt>
      <trkpt lat="36.140518030151725" lon="-5.34083797596395">
        <ele>0.62</ele>
        <time>2025-05-08T14:11:35Z</time>
      </trkpt>
      <trkpt lat="36.140462039038539" lon="-5.340890027582645">
        <ele>0.62</ele>
        <time>2025-05-08T14:11:36Z</time>
      </trkpt>
      <trkpt lat="36.140405964106321" lon="-5.340939983725548">
        <ele>0.62</ele>
        <time>2025-05-08T14:11:37Z</time>
      </trkpt>
      <trkpt lat="36.140073034912348" lon="-5.34124500118196">
        <ele>0.14</ele>
        <time>2025-05-08T14:11:43Z</time>
      </trkpt>
      <trkpt lat="36.14001302048564" lon="-5.341299986466765">
        <ele>0.14</ele>
        <time>2025-05-08T14:11:44Z</time>
      </trkpt>
      <trkpt lat="36.139953006058931" lon="-5.341354971751571">
        <ele>-0.34</ele>
        <time>2025-05-08T14:11:45Z</time>
      </trkpt>
      <trkpt lat="36.139892991632223" lon="-5.341410040855408">
        <ele>-0.34</ele>
        <time>2025-05-08T14:11:46Z</time>
      </trkpt>
      <trkpt lat="36.139831971377134" lon="-5.341465026140213">
        <ele>-0.82</ele>
        <time>2025-05-08T14:11:47Z</time>
      </trkpt>
      <trkpt lat="36.13930600695312" lon="-5.341944973915815">
        <ele>-2.27</ele>
        <time>2025-05-08T14:11:56Z</time>
      </trkpt>
      <trkpt lat="36.139254039153457" lon="-5.341993002220988">
        <ele>-2.27</ele>
        <time>2025-05-08T14:11:57Z</time>
      </trkpt>
      <trkpt lat="36.139193018898368" lon="-5.342041030526161">
        <ele>-2.27</ele>
        <time>2025-05-08T14:11:58Z</time>
      </trkpt>
      <trkpt lat="36.139121018350124" lon="-5.342058967798948">
        <ele>-2.27</ele>
        <time>2025-05-08T14:11:59Z</time>
      </trkpt>
      <trkpt lat="36.139040971174836" lon="-5.342058967798948">
        <ele>-2.27</ele>
        <time>2025-05-08T14:12:00Z</time>
      </trkpt>
      <trkpt lat="36.138960001990199" lon="-5.342058967798948">
        <ele>-2.27</ele>
        <time>2025-05-08T14:12:01Z</time>
      </trkpt>
      <trkpt lat="36.138487011194229" lon="-5.342058967798948">
        <ele>-1.3</ele>
        <time>2025-05-08T14:12:07Z</time>
      </trkpt>
      <trkpt lat="36.13840201869607" lon="-5.342033989727497">
        <ele>-0.82</ele>
        <time>2025-05-08T14:12:08Z</time>
      </trkpt>
      <trkpt lat="36.138337980955839" lon="-5.341980010271072">
        <ele>0.14</ele>
        <time>2025-05-08T14:12:09Z</time>
      </trkpt>
      <trkpt lat="36.138203032314777" lon="-5.34186601638794">
        <ele>2.54</ele>
        <time>2025-05-08T14:12:11Z</time>
      </trkpt>
      <trkpt lat="36.138133965432644" lon="-5.341808013617992">
        <ele>3.98</ele>
        <time>2025-05-08T14:12:12Z</time>
      </trkpt>
      <trkpt lat="36.137917041778564" lon="-5.341625036671758">
        <ele>6.87</ele>
        <time>2025-05-08T14:12:15Z</time>
      </trkpt>
      <trkpt lat="36.137849986553192" lon="-5.341568039730191">
        <ele>7.83</ele>
        <time>2025-05-08T14:12:16Z</time>
      </trkpt>
      <trkpt lat="36.137784020975232" lon="-5.341511964797974">
        <ele>8.310000000000001</ele>
        <time>2025-05-08T14:12:17Z</time>
      </trkpt>
      <trkpt lat="36.13771696574986" lon="-5.341455973684788">
        <ele>9.27</ele>
        <time>2025-05-08T14:12:18Z</time>
      </trkpt>
      <trkpt lat="36.137648988515139" lon="-5.341397970914841">
        <ele>10.23</ele>
        <time>2025-05-08T14:12:19Z</time>
      </trkpt>
      <trkpt lat="36.137374984100461" lon="-5.341167971491814">
        <ele>13.119999999999999</ele>
        <time>2025-05-08T14:12:23Z</time>
      </trkpt>
      <trkpt lat="36.137294014915824" lon="-5.341117009520531">
        <ele>13.119999999999999</ele>
        <time>2025-05-08T14:12:24Z</time>
      </trkpt>
      <trkpt lat="36.1372210085392" lon="-5.341087002307177">
        <ele>13.6</ele>
        <time>2025-05-08T14:12:25Z</time>
      </trkpt>
      <trkpt lat="36.137083964422345" lon="-5.341027993708849">
        <ele>14.08</ele>
        <time>2025-05-08T14:12:27Z</time>
      </trkpt>
      <trkpt lat="36.13700601272285" lon="-5.34100896678865">
        <ele>14.08</ele>
        <time>2025-05-08T14:12:28Z</time>
      </trkpt>
      <trkpt lat="36.136863017454743" lon="-5.341012990102172">
        <ele>14.56</ele>
        <time>2025-05-08T14:12:30Z</time>
      </trkpt>
      <trkpt lat="36.136711975559592" lon="-5.341018019244075">
        <ele>15.039999999999999</ele>
        <time>2025-05-08T14:12:32Z</time>
      </trkpt>
      <trkpt lat="36.136282989755273" lon="-5.341010978445411">
        <ele>16</ele>
        <time>2025-05-08T14:12:37Z</time>
      </trkpt>
      <trkpt lat="36.135749984532595" lon="-5.34090000204742">
        <ele>16</ele>
        <time>2025-05-08T14:12:43Z</time>
      </trkpt>
      <trkpt lat="36.135701034218073" lon="-5.340906037017703">
        <ele>16</ele>
        <time>2025-05-08T14:12:44Z</time>
      </trkpt>
      <trkpt lat="36.134690009057522" lon="-5.340992035344243">
        <ele>15.039999999999999</ele>
        <time>2025-05-08T14:12:56Z</time>
      </trkpt>
      <trkpt lat="36.133994981646538" lon="-5.34107300452888">
        <ele>13.119999999999999</ele>
        <time>2025-05-08T14:13:07Z</time>
      </trkpt>
      <trkpt lat="36.133877970278263" lon="-5.341091025620699">
        <ele>12.630000000000001</ele>
        <time>2025-05-08T14:13:18Z</time>
      </trkpt>
      <trkpt lat="36.133877970278263" lon="-5.341091025620699">
        <ele>12.15</ele>
        <time>2025-05-08T14:14:08Z</time>
      </trkpt>
      <trkpt lat="36.133877970278263" lon="-5.341091025620699">
        <ele>12.15</ele>
        <time>2025-05-08T14:15:05Z</time>
      </trkpt>
      <trkpt lat="36.133549986407161" lon="-5.341064035892487">
        <ele>12.630000000000001</ele>
        <time>2025-05-08T14:15:11Z</time>
      </trkpt>
      <trkpt lat="36.133453007787466" lon="-5.341053977608681">
        <ele>12.630000000000001</ele>
        <time>2025-05-08T14:15:12Z</time>
      </trkpt>
      <trkpt lat="36.13335301168263" lon="-5.341044003143907">
        <ele>12.15</ele>
        <time>2025-05-08T14:15:13Z</time>
      </trkpt>
      <trkpt lat="36.132510965690017" lon="-5.341303003951907">
        <ele>8.789999999999999</ele>
        <time>2025-05-08T14:15:22Z</time>
      </trkpt>
      <trkpt lat="36.132332012057304" lon="-5.341410962864757">
        <ele>8.310000000000001</ele>
        <time>2025-05-08T14:15:24Z</time>
      </trkpt>
      <trkpt lat="36.132236961275339" lon="-5.341467959806323">
        <ele>7.83</ele>
        <time>2025-05-08T14:15:25Z</time>
      </trkpt>
      <trkpt lat="36.132140988484025" lon="-5.341524034738541">
        <ele>7.83</ele>
        <time>2025-05-08T14:15:26Z</time>
      </trkpt>
      <trkpt lat="36.13073400221765" lon="-5.342013034969568">
        <ele>5.42</ele>
        <time>2025-05-08T14:15:40Z</time>
      </trkpt>
      <trkpt lat="36.130639035254717" lon="-5.342045975849032">
        <ele>5.42</ele>
        <time>2025-05-08T14:15:41Z</time>
      </trkpt>
      <trkpt lat="36.13053903914988" lon="-5.342069026082754">
        <ele>5.42</ele>
        <time>2025-05-08T14:15:42Z</time>
      </trkpt>
      <trkpt lat="36.130438037216663" lon="-5.342085035517812">
        <ele>5.42</ele>
        <time>2025-05-08T14:15:43Z</time>
      </trkpt>
      <trkpt lat="36.130336029455066" lon="-5.342100039124489">
        <ele>5.42</ele>
        <time>2025-05-08T14:15:44Z</time>
      </trkpt>
      <trkpt lat="36.130233015865088" lon="-5.342115964740515">
        <ele>5.91</ele>
        <time>2025-05-08T14:15:45Z</time>
      </trkpt>
      <trkpt lat="36.129940990358591" lon="-5.342161981388927">
        <ele>7.35</ele>
        <time>2025-05-08T14:15:48Z</time>
      </trkpt>
      <trkpt lat="36.129828002303839" lon="-5.342138009145856">
        <ele>8.310000000000001</ele>
        <time>2025-05-08T14:15:49Z</time>
      </trkpt>
      <trkpt lat="36.129720965400338" lon="-5.342101966962218">
        <ele>8.789999999999999</ele>
        <time>2025-05-08T14:15:50Z</time>
      </trkpt>
      <trkpt lat="36.129634967073798" lon="-5.342038013041019">
        <ele>9.27</ele>
        <time>2025-05-08T14:15:51Z</time>
      </trkpt>
      <trkpt lat="36.129548968747258" lon="-5.341973975300789">
        <ele>9.75</ele>
        <time>2025-05-08T14:15:52Z</time>
      </trkpt>
      <trkpt lat="36.12946598790586" lon="-5.341912033036351">
        <ele>10.23</ele>
        <time>2025-05-08T14:15:53Z</time>
      </trkpt>
      <trkpt lat="36.129080001264811" lon="-5.341629981994629">
        <ele>10.710000000000001</ele>
        <time>2025-05-08T14:15:58Z</time>
      </trkpt>
      <trkpt lat="36.12901302985847" lon="-5.341582037508488">
        <ele>10.710000000000001</ele>
        <time>2025-05-08T14:15:59Z</time>
      </trkpt>
      <trkpt lat="36.128917979076505" lon="-5.341574996709824">
        <ele>10.710000000000001</ele>
        <time>2025-05-08T14:16:00Z</time>
      </trkpt>
      <trkpt lat="36.128822006285191" lon="-5.341586982831359">
        <ele>10.710000000000001</ele>
        <time>2025-05-08T14:16:01Z</time>
      </trkpt>
      <trkpt lat="36.12871496938169" lon="-5.341600980609655">
        <ele>11.19</ele>
        <time>2025-05-08T14:16:02Z</time>
      </trkpt>
      <trkpt lat="36.127950958907604" lon="-5.341635011136532">
        <ele>12.15</ele>
        <time>2025-05-08T14:16:09Z</time>
      </trkpt>
      <trkpt lat="36.12781098112464" lon="-5.3416090272367">
        <ele>13.119999999999999</ele>
        <time>2025-05-08T14:16:10Z</time>
      </trkpt>
      <trkpt lat="36.127677960321307" lon="-5.341533003374934">
        <ele>14.08</ele>
        <time>2025-05-08T14:16:12Z</time>
      </trkpt>
      <trkpt lat="36.12714403308928" lon="-5.341226980090141">
        <ele>15.52</ele>
        <time>2025-05-08T14:16:18Z</time>
      </trkpt>
      <trkpt lat="36.12705996260047" lon="-5.341179035604">
        <ele>16</ele>
        <time>2025-05-08T14:16:19Z</time>
      </trkpt>
      <trkpt lat="36.12701796926558" lon="-5.341098988428712">
        <ele>16.48</ele>
        <time>2025-05-08T14:16:20Z</time>
      </trkpt>
      <trkpt lat="36.126963989809155" lon="-5.340994969010353">
        <ele>17.440000000000001</ele>
        <time>2025-05-08T14:16:21Z</time>
      </trkpt>
      <trkpt lat="36.12690799869597" lon="-5.340888015925884">
        <ele>17.920000000000002</ele>
        <time>2025-05-08T14:16:22Z</time>
      </trkpt>
      <trkpt lat="36.126848990097642" lon="-5.340775027871132">
        <ele>18.399999999999999</ele>
        <time>2025-05-08T14:16:23Z</time>
      </trkpt>
      <trkpt lat="36.126788975670934" lon="-5.340659022331238">
        <ele>18.399999999999999</ele>
        <time>2025-05-08T14:16:24Z</time>
      </trkpt>
      <trkpt lat="36.126709012314677" lon="-5.340561959892511">
        <ele>17.920000000000002</ele>
        <time>2025-05-08T14:16:25Z</time>
      </trkpt>
      <trkpt lat="36.12663097679615" lon="-5.340475039556623">
        <ele>17.920000000000002</ele>
        <time>2025-05-08T14:16:26Z</time>
      </trkpt>
      <trkpt lat="36.126538021489978" lon="-5.340426005423069">
        <ele>17.920000000000002</ele>
        <time>2025-05-08T14:16:27Z</time>
      </trkpt>
      <trkpt lat="36.126439031213522" lon="-5.340392980724573">
        <ele>17.440000000000001</ele>
        <time>2025-05-08T14:16:28Z</time>
      </trkpt>
      <trkpt lat="36.126340962946415" lon="-5.340360961854458">
        <ele>17.440000000000001</ele>
        <time>2025-05-08T14:16:29Z</time>
      </trkpt>
      <trkpt lat="36.126252030953765" lon="-5.340350987389684">
        <ele>17.440000000000001</ele>
        <time>2025-05-08T14:16:30Z</time>
      </trkpt>
      <trkpt lat="36.126149017363787" lon="-5.340374959632754">
        <ele>17.440000000000001</ele>
        <time>2025-05-08T14:16:31Z</time>
      </trkpt>
      <trkpt lat="36.126051032915711" lon="-5.340397004038096">
        <ele>17.440000000000001</ele>
        <time>2025-05-08T14:16:32Z</time>
      </trkpt>
      <trkpt lat="36.125972997397184" lon="-5.340442014858127">
        <ele>17.440000000000001</ele>
        <time>2025-05-08T14:16:33Z</time>
      </trkpt>
      <trkpt lat="36.125894039869308" lon="-5.340521978214383">
        <ele>17.920000000000002</ele>
        <time>2025-05-08T14:16:34Z</time>
      </trkpt>
      <trkpt lat="36.125821033492684" lon="-5.340602025389671">
        <ele>17.920000000000002</ele>
        <time>2025-05-08T14:16:35Z</time>
      </trkpt>
      <trkpt lat="36.125751966610551" lon="-5.340702021494508">
        <ele>18.399999999999999</ele>
        <time>2025-05-08T14:16:36Z</time>
      </trkpt>
      <trkpt lat="36.125678038224578" lon="-5.340809980407357">
        <ele>18.399999999999999</ele>
        <time>2025-05-08T14:16:37Z</time>
      </trkpt>
      <trkpt lat="36.122078010812402" lon="-5.342397009953857">
        <ele>18.399999999999999</ele>
        <time>2025-05-08T14:17:08Z</time>
      </trkpt>
      <trkpt lat="36.121851028874516" lon="-5.342507986351848">
        <ele>18.399999999999999</ele>
        <time>2025-05-08T14:17:10Z</time>
      </trkpt>
      <trkpt lat="36.121102022007108" lon="-5.343025987967849">
        <ele>18.399999999999999</ele>
        <time>2025-05-08T14:17:17Z</time>
      </trkpt>
      <trkpt lat="36.120760040357709" lon="-5.343181975185871">
        <ele>18.399999999999999</ele>
        <time>2025-05-08T14:17:20Z</time>
      </trkpt>
      <trkpt lat="36.119552040472627" lon="-5.343210976570845">
        <ele>18.399999999999999</ele>
        <time>2025-05-08T14:17:30Z</time>
      </trkpt>
      <trkpt lat="36.119436034932733" lon="-5.342971002683044">
        <ele>18.399999999999999</ele>
        <time>2025-05-08T14:17:32Z</time>
      </trkpt>
      <trkpt lat="36.119270995259285" lon="-5.342789031565189">
        <ele>18.399999999999999</ele>
        <time>2025-05-08T14:17:34Z</time>
      </trkpt>
      <trkpt lat="36.119149038568139" lon="-5.342758018523455">
        <ele>18.399999999999999</ele>
        <time>2025-05-08T14:17:35Z</time>
      </trkpt>
      <trkpt lat="36.11818696372211" lon="-5.342546040192246">
        <ele>18.399999999999999</ele>
        <time>2025-05-08T14:17:43Z</time>
      </trkpt>
      <trkpt lat="36.119600990787148" lon="-5.343252969905734">
        <ele>13.6</ele>
        <time>2025-05-08T14:17:45Z</time>
      </trkpt>
      <trkpt lat="36.119172004982829" lon="-5.342763969674707">
        <ele>47.240000000000002</ele>
        <time>2025-05-08T14:17:50Z</time>
      </trkpt>
      <trkpt lat="36.119013000279665" lon="-5.342723987996578">
        <ele>51.57</ele>
        <time>2025-05-08T14:17:52Z</time>
      </trkpt>
      <trkpt lat="36.118992967531085" lon="-5.342720970511437">
        <ele>52.530000000000001</ele>
        <time>2025-05-08T14:17:53Z</time>
      </trkpt>
      <trkpt lat="36.118842009454966" lon="-5.342696998268366">
        <ele>53.969999999999999</ele>
        <time>2025-05-08T14:17:55Z</time>
      </trkpt>
      <trkpt lat="36.117978002876043" lon="-5.342454006895423">
        <ele>45.799999999999997</ele>
        <time>2025-05-08T14:18:05Z</time>
      </trkpt>
      <trkpt lat="36.117386994883418" lon="-5.342209003865719">
        <ele>37.630000000000003</ele>
        <time>2025-05-08T14:18:12Z</time>
      </trkpt>
      <trkpt lat="36.117318011820316" lon="-5.342209003865719">
        <ele>36.670000000000002</ele>
        <time>2025-05-08T14:18:13Z</time>
      </trkpt>
      <trkpt lat="36.117253974080086" lon="-5.342257032170892">
        <ele>36.189999999999998</ele>
        <time>2025-05-08T14:18:14Z</time>
      </trkpt>
      <trkpt lat="36.117192031815648" lon="-5.342303970828652">
        <ele>35.229999999999997</ele>
        <time>2025-05-08T14:18:15Z</time>
      </trkpt>
      <trkpt lat="36.117122964933515" lon="-5.342356022447348">
        <ele>34.740000000000002</ele>
        <time>2025-05-08T14:18:16Z</time>
      </trkpt>
      <trkpt lat="36.11704995855689" lon="-5.342411007732153">
        <ele>34.259999999999998</ele>
        <time>2025-05-08T14:18:17Z</time>
      </trkpt>
      <trkpt lat="36.11663899384439" lon="-5.34285600297153">
        <ele>33.299999999999997</ele>
        <time>2025-05-08T14:18:23Z</time>
      </trkpt>
      <trkpt lat="36.116564981639385" lon="-5.342939989641309">
        <ele>32.82</ele>
        <time>2025-05-08T14:18:24Z</time>
      </trkpt>
      <trkpt lat="36.116473032161593" lon="-5.342987012118101">
        <ele>32.82</ele>
        <time>2025-05-08T14:18:25Z</time>
      </trkpt>
      <trkpt lat="36.116379993036389" lon="-5.343035040423274">
        <ele>32.340000000000003</ele>
        <time>2025-05-08T14:18:26Z</time>
      </trkpt>
      <trkpt lat="36.116285026073456" lon="-5.343083990737796">
        <ele>31.859999999999999</ele>
        <time>2025-05-08T14:18:27Z</time>
      </trkpt>
      <trkpt lat="36.116189975291491" lon="-5.343132019042969">
        <ele>31.859999999999999</ele>
        <time>2025-05-08T14:18:28Z</time>
      </trkpt>
      <trkpt lat="36.115568038076162" lon="-5.34343502484262">
        <ele>28.02</ele>
        <time>2025-05-08T14:18:35Z</time>
      </trkpt>
      <trkpt lat="36.115482039749622" lon="-5.343470983207226">
        <ele>27.530000000000001</ele>
        <time>2025-05-08T14:18:36Z</time>
      </trkpt>
      <trkpt lat="36.115393023937941" lon="-5.343509959056974">
        <ele>27.050000000000001</ele>
        <time>2025-05-08T14:18:37Z</time>
      </trkpt>
      <trkpt lat="36.115192025899887" lon="-5.343550024554133">
        <ele>26.57</ele>
        <time>2025-05-08T14:18:39Z</time>
      </trkpt>
      <trkpt lat="36.114998990669847" lon="-5.343566033989191">
        <ele>26.57</ele>
        <time>2025-05-08T14:18:41Z</time>
      </trkpt>
      <trkpt lat="36.114894971251488" lon="-5.343573996797204">
        <ele>26.57</ele>
        <time>2025-05-08T14:18:42Z</time>
      </trkpt>
      <trkpt lat="36.113623017445207" lon="-5.343676004558802">
        <ele>27.530000000000001</ele>
        <time>2025-05-08T14:18:55Z</time>
      </trkpt>
      <trkpt lat="36.113539030775428" lon="-5.343682039529085">
        <ele>28.02</ele>
        <time>2025-05-08T14:18:56Z</time>
      </trkpt>
      <trkpt lat="36.113456971943378" lon="-5.343688996508718">
        <ele>28.02</ele>
        <time>2025-05-08T14:18:57Z</time>
      </trkpt>
      <trkpt lat="36.113371979445219" lon="-5.343696037307382">
        <ele>28.5</ele>
        <time>2025-05-08T14:18:58Z</time>
      </trkpt>
      <trkpt lat="36.113278018310666" lon="-5.343702994287014">
        <ele>28.5</ele>
        <time>2025-05-08T14:18:59Z</time>
      </trkpt>
      <trkpt lat="36.113184979185462" lon="-5.343711040914059">
        <ele>28.5</ele>
        <time>2025-05-08T14:19:00Z</time>
      </trkpt>
      <trkpt lat="36.113107027485967" lon="-5.343776000663638">
        <ele>28.5</ele>
        <time>2025-05-08T14:19:01Z</time>
      </trkpt>
      <trkpt lat="36.113033015280962" lon="-5.343843977898359">
        <ele>28.98</ele>
        <time>2025-05-08T14:19:02Z</time>
      </trkpt>
      <trkpt lat="36.112960008904338" lon="-5.343911033123732">
        <ele>28.98</ele>
        <time>2025-05-08T14:19:03Z</time>
      </trkpt>
      <trkpt lat="36.112890020012856" lon="-5.343974987044931">
        <ele>29.460000000000001</ele>
        <time>2025-05-08T14:19:04Z</time>
      </trkpt>
      <trkpt lat="36.112822964787483" lon="-5.344036007300019">
        <ele>30.420000000000002</ele>
        <time>2025-05-08T14:19:05Z</time>
      </trkpt>
      <trkpt lat="36.112639987841249" lon="-5.344204986467958">
        <ele>33.780000000000001</ele>
        <time>2025-05-08T14:19:08Z</time>
      </trkpt>
      <trkpt lat="36.112618027254939" lon="-5.34427497535944">
        <ele>34.259999999999998</ele>
        <time>2025-05-08T14:19:09Z</time>
      </trkpt>
      <trkpt lat="36.112591037526727" lon="-5.34436097368598">
        <ele>34.740000000000002</ele>
        <time>2025-05-08T14:19:10Z</time>
      </trkpt>
      <trkpt lat="36.112425997853279" lon="-5.344891967251897">
        <ele>35.710000000000001</ele>
        <time>2025-05-08T14:19:17Z</time>
      </trkpt>
      <trkpt lat="36.112376963719726" lon="-5.344964973628521">
        <ele>35.710000000000001</ele>
        <time>2025-05-08T14:19:18Z</time>
      </trkpt>
      <trkpt lat="36.112382998690009" lon="-5.345128001645207">
        <ele>36.189999999999998</ele>
        <time>2025-05-08T14:19:19Z</time>
      </trkpt>
      <trkpt lat="36.112382998690009" lon="-5.345203019678593">
        <ele>36.189999999999998</ele>
        <time>2025-05-08T14:19:21Z</time>
      </trkpt>
      <trkpt lat="36.112374030053616" lon="-5.345248030498624">
        <ele>36.189999999999998</ele>
        <time>2025-05-08T14:19:22Z</time>
      </trkpt>
      <trkpt lat="36.112339999526739" lon="-5.345298992469907">
        <ele>36.670000000000002</ele>
        <time>2025-05-08T14:19:23Z</time>
      </trkpt>
      <trkpt lat="36.112294988706708" lon="-5.345298992469907">
        <ele>36.670000000000002</ele>
        <time>2025-05-08T14:19:24Z</time>
      </trkpt>
      <trkpt lat="36.112238997593522" lon="-5.345298992469907">
        <ele>37.149999999999999</ele>
        <time>2025-05-08T14:19:25Z</time>
      </trkpt>
      <trkpt lat="36.112182000651956" lon="-5.345212994143367">
        <ele>37.149999999999999</ele>
        <time>2025-05-08T14:19:26Z</time>
      </trkpt>
      <trkpt lat="36.11212701536715" lon="-5.345212994143367">
        <ele>37.630000000000003</ele>
        <time>2025-05-08T14:19:27Z</time>
      </trkpt>
      <trkpt lat="36.112017966806889" lon="-5.345212994143367">
        <ele>38.109999999999999</ele>
        <time>2025-05-08T14:19:29Z</time>
      </trkpt>
      <trkpt lat="36.111958958208561" lon="-5.345212994143367">
        <ele>38.109999999999999</ele>
        <time>2025-05-08T14:19:30Z</time>
      </trkpt>
      <trkpt lat="36.111206011846662" lon="-5.345144011080265">
        <ele>37.630000000000003</ele>
        <time>2025-05-08T14:19:42Z</time>
      </trkpt>
      <trkpt lat="36.110522970557213" lon="-5.345124984160066">
        <ele>36.189999999999998</ele>
        <time>2025-05-08T14:19:53Z</time>
      </trkpt>
      <trkpt lat="36.11047301441431" lon="-5.34513303078711">
        <ele>35.710000000000001</ele>
        <time>2025-05-08T14:19:54Z</time>
      </trkpt>
      <trkpt lat="36.110425991937518" lon="-5.345139987766743">
        <ele>35.710000000000001</ele>
        <time>2025-05-08T14:19:55Z</time>
      </trkpt>
      <trkpt lat="36.11032297834754" lon="-5.345321036875248">
        <ele>35.229999999999997</ele>
        <time>2025-05-08T14:19:56Z</time>
      </trkpt>
      <trkpt lat="36.11032297834754" lon="-5.345321036875248">
        <ele>34.740000000000002</ele>
        <time>2025-05-08T14:19:57Z</time>
      </trkpt>
      <trkpt lat="36.110307974740863" lon="-5.3453269880265">
        <ele>34.259999999999998</ele>
        <time>2025-05-08T14:19:58Z</time>
      </trkpt>
      <trkpt lat="36.110267993062735" lon="-5.345342997461557">
        <ele>34.259999999999998</ele>
        <time>2025-05-08T14:19:59Z</time>
      </trkpt>
      <trkpt lat="36.110216025263071" lon="-5.345364036038518">
        <ele>34.259999999999998</ele>
        <time>2025-05-08T14:20:00Z</time>
      </trkpt>
      <trkpt lat="36.110206972807646" lon="-5.345330005511642">
        <ele>34.740000000000002</ele>
        <time>2025-05-08T14:20:01Z</time>
      </trkpt>
      <trkpt lat="36.110198004171252" lon="-5.345294969156385">
        <ele>34.740000000000002</ele>
        <time>2025-05-08T14:20:02Z</time>
      </trkpt>
      <trkpt lat="36.11019398085773" lon="-5.345278037711978">
        <ele>34.740000000000002</ele>
        <time>2025-05-08T14:20:03Z</time>
      </trkpt>
      <trkpt lat="36.11019398085773" lon="-5.345278037711978">
        <ele>34.740000000000002</ele>
        <time>2025-05-08T14:20:04Z</time>
      </trkpt>
      <trkpt lat="36.11019398085773" lon="-5.345278037711978">
        <ele>35.229999999999997</ele>
        <time>2025-05-08T14:20:16Z</time>
      </trkpt>
      <trkpt lat="36.110216025263071" lon="-5.345364036038518">
        <ele>35.229999999999997</ele>
        <time>2025-05-08T14:20:21Z</time>
      </trkpt>
      <trkpt lat="36.110216025263071" lon="-5.345364036038518">
        <ele>34.740000000000002</ele>
        <time>2025-05-08T14:20:22Z</time>
      </trkpt>
      <trkpt lat="36.110216025263071" lon="-5.345364036038518">
        <ele>34.740000000000002</ele>
        <time>2025-05-08T14:20:23Z</time>
      </trkpt>
      <trkpt lat="36.110216025263071" lon="-5.345364036038518">
        <ele>34.740000000000002</ele>
        <time>2025-05-08T14:20:24Z</time>
      </trkpt>
      <trkpt lat="36.110216025263071" lon="-5.345364036038518">
        <ele>34.740000000000002</ele>
        <time>2025-05-08T14:20:25Z</time>
      </trkpt>
      <trkpt lat="36.110216025263071" lon="-5.345364036038518">
        <ele>38.590000000000003</ele>
        <time>2025-05-08T14:21:11Z</time>
      </trkpt>
      <trkpt lat="36.110216025263071" lon="-5.345364036038518">
        <ele>36.189999999999998</ele>
        <time>2025-05-08T14:21:55Z</time>
      </trkpt>
      <trkpt lat="36.110216025263071" lon="-5.345364036038518">
        <ele>35.710000000000001</ele>
        <time>2025-05-08T14:22:32Z</time>
      </trkpt>
      <trkpt lat="36.110216025263071" lon="-5.345364036038518">
        <ele>35.710000000000001</ele>
        <time>2025-05-08T14:23:14Z</time>
      </trkpt>
      <trkpt lat="36.110216025263071" lon="-5.345364036038518">
        <ele>36.670000000000002</ele>
        <time>2025-05-08T14:23:58Z</time>
      </trkpt>
      <trkpt lat="36.110216025263071" lon="-5.345364036038518">
        <ele>37.149999999999999</ele>
        <time>2025-05-08T14:24:41Z</time>
      </trkpt>
      <trkpt lat="36.11019398085773" lon="-5.345344003289938">
        <ele>46.759999999999998</ele>
        <time>2025-05-08T14:44:12Z</time>
      </trkpt>
      <trkpt lat="36.110177971422672" lon="-5.345239983871579">
        <ele>46.759999999999998</ele>
        <time>2025-05-08T14:44:26Z</time>
      </trkpt>
      <trkpt lat="36.110188029706478" lon="-5.345203019678593">
        <ele>45.799999999999997</ele>
        <time>2025-05-08T14:44:28Z</time>
      </trkpt>
      <trkpt lat="36.110234968364239" lon="-5.345191033557057">
        <ele>40.990000000000002</ele>
        <time>2025-05-08T14:44:35Z</time>
      </trkpt>
      <trkpt lat="36.110271010547876" lon="-5.345149040222168">
        <ele>39.549999999999997</ele>
        <time>2025-05-08T14:44:37Z</time>
      </trkpt>
      <trkpt lat="36.110308980569243" lon="-5.345149040222168">
        <ele>38.590000000000003</ele>
        <time>2025-05-08T14:44:38Z</time>
      </trkpt>
      <trkpt lat="36.110364971682429" lon="-5.345149040222168">
        <ele>38.109999999999999</ele>
        <time>2025-05-08T14:44:39Z</time>
      </trkpt>
      <trkpt lat="36.11043001525104" lon="-5.345139987766743">
        <ele>37.149999999999999</ele>
        <time>2025-05-08T14:44:40Z</time>
      </trkpt>
      <trkpt lat="36.110511990264058" lon="-5.345126995816827">
        <ele>36.670000000000002</ele>
        <time>2025-05-08T14:44:41Z</time>
      </trkpt>
      <trkpt lat="36.111422013491392" lon="-5.345169994980097">
        <ele>31.859999999999999</ele>
        <time>2025-05-08T14:44:51Z</time>
      </trkpt>
      <trkpt lat="36.111991982907057" lon="-5.345212994143367">
        <ele>30.420000000000002</ele>
        <time>2025-05-08T14:44:59Z</time>
      </trkpt>
      <trkpt lat="36.112059038132429" lon="-5.345212994143367">
        <ele>30.420000000000002</ele>
        <time>2025-05-08T14:45:00Z</time>
      </trkpt>
      <trkpt lat="36.112117962911725" lon="-5.345212994143367">
        <ele>30.420000000000002</ele>
        <time>2025-05-08T14:45:01Z</time>
      </trkpt>
      <trkpt lat="36.112211002036929" lon="-5.345128001645207">
        <ele>30.420000000000002</ele>
        <time>2025-05-08T14:45:02Z</time>
      </trkpt>
      <trkpt lat="36.112241009250283" lon="-5.34511299803853">
        <ele>30.899999999999999</ele>
        <time>2025-05-08T14:45:03Z</time>
      </trkpt>
      <trkpt lat="36.112291971221566" lon="-5.345088019967079">
        <ele>30.899999999999999</ele>
        <time>2025-05-08T14:45:04Z</time>
      </trkpt>
      <trkpt lat="36.112331030890346" lon="-5.345102017745376">
        <ele>30.899999999999999</ele>
        <time>2025-05-08T14:45:05Z</time>
      </trkpt>
      <trkpt lat="36.112374030053616" lon="-5.345122972503305">
        <ele>30.899999999999999</ele>
        <time>2025-05-08T14:45:06Z</time>
      </trkpt>
      <trkpt lat="36.112382998690009" lon="-5.345189021900296">
        <ele>30.899999999999999</ele>
        <time>2025-05-08T14:45:07Z</time>
      </trkpt>
      <trkpt lat="36.112382998690009" lon="-5.345235038548708">
        <ele>30.899999999999999</ele>
        <time>2025-05-08T14:45:08Z</time>
      </trkpt>
      <trkpt lat="36.112339999526739" lon="-5.34536998718977">
        <ele>31.379999999999999</ele>
        <time>2025-05-08T14:45:09Z</time>
      </trkpt>
      <trkpt lat="36.112330025061965" lon="-5.346329966560006">
        <ele>34.259999999999998</ele>
        <time>2025-05-08T14:45:16Z</time>
      </trkpt>
      <trkpt lat="36.112587014213204" lon="-5.347365969792008">
        <ele>40.030000000000001</ele>
        <time>2025-05-08T14:45:25Z</time>
      </trkpt>
      <trkpt lat="36.113012982532382" lon="-5.34816300496459">
        <ele>48.200000000000003</ele>
        <time>2025-05-08T14:45:35Z</time>
      </trkpt>
      <trkpt lat="36.113051036372781" lon="-5.34822503104806">
        <ele>48.68</ele>
        <time>2025-05-08T14:45:36Z</time>
      </trkpt>
      <trkpt lat="36.113089006394148" lon="-5.348285967484117">
        <ele>49.159999999999997</ele>
        <time>2025-05-08T14:45:37Z</time>
      </trkpt>
      <trkpt lat="36.113132005557418" lon="-5.348342964425683">
        <ele>50.130000000000003</ele>
        <time>2025-05-08T14:45:38Z</time>
      </trkpt>
      <trkpt lat="36.113185985013843" lon="-5.348394010215998">
        <ele>50.609999999999999</ele>
        <time>2025-05-08T14:45:39Z</time>
      </trkpt>
      <trkpt lat="36.113240970298648" lon="-5.348445978015661">
        <ele>51.090000000000003</ele>
        <time>2025-05-08T14:45:40Z</time>
      </trkpt>
      <trkpt lat="36.113628968596458" lon="-5.348738003522158">
        <ele>53.969999999999999</ele>
        <time>2025-05-08T14:45:47Z</time>
      </trkpt>
      <trkpt lat="36.113696023821831" lon="-5.348769016563892">
        <ele>53.969999999999999</ele>
        <time>2025-05-08T14:45:48Z</time>
      </trkpt>
      <trkpt lat="36.113770036026835" lon="-5.348796006292105">
        <ele>54.450000000000003</ele>
        <time>2025-05-08T14:45:49Z</time>
      </trkpt>
      <trkpt lat="36.113842958584428" lon="-5.34878795966506">
        <ele>54.93</ele>
        <time>2025-05-08T14:45:50Z</time>
      </trkpt>
      <trkpt lat="36.113914959132671" lon="-5.348781002685428">
        <ele>55.409999999999997</ele>
        <time>2025-05-08T14:45:51Z</time>
      </trkpt>
      <trkpt lat="36.113971034064889" lon="-5.348774967715144">
        <ele>55.890000000000001</ele>
        <time>2025-05-08T14:45:52Z</time>
      </trkpt>
      <trkpt lat="36.114044962450862" lon="-5.34874202683568">
        <ele>56.369999999999997</ele>
        <time>2025-05-08T14:45:53Z</time>
      </trkpt>
      <trkpt lat="36.114113023504615" lon="-5.348711013793945">
        <ele>56.859999999999999</ele>
        <time>2025-05-08T14:45:54Z</time>
      </trkpt>
      <trkpt lat="36.114179994910955" lon="-5.348681006580591">
        <ele>57.340000000000003</ele>
        <time>2025-05-08T14:45:55Z</time>
      </trkpt>
      <trkpt lat="36.11436297185719" lon="-5.348572041839361">
        <ele>59.259999999999998</ele>
        <time>2025-05-08T14:45:58Z</time>
      </trkpt>
      <trkpt lat="36.115126982331276" lon="-5.34822603687644">
        <ele>64.549999999999997</ele>
        <time>2025-05-08T14:46:09Z</time>
      </trkpt>
      <trkpt lat="36.115461001172662" lon="-5.348132997751236">
        <ele>65.510000000000005</ele>
        <time>2025-05-08T14:46:13Z</time>
      </trkpt>
      <trkpt lat="36.115540964528918" lon="-5.348111037164927">
        <ele>65.989999999999995</ele>
        <time>2025-05-08T14:46:14Z</time>
      </trkpt>
      <trkpt lat="36.115623023360968" lon="-5.348088992759585">
        <ele>66.469999999999999</ele>
        <time>2025-05-08T14:46:15Z</time>
      </trkpt>
      <trkpt lat="36.11569301225245" lon="-5.348111959174275">
        <ele>66.950000000000003</ele>
        <time>2025-05-08T14:46:16Z</time>
      </trkpt>
      <trkpt lat="36.115769036114216" lon="-5.348137021064758">
        <ele>66.950000000000003</ele>
        <time>2025-05-08T14:46:17Z</time>
      </trkpt>
      <trkpt lat="36.11584497615695" lon="-5.348173985257745">
        <ele>66.950000000000003</ele>
        <time>2025-05-08T14:46:18Z</time>
      </trkpt>
      <trkpt lat="36.115916976705194" lon="-5.348226958885789">
        <ele>67.430000000000007</ele>
        <time>2025-05-08T14:46:19Z</time>
      </trkpt>
      <trkpt lat="36.1160599719733" lon="-5.348331984132528">
        <ele>67.909999999999997</ele>
        <time>2025-05-08T14:46:21Z</time>
      </trkpt>
      <trkpt lat="36.116138007491827" lon="-5.348388981074095">
        <ele>67.909999999999997</ele>
        <time>2025-05-08T14:46:22Z</time>
      </trkpt>
      <trkpt lat="36.116212019696832" lon="-5.34839803352952">
        <ele>68.390000000000001</ele>
        <time>2025-05-08T14:46:23Z</time>
      </trkpt>
      <trkpt lat="36.116528017446399" lon="-5.348411025479436">
        <ele>69.349999999999994</ele>
        <time>2025-05-08T14:46:27Z</time>
      </trkpt>
      <trkpt lat="36.116606974974275" lon="-5.348411025479436">
        <ele>69.349999999999994</ele>
        <time>2025-05-08T14:46:28Z</time>
      </trkpt>
      <trkpt lat="36.116990027949214" lon="-5.348399039357901">
        <ele>70.790000000000006</ele>
        <time>2025-05-08T14:46:33Z</time>
      </trkpt>
      <trkpt lat="36.117058005183935" lon="-5.348375989124179">
        <ele>70.790000000000006</ele>
        <time>2025-05-08T14:46:34Z</time>
      </trkpt>
      <trkpt lat="36.117126988247037" lon="-5.348344976082444">
        <ele>71.269999999999996</ele>
        <time>2025-05-08T14:46:35Z</time>
      </trkpt>
      <trkpt lat="36.117275012657046" lon="-5.34827096387744">
        <ele>72.239999999999995</ele>
        <time>2025-05-08T14:46:37Z</time>
      </trkpt>
      <trkpt lat="36.117339972406626" lon="-5.348239028826356">
        <ele>72.719999999999999</ele>
        <time>2025-05-08T14:46:38Z</time>
      </trkpt>
      <trkpt lat="36.117405015975237" lon="-5.348215978592634">
        <ele>73.680000000000007</ele>
        <time>2025-05-08T14:46:39Z</time>
      </trkpt>
      <trkpt lat="36.117481039837003" lon="-5.348211033269763">
        <ele>74.159999999999997</ele>
        <time>2025-05-08T14:46:40Z</time>
      </trkpt>
      <trkpt lat="36.117552034556866" lon="-5.348207009956241">
        <ele>75.120000000000005</ele>
        <time>2025-05-08T14:46:41Z</time>
      </trkpt>
      <trkpt lat="36.117613976821303" lon="-5.348202986642718">
        <ele>75.599999999999994</ele>
        <time>2025-05-08T14:46:42Z</time>
      </trkpt>
      <trkpt lat="36.117859985679388" lon="-5.348213966935873">
        <ele>78</ele>
        <time>2025-05-08T14:46:46Z</time>
      </trkpt>
      <trkpt lat="36.117922011762857" lon="-5.348223019391298">
        <ele>78.480000000000004</ele>
        <time>2025-05-08T14:46:47Z</time>
      </trkpt>
      <trkpt lat="36.117985965684056" lon="-5.348231988027692">
        <ele>78.969999999999999</ele>
        <time>2025-05-08T14:46:48Z</time>
      </trkpt>
      <trkpt lat="36.118048997595906" lon="-5.348240034654737">
        <ele>79.450000000000003</ele>
        <time>2025-05-08T14:46:49Z</time>
      </trkpt>
      <trkpt lat="36.118113035336137" lon="-5.34824900329113">
        <ele>80.409999999999997</ele>
        <time>2025-05-08T14:46:50Z</time>
      </trkpt>
      <trkpt lat="36.118174977600574" lon="-5.348256966099143">
        <ele>80.890000000000001</ele>
        <time>2025-05-08T14:46:51Z</time>
      </trkpt>
      <trkpt lat="36.118367007002234" lon="-5.348274987190962">
        <ele>83.290000000000006</ele>
        <time>2025-05-08T14:46:54Z</time>
      </trkpt>
      <trkpt lat="36.118428027257323" lon="-5.348280016332865">
        <ele>83.769999999999996</ele>
        <time>2025-05-08T14:46:55Z</time>
      </trkpt>
      <trkpt lat="36.118490975350142" lon="-5.34827196970582">
        <ele>84.25</ele>
        <time>2025-05-08T14:46:56Z</time>
      </trkpt>
      <trkpt lat="36.118549983948469" lon="-5.348255038261414">
        <ele>85.209999999999994</ele>
        <time>2025-05-08T14:46:57Z</time>
      </trkpt>
      <trkpt lat="36.1186140216887" lon="-5.34822796471417">
        <ele>85.689999999999998</ele>
        <time>2025-05-08T14:46:58Z</time>
      </trkpt>
      <trkpt lat="36.11866096034646" lon="-5.348169961944223">
        <ele>85.689999999999998</ele>
        <time>2025-05-08T14:46:59Z</time>
      </trkpt>
      <trkpt lat="36.118707982823253" lon="-5.348111037164927">
        <ele>86.180000000000007</ele>
        <time>2025-05-08T14:47:00Z</time>
      </trkpt>
      <trkpt lat="36.118776965886354" lon="-5.348024033010006">
        <ele>86.180000000000007</ele>
        <time>2025-05-08T14:47:01Z</time>
      </trkpt>
      <trkpt lat="36.118800016120076" lon="-5.347964018583298">
        <ele>86.659999999999997</ele>
        <time>2025-05-08T14:47:02Z</time>
      </trkpt>
      <trkpt lat="36.11883002333343" lon="-5.347886988893151">
        <ele>86.659999999999997</ele>
        <time>2025-05-08T14:47:03Z</time>
      </trkpt>
      <trkpt lat="36.118860030546784" lon="-5.347807025536895">
        <ele>87.140000000000001</ele>
        <time>2025-05-08T14:47:04Z</time>
      </trkpt>
      <trkpt lat="36.118948962539434" lon="-5.347574008628726">
        <ele>88.579999999999998</ele>
        <time>2025-05-08T14:47:07Z</time>
      </trkpt>
      <trkpt lat="36.119005037471652" lon="-5.347546013072133">
        <ele>89.060000000000002</ele>
        <time>2025-05-08T14:47:08Z</time>
      </trkpt>
      <trkpt lat="36.119378032162786" lon="-5.347359012812376">
        <ele>92.420000000000002</ele>
        <time>2025-05-08T14:47:14Z</time>
      </trkpt>
      <trkpt lat="36.119442991912365" lon="-5.347330011427403">
        <ele>92.900000000000006</ele>
        <time>2025-05-08T14:47:15Z</time>
      </trkpt>
      <trkpt lat="36.119710961356759" lon="-5.34730201587081">
        <ele>96.269999999999996</ele>
        <time>2025-05-08T14:47:22Z</time>
      </trkpt>
      <trkpt lat="36.120016984641552" lon="-5.34738801419735">
        <ele>96.269999999999996</ele>
        <time>2025-05-08T14:47:29Z</time>
      </trkpt>
      <trkpt lat="36.120069036260247" lon="-5.347396982833743">
        <ele>96.75</ele>
        <time>2025-05-08T14:47:30Z</time>
      </trkpt>
      <trkpt lat="36.120214965194464" lon="-5.347423972561956">
        <ele>96.75</ele>
        <time>2025-05-08T14:47:33Z</time>
      </trkpt>
      <trkpt lat="36.120259976014495" lon="-5.347436964511871">
        <ele>97.230000000000004</ele>
        <time>2025-05-08T14:47:34Z</time>
      </trkpt>
      <trkpt lat="36.120303981006145" lon="-5.347450040280819">
        <ele>97.230000000000004</ele>
        <time>2025-05-08T14:47:35Z</time>
      </trkpt>
      <trkpt lat="36.120346980169415" lon="-5.347463032230735">
        <ele>97.709999999999994</ele>
        <time>2025-05-08T14:47:36Z</time>
      </trkpt>
      <trkpt lat="36.120385034009814" lon="-5.34747501835227">
        <ele>97.709999999999994</ele>
        <time>2025-05-08T14:47:37Z</time>
      </trkpt>
      <trkpt lat="36.120501039549708" lon="-5.347534026950598">
        <ele>97.709999999999994</ele>
        <time>2025-05-08T14:47:40Z</time>
      </trkpt>
      <trkpt lat="36.120553007349372" lon="-5.347566967830062">
        <ele>97.230000000000004</ele>
        <time>2025-05-08T14:47:41Z</time>
      </trkpt>
      <trkpt lat="36.120604975149035" lon="-5.347600998356938">
        <ele>96.75</ele>
        <time>2025-05-08T14:47:42Z</time>
      </trkpt>
      <trkpt lat="36.12065602093935" lon="-5.347634023055434">
        <ele>96.269999999999996</ele>
        <time>2025-05-08T14:47:43Z</time>
      </trkpt>
      <trkpt lat="36.120703965425491" lon="-5.347665036097169">
        <ele>95.790000000000006</ele>
        <time>2025-05-08T14:47:44Z</time>
      </trkpt>
      <trkpt lat="36.120750987902284" lon="-5.347694959491491">
        <ele>95.790000000000006</ele>
        <time>2025-05-08T14:47:45Z</time>
      </trkpt>
      <trkpt lat="36.120799016207457" lon="-5.347724966704845">
        <ele>95.790000000000006</ele>
        <time>2025-05-08T14:47:46Z</time>
      </trkpt>
      <trkpt lat="36.120846038684249" lon="-5.34775597974658">
        <ele>95.790000000000006</ele>
        <time>2025-05-08T14:47:47Z</time>
      </trkpt>
      <trkpt lat="36.120895994827151" lon="-5.347787998616695">
        <ele>96.269999999999996</ele>
        <time>2025-05-08T14:47:48Z</time>
      </trkpt>
      <trkpt lat="36.120947040617466" lon="-5.347821023315191">
        <ele>96.75</ele>
        <time>2025-05-08T14:47:49Z</time>
      </trkpt>
      <trkpt lat="36.121125994250178" lon="-5.347922025248408">
        <ele>98.670000000000002</ele>
        <time>2025-05-08T14:47:53Z</time>
      </trkpt>
      <trkpt lat="36.121175028383732" lon="-5.347945997491479">
        <ele>98.670000000000002</ele>
        <time>2025-05-08T14:47:54Z</time>
      </trkpt>
      <trkpt lat="36.121230013668537" lon="-5.347973993048072">
        <ele>98.670000000000002</ele>
        <time>2025-05-08T14:47:55Z</time>
      </trkpt>
      <trkpt lat="36.1215790361166" lon="-5.348193012177944">
        <ele>98.670000000000002</ele>
        <time>2025-05-08T14:48:01Z</time>
      </trkpt>
      <trkpt lat="36.121637038886547" lon="-5.348243974149227">
        <ele>99.150000000000006</ele>
        <time>2025-05-08T14:48:02Z</time>
      </trkpt>
      <trkpt lat="36.121694035828114" lon="-5.348295019939542">
        <ele>99.150000000000006</ele>
        <time>2025-05-08T14:48:03Z</time>
      </trkpt>
      <trkpt lat="36.121740974485874" lon="-5.348336007446051">
        <ele>99.150000000000006</ele>
        <time>2025-05-08T14:48:04Z</time>
      </trkpt>
      <trkpt lat="36.121780034154654" lon="-5.348370959982276">
        <ele>98.670000000000002</ele>
        <time>2025-05-08T14:48:05Z</time>
      </trkpt>
      <trkpt lat="36.121809035539627" lon="-5.348396021872759">
        <ele>98.670000000000002</ele>
        <time>2025-05-08T14:48:06Z</time>
      </trkpt>
      <trkpt lat="36.122058983892202" lon="-5.34861596301198">
        <ele>98.189999999999998</ele>
        <time>2025-05-08T14:48:16Z</time>
      </trkpt>
      <trkpt lat="36.122167026624084" lon="-5.348710007965565">
        <ele>97.230000000000004</ele>
        <time>2025-05-08T14:48:20Z</time>
      </trkpt>
      <trkpt lat="36.122198961675167" lon="-5.348738003522158">
        <ele>97.230000000000004</ele>
        <time>2025-05-08T14:48:21Z</time>
      </trkpt>
      <trkpt lat="36.122388979420066" lon="-5.348917040973902">
        <ele>95.310000000000002</ele>
        <time>2025-05-08T14:48:27Z</time>
      </trkpt>
      <trkpt lat="36.122759962454438" lon="-5.349290035665035">
        <ele>92.420000000000002</ele>
        <time>2025-05-08T14:48:36Z</time>
      </trkpt>
      <trkpt lat="36.122851995751262" lon="-5.34932398237288">
        <ele>91.459999999999994</ele>
        <time>2025-05-08T14:48:38Z</time>
      </trkpt>
      <trkpt lat="36.122887032106519" lon="-5.349335968494415">
        <ele>90.980000000000004</ele>
        <time>2025-05-08T14:48:39Z</time>
      </trkpt>
      <trkpt lat="36.122995996847749" lon="-5.349376033991575">
        <ele>88.099999999999994</ele>
        <time>2025-05-08T14:48:44Z</time>
      </trkpt>
      <trkpt lat="36.123402016237378" lon="-5.349451974034309">
        <ele>85.209999999999994</ele>
        <time>2025-05-08T14:48:51Z</time>
      </trkpt>
      <trkpt lat="36.123725976794958" lon="-5.349490027874708">
        <ele>83.290000000000006</ele>
        <time>2025-05-08T14:48:55Z</time>
      </trkpt>
      <trkpt lat="36.124522006139159" lon="-5.349580971524119">
        <ele>78.969999999999999</ele>
        <time>2025-05-08T14:49:05Z</time>
      </trkpt>
      <trkpt lat="36.124602975323796" lon="-5.349590023979545">
        <ele>78.480000000000004</ele>
        <time>2025-05-08T14:49:06Z</time>
      </trkpt>
      <trkpt lat="36.125098010525107" lon="-5.34964500926435">
        <ele>78</ele>
        <time>2025-05-08T14:49:12Z</time>
      </trkpt>
      <trkpt lat="36.125262966379523" lon="-5.349663030356169">
        <ele>78.480000000000004</ele>
        <time>2025-05-08T14:49:14Z</time>
      </trkpt>
      <trkpt lat="36.125708967447281" lon="-5.349635034799576">
        <ele>80.890000000000001</ele>
        <time>2025-05-08T14:49:19Z</time>
      </trkpt>
      <trkpt lat="36.126154968515038" lon="-5.349628999829292">
        <ele>81.849999999999994</ele>
        <time>2025-05-08T14:49:24Z</time>
      </trkpt>
      <trkpt lat="36.126231998205185" lon="-5.349637968465686">
        <ele>81.849999999999994</ele>
        <time>2025-05-08T14:49:25Z</time>
      </trkpt>
      <trkpt lat="36.12630701623857" lon="-5.349670993164182">
        <ele>81.370000000000005</ele>
        <time>2025-05-08T14:49:26Z</time>
      </trkpt>
      <trkpt lat="36.126383040100336" lon="-5.349706029519439">
        <ele>80.890000000000001</ele>
        <time>2025-05-08T14:49:27Z</time>
      </trkpt>
      <trkpt lat="36.126455962657928" lon="-5.349737964570522">
        <ele>80.890000000000001</ele>
        <time>2025-05-08T14:49:28Z</time>
      </trkpt>
      <trkpt lat="36.126529974862933" lon="-5.349771995097399">
        <ele>80.890000000000001</ele>
        <time>2025-05-08T14:49:29Z</time>
      </trkpt>
      <trkpt lat="36.126604992896318" lon="-5.349806025624275">
        <ele>80.409999999999997</ele>
        <time>2025-05-08T14:49:30Z</time>
      </trkpt>
      <trkpt lat="36.126674981787801" lon="-5.349823962897062">
        <ele>79.930000000000007</ele>
        <time>2025-05-08T14:49:31Z</time>
      </trkpt>
      <trkpt lat="36.126757962629199" lon="-5.349811976775527">
        <ele>79.930000000000007</ele>
        <time>2025-05-08T14:49:32Z</time>
      </trkpt>
      <trkpt lat="36.126837003976107" lon="-5.349783981218934">
        <ele>79.450000000000003</ele>
        <time>2025-05-08T14:49:33Z</time>
      </trkpt>
      <trkpt lat="36.126915039494634" lon="-5.349735030904412">
        <ele>79.450000000000003</ele>
        <time>2025-05-08T14:49:34Z</time>
      </trkpt>
      <trkpt lat="36.126992991194129" lon="-5.349685996770859">
        <ele>79.450000000000003</ele>
        <time>2025-05-08T14:49:35Z</time>
      </trkpt>
      <trkpt lat="36.127069015055895" lon="-5.349638974294066">
        <ele>79.450000000000003</ele>
        <time>2025-05-08T14:49:36Z</time>
      </trkpt>
      <trkpt lat="36.127142021432519" lon="-5.349593041464686">
        <ele>79.930000000000007</ele>
        <time>2025-05-08T14:49:37Z</time>
      </trkpt>
      <trkpt lat="36.127564972266555" lon="-5.349438982084394">
        <ele>81.370000000000005</ele>
        <time>2025-05-08T14:49:45Z</time>
      </trkpt>
      <trkpt lat="36.127677038311958" lon="-5.349423978477716">
        <ele>81.370000000000005</ele>
        <time>2025-05-08T14:49:47Z</time>
      </trkpt>
      <trkpt lat="36.127732023596764" lon="-5.349428001791239">
        <ele>81.370000000000005</ele>
        <time>2025-05-08T14:49:48Z</time>
      </trkpt>
      <trkpt lat="36.127792038023472" lon="-5.349433030933142">
        <ele>81.370000000000005</ele>
        <time>2025-05-08T14:49:49Z</time>
      </trkpt>
      <trkpt lat="36.128201996907592" lon="-5.349463960155845">
        <ele>79.930000000000007</ele>
        <time>2025-05-08T14:49:56Z</time>
      </trkpt>
      <trkpt lat="36.128304004669189" lon="-5.349469995126128">
        <ele>79.930000000000007</ele>
        <time>2025-05-08T14:49:58Z</time>
      </trkpt>
      <trkpt lat="36.128460997715592" lon="-5.349478963762522">
        <ele>79.930000000000007</ele>
        <time>2025-05-08T14:50:07Z</time>
      </trkpt>
      <trkpt lat="36.128493016585708" lon="-5.349530009552836">
        <ele>78.969999999999999</ele>
        <time>2025-05-08T14:50:10Z</time>
      </trkpt>
      <trkpt lat="36.128479018807411" lon="-5.349545013159514">
        <ele>78.480000000000004</ele>
        <time>2025-05-08T14:50:11Z</time>
      </trkpt>
      <trkpt lat="36.128453034907579" lon="-5.349570997059345">
        <ele>78.480000000000004</ele>
        <time>2025-05-08T14:50:12Z</time>
      </trkpt>
      <trkpt lat="36.128433002158999" lon="-5.349591029807925">
        <ele>78.969999999999999</ele>
        <time>2025-05-08T14:50:13Z</time>
      </trkpt>
      <trkpt lat="36.128409029915929" lon="-5.349588012322784">
        <ele>79.450000000000003</ele>
        <time>2025-05-08T14:50:14Z</time>
      </trkpt>
      <trkpt lat="36.128363013267517" lon="-5.349582983180881">
        <ele>79.930000000000007</ele>
        <time>2025-05-08T14:50:15Z</time>
      </trkpt>
      <trkpt lat="36.128310039639473" lon="-5.349577032029629">
        <ele>79.930000000000007</ele>
        <time>2025-05-08T14:50:16Z</time>
      </trkpt>
      <trkpt lat="36.128165032714605" lon="-5.349580971524119">
        <ele>79.450000000000003</ele>
        <time>2025-05-08T14:50:18Z</time>
      </trkpt>
      <trkpt lat="36.128083979710937" lon="-5.349593963474035">
        <ele>78.969999999999999</ele>
        <time>2025-05-08T14:50:19Z</time>
      </trkpt>
      <trkpt lat="36.127780973911285" lon="-5.349640985950828">
        <ele>77.040000000000006</ele>
        <time>2025-05-08T14:50:23Z</time>
      </trkpt>
      <trkpt lat="36.127706961706281" lon="-5.349652972072363">
        <ele>76.560000000000002</ele>
        <time>2025-05-08T14:50:24Z</time>
      </trkpt>
      <trkpt lat="36.127634039148688" lon="-5.349664036184549">
        <ele>75.599999999999994</ele>
        <time>2025-05-08T14:50:25Z</time>
      </trkpt>
      <trkpt lat="36.127544017508626" lon="-5.349684990942478">
        <ele>75.120000000000005</ele>
        <time>2025-05-08T14:50:26Z</time>
      </trkpt>
      <trkpt lat="36.127499006688595" lon="-5.349722960963845">
        <ele>74.159999999999997</ele>
        <time>2025-05-08T14:50:27Z</time>
      </trkpt>
      <trkpt lat="36.127461958676577" lon="-5.349754979833961">
        <ele>72.719999999999999</ele>
        <time>2025-05-08T14:50:28Z</time>
      </trkpt>
      <trkpt lat="36.127396998926997" lon="-5.349823040887713">
        <ele>72.239999999999995</ele>
        <time>2025-05-08T14:50:29Z</time>
      </trkpt>
      <trkpt lat="36.127364980056882" lon="-5.349910967051983">
        <ele>71.269999999999996</ele>
        <time>2025-05-08T14:50:30Z</time>
      </trkpt>
      <trkpt lat="36.127332039177418" lon="-5.349999982863665">
        <ele>70.310000000000002</ele>
        <time>2025-05-08T14:50:31Z</time>
      </trkpt>
      <trkpt lat="36.127297002822161" lon="-5.350092016160488">
        <ele>69.349999999999994</ele>
        <time>2025-05-08T14:50:32Z</time>
      </trkpt>
      <trkpt lat="36.12723003141582" lon="-5.350259989500046">
        <ele>67.430000000000007</ele>
        <time>2025-05-08T14:50:34Z</time>
      </trkpt>
      <trkpt lat="36.127200024202466" lon="-5.350335007533431">
        <ele>66.469999999999999</ele>
        <time>2025-05-08T14:50:35Z</time>
      </trkpt>
      <trkpt lat="36.127177979797125" lon="-5.350370965898037">
        <ele>65.510000000000005</ele>
        <time>2025-05-08T14:50:36Z</time>
      </trkpt>
      <trkpt lat="36.127120982855558" lon="-5.350408013910055">
        <ele>64.069999999999993</ele>
        <time>2025-05-08T14:50:37Z</time>
      </trkpt>
      <trkpt lat="36.127068009227514" lon="-5.350443972274661">
        <ele>63.100000000000001</ele>
        <time>2025-05-08T14:50:38Z</time>
      </trkpt>
      <trkpt lat="36.127021992579103" lon="-5.350474985316396">
        <ele>62.140000000000001</ele>
        <time>2025-05-08T14:50:39Z</time>
      </trkpt>
      <trkpt lat="36.126978993415833" lon="-5.350502980872989">
        <ele>61.659999999999997</ele>
        <time>2025-05-08T14:50:40Z</time>
      </trkpt>
      <trkpt lat="36.12654497846961" lon="-5.350642036646605">
        <ele>54.93</ele>
        <time>2025-05-08T14:50:48Z</time>
      </trkpt>
      <trkpt lat="36.126451017335057" lon="-5.350637007504702">
        <ele>54.450000000000003</ele>
        <time>2025-05-08T14:50:49Z</time>
      </trkpt>
      <trkpt lat="36.126033011823893" lon="-5.350614963099361">
        <ele>48.68</ele>
        <time>2025-05-08T14:50:57Z</time>
      </trkpt>
      <trkpt lat="36.125927986577153" lon="-5.350609011948109">
        <ele>47.240000000000002</ele>
        <time>2025-05-08T14:50:59Z</time>
      </trkpt>
      <trkpt lat="36.12575096078217" lon="-5.350599037483335">
        <ele>46.280000000000001</ele>
        <time>2025-05-08T14:51:01Z</time>
      </trkpt>
      <trkpt lat="36.125461030751467" lon="-5.350889973342419">
        <ele>42.920000000000002</ele>
        <time>2025-05-08T14:51:07Z</time>
      </trkpt>
      <trkpt lat="36.125422976911068" lon="-5.350928027182818">
        <ele>42.920000000000002</ele>
        <time>2025-05-08T14:51:08Z</time>
      </trkpt>
      <trkpt lat="36.125396993011236" lon="-5.350954011082649">
        <ele>42.920000000000002</ele>
        <time>2025-05-08T14:51:09Z</time>
      </trkpt>
      <trkpt lat="36.12536296248436" lon="-5.350987035781145">
        <ele>42.920000000000002</ele>
        <time>2025-05-08T14:51:11Z</time>
      </trkpt>
      <trkpt lat="36.125300014391541" lon="-5.351049983873963">
        <ele>42.920000000000002</ele>
        <time>2025-05-08T14:51:12Z</time>
      </trkpt>
      <trkpt lat="36.125300014391541" lon="-5.351049983873963">
        <ele>43.399999999999999</ele>
        <time>2025-05-08T14:51:13Z</time>
      </trkpt>
      <trkpt lat="36.125295991078019" lon="-5.351071022450924">
        <ele>42.920000000000002</ele>
        <time>2025-05-08T14:51:14Z</time>
      </trkpt>
      <trkpt lat="36.125282999128103" lon="-5.35112701356411">
        <ele>42.439999999999998</ele>
        <time>2025-05-08T14:51:15Z</time>
      </trkpt>
      <trkpt lat="36.125257015228271" lon="-5.351243019104004">
        <ele>42.439999999999998</ele>
        <time>2025-05-08T14:51:16Z</time>
      </trkpt>
      <trkpt lat="36.125257015228271" lon="-5.351294986903667">
        <ele>41.950000000000003</ele>
        <time>2025-05-08T14:51:17Z</time>
      </trkpt>
      <trkpt lat="36.125257015228271" lon="-5.351375034078956">
        <ele>41.469999999999999</ele>
        <time>2025-05-08T14:51:18Z</time>
      </trkpt>
      <trkpt lat="36.12523203715682" lon="-5.351402023807168">
        <ele>40.990000000000002</ele>
        <time>2025-05-08T14:51:19Z</time>
      </trkpt>
      <trkpt lat="36.125193983316422" lon="-5.351416021585465">
        <ele>41.469999999999999</ele>
        <time>2025-05-08T14:51:20Z</time>
      </trkpt>
      <trkpt lat="36.12514897249639" lon="-5.351432031020522">
        <ele>41.469999999999999</ele>
        <time>2025-05-08T14:51:21Z</time>
      </trkpt>
      <trkpt lat="36.125103961676359" lon="-5.35144804045558">
        <ele>41.469999999999999</ele>
        <time>2025-05-08T14:51:22Z</time>
      </trkpt>
      <trkpt lat="36.124998014420271" lon="-5.351486010476947">
        <ele>41.469999999999999</ele>
        <time>2025-05-08T14:51:24Z</time>
      </trkpt>
      <trkpt lat="36.124930959194899" lon="-5.351538984104991">
        <ele>40.990000000000002</ele>
        <time>2025-05-08T14:51:25Z</time>
      </trkpt>
      <trkpt lat="36.124898018315434" lon="-5.351589024066925">
        <ele>40.509999999999998</ele>
        <time>2025-05-08T14:51:26Z</time>
      </trkpt>
      <trkpt lat="36.124865999445319" lon="-5.351670999079943">
        <ele>40.030000000000001</ele>
        <time>2025-05-08T14:51:27Z</time>
      </trkpt>
      <trkpt lat="36.124857030808926" lon="-5.351744005456567">
        <ele>39.549999999999997</ele>
        <time>2025-05-08T14:51:28Z</time>
      </trkpt>
      <trkpt lat="36.12484697252512" lon="-5.351822040975094">
        <ele>39.07</ele>
        <time>2025-05-08T14:51:29Z</time>
      </trkpt>
      <trkpt lat="36.124838003888726" lon="-5.351897981017828">
        <ele>38.590000000000003</ele>
        <time>2025-05-08T14:51:30Z</time>
      </trkpt>
      <trkpt lat="36.124820988625288" lon="-5.352035025134683">
        <ele>37.630000000000003</ele>
        <time>2025-05-08T14:51:32Z</time>
      </trkpt>
      <trkpt lat="36.124813025817275" lon="-5.352095039561391">
        <ele>37.149999999999999</ele>
        <time>2025-05-08T14:51:33Z</time>
      </trkpt>
      <trkpt lat="36.12480103969574" lon="-5.352143989875913">
        <ele>37.149999999999999</ele>
        <time>2025-05-08T14:51:34Z</time>
      </trkpt>
      <trkpt lat="36.124745970591903" lon="-5.352141978219152">
        <ele>37.149999999999999</ele>
        <time>2025-05-08T14:51:35Z</time>
      </trkpt>
      <trkpt lat="36.124670030549169" lon="-5.35213896073401">
        <ele>37.149999999999999</ele>
        <time>2025-05-08T14:51:36Z</time>
      </trkpt>
      <trkpt lat="36.124585038051009" lon="-5.3521360270679">
        <ele>36.670000000000002</ele>
        <time>2025-05-08T14:51:37Z</time>
      </trkpt>
      <trkpt lat="36.124367024749517" lon="-5.352127980440855">
        <ele>35.710000000000001</ele>
        <time>2025-05-08T14:51:40Z</time>
      </trkpt>
      <trkpt lat="36.124170972034335" lon="-5.352172991260886">
        <ele>34.740000000000002</ele>
        <time>2025-05-08T14:51:43Z</time>
      </trkpt>
      <trkpt lat="36.124105006456375" lon="-5.352215990424156">
        <ele>34.259999999999998</ele>
        <time>2025-05-08T14:51:44Z</time>
      </trkpt>
      <trkpt lat="36.124038035050035" lon="-5.352258989587426">
        <ele>33.780000000000001</ele>
        <time>2025-05-08T14:51:45Z</time>
      </trkpt>
      <trkpt lat="36.12368599511683" lon="-5.352469962090254">
        <ele>27.050000000000001</ele>
        <time>2025-05-08T14:51:53Z</time>
      </trkpt>
      <trkpt lat="36.123583987355232" lon="-5.352527964860201">
        <ele>23.690000000000001</ele>
        <time>2025-05-08T14:52:06Z</time>
      </trkpt>
      <trkpt lat="36.123568983748555" lon="-5.352606000378728">
        <ele>24.170000000000002</ele>
        <time>2025-05-08T14:52:08Z</time>
      </trkpt>
      <trkpt lat="36.123582981526852" lon="-5.35263198427856">
        <ele>23.690000000000001</ele>
        <time>2025-05-08T14:52:09Z</time>
      </trkpt>
      <trkpt lat="36.123603014275432" lon="-5.352669032290578">
        <ele>22.73</ele>
        <time>2025-05-08T14:52:10Z</time>
      </trkpt>
      <trkpt lat="36.123690018430352" lon="-5.352832982316613">
        <ele>19.359999999999999</ele>
        <time>2025-05-08T14:52:13Z</time>
      </trkpt>
      <trkpt lat="36.123734023422003" lon="-5.352928033098579">
        <ele>18.399999999999999</ele>
        <time>2025-05-08T14:52:14Z</time>
      </trkpt>
      <trkpt lat="36.123724970966578" lon="-5.353226009756327">
        <ele>15.52</ele>
        <time>2025-05-08T14:52:18Z</time>
      </trkpt>
      <trkpt lat="36.123722959309816" lon="-5.353283006697893">
        <ele>14.56</ele>
        <time>2025-05-08T14:52:19Z</time>
      </trkpt>
      <trkpt lat="36.123721031472087" lon="-5.353336986154318">
        <ele>13.6</ele>
        <time>2025-05-08T14:52:20Z</time>
      </trkpt>
      <trkpt lat="36.123720025643706" lon="-5.353387026116252">
        <ele>13.119999999999999</ele>
        <time>2025-05-08T14:52:21Z</time>
      </trkpt>
      <trkpt lat="36.123718013986945" lon="-5.353434970602393">
        <ele>12.630000000000001</ele>
        <time>2025-05-08T14:52:22Z</time>
      </trkpt>
      <trkpt lat="36.123717008158565" lon="-5.35348903387785">
        <ele>11.67</ele>
        <time>2025-05-08T14:52:23Z</time>
      </trkpt>
      <trkpt lat="36.123714996501803" lon="-5.353531027212739">
        <ele>11.19</ele>
        <time>2025-05-08T14:52:24Z</time>
      </trkpt>
      <trkpt lat="36.123751038685441" lon="-5.353624988347292">
        <ele>10.23</ele>
        <time>2025-05-08T14:52:25Z</time>
      </trkpt>
      <trkpt lat="36.123805018141866" lon="-5.353624988347292">
        <ele>9.75</ele>
        <time>2025-05-08T14:52:26Z</time>
      </trkpt>
      <trkpt lat="36.124504990875721" lon="-5.353647032752633">
        <ele>5.42</ele>
        <time>2025-05-08T14:52:37Z</time>
      </trkpt>
      <trkpt lat="36.124992985278368" lon="-5.353486016392708">
        <ele>3.02</ele>
        <time>2025-05-08T14:52:43Z</time>
      </trkpt>
      <trkpt lat="36.125074038282037" lon="-5.353443017229438">
        <ele>2.54</ele>
        <time>2025-05-08T14:52:44Z</time>
      </trkpt>
      <trkpt lat="36.125214016065001" lon="-5.353370010852814">
        <ele>1.58</ele>
        <time>2025-05-08T14:52:46Z</time>
      </trkpt>
      <trkpt lat="36.125300014391541" lon="-5.353323994204402">
        <ele>1.1</ele>
        <time>2025-05-08T14:52:47Z</time>
      </trkpt>
      <trkpt lat="36.125300014391541" lon="-5.353323994204402">
        <ele>2.06</ele>
        <time>2025-05-08T14:52:50Z</time>
      </trkpt>
      <trkpt lat="36.125448038801551" lon="-5.353162977844477">
        <ele>2.06</ele>
        <time>2025-05-08T14:52:51Z</time>
      </trkpt>
      <trkpt lat="36.125621041283011" lon="-5.352973965927959">
        <ele>2.54</ele>
        <time>2025-05-08T14:52:55Z</time>
      </trkpt>
      <trkpt lat="36.125666974112391" lon="-5.352924009785056">
        <ele>2.54</ele>
        <time>2025-05-08T14:52:56Z</time>
      </trkpt>
      <trkpt lat="36.125718019902706" lon="-5.352869024500251">
        <ele>2.54</ele>
        <time>2025-05-08T14:52:57Z</time>
      </trkpt>
      <trkpt lat="36.125771999359131" lon="-5.352809010073543">
        <ele>3.02</ele>
        <time>2025-05-08T14:52:58Z</time>
      </trkpt>
      <trkpt lat="36.125822961330414" lon="-5.352740027010441">
        <ele>3.5</ele>
        <time>2025-05-08T14:52:59Z</time>
      </trkpt>
      <trkpt lat="36.125867972150445" lon="-5.352678000926971">
        <ele>3.98</ele>
        <time>2025-05-08T14:53:00Z</time>
      </trkpt>
      <trkpt lat="36.125916000455618" lon="-5.352612035349011">
        <ele>3.98</ele>
        <time>2025-05-08T14:53:01Z</time>
      </trkpt>
      <trkpt lat="36.126017002388835" lon="-5.352472979575396">
        <ele>5.91</ele>
        <time>2025-05-08T14:53:03Z</time>
      </trkpt>
      <trkpt lat="36.126115992665291" lon="-5.352337025105953">
        <ele>7.83</ele>
        <time>2025-05-08T14:53:06Z</time>
      </trkpt>
      <trkpt lat="36.126171983778477" lon="-5.35231196321547">
        <ele>8.310000000000001</ele>
        <time>2025-05-08T14:53:07Z</time>
      </trkpt>
      <trkpt lat="36.126229986548424" lon="-5.352283967658877">
        <ele>8.310000000000001</ele>
        <time>2025-05-08T14:53:08Z</time>
      </trkpt>
      <trkpt lat="36.126340040937066" lon="-5.352234011515975">
        <ele>9.75</ele>
        <time>2025-05-08T14:53:10Z</time>
      </trkpt>
      <trkpt lat="36.126397037878633" lon="-5.352207021787763">
        <ele>10.23</ele>
        <time>2025-05-08T14:53:11Z</time>
      </trkpt>
      <trkpt lat="36.127142021432519" lon="-5.35194399766624">
        <ele>13.6</ele>
        <time>2025-05-08T14:53:22Z</time>
      </trkpt>
      <trkpt lat="36.127214021980762" lon="-5.35192497074604">
        <ele>13.6</ele>
        <time>2025-05-08T14:53:23Z</time>
      </trkpt>
      <trkpt lat="36.127274036407471" lon="-5.351908039301634">
        <ele>14.08</ele>
        <time>2025-05-08T14:53:24Z</time>
      </trkpt>
      <trkpt lat="36.128012984991074" lon="-5.351957995444536">
        <ele>21.77</ele>
        <time>2025-05-08T14:53:33Z</time>
      </trkpt>
      <trkpt lat="36.128093032166362" lon="-5.351960007101297">
        <ele>22.25</ele>
        <time>2025-05-08T14:53:34Z</time>
      </trkpt>
      <trkpt lat="36.128177018836141" lon="-5.351962018758059">
        <ele>22.73</ele>
        <time>2025-05-08T14:53:35Z</time>
      </trkpt>
      <trkpt lat="36.128340968862176" lon="-5.351965958252549">
        <ele>23.210000000000001</ele>
        <time>2025-05-08T14:53:37Z</time>
      </trkpt>
      <trkpt lat="36.128416992723942" lon="-5.35196796990931">
        <ele>23.690000000000001</ele>
        <time>2025-05-08T14:53:38Z</time>
      </trkpt>
      <trkpt lat="36.128494022414088" lon="-5.351969981566072">
        <ele>24.649999999999999</ele>
        <time>2025-05-08T14:53:39Z</time>
      </trkpt>
      <trkpt lat="36.128742964938283" lon="-5.352004012092948">
        <ele>26.09</ele>
        <time>2025-05-08T14:53:42Z</time>
      </trkpt>
      <trkpt lat="36.128913033753633" lon="-5.352044999599457">
        <ele>26.09</ele>
        <time>2025-05-08T14:53:44Z</time>
      </trkpt>
      <trkpt lat="36.129675032570958" lon="-5.352273993194103">
        <ele>25.129999999999999</ele>
        <time>2025-05-08T14:53:52Z</time>
      </trkpt>
      <trkpt lat="36.13058203831315" lon="-5.352520002052188">
        <ele>23.690000000000001</ele>
        <time>2025-05-08T14:54:02Z</time>
      </trkpt>
      <trkpt lat="36.131187966093421" lon="-5.352684035897255">
        <ele>23.210000000000001</ele>
        <time>2025-05-08T14:54:09Z</time>
      </trkpt>
      <trkpt lat="36.131276981905103" lon="-5.352708008140326">
        <ele>22.73</ele>
        <time>2025-05-08T14:54:10Z</time>
      </trkpt>
      <trkpt lat="36.131361974403262" lon="-5.352730974555016">
        <ele>22.25</ele>
        <time>2025-05-08T14:54:11Z</time>
      </trkpt>
      <trkpt lat="36.132051972672343" lon="-5.352875981479883">
        <ele>22.25</ele>
        <time>2025-05-08T14:54:20Z</time>
      </trkpt>
      <trkpt lat="36.132138976827264" lon="-5.35289098508656">
        <ele>21.77</ele>
        <time>2025-05-08T14:54:21Z</time>
      </trkpt>
      <trkpt lat="36.13260299898684" lon="-5.352968014776707">
        <ele>20.809999999999999</ele>
        <time>2025-05-08T14:54:28Z</time>
      </trkpt>
      <trkpt lat="36.132917990908027" lon="-5.353020988404751">
        <ele>18.879999999999999</ele>
        <time>2025-05-08T14:54:37Z</time>
      </trkpt>
      <trkpt lat="36.132939029484987" lon="-5.353024005889893">
        <ele>18.879999999999999</ele>
        <time>2025-05-08T14:54:38Z</time>
      </trkpt>
      <trkpt lat="36.132968030869961" lon="-5.353026017546654">
        <ele>19.359999999999999</ele>
        <time>2025-05-08T14:54:39Z</time>
      </trkpt>
      <trkpt lat="36.132976999506354" lon="-5.353027023375034">
        <ele>19.359999999999999</ele>
        <time>2025-05-08T14:54:51Z</time>
      </trkpt>
      <trkpt lat="36.133047994226217" lon="-5.353032974526286">
        <ele>21.289999999999999</ele>
        <time>2025-05-08T14:55:01Z</time>
      </trkpt>
      <trkpt lat="36.133283022791147" lon="-5.353052001446486">
        <ele>22.25</ele>
        <time>2025-05-08T14:55:15Z</time>
      </trkpt>
      <trkpt lat="36.133448984473944" lon="-5.353064993396401">
        <ele>22.25</ele>
        <time>2025-05-08T14:55:26Z</time>
      </trkpt>
      <trkpt lat="36.133558033034205" lon="-5.353057030588388">
        <ele>22.25</ele>
        <time>2025-05-08T14:55:34Z</time>
      </trkpt>
      <trkpt lat="36.133618969470263" lon="-5.353048983961344">
        <ele>22.25</ele>
        <time>2025-05-08T14:55:41Z</time>
      </trkpt>
      <trkpt lat="36.133775962516665" lon="-5.352809010073543">
        <ele>23.690000000000001</ele>
        <time>2025-05-08T14:55:48Z</time>
      </trkpt>
      <trkpt lat="36.133798006922007" lon="-5.352799035608769">
        <ele>23.690000000000001</ele>
        <time>2025-05-08T14:55:49Z</time>
      </trkpt>
      <trkpt lat="36.133818961679935" lon="-5.352787971496582">
        <ele>24.170000000000002</ele>
        <time>2025-05-08T14:55:50Z</time>
      </trkpt>
      <trkpt lat="36.133903032168746" lon="-5.352835999801755">
        <ele>24.170000000000002</ele>
        <time>2025-05-08T14:55:51Z</time>
      </trkpt>
      <trkpt lat="36.133946031332016" lon="-5.352809010073543">
        <ele>24.170000000000002</ele>
        <time>2025-05-08T14:55:52Z</time>
      </trkpt>
      <trkpt lat="36.133990036323667" lon="-5.35278202034533">
        <ele>24.170000000000002</ele>
        <time>2025-05-08T14:55:53Z</time>
      </trkpt>
      <trkpt lat="36.134031023830175" lon="-5.352756958454847">
        <ele>24.170000000000002</ele>
        <time>2025-05-08T14:55:54Z</time>
      </trkpt>
      <trkpt lat="36.134069999679923" lon="-5.352732986211777">
        <ele>24.170000000000002</ele>
        <time>2025-05-08T14:55:55Z</time>
      </trkpt>
      <trkpt lat="36.134119033813477" lon="-5.352701973170042">
        <ele>24.170000000000002</ele>
        <time>2025-05-08T14:55:56Z</time>
      </trkpt>
      <trkpt lat="36.134154992178082" lon="-5.352691998705268">
        <ele>24.170000000000002</ele>
        <time>2025-05-08T14:55:57Z</time>
      </trkpt>
      <trkpt lat="36.134269991889596" lon="-5.352658974006772">
        <ele>23.690000000000001</ele>
        <time>2025-05-08T14:56:00Z</time>
      </trkpt>
      <trkpt lat="36.134312991052866" lon="-5.352552020922303">
        <ele>23.210000000000001</ele>
        <time>2025-05-08T14:56:01Z</time>
      </trkpt>
      <trkpt lat="36.134393038228154" lon="-5.352539028972387">
        <ele>23.210000000000001</ele>
        <time>2025-05-08T14:56:02Z</time>
      </trkpt>
      <trkpt lat="36.134438971057534" lon="-5.352560989558697">
        <ele>22.25</ele>
        <time>2025-05-08T14:56:03Z</time>
      </trkpt>
      <trkpt lat="36.134483981877565" lon="-5.352658974006772">
        <ele>21.289999999999999</ele>
        <time>2025-05-08T14:56:04Z</time>
      </trkpt>
      <trkpt lat="36.13445196300745" lon="-5.352725023403764">
        <ele>20.809999999999999</ele>
        <time>2025-05-08T14:56:05Z</time>
      </trkpt>
      <trkpt lat="36.134440982714295" lon="-5.352744972333312">
        <ele>20.32</ele>
        <time>2025-05-08T14:56:06Z</time>
      </trkpt>
      <trkpt lat="36.134327994659543" lon="-5.352757964283228">
        <ele>19.84</ele>
        <time>2025-05-08T14:56:07Z</time>
      </trkpt>
      <trkpt lat="36.134294969961047" lon="-5.352823007851839">
        <ele>18.879999999999999</ele>
        <time>2025-05-08T14:56:08Z</time>
      </trkpt>
      <trkpt lat="36.134262029081583" lon="-5.352888973429799">
        <ele>18.399999999999999</ele>
        <time>2025-05-08T14:56:09Z</time>
      </trkpt>
      <trkpt lat="36.134230010211468" lon="-5.35295301117003">
        <ele>18.399999999999999</ele>
        <time>2025-05-08T14:56:10Z</time>
      </trkpt>
      <trkpt lat="36.13419396802783" lon="-5.353025011718273">
        <ele>17.920000000000002</ele>
        <time>2025-05-08T14:56:11Z</time>
      </trkpt>
      <trkpt lat="36.134152980521321" lon="-5.353106986731291">
        <ele>16.960000000000001</ele>
        <time>2025-05-08T14:56:12Z</time>
      </trkpt>
      <trkpt lat="36.133895991370082" lon="-5.35362096503377">
        <ele>11.67</ele>
        <time>2025-05-08T14:56:20Z</time>
      </trkpt>
      <trkpt lat="36.133905965834856" lon="-5.353862028568983">
        <ele>9.27</ele>
        <time>2025-05-08T14:56:25Z</time>
      </trkpt>
      <trkpt lat="36.133925998583436" lon="-5.353881977498531">
        <ele>8.789999999999999</ele>
        <time>2025-05-08T14:56:26Z</time>
      </trkpt>
      <trkpt lat="36.133990958333015" lon="-5.353904021903873">
        <ele>8.310000000000001</ele>
        <time>2025-05-08T14:56:27Z</time>
      </trkpt>
      <trkpt lat="36.134054996073246" lon="-5.353924976661801">
        <ele>7.83</ele>
        <time>2025-05-08T14:56:28Z</time>
      </trkpt>
      <trkpt lat="36.134111993014812" lon="-5.353950038552284">
        <ele>7.83</ele>
        <time>2025-05-08T14:56:29Z</time>
      </trkpt>
      <trkpt lat="36.134177036583424" lon="-5.353978034108877">
        <ele>7.35</ele>
        <time>2025-05-08T14:56:30Z</time>
      </trkpt>
      <trkpt lat="36.134972982108593" lon="-5.354125974699855">
        <ele>6.87</ele>
        <time>2025-05-08T14:56:41Z</time>
      </trkpt>
      <trkpt lat="36.135035008192062" lon="-5.354137038812041">
        <ele>7.35</ele>
        <time>2025-05-08T14:56:42Z</time>
      </trkpt>
      <trkpt lat="36.135170962661505" lon="-5.354161011055112">
        <ele>4.94</ele>
        <time>2025-05-08T14:56:46Z</time>
      </trkpt>
      <trkpt lat="36.135170962661505" lon="-5.354161011055112">
        <ele>4.46</ele>
        <time>2025-05-08T14:56:47Z</time>
      </trkpt>
      <trkpt lat="36.135170962661505" lon="-5.354161011055112">
        <ele>3.98</ele>
        <time>2025-05-08T14:56:48Z</time>
      </trkpt>
      <trkpt lat="36.13524598069489" lon="-5.354196969419718">
        <ele>3.5</ele>
        <time>2025-05-08T14:56:49Z</time>
      </trkpt>
      <trkpt lat="36.135267019271851" lon="-5.354207027703524">
        <ele>3.02</ele>
        <time>2025-05-08T14:56:50Z</time>
      </trkpt>
      <trkpt lat="36.135297026485205" lon="-5.35422102548182">
        <ele>2.54</ele>
        <time>2025-05-08T14:56:51Z</time>
      </trkpt>
      <trkpt lat="36.135326027870178" lon="-5.354235023260117">
        <ele>1.58</ele>
        <time>2025-05-08T14:56:52Z</time>
      </trkpt>
      <trkpt lat="36.13578200340271" lon="-5.354451024904847">
        <ele>-2.27</ele>
        <time>2025-05-08T14:57:02Z</time>
      </trkpt>
      <trkpt lat="36.135929021984339" lon="-5.35452101379633">
        <ele>-3.23</ele>
        <time>2025-05-08T14:57:05Z</time>
      </trkpt>
      <trkpt lat="36.135986018925905" lon="-5.354548003524542">
        <ele>-3.23</ele>
        <time>2025-05-08T14:57:06Z</time>
      </trkpt>
      <trkpt lat="36.136034969240427" lon="-5.354568036273122">
        <ele>-3.23</ele>
        <time>2025-05-08T14:57:07Z</time>
      </trkpt>
      <trkpt lat="36.136090038344264" lon="-5.354592008516192">
        <ele>-3.23</ele>
        <time>2025-05-08T14:57:08Z</time>
      </trkpt>
      <trkpt lat="36.136148041114211" lon="-5.354615980759263">
        <ele>-3.23</ele>
        <time>2025-05-08T14:57:09Z</time>
      </trkpt>
      <trkpt lat="36.136214006692171" lon="-5.354640036821365">
        <ele>-3.23</ele>
        <time>2025-05-08T14:57:10Z</time>
      </trkpt>
      <trkpt lat="36.136623965576291" lon="-5.354803986847401">
        <ele>-3.71</ele>
        <time>2025-05-08T14:57:16Z</time>
      </trkpt>
      <trkpt lat="36.136665036901832" lon="-5.35482200793922">
        <ele>-3.71</ele>
        <time>2025-05-08T14:57:17Z</time>
      </trkpt>
      <trkpt lat="36.136967036873102" lon="-5.354949999600649">
        <ele>-2.27</ele>
        <time>2025-05-08T14:57:26Z</time>
      </trkpt>
      <trkpt lat="36.137070972472429" lon="-5.3549940045923">
        <ele>-1.3</ele>
        <time>2025-05-08T14:57:30Z</time>
      </trkpt>
      <trkpt lat="36.137081030756235" lon="-5.354998027905822">
        <ele>-1.3</ele>
        <time>2025-05-08T14:57:31Z</time>
      </trkpt>
      <trkpt lat="36.137081030756235" lon="-5.354998027905822">
        <ele>-0.82</ele>
        <time>2025-05-08T14:57:32Z</time>
      </trkpt>
      <trkpt lat="36.137167029082775" lon="-5.355048989877105">
        <ele>-0.34</ele>
        <time>2025-05-08T14:57:34Z</time>
      </trkpt>
      <trkpt lat="36.137206004932523" lon="-5.355072040110827">
        <ele>-0.34</ele>
        <time>2025-05-08T14:57:35Z</time>
      </trkpt>
      <trkpt lat="36.13724104128778" lon="-5.355092994868755">
        <ele>0.14</ele>
        <time>2025-05-08T14:57:36Z</time>
      </trkpt>
      <trkpt lat="36.137270964682102" lon="-5.355110010132194">
        <ele>0.14</ele>
        <time>2025-05-08T14:57:37Z</time>
      </trkpt>
      <trkpt lat="36.137297032400966" lon="-5.355126019567251">
        <ele>0.62</ele>
        <time>2025-05-08T14:57:38Z</time>
      </trkpt>
      <trkpt lat="36.137322010472417" lon="-5.355141023173928">
        <ele>0.62</ele>
        <time>2025-05-08T14:57:39Z</time>
      </trkpt>
      <trkpt lat="36.13735101185739" lon="-5.355158038437367">
        <ele>0.62</ele>
        <time>2025-05-08T14:57:40Z</time>
      </trkpt>
      <trkpt lat="36.137389987707138" lon="-5.355181004852057">
        <ele>1.1</ele>
        <time>2025-05-08T14:57:41Z</time>
      </trkpt>
      <trkpt lat="36.137450002133846" lon="-5.355216041207314">
        <ele>1.1</ele>
        <time>2025-05-08T14:57:42Z</time>
      </trkpt>
      <trkpt lat="36.137506999075413" lon="-5.355249987915158">
        <ele>1.58</ele>
        <time>2025-05-08T14:57:43Z</time>
      </trkpt>
      <trkpt lat="36.137553015723825" lon="-5.355276977643371">
        <ele>1.58</ele>
        <time>2025-05-08T14:57:44Z</time>
      </trkpt>
      <trkpt lat="36.13756600767374" lon="-5.355283012613654">
        <ele>2.06</ele>
        <time>2025-05-08T14:57:45Z</time>
      </trkpt>
      <trkpt lat="36.137586962431669" lon="-5.355291981250048">
        <ele>3.02</ele>
        <time>2025-05-08T14:57:46Z</time>
      </trkpt>
      <trkpt lat="36.137613030150533" lon="-5.355303967371583">
        <ele>3.5</ele>
        <time>2025-05-08T14:57:47Z</time>
      </trkpt>
      <trkpt lat="36.1376510001719" lon="-5.355320982635021">
        <ele>3.98</ele>
        <time>2025-05-08T14:57:48Z</time>
      </trkpt>
      <trkpt lat="36.13769399933517" lon="-5.355340009555221">
        <ele>4.46</ele>
        <time>2025-05-08T14:57:49Z</time>
      </trkpt>
      <trkpt lat="36.137778991833329" lon="-5.355378985404968">
        <ele>5.42</ele>
        <time>2025-05-08T14:57:51Z</time>
      </trkpt>
      <trkpt lat="36.137856021523476" lon="-5.355413015931845">
        <ele>6.87</ele>
        <time>2025-05-08T14:57:53Z</time>
      </trkpt>
      <trkpt lat="36.137894997373223" lon="-5.355431037023664">
        <ele>7.83</ele>
        <time>2025-05-08T14:57:54Z</time>
      </trkpt>
      <trkpt lat="36.137931039556861" lon="-5.355446962639689">
        <ele>8.310000000000001</ele>
        <time>2025-05-08T14:57:55Z</time>
      </trkpt>
      <trkpt lat="36.137960962951183" lon="-5.355460038408637">
        <ele>8.789999999999999</ele>
        <time>2025-05-08T14:57:56Z</time>
      </trkpt>
      <trkpt lat="36.137984013184905" lon="-5.355471018701792">
        <ele>9.27</ele>
        <time>2025-05-08T14:57:57Z</time>
      </trkpt>
      <trkpt lat="36.137984013184905" lon="-5.355471018701792">
        <ele>9.75</ele>
        <time>2025-05-08T14:58:09Z</time>
      </trkpt>
      <trkpt lat="36.138180987909436" lon="-5.355559028685093">
        <ele>12.630000000000001</ele>
        <time>2025-05-08T14:58:27Z</time>
      </trkpt>
      <trkpt lat="36.138267992064357" lon="-5.355598004534841">
        <ele>13.6</ele>
        <time>2025-05-08T14:58:29Z</time>
      </trkpt>
      <trkpt lat="36.138314008712769" lon="-5.355618959292769">
        <ele>14.56</ele>
        <time>2025-05-08T14:58:30Z</time>
      </trkpt>
      <trkpt lat="36.138351978734136" lon="-5.355635974556208">
        <ele>17.920000000000002</ele>
        <time>2025-05-08T14:58:31Z</time>
      </trkpt>
      <trkpt lat="36.138903005048633" lon="-5.355963036417961">
        <ele>16.960000000000001</ele>
        <time>2025-05-08T14:58:41Z</time>
      </trkpt>
      <trkpt lat="36.138937035575509" lon="-5.355995977297425">
        <ele>16.48</ele>
        <time>2025-05-08T14:58:42Z</time>
      </trkpt>
      <trkpt lat="36.138966958969831" lon="-5.356025984510779">
        <ele>16</ele>
        <time>2025-05-08T14:58:43Z</time>
      </trkpt>
      <trkpt lat="36.139023033902049" lon="-5.356033025309444">
        <ele>15.52</ele>
        <time>2025-05-08T14:58:44Z</time>
      </trkpt>
      <trkpt lat="36.139076007530093" lon="-5.356007041409612">
        <ele>15.52</ele>
        <time>2025-05-08T14:58:45Z</time>
      </trkpt>
      <trkpt lat="36.139191007241607" lon="-5.356035958975554">
        <ele>15.52</ele>
        <time>2025-05-08T14:58:46Z</time>
      </trkpt>
      <trkpt lat="36.139283962547779" lon="-5.355972005054355">
        <ele>14.56</ele>
        <time>2025-05-08T14:58:47Z</time>
      </trkpt>
      <trkpt lat="36.139372978359461" lon="-5.355910984799266">
        <ele>13.6</ele>
        <time>2025-05-08T14:58:48Z</time>
      </trkpt>
      <trkpt lat="36.139826020225883" lon="-5.355616025626659">
        <ele>12.630000000000001</ele>
        <time>2025-05-08T14:58:56Z</time>
      </trkpt>
      <trkpt lat="36.139957029372454" lon="-5.355560034513474">
        <ele>11.67</ele>
        <time>2025-05-08T14:59:00Z</time>
      </trkpt>
      <trkpt lat="36.139957029372454" lon="-5.355560034513474">
        <ele>11.67</ele>
        <time>2025-05-08T14:59:01Z</time>
      </trkpt>
      <trkpt lat="36.139986030757427" lon="-5.355547964572907">
        <ele>10.710000000000001</ele>
        <time>2025-05-08T14:59:02Z</time>
      </trkpt>
      <trkpt lat="36.140011008828878" lon="-5.355537990108132">
        <ele>9.75</ele>
        <time>2025-05-08T14:59:03Z</time>
      </trkpt>
      <trkpt lat="36.140046967193484" lon="-5.355521980673075">
        <ele>8.789999999999999</ele>
        <time>2025-05-08T14:59:04Z</time>
      </trkpt>
      <trkpt lat="36.140093989670277" lon="-5.355503037571907">
        <ele>8.789999999999999</ele>
        <time>2025-05-08T14:59:05Z</time>
      </trkpt>
      <trkpt lat="36.140147969126701" lon="-5.355479987338185">
        <ele>8.310000000000001</ele>
        <time>2025-05-08T14:59:06Z</time>
      </trkpt>
      <trkpt lat="36.140178982168436" lon="-5.355473030358553">
        <ele>7.83</ele>
        <time>2025-05-08T14:59:07Z</time>
      </trkpt>
      <trkpt lat="36.140231033787131" lon="-5.355489961802959">
        <ele>7.35</ele>
        <time>2025-05-08T14:59:08Z</time>
      </trkpt>
      <trkpt lat="36.140285013243556" lon="-5.355507982894778">
        <ele>6.87</ele>
        <time>2025-05-08T14:59:09Z</time>
      </trkpt>
      <trkpt lat="36.140346033498645" lon="-5.355529021471739">
        <ele>6.87</ele>
        <time>2025-05-08T14:59:10Z</time>
      </trkpt>
      <trkpt lat="36.140402024611831" lon="-5.355564979836345">
        <ele>6.39</ele>
        <time>2025-05-08T14:59:11Z</time>
      </trkpt>
      <trkpt lat="36.140770995989442" lon="-5.355855999514461">
        <ele>3.98</ele>
        <time>2025-05-08T14:59:17Z</time>
      </trkpt>
      <trkpt lat="36.140893958508968" lon="-5.355882989242673">
        <ele>3.5</ele>
        <time>2025-05-08T14:59:18Z</time>
      </trkpt>
      <trkpt lat="36.140976017341018" lon="-5.355900004506111">
        <ele>3.5</ele>
        <time>2025-05-08T14:59:19Z</time>
      </trkpt>
      <trkpt lat="36.141061009839177" lon="-5.355919031426311">
        <ele>3.02</ele>
        <time>2025-05-08T14:59:20Z</time>
      </trkpt>
      <trkpt lat="36.141071990132332" lon="-5.35592095926404">
        <ele>3.02</ele>
        <time>2025-05-08T14:59:21Z</time>
      </trkpt>
      <trkpt lat="36.141212973743677" lon="-5.355890030041337">
        <ele>3.5</ele>
        <time>2025-05-08T14:59:22Z</time>
      </trkpt>
      <trkpt lat="36.141294026747346" lon="-5.355871003121138">
        <ele>3.02</ele>
        <time>2025-05-08T14:59:23Z</time>
      </trkpt>
      <trkpt lat="36.141472980380058" lon="-5.355831021443009">
        <ele>3.02</ele>
        <time>2025-05-08T14:59:26Z</time>
      </trkpt>
      <trkpt lat="36.141513967886567" lon="-5.355820041149855">
        <ele>3.02</ele>
        <time>2025-05-08T14:59:27Z</time>
      </trkpt>
      <trkpt lat="36.141550010070205" lon="-5.355809982866049">
        <ele>3.5</ele>
        <time>2025-05-08T14:59:28Z</time>
      </trkpt>
      <trkpt lat="36.141576999798417" lon="-5.355803025886416">
        <ele>3.5</ele>
        <time>2025-05-08T14:59:29Z</time>
      </trkpt>
      <trkpt lat="36.141603989526629" lon="-5.355794979259372">
        <ele>3.5</ele>
        <time>2025-05-08T14:59:30Z</time>
      </trkpt>
      <trkpt lat="36.141626033931971" lon="-5.35578902810812">
        <ele>3.98</ele>
        <time>2025-05-08T14:59:31Z</time>
      </trkpt>
      <trkpt lat="36.141626033931971" lon="-5.35578902810812">
        <ele>3.98</ele>
        <time>2025-05-08T14:59:40Z</time>
      </trkpt>
      <trkpt lat="36.141843963414431" lon="-5.355731025338173">
        <ele>4.46</ele>
        <time>2025-05-08T14:59:48Z</time>
      </trkpt>
      <trkpt lat="36.142035992816091" lon="-5.355679979547858">
        <ele>3.98</ele>
        <time>2025-05-08T14:59:51Z</time>
      </trkpt>
      <trkpt lat="36.142088966444135" lon="-5.355665981769562">
        <ele>3.98</ele>
        <time>2025-05-08T14:59:52Z</time>
      </trkpt>
      <trkpt lat="36.142164990305901" lon="-5.355647960677743">
        <ele>4.46</ele>
        <time>2025-05-08T14:59:53Z</time>
      </trkpt>
      <trkpt lat="36.142256017774343" lon="-5.355624994263053">
        <ele>4.46</ele>
        <time>2025-05-08T14:59:54Z</time>
      </trkpt>
      <trkpt lat="36.142355008050799" lon="-5.355600016191602">
        <ele>4.46</ele>
        <time>2025-05-08T14:59:55Z</time>
      </trkpt>
      <trkpt lat="36.142456009984016" lon="-5.355575038120151">
        <ele>4.46</ele>
        <time>2025-05-08T14:59:56Z</time>
      </trkpt>
      <trkpt lat="36.142556006088853" lon="-5.355549976229668">
        <ele>4.46</ele>
        <time>2025-05-08T14:59:57Z</time>
      </trkpt>
      <trkpt lat="36.142646027728915" lon="-5.355527009814978">
        <ele>4.46</ele>
        <time>2025-05-08T14:59:58Z</time>
      </trkpt>
      <trkpt lat="36.142776031047106" lon="-5.355494990944862">
        <ele>4.94</ele>
        <time>2025-05-08T15:00:00Z</time>
      </trkpt>
      <trkpt lat="36.142819030210376" lon="-5.355474958196282">
        <ele>4.94</ele>
        <time>2025-05-08T15:00:01Z</time>
      </trkpt>
      <trkpt lat="36.142861023545265" lon="-5.355452997609973">
        <ele>5.42</ele>
        <time>2025-05-08T15:00:02Z</time>
      </trkpt>
      <trkpt lat="36.142893964424729" lon="-5.355435982346535">
        <ele>5.42</ele>
        <time>2025-05-08T15:00:03Z</time>
      </trkpt>
      <trkpt lat="36.142921959981322" lon="-5.355420978739858">
        <ele>5.91</ele>
        <time>2025-05-08T15:00:04Z</time>
      </trkpt>
      <trkpt lat="36.14295800216496" lon="-5.35540203563869">
        <ele>5.91</ele>
        <time>2025-05-08T15:00:13Z</time>
      </trkpt>
      <trkpt lat="36.143190013244748" lon="-5.35527496598661">
        <ele>4.94</ele>
        <time>2025-05-08T15:00:33Z</time>
      </trkpt>
      <trkpt lat="36.143295960500836" lon="-5.35521000623703">
        <ele>4.46</ele>
        <time>2025-05-08T15:00:35Z</time>
      </trkpt>
      <trkpt lat="36.14398998208344" lon="-5.354869030416012">
        <ele>5.42</ele>
        <time>2025-05-08T15:00:46Z</time>
      </trkpt>
      <trkpt lat="36.144342022016644" lon="-5.354841034859419">
        <ele>5.42</ele>
        <time>2025-05-08T15:00:50Z</time>
      </trkpt>
      <trkpt lat="36.14442097954452" lon="-5.354855032637715">
        <ele>4.94</ele>
        <time>2025-05-08T15:00:51Z</time>
      </trkpt>
      <trkpt lat="36.144504966214299" lon="-5.354880010709167">
        <ele>4.46</ele>
        <time>2025-05-08T15:00:52Z</time>
      </trkpt>
      <trkpt lat="36.145074013620615" lon="-5.355041027069092">
        <ele>2.54</ele>
        <time>2025-05-08T15:00:59Z</time>
      </trkpt>
      <trkpt lat="36.145141990855336" lon="-5.355041027069092">
        <ele>2.54</ele>
        <time>2025-05-08T15:01:00Z</time>
      </trkpt>
      <trkpt lat="36.145205022767186" lon="-5.355041027069092">
        <ele>2.54</ele>
        <time>2025-05-08T15:01:01Z</time>
      </trkpt>
      <trkpt lat="36.145271994173527" lon="-5.355013031512499">
        <ele>2.54</ele>
        <time>2025-05-08T15:01:02Z</time>
      </trkpt>
      <trkpt lat="36.145310970023274" lon="-5.354943964630365">
        <ele>2.54</ele>
        <time>2025-05-08T15:01:03Z</time>
      </trkpt>
      <trkpt lat="36.145349023863673" lon="-5.35486500710249">
        <ele>2.54</ele>
        <time>2025-05-08T15:01:04Z</time>
      </trkpt>
      <trkpt lat="36.145374001935124" lon="-5.35477900877595">
        <ele>2.54</ele>
        <time>2025-05-08T15:01:05Z</time>
      </trkpt>
      <trkpt lat="36.145624034106731" lon="-5.353982979431748">
        <ele>1.1</ele>
        <time>2025-05-08T15:01:15Z</time>
      </trkpt>
      <trkpt lat="36.145701985806227" lon="-5.353825986385346">
        <ele>0.62</ele>
        <time>2025-05-08T15:01:23Z</time>
      </trkpt>
      <trkpt lat="36.145727969706059" lon="-5.353775024414063">
        <ele>0.62</ele>
        <time>2025-05-08T15:01:24Z</time>
      </trkpt>
      <trkpt lat="36.145759988576174" lon="-5.353677961975336">
        <ele>0.62</ele>
        <time>2025-05-08T15:01:25Z</time>
      </trkpt>
      <trkpt lat="36.14581698551774" lon="-5.353622976690531">
        <ele>0.62</ele>
        <time>2025-05-08T15:01:26Z</time>
      </trkpt>
      <trkpt lat="36.145875994116068" lon="-5.353587018325925">
        <ele>0.62</ele>
        <time>2025-05-08T15:01:27Z</time>
      </trkpt>
      <trkpt lat="36.146269021555781" lon="-5.35323103889823">
        <ele>-0.34</ele>
        <time>2025-05-08T15:01:33Z</time>
      </trkpt>
      <trkpt lat="36.14661100320518" lon="-5.352928033098579">
        <ele>1.58</ele>
        <time>2025-05-08T15:01:39Z</time>
      </trkpt>
      <trkpt lat="36.147025991231203" lon="-5.352666014805436">
        <ele>4.94</ele>
        <time>2025-05-08T15:01:46Z</time>
      </trkpt>
      <trkpt lat="36.147057004272938" lon="-5.352618992328644">
        <ele>5.42</ele>
        <time>2025-05-08T15:01:47Z</time>
      </trkpt>
      <trkpt lat="36.147088017314672" lon="-5.352497035637498">
        <ele>6.39</ele>
        <time>2025-05-08T15:01:49Z</time>
      </trkpt>
      <trkpt lat="36.147095980122685" lon="-5.352426962926984">
        <ele>6.87</ele>
        <time>2025-05-08T15:01:50Z</time>
      </trkpt>
      <trkpt lat="36.147100003436208" lon="-5.352377006784082">
        <ele>7.35</ele>
        <time>2025-05-08T15:01:51Z</time>
      </trkpt>
      <trkpt lat="36.147062033414841" lon="-5.35230802372098">
        <ele>7.83</ele>
        <time>2025-05-08T15:01:52Z</time>
      </trkpt>
      <trkpt lat="36.147021967917681" lon="-5.352236023172736">
        <ele>7.83</ele>
        <time>2025-05-08T15:01:53Z</time>
      </trkpt>
      <trkpt lat="36.146558029577136" lon="-5.351301021873951">
        <ele>9.75</ele>
        <time>2025-05-08T15:02:04Z</time>
      </trkpt>
      <trkpt lat="36.146534979343414" lon="-5.351209994405508">
        <ele>9.75</ele>
        <time>2025-05-08T15:02:05Z</time>
      </trkpt>
      <trkpt lat="36.146516036242247" lon="-5.351134976372123">
        <ele>9.27</ele>
        <time>2025-05-08T15:02:06Z</time>
      </trkpt>
      <trkpt lat="36.14650103263557" lon="-5.351071022450924">
        <ele>9.27</ele>
        <time>2025-05-08T15:02:07Z</time>
      </trkpt>
      <trkpt lat="36.146508995443583" lon="-5.351022994145751">
        <ele>9.27</ele>
        <time>2025-05-08T15:02:08Z</time>
      </trkpt>
      <trkpt lat="36.146516036242247" lon="-5.3509789891541">
        <ele>9.27</ele>
        <time>2025-05-08T15:02:09Z</time>
      </trkpt>
      <trkpt lat="36.146516036242247" lon="-5.3509789891541">
        <ele>9.27</ele>
        <time>2025-05-08T15:02:17Z</time>
      </trkpt>
      <trkpt lat="36.146539002656937" lon="-5.350840017199516">
        <ele>10.23</ele>
        <time>2025-05-08T15:02:31Z</time>
      </trkpt>
      <trkpt lat="36.146543025970459" lon="-5.350787965580821">
        <ele>10.23</ele>
        <time>2025-05-08T15:02:32Z</time>
      </trkpt>
      <trkpt lat="36.146543025970459" lon="-5.350731974467635">
        <ele>11.19</ele>
        <time>2025-05-08T15:02:33Z</time>
      </trkpt>
      <trkpt lat="36.146543025970459" lon="-5.350673971697688">
        <ele>11.67</ele>
        <time>2025-05-08T15:02:34Z</time>
      </trkpt>
      <trkpt lat="36.146541014313698" lon="-5.350558971986175">
        <ele>12.630000000000001</ele>
        <time>2025-05-08T15:02:35Z</time>
      </trkpt>
      <trkpt lat="36.146582001820207" lon="-5.350517984479666">
        <ele>13.119999999999999</ele>
        <time>2025-05-08T15:02:36Z</time>
      </trkpt>
      <trkpt lat="36.14663003012538" lon="-5.350470039993525">
        <ele>12.630000000000001</ele>
        <time>2025-05-08T15:02:37Z</time>
      </trkpt>
      <trkpt lat="36.146690966561437" lon="-5.350409019738436">
        <ele>11.19</ele>
        <time>2025-05-08T15:02:38Z</time>
      </trkpt>
      <trkpt lat="36.146761039271951" lon="-5.350339030846953">
        <ele>10.710000000000001</ele>
        <time>2025-05-08T15:02:39Z</time>
      </trkpt>
      <trkpt lat="36.146836979314685" lon="-5.350271975621581">
        <ele>9.75</ele>
        <time>2025-05-08T15:02:40Z</time>
      </trkpt>
      <trkpt lat="36.14691099151969" lon="-5.350209027528763">
        <ele>9.27</ele>
        <time>2025-05-08T15:02:41Z</time>
      </trkpt>
      <trkpt lat="36.146991038694978" lon="-5.35014096647501">
        <ele>8.789999999999999</ele>
        <time>2025-05-08T15:02:42Z</time>
      </trkpt>
      <trkpt lat="36.147418012842536" lon="-5.349827986210585">
        <ele>10.23</ele>
        <time>2025-05-08T15:02:48Z</time>
      </trkpt>
      <trkpt lat="36.147489007562399" lon="-5.349792027845979">
        <ele>10.23</ele>
        <time>2025-05-08T15:02:49Z</time>
      </trkpt>
      <trkpt lat="36.147558996453881" lon="-5.349754979833961">
        <ele>10.23</ele>
        <time>2025-05-08T15:02:50Z</time>
      </trkpt>
      <trkpt lat="36.147634014487267" lon="-5.349716003984213">
        <ele>11.19</ele>
        <time>2025-05-08T15:02:51Z</time>
      </trkpt>
      <trkpt lat="36.147712972015142" lon="-5.349676022306085">
        <ele>11.67</ele>
        <time>2025-05-08T15:02:52Z</time>
      </trkpt>
      <trkpt lat="36.147783966735005" lon="-5.349638974294066">
        <ele>12.15</ele>
        <time>2025-05-08T15:02:53Z</time>
      </trkpt>
      <trkpt lat="36.147852027788758" lon="-5.349604021757841">
        <ele>12.630000000000001</ele>
        <time>2025-05-08T15:02:54Z</time>
      </trkpt>
      <trkpt lat="36.148288976401091" lon="-5.349405035376549">
        <ele>10.710000000000001</ele>
        <time>2025-05-08T15:03:00Z</time>
      </trkpt>
      <trkpt lat="36.148366006091237" lon="-5.349375028163195">
        <ele>10.23</ele>
        <time>2025-05-08T15:03:01Z</time>
      </trkpt>
      <trkpt lat="36.148496009409428" lon="-5.349182998761535">
        <ele>9.75</ele>
        <time>2025-05-08T15:03:02Z</time>
      </trkpt>
      <trkpt lat="36.148496009409428" lon="-5.349182998761535">
        <ele>9.27</ele>
        <time>2025-05-08T15:03:03Z</time>
      </trkpt>
      <trkpt lat="36.148501038551331" lon="-5.349167995154858">
        <ele>8.789999999999999</ele>
        <time>2025-05-08T15:03:04Z</time>
      </trkpt>
      <trkpt lat="36.148524004966021" lon="-5.349105969071388">
        <ele>7.35</ele>
        <time>2025-05-08T15:03:13Z</time>
      </trkpt>
      <trkpt lat="36.148550994694233" lon="-5.349030029028654">
        <ele>6.87</ele>
        <time>2025-05-08T15:03:22Z</time>
      </trkpt>
      <trkpt lat="36.148571027442813" lon="-5.348973032087088">
        <ele>6.39</ele>
        <time>2025-05-08T15:03:23Z</time>
      </trkpt>
      <trkpt lat="36.148602962493896" lon="-5.348883010447025">
        <ele>5.91</ele>
        <time>2025-05-08T15:03:24Z</time>
      </trkpt>
      <trkpt lat="36.148587036877871" lon="-5.348796006292105">
        <ele>5.42</ele>
        <time>2025-05-08T15:03:25Z</time>
      </trkpt>
      <trkpt lat="36.148567004129291" lon="-5.348695004358888">
        <ele>5.42</ele>
        <time>2025-05-08T15:03:26Z</time>
      </trkpt>
      <trkpt lat="36.148258969187737" lon="-5.347629999741912">
        <ele>0.62</ele>
        <time>2025-05-08T15:03:36Z</time>
      </trkpt>
      <trkpt lat="36.148094013333321" lon="-5.347173018381">
        <ele>0.62</ele>
        <time>2025-05-08T15:03:40Z</time>
      </trkpt>
      <trkpt lat="36.148055037483573" lon="-5.347076039761305">
        <ele>1.58</ele>
        <time>2025-05-08T15:03:41Z</time>
      </trkpt>
      <trkpt lat="36.147843981161714" lon="-5.346519984304905">
        <ele>4.94</ele>
        <time>2025-05-08T15:03:46Z</time>
      </trkpt>
      <trkpt lat="36.147790001705289" lon="-5.346351005136967">
        <ele>6.39</ele>
        <time>2025-05-08T15:03:48Z</time>
      </trkpt>
      <trkpt lat="36.147768963128328" lon="-5.346286967396736">
        <ele>6.87</ele>
        <time>2025-05-08T15:03:49Z</time>
      </trkpt>
      <trkpt lat="36.147745996713638" lon="-5.346214966848493">
        <ele>7.83</ele>
        <time>2025-05-08T15:03:50Z</time>
      </trkpt>
      <trkpt lat="36.147696962580085" lon="-5.346060991287231">
        <ele>9.27</ele>
        <time>2025-05-08T15:03:52Z</time>
      </trkpt>
      <trkpt lat="36.147672990337014" lon="-5.345986979082227">
        <ele>10.710000000000001</ele>
        <time>2025-05-08T15:03:53Z</time>
      </trkpt>
      <trkpt lat="36.147646000608802" lon="-5.345903998240829">
        <ele>11.67</ele>
        <time>2025-05-08T15:03:54Z</time>
      </trkpt>
      <trkpt lat="36.147619010880589" lon="-5.345822023227811">
        <ele>12.630000000000001</ele>
        <time>2025-05-08T15:03:55Z</time>
      </trkpt>
      <trkpt lat="36.147593026980758" lon="-5.345742981880903">
        <ele>13.119999999999999</ele>
        <time>2025-05-08T15:03:56Z</time>
      </trkpt>
      <trkpt lat="36.147560002282262" lon="-5.345637034624815">
        <ele>14.08</ele>
        <time>2025-05-08T15:03:57Z</time>
      </trkpt>
      <trkpt lat="36.147528989240527" lon="-5.345523962751031">
        <ele>14.56</ele>
        <time>2025-05-08T15:03:58Z</time>
      </trkpt>
      <trkpt lat="36.147495964542031" lon="-5.345410974696279">
        <ele>14.56</ele>
        <time>2025-05-08T15:03:59Z</time>
      </trkpt>
      <trkpt lat="36.147135039791465" lon="-5.34436197951436">
        <ele>16.48</ele>
        <time>2025-05-08T15:04:08Z</time>
      </trkpt>
      <trkpt lat="36.147043006494641" lon="-5.344147989526391">
        <ele>16.960000000000001</ele>
        <time>2025-05-08T15:04:10Z</time>
      </trkpt>
      <trkpt lat="36.14684502594173" lon="-5.343685979023576">
        <ele>18.399999999999999</ele>
        <time>2025-05-08T15:04:16Z</time>
      </trkpt>
      <trkpt lat="36.1467619612813" lon="-5.343492021784186">
        <ele>19.359999999999999</ele>
        <time>2025-05-08T15:04:24Z</time>
      </trkpt>
      <trkpt lat="36.146658025681973" lon="-5.343254981562495">
        <ele>18.879999999999999</ele>
        <time>2025-05-08T15:04:38Z</time>
      </trkpt>
      <trkpt lat="36.146626006811857" lon="-5.343180969357491">
        <ele>18.399999999999999</ele>
        <time>2025-05-08T15:04:39Z</time>
      </trkpt>
      <trkpt lat="36.146564986556768" lon="-5.343035962432623">
        <ele>18.399999999999999</ele>
        <time>2025-05-08T15:04:41Z</time>
      </trkpt>
      <trkpt lat="36.146499020978808" lon="-5.342877041548491">
        <ele>18.399999999999999</ele>
        <time>2025-05-08T15:04:43Z</time>
      </trkpt>
      <trkpt lat="36.146176988258958" lon="-5.342116970568895">
        <ele>23.690000000000001</ele>
        <time>2025-05-08T15:04:53Z</time>
      </trkpt>
      <trkpt lat="36.146060982719064" lon="-5.341825028881431">
        <ele>24.649999999999999</ele>
        <time>2025-05-08T15:04:57Z</time>
      </trkpt>
      <trkpt lat="36.146027036011219" lon="-5.341755961999297">
        <ele>24.649999999999999</ele>
        <time>2025-05-08T15:04:58Z</time>
      </trkpt>
      <trkpt lat="36.145989987999201" lon="-5.341682033613324">
        <ele>24.170000000000002</ele>
        <time>2025-05-08T15:04:59Z</time>
      </trkpt>
      <trkpt lat="36.14579401910305" lon="-5.34154599532485">
        <ele>24.170000000000002</ele>
        <time>2025-05-08T15:05:02Z</time>
      </trkpt>
      <trkpt lat="36.145738027989864" lon="-5.341467037796974">
        <ele>23.690000000000001</ele>
        <time>2025-05-08T15:05:03Z</time>
      </trkpt>
      <trkpt lat="36.14570701494813" lon="-5.3413500264287">
        <ele>24.170000000000002</ele>
        <time>2025-05-08T15:05:04Z</time>
      </trkpt>
      <trkpt lat="36.145743979141116" lon="-5.341192027553916">
        <ele>23.690000000000001</ele>
        <time>2025-05-08T15:05:05Z</time>
      </trkpt>
      <trkpt lat="36.145796030759811" lon="-5.341119021177292">
        <ele>23.210000000000001</ele>
        <time>2025-05-08T15:05:06Z</time>
      </trkpt>
      <trkpt lat="36.145904995501041" lon="-5.341093959286809">
        <ele>22.73</ele>
        <time>2025-05-08T15:05:07Z</time>
      </trkpt>
      <trkpt lat="36.145975990220904" lon="-5.341093959286809">
        <ele>22.25</ele>
        <time>2025-05-08T15:05:08Z</time>
      </trkpt>
      <trkpt lat="36.1460280418396" lon="-5.341093959286809">
        <ele>21.77</ele>
        <time>2025-05-08T15:05:09Z</time>
      </trkpt>
      <trkpt lat="36.146131977438927" lon="-5.341034028679133">
        <ele>21.289999999999999</ele>
        <time>2025-05-08T15:05:10Z</time>
      </trkpt>
      <trkpt lat="36.146216969937086" lon="-5.340984994545579">
        <ele>20.32</ele>
        <time>2025-05-08T15:05:11Z</time>
      </trkpt>
      <trkpt lat="36.146302968263626" lon="-5.340935038402677">
        <ele>19.359999999999999</ele>
        <time>2025-05-08T15:05:12Z</time>
      </trkpt>
      <trkpt lat="36.146382009610534" lon="-5.340890027582645">
        <ele>18.399999999999999</ele>
        <time>2025-05-08T15:05:13Z</time>
      </trkpt>
      <trkpt lat="36.146451998502016" lon="-5.340849962085486">
        <ele>17.440000000000001</ele>
        <time>2025-05-08T15:05:14Z</time>
      </trkpt>
      <trkpt lat="36.146602034568787" lon="-5.340766981244087">
        <ele>16.48</ele>
        <time>2025-05-08T15:05:17Z</time>
      </trkpt>
      <trkpt lat="36.147207962349057" lon="-5.340603031218052">
        <ele>14.08</ele>
        <time>2025-05-08T15:05:26Z</time>
      </trkpt>
      <trkpt lat="36.148304985836148" lon="-5.340443020686507">
        <ele>10.710000000000001</ele>
        <time>2025-05-08T15:05:37Z</time>
      </trkpt>
      <trkpt lat="36.149531006813049" lon="-5.340118976309896">
        <ele>7.35</ele>
        <time>2025-05-08T15:05:47Z</time>
      </trkpt>
      <trkpt lat="36.149652041494846" lon="-5.340075977146626">
        <ele>6.39</ele>
        <time>2025-05-08T15:05:48Z</time>
      </trkpt>
      <trkpt lat="36.150198960676789" lon="-5.339879002422094">
        <ele>3.5</ele>
        <time>2025-05-08T15:05:53Z</time>
      </trkpt>
      <trkpt lat="36.15318501368165" lon="-5.340849040076137">
        <ele>1.58</ele>
        <time>2025-05-08T15:06:18Z</time>
      </trkpt>
      <trkpt lat="36.152163008227944" lon="-5.341379027813673">
        <ele>1.1</ele>
        <time>2025-05-08T15:06:20Z</time>
      </trkpt>
      <trkpt lat="36.153741991147399" lon="-5.342260971665382">
        <ele>2.06</ele>
        <time>2025-05-08T15:06:29Z</time>
      </trkpt>
      <trkpt lat="36.154178017750382" lon="-5.343884965404868">
        <ele>7.83</ele>
        <time>2025-05-08T15:06:40Z</time>
      </trkpt>
      <trkpt lat="36.154458979144692" lon="-5.345161026343703">
        <ele>7.35</ele>
        <time>2025-05-08T15:06:50Z</time>
      </trkpt>
      <trkpt lat="36.154530979692936" lon="-5.345363030210137">
        <ele>6.87</ele>
        <time>2025-05-08T15:06:52Z</time>
      </trkpt>
      <trkpt lat="36.154497032985091" lon="-5.345453973859549">
        <ele>6.87</ele>
        <time>2025-05-08T15:06:53Z</time>
      </trkpt>
      <trkpt lat="36.154483035206795" lon="-5.345687996596098">
        <ele>6.39</ele>
        <time>2025-05-08T15:06:55Z</time>
      </trkpt>
      <trkpt lat="36.154483035206795" lon="-5.345782963559032">
        <ele>6.39</ele>
        <time>2025-05-08T15:06:56Z</time>
      </trkpt>
      <trkpt lat="36.154483035206795" lon="-5.34588698297739">
        <ele>6.39</ele>
        <time>2025-05-08T15:06:57Z</time>
      </trkpt>
      <trkpt lat="36.154483035206795" lon="-5.346587039530277">
        <ele>5.42</ele>
        <time>2025-05-08T15:07:03Z</time>
      </trkpt>
      <trkpt lat="36.154465014114976" lon="-5.34760401584208">
        <ele>5.91</ele>
        <time>2025-05-08T15:07:12Z</time>
      </trkpt>
      <trkpt lat="36.154523016884923" lon="-5.3478620108217">
        <ele>5.42</ele>
        <time>2025-05-08T15:07:17Z</time>
      </trkpt>
      <trkpt lat="36.154535003006458" lon="-5.347877014428377">
        <ele>5.42</ele>
        <time>2025-05-08T15:07:18Z</time>
      </trkpt>
      <trkpt lat="36.154579007998109" lon="-5.347911966964603">
        <ele>4.46</ele>
        <time>2025-05-08T15:07:19Z</time>
      </trkpt>
      <trkpt lat="36.154617983847857" lon="-5.347849018871784">
        <ele>4.94</ele>
        <time>2025-05-08T15:07:20Z</time>
      </trkpt>
      <trkpt lat="36.154622007161379" lon="-5.347825968638063">
        <ele>4.94</ele>
        <time>2025-05-08T15:07:21Z</time>
      </trkpt>
      <trkpt lat="36.154625024646521" lon="-5.347805013880134">
        <ele>4.94</ele>
        <time>2025-05-08T15:07:22Z</time>
      </trkpt>
      <trkpt lat="36.154627958312631" lon="-5.347782969474793">
        <ele>4.94</ele>
        <time>2025-05-08T15:07:23Z</time>
      </trkpt>
      <trkpt lat="36.154640028253198" lon="-5.347707029432058">
        <ele>5.42</ele>
        <time>2025-05-08T15:07:25Z</time>
      </trkpt>
      <trkpt lat="36.154695013538003" lon="-5.347016025334597">
        <ele>5.91</ele>
        <time>2025-05-08T15:07:32Z</time>
      </trkpt>
      <trkpt lat="36.154729966074228" lon="-5.3468759637326">
        <ele>5.42</ele>
        <time>2025-05-08T15:07:34Z</time>
      </trkpt>
      <trkpt lat="36.15475301630795" lon="-5.346804969012737">
        <ele>5.42</ele>
        <time>2025-05-08T15:07:35Z</time>
      </trkpt>
      <trkpt lat="36.154761984944344" lon="-5.346779990941286">
        <ele>5.91</ele>
        <time>2025-05-08T15:07:36Z</time>
      </trkpt>
      <trkpt lat="36.154761984944344" lon="-5.346779990941286">
        <ele>6.39</ele>
        <time>2025-05-08T15:07:37Z</time>
      </trkpt>
      <trkpt lat="36.154790986329317" lon="-5.34678703173995">
        <ele>6.39</ele>
        <time>2025-05-08T15:07:38Z</time>
      </trkpt>
      <trkpt lat="36.154847983270884" lon="-5.346801029518247">
        <ele>5.91</ele>
        <time>2025-05-08T15:07:39Z</time>
      </trkpt>
      <trkpt lat="36.154847983270884" lon="-5.346801029518247">
        <ele>6.39</ele>
        <time>2025-05-08T15:07:40Z</time>
      </trkpt>
      <trkpt lat="36.154854018241167" lon="-5.346817038953304">
        <ele>5.91</ele>
        <time>2025-05-08T15:07:41Z</time>
      </trkpt>
      <trkpt lat="36.154872961342335" lon="-5.346864983439446">
        <ele>6.39</ele>
        <time>2025-05-08T15:07:42Z</time>
      </trkpt>
      <trkpt lat="36.154889976605773" lon="-5.346908988431096">
        <ele>5.91</ele>
        <time>2025-05-08T15:07:43Z</time>
      </trkpt>
      <trkpt lat="36.154889976605773" lon="-5.346908988431096">
        <ele>5.91</ele>
        <time>2025-05-08T15:07:44Z</time>
      </trkpt>
      <trkpt lat="36.154887964949012" lon="-5.346957016736269">
        <ele>5.91</ele>
        <time>2025-05-08T15:07:45Z</time>
      </trkpt>
      <trkpt lat="36.154885031282902" lon="-5.347028011456132">
        <ele>6.39</ele>
        <time>2025-05-08T15:07:46Z</time>
      </trkpt>
      <trkpt lat="36.154876984655857" lon="-5.347177963703871">
        <ele>6.39</ele>
        <time>2025-05-08T15:07:48Z</time>
      </trkpt>
      <trkpt lat="36.154873967170715" lon="-5.347248036414385">
        <ele>6.39</ele>
        <time>2025-05-08T15:07:49Z</time>
      </trkpt>
      <trkpt lat="36.154870027676225" lon="-5.347315007820725">
        <ele>6.39</ele>
        <time>2025-05-08T15:07:50Z</time>
      </trkpt>
      <trkpt lat="36.154847983270884" lon="-5.347766960039735">
        <ele>7.35</ele>
        <time>2025-05-08T15:08:00Z</time>
      </trkpt>
      <trkpt lat="36.154847983270884" lon="-5.347766960039735">
        <ele>7.83</ele>
        <time>2025-05-08T15:08:21Z</time>
      </trkpt>
      <trkpt lat="36.154874972999096" lon="-5.347959995269775">
        <ele>7.35</ele>
        <time>2025-05-08T15:08:30Z</time>
      </trkpt>
      <trkpt lat="36.154889976605773" lon="-5.348067032173276">
        <ele>7.83</ele>
        <time>2025-05-08T15:08:43Z</time>
      </trkpt>
      <trkpt lat="36.154889976605773" lon="-5.348067032173276">
        <ele>8.789999999999999</ele>
        <time>2025-05-08T15:09:00Z</time>
      </trkpt>
      <trkpt lat="36.154889976605773" lon="-5.348067032173276">
        <ele>8.789999999999999</ele>
        <time>2025-05-08T15:09:15Z</time>
      </trkpt>
      <trkpt lat="36.154944039881229" lon="-5.34807600080967">
        <ele>8.789999999999999</ele>
        <time>2025-05-08T15:09:26Z</time>
      </trkpt>
      <trkpt lat="36.154971029609442" lon="-5.348081029951572">
        <ele>10.23</ele>
        <time>2025-05-08T15:09:27Z</time>
      </trkpt>
      <trkpt lat="36.154971029609442" lon="-5.348081029951572">
        <ele>9.75</ele>
        <time>2025-05-08T15:09:39Z</time>
      </trkpt>
      <trkpt lat="36.15505401045084" lon="-5.347825968638063">
        <ele>10.23</ele>
        <time>2025-05-08T15:09:49Z</time>
      </trkpt>
      <trkpt lat="36.155031966045499" lon="-5.347348032519221">
        <ele>9.27</ele>
        <time>2025-05-08T15:09:54Z</time>
      </trkpt>
      <trkpt lat="36.155028026551008" lon="-5.347257005050778">
        <ele>8.789999999999999</ele>
        <time>2025-05-08T15:09:55Z</time>
      </trkpt>
      <trkpt lat="36.155018974095583" lon="-5.347059024497867">
        <ele>8.789999999999999</ele>
        <time>2025-05-08T15:09:56Z</time>
      </trkpt>
      <trkpt lat="36.155024003237486" lon="-5.347051983699203">
        <ele>7.83</ele>
        <time>2025-05-08T15:09:57Z</time>
      </trkpt>
      <trkpt lat="36.155161969363689" lon="-5.346987023949623">
        <ele>6.87</ele>
        <time>2025-05-08T15:09:58Z</time>
      </trkpt>
      <trkpt lat="36.155184013769031" lon="-5.347008984535933">
        <ele>7.35</ele>
        <time>2025-05-08T15:09:59Z</time>
      </trkpt>
      <trkpt lat="36.155190970748663" lon="-5.347095988690853">
        <ele>7.83</ele>
        <time>2025-05-08T15:10:00Z</time>
      </trkpt>
      <trkpt lat="36.155190970748663" lon="-5.347166983410716">
        <ele>7.83</ele>
        <time>2025-05-08T15:10:01Z</time>
      </trkpt>
      <trkpt lat="36.155190970748663" lon="-5.347246024757624">
        <ele>7.35</ele>
        <time>2025-05-08T15:10:02Z</time>
      </trkpt>
      <trkpt lat="36.155190970748663" lon="-5.347395977005363">
        <ele>7.35</ele>
        <time>2025-05-08T15:10:04Z</time>
      </trkpt>
      <trkpt lat="36.155190970748663" lon="-5.347456997260451">
        <ele>7.35</ele>
        <time>2025-05-08T15:10:05Z</time>
      </trkpt>
      <trkpt lat="36.155190970748663" lon="-5.347515000030398">
        <ele>6.87</ele>
        <time>2025-05-08T15:10:06Z</time>
      </trkpt>
      <trkpt lat="36.155215026810765" lon="-5.347563028335571">
        <ele>6.87</ele>
        <time>2025-05-08T15:10:07Z</time>
      </trkpt>
      <trkpt lat="36.155249979346991" lon="-5.347609966993332">
        <ele>5.91</ele>
        <time>2025-05-08T15:10:08Z</time>
      </trkpt>
      <trkpt lat="36.155302030965686" lon="-5.347608961164951">
        <ele>5.91</ele>
        <time>2025-05-08T15:10:09Z</time>
      </trkpt>
      <trkpt lat="36.155350981280208" lon="-5.347600998356938">
        <ele>5.42</ele>
        <time>2025-05-08T15:10:10Z</time>
      </trkpt>
      <trkpt lat="36.155399009585381" lon="-5.347594963386655">
        <ele>5.42</ele>
        <time>2025-05-08T15:10:11Z</time>
      </trkpt>
      <trkpt lat="36.155693968757987" lon="-5.347581971436739">
        <ele>4.46</ele>
        <time>2025-05-08T15:10:18Z</time>
      </trkpt>
      <trkpt lat="36.155821960419416" lon="-5.347569985315204">
        <ele>3.5</ele>
        <time>2025-05-08T15:10:21Z</time>
      </trkpt>
      <trkpt lat="36.155973002314568" lon="-5.34756001085043">
        <ele>3.02</ele>
        <time>2025-05-08T15:10:24Z</time>
      </trkpt>
      <trkpt lat="36.156022036448121" lon="-5.347556993365288">
        <ele>3.02</ele>
        <time>2025-05-08T15:10:25Z</time>
      </trkpt>
      <trkpt lat="36.156093031167984" lon="-5.347476024180651">
        <ele>3.5</ele>
        <time>2025-05-08T15:10:26Z</time>
      </trkpt>
      <trkpt lat="36.156094959005713" lon="-5.347406035289168">
        <ele>3.5</ele>
        <time>2025-05-08T15:10:27Z</time>
      </trkpt>
      <trkpt lat="36.156095964834094" lon="-5.347321964800358">
        <ele>3.98</ele>
        <time>2025-05-08T15:10:28Z</time>
      </trkpt>
      <trkpt lat="36.156096970662475" lon="-5.347226997837424">
        <ele>3.98</ele>
        <time>2025-05-08T15:10:29Z</time>
      </trkpt>
      <trkpt lat="36.156098982319236" lon="-5.347123984247446">
        <ele>4.46</ele>
        <time>2025-05-08T15:10:30Z</time>
      </trkpt>
      <trkpt lat="36.156109040603042" lon="-5.346525013446808">
        <ele>7.35</ele>
        <time>2025-05-08T15:10:36Z</time>
      </trkpt>
      <trkpt lat="36.156109962612391" lon="-5.346447983756661">
        <ele>7.83</ele>
        <time>2025-05-08T15:10:37Z</time>
      </trkpt>
      <trkpt lat="36.156111974269152" lon="-5.346382018178701">
        <ele>7.83</ele>
        <time>2025-05-08T15:10:38Z</time>
      </trkpt>
      <trkpt lat="36.156111974269152" lon="-5.346333989873529">
        <ele>8.310000000000001</ele>
        <time>2025-05-08T15:10:39Z</time>
      </trkpt>
      <trkpt lat="36.156165031716228" lon="-5.346265006810427">
        <ele>8.789999999999999</ele>
        <time>2025-05-08T15:10:40Z</time>
      </trkpt>
      <trkpt lat="36.156197972595692" lon="-5.346265006810427">
        <ele>9.27</ele>
        <time>2025-05-08T15:10:41Z</time>
      </trkpt>
      <trkpt lat="36.156225968152285" lon="-5.346374977380037">
        <ele>9.27</ele>
        <time>2025-05-08T15:10:42Z</time>
      </trkpt>
      <trkpt lat="36.156229991465807" lon="-5.3464459720999">
        <ele>9.27</ele>
        <time>2025-05-08T15:10:43Z</time>
      </trkpt>
      <trkpt lat="36.156234014779329" lon="-5.34652903676033">
        <ele>9.27</ele>
        <time>2025-05-08T15:10:44Z</time>
      </trkpt>
      <trkpt lat="36.156238960102201" lon="-5.346625009551644">
        <ele>9.27</ele>
        <time>2025-05-08T15:10:45Z</time>
      </trkpt>
      <trkpt lat="36.156244995072484" lon="-5.346731962636113">
        <ele>9.75</ele>
        <time>2025-05-08T15:10:46Z</time>
      </trkpt>
      <trkpt lat="36.156256981194019" lon="-5.346977971494198">
        <ele>10.23</ele>
        <time>2025-05-08T15:10:48Z</time>
      </trkpt>
      <trkpt lat="36.156263016164303" lon="-5.347099006175995">
        <ele>10.23</ele>
        <time>2025-05-08T15:10:49Z</time>
      </trkpt>
      <trkpt lat="36.156268967315555" lon="-5.347204031422734">
        <ele>9.75</ele>
        <time>2025-05-08T15:10:50Z</time>
      </trkpt>
      <trkpt lat="36.156272990629077" lon="-5.347296986728907">
        <ele>9.27</ele>
        <time>2025-05-08T15:10:51Z</time>
      </trkpt>
      <trkpt lat="36.156277013942599" lon="-5.347374016419053">
        <ele>8.789999999999999</ele>
        <time>2025-05-08T15:10:52Z</time>
      </trkpt>
      <trkpt lat="36.156280031427741" lon="-5.347435958683491">
        <ele>8.310000000000001</ele>
        <time>2025-05-08T15:10:53Z</time>
      </trkpt>
      <trkpt lat="36.156347002834082" lon="-5.347531009465456">
        <ele>6.87</ele>
        <time>2025-05-08T15:10:57Z</time>
      </trkpt>
      <trkpt lat="36.156369969248772" lon="-5.347531009465456">
        <ele>6.87</ele>
        <time>2025-05-08T15:10:58Z</time>
      </trkpt>
      <trkpt lat="36.156396036967635" lon="-5.347531009465456">
        <ele>6.39</ele>
        <time>2025-05-08T15:10:59Z</time>
      </trkpt>
      <trkpt lat="36.156427972018719" lon="-5.347531009465456">
        <ele>6.39</ele>
        <time>2025-05-08T15:11:00Z</time>
      </trkpt>
      <trkpt lat="36.156460996717215" lon="-5.347531009465456">
        <ele>6.39</ele>
        <time>2025-05-08T15:11:01Z</time>
      </trkpt>
      <trkpt lat="36.156501984223723" lon="-5.347531009465456">
        <ele>5.91</ele>
        <time>2025-05-08T15:11:02Z</time>
      </trkpt>
      <trkpt lat="36.15705301053822" lon="-5.347508965060115">
        <ele>4.94</ele>
        <time>2025-05-08T15:11:08Z</time>
      </trkpt>
      <trkpt lat="36.15758903324604" lon="-5.347508965060115">
        <ele>5.42</ele>
        <time>2025-05-08T15:11:13Z</time>
      </trkpt>
      <trkpt lat="36.157687017694116" lon="-5.347505025565624">
        <ele>5.42</ele>
        <time>2025-05-08T15:11:14Z</time>
      </trkpt>
      <trkpt lat="36.157778967171907" lon="-5.347499996423721">
        <ele>5.91</ele>
        <time>2025-05-08T15:11:15Z</time>
      </trkpt>
      <trkpt lat="36.157876029610634" lon="-5.347494967281818">
        <ele>6.39</ele>
        <time>2025-05-08T15:11:16Z</time>
      </trkpt>
      <trkpt lat="36.157981976866722" lon="-5.347490021958947">
        <ele>6.87</ele>
        <time>2025-05-08T15:11:17Z</time>
      </trkpt>
      <trkpt lat="36.158088007941842" lon="-5.347488010302186">
        <ele>6.87</ele>
        <time>2025-05-08T15:11:18Z</time>
      </trkpt>
      <trkpt lat="36.15821298211813" lon="-5.347465965896845">
        <ele>7.35</ele>
        <time>2025-05-08T15:11:19Z</time>
      </trkpt>
      <trkpt lat="36.158329993486404" lon="-5.347446016967297">
        <ele>7.83</ele>
        <time>2025-05-08T15:11:20Z</time>
      </trkpt>
      <trkpt lat="36.158789992332458" lon="-5.34738801419735">
        <ele>7.83</ele>
        <time>2025-05-08T15:11:24Z</time>
      </trkpt>
      <trkpt lat="36.159511003643274" lon="-5.347359012812376">
        <ele>8.789999999999999</ele>
        <time>2025-05-08T15:11:32Z</time>
      </trkpt>
      <trkpt lat="36.159602031111717" lon="-5.347359012812376">
        <ele>10.23</ele>
        <time>2025-05-08T15:11:38Z</time>
      </trkpt>
      <trkpt lat="36.159670008346438" lon="-5.347359012812376">
        <ele>11.19</ele>
        <time>2025-05-08T15:11:40Z</time>
      </trkpt>
      <trkpt lat="36.159723987802863" lon="-5.347208976745606">
        <ele>11.19</ele>
        <time>2025-05-08T15:11:41Z</time>
      </trkpt>
      <trkpt lat="36.159776961430907" lon="-5.347208976745606">
        <ele>11.67</ele>
        <time>2025-05-08T15:11:42Z</time>
      </trkpt>
      <trkpt lat="36.159820966422558" lon="-5.347208976745606">
        <ele>12.15</ele>
        <time>2025-05-08T15:11:43Z</time>
      </trkpt>
      <trkpt lat="36.159874023869634" lon="-5.347253987565637">
        <ele>12.630000000000001</ele>
        <time>2025-05-08T15:11:44Z</time>
      </trkpt>
      <trkpt lat="36.159900007769465" lon="-5.347297992557287">
        <ele>12.630000000000001</ele>
        <time>2025-05-08T15:11:45Z</time>
      </trkpt>
      <trkpt lat="36.159881986677647" lon="-5.347391031682491">
        <ele>12.630000000000001</ele>
        <time>2025-05-08T15:11:46Z</time>
      </trkpt>
      <trkpt lat="36.159868994727731" lon="-5.347423972561956">
        <ele>12.630000000000001</ele>
        <time>2025-05-08T15:11:47Z</time>
      </trkpt>
      <trkpt lat="36.159778973087668" lon="-5.347528997808695">
        <ele>12.630000000000001</ele>
        <time>2025-05-08T15:11:48Z</time>
      </trkpt>
      <trkpt lat="36.159774027764797" lon="-5.347614996135235">
        <ele>12.630000000000001</ele>
        <time>2025-05-08T15:11:49Z</time>
      </trkpt>
      <trkpt lat="36.159767992794514" lon="-5.34770904108882">
        <ele>12.630000000000001</ele>
        <time>2025-05-08T15:11:50Z</time>
      </trkpt>
      <trkpt lat="36.159762041643262" lon="-5.347796967253089">
        <ele>12.630000000000001</ele>
        <time>2025-05-08T15:11:51Z</time>
      </trkpt>
      <trkpt lat="36.159761035814881" lon="-5.347879026085138">
        <ele>12.15</ele>
        <time>2025-05-08T15:11:52Z</time>
      </trkpt>
      <trkpt lat="36.159761035814881" lon="-5.348008023574948">
        <ele>12.630000000000001</ele>
        <time>2025-05-08T15:11:54Z</time>
      </trkpt>
      <trkpt lat="36.159782996401191" lon="-5.348577992990613">
        <ele>12.15</ele>
        <time>2025-05-08T15:12:01Z</time>
      </trkpt>
      <trkpt lat="36.159782996401191" lon="-5.348639013245702">
        <ele>12.15</ele>
        <time>2025-05-08T15:12:02Z</time>
      </trkpt>
      <trkpt lat="36.159911993891001" lon="-5.348711013793945">
        <ele>11.67</ele>
        <time>2025-05-08T15:12:03Z</time>
      </trkpt>
      <trkpt lat="36.159911993891001" lon="-5.348711013793945">
        <ele>11.67</ele>
        <time>2025-05-08T15:12:04Z</time>
      </trkpt>
      <trkpt lat="36.159976031631231" lon="-5.348727023229003">
        <ele>11.67</ele>
        <time>2025-05-08T15:12:05Z</time>
      </trkpt>
      <trkpt lat="36.160045014694333" lon="-5.348754012957215">
        <ele>10.710000000000001</ele>
        <time>2025-05-08T15:12:06Z</time>
      </trkpt>
      <trkpt lat="36.16010301746428" lon="-5.348779996857047">
        <ele>10.23</ele>
        <time>2025-05-08T15:12:07Z</time>
      </trkpt>
      <trkpt lat="36.16014501079917" lon="-5.348799023777247">
        <ele>9.75</ele>
        <time>2025-05-08T15:12:08Z</time>
      </trkpt>
      <trkpt lat="36.160181974992156" lon="-5.348816961050034">
        <ele>9.75</ele>
        <time>2025-05-08T15:12:09Z</time>
      </trkpt>
      <trkpt lat="36.160239977762103" lon="-5.34889399074018">
        <ele>9.27</ele>
        <time>2025-05-08T15:12:11Z</time>
      </trkpt>
      <trkpt lat="36.160247018560767" lon="-5.348945036530495">
        <ele>9.27</ele>
        <time>2025-05-08T15:12:12Z</time>
      </trkpt>
      <trkpt lat="36.160252969712019" lon="-5.348992981016636">
        <ele>9.27</ele>
        <time>2025-05-08T15:12:13Z</time>
      </trkpt>
      <trkpt lat="36.160219023004174" lon="-5.349017959088087">
        <ele>8.789999999999999</ele>
        <time>2025-05-08T15:12:15Z</time>
      </trkpt>
      <trkpt lat="36.160191027447581" lon="-5.34902298822999">
        <ele>8.789999999999999</ele>
        <time>2025-05-08T15:12:16Z</time>
      </trkpt>
      <trkpt lat="36.160142999142408" lon="-5.349032040685415">
        <ele>8.310000000000001</ele>
        <time>2025-05-08T15:12:17Z</time>
      </trkpt>
      <trkpt lat="36.160087008029222" lon="-5.349042015150189">
        <ele>8.310000000000001</ele>
        <time>2025-05-08T15:12:18Z</time>
      </trkpt>
      <trkpt lat="36.160036968067288" lon="-5.349050983786583">
        <ele>7.83</ele>
        <time>2025-05-08T15:12:19Z</time>
      </trkpt>
      <trkpt lat="36.160019030794501" lon="-5.349054001271725">
        <ele>7.83</ele>
        <time>2025-05-08T15:12:21Z</time>
      </trkpt>
      <trkpt lat="36.159825995564461" lon="-5.349054001271725">
        <ele>7.83</ele>
        <time>2025-05-08T15:12:22Z</time>
      </trkpt>
      <trkpt lat="36.159784002229571" lon="-5.349054001271725">
        <ele>7.83</ele>
        <time>2025-05-08T15:12:24Z</time>
      </trkpt>
      <trkpt lat="36.159714013338089" lon="-5.349049977958202">
        <ele>7.83</ele>
        <time>2025-05-08T15:12:25Z</time>
      </trkpt>
      <trkpt lat="36.15967302583158" lon="-5.349008990451694">
        <ele>7.83</ele>
        <time>2025-05-08T15:12:26Z</time>
      </trkpt>
      <trkpt lat="36.159610999748111" lon="-5.34893698990345">
        <ele>7.83</ele>
        <time>2025-05-08T15:12:27Z</time>
      </trkpt>
      <trkpt lat="36.159610999748111" lon="-5.348861971870065">
        <ele>7.83</ele>
        <time>2025-05-08T15:12:28Z</time>
      </trkpt>
      <trkpt lat="36.159637989476323" lon="-5.348757030442357">
        <ele>7.83</ele>
        <time>2025-05-08T15:12:29Z</time>
      </trkpt>
      <trkpt lat="36.159704960882664" lon="-5.348666002973914">
        <ele>7.35</ele>
        <time>2025-05-08T15:12:30Z</time>
      </trkpt>
      <trkpt lat="36.159763969480991" lon="-5.348650999367237">
        <ele>7.35</ele>
        <time>2025-05-08T15:12:31Z</time>
      </trkpt>
      <trkpt lat="36.159849967807531" lon="-5.348680000752211">
        <ele>6.87</ele>
        <time>2025-05-08T15:12:32Z</time>
      </trkpt>
      <trkpt lat="36.159911993891001" lon="-5.348711013793945">
        <ele>6.39</ele>
        <time>2025-05-08T15:12:33Z</time>
      </trkpt>
      <trkpt lat="36.160194966942072" lon="-5.348821990191937">
        <ele>4.94</ele>
        <time>2025-05-08T15:12:38Z</time>
      </trkpt>
      <trkpt lat="36.160233020782471" lon="-5.348840011283755">
        <ele>4.94</ele>
        <time>2025-05-08T15:12:39Z</time>
      </trkpt>
      <trkpt lat="36.160289011895657" lon="-5.348816039040685">
        <ele>4.94</ele>
        <time>2025-05-08T15:12:40Z</time>
      </trkpt>
      <trkpt lat="36.160333016887307" lon="-5.348797012120485">
        <ele>4.46</ele>
        <time>2025-05-08T15:12:41Z</time>
      </trkpt>
      <trkpt lat="36.16038397885859" lon="-5.348774967715144">
        <ele>4.46</ele>
        <time>2025-05-08T15:12:42Z</time>
      </trkpt>
      <trkpt lat="36.160420021042228" lon="-5.348757030442357">
        <ele>3.98</ele>
        <time>2025-05-08T15:12:43Z</time>
      </trkpt>
      <trkpt lat="36.160450028255582" lon="-5.348743032664061">
        <ele>3.98</ele>
        <time>2025-05-08T15:12:44Z</time>
      </trkpt>
      <trkpt lat="36.160474000498652" lon="-5.348730962723494">
        <ele>3.98</ele>
        <time>2025-05-08T15:12:45Z</time>
      </trkpt>
      <trkpt lat="36.160493027418852" lon="-5.348720988258719">
        <ele>3.98</ele>
        <time>2025-05-08T15:12:46Z</time>
      </trkpt>
      <trkpt lat="36.160509958863258" lon="-5.348712019622326">
        <ele>3.98</ele>
        <time>2025-05-08T15:12:47Z</time>
      </trkpt>
      <trkpt lat="36.16055496968329" lon="-5.348689975216985">
        <ele>3.98</ele>
        <time>2025-05-08T15:12:52Z</time>
      </trkpt>
      <trkpt lat="36.16055496968329" lon="-5.348689975216985">
        <ele>3.5</ele>
        <time>2025-05-08T15:12:53Z</time>
      </trkpt>
      <trkpt lat="36.16055496968329" lon="-5.348689975216985">
        <ele>2.54</ele>
        <time>2025-05-08T15:12:54Z</time>
      </trkpt>
      <trkpt lat="36.160539966076612" lon="-5.348697016015649">
        <ele>2.54</ele>
        <time>2025-05-08T15:12:55Z</time>
      </trkpt>
      <trkpt lat="36.16046997718513" lon="-5.348731968551874">
        <ele>2.06</ele>
        <time>2025-05-08T15:13:10Z</time>
      </trkpt>
      <trkpt lat="36.160289011895657" lon="-5.348816039040685">
        <ele>1.58</ele>
        <time>2025-05-08T15:13:14Z</time>
      </trkpt>
      <trkpt lat="36.16023201495409" lon="-5.348842022940517">
        <ele>1.58</ele>
        <time>2025-05-08T15:13:15Z</time>
      </trkpt>
      <trkpt lat="36.160201001912355" lon="-5.348872030153871">
        <ele>1.58</ele>
        <time>2025-05-08T15:13:16Z</time>
      </trkpt>
      <trkpt lat="36.160170994699001" lon="-5.348902037367225">
        <ele>1.58</ele>
        <time>2025-05-08T15:13:17Z</time>
      </trkpt>
      <trkpt lat="36.160179963335395" lon="-5.349024999886751">
        <ele>1.58</ele>
        <time>2025-05-08T15:13:18Z</time>
      </trkpt>
      <trkpt lat="36.160129001364112" lon="-5.349033968523145">
        <ele>1.58</ele>
        <time>2025-05-08T15:13:19Z</time>
      </trkpt>
      <trkpt lat="36.16008197888732" lon="-5.34904302097857">
        <ele>1.58</ele>
        <time>2025-05-08T15:13:20Z</time>
      </trkpt>
      <trkpt lat="36.160026993602514" lon="-5.348966997116804">
        <ele>1.58</ele>
        <time>2025-05-08T15:13:21Z</time>
      </trkpt>
      <trkpt lat="36.159980976954103" lon="-5.348975965753198">
        <ele>2.06</ele>
        <time>2025-05-08T15:13:22Z</time>
      </trkpt>
      <trkpt lat="36.15993001498282" lon="-5.348986024037004">
        <ele>1.58</ele>
        <time>2025-05-08T15:13:23Z</time>
      </trkpt>
      <trkpt lat="36.159875029698014" lon="-5.349017959088087">
        <ele>1.58</ele>
        <time>2025-05-08T15:13:24Z</time>
      </trkpt>
      <trkpt lat="36.159832030534744" lon="-5.349049977958202">
        <ele>1.58</ele>
        <time>2025-05-08T15:13:25Z</time>
      </trkpt>
      <trkpt lat="36.159709990024567" lon="-5.349098006263375">
        <ele>1.58</ele>
        <time>2025-05-08T15:13:26Z</time>
      </trkpt>
      <trkpt lat="36.159699009731412" lon="-5.349161960184574">
        <ele>1.58</ele>
        <time>2025-05-08T15:13:27Z</time>
      </trkpt>
      <trkpt lat="36.159687023609877" lon="-5.349230021238327">
        <ele>1.58</ele>
        <time>2025-05-08T15:13:28Z</time>
      </trkpt>
      <trkpt lat="36.159574035555124" lon="-5.349779035896063">
        <ele>1.1</ele>
        <time>2025-05-08T15:13:35Z</time>
      </trkpt>
      <trkpt lat="36.159554002806544" lon="-5.349855981767178">
        <ele>1.1</ele>
        <time>2025-05-08T15:13:36Z</time>
      </trkpt>
      <trkpt lat="36.159537993371487" lon="-5.349918007850647">
        <ele>0.62</ele>
        <time>2025-05-08T15:13:37Z</time>
      </trkpt>
      <trkpt lat="36.15952399559319" lon="-5.349970981478691">
        <ele>0.62</ele>
        <time>2025-05-08T15:13:38Z</time>
      </trkpt>
      <trkpt lat="36.159509997814894" lon="-5.350025966763496">
        <ele>0.62</ele>
        <time>2025-05-08T15:13:39Z</time>
      </trkpt>
      <trkpt lat="36.159322997555137" lon="-5.350773967802525">
        <ele>1.58</ele>
        <time>2025-05-08T15:13:48Z</time>
      </trkpt>
      <trkpt lat="36.159253008663654" lon="-5.351044032722712">
        <ele>1.58</ele>
        <time>2025-05-08T15:13:51Z</time>
      </trkpt>
      <trkpt lat="36.159268012270331" lon="-5.351222986355424">
        <ele>1.58</ele>
        <time>2025-05-08T15:13:53Z</time>
      </trkpt>
      <trkpt lat="36.159268012270331" lon="-5.35130001604557">
        <ele>1.1</ele>
        <time>2025-05-08T15:13:54Z</time>
      </trkpt>
      <trkpt lat="36.158956959843636" lon="-5.352143989875913">
        <ele>3.02</ele>
        <time>2025-05-08T15:14:04Z</time>
      </trkpt>
      <trkpt lat="36.158711034804583" lon="-5.35306298173964">
        <ele>5.91</ele>
        <time>2025-05-08T15:14:15Z</time>
      </trkpt>
      <trkpt lat="36.158730983734131" lon="-5.353366993367672">
        <ele>5.91</ele>
        <time>2025-05-08T15:14:17Z</time>
      </trkpt>
      <trkpt lat="36.158730983734131" lon="-5.353366993367672">
        <ele>6.39</ele>
        <time>2025-05-08T15:14:18Z</time>
      </trkpt>
      <trkpt lat="36.158777000382543" lon="-5.353493979200721">
        <ele>6.39</ele>
        <time>2025-05-08T15:14:21Z</time>
      </trkpt>
      <trkpt lat="36.158837014809251" lon="-5.353548964485526">
        <ele>6.87</ele>
        <time>2025-05-08T15:14:22Z</time>
      </trkpt>
      <trkpt lat="36.158905997872353" lon="-5.353610990568996">
        <ele>7.35</ele>
        <time>2025-05-08T15:14:23Z</time>
      </trkpt>
      <trkpt lat="36.158976992592216" lon="-5.353675028309226">
        <ele>7.35</ele>
        <time>2025-05-08T15:14:24Z</time>
      </trkpt>
      <trkpt lat="36.15905100479722" lon="-5.353743005543947">
        <ele>6.87</ele>
        <time>2025-05-08T15:14:25Z</time>
      </trkpt>
      <trkpt lat="36.159511003643274" lon="-5.354151036590338">
        <ele>5.91</ele>
        <time>2025-05-08T15:14:31Z</time>
      </trkpt>
      <trkpt lat="36.159592978656292" lon="-5.354228988289833">
        <ele>5.91</ele>
        <time>2025-05-08T15:14:32Z</time>
      </trkpt>
      <trkpt lat="36.160180969163775" lon="-5.354795018211007">
        <ele>4.94</ele>
        <time>2025-05-08T15:14:40Z</time>
      </trkpt>
      <trkpt lat="36.16025498136878" lon="-5.354851009324193">
        <ele>4.94</ele>
        <time>2025-05-08T15:14:41Z</time>
      </trkpt>
      <trkpt lat="36.160688996315002" lon="-5.355233978480101">
        <ele>4.46</ele>
        <time>2025-05-08T15:14:47Z</time>
      </trkpt>
      <trkpt lat="36.160756973549724" lon="-5.355298016220331">
        <ele>4.94</ele>
        <time>2025-05-08T15:14:48Z</time>
      </trkpt>
      <trkpt lat="36.160827968269587" lon="-5.355364987626672">
        <ele>5.42</ele>
        <time>2025-05-08T15:14:49Z</time>
      </trkpt>
      <trkpt lat="36.161170033738017" lon="-5.355699006468058">
        <ele>7.35</ele>
        <time>2025-05-08T15:14:54Z</time>
      </trkpt>
      <trkpt lat="36.161231976002455" lon="-5.355761032551527">
        <ele>7.35</ele>
        <time>2025-05-08T15:14:55Z</time>
      </trkpt>
      <trkpt lat="36.161574963480234" lon="-5.356124974787235">
        <ele>7.35</ele>
        <time>2025-05-08T15:15:01Z</time>
      </trkpt>
      <trkpt lat="36.161633972078562" lon="-5.356183983385563">
        <ele>7.35</ele>
        <time>2025-05-08T15:15:02Z</time>
      </trkpt>
      <trkpt lat="36.162138981744647" lon="-5.356642976403236">
        <ele>5.42</ele>
        <time>2025-05-08T15:15:11Z</time>
      </trkpt>
      <trkpt lat="36.162191033363342" lon="-5.356645993888378">
        <ele>5.42</ele>
        <time>2025-05-08T15:15:12Z</time>
      </trkpt>
      <trkpt lat="36.162226991727948" lon="-5.356610035523772">
        <ele>5.42</ele>
        <time>2025-05-08T15:15:13Z</time>
      </trkpt>
      <trkpt lat="36.162254987284541" lon="-5.356582039967179">
        <ele>5.42</ele>
        <time>2025-05-08T15:15:14Z</time>
      </trkpt>
      <trkpt lat="36.162291029468179" lon="-5.356545997783542">
        <ele>5.91</ele>
        <time>2025-05-08T15:15:15Z</time>
      </trkpt>
      <trkpt lat="36.16229304112494" lon="-5.356481960043311">
        <ele>5.42</ele>
        <time>2025-05-08T15:15:16Z</time>
      </trkpt>
      <trkpt lat="36.16229304112494" lon="-5.356410965323448">
        <ele>4.94</ele>
        <time>2025-05-08T15:15:17Z</time>
      </trkpt>
      <trkpt lat="36.16229304112494" lon="-5.356350028887391">
        <ele>4.94</ele>
        <time>2025-05-08T15:15:18Z</time>
      </trkpt>
      <trkpt lat="36.16227300837636" lon="-5.356293031945825">
        <ele>4.46</ele>
        <time>2025-05-08T15:15:19Z</time>
      </trkpt>
      <trkpt lat="36.162255993112922" lon="-5.356245003640652">
        <ele>4.46</ele>
        <time>2025-05-08T15:15:20Z</time>
      </trkpt>
      <trkpt lat="36.162197990342975" lon="-5.356078958138824">
        <ele>4.94</ele>
        <time>2025-05-08T15:15:23Z</time>
      </trkpt>
      <trkpt lat="36.162088019773364" lon="-5.355831021443009">
        <ele>4.94</ele>
        <time>2025-05-08T15:15:26Z</time>
      </trkpt>
      <trkpt lat="36.162044014781713" lon="-5.355744017288089">
        <ele>5.42</ele>
        <time>2025-05-08T15:15:27Z</time>
      </trkpt>
      <trkpt lat="36.161961033940315" lon="-5.355560034513474">
        <ele>6.39</ele>
        <time>2025-05-08T15:15:29Z</time>
      </trkpt>
      <trkpt lat="36.161934966221452" lon="-5.355460960417986">
        <ele>7.35</ele>
        <time>2025-05-08T15:15:30Z</time>
      </trkpt>
      <trkpt lat="36.16190898232162" lon="-5.355359958484769">
        <ele>8.310000000000001</ele>
        <time>2025-05-08T15:15:31Z</time>
      </trkpt>
      <trkpt lat="36.161819966509938" lon="-5.355030968785286">
        <ele>10.23</ele>
        <time>2025-05-08T15:15:34Z</time>
      </trkpt>
      <trkpt lat="36.161792976781726" lon="-5.354934995993972">
        <ele>10.710000000000001</ele>
        <time>2025-05-08T15:15:35Z</time>
      </trkpt>
      <trkpt lat="36.161767998710275" lon="-5.354842962697148">
        <ele>11.19</ele>
        <time>2025-05-08T15:15:36Z</time>
      </trkpt>
      <trkpt lat="36.161659033969045" lon="-5.3543930221349">
        <ele>14.08</ele>
        <time>2025-05-08T15:15:44Z</time>
      </trkpt>
      <trkpt lat="36.161732040345669" lon="-5.354398973286152">
        <ele>14.56</ele>
        <time>2025-05-08T15:15:45Z</time>
      </trkpt>
      <trkpt lat="36.161775961518288" lon="-5.354388998821378">
        <ele>14.56</ele>
        <time>2025-05-08T15:15:46Z</time>
      </trkpt>
      <trkpt lat="36.161936977878213" lon="-5.354351028800011">
        <ele>16.48</ele>
        <time>2025-05-08T15:15:50Z</time>
      </trkpt>
      <trkpt lat="36.162331011146307" lon="-5.354272993281484">
        <ele>20.32</ele>
        <time>2025-05-08T15:15:57Z</time>
      </trkpt>
      <trkpt lat="36.162614990025759" lon="-5.354225970804691">
        <ele>22.73</ele>
        <time>2025-05-08T15:16:02Z</time>
      </trkpt>
      <trkpt lat="36.162614990025759" lon="-5.354225970804691">
        <ele>23.210000000000001</ele>
        <time>2025-05-08T15:16:03Z</time>
      </trkpt>
      <trkpt lat="36.162598980590701" lon="-5.354109965264797">
        <ele>24.649999999999999</ele>
        <time>2025-05-08T15:16:05Z</time>
      </trkpt>
      <trkpt lat="36.162591017782688" lon="-5.354053974151611">
        <ele>25.129999999999999</ele>
        <time>2025-05-08T15:16:06Z</time>
      </trkpt>
      <trkpt lat="36.162583976984024" lon="-5.354007035493851">
        <ele>25.609999999999999</ele>
        <time>2025-05-08T15:16:07Z</time>
      </trkpt>
      <trkpt lat="36.162563022226095" lon="-5.353861022740603">
        <ele>26.09</ele>
        <time>2025-05-08T15:16:10Z</time>
      </trkpt>
      <trkpt lat="36.16255396977067" lon="-5.353800002485514">
        <ele>26.09</ele>
        <time>2025-05-08T15:16:11Z</time>
      </trkpt>
      <trkpt lat="36.162537038326263" lon="-5.353677961975336">
        <ele>25.609999999999999</ele>
        <time>2025-05-08T15:16:13Z</time>
      </trkpt>
      <trkpt lat="36.162528991699219" lon="-5.353624988347292">
        <ele>25.129999999999999</ele>
        <time>2025-05-08T15:16:14Z</time>
      </trkpt>
      <trkpt lat="36.162513988092542" lon="-5.353564973920584">
        <ele>24.649999999999999</ele>
        <time>2025-05-08T15:16:15Z</time>
      </trkpt>
      <trkpt lat="36.162496972829103" lon="-5.353496996685863">
        <ele>24.170000000000002</ele>
        <time>2025-05-08T15:16:16Z</time>
      </trkpt>
      <trkpt lat="36.162480963394046" lon="-5.353432036936283">
        <ele>23.690000000000001</ele>
        <time>2025-05-08T15:16:17Z</time>
      </trkpt>
      <trkpt lat="36.162465959787369" lon="-5.353371016681194">
        <ele>23.210000000000001</ele>
        <time>2025-05-08T15:16:18Z</time>
      </trkpt>
      <trkpt lat="36.162451039999723" lon="-5.353312008082867">
        <ele>22.73</ele>
        <time>2025-05-08T15:16:19Z</time>
      </trkpt>
      <trkpt lat="36.162376021966338" lon="-5.352983018383384">
        <ele>20.809999999999999</ele>
        <time>2025-05-08T15:16:24Z</time>
      </trkpt>
      <trkpt lat="36.162363030016422" lon="-5.352915963158011">
        <ele>20.809999999999999</ele>
        <time>2025-05-08T15:16:25Z</time>
      </trkpt>
      <trkpt lat="36.162351965904236" lon="-5.352855026721954">
        <ele>20.32</ele>
        <time>2025-05-08T15:16:26Z</time>
      </trkpt>
      <trkpt lat="36.162340985611081" lon="-5.352801969274879">
        <ele>19.84</ele>
        <time>2025-05-08T15:16:27Z</time>
      </trkpt>
      <trkpt lat="36.162332016974688" lon="-5.352754024788737">
        <ele>19.359999999999999</ele>
        <time>2025-05-08T15:16:28Z</time>
      </trkpt>
      <trkpt lat="36.162317013368011" lon="-5.35267498344183">
        <ele>17.920000000000002</ele>
        <time>2025-05-08T15:16:36Z</time>
      </trkpt>
      <trkpt lat="36.162276025861502" lon="-5.35245998762548">
        <ele>14.08</ele>
        <time>2025-05-08T15:16:51Z</time>
      </trkpt>
      <trkpt lat="36.162213999778032" lon="-5.352119011804462">
        <ele>6.39</ele>
        <time>2025-05-08T15:17:06Z</time>
      </trkpt>
      <trkpt lat="36.162213999778032" lon="-5.352119011804462">
        <ele>5.91</ele>
        <time>2025-05-08T15:17:27Z</time>
      </trkpt>
      <trkpt lat="36.16214401088655" lon="-5.352095039561391">
        <ele>1.58</ele>
        <time>2025-05-09T07:56:28Z</time>
      </trkpt>
      <trkpt lat="36.162145016714931" lon="-5.35209403373301">
        <ele>1.1</ele>
        <time>2025-05-09T07:57:05Z</time>
      </trkpt>
      <trkpt lat="36.162160020321608" lon="-5.352114988490939">
        <ele>1.1</ele>
        <time>2025-05-09T07:57:29Z</time>
      </trkpt>
      <trkpt lat="36.162234032526612" lon="-5.352230994030833">
        <ele>2.54</ele>
        <time>2025-05-09T07:57:33Z</time>
      </trkpt>
      <trkpt lat="36.162244006991386" lon="-5.352282039821148">
        <ele>2.54</ele>
        <time>2025-05-09T07:57:34Z</time>
      </trkpt>
      <trkpt lat="36.162251969799399" lon="-5.352327972650528">
        <ele>2.06</ele>
        <time>2025-05-09T07:57:35Z</time>
      </trkpt>
      <trkpt lat="36.162258004769683" lon="-5.352360997349024">
        <ele>2.06</ele>
        <time>2025-05-09T07:57:36Z</time>
      </trkpt>
      <trkpt lat="36.162264039739966" lon="-5.35239402204752">
        <ele>1.1</ele>
        <time>2025-05-09T07:57:37Z</time>
      </trkpt>
      <trkpt lat="36.162269990891218" lon="-5.352426040917635">
        <ele>0.62</ele>
        <time>2025-05-09T07:57:38Z</time>
      </trkpt>
      <trkpt lat="36.162275020033121" lon="-5.352451018989086">
        <ele>-0.34</ele>
        <time>2025-05-09T07:57:39Z</time>
      </trkpt>
      <trkpt lat="36.162278037518263" lon="-5.352470967918634">
        <ele>0.14</ele>
        <time>2025-05-09T07:57:40Z</time>
      </trkpt>
      <trkpt lat="36.162281977012753" lon="-5.352488989010453">
        <ele>0.14</ele>
        <time>2025-05-09T07:57:41Z</time>
      </trkpt>
      <trkpt lat="36.162281977012753" lon="-5.352488989010453">
        <ele>-0.82</ele>
        <time>2025-05-09T07:57:42Z</time>
      </trkpt>
      <trkpt lat="36.16229304112494" lon="-5.352552020922303">
        <ele>-0.34</ele>
        <time>2025-05-09T07:57:51Z</time>
      </trkpt>
      <trkpt lat="36.162309972569346" lon="-5.352547997608781">
        <ele>0.14</ele>
        <time>2025-05-09T07:57:52Z</time>
      </trkpt>
      <trkpt lat="36.162331011146307" lon="-5.352541962638497">
        <ele>1.1</ele>
        <time>2025-05-09T07:57:53Z</time>
      </trkpt>
      <trkpt lat="36.16259696893394" lon="-5.352471973747015">
        <ele>4.46</ele>
        <time>2025-05-09T07:58:02Z</time>
      </trkpt>
      <trkpt lat="36.16270300000906" lon="-5.352471973747015">
        <ele>4.46</ele>
        <time>2025-05-09T07:58:08Z</time>
      </trkpt>
      <trkpt lat="36.16276603192091" lon="-5.353158032521606">
        <ele>5.91</ele>
        <time>2025-05-09T07:58:22Z</time>
      </trkpt>
      <trkpt lat="36.162773994728923" lon="-5.353213017806411">
        <ele>5.91</ele>
        <time>2025-05-09T07:58:23Z</time>
      </trkpt>
      <trkpt lat="36.162782041355968" lon="-5.353269008919597">
        <ele>5.91</ele>
        <time>2025-05-09T07:58:24Z</time>
      </trkpt>
      <trkpt lat="36.162796039134264" lon="-5.353370010852814">
        <ele>5.91</ele>
        <time>2025-05-09T07:58:26Z</time>
      </trkpt>
      <trkpt lat="36.162802996113896" lon="-5.353413010016084">
        <ele>5.91</ele>
        <time>2025-05-09T07:58:27Z</time>
      </trkpt>
      <trkpt lat="36.16280903108418" lon="-5.353456009179354">
        <ele>5.42</ele>
        <time>2025-05-09T07:58:28Z</time>
      </trkpt>
      <trkpt lat="36.162813976407051" lon="-5.35349003970623">
        <ele>5.91</ele>
        <time>2025-05-09T07:58:29Z</time>
      </trkpt>
      <trkpt lat="36.162817999720573" lon="-5.353519041091204">
        <ele>6.39</ele>
        <time>2025-05-09T07:58:30Z</time>
      </trkpt>
      <trkpt lat="36.162821017205715" lon="-5.353543013334274">
        <ele>6.39</ele>
        <time>2025-05-09T07:58:31Z</time>
      </trkpt>
      <trkpt lat="36.16280903108418" lon="-5.353605039417744">
        <ele>6.39</ele>
        <time>2025-05-09T07:58:32Z</time>
      </trkpt>
      <trkpt lat="36.162791009992361" lon="-5.353605961427093">
        <ele>5.91</ele>
        <time>2025-05-09T07:58:33Z</time>
      </trkpt>
      <trkpt lat="36.162758991122246" lon="-5.353607973083854">
        <ele>5.42</ele>
        <time>2025-05-09T07:58:34Z</time>
      </trkpt>
      <trkpt lat="36.162506025284529" lon="-5.353629011660814">
        <ele>3.98</ele>
        <time>2025-05-09T07:58:40Z</time>
      </trkpt>
      <trkpt lat="36.162477023899555" lon="-5.353634040802717">
        <ele>3.5</ele>
        <time>2025-05-09T07:58:41Z</time>
      </trkpt>
      <trkpt lat="36.162438970059156" lon="-5.353639991953969">
        <ele>3.5</ele>
        <time>2025-05-09T07:58:42Z</time>
      </trkpt>
      <trkpt lat="36.162391025573015" lon="-5.353648038581014">
        <ele>3.02</ele>
        <time>2025-05-09T07:58:43Z</time>
      </trkpt>
      <trkpt lat="36.162334028631449" lon="-5.353657007217407">
        <ele>2.54</ele>
        <time>2025-05-09T07:58:44Z</time>
      </trkpt>
      <trkpt lat="36.162216011434793" lon="-5.353677039965987">
        <ele>2.06</ele>
        <time>2025-05-09T07:58:46Z</time>
      </trkpt>
      <trkpt lat="36.162157002836466" lon="-5.353687014430761">
        <ele>2.06</ele>
        <time>2025-05-09T07:58:47Z</time>
      </trkpt>
      <trkpt lat="36.162097994238138" lon="-5.353696988895536">
        <ele>1.58</ele>
        <time>2025-05-09T07:58:48Z</time>
      </trkpt>
      <trkpt lat="36.162043008953333" lon="-5.353706041350961">
        <ele>1.58</ele>
        <time>2025-05-09T07:58:49Z</time>
      </trkpt>
      <trkpt lat="36.161986012011766" lon="-5.353717021644115">
        <ele>1.1</ele>
        <time>2025-05-09T07:58:50Z</time>
      </trkpt>
      <trkpt lat="36.161894984543324" lon="-5.353737976402044">
        <ele>0.62</ele>
        <time>2025-05-09T07:58:52Z</time>
      </trkpt>
      <trkpt lat="36.161859026178718" lon="-5.35374702885747">
        <ele>0.62</ele>
        <time>2025-05-09T07:58:53Z</time>
      </trkpt>
      <trkpt lat="36.161734974011779" lon="-5.353775024414063">
        <ele>0.62</ele>
        <time>2025-05-09T07:58:54Z</time>
      </trkpt>
      <trkpt lat="36.161734974011779" lon="-5.353775024414063">
        <ele>0.62</ele>
        <time>2025-05-09T07:58:55Z</time>
      </trkpt>
      <trkpt lat="36.161734974011779" lon="-5.353775024414063">
        <ele>0.14</ele>
        <time>2025-05-09T07:58:56Z</time>
      </trkpt>
      <trkpt lat="36.161734974011779" lon="-5.353775024414063">
        <ele>0.14</ele>
        <time>2025-05-09T07:58:57Z</time>
      </trkpt>
      <trkpt lat="36.161734974011779" lon="-5.353775024414063">
        <ele>0.14</ele>
        <time>2025-05-09T07:58:58Z</time>
      </trkpt>
      <trkpt lat="36.161692980676889" lon="-5.35379296168685">
        <ele>0.62</ele>
        <time>2025-05-09T07:59:03Z</time>
      </trkpt>
      <trkpt lat="36.161686023697257" lon="-5.353795979171991">
        <ele>1.1</ele>
        <time>2025-05-09T07:59:04Z</time>
      </trkpt>
      <trkpt lat="36.161520984023809" lon="-5.354096973314881">
        <ele>1.58</ele>
        <time>2025-05-09T07:59:13Z</time>
      </trkpt>
      <trkpt lat="36.161498017609119" lon="-5.354123963043094">
        <ele>1.58</ele>
        <time>2025-05-09T07:59:14Z</time>
      </trkpt>
      <trkpt lat="36.161483014002442" lon="-5.354140978306532">
        <ele>1.58</ele>
        <time>2025-05-09T07:59:15Z</time>
      </trkpt>
      <trkpt lat="36.161469016224146" lon="-5.35415698774159">
        <ele>1.58</ele>
        <time>2025-05-09T07:59:16Z</time>
      </trkpt>
      <trkpt lat="36.161454012617469" lon="-5.354175008833408">
        <ele>1.58</ele>
        <time>2025-05-09T07:59:17Z</time>
      </trkpt>
      <trkpt lat="36.16160798817873" lon="-5.354313980787993">
        <ele>2.06</ele>
        <time>2025-05-09T07:59:19Z</time>
      </trkpt>
      <trkpt lat="36.161445965990424" lon="-5.354183977469802">
        <ele>-1.79</ele>
        <time>2025-05-09T07:59:24Z</time>
      </trkpt>
      <trkpt lat="36.161426017060876" lon="-5.354207027703524">
        <ele>-1.79</ele>
        <time>2025-05-09T07:59:25Z</time>
      </trkpt>
      <trkpt lat="36.161402966827154" lon="-5.354234017431736">
        <ele>-1.3</ele>
        <time>2025-05-09T07:59:26Z</time>
      </trkpt>
      <trkpt lat="36.161377988755703" lon="-5.354262012988329">
        <ele>-1.3</ele>
        <time>2025-05-09T07:59:27Z</time>
      </trkpt>
      <trkpt lat="36.161352004855871" lon="-5.354293026030064">
        <ele>-1.3</ele>
        <time>2025-05-09T07:59:28Z</time>
      </trkpt>
      <trkpt lat="36.161317974328995" lon="-5.354332001879811">
        <ele>-1.79</ele>
        <time>2025-05-09T07:59:29Z</time>
      </trkpt>
      <trkpt lat="36.161273969337344" lon="-5.354382963851094">
        <ele>-2.27</ele>
        <time>2025-05-09T07:59:30Z</time>
      </trkpt>
      <trkpt lat="36.161223007366061" lon="-5.354442978277803">
        <ele>-2.27</ele>
        <time>2025-05-09T07:59:31Z</time>
      </trkpt>
      <trkpt lat="36.161171961575747" lon="-5.35450098104775">
        <ele>-2.27</ele>
        <time>2025-05-09T07:59:32Z</time>
      </trkpt>
      <trkpt lat="36.160968029871583" lon="-5.354728968814015">
        <ele>-3.23</ele>
        <time>2025-05-09T07:59:38Z</time>
      </trkpt>
      <trkpt lat="36.160931987687945" lon="-5.354768028482795">
        <ele>-3.23</ele>
        <time>2025-05-09T07:59:39Z</time>
      </trkpt>
      <trkpt lat="36.16087700240314" lon="-5.354783032089472">
        <ele>-3.23</ele>
        <time>2025-05-09T07:59:40Z</time>
      </trkpt>
      <trkpt lat="36.160850012674928" lon="-5.354755958542228">
        <ele>-2.75</ele>
        <time>2025-05-09T07:59:41Z</time>
      </trkpt>
      <trkpt lat="36.16081397049129" lon="-5.354721006006002">
        <ele>-2.75</ele>
        <time>2025-05-09T07:59:42Z</time>
      </trkpt>
      <trkpt lat="36.160776000469923" lon="-5.354682030156255">
        <ele>-2.27</ele>
        <time>2025-05-09T07:59:43Z</time>
      </trkpt>
      <trkpt lat="36.160308960825205" lon="-5.35411398857832">
        <ele>-2.75</ele>
        <time>2025-05-09T07:59:53Z</time>
      </trkpt>
      <trkpt lat="36.160164959728718" lon="-5.353897986933589">
        <ele>-2.75</ele>
        <time>2025-05-09T07:59:56Z</time>
      </trkpt>
      <trkpt lat="36.159525001421571" lon="-5.353217041119933">
        <ele>-2.27</ele>
        <time>2025-05-09T08:00:08Z</time>
      </trkpt>
      <trkpt lat="36.159483008086681" lon="-5.353146968409419">
        <ele>-2.27</ele>
        <time>2025-05-09T08:00:09Z</time>
      </trkpt>
      <trkpt lat="36.15922199562192" lon="-5.352712031453848">
        <ele>-2.27</ele>
        <time>2025-05-09T08:00:15Z</time>
      </trkpt>
      <trkpt lat="36.159109007567167" lon="-5.35252402536571">
        <ele>-2.75</ele>
        <time>2025-05-09T08:00:18Z</time>
      </trkpt>
      <trkpt lat="36.1590710375458" lon="-5.352464010939002">
        <ele>-2.27</ele>
        <time>2025-05-09T08:00:19Z</time>
      </trkpt>
      <trkpt lat="36.159041030332446" lon="-5.35244096070528">
        <ele>-2.27</ele>
        <time>2025-05-09T08:00:20Z</time>
      </trkpt>
      <trkpt lat="36.159014962613583" lon="-5.352421011775732">
        <ele>-2.27</ele>
        <time>2025-05-09T08:00:21Z</time>
      </trkpt>
      <trkpt lat="36.158997025340796" lon="-5.352408019825816">
        <ele>-2.27</ele>
        <time>2025-05-09T08:00:22Z</time>
      </trkpt>
      <trkpt lat="36.158870961517096" lon="-5.352478008717299">
        <ele>-2.27</ele>
        <time>2025-05-09T08:00:23Z</time>
      </trkpt>
      <trkpt lat="36.158867022022605" lon="-5.352492006495595">
        <ele>-2.27</ele>
        <time>2025-05-09T08:00:24Z</time>
      </trkpt>
      <trkpt lat="36.158862998709083" lon="-5.352511033415794">
        <ele>-2.27</ele>
        <time>2025-05-09T08:00:25Z</time>
      </trkpt>
      <trkpt lat="36.15885604172945" lon="-5.352541040629149">
        <ele>-2.27</ele>
        <time>2025-05-09T08:00:26Z</time>
      </trkpt>
      <trkpt lat="36.158839026466012" lon="-5.352615974843502">
        <ele>-2.27</ele>
        <time>2025-05-09T08:00:27Z</time>
      </trkpt>
      <trkpt lat="36.158838020637631" lon="-5.352616980671883">
        <ele>-2.27</ele>
        <time>2025-05-09T08:00:28Z</time>
      </trkpt>
      <trkpt lat="36.158822011202574" lon="-5.352676995098591">
        <ele>-2.27</ele>
        <time>2025-05-09T08:00:29Z</time>
      </trkpt>
      <trkpt lat="36.158798038959503" lon="-5.352759975939989">
        <ele>-2.75</ele>
        <time>2025-05-09T08:00:30Z</time>
      </trkpt>
      <trkpt lat="36.158773982897401" lon="-5.352842034772039">
        <ele>-2.75</ele>
        <time>2025-05-09T08:00:31Z</time>
      </trkpt>
      <trkpt lat="36.158754033967853" lon="-5.352914035320282">
        <ele>-3.23</ele>
        <time>2025-05-09T08:00:32Z</time>
      </trkpt>
      <trkpt lat="36.158714974299073" lon="-5.353047978132963">
        <ele>-3.23</ele>
        <time>2025-05-09T08:00:34Z</time>
      </trkpt>
      <trkpt lat="36.158692007884383" lon="-5.353107992559671">
        <ele>-3.71</ele>
        <time>2025-05-09T08:00:35Z</time>
      </trkpt>
      <trkpt lat="36.158730983734131" lon="-5.353366993367672">
        <ele>-3.71</ele>
        <time>2025-05-09T08:00:37Z</time>
      </trkpt>
      <trkpt lat="36.158730983734131" lon="-5.353366993367672">
        <ele>-3.71</ele>
        <time>2025-05-09T08:00:38Z</time>
      </trkpt>
      <trkpt lat="36.158730983734131" lon="-5.353432958945632">
        <ele>-3.71</ele>
        <time>2025-05-09T08:00:39Z</time>
      </trkpt>
      <trkpt lat="36.158795021474361" lon="-5.353509988635778">
        <ele>-4.19</ele>
        <time>2025-05-09T08:00:40Z</time>
      </trkpt>
      <trkpt lat="36.15885897539556" lon="-5.353567991405726">
        <ele>-3.71</ele>
        <time>2025-05-09T08:00:41Z</time>
      </trkpt>
      <trkpt lat="36.159732034429908" lon="-5.354348011314869">
        <ele>-3.71</ele>
        <time>2025-05-09T08:00:53Z</time>
      </trkpt>
      <trkpt lat="36.160585982725024" lon="-5.355143034830689">
        <ele>-5.15</ele>
        <time>2025-05-09T08:01:04Z</time>
      </trkpt>
      <trkpt lat="36.160741969943047" lon="-5.355285024270415">
        <ele>-5.15</ele>
        <time>2025-05-09T08:01:06Z</time>
      </trkpt>
      <trkpt lat="36.160821011289954" lon="-5.355358030647039">
        <ele>-5.15</ele>
        <time>2025-05-09T08:01:07Z</time>
      </trkpt>
      <trkpt lat="36.161783002316952" lon="-5.356338964775205">
        <ele>-4.19</ele>
        <time>2025-05-09T08:01:20Z</time>
      </trkpt>
      <trkpt lat="36.162161026149988" lon="-5.356744984164834">
        <ele>-3.71</ele>
        <time>2025-05-09T08:01:26Z</time>
      </trkpt>
      <trkpt lat="36.162272002547979" lon="-5.35680097527802">
        <ele>-3.23</ele>
        <time>2025-05-09T08:01:27Z</time>
      </trkpt>
      <trkpt lat="36.162307038903236" lon="-5.356812961399555">
        <ele>-3.23</ele>
        <time>2025-05-09T08:01:28Z</time>
      </trkpt>
      <trkpt lat="36.162442993372679" lon="-5.356863001361489">
        <ele>-2.75</ele>
        <time>2025-05-09T08:01:30Z</time>
      </trkpt>
      <trkpt lat="36.162513988092542" lon="-5.356893008574843">
        <ele>-2.75</ele>
        <time>2025-05-09T08:01:31Z</time>
      </trkpt>
      <trkpt lat="36.162567967548966" lon="-5.356958974152803">
        <ele>-3.23</ele>
        <time>2025-05-09T08:01:32Z</time>
      </trkpt>
      <trkpt lat="36.162624964490533" lon="-5.357034998014569">
        <ele>-2.75</ele>
        <time>2025-05-09T08:01:33Z</time>
      </trkpt>
      <trkpt lat="36.162657989189029" lon="-5.357100963592529">
        <ele>-2.75</ele>
        <time>2025-05-09T08:01:34Z</time>
      </trkpt>
      <trkpt lat="36.162665029987693" lon="-5.357243958860636">
        <ele>-2.75</ele>
        <time>2025-05-09T08:01:35Z</time>
      </trkpt>
      <trkpt lat="36.162709034979343" lon="-5.35733699798584">
        <ele>-2.75</ele>
        <time>2025-05-09T08:01:36Z</time>
      </trkpt>
      <trkpt lat="36.162754967808723" lon="-5.357433976605535">
        <ele>-2.75</ele>
        <time>2025-05-09T08:01:37Z</time>
      </trkpt>
      <trkpt lat="36.162804001942277" lon="-5.357536990195513">
        <ele>-3.23</ele>
        <time>2025-05-09T08:01:38Z</time>
      </trkpt>
      <trkpt lat="36.16285596974194" lon="-5.357643021270633">
        <ele>-3.23</ele>
        <time>2025-05-09T08:01:39Z</time>
      </trkpt>
      <trkpt lat="36.16373497992754" lon="-5.358867030590773">
        <ele>-7.07</ele>
        <time>2025-05-09T08:01:51Z</time>
      </trkpt>
      <trkpt lat="36.16433504037559" lon="-5.359802031889558">
        <ele>-4.19</ele>
        <time>2025-05-09T08:02:01Z</time>
      </trkpt>
      <trkpt lat="36.164889000356197" lon="-5.360551960766316">
        <ele>-2.27</ele>
        <time>2025-05-09T08:02:10Z</time>
      </trkpt>
      <trkpt lat="36.16493996232748" lon="-5.3606650326401">
        <ele>-2.27</ele>
        <time>2025-05-09T08:02:11Z</time>
      </trkpt>
      <trkpt lat="36.164977010339499" lon="-5.36077500320971">
        <ele>-2.27</ele>
        <time>2025-05-09T08:02:12Z</time>
      </trkpt>
      <trkpt lat="36.164953960105777" lon="-5.360963009297848">
        <ele>-1.79</ele>
        <time>2025-05-09T08:02:13Z</time>
      </trkpt>
      <trkpt lat="36.164982039481401" lon="-5.361035009846091">
        <ele>-1.3</ele>
        <time>2025-05-09T08:02:14Z</time>
      </trkpt>
      <trkpt lat="36.165025038644671" lon="-5.361145986244083">
        <ele>-0.82</ele>
        <time>2025-05-09T08:02:15Z</time>
      </trkpt>
      <trkpt lat="36.165069965645671" lon="-5.361260985955596">
        <ele>-0.82</ele>
        <time>2025-05-09T08:02:16Z</time>
      </trkpt>
      <trkpt lat="36.165120005607605" lon="-5.36137598566711">
        <ele>-0.34</ele>
        <time>2025-05-09T08:02:17Z</time>
      </trkpt>
      <trkpt lat="36.165184965357184" lon="-5.361485034227371">
        <ele>0.14</ele>
        <time>2025-05-09T08:02:18Z</time>
      </trkpt>
      <trkpt lat="36.165851997211576" lon="-5.362590020522475">
        <ele>1.1</ele>
        <time>2025-05-09T08:02:29Z</time>
      </trkpt>
      <trkpt lat="36.166636040434241" lon="-5.364069007337093">
        <ele>1.1</ele>
        <time>2025-05-09T08:02:43Z</time>
      </trkpt>
      <trkpt lat="36.166683984920382" lon="-5.364165985956788">
        <ele>1.1</ele>
        <time>2025-05-09T08:02:44Z</time>
      </trkpt>
      <trkpt lat="36.166732013225555" lon="-5.364261036738753">
        <ele>0.62</ele>
        <time>2025-05-09T08:02:45Z</time>
      </trkpt>
      <trkpt lat="36.166777024045587" lon="-5.364350974559784">
        <ele>0.62</ele>
        <time>2025-05-09T08:02:46Z</time>
      </trkpt>
      <trkpt lat="36.166927982121706" lon="-5.364332031458616">
        <ele>0.14</ele>
        <time>2025-05-09T08:02:47Z</time>
      </trkpt>
      <trkpt lat="36.166991014033556" lon="-5.364378970116377">
        <ele>0.14</ele>
        <time>2025-05-09T08:02:48Z</time>
      </trkpt>
      <trkpt lat="36.167040970176458" lon="-5.364489024505019">
        <ele>-0.34</ele>
        <time>2025-05-09T08:02:49Z</time>
      </trkpt>
      <trkpt lat="36.167056979611516" lon="-5.364587008953095">
        <ele>0.14</ele>
        <time>2025-05-09T08:02:50Z</time>
      </trkpt>
      <trkpt lat="36.167037030681968" lon="-5.364691028371453">
        <ele>-0.34</ele>
        <time>2025-05-09T08:02:51Z</time>
      </trkpt>
      <trkpt lat="36.167051028460264" lon="-5.364798987284303">
        <ele>-0.34</ele>
        <time>2025-05-09T08:02:52Z</time>
      </trkpt>
      <trkpt lat="36.167065026238561" lon="-5.364913986995816">
        <ele>-0.34</ele>
        <time>2025-05-09T08:02:53Z</time>
      </trkpt>
      <trkpt lat="36.167080029845238" lon="-5.365033010020852">
        <ele>-0.34</ele>
        <time>2025-05-09T08:02:54Z</time>
      </trkpt>
      <trkpt lat="36.167099978774786" lon="-5.365191008895636">
        <ele>-0.34</ele>
        <time>2025-05-09T08:02:55Z</time>
      </trkpt>
      <trkpt lat="36.167142977938056" lon="-5.365299973636866">
        <ele>-0.34</ele>
        <time>2025-05-09T08:02:56Z</time>
      </trkpt>
      <trkpt lat="36.16783800534904" lon="-5.367161007598043">
        <ele>0.14</ele>
        <time>2025-05-09T08:03:09Z</time>
      </trkpt>
      <trkpt lat="36.168263973668218" lon="-5.368219977244735">
        <ele>2.06</ele>
        <time>2025-05-09T08:03:18Z</time>
      </trkpt>
      <trkpt lat="36.168314013630152" lon="-5.368325002491474">
        <ele>2.54</ele>
        <time>2025-05-09T08:03:19Z</time>
      </trkpt>
      <trkpt lat="36.168440999463201" lon="-5.368528012186289">
        <ele>3.02</ele>
        <time>2025-05-09T08:03:21Z</time>
      </trkpt>
      <trkpt lat="36.168432030826807" lon="-5.368671007454395">
        <ele>3.02</ele>
        <time>2025-05-09T08:03:22Z</time>
      </trkpt>
      <trkpt lat="36.168500008061528" lon="-5.368919027969241">
        <ele>3.02</ele>
        <time>2025-05-09T08:03:24Z</time>
      </trkpt>
      <trkpt lat="36.168836960569024" lon="-5.369609026238322">
        <ele>3.02</ele>
        <time>2025-05-09T08:03:30Z</time>
      </trkpt>
      <trkpt lat="36.168906027451158" lon="-5.369722014293075">
        <ele>3.5</ele>
        <time>2025-05-09T08:03:31Z</time>
      </trkpt>
      <trkpt lat="36.170005984604359" lon="-5.370724992826581">
        <ele>3.98</ele>
        <time>2025-05-09T08:03:43Z</time>
      </trkpt>
      <trkpt lat="36.170110004022717" lon="-5.370792970061302">
        <ele>3.5</ele>
        <time>2025-05-09T08:03:44Z</time>
      </trkpt>
      <trkpt lat="36.171138966456056" lon="-5.371175017207861">
        <ele>3.98</ele>
        <time>2025-05-09T08:03:54Z</time>
      </trkpt>
      <trkpt lat="36.171928960829973" lon="-5.371605008840561">
        <ele>6.87</ele>
        <time>2025-05-09T08:04:05Z</time>
      </trkpt>
      <trkpt lat="36.172605967149138" lon="-5.372154023498297">
        <ele>7.35</ele>
        <time>2025-05-09T08:04:16Z</time>
      </trkpt>
      <trkpt lat="36.172653995454311" lon="-5.372195011004806">
        <ele>7.35</ele>
        <time>2025-05-09T08:04:17Z</time>
      </trkpt>
      <trkpt lat="36.173061020672321" lon="-5.372530035674572">
        <ele>6.87</ele>
        <time>2025-05-09T08:04:27Z</time>
      </trkpt>
      <trkpt lat="36.173523031175137" lon="-5.372907975688577">
        <ele>7.35</ele>
        <time>2025-05-09T08:04:37Z</time>
      </trkpt>
      <trkpt lat="36.173587990924716" lon="-5.372959021478891">
        <ele>7.35</ele>
        <time>2025-05-09T08:04:38Z</time>
      </trkpt>
      <trkpt lat="36.173655968159437" lon="-5.373010989278555">
        <ele>7.83</ele>
        <time>2025-05-09T08:04:39Z</time>
      </trkpt>
      <trkpt lat="36.17460697889328" lon="-5.373715991154313">
        <ele>9.27</ele>
        <time>2025-05-09T08:04:51Z</time>
      </trkpt>
      <trkpt lat="36.174852987751365" lon="-5.373892011120915">
        <ele>8.789999999999999</ele>
        <time>2025-05-09T08:04:54Z</time>
      </trkpt>
      <trkpt lat="36.174933034926653" lon="-5.373950013890863">
        <ele>8.789999999999999</ele>
        <time>2025-05-09T08:04:55Z</time>
      </trkpt>
      <trkpt lat="36.17555002681911" lon="-5.374400038272142">
        <ele>9.27</ele>
        <time>2025-05-09T08:05:04Z</time>
      </trkpt>
      <trkpt lat="36.17608898319304" lon="-5.374973025172949">
        <ele>10.23</ele>
        <time>2025-05-09T08:05:12Z</time>
      </trkpt>
      <trkpt lat="36.176147991791368" lon="-5.375051982700825">
        <ele>10.23</ele>
        <time>2025-05-09T08:05:13Z</time>
      </trkpt>
      <trkpt lat="36.176941003650427" lon="-5.375994024798274">
        <ele>10.23</ele>
        <time>2025-05-09T08:05:25Z</time>
      </trkpt>
      <trkpt lat="36.177007975056767" lon="-5.376068959012628">
        <ele>9.75</ele>
        <time>2025-05-09T08:05:26Z</time>
      </trkpt>
      <trkpt lat="36.177197992801666" lon="-5.3762879781425">
        <ele>9.27</ele>
        <time>2025-05-09T08:05:29Z</time>
      </trkpt>
      <trkpt lat="36.17724996060133" lon="-5.376354027539492">
        <ele>9.27</ele>
        <time>2025-05-09T08:05:30Z</time>
      </trkpt>
      <trkpt lat="36.177421035245061" lon="-5.376596013084054">
        <ele>8.789999999999999</ele>
        <time>2025-05-09T08:05:34Z</time>
      </trkpt>
      <trkpt lat="36.177666038274765" lon="-5.377026004716754">
        <ele>7.35</ele>
        <time>2025-05-09T08:05:43Z</time>
      </trkpt>
      <trkpt lat="36.177695961669087" lon="-5.377080990001559">
        <ele>6.87</ele>
        <time>2025-05-09T08:05:44Z</time>
      </trkpt>
      <trkpt lat="36.178036015480757" lon="-5.377665041014552">
        <ele>9.27</ele>
        <time>2025-05-09T08:05:53Z</time>
      </trkpt>
      <trkpt lat="36.178088989108801" lon="-5.377740981057286">
        <ele>9.75</ele>
        <time>2025-05-09T08:05:54Z</time>
      </trkpt>
      <trkpt lat="36.178143974393606" lon="-5.377819016575813">
        <ele>9.75</ele>
        <time>2025-05-09T08:05:55Z</time>
      </trkpt>
      <trkpt lat="36.178351007401943" lon="-5.378019008785486">
        <ele>9.75</ele>
        <time>2025-05-09T08:05:58Z</time>
      </trkpt>
      <trkpt lat="36.178425019606948" lon="-5.378077011555433">
        <ele>9.75</ele>
        <time>2025-05-09T08:05:59Z</time>
      </trkpt>
      <trkpt lat="36.178721990436316" lon="-5.378352021798492">
        <ele>9.27</ele>
        <time>2025-05-09T08:06:03Z</time>
      </trkpt>
      <trkpt lat="36.178787034004927" lon="-5.378423016518354">
        <ele>8.789999999999999</ele>
        <time>2025-05-09T08:06:04Z</time>
      </trkpt>
      <trkpt lat="36.178855011239648" lon="-5.378489987924695">
        <ele>8.789999999999999</ele>
        <time>2025-05-09T08:06:05Z</time>
      </trkpt>
      <trkpt lat="36.179541992023587" lon="-5.379156013950706">
        <ele>5.91</ele>
        <time>2025-05-09T08:06:15Z</time>
      </trkpt>
      <trkpt lat="36.179622961208224" lon="-5.379231031984091">
        <ele>5.91</ele>
        <time>2025-05-09T08:06:16Z</time>
      </trkpt>
      <trkpt lat="36.179708959534764" lon="-5.379308983683586">
        <ele>5.42</ele>
        <time>2025-05-09T08:06:17Z</time>
      </trkpt>
      <trkpt lat="36.180944032967091" lon="-5.380023960024118">
        <ele>1.1</ele>
        <time>2025-05-09T08:06:29Z</time>
      </trkpt>
      <trkpt lat="36.181907029822469" lon="-5.380513966083527">
        <ele>-0.82</ele>
        <time>2025-05-09T08:06:38Z</time>
      </trkpt>
      <trkpt lat="36.181946005672216" lon="-5.380524024367333">
        <ele>-0.82</ele>
        <time>2025-05-09T08:06:39Z</time>
      </trkpt>
      <trkpt lat="36.181991016492248" lon="-5.380536010488868">
        <ele>-0.82</ele>
        <time>2025-05-09T08:06:44Z</time>
      </trkpt>
      <trkpt lat="36.182055976241827" lon="-5.380554031580687">
        <ele>-0.82</ele>
        <time>2025-05-09T08:06:45Z</time>
      </trkpt>
      <trkpt lat="36.182205006480217" lon="-5.380521006882191">
        <ele>-0.82</ele>
        <time>2025-05-09T08:06:47Z</time>
      </trkpt>
      <trkpt lat="36.182286981493235" lon="-5.3805619943887">
        <ele>-0.34</ele>
        <time>2025-05-09T08:06:48Z</time>
      </trkpt>
      <trkpt lat="36.182375997304916" lon="-5.380607005208731">
        <ele>-0.82</ele>
        <time>2025-05-09T08:06:49Z</time>
      </trkpt>
      <trkpt lat="36.182484962046146" lon="-5.380661990493536">
        <ele>-1.3</ele>
        <time>2025-05-09T08:06:50Z</time>
      </trkpt>
      <trkpt lat="36.182527961209416" lon="-5.380726028233767">
        <ele>-1.79</ele>
        <time>2025-05-09T08:06:51Z</time>
      </trkpt>
      <trkpt lat="36.182591998949647" lon="-5.380898024886847">
        <ele>-2.27</ele>
        <time>2025-05-09T08:06:52Z</time>
      </trkpt>
      <trkpt lat="36.182699035853148" lon="-5.380995003506541">
        <ele>-2.27</ele>
        <time>2025-05-09T08:06:53Z</time>
      </trkpt>
      <trkpt lat="36.182800037786365" lon="-5.381087958812714">
        <ele>-2.75</ele>
        <time>2025-05-09T08:06:54Z</time>
      </trkpt>
      <trkpt lat="36.182910008355975" lon="-5.38116398267448">
        <ele>-2.75</ele>
        <time>2025-05-09T08:06:55Z</time>
      </trkpt>
      <trkpt lat="36.183035988360643" lon="-5.381232965737581">
        <ele>-2.75</ele>
        <time>2025-05-09T08:06:56Z</time>
      </trkpt>
      <trkpt lat="36.184258991852403" lon="-5.381942996755242">
        <ele>-3.23</ele>
        <time>2025-05-09T08:07:06Z</time>
      </trkpt>
      <trkpt lat="36.18543203920126" lon="-5.382859976962209">
        <ele>-3.23</ele>
        <time>2025-05-09T08:07:13Z</time>
      </trkpt>
      <trkpt lat="36.187336994335055" lon="-5.384568041190505">
        <ele>1.1</ele>
        <time>2025-05-09T08:07:25Z</time>
      </trkpt>
      <trkpt lat="36.188544994220138" lon="-5.385571019724011">
        <ele>4.94</ele>
        <time>2025-05-09T08:07:33Z</time>
      </trkpt>
      <trkpt lat="36.188709028065205" lon="-5.385664980858564">
        <ele>4.94</ele>
        <time>2025-05-09T08:07:34Z</time>
      </trkpt>
      <trkpt lat="36.188874989748001" lon="-5.385732958093286">
        <ele>4.94</ele>
        <time>2025-05-09T08:07:35Z</time>
      </trkpt>
      <trkpt lat="36.189055033028126" lon="-5.385757014155388">
        <ele>4.94</ele>
        <time>2025-05-09T08:07:36Z</time>
      </trkpt>
      <trkpt lat="36.189233986660838" lon="-5.385779980570078">
        <ele>4.94</ele>
        <time>2025-05-09T08:07:37Z</time>
      </trkpt>
      <trkpt lat="36.189401037991047" lon="-5.385790038853884">
        <ele>4.94</ele>
        <time>2025-05-09T08:07:38Z</time>
      </trkpt>
      <trkpt lat="36.18956096470356" lon="-5.385776963084936">
        <ele>4.94</ele>
        <time>2025-05-09T08:07:39Z</time>
      </trkpt>
      <trkpt lat="36.189716029912233" lon="-5.385731030255556">
        <ele>5.42</ele>
        <time>2025-05-09T08:07:40Z</time>
      </trkpt>
      <trkpt lat="36.18986296467483" lon="-5.385680990293622">
        <ele>5.42</ele>
        <time>2025-05-09T08:07:41Z</time>
      </trkpt>
      <trkpt lat="36.191075993701816" lon="-5.385200036689639">
        <ele>5.91</ele>
        <time>2025-05-09T08:07:51Z</time>
      </trkpt>
      <trkpt lat="36.191153023391962" lon="-5.38513801060617">
        <ele>5.42</ele>
        <time>2025-05-09T08:07:52Z</time>
      </trkpt>
      <trkpt lat="36.191221000626683" lon="-5.385079002007842">
        <ele>5.42</ele>
        <time>2025-05-09T08:07:53Z</time>
      </trkpt>
      <trkpt lat="36.19127900339663" lon="-5.385020999237895">
        <ele>5.42</ele>
        <time>2025-05-09T08:07:54Z</time>
      </trkpt>
      <trkpt lat="36.191333988681436" lon="-5.38496601395309">
        <ele>5.42</ele>
        <time>2025-05-09T08:07:55Z</time>
      </trkpt>
      <trkpt lat="36.191390985623002" lon="-5.384953022003174">
        <ele>5.91</ele>
        <time>2025-05-09T08:07:56Z</time>
      </trkpt>
      <trkpt lat="36.191467009484768" lon="-5.384953022003174">
        <ele>5.91</ele>
        <time>2025-05-09T08:07:57Z</time>
      </trkpt>
      <trkpt lat="36.191529035568237" lon="-5.384993003681302">
        <ele>6.39</ele>
        <time>2025-05-09T08:07:58Z</time>
      </trkpt>
      <trkpt lat="36.191633976995945" lon="-5.384995015338063">
        <ele>6.39</ele>
        <time>2025-05-09T08:07:59Z</time>
      </trkpt>
      <trkpt lat="36.19172802194953" lon="-5.38496601395309">
        <ele>6.39</ele>
        <time>2025-05-09T08:08:00Z</time>
      </trkpt>
      <trkpt lat="36.191841010004282" lon="-5.384931983426213">
        <ele>6.39</ele>
        <time>2025-05-09T08:08:01Z</time>
      </trkpt>
      <trkpt lat="36.192980026826262" lon="-5.384449018165469">
        <ele>8.310000000000001</ele>
        <time>2025-05-09T08:08:09Z</time>
      </trkpt>
      <trkpt lat="36.194665040820837" lon="-5.383705962449312">
        <ele>11.67</ele>
        <time>2025-05-09T08:08:18Z</time>
      </trkpt>
      <trkpt lat="36.19712496176362" lon="-5.382655039429665">
        <ele>17.920000000000002</ele>
        <time>2025-05-09T08:08:31Z</time>
      </trkpt>
      <trkpt lat="36.19800103828311" lon="-5.382464015856385">
        <ele>22.25</ele>
        <time>2025-05-09T08:08:36Z</time>
      </trkpt>
      <trkpt lat="36.198177980259061" lon="-5.382464015856385">
        <ele>23.210000000000001</ele>
        <time>2025-05-09T08:08:37Z</time>
      </trkpt>
      <trkpt lat="36.199880009517074" lon="-5.38286198861897">
        <ele>34.740000000000002</ele>
        <time>2025-05-09T08:08:47Z</time>
      </trkpt>
      <trkpt lat="36.201987974345684" lon="-5.383464982733131">
        <ele>49.649999999999999</ele>
        <time>2025-05-09T08:08:59Z</time>
      </trkpt>
      <trkpt lat="36.203800980001688" lon="-5.383982984349132">
        <ele>62.140000000000001</ele>
        <time>2025-05-09T08:09:10Z</time>
      </trkpt>
      <trkpt lat="36.20517703704536" lon="-5.38432203233242">
        <ele>64.069999999999993</ele>
        <time>2025-05-09T08:09:20Z</time>
      </trkpt>
      <trkpt lat="36.205649022012949" lon="-5.384374000132084">
        <ele>62.140000000000001</ele>
        <time>2025-05-09T08:09:24Z</time>
      </trkpt>
      <trkpt lat="36.20577902533114" lon="-5.384360002353787">
        <ele>59.740000000000002</ele>
        <time>2025-05-09T08:09:25Z</time>
      </trkpt>
      <trkpt lat="36.2063820194453" lon="-5.384312979876995">
        <ele>50.609999999999999</ele>
        <time>2025-05-09T08:09:30Z</time>
      </trkpt>
      <trkpt lat="36.206495007500052" lon="-5.38432396017015">
        <ele>49.649999999999999</ele>
        <time>2025-05-09T08:09:31Z</time>
      </trkpt>
      <trkpt lat="36.206615958362818" lon="-5.384377017617226">
        <ele>49.159999999999997</ele>
        <time>2025-05-09T08:09:32Z</time>
      </trkpt>
      <trkpt lat="36.206707991659641" lon="-5.384467961266637">
        <ele>48.68</ele>
        <time>2025-05-09T08:09:33Z</time>
      </trkpt>
      <trkpt lat="36.206776974722743" lon="-5.38457902148366">
        <ele>48.200000000000003</ele>
        <time>2025-05-09T08:09:34Z</time>
      </trkpt>
      <trkpt lat="36.206846963614225" lon="-5.384691003710032">
        <ele>48.200000000000003</ele>
        <time>2025-05-09T08:09:35Z</time>
      </trkpt>
      <trkpt lat="36.206913013011217" lon="-5.384811032563448">
        <ele>48.200000000000003</ele>
        <time>2025-05-09T08:09:36Z</time>
      </trkpt>
      <trkpt lat="36.206952994689345" lon="-5.384940030053258">
        <ele>48.200000000000003</ele>
        <time>2025-05-09T08:09:37Z</time>
      </trkpt>
      <trkpt lat="36.206991970539093" lon="-5.385068021714687">
        <ele>48.200000000000003</ele>
        <time>2025-05-09T08:09:38Z</time>
      </trkpt>
      <trkpt lat="36.207482982426882" lon="-5.386554971337318">
        <ele>51.57</ele>
        <time>2025-05-09T08:09:49Z</time>
      </trkpt>
      <trkpt lat="36.207636035978794" lon="-5.386998960748315">
        <ele>49.649999999999999</ele>
        <time>2025-05-09T08:09:58Z</time>
      </trkpt>
      <trkpt lat="36.207933006808162" lon="-5.388185000047088">
        <ele>44.359999999999999</ele>
        <time>2025-05-09T08:10:05Z</time>
      </trkpt>
      <trkpt lat="36.207467978820205" lon="-5.39134900085628">
        <ele>36.670000000000002</ele>
        <time>2025-05-09T08:10:15Z</time>
      </trkpt>
      <trkpt lat="36.20713597163558" lon="-5.393777992576361">
        <ele>27.530000000000001</ele>
        <time>2025-05-09T08:10:27Z</time>
      </trkpt>
      <trkpt lat="36.207060031592846" lon="-5.394587013870478">
        <ele>23.690000000000001</ele>
        <time>2025-05-09T08:10:31Z</time>
      </trkpt>
      <trkpt lat="36.207061959430575" lon="-5.394787006080151">
        <ele>22.73</ele>
        <time>2025-05-09T08:10:32Z</time>
      </trkpt>
      <trkpt lat="36.207339987158775" lon="-5.397346001118422">
        <ele>13.6</ele>
        <time>2025-05-09T08:10:45Z</time>
      </trkpt>
      <trkpt lat="36.207577027380466" lon="-5.398838985711336">
        <ele>9.27</ele>
        <time>2025-05-09T08:10:59Z</time>
      </trkpt>
      <trkpt lat="36.20799302123487" lon="-5.400301963090897">
        <ele>10.23</ele>
        <time>2025-05-09T08:11:03Z</time>
      </trkpt>
      <trkpt lat="36.208010958507657" lon="-5.400362983345985">
        <ele>10.710000000000001</ele>
        <time>2025-05-09T08:11:09Z</time>
      </trkpt>
      <trkpt lat="36.208384037017822" lon="-5.400424003601074">
        <ele>10.710000000000001</ele>
        <time>2025-05-09T08:11:10Z</time>
      </trkpt>
      <trkpt lat="36.208830960094929" lon="-5.400343034416437">
        <ele>10.23</ele>
        <time>2025-05-09T08:11:13Z</time>
      </trkpt>
      <trkpt lat="36.20893900282681" lon="-5.400297017768025">
        <ele>9.75</ele>
        <time>2025-05-09T08:11:14Z</time>
      </trkpt>
      <trkpt lat="36.209031958132982" lon="-5.400248989462853">
        <ele>9.27</ele>
        <time>2025-05-09T08:11:15Z</time>
      </trkpt>
      <trkpt lat="36.209098007529974" lon="-5.400192998349667">
        <ele>8.789999999999999</ele>
        <time>2025-05-09T08:11:16Z</time>
      </trkpt>
      <trkpt lat="36.209151986986399" lon="-5.400145975872874">
        <ele>8.789999999999999</ele>
        <time>2025-05-09T08:11:17Z</time>
      </trkpt>
      <trkpt lat="36.209206972271204" lon="-5.400087973102927">
        <ele>8.310000000000001</ele>
        <time>2025-05-09T08:11:18Z</time>
      </trkpt>
      <trkpt lat="36.209267992526293" lon="-5.40000599808991">
        <ele>8.310000000000001</ele>
        <time>2025-05-09T08:11:19Z</time>
      </trkpt>
      <trkpt lat="36.209297999739647" lon="-5.399915976449847">
        <ele>7.83</ele>
        <time>2025-05-09T08:11:20Z</time>
      </trkpt>
      <trkpt lat="36.209330018609762" lon="-5.399817992001772">
        <ele>8.310000000000001</ele>
        <time>2025-05-09T08:11:21Z</time>
      </trkpt>
      <trkpt lat="36.209362959489226" lon="-5.399711038917303">
        <ele>8.310000000000001</ele>
        <time>2025-05-09T08:11:22Z</time>
      </trkpt>
      <trkpt lat="36.209580972790718" lon="-5.39891199208796">
        <ele>10.23</ele>
        <time>2025-05-09T08:11:29Z</time>
      </trkpt>
      <trkpt lat="36.209612991660833" lon="-5.398807972669601">
        <ele>10.23</ele>
        <time>2025-05-09T08:11:30Z</time>
      </trkpt>
      <trkpt lat="36.209680968895555" lon="-5.39871702902019">
        <ele>10.710000000000001</ele>
        <time>2025-05-09T08:11:31Z</time>
      </trkpt>
      <trkpt lat="36.209748024120927" lon="-5.398628013208509">
        <ele>10.710000000000001</ele>
        <time>2025-05-09T08:11:32Z</time>
      </trkpt>
      <trkpt lat="36.209810972213745" lon="-5.39854796603322">
        <ele>10.710000000000001</ele>
        <time>2025-05-09T08:11:33Z</time>
      </trkpt>
      <trkpt lat="36.209883978590369" lon="-5.398486023768783">
        <ele>11.19</ele>
        <time>2025-05-09T08:11:34Z</time>
      </trkpt>
      <trkpt lat="36.209954973310232" lon="-5.398425003513694">
        <ele>11.19</ele>
        <time>2025-05-09T08:11:35Z</time>
      </trkpt>
      <trkpt lat="36.210269965231419" lon="-5.398193998262286">
        <ele>11.67</ele>
        <time>2025-05-09T08:11:40Z</time>
      </trkpt>
      <trkpt lat="36.21027298271656" lon="-5.398191986605525">
        <ele>12.15</ele>
        <time>2025-05-09T08:11:41Z</time>
      </trkpt>
      <trkpt lat="36.210380019620061" lon="-5.398191986605525">
        <ele>12.630000000000001</ele>
        <time>2025-05-09T08:11:42Z</time>
      </trkpt>
      <trkpt lat="36.210510022938251" lon="-5.398167008534074">
        <ele>13.6</ele>
        <time>2025-05-09T08:11:44Z</time>
      </trkpt>
      <trkpt lat="36.21059400960803" lon="-5.398149993270636">
        <ele>14.08</ele>
        <time>2025-05-09T08:11:45Z</time>
      </trkpt>
      <trkpt lat="36.210681013762951" lon="-5.398131972178817">
        <ele>14.56</ele>
        <time>2025-05-09T08:11:46Z</time>
      </trkpt>
      <trkpt lat="36.210763994604349" lon="-5.398085033521056">
        <ele>15.039999999999999</ele>
        <time>2025-05-09T08:11:47Z</time>
      </trkpt>
      <trkpt lat="36.210837000980973" lon="-5.398032981902361">
        <ele>15.039999999999999</ele>
        <time>2025-05-09T08:11:48Z</time>
      </trkpt>
      <trkpt lat="36.211063982918859" lon="-5.397874983027577">
        <ele>15.52</ele>
        <time>2025-05-09T08:11:51Z</time>
      </trkpt>
      <trkpt lat="36.211660020053387" lon="-5.39714802056551">
        <ele>16</ele>
        <time>2025-05-09T08:12:00Z</time>
      </trkpt>
      <trkpt lat="36.211717016994953" lon="-5.397075014188886">
        <ele>15.52</ele>
        <time>2025-05-09T08:12:01Z</time>
      </trkpt>
      <trkpt lat="36.211804021149874" lon="-5.397050036117435">
        <ele>15.52</ele>
        <time>2025-05-09T08:12:02Z</time>
      </trkpt>
      <trkpt lat="36.211897982284427" lon="-5.397034026682377">
        <ele>15.52</ele>
        <time>2025-05-09T08:12:03Z</time>
      </trkpt>
      <trkpt lat="36.211995966732502" lon="-5.397050036117435">
        <ele>15.52</ele>
        <time>2025-05-09T08:12:04Z</time>
      </trkpt>
      <trkpt lat="36.21274002827704" lon="-5.397183978930116">
        <ele>18.399999999999999</ele>
        <time>2025-05-09T08:12:14Z</time>
      </trkpt>
      <trkpt lat="36.212775986641645" lon="-5.397250028327107">
        <ele>18.879999999999999</ele>
        <time>2025-05-09T08:12:15Z</time>
      </trkpt>
      <trkpt lat="36.212815968319774" lon="-5.397322028875351">
        <ele>18.879999999999999</ele>
        <time>2025-05-09T08:12:16Z</time>
      </trkpt>
      <trkpt lat="36.21286902576685" lon="-5.397420013323426">
        <ele>19.359999999999999</ele>
        <time>2025-05-09T08:12:17Z</time>
      </trkpt>
      <trkpt lat="36.212888974696398" lon="-5.39749201387167">
        <ele>19.359999999999999</ele>
        <time>2025-05-09T08:12:18Z</time>
      </trkpt>
      <trkpt lat="36.212916970252991" lon="-5.397592009976506">
        <ele>19.359999999999999</ele>
        <time>2025-05-09T08:12:19Z</time>
      </trkpt>
      <trkpt lat="36.212944965809584" lon="-5.397693011909723">
        <ele>18.879999999999999</ele>
        <time>2025-05-09T08:12:20Z</time>
      </trkpt>
      <trkpt lat="36.212971033528447" lon="-5.397786973044276">
        <ele>18.879999999999999</ele>
        <time>2025-05-09T08:12:21Z</time>
      </trkpt>
      <trkpt lat="36.213013026863337" lon="-5.397842964157462">
        <ele>18.399999999999999</ele>
        <time>2025-05-09T08:12:22Z</time>
      </trkpt>
      <trkpt lat="36.213147975504398" lon="-5.397977996617556">
        <ele>16.48</ele>
        <time>2025-05-09T08:12:25Z</time>
      </trkpt>
      <trkpt lat="36.21323699131608" lon="-5.397984031587839">
        <ele>16</ele>
        <time>2025-05-09T08:12:26Z</time>
      </trkpt>
      <trkpt lat="36.213320977985859" lon="-5.397989982739091">
        <ele>14.56</ele>
        <time>2025-05-09T08:12:27Z</time>
      </trkpt>
      <trkpt lat="36.213447963818908" lon="-5.397999035194516">
        <ele>13.119999999999999</ele>
        <time>2025-05-09T08:12:28Z</time>
      </trkpt>
      <trkpt lat="36.213491968810558" lon="-5.397971039637923">
        <ele>11.19</ele>
        <time>2025-05-09T08:12:29Z</time>
      </trkpt>
      <trkpt lat="36.213570004329085" lon="-5.397917982190847">
        <ele>9.75</ele>
        <time>2025-05-09T08:12:30Z</time>
      </trkpt>
      <trkpt lat="36.213633036240935" lon="-5.397846987470985">
        <ele>8.310000000000001</ele>
        <time>2025-05-09T08:12:31Z</time>
      </trkpt>
      <trkpt lat="36.213686009868979" lon="-5.397783033549786">
        <ele>6.87</ele>
        <time>2025-05-09T08:12:32Z</time>
      </trkpt>
      <trkpt lat="36.213806038722396" lon="-5.397639032453299">
        <ele>2.54</ele>
        <time>2025-05-09T08:12:35Z</time>
      </trkpt>
      <trkpt lat="36.213898994028568" lon="-5.397526966407895">
        <ele>0.14</ele>
        <time>2025-05-09T08:12:37Z</time>
      </trkpt>
      <trkpt lat="36.214037965983152" lon="-5.397408027201891">
        <ele>-1.79</ele>
        <time>2025-05-09T08:12:39Z</time>
      </trkpt>
      <trkpt lat="36.214113989844918" lon="-5.39734298363328">
        <ele>-2.75</ele>
        <time>2025-05-09T08:12:40Z</time>
      </trkpt>
      <trkpt lat="36.21426603756845" lon="-5.397195965051651">
        <ele>-4.67</ele>
        <time>2025-05-09T08:12:42Z</time>
      </trkpt>
      <trkpt lat="36.214334014803171" lon="-5.397120025008917">
        <ele>-5.15</ele>
        <time>2025-05-09T08:12:43Z</time>
      </trkpt>
      <trkpt lat="36.214393023401499" lon="-5.397054981440306">
        <ele>-6.11</ele>
        <time>2025-05-09T08:12:44Z</time>
      </trkpt>
      <trkpt lat="36.214484972879291" lon="-5.397035032510757">
        <ele>-6.11</ele>
        <time>2025-05-09T08:12:45Z</time>
      </trkpt>
      <trkpt lat="36.214585974812508" lon="-5.397011982277036">
        <ele>-6.11</ele>
        <time>2025-05-09T08:12:46Z</time>
      </trkpt>
      <trkpt lat="36.21467599645257" lon="-5.397065039724112">
        <ele>-5.63</ele>
        <time>2025-05-09T08:12:47Z</time>
      </trkpt>
      <trkpt lat="36.214766018092632" lon="-5.397117007523775">
        <ele>-5.63</ele>
        <time>2025-05-09T08:12:48Z</time>
      </trkpt>
      <trkpt lat="36.215484011918306" lon="-5.397426970303059">
        <ele>-5.15</ele>
        <time>2025-05-09T08:12:55Z</time>
      </trkpt>
      <trkpt lat="36.215586019679904" lon="-5.397435016930103">
        <ele>-5.15</ele>
        <time>2025-05-09T08:12:56Z</time>
      </trkpt>
      <trkpt lat="36.215675035491586" lon="-5.397438034415245">
        <ele>-5.15</ele>
        <time>2025-05-09T08:12:57Z</time>
      </trkpt>
      <trkpt lat="36.216579023748636" lon="-5.397046012803912">
        <ele>-0.34</ele>
        <time>2025-05-09T08:13:07Z</time>
      </trkpt>
      <trkpt lat="36.21718998067081" lon="-5.396470008417964">
        <ele>6.39</ele>
        <time>2025-05-09T08:13:15Z</time>
      </trkpt>
      <trkpt lat="36.21723398566246" lon="-5.396380992606282">
        <ele>6.87</ele>
        <time>2025-05-09T08:13:16Z</time>
      </trkpt>
      <trkpt lat="36.217535985633731" lon="-5.395755032077432">
        <ele>13.119999999999999</ele>
        <time>2025-05-09T08:13:23Z</time>
      </trkpt>
      <trkpt lat="36.217570016160607" lon="-5.395696023479104">
        <ele>14.08</ele>
        <time>2025-05-09T08:13:24Z</time>
      </trkpt>
      <trkpt lat="36.217596000060439" lon="-5.395652018487454">
        <ele>14.56</ele>
        <time>2025-05-09T08:13:25Z</time>
      </trkpt>
      <trkpt lat="36.2176170386374" lon="-5.395616982132196">
        <ele>15.52</ele>
        <time>2025-05-09T08:13:26Z</time>
      </trkpt>
      <trkpt lat="36.217636987566948" lon="-5.395582029595971">
        <ele>16</ele>
        <time>2025-05-09T08:13:27Z</time>
      </trkpt>
      <trkpt lat="36.217654002830386" lon="-5.395440040156245">
        <ele>17.440000000000001</ele>
        <time>2025-05-09T08:13:29Z</time>
      </trkpt>
      <trkpt lat="36.217654002830386" lon="-5.395367033779621">
        <ele>18.399999999999999</ele>
        <time>2025-05-09T08:13:30Z</time>
      </trkpt>
      <trkpt lat="36.217644028365612" lon="-5.395288998261094">
        <ele>18.879999999999999</ele>
        <time>2025-05-09T08:13:31Z</time>
      </trkpt>
      <trkpt lat="36.217632964253426" lon="-5.395210962742567">
        <ele>19.359999999999999</ele>
        <time>2025-05-09T08:13:32Z</time>
      </trkpt>
      <trkpt lat="36.21761997230351" lon="-5.395123036578298">
        <ele>20.32</ele>
        <time>2025-05-09T08:13:33Z</time>
      </trkpt>
      <trkpt lat="36.217400031164289" lon="-5.394075969234109">
        <ele>22.25</ele>
        <time>2025-05-09T08:13:43Z</time>
      </trkpt>
      <trkpt lat="36.217181012034416" lon="-5.393299972638488">
        <ele>22.25</ele>
        <time>2025-05-09T08:13:51Z</time>
      </trkpt>
      <trkpt lat="36.217139018699527" lon="-5.393203999847174">
        <ele>22.25</ele>
        <time>2025-05-09T08:13:52Z</time>
      </trkpt>
      <trkpt lat="36.216567037627101" lon="-5.392428003251553">
        <ele>19.84</ele>
        <time>2025-05-09T08:14:01Z</time>
      </trkpt>
      <trkpt lat="36.216392023488879" lon="-5.392252989113331">
        <ele>17.920000000000002</ele>
        <time>2025-05-09T08:14:09Z</time>
      </trkpt>
      <trkpt lat="36.216392023488879" lon="-5.392252989113331">
        <ele>17.920000000000002</ele>
        <time>2025-05-09T08:14:30Z</time>
      </trkpt>
      <trkpt lat="36.216392023488879" lon="-5.392252989113331">
        <ele>17.920000000000002</ele>
        <time>2025-05-09T08:16:34Z</time>
      </trkpt>
      <trkpt lat="36.216392023488879" lon="-5.392252989113331">
        <ele>18.879999999999999</ele>
        <time>2025-05-09T08:17:21Z</time>
      </trkpt>
      <trkpt lat="36.216378025710583" lon="-5.392230022698641">
        <ele>20.32</ele>
        <time>2025-05-09T08:17:22Z</time>
      </trkpt>
      <trkpt lat="36.216388000175357" lon="-5.392248965799809">
        <ele>20.809999999999999</ele>
        <time>2025-05-09T08:17:24Z</time>
      </trkpt>
      <trkpt lat="36.216398980468512" lon="-5.392260029911995">
        <ele>21.289999999999999</ele>
        <time>2025-05-09T08:17:25Z</time>
      </trkpt>
      <trkpt lat="36.216435022652149" lon="-5.39229498244822">
        <ele>21.289999999999999</ele>
        <time>2025-05-09T08:17:26Z</time>
      </trkpt>
      <trkpt lat="36.216855039820075" lon="-5.392779037356377">
        <ele>21.289999999999999</ele>
        <time>2025-05-09T08:17:32Z</time>
      </trkpt>
      <trkpt lat="36.217268016189337" lon="-5.39353801868856">
        <ele>22.25</ele>
        <time>2025-05-09T08:17:37Z</time>
      </trkpt>
      <trkpt lat="36.217314032837749" lon="-5.393727030605078">
        <ele>22.73</ele>
        <time>2025-05-09T08:17:38Z</time>
      </trkpt>
      <trkpt lat="36.21736197732389" lon="-5.393924005329609">
        <ele>22.73</ele>
        <time>2025-05-09T08:17:39Z</time>
      </trkpt>
      <trkpt lat="36.217654002830386" lon="-5.395553028210998">
        <ele>24.170000000000002</ele>
        <time>2025-05-09T08:17:48Z</time>
      </trkpt>
      <trkpt lat="36.217752993106842" lon="-5.396039010956883">
        <ele>24.649999999999999</ele>
        <time>2025-05-09T08:17:51Z</time>
      </trkpt>
      <trkpt lat="36.217803033068776" lon="-5.396205978468061">
        <ele>24.649999999999999</ele>
        <time>2025-05-09T08:17:52Z</time>
      </trkpt>
      <trkpt lat="36.217873021960258" lon="-5.396336987614632">
        <ele>24.649999999999999</ele>
        <time>2025-05-09T08:17:53Z</time>
      </trkpt>
      <trkpt lat="36.217972012236714" lon="-5.396449975669384">
        <ele>24.170000000000002</ele>
        <time>2025-05-09T08:17:54Z</time>
      </trkpt>
      <trkpt lat="36.218066979199648" lon="-5.396558018401265">
        <ele>23.690000000000001</ele>
        <time>2025-05-09T08:17:55Z</time>
      </trkpt>
      <trkpt lat="36.218168986961246" lon="-5.396643010899425">
        <ele>23.210000000000001</ele>
        <time>2025-05-09T08:17:56Z</time>
      </trkpt>
      <trkpt lat="36.218304019421339" lon="-5.396693972870708">
        <ele>22.25</ele>
        <time>2025-05-09T08:17:57Z</time>
      </trkpt>
      <trkpt lat="36.218442991375923" lon="-5.396735966205597">
        <ele>21.289999999999999</ele>
        <time>2025-05-09T08:17:58Z</time>
      </trkpt>
      <trkpt lat="36.218582969158888" lon="-5.396745018661022">
        <ele>20.32</ele>
        <time>2025-05-09T08:17:59Z</time>
      </trkpt>
      <trkpt lat="36.218722024932504" lon="-5.396753987297416">
        <ele>19.359999999999999</ele>
        <time>2025-05-09T08:18:00Z</time>
      </trkpt>
      <trkpt lat="36.218855967745185" lon="-5.396703025326133">
        <ele>18.399999999999999</ele>
        <time>2025-05-09T08:18:01Z</time>
      </trkpt>
      <trkpt lat="36.218995023518801" lon="-5.396648040041328">
        <ele>17.440000000000001</ele>
        <time>2025-05-09T08:18:02Z</time>
      </trkpt>
      <trkpt lat="36.219135001301765" lon="-5.39659196510911">
        <ele>16.48</ele>
        <time>2025-05-09T08:18:03Z</time>
      </trkpt>
      <trkpt lat="36.21989700011909" lon="-5.396212013438344">
        <ele>12.15</ele>
        <time>2025-05-09T08:18:10Z</time>
      </trkpt>
      <trkpt lat="36.220215009525418" lon="-5.396041022613645">
        <ele>9.27</ele>
        <time>2025-05-09T08:18:17Z</time>
      </trkpt>
      <trkpt lat="36.220832001417875" lon="-5.39570901542902">
        <ele>8.789999999999999</ele>
        <time>2025-05-09T08:18:23Z</time>
      </trkpt>
      <trkpt lat="36.222211997956038" lon="-5.395014993846417">
        <ele>11.67</ele>
        <time>2025-05-09T08:18:32Z</time>
      </trkpt>
      <trkpt lat="36.222541993483901" lon="-5.394922960549593">
        <ele>12.15</ele>
        <time>2025-05-09T08:18:34Z</time>
      </trkpt>
      <trkpt lat="36.222700998187065" lon="-5.394913991913199">
        <ele>13.119999999999999</ele>
        <time>2025-05-09T08:18:35Z</time>
      </trkpt>
      <trkpt lat="36.22286201454699" lon="-5.394920026883483">
        <ele>13.6</ele>
        <time>2025-05-09T08:18:36Z</time>
      </trkpt>
      <trkpt lat="36.223201984539628" lon="-5.394975012168288">
        <ele>13.6</ele>
        <time>2025-05-09T08:18:38Z</time>
      </trkpt>
      <trkpt lat="36.223346991464496" lon="-5.395060004666448">
        <ele>13.6</ele>
        <time>2025-05-09T08:18:39Z</time>
      </trkpt>
      <trkpt lat="36.223482023924589" lon="-5.395173998549581">
        <ele>13.6</ele>
        <time>2025-05-09T08:18:40Z</time>
      </trkpt>
      <trkpt lat="36.223997008055449" lon="-5.395658975467086">
        <ele>13.119999999999999</ele>
        <time>2025-05-09T08:18:44Z</time>
      </trkpt>
      <trkpt lat="36.225170977413654" lon="-5.396576039493084">
        <ele>10.23</ele>
        <time>2025-05-09T08:18:52Z</time>
      </trkpt>
      <trkpt lat="36.226409990340471" lon="-5.397466029971838">
        <ele>10.23</ele>
        <time>2025-05-09T08:19:00Z</time>
      </trkpt>
      <trkpt lat="36.226561032235622" lon="-5.397530989721417">
        <ele>10.23</ele>
        <time>2025-05-09T08:19:01Z</time>
      </trkpt>
      <trkpt lat="36.226895973086357" lon="-5.397559991106391">
        <ele>10.710000000000001</ele>
        <time>2025-05-09T08:19:03Z</time>
      </trkpt>
      <trkpt lat="36.227900963276625" lon="-5.397639032453299">
        <ele>12.15</ele>
        <time>2025-05-09T08:19:10Z</time>
      </trkpt>
      <trkpt lat="36.228978959843516" lon="-5.397741962224245">
        <ele>14.56</ele>
        <time>2025-05-09T08:19:18Z</time>
      </trkpt>
      <trkpt lat="36.229420015588403" lon="-5.397819997742772">
        <ele>15.039999999999999</ele>
        <time>2025-05-09T08:19:21Z</time>
      </trkpt>
      <trkpt lat="36.229559993371367" lon="-5.397855034098029">
        <ele>16</ele>
        <time>2025-05-09T08:19:22Z</time>
      </trkpt>
      <trkpt lat="36.230476973578334" lon="-5.398097019642592">
        <ele>17.440000000000001</ele>
        <time>2025-05-09T08:19:29Z</time>
      </trkpt>
      <trkpt lat="36.230609994381666" lon="-5.398141024634242">
        <ele>16.960000000000001</ele>
        <time>2025-05-09T08:19:30Z</time>
      </trkpt>
      <trkpt lat="36.231368975713849" lon="-5.398432966321707">
        <ele>15.039999999999999</ele>
        <time>2025-05-09T08:19:36Z</time>
      </trkpt>
      <trkpt lat="36.231468971818686" lon="-5.398503039032221">
        <ele>14.56</ele>
        <time>2025-05-09T08:19:37Z</time>
      </trkpt>
      <trkpt lat="36.231558993458748" lon="-5.398592976853252">
        <ele>14.08</ele>
        <time>2025-05-09T08:19:38Z</time>
      </trkpt>
      <trkpt lat="36.231644991785288" lon="-5.398707976564765">
        <ele>13.119999999999999</ele>
        <time>2025-05-09T08:19:39Z</time>
      </trkpt>
      <trkpt lat="36.23173501342535" lon="-5.398828005418181">
        <ele>12.630000000000001</ele>
        <time>2025-05-09T08:19:40Z</time>
      </trkpt>
      <trkpt lat="36.231810031458735" lon="-5.39897401817143">
        <ele>12.15</ele>
        <time>2025-05-09T08:19:41Z</time>
      </trkpt>
      <trkpt lat="36.231866022571921" lon="-5.399120030924678">
        <ele>11.19</ele>
        <time>2025-05-09T08:19:42Z</time>
      </trkpt>
      <trkpt lat="36.231917990371585" lon="-5.399262020364404">
        <ele>10.710000000000001</ele>
        <time>2025-05-09T08:19:43Z</time>
      </trkpt>
      <trkpt lat="36.231968030333519" lon="-5.399399986490607">
        <ele>10.23</ele>
        <time>2025-05-09T08:19:44Z</time>
      </trkpt>
      <trkpt lat="36.232129968702793" lon="-5.400061989203095">
        <ele>9.75</ele>
        <time>2025-05-09T08:19:49Z</time>
      </trkpt>
      <trkpt lat="36.232108008116484" lon="-5.400204984471202">
        <ele>9.75</ele>
        <time>2025-05-09T08:19:50Z</time>
      </trkpt>
      <trkpt lat="36.232051011174917" lon="-5.400318978354335">
        <ele>10.23</ele>
        <time>2025-05-09T08:19:51Z</time>
      </trkpt>
      <trkpt lat="36.231980016455054" lon="-5.400433978065848">
        <ele>10.710000000000001</ele>
        <time>2025-05-09T08:19:52Z</time>
      </trkpt>
      <trkpt lat="36.23188697732985" lon="-5.400533974170685">
        <ele>11.67</ele>
        <time>2025-05-09T08:19:53Z</time>
      </trkpt>
      <trkpt lat="36.231783963739872" lon="-5.400644028559327">
        <ele>13.119999999999999</ele>
        <time>2025-05-09T08:19:54Z</time>
      </trkpt>
      <trkpt lat="36.231256993487477" lon="-5.401154989376664">
        <ele>17.440000000000001</ele>
        <time>2025-05-09T08:19:59Z</time>
      </trkpt>
      <trkpt lat="36.231183987110853" lon="-5.401270994916558">
        <ele>18.399999999999999</ele>
        <time>2025-05-09T08:20:00Z</time>
      </trkpt>
      <trkpt lat="36.231107963249087" lon="-5.401390017941594">
        <ele>19.359999999999999</ele>
        <time>2025-05-09T08:20:01Z</time>
      </trkpt>
      <trkpt lat="36.231091031804681" lon="-5.401524966582656">
        <ele>20.32</ele>
        <time>2025-05-09T08:20:02Z</time>
      </trkpt>
      <trkpt lat="36.231072004884481" lon="-5.401676008477807">
        <ele>21.289999999999999</ele>
        <time>2025-05-09T08:20:03Z</time>
      </trkpt>
      <trkpt lat="36.231052977964282" lon="-5.401835013180971">
        <ele>21.77</ele>
        <time>2025-05-09T08:20:04Z</time>
      </trkpt>
      <trkpt lat="36.231072004884481" lon="-5.401998963207007">
        <ele>22.73</ele>
        <time>2025-05-09T08:20:05Z</time>
      </trkpt>
      <trkpt lat="36.231115004047751" lon="-5.402146987617016">
        <ele>23.690000000000001</ele>
        <time>2025-05-09T08:20:06Z</time>
      </trkpt>
      <trkpt lat="36.231174012646079" lon="-5.402291994541884">
        <ele>24.170000000000002</ele>
        <time>2025-05-09T08:20:07Z</time>
      </trkpt>
      <trkpt lat="36.231274008750916" lon="-5.402386039495468">
        <ele>25.129999999999999</ele>
        <time>2025-05-09T08:20:08Z</time>
      </trkpt>
      <trkpt lat="36.231381967663765" lon="-5.402488969266415">
        <ele>26.57</ele>
        <time>2025-05-09T08:20:09Z</time>
      </trkpt>
      <trkpt lat="36.231719003990293" lon="-5.40282198227942">
        <ele>28.98</ele>
        <time>2025-05-09T08:20:12Z</time>
      </trkpt>
      <trkpt lat="36.231989990919828" lon="-5.403113001957536">
        <ele>31.859999999999999</ele>
        <time>2025-05-09T08:20:15Z</time>
      </trkpt>
      <trkpt lat="36.232023015618324" lon="-5.40323001332581">
        <ele>32.340000000000003</ele>
        <time>2025-05-09T08:20:16Z</time>
      </trkpt>
      <trkpt lat="36.232030978426337" lon="-5.403336966410279">
        <ele>32.82</ele>
        <time>2025-05-09T08:20:17Z</time>
      </trkpt>
      <trkpt lat="36.23199200257659" lon="-5.403432017192245">
        <ele>33.780000000000001</ele>
        <time>2025-05-09T08:20:18Z</time>
      </trkpt>
      <trkpt lat="36.23190701007843" lon="-5.403489014133811">
        <ele>34.740000000000002</ele>
        <time>2025-05-09T08:20:19Z</time>
      </trkpt>
      <trkpt lat="36.231794022023678" lon="-5.403538970276713">
        <ele>35.229999999999997</ele>
        <time>2025-05-09T08:20:20Z</time>
      </trkpt>
      <trkpt lat="36.231657983735204" lon="-5.403551962226629">
        <ele>36.189999999999998</ele>
        <time>2025-05-09T08:20:21Z</time>
      </trkpt>
      <trkpt lat="36.231509959325194" lon="-5.403565037995577">
        <ele>36.670000000000002</ele>
        <time>2025-05-09T08:20:22Z</time>
      </trkpt>
      <trkpt lat="36.231225980445743" lon="-5.403591021895409">
        <ele>38.590000000000003</ele>
        <time>2025-05-09T08:20:24Z</time>
      </trkpt>
      <trkpt lat="36.231104023754597" lon="-5.403624968603253">
        <ele>39.549999999999997</ele>
        <time>2025-05-09T08:20:25Z</time>
      </trkpt>
      <trkpt lat="36.231016013771296" lon="-5.403713984414935">
        <ele>40.509999999999998</ele>
        <time>2025-05-09T08:20:26Z</time>
      </trkpt>
      <trkpt lat="36.230943007394671" lon="-5.403813980519772">
        <ele>41.950000000000003</ele>
        <time>2025-05-09T08:20:27Z</time>
      </trkpt>
      <trkpt lat="36.230885004624724" lon="-5.4039609991014">
        <ele>42.920000000000002</ele>
        <time>2025-05-09T08:20:28Z</time>
      </trkpt>
      <trkpt lat="36.230858014896512" lon="-5.404138024896383">
        <ele>43.880000000000003</ele>
        <time>2025-05-09T08:20:29Z</time>
      </trkpt>
      <trkpt lat="36.230715019628406" lon="-5.404928019270301">
        <ele>48.68</ele>
        <time>2025-05-09T08:20:33Z</time>
      </trkpt>
      <trkpt lat="36.230661040171981" lon="-5.405113007873297">
        <ele>50.130000000000003</ele>
        <time>2025-05-09T08:20:34Z</time>
      </trkpt>
      <trkpt lat="36.230556014925241" lon="-5.405263965949416">
        <ele>52.049999999999997</ele>
        <time>2025-05-09T08:20:35Z</time>
      </trkpt>
      <trkpt lat="36.229456979781389" lon="-5.406609009951353">
        <ele>68.390000000000001</ele>
        <time>2025-05-09T08:20:44Z</time>
      </trkpt>
      <trkpt lat="36.228553997352719" lon="-5.407853974029422">
        <ele>75.599999999999994</ele>
        <time>2025-05-09T08:20:51Z</time>
      </trkpt>
      <trkpt lat="36.227747993543744" lon="-5.409079995006323">
        <ele>72.719999999999999</ele>
        <time>2025-05-09T08:20:58Z</time>
      </trkpt>
      <trkpt lat="36.227703988552094" lon="-5.409268001094461">
        <ele>72.239999999999995</ele>
        <time>2025-05-09T08:20:59Z</time>
      </trkpt>
      <trkpt lat="36.227703988552094" lon="-5.409424994140863">
        <ele>71.760000000000005</ele>
        <time>2025-05-09T08:21:00Z</time>
      </trkpt>
      <trkpt lat="36.227713963016868" lon="-5.409579975530505">
        <ele>71.269999999999996</ele>
        <time>2025-05-09T08:21:01Z</time>
      </trkpt>
      <trkpt lat="36.227729972451925" lon="-5.409757001325488">
        <ele>70.790000000000006</ele>
        <time>2025-05-09T08:21:02Z</time>
      </trkpt>
      <trkpt lat="36.227859975770116" lon="-5.411251997575164">
        <ele>66.950000000000003</ele>
        <time>2025-05-09T08:21:09Z</time>
      </trkpt>
      <trkpt lat="36.227853018790483" lon="-5.411868989467621">
        <ele>65.510000000000005</ele>
        <time>2025-05-09T08:21:12Z</time>
      </trkpt>
      <trkpt lat="36.227839021012187" lon="-5.412064958363771">
        <ele>65.030000000000001</ele>
        <time>2025-05-09T08:21:13Z</time>
      </trkpt>
      <trkpt lat="36.227826029062271" lon="-5.412236033007503">
        <ele>64.069999999999993</ele>
        <time>2025-05-09T08:21:14Z</time>
      </trkpt>
      <trkpt lat="36.227778000757098" lon="-5.412358995527029">
        <ele>63.579999999999998</ele>
        <time>2025-05-09T08:21:15Z</time>
      </trkpt>
      <trkpt lat="36.22771798633039" lon="-5.412505008280277">
        <ele>63.579999999999998</ele>
        <time>2025-05-09T08:21:16Z</time>
      </trkpt>
      <trkpt lat="36.227630982175469" lon="-5.412643980234861">
        <ele>63.100000000000001</ele>
        <time>2025-05-09T08:21:17Z</time>
      </trkpt>
      <trkpt lat="36.227534003555775" lon="-5.412799967452884">
        <ele>62.619999999999997</ele>
        <time>2025-05-09T08:21:18Z</time>
      </trkpt>
      <trkpt lat="36.227429984137416" lon="-5.412965007126331">
        <ele>62.140000000000001</ele>
        <time>2025-05-09T08:21:19Z</time>
      </trkpt>
      <trkpt lat="36.227147011086345" lon="-5.413457024842501">
        <ele>60.700000000000003</ele>
        <time>2025-05-09T08:21:22Z</time>
      </trkpt>
      <trkpt lat="36.227076016366482" lon="-5.41364997625351">
        <ele>60.219999999999999</ele>
        <time>2025-05-09T08:21:23Z</time>
      </trkpt>
      <trkpt lat="36.227011978626251" lon="-5.413853991776705">
        <ele>59.740000000000002</ele>
        <time>2025-05-09T08:21:24Z</time>
      </trkpt>
      <trkpt lat="36.226915000006557" lon="-5.414269985631108">
        <ele>58.299999999999997</ele>
        <time>2025-05-09T08:21:26Z</time>
      </trkpt>
      <trkpt lat="36.226853979751468" lon="-5.414471989497542">
        <ele>57.82</ele>
        <time>2025-05-09T08:21:27Z</time>
      </trkpt>
      <trkpt lat="36.226765969768167" lon="-5.414661001414061">
        <ele>57.340000000000003</ele>
        <time>2025-05-09T08:21:28Z</time>
      </trkpt>
      <trkpt lat="36.225916966795921" lon="-5.416479036211968">
        <ele>52.530000000000001</ele>
        <time>2025-05-09T08:21:37Z</time>
      </trkpt>
      <trkpt lat="36.225834991782904" lon="-5.416652038693428">
        <ele>52.049999999999997</ele>
        <time>2025-05-09T08:21:38Z</time>
      </trkpt>
      <trkpt lat="36.225800961256027" lon="-5.416841972619295">
        <ele>51.090000000000003</ele>
        <time>2025-05-09T08:21:39Z</time>
      </trkpt>
      <trkpt lat="36.225789980962873" lon="-5.417030984535813">
        <ele>50.609999999999999</ele>
        <time>2025-05-09T08:21:40Z</time>
      </trkpt>
      <trkpt lat="36.225786963477731" lon="-5.417207004502416">
        <ele>50.130000000000003</ele>
        <time>2025-05-09T08:21:41Z</time>
      </trkpt>
      <trkpt lat="36.225786963477731" lon="-5.41738897562027">
        <ele>49.649999999999999</ele>
        <time>2025-05-09T08:21:42Z</time>
      </trkpt>
      <trkpt lat="36.225840020924807" lon="-5.418879026547074">
        <ele>49.159999999999997</ele>
        <time>2025-05-09T08:21:50Z</time>
      </trkpt>
      <trkpt lat="36.225814037024975" lon="-5.419069966301322">
        <ele>49.159999999999997</ele>
        <time>2025-05-09T08:21:51Z</time>
      </trkpt>
      <trkpt lat="36.22561002150178" lon="-5.420041009783745">
        <ele>46.280000000000001</ele>
        <time>2025-05-09T08:21:56Z</time>
      </trkpt>
      <trkpt lat="36.225598035380244" lon="-5.420205965638161">
        <ele>45.799999999999997</ele>
        <time>2025-05-09T08:21:57Z</time>
      </trkpt>
      <trkpt lat="36.22561002150178" lon="-5.420329011976719">
        <ele>44.840000000000003</ele>
        <time>2025-05-09T08:21:58Z</time>
      </trkpt>
      <trkpt lat="36.225643968209624" lon="-5.420419033616781">
        <ele>44.840000000000003</ele>
        <time>2025-05-09T08:21:59Z</time>
      </trkpt>
      <trkpt lat="36.225702976807952" lon="-5.420500002801418">
        <ele>44.359999999999999</ele>
        <time>2025-05-09T08:22:00Z</time>
      </trkpt>
      <trkpt lat="36.225773971527815" lon="-5.420596981421113">
        <ele>44.359999999999999</ele>
        <time>2025-05-09T08:22:01Z</time>
      </trkpt>
      <trkpt lat="36.225852007046342" lon="-5.420709969475865">
        <ele>44.359999999999999</ele>
        <time>2025-05-09T08:22:02Z</time>
      </trkpt>
      <trkpt lat="36.225876985117793" lon="-5.420872997492552">
        <ele>43.880000000000003</ele>
        <time>2025-05-09T08:22:03Z</time>
      </trkpt>
      <trkpt lat="36.225905986502767" lon="-5.421057986095548">
        <ele>42.920000000000002</ele>
        <time>2025-05-09T08:22:04Z</time>
      </trkpt>
      <trkpt lat="36.226001037284732" lon="-5.422439994290471">
        <ele>36.189999999999998</ele>
        <time>2025-05-09T08:22:11Z</time>
      </trkpt>
      <trkpt lat="36.22647101059556" lon="-5.423784032464027">
        <ele>32.82</ele>
        <time>2025-05-09T08:22:18Z</time>
      </trkpt>
      <trkpt lat="36.226813998073339" lon="-5.424656001850963">
        <ele>31.859999999999999</ele>
        <time>2025-05-09T08:22:24Z</time>
      </trkpt>
      <trkpt lat="36.226893039420247" lon="-5.424768989905715">
        <ele>31.859999999999999</ele>
        <time>2025-05-09T08:22:25Z</time>
      </trkpt>
      <trkpt lat="36.227479018270969" lon="-5.425354968756437">
        <ele>30.899999999999999</ele>
        <time>2025-05-09T08:22:31Z</time>
      </trkpt>
      <trkpt lat="36.227532997727394" lon="-5.425459994003177">
        <ele>30.420000000000002</ele>
        <time>2025-05-09T08:22:32Z</time>
      </trkpt>
      <trkpt lat="36.227564010769129" lon="-5.425591003149748">
        <ele>29.940000000000001</ele>
        <time>2025-05-09T08:22:33Z</time>
      </trkpt>
      <trkpt lat="36.227549007162452" lon="-5.425740033388138">
        <ele>29.940000000000001</ele>
        <time>2025-05-09T08:22:34Z</time>
      </trkpt>
      <trkpt lat="36.227520005777478" lon="-5.425905995070934">
        <ele>29.460000000000001</ele>
        <time>2025-05-09T08:22:35Z</time>
      </trkpt>
      <trkpt lat="36.227485975250602" lon="-5.426085032522678">
        <ele>28.98</ele>
        <time>2025-05-09T08:22:36Z</time>
      </trkpt>
      <trkpt lat="36.227212976664305" lon="-5.427437033504248">
        <ele>23.210000000000001</ele>
        <time>2025-05-09T08:22:43Z</time>
      </trkpt>
      <trkpt lat="36.227169977501035" lon="-5.427625039592385">
        <ele>22.25</ele>
        <time>2025-05-09T08:22:44Z</time>
      </trkpt>
      <trkpt lat="36.226840987801552" lon="-5.429209973663092">
        <ele>17.440000000000001</ele>
        <time>2025-05-09T08:22:52Z</time>
      </trkpt>
      <trkpt lat="36.226764963939786" lon="-5.429513985291123">
        <ele>17.440000000000001</ele>
        <time>2025-05-09T08:22:54Z</time>
      </trkpt>
      <trkpt lat="36.226700004190207" lon="-5.429653963074088">
        <ele>17.440000000000001</ele>
        <time>2025-05-09T08:22:55Z</time>
      </trkpt>
      <trkpt lat="36.226623980328441" lon="-5.429784972220659">
        <ele>17.440000000000001</ele>
        <time>2025-05-09T08:22:56Z</time>
      </trkpt>
      <trkpt lat="36.226377971470356" lon="-5.430207001045346">
        <ele>17.920000000000002</ele>
        <time>2025-05-09T08:22:59Z</time>
      </trkpt>
      <trkpt lat="36.226344024762511" lon="-5.43032300658524">
        <ele>18.399999999999999</ele>
        <time>2025-05-09T08:23:00Z</time>
      </trkpt>
      <trkpt lat="36.226326003670692" lon="-5.430400958284736">
        <ele>17.920000000000002</ele>
        <time>2025-05-09T08:23:01Z</time>
      </trkpt>
      <trkpt lat="36.226305970922112" lon="-5.430483017116785">
        <ele>17.920000000000002</ele>
        <time>2025-05-09T08:23:03Z</time>
      </trkpt>
      <trkpt lat="36.226305970922112" lon="-5.430483017116785">
        <ele>17.920000000000002</ele>
        <time>2025-05-09T08:23:14Z</time>
      </trkpt>
      <trkpt lat="36.226305970922112" lon="-5.430483017116785">
        <ele>17.920000000000002</ele>
        <time>2025-05-09T08:23:19Z</time>
      </trkpt>
      <trkpt lat="36.226331032812595" lon="-5.43060002848506">
        <ele>18.399999999999999</ele>
        <time>2025-05-09T08:23:20Z</time>
      </trkpt>
      <trkpt lat="36.226375959813595" lon="-5.430604973807931">
        <ele>18.879999999999999</ele>
        <time>2025-05-09T08:23:21Z</time>
      </trkpt>
      <trkpt lat="36.226451983675361" lon="-5.430615032091737">
        <ele>18.879999999999999</ele>
        <time>2025-05-09T08:23:22Z</time>
      </trkpt>
      <trkpt lat="36.226523984223604" lon="-5.430635986849666">
        <ele>19.359999999999999</ele>
        <time>2025-05-09T08:23:23Z</time>
      </trkpt>
      <trkpt lat="36.226694975048304" lon="-5.430688038468361">
        <ele>19.359999999999999</ele>
        <time>2025-05-09T08:23:25Z</time>
      </trkpt>
      <trkpt lat="36.226770998910069" lon="-5.430711004883051">
        <ele>19.84</ele>
        <time>2025-05-09T08:23:26Z</time>
      </trkpt>
      <trkpt lat="36.226932015269995" lon="-5.430663982406259">
        <ele>20.32</ele>
        <time>2025-05-09T08:23:27Z</time>
      </trkpt>
      <trkpt lat="36.227064030244946" lon="-5.430487962439656">
        <ele>21.289999999999999</ele>
        <time>2025-05-09T08:23:29Z</time>
      </trkpt>
      <trkpt lat="36.227171989157796" lon="-5.43045200407505">
        <ele>21.77</ele>
        <time>2025-05-09T08:23:30Z</time>
      </trkpt>
      <trkpt lat="36.227266034111381" lon="-5.43047497048974">
        <ele>21.77</ele>
        <time>2025-05-09T08:23:31Z</time>
      </trkpt>
      <trkpt lat="36.227355971932411" lon="-5.430531967431307">
        <ele>22.25</ele>
        <time>2025-05-09T08:23:32Z</time>
      </trkpt>
      <trkpt lat="36.227440964430571" lon="-5.43062299489975">
        <ele>21.77</ele>
        <time>2025-05-09T08:23:33Z</time>
      </trkpt>
      <trkpt lat="36.227465020492673" lon="-5.430733971297741">
        <ele>21.289999999999999</ele>
        <time>2025-05-09T08:23:34Z</time>
      </trkpt>
      <trkpt lat="36.227474994957447" lon="-5.430863974615932">
        <ele>21.289999999999999</ele>
        <time>2025-05-09T08:23:35Z</time>
      </trkpt>
      <trkpt lat="36.227451022714376" lon="-5.430999007076025">
        <ele>21.289999999999999</ele>
        <time>2025-05-09T08:23:36Z</time>
      </trkpt>
      <trkpt lat="36.227396037429571" lon="-5.431108977645636">
        <ele>21.289999999999999</ele>
        <time>2025-05-09T08:23:37Z</time>
      </trkpt>
      <trkpt lat="36.227280031889677" lon="-5.431191036477685">
        <ele>20.809999999999999</ele>
        <time>2025-05-09T08:23:38Z</time>
      </trkpt>
      <trkpt lat="36.227192021906376" lon="-5.431306958198547">
        <ele>20.809999999999999</ele>
        <time>2025-05-09T08:23:39Z</time>
      </trkpt>
      <trkpt lat="36.227109041064978" lon="-5.431446013972163">
        <ele>20.32</ele>
        <time>2025-05-09T08:23:40Z</time>
      </trkpt>
      <trkpt lat="36.227023964747787" lon="-5.431591020897031">
        <ele>20.32</ele>
        <time>2025-05-09T08:23:41Z</time>
      </trkpt>
      <trkpt lat="36.226939978078008" lon="-5.431732004508376">
        <ele>19.84</ele>
        <time>2025-05-09T08:23:42Z</time>
      </trkpt>
      <trkpt lat="36.226876024156809" lon="-5.431892015039921">
        <ele>19.359999999999999</ele>
        <time>2025-05-09T08:23:43Z</time>
      </trkpt>
      <trkpt lat="36.226830007508397" lon="-5.432059988379479">
        <ele>18.879999999999999</ele>
        <time>2025-05-09T08:23:44Z</time>
      </trkpt>
      <trkpt lat="36.226379983127117" lon="-5.433860002085567">
        <ele>16.960000000000001</ele>
        <time>2025-05-09T08:23:53Z</time>
      </trkpt>
      <trkpt lat="36.226365985348821" lon="-5.43408396653831">
        <ele>16.48</ele>
        <time>2025-05-09T08:23:54Z</time>
      </trkpt>
      <trkpt lat="36.226365985348821" lon="-5.434311032295227">
        <ele>16.48</ele>
        <time>2025-05-09T08:23:55Z</time>
      </trkpt>
      <trkpt lat="36.226365985348821" lon="-5.434542037546635">
        <ele>16</ele>
        <time>2025-05-09T08:23:56Z</time>
      </trkpt>
      <trkpt lat="36.226399010047317" lon="-5.434773964807391">
        <ele>16</ele>
        <time>2025-05-09T08:23:57Z</time>
      </trkpt>
      <trkpt lat="36.226805029436946" lon="-5.436011971905828">
        <ele>13.6</ele>
        <time>2025-05-09T08:24:03Z</time>
      </trkpt>
      <trkpt lat="36.226915000006557" lon="-5.436183968558908">
        <ele>13.119999999999999</ele>
        <time>2025-05-09T08:24:04Z</time>
      </trkpt>
      <trkpt lat="36.227024970576167" lon="-5.436356971040368">
        <ele>12.630000000000001</ele>
        <time>2025-05-09T08:24:05Z</time>
      </trkpt>
      <trkpt lat="36.227135024964809" lon="-5.436529973521829">
        <ele>11.67</ele>
        <time>2025-05-09T08:24:06Z</time>
      </trkpt>
      <trkpt lat="36.227267039939761" lon="-5.436676992103458">
        <ele>11.19</ele>
        <time>2025-05-09T08:24:07Z</time>
      </trkpt>
      <trkpt lat="36.227410035207868" lon="-5.436802972108126">
        <ele>10.710000000000001</ele>
        <time>2025-05-09T08:24:08Z</time>
      </trkpt>
      <trkpt lat="36.227555964142084" lon="-5.436930963769555">
        <ele>10.710000000000001</ele>
        <time>2025-05-09T08:24:09Z</time>
      </trkpt>
      <trkpt lat="36.227700971066952" lon="-5.437059039250016">
        <ele>10.23</ele>
        <time>2025-05-09T08:24:10Z</time>
      </trkpt>
      <trkpt lat="36.22786701656878" lon="-5.437143025919795">
        <ele>9.75</ele>
        <time>2025-05-09T08:24:11Z</time>
      </trkpt>
      <trkpt lat="36.228033984079957" lon="-5.437221983447671">
        <ele>9.27</ele>
        <time>2025-05-09T08:24:12Z</time>
      </trkpt>
      <trkpt lat="36.228544022887945" lon="-5.437419964000583">
        <ele>7.83</ele>
        <time>2025-05-09T08:24:15Z</time>
      </trkpt>
      <trkpt lat="36.228719959035516" lon="-5.437449971213937">
        <ele>7.35</ele>
        <time>2025-05-09T08:24:16Z</time>
      </trkpt>
      <trkpt lat="36.230411008000374" lon="-5.43747897259891">
        <ele>3.98</ele>
        <time>2025-05-09T08:24:26Z</time>
      </trkpt>
      <trkpt lat="36.230686018243432" lon="-5.437466986477375">
        <ele>3.02</ele>
        <time>2025-05-09T08:24:29Z</time>
      </trkpt>
      <trkpt lat="36.230729017406702" lon="-5.437464974820614">
        <ele>2.54</ele>
        <time>2025-05-09T08:24:30Z</time>
      </trkpt>
      <trkpt lat="36.230850974097848" lon="-5.437358021736145">
        <ele>2.54</ele>
        <time>2025-05-09T08:24:31Z</time>
      </trkpt>
      <trkpt lat="36.230850974097848" lon="-5.437317034229636">
        <ele>2.06</ele>
        <time>2025-05-09T08:24:32Z</time>
      </trkpt>
      <trkpt lat="36.230850974097848" lon="-5.437278980389237">
        <ele>1.58</ele>
        <time>2025-05-09T08:24:33Z</time>
      </trkpt>
      <trkpt lat="36.2308310251683" lon="-5.437461035326123">
        <ele>1.58</ele>
        <time>2025-05-09T08:24:34Z</time>
      </trkpt>
      <trkpt lat="36.23085499741137" lon="-5.437460029497743">
        <ele>1.1</ele>
        <time>2025-05-09T08:24:35Z</time>
      </trkpt>
      <trkpt lat="36.230904031544924" lon="-5.437458017840982">
        <ele>0.62</ele>
        <time>2025-05-09T08:24:37Z</time>
      </trkpt>
      <trkpt lat="36.230924986302853" lon="-5.437457012012601">
        <ele>0.62</ele>
        <time>2025-05-09T08:24:38Z</time>
      </trkpt>
      <trkpt lat="36.230850974097848" lon="-5.437265988439322">
        <ele>0.14</ele>
        <time>2025-05-09T08:24:39Z</time>
      </trkpt>
      <trkpt lat="36.230850974097848" lon="-5.437265988439322">
        <ele>0.14</ele>
        <time>2025-05-09T08:24:50Z</time>
      </trkpt>
      <trkpt lat="36.230850974097848" lon="-5.437265988439322">
        <ele>0.14</ele>
        <time>2025-05-09T08:25:32Z</time>
      </trkpt>
      <trkpt lat="36.230850974097848" lon="-5.437265988439322">
        <ele>0.62</ele>
        <time>2025-05-09T08:26:06Z</time>
      </trkpt>
      <trkpt lat="36.230850974097848" lon="-5.437281997874379">
        <ele>0.62</ele>
        <time>2025-05-09T08:26:20Z</time>
      </trkpt>
      <trkpt lat="36.230850974097848" lon="-5.437322985380888">
        <ele>0.62</ele>
        <time>2025-05-09T08:26:21Z</time>
      </trkpt>
      <trkpt lat="36.230850974097848" lon="-5.437365984544158">
        <ele>1.1</ele>
        <time>2025-05-09T08:26:22Z</time>
      </trkpt>
      <trkpt lat="36.230980977416039" lon="-5.43745500035584">
        <ele>1.58</ele>
        <time>2025-05-09T08:26:23Z</time>
      </trkpt>
      <trkpt lat="36.231020959094167" lon="-5.437452988699079">
        <ele>1.58</ele>
        <time>2025-05-09T08:26:24Z</time>
      </trkpt>
      <trkpt lat="36.231086002662778" lon="-5.437449971213937">
        <ele>1.58</ele>
        <time>2025-05-09T08:26:25Z</time>
      </trkpt>
      <trkpt lat="36.231169989332557" lon="-5.437447037547827">
        <ele>1.1</ele>
        <time>2025-05-09T08:26:26Z</time>
      </trkpt>
      <trkpt lat="36.231951015070081" lon="-5.437332037836313">
        <ele>-0.34</ele>
        <time>2025-05-09T08:26:32Z</time>
      </trkpt>
      <trkpt lat="36.233591018244624" lon="-5.436829039826989">
        <ele>1.58</ele>
        <time>2025-05-09T08:26:41Z</time>
      </trkpt>
      <trkpt lat="36.235352978110313" lon="-5.436237026005983">
        <ele>2.54</ele>
        <time>2025-05-09T08:26:50Z</time>
      </trkpt>
      <trkpt lat="36.237329011783004" lon="-5.435610981658101">
        <ele>1.58</ele>
        <time>2025-05-09T08:27:00Z</time>
      </trkpt>
      <trkpt lat="36.239022994413972" lon="-5.435279980301857">
        <ele>3.02</ele>
        <time>2025-05-09T08:27:09Z</time>
      </trkpt>
      <trkpt lat="36.240333002060652" lon="-5.435419036075473">
        <ele>3.5</ele>
        <time>2025-05-09T08:27:16Z</time>
      </trkpt>
      <trkpt lat="36.242291014641523" lon="-5.436225961893797">
        <ele>4.46</ele>
        <time>2025-05-09T08:27:26Z</time>
      </trkpt>
      <trkpt lat="36.244176020845771" lon="-5.437245033681393">
        <ele>4.46</ele>
        <time>2025-05-09T08:27:36Z</time>
      </trkpt>
      <trkpt lat="36.245648972690105" lon="-5.437833024188876">
        <ele>4.94</ele>
        <time>2025-05-09T08:27:44Z</time>
      </trkpt>
      <trkpt lat="36.247485028579831" lon="-5.438308026641607">
        <ele>5.42</ele>
        <time>2025-05-09T08:27:53Z</time>
      </trkpt>
      <trkpt lat="36.24939501285553" lon="-5.438511958345771">
        <ele>3.98</ele>
        <time>2025-05-09T08:28:02Z</time>
      </trkpt>
      <trkpt lat="36.250848015770316" lon="-5.438543977215886">
        <ele>3.98</ele>
        <time>2025-05-09T08:28:09Z</time>
      </trkpt>
      <trkpt lat="36.252871993929148" lon="-5.438545988872647">
        <ele>3.5</ele>
        <time>2025-05-09T08:28:19Z</time>
      </trkpt>
      <trkpt lat="36.25435802154243" lon="-5.438208030536771">
        <ele>1.58</ele>
        <time>2025-05-09T08:28:26Z</time>
      </trkpt>
      <trkpt lat="36.256071031093597" lon="-5.437620962038636">
        <ele>-0.82</ele>
        <time>2025-05-09T08:28:33Z</time>
      </trkpt>
      <trkpt lat="36.257599974051118" lon="-5.43709198012948">
        <ele>-1.3</ele>
        <time>2025-05-09T08:28:40Z</time>
      </trkpt>
      <trkpt lat="36.259406022727489" lon="-5.436728037893772">
        <ele>0.62</ele>
        <time>2025-05-09T08:28:48Z</time>
      </trkpt>
      <trkpt lat="36.261853035539389" lon="-5.436326041817665">
        <ele>2.54</ele>
        <time>2025-05-09T08:28:59Z</time>
      </trkpt>
      <trkpt lat="36.263076961040497" lon="-5.435913987457752">
        <ele>3.02</ele>
        <time>2025-05-09T08:29:05Z</time>
      </trkpt>
      <trkpt lat="36.264492999762297" lon="-5.435591032728553">
        <ele>4.94</ele>
        <time>2025-05-09T08:29:12Z</time>
      </trkpt>
      <trkpt lat="36.265649031847715" lon="-5.434997007250786">
        <ele>4.94</ele>
        <time>2025-05-09T08:29:18Z</time>
      </trkpt>
      <trkpt lat="36.266680005937815" lon="-5.434143980965018">
        <ele>3.98</ele>
        <time>2025-05-09T08:29:24Z</time>
      </trkpt>
      <trkpt lat="36.266866000369191" lon="-5.434035016223788">
        <ele>3.98</ele>
        <time>2025-05-09T08:29:25Z</time>
      </trkpt>
      <trkpt lat="36.268483037129045" lon="-5.433311993256211">
        <ele>6.39</ele>
        <time>2025-05-09T08:29:33Z</time>
      </trkpt>
      <trkpt lat="36.270007034763694" lon="-5.432547982782126">
        <ele>11.19</ele>
        <time>2025-05-09T08:29:41Z</time>
      </trkpt>
      <trkpt lat="36.270199986174703" lon="-5.432494003325701">
        <ele>12.15</ele>
        <time>2025-05-09T08:29:42Z</time>
      </trkpt>
      <trkpt lat="36.270394027233124" lon="-5.432439018040896">
        <ele>12.630000000000001</ele>
        <time>2025-05-09T08:29:43Z</time>
      </trkpt>
      <trkpt lat="36.272004023194313" lon="-5.43204003944993">
        <ele>15.52</ele>
        <time>2025-05-09T08:29:51Z</time>
      </trkpt>
      <trkpt lat="36.273774029687047" lon="-5.431292038410902">
        <ele>19.359999999999999</ele>
        <time>2025-05-09T08:30:00Z</time>
      </trkpt>
      <trkpt lat="36.275510005652905" lon="-5.430599022656679">
        <ele>21.289999999999999</ele>
        <time>2025-05-09T08:30:09Z</time>
      </trkpt>
      <trkpt lat="36.276493035256863" lon="-5.430335998535156">
        <ele>20.32</ele>
        <time>2025-05-09T08:30:16Z</time>
      </trkpt>
      <trkpt lat="36.276622032746673" lon="-5.430335998535156">
        <ele>20.32</ele>
        <time>2025-05-09T08:30:17Z</time>
      </trkpt>
      <trkpt lat="36.27676997333765" lon="-5.430335998535156">
        <ele>20.32</ele>
        <time>2025-05-09T08:30:18Z</time>
      </trkpt>
      <trkpt lat="36.276870975270867" lon="-5.430373968556523">
        <ele>20.32</ele>
        <time>2025-05-09T08:30:19Z</time>
      </trkpt>
      <trkpt lat="36.277354024350643" lon="-5.430552000179887">
        <ele>19.84</ele>
        <time>2025-05-09T08:30:23Z</time>
      </trkpt>
      <trkpt lat="36.277478998526931" lon="-5.430577984079719">
        <ele>19.359999999999999</ele>
        <time>2025-05-09T08:30:24Z</time>
      </trkpt>
      <trkpt lat="36.277599027380347" lon="-5.43060396797955">
        <ele>19.359999999999999</ele>
        <time>2025-05-09T08:30:25Z</time>
      </trkpt>
      <trkpt lat="36.277833972126245" lon="-5.430658031255007">
        <ele>19.359999999999999</ele>
        <time>2025-05-09T08:30:27Z</time>
      </trkpt>
      <trkpt lat="36.27795098349452" lon="-5.4306860268116">
        <ele>20.32</ele>
        <time>2025-05-09T08:30:28Z</time>
      </trkpt>
      <trkpt lat="36.27805600874126" lon="-5.430736988782883">
        <ele>19.84</ele>
        <time>2025-05-09T08:30:29Z</time>
      </trkpt>
      <trkpt lat="36.278159022331238" lon="-5.430827010422945">
        <ele>20.32</ele>
        <time>2025-05-09T08:30:30Z</time>
      </trkpt>
      <trkpt lat="36.278247032314539" lon="-5.430934969335794">
        <ele>19.84</ele>
        <time>2025-05-09T08:30:31Z</time>
      </trkpt>
      <trkpt lat="36.278333030641079" lon="-5.43105399236083">
        <ele>19.84</ele>
        <time>2025-05-09T08:30:32Z</time>
      </trkpt>
      <trkpt lat="36.278418023139238" lon="-5.431172009557486">
        <ele>19.84</ele>
        <time>2025-05-09T08:30:33Z</time>
      </trkpt>
      <trkpt lat="36.279171975329518" lon="-5.43214799836278">
        <ele>18.399999999999999</ele>
        <time>2025-05-09T08:30:42Z</time>
      </trkpt>
      <trkpt lat="36.279264008626342" lon="-5.432232990860939">
        <ele>18.879999999999999</ele>
        <time>2025-05-09T08:30:43Z</time>
      </trkpt>
      <trkpt lat="36.279357969760895" lon="-5.432305997237563">
        <ele>18.399999999999999</ele>
        <time>2025-05-09T08:30:44Z</time>
      </trkpt>
      <trkpt lat="36.279465006664395" lon="-5.432359976693988">
        <ele>17.920000000000002</ele>
        <time>2025-05-09T08:30:45Z</time>
      </trkpt>
      <trkpt lat="36.279571037739515" lon="-5.432410016655922">
        <ele>17.920000000000002</ele>
        <time>2025-05-09T08:30:46Z</time>
      </trkpt>
      <trkpt lat="36.279865996912122" lon="-5.432533985003829">
        <ele>17.440000000000001</ele>
        <time>2025-05-09T08:30:49Z</time>
      </trkpt>
      <trkpt lat="36.279949983581901" lon="-5.432568015530706">
        <ele>17.440000000000001</ele>
        <time>2025-05-09T08:30:50Z</time>
      </trkpt>
      <trkpt lat="36.280026007443666" lon="-5.432576984167099">
        <ele>17.440000000000001</ele>
        <time>2025-05-09T08:30:51Z</time>
      </trkpt>
      <trkpt lat="36.280089039355516" lon="-5.432584024965763">
        <ele>16.960000000000001</ele>
        <time>2025-05-09T08:30:52Z</time>
      </trkpt>
      <trkpt lat="36.28018400631845" lon="-5.432500038295984">
        <ele>16.48</ele>
        <time>2025-05-09T08:30:53Z</time>
      </trkpt>
      <trkpt lat="36.280246032401919" lon="-5.432374980300665">
        <ele>16.48</ele>
        <time>2025-05-09T08:30:54Z</time>
      </trkpt>
      <trkpt lat="36.280268998816609" lon="-5.432366011664271">
        <ele>16.48</ele>
        <time>2025-05-09T08:30:55Z</time>
      </trkpt>
      <trkpt lat="36.280346028506756" lon="-5.432334998622537">
        <ele>16.48</ele>
        <time>2025-05-09T08:30:56Z</time>
      </trkpt>
      <trkpt lat="36.280352985486388" lon="-5.432331981137395">
        <ele>16.48</ele>
        <time>2025-05-09T08:30:57Z</time>
      </trkpt>
      <trkpt lat="36.28052799962461" lon="-5.432296022772789">
        <ele>16</ele>
        <time>2025-05-09T08:30:58Z</time>
      </trkpt>
      <trkpt lat="36.28059396520257" lon="-5.432217987254262">
        <ele>16</ele>
        <time>2025-05-09T08:30:59Z</time>
      </trkpt>
      <trkpt lat="36.280660014599562" lon="-5.432129977270961">
        <ele>16</ele>
        <time>2025-05-09T08:31:00Z</time>
      </trkpt>
      <trkpt lat="36.281119007617235" lon="-5.431456994265318">
        <ele>15.039999999999999</ele>
        <time>2025-05-09T08:31:06Z</time>
      </trkpt>
      <trkpt lat="36.281187990680337" lon="-5.431308969855309">
        <ele>14.56</ele>
        <time>2025-05-09T08:31:07Z</time>
      </trkpt>
      <trkpt lat="36.281242975965142" lon="-5.431144014000893">
        <ele>14.08</ele>
        <time>2025-05-09T08:31:08Z</time>
      </trkpt>
      <trkpt lat="36.281289998441935" lon="-5.430972017347813">
        <ele>14.08</ele>
        <time>2025-05-09T08:31:09Z</time>
      </trkpt>
      <trkpt lat="36.281340960413218" lon="-5.430787028744817">
        <ele>13.6</ele>
        <time>2025-05-09T08:31:10Z</time>
      </trkpt>
      <trkpt lat="36.281687971204519" lon="-5.429105032235384">
        <ele>12.15</ele>
        <time>2025-05-09T08:31:18Z</time>
      </trkpt>
      <trkpt lat="36.281855022534728" lon="-5.428448980674148">
        <ele>12.15</ele>
        <time>2025-05-09T08:31:21Z</time>
      </trkpt>
      <trkpt lat="36.281912019476295" lon="-5.428242031484842">
        <ele>12.630000000000001</ele>
        <time>2025-05-09T08:31:22Z</time>
      </trkpt>
      <trkpt lat="36.282028025016189" lon="-5.428067017346621">
        <ele>12.15</ele>
        <time>2025-05-09T08:31:23Z</time>
      </trkpt>
      <trkpt lat="36.28216297365725" lon="-5.427887979894877">
        <ele>12.15</ele>
        <time>2025-05-09T08:31:24Z</time>
      </trkpt>
      <trkpt lat="36.282305968925357" lon="-5.427697040140629">
        <ele>12.15</ele>
        <time>2025-05-09T08:31:25Z</time>
      </trkpt>
      <trkpt lat="36.283948989585042" lon="-5.425934996455908">
        <ele>15.039999999999999</ele>
        <time>2025-05-09T08:31:36Z</time>
      </trkpt>
      <trkpt lat="36.285267965868115" lon="-5.424894969910383">
        <ele>18.879999999999999</ele>
        <time>2025-05-09T08:31:45Z</time>
      </trkpt>
      <trkpt lat="36.286869999021292" lon="-5.42366299778223">
        <ele>25.609999999999999</ele>
        <time>2025-05-09T08:31:56Z</time>
      </trkpt>
      <trkpt lat="36.288727009668946" lon="-5.422194991260767">
        <ele>28.02</ele>
        <time>2025-05-09T08:32:08Z</time>
      </trkpt>
      <trkpt lat="36.290400959551334" lon="-5.420879032462835">
        <ele>30.420000000000002</ele>
        <time>2025-05-09T08:32:18Z</time>
      </trkpt>
      <trkpt lat="36.291966028511524" lon="-5.419652005657554">
        <ele>32.82</ele>
        <time>2025-05-09T08:32:27Z</time>
      </trkpt>
      <trkpt lat="36.294383034110069" lon="-5.417686030268669">
        <ele>35.229999999999997</ele>
        <time>2025-05-09T08:32:41Z</time>
      </trkpt>
      <trkpt lat="36.29567401483655" lon="-5.416243001818657">
        <ele>37.149999999999999</ele>
        <time>2025-05-09T08:32:50Z</time>
      </trkpt>
      <trkpt lat="36.297153001651168" lon="-5.414678016677499">
        <ele>41.950000000000003</ele>
        <time>2025-05-09T08:33:00Z</time>
      </trkpt>
      <trkpt lat="36.29730798304081" lon="-5.414540972560644">
        <ele>42.439999999999998</ele>
        <time>2025-05-09T08:33:01Z</time>
      </trkpt>
      <trkpt lat="36.299442015588284" lon="-5.413085035979748">
        <ele>47.719999999999999</ele>
        <time>2025-05-09T08:33:13Z</time>
      </trkpt>
      <trkpt lat="36.299612000584602" lon="-5.412933994084597">
        <ele>48.200000000000003</ele>
        <time>2025-05-09T08:33:14Z</time>
      </trkpt>
      <trkpt lat="36.299778968095779" lon="-5.41277096606791">
        <ele>49.159999999999997</ele>
        <time>2025-05-09T08:33:15Z</time>
      </trkpt>
      <trkpt lat="36.301051005721092" lon="-5.41128896176815">
        <ele>52.530000000000001</ele>
        <time>2025-05-09T08:33:24Z</time>
      </trkpt>
      <trkpt lat="36.302066976204515" lon="-5.410093031823635">
        <ele>52.530000000000001</ele>
        <time>2025-05-09T08:33:33Z</time>
      </trkpt>
      <trkpt lat="36.302723027765751" lon="-5.409192983061075">
        <ele>52.049999999999997</ele>
        <time>2025-05-09T08:33:40Z</time>
      </trkpt>
      <trkpt lat="36.302782036364079" lon="-5.40903196670115">
        <ele>51.57</ele>
        <time>2025-05-09T08:33:41Z</time>
      </trkpt>
      <trkpt lat="36.30280802026391" lon="-5.408851001411676">
        <ele>51.57</ele>
        <time>2025-05-09T08:33:42Z</time>
      </trkpt>
      <trkpt lat="36.302840961143374" lon="-5.408621001988649">
        <ele>52.049999999999997</ele>
        <time>2025-05-09T08:33:43Z</time>
      </trkpt>
      <trkpt lat="36.302821012213826" lon="-5.408438025042415">
        <ele>52.049999999999997</ele>
        <time>2025-05-09T08:33:44Z</time>
      </trkpt>
      <trkpt lat="36.302797039970756" lon="-5.408211965113878">
        <ele>52.530000000000001</ele>
        <time>2025-05-09T08:33:45Z</time>
      </trkpt>
      <trkpt lat="36.302596963942051" lon="-5.406007021665573">
        <ele>57.82</ele>
        <time>2025-05-09T08:33:54Z</time>
      </trkpt>
      <trkpt lat="36.302343998104334" lon="-5.40331500582397">
        <ele>67.430000000000007</ele>
        <time>2025-05-09T08:34:05Z</time>
      </trkpt>
      <trkpt lat="36.302260011434555" lon="-5.401756977662444">
        <ele>70.310000000000002</ele>
        <time>2025-05-09T08:34:12Z</time>
      </trkpt>
      <trkpt lat="36.302282977849245" lon="-5.401561008766294">
        <ele>70.310000000000002</ele>
        <time>2025-05-09T08:34:13Z</time>
      </trkpt>
      <trkpt lat="36.302341986447573" lon="-5.401413990184665">
        <ele>70.790000000000006</ele>
        <time>2025-05-09T08:34:14Z</time>
      </trkpt>
      <trkpt lat="36.302419016137719" lon="-5.401255991309881">
        <ele>71.269999999999996</ele>
        <time>2025-05-09T08:34:15Z</time>
      </trkpt>
      <trkpt lat="36.302497973665595" lon="-5.401110984385014">
        <ele>71.269999999999996</ele>
        <time>2025-05-09T08:34:16Z</time>
      </trkpt>
      <trkpt lat="36.302627976983786" lon="-5.400980981066823">
        <ele>71.269999999999996</ele>
        <time>2025-05-09T08:34:17Z</time>
      </trkpt>
      <trkpt lat="36.302742976695299" lon="-5.400864975526929">
        <ele>71.760000000000005</ele>
        <time>2025-05-09T08:34:18Z</time>
      </trkpt>
      <trkpt lat="36.302887983620167" lon="-5.400812001898885">
        <ele>72.239999999999995</ele>
        <time>2025-05-09T08:34:19Z</time>
      </trkpt>
      <trkpt lat="36.303039025515318" lon="-5.400763973593712">
        <ele>72.239999999999995</ele>
        <time>2025-05-09T08:34:20Z</time>
      </trkpt>
      <trkpt lat="36.30319400690496" lon="-5.400722986087203">
        <ele>72.239999999999995</ele>
        <time>2025-05-09T08:34:21Z</time>
      </trkpt>
      <trkpt lat="36.303359968587756" lon="-5.400713011622429">
        <ele>72.239999999999995</ele>
        <time>2025-05-09T08:34:22Z</time>
      </trkpt>
      <trkpt lat="36.303532971069217" lon="-5.400703037157655">
        <ele>72.239999999999995</ele>
        <time>2025-05-09T08:34:23Z</time>
      </trkpt>
      <trkpt lat="36.305457958951592" lon="-5.400660037994385">
        <ele>75.599999999999994</ele>
        <time>2025-05-09T08:34:33Z</time>
      </trkpt>
      <trkpt lat="36.307404991239309" lon="-5.400605974718928">
        <ele>79.930000000000007</ele>
        <time>2025-05-09T08:34:42Z</time>
      </trkpt>
      <trkpt lat="36.30968595854938" lon="-5.400510001927614">
        <ele>83.769999999999996</ele>
        <time>2025-05-09T08:34:52Z</time>
      </trkpt>
      <trkpt lat="36.312833027914166" lon="-5.400388967245817">
        <ele>83.769999999999996</ele>
        <time>2025-05-09T08:35:06Z</time>
      </trkpt>
      <trkpt lat="36.314799003303051" lon="-5.400315960869193">
        <ele>83.290000000000006</ele>
        <time>2025-05-09T08:35:15Z</time>
      </trkpt>
      <trkpt lat="36.315744984894991" lon="-5.400363989174366">
        <ele>81.849999999999994</ele>
        <time>2025-05-09T08:35:20Z</time>
      </trkpt>
      <trkpt lat="36.31591597571969" lon="-5.400461973622441">
        <ele>81.370000000000005</ele>
        <time>2025-05-09T08:35:21Z</time>
      </trkpt>
      <trkpt lat="36.316098030656576" lon="-5.4005659930408">
        <ele>80.890000000000001</ele>
        <time>2025-05-09T08:35:22Z</time>
      </trkpt>
      <trkpt lat="36.317840963602066" lon="-5.401770975440741">
        <ele>72.719999999999999</ele>
        <time>2025-05-09T08:35:31Z</time>
      </trkpt>
      <trkpt lat="36.319000013172626" lon="-5.402602963149548">
        <ele>62.140000000000001</ele>
        <time>2025-05-09T08:35:38Z</time>
      </trkpt>
      <trkpt lat="36.31943603977561" lon="-5.402974030002952">
        <ele>54.93</ele>
        <time>2025-05-09T08:35:43Z</time>
      </trkpt>
      <trkpt lat="36.320289988070726" lon="-5.403893021866679">
        <ele>44.359999999999999</ele>
        <time>2025-05-09T08:35:50Z</time>
      </trkpt>
      <trkpt lat="36.321259019896388" lon="-5.404892982915044">
        <ele>34.740000000000002</ele>
        <time>2025-05-09T08:35:57Z</time>
      </trkpt>
      <trkpt lat="36.321558002382517" lon="-5.405038995668292">
        <ele>33.299999999999997</ele>
        <time>2025-05-09T08:35:59Z</time>
      </trkpt>
      <trkpt lat="36.321717007085681" lon="-5.405085012316704">
        <ele>32.340000000000003</ele>
        <time>2025-05-09T08:36:00Z</time>
      </trkpt>
      <trkpt lat="36.321893027052283" lon="-5.405108984559774">
        <ele>31.379999999999999</ele>
        <time>2025-05-09T08:36:01Z</time>
      </trkpt>
      <trkpt lat="36.322071980684996" lon="-5.405116025358439">
        <ele>30.420000000000002</ele>
        <time>2025-05-09T08:36:02Z</time>
      </trkpt>
      <trkpt lat="36.322267027571797" lon="-5.405093980953097">
        <ele>28.98</ele>
        <time>2025-05-09T08:36:03Z</time>
      </trkpt>
      <trkpt lat="36.323851961642504" lon="-5.404890971258283">
        <ele>21.289999999999999</ele>
        <time>2025-05-09T08:36:11Z</time>
      </trkpt>
      <trkpt lat="36.325299013406038" lon="-5.404701959341765">
        <ele>14.56</ele>
        <time>2025-05-09T08:36:18Z</time>
      </trkpt>
      <trkpt lat="36.326831979677081" lon="-5.404504984617233">
        <ele>7.83</ele>
        <time>2025-05-09T08:36:25Z</time>
      </trkpt>
      <trkpt lat="36.328360000625253" lon="-5.404244977980852">
        <ele>8.789999999999999</ele>
        <time>2025-05-09T08:36:32Z</time>
      </trkpt>
      <trkpt lat="36.329834964126348" lon="-5.403522960841656">
        <ele>14.56</ele>
        <time>2025-05-09T08:36:39Z</time>
      </trkpt>
      <trkpt lat="36.33080299012363" lon="-5.403049970045686">
        <ele>16</ele>
        <time>2025-05-09T08:36:44Z</time>
      </trkpt>
      <trkpt lat="36.331772021949291" lon="-5.402653003111482">
        <ele>15.52</ele>
        <time>2025-05-09T08:36:51Z</time>
      </trkpt>
      <trkpt lat="36.332341991364956" lon="-5.402405988425016">
        <ele>15.039999999999999</ele>
        <time>2025-05-09T08:36:56Z</time>
      </trkpt>
      <trkpt lat="36.332448022440076" lon="-5.402387967333198">
        <ele>15.039999999999999</ele>
        <time>2025-05-09T08:36:57Z</time>
      </trkpt>
      <trkpt lat="36.332548018544912" lon="-5.402389978989959">
        <ele>15.039999999999999</ele>
        <time>2025-05-09T08:36:58Z</time>
      </trkpt>
      <trkpt lat="36.332667041569948" lon="-5.402441024780273">
        <ele>15.039999999999999</ele>
        <time>2025-05-09T08:36:59Z</time>
      </trkpt>
      <trkpt lat="36.332729989662766" lon="-5.402542026713491">
        <ele>15.039999999999999</ele>
        <time>2025-05-09T08:37:00Z</time>
      </trkpt>
      <trkpt lat="36.332798972725868" lon="-5.402665995061398">
        <ele>15.52</ele>
        <time>2025-05-09T08:37:01Z</time>
      </trkpt>
      <trkpt lat="36.332868039608002" lon="-5.402814019471407">
        <ele>15.039999999999999</ele>
        <time>2025-05-09T08:37:02Z</time>
      </trkpt>
      <trkpt lat="36.333440020680428" lon="-5.404200972989202">
        <ele>14.56</ele>
        <time>2025-05-09T08:37:09Z</time>
      </trkpt>
      <trkpt lat="36.333948969841003" lon="-5.405319035053253">
        <ele>15.039999999999999</ele>
        <time>2025-05-09T08:37:14Z</time>
      </trkpt>
      <trkpt lat="36.334583982825279" lon="-5.406690984964371">
        <ele>16.48</ele>
        <time>2025-05-09T08:37:21Z</time>
      </trkpt>
      <trkpt lat="36.334668975323439" lon="-5.406852001324296">
        <ele>16.960000000000001</ele>
        <time>2025-05-09T08:37:22Z</time>
      </trkpt>
      <trkpt lat="36.334781041368842" lon="-5.406988961622119">
        <ele>17.440000000000001</ele>
        <time>2025-05-09T08:37:23Z</time>
      </trkpt>
      <trkpt lat="36.334909033030272" lon="-5.407098010182381">
        <ele>17.440000000000001</ele>
        <time>2025-05-09T08:37:24Z</time>
      </trkpt>
      <trkpt lat="36.335060996934772" lon="-5.407187025994062">
        <ele>17.440000000000001</ele>
        <time>2025-05-09T08:37:25Z</time>
      </trkpt>
      <trkpt lat="36.335233999416232" lon="-5.407229019328952">
        <ele>17.440000000000001</ele>
        <time>2025-05-09T08:37:26Z</time>
      </trkpt>
      <trkpt lat="36.33542200550437" lon="-5.407261038199067">
        <ele>17.440000000000001</ele>
        <time>2025-05-09T08:37:27Z</time>
      </trkpt>
      <trkpt lat="36.336878025904298" lon="-5.407477961853147">
        <ele>16</ele>
        <time>2025-05-09T08:37:34Z</time>
      </trkpt>
      <trkpt lat="36.337084975093603" lon="-5.40754702873528">
        <ele>15.039999999999999</ele>
        <time>2025-05-09T08:37:35Z</time>
      </trkpt>
      <trkpt lat="36.337299970909953" lon="-5.407623974606395">
        <ele>14.56</ele>
        <time>2025-05-09T08:37:36Z</time>
      </trkpt>
      <trkpt lat="36.33750599808991" lon="-5.40774199180305">
        <ele>13.6</ele>
        <time>2025-05-09T08:37:37Z</time>
      </trkpt>
      <trkpt lat="36.339497035369277" lon="-5.408972958102822">
        <ele>6.39</ele>
        <time>2025-05-09T08:37:47Z</time>
      </trkpt>
      <trkpt lat="36.341293025761843" lon="-5.410112980753183">
        <ele>4.46</ele>
        <time>2025-05-09T08:37:56Z</time>
      </trkpt>
      <trkpt lat="36.342972004786134" lon="-5.410865005105734">
        <ele>2.54</ele>
        <time>2025-05-09T08:38:04Z</time>
      </trkpt>
      <trkpt lat="36.344713009893894" lon="-5.411413013935089">
        <ele>3.98</ele>
        <time>2025-05-09T08:38:12Z</time>
      </trkpt>
      <trkpt lat="36.346709998324513" lon="-5.412050960585475">
        <ele>6.87</ele>
        <time>2025-05-09T08:38:21Z</time>
      </trkpt>
      <trkpt lat="36.349124992266297" lon="-5.412842966616154">
        <ele>5.91</ele>
        <time>2025-05-09T08:38:32Z</time>
      </trkpt>
      <trkpt lat="36.35061495937407" lon="-5.413450989872217">
        <ele>3.98</ele>
        <time>2025-05-09T08:38:39Z</time>
      </trkpt>
      <trkpt lat="36.352284969761968" lon="-5.414245007559657">
        <ele>6.87</ele>
        <time>2025-05-09T08:38:47Z</time>
      </trkpt>
      <trkpt lat="36.354170981794596" lon="-5.415151007473469">
        <ele>9.27</ele>
        <time>2025-05-09T08:38:56Z</time>
      </trkpt>
      <trkpt lat="36.356057999655604" lon="-5.416043009608984">
        <ele>14.08</ele>
        <time>2025-05-09T08:39:05Z</time>
      </trkpt>
      <trkpt lat="36.357949040830135" lon="-5.416948003694415">
        <ele>16.960000000000001</ele>
        <time>2025-05-09T08:39:14Z</time>
      </trkpt>
      <trkpt lat="36.360249035060406" lon="-5.418044021353126">
        <ele>17.440000000000001</ele>
        <time>2025-05-09T08:39:25Z</time>
      </trkpt>
      <trkpt lat="36.361981993541121" lon="-5.418614996597171">
        <ele>17.440000000000001</ele>
        <time>2025-05-09T08:39:33Z</time>
      </trkpt>
      <trkpt lat="36.36354697868228" lon="-5.418737037107348">
        <ele>16</ele>
        <time>2025-05-09T08:39:40Z</time>
      </trkpt>
      <trkpt lat="36.363767003640532" lon="-5.418751034885645">
        <ele>15.52</ele>
        <time>2025-05-09T08:39:41Z</time>
      </trkpt>
      <trkpt lat="36.365320002660155" lon="-5.418853964656591">
        <ele>15.039999999999999</ele>
        <time>2025-05-09T08:39:48Z</time>
      </trkpt>
      <trkpt lat="36.366678960621357" lon="-5.418942980468273">
        <ele>15.039999999999999</ele>
        <time>2025-05-09T08:39:54Z</time>
      </trkpt>
      <trkpt lat="36.36848802678287" lon="-5.419062003493309">
        <ele>18.879999999999999</ele>
        <time>2025-05-09T08:40:02Z</time>
      </trkpt>
      <trkpt lat="36.370278988033533" lon="-5.419179014861584">
        <ele>19.359999999999999</ele>
        <time>2025-05-09T08:40:10Z</time>
      </trkpt>
      <trkpt lat="36.372517039999366" lon="-5.419173985719681">
        <ele>19.359999999999999</ele>
        <time>2025-05-09T08:40:20Z</time>
      </trkpt>
      <trkpt lat="36.374645959585905" lon="-5.418898975476623">
        <ele>19.359999999999999</ele>
        <time>2025-05-09T08:40:30Z</time>
      </trkpt>
      <trkpt lat="36.374838994815946" lon="-5.418898975476623">
        <ele>19.359999999999999</ele>
        <time>2025-05-09T08:40:31Z</time>
      </trkpt>
      <trkpt lat="36.375035969540477" lon="-5.418919008225203">
        <ele>18.879999999999999</ele>
        <time>2025-05-09T08:40:32Z</time>
      </trkpt>
      <trkpt lat="36.375229004770517" lon="-5.419019004330039">
        <ele>18.879999999999999</ele>
        <time>2025-05-09T08:40:33Z</time>
      </trkpt>
      <trkpt lat="36.375421034172177" lon="-5.419124029576778">
        <ele>18.399999999999999</ele>
        <time>2025-05-09T08:40:34Z</time>
      </trkpt>
      <trkpt lat="36.375613985583186" lon="-5.41923500597477">
        <ele>18.399999999999999</ele>
        <time>2025-05-09T08:40:35Z</time>
      </trkpt>
      <trkpt lat="36.375801991671324" lon="-5.419359980151057">
        <ele>17.920000000000002</ele>
        <time>2025-05-09T08:40:36Z</time>
      </trkpt>
      <trkpt lat="36.377755980938673" lon="-5.420727990567684">
        <ele>18.399999999999999</ele>
        <time>2025-05-09T08:40:46Z</time>
      </trkpt>
      <trkpt lat="36.380119007080793" lon="-5.422350978478789">
        <ele>20.32</ele>
        <time>2025-05-09T08:40:58Z</time>
      </trkpt>
      <trkpt lat="36.381385009735823" lon="-5.423478009179235">
        <ele>19.359999999999999</ele>
        <time>2025-05-09T08:41:05Z</time>
      </trkpt>
      <trkpt lat="36.382580017670989" lon="-5.425141984596849">
        <ele>21.77</ele>
        <time>2025-05-09T08:41:13Z</time>
      </trkpt>
      <trkpt lat="36.383630018681288" lon="-5.426933029666543">
        <ele>26.09</ele>
        <time>2025-05-09T08:41:21Z</time>
      </trkpt>
      <trkpt lat="36.385001968592405" lon="-5.428791968151927">
        <ele>27.530000000000001</ele>
        <time>2025-05-09T08:41:30Z</time>
      </trkpt>
      <trkpt lat="36.386203011497855" lon="-5.430266009643674">
        <ele>28.98</ele>
        <time>2025-05-09T08:41:38Z</time>
      </trkpt>
      <trkpt lat="36.38756699860096" lon="-5.431914981454611">
        <ele>28.02</ele>
        <time>2025-05-09T08:41:48Z</time>
      </trkpt>
      <trkpt lat="36.388871977105737" lon="-5.433492958545685">
        <ele>28.98</ele>
        <time>2025-05-09T08:41:57Z</time>
      </trkpt>
      <trkpt lat="36.38988702557981" lon="-5.434753010049462">
        <ele>30.899999999999999</ele>
        <time>2025-05-09T08:42:05Z</time>
      </trkpt>
      <trkpt lat="36.390436040237546" lon="-5.435644006356597">
        <ele>32.340000000000003</ele>
        <time>2025-05-09T08:42:12Z</time>
      </trkpt>
      <trkpt lat="36.390561014413834" lon="-5.436026975512505">
        <ele>34.259999999999998</ele>
        <time>2025-05-09T08:42:16Z</time>
      </trkpt>
      <trkpt lat="36.390692023560405" lon="-5.436511030420661">
        <ele>35.229999999999997</ele>
        <time>2025-05-09T08:42:20Z</time>
      </trkpt>
      <trkpt lat="36.390890004113317" lon="-5.437552984803915">
        <ele>32.82</ele>
        <time>2025-05-09T08:42:26Z</time>
      </trkpt>
      <trkpt lat="36.391213964670897" lon="-5.43910900130868">
        <ele>28.02</ele>
        <time>2025-05-09T08:42:34Z</time>
      </trkpt>
      <trkpt lat="36.391733977943659" lon="-5.44024701230228">
        <ele>25.609999999999999</ele>
        <time>2025-05-09T08:42:42Z</time>
      </trkpt>
      <trkpt lat="36.391803966835141" lon="-5.440372992306948">
        <ele>25.129999999999999</ele>
        <time>2025-05-09T08:42:43Z</time>
      </trkpt>
      <trkpt lat="36.391876973211765" lon="-5.440504001453519">
        <ele>25.129999999999999</ele>
        <time>2025-05-09T08:42:44Z</time>
      </trkpt>
      <trkpt lat="36.391985015943646" lon="-5.440603997558355">
        <ele>25.129999999999999</ele>
        <time>2025-05-09T08:42:45Z</time>
      </trkpt>
      <trkpt lat="36.392108984291553" lon="-5.440702987834811">
        <ele>25.129999999999999</ele>
        <time>2025-05-09T08:42:46Z</time>
      </trkpt>
      <trkpt lat="36.392246028408408" lon="-5.440803989768028">
        <ele>24.649999999999999</ele>
        <time>2025-05-09T08:42:47Z</time>
      </trkpt>
      <trkpt lat="36.392400003969669" lon="-5.440886970609427">
        <ele>24.170000000000002</ele>
        <time>2025-05-09T08:42:48Z</time>
      </trkpt>
      <trkpt lat="36.392558002844453" lon="-5.440961988642812">
        <ele>24.170000000000002</ele>
        <time>2025-05-09T08:42:49Z</time>
      </trkpt>
      <trkpt lat="36.394074037671089" lon="-5.44160102494061">
        <ele>23.210000000000001</ele>
        <time>2025-05-09T08:42:58Z</time>
      </trkpt>
      <trkpt lat="36.395489992573857" lon="-5.442152973264456">
        <ele>21.77</ele>
        <time>2025-05-09T08:43:07Z</time>
      </trkpt>
      <trkpt lat="36.39626900665462" lon="-5.44213998131454">
        <ele>20.809999999999999</ele>
        <time>2025-05-09T08:43:12Z</time>
      </trkpt>
      <trkpt lat="36.396423988044262" lon="-5.442083990201354">
        <ele>20.809999999999999</ele>
        <time>2025-05-09T08:43:13Z</time>
      </trkpt>
      <trkpt lat="36.397772971540689" lon="-5.441441014409065">
        <ele>21.289999999999999</ele>
        <time>2025-05-09T08:43:22Z</time>
      </trkpt>
      <trkpt lat="36.398073965683579" lon="-5.441281003877521">
        <ele>21.77</ele>
        <time>2025-05-09T08:43:24Z</time>
      </trkpt>
      <trkpt lat="36.398230958729982" lon="-5.441198023036122">
        <ele>21.77</ele>
        <time>2025-05-09T08:43:25Z</time>
      </trkpt>
      <trkpt lat="36.398401027545333" lon="-5.44110800139606">
        <ele>21.77</ele>
        <time>2025-05-09T08:43:26Z</time>
      </trkpt>
      <trkpt lat="36.398576963692904" lon="-5.441010016947985">
        <ele>21.77</ele>
        <time>2025-05-09T08:43:27Z</time>
      </trkpt>
      <trkpt lat="36.398733034729958" lon="-5.44087003916502">
        <ele>21.289999999999999</ele>
        <time>2025-05-09T08:43:28Z</time>
      </trkpt>
      <trkpt lat="36.398890027776361" lon="-5.440728971734643">
        <ele>21.289999999999999</ele>
        <time>2025-05-09T08:43:29Z</time>
      </trkpt>
      <trkpt lat="36.39979301020503" lon="-5.43981702066958">
        <ele>20.809999999999999</ele>
        <time>2025-05-09T08:43:36Z</time>
      </trkpt>
      <trkpt lat="36.399889988824725" lon="-5.439681988209486">
        <ele>21.289999999999999</ele>
        <time>2025-05-09T08:43:37Z</time>
      </trkpt>
      <trkpt lat="36.400195006281137" lon="-5.43926197104156">
        <ele>21.77</ele>
        <time>2025-05-09T08:43:40Z</time>
      </trkpt>
      <trkpt lat="36.400274969637394" lon="-5.439216960221529">
        <ele>22.25</ele>
        <time>2025-05-09T08:43:41Z</time>
      </trkpt>
      <trkpt lat="36.400390975177288" lon="-5.43915200047195">
        <ele>22.25</ele>
        <time>2025-05-09T08:43:42Z</time>
      </trkpt>
      <trkpt lat="36.400761036202312" lon="-5.438944967463613">
        <ele>22.25</ele>
        <time>2025-05-09T08:43:45Z</time>
      </trkpt>
      <trkpt lat="36.401179963722825" lon="-5.438709016889334">
        <ele>21.77</ele>
        <time>2025-05-09T08:43:48Z</time>
      </trkpt>
      <trkpt lat="36.401324970647693" lon="-5.438627963885665">
        <ele>21.77</ele>
        <time>2025-05-09T08:43:49Z</time>
      </trkpt>
      <trkpt lat="36.401481041684747" lon="-5.438567027449608">
        <ele>21.77</ele>
        <time>2025-05-09T08:43:50Z</time>
      </trkpt>
      <trkpt lat="36.401637028902769" lon="-5.438542971387506">
        <ele>21.289999999999999</ele>
        <time>2025-05-09T08:43:51Z</time>
      </trkpt>
      <trkpt lat="36.401846995577216" lon="-5.438511036336422">
        <ele>21.289999999999999</ele>
        <time>2025-05-09T08:43:52Z</time>
      </trkpt>
      <trkpt lat="36.401975993067026" lon="-5.438558980822563">
        <ele>20.809999999999999</ele>
        <time>2025-05-09T08:43:53Z</time>
      </trkpt>
      <trkpt lat="36.402131980285048" lon="-5.43861597776413">
        <ele>20.32</ele>
        <time>2025-05-09T08:43:54Z</time>
      </trkpt>
      <trkpt lat="36.402635984122753" lon="-5.438799960538745">
        <ele>20.809999999999999</ele>
        <time>2025-05-09T08:43:57Z</time>
      </trkpt>
      <trkpt lat="36.403239984065294" lon="-5.438943039625883">
        <ele>23.690000000000001</ele>
        <time>2025-05-09T08:44:01Z</time>
      </trkpt>
      <trkpt lat="36.403396977111697" lon="-5.43895703740418">
        <ele>24.649999999999999</ele>
        <time>2025-05-09T08:44:02Z</time>
      </trkpt>
      <trkpt lat="36.40430498868227" lon="-5.438737012445927">
        <ele>28.98</ele>
        <time>2025-05-09T08:44:08Z</time>
      </trkpt>
      <trkpt lat="36.404416970908642" lon="-5.438643973320723">
        <ele>29.460000000000001</ele>
        <time>2025-05-09T08:44:09Z</time>
      </trkpt>
      <trkpt lat="36.404550997540355" lon="-5.438532996922731">
        <ele>29.940000000000001</ele>
        <time>2025-05-09T08:44:10Z</time>
      </trkpt>
      <trkpt lat="36.404631966724992" lon="-5.438381033018231">
        <ele>30.420000000000002</ele>
        <time>2025-05-09T08:44:11Z</time>
      </trkpt>
      <trkpt lat="36.404713019728661" lon="-5.438211970031261">
        <ele>30.899999999999999</ele>
        <time>2025-05-09T08:44:12Z</time>
      </trkpt>
      <trkpt lat="36.404763981699944" lon="-5.438036033883691">
        <ele>31.379999999999999</ele>
        <time>2025-05-09T08:44:13Z</time>
      </trkpt>
      <trkpt lat="36.404817039147019" lon="-5.437853978946805">
        <ele>32.340000000000003</ele>
        <time>2025-05-09T08:44:14Z</time>
      </trkpt>
      <trkpt lat="36.405033962801099" lon="-5.436952002346516">
        <ele>32.340000000000003</ele>
        <time>2025-05-09T08:44:19Z</time>
      </trkpt>
      <trkpt lat="36.405123984441161" lon="-5.436795009300113">
        <ele>32.340000000000003</ele>
        <time>2025-05-09T08:44:20Z</time>
      </trkpt>
      <trkpt lat="36.405226998031139" lon="-5.436658971011639">
        <ele>31.859999999999999</ele>
        <time>2025-05-09T08:44:21Z</time>
      </trkpt>
      <trkpt lat="36.405358007177711" lon="-5.436539025977254">
        <ele>31.379999999999999</ele>
        <time>2025-05-09T08:44:22Z</time>
      </trkpt>
      <trkpt lat="36.405489016324282" lon="-5.436452021822333">
        <ele>30.420000000000002</ele>
        <time>2025-05-09T08:44:23Z</time>
      </trkpt>
      <trkpt lat="36.405650032684207" lon="-5.436395024880767">
        <ele>29.940000000000001</ele>
        <time>2025-05-09T08:44:24Z</time>
      </trkpt>
      <trkpt lat="36.40580702573061" lon="-5.436357976868749">
        <ele>28.98</ele>
        <time>2025-05-09T08:44:25Z</time>
      </trkpt>
      <trkpt lat="36.405982039868832" lon="-5.436340039595962">
        <ele>28.5</ele>
        <time>2025-05-09T08:44:26Z</time>
      </trkpt>
      <trkpt lat="36.40737603418529" lon="-5.436174999922514">
        <ele>22.73</ele>
        <time>2025-05-09T08:44:33Z</time>
      </trkpt>
      <trkpt lat="36.408893996849656" lon="-5.435978025197983">
        <ele>22.25</ele>
        <time>2025-05-09T08:44:39Z</time>
      </trkpt>
      <trkpt lat="36.410582028329372" lon="-5.435549039393663">
        <ele>19.84</ele>
        <time>2025-05-09T08:44:47Z</time>
      </trkpt>
      <trkpt lat="36.412370977923274" lon="-5.434788968414068">
        <ele>22.25</ele>
        <time>2025-05-09T08:44:56Z</time>
      </trkpt>
      <trkpt lat="36.413094000890851" lon="-5.434615965932608">
        <ele>24.649999999999999</ele>
        <time>2025-05-09T08:45:00Z</time>
      </trkpt>
      <trkpt lat="36.413259040564299" lon="-5.434624012559652">
        <ele>25.609999999999999</ele>
        <time>2025-05-09T08:45:01Z</time>
      </trkpt>
      <trkpt lat="36.413434976711869" lon="-5.434685032814741">
        <ele>26.57</ele>
        <time>2025-05-09T08:45:02Z</time>
      </trkpt>
      <trkpt lat="36.41485202126205" lon="-5.435535041615367">
        <ele>28.98</ele>
        <time>2025-05-09T08:45:10Z</time>
      </trkpt>
      <trkpt lat="36.415009014308453" lon="-5.435652974992991">
        <ele>28.98</ele>
        <time>2025-05-09T08:45:11Z</time>
      </trkpt>
      <trkpt lat="36.415137005969882" lon="-5.435807034373283">
        <ele>28.5</ele>
        <time>2025-05-09T08:45:12Z</time>
      </trkpt>
      <trkpt lat="36.415256028994918" lon="-5.435968972742558">
        <ele>28.5</ele>
        <time>2025-05-09T08:45:13Z</time>
      </trkpt>
      <trkpt lat="36.415359964594245" lon="-5.436142981052399">
        <ele>28.5</ele>
        <time>2025-05-09T08:45:14Z</time>
      </trkpt>
      <trkpt lat="36.415461972355843" lon="-5.436320006847382">
        <ele>28.02</ele>
        <time>2025-05-09T08:45:15Z</time>
      </trkpt>
      <trkpt lat="36.41599397175014" lon="-5.43724101036787">
        <ele>28.5</ele>
        <time>2025-05-09T08:45:20Z</time>
      </trkpt>
      <trkpt lat="36.41612003557384" lon="-5.437410995364189">
        <ele>28.98</ele>
        <time>2025-05-09T08:45:21Z</time>
      </trkpt>
      <trkpt lat="36.416245009750128" lon="-5.437580980360508">
        <ele>28.98</ele>
        <time>2025-05-09T08:45:22Z</time>
      </trkpt>
      <trkpt lat="36.416388005018234" lon="-5.437720036134124">
        <ele>29.460000000000001</ele>
        <time>2025-05-09T08:45:23Z</time>
      </trkpt>
      <trkpt lat="36.416537035256624" lon="-5.437834030017257">
        <ele>29.940000000000001</ele>
        <time>2025-05-09T08:45:24Z</time>
      </trkpt>
      <trkpt lat="36.416693022474647" lon="-5.437919022515416">
        <ele>29.940000000000001</ele>
        <time>2025-05-09T08:45:25Z</time>
      </trkpt>
      <trkpt lat="36.416855966672301" lon="-5.437960010021925">
        <ele>29.940000000000001</ele>
        <time>2025-05-09T08:45:26Z</time>
      </trkpt>
      <trkpt lat="36.417006002739072" lon="-5.437952969223261">
        <ele>29.940000000000001</ele>
        <time>2025-05-09T08:45:27Z</time>
      </trkpt>
      <trkpt lat="36.417142963036895" lon="-5.437911981716752">
        <ele>29.460000000000001</ele>
        <time>2025-05-09T08:45:28Z</time>
      </trkpt>
      <trkpt lat="36.417267015203834" lon="-5.43779999949038">
        <ele>29.460000000000001</ele>
        <time>2025-05-09T08:45:29Z</time>
      </trkpt>
      <trkpt lat="36.417399030178785" lon="-5.437677958980203">
        <ele>29.460000000000001</ele>
        <time>2025-05-09T08:45:30Z</time>
      </trkpt>
      <trkpt lat="36.417540013790131" lon="-5.437548961490393">
        <ele>29.460000000000001</ele>
        <time>2025-05-09T08:45:31Z</time>
      </trkpt>
      <trkpt lat="36.417682003229856" lon="-5.437417030334473">
        <ele>29.940000000000001</ele>
        <time>2025-05-09T08:45:32Z</time>
      </trkpt>
      <trkpt lat="36.417830027639866" lon="-5.437332959845662">
        <ele>30.420000000000002</ele>
        <time>2025-05-09T08:45:33Z</time>
      </trkpt>
      <trkpt lat="36.41796899959445" lon="-5.437254002317786">
        <ele>30.420000000000002</ele>
        <time>2025-05-09T08:45:34Z</time>
      </trkpt>
      <trkpt lat="36.418111994862556" lon="-5.437252996489406">
        <ele>30.899999999999999</ele>
        <time>2025-05-09T08:45:35Z</time>
      </trkpt>
      <trkpt lat="36.41826999373734" lon="-5.43726297095418">
        <ele>30.899999999999999</ele>
        <time>2025-05-09T08:45:36Z</time>
      </trkpt>
      <trkpt lat="36.418417012318969" lon="-5.437330026179552">
        <ele>31.379999999999999</ele>
        <time>2025-05-09T08:45:37Z</time>
      </trkpt>
      <trkpt lat="36.418562019243836" lon="-5.437441002577543">
        <ele>31.859999999999999</ele>
        <time>2025-05-09T08:45:38Z</time>
      </trkpt>
      <trkpt lat="36.418697973713279" lon="-5.437591960653663">
        <ele>32.82</ele>
        <time>2025-05-09T08:45:39Z</time>
      </trkpt>
      <trkpt lat="36.418833006173372" lon="-5.437744008377194">
        <ele>33.299999999999997</ele>
        <time>2025-05-09T08:45:40Z</time>
      </trkpt>
      <trkpt lat="36.419184962287545" lon="-5.438137035816908">
        <ele>35.229999999999997</ele>
        <time>2025-05-09T08:45:43Z</time>
      </trkpt>
      <trkpt lat="36.419293005019426" lon="-5.438237031921744">
        <ele>36.189999999999998</ele>
        <time>2025-05-09T08:45:44Z</time>
      </trkpt>
      <trkpt lat="36.419414039701223" lon="-5.438264021649957">
        <ele>36.670000000000002</ele>
        <time>2025-05-09T08:45:45Z</time>
      </trkpt>
      <trkpt lat="36.419546976685524" lon="-5.438248012214899">
        <ele>37.149999999999999</ele>
        <time>2025-05-09T08:45:46Z</time>
      </trkpt>
      <trkpt lat="36.419676980003715" lon="-5.438204007223249">
        <ele>37.630000000000003</ele>
        <time>2025-05-09T08:45:47Z</time>
      </trkpt>
      <trkpt lat="36.419805977493525" lon="-5.438133012503386">
        <ele>38.590000000000003</ele>
        <time>2025-05-09T08:45:48Z</time>
      </trkpt>
      <trkpt lat="36.419917959719896" lon="-5.43805799447">
        <ele>39.07</ele>
        <time>2025-05-09T08:45:49Z</time>
      </trkpt>
      <trkpt lat="36.420644000172615" lon="-5.43751903809607">
        <ele>41.950000000000003</ele>
        <time>2025-05-09T08:45:57Z</time>
      </trkpt>
      <trkpt lat="36.420779032632709" lon="-5.437394985929132">
        <ele>41.469999999999999</ele>
        <time>2025-05-09T08:45:59Z</time>
      </trkpt>
      <trkpt lat="36.420829994603992" lon="-5.437314016744494">
        <ele>41.469999999999999</ele>
        <time>2025-05-09T08:46:00Z</time>
      </trkpt>
      <trkpt lat="36.420881962403655" lon="-5.437232963740826">
        <ele>41.469999999999999</ele>
        <time>2025-05-09T08:46:01Z</time>
      </trkpt>
      <trkpt lat="36.42095597460866" lon="-5.437079994007945">
        <ele>41.469999999999999</ele>
        <time>2025-05-09T08:46:03Z</time>
      </trkpt>
      <trkpt lat="36.420986987650394" lon="-5.437011010944843">
        <ele>41.469999999999999</ele>
        <time>2025-05-09T08:46:04Z</time>
      </trkpt>
      <trkpt lat="36.421365011483431" lon="-5.436113979667425">
        <ele>41.950000000000003</ele>
        <time>2025-05-09T08:46:16Z</time>
      </trkpt>
      <trkpt lat="36.421715039759874" lon="-5.43526497669518">
        <ele>42.439999999999998</ele>
        <time>2025-05-09T08:46:25Z</time>
      </trkpt>
      <trkpt lat="36.421840013936162" lon="-5.434987032786012">
        <ele>42.439999999999998</ele>
        <time>2025-05-09T08:46:28Z</time>
      </trkpt>
      <trkpt lat="36.421958031132817" lon="-5.434857029467821">
        <ele>42.920000000000002</ele>
        <time>2025-05-09T08:46:30Z</time>
      </trkpt>
      <trkpt lat="36.4220280200243" lon="-5.434802966192365">
        <ele>42.920000000000002</ele>
        <time>2025-05-09T08:46:31Z</time>
      </trkpt>
      <trkpt lat="36.422089040279388" lon="-5.434772958979011">
        <ele>43.399999999999999</ele>
        <time>2025-05-09T08:46:32Z</time>
      </trkpt>
      <trkpt lat="36.422170009464025" lon="-5.434758039191365">
        <ele>43.880000000000003</ele>
        <time>2025-05-09T08:46:33Z</time>
      </trkpt>
      <trkpt lat="36.422249972820282" lon="-5.434743035584688">
        <ele>43.880000000000003</ele>
        <time>2025-05-09T08:46:34Z</time>
      </trkpt>
      <trkpt lat="36.42232901416719" lon="-5.434730965644121">
        <ele>44.359999999999999</ele>
        <time>2025-05-09T08:46:35Z</time>
      </trkpt>
      <trkpt lat="36.422411995008588" lon="-5.434720991179347">
        <ele>44.359999999999999</ele>
        <time>2025-05-09T08:46:36Z</time>
      </trkpt>
      <trkpt lat="36.42250101082027" lon="-5.434711016714573">
        <ele>44.359999999999999</ele>
        <time>2025-05-09T08:46:37Z</time>
      </trkpt>
      <trkpt lat="36.422580974176526" lon="-5.434701964259148">
        <ele>44.359999999999999</ele>
        <time>2025-05-09T08:46:38Z</time>
      </trkpt>
      <trkpt lat="36.422656998038292" lon="-5.434692995622754">
        <ele>44.840000000000003</ele>
        <time>2025-05-09T08:46:39Z</time>
      </trkpt>
      <trkpt lat="36.422912981361151" lon="-5.434681009501219">
        <ele>45.32</ele>
        <time>2025-05-09T08:46:42Z</time>
      </trkpt>
      <trkpt lat="36.423305002972484" lon="-5.434713028371334">
        <ele>45.32</ele>
        <time>2025-05-09T08:46:47Z</time>
      </trkpt>
      <trkpt lat="36.423473982140422" lon="-5.434782011434436">
        <ele>46.280000000000001</ele>
        <time>2025-05-09T08:46:49Z</time>
      </trkpt>
      <trkpt lat="36.423644972965121" lon="-5.434846971184015">
        <ele>46.280000000000001</ele>
        <time>2025-05-09T08:46:51Z</time>
      </trkpt>
      <trkpt lat="36.4237289596349" lon="-5.434893993660808">
        <ele>46.280000000000001</ele>
        <time>2025-05-09T08:46:52Z</time>
      </trkpt>
      <trkpt lat="36.423957031220198" lon="-5.435072025284171">
        <ele>45.32</ele>
        <time>2025-05-09T08:46:55Z</time>
      </trkpt>
      <trkpt lat="36.42437101341784" lon="-5.435472009703517">
        <ele>43.399999999999999</ele>
        <time>2025-05-09T08:47:01Z</time>
      </trkpt>
      <trkpt lat="36.424425998702645" lon="-5.435561025515199">
        <ele>42.920000000000002</ele>
        <time>2025-05-09T08:47:02Z</time>
      </trkpt>
      <trkpt lat="36.425021030008793" lon="-5.436515975743532">
        <ele>36.189999999999998</ele>
        <time>2025-05-09T08:47:13Z</time>
      </trkpt>
      <trkpt lat="36.425106022506952" lon="-5.436582025140524">
        <ele>35.710000000000001</ele>
        <time>2025-05-09T08:47:14Z</time>
      </trkpt>
      <trkpt lat="36.425180034711957" lon="-5.436640027910471">
        <ele>35.229999999999997</ele>
        <time>2025-05-09T08:47:15Z</time>
      </trkpt>
      <trkpt lat="36.425257986411452" lon="-5.436699958518148">
        <ele>34.740000000000002</ele>
        <time>2025-05-09T08:47:16Z</time>
      </trkpt>
      <trkpt lat="36.425336021929979" lon="-5.436760978773236">
        <ele>34.259999999999998</ele>
        <time>2025-05-09T08:47:17Z</time>
      </trkpt>
      <trkpt lat="36.425417996942997" lon="-5.436820993199945">
        <ele>33.780000000000001</ele>
        <time>2025-05-09T08:47:18Z</time>
      </trkpt>
      <trkpt lat="36.426096009090543" lon="-5.437187030911446">
        <ele>31.859999999999999</ele>
        <time>2025-05-09T08:47:27Z</time>
      </trkpt>
      <trkpt lat="36.426171027123928" lon="-5.437232963740826">
        <ele>31.859999999999999</ele>
        <time>2025-05-09T08:47:28Z</time>
      </trkpt>
      <trkpt lat="36.426245039328933" lon="-5.437278980389237">
        <ele>31.859999999999999</ele>
        <time>2025-05-09T08:47:29Z</time>
      </trkpt>
      <trkpt lat="36.426315028220415" lon="-5.437321979552507">
        <ele>31.379999999999999</ele>
        <time>2025-05-09T08:47:30Z</time>
      </trkpt>
      <trkpt lat="36.426356015726924" lon="-5.437395991757512">
        <ele>31.379999999999999</ele>
        <time>2025-05-09T08:47:31Z</time>
      </trkpt>
      <trkpt lat="36.426388034597039" lon="-5.4374760389328">
        <ele>31.379999999999999</ele>
        <time>2025-05-09T08:47:32Z</time>
      </trkpt>
      <trkpt lat="36.426420975476503" lon="-5.437559019774199">
        <ele>31.379999999999999</ele>
        <time>2025-05-09T08:47:33Z</time>
      </trkpt>
      <trkpt lat="36.426600012928247" lon="-5.438023963943124">
        <ele>30.899999999999999</ele>
        <time>2025-05-09T08:47:38Z</time>
      </trkpt>
      <trkpt lat="36.426634965464473" lon="-5.438113985583186">
        <ele>30.420000000000002</ele>
        <time>2025-05-09T08:47:39Z</time>
      </trkpt>
      <trkpt lat="36.426824983209372" lon="-5.438537020236254">
        <ele>28.5</ele>
        <time>2025-05-09T08:47:46Z</time>
      </trkpt>
      <trkpt lat="36.426835041493177" lon="-5.438560992479324">
        <ele>28.5</ele>
        <time>2025-05-09T08:47:47Z</time>
      </trkpt>
      <trkpt lat="36.426845015957952" lon="-5.438583036884666">
        <ele>28.5</ele>
        <time>2025-05-09T08:47:48Z</time>
      </trkpt>
      <trkpt lat="36.426852978765965" lon="-5.438600974157453">
        <ele>28.5</ele>
        <time>2025-05-09T08:47:49Z</time>
      </trkpt>
      <trkpt lat="36.427024975419044" lon="-5.438428977504373">
        <ele>28.98</ele>
        <time>2025-05-09T08:47:56Z</time>
      </trkpt>
      <trkpt lat="36.4269910287112" lon="-5.438391007483006">
        <ele>29.460000000000001</ele>
        <time>2025-05-09T08:48:09Z</time>
      </trkpt>
      <trkpt lat="36.4269910287112" lon="-5.438391007483006">
        <ele>29.460000000000001</ele>
        <time>2025-05-09T08:48:31Z</time>
      </trkpt>
      <trkpt lat="36.426982982084155" lon="-5.438396958634257">
        <ele>29.940000000000001</ele>
        <time>2025-05-09T08:49:27Z</time>
      </trkpt>
      <trkpt lat="36.426982982084155" lon="-5.438396958634257">
        <ele>29.940000000000001</ele>
        <time>2025-05-09T08:49:43Z</time>
      </trkpt>
      <trkpt lat="36.426920033991337" lon="-5.438480023294687">
        <ele>28.5</ele>
        <time>2025-05-09T08:50:00Z</time>
      </trkpt>
      <trkpt lat="36.426919028162956" lon="-5.438483040779829">
        <ele>27.530000000000001</ele>
        <time>2025-05-09T08:50:34Z</time>
      </trkpt>
      <trkpt lat="36.426845015957952" lon="-5.438582031056285">
        <ele>26.57</ele>
        <time>2025-05-09T08:50:36Z</time>
      </trkpt>
      <trkpt lat="36.426878962665796" lon="-5.438657971099019">
        <ele>27.050000000000001</ele>
        <time>2025-05-09T08:50:37Z</time>
      </trkpt>
      <trkpt lat="36.427280958741903" lon="-5.439283009618521">
        <ele>27.050000000000001</ele>
        <time>2025-05-09T08:50:43Z</time>
      </trkpt>
      <trkpt lat="36.428317967802286" lon="-5.440981015563011">
        <ele>28.02</ele>
        <time>2025-05-09T08:50:55Z</time>
      </trkpt>
      <trkpt lat="36.428963961079717" lon="-5.441965973004699">
        <ele>28.98</ele>
        <time>2025-05-09T08:51:03Z</time>
      </trkpt>
      <trkpt lat="36.429043002426624" lon="-5.442054988816381">
        <ele>28.5</ele>
        <time>2025-05-09T08:51:04Z</time>
      </trkpt>
      <trkpt lat="36.429130006581545" lon="-5.442121038213372">
        <ele>28.5</ele>
        <time>2025-05-09T08:51:05Z</time>
      </trkpt>
      <trkpt lat="36.429222039878368" lon="-5.442162025719881">
        <ele>28.5</ele>
        <time>2025-05-09T08:51:06Z</time>
      </trkpt>
      <trkpt lat="36.429318012669683" lon="-5.442202007398009">
        <ele>28.02</ele>
        <time>2025-05-09T08:51:07Z</time>
      </trkpt>
      <trkpt lat="36.429410967975855" lon="-5.442207958549261">
        <ele>27.530000000000001</ele>
        <time>2025-05-09T08:51:08Z</time>
      </trkpt>
      <trkpt lat="36.429504007101059" lon="-5.442213993519545">
        <ele>27.530000000000001</ele>
        <time>2025-05-09T08:51:09Z</time>
      </trkpt>
      <trkpt lat="36.429597968235612" lon="-5.442220028489828">
        <ele>27.050000000000001</ele>
        <time>2025-05-09T08:51:10Z</time>
      </trkpt>
      <trkpt lat="36.429874990135431" lon="-5.442236959934235">
        <ele>27.050000000000001</ele>
        <time>2025-05-09T08:51:13Z</time>
      </trkpt>
      <trkpt lat="36.431097993627191" lon="-5.442308960482478">
        <ele>26.57</ele>
        <time>2025-05-09T08:51:23Z</time>
      </trkpt>
      <trkpt lat="36.432803962379694" lon="-5.442499984055758">
        <ele>29.460000000000001</ele>
        <time>2025-05-09T08:51:34Z</time>
      </trkpt>
      <trkpt lat="36.433105962350965" lon="-5.442584976553917">
        <ele>29.940000000000001</ele>
        <time>2025-05-09T08:51:36Z</time>
      </trkpt>
      <trkpt lat="36.433254992589355" lon="-5.442629987373948">
        <ele>30.420000000000002</ele>
        <time>2025-05-09T08:51:37Z</time>
      </trkpt>
      <trkpt lat="36.433407040312886" lon="-5.442674998193979">
        <ele>30.899999999999999</ele>
        <time>2025-05-09T08:51:38Z</time>
      </trkpt>
      <trkpt lat="36.434746971353889" lon="-5.443218983709812">
        <ele>36.670000000000002</ele>
        <time>2025-05-09T08:51:47Z</time>
      </trkpt>
      <trkpt lat="36.435693958774209" lon="-5.443515032529831">
        <ele>40.509999999999998</ele>
        <time>2025-05-09T08:51:53Z</time>
      </trkpt>
      <trkpt lat="36.43625495955348" lon="-5.443593990057707">
        <ele>41.469999999999999</ele>
        <time>2025-05-09T08:51:56Z</time>
      </trkpt>
      <trkpt lat="36.436436008661985" lon="-5.443631038069725">
        <ele>41.950000000000003</ele>
        <time>2025-05-09T08:51:57Z</time>
      </trkpt>
      <trkpt lat="36.43773696385324" lon="-5.444019958376885">
        <ele>42.439999999999998</ele>
        <time>2025-05-09T08:52:05Z</time>
      </trkpt>
      <trkpt lat="36.438590995967388" lon="-5.444315001368523">
        <ele>41.950000000000003</ele>
        <time>2025-05-09T08:52:12Z</time>
      </trkpt>
      <trkpt lat="36.438713036477566" lon="-5.444345008581877">
        <ele>41.950000000000003</ele>
        <time>2025-05-09T08:52:13Z</time>
      </trkpt>
      <trkpt lat="36.438842033967376" lon="-5.444328999146819">
        <ele>42.439999999999998</ele>
        <time>2025-05-09T08:52:14Z</time>
      </trkpt>
      <trkpt lat="36.438976982608438" lon="-5.444284994155169">
        <ele>42.920000000000002</ele>
        <time>2025-05-09T08:52:15Z</time>
      </trkpt>
      <trkpt lat="36.439114026725292" lon="-5.444235960021615">
        <ele>43.399999999999999</ele>
        <time>2025-05-09T08:52:16Z</time>
      </trkpt>
      <trkpt lat="36.439989013597369" lon="-5.443838993087411">
        <ele>48.200000000000003</ele>
        <time>2025-05-09T08:52:22Z</time>
      </trkpt>
      <trkpt lat="36.441096011549234" lon="-5.442950008437038">
        <ele>52.530000000000001</ele>
        <time>2025-05-09T08:52:30Z</time>
      </trkpt>
      <trkpt lat="36.441591968759894" lon="-5.44256703928113">
        <ele>52.530000000000001</ele>
        <time>2025-05-09T08:52:34Z</time>
      </trkpt>
      <trkpt lat="36.441717026755214" lon="-5.44256703928113">
        <ele>52.530000000000001</ele>
        <time>2025-05-09T08:52:35Z</time>
      </trkpt>
      <trkpt lat="36.441887011751533" lon="-5.44256703928113">
        <ele>52.530000000000001</ele>
        <time>2025-05-09T08:52:36Z</time>
      </trkpt>
      <trkpt lat="36.441996982321143" lon="-5.442604003474116">
        <ele>53.009999999999998</ele>
        <time>2025-05-09T08:52:37Z</time>
      </trkpt>
      <trkpt lat="36.442149030044675" lon="-5.442653959617019">
        <ele>53.490000000000002</ele>
        <time>2025-05-09T08:52:38Z</time>
      </trkpt>
      <trkpt lat="36.442309962585568" lon="-5.442708022892475">
        <ele>54.450000000000003</ele>
        <time>2025-05-09T08:52:39Z</time>
      </trkpt>
      <trkpt lat="36.442466033622622" lon="-5.442759990692139">
        <ele>54.93</ele>
        <time>2025-05-09T08:52:40Z</time>
      </trkpt>
      <trkpt lat="36.44261104054749" lon="-5.442759990692139">
        <ele>55.890000000000001</ele>
        <time>2025-05-09T08:52:41Z</time>
      </trkpt>
      <trkpt lat="36.442746995016932" lon="-5.442692013457418">
        <ele>56.369999999999997</ele>
        <time>2025-05-09T08:52:42Z</time>
      </trkpt>
      <trkpt lat="36.442882027477026" lon="-5.442596962675452">
        <ele>56.859999999999999</ele>
        <time>2025-05-09T08:52:43Z</time>
      </trkpt>
      <trkpt lat="36.443023011088371" lon="-5.442489003762603">
        <ele>57.340000000000003</ele>
        <time>2025-05-09T08:52:44Z</time>
      </trkpt>
      <trkpt lat="36.443334985524416" lon="-5.442249029874802">
        <ele>58.780000000000001</ele>
        <time>2025-05-09T08:52:46Z</time>
      </trkpt>
      <trkpt lat="36.444230005145073" lon="-5.441490970551968">
        <ele>63.100000000000001</ele>
        <time>2025-05-09T08:52:52Z</time>
      </trkpt>
      <trkpt lat="36.444321032613516" lon="-5.441338000819087">
        <ele>63.579999999999998</ele>
        <time>2025-05-09T08:52:53Z</time>
      </trkpt>
      <trkpt lat="36.444400995969772" lon="-5.441191988065839">
        <ele>64.549999999999997</ele>
        <time>2025-05-09T08:52:54Z</time>
      </trkpt>
      <trkpt lat="36.444475008174777" lon="-5.441057961434126">
        <ele>65.510000000000005</ele>
        <time>2025-05-09T08:52:55Z</time>
      </trkpt>
      <trkpt lat="36.444556983187795" lon="-5.440955031663179">
        <ele>66.469999999999999</ele>
        <time>2025-05-09T08:52:56Z</time>
      </trkpt>
      <trkpt lat="36.444666031748056" lon="-5.440922006964684">
        <ele>67.430000000000007</ele>
        <time>2025-05-09T08:52:57Z</time>
      </trkpt>
      <trkpt lat="36.444782037287951" lon="-5.440932987257838">
        <ele>68.390000000000001</ele>
        <time>2025-05-09T08:52:58Z</time>
      </trkpt>
      <trkpt lat="36.44491002894938" lon="-5.440944973379374">
        <ele>69.829999999999998</ele>
        <time>2025-05-09T08:52:59Z</time>
      </trkpt>
      <trkpt lat="36.445042965933681" lon="-5.440956959500909">
        <ele>70.790000000000006</ele>
        <time>2025-05-09T08:53:00Z</time>
      </trkpt>
      <trkpt lat="36.445172969251871" lon="-5.440969029441476">
        <ele>71.760000000000005</ele>
        <time>2025-05-09T08:53:01Z</time>
      </trkpt>
      <trkpt lat="36.445299033075571" lon="-5.440961988642812">
        <ele>72.719999999999999</ele>
        <time>2025-05-09T08:53:02Z</time>
      </trkpt>
      <trkpt lat="36.445423001423478" lon="-5.440864004194737">
        <ele>74.159999999999997</ele>
        <time>2025-05-09T08:53:03Z</time>
      </trkpt>
      <trkpt lat="36.44555602222681" lon="-5.440758978947997">
        <ele>75.120000000000005</ele>
        <time>2025-05-09T08:53:04Z</time>
      </trkpt>
      <trkpt lat="36.445691976696253" lon="-5.440652025863528">
        <ele>76.560000000000002</ele>
        <time>2025-05-09T08:53:05Z</time>
      </trkpt>
      <trkpt lat="36.445946032181382" lon="-5.440452033653855">
        <ele>78.480000000000004</ele>
        <time>2025-05-09T08:53:07Z</time>
      </trkpt>
      <trkpt lat="36.44607100635767" lon="-5.440384978428483">
        <ele>78.969999999999999</ele>
        <time>2025-05-09T08:53:08Z</time>
      </trkpt>
      <trkpt lat="36.446198998019099" lon="-5.440329993143678">
        <ele>79.930000000000007</ele>
        <time>2025-05-09T08:53:09Z</time>
      </trkpt>
      <trkpt lat="36.446332018822432" lon="-5.440292023122311">
        <ele>80.890000000000001</ele>
        <time>2025-05-09T08:53:10Z</time>
      </trkpt>
      <trkpt lat="36.446469984948635" lon="-5.440292023122311">
        <ele>81.849999999999994</ele>
        <time>2025-05-09T08:53:11Z</time>
      </trkpt>
      <trkpt lat="36.44661096855998" lon="-5.440320018678904">
        <ele>82.329999999999998</ele>
        <time>2025-05-09T08:53:12Z</time>
      </trkpt>
      <trkpt lat="36.446744995191693" lon="-5.440353965386748">
        <ele>83.290000000000006</ele>
        <time>2025-05-09T08:53:13Z</time>
      </trkpt>
      <trkpt lat="36.446873992681503" lon="-5.440385984256864">
        <ele>84.25</ele>
        <time>2025-05-09T08:53:14Z</time>
      </trkpt>
      <trkpt lat="36.447100974619389" lon="-5.44044298119843">
        <ele>86.180000000000007</ele>
        <time>2025-05-09T08:53:16Z</time>
      </trkpt>
      <trkpt lat="36.447202982380986" lon="-5.440459996461868">
        <ele>86.659999999999997</ele>
        <time>2025-05-09T08:53:17Z</time>
      </trkpt>
      <trkpt lat="36.447298033162951" lon="-5.440438035875559">
        <ele>87.140000000000001</ele>
        <time>2025-05-09T08:53:18Z</time>
      </trkpt>
      <trkpt lat="36.447385037317872" lon="-5.440418003126979">
        <ele>87.620000000000005</ele>
        <time>2025-05-09T08:53:19Z</time>
      </trkpt>
      <trkpt lat="36.44746801815927" lon="-5.440397970378399">
        <ele>88.099999999999994</ele>
        <time>2025-05-09T08:53:20Z</time>
      </trkpt>
      <trkpt lat="36.447559967637062" lon="-5.440368968993425">
        <ele>88.579999999999998</ele>
        <time>2025-05-09T08:53:21Z</time>
      </trkpt>
      <trkpt lat="36.447625011205673" lon="-5.440295040607452">
        <ele>89.060000000000002</ele>
        <time>2025-05-09T08:53:22Z</time>
      </trkpt>
      <trkpt lat="36.44770204089582" lon="-5.440207030624151">
        <ele>89.540000000000006</ele>
        <time>2025-05-09T08:53:23Z</time>
      </trkpt>
      <trkpt lat="36.447744034230709" lon="-5.440094964578748">
        <ele>90.019999999999996</ele>
        <time>2025-05-09T08:53:24Z</time>
      </trkpt>
      <trkpt lat="36.447775969281793" lon="-5.439959010109305">
        <ele>90.5</ele>
        <time>2025-05-09T08:53:25Z</time>
      </trkpt>
      <trkpt lat="36.447793990373611" lon="-5.439810985699296">
        <ele>90.980000000000004</ele>
        <time>2025-05-09T08:53:26Z</time>
      </trkpt>
      <trkpt lat="36.44781100563705" lon="-5.439651980996132">
        <ele>91.459999999999994</ele>
        <time>2025-05-09T08:53:27Z</time>
      </trkpt>
      <trkpt lat="36.447825003415346" lon="-5.439354004338384">
        <ele>92.900000000000006</ele>
        <time>2025-05-09T08:53:29Z</time>
      </trkpt>
      <trkpt lat="36.44783397205174" lon="-5.439229030162096">
        <ele>93.390000000000001</ele>
        <time>2025-05-09T08:53:30Z</time>
      </trkpt>
      <trkpt lat="36.447870014235377" lon="-5.439083017408848">
        <ele>94.349999999999994</ele>
        <time>2025-05-09T08:53:31Z</time>
      </trkpt>
      <trkpt lat="36.448143012821674" lon="-5.438036033883691">
        <ele>98.189999999999998</ele>
        <time>2025-05-09T08:53:36Z</time>
      </trkpt>
      <trkpt lat="36.448431015014648" lon="-5.43700598180294">
        <ele>103</ele>
        <time>2025-05-09T08:53:43Z</time>
      </trkpt>
      <trkpt lat="36.448523970320821" lon="-5.436772964894772">
        <ele>103.95999999999999</ele>
        <time>2025-05-09T08:53:45Z</time>
      </trkpt>
      <trkpt lat="36.448593037202954" lon="-5.436679003760219">
        <ele>104.44</ele>
        <time>2025-05-09T08:53:46Z</time>
      </trkpt>
      <trkpt lat="36.448683980852365" lon="-5.436593005433679">
        <ele>104.92</ele>
        <time>2025-05-09T08:53:47Z</time>
      </trkpt>
      <trkpt lat="36.448796968907118" lon="-5.436487980186939">
        <ele>104.92</ele>
        <time>2025-05-09T08:53:48Z</time>
      </trkpt>
      <trkpt lat="36.448941975831985" lon="-5.436366023495793">
        <ele>105.40000000000001</ele>
        <time>2025-05-09T08:53:49Z</time>
      </trkpt>
      <trkpt lat="36.449113972485065" lon="-5.436242977157235">
        <ele>105.40000000000001</ele>
        <time>2025-05-09T08:53:50Z</time>
      </trkpt>
      <trkpt lat="36.450505033135414" lon="-5.435261037200689">
        <ele>106.36</ele>
        <time>2025-05-09T08:53:58Z</time>
      </trkpt>
      <trkpt lat="36.450939970090985" lon="-5.434908997267485">
        <ele>106.84</ele>
        <time>2025-05-09T08:54:01Z</time>
      </trkpt>
      <trkpt lat="36.451015993952751" lon="-5.434758961200714">
        <ele>106.84</ele>
        <time>2025-05-09T08:54:02Z</time>
      </trkpt>
      <trkpt lat="36.451070979237556" lon="-5.434628035873175">
        <ele>106.84</ele>
        <time>2025-05-09T08:54:03Z</time>
      </trkpt>
      <trkpt lat="36.451070979237556" lon="-5.434494009241462">
        <ele>106.84</ele>
        <time>2025-05-09T08:54:04Z</time>
      </trkpt>
      <trkpt lat="36.451055975630879" lon="-5.434373980388045">
        <ele>107.31999999999999</ele>
        <time>2025-05-09T08:54:05Z</time>
      </trkpt>
      <trkpt lat="36.451008031144738" lon="-5.434238025918603">
        <ele>107.81</ele>
        <time>2025-05-09T08:54:06Z</time>
      </trkpt>
      <trkpt lat="36.450915997847915" lon="-5.434122020378709">
        <ele>108.77</ele>
        <time>2025-05-09T08:54:07Z</time>
      </trkpt>
      <trkpt lat="36.450814995914698" lon="-5.433994028717279">
        <ele>109.25</ele>
        <time>2025-05-09T08:54:08Z</time>
      </trkpt>
      <trkpt lat="36.450706031173468" lon="-5.433856984600425">
        <ele>109.73</ele>
        <time>2025-05-09T08:54:09Z</time>
      </trkpt>
      <trkpt lat="36.450612992048264" lon="-5.433707032352686">
        <ele>110.20999999999999</ele>
        <time>2025-05-09T08:54:10Z</time>
      </trkpt>
      <trkpt lat="36.450575022026896" lon="-5.433496981859207">
        <ele>111.17</ele>
        <time>2025-05-09T08:54:11Z</time>
      </trkpt>
      <trkpt lat="36.450534034520388" lon="-5.433268994092941">
        <ele>111.65000000000001</ele>
        <time>2025-05-09T08:54:12Z</time>
      </trkpt>
      <trkpt lat="36.450492041185498" lon="-5.433032959699631">
        <ele>112.13</ele>
        <time>2025-05-09T08:54:13Z</time>
      </trkpt>
      <trkpt lat="36.450437977910042" lon="-5.432607997208834">
        <ele>112.61</ele>
        <time>2025-05-09T08:54:15Z</time>
      </trkpt>
      <trkpt lat="36.450469996780157" lon="-5.432415967807174">
        <ele>112.61</ele>
        <time>2025-05-09T08:54:16Z</time>
      </trkpt>
      <trkpt lat="36.45051802508533" lon="-5.432237014174461">
        <ele>113.09</ele>
        <time>2025-05-09T08:54:17Z</time>
      </trkpt>
      <trkpt lat="36.450609974563122" lon="-5.432057976722717">
        <ele>113.09</ele>
        <time>2025-05-09T08:54:18Z</time>
      </trkpt>
      <trkpt lat="36.450703013688326" lon="-5.431878017261624">
        <ele>113.09</ele>
        <time>2025-05-09T08:54:19Z</time>
      </trkpt>
      <trkpt lat="36.450794963166118" lon="-5.43169897980988">
        <ele>113.09</ele>
        <time>2025-05-09T08:54:20Z</time>
      </trkpt>
      <trkpt lat="36.451010964810848" lon="-5.431399997323751">
        <ele>112.61</ele>
        <time>2025-05-09T08:54:22Z</time>
      </trkpt>
      <trkpt lat="36.451129987835884" lon="-5.431270999833942">
        <ele>112.13</ele>
        <time>2025-05-09T08:54:23Z</time>
      </trkpt>
      <trkpt lat="36.451283963397145" lon="-5.431189024820924">
        <ele>112.13</ele>
        <time>2025-05-09T08:54:24Z</time>
      </trkpt>
      <trkpt lat="36.45219499245286" lon="-5.430645039305091">
        <ele>109.73</ele>
        <time>2025-05-09T08:54:30Z</time>
      </trkpt>
      <trkpt lat="36.452293982729316" lon="-5.430529033765197">
        <ele>109.25</ele>
        <time>2025-05-09T08:54:31Z</time>
      </trkpt>
      <trkpt lat="36.452384004369378" lon="-5.430348990485072">
        <ele>108.77</ele>
        <time>2025-05-09T08:54:32Z</time>
      </trkpt>
      <trkpt lat="36.452465979382396" lon="-5.430185040459037">
        <ele>108.29000000000001</ele>
        <time>2025-05-09T08:54:33Z</time>
      </trkpt>
      <trkpt lat="36.452546026557684" lon="-5.430024024099112">
        <ele>107.81</ele>
        <time>2025-05-09T08:54:34Z</time>
      </trkpt>
      <trkpt lat="36.452621966600418" lon="-5.42987298220396">
        <ele>107.31999999999999</ele>
        <time>2025-05-09T08:54:35Z</time>
      </trkpt>
      <trkpt lat="36.452719029039145" lon="-5.429760999977589">
        <ele>106.84</ele>
        <time>2025-05-09T08:54:36Z</time>
      </trkpt>
      <trkpt lat="36.452808966860175" lon="-5.429670978337526">
        <ele>106.36</ele>
        <time>2025-05-09T08:54:37Z</time>
      </trkpt>
      <trkpt lat="36.452949028462172" lon="-5.429642982780933">
        <ele>105.88</ele>
        <time>2025-05-09T08:54:38Z</time>
      </trkpt>
      <trkpt lat="36.453090012073517" lon="-5.429615993052721">
        <ele>105.40000000000001</ele>
        <time>2025-05-09T08:54:39Z</time>
      </trkpt>
      <trkpt lat="36.453238036483526" lon="-5.429589003324509">
        <ele>104.92</ele>
        <time>2025-05-09T08:54:40Z</time>
      </trkpt>
      <trkpt lat="36.453383965417743" lon="-5.429562013596296">
        <ele>104.44</ele>
        <time>2025-05-09T08:54:41Z</time>
      </trkpt>
      <trkpt lat="36.453495025634766" lon="-5.429541980847716">
        <ele>103.48</ele>
        <time>2025-05-09T08:54:42Z</time>
      </trkpt>
      <trkpt lat="36.453612959012389" lon="-5.429423963651061">
        <ele>103</ele>
        <time>2025-05-09T08:54:43Z</time>
      </trkpt>
      <trkpt lat="36.45369996316731" lon="-5.429299995303154">
        <ele>102.52</ele>
        <time>2025-05-09T08:54:44Z</time>
      </trkpt>
      <trkpt lat="36.453777998685837" lon="-5.429133027791977">
        <ele>102.04000000000001</ele>
        <time>2025-05-09T08:54:45Z</time>
      </trkpt>
      <trkpt lat="36.453842958435416" lon="-5.428954996168613">
        <ele>101.56</ele>
        <time>2025-05-09T08:54:46Z</time>
      </trkpt>
      <trkpt lat="36.453941026702523" lon="-5.428593987599015">
        <ele>100.11</ele>
        <time>2025-05-09T08:54:48Z</time>
      </trkpt>
      <trkpt lat="36.45395795814693" lon="-5.428402964025736">
        <ele>99.629999999999995</ele>
        <time>2025-05-09T08:54:49Z</time>
      </trkpt>
      <trkpt lat="36.453971033915877" lon="-5.428201965987682">
        <ele>98.670000000000002</ele>
        <time>2025-05-09T08:54:50Z</time>
      </trkpt>
      <trkpt lat="36.453988971188664" lon="-5.426440006121993">
        <ele>90.5</ele>
        <time>2025-05-09T08:54:59Z</time>
      </trkpt>
      <trkpt lat="36.454006992280483" lon="-5.426044967025518">
        <ele>87.620000000000005</ele>
        <time>2025-05-09T08:55:02Z</time>
      </trkpt>
      <trkpt lat="36.454027025029063" lon="-5.425922004505992">
        <ele>86.659999999999997</ele>
        <time>2025-05-09T08:55:03Z</time>
      </trkpt>
      <trkpt lat="36.454101037234068" lon="-5.425814967602491">
        <ele>85.689999999999998</ele>
        <time>2025-05-09T08:55:04Z</time>
      </trkpt>
      <trkpt lat="36.454188963398337" lon="-5.425712959840894">
        <ele>84.730000000000004</ele>
        <time>2025-05-09T08:55:05Z</time>
      </trkpt>
      <trkpt lat="36.454311003908515" lon="-5.425571976229549">
        <ele>83.769999999999996</ele>
        <time>2025-05-09T08:55:06Z</time>
      </trkpt>
      <trkpt lat="36.454414017498493" lon="-5.425493018701673">
        <ele>82.810000000000002</ele>
        <time>2025-05-09T08:55:07Z</time>
      </trkpt>
      <trkpt lat="36.455413978546858" lon="-5.424720039591193">
        <ele>78.969999999999999</ele>
        <time>2025-05-09T08:55:13Z</time>
      </trkpt>
      <trkpt lat="36.456850972026587" lon="-5.423564007505775">
        <ele>75.120000000000005</ele>
        <time>2025-05-09T08:55:22Z</time>
      </trkpt>
      <trkpt lat="36.457591010257602" lon="-5.423048017546535">
        <ele>75.120000000000005</ele>
        <time>2025-05-09T08:55:27Z</time>
      </trkpt>
      <trkpt lat="36.457739034667611" lon="-5.422984985634685">
        <ele>75.120000000000005</ele>
        <time>2025-05-09T08:55:28Z</time>
      </trkpt>
      <trkpt lat="36.457894016057253" lon="-5.422933017835021">
        <ele>74.640000000000001</ele>
        <time>2025-05-09T08:55:29Z</time>
      </trkpt>
      <trkpt lat="36.45806098356843" lon="-5.42295397259295">
        <ele>74.159999999999997</ele>
        <time>2025-05-09T08:55:30Z</time>
      </trkpt>
      <trkpt lat="36.45823298022151" lon="-5.42297501116991">
        <ele>73.200000000000003</ele>
        <time>2025-05-09T08:55:31Z</time>
      </trkpt>
      <trkpt lat="36.458401037380099" lon="-5.423023039475083">
        <ele>72.239999999999995</ele>
        <time>2025-05-09T08:55:32Z</time>
      </trkpt>
      <trkpt lat="36.459144009277225" lon="-5.423269970342517">
        <ele>66.469999999999999</ele>
        <time>2025-05-09T08:55:37Z</time>
      </trkpt>
      <trkpt lat="36.459268983453512" lon="-5.423350017517805">
        <ele>65.030000000000001</ele>
        <time>2025-05-09T08:55:38Z</time>
      </trkpt>
      <trkpt lat="36.459365962073207" lon="-5.423454958945513">
        <ele>64.069999999999993</ele>
        <time>2025-05-09T08:55:39Z</time>
      </trkpt>
      <trkpt lat="36.459419019520283" lon="-5.423582028597593">
        <ele>62.619999999999997</ele>
        <time>2025-05-09T08:55:40Z</time>
      </trkpt>
      <trkpt lat="36.459443997591734" lon="-5.423728041350842">
        <ele>61.659999999999997</ele>
        <time>2025-05-09T08:55:41Z</time>
      </trkpt>
      <trkpt lat="36.45945799537003" lon="-5.42390096001327">
        <ele>60.700000000000003</ele>
        <time>2025-05-09T08:55:42Z</time>
      </trkpt>
      <trkpt lat="36.459471993148327" lon="-5.424074968323112">
        <ele>59.259999999999998</ele>
        <time>2025-05-09T08:55:43Z</time>
      </trkpt>
      <trkpt lat="36.4595009945333" lon="-5.424249982461333">
        <ele>57.82</ele>
        <time>2025-05-09T08:55:44Z</time>
      </trkpt>
      <trkpt lat="36.459547011181712" lon="-5.42437101714313">
        <ele>56.369999999999997</ele>
        <time>2025-05-09T08:55:45Z</time>
      </trkpt>
      <trkpt lat="36.4596529584378" lon="-5.424476964399219">
        <ele>55.409999999999997</ele>
        <time>2025-05-09T08:55:46Z</time>
      </trkpt>
      <trkpt lat="36.459747003391385" lon="-5.424487022683024">
        <ele>54.450000000000003</ele>
        <time>2025-05-09T08:55:47Z</time>
      </trkpt>
      <trkpt lat="36.459854040294886" lon="-5.424498002976179">
        <ele>53.009999999999998</ele>
        <time>2025-05-09T08:55:48Z</time>
      </trkpt>
      <trkpt lat="36.459939032793045" lon="-5.424450980499387">
        <ele>52.530000000000001</ele>
        <time>2025-05-09T08:55:49Z</time>
      </trkpt>
      <trkpt lat="36.460054032504559" lon="-5.424373028799892">
        <ele>51.57</ele>
        <time>2025-05-09T08:55:50Z</time>
      </trkpt>
      <trkpt lat="36.460179006680846" lon="-5.424288036301732">
        <ele>51.090000000000003</ele>
        <time>2025-05-09T08:55:51Z</time>
      </trkpt>
      <trkpt lat="36.460306998342276" lon="-5.424201032146812">
        <ele>50.609999999999999</ele>
        <time>2025-05-09T08:55:52Z</time>
      </trkpt>
      <trkpt lat="36.46044697612524" lon="-5.424170019105077">
        <ele>50.130000000000003</ele>
        <time>2025-05-09T08:55:53Z</time>
      </trkpt>
      <trkpt lat="36.460590977221727" lon="-5.424160966649652">
        <ele>49.159999999999997</ele>
        <time>2025-05-09T08:55:54Z</time>
      </trkpt>
      <trkpt lat="36.460742019116879" lon="-5.424149986356497">
        <ele>48.68</ele>
        <time>2025-05-09T08:55:55Z</time>
      </trkpt>
      <trkpt lat="36.460893983021379" lon="-5.424140011891723">
        <ele>47.719999999999999</ele>
        <time>2025-05-09T08:55:56Z</time>
      </trkpt>
      <trkpt lat="36.461035972461104" lon="-5.424100030213594">
        <ele>47.240000000000002</ele>
        <time>2025-05-09T08:55:57Z</time>
      </trkpt>
      <trkpt lat="36.461177039891481" lon="-5.424033980816603">
        <ele>46.280000000000001</ele>
        <time>2025-05-09T08:55:58Z</time>
      </trkpt>
      <trkpt lat="36.461316011846066" lon="-5.423968015238643">
        <ele>45.32</ele>
        <time>2025-05-09T08:55:59Z</time>
      </trkpt>
      <trkpt lat="36.461425982415676" lon="-5.42385502718389">
        <ele>44.359999999999999</ele>
        <time>2025-05-09T08:56:00Z</time>
      </trkpt>
      <trkpt lat="36.46154098212719" lon="-5.423728041350842">
        <ele>43.399999999999999</ele>
        <time>2025-05-09T08:56:01Z</time>
      </trkpt>
      <trkpt lat="36.461616000160575" lon="-5.423580016940832">
        <ele>42.920000000000002</ele>
        <time>2025-05-09T08:56:02Z</time>
      </trkpt>
      <trkpt lat="36.461677020415664" lon="-5.423422018066049">
        <ele>42.439999999999998</ele>
        <time>2025-05-09T08:56:03Z</time>
      </trkpt>
      <trkpt lat="36.461700992658734" lon="-5.423227977007628">
        <ele>41.950000000000003</ele>
        <time>2025-05-09T08:56:04Z</time>
      </trkpt>
      <trkpt lat="36.461725970730186" lon="-5.423025973141193">
        <ele>42.439999999999998</ele>
        <time>2025-05-09T08:56:05Z</time>
      </trkpt>
      <trkpt lat="36.461784979328513" lon="-5.421926015987992">
        <ele>44.840000000000003</ele>
        <time>2025-05-09T08:56:10Z</time>
      </trkpt>
      <trkpt lat="36.461747009307146" lon="-5.421709008514881">
        <ele>45.32</ele>
        <time>2025-05-09T08:56:11Z</time>
      </trkpt>
      <trkpt lat="36.461705015972257" lon="-5.421493006870151">
        <ele>45.799999999999997</ele>
        <time>2025-05-09T08:56:12Z</time>
      </trkpt>
      <trkpt lat="36.461634021252394" lon="-5.42129997164011">
        <ele>46.759999999999998</ele>
        <time>2025-05-09T08:56:13Z</time>
      </trkpt>
      <trkpt lat="36.461565960198641" lon="-5.421115988865495">
        <ele>47.240000000000002</ele>
        <time>2025-05-09T08:56:14Z</time>
      </trkpt>
      <trkpt lat="36.461206963285804" lon="-5.420112004503608">
        <ele>48.68</ele>
        <time>2025-05-09T08:56:20Z</time>
      </trkpt>
      <trkpt lat="36.461177039891481" lon="-5.419962974265218">
        <ele>48.68</ele>
        <time>2025-05-09T08:56:21Z</time>
      </trkpt>
      <trkpt lat="36.461177039891481" lon="-5.419821990653873">
        <ele>48.200000000000003</ele>
        <time>2025-05-09T08:56:22Z</time>
      </trkpt>
      <trkpt lat="36.461186008527875" lon="-5.419692993164063">
        <ele>48.200000000000003</ele>
        <time>2025-05-09T08:56:23Z</time>
      </trkpt>
      <trkpt lat="36.461232025176287" lon="-5.419577993452549">
        <ele>47.719999999999999</ele>
        <time>2025-05-09T08:56:24Z</time>
      </trkpt>
      <trkpt lat="36.461301008239388" lon="-5.4194700345397">
        <ele>47.240000000000002</ele>
        <time>2025-05-09T08:56:25Z</time>
      </trkpt>
      <trkpt lat="36.461393041536212" lon="-5.419397028163075">
        <ele>46.759999999999998</ele>
        <time>2025-05-09T08:56:26Z</time>
      </trkpt>
      <trkpt lat="36.461493959650397" lon="-5.419319998472929">
        <ele>45.799999999999997</ele>
        <time>2025-05-09T08:56:27Z</time>
      </trkpt>
      <trkpt lat="36.461609965190291" lon="-5.419261995702982">
        <ele>44.840000000000003</ele>
        <time>2025-05-09T08:56:28Z</time>
      </trkpt>
      <trkpt lat="36.461738040670753" lon="-5.419217990711331">
        <ele>44.359999999999999</ele>
        <time>2025-05-09T08:56:29Z</time>
      </trkpt>
      <trkpt lat="36.461880030110478" lon="-5.419178009033203">
        <ele>43.880000000000003</ele>
        <time>2025-05-09T08:56:30Z</time>
      </trkpt>
      <trkpt lat="36.463050981983542" lon="-5.418829992413521">
        <ele>39.07</ele>
        <time>2025-05-09T08:56:39Z</time>
      </trkpt>
      <trkpt lat="36.464902041479945" lon="-5.418306961655617">
        <ele>38.109999999999999</ele>
        <time>2025-05-09T08:56:53Z</time>
      </trkpt>
      <trkpt lat="36.46622596308589" lon="-5.4179020319134">
        <ele>40.030000000000001</ele>
        <time>2025-05-09T08:57:03Z</time>
      </trkpt>
      <trkpt lat="36.467197006568313" lon="-5.417427029460669">
        <ele>40.990000000000002</ele>
        <time>2025-05-09T08:57:11Z</time>
      </trkpt>
      <trkpt lat="36.46774903871119" lon="-5.417075995355845">
        <ele>41.950000000000003</ele>
        <time>2025-05-09T08:57:16Z</time>
      </trkpt>
      <trkpt lat="36.467850962653756" lon="-5.416988991200924">
        <ele>41.950000000000003</ele>
        <time>2025-05-09T08:57:17Z</time>
      </trkpt>
      <trkpt lat="36.467933021485806" lon="-5.41689402423799">
        <ele>41.469999999999999</ele>
        <time>2025-05-09T08:57:18Z</time>
      </trkpt>
      <trkpt lat="36.467998987063766" lon="-5.416759997606278">
        <ele>41.469999999999999</ele>
        <time>2025-05-09T08:57:19Z</time>
      </trkpt>
      <trkpt lat="36.468034023419023" lon="-5.41661599650979">
        <ele>40.990000000000002</ele>
        <time>2025-05-09T08:57:20Z</time>
      </trkpt>
      <trkpt lat="36.468070987612009" lon="-5.41646596044302">
        <ele>40.990000000000002</ele>
        <time>2025-05-09T08:57:21Z</time>
      </trkpt>
      <trkpt lat="36.468109041452408" lon="-5.416311984881759">
        <ele>40.509999999999998</ele>
        <time>2025-05-09T08:57:22Z</time>
      </trkpt>
      <trkpt lat="36.468146005645394" lon="-5.416160020977259">
        <ele>40.030000000000001</ele>
        <time>2025-05-09T08:57:23Z</time>
      </trkpt>
      <trkpt lat="36.46818196401" lon="-5.41601300239563">
        <ele>39.549999999999997</ele>
        <time>2025-05-09T08:57:24Z</time>
      </trkpt>
      <trkpt lat="36.468217000365257" lon="-5.415870007127523">
        <ele>39.07</ele>
        <time>2025-05-09T08:57:25Z</time>
      </trkpt>
      <trkpt lat="36.468252036720514" lon="-5.415726006031036">
        <ele>38.590000000000003</ele>
        <time>2025-05-09T08:57:26Z</time>
      </trkpt>
      <trkpt lat="36.468301992863417" lon="-5.415593991056085">
        <ele>38.109999999999999</ele>
        <time>2025-05-09T08:57:27Z</time>
      </trkpt>
      <trkpt lat="36.468356978148222" lon="-5.415472034364939">
        <ele>38.109999999999999</ele>
        <time>2025-05-09T08:57:28Z</time>
      </trkpt>
      <trkpt lat="36.468441970646381" lon="-5.415370026603341">
        <ele>38.109999999999999</ele>
        <time>2025-05-09T08:57:29Z</time>
      </trkpt>
      <trkpt lat="36.468560993671417" lon="-5.415317974984646">
        <ele>38.109999999999999</ele>
        <time>2025-05-09T08:57:30Z</time>
      </trkpt>
      <trkpt lat="36.468685967847705" lon="-5.415285034105182">
        <ele>38.590000000000003</ele>
        <time>2025-05-09T08:57:31Z</time>
      </trkpt>
      <trkpt lat="36.468817982822657" lon="-5.415267013013363">
        <ele>39.07</ele>
        <time>2025-05-09T08:57:32Z</time>
      </trkpt>
      <trkpt lat="36.468954021111131" lon="-5.415246980264783">
        <ele>39.07</ele>
        <time>2025-05-09T08:57:33Z</time>
      </trkpt>
      <trkpt lat="36.469073966145515" lon="-5.415229965001345">
        <ele>39.07</ele>
        <time>2025-05-09T08:57:34Z</time>
      </trkpt>
      <trkpt lat="36.46919097751379" lon="-5.415157964453101">
        <ele>39.07</ele>
        <time>2025-05-09T08:57:35Z</time>
      </trkpt>
      <trkpt lat="36.469299020245671" lon="-5.415090993046761">
        <ele>39.549999999999997</ele>
        <time>2025-05-09T08:57:36Z</time>
      </trkpt>
      <trkpt lat="36.469377977773547" lon="-5.414989991113544">
        <ele>39.549999999999997</ele>
        <time>2025-05-09T08:57:37Z</time>
      </trkpt>
      <trkpt lat="36.469428017735481" lon="-5.414856970310211">
        <ele>40.030000000000001</ele>
        <time>2025-05-09T08:57:38Z</time>
      </trkpt>
      <trkpt lat="36.469480991363525" lon="-5.414714980870485">
        <ele>40.030000000000001</ele>
        <time>2025-05-09T08:57:39Z</time>
      </trkpt>
      <trkpt lat="36.469480991363525" lon="-5.41457399725914">
        <ele>40.030000000000001</ele>
        <time>2025-05-09T08:57:40Z</time>
      </trkpt>
      <trkpt lat="36.469480991363525" lon="-5.414411975070834">
        <ele>40.030000000000001</ele>
        <time>2025-05-09T08:57:41Z</time>
      </trkpt>
      <trkpt lat="36.469417037442327" lon="-5.412784041836858">
        <ele>39.549999999999997</ele>
        <time>2025-05-09T08:57:51Z</time>
      </trkpt>
      <trkpt lat="36.46940496750176" lon="-5.411660028621554">
        <ele>41.950000000000003</ele>
        <time>2025-05-09T08:57:58Z</time>
      </trkpt>
      <trkpt lat="36.469430029392242" lon="-5.411509992554784">
        <ele>42.920000000000002</ele>
        <time>2025-05-09T08:57:59Z</time>
      </trkpt>
      <trkpt lat="36.469497000798583" lon="-5.41137496009469">
        <ele>43.399999999999999</ele>
        <time>2025-05-09T08:58:00Z</time>
      </trkpt>
      <trkpt lat="36.469604037702084" lon="-5.411284016445279">
        <ele>43.880000000000003</ele>
        <time>2025-05-09T08:58:01Z</time>
      </trkpt>
      <trkpt lat="36.469719959422946" lon="-5.411225007846952">
        <ele>44.359999999999999</ele>
        <time>2025-05-09T08:58:02Z</time>
      </trkpt>
      <trkpt lat="36.469844011589885" lon="-5.411175973713398">
        <ele>44.840000000000003</ele>
        <time>2025-05-09T08:58:03Z</time>
      </trkpt>
      <trkpt lat="36.469969991594553" lon="-5.411119982600212">
        <ele>45.32</ele>
        <time>2025-05-09T08:58:04Z</time>
      </trkpt>
      <trkpt lat="36.470099994912744" lon="-5.411062985658646">
        <ele>45.799999999999997</ele>
        <time>2025-05-09T08:58:05Z</time>
      </trkpt>
      <trkpt lat="36.470228992402554" lon="-5.410992996767163">
        <ele>46.280000000000001</ele>
        <time>2025-05-09T08:58:06Z</time>
      </trkpt>
      <trkpt lat="36.470352038741112" lon="-5.41089802980423">
        <ele>46.280000000000001</ele>
        <time>2025-05-09T08:58:07Z</time>
      </trkpt>
      <trkpt lat="36.470466032624245" lon="-5.410775989294052">
        <ele>46.280000000000001</ele>
        <time>2025-05-09T08:58:08Z</time>
      </trkpt>
      <trkpt lat="36.470569968223572" lon="-5.410653026774526">
        <ele>46.280000000000001</ele>
        <time>2025-05-09T08:58:09Z</time>
      </trkpt>
      <trkpt lat="36.470657978206873" lon="-5.410508019849658">
        <ele>46.280000000000001</ele>
        <time>2025-05-09T08:58:10Z</time>
      </trkpt>
      <trkpt lat="36.470726039260626" lon="-5.410358989611268">
        <ele>46.280000000000001</ele>
        <time>2025-05-09T08:58:11Z</time>
      </trkpt>
      <trkpt lat="36.47075898014009" lon="-5.410158997401595">
        <ele>46.280000000000001</ele>
        <time>2025-05-09T08:58:12Z</time>
      </trkpt>
      <trkpt lat="36.470792004838586" lon="-5.409960011020303">
        <ele>46.280000000000001</ele>
        <time>2025-05-09T08:58:13Z</time>
      </trkpt>
      <trkpt lat="36.470809020102024" lon="-5.409759012982249">
        <ele>46.759999999999998</ele>
        <time>2025-05-09T08:58:14Z</time>
      </trkpt>
      <trkpt lat="36.470800973474979" lon="-5.409549968317151">
        <ele>46.759999999999998</ele>
        <time>2025-05-09T08:58:15Z</time>
      </trkpt>
      <trkpt lat="36.470794016495347" lon="-5.409336984157562">
        <ele>46.280000000000001</ele>
        <time>2025-05-09T08:58:16Z</time>
      </trkpt>
      <trkpt lat="36.470705000683665" lon="-5.408320007845759">
        <ele>45.799999999999997</ele>
        <time>2025-05-09T08:58:21Z</time>
      </trkpt>
      <trkpt lat="36.470654960721731" lon="-5.408170977607369">
        <ele>45.32</ele>
        <time>2025-05-09T08:58:22Z</time>
      </trkpt>
      <trkpt lat="36.470582960173488" lon="-5.408018007874489">
        <ele>45.32</ele>
        <time>2025-05-09T08:58:23Z</time>
      </trkpt>
      <trkpt lat="36.470486987382174" lon="-5.407897979021072">
        <ele>44.840000000000003</ele>
        <time>2025-05-09T08:58:24Z</time>
      </trkpt>
      <trkpt lat="36.470380034297705" lon="-5.407795971259475">
        <ele>44.359999999999999</ele>
        <time>2025-05-09T08:58:25Z</time>
      </trkpt>
      <trkpt lat="36.470269979909062" lon="-5.407710978761315">
        <ele>44.359999999999999</ele>
        <time>2025-05-09T08:58:26Z</time>
      </trkpt>
      <trkpt lat="36.47000502794981" lon="-5.40748299099505">
        <ele>43.399999999999999</ele>
        <time>2025-05-09T08:58:29Z</time>
      </trkpt>
      <trkpt lat="36.469932021573186" lon="-5.40739799849689">
        <ele>43.399999999999999</ele>
        <time>2025-05-09T08:58:30Z</time>
      </trkpt>
      <trkpt lat="36.469892039895058" lon="-5.40729196742177">
        <ele>42.920000000000002</ele>
        <time>2025-05-09T08:58:31Z</time>
      </trkpt>
      <trkpt lat="36.469867983832955" lon="-5.407175961881876">
        <ele>42.920000000000002</ele>
        <time>2025-05-09T08:58:32Z</time>
      </trkpt>
      <trkpt lat="36.469867983832955" lon="-5.407039001584053">
        <ele>41.950000000000003</ele>
        <time>2025-05-09T08:58:33Z</time>
      </trkpt>
      <trkpt lat="36.469877036288381" lon="-5.406889971345663">
        <ele>41.469999999999999</ele>
        <time>2025-05-09T08:58:34Z</time>
      </trkpt>
      <trkpt lat="36.469890028238297" lon="-5.406730966642499">
        <ele>41.469999999999999</ele>
        <time>2025-05-09T08:58:35Z</time>
      </trkpt>
      <trkpt lat="36.470025982707739" lon="-5.405065985396504">
        <ele>40.030000000000001</ele>
        <time>2025-05-09T08:58:44Z</time>
      </trkpt>
      <trkpt lat="36.470195967704058" lon="-5.403149966150522">
        <ele>38.590000000000003</ele>
        <time>2025-05-09T08:58:54Z</time>
      </trkpt>
      <trkpt lat="36.470228992402554" lon="-5.402803039178252">
        <ele>38.590000000000003</ele>
        <time>2025-05-09T08:58:56Z</time>
      </trkpt>
      <trkpt lat="36.470286995172501" lon="-5.402642022818327">
        <ele>38.109999999999999</ele>
        <time>2025-05-09T08:58:57Z</time>
      </trkpt>
      <trkpt lat="36.470358995720744" lon="-5.402484023943543">
        <ele>38.109999999999999</ele>
        <time>2025-05-09T08:58:58Z</time>
      </trkpt>
      <trkpt lat="36.470429990440607" lon="-5.402328036725521">
        <ele>38.109999999999999</ele>
        <time>2025-05-09T08:58:59Z</time>
      </trkpt>
      <trkpt lat="36.470535015687346" lon="-5.402215970680118">
        <ele>38.109999999999999</ele>
        <time>2025-05-09T08:59:00Z</time>
      </trkpt>
      <trkpt lat="36.470651021227241" lon="-5.402116980403662">
        <ele>38.590000000000003</ele>
        <time>2025-05-09T08:59:01Z</time>
      </trkpt>
      <trkpt lat="36.470765015110373" lon="-5.402021007612348">
        <ele>39.07</ele>
        <time>2025-05-09T08:59:02Z</time>
      </trkpt>
      <trkpt lat="36.470875991508365" lon="-5.401926040649414">
        <ele>39.07</ele>
        <time>2025-05-09T08:59:03Z</time>
      </trkpt>
      <trkpt lat="36.470996020361781" lon="-5.401863008737564">
        <ele>40.030000000000001</ele>
        <time>2025-05-09T08:59:04Z</time>
      </trkpt>
      <trkpt lat="36.471517039462924" lon="-5.401626974344254">
        <ele>41.469999999999999</ele>
        <time>2025-05-09T08:59:08Z</time>
      </trkpt>
      <trkpt lat="36.471666991710663" lon="-5.40163803845644">
        <ele>41.469999999999999</ele>
        <time>2025-05-09T08:59:09Z</time>
      </trkpt>
      <trkpt lat="36.471819039434195" lon="-5.401650024577975">
        <ele>41.950000000000003</ele>
        <time>2025-05-09T08:59:10Z</time>
      </trkpt>
      <trkpt lat="36.473467005416751" lon="-5.401842975988984">
        <ele>46.280000000000001</ele>
        <time>2025-05-09T08:59:21Z</time>
      </trkpt>
      <trkpt lat="36.474523963406682" lon="-5.401969039812684">
        <ele>49.159999999999997</ele>
        <time>2025-05-09T08:59:28Z</time>
      </trkpt>
      <trkpt lat="36.474673999473453" lon="-5.401953030377626">
        <ele>49.159999999999997</ele>
        <time>2025-05-09T08:59:29Z</time>
      </trkpt>
      <trkpt lat="36.474820012226701" lon="-5.40189896710217">
        <ele>49.649999999999999</ele>
        <time>2025-05-09T08:59:30Z</time>
      </trkpt>
      <trkpt lat="36.47537698969245" lon="-5.401694029569626">
        <ele>50.609999999999999</ele>
        <time>2025-05-09T08:59:34Z</time>
      </trkpt>
      <trkpt lat="36.475486038252711" lon="-5.401624040678144">
        <ele>51.090000000000003</ele>
        <time>2025-05-09T08:59:35Z</time>
      </trkpt>
      <trkpt lat="36.475576981902122" lon="-5.401519015431404">
        <ele>51.090000000000003</ele>
        <time>2025-05-09T08:59:36Z</time>
      </trkpt>
      <trkpt lat="36.475627021864057" lon="-5.401378031820059">
        <ele>51.57</ele>
        <time>2025-05-09T08:59:37Z</time>
      </trkpt>
      <trkpt lat="36.475665997713804" lon="-5.401215003803372">
        <ele>52.049999999999997</ele>
        <time>2025-05-09T08:59:38Z</time>
      </trkpt>
      <trkpt lat="36.475683012977242" lon="-5.401031021028757">
        <ele>52.049999999999997</ele>
        <time>2025-05-09T08:59:39Z</time>
      </trkpt>
      <trkpt lat="36.475691981613636" lon="-5.400832034647465">
        <ele>52.530000000000001</ele>
        <time>2025-05-09T08:59:40Z</time>
      </trkpt>
      <trkpt lat="36.475694999098778" lon="-5.398977035656571">
        <ele>54.450000000000003</ele>
        <time>2025-05-09T08:59:48Z</time>
      </trkpt>
      <trkpt lat="36.475748978555202" lon="-5.397465024143457">
        <ele>58.299999999999997</ele>
        <time>2025-05-09T08:59:55Z</time>
      </trkpt>
      <trkpt lat="36.475851992145181" lon="-5.39624797180295">
        <ele>64.549999999999997</ele>
        <time>2025-05-09T09:00:02Z</time>
      </trkpt>
      <trkpt lat="36.475846040993929" lon="-5.396067006513476">
        <ele>65.989999999999995</ele>
        <time>2025-05-09T09:00:03Z</time>
      </trkpt>
      <trkpt lat="36.475835982710123" lon="-5.394411999732256">
        <ele>76.079999999999998</ele>
        <time>2025-05-09T09:00:11Z</time>
      </trkpt>
      <trkpt lat="36.475961962714791" lon="-5.392209989950061">
        <ele>87.620000000000005</ele>
        <time>2025-05-09T09:00:21Z</time>
      </trkpt>
      <trkpt lat="36.476096995174885" lon="-5.390900988131762">
        <ele>95.310000000000002</ele>
        <time>2025-05-09T09:00:27Z</time>
      </trkpt>
      <trkpt lat="36.476154997944832" lon="-5.39066101424396">
        <ele>96.269999999999996</ele>
        <time>2025-05-09T09:00:28Z</time>
      </trkpt>
      <trkpt lat="36.476597981527448" lon="-5.389627022668719">
        <ele>103.95999999999999</ele>
        <time>2025-05-09T09:00:34Z</time>
      </trkpt>
      <trkpt lat="36.476649027317762" lon="-5.389462988823652">
        <ele>104.92</ele>
        <time>2025-05-09T09:00:35Z</time>
      </trkpt>
      <trkpt lat="36.476661013439298" lon="-5.389279006049037">
        <ele>105.88</ele>
        <time>2025-05-09T09:00:36Z</time>
      </trkpt>
      <trkpt lat="36.476637963205576" lon="-5.389084964990616">
        <ele>107.31999999999999</ele>
        <time>2025-05-09T09:00:37Z</time>
      </trkpt>
      <trkpt lat="36.476571997627616" lon="-5.388895031064749">
        <ele>108.29000000000001</ele>
        <time>2025-05-09T09:00:38Z</time>
      </trkpt>
      <trkpt lat="36.476504020392895" lon="-5.388697972521186">
        <ele>109.25</ele>
        <time>2025-05-09T09:00:39Z</time>
      </trkpt>
      <trkpt lat="36.476446017622948" lon="-5.388509966433048">
        <ele>110.69</ele>
        <time>2025-05-09T09:00:40Z</time>
      </trkpt>
      <trkpt lat="36.476411987096071" lon="-5.388320032507181">
        <ele>111.65000000000001</ele>
        <time>2025-05-09T09:00:41Z</time>
      </trkpt>
      <trkpt lat="36.476434031501412" lon="-5.388123979791999">
        <ele>112.61</ele>
        <time>2025-05-09T09:00:42Z</time>
      </trkpt>
      <trkpt lat="36.476501002907753" lon="-5.3875039704144">
        <ele>115.01000000000001</ele>
        <time>2025-05-09T09:00:45Z</time>
      </trkpt>
      <trkpt lat="36.476509971544147" lon="-5.387311019003391">
        <ele>115.98</ele>
        <time>2025-05-09T09:00:46Z</time>
      </trkpt>
      <trkpt lat="36.476443000137806" lon="-5.387144973501563">
        <ele>117.42</ele>
        <time>2025-05-09T09:00:47Z</time>
      </trkpt>
      <trkpt lat="36.476372005417943" lon="-5.386966019868851">
        <ele>118.38</ele>
        <time>2025-05-09T09:00:48Z</time>
      </trkpt>
      <trkpt lat="36.476272009313107" lon="-5.386802991852164">
        <ele>119.34</ele>
        <time>2025-05-09T09:00:49Z</time>
      </trkpt>
      <trkpt lat="36.476162960752845" lon="-5.386654967442155">
        <ele>120.3</ele>
        <time>2025-05-09T09:00:50Z</time>
      </trkpt>
      <trkpt lat="36.476057013496757" lon="-5.386510966345668">
        <ele>120.78</ele>
        <time>2025-05-09T09:00:51Z</time>
      </trkpt>
      <trkpt lat="36.475920975208282" lon="-5.38640895858407">
        <ele>121.73999999999999</ele>
        <time>2025-05-09T09:00:52Z</time>
      </trkpt>
      <trkpt lat="36.475776974111795" lon="-5.386308040469885">
        <ele>122.70999999999999</ele>
        <time>2025-05-09T09:00:53Z</time>
      </trkpt>
      <trkpt lat="36.475622998550534" lon="-5.386199997738004">
        <ele>123.19</ele>
        <time>2025-05-09T09:00:54Z</time>
      </trkpt>
      <trkpt lat="36.475136009976268" lon="-5.38589196279645">
        <ele>125.11</ele>
        <time>2025-05-09T09:00:57Z</time>
      </trkpt>
      <trkpt lat="36.474956972524524" lon="-5.385819040238857">
        <ele>125.59</ele>
        <time>2025-05-09T09:00:58Z</time>
      </trkpt>
      <trkpt lat="36.474115010350943" lon="-5.38544001057744">
        <ele>128.94999999999999</ele>
        <time>2025-05-09T09:01:03Z</time>
      </trkpt>
      <trkpt lat="36.473992969840765" lon="-5.385340014472604">
        <ele>129.91999999999999</ele>
        <time>2025-05-09T09:01:04Z</time>
      </trkpt>
      <trkpt lat="36.473923986777663" lon="-5.385197019204497">
        <ele>130.40000000000001</ele>
        <time>2025-05-09T09:01:05Z</time>
      </trkpt>
      <trkpt lat="36.473867995664477" lon="-5.385038014501333">
        <ele>131.36000000000001</ele>
        <time>2025-05-09T09:01:06Z</time>
      </trkpt>
      <trkpt lat="36.473816027864814" lon="-5.384871968999505">
        <ele>132.31999999999999</ele>
        <time>2025-05-09T09:01:07Z</time>
      </trkpt>
      <trkpt lat="36.473816027864814" lon="-5.384681029245257">
        <ele>132.80000000000001</ele>
        <time>2025-05-09T09:01:08Z</time>
      </trkpt>
      <trkpt lat="36.473816027864814" lon="-5.384477013722062">
        <ele>134.24000000000001</ele>
        <time>2025-05-09T09:01:09Z</time>
      </trkpt>
      <trkpt lat="36.473844023421407" lon="-5.38408599793911">
        <ele>135.68000000000001</ele>
        <time>2025-05-09T09:01:11Z</time>
      </trkpt>
      <trkpt lat="36.473889034241438" lon="-5.383896986022592">
        <ele>137.13</ele>
        <time>2025-05-09T09:01:12Z</time>
      </trkpt>
      <trkpt lat="36.473944019526243" lon="-5.383705040439963">
        <ele>138.09</ele>
        <time>2025-05-09T09:01:13Z</time>
      </trkpt>
      <trkpt lat="36.474371999502182" lon="-5.382601981982589">
        <ele>143.37</ele>
        <time>2025-05-09T09:01:19Z</time>
      </trkpt>
      <trkpt lat="36.474391026422381" lon="-5.382440965622664">
        <ele>143.84999999999999</ele>
        <time>2025-05-09T09:01:20Z</time>
      </trkpt>
      <trkpt lat="36.474409969523549" lon="-5.38228003308177">
        <ele>143.84999999999999</ele>
        <time>2025-05-09T09:01:21Z</time>
      </trkpt>
      <trkpt lat="36.474395971745253" lon="-5.381050994619727">
        <ele>141.93000000000001</ele>
        <time>2025-05-09T09:01:26Z</time>
      </trkpt>
      <trkpt lat="36.474371999502182" lon="-5.379491960629821">
        <ele>136.63999999999999</ele>
        <time>2025-05-09T09:01:32Z</time>
      </trkpt>
      <trkpt lat="36.474407035857439" lon="-5.379317030310631">
        <ele>136.63999999999999</ele>
        <time>2025-05-09T09:01:33Z</time>
      </trkpt>
      <trkpt lat="36.474455986171961" lon="-5.379189038649201">
        <ele>136.63999999999999</ele>
        <time>2025-05-09T09:01:34Z</time>
      </trkpt>
      <trkpt lat="36.474523041397333" lon="-5.379082001745701">
        <ele>136.63999999999999</ele>
        <time>2025-05-09T09:01:35Z</time>
      </trkpt>
      <trkpt lat="36.474600993096828" lon="-5.378977982327342">
        <ele>137.13</ele>
        <time>2025-05-09T09:01:36Z</time>
      </trkpt>
      <trkpt lat="36.474707024171948" lon="-5.378922997042537">
        <ele>137.61000000000001</ele>
        <time>2025-05-09T09:01:37Z</time>
      </trkpt>
      <trkpt lat="36.474826969206333" lon="-5.378870023414493">
        <ele>138.09</ele>
        <time>2025-05-09T09:01:38Z</time>
      </trkpt>
      <trkpt lat="36.474952027201653" lon="-5.378814032301307">
        <ele>138.56999999999999</ele>
        <time>2025-05-09T09:01:39Z</time>
      </trkpt>
      <trkpt lat="36.475071972236037" lon="-5.378760974854231">
        <ele>139.05000000000001</ele>
        <time>2025-05-09T09:01:40Z</time>
      </trkpt>
      <trkpt lat="36.475518979132175" lon="-5.378509014844894">
        <ele>141.93000000000001</ele>
        <time>2025-05-09T09:01:44Z</time>
      </trkpt>
      <trkpt lat="36.475747972726822" lon="-5.378325032070279">
        <ele>143.37</ele>
        <time>2025-05-09T09:01:46Z</time>
      </trkpt>
      <trkpt lat="36.476962007582188" lon="-5.377236977219582">
        <ele>151.53999999999999</ele>
        <time>2025-05-09T09:01:56Z</time>
      </trkpt>
      <trkpt lat="36.47799901664257" lon="-5.376196028664708">
        <ele>161.63999999999999</ele>
        <time>2025-05-09T09:02:05Z</time>
      </trkpt>
      <trkpt lat="36.478121979162097" lon="-5.376124028116465">
        <ele>163.08000000000001</ele>
        <time>2025-05-09T09:02:06Z</time>
      </trkpt>
      <trkpt lat="36.478238990530372" lon="-5.376069964841008">
        <ele>164.52000000000001</ele>
        <time>2025-05-09T09:02:07Z</time>
      </trkpt>
      <trkpt lat="36.478362958878279" lon="-5.376069964841008">
        <ele>165.47999999999999</ele>
        <time>2025-05-09T09:02:08Z</time>
      </trkpt>
      <trkpt lat="36.478475024923682" lon="-5.376070970669389">
        <ele>166.44999999999999</ele>
        <time>2025-05-09T09:02:09Z</time>
      </trkpt>
      <trkpt lat="36.478591030463576" lon="-5.376107012853026">
        <ele>167.41</ele>
        <time>2025-05-09T09:02:10Z</time>
      </trkpt>
      <trkpt lat="36.478705024346709" lon="-5.376141965389252">
        <ele>168.37</ele>
        <time>2025-05-09T09:02:11Z</time>
      </trkpt>
      <trkpt lat="36.478823963552713" lon="-5.37617901340127">
        <ele>168.84999999999999</ele>
        <time>2025-05-09T09:02:12Z</time>
      </trkpt>
      <trkpt lat="36.478939969092607" lon="-5.376215977594256">
        <ele>169.81</ele>
        <time>2025-05-09T09:02:13Z</time>
      </trkpt>
      <trkpt lat="36.47905396297574" lon="-5.376251013949513">
        <ele>170.28999999999999</ele>
        <time>2025-05-09T09:02:14Z</time>
      </trkpt>
      <trkpt lat="36.479174997657537" lon="-5.376283032819629">
        <ele>171.25</ele>
        <time>2025-05-09T09:02:15Z</time>
      </trkpt>
      <trkpt lat="36.480069011449814" lon="-5.376184964552522">
        <ele>175.58000000000001</ele>
        <time>2025-05-09T09:02:20Z</time>
      </trkpt>
      <trkpt lat="36.481387987732887" lon="-5.376011040061712">
        <ele>184.22999999999999</ele>
        <time>2025-05-09T09:02:26Z</time>
      </trkpt>
      <trkpt lat="36.481580017134547" lon="-5.375985978171229">
        <ele>186.15000000000001</ele>
        <time>2025-05-09T09:02:27Z</time>
      </trkpt>
      <trkpt lat="36.482495991513133" lon="-5.375800989568234">
        <ele>194.31999999999999</ele>
        <time>2025-05-09T09:02:32Z</time>
      </trkpt>
      <trkpt lat="36.483019022271037" lon="-5.375519022345543">
        <ele>199.61000000000001</ele>
        <time>2025-05-09T09:02:35Z</time>
      </trkpt>
      <trkpt lat="36.484289970248938" lon="-5.3747390024364">
        <ele>212.59</ele>
        <time>2025-05-09T09:02:43Z</time>
      </trkpt>
      <trkpt lat="36.484430031850934" lon="-5.3747390024364">
        <ele>213.55000000000001</ele>
        <time>2025-05-09T09:02:44Z</time>
      </trkpt>
      <trkpt lat="36.484564980491996" lon="-5.374763980507851">
        <ele>214.99000000000001</ele>
        <time>2025-05-09T09:02:45Z</time>
      </trkpt>
      <trkpt lat="36.484705964103341" lon="-5.374846961349249">
        <ele>216.43000000000001</ele>
        <time>2025-05-09T09:02:46Z</time>
      </trkpt>
      <trkpt lat="36.484848959371448" lon="-5.374931031838059">
        <ele>217.88</ele>
        <time>2025-05-09T09:02:47Z</time>
      </trkpt>
      <trkpt lat="36.484988015145063" lon="-5.374987022951245">
        <ele>219.31999999999999</ele>
        <time>2025-05-09T09:02:48Z</time>
      </trkpt>
      <trkpt lat="36.485109971836209" lon="-5.375028010457754">
        <ele>220.75999999999999</ele>
        <time>2025-05-09T09:02:49Z</time>
      </trkpt>
      <trkpt lat="36.485234024003148" lon="-5.375005966052413">
        <ele>222.19999999999999</ele>
        <time>2025-05-09T09:02:50Z</time>
      </trkpt>
      <trkpt lat="36.485366960987449" lon="-5.37495500408113">
        <ele>223.16</ele>
        <time>2025-05-09T09:02:51Z</time>
      </trkpt>
      <trkpt lat="36.485505010932684" lon="-5.374875040724874">
        <ele>224.61000000000001</ele>
        <time>2025-05-09T09:02:52Z</time>
      </trkpt>
      <trkpt lat="36.485654041171074" lon="-5.374768003821373">
        <ele>226.05000000000001</ele>
        <time>2025-05-09T09:02:53Z</time>
      </trkpt>
      <trkpt lat="36.485808016732335" lon="-5.37463397718966">
        <ele>227.00999999999999</ele>
        <time>2025-05-09T09:02:54Z</time>
      </trkpt>
      <trkpt lat="36.486817030236125" lon="-5.373695958405733">
        <ele>237.09999999999999</ele>
        <time>2025-05-09T09:03:01Z</time>
      </trkpt>
      <trkpt lat="36.487635020166636" lon="-5.37297997623682">
        <ele>245.75</ele>
        <time>2025-05-09T09:03:09Z</time>
      </trkpt>
      <trkpt lat="36.487729987129569" lon="-5.372942006215453">
        <ele>246.72</ele>
        <time>2025-05-09T09:03:10Z</time>
      </trkpt>
      <trkpt lat="36.487840041518211" lon="-5.372905964031816">
        <ele>247.68000000000001</ele>
        <time>2025-05-09T09:03:11Z</time>
      </trkpt>
      <trkpt lat="36.487950012087822" lon="-5.37287101149559">
        <ele>248.63999999999999</ele>
        <time>2025-05-09T09:03:12Z</time>
      </trkpt>
      <trkpt lat="36.488061994314194" lon="-5.372834969311953">
        <ele>249.12</ele>
        <time>2025-05-09T09:03:13Z</time>
      </trkpt>
      <trkpt lat="36.488274978473783" lon="-5.372781995683909">
        <ele>251.03999999999999</ele>
        <time>2025-05-09T09:03:15Z</time>
      </trkpt>
      <trkpt lat="36.488386038690805" lon="-5.372774032875896">
        <ele>252</ele>
        <time>2025-05-09T09:03:16Z</time>
      </trkpt>
      <trkpt lat="36.488497015088797" lon="-5.372766992077231">
        <ele>252.96000000000001</ele>
        <time>2025-05-09T09:03:17Z</time>
      </trkpt>
      <trkpt lat="36.488603968173265" lon="-5.372824994847179">
        <ele>253.93000000000001</ele>
        <time>2025-05-09T09:03:18Z</time>
      </trkpt>
      <trkpt lat="36.488705975934863" lon="-5.372894983738661">
        <ele>254.41</ele>
        <time>2025-05-09T09:03:19Z</time>
      </trkpt>
      <trkpt lat="36.488813012838364" lon="-5.372966984286904">
        <ele>255.37</ele>
        <time>2025-05-09T09:03:20Z</time>
      </trkpt>
      <trkpt lat="36.488917032256722" lon="-5.373037979006767">
        <ele>255.37</ele>
        <time>2025-05-09T09:03:21Z</time>
      </trkpt>
      <trkpt lat="36.489239986985922" lon="-5.373255992308259">
        <ele>257.29000000000002</ele>
        <time>2025-05-09T09:03:24Z</time>
      </trkpt>
      <trkpt lat="36.489364039152861" lon="-5.373288011178374">
        <ele>258.25</ele>
        <time>2025-05-09T09:03:25Z</time>
      </trkpt>
      <trkpt lat="36.48949203081429" lon="-5.37332103587687">
        <ele>258.73000000000002</ele>
        <time>2025-05-09T09:03:26Z</time>
      </trkpt>
      <trkpt lat="36.489626979455352" lon="-5.373287005349994">
        <ele>260.17000000000002</ele>
        <time>2025-05-09T09:03:27Z</time>
      </trkpt>
      <trkpt lat="36.489748014137149" lon="-5.373216010630131">
        <ele>261.13999999999999</ele>
        <time>2025-05-09T09:03:28Z</time>
      </trkpt>
      <trkpt lat="36.489909030497074" lon="-5.37310796789825">
        <ele>262.10000000000002</ele>
        <time>2025-05-09T09:03:29Z</time>
      </trkpt>
      <trkpt lat="36.489959992468357" lon="-5.373006965965033">
        <ele>263.06</ele>
        <time>2025-05-09T09:03:30Z</time>
      </trkpt>
      <trkpt lat="36.490006009116769" lon="-5.372837986797094">
        <ele>264.01999999999998</ele>
        <time>2025-05-09T09:03:31Z</time>
      </trkpt>
      <trkpt lat="36.490044984966516" lon="-5.372661966830492">
        <ele>264.5</ele>
        <time>2025-05-09T09:03:32Z</time>
      </trkpt>
      <trkpt lat="36.490193009376526" lon="-5.372107001021504">
        <ele>267.38</ele>
        <time>2025-05-09T09:03:35Z</time>
      </trkpt>
      <trkpt lat="36.490260986611247" lon="-5.371941039338708">
        <ele>268.35000000000002</ele>
        <time>2025-05-09T09:03:36Z</time>
      </trkpt>
      <trkpt lat="36.490346984937787" lon="-5.371793014928699">
        <ele>269.31</ele>
        <time>2025-05-09T09:03:37Z</time>
      </trkpt>
      <trkpt lat="36.490453016012907" lon="-5.371694024652243">
        <ele>270.26999999999998</ele>
        <time>2025-05-09T09:03:38Z</time>
      </trkpt>
      <trkpt lat="36.490577990189195" lon="-5.37162302993238">
        <ele>271.23000000000002</ele>
        <time>2025-05-09T09:03:39Z</time>
      </trkpt>
      <trkpt lat="36.490711010992527" lon="-5.371562009677291">
        <ele>272.67000000000002</ele>
        <time>2025-05-09T09:03:40Z</time>
      </trkpt>
      <trkpt lat="36.490866998210549" lon="-5.371556980535388">
        <ele>274.11000000000001</ele>
        <time>2025-05-09T09:03:41Z</time>
      </trkpt>
      <trkpt lat="36.491882968693972" lon="-5.371521022170782">
        <ele>281.80000000000001</ele>
        <time>2025-05-09T09:03:47Z</time>
      </trkpt>
      <trkpt lat="36.4920490141958" lon="-5.371612971648574">
        <ele>282.76999999999998</ele>
        <time>2025-05-09T09:03:48Z</time>
      </trkpt>
      <trkpt lat="36.492210030555725" lon="-5.371701987460256">
        <ele>284.20999999999998</ele>
        <time>2025-05-09T09:03:49Z</time>
      </trkpt>
      <trkpt lat="36.493262965232134" lon="-5.372381005436182">
        <ele>291.42000000000002</ele>
        <time>2025-05-09T09:03:56Z</time>
      </trkpt>
      <trkpt lat="36.494651008397341" lon="-5.373087013140321">
        <ele>301.02999999999997</ele>
        <time>2025-05-09T09:04:06Z</time>
      </trkpt>
      <trkpt lat="36.494815964251757" lon="-5.373116014525294">
        <ele>301.99000000000001</ele>
        <time>2025-05-09T09:04:07Z</time>
      </trkpt>
      <trkpt lat="36.494963988661766" lon="-5.373141998425126">
        <ele>302.94999999999999</ele>
        <time>2025-05-09T09:04:08Z</time>
      </trkpt>
      <trkpt lat="36.495116958394647" lon="-5.373140992596746">
        <ele>303.91000000000003</ele>
        <time>2025-05-09T09:04:09Z</time>
      </trkpt>
      <trkpt lat="36.496497960761189" lon="-5.372933959588409">
        <ele>310.63999999999999</ele>
        <time>2025-05-09T09:04:18Z</time>
      </trkpt>
      <trkpt lat="36.496608015149832" lon="-5.372904036194086">
        <ele>311.12</ele>
        <time>2025-05-09T09:04:19Z</time>
      </trkpt>
      <trkpt lat="36.496712034568191" lon="-5.372845027595758">
        <ele>312.08999999999997</ele>
        <time>2025-05-09T09:04:20Z</time>
      </trkpt>
      <trkpt lat="36.496891994029284" lon="-5.372659033164382">
        <ele>313.05000000000001</ele>
        <time>2025-05-09T09:04:22Z</time>
      </trkpt>
      <trkpt lat="36.496970029547811" lon="-5.372545961290598">
        <ele>313.52999999999997</ele>
        <time>2025-05-09T09:04:23Z</time>
      </trkpt>
      <trkpt lat="36.497050998732448" lon="-5.372430961579084">
        <ele>313.52999999999997</ele>
        <time>2025-05-09T09:04:24Z</time>
      </trkpt>
      <trkpt lat="36.497135991230607" lon="-5.372314034029841">
        <ele>314.00999999999999</ele>
        <time>2025-05-09T09:04:25Z</time>
      </trkpt>
      <trkpt lat="36.497220983728766" lon="-5.372196016833186">
        <ele>314.00999999999999</ele>
        <time>2025-05-09T09:04:26Z</time>
      </trkpt>
      <trkpt lat="36.497315028682351" lon="-5.372086968272924">
        <ele>314.49000000000001</ele>
        <time>2025-05-09T09:04:27Z</time>
      </trkpt>
      <trkpt lat="36.497436985373497" lon="-5.372023014351726">
        <ele>314.97000000000003</ele>
        <time>2025-05-09T09:04:28Z</time>
      </trkpt>
      <trkpt lat="36.497560031712055" lon="-5.371957970783114">
        <ele>315.93000000000001</ele>
        <time>2025-05-09T09:04:29Z</time>
      </trkpt>
      <trkpt lat="36.497682994231582" lon="-5.371893011033535">
        <ele>316.41000000000003</ele>
        <time>2025-05-09T09:04:30Z</time>
      </trkpt>
      <trkpt lat="36.497947024181485" lon="-5.371826961636543">
        <ele>317.85000000000002</ele>
        <time>2025-05-09T09:04:32Z</time>
      </trkpt>
      <trkpt lat="36.498063029721379" lon="-5.371799971908331">
        <ele>318.32999999999998</ele>
        <time>2025-05-09T09:04:33Z</time>
      </trkpt>
      <trkpt lat="36.498208036646247" lon="-5.371831990778446">
        <ele>319.30000000000001</ele>
        <time>2025-05-09T09:04:34Z</time>
      </trkpt>
      <trkpt lat="36.498338961973786" lon="-5.37186099216342">
        <ele>319.77999999999997</ele>
        <time>2025-05-09T09:04:35Z</time>
      </trkpt>
      <trkpt lat="36.498464019969106" lon="-5.371894016861916">
        <ele>320.74000000000001</ele>
        <time>2025-05-09T09:04:36Z</time>
      </trkpt>
      <trkpt lat="36.49858103133738" lon="-5.371964005753398">
        <ele>321.22000000000003</ele>
        <time>2025-05-09T09:04:37Z</time>
      </trkpt>
      <trkpt lat="36.49892401881516" lon="-5.37214002572">
        <ele>322.66000000000003</ele>
        <time>2025-05-09T09:04:40Z</time>
      </trkpt>
      <trkpt lat="36.499028960242867" lon="-5.372156035155058">
        <ele>323.62</ele>
        <time>2025-05-09T09:04:41Z</time>
      </trkpt>
      <trkpt lat="36.49911898188293" lon="-5.372127033770084">
        <ele>324.10000000000002</ele>
        <time>2025-05-09T09:04:42Z</time>
      </trkpt>
      <trkpt lat="36.499197017401457" lon="-5.372081017121673">
        <ele>324.57999999999998</ele>
        <time>2025-05-09T09:04:43Z</time>
      </trkpt>
      <trkpt lat="36.499207997694612" lon="-5.371984960511327">
        <ele>325.54000000000002</ele>
        <time>2025-05-09T09:04:44Z</time>
      </trkpt>
      <trkpt lat="36.499221995472908" lon="-5.371821010485292">
        <ele>326.01999999999998</ele>
        <time>2025-05-09T09:04:45Z</time>
      </trkpt>
      <trkpt lat="36.499166004359722" lon="-5.371751021593809">
        <ele>326.99000000000001</ele>
        <time>2025-05-09T09:04:46Z</time>
      </trkpt>
      <trkpt lat="36.499058967456222" lon="-5.371656976640225">
        <ele>327.94999999999999</ele>
        <time>2025-05-09T09:04:47Z</time>
      </trkpt>
      <trkpt lat="36.498937010765076" lon="-5.371567038819194">
        <ele>328.43000000000001</ele>
        <time>2025-05-09T09:04:48Z</time>
      </trkpt>
      <trkpt lat="36.498520011082292" lon="-5.371348019689322">
        <ele>330.35000000000002</ele>
        <time>2025-05-09T09:04:51Z</time>
      </trkpt>
      <trkpt lat="36.498376009985805" lon="-5.371306026354432">
        <ele>331.31</ele>
        <time>2025-05-09T09:04:52Z</time>
      </trkpt>
      <trkpt lat="36.498229997232556" lon="-5.371310971677303">
        <ele>331.79000000000002</ele>
        <time>2025-05-09T09:04:53Z</time>
      </trkpt>
      <trkpt lat="36.497624991461635" lon="-5.371294040232897">
        <ele>334.19999999999999</ele>
        <time>2025-05-09T09:04:57Z</time>
      </trkpt>
      <trkpt lat="36.497486019507051" lon="-5.371244000270963">
        <ele>334.68000000000001</ele>
        <time>2025-05-09T09:04:58Z</time>
      </trkpt>
      <trkpt lat="36.497361967340112" lon="-5.371181974187493">
        <ele>335.16000000000003</ele>
        <time>2025-05-09T09:04:59Z</time>
      </trkpt>
      <trkpt lat="36.497247973456979" lon="-5.371106034144759">
        <ele>335.63999999999999</ele>
        <time>2025-05-09T09:05:00Z</time>
      </trkpt>
      <trkpt lat="36.497157029807568" lon="-5.371032021939755">
        <ele>336.60000000000002</ele>
        <time>2025-05-09T09:05:01Z</time>
      </trkpt>
      <trkpt lat="36.497115958482027" lon="-5.370901012793183">
        <ele>337.07999999999998</ele>
        <time>2025-05-09T09:05:02Z</time>
      </trkpt>
      <trkpt lat="36.497075976803899" lon="-5.370770003646612">
        <ele>338.04000000000002</ele>
        <time>2025-05-09T09:05:03Z</time>
      </trkpt>
      <trkpt lat="36.497110007330775" lon="-5.370649974793196">
        <ele>339</ele>
        <time>2025-05-09T09:05:04Z</time>
      </trkpt>
      <trkpt lat="36.497168010100722" lon="-5.370558025315404">
        <ele>339.95999999999998</ele>
        <time>2025-05-09T09:05:05Z</time>
      </trkpt>
      <trkpt lat="36.497244033962488" lon="-5.370495999231935">
        <ele>340.44</ele>
        <time>2025-05-09T09:05:06Z</time>
      </trkpt>
      <trkpt lat="36.497355010360479" lon="-5.370447970926762">
        <ele>341.41000000000003</ele>
        <time>2025-05-09T09:05:07Z</time>
      </trkpt>
      <trkpt lat="36.497488031163812" lon="-5.370447970926762">
        <ele>342.85000000000002</ele>
        <time>2025-05-09T09:05:08Z</time>
      </trkpt>
      <trkpt lat="36.497644018381834" lon="-5.370447970926762">
        <ele>343.81</ele>
        <time>2025-05-09T09:05:09Z</time>
      </trkpt>
      <trkpt lat="36.497992035001516" lon="-5.370447970926762">
        <ele>345.73000000000002</ele>
        <time>2025-05-09T09:05:11Z</time>
      </trkpt>
      <trkpt lat="36.498749004676938" lon="-5.370198022574186">
        <ele>351.01999999999998</ele>
        <time>2025-05-09T09:05:16Z</time>
      </trkpt>
      <trkpt lat="36.498851012438536" lon="-5.37012099288404">
        <ele>351.98000000000002</ele>
        <time>2025-05-09T09:05:17Z</time>
      </trkpt>
      <trkpt lat="36.498942961916327" lon="-5.370040023699403">
        <ele>352.94</ele>
        <time>2025-05-09T09:05:18Z</time>
      </trkpt>
      <trkpt lat="36.498983027413487" lon="-5.369896022602916">
        <ele>353.89999999999998</ele>
        <time>2025-05-09T09:05:19Z</time>
      </trkpt>
      <trkpt lat="36.499022003263235" lon="-5.36975403316319">
        <ele>354.86000000000001</ele>
        <time>2025-05-09T09:05:20Z</time>
      </trkpt>
      <trkpt lat="36.499049998819828" lon="-5.369654037058353">
        <ele>355.82999999999998</ele>
        <time>2025-05-09T09:05:21Z</time>
      </trkpt>
      <trkpt lat="36.498996019363403" lon="-5.369520010426641">
        <ele>356.79000000000002</ele>
        <time>2025-05-09T09:05:22Z</time>
      </trkpt>
      <trkpt lat="36.498936004936695" lon="-5.369368968531489">
        <ele>357.75</ele>
        <time>2025-05-09T09:05:23Z</time>
      </trkpt>
      <trkpt lat="36.498921001330018" lon="-5.369332004338503">
        <ele>358.70999999999998</ele>
        <time>2025-05-09T09:05:24Z</time>
      </trkpt>
      <trkpt lat="36.498727966099977" lon="-5.369181968271732">
        <ele>360.14999999999998</ele>
        <time>2025-05-09T09:05:25Z</time>
      </trkpt>
      <trkpt lat="36.498636016622186" lon="-5.369163025170565">
        <ele>361.11000000000001</ele>
        <time>2025-05-09T09:05:26Z</time>
      </trkpt>
      <trkpt lat="36.4984539616853" lon="-5.369165036827326">
        <ele>362.06999999999999</ele>
        <time>2025-05-09T09:05:27Z</time>
      </trkpt>
      <trkpt lat="36.498283976688981" lon="-5.36924097687006">
        <ele>362.55000000000001</ele>
        <time>2025-05-09T09:05:28Z</time>
      </trkpt>
      <trkpt lat="36.498111980035901" lon="-5.369320018216968">
        <ele>363.04000000000002</ele>
        <time>2025-05-09T09:05:29Z</time>
      </trkpt>
      <trkpt lat="36.497834958136082" lon="-5.369469970464706">
        <ele>362.55000000000001</ele>
        <time>2025-05-09T09:05:31Z</time>
      </trkpt>
      <trkpt lat="36.497699003666639" lon="-5.369493020698428">
        <ele>362.55000000000001</ele>
        <time>2025-05-09T09:05:32Z</time>
      </trkpt>
      <trkpt lat="36.497584003955126" lon="-5.369474999606609">
        <ele>362.55000000000001</ele>
        <time>2025-05-09T09:05:33Z</time>
      </trkpt>
      <trkpt lat="36.497484007850289" lon="-5.369418002665043">
        <ele>363.04000000000002</ele>
        <time>2025-05-09T09:05:34Z</time>
      </trkpt>
      <trkpt lat="36.4974420145154" lon="-5.369293028488755">
        <ele>363.51999999999998</ele>
        <time>2025-05-09T09:05:35Z</time>
      </trkpt>
      <trkpt lat="36.497418964281678" lon="-5.369174005463719">
        <ele>363.51999999999998</ele>
        <time>2025-05-09T09:05:36Z</time>
      </trkpt>
      <trkpt lat="36.497434973716736" lon="-5.369060011580586">
        <ele>364</ele>
        <time>2025-05-09T09:05:37Z</time>
      </trkpt>
      <trkpt lat="36.497486019507051" lon="-5.368947023525834">
        <ele>364.48000000000002</ele>
        <time>2025-05-09T09:05:38Z</time>
      </trkpt>
      <trkpt lat="36.497556008398533" lon="-5.368873011320829">
        <ele>365.44</ele>
        <time>2025-05-09T09:05:39Z</time>
      </trkpt>
      <trkpt lat="36.497663967311382" lon="-5.368815008550882">
        <ele>365.92000000000002</ele>
        <time>2025-05-09T09:05:40Z</time>
      </trkpt>
      <trkpt lat="36.497800005599856" lon="-5.36878801882267">
        <ele>366.88</ele>
        <time>2025-05-09T09:05:41Z</time>
      </trkpt>
      <trkpt lat="36.497944006696343" lon="-5.368759017437697">
        <ele>367.83999999999997</ele>
        <time>2025-05-09T09:05:42Z</time>
      </trkpt>
      <trkpt lat="36.498096976429224" lon="-5.368719035759568">
        <ele>368.80000000000001</ele>
        <time>2025-05-09T09:05:43Z</time>
      </trkpt>
      <trkpt lat="36.498221028596163" lon="-5.368599006906152">
        <ele>369.75999999999999</ele>
        <time>2025-05-09T09:05:44Z</time>
      </trkpt>
      <trkpt lat="36.49834600277245" lon="-5.368477972224355">
        <ele>370.73000000000002</ele>
        <time>2025-05-09T09:05:45Z</time>
      </trkpt>
      <trkpt lat="36.498999958857894" lon="-5.3677779994905">
        <ele>374.56999999999999</ele>
        <time>2025-05-09T09:05:50Z</time>
      </trkpt>
      <trkpt lat="36.49909702129662" lon="-5.367614971473813">
        <ele>375.52999999999997</ele>
        <time>2025-05-09T09:05:51Z</time>
      </trkpt>
      <trkpt lat="36.499200034886599" lon="-5.367443980649114">
        <ele>376.97000000000003</ele>
        <time>2025-05-09T09:05:52Z</time>
      </trkpt>
      <trkpt lat="36.49954603984952" lon="-5.366480983793736">
        <ele>383.22000000000003</ele>
        <time>2025-05-09T09:05:57Z</time>
      </trkpt>
      <trkpt lat="36.499617034569383" lon="-5.366291971877217">
        <ele>385.14999999999998</ele>
        <time>2025-05-09T09:05:58Z</time>
      </trkpt>
      <trkpt lat="36.499714013189077" lon="-5.36612500436604">
        <ele>386.11000000000001</ele>
        <time>2025-05-09T09:05:59Z</time>
      </trkpt>
      <trkpt lat="36.499822977930307" lon="-5.365942027419806">
        <ele>387.55000000000001</ele>
        <time>2025-05-09T09:06:00Z</time>
      </trkpt>
      <trkpt lat="36.499909982085228" lon="-5.365825016051531">
        <ele>388.50999999999999</ele>
        <time>2025-05-09T09:06:01Z</time>
      </trkpt>
      <trkpt lat="36.500174012035131" lon="-5.365381026640534">
        <ele>391.38999999999999</ele>
        <time>2025-05-09T09:06:04Z</time>
      </trkpt>
      <trkpt lat="36.500255987048149" lon="-5.365219004452229">
        <ele>391.38999999999999</ele>
        <time>2025-05-09T09:06:05Z</time>
      </trkpt>
      <trkpt lat="36.500308038666844" lon="-5.365036027505994">
        <ele>391.38999999999999</ele>
        <time>2025-05-09T09:06:06Z</time>
      </trkpt>
      <trkpt lat="36.500360006466508" lon="-5.364852966740727">
        <ele>391.87</ele>
        <time>2025-05-09T09:06:07Z</time>
      </trkpt>
      <trkpt lat="36.500369980931282" lon="-5.364645011723042">
        <ele>391.87</ele>
        <time>2025-05-09T09:06:08Z</time>
      </trkpt>
      <trkpt lat="36.500347014516592" lon="-5.36444703117013">
        <ele>392.36000000000001</ele>
        <time>2025-05-09T09:06:09Z</time>
      </trkpt>
      <trkpt lat="36.500308960676193" lon="-5.364261958748102">
        <ele>392.83999999999997</ele>
        <time>2025-05-09T09:06:10Z</time>
      </trkpt>
      <trkpt lat="36.500270990654826" lon="-5.36408401094377">
        <ele>393.31999999999999</ele>
        <time>2025-05-09T09:06:11Z</time>
      </trkpt>
      <trkpt lat="36.50025799870491" lon="-5.363905979320407">
        <ele>393.80000000000001</ele>
        <time>2025-05-09T09:06:12Z</time>
      </trkpt>
      <trkpt lat="36.500271996483207" lon="-5.363710010424256">
        <ele>394.27999999999997</ele>
        <time>2025-05-09T09:06:13Z</time>
      </trkpt>
      <trkpt lat="36.500337962061167" lon="-5.363532984629273">
        <ele>394.75999999999999</ele>
        <time>2025-05-09T09:06:14Z</time>
      </trkpt>
      <trkpt lat="36.500415997579694" lon="-5.363345984369516">
        <ele>395.24000000000001</ele>
        <time>2025-05-09T09:06:15Z</time>
      </trkpt>
      <trkpt lat="36.50090198032558" lon="-5.362396985292435">
        <ele>399.56999999999999</ele>
        <time>2025-05-09T09:06:20Z</time>
      </trkpt>
      <trkpt lat="36.501027960330248" lon="-5.362219959497452">
        <ele>400.05000000000001</ele>
        <time>2025-05-09T09:06:21Z</time>
      </trkpt>
      <trkpt lat="36.501175984740257" lon="-5.362077970057726">
        <ele>400.52999999999997</ele>
        <time>2025-05-09T09:06:22Z</time>
      </trkpt>
      <trkpt lat="36.501329960301518" lon="-5.361955007538199">
        <ele>401.00999999999999</ele>
        <time>2025-05-09T09:06:23Z</time>
      </trkpt>
      <trkpt lat="36.501488965004683" lon="-5.361872026696801">
        <ele>401.49000000000001</ele>
        <time>2025-05-09T09:06:24Z</time>
      </trkpt>
      <trkpt lat="36.501645036041737" lon="-5.361817041411996">
        <ele>401.97000000000003</ele>
        <time>2025-05-09T09:06:25Z</time>
      </trkpt>
      <trkpt lat="36.501786019653082" lon="-5.361791979521513">
        <ele>402.44999999999999</ele>
        <time>2025-05-09T09:06:26Z</time>
      </trkpt>
      <trkpt lat="36.50193203240633" lon="-5.36184998229146">
        <ele>403.41000000000003</ele>
        <time>2025-05-09T09:06:27Z</time>
      </trkpt>
      <trkpt lat="36.502063041552901" lon="-5.361937992274761">
        <ele>403.88999999999999</ele>
        <time>2025-05-09T09:06:28Z</time>
      </trkpt>
      <trkpt lat="36.502198996022344" lon="-5.362045029178262">
        <ele>405.32999999999998</ele>
        <time>2025-05-09T09:06:29Z</time>
      </trkpt>
      <trkpt lat="36.502336040139198" lon="-5.362151982262731">
        <ele>406.29000000000002</ele>
        <time>2025-05-09T09:06:30Z</time>
      </trkpt>
      <trkpt lat="36.502585988491774" lon="-5.362347029149532">
        <ele>407.74000000000001</ele>
        <time>2025-05-09T09:06:32Z</time>
      </trkpt>
      <trkpt lat="36.502740969881415" lon="-5.362393967807293">
        <ele>408.69999999999999</ele>
        <time>2025-05-09T09:06:33Z</time>
      </trkpt>
      <trkpt lat="36.502871979027987" lon="-5.362382987514138">
        <ele>409.18000000000001</ele>
        <time>2025-05-09T09:06:34Z</time>
      </trkpt>
      <trkpt lat="36.502996031194925" lon="-5.362306041643024">
        <ele>410.13999999999999</ele>
        <time>2025-05-09T09:06:35Z</time>
      </trkpt>
      <trkpt lat="36.503099966794252" lon="-5.362191963940859">
        <ele>410.62</ele>
        <time>2025-05-09T09:06:36Z</time>
      </trkpt>
      <trkpt lat="36.503160987049341" lon="-5.362044023349881">
        <ele>411.57999999999998</ele>
        <time>2025-05-09T09:06:37Z</time>
      </trkpt>
      <trkpt lat="36.503207003697753" lon="-5.361871020868421">
        <ele>412.54000000000002</ele>
        <time>2025-05-09T09:06:38Z</time>
      </trkpt>
      <trkpt lat="36.503234999254346" lon="-5.361695000901818">
        <ele>413.5</ele>
        <time>2025-05-09T09:06:39Z</time>
      </trkpt>
      <trkpt lat="36.503385035321116" lon="-5.360652040690184">
        <ele>419.26999999999998</ele>
        <time>2025-05-09T09:06:45Z</time>
      </trkpt>
      <trkpt lat="36.503462987020612" lon="-5.35982801578939">
        <ele>426.95999999999998</ele>
        <time>2025-05-09T09:06:50Z</time>
      </trkpt>
      <trkpt lat="36.503506992012262" lon="-5.359693989157677">
        <ele>428.88999999999999</ele>
        <time>2025-05-09T09:06:51Z</time>
      </trkpt>
      <trkpt lat="36.503576980903745" lon="-5.359599022194743">
        <ele>430.32999999999998</ele>
        <time>2025-05-09T09:06:52Z</time>
      </trkpt>
      <trkpt lat="36.503653004765511" lon="-5.359544036909938">
        <ele>431.76999999999998</ele>
        <time>2025-05-09T09:06:53Z</time>
      </trkpt>
      <trkpt lat="36.503759035840631" lon="-5.359534984454513">
        <ele>432.73000000000002</ele>
        <time>2025-05-09T09:06:54Z</time>
      </trkpt>
      <trkpt lat="36.503857020288706" lon="-5.359526015818119">
        <ele>433.69</ele>
        <time>2025-05-09T09:06:55Z</time>
      </trkpt>
      <trkpt lat="36.50395299308002" lon="-5.359586030244827">
        <ele>434.17000000000002</ele>
        <time>2025-05-09T09:06:56Z</time>
      </trkpt>
      <trkpt lat="36.504033962264657" lon="-5.359645960852504">
        <ele>435.13</ele>
        <time>2025-05-09T09:06:57Z</time>
      </trkpt>
      <trkpt lat="36.504087019711733" lon="-5.359769007191062">
        <ele>436.10000000000002</ele>
        <time>2025-05-09T09:06:58Z</time>
      </trkpt>
      <trkpt lat="36.504109986126423" lon="-5.359904039651156">
        <ele>436.57999999999998</ele>
        <time>2025-05-09T09:06:59Z</time>
      </trkpt>
      <trkpt lat="36.504132030531764" lon="-5.360060026869178">
        <ele>437.54000000000002</ele>
        <time>2025-05-09T09:07:00Z</time>
      </trkpt>
      <trkpt lat="36.504157008603215" lon="-5.360231017693877">
        <ele>438.5</ele>
        <time>2025-05-09T09:07:01Z</time>
      </trkpt>
      <trkpt lat="36.504179975017905" lon="-5.36041097715497">
        <ele>438.98000000000002</ele>
        <time>2025-05-09T09:07:02Z</time>
      </trkpt>
      <trkpt lat="36.504204031080008" lon="-5.360595965757966">
        <ele>439.94</ele>
        <time>2025-05-09T09:07:03Z</time>
      </trkpt>
      <trkpt lat="36.504237977787852" lon="-5.360787995159626">
        <ele>440.42000000000002</ele>
        <time>2025-05-09T09:07:04Z</time>
      </trkpt>
      <trkpt lat="36.504285000264645" lon="-5.360957980155945">
        <ele>440.89999999999998</ele>
        <time>2025-05-09T09:07:05Z</time>
      </trkpt>
      <trkpt lat="36.504329005256295" lon="-5.361113967373967">
        <ele>441.86000000000001</ele>
        <time>2025-05-09T09:07:06Z</time>
      </trkpt>
      <trkpt lat="36.504415003582835" lon="-5.361231984570622">
        <ele>442.81999999999999</ele>
        <time>2025-05-09T09:07:07Z</time>
      </trkpt>
      <trkpt lat="36.504498990252614" lon="-5.361347990110517">
        <ele>443.79000000000002</ele>
        <time>2025-05-09T09:07:08Z</time>
      </trkpt>
      <trkpt lat="36.504620024934411" lon="-5.361417979001999">
        <ele>444.75</ele>
        <time>2025-05-09T09:07:09Z</time>
      </trkpt>
      <trkpt lat="36.504737958312035" lon="-5.361485034227371">
        <ele>445.70999999999998</ele>
        <time>2025-05-09T09:07:10Z</time>
      </trkpt>
      <trkpt lat="36.504861004650593" lon="-5.361529039219022">
        <ele>447.14999999999998</ele>
        <time>2025-05-09T09:07:11Z</time>
      </trkpt>
      <trkpt lat="36.504971981048584" lon="-5.361543036997318">
        <ele>448.11000000000001</ele>
        <time>2025-05-09T09:07:12Z</time>
      </trkpt>
      <trkpt lat="36.505081029608846" lon="-5.361501965671778">
        <ele>449.06999999999999</ele>
        <time>2025-05-09T09:07:13Z</time>
      </trkpt>
      <trkpt lat="36.505167027935386" lon="-5.361451003700495">
        <ele>450.51999999999998</ele>
        <time>2025-05-09T09:07:14Z</time>
      </trkpt>
      <trkpt lat="36.505251014605165" lon="-5.361350001767278">
        <ele>451.48000000000002</ele>
        <time>2025-05-09T09:07:15Z</time>
      </trkpt>
      <trkpt lat="36.505317986011505" lon="-5.361235002055764">
        <ele>451.95999999999998</ele>
        <time>2025-05-09T09:07:16Z</time>
      </trkpt>
      <trkpt lat="36.505390992388129" lon="-5.361111033707857">
        <ele>453.39999999999998</ele>
        <time>2025-05-09T09:07:17Z</time>
      </trkpt>
      <trkpt lat="36.505462992936373" lon="-5.360985975712538">
        <ele>454.36000000000001</ele>
        <time>2025-05-09T09:07:18Z</time>
      </trkpt>
      <trkpt lat="36.505537005141377" lon="-5.36085999570787">
        <ele>455.31999999999999</ele>
        <time>2025-05-09T09:07:19Z</time>
      </trkpt>
      <trkpt lat="36.505656028166413" lon="-5.360778020694852">
        <ele>455.80000000000001</ele>
        <time>2025-05-09T09:07:20Z</time>
      </trkpt>
      <trkpt lat="36.505777984857559" lon="-5.360712977126241">
        <ele>457.24000000000001</ele>
        <time>2025-05-09T09:07:21Z</time>
      </trkpt>
      <trkpt lat="36.505914023146033" lon="-5.360683975741267">
        <ele>457.72000000000003</ele>
        <time>2025-05-09T09:07:22Z</time>
      </trkpt>
      <trkpt lat="36.506049977615476" lon="-5.360683975741267">
        <ele>458.69</ele>
        <time>2025-05-09T09:07:23Z</time>
      </trkpt>
      <trkpt lat="36.506190961226821" lon="-5.360698979347944">
        <ele>459.64999999999998</ele>
        <time>2025-05-09T09:07:24Z</time>
      </trkpt>
      <trkpt lat="36.506324987858534" lon="-5.36075103096664">
        <ele>460.61000000000001</ele>
        <time>2025-05-09T09:07:25Z</time>
      </trkpt>
      <trkpt lat="36.506460020318627" lon="-5.360802998766303">
        <ele>461.56999999999999</ele>
        <time>2025-05-09T09:07:26Z</time>
      </trkpt>
      <trkpt lat="36.506593963131309" lon="-5.360853960737586">
        <ele>462.52999999999997</ele>
        <time>2025-05-09T09:07:27Z</time>
      </trkpt>
      <trkpt lat="36.506709968671203" lon="-5.360898971557617">
        <ele>463.97000000000003</ele>
        <time>2025-05-09T09:07:28Z</time>
      </trkpt>
      <trkpt lat="36.506850030273199" lon="-5.360898971557617">
        <ele>464.93000000000001</ele>
        <time>2025-05-09T09:07:29Z</time>
      </trkpt>
      <trkpt lat="36.506975004449487" lon="-5.360898971557617">
        <ele>465.89999999999998</ele>
        <time>2025-05-09T09:07:30Z</time>
      </trkpt>
      <trkpt lat="36.507082041352987" lon="-5.360857984051108">
        <ele>466.86000000000001</ele>
        <time>2025-05-09T09:07:31Z</time>
      </trkpt>
      <trkpt lat="36.50719796307385" lon="-5.360792018473148">
        <ele>467.81999999999999</ele>
        <time>2025-05-09T09:07:32Z</time>
      </trkpt>
      <trkpt lat="36.507314974442124" lon="-5.360721023753285">
        <ele>468.77999999999997</ele>
        <time>2025-05-09T09:07:33Z</time>
      </trkpt>
      <trkpt lat="36.507397033274174" lon="-5.360593032091856">
        <ele>469.74000000000001</ele>
        <time>2025-05-09T09:07:34Z</time>
      </trkpt>
      <trkpt lat="36.507484037429094" lon="-5.360457999631763">
        <ele>470.69999999999999</ele>
        <time>2025-05-09T09:07:35Z</time>
      </trkpt>
      <trkpt lat="36.5075390227139" lon="-5.360282985493541">
        <ele>471.66000000000003</ele>
        <time>2025-05-09T09:07:36Z</time>
      </trkpt>
      <trkpt lat="36.507581016048789" lon="-5.3601089771837">
        <ele>472.63</ele>
        <time>2025-05-09T09:07:37Z</time>
      </trkpt>
      <trkpt lat="36.507675983011723" lon="-5.359770013019443">
        <ele>475.02999999999997</ele>
        <time>2025-05-09T09:07:39Z</time>
      </trkpt>
      <trkpt lat="36.507732979953289" lon="-5.359607990831137">
        <ele>476.47000000000003</ele>
        <time>2025-05-09T09:07:40Z</time>
      </trkpt>
      <trkpt lat="36.507814032956958" lon="-5.35946499556303">
        <ele>477.91000000000003</ele>
        <time>2025-05-09T09:07:41Z</time>
      </trkpt>
      <trkpt lat="36.507916040718555" lon="-5.359345972537994">
        <ele>478.87</ele>
        <time>2025-05-09T09:07:42Z</time>
      </trkpt>
      <trkpt lat="36.508016036823392" lon="-5.35922896116972">
        <ele>479.83999999999997</ele>
        <time>2025-05-09T09:07:43Z</time>
      </trkpt>
      <trkpt lat="36.508117038756609" lon="-5.359112033620477">
        <ele>481.27999999999997</ele>
        <time>2025-05-09T09:07:44Z</time>
      </trkpt>
      <trkpt lat="36.508198007941246" lon="-5.358975995332003">
        <ele>482.72000000000003</ele>
        <time>2025-05-09T09:07:45Z</time>
      </trkpt>
      <trkpt lat="36.508264979347587" lon="-5.358840962871909">
        <ele>484.16000000000003</ele>
        <time>2025-05-09T09:07:46Z</time>
      </trkpt>
      <trkpt lat="36.50827000848949" lon="-5.358686987310648">
        <ele>485.12</ele>
        <time>2025-05-09T09:07:47Z</time>
      </trkpt>
      <trkpt lat="36.508261961862445" lon="-5.358522031456232">
        <ele>486.07999999999998</ele>
        <time>2025-05-09T09:07:48Z</time>
      </trkpt>
      <trkpt lat="36.508252993226051" lon="-5.35834701731801">
        <ele>487.52999999999997</ele>
        <time>2025-05-09T09:07:49Z</time>
      </trkpt>
      <trkpt lat="36.508234972134233" lon="-5.358009980991483">
        <ele>490.41000000000003</ele>
        <time>2025-05-09T09:07:51Z</time>
      </trkpt>
      <trkpt lat="36.508275037631392" lon="-5.357863968238235">
        <ele>491.37</ele>
        <time>2025-05-09T09:07:52Z</time>
      </trkpt>
      <trkpt lat="36.508325999602675" lon="-5.357720972970128">
        <ele>492.81</ele>
        <time>2025-05-09T09:07:53Z</time>
      </trkpt>
      <trkpt lat="36.50850797072053" lon="-5.357307996600866">
        <ele>496.18000000000001</ele>
        <time>2025-05-09T09:07:56Z</time>
      </trkpt>
      <trkpt lat="36.508566979318857" lon="-5.357175981625915">
        <ele>497.62</ele>
        <time>2025-05-09T09:07:57Z</time>
      </trkpt>
      <trkpt lat="36.50870000012219" lon="-5.356807010248303">
        <ele>501.45999999999998</ele>
        <time>2025-05-09T09:08:00Z</time>
      </trkpt>
      <trkpt lat="36.508779963478446" lon="-5.356734003871679">
        <ele>502.91000000000003</ele>
        <time>2025-05-09T09:08:01Z</time>
      </trkpt>
      <trkpt lat="36.508882977068424" lon="-5.356708019971848">
        <ele>503.87</ele>
        <time>2025-05-09T09:08:02Z</time>
      </trkpt>
      <trkpt lat="36.508982973173261" lon="-5.356719000265002">
        <ele>505.31</ele>
        <time>2025-05-09T09:08:03Z</time>
      </trkpt>
      <trkpt lat="36.50906503200531" lon="-5.356769962236285">
        <ele>506.26999999999998</ele>
        <time>2025-05-09T09:08:04Z</time>
      </trkpt>
      <trkpt lat="36.509127980098128" lon="-5.356859983876348">
        <ele>507.70999999999998</ele>
        <time>2025-05-09T09:08:05Z</time>
      </trkpt>
      <trkpt lat="36.509158993139863" lon="-5.356987975537777">
        <ele>509.16000000000003</ele>
        <time>2025-05-09T09:08:06Z</time>
      </trkpt>
      <trkpt lat="36.50919402949512" lon="-5.357135999947786">
        <ele>510.12</ele>
        <time>2025-05-09T09:08:07Z</time>
      </trkpt>
      <trkpt lat="36.509231999516487" lon="-5.35729500465095">
        <ele>511.56</ele>
        <time>2025-05-09T09:08:08Z</time>
      </trkpt>
      <trkpt lat="36.509278016164899" lon="-5.357450991868973">
        <ele>512.51999999999998</ele>
        <time>2025-05-09T09:08:09Z</time>
      </trkpt>
      <trkpt lat="36.509325038641691" lon="-5.357603039592505">
        <ele>513.48000000000002</ele>
        <time>2025-05-09T09:08:10Z</time>
      </trkpt>
      <trkpt lat="36.509386980906129" lon="-5.357735976576805">
        <ele>514.44000000000005</ele>
        <time>2025-05-09T09:08:11Z</time>
      </trkpt>
      <trkpt lat="36.509471973404288" lon="-5.357863968238235">
        <ele>514.91999999999996</ele>
        <time>2025-05-09T09:08:12Z</time>
      </trkpt>
      <trkpt lat="36.509558977559209" lon="-5.357993971556425">
        <ele>515.39999999999998</ele>
        <time>2025-05-09T09:08:13Z</time>
      </trkpt>
      <trkpt lat="36.509660985320807" lon="-5.358098996803165">
        <ele>516.37</ele>
        <time>2025-05-09T09:08:14Z</time>
      </trkpt>
      <trkpt lat="36.509771039709449" lon="-5.358208967372775">
        <ele>516.85000000000002</ele>
        <time>2025-05-09T09:08:15Z</time>
      </trkpt>
      <trkpt lat="36.510216034948826" lon="-5.358601994812489">
        <ele>519.25</ele>
        <time>2025-05-09T09:08:19Z</time>
      </trkpt>
      <trkpt lat="36.510336985811591" lon="-5.358651028946042">
        <ele>520.21000000000004</ele>
        <time>2025-05-09T09:08:20Z</time>
      </trkpt>
      <trkpt lat="36.510462965816259" lon="-5.358662009239197">
        <ele>521.16999999999996</ele>
        <time>2025-05-09T09:08:21Z</time>
      </trkpt>
      <trkpt lat="36.51059003546834" lon="-5.358633007854223">
        <ele>521.64999999999998</ele>
        <time>2025-05-09T09:08:22Z</time>
      </trkpt>
      <trkpt lat="36.510716015473008" lon="-5.35856100730598">
        <ele>522.61000000000001</ele>
        <time>2025-05-09T09:08:23Z</time>
      </trkpt>
      <trkpt lat="36.510844007134438" lon="-5.358488000929356">
        <ele>523.09000000000003</ele>
        <time>2025-05-09T09:08:24Z</time>
      </trkpt>
      <trkpt lat="36.510980967432261" lon="-5.358409965410829">
        <ele>524.05999999999995</ele>
        <time>2025-05-09T09:08:25Z</time>
      </trkpt>
      <trkpt lat="36.511089010164142" lon="-5.358292032033205">
        <ele>524.53999999999996</ele>
        <time>2025-05-09T09:08:26Z</time>
      </trkpt>
      <trkpt lat="36.511197974905372" lon="-5.358173009008169">
        <ele>525.5</ele>
        <time>2025-05-09T09:08:27Z</time>
      </trkpt>
      <trkpt lat="36.511303000152111" lon="-5.358058009296656">
        <ele>525.98000000000002</ele>
        <time>2025-05-09T09:08:28Z</time>
      </trkpt>
      <trkpt lat="36.511399978771806" lon="-5.357952984049916">
        <ele>527.41999999999996</ele>
        <time>2025-05-09T09:08:29Z</time>
      </trkpt>
      <trkpt lat="36.511492012068629" lon="-5.357881989330053">
        <ele>527.89999999999998</ele>
        <time>2025-05-09T09:08:30Z</time>
      </trkpt>
      <trkpt lat="36.51160298846662" lon="-5.357845025137067">
        <ele>528.86000000000001</ele>
        <time>2025-05-09T09:08:31Z</time>
      </trkpt>
      <trkpt lat="36.511727962642908" lon="-5.357848964631558">
        <ele>530.29999999999995</ele>
        <time>2025-05-09T09:08:32Z</time>
      </trkpt>
      <trkpt lat="36.511848997324705" lon="-5.357876038178802">
        <ele>531.26999999999998</ele>
        <time>2025-05-09T09:08:33Z</time>
      </trkpt>
      <trkpt lat="36.511972965672612" lon="-5.357903027907014">
        <ele>531.75</ele>
        <time>2025-05-09T09:08:34Z</time>
      </trkpt>
      <trkpt lat="36.512099029496312" lon="-5.357907973229885">
        <ele>532.23000000000002</ele>
        <time>2025-05-09T09:08:35Z</time>
      </trkpt>
      <trkpt lat="36.512222997844219" lon="-5.357879977673292">
        <ele>532.71000000000004</ele>
        <time>2025-05-09T09:08:36Z</time>
      </trkpt>
      <trkpt lat="36.51233296841383" lon="-5.357798002660275">
        <ele>532.71000000000004</ele>
        <time>2025-05-09T09:08:37Z</time>
      </trkpt>
      <trkpt lat="36.512460960075259" lon="-5.35770202986896">
        <ele>533.19000000000005</ele>
        <time>2025-05-09T09:08:38Z</time>
      </trkpt>
      <trkpt lat="36.513020033016801" lon="-5.357133988291025">
        <ele>537.99000000000001</ele>
        <time>2025-05-09T09:08:43Z</time>
      </trkpt>
      <trkpt lat="36.513114999979734" lon="-5.357003984972835">
        <ele>538.96000000000004</ele>
        <time>2025-05-09T09:08:44Z</time>
      </trkpt>
      <trkpt lat="36.513194041326642" lon="-5.356830982491374">
        <ele>539.91999999999996</ele>
        <time>2025-05-09T09:08:45Z</time>
      </trkpt>
      <trkpt lat="36.513237040489912" lon="-5.356659991666675">
        <ele>540.88</ele>
        <time>2025-05-09T09:08:46Z</time>
      </trkpt>
      <trkpt lat="36.513285990804434" lon="-5.356485983356834">
        <ele>541.84000000000003</ele>
        <time>2025-05-09T09:08:47Z</time>
      </trkpt>
      <trkpt lat="36.513339970260859" lon="-5.356312980875373">
        <ele>542.32000000000005</ele>
        <time>2025-05-09T09:08:48Z</time>
      </trkpt>
      <trkpt lat="36.513418005779386" lon="-5.356168979778886">
        <ele>543.27999999999997</ele>
        <time>2025-05-09T09:08:49Z</time>
      </trkpt>
      <trkpt lat="36.5135139785707" lon="-5.356042999774218">
        <ele>544.24000000000001</ele>
        <time>2025-05-09T09:08:50Z</time>
      </trkpt>
      <trkpt lat="36.513606011867523" lon="-5.355921965092421">
        <ele>544.72000000000003</ele>
        <time>2025-05-09T09:08:51Z</time>
      </trkpt>
      <trkpt lat="36.513697039335966" lon="-5.355802020058036">
        <ele>545.69000000000005</ele>
        <time>2025-05-09T09:08:52Z</time>
      </trkpt>
      <trkpt lat="36.513786977156997" lon="-5.355682997033">
        <ele>546.64999999999998</ele>
        <time>2025-05-09T09:08:53Z</time>
      </trkpt>
      <trkpt lat="36.513860989362001" lon="-5.355536984279752">
        <ele>547.13</ele>
        <time>2025-05-09T09:08:54Z</time>
      </trkpt>
      <trkpt lat="36.513913040980697" lon="-5.355374040082097">
        <ele>548.57000000000005</ele>
        <time>2025-05-09T09:08:55Z</time>
      </trkpt>
      <trkpt lat="36.51396500878036" lon="-5.355213023722172">
        <ele>549.04999999999995</ele>
        <time>2025-05-09T09:08:56Z</time>
      </trkpt>
      <trkpt lat="36.514112027361989" lon="-5.354747995734215">
        <ele>552.40999999999997</ele>
        <time>2025-05-09T09:08:59Z</time>
      </trkpt>
      <trkpt lat="36.514173969626427" lon="-5.354647999629378">
        <ele>553.38</ele>
        <time>2025-05-09T09:09:00Z</time>
      </trkpt>
      <trkpt lat="36.514262985438108" lon="-5.354584967717528">
        <ele>554.82000000000005</ele>
        <time>2025-05-09T09:09:01Z</time>
      </trkpt>
      <trkpt lat="36.514365999028087" lon="-5.35458798520267">
        <ele>555.77999999999997</ele>
        <time>2025-05-09T09:09:02Z</time>
      </trkpt>
      <trkpt lat="36.514487033709884" lon="-5.354615980759263">
        <ele>556.74000000000001</ele>
        <time>2025-05-09T09:09:03Z</time>
      </trkpt>
      <trkpt lat="36.514605972915888" lon="-5.354674989357591">
        <ele>557.70000000000005</ele>
        <time>2025-05-09T09:09:04Z</time>
      </trkpt>
      <trkpt lat="36.51471502147615" lon="-5.354784037917852">
        <ele>558.65999999999997</ele>
        <time>2025-05-09T09:09:05Z</time>
      </trkpt>
      <trkpt lat="36.514830021187663" lon="-5.354893002659082">
        <ele>560.11000000000001</ele>
        <time>2025-05-09T09:09:06Z</time>
      </trkpt>
      <trkpt lat="36.514945020899177" lon="-5.354985035955906">
        <ele>561.07000000000005</ele>
        <time>2025-05-09T09:09:07Z</time>
      </trkpt>
      <trkpt lat="36.515066977590322" lon="-5.355047984048724">
        <ele>562.02999999999997</ele>
        <time>2025-05-09T09:09:08Z</time>
      </trkpt>
      <trkpt lat="36.515164962038398" lon="-5.355062987655401">
        <ele>562.50999999999999</ele>
        <time>2025-05-09T09:09:09Z</time>
      </trkpt>
      <trkpt lat="36.515277028083801" lon="-5.355000039562583">
        <ele>563.47000000000003</ele>
        <time>2025-05-09T09:09:10Z</time>
      </trkpt>
      <trkpt lat="36.515368977561593" lon="-5.35493097268045">
        <ele>563.95000000000005</ele>
        <time>2025-05-09T09:09:11Z</time>
      </trkpt>
      <trkpt lat="36.515432009473443" lon="-5.35479904152453">
        <ele>564.90999999999997</ele>
        <time>2025-05-09T09:09:12Z</time>
      </trkpt>
      <trkpt lat="36.515499986708164" lon="-5.354655962437391">
        <ele>565.87</ele>
        <time>2025-05-09T09:09:13Z</time>
      </trkpt>
      <trkpt lat="36.515564024448395" lon="-5.354502992704511">
        <ele>566.83000000000004</ele>
        <time>2025-05-09T09:09:14Z</time>
      </trkpt>
      <trkpt lat="36.515613980591297" lon="-5.354337031021714">
        <ele>567.79999999999995</ele>
        <time>2025-05-09T09:09:15Z</time>
      </trkpt>
      <trkpt lat="36.515638036653399" lon="-5.354155981913209">
        <ele>569.24000000000001</ele>
        <time>2025-05-09T09:09:16Z</time>
      </trkpt>
      <trkpt lat="36.515654968097806" lon="-5.353961018845439">
        <ele>570.67999999999995</ele>
        <time>2025-05-09T09:09:17Z</time>
      </trkpt>
      <trkpt lat="36.515632001683116" lon="-5.353757003322244">
        <ele>571.63999999999999</ele>
        <time>2025-05-09T09:09:18Z</time>
      </trkpt>
      <trkpt lat="36.515608029440045" lon="-5.353549970313907">
        <ele>573.08000000000004</ele>
        <time>2025-05-09T09:09:19Z</time>
      </trkpt>
      <trkpt lat="36.515448018908501" lon="-5.352344987913966">
        <ele>580.76999999999998</ele>
        <time>2025-05-09T09:09:25Z</time>
      </trkpt>
      <trkpt lat="36.515385992825031" lon="-5.352178020402789">
        <ele>581.73000000000002</ele>
        <time>2025-05-09T09:09:26Z</time>
      </trkpt>
      <trkpt lat="36.515287002548575" lon="-5.352036030963063">
        <ele>582.70000000000005</ele>
        <time>2025-05-09T09:09:27Z</time>
      </trkpt>
      <trkpt lat="36.515166973695159" lon="-5.351926982402802">
        <ele>583.65999999999997</ele>
        <time>2025-05-09T09:09:28Z</time>
      </trkpt>
      <trkpt lat="36.515045017004013" lon="-5.351813994348049">
        <ele>584.62</ele>
        <time>2025-05-09T09:09:29Z</time>
      </trkpt>
      <trkpt lat="36.514384020119905" lon="-5.351247964426875">
        <ele>588.95000000000005</ele>
        <time>2025-05-09T09:09:34Z</time>
      </trkpt>
      <trkpt lat="36.514120995998383" lon="-5.351059036329389">
        <ele>590.87</ele>
        <time>2025-05-09T09:09:36Z</time>
      </trkpt>
      <trkpt lat="36.513994010165334" lon="-5.350968008860946">
        <ele>591.83000000000004</ele>
        <time>2025-05-09T09:09:37Z</time>
      </trkpt>
      <trkpt lat="36.513107037171721" lon="-5.349980033934116">
        <ele>601.91999999999996</ele>
        <time>2025-05-09T09:09:45Z</time>
      </trkpt>
      <trkpt lat="36.513052973896265" lon="-5.349836032837629">
        <ele>603.36000000000001</ele>
        <time>2025-05-09T09:09:46Z</time>
      </trkpt>
      <trkpt lat="36.513001006096601" lon="-5.349694965407252">
        <ele>604.80999999999995</ele>
        <time>2025-05-09T09:09:47Z</time>
      </trkpt>
      <trkpt lat="36.51295498944819" lon="-5.349554987624288">
        <ele>605.76999999999998</ele>
        <time>2025-05-09T09:09:48Z</time>
      </trkpt>
      <trkpt lat="36.51295498944819" lon="-5.349393971264362">
        <ele>607.21000000000004</ele>
        <time>2025-05-09T09:09:49Z</time>
      </trkpt>
      <trkpt lat="36.51297502219677" lon="-5.349249970167875">
        <ele>607.69000000000005</ele>
        <time>2025-05-09T09:09:50Z</time>
      </trkpt>
      <trkpt lat="36.513038976117969" lon="-5.349128013476729">
        <ele>608.16999999999996</ele>
        <time>2025-05-09T09:09:51Z</time>
      </trkpt>
      <trkpt lat="36.513132015243173" lon="-5.349026005715132">
        <ele>608.64999999999998</ele>
        <time>2025-05-09T09:09:52Z</time>
      </trkpt>
      <trkpt lat="36.513247014954686" lon="-5.348956016823649">
        <ele>609.13</ele>
        <time>2025-05-09T09:09:53Z</time>
      </trkpt>
      <trkpt lat="36.513381041586399" lon="-5.348913017660379">
        <ele>610.09000000000003</ele>
        <time>2025-05-09T09:09:54Z</time>
      </trkpt>
      <trkpt lat="36.513511966913939" lon="-5.348890973255038">
        <ele>611.05999999999995</ele>
        <time>2025-05-09T09:09:55Z</time>
      </trkpt>
      <trkpt lat="36.513636019080877" lon="-5.348872030153871">
        <ele>612.01999999999998</ele>
        <time>2025-05-09T09:09:56Z</time>
      </trkpt>
      <trkpt lat="36.513884961605072" lon="-5.348802041262388">
        <ele>613.46000000000004</ele>
        <time>2025-05-09T09:09:58Z</time>
      </trkpt>
      <trkpt lat="36.513996021822095" lon="-5.348718976601958">
        <ele>614.41999999999996</ele>
        <time>2025-05-09T09:09:59Z</time>
      </trkpt>
      <trkpt lat="36.51407296769321" lon="-5.34859199076891">
        <ele>615.86000000000001</ele>
        <time>2025-05-09T09:10:00Z</time>
      </trkpt>
      <trkpt lat="36.514154020696878" lon="-5.348448995500803">
        <ele>616.82000000000005</ele>
        <time>2025-05-09T09:10:01Z</time>
      </trkpt>
      <trkpt lat="36.514225015416741" lon="-5.348288984969258">
        <ele>617.77999999999997</ele>
        <time>2025-05-09T09:10:02Z</time>
      </trkpt>
      <trkpt lat="36.514483010396361" lon="-5.347425984218717">
        <ele>624.02999999999997</ele>
        <time>2025-05-09T09:10:07Z</time>
      </trkpt>
      <trkpt lat="36.514494996517897" lon="-5.347258010879159">
        <ele>624.99000000000001</ele>
        <time>2025-05-09T09:10:08Z</time>
      </trkpt>
      <trkpt lat="36.514483010396361" lon="-5.347081990912557">
        <ele>625.96000000000004</ele>
        <time>2025-05-09T09:10:09Z</time>
      </trkpt>
      <trkpt lat="36.514429030939937" lon="-5.346729028970003">
        <ele>628.36000000000001</ele>
        <time>2025-05-09T09:10:11Z</time>
      </trkpt>
      <trkpt lat="36.514424001798034" lon="-5.34655200317502">
        <ele>629.32000000000005</ele>
        <time>2025-05-09T09:10:12Z</time>
      </trkpt>
      <trkpt lat="36.514446968212724" lon="-5.346384029835463">
        <ele>630.75999999999999</ele>
        <time>2025-05-09T09:10:13Z</time>
      </trkpt>
      <trkpt lat="36.514502037316561" lon="-5.346210021525621">
        <ele>631.72000000000003</ele>
        <time>2025-05-09T09:10:14Z</time>
      </trkpt>
      <trkpt lat="36.514570014551282" lon="-5.346061997115612">
        <ele>632.67999999999995</ele>
        <time>2025-05-09T09:10:15Z</time>
      </trkpt>
      <trkpt lat="36.514647966250777" lon="-5.345943979918957">
        <ele>633.64999999999998</ele>
        <time>2025-05-09T09:10:16Z</time>
      </trkpt>
      <trkpt lat="36.514726001769304" lon="-5.345837026834488">
        <ele>634.61000000000001</ele>
        <time>2025-05-09T09:10:17Z</time>
      </trkpt>
      <trkpt lat="36.514807976782322" lon="-5.345724960789084">
        <ele>635.57000000000005</ele>
        <time>2025-05-09T09:10:18Z</time>
      </trkpt>
      <trkpt lat="36.51484795846045" lon="-5.345575008541346">
        <ele>637.00999999999999</ele>
        <time>2025-05-09T09:10:19Z</time>
      </trkpt>
      <trkpt lat="36.514878971502185" lon="-5.345420027151704">
        <ele>637.49000000000001</ele>
        <time>2025-05-09T09:10:20Z</time>
      </trkpt>
      <trkpt lat="36.514871008694172" lon="-5.345263034105301">
        <ele>638.45000000000005</ele>
        <time>2025-05-09T09:10:21Z</time>
      </trkpt>
      <trkpt lat="36.514851981773973" lon="-5.345110986381769">
        <ele>639.88999999999999</ele>
        <time>2025-05-09T09:10:22Z</time>
      </trkpt>
      <trkpt lat="36.514805965125561" lon="-5.344976037740707">
        <ele>640.38</ele>
        <time>2025-05-09T09:10:23Z</time>
      </trkpt>
      <trkpt lat="36.514730025082827" lon="-5.344844022765756">
        <ele>640.86000000000001</ele>
        <time>2025-05-09T09:10:24Z</time>
      </trkpt>
      <trkpt lat="36.514616031199694" lon="-5.344750983640552">
        <ele>641.34000000000003</ele>
        <time>2025-05-09T09:10:25Z</time>
      </trkpt>
      <trkpt lat="36.514496002346277" lon="-5.344650987535715">
        <ele>641.34000000000003</ele>
        <time>2025-05-09T09:10:26Z</time>
      </trkpt>
      <trkpt lat="36.514278994873166" lon="-5.344444960355759">
        <ele>641.34000000000003</ele>
        <time>2025-05-09T09:10:28Z</time>
      </trkpt>
      <trkpt lat="36.514191990718246" lon="-5.344337001442909">
        <ele>640.86000000000001</ele>
        <time>2025-05-09T09:10:29Z</time>
      </trkpt>
      <trkpt lat="36.51413599960506" lon="-5.344190988689661">
        <ele>640.86000000000001</ele>
        <time>2025-05-09T09:10:30Z</time>
      </trkpt>
      <trkpt lat="36.514081014320254" lon="-5.344024021178484">
        <ele>640.86000000000001</ele>
        <time>2025-05-09T09:10:31Z</time>
      </trkpt>
      <trkpt lat="36.514042038470507" lon="-5.343840038403869">
        <ele>640.86000000000001</ele>
        <time>2025-05-09T09:10:32Z</time>
      </trkpt>
      <trkpt lat="36.513778008520603" lon="-5.342848040163517">
        <ele>640.38</ele>
        <time>2025-05-09T09:10:38Z</time>
      </trkpt>
      <trkpt lat="36.513725034892559" lon="-5.342732034623623">
        <ele>639.88999999999999</ele>
        <time>2025-05-09T09:10:39Z</time>
      </trkpt>
      <trkpt lat="36.51368597522378" lon="-5.342646958306432">
        <ele>639.40999999999997</ele>
        <time>2025-05-09T09:10:40Z</time>
      </trkpt>
      <trkpt lat="36.513650016859174" lon="-5.342453001067042">
        <ele>638.92999999999995</ele>
        <time>2025-05-09T09:10:47Z</time>
      </trkpt>
      <trkpt lat="36.513648005202413" lon="-5.342435985803604">
        <ele>638.92999999999995</ele>
        <time>2025-05-09T09:10:48Z</time>
      </trkpt>
      <trkpt lat="36.513648005202413" lon="-5.342435985803604">
        <ele>638.92999999999995</ele>
        <time>2025-05-09T09:11:01Z</time>
      </trkpt>
      <trkpt lat="36.513518001884222" lon="-5.342408996075392">
        <ele>647.10000000000002</ele>
        <time>2025-05-09T09:16:03Z</time>
      </trkpt>
      <trkpt lat="36.513537028804421" lon="-5.342412013560534">
        <ele>641.34000000000003</ele>
        <time>2025-05-09T09:16:38Z</time>
      </trkpt>
      <trkpt lat="36.513640964403749" lon="-5.342359961941838">
        <ele>641.34000000000003</ele>
        <time>2025-05-09T09:16:42Z</time>
      </trkpt>
      <trkpt lat="36.51364297606051" lon="-5.342348981648684">
        <ele>641.82000000000005</ele>
        <time>2025-05-09T09:16:43Z</time>
      </trkpt>
      <trkpt lat="36.513653034344316" lon="-5.342271029949188">
        <ele>641.82000000000005</ele>
        <time>2025-05-09T09:16:45Z</time>
      </trkpt>
      <trkpt lat="36.51366401463747" lon="-5.342191988602281">
        <ele>641.82000000000005</ele>
        <time>2025-05-09T09:16:46Z</time>
      </trkpt>
      <trkpt lat="36.513678012415767" lon="-5.342090986669064">
        <ele>641.82000000000005</ele>
        <time>2025-05-09T09:16:47Z</time>
      </trkpt>
      <trkpt lat="36.513695027679205" lon="-5.341972969472408">
        <ele>641.82000000000005</ele>
        <time>2025-05-09T09:16:48Z</time>
      </trkpt>
      <trkpt lat="36.513711959123611" lon="-5.341844977810979">
        <ele>641.34000000000003</ele>
        <time>2025-05-09T09:16:49Z</time>
      </trkpt>
      <trkpt lat="36.513722017407417" lon="-5.341714974492788">
        <ele>640.86000000000001</ele>
        <time>2025-05-09T09:16:50Z</time>
      </trkpt>
      <trkpt lat="36.513687986880541" lon="-5.341582037508488">
        <ele>640.86000000000001</ele>
        <time>2025-05-09T09:16:51Z</time>
      </trkpt>
      <trkpt lat="36.513644987717271" lon="-5.341443987563252">
        <ele>640.86000000000001</ele>
        <time>2025-05-09T09:16:52Z</time>
      </trkpt>
      <trkpt lat="36.51357801631093" lon="-5.34131096675992">
        <ele>640.38</ele>
        <time>2025-05-09T09:16:53Z</time>
      </trkpt>
      <trkpt lat="36.5135139785707" lon="-5.341176018118858">
        <ele>640.38</ele>
        <time>2025-05-09T09:16:54Z</time>
      </trkpt>
      <trkpt lat="36.513453964143991" lon="-5.341036040335894">
        <ele>640.38</ele>
        <time>2025-05-09T09:16:55Z</time>
      </trkpt>
      <trkpt lat="36.513396967202425" lon="-5.340896984562278">
        <ele>640.86000000000001</ele>
        <time>2025-05-09T09:16:56Z</time>
      </trkpt>
      <trkpt lat="36.513340976089239" lon="-5.34072901122272">
        <ele>640.86000000000001</ele>
        <time>2025-05-09T09:16:57Z</time>
      </trkpt>
      <trkpt lat="36.513340976089239" lon="-5.340591967105866">
        <ele>640.86000000000001</ele>
        <time>2025-05-09T09:16:58Z</time>
      </trkpt>
      <trkpt lat="36.513340976089239" lon="-5.340431034564972">
        <ele>641.34000000000003</ele>
        <time>2025-05-09T09:16:59Z</time>
      </trkpt>
      <trkpt lat="36.513364026322961" lon="-5.340274041518569">
        <ele>641.34000000000003</ele>
        <time>2025-05-09T09:17:00Z</time>
      </trkpt>
      <trkpt lat="36.51340501382947" lon="-5.340116964653134">
        <ele>641.34000000000003</ele>
        <time>2025-05-09T09:17:01Z</time>
      </trkpt>
      <trkpt lat="36.513444995507598" lon="-5.339963994920254">
        <ele>641.34000000000003</ele>
        <time>2025-05-09T09:17:02Z</time>
      </trkpt>
      <trkpt lat="36.513490006327629" lon="-5.339818987995386">
        <ele>641.82000000000005</ele>
        <time>2025-05-09T09:17:03Z</time>
      </trkpt>
      <trkpt lat="36.513562006875873" lon="-5.339687978848815">
        <ele>641.82000000000005</ele>
        <time>2025-05-09T09:17:04Z</time>
      </trkpt>
      <trkpt lat="36.513640964403749" lon="-5.339557975530624">
        <ele>641.82000000000005</ele>
        <time>2025-05-09T09:17:05Z</time>
      </trkpt>
      <trkpt lat="36.513876998797059" lon="-5.339133013039827">
        <ele>642.77999999999997</ele>
        <time>2025-05-09T09:17:08Z</time>
      </trkpt>
      <trkpt lat="36.513942964375019" lon="-5.338977025821805">
        <ele>642.77999999999997</ele>
        <time>2025-05-09T09:17:09Z</time>
      </trkpt>
      <trkpt lat="36.513991998508573" lon="-5.338804023340344">
        <ele>642.77999999999997</ele>
        <time>2025-05-09T09:17:10Z</time>
      </trkpt>
      <trkpt lat="36.514014964923263" lon="-5.338615011423826">
        <ele>642.77999999999997</ele>
        <time>2025-05-09T09:17:11Z</time>
      </trkpt>
      <trkpt lat="36.51402804069221" lon="-5.338433040305972">
        <ele>642.77999999999997</ele>
        <time>2025-05-09T09:17:12Z</time>
      </trkpt>
      <trkpt lat="36.513995015993714" lon="-5.338248973712325">
        <ele>642.77999999999997</ele>
        <time>2025-05-09T09:17:13Z</time>
      </trkpt>
      <trkpt lat="36.513962997123599" lon="-5.338068008422852">
        <ele>642.77999999999997</ele>
        <time>2025-05-09T09:17:14Z</time>
      </trkpt>
      <trkpt lat="36.513894014060497" lon="-5.337890982627869">
        <ele>642.77999999999997</ele>
        <time>2025-05-09T09:17:15Z</time>
      </trkpt>
      <trkpt lat="36.513826958835125" lon="-5.337717980146408">
        <ele>642.77999999999997</ele>
        <time>2025-05-09T09:17:16Z</time>
      </trkpt>
      <trkpt lat="36.513759987428784" lon="-5.337545983493328">
        <ele>642.77999999999997</ele>
        <time>2025-05-09T09:17:17Z</time>
      </trkpt>
      <trkpt lat="36.513340976089239" lon="-5.336459018290043">
        <ele>643.74000000000001</ele>
        <time>2025-05-09T09:17:23Z</time>
      </trkpt>
      <trkpt lat="36.513307029381394" lon="-5.336278975009918">
        <ele>643.74000000000001</ele>
        <time>2025-05-09T09:17:24Z</time>
      </trkpt>
      <trkpt lat="36.513281967490911" lon="-5.336093986406922">
        <ele>644.22000000000003</ele>
        <time>2025-05-09T09:17:25Z</time>
      </trkpt>
      <trkpt lat="36.513324966654181" lon="-5.33591503277421">
        <ele>644.22000000000003</ele>
        <time>2025-05-09T09:17:26Z</time>
      </trkpt>
      <trkpt lat="36.513368971645832" lon="-5.335729960352182">
        <ele>644.22000000000003</ele>
        <time>2025-05-09T09:17:27Z</time>
      </trkpt>
      <trkpt lat="36.513415994122624" lon="-5.335539020597935">
        <ele>644.22000000000003</ele>
        <time>2025-05-09T09:17:28Z</time>
      </trkpt>
      <trkpt lat="36.51347097940743" lon="-5.335346991196275">
        <ele>644.22000000000003</ele>
        <time>2025-05-09T09:17:29Z</time>
      </trkpt>
      <trkpt lat="36.513697039335966" lon="-5.334515003487468">
        <ele>644.22000000000003</ele>
        <time>2025-05-09T09:17:33Z</time>
      </trkpt>
      <trkpt lat="36.513732997700572" lon="-5.334296990185976">
        <ele>643.74000000000001</ele>
        <time>2025-05-09T09:17:34Z</time>
      </trkpt>
      <trkpt lat="36.513845985755324" lon="-5.33370497636497">
        <ele>643.74000000000001</ele>
        <time>2025-05-09T09:17:37Z</time>
      </trkpt>
      <trkpt lat="36.513887979090214" lon="-5.333524011075497">
        <ele>643.74000000000001</ele>
        <time>2025-05-09T09:17:38Z</time>
      </trkpt>
      <trkpt lat="36.513956962153316" lon="-5.333372969180346">
        <ele>643.25999999999999</ele>
        <time>2025-05-09T09:17:39Z</time>
      </trkpt>
      <trkpt lat="36.514063999056816" lon="-5.333253024145961">
        <ele>643.25999999999999</ele>
        <time>2025-05-09T09:17:40Z</time>
      </trkpt>
      <trkpt lat="36.514176987111568" lon="-5.333146993070841">
        <ele>643.74000000000001</ele>
        <time>2025-05-09T09:17:41Z</time>
      </trkpt>
      <trkpt lat="36.514302967116237" lon="-5.333050014451146">
        <ele>643.74000000000001</ele>
        <time>2025-05-09T09:17:42Z</time>
      </trkpt>
      <trkpt lat="36.514442022889853" lon="-5.332976002246141">
        <ele>643.74000000000001</ele>
        <time>2025-05-09T09:17:43Z</time>
      </trkpt>
      <trkpt lat="36.515652034431696" lon="-5.33222297206521">
        <ele>641.82000000000005</ele>
        <time>2025-05-09T09:17:51Z</time>
      </trkpt>
      <trkpt lat="36.516795996576548" lon="-5.331252012401819">
        <ele>640.38</ele>
        <time>2025-05-09T09:17:59Z</time>
      </trkpt>
      <trkpt lat="36.516947960481048" lon="-5.331171965226531">
        <ele>640.38</ele>
        <time>2025-05-09T09:18:00Z</time>
      </trkpt>
      <trkpt lat="36.517392033711076" lon="-5.330937020480633">
        <ele>640.38</ele>
        <time>2025-05-09T09:18:03Z</time>
      </trkpt>
      <trkpt lat="36.517506027594209" lon="-5.33082403242588">
        <ele>640.38</ele>
        <time>2025-05-09T09:18:04Z</time>
      </trkpt>
      <trkpt lat="36.517602000385523" lon="-5.330698974430561">
        <ele>640.38</ele>
        <time>2025-05-09T09:18:05Z</time>
      </trkpt>
      <trkpt lat="36.517666038125753" lon="-5.330538041889668">
        <ele>640.38</ele>
        <time>2025-05-09T09:18:06Z</time>
      </trkpt>
      <trkpt lat="36.517718005925417" lon="-5.330365961417556">
        <ele>640.38</ele>
        <time>2025-05-09T09:18:07Z</time>
      </trkpt>
      <trkpt lat="36.517718005925417" lon="-5.330181978642941">
        <ele>640.38</ele>
        <time>2025-05-09T09:18:08Z</time>
      </trkpt>
      <trkpt lat="36.517718005925417" lon="-5.329997995868325">
        <ele>640.86000000000001</ele>
        <time>2025-05-09T09:18:09Z</time>
      </trkpt>
      <trkpt lat="36.517748013138771" lon="-5.329819964244962">
        <ele>641.34000000000003</ele>
        <time>2025-05-09T09:18:10Z</time>
      </trkpt>
      <trkpt lat="36.517780032008886" lon="-5.329646961763501">
        <ele>641.34000000000003</ele>
        <time>2025-05-09T09:18:11Z</time>
      </trkpt>
      <trkpt lat="36.517867036163807" lon="-5.329488040879369">
        <ele>641.34000000000003</ele>
        <time>2025-05-09T09:18:12Z</time>
      </trkpt>
      <trkpt lat="36.517956973984838" lon="-5.329328030347824">
        <ele>641.34000000000003</ele>
        <time>2025-05-09T09:18:13Z</time>
      </trkpt>
      <trkpt lat="36.518050013110042" lon="-5.329166008159518">
        <ele>640.86000000000001</ele>
        <time>2025-05-09T09:18:14Z</time>
      </trkpt>
      <trkpt lat="36.518141962587833" lon="-5.329004991799593">
        <ele>640.86000000000001</ele>
        <time>2025-05-09T09:18:15Z</time>
      </trkpt>
      <trkpt lat="36.518672034144402" lon="-5.328058004379273">
        <ele>638.45000000000005</ele>
        <time>2025-05-09T09:18:21Z</time>
      </trkpt>
      <trkpt lat="36.518728025257587" lon="-5.327875027433038">
        <ele>637.97000000000003</ele>
        <time>2025-05-09T09:18:22Z</time>
      </trkpt>
      <trkpt lat="36.518784016370773" lon="-5.327691966667771">
        <ele>637.49000000000001</ele>
        <time>2025-05-09T09:18:23Z</time>
      </trkpt>
      <trkpt lat="36.518846964463592" lon="-5.327527010813355">
        <ele>637.49000000000001</ele>
        <time>2025-05-09T09:18:24Z</time>
      </trkpt>
      <trkpt lat="36.518923994153738" lon="-5.327373035252094">
        <ele>637.00999999999999</ele>
        <time>2025-05-09T09:18:25Z</time>
      </trkpt>
      <trkpt lat="36.519000018015504" lon="-5.327221993356943">
        <ele>637.00999999999999</ele>
        <time>2025-05-09T09:18:26Z</time>
      </trkpt>
      <trkpt lat="36.519090961664915" lon="-5.327113028615713">
        <ele>637.00999999999999</ele>
        <time>2025-05-09T09:18:27Z</time>
      </trkpt>
      <trkpt lat="36.519204033538699" lon="-5.327015966176987">
        <ele>636.52999999999997</ele>
        <time>2025-05-09T09:18:28Z</time>
      </trkpt>
      <trkpt lat="36.519308974966407" lon="-5.326926028355956">
        <ele>636.52999999999997</ele>
        <time>2025-05-09T09:18:29Z</time>
      </trkpt>
      <trkpt lat="36.519402014091611" lon="-5.326836006715894">
        <ele>636.04999999999995</ele>
        <time>2025-05-09T09:18:30Z</time>
      </trkpt>
      <trkpt lat="36.519480971619487" lon="-5.326741961762309">
        <ele>635.57000000000005</ele>
        <time>2025-05-09T09:18:31Z</time>
      </trkpt>
      <trkpt lat="36.51954903267324" lon="-5.326651018112898">
        <ele>635.09000000000003</ele>
        <time>2025-05-09T09:18:32Z</time>
      </trkpt>
      <trkpt lat="36.519861007109284" lon="-5.326028997078538">
        <ele>633.16999999999996</ele>
        <time>2025-05-09T09:18:39Z</time>
      </trkpt>
      <trkpt lat="36.519880034029484" lon="-5.325936963781714">
        <ele>632.67999999999995</ele>
        <time>2025-05-09T09:18:40Z</time>
      </trkpt>
      <trkpt lat="36.519899982959032" lon="-5.3258409909904">
        <ele>632.67999999999995</ele>
        <time>2025-05-09T09:18:41Z</time>
      </trkpt>
      <trkpt lat="36.519922027364373" lon="-5.325740994885564">
        <ele>632.67999999999995</ele>
        <time>2025-05-09T09:18:42Z</time>
      </trkpt>
      <trkpt lat="36.519927978515625" lon="-5.325644016265869">
        <ele>632.20000000000005</ele>
        <time>2025-05-09T09:18:43Z</time>
      </trkpt>
      <trkpt lat="36.519938036799431" lon="-5.325207989662886">
        <ele>631.24000000000001</ele>
        <time>2025-05-09T09:18:48Z</time>
      </trkpt>
      <trkpt lat="36.519943987950683" lon="-5.325121991336346">
        <ele>631.24000000000001</ele>
        <time>2025-05-09T09:18:49Z</time>
      </trkpt>
      <trkpt lat="36.519949017092586" lon="-5.325033981353045">
        <ele>631.24000000000001</ele>
        <time>2025-05-09T09:18:50Z</time>
      </trkpt>
      <trkpt lat="36.519991010427475" lon="-5.324945971369743">
        <ele>631.24000000000001</ele>
        <time>2025-05-09T09:18:51Z</time>
      </trkpt>
      <trkpt lat="36.520034009590745" lon="-5.324868019670248">
        <ele>631.24000000000001</ele>
        <time>2025-05-09T09:18:52Z</time>
      </trkpt>
      <trkpt lat="36.520079020410776" lon="-5.324785960838199">
        <ele>630.75999999999999</ele>
        <time>2025-05-09T09:18:53Z</time>
      </trkpt>
      <trkpt lat="36.520456038415432" lon="-5.324046006426215">
        <ele>627.88</ele>
        <time>2025-05-09T09:19:01Z</time>
      </trkpt>
      <trkpt lat="36.520490990951657" lon="-5.323897982016206">
        <ele>627.39999999999998</ele>
        <time>2025-05-09T09:19:02Z</time>
      </trkpt>
      <trkpt lat="36.520525021478534" lon="-5.323752975091338">
        <ele>626.91999999999996</ele>
        <time>2025-05-09T09:19:03Z</time>
      </trkpt>
      <trkpt lat="36.520507000386715" lon="-5.323600005358458">
        <ele>625.96000000000004</ele>
        <time>2025-05-09T09:19:04Z</time>
      </trkpt>
      <trkpt lat="36.520479004830122" lon="-5.323458015918732">
        <ele>625.47000000000003</ele>
        <time>2025-05-09T09:19:05Z</time>
      </trkpt>
      <trkpt lat="36.520422007888556" lon="-5.323320971801877">
        <ele>624.99000000000001</ele>
        <time>2025-05-09T09:19:06Z</time>
      </trkpt>
      <trkpt lat="36.520362999290228" lon="-5.323177976533771">
        <ele>624.50999999999999</ele>
        <time>2025-05-09T09:19:07Z</time>
      </trkpt>
      <trkpt lat="36.520312037318945" lon="-5.323032969608903">
        <ele>624.02999999999997</ele>
        <time>2025-05-09T09:19:08Z</time>
      </trkpt>
      <trkpt lat="36.520271971821785" lon="-5.322886034846306">
        <ele>623.54999999999995</ele>
        <time>2025-05-09T09:19:09Z</time>
      </trkpt>
      <trkpt lat="36.520271971821785" lon="-5.322733987122774">
        <ele>623.07000000000005</ele>
        <time>2025-05-09T09:19:10Z</time>
      </trkpt>
      <trkpt lat="36.520271971821785" lon="-5.322582023218274">
        <ele>622.59000000000003</ele>
        <time>2025-05-09T09:19:11Z</time>
      </trkpt>
      <trkpt lat="36.520289992913604" lon="-5.322429975494742">
        <ele>621.63</ele>
        <time>2025-05-09T09:19:12Z</time>
      </trkpt>
      <trkpt lat="36.520352018997073" lon="-5.3222940210253">
        <ele>621.14999999999998</ele>
        <time>2025-05-09T09:19:13Z</time>
      </trkpt>
      <trkpt lat="36.520418990403414" lon="-5.322163011878729">
        <ele>620.66999999999996</ele>
        <time>2025-05-09T09:19:14Z</time>
      </trkpt>
      <trkpt lat="36.520505994558334" lon="-5.32203895971179">
        <ele>619.71000000000004</ele>
        <time>2025-05-09T09:19:15Z</time>
      </trkpt>
      <trkpt lat="36.52060498483479" lon="-5.321932006627321">
        <ele>619.71000000000004</ele>
        <time>2025-05-09T09:19:16Z</time>
      </trkpt>
      <trkpt lat="36.520719984546304" lon="-5.32184299081564">
        <ele>619.23000000000002</ele>
        <time>2025-05-09T09:19:17Z</time>
      </trkpt>
      <trkpt lat="36.521061966195703" lon="-5.321570998057723">
        <ele>617.77999999999997</ele>
        <time>2025-05-09T09:19:20Z</time>
      </trkpt>
      <trkpt lat="36.521116029471159" lon="-5.321425991132855">
        <ele>616.82000000000005</ele>
        <time>2025-05-09T09:19:21Z</time>
      </trkpt>
      <trkpt lat="36.52116296812892" lon="-5.321292970329523">
        <ele>616.34000000000003</ele>
        <time>2025-05-09T09:19:22Z</time>
      </trkpt>
      <trkpt lat="36.521156011149287" lon="-5.321161961182952">
        <ele>615.86000000000001</ele>
        <time>2025-05-09T09:19:23Z</time>
      </trkpt>
      <trkpt lat="36.521132038906217" lon="-5.321020977571607">
        <ele>614.89999999999998</ele>
        <time>2025-05-09T09:19:24Z</time>
      </trkpt>
      <trkpt lat="36.521105971187353" lon="-5.320873036980629">
        <ele>614.41999999999996</ele>
        <time>2025-05-09T09:19:25Z</time>
      </trkpt>
      <trkpt lat="36.521058026701212" lon="-5.320724006742239">
        <ele>613.94000000000005</ele>
        <time>2025-05-09T09:19:26Z</time>
      </trkpt>
      <trkpt lat="36.521017039194703" lon="-5.320568019524217">
        <ele>613.94000000000005</ele>
        <time>2025-05-09T09:19:27Z</time>
      </trkpt>
      <trkpt lat="36.520982002839446" lon="-5.320399040356278">
        <ele>613.46000000000004</ele>
        <time>2025-05-09T09:19:28Z</time>
      </trkpt>
      <trkpt lat="36.520993988960981" lon="-5.320227965712547">
        <ele>612.98000000000002</ele>
        <time>2025-05-09T09:19:29Z</time>
      </trkpt>
      <trkpt lat="36.521015027537942" lon="-5.320053035393357">
        <ele>612.01999999999998</ele>
        <time>2025-05-09T09:19:30Z</time>
      </trkpt>
      <trkpt lat="36.521046040579677" lon="-5.319878021255136">
        <ele>611.53999999999996</ele>
        <time>2025-05-09T09:19:31Z</time>
      </trkpt>
      <trkpt lat="36.52107696980238" lon="-5.319704012945294">
        <ele>611.05999999999995</ele>
        <time>2025-05-09T09:19:32Z</time>
      </trkpt>
      <trkpt lat="36.521106977015734" lon="-5.319536039605737">
        <ele>610.57000000000005</ele>
        <time>2025-05-09T09:19:33Z</time>
      </trkpt>
      <trkpt lat="36.521066995337605" lon="-5.319377034902573">
        <ele>609.61000000000001</ele>
        <time>2025-05-09T09:19:34Z</time>
      </trkpt>
      <trkpt lat="36.521022990345955" lon="-5.319219036027789">
        <ele>609.13</ele>
        <time>2025-05-09T09:19:35Z</time>
      </trkpt>
      <trkpt lat="36.520980997011065" lon="-5.319064976647496">
        <ele>608.64999999999998</ele>
        <time>2025-05-09T09:19:36Z</time>
      </trkpt>
      <trkpt lat="36.520940009504557" lon="-5.318916030228138">
        <ele>608.16999999999996</ele>
        <time>2025-05-09T09:19:37Z</time>
      </trkpt>
      <trkpt lat="36.520859962329268" lon="-5.318802036345005">
        <ele>607.69000000000005</ele>
        <time>2025-05-09T09:19:38Z</time>
      </trkpt>
      <trkpt lat="36.520778993144631" lon="-5.318690976127982">
        <ele>607.21000000000004</ele>
        <time>2025-05-09T09:19:39Z</time>
      </trkpt>
      <trkpt lat="36.520699029788375" lon="-5.318583017215133">
        <ele>607.21000000000004</ele>
        <time>2025-05-09T09:19:40Z</time>
      </trkpt>
      <trkpt lat="36.520606996491551" lon="-5.318503975868225">
        <ele>606.73000000000002</ele>
        <time>2025-05-09T09:19:41Z</time>
      </trkpt>
      <trkpt lat="36.520519992336631" lon="-5.318429041653872">
        <ele>606.25</ele>
        <time>2025-05-09T09:19:42Z</time>
      </trkpt>
      <trkpt lat="36.520439023151994" lon="-5.318359974771738">
        <ele>605.76999999999998</ele>
        <time>2025-05-09T09:19:43Z</time>
      </trkpt>
      <trkpt lat="36.520374985411763" lon="-5.318294009193778">
        <ele>605.76999999999998</ele>
        <time>2025-05-09T09:19:44Z</time>
      </trkpt>
      <trkpt lat="36.520314970985055" lon="-5.318217985332012">
        <ele>605.76999999999998</ele>
        <time>2025-05-09T09:19:45Z</time>
      </trkpt>
      <trkpt lat="36.520256968215108" lon="-5.318143973127008">
        <ele>605.28999999999996</ele>
        <time>2025-05-09T09:19:46Z</time>
      </trkpt>
      <trkpt lat="36.520202988758683" lon="-5.318075995892286">
        <ele>605.28999999999996</ele>
        <time>2025-05-09T09:19:47Z</time>
      </trkpt>
      <trkpt lat="36.5201520267874" lon="-5.31799896620214">
        <ele>605.28999999999996</ele>
        <time>2025-05-09T09:19:48Z</time>
      </trkpt>
      <trkpt lat="36.52002302929759" lon="-5.317738959565759">
        <ele>605.28999999999996</ele>
        <time>2025-05-09T09:19:51Z</time>
      </trkpt>
      <trkpt lat="36.51998003013432" lon="-5.317656984552741">
        <ele>605.28999999999996</ele>
        <time>2025-05-09T09:19:52Z</time>
      </trkpt>
      <trkpt lat="36.519966032356024" lon="-5.317581966519356">
        <ele>604.80999999999995</ele>
        <time>2025-05-09T09:19:53Z</time>
      </trkpt>
      <trkpt lat="36.519957985728979" lon="-5.3174829762429">
        <ele>604.80999999999995</ele>
        <time>2025-05-09T09:19:54Z</time>
      </trkpt>
      <trkpt lat="36.519950022920966" lon="-5.317382980138063">
        <ele>604.33000000000004</ele>
        <time>2025-05-09T09:19:55Z</time>
      </trkpt>
      <trkpt lat="36.51995999738574" lon="-5.317277032881975">
        <ele>604.33000000000004</ele>
        <time>2025-05-09T09:19:56Z</time>
      </trkpt>
      <trkpt lat="36.519969971850514" lon="-5.317163961008191">
        <ele>604.33000000000004</ele>
        <time>2025-05-09T09:19:57Z</time>
      </trkpt>
      <trkpt lat="36.520018000155687" lon="-5.317078968510032">
        <ele>603.85000000000002</ele>
        <time>2025-05-09T09:19:58Z</time>
      </trkpt>
      <trkpt lat="36.520076002925634" lon="-5.316994981840253">
        <ele>603.85000000000002</ele>
        <time>2025-05-09T09:19:59Z</time>
      </trkpt>
      <trkpt lat="36.520136017352343" lon="-5.316908983513713">
        <ele>603.85000000000002</ele>
        <time>2025-05-09T09:20:00Z</time>
      </trkpt>
      <trkpt lat="36.520212963223457" lon="-5.316842012107372">
        <ele>603.36000000000001</ele>
        <time>2025-05-09T09:20:01Z</time>
      </trkpt>
      <trkpt lat="36.520298961549997" lon="-5.31679498963058">
        <ele>603.36000000000001</ele>
        <time>2025-05-09T09:20:02Z</time>
      </trkpt>
      <trkpt lat="36.520470958203077" lon="-5.316706979647279">
        <ele>604.33000000000004</ele>
        <time>2025-05-09T09:20:04Z</time>
      </trkpt>
      <trkpt lat="36.52112097479403" lon="-5.316469017416239">
        <ele>606.73000000000002</ele>
        <time>2025-05-09T09:20:11Z</time>
      </trkpt>
      <trkpt lat="36.521309986710548" lon="-5.31642802990973">
        <ele>607.69000000000005</ele>
        <time>2025-05-09T09:20:13Z</time>
      </trkpt>
      <trkpt lat="36.521498998627067" lon="-5.316386036574841">
        <ele>608.16999999999996</ele>
        <time>2025-05-09T09:20:15Z</time>
      </trkpt>
      <trkpt lat="36.521597988903522" lon="-5.316362986341119">
        <ele>608.64999999999998</ele>
        <time>2025-05-09T09:20:16Z</time>
      </trkpt>
      <trkpt lat="36.521685998886824" lon="-5.316300038248301">
        <ele>608.64999999999998</ele>
        <time>2025-05-09T09:20:17Z</time>
      </trkpt>
      <trkpt lat="36.521759005263448" lon="-5.316206999123097">
        <ele>608.64999999999998</ele>
        <time>2025-05-09T09:20:18Z</time>
      </trkpt>
      <trkpt lat="36.521834023296833" lon="-5.316109014675021">
        <ele>609.13</ele>
        <time>2025-05-09T09:20:19Z</time>
      </trkpt>
      <trkpt lat="36.521911974996328" lon="-5.316009018570185">
        <ele>609.61000000000001</ele>
        <time>2025-05-09T09:20:20Z</time>
      </trkpt>
      <trkpt lat="36.521989004686475" lon="-5.315910028293729">
        <ele>609.61000000000001</ele>
        <time>2025-05-09T09:20:21Z</time>
      </trkpt>
      <trkpt lat="36.522066034376621" lon="-5.315811038017273">
        <ele>610.09000000000003</ele>
        <time>2025-05-09T09:20:22Z</time>
      </trkpt>
      <trkpt lat="36.522142980247736" lon="-5.315712969750166">
        <ele>610.57000000000005</ele>
        <time>2025-05-09T09:20:23Z</time>
      </trkpt>
      <trkpt lat="36.522245993837714" lon="-5.315580032765865">
        <ele>611.05999999999995</ele>
        <time>2025-05-09T09:20:24Z</time>
      </trkpt>
      <trkpt lat="36.522314976900816" lon="-5.315541978925467">
        <ele>611.05999999999995</ele>
        <time>2025-05-09T09:20:25Z</time>
      </trkpt>
      <trkpt lat="36.522424025461078" lon="-5.315481964498758">
        <ele>611.53999999999996</ele>
        <time>2025-05-09T09:20:26Z</time>
      </trkpt>
      <trkpt lat="36.522541036829352" lon="-5.315436031669378">
        <ele>611.53999999999996</ele>
        <time>2025-05-09T09:20:27Z</time>
      </trkpt>
      <trkpt lat="36.523216031491756" lon="-5.315135037526488">
        <ele>612.98000000000002</ele>
        <time>2025-05-09T09:20:33Z</time>
      </trkpt>
      <trkpt lat="36.523315021768212" lon="-5.315049961209297">
        <ele>612.98000000000002</ele>
        <time>2025-05-09T09:20:34Z</time>
      </trkpt>
      <trkpt lat="36.523414012044668" lon="-5.314965974539518">
        <ele>612.98000000000002</ele>
        <time>2025-05-09T09:20:35Z</time>
      </trkpt>
      <trkpt lat="36.523493975400925" lon="-5.31486002728343">
        <ele>613.46000000000004</ele>
        <time>2025-05-09T09:20:36Z</time>
      </trkpt>
      <trkpt lat="36.523563964292407" lon="-5.314737986773253">
        <ele>613.94000000000005</ele>
        <time>2025-05-09T09:20:37Z</time>
      </trkpt>
      <trkpt lat="36.524497037753463" lon="-5.313240978866816">
        <ele>615.86000000000001</ele>
        <time>2025-05-09T09:20:49Z</time>
      </trkpt>
      <trkpt lat="36.525349980220199" lon="-5.312447967007756">
        <ele>620.66999999999996</ele>
        <time>2025-05-09T09:20:57Z</time>
      </trkpt>
      <trkpt lat="36.525446958839893" lon="-5.312303965911269">
        <ele>621.63</ele>
        <time>2025-05-09T09:20:58Z</time>
      </trkpt>
      <trkpt lat="36.525548966601491" lon="-5.31215401366353">
        <ele>622.59000000000003</ele>
        <time>2025-05-09T09:20:59Z</time>
      </trkpt>
      <trkpt lat="36.525887008756399" lon="-5.31170298345387">
        <ele>625.96000000000004</ele>
        <time>2025-05-09T09:21:02Z</time>
      </trkpt>
      <trkpt lat="36.526019023731351" lon="-5.311588989570737">
        <ele>626.91999999999996</ele>
        <time>2025-05-09T09:21:03Z</time>
      </trkpt>
      <trkpt lat="36.52616897597909" lon="-5.311507014557719">
        <ele>628.36000000000001</ele>
        <time>2025-05-09T09:21:04Z</time>
      </trkpt>
      <trkpt lat="36.527101965621114" lon="-5.310979038476944">
        <ele>637.49000000000001</ele>
        <time>2025-05-09T09:21:10Z</time>
      </trkpt>
      <trkpt lat="36.527227023616433" lon="-5.310844006016851">
        <ele>638.45000000000005</ele>
        <time>2025-05-09T09:21:11Z</time>
      </trkpt>
      <trkpt lat="36.527345040813088" lon="-5.310706039890647">
        <ele>639.88999999999999</ele>
        <time>2025-05-09T09:21:12Z</time>
      </trkpt>
      <trkpt lat="36.527434978634119" lon="-5.310538988560438">
        <ele>641.34000000000003</ele>
        <time>2025-05-09T09:21:13Z</time>
      </trkpt>
      <trkpt lat="36.527520976960659" lon="-5.310380989685655">
        <ele>642.29999999999995</ele>
        <time>2025-05-09T09:21:14Z</time>
      </trkpt>
      <trkpt lat="36.527609992772341" lon="-5.310216033831239">
        <ele>643.25999999999999</ele>
        <time>2025-05-09T09:21:15Z</time>
      </trkpt>
      <trkpt lat="36.527720969170332" lon="-5.310119977220893">
        <ele>644.70000000000005</ele>
        <time>2025-05-09T09:21:16Z</time>
      </trkpt>
      <trkpt lat="36.527859019115567" lon="-5.310031967237592">
        <ele>645.65999999999997</ele>
        <time>2025-05-09T09:21:17Z</time>
      </trkpt>
      <trkpt lat="36.528010983020067" lon="-5.30996298417449">
        <ele>647.10000000000002</ele>
        <time>2025-05-09T09:21:18Z</time>
      </trkpt>
      <trkpt lat="36.52816403657198" lon="-5.309895006939769">
        <ele>648.54999999999995</ele>
        <time>2025-05-09T09:21:19Z</time>
      </trkpt>
      <trkpt lat="36.528310971334577" lon="-5.309829041361809">
        <ele>649.99000000000001</ele>
        <time>2025-05-09T09:21:20Z</time>
      </trkpt>
      <trkpt lat="36.528437035158277" lon="-5.309736002236605">
        <ele>650.95000000000005</ele>
        <time>2025-05-09T09:21:21Z</time>
      </trkpt>
      <trkpt lat="36.52853200212121" lon="-5.309592001140118">
        <ele>652.38999999999999</ele>
        <time>2025-05-09T09:21:22Z</time>
      </trkpt>
      <trkpt lat="36.528633004054427" lon="-5.309439031407237">
        <ele>653.83000000000004</ele>
        <time>2025-05-09T09:21:23Z</time>
      </trkpt>
      <trkpt lat="36.528736017644405" lon="-5.309281032532454">
        <ele>655.27999999999997</ele>
        <time>2025-05-09T09:21:24Z</time>
      </trkpt>
      <trkpt lat="36.528855040669441" lon="-5.309099983423948">
        <ele>656.24000000000001</ele>
        <time>2025-05-09T09:21:25Z</time>
      </trkpt>
      <trkpt lat="36.528976997360587" lon="-5.308978026732802">
        <ele>657.67999999999995</ele>
        <time>2025-05-09T09:21:26Z</time>
      </trkpt>
      <trkpt lat="36.529115969315171" lon="-5.308838970959187">
        <ele>659.12</ele>
        <time>2025-05-09T09:21:27Z</time>
      </trkpt>
      <trkpt lat="36.529257958754897" lon="-5.308697987347841">
        <ele>660.08000000000004</ele>
        <time>2025-05-09T09:21:28Z</time>
      </trkpt>
      <trkpt lat="36.529400032013655" lon="-5.308550968766213">
        <ele>661.51999999999998</ele>
        <time>2025-05-09T09:21:29Z</time>
      </trkpt>
      <trkpt lat="36.529518971219659" lon="-5.308370003476739">
        <ele>662.97000000000003</ele>
        <time>2025-05-09T09:21:30Z</time>
      </trkpt>
      <trkpt lat="36.529925996437669" lon="-5.307750999927521">
        <ele>669.22000000000003</ele>
        <time>2025-05-09T09:21:34Z</time>
      </trkpt>
      <trkpt lat="36.530063040554523" lon="-5.307691991329193">
        <ele>670.65999999999997</ele>
        <time>2025-05-09T09:21:35Z</time>
      </trkpt>
      <trkpt lat="36.530211986973882" lon="-5.307628959417343">
        <ele>672.10000000000002</ele>
        <time>2025-05-09T09:21:36Z</time>
      </trkpt>
      <trkpt lat="36.530534019693732" lon="-5.307494010776281">
        <ele>674.98000000000002</ele>
        <time>2025-05-09T09:21:38Z</time>
      </trkpt>
      <trkpt lat="36.530684977769852" lon="-5.307393008843064">
        <ele>676.41999999999996</ele>
        <time>2025-05-09T09:21:39Z</time>
      </trkpt>
      <trkpt lat="36.530825961381197" lon="-5.307274991646409">
        <ele>677.87</ele>
        <time>2025-05-09T09:21:40Z</time>
      </trkpt>
      <trkpt lat="36.530953031033278" lon="-5.3071269672364">
        <ele>679.30999999999995</ele>
        <time>2025-05-09T09:21:41Z</time>
      </trkpt>
      <trkpt lat="36.531079011037946" lon="-5.306969974189997">
        <ele>680.75</ele>
        <time>2025-05-09T09:21:42Z</time>
      </trkpt>
      <trkpt lat="36.531184958294034" lon="-5.306795965880156">
        <ele>682.19000000000005</ele>
        <time>2025-05-09T09:21:43Z</time>
      </trkpt>
      <trkpt lat="36.531285960227251" lon="-5.306617012247443">
        <ele>683.63</ele>
        <time>2025-05-09T09:21:44Z</time>
      </trkpt>
      <trkpt lat="36.531356032937765" lon="-5.306424982845783">
        <ele>685.08000000000004</ele>
        <time>2025-05-09T09:21:45Z</time>
      </trkpt>
      <trkpt lat="36.531376987695694" lon="-5.306227002292872">
        <ele>686.51999999999998</ele>
        <time>2025-05-09T09:21:46Z</time>
      </trkpt>
      <trkpt lat="36.531377993524075" lon="-5.306042013689876">
        <ele>687.96000000000004</ele>
        <time>2025-05-09T09:21:47Z</time>
      </trkpt>
      <trkpt lat="36.531331976875663" lon="-5.305862976238132">
        <ele>689.39999999999998</ele>
        <time>2025-05-09T09:21:48Z</time>
      </trkpt>
      <trkpt lat="36.531284032389522" lon="-5.305679999291897">
        <ele>690.84000000000003</ele>
        <time>2025-05-09T09:21:49Z</time>
      </trkpt>
      <trkpt lat="36.531237009912729" lon="-5.305495010688901">
        <ele>691.80999999999995</ele>
        <time>2025-05-09T09:21:50Z</time>
      </trkpt>
      <trkpt lat="36.531214965507388" lon="-5.30530197545886">
        <ele>692.76999999999998</ele>
        <time>2025-05-09T09:21:51Z</time>
      </trkpt>
      <trkpt lat="36.531252013519406" lon="-5.305101983249188">
        <ele>693.73000000000002</ele>
        <time>2025-05-09T09:21:52Z</time>
      </trkpt>
      <trkpt lat="36.531289983540773" lon="-5.30489101074636">
        <ele>695.16999999999996</ele>
        <time>2025-05-09T09:21:53Z</time>
      </trkpt>
      <trkpt lat="36.531388973817229" lon="-5.304508963599801">
        <ele>697.57000000000005</ele>
        <time>2025-05-09T09:21:55Z</time>
      </trkpt>
      <trkpt lat="36.531472038477659" lon="-5.304352976381779">
        <ele>699.01999999999998</ele>
        <time>2025-05-09T09:21:56Z</time>
      </trkpt>
      <trkpt lat="36.531557030975819" lon="-5.304219033569098">
        <ele>699.98000000000002</ele>
        <time>2025-05-09T09:21:57Z</time>
      </trkpt>
      <trkpt lat="36.531694997102022" lon="-5.304146027192473">
        <ele>700.94000000000005</ele>
        <time>2025-05-09T09:21:58Z</time>
      </trkpt>
      <trkpt lat="36.53184100985527" lon="-5.304067991673946">
        <ele>701.89999999999998</ele>
        <time>2025-05-09T09:21:59Z</time>
      </trkpt>
      <trkpt lat="36.531995991244912" lon="-5.303986016660929">
        <ele>703.34000000000003</ele>
        <time>2025-05-09T09:22:00Z</time>
      </trkpt>
      <trkpt lat="36.532145021483302" lon="-5.303905969485641">
        <ele>704.29999999999995</ele>
        <time>2025-05-09T09:22:01Z</time>
      </trkpt>
      <trkpt lat="36.532266978174448" lon="-5.303811002522707">
        <ele>705.25999999999999</ele>
        <time>2025-05-09T09:22:02Z</time>
      </trkpt>
      <trkpt lat="36.532368985936046" lon="-5.3036870341748">
        <ele>706.23000000000002</ele>
        <time>2025-05-09T09:22:03Z</time>
      </trkpt>
      <trkpt lat="36.532461019232869" lon="-5.303573962301016">
        <ele>707.19000000000005</ele>
        <time>2025-05-09T09:22:04Z</time>
      </trkpt>
      <trkpt lat="36.532547017559409" lon="-5.303469020873308">
        <ele>708.63</ele>
        <time>2025-05-09T09:22:05Z</time>
      </trkpt>
      <trkpt lat="36.532633015885949" lon="-5.303380005061626">
        <ele>709.59000000000003</ele>
        <time>2025-05-09T09:22:06Z</time>
      </trkpt>
      <trkpt lat="36.532738041132689" lon="-5.303318984806538">
        <ele>710.54999999999995</ele>
        <time>2025-05-09T09:22:07Z</time>
      </trkpt>
      <trkpt lat="36.532852035015821" lon="-5.30328000895679">
        <ele>711.50999999999999</ele>
        <time>2025-05-09T09:22:08Z</time>
      </trkpt>
      <trkpt lat="36.532982960343361" lon="-5.303242960944772">
        <ele>712.95000000000005</ele>
        <time>2025-05-09T09:22:09Z</time>
      </trkpt>
      <trkpt lat="36.533122016116977" lon="-5.303202979266644">
        <ele>713.44000000000005</ele>
        <time>2025-05-09T09:22:10Z</time>
      </trkpt>
      <trkpt lat="36.533256964758039" lon="-5.303165009245277">
        <ele>714.39999999999998</ele>
        <time>2025-05-09T09:22:11Z</time>
      </trkpt>
      <trkpt lat="36.533360984176397" lon="-5.303135002031922">
        <ele>715.36000000000001</ele>
        <time>2025-05-09T09:22:12Z</time>
      </trkpt>
      <trkpt lat="36.533476989716291" lon="-5.303031988441944">
        <ele>716.32000000000005</ele>
        <time>2025-05-09T09:22:13Z</time>
      </trkpt>
      <trkpt lat="36.533566005527973" lon="-5.302941966801882">
        <ele>717.27999999999997</ele>
        <time>2025-05-09T09:22:14Z</time>
      </trkpt>
      <trkpt lat="36.533633982762694" lon="-5.302819004282355">
        <ele>718.24000000000001</ele>
        <time>2025-05-09T09:22:15Z</time>
      </trkpt>
      <trkpt lat="36.533697014674544" lon="-5.302681960165501">
        <ele>719.67999999999995</ele>
        <time>2025-05-09T09:22:16Z</time>
      </trkpt>
      <trkpt lat="36.533754011616111" lon="-5.302531002089381">
        <ele>720.64999999999998</ele>
        <time>2025-05-09T09:22:17Z</time>
      </trkpt>
      <trkpt lat="36.533992979675531" lon="-5.301870005205274">
        <ele>724.97000000000003</ele>
        <time>2025-05-09T09:22:22Z</time>
      </trkpt>
      <trkpt lat="36.534043019637465" lon="-5.301756011322141">
        <ele>726.40999999999997</ele>
        <time>2025-05-09T09:22:23Z</time>
      </trkpt>
      <trkpt lat="36.53409699909389" lon="-5.301670012995601">
        <ele>727.37</ele>
        <time>2025-05-09T09:22:24Z</time>
      </trkpt>
      <trkpt lat="36.534168999642134" lon="-5.301597006618977">
        <ele>728.34000000000003</ele>
        <time>2025-05-09T09:22:25Z</time>
      </trkpt>
      <trkpt lat="36.534262038767338" lon="-5.301503967493773">
        <ele>729.29999999999995</ele>
        <time>2025-05-09T09:22:26Z</time>
      </trkpt>
      <trkpt lat="36.534326998516917" lon="-5.301498016342521">
        <ele>730.25999999999999</ele>
        <time>2025-05-09T09:22:27Z</time>
      </trkpt>
      <trkpt lat="36.534428000450134" lon="-5.301488963887096">
        <ele>731.22000000000003</ele>
        <time>2025-05-09T09:22:28Z</time>
      </trkpt>
      <trkpt lat="36.534524979069829" lon="-5.301501033827663">
        <ele>732.17999999999995</ele>
        <time>2025-05-09T09:22:29Z</time>
      </trkpt>
      <trkpt lat="36.534630004316568" lon="-5.301571022719145">
        <ele>733.13999999999999</ele>
        <time>2025-05-09T09:22:30Z</time>
      </trkpt>
      <trkpt lat="36.534755984321237" lon="-5.301654003560543">
        <ele>734.10000000000002</ele>
        <time>2025-05-09T09:22:31Z</time>
      </trkpt>
      <trkpt lat="36.534849023446441" lon="-5.301747964695096">
        <ele>735.07000000000005</ele>
        <time>2025-05-09T09:22:32Z</time>
      </trkpt>
      <trkpt lat="36.534949019551277" lon="-5.301847960799933">
        <ele>736.50999999999999</ele>
        <time>2025-05-09T09:22:33Z</time>
      </trkpt>
      <trkpt lat="36.535093020647764" lon="-5.301895989105105">
        <ele>736.99000000000001</ele>
        <time>2025-05-09T09:22:34Z</time>
      </trkpt>
      <trkpt lat="36.535226963460445" lon="-5.30190302990377">
        <ele>737.95000000000005</ele>
        <time>2025-05-09T09:22:35Z</time>
      </trkpt>
      <trkpt lat="36.535356966778636" lon="-5.301879979670048">
        <ele>738.90999999999997</ele>
        <time>2025-05-09T09:22:36Z</time>
      </trkpt>
      <trkpt lat="36.535480013117194" lon="-5.301824994385243">
        <ele>739.87</ele>
        <time>2025-05-09T09:22:37Z</time>
      </trkpt>
      <trkpt lat="36.535604987293482" lon="-5.301765985786915">
        <ele>740.83000000000004</ele>
        <time>2025-05-09T09:22:38Z</time>
      </trkpt>
      <trkpt lat="36.535733984783292" lon="-5.301702031865716">
        <ele>741.78999999999996</ele>
        <time>2025-05-09T09:22:39Z</time>
      </trkpt>
      <trkpt lat="36.535863988101482" lon="-5.301636988297105">
        <ele>743.24000000000001</ele>
        <time>2025-05-09T09:22:40Z</time>
      </trkpt>
      <trkpt lat="36.536002960056067" lon="-5.301611004397273">
        <ele>744.20000000000005</ele>
        <time>2025-05-09T09:22:41Z</time>
      </trkpt>
      <trkpt lat="36.536145033314824" lon="-5.301611004397273">
        <ele>745.15999999999997</ele>
        <time>2025-05-09T09:22:42Z</time>
      </trkpt>
      <trkpt lat="36.536301020532846" lon="-5.301611004397273">
        <ele>746.12</ele>
        <time>2025-05-09T09:22:43Z</time>
      </trkpt>
      <trkpt lat="36.536420965567231" lon="-5.301650986075401">
        <ele>747.08000000000004</ele>
        <time>2025-05-09T09:22:44Z</time>
      </trkpt>
      <trkpt lat="36.536801001057029" lon="-5.301709994673729">
        <ele>749.97000000000003</ele>
        <time>2025-05-09T09:22:47Z</time>
      </trkpt>
      <trkpt lat="36.537037035450339" lon="-5.301698008552194">
        <ele>751.88999999999999</ele>
        <time>2025-05-09T09:22:49Z</time>
      </trkpt>
      <trkpt lat="36.537154968827963" lon="-5.301650986075401">
        <ele>753.33000000000004</ele>
        <time>2025-05-09T09:22:50Z</time>
      </trkpt>
      <trkpt lat="36.53828602284193" lon="-5.301280003041029">
        <ele>762.94000000000005</ele>
        <time>2025-05-09T09:22:58Z</time>
      </trkpt>
      <trkpt lat="36.53843698091805" lon="-5.301243038848043">
        <ele>764.38999999999999</ele>
        <time>2025-05-09T09:22:59Z</time>
      </trkpt>
      <trkpt lat="36.538896979764104" lon="-5.301289977505803">
        <ele>768.23000000000002</ele>
        <time>2025-05-09T09:23:02Z</time>
      </trkpt>
      <trkpt lat="36.539010973647237" lon="-5.301372036337853">
        <ele>769.66999999999996</ele>
        <time>2025-05-09T09:23:03Z</time>
      </trkpt>
      <trkpt lat="36.539133014157414" lon="-5.301460968330503">
        <ele>771.11000000000001</ele>
        <time>2025-05-09T09:23:04Z</time>
      </trkpt>
      <trkpt lat="36.539463009685278" lon="-5.30181803740561">
        <ele>774.48000000000002</ele>
        <time>2025-05-09T09:23:07Z</time>
      </trkpt>
      <trkpt lat="36.539580021053553" lon="-5.301944017410278">
        <ele>775.44000000000005</ele>
        <time>2025-05-09T09:23:08Z</time>
      </trkpt>
      <trkpt lat="36.540058040991426" lon="-5.302397981286049">
        <ele>780.73000000000002</ele>
        <time>2025-05-09T09:23:12Z</time>
      </trkpt>
      <trkpt lat="36.540201036259532" lon="-5.302483979612589">
        <ele>782.64999999999998</ele>
        <time>2025-05-09T09:23:13Z</time>
      </trkpt>
      <trkpt lat="36.54034998267889" lon="-5.3025490231812">
        <ele>784.57000000000005</ele>
        <time>2025-05-09T09:23:14Z</time>
      </trkpt>
      <trkpt lat="36.540512004867196" lon="-5.302607025951147">
        <ele>786.01999999999998</ele>
        <time>2025-05-09T09:23:15Z</time>
      </trkpt>
      <trkpt lat="36.540673021227121" lon="-5.302664022892714">
        <ele>786.98000000000002</ele>
        <time>2025-05-09T09:23:16Z</time>
      </trkpt>
      <trkpt lat="36.54099203646183" lon="-5.302736023440957">
        <ele>790.34000000000003</ele>
        <time>2025-05-09T09:23:18Z</time>
      </trkpt>
      <trkpt lat="36.541154980659485" lon="-5.302744992077351">
        <ele>791.77999999999997</ele>
        <time>2025-05-09T09:23:19Z</time>
      </trkpt>
      <trkpt lat="36.541321026161313" lon="-5.302718002349138">
        <ele>792.74000000000001</ele>
        <time>2025-05-09T09:23:20Z</time>
      </trkpt>
      <trkpt lat="36.541471984237432" lon="-5.302640972658992">
        <ele>794.19000000000005</ele>
        <time>2025-05-09T09:23:21Z</time>
      </trkpt>
      <trkpt lat="36.541617996990681" lon="-5.302553968504071">
        <ele>795.14999999999998</ele>
        <time>2025-05-09T09:23:22Z</time>
      </trkpt>
      <trkpt lat="36.541765015572309" lon="-5.30246595852077">
        <ele>795.63</ele>
        <time>2025-05-09T09:23:23Z</time>
      </trkpt>
      <trkpt lat="36.541897030547261" lon="-5.302318017929792">
        <ele>796.59000000000003</ele>
        <time>2025-05-09T09:23:24Z</time>
      </trkpt>
      <trkpt lat="36.542015969753265" lon="-5.302166976034641">
        <ele>797.54999999999995</ele>
        <time>2025-05-09T09:23:25Z</time>
      </trkpt>
      <trkpt lat="36.542128035798669" lon="-5.302023980766535">
        <ele>798.02999999999997</ele>
        <time>2025-05-09T09:23:26Z</time>
      </trkpt>
      <trkpt lat="36.543166972696781" lon="-5.300621017813683">
        <ele>798.99000000000001</ele>
        <time>2025-05-09T09:23:36Z</time>
      </trkpt>
      <trkpt lat="36.543705007061362" lon="-5.300078960135579">
        <ele>797.07000000000005</ele>
        <time>2025-05-09T09:23:40Z</time>
      </trkpt>
      <trkpt lat="36.544015975669026" lon="-5.299836974591017">
        <ele>796.11000000000001</ele>
        <time>2025-05-09T09:23:42Z</time>
      </trkpt>
      <trkpt lat="36.54526898637414" lon="-5.299335988238454">
        <ele>796.11000000000001</ele>
        <time>2025-05-09T09:23:49Z</time>
      </trkpt>
      <trkpt lat="36.546098040416837" lon="-5.298907002434135">
        <ele>795.63</ele>
        <time>2025-05-09T09:23:54Z</time>
      </trkpt>
      <trkpt lat="36.546702962368727" lon="-5.298464018851519">
        <ele>796.11000000000001</ele>
        <time>2025-05-09T09:23:58Z</time>
      </trkpt>
      <trkpt lat="36.546856015920639" lon="-5.298392018303275">
        <ele>796.11000000000001</ele>
        <time>2025-05-09T09:23:59Z</time>
      </trkpt>
      <trkpt lat="36.547015020623803" lon="-5.298356981948018">
        <ele>796.11000000000001</ele>
        <time>2025-05-09T09:24:00Z</time>
      </trkpt>
      <trkpt lat="36.547175031155348" lon="-5.29833703301847">
        <ele>796.11000000000001</ele>
        <time>2025-05-09T09:24:01Z</time>
      </trkpt>
      <trkpt lat="36.54733001254499" lon="-5.29833703301847">
        <ele>796.11000000000001</ele>
        <time>2025-05-09T09:24:02Z</time>
      </trkpt>
      <trkpt lat="36.54748298227787" lon="-5.298351030796766">
        <ele>796.11000000000001</ele>
        <time>2025-05-09T09:24:03Z</time>
      </trkpt>
      <trkpt lat="36.548216985538602" lon="-5.29838003218174">
        <ele>796.59000000000003</ele>
        <time>2025-05-09T09:24:08Z</time>
      </trkpt>
      <trkpt lat="36.548335002735257" lon="-5.29833803884685">
        <ele>796.59000000000003</ele>
        <time>2025-05-09T09:24:09Z</time>
      </trkpt>
      <trkpt lat="36.548440027981997" lon="-5.298265032470226">
        <ele>796.59000000000003</ele>
        <time>2025-05-09T09:24:10Z</time>
      </trkpt>
      <trkpt lat="36.548518985509872" lon="-5.298159001395106">
        <ele>797.07000000000005</ele>
        <time>2025-05-09T09:24:11Z</time>
      </trkpt>
      <trkpt lat="36.548594003543258" lon="-5.298039978370071">
        <ele>797.54999999999995</ele>
        <time>2025-05-09T09:24:12Z</time>
      </trkpt>
      <trkpt lat="36.548682013526559" lon="-5.297898994758725">
        <ele>797.54999999999995</ele>
        <time>2025-05-09T09:24:13Z</time>
      </trkpt>
      <trkpt lat="36.548730963841081" lon="-5.297782989218831">
        <ele>797.54999999999995</ele>
        <time>2025-05-09T09:24:14Z</time>
      </trkpt>
      <trkpt lat="36.548934979364276" lon="-5.297370012849569">
        <ele>797.54999999999995</ele>
        <time>2025-05-09T09:24:17Z</time>
      </trkpt>
      <trkpt lat="36.549030030146241" lon="-5.297245960682631">
        <ele>797.54999999999995</ele>
        <time>2025-05-09T09:24:18Z</time>
      </trkpt>
      <trkpt lat="36.549126002937555" lon="-5.297120986506343">
        <ele>798.02999999999997</ele>
        <time>2025-05-09T09:24:19Z</time>
      </trkpt>
      <trkpt lat="36.549225999042392" lon="-5.296990983188152">
        <ele>798.02999999999997</ele>
        <time>2025-05-09T09:24:20Z</time>
      </trkpt>
      <trkpt lat="36.549324989318848" lon="-5.296861985698342">
        <ele>798.02999999999997</ele>
        <time>2025-05-09T09:24:21Z</time>
      </trkpt>
      <trkpt lat="36.549399001523852" lon="-5.296719996258616">
        <ele>798.02999999999997</ele>
        <time>2025-05-09T09:24:22Z</time>
      </trkpt>
      <trkpt lat="36.549457004293799" lon="-5.296560991555452">
        <ele>798.02999999999997</ele>
        <time>2025-05-09T09:24:23Z</time>
      </trkpt>
      <trkpt lat="36.549514001235366" lon="-5.296403998509049">
        <ele>798.50999999999999</ele>
        <time>2025-05-09T09:24:24Z</time>
      </trkpt>
      <trkpt lat="36.549569992348552" lon="-5.296251028776169">
        <ele>798.50999999999999</ele>
        <time>2025-05-09T09:24:25Z</time>
      </trkpt>
      <trkpt lat="36.549626989290118" lon="-5.296095041558147">
        <ele>798.99000000000001</ele>
        <time>2025-05-09T09:24:26Z</time>
      </trkpt>
      <trkpt lat="36.549730002880096" lon="-5.295962020754814">
        <ele>798.99000000000001</ele>
        <time>2025-05-09T09:24:27Z</time>
      </trkpt>
      <trkpt lat="36.550581017509103" lon="-5.294852005317807">
        <ele>802.84000000000003</ele>
        <time>2025-05-09T09:24:35Z</time>
      </trkpt>
      <trkpt lat="36.551501015201211" lon="-5.293645011261106">
        <ele>809.09000000000003</ele>
        <time>2025-05-09T09:24:44Z</time>
      </trkpt>
      <trkpt lat="36.552130999043584" lon="-5.29286197386682">
        <ele>813.88999999999999</ele>
        <time>2025-05-09T09:24:51Z</time>
      </trkpt>
      <trkpt lat="36.55223099514842" lon="-5.292761977761984">
        <ele>814.37</ele>
        <time>2025-05-09T09:24:52Z</time>
      </trkpt>
      <trkpt lat="36.552449008449912" lon="-5.292543964460492">
        <ele>816.29999999999995</ele>
        <time>2025-05-09T09:24:54Z</time>
      </trkpt>
      <trkpt lat="36.552566019818187" lon="-5.292427036911249">
        <ele>816.77999999999997</ele>
        <time>2025-05-09T09:24:55Z</time>
      </trkpt>
      <trkpt lat="36.552946977317333" lon="-5.292095029726625">
        <ele>820.13999999999999</ele>
        <time>2025-05-09T09:24:58Z</time>
      </trkpt>
      <trkpt lat="36.553083015605807" lon="-5.292004002258182">
        <ele>821.10000000000002</ele>
        <time>2025-05-09T09:24:59Z</time>
      </trkpt>
      <trkpt lat="36.553227016702294" lon="-5.291943987831473">
        <ele>822.54999999999995</ele>
        <time>2025-05-09T09:25:00Z</time>
      </trkpt>
      <trkpt lat="36.554577006027102" lon="-5.291667971760035">
        <ele>831.20000000000005</ele>
        <time>2025-05-09T09:25:09Z</time>
      </trkpt>
      <trkpt lat="36.556021040305495" lon="-5.291623966768384">
        <ele>832.63999999999999</ele>
        <time>2025-05-09T09:25:19Z</time>
      </trkpt>
      <trkpt lat="36.556564019992948" lon="-5.291574010625482">
        <ele>835.51999999999998</ele>
        <time>2025-05-09T09:25:24Z</time>
      </trkpt>
      <trkpt lat="36.556644989177585" lon="-5.291538974270225">
        <ele>836</ele>
        <time>2025-05-09T09:25:25Z</time>
      </trkpt>
      <trkpt lat="36.556725036352873" lon="-5.29148600064218">
        <ele>836.96000000000004</ele>
        <time>2025-05-09T09:25:26Z</time>
      </trkpt>
      <trkpt lat="36.556793013587594" lon="-5.291440989822149">
        <ele>837.45000000000005</ele>
        <time>2025-05-09T09:25:27Z</time>
      </trkpt>
      <trkpt lat="36.55684900470078" lon="-5.29135599732399">
        <ele>838.40999999999997</ele>
        <time>2025-05-09T09:25:28Z</time>
      </trkpt>
      <trkpt lat="36.556890998035669" lon="-5.291293971240521">
        <ele>838.88999999999999</ele>
        <time>2025-05-09T09:25:29Z</time>
      </trkpt>
      <trkpt lat="36.55691497027874" lon="-5.291257007047534">
        <ele>839.85000000000002</ele>
        <time>2025-05-09T09:25:30Z</time>
      </trkpt>
      <trkpt lat="36.556958975270391" lon="-5.291299000382423">
        <ele>840.33000000000004</ele>
        <time>2025-05-09T09:25:31Z</time>
      </trkpt>
      <trkpt lat="36.556952018290758" lon="-5.291326995939016">
        <ele>840.80999999999995</ele>
        <time>2025-05-09T09:25:32Z</time>
      </trkpt>
      <trkpt lat="36.556942965835333" lon="-5.291359014809132">
        <ele>841.76999999999998</ele>
        <time>2025-05-09T09:25:33Z</time>
      </trkpt>
      <trkpt lat="36.556931985542178" lon="-5.29140000231564">
        <ele>842.73000000000002</ele>
        <time>2025-05-09T09:25:34Z</time>
      </trkpt>
      <trkpt lat="36.556921005249023" lon="-5.291440989822149">
        <ele>843.21000000000004</ele>
        <time>2025-05-09T09:25:35Z</time>
      </trkpt>
      <trkpt lat="36.556884963065386" lon="-5.291477032005787">
        <ele>843.21000000000004</ele>
        <time>2025-05-09T09:25:36Z</time>
      </trkpt>
      <trkpt lat="36.556815980002284" lon="-5.291546015068889">
        <ele>844.65999999999997</ele>
        <time>2025-05-09T09:25:43Z</time>
      </trkpt>
      <trkpt lat="36.556775998324156" lon="-5.29152799397707">
        <ele>833.60000000000002</ele>
        <time>2025-05-09T09:28:12Z</time>
      </trkpt>
      <trkpt lat="36.55678597278893" lon="-5.29152899980545">
        <ele>834.08000000000004</ele>
        <time>2025-05-09T09:28:13Z</time>
      </trkpt>
      <trkpt lat="36.556655969470739" lon="-5.291596977040172">
        <ele>833.60000000000002</ele>
        <time>2025-05-09T09:28:26Z</time>
      </trkpt>
      <trkpt lat="36.556636020541191" lon="-5.291594965383411">
        <ele>832.15999999999997</ele>
        <time>2025-05-09T09:28:41Z</time>
      </trkpt>
      <trkpt lat="36.556630991399288" lon="-5.291581973433495">
        <ele>832.15999999999997</ele>
        <time>2025-05-09T09:28:43Z</time>
      </trkpt>
      <trkpt lat="36.55663400888443" lon="-5.291582979261875">
        <ele>832.63999999999999</ele>
        <time>2025-05-09T09:28:44Z</time>
      </trkpt>
      <trkpt lat="36.55669704079628" lon="-5.291504021733999">
        <ele>832.63999999999999</ele>
        <time>2025-05-09T09:28:45Z</time>
      </trkpt>
      <trkpt lat="36.55676300637424" lon="-5.291461022570729">
        <ele>832.63999999999999</ele>
        <time>2025-05-09T09:28:46Z</time>
      </trkpt>
      <trkpt lat="36.55693500302732" lon="-5.29122699983418">
        <ele>834.08000000000004</ele>
        <time>2025-05-09T09:28:49Z</time>
      </trkpt>
      <trkpt lat="36.556994011625648" lon="-5.291138989850879">
        <ele>834.55999999999995</ele>
        <time>2025-05-09T09:28:50Z</time>
      </trkpt>
      <trkpt lat="36.557326018810272" lon="-5.290605984628201">
        <ele>836.96000000000004</ele>
        <time>2025-05-09T09:28:55Z</time>
      </trkpt>
      <trkpt lat="36.557490974664688" lon="-5.290442034602165">
        <ele>838.40999999999997</ele>
        <time>2025-05-09T09:28:57Z</time>
      </trkpt>
      <trkpt lat="36.557685015723109" lon="-5.290170963853598">
        <ele>840.80999999999995</ele>
        <time>2025-05-09T09:29:00Z</time>
      </trkpt>
      <trkpt lat="36.557733966037631" lon="-5.290072979405522">
        <ele>841.28999999999996</ele>
        <time>2025-05-09T09:29:01Z</time>
      </trkpt>
      <trkpt lat="36.557786017656326" lon="-5.289969965815544">
        <ele>842.25</ele>
        <time>2025-05-09T09:29:02Z</time>
      </trkpt>
      <trkpt lat="36.558505017310381" lon="-5.28886104002595">
        <ele>845.13999999999999</ele>
        <time>2025-05-09T09:29:12Z</time>
      </trkpt>
      <trkpt lat="36.55957798473537" lon="-5.288017988204956">
        <ele>839.85000000000002</ele>
        <time>2025-05-09T09:29:21Z</time>
      </trkpt>
      <trkpt lat="36.560611976310611" lon="-5.287395967170596">
        <ele>836</ele>
        <time>2025-05-09T09:29:30Z</time>
      </trkpt>
      <trkpt lat="36.560876006260514" lon="-5.28725297190249">
        <ele>836</ele>
        <time>2025-05-09T09:29:32Z</time>
      </trkpt>
      <trkpt lat="36.560997040942311" lon="-5.28714501298964">
        <ele>835.51999999999998</ele>
        <time>2025-05-09T09:29:33Z</time>
      </trkpt>
      <trkpt lat="36.561120003461838" lon="-5.287034958600998">
        <ele>835.03999999999996</ele>
        <time>2025-05-09T09:29:34Z</time>
      </trkpt>
      <trkpt lat="36.561256041750312" lon="-5.286913001909852">
        <ele>834.55999999999995</ele>
        <time>2025-05-09T09:29:35Z</time>
      </trkpt>
      <trkpt lat="36.561346985399723" lon="-5.286794984713197">
        <ele>834.08000000000004</ele>
        <time>2025-05-09T09:29:36Z</time>
      </trkpt>
      <trkpt lat="36.561638005077839" lon="-5.286396006122232">
        <ele>831.67999999999995</ele>
        <time>2025-05-09T09:29:39Z</time>
      </trkpt>
      <trkpt lat="36.561699025332928" lon="-5.286234989762306">
        <ele>830.72000000000003</ele>
        <time>2025-05-09T09:29:40Z</time>
      </trkpt>
      <trkpt lat="36.561762979254127" lon="-5.286068022251129">
        <ele>829.75999999999999</ele>
        <time>2025-05-09T09:29:41Z</time>
      </trkpt>
      <trkpt lat="36.562053998932242" lon="-5.28540501371026">
        <ele>825.42999999999995</ele>
        <time>2025-05-09T09:29:45Z</time>
      </trkpt>
      <trkpt lat="36.562152989208698" lon="-5.28525598347187">
        <ele>824.47000000000003</ele>
        <time>2025-05-09T09:29:46Z</time>
      </trkpt>
      <trkpt lat="36.562248039990664" lon="-5.285113994032145">
        <ele>823.02999999999997</ele>
        <time>2025-05-09T09:29:47Z</time>
      </trkpt>
      <trkpt lat="36.562503017485142" lon="-5.284682996571064">
        <ele>820.13999999999999</ele>
        <time>2025-05-09T09:29:50Z</time>
      </trkpt>
      <trkpt lat="36.562569988891482" lon="-5.284550981596112">
        <ele>818.70000000000005</ele>
        <time>2025-05-09T09:29:51Z</time>
      </trkpt>
      <trkpt lat="36.562599996104836" lon="-5.284406980499625">
        <ele>817.74000000000001</ele>
        <time>2025-05-09T09:29:52Z</time>
      </trkpt>
      <trkpt lat="36.562630003318191" lon="-5.28426599688828">
        <ele>816.77999999999997</ele>
        <time>2025-05-09T09:29:53Z</time>
      </trkpt>
      <trkpt lat="36.562661016359925" lon="-5.284121995791793">
        <ele>815.82000000000005</ele>
        <time>2025-05-09T09:29:54Z</time>
      </trkpt>
      <trkpt lat="36.56269202940166" lon="-5.283973971381784">
        <ele>814.85000000000002</ele>
        <time>2025-05-09T09:29:55Z</time>
      </trkpt>
      <trkpt lat="36.562732011079788" lon="-5.283850003033876">
        <ele>813.88999999999999</ele>
        <time>2025-05-09T09:29:56Z</time>
      </trkpt>
      <trkpt lat="36.562819015234709" lon="-5.283761993050575">
        <ele>812.92999999999995</ele>
        <time>2025-05-09T09:29:57Z</time>
      </trkpt>
      <trkpt lat="36.562904007732868" lon="-5.283677000552416">
        <ele>811.97000000000003</ele>
        <time>2025-05-09T09:29:58Z</time>
      </trkpt>
      <trkpt lat="36.562992017716169" lon="-5.283629978075624">
        <ele>811.00999999999999</ele>
        <time>2025-05-09T09:29:59Z</time>
      </trkpt>
      <trkpt lat="36.563099976629019" lon="-5.283629978075624">
        <ele>810.52999999999997</ele>
        <time>2025-05-09T09:30:00Z</time>
      </trkpt>
      <trkpt lat="36.563218999654055" lon="-5.283640036359429">
        <ele>809.57000000000005</ele>
        <time>2025-05-09T09:30:01Z</time>
      </trkpt>
      <trkpt lat="36.563341962173581" lon="-5.283678006380796">
        <ele>808.61000000000001</ele>
        <time>2025-05-09T09:30:02Z</time>
      </trkpt>
      <trkpt lat="36.563589982688427" lon="-5.283703990280628">
        <ele>807.15999999999997</ele>
        <time>2025-05-09T09:30:04Z</time>
      </trkpt>
      <trkpt lat="36.56368101015687" lon="-5.283694015815854">
        <ele>806.20000000000005</ele>
        <time>2025-05-09T09:30:05Z</time>
      </trkpt>
      <trkpt lat="36.563783017918468" lon="-5.283610029146075">
        <ele>805.24000000000001</ele>
        <time>2025-05-09T09:30:06Z</time>
      </trkpt>
      <trkpt lat="36.563870022073388" lon="-5.283540040254593">
        <ele>804.75999999999999</ele>
        <time>2025-05-09T09:30:07Z</time>
      </trkpt>
      <trkpt lat="36.563936993479729" lon="-5.283452030271292">
        <ele>803.79999999999995</ele>
        <time>2025-05-09T09:30:08Z</time>
      </trkpt>
      <trkpt lat="36.563988039270043" lon="-5.283328983932734">
        <ele>803.32000000000005</ele>
        <time>2025-05-09T09:30:09Z</time>
      </trkpt>
      <trkpt lat="36.564041012898088" lon="-5.283203003928065">
        <ele>803.32000000000005</ele>
        <time>2025-05-09T09:30:10Z</time>
      </trkpt>
      <trkpt lat="36.56409197486937" lon="-5.283080963417888">
        <ele>802.84000000000003</ele>
        <time>2025-05-09T09:30:11Z</time>
      </trkpt>
      <trkpt lat="36.56415400095284" lon="-5.282961018383503">
        <ele>802.36000000000001</ele>
        <time>2025-05-09T09:30:12Z</time>
      </trkpt>
      <trkpt lat="36.564229018986225" lon="-5.282878037542105">
        <ele>801.88</ele>
        <time>2025-05-09T09:30:13Z</time>
      </trkpt>
      <trkpt lat="36.564301019534469" lon="-5.282797990366817">
        <ele>801.39999999999998</ele>
        <time>2025-05-09T09:30:14Z</time>
      </trkpt>
      <trkpt lat="36.564385006204247" lon="-5.282746022567153">
        <ele>800.91999999999996</ele>
        <time>2025-05-09T09:30:15Z</time>
      </trkpt>
      <trkpt lat="36.564462035894394" lon="-5.282712997868657">
        <ele>800.44000000000005</ele>
        <time>2025-05-09T09:30:16Z</time>
      </trkpt>
      <trkpt lat="36.564488019794226" lon="-5.282637979835272">
        <ele>799.95000000000005</ele>
        <time>2025-05-09T09:30:17Z</time>
      </trkpt>
      <trkpt lat="36.564500005915761" lon="-5.282573020085692">
        <ele>799.47000000000003</ele>
        <time>2025-05-09T09:30:18Z</time>
      </trkpt>
      <trkpt lat="36.564511992037296" lon="-5.282508982345462">
        <ele>798.99000000000001</ele>
        <time>2025-05-09T09:30:19Z</time>
      </trkpt>
      <trkpt lat="36.56452196650207" lon="-5.282451985403895">
        <ele>798.50999999999999</ele>
        <time>2025-05-09T09:30:20Z</time>
      </trkpt>
      <trkpt lat="36.564532024785876" lon="-5.282400017604232">
        <ele>798.02999999999997</ele>
        <time>2025-05-09T09:30:21Z</time>
      </trkpt>
      <trkpt lat="36.564549962058663" lon="-5.282302033156157">
        <ele>797.07000000000005</ele>
        <time>2025-05-09T09:30:23Z</time>
      </trkpt>
      <trkpt lat="36.564681977033615" lon="-5.282040014863014">
        <ele>795.14999999999998</ele>
        <time>2025-05-09T09:30:32Z</time>
      </trkpt>
      <trkpt lat="36.564681977033615" lon="-5.282040014863014">
        <ele>795.14999999999998</ele>
        <time>2025-05-09T09:30:54Z</time>
      </trkpt>
      <trkpt lat="36.564688012003899" lon="-5.282042026519775">
        <ele>795.14999999999998</ele>
        <time>2025-05-09T09:30:55Z</time>
      </trkpt>
      <trkpt lat="36.56471299007535" lon="-5.282047977671027">
        <ele>794.66999999999996</ele>
        <time>2025-05-09T09:30:56Z</time>
      </trkpt>
      <trkpt lat="36.564749032258987" lon="-5.282057030126452">
        <ele>795.14999999999998</ele>
        <time>2025-05-09T09:30:57Z</time>
      </trkpt>
      <trkpt lat="36.564775016158819" lon="-5.282145040109754">
        <ele>795.14999999999998</ele>
        <time>2025-05-09T09:30:58Z</time>
      </trkpt>
      <trkpt lat="36.564775016158819" lon="-5.282229026779532">
        <ele>794.66999999999996</ele>
        <time>2025-05-09T09:30:59Z</time>
      </trkpt>
      <trkpt lat="36.564775016158819" lon="-5.282316030934453">
        <ele>795.14999999999998</ele>
        <time>2025-05-09T09:31:00Z</time>
      </trkpt>
      <trkpt lat="36.564775016158819" lon="-5.282404040917754">
        <ele>794.66999999999996</ele>
        <time>2025-05-09T09:31:01Z</time>
      </trkpt>
      <trkpt lat="36.564775016158819" lon="-5.282620964571834">
        <ele>794.66999999999996</ele>
        <time>2025-05-09T09:31:04Z</time>
      </trkpt>
      <trkpt lat="36.564775016158819" lon="-5.282687013968825">
        <ele>794.66999999999996</ele>
        <time>2025-05-09T09:31:05Z</time>
      </trkpt>
      <trkpt lat="36.564789013937116" lon="-5.282791033387184">
        <ele>794.19000000000005</ele>
        <time>2025-05-09T09:31:06Z</time>
      </trkpt>
      <trkpt lat="36.565021025016904" lon="-5.283236028626561">
        <ele>792.25999999999999</ele>
        <time>2025-05-09T09:31:10Z</time>
      </trkpt>
      <trkpt lat="36.565134013071656" lon="-5.283474996685982">
        <ele>790.82000000000005</ele>
        <time>2025-05-09T09:31:12Z</time>
      </trkpt>
      <trkpt lat="36.565210036933422" lon="-5.283579016104341">
        <ele>789.86000000000001</ele>
        <time>2025-05-09T09:31:13Z</time>
      </trkpt>
      <trkpt lat="36.565299974754453" lon="-5.283661996945739">
        <ele>788.89999999999998</ele>
        <time>2025-05-09T09:31:14Z</time>
      </trkpt>
      <trkpt lat="36.565407011657953" lon="-5.283698961138725">
        <ele>787.94000000000005</ele>
        <time>2025-05-09T09:31:15Z</time>
      </trkpt>
      <trkpt lat="36.565518993884325" lon="-5.283708013594151">
        <ele>786.98000000000002</ele>
        <time>2025-05-09T09:31:16Z</time>
      </trkpt>
      <trkpt lat="36.565627958625555" lon="-5.283717988058925">
        <ele>786.5</ele>
        <time>2025-05-09T09:31:17Z</time>
      </trkpt>
      <trkpt lat="36.565739018842578" lon="-5.28372704051435">
        <ele>785.52999999999997</ele>
        <time>2025-05-09T09:31:18Z</time>
      </trkpt>
      <trkpt lat="36.565856030210853" lon="-5.283737014979124">
        <ele>784.57000000000005</ele>
        <time>2025-05-09T09:31:19Z</time>
      </trkpt>
      <trkpt lat="36.565975975245237" lon="-5.283746989443898">
        <ele>784.09000000000003</ele>
        <time>2025-05-09T09:31:20Z</time>
      </trkpt>
      <trkpt lat="36.566104972735047" lon="-5.283758975565434">
        <ele>783.13</ele>
        <time>2025-05-09T09:31:21Z</time>
      </trkpt>
      <trkpt lat="36.566226007416844" lon="-5.283807003870606">
        <ele>782.16999999999996</ele>
        <time>2025-05-09T09:31:22Z</time>
      </trkpt>
      <trkpt lat="36.566353999078274" lon="-5.283844973891974">
        <ele>781.21000000000004</ele>
        <time>2025-05-09T09:31:23Z</time>
      </trkpt>
      <trkpt lat="36.566489031538367" lon="-5.283844973891974">
        <ele>780.25</ele>
        <time>2025-05-09T09:31:24Z</time>
      </trkpt>
      <trkpt lat="36.56662498600781" lon="-5.283833993598819">
        <ele>779.28999999999996</ele>
        <time>2025-05-09T09:31:25Z</time>
      </trkpt>
      <trkpt lat="36.56675398349762" lon="-5.283783031627536">
        <ele>778.32000000000005</ele>
        <time>2025-05-09T09:31:26Z</time>
      </trkpt>
      <trkpt lat="36.566875018179417" lon="-5.283733997493982">
        <ele>777.36000000000001</ele>
        <time>2025-05-09T09:31:27Z</time>
      </trkpt>
      <trkpt lat="36.566988006234169" lon="-5.283688986673951">
        <ele>776.39999999999998</ele>
        <time>2025-05-09T09:31:28Z</time>
      </trkpt>
      <trkpt lat="36.567095965147018" lon="-5.283688986673951">
        <ele>775.91999999999996</ele>
        <time>2025-05-09T09:31:29Z</time>
      </trkpt>
      <trkpt lat="36.567210964858532" lon="-5.283716982230544">
        <ele>774.96000000000004</ele>
        <time>2025-05-09T09:31:30Z</time>
      </trkpt>
      <trkpt lat="36.567450016736984" lon="-5.28377297334373">
        <ele>772.55999999999995</ele>
        <time>2025-05-09T09:31:32Z</time>
      </trkpt>
      <trkpt lat="36.56756903976202" lon="-5.28377003967762">
        <ele>771.60000000000002</ele>
        <time>2025-05-09T09:31:33Z</time>
      </trkpt>
      <trkpt lat="36.567684039473534" lon="-5.283747995272279">
        <ele>770.63</ele>
        <time>2025-05-09T09:31:34Z</time>
      </trkpt>
      <trkpt lat="36.567773977294564" lon="-5.283670965582132">
        <ele>769.19000000000005</ele>
        <time>2025-05-09T09:31:35Z</time>
      </trkpt>
      <trkpt lat="36.567858969792724" lon="-5.283582033589482">
        <ele>768.23000000000002</ele>
        <time>2025-05-09T09:31:36Z</time>
      </trkpt>
      <trkpt lat="36.567938011139631" lon="-5.283478014171124">
        <ele>766.78999999999996</ele>
        <time>2025-05-09T09:31:37Z</time>
      </trkpt>
      <trkpt lat="36.568026021122932" lon="-5.283362008631229">
        <ele>766.30999999999995</ele>
        <time>2025-05-09T09:31:38Z</time>
      </trkpt>
      <trkpt lat="36.568118976429105" lon="-5.283239968121052">
        <ele>764.87</ele>
        <time>2025-05-09T09:31:39Z</time>
      </trkpt>
      <trkpt lat="36.568230958655477" lon="-5.283139972016215">
        <ele>763.89999999999998</ele>
        <time>2025-05-09T09:31:40Z</time>
      </trkpt>
      <trkpt lat="36.568360961973667" lon="-5.283060008659959">
        <ele>762.94000000000005</ele>
        <time>2025-05-09T09:31:41Z</time>
      </trkpt>
      <trkpt lat="36.568491971120238" lon="-5.282980967313051">
        <ele>761.5</ele>
        <time>2025-05-09T09:31:42Z</time>
      </trkpt>
      <trkpt lat="36.568619962781668" lon="-5.282903015613556">
        <ele>760.53999999999996</ele>
        <time>2025-05-09T09:31:43Z</time>
      </trkpt>
      <trkpt lat="36.568765975534916" lon="-5.282815005630255">
        <ele>759.10000000000002</ele>
        <time>2025-05-09T09:31:44Z</time>
      </trkpt>
      <trkpt lat="36.568831019103527" lon="-5.282702017575502">
        <ele>758.13999999999999</ele>
        <time>2025-05-09T09:31:45Z</time>
      </trkpt>
      <trkpt lat="36.568910982459784" lon="-5.282562039792538">
        <ele>757.17999999999995</ele>
        <time>2025-05-09T09:31:46Z</time>
      </trkpt>
      <trkpt lat="36.569151040166616" lon="-5.282146967947483">
        <ele>753.80999999999995</ele>
        <time>2025-05-09T09:31:49Z</time>
      </trkpt>
      <trkpt lat="36.569238966330886" lon="-5.282063987106085">
        <ele>752.37</ele>
        <time>2025-05-09T09:31:50Z</time>
      </trkpt>
      <trkpt lat="36.569350026547909" lon="-5.281991986557841">
        <ele>751.40999999999997</ele>
        <time>2025-05-09T09:31:51Z</time>
      </trkpt>
      <trkpt lat="36.569583965465426" lon="-5.281839016824961">
        <ele>749</ele>
        <time>2025-05-09T09:31:53Z</time>
      </trkpt>
      <trkpt lat="36.569691002368927" lon="-5.281740026548505">
        <ele>747.55999999999995</ele>
        <time>2025-05-09T09:31:54Z</time>
      </trkpt>
      <trkpt lat="36.569760991260409" lon="-5.281609017401934">
        <ele>746.12</ele>
        <time>2025-05-09T09:31:55Z</time>
      </trkpt>
      <trkpt lat="36.569839026778936" lon="-5.281463004648686">
        <ele>744.67999999999995</ele>
        <time>2025-05-09T09:31:56Z</time>
      </trkpt>
      <trkpt lat="36.569896023720503" lon="-5.281320009380579">
        <ele>743.72000000000003</ele>
        <time>2025-05-09T09:31:57Z</time>
      </trkpt>
      <trkpt lat="36.569960983470082" lon="-5.281157987192273">
        <ele>742.27999999999997</ele>
        <time>2025-05-09T09:31:58Z</time>
      </trkpt>
      <trkpt lat="36.570667997002602" lon="-5.28022600337863">
        <ele>733.13999999999999</ele>
        <time>2025-05-09T09:32:05Z</time>
      </trkpt>
      <trkpt lat="36.570894978940487" lon="-5.280018970370293">
        <ele>730.74000000000001</ele>
        <time>2025-05-09T09:32:07Z</time>
      </trkpt>
      <trkpt lat="36.571015007793903" lon="-5.27994797565043">
        <ele>729.77999999999997</ele>
        <time>2025-05-09T09:32:08Z</time>
      </trkpt>
      <trkpt lat="36.571133024990559" lon="-5.279878992587328">
        <ele>728.34000000000003</ele>
        <time>2025-05-09T09:32:09Z</time>
      </trkpt>
      <trkpt lat="36.571235032752156" lon="-5.279811015352607">
        <ele>726.88999999999999</ele>
        <time>2025-05-09T09:32:10Z</time>
      </trkpt>
      <trkpt lat="36.57132999971509" lon="-5.279723005369306">
        <ele>725.45000000000005</ele>
        <time>2025-05-09T09:32:11Z</time>
      </trkpt>
      <trkpt lat="36.571420021355152" lon="-5.279639018699527">
        <ele>724.00999999999999</ele>
        <time>2025-05-09T09:32:12Z</time>
      </trkpt>
      <trkpt lat="36.571512976661325" lon="-5.279553020372987">
        <ele>723.04999999999995</ele>
        <time>2025-05-09T09:32:13Z</time>
      </trkpt>
      <trkpt lat="36.571643985807896" lon="-5.279355039820075">
        <ele>721.13</ele>
        <time>2025-05-09T09:32:15Z</time>
      </trkpt>
      <trkpt lat="36.571726966649294" lon="-5.279230987653136">
        <ele>720.15999999999997</ele>
        <time>2025-05-09T09:32:16Z</time>
      </trkpt>
      <trkpt lat="36.571744987741113" lon="-5.279125962406397">
        <ele>719.20000000000005</ele>
        <time>2025-05-09T09:32:17Z</time>
      </trkpt>
      <trkpt lat="36.571767032146454" lon="-5.279000988230109">
        <ele>718.24000000000001</ele>
        <time>2025-05-09T09:32:18Z</time>
      </trkpt>
      <trkpt lat="36.571786981076002" lon="-5.278881965205073">
        <ele>717.27999999999997</ele>
        <time>2025-05-09T09:32:19Z</time>
      </trkpt>
      <trkpt lat="36.571807013824582" lon="-5.27876797132194">
        <ele>716.79999999999995</ele>
        <time>2025-05-09T09:32:20Z</time>
      </trkpt>
      <trkpt lat="36.571825034916401" lon="-5.278664035722613">
        <ele>716.32000000000005</ele>
        <time>2025-05-09T09:32:21Z</time>
      </trkpt>
      <trkpt lat="36.57186602242291" lon="-5.278578037396073">
        <ele>715.36000000000001</ele>
        <time>2025-05-09T09:32:22Z</time>
      </trkpt>
      <trkpt lat="36.571929976344109" lon="-5.278512993827462">
        <ele>714.88</ele>
        <time>2025-05-09T09:32:23Z</time>
      </trkpt>
      <trkpt lat="36.57199895940721" lon="-5.278461026027799">
        <ele>713.91999999999996</ele>
        <time>2025-05-09T09:32:24Z</time>
      </trkpt>
      <trkpt lat="36.572075989097357" lon="-5.27842003852129">
        <ele>713.44000000000005</ele>
        <time>2025-05-09T09:32:25Z</time>
      </trkpt>
      <trkpt lat="36.572243040427566" lon="-5.278331022709608">
        <ele>711.50999999999999</ele>
        <time>2025-05-09T09:32:27Z</time>
      </trkpt>
      <trkpt lat="36.572317974641919" lon="-5.278260027989745">
        <ele>711.02999999999997</ele>
        <time>2025-05-09T09:32:28Z</time>
      </trkpt>
      <trkpt lat="36.572386035695672" lon="-5.278157014399767">
        <ele>710.54999999999995</ele>
        <time>2025-05-09T09:32:29Z</time>
      </trkpt>
      <trkpt lat="36.572632966563106" lon="-5.277738003060222">
        <ele>710.54999999999995</ele>
        <time>2025-05-09T09:32:33Z</time>
      </trkpt>
      <trkpt lat="36.57270303927362" lon="-5.277658961713314">
        <ele>711.50999999999999</ele>
        <time>2025-05-09T09:32:34Z</time>
      </trkpt>
      <trkpt lat="36.572775039821863" lon="-5.277594001963735">
        <ele>711.99000000000001</ele>
        <time>2025-05-09T09:32:35Z</time>
      </trkpt>
      <trkpt lat="36.572844022884965" lon="-5.277529964223504">
        <ele>712.95000000000005</ele>
        <time>2025-05-09T09:32:36Z</time>
      </trkpt>
      <trkpt lat="36.572908982634544" lon="-5.277471039444208">
        <ele>713.44000000000005</ele>
        <time>2025-05-09T09:32:37Z</time>
      </trkpt>
      <trkpt lat="36.573192961513996" lon="-5.277193011716008">
        <ele>716.32000000000005</ele>
        <time>2025-05-09T09:32:42Z</time>
      </trkpt>
      <trkpt lat="36.573244007304311" lon="-5.277127968147397">
        <ele>717.27999999999997</ele>
        <time>2025-05-09T09:32:43Z</time>
      </trkpt>
      <trkpt lat="36.573293963447213" lon="-5.277064014226198">
        <ele>718.72000000000003</ele>
        <time>2025-05-09T09:32:44Z</time>
      </trkpt>
      <trkpt lat="36.57358699478209" lon="-5.276557998731732">
        <ele>724.00999999999999</ele>
        <time>2025-05-09T09:32:51Z</time>
      </trkpt>
      <trkpt lat="36.573623958975077" lon="-5.276493960991502">
        <ele>725.45000000000005</ele>
        <time>2025-05-09T09:32:52Z</time>
      </trkpt>
      <trkpt lat="36.573704006150365" lon="-5.276353983208537">
        <ele>726.40999999999997</ele>
        <time>2025-05-09T09:32:54Z</time>
      </trkpt>
      <trkpt lat="36.573750022798777" lon="-5.276275025680661">
        <ele>726.88999999999999</ele>
        <time>2025-05-09T09:32:55Z</time>
      </trkpt>
      <trkpt lat="36.573784975335002" lon="-5.276201013475657">
        <ele>727.37</ele>
        <time>2025-05-09T09:32:56Z</time>
      </trkpt>
      <trkpt lat="36.573816994205117" lon="-5.27612398378551">
        <ele>727.37</ele>
        <time>2025-05-09T09:32:57Z</time>
      </trkpt>
      <trkpt lat="36.573849013075233" lon="-5.276045026257634">
        <ele>727.86000000000001</ele>
        <time>2025-05-09T09:32:58Z</time>
      </trkpt>
      <trkpt lat="36.573910033330321" lon="-5.275894990190864">
        <ele>728.34000000000003</ele>
        <time>2025-05-09T09:33:00Z</time>
      </trkpt>
      <trkpt lat="36.573939034715295" lon="-5.275825001299381">
        <ele>728.82000000000005</ele>
        <time>2025-05-09T09:33:01Z</time>
      </trkpt>
      <trkpt lat="36.573958983644843" lon="-5.275775967165828">
        <ele>728.82000000000005</ele>
        <time>2025-05-09T09:33:02Z</time>
      </trkpt>
      <trkpt lat="36.574021009728312" lon="-5.275664990767837">
        <ele>729.29999999999995</ele>
        <time>2025-05-09T09:33:04Z</time>
      </trkpt>
      <trkpt lat="36.574050011113286" lon="-5.275613022968173">
        <ele>729.77999999999997</ele>
        <time>2025-05-09T09:33:05Z</time>
      </trkpt>
      <trkpt lat="36.574096027761698" lon="-5.275579998269677">
        <ele>729.77999999999997</ele>
        <time>2025-05-09T09:33:06Z</time>
      </trkpt>
      <trkpt lat="36.574150007218122" lon="-5.275574969127774">
        <ele>730.25999999999999</ele>
        <time>2025-05-09T09:33:07Z</time>
      </trkpt>
      <trkpt lat="36.574211027473211" lon="-5.275569017976522">
        <ele>730.25999999999999</ele>
        <time>2025-05-09T09:33:08Z</time>
      </trkpt>
      <trkpt lat="36.574281016364694" lon="-5.275561977177858">
        <ele>730.25999999999999</ele>
        <time>2025-05-09T09:33:09Z</time>
      </trkpt>
      <trkpt lat="36.574329966679215" lon="-5.275593996047974">
        <ele>730.74000000000001</ele>
        <time>2025-05-09T09:33:10Z</time>
      </trkpt>
      <trkpt lat="36.574386963620782" lon="-5.275632971897721">
        <ele>730.74000000000001</ele>
        <time>2025-05-09T09:33:11Z</time>
      </trkpt>
      <trkpt lat="36.574441026896238" lon="-5.275668008252978">
        <ele>730.74000000000001</ele>
        <time>2025-05-09T09:33:12Z</time>
      </trkpt>
      <trkpt lat="36.574544962495565" lon="-5.275737997144461">
        <ele>730.74000000000001</ele>
        <time>2025-05-09T09:33:14Z</time>
      </trkpt>
      <trkpt lat="36.574607994407415" lon="-5.275776972994208">
        <ele>730.74000000000001</ele>
        <time>2025-05-09T09:33:15Z</time>
      </trkpt>
      <trkpt lat="36.574675971642137" lon="-5.275788959115744">
        <ele>730.74000000000001</ele>
        <time>2025-05-09T09:33:16Z</time>
      </trkpt>
      <trkpt lat="36.574758030474186" lon="-5.27577999047935">
        <ele>730.74000000000001</ele>
        <time>2025-05-09T09:33:17Z</time>
      </trkpt>
      <trkpt lat="36.574825001880527" lon="-5.2757359854877">
        <ele>730.74000000000001</ele>
        <time>2025-05-09T09:33:18Z</time>
      </trkpt>
      <trkpt lat="36.574894990772009" lon="-5.275688963010907">
        <ele>731.22000000000003</ele>
        <time>2025-05-09T09:33:19Z</time>
      </trkpt>
      <trkpt lat="36.574956011027098" lon="-5.275619979947805">
        <ele>731.70000000000005</ele>
        <time>2025-05-09T09:33:20Z</time>
      </trkpt>
      <trkpt lat="36.575009990483522" lon="-5.275538004934788">
        <ele>732.17999999999995</ele>
        <time>2025-05-09T09:33:21Z</time>
      </trkpt>
      <trkpt lat="36.575064975768328" lon="-5.275452006608248">
        <ele>732.65999999999997</ele>
        <time>2025-05-09T09:33:22Z</time>
      </trkpt>
      <trkpt lat="36.575248958542943" lon="-5.275238016620278">
        <ele>734.10000000000002</ele>
        <time>2025-05-09T09:33:25Z</time>
      </trkpt>
      <trkpt lat="36.575321964919567" lon="-5.275183031335473">
        <ele>734.58000000000004</ele>
        <time>2025-05-09T09:33:26Z</time>
      </trkpt>
      <trkpt lat="36.575418021529913" lon="-5.27511103078723">
        <ele>734.58000000000004</ele>
        <time>2025-05-09T09:33:27Z</time>
      </trkpt>
      <trkpt lat="36.575493961572647" lon="-5.275100972503424">
        <ele>735.07000000000005</ele>
        <time>2025-05-09T09:33:28Z</time>
      </trkpt>
      <trkpt lat="36.575591024011374" lon="-5.275087980553508">
        <ele>735.54999999999995</ele>
        <time>2025-05-09T09:33:29Z</time>
      </trkpt>
      <trkpt lat="36.576135009527206" lon="-5.274996031075716">
        <ele>739.38999999999999</ele>
        <time>2025-05-09T09:33:34Z</time>
      </trkpt>
      <trkpt lat="36.576245985925198" lon="-5.274931993335486">
        <ele>740.35000000000002</ele>
        <time>2025-05-09T09:33:35Z</time>
      </trkpt>
      <trkpt lat="36.576352017000318" lon="-5.274869967252016">
        <ele>741.78999999999996</ele>
        <time>2025-05-09T09:33:36Z</time>
      </trkpt>
      <trkpt lat="36.576457964256406" lon="-5.27481003664434">
        <ele>742.75999999999999</ele>
        <time>2025-05-09T09:33:37Z</time>
      </trkpt>
      <trkpt lat="36.576561983674765" lon="-5.274749016389251">
        <ele>744.20000000000005</ele>
        <time>2025-05-09T09:33:38Z</time>
      </trkpt>
      <trkpt lat="36.576668014749885" lon="-5.274699982255697">
        <ele>745.63999999999999</ele>
        <time>2025-05-09T09:33:39Z</time>
      </trkpt>
      <trkpt lat="36.576813021674752" lon="-5.274681961163878">
        <ele>746.60000000000002</ele>
        <time>2025-05-09T09:33:40Z</time>
      </trkpt>
      <trkpt lat="36.576912011951208" lon="-5.274698976427317">
        <ele>748.03999999999996</ele>
        <time>2025-05-09T09:33:41Z</time>
      </trkpt>
      <trkpt lat="36.577310990542173" lon="-5.274795033037663">
        <ele>751.40999999999997</ele>
        <time>2025-05-09T09:33:44Z</time>
      </trkpt>
      <trkpt lat="36.577447028830647" lon="-5.27485303580761">
        <ele>752.85000000000002</ele>
        <time>2025-05-09T09:33:45Z</time>
      </trkpt>
      <trkpt lat="36.577555993571877" lon="-5.274950014427304">
        <ele>753.80999999999995</ele>
        <time>2025-05-09T09:33:46Z</time>
      </trkpt>
      <trkpt lat="36.577648026868701" lon="-5.275073982775211">
        <ele>754.76999999999998</ele>
        <time>2025-05-09T09:33:47Z</time>
      </trkpt>
      <trkpt lat="36.577724972739816" lon="-5.275217983871698">
        <ele>755.73000000000002</ele>
        <time>2025-05-09T09:33:48Z</time>
      </trkpt>
      <trkpt lat="36.577790016308427" lon="-5.275388974696398">
        <ele>756.69000000000005</ele>
        <time>2025-05-09T09:33:49Z</time>
      </trkpt>
      <trkpt lat="36.578018004074693" lon="-5.275938995182514">
        <ele>759.10000000000002</ele>
        <time>2025-05-09T09:33:52Z</time>
      </trkpt>
      <trkpt lat="36.578259989619255" lon="-5.276450039818883">
        <ele>762.46000000000004</ele>
        <time>2025-05-09T09:33:55Z</time>
      </trkpt>
      <trkpt lat="36.578316986560822" lon="-5.27663704007864">
        <ele>763.41999999999996</ele>
        <time>2025-05-09T09:33:56Z</time>
      </trkpt>
      <trkpt lat="36.578426035121083" lon="-5.276995031163096">
        <ele>765.35000000000002</ele>
        <time>2025-05-09T09:33:58Z</time>
      </trkpt>
      <trkpt lat="36.57848596572876" lon="-5.277193011716008">
        <ele>766.30999999999995</ele>
        <time>2025-05-09T09:33:59Z</time>
      </trkpt>
      <trkpt lat="36.578575987368822" lon="-5.277273980900645">
        <ele>767.26999999999998</ele>
        <time>2025-05-09T09:34:00Z</time>
      </trkpt>
      <trkpt lat="36.57870096154511" lon="-5.277385963127017">
        <ele>768.71000000000004</ele>
        <time>2025-05-09T09:34:01Z</time>
      </trkpt>
      <trkpt lat="36.578824007883668" lon="-5.277429968118668">
        <ele>769.66999999999996</ele>
        <time>2025-05-09T09:34:02Z</time>
      </trkpt>
      <trkpt lat="36.578951999545097" lon="-5.277475984767079">
        <ele>771.11000000000001</ele>
        <time>2025-05-09T09:34:03Z</time>
      </trkpt>
      <trkpt lat="36.579069010913372" lon="-5.277517978101969">
        <ele>772.08000000000004</ele>
        <time>2025-05-09T09:34:04Z</time>
      </trkpt>
      <trkpt lat="36.579176969826221" lon="-5.277557037770748">
        <ele>772.55999999999995</ele>
        <time>2025-05-09T09:34:05Z</time>
      </trkpt>
      <trkpt lat="36.579269003123045" lon="-5.277624009177089">
        <ele>773.03999999999996</ele>
        <time>2025-05-09T09:34:06Z</time>
      </trkpt>
      <trkpt lat="36.579351983964443" lon="-5.277742026373744">
        <ele>774</ele>
        <time>2025-05-09T09:34:07Z</time>
      </trkpt>
      <trkpt lat="36.579427001997828" lon="-5.277887033298612">
        <ele>774.48000000000002</ele>
        <time>2025-05-09T09:34:08Z</time>
      </trkpt>
      <trkpt lat="36.579492967575788" lon="-5.278044026345015">
        <ele>774.96000000000004</ele>
        <time>2025-05-09T09:34:09Z</time>
      </trkpt>
      <trkpt lat="36.5795580111444" lon="-5.278200013563037">
        <ele>775.44000000000005</ele>
        <time>2025-05-09T09:34:10Z</time>
      </trkpt>
      <trkpt lat="36.57962397672236" lon="-5.27835700660944">
        <ele>775.91999999999996</ele>
        <time>2025-05-09T09:34:11Z</time>
      </trkpt>
      <trkpt lat="36.579701006412506" lon="-5.278497990220785">
        <ele>776.39999999999998</ele>
        <time>2025-05-09T09:34:12Z</time>
      </trkpt>
      <trkpt lat="36.579805025830865" lon="-5.278617013245821">
        <ele>776.88</ele>
        <time>2025-05-09T09:34:13Z</time>
      </trkpt>
      <trkpt lat="36.579940980300307" lon="-5.278688007965684">
        <ele>777.36000000000001</ele>
        <time>2025-05-09T09:34:14Z</time>
      </trkpt>
      <trkpt lat="36.580085987225175" lon="-5.278753973543644">
        <ele>777.84000000000003</ele>
        <time>2025-05-09T09:34:15Z</time>
      </trkpt>
      <trkpt lat="36.5802470035851" lon="-5.278740981593728">
        <ele>778.32000000000005</ele>
        <time>2025-05-09T09:34:16Z</time>
      </trkpt>
      <trkpt lat="36.580410031601787" lon="-5.27872203849256">
        <ele>778.80999999999995</ele>
        <time>2025-05-09T09:34:17Z</time>
      </trkpt>
      <trkpt lat="36.580575993284583" lon="-5.27870200574398">
        <ele>779.28999999999996</ele>
        <time>2025-05-09T09:34:18Z</time>
      </trkpt>
      <trkpt lat="36.582660991698503" lon="-5.278141004964709">
        <ele>786.01999999999998</ele>
        <time>2025-05-09T09:34:30Z</time>
      </trkpt>
      <trkpt lat="36.582831982523203" lon="-5.278131030499935">
        <ele>786.01999999999998</ele>
        <time>2025-05-09T09:34:31Z</time>
      </trkpt>
      <trkpt lat="36.582998028025031" lon="-5.278165983036161">
        <ele>786.01999999999998</ele>
        <time>2025-05-09T09:34:32Z</time>
      </trkpt>
      <trkpt lat="36.583158960565925" lon="-5.278200013563037">
        <ele>786.01999999999998</ele>
        <time>2025-05-09T09:34:33Z</time>
      </trkpt>
      <trkpt lat="36.583284018561244" lon="-5.278304032981396">
        <ele>785.52999999999997</ele>
        <time>2025-05-09T09:34:34Z</time>
      </trkpt>
      <trkpt lat="36.583411004394293" lon="-5.278412997722626">
        <ele>785.04999999999995</ele>
        <time>2025-05-09T09:34:35Z</time>
      </trkpt>
      <trkpt lat="36.583523992449045" lon="-5.278534032404423">
        <ele>784.57000000000005</ele>
        <time>2025-05-09T09:34:36Z</time>
      </trkpt>
      <trkpt lat="36.583632035180926" lon="-5.278671998530626">
        <ele>784.09000000000003</ele>
        <time>2025-05-09T09:34:37Z</time>
      </trkpt>
      <trkpt lat="36.583743011578918" lon="-5.27881097048521">
        <ele>783.61000000000001</ele>
        <time>2025-05-09T09:34:38Z</time>
      </trkpt>
      <trkpt lat="36.58452495932579" lon="-5.279616974294186">
        <ele>784.09000000000003</ele>
        <time>2025-05-09T09:34:45Z</time>
      </trkpt>
      <trkpt lat="36.584642976522446" lon="-5.279706995934248">
        <ele>784.57000000000005</ele>
        <time>2025-05-09T09:34:46Z</time>
      </trkpt>
      <trkpt lat="36.584773985669017" lon="-5.279772961512208">
        <ele>785.04999999999995</ele>
        <time>2025-05-09T09:34:47Z</time>
      </trkpt>
      <trkpt lat="36.58594099804759" lon="-5.279982006177306">
        <ele>790.82000000000005</ele>
        <time>2025-05-09T09:34:55Z</time>
      </trkpt>
      <trkpt lat="36.587536996230483" lon="-5.279899025335908">
        <ele>798.02999999999997</ele>
        <time>2025-05-09T09:35:05Z</time>
      </trkpt>
      <trkpt lat="36.58770103007555" lon="-5.279835993424058">
        <ele>798.50999999999999</ele>
        <time>2025-05-09T09:35:06Z</time>
      </trkpt>
      <trkpt lat="36.587857017293572" lon="-5.27975401841104">
        <ele>798.99000000000001</ele>
        <time>2025-05-09T09:35:07Z</time>
      </trkpt>
      <trkpt lat="36.587986014783382" lon="-5.279629966244102">
        <ele>799.47000000000003</ele>
        <time>2025-05-09T09:35:08Z</time>
      </trkpt>
      <trkpt lat="36.588118029758334" lon="-5.279503986239433">
        <ele>799.95000000000005</ele>
        <time>2025-05-09T09:35:09Z</time>
      </trkpt>
      <trkpt lat="36.588247027248144" lon="-5.279380017891526">
        <ele>800.44000000000005</ele>
        <time>2025-05-09T09:35:10Z</time>
      </trkpt>
      <trkpt lat="36.588548021391034" lon="-5.278987996280193">
        <ele>801.88</ele>
        <time>2025-05-09T09:35:13Z</time>
      </trkpt>
      <trkpt lat="36.588957980275154" lon="-5.278393970802426">
        <ele>803.79999999999995</ele>
        <time>2025-05-09T09:35:18Z</time>
      </trkpt>
      <trkpt lat="36.589074991643429" lon="-5.278304032981396">
        <ele>804.75999999999999</ele>
        <time>2025-05-09T09:35:19Z</time>
      </trkpt>
      <trkpt lat="36.589203989133239" lon="-5.278205964714289">
        <ele>805.24000000000001</ele>
        <time>2025-05-09T09:35:20Z</time>
      </trkpt>
      <trkpt lat="36.589341033250093" lon="-5.278105968609452">
        <ele>806.20000000000005</ele>
        <time>2025-05-09T09:35:21Z</time>
      </trkpt>
      <trkpt lat="36.589498026296496" lon="-5.278024999424815">
        <ele>807.15999999999997</ele>
        <time>2025-05-09T09:35:22Z</time>
      </trkpt>
      <trkpt lat="36.58965602517128" lon="-5.277943024411798">
        <ele>808.13</ele>
        <time>2025-05-09T09:35:23Z</time>
      </trkpt>
      <trkpt lat="36.590998973697424" lon="-5.277073988690972">
        <ele>818.22000000000003</ele>
        <time>2025-05-09T09:35:32Z</time>
      </trkpt>
      <trkpt lat="36.591239031404257" lon="-5.276882965117693">
        <ele>820.62</ele>
        <time>2025-05-09T09:35:34Z</time>
      </trkpt>
      <trkpt lat="36.591336010023952" lon="-5.276741981506348">
        <ele>821.58000000000004</ele>
        <time>2025-05-09T09:35:35Z</time>
      </trkpt>
      <trkpt lat="36.591424020007253" lon="-5.276593035086989">
        <ele>823.50999999999999</ele>
        <time>2025-05-09T09:35:36Z</time>
      </trkpt>
      <trkpt lat="36.591649996116757" lon="-5.276138987392187">
        <ele>825.90999999999997</ele>
        <time>2025-05-09T09:35:39Z</time>
      </trkpt>
      <trkpt lat="36.59174001775682" lon="-5.276007978245616">
        <ele>826.38999999999999</ele>
        <time>2025-05-09T09:35:40Z</time>
      </trkpt>
      <trkpt lat="36.591812018305063" lon="-5.275904964655638">
        <ele>826.87</ele>
        <time>2025-05-09T09:35:41Z</time>
      </trkpt>
      <trkpt lat="36.591948978602886" lon="-5.275817038491368">
        <ele>827.35000000000002</ele>
        <time>2025-05-09T09:35:42Z</time>
      </trkpt>
      <trkpt lat="36.592079987749457" lon="-5.275732968002558">
        <ele>827.35000000000002</ele>
        <time>2025-05-09T09:35:43Z</time>
      </trkpt>
      <trkpt lat="36.592218037694693" lon="-5.275645041838288">
        <ele>827.35000000000002</ele>
        <time>2025-05-09T09:35:44Z</time>
      </trkpt>
      <trkpt lat="36.592936031520367" lon="-5.275184037163854">
        <ele>827.35000000000002</ele>
        <time>2025-05-09T09:35:49Z</time>
      </trkpt>
      <trkpt lat="36.593028986826539" lon="-5.275044981390238">
        <ele>827.35000000000002</ele>
        <time>2025-05-09T09:35:50Z</time>
      </trkpt>
      <trkpt lat="36.593114985153079" lon="-5.274905003607273">
        <ele>827.83000000000004</ele>
        <time>2025-05-09T09:35:51Z</time>
      </trkpt>
      <trkpt lat="36.593162007629871" lon="-5.274749016389251">
        <ele>828.30999999999995</ele>
        <time>2025-05-09T09:35:52Z</time>
      </trkpt>
      <trkpt lat="36.593206012621522" lon="-5.274588000029326">
        <ele>829.26999999999998</ele>
        <time>2025-05-09T09:35:53Z</time>
      </trkpt>
      <trkpt lat="36.593250017613173" lon="-5.274432012811303">
        <ele>829.75999999999999</ele>
        <time>2025-05-09T09:35:54Z</time>
      </trkpt>
      <trkpt lat="36.593289999291301" lon="-5.274286000058055">
        <ele>830.24000000000001</ele>
        <time>2025-05-09T09:35:55Z</time>
      </trkpt>
      <trkpt lat="36.593328975141048" lon="-5.274147028103471">
        <ele>830.72000000000003</ele>
        <time>2025-05-09T09:35:56Z</time>
      </trkpt>
      <trkpt lat="36.593385972082615" lon="-5.274022975936532">
        <ele>831.20000000000005</ele>
        <time>2025-05-09T09:35:57Z</time>
      </trkpt>
      <trkpt lat="36.593447998166084" lon="-5.273898001760244">
        <ele>831.67999999999995</ele>
        <time>2025-05-09T09:35:58Z</time>
      </trkpt>
      <trkpt lat="36.593733988702297" lon="-5.273556020110846">
        <ele>831.67999999999995</ele>
        <time>2025-05-09T09:36:01Z</time>
      </trkpt>
      <trkpt lat="36.594747025519609" lon="-5.272777006030083">
        <ele>827.83000000000004</ele>
        <time>2025-05-09T09:36:10Z</time>
      </trkpt>
      <trkpt lat="36.594864958897233" lon="-5.272727971896529">
        <ele>827.35000000000002</ele>
        <time>2025-05-09T09:36:11Z</time>
      </trkpt>
      <trkpt lat="36.594982976093888" lon="-5.272701987996697">
        <ele>826.87</ele>
        <time>2025-05-09T09:36:12Z</time>
      </trkpt>
      <trkpt lat="36.595098981633782" lon="-5.272681033238769">
        <ele>826.38999999999999</ele>
        <time>2025-05-09T09:36:13Z</time>
      </trkpt>
      <trkpt lat="36.595353037118912" lon="-5.272681033238769">
        <ele>825.42999999999995</ele>
        <time>2025-05-09T09:36:15Z</time>
      </trkpt>
      <trkpt lat="36.595485974103212" lon="-5.272700982168317">
        <ele>824.95000000000005</ele>
        <time>2025-05-09T09:36:16Z</time>
      </trkpt>
      <trkpt lat="36.596102965995669" lon="-5.272794021293521">
        <ele>823.50999999999999</ele>
        <time>2025-05-09T09:36:21Z</time>
      </trkpt>
      <trkpt lat="36.596207991242409" lon="-5.27274901047349">
        <ele>823.02999999999997</ele>
        <time>2025-05-09T09:36:22Z</time>
      </trkpt>
      <trkpt lat="36.596306981518865" lon="-5.2727070171386">
        <ele>822.54999999999995</ele>
        <time>2025-05-09T09:36:23Z</time>
      </trkpt>
      <trkpt lat="36.596407983452082" lon="-5.272658988833427">
        <ele>822.05999999999995</ele>
        <time>2025-05-09T09:36:24Z</time>
      </trkpt>
      <trkpt lat="36.596485013142228" lon="-5.272563016042113">
        <ele>821.58000000000004</ele>
        <time>2025-05-09T09:36:25Z</time>
      </trkpt>
      <trkpt lat="36.596562964841723" lon="-5.272465031594038">
        <ele>821.10000000000002</ele>
        <time>2025-05-09T09:36:26Z</time>
      </trkpt>
      <trkpt lat="36.5971340239048" lon="-5.271850973367691">
        <ele>818.22000000000003</ele>
        <time>2025-05-09T09:36:32Z</time>
      </trkpt>
      <trkpt lat="36.597238965332508" lon="-5.271767992526293">
        <ele>817.25999999999999</ele>
        <time>2025-05-09T09:36:33Z</time>
      </trkpt>
      <trkpt lat="36.597341978922486" lon="-5.27169699780643">
        <ele>816.29999999999995</ele>
        <time>2025-05-09T09:36:34Z</time>
      </trkpt>
      <trkpt lat="36.597459996119142" lon="-5.27167503722012">
        <ele>815.34000000000003</ele>
        <time>2025-05-09T09:36:35Z</time>
      </trkpt>
      <trkpt lat="36.597562003880739" lon="-5.271657016128302">
        <ele>814.85000000000002</ele>
        <time>2025-05-09T09:36:36Z</time>
      </trkpt>
      <trkpt lat="36.597684966400266" lon="-5.271699009463191">
        <ele>813.88999999999999</ele>
        <time>2025-05-09T09:36:37Z</time>
      </trkpt>
      <trkpt lat="36.597802983596921" lon="-5.2717399969697">
        <ele>813.40999999999997</ele>
        <time>2025-05-09T09:36:38Z</time>
      </trkpt>
      <trkpt lat="36.597923012450337" lon="-5.271780984476209">
        <ele>812.45000000000005</ele>
        <time>2025-05-09T09:36:39Z</time>
      </trkpt>
      <trkpt lat="36.598042035475373" lon="-5.271822977811098">
        <ele>811.49000000000001</ele>
        <time>2025-05-09T09:36:40Z</time>
      </trkpt>
      <trkpt lat="36.598158963024616" lon="-5.271849967539311">
        <ele>810.52999999999997</ele>
        <time>2025-05-09T09:36:41Z</time>
      </trkpt>
      <trkpt lat="36.598282009363174" lon="-5.271849967539311">
        <ele>810.04999999999995</ele>
        <time>2025-05-09T09:36:42Z</time>
      </trkpt>
      <trkpt lat="36.59840296022594" lon="-5.271835969761014">
        <ele>809.09000000000003</ele>
        <time>2025-05-09T09:36:43Z</time>
      </trkpt>
      <trkpt lat="36.598528018221259" lon="-5.271768998354673">
        <ele>808.13</ele>
        <time>2025-05-09T09:36:44Z</time>
      </trkpt>
      <trkpt lat="36.598672019317746" lon="-5.271690962836146">
        <ele>807.15999999999997</ele>
        <time>2025-05-09T09:36:45Z</time>
      </trkpt>
      <trkpt lat="36.598845021799207" lon="-5.271597001701593">
        <ele>806.20000000000005</ele>
        <time>2025-05-09T09:36:46Z</time>
      </trkpt>
      <trkpt lat="36.599555974826217" lon="-5.271175978705287">
        <ele>801.39999999999998</ele>
        <time>2025-05-09T09:36:50Z</time>
      </trkpt>
      <trkpt lat="36.599692013114691" lon="-5.271036000922322">
        <ele>800.44000000000005</ele>
        <time>2025-05-09T09:36:51Z</time>
      </trkpt>
      <trkpt lat="36.600004993379116" lon="-5.270587988197804">
        <ele>797.07000000000005</ele>
        <time>2025-05-09T09:36:54Z</time>
      </trkpt>
      <trkpt lat="36.60005696117878" lon="-5.270422026515007">
        <ele>796.11000000000001</ele>
        <time>2025-05-09T09:36:55Z</time>
      </trkpt>
      <trkpt lat="36.600072970613837" lon="-5.270253969356418">
        <ele>795.63</ele>
        <time>2025-05-09T09:36:56Z</time>
      </trkpt>
      <trkpt lat="36.600069031119347" lon="-5.27008599601686">
        <ele>794.66999999999996</ele>
        <time>2025-05-09T09:36:57Z</time>
      </trkpt>
      <trkpt lat="36.600053021684289" lon="-5.269915005192161">
        <ele>793.22000000000003</ele>
        <time>2025-05-09T09:36:58Z</time>
      </trkpt>
      <trkpt lat="36.600038018077612" lon="-5.269746026024222">
        <ele>792.25999999999999</ele>
        <time>2025-05-09T09:36:59Z</time>
      </trkpt>
      <trkpt lat="36.5999920014292" lon="-5.2695900388062">
        <ele>791.29999999999995</ele>
        <time>2025-05-09T09:37:00Z</time>
      </trkpt>
      <trkpt lat="36.599921006709337" lon="-5.269457018002868">
        <ele>790.34000000000003</ele>
        <time>2025-05-09T09:37:01Z</time>
      </trkpt>
      <trkpt lat="36.599782034754753" lon="-5.269199023023248">
        <ele>788.41999999999996</ele>
        <time>2025-05-09T09:37:03Z</time>
      </trkpt>
      <trkpt lat="36.599713973701" lon="-5.269072037190199">
        <ele>786.98000000000002</ele>
        <time>2025-05-09T09:37:04Z</time>
      </trkpt>
      <trkpt lat="36.599692013114691" lon="-5.268940022215247">
        <ele>786.01999999999998</ele>
        <time>2025-05-09T09:37:05Z</time>
      </trkpt>
      <trkpt lat="36.599671980366111" lon="-5.268793003633618">
        <ele>785.04999999999995</ele>
        <time>2025-05-09T09:37:06Z</time>
      </trkpt>
      <trkpt lat="36.599698970094323" lon="-5.268656965345144">
        <ele>784.09000000000003</ele>
        <time>2025-05-09T09:37:07Z</time>
      </trkpt>
      <trkpt lat="36.59975403919816" lon="-5.268526040017605">
        <ele>783.13</ele>
        <time>2025-05-09T09:37:08Z</time>
      </trkpt>
      <trkpt lat="36.599836014211178" lon="-5.26841196231544">
        <ele>782.16999999999996</ele>
        <time>2025-05-09T09:37:09Z</time>
      </trkpt>
      <trkpt lat="36.599935004487634" lon="-5.268305009230971">
        <ele>781.21000000000004</ele>
        <time>2025-05-09T09:37:10Z</time>
      </trkpt>
      <trkpt lat="36.600152011960745" lon="-5.268125971779227">
        <ele>779.76999999999998</ele>
        <time>2025-05-09T09:37:12Z</time>
      </trkpt>
      <trkpt lat="36.600277991965413" lon="-5.268100993707776">
        <ele>778.32000000000005</ele>
        <time>2025-05-09T09:37:13Z</time>
      </trkpt>
      <trkpt lat="36.600400032475591" lon="-5.26811096817255">
        <ele>777.84000000000003</ele>
        <time>2025-05-09T09:37:14Z</time>
      </trkpt>
      <trkpt lat="36.600518971681595" lon="-5.268146004527807">
        <ele>776.88</ele>
        <time>2025-05-09T09:37:15Z</time>
      </trkpt>
      <trkpt lat="36.600633971393108" lon="-5.268203001469374">
        <ele>775.91999999999996</ele>
        <time>2025-05-09T09:37:16Z</time>
      </trkpt>
      <trkpt lat="36.600751988589764" lon="-5.268262010067701">
        <ele>774.96000000000004</ele>
        <time>2025-05-09T09:37:17Z</time>
      </trkpt>
      <trkpt lat="36.600871011614799" lon="-5.268286988139153">
        <ele>774</ele>
        <time>2025-05-09T09:37:18Z</time>
      </trkpt>
      <trkpt lat="36.600986011326313" lon="-5.268308026716113">
        <ele>772.55999999999995</ele>
        <time>2025-05-09T09:37:19Z</time>
      </trkpt>
      <trkpt lat="36.60108701325953" lon="-5.268263015896082">
        <ele>771.60000000000002</ele>
        <time>2025-05-09T09:37:20Z</time>
      </trkpt>
      <trkpt lat="36.601183991879225" lon="-5.268205013126135">
        <ele>770.63</ele>
        <time>2025-05-09T09:37:21Z</time>
      </trkpt>
      <trkpt lat="36.601272001862526" lon="-5.26810996234417">
        <ele>769.66999999999996</ele>
        <time>2025-05-09T09:37:22Z</time>
      </trkpt>
      <trkpt lat="36.601365962997079" lon="-5.268009966239333">
        <ele>769.19000000000005</ele>
        <time>2025-05-09T09:37:23Z</time>
      </trkpt>
      <trkpt lat="36.602314962074161" lon="-5.267117964103818">
        <ele>761.98000000000002</ele>
        <time>2025-05-09T09:37:32Z</time>
      </trkpt>
      <trkpt lat="36.602426022291183" lon="-5.267045963555574">
        <ele>761.5</ele>
        <time>2025-05-09T09:37:33Z</time>
      </trkpt>
      <trkpt lat="36.602536998689175" lon="-5.267004976049066">
        <ele>760.53999999999996</ele>
        <time>2025-05-09T09:37:34Z</time>
      </trkpt>
      <trkpt lat="36.602650992572308" lon="-5.267018973827362">
        <ele>759.58000000000004</ele>
        <time>2025-05-09T09:37:35Z</time>
      </trkpt>
      <trkpt lat="36.602762974798679" lon="-5.267032971605659">
        <ele>758.62</ele>
        <time>2025-05-09T09:37:36Z</time>
      </trkpt>
      <trkpt lat="36.602864982560277" lon="-5.267061972990632">
        <ele>758.13999999999999</ele>
        <time>2025-05-09T09:37:37Z</time>
      </trkpt>
      <trkpt lat="36.602962967008352" lon="-5.267137996852398">
        <ele>757.17999999999995</ele>
        <time>2025-05-09T09:37:38Z</time>
      </trkpt>
      <trkpt lat="36.603050976991653" lon="-5.267221983522177">
        <ele>756.21000000000004</ele>
        <time>2025-05-09T09:37:39Z</time>
      </trkpt>
      <trkpt lat="36.603120965883136" lon="-5.267337989062071">
        <ele>755.73000000000002</ele>
        <time>2025-05-09T09:37:40Z</time>
      </trkpt>
      <trkpt lat="36.603188021108508" lon="-5.267448965460062">
        <ele>754.76999999999998</ele>
        <time>2025-05-09T09:37:41Z</time>
      </trkpt>
      <trkpt lat="36.603253986686468" lon="-5.267560025677085">
        <ele>754.28999999999996</ele>
        <time>2025-05-09T09:37:42Z</time>
      </trkpt>
      <trkpt lat="36.603302014991641" lon="-5.267681982368231">
        <ele>753.33000000000004</ele>
        <time>2025-05-09T09:37:43Z</time>
      </trkpt>
      <trkpt lat="36.603325987234712" lon="-5.267821038141847">
        <ele>752.37</ele>
        <time>2025-05-09T09:37:44Z</time>
      </trkpt>
      <trkpt lat="36.603355994448066" lon="-5.267986999824643">
        <ele>751.40999999999997</ele>
        <time>2025-05-09T09:37:45Z</time>
      </trkpt>
      <trkpt lat="36.60334400832653" lon="-5.268121026456356">
        <ele>749.97000000000003</ele>
        <time>2025-05-09T09:37:46Z</time>
      </trkpt>
      <trkpt lat="36.603327998891473" lon="-5.26827902533114">
        <ele>749.49000000000001</ele>
        <time>2025-05-09T09:37:47Z</time>
      </trkpt>
      <trkpt lat="36.603291034698486" lon="-5.268593011423945">
        <ele>747.55999999999995</ele>
        <time>2025-05-09T09:37:49Z</time>
      </trkpt>
      <trkpt lat="36.603272007778287" lon="-5.268750004470348">
        <ele>746.60000000000002</ele>
        <time>2025-05-09T09:37:50Z</time>
      </trkpt>
      <trkpt lat="36.603253986686468" lon="-5.268909009173513">
        <ele>745.63999999999999</ele>
        <time>2025-05-09T09:37:51Z</time>
      </trkpt>
      <trkpt lat="36.60327703692019" lon="-5.269074970856309">
        <ele>744.67999999999995</ele>
        <time>2025-05-09T09:37:52Z</time>
      </trkpt>
      <trkpt lat="36.603314001113176" lon="-5.269231041893363">
        <ele>743.72000000000003</ele>
        <time>2025-05-09T09:37:53Z</time>
      </trkpt>
      <trkpt lat="36.603368986397982" lon="-5.269366996362805">
        <ele>742.75999999999999</ele>
        <time>2025-05-09T09:37:54Z</time>
      </trkpt>
      <trkpt lat="36.603441992774606" lon="-5.269467998296022">
        <ele>741.30999999999995</ele>
        <time>2025-05-09T09:37:55Z</time>
      </trkpt>
      <trkpt lat="36.6035389713943" lon="-5.269537987187505">
        <ele>739.87</ele>
        <time>2025-05-09T09:37:56Z</time>
      </trkpt>
      <trkpt lat="36.603641984984279" lon="-5.269582998007536">
        <ele>738.90999999999997</ele>
        <time>2025-05-09T09:37:57Z</time>
      </trkpt>
      <trkpt lat="36.603758996352553" lon="-5.269600013270974">
        <ele>737.95000000000005</ele>
        <time>2025-05-09T09:37:58Z</time>
      </trkpt>
      <trkpt lat="36.603885982185602" lon="-5.269619040191174">
        <ele>736.99000000000001</ele>
        <time>2025-05-09T09:37:59Z</time>
      </trkpt>
      <trkpt lat="36.604128973558545" lon="-5.269711995497346">
        <ele>736.02999999999997</ele>
        <time>2025-05-09T09:38:01Z</time>
      </trkpt>
      <trkpt lat="36.604235004633665" lon="-5.269781984388828">
        <ele>735.07000000000005</ele>
        <time>2025-05-09T09:38:02Z</time>
      </trkpt>
      <trkpt lat="36.604345981031656" lon="-5.269855996593833">
        <ele>734.10000000000002</ele>
        <time>2025-05-09T09:38:03Z</time>
      </trkpt>
      <trkpt lat="36.604457041248679" lon="-5.269950963556767">
        <ele>733.62</ele>
        <time>2025-05-09T09:38:04Z</time>
      </trkpt>
      <trkpt lat="36.604561982676387" lon="-5.270065041258931">
        <ele>732.65999999999997</ele>
        <time>2025-05-09T09:38:05Z</time>
      </trkpt>
      <trkpt lat="36.604851996526122" lon="-5.270380033180118">
        <ele>730.25999999999999</ele>
        <time>2025-05-09T09:38:08Z</time>
      </trkpt>
      <trkpt lat="36.604948975145817" lon="-5.270453961566091">
        <ele>729.29999999999995</ele>
        <time>2025-05-09T09:38:09Z</time>
      </trkpt>
      <trkpt lat="36.605050982907414" lon="-5.270497966557741">
        <ele>728.82000000000005</ele>
        <time>2025-05-09T09:38:10Z</time>
      </trkpt>
      <trkpt lat="36.605167994275689" lon="-5.270510036498308">
        <ele>727.86000000000001</ele>
        <time>2025-05-09T09:38:11Z</time>
      </trkpt>
      <trkpt lat="36.605279976502061" lon="-5.270522022619844">
        <ele>727.37</ele>
        <time>2025-05-09T09:38:12Z</time>
      </trkpt>
      <trkpt lat="36.605517016723752" lon="-5.270548006519675">
        <ele>726.40999999999997</ele>
        <time>2025-05-09T09:38:14Z</time>
      </trkpt>
      <trkpt lat="36.605651965364814" lon="-5.270562004297972">
        <ele>725.92999999999995</ele>
        <time>2025-05-09T09:38:15Z</time>
      </trkpt>
      <trkpt lat="36.60575196146965" lon="-5.270534008741379">
        <ele>724.97000000000003</ele>
        <time>2025-05-09T09:38:16Z</time>
      </trkpt>
      <trkpt lat="36.605865033343434" lon="-5.270504001528025">
        <ele>724.49000000000001</ele>
        <time>2025-05-09T09:38:17Z</time>
      </trkpt>
      <trkpt lat="36.605975003913045" lon="-5.270458990707994">
        <ele>724.00999999999999</ele>
        <time>2025-05-09T09:38:18Z</time>
      </trkpt>
      <trkpt lat="36.607098011299968" lon="-5.269908970221877">
        <ele>720.15999999999997</ele>
        <time>2025-05-09T09:38:30Z</time>
      </trkpt>
      <trkpt lat="36.607304960489273" lon="-5.269825989380479">
        <ele>719.67999999999995</ele>
        <time>2025-05-09T09:38:33Z</time>
      </trkpt>
      <trkpt lat="36.607365980744362" lon="-5.269800005480647">
        <ele>719.20000000000005</ele>
        <time>2025-05-09T09:38:34Z</time>
      </trkpt>
      <trkpt lat="36.607836959883571" lon="-5.269629014655948">
        <ele>720.15999999999997</ele>
        <time>2025-05-09T09:38:40Z</time>
      </trkpt>
      <trkpt lat="36.608783025294542" lon="-5.269547961652279">
        <ele>724.97000000000003</ele>
        <time>2025-05-09T09:38:49Z</time>
      </trkpt>
      <trkpt lat="36.608883021399379" lon="-5.269586015492678">
        <ele>725.45000000000005</ele>
        <time>2025-05-09T09:38:50Z</time>
      </trkpt>
      <trkpt lat="36.608974970877171" lon="-5.269621973857284">
        <ele>726.40999999999997</ele>
        <time>2025-05-09T09:38:51Z</time>
      </trkpt>
      <trkpt lat="36.609061975032091" lon="-5.269674025475979">
        <ele>726.88999999999999</ele>
        <time>2025-05-09T09:38:52Z</time>
      </trkpt>
      <trkpt lat="36.609149985015392" lon="-5.269747031852603">
        <ele>727.37</ele>
        <time>2025-05-09T09:38:53Z</time>
      </trkpt>
      <trkpt lat="36.60923196002841" lon="-5.269849039614201">
        <ele>727.86000000000001</ele>
        <time>2025-05-09T09:38:54Z</time>
      </trkpt>
      <trkpt lat="36.609947020187974" lon="-5.270729977637529">
        <ele>729.29999999999995</ele>
        <time>2025-05-09T09:39:02Z</time>
      </trkpt>
      <trkpt lat="36.610054979100823" lon="-5.270862998440862">
        <ele>729.77999999999997</ele>
        <time>2025-05-09T09:39:03Z</time>
      </trkpt>
      <trkpt lat="36.610200991854072" lon="-5.27094597928226">
        <ele>730.25999999999999</ele>
        <time>2025-05-09T09:39:04Z</time>
      </trkpt>
      <trkpt lat="36.610366031527519" lon="-5.271025020629168">
        <ele>730.74000000000001</ele>
        <time>2025-05-09T09:39:05Z</time>
      </trkpt>
      <trkpt lat="36.610529981553555" lon="-5.271104983985424">
        <ele>731.70000000000005</ele>
        <time>2025-05-09T09:39:06Z</time>
      </trkpt>
      <trkpt lat="36.610684962943196" lon="-5.271178996190429">
        <ele>732.17999999999995</ele>
        <time>2025-05-09T09:39:07Z</time>
      </trkpt>
      <trkpt lat="36.611281000077724" lon="-5.271485019475222">
        <ele>736.99000000000001</ele>
        <time>2025-05-09T09:39:12Z</time>
      </trkpt>
      <trkpt lat="36.612096978351474" lon="-5.272291023284197">
        <ele>742.27999999999997</ele>
        <time>2025-05-09T09:39:18Z</time>
      </trkpt>
      <trkpt lat="36.61245102994144" lon="-5.272662006318569">
        <ele>745.63999999999999</ele>
        <time>2025-05-09T09:39:21Z</time>
      </trkpt>
      <trkpt lat="36.612576004117727" lon="-5.272725960239768">
        <ele>746.60000000000002</ele>
        <time>2025-05-09T09:39:22Z</time>
      </trkpt>
      <trkpt lat="36.612701984122396" lon="-5.272788992151618">
        <ele>747.55999999999995</ele>
        <time>2025-05-09T09:39:23Z</time>
      </trkpt>
      <trkpt lat="36.612844979390502" lon="-5.27277298271656">
        <ele>748.03999999999996</ele>
        <time>2025-05-09T09:39:24Z</time>
      </trkpt>
      <trkpt lat="36.61298998631537" lon="-5.272751022130251">
        <ele>749</ele>
        <time>2025-05-09T09:39:25Z</time>
      </trkpt>
      <trkpt lat="36.613116972148418" lon="-5.27266401797533">
        <ele>749.97000000000003</ele>
        <time>2025-05-09T09:39:26Z</time>
      </trkpt>
      <trkpt lat="36.61324798129499" lon="-5.272573996335268">
        <ele>750.45000000000005</ele>
        <time>2025-05-09T09:39:27Z</time>
      </trkpt>
      <trkpt lat="36.613382007926702" lon="-5.272503001615405">
        <ele>751.40999999999997</ele>
        <time>2025-05-09T09:39:28Z</time>
      </trkpt>
      <trkpt lat="36.613531038165092" lon="-5.272466037422419">
        <ele>752.37</ele>
        <time>2025-05-09T09:39:29Z</time>
      </trkpt>
      <trkpt lat="36.613676967099309" lon="-5.2724289894104">
        <ele>752.85000000000002</ele>
        <time>2025-05-09T09:39:30Z</time>
      </trkpt>
      <trkpt lat="36.613837983459234" lon="-5.272455979138613">
        <ele>753.33000000000004</ele>
        <time>2025-05-09T09:39:31Z</time>
      </trkpt>
      <trkpt lat="36.614002017304301" lon="-5.272483974695206">
        <ele>753.80999999999995</ele>
        <time>2025-05-09T09:39:32Z</time>
      </trkpt>
      <trkpt lat="36.614165967330337" lon="-5.272511970251799">
        <ele>754.28999999999996</ele>
        <time>2025-05-09T09:39:33Z</time>
      </trkpt>
      <trkpt lat="36.614808021113276" lon="-5.272655971348286">
        <ele>755.73000000000002</ele>
        <time>2025-05-09T09:39:37Z</time>
      </trkpt>
      <trkpt lat="36.614941963925958" lon="-5.272727971896529">
        <ele>756.69000000000005</ele>
        <time>2025-05-09T09:39:38Z</time>
      </trkpt>
      <trkpt lat="36.615060986950994" lon="-5.272848000749946">
        <ele>757.65999999999997</ele>
        <time>2025-05-09T09:39:39Z</time>
      </trkpt>
      <trkpt lat="36.615429036319256" lon="-5.273210015147924">
        <ele>759.58000000000004</ele>
        <time>2025-05-09T09:39:42Z</time>
      </trkpt>
      <trkpt lat="36.615572031587362" lon="-5.273299030959606">
        <ele>760.53999999999996</ele>
        <time>2025-05-09T09:39:43Z</time>
      </trkpt>
      <trkpt lat="36.615716032683849" lon="-5.273387962952256">
        <ele>761.5</ele>
        <time>2025-05-09T09:39:44Z</time>
      </trkpt>
      <trkpt lat="36.617153026163578" lon="-5.27397402562201">
        <ele>771.60000000000002</ele>
        <time>2025-05-09T09:39:53Z</time>
      </trkpt>
      <trkpt lat="36.61730800755322" lon="-5.27397402562201">
        <ele>772.55999999999995</ele>
        <time>2025-05-09T09:39:54Z</time>
      </trkpt>
      <trkpt lat="36.617474975064397" lon="-5.27397402562201">
        <ele>774</ele>
        <time>2025-05-09T09:39:55Z</time>
      </trkpt>
      <trkpt lat="36.617627022787929" lon="-5.27393102645874">
        <ele>775.44000000000005</ele>
        <time>2025-05-09T09:39:56Z</time>
      </trkpt>
      <trkpt lat="36.617774963378906" lon="-5.27388802729547">
        <ele>776.39999999999998</ele>
        <time>2025-05-09T09:39:57Z</time>
      </trkpt>
      <trkpt lat="36.61793103441596" lon="-5.273820972070098">
        <ele>777.84000000000003</ele>
        <time>2025-05-09T09:39:58Z</time>
      </trkpt>
      <trkpt lat="36.618519024923444" lon="-5.273532969877124">
        <ele>782.64999999999998</ele>
        <time>2025-05-09T09:40:02Z</time>
      </trkpt>
      <trkpt lat="36.618651961907744" lon="-5.273430040106177">
        <ele>783.61000000000001</ele>
        <time>2025-05-09T09:40:03Z</time>
      </trkpt>
      <trkpt lat="36.6187699791044" lon="-5.273304982110858">
        <ele>784.57000000000005</ele>
        <time>2025-05-09T09:40:04Z</time>
      </trkpt>
      <trkpt lat="36.618880033493042" lon="-5.27315997518599">
        <ele>785.52999999999997</ele>
        <time>2025-05-09T09:40:05Z</time>
      </trkpt>
      <trkpt lat="36.618967959657311" lon="-5.272990996018052">
        <ele>786.5</ele>
        <time>2025-05-09T09:40:06Z</time>
      </trkpt>
      <trkpt lat="36.619804976508021" lon="-5.271392986178398">
        <ele>794.19000000000005</ele>
        <time>2025-05-09T09:40:15Z</time>
      </trkpt>
      <trkpt lat="36.619914025068283" lon="-5.271256025880575">
        <ele>795.14999999999998</ele>
        <time>2025-05-09T09:40:16Z</time>
      </trkpt>
      <trkpt lat="36.62003799341619" lon="-5.271131973713636">
        <ele>796.11000000000001</ele>
        <time>2025-05-09T09:40:17Z</time>
      </trkpt>
      <trkpt lat="36.620174031704664" lon="-5.271026026457548">
        <ele>796.11000000000001</ele>
        <time>2025-05-09T09:40:18Z</time>
      </trkpt>
      <trkpt lat="36.620908034965396" lon="-5.270583964884281">
        <ele>796.11000000000001</ele>
        <time>2025-05-09T09:40:23Z</time>
      </trkpt>
      <trkpt lat="36.621061004698277" lon="-5.270563010126352">
        <ele>795.14999999999998</ele>
        <time>2025-05-09T09:40:24Z</time>
      </trkpt>
      <trkpt lat="36.621225038543344" lon="-5.270568039268255">
        <ele>794.66999999999996</ele>
        <time>2025-05-09T09:40:25Z</time>
      </trkpt>
      <trkpt lat="36.621557967737317" lon="-5.270580025389791">
        <ele>793.71000000000004</ele>
        <time>2025-05-09T09:40:27Z</time>
      </trkpt>
      <trkpt lat="36.621719989925623" lon="-5.270567033439875">
        <ele>793.22000000000003</ele>
        <time>2025-05-09T09:40:28Z</time>
      </trkpt>
      <trkpt lat="36.621857034042478" lon="-5.270494027063251">
        <ele>792.74000000000001</ele>
        <time>2025-05-09T09:40:29Z</time>
      </trkpt>
      <trkpt lat="36.621973039582372" lon="-5.270377015694976">
        <ele>792.25999999999999</ele>
        <time>2025-05-09T09:40:30Z</time>
      </trkpt>
      <trkpt lat="36.622090972959995" lon="-5.270258998498321">
        <ele>791.77999999999997</ele>
        <time>2025-05-09T09:40:31Z</time>
      </trkpt>
      <trkpt lat="36.622205972671509" lon="-5.270143998786807">
        <ele>791.77999999999997</ele>
        <time>2025-05-09T09:40:32Z</time>
      </trkpt>
      <trkpt lat="36.622339999303222" lon="-5.270080966874957">
        <ele>791.77999999999997</ele>
        <time>2025-05-09T09:40:33Z</time>
      </trkpt>
      <trkpt lat="36.622485006228089" lon="-5.270036961883307">
        <ele>791.77999999999997</ele>
        <time>2025-05-09T09:40:34Z</time>
      </trkpt>
      <trkpt lat="36.622634958475828" lon="-5.269991029053927">
        <ele>792.25999999999999</ele>
        <time>2025-05-09T09:40:35Z</time>
      </trkpt>
      <trkpt lat="36.622934024780989" lon="-5.269890027120709">
        <ele>792.74000000000001</ele>
        <time>2025-05-09T09:40:37Z</time>
      </trkpt>
      <trkpt lat="36.623062016442418" lon="-5.269794976338744">
        <ele>793.22000000000003</ele>
        <time>2025-05-09T09:40:38Z</time>
      </trkpt>
      <trkpt lat="36.623168969526887" lon="-5.269666984677315">
        <ele>793.71000000000004</ele>
        <time>2025-05-09T09:40:39Z</time>
      </trkpt>
      <trkpt lat="36.623275000602007" lon="-5.269518960267305">
        <ele>794.66999999999996</ele>
        <time>2025-05-09T09:40:40Z</time>
      </trkpt>
      <trkpt lat="36.623365022242069" lon="-5.269350986927748">
        <ele>795.14999999999998</ele>
        <time>2025-05-09T09:40:41Z</time>
      </trkpt>
      <trkpt lat="36.623448003083467" lon="-5.269173039123416">
        <ele>796.11000000000001</ele>
        <time>2025-05-09T09:40:42Z</time>
      </trkpt>
      <trkpt lat="36.623530983924866" lon="-5.268991990014911">
        <ele>796.59000000000003</ele>
        <time>2025-05-09T09:40:43Z</time>
      </trkpt>
      <trkpt lat="36.623614970594645" lon="-5.268810018897057">
        <ele>797.54999999999995</ele>
        <time>2025-05-09T09:40:44Z</time>
      </trkpt>
      <trkpt lat="36.623698035255075" lon="-5.268630981445313">
        <ele>798.50999999999999</ele>
        <time>2025-05-09T09:40:45Z</time>
      </trkpt>
      <trkpt lat="36.623790990561247" lon="-5.268460996448994">
        <ele>798.99000000000001</ele>
        <time>2025-05-09T09:40:46Z</time>
      </trkpt>
      <trkpt lat="36.624067006632686" lon="-5.26795900426805">
        <ele>801.88</ele>
        <time>2025-05-09T09:40:49Z</time>
      </trkpt>
      <trkpt lat="36.624812996014953" lon="-5.266815964132547">
        <ele>808.13</ele>
        <time>2025-05-09T09:40:55Z</time>
      </trkpt>
      <trkpt lat="36.625433005392551" lon="-5.265836035832763">
        <ele>814.37</ele>
        <time>2025-05-09T09:41:01Z</time>
      </trkpt>
      <trkpt lat="36.626520976424217" lon="-5.263262959197164">
        <ele>811.97000000000003</ele>
        <time>2025-05-09T09:41:14Z</time>
      </trkpt>
      <trkpt lat="36.62667696364224" lon="-5.262872027233243">
        <ele>810.52999999999997</ele>
        <time>2025-05-09T09:41:16Z</time>
      </trkpt>
      <trkpt lat="36.626788023859262" lon="-5.262686032801867">
        <ele>809.57000000000005</ele>
        <time>2025-05-09T09:41:17Z</time>
      </trkpt>
      <trkpt lat="36.626915009692311" lon="-5.262511018663645">
        <ele>809.09000000000003</ele>
        <time>2025-05-09T09:41:18Z</time>
      </trkpt>
      <trkpt lat="36.627059010788798" lon="-5.262353019788861">
        <ele>808.13</ele>
        <time>2025-05-09T09:41:19Z</time>
      </trkpt>
      <trkpt lat="36.627202006056905" lon="-5.262197032570839">
        <ele>807.15999999999997</ele>
        <time>2025-05-09T09:41:20Z</time>
      </trkpt>
      <trkpt lat="36.627467963844538" lon="-5.261861002072692">
        <ele>806.67999999999995</ele>
        <time>2025-05-09T09:41:22Z</time>
      </trkpt>
      <trkpt lat="36.627577012404799" lon="-5.261681964620948">
        <ele>806.67999999999995</ele>
        <time>2025-05-09T09:41:23Z</time>
      </trkpt>
      <trkpt lat="36.627667034044862" lon="-5.26149001903832">
        <ele>807.15999999999997</ele>
        <time>2025-05-09T09:41:24Z</time>
      </trkpt>
      <trkpt lat="36.627739034593105" lon="-5.261284997686744">
        <ele>807.63999999999999</ele>
        <time>2025-05-09T09:41:25Z</time>
      </trkpt>
      <trkpt lat="36.627805000171065" lon="-5.261076958850026">
        <ele>808.13</ele>
        <time>2025-05-09T09:41:26Z</time>
      </trkpt>
      <trkpt lat="36.628712005913258" lon="-5.258886013180018">
        <ele>818.22000000000003</ele>
        <time>2025-05-09T09:41:37Z</time>
      </trkpt>
      <trkpt lat="36.628965977579355" lon="-5.258352002128959">
        <ele>820.62</ele>
        <time>2025-05-09T09:41:40Z</time>
      </trkpt>
      <trkpt lat="36.629011994227767" lon="-5.258163996040821">
        <ele>821.58000000000004</ele>
        <time>2025-05-09T09:41:41Z</time>
      </trkpt>
      <trkpt lat="36.629053987562656" lon="-5.257965009659529">
        <ele>822.54999999999995</ele>
        <time>2025-05-09T09:41:42Z</time>
      </trkpt>
      <trkpt lat="36.629178961738944" lon="-5.257377019152045">
        <ele>825.42999999999995</ele>
        <time>2025-05-09T09:41:45Z</time>
      </trkpt>
      <trkpt lat="36.629262026399374" lon="-5.257240980863571">
        <ele>825.90999999999997</ele>
        <time>2025-05-09T09:41:46Z</time>
      </trkpt>
      <trkpt lat="36.629371996968985" lon="-5.257113995030522">
        <ele>826.38999999999999</ele>
        <time>2025-05-09T09:41:47Z</time>
      </trkpt>
      <trkpt lat="36.62949101999402" lon="-5.256986003369093">
        <ele>826.38999999999999</ele>
        <time>2025-05-09T09:41:48Z</time>
      </trkpt>
      <trkpt lat="36.62964197807014" lon="-5.256882989779115">
        <ele>826.38999999999999</ele>
        <time>2025-05-09T09:41:49Z</time>
      </trkpt>
      <trkpt lat="36.630699019879103" lon="-5.255897026509047">
        <ele>822.54999999999995</ele>
        <time>2025-05-09T09:41:56Z</time>
      </trkpt>
      <trkpt lat="36.631462024524808" lon="-5.254533039405942">
        <ele>815.34000000000003</ele>
        <time>2025-05-09T09:42:03Z</time>
      </trkpt>
      <trkpt lat="36.632350003346801" lon="-5.252999989315867">
        <ele>811.49000000000001</ele>
        <time>2025-05-09T09:42:11Z</time>
      </trkpt>
      <trkpt lat="36.632743030786514" lon="-5.25199600495398">
        <ele>806.67999999999995</ele>
        <time>2025-05-09T09:42:16Z</time>
      </trkpt>
      <trkpt lat="36.632796004414558" lon="-5.251786960288882">
        <ele>805.72000000000003</ele>
        <time>2025-05-09T09:42:17Z</time>
      </trkpt>
      <trkpt lat="36.632813019677997" lon="-5.251562995836139">
        <ele>804.75999999999999</ele>
        <time>2025-05-09T09:42:18Z</time>
      </trkpt>
      <trkpt lat="36.632859958335757" lon="-5.250950027257204">
        <ele>801.88</ele>
        <time>2025-05-09T09:42:21Z</time>
      </trkpt>
      <trkpt lat="36.632912009954453" lon="-5.250766966491938">
        <ele>800.44000000000005</ele>
        <time>2025-05-09T09:42:22Z</time>
      </trkpt>
      <trkpt lat="36.632965989410877" lon="-5.250626988708973">
        <ele>799.47000000000003</ele>
        <time>2025-05-09T09:42:23Z</time>
      </trkpt>
      <trkpt lat="36.633072020485997" lon="-5.250509977340698">
        <ele>798.50999999999999</ele>
        <time>2025-05-09T09:42:24Z</time>
      </trkpt>
      <trkpt lat="36.63318601436913" lon="-5.25038399733603">
        <ele>798.02999999999997</ele>
        <time>2025-05-09T09:42:25Z</time>
      </trkpt>
      <trkpt lat="36.633305959403515" lon="-5.250251982361078">
        <ele>797.07000000000005</ele>
        <time>2025-05-09T09:42:26Z</time>
      </trkpt>
      <trkpt lat="36.633673002943397" lon="-5.249845962971449">
        <ele>794.66999999999996</ele>
        <time>2025-05-09T09:42:29Z</time>
      </trkpt>
      <trkpt lat="36.633779034018517" lon="-5.249700034037232">
        <ele>793.71000000000004</ele>
        <time>2025-05-09T09:42:30Z</time>
      </trkpt>
      <trkpt lat="36.633846005424857" lon="-5.249508004635572">
        <ele>792.74000000000001</ele>
        <time>2025-05-09T09:42:31Z</time>
      </trkpt>
      <trkpt lat="36.633915994316339" lon="-5.249311029911041">
        <ele>791.77999999999997</ele>
        <time>2025-05-09T09:42:32Z</time>
      </trkpt>
      <trkpt lat="36.633987994864583" lon="-5.249107014387846">
        <ele>791.29999999999995</ele>
        <time>2025-05-09T09:42:33Z</time>
      </trkpt>
      <trkpt lat="36.634215982630849" lon="-5.248526986688376">
        <ele>788.89999999999998</ele>
        <time>2025-05-09T09:42:36Z</time>
      </trkpt>
      <trkpt lat="36.634302986785769" lon="-5.248347027227283">
        <ele>788.41999999999996</ele>
        <time>2025-05-09T09:42:37Z</time>
      </trkpt>
      <trkpt lat="36.634422009810805" lon="-5.248195985332131">
        <ele>786.98000000000002</ele>
        <time>2025-05-09T09:42:38Z</time>
      </trkpt>
      <trkpt lat="36.634533992037177" lon="-5.248052990064025">
        <ele>786.01999999999998</ele>
        <time>2025-05-09T09:42:39Z</time>
      </trkpt>
      <trkpt lat="36.634671958163381" lon="-5.247970009222627">
        <ele>785.04999999999995</ele>
        <time>2025-05-09T09:42:40Z</time>
      </trkpt>
      <trkpt lat="36.634809002280235" lon="-5.247908988967538">
        <ele>784.09000000000003</ele>
        <time>2025-05-09T09:42:41Z</time>
      </trkpt>
      <trkpt lat="36.634959960356355" lon="-5.247871018946171">
        <ele>782.64999999999998</ele>
        <time>2025-05-09T09:42:42Z</time>
      </trkpt>
      <trkpt lat="36.635117037221789" lon="-5.247854003682733">
        <ele>781.69000000000005</ele>
        <time>2025-05-09T09:42:43Z</time>
      </trkpt>
      <trkpt lat="36.635281993076205" lon="-5.24784604087472">
        <ele>780.25</ele>
        <time>2025-05-09T09:42:44Z</time>
      </trkpt>
      <trkpt lat="36.635735034942627" lon="-5.247878981754184">
        <ele>776.88</ele>
        <time>2025-05-09T09:42:47Z</time>
      </trkpt>
      <trkpt lat="36.63585196249187" lon="-5.247959028929472">
        <ele>775.91999999999996</ele>
        <time>2025-05-09T09:42:48Z</time>
      </trkpt>
      <trkpt lat="36.635980037972331" lon="-5.248062964528799">
        <ele>775.44000000000005</ele>
        <time>2025-05-09T09:42:49Z</time>
      </trkpt>
      <trkpt lat="36.636111969128251" lon="-5.248175030574203">
        <ele>774.48000000000002</ele>
        <time>2025-05-09T09:42:50Z</time>
      </trkpt>
      <trkpt lat="36.636225963011384" lon="-5.2483219653368">
        <ele>773.51999999999998</ele>
        <time>2025-05-09T09:42:51Z</time>
      </trkpt>
      <trkpt lat="36.637155013158917" lon="-5.249431980773807">
        <ele>765.35000000000002</ele>
        <time>2025-05-09T09:42:59Z</time>
      </trkpt>
      <trkpt lat="36.63729096762836" lon="-5.249510016292334">
        <ele>764.87</ele>
        <time>2025-05-09T09:43:00Z</time>
      </trkpt>
      <trkpt lat="36.637433040887117" lon="-5.249585034325719">
        <ele>764.87</ele>
        <time>2025-05-09T09:43:01Z</time>
      </trkpt>
      <trkpt lat="36.637737974524498" lon="-5.24969500489533">
        <ele>763.41999999999996</ele>
        <time>2025-05-09T09:43:03Z</time>
      </trkpt>
      <trkpt lat="36.638215994462371" lon="-5.249770022928715">
        <ele>761.5</ele>
        <time>2025-05-09T09:43:06Z</time>
      </trkpt>
      <trkpt lat="36.638378016650677" lon="-5.249753007665277">
        <ele>761.01999999999998</ele>
        <time>2025-05-09T09:43:07Z</time>
      </trkpt>
      <trkpt lat="36.638530986383557" lon="-5.249702967703342">
        <ele>760.53999999999996</ele>
        <time>2025-05-09T09:43:08Z</time>
      </trkpt>
      <trkpt lat="36.638685967773199" lon="-5.249644964933395">
        <ele>759.58000000000004</ele>
        <time>2025-05-09T09:43:09Z</time>
      </trkpt>
      <trkpt lat="36.638831980526447" lon="-5.249561984091997">
        <ele>758.62</ele>
        <time>2025-05-09T09:43:10Z</time>
      </trkpt>
      <trkpt lat="36.640051966533065" lon="-5.248657995834947">
        <ele>750.92999999999995</ele>
        <time>2025-05-09T09:43:19Z</time>
      </trkpt>
      <trkpt lat="36.640536021441221" lon="-5.248176036402583">
        <ele>749.49000000000001</ele>
        <time>2025-05-09T09:43:23Z</time>
      </trkpt>
      <trkpt lat="36.640615984797478" lon="-5.248018959537149">
        <ele>749.49000000000001</ele>
        <time>2025-05-09T09:43:24Z</time>
      </trkpt>
      <trkpt lat="36.640689997002482" lon="-5.247850986197591">
        <ele>749.97000000000003</ele>
        <time>2025-05-09T09:43:25Z</time>
      </trkpt>
      <trkpt lat="36.640764009207487" lon="-5.247684018686414">
        <ele>750.45000000000005</ele>
        <time>2025-05-09T09:43:26Z</time>
      </trkpt>
      <trkpt lat="36.640813965350389" lon="-5.247500035911799">
        <ele>750.92999999999995</ele>
        <time>2025-05-09T09:43:27Z</time>
      </trkpt>
      <trkpt lat="36.640841960906982" lon="-5.247301971539855">
        <ele>751.88999999999999</ele>
        <time>2025-05-09T09:43:28Z</time>
      </trkpt>
      <trkpt lat="36.640853025019169" lon="-5.247114971280098">
        <ele>752.85000000000002</ele>
        <time>2025-05-09T09:43:29Z</time>
      </trkpt>
      <trkpt lat="36.640892000868917" lon="-5.246523963287473">
        <ele>755.73000000000002</ele>
        <time>2025-05-09T09:43:32Z</time>
      </trkpt>
      <trkpt lat="36.640935000032187" lon="-5.246337968856096">
        <ele>756.69000000000005</ele>
        <time>2025-05-09T09:43:33Z</time>
      </trkpt>
      <trkpt lat="36.640987973660231" lon="-5.24615197442472">
        <ele>757.65999999999997</ele>
        <time>2025-05-09T09:43:34Z</time>
      </trkpt>
      <trkpt lat="36.641075983643532" lon="-5.245976960286498">
        <ele>758.62</ele>
        <time>2025-05-09T09:43:35Z</time>
      </trkpt>
      <trkpt lat="36.641171034425497" lon="-5.245804041624069">
        <ele>759.58000000000004</ele>
        <time>2025-05-09T09:43:36Z</time>
      </trkpt>
      <trkpt lat="36.641284022480249" lon="-5.245647970587015">
        <ele>760.05999999999995</ele>
        <time>2025-05-09T09:43:37Z</time>
      </trkpt>
      <trkpt lat="36.641398016363382" lon="-5.245488965883851">
        <ele>761.01999999999998</ele>
        <time>2025-05-09T09:43:38Z</time>
      </trkpt>
      <trkpt lat="36.641612006351352" lon="-5.245193000882864">
        <ele>761.98000000000002</ele>
        <time>2025-05-09T09:43:40Z</time>
      </trkpt>
      <trkpt lat="36.641712002456188" lon="-5.245040031149983">
        <ele>762.46000000000004</ele>
        <time>2025-05-09T09:43:41Z</time>
      </trkpt>
      <trkpt lat="36.641776962205768" lon="-5.244859987869859">
        <ele>762.94000000000005</ele>
        <time>2025-05-09T09:43:42Z</time>
      </trkpt>
      <trkpt lat="36.64184401743114" lon="-5.244677010923624">
        <ele>763.41999999999996</ele>
        <time>2025-05-09T09:43:43Z</time>
      </trkpt>
      <trkpt lat="36.641878969967365" lon="-5.24447500705719">
        <ele>763.41999999999996</ele>
        <time>2025-05-09T09:43:44Z</time>
      </trkpt>
      <trkpt lat="36.641890034079552" lon="-5.244265040382743">
        <ele>763.41999999999996</ele>
        <time>2025-05-09T09:43:45Z</time>
      </trkpt>
      <trkpt lat="36.641860026866198" lon="-5.244043003767729">
        <ele>763.41999999999996</ele>
        <time>2025-05-09T09:43:46Z</time>
      </trkpt>
      <trkpt lat="36.641810992732644" lon="-5.243833037093282">
        <ele>762.94000000000005</ele>
        <time>2025-05-09T09:43:47Z</time>
      </trkpt>
      <trkpt lat="36.641761036589742" lon="-5.243619969114661">
        <ele>762.46000000000004</ele>
        <time>2025-05-09T09:43:48Z</time>
      </trkpt>
      <trkpt lat="36.641712002456188" lon="-5.243407990783453">
        <ele>762.46000000000004</ele>
        <time>2025-05-09T09:43:49Z</time>
      </trkpt>
      <trkpt lat="36.641592979431152" lon="-5.242784963920713">
        <ele>761.01999999999998</ele>
        <time>2025-05-09T09:43:52Z</time>
      </trkpt>
      <trkpt lat="36.641572024673223" lon="-5.242581032216549">
        <ele>760.53999999999996</ele>
        <time>2025-05-09T09:43:53Z</time>
      </trkpt>
      <trkpt lat="36.641619969159365" lon="-5.242381040006876">
        <ele>760.53999999999996</ele>
        <time>2025-05-09T09:43:54Z</time>
      </trkpt>
      <trkpt lat="36.641670009121299" lon="-5.242171995341778">
        <ele>760.53999999999996</ele>
        <time>2025-05-09T09:43:55Z</time>
      </trkpt>
      <trkpt lat="36.641720971092582" lon="-5.241964040324092">
        <ele>760.53999999999996</ele>
        <time>2025-05-09T09:43:56Z</time>
      </trkpt>
      <trkpt lat="36.642150040715933" lon="-5.240395031869412">
        <ele>766.78999999999996</ele>
        <time>2025-05-09T09:44:04Z</time>
      </trkpt>
      <trkpt lat="36.642222963273525" lon="-5.240249019116163">
        <ele>767.26999999999998</ele>
        <time>2025-05-09T09:44:05Z</time>
      </trkpt>
      <trkpt lat="36.642336035147309" lon="-5.240147011354566">
        <ele>768.23000000000002</ele>
        <time>2025-05-09T09:44:06Z</time>
      </trkpt>
      <trkpt lat="36.642462015151978" lon="-5.240052966400981">
        <ele>769.19000000000005</ele>
        <time>2025-05-09T09:44:07Z</time>
      </trkpt>
      <trkpt lat="36.642596963793039" lon="-5.239967973902822">
        <ele>769.66999999999996</ele>
        <time>2025-05-09T09:44:08Z</time>
      </trkpt>
      <trkpt lat="36.642728978767991" lon="-5.239890022203326">
        <ele>770.63</ele>
        <time>2025-05-09T09:44:09Z</time>
      </trkpt>
      <trkpt lat="36.642849007621408" lon="-5.239820033311844">
        <ele>772.08000000000004</ele>
        <time>2025-05-09T09:44:10Z</time>
      </trkpt>
      <trkpt lat="36.642928970977664" lon="-5.239725988358259">
        <ele>772.55999999999995</ele>
        <time>2025-05-09T09:44:11Z</time>
      </trkpt>
      <trkpt lat="36.643015975132585" lon="-5.239617023617029">
        <ele>773.51999999999998</ele>
        <time>2025-05-09T09:44:12Z</time>
      </trkpt>
      <trkpt lat="36.643046988174319" lon="-5.23949297145009">
        <ele>774.48000000000002</ele>
        <time>2025-05-09T09:44:13Z</time>
      </trkpt>
      <trkpt lat="36.64307096041739" lon="-5.239342013373971">
        <ele>775.44000000000005</ele>
        <time>2025-05-09T09:44:14Z</time>
      </trkpt>
      <trkpt lat="36.643056040629745" lon="-5.239194994792342">
        <ele>776.39999999999998</ele>
        <time>2025-05-09T09:44:15Z</time>
      </trkpt>
      <trkpt lat="36.643011029809713" lon="-5.239043030887842">
        <ele>777.36000000000001</ele>
        <time>2025-05-09T09:44:16Z</time>
      </trkpt>
      <trkpt lat="36.642957972362638" lon="-5.238876985386014">
        <ele>778.32000000000005</ele>
        <time>2025-05-09T09:44:17Z</time>
      </trkpt>
      <trkpt lat="36.642900975421071" lon="-5.238702977076173">
        <ele>779.28999999999996</ele>
        <time>2025-05-09T09:44:18Z</time>
      </trkpt>
      <trkpt lat="36.642787987366319" lon="-5.238385973498225">
        <ele>781.21000000000004</ele>
        <time>2025-05-09T09:44:20Z</time>
      </trkpt>
      <trkpt lat="36.642594030126929" lon="-5.238013984635472">
        <ele>785.04999999999995</ele>
        <time>2025-05-09T09:44:23Z</time>
      </trkpt>
      <trkpt lat="36.642429996281862" lon="-5.237765964120626">
        <ele>787.94000000000005</ele>
        <time>2025-05-09T09:44:26Z</time>
      </trkpt>
      <trkpt lat="36.642391020432115" lon="-5.237710978835821">
        <ele>788.89999999999998</ele>
        <time>2025-05-09T09:44:27Z</time>
      </trkpt>
      <trkpt lat="36.642343997955322" lon="-5.237646019086242">
        <ele>789.86000000000001</ele>
        <time>2025-05-09T09:44:28Z</time>
      </trkpt>
      <trkpt lat="36.64233704097569" lon="-5.237602014094591">
        <ele>790.82000000000005</ele>
        <time>2025-05-09T09:44:29Z</time>
      </trkpt>
      <trkpt lat="36.642322959378362" lon="-5.237517021596432">
        <ele>791.77999999999997</ele>
        <time>2025-05-09T09:44:30Z</time>
      </trkpt>
      <trkpt lat="36.642326982691884" lon="-5.237469999119639">
        <ele>792.74000000000001</ele>
        <time>2025-05-09T09:44:31Z</time>
      </trkpt>
      <trkpt lat="36.642366964370012" lon="-5.237218961119652">
        <ele>795.63</ele>
        <time>2025-05-09T09:44:35Z</time>
      </trkpt>
      <trkpt lat="36.642399989068508" lon="-5.237156013026834">
        <ele>797.54999999999995</ele>
        <time>2025-05-09T09:44:38Z</time>
      </trkpt>
      <trkpt lat="36.642399989068508" lon="-5.237156013026834">
        <ele>799.47000000000003</ele>
        <time>2025-05-09T09:44:51Z</time>
      </trkpt>
      <trkpt lat="36.642495039850473" lon="-5.236980998888612">
        <ele>799.95000000000005</ele>
        <time>2025-05-09T09:45:06Z</time>
      </trkpt>
      <trkpt lat="36.642495039850473" lon="-5.236980998888612">
        <ele>799.95000000000005</ele>
        <time>2025-05-09T09:45:07Z</time>
      </trkpt>
      <trkpt lat="36.642495039850473" lon="-5.236980998888612">
        <ele>799.95000000000005</ele>
        <time>2025-05-09T09:45:08Z</time>
      </trkpt>
      <trkpt lat="36.642417004331946" lon="-5.237138997763395">
        <ele>794.19000000000005</ele>
        <time>2025-05-09T09:48:23Z</time>
      </trkpt>
      <trkpt lat="36.642417004331946" lon="-5.23708401247859">
        <ele>800.44000000000005</ele>
        <time>2025-05-09T09:49:08Z</time>
      </trkpt>
      <trkpt lat="36.642435025423765" lon="-5.237083006650209">
        <ele>798.02999999999997</ele>
        <time>2025-05-09T09:49:23Z</time>
      </trkpt>
      <trkpt lat="36.642449023202062" lon="-5.237065991386771">
        <ele>798.02999999999997</ele>
        <time>2025-05-09T09:49:25Z</time>
      </trkpt>
      <trkpt lat="36.642464026808739" lon="-5.237037995830178">
        <ele>797.54999999999995</ele>
        <time>2025-05-09T09:49:26Z</time>
      </trkpt>
      <trkpt lat="36.642481964081526" lon="-5.237003965303302">
        <ele>797.07000000000005</ele>
        <time>2025-05-09T09:49:27Z</time>
      </trkpt>
      <trkpt lat="36.642495039850473" lon="-5.236980998888612">
        <ele>796.59000000000003</ele>
        <time>2025-05-09T09:49:28Z</time>
      </trkpt>
      <trkpt lat="36.642495039850473" lon="-5.236980998888612">
        <ele>796.59000000000003</ele>
        <time>2025-05-09T09:49:29Z</time>
      </trkpt>
      <trkpt lat="36.64257500320673" lon="-5.236936993896961">
        <ele>796.59000000000003</ele>
        <time>2025-05-09T09:49:30Z</time>
      </trkpt>
      <trkpt lat="36.642609033733606" lon="-5.236918972805142">
        <ele>796.59000000000003</ele>
        <time>2025-05-09T09:49:31Z</time>
      </trkpt>
      <trkpt lat="36.642637029290199" lon="-5.236903969198465">
        <ele>796.59000000000003</ele>
        <time>2025-05-09T09:49:32Z</time>
      </trkpt>
      <trkpt lat="36.642664019018412" lon="-5.236888965591788">
        <ele>796.59000000000003</ele>
        <time>2025-05-09T09:49:33Z</time>
      </trkpt>
      <trkpt lat="36.642690002918243" lon="-5.236874967813492">
        <ele>796.59000000000003</ele>
        <time>2025-05-09T09:49:34Z</time>
      </trkpt>
      <trkpt lat="36.64272696711123" lon="-5.236854013055563">
        <ele>796.59000000000003</ele>
        <time>2025-05-09T09:49:35Z</time>
      </trkpt>
      <trkpt lat="36.6427699662745" lon="-5.236776983365417">
        <ele>797.07000000000005</ele>
        <time>2025-05-09T09:49:36Z</time>
      </trkpt>
      <trkpt lat="36.64281296543777" lon="-5.236695008352399">
        <ele>797.07000000000005</ele>
        <time>2025-05-09T09:49:37Z</time>
      </trkpt>
      <trkpt lat="36.642866022884846" lon="-5.236594006419182">
        <ele>797.07000000000005</ele>
        <time>2025-05-09T09:49:38Z</time>
      </trkpt>
      <trkpt lat="36.64292000234127" lon="-5.236488981172442">
        <ele>797.54999999999995</ele>
        <time>2025-05-09T09:49:39Z</time>
      </trkpt>
      <trkpt lat="36.64307096041739" lon="-5.236275997012854">
        <ele>799.47000000000003</ele>
        <time>2025-05-09T09:49:41Z</time>
      </trkpt>
      <trkpt lat="36.643171040341258" lon="-5.236176000908017">
        <ele>799.95000000000005</ele>
        <time>2025-05-09T09:49:42Z</time>
      </trkpt>
      <trkpt lat="36.64328402839601" lon="-5.236105006188154">
        <ele>800.91999999999996</ele>
        <time>2025-05-09T09:49:43Z</time>
      </trkpt>
      <trkpt lat="36.643416965380311" lon="-5.236065024510026">
        <ele>801.88</ele>
        <time>2025-05-09T09:49:44Z</time>
      </trkpt>
      <trkpt lat="36.643554009497166" lon="-5.236067958176136">
        <ele>802.84000000000003</ele>
        <time>2025-05-09T09:49:45Z</time>
      </trkpt>
      <trkpt lat="36.643695998936892" lon="-5.236080028116703">
        <ele>804.27999999999997</ele>
        <time>2025-05-09T09:49:46Z</time>
      </trkpt>
      <trkpt lat="36.643838994204998" lon="-5.236092014238238">
        <ele>805.24000000000001</ele>
        <time>2025-05-09T09:49:47Z</time>
      </trkpt>
      <trkpt lat="36.643953993916512" lon="-5.236100982874632">
        <ele>806.20000000000005</ele>
        <time>2025-05-09T09:49:48Z</time>
      </trkpt>
      <trkpt lat="36.644092965871096" lon="-5.236069969832897">
        <ele>807.63999999999999</ele>
        <time>2025-05-09T09:49:49Z</time>
      </trkpt>
      <trkpt lat="36.644195979461074" lon="-5.23600903339684">
        <ele>809.09000000000003</ele>
        <time>2025-05-09T09:49:50Z</time>
      </trkpt>
      <trkpt lat="36.644296981394291" lon="-5.235908031463623">
        <ele>810.04999999999995</ele>
        <time>2025-05-09T09:49:51Z</time>
      </trkpt>
      <trkpt lat="36.644350960850716" lon="-5.235792025923729">
        <ele>811.49000000000001</ele>
        <time>2025-05-09T09:49:52Z</time>
      </trkpt>
      <trkpt lat="36.644418016076088" lon="-5.235647018998861">
        <ele>812.45000000000005</ele>
        <time>2025-05-09T09:49:53Z</time>
      </trkpt>
      <trkpt lat="36.64448800496757" lon="-5.235493965446949">
        <ele>813.88999999999999</ele>
        <time>2025-05-09T09:49:54Z</time>
      </trkpt>
      <trkpt lat="36.644554976373911" lon="-5.235349964350462">
        <ele>814.85000000000002</ele>
        <time>2025-05-09T09:49:55Z</time>
      </trkpt>
      <trkpt lat="36.644647009670734" lon="-5.235219039022923">
        <ele>815.82000000000005</ele>
        <time>2025-05-09T09:49:56Z</time>
      </trkpt>
      <trkpt lat="36.644741976633668" lon="-5.235117031261325">
        <ele>817.25999999999999</ele>
        <time>2025-05-09T09:49:57Z</time>
      </trkpt>
      <trkpt lat="36.644876003265381" lon="-5.235049976035953">
        <ele>818.22000000000003</ele>
        <time>2025-05-09T09:49:58Z</time>
      </trkpt>
      <trkpt lat="36.64500298909843" lon="-5.235030027106404">
        <ele>819.65999999999997</ele>
        <time>2025-05-09T09:49:59Z</time>
      </trkpt>
      <trkpt lat="36.645144978538156" lon="-5.235006976872683">
        <ele>820.62</ele>
        <time>2025-05-09T09:50:00Z</time>
      </trkpt>
      <trkpt lat="36.645413031801581" lon="-5.234963977709413">
        <ele>822.54999999999995</ele>
        <time>2025-05-09T09:50:02Z</time>
      </trkpt>
      <trkpt lat="36.645552003756166" lon="-5.234894994646311">
        <ele>823.50999999999999</ele>
        <time>2025-05-09T09:50:03Z</time>
      </trkpt>
      <trkpt lat="36.645631967112422" lon="-5.234796004369855">
        <ele>823.99000000000001</ele>
        <time>2025-05-09T09:50:04Z</time>
      </trkpt>
      <trkpt lat="36.645703967660666" lon="-5.234669018536806">
        <ele>824.95000000000005</ele>
        <time>2025-05-09T09:50:05Z</time>
      </trkpt>
      <trkpt lat="36.645756019279361" lon="-5.234537003561854">
        <ele>825.42999999999995</ele>
        <time>2025-05-09T09:50:06Z</time>
      </trkpt>
      <trkpt lat="36.645756019279361" lon="-5.234366012737155">
        <ele>826.38999999999999</ele>
        <time>2025-05-09T09:50:07Z</time>
      </trkpt>
      <trkpt lat="36.645756019279361" lon="-5.234177000820637">
        <ele>826.87</ele>
        <time>2025-05-09T09:50:08Z</time>
      </trkpt>
      <trkpt lat="36.645756019279361" lon="-5.233972985297442">
        <ele>827.35000000000002</ele>
        <time>2025-05-09T09:50:09Z</time>
      </trkpt>
      <trkpt lat="36.645717965438962" lon="-5.233527990058065">
        <ele>829.26999999999998</ele>
        <time>2025-05-09T09:50:11Z</time>
      </trkpt>
      <trkpt lat="36.645743027329445" lon="-5.233319029211998">
        <ele>830.24000000000001</ele>
        <time>2025-05-09T09:50:12Z</time>
      </trkpt>
      <trkpt lat="36.645785020664334" lon="-5.233128005638719">
        <ele>831.20000000000005</ele>
        <time>2025-05-09T09:50:13Z</time>
      </trkpt>
      <trkpt lat="36.645848974585533" lon="-5.232957014814019">
        <ele>832.15999999999997</ele>
        <time>2025-05-09T09:50:14Z</time>
      </trkpt>
      <trkpt lat="36.645934972912073" lon="-5.232811002060771">
        <ele>833.60000000000002</ele>
        <time>2025-05-09T09:50:15Z</time>
      </trkpt>
      <trkpt lat="36.646048966795206" lon="-5.232697008177638">
        <ele>835.03999999999996</ele>
        <time>2025-05-09T09:50:16Z</time>
      </trkpt>
      <trkpt lat="36.646191040053964" lon="-5.232627019286156">
        <ele>836.48000000000002</ele>
        <time>2025-05-09T09:50:17Z</time>
      </trkpt>
      <trkpt lat="36.646343003958464" lon="-5.232559964060783">
        <ele>837.92999999999995</ele>
        <time>2025-05-09T09:50:18Z</time>
      </trkpt>
      <trkpt lat="36.64650795981288" lon="-5.232553007081151">
        <ele>839.37</ele>
        <time>2025-05-09T09:50:19Z</time>
      </trkpt>
      <trkpt lat="36.64667802862823" lon="-5.232544960454106">
        <ele>840.80999999999995</ele>
        <time>2025-05-09T09:50:20Z</time>
      </trkpt>
      <trkpt lat="36.64685002528131" lon="-5.232549989596009">
        <ele>841.76999999999998</ele>
        <time>2025-05-09T09:50:21Z</time>
      </trkpt>
      <trkpt lat="36.647024033591151" lon="-5.232578990980983">
        <ele>843.21000000000004</ele>
        <time>2025-05-09T09:50:22Z</time>
      </trkpt>
      <trkpt lat="36.647202987223864" lon="-5.23261503316462">
        <ele>844.65999999999997</ele>
        <time>2025-05-09T09:50:23Z</time>
      </trkpt>
      <trkpt lat="36.647376995533705" lon="-5.232682004570961">
        <ele>846.10000000000002</ele>
        <time>2025-05-09T09:50:24Z</time>
      </trkpt>
      <trkpt lat="36.647548992186785" lon="-5.232760040089488">
        <ele>847.53999999999996</ele>
        <time>2025-05-09T09:50:25Z</time>
      </trkpt>
      <trkpt lat="36.648766966536641" lon="-5.233437968418002">
        <ele>860.03999999999996</ele>
        <time>2025-05-09T09:50:33Z</time>
      </trkpt>
      <trkpt lat="36.648932006210089" lon="-5.233548022806644">
        <ele>861</ele>
        <time>2025-05-09T09:50:34Z</time>
      </trkpt>
      <trkpt lat="36.649061003699899" lon="-5.233654975891113">
        <ele>862.44000000000005</ele>
        <time>2025-05-09T09:50:35Z</time>
      </trkpt>
      <trkpt lat="36.649145996198058" lon="-5.233796965330839">
        <ele>863.39999999999998</ele>
        <time>2025-05-09T09:50:36Z</time>
      </trkpt>
      <trkpt lat="36.64923601783812" lon="-5.233971979469061">
        <ele>864.84000000000003</ele>
        <time>2025-05-09T09:50:37Z</time>
      </trkpt>
      <trkpt lat="36.649320004507899" lon="-5.234159985557199">
        <ele>866.28999999999996</ele>
        <time>2025-05-09T09:50:38Z</time>
      </trkpt>
      <trkpt lat="36.649401979520917" lon="-5.234352014958859">
        <ele>867.73000000000002</ele>
        <time>2025-05-09T09:50:39Z</time>
      </trkpt>
      <trkpt lat="36.649474985897541" lon="-5.234556030482054">
        <ele>869.16999999999996</ele>
        <time>2025-05-09T09:50:40Z</time>
      </trkpt>
      <trkpt lat="36.650127014145255" lon="-5.235971985384822">
        <ele>879.25999999999999</ele>
        <time>2025-05-09T09:50:47Z</time>
      </trkpt>
      <trkpt lat="36.65159996598959" lon="-5.238472977653146">
        <ele>901.37</ele>
        <time>2025-05-09T09:51:00Z</time>
      </trkpt>
      <trkpt lat="36.651819990947843" lon="-5.238776989281178">
        <ele>904.74000000000001</ele>
        <time>2025-05-09T09:51:02Z</time>
      </trkpt>
      <trkpt lat="36.651912024244666" lon="-5.238935993984342">
        <ele>906.17999999999995</ele>
        <time>2025-05-09T09:51:03Z</time>
      </trkpt>
      <trkpt lat="36.6519879642874" lon="-5.23910203948617">
        <ele>908.10000000000002</ele>
        <time>2025-05-09T09:51:04Z</time>
      </trkpt>
      <trkpt lat="36.652301028370857" lon="-5.23972800001502">
        <ele>914.35000000000002</ele>
        <time>2025-05-09T09:51:08Z</time>
      </trkpt>
      <trkpt lat="36.652380991727114" lon="-5.239847023040056">
        <ele>915.30999999999995</ele>
        <time>2025-05-09T09:51:09Z</time>
      </trkpt>
      <trkpt lat="36.652498003095388" lon="-5.239906031638384">
        <ele>916.75</ele>
        <time>2025-05-09T09:51:10Z</time>
      </trkpt>
      <trkpt lat="36.652619037777185" lon="-5.239936038851738">
        <ele>917.72000000000003</ele>
        <time>2025-05-09T09:51:11Z</time>
      </trkpt>
      <trkpt lat="36.652755998075008" lon="-5.239916006103158">
        <ele>919.15999999999997</ele>
        <time>2025-05-09T09:51:12Z</time>
      </trkpt>
      <trkpt lat="36.652906034141779" lon="-5.239893039688468">
        <ele>920.12</ele>
        <time>2025-05-09T09:51:13Z</time>
      </trkpt>
      <trkpt lat="36.653065960854292" lon="-5.239868983626366">
        <ele>921.08000000000004</ele>
        <time>2025-05-09T09:51:14Z</time>
      </trkpt>
      <trkpt lat="36.65323200635612" lon="-5.239842999726534">
        <ele>922.51999999999998</ele>
        <time>2025-05-09T09:51:15Z</time>
      </trkpt>
      <trkpt lat="36.653931979089975" lon="-5.23985599167645">
        <ele>927.33000000000004</ele>
        <time>2025-05-09T09:51:19Z</time>
      </trkpt>
      <trkpt lat="36.654107999056578" lon="-5.239937966689467">
        <ele>928.76999999999998</ele>
        <time>2025-05-09T09:51:20Z</time>
      </trkpt>
      <trkpt lat="36.654273038730025" lon="-5.240013990551233">
        <ele>930.21000000000004</ele>
        <time>2025-05-09T09:51:21Z</time>
      </trkpt>
      <trkpt lat="36.654573027044535" lon="-5.24013502523303">
        <ele>932.62</ele>
        <time>2025-05-09T09:51:23Z</time>
      </trkpt>
      <trkpt lat="36.654710993170738" lon="-5.240139970555902">
        <ele>933.58000000000004</ele>
        <time>2025-05-09T09:51:24Z</time>
      </trkpt>
      <trkpt lat="36.654853988438845" lon="-5.24009202606976">
        <ele>934.53999999999996</ele>
        <time>2025-05-09T09:51:25Z</time>
      </trkpt>
      <trkpt lat="36.654962031170726" lon="-5.240012984722853">
        <ele>935.5</ele>
        <time>2025-05-09T09:51:26Z</time>
      </trkpt>
      <trkpt lat="36.655092034488916" lon="-5.239918017759919">
        <ele>936.46000000000004</ele>
        <time>2025-05-09T09:51:27Z</time>
      </trkpt>
      <trkpt lat="36.655500987544656" lon="-5.239620041102171">
        <ele>939.83000000000004</ele>
        <time>2025-05-09T09:51:30Z</time>
      </trkpt>
      <trkpt lat="36.655644988641143" lon="-5.239588022232056">
        <ele>940.78999999999996</ele>
        <time>2025-05-09T09:51:31Z</time>
      </trkpt>
      <trkpt lat="36.655797036364675" lon="-5.239587016403675">
        <ele>941.75</ele>
        <time>2025-05-09T09:51:32Z</time>
      </trkpt>
      <trkpt lat="36.655956041067839" lon="-5.239605037495494">
        <ele>942.71000000000004</ele>
        <time>2025-05-09T09:51:33Z</time>
      </trkpt>
      <trkpt lat="36.656114961951971" lon="-5.2396409958601">
        <ele>944.14999999999998</ele>
        <time>2025-05-09T09:51:34Z</time>
      </trkpt>
      <trkpt lat="36.656416039913893" lon="-5.239649964496493">
        <ele>946.07000000000005</ele>
        <time>2025-05-09T09:51:36Z</time>
      </trkpt>
      <trkpt lat="36.656535984948277" lon="-5.239596990868449">
        <ele>947.03999999999996</ele>
        <time>2025-05-09T09:51:37Z</time>
      </trkpt>
      <trkpt lat="36.656643021851778" lon="-5.239514010027051">
        <ele>948.48000000000002</ele>
        <time>2025-05-09T09:51:38Z</time>
      </trkpt>
      <trkpt lat="36.656720973551273" lon="-5.239410996437073">
        <ele>949.44000000000005</ele>
        <time>2025-05-09T09:51:39Z</time>
      </trkpt>
      <trkpt lat="36.656776964664459" lon="-5.239259032532573">
        <ele>950.39999999999998</ele>
        <time>2025-05-09T09:51:40Z</time>
      </trkpt>
      <trkpt lat="36.656804960221052" lon="-5.239090975373983">
        <ele>951.36000000000001</ele>
        <time>2025-05-09T09:51:41Z</time>
      </trkpt>
      <trkpt lat="36.656830022111535" lon="-5.238898023962975">
        <ele>952.32000000000005</ele>
        <time>2025-05-09T09:51:42Z</time>
      </trkpt>
      <trkpt lat="36.656857011839747" lon="-5.238694008439779">
        <ele>953.27999999999997</ele>
        <time>2025-05-09T09:51:43Z</time>
      </trkpt>
      <trkpt lat="36.65703403763473" lon="-5.237851962447166">
        <ele>958.57000000000005</ele>
        <time>2025-05-09T09:51:47Z</time>
      </trkpt>
      <trkpt lat="36.657093968242407" lon="-5.237648030743003">
        <ele>960.00999999999999</ele>
        <time>2025-05-09T09:51:48Z</time>
      </trkpt>
      <trkpt lat="36.657193964347243" lon="-5.237467987462878">
        <ele>961.46000000000004</ele>
        <time>2025-05-09T09:51:49Z</time>
      </trkpt>
      <trkpt lat="36.657307958230376" lon="-5.237294984981418">
        <ele>962.89999999999998</ele>
        <time>2025-05-09T09:51:50Z</time>
      </trkpt>
      <trkpt lat="36.657446008175611" lon="-5.237157018855214">
        <ele>964.34000000000003</ele>
        <time>2025-05-09T09:51:51Z</time>
      </trkpt>
      <trkpt lat="36.657599983736873" lon="-5.237052999436855">
        <ele>965.29999999999995</ele>
        <time>2025-05-09T09:51:52Z</time>
      </trkpt>
      <trkpt lat="36.657749013975263" lon="-5.236961971968412">
        <ele>966.25999999999999</ele>
        <time>2025-05-09T09:51:53Z</time>
      </trkpt>
      <trkpt lat="36.657891003414989" lon="-5.236873961985111">
        <ele>967.22000000000003</ele>
        <time>2025-05-09T09:51:54Z</time>
      </trkpt>
      <trkpt lat="36.658271038904786" lon="-5.236565005034208">
        <ele>969.63</ele>
        <time>2025-05-09T09:51:57Z</time>
      </trkpt>
      <trkpt lat="36.658380003646016" lon="-5.236436007544398">
        <ele>970.11000000000001</ele>
        <time>2025-05-09T09:51:58Z</time>
      </trkpt>
      <trkpt lat="36.658487962558866" lon="-5.236302986741066">
        <ele>970.59000000000003</ele>
        <time>2025-05-09T09:51:59Z</time>
      </trkpt>
      <trkpt lat="36.659251973032951" lon="-5.234962971881032">
        <ele>968.66999999999996</ele>
        <time>2025-05-09T09:52:08Z</time>
      </trkpt>
      <trkpt lat="36.659347023814917" lon="-5.23484998382628">
        <ele>968.66999999999996</ele>
        <time>2025-05-09T09:52:09Z</time>
      </trkpt>
      <trkpt lat="36.659460011869669" lon="-5.234748981893063">
        <ele>968.17999999999995</ele>
        <time>2025-05-09T09:52:10Z</time>
      </trkpt>
      <trkpt lat="36.659588003531098" lon="-5.234662983566523">
        <ele>968.17999999999995</ele>
        <time>2025-05-09T09:52:11Z</time>
      </trkpt>
      <trkpt lat="36.659727981314063" lon="-5.234606992453337">
        <ele>968.17999999999995</ele>
        <time>2025-05-09T09:52:12Z</time>
      </trkpt>
      <trkpt lat="36.659877011552453" lon="-5.234585031867027">
        <ele>968.17999999999995</ele>
        <time>2025-05-09T09:52:13Z</time>
      </trkpt>
      <trkpt lat="36.660032998770475" lon="-5.234567010775209">
        <ele>968.17999999999995</ele>
        <time>2025-05-09T09:52:14Z</time>
      </trkpt>
      <trkpt lat="36.660189991816878" lon="-5.23454999551177">
        <ele>967.70000000000005</ele>
        <time>2025-05-09T09:52:15Z</time>
      </trkpt>
      <trkpt lat="36.660670023411512" lon="-5.234497021883726">
        <ele>966.74000000000001</ele>
        <time>2025-05-09T09:52:18Z</time>
      </trkpt>
      <trkpt lat="36.660835985094309" lon="-5.234477994963527">
        <ele>965.77999999999997</ele>
        <time>2025-05-09T09:52:19Z</time>
      </trkpt>
      <trkpt lat="36.661002030596137" lon="-5.234412029385567">
        <ele>965.29999999999995</ele>
        <time>2025-05-09T09:52:20Z</time>
      </trkpt>
      <trkpt lat="36.661162041127682" lon="-5.234316978603602">
        <ele>964.34000000000003</ele>
        <time>2025-05-09T09:52:21Z</time>
      </trkpt>
      <trkpt lat="36.661322973668575" lon="-5.234219999983907">
        <ele>963.86000000000001</ele>
        <time>2025-05-09T09:52:22Z</time>
      </trkpt>
      <trkpt lat="36.661479966714978" lon="-5.234116986393929">
        <ele>963.38</ele>
        <time>2025-05-09T09:52:23Z</time>
      </trkpt>
      <trkpt lat="36.662150016054511" lon="-5.233568977564573">
        <ele>960.98000000000002</ele>
        <time>2025-05-09T09:52:28Z</time>
      </trkpt>
      <trkpt lat="36.662241965532303" lon="-5.233406033366919">
        <ele>960.49000000000001</ele>
        <time>2025-05-09T09:52:29Z</time>
      </trkpt>
      <trkpt lat="36.662332993000746" lon="-5.233243005350232">
        <ele>960.00999999999999</ele>
        <time>2025-05-09T09:52:30Z</time>
      </trkpt>
      <trkpt lat="36.663092980161309" lon="-5.232022013515234">
        <ele>955.21000000000004</ele>
        <time>2025-05-09T09:52:38Z</time>
      </trkpt>
      <trkpt lat="36.66328601539135" lon="-5.231701992452145">
        <ele>953.27999999999997</ele>
        <time>2025-05-09T09:52:40Z</time>
      </trkpt>
      <trkpt lat="36.663344018161297" lon="-5.231518009677529">
        <ele>952.32000000000005</ele>
        <time>2025-05-09T09:52:41Z</time>
      </trkpt>
      <trkpt lat="36.663402020931244" lon="-5.231334026902914">
        <ele>951.36000000000001</ele>
        <time>2025-05-09T09:52:42Z</time>
      </trkpt>
      <trkpt lat="36.663733022287488" lon="-5.230376981198788">
        <ele>946.55999999999995</ele>
        <time>2025-05-09T09:52:47Z</time>
      </trkpt>
      <trkpt lat="36.66382597759366" lon="-5.230216970667243">
        <ele>945.59000000000003</ele>
        <time>2025-05-09T09:52:48Z</time>
      </trkpt>
      <trkpt lat="36.663947012275457" lon="-5.230088979005814">
        <ele>945.11000000000001</ele>
        <time>2025-05-09T09:52:49Z</time>
      </trkpt>
      <trkpt lat="36.664072992280126" lon="-5.229955958202481">
        <ele>944.14999999999998</ele>
        <time>2025-05-09T09:52:50Z</time>
      </trkpt>
      <trkpt lat="36.664219005033374" lon="-5.229820003733039">
        <ele>942.71000000000004</ele>
        <time>2025-05-09T09:52:51Z</time>
      </trkpt>
      <trkpt lat="36.664400976151228" lon="-5.229690000414848">
        <ele>941.26999999999998</ele>
        <time>2025-05-09T09:52:52Z</time>
      </trkpt>
      <trkpt lat="36.665678964927793" lon="-5.228699008002877">
        <ele>933.58000000000004</ele>
        <time>2025-05-09T09:52:58Z</time>
      </trkpt>
      <trkpt lat="36.666675992310047" lon="-5.227735005319119">
        <ele>923.96000000000004</ele>
        <time>2025-05-09T09:53:04Z</time>
      </trkpt>
      <trkpt lat="36.667360039427876" lon="-5.226930007338524">
        <ele>916.75</ele>
        <time>2025-05-09T09:53:09Z</time>
      </trkpt>
      <trkpt lat="36.667464980855584" lon="-5.226738983765245">
        <ele>916.26999999999998</ele>
        <time>2025-05-09T09:53:10Z</time>
      </trkpt>
      <trkpt lat="36.667578974738717" lon="-5.226531028747559">
        <ele>915.30999999999995</ele>
        <time>2025-05-09T09:53:11Z</time>
      </trkpt>
      <trkpt lat="36.667643012478948" lon="-5.226357020437717">
        <ele>914.35000000000002</ele>
        <time>2025-05-09T09:53:12Z</time>
      </trkpt>
      <trkpt lat="36.667711995542049" lon="-5.22617002017796">
        <ele>913.87</ele>
        <time>2025-05-09T09:53:13Z</time>
      </trkpt>
      <trkpt lat="36.668222034350038" lon="-5.224856995046139">
        <ele>910.50999999999999</ele>
        <time>2025-05-09T09:53:20Z</time>
      </trkpt>
      <trkpt lat="36.668317001312971" lon="-5.224710982292891">
        <ele>910.50999999999999</ele>
        <time>2025-05-09T09:53:21Z</time>
      </trkpt>
      <trkpt lat="36.669139014557004" lon="-5.223410027101636">
        <ele>911.95000000000005</ele>
        <time>2025-05-09T09:53:29Z</time>
      </trkpt>
      <trkpt lat="36.669187964871526" lon="-5.223237024620175">
        <ele>911.95000000000005</ele>
        <time>2025-05-09T09:53:30Z</time>
      </trkpt>
      <trkpt lat="36.66921797208488" lon="-5.223071984946728">
        <ele>912.42999999999995</ele>
        <time>2025-05-09T09:53:31Z</time>
      </trkpt>
      <trkpt lat="36.669267006218433" lon="-5.222588013857603">
        <ele>913.87</ele>
        <time>2025-05-09T09:53:34Z</time>
      </trkpt>
      <trkpt lat="36.669307993724942" lon="-5.22243001498282">
        <ele>914.83000000000004</ele>
        <time>2025-05-09T09:53:35Z</time>
      </trkpt>
      <trkpt lat="36.669363984838128" lon="-5.222282996401191">
        <ele>915.78999999999996</ele>
        <time>2025-05-09T09:53:36Z</time>
      </trkpt>
      <trkpt lat="36.669455012306571" lon="-5.222157016396523">
        <ele>916.75</ele>
        <time>2025-05-09T09:53:37Z</time>
      </trkpt>
      <trkpt lat="36.669551990926266" lon="-5.22204696200788">
        <ele>917.72000000000003</ele>
        <time>2025-05-09T09:53:38Z</time>
      </trkpt>
      <trkpt lat="36.669675959274173" lon="-5.221982002258301">
        <ele>918.67999999999995</ele>
        <time>2025-05-09T09:53:39Z</time>
      </trkpt>
      <trkpt lat="36.669799005612731" lon="-5.221918970346451">
        <ele>920.12</ele>
        <time>2025-05-09T09:53:40Z</time>
      </trkpt>
      <trkpt lat="36.669924985617399" lon="-5.221854010596871">
        <ele>921.08000000000004</ele>
        <time>2025-05-09T09:53:41Z</time>
      </trkpt>
      <trkpt lat="36.670053983107209" lon="-5.221787039190531">
        <ele>922.03999999999996</ele>
        <time>2025-05-09T09:53:42Z</time>
      </trkpt>
      <trkpt lat="36.670175017789006" lon="-5.221725013107061">
        <ele>923</ele>
        <time>2025-05-09T09:53:43Z</time>
      </trkpt>
      <trkpt lat="36.670276019722223" lon="-5.221614958718419">
        <ele>923.96000000000004</ele>
        <time>2025-05-09T09:53:44Z</time>
      </trkpt>
      <trkpt lat="36.670375009998679" lon="-5.22150800563395">
        <ele>924.92999999999995</ele>
        <time>2025-05-09T09:53:45Z</time>
      </trkpt>
      <trkpt lat="36.670451033860445" lon="-5.221390994265676">
        <ele>925.88999999999999</ele>
        <time>2025-05-09T09:53:46Z</time>
      </trkpt>
      <trkpt lat="36.670503001660109" lon="-5.221238024532795">
        <ele>926.85000000000002</ele>
        <time>2025-05-09T09:53:47Z</time>
      </trkpt>
      <trkpt lat="36.670555975288153" lon="-5.221083965152502">
        <ele>927.80999999999995</ele>
        <time>2025-05-09T09:53:48Z</time>
      </trkpt>
      <trkpt lat="36.670610038563609" lon="-5.22092797793448">
        <ele>928.76999999999998</ele>
        <time>2025-05-09T09:53:49Z</time>
      </trkpt>
      <trkpt lat="36.670996025204659" lon="-5.219805976375938">
        <ele>937.41999999999996</ele>
        <time>2025-05-09T09:53:56Z</time>
      </trkpt>
      <trkpt lat="36.671067019924521" lon="-5.219687037169933">
        <ele>938.38</ele>
        <time>2025-05-09T09:53:57Z</time>
      </trkpt>
      <trkpt lat="36.671147989109159" lon="-5.219578994438052">
        <ele>938.86000000000001</ele>
        <time>2025-05-09T09:53:58Z</time>
      </trkpt>
      <trkpt lat="36.671249996870756" lon="-5.219502970576286">
        <ele>939.35000000000002</ele>
        <time>2025-05-09T09:53:59Z</time>
      </trkpt>
      <trkpt lat="36.671357033774257" lon="-5.219422001391649">
        <ele>939.83000000000004</ele>
        <time>2025-05-09T09:54:00Z</time>
      </trkpt>
      <trkpt lat="36.671476978808641" lon="-5.219367016106844">
        <ele>940.30999999999995</ele>
        <time>2025-05-09T09:54:01Z</time>
      </trkpt>
      <trkpt lat="36.67160396464169" lon="-5.219315970316529">
        <ele>940.78999999999996</ele>
        <time>2025-05-09T09:54:02Z</time>
      </trkpt>
      <trkpt lat="36.67173002846539" lon="-5.219266014173627">
        <ele>940.78999999999996</ele>
        <time>2025-05-09T09:54:03Z</time>
      </trkpt>
      <trkpt lat="36.67263200506568" lon="-5.218958985060453">
        <ele>945.11000000000001</ele>
        <time>2025-05-09T09:54:10Z</time>
      </trkpt>
      <trkpt lat="36.672739963978529" lon="-5.218944987282157">
        <ele>945.59000000000003</ele>
        <time>2025-05-09T09:54:11Z</time>
      </trkpt>
      <trkpt lat="36.672844989225268" lon="-5.218976000323892">
        <ele>946.07000000000005</ele>
        <time>2025-05-09T09:54:12Z</time>
      </trkpt>
      <trkpt lat="36.672946996986866" lon="-5.219014976173639">
        <ele>947.03999999999996</ele>
        <time>2025-05-09T09:54:13Z</time>
      </trkpt>
      <trkpt lat="36.673040958121419" lon="-5.219072978943586">
        <ele>947.51999999999998</ele>
        <time>2025-05-09T09:54:14Z</time>
      </trkpt>
      <trkpt lat="36.673137014731765" lon="-5.219130981713533">
        <ele>948</ele>
        <time>2025-05-09T09:54:15Z</time>
      </trkpt>
      <trkpt lat="36.673232987523079" lon="-5.219189990311861">
        <ele>948.48000000000002</ele>
        <time>2025-05-09T09:54:16Z</time>
      </trkpt>
      <trkpt lat="36.673332983627915" lon="-5.219232989475131">
        <ele>949.44000000000005</ele>
        <time>2025-05-09T09:54:17Z</time>
      </trkpt>
      <trkpt lat="36.673438008874655" lon="-5.219224020838738">
        <ele>949.91999999999996</ele>
        <time>2025-05-09T09:54:18Z</time>
      </trkpt>
      <trkpt lat="36.673543034121394" lon="-5.219213962554932">
        <ele>950.39999999999998</ele>
        <time>2025-05-09T09:54:19Z</time>
      </trkpt>
      <trkpt lat="36.673632971942425" lon="-5.219158977270126">
        <ele>950.88</ele>
        <time>2025-05-09T09:54:20Z</time>
      </trkpt>
      <trkpt lat="36.673726011067629" lon="-5.219099968671799">
        <ele>951.36000000000001</ele>
        <time>2025-05-09T09:54:21Z</time>
      </trkpt>
      <trkpt lat="36.673819972202182" lon="-5.219041965901852">
        <ele>951.84000000000003</ele>
        <time>2025-05-09T09:54:22Z</time>
      </trkpt>
      <trkpt lat="36.673903036862612" lon="-5.21897298283875">
        <ele>951.84000000000003</ele>
        <time>2025-05-09T09:54:23Z</time>
      </trkpt>
      <trkpt lat="36.673964979127049" lon="-5.218866029754281">
        <ele>952.32000000000005</ele>
        <time>2025-05-09T09:54:24Z</time>
      </trkpt>
      <trkpt lat="36.674030022695661" lon="-5.218753041699529">
        <ele>952.79999999999995</ele>
        <time>2025-05-09T09:54:25Z</time>
      </trkpt>
      <trkpt lat="36.674097999930382" lon="-5.218635024502873">
        <ele>953.27999999999997</ele>
        <time>2025-05-09T09:54:26Z</time>
      </trkpt>
      <trkpt lat="36.674138987436891" lon="-5.218507032841444">
        <ele>953.27999999999997</ele>
        <time>2025-05-09T09:54:27Z</time>
      </trkpt>
      <trkpt lat="36.674165977165103" lon="-5.218355990946293">
        <ele>953.27999999999997</ele>
        <time>2025-05-09T09:54:28Z</time>
      </trkpt>
      <trkpt lat="36.674150973558426" lon="-5.218216013163328">
        <ele>953.76999999999998</ele>
        <time>2025-05-09T09:54:29Z</time>
      </trkpt>
      <trkpt lat="36.674135969951749" lon="-5.218066982924938">
        <ele>953.76999999999998</ele>
        <time>2025-05-09T09:54:30Z</time>
      </trkpt>
      <trkpt lat="36.674120966345072" lon="-5.21792097017169">
        <ele>953.76999999999998</ele>
        <time>2025-05-09T09:54:31Z</time>
      </trkpt>
      <trkpt lat="36.674107974395156" lon="-5.21776900626719">
        <ele>954.25</ele>
        <time>2025-05-09T09:54:32Z</time>
      </trkpt>
      <trkpt lat="36.67409498244524" lon="-5.217608995735645">
        <ele>954.25</ele>
        <time>2025-05-09T09:54:33Z</time>
      </trkpt>
      <trkpt lat="36.674080984666944" lon="-5.217446973547339">
        <ele>954.73000000000002</ele>
        <time>2025-05-09T09:54:34Z</time>
      </trkpt>
      <trkpt lat="36.674111997708678" lon="-5.217288974672556">
        <ele>954.73000000000002</ele>
        <time>2025-05-09T09:54:35Z</time>
      </trkpt>
      <trkpt lat="36.674148039892316" lon="-5.217130975797772">
        <ele>954.73000000000002</ele>
        <time>2025-05-09T09:54:36Z</time>
      </trkpt>
      <trkpt lat="36.674212999641895" lon="-5.216988986358047">
        <ele>955.21000000000004</ele>
        <time>2025-05-09T09:54:37Z</time>
      </trkpt>
      <trkpt lat="36.674306960776448" lon="-5.216869963333011">
        <ele>955.21000000000004</ele>
        <time>2025-05-09T09:54:38Z</time>
      </trkpt>
      <trkpt lat="36.674403017386794" lon="-5.216749012470245">
        <ele>955.69000000000005</ele>
        <time>2025-05-09T09:54:39Z</time>
      </trkpt>
      <trkpt lat="36.675113970413804" lon="-5.21596304140985">
        <ele>960.49000000000001</ele>
        <time>2025-05-09T09:54:46Z</time>
      </trkpt>
      <trkpt lat="36.675231987610459" lon="-5.215860027819872">
        <ele>961.46000000000004</ele>
        <time>2025-05-09T09:54:47Z</time>
      </trkpt>
      <trkpt lat="36.676464965566993" lon="-5.215084031224251">
        <ele>971.07000000000005</ele>
        <time>2025-05-09T09:54:56Z</time>
      </trkpt>
      <trkpt lat="36.677686041221023" lon="-5.213974015787244">
        <ele>982.60000000000002</ele>
        <time>2025-05-09T09:55:06Z</time>
      </trkpt>
      <trkpt lat="36.67817504145205" lon="-5.21338895894587">
        <ele>987.40999999999997</ele>
        <time>2025-05-09T09:55:11Z</time>
      </trkpt>
      <trkpt lat="36.678424989804626" lon="-5.213043037801981">
        <ele>990.77999999999997</ele>
        <time>2025-05-09T09:55:14Z</time>
      </trkpt>
      <trkpt lat="36.678517023101449" lon="-5.212946981191635">
        <ele>991.74000000000001</ele>
        <time>2025-05-09T09:55:15Z</time>
      </trkpt>
      <trkpt lat="36.678787004202604" lon="-5.212666019797325">
        <ele>994.13999999999999</ele>
        <time>2025-05-09T09:55:18Z</time>
      </trkpt>
      <trkpt lat="36.678887000307441" lon="-5.212562000378966">
        <ele>995.58000000000004</ele>
        <time>2025-05-09T09:55:19Z</time>
      </trkpt>
      <trkpt lat="36.678937962278724" lon="-5.212454041466117">
        <ele>996.53999999999996</ele>
        <time>2025-05-09T09:55:20Z</time>
      </trkpt>
      <trkpt lat="36.678996970877051" lon="-5.212327977642417">
        <ele>997.50999999999999</ele>
        <time>2025-05-09T09:55:21Z</time>
      </trkpt>
      <trkpt lat="36.67905799113214" lon="-5.212199985980988">
        <ele>998.95000000000005</ele>
        <time>2025-05-09T09:55:22Z</time>
      </trkpt>
      <trkpt lat="36.679775984957814" lon="-5.210669031366706">
        <ele>1001.83</ele>
        <time>2025-05-09T09:55:32Z</time>
      </trkpt>
      <trkpt lat="36.679842034354806" lon="-5.210474990308285">
        <ele>1001.35</ele>
        <time>2025-05-09T09:55:33Z</time>
      </trkpt>
      <trkpt lat="36.679871035739779" lon="-5.210290001705289">
        <ele>1000.39</ele>
        <time>2025-05-09T09:55:34Z</time>
      </trkpt>
      <trkpt lat="36.679889978840947" lon="-5.210108030587435">
        <ele>999.42999999999995</ele>
        <time>2025-05-09T09:55:35Z</time>
      </trkpt>
      <trkpt lat="36.679863994941115" lon="-5.209949025884271">
        <ele>997.99000000000001</ele>
        <time>2025-05-09T09:55:36Z</time>
      </trkpt>
      <trkpt lat="36.679819989949465" lon="-5.2097989898175">
        <ele>997.01999999999998</ele>
        <time>2025-05-09T09:55:37Z</time>
      </trkpt>
      <trkpt lat="36.679757963865995" lon="-5.209651971235871">
        <ele>995.58000000000004</ele>
        <time>2025-05-09T09:55:38Z</time>
      </trkpt>
      <trkpt lat="36.679665008559823" lon="-5.209503024816513">
        <ele>994.13999999999999</ele>
        <time>2025-05-09T09:55:39Z</time>
      </trkpt>
      <trkpt lat="36.679556965827942" lon="-5.209333039820194">
        <ele>993.17999999999995</ele>
        <time>2025-05-09T09:55:40Z</time>
      </trkpt>
      <trkpt lat="36.679294025525451" lon="-5.208957027643919">
        <ele>990.77999999999997</ele>
        <time>2025-05-09T09:55:42Z</time>
      </trkpt>
      <trkpt lat="36.6786939650774" lon="-5.208249008283019">
        <ele>987.88999999999999</ele>
        <time>2025-05-09T09:55:46Z</time>
      </trkpt>
      <trkpt lat="36.678511993959546" lon="-5.208142977207899">
        <ele>987.40999999999997</ele>
        <time>2025-05-09T09:55:47Z</time>
      </trkpt>
      <trkpt lat="36.678345026448369" lon="-5.208045998588204">
        <ele>987.88999999999999</ele>
        <time>2025-05-09T09:55:48Z</time>
      </trkpt>
      <trkpt lat="36.678178980946541" lon="-5.20794901996851">
        <ele>987.88999999999999</ele>
        <time>2025-05-09T09:55:49Z</time>
      </trkpt>
      <trkpt lat="36.678044032305479" lon="-5.207915995270014">
        <ele>988.37</ele>
        <time>2025-05-09T09:55:50Z</time>
      </trkpt>
      <trkpt lat="36.677903970703483" lon="-5.207882970571518">
        <ele>989.33000000000004</ele>
        <time>2025-05-09T09:55:51Z</time>
      </trkpt>
      <trkpt lat="36.677772961556911" lon="-5.207852041348815">
        <ele>990.29999999999995</ele>
        <time>2025-05-09T09:55:52Z</time>
      </trkpt>
      <trkpt lat="36.677545979619026" lon="-5.207776017487049">
        <ele>992.22000000000003</ele>
        <time>2025-05-09T09:55:54Z</time>
      </trkpt>
      <trkpt lat="36.677436009049416" lon="-5.207724971696734">
        <ele>993.17999999999995</ele>
        <time>2025-05-09T09:55:55Z</time>
      </trkpt>
      <trkpt lat="36.677332995459437" lon="-5.20765095949173">
        <ele>993.65999999999997</ele>
        <time>2025-05-09T09:55:56Z</time>
      </trkpt>
      <trkpt lat="36.677260994911194" lon="-5.207553980872035">
        <ele>994.13999999999999</ele>
        <time>2025-05-09T09:55:57Z</time>
      </trkpt>
      <trkpt lat="36.677211038768291" lon="-5.20743403583765">
        <ele>995.10000000000002</ele>
        <time>2025-05-09T09:55:58Z</time>
      </trkpt>
      <trkpt lat="36.677173990756273" lon="-5.207300009205937">
        <ele>995.58000000000004</ele>
        <time>2025-05-09T09:55:59Z</time>
      </trkpt>
      <trkpt lat="36.677134009078145" lon="-5.207153996452689">
        <ele>996.05999999999995</ele>
        <time>2025-05-09T09:56:00Z</time>
      </trkpt>
      <trkpt lat="36.677091009914875" lon="-5.207000020891428">
        <ele>997.01999999999998</ele>
        <time>2025-05-09T09:56:01Z</time>
      </trkpt>
      <trkpt lat="36.677034012973309" lon="-5.20683498121798">
        <ele>997.50999999999999</ele>
        <time>2025-05-09T09:56:02Z</time>
      </trkpt>
      <trkpt lat="36.676960000768304" lon="-5.206676982343197">
        <ele>997.99000000000001</ele>
        <time>2025-05-09T09:56:03Z</time>
      </trkpt>
      <trkpt lat="36.676876014098525" lon="-5.20651001483202">
        <ele>998.47000000000003</ele>
        <time>2025-05-09T09:56:04Z</time>
      </trkpt>
      <trkpt lat="36.676768977195024" lon="-5.206329971551895">
        <ele>998.95000000000005</ele>
        <time>2025-05-09T09:56:05Z</time>
      </trkpt>
      <trkpt lat="36.676112003624439" lon="-5.205474011600018">
        <ele>1000.39</ele>
        <time>2025-05-09T09:56:10Z</time>
      </trkpt>
      <trkpt lat="36.675962973386049" lon="-5.205404022708535">
        <ele>1000.87</ele>
        <time>2025-05-09T09:56:11Z</time>
      </trkpt>
      <trkpt lat="36.675817966461182" lon="-5.205350965261459">
        <ele>1001.35</ele>
        <time>2025-05-09T09:56:12Z</time>
      </trkpt>
      <trkpt lat="36.675660973414779" lon="-5.205343002453446">
        <ele>1001.83</ele>
        <time>2025-05-09T09:56:13Z</time>
      </trkpt>
      <trkpt lat="36.675500962883234" lon="-5.205335039645433">
        <ele>1002.3099999999999</ele>
        <time>2025-05-09T09:56:14Z</time>
      </trkpt>
      <trkpt lat="36.675341036170721" lon="-5.205331016331911">
        <ele>1002.79</ele>
        <time>2025-05-09T09:56:15Z</time>
      </trkpt>
      <trkpt lat="36.673838999122381" lon="-5.205172011628747">
        <ele>1010.48</ele>
        <time>2025-05-09T09:56:25Z</time>
      </trkpt>
      <trkpt lat="36.673395009711385" lon="-5.205041002482176">
        <ele>1012.89</ele>
        <time>2025-05-09T09:56:28Z</time>
      </trkpt>
      <trkpt lat="36.673285961151123" lon="-5.205008983612061">
        <ele>1013.37</ele>
        <time>2025-05-09T09:56:29Z</time>
      </trkpt>
      <trkpt lat="36.673160986974835" lon="-5.204917034134269">
        <ele>1014.33</ele>
        <time>2025-05-09T09:56:30Z</time>
      </trkpt>
      <trkpt lat="36.673047998920083" lon="-5.204834975302219">
        <ele>1014.8099999999999</ele>
        <time>2025-05-09T09:56:31Z</time>
      </trkpt>
      <trkpt lat="36.67295303195715" lon="-5.204753000289202">
        <ele>1015.29</ele>
        <time>2025-05-09T09:56:32Z</time>
      </trkpt>
      <trkpt lat="36.672879019752145" lon="-5.204622996971011">
        <ele>1015.77</ele>
        <time>2025-05-09T09:56:33Z</time>
      </trkpt>
      <trkpt lat="36.67280400171876" lon="-5.20449198782444">
        <ele>1016.25</ele>
        <time>2025-05-09T09:56:34Z</time>
      </trkpt>
      <trkpt lat="36.672767959535122" lon="-5.204346980899572">
        <ele>1017.21</ele>
        <time>2025-05-09T09:56:35Z</time>
      </trkpt>
      <trkpt lat="36.672736024484038" lon="-5.204187976196408">
        <ele>1017.6900000000001</ele>
        <time>2025-05-09T09:56:36Z</time>
      </trkpt>
      <trkpt lat="36.672705011442304" lon="-5.204030983150005">
        <ele>1018.17</ele>
        <time>2025-05-09T09:56:37Z</time>
      </trkpt>
      <trkpt lat="36.672666035592556" lon="-5.203557992354035">
        <ele>1019.62</ele>
        <time>2025-05-09T09:56:40Z</time>
      </trkpt>
      <trkpt lat="36.672691013664007" lon="-5.203394964337349">
        <ele>1020.58</ele>
        <time>2025-05-09T09:56:41Z</time>
      </trkpt>
      <trkpt lat="36.672714985907078" lon="-5.203229002654553">
        <ele>1020.58</ele>
        <time>2025-05-09T09:56:42Z</time>
      </trkpt>
      <trkpt lat="36.67276200838387" lon="-5.20307200960815">
        <ele>1021.0599999999999</ele>
        <time>2025-05-09T09:56:43Z</time>
      </trkpt>
      <trkpt lat="36.672838032245636" lon="-5.202908981591463">
        <ele>1021.0599999999999</ele>
        <time>2025-05-09T09:56:44Z</time>
      </trkpt>
      <trkpt lat="36.672921013087034" lon="-5.202744025737047">
        <ele>1020.58</ele>
        <time>2025-05-09T09:56:45Z</time>
      </trkpt>
      <trkpt lat="36.673022015020251" lon="-5.202580997720361">
        <ele>1020.1</ele>
        <time>2025-05-09T09:56:46Z</time>
      </trkpt>
      <trkpt lat="36.673736991360784" lon="-5.201682960614562">
        <ele>1015.29</ele>
        <time>2025-05-09T09:56:52Z</time>
      </trkpt>
      <trkpt lat="36.673875963315368" lon="-5.2015670388937">
        <ele>1014.33</ele>
        <time>2025-05-09T09:56:53Z</time>
      </trkpt>
      <trkpt lat="36.675128974020481" lon="-5.20068702287972">
        <ele>1008.08</ele>
        <time>2025-05-09T09:56:59Z</time>
      </trkpt>
      <trkpt lat="36.675304993987083" lon="-5.200519971549511">
        <ele>1007.6</ele>
        <time>2025-05-09T09:57:00Z</time>
      </trkpt>
      <trkpt lat="36.67546802200377" lon="-5.20034696906805">
        <ele>1006.64</ele>
        <time>2025-05-09T09:57:01Z</time>
      </trkpt>
      <trkpt lat="36.676833014935255" lon="-5.198651980608702">
        <ele>1001.35</ele>
        <time>2025-05-09T09:57:11Z</time>
      </trkpt>
      <trkpt lat="36.678049983456731" lon="-5.197692001238465">
        <ele>996.53999999999996</ele>
        <time>2025-05-09T09:57:19Z</time>
      </trkpt>
      <trkpt lat="36.67819700203836" lon="-5.197502989321947">
        <ele>996.05999999999995</ele>
        <time>2025-05-09T09:57:20Z</time>
      </trkpt>
      <trkpt lat="36.678320970386267" lon="-5.197343984618783">
        <ele>995.58000000000004</ele>
        <time>2025-05-09T09:57:21Z</time>
      </trkpt>
      <trkpt lat="36.678423983976245" lon="-5.197162013500929">
        <ele>994.62</ele>
        <time>2025-05-09T09:57:22Z</time>
      </trkpt>
      <trkpt lat="36.67852196842432" lon="-5.19697199575603">
        <ele>994.13999999999999</ele>
        <time>2025-05-09T09:57:23Z</time>
      </trkpt>
      <trkpt lat="36.678619030863047" lon="-5.196783989667893">
        <ele>993.17999999999995</ele>
        <time>2025-05-09T09:57:24Z</time>
      </trkpt>
      <trkpt lat="36.67871399782598" lon="-5.196599001064897">
        <ele>991.74000000000001</ele>
        <time>2025-05-09T09:57:25Z</time>
      </trkpt>
      <trkpt lat="36.678839977830648" lon="-5.196438990533352">
        <ele>991.25999999999999</ele>
        <time>2025-05-09T09:57:26Z</time>
      </trkpt>
      <trkpt lat="36.678972998633981" lon="-5.196275962516666">
        <ele>990.29999999999995</ele>
        <time>2025-05-09T09:57:27Z</time>
      </trkpt>
      <trkpt lat="36.680052001029253" lon="-5.194894960150123">
        <ele>984.52999999999997</ele>
        <time>2025-05-09T09:57:35Z</time>
      </trkpt>
      <trkpt lat="36.680873008444905" lon="-5.192990005016327">
        <ele>976.84000000000003</ele>
        <time>2025-05-09T09:57:44Z</time>
      </trkpt>
      <trkpt lat="36.681018015369773" lon="-5.192838963121176">
        <ele>975.88</ele>
        <time>2025-05-09T09:57:45Z</time>
      </trkpt>
      <trkpt lat="36.681172996759415" lon="-5.192688005045056">
        <ele>975.38999999999999</ele>
        <time>2025-05-09T09:57:46Z</time>
      </trkpt>
      <trkpt lat="36.682246970012784" lon="-5.191488973796368">
        <ele>966.74000000000001</ele>
        <time>2025-05-09T09:57:53Z</time>
      </trkpt>
      <trkpt lat="36.683171996846795" lon="-5.190130015835166">
        <ele>956.64999999999998</ele>
        <time>2025-05-09T09:58:00Z</time>
      </trkpt>
      <trkpt lat="36.683251960203052" lon="-5.18990102224052">
        <ele>955.21000000000004</ele>
        <time>2025-05-09T09:58:01Z</time>
      </trkpt>
      <trkpt lat="36.683282973244786" lon="-5.189660964533687">
        <ele>953.27999999999997</ele>
        <time>2025-05-09T09:58:02Z</time>
      </trkpt>
      <trkpt lat="36.683305017650127" lon="-5.189420990645886">
        <ele>951.84000000000003</ele>
        <time>2025-05-09T09:58:03Z</time>
      </trkpt>
      <trkpt lat="36.683326978236437" lon="-5.189187973737717">
        <ele>950.39999999999998</ele>
        <time>2025-05-09T09:58:04Z</time>
      </trkpt>
      <trkpt lat="36.683347010985017" lon="-5.188973983749747">
        <ele>948.96000000000004</ele>
        <time>2025-05-09T09:58:05Z</time>
      </trkpt>
      <trkpt lat="36.683423034846783" lon="-5.188791006803513">
        <ele>947.03999999999996</ele>
        <time>2025-05-09T09:58:06Z</time>
      </trkpt>
      <trkpt lat="36.683514984324574" lon="-5.18861498683691">
        <ele>946.07000000000005</ele>
        <time>2025-05-09T09:58:07Z</time>
      </trkpt>
      <trkpt lat="36.684200037270784" lon="-5.187705969437957">
        <ele>939.83000000000004</ele>
        <time>2025-05-09T09:58:13Z</time>
      </trkpt>
      <trkpt lat="36.684322999790311" lon="-5.187635980546475">
        <ele>938.86000000000001</ele>
        <time>2025-05-09T09:58:14Z</time>
      </trkpt>
      <trkpt lat="36.684469012543559" lon="-5.187579989433289">
        <ele>937.41999999999996</ele>
        <time>2025-05-09T09:58:15Z</time>
      </trkpt>
      <trkpt lat="36.684774029999971" lon="-5.187461972236633">
        <ele>935.01999999999998</ele>
        <time>2025-05-09T09:58:17Z</time>
      </trkpt>
      <trkpt lat="36.684904033318162" lon="-5.18732501193881">
        <ele>933.58000000000004</ele>
        <time>2025-05-09T09:58:18Z</time>
      </trkpt>
      <trkpt lat="36.68502900749445" lon="-5.187183022499085">
        <ele>932.62</ele>
        <time>2025-05-09T09:58:19Z</time>
      </trkpt>
      <trkpt lat="36.685145013034344" lon="-5.187021000310779">
        <ele>931.16999999999996</ele>
        <time>2025-05-09T09:58:20Z</time>
      </trkpt>
      <trkpt lat="36.685236962512136" lon="-5.186837017536163">
        <ele>929.73000000000002</ele>
        <time>2025-05-09T09:58:21Z</time>
      </trkpt>
      <trkpt lat="36.685326984152198" lon="-5.186656974256039">
        <ele>928.76999999999998</ele>
        <time>2025-05-09T09:58:22Z</time>
      </trkpt>
      <trkpt lat="36.685385992750525" lon="-5.18646402284503">
        <ele>926.85000000000002</ele>
        <time>2025-05-09T09:58:23Z</time>
      </trkpt>
      <trkpt lat="36.685435026884079" lon="-5.186272999271751">
        <ele>925.40999999999997</ele>
        <time>2025-05-09T09:58:24Z</time>
      </trkpt>
      <trkpt lat="36.685480959713459" lon="-5.186093961820006">
        <ele>923.96000000000004</ele>
        <time>2025-05-09T09:58:25Z</time>
      </trkpt>
      <trkpt lat="36.685534017160535" lon="-5.185930011793971">
        <ele>922.03999999999996</ele>
        <time>2025-05-09T09:58:26Z</time>
      </trkpt>
      <trkpt lat="36.685626972466707" lon="-5.185807971283793">
        <ele>920.12</ele>
        <time>2025-05-09T09:58:27Z</time>
      </trkpt>
      <trkpt lat="36.685743983834982" lon="-5.185721972957254">
        <ele>918.67999999999995</ele>
        <time>2025-05-09T09:58:28Z</time>
      </trkpt>
      <trkpt lat="36.68586703017354" lon="-5.185632035136223">
        <ele>917.24000000000001</ele>
        <time>2025-05-09T09:58:29Z</time>
      </trkpt>
      <trkpt lat="36.685990998521447" lon="-5.185540001839399">
        <ele>915.78999999999996</ele>
        <time>2025-05-09T09:58:30Z</time>
      </trkpt>
      <trkpt lat="36.686092000454664" lon="-5.185425002127886">
        <ele>914.83000000000004</ele>
        <time>2025-05-09T09:58:31Z</time>
      </trkpt>
      <trkpt lat="36.686185039579868" lon="-5.185302961617708">
        <ele>913.38999999999999</ele>
        <time>2025-05-09T09:58:32Z</time>
      </trkpt>
      <trkpt lat="36.68623398989439" lon="-5.185144040733576">
        <ele>912.42999999999995</ele>
        <time>2025-05-09T09:58:33Z</time>
      </trkpt>
      <trkpt lat="36.686271959915757" lon="-5.184977995231748">
        <ele>910.50999999999999</ele>
        <time>2025-05-09T09:58:34Z</time>
      </trkpt>
      <trkpt lat="36.686286041513085" lon="-5.184795018285513">
        <ele>909.05999999999995</ele>
        <time>2025-05-09T09:58:35Z</time>
      </trkpt>
      <trkpt lat="36.686588041484356" lon="-5.183348972350359">
        <ele>899.92999999999995</ele>
        <time>2025-05-09T09:58:42Z</time>
      </trkpt>
      <trkpt lat="36.686837989836931" lon="-5.18276902846992">
        <ele>894.63999999999999</ele>
        <time>2025-05-09T09:58:45Z</time>
      </trkpt>
      <trkpt lat="36.686951983720064" lon="-5.182622009888291">
        <ele>893.20000000000005</ele>
        <time>2025-05-09T09:58:46Z</time>
      </trkpt>
      <trkpt lat="36.687087016180158" lon="-5.18251396715641">
        <ele>892.24000000000001</ele>
        <time>2025-05-09T09:58:47Z</time>
      </trkpt>
      <trkpt lat="36.687245015054941" lon="-5.182438027113676">
        <ele>890.79999999999995</ele>
        <time>2025-05-09T09:58:48Z</time>
      </trkpt>
      <trkpt lat="36.687410976737738" lon="-5.182365020737052">
        <ele>889.84000000000003</ele>
        <time>2025-05-09T09:58:49Z</time>
      </trkpt>
      <trkpt lat="36.687953034415841" lon="-5.182124963030219">
        <ele>885.50999999999999</ele>
        <time>2025-05-09T09:58:52Z</time>
      </trkpt>
      <trkpt lat="36.68812301941216" lon="-5.182003006339073">
        <ele>884.07000000000005</ele>
        <time>2025-05-09T09:58:53Z</time>
      </trkpt>
      <trkpt lat="36.688285041600466" lon="-5.181852970272303">
        <ele>882.63</ele>
        <time>2025-05-09T09:58:54Z</time>
      </trkpt>
      <trkpt lat="36.689614998176694" lon="-5.180802969262004">
        <ele>871.09000000000003</ele>
        <time>2025-05-09T09:59:02Z</time>
      </trkpt>
      <trkpt lat="36.691661020740867" lon="-5.179882971569896">
        <ele>854.26999999999998</ele>
        <time>2025-05-09T09:59:13Z</time>
      </trkpt>
      <trkpt lat="36.691846009343863" lon="-5.179892024025321">
        <ele>852.83000000000004</ele>
        <time>2025-05-09T09:59:14Z</time>
      </trkpt>
      <trkpt lat="36.692035021260381" lon="-5.179899986833334">
        <ele>851.38</ele>
        <time>2025-05-09T09:59:15Z</time>
      </trkpt>
      <trkpt lat="36.692224033176899" lon="-5.179941980168223">
        <ele>849.46000000000004</ele>
        <time>2025-05-09T09:59:16Z</time>
      </trkpt>
      <trkpt lat="36.692417990416288" lon="-5.180005012080073">
        <ele>848.01999999999998</ele>
        <time>2025-05-09T09:59:17Z</time>
      </trkpt>
      <trkpt lat="36.692988965660334" lon="-5.180159993469715">
        <ele>842.25</ele>
        <time>2025-05-09T09:59:20Z</time>
      </trkpt>
      <trkpt lat="36.693177977576852" lon="-5.180180026218295">
        <ele>840.80999999999995</ele>
        <time>2025-05-09T09:59:21Z</time>
      </trkpt>
      <trkpt lat="36.693348968401551" lon="-5.180159993469715">
        <ele>838.88999999999999</ele>
        <time>2025-05-09T09:59:22Z</time>
      </trkpt>
      <trkpt lat="36.693497998639941" lon="-5.180141972377896">
        <ele>837.45000000000005</ele>
        <time>2025-05-09T09:59:23Z</time>
      </trkpt>
      <trkpt lat="36.693625990301371" lon="-5.180098973214626">
        <ele>836</ele>
        <time>2025-05-09T09:59:24Z</time>
      </trkpt>
      <trkpt lat="36.693747024983168" lon="-5.180052034556866">
        <ele>834.55999999999995</ele>
        <time>2025-05-09T09:59:25Z</time>
      </trkpt>
      <trkpt lat="36.695596994832158" lon="-5.179236978292465">
        <ele>820.62</ele>
        <time>2025-05-09T09:59:39Z</time>
      </trkpt>
      <trkpt lat="36.697042034938931" lon="-5.178542034700513">
        <ele>813.40999999999997</ele>
        <time>2025-05-09T09:59:49Z</time>
      </trkpt>
      <trkpt lat="36.698856968432665" lon="-5.17746202647686">
        <ele>810.04999999999995</ele>
        <time>2025-05-09T10:00:00Z</time>
      </trkpt>
      <trkpt lat="36.700270995497704" lon="-5.176575975492597">
        <ele>807.15999999999997</ele>
        <time>2025-05-09T10:00:10Z</time>
      </trkpt>
      <trkpt lat="36.700440980494022" lon="-5.176529036834836">
        <ele>807.15999999999997</ele>
        <time>2025-05-09T10:00:11Z</time>
      </trkpt>
      <trkpt lat="36.700615994632244" lon="-5.176516966894269">
        <ele>807.15999999999997</ele>
        <time>2025-05-09T10:00:12Z</time>
      </trkpt>
      <trkpt lat="36.702162036672235" lon="-5.176570024341345">
        <ele>805.24000000000001</ele>
        <time>2025-05-09T10:00:20Z</time>
      </trkpt>
      <trkpt lat="36.702362028881907" lon="-5.176534987986088">
        <ele>804.75999999999999</ele>
        <time>2025-05-09T10:00:21Z</time>
      </trkpt>
      <trkpt lat="36.703774966299534" lon="-5.176095021888614">
        <ele>803.79999999999995</ele>
        <time>2025-05-09T10:00:29Z</time>
      </trkpt>
      <trkpt lat="36.703939000144601" lon="-5.176011035218835">
        <ele>803.79999999999995</ele>
        <time>2025-05-09T10:00:30Z</time>
      </trkpt>
      <trkpt lat="36.705004004761577" lon="-5.175531003624201">
        <ele>803.79999999999995</ele>
        <time>2025-05-09T10:00:36Z</time>
      </trkpt>
      <trkpt lat="36.705188993364573" lon="-5.175484986975789">
        <ele>803.79999999999995</ele>
        <time>2025-05-09T10:00:37Z</time>
      </trkpt>
      <trkpt lat="36.706845005974174" lon="-5.17535800114274">
        <ele>807.15999999999997</ele>
        <time>2025-05-09T10:00:46Z</time>
      </trkpt>
      <trkpt lat="36.707781013101339" lon="-5.175470989197493">
        <ele>809.09000000000003</ele>
        <time>2025-05-09T10:00:51Z</time>
      </trkpt>
      <trkpt lat="36.707971030846238" lon="-5.175457997247577">
        <ele>809.57000000000005</ele>
        <time>2025-05-09T10:00:52Z</time>
      </trkpt>
      <trkpt lat="36.708159036934376" lon="-5.175446011126041">
        <ele>810.04999999999995</ele>
        <time>2025-05-09T10:00:53Z</time>
      </trkpt>
      <trkpt lat="36.708340002223849" lon="-5.17540100030601">
        <ele>810.52999999999997</ele>
        <time>2025-05-09T10:00:54Z</time>
      </trkpt>
      <trkpt lat="36.70851300470531" lon="-5.17531399615109">
        <ele>811.00999999999999</ele>
        <time>2025-05-09T10:00:55Z</time>
      </trkpt>
      <trkpt lat="36.708675026893616" lon="-5.175197990611196">
        <ele>811.49000000000001</ele>
        <time>2025-05-09T10:00:56Z</time>
      </trkpt>
      <trkpt lat="36.708825984969735" lon="-5.175061030313373">
        <ele>811.97000000000003</ele>
        <time>2025-05-09T10:00:57Z</time>
      </trkpt>
      <trkpt lat="36.708967974409461" lon="-5.174901019781828">
        <ele>812.45000000000005</ele>
        <time>2025-05-09T10:00:58Z</time>
      </trkpt>
      <trkpt lat="36.709110969677567" lon="-5.174738997593522">
        <ele>812.92999999999995</ele>
        <time>2025-05-09T10:00:59Z</time>
      </trkpt>
      <trkpt lat="36.710557015612721" lon="-5.173462014645338">
        <ele>818.22000000000003</ele>
        <time>2025-05-09T10:01:08Z</time>
      </trkpt>
      <trkpt lat="36.710737980902195" lon="-5.17336000688374">
        <ele>819.17999999999995</ele>
        <time>2025-05-09T10:01:09Z</time>
      </trkpt>
      <trkpt lat="36.710925986990333" lon="-5.173297980800271">
        <ele>819.65999999999997</ele>
        <time>2025-05-09T10:01:10Z</time>
      </trkpt>
      <trkpt lat="36.711118016391993" lon="-5.173265961930156">
        <ele>820.62</ele>
        <time>2025-05-09T10:01:11Z</time>
      </trkpt>
      <trkpt lat="36.712147984653711" lon="-5.173124978318811">
        <ele>823.50999999999999</ele>
        <time>2025-05-09T10:01:17Z</time>
      </trkpt>
      <trkpt lat="36.712286034598947" lon="-5.173064963892102">
        <ele>823.99000000000001</ele>
        <time>2025-05-09T10:01:18Z</time>
      </trkpt>
      <trkpt lat="36.712402040138841" lon="-5.172935966402292">
        <ele>824.47000000000003</ele>
        <time>2025-05-09T10:01:19Z</time>
      </trkpt>
      <trkpt lat="36.712520979344845" lon="-5.172803029417992">
        <ele>824.95000000000005</ele>
        <time>2025-05-09T10:01:20Z</time>
      </trkpt>
      <trkpt lat="36.712634973227978" lon="-5.172676965594292">
        <ele>825.42999999999995</ele>
        <time>2025-05-09T10:01:21Z</time>
      </trkpt>
      <trkpt lat="36.712735975161195" lon="-5.172563977539539">
        <ele>825.90999999999997</ele>
        <time>2025-05-09T10:01:22Z</time>
      </trkpt>
      <trkpt lat="36.71283395960927" lon="-5.172473033890128">
        <ele>825.90999999999997</ele>
        <time>2025-05-09T10:01:23Z</time>
      </trkpt>
      <trkpt lat="36.712961029261351" lon="-5.17243598587811">
        <ele>825.90999999999997</ele>
        <time>2025-05-09T10:01:24Z</time>
      </trkpt>
      <trkpt lat="36.713242996484041" lon="-5.172353005036712">
        <ele>825.90999999999997</ele>
        <time>2025-05-09T10:01:26Z</time>
      </trkpt>
      <trkpt lat="36.713378028944135" lon="-5.172288967296481">
        <ele>825.90999999999997</ele>
        <time>2025-05-09T10:01:27Z</time>
      </trkpt>
      <trkpt lat="36.7134989798069" lon="-5.172194000333548">
        <ele>825.42999999999995</ele>
        <time>2025-05-09T10:01:28Z</time>
      </trkpt>
      <trkpt lat="36.713745994493365" lon="-5.172000965103507">
        <ele>824.47000000000003</ele>
        <time>2025-05-09T10:01:30Z</time>
      </trkpt>
      <trkpt lat="36.713860994204879" lon="-5.171937011182308">
        <ele>823.99000000000001</ele>
        <time>2025-05-09T10:01:31Z</time>
      </trkpt>
      <trkpt lat="36.713996026664972" lon="-5.171918990090489">
        <ele>823.50999999999999</ele>
        <time>2025-05-09T10:01:32Z</time>
      </trkpt>
      <trkpt lat="36.714142039418221" lon="-5.17189996317029">
        <ele>822.54999999999995</ele>
        <time>2025-05-09T10:01:33Z</time>
      </trkpt>
      <trkpt lat="36.71427003107965" lon="-5.171918990090489">
        <ele>822.05999999999995</ele>
        <time>2025-05-09T10:01:34Z</time>
      </trkpt>
      <trkpt lat="36.714582005515695" lon="-5.17196299508214">
        <ele>820.13999999999999</ele>
        <time>2025-05-09T10:01:36Z</time>
      </trkpt>
      <trkpt lat="36.714742016047239" lon="-5.171944973990321">
        <ele>819.17999999999995</ele>
        <time>2025-05-09T10:01:37Z</time>
      </trkpt>
      <trkpt lat="36.714892974123359" lon="-5.171865010634065">
        <ele>818.22000000000003</ele>
        <time>2025-05-09T10:01:38Z</time>
      </trkpt>
      <trkpt lat="36.715046027675271" lon="-5.171773983165622">
        <ele>817.25999999999999</ele>
        <time>2025-05-09T10:01:39Z</time>
      </trkpt>
      <trkpt lat="36.715201009064913" lon="-5.171681027859449">
        <ele>816.77999999999997</ele>
        <time>2025-05-09T10:01:40Z</time>
      </trkpt>
      <trkpt lat="36.71579604037106" lon="-5.171323958784342">
        <ele>812.92999999999995</ele>
        <time>2025-05-09T10:01:44Z</time>
      </trkpt>
      <trkpt lat="36.715939035639167" lon="-5.171292023733258">
        <ele>811.97000000000003</ele>
        <time>2025-05-09T10:01:45Z</time>
      </trkpt>
      <trkpt lat="36.716094017028809" lon="-5.171280959621072">
        <ele>811.00999999999999</ele>
        <time>2025-05-09T10:01:46Z</time>
      </trkpt>
      <trkpt lat="36.716406997293234" lon="-5.171260004863143">
        <ele>808.61000000000001</ele>
        <time>2025-05-09T10:01:48Z</time>
      </trkpt>
      <trkpt lat="36.716557033360004" lon="-5.17121097072959">
        <ele>807.63999999999999</ele>
        <time>2025-05-09T10:01:49Z</time>
      </trkpt>
      <trkpt lat="36.716737998649478" lon="-5.171126984059811">
        <ele>807.15999999999997</ele>
        <time>2025-05-09T10:01:50Z</time>
      </trkpt>
      <trkpt lat="36.716830031946301" lon="-5.171021958813071">
        <ele>806.20000000000005</ele>
        <time>2025-05-09T10:01:51Z</time>
      </trkpt>
      <trkpt lat="36.716949976980686" lon="-5.170882986858487">
        <ele>805.24000000000001</ele>
        <time>2025-05-09T10:01:52Z</time>
      </trkpt>
      <trkpt lat="36.717213001102209" lon="-5.17065298743546">
        <ele>803.32000000000005</ele>
        <time>2025-05-09T10:01:54Z</time>
      </trkpt>
      <trkpt lat="36.717352978885174" lon="-5.170545028522611">
        <ele>801.88</ele>
        <time>2025-05-09T10:01:55Z</time>
      </trkpt>
      <trkpt lat="36.717501003295183" lon="-5.170487025752664">
        <ele>800.91999999999996</ele>
        <time>2025-05-09T10:01:56Z</time>
      </trkpt>
      <trkpt lat="36.71766797080636" lon="-5.170455006882548">
        <ele>799.47000000000003</ele>
        <time>2025-05-09T10:01:57Z</time>
      </trkpt>
      <trkpt lat="36.717853965237737" lon="-5.170418964698911">
        <ele>798.02999999999997</ele>
        <time>2025-05-09T10:01:58Z</time>
      </trkpt>
      <trkpt lat="36.718007018789649" lon="-5.170418964698911">
        <ele>797.07000000000005</ele>
        <time>2025-05-09T10:01:59Z</time>
      </trkpt>
      <trkpt lat="36.718182032927871" lon="-5.170418964698911">
        <ele>796.11000000000001</ele>
        <time>2025-05-09T10:02:00Z</time>
      </trkpt>
      <trkpt lat="36.719876015558839" lon="-5.170684000477195">
        <ele>785.52999999999997</ele>
        <time>2025-05-09T10:02:10Z</time>
      </trkpt>
      <trkpt lat="36.721820030361414" lon="-5.171264028176665">
        <ele>771.11000000000001</ele>
        <time>2025-05-09T10:02:22Z</time>
      </trkpt>
      <trkpt lat="36.722424030303955" lon="-5.171341979876161">
        <ele>765.83000000000004</ele>
        <time>2025-05-09T10:02:26Z</time>
      </trkpt>
      <trkpt lat="36.723840991035104" lon="-5.170869994908571">
        <ele>754.28999999999996</ele>
        <time>2025-05-09T10:02:36Z</time>
      </trkpt>
      <trkpt lat="36.723968982696533" lon="-5.170763041824102">
        <ele>752.85000000000002</ele>
        <time>2025-05-09T10:02:38Z</time>
      </trkpt>
      <trkpt lat="36.724006030708551" lon="-5.170729011297226">
        <ele>751.88999999999999</ele>
        <time>2025-05-09T10:02:39Z</time>
      </trkpt>
      <trkpt lat="36.724034026265144" lon="-5.170850967988372">
        <ele>751.40999999999997</ele>
        <time>2025-05-09T10:02:40Z</time>
      </trkpt>
      <trkpt lat="36.724075013771653" lon="-5.170907964929938">
        <ele>750.92999999999995</ele>
        <time>2025-05-09T10:02:41Z</time>
      </trkpt>
      <trkpt lat="36.724123964086175" lon="-5.170975020155311">
        <ele>750.45000000000005</ele>
        <time>2025-05-09T10:02:42Z</time>
      </trkpt>
      <trkpt lat="36.724189007654786" lon="-5.171044003218412">
        <ele>750.45000000000005</ele>
        <time>2025-05-09T10:02:43Z</time>
      </trkpt>
      <trkpt lat="36.724255979061127" lon="-5.171107035130262">
        <ele>749.97000000000003</ele>
        <time>2025-05-09T10:02:44Z</time>
      </trkpt>
      <trkpt lat="36.724329991266131" lon="-5.171177024021745">
        <ele>749.97000000000003</ele>
        <time>2025-05-09T10:02:45Z</time>
      </trkpt>
      <trkpt lat="36.72441003844142" lon="-5.171251958236098">
        <ele>749.49000000000001</ele>
        <time>2025-05-09T10:02:46Z</time>
      </trkpt>
      <trkpt lat="36.724681025370955" lon="-5.171429989859462">
        <ele>749.49000000000001</ele>
        <time>2025-05-09T10:02:49Z</time>
      </trkpt>
      <trkpt lat="36.72477800399065" lon="-5.171478018164635">
        <ele>749</ele>
        <time>2025-05-09T10:02:50Z</time>
      </trkpt>
      <trkpt lat="36.724891997873783" lon="-5.171535015106201">
        <ele>748.51999999999998</ele>
        <time>2025-05-09T10:02:51Z</time>
      </trkpt>
      <trkpt lat="36.725799003615975" lon="-5.171376010403037">
        <ele>742.75999999999999</ele>
        <time>2025-05-09T10:03:00Z</time>
      </trkpt>
      <trkpt lat="36.72589598223567" lon="-5.171298980712891">
        <ele>741.78999999999996</ele>
        <time>2025-05-09T10:03:01Z</time>
      </trkpt>
      <trkpt lat="36.726917987689376" lon="-5.170359034091234">
        <ele>738.42999999999995</ele>
        <time>2025-05-09T10:03:12Z</time>
      </trkpt>
      <trkpt lat="36.727660959586501" lon="-5.169667024165392">
        <ele>736.02999999999997</ele>
        <time>2025-05-09T10:03:20Z</time>
      </trkpt>
      <trkpt lat="36.728483978658915" lon="-5.168899996206164">
        <ele>731.70000000000005</ele>
        <time>2025-05-09T10:03:31Z</time>
      </trkpt>
      <trkpt lat="36.729247989133" lon="-5.1682039629668">
        <ele>727.37</ele>
        <time>2025-05-09T10:03:44Z</time>
      </trkpt>
      <trkpt lat="36.72946298494935" lon="-5.168016040697694">
        <ele>726.88999999999999</ele>
        <time>2025-05-09T10:03:48Z</time>
      </trkpt>
      <trkpt lat="36.73014803789556" lon="-5.167330987751484">
        <ele>724.97000000000003</ele>
        <time>2025-05-09T10:03:59Z</time>
      </trkpt>
      <trkpt lat="36.73040896654129" lon="-5.16699998639524">
        <ele>723.04999999999995</ele>
        <time>2025-05-09T10:04:03Z</time>
      </trkpt>
      <trkpt lat="36.730476021766663" lon="-5.166908958926797">
        <ele>722.09000000000003</ele>
        <time>2025-05-09T10:04:04Z</time>
      </trkpt>
      <trkpt lat="36.730520026758313" lon="-5.166802005842328">
        <ele>721.61000000000001</ele>
        <time>2025-05-09T10:04:05Z</time>
      </trkpt>
      <trkpt lat="36.730608036741614" lon="-5.166588015854359">
        <ele>719.67999999999995</ele>
        <time>2025-05-09T10:04:07Z</time>
      </trkpt>
      <trkpt lat="36.73070702701807" lon="-5.166392968967557">
        <ele>718.24000000000001</ele>
        <time>2025-05-09T10:04:09Z</time>
      </trkpt>
      <trkpt lat="36.730757988989353" lon="-5.166290039196611">
        <ele>717.27999999999997</ele>
        <time>2025-05-09T10:04:10Z</time>
      </trkpt>
      <trkpt lat="36.730820015072823" lon="-5.166207980364561">
        <ele>716.32000000000005</ele>
        <time>2025-05-09T10:04:11Z</time>
      </trkpt>
      <trkpt lat="36.730892015621066" lon="-5.166135979816318">
        <ele>715.36000000000001</ele>
        <time>2025-05-09T10:04:12Z</time>
      </trkpt>
      <trkpt lat="36.73096502199769" lon="-5.166062973439694">
        <ele>713.91999999999996</ele>
        <time>2025-05-09T10:04:13Z</time>
      </trkpt>
      <trkpt lat="36.731046997010708" lon="-5.166017962619662">
        <ele>712.95000000000005</ele>
        <time>2025-05-09T10:04:14Z</time>
      </trkpt>
      <trkpt lat="36.731128972023726" lon="-5.165972029790282">
        <ele>711.50999999999999</ele>
        <time>2025-05-09T10:04:15Z</time>
      </trkpt>
      <trkpt lat="36.731209019199014" lon="-5.165932970121503">
        <ele>710.54999999999995</ele>
        <time>2025-05-09T10:04:16Z</time>
      </trkpt>
      <trkpt lat="36.731582013890147" lon="-5.165791986510158">
        <ele>708.14999999999998</ele>
        <time>2025-05-09T10:04:21Z</time>
      </trkpt>
      <trkpt lat="36.731656026095152" lon="-5.165763990953565">
        <ele>708.14999999999998</ele>
        <time>2025-05-09T10:04:22Z</time>
      </trkpt>
      <trkpt lat="36.731727020815015" lon="-5.165738007053733">
        <ele>707.66999999999996</ele>
        <time>2025-05-09T10:04:23Z</time>
      </trkpt>
      <trkpt lat="36.73180396668613" lon="-5.165715962648392">
        <ele>707.66999999999996</ele>
        <time>2025-05-09T10:04:24Z</time>
      </trkpt>
      <trkpt lat="36.731883008033037" lon="-5.165694002062082">
        <ele>707.19000000000005</ele>
        <time>2025-05-09T10:04:25Z</time>
      </trkpt>
      <trkpt lat="36.732044024392962" lon="-5.165651002898812">
        <ele>706.71000000000004</ele>
        <time>2025-05-09T10:04:27Z</time>
      </trkpt>
      <trkpt lat="36.732637966051698" lon="-5.165547989308834">
        <ele>702.86000000000001</ele>
        <time>2025-05-09T10:04:34Z</time>
      </trkpt>
      <trkpt lat="36.732698986306787" lon="-5.165524017065764">
        <ele>702.86000000000001</ele>
        <time>2025-05-09T10:04:35Z</time>
      </trkpt>
      <trkpt lat="36.733654020354152" lon="-5.165078015998006">
        <ele>703.34000000000003</ele>
        <time>2025-05-09T10:04:47Z</time>
      </trkpt>
      <trkpt lat="36.733946967869997" lon="-5.164948012679815">
        <ele>703.82000000000005</ele>
        <time>2025-05-09T10:04:52Z</time>
      </trkpt>
      <trkpt lat="36.734069008380175" lon="-5.164851034060121">
        <ele>703.82000000000005</ele>
        <time>2025-05-09T10:04:54Z</time>
      </trkpt>
      <trkpt lat="36.734121982008219" lon="-5.164820021018386">
        <ele>703.34000000000003</ele>
        <time>2025-05-09T10:04:55Z</time>
      </trkpt>
      <trkpt lat="36.734175961464643" lon="-5.16478699631989">
        <ele>703.34000000000003</ele>
        <time>2025-05-09T10:04:56Z</time>
      </trkpt>
      <trkpt lat="36.734261037781835" lon="-5.16472295857966">
        <ele>703.34000000000003</ele>
        <time>2025-05-09T10:04:58Z</time>
      </trkpt>
      <trkpt lat="36.734303031116724" lon="-5.164691023528576">
        <ele>703.34000000000003</ele>
        <time>2025-05-09T10:04:59Z</time>
      </trkpt>
      <trkpt lat="36.734333038330078" lon="-5.164668979123235">
        <ele>703.34000000000003</ele>
        <time>2025-05-09T10:05:00Z</time>
      </trkpt>
      <trkpt lat="36.734368996694684" lon="-5.164582980796695">
        <ele>703.82000000000005</ele>
        <time>2025-05-09T10:05:01Z</time>
      </trkpt>
      <trkpt lat="36.734413001686335" lon="-5.164582980796695">
        <ele>703.82000000000005</ele>
        <time>2025-05-09T10:05:02Z</time>
      </trkpt>
      <trkpt lat="36.734434040263295" lon="-5.164612988010049">
        <ele>703.82000000000005</ele>
        <time>2025-05-09T10:05:03Z</time>
      </trkpt>
      <trkpt lat="36.734440997242928" lon="-5.164625979959965">
        <ele>703.82000000000005</ele>
        <time>2025-05-09T10:05:04Z</time>
      </trkpt>
      <trkpt lat="36.73444602638483" lon="-5.164760006591678">
        <ele>703.82000000000005</ele>
        <time>2025-05-09T10:05:05Z</time>
      </trkpt>
      <trkpt lat="36.734480978921056" lon="-5.164823038503528">
        <ele>704.29999999999995</ele>
        <time>2025-05-09T10:05:06Z</time>
      </trkpt>
      <trkpt lat="36.734521966427565" lon="-5.16489596106112">
        <ele>704.29999999999995</ele>
        <time>2025-05-09T10:05:07Z</time>
      </trkpt>
      <trkpt lat="36.734587009996176" lon="-5.16495899297297">
        <ele>704.29999999999995</ele>
        <time>2025-05-09T10:05:08Z</time>
      </trkpt>
      <trkpt lat="36.734649036079645" lon="-5.165015989914537">
        <ele>704.77999999999997</ele>
        <time>2025-05-09T10:05:09Z</time>
      </trkpt>
      <trkpt lat="36.734712990000844" lon="-5.165073992684484">
        <ele>704.77999999999997</ele>
        <time>2025-05-09T10:05:10Z</time>
      </trkpt>
      <trkpt lat="36.734763029962778" lon="-5.165119003504515">
        <ele>705.25999999999999</ele>
        <time>2025-05-09T10:05:11Z</time>
      </trkpt>
      <trkpt lat="36.734850034117699" lon="-5.165119003504515">
        <ele>705.25999999999999</ele>
        <time>2025-05-09T10:05:12Z</time>
      </trkpt>
      <trkpt lat="36.734922034665942" lon="-5.165119003504515">
        <ele>705.25999999999999</ele>
        <time>2025-05-09T10:05:13Z</time>
      </trkpt>
      <trkpt lat="36.734964028000832" lon="-5.165111040696502">
        <ele>705.25999999999999</ele>
        <time>2025-05-09T10:05:14Z</time>
      </trkpt>
      <trkpt lat="36.735012978315353" lon="-5.165062006562948">
        <ele>705.25999999999999</ele>
        <time>2025-05-09T10:05:15Z</time>
      </trkpt>
      <trkpt lat="36.735083973035216" lon="-5.164990006014705">
        <ele>705.25999999999999</ele>
        <time>2025-05-09T10:05:16Z</time>
      </trkpt>
      <trkpt lat="36.735094031319022" lon="-5.164956981316209">
        <ele>705.75</ele>
        <time>2025-05-09T10:05:17Z</time>
      </trkpt>
      <trkpt lat="36.735167959704995" lon="-5.164697980508208">
        <ele>705.75</ele>
        <time>2025-05-09T10:05:20Z</time>
      </trkpt>
      <trkpt lat="36.735212970525026" lon="-5.164619022980332">
        <ele>706.23000000000002</ele>
        <time>2025-05-09T10:05:21Z</time>
      </trkpt>
      <trkpt lat="36.735256975516677" lon="-5.164546016603708">
        <ele>706.23000000000002</ele>
        <time>2025-05-09T10:05:22Z</time>
      </trkpt>
      <trkpt lat="36.735301986336708" lon="-5.164472004398704">
        <ele>706.71000000000004</ele>
        <time>2025-05-09T10:05:23Z</time>
      </trkpt>
      <trkpt lat="36.735353032127023" lon="-5.164404027163982">
        <ele>706.71000000000004</ele>
        <time>2025-05-09T10:05:24Z</time>
      </trkpt>
      <trkpt lat="36.735522011294961" lon="-5.164215015247464">
        <ele>708.14999999999998</ele>
        <time>2025-05-09T10:05:27Z</time>
      </trkpt>
      <trkpt lat="36.735587976872921" lon="-5.164208980277181">
        <ele>708.63</ele>
        <time>2025-05-09T10:05:28Z</time>
      </trkpt>
      <trkpt lat="36.735653020441532" lon="-5.16420403495431">
        <ele>709.11000000000001</ele>
        <time>2025-05-09T10:05:29Z</time>
      </trkpt>
      <trkpt lat="36.736375037580729" lon="-5.164420958608389">
        <ele>717.75999999999999</ele>
        <time>2025-05-09T10:05:39Z</time>
      </trkpt>
      <trkpt lat="36.736437985673547" lon="-5.164454989135265">
        <ele>718.24000000000001</ele>
        <time>2025-05-09T10:05:40Z</time>
      </trkpt>
      <trkpt lat="36.736495988443494" lon="-5.164496982470155">
        <ele>719.20000000000005</ele>
        <time>2025-05-09T10:05:41Z</time>
      </trkpt>
      <trkpt lat="36.73655197955668" lon="-5.164536964148283">
        <ele>719.67999999999995</ele>
        <time>2025-05-09T10:05:42Z</time>
      </trkpt>
      <trkpt lat="36.736693968996406" lon="-5.16459203325212">
        <ele>720.64999999999998</ele>
        <time>2025-05-09T10:05:44Z</time>
      </trkpt>
      <trkpt lat="36.736949030309916" lon="-5.164685994386673">
        <ele>723.52999999999997</ele>
        <time>2025-05-09T10:05:48Z</time>
      </trkpt>
      <trkpt lat="36.737200990319252" lon="-5.164738968014717">
        <ele>726.88999999999999</ele>
        <time>2025-05-09T10:05:53Z</time>
      </trkpt>
      <trkpt lat="36.737242983654141" lon="-5.164748020470142">
        <ele>727.37</ele>
        <time>2025-05-09T10:05:54Z</time>
      </trkpt>
      <trkpt lat="36.737380027770996" lon="-5.164753971621394">
        <ele>729.77999999999997</ele>
        <time>2025-05-09T10:05:58Z</time>
      </trkpt>
      <trkpt lat="36.737446999177337" lon="-5.164753971621394">
        <ele>730.74000000000001</ele>
        <time>2025-05-09T10:05:59Z</time>
      </trkpt>
      <trkpt lat="36.737638022750616" lon="-5.164690017700195">
        <ele>732.17999999999995</ele>
        <time>2025-05-09T10:06:02Z</time>
      </trkpt>
      <trkpt lat="36.737712034955621" lon="-5.164690017700195">
        <ele>732.65999999999997</ele>
        <time>2025-05-09T10:06:03Z</time>
      </trkpt>
      <trkpt lat="36.7377769947052" lon="-5.164690017700195">
        <ele>732.65999999999997</ele>
        <time>2025-05-09T10:06:04Z</time>
      </trkpt>
      <trkpt lat="36.73788595944643" lon="-5.164708038792014">
        <ele>734.10000000000002</ele>
        <time>2025-05-09T10:06:06Z</time>
      </trkpt>
      <trkpt lat="36.737931976094842" lon="-5.164734022691846">
        <ele>734.58000000000004</ele>
        <time>2025-05-09T10:06:07Z</time>
      </trkpt>
      <trkpt lat="36.737983021885157" lon="-5.1647640299052">
        <ele>735.07000000000005</ele>
        <time>2025-05-09T10:06:08Z</time>
      </trkpt>
      <trkpt lat="36.738087963312864" lon="-5.164841981604695">
        <ele>736.02999999999997</ele>
        <time>2025-05-09T10:06:10Z</time>
      </trkpt>
      <trkpt lat="36.738230036571622" lon="-5.164953963831067">
        <ele>737.95000000000005</ele>
        <time>2025-05-09T10:06:13Z</time>
      </trkpt>
      <trkpt lat="36.738272029906511" lon="-5.164989000186324">
        <ele>738.42999999999995</ele>
        <time>2025-05-09T10:06:14Z</time>
      </trkpt>
      <trkpt lat="36.738308994099498" lon="-5.165020013228059">
        <ele>739.38999999999999</ele>
        <time>2025-05-09T10:06:15Z</time>
      </trkpt>
      <trkpt lat="36.738437991589308" lon="-5.165070975199342">
        <ele>741.30999999999995</ele>
        <time>2025-05-09T10:06:19Z</time>
      </trkpt>
      <trkpt lat="36.738478979095817" lon="-5.165084972977638">
        <ele>741.30999999999995</ele>
        <time>2025-05-09T10:06:20Z</time>
      </trkpt>
      <trkpt lat="36.738767987117171" lon="-5.165141969919205">
        <ele>744.20000000000005</ele>
        <time>2025-05-09T10:06:26Z</time>
      </trkpt>
      <trkpt lat="36.738832024857402" lon="-5.165148004889488">
        <ele>744.20000000000005</ele>
        <time>2025-05-09T10:06:27Z</time>
      </trkpt>
      <trkpt lat="36.738897990435362" lon="-5.165154961869121">
        <ele>744.67999999999995</ele>
        <time>2025-05-09T10:06:28Z</time>
      </trkpt>
      <trkpt lat="36.738962028175592" lon="-5.165160996839404">
        <ele>745.15999999999997</ele>
        <time>2025-05-09T10:06:29Z</time>
      </trkpt>
      <trkpt lat="36.739033022895455" lon="-5.165189998224378">
        <ele>745.15999999999997</ele>
        <time>2025-05-09T10:06:30Z</time>
      </trkpt>
      <trkpt lat="36.739082979038358" lon="-5.165211036801338">
        <ele>745.63999999999999</ele>
        <time>2025-05-09T10:06:31Z</time>
      </trkpt>
      <trkpt lat="36.739222034811974" lon="-5.165283959358931">
        <ele>747.08000000000004</ele>
        <time>2025-05-09T10:06:34Z</time>
      </trkpt>
      <trkpt lat="36.739254975691438" lon="-5.165301980450749">
        <ele>747.55999999999995</ele>
        <time>2025-05-09T10:06:35Z</time>
      </trkpt>
      <trkpt lat="36.739295041188598" lon="-5.165324024856091">
        <ele>747.55999999999995</ele>
        <time>2025-05-09T10:06:36Z</time>
      </trkpt>
      <trkpt lat="36.7396230250597" lon="-5.165469031780958">
        <ele>749.49000000000001</ele>
        <time>2025-05-09T10:06:45Z</time>
      </trkpt>
      <trkpt lat="36.73970902338624" lon="-5.165505995973945">
        <ele>749</ele>
        <time>2025-05-09T10:06:47Z</time>
      </trkpt>
      <trkpt lat="36.739751016721129" lon="-5.165525022894144">
        <ele>749</ele>
        <time>2025-05-09T10:06:48Z</time>
      </trkpt>
      <trkpt lat="36.739804996177554" lon="-5.165547989308834">
        <ele>749</ele>
        <time>2025-05-09T10:06:49Z</time>
      </trkpt>
      <trkpt lat="36.739835003390908" lon="-5.165554024279118">
        <ele>749</ele>
        <time>2025-05-09T10:06:50Z</time>
      </trkpt>
      <trkpt lat="36.739835003390908" lon="-5.165554024279118">
        <ele>749</ele>
        <time>2025-05-09T10:06:58Z</time>
      </trkpt>
      <trkpt lat="36.739835003390908" lon="-5.165554024279118">
        <ele>749.49000000000001</ele>
        <time>2025-05-09T10:07:00Z</time>
      </trkpt>
      <trkpt lat="36.739855036139488" lon="-5.165384039282799">
        <ele>749.49000000000001</ele>
        <time>2025-05-09T10:07:01Z</time>
      </trkpt>
      <trkpt lat="36.739859981462359" lon="-5.165367024019361">
        <ele>749.49000000000001</ele>
        <time>2025-05-09T10:07:02Z</time>
      </trkpt>
      <trkpt lat="36.739867022261024" lon="-5.1653459854424">
        <ele>749.97000000000003</ele>
        <time>2025-05-09T10:07:03Z</time>
      </trkpt>
      <trkpt lat="36.739874985069036" lon="-5.165320001542568">
        <ele>749.97000000000003</ele>
        <time>2025-05-09T10:07:04Z</time>
      </trkpt>
      <trkpt lat="36.739883031696081" lon="-5.165293011814356">
        <ele>749.97000000000003</ele>
        <time>2025-05-09T10:07:05Z</time>
      </trkpt>
      <trkpt lat="36.739919995889068" lon="-5.164952035993338">
        <ele>747.08000000000004</ele>
        <time>2025-05-09T10:07:18Z</time>
      </trkpt>
      <trkpt lat="36.739823017269373" lon="-5.164677025750279">
        <ele>738.90999999999997</ele>
        <time>2025-05-09T10:07:28Z</time>
      </trkpt>
      <trkpt lat="36.739804996177554" lon="-5.164625979959965">
        <ele>736.99000000000001</ele>
        <time>2025-05-09T10:07:29Z</time>
      </trkpt>
      <trkpt lat="36.739787980914116" lon="-5.16459203325212">
        <ele>735.54999999999995</ele>
        <time>2025-05-09T10:07:30Z</time>
      </trkpt>
      <trkpt lat="36.739740958437324" lon="-5.164496982470155">
        <ele>732.17999999999995</ele>
        <time>2025-05-09T10:07:34Z</time>
      </trkpt>
      <trkpt lat="36.739740958437324" lon="-5.164496982470155">
        <ele>731.22000000000003</ele>
        <time>2025-05-09T10:07:35Z</time>
      </trkpt>
      <trkpt lat="36.739743975922465" lon="-5.16444300301373">
        <ele>730.74000000000001</ele>
        <time>2025-05-09T10:07:36Z</time>
      </trkpt>
      <trkpt lat="36.739745987579226" lon="-5.164397992193699">
        <ele>729.77999999999997</ele>
        <time>2025-05-09T10:07:37Z</time>
      </trkpt>
      <trkpt lat="36.739747999235988" lon="-5.16435599885881">
        <ele>729.29999999999995</ele>
        <time>2025-05-09T10:07:38Z</time>
      </trkpt>
      <trkpt lat="36.739751016721129" lon="-5.164311993867159">
        <ele>728.82000000000005</ele>
        <time>2025-05-09T10:07:39Z</time>
      </trkpt>
      <trkpt lat="36.739635011181235" lon="-5.163861969485879">
        <ele>720.64999999999998</ele>
        <time>2025-05-09T10:07:51Z</time>
      </trkpt>
      <trkpt lat="36.739594023674726" lon="-5.163789968937635">
        <ele>712.47000000000003</ele>
        <time>2025-05-09T10:08:03Z</time>
      </trkpt>
      <trkpt lat="36.739594023674726" lon="-5.163789968937635">
        <ele>705.25999999999999</ele>
        <time>2025-05-09T10:08:22Z</time>
      </trkpt>
      <trkpt lat="36.739594023674726" lon="-5.163789968937635">
        <ele>705.25999999999999</ele>
        <time>2025-05-09T10:08:43Z</time>
      </trkpt>
      <trkpt lat="36.739467037841678" lon="-5.163816958665848">
        <ele>704.29999999999995</ele>
        <time>2025-05-09T10:08:47Z</time>
      </trkpt>
      <trkpt lat="36.739439964294434" lon="-5.163827016949654">
        <ele>704.29999999999995</ele>
        <time>2025-05-09T10:08:48Z</time>
      </trkpt>
      <trkpt lat="36.738900002092123" lon="-5.164047041907907">
        <ele>710.54999999999995</ele>
        <time>2025-05-09T10:08:59Z</time>
      </trkpt>
      <trkpt lat="36.738867983222008" lon="-5.164061961695552">
        <ele>711.02999999999997</ele>
        <time>2025-05-09T10:09:00Z</time>
      </trkpt>
      <trkpt lat="36.738767987117171" lon="-5.164107978343964">
        <ele>712.95000000000005</ele>
        <time>2025-05-09T10:09:03Z</time>
      </trkpt>
      <trkpt lat="36.738729011267424" lon="-5.164125999435782">
        <ele>713.91999999999996</ele>
        <time>2025-05-09T10:09:04Z</time>
      </trkpt>
      <trkpt lat="36.738687017932534" lon="-5.164146032184362">
        <ele>714.39999999999998</ele>
        <time>2025-05-09T10:09:05Z</time>
      </trkpt>
      <trkpt lat="36.738653993234038" lon="-5.16416204161942">
        <ele>714.88</ele>
        <time>2025-05-09T10:09:06Z</time>
      </trkpt>
      <trkpt lat="36.738624991849065" lon="-5.164175033569336">
        <ele>715.84000000000003</ele>
        <time>2025-05-09T10:09:07Z</time>
      </trkpt>
      <trkpt lat="36.738581992685795" lon="-5.164261031895876">
        <ele>716.32000000000005</ele>
        <time>2025-05-09T10:09:08Z</time>
      </trkpt>
      <trkpt lat="36.738544022664428" lon="-5.164282992482185">
        <ele>716.79999999999995</ele>
        <time>2025-05-09T10:09:09Z</time>
      </trkpt>
      <trkpt lat="36.738493982702494" lon="-5.164310988038778">
        <ele>717.75999999999999</ele>
        <time>2025-05-09T10:09:10Z</time>
      </trkpt>
      <trkpt lat="36.738446038216352" lon="-5.164338983595371">
        <ele>717.75999999999999</ele>
        <time>2025-05-09T10:09:11Z</time>
      </trkpt>
      <trkpt lat="36.738393986597657" lon="-5.164367984980345">
        <ele>718.24000000000001</ele>
        <time>2025-05-09T10:09:12Z</time>
      </trkpt>
      <trkpt lat="36.738346964120865" lon="-5.164394974708557">
        <ele>718.24000000000001</ele>
        <time>2025-05-09T10:09:13Z</time>
      </trkpt>
      <trkpt lat="36.738301031291485" lon="-5.16442196443677">
        <ele>718.24000000000001</ele>
        <time>2025-05-09T10:09:14Z</time>
      </trkpt>
      <trkpt lat="36.738228024914861" lon="-5.164486002177">
        <ele>718.24000000000001</ele>
        <time>2025-05-09T10:09:18Z</time>
      </trkpt>
      <trkpt lat="36.738212015479803" lon="-5.164503017440438">
        <ele>718.24000000000001</ele>
        <time>2025-05-09T10:09:19Z</time>
      </trkpt>
      <trkpt lat="36.738090980798006" lon="-5.164623968303204">
        <ele>718.72000000000003</ele>
        <time>2025-05-09T10:09:31Z</time>
      </trkpt>
      <trkpt lat="36.738090980798006" lon="-5.164623968303204">
        <ele>718.72000000000003</ele>
        <time>2025-05-09T10:09:45Z</time>
      </trkpt>
      <trkpt lat="36.738024009391665" lon="-5.164691023528576">
        <ele>718.72000000000003</ele>
        <time>2025-05-09T10:09:46Z</time>
      </trkpt>
      <trkpt lat="36.738016968593001" lon="-5.164718013256788">
        <ele>719.20000000000005</ele>
        <time>2025-05-09T10:09:47Z</time>
      </trkpt>
      <trkpt lat="36.738052004948258" lon="-5.164813986048102">
        <ele>719.20000000000005</ele>
        <time>2025-05-09T10:09:48Z</time>
      </trkpt>
      <trkpt lat="36.738078994676471" lon="-5.164836030453444">
        <ele>719.20000000000005</ele>
        <time>2025-05-09T10:09:49Z</time>
      </trkpt>
      <trkpt lat="36.738122999668121" lon="-5.164868971332908">
        <ele>719.20000000000005</ele>
        <time>2025-05-09T10:09:50Z</time>
      </trkpt>
      <trkpt lat="36.738173039630055" lon="-5.164909036830068">
        <ele>719.20000000000005</ele>
        <time>2025-05-09T10:09:51Z</time>
      </trkpt>
      <trkpt lat="36.738271024078131" lon="-5.164987994357944">
        <ele>719.20000000000005</ele>
        <time>2025-05-09T10:09:53Z</time>
      </trkpt>
      <trkpt lat="36.738325003534555" lon="-5.165033005177975">
        <ele>719.20000000000005</ele>
        <time>2025-05-09T10:09:54Z</time>
      </trkpt>
      <trkpt lat="36.738361967727542" lon="-5.165045997127891">
        <ele>719.67999999999995</ele>
        <time>2025-05-09T10:09:55Z</time>
      </trkpt>
      <trkpt lat="36.738409996032715" lon="-5.165062006562948">
        <ele>719.67999999999995</ele>
        <time>2025-05-09T10:09:56Z</time>
      </trkpt>
      <trkpt lat="36.738455006852746" lon="-5.165077010169625">
        <ele>719.67999999999995</ele>
        <time>2025-05-09T10:09:57Z</time>
      </trkpt>
      <trkpt lat="36.738508986309171" lon="-5.165095031261444">
        <ele>720.15999999999997</ele>
        <time>2025-05-09T10:09:58Z</time>
      </trkpt>
      <trkpt lat="36.738561037927866" lon="-5.165111962705851">
        <ele>720.64999999999998</ele>
        <time>2025-05-09T10:09:59Z</time>
      </trkpt>
      <trkpt lat="36.738581992685795" lon="-5.165119003504515">
        <ele>720.64999999999998</ele>
        <time>2025-05-09T10:10:00Z</time>
      </trkpt>
      <trkpt lat="36.738667991012335" lon="-5.165119003504515">
        <ele>721.61000000000001</ele>
        <time>2025-05-09T10:10:01Z</time>
      </trkpt>
      <trkpt lat="36.738685006275773" lon="-5.165124032646418">
        <ele>722.09000000000003</ele>
        <time>2025-05-09T10:10:02Z</time>
      </trkpt>
      <trkpt lat="36.738733034580946" lon="-5.165135012939572">
        <ele>722.57000000000005</ele>
        <time>2025-05-09T10:10:03Z</time>
      </trkpt>
      <trkpt lat="36.738776033744216" lon="-5.165142975747585">
        <ele>723.04999999999995</ele>
        <time>2025-05-09T10:10:04Z</time>
      </trkpt>
      <trkpt lat="36.738834958523512" lon="-5.165149010717869">
        <ele>723.52999999999997</ele>
        <time>2025-05-09T10:10:05Z</time>
      </trkpt>
      <trkpt lat="36.738902013748884" lon="-5.165154961869121">
        <ele>723.52999999999997</ele>
        <time>2025-05-09T10:10:06Z</time>
      </trkpt>
      <trkpt lat="36.738964039832354" lon="-5.165162002667785">
        <ele>724.00999999999999</ele>
        <time>2025-05-09T10:10:07Z</time>
      </trkpt>
      <trkpt lat="36.739035034552217" lon="-5.165189998224378">
        <ele>724.49000000000001</ele>
        <time>2025-05-09T10:10:08Z</time>
      </trkpt>
      <trkpt lat="36.739105023443699" lon="-5.165221011266112">
        <ele>724.97000000000003</ele>
        <time>2025-05-09T10:10:09Z</time>
      </trkpt>
      <trkpt lat="36.739177023991942" lon="-5.165258981287479">
        <ele>725.45000000000005</ele>
        <time>2025-05-09T10:10:10Z</time>
      </trkpt>
      <trkpt lat="36.739521017298102" lon="-5.165425026789308">
        <ele>728.34000000000003</ele>
        <time>2025-05-09T10:10:16Z</time>
      </trkpt>
      <trkpt lat="36.739560998976231" lon="-5.165441958233714">
        <ele>728.34000000000003</ele>
        <time>2025-05-09T10:10:17Z</time>
      </trkpt>
      <trkpt lat="36.739598968997598" lon="-5.165458973497152">
        <ele>728.82000000000005</ele>
        <time>2025-05-09T10:10:18Z</time>
      </trkpt>
      <trkpt lat="36.739626964554191" lon="-5.165470959618688">
        <ele>729.29999999999995</ele>
        <time>2025-05-09T10:10:19Z</time>
      </trkpt>
      <trkpt lat="36.739642973989248" lon="-5.165478000417352">
        <ele>729.77999999999997</ele>
        <time>2025-05-09T10:10:20Z</time>
      </trkpt>
      <trkpt lat="36.739642973989248" lon="-5.165478000417352">
        <ele>730.25999999999999</ele>
        <time>2025-05-09T10:10:21Z</time>
      </trkpt>
      <trkpt lat="36.739670969545841" lon="-5.165489986538887">
        <ele>731.70000000000005</ele>
        <time>2025-05-09T10:10:23Z</time>
      </trkpt>
      <trkpt lat="36.739804996177554" lon="-5.165547989308834">
        <ele>732.17999999999995</ele>
        <time>2025-05-09T10:10:24Z</time>
      </trkpt>
      <trkpt lat="36.739804996177554" lon="-5.165547989308834">
        <ele>733.62</ele>
        <time>2025-05-09T10:10:28Z</time>
      </trkpt>
      <trkpt lat="36.739804996177554" lon="-5.165547989308834">
        <ele>733.62</ele>
        <time>2025-05-09T10:10:29Z</time>
      </trkpt>
      <trkpt lat="36.739996019750834" lon="-5.165595011785626">
        <ele>733.62</ele>
        <time>2025-05-09T10:10:41Z</time>
      </trkpt>
      <trkpt lat="36.740172039717436" lon="-5.165631975978613">
        <ele>732.17999999999995</ele>
        <time>2025-05-09T10:10:49Z</time>
      </trkpt>
      <trkpt lat="36.740338001400232" lon="-5.165620995685458">
        <ele>731.22000000000003</ele>
        <time>2025-05-09T10:10:53Z</time>
      </trkpt>
      <trkpt lat="36.740379994735122" lon="-5.165618984028697">
        <ele>731.22000000000003</ele>
        <time>2025-05-09T10:10:54Z</time>
      </trkpt>
      <trkpt lat="36.740415031090379" lon="-5.165615966543555">
        <ele>731.22000000000003</ele>
        <time>2025-05-09T10:10:55Z</time>
      </trkpt>
      <trkpt lat="36.740448977798223" lon="-5.165614038705826">
        <ele>730.74000000000001</ele>
        <time>2025-05-09T10:10:56Z</time>
      </trkpt>
      <trkpt lat="36.740485019981861" lon="-5.165620995685458">
        <ele>730.74000000000001</ele>
        <time>2025-05-09T10:10:57Z</time>
      </trkpt>
      <trkpt lat="36.740600019693375" lon="-5.165686961263418">
        <ele>729.77999999999997</ele>
        <time>2025-05-09T10:11:10Z</time>
      </trkpt>
      <trkpt lat="36.740694986656308" lon="-5.165741024538875">
        <ele>726.88999999999999</ele>
        <time>2025-05-09T10:11:22Z</time>
      </trkpt>
      <trkpt lat="36.740780984982848" lon="-5.165791986510158">
        <ele>726.40999999999997</ele>
        <time>2025-05-09T10:11:34Z</time>
      </trkpt>
      <trkpt lat="36.74097603186965" lon="-5.165914027020335">
        <ele>724.97000000000003</ele>
        <time>2025-05-09T10:11:45Z</time>
      </trkpt>
      <trkpt lat="36.741089019924402" lon="-5.165967000648379">
        <ele>724.00999999999999</ele>
        <time>2025-05-09T10:11:56Z</time>
      </trkpt>
      <trkpt lat="36.741350032389164" lon="-5.166042018681765">
        <ele>723.52999999999997</ele>
        <time>2025-05-09T10:12:08Z</time>
      </trkpt>
      <trkpt lat="36.741437958553433" lon="-5.16616296954453">
        <ele>723.04999999999995</ele>
        <time>2025-05-09T10:12:17Z</time>
      </trkpt>
      <trkpt lat="36.741455979645252" lon="-5.166174033656716">
        <ele>723.04999999999995</ele>
        <time>2025-05-09T10:12:18Z</time>
      </trkpt>
      <trkpt lat="36.74153502099216" lon="-5.166218960657716">
        <ele>723.52999999999997</ele>
        <time>2025-05-09T10:12:28Z</time>
      </trkpt>
      <trkpt lat="36.741698971018195" lon="-5.166286015883088">
        <ele>724.00999999999999</ele>
        <time>2025-05-09T10:12:40Z</time>
      </trkpt>
      <trkpt lat="36.74173098988831" lon="-5.166300013661385">
        <ele>724.00999999999999</ele>
        <time>2025-05-09T10:12:46Z</time>
      </trkpt>
      <trkpt lat="36.741952020674944" lon="-5.166394980624318">
        <ele>722.57000000000005</ele>
        <time>2025-05-09T10:12:58Z</time>
      </trkpt>
      <trkpt lat="36.741985967382789" lon="-5.166409984230995">
        <ele>722.57000000000005</ele>
        <time>2025-05-09T10:13:09Z</time>
      </trkpt>
      <trkpt lat="36.742027960717678" lon="-5.166428005322814">
        <ele>722.09000000000003</ele>
        <time>2025-05-09T10:13:10Z</time>
      </trkpt>
      <trkpt lat="36.742080012336373" lon="-5.166449965909123">
        <ele>722.09000000000003</ele>
        <time>2025-05-09T10:13:11Z</time>
      </trkpt>
      <trkpt lat="36.742358040064573" lon="-5.166539987549186">
        <ele>720.15999999999997</ele>
        <time>2025-05-09T10:13:15Z</time>
      </trkpt>
      <trkpt lat="36.742430040612817" lon="-5.166574018076062">
        <ele>719.67999999999995</ele>
        <time>2025-05-09T10:13:16Z</time>
      </trkpt>
      <trkpt lat="36.742499023675919" lon="-5.166606036946178">
        <ele>719.20000000000005</ele>
        <time>2025-05-09T10:13:17Z</time>
      </trkpt>
      <trkpt lat="36.742569012567401" lon="-5.166637971997261">
        <ele>718.72000000000003</ele>
        <time>2025-05-09T10:13:18Z</time>
      </trkpt>
      <trkpt lat="36.7426329664886" lon="-5.166664961725473">
        <ele>718.24000000000001</ele>
        <time>2025-05-09T10:13:19Z</time>
      </trkpt>
      <trkpt lat="36.742692980915308" lon="-5.166691029444337">
        <ele>717.75999999999999</ele>
        <time>2025-05-09T10:13:20Z</time>
      </trkpt>
      <trkpt lat="36.742937983945012" lon="-5.166795970872045">
        <ele>716.32000000000005</ele>
        <time>2025-05-09T10:13:24Z</time>
      </trkpt>
      <trkpt lat="36.743109980598092" lon="-5.166856991127133">
        <ele>715.36000000000001</ele>
        <time>2025-05-09T10:13:26Z</time>
      </trkpt>
      <trkpt lat="36.743118027225137" lon="-5.166861014440656">
        <ele>714.88</ele>
        <time>2025-05-09T10:13:27Z</time>
      </trkpt>
      <trkpt lat="36.743171000853181" lon="-5.166882975026965">
        <ele>714.88</ele>
        <time>2025-05-09T10:13:28Z</time>
      </trkpt>
      <trkpt lat="36.743219029158354" lon="-5.166904013603926">
        <ele>714.39999999999998</ele>
        <time>2025-05-09T10:13:29Z</time>
      </trkpt>
      <trkpt lat="36.743265967816114" lon="-5.166923962533474">
        <ele>713.91999999999996</ele>
        <time>2025-05-09T10:13:30Z</time>
      </trkpt>
      <trkpt lat="36.743313996121287" lon="-5.166945001110435">
        <ele>713.44000000000005</ele>
        <time>2025-05-09T10:13:31Z</time>
      </trkpt>
      <trkpt lat="36.743368981406093" lon="-5.166967967525125">
        <ele>712.95000000000005</ele>
        <time>2025-05-09T10:13:32Z</time>
      </trkpt>
      <trkpt lat="36.743409968912601" lon="-5.166985988616943">
        <ele>712.95000000000005</ele>
        <time>2025-05-09T10:13:33Z</time>
      </trkpt>
      <trkpt lat="36.743468977510929" lon="-5.167024964466691">
        <ele>712.47000000000003</ele>
        <time>2025-05-09T10:13:34Z</time>
      </trkpt>
      <trkpt lat="36.743474006652832" lon="-5.167028987780213">
        <ele>712.95000000000005</ele>
        <time>2025-05-09T10:13:35Z</time>
      </trkpt>
      <trkpt lat="36.743581965565681" lon="-5.167050026357174">
        <ele>712.47000000000003</ele>
        <time>2025-05-09T10:13:36Z</time>
      </trkpt>
      <trkpt lat="36.7435999866575" lon="-5.167058994993568">
        <ele>712.95000000000005</ele>
        <time>2025-05-09T10:13:37Z</time>
      </trkpt>
      <trkpt lat="36.743629993870854" lon="-5.167072992771864">
        <ele>712.95000000000005</ele>
        <time>2025-05-09T10:13:38Z</time>
      </trkpt>
      <trkpt lat="36.743654971942306" lon="-5.167084978893399">
        <ele>712.47000000000003</ele>
        <time>2025-05-09T10:13:39Z</time>
      </trkpt>
      <trkpt lat="36.743678022176027" lon="-5.167095037177205">
        <ele>712.47000000000003</ele>
        <time>2025-05-09T10:13:40Z</time>
      </trkpt>
      <trkpt lat="36.743588000535965" lon="-5.167035022750497">
        <ele>712.47000000000003</ele>
        <time>2025-05-09T10:13:41Z</time>
      </trkpt>
      <trkpt lat="36.743713980540633" lon="-5.167111968621612">
        <ele>712.47000000000003</ele>
        <time>2025-05-09T10:13:42Z</time>
      </trkpt>
      <trkpt lat="36.743744993582368" lon="-5.167126972228289">
        <ele>712.47000000000003</ele>
        <time>2025-05-09T10:13:43Z</time>
      </trkpt>
      <trkpt lat="36.743785981088877" lon="-5.167145999148488">
        <ele>712.47000000000003</ele>
        <time>2025-05-09T10:13:44Z</time>
      </trkpt>
      <trkpt lat="36.743825962767005" lon="-5.167164020240307">
        <ele>712.95000000000005</ele>
        <time>2025-05-09T10:13:45Z</time>
      </trkpt>
      <trkpt lat="36.743853036314249" lon="-5.167177012190223">
        <ele>712.95000000000005</ele>
        <time>2025-05-09T10:13:46Z</time>
      </trkpt>
      <trkpt lat="36.744011035189033" lon="-5.167243983596563">
        <ele>712.95000000000005</ele>
        <time>2025-05-09T10:13:47Z</time>
      </trkpt>
      <trkpt lat="36.743924031034112" lon="-5.167209031060338">
        <ele>712.95000000000005</ele>
        <time>2025-05-09T10:13:48Z</time>
      </trkpt>
      <trkpt lat="36.743962001055479" lon="-5.167224034667015">
        <ele>713.44000000000005</ele>
        <time>2025-05-09T10:13:49Z</time>
      </trkpt>
      <trkpt lat="36.744001982733607" lon="-5.167239960283041">
        <ele>713.44000000000005</ele>
        <time>2025-05-09T10:13:50Z</time>
      </trkpt>
      <trkpt lat="36.744289984926581" lon="-5.167243983596563">
        <ele>713.44000000000005</ele>
        <time>2025-05-09T10:13:54Z</time>
      </trkpt>
      <trkpt lat="36.744289984926581" lon="-5.167243983596563">
        <ele>713.91999999999996</ele>
        <time>2025-05-09T10:13:55Z</time>
      </trkpt>
      <trkpt lat="36.744380006566644" lon="-5.167267033830285">
        <ele>714.39999999999998</ele>
        <time>2025-05-09T10:13:56Z</time>
      </trkpt>
      <trkpt lat="36.744625009596348" lon="-5.167381027713418">
        <ele>716.79999999999995</ele>
        <time>2025-05-09T10:14:00Z</time>
      </trkpt>
      <trkpt lat="36.744677983224392" lon="-5.167415980249643">
        <ele>716.79999999999995</ele>
        <time>2025-05-09T10:14:01Z</time>
      </trkpt>
      <trkpt lat="36.744728023186326" lon="-5.16745001077652">
        <ele>717.27999999999997</ele>
        <time>2025-05-09T10:14:02Z</time>
      </trkpt>
      <trkpt lat="36.7448899615556" lon="-5.167557969689369">
        <ele>717.75999999999999</ele>
        <time>2025-05-09T10:14:05Z</time>
      </trkpt>
      <trkpt lat="36.744935978204012" lon="-5.167587976902723">
        <ele>718.24000000000001</ele>
        <time>2025-05-09T10:14:06Z</time>
      </trkpt>
      <trkpt lat="36.744981994852424" lon="-5.167618989944458">
        <ele>718.24000000000001</ele>
        <time>2025-05-09T10:14:07Z</time>
      </trkpt>
      <trkpt lat="36.745087020099163" lon="-5.16768897883594">
        <ele>718.72000000000003</ele>
        <time>2025-05-09T10:14:09Z</time>
      </trkpt>
      <trkpt lat="36.745132030919194" lon="-5.167718986049295">
        <ele>719.20000000000005</ele>
        <time>2025-05-09T10:14:10Z</time>
      </trkpt>
      <trkpt lat="36.745175030082464" lon="-5.167747987434268">
        <ele>719.67999999999995</ele>
        <time>2025-05-09T10:14:11Z</time>
      </trkpt>
      <trkpt lat="36.745219035074115" lon="-5.1677739713341">
        <ele>719.67999999999995</ele>
        <time>2025-05-09T10:14:12Z</time>
      </trkpt>
      <trkpt lat="36.745272008702159" lon="-5.167804984375835">
        <ele>720.15999999999997</ele>
        <time>2025-05-09T10:14:13Z</time>
      </trkpt>
      <trkpt lat="36.74533998593688" lon="-5.167843960225582">
        <ele>720.64999999999998</ele>
        <time>2025-05-09T10:14:14Z</time>
      </trkpt>
      <trkpt lat="36.745405029505491" lon="-5.167883019894362">
        <ele>721.13</ele>
        <time>2025-05-09T10:14:15Z</time>
      </trkpt>
      <trkpt lat="36.745460014790297" lon="-5.167916966602206">
        <ele>721.61000000000001</ele>
        <time>2025-05-09T10:14:16Z</time>
      </trkpt>
      <trkpt lat="36.745519023388624" lon="-5.167952002957463">
        <ele>722.09000000000003</ele>
        <time>2025-05-09T10:14:17Z</time>
      </trkpt>
      <trkpt lat="36.745583983138204" lon="-5.167990978807211">
        <ele>722.09000000000003</ele>
        <time>2025-05-09T10:14:18Z</time>
      </trkpt>
      <trkpt lat="36.746082035824656" lon="-5.16828996129334">
        <ele>725.45000000000005</ele>
        <time>2025-05-09T10:14:26Z</time>
      </trkpt>
      <trkpt lat="36.746206004172564" lon="-5.168351987376809">
        <ele>726.40999999999997</ele>
        <time>2025-05-09T10:14:28Z</time>
      </trkpt>
      <trkpt lat="36.746258977800608" lon="-5.168385012075305">
        <ele>726.88999999999999</ele>
        <time>2025-05-09T10:14:29Z</time>
      </trkpt>
      <trkpt lat="36.746331984177232" lon="-5.168432034552097">
        <ele>728.34000000000003</ele>
        <time>2025-05-09T10:14:31Z</time>
      </trkpt>
      <trkpt lat="36.746352016925812" lon="-5.168444020673633">
        <ele>728.82000000000005</ele>
        <time>2025-05-09T10:14:32Z</time>
      </trkpt>
      <trkpt lat="36.746378000825644" lon="-5.168461035937071">
        <ele>731.22000000000003</ele>
        <time>2025-05-09T10:14:40Z</time>
      </trkpt>
      <trkpt lat="36.746400967240334" lon="-5.168475033715367">
        <ele>731.70000000000005</ele>
        <time>2025-05-09T10:14:41Z</time>
      </trkpt>
      <trkpt lat="36.746426029130816" lon="-5.168490959331393">
        <ele>732.65999999999997</ele>
        <time>2025-05-09T10:14:42Z</time>
      </trkpt>
      <trkpt lat="36.746511021628976" lon="-5.168544016778469">
        <ele>735.54999999999995</ele>
        <time>2025-05-09T10:14:52Z</time>
      </trkpt>
      <trkpt lat="36.746549997478724" lon="-5.16856798902154">
        <ele>736.02999999999997</ele>
        <time>2025-05-09T10:14:53Z</time>
      </trkpt>
      <trkpt lat="36.746588973328471" lon="-5.168592967092991">
        <ele>736.50999999999999</ele>
        <time>2025-05-09T10:14:54Z</time>
      </trkpt>
      <trkpt lat="36.746631972491741" lon="-5.168620040640235">
        <ele>736.99000000000001</ele>
        <time>2025-05-09T10:14:55Z</time>
      </trkpt>
      <trkpt lat="36.746675977483392" lon="-5.168648036196828">
        <ele>737.47000000000003</ele>
        <time>2025-05-09T10:14:56Z</time>
      </trkpt>
      <trkpt lat="36.746717970818281" lon="-5.16867402009666">
        <ele>737.95000000000005</ele>
        <time>2025-05-09T10:14:57Z</time>
      </trkpt>
      <trkpt lat="36.746762981638312" lon="-5.168703021481633">
        <ele>738.42999999999995</ele>
        <time>2025-05-09T10:14:58Z</time>
      </trkpt>
      <trkpt lat="36.746804974973202" lon="-5.168729005381465">
        <ele>738.90999999999997</ele>
        <time>2025-05-09T10:14:59Z</time>
      </trkpt>
      <trkpt lat="36.746884016320109" lon="-5.168778039515019">
        <ele>739.87</ele>
        <time>2025-05-09T10:15:01Z</time>
      </trkpt>
      <trkpt lat="36.746922992169857" lon="-5.16880301758647">
        <ele>739.87</ele>
        <time>2025-05-09T10:15:02Z</time>
      </trkpt>
      <trkpt lat="36.746963979676366" lon="-5.168829001486301">
        <ele>740.83000000000004</ele>
        <time>2025-05-09T10:15:03Z</time>
      </trkpt>
      <trkpt lat="36.747003039345145" lon="-5.168852973729372">
        <ele>741.30999999999995</ele>
        <time>2025-05-09T10:15:04Z</time>
      </trkpt>
      <trkpt lat="36.747037991881371" lon="-5.168875018134713">
        <ele>741.30999999999995</ele>
        <time>2025-05-09T10:15:05Z</time>
      </trkpt>
      <trkpt lat="36.747164977714419" lon="-5.168874012306333">
        <ele>741.78999999999996</ele>
        <time>2025-05-09T10:15:06Z</time>
      </trkpt>
      <trkpt lat="36.747206971049309" lon="-5.168781979009509">
        <ele>741.78999999999996</ele>
        <time>2025-05-09T10:15:07Z</time>
      </trkpt>
      <trkpt lat="36.74722901545465" lon="-5.168732022866607">
        <ele>742.27999999999997</ele>
        <time>2025-05-09T10:15:08Z</time>
      </trkpt>
      <trkpt lat="36.747256005182862" lon="-5.168673014268279">
        <ele>742.75999999999999</ele>
        <time>2025-05-09T10:15:09Z</time>
      </trkpt>
      <trkpt lat="36.747308978810906" lon="-5.168554997071624">
        <ele>743.24000000000001</ele>
        <time>2025-05-09T10:15:11Z</time>
      </trkpt>
      <trkpt lat="36.74735801294446" lon="-5.168445026502013">
        <ele>744.20000000000005</ele>
        <time>2025-05-09T10:15:13Z</time>
      </trkpt>
      <trkpt lat="36.747449962422252" lon="-5.168218966573477">
        <ele>745.63999999999999</ele>
        <time>2025-05-09T10:15:17Z</time>
      </trkpt>
      <trkpt lat="36.747478963807225" lon="-5.168160041794181">
        <ele>745.63999999999999</ele>
        <time>2025-05-09T10:15:18Z</time>
      </trkpt>
      <trkpt lat="36.747506037354469" lon="-5.168105978518724">
        <ele>745.63999999999999</ele>
        <time>2025-05-09T10:15:19Z</time>
      </trkpt>
      <trkpt lat="36.747533027082682" lon="-5.168054010719061">
        <ele>746.12</ele>
        <time>2025-05-09T10:15:20Z</time>
      </trkpt>
      <trkpt lat="36.747554987668991" lon="-5.168005982413888">
        <ele>746.12</ele>
        <time>2025-05-09T10:15:21Z</time>
      </trkpt>
      <trkpt lat="36.747568985447288" lon="-5.167963989078999">
        <ele>746.60000000000002</ele>
        <time>2025-05-09T10:15:23Z</time>
      </trkpt>
      <trkpt lat="36.747578959912062" lon="-5.167932976037264">
        <ele>747.08000000000004</ele>
        <time>2025-05-09T10:15:24Z</time>
      </trkpt>
      <trkpt lat="36.747718015685678" lon="-5.167544977739453">
        <ele>749</ele>
        <time>2025-05-09T10:15:29Z</time>
      </trkpt>
      <trkpt lat="36.74774500541389" lon="-5.167468031868339">
        <ele>749</ele>
        <time>2025-05-09T10:15:30Z</time>
      </trkpt>
      <trkpt lat="36.747786998748779" lon="-5.167351020500064">
        <ele>748.51999999999998</ele>
        <time>2025-05-09T10:15:32Z</time>
      </trkpt>
      <trkpt lat="36.747778030112386" lon="-5.167276002466679">
        <ele>748.51999999999998</ele>
        <time>2025-05-09T10:15:33Z</time>
      </trkpt>
      <trkpt lat="36.747766966000199" lon="-5.167184974998236">
        <ele>748.51999999999998</ele>
        <time>2025-05-09T10:15:34Z</time>
      </trkpt>
      <trkpt lat="36.747714998200536" lon="-5.166755989193916">
        <ele>747.55999999999995</ele>
        <time>2025-05-09T10:15:39Z</time>
      </trkpt>
      <trkpt lat="36.747636962682009" lon="-5.166593967005611">
        <ele>746.12</ele>
        <time>2025-05-09T10:15:42Z</time>
      </trkpt>
      <trkpt lat="36.747130025178194" lon="-5.166198005899787">
        <ele>743.24000000000001</ele>
        <time>2025-05-09T10:15:50Z</time>
      </trkpt>
      <trkpt lat="36.747065987437963" lon="-5.166149977594614">
        <ele>743.24000000000001</ele>
        <time>2025-05-09T10:15:51Z</time>
      </trkpt>
      <trkpt lat="36.746998010203242" lon="-5.166099015623331">
        <ele>743.72000000000003</ele>
        <time>2025-05-09T10:15:52Z</time>
      </trkpt>
      <trkpt lat="36.746664997190237" lon="-5.16583900898695">
        <ele>744.67999999999995</ele>
        <time>2025-05-09T10:15:57Z</time>
      </trkpt>
      <trkpt lat="36.746516972780228" lon="-5.165720991790295">
        <ele>745.15999999999997</ele>
        <time>2025-05-09T10:16:00Z</time>
      </trkpt>
      <trkpt lat="36.746341036632657" lon="-5.165548995137215">
        <ele>747.08000000000004</ele>
        <time>2025-05-09T10:16:08Z</time>
      </trkpt>
      <trkpt lat="36.746297031641006" lon="-5.165499961003661">
        <ele>747.55999999999995</ele>
        <time>2025-05-09T10:16:10Z</time>
      </trkpt>
      <trkpt lat="36.746221007779241" lon="-5.16538898460567">
        <ele>747.08000000000004</ele>
        <time>2025-05-09T10:16:18Z</time>
      </trkpt>
      <trkpt lat="36.746221007779241" lon="-5.165301980450749">
        <ele>746.60000000000002</ele>
        <time>2025-05-09T10:16:26Z</time>
      </trkpt>
      <trkpt lat="36.746232993900776" lon="-5.165255041792989">
        <ele>746.12</ele>
        <time>2025-05-09T10:16:27Z</time>
      </trkpt>
      <trkpt lat="36.746307006105781" lon="-5.165162002667785">
        <ele>744.20000000000005</ele>
        <time>2025-05-09T10:16:41Z</time>
      </trkpt>
      <trkpt lat="36.746466010808945" lon="-5.164978019893169">
        <ele>744.67999999999995</ele>
        <time>2025-05-09T10:16:52Z</time>
      </trkpt>
      <trkpt lat="36.746683018282056" lon="-5.164550039917231">
        <ele>744.67999999999995</ele>
        <time>2025-05-09T10:17:02Z</time>
      </trkpt>
      <trkpt lat="36.746872030198574" lon="-5.164188025519252">
        <ele>745.15999999999997</ele>
        <time>2025-05-09T10:17:10Z</time>
      </trkpt>
      <trkpt lat="36.746947970241308" lon="-5.164050981402397">
        <ele>744.67999999999995</ele>
        <time>2025-05-09T10:17:20Z</time>
      </trkpt>
      <trkpt lat="36.747073028236628" lon="-5.163821987807751">
        <ele>743.24000000000001</ele>
        <time>2025-05-09T10:17:31Z</time>
      </trkpt>
      <trkpt lat="36.747121978551149" lon="-5.163724003359675">
        <ele>742.75999999999999</ele>
        <time>2025-05-09T10:17:33Z</time>
      </trkpt>
      <trkpt lat="36.747204959392548" lon="-5.163559969514608">
        <ele>742.27999999999997</ele>
        <time>2025-05-09T10:17:36Z</time>
      </trkpt>
      <trkpt lat="36.747225997969508" lon="-5.163508001714945">
        <ele>742.27999999999997</ele>
        <time>2025-05-09T10:17:37Z</time>
      </trkpt>
      <trkpt lat="36.747247958555818" lon="-5.16345402225852">
        <ele>741.78999999999996</ele>
        <time>2025-05-09T10:17:38Z</time>
      </trkpt>
      <trkpt lat="36.747266985476017" lon="-5.163404988124967">
        <ele>741.78999999999996</ele>
        <time>2025-05-09T10:17:39Z</time>
      </trkpt>
      <trkpt lat="36.747287018224597" lon="-5.163355031982064">
        <ele>741.78999999999996</ele>
        <time>2025-05-09T10:17:40Z</time>
      </trkpt>
      <trkpt lat="36.747311996296048" lon="-5.163300968706608">
        <ele>741.30999999999995</ele>
        <time>2025-05-09T10:17:41Z</time>
      </trkpt>
      <trkpt lat="36.747339991852641" lon="-5.163244977593422">
        <ele>740.83000000000004</ele>
        <time>2025-05-09T10:17:42Z</time>
      </trkpt>
      <trkpt lat="36.747367987409234" lon="-5.163188986480236">
        <ele>740.83000000000004</ele>
        <time>2025-05-09T10:17:43Z</time>
      </trkpt>
      <trkpt lat="36.747397994622588" lon="-5.163128972053528">
        <ele>740.35000000000002</ele>
        <time>2025-05-09T10:17:44Z</time>
      </trkpt>
      <trkpt lat="36.747630005702376" lon="-5.162686994299293">
        <ele>740.35000000000002</ele>
        <time>2025-05-09T10:17:52Z</time>
      </trkpt>
      <trkpt lat="36.747652972117066" lon="-5.162641983479261">
        <ele>740.35000000000002</ele>
        <time>2025-05-09T10:17:53Z</time>
      </trkpt>
      <trkpt lat="36.747719021514058" lon="-5.16250996850431">
        <ele>740.83000000000004</ele>
        <time>2025-05-09T10:17:56Z</time>
      </trkpt>
      <trkpt lat="36.747738970443606" lon="-5.162468980997801">
        <ele>740.83000000000004</ele>
        <time>2025-05-09T10:17:57Z</time>
      </trkpt>
      <trkpt lat="36.747760009020567" lon="-5.162427993491292">
        <ele>741.30999999999995</ele>
        <time>2025-05-09T10:17:58Z</time>
      </trkpt>
      <trkpt lat="36.747781969606876" lon="-5.162383988499641">
        <ele>741.30999999999995</ele>
        <time>2025-05-09T10:17:59Z</time>
      </trkpt>
      <trkpt lat="36.747804014012218" lon="-5.16233897767961">
        <ele>741.30999999999995</ele>
        <time>2025-05-09T10:18:00Z</time>
      </trkpt>
      <trkpt lat="36.74802697263658" lon="-5.161872021853924">
        <ele>740.83000000000004</ele>
        <time>2025-05-09T10:18:11Z</time>
      </trkpt>
      <trkpt lat="36.748030995950103" lon="-5.161770014092326">
        <ele>740.83000000000004</ele>
        <time>2025-05-09T10:18:16Z</time>
      </trkpt>
      <trkpt lat="36.748001994565129" lon="-5.161749981343746">
        <ele>740.83000000000004</ele>
        <time>2025-05-09T10:18:17Z</time>
      </trkpt>
      <trkpt lat="36.748000988736749" lon="-5.161748975515366">
        <ele>740.83000000000004</ele>
        <time>2025-05-09T10:18:18Z</time>
      </trkpt>
      <trkpt lat="36.747652972117066" lon="-5.161468014121056">
        <ele>741.30999999999995</ele>
        <time>2025-05-09T10:18:26Z</time>
      </trkpt>
      <trkpt lat="36.747181992977858" lon="-5.161104993894696">
        <ele>742.27999999999997</ele>
        <time>2025-05-09T10:18:36Z</time>
      </trkpt>
      <trkpt lat="36.746999016031623" lon="-5.160957975313067">
        <ele>742.75999999999999</ele>
        <time>2025-05-09T10:18:45Z</time>
      </trkpt>
      <trkpt lat="36.746459975838661" lon="-5.160566037520766">
        <ele>743.72000000000003</ele>
        <time>2025-05-09T10:18:56Z</time>
      </trkpt>
      <trkpt lat="36.746399961411953" lon="-5.160521026700735">
        <ele>744.67999999999995</ele>
        <time>2025-05-09T10:18:57Z</time>
      </trkpt>
      <trkpt lat="36.746344976127148" lon="-5.160478027537465">
        <ele>745.15999999999997</ele>
        <time>2025-05-09T10:18:58Z</time>
      </trkpt>
      <trkpt lat="36.746294014155865" lon="-5.160437040030956">
        <ele>746.12</ele>
        <time>2025-05-09T10:18:59Z</time>
      </trkpt>
      <trkpt lat="36.746245985850692" lon="-5.160399992018938">
        <ele>747.08000000000004</ele>
        <time>2025-05-09T10:19:00Z</time>
      </trkpt>
      <trkpt lat="36.74619996920228" lon="-5.160364033654332">
        <ele>747.55999999999995</ele>
        <time>2025-05-09T10:19:01Z</time>
      </trkpt>
      <trkpt lat="36.746150013059378" lon="-5.160324973985553">
        <ele>748.51999999999998</ele>
        <time>2025-05-09T10:19:02Z</time>
      </trkpt>
      <trkpt lat="36.746099973097444" lon="-5.160288009792566">
        <ele>749</ele>
        <time>2025-05-09T10:19:03Z</time>
      </trkpt>
      <trkpt lat="36.74604800529778" lon="-5.160250961780548">
        <ele>749.49000000000001</ele>
        <time>2025-05-09T10:19:04Z</time>
      </trkpt>
      <trkpt lat="36.745999976992607" lon="-5.160216009244323">
        <ele>750.45000000000005</ele>
        <time>2025-05-09T10:19:05Z</time>
      </trkpt>
      <trkpt lat="36.745956977829337" lon="-5.160172004252672">
        <ele>750.92999999999995</ele>
        <time>2025-05-09T10:19:06Z</time>
      </trkpt>
      <trkpt lat="36.745922025293112" lon="-5.160132022574544">
        <ele>751.40999999999997</ele>
        <time>2025-05-09T10:19:07Z</time>
      </trkpt>
      <trkpt lat="36.745886988937855" lon="-5.160091035068035">
        <ele>752.37</ele>
        <time>2025-05-09T10:19:08Z</time>
      </trkpt>
      <trkpt lat="36.745877014473081" lon="-5.159993972629309">
        <ele>753.33000000000004</ele>
        <time>2025-05-09T10:19:09Z</time>
      </trkpt>
      <trkpt lat="36.74589897505939" lon="-5.159925995394588">
        <ele>754.28999999999996</ele>
        <time>2025-05-09T10:19:10Z</time>
      </trkpt>
      <trkpt lat="36.745924958959222" lon="-5.159848965704441">
        <ele>754.76999999999998</ele>
        <time>2025-05-09T10:19:11Z</time>
      </trkpt>
      <trkpt lat="36.74594197422266" lon="-5.159798003733158">
        <ele>755.25</ele>
        <time>2025-05-09T10:19:12Z</time>
      </trkpt>
      <trkpt lat="36.74604800529778" lon="-5.159638999029994">
        <ele>755.73000000000002</ele>
        <time>2025-05-09T10:19:14Z</time>
      </trkpt>
      <trkpt lat="36.746604982763529" lon="-5.158680025488138">
        <ele>755.73000000000002</ele>
        <time>2025-05-09T10:19:24Z</time>
      </trkpt>
      <trkpt lat="36.74722901545465" lon="-5.157546037808061">
        <ele>761.01999999999998</ele>
        <time>2025-05-09T10:19:36Z</time>
      </trkpt>
      <trkpt lat="36.74748701043427" lon="-5.157118979841471">
        <ele>760.53999999999996</ele>
        <time>2025-05-09T10:19:42Z</time>
      </trkpt>
      <trkpt lat="36.747517017647624" lon="-5.157065000385046">
        <ele>760.53999999999996</ele>
        <time>2025-05-09T10:19:43Z</time>
      </trkpt>
      <trkpt lat="36.747548030689359" lon="-5.157010015100241">
        <ele>760.53999999999996</ele>
        <time>2025-05-09T10:19:44Z</time>
      </trkpt>
      <trkpt lat="36.74757300876081" lon="-5.15696500428021">
        <ele>760.53999999999996</ele>
        <time>2025-05-09T10:19:45Z</time>
      </trkpt>
      <trkpt lat="36.74757300876081" lon="-5.156846987083554">
        <ele>761.01999999999998</ele>
        <time>2025-05-09T10:19:46Z</time>
      </trkpt>
      <trkpt lat="36.747636962682009" lon="-5.15675101429224">
        <ele>761.01999999999998</ele>
        <time>2025-05-09T10:19:48Z</time>
      </trkpt>
      <trkpt lat="36.747731007635593" lon="-5.156684964895248">
        <ele>761.01999999999998</ele>
        <time>2025-05-09T10:19:49Z</time>
      </trkpt>
      <trkpt lat="36.74815597012639" lon="-5.155949033796787">
        <ele>761.98000000000002</ele>
        <time>2025-05-09T10:19:58Z</time>
      </trkpt>
      <trkpt lat="36.748553020879626" lon="-5.155217964202166">
        <ele>761.98000000000002</ele>
        <time>2025-05-09T10:20:07Z</time>
      </trkpt>
      <trkpt lat="36.749037997797132" lon="-5.154273994266987">
        <ele>759.10000000000002</ele>
        <time>2025-05-09T10:20:18Z</time>
      </trkpt>
      <trkpt lat="36.749178981408477" lon="-5.154034020379186">
        <ele>756.21000000000004</ele>
        <time>2025-05-09T10:20:21Z</time>
      </trkpt>
      <trkpt lat="36.74922700971365" lon="-5.153951039537787">
        <ele>754.76999999999998</ele>
        <time>2025-05-09T10:20:22Z</time>
      </trkpt>
      <trkpt lat="36.749524986371398" lon="-5.153446029871702">
        <ele>743.72000000000003</ele>
        <time>2025-05-09T10:20:30Z</time>
      </trkpt>
      <trkpt lat="36.749522974714637" lon="-5.153216030448675">
        <ele>740.83000000000004</ele>
        <time>2025-05-09T10:20:32Z</time>
      </trkpt>
      <trkpt lat="36.749563040211797" lon="-5.153134977445006">
        <ele>739.87</ele>
        <time>2025-05-09T10:20:33Z</time>
      </trkpt>
      <trkpt lat="36.74961500801146" lon="-5.153046967461705">
        <ele>738.42999999999995</ele>
        <time>2025-05-09T10:20:34Z</time>
      </trkpt>
      <trkpt lat="36.74983000382781" lon="-5.153002962470055">
        <ele>736.50999999999999</ele>
        <time>2025-05-09T10:20:36Z</time>
      </trkpt>
      <trkpt lat="36.750393016263843" lon="-5.152225960046053">
        <ele>734.58000000000004</ele>
        <time>2025-05-09T10:20:45Z</time>
      </trkpt>
      <trkpt lat="36.750455964356661" lon="-5.152151025831699">
        <ele>734.10000000000002</ele>
        <time>2025-05-09T10:20:46Z</time>
      </trkpt>
      <trkpt lat="36.750597031787038" lon="-5.152010964229703">
        <ele>733.13999999999999</ele>
        <time>2025-05-09T10:20:48Z</time>
      </trkpt>
      <trkpt lat="36.750668026506901" lon="-5.151938963681459">
        <ele>732.17999999999995</ele>
        <time>2025-05-09T10:20:49Z</time>
      </trkpt>
      <trkpt lat="36.751002967357635" lon="-5.15161600895226">
        <ele>731.22000000000003</ele>
        <time>2025-05-09T10:20:54Z</time>
      </trkpt>
      <trkpt lat="36.751067005097866" lon="-5.151561023667455">
        <ele>731.70000000000005</ele>
        <time>2025-05-09T10:20:55Z</time>
      </trkpt>
      <trkpt lat="36.751327011734247" lon="-5.151318032294512">
        <ele>733.62</ele>
        <time>2025-05-09T10:21:00Z</time>
      </trkpt>
      <trkpt lat="36.751457015052438" lon="-5.151086021214724">
        <ele>734.10000000000002</ele>
        <time>2025-05-09T10:21:03Z</time>
      </trkpt>
      <trkpt lat="36.751543013378978" lon="-5.150978984311223">
        <ele>735.07000000000005</ele>
        <time>2025-05-09T10:21:09Z</time>
      </trkpt>
      <trkpt lat="36.751543013378978" lon="-5.150978984311223">
        <ele>735.07000000000005</ele>
        <time>2025-05-09T10:21:10Z</time>
      </trkpt>
      <trkpt lat="36.751574026420712" lon="-5.151017960160971">
        <ele>735.07000000000005</ele>
        <time>2025-05-09T10:21:11Z</time>
      </trkpt>
      <trkpt lat="36.751703023910522" lon="-5.15103598125279">
        <ele>735.07000000000005</ele>
        <time>2025-05-09T10:21:13Z</time>
      </trkpt>
      <trkpt lat="36.751781981438398" lon="-5.150984013453126">
        <ele>734.58000000000004</ele>
        <time>2025-05-09T10:21:15Z</time>
      </trkpt>
      <trkpt lat="36.751821041107178" lon="-5.150957023724914">
        <ele>734.58000000000004</ele>
        <time>2025-05-09T10:21:16Z</time>
      </trkpt>
      <trkpt lat="36.75214902497828" lon="-5.150707997381687">
        <ele>734.10000000000002</ele>
        <time>2025-05-09T10:21:23Z</time>
      </trkpt>
      <trkpt lat="36.752254972234368" lon="-5.150624010711908">
        <ele>734.58000000000004</ele>
        <time>2025-05-09T10:21:25Z</time>
      </trkpt>
      <trkpt lat="36.752308029681444" lon="-5.150581011548638">
        <ele>734.58000000000004</ele>
        <time>2025-05-09T10:21:26Z</time>
      </trkpt>
      <trkpt lat="36.752614974975586" lon="-5.150341959670186">
        <ele>734.10000000000002</ele>
        <time>2025-05-09T10:21:34Z</time>
      </trkpt>
      <trkpt lat="36.752654034644365" lon="-5.150308012962341">
        <ele>734.58000000000004</ele>
        <time>2025-05-09T10:21:35Z</time>
      </trkpt>
      <trkpt lat="36.752727041020989" lon="-5.150244981050491">
        <ele>734.58000000000004</ele>
        <time>2025-05-09T10:21:37Z</time>
      </trkpt>
      <trkpt lat="36.752762999385595" lon="-5.150214973837137">
        <ele>734.58000000000004</ele>
        <time>2025-05-09T10:21:38Z</time>
      </trkpt>
      <trkpt lat="36.752799041569233" lon="-5.150183960795403">
        <ele>735.07000000000005</ele>
        <time>2025-05-09T10:21:39Z</time>
      </trkpt>
      <trkpt lat="36.752838017418981" lon="-5.150150014087558">
        <ele>735.07000000000005</ele>
        <time>2025-05-09T10:21:40Z</time>
      </trkpt>
      <trkpt lat="36.752881016582251" lon="-5.15011397190392">
        <ele>735.07000000000005</ele>
        <time>2025-05-09T10:21:41Z</time>
      </trkpt>
      <trkpt lat="36.75309500657022" lon="-5.149951027706265">
        <ele>735.54999999999995</ele>
        <time>2025-05-09T10:21:46Z</time>
      </trkpt>
      <trkpt lat="36.753407986834645" lon="-5.149638969451189">
        <ele>736.02999999999997</ele>
        <time>2025-05-09T10:21:56Z</time>
      </trkpt>
      <trkpt lat="36.753552993759513" lon="-5.149221969768405">
        <ele>733.62</ele>
        <time>2025-05-09T10:22:08Z</time>
      </trkpt>
      <trkpt lat="36.753604961559176" lon="-5.148813016712666">
        <ele>732.65999999999997</ele>
        <time>2025-05-09T10:22:18Z</time>
      </trkpt>
      <trkpt lat="36.753664975985885" lon="-5.148402974009514">
        <ele>732.17999999999995</ele>
        <time>2025-05-09T10:22:25Z</time>
      </trkpt>
      <trkpt lat="36.753684002906084" lon="-5.148333990946412">
        <ele>732.17999999999995</ele>
        <time>2025-05-09T10:22:26Z</time>
      </trkpt>
      <trkpt lat="36.753714010119438" lon="-5.148279005661607">
        <ele>732.17999999999995</ele>
        <time>2025-05-09T10:22:27Z</time>
      </trkpt>
      <trkpt lat="36.753757009282708" lon="-5.148214967921376">
        <ele>732.17999999999995</ele>
        <time>2025-05-09T10:22:28Z</time>
      </trkpt>
      <trkpt lat="36.753781987354159" lon="-5.148127041757107">
        <ele>732.17999999999995</ele>
        <time>2025-05-09T10:22:29Z</time>
      </trkpt>
      <trkpt lat="36.753792967647314" lon="-5.148045988753438">
        <ele>731.70000000000005</ele>
        <time>2025-05-09T10:22:30Z</time>
      </trkpt>
      <trkpt lat="36.75380595959723" lon="-5.147953033447266">
        <ele>731.70000000000005</ele>
        <time>2025-05-09T10:22:31Z</time>
      </trkpt>
      <trkpt lat="36.753892963752151" lon="-5.147658996284008">
        <ele>728.82000000000005</ele>
        <time>2025-05-09T10:22:34Z</time>
      </trkpt>
      <trkpt lat="36.754142995923758" lon="-5.146425012499094">
        <ele>724.49000000000001</ele>
        <time>2025-05-09T10:22:43Z</time>
      </trkpt>
      <trkpt lat="36.754280962049961" lon="-5.145546002313495">
        <ele>724.49000000000001</ele>
        <time>2025-05-09T10:22:51Z</time>
      </trkpt>
      <trkpt lat="36.754390010610223" lon="-5.144920963793993">
        <ele>725.45000000000005</ele>
        <time>2025-05-09T10:22:58Z</time>
      </trkpt>
      <trkpt lat="36.754409959539771" lon="-5.144804958254099">
        <ele>724.97000000000003</ele>
        <time>2025-05-09T10:22:59Z</time>
      </trkpt>
      <trkpt lat="36.754430998116732" lon="-5.14467696659267">
        <ele>724.97000000000003</ele>
        <time>2025-05-09T10:23:00Z</time>
      </trkpt>
      <trkpt lat="36.754591008648276" lon="-5.143438959494233">
        <ele>724.97000000000003</ele>
        <time>2025-05-09T10:23:08Z</time>
      </trkpt>
      <trkpt lat="36.754888985306025" lon="-5.141836004331708">
        <ele>726.88999999999999</ele>
        <time>2025-05-09T10:23:16Z</time>
      </trkpt>
      <trkpt lat="36.755230966955423" lon="-5.139989973977208">
        <ele>730.74000000000001</ele>
        <time>2025-05-09T10:23:25Z</time>
      </trkpt>
      <trkpt lat="36.755515029653907" lon="-5.138653982430697">
        <ele>732.17999999999995</ele>
        <time>2025-05-09T10:23:34Z</time>
      </trkpt>
      <trkpt lat="36.755745029076934" lon="-5.137829035520554">
        <ele>733.62</ele>
        <time>2025-05-09T10:23:43Z</time>
      </trkpt>
      <trkpt lat="36.75605901516974" lon="-5.13677098788321">
        <ele>736.02999999999997</ele>
        <time>2025-05-09T10:23:52Z</time>
      </trkpt>
      <trkpt lat="36.756321033462882" lon="-5.135167026892304">
        <ele>736.99000000000001</ele>
        <time>2025-05-09T10:24:01Z</time>
      </trkpt>
      <trkpt lat="36.756364032626152" lon="-5.134974997490645">
        <ele>736.50999999999999</ele>
        <time>2025-05-09T10:24:02Z</time>
      </trkpt>
      <trkpt lat="36.756412982940674" lon="-5.134778022766113">
        <ele>736.50999999999999</ele>
        <time>2025-05-09T10:24:03Z</time>
      </trkpt>
      <trkpt lat="36.757363993674517" lon="-5.132831996306777">
        <ele>736.50999999999999</ele>
        <time>2025-05-09T10:24:15Z</time>
      </trkpt>
      <trkpt lat="36.758426986634731" lon="-5.130495959892869">
        <ele>739.87</ele>
        <time>2025-05-09T10:24:28Z</time>
      </trkpt>
      <trkpt lat="36.759127965196967" lon="-5.128496959805489">
        <ele>741.78999999999996</ele>
        <time>2025-05-09T10:24:38Z</time>
      </trkpt>
      <trkpt lat="36.760032959282398" lon="-5.126189002767205">
        <ele>746.60000000000002</ele>
        <time>2025-05-09T10:24:49Z</time>
      </trkpt>
      <trkpt lat="36.76087299361825" lon="-5.124194025993347">
        <ele>746.12</ele>
        <time>2025-05-09T10:24:58Z</time>
      </trkpt>
      <trkpt lat="36.76181998103857" lon="-5.122448997572064">
        <ele>749.97000000000003</ele>
        <time>2025-05-09T10:25:05Z</time>
      </trkpt>
      <trkpt lat="36.763242976740003" lon="-5.119955968111754">
        <ele>756.21000000000004</ele>
        <time>2025-05-09T10:25:16Z</time>
      </trkpt>
      <trkpt lat="36.763920988887548" lon="-5.118752997368574">
        <ele>759.10000000000002</ele>
        <time>2025-05-09T10:25:23Z</time>
      </trkpt>
      <trkpt lat="36.764316027984023" lon="-5.117381969466806">
        <ele>759.58000000000004</ele>
        <time>2025-05-09T10:25:31Z</time>
      </trkpt>
      <trkpt lat="36.764677036553621" lon="-5.116183022037149">
        <ele>758.62</ele>
        <time>2025-05-09T10:25:38Z</time>
      </trkpt>
      <trkpt lat="36.765189003199339" lon="-5.114714009687305">
        <ele>755.73000000000002</ele>
        <time>2025-05-09T10:25:46Z</time>
      </trkpt>
      <trkpt lat="36.765782022848725" lon="-5.113082975149155">
        <ele>755.73000000000002</ele>
        <time>2025-05-09T10:25:54Z</time>
      </trkpt>
      <trkpt lat="36.766581991687417" lon="-5.110744005069137">
        <ele>759.10000000000002</ele>
        <time>2025-05-09T10:26:05Z</time>
      </trkpt>
      <trkpt lat="36.767306020483375" lon="-5.108813988044858">
        <ele>764.38999999999999</ele>
        <time>2025-05-09T10:26:15Z</time>
      </trkpt>
      <trkpt lat="36.768469009548426" lon="-5.107050016522408">
        <ele>771.60000000000002</ele>
        <time>2025-05-09T10:26:24Z</time>
      </trkpt>
      <trkpt lat="36.768776038661599" lon="-5.106681967154145">
        <ele>773.03999999999996</ele>
        <time>2025-05-09T10:26:26Z</time>
      </trkpt>
      <trkpt lat="36.770452000200748" lon="-5.104657988995314">
        <ele>781.69000000000005</ele>
        <time>2025-05-09T10:26:37Z</time>
      </trkpt>
      <trkpt lat="36.771046025678515" lon="-5.103732040151954">
        <ele>783.13</ele>
        <time>2025-05-09T10:26:42Z</time>
      </trkpt>
      <trkpt lat="36.771135041490197" lon="-5.10355300270021">
        <ele>783.13</ele>
        <time>2025-05-09T10:26:43Z</time>
      </trkpt>
      <trkpt lat="36.77120796404779" lon="-5.103358961641789">
        <ele>783.61000000000001</ele>
        <time>2025-05-09T10:26:44Z</time>
      </trkpt>
      <trkpt lat="36.771969962865114" lon="-5.101087968796492">
        <ele>787.94000000000005</ele>
        <time>2025-05-09T10:26:55Z</time>
      </trkpt>
      <trkpt lat="36.773138986900449" lon="-5.097935032099485">
        <ele>798.02999999999997</ele>
        <time>2025-05-09T10:27:10Z</time>
      </trkpt>
      <trkpt lat="36.773469988256693" lon="-5.096104005351663">
        <ele>809.09000000000003</ele>
        <time>2025-05-09T10:27:19Z</time>
      </trkpt>
      <trkpt lat="36.773509969934821" lon="-5.095941983163357">
        <ele>810.52999999999997</ele>
        <time>2025-05-09T10:27:20Z</time>
      </trkpt>
      <trkpt lat="36.773614995181561" lon="-5.095820026472211">
        <ele>811.97000000000003</ele>
        <time>2025-05-09T10:27:21Z</time>
      </trkpt>
      <trkpt lat="36.774422004818916" lon="-5.094860969111323">
        <ele>819.65999999999997</ele>
        <time>2025-05-09T10:27:28Z</time>
      </trkpt>
      <trkpt lat="36.774506997317076" lon="-5.094704981893301">
        <ele>820.62</ele>
        <time>2025-05-09T10:27:29Z</time>
      </trkpt>
      <trkpt lat="36.774574974551797" lon="-5.094526028260589">
        <ele>821.58000000000004</ele>
        <time>2025-05-09T10:27:30Z</time>
      </trkpt>
      <trkpt lat="36.774703972041607" lon="-5.094151021912694">
        <ele>823.50999999999999</ele>
        <time>2025-05-09T10:27:32Z</time>
      </trkpt>
      <trkpt lat="36.77481603808701" lon="-5.094025041908026">
        <ele>824.47000000000003</ele>
        <time>2025-05-09T10:27:33Z</time>
      </trkpt>
      <trkpt lat="36.774933971464634" lon="-5.093918005004525">
        <ele>825.42999999999995</ele>
        <time>2025-05-09T10:27:34Z</time>
      </trkpt>
      <trkpt lat="36.775081995874643" lon="-5.093862013891339">
        <ele>826.38999999999999</ele>
        <time>2025-05-09T10:27:35Z</time>
      </trkpt>
      <trkpt lat="36.775241000577807" lon="-5.093813985586166">
        <ele>827.83000000000004</ele>
        <time>2025-05-09T10:27:36Z</time>
      </trkpt>
      <trkpt lat="36.776695009320974" lon="-5.093431016430259">
        <ele>840.33000000000004</ele>
        <time>2025-05-09T10:27:44Z</time>
      </trkpt>
      <trkpt lat="36.777004972100258" lon="-5.093365972861648">
        <ele>843.21000000000004</ele>
        <time>2025-05-09T10:27:46Z</time>
      </trkpt>
      <trkpt lat="36.77713799290359" lon="-5.093288021162152">
        <ele>844.65999999999997</ele>
        <time>2025-05-09T10:27:47Z</time>
      </trkpt>
      <trkpt lat="36.777270007878542" lon="-5.093207973986864">
        <ele>846.10000000000002</ele>
        <time>2025-05-09T10:27:48Z</time>
      </trkpt>
      <trkpt lat="36.777399005368352" lon="-5.093129016458988">
        <ele>847.05999999999995</ele>
        <time>2025-05-09T10:27:49Z</time>
      </trkpt>
      <trkpt lat="36.777492966502905" lon="-5.09300597012043">
        <ele>848.5</ele>
        <time>2025-05-09T10:27:50Z</time>
      </trkpt>
      <trkpt lat="36.777581982314587" lon="-5.092890970408917">
        <ele>849.46000000000004</ele>
        <time>2025-05-09T10:27:51Z</time>
      </trkpt>
      <trkpt lat="36.77763001061976" lon="-5.092759039252996">
        <ele>850.41999999999996</ele>
        <time>2025-05-09T10:27:52Z</time>
      </trkpt>
      <trkpt lat="36.777659012004733" lon="-5.092593999579549">
        <ele>851.38</ele>
        <time>2025-05-09T10:27:53Z</time>
      </trkpt>
      <trkpt lat="36.777689019218087" lon="-5.092428959906101">
        <ele>852.35000000000002</ele>
        <time>2025-05-09T10:27:54Z</time>
      </trkpt>
      <trkpt lat="36.777715003117919" lon="-5.092280013486743">
        <ele>853.30999999999995</ele>
        <time>2025-05-09T10:27:55Z</time>
      </trkpt>
      <trkpt lat="36.777692958712578" lon="-5.09214498102665">
        <ele>854.26999999999998</ele>
        <time>2025-05-09T10:27:56Z</time>
      </trkpt>
      <trkpt lat="36.777657000347972" lon="-5.092008020728827">
        <ele>854.75</ele>
        <time>2025-05-09T10:27:57Z</time>
      </trkpt>
      <trkpt lat="36.777593968436122" lon="-5.09186401963234">
        <ele>855.23000000000002</ele>
        <time>2025-05-09T10:27:58Z</time>
      </trkpt>
      <trkpt lat="36.77750201895833" lon="-5.091722030192614">
        <ele>856.19000000000005</ele>
        <time>2025-05-09T10:27:59Z</time>
      </trkpt>
      <trkpt lat="36.777399005368352" lon="-5.091562019661069">
        <ele>856.66999999999996</ele>
        <time>2025-05-09T10:28:00Z</time>
      </trkpt>
      <trkpt lat="36.777270007878542" lon="-5.091424975544214">
        <ele>857.14999999999998</ele>
        <time>2025-05-09T10:28:01Z</time>
      </trkpt>
      <trkpt lat="36.775954971089959" lon="-5.09001899510622">
        <ele>862.91999999999996</ele>
        <time>2025-05-09T10:28:10Z</time>
      </trkpt>
      <trkpt lat="36.775258015841246" lon="-5.089355986565352">
        <ele>865.32000000000005</ele>
        <time>2025-05-09T10:28:15Z</time>
      </trkpt>
      <trkpt lat="36.775099011138082" lon="-5.089233024045825">
        <ele>865.79999999999995</ele>
        <time>2025-05-09T10:28:16Z</time>
      </trkpt>
      <trkpt lat="36.77494402974844" lon="-5.089100003242493">
        <ele>866.28999999999996</ele>
        <time>2025-05-09T10:28:17Z</time>
      </trkpt>
      <trkpt lat="36.774808997288346" lon="-5.088930018246174">
        <ele>866.76999999999998</ele>
        <time>2025-05-09T10:28:18Z</time>
      </trkpt>
      <trkpt lat="36.774672036990523" lon="-5.088758021593094">
        <ele>867.25</ele>
        <time>2025-05-09T10:28:19Z</time>
      </trkpt>
      <trkpt lat="36.77453700453043" lon="-5.088587030768395">
        <ele>867.73000000000002</ele>
        <time>2025-05-09T10:28:20Z</time>
      </trkpt>
      <trkpt lat="36.773579958826303" lon="-5.087585980072618">
        <ele>871.09000000000003</ele>
        <time>2025-05-09T10:28:27Z</time>
      </trkpt>
      <trkpt lat="36.772316973656416" lon="-5.086374962702394">
        <ele>877.34000000000003</ele>
        <time>2025-05-09T10:28:38Z</time>
      </trkpt>
      <trkpt lat="36.772243967279792" lon="-5.086268009617925">
        <ele>877.82000000000005</ele>
        <time>2025-05-09T10:28:39Z</time>
      </trkpt>
      <trkpt lat="36.772184958681464" lon="-5.086133982986212">
        <ele>878.29999999999995</ele>
        <time>2025-05-09T10:28:40Z</time>
      </trkpt>
      <trkpt lat="36.772157968953252" lon="-5.085987970232964">
        <ele>878.77999999999997</ele>
        <time>2025-05-09T10:28:41Z</time>
      </trkpt>
      <trkpt lat="36.772156963124871" lon="-5.085867019370198">
        <ele>879.25999999999999</ele>
        <time>2025-05-09T10:28:42Z</time>
      </trkpt>
      <trkpt lat="36.772207003086805" lon="-5.085767023265362">
        <ele>879.74000000000001</ele>
        <time>2025-05-09T10:28:43Z</time>
      </trkpt>
      <trkpt lat="36.772255031391978" lon="-5.085679013282061">
        <ele>880.22000000000003</ele>
        <time>2025-05-09T10:28:44Z</time>
      </trkpt>
      <trkpt lat="36.772357039153576" lon="-5.085612963885069">
        <ele>880.22000000000003</ele>
        <time>2025-05-09T10:28:45Z</time>
      </trkpt>
      <trkpt lat="36.772472038865089" lon="-5.085540041327477">
        <ele>880.22000000000003</ele>
        <time>2025-05-09T10:28:46Z</time>
      </trkpt>
      <trkpt lat="36.772584021091461" lon="-5.08543903939426">
        <ele>880.22000000000003</ele>
        <time>2025-05-09T10:28:47Z</time>
      </trkpt>
      <trkpt lat="36.772634983062744" lon="-5.085361003875732">
        <ele>879.74000000000001</ele>
        <time>2025-05-09T10:28:48Z</time>
      </trkpt>
      <trkpt lat="36.772663984447718" lon="-5.085169980302453">
        <ele>880.22000000000003</ele>
        <time>2025-05-09T10:28:49Z</time>
      </trkpt>
      <trkpt lat="36.772812008857727" lon="-5.084185022860766">
        <ele>885.02999999999997</ele>
        <time>2025-05-09T10:28:54Z</time>
      </trkpt>
      <trkpt lat="36.772861965000629" lon="-5.083968015387654">
        <ele>885.99000000000001</ele>
        <time>2025-05-09T10:28:55Z</time>
      </trkpt>
      <trkpt lat="36.772928014397621" lon="-5.083756037056446">
        <ele>887.42999999999995</ele>
        <time>2025-05-09T10:28:56Z</time>
      </trkpt>
      <trkpt lat="36.773018036037683" lon="-5.083556966856122">
        <ele>888.39999999999998</ele>
        <time>2025-05-09T10:28:57Z</time>
      </trkpt>
      <trkpt lat="36.773108979687095" lon="-5.083364015445113">
        <ele>889.84000000000003</ele>
        <time>2025-05-09T10:28:58Z</time>
      </trkpt>
      <trkpt lat="36.773224985226989" lon="-5.083187995478511">
        <ele>891.75999999999999</ele>
        <time>2025-05-09T10:28:59Z</time>
      </trkpt>
      <trkpt lat="36.773345014080405" lon="-5.083018010482192">
        <ele>893.20000000000005</ele>
        <time>2025-05-09T10:29:00Z</time>
      </trkpt>
      <trkpt lat="36.773579036816955" lon="-5.082688014954329">
        <ele>896.57000000000005</ele>
        <time>2025-05-09T10:29:02Z</time>
      </trkpt>
      <trkpt lat="36.773667968809605" lon="-5.082501014694572">
        <ele>898.49000000000001</ele>
        <time>2025-05-09T10:29:03Z</time>
      </trkpt>
      <trkpt lat="36.773741981014609" lon="-5.08230596780777">
        <ele>899.92999999999995</ele>
        <time>2025-05-09T10:29:04Z</time>
      </trkpt>
      <trkpt lat="36.773794032633305" lon="-5.082099018618465">
        <ele>901.37</ele>
        <time>2025-05-09T10:29:05Z</time>
      </trkpt>
      <trkpt lat="36.77380702458322" lon="-5.081886034458876">
        <ele>903.29999999999995</ele>
        <time>2025-05-09T10:29:06Z</time>
      </trkpt>
      <trkpt lat="36.773789003491402" lon="-5.081672966480255">
        <ele>904.74000000000001</ele>
        <time>2025-05-09T10:29:07Z</time>
      </trkpt>
      <trkpt lat="36.773733012378216" lon="-5.081460988149047">
        <ele>906.17999999999995</ele>
        <time>2025-05-09T10:29:08Z</time>
      </trkpt>
      <trkpt lat="36.773675009608269" lon="-5.081243980675936">
        <ele>908.10000000000002</ele>
        <time>2025-05-09T10:29:09Z</time>
      </trkpt>
      <trkpt lat="36.773450961336493" lon="-5.080404030159116">
        <ele>913.87</ele>
        <time>2025-05-09T10:29:13Z</time>
      </trkpt>
      <trkpt lat="36.773444004356861" lon="-5.080200014635921">
        <ele>915.30999999999995</ele>
        <time>2025-05-09T10:29:14Z</time>
      </trkpt>
      <trkpt lat="36.773430006578565" lon="-5.079805981367827">
        <ele>917.72000000000003</ele>
        <time>2025-05-09T10:29:16Z</time>
      </trkpt>
      <trkpt lat="36.773388013243675" lon="-5.079637002199888">
        <ele>919.15999999999997</ele>
        <time>2025-05-09T10:29:17Z</time>
      </trkpt>
      <trkpt lat="36.773302014917135" lon="-5.079504987224937">
        <ele>920.60000000000002</ele>
        <time>2025-05-09T10:29:18Z</time>
      </trkpt>
      <trkpt lat="36.773222973570228" lon="-5.079386970028281">
        <ele>922.03999999999996</ele>
        <time>2025-05-09T10:29:19Z</time>
      </trkpt>
      <trkpt lat="36.773185003548861" lon="-5.079254033043981">
        <ele>923</ele>
        <time>2025-05-09T10:29:20Z</time>
      </trkpt>
      <trkpt lat="36.773189026862383" lon="-5.079130986705422">
        <ele>924.45000000000005</ele>
        <time>2025-05-09T10:29:21Z</time>
      </trkpt>
      <trkpt lat="36.773223979398608" lon="-5.078985979780555">
        <ele>925.40999999999997</ele>
        <time>2025-05-09T10:29:22Z</time>
      </trkpt>
      <trkpt lat="36.773263961076736" lon="-5.078821023926139">
        <ele>926.37</ele>
        <time>2025-05-09T10:29:23Z</time>
      </trkpt>
      <trkpt lat="36.773627987131476" lon="-5.077655017375946">
        <ele>934.53999999999996</ele>
        <time>2025-05-09T10:29:29Z</time>
      </trkpt>
      <trkpt lat="36.773686995729804" lon="-5.077486038208008">
        <ele>935.98000000000002</ele>
        <time>2025-05-09T10:29:30Z</time>
      </trkpt>
      <trkpt lat="36.773782968521118" lon="-5.077348994091153">
        <ele>937.41999999999996</ele>
        <time>2025-05-09T10:29:31Z</time>
      </trkpt>
      <trkpt lat="36.773886987939477" lon="-5.077248997986317">
        <ele>938.38</ele>
        <time>2025-05-09T10:29:32Z</time>
      </trkpt>
      <trkpt lat="36.774014979600906" lon="-5.07719099521637">
        <ele>939.83000000000004</ele>
        <time>2025-05-09T10:29:33Z</time>
      </trkpt>
      <trkpt lat="36.77415101788938" lon="-5.07717096246779">
        <ele>940.78999999999996</ele>
        <time>2025-05-09T10:29:34Z</time>
      </trkpt>
      <trkpt lat="36.77430298179388" lon="-5.077183032408357">
        <ele>942.23000000000002</ele>
        <time>2025-05-09T10:29:35Z</time>
      </trkpt>
      <trkpt lat="36.774465003982186" lon="-5.077198036015034">
        <ele>942.71000000000004</ele>
        <time>2025-05-09T10:29:36Z</time>
      </trkpt>
      <trkpt lat="36.774959033355117" lon="-5.077207004651427">
        <ele>943.66999999999996</ele>
        <time>2025-05-09T10:29:39Z</time>
      </trkpt>
      <trkpt lat="36.775118038058281" lon="-5.077181020751596">
        <ele>944.14999999999998</ele>
        <time>2025-05-09T10:29:40Z</time>
      </trkpt>
      <trkpt lat="36.775232031941414" lon="-5.077099967747927">
        <ele>944.14999999999998</ele>
        <time>2025-05-09T10:29:41Z</time>
      </trkpt>
      <trkpt lat="36.775346025824547" lon="-5.076970970258117">
        <ele>943.66999999999996</ele>
        <time>2025-05-09T10:29:42Z</time>
      </trkpt>
      <trkpt lat="36.775436969473958" lon="-5.076820012181997">
        <ele>943.19000000000005</ele>
        <time>2025-05-09T10:29:43Z</time>
      </trkpt>
      <trkpt lat="36.77550402469933" lon="-5.076641980558634">
        <ele>942.71000000000004</ele>
        <time>2025-05-09T10:29:44Z</time>
      </trkpt>
      <trkpt lat="36.775575019419193" lon="-5.076454980298877">
        <ele>942.23000000000002</ele>
        <time>2025-05-09T10:29:45Z</time>
      </trkpt>
      <trkpt lat="36.775635033845901" lon="-5.076248031109572">
        <ele>941.26999999999998</ele>
        <time>2025-05-09T10:29:46Z</time>
      </trkpt>
      <trkpt lat="36.776139037683606" lon="-5.074492022395134">
        <ele>934.53999999999996</ele>
        <time>2025-05-09T10:29:53Z</time>
      </trkpt>
      <trkpt lat="36.776810009032488" lon="-5.07171199657023">
        <ele>933.58000000000004</ele>
        <time>2025-05-09T10:30:03Z</time>
      </trkpt>
      <trkpt lat="36.777358017861843" lon="-5.068046003580093">
        <ele>944.14999999999998</ele>
        <time>2025-05-09T10:30:16Z</time>
      </trkpt>
      <trkpt lat="36.777677033096552" lon="-5.066225035116077">
        <ele>952.32000000000005</ele>
        <time>2025-05-09T10:30:23Z</time>
      </trkpt>
      <trkpt lat="36.777746016159654" lon="-5.066053038462997">
        <ele>953.76999999999998</ele>
        <time>2025-05-09T10:30:24Z</time>
      </trkpt>
      <trkpt lat="36.777870990335941" lon="-5.065855979919434">
        <ele>954.73000000000002</ele>
        <time>2025-05-09T10:30:25Z</time>
      </trkpt>
      <trkpt lat="36.778852008283138" lon="-5.064831962808967">
        <ele>959.04999999999995</ele>
        <time>2025-05-09T10:30:31Z</time>
      </trkpt>
      <trkpt lat="36.779465982690454" lon="-5.064155962318182">
        <ele>961.46000000000004</ele>
        <time>2025-05-09T10:30:35Z</time>
      </trkpt>
      <trkpt lat="36.779545024037361" lon="-5.064054038375616">
        <ele>961.94000000000005</ele>
        <time>2025-05-09T10:30:36Z</time>
      </trkpt>
      <trkpt lat="36.779607972130179" lon="-5.06384801119566">
        <ele>962.41999999999996</ele>
        <time>2025-05-09T10:30:37Z</time>
      </trkpt>
      <trkpt lat="36.779632028192282" lon="-5.063680959865451">
        <ele>962.89999999999998</ele>
        <time>2025-05-09T10:30:38Z</time>
      </trkpt>
      <trkpt lat="36.779634961858392" lon="-5.063479039818049">
        <ele>963.38</ele>
        <time>2025-05-09T10:30:39Z</time>
      </trkpt>
      <trkpt lat="36.779689025133848" lon="-5.062012961134315">
        <ele>965.77999999999997</ele>
        <time>2025-05-09T10:30:45Z</time>
      </trkpt>
      <trkpt lat="36.779729006811976" lon="-5.061797965317965">
        <ele>965.77999999999997</ele>
        <time>2025-05-09T10:30:46Z</time>
      </trkpt>
      <trkpt lat="36.779829002916813" lon="-5.061608031392098">
        <ele>966.25999999999999</ele>
        <time>2025-05-09T10:30:47Z</time>
      </trkpt>
      <trkpt lat="36.779936961829662" lon="-5.061407033354044">
        <ele>966.25999999999999</ele>
        <time>2025-05-09T10:30:48Z</time>
      </trkpt>
      <trkpt lat="36.780089009553194" lon="-5.061235958710313">
        <ele>966.25999999999999</ele>
        <time>2025-05-09T10:30:49Z</time>
      </trkpt>
      <trkpt lat="36.780250025913119" lon="-5.061054993420839">
        <ele>966.74000000000001</ele>
        <time>2025-05-09T10:30:50Z</time>
      </trkpt>
      <trkpt lat="36.781658018007874" lon="-5.059393029659987">
        <ele>970.59000000000003</ele>
        <time>2025-05-09T10:30:58Z</time>
      </trkpt>
      <trkpt lat="36.782823018729687" lon="-5.057392017915845">
        <ele>976.36000000000001</ele>
        <time>2025-05-09T10:31:06Z</time>
      </trkpt>
      <trkpt lat="36.783247981220484" lon="-5.056654997169972">
        <ele>978.27999999999997</ele>
        <time>2025-05-09T10:31:10Z</time>
      </trkpt>
      <trkpt lat="36.783344959840178" lon="-5.056525999680162">
        <ele>979.24000000000001</ele>
        <time>2025-05-09T10:31:11Z</time>
      </trkpt>
      <trkpt lat="36.783482003957033" lon="-5.056427009403706">
        <ele>980.20000000000005</ele>
        <time>2025-05-09T10:31:12Z</time>
      </trkpt>
      <trkpt lat="36.783649977296591" lon="-5.056377975270152">
        <ele>981.15999999999997</ele>
        <time>2025-05-09T10:31:13Z</time>
      </trkpt>
      <trkpt lat="36.783829014748335" lon="-5.056326007470489">
        <ele>981.63999999999999</ele>
        <time>2025-05-09T10:31:14Z</time>
      </trkpt>
      <trkpt lat="36.784000005573034" lon="-5.056266998872161">
        <ele>982.60000000000002</ele>
        <time>2025-05-09T10:31:15Z</time>
      </trkpt>
      <trkpt lat="36.784165967255831" lon="-5.056172031909227">
        <ele>984.04999999999995</ele>
        <time>2025-05-09T10:31:16Z</time>
      </trkpt>
      <trkpt lat="36.785355024039745" lon="-5.055150026455522">
        <ele>990.29999999999995</ele>
        <time>2025-05-09T10:31:23Z</time>
      </trkpt>
      <trkpt lat="36.785502964630723" lon="-5.055031003430486">
        <ele>991.25999999999999</ele>
        <time>2025-05-09T10:31:24Z</time>
      </trkpt>
      <trkpt lat="36.785642020404339" lon="-5.054922960698605">
        <ele>992.70000000000005</ele>
        <time>2025-05-09T10:31:25Z</time>
      </trkpt>
      <trkpt lat="36.785826003178954" lon="-5.054873004555702">
        <ele>993.65999999999997</ele>
        <time>2025-05-09T10:31:26Z</time>
      </trkpt>
      <trkpt lat="36.786321038380265" lon="-5.054753981530666">
        <ele>997.01999999999998</ele>
        <time>2025-05-09T10:31:29Z</time>
      </trkpt>
      <trkpt lat="36.786426985636353" lon="-5.054692039266229">
        <ele>998.47000000000003</ele>
        <time>2025-05-09T10:31:30Z</time>
      </trkpt>
      <trkpt lat="36.786487000063062" lon="-5.054609980434179">
        <ele>999.90999999999997</ele>
        <time>2025-05-09T10:31:31Z</time>
      </trkpt>
      <trkpt lat="36.786545002833009" lon="-5.054485006257892">
        <ele>1000.87</ele>
        <time>2025-05-09T10:31:32Z</time>
      </trkpt>
      <trkpt lat="36.786586996167898" lon="-5.054322984069586">
        <ele>1001.83</ele>
        <time>2025-05-09T10:31:33Z</time>
      </trkpt>
      <trkpt lat="36.786966025829315" lon="-5.052822958678007">
        <ele>1010.48</ele>
        <time>2025-05-09T10:31:40Z</time>
      </trkpt>
      <trkpt lat="36.78738403134048" lon="-5.051506999880076">
        <ele>1019.13</ele>
        <time>2025-05-09T10:31:46Z</time>
      </trkpt>
      <trkpt lat="36.787443039938807" lon="-5.051321005448699">
        <ele>1020.58</ele>
        <time>2025-05-09T10:31:47Z</time>
      </trkpt>
      <trkpt lat="36.78745100274682" lon="-5.051138028502464">
        <ele>1022.02</ele>
        <time>2025-05-09T10:31:48Z</time>
      </trkpt>
      <trkpt lat="36.787459971383214" lon="-5.050955973565579">
        <ele>1023.46</ele>
        <time>2025-05-09T10:31:49Z</time>
      </trkpt>
      <trkpt lat="36.787420995533466" lon="-5.05076696164906">
        <ele>1024.9000000000001</ele>
        <time>2025-05-09T10:31:50Z</time>
      </trkpt>
      <trkpt lat="36.787368021905422" lon="-5.050596976652741">
        <ele>1025.8599999999999</ele>
        <time>2025-05-09T10:31:51Z</time>
      </trkpt>
      <trkpt lat="36.787274982780218" lon="-5.050406036898494">
        <ele>1027.79</ele>
        <time>2025-05-09T10:31:52Z</time>
      </trkpt>
      <trkpt lat="36.786970971152186" lon="-5.049846963956952">
        <ele>1032.5899999999999</ele>
        <time>2025-05-09T10:31:55Z</time>
      </trkpt>
      <trkpt lat="36.786857983097434" lon="-5.049717966467142">
        <ele>1034.04</ele>
        <time>2025-05-09T10:31:56Z</time>
      </trkpt>
      <trkpt lat="36.786615997552872" lon="-5.049440022557974">
        <ele>1037.4000000000001</ele>
        <time>2025-05-09T10:31:58Z</time>
      </trkpt>
      <trkpt lat="36.786056002601981" lon="-5.048666959628463">
        <ele>1046.05</ele>
        <time>2025-05-09T10:32:04Z</time>
      </trkpt>
      <trkpt lat="36.786024989560246" lon="-5.048561012372375">
        <ele>1047.01</ele>
        <time>2025-05-09T10:32:05Z</time>
      </trkpt>
      <trkpt lat="36.786024989560246" lon="-5.048437966033816">
        <ele>1048.45</ele>
        <time>2025-05-09T10:32:06Z</time>
      </trkpt>
      <trkpt lat="36.786052985116839" lon="-5.048348028212786">
        <ele>1049.4200000000001</ele>
        <time>2025-05-09T10:32:07Z</time>
      </trkpt>
      <trkpt lat="36.786110987886786" lon="-5.048261024057865">
        <ele>1049.9000000000001</ele>
        <time>2025-05-09T10:32:08Z</time>
      </trkpt>
      <trkpt lat="36.786210983991623" lon="-5.048226993530989">
        <ele>1050.8599999999999</ele>
        <time>2025-05-09T10:32:09Z</time>
      </trkpt>
      <trkpt lat="36.786323972046375" lon="-5.048225987702608">
        <ele>1051.3399999999999</ele>
        <time>2025-05-09T10:32:10Z</time>
      </trkpt>
      <trkpt lat="36.786467973142862" lon="-5.048240991309285">
        <ele>1051.8199999999999</ele>
        <time>2025-05-09T10:32:11Z</time>
      </trkpt>
      <trkpt lat="36.786614991724491" lon="-5.048254989087582">
        <ele>1052.3</ele>
        <time>2025-05-09T10:32:12Z</time>
      </trkpt>
      <trkpt lat="36.786710964515805" lon="-5.048326989635825">
        <ele>1052.78</ele>
        <time>2025-05-09T10:32:13Z</time>
      </trkpt>
      <trkpt lat="36.786795035004616" lon="-5.048462022095919">
        <ele>1053.26</ele>
        <time>2025-05-09T10:32:14Z</time>
      </trkpt>
      <trkpt lat="36.786878015846014" lon="-5.04859303124249">
        <ele>1054.22</ele>
        <time>2025-05-09T10:32:15Z</time>
      </trkpt>
      <trkpt lat="36.78695697337389" lon="-5.048719011247158">
        <ele>1055.1800000000001</ele>
        <time>2025-05-09T10:32:16Z</time>
      </trkpt>
      <trkpt lat="36.787034003064036" lon="-5.048839962109923">
        <ele>1055.6700000000001</ele>
        <time>2025-05-09T10:32:17Z</time>
      </trkpt>
      <trkpt lat="36.787153026089072" lon="-5.048924032598734">
        <ele>1056.6300000000001</ele>
        <time>2025-05-09T10:32:18Z</time>
      </trkpt>
      <trkpt lat="36.787262996658683" lon="-5.048996033146977">
        <ele>1058.0699999999999</ele>
        <time>2025-05-09T10:32:19Z</time>
      </trkpt>
      <trkpt lat="36.78738503716886" lon="-5.049041965976358">
        <ele>1058.55</ele>
        <time>2025-05-09T10:32:20Z</time>
      </trkpt>
      <trkpt lat="36.787526020780206" lon="-5.049055041745305">
        <ele>1059.51</ele>
        <time>2025-05-09T10:32:21Z</time>
      </trkpt>
      <trkpt lat="36.787667004391551" lon="-5.049055041745305">
        <ele>1060.47</ele>
        <time>2025-05-09T10:32:22Z</time>
      </trkpt>
      <trkpt lat="36.787808993831277" lon="-5.048988992348313">
        <ele>1061.4300000000001</ele>
        <time>2025-05-09T10:32:23Z</time>
      </trkpt>
      <trkpt lat="36.787945032119751" lon="-5.048908023163676">
        <ele>1062.8699999999999</ele>
        <time>2025-05-09T10:32:24Z</time>
      </trkpt>
      <trkpt lat="36.788076041266322" lon="-5.048829987645149">
        <ele>1063.8399999999999</ele>
        <time>2025-05-09T10:32:25Z</time>
      </trkpt>
      <trkpt lat="36.788469990715384" lon="-5.0485959649086">
        <ele>1068.1600000000001</ele>
        <time>2025-05-09T10:32:29Z</time>
      </trkpt>
      <trkpt lat="36.788548026233912" lon="-5.048577021807432">
        <ele>1069.1199999999999</ele>
        <time>2025-05-09T10:32:30Z</time>
      </trkpt>
      <trkpt lat="36.788630001246929" lon="-5.048567969352007">
        <ele>1070.0799999999999</ele>
        <time>2025-05-09T10:32:31Z</time>
      </trkpt>
      <trkpt lat="36.788838962092996" lon="-5.048546008765698">
        <ele>1072.97</ele>
        <time>2025-05-09T10:32:34Z</time>
      </trkpt>
      <trkpt lat="36.788899982348084" lon="-5.048539973795414">
        <ele>1073.9300000000001</ele>
        <time>2025-05-09T10:32:35Z</time>
      </trkpt>
      <trkpt lat="36.788941975682974" lon="-5.048474008217454">
        <ele>1074.8900000000001</ele>
        <time>2025-05-09T10:32:36Z</time>
      </trkpt>
      <trkpt lat="36.78897600620985" lon="-5.048420028761029">
        <ele>1075.3699999999999</ele>
        <time>2025-05-09T10:32:37Z</time>
      </trkpt>
      <trkpt lat="36.789010036736727" lon="-5.048367977142334">
        <ele>1076.3299999999999</ele>
        <time>2025-05-09T10:32:38Z</time>
      </trkpt>
      <trkpt lat="36.789044989272952" lon="-5.048311986029148">
        <ele>1077.29</ele>
        <time>2025-05-09T10:32:39Z</time>
      </trkpt>
      <trkpt lat="36.78906200453639" lon="-5.048243002966046">
        <ele>1077.78</ele>
        <time>2025-05-09T10:32:40Z</time>
      </trkpt>
      <trkpt lat="36.789076002314687" lon="-5.048162033781409">
        <ele>1078.74</ele>
        <time>2025-05-09T10:32:41Z</time>
      </trkpt>
      <trkpt lat="36.789093017578125" lon="-5.048067988827825">
        <ele>1079.22</ele>
        <time>2025-05-09T10:32:42Z</time>
      </trkpt>
      <trkpt lat="36.789079019799829" lon="-5.047962041571736">
        <ele>1079.7</ele>
        <time>2025-05-09T10:32:43Z</time>
      </trkpt>
      <trkpt lat="36.789063010364771" lon="-5.047847963869572">
        <ele>1079.7</ele>
        <time>2025-05-09T10:32:44Z</time>
      </trkpt>
      <trkpt lat="36.78886704146862" lon="-5.046623032540083">
        <ele>1076.3299999999999</ele>
        <time>2025-05-09T10:32:55Z</time>
      </trkpt>
      <trkpt lat="36.788833010941744" lon="-5.046548014506698">
        <ele>1076.3299999999999</ele>
        <time>2025-05-09T10:32:56Z</time>
      </trkpt>
      <trkpt lat="36.78880300372839" lon="-5.046484982594848">
        <ele>1075.8499999999999</ele>
        <time>2025-05-09T10:32:57Z</time>
      </trkpt>
      <trkpt lat="36.788768973201513" lon="-5.046411976218224">
        <ele>1074.8900000000001</ele>
        <time>2025-05-09T10:33:04Z</time>
      </trkpt>
      <trkpt lat="36.788749024271965" lon="-5.046367971226573">
        <ele>1073.45</ele>
        <time>2025-05-09T10:33:30Z</time>
      </trkpt>
      <trkpt lat="36.788681969046593" lon="-5.046221958473325">
        <ele>1071.53</ele>
        <time>2025-05-09T10:33:32Z</time>
      </trkpt>
      <trkpt lat="36.788505027070642" lon="-5.045839995145798">
        <ele>1069.5999999999999</ele>
        <time>2025-05-09T10:33:35Z</time>
      </trkpt>
      <trkpt lat="36.788499997928739" lon="-5.045683002099395">
        <ele>1068.1600000000001</ele>
        <time>2025-05-09T10:33:36Z</time>
      </trkpt>
      <trkpt lat="36.788510978221893" lon="-5.045505976304412">
        <ele>1067.6800000000001</ele>
        <time>2025-05-09T10:33:37Z</time>
      </trkpt>
      <trkpt lat="36.788561018183827" lon="-5.0453270226717">
        <ele>1066.72</ele>
        <time>2025-05-09T10:33:38Z</time>
      </trkpt>
      <trkpt lat="36.788630001246929" lon="-5.045144967734814">
        <ele>1065.76</ele>
        <time>2025-05-09T10:33:39Z</time>
      </trkpt>
      <trkpt lat="36.788708036765456" lon="-5.044959979131818">
        <ele>1064.8</ele>
        <time>2025-05-09T10:33:40Z</time>
      </trkpt>
      <trkpt lat="36.788808032870293" lon="-5.044782031327486">
        <ele>1063.8399999999999</ele>
        <time>2025-05-09T10:33:41Z</time>
      </trkpt>
      <trkpt lat="36.78891004063189" lon="-5.044600982218981">
        <ele>1062.3900000000001</ele>
        <time>2025-05-09T10:33:42Z</time>
      </trkpt>
      <trkpt lat="36.789451008662581" lon="-5.043307989835739">
        <ele>1053.26</ele>
        <time>2025-05-09T10:33:49Z</time>
      </trkpt>
      <trkpt lat="36.790089039131999" lon="-5.042166961356998">
        <ele>1042.6900000000001</ele>
        <time>2025-05-09T10:33:57Z</time>
      </trkpt>
      <trkpt lat="36.790878027677536" lon="-5.040722005069256">
        <ele>1027.79</ele>
        <time>2025-05-09T10:34:09Z</time>
      </trkpt>
      <trkpt lat="36.791113978251815" lon="-5.040097972378135">
        <ele>1022.02</ele>
        <time>2025-05-09T10:34:14Z</time>
      </trkpt>
      <trkpt lat="36.791129987686872" lon="-5.039963023737073">
        <ele>1021.0599999999999</ele>
        <time>2025-05-09T10:34:15Z</time>
      </trkpt>
      <trkpt lat="36.79114599712193" lon="-5.039826985448599">
        <ele>1019.62</ele>
        <time>2025-05-09T10:34:16Z</time>
      </trkpt>
      <trkpt lat="36.791149014607072" lon="-5.038422010838985">
        <ele>1009.52</ele>
        <time>2025-05-09T10:34:26Z</time>
      </trkpt>
      <trkpt lat="36.791425030678511" lon="-5.036844033747912">
        <ele>1009.52</ele>
        <time>2025-05-09T10:34:36Z</time>
      </trkpt>
      <trkpt lat="36.79157498292625" lon="-5.036596013233066">
        <ele>1011.9299999999999</ele>
        <time>2025-05-09T10:34:38Z</time>
      </trkpt>
      <trkpt lat="36.791625022888184" lon="-5.036523006856442">
        <ele>1012.89</ele>
        <time>2025-05-09T10:34:39Z</time>
      </trkpt>
      <trkpt lat="36.791751002892852" lon="-5.036430973559618">
        <ele>1013.37</ele>
        <time>2025-05-09T10:34:40Z</time>
      </trkpt>
      <trkpt lat="36.791857033967972" lon="-5.036352016031742">
        <ele>1013.85</ele>
        <time>2025-05-09T10:34:41Z</time>
      </trkpt>
      <trkpt lat="36.791964992880821" lon="-5.036271968856454">
        <ele>1014.33</ele>
        <time>2025-05-09T10:34:42Z</time>
      </trkpt>
      <trkpt lat="36.792361959815025" lon="-5.035923030227423">
        <ele>1014.33</ele>
        <time>2025-05-09T10:34:46Z</time>
      </trkpt>
      <trkpt lat="36.792441001161933" lon="-5.035837031900883">
        <ele>1014.33</ele>
        <time>2025-05-09T10:34:47Z</time>
      </trkpt>
      <trkpt lat="36.792516019195318" lon="-5.035717003047466">
        <ele>1014.33</ele>
        <time>2025-05-09T10:34:48Z</time>
      </trkpt>
      <trkpt lat="36.792583996430039" lon="-5.035607032477856">
        <ele>1013.85</ele>
        <time>2025-05-09T10:34:49Z</time>
      </trkpt>
      <trkpt lat="36.792655996978283" lon="-5.035493038594723">
        <ele>1013.85</ele>
        <time>2025-05-09T10:34:50Z</time>
      </trkpt>
      <trkpt lat="36.792912986129522" lon="-5.035164970904589">
        <ele>1012.89</ele>
        <time>2025-05-09T10:34:53Z</time>
      </trkpt>
      <trkpt lat="36.793366027995944" lon="-5.034616040065885">
        <ele>1010.48</ele>
        <time>2025-05-09T10:34:58Z</time>
      </trkpt>
      <trkpt lat="36.793438028544188" lon="-5.034491987898946">
        <ele>1010</ele>
        <time>2025-05-09T10:34:59Z</time>
      </trkpt>
      <trkpt lat="36.793492008000612" lon="-5.034399032592773">
        <ele>1009.52</ele>
        <time>2025-05-09T10:35:00Z</time>
      </trkpt>
      <trkpt lat="36.793529978021979" lon="-5.034230975434184">
        <ele>1009.52</ele>
        <time>2025-05-09T10:35:01Z</time>
      </trkpt>
      <trkpt lat="36.793559985235333" lon="-5.034093009307981">
        <ele>1009.04</ele>
        <time>2025-05-09T10:35:02Z</time>
      </trkpt>
      <trkpt lat="36.793590998277068" lon="-5.033954959362745">
        <ele>1009.04</ele>
        <time>2025-05-09T10:35:03Z</time>
      </trkpt>
      <trkpt lat="36.793622011318803" lon="-5.0338139757514">
        <ele>1008.5599999999999</ele>
        <time>2025-05-09T10:35:04Z</time>
      </trkpt>
      <trkpt lat="36.793655036017299" lon="-5.033665029332042">
        <ele>1008.08</ele>
        <time>2025-05-09T10:35:05Z</time>
      </trkpt>
      <trkpt lat="36.793689988553524" lon="-5.033508958294988">
        <ele>1008.08</ele>
        <time>2025-05-09T10:35:06Z</time>
      </trkpt>
      <trkpt lat="36.794357020407915" lon="-5.031831990927458">
        <ele>1001.83</ele>
        <time>2025-05-09T10:35:17Z</time>
      </trkpt>
      <trkpt lat="36.794446036219597" lon="-5.031713973730803">
        <ele>1001.35</ele>
        <time>2025-05-09T10:35:18Z</time>
      </trkpt>
      <trkpt lat="36.794536979869008" lon="-5.031596040353179">
        <ele>1000.39</ele>
        <time>2025-05-09T10:35:19Z</time>
      </trkpt>
      <trkpt lat="36.79511901922524" lon="-5.030770003795624">
        <ele>994.62</ele>
        <time>2025-05-09T10:35:26Z</time>
      </trkpt>
      <trkpt lat="36.795307025313377" lon="-5.030235992744565">
        <ele>991.74000000000001</ele>
        <time>2025-05-09T10:35:30Z</time>
      </trkpt>
      <trkpt lat="36.795338960364461" lon="-5.030100960284472">
        <ele>991.25999999999999</ele>
        <time>2025-05-09T10:35:31Z</time>
      </trkpt>
      <trkpt lat="36.795384977012873" lon="-5.029908008873463">
        <ele>990.29999999999995</ele>
        <time>2025-05-09T10:35:33Z</time>
      </trkpt>
      <trkpt lat="36.795396963134408" lon="-5.029857968911529">
        <ele>988.85000000000002</ele>
        <time>2025-05-09T10:35:39Z</time>
      </trkpt>
      <trkpt lat="36.795396963134408" lon="-5.029857968911529">
        <ele>988.85000000000002</ele>
        <time>2025-05-09T10:35:59Z</time>
      </trkpt>
      <trkpt lat="36.795396963134408" lon="-5.029857968911529">
        <ele>988.37</ele>
        <time>2025-05-09T10:36:43Z</time>
      </trkpt>
      <trkpt lat="36.795396963134408" lon="-5.029857968911529">
        <ele>987.40999999999997</ele>
        <time>2025-05-09T10:37:38Z</time>
      </trkpt>
      <trkpt lat="36.79542001336813" lon="-5.02996601164341">
        <ele>935.98000000000002</ele>
        <time>2025-05-09T10:40:47Z</time>
      </trkpt>
      <trkpt lat="36.795414984226227" lon="-5.029812958091497">
        <ele>971.07000000000005</ele>
        <time>2025-05-09T10:41:02Z</time>
      </trkpt>
      <trkpt lat="36.795414984226227" lon="-5.029781023040414">
        <ele>971.07000000000005</ele>
        <time>2025-05-09T10:41:04Z</time>
      </trkpt>
      <trkpt lat="36.795426970347762" lon="-5.02973198890686">
        <ele>971.07000000000005</ele>
        <time>2025-05-09T10:41:05Z</time>
      </trkpt>
      <trkpt lat="36.7954439856112" lon="-5.029662000015378">
        <ele>971.07000000000005</ele>
        <time>2025-05-09T10:41:06Z</time>
      </trkpt>
      <trkpt lat="36.795477010309696" lon="-5.029587987810373">
        <ele>970.59000000000003</ele>
        <time>2025-05-09T10:41:07Z</time>
      </trkpt>
      <trkpt lat="36.795517997816205" lon="-5.029499977827072">
        <ele>969.63</ele>
        <time>2025-05-09T10:41:08Z</time>
      </trkpt>
      <trkpt lat="36.795560996979475" lon="-5.029409034177661">
        <ele>969.14999999999998</ele>
        <time>2025-05-09T10:41:09Z</time>
      </trkpt>
      <trkpt lat="36.795654958114028" lon="-5.029208036139607">
        <ele>968.17999999999995</ele>
        <time>2025-05-09T10:41:11Z</time>
      </trkpt>
      <trkpt lat="36.795710027217865" lon="-5.029089013114572">
        <ele>967.70000000000005</ele>
        <time>2025-05-09T10:41:12Z</time>
      </trkpt>
      <trkpt lat="36.795746991410851" lon="-5.028954986482859">
        <ele>967.22000000000003</ele>
        <time>2025-05-09T10:41:13Z</time>
      </trkpt>
      <trkpt lat="36.795753026381135" lon="-5.028806962072849">
        <ele>966.74000000000001</ele>
        <time>2025-05-09T10:41:14Z</time>
      </trkpt>
      <trkpt lat="36.795757971704006" lon="-5.02865600399673">
        <ele>966.25999999999999</ele>
        <time>2025-05-09T10:41:15Z</time>
      </trkpt>
      <trkpt lat="36.79576400667429" lon="-5.028493981808424">
        <ele>965.77999999999997</ele>
        <time>2025-05-09T10:41:16Z</time>
      </trkpt>
      <trkpt lat="36.795776998624206" lon="-5.028316034004092">
        <ele>965.29999999999995</ele>
        <time>2025-05-09T10:41:17Z</time>
      </trkpt>
      <trkpt lat="36.795824021100998" lon="-5.028136996552348">
        <ele>964.82000000000005</ele>
        <time>2025-05-09T10:41:18Z</time>
      </trkpt>
      <trkpt lat="36.795895015820861" lon="-5.027971034869552">
        <ele>964.34000000000003</ele>
        <time>2025-05-09T10:41:19Z</time>
      </trkpt>
      <trkpt lat="36.795965004712343" lon="-5.027808006852865">
        <ele>963.86000000000001</ele>
        <time>2025-05-09T10:41:20Z</time>
      </trkpt>
      <trkpt lat="36.796068018302321" lon="-5.027673980221152">
        <ele>963.38</ele>
        <time>2025-05-09T10:41:21Z</time>
      </trkpt>
      <trkpt lat="36.796184023842216" lon="-5.027548000216484">
        <ele>962.89999999999998</ele>
        <time>2025-05-09T10:41:22Z</time>
      </trkpt>
      <trkpt lat="36.796318972483277" lon="-5.027443980798125">
        <ele>962.89999999999998</ele>
        <time>2025-05-09T10:41:23Z</time>
      </trkpt>
      <trkpt lat="36.796578979119658" lon="-5.027287993580103">
        <ele>962.41999999999996</ele>
        <time>2025-05-09T10:41:25Z</time>
      </trkpt>
      <trkpt lat="36.796705964952707" lon="-5.027258992195129">
        <ele>961.94000000000005</ele>
        <time>2025-05-09T10:41:26Z</time>
      </trkpt>
      <trkpt lat="36.796830017119646" lon="-5.027230996638537">
        <ele>960.98000000000002</ele>
        <time>2025-05-09T10:41:27Z</time>
      </trkpt>
      <trkpt lat="36.796951973810792" lon="-5.027203001081944">
        <ele>960.49000000000001</ele>
        <time>2025-05-09T10:41:28Z</time>
      </trkpt>
      <trkpt lat="36.797039983794093" lon="-5.02715396694839">
        <ele>960.00999999999999</ele>
        <time>2025-05-09T10:41:29Z</time>
      </trkpt>
      <trkpt lat="36.797107961028814" lon="-5.027071991935372">
        <ele>959.52999999999997</ele>
        <time>2025-05-09T10:41:30Z</time>
      </trkpt>
      <trkpt lat="36.797179039567709" lon="-5.026984987780452">
        <ele>958.57000000000005</ele>
        <time>2025-05-09T10:41:31Z</time>
      </trkpt>
      <trkpt lat="36.797255985438824" lon="-5.026892032474279">
        <ele>958.09000000000003</ele>
        <time>2025-05-09T10:41:32Z</time>
      </trkpt>
      <trkpt lat="36.797347012907267" lon="-5.026808967813849">
        <ele>957.13</ele>
        <time>2025-05-09T10:41:33Z</time>
      </trkpt>
      <trkpt lat="36.797467963770032" lon="-5.026757000014186">
        <ele>956.64999999999998</ele>
        <time>2025-05-09T10:41:34Z</time>
      </trkpt>
      <trkpt lat="36.797599978744984" lon="-5.026701008901">
        <ele>955.21000000000004</ele>
        <time>2025-05-09T10:41:35Z</time>
      </trkpt>
      <trkpt lat="36.79774196818471" lon="-5.026649041101337">
        <ele>954.25</ele>
        <time>2025-05-09T10:41:36Z</time>
      </trkpt>
      <trkpt lat="36.798190986737609" lon="-5.026452988386154">
        <ele>951.36000000000001</ele>
        <time>2025-05-09T10:41:39Z</time>
      </trkpt>
      <trkpt lat="36.798335993662477" lon="-5.02635701559484">
        <ele>949.91999999999996</ele>
        <time>2025-05-09T10:41:40Z</time>
      </trkpt>
      <trkpt lat="36.798462979495525" lon="-5.026240004226565">
        <ele>948.96000000000004</ele>
        <time>2025-05-09T10:41:41Z</time>
      </trkpt>
      <trkpt lat="36.798582002520561" lon="-5.026128022000194">
        <ele>947.51999999999998</ele>
        <time>2025-05-09T10:41:42Z</time>
      </trkpt>
      <trkpt lat="36.798679986968637" lon="-5.026021990925074">
        <ele>946.55999999999995</ele>
        <time>2025-05-09T10:41:43Z</time>
      </trkpt>
      <trkpt lat="36.798752993345261" lon="-5.025891987606883">
        <ele>945.11000000000001</ele>
        <time>2025-05-09T10:41:44Z</time>
      </trkpt>
      <trkpt lat="36.798787023872137" lon="-5.025738012045622">
        <ele>944.14999999999998</ele>
        <time>2025-05-09T10:41:45Z</time>
      </trkpt>
      <trkpt lat="36.798808984458447" lon="-5.025573978200555">
        <ele>942.71000000000004</ele>
        <time>2025-05-09T10:41:46Z</time>
      </trkpt>
      <trkpt lat="36.798798004165292" lon="-5.025394018739462">
        <ele>941.26999999999998</ele>
        <time>2025-05-09T10:41:47Z</time>
      </trkpt>
      <trkpt lat="36.798776965588331" lon="-5.025204000994563">
        <ele>939.83000000000004</ele>
        <time>2025-05-09T10:41:48Z</time>
      </trkpt>
      <trkpt lat="36.798736983910203" lon="-5.02500400878489">
        <ele>938.38</ele>
        <time>2025-05-09T10:41:49Z</time>
      </trkpt>
      <trkpt lat="36.798671018332243" lon="-5.02480803988874">
        <ele>937.41999999999996</ele>
        <time>2025-05-09T10:41:50Z</time>
      </trkpt>
      <trkpt lat="36.798578985035419" lon="-5.024641994386911">
        <ele>936.46000000000004</ele>
        <time>2025-05-09T10:41:51Z</time>
      </trkpt>
      <trkpt lat="36.798488963395357" lon="-5.024477960541844">
        <ele>935.01999999999998</ele>
        <time>2025-05-09T10:41:52Z</time>
      </trkpt>
      <trkpt lat="36.798416040837765" lon="-5.02431501634419">
        <ele>933.58000000000004</ele>
        <time>2025-05-09T10:41:53Z</time>
      </trkpt>
      <trkpt lat="36.798393996432424" lon="-5.024134973064065">
        <ele>932.13999999999999</ele>
        <time>2025-05-09T10:41:54Z</time>
      </trkpt>
      <trkpt lat="36.798404976725578" lon="-5.023948978632689">
        <ele>931.16999999999996</ele>
        <time>2025-05-09T10:41:55Z</time>
      </trkpt>
      <trkpt lat="36.798461973667145" lon="-5.023761978372932">
        <ele>930.21000000000004</ele>
        <time>2025-05-09T10:41:56Z</time>
      </trkpt>
      <trkpt lat="36.798519976437092" lon="-5.023571960628033">
        <ele>929.25</ele>
        <time>2025-05-09T10:41:57Z</time>
      </trkpt>
      <trkpt lat="36.798580996692181" lon="-5.023390995338559">
        <ele>928.28999999999996</ele>
        <time>2025-05-09T10:41:58Z</time>
      </trkpt>
      <trkpt lat="36.798648973926902" lon="-5.023218998685479">
        <ele>927.33000000000004</ele>
        <time>2025-05-09T10:41:59Z</time>
      </trkpt>
      <trkpt lat="36.798714017495513" lon="-5.023053037002683">
        <ele>926.37</ele>
        <time>2025-05-09T10:42:00Z</time>
      </trkpt>
      <trkpt lat="36.798760034143925" lon="-5.022873999550939">
        <ele>925.40999999999997</ele>
        <time>2025-05-09T10:42:01Z</time>
      </trkpt>
      <trkpt lat="36.798785012215376" lon="-5.022676018998027">
        <ele>923.96000000000004</ele>
        <time>2025-05-09T10:42:02Z</time>
      </trkpt>
      <trkpt lat="36.798960026353598" lon="-5.021380009129643">
        <ele>915.78999999999996</ele>
        <time>2025-05-09T10:42:08Z</time>
      </trkpt>
      <trkpt lat="36.799045018851757" lon="-5.021207006648183">
        <ele>914.83000000000004</ele>
        <time>2025-05-09T10:42:09Z</time>
      </trkpt>
      <trkpt lat="36.799131017178297" lon="-5.021030986681581">
        <ele>913.87</ele>
        <time>2025-05-09T10:42:10Z</time>
      </trkpt>
      <trkpt lat="36.799210980534554" lon="-5.020865024998784">
        <ele>912.90999999999997</ele>
        <time>2025-05-09T10:42:11Z</time>
      </trkpt>
      <trkpt lat="36.799287004396319" lon="-5.020709037780762">
        <ele>911.95000000000005</ele>
        <time>2025-05-09T10:42:12Z</time>
      </trkpt>
      <trkpt lat="36.799336038529873" lon="-5.020538968965411">
        <ele>910.99000000000001</ele>
        <time>2025-05-09T10:42:13Z</time>
      </trkpt>
      <trkpt lat="36.799352969974279" lon="-5.020352974534035">
        <ele>910.02999999999997</ele>
        <time>2025-05-09T10:42:14Z</time>
      </trkpt>
      <trkpt lat="36.799370991066098" lon="-5.02014703117311">
        <ele>909.05999999999995</ele>
        <time>2025-05-09T10:42:15Z</time>
      </trkpt>
      <trkpt lat="36.799479033797979" lon="-5.018927967175841">
        <ele>903.29999999999995</ele>
        <time>2025-05-09T10:42:21Z</time>
      </trkpt>
      <trkpt lat="36.799526978284121" lon="-5.018814979121089">
        <ele>902.33000000000004</ele>
        <time>2025-05-09T10:42:22Z</time>
      </trkpt>
      <trkpt lat="36.79960903711617" lon="-5.018709031865001">
        <ele>900.88999999999999</ele>
        <time>2025-05-09T10:42:23Z</time>
      </trkpt>
      <trkpt lat="36.799922017380595" lon="-5.018379036337137">
        <ele>897.04999999999995</ele>
        <time>2025-05-09T10:42:26Z</time>
      </trkpt>
      <trkpt lat="36.800006004050374" lon="-5.018238974735141">
        <ele>896.09000000000003</ele>
        <time>2025-05-09T10:42:27Z</time>
      </trkpt>
      <trkpt lat="36.800084039568901" lon="-5.018077958375216">
        <ele>895.12</ele>
        <time>2025-05-09T10:42:28Z</time>
      </trkpt>
      <trkpt lat="36.800622995942831" lon="-5.016438039019704">
        <ele>886.95000000000005</ele>
        <time>2025-05-09T10:42:36Z</time>
      </trkpt>
      <trkpt lat="36.800794992595911" lon="-5.015886006876826">
        <ele>883.59000000000003</ele>
        <time>2025-05-09T10:42:39Z</time>
      </trkpt>
      <trkpt lat="36.800851989537477" lon="-5.015511000528932">
        <ele>881.66999999999996</ele>
        <time>2025-05-09T10:42:41Z</time>
      </trkpt>
      <trkpt lat="36.800891971215606" lon="-5.015316959470511">
        <ele>880.71000000000004</ele>
        <time>2025-05-09T10:42:42Z</time>
      </trkpt>
      <trkpt lat="36.800963971763849" lon="-5.015128031373024">
        <ele>879.74000000000001</ele>
        <time>2025-05-09T10:42:43Z</time>
      </trkpt>
      <trkpt lat="36.801190031692386" lon="-5.014534005895257">
        <ele>876.86000000000001</ele>
        <time>2025-05-09T10:42:46Z</time>
      </trkpt>
      <trkpt lat="36.801280975341797" lon="-5.014293026179075">
        <ele>876.38</ele>
        <time>2025-05-09T10:42:47Z</time>
      </trkpt>
      <trkpt lat="36.801350964233279" lon="-5.013909973204136">
        <ele>874.94000000000005</ele>
        <time>2025-05-09T10:42:49Z</time>
      </trkpt>
      <trkpt lat="36.801364040002227" lon="-5.013699000701308">
        <ele>874.46000000000004</ele>
        <time>2025-05-09T10:42:50Z</time>
      </trkpt>
      <trkpt lat="36.801356999203563" lon="-5.013490039855242">
        <ele>873.98000000000002</ele>
        <time>2025-05-09T10:42:51Z</time>
      </trkpt>
      <trkpt lat="36.801350964233279" lon="-5.013279989361763">
        <ele>873.98000000000002</ele>
        <time>2025-05-09T10:42:52Z</time>
      </trkpt>
      <trkpt lat="36.801335038617253" lon="-5.013070022687316">
        <ele>873.98000000000002</ele>
        <time>2025-05-09T10:42:53Z</time>
      </trkpt>
      <trkpt lat="36.80128701031208" lon="-5.012875981628895">
        <ele>873.98000000000002</ele>
        <time>2025-05-09T10:42:54Z</time>
      </trkpt>
      <trkpt lat="36.80117703974247" lon="-5.012529976665974">
        <ele>873.5</ele>
        <time>2025-05-09T10:42:56Z</time>
      </trkpt>
      <trkpt lat="36.80109397508204" lon="-5.012389998883009">
        <ele>873.5</ele>
        <time>2025-05-09T10:42:57Z</time>
      </trkpt>
      <trkpt lat="36.801009988412261" lon="-5.012248009443283">
        <ele>873.5</ele>
        <time>2025-05-09T10:42:58Z</time>
      </trkpt>
      <trkpt lat="36.800909992307425" lon="-5.012097973376513">
        <ele>873.98000000000002</ele>
        <time>2025-05-09T10:42:59Z</time>
      </trkpt>
      <trkpt lat="36.800791975110769" lon="-5.011980039998889">
        <ele>873.98000000000002</ele>
        <time>2025-05-09T10:43:00Z</time>
      </trkpt>
      <trkpt lat="36.800637999549508" lon="-5.011908039450645">
        <ele>873.98000000000002</ele>
        <time>2025-05-09T10:43:01Z</time>
      </trkpt>
      <trkpt lat="36.800486035645008" lon="-5.011851964518428">
        <ele>874.46000000000004</ele>
        <time>2025-05-09T10:43:02Z</time>
      </trkpt>
      <trkpt lat="36.800333987921476" lon="-5.01181298866868">
        <ele>874.94000000000005</ele>
        <time>2025-05-09T10:43:03Z</time>
      </trkpt>
      <trkpt lat="36.799888992682099" lon="-5.011697988957167">
        <ele>875.89999999999998</ele>
        <time>2025-05-09T10:43:06Z</time>
      </trkpt>
      <trkpt lat="36.799764018505812" lon="-5.011641997843981">
        <ele>876.86000000000001</ele>
        <time>2025-05-09T10:43:07Z</time>
      </trkpt>
      <trkpt lat="36.799648012965918" lon="-5.011535966768861">
        <ele>877.82000000000005</ele>
        <time>2025-05-09T10:43:08Z</time>
      </trkpt>
      <trkpt lat="36.799533013254404" lon="-5.011415015906096">
        <ele>878.77999999999997</ele>
        <time>2025-05-09T10:43:09Z</time>
      </trkpt>
      <trkpt lat="36.799431005492806" lon="-5.011270008981228">
        <ele>879.25999999999999</ele>
        <time>2025-05-09T10:43:10Z</time>
      </trkpt>
      <trkpt lat="36.799309970811009" lon="-5.01116800121963">
        <ele>880.22000000000003</ele>
        <time>2025-05-09T10:43:11Z</time>
      </trkpt>
      <trkpt lat="36.799179967492819" lon="-5.011070016771555">
        <ele>880.71000000000004</ele>
        <time>2025-05-09T10:43:12Z</time>
      </trkpt>
      <trkpt lat="36.799026997759938" lon="-5.011005979031324">
        <ele>881.66999999999996</ele>
        <time>2025-05-09T10:43:13Z</time>
      </trkpt>
      <trkpt lat="36.798711000010371" lon="-5.010941019281745">
        <ele>882.63</ele>
        <time>2025-05-09T10:43:15Z</time>
      </trkpt>
      <trkpt lat="36.79840799421072" lon="-5.010902965441346">
        <ele>883.59000000000003</ele>
        <time>2025-05-09T10:43:17Z</time>
      </trkpt>
      <trkpt lat="36.798262987285852" lon="-5.01082300208509">
        <ele>884.54999999999995</ele>
        <time>2025-05-09T10:43:18Z</time>
      </trkpt>
      <trkpt lat="36.798122003674507" lon="-5.010744966566563">
        <ele>885.02999999999997</ele>
        <time>2025-05-09T10:43:19Z</time>
      </trkpt>
      <trkpt lat="36.797989988699555" lon="-5.010663997381926">
        <ele>885.50999999999999</ele>
        <time>2025-05-09T10:43:20Z</time>
      </trkpt>
      <trkpt lat="36.797878006473184" lon="-5.010570036247373">
        <ele>886.47000000000003</ele>
        <time>2025-05-09T10:43:21Z</time>
      </trkpt>
      <trkpt lat="36.797777004539967" lon="-5.010485965758562">
        <ele>886.95000000000005</ele>
        <time>2025-05-09T10:43:22Z</time>
      </trkpt>
      <trkpt lat="36.797724030911922" lon="-5.010367026552558">
        <ele>887.90999999999997</ele>
        <time>2025-05-09T10:43:23Z</time>
      </trkpt>
      <trkpt lat="36.79767700843513" lon="-5.010238029062748">
        <ele>888.39999999999998</ele>
        <time>2025-05-09T10:43:24Z</time>
      </trkpt>
      <trkpt lat="36.79767700843513" lon="-5.010101990774274">
        <ele>889.36000000000001</ele>
        <time>2025-05-09T10:43:25Z</time>
      </trkpt>
      <trkpt lat="36.79767700843513" lon="-5.009951032698154">
        <ele>889.84000000000003</ele>
        <time>2025-05-09T10:43:26Z</time>
      </trkpt>
      <trkpt lat="36.79771900177002" lon="-5.009617013856769">
        <ele>891.27999999999997</ele>
        <time>2025-05-09T10:43:28Z</time>
      </trkpt>
      <trkpt lat="36.79776200093329" lon="-5.009421966969967">
        <ele>892.24000000000001</ele>
        <time>2025-05-09T10:43:29Z</time>
      </trkpt>
      <trkpt lat="36.797850010916591" lon="-5.00927897170186">
        <ele>893.20000000000005</ele>
        <time>2025-05-09T10:43:30Z</time>
      </trkpt>
      <trkpt lat="36.798026030883193" lon="-5.008989041671157">
        <ele>894.63999999999999</ele>
        <time>2025-05-09T10:43:32Z</time>
      </trkpt>
      <trkpt lat="36.798082021996379" lon="-5.008859038352966">
        <ele>895.61000000000001</ele>
        <time>2025-05-09T10:43:33Z</time>
      </trkpt>
      <trkpt lat="36.798114962875843" lon="-5.008735992014408">
        <ele>896.09000000000003</ele>
        <time>2025-05-09T10:43:34Z</time>
      </trkpt>
      <trkpt lat="36.798113035038114" lon="-5.008649993687868">
        <ele>896.57000000000005</ele>
        <time>2025-05-09T10:43:35Z</time>
      </trkpt>
      <trkpt lat="36.798075987026095" lon="-5.008557960391045">
        <ele>897.04999999999995</ele>
        <time>2025-05-09T10:43:36Z</time>
      </trkpt>
      <trkpt lat="36.797995017841458" lon="-5.008494006469846">
        <ele>898.00999999999999</ele>
        <time>2025-05-09T10:43:37Z</time>
      </trkpt>
      <trkpt lat="36.797895021736622" lon="-5.008413959294558">
        <ele>898.97000000000003</ele>
        <time>2025-05-09T10:43:38Z</time>
      </trkpt>
      <trkpt lat="36.79778303951025" lon="-5.008326033130288">
        <ele>899.92999999999995</ele>
        <time>2025-05-09T10:43:39Z</time>
      </trkpt>
      <trkpt lat="36.797665022313595" lon="-5.008231988176704">
        <ele>900.40999999999997</ele>
        <time>2025-05-09T10:43:40Z</time>
      </trkpt>
      <trkpt lat="36.797542981803417" lon="-5.008127968758345">
        <ele>900.88999999999999</ele>
        <time>2025-05-09T10:43:41Z</time>
      </trkpt>
      <trkpt lat="36.797294039279222" lon="-5.007864022627473">
        <ele>902.33000000000004</ele>
        <time>2025-05-09T10:43:43Z</time>
      </trkpt>
      <trkpt lat="36.797152971848845" lon="-5.007764026522636">
        <ele>902.82000000000005</ele>
        <time>2025-05-09T10:43:44Z</time>
      </trkpt>
      <trkpt lat="36.797006959095597" lon="-5.007720021530986">
        <ele>903.29999999999995</ele>
        <time>2025-05-09T10:43:45Z</time>
      </trkpt>
      <trkpt lat="36.79673002101481" lon="-5.007679034024477">
        <ele>904.74000000000001</ele>
        <time>2025-05-09T10:43:47Z</time>
      </trkpt>
      <trkpt lat="36.796605968847871" lon="-5.007642991840839">
        <ele>904.74000000000001</ele>
        <time>2025-05-09T10:43:48Z</time>
      </trkpt>
      <trkpt lat="36.796493986621499" lon="-5.007531009614468">
        <ele>905.22000000000003</ele>
        <time>2025-05-09T10:43:49Z</time>
      </trkpt>
      <trkpt lat="36.796388039365411" lon="-5.007403017953038">
        <ele>905.70000000000005</ele>
        <time>2025-05-09T10:43:50Z</time>
      </trkpt>
      <trkpt lat="36.7963039688766" lon="-5.007229009643197">
        <ele>906.17999999999995</ele>
        <time>2025-05-09T10:43:51Z</time>
      </trkpt>
      <trkpt lat="36.795559991151094" lon="-5.005699982866645">
        <ele>910.50999999999999</ele>
        <time>2025-05-09T10:43:58Z</time>
      </trkpt>
      <trkpt lat="36.794544020667672" lon="-5.003426978364587">
        <ele>919.15999999999997</ele>
        <time>2025-05-09T10:44:07Z</time>
      </trkpt>
      <trkpt lat="36.794478977099061" lon="-5.003156997263432">
        <ele>919.63999999999999</ele>
        <time>2025-05-09T10:44:08Z</time>
      </trkpt>
      <trkpt lat="36.793941026553512" lon="-4.999843966215849">
        <ele>931.64999999999998</ele>
        <time>2025-05-09T10:44:20Z</time>
      </trkpt>
      <trkpt lat="36.793884029611945" lon="-4.999632993713021">
        <ele>932.13999999999999</ele>
        <time>2025-05-09T10:44:21Z</time>
      </trkpt>
      <trkpt lat="36.793801970779896" lon="-4.999431995674968">
        <ele>933.58000000000004</ele>
        <time>2025-05-09T10:44:22Z</time>
      </trkpt>
      <trkpt lat="36.793714966624975" lon="-4.999226974323392">
        <ele>935.01999999999998</ele>
        <time>2025-05-09T10:44:23Z</time>
      </trkpt>
      <trkpt lat="36.793427970260382" lon="-4.998715007677674">
        <ele>938.86000000000001</ele>
        <time>2025-05-09T10:44:26Z</time>
      </trkpt>
      <trkpt lat="36.793291009962559" lon="-4.998566983267665">
        <ele>939.83000000000004</ele>
        <time>2025-05-09T10:44:27Z</time>
      </trkpt>
      <trkpt lat="36.793170981109142" lon="-4.998437985777855">
        <ele>941.26999999999998</ele>
        <time>2025-05-09T10:44:28Z</time>
      </trkpt>
      <trkpt lat="36.793026980012655" lon="-4.998367996886373">
        <ele>942.71000000000004</ele>
        <time>2025-05-09T10:44:29Z</time>
      </trkpt>
      <trkpt lat="36.792871998623013" lon="-4.998307982459664">
        <ele>944.14999999999998</ele>
        <time>2025-05-09T10:44:30Z</time>
      </trkpt>
      <trkpt lat="36.792710982263088" lon="-4.998246962204576">
        <ele>945.59000000000003</ele>
        <time>2025-05-09T10:44:31Z</time>
      </trkpt>
      <trkpt lat="36.792545020580292" lon="-4.998183008283377">
        <ele>947.03999999999996</ele>
        <time>2025-05-09T10:44:32Z</time>
      </trkpt>
      <trkpt lat="36.79219800978899" lon="-4.998049987480044">
        <ele>949.91999999999996</ele>
        <time>2025-05-09T10:44:34Z</time>
      </trkpt>
      <trkpt lat="36.792019978165627" lon="-4.997952003031969">
        <ele>951.36000000000001</ele>
        <time>2025-05-09T10:44:35Z</time>
      </trkpt>
      <trkpt lat="36.790637969970703" lon="-4.997019013389945">
        <ele>961.46000000000004</ele>
        <time>2025-05-09T10:44:43Z</time>
      </trkpt>
      <trkpt lat="36.790507966652513" lon="-4.996863026171923">
        <ele>962.89999999999998</ele>
        <time>2025-05-09T10:44:44Z</time>
      </trkpt>
      <trkpt lat="36.790387015789747" lon="-4.996690023690462">
        <ele>964.34000000000003</ele>
        <time>2025-05-09T10:44:45Z</time>
      </trkpt>
      <trkpt lat="36.790270004421473" lon="-4.996499000117183">
        <ele>965.29999999999995</ele>
        <time>2025-05-09T10:44:46Z</time>
      </trkpt>
      <trkpt lat="36.790165985003114" lon="-4.996294984593988">
        <ele>967.22000000000003</ele>
        <time>2025-05-09T10:44:47Z</time>
      </trkpt>
      <trkpt lat="36.788983969017863" lon="-4.993888037279248">
        <ele>977.32000000000005</ele>
        <time>2025-05-09T10:44:59Z</time>
      </trkpt>
      <trkpt lat="36.788912974298" lon="-4.993716040626168">
        <ele>977.79999999999995</ele>
        <time>2025-05-09T10:45:00Z</time>
      </trkpt>
      <trkpt lat="36.788877015933394" lon="-4.993534991517663">
        <ele>978.27999999999997</ele>
        <time>2025-05-09T10:45:01Z</time>
      </trkpt>
      <trkpt lat="36.788836028426886" lon="-4.993328964337707">
        <ele>978.27999999999997</ele>
        <time>2025-05-09T10:45:02Z</time>
      </trkpt>
      <trkpt lat="36.788823958486319" lon="-4.993147999048233">
        <ele>978.27999999999997</ele>
        <time>2025-05-09T10:45:03Z</time>
      </trkpt>
      <trkpt lat="36.788809960708022" lon="-4.992941971868277">
        <ele>978.27999999999997</ele>
        <time>2025-05-09T10:45:04Z</time>
      </trkpt>
      <trkpt lat="36.788735026493669" lon="-4.992265971377492">
        <ele>975.88</ele>
        <time>2025-05-09T10:45:08Z</time>
      </trkpt>
      <trkpt lat="36.788707030937076" lon="-4.992191959172487">
        <ele>975.38999999999999</ele>
        <time>2025-05-09T10:45:09Z</time>
      </trkpt>
      <trkpt lat="36.788621032610536" lon="-4.992183996364474">
        <ele>974.42999999999995</ele>
        <time>2025-05-09T10:45:10Z</time>
      </trkpt>
      <trkpt lat="36.788527993485332" lon="-4.992176033556461">
        <ele>973.95000000000005</ele>
        <time>2025-05-09T10:45:11Z</time>
      </trkpt>
      <trkpt lat="36.78846001625061" lon="-4.992177961394191">
        <ele>972.99000000000001</ele>
        <time>2025-05-09T10:45:12Z</time>
      </trkpt>
      <trkpt lat="36.788359014317393" lon="-4.992247028276324">
        <ele>972.02999999999997</ele>
        <time>2025-05-09T10:45:13Z</time>
      </trkpt>
      <trkpt lat="36.788250971585512" lon="-4.992320034652948">
        <ele>971.54999999999995</ele>
        <time>2025-05-09T10:45:14Z</time>
      </trkpt>
      <trkpt lat="36.788150975480676" lon="-4.99238801188767">
        <ele>970.59000000000003</ele>
        <time>2025-05-09T10:45:15Z</time>
      </trkpt>
      <trkpt lat="36.788058020174503" lon="-4.992451965808868">
        <ele>969.63</ele>
        <time>2025-05-09T10:45:16Z</time>
      </trkpt>
      <trkpt lat="36.787948971614242" lon="-4.992483984678984">
        <ele>969.14999999999998</ele>
        <time>2025-05-09T10:45:17Z</time>
      </trkpt>
      <trkpt lat="36.78783799521625" lon="-4.992464035749435">
        <ele>968.66999999999996</ele>
        <time>2025-05-09T10:45:18Z</time>
      </trkpt>
      <trkpt lat="36.787585029378533" lon="-4.992420030757785">
        <ele>966.74000000000001</ele>
        <time>2025-05-09T10:45:20Z</time>
      </trkpt>
      <trkpt lat="36.787482015788555" lon="-4.992420030757785">
        <ele>965.77999999999997</ele>
        <time>2025-05-09T10:45:21Z</time>
      </trkpt>
      <trkpt lat="36.78738797083497" lon="-4.99247501604259">
        <ele>964.34000000000003</ele>
        <time>2025-05-09T10:45:22Z</time>
      </trkpt>
      <trkpt lat="36.78729803301394" lon="-4.992527989670634">
        <ele>963.38</ele>
        <time>2025-05-09T10:45:23Z</time>
      </trkpt>
      <trkpt lat="36.787208011373878" lon="-4.992580963298678">
        <ele>961.94000000000005</ele>
        <time>2025-05-09T10:45:24Z</time>
      </trkpt>
      <trkpt lat="36.787111032754183" lon="-4.992620022967458">
        <ele>960.98000000000002</ele>
        <time>2025-05-09T10:45:25Z</time>
      </trkpt>
      <trkpt lat="36.787007013335824" lon="-4.992615999653935">
        <ele>960.00999999999999</ele>
        <time>2025-05-09T10:45:26Z</time>
      </trkpt>
      <trkpt lat="36.786885978654027" lon="-4.992611976340413">
        <ele>958.09000000000003</ele>
        <time>2025-05-09T10:45:27Z</time>
      </trkpt>
      <trkpt lat="36.786452969536185" lon="-4.992607031017542">
        <ele>953.76999999999998</ele>
        <time>2025-05-09T10:45:30Z</time>
      </trkpt>
      <trkpt lat="36.786307962611318" lon="-4.992618011310697">
        <ele>952.79999999999995</ele>
        <time>2025-05-09T10:45:31Z</time>
      </trkpt>
      <trkpt lat="36.786169996485114" lon="-4.992666961625218">
        <ele>951.36000000000001</ele>
        <time>2025-05-09T10:45:32Z</time>
      </trkpt>
      <trkpt lat="36.785903032869101" lon="-4.992799982428551">
        <ele>948.48000000000002</ele>
        <time>2025-05-09T10:45:34Z</time>
      </trkpt>
      <trkpt lat="36.785772023722529" lon="-4.992866031825542">
        <ele>946.55999999999995</ele>
        <time>2025-05-09T10:45:35Z</time>
      </trkpt>
      <trkpt lat="36.785641014575958" lon="-4.992930991575122">
        <ele>944.63</ele>
        <time>2025-05-09T10:45:36Z</time>
      </trkpt>
      <trkpt lat="36.785519979894161" lon="-4.992992011830211">
        <ele>942.71000000000004</ele>
        <time>2025-05-09T10:45:37Z</time>
      </trkpt>
      <trkpt lat="36.785470023751259" lon="-4.993049008771777">
        <ele>940.30999999999995</ele>
        <time>2025-05-09T10:45:38Z</time>
      </trkpt>
      <trkpt lat="36.785423001274467" lon="-4.993156967684627">
        <ele>937.89999999999998</ele>
        <time>2025-05-09T10:45:39Z</time>
      </trkpt>
      <trkpt lat="36.785370027646422" lon="-4.993281019851565">
        <ele>935.5</ele>
        <time>2025-05-09T10:45:40Z</time>
      </trkpt>
      <trkpt lat="36.785309007391334" lon="-4.99341999180615">
        <ele>933.58000000000004</ele>
        <time>2025-05-09T10:45:41Z</time>
      </trkpt>
      <trkpt lat="36.785232983529568" lon="-4.993571033701301">
        <ele>931.64999999999998</ele>
        <time>2025-05-09T10:45:42Z</time>
      </trkpt>
      <trkpt lat="36.785124018788338" lon="-4.993758033961058">
        <ele>929.73000000000002</ele>
        <time>2025-05-09T10:45:43Z</time>
      </trkpt>
      <trkpt lat="36.785009019076824" lon="-4.993862975388765">
        <ele>927.80999999999995</ele>
        <time>2025-05-09T10:45:44Z</time>
      </trkpt>
      <trkpt lat="36.784881027415395" lon="-4.993978980928659">
        <ele>926.85000000000002</ele>
        <time>2025-05-09T10:45:45Z</time>
      </trkpt>
      <trkpt lat="36.784386998042464" lon="-4.994439985603094">
        <ele>921.08000000000004</ele>
        <time>2025-05-09T10:45:49Z</time>
      </trkpt>
      <trkpt lat="36.784282978624105" lon="-4.994576023891568">
        <ele>919.63999999999999</ele>
        <time>2025-05-09T10:45:50Z</time>
      </trkpt>
      <trkpt lat="36.78418398834765" lon="-4.994707033038139">
        <ele>918.20000000000005</ele>
        <time>2025-05-09T10:45:51Z</time>
      </trkpt>
      <trkpt lat="36.784072006121278" lon="-4.994852961972356">
        <ele>916.75</ele>
        <time>2025-05-09T10:45:52Z</time>
      </trkpt>
      <trkpt lat="36.78396999835968" lon="-4.994938038289547">
        <ele>915.30999999999995</ele>
        <time>2025-05-09T10:45:53Z</time>
      </trkpt>
      <trkpt lat="36.783866984769702" lon="-4.995023030787706">
        <ele>913.87</ele>
        <time>2025-05-09T10:45:54Z</time>
      </trkpt>
      <trkpt lat="36.783747961744666" lon="-4.995093019679189">
        <ele>912.42999999999995</ele>
        <time>2025-05-09T10:45:55Z</time>
      </trkpt>
      <trkpt lat="36.783659029752016" lon="-4.995126966387034">
        <ele>910.99000000000001</ele>
        <time>2025-05-09T10:45:56Z</time>
      </trkpt>
      <trkpt lat="36.783535983413458" lon="-4.995173988863826">
        <ele>910.02999999999997</ele>
        <time>2025-05-09T10:45:57Z</time>
      </trkpt>
      <trkpt lat="36.783458031713963" lon="-4.995165020227432">
        <ele>908.10000000000002</ele>
        <time>2025-05-09T10:45:58Z</time>
      </trkpt>
      <trkpt lat="36.783009013161063" lon="-4.995078016072512">
        <ele>902.33000000000004</ele>
        <time>2025-05-09T10:46:03Z</time>
      </trkpt>
      <trkpt lat="36.78293701261282" lon="-4.995053960010409">
        <ele>901.37</ele>
        <time>2025-05-09T10:46:04Z</time>
      </trkpt>
      <trkpt lat="36.782869035378098" lon="-4.995030993595719">
        <ele>900.88999999999999</ele>
        <time>2025-05-09T10:46:05Z</time>
      </trkpt>
      <trkpt lat="36.782784964889288" lon="-4.995002998039126">
        <ele>900.40999999999997</ele>
        <time>2025-05-09T10:46:06Z</time>
      </trkpt>
      <trkpt lat="36.782721010968089" lon="-4.994874000549316">
        <ele>899.45000000000005</ele>
        <time>2025-05-09T10:46:07Z</time>
      </trkpt>
      <trkpt lat="36.782710030674934" lon="-4.994789008051157">
        <ele>898.97000000000003</ele>
        <time>2025-05-09T10:46:08Z</time>
      </trkpt>
      <trkpt lat="36.782716987654567" lon="-4.994595972821116">
        <ele>898.00999999999999</ele>
        <time>2025-05-09T10:46:09Z</time>
      </trkpt>
      <trkpt lat="36.782743977382779" lon="-4.994434034451842">
        <ele>898.00999999999999</ele>
        <time>2025-05-09T10:46:10Z</time>
      </trkpt>
      <trkpt lat="36.782769961282611" lon="-4.994275029748678">
        <ele>897.52999999999997</ele>
        <time>2025-05-09T10:46:11Z</time>
      </trkpt>
      <trkpt lat="36.782798040658236" lon="-4.994105966761708">
        <ele>897.04999999999995</ele>
        <time>2025-05-09T10:46:12Z</time>
      </trkpt>
      <trkpt lat="36.782816983759403" lon="-4.993950985372067">
        <ele>897.04999999999995</ele>
        <time>2025-05-09T10:46:13Z</time>
      </trkpt>
      <trkpt lat="36.7828309815377" lon="-4.99380799010396">
        <ele>896.57000000000005</ele>
        <time>2025-05-09T10:46:14Z</time>
      </trkpt>
      <trkpt lat="36.782844979315996" lon="-4.993670023977757">
        <ele>896.09000000000003</ele>
        <time>2025-05-09T10:46:15Z</time>
      </trkpt>
      <trkpt lat="36.782814972102642" lon="-4.99354999512434">
        <ele>895.61000000000001</ele>
        <time>2025-05-09T10:46:16Z</time>
      </trkpt>
      <trkpt lat="36.782760992646217" lon="-4.993448993191123">
        <ele>894.63999999999999</ele>
        <time>2025-05-09T10:46:17Z</time>
      </trkpt>
      <trkpt lat="36.782698966562748" lon="-4.993371963500977">
        <ele>894.15999999999997</ele>
        <time>2025-05-09T10:46:18Z</time>
      </trkpt>
      <trkpt lat="36.782549014315009" lon="-4.993328964337707">
        <ele>893.20000000000005</ele>
        <time>2025-05-09T10:46:19Z</time>
      </trkpt>
      <trkpt lat="36.782461004331708" lon="-4.993338016793132">
        <ele>892.24000000000001</ele>
        <time>2025-05-09T10:46:20Z</time>
      </trkpt>
      <trkpt lat="36.782325971871614" lon="-4.993351008743048">
        <ele>891.27999999999997</ele>
        <time>2025-05-09T10:46:21Z</time>
      </trkpt>
      <trkpt lat="36.781691964715719" lon="-4.993414962664247">
        <ele>887.90999999999997</ele>
        <time>2025-05-09T10:46:25Z</time>
      </trkpt>
      <trkpt lat="36.78059795871377" lon="-4.993575979024172">
        <ele>885.50999999999999</ele>
        <time>2025-05-09T10:46:33Z</time>
      </trkpt>
      <trkpt lat="36.780525958165526" lon="-4.993581008166075">
        <ele>885.02999999999997</ele>
        <time>2025-05-09T10:46:34Z</time>
      </trkpt>
      <trkpt lat="36.780431997030973" lon="-4.993564998731017">
        <ele>885.02999999999997</ele>
        <time>2025-05-09T10:46:35Z</time>
      </trkpt>
      <trkpt lat="36.78035999648273" lon="-4.993456033989787">
        <ele>885.02999999999997</ele>
        <time>2025-05-09T10:46:36Z</time>
      </trkpt>
      <trkpt lat="36.78035999648273" lon="-4.99335402622819">
        <ele>885.02999999999997</ele>
        <time>2025-05-09T10:46:37Z</time>
      </trkpt>
      <trkpt lat="36.78035999648273" lon="-4.993235003203154">
        <ele>885.99000000000001</ele>
        <time>2025-05-09T10:46:38Z</time>
      </trkpt>
      <trkpt lat="36.78035999648273" lon="-4.992598984390497">
        <ele>889.36000000000001</ele>
        <time>2025-05-09T10:46:42Z</time>
      </trkpt>
      <trkpt lat="36.780333006754518" lon="-4.992444003000855">
        <ele>889.36000000000001</ele>
        <time>2025-05-09T10:46:43Z</time>
      </trkpt>
      <trkpt lat="36.780310040339828" lon="-4.992317017167807">
        <ele>890.32000000000005</ele>
        <time>2025-05-09T10:46:44Z</time>
      </trkpt>
      <trkpt lat="36.780301993712783" lon="-4.992202017456293">
        <ele>891.75999999999999</ele>
        <time>2025-05-09T10:46:45Z</time>
      </trkpt>
      <trkpt lat="36.780324038118124" lon="-4.992076959460974">
        <ele>892.72000000000003</ele>
        <time>2025-05-09T10:46:46Z</time>
      </trkpt>
      <trkpt lat="36.780350022017956" lon="-4.991931030526757">
        <ele>893.67999999999995</ele>
        <time>2025-05-09T10:46:47Z</time>
      </trkpt>
      <trkpt lat="36.780624026432633" lon="-4.990761000663042">
        <ele>899.92999999999995</ele>
        <time>2025-05-09T10:46:53Z</time>
      </trkpt>
      <trkpt lat="36.780699966475368" lon="-4.990395968779922">
        <ele>902.33000000000004</ele>
        <time>2025-05-09T10:46:55Z</time>
      </trkpt>
      <trkpt lat="36.780690997838974" lon="-4.990207040682435">
        <ele>903.29999999999995</ele>
        <time>2025-05-09T10:46:56Z</time>
      </trkpt>
      <trkpt lat="36.78066099062562" lon="-4.989637993276119">
        <ele>906.65999999999997</ele>
        <time>2025-05-09T10:46:59Z</time>
      </trkpt>
      <trkpt lat="36.780686974525452" lon="-4.98953104019165">
        <ele>907.62</ele>
        <time>2025-05-09T10:47:00Z</time>
      </trkpt>
      <trkpt lat="36.780722010880709" lon="-4.989392990246415">
        <ele>908.58000000000004</ele>
        <time>2025-05-09T10:47:01Z</time>
      </trkpt>
      <trkpt lat="36.78076802752912" lon="-4.9892090074718">
        <ele>909.53999999999996</ele>
        <time>2025-05-09T10:47:02Z</time>
      </trkpt>
      <trkpt lat="36.780842961743474" lon="-4.989128960296512">
        <ele>910.02999999999997</ele>
        <time>2025-05-09T10:47:03Z</time>
      </trkpt>
      <trkpt lat="36.780948992818594" lon="-4.989014966413379">
        <ele>910.50999999999999</ele>
        <time>2025-05-09T10:47:04Z</time>
      </trkpt>
      <trkpt lat="36.781066004186869" lon="-4.988888986408711">
        <ele>910.50999999999999</ele>
        <time>2025-05-09T10:47:05Z</time>
      </trkpt>
      <trkpt lat="36.78169397637248" lon="-4.988176021724939">
        <ele>907.13999999999999</ele>
        <time>2025-05-09T10:47:10Z</time>
      </trkpt>
      <trkpt lat="36.781771006062627" lon="-4.98802799731493">
        <ele>905.22000000000003</ele>
        <time>2025-05-09T10:47:11Z</time>
      </trkpt>
      <trkpt lat="36.78190603852272" lon="-4.987768996506929">
        <ele>902.33000000000004</ele>
        <time>2025-05-09T10:47:13Z</time>
      </trkpt>
      <trkpt lat="36.781981978565454" lon="-4.987661959603429">
        <ele>900.88999999999999</ele>
        <time>2025-05-09T10:47:14Z</time>
      </trkpt>
      <trkpt lat="36.782082980498672" lon="-4.987573027610779">
        <ele>899.92999999999995</ele>
        <time>2025-05-09T10:47:15Z</time>
      </trkpt>
      <trkpt lat="36.782966013997793" lon="-4.987086961045861">
        <ele>891.75999999999999</ele>
        <time>2025-05-09T10:47:21Z</time>
      </trkpt>
      <trkpt lat="36.783271031454206" lon="-4.986919993534684">
        <ele>889.36000000000001</ele>
        <time>2025-05-09T10:47:23Z</time>
      </trkpt>
      <trkpt lat="36.783391982316971" lon="-4.986809017136693">
        <ele>887.90999999999997</ele>
        <time>2025-05-09T10:47:24Z</time>
      </trkpt>
      <trkpt lat="36.78349600173533" lon="-4.986664010211825">
        <ele>886.47000000000003</ele>
        <time>2025-05-09T10:47:25Z</time>
      </trkpt>
      <trkpt lat="36.783689958974719" lon="-4.98632999137044">
        <ele>884.54999999999995</ele>
        <time>2025-05-09T10:47:27Z</time>
      </trkpt>
      <trkpt lat="36.783795990049839" lon="-4.98618096113205">
        <ele>883.59000000000003</ele>
        <time>2025-05-09T10:47:28Z</time>
      </trkpt>
      <trkpt lat="36.78390596061945" lon="-4.986070990562439">
        <ele>882.63</ele>
        <time>2025-05-09T10:47:29Z</time>
      </trkpt>
      <trkpt lat="36.784020960330963" lon="-4.986021034419537">
        <ele>881.66999999999996</ele>
        <time>2025-05-09T10:47:30Z</time>
      </trkpt>
      <trkpt lat="36.784132020547986" lon="-4.986002007499337">
        <ele>881.19000000000005</ele>
        <time>2025-05-09T10:47:31Z</time>
      </trkpt>
      <trkpt lat="36.784253977239132" lon="-4.98600603081286">
        <ele>880.22000000000003</ele>
        <time>2025-05-09T10:47:32Z</time>
      </trkpt>
      <trkpt lat="36.784380041062832" lon="-4.986044000834227">
        <ele>879.74000000000001</ele>
        <time>2025-05-09T10:47:33Z</time>
      </trkpt>
      <trkpt lat="36.784514989703894" lon="-4.986084988340735">
        <ele>879.74000000000001</ele>
        <time>2025-05-09T10:47:34Z</time>
      </trkpt>
      <trkpt lat="36.784781031310558" lon="-4.986165035516024">
        <ele>878.77999999999997</ele>
        <time>2025-05-09T10:47:36Z</time>
      </trkpt>
      <trkpt lat="36.784883961081505" lon="-4.986167969182134">
        <ele>879.25999999999999</ele>
        <time>2025-05-09T10:47:37Z</time>
      </trkpt>
      <trkpt lat="36.784980017691851" lon="-4.986117007210851">
        <ele>879.25999999999999</ele>
        <time>2025-05-09T10:47:38Z</time>
      </trkpt>
      <trkpt lat="36.785073978826404" lon="-4.986038971692324">
        <ele>879.25999999999999</ele>
        <time>2025-05-09T10:47:39Z</time>
      </trkpt>
      <trkpt lat="36.78517104126513" lon="-4.985959008336067">
        <ele>879.25999999999999</ele>
        <time>2025-05-09T10:47:40Z</time>
      </trkpt>
      <trkpt lat="36.785273971036077" lon="-4.985911985859275">
        <ele>879.25999999999999</ele>
        <time>2025-05-09T10:47:41Z</time>
      </trkpt>
      <trkpt lat="36.785402968525887" lon="-4.985882984474301">
        <ele>879.25999999999999</ele>
        <time>2025-05-09T10:47:42Z</time>
      </trkpt>
      <trkpt lat="36.785497013479471" lon="-4.985930006951094">
        <ele>878.77999999999997</ele>
        <time>2025-05-09T10:47:43Z</time>
      </trkpt>
      <trkpt lat="36.785610001534224" lon="-4.98598700389266">
        <ele>878.77999999999997</ele>
        <time>2025-05-09T10:47:44Z</time>
      </trkpt>
      <trkpt lat="36.78573003038764" lon="-4.986047018319368">
        <ele>878.77999999999997</ele>
        <time>2025-05-09T10:47:45Z</time>
      </trkpt>
      <trkpt lat="36.785861039534211" lon="-4.986111978068948">
        <ele>878.77999999999997</ele>
        <time>2025-05-09T10:47:46Z</time>
      </trkpt>
      <trkpt lat="36.786280972883105" lon="-4.986238963901997">
        <ele>878.77999999999997</ele>
        <time>2025-05-09T10:47:49Z</time>
      </trkpt>
      <trkpt lat="36.786396978422999" lon="-4.986266037449241">
        <ele>878.77999999999997</ele>
        <time>2025-05-09T10:47:50Z</time>
      </trkpt>
      <trkpt lat="36.786481970921159" lon="-4.986225971952081">
        <ele>878.77999999999997</ele>
        <time>2025-05-09T10:47:51Z</time>
      </trkpt>
      <trkpt lat="36.786582972854376" lon="-4.986162018030882">
        <ele>878.77999999999997</ele>
        <time>2025-05-09T10:47:52Z</time>
      </trkpt>
      <trkpt lat="36.786618009209633" lon="-4.986057998612523">
        <ele>878.77999999999997</ele>
        <time>2025-05-09T10:47:53Z</time>
      </trkpt>
      <trkpt lat="36.786662014201283" lon="-4.985924977809191">
        <ele>878.77999999999997</ele>
        <time>2025-05-09T10:47:54Z</time>
      </trkpt>
      <trkpt lat="36.786711970344186" lon="-4.985776031389833">
        <ele>878.77999999999997</ele>
        <time>2025-05-09T10:47:55Z</time>
      </trkpt>
      <trkpt lat="36.786781959235668" lon="-4.985628006979823">
        <ele>878.29999999999995</ele>
        <time>2025-05-09T10:47:56Z</time>
      </trkpt>
      <trkpt lat="36.786872986704111" lon="-4.985474031418562">
        <ele>878.29999999999995</ele>
        <time>2025-05-09T10:47:57Z</time>
      </trkpt>
      <trkpt lat="36.786969965323806" lon="-4.98532198369503">
        <ele>877.34000000000003</ele>
        <time>2025-05-09T10:47:58Z</time>
      </trkpt>
      <trkpt lat="36.787087982520461" lon="-4.98519298620522">
        <ele>876.86000000000001</ele>
        <time>2025-05-09T10:47:59Z</time>
      </trkpt>
      <trkpt lat="36.787209017202258" lon="-4.985076980665326">
        <ele>876.38</ele>
        <time>2025-05-09T10:48:00Z</time>
      </trkpt>
      <trkpt lat="36.787351006641984" lon="-4.985005985945463">
        <ele>875.89999999999998</ele>
        <time>2025-05-09T10:48:01Z</time>
      </trkpt>
      <trkpt lat="36.787484027445316" lon="-4.984939014539123">
        <ele>875.41999999999996</ele>
        <time>2025-05-09T10:48:02Z</time>
      </trkpt>
      <trkpt lat="36.787620987743139" lon="-4.984939014539123">
        <ele>874.94000000000005</ele>
        <time>2025-05-09T10:48:03Z</time>
      </trkpt>
      <trkpt lat="36.787759037688375" lon="-4.984939014539123">
        <ele>874.46000000000004</ele>
        <time>2025-05-09T10:48:04Z</time>
      </trkpt>
      <trkpt lat="36.78788099437952" lon="-4.984972961246967">
        <ele>873.5</ele>
        <time>2025-05-09T10:48:05Z</time>
      </trkpt>
      <trkpt lat="36.787998005747795" lon="-4.985044961795211">
        <ele>872.52999999999997</ele>
        <time>2025-05-09T10:48:06Z</time>
      </trkpt>
      <trkpt lat="36.788109987974167" lon="-4.985116040334106">
        <ele>871.57000000000005</ele>
        <time>2025-05-09T10:48:07Z</time>
      </trkpt>
      <trkpt lat="36.788219036534429" lon="-4.985167002305389">
        <ele>870.61000000000001</ele>
        <time>2025-05-09T10:48:08Z</time>
      </trkpt>
      <trkpt lat="36.788326995447278" lon="-4.98519298620522">
        <ele>869.64999999999998</ele>
        <time>2025-05-09T10:48:09Z</time>
      </trkpt>
      <trkpt lat="36.788421040400863" lon="-4.985133977606893">
        <ele>868.69000000000005</ele>
        <time>2025-05-09T10:48:10Z</time>
      </trkpt>
      <trkpt lat="36.788520030677319" lon="-4.985071029514074">
        <ele>867.73000000000002</ele>
        <time>2025-05-09T10:48:11Z</time>
      </trkpt>
      <trkpt lat="36.788623966276646" lon="-4.985004980117083">
        <ele>866.76999999999998</ele>
        <time>2025-05-09T10:48:12Z</time>
      </trkpt>
      <trkpt lat="36.788736032322049" lon="-4.984938008710742">
        <ele>865.79999999999995</ele>
        <time>2025-05-09T10:48:13Z</time>
      </trkpt>
      <trkpt lat="36.78884600289166" lon="-4.984921999275684">
        <ele>864.84000000000003</ele>
        <time>2025-05-09T10:48:14Z</time>
      </trkpt>
      <trkpt lat="36.788948010653257" lon="-4.984974972903729">
        <ele>863.88</ele>
        <time>2025-05-09T10:48:15Z</time>
      </trkpt>
      <trkpt lat="36.789026968181133" lon="-4.985039010643959">
        <ele>862.44000000000005</ele>
        <time>2025-05-09T10:48:16Z</time>
      </trkpt>
      <trkpt lat="36.789108021184802" lon="-4.98510698787868">
        <ele>861.48000000000002</ele>
        <time>2025-05-09T10:48:17Z</time>
      </trkpt>
      <trkpt lat="36.789197036996484" lon="-4.985179994255304">
        <ele>860.51999999999998</ele>
        <time>2025-05-09T10:48:18Z</time>
      </trkpt>
      <trkpt lat="36.789270965382457" lon="-4.985220981761813">
        <ele>859.55999999999995</ele>
        <time>2025-05-09T10:48:19Z</time>
      </trkpt>
      <trkpt lat="36.789369033649564" lon="-4.985231040045619">
        <ele>858.59000000000003</ele>
        <time>2025-05-09T10:48:20Z</time>
      </trkpt>
      <trkpt lat="36.789466012269258" lon="-4.985231040045619">
        <ele>858.11000000000001</ele>
        <time>2025-05-09T10:48:21Z</time>
      </trkpt>
      <trkpt lat="36.789544969797134" lon="-4.985142024233937">
        <ele>857.63</ele>
        <time>2025-05-09T10:48:22Z</time>
      </trkpt>
      <trkpt lat="36.789630968123674" lon="-4.985044961795211">
        <ele>856.66999999999996</ele>
        <time>2025-05-09T10:48:23Z</time>
      </trkpt>
      <trkpt lat="36.78968402557075" lon="-4.98491101898253">
        <ele>856.19000000000005</ele>
        <time>2025-05-09T10:48:24Z</time>
      </trkpt>
      <trkpt lat="36.789736999198794" lon="-4.984777998179197">
        <ele>855.23000000000002</ele>
        <time>2025-05-09T10:48:25Z</time>
      </trkpt>
      <trkpt lat="36.789801958948374" lon="-4.984616981819272">
        <ele>854.26999999999998</ele>
        <time>2025-05-09T10:48:26Z</time>
      </trkpt>
      <trkpt lat="36.789863985031843" lon="-4.984559984877706">
        <ele>853.30999999999995</ele>
        <time>2025-05-09T10:48:27Z</time>
      </trkpt>
      <trkpt lat="36.789959035813808" lon="-4.984471974894404">
        <ele>852.83000000000004</ele>
        <time>2025-05-09T10:48:28Z</time>
      </trkpt>
      <trkpt lat="36.790055008605123" lon="-4.984383964911103">
        <ele>851.87</ele>
        <time>2025-05-09T10:48:29Z</time>
      </trkpt>
      <trkpt lat="36.790108988061547" lon="-4.984262008219957">
        <ele>850.89999999999998</ele>
        <time>2025-05-09T10:48:30Z</time>
      </trkpt>
      <trkpt lat="36.790149975568056" lon="-4.984121024608612">
        <ele>850.41999999999996</ele>
        <time>2025-05-09T10:48:31Z</time>
      </trkpt>
      <trkpt lat="36.790236979722977" lon="-4.983821958303452">
        <ele>848.5</ele>
        <time>2025-05-09T10:48:33Z</time>
      </trkpt>
      <trkpt lat="36.790281990543008" lon="-4.983682986348867">
        <ele>847.53999999999996</ele>
        <time>2025-05-09T10:48:34Z</time>
      </trkpt>
      <trkpt lat="36.790429009124637" lon="-4.983464973047376">
        <ele>846.10000000000002</ele>
        <time>2025-05-09T10:48:36Z</time>
      </trkpt>
      <trkpt lat="36.790477959439158" lon="-4.983332036063075">
        <ele>845.62</ele>
        <time>2025-05-09T10:48:37Z</time>
      </trkpt>
      <trkpt lat="36.790469996631145" lon="-4.983176970854402">
        <ele>844.65999999999997</ele>
        <time>2025-05-09T10:48:38Z</time>
      </trkpt>
      <trkpt lat="36.790408976376057" lon="-4.983075968921185">
        <ele>843.69000000000005</ele>
        <time>2025-05-09T10:48:39Z</time>
      </trkpt>
      <trkpt lat="36.790380980819464" lon="-4.983029030263424">
        <ele>842.73000000000002</ele>
        <time>2025-05-09T10:48:40Z</time>
      </trkpt>
      <trkpt lat="36.790279978886247" lon="-4.983003968372941">
        <ele>841.28999999999996</ele>
        <time>2025-05-09T10:48:41Z</time>
      </trkpt>
      <trkpt lat="36.790208984166384" lon="-4.982987036928535">
        <ele>839.85000000000002</ele>
        <time>2025-05-09T10:48:42Z</time>
      </trkpt>
      <trkpt lat="36.790142012760043" lon="-4.983027018606663">
        <ele>837.92999999999995</ele>
        <time>2025-05-09T10:48:43Z</time>
      </trkpt>
      <trkpt lat="36.790072023868561" lon="-4.983069011941552">
        <ele>836.96000000000004</ele>
        <time>2025-05-09T10:48:44Z</time>
      </trkpt>
      <trkpt lat="36.790001029148698" lon="-4.983112011104822">
        <ele>835.51999999999998</ele>
        <time>2025-05-09T10:48:45Z</time>
      </trkpt>
      <trkpt lat="36.789922993630171" lon="-4.98315098695457">
        <ele>834.08000000000004</ele>
        <time>2025-05-09T10:48:46Z</time>
      </trkpt>
      <trkpt lat="36.789840012788773" lon="-4.983192980289459">
        <ele>833.12</ele>
        <time>2025-05-09T10:48:47Z</time>
      </trkpt>
      <trkpt lat="36.789736999198794" lon="-4.983201026916504">
        <ele>831.67999999999995</ele>
        <time>2025-05-09T10:48:48Z</time>
      </trkpt>
      <trkpt lat="36.78964102640748" lon="-4.983156016096473">
        <ele>830.24000000000001</ele>
        <time>2025-05-09T10:48:49Z</time>
      </trkpt>
      <trkpt lat="36.78955402225256" lon="-4.983077980577946">
        <ele>828.78999999999996</ele>
        <time>2025-05-09T10:48:50Z</time>
      </trkpt>
      <trkpt lat="36.789475986734033" lon="-4.982993993908167">
        <ele>827.35000000000002</ele>
        <time>2025-05-09T10:48:51Z</time>
      </trkpt>
      <trkpt lat="36.789397029206157" lon="-4.982907995581627">
        <ele>826.38999999999999</ele>
        <time>2025-05-09T10:48:52Z</time>
      </trkpt>
      <trkpt lat="36.789314970374107" lon="-4.982844963669777">
        <ele>824.95000000000005</ele>
        <time>2025-05-09T10:48:53Z</time>
      </trkpt>
      <trkpt lat="36.789196031168103" lon="-4.982800958678126">
        <ele>823.50999999999999</ele>
        <time>2025-05-09T10:48:54Z</time>
      </trkpt>
      <trkpt lat="36.78906200453639" lon="-4.982751002535224">
        <ele>822.05999999999995</ele>
        <time>2025-05-09T10:48:55Z</time>
      </trkpt>
      <trkpt lat="36.788920015096664" lon="-4.98269802890718">
        <ele>820.62</ele>
        <time>2025-05-09T10:48:56Z</time>
      </trkpt>
      <trkpt lat="36.788771990686655" lon="-4.982642959803343">
        <ele>819.17999999999995</ele>
        <time>2025-05-09T10:48:57Z</time>
      </trkpt>
      <trkpt lat="36.788622038438916" lon="-4.982568025588989">
        <ele>817.25999999999999</ele>
        <time>2025-05-09T10:48:58Z</time>
      </trkpt>
      <trkpt lat="36.788032036274672" lon="-4.982273988425732">
        <ele>810.04999999999995</ele>
        <time>2025-05-09T10:49:02Z</time>
      </trkpt>
      <trkpt lat="36.787894992157817" lon="-4.982177009806037">
        <ele>807.15999999999997</ele>
        <time>2025-05-09T10:49:03Z</time>
      </trkpt>
      <trkpt lat="36.787667004391551" lon="-4.981963019818068">
        <ele>802.36000000000001</ele>
        <time>2025-05-09T10:49:05Z</time>
      </trkpt>
      <trkpt lat="36.787570025771856" lon="-4.981870986521244">
        <ele>800.44000000000005</ele>
        <time>2025-05-09T10:49:06Z</time>
      </trkpt>
      <trkpt lat="36.78753599524498" lon="-4.981741989031434">
        <ele>798.02999999999997</ele>
        <time>2025-05-09T10:49:07Z</time>
      </trkpt>
      <trkpt lat="36.787496013566852" lon="-4.981592958793044">
        <ele>795.63</ele>
        <time>2025-05-09T10:49:08Z</time>
      </trkpt>
      <trkpt lat="36.78745100274682" lon="-4.981421967968345">
        <ele>793.71000000000004</ele>
        <time>2025-05-09T10:49:09Z</time>
      </trkpt>
      <trkpt lat="36.787398029118776" lon="-4.981223987415433">
        <ele>791.29999999999995</ele>
        <time>2025-05-09T10:49:10Z</time>
      </trkpt>
      <trkpt lat="36.78734203800559" lon="-4.981011003255844">
        <ele>789.38</ele>
        <time>2025-05-09T10:49:11Z</time>
      </trkpt>
      <trkpt lat="36.787283029407263" lon="-4.98078896664083">
        <ele>786.98000000000002</ele>
        <time>2025-05-09T10:49:12Z</time>
      </trkpt>
      <trkpt lat="36.786941969767213" lon="-4.979191040620208">
        <ele>773.51999999999998</ele>
        <time>2025-05-09T10:49:19Z</time>
      </trkpt>
      <trkpt lat="36.786837028339505" lon="-4.978804970160127">
        <ele>770.14999999999998</ele>
        <time>2025-05-09T10:49:21Z</time>
      </trkpt>
      <trkpt lat="36.786662014201283" lon="-4.978356035426259">
        <ele>765.35000000000002</ele>
        <time>2025-05-09T10:49:24Z</time>
      </trkpt>
      <trkpt lat="36.786626977846026" lon="-4.978262996301055">
        <ele>764.87</ele>
        <time>2025-05-09T10:49:25Z</time>
      </trkpt>
      <trkpt lat="36.786604011431336" lon="-4.978200970217586">
        <ele>764.87</ele>
        <time>2025-05-09T10:49:26Z</time>
      </trkpt>
      <trkpt lat="36.786625972017646" lon="-4.978029979392886">
        <ele>763.41999999999996</ele>
        <time>2025-05-09T10:49:27Z</time>
      </trkpt>
      <trkpt lat="36.786663020029664" lon="-4.977964013814926">
        <ele>762.46000000000004</ele>
        <time>2025-05-09T10:49:28Z</time>
      </trkpt>
      <trkpt lat="36.786791011691093" lon="-4.977825963869691">
        <ele>761.5</ele>
        <time>2025-05-09T10:49:29Z</time>
      </trkpt>
      <trkpt lat="36.786915985867381" lon="-4.977743988856673">
        <ele>760.53999999999996</ele>
        <time>2025-05-09T10:49:30Z</time>
      </trkpt>
      <trkpt lat="36.787030985578895" lon="-4.977666959166527">
        <ele>759.58000000000004</ele>
        <time>2025-05-09T10:49:31Z</time>
      </trkpt>
      <trkpt lat="36.787161994725466" lon="-4.977579033002257">
        <ele>759.58000000000004</ele>
        <time>2025-05-09T10:49:32Z</time>
      </trkpt>
      <trkpt lat="36.787179009988904" lon="-4.977512983605266">
        <ele>758.62</ele>
        <time>2025-05-09T10:49:33Z</time>
      </trkpt>
      <trkpt lat="36.787211028859019" lon="-4.977381974458695">
        <ele>758.13999999999999</ele>
        <time>2025-05-09T10:49:34Z</time>
      </trkpt>
      <trkpt lat="36.787218991667032" lon="-4.97722003608942">
        <ele>757.65999999999997</ele>
        <time>2025-05-09T10:49:35Z</time>
      </trkpt>
      <trkpt lat="36.787208011373878" lon="-4.977053990587592">
        <ele>756.69000000000005</ele>
        <time>2025-05-09T10:49:36Z</time>
      </trkpt>
      <trkpt lat="36.787210023030639" lon="-4.976884005591273">
        <ele>756.21000000000004</ele>
        <time>2025-05-09T10:49:37Z</time>
      </trkpt>
      <trkpt lat="36.78721597418189" lon="-4.97670697979629">
        <ele>755.73000000000002</ele>
        <time>2025-05-09T10:49:38Z</time>
      </trkpt>
      <trkpt lat="36.787223014980555" lon="-4.976530959829688">
        <ele>754.76999999999998</ele>
        <time>2025-05-09T10:49:39Z</time>
      </trkpt>
      <trkpt lat="36.787243969738483" lon="-4.976349994540215">
        <ele>754.28999999999996</ele>
        <time>2025-05-09T10:49:40Z</time>
      </trkpt>
      <trkpt lat="36.787288980558515" lon="-4.97616701759398">
        <ele>753.80999999999995</ele>
        <time>2025-05-09T10:49:41Z</time>
      </trkpt>
      <trkpt lat="36.787763983011246" lon="-4.974630028009415">
        <ele>747.08000000000004</ele>
        <time>2025-05-09T10:49:50Z</time>
      </trkpt>
      <trkpt lat="36.787842018529773" lon="-4.974468005821109">
        <ele>746.12</ele>
        <time>2025-05-09T10:49:51Z</time>
      </trkpt>
      <trkpt lat="36.788102025166154" lon="-4.974073972553015">
        <ele>743.24000000000001</ele>
        <time>2025-05-09T10:49:54Z</time>
      </trkpt>
      <trkpt lat="36.788217024877667" lon="-4.973952015861869">
        <ele>742.27999999999997</ele>
        <time>2025-05-09T10:49:55Z</time>
      </trkpt>
      <trkpt lat="36.788332024589181" lon="-4.97393298894167">
        <ele>741.30999999999995</ele>
        <time>2025-05-09T10:49:56Z</time>
      </trkpt>
      <trkpt lat="36.788470996543765" lon="-4.973910022526979">
        <ele>740.35000000000002</ele>
        <time>2025-05-09T10:49:57Z</time>
      </trkpt>
      <trkpt lat="36.788575015962124" lon="-4.973930977284908">
        <ele>738.90999999999997</ele>
        <time>2025-05-09T10:49:58Z</time>
      </trkpt>
      <trkpt lat="36.788712982088327" lon="-4.973970958963037">
        <ele>737.95000000000005</ele>
        <time>2025-05-09T10:49:59Z</time>
      </trkpt>
      <trkpt lat="36.788824964314699" lon="-4.974045976996422">
        <ele>736.99000000000001</ele>
        <time>2025-05-09T10:50:00Z</time>
      </trkpt>
      <trkpt lat="36.78893300704658" lon="-4.974116971716285">
        <ele>735.54999999999995</ele>
        <time>2025-05-09T10:50:01Z</time>
      </trkpt>
      <trkpt lat="36.789029985666275" lon="-4.974182015284896">
        <ele>734.58000000000004</ele>
        <time>2025-05-09T10:50:02Z</time>
      </trkpt>
      <trkpt lat="36.789114978164434" lon="-4.974267007783055">
        <ele>733.62</ele>
        <time>2025-05-09T10:50:03Z</time>
      </trkpt>
      <trkpt lat="36.789177004247904" lon="-4.974350994452834">
        <ele>732.65999999999997</ele>
        <time>2025-05-09T10:50:04Z</time>
      </trkpt>
      <trkpt lat="36.789413960650563" lon="-4.974665986374021">
        <ele>728.34000000000003</ele>
        <time>2025-05-09T10:50:08Z</time>
      </trkpt>
      <trkpt lat="36.789457965642214" lon="-4.974724994972348">
        <ele>727.37</ele>
        <time>2025-05-09T10:50:09Z</time>
      </trkpt>
      <trkpt lat="36.789540024474263" lon="-4.974736981093884">
        <ele>725.92999999999995</ele>
        <time>2025-05-09T10:50:10Z</time>
      </trkpt>
      <trkpt lat="36.789608001708984" lon="-4.974747039377689">
        <ele>724.97000000000003</ele>
        <time>2025-05-09T10:50:11Z</time>
      </trkpt>
      <trkpt lat="36.789660975337029" lon="-4.974712003022432">
        <ele>724.49000000000001</ele>
        <time>2025-05-09T10:50:12Z</time>
      </trkpt>
      <trkpt lat="36.789729036390781" lon="-4.974665986374021">
        <ele>724.00999999999999</ele>
        <time>2025-05-09T10:50:13Z</time>
      </trkpt>
      <trkpt lat="36.789759965613484" lon="-4.97459901496768">
        <ele>723.52999999999997</ele>
        <time>2025-05-09T10:50:14Z</time>
      </trkpt>
      <trkpt lat="36.789822997525334" lon="-4.974425006657839">
        <ele>723.04999999999995</ele>
        <time>2025-05-09T10:50:15Z</time>
      </trkpt>
      <trkpt lat="36.789814028888941" lon="-4.974385024979711">
        <ele>722.57000000000005</ele>
        <time>2025-05-09T10:50:16Z</time>
      </trkpt>
      <trkpt lat="36.789787961170077" lon="-4.974271031096578">
        <ele>722.57000000000005</ele>
        <time>2025-05-09T10:50:17Z</time>
      </trkpt>
      <trkpt lat="36.789760971441865" lon="-4.974154019728303">
        <ele>722.57000000000005</ele>
        <time>2025-05-09T10:50:18Z</time>
      </trkpt>
      <trkpt lat="36.789735993370414" lon="-4.97404002584517">
        <ele>722.09000000000003</ele>
        <time>2025-05-09T10:50:19Z</time>
      </trkpt>
      <trkpt lat="36.789717972278595" lon="-4.973937012255192">
        <ele>721.61000000000001</ele>
        <time>2025-05-09T10:50:20Z</time>
      </trkpt>
      <trkpt lat="36.789731970056891" lon="-4.973821006715298">
        <ele>720.64999999999998</ele>
        <time>2025-05-09T10:50:21Z</time>
      </trkpt>
      <trkpt lat="36.789746973663568" lon="-4.97369896620512">
        <ele>720.15999999999997</ele>
        <time>2025-05-09T10:50:22Z</time>
      </trkpt>
      <trkpt lat="36.789775975048542" lon="-4.973581032827497">
        <ele>719.67999999999995</ele>
        <time>2025-05-09T10:50:23Z</time>
      </trkpt>
      <trkpt lat="36.789839006960392" lon="-4.973472990095615">
        <ele>718.72000000000003</ele>
        <time>2025-05-09T10:50:24Z</time>
      </trkpt>
      <trkpt lat="36.789916036650538" lon="-4.973343992605805">
        <ele>718.24000000000001</ele>
        <time>2025-05-09T10:50:25Z</time>
      </trkpt>
      <trkpt lat="36.790004968643188" lon="-4.973193034529686">
        <ele>717.27999999999997</ele>
        <time>2025-05-09T10:50:26Z</time>
      </trkpt>
      <trkpt lat="36.790098007768393" lon="-4.973036963492632">
        <ele>715.84000000000003</ele>
        <time>2025-05-09T10:50:27Z</time>
      </trkpt>
      <trkpt lat="36.790189035236835" lon="-4.97288198210299">
        <ele>714.39999999999998</ele>
        <time>2025-05-09T10:50:28Z</time>
      </trkpt>
      <trkpt lat="36.790276961401105" lon="-4.972734041512013">
        <ele>712.95000000000005</ele>
        <time>2025-05-09T10:50:29Z</time>
      </trkpt>
      <trkpt lat="36.790352985262871" lon="-4.972604960203171">
        <ele>711.99000000000001</ele>
        <time>2025-05-09T10:50:30Z</time>
      </trkpt>
      <trkpt lat="36.790424985811114" lon="-4.972500018775463">
        <ele>710.54999999999995</ele>
        <time>2025-05-09T10:50:31Z</time>
      </trkpt>
      <trkpt lat="36.790515007451177" lon="-4.97238501906395">
        <ele>709.11000000000001</ele>
        <time>2025-05-09T10:50:32Z</time>
      </trkpt>
      <trkpt lat="36.79064903408289" lon="-4.972346965223551">
        <ele>707.66999999999996</ele>
        <time>2025-05-09T10:50:33Z</time>
      </trkpt>
      <trkpt lat="36.790752969682217" lon="-4.972382001578808">
        <ele>706.23000000000002</ele>
        <time>2025-05-09T10:50:34Z</time>
      </trkpt>
      <trkpt lat="36.790869981050491" lon="-4.972435981035233">
        <ele>705.25999999999999</ele>
        <time>2025-05-09T10:50:35Z</time>
      </trkpt>
      <trkpt lat="36.790970982983708" lon="-4.972509993240237">
        <ele>704.29999999999995</ele>
        <time>2025-05-09T10:50:36Z</time>
      </trkpt>
      <trkpt lat="36.791081037372351" lon="-4.972590962424874">
        <ele>703.82000000000005</ele>
        <time>2025-05-09T10:50:37Z</time>
      </trkpt>
      <trkpt lat="36.792082004249096" lon="-4.973326977342367">
        <ele>695.16999999999996</ele>
        <time>2025-05-09T10:50:44Z</time>
      </trkpt>
      <trkpt lat="36.792197003960609" lon="-4.973410964012146">
        <ele>694.21000000000004</ele>
        <time>2025-05-09T10:50:45Z</time>
      </trkpt>
      <trkpt lat="36.792305968701839" lon="-4.97339797206223">
        <ele>693.25</ele>
        <time>2025-05-09T10:50:46Z</time>
      </trkpt>
      <trkpt lat="36.792395990341902" lon="-4.973381962627173">
        <ele>692.28999999999996</ele>
        <time>2025-05-09T10:50:47Z</time>
      </trkpt>
      <trkpt lat="36.792475031688809" lon="-4.973306022584438">
        <ele>691.80999999999995</ele>
        <time>2025-05-09T10:50:48Z</time>
      </trkpt>
      <trkpt lat="36.792530016973615" lon="-4.973180964589119">
        <ele>690.84000000000003</ele>
        <time>2025-05-09T10:50:49Z</time>
      </trkpt>
      <trkpt lat="36.792558012530208" lon="-4.973022965714335">
        <ele>689.88</ele>
        <time>2025-05-09T10:50:50Z</time>
      </trkpt>
      <trkpt lat="36.792588019743562" lon="-4.972851974889636">
        <ele>688.44000000000005</ele>
        <time>2025-05-09T10:50:51Z</time>
      </trkpt>
      <trkpt lat="36.792620038613677" lon="-4.97266598045826">
        <ele>687.96000000000004</ele>
        <time>2025-05-09T10:50:52Z</time>
      </trkpt>
      <trkpt lat="36.792651973664761" lon="-4.972485015168786">
        <ele>686.51999999999998</ele>
        <time>2025-05-09T10:50:53Z</time>
      </trkpt>
      <trkpt lat="36.79267100058496" lon="-4.972312012687326">
        <ele>685.55999999999995</ele>
        <time>2025-05-09T10:50:54Z</time>
      </trkpt>
      <trkpt lat="36.792644010856748" lon="-4.972164994105697">
        <ele>684.60000000000002</ele>
        <time>2025-05-09T10:50:55Z</time>
      </trkpt>
      <trkpt lat="36.792616015300155" lon="-4.972016969695687">
        <ele>683.63</ele>
        <time>2025-05-09T10:50:56Z</time>
      </trkpt>
      <trkpt lat="36.792588019743562" lon="-4.971862994134426">
        <ele>682.66999999999996</ele>
        <time>2025-05-09T10:50:57Z</time>
      </trkpt>
      <trkpt lat="36.792580978944898" lon="-4.971714969724417">
        <ele>681.71000000000004</ele>
        <time>2025-05-09T10:50:58Z</time>
      </trkpt>
      <trkpt lat="36.792618026956916" lon="-4.971556970849633">
        <ele>680.75</ele>
        <time>2025-05-09T10:50:59Z</time>
      </trkpt>
      <trkpt lat="36.792659014463425" lon="-4.971390003338456">
        <ele>679.78999999999996</ele>
        <time>2025-05-09T10:51:00Z</time>
      </trkpt>
      <trkpt lat="36.792724980041385" lon="-4.971230998635292">
        <ele>678.83000000000004</ele>
        <time>2025-05-09T10:51:01Z</time>
      </trkpt>
      <trkpt lat="36.792787006124854" lon="-4.971080962568522">
        <ele>678.35000000000002</ele>
        <time>2025-05-09T10:51:02Z</time>
      </trkpt>
      <trkpt lat="36.792806033045053" lon="-4.970934027805924">
        <ele>677.38999999999999</ele>
        <time>2025-05-09T10:51:03Z</time>
      </trkpt>
      <trkpt lat="36.792806033045053" lon="-4.970800001174212">
        <ele>676.41999999999996</ele>
        <time>2025-05-09T10:51:04Z</time>
      </trkpt>
      <trkpt lat="36.792735960334539" lon="-4.97071199119091">
        <ele>676.90999999999997</ele>
        <time>2025-05-09T10:51:05Z</time>
      </trkpt>
      <trkpt lat="36.792646022513509" lon="-4.97062599286437">
        <ele>675.94000000000005</ele>
        <time>2025-05-09T10:51:06Z</time>
      </trkpt>
      <trkpt lat="36.792548038065434" lon="-4.970533037558198">
        <ele>675.94000000000005</ele>
        <time>2025-05-09T10:51:07Z</time>
      </trkpt>
      <trkpt lat="36.792457010596991" lon="-4.970447039231658">
        <ele>674.5</ele>
        <time>2025-05-09T10:51:08Z</time>
      </trkpt>
      <trkpt lat="36.792387021705508" lon="-4.970341008156538">
        <ele>673.53999999999996</ele>
        <time>2025-05-09T10:51:09Z</time>
      </trkpt>
      <trkpt lat="36.792355002835393" lon="-4.970198012888432">
        <ele>673.05999999999995</ele>
        <time>2025-05-09T10:51:10Z</time>
      </trkpt>
      <trkpt lat="36.792342010885477" lon="-4.970028027892113">
        <ele>671.62</ele>
        <time>2025-05-09T10:51:11Z</time>
      </trkpt>
      <trkpt lat="36.792328013107181" lon="-4.969841027632356">
        <ele>670.17999999999995</ele>
        <time>2025-05-09T10:51:12Z</time>
      </trkpt>
      <trkpt lat="36.792313009500504" lon="-4.969655033200979">
        <ele>668.73000000000002</ele>
        <time>2025-05-09T10:51:13Z</time>
      </trkpt>
      <trkpt lat="36.792278978973627" lon="-4.969490999355912">
        <ele>667.76999999999998</ele>
        <time>2025-05-09T10:51:14Z</time>
      </trkpt>
      <trkpt lat="36.792191974818707" lon="-4.969368958845735">
        <ele>666.80999999999995</ele>
        <time>2025-05-09T10:51:15Z</time>
      </trkpt>
      <trkpt lat="36.792086027562618" lon="-4.969264017418027">
        <ele>665.37</ele>
        <time>2025-05-09T10:51:16Z</time>
      </trkpt>
      <trkpt lat="36.791968010365963" lon="-4.969200985506177">
        <ele>663.92999999999995</ele>
        <time>2025-05-09T10:51:17Z</time>
      </trkpt>
      <trkpt lat="36.791827026754618" lon="-4.969149017706513">
        <ele>662.49000000000001</ele>
        <time>2025-05-09T10:51:18Z</time>
      </trkpt>
      <trkpt lat="36.791685037314892" lon="-4.969097971916199">
        <ele>660.55999999999995</ele>
        <time>2025-05-09T10:51:19Z</time>
      </trkpt>
      <trkpt lat="36.79155302233994" lon="-4.969036029651761">
        <ele>659.12</ele>
        <time>2025-05-09T10:51:20Z</time>
      </trkpt>
      <trkpt lat="36.791455037891865" lon="-4.968953970819712">
        <ele>657.67999999999995</ele>
        <time>2025-05-09T10:51:21Z</time>
      </trkpt>
      <trkpt lat="36.791397035121918" lon="-4.968825979158282">
        <ele>656.24000000000001</ele>
        <time>2025-05-09T10:51:22Z</time>
      </trkpt>
      <trkpt lat="36.791356969624758" lon="-4.968693964183331">
        <ele>654.79999999999995</ele>
        <time>2025-05-09T10:51:23Z</time>
      </trkpt>
      <trkpt lat="36.791331991553307" lon="-4.968533031642437">
        <ele>653.83000000000004</ele>
        <time>2025-05-09T10:51:24Z</time>
      </trkpt>
      <trkpt lat="36.791303995996714" lon="-4.968352988362312">
        <ele>652.38999999999999</ele>
        <time>2025-05-09T10:51:25Z</time>
      </trkpt>
      <trkpt lat="36.791303995996714" lon="-4.968157019466162">
        <ele>651.42999999999995</ele>
        <time>2025-05-09T10:51:26Z</time>
      </trkpt>
      <trkpt lat="36.791303995996714" lon="-4.967171978205442">
        <ele>646.62</ele>
        <time>2025-05-09T10:51:31Z</time>
      </trkpt>
      <trkpt lat="36.791350012645125" lon="-4.96697299182415">
        <ele>645.65999999999997</ele>
        <time>2025-05-09T10:51:32Z</time>
      </trkpt>
      <trkpt lat="36.791386976838112" lon="-4.966817004606128">
        <ele>644.70000000000005</ele>
        <time>2025-05-09T10:51:33Z</time>
      </trkpt>
      <trkpt lat="36.791457971557975" lon="-4.966709967702627">
        <ele>644.22000000000003</ele>
        <time>2025-05-09T10:51:34Z</time>
      </trkpt>
      <trkpt lat="36.791540030390024" lon="-4.966593040153384">
        <ele>643.25999999999999</ele>
        <time>2025-05-09T10:51:35Z</time>
      </trkpt>
      <trkpt lat="36.791665004566312" lon="-4.96650000102818">
        <ele>642.29999999999995</ele>
        <time>2025-05-09T10:51:36Z</time>
      </trkpt>
      <trkpt lat="36.791799031198025" lon="-4.966400004923344">
        <ele>641.82000000000005</ele>
        <time>2025-05-09T10:51:37Z</time>
      </trkpt>
      <trkpt lat="36.792227011173964" lon="-4.966032039374113">
        <ele>637.97000000000003</ele>
        <time>2025-05-09T10:51:41Z</time>
      </trkpt>
      <trkpt lat="36.79226397536695" lon="-4.965921984985471">
        <ele>637.00999999999999</ele>
        <time>2025-05-09T10:51:42Z</time>
      </trkpt>
      <trkpt lat="36.792230028659105" lon="-4.965810002759099">
        <ele>636.04999999999995</ele>
        <time>2025-05-09T10:51:43Z</time>
      </trkpt>
      <trkpt lat="36.792175965383649" lon="-4.965676981955767">
        <ele>636.52999999999997</ele>
        <time>2025-05-09T10:51:44Z</time>
      </trkpt>
      <trkpt lat="36.792120980098844" lon="-4.965540021657944">
        <ele>635.57000000000005</ele>
        <time>2025-05-09T10:51:45Z</time>
      </trkpt>
      <trkpt lat="36.792062977328897" lon="-4.965399038046598">
        <ele>635.09000000000003</ele>
        <time>2025-05-09T10:51:46Z</time>
      </trkpt>
      <trkpt lat="36.792003968730569" lon="-4.96525201946497">
        <ele>634.13</ele>
        <time>2025-05-09T10:51:47Z</time>
      </trkpt>
      <trkpt lat="36.791797019541264" lon="-4.964505024254322">
        <ele>630.27999999999997</ele>
        <time>2025-05-09T10:51:52Z</time>
      </trkpt>
      <trkpt lat="36.791797019541264" lon="-4.964377032592893">
        <ele>629.79999999999995</ele>
        <time>2025-05-09T10:51:53Z</time>
      </trkpt>
      <trkpt lat="36.791815040633082" lon="-4.964264966547489">
        <ele>628.84000000000003</ele>
        <time>2025-05-09T10:51:54Z</time>
      </trkpt>
      <trkpt lat="36.791843036189675" lon="-4.964143009856343">
        <ele>628.36000000000001</ele>
        <time>2025-05-09T10:51:55Z</time>
      </trkpt>
      <trkpt lat="36.791873965412378" lon="-4.964012000709772">
        <ele>627.88</ele>
        <time>2025-05-09T10:51:56Z</time>
      </trkpt>
      <trkpt lat="36.791943032294512" lon="-4.963550996035337">
        <ele>624.99000000000001</ele>
        <time>2025-05-09T10:51:59Z</time>
      </trkpt>
      <trkpt lat="36.791938003152609" lon="-4.963385034352541">
        <ele>624.50999999999999</ele>
        <time>2025-05-09T10:52:00Z</time>
      </trkpt>
      <trkpt lat="36.791932974010706" lon="-4.963218988850713">
        <ele>623.54999999999995</ele>
        <time>2025-05-09T10:52:01Z</time>
      </trkpt>
      <trkpt lat="36.791928028687835" lon="-4.963045986369252">
        <ele>622.59000000000003</ele>
        <time>2025-05-09T10:52:02Z</time>
      </trkpt>
      <trkpt lat="36.791930962353945" lon="-4.962865021079779">
        <ele>621.63</ele>
        <time>2025-05-09T10:52:03Z</time>
      </trkpt>
      <trkpt lat="36.791942026466131" lon="-4.96267500333488">
        <ele>620.66999999999996</ele>
        <time>2025-05-09T10:52:04Z</time>
      </trkpt>
      <trkpt lat="36.791952000930905" lon="-4.962484985589981">
        <ele>619.71000000000004</ele>
        <time>2025-05-09T10:52:05Z</time>
      </trkpt>
      <trkpt lat="36.791961975395679" lon="-4.962301002815366">
        <ele>619.23000000000002</ele>
        <time>2025-05-09T10:52:06Z</time>
      </trkpt>
      <trkpt lat="36.791961975395679" lon="-4.962120037525892">
        <ele>618.75</ele>
        <time>2025-05-09T10:52:07Z</time>
      </trkpt>
      <trkpt lat="36.791936997324228" lon="-4.961936976760626">
        <ele>618.75</ele>
        <time>2025-05-09T10:52:08Z</time>
      </trkpt>
      <trkpt lat="36.791890980675817" lon="-4.961748970672488">
        <ele>618.25999999999999</ele>
        <time>2025-05-09T10:52:09Z</time>
      </trkpt>
      <trkpt lat="36.791828032582998" lon="-4.961565993726254">
        <ele>618.25999999999999</ele>
        <time>2025-05-09T10:52:10Z</time>
      </trkpt>
      <trkpt lat="36.791668022051454" lon="-4.961068024858832">
        <ele>616.82000000000005</ele>
        <time>2025-05-09T10:52:13Z</time>
      </trkpt>
      <trkpt lat="36.791668022051454" lon="-4.960937015712261">
        <ele>616.82000000000005</ele>
        <time>2025-05-09T10:52:14Z</time>
      </trkpt>
      <trkpt lat="36.791705992072821" lon="-4.960818998515606">
        <ele>616.34000000000003</ele>
        <time>2025-05-09T10:52:15Z</time>
      </trkpt>
      <trkpt lat="36.791759971529245" lon="-4.960692012682557">
        <ele>615.86000000000001</ele>
        <time>2025-05-09T10:52:16Z</time>
      </trkpt>
      <trkpt lat="36.791816968470812" lon="-4.960558991879225">
        <ele>615.38</ele>
        <time>2025-05-09T10:52:17Z</time>
      </trkpt>
      <trkpt lat="36.791863990947604" lon="-4.960431000217795">
        <ele>614.89999999999998</ele>
        <time>2025-05-09T10:52:18Z</time>
      </trkpt>
      <trkpt lat="36.791877988725901" lon="-4.960285993292928">
        <ele>613.94000000000005</ele>
        <time>2025-05-09T10:52:19Z</time>
      </trkpt>
      <trkpt lat="36.791858961805701" lon="-4.96013998053968">
        <ele>612.98000000000002</ele>
        <time>2025-05-09T10:52:20Z</time>
      </trkpt>
      <trkpt lat="36.791820991784334" lon="-4.959978964179754">
        <ele>612.01999999999998</ele>
        <time>2025-05-09T10:52:21Z</time>
      </trkpt>
      <trkpt lat="36.791773969307542" lon="-4.959831023588777">
        <ele>611.05999999999995</ele>
        <time>2025-05-09T10:52:22Z</time>
      </trkpt>
      <trkpt lat="36.791703980416059" lon="-4.959690039977431">
        <ele>610.57000000000005</ele>
        <time>2025-05-09T10:52:23Z</time>
      </trkpt>
      <trkpt lat="36.7916189879179" lon="-4.959569005295634">
        <ele>609.61000000000001</ele>
        <time>2025-05-09T10:52:24Z</time>
      </trkpt>
      <trkpt lat="36.791503988206387" lon="-4.959455011412501">
        <ele>608.64999999999998</ele>
        <time>2025-05-09T10:52:25Z</time>
      </trkpt>
      <trkpt lat="36.791384965181351" lon="-4.959335988387466">
        <ele>607.69000000000005</ele>
        <time>2025-05-09T10:52:26Z</time>
      </trkpt>
      <trkpt lat="36.791260996833444" lon="-4.959211014211178">
        <ele>606.25</ele>
        <time>2025-05-09T10:52:27Z</time>
      </trkpt>
      <trkpt lat="36.791126970201731" lon="-4.959144964814186">
        <ele>605.28999999999996</ele>
        <time>2025-05-09T10:52:28Z</time>
      </trkpt>
      <trkpt lat="36.790983974933624" lon="-4.959101965650916">
        <ele>603.85000000000002</ele>
        <time>2025-05-09T10:52:29Z</time>
      </trkpt>
      <trkpt lat="36.79084500297904" lon="-4.959071036428213">
        <ele>602.88</ele>
        <time>2025-05-09T10:52:30Z</time>
      </trkpt>
      <trkpt lat="36.790725979954004" lon="-4.95904496870935">
        <ele>601.91999999999996</ele>
        <time>2025-05-09T10:52:31Z</time>
      </trkpt>
      <trkpt lat="36.790636964142323" lon="-4.958965005353093">
        <ele>600.48000000000002</ele>
        <time>2025-05-09T10:52:32Z</time>
      </trkpt>
      <trkpt lat="36.790567981079221" lon="-4.958887975662947">
        <ele>600</ele>
        <time>2025-05-09T10:52:33Z</time>
      </trkpt>
      <trkpt lat="36.790519030764699" lon="-4.958779010921717">
        <ele>598.55999999999995</ele>
        <time>2025-05-09T10:52:34Z</time>
      </trkpt>
      <trkpt lat="36.790493968874216" lon="-4.958643978461623">
        <ele>597.60000000000002</ele>
        <time>2025-05-09T10:52:35Z</time>
      </trkpt>
      <trkpt lat="36.790488017722964" lon="-4.958499977365136">
        <ele>596.63999999999999</ele>
        <time>2025-05-09T10:52:36Z</time>
      </trkpt>
      <trkpt lat="36.790488017722964" lon="-4.958375003188849">
        <ele>595.66999999999996</ele>
        <time>2025-05-09T10:52:37Z</time>
      </trkpt>
      <trkpt lat="36.79052297025919" lon="-4.958193032070994">
        <ele>594.71000000000004</ele>
        <time>2025-05-09T10:52:38Z</time>
      </trkpt>
      <trkpt lat="36.790554989129305" lon="-4.958024974912405">
        <ele>593.26999999999998</ele>
        <time>2025-05-09T10:52:39Z</time>
      </trkpt>
      <trkpt lat="36.790647022426128" lon="-4.957543015480042">
        <ele>589.42999999999995</ele>
        <time>2025-05-09T10:52:42Z</time>
      </trkpt>
      <trkpt lat="36.790641993284225" lon="-4.957386022433639">
        <ele>588.46000000000004</ele>
        <time>2025-05-09T10:52:43Z</time>
      </trkpt>
      <trkpt lat="36.790607040748" lon="-4.957237998023629">
        <ele>587.01999999999998</ele>
        <time>2025-05-09T10:52:44Z</time>
      </trkpt>
      <trkpt lat="36.790546020492911" lon="-4.957103971391916">
        <ele>586.05999999999995</ele>
        <time>2025-05-09T10:52:45Z</time>
      </trkpt>
      <trkpt lat="36.790485000237823" lon="-4.956971034407616">
        <ele>584.62</ele>
        <time>2025-05-09T10:52:46Z</time>
      </trkpt>
      <trkpt lat="36.790429009124637" lon="-4.956848993897438">
        <ele>583.65999999999997</ele>
        <time>2025-05-09T10:52:47Z</time>
      </trkpt>
      <trkpt lat="36.790380980819464" lon="-4.956743968650699">
        <ele>582.70000000000005</ele>
        <time>2025-05-09T10:52:48Z</time>
      </trkpt>
      <trkpt lat="36.790380980819464" lon="-4.95663701556623">
        <ele>581.73000000000002</ele>
        <time>2025-05-09T10:52:49Z</time>
      </trkpt>
      <trkpt lat="36.790400007739663" lon="-4.956541964784265">
        <ele>581.25</ele>
        <time>2025-05-09T10:52:50Z</time>
      </trkpt>
      <trkpt lat="36.790450969710946" lon="-4.956459989771247">
        <ele>579.80999999999995</ele>
        <time>2025-05-09T10:52:51Z</time>
      </trkpt>
      <trkpt lat="36.790505032986403" lon="-4.956385977566242">
        <ele>578.85000000000002</ele>
        <time>2025-05-09T10:52:52Z</time>
      </trkpt>
      <trkpt lat="36.790577033534646" lon="-4.956325041130185">
        <ele>577.88999999999999</ele>
        <time>2025-05-09T10:52:53Z</time>
      </trkpt>
      <trkpt lat="36.790651967749" lon="-4.956262009218335">
        <ele>577.40999999999997</ele>
        <time>2025-05-09T10:52:54Z</time>
      </trkpt>
      <trkpt lat="36.790725979954004" lon="-4.956199983134866">
        <ele>576.45000000000005</ele>
        <time>2025-05-09T10:52:55Z</time>
      </trkpt>
      <trkpt lat="36.79077903740108" lon="-4.956118008121848">
        <ele>575.49000000000001</ele>
        <time>2025-05-09T10:52:56Z</time>
      </trkpt>
      <trkpt lat="36.790806027129292" lon="-4.956010971218348">
        <ele>574.52999999999997</ele>
        <time>2025-05-09T10:52:57Z</time>
      </trkpt>
      <trkpt lat="36.790833016857505" lon="-4.955898988991976">
        <ele>573.55999999999995</ele>
        <time>2025-05-09T10:52:58Z</time>
      </trkpt>
      <trkpt lat="36.790861012414098" lon="-4.955784995108843">
        <ele>572.60000000000002</ele>
        <time>2025-05-09T10:52:59Z</time>
      </trkpt>
      <trkpt lat="36.79088699631393" lon="-4.955676030367613">
        <ele>571.63999999999999</ele>
        <time>2025-05-09T10:53:00Z</time>
      </trkpt>
      <trkpt lat="36.790911974385381" lon="-4.955566981807351">
        <ele>570.67999999999995</ele>
        <time>2025-05-09T10:53:01Z</time>
      </trkpt>
      <trkpt lat="36.790938964113593" lon="-4.955452987924218">
        <ele>569.24000000000001</ele>
        <time>2025-05-09T10:53:02Z</time>
      </trkpt>
      <trkpt lat="36.790965031832457" lon="-4.955341005697846">
        <ele>568.27999999999997</ele>
        <time>2025-05-09T10:53:03Z</time>
      </trkpt>
      <trkpt lat="36.790990009903908" lon="-4.955234974622726">
        <ele>567.32000000000005</ele>
        <time>2025-05-09T10:53:04Z</time>
      </trkpt>
      <trkpt lat="36.791065027937293" lon="-4.954915959388018">
        <ele>565.38999999999999</ele>
        <time>2025-05-09T10:53:07Z</time>
      </trkpt>
      <trkpt lat="36.791346995159984" lon="-4.953739978373051">
        <ele>559.13999999999999</ele>
        <time>2025-05-09T10:53:18Z</time>
      </trkpt>
      <trkpt lat="36.791407009586692" lon="-4.95345700532198">
        <ele>559.13999999999999</ele>
        <time>2025-05-09T10:53:21Z</time>
      </trkpt>
      <trkpt lat="36.791423019021749" lon="-4.953259024769068">
        <ele>558.65999999999997</ele>
        <time>2025-05-09T10:53:23Z</time>
      </trkpt>
      <trkpt lat="36.791431987658143" lon="-4.953117035329342">
        <ele>558.65999999999997</ele>
        <time>2025-05-09T10:53:24Z</time>
      </trkpt>
      <trkpt lat="36.791413966566324" lon="-4.953064983710647">
        <ele>558.17999999999995</ele>
        <time>2025-05-09T10:53:25Z</time>
      </trkpt>
      <trkpt lat="36.791346995159984" lon="-4.952879995107651">
        <ele>557.70000000000005</ele>
        <time>2025-05-09T10:53:27Z</time>
      </trkpt>
      <trkpt lat="36.791152032092214" lon="-4.952338021248579">
        <ele>555.29999999999995</ele>
        <time>2025-05-09T10:53:32Z</time>
      </trkpt>
      <trkpt lat="36.791113978251815" lon="-4.952226039022207">
        <ele>554.34000000000003</ele>
        <time>2025-05-09T10:53:33Z</time>
      </trkpt>
      <trkpt lat="36.79108296521008" lon="-4.952134005725384">
        <ele>553.86000000000001</ele>
        <time>2025-05-09T10:53:34Z</time>
      </trkpt>
      <trkpt lat="36.791053041815758" lon="-4.95204096660018">
        <ele>552.89999999999998</ele>
        <time>2025-05-09T10:53:35Z</time>
      </trkpt>
      <trkpt lat="36.791019011288881" lon="-4.951928984373808">
        <ele>552.40999999999997</ele>
        <time>2025-05-09T10:53:36Z</time>
      </trkpt>
      <trkpt lat="36.790782976895571" lon="-4.951079981401563">
        <ele>548.09000000000003</ele>
        <time>2025-05-09T10:53:44Z</time>
      </trkpt>
      <trkpt lat="36.790653979405761" lon="-4.950662981718779">
        <ele>545.69000000000005</ele>
        <time>2025-05-09T10:53:49Z</time>
      </trkpt>
      <trkpt lat="36.790634030476213" lon="-4.950606990605593">
        <ele>544.72000000000003</ele>
        <time>2025-05-09T10:53:50Z</time>
      </trkpt>
      <trkpt lat="36.790455998852849" lon="-4.95027800090611">
        <ele>540.39999999999998</ele>
        <time>2025-05-09T10:53:58Z</time>
      </trkpt>
      <trkpt lat="36.790433032438159" lon="-4.950242964550853">
        <ele>540.39999999999998</ele>
        <time>2025-05-09T10:53:59Z</time>
      </trkpt>
      <trkpt lat="36.790417023003101" lon="-4.950216980651021">
        <ele>540.39999999999998</ele>
        <time>2025-05-09T10:54:00Z</time>
      </trkpt>
      <trkpt lat="36.790358014404774" lon="-4.950124025344849">
        <ele>539.91999999999996</ele>
        <time>2025-05-09T10:54:03Z</time>
      </trkpt>
      <trkpt lat="36.790362959727645" lon="-4.950067028403282">
        <ele>540.39999999999998</ele>
        <time>2025-05-09T10:54:04Z</time>
      </trkpt>
      <trkpt lat="36.790377041324973" lon="-4.950053030624986">
        <ele>540.39999999999998</ele>
        <time>2025-05-09T10:54:05Z</time>
      </trkpt>
      <trkpt lat="36.790395984426141" lon="-4.950034003704786">
        <ele>540.39999999999998</ele>
        <time>2025-05-09T10:54:06Z</time>
      </trkpt>
      <trkpt lat="36.790417023003101" lon="-4.950012965127826">
        <ele>540.39999999999998</ele>
        <time>2025-05-09T10:54:07Z</time>
      </trkpt>
      <trkpt lat="36.790442001074553" lon="-4.949987987056375">
        <ele>539.91999999999996</ele>
        <time>2025-05-09T10:54:08Z</time>
      </trkpt>
      <trkpt lat="36.790468990802765" lon="-4.949960997328162">
        <ele>539.91999999999996</ele>
        <time>2025-05-09T10:54:09Z</time>
      </trkpt>
      <trkpt lat="36.790527999401093" lon="-4.949724962934852">
        <ele>539.44000000000005</ele>
        <time>2025-05-09T10:54:14Z</time>
      </trkpt>
      <trkpt lat="36.79060603491962" lon="-4.949715994298458">
        <ele>539.44000000000005</ele>
        <time>2025-05-09T10:54:15Z</time>
      </trkpt>
      <trkpt lat="36.790634030476213" lon="-4.949733009561896">
        <ele>539.91999999999996</ele>
        <time>2025-05-09T10:54:16Z</time>
      </trkpt>
      <trkpt lat="36.79065297357738" lon="-4.949799980968237">
        <ele>539.91999999999996</ele>
        <time>2025-05-09T10:54:17Z</time>
      </trkpt>
      <trkpt lat="36.79064903408289" lon="-4.949826970696449">
        <ele>539.91999999999996</ele>
        <time>2025-05-09T10:54:18Z</time>
      </trkpt>
      <trkpt lat="36.790644004940987" lon="-4.949857983738184">
        <ele>539.91999999999996</ele>
        <time>2025-05-09T10:54:19Z</time>
      </trkpt>
      <trkpt lat="36.790639981627464" lon="-4.949890002608299">
        <ele>539.91999999999996</ele>
        <time>2025-05-09T10:54:20Z</time>
      </trkpt>
      <trkpt lat="36.790658002719283" lon="-4.949982035905123">
        <ele>540.39999999999998</ele>
        <time>2025-05-09T10:54:31Z</time>
      </trkpt>
      <trkpt lat="36.790723968297243" lon="-4.950268026441336">
        <ele>542.32000000000005</ele>
        <time>2025-05-09T10:54:42Z</time>
      </trkpt>
      <trkpt lat="36.790742995217443" lon="-4.950354024767876">
        <ele>543.75999999999999</ele>
        <time>2025-05-09T10:54:55Z</time>
      </trkpt>
      <trkpt lat="36.790742995217443" lon="-4.950354024767876">
        <ele>543.75999999999999</ele>
        <time>2025-05-09T10:54:58Z</time>
      </trkpt>
      <trkpt lat="36.790736960247159" lon="-4.950325023382902">
        <ele>544.24000000000001</ele>
        <time>2025-05-09T10:55:01Z</time>
      </trkpt>
      <trkpt lat="36.790730003267527" lon="-4.950295016169548">
        <ele>544.24000000000001</ele>
        <time>2025-05-09T10:55:02Z</time>
      </trkpt>
      <trkpt lat="36.790613997727633" lon="-4.949898971244693">
        <ele>546.16999999999996</ele>
        <time>2025-05-09T10:55:13Z</time>
      </trkpt>
      <trkpt lat="36.790594970807433" lon="-4.949898971244693">
        <ele>546.16999999999996</ele>
        <time>2025-05-09T10:55:14Z</time>
      </trkpt>
      <trkpt lat="36.790577033534646" lon="-4.949898971244693">
        <ele>546.64999999999998</ele>
        <time>2025-05-09T10:55:15Z</time>
      </trkpt>
      <trkpt lat="36.790561024099588" lon="-4.949898971244693">
        <ele>546.64999999999998</ele>
        <time>2025-05-09T10:55:16Z</time>
      </trkpt>
      <trkpt lat="36.790546020492911" lon="-4.949898971244693">
        <ele>546.64999999999998</ele>
        <time>2025-05-09T10:55:17Z</time>
      </trkpt>
      <trkpt lat="36.790466979146004" lon="-4.949963008984923">
        <ele>547.13</ele>
        <time>2025-05-09T10:55:20Z</time>
      </trkpt>
      <trkpt lat="36.790530011057854" lon="-4.949896959587932">
        <ele>547.61000000000001</ele>
        <time>2025-05-09T10:55:21Z</time>
      </trkpt>
      <trkpt lat="36.790518024936318" lon="-4.949866030365229">
        <ele>547.61000000000001</ele>
        <time>2025-05-09T10:55:22Z</time>
      </trkpt>
      <trkpt lat="36.790503021329641" lon="-4.94982797652483">
        <ele>548.09000000000003</ele>
        <time>2025-05-09T10:55:23Z</time>
      </trkpt>
      <trkpt lat="36.790488017722964" lon="-4.949791012331843">
        <ele>548.09000000000003</ele>
        <time>2025-05-09T10:55:24Z</time>
      </trkpt>
      <trkpt lat="36.790496986359358" lon="-4.949777014553547">
        <ele>548.09000000000003</ele>
        <time>2025-05-09T10:55:25Z</time>
      </trkpt>
      <trkpt lat="36.790521964430809" lon="-4.949735021218658">
        <ele>548.57000000000005</ele>
        <time>2025-05-09T10:55:26Z</time>
      </trkpt>
      <trkpt lat="36.79054300300777" lon="-4.949593031778932">
        <ele>549.04999999999995</ele>
        <time>2025-05-09T10:55:33Z</time>
      </trkpt>
      <trkpt lat="36.790505032986403" lon="-4.949280973523855">
        <ele>548.57000000000005</ele>
        <time>2025-05-09T10:55:39Z</time>
      </trkpt>
      <trkpt lat="36.79050100967288" lon="-4.949248032644391">
        <ele>548.57000000000005</ele>
        <time>2025-05-09T10:55:40Z</time>
      </trkpt>
      <trkpt lat="36.790497992187738" lon="-4.949223976582289">
        <ele>548.57000000000005</ele>
        <time>2025-05-09T10:55:41Z</time>
      </trkpt>
      <trkpt lat="36.790488017722964" lon="-4.949083998799324">
        <ele>549.04999999999995</ele>
        <time>2025-05-09T10:55:44Z</time>
      </trkpt>
      <trkpt lat="36.790488017722964" lon="-4.948970004916191">
        <ele>549.04999999999995</ele>
        <time>2025-05-09T10:55:46Z</time>
      </trkpt>
      <trkpt lat="36.790488017722964" lon="-4.948914013803005">
        <ele>549.52999999999997</ele>
        <time>2025-05-09T10:55:47Z</time>
      </trkpt>
      <trkpt lat="36.790488017722964" lon="-4.948761966079474">
        <ele>550.97000000000003</ele>
        <time>2025-05-09T10:55:54Z</time>
      </trkpt>
      <trkpt lat="36.790404031053185" lon="-4.94817104190588">
        <ele>554.82000000000005</ele>
        <time>2025-05-09T10:56:03Z</time>
      </trkpt>
      <trkpt lat="36.790381986647844" lon="-4.948114966973662">
        <ele>555.29999999999995</ele>
        <time>2025-05-09T10:56:04Z</time>
      </trkpt>
      <trkpt lat="36.790340999141335" lon="-4.948009019717574">
        <ele>556.74000000000001</ele>
        <time>2025-05-09T10:56:10Z</time>
      </trkpt>
      <trkpt lat="36.790317026898265" lon="-4.947945987805724">
        <ele>557.70000000000005</ele>
        <time>2025-05-09T10:56:11Z</time>
      </trkpt>
      <trkpt lat="36.790317026898265" lon="-4.947945987805724">
        <ele>558.17999999999995</ele>
        <time>2025-05-09T10:56:12Z</time>
      </trkpt>
      <trkpt lat="36.790317026898265" lon="-4.947945987805724">
        <ele>558.65999999999997</ele>
        <time>2025-05-09T10:56:13Z</time>
      </trkpt>
      <trkpt lat="36.790218036621809" lon="-4.947911035269499">
        <ele>559.13999999999999</ele>
        <time>2025-05-09T10:56:14Z</time>
      </trkpt>
      <trkpt lat="36.79017998278141" lon="-4.947925033047795">
        <ele>559.62</ele>
        <time>2025-05-09T10:56:15Z</time>
      </trkpt>
      <trkpt lat="36.790142012760043" lon="-4.947939030826092">
        <ele>560.11000000000001</ele>
        <time>2025-05-09T10:56:16Z</time>
      </trkpt>
      <trkpt lat="36.790004968643188" lon="-4.947989992797375">
        <ele>561.54999999999995</ele>
        <time>2025-05-09T10:56:25Z</time>
      </trkpt>
      <trkpt lat="36.789987031370401" lon="-4.947997033596039">
        <ele>562.02999999999997</ele>
        <time>2025-05-09T10:56:27Z</time>
      </trkpt>
      <trkpt lat="36.789980996400118" lon="-4.948068028315902">
        <ele>562.02999999999997</ele>
        <time>2025-05-09T10:56:28Z</time>
      </trkpt>
      <trkpt lat="36.790055008605123" lon="-4.948217980563641">
        <ele>560.59000000000003</ele>
        <time>2025-05-09T10:56:33Z</time>
      </trkpt>
      <trkpt lat="36.790065988898277" lon="-4.948270032182336">
        <ele>560.59000000000003</ele>
        <time>2025-05-09T10:56:34Z</time>
      </trkpt>
      <trkpt lat="36.790065988898277" lon="-4.948270032182336">
        <ele>560.59000000000003</ele>
        <time>2025-05-09T10:56:47Z</time>
      </trkpt>
      <trkpt lat="36.790065988898277" lon="-4.948270032182336">
        <ele>559.62</ele>
        <time>2025-05-09T10:56:49Z</time>
      </trkpt>
      <trkpt lat="36.790079986676574" lon="-4.948268020525575">
        <ele>558.65999999999997</ele>
        <time>2025-05-09T10:56:52Z</time>
      </trkpt>
      <trkpt lat="36.790143018588424" lon="-4.948343960568309">
        <ele>558.65999999999997</ele>
        <time>2025-05-09T10:56:53Z</time>
      </trkpt>
      <trkpt lat="36.790177971124649" lon="-4.94838603772223">
        <ele>558.65999999999997</ele>
        <time>2025-05-09T10:56:54Z</time>
      </trkpt>
      <trkpt lat="36.790218036621809" lon="-4.948434988036752">
        <ele>558.17999999999995</ele>
        <time>2025-05-09T10:56:55Z</time>
      </trkpt>
      <trkpt lat="36.790260029956698" lon="-4.948486033827066">
        <ele>558.17999999999995</ele>
        <time>2025-05-09T10:56:56Z</time>
      </trkpt>
      <trkpt lat="36.790429009124637" lon="-4.94868996553123">
        <ele>556.74000000000001</ele>
        <time>2025-05-09T10:57:04Z</time>
      </trkpt>
      <trkpt lat="36.790488017722964" lon="-4.948761966079474">
        <ele>556.25999999999999</ele>
        <time>2025-05-09T10:57:18Z</time>
      </trkpt>
      <trkpt lat="36.790488017722964" lon="-4.948768001049757">
        <ele>555.77999999999997</ele>
        <time>2025-05-09T10:57:19Z</time>
      </trkpt>
      <trkpt lat="36.790473014116287" lon="-4.948743022978306">
        <ele>555.77999999999997</ele>
        <time>2025-05-09T10:57:20Z</time>
      </trkpt>
      <trkpt lat="36.790488017722964" lon="-4.948896998539567">
        <ele>554.82000000000005</ele>
        <time>2025-05-09T10:57:23Z</time>
      </trkpt>
      <trkpt lat="36.790496986359358" lon="-4.949221964925528">
        <ele>552.89999999999998</ele>
        <time>2025-05-09T10:57:28Z</time>
      </trkpt>
      <trkpt lat="36.790505032986403" lon="-4.949278961867094">
        <ele>552.89999999999998</ele>
        <time>2025-05-09T10:57:29Z</time>
      </trkpt>
      <trkpt lat="36.790531016886234" lon="-4.949491024017334">
        <ele>551.92999999999995</ele>
        <time>2025-05-09T10:57:35Z</time>
      </trkpt>
      <trkpt lat="36.790535962209105" lon="-4.949533017352223">
        <ele>551.45000000000005</ele>
        <time>2025-05-09T10:57:36Z</time>
      </trkpt>
      <trkpt lat="36.790538979694247" lon="-4.949564030393958">
        <ele>551.45000000000005</ele>
        <time>2025-05-09T10:57:37Z</time>
      </trkpt>
      <trkpt lat="36.790654985234141" lon="-4.949779026210308">
        <ele>550.97000000000003</ele>
        <time>2025-05-09T10:57:42Z</time>
      </trkpt>
      <trkpt lat="36.79064903408289" lon="-4.949824037030339">
        <ele>551.45000000000005</ele>
        <time>2025-05-09T10:57:43Z</time>
      </trkpt>
      <trkpt lat="36.790644004940987" lon="-4.949861001223326">
        <ele>551.45000000000005</ele>
        <time>2025-05-09T10:57:44Z</time>
      </trkpt>
      <trkpt lat="36.790531016886234" lon="-4.949898971244693">
        <ele>551.45000000000005</ele>
        <time>2025-05-09T10:57:45Z</time>
      </trkpt>
      <trkpt lat="36.790531016886234" lon="-4.949898971244693">
        <ele>551.45000000000005</ele>
        <time>2025-05-09T10:57:46Z</time>
      </trkpt>
      <trkpt lat="36.79054400883615" lon="-4.949898971244693">
        <ele>551.45000000000005</ele>
        <time>2025-05-09T10:57:47Z</time>
      </trkpt>
      <trkpt lat="36.790517019107938" lon="-4.949912969022989">
        <ele>551.45000000000005</ele>
        <time>2025-05-09T10:57:48Z</time>
      </trkpt>
      <trkpt lat="36.790449041873217" lon="-4.949981030076742">
        <ele>552.89999999999998</ele>
        <time>2025-05-09T10:57:59Z</time>
      </trkpt>
      <trkpt lat="36.790331024676561" lon="-4.950087983161211">
        <ele>552.89999999999998</ele>
        <time>2025-05-09T10:58:02Z</time>
      </trkpt>
      <trkpt lat="36.790276039391756" lon="-4.950053030624986">
        <ele>552.89999999999998</ele>
        <time>2025-05-09T10:58:03Z</time>
      </trkpt>
      <trkpt lat="36.790206972509623" lon="-4.950010031461716">
        <ele>552.89999999999998</ele>
        <time>2025-05-09T10:58:04Z</time>
      </trkpt>
      <trkpt lat="36.789988037198782" lon="-4.949873993173242">
        <ele>551.45000000000005</ele>
        <time>2025-05-09T10:58:07Z</time>
      </trkpt>
      <trkpt lat="36.789913019165397" lon="-4.949836023151875">
        <ele>550.97000000000003</ele>
        <time>2025-05-09T10:58:08Z</time>
      </trkpt>
      <trkpt lat="36.789763988927007" lon="-4.949765028432012">
        <ele>550.00999999999999</ele>
        <time>2025-05-09T10:58:10Z</time>
      </trkpt>
      <trkpt lat="36.789519991725683" lon="-4.949671989306808">
        <ele>549.04999999999995</ele>
        <time>2025-05-09T10:58:13Z</time>
      </trkpt>
      <trkpt lat="36.788793029263616" lon="-4.949374012649059">
        <ele>546.16999999999996</ele>
        <time>2025-05-09T10:58:22Z</time>
      </trkpt>
      <trkpt lat="36.788174025714397" lon="-4.949091039597988">
        <ele>547.61000000000001</ele>
        <time>2025-05-09T10:58:28Z</time>
      </trkpt>
      <trkpt lat="36.788074029609561" lon="-4.949045022949576">
        <ele>548.09000000000003</ele>
        <time>2025-05-09T10:58:29Z</time>
      </trkpt>
      <trkpt lat="36.788002029061317" lon="-4.948942009359598">
        <ele>548.57000000000005</ele>
        <time>2025-05-09T10:58:30Z</time>
      </trkpt>
      <trkpt lat="36.787932040169835" lon="-4.948830027133226">
        <ele>549.04999999999995</ele>
        <time>2025-05-09T10:58:31Z</time>
      </trkpt>
      <trkpt lat="36.787848975509405" lon="-4.948697006329894">
        <ele>550.00999999999999</ele>
        <time>2025-05-09T10:58:32Z</time>
      </trkpt>
      <trkpt lat="36.7877939902246" lon="-4.948573959991336">
        <ele>550.97000000000003</ele>
        <time>2025-05-09T10:58:33Z</time>
      </trkpt>
      <trkpt lat="36.787135004997253" lon="-4.947299994528294">
        <ele>559.13999999999999</ele>
        <time>2025-05-09T10:58:41Z</time>
      </trkpt>
      <trkpt lat="36.785929016768932" lon="-4.94604698382318">
        <ele>567.32000000000005</ele>
        <time>2025-05-09T10:58:50Z</time>
      </trkpt>
      <trkpt lat="36.785030979663134" lon="-4.945238968357444">
        <ele>575.97000000000003</ele>
        <time>2025-05-09T10:58:56Z</time>
      </trkpt>
      <trkpt lat="36.784879015758634" lon="-4.945177026093006">
        <ele>576.92999999999995</ele>
        <time>2025-05-09T10:58:57Z</time>
      </trkpt>
      <trkpt lat="36.784729985520244" lon="-4.945130003616214">
        <ele>578.37</ele>
        <time>2025-05-09T10:58:58Z</time>
      </trkpt>
      <trkpt lat="36.784609034657478" lon="-4.945092033594847">
        <ele>579.33000000000004</ele>
        <time>2025-05-09T10:58:59Z</time>
      </trkpt>
      <trkpt lat="36.784469978883862" lon="-4.944988014176488">
        <ele>579.80999999999995</ele>
        <time>2025-05-09T10:59:00Z</time>
      </trkpt>
      <trkpt lat="36.784371994435787" lon="-4.944855999201536">
        <ele>580.76999999999998</ele>
        <time>2025-05-09T10:59:01Z</time>
      </trkpt>
      <trkpt lat="36.784274009987712" lon="-4.94469397701323">
        <ele>582.22000000000003</ele>
        <time>2025-05-09T10:59:02Z</time>
      </trkpt>
      <trkpt lat="36.784172002226114" lon="-4.944527009502053">
        <ele>583.17999999999995</ele>
        <time>2025-05-09T10:59:03Z</time>
      </trkpt>
      <trkpt lat="36.784068988636136" lon="-4.944356018677354">
        <ele>584.13999999999999</ele>
        <time>2025-05-09T10:59:04Z</time>
      </trkpt>
      <trkpt lat="36.783978966996074" lon="-4.944170024245977">
        <ele>585.10000000000002</ele>
        <time>2025-05-09T10:59:05Z</time>
      </trkpt>
      <trkpt lat="36.783932028338313" lon="-4.943953016772866">
        <ele>586.53999999999996</ele>
        <time>2025-05-09T10:59:06Z</time>
      </trkpt>
      <trkpt lat="36.783815016970038" lon="-4.943333007395268">
        <ele>590.38999999999999</ele>
        <time>2025-05-09T10:59:09Z</time>
      </trkpt>
      <trkpt lat="36.783833038061857" lon="-4.943125974386931">
        <ele>591.83000000000004</ele>
        <time>2025-05-09T10:59:10Z</time>
      </trkpt>
      <trkpt lat="36.783849969506264" lon="-4.942732024937868">
        <ele>595.19000000000005</ele>
        <time>2025-05-09T10:59:12Z</time>
      </trkpt>
      <trkpt lat="36.783835971727967" lon="-4.942538989707828">
        <ele>596.14999999999998</ele>
        <time>2025-05-09T10:59:13Z</time>
      </trkpt>
      <trkpt lat="36.78377402946353" lon="-4.942343020811677">
        <ele>597.60000000000002</ele>
        <time>2025-05-09T10:59:14Z</time>
      </trkpt>
      <trkpt lat="36.78371099755168" lon="-4.942145962268114">
        <ele>599.03999999999996</ele>
        <time>2025-05-09T10:59:15Z</time>
      </trkpt>
      <trkpt lat="36.783630028367043" lon="-4.941971031948924">
        <ele>600</ele>
        <time>2025-05-09T10:59:16Z</time>
      </trkpt>
      <trkpt lat="36.783535983413458" lon="-4.941809009760618">
        <ele>600.96000000000004</ele>
        <time>2025-05-09T10:59:17Z</time>
      </trkpt>
      <trkpt lat="36.78341000340879" lon="-4.94168302975595">
        <ele>601.91999999999996</ele>
        <time>2025-05-09T10:59:18Z</time>
      </trkpt>
      <trkpt lat="36.783270025625825" lon="-4.941572975367308">
        <ele>602.88</ele>
        <time>2025-05-09T10:59:19Z</time>
      </trkpt>
      <trkpt lat="36.783098028972745" lon="-4.941499968990684">
        <ele>603.36000000000001</ele>
        <time>2025-05-09T10:59:20Z</time>
      </trkpt>
      <trkpt lat="36.78291798569262" lon="-4.941423023119569">
        <ele>604.33000000000004</ele>
        <time>2025-05-09T10:59:21Z</time>
      </trkpt>
      <trkpt lat="36.781716020777822" lon="-4.94078197516501">
        <ele>604.80999999999995</ele>
        <time>2025-05-09T10:59:28Z</time>
      </trkpt>
      <trkpt lat="36.781101040542126" lon="-4.940390037372708">
        <ele>601.44000000000005</ele>
        <time>2025-05-09T10:59:32Z</time>
      </trkpt>
      <trkpt lat="36.78096299059689" lon="-4.940391965210438">
        <ele>600.48000000000002</ele>
        <time>2025-05-09T10:59:33Z</time>
      </trkpt>
      <trkpt lat="36.780831981450319" lon="-4.940435970202088">
        <ele>600</ele>
        <time>2025-05-09T10:59:34Z</time>
      </trkpt>
      <trkpt lat="36.780707007274032" lon="-4.94050201959908">
        <ele>599.03999999999996</ele>
        <time>2025-05-09T10:59:35Z</time>
      </trkpt>
      <trkpt lat="36.780570968985558" lon="-4.940573014318943">
        <ele>597.60000000000002</ele>
        <time>2025-05-09T10:59:36Z</time>
      </trkpt>
      <trkpt lat="36.780439959838986" lon="-4.940641997382045">
        <ele>597.12</ele>
        <time>2025-05-09T10:59:37Z</time>
      </trkpt>
      <trkpt lat="36.780312974005938" lon="-4.940632022917271">
        <ele>596.14999999999998</ele>
        <time>2025-05-09T10:59:38Z</time>
      </trkpt>
      <trkpt lat="36.780181964859366" lon="-4.94060997851193">
        <ele>595.66999999999996</ele>
        <time>2025-05-09T10:59:39Z</time>
      </trkpt>
      <trkpt lat="36.780069982632995" lon="-4.940531020984054">
        <ele>594.71000000000004</ele>
        <time>2025-05-09T10:59:40Z</time>
      </trkpt>
      <trkpt lat="36.779939979314804" lon="-4.940429013222456">
        <ele>593.26999999999998</ele>
        <time>2025-05-09T10:59:41Z</time>
      </trkpt>
      <trkpt lat="36.779806958511472" lon="-4.940323987975717">
        <ele>592.30999999999995</ele>
        <time>2025-05-09T10:59:42Z</time>
      </trkpt>
      <trkpt lat="36.779669998213649" lon="-4.940256010740995">
        <ele>590.38999999999999</ele>
        <time>2025-05-09T10:59:43Z</time>
      </trkpt>
      <trkpt lat="36.77956597879529" lon="-4.940220974385738">
        <ele>589.42999999999995</ele>
        <time>2025-05-09T10:59:44Z</time>
      </trkpt>
      <trkpt lat="36.779443016275764" lon="-4.940251987427473">
        <ele>587.98000000000002</ele>
        <time>2025-05-09T10:59:45Z</time>
      </trkpt>
      <trkpt lat="36.77932801656425" lon="-4.94030999019742">
        <ele>587.01999999999998</ele>
        <time>2025-05-09T10:59:46Z</time>
      </trkpt>
      <trkpt lat="36.779198013246059" lon="-4.940400011837483">
        <ele>585.58000000000004</ele>
        <time>2025-05-09T10:59:47Z</time>
      </trkpt>
      <trkpt lat="36.779069015756249" lon="-4.940488021820784">
        <ele>584.13999999999999</ele>
        <time>2025-05-09T10:59:48Z</time>
      </trkpt>
      <trkpt lat="36.778915962204337" lon="-4.940531020984054">
        <ele>582.70000000000005</ele>
        <time>2025-05-09T10:59:49Z</time>
      </trkpt>
      <trkpt lat="36.778755029663444" lon="-4.94056798517704">
        <ele>581.25</ele>
        <time>2025-05-09T10:59:50Z</time>
      </trkpt>
      <trkpt lat="36.778584038838744" lon="-4.940606961026788">
        <ele>580.28999999999996</ele>
        <time>2025-05-09T10:59:51Z</time>
      </trkpt>
      <trkpt lat="36.778012979775667" lon="-4.940626993775368">
        <ele>576.45000000000005</ele>
        <time>2025-05-09T10:59:54Z</time>
      </trkpt>
      <trkpt lat="36.77782204002142" lon="-4.940571002662182">
        <ele>575.97000000000003</ele>
        <time>2025-05-09T10:59:55Z</time>
      </trkpt>
      <trkpt lat="36.77763101644814" lon="-4.940515011548996">
        <ele>575.00999999999999</ele>
        <time>2025-05-09T10:59:56Z</time>
      </trkpt>
      <trkpt lat="36.777448039501905" lon="-4.940436976030469">
        <ele>574.52999999999997</ele>
        <time>2025-05-09T10:59:57Z</time>
      </trkpt>
      <trkpt lat="36.777280988171697" lon="-4.940317030996084">
        <ele>574.03999999999996</ele>
        <time>2025-05-09T10:59:58Z</time>
      </trkpt>
      <trkpt lat="36.777116032317281" lon="-4.940198007971048">
        <ele>573.55999999999995</ele>
        <time>2025-05-09T10:59:59Z</time>
      </trkpt>
      <trkpt lat="36.776956021785736" lon="-4.940078984946013">
        <ele>573.55999999999995</ele>
        <time>2025-05-09T11:00:00Z</time>
      </trkpt>
      <trkpt lat="36.776675982400775" lon="-4.939819984138012">
        <ele>574.03999999999996</ele>
        <time>2025-05-09T11:00:02Z</time>
      </trkpt>
      <trkpt lat="36.776583027094603" lon="-4.939645975828171">
        <ele>574.52999999999997</ele>
        <time>2025-05-09T11:00:03Z</time>
      </trkpt>
      <trkpt lat="36.776489987969398" lon="-4.939464004710317">
        <ele>575.00999999999999</ele>
        <time>2025-05-09T11:00:04Z</time>
      </trkpt>
      <trkpt lat="36.776211960241199" lon="-4.938919013366103">
        <ele>575.97000000000003</ele>
        <time>2025-05-09T11:00:07Z</time>
      </trkpt>
      <trkpt lat="36.776094026863575" lon="-4.938764031976461">
        <ele>575.97000000000003</ele>
        <time>2025-05-09T11:00:08Z</time>
      </trkpt>
      <trkpt lat="36.775965029373765" lon="-4.938625982031226">
        <ele>575.97000000000003</ele>
        <time>2025-05-09T11:00:09Z</time>
      </trkpt>
      <trkpt lat="36.774984011426568" lon="-4.938014019280672">
        <ele>577.40999999999997</ele>
        <time>2025-05-09T11:00:15Z</time>
      </trkpt>
      <trkpt lat="36.77468997426331" lon="-4.937917040660977">
        <ele>578.37</ele>
        <time>2025-05-09T11:00:17Z</time>
      </trkpt>
      <trkpt lat="36.77453700453043" lon="-4.937888039276004">
        <ele>579.33000000000004</ele>
        <time>2025-05-09T11:00:18Z</time>
      </trkpt>
      <trkpt lat="36.774379005655646" lon="-4.937857026234269">
        <ele>579.80999999999995</ele>
        <time>2025-05-09T11:00:19Z</time>
      </trkpt>
      <trkpt lat="36.772877974435687" lon="-4.937799023464322">
        <ele>584.13999999999999</ele>
        <time>2025-05-09T11:00:27Z</time>
      </trkpt>
      <trkpt lat="36.770974025130272" lon="-4.937447989359498">
        <ele>591.35000000000002</ele>
        <time>2025-05-09T11:00:36Z</time>
      </trkpt>
      <trkpt lat="36.768523994833231" lon="-4.936861004680395">
        <ele>611.53999999999996</ele>
        <time>2025-05-09T11:00:48Z</time>
      </trkpt>
      <trkpt lat="36.768355015665293" lon="-4.93678699247539">
        <ele>612.98000000000002</ele>
        <time>2025-05-09T11:00:49Z</time>
      </trkpt>
      <trkpt lat="36.768200034275651" lon="-4.936676016077399">
        <ele>614.41999999999996</ele>
        <time>2025-05-09T11:00:50Z</time>
      </trkpt>
      <trkpt lat="36.768058966845274" lon="-4.936556993052363">
        <ele>616.34000000000003</ele>
        <time>2025-05-09T11:00:51Z</time>
      </trkpt>
      <trkpt lat="36.767946984618902" lon="-4.936397988349199">
        <ele>617.77999999999997</ele>
        <time>2025-05-09T11:00:52Z</time>
      </trkpt>
      <trkpt lat="36.767828967422247" lon="-4.936230015009642">
        <ele>618.25999999999999</ele>
        <time>2025-05-09T11:00:53Z</time>
      </trkpt>
      <trkpt lat="36.767757972702384" lon="-4.936058018356562">
        <ele>619.71000000000004</ele>
        <time>2025-05-09T11:00:54Z</time>
      </trkpt>
      <trkpt lat="36.767679015174508" lon="-4.935865988954902">
        <ele>621.14999999999998</ele>
        <time>2025-05-09T11:00:55Z</time>
      </trkpt>
      <trkpt lat="36.767364023253322" lon="-4.935115976259112">
        <ele>624.02999999999997</ele>
        <time>2025-05-09T11:00:59Z</time>
      </trkpt>
      <trkpt lat="36.767258998006582" lon="-4.934969963505864">
        <ele>624.50999999999999</ele>
        <time>2025-05-09T11:01:00Z</time>
      </trkpt>
      <trkpt lat="36.767141986638308" lon="-4.934813976287842">
        <ele>624.50999999999999</ele>
        <time>2025-05-09T11:01:01Z</time>
      </trkpt>
      <trkpt lat="36.767022041603923" lon="-4.934724038466811">
        <ele>624.99000000000001</ele>
        <time>2025-05-09T11:01:02Z</time>
      </trkpt>
      <trkpt lat="36.766894971951842" lon="-4.934627981856465">
        <ele>625.47000000000003</ele>
        <time>2025-05-09T11:01:03Z</time>
      </trkpt>
      <trkpt lat="36.766767986118793" lon="-4.934534020721912">
        <ele>625.96000000000004</ele>
        <time>2025-05-09T11:01:04Z</time>
      </trkpt>
      <trkpt lat="36.76577003672719" lon="-4.933844022452831">
        <ele>630.27999999999997</ele>
        <time>2025-05-09T11:01:12Z</time>
      </trkpt>
      <trkpt lat="36.765675991773605" lon="-4.933738997206092">
        <ele>630.75999999999999</ele>
        <time>2025-05-09T11:01:13Z</time>
      </trkpt>
      <trkpt lat="36.76559804007411" lon="-4.933621985837817">
        <ele>631.72000000000003</ele>
        <time>2025-05-09T11:01:14Z</time>
      </trkpt>
      <trkpt lat="36.765524027869105" lon="-4.933490976691246">
        <ele>632.20000000000005</ele>
        <time>2025-05-09T11:01:15Z</time>
      </trkpt>
      <trkpt lat="36.765451021492481" lon="-4.933358961716294">
        <ele>632.67999999999995</ele>
        <time>2025-05-09T11:01:16Z</time>
      </trkpt>
      <trkpt lat="36.765235019847751" lon="-4.932973980903626">
        <ele>633.16999999999996</ele>
        <time>2025-05-09T11:01:19Z</time>
      </trkpt>
      <trkpt lat="36.765146004036069" lon="-4.932883037254214">
        <ele>633.16999999999996</ele>
        <time>2025-05-09T11:01:20Z</time>
      </trkpt>
      <trkpt lat="36.765052964910865" lon="-4.932821011170745">
        <ele>633.16999999999996</ele>
        <time>2025-05-09T11:01:21Z</time>
      </trkpt>
      <trkpt lat="36.764946011826396" lon="-4.932783041149378">
        <ele>632.67999999999995</ele>
        <time>2025-05-09T11:01:22Z</time>
      </trkpt>
      <trkpt lat="36.764840986579657" lon="-4.932758985087276">
        <ele>632.67999999999995</ele>
        <time>2025-05-09T11:01:23Z</time>
      </trkpt>
      <trkpt lat="36.764732021838427" lon="-4.932779017835856">
        <ele>632.67999999999995</ele>
        <time>2025-05-09T11:01:24Z</time>
      </trkpt>
      <trkpt lat="36.764625990763307" lon="-4.932798966765404">
        <ele>632.20000000000005</ele>
        <time>2025-05-09T11:01:25Z</time>
      </trkpt>
      <trkpt lat="36.764518031850457" lon="-4.932826962321997">
        <ele>632.20000000000005</ele>
        <time>2025-05-09T11:01:26Z</time>
      </trkpt>
      <trkpt lat="36.764437984675169" lon="-4.932928970083594">
        <ele>632.20000000000005</ele>
        <time>2025-05-09T11:01:27Z</time>
      </trkpt>
      <trkpt lat="36.764361038804054" lon="-4.933042963966727">
        <ele>632.67999999999995</ele>
        <time>2025-05-09T11:01:28Z</time>
      </trkpt>
      <trkpt lat="36.764300018548965" lon="-4.933182019740343">
        <ele>632.67999999999995</ele>
        <time>2025-05-09T11:01:29Z</time>
      </trkpt>
      <trkpt lat="36.764240004122257" lon="-4.933319985866547">
        <ele>633.64999999999998</ele>
        <time>2025-05-09T11:01:30Z</time>
      </trkpt>
      <trkpt lat="36.763546988368034" lon="-4.934805007651448">
        <ele>641.34000000000003</ele>
        <time>2025-05-09T11:01:41Z</time>
      </trkpt>
      <trkpt lat="36.763465013355017" lon="-4.934920007362962">
        <ele>642.29999999999995</ele>
        <time>2025-05-09T11:01:42Z</time>
      </trkpt>
      <trkpt lat="36.763125965371728" lon="-4.935394003987312">
        <ele>644.22000000000003</ele>
        <time>2025-05-09T11:01:46Z</time>
      </trkpt>
      <trkpt lat="36.762963021174073" lon="-4.935622997581959">
        <ele>645.17999999999995</ele>
        <time>2025-05-09T11:01:48Z</time>
      </trkpt>
      <trkpt lat="36.762872999534011" lon="-4.935719976201654">
        <ele>645.65999999999997</ele>
        <time>2025-05-09T11:01:49Z</time>
      </trkpt>
      <trkpt lat="36.762775015085936" lon="-4.935823995620012">
        <ele>646.13999999999999</ele>
        <time>2025-05-09T11:01:50Z</time>
      </trkpt>
      <trkpt lat="36.761654019355774" lon="-4.936557998880744">
        <ele>653.83000000000004</ele>
        <time>2025-05-09T11:02:00Z</time>
      </trkpt>
      <trkpt lat="36.761537007987499" lon="-4.936618013307452">
        <ele>654.79999999999995</ele>
        <time>2025-05-09T11:02:01Z</time>
      </trkpt>
      <trkpt lat="36.761439023539424" lon="-4.936713986098766">
        <ele>655.27999999999997</ele>
        <time>2025-05-09T11:02:02Z</time>
      </trkpt>
      <trkpt lat="36.761351013556123" lon="-4.936825968325138">
        <ele>655.75999999999999</ele>
        <time>2025-05-09T11:02:03Z</time>
      </trkpt>
      <trkpt lat="36.761263003572822" lon="-4.936938034370542">
        <ele>656.72000000000003</ele>
        <time>2025-05-09T11:02:04Z</time>
      </trkpt>
      <trkpt lat="36.76117499358952" lon="-4.937050016596913">
        <ele>657.67999999999995</ele>
        <time>2025-05-09T11:02:05Z</time>
      </trkpt>
      <trkpt lat="36.761085977777839" lon="-4.937163004651666">
        <ele>658.15999999999997</ele>
        <time>2025-05-09T11:02:06Z</time>
      </trkpt>
      <trkpt lat="36.760994028300047" lon="-4.937263000756502">
        <ele>659.12</ele>
        <time>2025-05-09T11:02:07Z</time>
      </trkpt>
      <trkpt lat="36.760882968083024" lon="-4.9373459815979">
        <ele>660.08000000000004</ele>
        <time>2025-05-09T11:02:08Z</time>
      </trkpt>
      <trkpt lat="36.760756988078356" lon="-4.937381017953157">
        <ele>660.55999999999995</ele>
        <time>2025-05-09T11:02:09Z</time>
      </trkpt>
      <trkpt lat="36.760610975325108" lon="-4.937401972711086">
        <ele>661.51999999999998</ele>
        <time>2025-05-09T11:02:10Z</time>
      </trkpt>
      <trkpt lat="36.760432021692395" lon="-4.937383029609919">
        <ele>662.49000000000001</ele>
        <time>2025-05-09T11:02:11Z</time>
      </trkpt>
      <trkpt lat="36.760244015604258" lon="-4.937340030446649">
        <ele>663.45000000000005</ele>
        <time>2025-05-09T11:02:12Z</time>
      </trkpt>
      <trkpt lat="36.759892981499434" lon="-4.93725897744298">
        <ele>665.37</ele>
        <time>2025-05-09T11:02:14Z</time>
      </trkpt>
      <trkpt lat="36.759764989838004" lon="-4.937252020463347">
        <ele>666.33000000000004</ele>
        <time>2025-05-09T11:02:15Z</time>
      </trkpt>
      <trkpt lat="36.75964898429811" lon="-4.937304994091392">
        <ele>667.76999999999998</ele>
        <time>2025-05-09T11:02:16Z</time>
      </trkpt>
      <trkpt lat="36.759546976536512" lon="-4.937400966882706">
        <ele>668.73000000000002</ele>
        <time>2025-05-09T11:02:17Z</time>
      </trkpt>
      <trkpt lat="36.759444968774915" lon="-4.93749501183629">
        <ele>669.70000000000005</ele>
        <time>2025-05-09T11:02:18Z</time>
      </trkpt>
      <trkpt lat="36.759340027347207" lon="-4.937577992677689">
        <ele>670.65999999999997</ele>
        <time>2025-05-09T11:02:19Z</time>
      </trkpt>
      <trkpt lat="36.759202983230352" lon="-4.93764596991241">
        <ele>671.62</ele>
        <time>2025-05-09T11:02:20Z</time>
      </trkpt>
      <trkpt lat="36.759081026539207" lon="-4.937680000439286">
        <ele>672.58000000000004</ele>
        <time>2025-05-09T11:02:21Z</time>
      </trkpt>
      <trkpt lat="36.758674001321197" lon="-4.937771027907729">
        <ele>675.94000000000005</ele>
        <time>2025-05-09T11:02:24Z</time>
      </trkpt>
      <trkpt lat="36.758537963032722" lon="-4.937761975452304">
        <ele>676.90999999999997</ele>
        <time>2025-05-09T11:02:25Z</time>
      </trkpt>
      <trkpt lat="36.758394967764616" lon="-4.937743032351136">
        <ele>677.87</ele>
        <time>2025-05-09T11:02:26Z</time>
      </trkpt>
      <trkpt lat="36.758097996935248" lon="-4.937648987397552">
        <ele>680.26999999999998</ele>
        <time>2025-05-09T11:02:28Z</time>
      </trkpt>
      <trkpt lat="36.757947038859129" lon="-4.937611017376185">
        <ele>681.23000000000002</ele>
        <time>2025-05-09T11:02:29Z</time>
      </trkpt>
      <trkpt lat="36.757801026105881" lon="-4.937585033476353">
        <ele>682.66999999999996</ele>
        <time>2025-05-09T11:02:30Z</time>
      </trkpt>
      <trkpt lat="36.757666999474168" lon="-4.93755997158587">
        <ele>683.63</ele>
        <time>2025-05-09T11:02:31Z</time>
      </trkpt>
      <trkpt lat="36.75754202529788" lon="-4.937532981857657">
        <ele>685.08000000000004</ele>
        <time>2025-05-09T11:02:32Z</time>
      </trkpt>
      <trkpt lat="36.757437000051141" lon="-4.937457963824272">
        <ele>686.03999999999996</ele>
        <time>2025-05-09T11:02:33Z</time>
      </trkpt>
      <trkpt lat="36.757361982017756" lon="-4.937355034053326">
        <ele>687</ele>
        <time>2025-05-09T11:02:34Z</time>
      </trkpt>
      <trkpt lat="36.757300961762667" lon="-4.937232993543148">
        <ele>688.44000000000005</ele>
        <time>2025-05-09T11:02:35Z</time>
      </trkpt>
      <trkpt lat="36.757302973419428" lon="-4.937102990224958">
        <ele>689.39999999999998</ele>
        <time>2025-05-09T11:02:36Z</time>
      </trkpt>
      <trkpt lat="36.757314037531614" lon="-4.936962006613612">
        <ele>690.84000000000003</ele>
        <time>2025-05-09T11:02:37Z</time>
      </trkpt>
      <trkpt lat="36.757383020594716" lon="-4.936852036044002">
        <ele>691.80999999999995</ele>
        <time>2025-05-09T11:02:38Z</time>
      </trkpt>
      <trkpt lat="36.757469018921256" lon="-4.936719015240669">
        <ele>692.76999999999998</ele>
        <time>2025-05-09T11:02:39Z</time>
      </trkpt>
      <trkpt lat="36.757586030289531" lon="-4.93659202940762">
        <ele>693.73000000000002</ele>
        <time>2025-05-09T11:02:40Z</time>
      </trkpt>
      <trkpt lat="36.757850982248783" lon="-4.936351971700788">
        <ele>695.64999999999998</ele>
        <time>2025-05-09T11:02:42Z</time>
      </trkpt>
      <trkpt lat="36.758146025240421" lon="-4.936127001419663">
        <ele>698.04999999999995</ele>
        <time>2025-05-09T11:02:44Z</time>
      </trkpt>
      <trkpt lat="36.758254989981651" lon="-4.935985011979938">
        <ele>699.5</ele>
        <time>2025-05-09T11:02:45Z</time>
      </trkpt>
      <trkpt lat="36.758347023278475" lon="-4.935846962034702">
        <ele>700.46000000000004</ele>
        <time>2025-05-09T11:02:46Z</time>
      </trkpt>
      <trkpt lat="36.758365966379642" lon="-4.935715030878782">
        <ele>701.89999999999998</ele>
        <time>2025-05-09T11:02:47Z</time>
      </trkpt>
      <trkpt lat="36.758332019671798" lon="-4.935635989531875">
        <ele>702.86000000000001</ele>
        <time>2025-05-09T11:02:48Z</time>
      </trkpt>
      <trkpt lat="36.75829597748816" lon="-4.935558959841728">
        <ele>703.82000000000005</ele>
        <time>2025-05-09T11:02:49Z</time>
      </trkpt>
      <trkpt lat="36.758216014131904" lon="-4.935478996485472">
        <ele>704.77999999999997</ele>
        <time>2025-05-09T11:02:50Z</time>
      </trkpt>
      <trkpt lat="36.75812398083508" lon="-4.935478996485472">
        <ele>705.75</ele>
        <time>2025-05-09T11:02:51Z</time>
      </trkpt>
      <trkpt lat="36.758011998608708" lon="-4.935478996485472">
        <ele>706.71000000000004</ele>
        <time>2025-05-09T11:02:52Z</time>
      </trkpt>
      <trkpt lat="36.757901022210717" lon="-4.935458963736892">
        <ele>707.66999999999996</ele>
        <time>2025-05-09T11:02:53Z</time>
      </trkpt>
      <trkpt lat="36.75779901444912" lon="-4.935439014807344">
        <ele>708.14999999999998</ele>
        <time>2025-05-09T11:02:54Z</time>
      </trkpt>
      <trkpt lat="36.757755009457469" lon="-4.935352010652423">
        <ele>709.11000000000001</ele>
        <time>2025-05-09T11:02:55Z</time>
      </trkpt>
      <trkpt lat="36.757721984758973" lon="-4.935265006497502">
        <ele>710.07000000000005</ele>
        <time>2025-05-09T11:02:56Z</time>
      </trkpt>
      <trkpt lat="36.757747968658805" lon="-4.935138020664454">
        <ele>711.02999999999997</ele>
        <time>2025-05-09T11:02:57Z</time>
      </trkpt>
      <trkpt lat="36.757776970043778" lon="-4.934991002082825">
        <ele>712.47000000000003</ele>
        <time>2025-05-09T11:02:58Z</time>
      </trkpt>
      <trkpt lat="36.757809994742274" lon="-4.934824034571648">
        <ele>713.44000000000005</ele>
        <time>2025-05-09T11:02:59Z</time>
      </trkpt>
      <trkpt lat="36.757846958935261" lon="-4.934642985463142">
        <ele>714.39999999999998</ele>
        <time>2025-05-09T11:03:00Z</time>
      </trkpt>
      <trkpt lat="36.75786598585546" lon="-4.934456991031766">
        <ele>715.84000000000003</ele>
        <time>2025-05-09T11:03:01Z</time>
      </trkpt>
      <trkpt lat="36.757840001955628" lon="-4.93429102934897">
        <ele>716.79999999999995</ele>
        <time>2025-05-09T11:03:02Z</time>
      </trkpt>
      <trkpt lat="36.757788034155965" lon="-4.934150967746973">
        <ele>717.75999999999999</ele>
        <time>2025-05-09T11:03:03Z</time>
      </trkpt>
      <trkpt lat="36.757692983374" lon="-4.93405600078404">
        <ele>718.72000000000003</ele>
        <time>2025-05-09T11:03:04Z</time>
      </trkpt>
      <trkpt lat="36.75758502446115" lon="-4.934015013277531">
        <ele>719.67999999999995</ele>
        <time>2025-05-09T11:03:05Z</time>
      </trkpt>
      <trkpt lat="36.757470024749637" lon="-4.934005960822105">
        <ele>720.64999999999998</ele>
        <time>2025-05-09T11:03:06Z</time>
      </trkpt>
      <trkpt lat="36.757339015603065" lon="-4.934021970257163">
        <ele>721.13</ele>
        <time>2025-05-09T11:03:07Z</time>
      </trkpt>
      <trkpt lat="36.75719803199172" lon="-4.934039991348982">
        <ele>722.09000000000003</ele>
        <time>2025-05-09T11:03:08Z</time>
      </trkpt>
      <trkpt lat="36.757062999531627" lon="-4.93405700661242">
        <ele>723.52999999999997</ele>
        <time>2025-05-09T11:03:09Z</time>
      </trkpt>
      <trkpt lat="36.756951017305255" lon="-4.934032028540969">
        <ele>724.49000000000001</ele>
        <time>2025-05-09T11:03:10Z</time>
      </trkpt>
      <trkpt lat="36.756842974573374" lon="-4.933976959437132">
        <ele>725.92999999999995</ele>
        <time>2025-05-09T11:03:11Z</time>
      </trkpt>
      <trkpt lat="36.756793018430471" lon="-4.933861959725618">
        <ele>726.88999999999999</ele>
        <time>2025-05-09T11:03:12Z</time>
      </trkpt>
      <trkpt lat="36.756774997338653" lon="-4.933738997206092">
        <ele>727.86000000000001</ele>
        <time>2025-05-09T11:03:13Z</time>
      </trkpt>
      <trkpt lat="36.756768962368369" lon="-4.933564988896251">
        <ele>728.82000000000005</ele>
        <time>2025-05-09T11:03:14Z</time>
      </trkpt>
      <trkpt lat="36.756762005388737" lon="-4.933372037485242">
        <ele>730.25999999999999</ele>
        <time>2025-05-09T11:03:15Z</time>
      </trkpt>
      <trkpt lat="36.756773991510272" lon="-4.933177996426821">
        <ele>731.22000000000003</ele>
        <time>2025-05-09T11:03:16Z</time>
      </trkpt>
      <trkpt lat="36.756840962916613" lon="-4.93298496119678">
        <ele>732.65999999999997</ele>
        <time>2025-05-09T11:03:17Z</time>
      </trkpt>
      <trkpt lat="36.756905000656843" lon="-4.932799972593784">
        <ele>733.62</ele>
        <time>2025-05-09T11:03:18Z</time>
      </trkpt>
      <trkpt lat="36.756937019526958" lon="-4.93261800147593">
        <ele>735.07000000000005</ele>
        <time>2025-05-09T11:03:19Z</time>
      </trkpt>
      <trkpt lat="36.756950011476874" lon="-4.932432007044554">
        <ele>736.50999999999999</ele>
        <time>2025-05-09T11:03:20Z</time>
      </trkpt>
      <trkpt lat="36.756917992606759" lon="-4.932257998734713">
        <ele>737.47000000000003</ele>
        <time>2025-05-09T11:03:21Z</time>
      </trkpt>
      <trkpt lat="36.756849009543657" lon="-4.932093964889646">
        <ele>738.90999999999997</ele>
        <time>2025-05-09T11:03:22Z</time>
      </trkpt>
      <trkpt lat="36.756754964590073" lon="-4.931925991550088">
        <ele>739.87</ele>
        <time>2025-05-09T11:03:23Z</time>
      </trkpt>
      <trkpt lat="36.756649017333984" lon="-4.931756006553769">
        <ele>741.30999999999995</ele>
        <time>2025-05-09T11:03:24Z</time>
      </trkpt>
      <trkpt lat="36.756014004349709" lon="-4.930841960012913">
        <ele>748.03999999999996</ele>
        <time>2025-05-09T11:03:30Z</time>
      </trkpt>
      <trkpt lat="36.755905961617827" lon="-4.930755961686373">
        <ele>749</ele>
        <time>2025-05-09T11:03:31Z</time>
      </trkpt>
      <trkpt lat="36.755789034068584" lon="-4.930737018585205">
        <ele>750.45000000000005</ele>
        <time>2025-05-09T11:03:32Z</time>
      </trkpt>
      <trkpt lat="36.755669005215168" lon="-4.930753028020263">
        <ele>751.88999999999999</ele>
        <time>2025-05-09T11:03:33Z</time>
      </trkpt>
      <trkpt lat="36.755533972755075" lon="-4.93077096529305">
        <ele>753.33000000000004</ele>
        <time>2025-05-09T11:03:34Z</time>
      </trkpt>
      <trkpt lat="36.755379997193813" lon="-4.93079200387001">
        <ele>755.25</ele>
        <time>2025-05-09T11:03:35Z</time>
      </trkpt>
      <trkpt lat="36.755215963348746" lon="-4.93081396445632">
        <ele>756.69000000000005</ele>
        <time>2025-05-09T11:03:36Z</time>
      </trkpt>
      <trkpt lat="36.75505100749433" lon="-4.930804995819926">
        <ele>758.13999999999999</ele>
        <time>2025-05-09T11:03:37Z</time>
      </trkpt>
      <trkpt lat="36.75487901084125" lon="-4.930764008313417">
        <ele>759.58000000000004</ele>
        <time>2025-05-09T11:03:38Z</time>
      </trkpt>
      <trkpt lat="36.754713971167803" lon="-4.9306820333004">
        <ele>761.01999999999998</ele>
        <time>2025-05-09T11:03:39Z</time>
      </trkpt>
      <trkpt lat="36.754552032798529" lon="-4.93059997446835">
        <ele>762.46000000000004</ele>
        <time>2025-05-09T11:03:40Z</time>
      </trkpt>
      <trkpt lat="36.754393028095365" lon="-4.93055404163897">
        <ele>763.89999999999998</ele>
        <time>2025-05-09T11:03:41Z</time>
      </trkpt>
      <trkpt lat="36.754238968715072" lon="-4.930570973083377">
        <ele>765.35000000000002</ele>
        <time>2025-05-09T11:03:42Z</time>
      </trkpt>
      <trkpt lat="36.754091028124094" lon="-4.930628975853324">
        <ele>766.30999999999995</ele>
        <time>2025-05-09T11:03:43Z</time>
      </trkpt>
      <trkpt lat="36.753957001492381" lon="-4.93068597279489">
        <ele>767.75</ele>
        <time>2025-05-09T11:03:44Z</time>
      </trkpt>
      <trkpt lat="36.753837978467345" lon="-4.930737018585205">
        <ele>769.19000000000005</ele>
        <time>2025-05-09T11:03:45Z</time>
      </trkpt>
      <trkpt lat="36.753723984584212" lon="-4.930691001936793">
        <ele>770.14999999999998</ele>
        <time>2025-05-09T11:03:46Z</time>
      </trkpt>
      <trkpt lat="36.753618959337473" lon="-4.930645991116762">
        <ele>771.11000000000001</ele>
        <time>2025-05-09T11:03:47Z</time>
      </trkpt>
      <trkpt lat="36.753516029566526" lon="-4.930539960041642">
        <ele>771.60000000000002</ele>
        <time>2025-05-09T11:03:48Z</time>
      </trkpt>
      <trkpt lat="36.753403041511774" lon="-4.930423032492399">
        <ele>772.55999999999995</ele>
        <time>2025-05-09T11:03:49Z</time>
      </trkpt>
      <trkpt lat="36.753282006829977" lon="-4.930296968668699">
        <ele>773.03999999999996</ele>
        <time>2025-05-09T11:03:50Z</time>
      </trkpt>
      <trkpt lat="36.753154015168548" lon="-4.930164031684399">
        <ele>773.51999999999998</ele>
        <time>2025-05-09T11:03:51Z</time>
      </trkpt>
      <trkpt lat="36.753015965223312" lon="-4.93003997951746">
        <ele>774</ele>
        <time>2025-05-09T11:03:52Z</time>
      </trkpt>
      <trkpt lat="36.752856038510799" lon="-4.929981976747513">
        <ele>774</ele>
        <time>2025-05-09T11:03:53Z</time>
      </trkpt>
      <trkpt lat="36.752692004665732" lon="-4.929921962320805">
        <ele>774</ele>
        <time>2025-05-09T11:03:54Z</time>
      </trkpt>
      <trkpt lat="36.752539034932852" lon="-4.929878963157535">
        <ele>774</ele>
        <time>2025-05-09T11:03:55Z</time>
      </trkpt>
      <trkpt lat="36.752394028007984" lon="-4.929906958714128">
        <ele>774</ele>
        <time>2025-05-09T11:03:56Z</time>
      </trkpt>
      <trkpt lat="36.752252038568258" lon="-4.929962027817965">
        <ele>774</ele>
        <time>2025-05-09T11:03:57Z</time>
      </trkpt>
      <trkpt lat="36.751990020275116" lon="-4.930065041407943">
        <ele>774.48000000000002</ele>
        <time>2025-05-09T11:03:59Z</time>
      </trkpt>
      <trkpt lat="36.751874014735222" lon="-4.930050037801266">
        <ele>774.96000000000004</ele>
        <time>2025-05-09T11:04:00Z</time>
      </trkpt>
      <trkpt lat="36.75176203250885" lon="-4.930013995617628">
        <ele>775.91999999999996</ele>
        <time>2025-05-09T11:04:01Z</time>
      </trkpt>
      <trkpt lat="36.751662958413363" lon="-4.929921040311456">
        <ele>775.91999999999996</ele>
        <time>2025-05-09T11:04:02Z</time>
      </trkpt>
      <trkpt lat="36.751553993672132" lon="-4.929818026721478">
        <ele>776.39999999999998</ele>
        <time>2025-05-09T11:04:03Z</time>
      </trkpt>
      <trkpt lat="36.751434970647097" lon="-4.929706966504455">
        <ele>776.88</ele>
        <time>2025-05-09T11:04:04Z</time>
      </trkpt>
      <trkpt lat="36.75129197537899" lon="-4.929611999541521">
        <ele>777.84000000000003</ele>
        <time>2025-05-09T11:04:05Z</time>
      </trkpt>
      <trkpt lat="36.751005984842777" lon="-4.929420975968242">
        <ele>779.28999999999996</ele>
        <time>2025-05-09T11:04:07Z</time>
      </trkpt>
      <trkpt lat="36.750885033980012" lon="-4.929312011227012">
        <ele>780.25</ele>
        <time>2025-05-09T11:04:08Z</time>
      </trkpt>
      <trkpt lat="36.750790989026427" lon="-4.929173961281776">
        <ele>781.21000000000004</ele>
        <time>2025-05-09T11:04:09Z</time>
      </trkpt>
      <trkpt lat="36.750616980716586" lon="-4.928918983787298">
        <ele>782.64999999999998</ele>
        <time>2025-05-09T11:04:11Z</time>
      </trkpt>
      <trkpt lat="36.750509021803737" lon="-4.9288360029459">
        <ele>783.61000000000001</ele>
        <time>2025-05-09T11:04:12Z</time>
      </trkpt>
      <trkpt lat="36.750392010435462" lon="-4.928790992125869">
        <ele>784.09000000000003</ele>
        <time>2025-05-09T11:04:13Z</time>
      </trkpt>
      <trkpt lat="36.750264018774033" lon="-4.928813958540559">
        <ele>785.04999999999995</ele>
        <time>2025-05-09T11:04:14Z</time>
      </trkpt>
      <trkpt lat="36.750124963000417" lon="-4.928853018209338">
        <ele>785.52999999999997</ele>
        <time>2025-05-09T11:04:15Z</time>
      </trkpt>
      <trkpt lat="36.749977022409439" lon="-4.928911020979285">
        <ele>786.5</ele>
        <time>2025-05-09T11:04:16Z</time>
      </trkpt>
      <trkpt lat="36.749819023534656" lon="-4.928972963243723">
        <ele>786.98000000000002</ele>
        <time>2025-05-09T11:04:17Z</time>
      </trkpt>
      <trkpt lat="36.74965800717473" lon="-4.929017974063754">
        <ele>788.41999999999996</ele>
        <time>2025-05-09T11:04:18Z</time>
      </trkpt>
      <trkpt lat="36.749491039663553" lon="-4.929006993770599">
        <ele>789.38</ele>
        <time>2025-05-09T11:04:19Z</time>
      </trkpt>
      <trkpt lat="36.748801041394472" lon="-4.929003976285458">
        <ele>793.22000000000003</ele>
        <time>2025-05-09T11:04:23Z</time>
      </trkpt>
      <trkpt lat="36.748644970357418" lon="-4.929056027904153">
        <ele>794.19000000000005</ele>
        <time>2025-05-09T11:04:24Z</time>
      </trkpt>
      <trkpt lat="36.748492000624537" lon="-4.929109001532197">
        <ele>794.66999999999996</ele>
        <time>2025-05-09T11:04:25Z</time>
      </trkpt>
      <trkpt lat="36.748355040326715" lon="-4.929216960445046">
        <ele>795.63</ele>
        <time>2025-05-09T11:04:26Z</time>
      </trkpt>
      <trkpt lat="36.748214978724718" lon="-4.929327014833689">
        <ele>796.59000000000003</ele>
        <time>2025-05-09T11:04:27Z</time>
      </trkpt>
      <trkpt lat="36.747930999845266" lon="-4.929550979286432">
        <ele>798.50999999999999</ele>
        <time>2025-05-09T11:04:29Z</time>
      </trkpt>
      <trkpt lat="36.747786998748779" lon="-4.929663967341185">
        <ele>798.99000000000001</ele>
        <time>2025-05-09T11:04:30Z</time>
      </trkpt>
      <trkpt lat="36.747336974367499" lon="-4.929835963994265">
        <ele>801.88</ele>
        <time>2025-05-09T11:04:33Z</time>
      </trkpt>
      <trkpt lat="36.747204037383199" lon="-4.929857002571225">
        <ele>802.84000000000003</ele>
        <time>2025-05-09T11:04:34Z</time>
      </trkpt>
      <trkpt lat="36.747070010751486" lon="-4.929836969822645">
        <ele>803.79999999999995</ele>
        <time>2025-05-09T11:04:35Z</time>
      </trkpt>
      <trkpt lat="36.746955011039972" lon="-4.929751977324486">
        <ele>804.75999999999999</ele>
        <time>2025-05-09T11:04:36Z</time>
      </trkpt>
      <trkpt lat="36.746854009106755" lon="-4.929636977612972">
        <ele>805.72000000000003</ele>
        <time>2025-05-09T11:04:37Z</time>
      </trkpt>
      <trkpt lat="36.746773961931467" lon="-4.929481996223331">
        <ele>806.67999999999995</ele>
        <time>2025-05-09T11:04:38Z</time>
      </trkpt>
      <trkpt lat="36.746698021888733" lon="-4.929315028712153">
        <ele>808.13</ele>
        <time>2025-05-09T11:04:39Z</time>
      </trkpt>
      <trkpt lat="36.746620992198586" lon="-4.929145965725184">
        <ele>809.09000000000003</ele>
        <time>2025-05-09T11:04:40Z</time>
      </trkpt>
      <trkpt lat="36.746559971943498" lon="-4.928972963243723">
        <ele>810.52999999999997</ele>
        <time>2025-05-09T11:04:41Z</time>
      </trkpt>
      <trkpt lat="36.746543040499091" lon="-4.928783029317856">
        <ele>811.49000000000001</ele>
        <time>2025-05-09T11:04:42Z</time>
      </trkpt>
      <trkpt lat="36.746527031064034" lon="-4.928604997694492">
        <ele>812.92999999999995</ele>
        <time>2025-05-09T11:04:43Z</time>
      </trkpt>
      <trkpt lat="36.746500041335821" lon="-4.928443981334567">
        <ele>813.88999999999999</ele>
        <time>2025-05-09T11:04:44Z</time>
      </trkpt>
      <trkpt lat="36.7464579641819" lon="-4.92829998023808">
        <ele>814.85000000000002</ele>
        <time>2025-05-09T11:04:45Z</time>
      </trkpt>
      <trkpt lat="36.746379006654024" lon="-4.928174000233412">
        <ele>815.82000000000005</ele>
        <time>2025-05-09T11:04:46Z</time>
      </trkpt>
      <trkpt lat="36.746269958093762" lon="-4.928090013563633">
        <ele>816.77999999999997</ele>
        <time>2025-05-09T11:04:47Z</time>
      </trkpt>
      <trkpt lat="36.746144983917475" lon="-4.928004015237093">
        <ele>817.25999999999999</ele>
        <time>2025-05-09T11:04:48Z</time>
      </trkpt>
      <trkpt lat="36.746011041104794" lon="-4.927934026345611">
        <ele>818.22000000000003</ele>
        <time>2025-05-09T11:04:49Z</time>
      </trkpt>
      <trkpt lat="36.745878020301461" lon="-4.927875017747283">
        <ele>818.70000000000005</ele>
        <time>2025-05-09T11:04:50Z</time>
      </trkpt>
      <trkpt lat="36.745749022811651" lon="-4.927819026634097">
        <ele>819.17999999999995</ele>
        <time>2025-05-09T11:04:51Z</time>
      </trkpt>
      <trkpt lat="36.745620025321841" lon="-4.927838975563645">
        <ele>819.65999999999997</ele>
        <time>2025-05-09T11:04:52Z</time>
      </trkpt>
      <trkpt lat="36.745493961498141" lon="-4.927858002483845">
        <ele>820.13999999999999</ele>
        <time>2025-05-09T11:04:53Z</time>
      </trkpt>
      <trkpt lat="36.745394971221685" lon="-4.927965039387345">
        <ele>820.13999999999999</ele>
        <time>2025-05-09T11:04:54Z</time>
      </trkpt>
      <trkpt lat="36.745297992601991" lon="-4.928097976371646">
        <ele>820.13999999999999</ele>
        <time>2025-05-09T11:04:55Z</time>
      </trkpt>
      <trkpt lat="36.745250970125198" lon="-4.928238959982991">
        <ele>820.13999999999999</ele>
        <time>2025-05-09T11:04:56Z</time>
      </trkpt>
      <trkpt lat="36.745197996497154" lon="-4.928399976342917">
        <ele>819.65999999999997</ele>
        <time>2025-05-09T11:04:57Z</time>
      </trkpt>
      <trkpt lat="36.745153991505504" lon="-4.9285579752177">
        <ele>818.70000000000005</ele>
        <time>2025-05-09T11:04:58Z</time>
      </trkpt>
      <trkpt lat="36.745084002614021" lon="-4.928698958829045">
        <ele>818.22000000000003</ele>
        <time>2025-05-09T11:04:59Z</time>
      </trkpt>
      <trkpt lat="36.744975037872791" lon="-4.928776994347572">
        <ele>817.25999999999999</ele>
        <time>2025-05-09T11:05:00Z</time>
      </trkpt>
      <trkpt lat="36.744859032332897" lon="-4.928805995732546">
        <ele>816.77999999999997</ele>
        <time>2025-05-09T11:05:01Z</time>
      </trkpt>
      <trkpt lat="36.744732968509197" lon="-4.928805995732546">
        <ele>815.82000000000005</ele>
        <time>2025-05-09T11:05:02Z</time>
      </trkpt>
      <trkpt lat="36.744618974626064" lon="-4.928758973255754">
        <ele>814.85000000000002</ele>
        <time>2025-05-09T11:05:03Z</time>
      </trkpt>
      <trkpt lat="36.744498023763299" lon="-4.928658977150917">
        <ele>813.88999999999999</ele>
        <time>2025-05-09T11:05:04Z</time>
      </trkpt>
      <trkpt lat="36.744366008788347" lon="-4.928551018238068">
        <ele>812.92999999999995</ele>
        <time>2025-05-09T11:05:05Z</time>
      </trkpt>
      <trkpt lat="36.743417009711266" lon="-4.927681982517242">
        <ele>803.32000000000005</ele>
        <time>2025-05-09T11:05:12Z</time>
      </trkpt>
      <trkpt lat="36.743310978636146" lon="-4.927534963935614">
        <ele>801.88</ele>
        <time>2025-05-09T11:05:13Z</time>
      </trkpt>
      <trkpt lat="36.743106041103601" lon="-4.92720102891326">
        <ele>798.99000000000001</ele>
        <time>2025-05-09T11:05:15Z</time>
      </trkpt>
      <trkpt lat="36.742812003940344" lon="-4.926685960963368">
        <ele>795.14999999999998</ele>
        <time>2025-05-09T11:05:18Z</time>
      </trkpt>
      <trkpt lat="36.742735980078578" lon="-4.926488986238837">
        <ele>793.22000000000003</ele>
        <time>2025-05-09T11:05:19Z</time>
      </trkpt>
      <trkpt lat="36.742699015885592" lon="-4.926295028999448">
        <ele>791.77999999999997</ele>
        <time>2025-05-09T11:05:20Z</time>
      </trkpt>
      <trkpt lat="36.742691975086927" lon="-4.926075004041195">
        <ele>790.34000000000003</ele>
        <time>2025-05-09T11:05:21Z</time>
      </trkpt>
      <trkpt lat="36.742686023935676" lon="-4.925861014053226">
        <ele>789.38</ele>
        <time>2025-05-09T11:05:22Z</time>
      </trkpt>
      <trkpt lat="36.742680994793773" lon="-4.925694968551397">
        <ele>787.46000000000004</ele>
        <time>2025-05-09T11:05:23Z</time>
      </trkpt>
      <trkpt lat="36.742766993120313" lon="-4.925509979948402">
        <ele>786.01999999999998</ele>
        <time>2025-05-09T11:05:24Z</time>
      </trkpt>
      <trkpt lat="36.742831030860543" lon="-4.925373019650579">
        <ele>784.09000000000003</ele>
        <time>2025-05-09T11:05:25Z</time>
      </trkpt>
      <trkpt lat="36.742956005036831" lon="-4.925281992182136">
        <ele>783.13</ele>
        <time>2025-05-09T11:05:26Z</time>
      </trkpt>
      <trkpt lat="36.743066981434822" lon="-4.925201022997499">
        <ele>782.16999999999996</ele>
        <time>2025-05-09T11:05:27Z</time>
      </trkpt>
      <trkpt lat="36.743218023329973" lon="-4.925181996077299">
        <ele>780.73000000000002</ele>
        <time>2025-05-09T11:05:28Z</time>
      </trkpt>
      <trkpt lat="36.74336101859808" lon="-4.92516397498548">
        <ele>779.76999999999998</ele>
        <time>2025-05-09T11:05:29Z</time>
      </trkpt>
      <trkpt lat="36.743496973067522" lon="-4.925146959722042">
        <ele>778.32000000000005</ele>
        <time>2025-05-09T11:05:30Z</time>
      </trkpt>
      <trkpt lat="36.743622031062841" lon="-4.925105972215533">
        <ele>776.88</ele>
        <time>2025-05-09T11:05:31Z</time>
      </trkpt>
      <trkpt lat="36.743692019954324" lon="-4.925017962232232">
        <ele>775.44000000000005</ele>
        <time>2025-05-09T11:05:32Z</time>
      </trkpt>
      <trkpt lat="36.743735019117594" lon="-4.924919977784157">
        <ele>774.48000000000002</ele>
        <time>2025-05-09T11:05:33Z</time>
      </trkpt>
      <trkpt lat="36.74374901689589" lon="-4.92481897585094">
        <ele>773.51999999999998</ele>
        <time>2025-05-09T11:05:34Z</time>
      </trkpt>
      <trkpt lat="36.743738958612084" lon="-4.924678998067975">
        <ele>772.55999999999995</ele>
        <time>2025-05-09T11:05:35Z</time>
      </trkpt>
      <trkpt lat="36.743718003854156" lon="-4.924546983093023">
        <ele>771.60000000000002</ele>
        <time>2025-05-09T11:05:36Z</time>
      </trkpt>
      <trkpt lat="36.743661006912589" lon="-4.924413962289691">
        <ele>770.63</ele>
        <time>2025-05-09T11:05:37Z</time>
      </trkpt>
      <trkpt lat="36.743603004142642" lon="-4.924278007820249">
        <ele>769.66999999999996</ele>
        <time>2025-05-09T11:05:38Z</time>
      </trkpt>
      <trkpt lat="36.74349001608789" lon="-4.924187986180186">
        <ele>768.71000000000004</ele>
        <time>2025-05-09T11:05:39Z</time>
      </trkpt>
      <trkpt lat="36.743378033861518" lon="-4.924106011167169">
        <ele>768.23000000000002</ele>
        <time>2025-05-09T11:05:40Z</time>
      </trkpt>
      <trkpt lat="36.743230009451509" lon="-4.924095030874014">
        <ele>767.26999999999998</ele>
        <time>2025-05-09T11:05:41Z</time>
      </trkpt>
      <trkpt lat="36.743075028061867" lon="-4.924085978418589">
        <ele>766.30999999999995</ele>
        <time>2025-05-09T11:05:42Z</time>
      </trkpt>
      <trkpt lat="36.742001976817846" lon="-4.924111040309072">
        <ele>759.58000000000004</ele>
        <time>2025-05-09T11:05:48Z</time>
      </trkpt>
      <trkpt lat="36.741831991821527" lon="-4.924120008945465">
        <ele>758.62</ele>
        <time>2025-05-09T11:05:49Z</time>
      </trkpt>
      <trkpt lat="36.741542983800173" lon="-4.924192009493709">
        <ele>756.21000000000004</ele>
        <time>2025-05-09T11:05:51Z</time>
      </trkpt>
      <trkpt lat="36.741423038765788" lon="-4.92417499423027">
        <ele>755.25</ele>
        <time>2025-05-09T11:05:52Z</time>
      </trkpt>
      <trkpt lat="36.741334022954106" lon="-4.924125038087368">
        <ele>754.28999999999996</ele>
        <time>2025-05-09T11:05:53Z</time>
      </trkpt>
      <trkpt lat="36.741139981895685" lon="-4.923977013677359">
        <ele>751.88999999999999</ele>
        <time>2025-05-09T11:05:55Z</time>
      </trkpt>
      <trkpt lat="36.741030011326075" lon="-4.923935020342469">
        <ele>750.92999999999995</ele>
        <time>2025-05-09T11:05:56Z</time>
      </trkpt>
      <trkpt lat="36.740910988301039" lon="-4.923932002857328">
        <ele>749.49000000000001</ele>
        <time>2025-05-09T11:05:57Z</time>
      </trkpt>
      <trkpt lat="36.740801017731428" lon="-4.923996040597558">
        <ele>748.51999999999998</ele>
        <time>2025-05-09T11:05:58Z</time>
      </trkpt>
      <trkpt lat="36.740685012191534" lon="-4.924063012003899">
        <ele>747.55999999999995</ele>
        <time>2025-05-09T11:05:59Z</time>
      </trkpt>
      <trkpt lat="36.740564983338118" lon="-4.924131995067">
        <ele>746.12</ele>
        <time>2025-05-09T11:06:00Z</time>
      </trkpt>
      <trkpt lat="36.740443026646972" lon="-4.924160996451974">
        <ele>744.67999999999995</ele>
        <time>2025-05-09T11:06:01Z</time>
      </trkpt>
      <trkpt lat="36.740316040813923" lon="-4.92415202781558">
        <ele>743.72000000000003</ele>
        <time>2025-05-09T11:06:02Z</time>
      </trkpt>
      <trkpt lat="36.740180002525449" lon="-4.924097964540124">
        <ele>742.75999999999999</ele>
        <time>2025-05-09T11:06:03Z</time>
      </trkpt>
      <trkpt lat="36.740042958408594" lon="-4.924042979255319">
        <ele>741.78999999999996</ele>
        <time>2025-05-09T11:06:04Z</time>
      </trkpt>
      <trkpt lat="36.739060012623668" lon="-4.92337703704834">
        <ele>733.62</ele>
        <time>2025-05-09T11:06:13Z</time>
      </trkpt>
      <trkpt lat="36.738480990752578" lon="-4.922864986583591">
        <ele>730.25999999999999</ele>
        <time>2025-05-09T11:06:21Z</time>
      </trkpt>
      <trkpt lat="36.738172033801675" lon="-4.922599028795958">
        <ele>727.37</ele>
        <time>2025-05-09T11:06:30Z</time>
      </trkpt>
      <trkpt lat="36.738000959157944" lon="-4.922475982457399">
        <ele>726.40999999999997</ele>
        <time>2025-05-09T11:06:34Z</time>
      </trkpt>
      <trkpt lat="36.737960977479815" lon="-4.922437006607652">
        <ele>726.40999999999997</ele>
        <time>2025-05-09T11:06:35Z</time>
      </trkpt>
      <trkpt lat="36.73788302578032" lon="-4.922361988574266">
        <ele>725.45000000000005</ele>
        <time>2025-05-09T11:06:37Z</time>
      </trkpt>
      <trkpt lat="36.737845977768302" lon="-4.922326030209661">
        <ele>725.45000000000005</ele>
        <time>2025-05-09T11:06:38Z</time>
      </trkpt>
      <trkpt lat="36.737665012478828" lon="-4.922151016071439">
        <ele>724.00999999999999</ele>
        <time>2025-05-09T11:06:47Z</time>
      </trkpt>
      <trkpt lat="36.737769031897187" lon="-4.922097036615014">
        <ele>724.49000000000001</ele>
        <time>2025-05-09T11:10:57Z</time>
      </trkpt>
      <trkpt lat="36.737664006650448" lon="-4.92200399748981">
        <ele>711.50999999999999</ele>
        <time>2025-05-09T11:11:32Z</time>
      </trkpt>
      <trkpt lat="36.737716980278492" lon="-4.922031993046403">
        <ele>712.95000000000005</ele>
        <time>2025-05-09T11:12:16Z</time>
      </trkpt>
      <trkpt lat="36.737615978345275" lon="-4.921681964769959">
        <ele>726.40999999999997</ele>
        <time>2025-05-09T11:12:26Z</time>
      </trkpt>
      <trkpt lat="36.73762402497232" lon="-4.921670984476805">
        <ele>728.82000000000005</ele>
        <time>2025-05-09T11:12:27Z</time>
      </trkpt>
      <trkpt lat="36.737655960023403" lon="-4.921623962000012">
        <ele>729.77999999999997</ele>
        <time>2025-05-09T11:12:28Z</time>
      </trkpt>
      <trkpt lat="36.73768999055028" lon="-4.921575011685491">
        <ele>730.25999999999999</ele>
        <time>2025-05-09T11:12:29Z</time>
      </trkpt>
      <trkpt lat="36.737722009420395" lon="-4.921527989208698">
        <ele>730.25999999999999</ele>
        <time>2025-05-09T11:12:30Z</time>
      </trkpt>
      <trkpt lat="36.737807001918554" lon="-4.921405026689172">
        <ele>729.77999999999997</ele>
        <time>2025-05-09T11:12:33Z</time>
      </trkpt>
      <trkpt lat="36.737850001081824" lon="-4.921323973685503">
        <ele>729.29999999999995</ele>
        <time>2025-05-09T11:12:34Z</time>
      </trkpt>
      <trkpt lat="36.737820999696851" lon="-4.921124987304211">
        <ele>728.82000000000005</ele>
        <time>2025-05-09T11:12:36Z</time>
      </trkpt>
      <trkpt lat="36.737802978605032" lon="-4.921002024784684">
        <ele>728.34000000000003</ele>
        <time>2025-05-09T11:12:37Z</time>
      </trkpt>
      <trkpt lat="36.73764799721539" lon="-4.920124020427465">
        <ele>724.00999999999999</ele>
        <time>2025-05-09T11:12:43Z</time>
      </trkpt>
      <trkpt lat="36.737615978345275" lon="-4.919986976310611">
        <ele>723.04999999999995</ele>
        <time>2025-05-09T11:12:44Z</time>
      </trkpt>
      <trkpt lat="36.737565016373992" lon="-4.919895026832819">
        <ele>722.09000000000003</ele>
        <time>2025-05-09T11:12:45Z</time>
      </trkpt>
      <trkpt lat="36.737520005553961" lon="-4.91981296800077">
        <ele>721.13</ele>
        <time>2025-05-09T11:12:46Z</time>
      </trkpt>
      <trkpt lat="36.737450016662478" lon="-4.919743984937668">
        <ele>720.15999999999997</ele>
        <time>2025-05-09T11:12:47Z</time>
      </trkpt>
      <trkpt lat="36.737406011670828" lon="-4.919707020744681">
        <ele>719.67999999999995</ele>
        <time>2025-05-09T11:12:48Z</time>
      </trkpt>
      <trkpt lat="36.737380027770996" lon="-4.919685982167721">
        <ele>718.72000000000003</ele>
        <time>2025-05-09T11:12:49Z</time>
      </trkpt>
      <trkpt lat="36.737381033599377" lon="-4.91968103684485">
        <ele>718.24000000000001</ele>
        <time>2025-05-09T11:12:50Z</time>
      </trkpt>
      <trkpt lat="36.737385978922248" lon="-4.919652035459876">
        <ele>717.27999999999997</ele>
        <time>2025-05-09T11:12:51Z</time>
      </trkpt>
      <trkpt lat="36.737264022231102" lon="-4.919494036585093">
        <ele>712.95000000000005</ele>
        <time>2025-05-09T11:12:57Z</time>
      </trkpt>
      <trkpt lat="36.737212976440787" lon="-4.91946998052299">
        <ele>711.99000000000001</ele>
        <time>2025-05-09T11:12:58Z</time>
      </trkpt>
      <trkpt lat="36.736734034493566" lon="-4.919206034392119">
        <ele>707.19000000000005</ele>
        <time>2025-05-09T11:13:06Z</time>
      </trkpt>
      <trkpt lat="36.736686006188393" lon="-4.919153982773423">
        <ele>706.71000000000004</ele>
        <time>2025-05-09T11:13:07Z</time>
      </trkpt>
      <trkpt lat="36.736640995368361" lon="-4.919106038287282">
        <ele>706.23000000000002</ele>
        <time>2025-05-09T11:13:08Z</time>
      </trkpt>
      <trkpt lat="36.736596990376711" lon="-4.919058009982109">
        <ele>705.75</ele>
        <time>2025-05-09T11:13:09Z</time>
      </trkpt>
      <trkpt lat="36.736553991213441" lon="-4.919010987505317">
        <ele>704.77999999999997</ele>
        <time>2025-05-09T11:13:10Z</time>
      </trkpt>
      <trkpt lat="36.736513003706932" lon="-4.918966982513666">
        <ele>704.29999999999995</ele>
        <time>2025-05-09T11:13:11Z</time>
      </trkpt>
      <trkpt lat="36.736476039513946" lon="-4.918927000835538">
        <ele>703.82000000000005</ele>
        <time>2025-05-09T11:13:12Z</time>
      </trkpt>
      <trkpt lat="36.73644402064383" lon="-4.918891964480281">
        <ele>703.34000000000003</ele>
        <time>2025-05-09T11:13:13Z</time>
      </trkpt>
      <trkpt lat="36.736318040639162" lon="-4.918755004182458">
        <ele>699.5</ele>
        <time>2025-05-09T11:13:19Z</time>
      </trkpt>
      <trkpt lat="36.736286021769047" lon="-4.918720973655582">
        <ele>699.01999999999998</ele>
        <time>2025-05-09T11:13:20Z</time>
      </trkpt>
      <trkpt lat="36.736318040639162" lon="-4.918679986149073">
        <ele>698.04999999999995</ele>
        <time>2025-05-09T11:13:21Z</time>
      </trkpt>
      <trkpt lat="36.736335977911949" lon="-4.918656013906002">
        <ele>697.57000000000005</ele>
        <time>2025-05-09T11:13:22Z</time>
      </trkpt>
      <trkpt lat="36.736355004832149" lon="-4.918632041662931">
        <ele>697.09000000000003</ele>
        <time>2025-05-09T11:13:23Z</time>
      </trkpt>
      <trkpt lat="36.7363799829036" lon="-4.918601028621197">
        <ele>696.61000000000001</ele>
        <time>2025-05-09T11:13:24Z</time>
      </trkpt>
      <trkpt lat="36.736402027308941" lon="-4.918572027236223">
        <ele>696.13</ele>
        <time>2025-05-09T11:13:25Z</time>
      </trkpt>
      <trkpt lat="36.736435974016786" lon="-4.918528022244573">
        <ele>695.64999999999998</ele>
        <time>2025-05-09T11:13:26Z</time>
      </trkpt>
      <trkpt lat="36.736418958753347" lon="-4.918508995324373">
        <ele>695.16999999999996</ele>
        <time>2025-05-09T11:13:27Z</time>
      </trkpt>
      <trkpt lat="36.736391969025135" lon="-4.918478988111019">
        <ele>694.69000000000005</ele>
        <time>2025-05-09T11:13:28Z</time>
      </trkpt>
      <trkpt lat="36.736359028145671" lon="-4.918442023918033">
        <ele>694.21000000000004</ele>
        <time>2025-05-09T11:13:29Z</time>
      </trkpt>
      <trkpt lat="36.736286021769047" lon="-4.918361976742744">
        <ele>693.73000000000002</ele>
        <time>2025-05-09T11:13:31Z</time>
      </trkpt>
      <trkpt lat="36.736254002898932" lon="-4.918327024206519">
        <ele>693.25</ele>
        <time>2025-05-09T11:13:32Z</time>
      </trkpt>
      <trkpt lat="36.73622902482748" lon="-4.918276984244585">
        <ele>693.25</ele>
        <time>2025-05-09T11:13:33Z</time>
      </trkpt>
      <trkpt lat="36.73625098541379" lon="-4.918231973424554">
        <ele>693.25</ele>
        <time>2025-05-09T11:13:34Z</time>
      </trkpt>
      <trkpt lat="36.736273029819131" lon="-4.918188974261284">
        <ele>693.25</ele>
        <time>2025-05-09T11:13:35Z</time>
      </trkpt>
      <trkpt lat="36.736289961263537" lon="-4.918155027553439">
        <ele>693.25</ele>
        <time>2025-05-09T11:13:36Z</time>
      </trkpt>
      <trkpt lat="36.736303037032485" lon="-4.918129965662956">
        <ele>693.25</ele>
        <time>2025-05-09T11:13:37Z</time>
      </trkpt>
      <trkpt lat="36.736317034810781" lon="-4.918067017570138">
        <ele>693.25</ele>
        <time>2025-05-09T11:13:38Z</time>
      </trkpt>
      <trkpt lat="36.736297002062201" lon="-4.918052013963461">
        <ele>693.25</ele>
        <time>2025-05-09T11:13:39Z</time>
      </trkpt>
      <trkpt lat="36.736275963485241" lon="-4.918036004528403">
        <ele>693.25</ele>
        <time>2025-05-09T11:13:40Z</time>
      </trkpt>
      <trkpt lat="36.736256014555693" lon="-4.918019995093346">
        <ele>693.25</ele>
        <time>2025-05-09T11:13:41Z</time>
      </trkpt>
      <trkpt lat="36.736234975978732" lon="-4.918003985658288">
        <ele>693.25</ele>
        <time>2025-05-09T11:13:42Z</time>
      </trkpt>
      <trkpt lat="36.73612299375236" lon="-4.91794497705996">
        <ele>691.80999999999995</ele>
        <time>2025-05-09T11:13:48Z</time>
      </trkpt>
      <trkpt lat="36.736108995974064" lon="-4.91796400398016">
        <ele>691.80999999999995</ele>
        <time>2025-05-09T11:13:49Z</time>
      </trkpt>
      <trkpt lat="36.736087035387754" lon="-4.917995017021895">
        <ele>691.80999999999995</ele>
        <time>2025-05-09T11:13:50Z</time>
      </trkpt>
      <trkpt lat="36.735940016806126" lon="-4.91811303421855">
        <ele>691.33000000000004</ele>
        <time>2025-05-09T11:13:55Z</time>
      </trkpt>
      <trkpt lat="36.735920989885926" lon="-4.918119991198182">
        <ele>691.33000000000004</ele>
        <time>2025-05-09T11:13:56Z</time>
      </trkpt>
      <trkpt lat="36.735851000994444" lon="-4.918173970654607">
        <ele>691.33000000000004</ele>
        <time>2025-05-09T11:13:57Z</time>
      </trkpt>
      <trkpt lat="36.735900035127997" lon="-4.918076992034912">
        <ele>691.33000000000004</ele>
        <time>2025-05-09T11:13:58Z</time>
      </trkpt>
      <trkpt lat="36.735883019864559" lon="-4.918031981214881">
        <ele>691.33000000000004</ele>
        <time>2025-05-09T11:13:59Z</time>
      </trkpt>
      <trkpt lat="36.735858963802457" lon="-4.917968027293682">
        <ele>691.33000000000004</ele>
        <time>2025-05-09T11:14:00Z</time>
      </trkpt>
      <trkpt lat="36.735814958810806" lon="-4.917869037017226">
        <ele>691.33000000000004</ele>
        <time>2025-05-09T11:14:01Z</time>
      </trkpt>
      <trkpt lat="36.735759973526001" lon="-4.91777298040688">
        <ele>691.33000000000004</ele>
        <time>2025-05-09T11:14:02Z</time>
      </trkpt>
      <trkpt lat="36.73569199629128" lon="-4.917672984302044">
        <ele>691.33000000000004</ele>
        <time>2025-05-09T11:14:03Z</time>
      </trkpt>
      <trkpt lat="36.735484041273594" lon="-4.917381964623928">
        <ele>692.28999999999996</ele>
        <time>2025-05-09T11:14:06Z</time>
      </trkpt>
      <trkpt lat="36.73496201634407" lon="-4.916796991601586">
        <ele>694.21000000000004</ele>
        <time>2025-05-09T11:14:14Z</time>
      </trkpt>
      <trkpt lat="36.734904013574123" lon="-4.916687021031976">
        <ele>694.21000000000004</ele>
        <time>2025-05-09T11:14:15Z</time>
      </trkpt>
      <trkpt lat="36.734841987490654" lon="-4.916561963036656">
        <ele>693.73000000000002</ele>
        <time>2025-05-09T11:14:16Z</time>
      </trkpt>
      <trkpt lat="36.734662028029561" lon="-4.916202966123819">
        <ele>694.21000000000004</ele>
        <time>2025-05-09T11:14:19Z</time>
      </trkpt>
      <trkpt lat="36.734586004167795" lon="-4.916121996939182">
        <ele>694.21000000000004</ele>
        <time>2025-05-09T11:14:20Z</time>
      </trkpt>
      <trkpt lat="36.73448801971972" lon="-4.916072962805629">
        <ele>694.21000000000004</ele>
        <time>2025-05-09T11:14:21Z</time>
      </trkpt>
      <trkpt lat="36.734376959502697" lon="-4.916039016097784">
        <ele>694.69000000000005</ele>
        <time>2025-05-09T11:14:22Z</time>
      </trkpt>
      <trkpt lat="36.734260031953454" lon="-4.91600900888443">
        <ele>694.69000000000005</ele>
        <time>2025-05-09T11:14:23Z</time>
      </trkpt>
      <trkpt lat="36.733709005638957" lon="-4.915838018059731">
        <ele>694.69000000000005</ele>
        <time>2025-05-09T11:14:28Z</time>
      </trkpt>
      <trkpt lat="36.733610015362501" lon="-4.915765011683106">
        <ele>694.69000000000005</ele>
        <time>2025-05-09T11:14:29Z</time>
      </trkpt>
      <trkpt lat="36.733515970408916" lon="-4.915674990043044">
        <ele>694.21000000000004</ele>
        <time>2025-05-09T11:14:30Z</time>
      </trkpt>
      <trkpt lat="36.733010960742831" lon="-4.915252961218357">
        <ele>691.80999999999995</ele>
        <time>2025-05-09T11:14:35Z</time>
      </trkpt>
      <trkpt lat="36.732898978516459" lon="-4.915213985368609">
        <ele>690.84000000000003</ele>
        <time>2025-05-09T11:14:36Z</time>
      </trkpt>
      <trkpt lat="36.73279101960361" lon="-4.915176015347242">
        <ele>690.36000000000001</ele>
        <time>2025-05-09T11:14:37Z</time>
      </trkpt>
      <trkpt lat="36.73218802548945" lon="-4.915051963180304">
        <ele>685.55999999999995</ele>
        <time>2025-05-09T11:14:44Z</time>
      </trkpt>
      <trkpt lat="36.732099009677768" lon="-4.915007036179304">
        <ele>685.08000000000004</ele>
        <time>2025-05-09T11:14:45Z</time>
      </trkpt>
      <trkpt lat="36.732021979987621" lon="-4.914968982338905">
        <ele>684.60000000000002</ele>
        <time>2025-05-09T11:14:46Z</time>
      </trkpt>
      <trkpt lat="36.731966994702816" lon="-4.914917014539242">
        <ele>684.12</ele>
        <time>2025-05-09T11:14:47Z</time>
      </trkpt>
      <trkpt lat="36.73199599608779" lon="-4.914832022041082">
        <ele>684.12</ele>
        <time>2025-05-09T11:14:48Z</time>
      </trkpt>
      <trkpt lat="36.731979986652732" lon="-4.914730014279485">
        <ele>683.63</ele>
        <time>2025-05-09T11:14:49Z</time>
      </trkpt>
      <trkpt lat="36.731989039108157" lon="-4.914648039266467">
        <ele>683.14999999999998</ele>
        <time>2025-05-09T11:14:50Z</time>
      </trkpt>
      <trkpt lat="36.732036983594298" lon="-4.91452700458467">
        <ele>682.19000000000005</ele>
        <time>2025-05-09T11:14:51Z</time>
      </trkpt>
      <trkpt lat="36.732091968879104" lon="-4.914389038458467">
        <ele>681.23000000000002</ele>
        <time>2025-05-09T11:14:52Z</time>
      </trkpt>
      <trkpt lat="36.732163969427347" lon="-4.914265992119908">
        <ele>680.75</ele>
        <time>2025-05-09T11:14:53Z</time>
      </trkpt>
      <trkpt lat="36.732634026557207" lon="-4.913427969440818">
        <ele>673.53999999999996</ele>
        <time>2025-05-09T11:15:00Z</time>
      </trkpt>
      <trkpt lat="36.732812980189919" lon="-4.912999989464879">
        <ele>670.65999999999997</ele>
        <time>2025-05-09T11:15:03Z</time>
      </trkpt>
      <trkpt lat="36.732851034030318" lon="-4.912839978933334">
        <ele>670.17999999999995</ele>
        <time>2025-05-09T11:15:04Z</time>
      </trkpt>
      <trkpt lat="36.732881963253021" lon="-4.912673011422157">
        <ele>669.22000000000003</ele>
        <time>2025-05-09T11:15:05Z</time>
      </trkpt>
      <trkpt lat="36.733106011524796" lon="-4.911657962948084">
        <ele>663.92999999999995</ele>
        <time>2025-05-09T11:15:11Z</time>
      </trkpt>
      <trkpt lat="36.733797015622258" lon="-4.910017037764192">
        <ele>657.67999999999995</ele>
        <time>2025-05-09T11:15:22Z</time>
      </trkpt>
      <trkpt lat="36.734055010601878" lon="-4.909128975123167">
        <ele>656.24000000000001</ele>
        <time>2025-05-09T11:15:28Z</time>
      </trkpt>
      <trkpt lat="36.734032966196537" lon="-4.908985979855061">
        <ele>655.27999999999997</ele>
        <time>2025-05-09T11:15:29Z</time>
      </trkpt>
      <trkpt lat="36.734012011438608" lon="-4.908850025385618">
        <ele>654.79999999999995</ele>
        <time>2025-05-09T11:15:30Z</time>
      </trkpt>
      <trkpt lat="36.733936993405223" lon="-4.908754974603653">
        <ele>653.83000000000004</ele>
        <time>2025-05-09T11:15:31Z</time>
      </trkpt>
      <trkpt lat="36.733846971765161" lon="-4.908651039004326">
        <ele>653.35000000000002</ele>
        <time>2025-05-09T11:15:32Z</time>
      </trkpt>
      <trkpt lat="36.733712023124099" lon="-4.908589012920857">
        <ele>652.38999999999999</ele>
        <time>2025-05-09T11:15:33Z</time>
      </trkpt>
      <trkpt lat="36.733567016199231" lon="-4.908522041514516">
        <ele>651.90999999999997</ele>
        <time>2025-05-09T11:15:34Z</time>
      </trkpt>
      <trkpt lat="36.732950024306774" lon="-4.908290030434728">
        <ele>648.07000000000005</ele>
        <time>2025-05-09T11:15:38Z</time>
      </trkpt>
      <trkpt lat="36.732786996290088" lon="-4.908275026828051">
        <ele>647.10000000000002</ele>
        <time>2025-05-09T11:15:39Z</time>
      </trkpt>
      <trkpt lat="36.732627991586924" lon="-4.908293969929218">
        <ele>645.65999999999997</ele>
        <time>2025-05-09T11:15:40Z</time>
      </trkpt>
      <trkpt lat="36.732488013803959" lon="-4.908354990184307">
        <ele>644.70000000000005</ele>
        <time>2025-05-09T11:15:41Z</time>
      </trkpt>
      <trkpt lat="36.732375025749207" lon="-4.908462027087808">
        <ele>643.25999999999999</ele>
        <time>2025-05-09T11:15:42Z</time>
      </trkpt>
      <trkpt lat="36.732261031866074" lon="-4.908568980172277">
        <ele>641.82000000000005</ele>
        <time>2025-05-09T11:15:43Z</time>
      </trkpt>
      <trkpt lat="36.732147037982941" lon="-4.908677022904158">
        <ele>640.38</ele>
        <time>2025-05-09T11:15:44Z</time>
      </trkpt>
      <trkpt lat="36.732014017179608" lon="-4.908751035109162">
        <ele>639.40999999999997</ele>
        <time>2025-05-09T11:15:45Z</time>
      </trkpt>
      <trkpt lat="36.731873033568263" lon="-4.908804008737207">
        <ele>638.45000000000005</ele>
        <time>2025-05-09T11:15:46Z</time>
      </trkpt>
      <trkpt lat="36.731300968676805" lon="-4.908881038427353">
        <ele>634.13</ele>
        <time>2025-05-09T11:15:50Z</time>
      </trkpt>
      <trkpt lat="36.731184963136911" lon="-4.908871985971928">
        <ele>632.67999999999995</ele>
        <time>2025-05-09T11:15:51Z</time>
      </trkpt>
      <trkpt lat="36.731113968417048" lon="-4.908806020393968">
        <ele>631.72000000000003</ele>
        <time>2025-05-09T11:15:52Z</time>
      </trkpt>
      <trkpt lat="36.731068035587668" lon="-4.908735025674105">
        <ele>631.24000000000001</ele>
        <time>2025-05-09T11:15:53Z</time>
      </trkpt>
      <trkpt lat="36.731054037809372" lon="-4.908619020134211">
        <ele>630.27999999999997</ele>
        <time>2025-05-09T11:15:54Z</time>
      </trkpt>
      <trkpt lat="36.73107398673892" lon="-4.908526986837387">
        <ele>629.32000000000005</ele>
        <time>2025-05-09T11:15:55Z</time>
      </trkpt>
      <trkpt lat="36.73111598007381" lon="-4.908412992954254">
        <ele>627.88</ele>
        <time>2025-05-09T11:15:56Z</time>
      </trkpt>
      <trkpt lat="36.731157973408699" lon="-4.908346021547914">
        <ele>626.44000000000005</ele>
        <time>2025-05-09T11:15:57Z</time>
      </trkpt>
      <trkpt lat="36.731251012533903" lon="-4.908300004899502">
        <ele>624.99000000000001</ele>
        <time>2025-05-09T11:15:58Z</time>
      </trkpt>
      <trkpt lat="36.731340028345585" lon="-4.908289024606347">
        <ele>624.02999999999997</ele>
        <time>2025-05-09T11:15:59Z</time>
      </trkpt>
      <trkpt lat="36.731458967551589" lon="-4.908282989636064">
        <ele>623.07000000000005</ele>
        <time>2025-05-09T11:16:00Z</time>
      </trkpt>
      <trkpt lat="36.731586959213018" lon="-4.908277038484812">
        <ele>622.11000000000001</ele>
        <time>2025-05-09T11:16:01Z</time>
      </trkpt>
      <trkpt lat="36.73171604052186" lon="-4.908271003514528">
        <ele>621.14999999999998</ele>
        <time>2025-05-09T11:16:02Z</time>
      </trkpt>
      <trkpt lat="36.73182399943471" lon="-4.908179976046085">
        <ele>620.19000000000005</ele>
        <time>2025-05-09T11:16:03Z</time>
      </trkpt>
      <trkpt lat="36.731922989711165" lon="-4.908098001033068">
        <ele>619.23000000000002</ele>
        <time>2025-05-09T11:16:04Z</time>
      </trkpt>
      <trkpt lat="36.731986021623015" lon="-4.908001022413373">
        <ele>618.75</ele>
        <time>2025-05-09T11:16:05Z</time>
      </trkpt>
      <trkpt lat="36.73201996833086" lon="-4.907855009660125">
        <ele>618.75</ele>
        <time>2025-05-09T11:16:06Z</time>
      </trkpt>
      <trkpt lat="36.732057016342878" lon="-4.907696004956961">
        <ele>618.25999999999999</ele>
        <time>2025-05-09T11:16:07Z</time>
      </trkpt>
      <trkpt lat="36.732093980535865" lon="-4.907539011910558">
        <ele>617.77999999999997</ele>
        <time>2025-05-09T11:16:08Z</time>
      </trkpt>
      <trkpt lat="36.732122981920838" lon="-4.90741303190589">
        <ele>617.77999999999997</ele>
        <time>2025-05-09T11:16:09Z</time>
      </trkpt>
      <trkpt lat="36.73221099190414" lon="-4.907296020537615">
        <ele>617.29999999999995</ele>
        <time>2025-05-09T11:16:10Z</time>
      </trkpt>
      <trkpt lat="36.732288021594286" lon="-4.907233994454145">
        <ele>617.29999999999995</ele>
        <time>2025-05-09T11:16:11Z</time>
      </trkpt>
      <trkpt lat="36.732381982728839" lon="-4.907226031646133">
        <ele>616.82000000000005</ele>
        <time>2025-05-09T11:16:12Z</time>
      </trkpt>
      <trkpt lat="36.732483990490437" lon="-4.907255033031106">
        <ele>616.82000000000005</ele>
        <time>2025-05-09T11:16:13Z</time>
      </trkpt>
      <trkpt lat="36.732572000473738" lon="-4.907312029972673">
        <ele>616.34000000000003</ele>
        <time>2025-05-09T11:16:14Z</time>
      </trkpt>
      <trkpt lat="36.732668979093432" lon="-4.907388975843787">
        <ele>615.38</ele>
        <time>2025-05-09T11:16:15Z</time>
      </trkpt>
      <trkpt lat="36.732771992683411" lon="-4.907469023019075">
        <ele>614.89999999999998</ele>
        <time>2025-05-09T11:16:16Z</time>
      </trkpt>
      <trkpt lat="36.732880035415292" lon="-4.907555021345615">
        <ele>613.94000000000005</ele>
        <time>2025-05-09T11:16:17Z</time>
      </trkpt>
      <trkpt lat="36.733019007369876" lon="-4.90758896805346">
        <ele>613.46000000000004</ele>
        <time>2025-05-09T11:16:18Z</time>
      </trkpt>
      <trkpt lat="36.733160996809602" lon="-4.907596008852124">
        <ele>612.5</ele>
        <time>2025-05-09T11:16:19Z</time>
      </trkpt>
      <trkpt lat="36.733302986249328" lon="-4.907602965831757">
        <ele>611.53999999999996</ele>
        <time>2025-05-09T11:16:20Z</time>
      </trkpt>
      <trkpt lat="36.733442964032292" lon="-4.907590979710221">
        <ele>610.57000000000005</ele>
        <time>2025-05-09T11:16:21Z</time>
      </trkpt>
      <trkpt lat="36.733583025634289" lon="-4.907562984153628">
        <ele>609.61000000000001</ele>
        <time>2025-05-09T11:16:22Z</time>
      </trkpt>
      <trkpt lat="36.733709005638957" lon="-4.907524008303881">
        <ele>608.64999999999998</ele>
        <time>2025-05-09T11:16:23Z</time>
      </trkpt>
      <trkpt lat="36.733807995915413" lon="-4.90743700414896">
        <ele>607.69000000000005</ele>
        <time>2025-05-09T11:16:24Z</time>
      </trkpt>
      <trkpt lat="36.733883013948798" lon="-4.90737003274262">
        <ele>607.21000000000004</ele>
        <time>2025-05-09T11:16:25Z</time>
      </trkpt>
      <trkpt lat="36.733883013948798" lon="-4.907275987789035">
        <ele>606.73000000000002</ele>
        <time>2025-05-09T11:16:26Z</time>
      </trkpt>
      <trkpt lat="36.733883013948798" lon="-4.907171968370676">
        <ele>605.76999999999998</ele>
        <time>2025-05-09T11:16:27Z</time>
      </trkpt>
      <trkpt lat="36.733839008957148" lon="-4.90706903859973">
        <ele>605.28999999999996</ele>
        <time>2025-05-09T11:16:28Z</time>
      </trkpt>
      <trkpt lat="36.733758039772511" lon="-4.906987985596061">
        <ele>604.33000000000004</ele>
        <time>2025-05-09T11:16:29Z</time>
      </trkpt>
      <trkpt lat="36.733667012304068" lon="-4.906906010583043">
        <ele>603.36000000000001</ele>
        <time>2025-05-09T11:16:30Z</time>
      </trkpt>
      <trkpt lat="36.733566010370851" lon="-4.906828980892897">
        <ele>602.39999999999998</ele>
        <time>2025-05-09T11:16:31Z</time>
      </trkpt>
      <trkpt lat="36.733431983739138" lon="-4.906725967302918">
        <ele>601.91999999999996</ele>
        <time>2025-05-09T11:16:32Z</time>
      </trkpt>
      <trkpt lat="36.733410023152828" lon="-4.906627982854843">
        <ele>601.44000000000005</ele>
        <time>2025-05-09T11:16:33Z</time>
      </trkpt>
      <trkpt lat="36.73339300788939" lon="-4.906492028385401">
        <ele>600.96000000000004</ele>
        <time>2025-05-09T11:16:34Z</time>
      </trkpt>
      <trkpt lat="36.733404994010925" lon="-4.906347021460533">
        <ele>600.96000000000004</ele>
        <time>2025-05-09T11:16:35Z</time>
      </trkpt>
      <trkpt lat="36.73343600705266" lon="-4.906198997050524">
        <ele>600.96000000000004</ele>
        <time>2025-05-09T11:16:36Z</time>
      </trkpt>
      <trkpt lat="36.733487974852324" lon="-4.906048038974404">
        <ele>600.96000000000004</ele>
        <time>2025-05-09T11:16:37Z</time>
      </trkpt>
      <trkpt lat="36.733546983450651" lon="-4.905887022614479">
        <ele>601.44000000000005</ele>
        <time>2025-05-09T11:16:38Z</time>
      </trkpt>
      <trkpt lat="36.733625018969178" lon="-4.905674960464239">
        <ele>601.44000000000005</ele>
        <time>2025-05-09T11:16:39Z</time>
      </trkpt>
      <trkpt lat="36.733629964292049" lon="-4.905533976852894">
        <ele>601.91999999999996</ele>
        <time>2025-05-09T11:16:40Z</time>
      </trkpt>
      <trkpt lat="36.733637005090714" lon="-4.905346976593137">
        <ele>602.39999999999998</ele>
        <time>2025-05-09T11:16:41Z</time>
      </trkpt>
      <trkpt lat="36.733643040060997" lon="-4.905171962454915">
        <ele>602.88</ele>
        <time>2025-05-09T11:16:42Z</time>
      </trkpt>
      <trkpt lat="36.733666006475687" lon="-4.905011029914022">
        <ele>602.39999999999998</ele>
        <time>2025-05-09T11:16:43Z</time>
      </trkpt>
      <trkpt lat="36.733718980103731" lon="-4.904851019382477">
        <ele>602.39999999999998</ele>
        <time>2025-05-09T11:16:44Z</time>
      </trkpt>
      <trkpt lat="36.733826017007232" lon="-4.904744988307357">
        <ele>602.39999999999998</ele>
        <time>2025-05-09T11:16:45Z</time>
      </trkpt>
      <trkpt lat="36.733943028375506" lon="-4.904627976939082">
        <ele>601.91999999999996</ele>
        <time>2025-05-09T11:16:46Z</time>
      </trkpt>
      <trkpt lat="36.734065990895033" lon="-4.904505014419556">
        <ele>601.91999999999996</ele>
        <time>2025-05-09T11:16:47Z</time>
      </trkpt>
      <trkpt lat="36.734691029414535" lon="-4.903861032798886">
        <ele>598.55999999999995</ele>
        <time>2025-05-09T11:16:52Z</time>
      </trkpt>
      <trkpt lat="36.734824972227216" lon="-4.903771011158824">
        <ele>597.12</ele>
        <time>2025-05-09T11:16:53Z</time>
      </trkpt>
      <trkpt lat="36.734968973323703" lon="-4.903691969811916">
        <ele>596.14999999999998</ele>
        <time>2025-05-09T11:16:54Z</time>
      </trkpt>
      <trkpt lat="36.735384967178106" lon="-4.903494995087385">
        <ele>594.23000000000002</ele>
        <time>2025-05-09T11:16:57Z</time>
      </trkpt>
      <trkpt lat="36.735490998253226" lon="-4.903430035337806">
        <ele>593.75</ele>
        <time>2025-05-09T11:16:58Z</time>
      </trkpt>
      <trkpt lat="36.735566016286612" lon="-4.903336996212602">
        <ele>593.26999999999998</ele>
        <time>2025-05-09T11:16:59Z</time>
      </trkpt>
      <trkpt lat="36.735621001571417" lon="-4.903223002329469">
        <ele>593.26999999999998</ele>
        <time>2025-05-09T11:17:00Z</time>
      </trkpt>
      <trkpt lat="36.735621001571417" lon="-4.903102973476052">
        <ele>592.78999999999996</ele>
        <time>2025-05-09T11:17:01Z</time>
      </trkpt>
      <trkpt lat="36.735573979094625" lon="-4.902970036491752">
        <ele>592.30999999999995</ele>
        <time>2025-05-09T11:17:02Z</time>
      </trkpt>
      <trkpt lat="36.735492004081607" lon="-4.902876997366548">
        <ele>591.83000000000004</ele>
        <time>2025-05-09T11:17:03Z</time>
      </trkpt>
      <trkpt lat="36.735393013805151" lon="-4.902840033173561">
        <ele>591.35000000000002</ele>
        <time>2025-05-09T11:17:04Z</time>
      </trkpt>
      <trkpt lat="36.735273990780115" lon="-4.902830980718136">
        <ele>590.87</ele>
        <time>2025-05-09T11:17:05Z</time>
      </trkpt>
      <trkpt lat="36.735145999118686" lon="-4.902850007638335">
        <ele>590.87</ele>
        <time>2025-05-09T11:17:06Z</time>
      </trkpt>
      <trkpt lat="36.735011972486973" lon="-4.902870040386915">
        <ele>590.38999999999999</ele>
        <time>2025-05-09T11:17:07Z</time>
      </trkpt>
      <trkpt lat="36.734480978921056" lon="-4.902823017910123">
        <ele>590.38999999999999</ele>
        <time>2025-05-09T11:17:11Z</time>
      </trkpt>
      <trkpt lat="36.734390035271645" lon="-4.902740037068725">
        <ele>589.90999999999997</ele>
        <time>2025-05-09T11:17:12Z</time>
      </trkpt>
      <trkpt lat="36.734310993924737" lon="-4.902650015428662">
        <ele>588.95000000000005</ele>
        <time>2025-05-09T11:17:13Z</time>
      </trkpt>
      <trkpt lat="36.734285010024905" lon="-4.902541972696781">
        <ele>588.46000000000004</ele>
        <time>2025-05-09T11:17:14Z</time>
      </trkpt>
      <trkpt lat="36.734276041388512" lon="-4.902389002963901">
        <ele>587.98000000000002</ele>
        <time>2025-05-09T11:17:15Z</time>
      </trkpt>
      <trkpt lat="36.734275035560131" lon="-4.902225974947214">
        <ele>587.5</ele>
        <time>2025-05-09T11:17:16Z</time>
      </trkpt>
      <trkpt lat="36.734292972832918" lon="-4.902051966637373">
        <ele>587.5</ele>
        <time>2025-05-09T11:17:17Z</time>
      </trkpt>
      <trkpt lat="36.734345024451613" lon="-4.901687018573284">
        <ele>587.01999999999998</ele>
        <time>2025-05-09T11:17:19Z</time>
      </trkpt>
      <trkpt lat="36.734354998916388" lon="-4.901498006656766">
        <ele>587.01999999999998</ele>
        <time>2025-05-09T11:17:20Z</time>
      </trkpt>
      <trkpt lat="36.734327003359795" lon="-4.901319975033402">
        <ele>586.53999999999996</ele>
        <time>2025-05-09T11:17:21Z</time>
      </trkpt>
      <trkpt lat="36.734290961176157" lon="-4.901125011965632">
        <ele>586.53999999999996</ele>
        <time>2025-05-09T11:17:22Z</time>
      </trkpt>
      <trkpt lat="36.734256008639932" lon="-4.901003977283835">
        <ele>586.53999999999996</ele>
        <time>2025-05-09T11:17:23Z</time>
      </trkpt>
      <trkpt lat="36.734217032790184" lon="-4.900869028642774">
        <ele>586.53999999999996</ele>
        <time>2025-05-09T11:17:24Z</time>
      </trkpt>
      <trkpt lat="36.734204962849617" lon="-4.900743970647454">
        <ele>587.01999999999998</ele>
        <time>2025-05-09T11:17:25Z</time>
      </trkpt>
      <trkpt lat="36.734204962849617" lon="-4.900631988421083">
        <ele>587.5</ele>
        <time>2025-05-09T11:17:26Z</time>
      </trkpt>
      <trkpt lat="36.734246034175158" lon="-4.900543978437781">
        <ele>588.46000000000004</ele>
        <time>2025-05-09T11:17:27Z</time>
      </trkpt>
      <trkpt lat="36.734296996146441" lon="-4.900435013696551">
        <ele>588.46000000000004</ele>
        <time>2025-05-09T11:17:28Z</time>
      </trkpt>
      <trkpt lat="36.734350975602865" lon="-4.900319008156657">
        <ele>588.46000000000004</ele>
        <time>2025-05-09T11:17:29Z</time>
      </trkpt>
      <trkpt lat="36.734434962272644" lon="-4.90023996680975">
        <ele>587.98000000000002</ele>
        <time>2025-05-09T11:17:30Z</time>
      </trkpt>
      <trkpt lat="36.734520960599184" lon="-4.900165032595396">
        <ele>587.5</ele>
        <time>2025-05-09T11:17:31Z</time>
      </trkpt>
      <trkpt lat="36.734613999724388" lon="-4.900139970704913">
        <ele>587.01999999999998</ele>
        <time>2025-05-09T11:17:32Z</time>
      </trkpt>
      <trkpt lat="36.734724976122379" lon="-4.900113986805081">
        <ele>586.53999999999996</ele>
        <time>2025-05-09T11:17:33Z</time>
      </trkpt>
      <trkpt lat="36.734846010804176" lon="-4.900084985420108">
        <ele>586.05999999999995</ele>
        <time>2025-05-09T11:17:34Z</time>
      </trkpt>
      <trkpt lat="36.734965033829212" lon="-4.900057995691896">
        <ele>585.58000000000004</ele>
        <time>2025-05-09T11:17:35Z</time>
      </trkpt>
      <trkpt lat="36.735093025490642" lon="-4.900027988478541">
        <ele>584.62</ele>
        <time>2025-05-09T11:17:36Z</time>
      </trkpt>
      <trkpt lat="36.735231997445226" lon="-4.899974009022117">
        <ele>584.13999999999999</ele>
        <time>2025-05-09T11:17:37Z</time>
      </trkpt>
      <trkpt lat="36.735489992424846" lon="-4.899804024025798">
        <ele>582.22000000000003</ele>
        <time>2025-05-09T11:17:39Z</time>
      </trkpt>
      <trkpt lat="36.735610021278262" lon="-4.899696987122297">
        <ele>581.25</ele>
        <time>2025-05-09T11:17:40Z</time>
      </trkpt>
      <trkpt lat="36.735697025433183" lon="-4.899536976590753">
        <ele>580.28999999999996</ele>
        <time>2025-05-09T11:17:41Z</time>
      </trkpt>
      <trkpt lat="36.735776988789439" lon="-4.899376966059208">
        <ele>579.33000000000004</ele>
        <time>2025-05-09T11:17:42Z</time>
      </trkpt>
      <trkpt lat="36.735811019316316" lon="-4.899192983284593">
        <ele>578.37</ele>
        <time>2025-05-09T11:17:43Z</time>
      </trkpt>
      <trkpt lat="36.735834991559386" lon="-4.899004977196455">
        <ele>576.92999999999995</ele>
        <time>2025-05-09T11:17:44Z</time>
      </trkpt>
      <trkpt lat="36.735803978517652" lon="-4.898811019957066">
        <ele>575.97000000000003</ele>
        <time>2025-05-09T11:17:45Z</time>
      </trkpt>
      <trkpt lat="36.735771037638187" lon="-4.898613039404154">
        <ele>575.00999999999999</ele>
        <time>2025-05-09T11:17:46Z</time>
      </trkpt>
      <trkpt lat="36.735732983797789" lon="-4.898418998345733">
        <ele>574.03999999999996</ele>
        <time>2025-05-09T11:17:47Z</time>
      </trkpt>
      <trkpt lat="36.735680010169744" lon="-4.898231998085976">
        <ele>573.08000000000004</ele>
        <time>2025-05-09T11:17:48Z</time>
      </trkpt>
      <trkpt lat="36.735445987433195" lon="-4.89733899012208">
        <ele>567.79999999999995</ele>
        <time>2025-05-09T11:17:53Z</time>
      </trkpt>
      <trkpt lat="36.735438024625182" lon="-4.897183002904058">
        <ele>566.83000000000004</ele>
        <time>2025-05-09T11:17:54Z</time>
      </trkpt>
      <trkpt lat="36.73547800630331" lon="-4.897031961008906">
        <ele>565.87</ele>
        <time>2025-05-09T11:17:55Z</time>
      </trkpt>
      <trkpt lat="36.735524022951722" lon="-4.89688603207469">
        <ele>564.42999999999995</ele>
        <time>2025-05-09T11:17:56Z</time>
      </trkpt>
      <trkpt lat="36.735622007399797" lon="-4.896772960200906">
        <ele>562.99000000000001</ele>
        <time>2025-05-09T11:17:57Z</time>
      </trkpt>
      <trkpt lat="36.735742036253214" lon="-4.896701965481043">
        <ele>562.02999999999997</ele>
        <time>2025-05-09T11:17:58Z</time>
      </trkpt>
      <trkpt lat="36.735870027914643" lon="-4.896643040701747">
        <ele>560.59000000000003</ele>
        <time>2025-05-09T11:17:59Z</time>
      </trkpt>
      <trkpt lat="36.735988967120647" lon="-4.896576991304755">
        <ele>559.62</ele>
        <time>2025-05-09T11:18:00Z</time>
      </trkpt>
      <trkpt lat="36.736092986539006" lon="-4.896512031555176">
        <ele>558.65999999999997</ele>
        <time>2025-05-09T11:18:01Z</time>
      </trkpt>
      <trkpt lat="36.736157024279237" lon="-4.896396026015282">
        <ele>557.70000000000005</ele>
        <time>2025-05-09T11:18:02Z</time>
      </trkpt>
      <trkpt lat="36.736194994300604" lon="-4.896278008818626">
        <ele>556.74000000000001</ele>
        <time>2025-05-09T11:18:03Z</time>
      </trkpt>
      <trkpt lat="36.736175967380404" lon="-4.896142976358533">
        <ele>556.25999999999999</ele>
        <time>2025-05-09T11:18:04Z</time>
      </trkpt>
      <trkpt lat="36.736115030944347" lon="-4.8960289824754">
        <ele>555.77999999999997</ele>
        <time>2025-05-09T11:18:05Z</time>
      </trkpt>
      <trkpt lat="36.736043030396104" lon="-4.895900990813971">
        <ele>555.29999999999995</ele>
        <time>2025-05-09T11:18:06Z</time>
      </trkpt>
      <trkpt lat="36.735957032069564" lon="-4.895771993324161">
        <ele>554.82000000000005</ele>
        <time>2025-05-09T11:18:07Z</time>
      </trkpt>
      <trkpt lat="36.735377004370093" lon="-4.894736995920539">
        <ele>554.82000000000005</ele>
        <time>2025-05-09T11:18:13Z</time>
      </trkpt>
      <trkpt lat="36.734515009447932" lon="-4.892865987494588">
        <ele>554.34000000000003</ele>
        <time>2025-05-09T11:18:23Z</time>
      </trkpt>
      <trkpt lat="36.734480978921056" lon="-4.892684016376734">
        <ele>554.82000000000005</ele>
        <time>2025-05-09T11:18:24Z</time>
      </trkpt>
      <trkpt lat="36.734462035819888" lon="-4.892502967268229">
        <ele>555.29999999999995</ele>
        <time>2025-05-09T11:18:25Z</time>
      </trkpt>
      <trkpt lat="36.734462035819888" lon="-4.892315967008472">
        <ele>554.82000000000005</ele>
        <time>2025-05-09T11:18:26Z</time>
      </trkpt>
      <trkpt lat="36.734483996406198" lon="-4.892124021425843">
        <ele>554.82000000000005</ele>
        <time>2025-05-09T11:18:27Z</time>
      </trkpt>
      <trkpt lat="36.734517021104693" lon="-4.891926040872932">
        <ele>554.82000000000005</ele>
        <time>2025-05-09T11:18:28Z</time>
      </trkpt>
      <trkpt lat="36.734914993867278" lon="-4.890665989369154">
        <ele>550.00999999999999</ele>
        <time>2025-05-09T11:18:35Z</time>
      </trkpt>
      <trkpt lat="36.734998980537057" lon="-4.890554007142782">
        <ele>549.04999999999995</ele>
        <time>2025-05-09T11:18:36Z</time>
      </trkpt>
      <trkpt lat="36.735102999955416" lon="-4.890462979674339">
        <ele>548.09000000000003</ele>
        <time>2025-05-09T11:18:37Z</time>
      </trkpt>
      <trkpt lat="36.735206013545394" lon="-4.890372036024928">
        <ele>547.13</ele>
        <time>2025-05-09T11:18:38Z</time>
      </trkpt>
      <trkpt lat="36.73530600965023" lon="-4.890284026041627">
        <ele>546.16999999999996</ele>
        <time>2025-05-09T11:18:39Z</time>
      </trkpt>
      <trkpt lat="36.735400976613164" lon="-4.890200961381197">
        <ele>545.20000000000005</ele>
        <time>2025-05-09T11:18:40Z</time>
      </trkpt>
      <trkpt lat="36.735475994646549" lon="-4.890128960832954">
        <ele>544.24000000000001</ele>
        <time>2025-05-09T11:18:41Z</time>
      </trkpt>
      <trkpt lat="36.735642040148377" lon="-4.889773987233639">
        <ele>542.79999999999995</ele>
        <time>2025-05-09T11:18:44Z</time>
      </trkpt>
      <trkpt lat="36.735651008784771" lon="-4.889650018885732">
        <ele>542.32000000000005</ele>
        <time>2025-05-09T11:18:45Z</time>
      </trkpt>
      <trkpt lat="36.735664000734687" lon="-4.889473998919129">
        <ele>542.32000000000005</ele>
        <time>2025-05-09T11:18:46Z</time>
      </trkpt>
      <trkpt lat="36.735630976036191" lon="-4.889380959793925">
        <ele>542.32000000000005</ele>
        <time>2025-05-09T11:18:47Z</time>
      </trkpt>
      <trkpt lat="36.735578002408147" lon="-4.889233019202948">
        <ele>542.32000000000005</ele>
        <time>2025-05-09T11:18:48Z</time>
      </trkpt>
      <trkpt lat="36.735522011294961" lon="-4.889077031984925">
        <ele>542.32000000000005</ele>
        <time>2025-05-09T11:18:49Z</time>
      </trkpt>
      <trkpt lat="36.735461996868253" lon="-4.888907968997955">
        <ele>542.79999999999995</ele>
        <time>2025-05-09T11:18:50Z</time>
      </trkpt>
      <trkpt lat="36.735420003533363" lon="-4.888730021193624">
        <ele>542.79999999999995</ele>
        <time>2025-05-09T11:18:51Z</time>
      </trkpt>
      <trkpt lat="36.735300980508327" lon="-4.887973973527551">
        <ele>545.69000000000005</ele>
        <time>2025-05-09T11:18:55Z</time>
      </trkpt>
      <trkpt lat="36.73524297773838" lon="-4.887789990752935">
        <ele>546.16999999999996</ele>
        <time>2025-05-09T11:18:56Z</time>
      </trkpt>
      <trkpt lat="36.735033011063933" lon="-4.886985998600721">
        <ele>550.97000000000003</ele>
        <time>2025-05-09T11:19:00Z</time>
      </trkpt>
      <trkpt lat="36.734999986365438" lon="-4.886794975027442">
        <ele>551.92999999999995</ele>
        <time>2025-05-09T11:19:01Z</time>
      </trkpt>
      <trkpt lat="36.735017001628876" lon="-4.88661602139473">
        <ele>552.89999999999998</ele>
        <time>2025-05-09T11:19:02Z</time>
      </trkpt>
      <trkpt lat="36.735032005235553" lon="-4.88644695840776">
        <ele>553.86000000000001</ele>
        <time>2025-05-09T11:19:03Z</time>
      </trkpt>
      <trkpt lat="36.735046003013849" lon="-4.886293988674879">
        <ele>554.34000000000003</ele>
        <time>2025-05-09T11:19:04Z</time>
      </trkpt>
      <trkpt lat="36.735063018277287" lon="-4.886104976758361">
        <ele>555.29999999999995</ele>
        <time>2025-05-09T11:19:05Z</time>
      </trkpt>
      <trkpt lat="36.735034016892314" lon="-4.88601797260344">
        <ele>555.77999999999997</ele>
        <time>2025-05-09T11:19:06Z</time>
      </trkpt>
      <trkpt lat="36.734943995252252" lon="-4.885911019518971">
        <ele>556.25999999999999</ele>
        <time>2025-05-09T11:19:07Z</time>
      </trkpt>
      <trkpt lat="36.734843999147415" lon="-4.885825021192431">
        <ele>556.74000000000001</ele>
        <time>2025-05-09T11:19:08Z</time>
      </trkpt>
      <trkpt lat="36.734735034406185" lon="-4.885732987895608">
        <ele>556.74000000000001</ele>
        <time>2025-05-09T11:19:09Z</time>
      </trkpt>
      <trkpt lat="36.734647024422884" lon="-4.885614970698953">
        <ele>557.22000000000003</ele>
        <time>2025-05-09T11:19:10Z</time>
      </trkpt>
      <trkpt lat="36.734566977247596" lon="-4.885493014007807">
        <ele>557.70000000000005</ele>
        <time>2025-05-09T11:19:11Z</time>
      </trkpt>
      <trkpt lat="36.734533030539751" lon="-4.88532898016274">
        <ele>558.65999999999997</ele>
        <time>2025-05-09T11:19:12Z</time>
      </trkpt>
      <trkpt lat="36.734496988356113" lon="-4.885155977681279">
        <ele>559.62</ele>
        <time>2025-05-09T11:19:13Z</time>
      </trkpt>
      <trkpt lat="36.734458012506366" lon="-4.884981969371438">
        <ele>561.07000000000005</ele>
        <time>2025-05-09T11:19:14Z</time>
      </trkpt>
      <trkpt lat="36.734376959502697" lon="-4.884850960224867">
        <ele>562.02999999999997</ele>
        <time>2025-05-09T11:19:15Z</time>
      </trkpt>
      <trkpt lat="36.734204040840268" lon="-4.884573016315699">
        <ele>563.95000000000005</ele>
        <time>2025-05-09T11:19:17Z</time>
      </trkpt>
      <trkpt lat="36.734143020585179" lon="-4.884402025490999">
        <ele>564.42999999999995</ele>
        <time>2025-05-09T11:19:18Z</time>
      </trkpt>
      <trkpt lat="36.734087029471993" lon="-4.884209996089339">
        <ele>565.38999999999999</ele>
        <time>2025-05-09T11:19:19Z</time>
      </trkpt>
      <trkpt lat="36.734029026702046" lon="-4.884011009708047">
        <ele>566.35000000000002</ele>
        <time>2025-05-09T11:19:20Z</time>
      </trkpt>
      <trkpt lat="36.733960965648293" lon="-4.883809005841613">
        <ele>567.32000000000005</ele>
        <time>2025-05-09T11:19:21Z</time>
      </trkpt>
      <trkpt lat="36.733890976756811" lon="-4.883599039167166">
        <ele>568.75999999999999</ele>
        <time>2025-05-09T11:19:22Z</time>
      </trkpt>
      <trkpt lat="36.733825011178851" lon="-4.883398963138461">
        <ele>569.72000000000003</ele>
        <time>2025-05-09T11:19:23Z</time>
      </trkpt>
      <trkpt lat="36.733711017295718" lon="-4.883057987317443">
        <ele>571.63999999999999</ele>
        <time>2025-05-09T11:19:25Z</time>
      </trkpt>
      <trkpt lat="36.733711017295718" lon="-4.882907029241324">
        <ele>572.12</ele>
        <time>2025-05-09T11:19:26Z</time>
      </trkpt>
      <trkpt lat="36.733712023124099" lon="-4.882778031751514">
        <ele>572.60000000000002</ele>
        <time>2025-05-09T11:19:27Z</time>
      </trkpt>
      <trkpt lat="36.733768014237285" lon="-4.882650962099433">
        <ele>572.60000000000002</ele>
        <time>2025-05-09T11:19:28Z</time>
      </trkpt>
      <trkpt lat="36.733835991472006" lon="-4.882562030106783">
        <ele>572.60000000000002</ele>
        <time>2025-05-09T11:19:29Z</time>
      </trkpt>
      <trkpt lat="36.733944034203887" lon="-4.88249396905303">
        <ele>572.60000000000002</ele>
        <time>2025-05-09T11:19:30Z</time>
      </trkpt>
      <trkpt lat="36.734054004773498" lon="-4.882489023730159">
        <ele>572.12</ele>
        <time>2025-05-09T11:19:31Z</time>
      </trkpt>
      <trkpt lat="36.734140003100038" lon="-4.882500004023314">
        <ele>572.12</ele>
        <time>2025-05-09T11:19:32Z</time>
      </trkpt>
      <trkpt lat="36.734263971447945" lon="-4.882591031491756">
        <ele>572.12</ele>
        <time>2025-05-09T11:19:33Z</time>
      </trkpt>
      <trkpt lat="36.734374025836587" lon="-4.882673006504774">
        <ele>571.63999999999999</ele>
        <time>2025-05-09T11:19:34Z</time>
      </trkpt>
      <trkpt lat="36.734486008062959" lon="-4.882754981517792">
        <ele>571.63999999999999</ele>
        <time>2025-05-09T11:19:35Z</time>
      </trkpt>
      <trkpt lat="36.734592961147428" lon="-4.88283502869308">
        <ele>571.63999999999999</ele>
        <time>2025-05-09T11:19:36Z</time>
      </trkpt>
      <trkpt lat="36.734716007485986" lon="-4.882865035906434">
        <ele>571.15999999999997</ele>
        <time>2025-05-09T11:19:37Z</time>
      </trkpt>
      <trkpt lat="36.734828995540738" lon="-4.882865035906434">
        <ele>571.15999999999997</ele>
        <time>2025-05-09T11:19:38Z</time>
      </trkpt>
      <trkpt lat="36.734937960281968" lon="-4.882797980681062">
        <ele>570.67999999999995</ele>
        <time>2025-05-09T11:19:39Z</time>
      </trkpt>
      <trkpt lat="36.735038040205836" lon="-4.882707037031651">
        <ele>570.20000000000005</ele>
        <time>2025-05-09T11:19:40Z</time>
      </trkpt>
      <trkpt lat="36.735114986076951" lon="-4.882578039541841">
        <ele>569.72000000000003</ele>
        <time>2025-05-09T11:19:41Z</time>
      </trkpt>
      <trkpt lat="36.735172988846898" lon="-4.882419034838677">
        <ele>568.75999999999999</ele>
        <time>2025-05-09T11:19:42Z</time>
      </trkpt>
      <trkpt lat="36.735212970525026" lon="-4.882245026528835">
        <ele>567.79999999999995</ele>
        <time>2025-05-09T11:19:43Z</time>
      </trkpt>
      <trkpt lat="36.735225962474942" lon="-4.882052997127175">
        <ele>566.83000000000004</ele>
        <time>2025-05-09T11:19:44Z</time>
      </trkpt>
      <trkpt lat="36.735247001051903" lon="-4.881844036281109">
        <ele>565.87</ele>
        <time>2025-05-09T11:19:45Z</time>
      </trkpt>
      <trkpt lat="36.735338028520346" lon="-4.881423013284802">
        <ele>562.50999999999999</ele>
        <time>2025-05-09T11:19:47Z</time>
      </trkpt>
      <trkpt lat="36.735396031290293" lon="-4.88122696056962">
        <ele>561.07000000000005</ele>
        <time>2025-05-09T11:19:48Z</time>
      </trkpt>
      <trkpt lat="36.735726026818156" lon="-4.880464039742947">
        <ele>555.29999999999995</ele>
        <time>2025-05-09T11:19:53Z</time>
      </trkpt>
      <trkpt lat="36.735786963254213" lon="-4.880374018102884">
        <ele>554.82000000000005</ele>
        <time>2025-05-09T11:19:54Z</time>
      </trkpt>
      <trkpt lat="36.735849995166063" lon="-4.88032003864646">
        <ele>554.34000000000003</ele>
        <time>2025-05-09T11:19:55Z</time>
      </trkpt>
      <trkpt lat="36.735917972400784" lon="-4.880293970927596">
        <ele>553.86000000000001</ele>
        <time>2025-05-09T11:19:56Z</time>
      </trkpt>
      <trkpt lat="36.735986033454537" lon="-4.880268992856145">
        <ele>553.38</ele>
        <time>2025-05-09T11:19:57Z</time>
      </trkpt>
      <trkpt lat="36.73605996184051" lon="-4.880287013947964">
        <ele>552.89999999999998</ele>
        <time>2025-05-09T11:19:58Z</time>
      </trkpt>
      <trkpt lat="36.736106984317303" lon="-4.880336970090866">
        <ele>552.40999999999997</ele>
        <time>2025-05-09T11:19:59Z</time>
      </trkpt>
      <trkpt lat="36.736159035935998" lon="-4.880406958982348">
        <ele>551.45000000000005</ele>
        <time>2025-05-09T11:20:00Z</time>
      </trkpt>
      <trkpt lat="36.736202035099268" lon="-4.880466973409057">
        <ele>550.97000000000003</ele>
        <time>2025-05-09T11:20:01Z</time>
      </trkpt>
      <trkpt lat="36.73623195849359" lon="-4.880571998655796">
        <ele>550.00999999999999</ele>
        <time>2025-05-09T11:20:02Z</time>
      </trkpt>
      <trkpt lat="36.736264983192086" lon="-4.880685992538929">
        <ele>549.52999999999997</ele>
        <time>2025-05-09T11:20:03Z</time>
      </trkpt>
      <trkpt lat="36.736300019547343" lon="-4.880806021392345">
        <ele>548.57000000000005</ele>
        <time>2025-05-09T11:20:04Z</time>
      </trkpt>
      <trkpt lat="36.73633698374033" lon="-4.880934013053775">
        <ele>548.09000000000003</ele>
        <time>2025-05-09T11:20:05Z</time>
      </trkpt>
      <trkpt lat="36.736374031752348" lon="-4.881059993058443">
        <ele>547.13</ele>
        <time>2025-05-09T11:20:06Z</time>
      </trkpt>
      <trkpt lat="36.736431028693914" lon="-4.881177004426718">
        <ele>546.16999999999996</ele>
        <time>2025-05-09T11:20:07Z</time>
      </trkpt>
      <trkpt lat="36.736510992050171" lon="-4.88124598748982">
        <ele>545.20000000000005</ele>
        <time>2025-05-09T11:20:08Z</time>
      </trkpt>
      <trkpt lat="36.736591961234808" lon="-4.881297033280134">
        <ele>544.24000000000001</ele>
        <time>2025-05-09T11:20:09Z</time>
      </trkpt>
      <trkpt lat="36.736671002581716" lon="-4.881308013573289">
        <ele>543.75999999999999</ele>
        <time>2025-05-09T11:20:10Z</time>
      </trkpt>
      <trkpt lat="36.736760018393397" lon="-4.881281023845077">
        <ele>543.27999999999997</ele>
        <time>2025-05-09T11:20:11Z</time>
      </trkpt>
      <trkpt lat="36.73685004003346" lon="-4.881247999146581">
        <ele>543.27999999999997</ele>
        <time>2025-05-09T11:20:12Z</time>
      </trkpt>
      <trkpt lat="36.736922962591052" lon="-4.881143979728222">
        <ele>542.79999999999995</ele>
        <time>2025-05-09T11:20:13Z</time>
      </trkpt>
      <trkpt lat="36.73700300976634" lon="-4.88103199750185">
        <ele>542.32000000000005</ele>
        <time>2025-05-09T11:20:14Z</time>
      </trkpt>
      <trkpt lat="36.737083978950977" lon="-4.880916997790337">
        <ele>542.32000000000005</ele>
        <time>2025-05-09T11:20:15Z</time>
      </trkpt>
      <trkpt lat="36.737234015017748" lon="-4.88070703111589">
        <ele>541.84000000000003</ele>
        <time>2025-05-09T11:20:17Z</time>
      </trkpt>
      <trkpt lat="36.737315990030766" lon="-4.880590019747615">
        <ele>541.84000000000003</ele>
        <time>2025-05-09T11:20:18Z</time>
      </trkpt>
      <trkpt lat="36.737380027770996" lon="-4.880568981170654">
        <ele>541.84000000000003</ele>
        <time>2025-05-09T11:20:19Z</time>
      </trkpt>
      <trkpt lat="36.73749502748251" lon="-4.880592031404376">
        <ele>541.84000000000003</ele>
        <time>2025-05-09T11:20:20Z</time>
      </trkpt>
      <trkpt lat="36.737595023587346" lon="-4.880611980333924">
        <ele>541.84000000000003</ele>
        <time>2025-05-09T11:20:21Z</time>
      </trkpt>
      <trkpt lat="36.737684961408377" lon="-4.880676018074155">
        <ele>541.36000000000001</ele>
        <time>2025-05-09T11:20:22Z</time>
      </trkpt>
      <trkpt lat="36.737786969169974" lon="-4.880748018622398">
        <ele>540.88</ele>
        <time>2025-05-09T11:20:23Z</time>
      </trkpt>
      <trkpt lat="36.737896017730236" lon="-4.880823036655784">
        <ele>540.39999999999998</ele>
        <time>2025-05-09T11:20:24Z</time>
      </trkpt>
      <trkpt lat="36.738125011324883" lon="-4.880972988903523">
        <ele>539.44000000000005</ele>
        <time>2025-05-09T11:20:26Z</time>
      </trkpt>
      <trkpt lat="36.738245040178299" lon="-4.881042977795005">
        <ele>538.96000000000004</ele>
        <time>2025-05-09T11:20:27Z</time>
      </trkpt>
      <trkpt lat="36.738370014354587" lon="-4.881084971129894">
        <ele>537.99000000000001</ele>
        <time>2025-05-09T11:20:28Z</time>
      </trkpt>
      <trkpt lat="36.738490965217352" lon="-4.881093017756939">
        <ele>537.02999999999997</ele>
        <time>2025-05-09T11:20:29Z</time>
      </trkpt>
      <trkpt lat="36.738603031262755" lon="-4.881068039685488">
        <ele>536.54999999999995</ele>
        <time>2025-05-09T11:20:30Z</time>
      </trkpt>
      <trkpt lat="36.738697998225689" lon="-4.88100802525878">
        <ele>535.59000000000003</ele>
        <time>2025-05-09T11:20:31Z</time>
      </trkpt>
      <trkpt lat="36.738787014037371" lon="-4.880940970033407">
        <ele>534.63</ele>
        <time>2025-05-09T11:20:32Z</time>
      </trkpt>
      <trkpt lat="36.738836970180273" lon="-4.880834016948938">
        <ele>533.66999999999996</ele>
        <time>2025-05-09T11:20:33Z</time>
      </trkpt>
      <trkpt lat="36.738882986828685" lon="-4.880717005580664">
        <ele>533.19000000000005</ele>
        <time>2025-05-09T11:20:34Z</time>
      </trkpt>
      <trkpt lat="36.738910982385278" lon="-4.880591025575995">
        <ele>531.75</ele>
        <time>2025-05-09T11:20:35Z</time>
      </trkpt>
      <trkpt lat="36.738908970728517" lon="-4.880450963973999">
        <ele>530.78999999999996</ele>
        <time>2025-05-09T11:20:36Z</time>
      </trkpt>
      <trkpt lat="36.738869994878769" lon="-4.880304029211402">
        <ele>529.82000000000005</ele>
        <time>2025-05-09T11:20:37Z</time>
      </trkpt>
      <trkpt lat="36.738796988502145" lon="-4.880139995366335">
        <ele>528.86000000000001</ele>
        <time>2025-05-09T11:20:38Z</time>
      </trkpt>
      <trkpt lat="36.738703027367592" lon="-4.880035975947976">
        <ele>527.41999999999996</ele>
        <time>2025-05-09T11:20:39Z</time>
      </trkpt>
      <trkpt lat="36.738604959100485" lon="-4.879927011206746">
        <ele>526.46000000000004</ele>
        <time>2025-05-09T11:20:40Z</time>
      </trkpt>
      <trkpt lat="36.73846397548914" lon="-4.87967798486352">
        <ele>524.05999999999995</ele>
        <time>2025-05-09T11:20:42Z</time>
      </trkpt>
      <trkpt lat="36.738409996032715" lon="-4.879580000415444">
        <ele>523.58000000000004</ele>
        <time>2025-05-09T11:20:43Z</time>
      </trkpt>
      <trkpt lat="36.73839901573956" lon="-4.879453014582396">
        <ele>522.61000000000001</ele>
        <time>2025-05-09T11:20:44Z</time>
      </trkpt>
      <trkpt lat="36.738389041274786" lon="-4.879345977678895">
        <ele>521.64999999999998</ele>
        <time>2025-05-09T11:20:45Z</time>
      </trkpt>
      <trkpt lat="36.738445032387972" lon="-4.87922603264451">
        <ele>520.69000000000005</ele>
        <time>2025-05-09T11:20:46Z</time>
      </trkpt>
      <trkpt lat="36.738499011844397" lon="-4.879109021276236">
        <ele>519.73000000000002</ele>
        <time>2025-05-09T11:20:47Z</time>
      </trkpt>
      <trkpt lat="36.738558020442724" lon="-4.87901397049427">
        <ele>518.76999999999998</ele>
        <time>2025-05-09T11:20:48Z</time>
      </trkpt>
      <trkpt lat="36.738665979355574" lon="-4.878955967724323">
        <ele>518.28999999999996</ele>
        <time>2025-05-09T11:20:49Z</time>
      </trkpt>
      <trkpt lat="36.738783996552229" lon="-4.878894025459886">
        <ele>516.85000000000002</ele>
        <time>2025-05-09T11:20:50Z</time>
      </trkpt>
      <trkpt lat="36.73891399987042" lon="-4.878843985497952">
        <ele>515.88</ele>
        <time>2025-05-09T11:20:51Z</time>
      </trkpt>
      <trkpt lat="36.739160008728504" lon="-4.878766033798456">
        <ele>513.96000000000004</ele>
        <time>2025-05-09T11:20:53Z</time>
      </trkpt>
      <trkpt lat="36.739268973469734" lon="-4.878724040463567">
        <ele>512.51999999999998</ele>
        <time>2025-05-09T11:20:54Z</time>
      </trkpt>
      <trkpt lat="36.739362012594938" lon="-4.878617003560066">
        <ele>511.56</ele>
        <time>2025-05-09T11:20:55Z</time>
      </trkpt>
      <trkpt lat="36.739434013143182" lon="-4.878523964434862">
        <ele>510.60000000000002</ele>
        <time>2025-05-09T11:20:56Z</time>
      </trkpt>
      <trkpt lat="36.739487992599607" lon="-4.878427991643548">
        <ele>510.12</ele>
        <time>2025-05-09T11:20:57Z</time>
      </trkpt>
      <trkpt lat="36.739525962620974" lon="-4.87834501080215">
        <ele>509.16000000000003</ele>
        <time>2025-05-09T11:20:58Z</time>
      </trkpt>
      <trkpt lat="36.739525962620974" lon="-4.878244008868933">
        <ele>508.67000000000002</ele>
        <time>2025-05-09T11:20:59Z</time>
      </trkpt>
      <trkpt lat="36.739525962620974" lon="-4.878122974187136">
        <ele>508.19</ele>
        <time>2025-05-09T11:21:00Z</time>
      </trkpt>
      <trkpt lat="36.739482041448355" lon="-4.878022978082299">
        <ele>507.23000000000002</ele>
        <time>2025-05-09T11:21:01Z</time>
      </trkpt>
      <trkpt lat="36.739413980394602" lon="-4.877907978370786">
        <ele>506.75</ele>
        <time>2025-05-09T11:21:02Z</time>
      </trkpt>
      <trkpt lat="36.739319013431668" lon="-4.877824997529388">
        <ele>506.26999999999998</ele>
        <time>2025-05-09T11:21:03Z</time>
      </trkpt>
      <trkpt lat="36.739202002063394" lon="-4.877795996144414">
        <ele>505.79000000000002</ele>
        <time>2025-05-09T11:21:04Z</time>
      </trkpt>
      <trkpt lat="36.739071998745203" lon="-4.877789039164782">
        <ele>505.31</ele>
        <time>2025-05-09T11:21:05Z</time>
      </trkpt>
      <trkpt lat="36.738935960456729" lon="-4.877780992537737">
        <ele>504.82999999999998</ele>
        <time>2025-05-09T11:21:06Z</time>
      </trkpt>
      <trkpt lat="36.738796988502145" lon="-4.87778602167964">
        <ele>504.82999999999998</ele>
        <time>2025-05-09T11:21:07Z</time>
      </trkpt>
      <trkpt lat="36.737995008006692" lon="-4.87778602167964">
        <ele>500.01999999999998</ele>
        <time>2025-05-09T11:21:13Z</time>
      </trkpt>
      <trkpt lat="36.737894006073475" lon="-4.877735981717706">
        <ele>499.06</ele>
        <time>2025-05-09T11:21:14Z</time>
      </trkpt>
      <trkpt lat="36.737831979990005" lon="-4.877670016139746">
        <ele>498.10000000000002</ele>
        <time>2025-05-09T11:21:15Z</time>
      </trkpt>
      <trkpt lat="36.737785963341594" lon="-4.877569014206529">
        <ele>497.62</ele>
        <time>2025-05-09T11:21:16Z</time>
      </trkpt>
      <trkpt lat="36.737735001370311" lon="-4.877454014495015">
        <ele>497.13999999999999</ele>
        <time>2025-05-09T11:21:17Z</time>
      </trkpt>
      <trkpt lat="36.737678004428744" lon="-4.877329040318728">
        <ele>496.66000000000003</ele>
        <time>2025-05-09T11:21:18Z</time>
      </trkpt>
      <trkpt lat="36.737620001658797" lon="-4.877199959009886">
        <ele>496.18000000000001</ele>
        <time>2025-05-09T11:21:19Z</time>
      </trkpt>
      <trkpt lat="36.737559987232089" lon="-4.877068027853966">
        <ele>495.22000000000003</ele>
        <time>2025-05-09T11:21:20Z</time>
      </trkpt>
      <trkpt lat="36.737460996955633" lon="-4.876966020092368">
        <ele>494.25999999999999</ele>
        <time>2025-05-09T11:21:21Z</time>
      </trkpt>
      <trkpt lat="36.737358989194036" lon="-4.876871975138784">
        <ele>493.29000000000002</ele>
        <time>2025-05-09T11:21:22Z</time>
      </trkpt>
      <trkpt lat="36.737272990867496" lon="-4.876792011782527">
        <ele>492.32999999999998</ele>
        <time>2025-05-09T11:21:23Z</time>
      </trkpt>
      <trkpt lat="36.73715204000473" lon="-4.876792011782527">
        <ele>491.85000000000002</ele>
        <time>2025-05-09T11:21:24Z</time>
      </trkpt>
      <trkpt lat="36.737039973959327" lon="-4.876792011782527">
        <ele>490.88999999999999</ele>
        <time>2025-05-09T11:21:25Z</time>
      </trkpt>
      <trkpt lat="36.736935032531619" lon="-4.876812966540456">
        <ele>490.41000000000003</ele>
        <time>2025-05-09T11:21:26Z</time>
      </trkpt>
      <trkpt lat="36.73683101311326" lon="-4.876869041472673">
        <ele>489.93000000000001</ele>
        <time>2025-05-09T11:21:27Z</time>
      </trkpt>
      <trkpt lat="36.736725987866521" lon="-4.87692603841424">
        <ele>489.44999999999999</ele>
        <time>2025-05-09T11:21:28Z</time>
      </trkpt>
      <trkpt lat="36.736618028953671" lon="-4.876957973465323">
        <ele>488.49000000000001</ele>
        <time>2025-05-09T11:21:29Z</time>
      </trkpt>
      <trkpt lat="36.736478973180056" lon="-4.876985969021916">
        <ele>488.00999999999999</ele>
        <time>2025-05-09T11:21:30Z</time>
      </trkpt>
      <trkpt lat="36.736383000388741" lon="-4.876985969021916">
        <ele>487.05000000000001</ele>
        <time>2025-05-09T11:21:31Z</time>
      </trkpt>
      <trkpt lat="36.736038001254201" lon="-4.876925032585859">
        <ele>485.12</ele>
        <time>2025-05-09T11:21:34Z</time>
      </trkpt>
      <trkpt lat="36.735963989049196" lon="-4.876899970695376">
        <ele>484.16000000000003</ele>
        <time>2025-05-09T11:21:35Z</time>
      </trkpt>
      <trkpt lat="36.735898023471236" lon="-4.876768039539456">
        <ele>483.68000000000001</ele>
        <time>2025-05-09T11:21:36Z</time>
      </trkpt>
      <trkpt lat="36.735847983509302" lon="-4.876667959615588">
        <ele>482.72000000000003</ele>
        <time>2025-05-09T11:21:37Z</time>
      </trkpt>
      <trkpt lat="36.735812025144696" lon="-4.876567041501403">
        <ele>482.24000000000001</ele>
        <time>2025-05-09T11:21:38Z</time>
      </trkpt>
      <trkpt lat="36.73580196686089" lon="-4.876439971849322">
        <ele>482.24000000000001</ele>
        <time>2025-05-09T11:21:39Z</time>
      </trkpt>
      <trkpt lat="36.735795009881258" lon="-4.876303011551499">
        <ele>481.75999999999999</ele>
        <time>2025-05-09T11:21:40Z</time>
      </trkpt>
      <trkpt lat="36.735815964639187" lon="-4.876164961606264">
        <ele>481.27999999999997</ele>
        <time>2025-05-09T11:21:41Z</time>
      </trkpt>
      <trkpt lat="36.735835997387767" lon="-4.876040993258357">
        <ele>480.80000000000001</ele>
        <time>2025-05-09T11:21:42Z</time>
      </trkpt>
      <trkpt lat="36.735903974622488" lon="-4.875928005203605">
        <ele>480.80000000000001</ele>
        <time>2025-05-09T11:21:43Z</time>
      </trkpt>
      <trkpt lat="36.73597102984786" lon="-4.875820968300104">
        <ele>480.31999999999999</ele>
        <time>2025-05-09T11:21:44Z</time>
      </trkpt>
      <trkpt lat="36.736060967668891" lon="-4.875730024650693">
        <ele>480.31999999999999</ele>
        <time>2025-05-09T11:21:45Z</time>
      </trkpt>
      <trkpt lat="36.736153000965714" lon="-4.87563899718225">
        <ele>480.31999999999999</ele>
        <time>2025-05-09T11:21:46Z</time>
      </trkpt>
      <trkpt lat="36.736975014209747" lon="-4.874725034460425">
        <ele>477.43000000000001</ele>
        <time>2025-05-09T11:21:54Z</time>
      </trkpt>
      <trkpt lat="36.737229991704226" lon="-4.874410964548588">
        <ele>475.02999999999997</ele>
        <time>2025-05-09T11:21:57Z</time>
      </trkpt>
      <trkpt lat="36.737252036109567" lon="-4.874304011464119">
        <ele>474.06999999999999</ele>
        <time>2025-05-09T11:21:58Z</time>
      </trkpt>
      <trkpt lat="36.737269973382354" lon="-4.874210972338915">
        <ele>473.11000000000001</ele>
        <time>2025-05-09T11:21:59Z</time>
      </trkpt>
      <trkpt lat="36.737252958118916" lon="-4.874136038124561">
        <ele>472.63</ele>
        <time>2025-05-09T11:22:00Z</time>
      </trkpt>
      <trkpt lat="36.737223034724593" lon="-4.874044004827738">
        <ele>471.66000000000003</ele>
        <time>2025-05-09T11:22:01Z</time>
      </trkpt>
      <trkpt lat="36.737185986712575" lon="-4.873937973752618">
        <ele>470.69999999999999</ele>
        <time>2025-05-09T11:22:02Z</time>
      </trkpt>
      <trkpt lat="36.737106023356318" lon="-4.873916013166308">
        <ele>469.74000000000001</ele>
        <time>2025-05-09T11:22:03Z</time>
      </trkpt>
      <trkpt lat="36.737018013373017" lon="-4.873892962932587">
        <ele>468.77999999999997</ele>
        <time>2025-05-09T11:22:04Z</time>
      </trkpt>
      <trkpt lat="36.736919023096561" lon="-4.873895980417728">
        <ele>467.81999999999999</ele>
        <time>2025-05-09T11:22:05Z</time>
      </trkpt>
      <trkpt lat="36.736832018941641" lon="-4.873957000672817">
        <ele>467.33999999999997</ele>
        <time>2025-05-09T11:22:06Z</time>
      </trkpt>
      <trkpt lat="36.736736968159676" lon="-4.874022966250777">
        <ele>466.38</ele>
        <time>2025-05-09T11:22:07Z</time>
      </trkpt>
      <trkpt lat="36.736632026731968" lon="-4.874088009819388">
        <ele>465.42000000000002</ele>
        <time>2025-05-09T11:22:08Z</time>
      </trkpt>
      <trkpt lat="36.736506968736649" lon="-4.874121034517884">
        <ele>464.44999999999999</ele>
        <time>2025-05-09T11:22:09Z</time>
      </trkpt>
      <trkpt lat="36.736070020124316" lon="-4.874179037287831">
        <ele>463.49000000000001</ele>
        <time>2025-05-09T11:22:12Z</time>
      </trkpt>
      <trkpt lat="36.735621001571417" lon="-4.874238967895508">
        <ele>462.05000000000001</ele>
        <time>2025-05-09T11:22:15Z</time>
      </trkpt>
      <trkpt lat="36.735470965504646" lon="-4.874260006472468">
        <ele>461.56999999999999</ele>
        <time>2025-05-09T11:22:16Z</time>
      </trkpt>
      <trkpt lat="36.734763029962778" lon="-4.874539040029049">
        <ele>457.24000000000001</ele>
        <time>2025-05-09T11:22:22Z</time>
      </trkpt>
      <trkpt lat="36.734664039686322" lon="-4.874509032815695">
        <ele>456.75999999999999</ele>
        <time>2025-05-09T11:22:23Z</time>
      </trkpt>
      <trkpt lat="36.734576029703021" lon="-4.874481959268451">
        <ele>455.80000000000001</ele>
        <time>2025-05-09T11:22:24Z</time>
      </trkpt>
      <trkpt lat="36.7344890255481" lon="-4.874454969540238">
        <ele>454.83999999999997</ele>
        <time>2025-05-09T11:22:25Z</time>
      </trkpt>
      <trkpt lat="36.734417024999857" lon="-4.874386992305517">
        <ele>453.88</ele>
        <time>2025-05-09T11:22:26Z</time>
      </trkpt>
      <trkpt lat="36.734358016401529" lon="-4.874298982322216">
        <ele>452.92000000000002</ele>
        <time>2025-05-09T11:22:27Z</time>
      </trkpt>
      <trkpt lat="36.734308982267976" lon="-4.874178031459451">
        <ele>452.44</ele>
        <time>2025-05-09T11:22:28Z</time>
      </trkpt>
      <trkpt lat="36.734257014468312" lon="-4.87404802814126">
        <ele>451.48000000000002</ele>
        <time>2025-05-09T11:22:29Z</time>
      </trkpt>
      <trkpt lat="36.734203035011888" lon="-4.873911989852786">
        <ele>450.51999999999998</ele>
        <time>2025-05-09T11:22:30Z</time>
      </trkpt>
      <trkpt lat="36.734135979786515" lon="-4.873783998191357">
        <ele>449.55000000000001</ele>
        <time>2025-05-09T11:22:31Z</time>
      </trkpt>
      <trkpt lat="36.734042018651962" lon="-4.873690037056804">
        <ele>448.58999999999997</ele>
        <time>2025-05-09T11:22:32Z</time>
      </trkpt>
      <trkpt lat="36.733945040032268" lon="-4.873593980446458">
        <ele>447.63</ele>
        <time>2025-05-09T11:22:33Z</time>
      </trkpt>
      <trkpt lat="36.73384303227067" lon="-4.873494990170002">
        <ele>446.67000000000002</ele>
        <time>2025-05-09T11:22:34Z</time>
      </trkpt>
      <trkpt lat="36.733732977882028" lon="-4.873411003500223">
        <ele>445.70999999999998</ele>
        <time>2025-05-09T11:22:35Z</time>
      </trkpt>
      <trkpt lat="36.732911970466375" lon="-4.872841034084559">
        <ele>439.45999999999998</ele>
        <time>2025-05-09T11:22:42Z</time>
      </trkpt>
      <trkpt lat="36.732784984633327" lon="-4.872805997729302">
        <ele>438.5</ele>
        <time>2025-05-09T11:22:43Z</time>
      </trkpt>
      <trkpt lat="36.732665039598942" lon="-4.872811026871204">
        <ele>437.54000000000002</ele>
        <time>2025-05-09T11:22:44Z</time>
      </trkpt>
      <trkpt lat="36.732171010226011" lon="-4.872788982465863">
        <ele>433.69</ele>
        <time>2025-05-09T11:22:48Z</time>
      </trkpt>
      <trkpt lat="36.732079982757568" lon="-4.87278001382947">
        <ele>432.73000000000002</ele>
        <time>2025-05-09T11:22:49Z</time>
      </trkpt>
      <trkpt lat="36.731972023844719" lon="-4.872680017724633">
        <ele>431.76999999999998</ele>
        <time>2025-05-09T11:22:50Z</time>
      </trkpt>
      <trkpt lat="36.731880996376276" lon="-4.872595025226474">
        <ele>430.81</ele>
        <time>2025-05-09T11:22:51Z</time>
      </trkpt>
      <trkpt lat="36.731796003878117" lon="-4.872511960566044">
        <ele>429.85000000000002</ele>
        <time>2025-05-09T11:22:52Z</time>
      </trkpt>
      <trkpt lat="36.731730038300157" lon="-4.872380029410124">
        <ele>428.88999999999999</ele>
        <time>2025-05-09T11:22:53Z</time>
      </trkpt>
      <trkpt lat="36.731660971418023" lon="-4.872240973636508">
        <ele>427.92000000000002</ele>
        <time>2025-05-09T11:22:54Z</time>
      </trkpt>
      <trkpt lat="36.731592994183302" lon="-4.87209496088326">
        <ele>427.44</ele>
        <time>2025-05-09T11:22:55Z</time>
      </trkpt>
      <trkpt lat="36.731408005580306" lon="-4.871647031977773">
        <ele>425.04000000000002</ele>
        <time>2025-05-09T11:22:58Z</time>
      </trkpt>
      <trkpt lat="36.731324018910527" lon="-4.871534965932369">
        <ele>424.07999999999998</ele>
        <time>2025-05-09T11:22:59Z</time>
      </trkpt>
      <trkpt lat="36.731243971735239" lon="-4.8714280128479">
        <ele>423.12</ele>
        <time>2025-05-09T11:23:00Z</time>
      </trkpt>
      <trkpt lat="36.731149004772305" lon="-4.871359029784799">
        <ele>422.16000000000003</ele>
        <time>2025-05-09T11:23:01Z</time>
      </trkpt>
      <trkpt lat="36.731057977303863" lon="-4.871291974559426">
        <ele>421.19</ele>
        <time>2025-05-09T11:23:02Z</time>
      </trkpt>
      <trkpt lat="36.730966027826071" lon="-4.871223997324705">
        <ele>420.23000000000002</ele>
        <time>2025-05-09T11:23:03Z</time>
      </trkpt>
      <trkpt lat="36.730880029499531" lon="-4.871142022311688">
        <ele>419.26999999999998</ele>
        <time>2025-05-09T11:23:04Z</time>
      </trkpt>
      <trkpt lat="36.730799982324243" lon="-4.871043032035232">
        <ele>418.79000000000002</ele>
        <time>2025-05-09T11:23:05Z</time>
      </trkpt>
      <trkpt lat="36.730726975947618" lon="-4.870953010395169">
        <ele>418.31</ele>
        <time>2025-05-09T11:23:06Z</time>
      </trkpt>
      <trkpt lat="36.730676013976336" lon="-4.870830969884992">
        <ele>417.82999999999998</ele>
        <time>2025-05-09T11:23:07Z</time>
      </trkpt>
      <trkpt lat="36.73062102869153" lon="-4.870701972395182">
        <ele>417.35000000000002</ele>
        <time>2025-05-09T11:23:08Z</time>
      </trkpt>
      <trkpt lat="36.730565959587693" lon="-4.870570963248611">
        <ele>416.38999999999999</ele>
        <time>2025-05-09T11:23:09Z</time>
      </trkpt>
      <trkpt lat="36.730508962646127" lon="-4.87043802626431">
        <ele>415.91000000000003</ele>
        <time>2025-05-09T11:23:10Z</time>
      </trkpt>
      <trkpt lat="36.730424975976348" lon="-4.870308022946119">
        <ele>414.94999999999999</ele>
        <time>2025-05-09T11:23:11Z</time>
      </trkpt>
      <trkpt lat="36.730094980448484" lon="-4.869867973029614">
        <ele>412.06</ele>
        <time>2025-05-09T11:23:15Z</time>
      </trkpt>
      <trkpt lat="36.73004200682044" lon="-4.869796978309751">
        <ele>411.10000000000002</ele>
        <time>2025-05-09T11:23:16Z</time>
      </trkpt>
      <trkpt lat="36.730045024305582" lon="-4.869680972769857">
        <ele>410.62</ele>
        <time>2025-05-09T11:23:17Z</time>
      </trkpt>
      <trkpt lat="36.730048041790724" lon="-4.869562033563852">
        <ele>409.66000000000003</ele>
        <time>2025-05-09T11:23:18Z</time>
      </trkpt>
      <trkpt lat="36.730051981285214" lon="-4.869437981396914">
        <ele>409.18000000000001</ele>
        <time>2025-05-09T11:23:19Z</time>
      </trkpt>
      <trkpt lat="36.730056004598737" lon="-4.869306972250342">
        <ele>408.22000000000003</ele>
        <time>2025-05-09T11:23:20Z</time>
      </trkpt>
      <trkpt lat="36.730059022083879" lon="-4.869174035266042">
        <ele>407.74000000000001</ele>
        <time>2025-05-09T11:23:21Z</time>
      </trkpt>
      <trkpt lat="36.730062961578369" lon="-4.869025005027652">
        <ele>407.25999999999999</ele>
        <time>2025-05-09T11:23:22Z</time>
      </trkpt>
      <trkpt lat="36.730008982121944" lon="-4.868916040286422">
        <ele>406.29000000000002</ele>
        <time>2025-05-09T11:23:23Z</time>
      </trkpt>
      <trkpt lat="36.729948967695236" lon="-4.868801962584257">
        <ele>405.81</ele>
        <time>2025-05-09T11:23:24Z</time>
      </trkpt>
      <trkpt lat="36.729866992682219" lon="-4.868706995621324">
        <ele>404.85000000000002</ele>
        <time>2025-05-09T11:23:25Z</time>
      </trkpt>
      <trkpt lat="36.729770014062524" lon="-4.868624014779925">
        <ele>404.37</ele>
        <time>2025-05-09T11:23:26Z</time>
      </trkpt>
      <trkpt lat="36.729656020179391" lon="-4.868553020060062">
        <ele>403.88999999999999</ele>
        <time>2025-05-09T11:23:27Z</time>
      </trkpt>
      <trkpt lat="36.729196021333337" lon="-4.868157980963588">
        <ele>401.49000000000001</ele>
        <time>2025-05-09T11:23:32Z</time>
      </trkpt>
      <trkpt lat="36.729141036048532" lon="-4.868081035092473">
        <ele>401.00999999999999</ele>
        <time>2025-05-09T11:23:33Z</time>
      </trkpt>
      <trkpt lat="36.729141036048532" lon="-4.867985984310508">
        <ele>401.00999999999999</ele>
        <time>2025-05-09T11:23:34Z</time>
      </trkpt>
      <trkpt lat="36.729141036048532" lon="-4.867887999862433">
        <ele>401.49000000000001</ele>
        <time>2025-05-09T11:23:35Z</time>
      </trkpt>
      <trkpt lat="36.729170037433505" lon="-4.867806024849415">
        <ele>401.97000000000003</ele>
        <time>2025-05-09T11:23:36Z</time>
      </trkpt>
      <trkpt lat="36.729205995798111" lon="-4.867706028744578">
        <ele>401.97000000000003</ele>
        <time>2025-05-09T11:23:37Z</time>
      </trkpt>
      <trkpt lat="36.729247989133" lon="-4.867587005719543">
        <ele>401.97000000000003</ele>
        <time>2025-05-09T11:23:38Z</time>
      </trkpt>
      <trkpt lat="36.729291994124651" lon="-4.867509976029396">
        <ele>401.49000000000001</ele>
        <time>2025-05-09T11:23:39Z</time>
      </trkpt>
      <trkpt lat="36.729578990489244" lon="-4.866950986906886">
        <ele>398.12</ele>
        <time>2025-05-09T11:23:44Z</time>
      </trkpt>
      <trkpt lat="36.729621989652514" lon="-4.866811009123921">
        <ele>397.16000000000003</ele>
        <time>2025-05-09T11:23:45Z</time>
      </trkpt>
      <trkpt lat="36.729628024622798" lon="-4.866675976663828">
        <ele>396.68000000000001</ele>
        <time>2025-05-09T11:23:46Z</time>
      </trkpt>
      <trkpt lat="36.729618972167373" lon="-4.866541028022766">
        <ele>395.72000000000003</ele>
        <time>2025-05-09T11:23:47Z</time>
      </trkpt>
      <trkpt lat="36.72961100935936" lon="-4.866413958370686">
        <ele>395.24000000000001</ele>
        <time>2025-05-09T11:23:48Z</time>
      </trkpt>
      <trkpt lat="36.729602962732315" lon="-4.866289990022779">
        <ele>394.27999999999997</ele>
        <time>2025-05-09T11:23:49Z</time>
      </trkpt>
      <trkpt lat="36.729478994384408" lon="-4.865456996485591">
        <ele>388.02999999999997</ele>
        <time>2025-05-09T11:23:57Z</time>
      </trkpt>
      <trkpt lat="36.729456027969718" lon="-4.865375021472573">
        <ele>387.55000000000001</ele>
        <time>2025-05-09T11:23:58Z</time>
      </trkpt>
      <trkpt lat="36.729432977735996" lon="-4.865293968468905">
        <ele>386.58999999999997</ele>
        <time>2025-05-09T11:23:59Z</time>
      </trkpt>
      <trkpt lat="36.729291994124651" lon="-4.865008983761072">
        <ele>382.74000000000001</ele>
        <time>2025-05-09T11:24:03Z</time>
      </trkpt>
      <trkpt lat="36.729256035760045" lon="-4.864941006526351">
        <ele>382.25999999999999</ele>
        <time>2025-05-09T11:24:04Z</time>
      </trkpt>
      <trkpt lat="36.729041961953044" lon="-4.86483396962285">
        <ele>379.86000000000001</ele>
        <time>2025-05-09T11:24:07Z</time>
      </trkpt>
      <trkpt lat="36.729012038558722" lon="-4.864757023751736">
        <ele>378.89999999999998</ele>
        <time>2025-05-09T11:24:08Z</time>
      </trkpt>
      <trkpt lat="36.729012038558722" lon="-4.864692986011505">
        <ele>378.89999999999998</ele>
        <time>2025-05-09T11:24:09Z</time>
      </trkpt>
      <trkpt lat="36.729012038558722" lon="-4.864689968526363">
        <ele>378.42000000000002</ele>
        <time>2025-05-09T11:24:10Z</time>
      </trkpt>
      <trkpt lat="36.729026036337018" lon="-4.864514032378793">
        <ele>377.94</ele>
        <time>2025-05-09T11:24:11Z</time>
      </trkpt>
      <trkpt lat="36.728983959183097" lon="-4.864438008517027">
        <ele>377.44999999999999</ele>
        <time>2025-05-09T11:24:12Z</time>
      </trkpt>
      <trkpt lat="36.728939032182097" lon="-4.864354021847248">
        <ele>377.44999999999999</ele>
        <time>2025-05-09T11:24:13Z</time>
      </trkpt>
      <trkpt lat="36.728891003876925" lon="-4.864266011863947">
        <ele>377.44999999999999</ele>
        <time>2025-05-09T11:24:14Z</time>
      </trkpt>
      <trkpt lat="36.728791007772088" lon="-4.864096026867628">
        <ele>377.44999999999999</ele>
        <time>2025-05-09T11:24:16Z</time>
      </trkpt>
      <trkpt lat="36.728576011955738" lon="-4.863814981654286">
        <ele>378.42000000000002</ele>
        <time>2025-05-09T11:24:20Z</time>
      </trkpt>
      <trkpt lat="36.728058010339737" lon="-4.863195978105068">
        <ele>379.38</ele>
        <time>2025-05-09T11:24:30Z</time>
      </trkpt>
      <trkpt lat="36.72748401761055" lon="-4.86248997040093">
        <ele>378.89999999999998</ele>
        <time>2025-05-09T11:24:41Z</time>
      </trkpt>
      <trkpt lat="36.727424003183842" lon="-4.862334989011288">
        <ele>378.89999999999998</ele>
        <time>2025-05-09T11:24:43Z</time>
      </trkpt>
      <trkpt lat="36.727273967117071" lon="-4.861943973228335">
        <ele>379.38</ele>
        <time>2025-05-09T11:24:48Z</time>
      </trkpt>
      <trkpt lat="36.727276984602213" lon="-4.861892005428672">
        <ele>378.89999999999998</ele>
        <time>2025-05-09T11:24:49Z</time>
      </trkpt>
      <trkpt lat="36.727281007915735" lon="-4.861827967688441">
        <ele>379.38</ele>
        <time>2025-05-09T11:24:50Z</time>
      </trkpt>
      <trkpt lat="36.727288970723748" lon="-4.861681032925844">
        <ele>379.86000000000001</ele>
        <time>2025-05-09T11:24:52Z</time>
      </trkpt>
      <trkpt lat="36.727295005694032" lon="-4.861579025164247">
        <ele>379.86000000000001</ele>
        <time>2025-05-09T11:24:53Z</time>
      </trkpt>
      <trkpt lat="36.727292994037271" lon="-4.861538037657738">
        <ele>380.33999999999997</ele>
        <time>2025-05-09T11:24:54Z</time>
      </trkpt>
      <trkpt lat="36.727282013744116" lon="-4.861294040456414">
        <ele>380.33999999999997</ele>
        <time>2025-05-09T11:24:57Z</time>
      </trkpt>
      <trkpt lat="36.727273967117071" lon="-4.861127994954586">
        <ele>380.81999999999999</ele>
        <time>2025-05-09T11:24:59Z</time>
      </trkpt>
      <trkpt lat="36.727362982928753" lon="-4.860282009467483">
        <ele>381.30000000000001</ele>
        <time>2025-05-09T11:25:08Z</time>
      </trkpt>
      <trkpt lat="36.72739801928401" lon="-4.860207997262478">
        <ele>381.30000000000001</ele>
        <time>2025-05-09T11:25:09Z</time>
      </trkpt>
      <trkpt lat="36.727434983476996" lon="-4.860129039734602">
        <ele>380.81999999999999</ele>
        <time>2025-05-09T11:25:10Z</time>
      </trkpt>
      <trkpt lat="36.727473037317395" lon="-4.860048992559314">
        <ele>380.33999999999997</ele>
        <time>2025-05-09T11:25:11Z</time>
      </trkpt>
      <trkpt lat="36.727510001510382" lon="-4.859969029203057">
        <ele>379.86000000000001</ele>
        <time>2025-05-09T11:25:12Z</time>
      </trkpt>
      <trkpt lat="36.727703036740422" lon="-4.85954700037837">
        <ele>377.94</ele>
        <time>2025-05-09T11:25:21Z</time>
      </trkpt>
      <trkpt lat="36.727713011205196" lon="-4.859519004821777">
        <ele>377.94</ele>
        <time>2025-05-09T11:25:29Z</time>
      </trkpt>
      <trkpt lat="36.727722985669971" lon="-4.859490003436804">
        <ele>377.94</ele>
        <time>2025-05-09T11:25:30Z</time>
      </trkpt>
      <trkpt lat="36.727855000644922" lon="-4.859126983210445">
        <ele>375.05000000000001</ele>
        <time>2025-05-09T11:25:39Z</time>
      </trkpt>
      <trkpt lat="36.727919038385153" lon="-4.85894400626421">
        <ele>374.08999999999997</ele>
        <time>2025-05-09T11:25:42Z</time>
      </trkpt>
      <trkpt lat="36.727962037548423" lon="-4.858820959925652">
        <ele>373.13</ele>
        <time>2025-05-09T11:25:44Z</time>
      </trkpt>
      <trkpt lat="36.728024985641241" lon="-4.858638988807797">
        <ele>372.17000000000002</ele>
        <time>2025-05-09T11:25:47Z</time>
      </trkpt>
      <trkpt lat="36.728035965934396" lon="-4.858573023229837">
        <ele>371.69</ele>
        <time>2025-05-09T11:25:48Z</time>
      </trkpt>
      <trkpt lat="36.728083994239569" lon="-4.85829901881516">
        <ele>370.24000000000001</ele>
        <time>2025-05-09T11:25:52Z</time>
      </trkpt>
      <trkpt lat="36.728110983967781" lon="-4.85808502882719">
        <ele>369.27999999999997</ele>
        <time>2025-05-09T11:25:55Z</time>
      </trkpt>
      <trkpt lat="36.728110983967781" lon="-4.858010010793805">
        <ele>369.27999999999997</ele>
        <time>2025-05-09T11:25:56Z</time>
      </trkpt>
      <trkpt lat="36.728110983967781" lon="-4.857940021902323">
        <ele>369.27999999999997</ele>
        <time>2025-05-09T11:25:57Z</time>
      </trkpt>
      <trkpt lat="36.728110983967781" lon="-4.85787196084857">
        <ele>369.27999999999997</ele>
        <time>2025-05-09T11:25:58Z</time>
      </trkpt>
      <trkpt lat="36.728110983967781" lon="-4.857801971957088">
        <ele>369.27999999999997</ele>
        <time>2025-05-09T11:25:59Z</time>
      </trkpt>
      <trkpt lat="36.728092962875962" lon="-4.857726031914353">
        <ele>369.27999999999997</ele>
        <time>2025-05-09T11:26:00Z</time>
      </trkpt>
      <trkpt lat="36.728075025603175" lon="-4.857650008052588">
        <ele>369.27999999999997</ele>
        <time>2025-05-09T11:26:01Z</time>
      </trkpt>
      <trkpt lat="36.728026997298002" lon="-4.857451021671295">
        <ele>368.80000000000001</ele>
        <time>2025-05-09T11:26:04Z</time>
      </trkpt>
      <trkpt lat="36.728014005348086" lon="-4.857395030558109">
        <ele>368.80000000000001</ele>
        <time>2025-05-09T11:26:05Z</time>
      </trkpt>
      <trkpt lat="36.72800101339817" lon="-4.857339961454272">
        <ele>368.80000000000001</ele>
        <time>2025-05-09T11:26:06Z</time>
      </trkpt>
      <trkpt lat="36.727988021448255" lon="-4.857284976169467">
        <ele>368.80000000000001</ele>
        <time>2025-05-09T11:26:07Z</time>
      </trkpt>
      <trkpt lat="36.727974023669958" lon="-4.857227979227901">
        <ele>368.80000000000001</ele>
        <time>2025-05-09T11:26:08Z</time>
      </trkpt>
      <trkpt lat="36.727961031720042" lon="-4.857172993943095">
        <ele>369.75999999999999</ele>
        <time>2025-05-09T11:26:09Z</time>
      </trkpt>
      <trkpt lat="36.727930018678308" lon="-4.857041984796524">
        <ele>368.80000000000001</ele>
        <time>2025-05-09T11:26:16Z</time>
      </trkpt>
      <trkpt lat="36.727909985929728" lon="-4.856957998126745">
        <ele>367.83999999999997</ele>
        <time>2025-05-09T11:26:20Z</time>
      </trkpt>
      <trkpt lat="36.727897999808192" lon="-4.856892032548785">
        <ele>367.36000000000001</ele>
        <time>2025-05-09T11:26:21Z</time>
      </trkpt>
      <trkpt lat="36.727985003963113" lon="-4.856631020084024">
        <ele>364.95999999999998</ele>
        <time>2025-05-09T11:26:26Z</time>
      </trkpt>
      <trkpt lat="36.727961031720042" lon="-4.856621967628598">
        <ele>365.44</ele>
        <time>2025-05-09T11:26:27Z</time>
      </trkpt>
      <trkpt lat="36.727961031720042" lon="-4.856605036184192">
        <ele>365.44</ele>
        <time>2025-05-09T11:26:28Z</time>
      </trkpt>
      <trkpt lat="36.727961031720042" lon="-4.856582991778851">
        <ele>365.44</ele>
        <time>2025-05-09T11:26:29Z</time>
      </trkpt>
      <trkpt lat="36.727961031720042" lon="-4.856578968465328">
        <ele>365.44</ele>
        <time>2025-05-09T11:26:30Z</time>
      </trkpt>
      <trkpt lat="36.727961031720042" lon="-4.856578968465328">
        <ele>364.48000000000002</ele>
        <time>2025-05-09T11:26:42Z</time>
      </trkpt>
      <trkpt lat="36.727961031720042" lon="-4.856621967628598">
        <ele>367.83999999999997</ele>
        <time>2025-05-09T11:26:58Z</time>
      </trkpt>
      <trkpt lat="36.72793697565794" lon="-4.856533035635948">
        <ele>369.75999999999999</ele>
        <time>2025-05-09T11:26:59Z</time>
      </trkpt>
      <trkpt lat="36.727961031720042" lon="-4.856578968465328">
        <ele>370.73000000000002</ele>
        <time>2025-05-09T11:27:00Z</time>
      </trkpt>
      <trkpt lat="36.727981986477971" lon="-4.85662498511374">
        <ele>369.75999999999999</ele>
        <time>2025-05-09T11:27:01Z</time>
      </trkpt>
      <trkpt lat="36.728008976206183" lon="-4.856681982055306">
        <ele>369.27999999999997</ele>
        <time>2025-05-09T11:27:02Z</time>
      </trkpt>
      <trkpt lat="36.728035965934396" lon="-4.856739984825254">
        <ele>367.36000000000001</ele>
        <time>2025-05-09T11:27:03Z</time>
      </trkpt>
      <trkpt lat="36.728144008666277" lon="-4.856965038925409">
        <ele>362.06999999999999</ele>
        <time>2025-05-09T11:27:07Z</time>
      </trkpt>
      <trkpt lat="36.728242998942733" lon="-4.857141980901361">
        <ele>358.23000000000002</ele>
        <time>2025-05-09T11:27:11Z</time>
      </trkpt>
      <trkpt lat="36.728268982842565" lon="-4.857187997549772">
        <ele>357.26999999999998</ele>
        <time>2025-05-09T11:27:12Z</time>
      </trkpt>
      <trkpt lat="36.728291027247906" lon="-4.857225967571139">
        <ele>356.79000000000002</ele>
        <time>2025-05-09T11:27:13Z</time>
      </trkpt>
      <trkpt lat="36.728309970349073" lon="-4.857259998098016">
        <ele>355.82999999999998</ele>
        <time>2025-05-09T11:27:14Z</time>
      </trkpt>
      <trkpt lat="36.728336960077286" lon="-4.857298973947763">
        <ele>354.86000000000001</ele>
        <time>2025-05-09T11:27:15Z</time>
      </trkpt>
      <trkpt lat="36.728369984775782" lon="-4.857329986989498">
        <ele>353.89999999999998</ele>
        <time>2025-05-09T11:27:16Z</time>
      </trkpt>
      <trkpt lat="36.728404015302658" lon="-4.857361000031233">
        <ele>352.94</ele>
        <time>2025-05-09T11:27:17Z</time>
      </trkpt>
      <trkpt lat="36.728443996980786" lon="-4.8573989700526">
        <ele>351.98000000000002</ele>
        <time>2025-05-09T11:27:18Z</time>
      </trkpt>
      <trkpt lat="36.728490013629198" lon="-4.85744196921587">
        <ele>351.01999999999998</ele>
        <time>2025-05-09T11:27:19Z</time>
      </trkpt>
      <trkpt lat="36.728581041097641" lon="-4.857526961714029">
        <ele>349.57999999999998</ele>
        <time>2025-05-09T11:27:21Z</time>
      </trkpt>
      <trkpt lat="36.72862202860415" lon="-4.857566021382809">
        <ele>349.10000000000002</ele>
        <time>2025-05-09T11:27:22Z</time>
      </trkpt>
      <trkpt lat="36.72866896726191" lon="-4.857609020546079">
        <ele>348.13</ele>
        <time>2025-05-09T11:27:23Z</time>
      </trkpt>
      <trkpt lat="36.728791007772088" lon="-4.857731983065605">
        <ele>344.76999999999998</ele>
        <time>2025-05-09T11:27:29Z</time>
      </trkpt>
      <trkpt lat="36.728828977793455" lon="-4.857770036906004">
        <ele>344.29000000000002</ele>
        <time>2025-05-09T11:27:30Z</time>
      </trkpt>
      <trkpt lat="36.728870971128345" lon="-4.857812030240893">
        <ele>343.32999999999998</ele>
        <time>2025-05-09T11:27:31Z</time>
      </trkpt>
      <trkpt lat="36.728973984718323" lon="-4.85791496001184">
        <ele>342.37</ele>
        <time>2025-05-09T11:27:33Z</time>
      </trkpt>
      <trkpt lat="36.729194009676576" lon="-4.858181001618505">
        <ele>340.92000000000002</ele>
        <time>2025-05-09T11:27:37Z</time>
      </trkpt>
      <trkpt lat="36.729240026324987" lon="-4.85825601965189">
        <ele>340.44</ele>
        <time>2025-05-09T11:27:38Z</time>
      </trkpt>
      <trkpt lat="36.729486035183072" lon="-4.858652986586094">
        <ele>338.51999999999998</ele>
        <time>2025-05-09T11:27:43Z</time>
      </trkpt>
      <trkpt lat="36.729726009070873" lon="-4.858958004042506">
        <ele>337.56</ele>
        <time>2025-05-09T11:27:47Z</time>
      </trkpt>
      <trkpt lat="36.729786023497581" lon="-4.859022041782737">
        <ele>337.07999999999998</ele>
        <time>2025-05-09T11:27:48Z</time>
      </trkpt>
      <trkpt lat="36.729908986017108" lon="-4.859109967947006">
        <ele>336.12</ele>
        <time>2025-05-09T11:27:50Z</time>
      </trkpt>
      <trkpt lat="36.729972017928958" lon="-4.859131006523967">
        <ele>335.63999999999999</ele>
        <time>2025-05-09T11:27:51Z</time>
      </trkpt>
      <trkpt lat="36.730028009042144" lon="-4.859150033444166">
        <ele>335.16000000000003</ele>
        <time>2025-05-09T11:27:52Z</time>
      </trkpt>
      <trkpt lat="36.730073019862175" lon="-4.859165037050843">
        <ele>334.68000000000001</ele>
        <time>2025-05-09T11:27:53Z</time>
      </trkpt>
      <trkpt lat="36.730105960741639" lon="-4.859176017343998">
        <ele>334.68000000000001</ele>
        <time>2025-05-09T11:27:54Z</time>
      </trkpt>
      <trkpt lat="36.730393040925264" lon="-4.859128994867206">
        <ele>331.79000000000002</ele>
        <time>2025-05-09T11:28:01Z</time>
      </trkpt>
      <trkpt lat="36.730412989854813" lon="-4.859119020402432">
        <ele>331.31</ele>
        <time>2025-05-09T11:28:02Z</time>
      </trkpt>
      <trkpt lat="36.73042899928987" lon="-4.859110973775387">
        <ele>331.31</ele>
        <time>2025-05-09T11:28:03Z</time>
      </trkpt>
      <trkpt lat="36.730444002896547" lon="-4.859104016795754">
        <ele>330.82999999999998</ele>
        <time>2025-05-09T11:28:04Z</time>
      </trkpt>
      <trkpt lat="36.730555985122919" lon="-4.859035033732653">
        <ele>330.82999999999998</ele>
        <time>2025-05-09T11:28:05Z</time>
      </trkpt>
      <trkpt lat="36.730552967637777" lon="-4.858998991549015">
        <ele>330.35000000000002</ele>
        <time>2025-05-09T11:28:06Z</time>
      </trkpt>
      <trkpt lat="36.730551039800048" lon="-4.8589669726789">
        <ele>330.35000000000002</ele>
        <time>2025-05-09T11:28:07Z</time>
      </trkpt>
      <trkpt lat="36.730551039800048" lon="-4.8589669726789">
        <ele>330.35000000000002</ele>
        <time>2025-05-09T11:28:17Z</time>
      </trkpt>
      <trkpt lat="36.730551039800048" lon="-4.8589669726789">
        <ele>330.35000000000002</ele>
        <time>2025-05-09T11:29:04Z</time>
      </trkpt>
      <trkpt lat="36.730551039800048" lon="-4.8589669726789">
        <ele>331.31</ele>
        <time>2025-05-09T11:29:53Z</time>
      </trkpt>
      <trkpt lat="36.730551039800048" lon="-4.8589669726789">
        <ele>331.31</ele>
        <time>2025-05-09T11:30:40Z</time>
      </trkpt>
      <trkpt lat="36.730551039800048" lon="-4.8589669726789">
        <ele>332.75</ele>
        <time>2025-05-09T11:31:33Z</time>
      </trkpt>
      <trkpt lat="36.730551039800048" lon="-4.8589669726789">
        <ele>333.23000000000002</ele>
        <time>2025-05-09T11:32:14Z</time>
      </trkpt>
      <trkpt lat="36.730551039800048" lon="-4.8589669726789">
        <ele>334.19999999999999</ele>
        <time>2025-05-09T11:32:59Z</time>
      </trkpt>
      <trkpt lat="36.730551039800048" lon="-4.8589669726789">
        <ele>335.16000000000003</ele>
        <time>2025-05-09T11:33:40Z</time>
      </trkpt>
      <trkpt lat="36.7305379640311" lon="-4.858720963820815">
        <ele>335.16000000000003</ele>
        <time>2025-05-09T11:33:46Z</time>
      </trkpt>
      <trkpt lat="36.730550033971667" lon="-4.858498005196452">
        <ele>334.19999999999999</ele>
        <time>2025-05-09T11:33:48Z</time>
      </trkpt>
      <trkpt lat="36.730555985122919" lon="-4.858371019363403">
        <ele>333.70999999999998</ele>
        <time>2025-05-09T11:33:49Z</time>
      </trkpt>
      <trkpt lat="36.730532012879848" lon="-4.858234981074929">
        <ele>333.70999999999998</ele>
        <time>2025-05-09T11:33:50Z</time>
      </trkpt>
      <trkpt lat="36.730368984863162" lon="-4.857055982574821">
        <ele>333.23000000000002</ele>
        <time>2025-05-09T11:33:57Z</time>
      </trkpt>
      <trkpt lat="36.73025700263679" lon="-4.856493975967169">
        <ele>333.70999999999998</ele>
        <time>2025-05-09T11:34:00Z</time>
      </trkpt>
      <trkpt lat="36.730267982929945" lon="-4.856362966820598">
        <ele>333.70999999999998</ele>
        <time>2025-05-09T11:34:01Z</time>
      </trkpt>
      <trkpt lat="36.73030000180006" lon="-4.85621795989573">
        <ele>333.70999999999998</ele>
        <time>2025-05-09T11:34:02Z</time>
      </trkpt>
      <trkpt lat="36.730370996519923" lon="-4.856092985719442">
        <ele>333.70999999999998</ele>
        <time>2025-05-09T11:34:03Z</time>
      </trkpt>
      <trkpt lat="36.73044802621007" lon="-4.855955019593239">
        <ele>333.70999999999998</ele>
        <time>2025-05-09T11:34:04Z</time>
      </trkpt>
      <trkpt lat="36.730551961809397" lon="-4.85582803376019">
        <ele>334.19999999999999</ele>
        <time>2025-05-09T11:34:05Z</time>
      </trkpt>
      <trkpt lat="36.730669979006052" lon="-4.855702975764871">
        <ele>334.19999999999999</ele>
        <time>2025-05-09T11:34:06Z</time>
      </trkpt>
      <trkpt lat="36.730785984545946" lon="-4.855578001588583">
        <ele>333.70999999999998</ele>
        <time>2025-05-09T11:34:07Z</time>
      </trkpt>
      <trkpt lat="36.730833007022738" lon="-4.855413967743516">
        <ele>333.70999999999998</ele>
        <time>2025-05-09T11:34:08Z</time>
      </trkpt>
      <trkpt lat="36.730876006186008" lon="-4.855245994403958">
        <ele>334.19999999999999</ele>
        <time>2025-05-09T11:34:09Z</time>
      </trkpt>
      <trkpt lat="36.73092101700604" lon="-4.855071986094117">
        <ele>334.68000000000001</ele>
        <time>2025-05-09T11:34:10Z</time>
      </trkpt>
      <trkpt lat="36.731005003675818" lon="-4.854740984737873">
        <ele>336.12</ele>
        <time>2025-05-09T11:34:12Z</time>
      </trkpt>
      <trkpt lat="36.73107298091054" lon="-4.854591032490134">
        <ele>337.07999999999998</ele>
        <time>2025-05-09T11:34:13Z</time>
      </trkpt>
      <trkpt lat="36.731169037520885" lon="-4.854465974494815">
        <ele>337.56</ele>
        <time>2025-05-09T11:34:14Z</time>
      </trkpt>
      <trkpt lat="36.731282025575638" lon="-4.854335971176624">
        <ele>338.51999999999998</ele>
        <time>2025-05-09T11:34:15Z</time>
      </trkpt>
      <trkpt lat="36.731415968388319" lon="-4.854222983121872">
        <ele>339.48000000000002</ele>
        <time>2025-05-09T11:34:16Z</time>
      </trkpt>
      <trkpt lat="36.732368990778923" lon="-4.853494009003043">
        <ele>345.25</ele>
        <time>2025-05-09T11:34:22Z</time>
      </trkpt>
      <trkpt lat="36.732491031289101" lon="-4.853332992643118">
        <ele>345.73000000000002</ele>
        <time>2025-05-09T11:34:23Z</time>
      </trkpt>
      <trkpt lat="36.732603013515472" lon="-4.85316401347518">
        <ele>346.69</ele>
        <time>2025-05-09T11:34:24Z</time>
      </trkpt>
      <trkpt lat="36.733031999319792" lon="-4.852458005771041">
        <ele>349.10000000000002</ele>
        <time>2025-05-09T11:34:28Z</time>
      </trkpt>
      <trkpt lat="36.733099976554513" lon="-4.852281985804439">
        <ele>349.57999999999998</ele>
        <time>2025-05-09T11:34:29Z</time>
      </trkpt>
      <trkpt lat="36.733271973207593" lon="-4.851832967251539">
        <ele>350.06</ele>
        <time>2025-05-09T11:34:32Z</time>
      </trkpt>
      <trkpt lat="36.733657959848642" lon="-4.850907018408179">
        <ele>348.62</ele>
        <time>2025-05-09T11:34:37Z</time>
      </trkpt>
      <trkpt lat="36.733775977045298" lon="-4.850249961018562">
        <ele>346.69</ele>
        <time>2025-05-09T11:34:40Z</time>
      </trkpt>
      <trkpt lat="36.733775977045298" lon="-4.850056003779173">
        <ele>346.20999999999998</ele>
        <time>2025-05-09T11:34:41Z</time>
      </trkpt>
      <trkpt lat="36.733788968995214" lon="-4.84970698133111">
        <ele>345.73000000000002</ele>
        <time>2025-05-09T11:34:43Z</time>
      </trkpt>
      <trkpt lat="36.733830962330103" lon="-4.849545964971185">
        <ele>345.73000000000002</ele>
        <time>2025-05-09T11:34:44Z</time>
      </trkpt>
      <trkpt lat="36.733899023383856" lon="-4.849382014945149">
        <ele>345.25</ele>
        <time>2025-05-09T11:34:45Z</time>
      </trkpt>
      <trkpt lat="36.734716007485986" lon="-4.848386999219656">
        <ele>344.76999999999998</ele>
        <time>2025-05-09T11:34:51Z</time>
      </trkpt>
      <trkpt lat="36.734836036339402" lon="-4.848190024495125">
        <ele>344.76999999999998</ele>
        <time>2025-05-09T11:34:52Z</time>
      </trkpt>
      <trkpt lat="36.734955981373787" lon="-4.847991038113833">
        <ele>344.76999999999998</ele>
        <time>2025-05-09T11:34:53Z</time>
      </trkpt>
      <trkpt lat="36.73519897274673" lon="-4.847588036209345">
        <ele>345.25</ele>
        <time>2025-05-09T11:34:55Z</time>
      </trkpt>
      <trkpt lat="36.735561992973089" lon="-4.846975989639759">
        <ele>346.69</ele>
        <time>2025-05-09T11:34:58Z</time>
      </trkpt>
      <trkpt lat="36.73567003570497" lon="-4.84678303822875">
        <ele>347.17000000000002</ele>
        <time>2025-05-09T11:34:59Z</time>
      </trkpt>
      <trkpt lat="36.735765002667904" lon="-4.846593020483851">
        <ele>348.13</ele>
        <time>2025-05-09T11:35:00Z</time>
      </trkpt>
      <trkpt lat="36.735869022086263" lon="-4.846405014395714">
        <ele>348.62</ele>
        <time>2025-05-09T11:35:01Z</time>
      </trkpt>
      <trkpt lat="36.735995002090931" lon="-4.846232011914253">
        <ele>349.10000000000002</ele>
        <time>2025-05-09T11:35:02Z</time>
      </trkpt>
      <trkpt lat="36.736144032329321" lon="-4.846068983897567">
        <ele>350.06</ele>
        <time>2025-05-09T11:35:03Z</time>
      </trkpt>
      <trkpt lat="36.736298007890582" lon="-4.845905033871532">
        <ele>350.06</ele>
        <time>2025-05-09T11:35:04Z</time>
      </trkpt>
      <trkpt lat="36.736903013661504" lon="-4.845317965373397">
        <ele>350.54000000000002</ele>
        <time>2025-05-09T11:35:08Z</time>
      </trkpt>
      <trkpt lat="36.737060006707907" lon="-4.84521503560245">
        <ele>350.54000000000002</ele>
        <time>2025-05-09T11:35:09Z</time>
      </trkpt>
      <trkpt lat="36.737252036109567" lon="-4.845100035890937">
        <ele>351.01999999999998</ele>
        <time>2025-05-09T11:35:10Z</time>
      </trkpt>
      <trkpt lat="36.73811998218298" lon="-4.844799041748047">
        <ele>354.38</ele>
        <time>2025-05-09T11:35:15Z</time>
      </trkpt>
      <trkpt lat="36.738277981057763" lon="-4.844799041748047">
        <ele>354.86000000000001</ele>
        <time>2025-05-09T11:35:16Z</time>
      </trkpt>
      <trkpt lat="36.738433968275785" lon="-4.844846986234188">
        <ele>355.82999999999998</ele>
        <time>2025-05-09T11:35:17Z</time>
      </trkpt>
      <trkpt lat="36.738587021827698" lon="-4.844930972903967">
        <ele>356.31</ele>
        <time>2025-05-09T11:35:18Z</time>
      </trkpt>
      <trkpt lat="36.738736974075437" lon="-4.84502300620079">
        <ele>357.26999999999998</ele>
        <time>2025-05-09T11:35:19Z</time>
      </trkpt>
      <trkpt lat="36.738861026242375" lon="-4.845100035890937">
        <ele>358.23000000000002</ele>
        <time>2025-05-09T11:35:20Z</time>
      </trkpt>
      <trkpt lat="36.739032017067075" lon="-4.845118978992105">
        <ele>358.23000000000002</ele>
        <time>2025-05-09T11:35:21Z</time>
      </trkpt>
      <trkpt lat="36.73915003426373" lon="-4.845057958737016">
        <ele>358.70999999999998</ele>
        <time>2025-05-09T11:35:22Z</time>
      </trkpt>
      <trkpt lat="36.739275008440018" lon="-4.844976989552379">
        <ele>359.19</ele>
        <time>2025-05-09T11:35:23Z</time>
      </trkpt>
      <trkpt lat="36.739406017586589" lon="-4.844890991225839">
        <ele>359.67000000000002</ele>
        <time>2025-05-09T11:35:24Z</time>
      </trkpt>
      <trkpt lat="36.739550018683076" lon="-4.844797030091286">
        <ele>360.14999999999998</ele>
        <time>2025-05-09T11:35:25Z</time>
      </trkpt>
      <trkpt lat="36.739714974537492" lon="-4.844715977087617">
        <ele>360.63</ele>
        <time>2025-05-09T11:35:26Z</time>
      </trkpt>
      <trkpt lat="36.739888982847333" lon="-4.844649005681276">
        <ele>361.58999999999997</ele>
        <time>2025-05-09T11:35:27Z</time>
      </trkpt>
      <trkpt lat="36.740369014441967" lon="-4.844501987099648">
        <ele>363.51999999999998</ele>
        <time>2025-05-09T11:35:30Z</time>
      </trkpt>
      <trkpt lat="36.740520978346467" lon="-4.844519002363086">
        <ele>364.48000000000002</ele>
        <time>2025-05-09T11:35:31Z</time>
      </trkpt>
      <trkpt lat="36.740670008584857" lon="-4.84459200873971">
        <ele>365.44</ele>
        <time>2025-05-09T11:35:32Z</time>
      </trkpt>
      <trkpt lat="36.740830019116402" lon="-4.84467800706625">
        <ele>366.39999999999998</ele>
        <time>2025-05-09T11:35:33Z</time>
      </trkpt>
      <trkpt lat="36.740997992455959" lon="-4.844767022877932">
        <ele>367.36000000000001</ele>
        <time>2025-05-09T11:35:34Z</time>
      </trkpt>
      <trkpt lat="36.741162026301026" lon="-4.844854027032852">
        <ele>367.83999999999997</ele>
        <time>2025-05-09T11:35:35Z</time>
      </trkpt>
      <trkpt lat="36.741329999640584" lon="-4.844881016761065">
        <ele>368.80000000000001</ele>
        <time>2025-05-09T11:35:36Z</time>
      </trkpt>
      <trkpt lat="36.74149202182889" lon="-4.844899959862232">
        <ele>369.27999999999997</ele>
        <time>2025-05-09T11:35:37Z</time>
      </trkpt>
      <trkpt lat="36.741629987955093" lon="-4.844949999824166">
        <ele>370.24000000000001</ele>
        <time>2025-05-09T11:35:38Z</time>
      </trkpt>
      <trkpt lat="36.741752028465271" lon="-4.845010014250875">
        <ele>370.73000000000002</ele>
        <time>2025-05-09T11:35:39Z</time>
      </trkpt>
      <trkpt lat="36.741867028176785" lon="-4.845073968172073">
        <ele>371.69</ele>
        <time>2025-05-09T11:35:40Z</time>
      </trkpt>
      <trkpt lat="36.742540011182427" lon="-4.845532961189747">
        <ele>375.05000000000001</ele>
        <time>2025-05-09T11:35:46Z</time>
      </trkpt>
      <trkpt lat="36.742655010893941" lon="-4.845564980059862">
        <ele>375.52999999999997</ele>
        <time>2025-05-09T11:35:47Z</time>
      </trkpt>
      <trkpt lat="36.742760958150029" lon="-4.845553999766707">
        <ele>376.00999999999999</ele>
        <time>2025-05-09T11:35:48Z</time>
      </trkpt>
      <trkpt lat="36.742857014760375" lon="-4.845532961189747">
        <ele>376.00999999999999</ele>
        <time>2025-05-09T11:35:49Z</time>
      </trkpt>
      <trkpt lat="36.742923986166716" lon="-4.845465989783406">
        <ele>376.00999999999999</ele>
        <time>2025-05-09T11:35:50Z</time>
      </trkpt>
      <trkpt lat="36.742991963401437" lon="-4.845384014770389">
        <ele>376.49000000000001</ele>
        <time>2025-05-09T11:35:51Z</time>
      </trkpt>
      <trkpt lat="36.743066981434822" lon="-4.845292987301946">
        <ele>376.49000000000001</ele>
        <time>2025-05-09T11:35:52Z</time>
      </trkpt>
      <trkpt lat="36.743079973384738" lon="-4.84517396427691">
        <ele>376.97000000000003</ele>
        <time>2025-05-09T11:35:53Z</time>
      </trkpt>
      <trkpt lat="36.743054995313287" lon="-4.845043960958719">
        <ele>377.44999999999999</ele>
        <time>2025-05-09T11:35:54Z</time>
      </trkpt>
      <trkpt lat="36.742987018078566" lon="-4.844928961247206">
        <ele>377.94</ele>
        <time>2025-05-09T11:35:55Z</time>
      </trkpt>
      <trkpt lat="36.742905965074897" lon="-4.844794012606144">
        <ele>378.42000000000002</ele>
        <time>2025-05-09T11:35:56Z</time>
      </trkpt>
      <trkpt lat="36.742816027253866" lon="-4.844641964882612">
        <ele>379.38</ele>
        <time>2025-05-09T11:35:57Z</time>
      </trkpt>
      <trkpt lat="36.742542022839189" lon="-4.844181966036558">
        <ele>381.77999999999997</ele>
        <time>2025-05-09T11:36:00Z</time>
      </trkpt>
      <trkpt lat="36.742484020069242" lon="-4.844051962718368">
        <ele>382.74000000000001</ele>
        <time>2025-05-09T11:36:01Z</time>
      </trkpt>
      <trkpt lat="36.742469016462564" lon="-4.843907961621881">
        <ele>383.69999999999999</ele>
        <time>2025-05-09T11:36:02Z</time>
      </trkpt>
      <trkpt lat="36.74250103533268" lon="-4.843794973567128">
        <ele>384.18000000000001</ele>
        <time>2025-05-09T11:36:03Z</time>
      </trkpt>
      <trkpt lat="36.742555014789104" lon="-4.84369195997715">
        <ele>384.66000000000003</ele>
        <time>2025-05-09T11:36:04Z</time>
      </trkpt>
      <trkpt lat="36.74263397231698" lon="-4.843584001064301">
        <ele>385.14999999999998</ele>
        <time>2025-05-09T11:36:05Z</time>
      </trkpt>
      <trkpt lat="36.742727011442184" lon="-4.84347403049469">
        <ele>385.14999999999998</ele>
        <time>2025-05-09T11:36:06Z</time>
      </trkpt>
      <trkpt lat="36.742853997275233" lon="-4.843389037996531">
        <ele>385.63</ele>
        <time>2025-05-09T11:36:07Z</time>
      </trkpt>
      <trkpt lat="36.743895029649138" lon="-4.842612035572529">
        <ele>388.02999999999997</ele>
        <time>2025-05-09T11:36:14Z</time>
      </trkpt>
      <trkpt lat="36.744032995775342" lon="-4.842517990618944">
        <ele>388.50999999999999</ele>
        <time>2025-05-09T11:36:15Z</time>
      </trkpt>
      <trkpt lat="36.744188982993364" lon="-4.842468034476042">
        <ele>389.47000000000003</ele>
        <time>2025-05-09T11:36:16Z</time>
      </trkpt>
      <trkpt lat="36.744646970182657" lon="-4.842311963438988">
        <ele>391.38999999999999</ele>
        <time>2025-05-09T11:36:19Z</time>
      </trkpt>
      <trkpt lat="36.745861005038023" lon="-4.841661024838686">
        <ele>392.83999999999997</ele>
        <time>2025-05-09T11:36:27Z</time>
      </trkpt>
      <trkpt lat="36.747144022956491" lon="-4.841087032109499">
        <ele>389.47000000000003</ele>
        <time>2025-05-09T11:36:35Z</time>
      </trkpt>
      <trkpt lat="36.747271008789539" lon="-4.840955017134547">
        <ele>388.99000000000001</ele>
        <time>2025-05-09T11:36:36Z</time>
      </trkpt>
      <trkpt lat="36.747383996844292" lon="-4.840839011594653">
        <ele>388.02999999999997</ele>
        <time>2025-05-09T11:36:37Z</time>
      </trkpt>
      <trkpt lat="36.748179020360112" lon="-4.839926976710558">
        <ele>389.47000000000003</ele>
        <time>2025-05-09T11:36:45Z</time>
      </trkpt>
      <trkpt lat="36.74828102812171" lon="-4.839798985049129">
        <ele>390.43000000000001</ele>
        <time>2025-05-09T11:36:46Z</time>
      </trkpt>
      <trkpt lat="36.74839099869132" lon="-4.839743999764323">
        <ele>390.43000000000001</ele>
        <time>2025-05-09T11:36:47Z</time>
      </trkpt>
      <trkpt lat="36.748509015887976" lon="-4.839722961187363">
        <ele>390.91000000000003</ele>
        <time>2025-05-09T11:36:48Z</time>
      </trkpt>
      <trkpt lat="36.748614963144064" lon="-4.839740982279182">
        <ele>390.91000000000003</ele>
        <time>2025-05-09T11:36:49Z</time>
      </trkpt>
      <trkpt lat="36.748710013926029" lon="-4.839756991714239">
        <ele>390.91000000000003</ele>
        <time>2025-05-09T11:36:50Z</time>
      </trkpt>
      <trkpt lat="36.748767010867596" lon="-4.83984399586916">
        <ele>390.91000000000003</ele>
        <time>2025-05-09T11:36:51Z</time>
      </trkpt>
      <trkpt lat="36.748830964788795" lon="-4.839941980317235">
        <ele>390.91000000000003</ele>
        <time>2025-05-09T11:36:52Z</time>
      </trkpt>
      <trkpt lat="36.74890698865056" lon="-4.84005999751389">
        <ele>390.43000000000001</ele>
        <time>2025-05-09T11:36:53Z</time>
      </trkpt>
      <trkpt lat="36.748985024169087" lon="-4.840179020538926">
        <ele>389.47000000000003</ele>
        <time>2025-05-09T11:36:54Z</time>
      </trkpt>
      <trkpt lat="36.749085020273924" lon="-4.840268036350608">
        <ele>388.50999999999999</ele>
        <time>2025-05-09T11:36:55Z</time>
      </trkpt>
      <trkpt lat="36.749301021918654" lon="-4.840455036610365">
        <ele>386.58999999999997</ele>
        <time>2025-05-09T11:36:57Z</time>
      </trkpt>
      <trkpt lat="36.74940001219511" lon="-4.840554026886821">
        <ele>385.14999999999998</ele>
        <time>2025-05-09T11:36:58Z</time>
      </trkpt>
      <trkpt lat="36.749492967501283" lon="-4.840645976364613">
        <ele>384.18000000000001</ele>
        <time>2025-05-09T11:36:59Z</time>
      </trkpt>
      <trkpt lat="36.749576032161713" lon="-4.840729963034391">
        <ele>382.74000000000001</ele>
        <time>2025-05-09T11:37:00Z</time>
      </trkpt>
      <trkpt lat="36.749667981639504" lon="-4.840769022703171">
        <ele>381.77999999999997</ele>
        <time>2025-05-09T11:37:01Z</time>
      </trkpt>
      <trkpt lat="36.74976403824985" lon="-4.840774973854423">
        <ele>380.81999999999999</ele>
        <time>2025-05-09T11:37:02Z</time>
      </trkpt>
      <trkpt lat="36.749866968020797" lon="-4.840782014653087">
        <ele>380.33999999999997</ele>
        <time>2025-05-09T11:37:03Z</time>
      </trkpt>
      <trkpt lat="36.749974004924297" lon="-4.840804981067777">
        <ele>379.38</ele>
        <time>2025-05-09T11:37:04Z</time>
      </trkpt>
      <trkpt lat="36.750080035999417" lon="-4.84085300937295">
        <ele>378.89999999999998</ele>
        <time>2025-05-09T11:37:05Z</time>
      </trkpt>
      <trkpt lat="36.750191012397408" lon="-4.840902965515852">
        <ele>377.94</ele>
        <time>2025-05-09T11:37:06Z</time>
      </trkpt>
      <trkpt lat="36.750300982967019" lon="-4.840954011306167">
        <ele>376.97000000000003</ele>
        <time>2025-05-09T11:37:07Z</time>
      </trkpt>
      <trkpt lat="36.75040801987052" lon="-4.841000027954578">
        <ele>376.49000000000001</ele>
        <time>2025-05-09T11:37:08Z</time>
      </trkpt>
      <trkpt lat="36.750515978783369" lon="-4.840963985770941">
        <ele>375.52999999999997</ele>
        <time>2025-05-09T11:37:09Z</time>
      </trkpt>
      <trkpt lat="36.750622009858489" lon="-4.840915035456419">
        <ele>374.56999999999999</ele>
        <time>2025-05-09T11:37:10Z</time>
      </trkpt>
      <trkpt lat="36.750721000134945" lon="-4.840823002159596">
        <ele>373.61000000000001</ele>
        <time>2025-05-09T11:37:11Z</time>
      </trkpt>
      <trkpt lat="36.75081797875464" lon="-4.840731974691153">
        <ele>373.13</ele>
        <time>2025-05-09T11:37:12Z</time>
      </trkpt>
      <trkpt lat="36.751015959307551" lon="-4.840587973594666">
        <ele>372.17000000000002</ele>
        <time>2025-05-09T11:37:14Z</time>
      </trkpt>
      <trkpt lat="36.751113021746278" lon="-4.840528964996338">
        <ele>372.17000000000002</ele>
        <time>2025-05-09T11:37:15Z</time>
      </trkpt>
      <trkpt lat="36.751231960952282" lon="-4.840542040765286">
        <ele>372.17000000000002</ele>
        <time>2025-05-09T11:37:16Z</time>
      </trkpt>
      <trkpt lat="36.751328017562628" lon="-4.840570036321878">
        <ele>372.17000000000002</ele>
        <time>2025-05-09T11:37:17Z</time>
      </trkpt>
      <trkpt lat="36.751414015889168" lon="-4.840645976364613">
        <ele>371.69</ele>
        <time>2025-05-09T11:37:18Z</time>
      </trkpt>
      <trkpt lat="36.751502025872469" lon="-4.840728035196662">
        <ele>371.20999999999998</ele>
        <time>2025-05-09T11:37:19Z</time>
      </trkpt>
      <trkpt lat="36.751562040299177" lon="-4.840856026858091">
        <ele>371.20999999999998</ele>
        <time>2025-05-09T11:37:20Z</time>
      </trkpt>
      <trkpt lat="36.751619959250093" lon="-4.840981001034379">
        <ele>370.24000000000001</ele>
        <time>2025-05-09T11:37:21Z</time>
      </trkpt>
      <trkpt lat="36.751681985333562" lon="-4.841098012402654">
        <ele>369.75999999999999</ele>
        <time>2025-05-09T11:37:22Z</time>
      </trkpt>
      <trkpt lat="36.751743005588651" lon="-4.841200020164251">
        <ele>368.80000000000001</ele>
        <time>2025-05-09T11:37:23Z</time>
      </trkpt>
      <trkpt lat="36.751825986430049" lon="-4.841269003227353">
        <ele>367.83999999999997</ele>
        <time>2025-05-09T11:37:24Z</time>
      </trkpt>
      <trkpt lat="36.751922965049744" lon="-4.841291969642043">
        <ele>367.36000000000001</ele>
        <time>2025-05-09T11:37:25Z</time>
      </trkpt>
      <trkpt lat="36.752028996124864" lon="-4.841316025704145">
        <ele>367.36000000000001</ele>
        <time>2025-05-09T11:37:26Z</time>
      </trkpt>
      <trkpt lat="36.752138966694474" lon="-4.841291969642043">
        <ele>367.36000000000001</ele>
        <time>2025-05-09T11:37:27Z</time>
      </trkpt>
      <trkpt lat="36.752252038568258" lon="-4.841247964650393">
        <ele>367.36000000000001</ele>
        <time>2025-05-09T11:37:28Z</time>
      </trkpt>
      <trkpt lat="36.75236402079463" lon="-4.841185016557574">
        <ele>367.36000000000001</ele>
        <time>2025-05-09T11:37:29Z</time>
      </trkpt>
      <trkpt lat="36.752455970272422" lon="-4.841080997139216">
        <ele>367.36000000000001</ele>
        <time>2025-05-09T11:37:30Z</time>
      </trkpt>
      <trkpt lat="36.752546997740865" lon="-4.840978989377618">
        <ele>366.88</ele>
        <time>2025-05-09T11:37:31Z</time>
      </trkpt>
      <trkpt lat="36.752636013552547" lon="-4.840878993272781">
        <ele>366.88</ele>
        <time>2025-05-09T11:37:32Z</time>
      </trkpt>
      <trkpt lat="36.752695022150874" lon="-4.840751001611352">
        <ele>366.88</ele>
        <time>2025-05-09T11:37:33Z</time>
      </trkpt>
      <trkpt lat="36.752725029364228" lon="-4.840603983029723">
        <ele>367.36000000000001</ele>
        <time>2025-05-09T11:37:34Z</time>
      </trkpt>
      <trkpt lat="36.752753024920821" lon="-4.840462999418378">
        <ele>367.83999999999997</ele>
        <time>2025-05-09T11:37:35Z</time>
      </trkpt>
      <trkpt lat="36.752779008820653" lon="-4.840332996100187">
        <ele>368.31999999999999</ele>
        <time>2025-05-09T11:37:36Z</time>
      </trkpt>
      <trkpt lat="36.752824019640684" lon="-4.840225959196687">
        <ele>368.31999999999999</ele>
        <time>2025-05-09T11:37:37Z</time>
      </trkpt>
      <trkpt lat="36.752884034067392" lon="-4.840118000283837">
        <ele>368.31999999999999</ele>
        <time>2025-05-09T11:37:38Z</time>
      </trkpt>
      <trkpt lat="36.752971960231662" lon="-4.840032001957297">
        <ele>367.83999999999997</ele>
        <time>2025-05-09T11:37:39Z</time>
      </trkpt>
      <trkpt lat="36.753076985478401" lon="-4.839946003630757">
        <ele>367.36000000000001</ele>
        <time>2025-05-09T11:37:40Z</time>
      </trkpt>
      <trkpt lat="36.75320397131145" lon="-4.839896969497204">
        <ele>366.88</ele>
        <time>2025-05-09T11:37:41Z</time>
      </trkpt>
      <trkpt lat="36.753345038741827" lon="-4.839841984212399">
        <ele>366.88</ele>
        <time>2025-05-09T11:37:42Z</time>
      </trkpt>
      <trkpt lat="36.753468001261353" lon="-4.839804014191032">
        <ele>366.39999999999998</ele>
        <time>2025-05-09T11:37:43Z</time>
      </trkpt>
      <trkpt lat="36.753874020650983" lon="-4.839645009487867">
        <ele>365.44</ele>
        <time>2025-05-09T11:37:46Z</time>
      </trkpt>
      <trkpt lat="36.754119023680687" lon="-4.839506037533283">
        <ele>364.95999999999998</ele>
        <time>2025-05-09T11:37:48Z</time>
      </trkpt>
      <trkpt lat="36.75434198230505" lon="-4.839379973709583">
        <ele>365.44</ele>
        <time>2025-05-09T11:37:50Z</time>
      </trkpt>
      <trkpt lat="36.754441978409886" lon="-4.839304033666849">
        <ele>364.95999999999998</ele>
        <time>2025-05-09T11:37:51Z</time>
      </trkpt>
      <trkpt lat="36.754539962857962" lon="-4.839204959571362">
        <ele>364.95999999999998</ele>
        <time>2025-05-09T11:37:52Z</time>
      </trkpt>
      <trkpt lat="36.754625039175153" lon="-4.839067999273539">
        <ele>364.95999999999998</ele>
        <time>2025-05-09T11:37:53Z</time>
      </trkpt>
      <trkpt lat="36.754717994481325" lon="-4.838891979306936">
        <ele>364.95999999999998</ele>
        <time>2025-05-09T11:37:54Z</time>
      </trkpt>
      <trkpt lat="36.754825031384826" lon="-4.83868402428925">
        <ele>364.48000000000002</ele>
        <time>2025-05-09T11:37:55Z</time>
      </trkpt>
      <trkpt lat="36.755334986373782" lon="-4.837682973593473">
        <ele>365.44</ele>
        <time>2025-05-09T11:38:00Z</time>
      </trkpt>
      <trkpt lat="36.755432970821857" lon="-4.837608961388469">
        <ele>365.92000000000002</ele>
        <time>2025-05-09T11:38:01Z</time>
      </trkpt>
      <trkpt lat="36.755533972755075" lon="-4.837575014680624">
        <ele>366.88</ele>
        <time>2025-05-09T11:38:02Z</time>
      </trkpt>
      <trkpt lat="36.755634974688292" lon="-4.837603010237217">
        <ele>367.36000000000001</ele>
        <time>2025-05-09T11:38:03Z</time>
      </trkpt>
      <trkpt lat="36.755747962743044" lon="-4.8376539722085">
        <ele>367.83999999999997</ele>
        <time>2025-05-09T11:38:04Z</time>
      </trkpt>
      <trkpt lat="36.755830021575093" lon="-4.837756985798478">
        <ele>368.31999999999999</ele>
        <time>2025-05-09T11:38:05Z</time>
      </trkpt>
      <trkpt lat="36.755921971052885" lon="-4.837873997166753">
        <ele>368.31999999999999</ele>
        <time>2025-05-09T11:38:06Z</time>
      </trkpt>
      <trkpt lat="36.75601601600647" lon="-4.837993020191789">
        <ele>367.83999999999997</ele>
        <time>2025-05-09T11:38:07Z</time>
      </trkpt>
      <trkpt lat="36.756132021546364" lon="-4.838089998811483">
        <ele>367.36000000000001</ele>
        <time>2025-05-09T11:38:08Z</time>
      </trkpt>
      <trkpt lat="36.756260013207793" lon="-4.83814800158143">
        <ele>366.88</ele>
        <time>2025-05-09T11:38:09Z</time>
      </trkpt>
      <trkpt lat="36.756394039839506" lon="-4.838161999359727">
        <ele>365.92000000000002</ele>
        <time>2025-05-09T11:38:10Z</time>
      </trkpt>
      <trkpt lat="36.756531000137329" lon="-4.838151019066572">
        <ele>364.95999999999998</ele>
        <time>2025-05-09T11:38:11Z</time>
      </trkpt>
      <trkpt lat="36.756673995405436" lon="-4.838140038773418">
        <ele>364</ele>
        <time>2025-05-09T11:38:12Z</time>
      </trkpt>
      <trkpt lat="36.756824031472206" lon="-4.838127968832851">
        <ele>363.04000000000002</ele>
        <time>2025-05-09T11:38:13Z</time>
      </trkpt>
      <trkpt lat="36.757462983950973" lon="-4.838048005476594">
        <ele>358.23000000000002</ele>
        <time>2025-05-09T11:38:17Z</time>
      </trkpt>
      <trkpt lat="36.757586030289531" lon="-4.837977010756731">
        <ele>357.26999999999998</ele>
        <time>2025-05-09T11:38:18Z</time>
      </trkpt>
      <trkpt lat="36.757674962282181" lon="-4.837856981903315">
        <ele>356.79000000000002</ele>
        <time>2025-05-09T11:38:19Z</time>
      </trkpt>
      <trkpt lat="36.757765989750624" lon="-4.837709041312337">
        <ele>356.31</ele>
        <time>2025-05-09T11:38:20Z</time>
      </trkpt>
      <trkpt lat="36.757863974198699" lon="-4.837550036609173">
        <ele>356.31</ele>
        <time>2025-05-09T11:38:21Z</time>
      </trkpt>
      <trkpt lat="36.757960030809045" lon="-4.837386002764106">
        <ele>355.82999999999998</ele>
        <time>2025-05-09T11:38:22Z</time>
      </trkpt>
      <trkpt lat="36.75799498334527" lon="-4.837195985019207">
        <ele>356.31</ele>
        <time>2025-05-09T11:38:23Z</time>
      </trkpt>
      <trkpt lat="36.757979979738593" lon="-4.836966991424561">
        <ele>356.31</ele>
        <time>2025-05-09T11:38:24Z</time>
      </trkpt>
      <trkpt lat="36.757970005273819" lon="-4.836796000599861">
        <ele>356.79000000000002</ele>
        <time>2025-05-09T11:38:25Z</time>
      </trkpt>
      <trkpt lat="36.757961036637425" lon="-4.836628027260304">
        <ele>357.26999999999998</ele>
        <time>2025-05-09T11:38:26Z</time>
      </trkpt>
      <trkpt lat="36.757991965860128" lon="-4.836494000628591">
        <ele>357.75</ele>
        <time>2025-05-09T11:38:27Z</time>
      </trkpt>
      <trkpt lat="36.758043011650443" lon="-4.836359973996878">
        <ele>357.75</ele>
        <time>2025-05-09T11:38:28Z</time>
      </trkpt>
      <trkpt lat="36.758131021633744" lon="-4.836236005648971">
        <ele>358.23000000000002</ele>
        <time>2025-05-09T11:38:29Z</time>
      </trkpt>
      <trkpt lat="36.758244009688497" lon="-4.836124023422599">
        <ele>358.23000000000002</ele>
        <time>2025-05-09T11:38:30Z</time>
      </trkpt>
      <trkpt lat="36.758363032713532" lon="-4.836013969033957">
        <ele>359.19</ele>
        <time>2025-05-09T11:38:31Z</time>
      </trkpt>
      <trkpt lat="36.75851097330451" lon="-4.835940040647984">
        <ele>359.67000000000002</ele>
        <time>2025-05-09T11:38:32Z</time>
      </trkpt>
      <trkpt lat="36.758655980229378" lon="-4.835867034271359">
        <ele>359.67000000000002</ele>
        <time>2025-05-09T11:38:33Z</time>
      </trkpt>
      <trkpt lat="36.758777014911175" lon="-4.835771983489394">
        <ele>360.14999999999998</ele>
        <time>2025-05-09T11:38:34Z</time>
      </trkpt>
      <trkpt lat="36.758890002965927" lon="-4.835665030404925">
        <ele>360.14999999999998</ele>
        <time>2025-05-09T11:38:35Z</time>
      </trkpt>
      <trkpt lat="36.758974995464087" lon="-4.835513988509774">
        <ele>360.14999999999998</ele>
        <time>2025-05-09T11:38:36Z</time>
      </trkpt>
      <trkpt lat="36.75906996242702" lon="-4.835350038483739">
        <ele>359.67000000000002</ele>
        <time>2025-05-09T11:38:37Z</time>
      </trkpt>
      <trkpt lat="36.759376991540194" lon="-4.834779985249043">
        <ele>358.70999999999998</ele>
        <time>2025-05-09T11:38:40Z</time>
      </trkpt>
      <trkpt lat="36.759460978209972" lon="-4.834559038281441">
        <ele>358.23000000000002</ele>
        <time>2025-05-09T11:38:41Z</time>
      </trkpt>
      <trkpt lat="36.759589975699782" lon="-4.834142960608006">
        <ele>357.26999999999998</ele>
        <time>2025-05-09T11:38:43Z</time>
      </trkpt>
      <trkpt lat="36.759602967649698" lon="-4.833953026682138">
        <ele>356.31</ele>
        <time>2025-05-09T11:38:44Z</time>
      </trkpt>
      <trkpt lat="36.759627023711801" lon="-4.833608027547598">
        <ele>355.82999999999998</ele>
        <time>2025-05-09T11:38:46Z</time>
      </trkpt>
      <trkpt lat="36.759658036753535" lon="-4.833470983430743">
        <ele>355.33999999999997</ele>
        <time>2025-05-09T11:38:47Z</time>
      </trkpt>
      <trkpt lat="36.759702041745186" lon="-4.833365958184004">
        <ele>354.86000000000001</ele>
        <time>2025-05-09T11:38:48Z</time>
      </trkpt>
      <trkpt lat="36.759739005938172" lon="-4.833276020362973">
        <ele>354.38</ele>
        <time>2025-05-09T11:38:49Z</time>
      </trkpt>
      <trkpt lat="36.759821986779571" lon="-4.833228997886181">
        <ele>353.42000000000002</ele>
        <time>2025-05-09T11:38:50Z</time>
      </trkpt>
      <trkpt lat="36.759920977056026" lon="-4.833190022036433">
        <ele>352.94</ele>
        <time>2025-05-09T11:38:51Z</time>
      </trkpt>
      <trkpt lat="36.760027008131146" lon="-4.833190022036433">
        <ele>351.98000000000002</ele>
        <time>2025-05-09T11:38:52Z</time>
      </trkpt>
      <trkpt lat="36.760144019499421" lon="-4.833246013149619">
        <ele>351.5</ele>
        <time>2025-05-09T11:38:53Z</time>
      </trkpt>
      <trkpt lat="36.760261030867696" lon="-4.833308039233089">
        <ele>351.01999999999998</ele>
        <time>2025-05-09T11:38:54Z</time>
      </trkpt>
      <trkpt lat="36.760362032800913" lon="-4.833362018689513">
        <ele>350.06</ele>
        <time>2025-05-09T11:38:55Z</time>
      </trkpt>
      <trkpt lat="36.760475020855665" lon="-4.83346201479435">
        <ele>349.10000000000002</ele>
        <time>2025-05-09T11:38:56Z</time>
      </trkpt>
      <trkpt lat="36.760533023625612" lon="-4.833511970937252">
        <ele>348.62</ele>
        <time>2025-05-09T11:38:57Z</time>
      </trkpt>
      <trkpt lat="36.760585997253656" lon="-4.833658989518881">
        <ele>347.64999999999998</ele>
        <time>2025-05-09T11:38:58Z</time>
      </trkpt>
      <trkpt lat="36.760634025558829" lon="-4.833793016150594">
        <ele>346.69</ele>
        <time>2025-05-09T11:38:59Z</time>
      </trkpt>
      <trkpt lat="36.760685993358493" lon="-4.833937017247081">
        <ele>345.73000000000002</ele>
        <time>2025-05-09T11:39:00Z</time>
      </trkpt>
      <trkpt lat="36.76074399612844" lon="-4.834075989201665">
        <ele>344.76999999999998</ele>
        <time>2025-05-09T11:39:01Z</time>
      </trkpt>
      <trkpt lat="36.760824965313077" lon="-4.834197023883462">
        <ele>343.81</ele>
        <time>2025-05-09T11:39:02Z</time>
      </trkpt>
      <trkpt lat="36.760910041630268" lon="-4.834324009716511">
        <ele>342.85000000000002</ele>
        <time>2025-05-09T11:39:03Z</time>
      </trkpt>
      <trkpt lat="36.76113199442625" lon="-4.83470899052918">
        <ele>340.44</ele>
        <time>2025-05-09T11:39:06Z</time>
      </trkpt>
      <trkpt lat="36.761178011074662" lon="-4.834846034646034">
        <ele>339.48000000000002</ele>
        <time>2025-05-09T11:39:07Z</time>
      </trkpt>
      <trkpt lat="36.761270966380835" lon="-4.835123978555203">
        <ele>337.56</ele>
        <time>2025-05-09T11:39:09Z</time>
      </trkpt>
      <trkpt lat="36.761320000514388" lon="-4.835240989923477">
        <ele>336.60000000000002</ele>
        <time>2025-05-09T11:39:10Z</time>
      </trkpt>
      <trkpt lat="36.761405998840928" lon="-4.835315002128482">
        <ele>336.12</ele>
        <time>2025-05-09T11:39:11Z</time>
      </trkpt>
      <trkpt lat="36.761499037966132" lon="-4.835362024605274">
        <ele>335.63999999999999</ele>
        <time>2025-05-09T11:39:12Z</time>
      </trkpt>
      <trkpt lat="36.761606996878982" lon="-4.835373004898429">
        <ele>334.68000000000001</ele>
        <time>2025-05-09T11:39:13Z</time>
      </trkpt>
      <trkpt lat="36.761715961620212" lon="-4.835369987413287">
        <ele>334.19999999999999</ele>
        <time>2025-05-09T11:39:14Z</time>
      </trkpt>
      <trkpt lat="36.761940009891987" lon="-4.835324976593256">
        <ele>332.75</ele>
        <time>2025-05-09T11:39:16Z</time>
      </trkpt>
      <trkpt lat="36.762221977114677" lon="-4.835207965224981">
        <ele>331.79000000000002</ele>
        <time>2025-05-09T11:39:19Z</time>
      </trkpt>
      <trkpt lat="36.762314010411501" lon="-4.835143005475402">
        <ele>331.31</ele>
        <time>2025-05-09T11:39:20Z</time>
      </trkpt>
      <trkpt lat="36.762341000139713" lon="-4.835103023797274">
        <ele>331.79000000000002</ele>
        <time>2025-05-09T11:39:21Z</time>
      </trkpt>
      <trkpt lat="36.762351980432868" lon="-4.835028005763888">
        <ele>332.26999999999998</ele>
        <time>2025-05-09T11:39:22Z</time>
      </trkpt>
      <trkpt lat="36.76233597099781" lon="-4.834886016324163">
        <ele>332.75</ele>
        <time>2025-05-09T11:39:23Z</time>
      </trkpt>
      <trkpt lat="36.762299006804824" lon="-4.834806974977255">
        <ele>333.23000000000002</ele>
        <time>2025-05-09T11:39:24Z</time>
      </trkpt>
      <trkpt lat="36.762242009863257" lon="-4.83468602411449">
        <ele>334.68000000000001</ele>
        <time>2025-05-09T11:39:25Z</time>
      </trkpt>
      <trkpt lat="36.762159029021859" lon="-4.834443032741547">
        <ele>335.63999999999999</ele>
        <time>2025-05-09T11:39:27Z</time>
      </trkpt>
      <trkpt lat="36.762143019586802" lon="-4.834305988624692">
        <ele>336.12</ele>
        <time>2025-05-09T11:39:28Z</time>
      </trkpt>
      <trkpt lat="36.762196999043226" lon="-4.83417296782136">
        <ele>337.07999999999998</ele>
        <time>2025-05-09T11:39:29Z</time>
      </trkpt>
      <trkpt lat="36.762275034561753" lon="-4.83404497615993">
        <ele>337.56</ele>
        <time>2025-05-09T11:39:30Z</time>
      </trkpt>
      <trkpt lat="36.762395985424519" lon="-4.83391497284174">
        <ele>337.56</ele>
        <time>2025-05-09T11:39:31Z</time>
      </trkpt>
      <trkpt lat="36.762540992349386" lon="-4.833759991452098">
        <ele>338.04000000000002</ele>
        <time>2025-05-09T11:39:32Z</time>
      </trkpt>
      <trkpt lat="36.762853972613811" lon="-4.833409041166306">
        <ele>338.51999999999998</ele>
        <time>2025-05-09T11:39:34Z</time>
      </trkpt>
      <trkpt lat="36.76299998536706" lon="-4.833213994279504">
        <ele>339</ele>
        <time>2025-05-09T11:39:35Z</time>
      </trkpt>
      <trkpt lat="36.763124037533998" lon="-4.833007967099547">
        <ele>339.48000000000002</ele>
        <time>2025-05-09T11:39:36Z</time>
      </trkpt>
      <trkpt lat="36.763432994484901" lon="-4.832471022382379">
        <ele>341.88999999999999</ele>
        <time>2025-05-09T11:39:39Z</time>
      </trkpt>
      <trkpt lat="36.763547994196415" lon="-4.832382006570697">
        <ele>342.85000000000002</ele>
        <time>2025-05-09T11:39:40Z</time>
      </trkpt>
      <trkpt lat="36.763670034706593" lon="-4.832310006022453">
        <ele>343.32999999999998</ele>
        <time>2025-05-09T11:39:41Z</time>
      </trkpt>
      <trkpt lat="36.763801965862513" lon="-4.832231970503926">
        <ele>343.81</ele>
        <time>2025-05-09T11:39:42Z</time>
      </trkpt>
      <trkpt lat="36.763939009979367" lon="-4.832144966349006">
        <ele>344.29000000000002</ele>
        <time>2025-05-09T11:39:43Z</time>
      </trkpt>
      <trkpt lat="36.7640720307827" lon="-4.832012029364705">
        <ele>344.76999999999998</ele>
        <time>2025-05-09T11:39:44Z</time>
      </trkpt>
      <trkpt lat="36.76420396193862" lon="-4.831880014389753">
        <ele>344.76999999999998</ele>
        <time>2025-05-09T11:39:45Z</time>
      </trkpt>
      <trkpt lat="36.764328014105558" lon="-4.831756968051195">
        <ele>345.25</ele>
        <time>2025-05-09T11:39:46Z</time>
      </trkpt>
      <trkpt lat="36.764475032687187" lon="-4.831681028008461">
        <ele>345.73000000000002</ele>
        <time>2025-05-09T11:39:47Z</time>
      </trkpt>
      <trkpt lat="36.764639988541603" lon="-4.831634005531669">
        <ele>346.20999999999998</ele>
        <time>2025-05-09T11:39:48Z</time>
      </trkpt>
      <trkpt lat="36.764820031821728" lon="-4.831611961126328">
        <ele>346.69</ele>
        <time>2025-05-09T11:39:49Z</time>
      </trkpt>
      <trkpt lat="36.76499898545444" lon="-4.831588994711638">
        <ele>347.64999999999998</ele>
        <time>2025-05-09T11:39:50Z</time>
      </trkpt>
      <trkpt lat="36.765165030956268" lon="-4.831568039953709">
        <ele>348.62</ele>
        <time>2025-05-09T11:39:51Z</time>
      </trkpt>
      <trkpt lat="36.765293022617698" lon="-4.83152998611331">
        <ele>349.10000000000002</ele>
        <time>2025-05-09T11:39:52Z</time>
      </trkpt>
      <trkpt lat="36.765359994024038" lon="-4.831438036635518">
        <ele>350.06</ele>
        <time>2025-05-09T11:39:53Z</time>
      </trkpt>
      <trkpt lat="36.765407016500831" lon="-4.831350026652217">
        <ele>350.54000000000002</ele>
        <time>2025-05-09T11:39:54Z</time>
      </trkpt>
      <trkpt lat="36.765454960986972" lon="-4.831261010840535">
        <ele>351.5</ele>
        <time>2025-05-09T11:39:55Z</time>
      </trkpt>
      <trkpt lat="36.765515981242061" lon="-4.831180041655898">
        <ele>352.45999999999998</ele>
        <time>2025-05-09T11:39:56Z</time>
      </trkpt>
      <trkpt lat="36.765613965690136" lon="-4.831123966723681">
        <ele>352.94</ele>
        <time>2025-05-09T11:39:57Z</time>
      </trkpt>
      <trkpt lat="36.765727959573269" lon="-4.831118015572429">
        <ele>353.89999999999998</ele>
        <time>2025-05-09T11:39:58Z</time>
      </trkpt>
      <trkpt lat="36.765868021175265" lon="-4.831132013350725">
        <ele>354.38</ele>
        <time>2025-05-09T11:39:59Z</time>
      </trkpt>
      <trkpt lat="36.766015961766243" lon="-4.831147016957402">
        <ele>355.33999999999997</ele>
        <time>2025-05-09T11:40:00Z</time>
      </trkpt>
      <trkpt lat="36.766167003661394" lon="-4.831184986978769">
        <ele>355.82999999999998</ele>
        <time>2025-05-09T11:40:01Z</time>
      </trkpt>
      <trkpt lat="36.766331037506461" lon="-4.831238966435194">
        <ele>356.31</ele>
        <time>2025-05-09T11:40:02Z</time>
      </trkpt>
      <trkpt lat="36.766491970047355" lon="-4.831317001953721">
        <ele>356.79000000000002</ele>
        <time>2025-05-09T11:40:03Z</time>
      </trkpt>
      <trkpt lat="36.766651980578899" lon="-4.831408029422164">
        <ele>357.26999999999998</ele>
        <time>2025-05-09T11:40:04Z</time>
      </trkpt>
      <trkpt lat="36.767177022993565" lon="-4.831687984988093">
        <ele>359.67000000000002</ele>
        <time>2025-05-09T11:40:08Z</time>
      </trkpt>
      <trkpt lat="36.767256986349821" lon="-4.831725033000112">
        <ele>359.67000000000002</ele>
        <time>2025-05-09T11:40:09Z</time>
      </trkpt>
      <trkpt lat="36.767330998554826" lon="-4.831697037443519">
        <ele>360.14999999999998</ele>
        <time>2025-05-09T11:40:10Z</time>
      </trkpt>
      <trkpt lat="36.767407022416592" lon="-4.831654038280249">
        <ele>360.63</ele>
        <time>2025-05-09T11:40:11Z</time>
      </trkpt>
      <trkpt lat="36.767458990216255" lon="-4.831570973619819">
        <ele>360.63</ele>
        <time>2025-05-09T11:40:12Z</time>
      </trkpt>
      <trkpt lat="36.76751003600657" lon="-4.831467960029841">
        <ele>360.63</ele>
        <time>2025-05-09T11:40:13Z</time>
      </trkpt>
      <trkpt lat="36.767528979107738" lon="-4.831309039145708">
        <ele>360.63</ele>
        <time>2025-05-09T11:40:14Z</time>
      </trkpt>
      <trkpt lat="36.767483968287706" lon="-4.831140981987119">
        <ele>360.63</ele>
        <time>2025-05-09T11:40:15Z</time>
      </trkpt>
      <trkpt lat="36.767434012144804" lon="-4.830954987555742">
        <ele>361.11000000000001</ele>
        <time>2025-05-09T11:40:16Z</time>
      </trkpt>
      <trkpt lat="36.76738397218287" lon="-4.830773016437888">
        <ele>361.58999999999997</ele>
        <time>2025-05-09T11:40:17Z</time>
      </trkpt>
      <trkpt lat="36.767335021868348" lon="-4.830593978986144">
        <ele>362.55000000000001</ele>
        <time>2025-05-09T11:40:18Z</time>
      </trkpt>
      <trkpt lat="36.7673409730196" lon="-4.830416031181812">
        <ele>363.04000000000002</ele>
        <time>2025-05-09T11:40:19Z</time>
      </trkpt>
      <trkpt lat="36.767348013818264" lon="-4.830216960981488">
        <ele>364</ele>
        <time>2025-05-09T11:40:20Z</time>
      </trkpt>
      <trkpt lat="36.767346002161503" lon="-4.829775989055634">
        <ele>364.95999999999998</ele>
        <time>2025-05-09T11:40:22Z</time>
      </trkpt>
      <trkpt lat="36.76731800660491" lon="-4.82953199185431">
        <ele>365.44</ele>
        <time>2025-05-09T11:40:23Z</time>
      </trkpt>
      <trkpt lat="36.767248017713428" lon="-4.829313978552818">
        <ele>366.39999999999998</ele>
        <time>2025-05-09T11:40:24Z</time>
      </trkpt>
      <trkpt lat="36.767121031880379" lon="-4.828920029103756">
        <ele>368.31999999999999</ele>
        <time>2025-05-09T11:40:26Z</time>
      </trkpt>
      <trkpt lat="36.76710301078856" lon="-4.828720958903432">
        <ele>368.80000000000001</ele>
        <time>2025-05-09T11:40:27Z</time>
      </trkpt>
      <trkpt lat="36.767128994688392" lon="-4.828589027747512">
        <ele>369.75999999999999</ele>
        <time>2025-05-09T11:40:28Z</time>
      </trkpt>
      <trkpt lat="36.767165036872029" lon="-4.828471010550857">
        <ele>370.73000000000002</ele>
        <time>2025-05-09T11:40:29Z</time>
      </trkpt>
      <trkpt lat="36.767204012721777" lon="-4.828398004174233">
        <ele>371.69</ele>
        <time>2025-05-09T11:40:30Z</time>
      </trkpt>
      <trkpt lat="36.767295962199569" lon="-4.828363973647356">
        <ele>372.17000000000002</ele>
        <time>2025-05-09T11:40:31Z</time>
      </trkpt>
      <trkpt lat="36.767396964132786" lon="-4.828347964212298">
        <ele>372.64999999999998</ele>
        <time>2025-05-09T11:40:32Z</time>
      </trkpt>
      <trkpt lat="36.767529984936118" lon="-4.82837101444602">
        <ele>373.13</ele>
        <time>2025-05-09T11:40:33Z</time>
      </trkpt>
      <trkpt lat="36.768638994544744" lon="-4.828594978898764">
        <ele>374.56999999999999</ele>
        <time>2025-05-09T11:40:39Z</time>
      </trkpt>
      <trkpt lat="36.768815014511347" lon="-4.828677037730813">
        <ele>374.56999999999999</ele>
        <time>2025-05-09T11:40:40Z</time>
      </trkpt>
      <trkpt lat="36.768986005336046" lon="-4.828791031613946">
        <ele>375.05000000000001</ele>
        <time>2025-05-09T11:40:41Z</time>
      </trkpt>
      <trkpt lat="36.769998036324978" lon="-4.829446999356151">
        <ele>376.00999999999999</ele>
        <time>2025-05-09T11:40:47Z</time>
      </trkpt>
      <trkpt lat="36.770125022158027" lon="-4.829499972984195">
        <ele>376.00999999999999</ele>
        <time>2025-05-09T11:40:48Z</time>
      </trkpt>
      <trkpt lat="36.770259970799088" lon="-4.829474994912744">
        <ele>376.00999999999999</ele>
        <time>2025-05-09T11:40:49Z</time>
      </trkpt>
      <trkpt lat="36.770359966903925" lon="-4.829456973820925">
        <ele>376.49000000000001</ele>
        <time>2025-05-09T11:40:50Z</time>
      </trkpt>
      <trkpt lat="36.77039097994566" lon="-4.829393019899726">
        <ele>376.49000000000001</ele>
        <time>2025-05-09T11:40:51Z</time>
      </trkpt>
      <trkpt lat="36.770441019907594" lon="-4.829287994652987">
        <ele>376.97000000000003</ele>
        <time>2025-05-09T11:40:52Z</time>
      </trkpt>
      <trkpt lat="36.77049801684916" lon="-4.829166037961841">
        <ele>377.44999999999999</ele>
        <time>2025-05-09T11:40:53Z</time>
      </trkpt>
      <trkpt lat="36.770597007125616" lon="-4.82903896830976">
        <ele>377.94</ele>
        <time>2025-05-09T11:40:54Z</time>
      </trkpt>
      <trkpt lat="36.770726004615426" lon="-4.828987000510097">
        <ele>378.42000000000002</ele>
        <time>2025-05-09T11:40:55Z</time>
      </trkpt>
      <trkpt lat="36.770836981013417" lon="-4.828992029652">
        <ele>378.42000000000002</ele>
        <time>2025-05-09T11:40:56Z</time>
      </trkpt>
      <trkpt lat="36.770960027351975" lon="-4.828996974974871">
        <ele>378.89999999999998</ele>
        <time>2025-05-09T11:40:57Z</time>
      </trkpt>
      <trkpt lat="36.771094975993037" lon="-4.829002004116774">
        <ele>379.38</ele>
        <time>2025-05-09T11:40:58Z</time>
      </trkpt>
      <trkpt lat="36.772096026688814" lon="-4.828812992200255">
        <ele>380.81999999999999</ele>
        <time>2025-05-09T11:41:04Z</time>
      </trkpt>
      <trkpt lat="36.772234998643398" lon="-4.82873504050076">
        <ele>381.30000000000001</ele>
        <time>2025-05-09T11:41:05Z</time>
      </trkpt>
      <trkpt lat="36.772306999191642" lon="-4.828634960576892">
        <ele>381.30000000000001</ele>
        <time>2025-05-09T11:41:06Z</time>
      </trkpt>
      <trkpt lat="36.772361984476447" lon="-4.828528007492423">
        <ele>381.77999999999997</ele>
        <time>2025-05-09T11:41:07Z</time>
      </trkpt>
      <trkpt lat="36.772392997518182" lon="-4.828375959768891">
        <ele>382.25999999999999</ele>
        <time>2025-05-09T11:41:08Z</time>
      </trkpt>
      <trkpt lat="36.772442031651735" lon="-4.82819801196456">
        <ele>382.25999999999999</ele>
        <time>2025-05-09T11:41:09Z</time>
      </trkpt>
      <trkpt lat="36.772515960037708" lon="-4.828074965626001">
        <ele>382.74000000000001</ele>
        <time>2025-05-09T11:41:10Z</time>
      </trkpt>
      <trkpt lat="36.77262500859797" lon="-4.82798301614821">
        <ele>383.22000000000003</ele>
        <time>2025-05-09T11:41:11Z</time>
      </trkpt>
      <trkpt lat="36.772747971117496" lon="-4.827923001721501">
        <ele>383.22000000000003</ele>
        <time>2025-05-09T11:41:12Z</time>
      </trkpt>
      <trkpt lat="36.77288300357759" lon="-4.827858963981271">
        <ele>383.69999999999999</ele>
        <time>2025-05-09T11:41:13Z</time>
      </trkpt>
      <trkpt lat="36.773022981360555" lon="-4.82779098674655">
        <ele>383.69999999999999</ele>
        <time>2025-05-09T11:41:14Z</time>
      </trkpt>
      <trkpt lat="36.773156002163887" lon="-4.827709011733532">
        <ele>383.22000000000003</ele>
        <time>2025-05-09T11:41:15Z</time>
      </trkpt>
      <trkpt lat="36.773272007703781" lon="-4.827571967616677">
        <ele>383.22000000000003</ele>
        <time>2025-05-09T11:41:16Z</time>
      </trkpt>
      <trkpt lat="36.773536959663033" lon="-4.82729603536427">
        <ele>383.22000000000003</ele>
        <time>2025-05-09T11:41:18Z</time>
      </trkpt>
      <trkpt lat="36.77410701289773" lon="-4.826917005702853">
        <ele>384.18000000000001</ele>
        <time>2025-05-09T11:41:22Z</time>
      </trkpt>
      <trkpt lat="36.774229975417256" lon="-4.826890015974641">
        <ele>384.66000000000003</ele>
        <time>2025-05-09T11:41:23Z</time>
      </trkpt>
      <trkpt lat="36.774336006492376" lon="-4.826902002096176">
        <ele>385.14999999999998</ele>
        <time>2025-05-09T11:41:24Z</time>
      </trkpt>
      <trkpt lat="36.774433990940452" lon="-4.826941983774304">
        <ele>385.14999999999998</ele>
        <time>2025-05-09T11:41:25Z</time>
      </trkpt>
      <trkpt lat="36.774526024237275" lon="-4.827034017071128">
        <ele>384.66000000000003</ele>
        <time>2025-05-09T11:41:26Z</time>
      </trkpt>
      <trkpt lat="36.774633983150125" lon="-4.827141975983977">
        <ele>384.18000000000001</ele>
        <time>2025-05-09T11:41:27Z</time>
      </trkpt>
      <trkpt lat="36.774867000058293" lon="-4.827374992892146">
        <ele>382.74000000000001</ele>
        <time>2025-05-09T11:41:29Z</time>
      </trkpt>
      <trkpt lat="36.775003038346767" lon="-4.827417992055416">
        <ele>382.25999999999999</ele>
        <time>2025-05-09T11:41:30Z</time>
      </trkpt>
      <trkpt lat="36.7751619592309" lon="-4.82746803201735">
        <ele>381.30000000000001</ele>
        <time>2025-05-09T11:41:31Z</time>
      </trkpt>
      <trkpt lat="36.775618018582463" lon="-4.827627958729863">
        <ele>379.38</ele>
        <time>2025-05-09T11:41:34Z</time>
      </trkpt>
      <trkpt lat="36.775742992758751" lon="-4.827702976763248">
        <ele>378.89999999999998</ele>
        <time>2025-05-09T11:41:35Z</time>
      </trkpt>
      <trkpt lat="36.775835026055574" lon="-4.827805990353227">
        <ele>377.94</ele>
        <time>2025-05-09T11:41:36Z</time>
      </trkpt>
      <trkpt lat="36.775926975533366" lon="-4.827927025035024">
        <ele>377.44999999999999</ele>
        <time>2025-05-09T11:41:37Z</time>
      </trkpt>
      <trkpt lat="36.776018003001809" lon="-4.828044958412647">
        <ele>376.49000000000001</ele>
        <time>2025-05-09T11:41:38Z</time>
      </trkpt>
      <trkpt lat="36.776078017428517" lon="-4.828171022236347">
        <ele>375.52999999999997</ele>
        <time>2025-05-09T11:41:39Z</time>
      </trkpt>
      <trkpt lat="36.7761289793998" lon="-4.828317034989595">
        <ele>374.56999999999999</ele>
        <time>2025-05-09T11:41:40Z</time>
      </trkpt>
      <trkpt lat="36.776180025190115" lon="-4.828463969752193">
        <ele>373.61000000000001</ele>
        <time>2025-05-09T11:41:41Z</time>
      </trkpt>
      <trkpt lat="36.776292007416487" lon="-4.828729005530477">
        <ele>372.17000000000002</ele>
        <time>2025-05-09T11:41:43Z</time>
      </trkpt>
      <trkpt lat="36.776351016014814" lon="-4.828860014677048">
        <ele>371.69</ele>
        <time>2025-05-09T11:41:44Z</time>
      </trkpt>
      <trkpt lat="36.776438020169735" lon="-4.828964034095407">
        <ele>371.20999999999998</ele>
        <time>2025-05-09T11:41:45Z</time>
      </trkpt>
      <trkpt lat="36.777107985690236" lon="-4.829740030691028">
        <ele>366.88</ele>
        <time>2025-05-09T11:41:52Z</time>
      </trkpt>
      <trkpt lat="36.777216028422117" lon="-4.829813037067652">
        <ele>366.39999999999998</ele>
        <time>2025-05-09T11:41:53Z</time>
      </trkpt>
      <trkpt lat="36.777325998991728" lon="-4.829862993210554">
        <ele>365.44</ele>
        <time>2025-05-09T11:41:54Z</time>
      </trkpt>
      <trkpt lat="36.777440998703241" lon="-4.829879002645612">
        <ele>364.48000000000002</ele>
        <time>2025-05-09T11:41:55Z</time>
      </trkpt>
      <trkpt lat="36.777540994808078" lon="-4.829868022352457">
        <ele>364</ele>
        <time>2025-05-09T11:41:56Z</time>
      </trkpt>
      <trkpt lat="36.777634033933282" lon="-4.829834997653961">
        <ele>363.04000000000002</ele>
        <time>2025-05-09T11:41:57Z</time>
      </trkpt>
      <trkpt lat="36.777701005339622" lon="-4.829804990440607">
        <ele>362.06999999999999</ele>
        <time>2025-05-09T11:41:58Z</time>
      </trkpt>
      <trkpt lat="36.777758002281189" lon="-4.829571973532438">
        <ele>361.11000000000001</ele>
        <time>2025-05-09T11:41:59Z</time>
      </trkpt>
      <trkpt lat="36.777725983411074" lon="-4.829514976590872">
        <ele>361.11000000000001</ele>
        <time>2025-05-09T11:42:00Z</time>
      </trkpt>
      <trkpt lat="36.777682984247804" lon="-4.829443981871009">
        <ele>360.63</ele>
        <time>2025-05-09T11:42:01Z</time>
      </trkpt>
      <trkpt lat="36.77763001061976" lon="-4.829354966059327">
        <ele>360.14999999999998</ele>
        <time>2025-05-09T11:42:02Z</time>
      </trkpt>
      <trkpt lat="36.777563039213419" lon="-4.829242983832955">
        <ele>360.14999999999998</ele>
        <time>2025-05-09T11:42:03Z</time>
      </trkpt>
      <trkpt lat="36.776926014572382" lon="-4.828160963952541">
        <ele>357.26999999999998</ele>
        <time>2025-05-09T11:42:10Z</time>
      </trkpt>
      <trkpt lat="36.776317991316319" lon="-4.826638977974653">
        <ele>354.86000000000001</ele>
        <time>2025-05-09T11:42:17Z</time>
      </trkpt>
      <trkpt lat="36.77602001465857" lon="-4.824798982590437">
        <ele>351.01999999999998</ele>
        <time>2025-05-09T11:42:25Z</time>
      </trkpt>
      <trkpt lat="36.775879031047225" lon="-4.824363039806485">
        <ele>349.10000000000002</ele>
        <time>2025-05-09T11:42:27Z</time>
      </trkpt>
      <trkpt lat="36.775803007185459" lon="-4.824147960171104">
        <ele>348.13</ele>
        <time>2025-05-09T11:42:28Z</time>
      </trkpt>
      <trkpt lat="36.775696976110339" lon="-4.823942016810179">
        <ele>346.69</ele>
        <time>2025-05-09T11:42:29Z</time>
      </trkpt>
      <trkpt lat="36.775574013590813" lon="-4.823758034035564">
        <ele>345.25</ele>
        <time>2025-05-09T11:42:30Z</time>
      </trkpt>
      <trkpt lat="36.775449961423874" lon="-4.823572039604187">
        <ele>344.29000000000002</ele>
        <time>2025-05-09T11:42:31Z</time>
      </trkpt>
      <trkpt lat="36.775307971984148" lon="-4.823399037122726">
        <ele>342.85000000000002</ele>
        <time>2025-05-09T11:42:32Z</time>
      </trkpt>
      <trkpt lat="36.775152990594506" lon="-4.823247995227575">
        <ele>341.41000000000003</ele>
        <time>2025-05-09T11:42:33Z</time>
      </trkpt>
      <trkpt lat="36.774994991719723" lon="-4.823095025494695">
        <ele>339.95999999999998</ele>
        <time>2025-05-09T11:42:34Z</time>
      </trkpt>
      <trkpt lat="36.774833975359797" lon="-4.822939960286021">
        <ele>338.51999999999998</ele>
        <time>2025-05-09T11:42:35Z</time>
      </trkpt>
      <trkpt lat="36.773898974061012" lon="-4.82207503169775">
        <ele>329.38999999999999</ele>
        <time>2025-05-09T11:42:41Z</time>
      </trkpt>
      <trkpt lat="36.773803001269698" lon="-4.821912003681064">
        <ele>327.94999999999999</ele>
        <time>2025-05-09T11:42:42Z</time>
      </trkpt>
      <trkpt lat="36.773728989064693" lon="-4.821742018684745">
        <ele>326.5</ele>
        <time>2025-05-09T11:42:43Z</time>
      </trkpt>
      <trkpt lat="36.773672997951508" lon="-4.821545965969563">
        <ele>325.54000000000002</ele>
        <time>2025-05-09T11:42:44Z</time>
      </trkpt>
      <trkpt lat="36.773651037365198" lon="-4.821348991245031">
        <ele>324.10000000000002</ele>
        <time>2025-05-09T11:42:45Z</time>
      </trkpt>
      <trkpt lat="36.773672997951508" lon="-4.821162996813655">
        <ele>322.66000000000003</ele>
        <time>2025-05-09T11:42:46Z</time>
      </trkpt>
      <trkpt lat="36.773735024034977" lon="-4.820957975462079">
        <ele>320.74000000000001</ele>
        <time>2025-05-09T11:42:47Z</time>
      </trkpt>
      <trkpt lat="36.773797972127795" lon="-4.820748008787632">
        <ele>319.30000000000001</ele>
        <time>2025-05-09T11:42:48Z</time>
      </trkpt>
      <trkpt lat="36.773873995989561" lon="-4.820541981607676">
        <ele>317.37</ele>
        <time>2025-05-09T11:42:49Z</time>
      </trkpt>
      <trkpt lat="36.774329971522093" lon="-4.819469014182687">
        <ele>307.75999999999999</ele>
        <time>2025-05-09T11:42:54Z</time>
      </trkpt>
      <trkpt lat="36.774395015090704" lon="-4.819263992831111">
        <ele>305.83999999999997</ele>
        <time>2025-05-09T11:42:55Z</time>
      </trkpt>
      <trkpt lat="36.774385962635279" lon="-4.819058971479535">
        <ele>304.38999999999999</ele>
        <time>2025-05-09T11:42:56Z</time>
      </trkpt>
      <trkpt lat="36.774375988170505" lon="-4.818851016461849">
        <ele>302.47000000000003</ele>
        <time>2025-05-09T11:42:57Z</time>
      </trkpt>
      <trkpt lat="36.774333994835615" lon="-4.818666027858853">
        <ele>301.02999999999997</ele>
        <time>2025-05-09T11:42:58Z</time>
      </trkpt>
      <trkpt lat="36.774270040914416" lon="-4.818462012335658">
        <ele>299.58999999999997</ele>
        <time>2025-05-09T11:42:59Z</time>
      </trkpt>
      <trkpt lat="36.774169038981199" lon="-4.818296972662211">
        <ele>298.14999999999998</ele>
        <time>2025-05-09T11:43:00Z</time>
      </trkpt>
      <trkpt lat="36.774048004299402" lon="-4.818154983222485">
        <ele>296.69999999999999</ele>
        <time>2025-05-09T11:43:01Z</time>
      </trkpt>
      <trkpt lat="36.773896962404251" lon="-4.818025985732675">
        <ele>295.25999999999999</ele>
        <time>2025-05-09T11:43:02Z</time>
      </trkpt>
      <trkpt lat="36.773741981014609" lon="-4.817906962707639">
        <ele>293.81999999999999</ele>
        <time>2025-05-09T11:43:03Z</time>
      </trkpt>
      <trkpt lat="36.773106968030334" lon="-4.817406982183456">
        <ele>288.05000000000001</ele>
        <time>2025-05-09T11:43:07Z</time>
      </trkpt>
      <trkpt lat="36.772965984418988" lon="-4.817259041592479">
        <ele>286.61000000000001</ele>
        <time>2025-05-09T11:43:08Z</time>
      </trkpt>
      <trkpt lat="36.772869005799294" lon="-4.817072963342071">
        <ele>285.17000000000002</ele>
        <time>2025-05-09T11:43:09Z</time>
      </trkpt>
      <trkpt lat="36.772779989987612" lon="-4.816871965304017">
        <ele>283.73000000000002</ele>
        <time>2025-05-09T11:43:10Z</time>
      </trkpt>
      <trkpt lat="36.772698014974594" lon="-4.816670967265964">
        <ele>282.76999999999998</ele>
        <time>2025-05-09T11:43:11Z</time>
      </trkpt>
      <trkpt lat="36.772676976397634" lon="-4.816439962014556">
        <ele>281.31999999999999</ele>
        <time>2025-05-09T11:43:12Z</time>
      </trkpt>
      <trkpt lat="36.772656021639705" lon="-4.816201999783516">
        <ele>279.88</ele>
        <time>2025-05-09T11:43:13Z</time>
      </trkpt>
      <trkpt lat="36.772490981966257" lon="-4.814702980220318">
        <ele>270.26999999999998</ele>
        <time>2025-05-09T11:43:19Z</time>
      </trkpt>
      <trkpt lat="36.772457035258412" lon="-4.814456971362233">
        <ele>268.35000000000002</ele>
        <time>2025-05-09T11:43:20Z</time>
      </trkpt>
      <trkpt lat="36.772380005568266" lon="-4.814220014959574">
        <ele>266.42000000000002</ele>
        <time>2025-05-09T11:43:21Z</time>
      </trkpt>
      <trkpt lat="36.772291995584965" lon="-4.814007030799985">
        <ele>264.5</ele>
        <time>2025-05-09T11:43:22Z</time>
      </trkpt>
      <trkpt lat="36.772152017802" lon="-4.813787005841732">
        <ele>262.57999999999998</ele>
        <time>2025-05-09T11:43:23Z</time>
      </trkpt>
      <trkpt lat="36.772021008655429" lon="-4.813579972833395">
        <ele>260.64999999999998</ele>
        <time>2025-05-09T11:43:24Z</time>
      </trkpt>
      <trkpt lat="36.771883964538574" lon="-4.813363971188664">
        <ele>258.73000000000002</ele>
        <time>2025-05-09T11:43:25Z</time>
      </trkpt>
      <trkpt lat="36.771730994805694" lon="-4.813186023384333">
        <ele>256.81</ele>
        <time>2025-05-09T11:43:26Z</time>
      </trkpt>
      <trkpt lat="36.769731994718313" lon="-4.81073297560215">
        <ele>237.09999999999999</ele>
        <time>2025-05-09T11:43:39Z</time>
      </trkpt>
      <trkpt lat="36.7696169950068" lon="-4.810523008927703">
        <ele>236.13999999999999</ele>
        <time>2025-05-09T11:43:40Z</time>
      </trkpt>
      <trkpt lat="36.769543988630176" lon="-4.810290997847915">
        <ele>235.18000000000001</ele>
        <time>2025-05-09T11:43:41Z</time>
      </trkpt>
      <trkpt lat="36.769471988081932" lon="-4.810054963454604">
        <ele>234.22</ele>
        <time>2025-05-09T11:43:42Z</time>
      </trkpt>
      <trkpt lat="36.769400993362069" lon="-4.809819012880325">
        <ele>233.74000000000001</ele>
        <time>2025-05-09T11:43:43Z</time>
      </trkpt>
      <trkpt lat="36.769375009462237" lon="-4.809575015679002">
        <ele>232.78</ele>
        <time>2025-05-09T11:43:44Z</time>
      </trkpt>
      <trkpt lat="36.769351959228516" lon="-4.809323977679014">
        <ele>231.81</ele>
        <time>2025-05-09T11:43:45Z</time>
      </trkpt>
      <trkpt lat="36.769333016127348" lon="-4.809072017669678">
        <ele>231.33000000000001</ele>
        <time>2025-05-09T11:43:46Z</time>
      </trkpt>
      <trkpt lat="36.769355982542038" lon="-4.808813016861677">
        <ele>229.88999999999999</ele>
        <time>2025-05-09T11:43:47Z</time>
      </trkpt>
      <trkpt lat="36.769388001412153" lon="-4.808558039367199">
        <ele>228.93000000000001</ele>
        <time>2025-05-09T11:43:48Z</time>
      </trkpt>
      <trkpt lat="36.769447010010481" lon="-4.808299960568547">
        <ele>227.49000000000001</ele>
        <time>2025-05-09T11:43:49Z</time>
      </trkpt>
      <trkpt lat="36.769520016387105" lon="-4.808049006387591">
        <ele>225.56999999999999</ele>
        <time>2025-05-09T11:43:50Z</time>
      </trkpt>
      <trkpt lat="36.769622024148703" lon="-4.807807020843029">
        <ele>224.12</ele>
        <time>2025-05-09T11:43:51Z</time>
      </trkpt>
      <trkpt lat="36.76974699832499" lon="-4.807576015591621">
        <ele>222.19999999999999</ele>
        <time>2025-05-09T11:43:52Z</time>
      </trkpt>
      <trkpt lat="36.769871972501278" lon="-4.807340987026691">
        <ele>220.28</ele>
        <time>2025-05-09T11:43:53Z</time>
      </trkpt>
      <trkpt lat="36.769998036324978" lon="-4.807107970118523">
        <ele>218.36000000000001</ele>
        <time>2025-05-09T11:43:54Z</time>
      </trkpt>
      <trkpt lat="36.770543027669191" lon="-4.805806009098887">
        <ele>207.30000000000001</ele>
        <time>2025-05-09T11:44:00Z</time>
      </trkpt>
      <trkpt lat="36.770558031275868" lon="-4.805613979697228">
        <ele>205.38</ele>
        <time>2025-05-09T11:44:01Z</time>
      </trkpt>
      <trkpt lat="36.770570017397404" lon="-4.805223969742656">
        <ele>202.97999999999999</ele>
        <time>2025-05-09T11:44:03Z</time>
      </trkpt>
      <trkpt lat="36.770574962720275" lon="-4.805037975311279">
        <ele>201.53</ele>
        <time>2025-05-09T11:44:04Z</time>
      </trkpt>
      <trkpt lat="36.770536992698908" lon="-4.804857010021806">
        <ele>200.09</ele>
        <time>2025-05-09T11:44:05Z</time>
      </trkpt>
      <trkpt lat="36.77049801684916" lon="-4.80467202141881">
        <ele>198.65000000000001</ele>
        <time>2025-05-09T11:44:06Z</time>
      </trkpt>
      <trkpt lat="36.770425010472536" lon="-4.804509999230504">
        <ele>197.21000000000001</ele>
        <time>2025-05-09T11:44:07Z</time>
      </trkpt>
      <trkpt lat="36.770339012145996" lon="-4.804349988698959">
        <ele>195.77000000000001</ele>
        <time>2025-05-09T11:44:08Z</time>
      </trkpt>
      <trkpt lat="36.770251002162695" lon="-4.804184027016163">
        <ele>194.31999999999999</ele>
        <time>2025-05-09T11:44:09Z</time>
      </trkpt>
      <trkpt lat="36.770156035199761" lon="-4.804014964029193">
        <ele>192.88</ele>
        <time>2025-05-09T11:44:10Z</time>
      </trkpt>
      <trkpt lat="36.770026031881571" lon="-4.803860988467932">
        <ele>191.44</ele>
        <time>2025-05-09T11:44:11Z</time>
      </trkpt>
      <trkpt lat="36.769895022735" lon="-4.80370600707829">
        <ele>190.47999999999999</ele>
        <time>2025-05-09T11:44:12Z</time>
      </trkpt>
      <trkpt lat="36.768925990909338" lon="-4.802579982206225">
        <ele>187.11000000000001</ele>
        <time>2025-05-09T11:44:19Z</time>
      </trkpt>
      <trkpt lat="36.768816020339727" lon="-4.802398011088371">
        <ele>187.59</ele>
        <time>2025-05-09T11:44:20Z</time>
      </trkpt>
      <trkpt lat="36.768709989264607" lon="-4.802208999171853">
        <ele>188.08000000000001</ele>
        <time>2025-05-09T11:44:21Z</time>
      </trkpt>
      <trkpt lat="36.768609993159771" lon="-4.802017975598574">
        <ele>189.03999999999999</ele>
        <time>2025-05-09T11:44:22Z</time>
      </trkpt>
      <trkpt lat="36.768534975126386" lon="-4.801804991438985">
        <ele>190</ele>
        <time>2025-05-09T11:44:23Z</time>
      </trkpt>
      <trkpt lat="36.768477978184819" lon="-4.801585972309113">
        <ele>190.96000000000001</ele>
        <time>2025-05-09T11:44:24Z</time>
      </trkpt>
      <trkpt lat="36.768442019820213" lon="-4.801357984542847">
        <ele>191.91999999999999</ele>
        <time>2025-05-09T11:44:25Z</time>
      </trkpt>
      <trkpt lat="36.768405977636576" lon="-4.801126979291439">
        <ele>193.36000000000001</ele>
        <time>2025-05-09T11:44:26Z</time>
      </trkpt>
      <trkpt lat="36.768387034535408" lon="-4.80089102871716">
        <ele>194.80000000000001</ele>
        <time>2025-05-09T11:44:27Z</time>
      </trkpt>
      <trkpt lat="36.768408995121717" lon="-4.800648959353566">
        <ele>196.25</ele>
        <time>2025-05-09T11:44:28Z</time>
      </trkpt>
      <trkpt lat="36.768433973193169" lon="-4.800403034314513">
        <ele>197.21000000000001</ele>
        <time>2025-05-09T11:44:29Z</time>
      </trkpt>
      <trkpt lat="36.76871401257813" lon="-4.798521967604756">
        <ele>207.30000000000001</ele>
        <time>2025-05-09T11:44:37Z</time>
      </trkpt>
      <trkpt lat="36.768818031996489" lon="-4.796459013596177">
        <ele>207.78</ele>
        <time>2025-05-09T11:44:46Z</time>
      </trkpt>
      <trkpt lat="36.768708983436227" lon="-4.795011961832643">
        <ele>205.86000000000001</ele>
        <time>2025-05-09T11:44:52Z</time>
      </trkpt>
      <trkpt lat="36.768729016184807" lon="-4.794771987944841">
        <ele>205.86000000000001</ele>
        <time>2025-05-09T11:44:53Z</time>
      </trkpt>
      <trkpt lat="36.768773021176457" lon="-4.794521033763886">
        <ele>205.86000000000001</ele>
        <time>2025-05-09T11:44:54Z</time>
      </trkpt>
      <trkpt lat="36.768828006461263" lon="-4.794277958571911">
        <ele>205.86000000000001</ele>
        <time>2025-05-09T11:44:55Z</time>
      </trkpt>
      <trkpt lat="36.768897995352745" lon="-4.794033961370587">
        <ele>205.86000000000001</ele>
        <time>2025-05-09T11:44:56Z</time>
      </trkpt>
      <trkpt lat="36.768987011164427" lon="-4.793804967775941">
        <ele>205.86000000000001</ele>
        <time>2025-05-09T11:44:57Z</time>
      </trkpt>
      <trkpt lat="36.769845988601446" lon="-4.791412018239498">
        <ele>210.19</ele>
        <time>2025-05-09T11:45:07Z</time>
      </trkpt>
      <trkpt lat="36.770234992727637" lon="-4.788928041234613">
        <ele>214.50999999999999</ele>
        <time>2025-05-09T11:45:17Z</time>
      </trkpt>
      <trkpt lat="36.770704966038465" lon="-4.787359032779932">
        <ele>215.94999999999999</ele>
        <time>2025-05-09T11:45:24Z</time>
      </trkpt>
      <trkpt lat="36.771064968779683" lon="-4.786467030644417">
        <ele>212.59</ele>
        <time>2025-05-09T11:45:28Z</time>
      </trkpt>
      <trkpt lat="36.771133029833436" lon="-4.78624097071588">
        <ele>212.11000000000001</ele>
        <time>2025-05-09T11:45:29Z</time>
      </trkpt>
      <trkpt lat="36.771149039268494" lon="-4.785997979342938">
        <ele>212.11000000000001</ele>
        <time>2025-05-09T11:45:30Z</time>
      </trkpt>
      <trkpt lat="36.77116496488452" lon="-4.785755993798375">
        <ele>212.11000000000001</ele>
        <time>2025-05-09T11:45:31Z</time>
      </trkpt>
      <trkpt lat="36.771173011511564" lon="-4.785515014082193">
        <ele>212.59</ele>
        <time>2025-05-09T11:45:32Z</time>
      </trkpt>
      <trkpt lat="36.771161025390029" lon="-4.785270011052489">
        <ele>212.59</ele>
        <time>2025-05-09T11:45:33Z</time>
      </trkpt>
      <trkpt lat="36.770917028188705" lon="-4.782183961942792">
        <ele>200.09</ele>
        <time>2025-05-09T11:45:45Z</time>
      </trkpt>
      <trkpt lat="36.770345969125628" lon="-4.779896037653089">
        <ele>187.11000000000001</ele>
        <time>2025-05-09T11:45:54Z</time>
      </trkpt>
      <trkpt lat="36.769505012780428" lon="-4.777471991255879">
        <ele>180.87</ele>
        <time>2025-05-09T11:46:04Z</time>
      </trkpt>
      <trkpt lat="36.76935900002718" lon="-4.777263030409813">
        <ele>179.90000000000001</ele>
        <time>2025-05-09T11:46:05Z</time>
      </trkpt>
      <trkpt lat="36.767887976020575" lon="-4.775426974520087">
        <ele>171.72999999999999</ele>
        <time>2025-05-09T11:46:14Z</time>
      </trkpt>
      <trkpt lat="36.767163025215268" lon="-4.774084025993943">
        <ele>172.21000000000001</ele>
        <time>2025-05-09T11:46:20Z</time>
      </trkpt>
      <trkpt lat="36.766954986378551" lon="-4.773338958621025">
        <ele>172.21000000000001</ele>
        <time>2025-05-09T11:46:23Z</time>
      </trkpt>
      <trkpt lat="36.766892960295081" lon="-4.772809976711869">
        <ele>171.72999999999999</ele>
        <time>2025-05-09T11:46:25Z</time>
      </trkpt>
      <trkpt lat="36.766895977780223" lon="-4.770330023020506">
        <ele>165.96000000000001</ele>
        <time>2025-05-09T11:46:34Z</time>
      </trkpt>
      <trkpt lat="36.766828000545502" lon="-4.76724598556757">
        <ele>145.78</ele>
        <time>2025-05-09T11:46:45Z</time>
      </trkpt>
      <trkpt lat="36.766321985051036" lon="-4.765279004350305">
        <ele>133.28</ele>
        <time>2025-05-09T11:46:52Z</time>
      </trkpt>
      <trkpt lat="36.764990016818047" lon="-4.761180002242327">
        <ele>127.03</ele>
        <time>2025-05-09T11:47:07Z</time>
      </trkpt>
      <trkpt lat="36.764327008277178" lon="-4.758743969723582">
        <ele>117.90000000000001</ele>
        <time>2025-05-09T11:47:16Z</time>
      </trkpt>
      <trkpt lat="36.764321979135275" lon="-4.756830967962742">
        <ele>107.81</ele>
        <time>2025-05-09T11:47:23Z</time>
      </trkpt>
      <trkpt lat="36.764657003805041" lon="-4.753574011847377">
        <ele>118.86</ele>
        <time>2025-05-09T11:47:35Z</time>
      </trkpt>
      <trkpt lat="36.76459196023643" lon="-4.751437967643142">
        <ele>133.28</ele>
        <time>2025-05-09T11:47:44Z</time>
      </trkpt>
      <trkpt lat="36.764616016298532" lon="-4.749464029446244">
        <ele>134.72</ele>
        <time>2025-05-09T11:47:53Z</time>
      </trkpt>
      <trkpt lat="36.764881974086165" lon="-4.747869037091732">
        <ele>131.36000000000001</ele>
        <time>2025-05-09T11:48:03Z</time>
      </trkpt>
      <trkpt lat="36.765120020136237" lon="-4.746536985039711">
        <ele>128.47</ele>
        <time>2025-05-09T11:48:15Z</time>
      </trkpt>
      <trkpt lat="36.765337027609348" lon="-4.745423030108213">
        <ele>125.59</ele>
        <time>2025-05-09T11:48:25Z</time>
      </trkpt>
      <trkpt lat="36.765614971518517" lon="-4.744260041043162">
        <ele>123.19</ele>
        <time>2025-05-09T11:48:35Z</time>
      </trkpt>
      <trkpt lat="36.765814041718841" lon="-4.743758970871568">
        <ele>121.73999999999999</ele>
        <time>2025-05-09T11:48:39Z</time>
      </trkpt>
      <trkpt lat="36.766509991139174" lon="-4.742695977911353">
        <ele>119.34</ele>
        <time>2025-05-09T11:48:46Z</time>
      </trkpt>
      <trkpt lat="36.767851011827588" lon="-4.740896970033646">
        <ele>114.53</ele>
        <time>2025-05-09T11:48:55Z</time>
      </trkpt>
      <trkpt lat="36.768982987850904" lon="-4.739256966859102">
        <ele>103.95999999999999</ele>
        <time>2025-05-09T11:49:04Z</time>
      </trkpt>
      <trkpt lat="36.769218016415834" lon="-4.738844996318221">
        <ele>98.189999999999998</ele>
        <time>2025-05-09T11:49:08Z</time>
      </trkpt>
      <trkpt lat="36.769261015579104" lon="-4.738769978284836">
        <ele>97.230000000000004</ele>
        <time>2025-05-09T11:49:09Z</time>
      </trkpt>
      <trkpt lat="36.769455978646874" lon="-4.738435037434101">
        <ele>88.579999999999998</ele>
        <time>2025-05-09T11:49:17Z</time>
      </trkpt>
      <trkpt lat="36.769479028880596" lon="-4.738395977765322">
        <ele>86.659999999999997</ele>
        <time>2025-05-09T11:49:19Z</time>
      </trkpt>
      <trkpt lat="36.76948900334537" lon="-4.738378962501884">
        <ele>85.689999999999998</ele>
        <time>2025-05-09T11:49:20Z</time>
      </trkpt>
      <trkpt lat="36.76948900334537" lon="-4.738378962501884">
        <ele>85.209999999999994</ele>
        <time>2025-05-09T11:49:30Z</time>
      </trkpt>
      <trkpt lat="36.769495038315654" lon="-4.738368988037109">
        <ele>85.209999999999994</ele>
        <time>2025-05-09T11:49:58Z</time>
      </trkpt>
      <trkpt lat="36.769499983638525" lon="-4.738360019400716">
        <ele>83.769999999999996</ele>
        <time>2025-05-09T11:49:59Z</time>
      </trkpt>
      <trkpt lat="36.76950903609395" lon="-4.738345015794039">
        <ele>82.810000000000002</ele>
        <time>2025-05-09T11:50:00Z</time>
      </trkpt>
      <trkpt lat="36.769516998901963" lon="-4.738332023844123">
        <ele>81.849999999999994</ele>
        <time>2025-05-09T11:50:01Z</time>
      </trkpt>
      <trkpt lat="36.769516998901963" lon="-4.738332023844123">
        <ele>80.890000000000001</ele>
        <time>2025-05-09T11:50:02Z</time>
      </trkpt>
      <trkpt lat="36.769516998901963" lon="-4.738332023844123">
        <ele>80.409999999999997</ele>
        <time>2025-05-09T11:50:03Z</time>
      </trkpt>
      <trkpt lat="36.769643984735012" lon="-4.738114010542631">
        <ele>75.120000000000005</ele>
        <time>2025-05-09T11:50:17Z</time>
      </trkpt>
      <trkpt lat="36.769668040797114" lon="-4.738073023036122">
        <ele>74.640000000000001</ele>
        <time>2025-05-09T11:50:42Z</time>
      </trkpt>
      <trkpt lat="36.769668040797114" lon="-4.738073023036122">
        <ele>74.640000000000001</ele>
        <time>2025-05-09T11:51:15Z</time>
      </trkpt>
      <trkpt lat="36.769714979454875" lon="-4.737990964204073">
        <ele>75.120000000000005</ele>
        <time>2025-05-09T11:51:31Z</time>
      </trkpt>
      <trkpt lat="36.769714979454875" lon="-4.737990964204073">
        <ele>75.120000000000005</ele>
        <time>2025-05-09T11:51:36Z</time>
      </trkpt>
      <trkpt lat="36.769743980839849" lon="-4.737938996404409">
        <ele>75.120000000000005</ele>
        <time>2025-05-09T11:51:37Z</time>
      </trkpt>
      <trkpt lat="36.769869960844517" lon="-4.737888034433126">
        <ele>75.120000000000005</ele>
        <time>2025-05-09T11:51:38Z</time>
      </trkpt>
      <trkpt lat="36.769913965836167" lon="-4.737924998626113">
        <ele>76.079999999999998</ele>
        <time>2025-05-09T11:51:39Z</time>
      </trkpt>
      <trkpt lat="36.769980015233159" lon="-4.737975960597396">
        <ele>75.599999999999994</ele>
        <time>2025-05-09T11:51:40Z</time>
      </trkpt>
      <trkpt lat="36.770057966932654" lon="-4.738033963367343">
        <ele>75.599999999999994</ele>
        <time>2025-05-09T11:51:41Z</time>
      </trkpt>
      <trkpt lat="36.770145976915956" lon="-4.738096995279193">
        <ele>75.599999999999994</ele>
        <time>2025-05-09T11:51:42Z</time>
      </trkpt>
      <trkpt lat="36.770651992410421" lon="-4.73839296028018">
        <ele>74.640000000000001</ele>
        <time>2025-05-09T11:51:47Z</time>
      </trkpt>
      <trkpt lat="36.770732961595058" lon="-4.738436965271831">
        <ele>74.640000000000001</ele>
        <time>2025-05-09T11:51:48Z</time>
      </trkpt>
      <trkpt lat="36.770801022648811" lon="-4.738466972485185">
        <ele>75.120000000000005</ele>
        <time>2025-05-09T11:51:49Z</time>
      </trkpt>
      <trkpt lat="36.770952986553311" lon="-4.738341998308897">
        <ele>75.120000000000005</ele>
        <time>2025-05-09T11:51:50Z</time>
      </trkpt>
      <trkpt lat="36.77097000181675" lon="-4.738251976668835">
        <ele>75.120000000000005</ele>
        <time>2025-05-09T11:51:51Z</time>
      </trkpt>
      <trkpt lat="36.77099397405982" lon="-4.738130019977689">
        <ele>75.120000000000005</ele>
        <time>2025-05-09T11:51:52Z</time>
      </trkpt>
      <trkpt lat="36.771021969616413" lon="-4.737979983910918">
        <ele>75.120000000000005</ele>
        <time>2025-05-09T11:51:53Z</time>
      </trkpt>
      <trkpt lat="36.771106040105224" lon="-4.736762009561062">
        <ele>74.640000000000001</ele>
        <time>2025-05-09T11:52:00Z</time>
      </trkpt>
      <trkpt lat="36.771341990679502" lon="-4.735121000558138">
        <ele>78.969999999999999</ele>
        <time>2025-05-09T11:52:10Z</time>
      </trkpt>
      <trkpt lat="36.77193702198565" lon="-4.734167978167534">
        <ele>85.209999999999994</ele>
        <time>2025-05-09T11:52:17Z</time>
      </trkpt>
      <trkpt lat="36.772047998383641" lon="-4.734034035354853">
        <ele>86.659999999999997</ele>
        <time>2025-05-09T11:52:18Z</time>
      </trkpt>
      <trkpt lat="36.772859031334519" lon="-4.732726039364934">
        <ele>96.75</ele>
        <time>2025-05-09T11:52:27Z</time>
      </trkpt>
      <trkpt lat="36.773910960182548" lon="-4.730378016829491">
        <ele>101.56</ele>
        <time>2025-05-09T11:52:41Z</time>
      </trkpt>
      <trkpt lat="36.774141965433955" lon="-4.729901002719998">
        <ele>102.04000000000001</ele>
        <time>2025-05-09T11:52:44Z</time>
      </trkpt>
      <trkpt lat="36.774238022044301" lon="-4.729762030765414">
        <ele>102.52</ele>
        <time>2025-05-09T11:52:45Z</time>
      </trkpt>
      <trkpt lat="36.774347992613912" lon="-4.729639990255237">
        <ele>102.04000000000001</ele>
        <time>2025-05-09T11:52:46Z</time>
      </trkpt>
      <trkpt lat="36.774438014253974" lon="-4.729549968615174">
        <ele>102.04000000000001</ele>
        <time>2025-05-09T11:52:47Z</time>
      </trkpt>
      <trkpt lat="36.774600958451629" lon="-4.72947302274406">
        <ele>102.04000000000001</ele>
        <time>2025-05-09T11:52:48Z</time>
      </trkpt>
      <trkpt lat="36.774740014225245" lon="-4.729407979175448">
        <ele>102.04000000000001</ele>
        <time>2025-05-09T11:52:49Z</time>
      </trkpt>
      <trkpt lat="36.774876974523067" lon="-4.729370009154081">
        <ele>102.04000000000001</ele>
        <time>2025-05-09T11:52:50Z</time>
      </trkpt>
      <trkpt lat="36.775027010589838" lon="-4.729351988062263">
        <ele>101.56</ele>
        <time>2025-05-09T11:52:51Z</time>
      </trkpt>
      <trkpt lat="36.775177968665957" lon="-4.729334972798824">
        <ele>101.56</ele>
        <time>2025-05-09T11:52:52Z</time>
      </trkpt>
      <trkpt lat="36.77533496171236" lon="-4.729317035526037">
        <ele>101.08</ele>
        <time>2025-05-09T11:52:53Z</time>
      </trkpt>
      <trkpt lat="36.776645975187421" lon="-4.729056023061276">
        <ele>101.08</ele>
        <time>2025-05-09T11:53:01Z</time>
      </trkpt>
      <trkpt lat="36.77806100808084" lon="-4.728326965123415">
        <ele>96.75</ele>
        <time>2025-05-09T11:53:08Z</time>
      </trkpt>
      <trkpt lat="36.779204970225692" lon="-4.727189959958196">
        <ele>88.099999999999994</ele>
        <time>2025-05-09T11:53:14Z</time>
      </trkpt>
      <trkpt lat="36.779378978535533" lon="-4.727031961083412">
        <ele>87.140000000000001</ele>
        <time>2025-05-09T11:53:15Z</time>
      </trkpt>
      <trkpt lat="36.779563967138529" lon="-4.726902963593602">
        <ele>85.689999999999998</ele>
        <time>2025-05-09T11:53:16Z</time>
      </trkpt>
      <trkpt lat="36.779759014025331" lon="-4.72681000828743">
        <ele>84.730000000000004</ele>
        <time>2025-05-09T11:53:17Z</time>
      </trkpt>
      <trkpt lat="36.779951965436339" lon="-4.726728033274412">
        <ele>84.25</ele>
        <time>2025-05-09T11:53:18Z</time>
      </trkpt>
      <trkpt lat="36.780146006494761" lon="-4.726674975827336">
        <ele>83.769999999999996</ele>
        <time>2025-05-09T11:53:19Z</time>
      </trkpt>
      <trkpt lat="36.782404007390141" lon="-4.726114980876446">
        <ele>89.060000000000002</ele>
        <time>2025-05-09T11:53:31Z</time>
      </trkpt>
      <trkpt lat="36.7837980017066" lon="-4.725433029234409">
        <ele>92.420000000000002</ele>
        <time>2025-05-09T11:53:39Z</time>
      </trkpt>
      <trkpt lat="36.784121040254831" lon="-4.725206969305873">
        <ele>91.939999999999998</ele>
        <time>2025-05-09T11:53:41Z</time>
      </trkpt>
      <trkpt lat="36.784273004159331" lon="-4.725072020664811">
        <ele>91.939999999999998</ele>
        <time>2025-05-09T11:53:42Z</time>
      </trkpt>
      <trkpt lat="36.784408036619425" lon="-4.724916033446789">
        <ele>91.939999999999998</ele>
        <time>2025-05-09T11:53:43Z</time>
      </trkpt>
      <trkpt lat="36.784536028280854" lon="-4.724743030965328">
        <ele>91.939999999999998</ele>
        <time>2025-05-09T11:53:44Z</time>
      </trkpt>
      <trkpt lat="36.784650022163987" lon="-4.724561981856823">
        <ele>91.939999999999998</ele>
        <time>2025-05-09T11:53:45Z</time>
      </trkpt>
      <trkpt lat="36.784801986068487" lon="-4.724161997437477">
        <ele>90.980000000000004</ele>
        <time>2025-05-09T11:53:47Z</time>
      </trkpt>
      <trkpt lat="36.784858983010054" lon="-4.723937027156353">
        <ele>90.5</ele>
        <time>2025-05-09T11:53:48Z</time>
      </trkpt>
      <trkpt lat="36.785342032089829" lon="-4.722055038437247">
        <ele>84.730000000000004</ele>
        <time>2025-05-09T11:53:56Z</time>
      </trkpt>
      <trkpt lat="36.785861039534211" lon="-4.719855962321162">
        <ele>82.810000000000002</ele>
        <time>2025-05-09T11:54:06Z</time>
      </trkpt>
      <trkpt lat="36.786134960129857" lon="-4.718836974352598">
        <ele>85.209999999999994</ele>
        <time>2025-05-09T11:54:11Z</time>
      </trkpt>
      <trkpt lat="36.786221964284778" lon="-4.718662966042757">
        <ele>85.689999999999998</ele>
        <time>2025-05-09T11:54:12Z</time>
      </trkpt>
      <trkpt lat="36.786308968439698" lon="-4.718489041551948">
        <ele>86.180000000000007</ele>
        <time>2025-05-09T11:54:13Z</time>
      </trkpt>
      <trkpt lat="36.786407958716154" lon="-4.718328025192022">
        <ele>86.659999999999997</ele>
        <time>2025-05-09T11:54:14Z</time>
      </trkpt>
      <trkpt lat="36.786529999226332" lon="-4.718193998560309">
        <ele>87.140000000000001</ele>
        <time>2025-05-09T11:54:15Z</time>
      </trkpt>
      <trkpt lat="36.786663020029664" lon="-4.718076987192035">
        <ele>87.620000000000005</ele>
        <time>2025-05-09T11:54:16Z</time>
      </trkpt>
      <trkpt lat="36.786810038611293" lon="-4.717986965551972">
        <ele>88.099999999999994</ele>
        <time>2025-05-09T11:54:17Z</time>
      </trkpt>
      <trkpt lat="36.786960996687412" lon="-4.717930974438787">
        <ele>88.579999999999998</ele>
        <time>2025-05-09T11:54:18Z</time>
      </trkpt>
      <trkpt lat="36.787117989733815" lon="-4.717910019680858">
        <ele>89.060000000000002</ele>
        <time>2025-05-09T11:54:19Z</time>
      </trkpt>
      <trkpt lat="36.78727800026536" lon="-4.717911025509238">
        <ele>89.540000000000006</ele>
        <time>2025-05-09T11:54:20Z</time>
      </trkpt>
      <trkpt lat="36.787453014403582" lon="-4.717942960560322">
        <ele>90.019999999999996</ele>
        <time>2025-05-09T11:54:21Z</time>
      </trkpt>
      <trkpt lat="36.787630962207913" lon="-4.717973973602057">
        <ele>90.5</ele>
        <time>2025-05-09T11:54:22Z</time>
      </trkpt>
      <trkpt lat="36.788507960736752" lon="-4.718130966648459">
        <ele>93.390000000000001</ele>
        <time>2025-05-09T11:54:27Z</time>
      </trkpt>
      <trkpt lat="36.788685992360115" lon="-4.718162985518575">
        <ele>93.870000000000005</ele>
        <time>2025-05-09T11:54:28Z</time>
      </trkpt>
      <trkpt lat="36.78886603564024" lon="-4.71819500438869">
        <ele>94.349999999999994</ele>
        <time>2025-05-09T11:54:29Z</time>
      </trkpt>
      <trkpt lat="36.789392000064254" lon="-4.718292988836765">
        <ele>95.790000000000006</ele>
        <time>2025-05-09T11:54:32Z</time>
      </trkpt>
      <trkpt lat="36.789570031687617" lon="-4.718328025192022">
        <ele>96.269999999999996</ele>
        <time>2025-05-09T11:54:33Z</time>
      </trkpt>
      <trkpt lat="36.790134971961379" lon="-4.718435984104872">
        <ele>98.189999999999998</ele>
        <time>2025-05-09T11:54:36Z</time>
      </trkpt>
      <trkpt lat="36.790727991610765" lon="-4.718454005196691">
        <ele>98.670000000000002</ele>
        <time>2025-05-09T11:54:39Z</time>
      </trkpt>
      <trkpt lat="36.790912980213761" lon="-4.718429027125239">
        <ele>98.670000000000002</ele>
        <time>2025-05-09T11:54:40Z</time>
      </trkpt>
      <trkpt lat="36.791084976866841" lon="-4.718390973284841">
        <ele>98.670000000000002</ele>
        <time>2025-05-09T11:54:41Z</time>
      </trkpt>
      <trkpt lat="36.791254039853811" lon="-4.718332970514894">
        <ele>98.670000000000002</ele>
        <time>2025-05-09T11:54:42Z</time>
      </trkpt>
      <trkpt lat="36.79142695851624" lon="-4.718252001330257">
        <ele>98.189999999999998</ele>
        <time>2025-05-09T11:54:43Z</time>
      </trkpt>
      <trkpt lat="36.791599960997701" lon="-4.718149993568659">
        <ele>97.709999999999994</ele>
        <time>2025-05-09T11:54:44Z</time>
      </trkpt>
      <trkpt lat="36.792739983648062" lon="-4.717153972014785">
        <ele>93.870000000000005</ele>
        <time>2025-05-09T11:54:52Z</time>
      </trkpt>
      <trkpt lat="36.792995966970921" lon="-4.71679899841547">
        <ele>92.420000000000002</ele>
        <time>2025-05-09T11:54:54Z</time>
      </trkpt>
      <trkpt lat="36.793111972510815" lon="-4.716589031741023">
        <ele>91.459999999999994</ele>
        <time>2025-05-09T11:54:55Z</time>
      </trkpt>
      <trkpt lat="36.794167002663016" lon="-4.714878033846617">
        <ele>90.019999999999996</ele>
        <time>2025-05-09T11:55:04Z</time>
      </trkpt>
      <trkpt lat="36.794480988755822" lon="-4.714603023603559">
        <ele>90.019999999999996</ele>
        <time>2025-05-09T11:55:06Z</time>
      </trkpt>
      <trkpt lat="36.79464703425765" lon="-4.714489029720426">
        <ele>90.5</ele>
        <time>2025-05-09T11:55:07Z</time>
      </trkpt>
      <trkpt lat="36.794823976233602" lon="-4.714400013908744">
        <ele>90.5</ele>
        <time>2025-05-09T11:55:08Z</time>
      </trkpt>
      <trkpt lat="36.795003013685346" lon="-4.714310998097062">
        <ele>90.980000000000004</ele>
        <time>2025-05-09T11:55:09Z</time>
      </trkpt>
      <trkpt lat="36.7951849848032" lon="-4.714219970628619">
        <ele>91.459999999999994</ele>
        <time>2025-05-09T11:55:10Z</time>
      </trkpt>
      <trkpt lat="36.795380031690001" lon="-4.714166997000575">
        <ele>91.939999999999998</ele>
        <time>2025-05-09T11:55:11Z</time>
      </trkpt>
      <trkpt lat="36.795583041384816" lon="-4.714137995615602">
        <ele>91.939999999999998</ele>
        <time>2025-05-09T11:55:12Z</time>
      </trkpt>
      <trkpt lat="36.797144003212452" lon="-4.7140499856323">
        <ele>94.349999999999994</ele>
        <time>2025-05-09T11:55:20Z</time>
      </trkpt>
      <trkpt lat="36.79855995811522" lon="-4.713457971811295">
        <ele>96.269999999999996</ele>
        <time>2025-05-09T11:55:28Z</time>
      </trkpt>
      <trkpt lat="36.800187975168228" lon="-4.71288800239563">
        <ele>98.670000000000002</ele>
        <time>2025-05-09T11:55:37Z</time>
      </trkpt>
      <trkpt lat="36.802163003012538" lon="-4.712508972734213">
        <ele>103.48</ele>
        <time>2025-05-09T11:55:48Z</time>
      </trkpt>
      <trkpt lat="36.80382396094501" lon="-4.712026007473469">
        <ele>100.11</ele>
        <time>2025-05-09T11:55:57Z</time>
      </trkpt>
      <trkpt lat="36.8039920181036" lon="-4.711904972791672">
        <ele>99.629999999999995</ele>
        <time>2025-05-09T11:55:58Z</time>
      </trkpt>
      <trkpt lat="36.804155968129635" lon="-4.711787039414048">
        <ele>99.150000000000006</ele>
        <time>2025-05-09T11:55:59Z</time>
      </trkpt>
      <trkpt lat="36.804301980882883" lon="-4.711645971983671">
        <ele>98.189999999999998</ele>
        <time>2025-05-09T11:56:00Z</time>
      </trkpt>
      <trkpt lat="36.804439024999738" lon="-4.711485961452127">
        <ele>97.709999999999994</ele>
        <time>2025-05-09T11:56:01Z</time>
      </trkpt>
      <trkpt lat="36.80457497946918" lon="-4.711327040567994">
        <ele>96.75</ele>
        <time>2025-05-09T11:56:02Z</time>
      </trkpt>
      <trkpt lat="36.805785996839404" lon="-4.709575977176428">
        <ele>92.420000000000002</ele>
        <time>2025-05-09T11:56:12Z</time>
      </trkpt>
      <trkpt lat="36.806956026703119" lon="-4.708479037508369">
        <ele>96.269999999999996</ele>
        <time>2025-05-09T11:56:20Z</time>
      </trkpt>
      <trkpt lat="36.808469966053963" lon="-4.707384025678039">
        <ele>97.230000000000004</ele>
        <time>2025-05-09T11:56:30Z</time>
      </trkpt>
      <trkpt lat="36.809434974566102" lon="-4.706676006317139">
        <ele>98.189999999999998</ele>
        <time>2025-05-09T11:56:37Z</time>
      </trkpt>
      <trkpt lat="36.809550980105996" lon="-4.706492023542523">
        <ele>98.670000000000002</ele>
        <time>2025-05-09T11:56:38Z</time>
      </trkpt>
      <trkpt lat="36.80964301340282" lon="-4.706348022446036">
        <ele>98.670000000000002</ele>
        <time>2025-05-09T11:56:39Z</time>
      </trkpt>
      <trkpt lat="36.809715013951063" lon="-4.706199998036027">
        <ele>98.670000000000002</ele>
        <time>2025-05-09T11:56:40Z</time>
      </trkpt>
      <trkpt lat="36.809735968708992" lon="-4.706029007211328">
        <ele>98.670000000000002</ele>
        <time>2025-05-09T11:56:41Z</time>
      </trkpt>
      <trkpt lat="36.809735968708992" lon="-4.705857010558248">
        <ele>98.189999999999998</ele>
        <time>2025-05-09T11:56:42Z</time>
      </trkpt>
      <trkpt lat="36.809706967324018" lon="-4.705690965056419">
        <ele>98.189999999999998</ele>
        <time>2025-05-09T11:56:43Z</time>
      </trkpt>
      <trkpt lat="36.809658017009497" lon="-4.705528020858765">
        <ele>97.709999999999994</ele>
        <time>2025-05-09T11:56:44Z</time>
      </trkpt>
      <trkpt lat="36.809592973440886" lon="-4.705373039469123">
        <ele>97.709999999999994</ele>
        <time>2025-05-09T11:56:45Z</time>
      </trkpt>
      <trkpt lat="36.80880700238049" lon="-4.703444028273225">
        <ele>92.900000000000006</ele>
        <time>2025-05-09T11:56:56Z</time>
      </trkpt>
      <trkpt lat="36.808758974075317" lon="-4.703264990821481">
        <ele>92.420000000000002</ele>
        <time>2025-05-09T11:56:57Z</time>
      </trkpt>
      <trkpt lat="36.80837701074779" lon="-4.701445028185844">
        <ele>89.060000000000002</ele>
        <time>2025-05-09T11:57:08Z</time>
      </trkpt>
      <trkpt lat="36.808138964697719" lon="-4.700891990214586">
        <ele>88.579999999999998</ele>
        <time>2025-05-09T11:57:12Z</time>
      </trkpt>
      <trkpt lat="36.808082973584533" lon="-4.700774978846312">
        <ele>88.579999999999998</ele>
        <time>2025-05-09T11:57:13Z</time>
      </trkpt>
      <trkpt lat="36.808019019663334" lon="-4.700689986348152">
        <ele>88.579999999999998</ele>
        <time>2025-05-09T11:57:14Z</time>
      </trkpt>
      <trkpt lat="36.807950958609581" lon="-4.70060097053647">
        <ele>89.060000000000002</ele>
        <time>2025-05-09T11:57:15Z</time>
      </trkpt>
      <trkpt lat="36.807870995253325" lon="-4.700538022443652">
        <ele>89.060000000000002</ele>
        <time>2025-05-09T11:57:16Z</time>
      </trkpt>
      <trkpt lat="36.807199018076062" lon="-4.699971992522478">
        <ele>91.939999999999998</ele>
        <time>2025-05-09T11:57:23Z</time>
      </trkpt>
      <trkpt lat="36.807111008092761" lon="-4.699851041659713">
        <ele>91.939999999999998</ele>
        <time>2025-05-09T11:57:24Z</time>
      </trkpt>
      <trkpt lat="36.807040013372898" lon="-4.699711985886097">
        <ele>91.939999999999998</ele>
        <time>2025-05-09T11:57:25Z</time>
      </trkpt>
      <trkpt lat="36.806972036138177" lon="-4.699566978961229">
        <ele>92.420000000000002</ele>
        <time>2025-05-09T11:57:26Z</time>
      </trkpt>
      <trkpt lat="36.806903975084424" lon="-4.699423983693123">
        <ele>92.900000000000006</ele>
        <time>2025-05-09T11:57:27Z</time>
      </trkpt>
      <trkpt lat="36.806440036743879" lon="-4.698350010439754">
        <ele>93.870000000000005</ele>
        <time>2025-05-09T11:57:35Z</time>
      </trkpt>
      <trkpt lat="36.806402988731861" lon="-4.698197040706873">
        <ele>93.870000000000005</ele>
        <time>2025-05-09T11:57:36Z</time>
      </trkpt>
      <trkpt lat="36.806387985125184" lon="-4.698050022125244">
        <ele>94.349999999999994</ele>
        <time>2025-05-09T11:57:37Z</time>
      </trkpt>
      <trkpt lat="36.806396031752229" lon="-4.697923036292195">
        <ele>94.829999999999998</ele>
        <time>2025-05-09T11:57:38Z</time>
      </trkpt>
      <trkpt lat="36.806403994560242" lon="-4.697806024923921">
        <ele>95.310000000000002</ele>
        <time>2025-05-09T11:57:39Z</time>
      </trkpt>
      <trkpt lat="36.806410029530525" lon="-4.697705022990704">
        <ele>95.790000000000006</ele>
        <time>2025-05-09T11:57:40Z</time>
      </trkpt>
      <trkpt lat="36.806428972631693" lon="-4.697607960551977">
        <ele>96.75</ele>
        <time>2025-05-09T11:57:41Z</time>
      </trkpt>
      <trkpt lat="36.806450011208653" lon="-4.69750695861876">
        <ele>97.709999999999994</ele>
        <time>2025-05-09T11:57:42Z</time>
      </trkpt>
      <trkpt lat="36.806473983451724" lon="-4.697385001927614">
        <ele>98.189999999999998</ele>
        <time>2025-05-09T11:57:43Z</time>
      </trkpt>
      <trkpt lat="36.806515976786613" lon="-4.69728802330792">
        <ele>99.150000000000006</ele>
        <time>2025-05-09T11:57:44Z</time>
      </trkpt>
      <trkpt lat="36.806783024221659" lon="-4.696700032800436">
        <ele>103.48</ele>
        <time>2025-05-09T11:57:52Z</time>
      </trkpt>
      <trkpt lat="36.806815965101123" lon="-4.69662400893867">
        <ele>104.44</ele>
        <time>2025-05-09T11:57:54Z</time>
      </trkpt>
      <trkpt lat="36.806839015334845" lon="-4.696569023653865">
        <ele>105.40000000000001</ele>
        <time>2025-05-09T11:57:55Z</time>
      </trkpt>
      <trkpt lat="36.807121988385916" lon="-4.695880031213164">
        <ele>109.25</ele>
        <time>2025-05-09T11:58:04Z</time>
      </trkpt>
      <trkpt lat="36.807137997820973" lon="-4.695796966552734">
        <ele>109.73</ele>
        <time>2025-05-09T11:58:05Z</time>
      </trkpt>
      <trkpt lat="36.807150989770889" lon="-4.695725971832871">
        <ele>109.73</ele>
        <time>2025-05-09T11:58:06Z</time>
      </trkpt>
      <trkpt lat="36.807161970064044" lon="-4.695667969062924">
        <ele>110.20999999999999</ele>
        <time>2025-05-09T11:58:07Z</time>
      </trkpt>
      <trkpt lat="36.807117965072393" lon="-4.695581970736384">
        <ele>110.20999999999999</ele>
        <time>2025-05-09T11:58:08Z</time>
      </trkpt>
      <trkpt lat="36.807090975344181" lon="-4.69557199627161">
        <ele>110.20999999999999</ele>
        <time>2025-05-09T11:58:09Z</time>
      </trkpt>
      <trkpt lat="36.807011011987925" lon="-4.695480968803167">
        <ele>110.20999999999999</ele>
        <time>2025-05-09T11:58:10Z</time>
      </trkpt>
      <trkpt lat="36.807011011987925" lon="-4.695409974083304">
        <ele>110.20999999999999</ele>
        <time>2025-05-09T11:58:11Z</time>
      </trkpt>
      <trkpt lat="36.807011011987925" lon="-4.695344008505344">
        <ele>110.20999999999999</ele>
        <time>2025-05-09T11:58:12Z</time>
      </trkpt>
      <trkpt lat="36.807011011987925" lon="-4.695324981585145">
        <ele>110.69</ele>
        <time>2025-05-09T11:58:13Z</time>
      </trkpt>
      <trkpt lat="36.80708603002131" lon="-4.695275025442243">
        <ele>110.69</ele>
        <time>2025-05-09T11:58:14Z</time>
      </trkpt>
      <trkpt lat="36.807120982557535" lon="-4.695251975208521">
        <ele>110.69</ele>
        <time>2025-05-09T11:58:15Z</time>
      </trkpt>
      <trkpt lat="36.807139003649354" lon="-4.695238983258605">
        <ele>110.69</ele>
        <time>2025-05-09T11:58:16Z</time>
      </trkpt>
      <trkpt lat="36.807155013084412" lon="-4.695254992693663">
        <ele>110.69</ele>
        <time>2025-05-09T11:58:17Z</time>
      </trkpt>
      <trkpt lat="36.807188037782907" lon="-4.695288017392159">
        <ele>110.69</ele>
        <time>2025-05-09T11:58:18Z</time>
      </trkpt>
      <trkpt lat="36.80721896700561" lon="-4.695319030433893">
        <ele>110.20999999999999</ele>
        <time>2025-05-09T11:58:19Z</time>
      </trkpt>
      <trkpt lat="36.807225001975894" lon="-4.695324981585145">
        <ele>110.20999999999999</ele>
        <time>2025-05-09T11:58:20Z</time>
      </trkpt>
      <trkpt lat="36.807225001975894" lon="-4.695324981585145">
        <ele>110.20999999999999</ele>
        <time>2025-05-09T11:58:21Z</time>
      </trkpt>
      <trkpt lat="36.807439997792244" lon="-4.695367980748415">
        <ele>109.73</ele>
        <time>2025-05-09T11:58:24Z</time>
      </trkpt>
      <trkpt lat="36.807503029704094" lon="-4.695325987413526">
        <ele>109.25</ele>
        <time>2025-05-09T11:58:25Z</time>
      </trkpt>
      <trkpt lat="36.807562038302422" lon="-4.695287011563778">
        <ele>109.25</ele>
        <time>2025-05-09T11:58:26Z</time>
      </trkpt>
      <trkpt lat="36.807621968910098" lon="-4.69524702988565">
        <ele>109.25</ele>
        <time>2025-05-09T11:58:27Z</time>
      </trkpt>
      <trkpt lat="36.807679971680045" lon="-4.69520797021687">
        <ele>108.77</ele>
        <time>2025-05-09T11:58:28Z</time>
      </trkpt>
      <trkpt lat="36.808246001601219" lon="-4.694832963868976">
        <ele>105.88</ele>
        <time>2025-05-09T11:58:36Z</time>
      </trkpt>
      <trkpt lat="36.808411963284016" lon="-4.694760963320732">
        <ele>104.44</ele>
        <time>2025-05-09T11:58:38Z</time>
      </trkpt>
      <trkpt lat="36.808500979095697" lon="-4.694750988855958">
        <ele>103.95999999999999</ele>
        <time>2025-05-09T11:58:39Z</time>
      </trkpt>
      <trkpt lat="36.808587983250618" lon="-4.694760963320732">
        <ele>103.48</ele>
        <time>2025-05-09T11:58:40Z</time>
      </trkpt>
      <trkpt lat="36.808652020990849" lon="-4.694782001897693">
        <ele>103</ele>
        <time>2025-05-09T11:58:41Z</time>
      </trkpt>
      <trkpt lat="36.808701977133751" lon="-4.694849979132414">
        <ele>102.52</ele>
        <time>2025-05-09T11:58:42Z</time>
      </trkpt>
      <trkpt lat="36.808750005438924" lon="-4.694915022701025">
        <ele>101.08</ele>
        <time>2025-05-09T11:58:43Z</time>
      </trkpt>
      <trkpt lat="36.808796022087336" lon="-4.694977970793843">
        <ele>100.59999999999999</ele>
        <time>2025-05-09T11:58:44Z</time>
      </trkpt>
      <trkpt lat="36.808877997100353" lon="-4.695089031010866">
        <ele>100.11</ele>
        <time>2025-05-09T11:58:46Z</time>
      </trkpt>
      <trkpt lat="36.808900963515043" lon="-4.695160025730729">
        <ele>99.629999999999995</ele>
        <time>2025-05-09T11:58:47Z</time>
      </trkpt>
      <trkpt lat="36.808923007920384" lon="-4.695225991308689">
        <ele>99.629999999999995</ele>
        <time>2025-05-09T11:58:48Z</time>
      </trkpt>
      <trkpt lat="36.808942034840584" lon="-4.695281982421875">
        <ele>99.629999999999995</ele>
        <time>2025-05-09T11:58:49Z</time>
      </trkpt>
      <trkpt lat="36.808942034840584" lon="-4.695341996848583">
        <ele>99.150000000000006</ele>
        <time>2025-05-09T11:58:50Z</time>
      </trkpt>
      <trkpt lat="36.808942034840584" lon="-4.695410979911685">
        <ele>99.150000000000006</ele>
        <time>2025-05-09T11:58:51Z</time>
      </trkpt>
      <trkpt lat="36.808942034840584" lon="-4.695482980459929">
        <ele>99.150000000000006</ele>
        <time>2025-05-09T11:58:52Z</time>
      </trkpt>
      <trkpt lat="36.808942034840584" lon="-4.695624969899654">
        <ele>98.670000000000002</ele>
        <time>2025-05-09T11:58:54Z</time>
      </trkpt>
      <trkpt lat="36.808918984606862" lon="-4.695690013468266">
        <ele>98.670000000000002</ele>
        <time>2025-05-09T11:58:55Z</time>
      </trkpt>
      <trkpt lat="36.808879002928734" lon="-4.695765031501651">
        <ele>98.670000000000002</ele>
        <time>2025-05-09T11:58:56Z</time>
      </trkpt>
      <trkpt lat="36.808770038187504" lon="-4.695970974862576">
        <ele>100.11</ele>
        <time>2025-05-09T11:58:59Z</time>
      </trkpt>
      <trkpt lat="36.808748999610543" lon="-4.696039035916328">
        <ele>100.11</ele>
        <time>2025-05-09T11:59:00Z</time>
      </trkpt>
      <trkpt lat="36.808748999610543" lon="-4.696110030636191">
        <ele>100.11</ele>
        <time>2025-05-09T11:59:01Z</time>
      </trkpt>
      <trkpt lat="36.808748999610543" lon="-4.696187982335687">
        <ele>100.59999999999999</ele>
        <time>2025-05-09T11:59:02Z</time>
      </trkpt>
      <trkpt lat="36.808770960196853" lon="-4.69625998288393">
        <ele>100.59999999999999</ele>
        <time>2025-05-09T11:59:03Z</time>
      </trkpt>
      <trkpt lat="36.808813037350774" lon="-4.69632301479578">
        <ele>101.08</ele>
        <time>2025-05-09T11:59:04Z</time>
      </trkpt>
      <trkpt lat="36.808856958523393" lon="-4.69638797454536">
        <ele>101.08</ele>
        <time>2025-05-09T11:59:05Z</time>
      </trkpt>
      <trkpt lat="36.808903981000185" lon="-4.696436002850533">
        <ele>101.08</ele>
        <time>2025-05-09T11:59:06Z</time>
      </trkpt>
      <trkpt lat="36.808959972113371" lon="-4.69647103920579">
        <ele>101.56</ele>
        <time>2025-05-09T11:59:07Z</time>
      </trkpt>
      <trkpt lat="36.809018980711699" lon="-4.696508003398776">
        <ele>101.56</ele>
        <time>2025-05-09T11:59:08Z</time>
      </trkpt>
      <trkpt lat="36.809148984029889" lon="-4.696541028097272">
        <ele>101.56</ele>
        <time>2025-05-09T11:59:10Z</time>
      </trkpt>
      <trkpt lat="36.80921302177012" lon="-4.696549996733666">
        <ele>102.04000000000001</ele>
        <time>2025-05-09T11:59:11Z</time>
      </trkpt>
      <trkpt lat="36.809359034523368" lon="-4.696572041139007">
        <ele>102.52</ele>
        <time>2025-05-09T11:59:13Z</time>
      </trkpt>
      <trkpt lat="36.809437992051244" lon="-4.696590984240174">
        <ele>102.52</ele>
        <time>2025-05-09T11:59:14Z</time>
      </trkpt>
      <trkpt lat="36.810337034985423" lon="-4.69688200391829">
        <ele>103.95999999999999</ele>
        <time>2025-05-09T11:59:24Z</time>
      </trkpt>
      <trkpt lat="36.811526007950306" lon="-4.697328004986048">
        <ele>107.81</ele>
        <time>2025-05-09T11:59:36Z</time>
      </trkpt>
      <trkpt lat="36.811633966863155" lon="-4.69735499471426">
        <ele>107.81</ele>
        <time>2025-05-09T11:59:37Z</time>
      </trkpt>
      <trkpt lat="36.812680028378963" lon="-4.697679039090872">
        <ele>108.77</ele>
        <time>2025-05-09T11:59:47Z</time>
      </trkpt>
      <trkpt lat="36.813156958669424" lon="-4.697900991886854">
        <ele>110.20999999999999</ele>
        <time>2025-05-09T11:59:52Z</time>
      </trkpt>
      <trkpt lat="36.813558032736182" lon="-4.698071982711554">
        <ele>110.20999999999999</ele>
        <time>2025-05-09T11:59:56Z</time>
      </trkpt>
      <trkpt lat="36.814493034034967" lon="-4.698154963552952">
        <ele>108.29000000000001</ele>
        <time>2025-05-09T12:00:06Z</time>
      </trkpt>
      <trkpt lat="36.815115977078676" lon="-4.698179019615054">
        <ele>107.81</ele>
        <time>2025-05-09T12:00:15Z</time>
      </trkpt>
      <trkpt lat="36.815243968740106" lon="-4.698179019615054">
        <ele>108.77</ele>
        <time>2025-05-09T12:00:17Z</time>
      </trkpt>
      <trkpt lat="36.815785020589828" lon="-4.69832100905478">
        <ele>115.01000000000001</ele>
        <time>2025-05-09T12:00:27Z</time>
      </trkpt>
      <trkpt lat="36.816438976675272" lon="-4.698411030694842">
        <ele>117.42</ele>
        <time>2025-05-09T12:00:35Z</time>
      </trkpt>
      <trkpt lat="36.816618014127016" lon="-4.698355961591005">
        <ele>116.94</ele>
        <time>2025-05-09T12:00:37Z</time>
      </trkpt>
      <trkpt lat="36.816684985533357" lon="-4.698288990184665">
        <ele>116.94</ele>
        <time>2025-05-09T12:00:38Z</time>
      </trkpt>
      <trkpt lat="36.816752962768078" lon="-4.698221012949944">
        <ele>117.42</ele>
        <time>2025-05-09T12:00:39Z</time>
      </trkpt>
      <trkpt lat="36.816817000508308" lon="-4.698156975209713">
        <ele>116.94</ele>
        <time>2025-05-09T12:00:40Z</time>
      </trkpt>
      <trkpt lat="36.816835021600127" lon="-4.698075000196695">
        <ele>117.42</ele>
        <time>2025-05-09T12:00:41Z</time>
      </trkpt>
      <trkpt lat="36.816852958872914" lon="-4.69799998216331">
        <ele>117.42</ele>
        <time>2025-05-09T12:00:42Z</time>
      </trkpt>
      <trkpt lat="36.816867040470243" lon="-4.697937034070492">
        <ele>117.90000000000001</ele>
        <time>2025-05-09T12:00:43Z</time>
      </trkpt>
      <trkpt lat="36.816880032420158" lon="-4.697880037128925">
        <ele>118.38</ele>
        <time>2025-05-09T12:00:44Z</time>
      </trkpt>
      <trkpt lat="36.816893024370074" lon="-4.697823962196708">
        <ele>118.86</ele>
        <time>2025-05-09T12:00:45Z</time>
      </trkpt>
      <trkpt lat="36.816962007433176" lon="-4.697348959743977">
        <ele>122.22</ele>
        <time>2025-05-09T12:00:53Z</time>
      </trkpt>
      <trkpt lat="36.816968964412808" lon="-4.697271008044481">
        <ele>122.22</ele>
        <time>2025-05-09T12:00:54Z</time>
      </trkpt>
      <trkpt lat="36.817021016031504" lon="-4.696740014478564">
        <ele>124.63</ele>
        <time>2025-05-09T12:01:03Z</time>
      </trkpt>
      <trkpt lat="36.817026967182755" lon="-4.696681005880237">
        <ele>124.63</ele>
        <time>2025-05-09T12:01:04Z</time>
      </trkpt>
      <trkpt lat="36.817107014358044" lon="-4.696241961792111">
        <ele>124.63</ele>
        <time>2025-05-09T12:01:09Z</time>
      </trkpt>
      <trkpt lat="36.817139033228159" lon="-4.696140037849546">
        <ele>124.15000000000001</ele>
        <time>2025-05-09T12:01:10Z</time>
      </trkpt>
      <trkpt lat="36.817283034324646" lon="-4.695652965456247">
        <ele>122.22</ele>
        <time>2025-05-09T12:01:14Z</time>
      </trkpt>
      <trkpt lat="36.81752703152597" lon="-4.694299036636949">
        <ele>115.5</ele>
        <time>2025-05-09T12:01:22Z</time>
      </trkpt>
      <trkpt lat="36.817709002643824" lon="-4.69352999702096">
        <ele>114.53</ele>
        <time>2025-05-09T12:01:26Z</time>
      </trkpt>
      <trkpt lat="36.817801035940647" lon="-4.693354982882738">
        <ele>114.53</ele>
        <time>2025-05-09T12:01:27Z</time>
      </trkpt>
      <trkpt lat="36.817907989025116" lon="-4.693194972351193">
        <ele>114.53</ele>
        <time>2025-05-09T12:01:28Z</time>
      </trkpt>
      <trkpt lat="36.818016031756997" lon="-4.693032028153539">
        <ele>114.05</ele>
        <time>2025-05-09T12:01:29Z</time>
      </trkpt>
      <trkpt lat="36.818147040903568" lon="-4.692869000136852">
        <ele>114.05</ele>
        <time>2025-05-09T12:01:30Z</time>
      </trkpt>
      <trkpt lat="36.818305961787701" lon="-4.692749977111816">
        <ele>113.56999999999999</ele>
        <time>2025-05-09T12:01:31Z</time>
      </trkpt>
      <trkpt lat="36.818472007289529" lon="-4.692628020420671">
        <ele>112.61</ele>
        <time>2025-05-09T12:01:32Z</time>
      </trkpt>
      <trkpt lat="36.818644003942609" lon="-4.692500028759241">
        <ele>112.61</ele>
        <time>2025-05-09T12:01:33Z</time>
      </trkpt>
      <trkpt lat="36.818822035565972" lon="-4.692372959107161">
        <ele>112.13</ele>
        <time>2025-05-09T12:01:34Z</time>
      </trkpt>
      <trkpt lat="36.820102035999298" lon="-4.691688995808363">
        <ele>111.65000000000001</ele>
        <time>2025-05-09T12:01:41Z</time>
      </trkpt>
      <trkpt lat="36.820290964096785" lon="-4.691633004695177">
        <ele>111.65000000000001</ele>
        <time>2025-05-09T12:01:42Z</time>
      </trkpt>
      <trkpt lat="36.820482993498445" lon="-4.691598974168301">
        <ele>111.65000000000001</ele>
        <time>2025-05-09T12:01:43Z</time>
      </trkpt>
      <trkpt lat="36.821279022842646" lon="-4.69148900359869">
        <ele>111.65000000000001</ele>
        <time>2025-05-09T12:01:47Z</time>
      </trkpt>
      <trkpt lat="36.82264300994575" lon="-4.690789030864835">
        <ele>111.65000000000001</ele>
        <time>2025-05-09T12:01:55Z</time>
      </trkpt>
      <trkpt lat="36.823300989344716" lon="-4.69039298593998">
        <ele>113.09</ele>
        <time>2025-05-09T12:02:00Z</time>
      </trkpt>
      <trkpt lat="36.823535012081265" lon="-4.690316040068865">
        <ele>113.56999999999999</ele>
        <time>2025-05-09T12:02:02Z</time>
      </trkpt>
      <trkpt lat="36.823655962944031" lon="-4.69028796069324">
        <ele>114.05</ele>
        <time>2025-05-09T12:02:03Z</time>
      </trkpt>
      <trkpt lat="36.824321988970041" lon="-4.690258959308267">
        <ele>115.01000000000001</ele>
        <time>2025-05-09T12:02:09Z</time>
      </trkpt>
      <trkpt lat="36.824431037530303" lon="-4.690216965973377">
        <ele>115.01000000000001</ele>
        <time>2025-05-09T12:02:10Z</time>
      </trkpt>
      <trkpt lat="36.824535978958011" lon="-4.690175978466868">
        <ele>115.01000000000001</ele>
        <time>2025-05-09T12:02:11Z</time>
      </trkpt>
      <trkpt lat="36.824648967012763" lon="-4.690131973475218">
        <ele>115.5</ele>
        <time>2025-05-09T12:02:12Z</time>
      </trkpt>
      <trkpt lat="36.824708981439471" lon="-4.690088974311948">
        <ele>115.5</ele>
        <time>2025-05-09T12:02:13Z</time>
      </trkpt>
      <trkpt lat="36.825020033866167" lon="-4.689847994595766">
        <ele>116.45999999999999</ele>
        <time>2025-05-09T12:02:17Z</time>
      </trkpt>
      <trkpt lat="36.825105026364326" lon="-4.689784962683916">
        <ele>116.94</ele>
        <time>2025-05-09T12:02:18Z</time>
      </trkpt>
      <trkpt lat="36.825372995808721" lon="-4.689611038193107">
        <ele>117.42</ele>
        <time>2025-05-09T12:02:21Z</time>
      </trkpt>
      <trkpt lat="36.825475003570318" lon="-4.689603997394443">
        <ele>117.90000000000001</ele>
        <time>2025-05-09T12:02:22Z</time>
      </trkpt>
      <trkpt lat="36.825567036867142" lon="-4.689613971859217">
        <ele>118.38</ele>
        <time>2025-05-09T12:02:23Z</time>
      </trkpt>
      <trkpt lat="36.825639959424734" lon="-4.689622018486261">
        <ele>118.38</ele>
        <time>2025-05-09T12:02:24Z</time>
      </trkpt>
      <trkpt lat="36.825692011043429" lon="-4.689627969637513">
        <ele>118.86</ele>
        <time>2025-05-09T12:02:25Z</time>
      </trkpt>
      <trkpt lat="36.825821008533239" lon="-4.689645990729332">
        <ele>119.81999999999999</ele>
        <time>2025-05-09T12:02:29Z</time>
      </trkpt>
      <trkpt lat="36.825918992981315" lon="-4.689667029306293">
        <ele>120.3</ele>
        <time>2025-05-09T12:02:31Z</time>
      </trkpt>
      <trkpt lat="36.825999040156603" lon="-4.689683960750699">
        <ele>120.78</ele>
        <time>2025-05-09T12:02:32Z</time>
      </trkpt>
      <trkpt lat="36.826679985970259" lon="-4.689886970445514">
        <ele>122.22</ele>
        <time>2025-05-09T12:02:37Z</time>
      </trkpt>
      <trkpt lat="36.827738033607602" lon="-4.69024102203548">
        <ele>127.03</ele>
        <time>2025-05-09T12:02:44Z</time>
      </trkpt>
      <trkpt lat="36.82859399355948" lon="-4.690515026450157">
        <ele>128.47</ele>
        <time>2025-05-09T12:02:51Z</time>
      </trkpt>
      <trkpt lat="36.829083999618888" lon="-4.690546961501241">
        <ele>127.51000000000001</ele>
        <time>2025-05-09T12:02:55Z</time>
      </trkpt>
      <trkpt lat="36.829189024865627" lon="-4.690537992864847">
        <ele>127.03</ele>
        <time>2025-05-09T12:02:56Z</time>
      </trkpt>
      <trkpt lat="36.829296983778477" lon="-4.690517960116267">
        <ele>126.55</ele>
        <time>2025-05-09T12:02:57Z</time>
      </trkpt>
      <trkpt lat="36.829820014536381" lon="-4.6903280261904">
        <ele>126.06999999999999</ele>
        <time>2025-05-09T12:03:02Z</time>
      </trkpt>
      <trkpt lat="36.830666000023484" lon="-4.689955031499267">
        <ele>126.06999999999999</ele>
        <time>2025-05-09T12:03:11Z</time>
      </trkpt>
      <trkpt lat="36.830756021663547" lon="-4.689875990152359">
        <ele>126.06999999999999</ele>
        <time>2025-05-09T12:03:12Z</time>
      </trkpt>
      <trkpt lat="36.831869976595044" lon="-4.689090019091964">
        <ele>122.22</ele>
        <time>2025-05-09T12:03:22Z</time>
      </trkpt>
      <trkpt lat="36.832150015980005" lon="-4.688919028267264">
        <ele>120.78</ele>
        <time>2025-05-09T12:03:24Z</time>
      </trkpt>
      <trkpt lat="36.832300974056125" lon="-4.68886898830533">
        <ele>120.3</ele>
        <time>2025-05-09T12:03:25Z</time>
      </trkpt>
      <trkpt lat="36.833456000313163" lon="-4.688484007492662">
        <ele>117.42</ele>
        <time>2025-05-09T12:03:34Z</time>
      </trkpt>
      <trkpt lat="36.834579007700086" lon="-4.688069019466639">
        <ele>120.3</ele>
        <time>2025-05-09T12:03:45Z</time>
      </trkpt>
      <trkpt lat="36.835522977635264" lon="-4.687540959566832">
        <ele>119.34</ele>
        <time>2025-05-09T12:03:55Z</time>
      </trkpt>
      <trkpt lat="36.836721003055573" lon="-4.686866970732808">
        <ele>121.26000000000001</ele>
        <time>2025-05-09T12:04:06Z</time>
      </trkpt>
      <trkpt lat="36.837808974087238" lon="-4.686271017417312">
        <ele>121.73999999999999</ele>
        <time>2025-05-09T12:04:14Z</time>
      </trkpt>
      <trkpt lat="36.838123966008425" lon="-4.686098014935851">
        <ele>121.73999999999999</ele>
        <time>2025-05-09T12:04:16Z</time>
      </trkpt>
      <trkpt lat="36.838301997631788" lon="-4.686065996065736">
        <ele>122.22</ele>
        <time>2025-05-09T12:04:17Z</time>
      </trkpt>
      <trkpt lat="36.83847701177001" lon="-4.686033977195621">
        <ele>122.22</ele>
        <time>2025-05-09T12:04:18Z</time>
      </trkpt>
      <trkpt lat="36.839535981416702" lon="-4.685840019956231">
        <ele>125.59</ele>
        <time>2025-05-09T12:04:25Z</time>
      </trkpt>
      <trkpt lat="36.839780984446406" lon="-4.685726026073098">
        <ele>125.11</ele>
        <time>2025-05-09T12:04:27Z</time>
      </trkpt>
      <trkpt lat="36.839900007471442" lon="-4.685637010261416">
        <ele>125.11</ele>
        <time>2025-05-09T12:04:28Z</time>
      </trkpt>
      <trkpt lat="36.840988984331489" lon="-4.684711983427405">
        <ele>120.78</ele>
        <time>2025-05-09T12:04:38Z</time>
      </trkpt>
      <trkpt lat="36.841062996536493" lon="-4.684619028121233">
        <ele>120.3</ele>
        <time>2025-05-09T12:04:39Z</time>
      </trkpt>
      <trkpt lat="36.841123010963202" lon="-4.684538980945945">
        <ele>119.81999999999999</ele>
        <time>2025-05-09T12:04:40Z</time>
      </trkpt>
      <trkpt lat="36.841154024004936" lon="-4.684428004547954">
        <ele>119.34</ele>
        <time>2025-05-09T12:04:41Z</time>
      </trkpt>
      <trkpt lat="36.841173972934484" lon="-4.684305964037776">
        <ele>119.34</ele>
        <time>2025-05-09T12:04:42Z</time>
      </trkpt>
      <trkpt lat="36.841180007904768" lon="-4.684175960719585">
        <ele>119.34</ele>
        <time>2025-05-09T12:04:43Z</time>
      </trkpt>
      <trkpt lat="36.84118595905602" lon="-4.684040006250143">
        <ele>119.81999999999999</ele>
        <time>2025-05-09T12:04:44Z</time>
      </trkpt>
      <trkpt lat="36.841240022331476" lon="-4.683597022667527">
        <ele>120.3</ele>
        <time>2025-05-09T12:04:47Z</time>
      </trkpt>
      <trkpt lat="36.841285033151507" lon="-4.683459978550673">
        <ele>120.78</ele>
        <time>2025-05-09T12:04:48Z</time>
      </trkpt>
      <trkpt lat="36.841353010386229" lon="-4.683354031294584">
        <ele>120.78</ele>
        <time>2025-05-09T12:04:49Z</time>
      </trkpt>
      <trkpt lat="36.841429034247994" lon="-4.683266021311283">
        <ele>121.26000000000001</ele>
        <time>2025-05-09T12:04:50Z</time>
      </trkpt>
      <trkpt lat="36.841530036181211" lon="-4.683208018541336">
        <ele>121.73999999999999</ele>
        <time>2025-05-09T12:04:51Z</time>
      </trkpt>
      <trkpt lat="36.84163698926568" lon="-4.683135012164712">
        <ele>122.22</ele>
        <time>2025-05-09T12:04:52Z</time>
      </trkpt>
      <trkpt lat="36.841744026169181" lon="-4.683050019666553">
        <ele>122.70999999999999</ele>
        <time>2025-05-09T12:04:53Z</time>
      </trkpt>
      <trkpt lat="36.841855002567172" lon="-4.682964021340013">
        <ele>123.19</ele>
        <time>2025-05-09T12:04:54Z</time>
      </trkpt>
      <trkpt lat="36.842072010040283" lon="-4.682794036343694">
        <ele>124.15000000000001</ele>
        <time>2025-05-09T12:04:56Z</time>
      </trkpt>
      <trkpt lat="36.842143004760146" lon="-4.682652968913317">
        <ele>124.63</ele>
        <time>2025-05-09T12:04:57Z</time>
      </trkpt>
      <trkpt lat="36.84221601113677" lon="-4.6825070399791">
        <ele>125.11</ele>
        <time>2025-05-09T12:04:58Z</time>
      </trkpt>
      <trkpt lat="36.842417009174824" lon="-4.682061038911343">
        <ele>125.59</ele>
        <time>2025-05-09T12:05:01Z</time>
      </trkpt>
      <trkpt lat="36.842470988631248" lon="-4.681938998401165">
        <ele>126.06999999999999</ele>
        <time>2025-05-09T12:05:02Z</time>
      </trkpt>
      <trkpt lat="36.842534020543098" lon="-4.681828022003174">
        <ele>126.55</ele>
        <time>2025-05-09T12:05:03Z</time>
      </trkpt>
      <trkpt lat="36.842629993334413" lon="-4.681748980656266">
        <ele>127.03</ele>
        <time>2025-05-09T12:05:04Z</time>
      </trkpt>
      <trkpt lat="36.842735018581152" lon="-4.681688966229558">
        <ele>127.51000000000001</ele>
        <time>2025-05-09T12:05:05Z</time>
      </trkpt>
      <trkpt lat="36.842866027727723" lon="-4.681613026186824">
        <ele>128.47</ele>
        <time>2025-05-09T12:05:06Z</time>
      </trkpt>
      <trkpt lat="36.843013968318701" lon="-4.68156298622489">
        <ele>129.43000000000001</ele>
        <time>2025-05-09T12:05:07Z</time>
      </trkpt>
      <trkpt lat="36.843627020716667" lon="-4.681324018165469">
        <ele>133.28</ele>
        <time>2025-05-09T12:05:11Z</time>
      </trkpt>
      <trkpt lat="36.844780035316944" lon="-4.680784977972508">
        <ele>140.00999999999999</ele>
        <time>2025-05-09T12:05:19Z</time>
      </trkpt>
      <trkpt lat="36.845687963068485" lon="-4.680437967181206">
        <ele>142.88999999999999</ele>
        <time>2025-05-09T12:05:26Z</time>
      </trkpt>
      <trkpt lat="36.845785025507212" lon="-4.680471997708082">
        <ele>143.37</ele>
        <time>2025-05-09T12:05:27Z</time>
      </trkpt>
      <trkpt lat="36.845891978591681" lon="-4.680519020184875">
        <ele>143.37</ele>
        <time>2025-05-09T12:05:28Z</time>
      </trkpt>
      <trkpt lat="36.846707034856081" lon="-4.681073985993862">
        <ele>144.34</ele>
        <time>2025-05-09T12:05:33Z</time>
      </trkpt>
      <trkpt lat="36.847629966214299" lon="-4.681571032851934">
        <ele>146.74000000000001</ele>
        <time>2025-05-09T12:05:38Z</time>
      </trkpt>
      <trkpt lat="36.847772039473057" lon="-4.681514035910368">
        <ele>146.74000000000001</ele>
        <time>2025-05-09T12:05:39Z</time>
      </trkpt>
      <trkpt lat="36.847902964800596" lon="-4.681460978463292">
        <ele>146.74000000000001</ele>
        <time>2025-05-09T12:05:40Z</time>
      </trkpt>
      <trkpt lat="36.848274031654" lon="-4.681313037872315">
        <ele>148.18000000000001</ele>
        <time>2025-05-09T12:05:43Z</time>
      </trkpt>
      <trkpt lat="36.848419038578868" lon="-4.681361988186836">
        <ele>148.66</ele>
        <time>2025-05-09T12:05:44Z</time>
      </trkpt>
      <trkpt lat="36.848536971956491" lon="-4.681400964036584">
        <ele>149.13999999999999</ele>
        <time>2025-05-09T12:05:45Z</time>
      </trkpt>
      <trkpt lat="36.848801001906395" lon="-4.681488974019885">
        <ele>150.09999999999999</ele>
        <time>2025-05-09T12:05:47Z</time>
      </trkpt>
      <trkpt lat="36.848948020488024" lon="-4.681492997333407">
        <ele>151.06</ele>
        <time>2025-05-09T12:05:48Z</time>
      </trkpt>
      <trkpt lat="36.850149985402822" lon="-4.681468019261956">
        <ele>154.43000000000001</ele>
        <time>2025-05-09T12:05:55Z</time>
      </trkpt>
      <trkpt lat="36.851324960589409" lon="-4.681679997593164">
        <ele>152.99000000000001</ele>
        <time>2025-05-09T12:06:02Z</time>
      </trkpt>
      <trkpt lat="36.851440966129303" lon="-4.681759960949421">
        <ele>152.50999999999999</ele>
        <time>2025-05-09T12:06:03Z</time>
      </trkpt>
      <trkpt lat="36.851542973890901" lon="-4.681876972317696">
        <ele>152.03</ele>
        <time>2025-05-09T12:06:04Z</time>
      </trkpt>
      <trkpt lat="36.85158203355968" lon="-4.681977974250913">
        <ele>151.53999999999999</ele>
        <time>2025-05-09T12:06:05Z</time>
      </trkpt>
      <trkpt lat="36.851621009409428" lon="-4.682106971740723">
        <ele>151.53999999999999</ele>
        <time>2025-05-09T12:06:06Z</time>
      </trkpt>
      <trkpt lat="36.851621009409428" lon="-4.682106971740723">
        <ele>151.06</ele>
        <time>2025-05-09T12:06:07Z</time>
      </trkpt>
      <trkpt lat="36.851599970832467" lon="-4.682192970067263">
        <ele>150.09999999999999</ele>
        <time>2025-05-09T12:06:08Z</time>
      </trkpt>
      <trkpt lat="36.851599970832467" lon="-4.682192970067263">
        <ele>149.62</ele>
        <time>2025-05-09T12:06:09Z</time>
      </trkpt>
      <trkpt lat="36.851482959464192" lon="-4.682396985590458">
        <ele>149.13999999999999</ele>
        <time>2025-05-09T12:06:10Z</time>
      </trkpt>
      <trkpt lat="36.8514100369066" lon="-4.682523971423507">
        <ele>148.66</ele>
        <time>2025-05-09T12:06:11Z</time>
      </trkpt>
      <trkpt lat="36.851332001388073" lon="-4.682661015540361">
        <ele>148.18000000000001</ele>
        <time>2025-05-09T12:06:12Z</time>
      </trkpt>
      <trkpt lat="36.851189006119967" lon="-4.683019006624818">
        <ele>146.74000000000001</ele>
        <time>2025-05-09T12:06:14Z</time>
      </trkpt>
      <trkpt lat="36.851178025826812" lon="-4.683143980801106">
        <ele>145.78</ele>
        <time>2025-05-09T12:06:15Z</time>
      </trkpt>
      <trkpt lat="36.851232005283237" lon="-4.683318994939327">
        <ele>145.78</ele>
        <time>2025-05-09T12:06:16Z</time>
      </trkpt>
      <trkpt lat="36.851289002224803" lon="-4.68340901657939">
        <ele>145.30000000000001</ele>
        <time>2025-05-09T12:06:17Z</time>
      </trkpt>
      <trkpt lat="36.85136997140944" lon="-4.683514041826129">
        <ele>145.30000000000001</ele>
        <time>2025-05-09T12:06:18Z</time>
      </trkpt>
      <trkpt lat="36.851469967514277" lon="-4.68362501822412">
        <ele>145.30000000000001</ele>
        <time>2025-05-09T12:06:19Z</time>
      </trkpt>
      <trkpt lat="36.852046977728605" lon="-4.684216026216745">
        <ele>145.30000000000001</ele>
        <time>2025-05-09T12:06:24Z</time>
      </trkpt>
      <trkpt lat="36.852170024067163" lon="-4.684261037036777">
        <ele>145.30000000000001</ele>
        <time>2025-05-09T12:06:25Z</time>
      </trkpt>
      <trkpt lat="36.852286029607058" lon="-4.684274028986692">
        <ele>144.81999999999999</ele>
        <time>2025-05-09T12:06:26Z</time>
      </trkpt>
      <trkpt lat="36.852401029318571" lon="-4.684247961267829">
        <ele>144.81999999999999</ele>
        <time>2025-05-09T12:06:27Z</time>
      </trkpt>
      <trkpt lat="36.852536983788013" lon="-4.684217032045126">
        <ele>144.34</ele>
        <time>2025-05-09T12:06:28Z</time>
      </trkpt>
      <trkpt lat="36.853011986240745" lon="-4.684106977656484">
        <ele>144.81999999999999</ele>
        <time>2025-05-09T12:06:31Z</time>
      </trkpt>
      <trkpt lat="36.853167973458767" lon="-4.684089040383697">
        <ele>144.81999999999999</ele>
        <time>2025-05-09T12:06:32Z</time>
      </trkpt>
      <trkpt lat="36.853311974555254" lon="-4.684115024283528">
        <ele>144.81999999999999</ele>
        <time>2025-05-09T12:06:33Z</time>
      </trkpt>
      <trkpt lat="36.853449018672109" lon="-4.684186019003391">
        <ele>144.81999999999999</ele>
        <time>2025-05-09T12:06:34Z</time>
      </trkpt>
      <trkpt lat="36.85358396731317" lon="-4.684278974309564">
        <ele>144.34</ele>
        <time>2025-05-09T12:06:35Z</time>
      </trkpt>
      <trkpt lat="36.853723023086786" lon="-4.68437603674829">
        <ele>144.34</ele>
        <time>2025-05-09T12:06:36Z</time>
      </trkpt>
      <trkpt lat="36.85493303462863" lon="-4.685313971713185">
        <ele>145.30000000000001</ele>
        <time>2025-05-09T12:06:45Z</time>
      </trkpt>
      <trkpt lat="36.855078963562846" lon="-4.685363005846739">
        <ele>145.78</ele>
        <time>2025-05-09T12:06:46Z</time>
      </trkpt>
      <trkpt lat="36.855240985751152" lon="-4.685389995574951">
        <ele>146.25999999999999</ele>
        <time>2025-05-09T12:06:47Z</time>
      </trkpt>
      <trkpt lat="36.85680203139782" lon="-4.685389995574951">
        <ele>151.53999999999999</ele>
        <time>2025-05-09T12:06:55Z</time>
      </trkpt>
      <trkpt lat="36.857611974701285" lon="-4.685431988909841">
        <ele>155.87</ele>
        <time>2025-05-09T12:07:00Z</time>
      </trkpt>
      <trkpt lat="36.857740972191095" lon="-4.685492003336549">
        <ele>156.34999999999999</ele>
        <time>2025-05-09T12:07:01Z</time>
      </trkpt>
      <trkpt lat="36.857869969680905" lon="-4.685552017763257">
        <ele>156.83000000000001</ele>
        <time>2025-05-09T12:07:02Z</time>
      </trkpt>
      <trkpt lat="36.857997039332986" lon="-4.685610020533204">
        <ele>157.31</ele>
        <time>2025-05-09T12:07:03Z</time>
      </trkpt>
      <trkpt lat="36.858123019337654" lon="-4.685669029131532">
        <ele>157.78999999999999</ele>
        <time>2025-05-09T12:07:04Z</time>
      </trkpt>
      <trkpt lat="36.858248999342322" lon="-4.685669029131532">
        <ele>158.27000000000001</ele>
        <time>2025-05-09T12:07:05Z</time>
      </trkpt>
      <trkpt lat="36.858387971296906" lon="-4.685655031353235">
        <ele>158.75</ele>
        <time>2025-05-09T12:07:06Z</time>
      </trkpt>
      <trkpt lat="36.858529038727283" lon="-4.685614965856075">
        <ele>159.24000000000001</ele>
        <time>2025-05-09T12:07:07Z</time>
      </trkpt>
      <trkpt lat="36.860086983069777" lon="-4.685095958411694">
        <ele>163.08000000000001</ele>
        <time>2025-05-09T12:07:18Z</time>
      </trkpt>
      <trkpt lat="36.860861973837018" lon="-4.684506040066481">
        <ele>164.52000000000001</ele>
        <time>2025-05-09T12:07:23Z</time>
      </trkpt>
      <trkpt lat="36.861008992418647" lon="-4.684463040903211">
        <ele>165</ele>
        <time>2025-05-09T12:07:24Z</time>
      </trkpt>
      <trkpt lat="36.861147964373231" lon="-4.68442196957767">
        <ele>165.47999999999999</ele>
        <time>2025-05-09T12:07:25Z</time>
      </trkpt>
      <trkpt lat="36.861304035410285" lon="-4.68442096374929">
        <ele>166.44999999999999</ele>
        <time>2025-05-09T12:07:26Z</time>
      </trkpt>
      <trkpt lat="36.861468991264701" lon="-4.684453988447785">
        <ele>167.41</ele>
        <time>2025-05-09T12:07:27Z</time>
      </trkpt>
      <trkpt lat="36.861649034544826" lon="-4.684510985389352">
        <ele>167.88999999999999</ele>
        <time>2025-05-09T12:07:28Z</time>
      </trkpt>
      <trkpt lat="36.862778998911381" lon="-4.684938965365291">
        <ele>173.66</ele>
        <time>2025-05-09T12:07:34Z</time>
      </trkpt>
      <trkpt lat="36.862938003614545" lon="-4.684932008385658">
        <ele>174.62</ele>
        <time>2025-05-09T12:07:35Z</time>
      </trkpt>
      <trkpt lat="36.863135984167457" lon="-4.684923961758614">
        <ele>175.58000000000001</ele>
        <time>2025-05-09T12:07:36Z</time>
      </trkpt>
      <trkpt lat="36.864621005952358" lon="-4.684857996180654">
        <ele>179.90000000000001</ele>
        <time>2025-05-09T12:07:44Z</time>
      </trkpt>
      <trkpt lat="36.864766012877226" lon="-4.684819020330906">
        <ele>180.38</ele>
        <time>2025-05-09T12:07:45Z</time>
      </trkpt>
      <trkpt lat="36.864891992881894" lon="-4.684736039489508">
        <ele>180.87</ele>
        <time>2025-05-09T12:07:46Z</time>
      </trkpt>
      <trkpt lat="36.864987965673208" lon="-4.68463403172791">
        <ele>181.34999999999999</ele>
        <time>2025-05-09T12:07:47Z</time>
      </trkpt>
      <trkpt lat="36.865083016455173" lon="-4.684533029794693">
        <ele>181.83000000000001</ele>
        <time>2025-05-09T12:07:48Z</time>
      </trkpt>
      <trkpt lat="36.865176977589726" lon="-4.684434039518237">
        <ele>181.83000000000001</ele>
        <time>2025-05-09T12:07:49Z</time>
      </trkpt>
      <trkpt lat="36.865257024765015" lon="-4.684358015656471">
        <ele>181.83000000000001</ele>
        <time>2025-05-09T12:07:50Z</time>
      </trkpt>
      <trkpt lat="36.865375963971019" lon="-4.684328008443117">
        <ele>181.83000000000001</ele>
        <time>2025-05-09T12:07:51Z</time>
      </trkpt>
      <trkpt lat="36.86550403945148" lon="-4.684295989573002">
        <ele>181.83000000000001</ele>
        <time>2025-05-09T12:07:52Z</time>
      </trkpt>
      <trkpt lat="36.865619961172342" lon="-4.684337982907891">
        <ele>181.34999999999999</ele>
        <time>2025-05-09T12:07:53Z</time>
      </trkpt>
      <trkpt lat="36.865763962268829" lon="-4.684391040354967">
        <ele>180.87</ele>
        <time>2025-05-09T12:07:54Z</time>
      </trkpt>
      <trkpt lat="36.866721007972956" lon="-4.684701003134251">
        <ele>179.41999999999999</ele>
        <time>2025-05-09T12:08:00Z</time>
      </trkpt>
      <trkpt lat="36.866864003241062" lon="-4.684718018397689">
        <ele>178.94</ele>
        <time>2025-05-09T12:08:01Z</time>
      </trkpt>
      <trkpt lat="36.86700901016593" lon="-4.684683987870812">
        <ele>178.94</ele>
        <time>2025-05-09T12:08:02Z</time>
      </trkpt>
      <trkpt lat="36.867158962413669" lon="-4.68461399897933">
        <ele>178.94</ele>
        <time>2025-05-09T12:08:03Z</time>
      </trkpt>
      <trkpt lat="36.867319978773594" lon="-4.684538980945945">
        <ele>179.41999999999999</ele>
        <time>2025-05-09T12:08:04Z</time>
      </trkpt>
      <trkpt lat="36.867843009531498" lon="-4.684295989573002">
        <ele>180.38</ele>
        <time>2025-05-09T12:08:07Z</time>
      </trkpt>
      <trkpt lat="36.868030009791255" lon="-4.68426899984479">
        <ele>180.87</ele>
        <time>2025-05-09T12:08:08Z</time>
      </trkpt>
      <trkpt lat="36.86896501109004" lon="-4.684132961556315">
        <ele>181.83000000000001</ele>
        <time>2025-05-09T12:08:13Z</time>
      </trkpt>
      <trkpt lat="36.869172966107726" lon="-4.684103038161993">
        <ele>181.83000000000001</ele>
        <time>2025-05-09T12:08:14Z</time>
      </trkpt>
      <trkpt lat="36.869275979697704" lon="-4.684028020128608">
        <ele>182.31</ele>
        <time>2025-05-09T12:08:15Z</time>
      </trkpt>
      <trkpt lat="36.869412017986178" lon="-4.683929029852152">
        <ele>182.78999999999999</ele>
        <time>2025-05-09T12:08:16Z</time>
      </trkpt>
      <trkpt lat="36.869553001597524" lon="-4.683827022090554">
        <ele>183.27000000000001</ele>
        <time>2025-05-09T12:08:17Z</time>
      </trkpt>
      <trkpt lat="36.870264038443565" lon="-4.683198966085911">
        <ele>184.22999999999999</ele>
        <time>2025-05-09T12:08:22Z</time>
      </trkpt>
      <trkpt lat="36.870422959327698" lon="-4.6831080224365">
        <ele>184.71000000000001</ele>
        <time>2025-05-09T12:08:23Z</time>
      </trkpt>
      <trkpt lat="36.870607025921345" lon="-4.683051025494933">
        <ele>185.19</ele>
        <time>2025-05-09T12:08:24Z</time>
      </trkpt>
      <trkpt lat="36.871568011119962" lon="-4.682762017473579">
        <ele>186.15000000000001</ele>
        <time>2025-05-09T12:08:29Z</time>
      </trkpt>
      <trkpt lat="36.871770014986396" lon="-4.682735027745366">
        <ele>186.15000000000001</ele>
        <time>2025-05-09T12:08:30Z</time>
      </trkpt>
      <trkpt lat="36.874415008351207" lon="-4.682814991101623">
        <ele>191.44</ele>
        <time>2025-05-09T12:08:43Z</time>
      </trkpt>
      <trkpt lat="36.874569989740849" lon="-4.682814991101623">
        <ele>191.91999999999999</ele>
        <time>2025-05-09T12:08:44Z</time>
      </trkpt>
      <trkpt lat="36.874707033857703" lon="-4.682763023301959">
        <ele>192.40000000000001</ele>
        <time>2025-05-09T12:08:45Z</time>
      </trkpt>
      <trkpt lat="36.874843994155526" lon="-4.682707032188773">
        <ele>192.88</ele>
        <time>2025-05-09T12:08:46Z</time>
      </trkpt>
      <trkpt lat="36.87498196028173" lon="-4.682627990841866">
        <ele>193.84</ele>
        <time>2025-05-09T12:08:47Z</time>
      </trkpt>
      <trkpt lat="36.87511196359992" lon="-4.682498993352056">
        <ele>194.31999999999999</ele>
        <time>2025-05-09T12:08:48Z</time>
      </trkpt>
      <trkpt lat="36.875246996060014" lon="-4.682344011962414">
        <ele>194.80000000000001</ele>
        <time>2025-05-09T12:08:49Z</time>
      </trkpt>
      <trkpt lat="36.875378005206585" lon="-4.682172015309334">
        <ele>195.77000000000001</ele>
        <time>2025-05-09T12:08:50Z</time>
      </trkpt>
      <trkpt lat="36.876020980998874" lon="-4.681331980973482">
        <ele>199.13</ele>
        <time>2025-05-09T12:08:55Z</time>
      </trkpt>
      <trkpt lat="36.876154001802206" lon="-4.681215975433588">
        <ele>199.61000000000001</ele>
        <time>2025-05-09T12:08:56Z</time>
      </trkpt>
      <trkpt lat="36.876308983191848" lon="-4.681125031784177">
        <ele>200.09</ele>
        <time>2025-05-09T12:08:57Z</time>
      </trkpt>
      <trkpt lat="36.877302993088961" lon="-4.680692022666335">
        <ele>203.46000000000001</ele>
        <time>2025-05-09T12:09:03Z</time>
      </trkpt>
      <trkpt lat="36.877403995022178" lon="-4.680585991591215">
        <ele>203.94</ele>
        <time>2025-05-09T12:09:04Z</time>
      </trkpt>
      <trkpt lat="36.877503991127014" lon="-4.680480966344476">
        <ele>204.41999999999999</ele>
        <time>2025-05-09T12:09:05Z</time>
      </trkpt>
      <trkpt lat="36.877705994993448" lon="-4.680270999670029">
        <ele>204.41999999999999</ele>
        <time>2025-05-09T12:09:07Z</time>
      </trkpt>
      <trkpt lat="36.877800039947033" lon="-4.680196987465024">
        <ele>204.41999999999999</ele>
        <time>2025-05-09T12:09:08Z</time>
      </trkpt>
      <trkpt lat="36.877884026616812" lon="-4.680157005786896">
        <ele>203.94</ele>
        <time>2025-05-09T12:09:09Z</time>
      </trkpt>
      <trkpt lat="36.877953009679914" lon="-4.68016698025167">
        <ele>203.94</ele>
        <time>2025-05-09T12:09:10Z</time>
      </trkpt>
      <trkpt lat="36.877997014671564" lon="-4.680173015221953">
        <ele>203.46000000000001</ele>
        <time>2025-05-09T12:09:11Z</time>
      </trkpt>
      <trkpt lat="36.87803297303617" lon="-4.680177960544825">
        <ele>203.46000000000001</ele>
        <time>2025-05-09T12:09:12Z</time>
      </trkpt>
      <trkpt lat="36.878531025722623" lon="-4.680248033255339">
        <ele>202.97999999999999</ele>
        <time>2025-05-09T12:09:22Z</time>
      </trkpt>
      <trkpt lat="36.879586977884173" lon="-4.680395973846316">
        <ele>202.97999999999999</ele>
        <time>2025-05-09T12:09:29Z</time>
      </trkpt>
      <trkpt lat="36.881687985733151" lon="-4.680676013231278">
        <ele>204.41999999999999</ele>
        <time>2025-05-09T12:09:41Z</time>
      </trkpt>
      <trkpt lat="36.881837015971541" lon="-4.680687999352813">
        <ele>204.90000000000001</ele>
        <time>2025-05-09T12:09:42Z</time>
      </trkpt>
      <trkpt lat="36.881973976269364" lon="-4.680650029331446">
        <ele>204.90000000000001</ele>
        <time>2025-05-09T12:09:43Z</time>
      </trkpt>
      <trkpt lat="36.882131975144148" lon="-4.680582974106073">
        <ele>205.38</ele>
        <time>2025-05-09T12:09:44Z</time>
      </trkpt>
      <trkpt lat="36.882296008989215" lon="-4.680513991042972">
        <ele>205.86000000000001</ele>
        <time>2025-05-09T12:09:45Z</time>
      </trkpt>
      <trkpt lat="36.882464988157153" lon="-4.680442996323109">
        <ele>206.34</ele>
        <time>2025-05-09T12:09:46Z</time>
      </trkpt>
      <trkpt lat="36.882911995053291" lon="-4.680158011615276">
        <ele>210.19</ele>
        <time>2025-05-09T12:09:49Z</time>
      </trkpt>
      <trkpt lat="36.88303898088634" lon="-4.680048041045666">
        <ele>211.63</ele>
        <time>2025-05-09T12:09:50Z</time>
      </trkpt>
      <trkpt lat="36.883156998082995" lon="-4.679947039112449">
        <ele>212.59</ele>
        <time>2025-05-09T12:09:51Z</time>
      </trkpt>
      <trkpt lat="36.883265040814877" lon="-4.679853999987245">
        <ele>213.55000000000001</ele>
        <time>2025-05-09T12:09:52Z</time>
      </trkpt>
      <trkpt lat="36.883391020819545" lon="-4.679804965853691">
        <ele>214.50999999999999</ele>
        <time>2025-05-09T12:09:53Z</time>
      </trkpt>
      <trkpt lat="36.883524041622877" lon="-4.679794991388917">
        <ele>215.94999999999999</ele>
        <time>2025-05-09T12:09:54Z</time>
      </trkpt>
      <trkpt lat="36.883648009970784" lon="-4.679803038015962">
        <ele>216.91</ele>
        <time>2025-05-09T12:09:55Z</time>
      </trkpt>
      <trkpt lat="36.883760998025537" lon="-4.679832039400935">
        <ele>217.88</ele>
        <time>2025-05-09T12:09:56Z</time>
      </trkpt>
      <trkpt lat="36.883861999958754" lon="-4.679873026907444">
        <ele>218.84</ele>
        <time>2025-05-09T12:09:57Z</time>
      </trkpt>
      <trkpt lat="36.883925031870604" lon="-4.679982997477055">
        <ele>219.80000000000001</ele>
        <time>2025-05-09T12:09:58Z</time>
      </trkpt>
      <trkpt lat="36.883999966084957" lon="-4.680111994966865">
        <ele>220.75999999999999</ele>
        <time>2025-05-09T12:09:59Z</time>
      </trkpt>
      <trkpt lat="36.884085964411497" lon="-4.680262031033635">
        <ele>221.72</ele>
        <time>2025-05-09T12:10:00Z</time>
      </trkpt>
      <trkpt lat="36.884496007114649" lon="-4.680886985734105">
        <ele>226.05000000000001</ele>
        <time>2025-05-09T12:10:04Z</time>
      </trkpt>
      <trkpt lat="36.884630033746362" lon="-4.680989999324083">
        <ele>227.00999999999999</ele>
        <time>2025-05-09T12:10:05Z</time>
      </trkpt>
      <trkpt lat="36.884761964902282" lon="-4.6810910012573">
        <ele>227.49000000000001</ele>
        <time>2025-05-09T12:10:06Z</time>
      </trkpt>
      <trkpt lat="36.884882999584079" lon="-4.681184040382505">
        <ele>228.44999999999999</ele>
        <time>2025-05-09T12:10:07Z</time>
      </trkpt>
      <trkpt lat="36.885004034265876" lon="-4.681275989860296">
        <ele>228.93000000000001</ele>
        <time>2025-05-09T12:10:08Z</time>
      </trkpt>
      <trkpt lat="36.88512003980577" lon="-4.68139199540019">
        <ele>228.93000000000001</ele>
        <time>2025-05-09T12:10:09Z</time>
      </trkpt>
      <trkpt lat="36.885236967355013" lon="-4.681528033688664">
        <ele>229.41</ele>
        <time>2025-05-09T12:10:10Z</time>
      </trkpt>
      <trkpt lat="36.885729990899563" lon="-4.682018039748073">
        <ele>230.84999999999999</ele>
        <time>2025-05-09T12:10:14Z</time>
      </trkpt>
      <trkpt lat="36.885845996439457" lon="-4.682086016982794">
        <ele>231.33000000000001</ele>
        <time>2025-05-09T12:10:15Z</time>
      </trkpt>
      <trkpt lat="36.885968958958983" lon="-4.682108983397484">
        <ele>231.81</ele>
        <time>2025-05-09T12:10:16Z</time>
      </trkpt>
      <trkpt lat="36.886499030515552" lon="-4.682254996150732">
        <ele>232.78</ele>
        <time>2025-05-09T12:10:20Z</time>
      </trkpt>
      <trkpt lat="36.886624004691839" lon="-4.682342000305653">
        <ele>233.25999999999999</ele>
        <time>2025-05-09T12:10:21Z</time>
      </trkpt>
      <trkpt lat="36.887320037931204" lon="-4.682993022724986">
        <ele>238.53999999999999</ele>
        <time>2025-05-09T12:10:28Z</time>
      </trkpt>
      <trkpt lat="36.887394972145557" lon="-4.683079021051526">
        <ele>239.50999999999999</ele>
        <time>2025-05-09T12:10:29Z</time>
      </trkpt>
      <trkpt lat="36.887468984350562" lon="-4.683165019378066">
        <ele>239.99000000000001</ele>
        <time>2025-05-09T12:10:30Z</time>
      </trkpt>
      <trkpt lat="36.887669982388616" lon="-4.68338998965919">
        <ele>242.38999999999999</ele>
        <time>2025-05-09T12:10:33Z</time>
      </trkpt>
      <trkpt lat="36.887733014300466" lon="-4.683441035449505">
        <ele>242.87</ele>
        <time>2025-05-09T12:10:34Z</time>
      </trkpt>
      <trkpt lat="36.88780702650547" lon="-4.683427959680557">
        <ele>243.83000000000001</ele>
        <time>2025-05-09T12:10:35Z</time>
      </trkpt>
      <trkpt lat="36.887878021225333" lon="-4.683385966345668">
        <ele>244.31</ele>
        <time>2025-05-09T12:10:36Z</time>
      </trkpt>
      <trkpt lat="36.887963013723493" lon="-4.683335004374385">
        <ele>244.31</ele>
        <time>2025-05-09T12:10:37Z</time>
      </trkpt>
      <trkpt lat="36.888033002614975" lon="-4.683213969692588">
        <ele>245.27000000000001</ele>
        <time>2025-05-09T12:10:38Z</time>
      </trkpt>
      <trkpt lat="36.888096034526825" lon="-4.683097964152694">
        <ele>246.22999999999999</ele>
        <time>2025-05-09T12:10:39Z</time>
      </trkpt>
      <trkpt lat="36.888132998719811" lon="-4.682961003854871">
        <ele>247.19999999999999</ele>
        <time>2025-05-09T12:10:40Z</time>
      </trkpt>
      <trkpt lat="36.888153031468391" lon="-4.6828109677881">
        <ele>248.16</ele>
        <time>2025-05-09T12:10:41Z</time>
      </trkpt>
      <trkpt lat="36.88817398622632" lon="-4.68265799805522">
        <ele>249.59999999999999</ele>
        <time>2025-05-09T12:10:42Z</time>
      </trkpt>
      <trkpt lat="36.888214973732829" lon="-4.682520031929016">
        <ele>251.03999999999999</ele>
        <time>2025-05-09T12:10:43Z</time>
      </trkpt>
      <trkpt lat="36.888284962624311" lon="-4.682395979762077">
        <ele>252</ele>
        <time>2025-05-09T12:10:44Z</time>
      </trkpt>
      <trkpt lat="36.888390993699431" lon="-4.682311993092299">
        <ele>253.44</ele>
        <time>2025-05-09T12:10:45Z</time>
      </trkpt>
      <trkpt lat="36.888503981754184" lon="-4.682227000594139">
        <ele>254.41</ele>
        <time>2025-05-09T12:10:46Z</time>
      </trkpt>
      <trkpt lat="36.888642031699419" lon="-4.68216497451067">
        <ele>255.37</ele>
        <time>2025-05-09T12:10:47Z</time>
      </trkpt>
      <trkpt lat="36.888784021139145" lon="-4.682102026417851">
        <ele>256.32999999999998</ele>
        <time>2025-05-09T12:10:48Z</time>
      </trkpt>
      <trkpt lat="36.888913018628955" lon="-4.682043017819524">
        <ele>256.81</ele>
        <time>2025-05-09T12:10:49Z</time>
      </trkpt>
      <trkpt lat="36.889008991420269" lon="-4.681931035593152">
        <ele>257.76999999999998</ele>
        <time>2025-05-09T12:10:50Z</time>
      </trkpt>
      <trkpt lat="36.889101024717093" lon="-4.68182098120451">
        <ele>259.20999999999998</ele>
        <time>2025-05-09T12:10:51Z</time>
      </trkpt>
      <trkpt lat="36.889196997508407" lon="-4.681705981492996">
        <ele>260.17000000000002</ele>
        <time>2025-05-09T12:10:52Z</time>
      </trkpt>
      <trkpt lat="36.889294981956482" lon="-4.681589975953102">
        <ele>261.13999999999999</ele>
        <time>2025-05-09T12:10:53Z</time>
      </trkpt>
      <trkpt lat="36.889383997768164" lon="-4.681496014818549">
        <ele>262.10000000000002</ele>
        <time>2025-05-09T12:10:54Z</time>
      </trkpt>
      <trkpt lat="36.889490028843284" lon="-4.681437006220222">
        <ele>262.57999999999998</ele>
        <time>2025-05-09T12:10:55Z</time>
      </trkpt>
      <trkpt lat="36.889588013291359" lon="-4.681396018713713">
        <ele>263.54000000000002</ele>
        <time>2025-05-09T12:10:56Z</time>
      </trkpt>
      <trkpt lat="36.889751041308045" lon="-4.681376991793513">
        <ele>264.5</ele>
        <time>2025-05-09T12:10:57Z</time>
      </trkpt>
      <trkpt lat="36.889840979129076" lon="-4.68141102232039">
        <ele>265.45999999999998</ele>
        <time>2025-05-09T12:10:58Z</time>
      </trkpt>
      <trkpt lat="36.88997601158917" lon="-4.681461984291673">
        <ele>266.89999999999998</ele>
        <time>2025-05-09T12:10:59Z</time>
      </trkpt>
      <trkpt lat="36.890268037095666" lon="-4.681571032851934">
        <ele>269.31</ele>
        <time>2025-05-09T12:11:01Z</time>
      </trkpt>
      <trkpt lat="36.891602016985416" lon="-4.681732971221209">
        <ele>280.36000000000001</ele>
        <time>2025-05-09T12:11:09Z</time>
      </trkpt>
      <trkpt lat="36.891744006425142" lon="-4.681679997593164">
        <ele>282.27999999999997</ele>
        <time>2025-05-09T12:11:10Z</time>
      </trkpt>
      <trkpt lat="36.891887001693249" lon="-4.681628029793501">
        <ele>284.20999999999998</ele>
        <time>2025-05-09T12:11:11Z</time>
      </trkpt>
      <trkpt lat="36.892133010551333" lon="-4.681538008153439">
        <ele>288.05000000000001</ele>
        <time>2025-05-09T12:11:13Z</time>
      </trkpt>
      <trkpt lat="36.892219008877873" lon="-4.681505989283323">
        <ele>289.49000000000001</ele>
        <time>2025-05-09T12:11:14Z</time>
      </trkpt>
      <trkpt lat="36.892285980284214" lon="-4.681557035073638">
        <ele>290.94</ele>
        <time>2025-05-09T12:11:15Z</time>
      </trkpt>
      <trkpt lat="36.892391005530953" lon="-4.681634986773133">
        <ele>291.89999999999998</ele>
        <time>2025-05-09T12:11:16Z</time>
      </trkpt>
      <trkpt lat="36.892420006915927" lon="-4.681740012019873">
        <ele>292.86000000000001</ele>
        <time>2025-05-09T12:11:17Z</time>
      </trkpt>
      <trkpt lat="36.892460994422436" lon="-4.681887030601502">
        <ele>294.30000000000001</ele>
        <time>2025-05-09T12:11:18Z</time>
      </trkpt>
      <trkpt lat="36.892501981928945" lon="-4.682055003941059">
        <ele>295.74000000000001</ele>
        <time>2025-05-09T12:11:19Z</time>
      </trkpt>
      <trkpt lat="36.892524026334286" lon="-4.682235969230533">
        <ele>297.18000000000001</ele>
        <time>2025-05-09T12:11:20Z</time>
      </trkpt>
      <trkpt lat="36.892594015225768" lon="-4.682832006365061">
        <ele>301.02999999999997</ele>
        <time>2025-05-09T12:11:23Z</time>
      </trkpt>
      <trkpt lat="36.892645983025432" lon="-4.683019006624818">
        <ele>301.99000000000001</ele>
        <time>2025-05-09T12:11:24Z</time>
      </trkpt>
      <trkpt lat="36.8927270360291" lon="-4.683209024369717">
        <ele>302.94999999999999</ele>
        <time>2025-05-09T12:11:25Z</time>
      </trkpt>
      <trkpt lat="36.893011014908552" lon="-4.683829033747315">
        <ele>307.75999999999999</ele>
        <time>2025-05-09T12:11:29Z</time>
      </trkpt>
      <trkpt lat="36.893082009628415" lon="-4.683912014588714">
        <ele>308.72000000000003</ele>
        <time>2025-05-09T12:11:30Z</time>
      </trkpt>
      <trkpt lat="36.893161972984672" lon="-4.683922994881868">
        <ele>309.19999999999999</ele>
        <time>2025-05-09T12:11:31Z</time>
      </trkpt>
      <trkpt lat="36.893270015716553" lon="-4.683908997103572">
        <ele>309.68000000000001</ele>
        <time>2025-05-09T12:11:32Z</time>
      </trkpt>
      <trkpt lat="36.893346961587667" lon="-4.683832973241806">
        <ele>310.16000000000003</ele>
        <time>2025-05-09T12:11:33Z</time>
      </trkpt>
      <trkpt lat="36.893438994884491" lon="-4.683741023764014">
        <ele>310.63999999999999</ele>
        <time>2025-05-09T12:11:34Z</time>
      </trkpt>
      <trkpt lat="36.893849037587643" lon="-4.683368029072881">
        <ele>315.44999999999999</ele>
        <time>2025-05-09T12:11:38Z</time>
      </trkpt>
      <trkpt lat="36.893962025642395" lon="-4.683326035737991">
        <ele>316.88999999999999</ele>
        <time>2025-05-09T12:11:39Z</time>
      </trkpt>
      <trkpt lat="36.894085993990302" lon="-4.683313965797424">
        <ele>317.85000000000002</ele>
        <time>2025-05-09T12:11:40Z</time>
      </trkpt>
      <trkpt lat="36.89421197399497" lon="-4.683301979675889">
        <ele>319.30000000000001</ele>
        <time>2025-05-09T12:11:41Z</time>
      </trkpt>
      <trkpt lat="36.894333008676767" lon="-4.683289993554354">
        <ele>320.74000000000001</ele>
        <time>2025-05-09T12:11:42Z</time>
      </trkpt>
      <trkpt lat="36.894430993124843" lon="-4.683211036026478">
        <ele>321.69999999999999</ele>
        <time>2025-05-09T12:11:43Z</time>
      </trkpt>
      <trkpt lat="36.894517997279763" lon="-4.683093018829823">
        <ele>322.66000000000003</ele>
        <time>2025-05-09T12:11:44Z</time>
      </trkpt>
      <trkpt lat="36.8945989664644" lon="-4.682948011904955">
        <ele>324.10000000000002</ele>
        <time>2025-05-09T12:11:45Z</time>
      </trkpt>
      <trkpt lat="36.894685970619321" lon="-4.682792024686933">
        <ele>325.06</ele>
        <time>2025-05-09T12:11:46Z</time>
      </trkpt>
      <trkpt lat="36.894858973100781" lon="-4.682481978088617">
        <ele>326.99000000000001</ele>
        <time>2025-05-09T12:11:48Z</time>
      </trkpt>
      <trkpt lat="36.894967015832663" lon="-4.682348035275936">
        <ele>327.94999999999999</ele>
        <time>2025-05-09T12:11:49Z</time>
      </trkpt>
      <trkpt lat="36.895355014130473" lon="-4.682051986455917">
        <ele>330.82999999999998</ele>
        <time>2025-05-09T12:11:52Z</time>
      </trkpt>
      <trkpt lat="36.895620971918106" lon="-4.681932963430882">
        <ele>333.70999999999998</ele>
        <time>2025-05-09T12:11:54Z</time>
      </trkpt>
      <trkpt lat="36.895733959972858" lon="-4.681909997016192">
        <ele>335.16000000000003</ele>
        <time>2025-05-09T12:11:55Z</time>
      </trkpt>
      <trkpt lat="36.895823981612921" lon="-4.681891975924373">
        <ele>336.60000000000002</ele>
        <time>2025-05-09T12:11:56Z</time>
      </trkpt>
      <trkpt lat="36.895901011303067" lon="-4.681957019492984">
        <ele>337.56</ele>
        <time>2025-05-09T12:11:57Z</time>
      </trkpt>
      <trkpt lat="36.895990027114749" lon="-4.682032037526369">
        <ele>338.51999999999998</ele>
        <time>2025-05-09T12:11:58Z</time>
      </trkpt>
      <trkpt lat="36.896093962714076" lon="-4.682119963690639">
        <ele>339</ele>
        <time>2025-05-09T12:11:59Z</time>
      </trkpt>
      <trkpt lat="36.896213991567492" lon="-4.682220965623856">
        <ele>339</ele>
        <time>2025-05-09T12:12:00Z</time>
      </trkpt>
      <trkpt lat="36.896361010149121" lon="-4.682279974222183">
        <ele>339</ele>
        <time>2025-05-09T12:12:01Z</time>
      </trkpt>
      <trkpt lat="36.896519009023905" lon="-4.682334959506989">
        <ele>339</ele>
        <time>2025-05-09T12:12:02Z</time>
      </trkpt>
      <trkpt lat="36.896683964878321" lon="-4.682392040267587">
        <ele>339</ele>
        <time>2025-05-09T12:12:03Z</time>
      </trkpt>
      <trkpt lat="36.897751986980438" lon="-4.682948011904955">
        <ele>339.48000000000002</ele>
        <time>2025-05-09T12:12:10Z</time>
      </trkpt>
      <trkpt lat="36.897839996963739" lon="-4.683047002181411">
        <ele>339.48000000000002</ele>
        <time>2025-05-09T12:12:11Z</time>
      </trkpt>
      <trkpt lat="36.897905962541699" lon="-4.683164013549686">
        <ele>339.48000000000002</ele>
        <time>2025-05-09T12:12:12Z</time>
      </trkpt>
      <trkpt lat="36.898111989721656" lon="-4.683592999354005">
        <ele>340.44</ele>
        <time>2025-05-09T12:12:15Z</time>
      </trkpt>
      <trkpt lat="36.898222966119647" lon="-4.683671034872532">
        <ele>340.44</ele>
        <time>2025-05-09T12:12:16Z</time>
      </trkpt>
      <trkpt lat="36.898340983316302" lon="-4.683738006278873">
        <ele>340.44</ele>
        <time>2025-05-09T12:12:17Z</time>
      </trkpt>
      <trkpt lat="36.898479033261538" lon="-4.683748986572027">
        <ele>340.44</ele>
        <time>2025-05-09T12:12:18Z</time>
      </trkpt>
      <trkpt lat="36.898629991337657" lon="-4.683760972693563">
        <ele>340.44</ele>
        <time>2025-05-09T12:12:19Z</time>
      </trkpt>
      <trkpt lat="36.898794025182724" lon="-4.683772958815098">
        <ele>340.44</ele>
        <time>2025-05-09T12:12:20Z</time>
      </trkpt>
      <trkpt lat="36.900129010900855" lon="-4.683639016002417">
        <ele>339.95999999999998</ele>
        <time>2025-05-09T12:12:28Z</time>
      </trkpt>
      <trkpt lat="36.900680959224701" lon="-4.683501971885562">
        <ele>339.48000000000002</ele>
        <time>2025-05-09T12:12:32Z</time>
      </trkpt>
      <trkpt lat="36.900821020826697" lon="-4.683501971885562">
        <ele>339</ele>
        <time>2025-05-09T12:12:33Z</time>
      </trkpt>
      <trkpt lat="36.901778988540173" lon="-4.683682015165687">
        <ele>337.07999999999998</ele>
        <time>2025-05-09T12:12:40Z</time>
      </trkpt>
      <trkpt lat="36.90187999047339" lon="-4.683748986572027">
        <ele>336.60000000000002</ele>
        <time>2025-05-09T12:12:41Z</time>
      </trkpt>
      <trkpt lat="36.901964982971549" lon="-4.683852000162005">
        <ele>336.60000000000002</ele>
        <time>2025-05-09T12:12:42Z</time>
      </trkpt>
      <trkpt lat="36.90205198712647" lon="-4.683957025408745">
        <ele>336.12</ele>
        <time>2025-05-09T12:12:43Z</time>
      </trkpt>
      <trkpt lat="36.902142008766532" lon="-4.684065990149975">
        <ele>335.63999999999999</ele>
        <time>2025-05-09T12:12:44Z</time>
      </trkpt>
      <trkpt lat="36.902834018692374" lon="-4.684905018657446">
        <ele>333.23000000000002</ele>
        <time>2025-05-09T12:12:52Z</time>
      </trkpt>
      <trkpt lat="36.902860002592206" lon="-4.684983976185322">
        <ele>332.75</ele>
        <time>2025-05-09T12:12:53Z</time>
      </trkpt>
      <trkpt lat="36.902856985107064" lon="-4.685082966461778">
        <ele>332.75</ele>
        <time>2025-05-09T12:12:54Z</time>
      </trkpt>
      <trkpt lat="36.902852961793542" lon="-4.685181034728885">
        <ele>332.26999999999998</ele>
        <time>2025-05-09T12:12:55Z</time>
      </trkpt>
      <trkpt lat="36.902850028127432" lon="-4.685278013348579">
        <ele>332.26999999999998</ele>
        <time>2025-05-09T12:12:56Z</time>
      </trkpt>
      <trkpt lat="36.902842987328768" lon="-4.685482028871775">
        <ele>331.79000000000002</ele>
        <time>2025-05-09T12:12:58Z</time>
      </trkpt>
      <trkpt lat="36.902851033955812" lon="-4.685555035248399">
        <ele>331.31</ele>
        <time>2025-05-09T12:12:59Z</time>
      </trkpt>
      <trkpt lat="36.902897972613573" lon="-4.685621000826359">
        <ele>330.82999999999998</ele>
        <time>2025-05-09T12:13:00Z</time>
      </trkpt>
      <trkpt lat="36.902948012575507" lon="-4.685693001374602">
        <ele>330.82999999999998</ele>
        <time>2025-05-09T12:13:01Z</time>
      </trkpt>
      <trkpt lat="36.903004003688693" lon="-4.685771036893129">
        <ele>330.35000000000002</ele>
        <time>2025-05-09T12:13:02Z</time>
      </trkpt>
      <trkpt lat="36.903057983145118" lon="-4.685847982764244">
        <ele>329.38999999999999</ele>
        <time>2025-05-09T12:13:03Z</time>
      </trkpt>
      <trkpt lat="36.903095031157136" lon="-4.685919983312488">
        <ele>328.91000000000003</ele>
        <time>2025-05-09T12:13:04Z</time>
      </trkpt>
      <trkpt lat="36.903073992580175" lon="-4.686015034094453">
        <ele>328.43000000000001</ele>
        <time>2025-05-09T12:13:05Z</time>
      </trkpt>
      <trkpt lat="36.903050020337105" lon="-4.686111006885767">
        <ele>327.94999999999999</ele>
        <time>2025-05-09T12:13:06Z</time>
      </trkpt>
      <trkpt lat="36.903010038658977" lon="-4.686206979677081">
        <ele>327.47000000000003</ele>
        <time>2025-05-09T12:13:07Z</time>
      </trkpt>
      <trkpt lat="36.902969973161817" lon="-4.686304964125156">
        <ele>327.47000000000003</ele>
        <time>2025-05-09T12:13:08Z</time>
      </trkpt>
      <trkpt lat="36.90293300896883" lon="-4.686398003250361">
        <ele>326.99000000000001</ele>
        <time>2025-05-09T12:13:09Z</time>
      </trkpt>
      <trkpt lat="36.902895038947463" lon="-4.686489030718803">
        <ele>326.5</ele>
        <time>2025-05-09T12:13:10Z</time>
      </trkpt>
      <trkpt lat="36.902862014248967" lon="-4.686569999903441">
        <ele>326.01999999999998</ele>
        <time>2025-05-09T12:13:11Z</time>
      </trkpt>
      <trkpt lat="36.902907025068998" lon="-4.686663039028645">
        <ele>325.54000000000002</ele>
        <time>2025-05-09T12:13:12Z</time>
      </trkpt>
      <trkpt lat="36.902948012575507" lon="-4.686749959364533">
        <ele>325.06</ele>
        <time>2025-05-09T12:13:13Z</time>
      </trkpt>
      <trkpt lat="36.902992017567158" lon="-4.686841992661357">
        <ele>324.57999999999998</ele>
        <time>2025-05-09T12:13:14Z</time>
      </trkpt>
      <trkpt lat="36.903037028387189" lon="-4.686936037614942">
        <ele>324.57999999999998</ele>
        <time>2025-05-09T12:13:15Z</time>
      </trkpt>
      <trkpt lat="36.903082961216569" lon="-4.687033016234636">
        <ele>324.10000000000002</ele>
        <time>2025-05-09T12:13:16Z</time>
      </trkpt>
      <trkpt lat="36.903106011450291" lon="-4.687139969319105">
        <ele>323.62</ele>
        <time>2025-05-09T12:13:17Z</time>
      </trkpt>
      <trkpt lat="36.903116991743445" lon="-4.687253041192889">
        <ele>323.13999999999999</ele>
        <time>2025-05-09T12:13:18Z</time>
      </trkpt>
      <trkpt lat="36.903128977864981" lon="-4.687368962913752">
        <ele>323.13999999999999</ele>
        <time>2025-05-09T12:13:19Z</time>
      </trkpt>
      <trkpt lat="36.903139958158135" lon="-4.687485974282026">
        <ele>323.13999999999999</ele>
        <time>2025-05-09T12:13:20Z</time>
      </trkpt>
      <trkpt lat="36.903152028098702" lon="-4.68760097399354">
        <ele>323.13999999999999</ele>
        <time>2025-05-09T12:13:21Z</time>
      </trkpt>
      <trkpt lat="36.903164014220238" lon="-4.687713040038943">
        <ele>323.13999999999999</ele>
        <time>2025-05-09T12:13:22Z</time>
      </trkpt>
      <trkpt lat="36.903197038918734" lon="-4.687818987295032">
        <ele>323.13999999999999</ele>
        <time>2025-05-09T12:13:23Z</time>
      </trkpt>
      <trkpt lat="36.903229979798198" lon="-4.687924012541771">
        <ele>323.13999999999999</ele>
        <time>2025-05-09T12:13:24Z</time>
      </trkpt>
      <trkpt lat="36.903260992839932" lon="-4.688021996989846">
        <ele>323.13999999999999</ele>
        <time>2025-05-09T12:13:25Z</time>
      </trkpt>
      <trkpt lat="36.90325696952641" lon="-4.688129033893347">
        <ele>322.66000000000003</ele>
        <time>2025-05-09T12:13:26Z</time>
      </trkpt>
      <trkpt lat="36.903239032253623" lon="-4.688235986977816">
        <ele>322.66000000000003</ele>
        <time>2025-05-09T12:13:27Z</time>
      </trkpt>
      <trkpt lat="36.903220005333424" lon="-4.688349980860949">
        <ele>322.18000000000001</ele>
        <time>2025-05-09T12:13:28Z</time>
      </trkpt>
      <trkpt lat="36.903199972584844" lon="-4.688472021371126">
        <ele>322.18000000000001</ele>
        <time>2025-05-09T12:13:29Z</time>
      </trkpt>
      <trkpt lat="36.903179017826915" lon="-4.688592972233892">
        <ele>321.69999999999999</ele>
        <time>2025-05-09T12:13:30Z</time>
      </trkpt>
      <trkpt lat="36.903164014220238" lon="-4.688715012744069">
        <ele>321.22000000000003</ele>
        <time>2025-05-09T12:13:31Z</time>
      </trkpt>
      <trkpt lat="36.903226962313056" lon="-4.68933803960681">
        <ele>318.81</ele>
        <time>2025-05-09T12:13:36Z</time>
      </trkpt>
      <trkpt lat="36.903279013931751" lon="-4.689442981034517">
        <ele>318.32999999999998</ele>
        <time>2025-05-09T12:13:37Z</time>
      </trkpt>
      <trkpt lat="36.903338022530079" lon="-4.689512969926">
        <ele>317.85000000000002</ele>
        <time>2025-05-09T12:13:38Z</time>
      </trkpt>
      <trkpt lat="36.903411028906703" lon="-4.689524034038186">
        <ele>317.37</ele>
        <time>2025-05-09T12:13:39Z</time>
      </trkpt>
      <trkpt lat="36.903483029454947" lon="-4.689519004896283">
        <ele>316.41000000000003</ele>
        <time>2025-05-09T12:13:40Z</time>
      </trkpt>
      <trkpt lat="36.90355503000319" lon="-4.68947097659111">
        <ele>315.93000000000001</ele>
        <time>2025-05-09T12:13:41Z</time>
      </trkpt>
      <trkpt lat="36.903629964217544" lon="-4.689423032104969">
        <ele>314.97000000000003</ele>
        <time>2025-05-09T12:13:42Z</time>
      </trkpt>
      <trkpt lat="36.903711017221212" lon="-4.689369974657893">
        <ele>314.97000000000003</ele>
        <time>2025-05-09T12:13:43Z</time>
      </trkpt>
      <trkpt lat="36.903795003890991" lon="-4.689314989373088">
        <ele>314.49000000000001</ele>
        <time>2025-05-09T12:13:44Z</time>
      </trkpt>
      <trkpt lat="36.903882008045912" lon="-4.689258998259902">
        <ele>313.52999999999997</ele>
        <time>2025-05-09T12:13:45Z</time>
      </trkpt>
      <trkpt lat="36.903959959745407" lon="-4.689267966896296">
        <ele>313.05000000000001</ele>
        <time>2025-05-09T12:13:46Z</time>
      </trkpt>
      <trkpt lat="36.904051993042231" lon="-4.689289005473256">
        <ele>312.56999999999999</ele>
        <time>2025-05-09T12:13:47Z</time>
      </trkpt>
      <trkpt lat="36.904146960005164" lon="-4.689309960231185">
        <ele>311.60000000000002</ele>
        <time>2025-05-09T12:13:48Z</time>
      </trkpt>
      <trkpt lat="36.904245028272271" lon="-4.689332004636526">
        <ele>310.63999999999999</ele>
        <time>2025-05-09T12:13:49Z</time>
      </trkpt>
      <trkpt lat="36.904339995235205" lon="-4.689353965222836">
        <ele>310.16000000000003</ele>
        <time>2025-05-09T12:13:50Z</time>
      </trkpt>
      <trkpt lat="36.904432028532028" lon="-4.689330998808146">
        <ele>309.19999999999999</ele>
        <time>2025-05-09T12:13:51Z</time>
      </trkpt>
      <trkpt lat="36.904520038515329" lon="-4.689290011301637">
        <ele>308.24000000000001</ele>
        <time>2025-05-09T12:13:52Z</time>
      </trkpt>
      <trkpt lat="36.904596984386444" lon="-4.689215999096632">
        <ele>307.75999999999999</ele>
        <time>2025-05-09T12:13:53Z</time>
      </trkpt>
      <trkpt lat="36.904676025733352" lon="-4.689140981063247">
        <ele>306.80000000000001</ele>
        <time>2025-05-09T12:13:54Z</time>
      </trkpt>
      <trkpt lat="36.904758000746369" lon="-4.689062023535371">
        <ele>305.83999999999997</ele>
        <time>2025-05-09T12:13:55Z</time>
      </trkpt>
      <trkpt lat="36.904926979914308" lon="-4.688902013003826">
        <ele>304.38999999999999</ele>
        <time>2025-05-09T12:13:57Z</time>
      </trkpt>
      <trkpt lat="36.904985988512635" lon="-4.68884501606226">
        <ele>303.43000000000001</ele>
        <time>2025-05-09T12:13:58Z</time>
      </trkpt>
      <trkpt lat="36.905108029022813" lon="-4.688810985535383">
        <ele>301.99000000000001</ele>
        <time>2025-05-09T12:13:59Z</time>
      </trkpt>
      <trkpt lat="36.90520903095603" lon="-4.68878298997879">
        <ele>300.55000000000001</ele>
        <time>2025-05-09T12:14:00Z</time>
      </trkpt>
      <trkpt lat="36.905311960726976" lon="-4.688753988593817">
        <ele>299.58999999999997</ele>
        <time>2025-05-09T12:14:01Z</time>
      </trkpt>
      <trkpt lat="36.905412962660193" lon="-4.688724987208843">
        <ele>298.63</ele>
        <time>2025-05-09T12:14:02Z</time>
      </trkpt>
      <trkpt lat="36.90551002509892" lon="-4.688697997480631">
        <ele>297.18000000000001</ele>
        <time>2025-05-09T12:14:03Z</time>
      </trkpt>
      <trkpt lat="36.905573979020119" lon="-4.688623985275626">
        <ele>296.22000000000003</ele>
        <time>2025-05-09T12:14:04Z</time>
      </trkpt>
      <trkpt lat="36.90564296208322" lon="-4.688530024141073">
        <ele>295.25999999999999</ele>
        <time>2025-05-09T12:14:05Z</time>
      </trkpt>
      <trkpt lat="36.905714040622115" lon="-4.688433967530727">
        <ele>293.81999999999999</ele>
        <time>2025-05-09T12:14:06Z</time>
      </trkpt>
      <trkpt lat="36.905786041170359" lon="-4.688335983082652">
        <ele>292.86000000000001</ele>
        <time>2025-05-09T12:14:07Z</time>
      </trkpt>
      <trkpt lat="36.905857035890222" lon="-4.688237998634577">
        <ele>291.89999999999998</ele>
        <time>2025-05-09T12:14:08Z</time>
      </trkpt>
      <trkpt lat="36.905928030610085" lon="-4.688143031671643">
        <ele>291.42000000000002</ele>
        <time>2025-05-09T12:14:09Z</time>
      </trkpt>
      <trkpt lat="36.905998019501567" lon="-4.688049992546439">
        <ele>290.45999999999998</ele>
        <time>2025-05-09T12:14:10Z</time>
      </trkpt>
      <trkpt lat="36.906084017828107" lon="-4.688025014474988">
        <ele>289.97000000000003</ele>
        <time>2025-05-09T12:14:11Z</time>
      </trkpt>
      <trkpt lat="36.90617898479104" lon="-4.688014034181833">
        <ele>289.49000000000001</ele>
        <time>2025-05-09T12:14:12Z</time>
      </trkpt>
      <trkpt lat="36.906270012259483" lon="-4.68802903778851">
        <ele>289.00999999999999</ele>
        <time>2025-05-09T12:14:13Z</time>
      </trkpt>
      <trkpt lat="36.906453995034099" lon="-4.688044963404536">
        <ele>288.05000000000001</ele>
        <time>2025-05-09T12:14:15Z</time>
      </trkpt>
      <trkpt lat="36.906545022502542" lon="-4.688034988939762">
        <ele>288.05000000000001</ele>
        <time>2025-05-09T12:14:16Z</time>
      </trkpt>
      <trkpt lat="36.906631020829082" lon="-4.68800900503993">
        <ele>287.56999999999999</ele>
        <time>2025-05-09T12:14:17Z</time>
      </trkpt>
      <trkpt lat="36.90671500749886" lon="-4.687959970906377">
        <ele>287.08999999999997</ele>
        <time>2025-05-09T12:14:18Z</time>
      </trkpt>
      <trkpt lat="36.9068010058254" lon="-4.687910014763475">
        <ele>286.61000000000001</ele>
        <time>2025-05-09T12:14:19Z</time>
      </trkpt>
      <trkpt lat="36.906967973336577" lon="-4.687813958153129">
        <ele>285.64999999999998</ele>
        <time>2025-05-09T12:14:21Z</time>
      </trkpt>
      <trkpt lat="36.907023964449763" lon="-4.687743969261646">
        <ele>285.17000000000002</ele>
        <time>2025-05-09T12:14:22Z</time>
      </trkpt>
      <trkpt lat="36.907063024118543" lon="-4.687651013955474">
        <ele>285.17000000000002</ele>
        <time>2025-05-09T12:14:23Z</time>
      </trkpt>
      <trkpt lat="36.907099988311529" lon="-4.687560992315412">
        <ele>285.17000000000002</ele>
        <time>2025-05-09T12:14:24Z</time>
      </trkpt>
      <trkpt lat="36.907138964161277" lon="-4.687467031180859">
        <ele>285.17000000000002</ele>
        <time>2025-05-09T12:14:25Z</time>
      </trkpt>
      <trkpt lat="36.907179029658437" lon="-4.687371980398893">
        <ele>285.17000000000002</ele>
        <time>2025-05-09T12:14:26Z</time>
      </trkpt>
      <trkpt lat="36.907225968316197" lon="-4.687273995950818">
        <ele>284.69</ele>
        <time>2025-05-09T12:14:27Z</time>
      </trkpt>
      <trkpt lat="36.907299980521202" lon="-4.687227979302406">
        <ele>284.20999999999998</ele>
        <time>2025-05-09T12:14:28Z</time>
      </trkpt>
      <trkpt lat="36.907377010211349" lon="-4.687181962653995">
        <ele>284.20999999999998</ele>
        <time>2025-05-09T12:14:29Z</time>
      </trkpt>
      <trkpt lat="36.907601980492473" lon="-4.687043996527791">
        <ele>283.25</ele>
        <time>2025-05-09T12:14:32Z</time>
      </trkpt>
      <trkpt lat="36.907675992697477" lon="-4.68699999153614">
        <ele>282.76999999999998</ele>
        <time>2025-05-09T12:14:33Z</time>
      </trkpt>
      <trkpt lat="36.907758973538876" lon="-4.686982976272702">
        <ele>282.27999999999997</ele>
        <time>2025-05-09T12:14:34Z</time>
      </trkpt>
      <trkpt lat="36.907840026542544" lon="-4.686992028728128">
        <ele>281.80000000000001</ele>
        <time>2025-05-09T12:14:35Z</time>
      </trkpt>
      <trkpt lat="36.90791797824204" lon="-4.687017006799579">
        <ele>281.31999999999999</ele>
        <time>2025-05-09T12:14:36Z</time>
      </trkpt>
      <trkpt lat="36.907970029860735" lon="-4.687081966549158">
        <ele>280.36000000000001</ele>
        <time>2025-05-09T12:14:37Z</time>
      </trkpt>
      <trkpt lat="36.907997019588947" lon="-4.687161007896066">
        <ele>279.88</ele>
        <time>2025-05-09T12:14:38Z</time>
      </trkpt>
      <trkpt lat="36.908007999882102" lon="-4.687244994565845">
        <ele>279.88</ele>
        <time>2025-05-09T12:14:39Z</time>
      </trkpt>
      <trkpt lat="36.907992996275425" lon="-4.687325041741133">
        <ele>279.88</ele>
        <time>2025-05-09T12:14:40Z</time>
      </trkpt>
      <trkpt lat="36.90796097740531" lon="-4.68740601092577">
        <ele>279.88</ele>
        <time>2025-05-09T12:14:41Z</time>
      </trkpt>
      <trkpt lat="36.907925019040704" lon="-4.687495026737452">
        <ele>280.36000000000001</ele>
        <time>2025-05-09T12:14:42Z</time>
      </trkpt>
      <trkpt lat="36.907886965200305" lon="-4.687589993700385">
        <ele>280.36000000000001</ele>
        <time>2025-05-09T12:14:43Z</time>
      </trkpt>
      <trkpt lat="36.907883025705814" lon="-4.687696024775505">
        <ele>280.83999999999997</ele>
        <time>2025-05-09T12:14:44Z</time>
      </trkpt>
      <trkpt lat="36.907883025705814" lon="-4.687807001173496">
        <ele>281.31999999999999</ele>
        <time>2025-05-09T12:14:45Z</time>
      </trkpt>
      <trkpt lat="36.907883025705814" lon="-4.687925018370152">
        <ele>281.80000000000001</ele>
        <time>2025-05-09T12:14:46Z</time>
      </trkpt>
      <trkpt lat="36.907899035140872" lon="-4.688041023910046">
        <ele>282.27999999999997</ele>
        <time>2025-05-09T12:14:47Z</time>
      </trkpt>
      <trkpt lat="36.907931976020336" lon="-4.688149988651276">
        <ele>283.25</ele>
        <time>2025-05-09T12:14:48Z</time>
      </trkpt>
      <trkpt lat="36.907977992668748" lon="-4.688231963664293">
        <ele>284.20999999999998</ele>
        <time>2025-05-09T12:14:49Z</time>
      </trkpt>
      <trkpt lat="36.908039012923837" lon="-4.68828703276813">
        <ele>284.69</ele>
        <time>2025-05-09T12:14:50Z</time>
      </trkpt>
      <trkpt lat="36.908099027350545" lon="-4.68828703276813">
        <ele>285.17000000000002</ele>
        <time>2025-05-09T12:14:51Z</time>
      </trkpt>
      <trkpt lat="36.908160969614983" lon="-4.68824696727097">
        <ele>286.61000000000001</ele>
        <time>2025-05-09T12:14:52Z</time>
      </trkpt>
      <trkpt lat="36.908189970999956" lon="-4.688187036663294">
        <ele>287.56999999999999</ele>
        <time>2025-05-09T12:14:53Z</time>
      </trkpt>
      <trkpt lat="36.90821997821331" lon="-4.688128028064966">
        <ele>288.52999999999997</ele>
        <time>2025-05-09T12:14:54Z</time>
      </trkpt>
      <trkpt lat="36.908251997083426" lon="-4.688063990324736">
        <ele>289.97000000000003</ele>
        <time>2025-05-09T12:14:55Z</time>
      </trkpt>
      <trkpt lat="36.908287033438683" lon="-4.687994001433253">
        <ele>290.94</ele>
        <time>2025-05-09T12:14:56Z</time>
      </trkpt>
      <trkpt lat="36.908355010673404" lon="-4.687857963144779">
        <ele>293.33999999999997</ele>
        <time>2025-05-09T12:14:58Z</time>
      </trkpt>
      <trkpt lat="36.908409995958209" lon="-4.687812030315399">
        <ele>294.77999999999997</ele>
        <time>2025-05-09T12:14:59Z</time>
      </trkpt>
      <trkpt lat="36.908462969586253" lon="-4.687767019495368">
        <ele>295.25999999999999</ele>
        <time>2025-05-09T12:15:00Z</time>
      </trkpt>
      <trkpt lat="36.908524995669723" lon="-4.687756039202213">
        <ele>295.74000000000001</ele>
        <time>2025-05-09T12:15:01Z</time>
      </trkpt>
      <trkpt lat="36.908592972904444" lon="-4.687764002010226">
        <ele>295.74000000000001</ele>
        <time>2025-05-09T12:15:02Z</time>
      </trkpt>
      <trkpt lat="36.90867000259459" lon="-4.687779005616903">
        <ele>295.74000000000001</ele>
        <time>2025-05-09T12:15:03Z</time>
      </trkpt>
      <trkpt lat="36.908743008971214" lon="-4.68781697563827">
        <ele>295.74000000000001</ele>
        <time>2025-05-09T12:15:04Z</time>
      </trkpt>
      <trkpt lat="36.908817021176219" lon="-4.68785603530705">
        <ele>296.22000000000003</ele>
        <time>2025-05-09T12:15:05Z</time>
      </trkpt>
      <trkpt lat="36.909066969528794" lon="-4.687986960634589">
        <ele>297.67000000000002</ele>
        <time>2025-05-09T12:15:09Z</time>
      </trkpt>
      <trkpt lat="36.909116003662348" lon="-4.688012022525072">
        <ele>298.14999999999998</ele>
        <time>2025-05-09T12:15:10Z</time>
      </trkpt>
      <trkpt lat="36.909149028360844" lon="-4.68802903778851">
        <ele>298.63</ele>
        <time>2025-05-09T12:15:11Z</time>
      </trkpt>
      <trkpt lat="36.909178029745817" lon="-4.688018979504705">
        <ele>299.11000000000001</ele>
        <time>2025-05-09T12:15:12Z</time>
      </trkpt>
      <trkpt lat="36.90920895896852" lon="-4.688006993383169">
        <ele>299.11000000000001</ele>
        <time>2025-05-09T12:15:13Z</time>
      </trkpt>
      <trkpt lat="36.909233015030622" lon="-4.687998024746776">
        <ele>299.58999999999997</ele>
        <time>2025-05-09T12:15:14Z</time>
      </trkpt>
      <trkpt lat="36.909266039729118" lon="-4.68798603862524">
        <ele>300.55000000000001</ele>
        <time>2025-05-09T12:15:15Z</time>
      </trkpt>
      <trkpt lat="36.909321025013924" lon="-4.68796500004828">
        <ele>300.55000000000001</ele>
        <time>2025-05-09T12:15:16Z</time>
      </trkpt>
      <trkpt lat="36.909332005307078" lon="-4.687929963693023">
        <ele>301.50999999999999</ele>
        <time>2025-05-09T12:15:17Z</time>
      </trkpt>
      <trkpt lat="36.909353965893388" lon="-4.687857963144779">
        <ele>301.99000000000001</ele>
        <time>2025-05-09T12:15:18Z</time>
      </trkpt>
      <trkpt lat="36.909373998641968" lon="-4.6877930033952">
        <ele>302.94999999999999</ele>
        <time>2025-05-09T12:15:19Z</time>
      </trkpt>
      <trkpt lat="36.909391013905406" lon="-4.687735000625253">
        <ele>303.91000000000003</ele>
        <time>2025-05-09T12:15:20Z</time>
      </trkpt>
      <trkpt lat="36.909450022503734" lon="-4.68723502010107">
        <ele>307.75999999999999</ele>
        <time>2025-05-09T12:15:25Z</time>
      </trkpt>
      <trkpt lat="36.909478018060327" lon="-4.687140975147486">
        <ele>308.24000000000001</ele>
        <time>2025-05-09T12:15:26Z</time>
      </trkpt>
      <trkpt lat="36.90950601361692" lon="-4.687048019841313">
        <ele>309.19999999999999</ele>
        <time>2025-05-09T12:15:27Z</time>
      </trkpt>
      <trkpt lat="36.909567033872008" lon="-4.68697702512145">
        <ele>310.16000000000003</ele>
        <time>2025-05-09T12:15:28Z</time>
      </trkpt>
      <trkpt lat="36.909639034420252" lon="-4.686919022351503">
        <ele>311.12</ele>
        <time>2025-05-09T12:15:29Z</time>
      </trkpt>
      <trkpt lat="36.909710029140115" lon="-4.686861019581556">
        <ele>311.60000000000002</ele>
        <time>2025-05-09T12:15:30Z</time>
      </trkpt>
      <trkpt lat="36.910318974405527" lon="-4.686481989920139">
        <ele>318.32999999999998</ele>
        <time>2025-05-09T12:15:38Z</time>
      </trkpt>
      <trkpt lat="36.910371026024222" lon="-4.686410995200276">
        <ele>318.81</ele>
        <time>2025-05-09T12:15:39Z</time>
      </trkpt>
      <trkpt lat="36.910401033237576" lon="-4.686322985216975">
        <ele>319.30000000000001</ele>
        <time>2025-05-09T12:15:40Z</time>
      </trkpt>
      <trkpt lat="36.910420982167125" lon="-4.686223994940519">
        <ele>320.25999999999999</ele>
        <time>2025-05-09T12:15:41Z</time>
      </trkpt>
      <trkpt lat="36.910442020744085" lon="-4.686126010492444">
        <ele>320.74000000000001</ele>
        <time>2025-05-09T12:15:42Z</time>
      </trkpt>
      <trkpt lat="36.910462975502014" lon="-4.686026014387608">
        <ele>321.69999999999999</ele>
        <time>2025-05-09T12:15:43Z</time>
      </trkpt>
      <trkpt lat="36.910487031564116" lon="-4.685934986919165">
        <ele>322.18000000000001</ele>
        <time>2025-05-09T12:15:44Z</time>
      </trkpt>
      <trkpt lat="36.910532964393497" lon="-4.685852006077766">
        <ele>323.13999999999999</ele>
        <time>2025-05-09T12:15:45Z</time>
      </trkpt>
      <trkpt lat="36.910577975213528" lon="-4.685771036893129">
        <ele>323.62</ele>
        <time>2025-05-09T12:15:46Z</time>
      </trkpt>
      <trkpt lat="36.910646958276629" lon="-4.685728037729859">
        <ele>324.57999999999998</ele>
        <time>2025-05-09T12:15:47Z</time>
      </trkpt>
      <trkpt lat="36.910722982138395" lon="-4.685693001374602">
        <ele>325.54000000000002</ele>
        <time>2025-05-09T12:15:48Z</time>
      </trkpt>
      <trkpt lat="36.910804035142064" lon="-4.685656037181616">
        <ele>326.01999999999998</ele>
        <time>2025-05-09T12:15:49Z</time>
      </trkpt>
      <trkpt lat="36.910889027640224" lon="-4.68564597889781">
        <ele>326.5</ele>
        <time>2025-05-09T12:15:50Z</time>
      </trkpt>
      <trkpt lat="36.910979971289635" lon="-4.685642961412668">
        <ele>326.99000000000001</ele>
        <time>2025-05-09T12:15:51Z</time>
      </trkpt>
      <trkpt lat="36.912115970626473" lon="-4.685589987784624">
        <ele>335.63999999999999</ele>
        <time>2025-05-09T12:16:03Z</time>
      </trkpt>
      <trkpt lat="36.913299998268485" lon="-4.685768019407988">
        <ele>347.17000000000002</ele>
        <time>2025-05-09T12:16:14Z</time>
      </trkpt>
      <trkpt lat="36.913369987159967" lon="-4.685765001922846">
        <ele>347.64999999999998</ele>
        <time>2025-05-09T12:16:15Z</time>
      </trkpt>
      <trkpt lat="36.913434024900198" lon="-4.685716973617673">
        <ele>348.62</ele>
        <time>2025-05-09T12:16:16Z</time>
      </trkpt>
      <trkpt lat="36.91352597437799" lon="-4.685647990554571">
        <ele>349.57999999999998</ele>
        <time>2025-05-09T12:16:17Z</time>
      </trkpt>
      <trkpt lat="36.913580037653446" lon="-4.685581019148231">
        <ele>350.54000000000002</ele>
        <time>2025-05-09T12:16:18Z</time>
      </trkpt>
      <trkpt lat="36.913653966039419" lon="-4.685489991679788">
        <ele>351.5</ele>
        <time>2025-05-09T12:16:19Z</time>
      </trkpt>
      <trkpt lat="36.91459902562201" lon="-4.684488018974662">
        <ele>361.11000000000001</ele>
        <time>2025-05-09T12:16:29Z</time>
      </trkpt>
      <trkpt lat="36.915056006982923" lon="-4.684056015685201">
        <ele>366.39999999999998</ele>
        <time>2025-05-09T12:16:34Z</time>
      </trkpt>
      <trkpt lat="36.915085008367896" lon="-4.683964988216758">
        <ele>367.36000000000001</ele>
        <time>2025-05-09T12:16:35Z</time>
      </trkpt>
      <trkpt lat="36.915104035288095" lon="-4.683857029303908">
        <ele>367.83999999999997</ele>
        <time>2025-05-09T12:16:36Z</time>
      </trkpt>
      <trkpt lat="36.915103029459715" lon="-4.683745969086886">
        <ele>368.80000000000001</ele>
        <time>2025-05-09T12:16:37Z</time>
      </trkpt>
      <trkpt lat="36.915077967569232" lon="-4.683622000738978">
        <ele>369.27999999999997</ele>
        <time>2025-05-09T12:16:38Z</time>
      </trkpt>
      <trkpt lat="36.9150519836694" lon="-4.683490991592407">
        <ele>370.24000000000001</ele>
        <time>2025-05-09T12:16:39Z</time>
      </trkpt>
      <trkpt lat="36.914998004212976" lon="-4.683221010491252">
        <ele>371.69</ele>
        <time>2025-05-09T12:16:41Z</time>
      </trkpt>
      <trkpt lat="36.914998004212976" lon="-4.683100981637836">
        <ele>373.13</ele>
        <time>2025-05-09T12:16:42Z</time>
      </trkpt>
      <trkpt lat="36.915023988112807" lon="-4.682984976097941">
        <ele>374.08999999999997</ele>
        <time>2025-05-09T12:16:43Z</time>
      </trkpt>
      <trkpt lat="36.915078973397613" lon="-4.68289596028626">
        <ele>375.05000000000001</ele>
        <time>2025-05-09T12:16:44Z</time>
      </trkpt>
      <trkpt lat="36.915142005309463" lon="-4.68280996195972">
        <ele>376.00999999999999</ele>
        <time>2025-05-09T12:16:45Z</time>
      </trkpt>
      <trkpt lat="36.915206965059042" lon="-4.68272203579545">
        <ele>376.97000000000003</ele>
        <time>2025-05-09T12:16:46Z</time>
      </trkpt>
      <trkpt lat="36.915280977264047" lon="-4.68263796530664">
        <ele>377.94</ele>
        <time>2025-05-09T12:16:47Z</time>
      </trkpt>
      <trkpt lat="36.915791016072035" lon="-4.68205701559782">
        <ele>383.22000000000003</ele>
        <time>2025-05-09T12:16:53Z</time>
      </trkpt>
      <trkpt lat="36.915861004963517" lon="-4.681944027543068">
        <ele>384.66000000000003</ele>
        <time>2025-05-09T12:16:54Z</time>
      </trkpt>
      <trkpt lat="36.915921019390225" lon="-4.681823998689652">
        <ele>386.11000000000001</ele>
        <time>2025-05-09T12:16:55Z</time>
      </trkpt>
      <trkpt lat="36.916538011282682" lon="-4.680802999064326">
        <ele>390.43000000000001</ele>
        <time>2025-05-09T12:17:05Z</time>
      </trkpt>
      <trkpt lat="36.916758036240935" lon="-4.680514996871352">
        <ele>388.50999999999999</ele>
        <time>2025-05-09T12:17:08Z</time>
      </trkpt>
      <trkpt lat="36.916830958798528" lon="-4.680419024080038">
        <ele>387.06999999999999</ele>
        <time>2025-05-09T12:17:09Z</time>
      </trkpt>
      <trkpt lat="36.916930032894015" lon="-4.680378958582878">
        <ele>386.11000000000001</ele>
        <time>2025-05-09T12:17:10Z</time>
      </trkpt>
      <trkpt lat="36.917037991806865" lon="-4.680362027138472">
        <ele>385.14999999999998</ele>
        <time>2025-05-09T12:17:11Z</time>
      </trkpt>
      <trkpt lat="36.917147962376475" lon="-4.680345011875033">
        <ele>383.69999999999999</ele>
        <time>2025-05-09T12:17:12Z</time>
      </trkpt>
      <trkpt lat="36.91726204007864" lon="-4.680327996611595">
        <ele>382.25999999999999</ele>
        <time>2025-05-09T12:17:13Z</time>
      </trkpt>
      <trkpt lat="36.917377961799502" lon="-4.680309975519776">
        <ele>381.30000000000001</ele>
        <time>2025-05-09T12:17:14Z</time>
      </trkpt>
      <trkpt lat="36.917484998703003" lon="-4.680262031033635">
        <ele>379.86000000000001</ele>
        <time>2025-05-09T12:17:15Z</time>
      </trkpt>
      <trkpt lat="36.917579965665936" lon="-4.680198999121785">
        <ele>378.42000000000002</ele>
        <time>2025-05-09T12:17:16Z</time>
      </trkpt>
      <trkpt lat="36.917666969820857" lon="-4.680111994966865">
        <ele>377.44999999999999</ele>
        <time>2025-05-09T12:17:17Z</time>
      </trkpt>
      <trkpt lat="36.917751962319016" lon="-4.680027002468705">
        <ele>376.00999999999999</ele>
        <time>2025-05-09T12:17:18Z</time>
      </trkpt>
      <trkpt lat="36.917818011716008" lon="-4.679961036890745">
        <ele>375.05000000000001</ele>
        <time>2025-05-09T12:17:19Z</time>
      </trkpt>
      <trkpt lat="36.917926976457238" lon="-4.679924994707108">
        <ele>373.61000000000001</ele>
        <time>2025-05-09T12:17:20Z</time>
      </trkpt>
      <trkpt lat="36.918001994490623" lon="-4.679936980828643">
        <ele>372.64999999999998</ele>
        <time>2025-05-09T12:17:21Z</time>
      </trkpt>
      <trkpt lat="36.918076006695628" lon="-4.679961036890745">
        <ele>371.69</ele>
        <time>2025-05-09T12:17:22Z</time>
      </trkpt>
      <trkpt lat="36.918129986152053" lon="-4.680038988590241">
        <ele>370.73000000000002</ele>
        <time>2025-05-09T12:17:23Z</time>
      </trkpt>
      <trkpt lat="36.918193018063903" lon="-4.680128004401922">
        <ele>369.75999999999999</ele>
        <time>2025-05-09T12:17:24Z</time>
      </trkpt>
      <trkpt lat="36.918258983641863" lon="-4.680222971364856">
        <ele>368.80000000000001</ele>
        <time>2025-05-09T12:17:25Z</time>
      </trkpt>
      <trkpt lat="36.918375995010138" lon="-4.680390022695065">
        <ele>367.36000000000001</ele>
        <time>2025-05-09T12:17:27Z</time>
      </trkpt>
      <trkpt lat="36.918484959751368" lon="-4.680436961352825">
        <ele>366.39999999999998</ele>
        <time>2025-05-09T12:17:28Z</time>
      </trkpt>
      <trkpt lat="36.918582022190094" lon="-4.680454982444644">
        <ele>365.92000000000002</ele>
        <time>2025-05-09T12:17:29Z</time>
      </trkpt>
      <trkpt lat="36.918687969446182" lon="-4.680454982444644">
        <ele>364.95999999999998</ele>
        <time>2025-05-09T12:17:30Z</time>
      </trkpt>
      <trkpt lat="36.918795006349683" lon="-4.68042204156518">
        <ele>364</ele>
        <time>2025-05-09T12:17:31Z</time>
      </trkpt>
      <trkpt lat="36.918902965262532" lon="-4.680385999381542">
        <ele>362.55000000000001</ele>
        <time>2025-05-09T12:17:32Z</time>
      </trkpt>
      <trkpt lat="36.919006984680891" lon="-4.680351968854666">
        <ele>361.58999999999997</ele>
        <time>2025-05-09T12:17:33Z</time>
      </trkpt>
      <trkpt lat="36.919209994375706" lon="-4.680283991619945">
        <ele>359.19</ele>
        <time>2025-05-09T12:17:35Z</time>
      </trkpt>
      <trkpt lat="36.919304961338639" lon="-4.680292038246989">
        <ele>358.23000000000002</ele>
        <time>2025-05-09T12:17:36Z</time>
      </trkpt>
      <trkpt lat="36.919394982978702" lon="-4.680301006883383">
        <ele>357.75</ele>
        <time>2025-05-09T12:17:37Z</time>
      </trkpt>
      <trkpt lat="36.919463966041803" lon="-4.680346017703414">
        <ele>357.26999999999998</ele>
        <time>2025-05-09T12:17:38Z</time>
      </trkpt>
      <trkpt lat="36.919534038752317" lon="-4.68042497523129">
        <ele>357.26999999999998</ele>
        <time>2025-05-09T12:17:39Z</time>
      </trkpt>
      <trkpt lat="36.9196040276438" lon="-4.680506028234959">
        <ele>356.79000000000002</ele>
        <time>2025-05-09T12:17:40Z</time>
      </trkpt>
      <trkpt lat="36.919661024585366" lon="-4.680611975491047">
        <ele>356.79000000000002</ele>
        <time>2025-05-09T12:17:41Z</time>
      </trkpt>
      <trkpt lat="36.919719027355313" lon="-4.680718006566167">
        <ele>356.79000000000002</ele>
        <time>2025-05-09T12:17:42Z</time>
      </trkpt>
      <trkpt lat="36.919895969331264" lon="-4.681001985445619">
        <ele>356.31</ele>
        <time>2025-05-09T12:17:45Z</time>
      </trkpt>
      <trkpt lat="36.919967969879508" lon="-4.681061999872327">
        <ele>355.82999999999998</ele>
        <time>2025-05-09T12:17:46Z</time>
      </trkpt>
      <trkpt lat="36.920046005398035" lon="-4.68106803484261">
        <ele>355.82999999999998</ele>
        <time>2025-05-09T12:17:47Z</time>
      </trkpt>
      <trkpt lat="36.920137032866478" lon="-4.681054037064314">
        <ele>355.82999999999998</ele>
        <time>2025-05-09T12:17:48Z</time>
      </trkpt>
      <trkpt lat="36.920235017314553" lon="-4.681039033457637">
        <ele>355.33999999999997</ele>
        <time>2025-05-09T12:17:49Z</time>
      </trkpt>
      <trkpt lat="36.920333001762629" lon="-4.681011037901044">
        <ele>354.38</ele>
        <time>2025-05-09T12:17:50Z</time>
      </trkpt>
      <trkpt lat="36.921423990279436" lon="-4.680700991302729">
        <ele>347.17000000000002</ele>
        <time>2025-05-09T12:18:00Z</time>
      </trkpt>
      <trkpt lat="36.921534966677427" lon="-4.680708032101393">
        <ele>346.20999999999998</ele>
        <time>2025-05-09T12:18:01Z</time>
      </trkpt>
      <trkpt lat="36.921638986095786" lon="-4.680730998516083">
        <ele>345.25</ele>
        <time>2025-05-09T12:18:02Z</time>
      </trkpt>
      <trkpt lat="36.921738982200623" lon="-4.680773997679353">
        <ele>344.29000000000002</ele>
        <time>2025-05-09T12:18:03Z</time>
      </trkpt>
      <trkpt lat="36.921838978305459" lon="-4.680816996842623">
        <ele>343.32999999999998</ele>
        <time>2025-05-09T12:18:04Z</time>
      </trkpt>
      <trkpt lat="36.922994004562497" lon="-4.681155038997531">
        <ele>332.75</ele>
        <time>2025-05-09T12:18:15Z</time>
      </trkpt>
      <trkpt lat="36.924174008890986" lon="-4.681207006797195">
        <ele>323.62</ele>
        <time>2025-05-09T12:18:25Z</time>
      </trkpt>
      <trkpt lat="36.925681997090578" lon="-4.681012965738773">
        <ele>314.97000000000003</ele>
        <time>2025-05-09T12:18:39Z</time>
      </trkpt>
      <trkpt lat="36.926365038380027" lon="-4.680868964642286">
        <ele>315.44999999999999</ele>
        <time>2025-05-09T12:18:46Z</time>
      </trkpt>
      <trkpt lat="36.926457993686199" lon="-4.680827977135778">
        <ele>315.93000000000001</ele>
        <time>2025-05-09T12:18:47Z</time>
      </trkpt>
      <trkpt lat="36.926549021154642" lon="-4.680786989629269">
        <ele>315.93000000000001</ele>
        <time>2025-05-09T12:18:48Z</time>
      </trkpt>
      <trkpt lat="36.92663200199604" lon="-4.680718006566167">
        <ele>315.93000000000001</ele>
        <time>2025-05-09T12:18:49Z</time>
      </trkpt>
      <trkpt lat="36.926706014201045" lon="-4.680642988532782">
        <ele>315.93000000000001</ele>
        <time>2025-05-09T12:18:50Z</time>
      </trkpt>
      <trkpt lat="36.926768962293863" lon="-4.680552966892719">
        <ele>315.44999999999999</ele>
        <time>2025-05-09T12:18:51Z</time>
      </trkpt>
      <trkpt lat="36.9268240313977" lon="-4.680464034900069">
        <ele>315.44999999999999</ele>
        <time>2025-05-09T12:18:52Z</time>
      </trkpt>
      <trkpt lat="36.926856972277164" lon="-4.680352974683046">
        <ele>315.44999999999999</ele>
        <time>2025-05-09T12:18:53Z</time>
      </trkpt>
      <trkpt lat="36.926885973662138" lon="-4.680241998285055">
        <ele>315.93000000000001</ele>
        <time>2025-05-09T12:18:54Z</time>
      </trkpt>
      <trkpt lat="36.926914975047112" lon="-4.680133033543825">
        <ele>315.93000000000001</ele>
        <time>2025-05-09T12:18:55Z</time>
      </trkpt>
      <trkpt lat="36.926942970603704" lon="-4.680027002468705">
        <ele>316.41000000000003</ele>
        <time>2025-05-09T12:18:56Z</time>
      </trkpt>
      <trkpt lat="36.926972977817059" lon="-4.679916026070714">
        <ele>316.41000000000003</ele>
        <time>2025-05-09T12:18:57Z</time>
      </trkpt>
      <trkpt lat="36.927001979202032" lon="-4.679811000823975">
        <ele>316.88999999999999</ele>
        <time>2025-05-09T12:18:58Z</time>
      </trkpt>
      <trkpt lat="36.927057970315218" lon="-4.679737994447351">
        <ele>316.88999999999999</ele>
        <time>2025-05-09T12:18:59Z</time>
      </trkpt>
      <trkpt lat="36.927115973085165" lon="-4.679664988070726">
        <ele>317.37</ele>
        <time>2025-05-09T12:19:00Z</time>
      </trkpt>
      <trkpt lat="36.927181016653776" lon="-4.679617965593934">
        <ele>316.88999999999999</ele>
        <time>2025-05-09T12:19:01Z</time>
      </trkpt>
      <trkpt lat="36.927257962524891" lon="-4.679617965593934">
        <ele>316.88999999999999</ele>
        <time>2025-05-09T12:19:02Z</time>
      </trkpt>
      <trkpt lat="36.927331974729896" lon="-4.679655013605952">
        <ele>316.41000000000003</ele>
        <time>2025-05-09T12:19:03Z</time>
      </trkpt>
      <trkpt lat="36.927430965006351" lon="-4.679725002497435">
        <ele>316.41000000000003</ele>
        <time>2025-05-09T12:19:04Z</time>
      </trkpt>
      <trkpt lat="36.927475975826383" lon="-4.679778981953859">
        <ele>316.41000000000003</ele>
        <time>2025-05-09T12:19:05Z</time>
      </trkpt>
      <trkpt lat="36.927541019394994" lon="-4.679857017472386">
        <ele>315.93000000000001</ele>
        <time>2025-05-09T12:19:06Z</time>
      </trkpt>
      <trkpt lat="36.927675968036056" lon="-4.680019039660692">
        <ele>315.44999999999999</ele>
        <time>2025-05-09T12:19:08Z</time>
      </trkpt>
      <trkpt lat="36.927744029089808" lon="-4.68010101467371">
        <ele>315.44999999999999</ele>
        <time>2025-05-09T12:19:09Z</time>
      </trkpt>
      <trkpt lat="36.927829021587968" lon="-4.680136973038316">
        <ele>315.44999999999999</ele>
        <time>2025-05-09T12:19:10Z</time>
      </trkpt>
      <trkpt lat="36.92792097106576" lon="-4.680167986080051">
        <ele>315.44999999999999</ele>
        <time>2025-05-09T12:19:11Z</time>
      </trkpt>
      <trkpt lat="36.928014010190964" lon="-4.680197993293405">
        <ele>314.97000000000003</ele>
        <time>2025-05-09T12:19:12Z</time>
      </trkpt>
      <trkpt lat="36.928111994639039" lon="-4.680218026041985">
        <ele>314.97000000000003</ele>
        <time>2025-05-09T12:19:13Z</time>
      </trkpt>
      <trkpt lat="36.928721023723483" lon="-4.680198999121785">
        <ele>314.00999999999999</ele>
        <time>2025-05-09T12:19:20Z</time>
      </trkpt>
      <trkpt lat="36.928793024271727" lon="-4.680179972201586">
        <ele>314.00999999999999</ele>
        <time>2025-05-09T12:19:21Z</time>
      </trkpt>
      <trkpt lat="36.928852032870054" lon="-4.680147031322122">
        <ele>314.00999999999999</ele>
        <time>2025-05-09T12:19:22Z</time>
      </trkpt>
      <trkpt lat="36.92890701815486" lon="-4.680117024108768">
        <ele>314.00999999999999</ele>
        <time>2025-05-09T12:19:23Z</time>
      </trkpt>
      <trkpt lat="36.928966026753187" lon="-4.680074024945498">
        <ele>314.00999999999999</ele>
        <time>2025-05-09T12:19:24Z</time>
      </trkpt>
      <trkpt lat="36.929006008431315" lon="-4.68001501634717">
        <ele>314.00999999999999</ele>
        <time>2025-05-09T12:19:25Z</time>
      </trkpt>
      <trkpt lat="36.929048001766205" lon="-4.679955001920462">
        <ele>314.00999999999999</ele>
        <time>2025-05-09T12:19:26Z</time>
      </trkpt>
      <trkpt lat="36.929088989272714" lon="-4.679893981665373">
        <ele>314.00999999999999</ele>
        <time>2025-05-09T12:19:27Z</time>
      </trkpt>
      <trkpt lat="36.929132994264364" lon="-4.679831033572555">
        <ele>314.00999999999999</ele>
        <time>2025-05-09T12:19:28Z</time>
      </trkpt>
      <trkpt lat="36.929176999256015" lon="-4.679765990003943">
        <ele>314.49000000000001</ele>
        <time>2025-05-09T12:19:29Z</time>
      </trkpt>
      <trkpt lat="36.929238019511104" lon="-4.679713016375899">
        <ele>314.49000000000001</ele>
        <time>2025-05-09T12:19:30Z</time>
      </trkpt>
      <trkpt lat="36.929304990917444" lon="-4.679664988070726">
        <ele>314.49000000000001</ele>
        <time>2025-05-09T12:19:31Z</time>
      </trkpt>
      <trkpt lat="36.929376991465688" lon="-4.67962802387774">
        <ele>314.97000000000003</ele>
        <time>2025-05-09T12:19:32Z</time>
      </trkpt>
      <trkpt lat="36.929452009499073" lon="-4.679603967815638">
        <ele>315.44999999999999</ele>
        <time>2025-05-09T12:19:33Z</time>
      </trkpt>
      <trkpt lat="36.930230017751455" lon="-4.679482011124492">
        <ele>317.37</ele>
        <time>2025-05-09T12:19:43Z</time>
      </trkpt>
      <trkpt lat="36.930371001362801" lon="-4.679468013346195">
        <ele>317.85000000000002</ele>
        <time>2025-05-09T12:19:45Z</time>
      </trkpt>
      <trkpt lat="36.930763022974133" lon="-4.679357958957553">
        <ele>317.85000000000002</ele>
        <time>2025-05-09T12:19:52Z</time>
      </trkpt>
      <trkpt lat="36.930839968845248" lon="-4.679332980886102">
        <ele>317.85000000000002</ele>
        <time>2025-05-09T12:19:54Z</time>
      </trkpt>
      <trkpt lat="36.930890008807182" lon="-4.679315965622664">
        <ele>317.85000000000002</ele>
        <time>2025-05-09T12:19:55Z</time>
      </trkpt>
      <trkpt lat="36.930937031283975" lon="-4.679300962015986">
        <ele>318.32999999999998</ele>
        <time>2025-05-09T12:19:56Z</time>
      </trkpt>
      <trkpt lat="36.931039039045572" lon="-4.679296016693115">
        <ele>318.81</ele>
        <time>2025-05-09T12:19:58Z</time>
      </trkpt>
      <trkpt lat="36.931099975481629" lon="-4.679296016693115">
        <ele>318.81</ele>
        <time>2025-05-09T12:19:59Z</time>
      </trkpt>
      <trkpt lat="36.931673968210816" lon="-4.679351001977921">
        <ele>320.74000000000001</ele>
        <time>2025-05-09T12:20:08Z</time>
      </trkpt>
      <trkpt lat="36.931728031486273" lon="-4.679395006969571">
        <ele>321.22000000000003</ele>
        <time>2025-05-09T12:20:09Z</time>
      </trkpt>
      <trkpt lat="36.931777987629175" lon="-4.679445968940854">
        <ele>321.69999999999999</ele>
        <time>2025-05-09T12:20:10Z</time>
      </trkpt>
      <trkpt lat="36.931817969307303" lon="-4.679515035822988">
        <ele>321.69999999999999</ele>
        <time>2025-05-09T12:20:11Z</time>
      </trkpt>
      <trkpt lat="36.931857028976083" lon="-4.679581001400948">
        <ele>322.18000000000001</ele>
        <time>2025-05-09T12:20:12Z</time>
      </trkpt>
      <trkpt lat="36.93221895955503" lon="-4.680149964988232">
        <ele>323.13999999999999</ele>
        <time>2025-05-09T12:20:21Z</time>
      </trkpt>
      <trkpt lat="36.932274028658867" lon="-4.680194975808263">
        <ele>323.62</ele>
        <time>2025-05-09T12:20:22Z</time>
      </trkpt>
      <trkpt lat="36.932336976751685" lon="-4.680223977193236">
        <ele>323.62</ele>
        <time>2025-05-09T12:20:23Z</time>
      </trkpt>
      <trkpt lat="36.932407971471548" lon="-4.680234035477042">
        <ele>323.62</ele>
        <time>2025-05-09T12:20:24Z</time>
      </trkpt>
      <trkpt lat="36.932478966191411" lon="-4.680236969143152">
        <ele>323.62</ele>
        <time>2025-05-09T12:20:25Z</time>
      </trkpt>
      <trkpt lat="36.932551972568035" lon="-4.680228000506759">
        <ele>324.10000000000002</ele>
        <time>2025-05-09T12:20:26Z</time>
      </trkpt>
      <trkpt lat="36.932621961459517" lon="-4.680219031870365">
        <ele>324.57999999999998</ele>
        <time>2025-05-09T12:20:27Z</time>
      </trkpt>
      <trkpt lat="36.932683987542987" lon="-4.680211991071701">
        <ele>325.06</ele>
        <time>2025-05-09T12:20:28Z</time>
      </trkpt>
      <trkpt lat="36.933583030477166" lon="-4.680110989138484">
        <ele>334.19999999999999</ele>
        <time>2025-05-09T12:20:40Z</time>
      </trkpt>
      <trkpt lat="36.934160962700844" lon="-4.680083999410272">
        <ele>339.48000000000002</ele>
        <time>2025-05-09T12:20:48Z</time>
      </trkpt>
      <trkpt lat="36.934231035411358" lon="-4.680090034380555">
        <ele>339.95999999999998</ele>
        <time>2025-05-09T12:20:49Z</time>
      </trkpt>
      <trkpt lat="36.934351986274123" lon="-4.680168991908431">
        <ele>340.92000000000002</ele>
        <time>2025-05-09T12:20:51Z</time>
      </trkpt>
      <trkpt lat="36.934406971558928" lon="-4.680206039920449">
        <ele>341.41000000000003</ele>
        <time>2025-05-09T12:20:52Z</time>
      </trkpt>
      <trkpt lat="36.934640994295478" lon="-4.680347023531795">
        <ele>343.32999999999998</ele>
        <time>2025-05-09T12:20:55Z</time>
      </trkpt>
      <trkpt lat="36.934640994295478" lon="-4.680347023531795">
        <ele>343.81</ele>
        <time>2025-05-09T12:20:56Z</time>
      </trkpt>
      <trkpt lat="36.934640994295478" lon="-4.680347023531795">
        <ele>344.76999999999998</ele>
        <time>2025-05-09T12:20:58Z</time>
      </trkpt>
      <trkpt lat="36.934640994295478" lon="-4.680347023531795">
        <ele>345.25</ele>
        <time>2025-05-09T12:20:59Z</time>
      </trkpt>
      <trkpt lat="36.934640994295478" lon="-4.680347023531795">
        <ele>345.73000000000002</ele>
        <time>2025-05-09T12:21:00Z</time>
      </trkpt>
      <trkpt lat="36.934767980128527" lon="-4.680390022695065">
        <ele>347.17000000000002</ele>
        <time>2025-05-09T12:21:06Z</time>
      </trkpt>
      <trkpt lat="36.934769991785288" lon="-4.680390022695065">
        <ele>347.17000000000002</ele>
        <time>2025-05-09T12:21:07Z</time>
      </trkpt>
      <trkpt lat="36.934792036190629" lon="-4.680413994938135">
        <ele>346.69</ele>
        <time>2025-05-09T12:21:08Z</time>
      </trkpt>
      <trkpt lat="36.934809973463416" lon="-4.680433021858335">
        <ele>346.69</ele>
        <time>2025-05-09T12:21:09Z</time>
      </trkpt>
      <trkpt lat="36.934825982898474" lon="-4.680450959131122">
        <ele>346.69</ele>
        <time>2025-05-09T12:21:10Z</time>
      </trkpt>
      <trkpt lat="36.934905024245381" lon="-4.680534023791552">
        <ele>346.69</ele>
        <time>2025-05-09T12:21:14Z</time>
      </trkpt>
      <trkpt lat="36.934918016195297" lon="-4.680548021569848">
        <ele>347.17000000000002</ele>
        <time>2025-05-09T12:21:15Z</time>
      </trkpt>
      <trkpt lat="36.934918016195297" lon="-4.680548021569848">
        <ele>348.13</ele>
        <time>2025-05-09T12:21:28Z</time>
      </trkpt>
      <trkpt lat="36.93490200676024" lon="-4.68042204156518">
        <ele>378.89999999999998</ele>
        <time>2025-05-09T12:29:11Z</time>
      </trkpt>
      <trkpt lat="36.934906030073762" lon="-4.68044601380825">
        <ele>379.86000000000001</ele>
        <time>2025-05-09T12:29:35Z</time>
      </trkpt>
      <trkpt lat="36.934870993718505" lon="-4.680497981607914">
        <ele>379.86000000000001</ele>
        <time>2025-05-09T12:29:48Z</time>
      </trkpt>
      <trkpt lat="36.934898989275098" lon="-4.680571993812919">
        <ele>378.42000000000002</ele>
        <time>2025-05-09T12:29:51Z</time>
      </trkpt>
      <trkpt lat="36.934905024245381" lon="-4.680534023791552">
        <ele>376.97000000000003</ele>
        <time>2025-05-09T12:29:53Z</time>
      </trkpt>
      <trkpt lat="36.93488197401166" lon="-4.680509967729449">
        <ele>376.00999999999999</ele>
        <time>2025-05-09T12:29:54Z</time>
      </trkpt>
      <trkpt lat="36.934726992622018" lon="-4.680754970759153">
        <ele>375.52999999999997</ele>
        <time>2025-05-09T12:29:55Z</time>
      </trkpt>
      <trkpt lat="36.934726992622018" lon="-4.680754970759153">
        <ele>375.05000000000001</ele>
        <time>2025-05-09T12:29:56Z</time>
      </trkpt>
      <trkpt lat="36.934726992622018" lon="-4.680754970759153">
        <ele>375.05000000000001</ele>
        <time>2025-05-09T12:29:57Z</time>
      </trkpt>
      <trkpt lat="36.934633031487465" lon="-4.680568976327777">
        <ele>374.08999999999997</ele>
        <time>2025-05-09T12:29:59Z</time>
      </trkpt>
      <trkpt lat="36.934604030102491" lon="-4.680509967729449">
        <ele>373.61000000000001</ele>
        <time>2025-05-09T12:30:00Z</time>
      </trkpt>
      <trkpt lat="36.934568993747234" lon="-4.680439978837967">
        <ele>373.13</ele>
        <time>2025-05-09T12:30:01Z</time>
      </trkpt>
      <trkpt lat="36.934333965182304" lon="-4.680157005786896">
        <ele>369.75999999999999</ele>
        <time>2025-05-09T12:30:05Z</time>
      </trkpt>
      <trkpt lat="36.934260036796331" lon="-4.680107971653342">
        <ele>368.80000000000001</ele>
        <time>2025-05-09T12:30:06Z</time>
      </trkpt>
      <trkpt lat="36.934165991842747" lon="-4.680085005238652">
        <ele>367.83999999999997</ele>
        <time>2025-05-09T12:30:07Z</time>
      </trkpt>
      <trkpt lat="36.934070019051433" lon="-4.680077964439988">
        <ele>367.36000000000001</ele>
        <time>2025-05-09T12:30:08Z</time>
      </trkpt>
      <trkpt lat="36.933965999633074" lon="-4.680070001631975">
        <ele>366.39999999999998</ele>
        <time>2025-05-09T12:30:09Z</time>
      </trkpt>
      <trkpt lat="36.933743041008711" lon="-4.680091962218285">
        <ele>364.48000000000002</ele>
        <time>2025-05-09T12:30:11Z</time>
      </trkpt>
      <trkpt lat="36.933383038267493" lon="-4.680133033543825">
        <ele>362.06999999999999</ele>
        <time>2025-05-09T12:30:14Z</time>
      </trkpt>
      <trkpt lat="36.933265021070838" lon="-4.680146025493741">
        <ele>361.11000000000001</ele>
        <time>2025-05-09T12:30:15Z</time>
      </trkpt>
      <trkpt lat="36.932929996401072" lon="-4.680183995515108">
        <ele>358.70999999999998</ele>
        <time>2025-05-09T12:30:18Z</time>
      </trkpt>
      <trkpt lat="36.932827988639474" lon="-4.680195981636643">
        <ele>357.75</ele>
        <time>2025-05-09T12:30:19Z</time>
      </trkpt>
      <trkpt lat="36.932417023926973" lon="-4.680235041305423">
        <ele>352.45999999999998</ele>
        <time>2025-05-09T12:30:23Z</time>
      </trkpt>
      <trkpt lat="36.932315016165376" lon="-4.680220959708095">
        <ele>351.5</ele>
        <time>2025-05-09T12:30:24Z</time>
      </trkpt>
      <trkpt lat="36.932236980646849" lon="-4.680164968594909">
        <ele>350.54000000000002</ele>
        <time>2025-05-09T12:30:25Z</time>
      </trkpt>
      <trkpt lat="36.932161962613463" lon="-4.680094979703426">
        <ele>349.57999999999998</ele>
        <time>2025-05-09T12:30:26Z</time>
      </trkpt>
      <trkpt lat="36.932093985378742" lon="-4.679986014962196">
        <ele>349.10000000000002</ele>
        <time>2025-05-09T12:30:27Z</time>
      </trkpt>
      <trkpt lat="36.932026008144021" lon="-4.679869003593922">
        <ele>348.13</ele>
        <time>2025-05-09T12:30:28Z</time>
      </trkpt>
      <trkpt lat="36.931957025080919" lon="-4.679750986397266">
        <ele>347.64999999999998</ele>
        <time>2025-05-09T12:30:29Z</time>
      </trkpt>
      <trkpt lat="36.931770024821162" lon="-4.679431971162558">
        <ele>346.20999999999998</ele>
        <time>2025-05-09T12:30:32Z</time>
      </trkpt>
      <trkpt lat="36.931686038151383" lon="-4.679360976442695">
        <ele>346.20999999999998</ele>
        <time>2025-05-09T12:30:33Z</time>
      </trkpt>
      <trkpt lat="36.931592999026179" lon="-4.679333986714482">
        <ele>345.73000000000002</ele>
        <time>2025-05-09T12:30:34Z</time>
      </trkpt>
      <trkpt lat="36.9315090123564" lon="-4.67932702973485">
        <ele>345.25</ele>
        <time>2025-05-09T12:30:35Z</time>
      </trkpt>
      <trkpt lat="36.931419996544719" lon="-4.679318983107805">
        <ele>345.25</ele>
        <time>2025-05-09T12:30:36Z</time>
      </trkpt>
      <trkpt lat="36.931330980733037" lon="-4.679300040006638">
        <ele>344.76999999999998</ele>
        <time>2025-05-09T12:30:37Z</time>
      </trkpt>
      <trkpt lat="36.931044990196824" lon="-4.679296016693115">
        <ele>343.32999999999998</ele>
        <time>2025-05-09T12:30:40Z</time>
      </trkpt>
      <trkpt lat="36.930950023233891" lon="-4.679296016693115">
        <ele>342.85000000000002</ele>
        <time>2025-05-09T12:30:41Z</time>
      </trkpt>
      <trkpt lat="36.930838041007519" lon="-4.679332980886102">
        <ele>342.37</ele>
        <time>2025-05-09T12:30:42Z</time>
      </trkpt>
      <trkpt lat="36.930732009932399" lon="-4.679369023069739">
        <ele>341.41000000000003</ele>
        <time>2025-05-09T12:30:43Z</time>
      </trkpt>
      <trkpt lat="36.930624973028898" lon="-4.679403975605965">
        <ele>340.44</ele>
        <time>2025-05-09T12:30:44Z</time>
      </trkpt>
      <trkpt lat="36.930512990802526" lon="-4.67943599447608">
        <ele>339</ele>
        <time>2025-05-09T12:30:45Z</time>
      </trkpt>
      <trkpt lat="36.930396985262632" lon="-4.679461978375912">
        <ele>338.04000000000002</ele>
        <time>2025-05-09T12:30:46Z</time>
      </trkpt>
      <trkpt lat="36.930274022743106" lon="-4.679476981982589">
        <ele>337.07999999999998</ele>
        <time>2025-05-09T12:30:47Z</time>
      </trkpt>
      <trkpt lat="36.930141001939774" lon="-4.679488968104124">
        <ele>336.12</ele>
        <time>2025-05-09T12:30:48Z</time>
      </trkpt>
      <trkpt lat="36.929859034717083" lon="-4.679488968104124">
        <ele>334.19999999999999</ele>
        <time>2025-05-09T12:30:50Z</time>
      </trkpt>
      <trkpt lat="36.929717967286706" lon="-4.679518975317478">
        <ele>334.19999999999999</ele>
        <time>2025-05-09T12:30:51Z</time>
      </trkpt>
      <trkpt lat="36.929582012817264" lon="-4.679562980309129">
        <ele>333.70999999999998</ele>
        <time>2025-05-09T12:30:52Z</time>
      </trkpt>
      <trkpt lat="36.929210023954511" lon="-4.679732965305448">
        <ele>332.75</ele>
        <time>2025-05-09T12:30:55Z</time>
      </trkpt>
      <trkpt lat="36.929124025627971" lon="-4.679844025522471">
        <ele>332.75</ele>
        <time>2025-05-09T12:30:56Z</time>
      </trkpt>
      <trkpt lat="36.929041966795921" lon="-4.679962964728475">
        <ele>332.26999999999998</ele>
        <time>2025-05-09T12:30:57Z</time>
      </trkpt>
      <trkpt lat="36.928853038698435" lon="-4.680146025493741">
        <ele>331.79000000000002</ele>
        <time>2025-05-09T12:30:59Z</time>
      </trkpt>
      <trkpt lat="36.928761005401611" lon="-4.680196987465024">
        <ele>331.79000000000002</ele>
        <time>2025-05-09T12:31:00Z</time>
      </trkpt>
      <trkpt lat="36.928660003468394" lon="-4.680200004950166">
        <ele>330.82999999999998</ele>
        <time>2025-05-09T12:31:01Z</time>
      </trkpt>
      <trkpt lat="36.928551960736513" lon="-4.680204028263688">
        <ele>329.87</ele>
        <time>2025-05-09T12:31:02Z</time>
      </trkpt>
      <trkpt lat="36.928426986560225" lon="-4.680207967758179">
        <ele>329.38999999999999</ele>
        <time>2025-05-09T12:31:03Z</time>
      </trkpt>
      <trkpt lat="36.92789901047945" lon="-4.680160023272038">
        <ele>327.94999999999999</ele>
        <time>2025-05-09T12:31:07Z</time>
      </trkpt>
      <trkpt lat="36.927774958312511" lon="-4.680119035765529">
        <ele>327.94999999999999</ele>
        <time>2025-05-09T12:31:08Z</time>
      </trkpt>
      <trkpt lat="36.927686026319861" lon="-4.680031025782228">
        <ele>327.94999999999999</ele>
        <time>2025-05-09T12:31:09Z</time>
      </trkpt>
      <trkpt lat="36.927588963881135" lon="-4.679915020242333">
        <ele>327.47000000000003</ele>
        <time>2025-05-09T12:31:10Z</time>
      </trkpt>
      <trkpt lat="36.92749097943306" lon="-4.679798008874059">
        <ele>326.99000000000001</ele>
        <time>2025-05-09T12:31:11Z</time>
      </trkpt>
      <trkpt lat="36.927385032176971" lon="-4.679692983627319">
        <ele>326.5</ele>
        <time>2025-05-09T12:31:12Z</time>
      </trkpt>
      <trkpt lat="36.927285036072135" lon="-4.679620983079076">
        <ele>326.5</ele>
        <time>2025-05-09T12:31:13Z</time>
      </trkpt>
      <trkpt lat="36.927183028310537" lon="-4.679617965593934">
        <ele>326.5</ele>
        <time>2025-05-09T12:31:14Z</time>
      </trkpt>
      <trkpt lat="36.927114967256784" lon="-4.679665993899107">
        <ele>326.01999999999998</ele>
        <time>2025-05-09T12:31:15Z</time>
      </trkpt>
      <trkpt lat="36.927054030820727" lon="-4.679744029417634">
        <ele>325.54000000000002</ele>
        <time>2025-05-09T12:31:16Z</time>
      </trkpt>
      <trkpt lat="36.926993010565639" lon="-4.67984301969409">
        <ele>325.54000000000002</ele>
        <time>2025-05-09T12:31:17Z</time>
      </trkpt>
      <trkpt lat="36.926957974210382" lon="-4.679970005527139">
        <ele>325.54000000000002</ele>
        <time>2025-05-09T12:31:18Z</time>
      </trkpt>
      <trkpt lat="36.926923021674156" lon="-4.680102020502091">
        <ele>325.54000000000002</ele>
        <time>2025-05-09T12:31:19Z</time>
      </trkpt>
      <trkpt lat="36.926884967833757" lon="-4.680246021598578">
        <ele>325.54000000000002</ele>
        <time>2025-05-09T12:31:20Z</time>
      </trkpt>
      <trkpt lat="36.926844986155629" lon="-4.680396979674697">
        <ele>325.54000000000002</ele>
        <time>2025-05-09T12:31:21Z</time>
      </trkpt>
      <trkpt lat="36.92678002640605" lon="-4.680536035448313">
        <ele>325.54000000000002</ele>
        <time>2025-05-09T12:31:22Z</time>
      </trkpt>
      <trkpt lat="36.926691010594368" lon="-4.680657992139459">
        <ele>325.54000000000002</ele>
        <time>2025-05-09T12:31:23Z</time>
      </trkpt>
      <trkpt lat="36.926585985347629" lon="-4.680763017386198">
        <ele>325.54000000000002</ele>
        <time>2025-05-09T12:31:24Z</time>
      </trkpt>
      <trkpt lat="36.926456987857819" lon="-4.680827977135778">
        <ele>325.54000000000002</ele>
        <time>2025-05-09T12:31:25Z</time>
      </trkpt>
      <trkpt lat="36.926322039216757" lon="-4.680887991562486">
        <ele>325.54000000000002</ele>
        <time>2025-05-09T12:31:26Z</time>
      </trkpt>
      <trkpt lat="36.926184995099902" lon="-4.680948005989194">
        <ele>325.54000000000002</ele>
        <time>2025-05-09T12:31:27Z</time>
      </trkpt>
      <trkpt lat="36.926038982346654" lon="-4.680967032909393">
        <ele>325.54000000000002</ele>
        <time>2025-05-09T12:31:28Z</time>
      </trkpt>
      <trkpt lat="36.925891963765025" lon="-4.680985976010561">
        <ele>325.54000000000002</ele>
        <time>2025-05-09T12:31:29Z</time>
      </trkpt>
      <trkpt lat="36.923874020576477" lon="-4.681244976818562">
        <ele>329.38999999999999</ele>
        <time>2025-05-09T12:31:42Z</time>
      </trkpt>
      <trkpt lat="36.923432964831591" lon="-4.681212035939097">
        <ele>332.26999999999998</ele>
        <time>2025-05-09T12:31:45Z</time>
      </trkpt>
      <trkpt lat="36.922062020748854" lon="-4.680912969633937">
        <ele>344.76999999999998</ele>
        <time>2025-05-09T12:31:54Z</time>
      </trkpt>
      <trkpt lat="36.921614008024335" lon="-4.680721024051309">
        <ele>349.10000000000002</ele>
        <time>2025-05-09T12:31:57Z</time>
      </trkpt>
      <trkpt lat="36.921461960300803" lon="-4.68070300295949">
        <ele>350.06</ele>
        <time>2025-05-09T12:31:58Z</time>
      </trkpt>
      <trkpt lat="36.921312008053064" lon="-4.680694034323096">
        <ele>351.5</ele>
        <time>2025-05-09T12:31:59Z</time>
      </trkpt>
      <trkpt lat="36.921162977814674" lon="-4.680727981030941">
        <ele>352.94</ele>
        <time>2025-05-09T12:32:00Z</time>
      </trkpt>
      <trkpt lat="36.921016965061426" lon="-4.680778020992875">
        <ele>354.38</ele>
        <time>2025-05-09T12:32:01Z</time>
      </trkpt>
      <trkpt lat="36.920867012813687" lon="-4.680828982964158">
        <ele>355.82999999999998</ele>
        <time>2025-05-09T12:32:02Z</time>
      </trkpt>
      <trkpt lat="36.920040976256132" lon="-4.681069040670991">
        <ele>363.04000000000002</ele>
        <time>2025-05-09T12:32:08Z</time>
      </trkpt>
      <trkpt lat="36.919968975707889" lon="-4.681064011529088">
        <ele>364</ele>
        <time>2025-05-09T12:32:09Z</time>
      </trkpt>
      <trkpt lat="36.919890018180013" lon="-4.680997962132096">
        <ele>364.48000000000002</ele>
        <time>2025-05-09T12:32:10Z</time>
      </trkpt>
      <trkpt lat="36.919821035116911" lon="-4.680904000997543">
        <ele>364.95999999999998</ele>
        <time>2025-05-09T12:32:11Z</time>
      </trkpt>
      <trkpt lat="36.919749034568667" lon="-4.680771986022592">
        <ele>364.95999999999998</ele>
        <time>2025-05-09T12:32:12Z</time>
      </trkpt>
      <trkpt lat="36.919674016535282" lon="-4.680635025724769">
        <ele>364.95999999999998</ele>
        <time>2025-05-09T12:32:13Z</time>
      </trkpt>
      <trkpt lat="36.919515011832118" lon="-4.68040301464498">
        <ele>365.44</ele>
        <time>2025-05-09T12:32:15Z</time>
      </trkpt>
      <trkpt lat="36.91943597048521" lon="-4.680313998833299">
        <ele>365.44</ele>
        <time>2025-05-09T12:32:16Z</time>
      </trkpt>
      <trkpt lat="36.919335974380374" lon="-4.68029597774148">
        <ele>365.44</ele>
        <time>2025-05-09T12:32:17Z</time>
      </trkpt>
      <trkpt lat="36.919213011860847" lon="-4.680282985791564">
        <ele>365.44</ele>
        <time>2025-05-09T12:32:18Z</time>
      </trkpt>
      <trkpt lat="36.919119972735643" lon="-4.680313998833299">
        <ele>365.92000000000002</ele>
        <time>2025-05-09T12:32:19Z</time>
      </trkpt>
      <trkpt lat="36.918998016044497" lon="-4.680354986339808">
        <ele>366.39999999999998</ele>
        <time>2025-05-09T12:32:20Z</time>
      </trkpt>
      <trkpt lat="36.918866001069546" lon="-4.680398991331458">
        <ele>367.36000000000001</ele>
        <time>2025-05-09T12:32:21Z</time>
      </trkpt>
      <trkpt lat="36.918737003579736" lon="-4.680441990494728">
        <ele>367.83999999999997</ele>
        <time>2025-05-09T12:32:22Z</time>
      </trkpt>
      <trkpt lat="36.918614041060209" lon="-4.680454982444644">
        <ele>368.80000000000001</ele>
        <time>2025-05-09T12:32:23Z</time>
      </trkpt>
      <trkpt lat="36.918501975014806" lon="-4.68044500797987">
        <ele>369.75999999999999</ele>
        <time>2025-05-09T12:32:24Z</time>
      </trkpt>
      <trkpt lat="36.918398961424828" lon="-4.680399997159839">
        <ele>371.20999999999998</ele>
        <time>2025-05-09T12:32:25Z</time>
      </trkpt>
      <trkpt lat="36.918320003896952" lon="-4.680309975519776">
        <ele>372.17000000000002</ele>
        <time>2025-05-09T12:32:26Z</time>
      </trkpt>
      <trkpt lat="36.918243980035186" lon="-4.680203022435308">
        <ele>373.13</ele>
        <time>2025-05-09T12:32:27Z</time>
      </trkpt>
      <trkpt lat="36.918171979486942" lon="-4.680099003016949">
        <ele>374.08999999999997</ele>
        <time>2025-05-09T12:32:28Z</time>
      </trkpt>
      <trkpt lat="36.918102996423841" lon="-4.680000012740493">
        <ele>375.05000000000001</ele>
        <time>2025-05-09T12:32:29Z</time>
      </trkpt>
      <trkpt lat="36.918027978390455" lon="-4.679946033284068">
        <ele>376.00999999999999</ele>
        <time>2025-05-09T12:32:30Z</time>
      </trkpt>
      <trkpt lat="36.917947009205818" lon="-4.679918037727475">
        <ele>376.49000000000001</ele>
        <time>2025-05-09T12:32:31Z</time>
      </trkpt>
      <trkpt lat="36.917858999222517" lon="-4.679947039112449">
        <ele>377.44999999999999</ele>
        <time>2025-05-09T12:32:32Z</time>
      </trkpt>
      <trkpt lat="36.917773000895977" lon="-4.680005963891745">
        <ele>378.42000000000002</ele>
        <time>2025-05-09T12:32:33Z</time>
      </trkpt>
      <trkpt lat="36.917688008397818" lon="-4.680091962218285">
        <ele>379.86000000000001</ele>
        <time>2025-05-09T12:32:34Z</time>
      </trkpt>
      <trkpt lat="36.917497990652919" lon="-4.680254990234971">
        <ele>381.77999999999997</ele>
        <time>2025-05-09T12:32:36Z</time>
      </trkpt>
      <trkpt lat="36.917390031740069" lon="-4.680307963863015">
        <ele>382.74000000000001</ele>
        <time>2025-05-09T12:32:37Z</time>
      </trkpt>
      <trkpt lat="36.917276037856936" lon="-4.680324979126453">
        <ele>383.22000000000003</ele>
        <time>2025-05-09T12:32:38Z</time>
      </trkpt>
      <trkpt lat="36.916939001530409" lon="-4.680377030745149">
        <ele>386.11000000000001</ele>
        <time>2025-05-09T12:32:41Z</time>
      </trkpt>
      <trkpt lat="36.916833976283669" lon="-4.680415000766516">
        <ele>387.06999999999999</ele>
        <time>2025-05-09T12:32:42Z</time>
      </trkpt>
      <trkpt lat="36.916757030412555" lon="-4.680516002699733">
        <ele>388.50999999999999</ele>
        <time>2025-05-09T12:32:43Z</time>
      </trkpt>
      <trkpt lat="36.916148001328111" lon="-4.681371040642262">
        <ele>395.24000000000001</ele>
        <time>2025-05-09T12:32:50Z</time>
      </trkpt>
      <trkpt lat="36.916069965809584" lon="-4.681527027860284">
        <ele>394.75999999999999</ele>
        <time>2025-05-09T12:32:51Z</time>
      </trkpt>
      <trkpt lat="36.915988996624947" lon="-4.681687960401177">
        <ele>394.27999999999997</ele>
        <time>2025-05-09T12:32:52Z</time>
      </trkpt>
      <trkpt lat="36.915907021611929" lon="-4.681851994246244">
        <ele>393.80000000000001</ele>
        <time>2025-05-09T12:32:53Z</time>
      </trkpt>
      <trkpt lat="36.915826974436641" lon="-4.682012004777789">
        <ele>392.83999999999997</ele>
        <time>2025-05-09T12:32:54Z</time>
      </trkpt>
      <trkpt lat="36.915723038837314" lon="-4.682133961468935">
        <ele>391.87</ele>
        <time>2025-05-09T12:32:55Z</time>
      </trkpt>
      <trkpt lat="36.915620025247335" lon="-4.68225197866559">
        <ele>390.43000000000001</ele>
        <time>2025-05-09T12:32:56Z</time>
      </trkpt>
      <trkpt lat="36.91552103497088" lon="-4.682363960891962">
        <ele>389.94999999999999</ele>
        <time>2025-05-09T12:32:57Z</time>
      </trkpt>
      <trkpt lat="36.91502901725471" lon="-4.682965027168393">
        <ele>384.18000000000001</ele>
        <time>2025-05-09T12:33:03Z</time>
      </trkpt>
      <trkpt lat="36.914998004212976" lon="-4.683100981637836">
        <ele>383.22000000000003</ele>
        <time>2025-05-09T12:33:04Z</time>
      </trkpt>
      <trkpt lat="36.914993980899453" lon="-4.683202989399433">
        <ele>382.25999999999999</ele>
        <time>2025-05-09T12:33:05Z</time>
      </trkpt>
      <trkpt lat="36.915016025304794" lon="-4.683312037959695">
        <ele>381.30000000000001</ele>
        <time>2025-05-09T12:33:06Z</time>
      </trkpt>
      <trkpt lat="36.915037985891104" lon="-4.683418991044164">
        <ele>380.81999999999999</ele>
        <time>2025-05-09T12:33:07Z</time>
      </trkpt>
      <trkpt lat="36.915103029459715" lon="-4.683744041249156">
        <ele>377.94</ele>
        <time>2025-05-09T12:33:10Z</time>
      </trkpt>
      <trkpt lat="36.915106968954206" lon="-4.683842025697231">
        <ele>377.44999999999999</ele>
        <time>2025-05-09T12:33:11Z</time>
      </trkpt>
      <trkpt lat="36.915088025853038" lon="-4.68394503928721">
        <ele>376.49000000000001</ele>
        <time>2025-05-09T12:33:12Z</time>
      </trkpt>
      <trkpt lat="36.915067993104458" lon="-4.684042017906904">
        <ele>376.00999999999999</ele>
        <time>2025-05-09T12:33:13Z</time>
      </trkpt>
      <trkpt lat="36.914999010041356" lon="-4.6841199696064">
        <ele>375.52999999999997</ele>
        <time>2025-05-09T12:33:14Z</time>
      </trkpt>
      <trkpt lat="36.9149000197649" lon="-4.684231029823422">
        <ele>374.56999999999999</ele>
        <time>2025-05-09T12:33:15Z</time>
      </trkpt>
      <trkpt lat="36.914820978417993" lon="-4.684298001229763">
        <ele>373.61000000000001</ele>
        <time>2025-05-09T12:33:16Z</time>
      </trkpt>
      <trkpt lat="36.914026038721204" lon="-4.685032004490495">
        <ele>364.95999999999998</ele>
        <time>2025-05-09T12:33:25Z</time>
      </trkpt>
      <trkpt lat="36.913402006030083" lon="-4.685741029679775">
        <ele>359.67000000000002</ele>
        <time>2025-05-09T12:33:33Z</time>
      </trkpt>
      <trkpt lat="36.913336962461472" lon="-4.685773970559239">
        <ele>359.19</ele>
        <time>2025-05-09T12:33:34Z</time>
      </trkpt>
      <trkpt lat="36.913241995498538" lon="-4.685758966952562">
        <ele>358.23000000000002</ele>
        <time>2025-05-09T12:33:35Z</time>
      </trkpt>
      <trkpt lat="36.913141999393702" lon="-4.685743963345885">
        <ele>357.75</ele>
        <time>2025-05-09T12:33:36Z</time>
      </trkpt>
      <trkpt lat="36.913040997460485" lon="-4.685728959739208">
        <ele>356.79000000000002</ele>
        <time>2025-05-09T12:33:37Z</time>
      </trkpt>
      <trkpt lat="36.912067020311952" lon="-4.685583030804992">
        <ele>349.10000000000002</ele>
        <time>2025-05-09T12:33:44Z</time>
      </trkpt>
      <trkpt lat="36.910875029861927" lon="-4.68564597889781">
        <ele>337.56</ele>
        <time>2025-05-09T12:33:51Z</time>
      </trkpt>
      <trkpt lat="36.910743014886975" lon="-4.685684032738209">
        <ele>336.60000000000002</ele>
        <time>2025-05-09T12:33:52Z</time>
      </trkpt>
      <trkpt lat="36.910621980205178" lon="-4.685739018023014">
        <ele>335.63999999999999</ele>
        <time>2025-05-09T12:33:53Z</time>
      </trkpt>
      <trkpt lat="36.910549979656935" lon="-4.685820993036032">
        <ele>334.68000000000001</ele>
        <time>2025-05-09T12:33:54Z</time>
      </trkpt>
      <trkpt lat="36.910478984937072" lon="-4.685947978869081">
        <ele>333.23000000000002</ele>
        <time>2025-05-09T12:33:55Z</time>
      </trkpt>
      <trkpt lat="36.910461969673634" lon="-4.68603003770113">
        <ele>332.26999999999998</ele>
        <time>2025-05-09T12:33:56Z</time>
      </trkpt>
      <trkpt lat="36.910437997430563" lon="-4.686145959421992">
        <ele>331.31</ele>
        <time>2025-05-09T12:33:57Z</time>
      </trkpt>
      <trkpt lat="36.910413019359112" lon="-4.686263976618648">
        <ele>330.82999999999998</ele>
        <time>2025-05-09T12:33:58Z</time>
      </trkpt>
      <trkpt lat="36.910381000488997" lon="-4.686387022957206">
        <ele>329.87</ele>
        <time>2025-05-09T12:33:59Z</time>
      </trkpt>
      <trkpt lat="36.910317968577147" lon="-4.686481989920139">
        <ele>329.38999999999999</ele>
        <time>2025-05-09T12:34:00Z</time>
      </trkpt>
      <trkpt lat="36.910220989957452" lon="-4.686542004346848">
        <ele>328.43000000000001</ele>
        <time>2025-05-09T12:34:01Z</time>
      </trkpt>
      <trkpt lat="36.910114036872983" lon="-4.686606964096427">
        <ele>327.47000000000003</ele>
        <time>2025-05-09T12:34:02Z</time>
      </trkpt>
      <trkpt lat="36.909513976424932" lon="-4.687021030113101">
        <ele>322.66000000000003</ele>
        <time>2025-05-09T12:34:07Z</time>
      </trkpt>
      <trkpt lat="36.909472988918424" lon="-4.687155978754163">
        <ele>321.69999999999999</ele>
        <time>2025-05-09T12:34:08Z</time>
      </trkpt>
      <trkpt lat="36.90944398753345" lon="-4.687294028699398">
        <ele>320.74000000000001</ele>
        <time>2025-05-09T12:34:09Z</time>
      </trkpt>
      <trkpt lat="36.909428983926773" lon="-4.687451021745801">
        <ele>319.77999999999997</ele>
        <time>2025-05-09T12:34:10Z</time>
      </trkpt>
      <trkpt lat="36.909413980320096" lon="-4.687610026448965">
        <ele>318.32999999999998</ele>
        <time>2025-05-09T12:34:11Z</time>
      </trkpt>
      <trkpt lat="36.909348014742136" lon="-4.687876990064979">
        <ele>316.41000000000003</ele>
        <time>2025-05-09T12:34:13Z</time>
      </trkpt>
      <trkpt lat="36.909321025013924" lon="-4.68796500004828">
        <ele>315.44999999999999</ele>
        <time>2025-05-09T12:34:14Z</time>
      </trkpt>
      <trkpt lat="36.909232009202242" lon="-4.687998024746776">
        <ele>314.49000000000001</ele>
        <time>2025-05-09T12:34:15Z</time>
      </trkpt>
      <trkpt lat="36.909149028360844" lon="-4.68802903778851">
        <ele>314.00999999999999</ele>
        <time>2025-05-09T12:34:16Z</time>
      </trkpt>
      <trkpt lat="36.909061018377542" lon="-4.687984026968479">
        <ele>313.05000000000001</ele>
        <time>2025-05-09T12:34:17Z</time>
      </trkpt>
      <trkpt lat="36.90894803032279" lon="-4.687924012541771">
        <ele>312.08999999999997</ele>
        <time>2025-05-09T12:34:18Z</time>
      </trkpt>
      <trkpt lat="36.908558020368218" lon="-4.687759978696704">
        <ele>309.19999999999999</ele>
        <time>2025-05-09T12:34:21Z</time>
      </trkpt>
      <trkpt lat="36.908484008163214" lon="-4.68775000423193">
        <ele>308.24000000000001</ele>
        <time>2025-05-09T12:34:22Z</time>
      </trkpt>
      <trkpt lat="36.908389963209629" lon="-4.687828961759806">
        <ele>307.27999999999997</ele>
        <time>2025-05-09T12:34:23Z</time>
      </trkpt>
      <trkpt lat="36.908335983753204" lon="-4.687895011156797">
        <ele>306.31999999999999</ele>
        <time>2025-05-09T12:34:24Z</time>
      </trkpt>
      <trkpt lat="36.908287033438683" lon="-4.687994001433253">
        <ele>305.83999999999997</ele>
        <time>2025-05-09T12:34:25Z</time>
      </trkpt>
      <trkpt lat="36.908233975991607" lon="-4.688100032508373">
        <ele>304.88</ele>
        <time>2025-05-09T12:34:26Z</time>
      </trkpt>
      <trkpt lat="36.908184019848704" lon="-4.688199022784829">
        <ele>304.38999999999999</ele>
        <time>2025-05-09T12:34:27Z</time>
      </trkpt>
      <trkpt lat="36.908141020685434" lon="-4.68828703276813">
        <ele>303.43000000000001</ele>
        <time>2025-05-09T12:34:28Z</time>
      </trkpt>
      <trkpt lat="36.908058961853385" lon="-4.68828703276813">
        <ele>302.47000000000003</ele>
        <time>2025-05-09T12:34:29Z</time>
      </trkpt>
      <trkpt lat="36.90800397656858" lon="-4.688257025554776">
        <ele>301.99000000000001</ele>
        <time>2025-05-09T12:34:30Z</time>
      </trkpt>
      <trkpt lat="36.907946979627013" lon="-4.68820103444159">
        <ele>301.02999999999997</ele>
        <time>2025-05-09T12:34:31Z</time>
      </trkpt>
      <trkpt lat="36.907913032919168" lon="-4.688087040558457">
        <ele>299.58999999999997</ele>
        <time>2025-05-09T12:34:32Z</time>
      </trkpt>
      <trkpt lat="36.907883025705814" lon="-4.68798603862524">
        <ele>298.63</ele>
        <time>2025-05-09T12:34:33Z</time>
      </trkpt>
      <trkpt lat="36.907883025705814" lon="-4.687829967588186">
        <ele>297.67000000000002</ele>
        <time>2025-05-09T12:34:34Z</time>
      </trkpt>
      <trkpt lat="36.907883025705814" lon="-4.68768697232008">
        <ele>296.69999999999999</ele>
        <time>2025-05-09T12:34:35Z</time>
      </trkpt>
      <trkpt lat="36.907898029312491" lon="-4.687563003972173">
        <ele>296.69999999999999</ele>
        <time>2025-05-09T12:34:36Z</time>
      </trkpt>
      <trkpt lat="36.907948991283774" lon="-4.687436018139124">
        <ele>296.22000000000003</ele>
        <time>2025-05-09T12:34:37Z</time>
      </trkpt>
      <trkpt lat="36.907994002103806" lon="-4.687324035912752">
        <ele>295.74000000000001</ele>
        <time>2025-05-09T12:34:38Z</time>
      </trkpt>
      <trkpt lat="36.908002970740199" lon="-4.687209958210588">
        <ele>295.74000000000001</ele>
        <time>2025-05-09T12:34:39Z</time>
      </trkpt>
      <trkpt lat="36.907991990447044" lon="-4.687118008732796">
        <ele>295.25999999999999</ele>
        <time>2025-05-09T12:34:40Z</time>
      </trkpt>
      <trkpt lat="36.907947985455394" lon="-4.687053970992565">
        <ele>294.77999999999997</ele>
        <time>2025-05-09T12:34:41Z</time>
      </trkpt>
      <trkpt lat="36.90789601765573" lon="-4.68699898570776">
        <ele>294.30000000000001</ele>
        <time>2025-05-09T12:34:42Z</time>
      </trkpt>
      <trkpt lat="36.907815970480442" lon="-4.686990017071366">
        <ele>293.81999999999999</ele>
        <time>2025-05-09T12:34:43Z</time>
      </trkpt>
      <trkpt lat="36.907727960497141" lon="-4.686979958787561">
        <ele>293.33999999999997</ele>
        <time>2025-05-09T12:34:44Z</time>
      </trkpt>
      <trkpt lat="36.907642967998981" lon="-4.68701901845634">
        <ele>293.33999999999997</ele>
        <time>2025-05-09T12:34:45Z</time>
      </trkpt>
      <trkpt lat="36.907554036006331" lon="-4.687074003741145">
        <ele>293.81999999999999</ele>
        <time>2025-05-09T12:34:46Z</time>
      </trkpt>
      <trkpt lat="36.907458985224366" lon="-4.687131000682712">
        <ele>294.30000000000001</ele>
        <time>2025-05-09T12:34:47Z</time>
      </trkpt>
      <trkpt lat="36.90735999494791" lon="-4.6871920209378">
        <ele>294.30000000000001</ele>
        <time>2025-05-09T12:34:48Z</time>
      </trkpt>
      <trkpt lat="36.907258993014693" lon="-4.687253041192889">
        <ele>294.77999999999997</ele>
        <time>2025-05-09T12:34:49Z</time>
      </trkpt>
      <trkpt lat="36.90718799829483" lon="-4.687351025640965">
        <ele>294.77999999999997</ele>
        <time>2025-05-09T12:34:50Z</time>
      </trkpt>
      <trkpt lat="36.907142987474799" lon="-4.687458984553814">
        <ele>294.77999999999997</ele>
        <time>2025-05-09T12:34:51Z</time>
      </trkpt>
      <trkpt lat="36.907099988311529" lon="-4.687561998143792">
        <ele>294.77999999999997</ele>
        <time>2025-05-09T12:34:52Z</time>
      </trkpt>
      <trkpt lat="36.907056989148259" lon="-4.68766501173377">
        <ele>294.77999999999997</ele>
        <time>2025-05-09T12:34:53Z</time>
      </trkpt>
      <trkpt lat="36.907003009691834" lon="-4.6877930033952">
        <ele>294.77999999999997</ele>
        <time>2025-05-09T12:34:54Z</time>
      </trkpt>
      <trkpt lat="36.906923968344927" lon="-4.687839020043612">
        <ele>295.25999999999999</ele>
        <time>2025-05-09T12:34:55Z</time>
      </trkpt>
      <trkpt lat="36.906812991946936" lon="-4.68790297396481">
        <ele>295.25999999999999</ele>
        <time>2025-05-09T12:34:56Z</time>
      </trkpt>
      <trkpt lat="36.906701009720564" lon="-4.687968017533422">
        <ele>295.25999999999999</ele>
        <time>2025-05-09T12:34:57Z</time>
      </trkpt>
      <trkpt lat="36.906595984473825" lon="-4.68802903778851">
        <ele>295.74000000000001</ele>
        <time>2025-05-09T12:34:58Z</time>
      </trkpt>
      <trkpt lat="36.906481990590692" lon="-4.688042029738426">
        <ele>295.74000000000001</ele>
        <time>2025-05-09T12:34:59Z</time>
      </trkpt>
      <trkpt lat="36.906367996707559" lon="-4.688044963404536">
        <ele>295.74000000000001</ele>
        <time>2025-05-09T12:35:00Z</time>
      </trkpt>
      <trkpt lat="36.90613598562777" lon="-4.688010010868311">
        <ele>295.74000000000001</ele>
        <time>2025-05-09T12:35:02Z</time>
      </trkpt>
      <trkpt lat="36.906031966209412" lon="-4.688040018081665">
        <ele>295.74000000000001</ele>
        <time>2025-05-09T12:35:03Z</time>
      </trkpt>
      <trkpt lat="36.905939010903239" lon="-4.688126016408205">
        <ele>295.74000000000001</ele>
        <time>2025-05-09T12:35:04Z</time>
      </trkpt>
      <trkpt lat="36.905856030061841" lon="-4.688240010291338">
        <ele>296.22000000000003</ele>
        <time>2025-05-09T12:35:05Z</time>
      </trkpt>
      <trkpt lat="36.90576802007854" lon="-4.688360961154103">
        <ele>296.69999999999999</ele>
        <time>2025-05-09T12:35:06Z</time>
      </trkpt>
      <trkpt lat="36.90559996291995" lon="-4.688589032739401">
        <ele>298.14999999999998</ele>
        <time>2025-05-09T12:35:08Z</time>
      </trkpt>
      <trkpt lat="36.905523017048836" lon="-4.688694979995489">
        <ele>299.11000000000001</ele>
        <time>2025-05-09T12:35:09Z</time>
      </trkpt>
      <trkpt lat="36.905438024550676" lon="-4.688718030229211">
        <ele>299.58999999999997</ele>
        <time>2025-05-09T12:35:10Z</time>
      </trkpt>
      <trkpt lat="36.905323024839163" lon="-4.688749965280294">
        <ele>300.55000000000001</ele>
        <time>2025-05-09T12:35:11Z</time>
      </trkpt>
      <trkpt lat="36.905201990157366" lon="-4.688783995807171">
        <ele>301.50999999999999</ele>
        <time>2025-05-09T12:35:12Z</time>
      </trkpt>
      <trkpt lat="36.905076010152698" lon="-4.688820037990809">
        <ele>302.47000000000003</ele>
        <time>2025-05-09T12:35:13Z</time>
      </trkpt>
      <trkpt lat="36.904952963814139" lon="-4.688876029103994">
        <ele>303.43000000000001</ele>
        <time>2025-05-09T12:35:14Z</time>
      </trkpt>
      <trkpt lat="36.904843999072909" lon="-4.688979964703322">
        <ele>304.38999999999999</ele>
        <time>2025-05-09T12:35:15Z</time>
      </trkpt>
      <trkpt lat="36.904537975788116" lon="-4.689271990209818">
        <ele>308.24000000000001</ele>
        <time>2025-05-09T12:35:18Z</time>
      </trkpt>
      <trkpt lat="36.904446026310325" lon="-4.689324041828513">
        <ele>309.68000000000001</ele>
        <time>2025-05-09T12:35:19Z</time>
      </trkpt>
      <trkpt lat="36.904346030205488" lon="-4.689355976879597">
        <ele>310.63999999999999</ele>
        <time>2025-05-09T12:35:20Z</time>
      </trkpt>
      <trkpt lat="36.904237987473607" lon="-4.689330998808146">
        <ele>311.60000000000002</ele>
        <time>2025-05-09T12:35:21Z</time>
      </trkpt>
      <trkpt lat="36.904118964448571" lon="-4.689304009079933">
        <ele>312.56999999999999</ele>
        <time>2025-05-09T12:35:22Z</time>
      </trkpt>
      <trkpt lat="36.904000025242567" lon="-4.689277019351721">
        <ele>314.00999999999999</ele>
        <time>2025-05-09T12:35:23Z</time>
      </trkpt>
      <trkpt lat="36.903890976682305" lon="-4.689252963289619">
        <ele>314.97000000000003</ele>
        <time>2025-05-09T12:35:24Z</time>
      </trkpt>
      <trkpt lat="36.903797015547752" lon="-4.689313983544707">
        <ele>315.93000000000001</ele>
        <time>2025-05-09T12:35:25Z</time>
      </trkpt>
      <trkpt lat="36.903697019442916" lon="-4.689379027113318">
        <ele>317.37</ele>
        <time>2025-05-09T12:35:26Z</time>
      </trkpt>
      <trkpt lat="36.903590988367796" lon="-4.68944801017642">
        <ele>317.85000000000002</ele>
        <time>2025-05-09T12:35:27Z</time>
      </trkpt>
      <trkpt lat="36.903489986434579" lon="-4.68951397575438">
        <ele>318.81</ele>
        <time>2025-05-09T12:35:28Z</time>
      </trkpt>
      <trkpt lat="36.903400970622897" lon="-4.689523028209806">
        <ele>319.30000000000001</ele>
        <time>2025-05-09T12:35:29Z</time>
      </trkpt>
      <trkpt lat="36.903317989781499" lon="-4.689510958269239">
        <ele>319.77999999999997</ele>
        <time>2025-05-09T12:35:30Z</time>
      </trkpt>
      <trkpt lat="36.903272978961468" lon="-4.689430994912982">
        <ele>320.25999999999999</ele>
        <time>2025-05-09T12:35:31Z</time>
      </trkpt>
      <trkpt lat="36.903226040303707" lon="-4.689330998808146">
        <ele>321.22000000000003</ele>
        <time>2025-05-09T12:35:32Z</time>
      </trkpt>
      <trkpt lat="36.903211958706379" lon="-4.689188003540039">
        <ele>321.69999999999999</ele>
        <time>2025-05-09T12:35:33Z</time>
      </trkpt>
      <trkpt lat="36.903195027261972" lon="-4.689022963866592">
        <ele>322.18000000000001</ele>
        <time>2025-05-09T12:35:34Z</time>
      </trkpt>
      <trkpt lat="36.903197960928082" lon="-4.68848099000752">
        <ele>324.10000000000002</ele>
        <time>2025-05-09T12:35:37Z</time>
      </trkpt>
      <trkpt lat="36.903226962313056" lon="-4.688307987526059">
        <ele>324.57999999999998</ele>
        <time>2025-05-09T12:35:38Z</time>
      </trkpt>
      <trkpt lat="36.903253030031919" lon="-4.688153006136417">
        <ele>325.06</ele>
        <time>2025-05-09T12:35:39Z</time>
      </trkpt>
      <trkpt lat="36.903255041688681" lon="-4.688004981726408">
        <ele>325.54000000000002</ele>
        <time>2025-05-09T12:35:40Z</time>
      </trkpt>
      <trkpt lat="36.903214976191521" lon="-4.687875984236598">
        <ele>326.01999999999998</ele>
        <time>2025-05-09T12:35:41Z</time>
      </trkpt>
      <trkpt lat="36.903171977028251" lon="-4.687739023938775">
        <ele>326.5</ele>
        <time>2025-05-09T12:35:42Z</time>
      </trkpt>
      <trkpt lat="36.903150016441941" lon="-4.687586976215243">
        <ele>326.99000000000001</ele>
        <time>2025-05-09T12:35:43Z</time>
      </trkpt>
      <trkpt lat="36.903135012835264" lon="-4.687427971512079">
        <ele>327.47000000000003</ele>
        <time>2025-05-09T12:35:44Z</time>
      </trkpt>
      <trkpt lat="36.90310399979353" lon="-4.687125971540809">
        <ele>329.38999999999999</ele>
        <time>2025-05-09T12:35:46Z</time>
      </trkpt>
      <trkpt lat="36.903065023943782" lon="-4.686994962394238">
        <ele>330.35000000000002</ele>
        <time>2025-05-09T12:35:47Z</time>
      </trkpt>
      <trkpt lat="36.903006015345454" lon="-4.686871999874711">
        <ele>331.31</ele>
        <time>2025-05-09T12:35:48Z</time>
      </trkpt>
      <trkpt lat="36.902947006747127" lon="-4.686748031526804">
        <ele>331.79000000000002</ele>
        <time>2025-05-09T12:35:49Z</time>
      </trkpt>
      <trkpt lat="36.902892021462321" lon="-4.686633031815291">
        <ele>332.75</ele>
        <time>2025-05-09T12:35:50Z</time>
      </trkpt>
      <trkpt lat="36.902878023684025" lon="-4.686531024053693">
        <ele>333.23000000000002</ele>
        <time>2025-05-09T12:35:51Z</time>
      </trkpt>
      <trkpt lat="36.902924040332437" lon="-4.686418035998941">
        <ele>334.19999999999999</ele>
        <time>2025-05-09T12:35:52Z</time>
      </trkpt>
      <trkpt lat="36.90297500230372" lon="-4.686293983832002">
        <ele>335.16000000000003</ele>
        <time>2025-05-09T12:35:53Z</time>
      </trkpt>
      <trkpt lat="36.903024958446622" lon="-4.686173032969236">
        <ele>335.63999999999999</ele>
        <time>2025-05-09T12:35:54Z</time>
      </trkpt>
      <trkpt lat="36.903064018115401" lon="-4.686059961095452">
        <ele>336.12</ele>
        <time>2025-05-09T12:35:55Z</time>
      </trkpt>
      <trkpt lat="36.903086984530091" lon="-4.685955019667745">
        <ele>336.12</ele>
        <time>2025-05-09T12:35:56Z</time>
      </trkpt>
      <trkpt lat="36.903066029772162" lon="-4.685859968885779">
        <ele>336.60000000000002</ele>
        <time>2025-05-09T12:35:57Z</time>
      </trkpt>
      <trkpt lat="36.903012972325087" lon="-4.685785034671426">
        <ele>337.07999999999998</ele>
        <time>2025-05-09T12:35:58Z</time>
      </trkpt>
      <trkpt lat="36.902953963726759" lon="-4.685700964182615">
        <ele>337.56</ele>
        <time>2025-05-09T12:35:59Z</time>
      </trkpt>
      <trkpt lat="36.902892021462321" lon="-4.685613038018346">
        <ele>338.04000000000002</ele>
        <time>2025-05-09T12:36:00Z</time>
      </trkpt>
      <trkpt lat="36.902840975672007" lon="-4.685540031641722">
        <ele>338.51999999999998</ele>
        <time>2025-05-09T12:36:01Z</time>
      </trkpt>
      <trkpt lat="36.902844998985529" lon="-4.685414973646402">
        <ele>339.48000000000002</ele>
        <time>2025-05-09T12:36:02Z</time>
      </trkpt>
      <trkpt lat="36.902849022299051" lon="-4.685291005298495">
        <ele>340.44</ele>
        <time>2025-05-09T12:36:03Z</time>
      </trkpt>
      <trkpt lat="36.902853967621922" lon="-4.685163013637066">
        <ele>341.41000000000003</ele>
        <time>2025-05-09T12:36:04Z</time>
      </trkpt>
      <trkpt lat="36.902857990935445" lon="-4.685038961470127">
        <ele>341.88999999999999</ele>
        <time>2025-05-09T12:36:05Z</time>
      </trkpt>
      <trkpt lat="36.902850028127432" lon="-4.684923961758614">
        <ele>342.37</ele>
        <time>2025-05-09T12:36:06Z</time>
      </trkpt>
      <trkpt lat="36.902775010094047" lon="-4.684834023937583">
        <ele>343.32999999999998</ele>
        <time>2025-05-09T12:36:07Z</time>
      </trkpt>
      <trkpt lat="36.902694962918758" lon="-4.684736961498857">
        <ele>343.81</ele>
        <time>2025-05-09T12:36:08Z</time>
      </trkpt>
      <trkpt lat="36.902608964592218" lon="-4.684632020071149">
        <ele>344.29000000000002</ele>
        <time>2025-05-09T12:36:09Z</time>
      </trkpt>
      <trkpt lat="36.902516009286046" lon="-4.684520037844777">
        <ele>344.76999999999998</ele>
        <time>2025-05-09T12:36:10Z</time>
      </trkpt>
      <trkpt lat="36.902415007352829" lon="-4.6843979973346">
        <ele>345.25</ele>
        <time>2025-05-09T12:36:11Z</time>
      </trkpt>
      <trkpt lat="36.901915026828647" lon="-4.683790979906917">
        <ele>347.17000000000002</ele>
        <time>2025-05-09T12:36:16Z</time>
      </trkpt>
      <trkpt lat="36.901812013238668" lon="-4.683697018772364">
        <ele>347.17000000000002</ele>
        <time>2025-05-09T12:36:17Z</time>
      </trkpt>
      <trkpt lat="36.901692990213633" lon="-4.683643039315939">
        <ele>347.64999999999998</ele>
        <time>2025-05-09T12:36:18Z</time>
      </trkpt>
      <trkpt lat="36.901574973016977" lon="-4.683587970212102">
        <ele>347.64999999999998</ele>
        <time>2025-05-09T12:36:19Z</time>
      </trkpt>
      <trkpt lat="36.901443963870406" lon="-4.683568021282554">
        <ele>348.13</ele>
        <time>2025-05-09T12:36:20Z</time>
      </trkpt>
      <trkpt lat="36.900729993358254" lon="-4.683501971885562">
        <ele>350.06</ele>
        <time>2025-05-09T12:36:25Z</time>
      </trkpt>
      <trkpt lat="36.900579035282135" lon="-4.683515969663858">
        <ele>350.06</ele>
        <time>2025-05-09T12:36:26Z</time>
      </trkpt>
      <trkpt lat="36.900432016700506" lon="-4.683556035161018">
        <ele>350.54000000000002</ele>
        <time>2025-05-09T12:36:27Z</time>
      </trkpt>
      <trkpt lat="36.899012038484216" lon="-4.683789974078536">
        <ele>354.38</ele>
        <time>2025-05-09T12:36:36Z</time>
      </trkpt>
      <trkpt lat="36.898274011909962" lon="-4.683701964095235">
        <ele>355.33999999999997</ele>
        <time>2025-05-09T12:36:41Z</time>
      </trkpt>
      <trkpt lat="36.898161023855209" lon="-4.683633986860514">
        <ele>355.82999999999998</ele>
        <time>2025-05-09T12:36:42Z</time>
      </trkpt>
      <trkpt lat="36.898080976679921" lon="-4.683527033776045">
        <ele>355.82999999999998</ele>
        <time>2025-05-09T12:36:43Z</time>
      </trkpt>
      <trkpt lat="36.898016016930342" lon="-4.683392001315951">
        <ele>355.82999999999998</ele>
        <time>2025-05-09T12:36:44Z</time>
      </trkpt>
      <trkpt lat="36.89794703386724" lon="-4.683248000219464">
        <ele>355.33999999999997</ele>
        <time>2025-05-09T12:36:45Z</time>
      </trkpt>
      <trkpt lat="36.897874027490616" lon="-4.683096958324313">
        <ele>355.33999999999997</ele>
        <time>2025-05-09T12:36:46Z</time>
      </trkpt>
      <trkpt lat="36.89777503721416" lon="-4.682973995804787">
        <ele>355.33999999999997</ele>
        <time>2025-05-09T12:36:47Z</time>
      </trkpt>
      <trkpt lat="36.897671017795801" lon="-4.682869976386428">
        <ele>354.86000000000001</ele>
        <time>2025-05-09T12:36:48Z</time>
      </trkpt>
      <trkpt lat="36.897544031962752" lon="-4.682806022465229">
        <ele>354.86000000000001</ele>
        <time>2025-05-09T12:36:49Z</time>
      </trkpt>
      <trkpt lat="36.897415034472942" lon="-4.682741984724999">
        <ele>354.86000000000001</ele>
        <time>2025-05-09T12:36:50Z</time>
      </trkpt>
      <trkpt lat="36.896280040964484" lon="-4.682252984493971">
        <ele>352.94</ele>
        <time>2025-05-09T12:36:58Z</time>
      </trkpt>
      <trkpt lat="36.896154982969165" lon="-4.682171009480953">
        <ele>352.94</ele>
        <time>2025-05-09T12:36:59Z</time>
      </trkpt>
      <trkpt lat="36.89603503793478" lon="-4.682070007547736">
        <ele>352.94</ele>
        <time>2025-05-09T12:37:00Z</time>
      </trkpt>
      <trkpt lat="36.895829010754824" lon="-4.681897005066276">
        <ele>353.42000000000002</ele>
        <time>2025-05-09T12:37:02Z</time>
      </trkpt>
      <trkpt lat="36.895731026306748" lon="-4.681911002844572">
        <ele>353.42000000000002</ele>
        <time>2025-05-09T12:37:03Z</time>
      </trkpt>
      <trkpt lat="36.895624995231628" lon="-4.681932041421533">
        <ele>352.94</ele>
        <time>2025-05-09T12:37:04Z</time>
      </trkpt>
      <trkpt lat="36.895246971398592" lon="-4.6821219753474">
        <ele>351.98000000000002</ele>
        <time>2025-05-09T12:37:07Z</time>
      </trkpt>
      <trkpt lat="36.89511101692915" lon="-4.682217026129365">
        <ele>351.5</ele>
        <time>2025-05-09T12:37:08Z</time>
      </trkpt>
      <trkpt lat="36.894981013610959" lon="-4.682334959506989">
        <ele>351.01999999999998</ele>
        <time>2025-05-09T12:37:09Z</time>
      </trkpt>
      <trkpt lat="36.894868025556207" lon="-4.68246697448194">
        <ele>350.54000000000002</ele>
        <time>2025-05-09T12:37:10Z</time>
      </trkpt>
      <trkpt lat="36.894781021401286" lon="-4.682622961699963">
        <ele>349.57999999999998</ele>
        <time>2025-05-09T12:37:11Z</time>
      </trkpt>
      <trkpt lat="36.894695023074746" lon="-4.682777021080256">
        <ele>349.10000000000002</ele>
        <time>2025-05-09T12:37:12Z</time>
      </trkpt>
      <trkpt lat="36.89444599673152" lon="-4.683192009106278">
        <ele>346.69</ele>
        <time>2025-05-09T12:37:15Z</time>
      </trkpt>
      <trkpt lat="36.894365027546883" lon="-4.683286976069212">
        <ele>345.73000000000002</ele>
        <time>2025-05-09T12:37:16Z</time>
      </trkpt>
      <trkpt lat="36.894240975379944" lon="-4.683298962190747">
        <ele>344.76999999999998</ele>
        <time>2025-05-09T12:37:17Z</time>
      </trkpt>
      <trkpt lat="36.894113989546895" lon="-4.683311032131314">
        <ele>343.81</ele>
        <time>2025-05-09T12:37:18Z</time>
      </trkpt>
      <trkpt lat="36.893981974571943" lon="-4.68332402408123">
        <ele>342.85000000000002</ele>
        <time>2025-05-09T12:37:19Z</time>
      </trkpt>
      <trkpt lat="36.893855994567275" lon="-4.683362999930978">
        <ele>341.88999999999999</ele>
        <time>2025-05-09T12:37:20Z</time>
      </trkpt>
      <trkpt lat="36.893745018169284" lon="-4.683433994650841">
        <ele>340.92000000000002</ele>
        <time>2025-05-09T12:37:21Z</time>
      </trkpt>
      <trkpt lat="36.893645022064447" lon="-4.683534996584058">
        <ele>339.48000000000002</ele>
        <time>2025-05-09T12:37:22Z</time>
      </trkpt>
      <trkpt lat="36.893270015716553" lon="-4.683908997103572">
        <ele>334.19999999999999</ele>
        <time>2025-05-09T12:37:26Z</time>
      </trkpt>
      <trkpt lat="36.893140012398362" lon="-4.68392601236701">
        <ele>333.23000000000002</ele>
        <time>2025-05-09T12:37:27Z</time>
      </trkpt>
      <trkpt lat="36.893085027113557" lon="-4.683915032073855">
        <ele>331.79000000000002</ele>
        <time>2025-05-09T12:37:28Z</time>
      </trkpt>
      <trkpt lat="36.893025012686849" lon="-4.683844959363341">
        <ele>330.82999999999998</ele>
        <time>2025-05-09T12:37:29Z</time>
      </trkpt>
      <trkpt lat="36.89296499826014" lon="-4.683768013492227">
        <ele>329.38999999999999</ele>
        <time>2025-05-09T12:37:30Z</time>
      </trkpt>
      <trkpt lat="36.892914036288857" lon="-4.683648990467191">
        <ele>328.43000000000001</ele>
        <time>2025-05-09T12:37:31Z</time>
      </trkpt>
      <trkpt lat="36.892653023824096" lon="-4.683035016059876">
        <ele>324.10000000000002</ele>
        <time>2025-05-09T12:37:35Z</time>
      </trkpt>
      <trkpt lat="36.89259803853929" lon="-4.682861007750034">
        <ele>323.13999999999999</ele>
        <time>2025-05-09T12:37:36Z</time>
      </trkpt>
      <trkpt lat="36.892573982477188" lon="-4.682663027197123">
        <ele>321.69999999999999</ele>
        <time>2025-05-09T12:37:37Z</time>
      </trkpt>
      <trkpt lat="36.892551016062498" lon="-4.68246404081583">
        <ele>320.74000000000001</ele>
        <time>2025-05-09T12:37:38Z</time>
      </trkpt>
      <trkpt lat="36.892527965828776" lon="-4.68227201141417">
        <ele>319.30000000000001</ele>
        <time>2025-05-09T12:37:39Z</time>
      </trkpt>
      <trkpt lat="36.892506005242467" lon="-4.682090962305665">
        <ele>317.85000000000002</ele>
        <time>2025-05-09T12:37:40Z</time>
      </trkpt>
      <trkpt lat="36.89247197471559" lon="-4.68192801810801">
        <ele>316.41000000000003</ele>
        <time>2025-05-09T12:37:41Z</time>
      </trkpt>
      <trkpt lat="36.892429981380701" lon="-4.681774964556098">
        <ele>315.44999999999999</ele>
        <time>2025-05-09T12:37:42Z</time>
      </trkpt>
      <trkpt lat="36.892391005530953" lon="-4.681634986773133">
        <ele>314.00999999999999</ele>
        <time>2025-05-09T12:37:43Z</time>
      </trkpt>
      <trkpt lat="36.892324034124613" lon="-4.681585030630231">
        <ele>312.56999999999999</ele>
        <time>2025-05-09T12:37:44Z</time>
      </trkpt>
      <trkpt lat="36.892250021919608" lon="-4.681529961526394">
        <ele>311.12</ele>
        <time>2025-05-09T12:37:45Z</time>
      </trkpt>
      <trkpt lat="36.892196964472532" lon="-4.681514035910368">
        <ele>310.16000000000003</ele>
        <time>2025-05-09T12:37:46Z</time>
      </trkpt>
      <trkpt lat="36.892100991681218" lon="-4.681549994274974">
        <ele>308.72000000000003</ele>
        <time>2025-05-09T12:37:47Z</time>
      </trkpt>
      <trkpt lat="36.891989009454846" lon="-4.681590981781483">
        <ele>307.75999999999999</ele>
        <time>2025-05-09T12:37:48Z</time>
      </trkpt>
      <trkpt lat="36.891721040010452" lon="-4.681688966229558">
        <ele>305.36000000000001</ele>
        <time>2025-05-09T12:37:50Z</time>
      </trkpt>
      <trkpt lat="36.891575027257204" lon="-4.681742023676634">
        <ele>304.38999999999999</ele>
        <time>2025-05-09T12:37:51Z</time>
      </trkpt>
      <trkpt lat="36.891429014503956" lon="-4.681722996756434">
        <ele>302.47000000000003</ele>
        <time>2025-05-09T12:37:52Z</time>
      </trkpt>
      <trkpt lat="36.890125963836908" lon="-4.681517975404859">
        <ele>288.05000000000001</ele>
        <time>2025-05-09T12:38:01Z</time>
      </trkpt>
      <trkpt lat="36.889754980802536" lon="-4.681379003450275">
        <ele>283.73000000000002</ele>
        <time>2025-05-09T12:38:04Z</time>
      </trkpt>
      <trkpt lat="36.889634029939771" lon="-4.681389983743429">
        <ele>282.27999999999997</ele>
        <time>2025-05-09T12:38:05Z</time>
      </trkpt>
      <trkpt lat="36.889522969722748" lon="-4.681417979300022">
        <ele>280.83999999999997</ele>
        <time>2025-05-09T12:38:06Z</time>
      </trkpt>
      <trkpt lat="36.889420039951801" lon="-4.681475982069969">
        <ele>279.39999999999998</ele>
        <time>2025-05-09T12:38:07Z</time>
      </trkpt>
      <trkpt lat="36.889322977513075" lon="-4.681557035073638">
        <ele>278.44</ele>
        <time>2025-05-09T12:38:08Z</time>
      </trkpt>
      <trkpt lat="36.889236979186535" lon="-4.681658037006855">
        <ele>277</ele>
        <time>2025-05-09T12:38:09Z</time>
      </trkpt>
      <trkpt lat="36.889150980859995" lon="-4.681760966777802">
        <ele>276.04000000000002</ele>
        <time>2025-05-09T12:38:10Z</time>
      </trkpt>
      <trkpt lat="36.889059031382203" lon="-4.681870015338063">
        <ele>275.06999999999999</ele>
        <time>2025-05-09T12:38:11Z</time>
      </trkpt>
      <trkpt lat="36.888965992256999" lon="-4.681980991736054">
        <ele>273.63</ele>
        <time>2025-05-09T12:38:12Z</time>
      </trkpt>
      <trkpt lat="36.888857027515769" lon="-4.682069001719356">
        <ele>272.67000000000002</ele>
        <time>2025-05-09T12:38:13Z</time>
      </trkpt>
      <trkpt lat="36.888728030025959" lon="-4.682127004489303">
        <ele>271.70999999999998</ele>
        <time>2025-05-09T12:38:14Z</time>
      </trkpt>
      <trkpt lat="36.888370038941503" lon="-4.682328002527356">
        <ele>268.82999999999998</ele>
        <time>2025-05-09T12:38:17Z</time>
      </trkpt>
      <trkpt lat="36.888265013694763" lon="-4.682419029995799">
        <ele>267.86000000000001</ele>
        <time>2025-05-09T12:38:18Z</time>
      </trkpt>
      <trkpt lat="36.888204999268055" lon="-4.682538975030184">
        <ele>266.89999999999998</ele>
        <time>2025-05-09T12:38:19Z</time>
      </trkpt>
      <trkpt lat="36.888170968741179" lon="-4.6826780308038">
        <ele>265.94</ele>
        <time>2025-05-09T12:38:20Z</time>
      </trkpt>
      <trkpt lat="36.888152025640011" lon="-4.682819014415145">
        <ele>264.98000000000002</ele>
        <time>2025-05-09T12:38:21Z</time>
      </trkpt>
      <trkpt lat="36.888132998719811" lon="-4.68295999802649">
        <ele>264.01999999999998</ele>
        <time>2025-05-09T12:38:22Z</time>
      </trkpt>
      <trkpt lat="36.88810802064836" lon="-4.683076003566384">
        <ele>263.06</ele>
        <time>2025-05-09T12:38:23Z</time>
      </trkpt>
      <trkpt lat="36.888052029535174" lon="-4.683178011327982">
        <ele>262.10000000000002</ele>
        <time>2025-05-09T12:38:24Z</time>
      </trkpt>
      <trkpt lat="36.887969970703125" lon="-4.683329975232482">
        <ele>261.13999999999999</ele>
        <time>2025-05-09T12:38:25Z</time>
      </trkpt>
      <trkpt lat="36.887907022610307" lon="-4.683368029072881">
        <ele>260.17000000000002</ele>
        <time>2025-05-09T12:38:26Z</time>
      </trkpt>
      <trkpt lat="36.887808032333851" lon="-4.683427959680557">
        <ele>259.20999999999998</ele>
        <time>2025-05-09T12:38:27Z</time>
      </trkpt>
      <trkpt lat="36.887708958238363" lon="-4.683422008529306">
        <ele>258.25</ele>
        <time>2025-05-09T12:38:28Z</time>
      </trkpt>
      <trkpt lat="36.887638969346881" lon="-4.683361994102597">
        <ele>257.76999999999998</ele>
        <time>2025-05-09T12:38:29Z</time>
      </trkpt>
      <trkpt lat="36.887563029304147" lon="-4.683273984119296">
        <ele>256.81</ele>
        <time>2025-05-09T12:38:30Z</time>
      </trkpt>
      <trkpt lat="36.887478958815336" lon="-4.683177005499601">
        <ele>255.84999999999999</ele>
        <time>2025-05-09T12:38:31Z</time>
      </trkpt>
      <trkpt lat="36.88671100884676" lon="-4.68242104165256">
        <ele>247.68000000000001</ele>
        <time>2025-05-09T12:38:40Z</time>
      </trkpt>
      <trkpt lat="36.886382019147277" lon="-4.682206967845559">
        <ele>244.31</ele>
        <time>2025-05-09T12:38:43Z</time>
      </trkpt>
      <trkpt lat="36.886252015829086" lon="-4.682162962853909">
        <ele>243.34999999999999</ele>
        <time>2025-05-09T12:38:44Z</time>
      </trkpt>
      <trkpt lat="36.886113965883851" lon="-4.682136978954077">
        <ele>242.87</ele>
        <time>2025-05-09T12:38:45Z</time>
      </trkpt>
      <trkpt lat="36.885848008096218" lon="-4.682086016982794">
        <ele>241.43000000000001</ele>
        <time>2025-05-09T12:38:47Z</time>
      </trkpt>
      <trkpt lat="36.885734014213085" lon="-4.682019967585802">
        <ele>240.47</ele>
        <time>2025-05-09T12:38:48Z</time>
      </trkpt>
      <trkpt lat="36.885589007288218" lon="-4.681934975087643">
        <ele>239.99000000000001</ele>
        <time>2025-05-09T12:38:49Z</time>
      </trkpt>
      <trkpt lat="36.885514995083213" lon="-4.681849982589483">
        <ele>239.50999999999999</ele>
        <time>2025-05-09T12:38:50Z</time>
      </trkpt>
      <trkpt lat="36.885414998978376" lon="-4.68173498287797">
        <ele>239.02000000000001</ele>
        <time>2025-05-09T12:38:51Z</time>
      </trkpt>
      <trkpt lat="36.884910995140672" lon="-4.681204995140433">
        <ele>237.58000000000001</ele>
        <time>2025-05-09T12:38:56Z</time>
      </trkpt>
      <trkpt lat="36.884804964065552" lon="-4.681124025955796">
        <ele>237.09999999999999</ele>
        <time>2025-05-09T12:38:57Z</time>
      </trkpt>
      <trkpt lat="36.884593991562724" lon="-4.68096200376749">
        <ele>235.66</ele>
        <time>2025-05-09T12:38:59Z</time>
      </trkpt>
      <trkpt lat="36.884497012943029" lon="-4.680887991562486">
        <ele>235.18000000000001</ele>
        <time>2025-05-09T12:39:00Z</time>
      </trkpt>
      <trkpt lat="36.884404979646206" lon="-4.680813979357481">
        <ele>234.69999999999999</ele>
        <time>2025-05-09T12:39:01Z</time>
      </trkpt>
      <trkpt lat="36.884341025725007" lon="-4.68070300295949">
        <ele>233.74000000000001</ele>
        <time>2025-05-09T12:39:02Z</time>
      </trkpt>
      <trkpt lat="36.884275982156396" lon="-4.680590014904738">
        <ele>233.25999999999999</ele>
        <time>2025-05-09T12:39:03Z</time>
      </trkpt>
      <trkpt lat="36.884213034063578" lon="-4.680480966344476">
        <ele>232.78</ele>
        <time>2025-05-09T12:39:04Z</time>
      </trkpt>
      <trkpt lat="36.884150002151728" lon="-4.680373007431626">
        <ele>232.30000000000001</ele>
        <time>2025-05-09T12:39:05Z</time>
      </trkpt>
      <trkpt lat="36.883878009393811" lon="-4.679902028292418">
        <ele>228.44999999999999</ele>
        <time>2025-05-09T12:39:10Z</time>
      </trkpt>
      <trkpt lat="36.883820006623864" lon="-4.679846037179232">
        <ele>227.49000000000001</ele>
        <time>2025-05-09T12:39:11Z</time>
      </trkpt>
      <trkpt lat="36.883735014125705" lon="-4.679824998602271">
        <ele>227.00999999999999</ele>
        <time>2025-05-09T12:39:12Z</time>
      </trkpt>
      <trkpt lat="36.88364096917212" lon="-4.679802032187581">
        <ele>226.05000000000001</ele>
        <time>2025-05-09T12:39:13Z</time>
      </trkpt>
      <trkpt lat="36.883542984724045" lon="-4.679792979732156">
        <ele>225.56999999999999</ele>
        <time>2025-05-09T12:39:14Z</time>
      </trkpt>
      <trkpt lat="36.883433014154434" lon="-4.679802032187581">
        <ele>224.61000000000001</ele>
        <time>2025-05-09T12:39:15Z</time>
      </trkpt>
      <trkpt lat="36.883323965594172" lon="-4.679809994995594">
        <ele>223.63999999999999</ele>
        <time>2025-05-09T12:39:16Z</time>
      </trkpt>
      <trkpt lat="36.88323000445962" lon="-4.679883001372218">
        <ele>222.19999999999999</ele>
        <time>2025-05-09T12:39:17Z</time>
      </trkpt>
      <trkpt lat="36.883131014183164" lon="-4.679968999698758">
        <ele>221.24000000000001</ele>
        <time>2025-05-09T12:39:18Z</time>
      </trkpt>
      <trkpt lat="36.883030012249947" lon="-4.680056003853679">
        <ele>220.28</ele>
        <time>2025-05-09T12:39:19Z</time>
      </trkpt>
      <trkpt lat="36.882925992831588" lon="-4.680146025493741">
        <ele>219.31999999999999</ele>
        <time>2025-05-09T12:39:20Z</time>
      </trkpt>
      <trkpt lat="36.882819961756468" lon="-4.680236969143152">
        <ele>218.36000000000001</ele>
        <time>2025-05-09T12:39:21Z</time>
      </trkpt>
      <trkpt lat="36.882716026157141" lon="-4.680326990783215">
        <ele>217.88</ele>
        <time>2025-05-09T12:39:22Z</time>
      </trkpt>
      <trkpt lat="36.882601026445627" lon="-4.680385999381542">
        <ele>216.91</ele>
        <time>2025-05-09T12:39:23Z</time>
      </trkpt>
      <trkpt lat="36.88192100264132" lon="-4.680671989917755">
        <ele>212.59</ele>
        <time>2025-05-09T12:39:29Z</time>
      </trkpt>
      <trkpt lat="36.88181396573782" lon="-4.680685987696052">
        <ele>212.59</ele>
        <time>2025-05-09T12:39:30Z</time>
      </trkpt>
      <trkpt lat="36.881699971854687" lon="-4.680677019059658">
        <ele>212.11000000000001</ele>
        <time>2025-05-09T12:39:31Z</time>
      </trkpt>
      <trkpt lat="36.880688024684787" lon="-4.68055497854948">
        <ele>207.78</ele>
        <time>2025-05-09T12:39:39Z</time>
      </trkpt>
      <trkpt lat="36.879203002899885" lon="-4.680341994389892">
        <ele>206.34</ele>
        <time>2025-05-09T12:39:50Z</time>
      </trkpt>
      <trkpt lat="36.877975976094604" lon="-4.680169997736812">
        <ele>207.78</ele>
        <time>2025-05-09T12:39:57Z</time>
      </trkpt>
      <trkpt lat="36.877841027453542" lon="-4.680169997736812">
        <ele>207.78</ele>
        <time>2025-05-09T12:39:58Z</time>
      </trkpt>
      <trkpt lat="36.877734996378422" lon="-4.680239986628294">
        <ele>208.25999999999999</ele>
        <time>2025-05-09T12:39:59Z</time>
      </trkpt>
      <trkpt lat="36.877646986395121" lon="-4.680332019925118">
        <ele>208.25999999999999</ele>
        <time>2025-05-09T12:40:00Z</time>
      </trkpt>
      <trkpt lat="36.877561993896961" lon="-4.680421035736799">
        <ele>208.74000000000001</ele>
        <time>2025-05-09T12:40:01Z</time>
      </trkpt>
      <trkpt lat="36.877471972256899" lon="-4.680516002699733">
        <ele>208.74000000000001</ele>
        <time>2025-05-09T12:40:02Z</time>
      </trkpt>
      <trkpt lat="36.877377005293965" lon="-4.680614992976189">
        <ele>209.22</ele>
        <time>2025-05-09T12:40:03Z</time>
      </trkpt>
      <trkpt lat="36.877263011410832" lon="-4.680734016001225">
        <ele>209.22</ele>
        <time>2025-05-09T12:40:04Z</time>
      </trkpt>
      <trkpt lat="36.87715002335608" lon="-4.680779026821256">
        <ele>209.22</ele>
        <time>2025-05-09T12:40:05Z</time>
      </trkpt>
      <trkpt lat="36.877006022259593" lon="-4.680837029591203">
        <ele>209.22</ele>
        <time>2025-05-09T12:40:06Z</time>
      </trkpt>
      <trkpt lat="36.87624603509903" lon="-4.68115596100688">
        <ele>208.74000000000001</ele>
        <time>2025-05-09T12:40:11Z</time>
      </trkpt>
      <trkpt lat="36.87611997127533" lon="-4.681245982646942">
        <ele>208.25999999999999</ele>
        <time>2025-05-09T12:40:12Z</time>
      </trkpt>
      <trkpt lat="36.876005977392197" lon="-4.681351007893682">
        <ele>208.25999999999999</ele>
        <time>2025-05-09T12:40:13Z</time>
      </trkpt>
      <trkpt lat="36.875114981085062" lon="-4.682494970038533">
        <ele>204.41999999999999</ele>
        <time>2025-05-09T12:40:21Z</time>
      </trkpt>
      <trkpt lat="36.874997969716787" lon="-4.682611981406808">
        <ele>203.46000000000001</ele>
        <time>2025-05-09T12:40:22Z</time>
      </trkpt>
      <trkpt lat="36.874870983883739" lon="-4.682694962248206">
        <ele>202.49000000000001</ele>
        <time>2025-05-09T12:40:23Z</time>
      </trkpt>
      <trkpt lat="36.874732011929154" lon="-4.682752965018153">
        <ele>201.53</ele>
        <time>2025-05-09T12:40:24Z</time>
      </trkpt>
      <trkpt lat="36.874580970034003" lon="-4.682814991101623">
        <ele>200.56999999999999</ele>
        <time>2025-05-09T12:40:25Z</time>
      </trkpt>
      <trkpt lat="36.874436968937516" lon="-4.682814991101623">
        <ele>199.61000000000001</ele>
        <time>2025-05-09T12:40:26Z</time>
      </trkpt>
      <trkpt lat="36.874274024739861" lon="-4.682814991101623">
        <ele>198.65000000000001</ele>
        <time>2025-05-09T12:40:27Z</time>
      </trkpt>
      <trkpt lat="36.872097998857498" lon="-4.682741984724999">
        <ele>191.91999999999999</ele>
        <time>2025-05-09T12:40:39Z</time>
      </trkpt>
      <trkpt lat="36.871386040002108" lon="-4.682805016636848">
        <ele>191.44</ele>
        <time>2025-05-09T12:40:43Z</time>
      </trkpt>
      <trkpt lat="36.870371997356415" lon="-4.683124031871557">
        <ele>189.52000000000001</ele>
        <time>2025-05-09T12:40:49Z</time>
      </trkpt>
      <trkpt lat="36.870234031230211" lon="-4.683226039633155">
        <ele>189.52000000000001</ele>
        <time>2025-05-09T12:40:50Z</time>
      </trkpt>
      <trkpt lat="36.870097992941737" lon="-4.683349002152681">
        <ele>189.52000000000001</ele>
        <time>2025-05-09T12:40:51Z</time>
      </trkpt>
      <trkpt lat="36.869233986362815" lon="-4.684058027341962">
        <ele>187.11000000000001</ele>
        <time>2025-05-09T12:40:57Z</time>
      </trkpt>
      <trkpt lat="36.869091996923089" lon="-4.684114018455148">
        <ele>186.63</ele>
        <time>2025-05-09T12:40:58Z</time>
      </trkpt>
      <trkpt lat="36.868939027190208" lon="-4.684136984869838">
        <ele>186.63</ele>
        <time>2025-05-09T12:40:59Z</time>
      </trkpt>
      <trkpt lat="36.868778010830283" lon="-4.68416003510356">
        <ele>186.63</ele>
        <time>2025-05-09T12:41:00Z</time>
      </trkpt>
      <trkpt lat="36.868608025833964" lon="-4.684185013175011">
        <ele>186.63</ele>
        <time>2025-05-09T12:41:01Z</time>
      </trkpt>
      <trkpt lat="36.867732033133507" lon="-4.684348041191697">
        <ele>186.15000000000001</ele>
        <time>2025-05-09T12:41:06Z</time>
      </trkpt>
      <trkpt lat="36.86756900511682" lon="-4.684422975406051">
        <ele>185.66999999999999</ele>
        <time>2025-05-09T12:41:07Z</time>
      </trkpt>
      <trkpt lat="36.866959976032376" lon="-4.684706032276154">
        <ele>185.19</ele>
        <time>2025-05-09T12:41:11Z</time>
      </trkpt>
      <trkpt lat="36.86681798659265" lon="-4.684712989255786">
        <ele>185.19</ele>
        <time>2025-05-09T12:41:12Z</time>
      </trkpt>
      <trkpt lat="36.866670968011022" lon="-4.684695973992348">
        <ele>185.19</ele>
        <time>2025-05-09T12:41:13Z</time>
      </trkpt>
      <trkpt lat="36.866522021591663" lon="-4.684669990092516">
        <ele>185.19</ele>
        <time>2025-05-09T12:41:14Z</time>
      </trkpt>
      <trkpt lat="36.86636796221137" lon="-4.68461299315095">
        <ele>185.19</ele>
        <time>2025-05-09T12:41:15Z</time>
      </trkpt>
      <trkpt lat="36.865596994757652" lon="-4.684330020099878">
        <ele>185.19</ele>
        <time>2025-05-09T12:41:20Z</time>
      </trkpt>
      <trkpt lat="36.865474032238126" lon="-4.684303030371666">
        <ele>185.19</ele>
        <time>2025-05-09T12:41:21Z</time>
      </trkpt>
      <trkpt lat="36.865352997556329" lon="-4.68433303758502">
        <ele>185.19</ele>
        <time>2025-05-09T12:41:22Z</time>
      </trkpt>
      <trkpt lat="36.865235986188054" lon="-4.684372013434768">
        <ele>185.66999999999999</ele>
        <time>2025-05-09T12:41:23Z</time>
      </trkpt>
      <trkpt lat="36.865133978426456" lon="-4.684478966519237">
        <ele>185.66999999999999</ele>
        <time>2025-05-09T12:41:24Z</time>
      </trkpt>
      <trkpt lat="36.865027025341988" lon="-4.68459296040237">
        <ele>186.15000000000001</ele>
        <time>2025-05-09T12:41:25Z</time>
      </trkpt>
      <trkpt lat="36.864924011752009" lon="-4.684702008962631">
        <ele>186.15000000000001</ele>
        <time>2025-05-09T12:41:26Z</time>
      </trkpt>
      <trkpt lat="36.864816974848509" lon="-4.684787001460791">
        <ele>186.63</ele>
        <time>2025-05-09T12:41:27Z</time>
      </trkpt>
      <trkpt lat="36.86471002176404" lon="-4.684853972867131">
        <ele>187.11000000000001</ele>
        <time>2025-05-09T12:41:28Z</time>
      </trkpt>
      <trkpt lat="36.864563003182411" lon="-4.684860007837415">
        <ele>187.59</ele>
        <time>2025-05-09T12:41:29Z</time>
      </trkpt>
      <trkpt lat="36.863186024129391" lon="-4.684921028092504">
        <ele>188.08000000000001</ele>
        <time>2025-05-09T12:41:37Z</time>
      </trkpt>
      <trkpt lat="36.862535001710057" lon="-4.684847015887499">
        <ele>187.11000000000001</ele>
        <time>2025-05-09T12:41:41Z</time>
      </trkpt>
      <trkpt lat="36.861132038757205" lon="-4.684426998719573">
        <ele>181.34999999999999</ele>
        <time>2025-05-09T12:41:50Z</time>
      </trkpt>
      <trkpt lat="36.86099499464035" lon="-4.684466980397701">
        <ele>180.87</ele>
        <time>2025-05-09T12:41:51Z</time>
      </trkpt>
      <trkpt lat="36.860847976058722" lon="-4.684509979560971">
        <ele>179.90000000000001</ele>
        <time>2025-05-09T12:41:52Z</time>
      </trkpt>
      <trkpt lat="36.86073699966073" lon="-4.684597989544272">
        <ele>179.41999999999999</ele>
        <time>2025-05-09T12:41:53Z</time>
      </trkpt>
      <trkpt lat="36.860609007999301" lon="-4.68469899147749">
        <ele>179.41999999999999</ele>
        <time>2025-05-09T12:41:54Z</time>
      </trkpt>
      <trkpt lat="36.86047900468111" lon="-4.684800999239087">
        <ele>178.94</ele>
        <time>2025-05-09T12:41:55Z</time>
      </trkpt>
      <trkpt lat="36.859766039997339" lon="-4.685264015570283">
        <ele>177.97999999999999</ele>
        <time>2025-05-09T12:42:00Z</time>
      </trkpt>
      <trkpt lat="36.859605023637414" lon="-4.685310032218695">
        <ele>177.02000000000001</ele>
        <time>2025-05-09T12:42:01Z</time>
      </trkpt>
      <trkpt lat="36.858181022107601" lon="-4.685669029131532">
        <ele>173.66</ele>
        <time>2025-05-09T12:42:10Z</time>
      </trkpt>
      <trkpt lat="36.858071973547339" lon="-4.68564597889781">
        <ele>173.16999999999999</ele>
        <time>2025-05-09T12:42:11Z</time>
      </trkpt>
      <trkpt lat="36.857957979664207" lon="-4.685593005269766">
        <ele>173.16999999999999</ele>
        <time>2025-05-09T12:42:12Z</time>
      </trkpt>
      <trkpt lat="36.857699984684587" lon="-4.685472976416349">
        <ele>171.72999999999999</ele>
        <time>2025-05-09T12:42:14Z</time>
      </trkpt>
      <trkpt lat="36.857561012730002" lon="-4.68540801666677">
        <ele>171.25</ele>
        <time>2025-05-09T12:42:15Z</time>
      </trkpt>
      <trkpt lat="36.857398990541697" lon="-4.685389995574951">
        <ele>170.77000000000001</ele>
        <time>2025-05-09T12:42:16Z</time>
      </trkpt>
      <trkpt lat="36.855649016797543" lon="-4.685389995574951">
        <ele>162.59999999999999</ele>
        <time>2025-05-09T12:42:26Z</time>
      </trkpt>
      <trkpt lat="36.855010986328125" lon="-4.685340039432049">
        <ele>159.72</ele>
        <time>2025-05-09T12:42:30Z</time>
      </trkpt>
      <trkpt lat="36.85487000271678" lon="-4.685278013348579">
        <ele>159.24000000000001</ele>
        <time>2025-05-09T12:42:31Z</time>
      </trkpt>
      <trkpt lat="36.854734970256686" lon="-4.685171982273459">
        <ele>158.75</ele>
        <time>2025-05-09T12:42:32Z</time>
      </trkpt>
      <trkpt lat="36.853439966216683" lon="-4.684179984033108">
        <ele>155.38999999999999</ele>
        <time>2025-05-09T12:42:41Z</time>
      </trkpt>
      <trkpt lat="36.853312980383635" lon="-4.684116030111909">
        <ele>155.38999999999999</ele>
        <time>2025-05-09T12:42:42Z</time>
      </trkpt>
      <trkpt lat="36.853170990943909" lon="-4.684089962393045">
        <ele>155.87</ele>
        <time>2025-05-09T12:42:43Z</time>
      </trkpt>
      <trkpt lat="36.853029001504183" lon="-4.684103038161993">
        <ele>155.87</ele>
        <time>2025-05-09T12:42:44Z</time>
      </trkpt>
      <trkpt lat="36.852878965437412" lon="-4.684137990698218">
        <ele>155.87</ele>
        <time>2025-05-09T12:42:45Z</time>
      </trkpt>
      <trkpt lat="36.852721972391009" lon="-4.684174032881856">
        <ele>155.87</ele>
        <time>2025-05-09T12:42:46Z</time>
      </trkpt>
      <trkpt lat="36.852286029607058" lon="-4.684274028986692">
        <ele>155.38999999999999</ele>
        <time>2025-05-09T12:42:49Z</time>
      </trkpt>
      <trkpt lat="36.852139011025429" lon="-4.684258019551635">
        <ele>155.38999999999999</ele>
        <time>2025-05-09T12:42:50Z</time>
      </trkpt>
      <trkpt lat="36.852028034627438" lon="-4.684202028438449">
        <ele>154.91</ele>
        <time>2025-05-09T12:42:51Z</time>
      </trkpt>
      <trkpt lat="36.851899959146976" lon="-4.684103038161993">
        <ele>154.91</ele>
        <time>2025-05-09T12:42:52Z</time>
      </trkpt>
      <trkpt lat="36.851811027154326" lon="-4.684003964066505">
        <ele>153.94999999999999</ele>
        <time>2025-05-09T12:42:53Z</time>
      </trkpt>
      <trkpt lat="36.851189006119967" lon="-4.683252023532987">
        <ele>151.53999999999999</ele>
        <time>2025-05-09T12:42:59Z</time>
      </trkpt>
      <trkpt lat="36.851178025826812" lon="-4.683138029649854">
        <ele>151.53999999999999</ele>
        <time>2025-05-09T12:43:00Z</time>
      </trkpt>
      <trkpt lat="36.851189006119967" lon="-4.683015989139676">
        <ele>151.53999999999999</ele>
        <time>2025-05-09T12:43:01Z</time>
      </trkpt>
      <trkpt lat="36.851223036646843" lon="-4.68289302662015">
        <ele>151.53999999999999</ele>
        <time>2025-05-09T12:43:02Z</time>
      </trkpt>
      <trkpt lat="36.851278021931648" lon="-4.682755982503295">
        <ele>151.53999999999999</ele>
        <time>2025-05-09T12:43:03Z</time>
      </trkpt>
      <trkpt lat="36.851358991116285" lon="-4.682613993063569">
        <ele>152.03</ele>
        <time>2025-05-09T12:43:04Z</time>
      </trkpt>
      <trkpt lat="36.851442977786064" lon="-4.682467980310321">
        <ele>152.03</ele>
        <time>2025-05-09T12:43:05Z</time>
      </trkpt>
      <trkpt lat="36.851520007476211" lon="-4.682332025840879">
        <ele>152.03</ele>
        <time>2025-05-09T12:43:06Z</time>
      </trkpt>
      <trkpt lat="36.851588990539312" lon="-4.682211996987462">
        <ele>152.50999999999999</ele>
        <time>2025-05-09T12:43:07Z</time>
      </trkpt>
      <trkpt lat="36.851621009409428" lon="-4.682106971740723">
        <ele>152.50999999999999</ele>
        <time>2025-05-09T12:43:08Z</time>
      </trkpt>
      <trkpt lat="36.85158203355968" lon="-4.681975962594152">
        <ele>152.99000000000001</ele>
        <time>2025-05-09T12:43:09Z</time>
      </trkpt>
      <trkpt lat="36.85153903439641" lon="-4.681872026994824">
        <ele>153.47</ele>
        <time>2025-05-09T12:43:10Z</time>
      </trkpt>
      <trkpt lat="36.851459993049502" lon="-4.681782005354762">
        <ele>153.94999999999999</ele>
        <time>2025-05-09T12:43:11Z</time>
      </trkpt>
      <trkpt lat="36.851361002773046" lon="-4.681698018684983">
        <ele>154.43000000000001</ele>
        <time>2025-05-09T12:43:12Z</time>
      </trkpt>
      <trkpt lat="36.85124097391963" lon="-4.681638004258275">
        <ele>154.91</ele>
        <time>2025-05-09T12:43:13Z</time>
      </trkpt>
      <trkpt lat="36.851104013621807" lon="-4.681615037843585">
        <ele>155.38999999999999</ele>
        <time>2025-05-09T12:43:14Z</time>
      </trkpt>
      <trkpt lat="36.850953977555037" lon="-4.681591987609863">
        <ele>155.87</ele>
        <time>2025-05-09T12:43:15Z</time>
      </trkpt>
      <trkpt lat="36.849427968263626" lon="-4.681427031755447">
        <ele>164.03999999999999</ele>
        <time>2025-05-09T12:43:25Z</time>
      </trkpt>
      <trkpt lat="36.848822040483356" lon="-4.681496014818549">
        <ele>163.56</ele>
        <time>2025-05-09T12:43:29Z</time>
      </trkpt>
      <trkpt lat="36.848686002194881" lon="-4.681451003998518">
        <ele>163.08000000000001</ele>
        <time>2025-05-09T12:43:30Z</time>
      </trkpt>
      <trkpt lat="36.84829699806869" lon="-4.681321000680327">
        <ele>161.16</ele>
        <time>2025-05-09T12:43:33Z</time>
      </trkpt>
      <trkpt lat="36.848185015842319" lon="-4.68134899623692">
        <ele>160.68000000000001</ele>
        <time>2025-05-09T12:43:34Z</time>
      </trkpt>
      <trkpt lat="36.848069010302424" lon="-4.681395012885332">
        <ele>160.68000000000001</ele>
        <time>2025-05-09T12:43:35Z</time>
      </trkpt>
      <trkpt lat="36.847677994519472" lon="-4.681551000103355">
        <ele>159.72</ele>
        <time>2025-05-09T12:43:38Z</time>
      </trkpt>
      <trkpt lat="36.847547991201282" lon="-4.681557035073638">
        <ele>159.24000000000001</ele>
        <time>2025-05-09T12:43:39Z</time>
      </trkpt>
      <trkpt lat="36.84741597622633" lon="-4.681534990668297">
        <ele>158.75</ele>
        <time>2025-05-09T12:43:40Z</time>
      </trkpt>
      <trkpt lat="36.847291002050042" lon="-4.681471958756447">
        <ele>158.27000000000001</ele>
        <time>2025-05-09T12:43:41Z</time>
      </trkpt>
      <trkpt lat="36.847162004560232" lon="-4.681384032592177">
        <ele>157.78999999999999</ele>
        <time>2025-05-09T12:43:42Z</time>
      </trkpt>
      <trkpt lat="36.8470289837569" lon="-4.681294010952115">
        <ele>156.83000000000001</ele>
        <time>2025-05-09T12:43:43Z</time>
      </trkpt>
      <trkpt lat="36.845851996913552" lon="-4.680500999093056">
        <ele>152.50999999999999</ele>
        <time>2025-05-09T12:43:52Z</time>
      </trkpt>
      <trkpt lat="36.845742026343942" lon="-4.680452970787883">
        <ele>152.03</ele>
        <time>2025-05-09T12:43:53Z</time>
      </trkpt>
      <trkpt lat="36.845623003318906" lon="-4.680462023243308">
        <ele>151.53999999999999</ele>
        <time>2025-05-09T12:43:54Z</time>
      </trkpt>
      <trkpt lat="36.845498029142618" lon="-4.680509967729449">
        <ele>151.06</ele>
        <time>2025-05-09T12:43:55Z</time>
      </trkpt>
      <trkpt lat="36.845368025824428" lon="-4.680560007691383">
        <ele>150.58000000000001</ele>
        <time>2025-05-09T12:43:56Z</time>
      </trkpt>
      <trkpt lat="36.843908987939358" lon="-4.681170964613557">
        <ele>145.78</ele>
        <time>2025-05-09T12:44:06Z</time>
      </trkpt>
      <trkpt lat="36.843764986842871" lon="-4.681249000132084">
        <ele>145.30000000000001</ele>
        <time>2025-05-09T12:44:07Z</time>
      </trkpt>
      <trkpt lat="36.843476984649897" lon="-4.681402975693345">
        <ele>144.34</ele>
        <time>2025-05-09T12:44:09Z</time>
      </trkpt>
      <trkpt lat="36.843326026573777" lon="-4.68145502731204">
        <ele>143.37</ele>
        <time>2025-05-09T12:44:10Z</time>
      </trkpt>
      <trkpt lat="36.84275396168232" lon="-4.681677985936403">
        <ele>139.05000000000001</ele>
        <time>2025-05-09T12:44:14Z</time>
      </trkpt>
      <trkpt lat="36.84262496419251" lon="-4.681750992313027">
        <ele>138.09</ele>
        <time>2025-05-09T12:44:15Z</time>
      </trkpt>
      <trkpt lat="36.842508036643267" lon="-4.681862974539399">
        <ele>137.13</ele>
        <time>2025-05-09T12:44:16Z</time>
      </trkpt>
      <trkpt lat="36.842437963932753" lon="-4.68201301060617">
        <ele>135.68000000000001</ele>
        <time>2025-05-09T12:44:17Z</time>
      </trkpt>
      <trkpt lat="36.842375015839934" lon="-4.682157011702657">
        <ele>134.72</ele>
        <time>2025-05-09T12:44:18Z</time>
      </trkpt>
      <trkpt lat="36.842309972271323" lon="-4.682302018627524">
        <ele>133.75999999999999</ele>
        <time>2025-05-09T12:44:19Z</time>
      </trkpt>
      <trkpt lat="36.842246018350124" lon="-4.682446019724011">
        <ele>133.28</ele>
        <time>2025-05-09T12:44:20Z</time>
      </trkpt>
      <trkpt lat="36.842179968953133" lon="-4.682579040527344">
        <ele>132.31999999999999</ele>
        <time>2025-05-09T12:44:21Z</time>
      </trkpt>
      <trkpt lat="36.842114003375173" lon="-4.682709965854883">
        <ele>131.84</ele>
        <time>2025-05-09T12:44:22Z</time>
      </trkpt>
      <trkpt lat="36.84204300865531" lon="-4.682817002758384">
        <ele>131.36000000000001</ele>
        <time>2025-05-09T12:44:23Z</time>
      </trkpt>
      <trkpt lat="36.841933038085699" lon="-4.682903001084924">
        <ele>130.40000000000001</ele>
        <time>2025-05-09T12:44:24Z</time>
      </trkpt>
      <trkpt lat="36.841818960383534" lon="-4.682992016896606">
        <ele>129.91999999999999</ele>
        <time>2025-05-09T12:44:25Z</time>
      </trkpt>
      <trkpt lat="36.841456023976207" lon="-4.683250011876226">
        <ele>127.98999999999999</ele>
        <time>2025-05-09T12:44:28Z</time>
      </trkpt>
      <trkpt lat="36.84135502204299" lon="-4.683352019637823">
        <ele>127.98999999999999</ele>
        <time>2025-05-09T12:44:29Z</time>
      </trkpt>
      <trkpt lat="36.841282015666366" lon="-4.683470958843827">
        <ele>127.51000000000001</ele>
        <time>2025-05-09T12:44:30Z</time>
      </trkpt>
      <trkpt lat="36.841235999017954" lon="-4.683609008789063">
        <ele>127.51000000000001</ele>
        <time>2025-05-09T12:44:31Z</time>
      </trkpt>
      <trkpt lat="36.841215966269374" lon="-4.683744041249156">
        <ele>127.03</ele>
        <time>2025-05-09T12:44:32Z</time>
      </trkpt>
      <trkpt lat="36.841197023168206" lon="-4.68388200737536">
        <ele>127.03</ele>
        <time>2025-05-09T12:44:33Z</time>
      </trkpt>
      <trkpt lat="36.8411869648844" lon="-4.684021985158324">
        <ele>127.03</ele>
        <time>2025-05-09T12:44:34Z</time>
      </trkpt>
      <trkpt lat="36.841158969327807" lon="-4.684410989284515">
        <ele>127.03</ele>
        <time>2025-05-09T12:44:37Z</time>
      </trkpt>
      <trkpt lat="36.841128040105104" lon="-4.684532023966312">
        <ele>127.03</ele>
        <time>2025-05-09T12:44:38Z</time>
      </trkpt>
      <trkpt lat="36.841070037335157" lon="-4.684609975665808">
        <ele>127.03</ele>
        <time>2025-05-09T12:44:39Z</time>
      </trkpt>
      <trkpt lat="36.840999964624643" lon="-4.684703014791012">
        <ele>127.03</ele>
        <time>2025-05-09T12:44:40Z</time>
      </trkpt>
      <trkpt lat="36.840915977954865" lon="-4.684776021167636">
        <ele>127.03</ele>
        <time>2025-05-09T12:44:41Z</time>
      </trkpt>
      <trkpt lat="36.839965973049402" lon="-4.685582024976611">
        <ele>128.94999999999999</ele>
        <time>2025-05-09T12:44:50Z</time>
      </trkpt>
      <trkpt lat="36.839749971404672" lon="-4.685747986659408">
        <ele>128.94999999999999</ele>
        <time>2025-05-09T12:44:52Z</time>
      </trkpt>
      <trkpt lat="36.839630026370287" lon="-4.685821998864412">
        <ele>128.94999999999999</ele>
        <time>2025-05-09T12:44:53Z</time>
      </trkpt>
      <trkpt lat="36.839495999738574" lon="-4.685846976935864">
        <ele>129.43000000000001</ele>
        <time>2025-05-09T12:44:54Z</time>
      </trkpt>
      <trkpt lat="36.838178029283881" lon="-4.686088040471077">
        <ele>127.51000000000001</ele>
        <time>2025-05-09T12:45:03Z</time>
      </trkpt>
      <trkpt lat="36.837028032168746" lon="-4.68669799156487">
        <ele>126.55</ele>
        <time>2025-05-09T12:45:11Z</time>
      </trkpt>
      <trkpt lat="36.835665972903371" lon="-4.687459990382195">
        <ele>124.15000000000001</ele>
        <time>2025-05-09T12:45:21Z</time>
      </trkpt>
      <trkpt lat="36.834484962746501" lon="-4.688110006973147">
        <ele>119.81999999999999</ele>
        <time>2025-05-09T12:45:30Z</time>
      </trkpt>
      <trkpt lat="36.834343979135156" lon="-4.688171027228236">
        <ele>119.34</ele>
        <time>2025-05-09T12:45:31Z</time>
      </trkpt>
      <trkpt lat="36.832824004814029" lon="-4.688694979995489">
        <ele>116.94</ele>
        <time>2025-05-09T12:45:41Z</time>
      </trkpt>
      <trkpt lat="36.831499999389052" lon="-4.689342984929681">
        <ele>118.38</ele>
        <time>2025-05-09T12:45:50Z</time>
      </trkpt>
      <trkpt lat="36.830560974776745" lon="-4.690022002905607">
        <ele>124.63</ele>
        <time>2025-05-09T12:45:57Z</time>
      </trkpt>
      <trkpt lat="36.830422002822161" lon="-4.690096015110612">
        <ele>125.11</ele>
        <time>2025-05-09T12:45:58Z</time>
      </trkpt>
      <trkpt lat="36.830276995897293" lon="-4.690162986516953">
        <ele>125.59</ele>
        <time>2025-05-09T12:45:59Z</time>
      </trkpt>
      <trkpt lat="36.829077964648604" lon="-4.690546961501241">
        <ele>128.47</ele>
        <time>2025-05-09T12:46:08Z</time>
      </trkpt>
      <trkpt lat="36.828945027664304" lon="-4.690558025613427">
        <ele>128.94999999999999</ele>
        <time>2025-05-09T12:46:09Z</time>
      </trkpt>
      <trkpt lat="36.828812006860971" lon="-4.690551990643144">
        <ele>129.43000000000001</ele>
        <time>2025-05-09T12:46:10Z</time>
      </trkpt>
      <trkpt lat="36.828672029078007" lon="-4.690532963722944">
        <ele>129.43000000000001</ele>
        <time>2025-05-09T12:46:11Z</time>
      </trkpt>
      <trkpt lat="36.82853196747601" lon="-4.690502034500241">
        <ele>129.91999999999999</ele>
        <time>2025-05-09T12:46:12Z</time>
      </trkpt>
      <trkpt lat="36.827215002849698" lon="-4.690065002068877">
        <ele>131.36000000000001</ele>
        <time>2025-05-09T12:46:22Z</time>
      </trkpt>
      <trkpt lat="36.825785972177982" lon="-4.6896390337497">
        <ele>130.40000000000001</ele>
        <time>2025-05-09T12:46:33Z</time>
      </trkpt>
      <trkpt lat="36.825399985536933" lon="-4.68959603458643">
        <ele>130.40000000000001</ele>
        <time>2025-05-09T12:46:38Z</time>
      </trkpt>
      <trkpt lat="36.825312981382012" lon="-4.689644984900951">
        <ele>129.91999999999999</ele>
        <time>2025-05-09T12:46:39Z</time>
      </trkpt>
      <trkpt lat="36.825222037732601" lon="-4.689701981842518">
        <ele>129.43000000000001</ele>
        <time>2025-05-09T12:46:40Z</time>
      </trkpt>
      <trkpt lat="36.824456015601754" lon="-4.690206991508603">
        <ele>125.59</ele>
        <time>2025-05-09T12:46:49Z</time>
      </trkpt>
      <trkpt lat="36.824369011446834" lon="-4.69024102203548">
        <ele>125.59</ele>
        <time>2025-05-09T12:46:50Z</time>
      </trkpt>
      <trkpt lat="36.824262980371714" lon="-4.690282009541988">
        <ele>125.11</ele>
        <time>2025-05-09T12:46:51Z</time>
      </trkpt>
      <trkpt lat="36.824183017015457" lon="-4.690282009541988">
        <ele>124.63</ele>
        <time>2025-05-09T12:46:52Z</time>
      </trkpt>
      <trkpt lat="36.824083020910621" lon="-4.690282009541988">
        <ele>124.15000000000001</ele>
        <time>2025-05-09T12:46:53Z</time>
      </trkpt>
      <trkpt lat="36.823983024805784" lon="-4.690277986228466">
        <ele>123.67</ele>
        <time>2025-05-09T12:46:54Z</time>
      </trkpt>
      <trkpt lat="36.82352302595973" lon="-4.690318973734975">
        <ele>120.78</ele>
        <time>2025-05-09T12:46:59Z</time>
      </trkpt>
      <trkpt lat="36.823210967704654" lon="-4.690432967618108">
        <ele>118.38</ele>
        <time>2025-05-09T12:47:02Z</time>
      </trkpt>
      <trkpt lat="36.822288958355784" lon="-4.691032022237778">
        <ele>107.81</ele>
        <time>2025-05-09T12:47:10Z</time>
      </trkpt>
      <trkpt lat="36.822156021371484" lon="-4.691115003079176">
        <ele>107.31999999999999</ele>
        <time>2025-05-09T12:47:11Z</time>
      </trkpt>
      <trkpt lat="36.820741994306445" lon="-4.691570978611708">
        <ele>103.48</ele>
        <time>2025-05-09T12:47:20Z</time>
      </trkpt>
      <trkpt lat="36.820221981033683" lon="-4.691653037443757">
        <ele>102.04000000000001</ele>
        <time>2025-05-09T12:47:23Z</time>
      </trkpt>
      <trkpt lat="36.820049984380603" lon="-4.691705005243421">
        <ele>101.56</ele>
        <time>2025-05-09T12:47:24Z</time>
      </trkpt>
      <trkpt lat="36.819874970242381" lon="-4.691756973043084">
        <ele>101.08</ele>
        <time>2025-05-09T12:47:25Z</time>
      </trkpt>
      <trkpt lat="36.81970096193254" lon="-4.691813969984651">
        <ele>101.08</ele>
        <time>2025-05-09T12:47:26Z</time>
      </trkpt>
      <trkpt lat="36.819538017734885" lon="-4.691916983574629">
        <ele>100.59999999999999</ele>
        <time>2025-05-09T12:47:27Z</time>
      </trkpt>
      <trkpt lat="36.819375995546579" lon="-4.692021002992988">
        <ele>100.59999999999999</ele>
        <time>2025-05-09T12:47:28Z</time>
      </trkpt>
      <trkpt lat="36.818048972636461" lon="-4.692982994019985">
        <ele>98.670000000000002</ele>
        <time>2025-05-09T12:47:37Z</time>
      </trkpt>
      <trkpt lat="36.817945959046483" lon="-4.693136969581246">
        <ele>98.670000000000002</ele>
        <time>2025-05-09T12:47:38Z</time>
      </trkpt>
      <trkpt lat="36.817844035103917" lon="-4.693291028961539">
        <ele>98.189999999999998</ele>
        <time>2025-05-09T12:47:39Z</time>
      </trkpt>
      <trkpt lat="36.8177430331707" lon="-4.693453973159194">
        <ele>97.709999999999994</ele>
        <time>2025-05-09T12:47:40Z</time>
      </trkpt>
      <trkpt lat="36.817662985995412" lon="-4.693629993125796">
        <ele>97.709999999999994</ele>
        <time>2025-05-09T12:47:41Z</time>
      </trkpt>
      <trkpt lat="36.817615041509271" lon="-4.693826967850328">
        <ele>97.709999999999994</ele>
        <time>2025-05-09T12:47:42Z</time>
      </trkpt>
      <trkpt lat="36.81757397018373" lon="-4.694020003080368">
        <ele>97.709999999999994</ele>
        <time>2025-05-09T12:47:43Z</time>
      </trkpt>
      <trkpt lat="36.817538011819124" lon="-4.694213038310409">
        <ele>97.709999999999994</ele>
        <time>2025-05-09T12:47:44Z</time>
      </trkpt>
      <trkpt lat="36.817513033747673" lon="-4.694406995549798">
        <ele>97.709999999999994</ele>
        <time>2025-05-09T12:47:45Z</time>
      </trkpt>
      <trkpt lat="36.817370960488915" lon="-4.695319030433893">
        <ele>98.189999999999998</ele>
        <time>2025-05-09T12:47:50Z</time>
      </trkpt>
      <trkpt lat="36.817177003249526" lon="-4.695983966812491">
        <ele>103</ele>
        <time>2025-05-09T12:47:56Z</time>
      </trkpt>
      <trkpt lat="36.817152025178075" lon="-4.696070970967412">
        <ele>103.48</ele>
        <time>2025-05-09T12:47:57Z</time>
      </trkpt>
      <trkpt lat="36.817102991044521" lon="-4.696255037561059">
        <ele>105.40000000000001</ele>
        <time>2025-05-09T12:47:59Z</time>
      </trkpt>
      <trkpt lat="36.817072983831167" lon="-4.696352016180754">
        <ele>106.36</ele>
        <time>2025-05-09T12:48:00Z</time>
      </trkpt>
      <trkpt lat="36.817048005759716" lon="-4.696469027549028">
        <ele>106.84</ele>
        <time>2025-05-09T12:48:01Z</time>
      </trkpt>
      <trkpt lat="36.816854970529675" lon="-4.697987996041775">
        <ele>109.25</ele>
        <time>2025-05-09T12:48:15Z</time>
      </trkpt>
      <trkpt lat="36.816835021600127" lon="-4.698078017681837">
        <ele>108.77</ele>
        <time>2025-05-09T12:48:16Z</time>
      </trkpt>
      <trkpt lat="36.816720021888614" lon="-4.698254037648439">
        <ele>107.31999999999999</ele>
        <time>2025-05-09T12:48:19Z</time>
      </trkpt>
      <trkpt lat="36.81667098775506" lon="-4.698302987962961">
        <ele>106.36</ele>
        <time>2025-05-09T12:48:20Z</time>
      </trkpt>
      <trkpt lat="36.816620025783777" lon="-4.698354033753276">
        <ele>105.88</ele>
        <time>2025-05-09T12:48:21Z</time>
      </trkpt>
      <trkpt lat="36.816578032448888" lon="-4.698394015431404">
        <ele>105.40000000000001</ele>
        <time>2025-05-09T12:48:22Z</time>
      </trkpt>
      <trkpt lat="36.816511983051896" lon="-4.698401978239417">
        <ele>104.92</ele>
        <time>2025-05-09T12:48:23Z</time>
      </trkpt>
      <trkpt lat="36.816441994160414" lon="-4.698411030694842">
        <ele>104.44</ele>
        <time>2025-05-09T12:48:24Z</time>
      </trkpt>
      <trkpt lat="36.816372005268931" lon="-4.698418993502855">
        <ele>103.95999999999999</ele>
        <time>2025-05-09T12:48:25Z</time>
      </trkpt>
      <trkpt lat="36.81609196588397" lon="-4.69845000654459">
        <ele>103</ele>
        <time>2025-05-09T12:48:29Z</time>
      </trkpt>
      <trkpt lat="36.816028011962771" lon="-4.698456963524222">
        <ele>102.52</ele>
        <time>2025-05-09T12:48:30Z</time>
      </trkpt>
      <trkpt lat="36.815969003364444" lon="-4.698464004322887">
        <ele>102.04000000000001</ele>
        <time>2025-05-09T12:48:31Z</time>
      </trkpt>
      <trkpt lat="36.815912006422877" lon="-4.698470961302519">
        <ele>102.04000000000001</ele>
        <time>2025-05-09T12:48:32Z</time>
      </trkpt>
      <trkpt lat="36.815848974511027" lon="-4.698480013757944">
        <ele>102.04000000000001</ele>
        <time>2025-05-09T12:48:33Z</time>
      </trkpt>
      <trkpt lat="36.815786026418209" lon="-4.698512032628059">
        <ele>101.56</ele>
        <time>2025-05-09T12:48:34Z</time>
      </trkpt>
      <trkpt lat="36.81565803475678" lon="-4.698436008766294">
        <ele>101.56</ele>
        <time>2025-05-09T12:48:35Z</time>
      </trkpt>
      <trkpt lat="36.815647976472974" lon="-4.69842997379601">
        <ele>101.56</ele>
        <time>2025-05-09T12:48:36Z</time>
      </trkpt>
      <trkpt lat="36.815483020618558" lon="-4.698345987126231">
        <ele>100.59999999999999</ele>
        <time>2025-05-09T12:48:38Z</time>
      </trkpt>
      <trkpt lat="36.815391993150115" lon="-4.698310028761625">
        <ele>100.59999999999999</ele>
        <time>2025-05-09T12:48:39Z</time>
      </trkpt>
      <trkpt lat="36.815303983166814" lon="-4.698277004063129">
        <ele>100.11</ele>
        <time>2025-05-09T12:48:40Z</time>
      </trkpt>
      <trkpt lat="36.815213039517403" lon="-4.698249008506537">
        <ele>99.629999999999995</ele>
        <time>2025-05-09T12:48:41Z</time>
      </trkpt>
      <trkpt lat="36.815112959593534" lon="-4.698222018778324">
        <ele>99.150000000000006</ele>
        <time>2025-05-09T12:48:42Z</time>
      </trkpt>
      <trkpt lat="36.815008018165827" lon="-4.698195029050112">
        <ele>99.150000000000006</ele>
        <time>2025-05-09T12:48:43Z</time>
      </trkpt>
      <trkpt lat="36.81428600102663" lon="-4.698140965774655">
        <ele>95.310000000000002</ele>
        <time>2025-05-09T12:48:51Z</time>
      </trkpt>
      <trkpt lat="36.813286961987615" lon="-4.69795698300004">
        <ele>93.870000000000005</ele>
        <time>2025-05-09T12:48:59Z</time>
      </trkpt>
      <trkpt lat="36.812022970989347" lon="-4.697452979162335">
        <ele>92.420000000000002</ele>
        <time>2025-05-09T12:49:08Z</time>
      </trkpt>
      <trkpt lat="36.810858976095915" lon="-4.697080990299583">
        <ele>91.459999999999994</ele>
        <time>2025-05-09T12:49:16Z</time>
      </trkpt>
      <trkpt lat="36.809711996465921" lon="-4.696657033637166">
        <ele>92.420000000000002</ele>
        <time>2025-05-09T12:49:24Z</time>
      </trkpt>
      <trkpt lat="36.809003977105021" lon="-4.696499034762383">
        <ele>93.390000000000001</ele>
        <time>2025-05-09T12:49:29Z</time>
      </trkpt>
      <trkpt lat="36.808897024020553" lon="-4.69643197953701">
        <ele>93.390000000000001</ele>
        <time>2025-05-09T12:49:30Z</time>
      </trkpt>
      <trkpt lat="36.808822005987167" lon="-4.696336006745696">
        <ele>94.349999999999994</ele>
        <time>2025-05-09T12:49:31Z</time>
      </trkpt>
      <trkpt lat="36.808756962418556" lon="-4.696239028126001">
        <ele>94.829999999999998</ele>
        <time>2025-05-09T12:49:32Z</time>
      </trkpt>
      <trkpt lat="36.808748999610543" lon="-4.696148000657558">
        <ele>95.790000000000006</ele>
        <time>2025-05-09T12:49:33Z</time>
      </trkpt>
      <trkpt lat="36.808748999610543" lon="-4.696028977632523">
        <ele>96.269999999999996</ele>
        <time>2025-05-09T12:49:34Z</time>
      </trkpt>
      <trkpt lat="36.80878596380353" lon="-4.695940967649221">
        <ele>96.75</ele>
        <time>2025-05-09T12:49:35Z</time>
      </trkpt>
      <trkpt lat="36.808844972401857" lon="-4.69582898542285">
        <ele>97.709999999999994</ele>
        <time>2025-05-09T12:49:36Z</time>
      </trkpt>
      <trkpt lat="36.808900041505694" lon="-4.695725971832871">
        <ele>98.189999999999998</ele>
        <time>2025-05-09T12:49:37Z</time>
      </trkpt>
      <trkpt lat="36.808942034840584" lon="-4.695595968514681">
        <ele>98.670000000000002</ele>
        <time>2025-05-09T12:49:38Z</time>
      </trkpt>
      <trkpt lat="36.808942034840584" lon="-4.695477029308677">
        <ele>99.150000000000006</ele>
        <time>2025-05-09T12:49:39Z</time>
      </trkpt>
      <trkpt lat="36.808942034840584" lon="-4.695345014333725">
        <ele>99.629999999999995</ele>
        <time>2025-05-09T12:49:40Z</time>
      </trkpt>
      <trkpt lat="36.80891202762723" lon="-4.695191960781813">
        <ele>100.11</ele>
        <time>2025-05-09T12:49:41Z</time>
      </trkpt>
      <trkpt lat="36.808855030685663" lon="-4.695059023797512">
        <ele>100.11</ele>
        <time>2025-05-09T12:49:42Z</time>
      </trkpt>
      <trkpt lat="36.808781018480659" lon="-4.694958021864295">
        <ele>100.59999999999999</ele>
        <time>2025-05-09T12:49:43Z</time>
      </trkpt>
      <trkpt lat="36.808707006275654" lon="-4.694857019931078">
        <ele>100.59999999999999</ele>
        <time>2025-05-09T12:49:44Z</time>
      </trkpt>
      <trkpt lat="36.808641962707043" lon="-4.694768004119396">
        <ele>101.08</ele>
        <time>2025-05-09T12:49:45Z</time>
      </trkpt>
      <trkpt lat="36.808537021279335" lon="-4.694756017997861">
        <ele>101.56</ele>
        <time>2025-05-09T12:49:46Z</time>
      </trkpt>
      <trkpt lat="36.808445993810892" lon="-4.694746965542436">
        <ele>101.56</ele>
        <time>2025-05-09T12:49:47Z</time>
      </trkpt>
      <trkpt lat="36.808351026847959" lon="-4.694787031039596">
        <ele>102.04000000000001</ele>
        <time>2025-05-09T12:49:48Z</time>
      </trkpt>
      <trkpt lat="36.808249019086361" lon="-4.694831036031246">
        <ele>102.52</ele>
        <time>2025-05-09T12:49:49Z</time>
      </trkpt>
      <trkpt lat="36.80814097635448" lon="-4.694878980517387">
        <ele>103</ele>
        <time>2025-05-09T12:49:50Z</time>
      </trkpt>
      <trkpt lat="36.808034023270011" lon="-4.694956010207534">
        <ele>103.95999999999999</ele>
        <time>2025-05-09T12:49:51Z</time>
      </trkpt>
      <trkpt lat="36.80730496533215" lon="-4.695412991568446">
        <ele>108.77</ele>
        <time>2025-05-09T12:49:59Z</time>
      </trkpt>
      <trkpt lat="36.807223996147513" lon="-4.695477029308677">
        <ele>109.73</ele>
        <time>2025-05-09T12:50:00Z</time>
      </trkpt>
      <trkpt lat="36.807183008641005" lon="-4.695559004321694">
        <ele>110.69</ele>
        <time>2025-05-09T12:50:01Z</time>
      </trkpt>
      <trkpt lat="36.807159958407283" lon="-4.69567802734673">
        <ele>111.17</ele>
        <time>2025-05-09T12:50:02Z</time>
      </trkpt>
      <trkpt lat="36.807137997820973" lon="-4.695798978209496">
        <ele>111.65000000000001</ele>
        <time>2025-05-09T12:50:03Z</time>
      </trkpt>
      <trkpt lat="36.807107990607619" lon="-4.695931999012828">
        <ele>112.13</ele>
        <time>2025-05-09T12:50:04Z</time>
      </trkpt>
      <trkpt lat="36.807057028636336" lon="-4.696066025644541">
        <ele>112.13</ele>
        <time>2025-05-09T12:50:05Z</time>
      </trkpt>
      <trkpt lat="36.80700296536088" lon="-4.696212038397789">
        <ele>111.65000000000001</ele>
        <time>2025-05-09T12:50:06Z</time>
      </trkpt>
      <trkpt lat="36.806461997330189" lon="-4.697448033839464">
        <ele>105.88</ele>
        <time>2025-05-09T12:50:13Z</time>
      </trkpt>
      <trkpt lat="36.806423021480441" lon="-4.697639979422092">
        <ele>104.92</ele>
        <time>2025-05-09T12:50:14Z</time>
      </trkpt>
      <trkpt lat="36.806401982903481" lon="-4.69782798551023">
        <ele>103.95999999999999</ele>
        <time>2025-05-09T12:50:15Z</time>
      </trkpt>
      <trkpt lat="36.806389996781945" lon="-4.698016997426748">
        <ele>103.48</ele>
        <time>2025-05-09T12:50:16Z</time>
      </trkpt>
      <trkpt lat="36.806403994560242" lon="-4.698205003514886">
        <ele>102.52</ele>
        <time>2025-05-09T12:50:17Z</time>
      </trkpt>
      <trkpt lat="36.806452022865415" lon="-4.69838697463274">
        <ele>101.56</ele>
        <time>2025-05-09T12:50:18Z</time>
      </trkpt>
      <trkpt lat="36.806514970958233" lon="-4.698564000427723">
        <ele>100.59999999999999</ele>
        <time>2025-05-09T12:50:19Z</time>
      </trkpt>
      <trkpt lat="36.806580014526844" lon="-4.698734991252422">
        <ele>100.11</ele>
        <time>2025-05-09T12:50:20Z</time>
      </trkpt>
      <trkpt lat="36.806656960397959" lon="-4.69890003092587">
        <ele>99.629999999999995</ele>
        <time>2025-05-09T12:50:21Z</time>
      </trkpt>
      <trkpt lat="36.807051999494433" lon="-4.699735958129168">
        <ele>97.230000000000004</ele>
        <time>2025-05-09T12:50:26Z</time>
      </trkpt>
      <trkpt lat="36.807146966457367" lon="-4.699900997802615">
        <ele>96.75</ele>
        <time>2025-05-09T12:50:27Z</time>
      </trkpt>
      <trkpt lat="36.807252997532487" lon="-4.700046004727483">
        <ele>96.269999999999996</ele>
        <time>2025-05-09T12:50:28Z</time>
      </trkpt>
      <trkpt lat="36.807385012507439" lon="-4.700158992782235">
        <ele>95.790000000000006</ele>
        <time>2025-05-09T12:50:29Z</time>
      </trkpt>
      <trkpt lat="36.807506969198585" lon="-4.700253959745169">
        <ele>95.310000000000002</ele>
        <time>2025-05-09T12:50:30Z</time>
      </trkpt>
      <trkpt lat="36.808035029098392" lon="-4.700711024925113">
        <ele>93.870000000000005</ele>
        <time>2025-05-09T12:50:35Z</time>
      </trkpt>
      <trkpt lat="36.808102000504732" lon="-4.70081303268671">
        <ele>93.870000000000005</ele>
        <time>2025-05-09T12:50:36Z</time>
      </trkpt>
      <trkpt lat="36.808157991617918" lon="-4.700929960235953">
        <ele>93.390000000000001</ele>
        <time>2025-05-09T12:50:37Z</time>
      </trkpt>
      <trkpt lat="36.808217000216246" lon="-4.701053006574512">
        <ele>93.390000000000001</ele>
        <time>2025-05-09T12:50:38Z</time>
      </trkpt>
      <trkpt lat="36.808278020471334" lon="-4.701180998235941">
        <ele>92.900000000000006</ele>
        <time>2025-05-09T12:50:39Z</time>
      </trkpt>
      <trkpt lat="36.808651015162468" lon="-4.702655961737037">
        <ele>94.349999999999994</ele>
        <time>2025-05-09T12:50:48Z</time>
      </trkpt>
      <trkpt lat="36.809182008728385" lon="-4.704389004036784">
        <ele>102.04000000000001</ele>
        <time>2025-05-09T12:50:59Z</time>
      </trkpt>
      <trkpt lat="36.809699004516006" lon="-4.705660035833716">
        <ele>108.29000000000001</ele>
        <time>2025-05-09T12:51:08Z</time>
      </trkpt>
      <trkpt lat="36.809735968708992" lon="-4.705795990303159">
        <ele>108.77</ele>
        <time>2025-05-09T12:51:09Z</time>
      </trkpt>
      <trkpt lat="36.809735968708992" lon="-4.705963963642716">
        <ele>109.25</ele>
        <time>2025-05-09T12:51:10Z</time>
      </trkpt>
      <trkpt lat="36.809735968708992" lon="-4.7061219625175">
        <ele>110.20999999999999</ele>
        <time>2025-05-09T12:51:11Z</time>
      </trkpt>
      <trkpt lat="36.809697998687625" lon="-4.706253977492452">
        <ele>110.69</ele>
        <time>2025-05-09T12:51:12Z</time>
      </trkpt>
      <trkpt lat="36.809632033109665" lon="-4.706365037709475">
        <ele>111.17</ele>
        <time>2025-05-09T12:51:13Z</time>
      </trkpt>
      <trkpt lat="36.809552991762757" lon="-4.706490011885762">
        <ele>111.65000000000001</ele>
        <time>2025-05-09T12:51:14Z</time>
      </trkpt>
      <trkpt lat="36.80947202257812" lon="-4.706619009375572">
        <ele>112.13</ele>
        <time>2025-05-09T12:51:15Z</time>
      </trkpt>
      <trkpt lat="36.809380995109677" lon="-4.70672202296555">
        <ele>112.13</ele>
        <time>2025-05-09T12:51:16Z</time>
      </trkpt>
      <trkpt lat="36.809268007054925" lon="-4.706817995756865">
        <ele>112.13</ele>
        <time>2025-05-09T12:51:17Z</time>
      </trkpt>
      <trkpt lat="36.80781802162528" lon="-4.707855004817247">
        <ele>112.61</ele>
        <time>2025-05-09T12:51:28Z</time>
      </trkpt>
      <trkpt lat="36.806184975430369" lon="-4.709131987765431">
        <ele>111.65000000000001</ele>
        <time>2025-05-09T12:51:40Z</time>
      </trkpt>
      <trkpt lat="36.806042985990644" lon="-4.70925603993237">
        <ele>111.65000000000001</ele>
        <time>2025-05-09T12:51:41Z</time>
      </trkpt>
      <trkpt lat="36.805920023471117" lon="-4.709404986351728">
        <ele>112.13</ele>
        <time>2025-05-09T12:51:42Z</time>
      </trkpt>
      <trkpt lat="36.804848983883858" lon="-4.710962008684874">
        <ele>110.20999999999999</ele>
        <time>2025-05-09T12:51:51Z</time>
      </trkpt>
      <trkpt lat="36.804198967292905" lon="-4.711756026372314">
        <ele>108.77</ele>
        <time>2025-05-09T12:51:56Z</time>
      </trkpt>
      <trkpt lat="36.80309196934104" lon="-4.712317027151585">
        <ele>110.69</ele>
        <time>2025-05-09T12:52:03Z</time>
      </trkpt>
      <trkpt lat="36.8011340405792" lon="-4.712714999914169">
        <ele>113.56999999999999</ele>
        <time>2025-05-09T12:52:14Z</time>
      </trkpt>
      <trkpt lat="36.798853995278478" lon="-4.713294021785259">
        <ele>114.05</ele>
        <time>2025-05-09T12:52:26Z</time>
      </trkpt>
      <trkpt lat="36.796863963827491" lon="-4.714096002280712">
        <ele>109.73</ele>
        <time>2025-05-09T12:52:37Z</time>
      </trkpt>
      <trkpt lat="36.79537802003324" lon="-4.714168002828956">
        <ele>106.84</ele>
        <time>2025-05-09T12:52:45Z</time>
      </trkpt>
      <trkpt lat="36.795020028948784" lon="-4.714302029460669">
        <ele>106.36</ele>
        <time>2025-05-09T12:52:47Z</time>
      </trkpt>
      <trkpt lat="36.79484099149704" lon="-4.714391967281699">
        <ele>105.88</ele>
        <time>2025-05-09T12:52:48Z</time>
      </trkpt>
      <trkpt lat="36.794661032035947" lon="-4.714481988921762">
        <ele>105.88</ele>
        <time>2025-05-09T12:52:49Z</time>
      </trkpt>
      <trkpt lat="36.794491969048977" lon="-4.714593971148133">
        <ele>105.40000000000001</ele>
        <time>2025-05-09T12:52:50Z</time>
      </trkpt>
      <trkpt lat="36.794331036508083" lon="-4.71473403275013">
        <ele>105.40000000000001</ele>
        <time>2025-05-09T12:52:51Z</time>
      </trkpt>
      <trkpt lat="36.793773975223303" lon="-4.715378014370799">
        <ele>103.95999999999999</ele>
        <time>2025-05-09T12:52:55Z</time>
      </trkpt>
      <trkpt lat="36.793654030188918" lon="-4.715557973831892">
        <ele>103.95999999999999</ele>
        <time>2025-05-09T12:52:56Z</time>
      </trkpt>
      <trkpt lat="36.792692961171269" lon="-4.717212980613112">
        <ele>101.56</ele>
        <time>2025-05-09T12:53:05Z</time>
      </trkpt>
      <trkpt lat="36.791513962671161" lon="-4.718211013823748">
        <ele>103.95999999999999</ele>
        <time>2025-05-09T12:53:13Z</time>
      </trkpt>
      <trkpt lat="36.791177010163665" lon="-4.718370018526912">
        <ele>104.92</ele>
        <time>2025-05-09T12:53:15Z</time>
      </trkpt>
      <trkpt lat="36.79082396440208" lon="-4.718447970226407">
        <ele>105.88</ele>
        <time>2025-05-09T12:53:17Z</time>
      </trkpt>
      <trkpt lat="36.79065297357738" lon="-4.718451993539929">
        <ele>106.36</ele>
        <time>2025-05-09T12:53:18Z</time>
      </trkpt>
      <trkpt lat="36.790475025773048" lon="-4.718446964398027">
        <ele>106.36</ele>
        <time>2025-05-09T12:53:19Z</time>
      </trkpt>
      <trkpt lat="36.790295988321304" lon="-4.718441013246775">
        <ele>106.84</ele>
        <time>2025-05-09T12:53:20Z</time>
      </trkpt>
      <trkpt lat="36.790079986676574" lon="-4.718434978276491">
        <ele>107.31999999999999</ele>
        <time>2025-05-09T12:53:21Z</time>
      </trkpt>
      <trkpt lat="36.789943026378751" lon="-4.718405976891518">
        <ele>107.81</ele>
        <time>2025-05-09T12:53:22Z</time>
      </trkpt>
      <trkpt lat="36.78800999186933" lon="-4.718042034655809">
        <ele>109.25</ele>
        <time>2025-05-09T12:53:33Z</time>
      </trkpt>
      <trkpt lat="36.787007013335824" lon="-4.717925023287535">
        <ele>108.29000000000001</ele>
        <time>2025-05-09T12:53:39Z</time>
      </trkpt>
      <trkpt lat="36.78684901446104" lon="-4.717962993308902">
        <ele>108.29000000000001</ele>
        <time>2025-05-09T12:53:40Z</time>
      </trkpt>
      <trkpt lat="36.786715993657708" lon="-4.718043962493539">
        <ele>108.29000000000001</ele>
        <time>2025-05-09T12:53:41Z</time>
      </trkpt>
      <trkpt lat="36.786585990339518" lon="-4.718132978305221">
        <ele>108.29000000000001</ele>
        <time>2025-05-09T12:53:42Z</time>
      </trkpt>
      <trkpt lat="36.786470990628004" lon="-4.718258958309889">
        <ele>108.29000000000001</ele>
        <time>2025-05-09T12:53:43Z</time>
      </trkpt>
      <trkpt lat="36.786367977038026" lon="-4.718370018526912">
        <ele>108.29000000000001</ele>
        <time>2025-05-09T12:53:44Z</time>
      </trkpt>
      <trkpt lat="36.786275021731853" lon="-4.718556012958288">
        <ele>108.29000000000001</ele>
        <time>2025-05-09T12:53:45Z</time>
      </trkpt>
      <trkpt lat="36.786192962899804" lon="-4.718721974641085">
        <ele>107.81</ele>
        <time>2025-05-09T12:53:46Z</time>
      </trkpt>
      <trkpt lat="36.786118028685451" lon="-4.718871004879475">
        <ele>107.81</ele>
        <time>2025-05-09T12:53:47Z</time>
      </trkpt>
      <trkpt lat="36.786066982895136" lon="-4.719003019854426">
        <ele>107.81</ele>
        <time>2025-05-09T12:53:48Z</time>
      </trkpt>
      <trkpt lat="36.786032030358911" lon="-4.719121037051082">
        <ele>107.31999999999999</ele>
        <time>2025-05-09T12:53:49Z</time>
      </trkpt>
      <trkpt lat="36.785706980153918" lon="-4.720520982518792">
        <ele>100.11</ele>
        <time>2025-05-09T12:54:00Z</time>
      </trkpt>
      <trkpt lat="36.785335997119546" lon="-4.722072975710034">
        <ele>97.709999999999994</ele>
        <time>2025-05-09T12:54:10Z</time>
      </trkpt>
      <trkpt lat="36.784920003265142" lon="-4.72369403578341">
        <ele>101.08</ele>
        <time>2025-05-09T12:54:20Z</time>
      </trkpt>
      <trkpt lat="36.784712970256805" lon="-4.724396020174027">
        <ele>102.04000000000001</ele>
        <time>2025-05-09T12:54:24Z</time>
      </trkpt>
      <trkpt lat="36.784647004678845" lon="-4.724572040140629">
        <ele>102.04000000000001</ele>
        <time>2025-05-09T12:54:25Z</time>
      </trkpt>
      <trkpt lat="36.784542985260487" lon="-4.724732972681522">
        <ele>102.52</ele>
        <time>2025-05-09T12:54:26Z</time>
      </trkpt>
      <trkpt lat="36.784434020519257" lon="-4.724880997091532">
        <ele>102.52</ele>
        <time>2025-05-09T12:54:27Z</time>
      </trkpt>
      <trkpt lat="36.784330001100898" lon="-4.725021980702877">
        <ele>103</ele>
        <time>2025-05-09T12:54:28Z</time>
      </trkpt>
      <trkpt lat="36.784188011661172" lon="-4.725147038698196">
        <ele>103</ele>
        <time>2025-05-09T12:54:29Z</time>
      </trkpt>
      <trkpt lat="36.784053985029459" lon="-4.725265977904201">
        <ele>103.48</ele>
        <time>2025-05-09T12:54:30Z</time>
      </trkpt>
      <trkpt lat="36.783910989761353" lon="-4.725373014807701">
        <ele>104.44</ele>
        <time>2025-05-09T12:54:31Z</time>
      </trkpt>
      <trkpt lat="36.783756008371711" lon="-4.725455995649099">
        <ele>104.92</ele>
        <time>2025-05-09T12:54:32Z</time>
      </trkpt>
      <trkpt lat="36.782365031540394" lon="-4.726127972826362">
        <ele>104.44</ele>
        <time>2025-05-09T12:54:41Z</time>
      </trkpt>
      <trkpt lat="36.7808139603585" lon="-4.726519994437695">
        <ele>98.670000000000002</ele>
        <time>2025-05-09T12:54:51Z</time>
      </trkpt>
      <trkpt lat="36.779637979343534" lon="-4.726867005228996">
        <ele>95.310000000000002</ele>
        <time>2025-05-09T12:54:58Z</time>
      </trkpt>
      <trkpt lat="36.77947998046875" lon="-4.726949986070395">
        <ele>94.829999999999998</ele>
        <time>2025-05-09T12:54:59Z</time>
      </trkpt>
      <trkpt lat="36.779333967715502" lon="-4.72706900909543">
        <ele>94.349999999999994</ele>
        <time>2025-05-09T12:55:00Z</time>
      </trkpt>
      <trkpt lat="36.779196001589298" lon="-4.727199012413621">
        <ele>94.349999999999994</ele>
        <time>2025-05-09T12:55:01Z</time>
      </trkpt>
      <trkpt lat="36.779062980785966" lon="-4.727342007681727">
        <ele>94.349999999999994</ele>
        <time>2025-05-09T12:55:02Z</time>
      </trkpt>
      <trkpt lat="36.777893034741282" lon="-4.728428972885013">
        <ele>98.670000000000002</ele>
        <time>2025-05-09T12:55:10Z</time>
      </trkpt>
      <trkpt lat="36.776494011282921" lon="-4.729114025831223">
        <ele>110.20999999999999</ele>
        <time>2025-05-09T12:55:19Z</time>
      </trkpt>
      <trkpt lat="36.775179980322719" lon="-4.729334972798824">
        <ele>118.38</ele>
        <time>2025-05-09T12:55:28Z</time>
      </trkpt>
      <trkpt lat="36.774676982313395" lon="-4.729437986388803">
        <ele>119.81999999999999</ele>
        <time>2025-05-09T12:55:31Z</time>
      </trkpt>
      <trkpt lat="36.774522000923753" lon="-4.729509986937046">
        <ele>120.3</ele>
        <time>2025-05-09T12:55:32Z</time>
      </trkpt>
      <trkpt lat="36.774377999827266" lon="-4.729609983041883">
        <ele>120.78</ele>
        <time>2025-05-09T12:55:33Z</time>
      </trkpt>
      <trkpt lat="36.774253025650978" lon="-4.729739986360073">
        <ele>121.26000000000001</ele>
        <time>2025-05-09T12:55:34Z</time>
      </trkpt>
      <trkpt lat="36.774145988747478" lon="-4.729894967749715">
        <ele>121.26000000000001</ele>
        <time>2025-05-09T12:55:35Z</time>
      </trkpt>
      <trkpt lat="36.77404498681426" lon="-4.730065958574414">
        <ele>121.73999999999999</ele>
        <time>2025-05-09T12:55:36Z</time>
      </trkpt>
      <trkpt lat="36.773964017629623" lon="-4.730255976319313">
        <ele>121.73999999999999</ele>
        <time>2025-05-09T12:55:37Z</time>
      </trkpt>
      <trkpt lat="36.773139992728829" lon="-4.732106029987335">
        <ele>120.78</ele>
        <time>2025-05-09T12:55:46Z</time>
      </trkpt>
      <trkpt lat="36.772412024438381" lon="-4.733577976003289">
        <ele>115.5</ele>
        <time>2025-05-09T12:55:53Z</time>
      </trkpt>
      <trkpt lat="36.772276991978288" lon="-4.733757013455033">
        <ele>114.53</ele>
        <time>2025-05-09T12:55:54Z</time>
      </trkpt>
      <trkpt lat="36.771425977349281" lon="-4.734935006126761">
        <ele>107.31999999999999</ele>
        <time>2025-05-09T12:56:01Z</time>
      </trkpt>
      <trkpt lat="36.771340984851122" lon="-4.735122006386519">
        <ele>105.88</ele>
        <time>2025-05-09T12:56:02Z</time>
      </trkpt>
      <trkpt lat="36.771267978474498" lon="-4.735329961404204">
        <ele>105.40000000000001</ele>
        <time>2025-05-09T12:56:03Z</time>
      </trkpt>
      <trkpt lat="36.771219028159976" lon="-4.735540011897683">
        <ele>104.44</ele>
        <time>2025-05-09T12:56:04Z</time>
      </trkpt>
      <trkpt lat="36.771180974319577" lon="-4.735762970522046">
        <ele>103.48</ele>
        <time>2025-05-09T12:56:05Z</time>
      </trkpt>
      <trkpt lat="36.771150967106223" lon="-4.73598500713706">
        <ele>102.52</ele>
        <time>2025-05-09T12:56:06Z</time>
      </trkpt>
      <trkpt lat="36.771039990708232" lon="-4.737764988094568">
        <ele>97.709999999999994</ele>
        <time>2025-05-09T12:56:15Z</time>
      </trkpt>
      <trkpt lat="36.77099296823144" lon="-4.738133959472179">
        <ele>97.230000000000004</ele>
        <time>2025-05-09T12:56:20Z</time>
      </trkpt>
      <trkpt lat="36.770968995988369" lon="-4.738255999982357">
        <ele>96.75</ele>
        <time>2025-05-09T12:56:29Z</time>
      </trkpt>
      <trkpt lat="36.770968995988369" lon="-4.738255999982357">
        <ele>96.75</ele>
        <time>2025-05-09T12:56:49Z</time>
      </trkpt>
      <trkpt lat="36.770905964076519" lon="-4.738513994961977">
        <ele>93.390000000000001</ele>
        <time>2025-05-09T12:56:58Z</time>
      </trkpt>
      <trkpt lat="36.770853996276855" lon="-4.738490022718906">
        <ele>93.390000000000001</ele>
        <time>2025-05-09T12:56:59Z</time>
      </trkpt>
      <trkpt lat="36.770780989900231" lon="-4.738458003848791">
        <ele>92.900000000000006</ele>
        <time>2025-05-09T12:57:00Z</time>
      </trkpt>
      <trkpt lat="36.770699014887214" lon="-4.738419027999044">
        <ele>92.900000000000006</ele>
        <time>2025-05-09T12:57:01Z</time>
      </trkpt>
      <trkpt lat="36.770608993247151" lon="-4.73836999386549">
        <ele>92.420000000000002</ele>
        <time>2025-05-09T12:57:02Z</time>
      </trkpt>
      <trkpt lat="36.769752027466893" lon="-4.737782003358007">
        <ele>91.939999999999998</ele>
        <time>2025-05-09T12:57:09Z</time>
      </trkpt>
      <trkpt lat="36.768873017281294" lon="-4.736595964059234">
        <ele>92.420000000000002</ele>
        <time>2025-05-09T12:57:16Z</time>
      </trkpt>
      <trkpt lat="36.768111018463969" lon="-4.734840961173177">
        <ele>94.349999999999994</ele>
        <time>2025-05-09T12:57:24Z</time>
      </trkpt>
      <trkpt lat="36.767066968604922" lon="-4.732855958864093">
        <ele>95.790000000000006</ele>
        <time>2025-05-09T12:57:34Z</time>
      </trkpt>
      <trkpt lat="36.765957958996296" lon="-4.731821967288852">
        <ele>92.900000000000006</ele>
        <time>2025-05-09T12:57:41Z</time>
      </trkpt>
      <trkpt lat="36.763715967535973" lon="-4.730257987976074">
        <ele>86.659999999999997</ele>
        <time>2025-05-09T12:57:54Z</time>
      </trkpt>
      <trkpt lat="36.7623779643327" lon="-4.729736968874931">
        <ele>86.659999999999997</ele>
        <time>2025-05-09T12:58:01Z</time>
      </trkpt>
      <trkpt lat="36.760288020595908" lon="-4.729678966104984">
        <ele>85.689999999999998</ele>
        <time>2025-05-09T12:58:11Z</time>
      </trkpt>
      <trkpt lat="36.759878983721137" lon="-4.72958299331367">
        <ele>85.209999999999994</ele>
        <time>2025-05-09T12:58:13Z</time>
      </trkpt>
      <trkpt lat="36.759677985683084" lon="-4.729533959180117">
        <ele>85.209999999999994</ele>
        <time>2025-05-09T12:58:14Z</time>
      </trkpt>
      <trkpt lat="36.759486962109804" lon="-4.729455001652241">
        <ele>84.730000000000004</ele>
        <time>2025-05-09T12:58:15Z</time>
      </trkpt>
      <trkpt lat="36.75930499099195" lon="-4.729337990283966">
        <ele>84.730000000000004</ele>
        <time>2025-05-09T12:58:16Z</time>
      </trkpt>
      <trkpt lat="36.759118996560574" lon="-4.72921896725893">
        <ele>84.730000000000004</ele>
        <time>2025-05-09T12:58:17Z</time>
      </trkpt>
      <trkpt lat="36.75894096493721" lon="-4.729098016396165">
        <ele>84.25</ele>
        <time>2025-05-09T12:58:18Z</time>
      </trkpt>
      <trkpt lat="36.75876896828413" lon="-4.728946974501014">
        <ele>84.25</ele>
        <time>2025-05-09T12:58:19Z</time>
      </trkpt>
      <trkpt lat="36.758599989116192" lon="-4.728796016424894">
        <ele>83.769999999999996</ele>
        <time>2025-05-09T12:58:20Z</time>
      </trkpt>
      <trkpt lat="36.756897959858179" lon="-4.726859964430332">
        <ele>81.849999999999994</ele>
        <time>2025-05-09T12:58:31Z</time>
      </trkpt>
      <trkpt lat="36.755591975525022" lon="-4.725098004564643">
        <ele>78.969999999999999</ele>
        <time>2025-05-09T12:58:41Z</time>
      </trkpt>
      <trkpt lat="36.755491979420185" lon="-4.724888037890196">
        <ele>78.480000000000004</ele>
        <time>2025-05-09T12:58:42Z</time>
      </trkpt>
      <trkpt lat="36.755392989143729" lon="-4.724679999053478">
        <ele>78</ele>
        <time>2025-05-09T12:58:43Z</time>
      </trkpt>
      <trkpt lat="36.754710031673312" lon="-4.722357960417867">
        <ele>70.790000000000006</ele>
        <time>2025-05-09T12:58:53Z</time>
      </trkpt>
      <trkpt lat="36.754356985911727" lon="-4.721785979345441">
        <ele>68.870000000000005</ele>
        <time>2025-05-09T12:58:56Z</time>
      </trkpt>
      <trkpt lat="36.754207033663988" lon="-4.721636027097702">
        <ele>68.390000000000001</ele>
        <time>2025-05-09T12:58:57Z</time>
      </trkpt>
      <trkpt lat="36.754056997597218" lon="-4.721484985202551">
        <ele>67.909999999999997</ele>
        <time>2025-05-09T12:58:58Z</time>
      </trkpt>
      <trkpt lat="36.753905033692718" lon="-4.721334027126432">
        <ele>67.909999999999997</ele>
        <time>2025-05-09T12:58:59Z</time>
      </trkpt>
      <trkpt lat="36.753727002069354" lon="-4.721234031021595">
        <ele>67.430000000000007</ele>
        <time>2025-05-09T12:59:00Z</time>
      </trkpt>
      <trkpt lat="36.75354796461761" lon="-4.721135040745139">
        <ele>67.430000000000007</ele>
        <time>2025-05-09T12:59:01Z</time>
      </trkpt>
      <trkpt lat="36.752132009714842" lon="-4.720402965322137">
        <ele>65.989999999999995</ele>
        <time>2025-05-09T12:59:09Z</time>
      </trkpt>
      <trkpt lat="36.749891024082899" lon="-4.719087006524205">
        <ele>68.390000000000001</ele>
        <time>2025-05-09T12:59:22Z</time>
      </trkpt>
      <trkpt lat="36.749759009107947" lon="-4.718909980729222">
        <ele>69.349999999999994</ele>
        <time>2025-05-09T12:59:23Z</time>
      </trkpt>
      <trkpt lat="36.749625988304615" lon="-4.71873396076262">
        <ele>69.349999999999994</ele>
        <time>2025-05-09T12:59:24Z</time>
      </trkpt>
      <trkpt lat="36.749524986371398" lon="-4.718536986038089">
        <ele>69.829999999999998</ele>
        <time>2025-05-09T12:59:25Z</time>
      </trkpt>
      <trkpt lat="36.749423984438181" lon="-4.718330958858132">
        <ele>70.310000000000002</ele>
        <time>2025-05-09T12:59:26Z</time>
      </trkpt>
      <trkpt lat="36.749323988333344" lon="-4.718125015497208">
        <ele>70.790000000000006</ele>
        <time>2025-05-09T12:59:27Z</time>
      </trkpt>
      <trkpt lat="36.748469034209847" lon="-4.715855028480291">
        <ele>72.719999999999999</ele>
        <time>2025-05-09T12:59:38Z</time>
      </trkpt>
      <trkpt lat="36.747716004028916" lon="-4.713471969589591">
        <ele>66.469999999999999</ele>
        <time>2025-05-09T12:59:49Z</time>
      </trkpt>
      <trkpt lat="36.747232032939792" lon="-4.712186018005014">
        <ele>62.140000000000001</ele>
        <time>2025-05-09T12:59:55Z</time>
      </trkpt>
      <trkpt lat="36.747106974944472" lon="-4.712013015523553">
        <ele>61.18</ele>
        <time>2025-05-09T12:59:56Z</time>
      </trkpt>
      <trkpt lat="36.746816961094737" lon="-4.711714033037424">
        <ele>59.740000000000002</ele>
        <time>2025-05-09T12:59:58Z</time>
      </trkpt>
      <trkpt lat="36.746668014675379" lon="-4.711565002799034">
        <ele>58.780000000000001</ele>
        <time>2025-05-09T12:59:59Z</time>
      </trkpt>
      <trkpt lat="36.746504986658692" lon="-4.711440028622747">
        <ele>58.299999999999997</ele>
        <time>2025-05-09T13:00:00Z</time>
      </trkpt>
      <trkpt lat="36.746329972520471" lon="-4.711345983669162">
        <ele>57.82</ele>
        <time>2025-05-09T13:00:01Z</time>
      </trkpt>
      <trkpt lat="36.7461540363729" lon="-4.711267026141286">
        <ele>57.340000000000003</ele>
        <time>2025-05-09T13:00:02Z</time>
      </trkpt>
      <trkpt lat="36.745978016406298" lon="-4.711216986179352">
        <ele>56.859999999999999</ele>
        <time>2025-05-09T13:00:03Z</time>
      </trkpt>
      <trkpt lat="36.745797973126173" lon="-4.711197037249804">
        <ele>56.369999999999997</ele>
        <time>2025-05-09T13:00:04Z</time>
      </trkpt>
      <trkpt lat="36.745616002008319" lon="-4.711177004501224">
        <ele>55.890000000000001</ele>
        <time>2025-05-09T13:00:05Z</time>
      </trkpt>
      <trkpt lat="36.745430007576942" lon="-4.711163006722927">
        <ele>55.409999999999997</ele>
        <time>2025-05-09T13:00:06Z</time>
      </trkpt>
      <trkpt lat="36.742542022839189" lon="-4.711389988660812">
        <ele>50.130000000000003</ele>
        <time>2025-05-09T13:00:21Z</time>
      </trkpt>
      <trkpt lat="36.739253969863057" lon="-4.711547987535596">
        <ele>49.649999999999999</ele>
        <time>2025-05-09T13:00:38Z</time>
      </trkpt>
      <trkpt lat="36.737550012767315" lon="-4.71097500063479">
        <ele>50.609999999999999</ele>
        <time>2025-05-09T13:00:47Z</time>
      </trkpt>
      <trkpt lat="36.735283965244889" lon="-4.710010997951031">
        <ele>50.609999999999999</ele>
        <time>2025-05-09T13:00:59Z</time>
      </trkpt>
      <trkpt lat="36.733162002637982" lon="-4.709425019100308">
        <ele>50.609999999999999</ele>
        <time>2025-05-09T13:01:10Z</time>
      </trkpt>
      <trkpt lat="36.730683976784348" lon="-4.709203988313675">
        <ele>61.18</ele>
        <time>2025-05-09T13:01:23Z</time>
      </trkpt>
      <trkpt lat="36.728106960654259" lon="-4.709204994142056">
        <ele>57.340000000000003</ele>
        <time>2025-05-09T13:01:36Z</time>
      </trkpt>
      <trkpt lat="36.725372029468417" lon="-4.709227038547397">
        <ele>47.719999999999999</ele>
        <time>2025-05-09T13:01:50Z</time>
      </trkpt>
      <trkpt lat="36.72365901991725" lon="-4.70887097530067">
        <ele>45.799999999999997</ele>
        <time>2025-05-09T13:01:59Z</time>
      </trkpt>
      <trkpt lat="36.722024967893958" lon="-4.708427991718054">
        <ele>42.920000000000002</ele>
        <time>2025-05-09T13:02:08Z</time>
      </trkpt>
      <trkpt lat="36.721345027908683" lon="-4.708056002855301">
        <ele>42.920000000000002</ele>
        <time>2025-05-09T13:02:12Z</time>
      </trkpt>
      <trkpt lat="36.721192980185151" lon="-4.707919964566827">
        <ele>42.920000000000002</ele>
        <time>2025-05-09T13:02:13Z</time>
      </trkpt>
      <trkpt lat="36.720913024619222" lon="-4.707591980695725">
        <ele>43.399999999999999</ele>
        <time>2025-05-09T13:02:15Z</time>
      </trkpt>
      <trkpt lat="36.720788972452283" lon="-4.707412021234632">
        <ele>43.399999999999999</ele>
        <time>2025-05-09T13:02:16Z</time>
      </trkpt>
      <trkpt lat="36.720001995563507" lon="-4.705760031938553">
        <ele>47.240000000000002</ele>
        <time>2025-05-09T13:02:24Z</time>
      </trkpt>
      <trkpt lat="36.719951033592224" lon="-4.705531960353255">
        <ele>48.200000000000003</ele>
        <time>2025-05-09T13:02:25Z</time>
      </trkpt>
      <trkpt lat="36.719802003353834" lon="-4.704603999853134">
        <ele>50.130000000000003</ele>
        <time>2025-05-09T13:02:29Z</time>
      </trkpt>
      <trkpt lat="36.719791023060679" lon="-4.704368971288204">
        <ele>50.609999999999999</ele>
        <time>2025-05-09T13:02:30Z</time>
      </trkpt>
      <trkpt lat="36.719806026667356" lon="-4.704128997400403">
        <ele>51.090000000000003</ele>
        <time>2025-05-09T13:02:31Z</time>
      </trkpt>
      <trkpt lat="36.719821030274034" lon="-4.703891035169363">
        <ele>51.090000000000003</ele>
        <time>2025-05-09T13:02:32Z</time>
      </trkpt>
      <trkpt lat="36.719836033880711" lon="-4.703655000776053">
        <ele>51.090000000000003</ele>
        <time>2025-05-09T13:02:33Z</time>
      </trkpt>
      <trkpt lat="36.719850031659007" lon="-4.703423995524645">
        <ele>51.57</ele>
        <time>2025-05-09T13:02:34Z</time>
      </trkpt>
      <trkpt lat="36.72013602219522" lon="-4.699726989492774">
        <ele>53.490000000000002</ele>
        <time>2025-05-09T13:02:50Z</time>
      </trkpt>
      <trkpt lat="36.720228977501392" lon="-4.697218034416437">
        <ele>54.93</ele>
        <time>2025-05-09T13:03:00Z</time>
      </trkpt>
      <trkpt lat="36.720263008028269" lon="-4.694593995809555">
        <ele>57.82</ele>
        <time>2025-05-09T13:03:10Z</time>
      </trkpt>
      <trkpt lat="36.719855982810259" lon="-4.692265000194311">
        <ele>61.659999999999997</ele>
        <time>2025-05-09T13:03:20Z</time>
      </trkpt>
      <trkpt lat="36.718939002603292" lon="-4.68865399248898">
        <ele>60.700000000000003</ele>
        <time>2025-05-09T13:03:36Z</time>
      </trkpt>
      <trkpt lat="36.718839006498456" lon="-4.686330026015639">
        <ele>61.18</ele>
        <time>2025-05-09T13:03:46Z</time>
      </trkpt>
      <trkpt lat="36.719156010076404" lon="-4.684281991794705">
        <ele>63.100000000000001</ele>
        <time>2025-05-09T13:03:55Z</time>
      </trkpt>
      <trkpt lat="36.719956984743476" lon="-4.681394007056952">
        <ele>64.549999999999997</ele>
        <time>2025-05-09T13:04:08Z</time>
      </trkpt>
      <trkpt lat="36.720629967749119" lon="-4.678197987377644">
        <ele>66.950000000000003</ele>
        <time>2025-05-09T13:04:22Z</time>
      </trkpt>
      <trkpt lat="36.720728036016226" lon="-4.67537404038012">
        <ele>66.469999999999999</ele>
        <time>2025-05-09T13:04:34Z</time>
      </trkpt>
      <trkpt lat="36.720392005518079" lon="-4.672826025635004">
        <ele>64.549999999999997</ele>
        <time>2025-05-09T13:04:45Z</time>
      </trkpt>
      <trkpt lat="36.719592036679387" lon="-4.670177008956671">
        <ele>61.659999999999997</ele>
        <time>2025-05-09T13:04:57Z</time>
      </trkpt>
      <trkpt lat="36.718284962698817" lon="-4.667569985613227">
        <ele>57.82</ele>
        <time>2025-05-09T13:05:10Z</time>
      </trkpt>
      <trkpt lat="36.716830031946301" lon="-4.665123978629708">
        <ele>53.009999999999998</ele>
        <time>2025-05-09T13:05:23Z</time>
      </trkpt>
      <trkpt lat="36.715280972421169" lon="-4.662094004452229">
        <ele>48.200000000000003</ele>
        <time>2025-05-09T13:05:38Z</time>
      </trkpt>
      <trkpt lat="36.714548980817199" lon="-4.659713041037321">
        <ele>46.280000000000001</ele>
        <time>2025-05-09T13:05:49Z</time>
      </trkpt>
      <trkpt lat="36.714271036908031" lon="-4.65743400156498">
        <ele>46.280000000000001</ele>
        <time>2025-05-09T13:05:59Z</time>
      </trkpt>
      <trkpt lat="36.714370027184486" lon="-4.654596978798509">
        <ele>46.759999999999998</ele>
        <time>2025-05-09T13:06:11Z</time>
      </trkpt>
      <trkpt lat="36.714789038524032" lon="-4.651335999369621">
        <ele>43.880000000000003</ele>
        <time>2025-05-09T13:06:25Z</time>
      </trkpt>
      <trkpt lat="36.715480964630842" lon="-4.647759022191167">
        <ele>43.399999999999999</ele>
        <time>2025-05-09T13:06:41Z</time>
      </trkpt>
      <trkpt lat="36.716262996196747" lon="-4.64422001503408">
        <ele>45.799999999999997</ele>
        <time>2025-05-09T13:06:57Z</time>
      </trkpt>
      <trkpt lat="36.716520991176367" lon="-4.641777025535703">
        <ele>45.32</ele>
        <time>2025-05-09T13:07:07Z</time>
      </trkpt>
      <trkpt lat="36.716673038899899" lon="-4.637956973165274">
        <ele>38.109999999999999</ele>
        <time>2025-05-09T13:07:23Z</time>
      </trkpt>
      <trkpt lat="36.716782003641129" lon="-4.635008974000812">
        <ele>34.740000000000002</ele>
        <time>2025-05-09T13:07:36Z</time>
      </trkpt>
      <trkpt lat="36.716895997524261" lon="-4.63193197734654">
        <ele>36.189999999999998</ele>
        <time>2025-05-09T13:07:49Z</time>
      </trkpt>
      <trkpt lat="36.71710898168385" lon="-4.628593968227506">
        <ele>47.240000000000002</ele>
        <time>2025-05-09T13:08:03Z</time>
      </trkpt>
      <trkpt lat="36.717392960563302" lon="-4.625137019902468">
        <ele>60.219999999999999</ele>
        <time>2025-05-09T13:08:18Z</time>
      </trkpt>
      <trkpt lat="36.717589013278484" lon="-4.622882958501577">
        <ele>65.989999999999995</ele>
        <time>2025-05-09T13:08:28Z</time>
      </trkpt>
      <trkpt lat="36.717758998274803" lon="-4.620908014476299">
        <ele>62.619999999999997</ele>
        <time>2025-05-09T13:08:36Z</time>
      </trkpt>
      <trkpt lat="36.718012969940901" lon="-4.618137963116169">
        <ele>56.859999999999999</ele>
        <time>2025-05-09T13:08:47Z</time>
      </trkpt>
      <trkpt lat="36.71854798682034" lon="-4.615313010290265">
        <ele>54.93</ele>
        <time>2025-05-09T13:08:59Z</time>
      </trkpt>
      <trkpt lat="36.719506038352847" lon="-4.611865030601621">
        <ele>60.700000000000003</ele>
        <time>2025-05-09T13:09:14Z</time>
      </trkpt>
      <trkpt lat="36.720340959727764" lon="-4.608348989859223">
        <ele>66.469999999999999</ele>
        <time>2025-05-09T13:09:29Z</time>
      </trkpt>
      <trkpt lat="36.720334002748132" lon="-4.606166006997228">
        <ele>65.510000000000005</ele>
        <time>2025-05-09T13:09:38Z</time>
      </trkpt>
      <trkpt lat="36.719870986416936" lon="-4.603753024712205">
        <ele>59.259999999999998</ele>
        <time>2025-05-09T13:09:48Z</time>
      </trkpt>
      <trkpt lat="36.719245025888085" lon="-4.600754985585809">
        <ele>51.090000000000003</ele>
        <time>2025-05-09T13:10:01Z</time>
      </trkpt>
      <trkpt lat="36.718596015125513" lon="-4.597370959818363">
        <ele>49.649999999999999</ele>
        <time>2025-05-09T13:10:15Z</time>
      </trkpt>
      <trkpt lat="36.718382025137544" lon="-4.594703000038862">
        <ele>47.240000000000002</ele>
        <time>2025-05-09T13:10:26Z</time>
      </trkpt>
      <trkpt lat="36.718459976837039" lon="-4.592293035238981">
        <ele>47.240000000000002</ele>
        <time>2025-05-09T13:10:36Z</time>
      </trkpt>
      <trkpt lat="36.718960963189602" lon="-4.589105984196067">
        <ele>40.030000000000001</ele>
        <time>2025-05-09T13:10:49Z</time>
      </trkpt>
      <trkpt lat="36.719710975885391" lon="-4.585299007594585">
        <ele>30.420000000000002</ele>
        <time>2025-05-09T13:11:05Z</time>
      </trkpt>
      <trkpt lat="36.720279017463326" lon="-4.58251403644681">
        <ele>29.940000000000001</ele>
        <time>2025-05-09T13:11:17Z</time>
      </trkpt>
      <trkpt lat="36.720958035439253" lon="-4.579104026779532">
        <ele>37.149999999999999</ele>
        <time>2025-05-09T13:11:31Z</time>
      </trkpt>
      <trkpt lat="36.721236985176802" lon="-4.57662901841104">
        <ele>37.149999999999999</ele>
        <time>2025-05-09T13:11:41Z</time>
      </trkpt>
      <trkpt lat="36.721035987138748" lon="-4.574389038607478">
        <ele>32.340000000000003</ele>
        <time>2025-05-09T13:11:50Z</time>
      </trkpt>
      <trkpt lat="36.720392005518079" lon="-4.572155009955168">
        <ele>31.379999999999999</ele>
        <time>2025-05-09T13:12:00Z</time>
      </trkpt>
      <trkpt lat="36.719354996457696" lon="-4.569235006347299">
        <ele>40.030000000000001</ele>
        <time>2025-05-09T13:12:13Z</time>
      </trkpt>
      <trkpt lat="36.718874964863062" lon="-4.567042971029878">
        <ele>45.32</ele>
        <time>2025-05-09T13:12:22Z</time>
      </trkpt>
      <trkpt lat="36.718533989042044" lon="-4.564166972413659">
        <ele>46.759999999999998</ele>
        <time>2025-05-09T13:12:34Z</time>
      </trkpt>
      <trkpt lat="36.718066027387977" lon="-4.561464982107282">
        <ele>43.880000000000003</ele>
        <time>2025-05-09T13:12:45Z</time>
      </trkpt>
      <trkpt lat="36.717289024963975" lon="-4.559235982596874">
        <ele>38.109999999999999</ele>
        <time>2025-05-09T13:12:55Z</time>
      </trkpt>
      <trkpt lat="36.716129975393414" lon="-4.55619896762073">
        <ele>26.09</ele>
        <time>2025-05-09T13:13:09Z</time>
      </trkpt>
      <trkpt lat="36.715673999860883" lon="-4.554592994973064">
        <ele>24.649999999999999</ele>
        <time>2025-05-09T13:13:16Z</time>
      </trkpt>
      <trkpt lat="36.714902026578784" lon="-4.551581041887403">
        <ele>26.09</ele>
        <time>2025-05-09T13:13:29Z</time>
      </trkpt>
      <trkpt lat="36.714102979749441" lon="-4.548425003886223">
        <ele>29.460000000000001</ele>
        <time>2025-05-09T13:13:42Z</time>
      </trkpt>
      <trkpt lat="36.713158003985882" lon="-4.544671000912786">
        <ele>30.420000000000002</ele>
        <time>2025-05-09T13:13:58Z</time>
      </trkpt>
      <trkpt lat="36.712332973256707" lon="-4.541430976241827">
        <ele>23.210000000000001</ele>
        <time>2025-05-09T13:14:12Z</time>
      </trkpt>
      <trkpt lat="36.711668036878109" lon="-4.538816995918751">
        <ele>20.809999999999999</ele>
        <time>2025-05-09T13:14:23Z</time>
      </trkpt>
      <trkpt lat="36.710970997810364" lon="-4.535532966256142">
        <ele>21.289999999999999</ele>
        <time>2025-05-09T13:14:37Z</time>
      </trkpt>
      <trkpt lat="36.710750972852111" lon="-4.532640958204866">
        <ele>21.77</ele>
        <time>2025-05-09T13:14:49Z</time>
      </trkpt>
      <trkpt lat="36.710863038897514" lon="-4.530314980074763">
        <ele>25.609999999999999</ele>
        <time>2025-05-09T13:14:59Z</time>
      </trkpt>
      <trkpt lat="36.711141988635063" lon="-4.527104962617159">
        <ele>31.379999999999999</ele>
        <time>2025-05-09T13:15:12Z</time>
      </trkpt>
      <trkpt lat="36.711364025250077" lon="-4.524605982005596">
        <ele>30.420000000000002</ele>
        <time>2025-05-09T13:15:22Z</time>
      </trkpt>
      <trkpt lat="36.711385985836387" lon="-4.522144971415401">
        <ele>29.460000000000001</ele>
        <time>2025-05-09T13:15:32Z</time>
      </trkpt>
      <trkpt lat="36.710945013910532" lon="-4.519691001623869">
        <ele>33.780000000000001</ele>
        <time>2025-05-09T13:15:42Z</time>
      </trkpt>
      <trkpt lat="36.710808975622058" lon="-4.517238037660718">
        <ele>35.229999999999997</ele>
        <time>2025-05-09T13:15:52Z</time>
      </trkpt>
      <trkpt lat="36.711107036098838" lon="-4.51479597017169">
        <ele>33.299999999999997</ele>
        <time>2025-05-09T13:16:02Z</time>
      </trkpt>
      <trkpt lat="36.711832992732525" lon="-4.511275989934802">
        <ele>30.899999999999999</ele>
        <time>2025-05-09T13:16:17Z</time>
      </trkpt>
      <trkpt lat="36.712322998791933" lon="-4.509027963504195">
        <ele>34.259999999999998</ele>
        <time>2025-05-09T13:16:27Z</time>
      </trkpt>
      <trkpt lat="36.712851980701089" lon="-4.506310969591141">
        <ele>38.109999999999999</ele>
        <time>2025-05-09T13:16:38Z</time>
      </trkpt>
      <trkpt lat="36.713219024240971" lon="-4.502883022651076">
        <ele>35.229999999999997</ele>
        <time>2025-05-09T13:16:52Z</time>
      </trkpt>
      <trkpt lat="36.713491016998887" lon="-4.499017959460616">
        <ele>37.149999999999999</ele>
        <time>2025-05-09T13:17:08Z</time>
      </trkpt>
      <trkpt lat="36.713707018643618" lon="-4.495965018868446">
        <ele>41.469999999999999</ele>
        <time>2025-05-09T13:17:21Z</time>
      </trkpt>
      <trkpt lat="36.713903993368149" lon="-4.492700016126037">
        <ele>48.200000000000003</ele>
        <time>2025-05-09T13:17:35Z</time>
      </trkpt>
      <trkpt lat="36.713963001966476" lon="-4.490528013557196">
        <ele>52.530000000000001</ele>
        <time>2025-05-09T13:17:45Z</time>
      </trkpt>
      <trkpt lat="36.71390600502491" lon="-4.487762991338968">
        <ele>58.299999999999997</ele>
        <time>2025-05-09T13:17:58Z</time>
      </trkpt>
      <trkpt lat="36.713926959782839" lon="-4.485465008765459">
        <ele>58.780000000000001</ele>
        <time>2025-05-09T13:18:08Z</time>
      </trkpt>
      <trkpt lat="36.713926959782839" lon="-4.483843026682735">
        <ele>54.450000000000003</ele>
        <time>2025-05-09T13:18:17Z</time>
      </trkpt>
      <trkpt lat="36.713926959782839" lon="-4.483359977602959">
        <ele>53.009999999999998</ele>
        <time>2025-05-09T13:18:22Z</time>
      </trkpt>
      <trkpt lat="36.713926959782839" lon="-4.483285965397954">
        <ele>52.530000000000001</ele>
        <time>2025-05-09T13:18:23Z</time>
      </trkpt>
      <trkpt lat="36.713912039995193" lon="-4.48314699344337">
        <ele>52.530000000000001</ele>
        <time>2025-05-09T13:18:24Z</time>
      </trkpt>
      <trkpt lat="36.713868035003543" lon="-4.483073987066746">
        <ele>52.049999999999997</ele>
        <time>2025-05-09T13:18:25Z</time>
      </trkpt>
      <trkpt lat="36.71386300586164" lon="-4.483066024258733">
        <ele>51.57</ele>
        <time>2025-05-09T13:18:26Z</time>
      </trkpt>
      <trkpt lat="36.713723028078675" lon="-4.482980025932193">
        <ele>51.090000000000003</ele>
        <time>2025-05-09T13:18:27Z</time>
      </trkpt>
      <trkpt lat="36.71367097645998" lon="-4.482980025932193">
        <ele>49.649999999999999</ele>
        <time>2025-05-09T13:18:28Z</time>
      </trkpt>
      <trkpt lat="36.713596964254975" lon="-4.482980025932193">
        <ele>48.200000000000003</ele>
        <time>2025-05-09T13:18:29Z</time>
      </trkpt>
      <trkpt lat="36.713506020605564" lon="-4.482980025932193">
        <ele>46.759999999999998</ele>
        <time>2025-05-09T13:18:30Z</time>
      </trkpt>
      <trkpt lat="36.712413020431995" lon="-4.482959993183613">
        <ele>44.840000000000003</ele>
        <time>2025-05-09T13:18:41Z</time>
      </trkpt>
      <trkpt lat="36.711781024932861" lon="-4.482980025932193">
        <ele>46.280000000000001</ele>
        <time>2025-05-09T13:18:48Z</time>
      </trkpt>
      <trkpt lat="36.711675999686122" lon="-4.482980025932193">
        <ele>46.280000000000001</ele>
        <time>2025-05-09T13:18:49Z</time>
      </trkpt>
      <trkpt lat="36.710557015612721" lon="-4.482937026768923">
        <ele>49.159999999999997</ele>
        <time>2025-05-09T13:18:59Z</time>
      </trkpt>
      <trkpt lat="36.710450984537601" lon="-4.482885980978608">
        <ele>49.649999999999999</ele>
        <time>2025-05-09T13:19:00Z</time>
      </trkpt>
      <trkpt lat="36.709352033212781" lon="-4.482334032654762">
        <ele>53.490000000000002</ele>
        <time>2025-05-09T13:19:10Z</time>
      </trkpt>
      <trkpt lat="36.709236027672887" lon="-4.482290027663112">
        <ele>53.490000000000002</ele>
        <time>2025-05-09T13:19:11Z</time>
      </trkpt>
      <trkpt lat="36.708714002743363" lon="-4.482162036001682">
        <ele>53.009999999999998</ele>
        <time>2025-05-09T13:19:18Z</time>
      </trkpt>
      <trkpt lat="36.708648959174752" lon="-4.482143009081483">
        <ele>52.530000000000001</ele>
        <time>2025-05-09T13:19:20Z</time>
      </trkpt>
      <trkpt lat="36.708541000261903" lon="-4.482315005734563">
        <ele>52.530000000000001</ele>
        <time>2025-05-09T13:19:21Z</time>
      </trkpt>
      <trkpt lat="36.708541000261903" lon="-4.482315005734563">
        <ele>52.530000000000001</ele>
        <time>2025-05-09T13:19:22Z</time>
      </trkpt>
      <trkpt lat="36.708491966128349" lon="-4.482344007119536">
        <ele>53.009999999999998</ele>
        <time>2025-05-09T13:19:23Z</time>
      </trkpt>
      <trkpt lat="36.708432035520673" lon="-4.482379965484142">
        <ele>53.009999999999998</ele>
        <time>2025-05-09T13:19:24Z</time>
      </trkpt>
      <trkpt lat="36.708374032750726" lon="-4.482415001839399">
        <ele>53.009999999999998</ele>
        <time>2025-05-09T13:19:25Z</time>
      </trkpt>
      <trkpt lat="36.70827898196876" lon="-4.482407039031386">
        <ele>53.490000000000002</ele>
        <time>2025-05-09T13:19:26Z</time>
      </trkpt>
      <trkpt lat="36.708216033875942" lon="-4.482360016554594">
        <ele>53.969999999999999</ele>
        <time>2025-05-09T13:19:27Z</time>
      </trkpt>
      <trkpt lat="36.708147972822189" lon="-4.482280975207686">
        <ele>54.450000000000003</ele>
        <time>2025-05-09T13:19:28Z</time>
      </trkpt>
      <trkpt lat="36.70812601223588" lon="-4.482181984931231">
        <ele>54.450000000000003</ele>
        <time>2025-05-09T13:19:29Z</time>
      </trkpt>
      <trkpt lat="36.708137998357415" lon="-4.482079977169633">
        <ele>54.450000000000003</ele>
        <time>2025-05-09T13:19:30Z</time>
      </trkpt>
      <trkpt lat="36.708183009177446" lon="-4.48200898244977">
        <ele>54.450000000000003</ele>
        <time>2025-05-09T13:19:31Z</time>
      </trkpt>
      <trkpt lat="36.708218967542052" lon="-4.481949973851442">
        <ele>53.969999999999999</ele>
        <time>2025-05-09T13:19:32Z</time>
      </trkpt>
      <trkpt lat="36.708218967542052" lon="-4.481949973851442">
        <ele>53.490000000000002</ele>
        <time>2025-05-09T13:19:33Z</time>
      </trkpt>
      <trkpt lat="36.708361962810159" lon="-4.481733972206712">
        <ele>53.009999999999998</ele>
        <time>2025-05-09T13:19:35Z</time>
      </trkpt>
      <trkpt lat="36.708369003608823" lon="-4.481660965830088">
        <ele>52.530000000000001</ele>
        <time>2025-05-09T13:19:36Z</time>
      </trkpt>
      <trkpt lat="36.708348970860243" lon="-4.48147295974195">
        <ele>51.57</ele>
        <time>2025-05-09T13:19:38Z</time>
      </trkpt>
      <trkpt lat="36.708338996395469" lon="-4.48138696141541">
        <ele>51.090000000000003</ele>
        <time>2025-05-09T13:19:39Z</time>
      </trkpt>
      <trkpt lat="36.708327010273933" lon="-4.481289982795715">
        <ele>50.609999999999999</ele>
        <time>2025-05-09T13:19:40Z</time>
      </trkpt>
      <trkpt lat="36.708150990307331" lon="-4.480371996760368">
        <ele>45.799999999999997</ele>
        <time>2025-05-09T13:19:50Z</time>
      </trkpt>
      <trkpt lat="36.707754023373127" lon="-4.479158967733383">
        <ele>42.920000000000002</ele>
        <time>2025-05-09T13:20:01Z</time>
      </trkpt>
      <trkpt lat="36.707666013389826" lon="-4.478493025526404">
        <ele>42.920000000000002</ele>
        <time>2025-05-09T13:20:06Z</time>
      </trkpt>
      <trkpt lat="36.707640029489994" lon="-4.478087006136775">
        <ele>41.469999999999999</ele>
        <time>2025-05-09T13:20:12Z</time>
      </trkpt>
      <trkpt lat="36.707640029489994" lon="-4.47801299393177">
        <ele>40.990000000000002</ele>
        <time>2025-05-09T13:20:21Z</time>
      </trkpt>
      <trkpt lat="36.707640029489994" lon="-4.47801299393177">
        <ele>40.030000000000001</ele>
        <time>2025-05-09T13:20:40Z</time>
      </trkpt>
      <trkpt lat="36.707640029489994" lon="-4.47801299393177">
        <ele>39.07</ele>
        <time>2025-05-09T13:20:58Z</time>
      </trkpt>
      <trkpt lat="36.707640029489994" lon="-4.478087006136775">
        <ele>37.630000000000003</ele>
        <time>2025-05-09T13:21:05Z</time>
      </trkpt>
      <trkpt lat="36.707475995644927" lon="-4.478049036115408">
        <ele>34.259999999999998</ele>
        <time>2025-05-09T13:21:13Z</time>
      </trkpt>
      <trkpt lat="36.706897979602218" lon="-4.477758016437292">
        <ele>71.760000000000005</ele>
        <time>2025-05-09T13:26:03Z</time>
      </trkpt>
      <trkpt lat="36.706966040655971" lon="-4.477736977860332">
        <ele>61.18</ele>
        <time>2025-05-09T13:26:27Z</time>
      </trkpt>
      <trkpt lat="36.706839976832271" lon="-4.477704036980867">
        <ele>59.259999999999998</ele>
        <time>2025-05-09T13:27:00Z</time>
      </trkpt>
      <trkpt lat="36.706791026517749" lon="-4.477703031152487">
        <ele>55.409999999999997</ele>
        <time>2025-05-09T13:27:30Z</time>
      </trkpt>
      <trkpt lat="36.706753978505731" lon="-4.477716023102403">
        <ele>54.93</ele>
        <time>2025-05-09T13:27:38Z</time>
      </trkpt>
      <trkpt lat="36.706754984334111" lon="-4.477746030315757">
        <ele>54.93</ele>
        <time>2025-05-09T13:27:57Z</time>
      </trkpt>
      <trkpt lat="36.706754984334111" lon="-4.477746030315757">
        <ele>54.93</ele>
        <time>2025-05-09T13:28:20Z</time>
      </trkpt>
      <trkpt lat="36.706756995990872" lon="-4.47775399312377">
        <ele>53.969999999999999</ele>
        <time>2025-05-09T13:29:09Z</time>
      </trkpt>
      <trkpt lat="36.706764036789536" lon="-4.477751981467009">
        <ele>53.969999999999999</ele>
        <time>2025-05-09T13:30:02Z</time>
      </trkpt>
      <trkpt lat="36.706760013476014" lon="-4.477742007002235">
        <ele>53.490000000000002</ele>
        <time>2025-05-09T13:30:29Z</time>
      </trkpt>
      <trkpt lat="36.706747021526098" lon="-4.477374963462353">
        <ele>50.609999999999999</ele>
        <time>2025-05-09T13:30:34Z</time>
      </trkpt>
      <trkpt lat="36.706721037626266" lon="-4.47730497457087">
        <ele>50.130000000000003</ele>
        <time>2025-05-09T13:30:35Z</time>
      </trkpt>
      <trkpt lat="36.706634033471346" lon="-4.477076986804605">
        <ele>48.68</ele>
        <time>2025-05-09T13:30:38Z</time>
      </trkpt>
      <trkpt lat="36.706237988546491" lon="-4.476038971915841">
        <ele>42.439999999999998</ele>
        <time>2025-05-09T13:30:51Z</time>
      </trkpt>
      <trkpt lat="36.706218039616942" lon="-4.475987004116178">
        <ele>42.439999999999998</ele>
        <time>2025-05-09T13:30:52Z</time>
      </trkpt>
      <trkpt lat="36.706200018525124" lon="-4.475940987467766">
        <ele>41.950000000000003</ele>
        <time>2025-05-09T13:30:53Z</time>
      </trkpt>
      <trkpt lat="36.706186020746827" lon="-4.47590502910316">
        <ele>40.990000000000002</ele>
        <time>2025-05-09T13:30:54Z</time>
      </trkpt>
      <trkpt lat="36.706175962463021" lon="-4.475878039374948">
        <ele>40.509999999999998</ele>
        <time>2025-05-09T13:30:55Z</time>
      </trkpt>
      <trkpt lat="36.706175962463021" lon="-4.475878039374948">
        <ele>40.030000000000001</ele>
        <time>2025-05-09T13:31:06Z</time>
      </trkpt>
      <trkpt lat="36.706241006031632" lon="-4.475782988592982">
        <ele>38.590000000000003</ele>
        <time>2025-05-09T13:31:12Z</time>
      </trkpt>
      <trkpt lat="36.706289034336805" lon="-4.475752981379628">
        <ele>38.109999999999999</ele>
        <time>2025-05-09T13:31:13Z</time>
      </trkpt>
      <trkpt lat="36.706899991258979" lon="-4.475383004173636">
        <ele>36.189999999999998</ele>
        <time>2025-05-09T13:31:21Z</time>
      </trkpt>
      <trkpt lat="36.7072459962219" lon="-4.47519700974226">
        <ele>35.710000000000001</ele>
        <time>2025-05-09T13:31:25Z</time>
      </trkpt>
      <trkpt lat="36.707296958193183" lon="-4.475169014185667">
        <ele>36.189999999999998</ele>
        <time>2025-05-09T13:31:26Z</time>
      </trkpt>
      <trkpt lat="36.707358984276652" lon="-4.475177982822061">
        <ele>36.670000000000002</ele>
        <time>2025-05-09T13:31:27Z</time>
      </trkpt>
      <trkpt lat="36.707427967339754" lon="-4.475188041105866">
        <ele>36.670000000000002</ele>
        <time>2025-05-09T13:31:28Z</time>
      </trkpt>
      <trkpt lat="36.707453029230237" lon="-4.475218970328569">
        <ele>37.149999999999999</ele>
        <time>2025-05-09T13:31:29Z</time>
      </trkpt>
      <trkpt lat="36.707471972331405" lon="-4.47530304081738">
        <ele>37.149999999999999</ele>
        <time>2025-05-09T13:31:30Z</time>
      </trkpt>
      <trkpt lat="36.707493010908365" lon="-4.475399013608694">
        <ele>37.149999999999999</ele>
        <time>2025-05-09T13:31:31Z</time>
      </trkpt>
      <trkpt lat="36.707638017833233" lon="-4.475471014156938">
        <ele>37.149999999999999</ele>
        <time>2025-05-09T13:31:32Z</time>
      </trkpt>
      <trkpt lat="36.707661990076303" lon="-4.475587019696832">
        <ele>37.630000000000003</ele>
        <time>2025-05-09T13:31:33Z</time>
      </trkpt>
      <trkpt lat="36.707798028364778" lon="-4.476241981610656">
        <ele>40.509999999999998</ele>
        <time>2025-05-09T13:31:41Z</time>
      </trkpt>
      <trkpt lat="36.707834992557764" lon="-4.476447002962232">
        <ele>41.950000000000003</ele>
        <time>2025-05-09T13:31:49Z</time>
      </trkpt>
      <trkpt lat="36.707851001992822" lon="-4.476698962971568">
        <ele>42.920000000000002</ele>
        <time>2025-05-09T13:31:59Z</time>
      </trkpt>
      <trkpt lat="36.707884026691318" lon="-4.477212019264698">
        <ele>43.399999999999999</ele>
        <time>2025-05-09T13:32:10Z</time>
      </trkpt>
      <trkpt lat="36.70789098367095" lon="-4.47732400149107">
        <ele>42.920000000000002</ele>
        <time>2025-05-09T13:32:13Z</time>
      </trkpt>
      <trkpt lat="36.707937000319362" lon="-4.477412011474371">
        <ele>42.439999999999998</ele>
        <time>2025-05-09T13:32:14Z</time>
      </trkpt>
      <trkpt lat="36.707972036674619" lon="-4.477403964847326">
        <ele>42.439999999999998</ele>
        <time>2025-05-09T13:32:15Z</time>
      </trkpt>
      <trkpt lat="36.708016041666269" lon="-4.477392984554172">
        <ele>41.950000000000003</ele>
        <time>2025-05-09T13:32:16Z</time>
      </trkpt>
      <trkpt lat="36.708071026951075" lon="-4.477378986775875">
        <ele>41.950000000000003</ele>
        <time>2025-05-09T13:32:17Z</time>
      </trkpt>
      <trkpt lat="36.708129029721022" lon="-4.477364988997579">
        <ele>41.950000000000003</ele>
        <time>2025-05-09T13:32:18Z</time>
      </trkpt>
      <trkpt lat="36.708911983296275" lon="-4.477116968482733">
        <ele>40.509999999999998</ele>
        <time>2025-05-09T13:32:28Z</time>
      </trkpt>
      <trkpt lat="36.709711030125618" lon="-4.476856039837003">
        <ele>38.590000000000003</ele>
        <time>2025-05-09T13:32:35Z</time>
      </trkpt>
      <trkpt lat="36.710675032809377" lon="-4.476580023765564">
        <ele>35.710000000000001</ele>
        <time>2025-05-09T13:32:44Z</time>
      </trkpt>
      <trkpt lat="36.711851013824344" lon="-4.476389000192285">
        <ele>33.299999999999997</ele>
        <time>2025-05-09T13:32:55Z</time>
      </trkpt>
      <trkpt lat="36.712966980412602" lon="-4.476382965222001">
        <ele>37.630000000000003</ele>
        <time>2025-05-09T13:33:04Z</time>
      </trkpt>
      <trkpt lat="36.71354197897017" lon="-4.476392017677426">
        <ele>40.030000000000001</ele>
        <time>2025-05-09T13:33:11Z</time>
      </trkpt>
      <trkpt lat="36.713628983125091" lon="-4.476392017677426">
        <ele>39.549999999999997</ele>
        <time>2025-05-09T13:33:14Z</time>
      </trkpt>
      <trkpt lat="36.71364801004529" lon="-4.476392017677426">
        <ele>39.549999999999997</ele>
        <time>2025-05-09T13:33:15Z</time>
      </trkpt>
      <trkpt lat="36.71364801004529" lon="-4.476392017677426">
        <ele>39.07</ele>
        <time>2025-05-09T13:33:26Z</time>
      </trkpt>
      <trkpt lat="36.713717998936772" lon="-4.476239969953895">
        <ele>39.07</ele>
        <time>2025-05-09T13:33:41Z</time>
      </trkpt>
      <trkpt lat="36.713710036128759" lon="-4.476159000769258">
        <ele>39.07</ele>
        <time>2025-05-09T13:33:42Z</time>
      </trkpt>
      <trkpt lat="36.71360501088202" lon="-4.475121991708875">
        <ele>38.109999999999999</ele>
        <time>2025-05-09T13:33:50Z</time>
      </trkpt>
      <trkpt lat="36.713551031425595" lon="-4.474547998979688">
        <ele>37.630000000000003</ele>
        <time>2025-05-09T13:33:57Z</time>
      </trkpt>
      <trkpt lat="36.713470984250307" lon="-4.474440040066838">
        <ele>37.630000000000003</ele>
        <time>2025-05-09T13:33:58Z</time>
      </trkpt>
      <trkpt lat="36.713423961773515" lon="-4.474440040066838">
        <ele>38.109999999999999</ele>
        <time>2025-05-09T13:33:59Z</time>
      </trkpt>
      <trkpt lat="36.71336998231709" lon="-4.474440040066838">
        <ele>38.109999999999999</ele>
        <time>2025-05-09T13:34:00Z</time>
      </trkpt>
      <trkpt lat="36.713308040052652" lon="-4.474440040066838">
        <ele>38.109999999999999</ele>
        <time>2025-05-09T13:34:01Z</time>
      </trkpt>
      <trkpt lat="36.712773023173213" lon="-4.474440040066838">
        <ele>38.590000000000003</ele>
        <time>2025-05-09T13:34:10Z</time>
      </trkpt>
      <trkpt lat="36.712753996253014" lon="-4.474440040066838">
        <ele>38.590000000000003</ele>
        <time>2025-05-09T13:34:11Z</time>
      </trkpt>
      <trkpt lat="36.712683001533151" lon="-4.474440040066838">
        <ele>39.07</ele>
        <time>2025-05-09T13:34:12Z</time>
      </trkpt>
      <trkpt lat="36.712683001533151" lon="-4.474440040066838">
        <ele>39.07</ele>
        <time>2025-05-09T13:34:28Z</time>
      </trkpt>
      <trkpt lat="36.712683001533151" lon="-4.474440040066838">
        <ele>39.549999999999997</ele>
        <time>2025-05-09T13:34:29Z</time>
      </trkpt>
      <trkpt lat="36.712649976834655" lon="-4.474440040066838">
        <ele>39.549999999999997</ele>
        <time>2025-05-09T13:34:37Z</time>
      </trkpt>
      <trkpt lat="36.712620975449681" lon="-4.474440962076187">
        <ele>39.07</ele>
        <time>2025-05-09T13:34:38Z</time>
      </trkpt>
      <trkpt lat="36.712580993771553" lon="-4.474441967904568">
        <ele>39.07</ele>
        <time>2025-05-09T13:34:39Z</time>
      </trkpt>
      <trkpt lat="36.712448978796601" lon="-4.47444599121809">
        <ele>40.030000000000001</ele>
        <time>2025-05-09T13:34:49Z</time>
      </trkpt>
      <trkpt lat="36.71231503598392" lon="-4.474734999239445">
        <ele>52.049999999999997</ele>
        <time>2025-05-09T16:06:05Z</time>
      </trkpt>
      <trkpt lat="36.712426012381911" lon="-4.474612958729267">
        <ele>43.399999999999999</ele>
        <time>2025-05-09T16:06:26Z</time>
      </trkpt>
      <trkpt lat="36.712359040975571" lon="-4.474448002874851">
        <ele>41.469999999999999</ele>
        <time>2025-05-09T16:06:31Z</time>
      </trkpt>
      <trkpt lat="36.71162998303771" lon="-4.474460994824767">
        <ele>36.189999999999998</ele>
        <time>2025-05-09T16:06:43Z</time>
      </trkpt>
      <trkpt lat="36.711576003581285" lon="-4.474460994824767">
        <ele>35.710000000000001</ele>
        <time>2025-05-09T16:06:44Z</time>
      </trkpt>
      <trkpt lat="36.711146011948586" lon="-4.474460994824767">
        <ele>31.379999999999999</ele>
        <time>2025-05-09T16:06:54Z</time>
      </trkpt>
      <trkpt lat="36.711044004186988" lon="-4.474575994536281">
        <ele>30.899999999999999</ele>
        <time>2025-05-09T16:06:55Z</time>
      </trkpt>
      <trkpt lat="36.711051966995001" lon="-4.474641038104892">
        <ele>29.940000000000001</ele>
        <time>2025-05-09T16:06:56Z</time>
      </trkpt>
      <trkpt lat="36.711105024442077" lon="-4.475089972838759">
        <ele>26.57</ele>
        <time>2025-05-09T16:07:03Z</time>
      </trkpt>
      <trkpt lat="36.711111981421709" lon="-4.475147975608707">
        <ele>26.09</ele>
        <time>2025-05-09T16:07:04Z</time>
      </trkpt>
      <trkpt lat="36.711124973371625" lon="-4.475255012512207">
        <ele>25.129999999999999</ele>
        <time>2025-05-09T16:07:06Z</time>
      </trkpt>
      <trkpt lat="36.711130002513528" lon="-4.475299017503858">
        <ele>24.649999999999999</ele>
        <time>2025-05-09T16:07:07Z</time>
      </trkpt>
      <trkpt lat="36.711136037483811" lon="-4.475344028323889">
        <ele>24.170000000000002</ele>
        <time>2025-05-09T16:07:08Z</time>
      </trkpt>
      <trkpt lat="36.711261011660099" lon="-4.475361965596676">
        <ele>24.170000000000002</ele>
        <time>2025-05-09T16:07:09Z</time>
      </trkpt>
      <trkpt lat="36.711295964196324" lon="-4.475361965596676">
        <ele>23.690000000000001</ele>
        <time>2025-05-09T16:07:10Z</time>
      </trkpt>
      <trkpt lat="36.711350027471781" lon="-4.475361965596676">
        <ele>23.210000000000001</ele>
        <time>2025-05-09T16:07:11Z</time>
      </trkpt>
      <trkpt lat="36.711420016363263" lon="-4.475361965596676">
        <ele>22.73</ele>
        <time>2025-05-09T16:07:12Z</time>
      </trkpt>
      <trkpt lat="36.712069027125835" lon="-4.475361965596676">
        <ele>20.32</ele>
        <time>2025-05-09T16:07:20Z</time>
      </trkpt>
      <trkpt lat="36.712963962927461" lon="-4.475361965596676">
        <ele>21.289999999999999</ele>
        <time>2025-05-09T16:07:31Z</time>
      </trkpt>
      <trkpt lat="36.713363025337458" lon="-4.475361965596676">
        <ele>25.609999999999999</ele>
        <time>2025-05-09T16:07:36Z</time>
      </trkpt>
      <trkpt lat="36.713420022279024" lon="-4.475361965596676">
        <ele>26.57</ele>
        <time>2025-05-09T16:07:37Z</time>
      </trkpt>
      <trkpt lat="36.713466038927436" lon="-4.475361965596676">
        <ele>27.050000000000001</ele>
        <time>2025-05-09T16:07:38Z</time>
      </trkpt>
      <trkpt lat="36.7134989798069" lon="-4.475361965596676">
        <ele>27.530000000000001</ele>
        <time>2025-05-09T16:07:39Z</time>
      </trkpt>
      <trkpt lat="36.713518006727099" lon="-4.475361965596676">
        <ele>28.5</ele>
        <time>2025-05-09T16:07:40Z</time>
      </trkpt>
      <trkpt lat="36.71354197897017" lon="-4.475361965596676">
        <ele>32.340000000000003</ele>
        <time>2025-05-09T16:07:52Z</time>
      </trkpt>
      <trkpt lat="36.713618002831936" lon="-4.475269010290504">
        <ele>33.299999999999997</ele>
        <time>2025-05-09T16:07:54Z</time>
      </trkpt>
      <trkpt lat="36.713616997003555" lon="-4.475254006683826">
        <ele>33.780000000000001</ele>
        <time>2025-05-09T16:07:55Z</time>
      </trkpt>
      <trkpt lat="36.713614985346794" lon="-4.475236991420388">
        <ele>34.740000000000002</ele>
        <time>2025-05-09T16:07:56Z</time>
      </trkpt>
      <trkpt lat="36.713613979518414" lon="-4.475218970328569">
        <ele>35.229999999999997</ele>
        <time>2025-05-09T16:07:57Z</time>
      </trkpt>
      <trkpt lat="36.713611967861652" lon="-4.475199021399021">
        <ele>35.229999999999997</ele>
        <time>2025-05-09T16:07:58Z</time>
      </trkpt>
      <trkpt lat="36.713565029203892" lon="-4.474698035046458">
        <ele>38.109999999999999</ele>
        <time>2025-05-09T16:08:12Z</time>
      </trkpt>
      <trkpt lat="36.713548013940454" lon="-4.474514974281192">
        <ele>37.630000000000003</ele>
        <time>2025-05-09T16:08:22Z</time>
      </trkpt>
      <trkpt lat="36.713547008112073" lon="-4.474499970674515">
        <ele>37.630000000000003</ele>
        <time>2025-05-09T16:08:36Z</time>
      </trkpt>
      <trkpt lat="36.713543990626931" lon="-4.474473986774683">
        <ele>37.630000000000003</ele>
        <time>2025-05-09T16:08:37Z</time>
      </trkpt>
      <trkpt lat="36.713540973141789" lon="-4.474440040066838">
        <ele>37.630000000000003</ele>
        <time>2025-05-09T16:08:38Z</time>
      </trkpt>
      <trkpt lat="36.713537033647299" lon="-4.47440198622644">
        <ele>37.630000000000003</ele>
        <time>2025-05-09T16:08:39Z</time>
      </trkpt>
      <trkpt lat="36.713532004505396" lon="-4.474362004548311">
        <ele>37.630000000000003</ele>
        <time>2025-05-09T16:08:40Z</time>
      </trkpt>
      <trkpt lat="36.713513983413577" lon="-4.47420702315867">
        <ele>36.670000000000002</ele>
        <time>2025-05-09T16:08:49Z</time>
      </trkpt>
      <trkpt lat="36.713513983413577" lon="-4.47420702315867">
        <ele>36.670000000000002</ele>
        <time>2025-05-09T16:09:04Z</time>
      </trkpt>
      <trkpt lat="36.713481964543462" lon="-4.473922960460186">
        <ele>34.740000000000002</ele>
        <time>2025-05-09T16:09:19Z</time>
      </trkpt>
      <trkpt lat="36.713480036705732" lon="-4.47390703484416">
        <ele>34.259999999999998</ele>
        <time>2025-05-09T16:09:35Z</time>
      </trkpt>
      <trkpt lat="36.713466038927436" lon="-4.473784994333983">
        <ele>33.780000000000001</ele>
        <time>2025-05-09T16:09:45Z</time>
      </trkpt>
      <trkpt lat="36.713437037542462" lon="-4.473441001027823">
        <ele>35.710000000000001</ele>
        <time>2025-05-09T16:09:59Z</time>
      </trkpt>
      <trkpt lat="36.713428990915418" lon="-4.473381992429495">
        <ele>36.189999999999998</ele>
        <time>2025-05-09T16:10:00Z</time>
      </trkpt>
      <trkpt lat="36.713305022567511" lon="-4.473148975521326">
        <ele>36.189999999999998</ele>
        <time>2025-05-09T16:10:05Z</time>
      </trkpt>
      <trkpt lat="36.713305022567511" lon="-4.473067000508308">
        <ele>36.189999999999998</ele>
        <time>2025-05-09T16:10:06Z</time>
      </trkpt>
      <trkpt lat="36.713334023952484" lon="-4.472922999411821">
        <ele>36.189999999999998</ele>
        <time>2025-05-09T16:10:07Z</time>
      </trkpt>
      <trkpt lat="36.713388003408909" lon="-4.472856028005481">
        <ele>36.189999999999998</ele>
        <time>2025-05-09T16:10:08Z</time>
      </trkpt>
      <trkpt lat="36.713454974815249" lon="-4.472809005528688">
        <ele>36.189999999999998</ele>
        <time>2025-05-09T16:10:09Z</time>
      </trkpt>
      <trkpt lat="36.713540973141789" lon="-4.472786961123347">
        <ele>36.189999999999998</ele>
        <time>2025-05-09T16:10:10Z</time>
      </trkpt>
      <trkpt lat="36.713623031973839" lon="-4.472803976386786">
        <ele>35.710000000000001</ele>
        <time>2025-05-09T16:10:11Z</time>
      </trkpt>
      <trkpt lat="36.71364801004529" lon="-4.472809005528688">
        <ele>37.630000000000003</ele>
        <time>2025-05-09T16:10:12Z</time>
      </trkpt>
      <trkpt lat="36.713677011430264" lon="-4.472837001085281">
        <ele>39.07</ele>
        <time>2025-05-09T16:10:13Z</time>
      </trkpt>
      <trkpt lat="36.713712969794869" lon="-4.472872959449887">
        <ele>40.509999999999998</ele>
        <time>2025-05-09T16:10:14Z</time>
      </trkpt>
      <trkpt lat="36.713712969794869" lon="-4.472872959449887">
        <ele>40.990000000000002</ele>
        <time>2025-05-09T16:10:15Z</time>
      </trkpt>
      <trkpt lat="36.714196018874645" lon="-4.473360031843185">
        <ele>44.359999999999999</ele>
        <time>2025-05-09T16:10:20Z</time>
      </trkpt>
      <trkpt lat="36.714302971959114" lon="-4.473422979936004">
        <ele>45.32</ele>
        <time>2025-05-09T16:10:21Z</time>
      </trkpt>
      <trkpt lat="36.714414032176137" lon="-4.473488023504615">
        <ele>46.280000000000001</ele>
        <time>2025-05-09T16:10:22Z</time>
      </trkpt>
      <trkpt lat="36.714516961947083" lon="-4.473563041538">
        <ele>47.719999999999999</ele>
        <time>2025-05-09T16:10:23Z</time>
      </trkpt>
      <trkpt lat="36.714626010507345" lon="-4.473655996844173">
        <ele>49.159999999999997</ele>
        <time>2025-05-09T16:10:24Z</time>
      </trkpt>
      <trkpt lat="36.714730029925704" lon="-4.473744006827474">
        <ele>50.130000000000003</ele>
        <time>2025-05-09T16:10:25Z</time>
      </trkpt>
      <trkpt lat="36.715118028223515" lon="-4.474075008183718">
        <ele>54.450000000000003</ele>
        <time>2025-05-09T16:10:29Z</time>
      </trkpt>
      <trkpt lat="36.715214001014829" lon="-4.47416502982378">
        <ele>54.93</ele>
        <time>2025-05-09T16:10:30Z</time>
      </trkpt>
      <trkpt lat="36.715301005169749" lon="-4.474271982908249">
        <ele>55.890000000000001</ele>
        <time>2025-05-09T16:10:31Z</time>
      </trkpt>
      <trkpt lat="36.71538800932467" lon="-4.47437901981175">
        <ele>56.369999999999997</ele>
        <time>2025-05-09T16:10:32Z</time>
      </trkpt>
      <trkpt lat="36.715476019307971" lon="-4.47448798455298">
        <ele>57.340000000000003</ele>
        <time>2025-05-09T16:10:33Z</time>
      </trkpt>
      <trkpt lat="36.71556101180613" lon="-4.474593009799719">
        <ele>58.299999999999997</ele>
        <time>2025-05-09T16:10:34Z</time>
      </trkpt>
      <trkpt lat="36.71618496067822" lon="-4.475407982245088">
        <ele>62.619999999999997</ele>
        <time>2025-05-09T16:10:43Z</time>
      </trkpt>
      <trkpt lat="36.716260984539986" lon="-4.475504960864782">
        <ele>64.069999999999993</ele>
        <time>2025-05-09T16:10:51Z</time>
      </trkpt>
      <trkpt lat="36.716438010334969" lon="-4.475731020793319">
        <ele>65.989999999999995</ele>
        <time>2025-05-09T16:11:05Z</time>
      </trkpt>
      <trkpt lat="36.716758031398058" lon="-4.4759910274297">
        <ele>67.909999999999997</ele>
        <time>2025-05-09T16:11:09Z</time>
      </trkpt>
      <trkpt lat="36.716816034168005" lon="-4.476028997451067">
        <ele>67.909999999999997</ele>
        <time>2025-05-09T16:11:10Z</time>
      </trkpt>
      <trkpt lat="36.716860961169004" lon="-4.476059004664421">
        <ele>68.390000000000001</ele>
        <time>2025-05-09T16:11:11Z</time>
      </trkpt>
      <trkpt lat="36.716981995850801" lon="-4.476127987727523">
        <ele>67.909999999999997</ele>
        <time>2025-05-09T16:11:13Z</time>
      </trkpt>
      <trkpt lat="36.717061959207058" lon="-4.476161012426019">
        <ele>67.909999999999997</ele>
        <time>2025-05-09T16:11:14Z</time>
      </trkpt>
      <trkpt lat="36.717232028022408" lon="-4.476049030199647">
        <ele>68.390000000000001</ele>
        <time>2025-05-09T16:11:15Z</time>
      </trkpt>
      <trkpt lat="36.717232028022408" lon="-4.476049030199647">
        <ele>69.349999999999994</ele>
        <time>2025-05-09T16:11:17Z</time>
      </trkpt>
      <trkpt lat="36.717381980270147" lon="-4.476221026852727">
        <ele>69.349999999999994</ele>
        <time>2025-05-09T16:11:19Z</time>
      </trkpt>
      <trkpt lat="36.717502009123564" lon="-4.476251034066081">
        <ele>69.829999999999998</ele>
        <time>2025-05-09T16:11:21Z</time>
      </trkpt>
      <trkpt lat="36.717567974701524" lon="-4.476265031844378">
        <ele>69.829999999999998</ele>
        <time>2025-05-09T16:11:22Z</time>
      </trkpt>
      <trkpt lat="36.717627989128232" lon="-4.476270982995629">
        <ele>69.829999999999998</ele>
        <time>2025-05-09T16:11:23Z</time>
      </trkpt>
      <trkpt lat="36.717684986069798" lon="-4.476277017965913">
        <ele>69.829999999999998</ele>
        <time>2025-05-09T16:11:24Z</time>
      </trkpt>
      <trkpt lat="36.717746006324887" lon="-4.476282969117165">
        <ele>69.829999999999998</ele>
        <time>2025-05-09T16:11:25Z</time>
      </trkpt>
      <trkpt lat="36.718039037659764" lon="-4.476284980773926">
        <ele>69.829999999999998</ele>
        <time>2025-05-09T16:11:30Z</time>
      </trkpt>
      <trkpt lat="36.718887034803629" lon="-4.476068979129195">
        <ele>70.790000000000006</ele>
        <time>2025-05-09T16:11:39Z</time>
      </trkpt>
      <trkpt lat="36.719123991206288" lon="-4.475953979417682">
        <ele>69.829999999999998</ele>
        <time>2025-05-09T16:11:42Z</time>
      </trkpt>
      <trkpt lat="36.719225998967886" lon="-4.475880973041058">
        <ele>69.349999999999994</ele>
        <time>2025-05-09T16:11:43Z</time>
      </trkpt>
      <trkpt lat="36.720009036362171" lon="-4.475163985043764">
        <ele>69.349999999999994</ele>
        <time>2025-05-09T16:11:52Z</time>
      </trkpt>
      <trkpt lat="36.720398040488362" lon="-4.474895009770989">
        <ele>70.790000000000006</ele>
        <time>2025-05-09T16:11:58Z</time>
      </trkpt>
      <trkpt lat="36.720556961372495" lon="-4.474815968424082">
        <ele>72.719999999999999</ele>
        <time>2025-05-09T16:12:06Z</time>
      </trkpt>
      <trkpt lat="36.720629967749119" lon="-4.474785961210728">
        <ele>75.599999999999994</ele>
        <time>2025-05-09T16:12:15Z</time>
      </trkpt>
      <trkpt lat="36.720772041007876" lon="-4.474589992314577">
        <ele>77.519999999999996</ele>
        <time>2025-05-09T16:12:18Z</time>
      </trkpt>
      <trkpt lat="36.720772041007876" lon="-4.474589992314577">
        <ele>77.519999999999996</ele>
        <time>2025-05-09T16:12:19Z</time>
      </trkpt>
      <trkpt lat="36.720798024907708" lon="-4.474556967616081">
        <ele>78</ele>
        <time>2025-05-09T16:12:20Z</time>
      </trkpt>
      <trkpt lat="36.72084404155612" lon="-4.474499970674515">
        <ele>78.480000000000004</ele>
        <time>2025-05-09T16:12:21Z</time>
      </trkpt>
      <trkpt lat="36.720891986042261" lon="-4.474474992603064">
        <ele>78.480000000000004</ele>
        <time>2025-05-09T16:12:22Z</time>
      </trkpt>
      <trkpt lat="36.720942026004195" lon="-4.474464012309909">
        <ele>78.969999999999999</ele>
        <time>2025-05-09T16:12:23Z</time>
      </trkpt>
      <trkpt lat="36.720988964661956" lon="-4.474454037845135">
        <ele>78.969999999999999</ele>
        <time>2025-05-09T16:12:24Z</time>
      </trkpt>
      <trkpt lat="36.721051996573806" lon="-4.474440962076187">
        <ele>78.480000000000004</ele>
        <time>2025-05-09T16:12:25Z</time>
      </trkpt>
      <trkpt lat="36.721050990745425" lon="-4.474440040066838">
        <ele>78</ele>
        <time>2025-05-09T16:12:26Z</time>
      </trkpt>
      <trkpt lat="36.721050990745425" lon="-4.474440040066838">
        <ele>77.040000000000006</ele>
        <time>2025-05-09T16:12:28Z</time>
      </trkpt>
      <trkpt lat="36.721089966595173" lon="-4.474485972896218">
        <ele>77.040000000000006</ele>
        <time>2025-05-09T16:12:33Z</time>
      </trkpt>
      <trkpt lat="36.721115028485656" lon="-4.474515980109572">
        <ele>76.560000000000002</ele>
        <time>2025-05-09T16:12:34Z</time>
      </trkpt>
      <trkpt lat="36.721347039565444" lon="-4.474697029218078">
        <ele>75.599999999999994</ele>
        <time>2025-05-09T16:12:45Z</time>
      </trkpt>
      <trkpt lat="36.721674017608166" lon="-4.474679008126259">
        <ele>74.159999999999997</ele>
        <time>2025-05-09T16:12:52Z</time>
      </trkpt>
      <trkpt lat="36.721937041729689" lon="-4.474675990641117">
        <ele>73.200000000000003</ele>
        <time>2025-05-09T16:12:56Z</time>
      </trkpt>
      <trkpt lat="36.722638020291924" lon="-4.474632991477847">
        <ele>73.200000000000003</ele>
        <time>2025-05-09T16:13:05Z</time>
      </trkpt>
      <trkpt lat="36.722914036363363" lon="-4.474618993699551">
        <ele>72.719999999999999</ele>
        <time>2025-05-09T16:13:09Z</time>
      </trkpt>
      <trkpt lat="36.722982013598084" lon="-4.474611030891538">
        <ele>72.719999999999999</ele>
        <time>2025-05-09T16:13:10Z</time>
      </trkpt>
      <trkpt lat="36.723084021359682" lon="-4.474611030891538">
        <ele>73.200000000000003</ele>
        <time>2025-05-09T16:13:12Z</time>
      </trkpt>
      <trkpt lat="36.723154010251164" lon="-4.474611030891538">
        <ele>73.680000000000007</ele>
        <time>2025-05-09T16:13:13Z</time>
      </trkpt>
      <trkpt lat="36.723157027736306" lon="-4.474641960114241">
        <ele>75.599999999999994</ele>
        <time>2025-05-09T16:13:15Z</time>
      </trkpt>
      <trkpt lat="36.723160967230797" lon="-4.474680013954639">
        <ele>75.599999999999994</ele>
        <time>2025-05-09T16:13:16Z</time>
      </trkpt>
      <trkpt lat="36.723163984715939" lon="-4.474709015339613">
        <ele>75.599999999999994</ele>
        <time>2025-05-09T16:13:17Z</time>
      </trkpt>
      <trkpt lat="36.723163984715939" lon="-4.474709015339613">
        <ele>75.599999999999994</ele>
        <time>2025-05-09T16:13:30Z</time>
      </trkpt>
      <trkpt lat="36.723300023004413" lon="-4.474859973415732">
        <ele>74.159999999999997</ele>
        <time>2025-05-09T17:01:43Z</time>
      </trkpt>
      <trkpt lat="36.72338099218905" lon="-4.474779004231095">
        <ele>81.849999999999994</ele>
        <time>2025-05-09T17:02:12Z</time>
      </trkpt>
      <trkpt lat="36.72333799302578" lon="-4.474748997017741">
        <ele>83.290000000000006</ele>
        <time>2025-05-09T17:02:39Z</time>
      </trkpt>
      <trkpt lat="36.723332041874528" lon="-4.474750002846122">
        <ele>82.329999999999998</ele>
        <time>2025-05-09T17:02:43Z</time>
      </trkpt>
      <trkpt lat="36.723216036334634" lon="-4.475231962278485">
        <ele>79.450000000000003</ele>
        <time>2025-05-09T17:02:55Z</time>
      </trkpt>
      <trkpt lat="36.723222993314266" lon="-4.475299017503858">
        <ele>79.450000000000003</ele>
        <time>2025-05-09T17:02:56Z</time>
      </trkpt>
      <trkpt lat="36.723260963335633" lon="-4.475683998316526">
        <ele>77.519999999999996</ele>
        <time>2025-05-09T17:03:05Z</time>
      </trkpt>
      <trkpt lat="36.723261969164014" lon="-4.475702019408345">
        <ele>76.560000000000002</ele>
        <time>2025-05-09T17:03:13Z</time>
      </trkpt>
      <trkpt lat="36.72327496111393" lon="-4.475909974426031">
        <ele>74.640000000000001</ele>
        <time>2025-05-09T17:03:21Z</time>
      </trkpt>
      <trkpt lat="36.723299017176032" lon="-4.476281963288784">
        <ele>68.390000000000001</ele>
        <time>2025-05-09T17:03:33Z</time>
      </trkpt>
      <trkpt lat="36.723317038267851" lon="-4.476583963260055">
        <ele>63.100000000000001</ele>
        <time>2025-05-09T17:03:41Z</time>
      </trkpt>
      <trkpt lat="36.723399013280869" lon="-4.476661998778582">
        <ele>62.140000000000001</ele>
        <time>2025-05-09T17:03:42Z</time>
      </trkpt>
      <trkpt lat="36.723399013280869" lon="-4.476661998778582">
        <ele>61.18</ele>
        <time>2025-05-09T17:03:53Z</time>
      </trkpt>
      <trkpt lat="36.723399013280869" lon="-4.476661998778582">
        <ele>61.18</ele>
        <time>2025-05-09T17:04:03Z</time>
      </trkpt>
      <trkpt lat="36.723320977762341" lon="-4.476632997393608">
        <ele>59.740000000000002</ele>
        <time>2025-05-09T17:04:04Z</time>
      </trkpt>
      <trkpt lat="36.723321983590722" lon="-4.476655041798949">
        <ele>59.259999999999998</ele>
        <time>2025-05-09T17:04:05Z</time>
      </trkpt>
      <trkpt lat="36.723347967490554" lon="-4.476698040962219">
        <ele>58.780000000000001</ele>
        <time>2025-05-09T17:04:06Z</time>
      </trkpt>
      <trkpt lat="36.723304968327284" lon="-4.476727964356542">
        <ele>58.299999999999997</ele>
        <time>2025-05-09T17:04:07Z</time>
      </trkpt>
      <trkpt lat="36.723131965845823" lon="-4.476841036230326">
        <ele>56.859999999999999</ele>
        <time>2025-05-09T17:04:11Z</time>
      </trkpt>
      <trkpt lat="36.723092989996076" lon="-4.476866014301777">
        <ele>56.859999999999999</ele>
        <time>2025-05-09T17:04:12Z</time>
      </trkpt>
      <trkpt lat="36.723009003326297" lon="-4.476920999586582">
        <ele>56.369999999999997</ele>
        <time>2025-05-09T17:04:14Z</time>
      </trkpt>
      <trkpt lat="36.722838012501597" lon="-4.477032981812954">
        <ele>55.890000000000001</ele>
        <time>2025-05-09T17:04:18Z</time>
      </trkpt>
      <trkpt lat="36.722795013338327" lon="-4.477060977369547">
        <ele>55.890000000000001</ele>
        <time>2025-05-09T17:04:19Z</time>
      </trkpt>
      <trkpt lat="36.722619999200106" lon="-4.47717497125268">
        <ele>55.890000000000001</ele>
        <time>2025-05-09T17:04:24Z</time>
      </trkpt>
      <trkpt lat="36.722584962844849" lon="-4.477199027314782">
        <ele>55.890000000000001</ele>
        <time>2025-05-09T17:04:25Z</time>
      </trkpt>
      <trkpt lat="36.722555039450526" lon="-4.47721797041595">
        <ele>55.890000000000001</ele>
        <time>2025-05-09T17:04:26Z</time>
      </trkpt>
      <trkpt lat="36.722527965903282" lon="-4.477235991507769">
        <ele>55.409999999999997</ele>
        <time>2025-05-09T17:04:27Z</time>
      </trkpt>
      <trkpt lat="36.722503993660212" lon="-4.477252000942826">
        <ele>55.409999999999997</ele>
        <time>2025-05-09T17:04:28Z</time>
      </trkpt>
      <trkpt lat="36.722486978396773" lon="-4.477262981235981">
        <ele>54.93</ele>
        <time>2025-05-09T17:04:29Z</time>
      </trkpt>
      <trkpt lat="36.722469963133335" lon="-4.477273961529136">
        <ele>54.450000000000003</ele>
        <time>2025-05-09T17:04:30Z</time>
      </trkpt>
      <trkpt lat="36.722368961200118" lon="-4.477340010926127">
        <ele>52.530000000000001</ele>
        <time>2025-05-09T17:04:41Z</time>
      </trkpt>
      <trkpt lat="36.722216997295618" lon="-4.477500021457672">
        <ele>52.049999999999997</ele>
        <time>2025-05-09T17:04:47Z</time>
      </trkpt>
      <trkpt lat="36.722222026437521" lon="-4.47753899730742">
        <ele>51.090000000000003</ele>
        <time>2025-05-09T17:04:48Z</time>
      </trkpt>
      <trkpt lat="36.722227977588773" lon="-4.477588031440973">
        <ele>50.609999999999999</ele>
        <time>2025-05-09T17:04:49Z</time>
      </trkpt>
      <trkpt lat="36.722235018387437" lon="-4.47764502838254">
        <ele>49.649999999999999</ele>
        <time>2025-05-09T17:04:50Z</time>
      </trkpt>
      <trkpt lat="36.722241975367069" lon="-4.477702025324106">
        <ele>48.68</ele>
        <time>2025-05-09T17:04:51Z</time>
      </trkpt>
      <trkpt lat="36.72226301394403" lon="-4.477889025583863">
        <ele>46.759999999999998</ele>
        <time>2025-05-09T17:04:54Z</time>
      </trkpt>
      <trkpt lat="36.722270976752043" lon="-4.4779699947685">
        <ele>46.280000000000001</ele>
        <time>2025-05-09T17:04:55Z</time>
      </trkpt>
      <trkpt lat="36.722278017550707" lon="-4.478041995316744">
        <ele>45.799999999999997</ele>
        <time>2025-05-09T17:04:56Z</time>
      </trkpt>
      <trkpt lat="36.722283968701959" lon="-4.478103015571833">
        <ele>45.32</ele>
        <time>2025-05-09T17:04:57Z</time>
      </trkpt>
      <trkpt lat="36.722291009500623" lon="-4.478173004463315">
        <ele>44.840000000000003</ele>
        <time>2025-05-09T17:04:58Z</time>
      </trkpt>
      <trkpt lat="36.722297966480255" lon="-4.478250034153462">
        <ele>44.359999999999999</ele>
        <time>2025-05-09T17:04:59Z</time>
      </trkpt>
      <trkpt lat="36.722301989793777" lon="-4.47833301499486">
        <ele>43.880000000000003</ele>
        <time>2025-05-09T17:05:00Z</time>
      </trkpt>
      <trkpt lat="36.722362004220486" lon="-4.478992000222206">
        <ele>40.030000000000001</ele>
        <time>2025-05-09T17:05:07Z</time>
      </trkpt>
      <trkpt lat="36.722366027534008" lon="-4.479082021862268">
        <ele>40.030000000000001</ele>
        <time>2025-05-09T17:05:08Z</time>
      </trkpt>
      <trkpt lat="36.722368961200118" lon="-4.47917296551168">
        <ele>40.509999999999998</ele>
        <time>2025-05-09T17:05:09Z</time>
      </trkpt>
      <trkpt lat="36.72237197868526" lon="-4.479268016293645">
        <ele>40.509999999999998</ele>
        <time>2025-05-09T17:05:10Z</time>
      </trkpt>
      <trkpt lat="36.722374996170402" lon="-4.479357032105327">
        <ele>40.990000000000002</ele>
        <time>2025-05-09T17:05:11Z</time>
      </trkpt>
      <trkpt lat="36.722378013655543" lon="-4.4794309604913">
        <ele>40.509999999999998</ele>
        <time>2025-05-09T17:05:12Z</time>
      </trkpt>
      <trkpt lat="36.722380025312304" lon="-4.479505978524685">
        <ele>40.509999999999998</ele>
        <time>2025-05-09T17:05:13Z</time>
      </trkpt>
      <trkpt lat="36.722357980906963" lon="-4.479762967675924">
        <ele>40.030000000000001</ele>
        <time>2025-05-09T17:05:20Z</time>
      </trkpt>
      <trkpt lat="36.722348006442189" lon="-4.479851983487606">
        <ele>42.920000000000002</ele>
        <time>2025-05-09T17:05:40Z</time>
      </trkpt>
      <trkpt lat="36.722338031977415" lon="-4.479936975985766">
        <ele>42.920000000000002</ele>
        <time>2025-05-09T17:05:43Z</time>
      </trkpt>
      <trkpt lat="36.72232897952199" lon="-4.479991961270571">
        <ele>42.920000000000002</ele>
        <time>2025-05-09T17:05:44Z</time>
      </trkpt>
      <trkpt lat="36.722320010885596" lon="-4.480043007060885">
        <ele>42.920000000000002</ele>
        <time>2025-05-09T17:05:45Z</time>
      </trkpt>
      <trkpt lat="36.722314981743693" lon="-4.480077037587762">
        <ele>42.920000000000002</ele>
        <time>2025-05-09T17:05:46Z</time>
      </trkpt>
      <trkpt lat="36.722293021157384" lon="-4.480206035077572">
        <ele>43.399999999999999</ele>
        <time>2025-05-09T17:05:53Z</time>
      </trkpt>
      <trkpt lat="36.722255973145366" lon="-4.480425976216793">
        <ele>43.399999999999999</ele>
        <time>2025-05-09T17:05:57Z</time>
      </trkpt>
      <trkpt lat="36.722248010337353" lon="-4.480478027835488">
        <ele>42.920000000000002</ele>
        <time>2025-05-09T17:05:58Z</time>
      </trkpt>
      <trkpt lat="36.72222001478076" lon="-4.480646001175046">
        <ele>42.439999999999998</ele>
        <time>2025-05-09T17:06:02Z</time>
      </trkpt>
      <trkpt lat="36.722212973982096" lon="-4.480684977024794">
        <ele>41.950000000000003</ele>
        <time>2025-05-09T17:06:03Z</time>
      </trkpt>
      <trkpt lat="36.722208028659225" lon="-4.480715990066528">
        <ele>41.950000000000003</ele>
        <time>2025-05-09T17:06:04Z</time>
      </trkpt>
      <trkpt lat="36.72219998203218" lon="-4.480763012543321">
        <ele>41.469999999999999</ele>
        <time>2025-05-09T17:06:05Z</time>
      </trkpt>
      <trkpt lat="36.722191013395786" lon="-4.480821015313268">
        <ele>40.990000000000002</ele>
        <time>2025-05-09T17:06:06Z</time>
      </trkpt>
      <trkpt lat="36.722181038931012" lon="-4.480880023911595">
        <ele>40.990000000000002</ele>
        <time>2025-05-09T17:06:07Z</time>
      </trkpt>
      <trkpt lat="36.722167041152716" lon="-4.480963004752994">
        <ele>40.509999999999998</ele>
        <time>2025-05-09T17:06:08Z</time>
      </trkpt>
      <trkpt lat="36.72215798869729" lon="-4.481012038886547">
        <ele>39.549999999999997</ele>
        <time>2025-05-09T17:06:09Z</time>
      </trkpt>
      <trkpt lat="36.722147008404136" lon="-4.481074986979365">
        <ele>39.549999999999997</ele>
        <time>2025-05-09T17:06:10Z</time>
      </trkpt>
      <trkpt lat="36.7221350222826" lon="-4.481143970042467">
        <ele>39.07</ele>
        <time>2025-05-09T17:06:11Z</time>
      </trkpt>
      <trkpt lat="36.722122030332685" lon="-4.481218988075852">
        <ele>38.590000000000003</ele>
        <time>2025-05-09T17:06:12Z</time>
      </trkpt>
      <trkpt lat="36.722108032554388" lon="-4.481300041079521">
        <ele>38.590000000000003</ele>
        <time>2025-05-09T17:06:13Z</time>
      </trkpt>
      <trkpt lat="36.72196201980114" lon="-4.481777977198362">
        <ele>37.630000000000003</ele>
        <time>2025-05-09T17:06:19Z</time>
      </trkpt>
      <trkpt lat="36.721842996776104" lon="-4.48215801268816">
        <ele>37.630000000000003</ele>
        <time>2025-05-09T17:06:28Z</time>
      </trkpt>
      <trkpt lat="36.721823969855905" lon="-4.482219032943249">
        <ele>40.030000000000001</ele>
        <time>2025-05-09T17:06:36Z</time>
      </trkpt>
      <trkpt lat="36.721815001219511" lon="-4.482247028499842">
        <ele>40.030000000000001</ele>
        <time>2025-05-09T17:06:37Z</time>
      </trkpt>
      <trkpt lat="36.721806032583117" lon="-4.482277035713196">
        <ele>40.509999999999998</ele>
        <time>2025-05-09T17:06:38Z</time>
      </trkpt>
      <trkpt lat="36.721828998997808" lon="-4.4823959749192">
        <ele>40.509999999999998</ele>
        <time>2025-05-09T17:06:39Z</time>
      </trkpt>
      <trkpt lat="36.72187996096909" lon="-4.48243604041636">
        <ele>40.509999999999998</ele>
        <time>2025-05-09T17:06:40Z</time>
      </trkpt>
      <trkpt lat="36.721947016194463" lon="-4.482490019872785">
        <ele>40.990000000000002</ele>
        <time>2025-05-09T17:06:41Z</time>
      </trkpt>
      <trkpt lat="36.722019016742706" lon="-4.482547016814351">
        <ele>40.990000000000002</ele>
        <time>2025-05-09T17:06:42Z</time>
      </trkpt>
      <trkpt lat="36.722149020060897" lon="-4.48265103623271">
        <ele>40.990000000000002</ele>
        <time>2025-05-09T17:06:44Z</time>
      </trkpt>
      <trkpt lat="36.722208028659225" lon="-4.482697974890471">
        <ele>40.990000000000002</ele>
        <time>2025-05-09T17:06:45Z</time>
      </trkpt>
      <trkpt lat="36.722900038585067" lon="-4.483249001204968">
        <ele>44.359999999999999</ele>
        <time>2025-05-09T17:06:57Z</time>
      </trkpt>
      <trkpt lat="36.723133977502584" lon="-4.483418986201286">
        <ele>46.280000000000001</ele>
        <time>2025-05-09T17:07:01Z</time>
      </trkpt>
      <trkpt lat="36.723168008029461" lon="-4.483442958444357">
        <ele>47.240000000000002</ele>
        <time>2025-05-09T17:07:02Z</time>
      </trkpt>
      <trkpt lat="36.723168008029461" lon="-4.483442958444357">
        <ele>47.719999999999999</ele>
        <time>2025-05-09T17:07:03Z</time>
      </trkpt>
      <trkpt lat="36.72321000136435" lon="-4.483472965657711">
        <ele>49.159999999999997</ele>
        <time>2025-05-09T17:07:12Z</time>
      </trkpt>
      <trkpt lat="36.723389960825443" lon="-4.483601963147521">
        <ele>53.490000000000002</ele>
        <time>2025-05-09T17:07:21Z</time>
      </trkpt>
      <trkpt lat="36.723562041297555" lon="-4.483558963984251">
        <ele>53.969999999999999</ele>
        <time>2025-05-09T17:07:22Z</time>
      </trkpt>
      <trkpt lat="36.723562041297555" lon="-4.483558963984251">
        <ele>54.450000000000003</ele>
        <time>2025-05-09T17:07:23Z</time>
      </trkpt>
      <trkpt lat="36.723602022975683" lon="-4.483558963984251">
        <ele>54.93</ele>
        <time>2025-05-09T17:07:24Z</time>
      </trkpt>
      <trkpt lat="36.723674023523927" lon="-4.483558963984251">
        <ele>54.93</ele>
        <time>2025-05-09T17:07:25Z</time>
      </trkpt>
      <trkpt lat="36.72374602407217" lon="-4.483601963147521">
        <ele>54.93</ele>
        <time>2025-05-09T17:07:26Z</time>
      </trkpt>
      <trkpt lat="36.723792040720582" lon="-4.483658960089088">
        <ele>55.409999999999997</ele>
        <time>2025-05-09T17:07:27Z</time>
      </trkpt>
      <trkpt lat="36.723797991871834" lon="-4.483666000887752">
        <ele>55.409999999999997</ele>
        <time>2025-05-09T17:07:28Z</time>
      </trkpt>
      <trkpt lat="36.723883990198374" lon="-4.483859958127141">
        <ele>55.409999999999997</ele>
        <time>2025-05-09T17:07:29Z</time>
      </trkpt>
      <trkpt lat="36.723926989361644" lon="-4.483888037502766">
        <ele>55.890000000000001</ele>
        <time>2025-05-09T17:07:30Z</time>
      </trkpt>
      <trkpt lat="36.724001001566648" lon="-4.483933970332146">
        <ele>56.369999999999997</ele>
        <time>2025-05-09T17:07:31Z</time>
      </trkpt>
      <trkpt lat="36.724431999027729" lon="-4.484188025817275">
        <ele>57.340000000000003</ele>
        <time>2025-05-09T17:07:36Z</time>
      </trkpt>
      <trkpt lat="36.725283013656735" lon="-4.484674008563161">
        <ele>60.219999999999999</ele>
        <time>2025-05-09T17:07:45Z</time>
      </trkpt>
      <trkpt lat="36.72548501752317" lon="-4.484786996617913">
        <ele>61.18</ele>
        <time>2025-05-09T17:07:49Z</time>
      </trkpt>
      <trkpt lat="36.725535979494452" lon="-4.484804011881352">
        <ele>61.659999999999997</ele>
        <time>2025-05-09T17:07:50Z</time>
      </trkpt>
      <trkpt lat="36.725725997239351" lon="-4.484708039090037">
        <ele>62.619999999999997</ele>
        <time>2025-05-09T17:07:52Z</time>
      </trkpt>
      <trkpt lat="36.725818030536175" lon="-4.484741985797882">
        <ele>63.100000000000001</ele>
        <time>2025-05-09T17:07:53Z</time>
      </trkpt>
      <trkpt lat="36.725861029699445" lon="-4.484837036579847">
        <ele>63.579999999999998</ele>
        <time>2025-05-09T17:07:54Z</time>
      </trkpt>
      <trkpt lat="36.725865975022316" lon="-4.484942983835936">
        <ele>64.069999999999993</ele>
        <time>2025-05-09T17:07:55Z</time>
      </trkpt>
      <trkpt lat="36.725845020264387" lon="-4.485024958848953">
        <ele>64.549999999999997</ele>
        <time>2025-05-09T17:07:56Z</time>
      </trkpt>
      <trkpt lat="36.725776037201285" lon="-4.485096959397197">
        <ele>65.030000000000001</ele>
        <time>2025-05-09T17:07:57Z</time>
      </trkpt>
      <trkpt lat="36.725709987804294" lon="-4.485151022672653">
        <ele>65.030000000000001</ele>
        <time>2025-05-09T17:07:58Z</time>
      </trkpt>
      <trkpt lat="36.725655002519488" lon="-4.485228974372149">
        <ele>65.030000000000001</ele>
        <time>2025-05-09T17:07:59Z</time>
      </trkpt>
      <trkpt lat="36.725604040548205" lon="-4.485321007668972">
        <ele>65.030000000000001</ele>
        <time>2025-05-09T17:08:00Z</time>
      </trkpt>
      <trkpt lat="36.725560035556555" lon="-4.485433995723724">
        <ele>65.030000000000001</ele>
        <time>2025-05-09T17:08:01Z</time>
      </trkpt>
      <trkpt lat="36.725100036710501" lon="-4.486661022529006">
        <ele>63.579999999999998</ele>
        <time>2025-05-09T17:08:11Z</time>
      </trkpt>
      <trkpt lat="36.724888980388641" lon="-4.487211965024471">
        <ele>63.100000000000001</ele>
        <time>2025-05-09T17:08:16Z</time>
      </trkpt>
      <trkpt lat="36.724848998710513" lon="-4.487313972786069">
        <ele>63.100000000000001</ele>
        <time>2025-05-09T17:08:17Z</time>
      </trkpt>
      <trkpt lat="36.72484003007412" lon="-4.487363006919622">
        <ele>63.100000000000001</ele>
        <time>2025-05-09T17:08:18Z</time>
      </trkpt>
      <trkpt lat="36.724830977618694" lon="-4.487403994426131">
        <ele>63.100000000000001</ele>
        <time>2025-05-09T17:08:19Z</time>
      </trkpt>
      <trkpt lat="36.724824020639062" lon="-4.487440036609769">
        <ele>63.579999999999998</ele>
        <time>2025-05-09T17:08:20Z</time>
      </trkpt>
      <trkpt lat="36.724805999547243" lon="-4.487528968602419">
        <ele>63.579999999999998</ele>
        <time>2025-05-09T17:08:21Z</time>
      </trkpt>
      <trkpt lat="36.724826032295823" lon="-4.487586971372366">
        <ele>63.579999999999998</ele>
        <time>2025-05-09T17:08:22Z</time>
      </trkpt>
      <trkpt lat="36.724850004538894" lon="-4.48765997774899">
        <ele>63.579999999999998</ele>
        <time>2025-05-09T17:08:23Z</time>
      </trkpt>
      <trkpt lat="36.724870959296823" lon="-4.487722003832459">
        <ele>64.069999999999993</ele>
        <time>2025-05-09T17:08:24Z</time>
      </trkpt>
      <trkpt lat="36.724962992593646" lon="-4.48787396773696">
        <ele>64.069999999999993</ele>
        <time>2025-05-09T17:08:25Z</time>
      </trkpt>
      <trkpt lat="36.725038010627031" lon="-4.487892994657159">
        <ele>64.069999999999993</ele>
        <time>2025-05-09T17:08:26Z</time>
      </trkpt>
      <trkpt lat="36.725117973983288" lon="-4.487912021577358">
        <ele>64.069999999999993</ele>
        <time>2025-05-09T17:08:27Z</time>
      </trkpt>
      <trkpt lat="36.726053981110454" lon="-4.488146966323257">
        <ele>65.510000000000005</ele>
        <time>2025-05-09T17:08:37Z</time>
      </trkpt>
      <trkpt lat="36.727243959903717" lon="-4.488421976566315">
        <ele>67.430000000000007</ele>
        <time>2025-05-09T17:08:47Z</time>
      </trkpt>
      <trkpt lat="36.728511974215508" lon="-4.4886489585042">
        <ele>67.909999999999997</ele>
        <time>2025-05-09T17:08:58Z</time>
      </trkpt>
      <trkpt lat="36.729470025748014" lon="-4.488820033147931">
        <ele>71.269999999999996</ele>
        <time>2025-05-09T17:09:06Z</time>
      </trkpt>
      <trkpt lat="36.73090199008584" lon="-4.48907601647079">
        <ele>76.079999999999998</ele>
        <time>2025-05-09T17:09:18Z</time>
      </trkpt>
      <trkpt lat="36.732007982209325" lon="-4.489273997023702">
        <ele>83.290000000000006</ele>
        <time>2025-05-09T17:09:28Z</time>
      </trkpt>
      <trkpt lat="36.732086017727852" lon="-4.489287994801998">
        <ele>83.769999999999996</ele>
        <time>2025-05-09T17:09:29Z</time>
      </trkpt>
      <trkpt lat="36.732157012447715" lon="-4.489299980923533">
        <ele>84.25</ele>
        <time>2025-05-09T17:09:30Z</time>
      </trkpt>
      <trkpt lat="36.732235969975591" lon="-4.489262010902166">
        <ele>84.730000000000004</ele>
        <time>2025-05-09T17:09:31Z</time>
      </trkpt>
      <trkpt lat="36.732294978573918" lon="-4.489160003140569">
        <ele>85.209999999999994</ele>
        <time>2025-05-09T17:09:32Z</time>
      </trkpt>
      <trkpt lat="36.732342001050711" lon="-4.489140976220369">
        <ele>85.689999999999998</ele>
        <time>2025-05-09T17:09:33Z</time>
      </trkpt>
      <trkpt lat="36.732438979670405" lon="-4.489131001755595">
        <ele>86.180000000000007</ele>
        <time>2025-05-09T17:09:34Z</time>
      </trkpt>
      <trkpt lat="36.732526989653707" lon="-4.489182969555259">
        <ele>86.659999999999997</ele>
        <time>2025-05-09T17:09:35Z</time>
      </trkpt>
      <trkpt lat="36.732574012130499" lon="-4.489244995638728">
        <ele>87.140000000000001</ele>
        <time>2025-05-09T17:09:36Z</time>
      </trkpt>
      <trkpt lat="36.732593039050698" lon="-4.489359995350242">
        <ele>87.620000000000005</ele>
        <time>2025-05-09T17:09:37Z</time>
      </trkpt>
      <trkpt lat="36.732594966888428" lon="-4.489373993128538">
        <ele>87.620000000000005</ele>
        <time>2025-05-09T17:09:38Z</time>
      </trkpt>
      <trkpt lat="36.732644001021981" lon="-4.489637017250061">
        <ele>87.620000000000005</ele>
        <time>2025-05-09T17:09:40Z</time>
      </trkpt>
      <trkpt lat="36.732708960771561" lon="-4.489702982828021">
        <ele>87.620000000000005</ele>
        <time>2025-05-09T17:09:41Z</time>
      </trkpt>
      <trkpt lat="36.732778027653694" lon="-4.489771965891123">
        <ele>87.140000000000001</ele>
        <time>2025-05-09T17:09:42Z</time>
      </trkpt>
      <trkpt lat="36.732921022921801" lon="-4.489914961159229">
        <ele>86.180000000000007</ele>
        <time>2025-05-09T17:09:44Z</time>
      </trkpt>
      <trkpt lat="36.733742030337453" lon="-4.490476967766881">
        <ele>85.209999999999994</ele>
        <time>2025-05-09T17:09:52Z</time>
      </trkpt>
      <trkpt lat="36.734638977795839" lon="-4.491403000429273">
        <ele>84.25</ele>
        <time>2025-05-09T17:10:01Z</time>
      </trkpt>
      <trkpt lat="36.735608009621501" lon="-4.492552997544408">
        <ele>86.180000000000007</ele>
        <time>2025-05-09T17:10:12Z</time>
      </trkpt>
      <trkpt lat="36.735726026818156" lon="-4.492620974779129">
        <ele>87.140000000000001</ele>
        <time>2025-05-09T17:10:13Z</time>
      </trkpt>
      <trkpt lat="36.735957032069564" lon="-4.492738991975784">
        <ele>88.579999999999998</ele>
        <time>2025-05-09T17:10:15Z</time>
      </trkpt>
      <trkpt lat="36.736076977103949" lon="-4.492775034159422">
        <ele>89.060000000000002</ele>
        <time>2025-05-09T17:10:16Z</time>
      </trkpt>
      <trkpt lat="36.73618895933032" lon="-4.492786014452577">
        <ele>90.019999999999996</ele>
        <time>2025-05-09T17:10:17Z</time>
      </trkpt>
      <trkpt lat="36.736304964870214" lon="-4.492786014452577">
        <ele>90.5</ele>
        <time>2025-05-09T17:10:18Z</time>
      </trkpt>
      <trkpt lat="36.736417030915618" lon="-4.492786014452577">
        <ele>91.459999999999994</ele>
        <time>2025-05-09T17:10:19Z</time>
      </trkpt>
      <trkpt lat="36.736950958147645" lon="-4.492714013904333">
        <ele>92.900000000000006</ele>
        <time>2025-05-09T17:10:24Z</time>
      </trkpt>
      <trkpt lat="36.738066002726555" lon="-4.492186037823558">
        <ele>90.980000000000004</ele>
        <time>2025-05-09T17:10:35Z</time>
      </trkpt>
      <trkpt lat="36.738962028175592" lon="-4.49172000400722">
        <ele>90.5</ele>
        <time>2025-05-09T17:10:44Z</time>
      </trkpt>
      <trkpt lat="36.739634005352855" lon="-4.491369975730777">
        <ele>91.939999999999998</ele>
        <time>2025-05-09T17:10:50Z</time>
      </trkpt>
      <trkpt lat="36.739790998399258" lon="-4.491223962977529">
        <ele>92.900000000000006</ele>
        <time>2025-05-09T17:10:52Z</time>
      </trkpt>
      <trkpt lat="36.739869033917785" lon="-4.491151962429285">
        <ele>93.870000000000005</ele>
        <time>2025-05-09T17:10:53Z</time>
      </trkpt>
      <trkpt lat="36.740494994446635" lon="-4.490436986088753">
        <ele>98.670000000000002</ele>
        <time>2025-05-09T17:11:02Z</time>
      </trkpt>
      <trkpt lat="36.740571018308401" lon="-4.490377977490425">
        <ele>99.150000000000006</ele>
        <time>2025-05-09T17:11:03Z</time>
      </trkpt>
      <trkpt lat="36.741497972980142" lon="-4.489826029166579">
        <ele>104.92</ele>
        <time>2025-05-09T17:11:12Z</time>
      </trkpt>
      <trkpt lat="36.742433980107307" lon="-4.489374998956919">
        <ele>112.13</ele>
        <time>2025-05-09T17:11:21Z</time>
      </trkpt>
      <trkpt lat="36.742937983945012" lon="-4.489310039207339">
        <ele>115.98</ele>
        <time>2025-05-09T17:11:28Z</time>
      </trkpt>
      <trkpt lat="36.742994980886579" lon="-4.489244995638728">
        <ele>116.45999999999999</ele>
        <time>2025-05-09T17:11:29Z</time>
      </trkpt>
      <trkpt lat="36.743024988099933" lon="-4.489279026165605">
        <ele>116.45999999999999</ele>
        <time>2025-05-09T17:11:30Z</time>
      </trkpt>
      <trkpt lat="36.743053989484906" lon="-4.489311967045069">
        <ele>116.94</ele>
        <time>2025-05-09T17:11:31Z</time>
      </trkpt>
      <trkpt lat="36.743080979213119" lon="-4.489341974258423">
        <ele>116.94</ele>
        <time>2025-05-09T17:11:32Z</time>
      </trkpt>
      <trkpt lat="36.74310302361846" lon="-4.489367036148906">
        <ele>117.42</ele>
        <time>2025-05-09T17:11:33Z</time>
      </trkpt>
      <trkpt lat="36.74310302361846" lon="-4.489367036148906">
        <ele>117.42</ele>
        <time>2025-05-09T17:11:43Z</time>
      </trkpt>
      <trkpt lat="36.743326988071203" lon="-4.4896350055933">
        <ele>117.90000000000001</ele>
        <time>2025-05-09T17:11:53Z</time>
      </trkpt>
      <trkpt lat="36.74364298582077" lon="-4.48998000472784">
        <ele>118.38</ele>
        <time>2025-05-09T17:11:58Z</time>
      </trkpt>
      <trkpt lat="36.743709035217762" lon="-4.490053011104465">
        <ele>118.38</ele>
        <time>2025-05-09T17:11:59Z</time>
      </trkpt>
      <trkpt lat="36.743776006624103" lon="-4.490126017481089">
        <ele>118.86</ele>
        <time>2025-05-09T17:12:00Z</time>
      </trkpt>
      <trkpt lat="36.743841972202063" lon="-4.490198018029332">
        <ele>118.86</ele>
        <time>2025-05-09T17:12:01Z</time>
      </trkpt>
      <trkpt lat="36.743906009942293" lon="-4.490268006920815">
        <ele>119.34</ele>
        <time>2025-05-09T17:12:02Z</time>
      </trkpt>
      <trkpt lat="36.74480102956295" lon="-4.491232009604573">
        <ele>125.11</ele>
        <time>2025-05-09T17:12:14Z</time>
      </trkpt>
      <trkpt lat="36.745915990322828" lon="-4.491853024810553">
        <ele>132.31999999999999</ele>
        <time>2025-05-09T17:12:25Z</time>
      </trkpt>
      <trkpt lat="36.746969008818269" lon="-4.492497006431222">
        <ele>137.61000000000001</ele>
        <time>2025-05-09T17:12:35Z</time>
      </trkpt>
      <trkpt lat="36.747284000739455" lon="-4.492699010297656">
        <ele>138.56999999999999</ele>
        <time>2025-05-09T17:12:38Z</time>
      </trkpt>
      <trkpt lat="36.748364008963108" lon="-4.492905037477613">
        <ele>138.56999999999999</ele>
        <time>2025-05-09T17:12:47Z</time>
      </trkpt>
      <trkpt lat="36.748537011444569" lon="-4.492935966700316">
        <ele>138.09</ele>
        <time>2025-05-09T17:12:49Z</time>
      </trkpt>
      <trkpt lat="36.748731974512339" lon="-4.492764975875616">
        <ele>138.09</ele>
        <time>2025-05-09T17:12:50Z</time>
      </trkpt>
      <trkpt lat="36.748731974512339" lon="-4.492764975875616">
        <ele>138.09</ele>
        <time>2025-05-09T17:12:51Z</time>
      </trkpt>
      <trkpt lat="36.749523980543017" lon="-4.492368008941412">
        <ele>138.56999999999999</ele>
        <time>2025-05-09T17:12:58Z</time>
      </trkpt>
      <trkpt lat="36.750576999038458" lon="-4.491874985396862">
        <ele>140.00999999999999</ele>
        <time>2025-05-09T17:13:05Z</time>
      </trkpt>
      <trkpt lat="36.750684035941958" lon="-4.491841960698366">
        <ele>140.00999999999999</ele>
        <time>2025-05-09T17:13:06Z</time>
      </trkpt>
      <trkpt lat="36.75094697624445" lon="-4.491858975961804">
        <ele>140.00999999999999</ele>
        <time>2025-05-09T17:13:08Z</time>
      </trkpt>
      <trkpt lat="36.751074967905879" lon="-4.491734001785517">
        <ele>140.00999999999999</ele>
        <time>2025-05-09T17:13:09Z</time>
      </trkpt>
      <trkpt lat="36.751132970675826" lon="-4.491625037044287">
        <ele>140.00999999999999</ele>
        <time>2025-05-09T17:13:10Z</time>
      </trkpt>
      <trkpt lat="36.751335980370641" lon="-4.491432001814246">
        <ele>140.97</ele>
        <time>2025-05-09T17:13:12Z</time>
      </trkpt>
      <trkpt lat="36.751457015052438" lon="-4.491348015144467">
        <ele>141.44999999999999</ele>
        <time>2025-05-09T17:13:13Z</time>
      </trkpt>
      <trkpt lat="36.751586012542248" lon="-4.491326976567507">
        <ele>141.93000000000001</ele>
        <time>2025-05-09T17:13:14Z</time>
      </trkpt>
      <trkpt lat="36.751706041395664" lon="-4.491326976567507">
        <ele>142.88999999999999</ele>
        <time>2025-05-09T17:13:15Z</time>
      </trkpt>
      <trkpt lat="36.751831015571952" lon="-4.491358995437622">
        <ele>143.84999999999999</ele>
        <time>2025-05-09T17:13:16Z</time>
      </trkpt>
      <trkpt lat="36.751967975869775" lon="-4.491404006257653">
        <ele>144.34</ele>
        <time>2025-05-09T17:13:17Z</time>
      </trkpt>
      <trkpt lat="36.752065038308501" lon="-4.49148497544229">
        <ele>145.30000000000001</ele>
        <time>2025-05-09T17:13:18Z</time>
      </trkpt>
      <trkpt lat="36.752142990007997" lon="-4.491563010960817">
        <ele>145.78</ele>
        <time>2025-05-09T17:13:19Z</time>
      </trkpt>
      <trkpt lat="36.75221499055624" lon="-4.491732995957136">
        <ele>146.25999999999999</ele>
        <time>2025-05-09T17:13:20Z</time>
      </trkpt>
      <trkpt lat="36.75227802246809" lon="-4.491882026195526">
        <ele>146.25999999999999</ele>
        <time>2025-05-09T17:13:21Z</time>
      </trkpt>
      <trkpt lat="36.752314986661077" lon="-4.491986967623234">
        <ele>146.74000000000001</ele>
        <time>2025-05-09T17:13:22Z</time>
      </trkpt>
      <trkpt lat="36.752314986661077" lon="-4.492145972326398">
        <ele>147.22</ele>
        <time>2025-05-09T17:13:23Z</time>
      </trkpt>
      <trkpt lat="36.752314986661077" lon="-4.492271030321717">
        <ele>147.22</ele>
        <time>2025-05-09T17:13:24Z</time>
      </trkpt>
      <trkpt lat="36.752285985276103" lon="-4.492378989234567">
        <ele>147.22</ele>
        <time>2025-05-09T17:13:25Z</time>
      </trkpt>
      <trkpt lat="36.752363014966249" lon="-4.492576969787478">
        <ele>146.74000000000001</ele>
        <time>2025-05-09T17:13:26Z</time>
      </trkpt>
      <trkpt lat="36.752424035221338" lon="-4.492615023627877">
        <ele>146.74000000000001</ele>
        <time>2025-05-09T17:13:27Z</time>
      </trkpt>
      <trkpt lat="36.752497963607311" lon="-4.492658022791147">
        <ele>146.25999999999999</ele>
        <time>2025-05-09T17:13:28Z</time>
      </trkpt>
      <trkpt lat="36.752581028267741" lon="-4.492704961448908">
        <ele>146.25999999999999</ele>
        <time>2025-05-09T17:13:29Z</time>
      </trkpt>
      <trkpt lat="36.752670966088772" lon="-4.492756007239223">
        <ele>145.78</ele>
        <time>2025-05-09T17:13:30Z</time>
      </trkpt>
      <trkpt lat="36.753561040386558" lon="-4.493255987763405">
        <ele>145.30000000000001</ele>
        <time>2025-05-09T17:13:37Z</time>
      </trkpt>
      <trkpt lat="36.754188006743789" lon="-4.49365203268826">
        <ele>145.30000000000001</ele>
        <time>2025-05-09T17:13:41Z</time>
      </trkpt>
      <trkpt lat="36.754344999790192" lon="-4.493777006864548">
        <ele>145.30000000000001</ele>
        <time>2025-05-09T17:13:42Z</time>
      </trkpt>
      <trkpt lat="36.755612008273602" lon="-4.494731035083532">
        <ele>146.25999999999999</ele>
        <time>2025-05-09T17:13:50Z</time>
      </trkpt>
      <trkpt lat="36.756412982940674" lon="-4.495091959834099">
        <ele>145.78</ele>
        <time>2025-05-09T17:13:56Z</time>
      </trkpt>
      <trkpt lat="36.757271960377693" lon="-4.495490016415715">
        <ele>141.44999999999999</ele>
        <time>2025-05-09T17:14:05Z</time>
      </trkpt>
      <trkpt lat="36.757774958387017" lon="-4.495698977261782">
        <ele>139.05000000000001</ele>
        <time>2025-05-09T17:14:09Z</time>
      </trkpt>
      <trkpt lat="36.757884006947279" lon="-4.49580199085176">
        <ele>138.56999999999999</ele>
        <time>2025-05-09T17:14:10Z</time>
      </trkpt>
      <trkpt lat="36.757986014708877" lon="-4.495914978906512">
        <ele>137.61000000000001</ele>
        <time>2025-05-09T17:14:11Z</time>
      </trkpt>
      <trkpt lat="36.758800987154245" lon="-4.496773034334183">
        <ele>132.31999999999999</ele>
        <time>2025-05-09T17:14:20Z</time>
      </trkpt>
      <trkpt lat="36.759611014276743" lon="-4.497056007385254">
        <ele>128.94999999999999</ele>
        <time>2025-05-09T17:14:29Z</time>
      </trkpt>
      <trkpt lat="36.759997000917792" lon="-4.497119961306453">
        <ele>126.55</ele>
        <time>2025-05-09T17:14:35Z</time>
      </trkpt>
      <trkpt lat="36.76061499863863" lon="-4.497201014310122">
        <ele>124.63</ele>
        <time>2025-05-09T17:14:42Z</time>
      </trkpt>
      <trkpt lat="36.761144986376166" lon="-4.497158015146852">
        <ele>124.15000000000001</ele>
        <time>2025-05-09T17:14:46Z</time>
      </trkpt>
      <trkpt lat="36.761282030493021" lon="-4.497121972963214">
        <ele>124.15000000000001</ele>
        <time>2025-05-09T17:14:47Z</time>
      </trkpt>
      <trkpt lat="36.761628035455942" lon="-4.496991969645023">
        <ele>124.63</ele>
        <time>2025-05-09T17:14:50Z</time>
      </trkpt>
      <trkpt lat="36.761773964390159" lon="-4.497016025707126">
        <ele>124.63</ele>
        <time>2025-05-09T17:14:51Z</time>
      </trkpt>
      <trkpt lat="36.762143019586802" lon="-4.497077967971563">
        <ele>125.59</ele>
        <time>2025-05-09T17:14:54Z</time>
      </trkpt>
      <trkpt lat="36.762219965457916" lon="-4.497145023196936">
        <ele>126.06999999999999</ele>
        <time>2025-05-09T17:14:55Z</time>
      </trkpt>
      <trkpt lat="36.762315016239882" lon="-4.497228004038334">
        <ele>126.55</ele>
        <time>2025-05-09T17:14:56Z</time>
      </trkpt>
      <trkpt lat="36.762531017884612" lon="-4.497394971549511">
        <ele>127.51000000000001</ele>
        <time>2025-05-09T17:14:58Z</time>
      </trkpt>
      <trkpt lat="36.762650962918997" lon="-4.497439982369542">
        <ele>127.98999999999999</ele>
        <time>2025-05-09T17:14:59Z</time>
      </trkpt>
      <trkpt lat="36.762783983722329" lon="-4.497474012896419">
        <ele>128.47</ele>
        <time>2025-05-09T17:15:00Z</time>
      </trkpt>
      <trkpt lat="36.763154966756701" lon="-4.497621031478047">
        <ele>128.94999999999999</ele>
        <time>2025-05-09T17:15:03Z</time>
      </trkpt>
      <trkpt lat="36.763375997543335" lon="-4.497726978734136">
        <ele>129.43000000000001</ele>
        <time>2025-05-09T17:15:05Z</time>
      </trkpt>
      <trkpt lat="36.763485968112946" lon="-4.497742988169193">
        <ele>129.43000000000001</ele>
        <time>2025-05-09T17:15:06Z</time>
      </trkpt>
      <trkpt lat="36.763588981702924" lon="-4.497736031189561">
        <ele>129.91999999999999</ele>
        <time>2025-05-09T17:15:07Z</time>
      </trkpt>
      <trkpt lat="36.763676991686225" lon="-4.49767098762095">
        <ele>129.91999999999999</ele>
        <time>2025-05-09T17:15:08Z</time>
      </trkpt>
      <trkpt lat="36.763765001669526" lon="-4.497596975415945">
        <ele>130.40000000000001</ele>
        <time>2025-05-09T17:15:09Z</time>
      </trkpt>
      <trkpt lat="36.763846976682544" lon="-4.497491028159857">
        <ele>130.88</ele>
        <time>2025-05-09T17:15:10Z</time>
      </trkpt>
      <trkpt lat="36.76420203410089" lon="-4.497041003778577">
        <ele>133.28</ele>
        <time>2025-05-09T17:15:14Z</time>
      </trkpt>
      <trkpt lat="36.764313010498881" lon="-4.496948970481753">
        <ele>133.75999999999999</ele>
        <time>2025-05-09T17:15:15Z</time>
      </trkpt>
      <trkpt lat="36.764522977173328" lon="-4.496753001585603">
        <ele>135.68000000000001</ele>
        <time>2025-05-09T17:15:17Z</time>
      </trkpt>
      <trkpt lat="36.76463202573359" lon="-4.496673960238695">
        <ele>136.16</ele>
        <time>2025-05-09T17:15:18Z</time>
      </trkpt>
      <trkpt lat="36.764749959111214" lon="-4.496627021580935">
        <ele>137.13</ele>
        <time>2025-05-09T17:15:19Z</time>
      </trkpt>
      <trkpt lat="36.764977024868131" lon="-4.496535994112492">
        <ele>138.56999999999999</ele>
        <time>2025-05-09T17:15:21Z</time>
      </trkpt>
      <trkpt lat="36.765070986002684" lon="-4.496452007442713">
        <ele>138.56999999999999</ele>
        <time>2025-05-09T17:15:22Z</time>
      </trkpt>
      <trkpt lat="36.765167964622378" lon="-4.496326027438045">
        <ele>139.05000000000001</ele>
        <time>2025-05-09T17:15:23Z</time>
      </trkpt>
      <trkpt lat="36.765197971835732" lon="-4.496207004413009">
        <ele>139.53</ele>
        <time>2025-05-09T17:15:24Z</time>
      </trkpt>
      <trkpt lat="36.76523401401937" lon="-4.496043976396322">
        <ele>140.00999999999999</ele>
        <time>2025-05-09T17:15:25Z</time>
      </trkpt>
      <trkpt lat="36.765246000140905" lon="-4.495860999450088">
        <ele>140.00999999999999</ele>
        <time>2025-05-09T17:15:26Z</time>
      </trkpt>
      <trkpt lat="36.765257986262441" lon="-4.495670981705189">
        <ele>140.00999999999999</ele>
        <time>2025-05-09T17:15:27Z</time>
      </trkpt>
      <trkpt lat="36.765269972383976" lon="-4.49548096396029">
        <ele>140.00999999999999</ele>
        <time>2025-05-09T17:15:28Z</time>
      </trkpt>
      <trkpt lat="36.765292016789317" lon="-4.495134958997369">
        <ele>139.53</ele>
        <time>2025-05-09T17:15:30Z</time>
      </trkpt>
      <trkpt lat="36.765322024002671" lon="-4.494997998699546">
        <ele>139.05000000000001</ele>
        <time>2025-05-09T17:15:31Z</time>
      </trkpt>
      <trkpt lat="36.765367034822702" lon="-4.494885010644794">
        <ele>138.56999999999999</ele>
        <time>2025-05-09T17:15:32Z</time>
      </trkpt>
      <trkpt lat="36.765425037592649" lon="-4.494839999824762">
        <ele>138.09</ele>
        <time>2025-05-09T17:15:33Z</time>
      </trkpt>
      <trkpt lat="36.765505000948906" lon="-4.494828013703227">
        <ele>137.61000000000001</ele>
        <time>2025-05-09T17:15:34Z</time>
      </trkpt>
      <trkpt lat="36.765582030639052" lon="-4.494848968461156">
        <ele>136.63999999999999</ele>
        <time>2025-05-09T17:15:35Z</time>
      </trkpt>
      <trkpt lat="36.765656964853406" lon="-4.494928009808064">
        <ele>135.68000000000001</ele>
        <time>2025-05-09T17:15:36Z</time>
      </trkpt>
      <trkpt lat="36.765735000371933" lon="-4.495049966499209">
        <ele>134.72</ele>
        <time>2025-05-09T17:15:37Z</time>
      </trkpt>
      <trkpt lat="36.765801971778274" lon="-4.495190028101206">
        <ele>133.75999999999999</ele>
        <time>2025-05-09T17:15:38Z</time>
      </trkpt>
      <trkpt lat="36.765857962891459" lon="-4.495333023369312">
        <ele>133.28</ele>
        <time>2025-05-09T17:15:39Z</time>
      </trkpt>
      <trkpt lat="36.765902973711491" lon="-4.495447017252445">
        <ele>132.31999999999999</ele>
        <time>2025-05-09T17:15:40Z</time>
      </trkpt>
      <trkpt lat="36.765983020886779" lon="-4.495502002537251">
        <ele>131.36000000000001</ele>
        <time>2025-05-09T17:15:41Z</time>
      </trkpt>
      <trkpt lat="36.766026020050049" lon="-4.495510971173644">
        <ele>130.88</ele>
        <time>2025-05-09T17:15:42Z</time>
      </trkpt>
      <trkpt lat="36.766119981184602" lon="-4.495449028909206">
        <ele>129.91999999999999</ele>
        <time>2025-05-09T17:15:43Z</time>
      </trkpt>
      <trkpt lat="36.766196005046368" lon="-4.495397983118892">
        <ele>129.43000000000001</ele>
        <time>2025-05-09T17:15:44Z</time>
      </trkpt>
      <trkpt lat="36.766268005594611" lon="-4.495381973683834">
        <ele>128.94999999999999</ele>
        <time>2025-05-09T17:15:45Z</time>
      </trkpt>
      <trkpt lat="36.766297006979585" lon="-4.49541499838233">
        <ele>127.98999999999999</ele>
        <time>2025-05-09T17:15:46Z</time>
      </trkpt>
      <trkpt lat="36.766325002536178" lon="-4.495483981445432">
        <ele>127.51000000000001</ele>
        <time>2025-05-09T17:15:47Z</time>
      </trkpt>
      <trkpt lat="36.766317961737514" lon="-4.495575008913875">
        <ele>126.55</ele>
        <time>2025-05-09T17:15:48Z</time>
      </trkpt>
      <trkpt lat="36.766303963959217" lon="-4.495716998353601">
        <ele>126.06999999999999</ele>
        <time>2025-05-09T17:15:49Z</time>
      </trkpt>
      <trkpt lat="36.766284015029669" lon="-4.495919002220035">
        <ele>124.63</ele>
        <time>2025-05-09T17:15:50Z</time>
      </trkpt>
      <trkpt lat="36.766316033899784" lon="-4.496085969731212">
        <ele>123.19</ele>
        <time>2025-05-09T17:15:51Z</time>
      </trkpt>
      <trkpt lat="36.766354003921151" lon="-4.496288979426026">
        <ele>122.22</ele>
        <time>2025-05-09T17:15:52Z</time>
      </trkpt>
      <trkpt lat="36.766403038054705" lon="-4.496486959978938">
        <ele>120.3</ele>
        <time>2025-05-09T17:15:53Z</time>
      </trkpt>
      <trkpt lat="36.766520971432328" lon="-4.496808992698789">
        <ele>117.90000000000001</ele>
        <time>2025-05-09T17:15:55Z</time>
      </trkpt>
      <trkpt lat="36.766602024435997" lon="-4.496915023773909">
        <ele>116.45999999999999</ele>
        <time>2025-05-09T17:15:56Z</time>
      </trkpt>
      <trkpt lat="36.766687016934156" lon="-4.496987024322152">
        <ele>115.5</ele>
        <time>2025-05-09T17:15:57Z</time>
      </trkpt>
      <trkpt lat="36.766795981675386" lon="-4.496987024322152">
        <ele>114.53</ele>
        <time>2025-05-09T17:15:58Z</time>
      </trkpt>
      <trkpt lat="36.766923973336816" lon="-4.496980989351869">
        <ele>114.05</ele>
        <time>2025-05-09T17:15:59Z</time>
      </trkpt>
      <trkpt lat="36.767065040767193" lon="-4.496975038200617">
        <ele>113.56999999999999</ele>
        <time>2025-05-09T17:16:00Z</time>
      </trkpt>
      <trkpt lat="36.767217004671693" lon="-4.496967997401953">
        <ele>113.09</ele>
        <time>2025-05-09T17:16:01Z</time>
      </trkpt>
      <trkpt lat="36.767626041546464" lon="-4.496949976310134">
        <ele>112.61</ele>
        <time>2025-05-09T17:16:04Z</time>
      </trkpt>
      <trkpt lat="36.767694018781185" lon="-4.496904965490103">
        <ele>112.61</ele>
        <time>2025-05-09T17:16:05Z</time>
      </trkpt>
      <trkpt lat="36.767741041257977" lon="-4.496847968548536">
        <ele>112.61</ele>
        <time>2025-05-09T17:16:06Z</time>
      </trkpt>
      <trkpt lat="36.767765013501048" lon="-4.496779991313815">
        <ele>112.13</ele>
        <time>2025-05-09T17:16:07Z</time>
      </trkpt>
      <trkpt lat="36.767765013501048" lon="-4.496694998815656">
        <ele>112.13</ele>
        <time>2025-05-09T17:16:08Z</time>
      </trkpt>
      <trkpt lat="36.767765013501048" lon="-4.496593996882439">
        <ele>112.13</ele>
        <time>2025-05-09T17:16:09Z</time>
      </trkpt>
      <trkpt lat="36.767765013501048" lon="-4.496472040191293">
        <ele>111.65000000000001</ele>
        <time>2025-05-09T17:16:10Z</time>
      </trkpt>
      <trkpt lat="36.767789991572499" lon="-4.496328961104155">
        <ele>111.65000000000001</ele>
        <time>2025-05-09T17:16:11Z</time>
      </trkpt>
      <trkpt lat="36.767860986292362" lon="-4.496214967221022">
        <ele>111.65000000000001</ele>
        <time>2025-05-09T17:16:12Z</time>
      </trkpt>
      <trkpt lat="36.767952013760805" lon="-4.496100973337889">
        <ele>111.65000000000001</ele>
        <time>2025-05-09T17:16:13Z</time>
      </trkpt>
      <trkpt lat="36.76804999820888" lon="-4.495983961969614">
        <ele>111.17</ele>
        <time>2025-05-09T17:16:14Z</time>
      </trkpt>
      <trkpt lat="36.768147982656956" lon="-4.495866028591991">
        <ele>111.17</ele>
        <time>2025-05-09T17:16:15Z</time>
      </trkpt>
      <trkpt lat="36.768247978761792" lon="-4.495745999738574">
        <ele>111.17</ele>
        <time>2025-05-09T17:16:16Z</time>
      </trkpt>
      <trkpt lat="36.76837102510035" lon="-4.49565002694726">
        <ele>111.17</ele>
        <time>2025-05-09T17:16:17Z</time>
      </trkpt>
      <trkpt lat="36.768498010933399" lon="-4.495591018348932">
        <ele>111.17</ele>
        <time>2025-05-09T17:16:18Z</time>
      </trkpt>
      <trkpt lat="36.768621979281306" lon="-4.495533015578985">
        <ele>111.17</ele>
        <time>2025-05-09T17:16:19Z</time>
      </trkpt>
      <trkpt lat="36.768762962892652" lon="-4.495582971721888">
        <ele>111.17</ele>
        <time>2025-05-09T17:16:20Z</time>
      </trkpt>
      <trkpt lat="36.768891960382462" lon="-4.495628988370299">
        <ele>111.17</ele>
        <time>2025-05-09T17:16:21Z</time>
      </trkpt>
      <trkpt lat="36.769007965922356" lon="-4.495721021667123">
        <ele>111.65000000000001</ele>
        <time>2025-05-09T17:16:22Z</time>
      </trkpt>
      <trkpt lat="36.769120031967759" lon="-4.495827974751592">
        <ele>111.65000000000001</ele>
        <time>2025-05-09T17:16:23Z</time>
      </trkpt>
      <trkpt lat="36.76923100836575" lon="-4.495932999998331">
        <ele>112.13</ele>
        <time>2025-05-09T17:16:24Z</time>
      </trkpt>
      <trkpt lat="36.76933603361249" lon="-4.496034001931548">
        <ele>112.13</ele>
        <time>2025-05-09T17:16:25Z</time>
      </trkpt>
      <trkpt lat="36.769456984475255" lon="-4.496111031621695">
        <ele>112.61</ele>
        <time>2025-05-09T17:16:26Z</time>
      </trkpt>
      <trkpt lat="36.769587993621826" lon="-4.496155036613345">
        <ele>113.09</ele>
        <time>2025-05-09T17:16:27Z</time>
      </trkpt>
      <trkpt lat="36.769727971404791" lon="-4.496124023571611">
        <ele>113.56999999999999</ele>
        <time>2025-05-09T17:16:28Z</time>
      </trkpt>
      <trkpt lat="36.769844982773066" lon="-4.496049005538225">
        <ele>114.05</ele>
        <time>2025-05-09T17:16:29Z</time>
      </trkpt>
      <trkpt lat="36.769974986091256" lon="-4.495919002220035">
        <ele>114.53</ele>
        <time>2025-05-09T17:16:30Z</time>
      </trkpt>
      <trkpt lat="36.770013961941004" lon="-4.495799979194999">
        <ele>115.01000000000001</ele>
        <time>2025-05-09T17:16:31Z</time>
      </trkpt>
      <trkpt lat="36.77007095888257" lon="-4.49562999419868">
        <ele>115.98</ele>
        <time>2025-05-09T17:16:32Z</time>
      </trkpt>
      <trkpt lat="36.770130973309278" lon="-4.495451040565968">
        <ele>115.98</ele>
        <time>2025-05-09T17:16:33Z</time>
      </trkpt>
      <trkpt lat="36.77021898329258" lon="-4.495281977578998">
        <ele>116.45999999999999</ele>
        <time>2025-05-09T17:16:34Z</time>
      </trkpt>
      <trkpt lat="36.770344963297248" lon="-4.495135964825749">
        <ele>116.45999999999999</ele>
        <time>2025-05-09T17:16:35Z</time>
      </trkpt>
      <trkpt lat="36.770496005192399" lon="-4.495021970942617">
        <ele>116.94</ele>
        <time>2025-05-09T17:16:36Z</time>
      </trkpt>
      <trkpt lat="36.770650986582041" lon="-4.494904959574342">
        <ele>116.94</ele>
        <time>2025-05-09T17:16:37Z</time>
      </trkpt>
      <trkpt lat="36.771087013185024" lon="-4.494575969874859">
        <ele>118.86</ele>
        <time>2025-05-09T17:16:40Z</time>
      </trkpt>
      <trkpt lat="36.771209975704551" lon="-4.494483014568687">
        <ele>119.81999999999999</ele>
        <time>2025-05-09T17:16:41Z</time>
      </trkpt>
      <trkpt lat="36.771308965981007" lon="-4.494372038170695">
        <ele>120.78</ele>
        <time>2025-05-09T17:16:42Z</time>
      </trkpt>
      <trkpt lat="36.771403010934591" lon="-4.494238011538982">
        <ele>121.26000000000001</ele>
        <time>2025-05-09T17:16:43Z</time>
      </trkpt>
      <trkpt lat="36.771476017311215" lon="-4.494072971865535">
        <ele>121.73999999999999</ele>
        <time>2025-05-09T17:16:44Z</time>
      </trkpt>
      <trkpt lat="36.771712973713875" lon="-4.493558993563056">
        <ele>123.67</ele>
        <time>2025-05-09T17:16:47Z</time>
      </trkpt>
      <trkpt lat="36.771824033930898" lon="-4.493447011336684">
        <ele>124.15000000000001</ele>
        <time>2025-05-09T17:16:48Z</time>
      </trkpt>
      <trkpt lat="36.771941967308521" lon="-4.493361013010144">
        <ele>124.63</ele>
        <time>2025-05-09T17:16:49Z</time>
      </trkpt>
      <trkpt lat="36.772078005596995" lon="-4.493300998583436">
        <ele>125.59</ele>
        <time>2025-05-09T17:16:50Z</time>
      </trkpt>
      <trkpt lat="36.772227035835385" lon="-4.493280965834856">
        <ele>126.55</ele>
        <time>2025-05-09T17:16:51Z</time>
      </trkpt>
      <trkpt lat="36.772383023053408" lon="-4.493260011076927">
        <ele>127.03</ele>
        <time>2025-05-09T17:16:52Z</time>
      </trkpt>
      <trkpt lat="36.772540016099811" lon="-4.493238972499967">
        <ele>128.47</ele>
        <time>2025-05-09T17:16:53Z</time>
      </trkpt>
      <trkpt lat="36.772702038288116" lon="-4.493217011913657">
        <ele>129.43000000000001</ele>
        <time>2025-05-09T17:16:54Z</time>
      </trkpt>
      <trkpt lat="36.773022981360555" lon="-4.493130007758737">
        <ele>131.84</ele>
        <time>2025-05-09T17:16:56Z</time>
      </trkpt>
      <trkpt lat="36.773172011598945" lon="-4.493066975846887">
        <ele>133.28</ele>
        <time>2025-05-09T17:16:57Z</time>
      </trkpt>
      <trkpt lat="36.77331299521029" lon="-4.493006961420178">
        <ele>134.72</ele>
        <time>2025-05-09T17:16:58Z</time>
      </trkpt>
      <trkpt lat="36.773436041548848" lon="-4.492958011105657">
        <ele>136.16</ele>
        <time>2025-05-09T17:16:59Z</time>
      </trkpt>
      <trkpt lat="36.773559004068375" lon="-4.492974020540714">
        <ele>137.13</ele>
        <time>2025-05-09T17:17:00Z</time>
      </trkpt>
      <trkpt lat="36.773669980466366" lon="-4.493037974461913">
        <ele>138.56999999999999</ele>
        <time>2025-05-09T17:17:01Z</time>
      </trkpt>
      <trkpt lat="36.773776011541486" lon="-4.493145011365414">
        <ele>139.53</ele>
        <time>2025-05-09T17:17:02Z</time>
      </trkpt>
      <trkpt lat="36.773870978504419" lon="-4.49328800663352">
        <ele>140.00999999999999</ele>
        <time>2025-05-09T17:17:03Z</time>
      </trkpt>
      <trkpt lat="36.773966029286385" lon="-4.493429996073246">
        <ele>141.44999999999999</ele>
        <time>2025-05-09T17:17:04Z</time>
      </trkpt>
      <trkpt lat="36.774063007906079" lon="-4.493554970249534">
        <ele>142.41</ele>
        <time>2025-05-09T17:17:05Z</time>
      </trkpt>
      <trkpt lat="36.774181025102735" lon="-4.49363199993968">
        <ele>143.37</ele>
        <time>2025-05-09T17:17:06Z</time>
      </trkpt>
      <trkpt lat="36.774315973743796" lon="-4.493639040738344">
        <ele>144.34</ele>
        <time>2025-05-09T17:17:07Z</time>
      </trkpt>
      <trkpt lat="36.774465003982186" lon="-4.493624037131667">
        <ele>145.30000000000001</ele>
        <time>2025-05-09T17:17:08Z</time>
      </trkpt>
      <trkpt lat="36.774620991200209" lon="-4.493607021868229">
        <ele>146.25999999999999</ele>
        <time>2025-05-09T17:17:09Z</time>
      </trkpt>
      <trkpt lat="36.774781001731753" lon="-4.493559999391437">
        <ele>146.74000000000001</ele>
        <time>2025-05-09T17:17:10Z</time>
      </trkpt>
      <trkpt lat="36.774943023920059" lon="-4.493497973307967">
        <ele>147.22</ele>
        <time>2025-05-09T17:17:11Z</time>
      </trkpt>
      <trkpt lat="36.775264972820878" lon="-4.493398983031511">
        <ele>148.66</ele>
        <time>2025-05-09T17:17:13Z</time>
      </trkpt>
      <trkpt lat="36.775403022766113" lon="-4.493449022993445">
        <ele>149.62</ele>
        <time>2025-05-09T17:17:14Z</time>
      </trkpt>
      <trkpt lat="36.775679038837552" lon="-4.493549019098282">
        <ele>150.58000000000001</ele>
        <time>2025-05-09T17:17:16Z</time>
      </trkpt>
      <trkpt lat="36.775823039934039" lon="-4.493554970249534">
        <ele>151.53999999999999</ele>
        <time>2025-05-09T17:17:17Z</time>
      </trkpt>
      <trkpt lat="36.776974964886904" lon="-4.493576008826494">
        <ele>157.78999999999999</ele>
        <time>2025-05-09T17:17:24Z</time>
      </trkpt>
      <trkpt lat="36.777145033702254" lon="-4.493552036583424">
        <ele>158.75</ele>
        <time>2025-05-09T17:17:25Z</time>
      </trkpt>
      <trkpt lat="36.777291968464851" lon="-4.493515994399786">
        <ele>159.72</ele>
        <time>2025-05-09T17:17:26Z</time>
      </trkpt>
      <trkpt lat="36.7774379812181" lon="-4.493418009951711">
        <ele>160.68000000000001</ele>
        <time>2025-05-09T17:17:27Z</time>
      </trkpt>
      <trkpt lat="36.77756798453629" lon="-4.493319019675255">
        <ele>161.63999999999999</ele>
        <time>2025-05-09T17:17:28Z</time>
      </trkpt>
      <trkpt lat="36.777679966762662" lon="-4.49317803606391">
        <ele>162.59999999999999</ele>
        <time>2025-05-09T17:17:29Z</time>
      </trkpt>
      <trkpt lat="36.778012979775667" lon="-4.492806969210506">
        <ele>165.96000000000001</ele>
        <time>2025-05-09T17:17:32Z</time>
      </trkpt>
      <trkpt lat="36.778141977265477" lon="-4.492713008075953">
        <ele>167.41</ele>
        <time>2025-05-09T17:17:33Z</time>
      </trkpt>
      <trkpt lat="36.778287990018725" lon="-4.492675038054586">
        <ele>168.37</ele>
        <time>2025-05-09T17:17:34Z</time>
      </trkpt>
      <trkpt lat="36.778723010793328" lon="-4.492538999766111">
        <ele>169.81</ele>
        <time>2025-05-09T17:17:37Z</time>
      </trkpt>
      <trkpt lat="36.778828036040068" lon="-4.492445038631558">
        <ele>169.33000000000001</ele>
        <time>2025-05-09T17:17:38Z</time>
      </trkpt>
      <trkpt lat="36.778909005224705" lon="-4.492316963151097">
        <ele>168.84999999999999</ele>
        <time>2025-05-09T17:17:39Z</time>
      </trkpt>
      <trkpt lat="36.778962984681129" lon="-4.492166005074978">
        <ele>168.37</ele>
        <time>2025-05-09T17:17:40Z</time>
      </trkpt>
      <trkpt lat="36.779017969965935" lon="-4.492012029513717">
        <ele>167.41</ele>
        <time>2025-05-09T17:17:41Z</time>
      </trkpt>
      <trkpt lat="36.779068009927869" lon="-4.49187096208334">
        <ele>166.93000000000001</ele>
        <time>2025-05-09T17:17:42Z</time>
      </trkpt>
      <trkpt lat="36.77913598716259" lon="-4.491773983463645">
        <ele>165.96000000000001</ele>
        <time>2025-05-09T17:17:43Z</time>
      </trkpt>
      <trkpt lat="36.779201030731201" lon="-4.491735007613897">
        <ele>165.47999999999999</ele>
        <time>2025-05-09T17:17:44Z</time>
      </trkpt>
      <trkpt lat="36.779263978824019" lon="-4.491750011220574">
        <ele>164.52000000000001</ele>
        <time>2025-05-09T17:17:45Z</time>
      </trkpt>
      <trkpt lat="36.779299015179276" lon="-4.491787981241942">
        <ele>164.03999999999999</ele>
        <time>2025-05-09T17:17:46Z</time>
      </trkpt>
      <trkpt lat="36.779332039877772" lon="-4.491874985396862">
        <ele>163.08000000000001</ele>
        <time>2025-05-09T17:17:47Z</time>
      </trkpt>
      <trkpt lat="36.779345031827688" lon="-4.491988979279995">
        <ele>162.12</ele>
        <time>2025-05-09T17:17:48Z</time>
      </trkpt>
      <trkpt lat="36.779327010735869" lon="-4.492141027003527">
        <ele>161.16</ele>
        <time>2025-05-09T17:17:49Z</time>
      </trkpt>
      <trkpt lat="36.779306977987289" lon="-4.492311011999846">
        <ele>160.19999999999999</ele>
        <time>2025-05-09T17:17:50Z</time>
      </trkpt>
      <trkpt lat="36.779287029057741" lon="-4.492486026138067">
        <ele>159.24000000000001</ele>
        <time>2025-05-09T17:17:51Z</time>
      </trkpt>
      <trkpt lat="36.779320975765586" lon="-4.492646958678961">
        <ele>157.78999999999999</ele>
        <time>2025-05-09T17:17:52Z</time>
      </trkpt>
      <trkpt lat="36.779354000464082" lon="-4.492803029716015">
        <ele>156.83000000000001</ele>
        <time>2025-05-09T17:17:53Z</time>
      </trkpt>
      <trkpt lat="36.779419966042042" lon="-4.492930015549064">
        <ele>155.38999999999999</ele>
        <time>2025-05-09T17:17:54Z</time>
      </trkpt>
      <trkpt lat="36.779509987682104" lon="-4.493000004440546">
        <ele>153.94999999999999</ele>
        <time>2025-05-09T17:17:55Z</time>
      </trkpt>
      <trkpt lat="36.779613001272082" lon="-4.493049960583448">
        <ele>152.99000000000001</ele>
        <time>2025-05-09T17:17:56Z</time>
      </trkpt>
      <trkpt lat="36.77973504178226" lon="-4.493067981675267">
        <ele>151.53999999999999</ele>
        <time>2025-05-09T17:17:57Z</time>
      </trkpt>
      <trkpt lat="36.779868984594941" lon="-4.493087008595467">
        <ele>150.09999999999999</ele>
        <time>2025-05-09T17:17:58Z</time>
      </trkpt>
      <trkpt lat="36.780010974034667" lon="-4.493107041344047">
        <ele>148.66</ele>
        <time>2025-05-09T17:17:59Z</time>
      </trkpt>
      <trkpt lat="36.780153969302773" lon="-4.493126990273595">
        <ele>147.22</ele>
        <time>2025-05-09T17:18:00Z</time>
      </trkpt>
      <trkpt lat="36.780277015641332" lon="-4.493215000256896">
        <ele>145.30000000000001</ele>
        <time>2025-05-09T17:18:01Z</time>
      </trkpt>
      <trkpt lat="36.780382040888071" lon="-4.493322959169745">
        <ele>143.84999999999999</ele>
        <time>2025-05-09T17:18:02Z</time>
      </trkpt>
      <trkpt lat="36.780452029779553" lon="-4.493464026600123">
        <ele>142.41</ele>
        <time>2025-05-09T17:18:03Z</time>
      </trkpt>
      <trkpt lat="36.780516989529133" lon="-4.493594029918313">
        <ele>140.97</ele>
        <time>2025-05-09T17:18:04Z</time>
      </trkpt>
      <trkpt lat="36.780546996742487" lon="-4.493730990216136">
        <ele>140.00999999999999</ele>
        <time>2025-05-09T17:18:05Z</time>
      </trkpt>
      <trkpt lat="36.780569963157177" lon="-4.493906004354358">
        <ele>138.56999999999999</ele>
        <time>2025-05-09T17:18:06Z</time>
      </trkpt>
      <trkpt lat="36.78059603087604" lon="-4.494097027927637">
        <ele>137.61000000000001</ele>
        <time>2025-05-09T17:18:07Z</time>
      </trkpt>
      <trkpt lat="36.780650010332465" lon="-4.494490977376699">
        <ele>135.19999999999999</ele>
        <time>2025-05-09T17:18:09Z</time>
      </trkpt>
      <trkpt lat="36.780707007274032" lon="-4.494668003171682">
        <ele>133.75999999999999</ele>
        <time>2025-05-09T17:18:10Z</time>
      </trkpt>
      <trkpt lat="36.780779007822275" lon="-4.494828013703227">
        <ele>132.31999999999999</ele>
        <time>2025-05-09T17:18:11Z</time>
      </trkpt>
      <trkpt lat="36.780846985056996" lon="-4.494976960122585">
        <ele>130.88</ele>
        <time>2025-05-09T17:18:12Z</time>
      </trkpt>
      <trkpt lat="36.780894007533789" lon="-4.49513697065413">
        <ele>129.43000000000001</ele>
        <time>2025-05-09T17:18:13Z</time>
      </trkpt>
      <trkpt lat="36.780929965898395" lon="-4.495319025591016">
        <ele>128.47</ele>
        <time>2025-05-09T17:18:14Z</time>
      </trkpt>
      <trkpt lat="36.780970031395555" lon="-4.495520023629069">
        <ele>127.03</ele>
        <time>2025-05-09T17:18:15Z</time>
      </trkpt>
      <trkpt lat="36.781145967543125" lon="-4.49629501439631">
        <ele>124.63</ele>
        <time>2025-05-09T17:18:19Z</time>
      </trkpt>
      <trkpt lat="36.781231965869665" lon="-4.496429963037372">
        <ele>124.63</ele>
        <time>2025-05-09T17:18:20Z</time>
      </trkpt>
      <trkpt lat="36.781321987509727" lon="-4.496572036296129">
        <ele>124.63</ele>
        <time>2025-05-09T17:18:21Z</time>
      </trkpt>
      <trkpt lat="36.781494989991188" lon="-4.496844029054046">
        <ele>125.11</ele>
        <time>2025-05-09T17:18:23Z</time>
      </trkpt>
      <trkpt lat="36.781561961397529" lon="-4.496964979916811">
        <ele>125.59</ele>
        <time>2025-05-09T17:18:24Z</time>
      </trkpt>
      <trkpt lat="36.781561961397529" lon="-4.497105041518807">
        <ele>126.55</ele>
        <time>2025-05-09T17:18:25Z</time>
      </trkpt>
      <trkpt lat="36.781531032174826" lon="-4.497254993766546">
        <ele>127.03</ele>
        <time>2025-05-09T17:18:26Z</time>
      </trkpt>
      <trkpt lat="36.78147898055613" lon="-4.497411986812949">
        <ele>127.98999999999999</ele>
        <time>2025-05-09T17:18:27Z</time>
      </trkpt>
      <trkpt lat="36.781334979459643" lon="-4.49784298427403">
        <ele>128.94999999999999</ele>
        <time>2025-05-09T17:18:30Z</time>
      </trkpt>
      <trkpt lat="36.781337996944785" lon="-4.497996037825942">
        <ele>128.94999999999999</ele>
        <time>2025-05-09T17:18:31Z</time>
      </trkpt>
      <trkpt lat="36.781353000551462" lon="-4.49814397841692">
        <ele>128.94999999999999</ele>
        <time>2025-05-09T17:18:32Z</time>
      </trkpt>
      <trkpt lat="36.781366998329759" lon="-4.498282028362155">
        <ele>128.47</ele>
        <time>2025-05-09T17:18:33Z</time>
      </trkpt>
      <trkpt lat="36.781425001099706" lon="-4.49838001281023">
        <ele>127.98999999999999</ele>
        <time>2025-05-09T17:18:34Z</time>
      </trkpt>
      <trkpt lat="36.781504964455962" lon="-4.498493000864983">
        <ele>127.51000000000001</ele>
        <time>2025-05-09T17:18:35Z</time>
      </trkpt>
      <trkpt lat="36.781591968610883" lon="-4.498615963384509">
        <ele>127.03</ele>
        <time>2025-05-09T17:18:36Z</time>
      </trkpt>
      <trkpt lat="36.781682996079326" lon="-4.498744960874319">
        <ele>126.06999999999999</ele>
        <time>2025-05-09T17:18:37Z</time>
      </trkpt>
      <trkpt lat="36.781775029376149" lon="-4.49887496419251">
        <ele>125.11</ele>
        <time>2025-05-09T17:18:38Z</time>
      </trkpt>
      <trkpt lat="36.781859016045928" lon="-4.498993987217546">
        <ele>124.15000000000001</ele>
        <time>2025-05-09T17:18:39Z</time>
      </trkpt>
      <trkpt lat="36.781934034079313" lon="-4.499100018292666">
        <ele>123.19</ele>
        <time>2025-05-09T17:18:40Z</time>
      </trkpt>
      <trkpt lat="36.782001005485654" lon="-4.499184004962444">
        <ele>122.70999999999999</ele>
        <time>2025-05-09T17:18:41Z</time>
      </trkpt>
      <trkpt lat="36.782097984105349" lon="-4.499222980812192">
        <ele>122.22</ele>
        <time>2025-05-09T17:18:42Z</time>
      </trkpt>
      <trkpt lat="36.782171996310353" lon="-4.499193979427218">
        <ele>121.26000000000001</ele>
        <time>2025-05-09T17:18:43Z</time>
      </trkpt>
      <trkpt lat="36.782264029607177" lon="-4.499157015234232">
        <ele>120.78</ele>
        <time>2025-05-09T17:18:44Z</time>
      </trkpt>
      <trkpt lat="36.782361008226871" lon="-4.499118039384484">
        <ele>120.3</ele>
        <time>2025-05-09T17:18:45Z</time>
      </trkpt>
      <trkpt lat="36.782526969909668" lon="-4.499030029401183">
        <ele>118.38</ele>
        <time>2025-05-09T17:18:47Z</time>
      </trkpt>
      <trkpt lat="36.782612968236208" lon="-4.498922992497683">
        <ele>117.42</ele>
        <time>2025-05-09T17:18:48Z</time>
      </trkpt>
      <trkpt lat="36.782642975449562" lon="-4.49887597002089">
        <ele>116.45999999999999</ele>
        <time>2025-05-09T17:18:49Z</time>
      </trkpt>
      <trkpt lat="36.782686980441213" lon="-4.498805981129408">
        <ele>115.5</ele>
        <time>2025-05-09T17:18:50Z</time>
      </trkpt>
      <trkpt lat="36.782721010968089" lon="-4.498750995844603">
        <ele>114.53</ele>
        <time>2025-05-09T17:18:51Z</time>
      </trkpt>
      <trkpt lat="36.782767027616501" lon="-4.498750995844603">
        <ele>113.56999999999999</ele>
        <time>2025-05-09T17:18:52Z</time>
      </trkpt>
      <trkpt lat="36.782820001244545" lon="-4.498750995844603">
        <ele>112.61</ele>
        <time>2025-05-09T17:18:53Z</time>
      </trkpt>
      <trkpt lat="36.782845985144377" lon="-4.498815033584833">
        <ele>111.65000000000001</ele>
        <time>2025-05-09T17:18:54Z</time>
      </trkpt>
      <trkpt lat="36.782880015671253" lon="-4.49893799610436">
        <ele>110.69</ele>
        <time>2025-05-09T17:18:55Z</time>
      </trkpt>
      <trkpt lat="36.782927960157394" lon="-4.499107981100678">
        <ele>109.73</ele>
        <time>2025-05-09T17:18:56Z</time>
      </trkpt>
      <trkpt lat="36.783116972073913" lon="-4.499667976051569">
        <ele>106.36</ele>
        <time>2025-05-09T17:18:59Z</time>
      </trkpt>
      <trkpt lat="36.783231971785426" lon="-4.499807031825185">
        <ele>105.88</ele>
        <time>2025-05-09T17:19:00Z</time>
      </trkpt>
      <trkpt lat="36.783341020345688" lon="-4.499923037365079">
        <ele>104.92</ele>
        <time>2025-05-09T17:19:01Z</time>
      </trkpt>
      <trkpt lat="36.783439004793763" lon="-4.500020015984774">
        <ele>103.95999999999999</ele>
        <time>2025-05-09T17:19:02Z</time>
      </trkpt>
      <trkpt lat="36.783546963706613" lon="-4.500051029026508">
        <ele>103</ele>
        <time>2025-05-09T17:19:03Z</time>
      </trkpt>
      <trkpt lat="36.783650983124971" lon="-4.500041976571083">
        <ele>102.04000000000001</ele>
        <time>2025-05-09T17:19:04Z</time>
      </trkpt>
      <trkpt lat="36.78373496979475" lon="-4.499967964366078">
        <ele>101.56</ele>
        <time>2025-05-09T17:19:05Z</time>
      </trkpt>
      <trkpt lat="36.783807976171374" lon="-4.499872997403145">
        <ele>101.08</ele>
        <time>2025-05-09T17:19:06Z</time>
      </trkpt>
      <trkpt lat="36.78386396728456" lon="-4.499736037105322">
        <ele>100.59999999999999</ele>
        <time>2025-05-09T17:19:07Z</time>
      </trkpt>
      <trkpt lat="36.783924987539649" lon="-4.499587006866932">
        <ele>100.59999999999999</ele>
        <time>2025-05-09T17:19:08Z</time>
      </trkpt>
      <trkpt lat="36.783991036936641" lon="-4.499424984678626">
        <ele>101.08</ele>
        <time>2025-05-09T17:19:09Z</time>
      </trkpt>
      <trkpt lat="36.784087009727955" lon="-4.499267991632223">
        <ele>101.08</ele>
        <time>2025-05-09T17:19:10Z</time>
      </trkpt>
      <trkpt lat="36.78420796059072" lon="-4.499135976657271">
        <ele>101.56</ele>
        <time>2025-05-09T17:19:11Z</time>
      </trkpt>
      <trkpt lat="36.784523036330938" lon="-4.498793995007873">
        <ele>102.04000000000001</ele>
        <time>2025-05-09T17:19:14Z</time>
      </trkpt>
      <trkpt lat="36.78454801440239" lon="-4.498669020831585">
        <ele>102.04000000000001</ele>
        <time>2025-05-09T17:19:15Z</time>
      </trkpt>
      <trkpt lat="36.784558994695544" lon="-4.498541029170156">
        <ele>102.04000000000001</ele>
        <time>2025-05-09T17:19:16Z</time>
      </trkpt>
      <trkpt lat="36.784509960561991" lon="-4.498280016705394">
        <ele>102.52</ele>
        <time>2025-05-09T17:19:18Z</time>
      </trkpt>
      <trkpt lat="36.784512978047132" lon="-4.498178008943796">
        <ele>102.52</ele>
        <time>2025-05-09T17:19:19Z</time>
      </trkpt>
      <trkpt lat="36.784563018009067" lon="-4.498123023658991">
        <ele>103</ele>
        <time>2025-05-09T17:19:20Z</time>
      </trkpt>
      <trkpt lat="36.78463501855731" lon="-4.498112965375185">
        <ele>103.48</ele>
        <time>2025-05-09T17:19:21Z</time>
      </trkpt>
      <trkpt lat="36.784715987741947" lon="-4.498131992295384">
        <ele>103.95999999999999</ele>
        <time>2025-05-09T17:19:22Z</time>
      </trkpt>
      <trkpt lat="36.784819001331925" lon="-4.498192006722093">
        <ele>103.95999999999999</ele>
        <time>2025-05-09T17:19:23Z</time>
      </trkpt>
      <trkpt lat="36.784930983558297" lon="-4.498256966471672">
        <ele>103.95999999999999</ele>
        <time>2025-05-09T17:19:24Z</time>
      </trkpt>
      <trkpt lat="36.785037014633417" lon="-4.498317986726761">
        <ele>103.95999999999999</ele>
        <time>2025-05-09T17:19:25Z</time>
      </trkpt>
      <trkpt lat="36.785131981596351" lon="-4.49833600781858">
        <ele>103.48</ele>
        <time>2025-05-09T17:19:26Z</time>
      </trkpt>
      <trkpt lat="36.785228038206697" lon="-4.498323015868664">
        <ele>103.48</ele>
        <time>2025-05-09T17:19:27Z</time>
      </trkpt>
      <trkpt lat="36.785279000177979" lon="-4.498241040855646">
        <ele>103.48</ele>
        <time>2025-05-09T17:19:28Z</time>
      </trkpt>
      <trkpt lat="36.785332979634404" lon="-4.498148001730442">
        <ele>103.48</ele>
        <time>2025-05-09T17:19:29Z</time>
      </trkpt>
      <trkpt lat="36.785385031253099" lon="-4.498048005625606">
        <ele>103.95999999999999</ele>
        <time>2025-05-09T17:19:30Z</time>
      </trkpt>
      <trkpt lat="36.785414032638073" lon="-4.497918002307415">
        <ele>103.95999999999999</ele>
        <time>2025-05-09T17:19:31Z</time>
      </trkpt>
      <trkpt lat="36.785444039851427" lon="-4.497786993160844">
        <ele>104.44</ele>
        <time>2025-05-09T17:19:32Z</time>
      </trkpt>
      <trkpt lat="36.78547203540802" lon="-4.497665036469698">
        <ele>104.44</ele>
        <time>2025-05-09T17:19:33Z</time>
      </trkpt>
      <trkpt lat="36.785543030127883" lon="-4.497551964595914">
        <ele>103.95999999999999</ele>
        <time>2025-05-09T17:19:34Z</time>
      </trkpt>
      <trkpt lat="36.785660041496158" lon="-4.497464038431644">
        <ele>103.95999999999999</ele>
        <time>2025-05-09T17:19:35Z</time>
      </trkpt>
      <trkpt lat="36.785787027329206" lon="-4.49741399846971">
        <ele>103.48</ele>
        <time>2025-05-09T17:19:36Z</time>
      </trkpt>
      <trkpt lat="36.785931028425694" lon="-4.497358007356525">
        <ele>102.52</ele>
        <time>2025-05-09T17:19:37Z</time>
      </trkpt>
      <trkpt lat="36.786221964284778" lon="-4.49721802957356">
        <ele>101.08</ele>
        <time>2025-05-09T17:19:39Z</time>
      </trkpt>
      <trkpt lat="36.786363031715155" lon="-4.497109986841679">
        <ele>100.59999999999999</ele>
        <time>2025-05-09T17:19:40Z</time>
      </trkpt>
      <trkpt lat="36.786776008084416" lon="-4.496813016012311">
        <ele>99.150000000000006</ele>
        <time>2025-05-09T17:19:43Z</time>
      </trkpt>
      <trkpt lat="36.786905005574226" lon="-4.496756019070745">
        <ele>98.189999999999998</ele>
        <time>2025-05-09T17:19:44Z</time>
      </trkpt>
      <trkpt lat="36.787059986963868" lon="-4.496763981878758">
        <ele>97.230000000000004</ele>
        <time>2025-05-09T17:19:45Z</time>
      </trkpt>
      <trkpt lat="36.787204993888736" lon="-4.496771022677422">
        <ele>96.269999999999996</ele>
        <time>2025-05-09T17:19:46Z</time>
      </trkpt>
      <trkpt lat="36.78734396584332" lon="-4.49679097160697">
        <ele>94.829999999999998</ele>
        <time>2025-05-09T17:19:47Z</time>
      </trkpt>
      <trkpt lat="36.787482015788555" lon="-4.496850986033678">
        <ele>92.900000000000006</ele>
        <time>2025-05-09T17:19:48Z</time>
      </trkpt>
      <trkpt lat="36.787624005228281" lon="-4.496913012117147">
        <ele>91.459999999999994</ele>
        <time>2025-05-09T17:19:49Z</time>
      </trkpt>
      <trkpt lat="36.787768006324768" lon="-4.496975038200617">
        <ele>89.540000000000006</ele>
        <time>2025-05-09T17:19:50Z</time>
      </trkpt>
      <trkpt lat="36.787920976057649" lon="-4.497001022100449">
        <ele>88.099999999999994</ele>
        <time>2025-05-09T17:19:51Z</time>
      </trkpt>
      <trkpt lat="36.7880720179528" lon="-4.497014014050365">
        <ele>86.659999999999997</ele>
        <time>2025-05-09T17:19:52Z</time>
      </trkpt>
      <trkpt lat="36.788232028484344" lon="-4.49702700600028">
        <ele>85.689999999999998</ele>
        <time>2025-05-09T17:19:53Z</time>
      </trkpt>
      <trkpt lat="36.788389021530747" lon="-4.497057013213635">
        <ele>84.730000000000004</ele>
        <time>2025-05-09T17:19:54Z</time>
      </trkpt>
      <trkpt lat="36.788536962121725" lon="-4.497105963528156">
        <ele>84.25</ele>
        <time>2025-05-09T17:19:55Z</time>
      </trkpt>
      <trkpt lat="36.788655985146761" lon="-4.4971779640764">
        <ele>84.25</ele>
        <time>2025-05-09T17:19:56Z</time>
      </trkpt>
      <trkpt lat="36.788753969594836" lon="-4.49726396240294">
        <ele>84.25</ele>
        <time>2025-05-09T17:19:57Z</time>
      </trkpt>
      <trkpt lat="36.788795040920377" lon="-4.497405029833317">
        <ele>84.730000000000004</ele>
        <time>2025-05-09T17:19:58Z</time>
      </trkpt>
      <trkpt lat="36.788839967921376" lon="-4.49756202287972">
        <ele>85.209999999999994</ele>
        <time>2025-05-09T17:19:59Z</time>
      </trkpt>
      <trkpt lat="36.788884978741407" lon="-4.497721027582884">
        <ele>85.689999999999998</ele>
        <time>2025-05-09T17:20:00Z</time>
      </trkpt>
      <trkpt lat="36.788922026753426" lon="-4.497850025072694">
        <ele>86.180000000000007</ele>
        <time>2025-05-09T17:20:01Z</time>
      </trkpt>
      <trkpt lat="36.789016993716359" lon="-4.497944992035627">
        <ele>86.659999999999997</ele>
        <time>2025-05-09T17:20:02Z</time>
      </trkpt>
      <trkpt lat="36.789097962900996" lon="-4.497995031997562">
        <ele>87.140000000000001</ele>
        <time>2025-05-09T17:20:03Z</time>
      </trkpt>
      <trkpt lat="36.789202988147736" lon="-4.498031996190548">
        <ele>87.620000000000005</ele>
        <time>2025-05-09T17:20:04Z</time>
      </trkpt>
      <trkpt lat="36.78931899368763" lon="-4.498072983697057">
        <ele>87.620000000000005</ele>
        <time>2025-05-09T17:20:05Z</time>
      </trkpt>
      <trkpt lat="36.789442962035537" lon="-4.498115982860327">
        <ele>87.620000000000005</ele>
        <time>2025-05-09T17:20:06Z</time>
      </trkpt>
      <trkpt lat="36.789886029437184" lon="-4.498145990073681">
        <ele>87.140000000000001</ele>
        <time>2025-05-09T17:20:09Z</time>
      </trkpt>
      <trkpt lat="36.7900509852916" lon="-4.498142972588539">
        <ele>86.659999999999997</ele>
        <time>2025-05-09T17:20:10Z</time>
      </trkpt>
      <trkpt lat="36.790919015184045" lon="-4.498068038374186">
        <ele>86.180000000000007</ele>
        <time>2025-05-09T17:20:15Z</time>
      </trkpt>
      <trkpt lat="36.791087994351983" lon="-4.498097039759159">
        <ele>86.180000000000007</ele>
        <time>2025-05-09T17:20:16Z</time>
      </trkpt>
      <trkpt lat="36.791244987398386" lon="-4.498155964538455">
        <ele>86.180000000000007</ele>
        <time>2025-05-09T17:20:17Z</time>
      </trkpt>
      <trkpt lat="36.791523015126586" lon="-4.498319998383522">
        <ele>84.730000000000004</ele>
        <time>2025-05-09T17:20:19Z</time>
      </trkpt>
      <trkpt lat="36.792145036160946" lon="-4.498964985832572">
        <ele>80.409999999999997</ele>
        <time>2025-05-09T17:20:24Z</time>
      </trkpt>
      <trkpt lat="36.792232040315866" lon="-4.499126002192497">
        <ele>79.930000000000007</ele>
        <time>2025-05-09T17:20:25Z</time>
      </trkpt>
      <trkpt lat="36.792309992015362" lon="-4.499311996623874">
        <ele>79.450000000000003</ele>
        <time>2025-05-09T17:20:26Z</time>
      </trkpt>
      <trkpt lat="36.792801003903151" lon="-4.500329978764057">
        <ele>81.370000000000005</ele>
        <time>2025-05-09T17:20:32Z</time>
      </trkpt>
      <trkpt lat="36.792910974472761" lon="-4.500403990969062">
        <ele>82.810000000000002</ele>
        <time>2025-05-09T17:20:33Z</time>
      </trkpt>
      <trkpt lat="36.793038966134191" lon="-4.50048303231597">
        <ele>83.769999999999996</ele>
        <time>2025-05-09T17:20:34Z</time>
      </trkpt>
      <trkpt lat="36.793172992765903" lon="-4.500540029257536">
        <ele>85.209999999999994</ele>
        <time>2025-05-09T17:20:35Z</time>
      </trkpt>
      <trkpt lat="36.793310036882758" lon="-4.500585962086916">
        <ele>86.180000000000007</ele>
        <time>2025-05-09T17:20:36Z</time>
      </trkpt>
      <trkpt lat="36.795065039768815" lon="-4.50087396427989">
        <ele>98.189999999999998</ele>
        <time>2025-05-09T17:20:47Z</time>
      </trkpt>
      <trkpt lat="36.795293027535081" lon="-4.500911012291908">
        <ele>100.11</ele>
        <time>2025-05-09T17:20:49Z</time>
      </trkpt>
      <trkpt lat="36.795395035296679" lon="-4.500884022563696">
        <ele>100.59999999999999</ele>
        <time>2025-05-09T17:20:50Z</time>
      </trkpt>
      <trkpt lat="36.795482961460948" lon="-4.50083096511662">
        <ele>101.08</ele>
        <time>2025-05-09T17:20:51Z</time>
      </trkpt>
      <trkpt lat="36.796183018013835" lon="-4.500408014282584">
        <ele>106.84</ele>
        <time>2025-05-09T17:20:58Z</time>
      </trkpt>
      <trkpt lat="36.79625996388495" lon="-4.500360991805792">
        <ele>107.81</ele>
        <time>2025-05-09T17:20:59Z</time>
      </trkpt>
      <trkpt lat="36.796297011896968" lon="-4.500260995700955">
        <ele>108.77</ele>
        <time>2025-05-09T17:21:00Z</time>
      </trkpt>
      <trkpt lat="36.79634596221149" lon="-4.500125041231513">
        <ele>109.73</ele>
        <time>2025-05-09T17:21:01Z</time>
      </trkpt>
      <trkpt lat="36.796336993575096" lon="-4.500066032633185">
        <ele>110.69</ele>
        <time>2025-05-09T17:21:02Z</time>
      </trkpt>
      <trkpt lat="36.796320984140038" lon="-4.499962013214827">
        <ele>111.65000000000001</ele>
        <time>2025-05-09T17:21:03Z</time>
      </trkpt>
      <trkpt lat="36.796302041038871" lon="-4.499839972704649">
        <ele>112.61</ele>
        <time>2025-05-09T17:21:04Z</time>
      </trkpt>
      <trkpt lat="36.796247977763414" lon="-4.499415010213852">
        <ele>115.98</ele>
        <time>2025-05-09T17:21:07Z</time>
      </trkpt>
      <trkpt lat="36.79625996388495" lon="-4.499288024380803">
        <ele>116.45999999999999</ele>
        <time>2025-05-09T17:21:08Z</time>
      </trkpt>
      <trkpt lat="36.79632400162518" lon="-4.499135976657271">
        <ele>117.42</ele>
        <time>2025-05-09T17:21:09Z</time>
      </trkpt>
      <trkpt lat="36.796377981081605" lon="-4.499008990824223">
        <ele>118.38</ele>
        <time>2025-05-09T17:21:10Z</time>
      </trkpt>
      <trkpt lat="36.79642902687192" lon="-4.498888039961457">
        <ele>118.86</ele>
        <time>2025-05-09T17:21:11Z</time>
      </trkpt>
      <trkpt lat="36.796446964144707" lon="-4.498761976137757">
        <ele>119.34</ele>
        <time>2025-05-09T17:21:12Z</time>
      </trkpt>
      <trkpt lat="36.796416034922004" lon="-4.498661980032921">
        <ele>119.81999999999999</ele>
        <time>2025-05-09T17:21:13Z</time>
      </trkpt>
      <trkpt lat="36.796358032152057" lon="-4.498596014454961">
        <ele>120.3</ele>
        <time>2025-05-09T17:21:14Z</time>
      </trkpt>
      <trkpt lat="36.796267004683614" lon="-4.498554021120071">
        <ele>121.26000000000001</ele>
        <time>2025-05-09T17:21:15Z</time>
      </trkpt>
      <trkpt lat="36.796166002750397" lon="-4.498506998643279">
        <ele>121.73999999999999</ele>
        <time>2025-05-09T17:21:16Z</time>
      </trkpt>
      <trkpt lat="36.79604597389698" lon="-4.498451007530093">
        <ele>122.22</ele>
        <time>2025-05-09T17:21:17Z</time>
      </trkpt>
      <trkpt lat="36.79600297473371" lon="-4.498385963961482">
        <ele>122.70999999999999</ele>
        <time>2025-05-09T17:21:18Z</time>
      </trkpt>
      <trkpt lat="36.795986965298653" lon="-4.498232994228602">
        <ele>123.19</ele>
        <time>2025-05-09T17:21:19Z</time>
      </trkpt>
      <trkpt lat="36.79599903523922" lon="-4.498129980638623">
        <ele>123.67</ele>
        <time>2025-05-09T17:21:20Z</time>
      </trkpt>
      <trkpt lat="36.79604203440249" lon="-4.498030990362167">
        <ele>124.15000000000001</ele>
        <time>2025-05-09T17:21:21Z</time>
      </trkpt>
      <trkpt lat="36.796099031344056" lon="-4.497982040047646">
        <ele>124.15000000000001</ele>
        <time>2025-05-09T17:21:22Z</time>
      </trkpt>
      <trkpt lat="36.79617497138679" lon="-4.497924959287047">
        <ele>124.15000000000001</ele>
        <time>2025-05-09T17:21:23Z</time>
      </trkpt>
      <trkpt lat="36.796247977763414" lon="-4.497847007587552">
        <ele>124.15000000000001</ele>
        <time>2025-05-09T17:21:24Z</time>
      </trkpt>
      <trkpt lat="36.796307992190123" lon="-4.497741982340813">
        <ele>124.15000000000001</ele>
        <time>2025-05-09T17:21:25Z</time>
      </trkpt>
      <trkpt lat="36.796334981918335" lon="-4.497607033699751">
        <ele>124.15000000000001</ele>
        <time>2025-05-09T17:21:26Z</time>
      </trkpt>
      <trkpt lat="36.796337999403477" lon="-4.4974559918046">
        <ele>124.15000000000001</ele>
        <time>2025-05-09T17:21:27Z</time>
      </trkpt>
      <trkpt lat="36.796325007453561" lon="-4.497310984879732">
        <ele>124.15000000000001</ele>
        <time>2025-05-09T17:21:28Z</time>
      </trkpt>
      <trkpt lat="36.796314027160406" lon="-4.497174024581909">
        <ele>124.15000000000001</ele>
        <time>2025-05-09T17:21:29Z</time>
      </trkpt>
      <trkpt lat="36.796308998018503" lon="-4.497047960758209">
        <ele>124.15000000000001</ele>
        <time>2025-05-09T17:21:30Z</time>
      </trkpt>
      <trkpt lat="36.796377981081605" lon="-4.496949976310134">
        <ele>125.11</ele>
        <time>2025-05-09T17:21:31Z</time>
      </trkpt>
      <trkpt lat="36.796449981629848" lon="-4.496847968548536">
        <ele>126.06999999999999</ele>
        <time>2025-05-09T17:21:32Z</time>
      </trkpt>
      <trkpt lat="36.79651502519846" lon="-4.496756019070745">
        <ele>127.03</ele>
        <time>2025-05-09T17:21:33Z</time>
      </trkpt>
      <trkpt lat="36.796561041846871" lon="-4.496663985773921">
        <ele>127.98999999999999</ele>
        <time>2025-05-09T17:21:34Z</time>
      </trkpt>
      <trkpt lat="36.796561041846871" lon="-4.496558038517833">
        <ele>128.47</ele>
        <time>2025-05-09T17:21:35Z</time>
      </trkpt>
      <trkpt lat="36.796547966077924" lon="-4.496429041028023">
        <ele>129.43000000000001</ele>
        <time>2025-05-09T17:21:36Z</time>
      </trkpt>
      <trkpt lat="36.796526005491614" lon="-4.496279004961252">
        <ele>130.40000000000001</ele>
        <time>2025-05-09T17:21:37Z</time>
      </trkpt>
      <trkpt lat="36.796503039076924" lon="-4.496116982772946">
        <ele>130.88</ele>
        <time>2025-05-09T17:21:38Z</time>
      </trkpt>
      <trkpt lat="36.796476971358061" lon="-4.495937023311853">
        <ele>131.84</ele>
        <time>2025-05-09T17:21:39Z</time>
      </trkpt>
      <trkpt lat="36.796450987458229" lon="-4.495751028880477">
        <ele>132.31999999999999</ele>
        <time>2025-05-09T17:21:40Z</time>
      </trkpt>
      <trkpt lat="36.796417962759733" lon="-4.495399994775653">
        <ele>133.75999999999999</ele>
        <time>2025-05-09T17:21:42Z</time>
      </trkpt>
      <trkpt lat="36.796435983851552" lon="-4.495227998122573">
        <ele>135.19999999999999</ele>
        <time>2025-05-09T17:21:43Z</time>
      </trkpt>
      <trkpt lat="36.796455010771751" lon="-4.495048960670829">
        <ele>136.16</ele>
        <time>2025-05-09T17:21:44Z</time>
      </trkpt>
      <trkpt lat="36.796474037691951" lon="-4.494861960411072">
        <ele>137.13</ele>
        <time>2025-05-09T17:21:45Z</time>
      </trkpt>
      <trkpt lat="36.796492980793118" lon="-4.494683006778359">
        <ele>138.09</ele>
        <time>2025-05-09T17:21:46Z</time>
      </trkpt>
      <trkpt lat="36.796551989391446" lon="-4.494542023167014">
        <ele>139.05000000000001</ele>
        <time>2025-05-09T17:21:47Z</time>
      </trkpt>
      <trkpt lat="36.796622984111309" lon="-4.494445966556668">
        <ele>140.00999999999999</ele>
        <time>2025-05-09T17:21:48Z</time>
      </trkpt>
      <trkpt lat="36.796714011579752" lon="-4.494367009028792">
        <ele>141.44999999999999</ele>
        <time>2025-05-09T17:21:49Z</time>
      </trkpt>
      <trkpt lat="36.796804033219814" lon="-4.494288973510265">
        <ele>142.41</ele>
        <time>2025-05-09T17:21:50Z</time>
      </trkpt>
      <trkpt lat="36.796890031546354" lon="-4.494214039295912">
        <ele>143.37</ele>
        <time>2025-05-09T17:21:51Z</time>
      </trkpt>
      <trkpt lat="36.796959014609456" lon="-4.494111025705934">
        <ele>144.34</ele>
        <time>2025-05-09T17:21:52Z</time>
      </trkpt>
      <trkpt lat="36.79696798324585" lon="-4.493972975760698">
        <ele>144.81999999999999</ele>
        <time>2025-05-09T17:21:53Z</time>
      </trkpt>
      <trkpt lat="36.79696798324585" lon="-4.493826040998101">
        <ele>145.30000000000001</ele>
        <time>2025-05-09T17:21:54Z</time>
      </trkpt>
      <trkpt lat="36.79696798324585" lon="-4.493669969961047">
        <ele>145.78</ele>
        <time>2025-05-09T17:21:55Z</time>
      </trkpt>
      <trkpt lat="36.796980975195765" lon="-4.493514988571405">
        <ele>146.25999999999999</ele>
        <time>2025-05-09T17:21:56Z</time>
      </trkpt>
      <trkpt lat="36.797029003500938" lon="-4.49337400496006">
        <ele>147.22</ele>
        <time>2025-05-09T17:21:57Z</time>
      </trkpt>
      <trkpt lat="36.797093963250518" lon="-4.493250036612153">
        <ele>147.69999999999999</ele>
        <time>2025-05-09T17:21:58Z</time>
      </trkpt>
      <trkpt lat="36.797223966568708" lon="-4.493001010268927">
        <ele>148.66</ele>
        <time>2025-05-09T17:22:00Z</time>
      </trkpt>
      <trkpt lat="36.797302002087235" lon="-4.492895985022187">
        <ele>149.62</ele>
        <time>2025-05-09T17:22:01Z</time>
      </trkpt>
      <trkpt lat="36.797396969050169" lon="-4.492842005565763">
        <ele>150.09999999999999</ele>
        <time>2025-05-09T17:22:02Z</time>
      </trkpt>
      <trkpt lat="36.797508029267192" lon="-4.492822978645563">
        <ele>150.58000000000001</ele>
        <time>2025-05-09T17:22:03Z</time>
      </trkpt>
      <trkpt lat="36.797624034807086" lon="-4.492816021665931">
        <ele>151.06</ele>
        <time>2025-05-09T17:22:04Z</time>
      </trkpt>
      <trkpt lat="36.797736017033458" lon="-4.492808980867267">
        <ele>151.53999999999999</ele>
        <time>2025-05-09T17:22:05Z</time>
      </trkpt>
      <trkpt lat="36.797821009531617" lon="-4.492760030552745">
        <ele>152.03</ele>
        <time>2025-05-09T17:22:06Z</time>
      </trkpt>
      <trkpt lat="36.797874988988042" lon="-4.492687024176121">
        <ele>152.50999999999999</ele>
        <time>2025-05-09T17:22:07Z</time>
      </trkpt>
      <trkpt lat="36.797893010079861" lon="-4.492569006979466">
        <ele>152.99000000000001</ele>
        <time>2025-05-09T17:22:08Z</time>
      </trkpt>
      <trkpt lat="36.797911031171679" lon="-4.492446966469288">
        <ele>152.99000000000001</ele>
        <time>2025-05-09T17:22:09Z</time>
      </trkpt>
      <trkpt lat="36.797928968444467" lon="-4.492326015606523">
        <ele>153.47</ele>
        <time>2025-05-09T17:22:10Z</time>
      </trkpt>
      <trkpt lat="36.797971967607737" lon="-4.492216967046261">
        <ele>153.94999999999999</ele>
        <time>2025-05-09T17:22:11Z</time>
      </trkpt>
      <trkpt lat="36.798040028661489" lon="-4.492131974548101">
        <ele>154.43000000000001</ele>
        <time>2025-05-09T17:22:12Z</time>
      </trkpt>
      <trkpt lat="36.798137007281184" lon="-4.492099033668637">
        <ele>154.91</ele>
        <time>2025-05-09T17:22:13Z</time>
      </trkpt>
      <trkpt lat="36.798218982294202" lon="-4.492133986204863">
        <ele>155.87</ele>
        <time>2025-05-09T17:22:14Z</time>
      </trkpt>
      <trkpt lat="36.798276985064149" lon="-4.492206992581487">
        <ele>156.34999999999999</ele>
        <time>2025-05-09T17:22:15Z</time>
      </trkpt>
      <trkpt lat="36.798323001712561" lon="-4.492316041141748">
        <ele>156.83000000000001</ele>
        <time>2025-05-09T17:22:16Z</time>
      </trkpt>
      <trkpt lat="36.798373041674495" lon="-4.492435986176133">
        <ele>157.31</ele>
        <time>2025-05-09T17:22:17Z</time>
      </trkpt>
      <trkpt lat="36.79838502779603" lon="-4.492577975615859">
        <ele>158.27000000000001</ele>
        <time>2025-05-09T17:22:18Z</time>
      </trkpt>
      <trkpt lat="36.79838502779603" lon="-4.492717031389475">
        <ele>159.24000000000001</ele>
        <time>2025-05-09T17:22:19Z</time>
      </trkpt>
      <trkpt lat="36.79838502779603" lon="-4.492844017222524">
        <ele>159.72</ele>
        <time>2025-05-09T17:22:20Z</time>
      </trkpt>
      <trkpt lat="36.798431966453791" lon="-4.492952981963754">
        <ele>160.68000000000001</ele>
        <time>2025-05-09T17:22:21Z</time>
      </trkpt>
      <trkpt lat="36.798470020294189" lon="-4.493001010268927">
        <ele>162.12</ele>
        <time>2025-05-09T17:22:22Z</time>
      </trkpt>
      <trkpt lat="36.798540009185672" lon="-4.492959016934037">
        <ele>163.08000000000001</ele>
        <time>2025-05-09T17:22:23Z</time>
      </trkpt>
      <trkpt lat="36.798604968935251" lon="-4.49292004108429">
        <ele>164.52000000000001</ele>
        <time>2025-05-09T17:22:24Z</time>
      </trkpt>
      <trkpt lat="36.798685016110539" lon="-4.492872012779117">
        <ele>165.47999999999999</ele>
        <time>2025-05-09T17:22:25Z</time>
      </trkpt>
      <trkpt lat="36.798791969195008" lon="-4.492806969210506">
        <ele>166.44999999999999</ele>
        <time>2025-05-09T17:22:26Z</time>
      </trkpt>
      <trkpt lat="36.799092963337898" lon="-4.492721976712346">
        <ele>169.33000000000001</ele>
        <time>2025-05-09T17:22:29Z</time>
      </trkpt>
      <trkpt lat="36.799169993028045" lon="-4.492620974779129">
        <ele>170.28999999999999</ele>
        <time>2025-05-09T17:22:30Z</time>
      </trkpt>
      <trkpt lat="36.799246016889811" lon="-4.492522990331054">
        <ele>171.25</ele>
        <time>2025-05-09T17:22:31Z</time>
      </trkpt>
      <trkpt lat="36.799349030479789" lon="-4.492429029196501">
        <ele>172.21000000000001</ele>
        <time>2025-05-09T17:22:32Z</time>
      </trkpt>
      <trkpt lat="36.799456989392638" lon="-4.492392987012863">
        <ele>173.66</ele>
        <time>2025-05-09T17:22:33Z</time>
      </trkpt>
      <trkpt lat="36.799575006589293" lon="-4.492390975356102">
        <ele>174.62</ele>
        <time>2025-05-09T17:22:34Z</time>
      </trkpt>
      <trkpt lat="36.799686988815665" lon="-4.492431040853262">
        <ele>175.58000000000001</ele>
        <time>2025-05-09T17:22:35Z</time>
      </trkpt>
      <trkpt lat="36.799800982698798" lon="-4.4924929831177">
        <ele>177.02000000000001</ele>
        <time>2025-05-09T17:22:36Z</time>
      </trkpt>
      <trkpt lat="36.799913970753551" lon="-4.492573030292988">
        <ele>177.97999999999999</ele>
        <time>2025-05-09T17:22:37Z</time>
      </trkpt>
      <trkpt lat="36.800026036798954" lon="-4.492675038054586">
        <ele>178.94</ele>
        <time>2025-05-09T17:22:38Z</time>
      </trkpt>
      <trkpt lat="36.800358965992928" lon="-4.492978965863586">
        <ele>182.31</ele>
        <time>2025-05-09T17:22:41Z</time>
      </trkpt>
      <trkpt lat="36.800519982352853" lon="-4.493021965026856">
        <ele>183.27000000000001</ele>
        <time>2025-05-09T17:22:42Z</time>
      </trkpt>
      <trkpt lat="36.800644034519792" lon="-4.493054989725351">
        <ele>184.22999999999999</ele>
        <time>2025-05-09T17:22:43Z</time>
      </trkpt>
      <trkpt lat="36.80077102035284" lon="-4.493038980290294">
        <ele>185.66999999999999</ele>
        <time>2025-05-09T17:22:44Z</time>
      </trkpt>
      <trkpt lat="36.800898006185889" lon="-4.493003021925688">
        <ele>186.15000000000001</ele>
        <time>2025-05-09T17:22:45Z</time>
      </trkpt>
      <trkpt lat="36.801022980362177" lon="-4.49296697974205">
        <ele>187.11000000000001</ele>
        <time>2025-05-09T17:22:46Z</time>
      </trkpt>
      <trkpt lat="36.801135968416929" lon="-4.492934960871935">
        <ele>188.08000000000001</ele>
        <time>2025-05-09T17:22:47Z</time>
      </trkpt>
      <trkpt lat="36.801230013370514" lon="-4.492911994457245">
        <ele>188.08000000000001</ele>
        <time>2025-05-09T17:22:48Z</time>
      </trkpt>
      <trkpt lat="36.801444003358483" lon="-4.49285801500082">
        <ele>187.59</ele>
        <time>2025-05-09T17:22:51Z</time>
      </trkpt>
      <trkpt lat="36.801565960049629" lon="-4.492823984473944">
        <ele>186.63</ele>
        <time>2025-05-09T17:22:57Z</time>
      </trkpt>
      <trkpt lat="36.801565960049629" lon="-4.492823984473944">
        <ele>186.15000000000001</ele>
        <time>2025-05-09T17:23:37Z</time>
      </trkpt>
      <trkpt lat="36.801669979467988" lon="-4.492734968662262">
        <ele>185.19</ele>
        <time>2025-05-09T17:23:56Z</time>
      </trkpt>
      <trkpt lat="36.801727982237935" lon="-4.492674032226205">
        <ele>184.71000000000001</ele>
        <time>2025-05-09T17:23:57Z</time>
      </trkpt>
      <trkpt lat="36.801781039685011" lon="-4.492595996707678">
        <ele>184.22999999999999</ele>
        <time>2025-05-09T17:23:58Z</time>
      </trkpt>
      <trkpt lat="36.801912970840931" lon="-4.492400027811527">
        <ele>183.27000000000001</ele>
        <time>2025-05-09T17:24:00Z</time>
      </trkpt>
      <trkpt lat="36.80229602381587" lon="-4.491831986233592">
        <ele>180.38</ele>
        <time>2025-05-09T17:24:04Z</time>
      </trkpt>
      <trkpt lat="36.8024240154773" lon="-4.49172000400722">
        <ele>179.41999999999999</ele>
        <time>2025-05-09T17:24:05Z</time>
      </trkpt>
      <trkpt lat="36.802568016573787" lon="-4.491627970710397">
        <ele>178.46000000000001</ele>
        <time>2025-05-09T17:24:06Z</time>
      </trkpt>
      <trkpt lat="36.803488014265895" lon="-4.490978959947825">
        <ele>172.69</ele>
        <time>2025-05-09T17:24:12Z</time>
      </trkpt>
      <trkpt lat="36.803641989827156" lon="-4.490897990763187">
        <ele>171.72999999999999</ele>
        <time>2025-05-09T17:24:13Z</time>
      </trkpt>
      <trkpt lat="36.804446987807751" lon="-4.490436986088753">
        <ele>167.41</ele>
        <time>2025-05-09T17:24:18Z</time>
      </trkpt>
      <trkpt lat="36.804603980854154" lon="-4.490415025502443">
        <ele>166.93000000000001</ele>
        <time>2025-05-09T17:24:19Z</time>
      </trkpt>
      <trkpt lat="36.804771032184362" lon="-4.490391975268722">
        <ele>166.44999999999999</ele>
        <time>2025-05-09T17:24:20Z</time>
      </trkpt>
      <trkpt lat="36.804941017180681" lon="-4.490369008854032">
        <ele>166.44999999999999</ele>
        <time>2025-05-09T17:24:21Z</time>
      </trkpt>
      <trkpt lat="36.805116031318903" lon="-4.490318968892098">
        <ele>165.96000000000001</ele>
        <time>2025-05-09T17:24:22Z</time>
      </trkpt>
      <trkpt lat="36.805285010486841" lon="-4.49025996029377">
        <ele>165.47999999999999</ele>
        <time>2025-05-09T17:24:23Z</time>
      </trkpt>
      <trkpt lat="36.805445021018386" lon="-4.490203969180584">
        <ele>165.47999999999999</ele>
        <time>2025-05-09T17:24:24Z</time>
      </trkpt>
      <trkpt lat="36.805592039600015" lon="-4.490216039121151">
        <ele>165</ele>
        <time>2025-05-09T17:24:25Z</time>
      </trkpt>
      <trkpt lat="36.805742997676134" lon="-4.490254009142518">
        <ele>164.03999999999999</ele>
        <time>2025-05-09T17:24:26Z</time>
      </trkpt>
      <trkpt lat="36.805904014036059" lon="-4.490293990820646">
        <ele>163.08000000000001</ele>
        <time>2025-05-09T17:24:27Z</time>
      </trkpt>
      <trkpt lat="36.806071987375617" lon="-4.490317963063717">
        <ele>162.59999999999999</ele>
        <time>2025-05-09T17:24:28Z</time>
      </trkpt>
      <trkpt lat="36.806216994300485" lon="-4.490317963063717">
        <ele>161.63999999999999</ele>
        <time>2025-05-09T17:24:29Z</time>
      </trkpt>
      <trkpt lat="36.806403994560242" lon="-4.49023699387908">
        <ele>161.16</ele>
        <time>2025-05-09T17:24:30Z</time>
      </trkpt>
      <trkpt lat="36.806739019230008" lon="-4.490101039409638">
        <ele>159.72</ele>
        <time>2025-05-09T17:24:32Z</time>
      </trkpt>
      <trkpt lat="36.806910010054708" lon="-4.49008603580296">
        <ele>159.24000000000001</ele>
        <time>2025-05-09T17:24:33Z</time>
      </trkpt>
      <trkpt lat="36.807084018364549" lon="-4.490112019702792">
        <ele>158.75</ele>
        <time>2025-05-09T17:24:34Z</time>
      </trkpt>
      <trkpt lat="36.808555964380503" lon="-4.490426005795598">
        <ele>163.08000000000001</ele>
        <time>2025-05-09T17:24:43Z</time>
      </trkpt>
      <trkpt lat="36.808696025982499" lon="-4.490492977201939">
        <ele>164.03999999999999</ele>
        <time>2025-05-09T17:24:44Z</time>
      </trkpt>
      <trkpt lat="36.808836003765464" lon="-4.49055902659893">
        <ele>164.52000000000001</ele>
        <time>2025-05-09T17:24:45Z</time>
      </trkpt>
      <trkpt lat="36.808971958234906" lon="-4.49062398634851">
        <ele>165.96000000000001</ele>
        <time>2025-05-09T17:24:46Z</time>
      </trkpt>
      <trkpt lat="36.809114031493664" lon="-4.490618035197258">
        <ele>167.41</ele>
        <time>2025-05-09T17:24:47Z</time>
      </trkpt>
      <trkpt lat="36.80925702676177" lon="-4.490588027983904">
        <ele>168.84999999999999</ele>
        <time>2025-05-09T17:24:48Z</time>
      </trkpt>
      <trkpt lat="36.809401027858257" lon="-4.49055802077055">
        <ele>170.28999999999999</ele>
        <time>2025-05-09T17:24:49Z</time>
      </trkpt>
      <trkpt lat="36.809545028954744" lon="-4.490541005507112">
        <ele>171.72999999999999</ele>
        <time>2025-05-09T17:24:50Z</time>
      </trkpt>
      <trkpt lat="36.809681989252567" lon="-4.490586016327143">
        <ele>173.66</ele>
        <time>2025-05-09T17:24:51Z</time>
      </trkpt>
      <trkpt lat="36.809808975085616" lon="-4.490662962198257">
        <ele>175.58000000000001</ele>
        <time>2025-05-09T17:24:52Z</time>
      </trkpt>
      <trkpt lat="36.809930009767413" lon="-4.490746026858687">
        <ele>177.02000000000001</ele>
        <time>2025-05-09T17:24:53Z</time>
      </trkpt>
      <trkpt lat="36.810047021135688" lon="-4.490825990214944">
        <ele>178.46000000000001</ele>
        <time>2025-05-09T17:24:54Z</time>
      </trkpt>
      <trkpt lat="36.81017903611064" lon="-4.490848034620285">
        <ele>179.90000000000001</ele>
        <time>2025-05-09T17:24:55Z</time>
      </trkpt>
      <trkpt lat="36.810462009161711" lon="-4.490892961621285">
        <ele>183.27000000000001</ele>
        <time>2025-05-09T17:24:57Z</time>
      </trkpt>
      <trkpt lat="36.810601986944675" lon="-4.490952976047993">
        <ele>185.19</ele>
        <time>2025-05-09T17:24:58Z</time>
      </trkpt>
      <trkpt lat="36.810746993869543" lon="-4.491008967161179">
        <ele>186.63</ele>
        <time>2025-05-09T17:24:59Z</time>
      </trkpt>
      <trkpt lat="36.810886971652508" lon="-4.491021959111095">
        <ele>188.08000000000001</ele>
        <time>2025-05-09T17:25:00Z</time>
      </trkpt>
      <trkpt lat="36.811016974970698" lon="-4.490993041545153">
        <ele>189.52000000000001</ele>
        <time>2025-05-09T17:25:01Z</time>
      </trkpt>
      <trkpt lat="36.811129963025451" lon="-4.490904025733471">
        <ele>190.96000000000001</ele>
        <time>2025-05-09T17:25:02Z</time>
      </trkpt>
      <trkpt lat="36.811250997707248" lon="-4.490808974951506">
        <ele>192.40000000000001</ele>
        <time>2025-05-09T17:25:03Z</time>
      </trkpt>
      <trkpt lat="36.81138401851058" lon="-4.490711996331811">
        <ele>194.31999999999999</ele>
        <time>2025-05-09T17:25:04Z</time>
      </trkpt>
      <trkpt lat="36.811800012364984" lon="-4.490418964996934">
        <ele>198.65000000000001</ele>
        <time>2025-05-09T17:25:07Z</time>
      </trkpt>
      <trkpt lat="36.812050966545939" lon="-4.490206986665726">
        <ele>201.53</ele>
        <time>2025-05-09T17:25:09Z</time>
      </trkpt>
      <trkpt lat="36.812183987349272" lon="-4.490118976682425">
        <ele>202.49000000000001</ele>
        <time>2025-05-09T17:25:10Z</time>
      </trkpt>
      <trkpt lat="36.812336035072803" lon="-4.490056028589606">
        <ele>203.94</ele>
        <time>2025-05-09T17:25:11Z</time>
      </trkpt>
      <trkpt lat="36.813711002469063" lon="-4.489681022241712">
        <ele>210.19</ele>
        <time>2025-05-09T17:25:19Z</time>
      </trkpt>
      <trkpt lat="36.814332017675042" lon="-4.489351026713848">
        <ele>212.59</ele>
        <time>2025-05-09T17:25:23Z</time>
      </trkpt>
      <trkpt lat="36.81447803042829" lon="-4.489349015057087">
        <ele>213.06999999999999</ele>
        <time>2025-05-09T17:25:24Z</time>
      </trkpt>
      <trkpt lat="36.814634017646313" lon="-4.489374998956919">
        <ele>213.06999999999999</ele>
        <time>2025-05-09T17:25:25Z</time>
      </trkpt>
      <trkpt lat="36.814962001517415" lon="-4.489429984241724">
        <ele>213.55000000000001</ele>
        <time>2025-05-09T17:25:27Z</time>
      </trkpt>
      <trkpt lat="36.815124023705721" lon="-4.489433001726866">
        <ele>214.03</ele>
        <time>2025-05-09T17:25:28Z</time>
      </trkpt>
      <trkpt lat="36.815422000363469" lon="-4.489416992291808">
        <ele>214.03</ele>
        <time>2025-05-09T17:25:30Z</time>
      </trkpt>
      <trkpt lat="36.81557203643024" lon="-4.489470971748233">
        <ele>214.50999999999999</ele>
        <time>2025-05-09T17:25:31Z</time>
      </trkpt>
      <trkpt lat="36.815863978117704" lon="-4.489578008651733">
        <ele>214.99000000000001</ele>
        <time>2025-05-09T17:25:33Z</time>
      </trkpt>
      <trkpt lat="36.816017031669617" lon="-4.489583037793636">
        <ele>215.47</ele>
        <time>2025-05-09T17:25:34Z</time>
      </trkpt>
      <trkpt lat="36.816173018887639" lon="-4.489574991166592">
        <ele>215.47</ele>
        <time>2025-05-09T17:25:35Z</time>
      </trkpt>
      <trkpt lat="36.816334035247564" lon="-4.489565016701818">
        <ele>215.47</ele>
        <time>2025-05-09T17:25:36Z</time>
      </trkpt>
      <trkpt lat="36.816516006365418" lon="-4.489524029195309">
        <ele>215.94999999999999</ele>
        <time>2025-05-09T17:25:37Z</time>
      </trkpt>
      <trkpt lat="36.817417982965708" lon="-4.489244995638728">
        <ele>214.99000000000001</ele>
        <time>2025-05-09T17:25:43Z</time>
      </trkpt>
      <trkpt lat="36.817545974627137" lon="-4.489111974835396">
        <ele>214.50999999999999</ele>
        <time>2025-05-09T17:25:44Z</time>
      </trkpt>
      <trkpt lat="36.817658040672541" lon="-4.488994041457772">
        <ele>214.03</ele>
        <time>2025-05-09T17:25:45Z</time>
      </trkpt>
      <trkpt lat="36.817880999296904" lon="-4.488762030377984">
        <ele>212.11000000000001</ele>
        <time>2025-05-09T17:25:47Z</time>
      </trkpt>
      <trkpt lat="36.818002033978701" lon="-4.488724982365966">
        <ele>211.15000000000001</ele>
        <time>2025-05-09T17:25:48Z</time>
      </trkpt>
      <trkpt lat="36.818132037296891" lon="-4.488716013729572">
        <ele>210.66999999999999</ele>
        <time>2025-05-09T17:25:49Z</time>
      </trkpt>
      <trkpt lat="36.818250976502895" lon="-4.488719031214714">
        <ele>210.19</ele>
        <time>2025-05-09T17:25:50Z</time>
      </trkpt>
      <trkpt lat="36.818371005356312" lon="-4.488786002621055">
        <ele>209.69999999999999</ele>
        <time>2025-05-09T17:25:51Z</time>
      </trkpt>
      <trkpt lat="36.818468989804387" lon="-4.488893039524555">
        <ele>209.69999999999999</ele>
        <time>2025-05-09T17:25:52Z</time>
      </trkpt>
      <trkpt lat="36.818543002009392" lon="-4.489041985943914">
        <ele>209.22</ele>
        <time>2025-05-09T17:25:53Z</time>
      </trkpt>
      <trkpt lat="36.818593963980675" lon="-4.489224040880799">
        <ele>209.69999999999999</ele>
        <time>2025-05-09T17:25:54Z</time>
      </trkpt>
      <trkpt lat="36.818813988938928" lon="-4.490307988598943">
        <ele>211.15000000000001</ele>
        <time>2025-05-09T17:25:59Z</time>
      </trkpt>
      <trkpt lat="36.818828992545605" lon="-4.490557014942169">
        <ele>211.63</ele>
        <time>2025-05-09T17:26:00Z</time>
      </trkpt>
      <trkpt lat="36.818799991160631" lon="-4.491329994052649">
        <ele>213.55000000000001</ele>
        <time>2025-05-09T17:26:03Z</time>
      </trkpt>
      <trkpt lat="36.818768978118896" lon="-4.491580026224256">
        <ele>214.99000000000001</ele>
        <time>2025-05-09T17:26:04Z</time>
      </trkpt>
      <trkpt lat="36.818694965913892" lon="-4.491813965141773">
        <ele>215.94999999999999</ele>
        <time>2025-05-09T17:26:05Z</time>
      </trkpt>
      <trkpt lat="36.818599998950958" lon="-4.492039019241929">
        <ele>217.88</ele>
        <time>2025-05-09T17:26:06Z</time>
      </trkpt>
      <trkpt lat="36.818502014502883" lon="-4.492269018664956">
        <ele>219.31999999999999</ele>
        <time>2025-05-09T17:26:07Z</time>
      </trkpt>
      <trkpt lat="36.817903965711594" lon="-4.493875997141004">
        <ele>231.33000000000001</ele>
        <time>2025-05-09T17:26:14Z</time>
      </trkpt>
      <trkpt lat="36.817846968770027" lon="-4.494113037362695">
        <ele>232.78</ele>
        <time>2025-05-09T17:26:15Z</time>
      </trkpt>
      <trkpt lat="36.817762982100248" lon="-4.494752995669842">
        <ele>235.66</ele>
        <time>2025-05-09T17:26:18Z</time>
      </trkpt>
      <trkpt lat="36.817815033718944" lon="-4.494906971231103">
        <ele>236.13999999999999</ele>
        <time>2025-05-09T17:26:19Z</time>
      </trkpt>
      <trkpt lat="36.81787496432662" lon="-4.495048960670829">
        <ele>236.13999999999999</ele>
        <time>2025-05-09T17:26:20Z</time>
      </trkpt>
      <trkpt lat="36.817983007058501" lon="-4.495137976482511">
        <ele>235.66</ele>
        <time>2025-05-09T17:26:21Z</time>
      </trkpt>
      <trkpt lat="36.818106975406408" lon="-4.495210982859135">
        <ele>235.18000000000001</ele>
        <time>2025-05-09T17:26:22Z</time>
      </trkpt>
      <trkpt lat="36.818256005644798" lon="-4.495225986465812">
        <ele>234.69999999999999</ele>
        <time>2025-05-09T17:26:23Z</time>
      </trkpt>
      <trkpt lat="36.818409981206059" lon="-4.495206959545612">
        <ele>233.74000000000001</ele>
        <time>2025-05-09T17:26:24Z</time>
      </trkpt>
      <trkpt lat="36.818577032536268" lon="-4.495160020887852">
        <ele>232.78</ele>
        <time>2025-05-09T17:26:25Z</time>
      </trkpt>
      <trkpt lat="36.818751040846109" lon="-4.495110986754298">
        <ele>231.81</ele>
        <time>2025-05-09T17:26:26Z</time>
      </trkpt>
      <trkpt lat="36.819812022149563" lon="-4.494760036468506">
        <ele>224.61000000000001</ele>
        <time>2025-05-09T17:26:32Z</time>
      </trkpt>
      <trkpt lat="36.819973960518837" lon="-4.494760036468506">
        <ele>223.16</ele>
        <time>2025-05-09T17:26:33Z</time>
      </trkpt>
      <trkpt lat="36.820120979100466" lon="-4.494803035631776">
        <ele>221.24000000000001</ele>
        <time>2025-05-09T17:26:34Z</time>
      </trkpt>
      <trkpt lat="36.820231033489108" lon="-4.494913006201387">
        <ele>219.80000000000001</ele>
        <time>2025-05-09T17:26:35Z</time>
      </trkpt>
      <trkpt lat="36.82034402154386" lon="-4.495024988427758">
        <ele>217.88</ele>
        <time>2025-05-09T17:26:36Z</time>
      </trkpt>
      <trkpt lat="36.820433959364891" lon="-4.49515700340271">
        <ele>216.43000000000001</ele>
        <time>2025-05-09T17:26:37Z</time>
      </trkpt>
      <trkpt lat="36.820475030690432" lon="-4.495336962863803">
        <ele>214.99000000000001</ele>
        <time>2025-05-09T17:26:38Z</time>
      </trkpt>
      <trkpt lat="36.820486010983586" lon="-4.495529998093844">
        <ele>213.06999999999999</ele>
        <time>2025-05-09T17:26:39Z</time>
      </trkpt>
      <trkpt lat="36.820486010983586" lon="-4.49573895893991">
        <ele>211.63</ele>
        <time>2025-05-09T17:26:40Z</time>
      </trkpt>
      <trkpt lat="36.820497997105122" lon="-4.495957978069782">
        <ele>210.19</ele>
        <time>2025-05-09T17:26:41Z</time>
      </trkpt>
      <trkpt lat="36.820547031238675" lon="-4.496399033814669">
        <ele>207.30000000000001</ele>
        <time>2025-05-09T17:26:43Z</time>
      </trkpt>
      <trkpt lat="36.820510989055037" lon="-4.496589973568916">
        <ele>206.34</ele>
        <time>2025-05-09T17:26:44Z</time>
      </trkpt>
      <trkpt lat="36.82045298628509" lon="-4.496948970481753">
        <ele>203.94</ele>
        <time>2025-05-09T17:26:46Z</time>
      </trkpt>
      <trkpt lat="36.820488022640347" lon="-4.497107975184917">
        <ele>202.49000000000001</ele>
        <time>2025-05-09T17:26:47Z</time>
      </trkpt>
      <trkpt lat="36.820549964904785" lon="-4.497248958796263">
        <ele>201.05000000000001</ele>
        <time>2025-05-09T17:26:48Z</time>
      </trkpt>
      <trkpt lat="36.820649961009622" lon="-4.497363036498427">
        <ele>200.09</ele>
        <time>2025-05-09T17:26:49Z</time>
      </trkpt>
      <trkpt lat="36.820751968771219" lon="-4.49747996404767">
        <ele>199.13</ele>
        <time>2025-05-09T17:26:50Z</time>
      </trkpt>
      <trkpt lat="36.820850959047675" lon="-4.497593035921454">
        <ele>197.69</ele>
        <time>2025-05-09T17:26:51Z</time>
      </trkpt>
      <trkpt lat="36.820894964039326" lon="-4.497768972069025">
        <ele>196.25</ele>
        <time>2025-05-09T17:26:52Z</time>
      </trkpt>
      <trkpt lat="36.820936035364866" lon="-4.497933005914092">
        <ele>195.28</ele>
        <time>2025-05-09T17:26:53Z</time>
      </trkpt>
      <trkpt lat="36.820897981524467" lon="-4.498091004788876">
        <ele>193.84</ele>
        <time>2025-05-09T17:26:54Z</time>
      </trkpt>
      <trkpt lat="36.820840984582901" lon="-4.498252021148801">
        <ele>192.40000000000001</ele>
        <time>2025-05-09T17:26:55Z</time>
      </trkpt>
      <trkpt lat="36.820754986256361" lon="-4.498413037508726">
        <ele>190.96000000000001</ele>
        <time>2025-05-09T17:26:56Z</time>
      </trkpt>
      <trkpt lat="36.820664964616299" lon="-4.498581010848284">
        <ele>189.52000000000001</ele>
        <time>2025-05-09T17:26:57Z</time>
      </trkpt>
      <trkpt lat="36.820571003481746" lon="-4.498755019158125">
        <ele>188.08000000000001</ele>
        <time>2025-05-09T17:26:58Z</time>
      </trkpt>
      <trkpt lat="36.820520041510463" lon="-4.498968003317714">
        <ele>186.15000000000001</ele>
        <time>2025-05-09T17:26:59Z</time>
      </trkpt>
      <trkpt lat="36.820486010983586" lon="-4.499190039932728">
        <ele>184.71000000000001</ele>
        <time>2025-05-09T17:27:00Z</time>
      </trkpt>
      <trkpt lat="36.820496991276741" lon="-4.499409981071949">
        <ele>182.78999999999999</ele>
        <time>2025-05-09T17:27:01Z</time>
      </trkpt>
      <trkpt lat="36.820548959076405" lon="-4.499612990766764">
        <ele>180.87</ele>
        <time>2025-05-09T17:27:02Z</time>
      </trkpt>
      <trkpt lat="36.820611990988255" lon="-4.499814994633198">
        <ele>179.41999999999999</ele>
        <time>2025-05-09T17:27:03Z</time>
      </trkpt>
      <trkpt lat="36.820705030113459" lon="-4.499992020428181">
        <ele>177.5</ele>
        <time>2025-05-09T17:27:04Z</time>
      </trkpt>
      <trkpt lat="36.820815000683069" lon="-4.500149013474584">
        <ele>176.06</ele>
        <time>2025-05-09T17:27:05Z</time>
      </trkpt>
      <trkpt lat="36.820956990122795" lon="-4.500281028449535">
        <ele>175.09999999999999</ele>
        <time>2025-05-09T17:27:06Z</time>
      </trkpt>
      <trkpt lat="36.821099985390902" lon="-4.500412037596107">
        <ele>174.13999999999999</ele>
        <time>2025-05-09T17:27:07Z</time>
      </trkpt>
      <trkpt lat="36.82167598977685" lon="-4.500921992585063">
        <ele>170.77000000000001</ele>
        <time>2025-05-09T17:27:11Z</time>
      </trkpt>
      <trkpt lat="36.82195401750505" lon="-4.501112010329962">
        <ele>169.81</ele>
        <time>2025-05-09T17:27:13Z</time>
      </trkpt>
      <trkpt lat="36.822108998894691" lon="-4.501154003664851">
        <ele>169.33000000000001</ele>
        <time>2025-05-09T17:27:14Z</time>
      </trkpt>
      <trkpt lat="36.822265991941094" lon="-4.501134976744652">
        <ele>168.84999999999999</ele>
        <time>2025-05-09T17:27:15Z</time>
      </trkpt>
      <trkpt lat="36.822460032999516" lon="-4.501089965924621">
        <ele>168.37</ele>
        <time>2025-05-09T17:27:16Z</time>
      </trkpt>
      <trkpt lat="36.822582995519042" lon="-4.500993993133307">
        <ele>168.37</ele>
        <time>2025-05-09T17:27:17Z</time>
      </trkpt>
      <trkpt lat="36.822732025757432" lon="-4.500876981765032">
        <ele>167.88999999999999</ele>
        <time>2025-05-09T17:27:18Z</time>
      </trkpt>
      <trkpt lat="36.823025979101658" lon="-4.500671038404107">
        <ele>167.88999999999999</ele>
        <time>2025-05-09T17:27:20Z</time>
      </trkpt>
      <trkpt lat="36.823174003511667" lon="-4.500603983178735">
        <ele>167.41</ele>
        <time>2025-05-09T17:27:21Z</time>
      </trkpt>
      <trkpt lat="36.823324039578438" lon="-4.500609012320638">
        <ele>167.41</ele>
        <time>2025-05-09T17:27:22Z</time>
      </trkpt>
      <trkpt lat="36.823466029018164" lon="-4.500644970685244">
        <ele>167.41</ele>
        <time>2025-05-09T17:27:23Z</time>
      </trkpt>
      <trkpt lat="36.823591003194451" lon="-4.500728035345674">
        <ele>167.41</ele>
        <time>2025-05-09T17:27:24Z</time>
      </trkpt>
      <trkpt lat="36.823681024834514" lon="-4.500872036442161">
        <ele>167.88999999999999</ele>
        <time>2025-05-09T17:27:25Z</time>
      </trkpt>
      <trkpt lat="36.823739027604461" lon="-4.50102299451828">
        <ele>168.37</ele>
        <time>2025-05-09T17:27:26Z</time>
      </trkpt>
      <trkpt lat="36.823761994019151" lon="-4.501179987564683">
        <ele>168.84999999999999</ele>
        <time>2025-05-09T17:27:27Z</time>
      </trkpt>
      <trkpt lat="36.823747996240854" lon="-4.501326000317931">
        <ele>169.81</ele>
        <time>2025-05-09T17:27:28Z</time>
      </trkpt>
      <trkpt lat="36.823675995692611" lon="-4.501470001414418">
        <ele>170.28999999999999</ele>
        <time>2025-05-09T17:27:29Z</time>
      </trkpt>
      <trkpt lat="36.823601983487606" lon="-4.501617019996047">
        <ele>171.25</ele>
        <time>2025-05-09T17:27:30Z</time>
      </trkpt>
      <trkpt lat="36.823526965454221" lon="-4.501764960587025">
        <ele>172.21000000000001</ele>
        <time>2025-05-09T17:27:31Z</time>
      </trkpt>
      <trkpt lat="36.823453037068248" lon="-4.501918014138937">
        <ele>172.69</ele>
        <time>2025-05-09T17:27:32Z</time>
      </trkpt>
      <trkpt lat="36.823410037904978" lon="-4.502072995528579">
        <ele>173.16999999999999</ele>
        <time>2025-05-09T17:27:33Z</time>
      </trkpt>
      <trkpt lat="36.823370978236198" lon="-4.502214984968305">
        <ele>174.13999999999999</ele>
        <time>2025-05-09T17:27:34Z</time>
      </trkpt>
      <trkpt lat="36.823420012369752" lon="-4.502367032691836">
        <ele>174.62</ele>
        <time>2025-05-09T17:27:35Z</time>
      </trkpt>
      <trkpt lat="36.823486983776093" lon="-4.502499969676137">
        <ele>175.58000000000001</ele>
        <time>2025-05-09T17:27:36Z</time>
      </trkpt>
      <trkpt lat="36.823583962395787" lon="-4.502623016014695">
        <ele>177.02000000000001</ele>
        <time>2025-05-09T17:27:37Z</time>
      </trkpt>
      <trkpt lat="36.823698962107301" lon="-4.50274296104908">
        <ele>177.97999999999999</ele>
        <time>2025-05-09T17:27:38Z</time>
      </trkpt>
      <trkpt lat="36.824852982535958" lon="-4.503784999251366">
        <ele>193.36000000000001</ele>
        <time>2025-05-09T17:27:46Z</time>
      </trkpt>
      <trkpt lat="36.825146013870835" lon="-4.5039870031178">
        <ele>196.72999999999999</ele>
        <time>2025-05-09T17:27:48Z</time>
      </trkpt>
      <trkpt lat="36.825292026624084" lon="-4.504066966474056">
        <ele>198.65000000000001</ele>
        <time>2025-05-09T17:27:49Z</time>
      </trkpt>
      <trkpt lat="36.825452037155628" lon="-4.504109965637326">
        <ele>200.09</ele>
        <time>2025-05-09T17:27:50Z</time>
      </trkpt>
      <trkpt lat="36.825605006888509" lon="-4.504079036414623">
        <ele>201.05000000000001</ele>
        <time>2025-05-09T17:27:51Z</time>
      </trkpt>
      <trkpt lat="36.825763005763292" lon="-4.504012987017632">
        <ele>202.00999999999999</ele>
        <time>2025-05-09T17:27:52Z</time>
      </trkpt>
      <trkpt lat="36.82593097910285" lon="-4.503933023661375">
        <ele>202.97999999999999</ele>
        <time>2025-05-09T17:27:53Z</time>
      </trkpt>
      <trkpt lat="36.82610297575593" lon="-4.503844007849693">
        <ele>203.46000000000001</ele>
        <time>2025-05-09T17:27:54Z</time>
      </trkpt>
      <trkpt lat="36.826268015429378" lon="-4.503743005916476">
        <ele>203.46000000000001</ele>
        <time>2025-05-09T17:27:55Z</time>
      </trkpt>
      <trkpt lat="36.826430037617683" lon="-4.503652984276414">
        <ele>203.46000000000001</ele>
        <time>2025-05-09T17:27:56Z</time>
      </trkpt>
      <trkpt lat="36.826585019007325" lon="-4.503566985949874">
        <ele>203.46000000000001</ele>
        <time>2025-05-09T17:27:57Z</time>
      </trkpt>
      <trkpt lat="36.82674896903336" lon="-4.50355801731348">
        <ele>202.97999999999999</ele>
        <time>2025-05-09T17:27:58Z</time>
      </trkpt>
      <trkpt lat="36.826936975121498" lon="-4.50355801731348">
        <ele>202.00999999999999</ele>
        <time>2025-05-09T17:27:59Z</time>
      </trkpt>
      <trkpt lat="36.827130010351539" lon="-4.50355801731348">
        <ele>200.56999999999999</ele>
        <time>2025-05-09T17:28:00Z</time>
      </trkpt>
      <trkpt lat="36.827700985595584" lon="-4.503634963184595">
        <ele>196.25</ele>
        <time>2025-05-09T17:28:03Z</time>
      </trkpt>
      <trkpt lat="36.827884968370199" lon="-4.503711992874742">
        <ele>194.31999999999999</ele>
        <time>2025-05-09T17:28:04Z</time>
      </trkpt>
      <trkpt lat="36.828069034963846" lon="-4.503788016736507">
        <ele>192.40000000000001</ele>
        <time>2025-05-09T17:28:05Z</time>
      </trkpt>
      <trkpt lat="36.828216975554824" lon="-4.503929000347853">
        <ele>190.47999999999999</ele>
        <time>2025-05-09T17:28:06Z</time>
      </trkpt>
      <trkpt lat="36.828373968601227" lon="-4.504085993394256">
        <ele>188.56</ele>
        <time>2025-05-09T17:28:07Z</time>
      </trkpt>
      <trkpt lat="36.828524004667997" lon="-4.504243992269039">
        <ele>186.63</ele>
        <time>2025-05-09T17:28:08Z</time>
      </trkpt>
      <trkpt lat="36.828624000772834" lon="-4.504448007792234">
        <ele>185.19</ele>
        <time>2025-05-09T17:28:09Z</time>
      </trkpt>
      <trkpt lat="36.828712010756135" lon="-4.504666021093726">
        <ele>183.75</ele>
        <time>2025-05-09T17:28:10Z</time>
      </trkpt>
      <trkpt lat="36.828800020739436" lon="-4.504882022738457">
        <ele>182.78999999999999</ele>
        <time>2025-05-09T17:28:11Z</time>
      </trkpt>
      <trkpt lat="36.828842014074326" lon="-4.505111016333103">
        <ele>181.83000000000001</ele>
        <time>2025-05-09T17:28:12Z</time>
      </trkpt>
      <trkpt lat="36.82887596078217" lon="-4.505339004099369">
        <ele>180.87</ele>
        <time>2025-05-09T17:28:13Z</time>
      </trkpt>
      <trkpt lat="36.828856011852622" lon="-4.505607979372144">
        <ele>179.90000000000001</ele>
        <time>2025-05-09T17:28:14Z</time>
      </trkpt>
      <trkpt lat="36.828836984932423" lon="-4.505867986008525">
        <ele>178.94</ele>
        <time>2025-05-09T17:28:15Z</time>
      </trkpt>
      <trkpt lat="36.828770013526082" lon="-4.506096979603171">
        <ele>178.46000000000001</ele>
        <time>2025-05-09T17:28:16Z</time>
      </trkpt>
      <trkpt lat="36.828688038513064" lon="-4.50630996376276">
        <ele>177.5</ele>
        <time>2025-05-09T17:28:17Z</time>
      </trkpt>
      <trkpt lat="36.82857102714479" lon="-4.506504004821181">
        <ele>177.02000000000001</ele>
        <time>2025-05-09T17:28:18Z</time>
      </trkpt>
      <trkpt lat="36.82844202965498" lon="-4.506659992039204">
        <ele>176.06</ele>
        <time>2025-05-09T17:28:19Z</time>
      </trkpt>
      <trkpt lat="36.828276989981532" lon="-4.506795024499297">
        <ele>175.58000000000001</ele>
        <time>2025-05-09T17:28:20Z</time>
      </trkpt>
      <trkpt lat="36.828109016641974" lon="-4.50690901838243">
        <ele>175.09999999999999</ele>
        <time>2025-05-09T17:28:21Z</time>
      </trkpt>
      <trkpt lat="36.827914975583553" lon="-4.50699401088059">
        <ele>174.62</ele>
        <time>2025-05-09T17:28:22Z</time>
      </trkpt>
      <trkpt lat="36.827720012515783" lon="-4.507050001993775">
        <ele>174.13999999999999</ele>
        <time>2025-05-09T17:28:23Z</time>
      </trkpt>
      <trkpt lat="36.827508034184575" lon="-4.507082020863891">
        <ele>173.16999999999999</ele>
        <time>2025-05-09T17:28:24Z</time>
      </trkpt>
      <trkpt lat="36.827294966205955" lon="-4.507114961743355">
        <ele>172.69</ele>
        <time>2025-05-09T17:28:25Z</time>
      </trkpt>
      <trkpt lat="36.827083993703127" lon="-4.507119990885258">
        <ele>172.21000000000001</ele>
        <time>2025-05-09T17:28:26Z</time>
      </trkpt>
      <trkpt lat="36.826108004897833" lon="-4.507119990885258">
        <ele>168.37</ele>
        <time>2025-05-09T17:28:31Z</time>
      </trkpt>
      <trkpt lat="36.825940031558275" lon="-4.507216969504952">
        <ele>168.37</ele>
        <time>2025-05-09T17:28:32Z</time>
      </trkpt>
      <trkpt lat="36.825850009918213" lon="-4.507270026952028">
        <ele>168.37</ele>
        <time>2025-05-09T17:28:33Z</time>
      </trkpt>
      <trkpt lat="36.825788989663124" lon="-4.507391983643174">
        <ele>168.37</ele>
        <time>2025-05-09T17:28:34Z</time>
      </trkpt>
      <trkpt lat="36.825759988278151" lon="-4.507486028596759">
        <ele>168.37</ele>
        <time>2025-05-09T17:28:35Z</time>
      </trkpt>
      <trkpt lat="36.825748002156615" lon="-4.507607985287905">
        <ele>168.37</ele>
        <time>2025-05-09T17:28:36Z</time>
      </trkpt>
      <trkpt lat="36.825755964964628" lon="-4.507737988606095">
        <ele>168.37</ele>
        <time>2025-05-09T17:28:37Z</time>
      </trkpt>
      <trkpt lat="36.825780021026731" lon="-4.507892969995737">
        <ele>168.84999999999999</ele>
        <time>2025-05-09T17:28:38Z</time>
      </trkpt>
      <trkpt lat="36.825824026018381" lon="-4.50804996304214">
        <ele>169.33000000000001</ele>
        <time>2025-05-09T17:28:39Z</time>
      </trkpt>
      <trkpt lat="36.825884962454438" lon="-4.508212991058826">
        <ele>169.81</ele>
        <time>2025-05-09T17:28:40Z</time>
      </trkpt>
      <trkpt lat="36.825976995751262" lon="-4.508362021297216">
        <ele>170.28999999999999</ele>
        <time>2025-05-09T17:28:41Z</time>
      </trkpt>
      <trkpt lat="36.826044972985983" lon="-4.508505016565323">
        <ele>170.77000000000001</ele>
        <time>2025-05-09T17:28:42Z</time>
      </trkpt>
      <trkpt lat="36.826104987412691" lon="-4.508632002398372">
        <ele>171.72999999999999</ele>
        <time>2025-05-09T17:28:43Z</time>
      </trkpt>
      <trkpt lat="36.826151004061103" lon="-4.508728981018066">
        <ele>172.21000000000001</ele>
        <time>2025-05-09T17:28:44Z</time>
      </trkpt>
      <trkpt lat="36.82623197324574" lon="-4.508768962696195">
        <ele>172.69</ele>
        <time>2025-05-09T17:28:45Z</time>
      </trkpt>
      <trkpt lat="36.826364994049072" lon="-4.508836017921567">
        <ele>172.69</ele>
        <time>2025-05-09T17:28:46Z</time>
      </trkpt>
      <trkpt lat="36.82642500847578" lon="-4.508834006264806">
        <ele>172.69</ele>
        <time>2025-05-09T17:28:47Z</time>
      </trkpt>
      <trkpt lat="36.826971005648375" lon="-4.508788995444775">
        <ele>172.69</ele>
        <time>2025-05-09T17:28:51Z</time>
      </trkpt>
      <trkpt lat="36.827120035886765" lon="-4.508733004331589">
        <ele>172.69</ele>
        <time>2025-05-09T17:28:52Z</time>
      </trkpt>
      <trkpt lat="36.82726202532649" lon="-4.508680030703545">
        <ele>172.69</ele>
        <time>2025-05-09T17:28:53Z</time>
      </trkpt>
      <trkpt lat="36.827417006716132" lon="-4.508622027933598">
        <ele>172.69</ele>
        <time>2025-05-09T17:28:54Z</time>
      </trkpt>
      <trkpt lat="36.827547010034323" lon="-4.508599983528256">
        <ele>172.69</ele>
        <time>2025-05-09T17:28:55Z</time>
      </trkpt>
      <trkpt lat="36.827805005013943" lon="-4.508557990193367">
        <ele>172.21000000000001</ele>
        <time>2025-05-09T17:28:57Z</time>
      </trkpt>
      <trkpt lat="36.827920004725456" lon="-4.508586991578341">
        <ele>171.72999999999999</ele>
        <time>2025-05-09T17:28:58Z</time>
      </trkpt>
      <trkpt lat="36.828027041628957" lon="-4.508612975478172">
        <ele>171.25</ele>
        <time>2025-05-09T17:28:59Z</time>
      </trkpt>
      <trkpt lat="36.828116979449987" lon="-4.508678019046783">
        <ele>170.77000000000001</ele>
        <time>2025-05-09T17:29:00Z</time>
      </trkpt>
      <trkpt lat="36.828185962513089" lon="-4.508787989616394">
        <ele>169.81</ele>
        <time>2025-05-09T17:29:01Z</time>
      </trkpt>
      <trkpt lat="36.828232984989882" lon="-4.508938025683165">
        <ele>168.84999999999999</ele>
        <time>2025-05-09T17:29:02Z</time>
      </trkpt>
      <trkpt lat="36.828287970274687" lon="-4.509113039821386">
        <ele>167.88999999999999</ele>
        <time>2025-05-09T17:29:03Z</time>
      </trkpt>
      <trkpt lat="36.828345973044634" lon="-4.509300040081143">
        <ele>166.93000000000001</ele>
        <time>2025-05-09T17:29:04Z</time>
      </trkpt>
      <trkpt lat="36.828394001349807" lon="-4.509499026462436">
        <ele>165.96000000000001</ele>
        <time>2025-05-09T17:29:05Z</time>
      </trkpt>
      <trkpt lat="36.828425014391541" lon="-4.509716033935547">
        <ele>165.96000000000001</ele>
        <time>2025-05-09T17:29:06Z</time>
      </trkpt>
      <trkpt lat="36.828354019671679" lon="-4.511110028252006">
        <ele>165.96000000000001</ele>
        <time>2025-05-09T17:29:12Z</time>
      </trkpt>
      <trkpt lat="36.828252011910081" lon="-4.511759961023927">
        <ele>166.93000000000001</ele>
        <time>2025-05-09T17:29:15Z</time>
      </trkpt>
      <trkpt lat="36.828242037445307" lon="-4.511975040659308">
        <ele>167.41</ele>
        <time>2025-05-09T17:29:16Z</time>
      </trkpt>
      <trkpt lat="36.828263998031616" lon="-4.512190036475658">
        <ele>167.41</ele>
        <time>2025-05-09T17:29:17Z</time>
      </trkpt>
      <trkpt lat="36.828437000513077" lon="-4.513614038005471">
        <ele>169.33000000000001</ele>
        <time>2025-05-09T17:29:25Z</time>
      </trkpt>
      <trkpt lat="36.828447980806231" lon="-4.513770025223494">
        <ele>169.81</ele>
        <time>2025-05-09T17:29:26Z</time>
      </trkpt>
      <trkpt lat="36.828459966927767" lon="-4.513930035755038">
        <ele>169.81</ele>
        <time>2025-05-09T17:29:27Z</time>
      </trkpt>
      <trkpt lat="36.82846600189805" lon="-4.514089962467551">
        <ele>170.28999999999999</ele>
        <time>2025-05-09T17:29:28Z</time>
      </trkpt>
      <trkpt lat="36.828458039090037" lon="-4.514229018241167">
        <ele>170.28999999999999</ele>
        <time>2025-05-09T17:29:29Z</time>
      </trkpt>
      <trkpt lat="36.828454015776515" lon="-4.514502016827464">
        <ele>170.77000000000001</ele>
        <time>2025-05-09T17:29:33Z</time>
      </trkpt>
      <trkpt lat="36.828458961099386" lon="-4.514554990455508">
        <ele>170.77000000000001</ele>
        <time>2025-05-09T17:29:34Z</time>
      </trkpt>
      <trkpt lat="36.82846499606967" lon="-4.514609975740314">
        <ele>170.77000000000001</ele>
        <time>2025-05-09T17:29:35Z</time>
      </trkpt>
      <trkpt lat="36.828472036868334" lon="-4.514675019308925">
        <ele>170.77000000000001</ele>
        <time>2025-05-09T17:29:36Z</time>
      </trkpt>
      <trkpt lat="36.828479999676347" lon="-4.514755988493562">
        <ele>171.25</ele>
        <time>2025-05-09T17:29:37Z</time>
      </trkpt>
      <trkpt lat="36.828499026596546" lon="-4.51528899371624">
        <ele>170.28999999999999</ele>
        <time>2025-05-09T17:29:42Z</time>
      </trkpt>
      <trkpt lat="36.828481005504727" lon="-4.51539502479136">
        <ele>170.28999999999999</ele>
        <time>2025-05-09T17:29:43Z</time>
      </trkpt>
      <trkpt lat="36.828426020219922" lon="-4.515484040603042">
        <ele>170.28999999999999</ele>
        <time>2025-05-09T17:29:44Z</time>
      </trkpt>
      <trkpt lat="36.82784398086369" lon="-4.516528006643057">
        <ele>169.81</ele>
        <time>2025-05-09T17:29:54Z</time>
      </trkpt>
      <trkpt lat="36.827351041138172" lon="-4.517482034862042">
        <ele>171.25</ele>
        <time>2025-05-09T17:30:01Z</time>
      </trkpt>
      <trkpt lat="36.826516035944223" lon="-4.51849197037518">
        <ele>177.02000000000001</ele>
        <time>2025-05-09T17:30:09Z</time>
      </trkpt>
      <trkpt lat="36.826434982940555" lon="-4.51866103336215">
        <ele>177.5</ele>
        <time>2025-05-09T17:30:10Z</time>
      </trkpt>
      <trkpt lat="36.826359964907169" lon="-4.518820038065314">
        <ele>178.46000000000001</ele>
        <time>2025-05-09T17:30:11Z</time>
      </trkpt>
      <trkpt lat="36.826300034299493" lon="-4.518974013626576">
        <ele>178.94</ele>
        <time>2025-05-09T17:30:12Z</time>
      </trkpt>
      <trkpt lat="36.826291987672448" lon="-4.51915598474443">
        <ele>179.41999999999999</ele>
        <time>2025-05-09T17:30:13Z</time>
      </trkpt>
      <trkpt lat="36.826284024864435" lon="-4.519342985004187">
        <ele>179.41999999999999</ele>
        <time>2025-05-09T17:30:14Z</time>
      </trkpt>
      <trkpt lat="36.826298022642732" lon="-4.519528979435563">
        <ele>179.90000000000001</ele>
        <time>2025-05-09T17:30:15Z</time>
      </trkpt>
      <trkpt lat="36.826346972957253" lon="-4.519721008837223">
        <ele>179.90000000000001</ele>
        <time>2025-05-09T17:30:16Z</time>
      </trkpt>
      <trkpt lat="36.826397012919188" lon="-4.519918989390135">
        <ele>179.90000000000001</ele>
        <time>2025-05-09T17:30:17Z</time>
      </trkpt>
      <trkpt lat="36.826584013178945" lon="-4.520479990169406">
        <ele>179.41999999999999</ele>
        <time>2025-05-09T17:30:20Z</time>
      </trkpt>
      <trkpt lat="36.826678980141878" lon="-4.52061896212399">
        <ele>179.41999999999999</ele>
        <time>2025-05-09T17:30:21Z</time>
      </trkpt>
      <trkpt lat="36.826787022873759" lon="-4.520736979320645">
        <ele>179.41999999999999</ele>
        <time>2025-05-09T17:30:22Z</time>
      </trkpt>
      <trkpt lat="36.82691803202033" lon="-4.52078802511096">
        <ele>179.41999999999999</ele>
        <time>2025-05-09T17:30:23Z</time>
      </trkpt>
      <trkpt lat="36.827049041166902" lon="-4.520827000960708">
        <ele>179.41999999999999</ele>
        <time>2025-05-09T17:30:24Z</time>
      </trkpt>
      <trkpt lat="36.827178038656712" lon="-4.520794982090592">
        <ele>179.41999999999999</ele>
        <time>2025-05-09T17:30:25Z</time>
      </trkpt>
      <trkpt lat="36.827288009226322" lon="-4.520712001249194">
        <ele>178.94</ele>
        <time>2025-05-09T17:30:26Z</time>
      </trkpt>
      <trkpt lat="36.827394962310791" lon="-4.520617034286261">
        <ele>178.94</ele>
        <time>2025-05-09T17:30:27Z</time>
      </trkpt>
      <trkpt lat="36.827451959252357" lon="-4.52044595964253">
        <ele>178.94</ele>
        <time>2025-05-09T17:30:28Z</time>
      </trkpt>
      <trkpt lat="36.827512979507446" lon="-4.520263988524675">
        <ele>178.94</ele>
        <time>2025-05-09T17:30:29Z</time>
      </trkpt>
      <trkpt lat="36.827577017247677" lon="-4.520071959123015">
        <ele>178.94</ele>
        <time>2025-05-09T17:30:30Z</time>
      </trkpt>
      <trkpt lat="36.827783966436982" lon="-4.519450021907687">
        <ele>178.94</ele>
        <time>2025-05-09T17:30:33Z</time>
      </trkpt>
      <trkpt lat="36.828135000541806" lon="-4.518718030303717">
        <ele>180.38</ele>
        <time>2025-05-09T17:30:37Z</time>
      </trkpt>
      <trkpt lat="36.828248994424939" lon="-4.518604036420584">
        <ele>180.87</ele>
        <time>2025-05-09T17:30:38Z</time>
      </trkpt>
      <trkpt lat="36.828386960551143" lon="-4.518537987023592">
        <ele>181.34999999999999</ele>
        <time>2025-05-09T17:30:39Z</time>
      </trkpt>
      <trkpt lat="36.828532973304391" lon="-4.518485013395548">
        <ele>181.34999999999999</ele>
        <time>2025-05-09T17:30:40Z</time>
      </trkpt>
      <trkpt lat="36.828687032684684" lon="-4.518430028110743">
        <ele>181.83000000000001</ele>
        <time>2025-05-09T17:30:41Z</time>
      </trkpt>
      <trkpt lat="36.829015016555786" lon="-4.518364984542131">
        <ele>181.34999999999999</ele>
        <time>2025-05-09T17:30:43Z</time>
      </trkpt>
      <trkpt lat="36.829166980460286" lon="-4.518407983705401">
        <ele>180.87</ele>
        <time>2025-05-09T17:30:44Z</time>
      </trkpt>
      <trkpt lat="36.829315004870296" lon="-4.518455006182194">
        <ele>180.38</ele>
        <time>2025-05-09T17:30:45Z</time>
      </trkpt>
      <trkpt lat="36.829467974603176" lon="-4.518494987860322">
        <ele>179.41999999999999</ele>
        <time>2025-05-09T17:30:46Z</time>
      </trkpt>
      <trkpt lat="36.829631002619863" lon="-4.51851099729538">
        <ele>178.46000000000001</ele>
        <time>2025-05-09T17:30:47Z</time>
      </trkpt>
      <trkpt lat="36.831205040216446" lon="-4.518787013366818">
        <ele>176.06</ele>
        <time>2025-05-09T17:30:56Z</time>
      </trkpt>
      <trkpt lat="36.831489019095898" lon="-4.518849039450288">
        <ele>177.5</ele>
        <time>2025-05-09T17:30:58Z</time>
      </trkpt>
      <trkpt lat="36.831631008535624" lon="-4.518820038065314">
        <ele>177.97999999999999</ele>
        <time>2025-05-09T17:30:59Z</time>
      </trkpt>
      <trkpt lat="36.831772997975349" lon="-4.518791036680341">
        <ele>178.94</ele>
        <time>2025-05-09T17:31:00Z</time>
      </trkpt>
      <trkpt lat="36.83190300129354" lon="-4.518763963133097">
        <ele>179.41999999999999</ele>
        <time>2025-05-09T17:31:01Z</time>
      </trkpt>
      <trkpt lat="36.832014983519912" lon="-4.518739990890026">
        <ele>180.38</ele>
        <time>2025-05-09T17:31:02Z</time>
      </trkpt>
      <trkpt lat="36.832127971574664" lon="-4.518771003931761">
        <ele>180.87</ele>
        <time>2025-05-09T17:31:03Z</time>
      </trkpt>
      <trkpt lat="36.832239031791687" lon="-4.518859013915062">
        <ele>181.34999999999999</ele>
        <time>2025-05-09T17:31:04Z</time>
      </trkpt>
      <trkpt lat="36.832360988482833" lon="-4.518953980877996">
        <ele>181.34999999999999</ele>
        <time>2025-05-09T17:31:05Z</time>
      </trkpt>
      <trkpt lat="36.832469031214714" lon="-4.519084990024567">
        <ele>181.83000000000001</ele>
        <time>2025-05-09T17:31:06Z</time>
      </trkpt>
      <trkpt lat="36.832574978470802" lon="-4.51922002248466">
        <ele>182.31</ele>
        <time>2025-05-09T17:31:07Z</time>
      </trkpt>
      <trkpt lat="36.832683021202683" lon="-4.519356982782483">
        <ele>182.31</ele>
        <time>2025-05-09T17:31:08Z</time>
      </trkpt>
      <trkpt lat="36.832746975123882" lon="-4.519525961950421">
        <ele>182.31</ele>
        <time>2025-05-09T17:31:09Z</time>
      </trkpt>
      <trkpt lat="36.832799026742578" lon="-4.519682032987475">
        <ele>181.83000000000001</ele>
        <time>2025-05-09T17:31:10Z</time>
      </trkpt>
      <trkpt lat="36.832802966237068" lon="-4.519825028255582">
        <ele>181.83000000000001</ele>
        <time>2025-05-09T17:31:11Z</time>
      </trkpt>
      <trkpt lat="36.832789974287152" lon="-4.519971963018179">
        <ele>181.34999999999999</ele>
        <time>2025-05-09T17:31:12Z</time>
      </trkpt>
      <trkpt lat="36.832742029801011" lon="-4.520125016570091">
        <ele>181.34999999999999</ele>
        <time>2025-05-09T17:31:13Z</time>
      </trkpt>
      <trkpt lat="36.832695007324219" lon="-4.520273040980101">
        <ele>180.87</ele>
        <time>2025-05-09T17:31:14Z</time>
      </trkpt>
      <trkpt lat="36.832695007324219" lon="-4.520434979349375">
        <ele>180.38</ele>
        <time>2025-05-09T17:31:15Z</time>
      </trkpt>
      <trkpt lat="36.832723002880812" lon="-4.520570011809468">
        <ele>179.90000000000001</ele>
        <time>2025-05-09T17:31:16Z</time>
      </trkpt>
      <trkpt lat="36.8327840231359" lon="-4.520703032612801">
        <ele>179.41999999999999</ele>
        <time>2025-05-09T17:31:17Z</time>
      </trkpt>
      <trkpt lat="36.832853006199002" lon="-4.52085399068892">
        <ele>178.46000000000001</ele>
        <time>2025-05-09T17:31:18Z</time>
      </trkpt>
      <trkpt lat="36.832930035889149" lon="-4.521020958200097">
        <ele>177.97999999999999</ele>
        <time>2025-05-09T17:31:19Z</time>
      </trkpt>
      <trkpt lat="36.833003964275122" lon="-4.521208964288235">
        <ele>177.5</ele>
        <time>2025-05-09T17:31:20Z</time>
      </trkpt>
      <trkpt lat="36.833776021376252" lon="-4.52280999161303">
        <ele>179.90000000000001</ele>
        <time>2025-05-09T17:31:28Z</time>
      </trkpt>
      <trkpt lat="36.833882974460721" lon="-4.523004032671452">
        <ele>180.87</ele>
        <time>2025-05-09T17:31:29Z</time>
      </trkpt>
      <trkpt lat="36.833998980000615" lon="-4.52315398491919">
        <ele>181.34999999999999</ele>
        <time>2025-05-09T17:31:30Z</time>
      </trkpt>
      <trkpt lat="36.834128983318806" lon="-4.523262027651072">
        <ele>181.83000000000001</ele>
        <time>2025-05-09T17:31:31Z</time>
      </trkpt>
      <trkpt lat="36.834260998293757" lon="-4.523369986563921">
        <ele>182.31</ele>
        <time>2025-05-09T17:31:32Z</time>
      </trkpt>
      <trkpt lat="36.834410028532147" lon="-4.523460008203983">
        <ele>182.78999999999999</ele>
        <time>2025-05-09T17:31:33Z</time>
      </trkpt>
      <trkpt lat="36.834568027406931" lon="-4.52353997156024">
        <ele>183.27000000000001</ele>
        <time>2025-05-09T17:31:34Z</time>
      </trkpt>
      <trkpt lat="36.834728959947824" lon="-4.52362303622067">
        <ele>183.27000000000001</ele>
        <time>2025-05-09T17:31:35Z</time>
      </trkpt>
      <trkpt lat="36.835294989868999" lon="-4.523911038413644">
        <ele>183.75</ele>
        <time>2025-05-09T17:31:39Z</time>
      </trkpt>
      <trkpt lat="36.835399009287357" lon="-4.523964012041688">
        <ele>184.22999999999999</ele>
        <time>2025-05-09T17:31:40Z</time>
      </trkpt>
      <trkpt lat="36.835474027320743" lon="-4.524058979004622">
        <ele>184.71000000000001</ele>
        <time>2025-05-09T17:31:41Z</time>
      </trkpt>
      <trkpt lat="36.835563965141773" lon="-4.524172972887754">
        <ele>185.19</ele>
        <time>2025-05-09T17:31:42Z</time>
      </trkpt>
      <trkpt lat="36.83566203340888" lon="-4.524298030883074">
        <ele>185.66999999999999</ele>
        <time>2025-05-09T17:31:43Z</time>
      </trkpt>
      <trkpt lat="36.835865965113044" lon="-4.524558959528804">
        <ele>186.63</ele>
        <time>2025-05-09T17:31:45Z</time>
      </trkpt>
      <trkpt lat="36.835921034216881" lon="-4.52472098171711">
        <ele>187.11000000000001</ele>
        <time>2025-05-09T17:31:46Z</time>
      </trkpt>
      <trkpt lat="36.835975013673306" lon="-4.524888033047319">
        <ele>187.59</ele>
        <time>2025-05-09T17:31:47Z</time>
      </trkpt>
      <trkpt lat="36.836026981472969" lon="-4.525050977244973">
        <ele>188.08000000000001</ele>
        <time>2025-05-09T17:31:48Z</time>
      </trkpt>
      <trkpt lat="36.836064029484987" lon="-4.525165976956487">
        <ele>188.56</ele>
        <time>2025-05-09T17:31:49Z</time>
      </trkpt>
      <trkpt lat="36.836167965084314" lon="-4.525291034951806">
        <ele>189.03999999999999</ele>
        <time>2025-05-09T17:31:50Z</time>
      </trkpt>
      <trkpt lat="36.836267039179802" lon="-4.525334034115076">
        <ele>189.52000000000001</ele>
        <time>2025-05-09T17:31:51Z</time>
      </trkpt>
      <trkpt lat="36.83637198060751" lon="-4.525378039106727">
        <ele>190.47999999999999</ele>
        <time>2025-05-09T17:31:52Z</time>
      </trkpt>
      <trkpt lat="36.836489997804165" lon="-4.52540896832943">
        <ele>190.96000000000001</ele>
        <time>2025-05-09T17:31:53Z</time>
      </trkpt>
      <trkpt lat="36.836600974202156" lon="-4.525422966107726">
        <ele>191.91999999999999</ele>
        <time>2025-05-09T17:31:54Z</time>
      </trkpt>
      <trkpt lat="36.836709016934037" lon="-4.525391031056643">
        <ele>192.40000000000001</ele>
        <time>2025-05-09T17:31:55Z</time>
      </trkpt>
      <trkpt lat="36.836787974461913" lon="-4.52536697499454">
        <ele>193.36000000000001</ele>
        <time>2025-05-09T17:31:56Z</time>
      </trkpt>
      <trkpt lat="36.836851006373763" lon="-4.525326993316412">
        <ele>193.84</ele>
        <time>2025-05-09T17:31:57Z</time>
      </trkpt>
      <trkpt lat="36.836916971951723" lon="-4.525266978889704">
        <ele>194.31999999999999</ele>
        <time>2025-05-09T17:31:58Z</time>
      </trkpt>
      <trkpt lat="36.836998024955392" lon="-4.52519397251308">
        <ele>194.31999999999999</ele>
        <time>2025-05-09T17:31:59Z</time>
      </trkpt>
      <trkpt lat="36.837582997977734" lon="-4.52474202029407">
        <ele>193.36000000000001</ele>
        <time>2025-05-09T17:32:04Z</time>
      </trkpt>
      <trkpt lat="36.838525962084532" lon="-4.52401296235621">
        <ele>195.28</ele>
        <time>2025-05-09T17:32:11Z</time>
      </trkpt>
      <trkpt lat="36.838623024523258" lon="-4.523915983736515">
        <ele>196.25</ele>
        <time>2025-05-09T17:32:12Z</time>
      </trkpt>
      <trkpt lat="36.83873500674963" lon="-4.523858986794949">
        <ele>196.72999999999999</ele>
        <time>2025-05-09T17:32:13Z</time>
      </trkpt>
      <trkpt lat="36.838856963440776" lon="-4.523826967924833">
        <ele>197.21000000000001</ele>
        <time>2025-05-09T17:32:14Z</time>
      </trkpt>
      <trkpt lat="36.838990990072489" lon="-4.523793021216989">
        <ele>198.16999999999999</ele>
        <time>2025-05-09T17:32:15Z</time>
      </trkpt>
      <trkpt lat="36.839403966441751" lon="-4.523619012907147">
        <ele>199.13</ele>
        <time>2025-05-09T17:32:18Z</time>
      </trkpt>
      <trkpt lat="36.839520977810025" lon="-4.523510970175266">
        <ele>199.13</ele>
        <time>2025-05-09T17:32:19Z</time>
      </trkpt>
      <trkpt lat="36.839978964999318" lon="-4.523006966337562">
        <ele>200.56999999999999</ele>
        <time>2025-05-09T17:32:23Z</time>
      </trkpt>
      <trkpt lat="36.840252969413996" lon="-4.522618968039751">
        <ele>202.49000000000001</ele>
        <time>2025-05-09T17:32:26Z</time>
      </trkpt>
      <trkpt lat="36.840340979397297" lon="-4.522478990256786">
        <ele>202.97999999999999</ele>
        <time>2025-05-09T17:32:27Z</time>
      </trkpt>
      <trkpt lat="36.840422032400966" lon="-4.522350998595357">
        <ele>203.94</ele>
        <time>2025-05-09T17:32:28Z</time>
      </trkpt>
      <trkpt lat="36.840491015464067" lon="-4.522241028025746">
        <ele>204.41999999999999</ele>
        <time>2025-05-09T17:32:29Z</time>
      </trkpt>
      <trkpt lat="36.840576007962227" lon="-4.522171039134264">
        <ele>205.38</ele>
        <time>2025-05-09T17:32:30Z</time>
      </trkpt>
      <trkpt lat="36.84066804125905" lon="-4.522147988900542">
        <ele>205.86000000000001</ele>
        <time>2025-05-09T17:32:31Z</time>
      </trkpt>
      <trkpt lat="36.840763008221984" lon="-4.522124016657472">
        <ele>206.34</ele>
        <time>2025-05-09T17:32:32Z</time>
      </trkpt>
      <trkpt lat="36.840866021811962" lon="-4.52209803275764">
        <ele>206.34</ele>
        <time>2025-05-09T17:32:33Z</time>
      </trkpt>
      <trkpt lat="36.840955037623644" lon="-4.522013040259481">
        <ele>206.81999999999999</ele>
        <time>2025-05-09T17:32:34Z</time>
      </trkpt>
      <trkpt lat="36.841048998758197" lon="-4.521918995305896">
        <ele>207.30000000000001</ele>
        <time>2025-05-09T17:32:35Z</time>
      </trkpt>
      <trkpt lat="36.841139020398259" lon="-4.521811036393046">
        <ele>207.30000000000001</ele>
        <time>2025-05-09T17:32:36Z</time>
      </trkpt>
      <trkpt lat="36.841325014829636" lon="-4.521564021706581">
        <ele>208.25999999999999</ele>
        <time>2025-05-09T17:32:38Z</time>
      </trkpt>
      <trkpt lat="36.841410007327795" lon="-4.521447010338306">
        <ele>208.74000000000001</ele>
        <time>2025-05-09T17:32:39Z</time>
      </trkpt>
      <trkpt lat="36.841457029804587" lon="-4.521321030333638">
        <ele>209.22</ele>
        <time>2025-05-09T17:32:40Z</time>
      </trkpt>
      <trkpt lat="36.841475972905755" lon="-4.521199995651841">
        <ele>209.22</ele>
        <time>2025-05-09T17:32:41Z</time>
      </trkpt>
      <trkpt lat="36.841482007876039" lon="-4.521078038960695">
        <ele>209.22</ele>
        <time>2025-05-09T17:32:42Z</time>
      </trkpt>
      <trkpt lat="36.841488964855671" lon="-4.520954992622137">
        <ele>209.22</ele>
        <time>2025-05-09T17:32:43Z</time>
      </trkpt>
      <trkpt lat="36.841513020917773" lon="-4.520844016224146">
        <ele>209.22</ele>
        <time>2025-05-09T17:32:44Z</time>
      </trkpt>
      <trkpt lat="36.841578986495733" lon="-4.52074502594769">
        <ele>209.22</ele>
        <time>2025-05-09T17:32:45Z</time>
      </trkpt>
      <trkpt lat="36.841652998700738" lon="-4.520633965730667">
        <ele>209.22</ele>
        <time>2025-05-09T17:32:46Z</time>
      </trkpt>
      <trkpt lat="36.841732962056994" lon="-4.52053003013134">
        <ele>208.74000000000001</ele>
        <time>2025-05-09T17:32:47Z</time>
      </trkpt>
      <trkpt lat="36.841837987303734" lon="-4.520436991006136">
        <ele>208.25999999999999</ele>
        <time>2025-05-09T17:32:48Z</time>
      </trkpt>
      <trkpt lat="36.841948041692376" lon="-4.520341018214822">
        <ele>207.78</ele>
        <time>2025-05-09T17:32:49Z</time>
      </trkpt>
      <trkpt lat="36.842059018090367" lon="-4.520243033766747">
        <ele>207.78</ele>
        <time>2025-05-09T17:32:50Z</time>
      </trkpt>
      <trkpt lat="36.842272002249956" lon="-4.52005603350699">
        <ele>207.30000000000001</ele>
        <time>2025-05-09T17:32:52Z</time>
      </trkpt>
      <trkpt lat="36.842729989439249" lon="-4.519683960825205">
        <ele>206.81999999999999</ele>
        <time>2025-05-09T17:32:57Z</time>
      </trkpt>
      <trkpt lat="36.842819005250931" lon="-4.5196289755404">
        <ele>207.30000000000001</ele>
        <time>2025-05-09T17:32:58Z</time>
      </trkpt>
      <trkpt lat="36.842887988314033" lon="-4.51958698220551">
        <ele>207.30000000000001</ele>
        <time>2025-05-09T17:32:59Z</time>
      </trkpt>
      <trkpt lat="36.843000976368785" lon="-4.519539037719369">
        <ele>207.30000000000001</ele>
        <time>2025-05-09T17:33:00Z</time>
      </trkpt>
      <trkpt lat="36.843099966645241" lon="-4.519496960565448">
        <ele>207.30000000000001</ele>
        <time>2025-05-09T17:33:01Z</time>
      </trkpt>
      <trkpt lat="36.843300964683294" lon="-4.519411968067288">
        <ele>207.30000000000001</ele>
        <time>2025-05-09T17:33:03Z</time>
      </trkpt>
      <trkpt lat="36.843445971608162" lon="-4.519351031631231">
        <ele>207.78</ele>
        <time>2025-05-09T17:33:04Z</time>
      </trkpt>
      <trkpt lat="36.843528030440211" lon="-4.519360000267625">
        <ele>208.25999999999999</ele>
        <time>2025-05-09T17:33:05Z</time>
      </trkpt>
      <trkpt lat="36.843648981302977" lon="-4.519377015531063">
        <ele>208.74000000000001</ele>
        <time>2025-05-09T17:33:06Z</time>
      </trkpt>
      <trkpt lat="36.843764986842871" lon="-4.519428983330727">
        <ele>209.22</ele>
        <time>2025-05-09T17:33:07Z</time>
      </trkpt>
      <trkpt lat="36.843888033181429" lon="-4.519483968615532">
        <ele>210.19</ele>
        <time>2025-05-09T17:33:08Z</time>
      </trkpt>
      <trkpt lat="36.844140999019146" lon="-4.519569966942072">
        <ele>211.63</ele>
        <time>2025-05-09T17:33:10Z</time>
      </trkpt>
      <trkpt lat="36.844275025650859" lon="-4.519578013569117">
        <ele>212.11000000000001</ele>
        <time>2025-05-09T17:33:11Z</time>
      </trkpt>
      <trkpt lat="36.845426028594375" lon="-4.519646996632218">
        <ele>218.36000000000001</ele>
        <time>2025-05-09T17:33:19Z</time>
      </trkpt>
      <trkpt lat="36.845484031364322" lon="-4.519651019945741">
        <ele>218.36000000000001</ele>
        <time>2025-05-09T17:33:20Z</time>
      </trkpt>
      <trkpt lat="36.845604982227087" lon="-4.519717991352081">
        <ele>217.88</ele>
        <time>2025-05-09T17:33:21Z</time>
      </trkpt>
      <trkpt lat="36.845676982775331" lon="-4.51975797303021">
        <ele>217.88</ele>
        <time>2025-05-09T17:33:22Z</time>
      </trkpt>
      <trkpt lat="36.845698021352291" lon="-4.519847994670272">
        <ele>217.40000000000001</ele>
        <time>2025-05-09T17:33:23Z</time>
      </trkpt>
      <trkpt lat="36.845724005252123" lon="-4.519958971068263">
        <ele>217.40000000000001</ele>
        <time>2025-05-09T17:33:24Z</time>
      </trkpt>
      <trkpt lat="36.845760969445109" lon="-4.52008000575006">
        <ele>217.40000000000001</ele>
        <time>2025-05-09T17:33:25Z</time>
      </trkpt>
      <trkpt lat="36.845816038548946" lon="-4.520201040431857">
        <ele>216.91</ele>
        <time>2025-05-09T17:33:26Z</time>
      </trkpt>
      <trkpt lat="36.846171012148261" lon="-4.520980976521969">
        <ele>220.28</ele>
        <time>2025-05-09T17:33:32Z</time>
      </trkpt>
      <trkpt lat="36.846171012148261" lon="-4.521116008982062">
        <ele>221.24000000000001</ele>
        <time>2025-05-09T17:33:33Z</time>
      </trkpt>
      <trkpt lat="36.846171012148261" lon="-4.521231008693576">
        <ele>221.72</ele>
        <time>2025-05-09T17:33:34Z</time>
      </trkpt>
      <trkpt lat="36.846171012148261" lon="-4.521346008405089">
        <ele>222.68000000000001</ele>
        <time>2025-05-09T17:33:35Z</time>
      </trkpt>
      <trkpt lat="36.846171012148261" lon="-4.521461008116603">
        <ele>223.16</ele>
        <time>2025-05-09T17:33:36Z</time>
      </trkpt>
      <trkpt lat="36.846198001876473" lon="-4.521553041413426">
        <ele>223.63999999999999</ele>
        <time>2025-05-09T17:33:37Z</time>
      </trkpt>
      <trkpt lat="36.846259022131562" lon="-4.521630993112922">
        <ele>224.12</ele>
        <time>2025-05-09T17:33:38Z</time>
      </trkpt>
      <trkpt lat="36.846337979659438" lon="-4.521717997267842">
        <ele>224.61000000000001</ele>
        <time>2025-05-09T17:33:39Z</time>
      </trkpt>
      <trkpt lat="36.846445016562939" lon="-4.521764013916254">
        <ele>225.09</ele>
        <time>2025-05-09T17:33:40Z</time>
      </trkpt>
      <trkpt lat="36.846580971032381" lon="-4.521768959239125">
        <ele>225.56999999999999</ele>
        <time>2025-05-09T17:33:41Z</time>
      </trkpt>
      <trkpt lat="36.846720026805997" lon="-4.521760996431112">
        <ele>225.56999999999999</ele>
        <time>2025-05-09T17:33:42Z</time>
      </trkpt>
      <trkpt lat="36.846836032345891" lon="-4.52175403945148">
        <ele>226.05000000000001</ele>
        <time>2025-05-09T17:33:43Z</time>
      </trkpt>
      <trkpt lat="36.846968969330192" lon="-4.521667035296559">
        <ele>226.05000000000001</ele>
        <time>2025-05-09T17:33:44Z</time>
      </trkpt>
      <trkpt lat="36.847073994576931" lon="-4.521598974242806">
        <ele>226.53</ele>
        <time>2025-05-09T17:33:45Z</time>
      </trkpt>
      <trkpt lat="36.847172984853387" lon="-4.521534014493227">
        <ele>226.53</ele>
        <time>2025-05-09T17:33:46Z</time>
      </trkpt>
      <trkpt lat="36.84726401232183" lon="-4.521475005894899">
        <ele>226.05000000000001</ele>
        <time>2025-05-09T17:33:47Z</time>
      </trkpt>
      <trkpt lat="36.84735001064837" lon="-4.521436030045152">
        <ele>226.05000000000001</ele>
        <time>2025-05-09T17:33:48Z</time>
      </trkpt>
      <trkpt lat="36.84743600897491" lon="-4.5214559789747">
        <ele>225.56999999999999</ele>
        <time>2025-05-09T17:33:49Z</time>
      </trkpt>
      <trkpt lat="36.847528964281082" lon="-4.52147601172328">
        <ele>225.56999999999999</ele>
        <time>2025-05-09T17:33:50Z</time>
      </trkpt>
      <trkpt lat="36.84762803837657" lon="-4.521497972309589">
        <ele>225.56999999999999</ele>
        <time>2025-05-09T17:33:51Z</time>
      </trkpt>
      <trkpt lat="36.847833981737494" lon="-4.521556980907917">
        <ele>226.05000000000001</ele>
        <time>2025-05-09T17:33:53Z</time>
      </trkpt>
      <trkpt lat="36.84790899977088" lon="-4.521581958979368">
        <ele>226.05000000000001</ele>
        <time>2025-05-09T17:33:54Z</time>
      </trkpt>
      <trkpt lat="36.847993992269039" lon="-4.521667035296559">
        <ele>226.53</ele>
        <time>2025-05-09T17:33:55Z</time>
      </trkpt>
      <trkpt lat="36.848063981160522" lon="-4.521738030016422">
        <ele>226.53</ele>
        <time>2025-05-09T17:33:56Z</time>
      </trkpt>
      <trkpt lat="36.84812399558723" lon="-4.52179703861475">
        <ele>227.00999999999999</ele>
        <time>2025-05-09T17:33:57Z</time>
      </trkpt>
      <trkpt lat="36.848220974206924" lon="-4.521882031112909">
        <ele>227.97</ele>
        <time>2025-05-09T17:33:58Z</time>
      </trkpt>
      <trkpt lat="36.84831602498889" lon="-4.521965011954308">
        <ele>228.93000000000001</ele>
        <time>2025-05-09T17:33:59Z</time>
      </trkpt>
      <trkpt lat="36.848418032750487" lon="-4.52205503359437">
        <ele>229.41</ele>
        <time>2025-05-09T17:34:00Z</time>
      </trkpt>
      <trkpt lat="36.848765965551138" lon="-4.52235896140337">
        <ele>233.25999999999999</ele>
        <time>2025-05-09T17:34:03Z</time>
      </trkpt>
      <trkpt lat="36.848852969706059" lon="-4.522474966943264">
        <ele>234.69999999999999</ele>
        <time>2025-05-09T17:34:04Z</time>
      </trkpt>
      <trkpt lat="36.848920024931431" lon="-4.522600024938583">
        <ele>235.18000000000001</ele>
        <time>2025-05-09T17:34:05Z</time>
      </trkpt>
      <trkpt lat="36.848968975245953" lon="-4.52272298745811">
        <ele>236.13999999999999</ele>
        <time>2025-05-09T17:34:06Z</time>
      </trkpt>
      <trkpt lat="36.849013986065984" lon="-4.522860031574965">
        <ele>236.62</ele>
        <time>2025-05-09T17:34:07Z</time>
      </trkpt>
      <trkpt lat="36.849065031856298" lon="-4.523013001307845">
        <ele>236.62</ele>
        <time>2025-05-09T17:34:08Z</time>
      </trkpt>
      <trkpt lat="36.849244991317391" lon="-4.523562015965581">
        <ele>238.53999999999999</ele>
        <time>2025-05-09T17:34:11Z</time>
      </trkpt>
      <trkpt lat="36.849290002137423" lon="-4.523771982640028">
        <ele>239.50999999999999</ele>
        <time>2025-05-09T17:34:12Z</time>
      </trkpt>
      <trkpt lat="36.849396033212543" lon="-4.524357039481401">
        <ele>241.43000000000001</ele>
        <time>2025-05-09T17:34:15Z</time>
      </trkpt>
      <trkpt lat="36.849458981305361" lon="-4.524513026699424">
        <ele>241.91</ele>
        <time>2025-05-09T17:34:16Z</time>
      </trkpt>
      <trkpt lat="36.849566018208861" lon="-4.524650992825627">
        <ele>242.38999999999999</ele>
        <time>2025-05-09T17:34:17Z</time>
      </trkpt>
      <trkpt lat="36.850311001762748" lon="-4.525633016601205">
        <ele>248.63999999999999</ele>
        <time>2025-05-09T17:34:23Z</time>
      </trkpt>
      <trkpt lat="36.850408986210823" lon="-4.525822028517723">
        <ele>250.08000000000001</ele>
        <time>2025-05-09T17:34:24Z</time>
      </trkpt>
      <trkpt lat="36.850591963157058" lon="-4.526165015995503">
        <ele>252.96000000000001</ele>
        <time>2025-05-09T17:34:26Z</time>
      </trkpt>
      <trkpt lat="36.850683996453881" lon="-4.526302982121706">
        <ele>254.41</ele>
        <time>2025-05-09T17:34:27Z</time>
      </trkpt>
      <trkpt lat="36.850765971466899" lon="-4.526425022631884">
        <ele>255.84999999999999</ele>
        <time>2025-05-09T17:34:28Z</time>
      </trkpt>
      <trkpt lat="36.850830009207129" lon="-4.526530969887972">
        <ele>256.81</ele>
        <time>2025-05-09T17:34:29Z</time>
      </trkpt>
      <trkpt lat="36.850856998935342" lon="-4.526649992913008">
        <ele>258.25</ele>
        <time>2025-05-09T17:34:30Z</time>
      </trkpt>
      <trkpt lat="36.850864961743355" lon="-4.526776978746057">
        <ele>259.20999999999998</ele>
        <time>2025-05-09T17:34:31Z</time>
      </trkpt>
      <trkpt lat="36.850852975621819" lon="-4.526914022862911">
        <ele>259.69</ele>
        <time>2025-05-09T17:34:32Z</time>
      </trkpt>
      <trkpt lat="36.850775023922324" lon="-4.527262039482594">
        <ele>262.57999999999998</ele>
        <time>2025-05-09T17:34:35Z</time>
      </trkpt>
      <trkpt lat="36.850740993395448" lon="-4.527339991182089">
        <ele>263.54000000000002</ele>
        <time>2025-05-09T17:34:36Z</time>
      </trkpt>
      <trkpt lat="36.850692965090275" lon="-4.527400005608797">
        <ele>264.98000000000002</ele>
        <time>2025-05-09T17:34:37Z</time>
      </trkpt>
      <trkpt lat="36.850652983412147" lon="-4.527452979236841">
        <ele>265.94</ele>
        <time>2025-05-09T17:34:38Z</time>
      </trkpt>
      <trkpt lat="36.850619958713651" lon="-4.527494972571731">
        <ele>266.89999999999998</ele>
        <time>2025-05-09T17:34:39Z</time>
      </trkpt>
      <trkpt lat="36.850613001734018" lon="-4.527504025027156">
        <ele>267.38</ele>
        <time>2025-05-09T17:34:40Z</time>
      </trkpt>
      <trkpt lat="36.850603027269244" lon="-4.527551969513297">
        <ele>268.82999999999998</ele>
        <time>2025-05-09T17:34:41Z</time>
      </trkpt>
      <trkpt lat="36.850597998127341" lon="-4.52757996506989">
        <ele>269.31</ele>
        <time>2025-05-09T17:34:42Z</time>
      </trkpt>
      <trkpt lat="36.850656000897288" lon="-4.527611983940005">
        <ele>270.26999999999998</ele>
        <time>2025-05-09T17:34:43Z</time>
      </trkpt>
      <trkpt lat="36.850697994232178" lon="-4.527611983940005">
        <ele>272.19</ele>
        <time>2025-05-09T17:34:44Z</time>
      </trkpt>
      <trkpt lat="36.850768988952041" lon="-4.527531014755368">
        <ele>273.14999999999998</ele>
        <time>2025-05-09T17:34:45Z</time>
      </trkpt>
      <trkpt lat="36.850849036127329" lon="-4.527439987286925">
        <ele>274.11000000000001</ele>
        <time>2025-05-09T17:34:46Z</time>
      </trkpt>
      <trkpt lat="36.850878037512302" lon="-4.527334962040186">
        <ele>274.58999999999997</ele>
        <time>2025-05-09T17:34:47Z</time>
      </trkpt>
      <trkpt lat="36.850921036675572" lon="-4.527181992307305">
        <ele>275.06999999999999</ele>
        <time>2025-05-09T17:34:48Z</time>
      </trkpt>
      <trkpt lat="36.851228987798095" lon="-4.526115981861949">
        <ele>279.88</ele>
        <time>2025-05-09T17:34:54Z</time>
      </trkpt>
      <trkpt lat="36.851296965032816" lon="-4.525958988815546">
        <ele>280.83999999999997</ele>
        <time>2025-05-09T17:34:55Z</time>
      </trkpt>
      <trkpt lat="36.851381035521626" lon="-4.525827979668975">
        <ele>281.80000000000001</ele>
        <time>2025-05-09T17:34:56Z</time>
      </trkpt>
      <trkpt lat="36.851465022191405" lon="-4.525696970522404">
        <ele>283.25</ele>
        <time>2025-05-09T17:34:57Z</time>
      </trkpt>
      <trkpt lat="36.851550014689565" lon="-4.525563027709723">
        <ele>284.69</ele>
        <time>2025-05-09T17:34:58Z</time>
      </trkpt>
      <trkpt lat="36.851938012987375" lon="-4.524918962270021">
        <ele>289.49000000000001</ele>
        <time>2025-05-09T17:35:03Z</time>
      </trkpt>
      <trkpt lat="36.852057036012411" lon="-4.524615034461021">
        <ele>291.42000000000002</ele>
        <time>2025-05-09T17:35:05Z</time>
      </trkpt>
      <trkpt lat="36.852144962176681" lon="-4.524471033364534">
        <ele>292.38</ele>
        <time>2025-05-09T17:35:06Z</time>
      </trkpt>
      <trkpt lat="36.852238001301885" lon="-4.52437698841095">
        <ele>293.81999999999999</ele>
        <time>2025-05-09T17:35:07Z</time>
      </trkpt>
      <trkpt lat="36.852360041812062" lon="-4.524319991469383">
        <ele>294.77999999999997</ele>
        <time>2025-05-09T17:35:08Z</time>
      </trkpt>
      <trkpt lat="36.852481998503208" lon="-4.524304987862706">
        <ele>296.22000000000003</ele>
        <time>2025-05-09T17:35:09Z</time>
      </trkpt>
      <trkpt lat="36.852603033185005" lon="-4.524288978427649">
        <ele>297.18000000000001</ele>
        <time>2025-05-09T17:35:10Z</time>
      </trkpt>
      <trkpt lat="36.852950965985656" lon="-4.524264000356197">
        <ele>299.58999999999997</ele>
        <time>2025-05-09T17:35:13Z</time>
      </trkpt>
      <trkpt lat="36.853040987625718" lon="-4.524212032556534">
        <ele>300.55000000000001</ele>
        <time>2025-05-09T17:35:14Z</time>
      </trkpt>
      <trkpt lat="36.853263024240732" lon="-4.524081023409963">
        <ele>301.99000000000001</ele>
        <time>2025-05-09T17:35:16Z</time>
      </trkpt>
      <trkpt lat="36.853384980931878" lon="-4.524029977619648">
        <ele>302.94999999999999</ele>
        <time>2025-05-09T17:35:17Z</time>
      </trkpt>
      <trkpt lat="36.85388496145606" lon="-4.52386099845171">
        <ele>306.31999999999999</ele>
        <time>2025-05-09T17:35:21Z</time>
      </trkpt>
      <trkpt lat="36.853954028338194" lon="-4.523756979033351">
        <ele>306.80000000000001</ele>
        <time>2025-05-09T17:35:22Z</time>
      </trkpt>
      <trkpt lat="36.85401395894587" lon="-4.523653965443373">
        <ele>307.27999999999997</ele>
        <time>2025-05-09T17:35:23Z</time>
      </trkpt>
      <trkpt lat="36.854059975594282" lon="-4.523525973781943">
        <ele>307.75999999999999</ele>
        <time>2025-05-09T17:35:24Z</time>
      </trkpt>
      <trkpt lat="36.854086965322495" lon="-4.523394964635372">
        <ele>308.24000000000001</ele>
        <time>2025-05-09T17:35:25Z</time>
      </trkpt>
      <trkpt lat="36.854055030271411" lon="-4.523261021822691">
        <ele>309.19999999999999</ele>
        <time>2025-05-09T17:35:26Z</time>
      </trkpt>
      <trkpt lat="36.854022005572915" lon="-4.523138981312513">
        <ele>309.68000000000001</ele>
        <time>2025-05-09T17:35:27Z</time>
      </trkpt>
      <trkpt lat="36.85399099253118" lon="-4.523023981601">
        <ele>310.16000000000003</ele>
        <time>2025-05-09T17:35:28Z</time>
      </trkpt>
      <trkpt lat="36.853960985317826" lon="-4.522917028516531">
        <ele>311.12</ele>
        <time>2025-05-09T17:35:29Z</time>
      </trkpt>
      <trkpt lat="36.854003984481096" lon="-4.522818960249424">
        <ele>312.08999999999997</ele>
        <time>2025-05-09T17:35:30Z</time>
      </trkpt>
      <trkpt lat="36.854056036099792" lon="-4.522709995508194">
        <ele>313.52999999999997</ele>
        <time>2025-05-09T17:35:31Z</time>
      </trkpt>
      <trkpt lat="36.854114038869739" lon="-4.522588960826397">
        <ele>314.97000000000003</ele>
        <time>2025-05-09T17:35:32Z</time>
      </trkpt>
      <trkpt lat="36.854170029982924" lon="-4.522472033277154">
        <ele>316.41000000000003</ele>
        <time>2025-05-09T17:35:33Z</time>
      </trkpt>
      <trkpt lat="36.854281006380916" lon="-4.522409001365304">
        <ele>317.85000000000002</ele>
        <time>2025-05-09T17:35:34Z</time>
      </trkpt>
      <trkpt lat="36.854388965293765" lon="-4.522392991930246">
        <ele>319.77999999999997</ele>
        <time>2025-05-09T17:35:35Z</time>
      </trkpt>
      <trkpt lat="36.85450698249042" lon="-4.522387040778995">
        <ele>321.22000000000003</ele>
        <time>2025-05-09T17:35:36Z</time>
      </trkpt>
      <trkpt lat="36.854628017172217" lon="-4.522381005808711">
        <ele>322.66000000000003</ele>
        <time>2025-05-09T17:35:37Z</time>
      </trkpt>
      <trkpt lat="36.854739999398589" lon="-4.522359967231751">
        <ele>324.10000000000002</ele>
        <time>2025-05-09T17:35:38Z</time>
      </trkpt>
      <trkpt lat="36.854844018816948" lon="-4.522300036624074">
        <ele>325.54000000000002</ele>
        <time>2025-05-09T17:35:39Z</time>
      </trkpt>
      <trkpt lat="36.854943009093404" lon="-4.522209009155631">
        <ele>326.99000000000001</ele>
        <time>2025-05-09T17:35:40Z</time>
      </trkpt>
      <trkpt lat="36.855044011026621" lon="-4.522107001394033">
        <ele>328.43000000000001</ele>
        <time>2025-05-09T17:35:41Z</time>
      </trkpt>
      <trkpt lat="36.855126991868019" lon="-4.521990995854139">
        <ele>329.87</ele>
        <time>2025-05-09T17:35:42Z</time>
      </trkpt>
      <trkpt lat="36.85519496910274" lon="-4.521845988929272">
        <ele>331.31</ele>
        <time>2025-05-09T17:35:43Z</time>
      </trkpt>
      <trkpt lat="36.855266969650984" lon="-4.52169100753963">
        <ele>332.75</ele>
        <time>2025-05-09T17:35:44Z</time>
      </trkpt>
      <trkpt lat="36.855422034859657" lon="-4.521376015618444">
        <ele>335.16000000000003</ele>
        <time>2025-05-09T17:35:46Z</time>
      </trkpt>
      <trkpt lat="36.855605011805892" lon="-4.521138975396752">
        <ele>338.04000000000002</ele>
        <time>2025-05-09T17:35:48Z</time>
      </trkpt>
      <trkpt lat="36.855699978768826" lon="-4.521044008433819">
        <ele>339</ele>
        <time>2025-05-09T17:35:49Z</time>
      </trkpt>
      <trkpt lat="36.855814978480339" lon="-4.521007966250181">
        <ele>340.44</ele>
        <time>2025-05-09T17:35:50Z</time>
      </trkpt>
      <trkpt lat="36.855940036475658" lon="-4.520984999835491">
        <ele>341.41000000000003</ele>
        <time>2025-05-09T17:35:51Z</time>
      </trkpt>
      <trkpt lat="36.856059981510043" lon="-4.520963961258531">
        <ele>342.85000000000002</ele>
        <time>2025-05-09T17:35:52Z</time>
      </trkpt>
      <trkpt lat="36.856158971786499" lon="-4.521009977906942">
        <ele>344.29000000000002</ele>
        <time>2025-05-09T17:35:53Z</time>
      </trkpt>
      <trkpt lat="36.856254022568464" lon="-4.521073009818792">
        <ele>345.25</ele>
        <time>2025-05-09T17:35:54Z</time>
      </trkpt>
      <trkpt lat="36.856348989531398" lon="-4.521136963739991">
        <ele>346.20999999999998</ele>
        <time>2025-05-09T17:35:55Z</time>
      </trkpt>
      <trkpt lat="36.856453008949757" lon="-4.521180968731642">
        <ele>347.64999999999998</ele>
        <time>2025-05-09T17:35:56Z</time>
      </trkpt>
      <trkpt lat="36.856543030589819" lon="-4.521193960681558">
        <ele>348.62</ele>
        <time>2025-05-09T17:35:57Z</time>
      </trkpt>
      <trkpt lat="36.856615031138062" lon="-4.521120032295585">
        <ele>349.57999999999998</ele>
        <time>2025-05-09T17:35:58Z</time>
      </trkpt>
      <trkpt lat="36.856671022251248" lon="-4.52104602009058">
        <ele>350.54000000000002</ele>
        <time>2025-05-09T17:35:59Z</time>
      </trkpt>
      <trkpt lat="36.856733970344067" lon="-4.520963039249182">
        <ele>351.5</ele>
        <time>2025-05-09T17:36:00Z</time>
      </trkpt>
      <trkpt lat="36.8568030372262" lon="-4.520873017609119">
        <ele>352.45999999999998</ele>
        <time>2025-05-09T17:36:01Z</time>
      </trkpt>
      <trkpt lat="36.85689196921885" lon="-4.520819038152695">
        <ele>353.42000000000002</ele>
        <time>2025-05-09T17:36:02Z</time>
      </trkpt>
      <trkpt lat="36.857003029435873" lon="-4.520793976262212">
        <ele>353.89999999999998</ele>
        <time>2025-05-09T17:36:03Z</time>
      </trkpt>
      <trkpt lat="36.857120962813497" lon="-4.52076799236238">
        <ele>354.86000000000001</ele>
        <time>2025-05-09T17:36:04Z</time>
      </trkpt>
      <trkpt lat="36.857247026637197" lon="-4.520721975713968">
        <ele>355.33999999999997</ele>
        <time>2025-05-09T17:36:05Z</time>
      </trkpt>
      <trkpt lat="36.857359008863568" lon="-4.52061896212399">
        <ele>356.79000000000002</ele>
        <time>2025-05-09T17:36:06Z</time>
      </trkpt>
      <trkpt lat="36.85747099108994" lon="-4.520516032353044">
        <ele>357.75</ele>
        <time>2025-05-09T17:36:07Z</time>
      </trkpt>
      <trkpt lat="36.857506027445197" lon="-4.520387034863234">
        <ele>359.19</ele>
        <time>2025-05-09T17:36:08Z</time>
      </trkpt>
      <trkpt lat="36.857519019395113" lon="-4.52029399573803">
        <ele>360.14999999999998</ele>
        <time>2025-05-09T17:36:09Z</time>
      </trkpt>
      <trkpt lat="36.857500998303294" lon="-4.52014496549964">
        <ele>361.58999999999997</ele>
        <time>2025-05-09T17:36:10Z</time>
      </trkpt>
      <trkpt lat="36.857469985261559" lon="-4.52010297216475">
        <ele>362.55000000000001</ele>
        <time>2025-05-09T17:36:11Z</time>
      </trkpt>
      <trkpt lat="36.857398990541697" lon="-4.520003981888294">
        <ele>363.51999999999998</ele>
        <time>2025-05-09T17:36:12Z</time>
      </trkpt>
      <trkpt lat="36.857321038842201" lon="-4.519896022975445">
        <ele>364.48000000000002</ele>
        <time>2025-05-09T17:36:13Z</time>
      </trkpt>
      <trkpt lat="36.856947960332036" lon="-4.519364023581147">
        <ele>369.27999999999997</ele>
        <time>2025-05-09T17:36:18Z</time>
      </trkpt>
      <trkpt lat="36.856920970603824" lon="-4.519351031631231">
        <ele>370.24000000000001</ele>
        <time>2025-05-09T17:36:19Z</time>
      </trkpt>
      <trkpt lat="36.856920970603824" lon="-4.51941397972405">
        <ele>372.17000000000002</ele>
        <time>2025-05-09T17:36:21Z</time>
      </trkpt>
      <trkpt lat="36.856920970603824" lon="-4.519484974443913">
        <ele>373.13</ele>
        <time>2025-05-09T17:36:22Z</time>
      </trkpt>
      <trkpt lat="36.856957012787461" lon="-4.519579019397497">
        <ele>374.08999999999997</ele>
        <time>2025-05-09T17:36:23Z</time>
      </trkpt>
      <trkpt lat="36.857004035264254" lon="-4.519681027159095">
        <ele>374.56999999999999</ele>
        <time>2025-05-09T17:36:24Z</time>
      </trkpt>
      <trkpt lat="36.857178965583444" lon="-4.5200589671731">
        <ele>376.49000000000001</ele>
        <time>2025-05-09T17:36:28Z</time>
      </trkpt>
      <trkpt lat="36.857167985290289" lon="-4.520100960507989">
        <ele>376.97000000000003</ele>
        <time>2025-05-09T17:36:29Z</time>
      </trkpt>
      <trkpt lat="36.857157004997134" lon="-4.52014496549964">
        <ele>377.44999999999999</ele>
        <time>2025-05-09T17:36:30Z</time>
      </trkpt>
      <trkpt lat="36.857157004997134" lon="-4.52014496549964">
        <ele>377.94</ele>
        <time>2025-05-09T17:36:31Z</time>
      </trkpt>
      <trkpt lat="36.857116017490625" lon="-4.52014496549964">
        <ele>378.42000000000002</ele>
        <time>2025-05-09T17:36:32Z</time>
      </trkpt>
      <trkpt lat="36.857067989185452" lon="-4.520111018791795">
        <ele>378.89999999999998</ele>
        <time>2025-05-09T17:36:33Z</time>
      </trkpt>
      <trkpt lat="36.857007974758744" lon="-4.520031977444887">
        <ele>379.38</ele>
        <time>2025-05-09T17:36:34Z</time>
      </trkpt>
      <trkpt lat="36.856709998100996" lon="-4.519583964720368">
        <ele>381.77999999999997</ele>
        <time>2025-05-09T17:36:38Z</time>
      </trkpt>
      <trkpt lat="36.856649983674288" lon="-4.519438035786152">
        <ele>382.25999999999999</ele>
        <time>2025-05-09T17:36:39Z</time>
      </trkpt>
      <trkpt lat="36.856598015874624" lon="-4.519282970577478">
        <ele>382.74000000000001</ele>
        <time>2025-05-09T17:36:40Z</time>
      </trkpt>
      <trkpt lat="36.856497013941407" lon="-4.518805034458637">
        <ele>385.14999999999998</ele>
        <time>2025-05-09T17:36:43Z</time>
      </trkpt>
      <trkpt lat="36.856476981192827" lon="-4.518656004220247">
        <ele>386.11000000000001</ele>
        <time>2025-05-09T17:36:44Z</time>
      </trkpt>
      <trkpt lat="36.856436999514699" lon="-4.518358027562499">
        <ele>388.02999999999997</ele>
        <time>2025-05-09T17:36:46Z</time>
      </trkpt>
      <trkpt lat="36.856377990916371" lon="-4.518030965700746">
        <ele>389.94999999999999</ele>
        <time>2025-05-09T17:36:48Z</time>
      </trkpt>
      <trkpt lat="36.856328034773469" lon="-4.517861986532807">
        <ele>390.43000000000001</ele>
        <time>2025-05-09T17:36:49Z</time>
      </trkpt>
      <trkpt lat="36.856191996484995" lon="-4.517397964373231">
        <ele>391.87</ele>
        <time>2025-05-09T17:36:52Z</time>
      </trkpt>
      <trkpt lat="36.856201970949769" lon="-4.517249017953873">
        <ele>391.87</ele>
        <time>2025-05-09T17:36:53Z</time>
      </trkpt>
      <trkpt lat="36.856211023405194" lon="-4.517123959958553">
        <ele>392.36000000000001</ele>
        <time>2025-05-09T17:36:54Z</time>
      </trkpt>
      <trkpt lat="36.856239018961787" lon="-4.517077021300793">
        <ele>392.36000000000001</ele>
        <time>2025-05-09T17:36:55Z</time>
      </trkpt>
      <trkpt lat="36.856319988146424" lon="-4.517011977732182">
        <ele>392.36000000000001</ele>
        <time>2025-05-09T17:36:56Z</time>
      </trkpt>
      <trkpt lat="36.856409003958106" lon="-4.516992028802633">
        <ele>392.36000000000001</ele>
        <time>2025-05-09T17:36:57Z</time>
      </trkpt>
      <trkpt lat="36.856526015326381" lon="-4.516965039074421">
        <ele>391.87</ele>
        <time>2025-05-09T17:36:58Z</time>
      </trkpt>
      <trkpt lat="36.856791973114014" lon="-4.516904018819332">
        <ele>390.43000000000001</ele>
        <time>2025-05-09T17:37:00Z</time>
      </trkpt>
      <trkpt lat="36.856915019452572" lon="-4.516830006614327">
        <ele>389.94999999999999</ele>
        <time>2025-05-09T17:37:01Z</time>
      </trkpt>
      <trkpt lat="36.857038987800479" lon="-4.516753982752562">
        <ele>388.99000000000001</ele>
        <time>2025-05-09T17:37:02Z</time>
      </trkpt>
      <trkpt lat="36.857286002486944" lon="-4.516604030504823">
        <ele>387.06999999999999</ele>
        <time>2025-05-09T17:37:04Z</time>
      </trkpt>
      <trkpt lat="36.857420029118657" lon="-4.516581986099482">
        <ele>386.58999999999997</ele>
        <time>2025-05-09T17:37:05Z</time>
      </trkpt>
      <trkpt lat="36.857547014951706" lon="-4.516561031341553">
        <ele>385.63</ele>
        <time>2025-05-09T17:37:06Z</time>
      </trkpt>
      <trkpt lat="36.857661008834839" lon="-4.516542004421353">
        <ele>384.18000000000001</ele>
        <time>2025-05-09T17:37:07Z</time>
      </trkpt>
      <trkpt lat="36.857742983847857" lon="-4.516488024964929">
        <ele>383.22000000000003</ele>
        <time>2025-05-09T17:37:08Z</time>
      </trkpt>
      <trkpt lat="36.857807021588087" lon="-4.516441002488136">
        <ele>382.25999999999999</ele>
        <time>2025-05-09T17:37:09Z</time>
      </trkpt>
      <trkpt lat="36.857855971902609" lon="-4.516404960304499">
        <ele>381.77999999999997</ele>
        <time>2025-05-09T17:37:10Z</time>
      </trkpt>
      <trkpt lat="36.857895031571388" lon="-4.516375958919525">
        <ele>380.81999999999999</ele>
        <time>2025-05-09T17:37:11Z</time>
      </trkpt>
      <trkpt lat="36.857922021299601" lon="-4.516356009989977">
        <ele>380.33999999999997</ele>
        <time>2025-05-09T17:37:12Z</time>
      </trkpt>
      <trkpt lat="36.857922021299601" lon="-4.516356009989977">
        <ele>379.86000000000001</ele>
        <time>2025-05-09T17:37:22Z</time>
      </trkpt>
      <trkpt lat="36.857994021847844" lon="-4.516303958371282">
        <ele>378.42000000000002</ele>
        <time>2025-05-09T17:37:43Z</time>
      </trkpt>
      <trkpt lat="36.858068034052849" lon="-4.516291972249746">
        <ele>377.94</ele>
        <time>2025-05-09T17:37:44Z</time>
      </trkpt>
      <trkpt lat="36.858525015413761" lon="-4.516217960044742">
        <ele>376.49000000000001</ele>
        <time>2025-05-09T17:37:48Z</time>
      </trkpt>
      <trkpt lat="36.858677985146642" lon="-4.516186024993658">
        <ele>376.49000000000001</ele>
        <time>2025-05-09T17:37:49Z</time>
      </trkpt>
      <trkpt lat="36.858835984021425" lon="-4.516098015010357">
        <ele>376.97000000000003</ele>
        <time>2025-05-09T17:37:50Z</time>
      </trkpt>
      <trkpt lat="36.859334036707878" lon="-4.515853011980653">
        <ele>377.44999999999999</ele>
        <time>2025-05-09T17:37:53Z</time>
      </trkpt>
      <trkpt lat="36.859501004219055" lon="-4.515814036130905">
        <ele>378.42000000000002</ele>
        <time>2025-05-09T17:37:54Z</time>
      </trkpt>
      <trkpt lat="36.859840974211693" lon="-4.515826022252441">
        <ele>380.33999999999997</ele>
        <time>2025-05-09T17:37:56Z</time>
      </trkpt>
      <trkpt lat="36.860015988349915" lon="-4.515802972018719">
        <ele>381.30000000000001</ele>
        <time>2025-05-09T17:37:57Z</time>
      </trkpt>
      <trkpt lat="36.860701041296124" lon="-4.515698030591011">
        <ele>386.58999999999997</ele>
        <time>2025-05-09T17:38:01Z</time>
      </trkpt>
      <trkpt lat="36.860859962180257" lon="-4.515637010335922">
        <ele>387.55000000000001</ele>
        <time>2025-05-09T17:38:02Z</time>
      </trkpt>
      <trkpt lat="36.861011004075408" lon="-4.515553023666143">
        <ele>388.99000000000001</ele>
        <time>2025-05-09T17:38:03Z</time>
      </trkpt>
      <trkpt lat="36.861576028168201" lon="-4.515188997611404">
        <ele>393.80000000000001</ele>
        <time>2025-05-09T17:38:07Z</time>
      </trkpt>
      <trkpt lat="36.861707037314773" lon="-4.515170976519585">
        <ele>394.75999999999999</ele>
        <time>2025-05-09T17:38:08Z</time>
      </trkpt>
      <trkpt lat="36.861836034804583" lon="-4.515153961256146">
        <ele>396.19999999999999</ele>
        <time>2025-05-09T17:38:09Z</time>
      </trkpt>
      <trkpt lat="36.862070979550481" lon="-4.515123032033444">
        <ele>399.07999999999998</ele>
        <time>2025-05-09T17:38:11Z</time>
      </trkpt>
      <trkpt lat="36.862182961776853" lon="-4.515049019828439">
        <ele>400.05000000000001</ele>
        <time>2025-05-09T17:38:12Z</time>
      </trkpt>
      <trkpt lat="36.862307013943791" lon="-4.514966038987041">
        <ele>400.52999999999997</ele>
        <time>2025-05-09T17:38:13Z</time>
      </trkpt>
      <trkpt lat="36.862701969221234" lon="-4.514584997668862">
        <ele>401.97000000000003</ele>
        <time>2025-05-09T17:38:17Z</time>
      </trkpt>
      <trkpt lat="36.862759971991181" lon="-4.514463040977716">
        <ele>401.97000000000003</ele>
        <time>2025-05-09T17:38:18Z</time>
      </trkpt>
      <trkpt lat="36.862815041095018" lon="-4.514347035437822">
        <ele>401.97000000000003</ele>
        <time>2025-05-09T17:38:19Z</time>
      </trkpt>
      <trkpt lat="36.862932974472642" lon="-4.514253996312618">
        <ele>401.97000000000003</ele>
        <time>2025-05-09T17:38:20Z</time>
      </trkpt>
      <trkpt lat="36.863028025254607" lon="-4.514218959957361">
        <ele>401.49000000000001</ele>
        <time>2025-05-09T17:38:21Z</time>
      </trkpt>
      <trkpt lat="36.863123998045921" lon="-4.514183001592755">
        <ele>400.52999999999997</ele>
        <time>2025-05-09T17:38:22Z</time>
      </trkpt>
      <trkpt lat="36.863222988322377" lon="-4.514146959409118">
        <ele>399.56999999999999</ele>
        <time>2025-05-09T17:38:23Z</time>
      </trkpt>
      <trkpt lat="36.863312004134059" lon="-4.514079988002777">
        <ele>398.12</ele>
        <time>2025-05-09T17:38:24Z</time>
      </trkpt>
      <trkpt lat="36.863418035209179" lon="-4.513982003554702">
        <ele>397.16000000000003</ele>
        <time>2025-05-09T17:38:25Z</time>
      </trkpt>
      <trkpt lat="36.863531023263931" lon="-4.513875972479582">
        <ele>395.72000000000003</ele>
        <time>2025-05-09T17:38:26Z</time>
      </trkpt>
      <trkpt lat="36.863660020753741" lon="-4.513797014951706">
        <ele>394.27999999999997</ele>
        <time>2025-05-09T17:38:27Z</time>
      </trkpt>
      <trkpt lat="36.863782983273268" lon="-4.513729037716985">
        <ele>393.31999999999999</ele>
        <time>2025-05-09T17:38:28Z</time>
      </trkpt>
      <trkpt lat="36.863901000469923" lon="-4.513662988319993">
        <ele>391.87</ele>
        <time>2025-05-09T17:38:29Z</time>
      </trkpt>
      <trkpt lat="36.864011976867914" lon="-4.513582019135356">
        <ele>390.91000000000003</ele>
        <time>2025-05-09T17:38:30Z</time>
      </trkpt>
      <trkpt lat="36.864128988236189" lon="-4.513485040515661">
        <ele>390.43000000000001</ele>
        <time>2025-05-09T17:38:31Z</time>
      </trkpt>
      <trkpt lat="36.86430299654603" lon="-4.513341961428523">
        <ele>388.99000000000001</ele>
        <time>2025-05-09T17:38:33Z</time>
      </trkpt>
      <trkpt lat="36.864423025399446" lon="-4.513369034975767">
        <ele>388.50999999999999</ele>
        <time>2025-05-09T17:38:34Z</time>
      </trkpt>
      <trkpt lat="36.864496031776071" lon="-4.513384960591793">
        <ele>387.55000000000001</ele>
        <time>2025-05-09T17:38:35Z</time>
      </trkpt>
      <trkpt lat="36.864559985697269" lon="-4.513468025252223">
        <ele>386.58999999999997</ele>
        <time>2025-05-09T17:38:36Z</time>
      </trkpt>
      <trkpt lat="36.864651013165712" lon="-4.513583024963737">
        <ele>385.63</ele>
        <time>2025-05-09T17:38:37Z</time>
      </trkpt>
      <trkpt lat="36.864754026755691" lon="-4.513715039938688">
        <ele>384.66000000000003</ele>
        <time>2025-05-09T17:38:38Z</time>
      </trkpt>
      <trkpt lat="36.864865003153682" lon="-4.513858035206795">
        <ele>383.69999999999999</ele>
        <time>2025-05-09T17:38:39Z</time>
      </trkpt>
      <trkpt lat="36.865002969279885" lon="-4.513972029089928">
        <ele>382.25999999999999</ele>
        <time>2025-05-09T17:38:40Z</time>
      </trkpt>
      <trkpt lat="36.865125009790063" lon="-4.514065990224481">
        <ele>381.30000000000001</ele>
        <time>2025-05-09T17:38:41Z</time>
      </trkpt>
      <trkpt lat="36.865245038643479" lon="-4.514135979115963">
        <ele>380.33999999999997</ele>
        <time>2025-05-09T17:38:42Z</time>
      </trkpt>
      <trkpt lat="36.86535500921309" lon="-4.514192976057529">
        <ele>379.38</ele>
        <time>2025-05-09T17:38:43Z</time>
      </trkpt>
      <trkpt lat="36.866448009386659" lon="-4.514822959899902">
        <ele>369.75999999999999</ele>
        <time>2025-05-09T17:38:53Z</time>
      </trkpt>
      <trkpt lat="36.866554040461779" lon="-4.514928990975022">
        <ele>369.27999999999997</ele>
        <time>2025-05-09T17:38:54Z</time>
      </trkpt>
      <trkpt lat="36.86664598993957" lon="-4.515024041756988">
        <ele>368.31999999999999</ele>
        <time>2025-05-09T17:38:55Z</time>
      </trkpt>
      <trkpt lat="36.866715978831053" lon="-4.515143986791372">
        <ele>367.36000000000001</ele>
        <time>2025-05-09T17:38:56Z</time>
      </trkpt>
      <trkpt lat="36.866841036826372" lon="-4.5153549592942">
        <ele>365.44</ele>
        <time>2025-05-09T17:38:58Z</time>
      </trkpt>
      <trkpt lat="36.866907002404332" lon="-4.515425032004714">
        <ele>364.48000000000002</ele>
        <time>2025-05-09T17:38:59Z</time>
      </trkpt>
      <trkpt lat="36.866962993517518" lon="-4.515472976490855">
        <ele>364</ele>
        <time>2025-05-09T17:39:00Z</time>
      </trkpt>
      <trkpt lat="36.867005992680788" lon="-4.515510024502873">
        <ele>363.04000000000002</ele>
        <time>2025-05-09T17:39:01Z</time>
      </trkpt>
      <trkpt lat="36.867094002664089" lon="-4.515456967055798">
        <ele>362.06999999999999</ele>
        <time>2025-05-09T17:39:02Z</time>
      </trkpt>
      <trkpt lat="36.867114035412669" lon="-4.515444980934262">
        <ele>361.11000000000001</ele>
        <time>2025-05-09T17:39:03Z</time>
      </trkpt>
      <trkpt lat="36.867164997383952" lon="-4.515326041728258">
        <ele>360.63</ele>
        <time>2025-05-09T17:39:04Z</time>
      </trkpt>
      <trkpt lat="36.86720497906208" lon="-4.515230990946293">
        <ele>359.67000000000002</ele>
        <time>2025-05-09T17:39:05Z</time>
      </trkpt>
      <trkpt lat="36.867242027074099" lon="-4.515144992619753">
        <ele>358.70999999999998</ele>
        <time>2025-05-09T17:39:06Z</time>
      </trkpt>
      <trkpt lat="36.867260970175266" lon="-4.51503099873662">
        <ele>358.23000000000002</ele>
        <time>2025-05-09T17:39:07Z</time>
      </trkpt>
      <trkpt lat="36.867278991267085" lon="-4.514925973489881">
        <ele>357.26999999999998</ele>
        <time>2025-05-09T17:39:08Z</time>
      </trkpt>
      <trkpt lat="36.867279997095466" lon="-4.514821032062173">
        <ele>356.31</ele>
        <time>2025-05-09T17:39:09Z</time>
      </trkpt>
      <trkpt lat="36.867271028459072" lon="-4.514711983501911">
        <ele>355.33999999999997</ele>
        <time>2025-05-09T17:39:10Z</time>
      </trkpt>
      <trkpt lat="36.867262981832027" lon="-4.514612993225455">
        <ele>354.38</ele>
        <time>2025-05-09T17:39:11Z</time>
      </trkpt>
      <trkpt lat="36.867256024852395" lon="-4.514517020434141">
        <ele>353.42000000000002</ele>
        <time>2025-05-09T17:39:12Z</time>
      </trkpt>
      <trkpt lat="36.86724797822535" lon="-4.514425992965698">
        <ele>352.94</ele>
        <time>2025-05-09T17:39:13Z</time>
      </trkpt>
      <trkpt lat="36.86724797822535" lon="-4.514341000467539">
        <ele>352.45999999999998</ele>
        <time>2025-05-09T17:39:14Z</time>
      </trkpt>
      <trkpt lat="36.867296006530523" lon="-4.514261959120631">
        <ele>351.98000000000002</ele>
        <time>2025-05-09T17:39:15Z</time>
      </trkpt>
      <trkpt lat="36.867346968501806" lon="-4.514175960794091">
        <ele>351.5</ele>
        <time>2025-05-09T17:39:16Z</time>
      </trkpt>
      <trkpt lat="36.867406982928514" lon="-4.514094991609454">
        <ele>351.5</ele>
        <time>2025-05-09T17:39:17Z</time>
      </trkpt>
      <trkpt lat="36.867472026497126" lon="-4.514018967747688">
        <ele>351.01999999999998</ele>
        <time>2025-05-09T17:39:18Z</time>
      </trkpt>
      <trkpt lat="36.86754897236824" lon="-4.513974040746689">
        <ele>350.54000000000002</ele>
        <time>2025-05-09T17:39:19Z</time>
      </trkpt>
      <trkpt lat="36.86763203702867" lon="-4.513953002169728">
        <ele>350.54000000000002</ele>
        <time>2025-05-09T17:39:20Z</time>
      </trkpt>
      <trkpt lat="36.867710994556546" lon="-4.513996001332998">
        <ele>350.54000000000002</ele>
        <time>2025-05-09T17:39:21Z</time>
      </trkpt>
      <trkpt lat="36.867768997326493" lon="-4.514074036851525">
        <ele>351.01999999999998</ele>
        <time>2025-05-09T17:39:22Z</time>
      </trkpt>
      <trkpt lat="36.867833035066724" lon="-4.514159029349685">
        <ele>351.01999999999998</ele>
        <time>2025-05-09T17:39:23Z</time>
      </trkpt>
      <trkpt lat="36.867900006473064" lon="-4.514247961342335">
        <ele>351.5</ele>
        <time>2025-05-09T17:39:24Z</time>
      </trkpt>
      <trkpt lat="36.867971001192927" lon="-4.514348963275552">
        <ele>351.5</ele>
        <time>2025-05-09T17:39:25Z</time>
      </trkpt>
      <trkpt lat="36.868296973407269" lon="-4.514828994870186">
        <ele>353.42000000000002</ele>
        <time>2025-05-09T17:39:29Z</time>
      </trkpt>
      <trkpt lat="36.868370985612273" lon="-4.514896972104907">
        <ele>353.89999999999998</ele>
        <time>2025-05-09T17:39:30Z</time>
      </trkpt>
      <trkpt lat="36.868486991152167" lon="-4.514929996803403">
        <ele>354.38</ele>
        <time>2025-05-09T17:39:31Z</time>
      </trkpt>
      <trkpt lat="36.868550023064017" lon="-4.514912981539965">
        <ele>355.33999999999997</ele>
        <time>2025-05-09T17:39:32Z</time>
      </trkpt>
      <trkpt lat="36.868653036653996" lon="-4.514884985983372">
        <ele>355.82999999999998</ele>
        <time>2025-05-09T17:39:33Z</time>
      </trkpt>
      <trkpt lat="36.868752026930451" lon="-4.514865959063172">
        <ele>356.79000000000002</ele>
        <time>2025-05-09T17:39:34Z</time>
      </trkpt>
      <trkpt lat="36.868849005550146" lon="-4.514865959063172">
        <ele>357.26999999999998</ele>
        <time>2025-05-09T17:39:35Z</time>
      </trkpt>
      <trkpt lat="36.868940033018589" lon="-4.514910969883204">
        <ele>358.23000000000002</ele>
        <time>2025-05-09T17:39:36Z</time>
      </trkpt>
      <trkpt lat="36.869028965011239" lon="-4.515006020665169">
        <ele>358.70999999999998</ele>
        <time>2025-05-09T17:39:37Z</time>
      </trkpt>
      <trkpt lat="36.86909300275147" lon="-4.51513996347785">
        <ele>358.70999999999998</ele>
        <time>2025-05-09T17:39:38Z</time>
      </trkpt>
      <trkpt lat="36.869162991642952" lon="-4.515285976231098">
        <ele>358.70999999999998</ele>
        <time>2025-05-09T17:39:39Z</time>
      </trkpt>
      <trkpt lat="36.869234992191195" lon="-4.515434000641108">
        <ele>358.23000000000002</ele>
        <time>2025-05-09T17:39:40Z</time>
      </trkpt>
      <trkpt lat="36.869301963597536" lon="-4.515573978424072">
        <ele>357.26999999999998</ele>
        <time>2025-05-09T17:39:41Z</time>
      </trkpt>
      <trkpt lat="36.869397014379501" lon="-4.515621000900865">
        <ele>356.79000000000002</ele>
        <time>2025-05-09T17:39:42Z</time>
      </trkpt>
      <trkpt lat="36.86950002796948" lon="-4.515672968700528">
        <ele>356.31</ele>
        <time>2025-05-09T17:39:43Z</time>
      </trkpt>
      <trkpt lat="36.869603963568807" lon="-4.515725020319223">
        <ele>355.33999999999997</ele>
        <time>2025-05-09T17:39:44Z</time>
      </trkpt>
      <trkpt lat="36.86971896328032" lon="-4.515728037804365">
        <ele>354.86000000000001</ele>
        <time>2025-05-09T17:39:45Z</time>
      </trkpt>
      <trkpt lat="36.869816025719047" lon="-4.515702975913882">
        <ele>353.89999999999998</ele>
        <time>2025-05-09T17:39:46Z</time>
      </trkpt>
      <trkpt lat="36.869923984631896" lon="-4.515661988407373">
        <ele>353.42000000000002</ele>
        <time>2025-05-09T17:39:47Z</time>
      </trkpt>
      <trkpt lat="36.870020041242242" lon="-4.515573978424072">
        <ele>352.94</ele>
        <time>2025-05-09T17:39:48Z</time>
      </trkpt>
      <trkpt lat="36.870236964896321" lon="-4.515375997871161">
        <ele>351.5</ele>
        <time>2025-05-09T17:39:50Z</time>
      </trkpt>
      <trkpt lat="36.870448021218181" lon="-4.5152029953897">
        <ele>351.01999999999998</ele>
        <time>2025-05-09T17:39:52Z</time>
      </trkpt>
      <trkpt lat="36.870566038414836" lon="-4.515178017318249">
        <ele>350.54000000000002</ele>
        <time>2025-05-09T17:39:53Z</time>
      </trkpt>
      <trkpt lat="36.870718002319336" lon="-4.515144992619753">
        <ele>350.06</ele>
        <time>2025-05-09T17:39:54Z</time>
      </trkpt>
      <trkpt lat="36.871070964261889" lon="-4.515162007883191">
        <ele>347.64999999999998</ele>
        <time>2025-05-09T17:39:57Z</time>
      </trkpt>
      <trkpt lat="36.871182024478912" lon="-4.515181034803391">
        <ele>347.17000000000002</ele>
        <time>2025-05-09T17:39:58Z</time>
      </trkpt>
      <trkpt lat="36.871275985613465" lon="-4.515221016481519">
        <ele>347.17000000000002</ele>
        <time>2025-05-09T17:39:59Z</time>
      </trkpt>
      <trkpt lat="36.871340023353696" lon="-4.515300979837775">
        <ele>346.69</ele>
        <time>2025-05-09T17:40:00Z</time>
      </trkpt>
      <trkpt lat="36.871361983940005" lon="-4.515400975942612">
        <ele>347.17000000000002</ele>
        <time>2025-05-09T17:40:01Z</time>
      </trkpt>
      <trkpt lat="36.871361983940005" lon="-4.515508012846112">
        <ele>347.64999999999998</ele>
        <time>2025-05-09T17:40:02Z</time>
      </trkpt>
      <trkpt lat="36.871361983940005" lon="-4.515617983415723">
        <ele>347.64999999999998</ele>
        <time>2025-05-09T17:40:03Z</time>
      </trkpt>
      <trkpt lat="36.87137296423316" lon="-4.515714040026069">
        <ele>348.13</ele>
        <time>2025-05-09T17:40:04Z</time>
      </trkpt>
      <trkpt lat="36.871399031952024" lon="-4.515791991725564">
        <ele>348.62</ele>
        <time>2025-05-09T17:40:05Z</time>
      </trkpt>
      <trkpt lat="36.8714589625597" lon="-4.515829961746931">
        <ele>348.62</ele>
        <time>2025-05-09T17:40:06Z</time>
      </trkpt>
      <trkpt lat="36.871576979756355" lon="-4.515873966738582">
        <ele>349.10000000000002</ele>
        <time>2025-05-09T17:40:07Z</time>
      </trkpt>
      <trkpt lat="36.871633976697922" lon="-4.51586902141571">
        <ele>349.10000000000002</ele>
        <time>2025-05-09T17:40:08Z</time>
      </trkpt>
      <trkpt lat="36.871817959472537" lon="-4.515840020030737">
        <ele>349.10000000000002</ele>
        <time>2025-05-09T17:40:10Z</time>
      </trkpt>
      <trkpt lat="36.871919967234135" lon="-4.515788974240422">
        <ele>348.62</ele>
        <time>2025-05-09T17:40:11Z</time>
      </trkpt>
      <trkpt lat="36.871960032731295" lon="-4.515728037804365">
        <ele>348.13</ele>
        <time>2025-05-09T17:40:12Z</time>
      </trkpt>
      <trkpt lat="36.872223978862166" lon="-4.51533199287951">
        <ele>347.17000000000002</ele>
        <time>2025-05-09T17:40:16Z</time>
      </trkpt>
      <trkpt lat="36.872286004945636" lon="-4.515239037573338">
        <ele>347.64999999999998</ele>
        <time>2025-05-09T17:40:17Z</time>
      </trkpt>
      <trkpt lat="36.872353982180357" lon="-4.515196038410068">
        <ele>347.64999999999998</ele>
        <time>2025-05-09T17:40:18Z</time>
      </trkpt>
      <trkpt lat="36.872456995770335" lon="-4.515166031196713">
        <ele>347.64999999999998</ele>
        <time>2025-05-09T17:40:19Z</time>
      </trkpt>
      <trkpt lat="36.872514998540282" lon="-4.515212969854474">
        <ele>347.64999999999998</ele>
        <time>2025-05-09T17:40:20Z</time>
      </trkpt>
      <trkpt lat="36.872586999088526" lon="-4.515297962352634">
        <ele>347.64999999999998</ele>
        <time>2025-05-09T17:40:21Z</time>
      </trkpt>
      <trkpt lat="36.87264097854495" lon="-4.515408016741276">
        <ele>347.64999999999998</ele>
        <time>2025-05-09T17:40:22Z</time>
      </trkpt>
      <trkpt lat="36.872667968273163" lon="-4.515526033937931">
        <ele>347.64999999999998</ele>
        <time>2025-05-09T17:40:23Z</time>
      </trkpt>
      <trkpt lat="36.872686995193362" lon="-4.515628963708878">
        <ele>347.64999999999998</ele>
        <time>2025-05-09T17:40:24Z</time>
      </trkpt>
      <trkpt lat="36.87270300462842" lon="-4.51571898534894">
        <ele>347.17000000000002</ele>
        <time>2025-05-09T17:40:25Z</time>
      </trkpt>
      <trkpt lat="36.872718008235097" lon="-4.515798026695848">
        <ele>346.69</ele>
        <time>2025-05-09T17:40:26Z</time>
      </trkpt>
      <trkpt lat="36.872732006013393" lon="-4.515877990052104">
        <ele>346.69</ele>
        <time>2025-05-09T17:40:27Z</time>
      </trkpt>
      <trkpt lat="36.872785985469818" lon="-4.51595501974225">
        <ele>346.69</ele>
        <time>2025-05-09T17:40:28Z</time>
      </trkpt>
      <trkpt lat="36.872842982411385" lon="-4.516020985320211">
        <ele>346.69</ele>
        <time>2025-05-09T17:40:29Z</time>
      </trkpt>
      <trkpt lat="36.872915988788009" lon="-4.516039006412029">
        <ele>346.69</ele>
        <time>2025-05-09T17:40:30Z</time>
      </trkpt>
      <trkpt lat="36.872996035963297" lon="-4.516027020290494">
        <ele>346.69</ele>
        <time>2025-05-09T17:40:31Z</time>
      </trkpt>
      <trkpt lat="36.873092008754611" lon="-4.516014028340578">
        <ele>347.17000000000002</ele>
        <time>2025-05-09T17:40:32Z</time>
      </trkpt>
      <trkpt lat="36.873203990980983" lon="-4.516022996976972">
        <ele>346.69</ele>
        <time>2025-05-09T17:40:33Z</time>
      </trkpt>
      <trkpt lat="36.873307004570961" lon="-4.516074964776635">
        <ele>347.17000000000002</ele>
        <time>2025-05-09T17:40:34Z</time>
      </trkpt>
      <trkpt lat="36.87341102398932" lon="-4.51612601056695">
        <ele>347.17000000000002</ele>
        <time>2025-05-09T17:40:35Z</time>
      </trkpt>
      <trkpt lat="36.873506996780634" lon="-4.516174960881472">
        <ele>347.17000000000002</ele>
        <time>2025-05-09T17:40:36Z</time>
      </trkpt>
      <trkpt lat="36.873595006763935" lon="-4.516187030822039">
        <ele>347.64999999999998</ele>
        <time>2025-05-09T17:40:37Z</time>
      </trkpt>
      <trkpt lat="36.873682010918856" lon="-4.516164986416698">
        <ele>348.13</ele>
        <time>2025-05-09T17:40:38Z</time>
      </trkpt>
      <trkpt lat="36.873748982325196" lon="-4.516076976433396">
        <ele>348.13</ele>
        <time>2025-05-09T17:40:39Z</time>
      </trkpt>
      <trkpt lat="36.873825006186962" lon="-4.515975974500179">
        <ele>348.62</ele>
        <time>2025-05-09T17:40:40Z</time>
      </trkpt>
      <trkpt lat="36.87390698119998" lon="-4.51586902141571">
        <ele>349.57999999999998</ele>
        <time>2025-05-09T17:40:41Z</time>
      </trkpt>
      <trkpt lat="36.873989962041378" lon="-4.515759972855449">
        <ele>350.06</ele>
        <time>2025-05-09T17:40:42Z</time>
      </trkpt>
      <trkpt lat="36.874076966196299" lon="-4.515652013942599">
        <ele>350.54000000000002</ele>
        <time>2025-05-09T17:40:43Z</time>
      </trkpt>
      <trkpt lat="36.874468987807631" lon="-4.51539795845747">
        <ele>352.94</ele>
        <time>2025-05-09T17:40:47Z</time>
      </trkpt>
      <trkpt lat="36.8745500408113" lon="-4.515388989821076">
        <ele>353.89999999999998</ele>
        <time>2025-05-09T17:40:48Z</time>
      </trkpt>
      <trkpt lat="36.874630004167557" lon="-4.515387983992696">
        <ele>354.38</ele>
        <time>2025-05-09T17:40:49Z</time>
      </trkpt>
      <trkpt lat="36.874677026644349" lon="-4.515447998419404">
        <ele>355.33999999999997</ele>
        <time>2025-05-09T17:40:50Z</time>
      </trkpt>
      <trkpt lat="36.874708039686084" lon="-4.515523016452789">
        <ele>356.31</ele>
        <time>2025-05-09T17:40:51Z</time>
      </trkpt>
      <trkpt lat="36.874703010544181" lon="-4.515627035871148">
        <ele>357.26999999999998</ele>
        <time>2025-05-09T17:40:52Z</time>
      </trkpt>
      <trkpt lat="36.874696975573897" lon="-4.515749998390675">
        <ele>358.23000000000002</ele>
        <time>2025-05-09T17:40:53Z</time>
      </trkpt>
      <trkpt lat="36.874690018594265" lon="-4.515892993658781">
        <ele>359.19</ele>
        <time>2025-05-09T17:40:54Z</time>
      </trkpt>
      <trkpt lat="36.87468197196722" lon="-4.516053004190326">
        <ele>360.14999999999998</ele>
        <time>2025-05-09T17:40:55Z</time>
      </trkpt>
      <trkpt lat="36.874674009159207" lon="-4.516208991408348">
        <ele>360.63</ele>
        <time>2025-05-09T17:40:56Z</time>
      </trkpt>
      <trkpt lat="36.874690018594265" lon="-4.51644703745842">
        <ele>362.06999999999999</ele>
        <time>2025-05-09T17:40:58Z</time>
      </trkpt>
      <trkpt lat="36.874711979180574" lon="-4.516520965844393">
        <ele>363.04000000000002</ele>
        <time>2025-05-09T17:40:59Z</time>
      </trkpt>
      <trkpt lat="36.874751038849354" lon="-4.51657997444272">
        <ele>364.48000000000002</ele>
        <time>2025-05-09T17:41:00Z</time>
      </trkpt>
      <trkpt lat="36.874817004427314" lon="-4.516573017463088">
        <ele>365.92000000000002</ele>
        <time>2025-05-09T17:41:01Z</time>
      </trkpt>
      <trkpt lat="36.874898979440331" lon="-4.516563965007663">
        <ele>366.88</ele>
        <time>2025-05-09T17:41:02Z</time>
      </trkpt>
      <trkpt lat="36.874992018565536" lon="-4.516553990542889">
        <ele>367.83999999999997</ele>
        <time>2025-05-09T17:41:03Z</time>
      </trkpt>
      <trkpt lat="36.875116992741823" lon="-4.516539992764592">
        <ele>368.80000000000001</ele>
        <time>2025-05-09T17:41:04Z</time>
      </trkpt>
      <trkpt lat="36.875669024884701" lon="-4.516305970028043">
        <ele>374.08999999999997</ele>
        <time>2025-05-09T17:41:10Z</time>
      </trkpt>
      <trkpt lat="36.875825012102723" lon="-4.516238998621702">
        <ele>375.52999999999997</ele>
        <time>2025-05-09T17:41:12Z</time>
      </trkpt>
      <trkpt lat="36.87588301487267" lon="-4.51614897698164">
        <ele>376.00999999999999</ele>
        <time>2025-05-09T17:41:13Z</time>
      </trkpt>
      <trkpt lat="36.875939005985856" lon="-4.5160629786551">
        <ele>376.97000000000003</ele>
        <time>2025-05-09T17:41:14Z</time>
      </trkpt>
      <trkpt lat="36.8759919796139" lon="-4.515981003642082">
        <ele>377.94</ele>
        <time>2025-05-09T17:41:15Z</time>
      </trkpt>
      <trkpt lat="36.876060962677002" lon="-4.515913026407361">
        <ele>377.94</ele>
        <time>2025-05-09T17:41:16Z</time>
      </trkpt>
      <trkpt lat="36.876126006245613" lon="-4.515873966738582">
        <ele>378.42000000000002</ele>
        <time>2025-05-09T17:41:17Z</time>
      </trkpt>
      <trkpt lat="36.876214016228914" lon="-4.51591202057898">
        <ele>377.94</ele>
        <time>2025-05-09T17:41:18Z</time>
      </trkpt>
      <trkpt lat="36.876301020383835" lon="-4.515949990600348">
        <ele>377.94</ele>
        <time>2025-05-09T17:41:19Z</time>
      </trkpt>
      <trkpt lat="36.876391964033246" lon="-4.515987960621715">
        <ele>376.97000000000003</ele>
        <time>2025-05-09T17:41:20Z</time>
      </trkpt>
      <trkpt lat="36.876479974016547" lon="-4.516026014462113">
        <ele>376.49000000000001</ele>
        <time>2025-05-09T17:41:21Z</time>
      </trkpt>
      <trkpt lat="36.876563038676977" lon="-4.516061972826719">
        <ele>376.49000000000001</ele>
        <time>2025-05-09T17:41:22Z</time>
      </trkpt>
      <trkpt lat="36.876638978719711" lon="-4.516070019453764">
        <ele>376.00999999999999</ele>
        <time>2025-05-09T17:41:23Z</time>
      </trkpt>
      <trkpt lat="36.876719025895" lon="-4.516073958948255">
        <ele>375.52999999999997</ele>
        <time>2025-05-09T17:41:24Z</time>
      </trkpt>
      <trkpt lat="36.876805024221539" lon="-4.516077982261777">
        <ele>375.05000000000001</ele>
        <time>2025-05-09T17:41:25Z</time>
      </trkpt>
      <trkpt lat="36.876898985356092" lon="-4.51608301140368">
        <ele>375.05000000000001</ele>
        <time>2025-05-09T17:41:26Z</time>
      </trkpt>
      <trkpt lat="36.876991018652916" lon="-4.516087034717202">
        <ele>374.56999999999999</ele>
        <time>2025-05-09T17:41:27Z</time>
      </trkpt>
      <trkpt lat="36.877077016979456" lon="-4.516048980876803">
        <ele>374.08999999999997</ele>
        <time>2025-05-09T17:41:28Z</time>
      </trkpt>
      <trkpt lat="36.87715002335608" lon="-4.515970023348928">
        <ele>373.61000000000001</ele>
        <time>2025-05-09T17:41:29Z</time>
      </trkpt>
      <trkpt lat="36.877204002812505" lon="-4.515851000323892">
        <ele>373.13</ele>
        <time>2025-05-09T17:41:30Z</time>
      </trkpt>
      <trkpt lat="36.877264017239213" lon="-4.515720997005701">
        <ele>372.64999999999998</ele>
        <time>2025-05-09T17:41:31Z</time>
      </trkpt>
      <trkpt lat="36.877328976988792" lon="-4.515582025051117">
        <ele>372.64999999999998</ele>
        <time>2025-05-09T17:41:32Z</time>
      </trkpt>
      <trkpt lat="36.877397038042545" lon="-4.515437018126249">
        <ele>372.17000000000002</ele>
        <time>2025-05-09T17:41:33Z</time>
      </trkpt>
      <trkpt lat="36.877488987520337" lon="-4.515307014808059">
        <ele>371.69</ele>
        <time>2025-05-09T17:41:34Z</time>
      </trkpt>
      <trkpt lat="36.877685040235519" lon="-4.515026975423098">
        <ele>370.73000000000002</ele>
        <time>2025-05-09T17:41:36Z</time>
      </trkpt>
      <trkpt lat="36.877786964178085" lon="-4.514882974326611">
        <ele>370.24000000000001</ele>
        <time>2025-05-09T17:41:37Z</time>
      </trkpt>
      <trkpt lat="36.878002965822816" lon="-4.514590026810765">
        <ele>369.27999999999997</ele>
        <time>2025-05-09T17:41:39Z</time>
      </trkpt>
      <trkpt lat="36.879382962360978" lon="-4.513231990858913">
        <ele>367.36000000000001</ele>
        <time>2025-05-09T17:41:49Z</time>
      </trkpt>
      <trkpt lat="36.880809981375933" lon="-4.512020973488689">
        <ele>374.56999999999999</ele>
        <time>2025-05-09T17:41:58Z</time>
      </trkpt>
      <trkpt lat="36.881154980510473" lon="-4.511802038177848">
        <ele>376.97000000000003</ele>
        <time>2025-05-09T17:42:00Z</time>
      </trkpt>
      <trkpt lat="36.881327982991934" lon="-4.511734982952476">
        <ele>377.94</ele>
        <time>2025-05-09T17:42:01Z</time>
      </trkpt>
      <trkpt lat="36.881507020443678" lon="-4.511698018759489">
        <ele>378.89999999999998</ele>
        <time>2025-05-09T17:42:02Z</time>
      </trkpt>
      <trkpt lat="36.881683962419629" lon="-4.511660970747471">
        <ele>380.33999999999997</ele>
        <time>2025-05-09T17:42:03Z</time>
      </trkpt>
      <trkpt lat="36.88185797072947" lon="-4.511638004332781">
        <ele>381.30000000000001</ele>
        <time>2025-05-09T17:42:04Z</time>
      </trkpt>
      <trkpt lat="36.882570013403893" lon="-4.51157103292644">
        <ele>382.25999999999999</ele>
        <time>2025-05-09T17:42:08Z</time>
      </trkpt>
      <trkpt lat="36.882730023935437" lon="-4.511500038206577">
        <ele>381.77999999999997</ele>
        <time>2025-05-09T17:42:09Z</time>
      </trkpt>
      <trkpt lat="36.883040992543101" lon="-4.511362994089723">
        <ele>380.33999999999997</ele>
        <time>2025-05-09T17:42:11Z</time>
      </trkpt>
      <trkpt lat="36.88318700529635" lon="-4.511362994089723">
        <ele>379.86000000000001</ele>
        <time>2025-05-09T17:42:12Z</time>
      </trkpt>
      <trkpt lat="36.883321031928062" lon="-4.511384032666683">
        <ele>379.38</ele>
        <time>2025-05-09T17:42:13Z</time>
      </trkpt>
      <trkpt lat="36.883438965305686" lon="-4.511455027386546">
        <ele>379.38</ele>
        <time>2025-05-09T17:42:14Z</time>
      </trkpt>
      <trkpt lat="36.883563017472625" lon="-4.511552006006241">
        <ele>378.89999999999998</ele>
        <time>2025-05-09T17:42:15Z</time>
      </trkpt>
      <trkpt lat="36.883694026619196" lon="-4.5116560254246">
        <ele>378.42000000000002</ele>
        <time>2025-05-09T17:42:16Z</time>
      </trkpt>
      <trkpt lat="36.884199036285281" lon="-4.512225994840264">
        <ele>376.49000000000001</ele>
        <time>2025-05-09T17:42:20Z</time>
      </trkpt>
      <trkpt lat="36.884292997419834" lon="-4.512406038120389">
        <ele>376.00999999999999</ele>
        <time>2025-05-09T17:42:21Z</time>
      </trkpt>
      <trkpt lat="36.884367009624839" lon="-4.512607036158443">
        <ele>376.00999999999999</ele>
        <time>2025-05-09T17:42:22Z</time>
      </trkpt>
      <trkpt lat="36.884774034842849" lon="-4.513874966651201">
        <ele>374.08999999999997</ele>
        <time>2025-05-09T17:42:29Z</time>
      </trkpt>
      <trkpt lat="36.884815022349358" lon="-4.514030031859875">
        <ele>373.61000000000001</ele>
        <time>2025-05-09T17:42:31Z</time>
      </trkpt>
      <trkpt lat="36.884922981262207" lon="-4.514221977442503">
        <ele>372.17000000000002</ele>
        <time>2025-05-09T17:42:36Z</time>
      </trkpt>
      <trkpt lat="36.884922981262207" lon="-4.514232035726309">
        <ele>371.69</ele>
        <time>2025-05-09T17:42:37Z</time>
      </trkpt>
      <trkpt lat="36.884909989312291" lon="-4.514568988233805">
        <ele>370.73000000000002</ele>
        <time>2025-05-09T17:42:40Z</time>
      </trkpt>
      <trkpt lat="36.884933039546013" lon="-4.514693962410092">
        <ele>369.75999999999999</ele>
        <time>2025-05-09T17:42:41Z</time>
      </trkpt>
      <trkpt lat="36.884980984032154" lon="-4.514819020405412">
        <ele>369.27999999999997</ele>
        <time>2025-05-09T17:42:42Z</time>
      </trkpt>
      <trkpt lat="36.885035969316959" lon="-4.514910969883204">
        <ele>368.31999999999999</ele>
        <time>2025-05-09T17:42:43Z</time>
      </trkpt>
      <trkpt lat="36.885126996785402" lon="-4.514963021501899">
        <ele>367.36000000000001</ele>
        <time>2025-05-09T17:42:44Z</time>
      </trkpt>
      <trkpt lat="36.885205032303929" lon="-4.514947012066841">
        <ele>366.39999999999998</ele>
        <time>2025-05-09T17:42:45Z</time>
      </trkpt>
      <trkpt lat="36.885288013145328" lon="-4.514929996803403">
        <ele>365.92000000000002</ele>
        <time>2025-05-09T17:42:46Z</time>
      </trkpt>
      <trkpt lat="36.885352972894907" lon="-4.514855984598398">
        <ele>364.95999999999998</ele>
        <time>2025-05-09T17:42:47Z</time>
      </trkpt>
      <trkpt lat="36.885432014241815" lon="-4.514765962958336">
        <ele>364</ele>
        <time>2025-05-09T17:42:48Z</time>
      </trkpt>
      <trkpt lat="36.885521030053496" lon="-4.514664961025119">
        <ele>363.51999999999998</ele>
        <time>2025-05-09T17:42:49Z</time>
      </trkpt>
      <trkpt lat="36.885683974251151" lon="-4.514388022944331">
        <ele>361.11000000000001</ele>
        <time>2025-05-09T17:42:51Z</time>
      </trkpt>
      <trkpt lat="36.885764021426439" lon="-4.514221977442503">
        <ele>360.63</ele>
        <time>2025-05-09T17:42:52Z</time>
      </trkpt>
      <trkpt lat="36.885848008096218" lon="-4.514047969132662">
        <ele>359.67000000000002</ele>
        <time>2025-05-09T17:42:53Z</time>
      </trkpt>
      <trkpt lat="36.886064009740949" lon="-4.513496020808816">
        <ele>356.79000000000002</ele>
        <time>2025-05-09T17:42:56Z</time>
      </trkpt>
      <trkpt lat="36.886135004460812" lon="-4.513370962813497">
        <ele>355.82999999999998</ele>
        <time>2025-05-09T17:42:57Z</time>
      </trkpt>
      <trkpt lat="36.886223014444113" lon="-4.513294016942382">
        <ele>355.33999999999997</ele>
        <time>2025-05-09T17:42:58Z</time>
      </trkpt>
      <trkpt lat="36.886323010548949" lon="-4.51327096670866">
        <ele>354.86000000000001</ele>
        <time>2025-05-09T17:42:59Z</time>
      </trkpt>
      <trkpt lat="36.886408003047109" lon="-4.513320000842214">
        <ele>354.38</ele>
        <time>2025-05-09T17:43:00Z</time>
      </trkpt>
      <trkpt lat="36.886467011645436" lon="-4.513405999168754">
        <ele>354.38</ele>
        <time>2025-05-09T17:43:01Z</time>
      </trkpt>
      <trkpt lat="36.886510010808706" lon="-4.513539019972086">
        <ele>354.38</ele>
        <time>2025-05-09T17:43:02Z</time>
      </trkpt>
      <trkpt lat="36.886557033285499" lon="-4.513686960563064">
        <ele>354.86000000000001</ele>
        <time>2025-05-09T17:43:03Z</time>
      </trkpt>
      <trkpt lat="36.886597014963627" lon="-4.513815036043525">
        <ele>354.86000000000001</ele>
        <time>2025-05-09T17:43:04Z</time>
      </trkpt>
      <trkpt lat="36.886688964441419" lon="-4.513983009383082">
        <ele>355.33999999999997</ele>
        <time>2025-05-09T17:43:05Z</time>
      </trkpt>
      <trkpt lat="36.886787032708526" lon="-4.514115024358034">
        <ele>355.82999999999998</ele>
        <time>2025-05-09T17:43:06Z</time>
      </trkpt>
      <trkpt lat="36.886902032420039" lon="-4.514235975220799">
        <ele>356.31</ele>
        <time>2025-05-09T17:43:07Z</time>
      </trkpt>
      <trkpt lat="36.887010997161269" lon="-4.514350974932313">
        <ele>356.79000000000002</ele>
        <time>2025-05-09T17:43:08Z</time>
      </trkpt>
      <trkpt lat="36.887220963835716" lon="-4.514511991292238">
        <ele>357.75</ele>
        <time>2025-05-09T17:43:10Z</time>
      </trkpt>
      <trkpt lat="36.8873340357095" lon="-4.514552978798747">
        <ele>357.75</ele>
        <time>2025-05-09T17:43:11Z</time>
      </trkpt>
      <trkpt lat="36.887452974915504" lon="-4.51453797519207">
        <ele>358.23000000000002</ele>
        <time>2025-05-09T17:43:12Z</time>
      </trkpt>
      <trkpt lat="36.887578032910824" lon="-4.514501010999084">
        <ele>358.70999999999998</ele>
        <time>2025-05-09T17:43:13Z</time>
      </trkpt>
      <trkpt lat="36.887710969895124" lon="-4.514463962987065">
        <ele>358.23000000000002</ele>
        <time>2025-05-09T17:43:14Z</time>
      </trkpt>
      <trkpt lat="36.887856982648373" lon="-4.514422975480557">
        <ele>358.23000000000002</ele>
        <time>2025-05-09T17:43:15Z</time>
      </trkpt>
      <trkpt lat="36.88802101649344" lon="-4.514434961602092">
        <ele>357.75</ele>
        <time>2025-05-09T17:43:16Z</time>
      </trkpt>
      <trkpt lat="36.888195024803281" lon="-4.514462035149336">
        <ele>357.26999999999998</ele>
        <time>2025-05-09T17:43:17Z</time>
      </trkpt>
      <trkpt lat="36.888372972607613" lon="-4.514529006555677">
        <ele>356.79000000000002</ele>
        <time>2025-05-09T17:43:18Z</time>
      </trkpt>
      <trkpt lat="36.888557961210608" lon="-4.514606958255172">
        <ele>356.79000000000002</ele>
        <time>2025-05-09T17:43:19Z</time>
      </trkpt>
      <trkpt lat="36.888734987005591" lon="-4.514726987108588">
        <ele>356.31</ele>
        <time>2025-05-09T17:43:20Z</time>
      </trkpt>
      <trkpt lat="36.888914024457335" lon="-4.514848021790385">
        <ele>356.31</ele>
        <time>2025-05-09T17:43:21Z</time>
      </trkpt>
      <trkpt lat="36.889089038595557" lon="-4.514966960996389">
        <ele>356.79000000000002</ele>
        <time>2025-05-09T17:43:22Z</time>
      </trkpt>
      <trkpt lat="36.889243014156818" lon="-4.515114985406399">
        <ele>356.79000000000002</ele>
        <time>2025-05-09T17:43:23Z</time>
      </trkpt>
      <trkpt lat="36.889379974454641" lon="-4.515260998159647">
        <ele>356.79000000000002</ele>
        <time>2025-05-09T17:43:24Z</time>
      </trkpt>
      <trkpt lat="36.889663031324744" lon="-4.515498038381338">
        <ele>357.75</ele>
        <time>2025-05-09T17:43:26Z</time>
      </trkpt>
      <trkpt lat="36.889814995229244" lon="-4.515587976202369">
        <ele>358.70999999999998</ele>
        <time>2025-05-09T17:43:27Z</time>
      </trkpt>
      <trkpt lat="36.889981040731072" lon="-4.515641033649445">
        <ele>359.19</ele>
        <time>2025-05-09T17:43:28Z</time>
      </trkpt>
      <trkpt lat="36.890580011531711" lon="-4.515799032524228">
        <ele>362.55000000000001</ele>
        <time>2025-05-09T17:43:32Z</time>
      </trkpt>
      <trkpt lat="36.890714038163424" lon="-4.515808001160622">
        <ele>363.04000000000002</ele>
        <time>2025-05-09T17:43:33Z</time>
      </trkpt>
      <trkpt lat="36.890846975147724" lon="-4.515757039189339">
        <ele>364</ele>
        <time>2025-05-09T17:43:34Z</time>
      </trkpt>
      <trkpt lat="36.890984019264579" lon="-4.515690989792347">
        <ele>364</ele>
        <time>2025-05-09T17:43:35Z</time>
      </trkpt>
      <trkpt lat="36.891126008704305" lon="-4.515622006729245">
        <ele>364</ele>
        <time>2025-05-09T17:43:36Z</time>
      </trkpt>
      <trkpt lat="36.891275960952044" lon="-4.515550006181002">
        <ele>364</ele>
        <time>2025-05-09T17:43:37Z</time>
      </trkpt>
      <trkpt lat="36.891434965655208" lon="-4.515472976490855">
        <ele>363.51999999999998</ele>
        <time>2025-05-09T17:43:38Z</time>
      </trkpt>
      <trkpt lat="36.891606040298939" lon="-4.515461996197701">
        <ele>363.04000000000002</ele>
        <time>2025-05-09T17:43:39Z</time>
      </trkpt>
      <trkpt lat="36.891790023073554" lon="-4.515455961227417">
        <ele>362.06999999999999</ele>
        <time>2025-05-09T17:43:40Z</time>
      </trkpt>
      <trkpt lat="36.891980962827802" lon="-4.515450010076165">
        <ele>361.58999999999997</ele>
        <time>2025-05-09T17:43:41Z</time>
      </trkpt>
      <trkpt lat="36.892172992229462" lon="-4.515454033389688">
        <ele>360.63</ele>
        <time>2025-05-09T17:43:42Z</time>
      </trkpt>
      <trkpt lat="36.892366027459502" lon="-4.515495020896196">
        <ele>360.14999999999998</ele>
        <time>2025-05-09T17:43:43Z</time>
      </trkpt>
      <trkpt lat="36.89255797304213" lon="-4.515536008402705">
        <ele>359.19</ele>
        <time>2025-05-09T17:43:44Z</time>
      </trkpt>
      <trkpt lat="36.892926022410393" lon="-4.515717979520559">
        <ele>358.23000000000002</ele>
        <time>2025-05-09T17:43:46Z</time>
      </trkpt>
      <trkpt lat="36.893098019063473" lon="-4.515846977010369">
        <ele>357.75</ele>
        <time>2025-05-09T17:43:47Z</time>
      </trkpt>
      <trkpt lat="36.893261969089508" lon="-4.515987960621715">
        <ele>357.26999999999998</ele>
        <time>2025-05-09T17:43:48Z</time>
      </trkpt>
      <trkpt lat="36.894842963665724" lon="-4.517885036766529">
        <ele>361.11000000000001</ele>
        <time>2025-05-09T17:43:59Z</time>
      </trkpt>
      <trkpt lat="36.896684970706701" lon="-4.520929008722305">
        <ele>365.92000000000002</ele>
        <time>2025-05-09T17:44:13Z</time>
      </trkpt>
      <trkpt lat="36.898189019411802" lon="-4.523391025140882">
        <ele>372.17000000000002</ele>
        <time>2025-05-09T17:44:25Z</time>
      </trkpt>
      <trkpt lat="36.898621022701263" lon="-4.524067025631666">
        <ele>375.05000000000001</ele>
        <time>2025-05-09T17:44:29Z</time>
      </trkpt>
      <trkpt lat="36.898666033521295" lon="-4.524246985092759">
        <ele>375.52999999999997</ele>
        <time>2025-05-09T17:44:30Z</time>
      </trkpt>
      <trkpt lat="36.898664021864533" lon="-4.5244209934026">
        <ele>375.52999999999997</ele>
        <time>2025-05-09T17:44:31Z</time>
      </trkpt>
      <trkpt lat="36.898640971630812" lon="-4.524601958692074">
        <ele>375.52999999999997</ele>
        <time>2025-05-09T17:44:32Z</time>
      </trkpt>
      <trkpt lat="36.898616999387741" lon="-4.524795999750495">
        <ele>375.52999999999997</ele>
        <time>2025-05-09T17:44:33Z</time>
      </trkpt>
      <trkpt lat="36.898538963869214" lon="-4.525681966915727">
        <ele>375.05000000000001</ele>
        <time>2025-05-09T17:44:37Z</time>
      </trkpt>
      <trkpt lat="36.898553967475891" lon="-4.525915989652276">
        <ele>375.05000000000001</ele>
        <time>2025-05-09T17:44:38Z</time>
      </trkpt>
      <trkpt lat="36.898568971082568" lon="-4.526148000732064">
        <ele>375.05000000000001</ele>
        <time>2025-05-09T17:44:39Z</time>
      </trkpt>
      <trkpt lat="36.898621022701263" lon="-4.52637498266995">
        <ele>375.52999999999997</ele>
        <time>2025-05-09T17:44:40Z</time>
      </trkpt>
      <trkpt lat="36.898677013814449" lon="-4.526598025113344">
        <ele>376.00999999999999</ele>
        <time>2025-05-09T17:44:41Z</time>
      </trkpt>
      <trkpt lat="36.898756977170706" lon="-4.526794999837875">
        <ele>376.49000000000001</ele>
        <time>2025-05-09T17:44:42Z</time>
      </trkpt>
      <trkpt lat="36.898827971890569" lon="-4.526968002319336">
        <ele>376.97000000000003</ele>
        <time>2025-05-09T17:44:43Z</time>
      </trkpt>
      <trkpt lat="36.898926040157676" lon="-4.527065986767411">
        <ele>377.94</ele>
        <time>2025-05-09T17:44:44Z</time>
      </trkpt>
      <trkpt lat="36.899036010727286" lon="-4.52712600119412">
        <ele>378.42000000000002</ele>
        <time>2025-05-09T17:44:45Z</time>
      </trkpt>
      <trkpt lat="36.899150004610419" lon="-4.527159025892615">
        <ele>379.38</ele>
        <time>2025-05-09T17:44:46Z</time>
      </trkpt>
      <trkpt lat="36.89926098100841" lon="-4.52714703977108">
        <ele>380.33999999999997</ele>
        <time>2025-05-09T17:44:47Z</time>
      </trkpt>
      <trkpt lat="36.899376986548305" lon="-4.527132036164403">
        <ele>381.30000000000001</ele>
        <time>2025-05-09T17:44:48Z</time>
      </trkpt>
      <trkpt lat="36.899509001523256" lon="-4.527115020900965">
        <ele>382.25999999999999</ele>
        <time>2025-05-09T17:44:49Z</time>
      </trkpt>
      <trkpt lat="36.900703003630042" lon="-4.526917040348053">
        <ele>388.02999999999997</ele>
        <time>2025-05-09T17:44:56Z</time>
      </trkpt>
      <trkpt lat="36.902186013758183" lon="-4.526592995971441">
        <ele>394.27999999999997</ele>
        <time>2025-05-09T17:45:04Z</time>
      </trkpt>
      <trkpt lat="36.90237301401794" lon="-4.526514960452914">
        <ele>395.24000000000001</ele>
        <time>2025-05-09T17:45:05Z</time>
      </trkpt>
      <trkpt lat="36.90364102832973" lon="-4.525810964405537">
        <ele>401.00999999999999</ele>
        <time>2025-05-09T17:45:12Z</time>
      </trkpt>
      <trkpt lat="36.903828028589487" lon="-4.525744998827577">
        <ele>401.49000000000001</ele>
        <time>2025-05-09T17:45:13Z</time>
      </trkpt>
      <trkpt lat="36.904016034677625" lon="-4.52575002796948">
        <ele>401.97000000000003</ele>
        <time>2025-05-09T17:45:14Z</time>
      </trkpt>
      <trkpt lat="36.90420001745224" lon="-4.525804007425904">
        <ele>402.44999999999999</ele>
        <time>2025-05-09T17:45:15Z</time>
      </trkpt>
      <trkpt lat="36.904363967478275" lon="-4.525852035731077">
        <ele>403.41000000000003</ele>
        <time>2025-05-09T17:45:16Z</time>
      </trkpt>
      <trkpt lat="36.904546022415161" lon="-4.525842983275652">
        <ele>404.37</ele>
        <time>2025-05-09T17:45:17Z</time>
      </trkpt>
      <trkpt lat="36.904707960784435" lon="-4.525834014639258">
        <ele>405.32999999999998</ele>
        <time>2025-05-09T17:45:18Z</time>
      </trkpt>
      <trkpt lat="36.904862020164728" lon="-4.525797972455621">
        <ele>406.29000000000002</ele>
        <time>2025-05-09T17:45:19Z</time>
      </trkpt>
      <trkpt lat="36.905015995725989" lon="-4.525739969685674">
        <ele>407.74000000000001</ele>
        <time>2025-05-09T17:45:20Z</time>
      </trkpt>
      <trkpt lat="36.905169971287251" lon="-4.52564500272274">
        <ele>408.69999999999999</ele>
        <time>2025-05-09T17:45:21Z</time>
      </trkpt>
      <trkpt lat="36.9065420050174" lon="-4.524596007540822">
        <ele>414.47000000000003</ele>
        <time>2025-05-09T17:45:29Z</time>
      </trkpt>
      <trkpt lat="36.907909009605646" lon="-4.523488003760576">
        <ele>417.35000000000002</ele>
        <time>2025-05-09T17:45:37Z</time>
      </trkpt>
      <trkpt lat="36.90806700848043" lon="-4.523405022919178">
        <ele>417.35000000000002</ele>
        <time>2025-05-09T17:45:38Z</time>
      </trkpt>
      <trkpt lat="36.908217966556549" lon="-4.52332598157227">
        <ele>417.35000000000002</ele>
        <time>2025-05-09T17:45:39Z</time>
      </trkpt>
      <trkpt lat="36.908373031765223" lon="-4.523277031257749">
        <ele>417.35000000000002</ele>
        <time>2025-05-09T17:45:40Z</time>
      </trkpt>
      <trkpt lat="36.909922007471323" lon="-4.523009983822703">
        <ele>420.70999999999998</ele>
        <time>2025-05-09T17:45:48Z</time>
      </trkpt>
      <trkpt lat="36.910112025216222" lon="-4.523035967722535">
        <ele>421.19</ele>
        <time>2025-05-09T17:45:49Z</time>
      </trkpt>
      <trkpt lat="36.910307994112372" lon="-4.523063041269779">
        <ele>421.68000000000001</ele>
        <time>2025-05-09T17:45:50Z</time>
      </trkpt>
      <trkpt lat="36.91197901032865" lon="-4.523438969627023">
        <ele>418.31</ele>
        <time>2025-05-09T17:45:59Z</time>
      </trkpt>
      <trkpt lat="36.914184959605336" lon="-4.523574002087116">
        <ele>416.87</ele>
        <time>2025-05-09T17:46:09Z</time>
      </trkpt>
      <trkpt lat="36.91605999134481" lon="-4.523684978485107">
        <ele>422.63999999999999</ele>
        <time>2025-05-09T17:46:18Z</time>
      </trkpt>
      <trkpt lat="36.916230982169509" lon="-4.523661006242037">
        <ele>423.12</ele>
        <time>2025-05-09T17:46:19Z</time>
      </trkpt>
      <trkpt lat="36.916388981044292" lon="-4.52360300347209">
        <ele>423.60000000000002</ele>
        <time>2025-05-09T17:46:20Z</time>
      </trkpt>
      <trkpt lat="36.916819978505373" lon="-4.523485992103815">
        <ele>425.04000000000002</ele>
        <time>2025-05-09T17:46:24Z</time>
      </trkpt>
      <trkpt lat="36.916875969618559" lon="-4.52347400598228">
        <ele>425.04000000000002</ele>
        <time>2025-05-09T17:46:25Z</time>
      </trkpt>
      <trkpt lat="36.916904971003532" lon="-4.523506024852395">
        <ele>425.04000000000002</ele>
        <time>2025-05-09T17:46:26Z</time>
      </trkpt>
      <trkpt lat="36.916922992095351" lon="-4.523570984601975">
        <ele>425.04000000000002</ele>
        <time>2025-05-09T17:46:27Z</time>
      </trkpt>
      <trkpt lat="36.916945958510041" lon="-4.523652959614992">
        <ele>425.04000000000002</ele>
        <time>2025-05-09T17:46:28Z</time>
      </trkpt>
      <trkpt lat="36.916972026228905" lon="-4.523747004568577">
        <ele>425.04000000000002</ele>
        <time>2025-05-09T17:46:29Z</time>
      </trkpt>
      <trkpt lat="36.917005972936749" lon="-4.523864015936852">
        <ele>425.04000000000002</ele>
        <time>2025-05-09T17:46:30Z</time>
      </trkpt>
      <trkpt lat="36.917118038982153" lon="-4.524087980389595">
        <ele>425.04000000000002</ele>
        <time>2025-05-09T17:46:32Z</time>
      </trkpt>
      <trkpt lat="36.91719900816679" lon="-4.524200968444347">
        <ele>425.51999999999998</ele>
        <time>2025-05-09T17:46:33Z</time>
      </trkpt>
      <trkpt lat="36.917287018150091" lon="-4.52431102283299">
        <ele>425.51999999999998</ele>
        <time>2025-05-09T17:46:34Z</time>
      </trkpt>
      <trkpt lat="36.917380979284644" lon="-4.524382017552853">
        <ele>425.51999999999998</ele>
        <time>2025-05-09T17:46:35Z</time>
      </trkpt>
      <trkpt lat="36.917460020631552" lon="-4.524439014494419">
        <ele>426</ele>
        <time>2025-05-09T17:46:36Z</time>
      </trkpt>
      <trkpt lat="36.917538978159428" lon="-4.524478996172547">
        <ele>426</ele>
        <time>2025-05-09T17:46:37Z</time>
      </trkpt>
      <trkpt lat="36.918197963386774" lon="-4.524774039164186">
        <ele>427.44</ele>
        <time>2025-05-09T17:46:47Z</time>
      </trkpt>
      <trkpt lat="36.918278010562062" lon="-4.524795999750495">
        <ele>427.92000000000002</ele>
        <time>2025-05-09T17:46:48Z</time>
      </trkpt>
      <trkpt lat="36.918539023026824" lon="-4.524866994470358">
        <ele>430.81</ele>
        <time>2025-05-09T17:46:51Z</time>
      </trkpt>
      <trkpt lat="36.918611023575068" lon="-4.524886021390557">
        <ele>431.76999999999998</ele>
        <time>2025-05-09T17:46:52Z</time>
      </trkpt>
      <trkpt lat="36.918632984161377" lon="-4.524959027767181">
        <ele>432.73000000000002</ele>
        <time>2025-05-09T17:46:53Z</time>
      </trkpt>
      <trkpt lat="36.918654022738338" lon="-4.525033039972186">
        <ele>433.69</ele>
        <time>2025-05-09T17:46:54Z</time>
      </trkpt>
      <trkpt lat="36.918628960847855" lon="-4.525097999721766">
        <ele>434.64999999999998</ele>
        <time>2025-05-09T17:46:55Z</time>
      </trkpt>
      <trkpt lat="36.918583028018475" lon="-4.525205958634615">
        <ele>435.61000000000001</ele>
        <time>2025-05-09T17:46:56Z</time>
      </trkpt>
      <trkpt lat="36.918533993884921" lon="-4.525334034115076">
        <ele>436.57999999999998</ele>
        <time>2025-05-09T17:46:57Z</time>
      </trkpt>
      <trkpt lat="36.918418994173408" lon="-4.525637961924076">
        <ele>438.5</ele>
        <time>2025-05-09T17:47:00Z</time>
      </trkpt>
      <trkpt lat="36.918449001386762" lon="-4.525757990777493">
        <ele>438.98000000000002</ele>
        <time>2025-05-09T17:47:01Z</time>
      </trkpt>
      <trkpt lat="36.918461993336678" lon="-4.525809036567807">
        <ele>439.94</ele>
        <time>2025-05-09T17:47:02Z</time>
      </trkpt>
      <trkpt lat="36.918514966964722" lon="-4.525801995769143">
        <ele>440.42000000000002</ele>
        <time>2025-05-09T17:47:03Z</time>
      </trkpt>
      <trkpt lat="36.918572969734669" lon="-4.52579403296113">
        <ele>440.89999999999998</ele>
        <time>2025-05-09T17:47:04Z</time>
      </trkpt>
      <trkpt lat="36.918642036616802" lon="-4.525770982727408">
        <ele>441.86000000000001</ele>
        <time>2025-05-09T17:47:05Z</time>
      </trkpt>
      <trkpt lat="36.918726023286581" lon="-4.525723038241267">
        <ele>442.33999999999997</ele>
        <time>2025-05-09T17:47:06Z</time>
      </trkpt>
      <trkpt lat="36.918824007734656" lon="-4.52566796913743">
        <ele>442.81999999999999</ele>
        <time>2025-05-09T17:47:07Z</time>
      </trkpt>
      <trkpt lat="36.919039003551006" lon="-4.525547018274665">
        <ele>444.75</ele>
        <time>2025-05-09T17:47:09Z</time>
      </trkpt>
      <trkpt lat="36.9191550090909" lon="-4.525508964434266">
        <ele>446.19</ele>
        <time>2025-05-09T17:47:10Z</time>
      </trkpt>
      <trkpt lat="36.91928300075233" lon="-4.525508964434266">
        <ele>447.14999999999998</ele>
        <time>2025-05-09T17:47:11Z</time>
      </trkpt>
      <trkpt lat="36.920304000377655" lon="-4.525440987199545">
        <ele>456.27999999999997</ele>
        <time>2025-05-09T17:47:18Z</time>
      </trkpt>
      <trkpt lat="36.920438027009368" lon="-4.525423971936107">
        <ele>457.72000000000003</ele>
        <time>2025-05-09T17:47:19Z</time>
      </trkpt>
      <trkpt lat="36.920559983700514" lon="-4.525475017726421">
        <ele>459.17000000000002</ele>
        <time>2025-05-09T17:47:20Z</time>
      </trkpt>
      <trkpt lat="36.920693004503846" lon="-4.525530003011227">
        <ele>460.61000000000001</ele>
        <time>2025-05-09T17:47:21Z</time>
      </trkpt>
      <trkpt lat="36.920790988951921" lon="-4.525635028257966">
        <ele>462.05000000000001</ele>
        <time>2025-05-09T17:47:22Z</time>
      </trkpt>
      <trkpt lat="36.920896014198661" lon="-4.525749022141099">
        <ele>463.49000000000001</ele>
        <time>2025-05-09T17:47:23Z</time>
      </trkpt>
      <trkpt lat="36.921010008081794" lon="-4.525854969397187">
        <ele>464.44999999999999</ele>
        <time>2025-05-09T17:47:24Z</time>
      </trkpt>
      <trkpt lat="36.921133976429701" lon="-4.525935016572475">
        <ele>465.89999999999998</ele>
        <time>2025-05-09T17:47:25Z</time>
      </trkpt>
      <trkpt lat="36.921273032203317" lon="-4.526024032384157">
        <ele>467.33999999999997</ele>
        <time>2025-05-09T17:47:26Z</time>
      </trkpt>
      <trkpt lat="36.921389037743211" lon="-4.52603098936379">
        <ele>468.30000000000001</ele>
        <time>2025-05-09T17:47:27Z</time>
      </trkpt>
      <trkpt lat="36.92153999581933" lon="-4.526040041819215">
        <ele>469.74000000000001</ele>
        <time>2025-05-09T17:47:28Z</time>
      </trkpt>
      <trkpt lat="36.922856960445642" lon="-4.52609796077013">
        <ele>483.19999999999999</ele>
        <time>2025-05-09T17:47:36Z</time>
      </trkpt>
      <trkpt lat="36.92325996235013" lon="-4.526107013225555">
        <ele>487.05000000000001</ele>
        <time>2025-05-09T17:47:39Z</time>
      </trkpt>
      <trkpt lat="36.923387032002211" lon="-4.526082035154104">
        <ele>488.49000000000001</ele>
        <time>2025-05-09T17:47:40Z</time>
      </trkpt>
      <trkpt lat="36.923516029492021" lon="-4.526021014899015">
        <ele>489.44999999999999</ele>
        <time>2025-05-09T17:47:41Z</time>
      </trkpt>
      <trkpt lat="36.923627005890012" lon="-4.525928981602192">
        <ele>490.41000000000003</ele>
        <time>2025-05-09T17:47:42Z</time>
      </trkpt>
      <trkpt lat="36.923740999773145" lon="-4.525834014639258">
        <ele>491.37</ele>
        <time>2025-05-09T17:47:43Z</time>
      </trkpt>
      <trkpt lat="36.923857005313039" lon="-4.525737036019564">
        <ele>492.32999999999998</ele>
        <time>2025-05-09T17:47:44Z</time>
      </trkpt>
      <trkpt lat="36.924274004995823" lon="-4.525410979986191">
        <ele>496.66000000000003</ele>
        <time>2025-05-09T17:47:48Z</time>
      </trkpt>
      <trkpt lat="36.924367966130376" lon="-4.525382984429598">
        <ele>497.62</ele>
        <time>2025-05-09T17:47:49Z</time>
      </trkpt>
      <trkpt lat="36.924451030790806" lon="-4.525360018014908">
        <ele>498.57999999999998</ele>
        <time>2025-05-09T17:47:50Z</time>
      </trkpt>
      <trkpt lat="36.924539962783456" lon="-4.525410979986191">
        <ele>499.54000000000002</ele>
        <time>2025-05-09T17:47:51Z</time>
      </trkpt>
      <trkpt lat="36.924627972766757" lon="-4.525479963049293">
        <ele>500.5</ele>
        <time>2025-05-09T17:47:52Z</time>
      </trkpt>
      <trkpt lat="36.924715982750058" lon="-4.525586999952793">
        <ele>501.94999999999999</ele>
        <time>2025-05-09T17:47:53Z</time>
      </trkpt>
      <trkpt lat="36.924812039360404" lon="-4.525704011321068">
        <ele>502.91000000000003</ele>
        <time>2025-05-09T17:47:54Z</time>
      </trkpt>
      <trkpt lat="36.924917986616492" lon="-4.525820016860962">
        <ele>504.35000000000002</ele>
        <time>2025-05-09T17:47:55Z</time>
      </trkpt>
      <trkpt lat="36.92504296079278" lon="-4.525891011580825">
        <ele>505.31</ele>
        <time>2025-05-09T17:47:56Z</time>
      </trkpt>
      <trkpt lat="36.925163995474577" lon="-4.525961000472307">
        <ele>506.75</ele>
        <time>2025-05-09T17:47:57Z</time>
      </trkpt>
      <trkpt lat="36.925781993195415" lon="-4.526545973494649">
        <ele>515.39999999999998</ele>
        <time>2025-05-09T17:48:04Z</time>
      </trkpt>
      <trkpt lat="36.925849970430136" lon="-4.52661101706326">
        <ele>516.37</ele>
        <time>2025-05-09T17:48:05Z</time>
      </trkpt>
      <trkpt lat="36.925878971815109" lon="-4.526690980419517">
        <ele>517.33000000000004</ele>
        <time>2025-05-09T17:48:06Z</time>
      </trkpt>
      <trkpt lat="36.925896992906928" lon="-4.526769015938044">
        <ele>517.80999999999995</ele>
        <time>2025-05-09T17:48:07Z</time>
      </trkpt>
      <trkpt lat="36.925907973200083" lon="-4.526817966252565">
        <ele>518.76999999999998</ele>
        <time>2025-05-09T17:48:08Z</time>
      </trkpt>
      <trkpt lat="36.925886012613773" lon="-4.526860965415835">
        <ele>519.25</ele>
        <time>2025-05-09T17:48:09Z</time>
      </trkpt>
      <trkpt lat="36.92581501789391" lon="-4.526900025084615">
        <ele>520.21000000000004</ele>
        <time>2025-05-09T17:48:10Z</time>
      </trkpt>
      <trkpt lat="36.92572801373899" lon="-4.526946963742375">
        <ele>520.69000000000005</ele>
        <time>2025-05-09T17:48:11Z</time>
      </trkpt>
      <trkpt lat="36.925422996282578" lon="-4.527113009244204">
        <ele>522.61000000000001</ele>
        <time>2025-05-09T17:48:14Z</time>
      </trkpt>
      <trkpt lat="36.925357030704618" lon="-4.527209987863898">
        <ele>522.61000000000001</ele>
        <time>2025-05-09T17:48:15Z</time>
      </trkpt>
      <trkpt lat="36.925315037369728" lon="-4.527276959270239">
        <ele>523.09000000000003</ele>
        <time>2025-05-09T17:48:16Z</time>
      </trkpt>
      <trkpt lat="36.925325011834502" lon="-4.527352983132005">
        <ele>523.58000000000004</ele>
        <time>2025-05-09T17:48:17Z</time>
      </trkpt>
      <trkpt lat="36.925349989905953" lon="-4.527439987286925">
        <ele>524.05999999999995</ele>
        <time>2025-05-09T17:48:18Z</time>
      </trkpt>
      <trkpt lat="36.925386032089591" lon="-4.527472006157041">
        <ele>524.53999999999996</ele>
        <time>2025-05-09T17:48:19Z</time>
      </trkpt>
      <trkpt lat="36.925440011546016" lon="-4.527521040290594">
        <ele>524.53999999999996</ele>
        <time>2025-05-09T17:48:20Z</time>
      </trkpt>
      <trkpt lat="36.925888024270535" lon="-4.527981961145997">
        <ele>529.82000000000005</ele>
        <time>2025-05-09T17:48:27Z</time>
      </trkpt>
      <trkpt lat="36.926077036187053" lon="-4.528252026066184">
        <ele>533.19000000000005</ele>
        <time>2025-05-09T17:48:30Z</time>
      </trkpt>
      <trkpt lat="36.926146019250154" lon="-4.528309023007751">
        <ele>534.63</ele>
        <time>2025-05-09T17:48:31Z</time>
      </trkpt>
      <trkpt lat="36.926213996484876" lon="-4.528363002464175">
        <ele>535.59000000000003</ele>
        <time>2025-05-09T17:48:32Z</time>
      </trkpt>
      <trkpt lat="36.926293959841132" lon="-4.528427040204406">
        <ele>537.02999999999997</ele>
        <time>2025-05-09T17:48:33Z</time>
      </trkpt>
      <trkpt lat="36.926359003409743" lon="-4.528411030769348">
        <ele>537.99000000000001</ele>
        <time>2025-05-09T17:48:34Z</time>
      </trkpt>
      <trkpt lat="36.926448019221425" lon="-4.528388986364007">
        <ele>538.96000000000004</ele>
        <time>2025-05-09T17:48:35Z</time>
      </trkpt>
      <trkpt lat="36.927338009700179" lon="-4.528171978890896">
        <ele>547.61000000000001</ele>
        <time>2025-05-09T17:48:44Z</time>
      </trkpt>
      <trkpt lat="36.927431970834732" lon="-4.528184970840812">
        <ele>548.57000000000005</ele>
        <time>2025-05-09T17:48:45Z</time>
      </trkpt>
      <trkpt lat="36.927517969161272" lon="-4.528214978054166">
        <ele>550.00999999999999</ele>
        <time>2025-05-09T17:48:46Z</time>
      </trkpt>
      <trkpt lat="36.927599022164941" lon="-4.528259988874197">
        <ele>550.97000000000003</ele>
        <time>2025-05-09T17:48:47Z</time>
      </trkpt>
      <trkpt lat="36.92768300883472" lon="-4.528306005522609">
        <ele>551.92999999999995</ele>
        <time>2025-05-09T17:48:48Z</time>
      </trkpt>
      <trkpt lat="36.927849976345897" lon="-4.528398038819432">
        <ele>553.86000000000001</ele>
        <time>2025-05-09T17:48:50Z</time>
      </trkpt>
      <trkpt lat="36.927924994379282" lon="-4.528485964983702">
        <ele>554.82000000000005</ele>
        <time>2025-05-09T17:48:51Z</time>
      </trkpt>
      <trkpt lat="36.927967993542552" lon="-4.528599036857486">
        <ele>555.77999999999997</ele>
        <time>2025-05-09T17:48:52Z</time>
      </trkpt>
      <trkpt lat="36.928066983819008" lon="-4.528751000761986">
        <ele>557.70000000000005</ele>
        <time>2025-05-09T17:48:54Z</time>
      </trkpt>
      <trkpt lat="36.928122974932194" lon="-4.528817972168326">
        <ele>558.65999999999997</ele>
        <time>2025-05-09T17:48:55Z</time>
      </trkpt>
      <trkpt lat="36.928177960216999" lon="-4.528882009908557">
        <ele>559.62</ele>
        <time>2025-05-09T17:48:56Z</time>
      </trkpt>
      <trkpt lat="36.928751030936837" lon="-4.52949003316462">
        <ele>572.12</ele>
        <time>2025-05-09T17:49:06Z</time>
      </trkpt>
      <trkpt lat="36.928909029811621" lon="-4.529653983190656">
        <ele>575.49000000000001</ele>
        <time>2025-05-09T17:49:09Z</time>
      </trkpt>
      <trkpt lat="36.928968960419297" lon="-4.529723972082138">
        <ele>576.92999999999995</ele>
        <time>2025-05-09T17:49:10Z</time>
      </trkpt>
      <trkpt lat="36.929069040343165" lon="-4.529845006763935">
        <ele>580.76999999999998</ele>
        <time>2025-05-09T17:49:12Z</time>
      </trkpt>
      <trkpt lat="36.929473970085382" lon="-4.530287990346551">
        <ele>597.60000000000002</ele>
        <time>2025-05-09T17:49:22Z</time>
      </trkpt>
      <trkpt lat="36.929569020867348" lon="-4.530389998108149">
        <ele>601.91999999999996</ele>
        <time>2025-05-09T17:49:25Z</time>
      </trkpt>
      <trkpt lat="36.929601039737463" lon="-4.530417993664742">
        <ele>602.39999999999998</ele>
        <time>2025-05-09T17:49:26Z</time>
      </trkpt>
      <trkpt lat="36.929632974788547" lon="-4.530446995049715">
        <ele>603.36000000000001</ele>
        <time>2025-05-09T17:49:27Z</time>
      </trkpt>
      <trkpt lat="36.929668011143804" lon="-4.530477002263069">
        <ele>604.33000000000004</ele>
        <time>2025-05-09T17:49:28Z</time>
      </trkpt>
      <trkpt lat="36.929702963680029" lon="-4.530508015304804">
        <ele>605.28999999999996</ele>
        <time>2025-05-09T17:49:29Z</time>
      </trkpt>
      <trkpt lat="36.929727019742131" lon="-4.530529975891113">
        <ele>605.76999999999998</ele>
        <time>2025-05-09T17:49:30Z</time>
      </trkpt>
      <trkpt lat="36.929764989763498" lon="-4.530568029731512">
        <ele>606.73000000000002</ele>
        <time>2025-05-09T17:49:31Z</time>
      </trkpt>
      <trkpt lat="36.929798014461994" lon="-4.530499968677759">
        <ele>607.21000000000004</ele>
        <time>2025-05-09T17:49:32Z</time>
      </trkpt>
      <trkpt lat="36.929837996140122" lon="-4.530483037233353">
        <ele>607.69000000000005</ele>
        <time>2025-05-09T17:49:33Z</time>
      </trkpt>
      <trkpt lat="36.929889963939786" lon="-4.530464010313153">
        <ele>608.16999999999996</ele>
        <time>2025-05-09T17:49:34Z</time>
      </trkpt>
      <trkpt lat="36.929933968931437" lon="-4.530455963686109">
        <ele>608.64999999999998</ele>
        <time>2025-05-09T17:49:35Z</time>
      </trkpt>
      <trkpt lat="36.929971016943455" lon="-4.530450012534857">
        <ele>609.13</ele>
        <time>2025-05-09T17:49:36Z</time>
      </trkpt>
      <trkpt lat="36.930061038583517" lon="-4.53043500892818">
        <ele>611.05999999999995</ele>
        <time>2025-05-09T17:49:45Z</time>
      </trkpt>
      <trkpt lat="36.930147036910057" lon="-4.530400978401303">
        <ele>613.94000000000005</ele>
        <time>2025-05-09T17:50:11Z</time>
      </trkpt>
      <trkpt lat="36.93017503246665" lon="-4.530353033915162">
        <ele>614.41999999999996</ele>
        <time>2025-05-09T17:50:12Z</time>
      </trkpt>
      <trkpt lat="36.93022096529603" lon="-4.530272986739874">
        <ele>614.89999999999998</ele>
        <time>2025-05-09T17:50:13Z</time>
      </trkpt>
      <trkpt lat="36.930248960852623" lon="-4.530235016718507">
        <ele>614.89999999999998</ele>
        <time>2025-05-09T17:50:14Z</time>
      </trkpt>
      <trkpt lat="36.930291038006544" lon="-4.53017801977694">
        <ele>615.38</ele>
        <time>2025-05-09T17:50:15Z</time>
      </trkpt>
      <trkpt lat="36.930333031341434" lon="-4.530122028663755">
        <ele>615.86000000000001</ele>
        <time>2025-05-09T17:50:16Z</time>
      </trkpt>
      <trkpt lat="36.930456999689341" lon="-4.529956988990307">
        <ele>615.38</ele>
        <time>2025-05-09T17:50:19Z</time>
      </trkpt>
      <trkpt lat="36.930668978020549" lon="-4.529701005667448">
        <ele>615.38</ele>
        <time>2025-05-09T17:50:24Z</time>
      </trkpt>
      <trkpt lat="36.930705020204186" lon="-4.529660018160939">
        <ele>615.38</ele>
        <time>2025-05-09T17:50:25Z</time>
      </trkpt>
      <trkpt lat="36.930737961083651" lon="-4.52962196432054">
        <ele>615.38</ele>
        <time>2025-05-09T17:50:26Z</time>
      </trkpt>
      <trkpt lat="36.930768974125385" lon="-4.529588017612696">
        <ele>615.38</ele>
        <time>2025-05-09T17:50:27Z</time>
      </trkpt>
      <trkpt lat="36.930768974125385" lon="-4.529588017612696">
        <ele>615.86000000000001</ele>
        <time>2025-05-09T17:50:36Z</time>
      </trkpt>
      <trkpt lat="36.930768974125385" lon="-4.529588017612696">
        <ele>616.34000000000003</ele>
        <time>2025-05-09T17:50:55Z</time>
      </trkpt>
      <trkpt lat="36.930768974125385" lon="-4.529588017612696">
        <ele>616.34000000000003</ele>
        <time>2025-05-09T17:51:33Z</time>
      </trkpt>
      <trkpt lat="36.930805016309023" lon="-4.529674015939236">
        <ele>615.38</ele>
        <time>2025-05-10T07:51:58Z</time>
      </trkpt>
      <trkpt lat="36.930778026580811" lon="-4.529522974044085">
        <ele>600.48000000000002</ele>
        <time>2025-05-10T07:52:56Z</time>
      </trkpt>
      <trkpt lat="36.930819014087319" lon="-4.529524985700846">
        <ele>611.05999999999995</ele>
        <time>2025-05-10T07:53:33Z</time>
      </trkpt>
      <trkpt lat="36.930850027129054" lon="-4.529546024277806">
        <ele>610.09000000000003</ele>
        <time>2025-05-10T07:53:40Z</time>
      </trkpt>
      <trkpt lat="36.930866958573461" lon="-4.529477041214705">
        <ele>609.61000000000001</ele>
        <time>2025-05-10T07:53:43Z</time>
      </trkpt>
      <trkpt lat="36.931080026552081" lon="-4.529236983507872">
        <ele>610.09000000000003</ele>
        <time>2025-05-10T07:53:49Z</time>
      </trkpt>
      <trkpt lat="36.931111961603165" lon="-4.529201025143266">
        <ele>610.57000000000005</ele>
        <time>2025-05-10T07:53:50Z</time>
      </trkpt>
      <trkpt lat="36.931142974644899" lon="-4.529165988788009">
        <ele>610.57000000000005</ele>
        <time>2025-05-10T07:53:51Z</time>
      </trkpt>
      <trkpt lat="36.931173987686634" lon="-4.529131036251783">
        <ele>610.57000000000005</ele>
        <time>2025-05-10T07:53:52Z</time>
      </trkpt>
      <trkpt lat="36.93120701238513" lon="-4.529093988239765">
        <ele>610.57000000000005</ele>
        <time>2025-05-10T07:53:53Z</time>
      </trkpt>
      <trkpt lat="36.931240959092975" lon="-4.529055012390018">
        <ele>611.05999999999995</ele>
        <time>2025-05-10T07:53:54Z</time>
      </trkpt>
      <trkpt lat="36.931274989619851" lon="-4.529016958549619">
        <ele>611.05999999999995</ele>
        <time>2025-05-10T07:53:55Z</time>
      </trkpt>
      <trkpt lat="36.931306002661586" lon="-4.528982006013393">
        <ele>611.05999999999995</ele>
        <time>2025-05-10T07:53:56Z</time>
      </trkpt>
      <trkpt lat="36.931370962411165" lon="-4.528908999636769">
        <ele>611.53999999999996</ele>
        <time>2025-05-10T07:53:58Z</time>
      </trkpt>
      <trkpt lat="36.931477999314666" lon="-4.528787964954972">
        <ele>612.01999999999998</ele>
        <time>2025-05-10T07:54:01Z</time>
      </trkpt>
      <trkpt lat="36.931514041498303" lon="-4.528747983276844">
        <ele>612.01999999999998</ele>
        <time>2025-05-10T07:54:02Z</time>
      </trkpt>
      <trkpt lat="36.931694000959396" lon="-4.528544973582029">
        <ele>614.41999999999996</ele>
        <time>2025-05-10T07:54:12Z</time>
      </trkpt>
      <trkpt lat="36.93174303509295" lon="-4.528542961925268">
        <ele>614.89999999999998</ele>
        <time>2025-05-10T07:54:13Z</time>
      </trkpt>
      <trkpt lat="36.93176600150764" lon="-4.528577998280525">
        <ele>614.89999999999998</ele>
        <time>2025-05-10T07:54:14Z</time>
      </trkpt>
      <trkpt lat="36.931800032034516" lon="-4.528629966080189">
        <ele>615.38</ele>
        <time>2025-05-10T07:54:15Z</time>
      </trkpt>
      <trkpt lat="36.931840013712645" lon="-4.528688974678516">
        <ele>615.86000000000001</ele>
        <time>2025-05-10T07:54:16Z</time>
      </trkpt>
      <trkpt lat="36.931948978453875" lon="-4.528793999925256">
        <ele>616.82000000000005</ele>
        <time>2025-05-10T07:54:18Z</time>
      </trkpt>
      <trkpt lat="36.931996000930667" lon="-4.528835993260145">
        <ele>617.29999999999995</ele>
        <time>2025-05-10T07:54:19Z</time>
      </trkpt>
      <trkpt lat="36.932032965123653" lon="-4.528870023787022">
        <ele>617.77999999999997</ele>
        <time>2025-05-10T07:54:20Z</time>
      </trkpt>
      <trkpt lat="36.932103959843516" lon="-4.528912017121911">
        <ele>619.71000000000004</ele>
        <time>2025-05-10T07:54:28Z</time>
      </trkpt>
      <trkpt lat="36.932268999516964" lon="-4.528967002406716">
        <ele>620.66999999999996</ele>
        <time>2025-05-10T07:54:40Z</time>
      </trkpt>
      <trkpt lat="36.932373018935323" lon="-4.528922997415066">
        <ele>621.14999999999998</ele>
        <time>2025-05-10T07:54:42Z</time>
      </trkpt>
      <trkpt lat="36.932417023926973" lon="-4.528869017958641">
        <ele>621.14999999999998</ele>
        <time>2025-05-10T07:54:43Z</time>
      </trkpt>
      <trkpt lat="36.932950029149652" lon="-4.528151024132967">
        <ele>625.96000000000004</ele>
        <time>2025-05-10T07:54:54Z</time>
      </trkpt>
      <trkpt lat="36.93314298056066" lon="-4.527894034981728">
        <ele>628.84000000000003</ele>
        <time>2025-05-10T07:54:58Z</time>
      </trkpt>
      <trkpt lat="36.93318204022944" lon="-4.527848018333316">
        <ele>629.79999999999995</ele>
        <time>2025-05-10T07:54:59Z</time>
      </trkpt>
      <trkpt lat="36.9332480058074" lon="-4.527825973927975">
        <ele>630.75999999999999</ele>
        <time>2025-05-10T07:55:00Z</time>
      </trkpt>
      <trkpt lat="36.933310031890869" lon="-4.527805019170046">
        <ele>631.72000000000003</ele>
        <time>2025-05-10T07:55:01Z</time>
      </trkpt>
      <trkpt lat="36.933344984427094" lon="-4.527839971706271">
        <ele>632.67999999999995</ele>
        <time>2025-05-10T07:55:02Z</time>
      </trkpt>
      <trkpt lat="36.93339703604579" lon="-4.527892023324966">
        <ele>633.64999999999998</ele>
        <time>2025-05-10T07:55:03Z</time>
      </trkpt>
      <trkpt lat="36.93344104103744" lon="-4.527939967811108">
        <ele>634.61000000000001</ele>
        <time>2025-05-10T07:55:04Z</time>
      </trkpt>
      <trkpt lat="36.933467024937272" lon="-4.528032001107931">
        <ele>635.57000000000005</ele>
        <time>2025-05-10T07:55:05Z</time>
      </trkpt>
      <trkpt lat="36.933536008000374" lon="-4.528252026066184">
        <ele>636.52999999999997</ele>
        <time>2025-05-10T07:55:07Z</time>
      </trkpt>
      <trkpt lat="36.933594010770321" lon="-4.528344981372356">
        <ele>637.00999999999999</ele>
        <time>2025-05-10T07:55:08Z</time>
      </trkpt>
      <trkpt lat="36.933668022975326" lon="-4.528431985527277">
        <ele>637.49000000000001</ele>
        <time>2025-05-10T07:55:09Z</time>
      </trkpt>
      <trkpt lat="36.933758966624737" lon="-4.528484037145972">
        <ele>637.97000000000003</ele>
        <time>2025-05-10T07:55:10Z</time>
      </trkpt>
      <trkpt lat="36.933857034891844" lon="-4.52850298024714">
        <ele>638.45000000000005</ele>
        <time>2025-05-10T07:55:11Z</time>
      </trkpt>
      <trkpt lat="36.93395895883441" lon="-4.528518989682198">
        <ele>638.45000000000005</ele>
        <time>2025-05-10T07:55:12Z</time>
      </trkpt>
      <trkpt lat="36.934060966596007" lon="-4.528534999117255">
        <ele>639.88999999999999</ele>
        <time>2025-05-10T07:55:13Z</time>
      </trkpt>
      <trkpt lat="36.934163980185986" lon="-4.528552014380693">
        <ele>641.34000000000003</ele>
        <time>2025-05-10T07:55:14Z</time>
      </trkpt>
      <trkpt lat="36.934674018993974" lon="-4.528544973582029">
        <ele>647.10000000000002</ele>
        <time>2025-05-10T07:55:19Z</time>
      </trkpt>
      <trkpt lat="36.934758005663753" lon="-4.528561988845468">
        <ele>648.54999999999995</ele>
        <time>2025-05-10T07:55:20Z</time>
      </trkpt>
      <trkpt lat="36.934829000383615" lon="-4.528575986623764">
        <ele>649.99000000000001</ele>
        <time>2025-05-10T07:55:21Z</time>
      </trkpt>
      <trkpt lat="36.934877028688788" lon="-4.528619991615415">
        <ele>650.95000000000005</ele>
        <time>2025-05-10T07:55:22Z</time>
      </trkpt>
      <trkpt lat="36.934919022023678" lon="-4.528677994385362">
        <ele>651.90999999999997</ele>
        <time>2025-05-10T07:55:23Z</time>
      </trkpt>
      <trkpt lat="36.934911981225014" lon="-4.528773967176676">
        <ele>653.35000000000002</ele>
        <time>2025-05-10T07:55:24Z</time>
      </trkpt>
      <trkpt lat="36.934905024245381" lon="-4.52888997271657">
        <ele>654.30999999999995</ele>
        <time>2025-05-10T07:55:25Z</time>
      </trkpt>
      <trkpt lat="36.934895971789956" lon="-4.529014024883509">
        <ele>654.79999999999995</ele>
        <time>2025-05-10T07:55:26Z</time>
      </trkpt>
      <trkpt lat="36.93487904034555" lon="-4.52927503734827">
        <ele>656.24000000000001</ele>
        <time>2025-05-10T07:55:28Z</time>
      </trkpt>
      <trkpt lat="36.934899995103478" lon="-4.52940596267581">
        <ele>656.72000000000003</ele>
        <time>2025-05-10T07:55:29Z</time>
      </trkpt>
      <trkpt lat="36.934928996488452" lon="-4.52953303232789">
        <ele>657.67999999999995</ele>
        <time>2025-05-10T07:55:30Z</time>
      </trkpt>
      <trkpt lat="36.934990016743541" lon="-4.529637973755598">
        <ele>658.63999999999999</ele>
        <time>2025-05-10T07:55:31Z</time>
      </trkpt>
      <trkpt lat="36.935069980099797" lon="-4.529725983738899">
        <ele>659.60000000000002</ele>
        <time>2025-05-10T07:55:32Z</time>
      </trkpt>
      <trkpt lat="36.935151033103466" lon="-4.52981298789382">
        <ele>661.51999999999998</ele>
        <time>2025-05-10T07:55:33Z</time>
      </trkpt>
      <trkpt lat="36.935234013944864" lon="-4.529889011755586">
        <ele>662.49000000000001</ele>
        <time>2025-05-10T07:55:34Z</time>
      </trkpt>
      <trkpt lat="36.935671968385577" lon="-4.530194029211998">
        <ele>670.65999999999997</ele>
        <time>2025-05-10T07:55:39Z</time>
      </trkpt>
      <trkpt lat="36.935764001682401" lon="-4.530218001455069">
        <ele>672.10000000000002</ele>
        <time>2025-05-10T07:55:40Z</time>
      </trkpt>
      <trkpt lat="36.935842037200928" lon="-4.530229987576604">
        <ele>673.53999999999996</ele>
        <time>2025-05-10T07:55:41Z</time>
      </trkpt>
      <trkpt lat="36.935939015820622" lon="-4.530189000070095">
        <ele>675.46000000000004</ele>
        <time>2025-05-10T07:55:42Z</time>
      </trkpt>
      <trkpt lat="36.936029037460685" lon="-4.530152035877109">
        <ele>676.90999999999997</ele>
        <time>2025-05-10T07:55:43Z</time>
      </trkpt>
      <trkpt lat="36.936114029958844" lon="-4.530108030885458">
        <ele>677.87</ele>
        <time>2025-05-10T07:55:44Z</time>
      </trkpt>
      <trkpt lat="36.936184018850327" lon="-4.530035024508834">
        <ele>679.30999999999995</ele>
        <time>2025-05-10T07:55:45Z</time>
      </trkpt>
      <trkpt lat="36.936247972771525" lon="-4.529967969283462">
        <ele>680.26999999999998</ele>
        <time>2025-05-10T07:55:46Z</time>
      </trkpt>
      <trkpt lat="36.936303041875362" lon="-4.529909966513515">
        <ele>681.23000000000002</ele>
        <time>2025-05-10T07:55:47Z</time>
      </trkpt>
      <trkpt lat="36.93668601103127" lon="-4.529553987085819">
        <ele>686.03999999999996</ele>
        <time>2025-05-10T07:55:54Z</time>
      </trkpt>
      <trkpt lat="36.936748037114739" lon="-4.529531020671129">
        <ele>686.51999999999998</ele>
        <time>2025-05-10T07:55:55Z</time>
      </trkpt>
      <trkpt lat="36.936817020177841" lon="-4.529514005407691">
        <ele>687.48000000000002</ele>
        <time>2025-05-10T07:55:56Z</time>
      </trkpt>
      <trkpt lat="36.936887009069324" lon="-4.529496990144253">
        <ele>688.44000000000005</ele>
        <time>2025-05-10T07:55:57Z</time>
      </trkpt>
      <trkpt lat="36.936955992132425" lon="-4.529478969052434">
        <ele>689.39999999999998</ele>
        <time>2025-05-10T07:55:58Z</time>
      </trkpt>
      <trkpt lat="36.937022041529417" lon="-4.52949196100235">
        <ele>690.84000000000003</ele>
        <time>2025-05-10T07:55:59Z</time>
      </trkpt>
      <trkpt lat="36.937163025140762" lon="-4.529522974044085">
        <ele>693.25</ele>
        <time>2025-05-10T07:56:01Z</time>
      </trkpt>
      <trkpt lat="36.937238965183496" lon="-4.529538983479142">
        <ele>694.21000000000004</ele>
        <time>2025-05-10T07:56:02Z</time>
      </trkpt>
      <trkpt lat="36.937300991266966" lon="-4.529596986249089">
        <ele>695.64999999999998</ele>
        <time>2025-05-10T07:56:03Z</time>
      </trkpt>
      <trkpt lat="36.937367040663958" lon="-4.529681978747249">
        <ele>696.61000000000001</ele>
        <time>2025-05-10T07:56:04Z</time>
      </trkpt>
      <trkpt lat="36.937429988756776" lon="-4.529778035357595">
        <ele>697.57000000000005</ele>
        <time>2025-05-10T07:56:05Z</time>
      </trkpt>
      <trkpt lat="36.937485979869962" lon="-4.529890017583966">
        <ele>698.52999999999997</ele>
        <time>2025-05-10T07:56:06Z</time>
      </trkpt>
      <trkpt lat="36.937972968444228" lon="-4.530794005841017">
        <ele>706.23000000000002</ele>
        <time>2025-05-10T07:56:14Z</time>
      </trkpt>
      <trkpt lat="36.938723986968398" lon="-4.531614007428289">
        <ele>714.88</ele>
        <time>2025-05-10T07:56:22Z</time>
      </trkpt>
      <trkpt lat="36.939360005781054" lon="-4.532586978748441">
        <ele>724.97000000000003</ele>
        <time>2025-05-10T07:56:30Z</time>
      </trkpt>
      <trkpt lat="36.939447009935975" lon="-4.532684963196516">
        <ele>726.40999999999997</ele>
        <time>2025-05-10T07:56:31Z</time>
      </trkpt>
      <trkpt lat="36.939534014090896" lon="-4.532781019806862">
        <ele>727.37</ele>
        <time>2025-05-10T07:56:32Z</time>
      </trkpt>
      <trkpt lat="36.939639039337635" lon="-4.532834999263287">
        <ele>728.82000000000005</ele>
        <time>2025-05-10T07:56:33Z</time>
      </trkpt>
      <trkpt lat="36.939744986593723" lon="-4.532873975113034">
        <ele>729.77999999999997</ele>
        <time>2025-05-10T07:56:34Z</time>
      </trkpt>
      <trkpt lat="36.939853029325604" lon="-4.532889984548092">
        <ele>731.22000000000003</ele>
        <time>2025-05-10T07:56:35Z</time>
      </trkpt>
      <trkpt lat="36.939960988238454" lon="-4.532889984548092">
        <ele>733.13999999999999</ele>
        <time>2025-05-10T07:56:36Z</time>
      </trkpt>
      <trkpt lat="36.940061990171671" lon="-4.532856959849596">
        <ele>734.10000000000002</ele>
        <time>2025-05-10T07:56:37Z</time>
      </trkpt>
      <trkpt lat="36.940148994326591" lon="-4.532813960686326">
        <ele>735.54999999999995</ele>
        <time>2025-05-10T07:56:38Z</time>
      </trkpt>
      <trkpt lat="36.940220994874835" lon="-4.532759981229901">
        <ele>736.99000000000001</ele>
        <time>2025-05-10T07:56:39Z</time>
      </trkpt>
      <trkpt lat="36.940288972109556" lon="-4.532708013430238">
        <ele>737.95000000000005</ele>
        <time>2025-05-10T07:56:40Z</time>
      </trkpt>
      <trkpt lat="36.940507991239429" lon="-4.532540962100029">
        <ele>741.78999999999996</ele>
        <time>2025-05-10T07:56:43Z</time>
      </trkpt>
      <trkpt lat="36.940585020929575" lon="-4.532482959330082">
        <ele>742.75999999999999</ele>
        <time>2025-05-10T07:56:44Z</time>
      </trkpt>
      <trkpt lat="36.940671019256115" lon="-4.532467033714056">
        <ele>744.20000000000005</ele>
        <time>2025-05-10T07:56:45Z</time>
      </trkpt>
      <trkpt lat="36.940761962905526" lon="-4.532450018450618">
        <ele>745.15999999999997</ele>
        <time>2025-05-10T07:56:46Z</time>
      </trkpt>
      <trkpt lat="36.940820971503854" lon="-4.532439960166812">
        <ele>746.60000000000002</ele>
        <time>2025-05-10T07:56:47Z</time>
      </trkpt>
      <trkpt lat="36.940922979265451" lon="-4.532480025663972">
        <ele>748.03999999999996</ele>
        <time>2025-05-10T07:56:48Z</time>
      </trkpt>
      <trkpt lat="36.940999003127217" lon="-4.532511038705707">
        <ele>749</ele>
        <time>2025-05-10T07:56:49Z</time>
      </trkpt>
      <trkpt lat="36.941056000068784" lon="-4.532570969313383">
        <ele>749.97000000000003</ele>
        <time>2025-05-10T07:56:50Z</time>
      </trkpt>
      <trkpt lat="36.941096987575293" lon="-4.532664008438587">
        <ele>750.92999999999995</ele>
        <time>2025-05-10T07:56:51Z</time>
      </trkpt>
      <trkpt lat="36.941135041415691" lon="-4.532771967351437">
        <ele>752.37</ele>
        <time>2025-05-10T07:56:52Z</time>
      </trkpt>
      <trkpt lat="36.941431006416678" lon="-4.533918024972081">
        <ele>761.98000000000002</ele>
        <time>2025-05-10T07:56:59Z</time>
      </trkpt>
      <trkpt lat="36.941805006936193" lon="-4.535250999033451">
        <ele>773.03999999999996</ele>
        <time>2025-05-10T07:57:06Z</time>
      </trkpt>
      <trkpt lat="36.941908020526171" lon="-4.535545958206058">
        <ele>776.88</ele>
        <time>2025-05-10T07:57:08Z</time>
      </trkpt>
      <trkpt lat="36.941955965012312" lon="-4.535650983452797">
        <ele>778.32000000000005</ele>
        <time>2025-05-10T07:57:09Z</time>
      </trkpt>
      <trkpt lat="36.941979015246034" lon="-4.535701023414731">
        <ele>780.25</ele>
        <time>2025-05-10T07:57:10Z</time>
      </trkpt>
      <trkpt lat="36.942046992480755" lon="-4.535715021193028">
        <ele>781.69000000000005</ele>
        <time>2025-05-10T07:57:11Z</time>
      </trkpt>
      <trkpt lat="36.942089991644025" lon="-4.535717032849789">
        <ele>783.13</ele>
        <time>2025-05-10T07:57:12Z</time>
      </trkpt>
      <trkpt lat="36.94212201051414" lon="-4.535662969574332">
        <ele>784.09000000000003</ele>
        <time>2025-05-10T07:57:13Z</time>
      </trkpt>
      <trkpt lat="36.942153023555875" lon="-4.535589041188359">
        <ele>785.52999999999997</ele>
        <time>2025-05-10T07:57:14Z</time>
      </trkpt>
      <trkpt lat="36.942160986363888" lon="-4.535488039255142">
        <ele>786.5</ele>
        <time>2025-05-10T07:57:15Z</time>
      </trkpt>
      <trkpt lat="36.942240027710795" lon="-4.534978000447154">
        <ele>790.34000000000003</ele>
        <time>2025-05-10T07:57:19Z</time>
      </trkpt>
      <trkpt lat="36.942284032702446" lon="-4.534880015999079">
        <ele>791.29999999999995</ele>
        <time>2025-05-10T07:57:20Z</time>
      </trkpt>
      <trkpt lat="36.942369025200605" lon="-4.534826036542654">
        <ele>792.25999999999999</ele>
        <time>2025-05-10T07:57:21Z</time>
      </trkpt>
      <trkpt lat="36.942472960799932" lon="-4.534799968823791">
        <ele>793.22000000000003</ele>
        <time>2025-05-10T07:57:22Z</time>
      </trkpt>
      <trkpt lat="36.942586032673717" lon="-4.534779014065862">
        <ele>794.19000000000005</ele>
        <time>2025-05-10T07:57:23Z</time>
      </trkpt>
      <trkpt lat="36.942706983536482" lon="-4.534779014065862">
        <ele>795.63</ele>
        <time>2025-05-10T07:57:24Z</time>
      </trkpt>
      <trkpt lat="36.943293968215585" lon="-4.534793011844158">
        <ele>800.91999999999996</ele>
        <time>2025-05-10T07:57:29Z</time>
      </trkpt>
      <trkpt lat="36.943398993462324" lon="-4.534825030714274">
        <ele>801.88</ele>
        <time>2025-05-10T07:57:30Z</time>
      </trkpt>
      <trkpt lat="36.943491026759148" lon="-4.534892002120614">
        <ele>802.84000000000003</ele>
        <time>2025-05-10T07:57:31Z</time>
      </trkpt>
      <trkpt lat="36.943557998165488" lon="-4.534997027367353">
        <ele>804.27999999999997</ele>
        <time>2025-05-10T07:57:32Z</time>
      </trkpt>
      <trkpt lat="36.943616000935435" lon="-4.535111021250486">
        <ele>805.24000000000001</ele>
        <time>2025-05-10T07:57:33Z</time>
      </trkpt>
      <trkpt lat="36.943641984835267" lon="-4.535252004861832">
        <ele>806.67999999999995</ele>
        <time>2025-05-10T07:57:34Z</time>
      </trkpt>
      <trkpt lat="36.943646008148789" lon="-4.53539801761508">
        <ele>808.13</ele>
        <time>2025-05-10T07:57:35Z</time>
      </trkpt>
      <trkpt lat="36.943633016198874" lon="-4.535551993176341">
        <ele>809.57000000000005</ele>
        <time>2025-05-10T07:57:36Z</time>
      </trkpt>
      <trkpt lat="36.943620024248958" lon="-4.535708986222744">
        <ele>811.00999999999999</ele>
        <time>2025-05-10T07:57:37Z</time>
      </trkpt>
      <trkpt lat="36.943619018420577" lon="-4.535863967612386">
        <ele>812.45000000000005</ele>
        <time>2025-05-10T07:57:38Z</time>
      </trkpt>
      <trkpt lat="36.943652965128422" lon="-4.536003023386002">
        <ele>813.88999999999999</ele>
        <time>2025-05-10T07:57:39Z</time>
      </trkpt>
      <trkpt lat="36.943696970120072" lon="-4.536132020875812">
        <ele>815.34000000000003</ele>
        <time>2025-05-10T07:57:40Z</time>
      </trkpt>
      <trkpt lat="36.943753967061639" lon="-4.536247020587325">
        <ele>817.25999999999999</ele>
        <time>2025-05-10T07:57:41Z</time>
      </trkpt>
      <trkpt lat="36.943838037550449" lon="-4.536310974508524">
        <ele>818.70000000000005</ele>
        <time>2025-05-10T07:57:42Z</time>
      </trkpt>
      <trkpt lat="36.943920012563467" lon="-4.5363450050354">
        <ele>820.62</ele>
        <time>2025-05-10T07:57:43Z</time>
      </trkpt>
      <trkpt lat="36.944014979526401" lon="-4.5363450050354">
        <ele>822.05999999999995</ele>
        <time>2025-05-10T07:57:44Z</time>
      </trkpt>
      <trkpt lat="36.944113969802856" lon="-4.53632103279233">
        <ele>823.50999999999999</ele>
        <time>2025-05-10T07:57:45Z</time>
      </trkpt>
      <trkpt lat="36.944832969456911" lon="-4.53613000921905">
        <ele>833.12</ele>
        <time>2025-05-10T07:57:52Z</time>
      </trkpt>
      <trkpt lat="36.944900024682283" lon="-4.536156998947263">
        <ele>834.55999999999995</ele>
        <time>2025-05-10T07:57:53Z</time>
      </trkpt>
      <trkpt lat="36.944949980825186" lon="-4.536203015595675">
        <ele>836</ele>
        <time>2025-05-10T07:57:54Z</time>
      </trkpt>
      <trkpt lat="36.944983005523682" lon="-4.53630200587213">
        <ele>837.45000000000005</ele>
        <time>2025-05-10T07:57:55Z</time>
      </trkpt>
      <trkpt lat="36.944983005523682" lon="-4.536395967006683">
        <ele>838.40999999999997</ele>
        <time>2025-05-10T07:57:56Z</time>
      </trkpt>
      <trkpt lat="36.944983005523682" lon="-4.536512978374958">
        <ele>839.85000000000002</ele>
        <time>2025-05-10T07:57:57Z</time>
      </trkpt>
      <trkpt lat="36.944983005523682" lon="-4.53668799251318">
        <ele>842.73000000000002</ele>
        <time>2025-05-10T07:57:59Z</time>
      </trkpt>
      <trkpt lat="36.945033967494965" lon="-4.536755969747901">
        <ele>844.17999999999995</ele>
        <time>2025-05-10T07:58:00Z</time>
      </trkpt>
      <trkpt lat="36.945083001628518" lon="-4.536768961697817">
        <ele>845.13999999999999</ele>
        <time>2025-05-10T07:58:01Z</time>
      </trkpt>
      <trkpt lat="36.945176962763071" lon="-4.536753036081791">
        <ele>846.58000000000004</ele>
        <time>2025-05-10T07:58:02Z</time>
      </trkpt>
      <trkpt lat="36.945223985239863" lon="-4.536721017211676">
        <ele>847.05999999999995</ele>
        <time>2025-05-10T07:58:03Z</time>
      </trkpt>
      <trkpt lat="36.945305960252881" lon="-4.536667037755251">
        <ele>848.01999999999998</ele>
        <time>2025-05-10T07:58:04Z</time>
      </trkpt>
      <trkpt lat="36.94609796628356" lon="-4.536024983972311">
        <ele>853.78999999999996</ele>
        <time>2025-05-10T07:58:12Z</time>
      </trkpt>
      <trkpt lat="36.946173990145326" lon="-4.535886012017727">
        <ele>854.26999999999998</ele>
        <time>2025-05-10T07:58:13Z</time>
      </trkpt>
      <trkpt lat="36.946916040033102" lon="-4.534511966630817">
        <ele>859.08000000000004</ele>
        <time>2025-05-10T07:58:23Z</time>
      </trkpt>
      <trkpt lat="36.946958033367991" lon="-4.534435020759702">
        <ele>859.08000000000004</ele>
        <time>2025-05-10T07:58:24Z</time>
      </trkpt>
      <trkpt lat="36.94708501920104" lon="-4.534317003563047">
        <ele>858.59000000000003</ele>
        <time>2025-05-10T07:58:25Z</time>
      </trkpt>
      <trkpt lat="36.947189038619399" lon="-4.534221030771732">
        <ele>858.11000000000001</ele>
        <time>2025-05-10T07:58:26Z</time>
      </trkpt>
      <trkpt lat="36.947294985875487" lon="-4.534139977768064">
        <ele>857.14999999999998</ele>
        <time>2025-05-10T07:58:27Z</time>
      </trkpt>
      <trkpt lat="36.947427000850439" lon="-4.534079041332007">
        <ele>856.66999999999996</ele>
        <time>2025-05-10T07:58:28Z</time>
      </trkpt>
      <trkpt lat="36.947559015825391" lon="-4.534018021076918">
        <ele>856.19000000000005</ele>
        <time>2025-05-10T07:58:29Z</time>
      </trkpt>
      <trkpt lat="36.94768700748682" lon="-4.53395901247859">
        <ele>855.71000000000004</ele>
        <time>2025-05-10T07:58:30Z</time>
      </trkpt>
      <trkpt lat="36.947817010805011" lon="-4.533896986395121">
        <ele>855.23000000000002</ele>
        <time>2025-05-10T07:58:31Z</time>
      </trkpt>
      <trkpt lat="36.947894040495157" lon="-4.533764971420169">
        <ele>855.23000000000002</ele>
        <time>2025-05-10T07:58:32Z</time>
      </trkpt>
      <trkpt lat="36.947969980537891" lon="-4.533627005293965">
        <ele>855.71000000000004</ele>
        <time>2025-05-10T07:58:33Z</time>
      </trkpt>
      <trkpt lat="36.948014991357923" lon="-4.533461965620518">
        <ele>856.19000000000005</ele>
        <time>2025-05-10T07:58:34Z</time>
      </trkpt>
      <trkpt lat="36.948061008006334" lon="-4.53329399228096">
        <ele>856.66999999999996</ele>
        <time>2025-05-10T07:58:35Z</time>
      </trkpt>
      <trkpt lat="36.948152035474777" lon="-4.532990986481309">
        <ele>857.63</ele>
        <time>2025-05-10T07:58:37Z</time>
      </trkpt>
      <trkpt lat="36.948212971910834" lon="-4.532869029790163">
        <ele>858.59000000000003</ele>
        <time>2025-05-10T07:58:38Z</time>
      </trkpt>
      <trkpt lat="36.948290001600981" lon="-4.532749000936747">
        <ele>859.08000000000004</ele>
        <time>2025-05-10T07:58:39Z</time>
      </trkpt>
      <trkpt lat="36.948398966342211" lon="-4.532688986510038">
        <ele>860.03999999999996</ele>
        <time>2025-05-10T07:58:40Z</time>
      </trkpt>
      <trkpt lat="36.948514971882105" lon="-4.53262503258884">
        <ele>860.51999999999998</ele>
        <time>2025-05-10T07:58:41Z</time>
      </trkpt>
      <trkpt lat="36.948766009882092" lon="-4.532485976815224">
        <ele>861.96000000000004</ele>
        <time>2025-05-10T07:58:43Z</time>
      </trkpt>
      <trkpt lat="36.948899030685425" lon="-4.532409030944109">
        <ele>862.44000000000005</ele>
        <time>2025-05-10T07:58:44Z</time>
      </trkpt>
      <trkpt lat="36.949843000620604" lon="-4.531323993578553">
        <ele>869.16999999999996</ele>
        <time>2025-05-10T07:58:52Z</time>
      </trkpt>
      <trkpt lat="36.950435014441609" lon="-4.529980961233378">
        <ele>873.5</ele>
        <time>2025-05-10T07:59:00Z</time>
      </trkpt>
      <trkpt lat="36.950487988069654" lon="-4.529853975400329">
        <ele>873.98000000000002</ele>
        <time>2025-05-10T07:59:01Z</time>
      </trkpt>
      <trkpt lat="36.950558982789516" lon="-4.529759008437395">
        <ele>874.46000000000004</ele>
        <time>2025-05-10T07:59:02Z</time>
      </trkpt>
      <trkpt lat="36.950667025521398" lon="-4.529706034809351">
        <ele>875.41999999999996</ele>
        <time>2025-05-10T07:59:03Z</time>
      </trkpt>
      <trkpt lat="36.950819995254278" lon="-4.529629005119205">
        <ele>876.38</ele>
        <time>2025-05-10T07:59:04Z</time>
      </trkpt>
      <trkpt lat="36.950912028551102" lon="-4.529624981805682">
        <ele>877.34000000000003</ele>
        <time>2025-05-10T07:59:05Z</time>
      </trkpt>
      <trkpt lat="36.951042031869292" lon="-4.529620036482811">
        <ele>878.29999999999995</ele>
        <time>2025-05-10T07:59:06Z</time>
      </trkpt>
      <trkpt lat="36.951286029070616" lon="-4.529609978199005">
        <ele>880.22000000000003</ele>
        <time>2025-05-10T07:59:08Z</time>
      </trkpt>
      <trkpt lat="36.951386025175452" lon="-4.52957502566278">
        <ele>881.66999999999996</ele>
        <time>2025-05-10T07:59:09Z</time>
      </trkpt>
      <trkpt lat="36.951473029330373" lon="-4.529481986537576">
        <ele>882.63</ele>
        <time>2025-05-10T07:59:10Z</time>
      </trkpt>
      <trkpt lat="36.951573025435209" lon="-4.529373021796346">
        <ele>883.59000000000003</ele>
        <time>2025-05-10T07:59:11Z</time>
      </trkpt>
      <trkpt lat="36.951680984348059" lon="-4.529257016256452">
        <ele>885.02999999999997</ele>
        <time>2025-05-10T07:59:12Z</time>
      </trkpt>
      <trkpt lat="36.952410964295268" lon="-4.528470039367676">
        <ele>890.79999999999995</ele>
        <time>2025-05-10T07:59:18Z</time>
      </trkpt>
      <trkpt lat="36.952488999813795" lon="-4.528312962502241">
        <ele>891.27999999999997</ele>
        <time>2025-05-10T07:59:19Z</time>
      </trkpt>
      <trkpt lat="36.952550020068884" lon="-4.528135014697909">
        <ele>892.24000000000001</ele>
        <time>2025-05-10T07:59:20Z</time>
      </trkpt>
      <trkpt lat="36.953031979501247" lon="-4.526846967637539">
        <ele>896.09000000000003</ele>
        <time>2025-05-10T07:59:27Z</time>
      </trkpt>
      <trkpt lat="36.953288968652487" lon="-4.526358973234892">
        <ele>899.45000000000005</ele>
        <time>2025-05-10T07:59:30Z</time>
      </trkpt>
      <trkpt lat="36.953361975029111" lon="-4.526197034865618">
        <ele>900.40999999999997</ele>
        <time>2025-05-10T07:59:31Z</time>
      </trkpt>
      <trkpt lat="36.953628016635776" lon="-4.525134963914752">
        <ele>907.62</ele>
        <time>2025-05-10T07:59:37Z</time>
      </trkpt>
      <trkpt lat="36.953678978607059" lon="-4.52497897669673">
        <ele>908.58000000000004</ele>
        <time>2025-05-10T07:59:38Z</time>
      </trkpt>
      <trkpt lat="36.953746033832431" lon="-4.524831036105752">
        <ele>909.05999999999995</ele>
        <time>2025-05-10T07:59:39Z</time>
      </trkpt>
      <trkpt lat="36.953834965825081" lon="-4.524697009474039">
        <ele>910.02999999999997</ele>
        <time>2025-05-10T07:59:40Z</time>
      </trkpt>
      <trkpt lat="36.953933034092188" lon="-4.524563988670707">
        <ele>910.50999999999999</ele>
        <time>2025-05-10T07:59:41Z</time>
      </trkpt>
      <trkpt lat="36.954034036025405" lon="-4.524424010887742">
        <ele>910.99000000000001</ele>
        <time>2025-05-10T07:59:42Z</time>
      </trkpt>
      <trkpt lat="36.954139983281493" lon="-4.524279003962874">
        <ele>911.47000000000003</ele>
        <time>2025-05-10T07:59:43Z</time>
      </trkpt>
      <trkpt lat="36.955049000680447" lon="-4.522864976897836">
        <ele>913.38999999999999</ele>
        <time>2025-05-10T07:59:52Z</time>
      </trkpt>
      <trkpt lat="36.955486033111811" lon="-4.522147988900542">
        <ele>914.35000000000002</ele>
        <time>2025-05-10T07:59:57Z</time>
      </trkpt>
      <trkpt lat="36.955591980367899" lon="-4.522029971703887">
        <ele>914.35000000000002</ele>
        <time>2025-05-10T07:59:58Z</time>
      </trkpt>
      <trkpt lat="36.956550031900406" lon="-4.520779978483915">
        <ele>919.15999999999997</ele>
        <time>2025-05-10T08:00:08Z</time>
      </trkpt>
      <trkpt lat="36.957060992717743" lon="-4.51990800909698">
        <ele>924.45000000000005</ele>
        <time>2025-05-10T08:00:14Z</time>
      </trkpt>
      <trkpt lat="36.957163000479341" lon="-4.519781023263931">
        <ele>924.92999999999995</ele>
        <time>2025-05-10T08:00:15Z</time>
      </trkpt>
      <trkpt lat="36.957270037382841" lon="-4.519665017724037">
        <ele>925.88999999999999</ele>
        <time>2025-05-10T08:00:16Z</time>
      </trkpt>
      <trkpt lat="36.957394005730748" lon="-4.519566027447581">
        <ele>926.85000000000002</ele>
        <time>2025-05-10T08:00:17Z</time>
      </trkpt>
      <trkpt lat="36.957523003220558" lon="-4.519491009414196">
        <ele>927.80999999999995</ele>
        <time>2025-05-10T08:00:18Z</time>
      </trkpt>
      <trkpt lat="36.957660969346762" lon="-4.519447004422545">
        <ele>928.76999999999998</ele>
        <time>2025-05-10T08:00:19Z</time>
      </trkpt>
      <trkpt lat="36.957799019291997" lon="-4.519428983330727">
        <ele>929.73000000000002</ele>
        <time>2025-05-10T08:00:20Z</time>
      </trkpt>
      <trkpt lat="36.957933967933059" lon="-4.519410962238908">
        <ele>930.69000000000005</ele>
        <time>2025-05-10T08:00:21Z</time>
      </trkpt>
      <trkpt lat="36.958060031756759" lon="-4.519394030794501">
        <ele>931.16999999999996</ele>
        <time>2025-05-10T08:00:22Z</time>
      </trkpt>
      <trkpt lat="36.958176959306002" lon="-4.519378021359444">
        <ele>932.13999999999999</ele>
        <time>2025-05-10T08:00:23Z</time>
      </trkpt>
      <trkpt lat="36.958283996209502" lon="-4.519337033852935">
        <ele>932.62</ele>
        <time>2025-05-10T08:00:24Z</time>
      </trkpt>
      <trkpt lat="36.958383992314339" lon="-4.519270984455943">
        <ele>932.62</ele>
        <time>2025-05-10T08:00:25Z</time>
      </trkpt>
      <trkpt lat="36.958463033661246" lon="-4.519157996401191">
        <ele>933.10000000000002</ele>
        <time>2025-05-10T08:00:26Z</time>
      </trkpt>
      <trkpt lat="36.95853503420949" lon="-4.519022963941097">
        <ele>933.58000000000004</ele>
        <time>2025-05-10T08:00:27Z</time>
      </trkpt>
      <trkpt lat="36.958570992574096" lon="-4.518865970894694">
        <ele>934.05999999999995</ele>
        <time>2025-05-10T08:00:28Z</time>
      </trkpt>
      <trkpt lat="36.958607034757733" lon="-4.518708977848291">
        <ele>934.53999999999996</ele>
        <time>2025-05-10T08:00:29Z</time>
      </trkpt>
      <trkpt lat="36.958641987293959" lon="-4.518558019772172">
        <ele>935.5</ele>
        <time>2025-05-10T08:00:30Z</time>
      </trkpt>
      <trkpt lat="36.958695966750383" lon="-4.518432039767504">
        <ele>936.46000000000004</ele>
        <time>2025-05-10T08:00:31Z</time>
      </trkpt>
      <trkpt lat="36.958760004490614" lon="-4.51831603422761">
        <ele>936.94000000000005</ele>
        <time>2025-05-10T08:00:32Z</time>
      </trkpt>
      <trkpt lat="36.958852959796786" lon="-4.518231963738799">
        <ele>937.89999999999998</ele>
        <time>2025-05-10T08:00:33Z</time>
      </trkpt>
      <trkpt lat="36.958957985043526" lon="-4.518164992332459">
        <ele>939.35000000000002</ele>
        <time>2025-05-10T08:00:34Z</time>
      </trkpt>
      <trkpt lat="36.959071978926659" lon="-4.51810497790575">
        <ele>940.30999999999995</ele>
        <time>2025-05-10T08:00:35Z</time>
      </trkpt>
      <trkpt lat="36.959185972809792" lon="-4.51805803924799">
        <ele>941.26999999999998</ele>
        <time>2025-05-10T08:00:36Z</time>
      </trkpt>
      <trkpt lat="36.959296027198434" lon="-4.518012022599578">
        <ele>942.23000000000002</ele>
        <time>2025-05-10T08:00:37Z</time>
      </trkpt>
      <trkpt lat="36.959399962797761" lon="-4.517954019829631">
        <ele>943.19000000000005</ele>
        <time>2025-05-10T08:00:38Z</time>
      </trkpt>
      <trkpt lat="36.959480009973049" lon="-4.517838014289737">
        <ele>944.14999999999998</ele>
        <time>2025-05-10T08:00:39Z</time>
      </trkpt>
      <trkpt lat="36.959536001086235" lon="-4.51769401319325">
        <ele>945.11000000000001</ele>
        <time>2025-05-10T08:00:40Z</time>
      </trkpt>
      <trkpt lat="36.95958998054266" lon="-4.517557974904776">
        <ele>946.55999999999995</ele>
        <time>2025-05-10T08:00:41Z</time>
      </trkpt>
      <trkpt lat="36.959639014676213" lon="-4.517431994900107">
        <ele>947.03999999999996</ele>
        <time>2025-05-10T08:00:42Z</time>
      </trkpt>
      <trkpt lat="36.959716966375709" lon="-4.517325963824987">
        <ele>947.03999999999996</ele>
        <time>2025-05-10T08:00:43Z</time>
      </trkpt>
      <trkpt lat="36.959824003279209" lon="-4.517229991033673">
        <ele>947.03999999999996</ele>
        <time>2025-05-10T08:00:44Z</time>
      </trkpt>
      <trkpt lat="36.959941014647484" lon="-4.517125971615315">
        <ele>946.55999999999995</ele>
        <time>2025-05-10T08:00:45Z</time>
      </trkpt>
      <trkpt lat="36.960195992141962" lon="-4.516898989677429">
        <ele>945.59000000000003</ele>
        <time>2025-05-10T08:00:47Z</time>
      </trkpt>
      <trkpt lat="36.960915997624397" lon="-4.515846977010369">
        <ele>942.71000000000004</ele>
        <time>2025-05-10T08:00:54Z</time>
      </trkpt>
      <trkpt lat="36.96102898567915" lon="-4.515758967027068">
        <ele>942.71000000000004</ele>
        <time>2025-05-10T08:00:55Z</time>
      </trkpt>
      <trkpt lat="36.961152032017708" lon="-4.515672968700528">
        <ele>943.19000000000005</ele>
        <time>2025-05-10T08:00:56Z</time>
      </trkpt>
      <trkpt lat="36.961661987006664" lon="-4.51530902646482">
        <ele>943.19000000000005</ele>
        <time>2025-05-10T08:01:00Z</time>
      </trkpt>
      <trkpt lat="36.961771035566926" lon="-4.515181034803391">
        <ele>943.19000000000005</ele>
        <time>2025-05-10T08:01:01Z</time>
      </trkpt>
      <trkpt lat="36.961880000308156" lon="-4.515052037313581">
        <ele>943.66999999999996</ele>
        <time>2025-05-10T08:01:02Z</time>
      </trkpt>
      <trkpt lat="36.962890019640326" lon="-4.513361994177103">
        <ele>947.03999999999996</ele>
        <time>2025-05-10T08:01:13Z</time>
      </trkpt>
      <trkpt lat="36.963962987065315" lon="-4.511438012123108">
        <ele>950.39999999999998</ele>
        <time>2025-05-10T08:01:25Z</time>
      </trkpt>
      <trkpt lat="36.965190013870597" lon="-4.509583013132215">
        <ele>947.51999999999998</ele>
        <time>2025-05-10T08:01:36Z</time>
      </trkpt>
      <trkpt lat="36.966155022382736" lon="-4.507792973890901">
        <ele>952.79999999999995</ele>
        <time>2025-05-10T08:01:46Z</time>
      </trkpt>
      <trkpt lat="36.96665802039206" lon="-4.506271993741393">
        <ele>956.16999999999996</ele>
        <time>2025-05-10T08:01:54Z</time>
      </trkpt>
      <trkpt lat="36.967503000050783" lon="-4.504413977265358">
        <ele>956.16999999999996</ele>
        <time>2025-05-10T08:02:04Z</time>
      </trkpt>
      <trkpt lat="36.967897033318877" lon="-4.503821041435003">
        <ele>958.57000000000005</ele>
        <time>2025-05-10T08:02:08Z</time>
      </trkpt>
      <trkpt lat="36.968907974660397" lon="-4.502690993249416">
        <ele>951.36000000000001</ele>
        <time>2025-05-10T08:02:16Z</time>
      </trkpt>
      <trkpt lat="36.969004031270742" lon="-4.502511033788323">
        <ele>949.44000000000005</ele>
        <time>2025-05-10T08:02:17Z</time>
      </trkpt>
      <trkpt lat="36.96985999122262" lon="-4.501189040020108">
        <ele>935.01999999999998</ele>
        <time>2025-05-10T08:02:25Z</time>
      </trkpt>
      <trkpt lat="36.970303980633616" lon="-4.500697022303939">
        <ele>927.33000000000004</ele>
        <time>2025-05-10T08:02:29Z</time>
      </trkpt>
      <trkpt lat="36.970381010323763" lon="-4.50061202980578">
        <ele>925.88999999999999</ele>
        <time>2025-05-10T08:02:30Z</time>
      </trkpt>
      <trkpt lat="36.970438007265329" lon="-4.50054899789393">
        <ele>923.96000000000004</ele>
        <time>2025-05-10T08:02:31Z</time>
      </trkpt>
      <trkpt lat="36.970435995608568" lon="-4.500460987910628">
        <ele>922.51999999999998</ele>
        <time>2025-05-10T08:02:32Z</time>
      </trkpt>
      <trkpt lat="36.970417974516749" lon="-4.500388987362385">
        <ele>921.55999999999995</ele>
        <time>2025-05-10T08:02:33Z</time>
      </trkpt>
      <trkpt lat="36.970373969525099" lon="-4.500341964885593">
        <ele>920.12</ele>
        <time>2025-05-10T08:02:34Z</time>
      </trkpt>
      <trkpt lat="36.970302974805236" lon="-4.500323021784425">
        <ele>918.67999999999995</ele>
        <time>2025-05-10T08:02:35Z</time>
      </trkpt>
      <trkpt lat="36.970216976478696" lon="-4.500346994027495">
        <ele>917.72000000000003</ele>
        <time>2025-05-10T08:02:36Z</time>
      </trkpt>
      <trkpt lat="36.970123015344143" lon="-4.500371972098947">
        <ele>916.75</ele>
        <time>2025-05-10T08:02:37Z</time>
      </trkpt>
      <trkpt lat="36.970025030896068" lon="-4.50039803981781">
        <ele>915.78999999999996</ele>
        <time>2025-05-10T08:02:38Z</time>
      </trkpt>
      <trkpt lat="36.969936015084386" lon="-4.500422012060881">
        <ele>914.83000000000004</ele>
        <time>2025-05-10T08:02:39Z</time>
      </trkpt>
      <trkpt lat="36.969791008159518" lon="-4.500460987910628">
        <ele>912.90999999999997</ele>
        <time>2025-05-10T08:02:41Z</time>
      </trkpt>
      <trkpt lat="36.969761000946164" lon="-4.500455036759377">
        <ele>912.42999999999995</ele>
        <time>2025-05-10T08:02:42Z</time>
      </trkpt>
      <trkpt lat="36.96973099373281" lon="-4.500395022332668">
        <ele>911.47000000000003</ele>
        <time>2025-05-10T08:02:43Z</time>
      </trkpt>
      <trkpt lat="36.969702998176217" lon="-4.500339031219482">
        <ele>910.99000000000001</ele>
        <time>2025-05-10T08:02:44Z</time>
      </trkpt>
      <trkpt lat="36.969734011217952" lon="-4.500268958508968">
        <ele>909.53999999999996</ele>
        <time>2025-05-10T08:02:45Z</time>
      </trkpt>
      <trkpt lat="36.969788996502757" lon="-4.500145995989442">
        <ele>909.05999999999995</ele>
        <time>2025-05-10T08:02:46Z</time>
      </trkpt>
      <trkpt lat="36.969841970130801" lon="-4.500049017369747">
        <ele>908.10000000000002</ele>
        <time>2025-05-10T08:02:47Z</time>
      </trkpt>
      <trkpt lat="36.970471031963825" lon="-4.498931961134076">
        <ele>898.49000000000001</ele>
        <time>2025-05-10T08:02:54Z</time>
      </trkpt>
      <trkpt lat="36.971311988309026" lon="-4.497162960469723">
        <ele>885.02999999999997</ele>
        <time>2025-05-10T08:03:04Z</time>
      </trkpt>
      <trkpt lat="36.971404021605849" lon="-4.49704997241497">
        <ele>883.59000000000003</ele>
        <time>2025-05-10T08:03:05Z</time>
      </trkpt>
      <trkpt lat="36.971504017710686" lon="-4.496926004067063">
        <ele>882.63</ele>
        <time>2025-05-10T08:03:06Z</time>
      </trkpt>
      <trkpt lat="36.971605019643903" lon="-4.496801029890776">
        <ele>881.19000000000005</ele>
        <time>2025-05-10T08:03:07Z</time>
      </trkpt>
      <trkpt lat="36.971698980778456" lon="-4.496659962460399">
        <ele>880.22000000000003</ele>
        <time>2025-05-10T08:03:08Z</time>
      </trkpt>
      <trkpt lat="36.97177198715508" lon="-4.496486959978938">
        <ele>879.25999999999999</ele>
        <time>2025-05-10T08:03:09Z</time>
      </trkpt>
      <trkpt lat="36.971847005188465" lon="-4.496308006346226">
        <ele>878.29999999999995</ele>
        <time>2025-05-10T08:03:10Z</time>
      </trkpt>
      <trkpt lat="36.972156967967749" lon="-4.495571991428733">
        <ele>874.46000000000004</ele>
        <time>2025-05-10T08:03:14Z</time>
      </trkpt>
      <trkpt lat="36.972249001264572" lon="-4.495410975068808">
        <ele>873.98000000000002</ele>
        <time>2025-05-10T08:03:15Z</time>
      </trkpt>
      <trkpt lat="36.972357966005802" lon="-4.49526303447783">
        <ele>873.00999999999999</ele>
        <time>2025-05-10T08:03:16Z</time>
      </trkpt>
      <trkpt lat="36.973261032253504" lon="-4.493896029889584">
        <ele>864.84000000000003</ele>
        <time>2025-05-10T08:03:25Z</time>
      </trkpt>
      <trkpt lat="36.973331021144986" lon="-4.493750017136335">
        <ele>863.88</ele>
        <time>2025-05-10T08:03:26Z</time>
      </trkpt>
      <trkpt lat="36.973381983116269" lon="-4.493602998554707">
        <ele>862.44000000000005</ele>
        <time>2025-05-10T08:03:27Z</time>
      </trkpt>
      <trkpt lat="36.973432023078203" lon="-4.49331097304821">
        <ele>860.03999999999996</ele>
        <time>2025-05-10T08:03:29Z</time>
      </trkpt>
      <trkpt lat="36.973503017798066" lon="-4.492894979193807">
        <ele>857.63</ele>
        <time>2025-05-10T08:03:32Z</time>
      </trkpt>
      <trkpt lat="36.973579041659832" lon="-4.492506980895996">
        <ele>856.66999999999996</ele>
        <time>2025-05-10T08:03:35Z</time>
      </trkpt>
      <trkpt lat="36.973632015287876" lon="-4.49242701753974">
        <ele>856.66999999999996</ele>
        <time>2025-05-10T08:03:36Z</time>
      </trkpt>
      <trkpt lat="36.973688006401062" lon="-4.492381000891328">
        <ele>856.19000000000005</ele>
        <time>2025-05-10T08:03:37Z</time>
      </trkpt>
      <trkpt lat="36.97374701499939" lon="-4.492373038083315">
        <ele>856.19000000000005</ele>
        <time>2025-05-10T08:03:38Z</time>
      </trkpt>
      <trkpt lat="36.973778028041124" lon="-4.492417965084314">
        <ele>855.71000000000004</ele>
        <time>2025-05-10T08:03:39Z</time>
      </trkpt>
      <trkpt lat="36.973823038861156" lon="-4.492486026138067">
        <ele>855.71000000000004</ele>
        <time>2025-05-10T08:03:40Z</time>
      </trkpt>
      <trkpt lat="36.973818009719253" lon="-4.49257998727262">
        <ele>855.71000000000004</ele>
        <time>2025-05-10T08:03:41Z</time>
      </trkpt>
      <trkpt lat="36.973811974748969" lon="-4.492704961448908">
        <ele>855.23000000000002</ele>
        <time>2025-05-10T08:03:42Z</time>
      </trkpt>
      <trkpt lat="36.973805017769337" lon="-4.492848040536046">
        <ele>855.23000000000002</ele>
        <time>2025-05-10T08:03:43Z</time>
      </trkpt>
      <trkpt lat="36.973722958937287" lon="-4.493895024061203">
        <ele>851.87</ele>
        <time>2025-05-10T08:03:49Z</time>
      </trkpt>
      <trkpt lat="36.973685994744301" lon="-4.494080012664199">
        <ele>851.38</ele>
        <time>2025-05-10T08:03:50Z</time>
      </trkpt>
      <trkpt lat="36.973349964246154" lon="-4.494909988716245">
        <ele>847.05999999999995</ele>
        <time>2025-05-10T08:03:56Z</time>
      </trkpt>
      <trkpt lat="36.973349964246154" lon="-4.49498500674963">
        <ele>846.10000000000002</ele>
        <time>2025-05-10T08:03:57Z</time>
      </trkpt>
      <trkpt lat="36.973349964246154" lon="-4.495038986206055">
        <ele>845.62</ele>
        <time>2025-05-10T08:03:58Z</time>
      </trkpt>
      <trkpt lat="36.973373014479876" lon="-4.495038986206055">
        <ele>844.65999999999997</ele>
        <time>2025-05-10T08:03:59Z</time>
      </trkpt>
      <trkpt lat="36.973414001986384" lon="-4.495038986206055">
        <ele>844.17999999999995</ele>
        <time>2025-05-10T08:04:00Z</time>
      </trkpt>
      <trkpt lat="36.973478961735964" lon="-4.495038986206055">
        <ele>843.21000000000004</ele>
        <time>2025-05-10T08:04:01Z</time>
      </trkpt>
      <trkpt lat="36.973535036668181" lon="-4.494991041719914">
        <ele>842.73000000000002</ele>
        <time>2025-05-10T08:04:02Z</time>
      </trkpt>
      <trkpt lat="36.973603013902903" lon="-4.494933038949966">
        <ele>841.76999999999998</ele>
        <time>2025-05-10T08:04:03Z</time>
      </trkpt>
      <trkpt lat="36.973906019702554" lon="-4.494673032313585">
        <ele>838.88999999999999</ele>
        <time>2025-05-10T08:04:07Z</time>
      </trkpt>
      <trkpt lat="36.973967039957643" lon="-4.494652999565005">
        <ele>838.88999999999999</ele>
        <time>2025-05-10T08:04:08Z</time>
      </trkpt>
      <trkpt lat="36.974015990272164" lon="-4.494674960151315">
        <ele>838.40999999999997</ele>
        <time>2025-05-10T08:04:09Z</time>
      </trkpt>
      <trkpt lat="36.974053960293531" lon="-4.494736986234784">
        <ele>837.92999999999995</ele>
        <time>2025-05-10T08:04:10Z</time>
      </trkpt>
      <trkpt lat="36.974038034677505" lon="-4.494809992611408">
        <ele>837.45000000000005</ele>
        <time>2025-05-10T08:04:11Z</time>
      </trkpt>
      <trkpt lat="36.974015990272164" lon="-4.494907977059484">
        <ele>836.48000000000002</ele>
        <time>2025-05-10T08:04:12Z</time>
      </trkpt>
      <trkpt lat="36.973973996937275" lon="-4.495016019791365">
        <ele>836</ele>
        <time>2025-05-10T08:04:13Z</time>
      </trkpt>
      <trkpt lat="36.973924040794373" lon="-4.495143005624414">
        <ele>835.03999999999996</ele>
        <time>2025-05-10T08:04:14Z</time>
      </trkpt>
      <trkpt lat="36.973869977518916" lon="-4.495279965922236">
        <ele>834.08000000000004</ele>
        <time>2025-05-10T08:04:15Z</time>
      </trkpt>
      <trkpt lat="36.973811974748969" lon="-4.495427990332246">
        <ele>833.12</ele>
        <time>2025-05-10T08:04:16Z</time>
      </trkpt>
      <trkpt lat="36.973780039697886" lon="-4.495575008913875">
        <ele>832.63999999999999</ele>
        <time>2025-05-10T08:04:17Z</time>
      </trkpt>
      <trkpt lat="36.973783979192376" lon="-4.49578195810318">
        <ele>831.67999999999995</ele>
        <time>2025-05-10T08:04:18Z</time>
      </trkpt>
      <trkpt lat="36.973788002505898" lon="-4.495980022475123">
        <ele>831.20000000000005</ele>
        <time>2025-05-10T08:04:19Z</time>
      </trkpt>
      <trkpt lat="36.973792025819421" lon="-4.496184037998319">
        <ele>830.24000000000001</ele>
        <time>2025-05-10T08:04:20Z</time>
      </trkpt>
      <trkpt lat="36.973799988627434" lon="-4.496584022417665">
        <ele>828.30999999999995</ele>
        <time>2025-05-10T08:04:22Z</time>
      </trkpt>
      <trkpt lat="36.973858997225761" lon="-4.496763981878758">
        <ele>827.35000000000002</ele>
        <time>2025-05-10T08:04:23Z</time>
      </trkpt>
      <trkpt lat="36.973935021087527" lon="-4.496945030987263">
        <ele>826.38999999999999</ele>
        <time>2025-05-10T08:04:24Z</time>
      </trkpt>
      <trkpt lat="36.974869016557932" lon="-4.498822996392846">
        <ele>817.74000000000001</ele>
        <time>2025-05-10T08:04:34Z</time>
      </trkpt>
      <trkpt lat="36.975544011220336" lon="-4.500112971290946">
        <ele>809.57000000000005</ele>
        <time>2025-05-10T08:04:41Z</time>
      </trkpt>
      <trkpt lat="36.976210037246346" lon="-4.501755991950631">
        <ele>795.14999999999998</ele>
        <time>2025-05-10T08:04:49Z</time>
      </trkpt>
      <trkpt lat="36.977204969152808" lon="-4.503630017861724">
        <ele>776.88</ele>
        <time>2025-05-10T08:04:59Z</time>
      </trkpt>
      <trkpt lat="36.978385979309678" lon="-4.505501026287675">
        <ele>762.46000000000004</ele>
        <time>2025-05-10T08:05:10Z</time>
      </trkpt>
      <trkpt lat="36.979452995583415" lon="-4.507157960906625">
        <ele>754.28999999999996</ele>
        <time>2025-05-10T08:05:20Z</time>
      </trkpt>
      <trkpt lat="36.980361007153988" lon="-4.508423041552305">
        <ele>745.15999999999997</ele>
        <time>2025-05-10T08:05:28Z</time>
      </trkpt>
      <trkpt lat="36.98105301707983" lon="-4.509308002889156">
        <ele>736.02999999999997</ele>
        <time>2025-05-10T08:05:34Z</time>
      </trkpt>
      <trkpt lat="36.981098027899861" lon="-4.509459966793656">
        <ele>734.10000000000002</ele>
        <time>2025-05-10T08:05:35Z</time>
      </trkpt>
      <trkpt lat="36.981142032891512" lon="-4.509606985375285">
        <ele>732.65999999999997</ele>
        <time>2025-05-10T08:05:36Z</time>
      </trkpt>
      <trkpt lat="36.981157036498189" lon="-4.509762972593308">
        <ele>731.22000000000003</ele>
        <time>2025-05-10T08:05:37Z</time>
      </trkpt>
      <trkpt lat="36.981148989871144" lon="-4.509935975074768">
        <ele>729.77999999999997</ele>
        <time>2025-05-10T08:05:38Z</time>
      </trkpt>
      <trkpt lat="36.981158964335918" lon="-4.510301006957889">
        <ele>726.88999999999999</ele>
        <time>2025-05-10T08:05:40Z</time>
      </trkpt>
      <trkpt lat="36.981183020398021" lon="-4.510489013046026">
        <ele>725.45000000000005</ele>
        <time>2025-05-10T08:05:41Z</time>
      </trkpt>
      <trkpt lat="36.981258960440755" lon="-4.510666038841009">
        <ele>723.52999999999997</ele>
        <time>2025-05-10T08:05:42Z</time>
      </trkpt>
      <trkpt lat="36.981338001787663" lon="-4.510849015787244">
        <ele>722.09000000000003</ele>
        <time>2025-05-10T08:05:43Z</time>
      </trkpt>
      <trkpt lat="36.981417965143919" lon="-4.511037021875382">
        <ele>720.64999999999998</ele>
        <time>2025-05-10T08:05:44Z</time>
      </trkpt>
      <trkpt lat="36.982327988371253" lon="-4.513330981135368">
        <ele>699.5</ele>
        <time>2025-05-10T08:05:55Z</time>
      </trkpt>
      <trkpt lat="36.982882032170892" lon="-4.514814997091889">
        <ele>683.14999999999998</ele>
        <time>2025-05-10T08:06:02Z</time>
      </trkpt>
      <trkpt lat="36.983320992439985" lon="-4.516646023839712">
        <ele>669.22000000000003</ele>
        <time>2025-05-10T08:06:11Z</time>
      </trkpt>
      <trkpt lat="36.983320992439985" lon="-4.516849033534527">
        <ele>667.76999999999998</ele>
        <time>2025-05-10T08:06:12Z</time>
      </trkpt>
      <trkpt lat="36.983311017975211" lon="-4.517061011865735">
        <ele>666.80999999999995</ele>
        <time>2025-05-10T08:06:13Z</time>
      </trkpt>
      <trkpt lat="36.98337497189641" lon="-4.518816014751792">
        <ele>657.20000000000005</ele>
        <time>2025-05-10T08:06:21Z</time>
      </trkpt>
      <trkpt lat="36.983662974089384" lon="-4.520828006789088">
        <ele>646.62</ele>
        <time>2025-05-10T08:06:30Z</time>
      </trkpt>
      <trkpt lat="36.984387002885342" lon="-4.52336898073554">
        <ele>637.00999999999999</ele>
        <time>2025-05-10T08:06:42Z</time>
      </trkpt>
      <trkpt lat="36.984492028132081" lon="-4.523552041500807">
        <ele>636.52999999999997</ele>
        <time>2025-05-10T08:06:43Z</time>
      </trkpt>
      <trkpt lat="36.984596969559789" lon="-4.523734012618661">
        <ele>636.04999999999995</ele>
        <time>2025-05-10T08:06:44Z</time>
      </trkpt>
      <trkpt lat="36.9856290332973" lon="-4.525560010224581">
        <ele>635.09000000000003</ele>
        <time>2025-05-10T08:06:55Z</time>
      </trkpt>
      <trkpt lat="36.986602004617453" lon="-4.527782974764705">
        <ele>623.54999999999995</ele>
        <time>2025-05-10T08:07:07Z</time>
      </trkpt>
      <trkpt lat="36.986829992383718" lon="-4.528241967782378">
        <ele>620.19000000000005</ele>
        <time>2025-05-10T08:07:10Z</time>
      </trkpt>
      <trkpt lat="36.986916996538639" lon="-4.528363002464175">
        <ele>619.23000000000002</ele>
        <time>2025-05-10T08:07:11Z</time>
      </trkpt>
      <trkpt lat="36.987017998471856" lon="-4.528455035760999">
        <ele>618.25999999999999</ele>
        <time>2025-05-10T08:07:12Z</time>
      </trkpt>
      <trkpt lat="36.987191000953317" lon="-4.528599036857486">
        <ele>616.34000000000003</ele>
        <time>2025-05-10T08:07:14Z</time>
      </trkpt>
      <trkpt lat="36.98724003508687" lon="-4.528714036568999">
        <ele>615.38</ele>
        <time>2025-05-10T08:07:15Z</time>
      </trkpt>
      <trkpt lat="36.987255038693547" lon="-4.528807997703552">
        <ele>614.89999999999998</ele>
        <time>2025-05-10T08:07:16Z</time>
      </trkpt>
      <trkpt lat="36.987246992066503" lon="-4.528916040435433">
        <ele>614.41999999999996</ele>
        <time>2025-05-10T08:07:17Z</time>
      </trkpt>
      <trkpt lat="36.987194018438458" lon="-4.529020981863141">
        <ele>613.94000000000005</ele>
        <time>2025-05-10T08:07:18Z</time>
      </trkpt>
      <trkpt lat="36.987124029546976" lon="-4.529109997674823">
        <ele>613.46000000000004</ele>
        <time>2025-05-10T08:07:19Z</time>
      </trkpt>
      <trkpt lat="36.987029984593391" lon="-4.529191972687841">
        <ele>612.98000000000002</ele>
        <time>2025-05-10T08:07:20Z</time>
      </trkpt>
      <trkpt lat="36.986932000145316" lon="-4.529277971014381">
        <ele>612.5</ele>
        <time>2025-05-10T08:07:21Z</time>
      </trkpt>
      <trkpt lat="36.986834015697241" lon="-4.52936296351254">
        <ele>612.5</ele>
        <time>2025-05-10T08:07:22Z</time>
      </trkpt>
      <trkpt lat="36.986646009609103" lon="-4.5295549929142">
        <ele>611.05999999999995</ele>
        <time>2025-05-10T08:07:24Z</time>
      </trkpt>
      <trkpt lat="36.986580966040492" lon="-4.529675021767616">
        <ele>610.57000000000005</ele>
        <time>2025-05-10T08:07:25Z</time>
      </trkpt>
      <trkpt lat="36.986525980755687" lon="-4.5298139937222">
        <ele>609.61000000000001</ele>
        <time>2025-05-10T08:07:26Z</time>
      </trkpt>
      <trkpt lat="36.986528998240829" lon="-4.529970986768603">
        <ele>609.13</ele>
        <time>2025-05-10T08:07:27Z</time>
      </trkpt>
      <trkpt lat="36.986533021554351" lon="-4.530142983421683">
        <ele>608.64999999999998</ele>
        <time>2025-05-10T08:07:28Z</time>
      </trkpt>
      <trkpt lat="36.986536039039493" lon="-4.530319003388286">
        <ele>608.16999999999996</ele>
        <time>2025-05-10T08:07:29Z</time>
      </trkpt>
      <trkpt lat="36.986539978533983" lon="-4.530499968677759">
        <ele>607.69000000000005</ele>
        <time>2025-05-10T08:07:30Z</time>
      </trkpt>
      <trkpt lat="36.986544001847506" lon="-4.530681017786264">
        <ele>607.21000000000004</ele>
        <time>2025-05-10T08:07:31Z</time>
      </trkpt>
      <trkpt lat="36.986544001847506" lon="-4.530870029702783">
        <ele>606.25</ele>
        <time>2025-05-10T08:07:32Z</time>
      </trkpt>
      <trkpt lat="36.986512988805771" lon="-4.531054012477398">
        <ele>605.76999999999998</ele>
        <time>2025-05-10T08:07:33Z</time>
      </trkpt>
      <trkpt lat="36.986480969935656" lon="-4.531237995252013">
        <ele>604.80999999999995</ele>
        <time>2025-05-10T08:07:34Z</time>
      </trkpt>
      <trkpt lat="36.986386002972722" lon="-4.531795978546143">
        <ele>601.44000000000005</ele>
        <time>2025-05-10T08:07:37Z</time>
      </trkpt>
      <trkpt lat="36.986394971609116" lon="-4.531989013776183">
        <ele>600.48000000000002</ele>
        <time>2025-05-10T08:07:38Z</time>
      </trkpt>
      <trkpt lat="36.98642497882247" lon="-4.532172996550798">
        <ele>599.51999999999998</ele>
        <time>2025-05-10T08:07:39Z</time>
      </trkpt>
      <trkpt lat="36.986475018784404" lon="-4.532354967668653">
        <ele>598.55999999999995</ele>
        <time>2025-05-10T08:07:40Z</time>
      </trkpt>
      <trkpt lat="36.986549030989408" lon="-4.532531993463635">
        <ele>597.60000000000002</ele>
        <time>2025-05-10T08:07:41Z</time>
      </trkpt>
      <trkpt lat="36.986622037366033" lon="-4.532708013430238">
        <ele>596.63999999999999</ele>
        <time>2025-05-10T08:07:42Z</time>
      </trkpt>
      <trkpt lat="36.986694959923625" lon="-4.53288596123457">
        <ele>595.19000000000005</ele>
        <time>2025-05-10T08:07:43Z</time>
      </trkpt>
      <trkpt lat="36.986736031249166" lon="-4.533075978979468">
        <ele>593.75</ele>
        <time>2025-05-10T08:07:44Z</time>
      </trkpt>
      <trkpt lat="36.986776012927294" lon="-4.533267002552748">
        <ele>592.78999999999996</ele>
        <time>2025-05-10T08:07:45Z</time>
      </trkpt>
      <trkpt lat="36.986784981563687" lon="-4.533458026126027">
        <ele>591.35000000000002</ele>
        <time>2025-05-10T08:07:46Z</time>
      </trkpt>
      <trkpt lat="36.98678900487721" lon="-4.533651983365417">
        <ele>590.38999999999999</ele>
        <time>2025-05-10T08:07:47Z</time>
      </trkpt>
      <trkpt lat="36.986869974061847" lon="-4.535991037264466">
        <ele>586.53999999999996</ele>
        <time>2025-05-10T08:07:59Z</time>
      </trkpt>
      <trkpt lat="36.986996959894896" lon="-4.53866695985198">
        <ele>579.33000000000004</ele>
        <time>2025-05-10T08:08:11Z</time>
      </trkpt>
      <trkpt lat="36.98715697042644" lon="-4.540611980482936">
        <ele>572.60000000000002</ele>
        <time>2025-05-10T08:08:20Z</time>
      </trkpt>
      <trkpt lat="36.987223019823432" lon="-4.5407709851861">
        <ele>572.12</ele>
        <time>2025-05-10T08:08:21Z</time>
      </trkpt>
      <trkpt lat="36.987314969301224" lon="-4.540909035131335">
        <ele>571.63999999999999</ele>
        <time>2025-05-10T08:08:22Z</time>
      </trkpt>
      <trkpt lat="36.987430974841118" lon="-4.541039038449526">
        <ele>571.15999999999997</ele>
        <time>2025-05-10T08:08:23Z</time>
      </trkpt>
      <trkpt lat="36.987558966502547" lon="-4.541148003190756">
        <ele>571.15999999999997</ele>
        <time>2025-05-10T08:08:24Z</time>
      </trkpt>
      <trkpt lat="36.987702967599034" lon="-4.541259985417128">
        <ele>570.67999999999995</ele>
        <time>2025-05-10T08:08:25Z</time>
      </trkpt>
      <trkpt lat="36.989115988835692" lon="-4.541941015049815">
        <ele>569.24000000000001</ele>
        <time>2025-05-10T08:08:33Z</time>
      </trkpt>
      <trkpt lat="36.990433037281036" lon="-4.542222982272506">
        <ele>566.83000000000004</ele>
        <time>2025-05-10T08:08:41Z</time>
      </trkpt>
      <trkpt lat="36.990563040599227" lon="-4.542262963950634">
        <ele>566.83000000000004</ele>
        <time>2025-05-10T08:08:42Z</time>
      </trkpt>
      <trkpt lat="36.990689020603895" lon="-4.542327001690865">
        <ele>566.83000000000004</ele>
        <time>2025-05-10T08:08:43Z</time>
      </trkpt>
      <trkpt lat="36.990817012265325" lon="-4.542438983917236">
        <ele>566.83000000000004</ele>
        <time>2025-05-10T08:08:44Z</time>
      </trkpt>
      <trkpt lat="36.991656962782145" lon="-4.543744968250394">
        <ele>567.79999999999995</ele>
        <time>2025-05-10T08:08:52Z</time>
      </trkpt>
      <trkpt lat="36.991844968870282" lon="-4.544033976271749">
        <ele>567.79999999999995</ele>
        <time>2025-05-10T08:08:54Z</time>
      </trkpt>
      <trkpt lat="36.991902971640229" lon="-4.544206978753209">
        <ele>568.27999999999997</ele>
        <time>2025-05-10T08:08:55Z</time>
      </trkpt>
      <trkpt lat="36.991954017430544" lon="-4.544413005933166">
        <ele>568.27999999999997</ele>
        <time>2025-05-10T08:08:56Z</time>
      </trkpt>
      <trkpt lat="36.991971032693982" lon="-4.544580979272723">
        <ele>568.27999999999997</ele>
        <time>2025-05-10T08:08:57Z</time>
      </trkpt>
      <trkpt lat="36.99199098162353" lon="-4.544777031987906">
        <ele>568.27999999999997</ele>
        <time>2025-05-10T08:08:58Z</time>
      </trkpt>
      <trkpt lat="36.99203004129231" lon="-4.545168969780207">
        <ele>567.79999999999995</ele>
        <time>2025-05-10T08:09:00Z</time>
      </trkpt>
      <trkpt lat="36.992077985778451" lon="-4.545351024717093">
        <ele>567.32000000000005</ele>
        <time>2025-05-10T08:09:01Z</time>
      </trkpt>
      <trkpt lat="36.992159960791469" lon="-4.545524027198553">
        <ele>567.32000000000005</ele>
        <time>2025-05-10T08:09:02Z</time>
      </trkpt>
      <trkpt lat="36.992244031280279" lon="-4.545695018023253">
        <ele>567.32000000000005</ele>
        <time>2025-05-10T08:09:03Z</time>
      </trkpt>
      <trkpt lat="36.992349978536367" lon="-4.545858968049288">
        <ele>567.32000000000005</ele>
        <time>2025-05-10T08:09:04Z</time>
      </trkpt>
      <trkpt lat="36.993290008977056" lon="-4.547674991190434">
        <ele>565.38999999999999</ele>
        <time>2025-05-10T08:09:14Z</time>
      </trkpt>
      <trkpt lat="36.993618998676538" lon="-4.548446964472532">
        <ele>565.38999999999999</ele>
        <time>2025-05-10T08:09:18Z</time>
      </trkpt>
      <trkpt lat="36.993700973689556" lon="-4.548638993874192">
        <ele>564.90999999999997</ele>
        <time>2025-05-10T08:09:19Z</time>
      </trkpt>
      <trkpt lat="36.995025984942913" lon="-4.550516037270427">
        <ele>562.50999999999999</ele>
        <time>2025-05-10T08:09:30Z</time>
      </trkpt>
      <trkpt lat="36.995306024327874" lon="-4.550796998664737">
        <ele>562.02999999999997</ele>
        <time>2025-05-10T08:09:32Z</time>
      </trkpt>
      <trkpt lat="36.995453964918852" lon="-4.550929013639689">
        <ele>561.54999999999995</ele>
        <time>2025-05-10T08:09:33Z</time>
      </trkpt>
      <trkpt lat="36.995613975450397" lon="-4.551022974774241">
        <ele>561.54999999999995</ele>
        <time>2025-05-10T08:09:34Z</time>
      </trkpt>
      <trkpt lat="36.995901977643371" lon="-4.551193965598941">
        <ele>560.59000000000003</ele>
        <time>2025-05-10T08:09:36Z</time>
      </trkpt>
      <trkpt lat="36.996017983183265" lon="-4.55131801776588">
        <ele>560.11000000000001</ele>
        <time>2025-05-10T08:09:37Z</time>
      </trkpt>
      <trkpt lat="36.996128959581256" lon="-4.551438968628645">
        <ele>559.62</ele>
        <time>2025-05-10T08:09:38Z</time>
      </trkpt>
      <trkpt lat="36.996219987049699" lon="-4.551574001088738">
        <ele>558.65999999999997</ele>
        <time>2025-05-10T08:09:39Z</time>
      </trkpt>
      <trkpt lat="36.996301962062716" lon="-4.551714984700084">
        <ele>558.17999999999995</ele>
        <time>2025-05-10T08:09:40Z</time>
      </trkpt>
      <trkpt lat="36.996381003409624" lon="-4.551860997453332">
        <ele>557.22000000000003</ele>
        <time>2025-05-10T08:09:41Z</time>
      </trkpt>
      <trkpt lat="36.996430959552526" lon="-4.552039029076695">
        <ele>556.25999999999999</ele>
        <time>2025-05-10T08:09:42Z</time>
      </trkpt>
      <trkpt lat="36.996484016999602" lon="-4.552226029336453">
        <ele>555.29999999999995</ele>
        <time>2025-05-10T08:09:43Z</time>
      </trkpt>
      <trkpt lat="36.996588036417961" lon="-4.552596006542444">
        <ele>552.89999999999998</ele>
        <time>2025-05-10T08:09:45Z</time>
      </trkpt>
      <trkpt lat="36.99667202308774" lon="-4.552761968225241">
        <ele>551.92999999999995</ele>
        <time>2025-05-10T08:09:46Z</time>
      </trkpt>
      <trkpt lat="36.996762966737151" lon="-4.55288995988667">
        <ele>551.45000000000005</ele>
        <time>2025-05-10T08:09:47Z</time>
      </trkpt>
      <trkpt lat="36.996889030560851" lon="-4.553066985681653">
        <ele>549.52999999999997</ele>
        <time>2025-05-10T08:09:49Z</time>
      </trkpt>
      <trkpt lat="36.996942004188895" lon="-4.553142003715038">
        <ele>548.57000000000005</ele>
        <time>2025-05-10T08:09:50Z</time>
      </trkpt>
      <trkpt lat="36.997203016653657" lon="-4.553327998146415">
        <ele>546.64999999999998</ele>
        <time>2025-05-10T08:09:53Z</time>
      </trkpt>
      <trkpt lat="36.997311981394887" lon="-4.553393963724375">
        <ele>546.16999999999996</ele>
        <time>2025-05-10T08:09:54Z</time>
      </trkpt>
      <trkpt lat="36.997686987742782" lon="-4.553622035309672">
        <ele>543.75999999999999</ele>
        <time>2025-05-10T08:09:57Z</time>
      </trkpt>
      <trkpt lat="36.997958980500698" lon="-4.553786991164088">
        <ele>542.32000000000005</ele>
        <time>2025-05-10T08:09:59Z</time>
      </trkpt>
      <trkpt lat="36.998096024617553" lon="-4.553859997540712">
        <ele>541.84000000000003</ele>
        <time>2025-05-10T08:10:00Z</time>
      </trkpt>
      <trkpt lat="36.99824295938015" lon="-4.553891010582447">
        <ele>540.88</ele>
        <time>2025-05-10T08:10:01Z</time>
      </trkpt>
      <trkpt lat="36.998396012932062" lon="-4.553924035280943">
        <ele>539.91999999999996</ele>
        <time>2025-05-10T08:10:02Z</time>
      </trkpt>
      <trkpt lat="36.998549988493323" lon="-4.553956976160407">
        <ele>538.96000000000004</ele>
        <time>2025-05-10T08:10:03Z</time>
      </trkpt>
      <trkpt lat="36.999752959236503" lon="-4.554266016930342">
        <ele>532.71000000000004</ele>
        <time>2025-05-10T08:10:11Z</time>
      </trkpt>
      <trkpt lat="37.000623000785708" lon="-4.554519988596439">
        <ele>529.82000000000005</ele>
        <time>2025-05-10T08:10:19Z</time>
      </trkpt>
      <trkpt lat="37.000718973577023" lon="-4.554598024114966">
        <ele>530.29999999999995</ele>
        <time>2025-05-10T08:10:20Z</time>
      </trkpt>
      <trkpt lat="37.000796003267169" lon="-4.554660972207785">
        <ele>530.29999999999995</ele>
        <time>2025-05-10T08:10:21Z</time>
      </trkpt>
      <trkpt lat="37.000874960795045" lon="-4.554740013554692">
        <ele>530.29999999999995</ele>
        <time>2025-05-10T08:10:22Z</time>
      </trkpt>
      <trkpt lat="37.000932041555643" lon="-4.554841015487909">
        <ele>530.29999999999995</ele>
        <time>2025-05-10T08:10:23Z</time>
      </trkpt>
      <trkpt lat="37.00099197216332" lon="-4.554948974400759">
        <ele>530.29999999999995</ele>
        <time>2025-05-10T08:10:24Z</time>
      </trkpt>
      <trkpt lat="37.001057015731931" lon="-4.555072020739317">
        <ele>530.29999999999995</ele>
        <time>2025-05-10T08:10:25Z</time>
      </trkpt>
      <trkpt lat="37.001103032380342" lon="-4.555215016007423">
        <ele>530.29999999999995</ele>
        <time>2025-05-10T08:10:26Z</time>
      </trkpt>
      <trkpt lat="37.001259019598365" lon="-4.55585103482008">
        <ele>531.26999999999998</ele>
        <time>2025-05-10T08:10:30Z</time>
      </trkpt>
      <trkpt lat="37.00124996714294" lon="-4.556016996502876">
        <ele>531.75</ele>
        <time>2025-05-10T08:10:31Z</time>
      </trkpt>
      <trkpt lat="37.00120403431356" lon="-4.556182958185673">
        <ele>532.71000000000004</ele>
        <time>2025-05-10T08:10:32Z</time>
      </trkpt>
      <trkpt lat="37.001155000180006" lon="-4.556358978152275">
        <ele>533.66999999999996</ele>
        <time>2025-05-10T08:10:33Z</time>
      </trkpt>
      <trkpt lat="37.001104960218072" lon="-4.556536003947258">
        <ele>534.63</ele>
        <time>2025-05-10T08:10:34Z</time>
      </trkpt>
      <trkpt lat="37.0009929779917" lon="-4.556904975324869">
        <ele>536.54999999999995</ele>
        <time>2025-05-10T08:10:36Z</time>
      </trkpt>
      <trkpt lat="37.000902034342289" lon="-4.557041013613343">
        <ele>537.99000000000001</ele>
        <time>2025-05-10T08:10:37Z</time>
      </trkpt>
      <trkpt lat="37.000822992995381" lon="-4.557160036638379">
        <ele>538.96000000000004</ele>
        <time>2025-05-10T08:10:38Z</time>
      </trkpt>
      <trkpt lat="37.000751998275518" lon="-4.557265983894467">
        <ele>540.88</ele>
        <time>2025-05-10T08:10:39Z</time>
      </trkpt>
      <trkpt lat="37.000761972740293" lon="-4.557376960292459">
        <ele>542.32000000000005</ele>
        <time>2025-05-10T08:10:40Z</time>
      </trkpt>
      <trkpt lat="37.000775970518589" lon="-4.557520039379597">
        <ele>543.75999999999999</ele>
        <time>2025-05-10T08:10:41Z</time>
      </trkpt>
      <trkpt lat="37.000790974125266" lon="-4.557682983577251">
        <ele>545.20000000000005</ele>
        <time>2025-05-10T08:10:42Z</time>
      </trkpt>
      <trkpt lat="37.0008600410074" lon="-4.558157986029983">
        <ele>549.04999999999995</ele>
        <time>2025-05-10T08:10:45Z</time>
      </trkpt>
      <trkpt lat="37.00090697966516" lon="-4.558290001004934">
        <ele>550.49000000000001</ele>
        <time>2025-05-10T08:10:46Z</time>
      </trkpt>
      <trkpt lat="37.000981997698545" lon="-4.558397959917784">
        <ele>551.92999999999995</ele>
        <time>2025-05-10T08:10:47Z</time>
      </trkpt>
      <trkpt lat="37.001086017116904" lon="-4.558485969901085">
        <ele>552.89999999999998</ele>
        <time>2025-05-10T08:10:48Z</time>
      </trkpt>
      <trkpt lat="37.001215014606714" lon="-4.558528969064355">
        <ele>554.34000000000003</ele>
        <time>2025-05-10T08:10:49Z</time>
      </trkpt>
      <trkpt lat="37.001361027359962" lon="-4.558574985712767">
        <ele>555.77999999999997</ele>
        <time>2025-05-10T08:10:50Z</time>
      </trkpt>
      <trkpt lat="37.001517014577985" lon="-4.558574985712767">
        <ele>557.22000000000003</ele>
        <time>2025-05-10T08:10:51Z</time>
      </trkpt>
      <trkpt lat="37.002206007018685" lon="-4.558648997917771">
        <ele>562.99000000000001</ele>
        <time>2025-05-10T08:10:56Z</time>
      </trkpt>
      <trkpt lat="37.002330981194973" lon="-4.5586889795959">
        <ele>563.95000000000005</ele>
        <time>2025-05-10T08:10:57Z</time>
      </trkpt>
      <trkpt lat="37.002446986734867" lon="-4.558725021779537">
        <ele>564.90999999999997</ele>
        <time>2025-05-10T08:10:58Z</time>
      </trkpt>
      <trkpt lat="37.002571960911155" lon="-4.558805990964174">
        <ele>565.87</ele>
        <time>2025-05-10T08:10:59Z</time>
      </trkpt>
      <trkpt lat="37.002694001421332" lon="-4.558885032311082">
        <ele>566.83000000000004</ele>
        <time>2025-05-10T08:11:00Z</time>
      </trkpt>
      <trkpt lat="37.00281897559762" lon="-4.558969018980861">
        <ele>567.32000000000005</ele>
        <time>2025-05-10T08:11:01Z</time>
      </trkpt>
      <trkpt lat="37.002930035814643" lon="-4.559087958186865">
        <ele>568.27999999999997</ele>
        <time>2025-05-10T08:11:02Z</time>
      </trkpt>
      <trkpt lat="37.003791024908423" lon="-4.559892034158111">
        <ele>574.03999999999996</ele>
        <time>2025-05-10T08:11:09Z</time>
      </trkpt>
      <trkpt lat="37.004883019253612" lon="-4.560542972758412">
        <ele>578.37</ele>
        <time>2025-05-10T08:11:17Z</time>
      </trkpt>
      <trkpt lat="37.005017967894673" lon="-4.560600975528359">
        <ele>578.37</ele>
        <time>2025-05-10T08:11:18Z</time>
      </trkpt>
      <trkpt lat="37.005162974819541" lon="-4.560656966641545">
        <ele>578.37</ele>
        <time>2025-05-10T08:11:19Z</time>
      </trkpt>
      <trkpt lat="37.005318962037563" lon="-4.560667024925351">
        <ele>577.88999999999999</ele>
        <time>2025-05-10T08:11:20Z</time>
      </trkpt>
      <trkpt lat="37.005493976175785" lon="-4.560678005218506">
        <ele>577.88999999999999</ele>
        <time>2025-05-10T08:11:21Z</time>
      </trkpt>
      <trkpt lat="37.005650969222188" lon="-4.560631988570094">
        <ele>576.92999999999995</ele>
        <time>2025-05-10T08:11:22Z</time>
      </trkpt>
      <trkpt lat="37.005813997238874" lon="-4.560583960264921">
        <ele>576.92999999999995</ele>
        <time>2025-05-10T08:11:23Z</time>
      </trkpt>
      <trkpt lat="37.007165998220444" lon="-4.560414981096983">
        <ele>574.52999999999997</ele>
        <time>2025-05-10T08:11:31Z</time>
      </trkpt>
      <trkpt lat="37.007322991266847" lon="-4.560452029109001">
        <ele>574.03999999999996</ele>
        <time>2025-05-10T08:11:32Z</time>
      </trkpt>
      <trkpt lat="37.007656004279852" lon="-4.560525035485625">
        <ele>573.08000000000004</ele>
        <time>2025-05-10T08:11:34Z</time>
      </trkpt>
      <trkpt lat="37.00782397761941" lon="-4.560540961101651">
        <ele>572.60000000000002</ele>
        <time>2025-05-10T08:11:35Z</time>
      </trkpt>
      <trkpt lat="37.00799304060638" lon="-4.560513971373439">
        <ele>572.12</ele>
        <time>2025-05-10T08:11:36Z</time>
      </trkpt>
      <trkpt lat="37.008742969483137" lon="-4.560436019673944">
        <ele>571.15999999999997</ele>
        <time>2025-05-10T08:11:41Z</time>
      </trkpt>
      <trkpt lat="37.008859980851412" lon="-4.560482958331704">
        <ele>570.67999999999995</ele>
        <time>2025-05-10T08:11:42Z</time>
      </trkpt>
      <trkpt lat="37.008970035240054" lon="-4.560555964708328">
        <ele>570.67999999999995</ele>
        <time>2025-05-10T08:11:43Z</time>
      </trkpt>
      <trkpt lat="37.009080005809665" lon="-4.560641041025519">
        <ele>570.67999999999995</ele>
        <time>2025-05-10T08:11:44Z</time>
      </trkpt>
      <trkpt lat="37.009181007742882" lon="-4.560753023251891">
        <ele>571.15999999999997</ele>
        <time>2025-05-10T08:11:45Z</time>
      </trkpt>
      <trkpt lat="37.010289011523128" lon="-4.561944007873535">
        <ele>576.92999999999995</ele>
        <time>2025-05-10T08:11:54Z</time>
      </trkpt>
      <trkpt lat="37.010624036192894" lon="-4.562372993677855">
        <ele>579.33000000000004</ele>
        <time>2025-05-10T08:11:58Z</time>
      </trkpt>
      <trkpt lat="37.010749010369182" lon="-4.56259997561574">
        <ele>581.25</ele>
        <time>2025-05-10T08:12:06Z</time>
      </trkpt>
      <trkpt lat="37.010749010369182" lon="-4.56259997561574">
        <ele>581.25</ele>
        <time>2025-05-10T08:12:20Z</time>
      </trkpt>
      <trkpt lat="37.010743981227279" lon="-4.562591006979346">
        <ele>581.73000000000002</ele>
        <time>2025-05-10T08:12:22Z</time>
      </trkpt>
      <trkpt lat="37.010727971792221" lon="-4.562563011422753">
        <ele>582.22000000000003</ele>
        <time>2025-05-10T08:12:23Z</time>
      </trkpt>
      <trkpt lat="37.010709028691053" lon="-4.562527975067496">
        <ele>582.22000000000003</ele>
        <time>2025-05-10T08:12:24Z</time>
      </trkpt>
      <trkpt lat="37.010687990114093" lon="-4.562488999217749">
        <ele>582.70000000000005</ele>
        <time>2025-05-10T08:12:25Z</time>
      </trkpt>
      <trkpt lat="37.010669969022274" lon="-4.562456980347633">
        <ele>582.70000000000005</ele>
        <time>2025-05-10T08:12:26Z</time>
      </trkpt>
      <trkpt lat="37.010751022025943" lon="-4.562329994514585">
        <ele>583.17999999999995</ele>
        <time>2025-05-10T08:12:27Z</time>
      </trkpt>
      <trkpt lat="37.010755967348814" lon="-4.562328988686204">
        <ele>583.17999999999995</ele>
        <time>2025-05-10T08:12:28Z</time>
      </trkpt>
      <trkpt lat="37.010814975947142" lon="-4.562318008393049">
        <ele>582.70000000000005</ele>
        <time>2025-05-10T08:12:29Z</time>
      </trkpt>
      <trkpt lat="37.010884964838624" lon="-4.562304010614753">
        <ele>582.70000000000005</ele>
        <time>2025-05-10T08:12:30Z</time>
      </trkpt>
      <trkpt lat="37.011435991153121" lon="-4.562004022300243">
        <ele>575.97000000000003</ele>
        <time>2025-05-10T08:12:39Z</time>
      </trkpt>
      <trkpt lat="37.011456023901701" lon="-4.561989018693566">
        <ele>574.52999999999997</ele>
        <time>2025-05-10T08:12:48Z</time>
      </trkpt>
      <trkpt lat="37.011502040550113" lon="-4.561955993995071">
        <ele>574.03999999999996</ele>
        <time>2025-05-10T08:12:52Z</time>
      </trkpt>
      <trkpt lat="37.011787025257945" lon="-4.561750972643495">
        <ele>569.72000000000003</ele>
        <time>2025-05-10T08:13:00Z</time>
      </trkpt>
      <trkpt lat="37.011787025257945" lon="-4.561750972643495">
        <ele>568.75999999999999</ele>
        <time>2025-05-10T08:13:12Z</time>
      </trkpt>
      <trkpt lat="37.011787025257945" lon="-4.561750972643495">
        <ele>568.27999999999997</ele>
        <time>2025-05-10T08:13:13Z</time>
      </trkpt>
      <trkpt lat="37.011787025257945" lon="-4.561750972643495">
        <ele>567.79999999999995</ele>
        <time>2025-05-10T08:13:14Z</time>
      </trkpt>
      <trkpt lat="37.011787025257945" lon="-4.561750972643495">
        <ele>567.32000000000005</ele>
        <time>2025-05-10T08:13:18Z</time>
      </trkpt>
      <trkpt lat="37.011792976409197" lon="-4.561746027320623">
        <ele>566.83000000000004</ele>
        <time>2025-05-10T08:13:19Z</time>
      </trkpt>
      <trkpt lat="37.011741008609533" lon="-4.561783997341991">
        <ele>566.83000000000004</ele>
        <time>2025-05-10T08:13:21Z</time>
      </trkpt>
      <trkpt lat="37.011700021103024" lon="-4.561812998726964">
        <ele>566.83000000000004</ele>
        <time>2025-05-10T08:13:22Z</time>
      </trkpt>
      <trkpt lat="37.01164998114109" lon="-4.561849040910602">
        <ele>566.35000000000002</ele>
        <time>2025-05-10T08:13:23Z</time>
      </trkpt>
      <trkpt lat="37.010947996750474" lon="-4.562291018664837">
        <ele>571.15999999999997</ele>
        <time>2025-05-10T08:13:35Z</time>
      </trkpt>
      <trkpt lat="37.010696958750486" lon="-4.562329994514585">
        <ele>575.00999999999999</ele>
        <time>2025-05-10T08:13:41Z</time>
      </trkpt>
      <trkpt lat="37.010673992335796" lon="-4.562329994514585">
        <ele>575.97000000000003</ele>
        <time>2025-05-10T08:13:42Z</time>
      </trkpt>
      <trkpt lat="37.010600985959172" lon="-4.562329994514585">
        <ele>576.45000000000005</ele>
        <time>2025-05-10T08:13:43Z</time>
      </trkpt>
      <trkpt lat="37.010596040636301" lon="-4.562321025878191">
        <ele>577.40999999999997</ele>
        <time>2025-05-10T08:13:44Z</time>
      </trkpt>
      <trkpt lat="37.01055496931076" lon="-4.562250031158328">
        <ele>578.37</ele>
        <time>2025-05-10T08:13:45Z</time>
      </trkpt>
      <trkpt lat="37.010514987632632" lon="-4.562179958447814">
        <ele>578.85000000000002</ele>
        <time>2025-05-10T08:13:46Z</time>
      </trkpt>
      <trkpt lat="37.01042303815484" lon="-4.5620839856565">
        <ele>579.33000000000004</ele>
        <time>2025-05-10T08:13:47Z</time>
      </trkpt>
      <trkpt lat="37.010331004858017" lon="-4.561987007036805">
        <ele>579.33000000000004</ele>
        <time>2025-05-10T08:13:48Z</time>
      </trkpt>
      <trkpt lat="37.009374964982271" lon="-4.560970030725002">
        <ele>580.76999999999998</ele>
        <time>2025-05-10T08:13:56Z</time>
      </trkpt>
      <trkpt lat="37.009056033566594" lon="-4.560613967478275">
        <ele>579.33000000000004</ele>
        <time>2025-05-10T08:13:59Z</time>
      </trkpt>
      <trkpt lat="37.008944973349571" lon="-4.560540039092302">
        <ele>578.85000000000002</ele>
        <time>2025-05-10T08:14:00Z</time>
      </trkpt>
      <trkpt lat="37.008855035528541" lon="-4.560480024665594">
        <ele>578.85000000000002</ele>
        <time>2025-05-10T08:14:01Z</time>
      </trkpt>
      <trkpt lat="37.008769959211349" lon="-4.560439037159085">
        <ele>578.37</ele>
        <time>2025-05-10T08:14:02Z</time>
      </trkpt>
      <trkpt lat="37.008697958663106" lon="-4.560431996360421">
        <ele>578.37</ele>
        <time>2025-05-10T08:14:03Z</time>
      </trkpt>
      <trkpt lat="37.008638028055429" lon="-4.560425961390138">
        <ele>578.37</ele>
        <time>2025-05-10T08:14:04Z</time>
      </trkpt>
      <trkpt lat="37.008597040548921" lon="-4.560422021895647">
        <ele>577.88999999999999</ele>
        <time>2025-05-10T08:14:05Z</time>
      </trkpt>
      <trkpt lat="37.008601985871792" lon="-4.560339963063598">
        <ele>577.88999999999999</ele>
        <time>2025-05-10T08:14:06Z</time>
      </trkpt>
      <trkpt lat="37.008615983650088" lon="-4.56027802079916">
        <ele>577.40999999999997</ele>
        <time>2025-05-10T08:14:07Z</time>
      </trkpt>
      <trkpt lat="37.008634004741907" lon="-4.560217000544071">
        <ele>577.40999999999997</ele>
        <time>2025-05-10T08:14:08Z</time>
      </trkpt>
      <trkpt lat="37.008677003905177" lon="-4.560152962803841">
        <ele>576.92999999999995</ele>
        <time>2025-05-10T08:14:09Z</time>
      </trkpt>
      <trkpt lat="37.008712962269783" lon="-4.560098983347416">
        <ele>576.92999999999995</ele>
        <time>2025-05-10T08:14:10Z</time>
      </trkpt>
      <trkpt lat="37.008764008060098" lon="-4.560113986954093">
        <ele>576.45000000000005</ele>
        <time>2025-05-10T08:14:11Z</time>
      </trkpt>
      <trkpt lat="37.008824022486806" lon="-4.560132008045912">
        <ele>575.97000000000003</ele>
        <time>2025-05-10T08:14:12Z</time>
      </trkpt>
      <trkpt lat="37.008888982236385" lon="-4.560151034966111">
        <ele>575.49000000000001</ele>
        <time>2025-05-10T08:14:13Z</time>
      </trkpt>
      <trkpt lat="37.008956037461758" lon="-4.560174001380801">
        <ele>575.00999999999999</ele>
        <time>2025-05-10T08:14:14Z</time>
      </trkpt>
      <trkpt lat="37.009184025228024" lon="-4.560272991657257">
        <ele>574.52999999999997</ele>
        <time>2025-05-10T08:14:17Z</time>
      </trkpt>
      <trkpt lat="37.01027300208807" lon="-4.560742964968085">
        <ele>569.24000000000001</ele>
        <time>2025-05-10T08:14:30Z</time>
      </trkpt>
      <trkpt lat="37.010432006791234" lon="-4.560753023251891">
        <ele>568.27999999999997</ele>
        <time>2025-05-10T08:14:32Z</time>
      </trkpt>
      <trkpt lat="37.010577013716102" lon="-4.560761991888285">
        <ele>567.32000000000005</ele>
        <time>2025-05-10T08:14:34Z</time>
      </trkpt>
      <trkpt lat="37.010925030335784" lon="-4.560686973854899">
        <ele>562.99000000000001</ele>
        <time>2025-05-10T08:14:41Z</time>
      </trkpt>
      <trkpt lat="37.010979009792209" lon="-4.560675993561745">
        <ele>562.50999999999999</ele>
        <time>2025-05-10T08:14:42Z</time>
      </trkpt>
      <trkpt lat="37.011591978371143" lon="-4.560546996071935">
        <ele>556.25999999999999</ele>
        <time>2025-05-10T08:14:52Z</time>
      </trkpt>
      <trkpt lat="37.011639000847936" lon="-4.560524029657245">
        <ele>555.77999999999997</ele>
        <time>2025-05-10T08:14:53Z</time>
      </trkpt>
      <trkpt lat="37.011762969195843" lon="-4.560416992753744">
        <ele>553.86000000000001</ele>
        <time>2025-05-10T08:14:56Z</time>
      </trkpt>
      <trkpt lat="37.011879980564117" lon="-4.560299981385469">
        <ele>551.92999999999995</ele>
        <time>2025-05-10T08:14:59Z</time>
      </trkpt>
      <trkpt lat="37.011921973899007" lon="-4.56025798805058">
        <ele>551.45000000000005</ele>
        <time>2025-05-10T08:15:00Z</time>
      </trkpt>
      <trkpt lat="37.011965978890657" lon="-4.560213983058929">
        <ele>550.97000000000003</ele>
        <time>2025-05-10T08:15:01Z</time>
      </trkpt>
      <trkpt lat="37.012115009129047" lon="-4.560094960033894">
        <ele>550.00999999999999</ele>
        <time>2025-05-10T08:15:04Z</time>
      </trkpt>
      <trkpt lat="37.012171000242233" lon="-4.560069981962442">
        <ele>549.52999999999997</ele>
        <time>2025-05-10T08:15:05Z</time>
      </trkpt>
      <trkpt lat="37.01246696524322" lon="-4.559935033321381">
        <ele>547.13</ele>
        <time>2025-05-10T08:15:10Z</time>
      </trkpt>
      <trkpt lat="37.012577019631863" lon="-4.559907959774137">
        <ele>546.64999999999998</ele>
        <time>2025-05-10T08:15:12Z</time>
      </trkpt>
      <trkpt lat="37.012634016573429" lon="-4.559911983087659">
        <ele>546.16999999999996</ele>
        <time>2025-05-10T08:15:13Z</time>
      </trkpt>
      <trkpt lat="37.012794027104974" lon="-4.559922041371465">
        <ele>545.20000000000005</ele>
        <time>2025-05-10T08:15:16Z</time>
      </trkpt>
      <trkpt lat="37.012839959934354" lon="-4.559924975037575">
        <ele>545.20000000000005</ele>
        <time>2025-05-10T08:15:17Z</time>
      </trkpt>
      <trkpt lat="37.01298002153635" lon="-4.559902008622885">
        <ele>544.72000000000003</ele>
        <time>2025-05-10T08:15:20Z</time>
      </trkpt>
      <trkpt lat="37.013025032356381" lon="-4.559892034158111">
        <ele>544.24000000000001</ele>
        <time>2025-05-10T08:15:21Z</time>
      </trkpt>
      <trkpt lat="37.013073982670903" lon="-4.559879964217544">
        <ele>544.24000000000001</ele>
        <time>2025-05-10T08:15:22Z</time>
      </trkpt>
      <trkpt lat="37.013178002089262" lon="-4.559855991974473">
        <ele>544.72000000000003</ele>
        <time>2025-05-10T08:15:24Z</time>
      </trkpt>
      <trkpt lat="37.013240028172731" lon="-4.559840988367796">
        <ele>544.72000000000003</ele>
        <time>2025-05-10T08:15:25Z</time>
      </trkpt>
      <trkpt lat="37.013271041214466" lon="-4.559832019731402">
        <ele>544.72000000000003</ele>
        <time>2025-05-10T08:15:26Z</time>
      </trkpt>
      <trkpt lat="37.0133660081774" lon="-4.559803018346429">
        <ele>544.72000000000003</ele>
        <time>2025-05-10T08:15:28Z</time>
      </trkpt>
      <trkpt lat="37.013460975140333" lon="-4.559773011133075">
        <ele>544.72000000000003</ele>
        <time>2025-05-10T08:15:30Z</time>
      </trkpt>
      <trkpt lat="37.01351897791028" lon="-4.559754990041256">
        <ele>544.72000000000003</ele>
        <time>2025-05-10T08:15:31Z</time>
      </trkpt>
      <trkpt lat="37.013589972630143" lon="-4.559768987819552">
        <ele>544.24000000000001</ele>
        <time>2025-05-10T08:15:33Z</time>
      </trkpt>
      <trkpt lat="37.013632971793413" lon="-4.559778040274978">
        <ele>544.24000000000001</ele>
        <time>2025-05-10T08:15:34Z</time>
      </trkpt>
      <trkpt lat="37.013934971764684" lon="-4.559830008074641">
        <ele>539.91999999999996</ele>
        <time>2025-05-10T08:15:43Z</time>
      </trkpt>
      <trkpt lat="37.013965984806418" lon="-4.55984802916646">
        <ele>539.44000000000005</ele>
        <time>2025-05-10T08:15:44Z</time>
      </trkpt>
      <trkpt lat="37.014013007283211" lon="-4.559909971430898">
        <ele>538.48000000000002</ele>
        <time>2025-05-10T08:15:46Z</time>
      </trkpt>
      <trkpt lat="37.01403203420341" lon="-4.559951964765787">
        <ele>537.50999999999999</ele>
        <time>2025-05-10T08:15:47Z</time>
      </trkpt>
      <trkpt lat="37.014057012274861" lon="-4.560005022212863">
        <ele>537.02999999999997</ele>
        <time>2025-05-10T08:15:48Z</time>
      </trkpt>
      <trkpt lat="37.014080984517932" lon="-4.560056990012527">
        <ele>536.07000000000005</ele>
        <time>2025-05-10T08:15:49Z</time>
      </trkpt>
      <trkpt lat="37.014103028923273" lon="-4.560104012489319">
        <ele>535.59000000000003</ele>
        <time>2025-05-10T08:15:50Z</time>
      </trkpt>
      <trkpt lat="37.014122977852821" lon="-4.560147011652589">
        <ele>535.11000000000001</ele>
        <time>2025-05-10T08:15:51Z</time>
      </trkpt>
      <trkpt lat="37.014142004773021" lon="-4.560189004987478">
        <ele>534.63</ele>
        <time>2025-05-10T08:15:52Z</time>
      </trkpt>
      <trkpt lat="37.01416103169322" lon="-4.560233009979129">
        <ele>533.66999999999996</ele>
        <time>2025-05-10T08:15:53Z</time>
      </trkpt>
      <trkpt lat="37.01420595869422" lon="-4.560329988598824">
        <ele>532.23000000000002</ele>
        <time>2025-05-10T08:15:55Z</time>
      </trkpt>
      <trkpt lat="37.014229008927941" lon="-4.560382040217519">
        <ele>531.75</ele>
        <time>2025-05-10T08:15:56Z</time>
      </trkpt>
      <trkpt lat="37.014251975342631" lon="-4.560433002188802">
        <ele>530.78999999999996</ele>
        <time>2025-05-10T08:15:57Z</time>
      </trkpt>
      <trkpt lat="37.014276031404734" lon="-4.560484969988465">
        <ele>530.29999999999995</ele>
        <time>2025-05-10T08:15:58Z</time>
      </trkpt>
      <trkpt lat="37.014298997819424" lon="-4.560535009950399">
        <ele>529.34000000000003</ele>
        <time>2025-05-10T08:15:59Z</time>
      </trkpt>
      <trkpt lat="37.014320036396384" lon="-4.560582032427192">
        <ele>528.86000000000001</ele>
        <time>2025-05-10T08:16:00Z</time>
      </trkpt>
      <trkpt lat="37.014410980045795" lon="-4.560782024636865">
        <ele>525.5</ele>
        <time>2025-05-10T08:16:04Z</time>
      </trkpt>
      <trkpt lat="37.01444199308753" lon="-4.560850001871586">
        <ele>524.05999999999995</ele>
        <time>2025-05-10T08:16:05Z</time>
      </trkpt>
      <trkpt lat="37.014469988644123" lon="-4.560886966064572">
        <ele>523.09000000000003</ele>
        <time>2025-05-10T08:16:06Z</time>
      </trkpt>
      <trkpt lat="37.014536960050464" lon="-4.560975981876254">
        <ele>521.64999999999998</ele>
        <time>2025-05-10T08:16:08Z</time>
      </trkpt>
      <trkpt lat="37.01457099057734" lon="-4.561021998524666">
        <ele>521.16999999999996</ele>
        <time>2025-05-10T08:16:09Z</time>
      </trkpt>
      <trkpt lat="37.014638967812061" lon="-4.561112020164728">
        <ele>519.25</ele>
        <time>2025-05-10T08:16:11Z</time>
      </trkpt>
      <trkpt lat="37.014672998338938" lon="-4.56115803681314">
        <ele>518.76999999999998</ele>
        <time>2025-05-10T08:16:12Z</time>
      </trkpt>
      <trkpt lat="37.014707028865814" lon="-4.561230037361383">
        <ele>518.28999999999996</ele>
        <time>2025-05-10T08:16:13Z</time>
      </trkpt>
      <trkpt lat="37.014721026644111" lon="-4.561300026252866">
        <ele>516.37</ele>
        <time>2025-05-10T08:16:15Z</time>
      </trkpt>
      <trkpt lat="37.014736030250788" lon="-4.56133003346622">
        <ele>515.88</ele>
        <time>2025-05-10T08:16:16Z</time>
      </trkpt>
      <trkpt lat="37.014764025807381" lon="-4.561386024579406">
        <ele>514.91999999999996</ele>
        <time>2025-05-10T08:16:17Z</time>
      </trkpt>
      <trkpt lat="37.014777017757297" lon="-4.561409996822476">
        <ele>513.96000000000004</ele>
        <time>2025-05-10T08:16:18Z</time>
      </trkpt>
      <trkpt lat="37.014807024970651" lon="-4.561460958793759">
        <ele>513</ele>
        <time>2025-05-10T08:16:19Z</time>
      </trkpt>
      <trkpt lat="37.014841977506876" lon="-4.561521979048848">
        <ele>512.51999999999998</ele>
        <time>2025-05-10T08:16:20Z</time>
      </trkpt>
      <trkpt lat="37.014886988326907" lon="-4.561584005132318">
        <ele>512.03999999999996</ele>
        <time>2025-05-10T08:16:21Z</time>
      </trkpt>
      <trkpt lat="37.014931999146938" lon="-4.561643013730645">
        <ele>511.56</ele>
        <time>2025-05-10T08:16:22Z</time>
      </trkpt>
      <trkpt lat="37.014980027452111" lon="-4.561704033985734">
        <ele>511.07999999999998</ele>
        <time>2025-05-10T08:16:23Z</time>
      </trkpt>
      <trkpt lat="37.015023026615381" lon="-4.561765976250172">
        <ele>511.56</ele>
        <time>2025-05-10T08:16:24Z</time>
      </trkpt>
      <trkpt lat="37.015062002465129" lon="-4.561828002333641">
        <ele>512.03999999999996</ele>
        <time>2025-05-10T08:16:25Z</time>
      </trkpt>
      <trkpt lat="37.015098966658115" lon="-4.561886005103588">
        <ele>511.56</ele>
        <time>2025-05-10T08:16:26Z</time>
      </trkpt>
      <trkpt lat="37.0151930116117" lon="-4.562035035341978">
        <ele>510.60000000000002</ele>
        <time>2025-05-10T08:16:29Z</time>
      </trkpt>
      <trkpt lat="37.015224024653435" lon="-4.56208499148488">
        <ele>510.60000000000002</ele>
        <time>2025-05-10T08:16:30Z</time>
      </trkpt>
      <trkpt lat="37.015256965532899" lon="-4.562136959284544">
        <ele>510.12</ele>
        <time>2025-05-10T08:16:31Z</time>
      </trkpt>
      <trkpt lat="37.015591990202665" lon="-4.562524035573006">
        <ele>508.67000000000002</ele>
        <time>2025-05-10T08:16:39Z</time>
      </trkpt>
      <trkpt lat="37.015631971880794" lon="-4.562570974230766">
        <ele>508.67000000000002</ele>
        <time>2025-05-10T08:16:40Z</time>
      </trkpt>
      <trkpt lat="37.015727022662759" lon="-4.562670970335603">
        <ele>510.12</ele>
        <time>2025-05-10T08:16:42Z</time>
      </trkpt>
      <trkpt lat="37.015925003215671" lon="-4.562850007787347">
        <ele>511.56</ele>
        <time>2025-05-10T08:16:46Z</time>
      </trkpt>
      <trkpt lat="37.015970014035702" lon="-4.562887977808714">
        <ele>511.56</ele>
        <time>2025-05-10T08:16:47Z</time>
      </trkpt>
      <trkpt lat="37.016004966571927" lon="-4.562916979193687">
        <ele>511.56</ele>
        <time>2025-05-10T08:16:48Z</time>
      </trkpt>
      <trkpt lat="37.016061963513494" lon="-4.562966013327241">
        <ele>511.56</ele>
        <time>2025-05-10T08:16:51Z</time>
      </trkpt>
      <trkpt lat="37.016061963513494" lon="-4.562966013327241">
        <ele>511.56</ele>
        <time>2025-05-10T08:16:52Z</time>
      </trkpt>
      <trkpt lat="37.016061963513494" lon="-4.562966013327241">
        <ele>511.56</ele>
        <time>2025-05-10T08:17:04Z</time>
      </trkpt>
      <trkpt lat="37.016098005697131" lon="-4.562997026368976">
        <ele>512.03999999999996</ele>
        <time>2025-05-10T08:17:19Z</time>
      </trkpt>
      <trkpt lat="37.016099011525512" lon="-4.562997026368976">
        <ele>512.03999999999996</ele>
        <time>2025-05-10T08:17:20Z</time>
      </trkpt>
      <trkpt lat="37.016093982383609" lon="-4.562939023599029">
        <ele>512.51999999999998</ele>
        <time>2025-05-10T08:17:22Z</time>
      </trkpt>
      <trkpt lat="37.015793994069099" lon="-4.562738025560975">
        <ele>512.03999999999996</ele>
        <time>2025-05-10T08:17:27Z</time>
      </trkpt>
      <trkpt lat="37.015793994069099" lon="-4.562738025560975">
        <ele>512.03999999999996</ele>
        <time>2025-05-10T08:17:29Z</time>
      </trkpt>
      <trkpt lat="37.015790976583958" lon="-4.562736013904214">
        <ele>512.51999999999998</ele>
        <time>2025-05-10T08:17:30Z</time>
      </trkpt>
      <trkpt lat="37.015770021826029" lon="-4.562713969498873">
        <ele>512.51999999999998</ele>
        <time>2025-05-10T08:17:31Z</time>
      </trkpt>
      <trkpt lat="37.015757029876113" lon="-4.562701983377338">
        <ele>513.48000000000002</ele>
        <time>2025-05-10T08:17:40Z</time>
      </trkpt>
      <trkpt lat="37.015744037926197" lon="-4.562687985599041">
        <ele>513.48000000000002</ele>
        <time>2025-05-10T08:17:44Z</time>
      </trkpt>
      <trkpt lat="37.015826012939215" lon="-4.562478018924594">
        <ele>513.48000000000002</ele>
        <time>2025-05-10T08:17:45Z</time>
      </trkpt>
      <trkpt lat="37.015970014035702" lon="-4.562400989234448">
        <ele>513.48000000000002</ele>
        <time>2025-05-10T08:17:49Z</time>
      </trkpt>
      <trkpt lat="37.016018964350224" lon="-4.562389003112912">
        <ele>513.48000000000002</ele>
        <time>2025-05-10T08:17:50Z</time>
      </trkpt>
      <trkpt lat="37.016072021797299" lon="-4.562377016991377">
        <ele>513.48000000000002</ele>
        <time>2025-05-10T08:17:51Z</time>
      </trkpt>
      <trkpt lat="37.01631098985672" lon="-4.562323037534952">
        <ele>513</ele>
        <time>2025-05-10T08:17:55Z</time>
      </trkpt>
      <trkpt lat="37.016373015940189" lon="-4.562309039756656">
        <ele>513</ele>
        <time>2025-05-10T08:17:56Z</time>
      </trkpt>
      <trkpt lat="37.016734024509788" lon="-4.562194962054491">
        <ele>512.03999999999996</ele>
        <time>2025-05-10T08:18:02Z</time>
      </trkpt>
      <trkpt lat="37.016780963167548" lon="-4.562179958447814">
        <ele>511.56</ele>
        <time>2025-05-10T08:18:03Z</time>
      </trkpt>
      <trkpt lat="37.01684801839292" lon="-4.56214802339673">
        <ele>511.56</ele>
        <time>2025-05-10T08:18:04Z</time>
      </trkpt>
      <trkpt lat="37.016901997849345" lon="-4.562122039496899">
        <ele>511.56</ele>
        <time>2025-05-10T08:18:05Z</time>
      </trkpt>
      <trkpt lat="37.016953965649009" lon="-4.562096977606416">
        <ele>511.07999999999998</ele>
        <time>2025-05-10T08:18:06Z</time>
      </trkpt>
      <trkpt lat="37.017004005610943" lon="-4.562073005363345">
        <ele>511.07999999999998</ele>
        <time>2025-05-10T08:18:07Z</time>
      </trkpt>
      <trkpt lat="37.017101990059018" lon="-4.562026988714933">
        <ele>511.07999999999998</ele>
        <time>2025-05-10T08:18:09Z</time>
      </trkpt>
      <trkpt lat="37.017205003648996" lon="-4.561978038400412">
        <ele>510.60000000000002</ele>
        <time>2025-05-10T08:18:11Z</time>
      </trkpt>
      <trkpt lat="37.017312040552497" lon="-4.561923975124955">
        <ele>510.12</ele>
        <time>2025-05-10T08:18:13Z</time>
      </trkpt>
      <trkpt lat="37.017409019172192" lon="-4.561871001496911">
        <ele>509.63999999999999</ele>
        <time>2025-05-10T08:18:15Z</time>
      </trkpt>
      <trkpt lat="37.017453024163842" lon="-4.56184702925384">
        <ele>509.16000000000003</ele>
        <time>2025-05-10T08:18:16Z</time>
      </trkpt>
      <trkpt lat="37.01760096475482" lon="-4.561765976250172">
        <ele>506.75</ele>
        <time>2025-05-10T08:18:25Z</time>
      </trkpt>
      <trkpt lat="37.017654022201896" lon="-4.561736974865198">
        <ele>504.35000000000002</ele>
        <time>2025-05-10T08:18:35Z</time>
      </trkpt>
      <trkpt lat="37.017654022201896" lon="-4.561736974865198">
        <ele>513</ele>
        <time>2025-05-10T08:19:02Z</time>
      </trkpt>
      <trkpt lat="37.017654022201896" lon="-4.561736974865198">
        <ele>513.96000000000004</ele>
        <time>2025-05-10T08:19:24Z</time>
      </trkpt>
      <trkpt lat="37.017654022201896" lon="-4.561736974865198">
        <ele>513.96000000000004</ele>
        <time>2025-05-10T08:19:31Z</time>
      </trkpt>
      <trkpt lat="37.017809003591537" lon="-4.561650976538658">
        <ele>515.39999999999998</ele>
        <time>2025-05-10T08:19:32Z</time>
      </trkpt>
      <trkpt lat="37.017830964177847" lon="-4.561637984588742">
        <ele>515.88</ele>
        <time>2025-05-10T08:19:33Z</time>
      </trkpt>
      <trkpt lat="37.017855020239949" lon="-4.561624992638826">
        <ele>516.37</ele>
        <time>2025-05-10T08:19:34Z</time>
      </trkpt>
      <trkpt lat="37.017885027453303" lon="-4.561606971547008">
        <ele>516.85000000000002</ele>
        <time>2025-05-10T08:19:35Z</time>
      </trkpt>
      <trkpt lat="37.017910005524755" lon="-4.561592973768711">
        <ele>516.85000000000002</ele>
        <time>2025-05-10T08:19:36Z</time>
      </trkpt>
      <trkpt lat="37.01809398829937" lon="-4.561488032341003">
        <ele>516.37</ele>
        <time>2025-05-10T08:19:44Z</time>
      </trkpt>
      <trkpt lat="37.018197001889348" lon="-4.561429023742676">
        <ele>515.88</ele>
        <time>2025-05-10T08:19:45Z</time>
      </trkpt>
      <trkpt lat="37.018120978027582" lon="-4.561325004324317">
        <ele>515.88</ele>
        <time>2025-05-10T08:19:46Z</time>
      </trkpt>
      <trkpt lat="37.018095999956131" lon="-4.56128996796906">
        <ele>515.88</ele>
        <time>2025-05-10T08:19:47Z</time>
      </trkpt>
      <trkpt lat="37.018064986914396" lon="-4.561247974634171">
        <ele>515.39999999999998</ele>
        <time>2025-05-10T08:19:48Z</time>
      </trkpt>
      <trkpt lat="37.018030034378171" lon="-4.561200030148029">
        <ele>515.88</ele>
        <time>2025-05-10T08:19:49Z</time>
      </trkpt>
      <trkpt lat="37.017993992194533" lon="-4.561150996014476">
        <ele>515.39999999999998</ele>
        <time>2025-05-10T08:19:50Z</time>
      </trkpt>
      <trkpt lat="37.017958033829927" lon="-4.561101961880922">
        <ele>515.39999999999998</ele>
        <time>2025-05-10T08:19:51Z</time>
      </trkpt>
      <trkpt lat="37.017919979989529" lon="-4.561049994081259">
        <ele>515.39999999999998</ele>
        <time>2025-05-10T08:19:52Z</time>
      </trkpt>
      <trkpt lat="37.01783699914813" lon="-4.560937006026506">
        <ele>515.88</ele>
        <time>2025-05-10T08:19:54Z</time>
      </trkpt>
      <trkpt lat="37.017797017470002" lon="-4.560882020741701">
        <ele>515.88</ele>
        <time>2025-05-10T08:19:55Z</time>
      </trkpt>
      <trkpt lat="37.017757035791874" lon="-4.560826029628515">
        <ele>515.88</ele>
        <time>2025-05-10T08:19:56Z</time>
      </trkpt>
      <trkpt lat="37.017713030800223" lon="-4.560767021030188">
        <ele>515.88</ele>
        <time>2025-05-10T08:19:57Z</time>
      </trkpt>
      <trkpt lat="37.017669025808573" lon="-4.560706000775099">
        <ele>515.88</ele>
        <time>2025-05-10T08:19:58Z</time>
      </trkpt>
      <trkpt lat="37.017530975863338" lon="-4.560514977201819">
        <ele>515.39999999999998</ele>
        <time>2025-05-10T08:20:01Z</time>
      </trkpt>
      <trkpt lat="37.017487976700068" lon="-4.560456974431872">
        <ele>515.88</ele>
        <time>2025-05-10T08:20:02Z</time>
      </trkpt>
      <trkpt lat="37.0174500066787" lon="-4.560404000803828">
        <ele>515.39999999999998</ele>
        <time>2025-05-10T08:20:03Z</time>
      </trkpt>
      <trkpt lat="37.017415976151824" lon="-4.560357984155417">
        <ele>515.39999999999998</ele>
        <time>2025-05-10T08:20:04Z</time>
      </trkpt>
      <trkpt lat="37.01738303527236" lon="-4.560312973335385">
        <ele>515.39999999999998</ele>
        <time>2025-05-10T08:20:05Z</time>
      </trkpt>
      <trkpt lat="37.017346993088722" lon="-4.560264023020864">
        <ele>515.39999999999998</ele>
        <time>2025-05-10T08:20:06Z</time>
      </trkpt>
      <trkpt lat="37.017308017238975" lon="-4.560210965573788">
        <ele>515.39999999999998</ele>
        <time>2025-05-10T08:20:07Z</time>
      </trkpt>
      <trkpt lat="37.017267029732466" lon="-4.560155980288982">
        <ele>515.39999999999998</ele>
        <time>2025-05-10T08:20:08Z</time>
      </trkpt>
      <trkpt lat="37.017210032790899" lon="-4.560077022761107">
        <ele>515.39999999999998</ele>
        <time>2025-05-10T08:20:09Z</time>
      </trkpt>
      <trkpt lat="37.017067037522793" lon="-4.559911983087659">
        <ele>515.39999999999998</ele>
        <time>2025-05-10T08:20:12Z</time>
      </trkpt>
      <trkpt lat="37.017010040581226" lon="-4.559864038601518">
        <ele>515.39999999999998</ele>
        <time>2025-05-10T08:20:13Z</time>
      </trkpt>
      <trkpt lat="37.016797978430986" lon="-4.559707967564464">
        <ele>515.39999999999998</ele>
        <time>2025-05-10T08:20:17Z</time>
      </trkpt>
      <trkpt lat="37.016708962619305" lon="-4.559644013643265">
        <ele>515.39999999999998</ele>
        <time>2025-05-10T08:20:19Z</time>
      </trkpt>
      <trkpt lat="37.016663029789925" lon="-4.559618029743433">
        <ele>514.91999999999996</ele>
        <time>2025-05-10T08:20:20Z</time>
      </trkpt>
      <trkpt lat="37.016612989827991" lon="-4.55958902835846">
        <ele>515.39999999999998</ele>
        <time>2025-05-10T08:20:21Z</time>
      </trkpt>
      <trkpt lat="37.016457002609968" lon="-4.559493977576494">
        <ele>515.39999999999998</ele>
        <time>2025-05-10T08:20:24Z</time>
      </trkpt>
      <trkpt lat="37.016264973208308" lon="-4.559366991743445">
        <ele>514.91999999999996</ele>
        <time>2025-05-10T08:20:30Z</time>
      </trkpt>
      <trkpt lat="37.016261033713818" lon="-4.559337990358472">
        <ele>514.44000000000005</ele>
        <time>2025-05-10T08:20:31Z</time>
      </trkpt>
      <trkpt lat="37.016254998743534" lon="-4.559304965659976">
        <ele>514.44000000000005</ele>
        <time>2025-05-10T08:20:32Z</time>
      </trkpt>
      <trkpt lat="37.016272014006972" lon="-4.559193989261985">
        <ele>514.44000000000005</ele>
        <time>2025-05-10T08:20:34Z</time>
      </trkpt>
      <trkpt lat="37.016308978199959" lon="-4.559132969006896">
        <ele>514.44000000000005</ele>
        <time>2025-05-10T08:20:35Z</time>
      </trkpt>
      <trkpt lat="37.016488015651703" lon="-4.55864698626101">
        <ele>510.60000000000002</ele>
        <time>2025-05-10T08:20:45Z</time>
      </trkpt>
      <trkpt lat="37.016527997329831" lon="-4.558536009863019">
        <ele>510.12</ele>
        <time>2025-05-10T08:20:47Z</time>
      </trkpt>
      <trkpt lat="37.016575019806623" lon="-4.558421010151506">
        <ele>509.16000000000003</ele>
        <time>2025-05-10T08:20:49Z</time>
      </trkpt>
      <trkpt lat="37.016601003706455" lon="-4.558363007381558">
        <ele>508.67000000000002</ele>
        <time>2025-05-10T08:20:50Z</time>
      </trkpt>
      <trkpt lat="37.016623970121145" lon="-4.558310033753514">
        <ele>508.67000000000002</ele>
        <time>2025-05-10T08:20:51Z</time>
      </trkpt>
      <trkpt lat="37.016649032011628" lon="-4.558252030983567">
        <ele>508.19</ele>
        <time>2025-05-10T08:20:52Z</time>
      </trkpt>
      <trkpt lat="37.016673004254699" lon="-4.558196039870381">
        <ele>508.19</ele>
        <time>2025-05-10T08:20:53Z</time>
      </trkpt>
      <trkpt lat="37.01669798232615" lon="-4.558137031272054">
        <ele>507.70999999999998</ele>
        <time>2025-05-10T08:20:54Z</time>
      </trkpt>
      <trkpt lat="37.016927981749177" lon="-4.557611988857389">
        <ele>505.31</ele>
        <time>2025-05-10T08:21:03Z</time>
      </trkpt>
      <trkpt lat="37.016957988962531" lon="-4.557544011622667">
        <ele>504.82999999999998</ele>
        <time>2025-05-10T08:21:04Z</time>
      </trkpt>
      <trkpt lat="37.016989002004266" lon="-4.557477040216327">
        <ele>504.35000000000002</ele>
        <time>2025-05-10T08:21:05Z</time>
      </trkpt>
      <trkpt lat="37.017018003389239" lon="-4.557411996647716">
        <ele>503.87</ele>
        <time>2025-05-10T08:21:06Z</time>
      </trkpt>
      <trkpt lat="37.017043987289071" lon="-4.557353993877769">
        <ele>503.38999999999999</ele>
        <time>2025-05-10T08:21:07Z</time>
      </trkpt>
      <trkpt lat="37.017066031694412" lon="-4.557304959744215">
        <ele>503.38999999999999</ele>
        <time>2025-05-10T08:21:08Z</time>
      </trkpt>
      <trkpt lat="37.017088998109102" lon="-4.557255003601313">
        <ele>502.91000000000003</ele>
        <time>2025-05-10T08:21:09Z</time>
      </trkpt>
      <trkpt lat="37.017109030857682" lon="-4.557212004438043">
        <ele>502.91000000000003</ele>
        <time>2025-05-10T08:21:10Z</time>
      </trkpt>
      <trkpt lat="37.017125962302089" lon="-4.557176968082786">
        <ele>502.43000000000001</ele>
        <time>2025-05-10T08:21:11Z</time>
      </trkpt>
      <trkpt lat="37.017139960080385" lon="-4.557148972526193">
        <ele>501.94999999999999</ele>
        <time>2025-05-10T08:21:12Z</time>
      </trkpt>
      <trkpt lat="37.017152030020952" lon="-4.557123994454742">
        <ele>501.94999999999999</ele>
        <time>2025-05-10T08:21:13Z</time>
      </trkpt>
      <trkpt lat="37.017165021970868" lon="-4.557100022211671">
        <ele>501.45999999999998</ele>
        <time>2025-05-10T08:21:14Z</time>
      </trkpt>
      <trkpt lat="37.017167033627629" lon="-4.557094993069768">
        <ele>501.45999999999998</ele>
        <time>2025-05-10T08:21:15Z</time>
      </trkpt>
      <trkpt lat="37.017217995598912" lon="-4.557132963091135">
        <ele>501.45999999999998</ele>
        <time>2025-05-10T08:21:16Z</time>
      </trkpt>
      <trkpt lat="37.017268035560846" lon="-4.557171016931534">
        <ele>502.43000000000001</ele>
        <time>2025-05-10T08:21:17Z</time>
      </trkpt>
      <trkpt lat="37.017310028895736" lon="-4.557202029973269">
        <ele>502.91000000000003</ele>
        <time>2025-05-10T08:21:18Z</time>
      </trkpt>
      <trkpt lat="37.017350010573864" lon="-4.557232037186623">
        <ele>502.91000000000003</ele>
        <time>2025-05-10T08:21:19Z</time>
      </trkpt>
      <trkpt lat="37.01738697476685" lon="-4.557260032743216">
        <ele>502.91000000000003</ele>
        <time>2025-05-10T08:21:20Z</time>
      </trkpt>
      <trkpt lat="37.017430979758501" lon="-4.557291967794299">
        <ele>502.91000000000003</ele>
        <time>2025-05-10T08:21:21Z</time>
      </trkpt>
      <trkpt lat="37.017473978921771" lon="-4.557324992492795">
        <ele>502.91000000000003</ele>
        <time>2025-05-10T08:21:22Z</time>
      </trkpt>
      <trkpt lat="37.017596019431949" lon="-4.557416019961238">
        <ele>502.91000000000003</ele>
        <time>2025-05-10T08:21:23Z</time>
      </trkpt>
      <trkpt lat="37.017570035532117" lon="-4.557396993041039">
        <ele>502.91000000000003</ele>
        <time>2025-05-10T08:21:24Z</time>
      </trkpt>
      <trkpt lat="37.017626026645303" lon="-4.557434041053057">
        <ele>502.91000000000003</ele>
        <time>2025-05-10T08:21:25Z</time>
      </trkpt>
      <trkpt lat="37.017682017758489" lon="-4.55746597610414">
        <ele>502.91000000000003</ele>
        <time>2025-05-10T08:21:26Z</time>
      </trkpt>
      <trkpt lat="37.0177280344069" lon="-4.557492965832353">
        <ele>503.38999999999999</ele>
        <time>2025-05-10T08:21:27Z</time>
      </trkpt>
      <trkpt lat="37.017772039398551" lon="-4.557519033551216">
        <ele>503.87</ele>
        <time>2025-05-10T08:21:28Z</time>
      </trkpt>
      <trkpt lat="37.017868012189865" lon="-4.557576030492783">
        <ele>503.87</ele>
        <time>2025-05-10T08:21:30Z</time>
      </trkpt>
      <trkpt lat="37.018240001052618" lon="-4.557803012430668">
        <ele>504.35000000000002</ele>
        <time>2025-05-10T08:21:39Z</time>
      </trkpt>
      <trkpt lat="37.018240001052618" lon="-4.557803012430668">
        <ele>504.35000000000002</ele>
        <time>2025-05-10T08:21:49Z</time>
      </trkpt>
      <trkpt lat="37.018240001052618" lon="-4.557803012430668">
        <ele>504.35000000000002</ele>
        <time>2025-05-10T08:21:50Z</time>
      </trkpt>
      <trkpt lat="37.018085019662976" lon="-4.557734029367566">
        <ele>504.35000000000002</ele>
        <time>2025-05-10T08:23:37Z</time>
      </trkpt>
      <trkpt lat="37.018271014094353" lon="-4.557870989665389">
        <ele>522.61000000000001</ele>
        <time>2025-05-10T08:23:58Z</time>
      </trkpt>
      <trkpt lat="37.018304038792849" lon="-4.557836037129164">
        <ele>522.13</ele>
        <time>2025-05-10T08:23:59Z</time>
      </trkpt>
      <trkpt lat="37.018762025982141" lon="-4.558075005188584">
        <ele>520.69000000000005</ele>
        <time>2025-05-10T08:24:12Z</time>
      </trkpt>
      <trkpt lat="37.01880301348865" lon="-4.558095037937164">
        <ele>520.69000000000005</ele>
        <time>2025-05-10T08:24:13Z</time>
      </trkpt>
      <trkpt lat="37.018819022923708" lon="-4.558103000745177">
        <ele>520.21000000000004</ele>
        <time>2025-05-10T08:24:14Z</time>
      </trkpt>
      <trkpt lat="37.01886797323823" lon="-4.558141976594925">
        <ele>519.73000000000002</ele>
        <time>2025-05-10T08:24:15Z</time>
      </trkpt>
      <trkpt lat="37.018899992108345" lon="-4.558167960494757">
        <ele>519.25</ele>
        <time>2025-05-10T08:24:16Z</time>
      </trkpt>
      <trkpt lat="37.018938967958093" lon="-4.558195034042001">
        <ele>518.76999999999998</ele>
        <time>2025-05-10T08:24:17Z</time>
      </trkpt>
      <trkpt lat="37.018978027626872" lon="-4.558214982971549">
        <ele>518.76999999999998</ele>
        <time>2025-05-10T08:24:18Z</time>
      </trkpt>
      <trkpt lat="37.01923300512135" lon="-4.558359989896417">
        <ele>520.69000000000005</ele>
        <time>2025-05-10T08:24:28Z</time>
      </trkpt>
      <trkpt lat="37.019421011209488" lon="-4.558477001264691">
        <ele>521.16999999999996</ele>
        <time>2025-05-10T08:24:39Z</time>
      </trkpt>
      <trkpt lat="37.019475996494293" lon="-4.558514971286058">
        <ele>521.64999999999998</ele>
        <time>2025-05-10T08:24:40Z</time>
      </trkpt>
      <trkpt lat="37.01955696567893" lon="-4.558570962399244">
        <ele>523.09000000000003</ele>
        <time>2025-05-10T08:24:46Z</time>
      </trkpt>
      <trkpt lat="37.01964003033936" lon="-4.558627959340811">
        <ele>524.53999999999996</ele>
        <time>2025-05-10T08:24:55Z</time>
      </trkpt>
      <trkpt lat="37.019680012017488" lon="-4.558653021231294">
        <ele>524.53999999999996</ele>
        <time>2025-05-10T08:24:56Z</time>
      </trkpt>
      <trkpt lat="37.019728040322661" lon="-4.558680010959506">
        <ele>523.58000000000004</ele>
        <time>2025-05-10T08:24:57Z</time>
      </trkpt>
      <trkpt lat="37.019784031435847" lon="-4.558713035658002">
        <ele>523.58000000000004</ele>
        <time>2025-05-10T08:24:58Z</time>
      </trkpt>
      <trkpt lat="37.019841028377414" lon="-4.558744970709086">
        <ele>522.61000000000001</ele>
        <time>2025-05-10T08:24:59Z</time>
      </trkpt>
      <trkpt lat="37.019901964813471" lon="-4.558780007064343">
        <ele>522.13</ele>
        <time>2025-05-10T08:25:00Z</time>
      </trkpt>
      <trkpt lat="37.019967008382082" lon="-4.558816971257329">
        <ele>521.64999999999998</ele>
        <time>2025-05-10T08:25:01Z</time>
      </trkpt>
      <trkpt lat="37.020106986165047" lon="-4.558897018432617">
        <ele>520.69000000000005</ele>
        <time>2025-05-10T08:25:03Z</time>
      </trkpt>
      <trkpt lat="37.020185021683574" lon="-4.558942029252648">
        <ele>519.73000000000002</ele>
        <time>2025-05-10T08:25:04Z</time>
      </trkpt>
      <trkpt lat="37.020258028060198" lon="-4.558984022587538">
        <ele>519.25</ele>
        <time>2025-05-10T08:25:05Z</time>
      </trkpt>
      <trkpt lat="37.020321981981397" lon="-4.559019980952144">
        <ele>519.25</ele>
        <time>2025-05-10T08:25:06Z</time>
      </trkpt>
      <trkpt lat="37.020378978922963" lon="-4.55905300565064">
        <ele>518.76999999999998</ele>
        <time>2025-05-10T08:25:07Z</time>
      </trkpt>
      <trkpt lat="37.020432958379388" lon="-4.559086030349135">
        <ele>518.76999999999998</ele>
        <time>2025-05-10T08:25:08Z</time>
      </trkpt>
      <trkpt lat="37.020490039139986" lon="-4.559124000370503">
        <ele>518.76999999999998</ele>
        <time>2025-05-10T08:25:09Z</time>
      </trkpt>
      <trkpt lat="37.020744010806084" lon="-4.559258027002215">
        <ele>518.76999999999998</ele>
        <time>2025-05-10T08:25:13Z</time>
      </trkpt>
      <trkpt lat="37.020806036889553" lon="-4.559289962053299">
        <ele>518.28999999999996</ele>
        <time>2025-05-10T08:25:14Z</time>
      </trkpt>
      <trkpt lat="37.020934028550982" lon="-4.55935399979353">
        <ele>517.80999999999995</ele>
        <time>2025-05-10T08:25:16Z</time>
      </trkpt>
      <trkpt lat="37.020998988300562" lon="-4.559386018663645">
        <ele>517.33000000000004</ele>
        <time>2025-05-10T08:25:17Z</time>
      </trkpt>
      <trkpt lat="37.021064031869173" lon="-4.559418959543109">
        <ele>517.33000000000004</ele>
        <time>2025-05-10T08:25:18Z</time>
      </trkpt>
      <trkpt lat="37.021147012710571" lon="-4.559458019211888">
        <ele>516.85000000000002</ele>
        <time>2025-05-10T08:25:19Z</time>
      </trkpt>
      <trkpt lat="37.021212978288531" lon="-4.559477968141437">
        <ele>516.37</ele>
        <time>2025-05-10T08:25:20Z</time>
      </trkpt>
      <trkpt lat="37.021269975230098" lon="-4.559494983404875">
        <ele>516.37</ele>
        <time>2025-05-10T08:25:21Z</time>
      </trkpt>
      <trkpt lat="37.021322026848793" lon="-4.559509987011552">
        <ele>516.37</ele>
        <time>2025-05-10T08:25:22Z</time>
      </trkpt>
      <trkpt lat="37.021394027397037" lon="-4.559519039466977">
        <ele>514.91999999999996</ele>
        <time>2025-05-10T08:25:23Z</time>
      </trkpt>
      <trkpt lat="37.021439038217068" lon="-4.559519039466977">
        <ele>513.96000000000004</ele>
        <time>2025-05-10T08:25:24Z</time>
      </trkpt>
      <trkpt lat="37.021480025723577" lon="-4.559519039466977">
        <ele>513.48000000000002</ele>
        <time>2025-05-10T08:25:25Z</time>
      </trkpt>
      <trkpt lat="37.021525036543608" lon="-4.55952599644661">
        <ele>513.48000000000002</ele>
        <time>2025-05-10T08:25:26Z</time>
      </trkpt>
      <trkpt lat="37.021569963544607" lon="-4.559532031416893">
        <ele>513.96000000000004</ele>
        <time>2025-05-10T08:25:27Z</time>
      </trkpt>
      <trkpt lat="37.021616986021399" lon="-4.559538988396525">
        <ele>513.96000000000004</ele>
        <time>2025-05-10T08:25:28Z</time>
      </trkpt>
      <trkpt lat="37.021774984896183" lon="-4.559561032801867">
        <ele>514.44000000000005</ele>
        <time>2025-05-10T08:25:31Z</time>
      </trkpt>
      <trkpt lat="37.021821001544595" lon="-4.559567989781499">
        <ele>514.44000000000005</ele>
        <time>2025-05-10T08:25:32Z</time>
      </trkpt>
      <trkpt lat="37.022034991532564" lon="-4.559599002823234">
        <ele>512.51999999999998</ele>
        <time>2025-05-10T08:25:42Z</time>
      </trkpt>
      <trkpt lat="37.022034991532564" lon="-4.559599002823234">
        <ele>513</ele>
        <time>2025-05-10T08:26:22Z</time>
      </trkpt>
      <trkpt lat="37.022267002612352" lon="-4.559634039178491">
        <ele>511.07999999999998</ele>
        <time>2025-05-10T08:26:35Z</time>
      </trkpt>
      <trkpt lat="37.022499013692141" lon="-4.559651976451278">
        <ele>510.12</ele>
        <time>2025-05-10T08:26:40Z</time>
      </trkpt>
      <trkpt lat="37.022544024512172" lon="-4.559666980057955">
        <ele>509.63999999999999</ele>
        <time>2025-05-10T08:26:41Z</time>
      </trkpt>
      <trkpt lat="37.022590963169932" lon="-4.559683995321393">
        <ele>509.63999999999999</ele>
        <time>2025-05-10T08:26:42Z</time>
      </trkpt>
      <trkpt lat="37.02269297093153" lon="-4.559720037505031">
        <ele>509.63999999999999</ele>
        <time>2025-05-10T08:26:44Z</time>
      </trkpt>
      <trkpt lat="37.022794978693128" lon="-4.559754990041256">
        <ele>509.16000000000003</ele>
        <time>2025-05-10T08:26:46Z</time>
      </trkpt>
      <trkpt lat="37.022957000881433" lon="-4.559810981154442">
        <ele>508.67000000000002</ele>
        <time>2025-05-10T08:26:49Z</time>
      </trkpt>
      <trkpt lat="37.023007962852716" lon="-4.55982799641788">
        <ele>508.67000000000002</ele>
        <time>2025-05-10T08:26:50Z</time>
      </trkpt>
      <trkpt lat="37.023067977279425" lon="-4.55984802916646">
        <ele>508.19</ele>
        <time>2025-05-10T08:26:51Z</time>
      </trkpt>
      <trkpt lat="37.023286996409297" lon="-4.559750966727734">
        <ele>506.75</ele>
        <time>2025-05-10T08:26:54Z</time>
      </trkpt>
      <trkpt lat="37.023358996957541" lon="-4.55976496450603">
        <ele>505.79000000000002</ele>
        <time>2025-05-10T08:26:55Z</time>
      </trkpt>
      <trkpt lat="37.023740960285068" lon="-4.559838976711035">
        <ele>504.35000000000002</ele>
        <time>2025-05-10T08:27:00Z</time>
      </trkpt>
      <trkpt lat="37.023969031870365" lon="-4.559863032773137">
        <ele>503.38999999999999</ele>
        <time>2025-05-10T08:27:03Z</time>
      </trkpt>
      <trkpt lat="37.024181010201573" lon="-4.559850040823221">
        <ele>503.87</ele>
        <time>2025-05-10T08:27:06Z</time>
      </trkpt>
      <trkpt lat="37.024333979934454" lon="-4.559797989204526">
        <ele>503.38999999999999</ele>
        <time>2025-05-10T08:27:08Z</time>
      </trkpt>
      <trkpt lat="37.024391982704401" lon="-4.559766976162791">
        <ele>502.43000000000001</ele>
        <time>2025-05-10T08:27:09Z</time>
      </trkpt>
      <trkpt lat="37.02462499961257" lon="-4.559639990329742">
        <ele>500.98000000000002</ele>
        <time>2025-05-10T08:27:12Z</time>
      </trkpt>
      <trkpt lat="37.024704040959477" lon="-4.559596991166472">
        <ele>500.01999999999998</ele>
        <time>2025-05-10T08:27:13Z</time>
      </trkpt>
      <trkpt lat="37.025029007345438" lon="-4.55942097119987">
        <ele>497.62</ele>
        <time>2025-05-10T08:27:17Z</time>
      </trkpt>
      <trkpt lat="37.025414993986487" lon="-4.559048982337117">
        <ele>493.29000000000002</ele>
        <time>2025-05-10T08:27:22Z</time>
      </trkpt>
      <trkpt lat="37.025694027543068" lon="-4.558759974315763">
        <ele>488.49000000000001</ele>
        <time>2025-05-10T08:27:27Z</time>
      </trkpt>
      <trkpt lat="37.025711964815855" lon="-4.558668024837971">
        <ele>487.52999999999997</ele>
        <time>2025-05-10T08:27:28Z</time>
      </trkpt>
      <trkpt lat="37.025750018656254" lon="-4.558339035138488">
        <ele>486.07999999999998</ele>
        <time>2025-05-10T08:27:31Z</time>
      </trkpt>
      <trkpt lat="37.02619400806725" lon="-4.5572470407933">
        <ele>484.16000000000003</ele>
        <time>2025-05-10T08:27:42Z</time>
      </trkpt>
      <trkpt lat="37.026357958093286" lon="-4.556780001148582">
        <ele>483.68000000000001</ele>
        <time>2025-05-10T08:27:47Z</time>
      </trkpt>
      <trkpt lat="37.026426019147038" lon="-4.556440031155944">
        <ele>482.24000000000001</ele>
        <time>2025-05-10T08:27:51Z</time>
      </trkpt>
      <trkpt lat="37.026397017762065" lon="-4.555556997656822">
        <ele>480.31999999999999</ele>
        <time>2025-05-10T08:28:01Z</time>
      </trkpt>
      <trkpt lat="37.026118990033865" lon="-4.554667007178068">
        <ele>481.75999999999999</ele>
        <time>2025-05-10T08:28:11Z</time>
      </trkpt>
      <trkpt lat="37.025696961209178" lon="-4.553678026422858">
        <ele>482.24000000000001</ele>
        <time>2025-05-10T08:28:23Z</time>
      </trkpt>
      <trkpt lat="37.025320027023554" lon="-4.553127000108361">
        <ele>484.63999999999999</ele>
        <time>2025-05-10T08:28:32Z</time>
      </trkpt>
      <trkpt lat="37.025289013981819" lon="-4.553087018430233">
        <ele>484.63999999999999</ele>
        <time>2025-05-10T08:28:33Z</time>
      </trkpt>
      <trkpt lat="37.024815017357469" lon="-4.552589971572161">
        <ele>488.49000000000001</ele>
        <time>2025-05-10T08:28:43Z</time>
      </trkpt>
      <trkpt lat="37.024200037121773" lon="-4.552012961357832">
        <ele>492.81</ele>
        <time>2025-05-10T08:28:52Z</time>
      </trkpt>
      <trkpt lat="37.023561000823975" lon="-4.551338972523809">
        <ele>494.74000000000001</ele>
        <time>2025-05-10T08:29:01Z</time>
      </trkpt>
      <trkpt lat="37.022954989224672" lon="-4.550467003136873">
        <ele>493.76999999999998</ele>
        <time>2025-05-10T08:29:12Z</time>
      </trkpt>
      <trkpt lat="37.022877959534526" lon="-4.550349991768599">
        <ele>493.29000000000002</ele>
        <time>2025-05-10T08:29:15Z</time>
      </trkpt>
      <trkpt lat="37.022809982299805" lon="-4.550357032567263">
        <ele>493.29000000000002</ele>
        <time>2025-05-10T08:29:16Z</time>
      </trkpt>
      <trkpt lat="37.022767988964915" lon="-4.550377987325192">
        <ele>492.81</ele>
        <time>2025-05-10T08:29:17Z</time>
      </trkpt>
      <trkpt lat="37.022457020357251" lon="-4.550532968714833">
        <ele>493.29000000000002</ele>
        <time>2025-05-10T08:29:22Z</time>
      </trkpt>
      <trkpt lat="37.022423995658755" lon="-4.550549983978272">
        <ele>493.76999999999998</ele>
        <time>2025-05-10T08:29:23Z</time>
      </trkpt>
      <trkpt lat="37.022389965131879" lon="-4.550539003685117">
        <ele>494.25999999999999</ele>
        <time>2025-05-10T08:29:24Z</time>
      </trkpt>
      <trkpt lat="37.022389965131879" lon="-4.550539003685117">
        <ele>494.74000000000001</ele>
        <time>2025-05-10T08:29:25Z</time>
      </trkpt>
      <trkpt lat="37.022389965131879" lon="-4.550539003685117">
        <ele>495.69999999999999</ele>
        <time>2025-05-10T08:29:36Z</time>
      </trkpt>
      <trkpt lat="37.022318970412016" lon="-4.55056699924171">
        <ele>497.13999999999999</ele>
        <time>2025-05-10T08:29:52Z</time>
      </trkpt>
      <trkpt lat="37.0223059784621" lon="-4.550534980371594">
        <ele>497.62</ele>
        <time>2025-05-10T08:29:53Z</time>
      </trkpt>
      <trkpt lat="37.022322993725538" lon="-4.550468008965254">
        <ele>497.13999999999999</ele>
        <time>2025-05-10T08:29:54Z</time>
      </trkpt>
      <trkpt lat="37.022360041737556" lon="-4.550413023680449">
        <ele>497.13999999999999</ele>
        <time>2025-05-10T08:29:55Z</time>
      </trkpt>
      <trkpt lat="37.022403962910175" lon="-4.550349991768599">
        <ele>496.66000000000003</ele>
        <time>2025-05-10T08:29:56Z</time>
      </trkpt>
      <trkpt lat="37.022448973730206" lon="-4.550285032019019">
        <ele>496.66000000000003</ele>
        <time>2025-05-10T08:29:57Z</time>
      </trkpt>
      <trkpt lat="37.02249800786376" lon="-4.550199033692479">
        <ele>496.18000000000001</ele>
        <time>2025-05-10T08:29:58Z</time>
      </trkpt>
      <trkpt lat="37.022531032562256" lon="-4.55009501427412">
        <ele>496.18000000000001</ele>
        <time>2025-05-10T08:29:59Z</time>
      </trkpt>
      <trkpt lat="37.022698000073433" lon="-4.549530996009708">
        <ele>494.25999999999999</ele>
        <time>2025-05-10T08:30:06Z</time>
      </trkpt>
      <trkpt lat="37.022765977308154" lon="-4.549269983544946">
        <ele>492.81</ele>
        <time>2025-05-10T08:30:12Z</time>
      </trkpt>
      <trkpt lat="37.022986002266407" lon="-4.54850303940475">
        <ele>492.32999999999998</ele>
        <time>2025-05-10T08:30:21Z</time>
      </trkpt>
      <trkpt lat="37.023260006681085" lon="-4.547209041193128">
        <ele>488.00999999999999</ele>
        <time>2025-05-10T08:30:32Z</time>
      </trkpt>
      <trkpt lat="37.023272998631001" lon="-4.547141985967755">
        <ele>487.05000000000001</ele>
        <time>2025-05-10T08:30:33Z</time>
      </trkpt>
      <trkpt lat="37.023283978924155" lon="-4.547091023996472">
        <ele>485.60000000000002</ele>
        <time>2025-05-10T08:30:34Z</time>
      </trkpt>
      <trkpt lat="37.023300994187593" lon="-4.547050036489964">
        <ele>485.12</ele>
        <time>2025-05-10T08:30:35Z</time>
      </trkpt>
      <trkpt lat="37.023352039977908" lon="-4.547112984582782">
        <ele>483.68000000000001</ele>
        <time>2025-05-10T08:30:36Z</time>
      </trkpt>
      <trkpt lat="37.023397972807288" lon="-4.547123964875937">
        <ele>483.19999999999999</ele>
        <time>2025-05-10T08:30:37Z</time>
      </trkpt>
      <trkpt lat="37.023448012769222" lon="-4.547137040644884">
        <ele>482.24000000000001</ele>
        <time>2025-05-10T08:30:38Z</time>
      </trkpt>
      <trkpt lat="37.023496963083744" lon="-4.547149026766419">
        <ele>481.75999999999999</ele>
        <time>2025-05-10T08:30:39Z</time>
      </trkpt>
      <trkpt lat="37.023536022752523" lon="-4.547159001231194">
        <ele>480.80000000000001</ele>
        <time>2025-05-10T08:30:40Z</time>
      </trkpt>
      <trkpt lat="37.023717993870378" lon="-4.547131005674601">
        <ele>476.47000000000003</ele>
        <time>2025-05-10T08:30:47Z</time>
      </trkpt>
      <trkpt lat="37.023769039660692" lon="-4.546896982938051">
        <ele>474.55000000000001</ele>
        <time>2025-05-10T08:30:55Z</time>
      </trkpt>
      <trkpt lat="37.023784965276718" lon="-4.54689203761518">
        <ele>474.55000000000001</ele>
        <time>2025-05-10T08:31:07Z</time>
      </trkpt>
      <trkpt lat="37.02378798276186" lon="-4.546889020130038">
        <ele>474.06999999999999</ele>
        <time>2025-05-10T08:31:21Z</time>
      </trkpt>
      <trkpt lat="37.023780019953847" lon="-4.54689396545291">
        <ele>484.63999999999999</ele>
        <time>2025-05-10T09:07:10Z</time>
      </trkpt>
      <trkpt lat="37.023839028552175" lon="-4.546920033171773">
        <ele>481.75999999999999</ele>
        <time>2025-05-10T09:07:45Z</time>
      </trkpt>
      <trkpt lat="37.023863000795245" lon="-4.546867981553078">
        <ele>480.80000000000001</ele>
        <time>2025-05-10T09:08:12Z</time>
      </trkpt>
      <trkpt lat="37.023849003016949" lon="-4.546847026795149">
        <ele>486.56</ele>
        <time>2025-05-10T09:08:34Z</time>
      </trkpt>
      <trkpt lat="37.023827964439988" lon="-4.546862030401826">
        <ele>485.60000000000002</ele>
        <time>2025-05-10T09:08:57Z</time>
      </trkpt>
      <trkpt lat="37.023582961410284" lon="-4.547223960980773">
        <ele>484.63999999999999</ele>
        <time>2025-05-10T09:09:06Z</time>
      </trkpt>
      <trkpt lat="37.023539962247014" lon="-4.547160007059574">
        <ele>484.16000000000003</ele>
        <time>2025-05-10T09:09:07Z</time>
      </trkpt>
      <trkpt lat="37.023539962247014" lon="-4.547160007059574">
        <ele>483.68000000000001</ele>
        <time>2025-05-10T09:09:08Z</time>
      </trkpt>
      <trkpt lat="37.02333603054285" lon="-4.54710896126926">
        <ele>482.72000000000003</ele>
        <time>2025-05-10T09:09:17Z</time>
      </trkpt>
      <trkpt lat="37.023267969489098" lon="-4.547168975695968">
        <ele>482.72000000000003</ele>
        <time>2025-05-10T09:09:34Z</time>
      </trkpt>
      <trkpt lat="37.023255983367562" lon="-4.547226978465915">
        <ele>482.72000000000003</ele>
        <time>2025-05-10T09:09:35Z</time>
      </trkpt>
      <trkpt lat="37.023239973932505" lon="-4.547309959307313">
        <ele>482.72000000000003</ele>
        <time>2025-05-10T09:09:36Z</time>
      </trkpt>
      <trkpt lat="37.022978961467743" lon="-4.548533968627453">
        <ele>487.52999999999997</ele>
        <time>2025-05-10T09:09:49Z</time>
      </trkpt>
      <trkpt lat="37.022678973153234" lon="-4.54960199072957">
        <ele>491.37</ele>
        <time>2025-05-10T09:10:01Z</time>
      </trkpt>
      <trkpt lat="37.022489039227366" lon="-4.550228035077453">
        <ele>492.32999999999998</ele>
        <time>2025-05-10T09:10:08Z</time>
      </trkpt>
      <trkpt lat="37.02243497595191" lon="-4.550305986776948">
        <ele>492.32999999999998</ele>
        <time>2025-05-10T09:10:09Z</time>
      </trkpt>
      <trkpt lat="37.022388959303498" lon="-4.55037203617394">
        <ele>492.32999999999998</ele>
        <time>2025-05-10T09:10:10Z</time>
      </trkpt>
      <trkpt lat="37.022345038130879" lon="-4.550434984266758">
        <ele>492.32999999999998</ele>
        <time>2025-05-10T09:10:11Z</time>
      </trkpt>
      <trkpt lat="37.022294998168945" lon="-4.550506984815002">
        <ele>492.32999999999998</ele>
        <time>2025-05-10T09:10:12Z</time>
      </trkpt>
      <trkpt lat="37.022238001227379" lon="-4.55054797232151">
        <ele>492.32999999999998</ele>
        <time>2025-05-10T09:10:13Z</time>
      </trkpt>
      <trkpt lat="37.022174969315529" lon="-4.550592983141542">
        <ele>492.32999999999998</ele>
        <time>2025-05-10T09:10:14Z</time>
      </trkpt>
      <trkpt lat="37.021975982934237" lon="-4.550808984786272">
        <ele>492.32999999999998</ele>
        <time>2025-05-10T09:10:18Z</time>
      </trkpt>
      <trkpt lat="37.021931977942586" lon="-4.550861036404967">
        <ele>492.32999999999998</ele>
        <time>2025-05-10T09:10:19Z</time>
      </trkpt>
      <trkpt lat="37.021885961294174" lon="-4.550918033346534">
        <ele>492.32999999999998</ele>
        <time>2025-05-10T09:10:20Z</time>
      </trkpt>
      <trkpt lat="37.021846985444427" lon="-4.550982993096113">
        <ele>492.32999999999998</ele>
        <time>2025-05-10T09:10:21Z</time>
      </trkpt>
      <trkpt lat="37.02181002125144" lon="-4.551046025007963">
        <ele>492.32999999999998</ele>
        <time>2025-05-10T09:10:22Z</time>
      </trkpt>
      <trkpt lat="37.021770961582661" lon="-4.551114002242684">
        <ele>492.32999999999998</ele>
        <time>2025-05-10T09:10:23Z</time>
      </trkpt>
      <trkpt lat="37.021729974076152" lon="-4.551191031932831">
        <ele>492.81</ele>
        <time>2025-05-10T09:10:24Z</time>
      </trkpt>
      <trkpt lat="37.021424034610391" lon="-4.551884969696403">
        <ele>495.69999999999999</ele>
        <time>2025-05-10T09:10:34Z</time>
      </trkpt>
      <trkpt lat="37.021323032677174" lon="-4.552122009918094">
        <ele>497.62</ele>
        <time>2025-05-10T09:10:38Z</time>
      </trkpt>
      <trkpt lat="37.021292019635439" lon="-4.552176995202899">
        <ele>498.57999999999998</ele>
        <time>2025-05-10T09:10:39Z</time>
      </trkpt>
      <trkpt lat="37.021180037409067" lon="-4.55237396992743">
        <ele>500.5</ele>
        <time>2025-05-10T09:10:42Z</time>
      </trkpt>
      <trkpt lat="37.021153969690204" lon="-4.552405988797545">
        <ele>501.45999999999998</ele>
        <time>2025-05-10T09:10:43Z</time>
      </trkpt>
      <trkpt lat="37.020778963342309" lon="-4.553047958761454">
        <ele>506.26999999999998</ele>
        <time>2025-05-10T09:10:52Z</time>
      </trkpt>
      <trkpt lat="37.020437987521291" lon="-4.553851028904319">
        <ele>504.35000000000002</ele>
        <time>2025-05-10T09:11:02Z</time>
      </trkpt>
      <trkpt lat="37.020403034985065" lon="-4.553937027230859">
        <ele>503.87</ele>
        <time>2025-05-10T09:11:03Z</time>
      </trkpt>
      <trkpt lat="37.020372021943331" lon="-4.554011961445212">
        <ele>503.38999999999999</ele>
        <time>2025-05-10T09:11:04Z</time>
      </trkpt>
      <trkpt lat="37.02034997753799" lon="-4.554065018892288">
        <ele>502.91000000000003</ele>
        <time>2025-05-10T09:11:05Z</time>
      </trkpt>
      <trkpt lat="37.020334973931313" lon="-4.554101983085275">
        <ele>501.94999999999999</ele>
        <time>2025-05-10T09:11:06Z</time>
      </trkpt>
      <trkpt lat="37.020323993638158" lon="-4.554127966985107">
        <ele>501.45999999999998</ele>
        <time>2025-05-10T09:11:07Z</time>
      </trkpt>
      <trkpt lat="37.020309995859861" lon="-4.55415403470397">
        <ele>500.98000000000002</ele>
        <time>2025-05-10T09:11:08Z</time>
      </trkpt>
      <trkpt lat="37.020292980596423" lon="-4.554184963926673">
        <ele>500.5</ele>
        <time>2025-05-10T09:11:09Z</time>
      </trkpt>
      <trkpt lat="37.020214023068547" lon="-4.554327037185431">
        <ele>499.06</ele>
        <time>2025-05-10T09:11:12Z</time>
      </trkpt>
      <trkpt lat="37.020041020587087" lon="-4.554528035223484">
        <ele>496.66000000000003</ele>
        <time>2025-05-10T09:11:19Z</time>
      </trkpt>
      <trkpt lat="37.020017970353365" lon="-4.554492998868227">
        <ele>496.18000000000001</ele>
        <time>2025-05-10T09:11:20Z</time>
      </trkpt>
      <trkpt lat="37.019992992281914" lon="-4.554452011361718">
        <ele>496.18000000000001</ele>
        <time>2025-05-10T09:11:21Z</time>
      </trkpt>
      <trkpt lat="37.019720999523997" lon="-4.553979020565748">
        <ele>491.85000000000002</ele>
        <time>2025-05-10T09:11:30Z</time>
      </trkpt>
      <trkpt lat="37.01968302950263" lon="-4.553912971168757">
        <ele>490.88999999999999</ele>
        <time>2025-05-10T09:11:31Z</time>
      </trkpt>
      <trkpt lat="37.019570963457227" lon="-4.553733011707664">
        <ele>489.93000000000001</ele>
        <time>2025-05-10T09:11:34Z</time>
      </trkpt>
      <trkpt lat="37.019325038418174" lon="-4.553272007033229">
        <ele>488.49000000000001</ele>
        <time>2025-05-10T09:11:41Z</time>
      </trkpt>
      <trkpt lat="37.019269969314337" lon="-4.55316798761487">
        <ele>488.00999999999999</ele>
        <time>2025-05-10T09:11:42Z</time>
      </trkpt>
      <trkpt lat="37.019230993464589" lon="-4.553033960983157">
        <ele>487.52999999999997</ele>
        <time>2025-05-10T09:11:44Z</time>
      </trkpt>
      <trkpt lat="37.019208027049899" lon="-4.552957015112042">
        <ele>487.52999999999997</ele>
        <time>2025-05-10T09:11:45Z</time>
      </trkpt>
      <trkpt lat="37.019185982644558" lon="-4.552879985421896">
        <ele>487.05000000000001</ele>
        <time>2025-05-10T09:11:46Z</time>
      </trkpt>
      <trkpt lat="37.019162010401487" lon="-4.552797004580498">
        <ele>487.05000000000001</ele>
        <time>2025-05-10T09:11:47Z</time>
      </trkpt>
      <trkpt lat="37.019138038158417" lon="-4.552717041224241">
        <ele>487.05000000000001</ele>
        <time>2025-05-10T09:11:48Z</time>
      </trkpt>
      <trkpt lat="37.019114987924695" lon="-4.55262802541256">
        <ele>487.05000000000001</ele>
        <time>2025-05-10T09:11:49Z</time>
      </trkpt>
      <trkpt lat="37.019051034003496" lon="-4.552298029884696">
        <ele>486.56</ele>
        <time>2025-05-10T09:11:53Z</time>
      </trkpt>
      <trkpt lat="37.019025972113013" lon="-4.55222100019455">
        <ele>486.56</ele>
        <time>2025-05-10T09:11:54Z</time>
      </trkpt>
      <trkpt lat="37.018999988213181" lon="-4.552142964676023">
        <ele>486.56</ele>
        <time>2025-05-10T09:11:55Z</time>
      </trkpt>
      <trkpt lat="37.018965035676956" lon="-4.551983959972858">
        <ele>487.05000000000001</ele>
        <time>2025-05-10T09:11:57Z</time>
      </trkpt>
      <trkpt lat="37.018907032907009" lon="-4.551894022151828">
        <ele>487.05000000000001</ele>
        <time>2025-05-10T09:11:58Z</time>
      </trkpt>
      <trkpt lat="37.018847018480301" lon="-4.551882036030293">
        <ele>487.05000000000001</ele>
        <time>2025-05-10T09:11:59Z</time>
      </trkpt>
      <trkpt lat="37.018783986568451" lon="-4.551872983574867">
        <ele>487.05000000000001</ele>
        <time>2025-05-10T09:12:00Z</time>
      </trkpt>
      <trkpt lat="37.018722966313362" lon="-4.551866026595235">
        <ele>487.52999999999997</ele>
        <time>2025-05-10T09:12:01Z</time>
      </trkpt>
      <trkpt lat="37.018633028492332" lon="-4.551924029365182">
        <ele>487.05000000000001</ele>
        <time>2025-05-10T09:12:02Z</time>
      </trkpt>
      <trkpt lat="37.018594974651933" lon="-4.551993012428284">
        <ele>487.52999999999997</ele>
        <time>2025-05-10T09:12:03Z</time>
      </trkpt>
      <trkpt lat="37.018551975488663" lon="-4.552069958299398">
        <ele>487.52999999999997</ele>
        <time>2025-05-10T09:12:04Z</time>
      </trkpt>
      <trkpt lat="37.018508976325393" lon="-4.552148999646306">
        <ele>487.05000000000001</ele>
        <time>2025-05-10T09:12:05Z</time>
      </trkpt>
      <trkpt lat="37.018463965505362" lon="-4.552229968830943">
        <ele>487.05000000000001</ele>
        <time>2025-05-10T09:12:06Z</time>
      </trkpt>
      <trkpt lat="37.018174035474658" lon="-4.55275702290237">
        <ele>484.63999999999999</ele>
        <time>2025-05-10T09:12:12Z</time>
      </trkpt>
      <trkpt lat="37.018120978027582" lon="-4.552854001522064">
        <ele>484.63999999999999</ele>
        <time>2025-05-10T09:12:13Z</time>
      </trkpt>
      <trkpt lat="37.018026011064649" lon="-4.552938994020224">
        <ele>484.16000000000003</ele>
        <time>2025-05-10T09:12:14Z</time>
      </trkpt>
      <trkpt lat="37.017932971939445" lon="-4.552980987355113">
        <ele>484.16000000000003</ele>
        <time>2025-05-10T09:12:15Z</time>
      </trkpt>
      <trkpt lat="37.017841022461653" lon="-4.553027004003525">
        <ele>484.16000000000003</ele>
        <time>2025-05-10T09:12:16Z</time>
      </trkpt>
      <trkpt lat="37.01766399666667" lon="-4.553150972351432">
        <ele>483.68000000000001</ele>
        <time>2025-05-10T09:12:18Z</time>
      </trkpt>
      <trkpt lat="37.017441038042307" lon="-4.553409973159432">
        <ele>484.63999999999999</ele>
        <time>2025-05-10T09:12:21Z</time>
      </trkpt>
      <trkpt lat="37.017367025837302" lon="-4.553499994799495">
        <ele>485.12</ele>
        <time>2025-05-10T09:12:22Z</time>
      </trkpt>
      <trkpt lat="37.01729997061193" lon="-4.553581969812512">
        <ele>485.60000000000002</ele>
        <time>2025-05-10T09:12:23Z</time>
      </trkpt>
      <trkpt lat="37.017197040840983" lon="-4.553729994222522">
        <ele>487.05000000000001</ele>
        <time>2025-05-10T09:12:25Z</time>
      </trkpt>
      <trkpt lat="37.017130991443992" lon="-4.553904002532363">
        <ele>488.49000000000001</ele>
        <time>2025-05-10T09:12:27Z</time>
      </trkpt>
      <trkpt lat="37.017114982008934" lon="-4.553998969495297">
        <ele>488.97000000000003</ele>
        <time>2025-05-10T09:12:28Z</time>
      </trkpt>
      <trkpt lat="37.017099978402257" lon="-4.554095026105642">
        <ele>489.44999999999999</ele>
        <time>2025-05-10T09:12:29Z</time>
      </trkpt>
      <trkpt lat="37.017083968967199" lon="-4.554190998896956">
        <ele>489.93000000000001</ele>
        <time>2025-05-10T09:12:30Z</time>
      </trkpt>
      <trkpt lat="37.017068965360522" lon="-4.55428596585989">
        <ele>490.41000000000003</ele>
        <time>2025-05-10T09:12:31Z</time>
      </trkpt>
      <trkpt lat="37.017052033916116" lon="-4.554390991106629">
        <ele>490.88999999999999</ele>
        <time>2025-05-10T09:12:32Z</time>
      </trkpt>
      <trkpt lat="37.017035018652678" lon="-4.554499033838511">
        <ele>490.88999999999999</ele>
        <time>2025-05-10T09:12:33Z</time>
      </trkpt>
      <trkpt lat="37.016930999234319" lon="-4.555352982133627">
        <ele>493.29000000000002</ele>
        <time>2025-05-10T09:12:41Z</time>
      </trkpt>
      <trkpt lat="37.016930999234319" lon="-4.555451972410083">
        <ele>493.76999999999998</ele>
        <time>2025-05-10T09:12:42Z</time>
      </trkpt>
      <trkpt lat="37.016995036974549" lon="-4.555694963783026">
        <ele>494.74000000000001</ele>
        <time>2025-05-10T09:12:45Z</time>
      </trkpt>
      <trkpt lat="37.017013980075717" lon="-4.555747015401721">
        <ele>494.74000000000001</ele>
        <time>2025-05-10T09:12:46Z</time>
      </trkpt>
      <trkpt lat="37.017026972025633" lon="-4.555784985423088">
        <ele>495.22000000000003</ele>
        <time>2025-05-10T09:12:47Z</time>
      </trkpt>
      <trkpt lat="37.017026972025633" lon="-4.555784985423088">
        <ele>495.22000000000003</ele>
        <time>2025-05-10T09:12:48Z</time>
      </trkpt>
      <trkpt lat="37.017026972025633" lon="-4.555784985423088">
        <ele>495.22000000000003</ele>
        <time>2025-05-10T09:12:49Z</time>
      </trkpt>
      <trkpt lat="37.017026972025633" lon="-4.555784985423088">
        <ele>496.18000000000001</ele>
        <time>2025-05-10T09:13:03Z</time>
      </trkpt>
      <trkpt lat="37.017065025866032" lon="-4.555890010669828">
        <ele>496.18000000000001</ele>
        <time>2025-05-10T09:13:06Z</time>
      </trkpt>
      <trkpt lat="37.017110036686063" lon="-4.555919012054801">
        <ele>496.18000000000001</ele>
        <time>2025-05-10T09:13:07Z</time>
      </trkpt>
      <trkpt lat="37.017139960080385" lon="-4.555900990962982">
        <ele>495.69999999999999</ele>
        <time>2025-05-10T09:13:08Z</time>
      </trkpt>
      <trkpt lat="37.017337018623948" lon="-4.555782973766327">
        <ele>494.25999999999999</ele>
        <time>2025-05-10T09:13:13Z</time>
      </trkpt>
      <trkpt lat="37.017634995281696" lon="-4.555604020133615">
        <ele>493.29000000000002</ele>
        <time>2025-05-10T09:13:20Z</time>
      </trkpt>
      <trkpt lat="37.017716970294714" lon="-4.555553980171681">
        <ele>492.81</ele>
        <time>2025-05-10T09:13:22Z</time>
      </trkpt>
      <trkpt lat="37.017758041620255" lon="-4.55553000792861">
        <ele>492.81</ele>
        <time>2025-05-10T09:13:23Z</time>
      </trkpt>
      <trkpt lat="37.017941018566489" lon="-4.555420037358999">
        <ele>492.81</ele>
        <time>2025-05-10T09:13:27Z</time>
      </trkpt>
      <trkpt lat="37.018083008006215" lon="-4.555324986577034">
        <ele>493.29000000000002</ele>
        <time>2025-05-10T09:13:30Z</time>
      </trkpt>
      <trkpt lat="37.018127012997866" lon="-4.555287016555667">
        <ele>492.81</ele>
        <time>2025-05-10T09:13:31Z</time>
      </trkpt>
      <trkpt lat="37.018207982182503" lon="-4.555215016007423">
        <ele>492.81</ele>
        <time>2025-05-10T09:13:33Z</time>
      </trkpt>
      <trkpt lat="37.018249975517392" lon="-4.555178973823786">
        <ele>492.32999999999998</ele>
        <time>2025-05-10T09:13:34Z</time>
      </trkpt>
      <trkpt lat="37.018488021567464" lon="-4.5549710188061">
        <ele>491.37</ele>
        <time>2025-05-10T09:13:42Z</time>
      </trkpt>
      <trkpt lat="37.018534038215876" lon="-4.554930031299591">
        <ele>490.88999999999999</ele>
        <time>2025-05-10T09:13:52Z</time>
      </trkpt>
      <trkpt lat="37.018591035157442" lon="-4.554956015199423">
        <ele>490.41000000000003</ele>
        <time>2025-05-10T09:13:53Z</time>
      </trkpt>
      <trkpt lat="37.01861098408699" lon="-4.554990967735648">
        <ele>489.93000000000001</ele>
        <time>2025-05-10T09:13:54Z</time>
      </trkpt>
      <trkpt lat="37.018626993522048" lon="-4.555017035454512">
        <ele>489.44999999999999</ele>
        <time>2025-05-10T09:13:55Z</time>
      </trkpt>
      <trkpt lat="37.018662029877305" lon="-4.555076966062188">
        <ele>488.97000000000003</ele>
        <time>2025-05-10T09:13:56Z</time>
      </trkpt>
      <trkpt lat="37.018706034868956" lon="-4.555152989923954">
        <ele>488.00999999999999</ele>
        <time>2025-05-10T09:13:57Z</time>
      </trkpt>
      <trkpt lat="37.018896974623203" lon="-4.555479967966676">
        <ele>486.56</ele>
        <time>2025-05-10T09:14:02Z</time>
      </trkpt>
      <trkpt lat="37.018922036513686" lon="-4.555522967129946">
        <ele>486.56</ele>
        <time>2025-05-10T09:14:03Z</time>
      </trkpt>
      <trkpt lat="37.018941985443234" lon="-4.555556997656822">
        <ele>486.07999999999998</ele>
        <time>2025-05-10T09:14:04Z</time>
      </trkpt>
      <trkpt lat="37.018959000706673" lon="-4.555585999041796">
        <ele>486.07999999999998</ele>
        <time>2025-05-10T09:14:05Z</time>
      </trkpt>
      <trkpt lat="37.018971992656589" lon="-4.555608965456486">
        <ele>485.60000000000002</ele>
        <time>2025-05-10T09:14:06Z</time>
      </trkpt>
      <trkpt lat="37.018988002091646" lon="-4.555636961013079">
        <ele>485.60000000000002</ele>
        <time>2025-05-10T09:14:11Z</time>
      </trkpt>
      <trkpt lat="37.019054973497987" lon="-4.555656993761659">
        <ele>485.60000000000002</ele>
        <time>2025-05-10T09:14:12Z</time>
      </trkpt>
      <trkpt lat="37.019115993753076" lon="-4.555605025961995">
        <ele>485.12</ele>
        <time>2025-05-10T09:14:13Z</time>
      </trkpt>
      <trkpt lat="37.01914600096643" lon="-4.555578958243132">
        <ele>485.12</ele>
        <time>2025-05-10T09:14:14Z</time>
      </trkpt>
      <trkpt lat="37.019175002351403" lon="-4.555553980171681">
        <ele>484.63999999999999</ele>
        <time>2025-05-10T09:14:15Z</time>
      </trkpt>
      <trkpt lat="37.019207021221519" lon="-4.555525984615088">
        <ele>484.63999999999999</ele>
        <time>2025-05-10T09:14:16Z</time>
      </trkpt>
      <trkpt lat="37.019658973440528" lon="-4.555178973823786">
        <ele>484.63999999999999</ele>
        <time>2025-05-10T09:14:29Z</time>
      </trkpt>
      <trkpt lat="37.019739020615816" lon="-4.555092975497246">
        <ele>485.12</ele>
        <time>2025-05-10T09:14:31Z</time>
      </trkpt>
      <trkpt lat="37.019779002293944" lon="-4.555048970505595">
        <ele>485.12</ele>
        <time>2025-05-10T09:14:32Z</time>
      </trkpt>
      <trkpt lat="37.019819989800453" lon="-4.555003959685564">
        <ele>485.12</ele>
        <time>2025-05-10T09:14:33Z</time>
      </trkpt>
      <trkpt lat="37.019890984520316" lon="-4.554911004379392">
        <ele>485.60000000000002</ele>
        <time>2025-05-10T09:14:35Z</time>
      </trkpt>
      <trkpt lat="37.019917974248528" lon="-4.554859036579728">
        <ele>485.60000000000002</ele>
        <time>2025-05-10T09:14:36Z</time>
      </trkpt>
      <trkpt lat="37.019946975633502" lon="-4.554805979132652">
        <ele>485.60000000000002</ele>
        <time>2025-05-10T09:14:37Z</time>
      </trkpt>
      <trkpt lat="37.019972959533334" lon="-4.554757028818131">
        <ele>486.07999999999998</ele>
        <time>2025-05-10T09:14:38Z</time>
      </trkpt>
      <trkpt lat="37.019995003938675" lon="-4.554716963320971">
        <ele>486.07999999999998</ele>
        <time>2025-05-10T09:14:39Z</time>
      </trkpt>
      <trkpt lat="37.020014030858874" lon="-4.554681004956365">
        <ele>486.07999999999998</ele>
        <time>2025-05-10T09:14:40Z</time>
      </trkpt>
      <trkpt lat="37.020028028637171" lon="-4.554655021056533">
        <ele>487.05000000000001</ele>
        <time>2025-05-10T09:14:41Z</time>
      </trkpt>
      <trkpt lat="37.020036997273564" lon="-4.554638005793095">
        <ele>487.52999999999997</ele>
        <time>2025-05-10T09:14:42Z</time>
      </trkpt>
      <trkpt lat="37.020042026415467" lon="-4.55462702549994">
        <ele>487.52999999999997</ele>
        <time>2025-05-10T09:14:43Z</time>
      </trkpt>
      <trkpt lat="37.020106986165047" lon="-4.55471302382648">
        <ele>488.00999999999999</ele>
        <time>2025-05-10T09:14:44Z</time>
      </trkpt>
      <trkpt lat="37.020106986165047" lon="-4.55471302382648">
        <ele>488.00999999999999</ele>
        <time>2025-05-10T09:14:45Z</time>
      </trkpt>
      <trkpt lat="37.020106986165047" lon="-4.55471302382648">
        <ele>487.52999999999997</ele>
        <time>2025-05-10T09:14:46Z</time>
      </trkpt>
      <trkpt lat="37.02015501447022" lon="-4.554788963869214">
        <ele>487.52999999999997</ele>
        <time>2025-05-10T09:14:47Z</time>
      </trkpt>
      <trkpt lat="37.020187033340335" lon="-4.554837998002768">
        <ele>487.52999999999997</ele>
        <time>2025-05-10T09:14:48Z</time>
      </trkpt>
      <trkpt lat="37.020217962563038" lon="-4.554886026307941">
        <ele>487.05000000000001</ele>
        <time>2025-05-10T09:14:49Z</time>
      </trkpt>
      <trkpt lat="37.020246963948011" lon="-4.554931959137321">
        <ele>486.56</ele>
        <time>2025-05-10T09:14:50Z</time>
      </trkpt>
      <trkpt lat="37.020275965332985" lon="-4.554976969957352">
        <ele>486.56</ele>
        <time>2025-05-10T09:14:51Z</time>
      </trkpt>
      <trkpt lat="37.020303960889578" lon="-4.555021980777383">
        <ele>486.56</ele>
        <time>2025-05-10T09:14:52Z</time>
      </trkpt>
      <trkpt lat="37.020332040265203" lon="-4.555064979940653">
        <ele>486.07999999999998</ele>
        <time>2025-05-10T09:14:53Z</time>
      </trkpt>
      <trkpt lat="37.020449973642826" lon="-4.555248962715268">
        <ele>485.60000000000002</ele>
        <time>2025-05-10T09:14:55Z</time>
      </trkpt>
      <trkpt lat="37.020412003621459" lon="-4.555189032107592">
        <ele>485.60000000000002</ele>
        <time>2025-05-10T09:14:56Z</time>
      </trkpt>
      <trkpt lat="37.020458020269871" lon="-4.555265977978706">
        <ele>485.12</ele>
        <time>2025-05-10T09:14:58Z</time>
      </trkpt>
      <trkpt lat="37.020482998341322" lon="-4.555317023769021">
        <ele>485.60000000000002</ele>
        <time>2025-05-10T09:14:59Z</time>
      </trkpt>
      <trkpt lat="37.020505964756012" lon="-4.555364968255162">
        <ele>485.60000000000002</ele>
        <time>2025-05-10T09:15:00Z</time>
      </trkpt>
      <trkpt lat="37.020528009161353" lon="-4.555409979075193">
        <ele>485.60000000000002</ele>
        <time>2025-05-10T09:15:01Z</time>
      </trkpt>
      <trkpt lat="37.020552987232804" lon="-4.555462030693889">
        <ele>485.60000000000002</ele>
        <time>2025-05-10T09:15:02Z</time>
      </trkpt>
      <trkpt lat="37.020576037466526" lon="-4.555510981008411">
        <ele>485.60000000000002</ele>
        <time>2025-05-10T09:15:03Z</time>
      </trkpt>
      <trkpt lat="37.020599003881216" lon="-4.555558003485203">
        <ele>485.60000000000002</ele>
        <time>2025-05-10T09:15:04Z</time>
      </trkpt>
      <trkpt lat="37.020625993609428" lon="-4.555613994598389">
        <ele>485.60000000000002</ele>
        <time>2025-05-10T09:15:05Z</time>
      </trkpt>
      <trkpt lat="37.020656000822783" lon="-4.555676020681858">
        <ele>485.60000000000002</ele>
        <time>2025-05-10T09:15:06Z</time>
      </trkpt>
      <trkpt lat="37.020685002207756" lon="-4.555736035108566">
        <ele>486.07999999999998</ele>
        <time>2025-05-10T09:15:07Z</time>
      </trkpt>
      <trkpt lat="37.020708974450827" lon="-4.555786997079849">
        <ele>486.07999999999998</ele>
        <time>2025-05-10T09:15:08Z</time>
      </trkpt>
      <trkpt lat="37.020733030512929" lon="-4.555835025385022">
        <ele>486.07999999999998</ele>
        <time>2025-05-10T09:15:09Z</time>
      </trkpt>
      <trkpt lat="37.020753985270858" lon="-4.55589503981173">
        <ele>486.07999999999998</ele>
        <time>2025-05-10T09:15:10Z</time>
      </trkpt>
      <trkpt lat="37.020764965564013" lon="-4.555958993732929">
        <ele>486.56</ele>
        <time>2025-05-10T09:15:11Z</time>
      </trkpt>
      <trkpt lat="37.020810982212424" lon="-4.556237021461129">
        <ele>486.56</ele>
        <time>2025-05-10T09:15:16Z</time>
      </trkpt>
      <trkpt lat="37.02082003466785" lon="-4.556288989260793">
        <ele>486.56</ele>
        <time>2025-05-10T09:15:17Z</time>
      </trkpt>
      <trkpt lat="37.020829003304243" lon="-4.556341040879488">
        <ele>487.05000000000001</ele>
        <time>2025-05-10T09:15:18Z</time>
      </trkpt>
      <trkpt lat="37.020837971940637" lon="-4.556395020335913">
        <ele>487.05000000000001</ele>
        <time>2025-05-10T09:15:19Z</time>
      </trkpt>
      <trkpt lat="37.020847024396062" lon="-4.556451011449099">
        <ele>486.56</ele>
        <time>2025-05-10T09:15:20Z</time>
      </trkpt>
      <trkpt lat="37.020856998860836" lon="-4.556513037532568">
        <ele>486.56</ele>
        <time>2025-05-10T09:15:21Z</time>
      </trkpt>
      <trkpt lat="37.02086697332561" lon="-4.556572968140245">
        <ele>486.56</ele>
        <time>2025-05-10T09:15:22Z</time>
      </trkpt>
      <trkpt lat="37.020877031609416" lon="-4.556629965081811">
        <ele>486.56</ele>
        <time>2025-05-10T09:15:23Z</time>
      </trkpt>
      <trkpt lat="37.020893963053823" lon="-4.556732978671789">
        <ele>486.56</ele>
        <time>2025-05-10T09:15:25Z</time>
      </trkpt>
      <trkpt lat="37.020901003852487" lon="-4.556772960349917">
        <ele>486.56</ele>
        <time>2025-05-10T09:15:26Z</time>
      </trkpt>
      <trkpt lat="37.020891029387712" lon="-4.55682098865509">
        <ele>486.56</ele>
        <time>2025-05-10T09:15:27Z</time>
      </trkpt>
      <trkpt lat="37.020921958610415" lon="-4.556944034993649">
        <ele>486.56</ele>
        <time>2025-05-10T09:15:28Z</time>
      </trkpt>
      <trkpt lat="37.020921958610415" lon="-4.556944034993649">
        <ele>486.56</ele>
        <time>2025-05-10T09:15:29Z</time>
      </trkpt>
      <trkpt lat="37.020944003015757" lon="-4.557107985019684">
        <ele>486.56</ele>
        <time>2025-05-10T09:15:32Z</time>
      </trkpt>
      <trkpt lat="37.02095196582377" lon="-4.557161964476109">
        <ele>486.56</ele>
        <time>2025-05-10T09:15:33Z</time>
      </trkpt>
      <trkpt lat="37.020959006622434" lon="-4.557216027751565">
        <ele>486.56</ele>
        <time>2025-05-10T09:15:34Z</time>
      </trkpt>
      <trkpt lat="37.020965041592717" lon="-4.557262966409326">
        <ele>486.56</ele>
        <time>2025-05-10T09:15:35Z</time>
      </trkpt>
      <trkpt lat="37.02097199857235" lon="-4.557310994714499">
        <ele>486.56</ele>
        <time>2025-05-10T09:15:36Z</time>
      </trkpt>
      <trkpt lat="37.020979039371014" lon="-4.557361034676433">
        <ele>486.56</ele>
        <time>2025-05-10T09:15:37Z</time>
      </trkpt>
      <trkpt lat="37.020987002179027" lon="-4.557416019961238">
        <ele>486.56</ele>
        <time>2025-05-10T09:15:38Z</time>
      </trkpt>
      <trkpt lat="37.021028995513916" lon="-4.557545017451048">
        <ele>487.05000000000001</ele>
        <time>2025-05-10T09:15:40Z</time>
      </trkpt>
      <trkpt lat="37.021028995513916" lon="-4.557545017451048">
        <ele>487.52999999999997</ele>
        <time>2025-05-10T09:15:41Z</time>
      </trkpt>
      <trkpt lat="37.021047016605735" lon="-4.557652976363897">
        <ele>488.00999999999999</ele>
        <time>2025-05-10T09:15:42Z</time>
      </trkpt>
      <trkpt lat="37.021068977192044" lon="-4.557782979682088">
        <ele>489.93000000000001</ele>
        <time>2025-05-10T09:15:44Z</time>
      </trkpt>
      <trkpt lat="37.021090015769005" lon="-4.557909965515137">
        <ele>491.85000000000002</ele>
        <time>2025-05-10T09:15:46Z</time>
      </trkpt>
      <trkpt lat="37.02110200189054" lon="-4.557966040447354">
        <ele>492.32999999999998</ele>
        <time>2025-05-10T09:15:47Z</time>
      </trkpt>
      <trkpt lat="37.021114993840456" lon="-4.558017002418637">
        <ele>492.32999999999998</ele>
        <time>2025-05-10T09:15:49Z</time>
      </trkpt>
      <trkpt lat="37.021137038245797" lon="-4.558133007958531">
        <ele>492.32999999999998</ele>
        <time>2025-05-10T09:15:50Z</time>
      </trkpt>
      <trkpt lat="37.021148018538952" lon="-4.558190004900098">
        <ele>492.32999999999998</ele>
        <time>2025-05-10T09:15:51Z</time>
      </trkpt>
      <trkpt lat="37.021158998832107" lon="-4.558244990184903">
        <ele>492.32999999999998</ele>
        <time>2025-05-10T09:15:52Z</time>
      </trkpt>
      <trkpt lat="37.021170984953642" lon="-4.558308022096753">
        <ele>492.32999999999998</ele>
        <time>2025-05-10T09:15:53Z</time>
      </trkpt>
      <trkpt lat="37.021181965246797" lon="-4.5583660248667">
        <ele>492.32999999999998</ele>
        <time>2025-05-10T09:15:54Z</time>
      </trkpt>
      <trkpt lat="37.021200992166996" lon="-4.558468032628298">
        <ele>492.32999999999998</ele>
        <time>2025-05-10T09:15:55Z</time>
      </trkpt>
      <trkpt lat="37.02120803296566" lon="-4.55849401652813">
        <ele>491.85000000000002</ele>
        <time>2025-05-10T09:15:56Z</time>
      </trkpt>
      <trkpt lat="37.021222030743957" lon="-4.558547995984554">
        <ele>491.85000000000002</ele>
        <time>2025-05-10T09:15:57Z</time>
      </trkpt>
      <trkpt lat="37.021236028522253" lon="-4.558600969612598">
        <ele>491.85000000000002</ele>
        <time>2025-05-10T09:15:58Z</time>
      </trkpt>
      <trkpt lat="37.021277016028762" lon="-4.558756034821272">
        <ele>491.85000000000002</ele>
        <time>2025-05-10T09:16:01Z</time>
      </trkpt>
      <trkpt lat="37.021291013807058" lon="-4.558810014277697">
        <ele>491.85000000000002</ele>
        <time>2025-05-10T09:16:02Z</time>
      </trkpt>
      <trkpt lat="37.021304005756974" lon="-4.55886097624898">
        <ele>491.85000000000002</ele>
        <time>2025-05-10T09:16:03Z</time>
      </trkpt>
      <trkpt lat="37.021372988820076" lon="-4.559069015085697">
        <ele>493.29000000000002</ele>
        <time>2025-05-10T09:16:06Z</time>
      </trkpt>
      <trkpt lat="37.021372988820076" lon="-4.559069015085697">
        <ele>493.76999999999998</ele>
        <time>2025-05-10T09:16:07Z</time>
      </trkpt>
      <trkpt lat="37.021378017961979" lon="-4.559099022299051">
        <ele>493.76999999999998</ele>
        <time>2025-05-10T09:16:08Z</time>
      </trkpt>
      <trkpt lat="37.021388998255134" lon="-4.559151995927095">
        <ele>494.25999999999999</ele>
        <time>2025-05-10T09:16:09Z</time>
      </trkpt>
      <trkpt lat="37.021398972719908" lon="-4.559206981211901">
        <ele>494.74000000000001</ele>
        <time>2025-05-10T09:16:10Z</time>
      </trkpt>
      <trkpt lat="37.021459992974997" lon="-4.559519039466977">
        <ele>495.69999999999999</ele>
        <time>2025-05-10T09:16:15Z</time>
      </trkpt>
      <trkpt lat="37.021482959389687" lon="-4.559519961476326">
        <ele>496.66000000000003</ele>
        <time>2025-05-10T09:16:16Z</time>
      </trkpt>
      <trkpt lat="37.021525958552957" lon="-4.55952599644661">
        <ele>497.13999999999999</ele>
        <time>2025-05-10T09:16:17Z</time>
      </trkpt>
      <trkpt lat="37.021568035706878" lon="-4.559532031416893">
        <ele>497.13999999999999</ele>
        <time>2025-05-10T09:16:18Z</time>
      </trkpt>
      <trkpt lat="37.021611034870148" lon="-4.559537982568145">
        <ele>497.13999999999999</ele>
        <time>2025-05-10T09:16:19Z</time>
      </trkpt>
      <trkpt lat="37.021655961871147" lon="-4.559544017538428">
        <ele>497.13999999999999</ele>
        <time>2025-05-10T09:16:20Z</time>
      </trkpt>
      <trkpt lat="37.02170399017632" lon="-4.559550974518061">
        <ele>497.13999999999999</ele>
        <time>2025-05-10T09:16:21Z</time>
      </trkpt>
      <trkpt lat="37.021753024309874" lon="-4.559558015316725">
        <ele>497.13999999999999</ele>
        <time>2025-05-10T09:16:22Z</time>
      </trkpt>
      <trkpt lat="37.021928038448095" lon="-4.559582993388176">
        <ele>497.62</ele>
        <time>2025-05-10T09:16:25Z</time>
      </trkpt>
      <trkpt lat="37.022117972373962" lon="-4.559609983116388">
        <ele>496.66000000000003</ele>
        <time>2025-05-10T09:16:33Z</time>
      </trkpt>
      <trkpt lat="37.022117972373962" lon="-4.559609983116388">
        <ele>496.66000000000003</ele>
        <time>2025-05-10T09:17:03Z</time>
      </trkpt>
      <trkpt lat="37.022243030369282" lon="-4.559629010036588">
        <ele>495.22000000000003</ele>
        <time>2025-05-10T09:17:32Z</time>
      </trkpt>
      <trkpt lat="37.022293992340565" lon="-4.559638984501362">
        <ele>494.74000000000001</ele>
        <time>2025-05-10T09:17:33Z</time>
      </trkpt>
      <trkpt lat="37.022463977336884" lon="-4.559648036956787">
        <ele>493.76999999999998</ele>
        <time>2025-05-10T09:17:36Z</time>
      </trkpt>
      <trkpt lat="37.022519968450069" lon="-4.559659017249942">
        <ele>493.29000000000002</ele>
        <time>2025-05-10T09:17:37Z</time>
      </trkpt>
      <trkpt lat="37.022576965391636" lon="-4.55967896617949">
        <ele>492.81</ele>
        <time>2025-05-10T09:17:38Z</time>
      </trkpt>
      <trkpt lat="37.022989019751549" lon="-4.559821961447597">
        <ele>490.88999999999999</ele>
        <time>2025-05-10T09:17:45Z</time>
      </trkpt>
      <trkpt lat="37.023075018078089" lon="-4.55985096283257">
        <ele>490.88999999999999</ele>
        <time>2025-05-10T09:17:47Z</time>
      </trkpt>
      <trkpt lat="37.023110976442695" lon="-4.559863032773137">
        <ele>490.88999999999999</ele>
        <time>2025-05-10T09:17:48Z</time>
      </trkpt>
      <trkpt lat="37.023175014182925" lon="-4.559820033609867">
        <ele>490.41000000000003</ele>
        <time>2025-05-10T09:17:49Z</time>
      </trkpt>
      <trkpt lat="37.023205021396279" lon="-4.559859009459615">
        <ele>489.93000000000001</ele>
        <time>2025-05-10T09:17:50Z</time>
      </trkpt>
      <trkpt lat="37.023236034438014" lon="-4.559899996966124">
        <ele>489.93000000000001</ele>
        <time>2025-05-10T09:17:51Z</time>
      </trkpt>
      <trkpt lat="37.023261012509465" lon="-4.560012985020876">
        <ele>489.93000000000001</ele>
        <time>2025-05-10T09:17:52Z</time>
      </trkpt>
      <trkpt lat="37.023308034986258" lon="-4.560090014711022">
        <ele>489.93000000000001</ele>
        <time>2025-05-10T09:17:54Z</time>
      </trkpt>
      <trkpt lat="37.023553038015962" lon="-4.560539033263922">
        <ele>488.00999999999999</ele>
        <time>2025-05-10T09:18:03Z</time>
      </trkpt>
      <trkpt lat="37.023578016087413" lon="-4.560583038255572">
        <ele>488.00999999999999</ele>
        <time>2025-05-10T09:18:04Z</time>
      </trkpt>
      <trkpt lat="37.023608023300767" lon="-4.560621008276939">
        <ele>488.00999999999999</ele>
        <time>2025-05-10T09:18:05Z</time>
      </trkpt>
      <trkpt lat="37.023639958351851" lon="-4.560657972469926">
        <ele>488.00999999999999</ele>
        <time>2025-05-10T09:18:06Z</time>
      </trkpt>
      <trkpt lat="37.023674994707108" lon="-4.560697032138705">
        <ele>488.00999999999999</ele>
        <time>2025-05-10T09:18:07Z</time>
      </trkpt>
      <trkpt lat="37.023711036890745" lon="-4.560739025473595">
        <ele>488.49000000000001</ele>
        <time>2025-05-10T09:18:08Z</time>
      </trkpt>
      <trkpt lat="37.023753030225635" lon="-4.560775989666581">
        <ele>488.49000000000001</ele>
        <time>2025-05-10T09:18:09Z</time>
      </trkpt>
      <trkpt lat="37.023804998025298" lon="-4.560809014365077">
        <ele>488.00999999999999</ele>
        <time>2025-05-10T09:18:10Z</time>
      </trkpt>
      <trkpt lat="37.023913962766528" lon="-4.560879003256559">
        <ele>488.00999999999999</ele>
        <time>2025-05-10T09:18:12Z</time>
      </trkpt>
      <trkpt lat="37.024042960256338" lon="-4.560957960784435">
        <ele>487.05000000000001</ele>
        <time>2025-05-10T09:18:14Z</time>
      </trkpt>
      <trkpt lat="37.024111021310091" lon="-4.560999032109976">
        <ele>486.56</ele>
        <time>2025-05-10T09:18:15Z</time>
      </trkpt>
      <trkpt lat="37.024180004373193" lon="-4.561041025444865">
        <ele>486.56</ele>
        <time>2025-05-10T09:18:16Z</time>
      </trkpt>
      <trkpt lat="37.024579988792539" lon="-4.561271024867892">
        <ele>483.19999999999999</ele>
        <time>2025-05-10T09:18:22Z</time>
      </trkpt>
      <trkpt lat="37.024866985157132" lon="-4.561448972672224">
        <ele>481.27999999999997</ele>
        <time>2025-05-10T09:18:27Z</time>
      </trkpt>
      <trkpt lat="37.024972010403872" lon="-4.5615020301193">
        <ele>480.31999999999999</ele>
        <time>2025-05-10T09:18:29Z</time>
      </trkpt>
      <trkpt lat="37.025094972923398" lon="-4.561571013182402">
        <ele>479.35000000000002</ele>
        <time>2025-05-10T09:18:31Z</time>
      </trkpt>
      <trkpt lat="37.025155993178487" lon="-4.561604959890246">
        <ele>479.35000000000002</ele>
        <time>2025-05-10T09:18:32Z</time>
      </trkpt>
      <trkpt lat="37.025260012596846" lon="-4.561678972095251">
        <ele>478.38999999999999</ele>
        <time>2025-05-10T09:18:34Z</time>
      </trkpt>
      <trkpt lat="37.026004996150732" lon="-4.562151962891221">
        <ele>475.50999999999999</ele>
        <time>2025-05-10T09:18:45Z</time>
      </trkpt>
      <trkpt lat="37.026748973876238" lon="-4.562807008624077">
        <ele>471.18000000000001</ele>
        <time>2025-05-10T09:18:56Z</time>
      </trkpt>
      <trkpt lat="37.026847964152694" lon="-4.56290197558701">
        <ele>470.22000000000003</ele>
        <time>2025-05-10T09:18:58Z</time>
      </trkpt>
      <trkpt lat="37.026978973299265" lon="-4.56302803941071">
        <ele>468.77999999999997</ele>
        <time>2025-05-10T09:19:01Z</time>
      </trkpt>
      <trkpt lat="37.027015015482903" lon="-4.563062991946936">
        <ele>468.30000000000001</ele>
        <time>2025-05-10T09:19:02Z</time>
      </trkpt>
      <trkpt lat="37.027045022696257" lon="-4.563091993331909">
        <ele>468.30000000000001</ele>
        <time>2025-05-10T09:19:03Z</time>
      </trkpt>
      <trkpt lat="37.027076035737991" lon="-4.563122000545263">
        <ele>467.81999999999999</ele>
        <time>2025-05-10T09:19:04Z</time>
      </trkpt>
      <trkpt lat="37.027105037122965" lon="-4.563149996101856">
        <ele>467.33999999999997</ele>
        <time>2025-05-10T09:19:05Z</time>
      </trkpt>
      <trkpt lat="37.027145018801093" lon="-4.563188971951604">
        <ele>466.86000000000001</ele>
        <time>2025-05-10T09:19:06Z</time>
      </trkpt>
      <trkpt lat="37.027167985215783" lon="-4.563205987215042">
        <ele>466.38</ele>
        <time>2025-05-10T09:19:07Z</time>
      </trkpt>
      <trkpt lat="37.027198998257518" lon="-4.563230965286493">
        <ele>465.89999999999998</ele>
        <time>2025-05-10T09:19:08Z</time>
      </trkpt>
      <trkpt lat="37.027227999642491" lon="-4.563253009691834">
        <ele>465.42000000000002</ele>
        <time>2025-05-10T09:19:09Z</time>
      </trkpt>
      <trkpt lat="37.02724602073431" lon="-4.563267007470131">
        <ele>465.42000000000002</ele>
        <time>2025-05-10T09:19:10Z</time>
      </trkpt>
      <trkpt lat="37.027261024340987" lon="-4.563278993591666">
        <ele>464.93000000000001</ele>
        <time>2025-05-10T09:19:11Z</time>
      </trkpt>
      <trkpt lat="37.027277033776045" lon="-4.563291985541582">
        <ele>464.44999999999999</ele>
        <time>2025-05-10T09:19:12Z</time>
      </trkpt>
      <trkpt lat="37.027292959392071" lon="-4.563303971663117">
        <ele>464.44999999999999</ele>
        <time>2025-05-10T09:19:13Z</time>
      </trkpt>
      <trkpt lat="37.027337970212102" lon="-4.563339008018374">
        <ele>464.93000000000001</ele>
        <time>2025-05-10T09:19:14Z</time>
      </trkpt>
      <trkpt lat="37.027337970212102" lon="-4.563339008018374">
        <ele>464.93000000000001</ele>
        <time>2025-05-10T09:19:29Z</time>
      </trkpt>
      <trkpt lat="37.027337970212102" lon="-4.563339008018374">
        <ele>465.42000000000002</ele>
        <time>2025-05-10T09:20:21Z</time>
      </trkpt>
      <trkpt lat="37.027337970212102" lon="-4.563339008018374">
        <ele>465.89999999999998</ele>
        <time>2025-05-10T09:21:17Z</time>
      </trkpt>
      <trkpt lat="37.027337970212102" lon="-4.563339008018374">
        <ele>466.86000000000001</ele>
        <time>2025-05-10T09:22:12Z</time>
      </trkpt>
      <trkpt lat="37.027337970212102" lon="-4.563339008018374">
        <ele>467.33999999999997</ele>
        <time>2025-05-10T09:22:55Z</time>
      </trkpt>
      <trkpt lat="37.027383986860514" lon="-4.563390975818038">
        <ele>468.30000000000001</ele>
        <time>2025-05-10T09:23:36Z</time>
      </trkpt>
      <trkpt lat="37.027450958266854" lon="-4.563468005508184">
        <ele>468.30000000000001</ele>
        <time>2025-05-10T09:23:39Z</time>
      </trkpt>
      <trkpt lat="37.027499992400408" lon="-4.563525002449751">
        <ele>468.30000000000001</ele>
        <time>2025-05-10T09:23:40Z</time>
      </trkpt>
      <trkpt lat="37.02789000235498" lon="-4.563934039324522">
        <ele>467.33999999999997</ele>
        <time>2025-05-10T09:23:46Z</time>
      </trkpt>
      <trkpt lat="37.027939036488533" lon="-4.564078962430358">
        <ele>466.86000000000001</ele>
        <time>2025-05-10T09:23:49Z</time>
      </trkpt>
      <trkpt lat="37.027939036488533" lon="-4.564180970191956">
        <ele>466.38</ele>
        <time>2025-05-10T09:23:50Z</time>
      </trkpt>
      <trkpt lat="37.027957979589701" lon="-4.565148996189237">
        <ele>465.89999999999998</ele>
        <time>2025-05-10T09:23:56Z</time>
      </trkpt>
      <trkpt lat="37.02797600068152" lon="-4.567049006000161">
        <ele>463.00999999999999</ele>
        <time>2025-05-10T09:24:04Z</time>
      </trkpt>
      <trkpt lat="37.028002990409732" lon="-4.570531016215682">
        <ele>458.20999999999998</ele>
        <time>2025-05-10T09:24:17Z</time>
      </trkpt>
      <trkpt lat="37.027865024283528" lon="-4.572708969935775">
        <ele>459.17000000000002</ele>
        <time>2025-05-10T09:24:26Z</time>
      </trkpt>
      <trkpt lat="37.027559000998735" lon="-4.574661031365395">
        <ele>458.69</ele>
        <time>2025-05-10T09:24:36Z</time>
      </trkpt>
      <trkpt lat="37.027420029044151" lon="-4.575342983007431">
        <ele>458.69</ele>
        <time>2025-05-10T09:24:41Z</time>
      </trkpt>
      <trkpt lat="37.027407037094235" lon="-4.575445996597409">
        <ele>459.17000000000002</ele>
        <time>2025-05-10T09:24:42Z</time>
      </trkpt>
      <trkpt lat="37.027416005730629" lon="-4.575552027672529">
        <ele>459.17000000000002</ele>
        <time>2025-05-10T09:24:43Z</time>
      </trkpt>
      <trkpt lat="37.027435032650828" lon="-4.575645988807082">
        <ele>459.17000000000002</ele>
        <time>2025-05-10T09:24:44Z</time>
      </trkpt>
      <trkpt lat="37.027425980195403" lon="-4.575746990740299">
        <ele>459.17000000000002</ele>
        <time>2025-05-10T09:24:45Z</time>
      </trkpt>
      <trkpt lat="37.027402007952332" lon="-4.575805999338627">
        <ele>459.17000000000002</ele>
        <time>2025-05-10T09:24:46Z</time>
      </trkpt>
      <trkpt lat="37.027333024889231" lon="-4.575846986845136">
        <ele>459.17000000000002</ele>
        <time>2025-05-10T09:24:47Z</time>
      </trkpt>
      <trkpt lat="37.027287008240819" lon="-4.575870037078857">
        <ele>459.17000000000002</ele>
        <time>2025-05-10T09:24:48Z</time>
      </trkpt>
      <trkpt lat="37.027231017127633" lon="-4.575870037078857">
        <ele>459.17000000000002</ele>
        <time>2025-05-10T09:24:49Z</time>
      </trkpt>
      <trkpt lat="37.027194974943995" lon="-4.575816979631782">
        <ele>459.17000000000002</ele>
        <time>2025-05-10T09:24:50Z</time>
      </trkpt>
      <trkpt lat="37.027172008529305" lon="-4.575757971033454">
        <ele>459.17000000000002</ele>
        <time>2025-05-10T09:24:51Z</time>
      </trkpt>
      <trkpt lat="37.027148036286235" lon="-4.57568496465683">
        <ele>459.17000000000002</ele>
        <time>2025-05-10T09:24:52Z</time>
      </trkpt>
      <trkpt lat="37.027123980224133" lon="-4.575611958280206">
        <ele>459.17000000000002</ele>
        <time>2025-05-10T09:24:53Z</time>
      </trkpt>
      <trkpt lat="37.027143007144332" lon="-4.575515985488892">
        <ele>459.17000000000002</ele>
        <time>2025-05-10T09:24:54Z</time>
      </trkpt>
      <trkpt lat="37.027252977713943" lon="-4.575438033789396">
        <ele>459.17000000000002</ele>
        <time>2025-05-10T09:24:55Z</time>
      </trkpt>
      <trkpt lat="37.0272880140692" lon="-4.575315993279219">
        <ele>458.69</ele>
        <time>2025-05-10T09:24:56Z</time>
      </trkpt>
      <trkpt lat="37.027323972433805" lon="-4.575188001617789">
        <ele>458.69</ele>
        <time>2025-05-10T09:24:57Z</time>
      </trkpt>
      <trkpt lat="37.027363032102585" lon="-4.575052969157696">
        <ele>458.69</ele>
        <time>2025-05-10T09:24:58Z</time>
      </trkpt>
      <trkpt lat="37.027666037902236" lon="-4.573504999279976">
        <ele>458.20999999999998</ele>
        <time>2025-05-10T09:25:07Z</time>
      </trkpt>
      <trkpt lat="37.027885979041457" lon="-4.570966036990285">
        <ele>457.72000000000003</ele>
        <time>2025-05-10T09:25:19Z</time>
      </trkpt>
      <trkpt lat="37.027907017618418" lon="-4.568665958940983">
        <ele>456.27999999999997</ele>
        <time>2025-05-10T09:25:29Z</time>
      </trkpt>
      <trkpt lat="37.027882039546967" lon="-4.566180976107717">
        <ele>458.20999999999998</ele>
        <time>2025-05-10T09:25:40Z</time>
      </trkpt>
      <trkpt lat="37.027855971828103" lon="-4.564783964306116">
        <ele>463.00999999999999</ele>
        <time>2025-05-10T09:25:48Z</time>
      </trkpt>
      <trkpt lat="37.027853038161993" lon="-4.564353972673416">
        <ele>465.89999999999998</ele>
        <time>2025-05-10T09:25:53Z</time>
      </trkpt>
      <trkpt lat="37.027853038161993" lon="-4.564299993216991">
        <ele>467.81999999999999</ele>
        <time>2025-05-10T09:26:03Z</time>
      </trkpt>
      <trkpt lat="37.027853038161993" lon="-4.564239978790283">
        <ele>467.81999999999999</ele>
        <time>2025-05-10T09:26:13Z</time>
      </trkpt>
      <trkpt lat="37.027853038161993" lon="-4.564251964911819">
        <ele>468.77999999999997</ele>
        <time>2025-05-10T09:26:14Z</time>
      </trkpt>
      <trkpt lat="37.027971977367997" lon="-4.564006961882114">
        <ele>470.69999999999999</ele>
        <time>2025-05-10T09:26:20Z</time>
      </trkpt>
      <trkpt lat="37.02799703925848" lon="-4.564025988802314">
        <ele>471.18000000000001</ele>
        <time>2025-05-10T09:26:21Z</time>
      </trkpt>
      <trkpt lat="37.028030985966325" lon="-4.564050966873765">
        <ele>471.18000000000001</ele>
        <time>2025-05-10T09:26:22Z</time>
      </trkpt>
      <trkpt lat="37.028070967644453" lon="-4.5640819799155">
        <ele>471.66000000000003</ele>
        <time>2025-05-10T09:26:23Z</time>
      </trkpt>
      <trkpt lat="37.028113966807723" lon="-4.564112992957234">
        <ele>471.66000000000003</ele>
        <time>2025-05-10T09:26:24Z</time>
      </trkpt>
      <trkpt lat="37.028439017012715" lon="-4.564207959920168">
        <ele>472.63</ele>
        <time>2025-05-10T09:26:31Z</time>
      </trkpt>
      <trkpt lat="37.028613025322556" lon="-4.564154986292124">
        <ele>473.11000000000001</ele>
        <time>2025-05-10T09:26:35Z</time>
      </trkpt>
      <trkpt lat="37.028662981465459" lon="-4.564116010442376">
        <ele>473.11000000000001</ele>
        <time>2025-05-10T09:26:36Z</time>
      </trkpt>
      <trkpt lat="37.028717966750264" lon="-4.564072005450726">
        <ele>472.63</ele>
        <time>2025-05-10T09:26:37Z</time>
      </trkpt>
      <trkpt lat="37.028777981176972" lon="-4.564019031822681">
        <ele>472.63</ele>
        <time>2025-05-10T09:26:38Z</time>
      </trkpt>
      <trkpt lat="37.028805976733565" lon="-4.563948959112167">
        <ele>472.13999999999999</ele>
        <time>2025-05-10T09:26:39Z</time>
      </trkpt>
      <trkpt lat="37.028871020302176" lon="-4.563788026571274">
        <ele>471.18000000000001</ele>
        <time>2025-05-10T09:26:41Z</time>
      </trkpt>
      <trkpt lat="37.028903961181641" lon="-4.563678978011012">
        <ele>470.69999999999999</ele>
        <time>2025-05-10T09:26:42Z</time>
      </trkpt>
      <trkpt lat="37.028903961181641" lon="-4.563545035198331">
        <ele>470.22000000000003</ele>
        <time>2025-05-10T09:26:43Z</time>
      </trkpt>
      <trkpt lat="37.028903961181641" lon="-4.561604959890246">
        <ele>463.00999999999999</ele>
        <time>2025-05-10T09:26:54Z</time>
      </trkpt>
      <trkpt lat="37.02892298810184" lon="-4.561448972672224">
        <ele>462.05000000000001</ele>
        <time>2025-05-10T09:26:55Z</time>
      </trkpt>
      <trkpt lat="37.028960036113858" lon="-4.561311006546021">
        <ele>461.56999999999999</ele>
        <time>2025-05-10T09:26:56Z</time>
      </trkpt>
      <trkpt lat="37.028999011963606" lon="-4.561172034591436">
        <ele>461.56999999999999</ele>
        <time>2025-05-10T09:26:57Z</time>
      </trkpt>
      <trkpt lat="37.029055003076792" lon="-4.561072960495949">
        <ele>461.08999999999997</ele>
        <time>2025-05-10T09:26:58Z</time>
      </trkpt>
      <trkpt lat="37.029135972261429" lon="-4.560969024896622">
        <ele>460.61000000000001</ele>
        <time>2025-05-10T09:26:59Z</time>
      </trkpt>
      <trkpt lat="37.029219958931208" lon="-4.560916973277926">
        <ele>460.13</ele>
        <time>2025-05-10T09:27:00Z</time>
      </trkpt>
      <trkpt lat="37.029336970299482" lon="-4.56088000908494">
        <ele>459.64999999999998</ele>
        <time>2025-05-10T09:27:01Z</time>
      </trkpt>
      <trkpt lat="37.029450964182615" lon="-4.560843966901302">
        <ele>458.69</ele>
        <time>2025-05-10T09:27:02Z</time>
      </trkpt>
      <trkpt lat="37.029569987207651" lon="-4.560807002708316">
        <ele>458.20999999999998</ele>
        <time>2025-05-10T09:27:03Z</time>
      </trkpt>
      <trkpt lat="37.029836028814316" lon="-4.560784958302975">
        <ele>455.80000000000001</ele>
        <time>2025-05-10T09:27:06Z</time>
      </trkpt>
      <trkpt lat="37.029918003827333" lon="-4.560784958302975">
        <ele>454.83999999999997</ele>
        <time>2025-05-10T09:27:07Z</time>
      </trkpt>
      <trkpt lat="37.030084971338511" lon="-4.560592006891966">
        <ele>453.39999999999998</ele>
        <time>2025-05-10T09:27:09Z</time>
      </trkpt>
      <trkpt lat="37.030154038220644" lon="-4.560578009113669">
        <ele>452.92000000000002</ele>
        <time>2025-05-10T09:27:10Z</time>
      </trkpt>
      <trkpt lat="37.030263002961874" lon="-4.560629976913333">
        <ele>452.44</ele>
        <time>2025-05-10T09:27:11Z</time>
      </trkpt>
      <trkpt lat="37.030321005731821" lon="-4.560678005218506">
        <ele>451.95999999999998</ele>
        <time>2025-05-10T09:27:12Z</time>
      </trkpt>
      <trkpt lat="37.03042795881629" lon="-4.560795016586781">
        <ele>451.48000000000002</ele>
        <time>2025-05-10T09:27:13Z</time>
      </trkpt>
      <trkpt lat="37.030531978234649" lon="-4.560805996879935">
        <ele>451</ele>
        <time>2025-05-10T09:27:14Z</time>
      </trkpt>
      <trkpt lat="37.030643038451672" lon="-4.560815971344709">
        <ele>450.51999999999998</ele>
        <time>2025-05-10T09:27:15Z</time>
      </trkpt>
      <trkpt lat="37.030761977657676" lon="-4.560826029628515">
        <ele>450.02999999999997</ele>
        <time>2025-05-10T09:27:16Z</time>
      </trkpt>
      <trkpt lat="37.032186985015869" lon="-4.560957038775086">
        <ele>443.31</ele>
        <time>2025-05-10T09:27:27Z</time>
      </trkpt>
      <trkpt lat="37.033925978466868" lon="-4.561106991022825">
        <ele>439.45999999999998</ele>
        <time>2025-05-10T09:27:40Z</time>
      </trkpt>
      <trkpt lat="37.035509990528226" lon="-4.561241017654538">
        <ele>435.61000000000001</ele>
        <time>2025-05-10T09:27:52Z</time>
      </trkpt>
      <trkpt lat="37.037081010639668" lon="-4.561360040679574">
        <ele>434.64999999999998</ele>
        <time>2025-05-10T09:28:03Z</time>
      </trkpt>
      <trkpt lat="37.038728976622224" lon="-4.561505969613791">
        <ele>434.17000000000002</ele>
        <time>2025-05-10T09:28:14Z</time>
      </trkpt>
      <trkpt lat="37.041127039119601" lon="-4.561709985136986">
        <ele>432.25</ele>
        <time>2025-05-10T09:28:28Z</time>
      </trkpt>
      <trkpt lat="37.04435097053647" lon="-4.561986001208425">
        <ele>431.76999999999998</ele>
        <time>2025-05-10T09:28:45Z</time>
      </trkpt>
      <trkpt lat="37.04720601439476" lon="-4.562246007844806">
        <ele>429.85000000000002</ele>
        <time>2025-05-10T09:29:00Z</time>
      </trkpt>
      <trkpt lat="37.049628971144557" lon="-4.562454968690872">
        <ele>426.95999999999998</ele>
        <time>2025-05-10T09:29:13Z</time>
      </trkpt>
      <trkpt lat="37.051977999508381" lon="-4.562640963122249">
        <ele>426.48000000000002</ele>
        <time>2025-05-10T09:29:26Z</time>
      </trkpt>
      <trkpt lat="37.052443027496338" lon="-4.562609028071165">
        <ele>425.51999999999998</ele>
        <time>2025-05-10T09:29:29Z</time>
      </trkpt>
      <trkpt lat="37.05257898196578" lon="-4.562568040564656">
        <ele>425.51999999999998</ele>
        <time>2025-05-10T09:29:30Z</time>
      </trkpt>
      <trkpt lat="37.054608995094895" lon="-4.56210401840508">
        <ele>427.44</ele>
        <time>2025-05-10T09:29:43Z</time>
      </trkpt>
      <trkpt lat="37.056264001876116" lon="-4.562348015606403">
        <ele>427.92000000000002</ele>
        <time>2025-05-10T09:29:52Z</time>
      </trkpt>
      <trkpt lat="37.0588309597224" lon="-4.562867023050785">
        <ele>426.48000000000002</ele>
        <time>2025-05-10T09:30:05Z</time>
      </trkpt>
      <trkpt lat="37.061149980872869" lon="-4.563339008018374">
        <ele>426</ele>
        <time>2025-05-10T09:30:16Z</time>
      </trkpt>
      <trkpt lat="37.062833989039063" lon="-4.563683001324534">
        <ele>426.95999999999998</ele>
        <time>2025-05-10T09:30:24Z</time>
      </trkpt>
      <trkpt lat="37.066232012584805" lon="-4.564377022907138">
        <ele>426.95999999999998</ele>
        <time>2025-05-10T09:30:41Z</time>
      </trkpt>
      <trkpt lat="37.068955041468143" lon="-4.564931988716126">
        <ele>426</ele>
        <time>2025-05-10T09:30:56Z</time>
      </trkpt>
      <trkpt lat="37.070469986647367" lon="-4.565248992294073">
        <ele>428.39999999999998</ele>
        <time>2025-05-10T09:31:06Z</time>
      </trkpt>
      <trkpt lat="37.070607030764222" lon="-4.565214039757848">
        <ele>428.88999999999999</ele>
        <time>2025-05-10T09:31:07Z</time>
      </trkpt>
      <trkpt lat="37.070737034082413" lon="-4.565181015059352">
        <ele>428.88999999999999</ele>
        <time>2025-05-10T09:31:08Z</time>
      </trkpt>
      <trkpt lat="37.070863014087081" lon="-4.565131980925798">
        <ele>429.37</ele>
        <time>2025-05-10T09:31:09Z</time>
      </trkpt>
      <trkpt lat="37.07099100574851" lon="-4.565055035054684">
        <ele>429.37</ele>
        <time>2025-05-10T09:31:11Z</time>
      </trkpt>
      <trkpt lat="37.071250006556511" lon="-4.564873985946178">
        <ele>429.37</ele>
        <time>2025-05-10T09:31:12Z</time>
      </trkpt>
      <trkpt lat="37.07137799821794" lon="-4.564765021204948">
        <ele>428.88999999999999</ele>
        <time>2025-05-10T09:31:13Z</time>
      </trkpt>
      <trkpt lat="37.071486040949821" lon="-4.564615990966559">
        <ele>428.39999999999998</ele>
        <time>2025-05-10T09:31:14Z</time>
      </trkpt>
      <trkpt lat="37.071587964892387" lon="-4.564451035112143">
        <ele>427.92000000000002</ele>
        <time>2025-05-10T09:31:15Z</time>
      </trkpt>
      <trkpt lat="37.07167798653245" lon="-4.564279038459063">
        <ele>426.95999999999998</ele>
        <time>2025-05-10T09:31:16Z</time>
      </trkpt>
      <trkpt lat="37.071777982637286" lon="-4.56408298574388">
        <ele>426.48000000000002</ele>
        <time>2025-05-10T09:31:17Z</time>
      </trkpt>
      <trkpt lat="37.071801032871008" lon="-4.563882993534207">
        <ele>426.48000000000002</ele>
        <time>2025-05-10T09:31:18Z</time>
      </trkpt>
      <trkpt lat="37.071825005114079" lon="-4.563678978011012">
        <ele>426</ele>
        <time>2025-05-10T09:31:19Z</time>
      </trkpt>
      <trkpt lat="37.07184998318553" lon="-4.563469011336565">
        <ele>426</ele>
        <time>2025-05-10T09:31:20Z</time>
      </trkpt>
      <trkpt lat="37.072195988148451" lon="-4.561141021549702">
        <ele>425.51999999999998</ele>
        <time>2025-05-10T09:31:30Z</time>
      </trkpt>
      <trkpt lat="37.072498993948102" lon="-4.558205008506775">
        <ele>427.92000000000002</ele>
        <time>2025-05-10T09:31:40Z</time>
      </trkpt>
      <trkpt lat="37.072872994467616" lon="-4.554201979190111">
        <ele>432.25</ele>
        <time>2025-05-10T09:31:53Z</time>
      </trkpt>
      <trkpt lat="37.072813985869288" lon="-4.551901984959841">
        <ele>433.69</ele>
        <time>2025-05-10T09:32:01Z</time>
      </trkpt>
      <trkpt lat="37.072403021156788" lon="-4.549121037125588">
        <ele>434.17000000000002</ele>
        <time>2025-05-10T09:32:11Z</time>
      </trkpt>
      <trkpt lat="37.071501966565847" lon="-4.545986037701368">
        <ele>436.57999999999998</ele>
        <time>2025-05-10T09:32:23Z</time>
      </trkpt>
      <trkpt lat="37.070574006065726" lon="-4.542623972520232">
        <ele>442.33999999999997</ele>
        <time>2025-05-10T09:32:36Z</time>
      </trkpt>
      <trkpt lat="37.070166980847716" lon="-4.539585029706359">
        <ele>449.55000000000001</ele>
        <time>2025-05-10T09:32:47Z</time>
      </trkpt>
      <trkpt lat="37.070189025253057" lon="-4.536796035245061">
        <ele>448.58999999999997</ele>
        <time>2025-05-10T09:32:57Z</time>
      </trkpt>
      <trkpt lat="37.070188019424677" lon="-4.534333012998104">
        <ele>444.75</ele>
        <time>2025-05-10T09:33:07Z</time>
      </trkpt>
      <trkpt lat="37.07013001665473" lon="-4.533444028347731">
        <ele>442.81999999999999</ele>
        <time>2025-05-10T09:33:12Z</time>
      </trkpt>
      <trkpt lat="37.069525010883808" lon="-4.531829003244638">
        <ele>442.81999999999999</ele>
        <time>2025-05-10T09:33:19Z</time>
      </trkpt>
      <trkpt lat="37.068198993802071" lon="-4.529072027653456">
        <ele>447.14999999999998</ele>
        <time>2025-05-10T09:33:32Z</time>
      </trkpt>
      <trkpt lat="37.068065972998738" lon="-4.528878992423415">
        <ele>447.14999999999998</ele>
        <time>2025-05-10T09:33:33Z</time>
      </trkpt>
      <trkpt lat="37.067905962467194" lon="-4.528709007427096">
        <ele>447.14999999999998</ele>
        <time>2025-05-10T09:33:34Z</time>
      </trkpt>
      <trkpt lat="37.067735977470875" lon="-4.528559977188706">
        <ele>447.14999999999998</ele>
        <time>2025-05-10T09:33:35Z</time>
      </trkpt>
      <trkpt lat="37.067560963332653" lon="-4.528421005234122">
        <ele>447.14999999999998</ele>
        <time>2025-05-10T09:33:36Z</time>
      </trkpt>
      <trkpt lat="37.067385027185082" lon="-4.528282033279538">
        <ele>447.14999999999998</ele>
        <time>2025-05-10T09:33:37Z</time>
      </trkpt>
      <trkpt lat="37.065250994637609" lon="-4.526576986536384">
        <ele>442.81999999999999</ele>
        <time>2025-05-10T09:33:49Z</time>
      </trkpt>
      <trkpt lat="37.063093995675445" lon="-4.52495601028204">
        <ele>441.86000000000001</ele>
        <time>2025-05-10T09:34:00Z</time>
      </trkpt>
      <trkpt lat="37.060536006465554" lon="-4.523243000730872">
        <ele>440.89999999999998</ele>
        <time>2025-05-10T09:34:12Z</time>
      </trkpt>
      <trkpt lat="37.058488978073001" lon="-4.521896028891206">
        <ele>441.38</ele>
        <time>2025-05-10T09:34:20Z</time>
      </trkpt>
      <trkpt lat="37.055608034133911" lon="-4.51984497718513">
        <ele>442.81999999999999</ele>
        <time>2025-05-10T09:34:32Z</time>
      </trkpt>
      <trkpt lat="37.053289012983441" lon="-4.518047980964184">
        <ele>445.70999999999998</ele>
        <time>2025-05-10T09:34:43Z</time>
      </trkpt>
      <trkpt lat="37.050757007673383" lon="-4.516005981713533">
        <ele>454.36000000000001</ele>
        <time>2025-05-10T09:34:55Z</time>
      </trkpt>
      <trkpt lat="37.048141015693545" lon="-4.513694001361728">
        <ele>467.81999999999999</ele>
        <time>2025-05-10T09:35:08Z</time>
      </trkpt>
      <trkpt lat="37.046542000025511" lon="-4.512208979576826">
        <ele>477.43000000000001</ele>
        <time>2025-05-10T09:35:17Z</time>
      </trkpt>
      <trkpt lat="37.045298041775823" lon="-4.51135603711009">
        <ele>483.19999999999999</ele>
        <time>2025-05-10T09:35:26Z</time>
      </trkpt>
      <trkpt lat="37.045098971575499" lon="-4.511258974671364">
        <ele>483.68000000000001</ele>
        <time>2025-05-10T09:35:28Z</time>
      </trkpt>
      <trkpt lat="37.045024959370494" lon="-4.511253023520112">
        <ele>483.68000000000001</ele>
        <time>2025-05-10T09:35:29Z</time>
      </trkpt>
      <trkpt lat="37.044961005449295" lon="-4.511246988549829">
        <ele>483.68000000000001</ele>
        <time>2025-05-10T09:35:30Z</time>
      </trkpt>
      <trkpt lat="37.044868972152472" lon="-4.511240031570196">
        <ele>483.68000000000001</ele>
        <time>2025-05-10T09:35:31Z</time>
      </trkpt>
      <trkpt lat="37.044835025444627" lon="-4.511286970227957">
        <ele>483.68000000000001</ele>
        <time>2025-05-10T09:35:32Z</time>
      </trkpt>
      <trkpt lat="37.044798983260989" lon="-4.511337010189891">
        <ele>484.16000000000003</ele>
        <time>2025-05-10T09:35:33Z</time>
      </trkpt>
      <trkpt lat="37.044802000746131" lon="-4.511471036821604">
        <ele>484.16000000000003</ele>
        <time>2025-05-10T09:35:34Z</time>
      </trkpt>
      <trkpt lat="37.044836031273007" lon="-4.511538008227944">
        <ele>484.16000000000003</ele>
        <time>2025-05-10T09:35:35Z</time>
      </trkpt>
      <trkpt lat="37.044892022386193" lon="-4.511598022654653">
        <ele>483.68000000000001</ele>
        <time>2025-05-10T09:35:36Z</time>
      </trkpt>
      <trkpt lat="37.044969974085689" lon="-4.511662982404232">
        <ele>483.19999999999999</ele>
        <time>2025-05-10T09:35:37Z</time>
      </trkpt>
      <trkpt lat="37.045059995725751" lon="-4.511736994609237">
        <ele>482.24000000000001</ele>
        <time>2025-05-10T09:35:38Z</time>
      </trkpt>
      <trkpt lat="37.045155968517065" lon="-4.511816035956144">
        <ele>481.75999999999999</ele>
        <time>2025-05-10T09:35:39Z</time>
      </trkpt>
      <trkpt lat="37.046251986175776" lon="-4.512718012556434">
        <ele>477.43000000000001</ele>
        <time>2025-05-10T09:35:48Z</time>
      </trkpt>
      <trkpt lat="37.048018975183368" lon="-4.514137990772724">
        <ele>472.63</ele>
        <time>2025-05-10T09:36:00Z</time>
      </trkpt>
      <trkpt lat="37.049816977232695" lon="-4.515574984252453">
        <ele>462.05000000000001</ele>
        <time>2025-05-10T09:36:11Z</time>
      </trkpt>
      <trkpt lat="37.052027033641934" lon="-4.517316995188594">
        <ele>454.83999999999997</ele>
        <time>2025-05-10T09:36:24Z</time>
      </trkpt>
      <trkpt lat="37.053968030959368" lon="-4.518849039450288">
        <ele>449.55000000000001</ele>
        <time>2025-05-10T09:36:35Z</time>
      </trkpt>
      <trkpt lat="37.056172974407673" lon="-4.520612005144358">
        <ele>444.75</ele>
        <time>2025-05-10T09:36:48Z</time>
      </trkpt>
      <trkpt lat="37.058546980842948" lon="-4.522510003298521">
        <ele>441.38</ele>
        <time>2025-05-10T09:37:02Z</time>
      </trkpt>
      <trkpt lat="37.0609359908849" lon="-4.524421999230981">
        <ele>442.33999999999997</ele>
        <time>2025-05-10T09:37:16Z</time>
      </trkpt>
      <trkpt lat="37.062616981565952" lon="-4.525780035182834">
        <ele>444.75</ele>
        <time>2025-05-10T09:37:26Z</time>
      </trkpt>
      <trkpt lat="37.063467996194959" lon="-4.526101984083653">
        <ele>445.70999999999998</ele>
        <time>2025-05-10T09:37:31Z</time>
      </trkpt>
      <trkpt lat="37.063610991463065" lon="-4.526201980188489">
        <ele>445.70999999999998</ele>
        <time>2025-05-10T09:37:32Z</time>
      </trkpt>
      <trkpt lat="37.063754992559552" lon="-4.526315974071622">
        <ele>445.70999999999998</ele>
        <time>2025-05-10T09:37:33Z</time>
      </trkpt>
      <trkpt lat="37.065077992156148" lon="-4.527351977303624">
        <ele>443.79000000000002</ele>
        <time>2025-05-10T09:37:41Z</time>
      </trkpt>
      <trkpt lat="37.066713972017169" lon="-4.528350010514259">
        <ele>444.26999999999998</ele>
        <time>2025-05-10T09:37:50Z</time>
      </trkpt>
      <trkpt lat="37.067705970257521" lon="-4.528948981314898">
        <ele>445.70999999999998</ele>
        <time>2025-05-10T09:37:56Z</time>
      </trkpt>
      <trkpt lat="37.067845026031137" lon="-4.529098011553288">
        <ele>445.70999999999998</ele>
        <time>2025-05-10T09:37:57Z</time>
      </trkpt>
      <trkpt lat="37.067978968843818" lon="-4.529243018478155">
        <ele>446.19</ele>
        <time>2025-05-10T09:37:58Z</time>
      </trkpt>
      <trkpt lat="37.068107966333628" lon="-4.529431024566293">
        <ele>446.19</ele>
        <time>2025-05-10T09:37:59Z</time>
      </trkpt>
      <trkpt lat="37.068232018500566" lon="-4.52962095849216">
        <ele>446.19</ele>
        <time>2025-05-10T09:38:00Z</time>
      </trkpt>
      <trkpt lat="37.068338971585035" lon="-4.529837965965271">
        <ele>446.19</ele>
        <time>2025-05-10T09:38:01Z</time>
      </trkpt>
      <trkpt lat="37.068446008488536" lon="-4.530054973438382">
        <ele>446.19</ele>
        <time>2025-05-10T09:38:02Z</time>
      </trkpt>
      <trkpt lat="37.06978602334857" lon="-4.532813038676977">
        <ele>444.75</ele>
        <time>2025-05-10T09:38:15Z</time>
      </trkpt>
      <trkpt lat="37.070018034428358" lon="-4.533673021942377">
        <ele>444.26999999999998</ele>
        <time>2025-05-10T09:38:19Z</time>
      </trkpt>
      <trkpt lat="37.070060027763247" lon="-4.533920036628842">
        <ele>444.26999999999998</ele>
        <time>2025-05-10T09:38:20Z</time>
      </trkpt>
      <trkpt lat="37.070075031369925" lon="-4.535462977364659">
        <ele>445.23000000000002</ele>
        <time>2025-05-10T09:38:28Z</time>
      </trkpt>
      <trkpt lat="37.070050975307822" lon="-4.536701990291476">
        <ele>445.70999999999998</ele>
        <time>2025-05-10T09:38:36Z</time>
      </trkpt>
      <trkpt lat="37.069973023608327" lon="-4.538023984059691">
        <ele>448.11000000000001</ele>
        <time>2025-05-10T09:38:46Z</time>
      </trkpt>
      <trkpt lat="37.069914015009999" lon="-4.538705013692379">
        <ele>450.02999999999997</ele>
        <time>2025-05-10T09:38:51Z</time>
      </trkpt>
      <trkpt lat="37.06993798725307" lon="-4.53900701366365">
        <ele>450.51999999999998</ele>
        <time>2025-05-10T09:38:53Z</time>
      </trkpt>
      <trkpt lat="37.070107972249389" lon="-4.540535034611821">
        <ele>448.58999999999997</ele>
        <time>2025-05-10T09:39:01Z</time>
      </trkpt>
      <trkpt lat="37.070504017174244" lon="-4.543385971337557">
        <ele>442.33999999999997</ele>
        <time>2025-05-10T09:39:13Z</time>
      </trkpt>
      <trkpt lat="37.071190997958183" lon="-4.545479016378522">
        <ele>439.45999999999998</ele>
        <time>2025-05-10T09:39:22Z</time>
      </trkpt>
      <trkpt lat="37.072192970663309" lon="-4.548791041597724">
        <ele>436.10000000000002</ele>
        <time>2025-05-10T09:39:36Z</time>
      </trkpt>
      <trkpt lat="37.072521960362792" lon="-4.550898000597954">
        <ele>436.10000000000002</ele>
        <time>2025-05-10T09:39:45Z</time>
      </trkpt>
      <trkpt lat="37.072570994496346" lon="-4.551881030201912">
        <ele>438.5</ele>
        <time>2025-05-10T09:39:51Z</time>
      </trkpt>
      <trkpt lat="37.072570994496346" lon="-4.552400037646294">
        <ele>440.42000000000002</ele>
        <time>2025-05-10T09:39:56Z</time>
      </trkpt>
      <trkpt lat="37.072570994496346" lon="-4.552474971860647">
        <ele>440.42000000000002</ele>
        <time>2025-05-10T09:39:57Z</time>
      </trkpt>
      <trkpt lat="37.072636960074306" lon="-4.552541021257639">
        <ele>440.89999999999998</ele>
        <time>2025-05-10T09:39:58Z</time>
      </trkpt>
      <trkpt lat="37.072683982551098" lon="-4.552538003772497">
        <ele>441.38</ele>
        <time>2025-05-10T09:39:59Z</time>
      </trkpt>
      <trkpt lat="37.072745002806187" lon="-4.552532974630594">
        <ele>441.86000000000001</ele>
        <time>2025-05-10T09:40:00Z</time>
      </trkpt>
      <trkpt lat="37.072811974212527" lon="-4.552528029307723">
        <ele>442.33999999999997</ele>
        <time>2025-05-10T09:40:01Z</time>
      </trkpt>
      <trkpt lat="37.07288196310401" lon="-4.55252199433744">
        <ele>442.33999999999997</ele>
        <time>2025-05-10T09:40:02Z</time>
      </trkpt>
      <trkpt lat="37.073039961978793" lon="-4.552498022094369">
        <ele>441.86000000000001</ele>
        <time>2025-05-10T09:40:04Z</time>
      </trkpt>
      <trkpt lat="37.073123026639223" lon="-4.552489975467324">
        <ele>441.86000000000001</ele>
        <time>2025-05-10T09:40:05Z</time>
      </trkpt>
      <trkpt lat="37.073195027187467" lon="-4.552482012659311">
        <ele>441.38</ele>
        <time>2025-05-10T09:40:06Z</time>
      </trkpt>
      <trkpt lat="37.073254035785794" lon="-4.552475977689028">
        <ele>440.89999999999998</ele>
        <time>2025-05-10T09:40:07Z</time>
      </trkpt>
      <trkpt lat="37.073304997757077" lon="-4.552471032366157">
        <ele>440.42000000000002</ele>
        <time>2025-05-10T09:40:08Z</time>
      </trkpt>
      <trkpt lat="37.073405999690294" lon="-4.552386961877346">
        <ele>439.94</ele>
        <time>2025-05-10T09:40:09Z</time>
      </trkpt>
      <trkpt lat="37.073403988033533" lon="-4.552337005734444">
        <ele>439.45999999999998</ele>
        <time>2025-05-10T09:40:10Z</time>
      </trkpt>
      <trkpt lat="37.073401976376772" lon="-4.552276991307735">
        <ele>438.98000000000002</ele>
        <time>2025-05-10T09:40:11Z</time>
      </trkpt>
      <trkpt lat="37.073399964720011" lon="-4.552202979102731">
        <ele>438.98000000000002</ele>
        <time>2025-05-10T09:40:12Z</time>
      </trkpt>
      <trkpt lat="37.073398036882281" lon="-4.55211597494781">
        <ele>438.5</ele>
        <time>2025-05-10T09:40:13Z</time>
      </trkpt>
      <trkpt lat="37.073394013568759" lon="-4.552010027691722">
        <ele>438.01999999999998</ele>
        <time>2025-05-10T09:40:14Z</time>
      </trkpt>
      <trkpt lat="37.073390996083617" lon="-4.551888993009925">
        <ele>437.54000000000002</ele>
        <time>2025-05-10T09:40:15Z</time>
      </trkpt>
      <trkpt lat="37.07339895889163" lon="-4.551633009687066">
        <ele>436.10000000000002</ele>
        <time>2025-05-10T09:40:17Z</time>
      </trkpt>
      <trkpt lat="37.07341798581183" lon="-4.551492026075721">
        <ele>435.61000000000001</ele>
        <time>2025-05-10T09:40:18Z</time>
      </trkpt>
      <trkpt lat="37.073451010510325" lon="-4.551351964473724">
        <ele>434.64999999999998</ele>
        <time>2025-05-10T09:40:19Z</time>
      </trkpt>
      <trkpt lat="37.073508007451892" lon="-4.551204023882747">
        <ele>434.17000000000002</ele>
        <time>2025-05-10T09:40:20Z</time>
      </trkpt>
      <trkpt lat="37.073584031313658" lon="-4.55106396228075">
        <ele>433.20999999999998</ele>
        <time>2025-05-10T09:40:21Z</time>
      </trkpt>
      <trkpt lat="37.073674974963069" lon="-4.550938988104463">
        <ele>432.73000000000002</ele>
        <time>2025-05-10T09:40:22Z</time>
      </trkpt>
      <trkpt lat="37.073797015473247" lon="-4.550839997828007">
        <ele>432.73000000000002</ele>
        <time>2025-05-10T09:40:23Z</time>
      </trkpt>
      <trkpt lat="37.073924001306295" lon="-4.550763973966241">
        <ele>432.25</ele>
        <time>2025-05-10T09:40:24Z</time>
      </trkpt>
      <trkpt lat="37.07406397908926" lon="-4.550686022266746">
        <ele>431.76999999999998</ele>
        <time>2025-05-10T09:40:25Z</time>
      </trkpt>
      <trkpt lat="37.075539026409388" lon="-4.550071964040399">
        <ele>434.17000000000002</ele>
        <time>2025-05-10T09:40:34Z</time>
      </trkpt>
      <trkpt lat="37.077915966510773" lon="-4.548722980543971">
        <ele>437.54000000000002</ele>
        <time>2025-05-10T09:40:47Z</time>
      </trkpt>
      <trkpt lat="37.079684967175126" lon="-4.547766018658876">
        <ele>437.54000000000002</ele>
        <time>2025-05-10T09:40:57Z</time>
      </trkpt>
      <trkpt lat="37.082031983882189" lon="-4.54661400988698">
        <ele>441.86000000000001</ele>
        <time>2025-05-10T09:41:10Z</time>
      </trkpt>
      <trkpt lat="37.083806013688445" lon="-4.545724019408226">
        <ele>445.70999999999998</ele>
        <time>2025-05-10T09:41:20Z</time>
      </trkpt>
      <trkpt lat="37.086505992338061" lon="-4.544376041740179">
        <ele>451.95999999999998</ele>
        <time>2025-05-10T09:41:35Z</time>
      </trkpt>
      <trkpt lat="37.088742032647133" lon="-4.543449003249407">
        <ele>453.39999999999998</ele>
        <time>2025-05-10T09:41:47Z</time>
      </trkpt>
      <trkpt lat="37.090511033311486" lon="-4.542714999988675">
        <ele>451.95999999999998</ele>
        <time>2025-05-10T09:41:56Z</time>
      </trkpt>
      <trkpt lat="37.092436021193862" lon="-4.541670028120279">
        <ele>456.27999999999997</ele>
        <time>2025-05-10T09:42:06Z</time>
      </trkpt>
      <trkpt lat="37.094811033457518" lon="-4.539975039660931">
        <ele>462.05000000000001</ele>
        <time>2025-05-10T09:42:19Z</time>
      </trkpt>
      <trkpt lat="37.097082026302814" lon="-4.538326989859343">
        <ele>470.69999999999999</ele>
        <time>2025-05-10T09:42:32Z</time>
      </trkpt>
      <trkpt lat="37.099233996123075" lon="-4.536349028348923">
        <ele>478.87</ele>
        <time>2025-05-10T09:42:45Z</time>
      </trkpt>
      <trkpt lat="37.100023990496993" lon="-4.535623993724585">
        <ele>481.75999999999999</ele>
        <time>2025-05-10T09:42:50Z</time>
      </trkpt>
      <trkpt lat="37.100152987986803" lon="-4.535439005121589">
        <ele>482.72000000000003</ele>
        <time>2025-05-10T09:42:51Z</time>
      </trkpt>
      <trkpt lat="37.100260024890304" lon="-4.535243958234787">
        <ele>483.19999999999999</ele>
        <time>2025-05-10T09:42:52Z</time>
      </trkpt>
      <trkpt lat="37.100358009338379" lon="-4.535025022923946">
        <ele>484.16000000000003</ele>
        <time>2025-05-10T09:42:53Z</time>
      </trkpt>
      <trkpt lat="37.100439984351397" lon="-4.534799968823791">
        <ele>485.12</ele>
        <time>2025-05-10T09:42:54Z</time>
      </trkpt>
      <trkpt lat="37.101458972319961" lon="-4.531994964927435">
        <ele>493.76999999999998</ele>
        <time>2025-05-10T09:43:06Z</time>
      </trkpt>
      <trkpt lat="37.10251098498702" lon="-4.529099017381668">
        <ele>510.12</ele>
        <time>2025-05-10T09:43:19Z</time>
      </trkpt>
      <trkpt lat="37.103466019034386" lon="-4.52630901709199">
        <ele>528.38</ele>
        <time>2025-05-10T09:43:31Z</time>
      </trkpt>
      <trkpt lat="37.10377698764205" lon="-4.524958021938801">
        <ele>537.50999999999999</ele>
        <time>2025-05-10T09:43:38Z</time>
      </trkpt>
      <trkpt lat="37.103999024257064" lon="-4.523972980678082">
        <ele>546.16999999999996</ele>
        <time>2025-05-10T09:43:45Z</time>
      </trkpt>
      <trkpt lat="37.104040011763573" lon="-4.523834008723497">
        <ele>547.61000000000001</ele>
        <time>2025-05-10T09:43:46Z</time>
      </trkpt>
      <trkpt lat="37.104091979563236" lon="-4.523702999576926">
        <ele>548.57000000000005</ele>
        <time>2025-05-10T09:43:47Z</time>
      </trkpt>
      <trkpt lat="37.104183007031679" lon="-4.523596968501806">
        <ele>549.52999999999997</ele>
        <time>2025-05-10T09:43:48Z</time>
      </trkpt>
      <trkpt lat="37.104276968166232" lon="-4.523486997932196">
        <ele>550.49000000000001</ele>
        <time>2025-05-10T09:43:49Z</time>
      </trkpt>
      <trkpt lat="37.104375036433339" lon="-4.523371998220682">
        <ele>551.45000000000005</ele>
        <time>2025-05-10T09:43:50Z</time>
      </trkpt>
      <trkpt lat="37.104475032538176" lon="-4.523255992680788">
        <ele>552.89999999999998</ele>
        <time>2025-05-10T09:43:51Z</time>
      </trkpt>
      <trkpt lat="37.104676030576229" lon="-4.523020964115858">
        <ele>554.34000000000003</ele>
        <time>2025-05-10T09:43:53Z</time>
      </trkpt>
      <trkpt lat="37.104776026681066" lon="-4.522904958575964">
        <ele>555.29999999999995</ele>
        <time>2025-05-10T09:43:54Z</time>
      </trkpt>
      <trkpt lat="37.104859007522464" lon="-4.522773027420044">
        <ele>556.25999999999999</ele>
        <time>2025-05-10T09:43:55Z</time>
      </trkpt>
      <trkpt lat="37.104906029999256" lon="-4.522616034373641">
        <ele>556.74000000000001</ele>
        <time>2025-05-10T09:43:56Z</time>
      </trkpt>
      <trkpt lat="37.104951962828636" lon="-4.522459963336587">
        <ele>557.22000000000003</ele>
        <time>2025-05-10T09:43:57Z</time>
      </trkpt>
      <trkpt lat="37.104994039982557" lon="-4.5223159622401">
        <ele>558.17999999999995</ele>
        <time>2025-05-10T09:43:58Z</time>
      </trkpt>
      <trkpt lat="37.10523602552712" lon="-4.521401999518275">
        <ele>561.54999999999995</ele>
        <time>2025-05-10T09:44:06Z</time>
      </trkpt>
      <trkpt lat="37.105265026912093" lon="-4.521300997585058">
        <ele>562.02999999999997</ele>
        <time>2025-05-10T09:44:07Z</time>
      </trkpt>
      <trkpt lat="37.10534499026835" lon="-4.521048031747341">
        <ele>562.50999999999999</ele>
        <time>2025-05-10T09:44:10Z</time>
      </trkpt>
      <trkpt lat="37.10536896251142" lon="-4.520973013713956">
        <ele>562.50999999999999</ele>
        <time>2025-05-10T09:44:11Z</time>
      </trkpt>
      <trkpt lat="37.105544982478023" lon="-4.520418969914317">
        <ele>563.47000000000003</ele>
        <time>2025-05-10T09:44:18Z</time>
      </trkpt>
      <trkpt lat="37.105573983862996" lon="-4.520327020436525">
        <ele>564.42999999999995</ele>
        <time>2025-05-10T09:44:19Z</time>
      </trkpt>
      <trkpt lat="37.105926023796201" lon="-4.519214993342757">
        <ele>567.32000000000005</ele>
        <time>2025-05-10T09:44:32Z</time>
      </trkpt>
      <trkpt lat="37.105956031009555" lon="-4.519121032208204">
        <ele>567.32000000000005</ele>
        <time>2025-05-10T09:44:33Z</time>
      </trkpt>
      <trkpt lat="37.106100032106042" lon="-4.518521977588534">
        <ele>565.38999999999999</ele>
        <time>2025-05-10T09:44:39Z</time>
      </trkpt>
      <trkpt lat="37.106106989085674" lon="-4.518420975655317">
        <ele>564.90999999999997</ele>
        <time>2025-05-10T09:44:40Z</time>
      </trkpt>
      <trkpt lat="37.106178989633918" lon="-4.517365023493767">
        <ele>559.13999999999999</ele>
        <time>2025-05-10T09:44:51Z</time>
      </trkpt>
      <trkpt lat="37.106210002675653" lon="-4.516913993284106">
        <ele>558.17999999999995</ele>
        <time>2025-05-10T09:44:55Z</time>
      </trkpt>
      <trkpt lat="37.106249984353781" lon="-4.516693968325853">
        <ele>557.70000000000005</ele>
        <time>2025-05-10T09:44:57Z</time>
      </trkpt>
      <trkpt lat="37.106275968253613" lon="-4.516595983877778">
        <ele>557.22000000000003</ele>
        <time>2025-05-10T09:44:58Z</time>
      </trkpt>
      <trkpt lat="37.106300024315715" lon="-4.516506968066096">
        <ele>556.74000000000001</ele>
        <time>2025-05-10T09:44:59Z</time>
      </trkpt>
      <trkpt lat="37.106735967099667" lon="-4.515420002862811">
        <ele>552.89999999999998</ele>
        <time>2025-05-10T09:45:12Z</time>
      </trkpt>
      <trkpt lat="37.107242988422513" lon="-4.514605030417442">
        <ele>547.13</ele>
        <time>2025-05-10T09:45:22Z</time>
      </trkpt>
      <trkpt lat="37.107395958155394" lon="-4.514390034601092">
        <ele>546.16999999999996</ele>
        <time>2025-05-10T09:45:25Z</time>
      </trkpt>
      <trkpt lat="37.107448009774089" lon="-4.514318034052849">
        <ele>545.69000000000005</ele>
        <time>2025-05-10T09:45:26Z</time>
      </trkpt>
      <trkpt lat="37.107937010005116" lon="-4.513585958629847">
        <ele>541.36000000000001</ele>
        <time>2025-05-10T09:45:36Z</time>
      </trkpt>
      <trkpt lat="37.108340011909604" lon="-4.512996962293983">
        <ele>538.48000000000002</ele>
        <time>2025-05-10T09:45:44Z</time>
      </trkpt>
      <trkpt lat="37.108632037416101" lon="-4.512662021443248">
        <ele>537.02999999999997</ele>
        <time>2025-05-10T09:45:49Z</time>
      </trkpt>
      <trkpt lat="37.108685011044145" lon="-4.512601001188159">
        <ele>536.07000000000005</ele>
        <time>2025-05-10T09:45:50Z</time>
      </trkpt>
      <trkpt lat="37.108737984672189" lon="-4.51253998093307">
        <ele>535.59000000000003</ele>
        <time>2025-05-10T09:45:51Z</time>
      </trkpt>
      <trkpt lat="37.10889196023345" lon="-4.512363038957119">
        <ele>534.14999999999998</ele>
        <time>2025-05-10T09:45:54Z</time>
      </trkpt>
      <trkpt lat="37.108922973275185" lon="-4.512293972074986">
        <ele>533.66999999999996</ele>
        <time>2025-05-10T09:45:55Z</time>
      </trkpt>
      <trkpt lat="37.108947029337287" lon="-4.512234041467309">
        <ele>533.66999999999996</ele>
        <time>2025-05-10T09:45:56Z</time>
      </trkpt>
      <trkpt lat="37.108969995751977" lon="-4.512176960706711">
        <ele>533.19000000000005</ele>
        <time>2025-05-10T09:45:57Z</time>
      </trkpt>
      <trkpt lat="37.108992040157318" lon="-4.512121975421906">
        <ele>532.71000000000004</ele>
        <time>2025-05-10T09:45:58Z</time>
      </trkpt>
      <trkpt lat="37.109011989086866" lon="-4.512072019279003">
        <ele>532.23000000000002</ele>
        <time>2025-05-10T09:45:59Z</time>
      </trkpt>
      <trkpt lat="37.109026992693543" lon="-4.512033965438604">
        <ele>532.23000000000002</ele>
        <time>2025-05-10T09:46:00Z</time>
      </trkpt>
      <trkpt lat="37.109015006572008" lon="-4.51198099181056">
        <ele>531.75</ele>
        <time>2025-05-10T09:46:01Z</time>
      </trkpt>
      <trkpt lat="37.109000002965331" lon="-4.511917037889361">
        <ele>531.26999999999998</ele>
        <time>2025-05-10T09:46:02Z</time>
      </trkpt>
      <trkpt lat="37.108984999358654" lon="-4.511854005977511">
        <ele>531.26999999999998</ele>
        <time>2025-05-10T09:46:03Z</time>
      </trkpt>
      <trkpt lat="37.108973013237119" lon="-4.511802038177848">
        <ele>530.78999999999996</ele>
        <time>2025-05-10T09:46:04Z</time>
      </trkpt>
      <trkpt lat="37.108942000195384" lon="-4.511669017374516">
        <ele>530.29999999999995</ele>
        <time>2025-05-10T09:46:10Z</time>
      </trkpt>
      <trkpt lat="37.108972007408738" lon="-4.51165996491909">
        <ele>529.82000000000005</ele>
        <time>2025-05-10T09:46:11Z</time>
      </trkpt>
      <trkpt lat="37.109014000743628" lon="-4.511647978797555">
        <ele>529.34000000000003</ele>
        <time>2025-05-10T09:46:12Z</time>
      </trkpt>
      <trkpt lat="37.109092036262155" lon="-4.511626018211246">
        <ele>529.34000000000003</ele>
        <time>2025-05-10T09:46:13Z</time>
      </trkpt>
      <trkpt lat="37.109146015718579" lon="-4.51163599267602">
        <ele>528.86000000000001</ele>
        <time>2025-05-10T09:46:14Z</time>
      </trkpt>
      <trkpt lat="37.109349025413394" lon="-4.511674968525767">
        <ele>527.89999999999998</ele>
        <time>2025-05-10T09:46:17Z</time>
      </trkpt>
      <trkpt lat="37.109418008476496" lon="-4.511688966304064">
        <ele>527.41999999999996</ele>
        <time>2025-05-10T09:46:18Z</time>
      </trkpt>
      <trkpt lat="37.10955798625946" lon="-4.511715034022927">
        <ele>527.89999999999998</ele>
        <time>2025-05-10T09:46:20Z</time>
      </trkpt>
      <trkpt lat="37.109624035656452" lon="-4.511728025972843">
        <ele>527.89999999999998</ele>
        <time>2025-05-10T09:46:21Z</time>
      </trkpt>
      <trkpt lat="37.109691007062793" lon="-4.511741017922759">
        <ele>527.89999999999998</ele>
        <time>2025-05-10T09:46:22Z</time>
      </trkpt>
      <trkpt lat="37.10974900983274" lon="-4.511751998215914">
        <ele>528.38</ele>
        <time>2025-05-10T09:46:23Z</time>
      </trkpt>
      <trkpt lat="37.109797960147262" lon="-4.511761972680688">
        <ele>528.38</ele>
        <time>2025-05-10T09:46:24Z</time>
      </trkpt>
      <trkpt lat="37.109840959310532" lon="-4.511770019307733">
        <ele>528.38</ele>
        <time>2025-05-10T09:46:25Z</time>
      </trkpt>
      <trkpt lat="37.109883036464453" lon="-4.511777982115746">
        <ele>528.86000000000001</ele>
        <time>2025-05-10T09:46:26Z</time>
      </trkpt>
      <trkpt lat="37.109933998435736" lon="-4.511788040399551">
        <ele>528.86000000000001</ele>
        <time>2025-05-10T09:46:27Z</time>
      </trkpt>
      <trkpt lat="37.109990995377302" lon="-4.511799020692706">
        <ele>529.34000000000003</ele>
        <time>2025-05-10T09:46:28Z</time>
      </trkpt>
      <trkpt lat="37.11005000397563" lon="-4.511810000985861">
        <ele>529.82000000000005</ele>
        <time>2025-05-10T09:46:29Z</time>
      </trkpt>
      <trkpt lat="37.110108006745577" lon="-4.511820981279016">
        <ele>529.82000000000005</ele>
        <time>2025-05-10T09:46:30Z</time>
      </trkpt>
      <trkpt lat="37.110154023393989" lon="-4.511830033734441">
        <ele>530.29999999999995</ele>
        <time>2025-05-10T09:46:31Z</time>
      </trkpt>
      <trkpt lat="37.110208002850413" lon="-4.511840008199215">
        <ele>530.29999999999995</ele>
        <time>2025-05-10T09:46:32Z</time>
      </trkpt>
      <trkpt lat="37.110217977315187" lon="-4.511837996542454">
        <ele>530.78999999999996</ele>
        <time>2025-05-10T09:46:33Z</time>
      </trkpt>
      <trkpt lat="37.110246978700161" lon="-4.511832967400551">
        <ele>530.78999999999996</ele>
        <time>2025-05-10T09:46:34Z</time>
      </trkpt>
      <trkpt lat="37.110246978700161" lon="-4.511832967400551">
        <ele>530.78999999999996</ele>
        <time>2025-05-10T09:46:46Z</time>
      </trkpt>
      <trkpt lat="37.110246978700161" lon="-4.511832967400551">
        <ele>531.75</ele>
        <time>2025-05-10T09:47:32Z</time>
      </trkpt>
      <trkpt lat="37.110144970938563" lon="-4.511647978797555">
        <ele>531.26999999999998</ele>
        <time>2025-05-10T10:26:54Z</time>
      </trkpt>
      <trkpt lat="37.110327025875449" lon="-4.51178502291441">
        <ele>524.53999999999996</ele>
        <time>2025-05-10T10:27:26Z</time>
      </trkpt>
      <trkpt lat="37.110298024490476" lon="-4.511776976287365">
        <ele>531.75</ele>
        <time>2025-05-10T10:27:54Z</time>
      </trkpt>
      <trkpt lat="37.110247984528542" lon="-4.511773036792874">
        <ele>542.79999999999995</ele>
        <time>2025-05-10T10:28:43Z</time>
      </trkpt>
      <trkpt lat="37.110273968428373" lon="-4.51182802207768">
        <ele>543.27999999999997</ele>
        <time>2025-05-10T10:29:11Z</time>
      </trkpt>
      <trkpt lat="37.110310010612011" lon="-4.511821987107396">
        <ele>543.27999999999997</ele>
        <time>2025-05-10T10:29:12Z</time>
      </trkpt>
      <trkpt lat="37.110353009775281" lon="-4.511814024299383">
        <ele>543.27999999999997</ele>
        <time>2025-05-10T10:29:13Z</time>
      </trkpt>
      <trkpt lat="37.110525006428361" lon="-4.511782005429268">
        <ele>543.75999999999999</ele>
        <time>2025-05-10T10:29:16Z</time>
      </trkpt>
      <trkpt lat="37.110706977546215" lon="-4.511747974902391">
        <ele>544.24000000000001</ele>
        <time>2025-05-10T10:29:19Z</time>
      </trkpt>
      <trkpt lat="37.110769003629684" lon="-4.511736994609237">
        <ele>544.24000000000001</ele>
        <time>2025-05-10T10:29:20Z</time>
      </trkpt>
      <trkpt lat="37.110829018056393" lon="-4.511726014316082">
        <ele>544.72000000000003</ele>
        <time>2025-05-10T10:29:21Z</time>
      </trkpt>
      <trkpt lat="37.110987016931176" lon="-4.511697012931109">
        <ele>543.75999999999999</ele>
        <time>2025-05-10T10:29:24Z</time>
      </trkpt>
      <trkpt lat="37.111046025529504" lon="-4.511686032637954">
        <ele>543.75999999999999</ele>
        <time>2025-05-10T10:29:25Z</time>
      </trkpt>
      <trkpt lat="37.111302008852363" lon="-4.511643033474684">
        <ele>543.27999999999997</ele>
        <time>2025-05-10T10:29:29Z</time>
      </trkpt>
      <trkpt lat="37.111485991626978" lon="-4.511612020432949">
        <ele>542.79999999999995</ele>
        <time>2025-05-10T10:29:32Z</time>
      </trkpt>
      <trkpt lat="37.111546006053686" lon="-4.511601962149143">
        <ele>542.79999999999995</ele>
        <time>2025-05-10T10:29:33Z</time>
      </trkpt>
      <trkpt lat="37.111611971631646" lon="-4.511589976027608">
        <ele>542.32000000000005</ele>
        <time>2025-05-10T10:29:34Z</time>
      </trkpt>
      <trkpt lat="37.111680032685399" lon="-4.511578995734453">
        <ele>542.32000000000005</ele>
        <time>2025-05-10T10:29:35Z</time>
      </trkpt>
      <trkpt lat="37.111742980778217" lon="-4.511568015441299">
        <ele>542.32000000000005</ele>
        <time>2025-05-10T10:29:36Z</time>
      </trkpt>
      <trkpt lat="37.111798971891403" lon="-4.511558962985873">
        <ele>541.84000000000003</ele>
        <time>2025-05-10T10:29:37Z</time>
      </trkpt>
      <trkpt lat="37.111860997974873" lon="-4.511547982692719">
        <ele>541.84000000000003</ele>
        <time>2025-05-10T10:29:38Z</time>
      </trkpt>
      <trkpt lat="37.112616961821914" lon="-4.511428959667683">
        <ele>541.36000000000001</ele>
        <time>2025-05-10T10:29:49Z</time>
      </trkpt>
      <trkpt lat="37.112914016470313" lon="-4.511384032666683">
        <ele>541.84000000000003</ele>
        <time>2025-05-10T10:29:53Z</time>
      </trkpt>
      <trkpt lat="37.112990040332079" lon="-4.511372968554497">
        <ele>542.32000000000005</ele>
        <time>2025-05-10T10:29:54Z</time>
      </trkpt>
      <trkpt lat="37.113066986203194" lon="-4.511363999918103">
        <ele>542.79999999999995</ele>
        <time>2025-05-10T10:29:55Z</time>
      </trkpt>
      <trkpt lat="37.113142004236579" lon="-4.51135603711009">
        <ele>543.27999999999997</ele>
        <time>2025-05-10T10:29:56Z</time>
      </trkpt>
      <trkpt lat="37.113233031705022" lon="-4.511346984654665">
        <ele>543.75999999999999</ele>
        <time>2025-05-10T10:29:57Z</time>
      </trkpt>
      <trkpt lat="37.11329597979784" lon="-4.51133600436151">
        <ele>544.24000000000001</ele>
        <time>2025-05-10T10:29:58Z</time>
      </trkpt>
      <trkpt lat="37.113368986174464" lon="-4.511324018239975">
        <ele>544.72000000000003</ele>
        <time>2025-05-10T10:29:59Z</time>
      </trkpt>
      <trkpt lat="37.11366000585258" lon="-4.511275989934802">
        <ele>546.64999999999998</ele>
        <time>2025-05-10T10:30:03Z</time>
      </trkpt>
      <trkpt lat="37.114443965256214" lon="-4.51129300519824">
        <ele>549.04999999999995</ele>
        <time>2025-05-10T10:30:11Z</time>
      </trkpt>
      <trkpt lat="37.115738969296217" lon="-4.511242965236306">
        <ele>545.69000000000005</ele>
        <time>2025-05-10T10:30:20Z</time>
      </trkpt>
      <trkpt lat="37.117516016587615" lon="-4.510778021067381">
        <ele>548.57000000000005</ele>
        <time>2025-05-10T10:30:30Z</time>
      </trkpt>
      <trkpt lat="37.120149023830891" lon="-4.510097997263074">
        <ele>562.50999999999999</ele>
        <time>2025-05-10T10:30:43Z</time>
      </trkpt>
      <trkpt lat="37.122380034998059" lon="-4.509626012295485">
        <ele>578.85000000000002</ele>
        <time>2025-05-10T10:30:54Z</time>
      </trkpt>
      <trkpt lat="37.123589040711522" lon="-4.509083032608032">
        <ele>580.28999999999996</ele>
        <time>2025-05-10T10:31:00Z</time>
      </trkpt>
      <trkpt lat="37.125718966126442" lon="-4.508322039619088">
        <ele>578.85000000000002</ele>
        <time>2025-05-10T10:31:10Z</time>
      </trkpt>
      <trkpt lat="37.127735987305641" lon="-4.508130010217428">
        <ele>581.25</ele>
        <time>2025-05-10T10:31:20Z</time>
      </trkpt>
      <trkpt lat="37.12915001437068" lon="-4.507871009409428">
        <ele>579.33000000000004</ele>
        <time>2025-05-10T10:31:28Z</time>
      </trkpt>
      <trkpt lat="37.130281990393996" lon="-4.507440011948347">
        <ele>575.97000000000003</ele>
        <time>2025-05-10T10:31:34Z</time>
      </trkpt>
      <trkpt lat="37.132430020719767" lon="-4.506545998156071">
        <ele>579.33000000000004</ele>
        <time>2025-05-10T10:31:45Z</time>
      </trkpt>
      <trkpt lat="37.13385502807796" lon="-4.506095973774791">
        <ele>587.98000000000002</ele>
        <time>2025-05-10T10:31:53Z</time>
      </trkpt>
      <trkpt lat="37.135411966592073" lon="-4.506245004013181">
        <ele>590.38999999999999</ele>
        <time>2025-05-10T10:32:02Z</time>
      </trkpt>
      <trkpt lat="37.135624028742313" lon="-4.506280962377787">
        <ele>589.42999999999995</ele>
        <time>2025-05-10T10:32:06Z</time>
      </trkpt>
      <trkpt lat="37.136094002053142" lon="-4.506394034251571">
        <ele>587.98000000000002</ele>
        <time>2025-05-10T10:32:14Z</time>
      </trkpt>
      <trkpt lat="37.137151965871453" lon="-4.506512973457575">
        <ele>586.05999999999995</ele>
        <time>2025-05-10T10:32:21Z</time>
      </trkpt>
      <trkpt lat="37.139186002314091" lon="-4.506742972880602">
        <ele>585.10000000000002</ele>
        <time>2025-05-10T10:32:31Z</time>
      </trkpt>
      <trkpt lat="37.141317017376423" lon="-4.507076991721988">
        <ele>592.30999999999995</ele>
        <time>2025-05-10T10:32:42Z</time>
      </trkpt>
      <trkpt lat="37.143234964460135" lon="-4.507277989760041">
        <ele>583.65999999999997</ele>
        <time>2025-05-10T10:32:51Z</time>
      </trkpt>
      <trkpt lat="37.14451102539897" lon="-4.507297016680241">
        <ele>570.20000000000005</ele>
        <time>2025-05-10T10:32:58Z</time>
      </trkpt>
      <trkpt lat="37.144599035382271" lon="-4.507299028337002">
        <ele>566.35000000000002</ele>
        <time>2025-05-10T10:33:02Z</time>
      </trkpt>
      <trkpt lat="37.144599035382271" lon="-4.507299028337002">
        <ele>566.35000000000002</ele>
        <time>2025-05-10T10:33:36Z</time>
      </trkpt>
      <trkpt lat="37.144643040373921" lon="-4.507299028337002">
        <ele>561.54999999999995</ele>
        <time>2025-05-10T10:33:57Z</time>
      </trkpt>
      <trkpt lat="37.145147966220975" lon="-4.507306991145015">
        <ele>560.59000000000003</ele>
        <time>2025-05-10T10:34:02Z</time>
      </trkpt>
      <trkpt lat="37.146325958892703" lon="-4.507301039993763">
        <ele>557.22000000000003</ele>
        <time>2025-05-10T10:34:09Z</time>
      </trkpt>
      <trkpt lat="37.148463008925319" lon="-4.50727597810328">
        <ele>552.89999999999998</ele>
        <time>2025-05-10T10:34:19Z</time>
      </trkpt>
      <trkpt lat="37.149276975542307" lon="-4.507440011948347">
        <ele>551.45000000000005</ele>
        <time>2025-05-10T10:34:23Z</time>
      </trkpt>
      <trkpt lat="37.149463975802064" lon="-4.507518969476223">
        <ele>550.97000000000003</ele>
        <time>2025-05-10T10:34:24Z</time>
      </trkpt>
      <trkpt lat="37.150542978197336" lon="-4.507966982200742">
        <ele>547.61000000000001</ele>
        <time>2025-05-10T10:34:31Z</time>
      </trkpt>
      <trkpt lat="37.150860987603664" lon="-4.508050968870521">
        <ele>544.72000000000003</ele>
        <time>2025-05-10T10:34:37Z</time>
      </trkpt>
      <trkpt lat="37.150947991758585" lon="-4.508074019104242">
        <ele>541.84000000000003</ele>
        <time>2025-05-10T10:34:48Z</time>
      </trkpt>
      <trkpt lat="37.150947991758585" lon="-4.508074019104242">
        <ele>540.39999999999998</ele>
        <time>2025-05-10T10:35:08Z</time>
      </trkpt>
      <trkpt lat="37.150947991758585" lon="-4.508074019104242">
        <ele>540.39999999999998</ele>
        <time>2025-05-10T10:36:01Z</time>
      </trkpt>
      <trkpt lat="37.150947991758585" lon="-4.508074019104242">
        <ele>540.39999999999998</ele>
        <time>2025-05-10T10:36:54Z</time>
      </trkpt>
      <trkpt lat="37.15119400061667" lon="-4.508139984682202">
        <ele>542.79999999999995</ele>
        <time>2025-05-10T10:37:16Z</time>
      </trkpt>
      <trkpt lat="37.1520109847188" lon="-4.508356992155314">
        <ele>541.84000000000003</ele>
        <time>2025-05-10T10:37:24Z</time>
      </trkpt>
      <trkpt lat="37.153159976005554" lon="-4.508390016853809">
        <ele>539.44000000000005</ele>
        <time>2025-05-10T10:37:31Z</time>
      </trkpt>
      <trkpt lat="37.154839038848877" lon="-4.507857011631131">
        <ele>535.59000000000003</ele>
        <time>2025-05-10T10:37:40Z</time>
      </trkpt>
      <trkpt lat="37.157827019691467" lon="-4.507013037800789">
        <ele>532.23000000000002</ele>
        <time>2025-05-10T10:37:55Z</time>
      </trkpt>
      <trkpt lat="37.160606039687991" lon="-4.506247015669942">
        <ele>529.82000000000005</ele>
        <time>2025-05-10T10:38:09Z</time>
      </trkpt>
      <trkpt lat="37.161226971074939" lon="-4.506075019016862">
        <ele>529.82000000000005</ele>
        <time>2025-05-10T10:38:14Z</time>
      </trkpt>
      <trkpt lat="37.161552021279931" lon="-4.50598600320518">
        <ele>529.34000000000003</ele>
        <time>2025-05-10T10:38:19Z</time>
      </trkpt>
      <trkpt lat="37.161642964929342" lon="-4.505958007648587">
        <ele>529.34000000000003</ele>
        <time>2025-05-10T10:38:20Z</time>
      </trkpt>
      <trkpt lat="37.16170197352767" lon="-4.505863962695003">
        <ele>529.34000000000003</ele>
        <time>2025-05-10T10:38:21Z</time>
      </trkpt>
      <trkpt lat="37.161762993782759" lon="-4.50575097464025">
        <ele>529.34000000000003</ele>
        <time>2025-05-10T10:38:22Z</time>
      </trkpt>
      <trkpt lat="37.161829965189099" lon="-4.505623988807201">
        <ele>529.82000000000005</ele>
        <time>2025-05-10T10:38:23Z</time>
      </trkpt>
      <trkpt lat="37.162494985386729" lon="-4.504365026950836">
        <ele>529.82000000000005</ele>
        <time>2025-05-10T10:38:30Z</time>
      </trkpt>
      <trkpt lat="37.163610029965639" lon="-4.501988003030419">
        <ele>530.78999999999996</ele>
        <time>2025-05-10T10:38:40Z</time>
      </trkpt>
      <trkpt lat="37.16488198377192" lon="-4.498643036931753">
        <ele>530.29999999999995</ele>
        <time>2025-05-10T10:38:53Z</time>
      </trkpt>
      <trkpt lat="37.16535396873951" lon="-4.496587039902806">
        <ele>531.75</ele>
        <time>2025-05-10T10:39:01Z</time>
      </trkpt>
      <trkpt lat="37.165438961237669" lon="-4.496055040508509">
        <ele>532.23000000000002</ele>
        <time>2025-05-10T10:39:03Z</time>
      </trkpt>
      <trkpt lat="37.165509033948183" lon="-4.495794028043747">
        <ele>531.75</ele>
        <time>2025-05-10T10:39:04Z</time>
      </trkpt>
      <trkpt lat="37.166586024686694" lon="-4.493047026917338">
        <ele>531.75</ele>
        <time>2025-05-10T10:39:15Z</time>
      </trkpt>
      <trkpt lat="37.168314037844539" lon="-4.488636972382665">
        <ele>531.75</ele>
        <time>2025-05-10T10:39:32Z</time>
      </trkpt>
      <trkpt lat="37.168848970904946" lon="-4.486379977315664">
        <ele>531.75</ele>
        <time>2025-05-10T10:39:40Z</time>
      </trkpt>
      <trkpt lat="37.169120963662863" lon="-4.482958987355232">
        <ele>533.66999999999996</ele>
        <time>2025-05-10T10:39:52Z</time>
      </trkpt>
      <trkpt lat="37.169171003624797" lon="-4.482709961012006">
        <ele>533.66999999999996</ele>
        <time>2025-05-10T10:39:53Z</time>
      </trkpt>
      <trkpt lat="37.169236969202757" lon="-4.482461018487811">
        <ele>533.66999999999996</ele>
        <time>2025-05-10T10:39:54Z</time>
      </trkpt>
      <trkpt lat="37.169330008327961" lon="-4.482217021286488">
        <ele>533.66999999999996</ele>
        <time>2025-05-10T10:39:55Z</time>
      </trkpt>
      <trkpt lat="37.17025101184845" lon="-4.479867992922664">
        <ele>530.29999999999995</ele>
        <time>2025-05-10T10:40:04Z</time>
      </trkpt>
      <trkpt lat="37.170695001259446" lon="-4.478536024689674">
        <ele>526.46000000000004</ele>
        <time>2025-05-10T10:40:09Z</time>
      </trkpt>
      <trkpt lat="37.170831961557269" lon="-4.478317005559802">
        <ele>525.98000000000002</ele>
        <time>2025-05-10T10:40:10Z</time>
      </trkpt>
      <trkpt lat="37.170967999845743" lon="-4.478101003915072">
        <ele>525.5</ele>
        <time>2025-05-10T10:40:11Z</time>
      </trkpt>
      <trkpt lat="37.171109989285469" lon="-4.477891959249973">
        <ele>525.01999999999998</ele>
        <time>2025-05-10T10:40:12Z</time>
      </trkpt>
      <trkpt lat="37.171286009252071" lon="-4.477733038365841">
        <ele>524.53999999999996</ele>
        <time>2025-05-10T10:40:13Z</time>
      </trkpt>
      <trkpt lat="37.171466974541545" lon="-4.477570010349155">
        <ele>524.05999999999995</ele>
        <time>2025-05-10T10:40:14Z</time>
      </trkpt>
      <trkpt lat="37.173946006223559" lon="-4.475393984466791">
        <ele>519.73000000000002</ele>
        <time>2025-05-10T10:40:27Z</time>
      </trkpt>
      <trkpt lat="37.176449010148644" lon="-4.473021989688277">
        <ele>516.85000000000002</ele>
        <time>2025-05-10T10:40:41Z</time>
      </trkpt>
      <trkpt lat="37.177242022007704" lon="-4.472121018916369">
        <ele>514.44000000000005</ele>
        <time>2025-05-10T10:40:46Z</time>
      </trkpt>
      <trkpt lat="37.177354004234076" lon="-4.471897976472974">
        <ele>514.44000000000005</ele>
        <time>2025-05-10T10:40:47Z</time>
      </trkpt>
      <trkpt lat="37.178573990240693" lon="-4.469215013086796">
        <ele>514.91999999999996</ele>
        <time>2025-05-10T10:40:58Z</time>
      </trkpt>
      <trkpt lat="37.179566994309425" lon="-4.467007974162698">
        <ele>516.37</ele>
        <time>2025-05-10T10:41:08Z</time>
      </trkpt>
      <trkpt lat="37.18000796623528" lon="-4.465996026992798">
        <ele>518.28999999999996</ele>
        <time>2025-05-10T10:41:14Z</time>
      </trkpt>
      <trkpt lat="37.18004803173244" lon="-4.465801985934377">
        <ele>518.76999999999998</ele>
        <time>2025-05-10T10:41:15Z</time>
      </trkpt>
      <trkpt lat="37.18009103089571" lon="-4.465599982067943">
        <ele>518.76999999999998</ele>
        <time>2025-05-10T10:41:16Z</time>
      </trkpt>
      <trkpt lat="37.180094970390201" lon="-4.465369982644916">
        <ele>519.25</ele>
        <time>2025-05-10T10:41:17Z</time>
      </trkpt>
      <trkpt lat="37.180088013410568" lon="-4.465137971565127">
        <ele>519.73000000000002</ele>
        <time>2025-05-10T10:41:18Z</time>
      </trkpt>
      <trkpt lat="37.180068986490369" lon="-4.464896991848946">
        <ele>519.73000000000002</ele>
        <time>2025-05-10T10:41:19Z</time>
      </trkpt>
      <trkpt lat="37.180039985105395" lon="-4.464655006304383">
        <ele>520.21000000000004</ele>
        <time>2025-05-10T10:41:20Z</time>
      </trkpt>
      <trkpt lat="37.179525000974536" lon="-4.462301032617688">
        <ele>525.01999999999998</ele>
        <time>2025-05-10T10:41:30Z</time>
      </trkpt>
      <trkpt lat="37.179238004609942" lon="-4.46056597866118">
        <ele>530.78999999999996</ele>
        <time>2025-05-10T10:41:37Z</time>
      </trkpt>
      <trkpt lat="37.17923297546804" lon="-4.458659011870623">
        <ele>536.54999999999995</ele>
        <time>2025-05-10T10:41:44Z</time>
      </trkpt>
      <trkpt lat="37.178942039608955" lon="-4.455921985208988">
        <ele>546.64999999999998</ele>
        <time>2025-05-10T10:41:55Z</time>
      </trkpt>
      <trkpt lat="37.178543983027339" lon="-4.454674003645778">
        <ele>552.89999999999998</ele>
        <time>2025-05-10T10:42:02Z</time>
      </trkpt>
      <trkpt lat="37.177709983661771" lon="-4.453283026814461">
        <ele>563.95000000000005</ele>
        <time>2025-05-10T10:42:11Z</time>
      </trkpt>
      <trkpt lat="37.177145965397358" lon="-4.451810996979475">
        <ele>567.32000000000005</ele>
        <time>2025-05-10T10:42:20Z</time>
      </trkpt>
      <trkpt lat="37.176965000107884" lon="-4.450392024591565">
        <ele>566.35000000000002</ele>
        <time>2025-05-10T10:42:28Z</time>
      </trkpt>
      <trkpt lat="37.176728965714574" lon="-4.448120025917888">
        <ele>568.75999999999999</ele>
        <time>2025-05-10T10:42:40Z</time>
      </trkpt>
      <trkpt lat="37.17674296349287" lon="-4.447960015386343">
        <ele>569.72000000000003</ele>
        <time>2025-05-10T10:42:41Z</time>
      </trkpt>
      <trkpt lat="37.17676199041307" lon="-4.44780201651156">
        <ele>570.20000000000005</ele>
        <time>2025-05-10T10:42:42Z</time>
      </trkpt>
      <trkpt lat="37.176798032596707" lon="-4.447666984051466">
        <ele>570.67999999999995</ele>
        <time>2025-05-10T10:42:43Z</time>
      </trkpt>
      <trkpt lat="37.176840025931597" lon="-4.447548966854811">
        <ele>571.15999999999997</ele>
        <time>2025-05-10T10:42:44Z</time>
      </trkpt>
      <trkpt lat="37.176875984296203" lon="-4.447448970749974">
        <ele>571.63999999999999</ele>
        <time>2025-05-10T10:42:45Z</time>
      </trkpt>
      <trkpt lat="37.176930969581008" lon="-4.447297006845474">
        <ele>573.08000000000004</ele>
        <time>2025-05-10T10:42:50Z</time>
      </trkpt>
      <trkpt lat="37.176938010379672" lon="-4.447277979925275">
        <ele>573.08000000000004</ele>
        <time>2025-05-10T10:42:55Z</time>
      </trkpt>
      <trkpt lat="37.176986960694194" lon="-4.447230035439134">
        <ele>573.08000000000004</ele>
        <time>2025-05-10T10:42:56Z</time>
      </trkpt>
      <trkpt lat="37.17702099122107" lon="-4.447258030995727">
        <ele>573.08000000000004</ele>
        <time>2025-05-10T10:42:57Z</time>
      </trkpt>
      <trkpt lat="37.17706399038434" lon="-4.447292983531952">
        <ele>573.55999999999995</ele>
        <time>2025-05-10T10:42:58Z</time>
      </trkpt>
      <trkpt lat="37.177115036174655" lon="-4.447333971038461">
        <ele>573.55999999999995</ele>
        <time>2025-05-10T10:42:59Z</time>
      </trkpt>
      <trkpt lat="37.177602024748921" lon="-4.44771601818502">
        <ele>572.60000000000002</ele>
        <time>2025-05-10T10:43:09Z</time>
      </trkpt>
      <trkpt lat="37.177656004205346" lon="-4.447754994034767">
        <ele>572.60000000000002</ele>
        <time>2025-05-10T10:43:10Z</time>
      </trkpt>
      <trkpt lat="37.177711995318532" lon="-4.447793969884515">
        <ele>572.12</ele>
        <time>2025-05-10T10:43:11Z</time>
      </trkpt>
      <trkpt lat="37.177768992260098" lon="-4.447832023724914">
        <ele>572.12</ele>
        <time>2025-05-10T10:43:12Z</time>
      </trkpt>
      <trkpt lat="37.177825989201665" lon="-4.4478689879179">
        <ele>572.12</ele>
        <time>2025-05-10T10:43:13Z</time>
      </trkpt>
      <trkpt lat="37.178045008331537" lon="-4.448009971529245">
        <ele>571.63999999999999</ele>
        <time>2025-05-10T10:43:17Z</time>
      </trkpt>
      <trkpt lat="37.178257992491126" lon="-4.4481470156461">
        <ele>571.63999999999999</ele>
        <time>2025-05-10T10:43:21Z</time>
      </trkpt>
      <trkpt lat="37.178753027692437" lon="-4.448327980935574">
        <ele>571.63999999999999</ele>
        <time>2025-05-10T10:43:30Z</time>
      </trkpt>
      <trkpt lat="37.178816981613636" lon="-4.448350025340915">
        <ele>571.63999999999999</ele>
        <time>2025-05-10T10:43:31Z</time>
      </trkpt>
      <trkpt lat="37.179108001291752" lon="-4.448453960940242">
        <ele>571.15999999999997</ele>
        <time>2025-05-10T10:43:35Z</time>
      </trkpt>
      <trkpt lat="37.179802022874355" lon="-4.448564015328884">
        <ele>569.72000000000003</ele>
        <time>2025-05-10T10:43:45Z</time>
      </trkpt>
      <trkpt lat="37.179866982623935" lon="-4.448589999228716">
        <ele>569.72000000000003</ele>
        <time>2025-05-10T10:43:46Z</time>
      </trkpt>
      <trkpt lat="37.180433012545109" lon="-4.448810024186969">
        <ele>573.08000000000004</ele>
        <time>2025-05-10T10:43:55Z</time>
      </trkpt>
      <trkpt lat="37.180982027202845" lon="-4.449037006124854">
        <ele>575.49000000000001</ele>
        <time>2025-05-10T10:44:04Z</time>
      </trkpt>
      <trkpt lat="37.181042041629553" lon="-4.449066007509828">
        <ele>575.97000000000003</ele>
        <time>2025-05-10T10:44:05Z</time>
      </trkpt>
      <trkpt lat="37.181104989722371" lon="-4.449094003066421">
        <ele>575.97000000000003</ele>
        <time>2025-05-10T10:44:06Z</time>
      </trkpt>
      <trkpt lat="37.181230969727039" lon="-4.449149994179606">
        <ele>576.45000000000005</ele>
        <time>2025-05-10T10:44:08Z</time>
      </trkpt>
      <trkpt lat="37.18129500746727" lon="-4.44917899556458">
        <ele>576.45000000000005</ele>
        <time>2025-05-10T10:44:09Z</time>
      </trkpt>
      <trkpt lat="37.181885009631515" lon="-4.449456017464399">
        <ele>578.85000000000002</ele>
        <time>2025-05-10T10:44:20Z</time>
      </trkpt>
      <trkpt lat="37.181935971602798" lon="-4.449482001364231">
        <ele>578.85000000000002</ele>
        <time>2025-05-10T10:44:21Z</time>
      </trkpt>
      <trkpt lat="37.181979976594448" lon="-4.449503961950541">
        <ele>578.37</ele>
        <time>2025-05-10T10:44:22Z</time>
      </trkpt>
      <trkpt lat="37.18206899240613" lon="-4.449548972770572">
        <ele>579.33000000000004</ele>
        <time>2025-05-10T10:44:24Z</time>
      </trkpt>
      <trkpt lat="37.182180974632502" lon="-4.449575040489435">
        <ele>579.33000000000004</ele>
        <time>2025-05-10T10:44:26Z</time>
      </trkpt>
      <trkpt lat="37.182485992088914" lon="-4.449627008289099">
        <ele>579.80999999999995</ele>
        <time>2025-05-10T10:44:31Z</time>
      </trkpt>
      <trkpt lat="37.183326026424766" lon="-4.449704037979245">
        <ele>575.97000000000003</ele>
        <time>2025-05-10T10:44:41Z</time>
      </trkpt>
      <trkpt lat="37.184102023020387" lon="-4.449739996343851">
        <ele>569.24000000000001</ele>
        <time>2025-05-10T10:44:50Z</time>
      </trkpt>
      <trkpt lat="37.184182992205024" lon="-4.449749970808625">
        <ele>568.27999999999997</ele>
        <time>2025-05-10T10:44:51Z</time>
      </trkpt>
      <trkpt lat="37.18449697829783" lon="-4.449762962758541">
        <ele>565.87</ele>
        <time>2025-05-10T10:44:55Z</time>
      </trkpt>
      <trkpt lat="37.184571996331215" lon="-4.449762962758541">
        <ele>565.87</ele>
        <time>2025-05-10T10:44:56Z</time>
      </trkpt>
      <trkpt lat="37.185293007642031" lon="-4.44982398301363">
        <ele>563.47000000000003</ele>
        <time>2025-05-10T10:45:06Z</time>
      </trkpt>
      <trkpt lat="37.186132958158851" lon="-4.449895983561873">
        <ele>560.11000000000001</ele>
        <time>2025-05-10T10:45:16Z</time>
      </trkpt>
      <trkpt lat="37.186820022761822" lon="-4.449977958574891">
        <ele>558.17999999999995</ele>
        <time>2025-05-10T10:45:24Z</time>
      </trkpt>
      <trkpt lat="37.187178013846278" lon="-4.449977958574891">
        <ele>556.74000000000001</ele>
        <time>2025-05-10T10:45:28Z</time>
      </trkpt>
      <trkpt lat="37.18726996332407" lon="-4.449977958574891">
        <ele>556.74000000000001</ele>
        <time>2025-05-10T10:45:29Z</time>
      </trkpt>
      <trkpt lat="37.187546985223889" lon="-4.449972007423639">
        <ele>555.77999999999997</ele>
        <time>2025-05-10T10:45:32Z</time>
      </trkpt>
      <trkpt lat="37.187641030177474" lon="-4.449967984110117">
        <ele>555.77999999999997</ele>
        <time>2025-05-10T10:45:33Z</time>
      </trkpt>
      <trkpt lat="37.187733985483646" lon="-4.449963960796595">
        <ele>555.77999999999997</ele>
        <time>2025-05-10T10:45:34Z</time>
      </trkpt>
      <trkpt lat="37.18782601878047" lon="-4.449961027130485">
        <ele>555.29999999999995</ele>
        <time>2025-05-10T10:45:35Z</time>
      </trkpt>
      <trkpt lat="37.187927020713687" lon="-4.449955997988582">
        <ele>555.29999999999995</ele>
        <time>2025-05-10T10:45:36Z</time>
      </trkpt>
      <trkpt lat="37.188589023426175" lon="-4.449916016310453">
        <ele>551.92999999999995</ele>
        <time>2025-05-10T10:45:43Z</time>
      </trkpt>
      <trkpt lat="37.189104007557034" lon="-4.449940994381905">
        <ele>545.69000000000005</ele>
        <time>2025-05-10T10:45:49Z</time>
      </trkpt>
      <trkpt lat="37.189190005883574" lon="-4.449948035180569">
        <ele>544.24000000000001</ele>
        <time>2025-05-10T10:45:50Z</time>
      </trkpt>
      <trkpt lat="37.189279021695256" lon="-4.449954992160201">
        <ele>543.27999999999997</ele>
        <time>2025-05-10T10:45:51Z</time>
      </trkpt>
      <trkpt lat="37.189368959516287" lon="-4.449972007423639">
        <ele>541.84000000000003</ele>
        <time>2025-05-10T10:45:52Z</time>
      </trkpt>
      <trkpt lat="37.189454035833478" lon="-4.449990028515458">
        <ele>540.39999999999998</ele>
        <time>2025-05-10T10:45:53Z</time>
      </trkpt>
      <trkpt lat="37.189494017511606" lon="-4.449998997151852">
        <ele>539.44000000000005</ele>
        <time>2025-05-10T10:45:54Z</time>
      </trkpt>
      <trkpt lat="37.189637012779713" lon="-4.450055994093418">
        <ele>537.99000000000001</ele>
        <time>2025-05-10T10:45:55Z</time>
      </trkpt>
      <trkpt lat="37.190516022965312" lon="-4.450123971328139">
        <ele>527.89999999999998</ele>
        <time>2025-05-10T10:46:04Z</time>
      </trkpt>
      <trkpt lat="37.190720038488507" lon="-4.450054988265038">
        <ele>524.05999999999995</ele>
        <time>2025-05-10T10:46:06Z</time>
      </trkpt>
      <trkpt lat="37.190822968259454" lon="-4.449975024908781">
        <ele>522.13</ele>
        <time>2025-05-10T10:46:07Z</time>
      </trkpt>
      <trkpt lat="37.190921036526561" lon="-4.449900006875396">
        <ele>520.21000000000004</ele>
        <time>2025-05-10T10:46:08Z</time>
      </trkpt>
      <trkpt lat="37.190970992669463" lon="-4.449792969971895">
        <ele>518.28999999999996</ele>
        <time>2025-05-10T10:46:09Z</time>
      </trkpt>
      <trkpt lat="37.191017009317875" lon="-4.449677970260382">
        <ele>516.85000000000002</ele>
        <time>2025-05-10T10:46:10Z</time>
      </trkpt>
      <trkpt lat="37.191009968519211" lon="-4.449569005519152">
        <ele>514.91999999999996</ele>
        <time>2025-05-10T10:46:11Z</time>
      </trkpt>
      <trkpt lat="37.191000999882817" lon="-4.449432967230678">
        <ele>513.48000000000002</ele>
        <time>2025-05-10T10:46:12Z</time>
      </trkpt>
      <trkpt lat="37.190991025418043" lon="-4.449289971962571">
        <ele>512.03999999999996</ele>
        <time>2025-05-10T10:46:13Z</time>
      </trkpt>
      <trkpt lat="37.190981972962618" lon="-4.449152005836368">
        <ele>510.60000000000002</ele>
        <time>2025-05-10T10:46:14Z</time>
      </trkpt>
      <trkpt lat="37.190974010154605" lon="-4.449033988639712">
        <ele>509.63999999999999</ele>
        <time>2025-05-10T10:46:15Z</time>
      </trkpt>
      <trkpt lat="37.191007034853101" lon="-4.448901973664761">
        <ele>508.67000000000002</ele>
        <time>2025-05-10T10:46:16Z</time>
      </trkpt>
      <trkpt lat="37.191034024581313" lon="-4.448795020580292">
        <ele>507.70999999999998</ele>
        <time>2025-05-10T10:46:17Z</time>
      </trkpt>
      <trkpt lat="37.191060008481145" lon="-4.448689995333552">
        <ele>507.23000000000002</ele>
        <time>2025-05-10T10:46:18Z</time>
      </trkpt>
      <trkpt lat="37.191142989322543" lon="-4.448669962584972">
        <ele>506.26999999999998</ele>
        <time>2025-05-10T10:46:19Z</time>
      </trkpt>
      <trkpt lat="37.191228987649083" lon="-4.448701981455088">
        <ele>505.79000000000002</ele>
        <time>2025-05-10T10:46:20Z</time>
      </trkpt>
      <trkpt lat="37.191327977925539" lon="-4.448738023638725">
        <ele>505.79000000000002</ele>
        <time>2025-05-10T10:46:21Z</time>
      </trkpt>
      <trkpt lat="37.191427974030375" lon="-4.448774987831712">
        <ele>505.79000000000002</ele>
        <time>2025-05-10T10:46:22Z</time>
      </trkpt>
      <trkpt lat="37.191511038690805" lon="-4.448789991438389">
        <ele>505.79000000000002</ele>
        <time>2025-05-10T10:46:23Z</time>
      </trkpt>
      <trkpt lat="37.191612040624022" lon="-4.448752021417022">
        <ele>506.26999999999998</ele>
        <time>2025-05-10T10:46:24Z</time>
      </trkpt>
      <trkpt lat="37.191714970394969" lon="-4.448693012818694">
        <ele>506.75</ele>
        <time>2025-05-10T10:46:25Z</time>
      </trkpt>
      <trkpt lat="37.191799962893128" lon="-4.448588993400335">
        <ele>507.23000000000002</ele>
        <time>2025-05-10T10:46:26Z</time>
      </trkpt>
      <trkpt lat="37.191876992583275" lon="-4.448472987860441">
        <ele>507.70999999999998</ele>
        <time>2025-05-10T10:46:27Z</time>
      </trkpt>
      <trkpt lat="37.191928960382938" lon="-4.448351031169295">
        <ele>508.19</ele>
        <time>2025-05-10T10:46:28Z</time>
      </trkpt>
      <trkpt lat="37.191953016445041" lon="-4.448214992880821">
        <ele>509.16000000000003</ele>
        <time>2025-05-10T10:46:29Z</time>
      </trkpt>
      <trkpt lat="37.191975982859731" lon="-4.44808398373425">
        <ele>509.63999999999999</ele>
        <time>2025-05-10T10:46:30Z</time>
      </trkpt>
      <trkpt lat="37.192015964537859" lon="-4.447980970144272">
        <ele>510.12</ele>
        <time>2025-05-10T10:46:31Z</time>
      </trkpt>
      <trkpt lat="37.192067010328174" lon="-4.447878962382674">
        <ele>510.60000000000002</ele>
        <time>2025-05-10T10:46:32Z</time>
      </trkpt>
      <trkpt lat="37.192128030583262" lon="-4.447776032611728">
        <ele>511.07999999999998</ele>
        <time>2025-05-10T10:46:33Z</time>
      </trkpt>
      <trkpt lat="37.192222997546196" lon="-4.447700008749962">
        <ele>511.56</ele>
        <time>2025-05-10T10:46:34Z</time>
      </trkpt>
      <trkpt lat="37.192316958680749" lon="-4.447624990716577">
        <ele>512.03999999999996</ele>
        <time>2025-05-10T10:46:35Z</time>
      </trkpt>
      <trkpt lat="37.192434975877404" lon="-4.447532035410404">
        <ele>512.51999999999998</ele>
        <time>2025-05-10T10:46:36Z</time>
      </trkpt>
      <trkpt lat="37.192542012780905" lon="-4.447549972683191">
        <ele>513.48000000000002</ele>
        <time>2025-05-10T10:46:37Z</time>
      </trkpt>
      <trkpt lat="37.192659024149179" lon="-4.447634965181351">
        <ele>513.96000000000004</ele>
        <time>2025-05-10T10:46:38Z</time>
      </trkpt>
      <trkpt lat="37.19276899471879" lon="-4.447729010134935">
        <ele>514.44000000000005</ele>
        <time>2025-05-10T10:46:39Z</time>
      </trkpt>
      <trkpt lat="37.192882988601923" lon="-4.44782598875463">
        <ele>515.39999999999998</ele>
        <time>2025-05-10T10:46:40Z</time>
      </trkpt>
      <trkpt lat="37.192991031333804" lon="-4.447918022051454">
        <ele>515.88</ele>
        <time>2025-05-10T10:46:41Z</time>
      </trkpt>
      <trkpt lat="37.193127991631627" lon="-4.447968984022737">
        <ele>516.85000000000002</ele>
        <time>2025-05-10T10:46:42Z</time>
      </trkpt>
      <trkpt lat="37.193239973857999" lon="-4.447976024821401">
        <ele>517.80999999999995</ele>
        <time>2025-05-10T10:46:43Z</time>
      </trkpt>
      <trkpt lat="37.193349022418261" lon="-4.447966972365975">
        <ele>518.76999999999998</ele>
        <time>2025-05-10T10:46:44Z</time>
      </trkpt>
      <trkpt lat="37.193421022966504" lon="-4.447958003729582">
        <ele>519.73000000000002</ele>
        <time>2025-05-10T10:46:45Z</time>
      </trkpt>
      <trkpt lat="37.193449018523097" lon="-4.447863958775997">
        <ele>520.21000000000004</ele>
        <time>2025-05-10T10:46:46Z</time>
      </trkpt>
      <trkpt lat="37.193484976887703" lon="-4.447746025398374">
        <ele>520.69000000000005</ele>
        <time>2025-05-10T10:46:47Z</time>
      </trkpt>
      <trkpt lat="37.193480031564832" lon="-4.447619961574674">
        <ele>521.16999999999996</ele>
        <time>2025-05-10T10:46:48Z</time>
      </trkpt>
      <trkpt lat="37.193475002422929" lon="-4.447466991841793">
        <ele>521.16999999999996</ele>
        <time>2025-05-10T10:46:49Z</time>
      </trkpt>
      <trkpt lat="37.193468967452645" lon="-4.447299018502235">
        <ele>521.16999999999996</ele>
        <time>2025-05-10T10:46:50Z</time>
      </trkpt>
      <trkpt lat="37.193465027958155" lon="-4.44711796939373">
        <ele>521.16999999999996</ele>
        <time>2025-05-10T10:46:51Z</time>
      </trkpt>
      <trkpt lat="37.193519007414579" lon="-4.446955025196075">
        <ele>521.16999999999996</ele>
        <time>2025-05-10T10:46:52Z</time>
      </trkpt>
      <trkpt lat="37.19364901073277" lon="-4.446468958631158">
        <ele>522.13</ele>
        <time>2025-05-10T10:46:55Z</time>
      </trkpt>
      <trkpt lat="37.193630989640951" lon="-4.446294028311968">
        <ele>522.61000000000001</ele>
        <time>2025-05-10T10:46:56Z</time>
      </trkpt>
      <trkpt lat="37.193596037104726" lon="-4.445941988378763">
        <ele>523.09000000000003</ele>
        <time>2025-05-10T10:46:58Z</time>
      </trkpt>
      <trkpt lat="37.1936060115695" lon="-4.445775020867586">
        <ele>523.58000000000004</ele>
        <time>2025-05-10T10:46:59Z</time>
      </trkpt>
      <trkpt lat="37.193658985197544" lon="-4.445620039477944">
        <ele>523.58000000000004</ele>
        <time>2025-05-10T10:47:00Z</time>
      </trkpt>
      <trkpt lat="37.194328028708696" lon="-4.444627035409212">
        <ele>518.28999999999996</ele>
        <time>2025-05-10T10:47:07Z</time>
      </trkpt>
      <trkpt lat="37.194599015638232" lon="-4.444252029061317">
        <ele>515.39999999999998</ele>
        <time>2025-05-10T10:47:10Z</time>
      </trkpt>
      <trkpt lat="37.194648971781135" lon="-4.444104004651308">
        <ele>514.44000000000005</ele>
        <time>2025-05-10T10:47:11Z</time>
      </trkpt>
      <trkpt lat="37.194689959287643" lon="-4.443951034918428">
        <ele>513.96000000000004</ele>
        <time>2025-05-10T10:47:12Z</time>
      </trkpt>
      <trkpt lat="37.194769000634551" lon="-4.4436139985919">
        <ele>511.56</ele>
        <time>2025-05-10T10:47:14Z</time>
      </trkpt>
      <trkpt lat="37.194807976484299" lon="-4.443448036909103">
        <ele>510.60000000000002</ele>
        <time>2025-05-10T10:47:15Z</time>
      </trkpt>
      <trkpt lat="37.194862039759755" lon="-4.443296995013952">
        <ele>509.16000000000003</ele>
        <time>2025-05-10T10:47:16Z</time>
      </trkpt>
      <trkpt lat="37.194964969530702" lon="-4.443175960332155">
        <ele>507.23000000000002</ele>
        <time>2025-05-10T10:47:17Z</time>
      </trkpt>
      <trkpt lat="37.195055996999145" lon="-4.443105971440673">
        <ele>505.79000000000002</ele>
        <time>2025-05-10T10:47:18Z</time>
      </trkpt>
      <trkpt lat="37.195155993103981" lon="-4.443029025569558">
        <ele>504.82999999999998</ele>
        <time>2025-05-10T10:47:19Z</time>
      </trkpt>
      <trkpt lat="37.195249032229185" lon="-4.442951995879412">
        <ele>503.38999999999999</ele>
        <time>2025-05-10T10:47:20Z</time>
      </trkpt>
      <trkpt lat="37.195308962836862" lon="-4.442832972854376">
        <ele>502.43000000000001</ele>
        <time>2025-05-10T10:47:21Z</time>
      </trkpt>
      <trkpt lat="37.195322038605809" lon="-4.442672962322831">
        <ele>501.94999999999999</ele>
        <time>2025-05-10T10:47:22Z</time>
      </trkpt>
      <trkpt lat="37.195336036384106" lon="-4.442500965669751">
        <ele>500.5</ele>
        <time>2025-05-10T10:47:23Z</time>
      </trkpt>
      <trkpt lat="37.195351039990783" lon="-4.442323017865419">
        <ele>499.54000000000002</ele>
        <time>2025-05-10T10:47:24Z</time>
      </trkpt>
      <trkpt lat="37.19534701667726" lon="-4.441968966275454">
        <ele>498.10000000000002</ele>
        <time>2025-05-10T10:47:26Z</time>
      </trkpt>
      <trkpt lat="37.195299994200468" lon="-4.441803004592657">
        <ele>497.13999999999999</ele>
        <time>2025-05-10T10:47:27Z</time>
      </trkpt>
      <trkpt lat="37.195201003924012" lon="-4.441445013508201">
        <ele>495.69999999999999</ele>
        <time>2025-05-10T10:47:29Z</time>
      </trkpt>
      <trkpt lat="37.195192035287619" lon="-4.441253989934921">
        <ele>494.25999999999999</ele>
        <time>2025-05-10T10:47:30Z</time>
      </trkpt>
      <trkpt lat="37.195164961740375" lon="-4.440681003034115">
        <ele>490.88999999999999</ele>
        <time>2025-05-10T10:47:33Z</time>
      </trkpt>
      <trkpt lat="37.195130009204149" lon="-4.440485034137964">
        <ele>489.44999999999999</ele>
        <time>2025-05-10T10:47:34Z</time>
      </trkpt>
      <trkpt lat="37.195066977292299" lon="-4.440321000292897">
        <ele>488.00999999999999</ele>
        <time>2025-05-10T10:47:35Z</time>
      </trkpt>
      <trkpt lat="37.195005035027862" lon="-4.440158978104591">
        <ele>486.56</ele>
        <time>2025-05-10T10:47:36Z</time>
      </trkpt>
      <trkpt lat="37.194944014772773" lon="-4.439999973401427">
        <ele>485.12</ele>
        <time>2025-05-10T10:47:37Z</time>
      </trkpt>
      <trkpt lat="37.194918030872941" lon="-4.43983300589025">
        <ele>483.68000000000001</ele>
        <time>2025-05-10T10:47:38Z</time>
      </trkpt>
      <trkpt lat="37.1948959864676" lon="-4.439657991752029">
        <ele>482.24000000000001</ele>
        <time>2025-05-10T10:47:39Z</time>
      </trkpt>
      <trkpt lat="37.19455299898982" lon="-4.437905000522733">
        <ele>479.83999999999997</ele>
        <time>2025-05-10T10:47:48Z</time>
      </trkpt>
      <trkpt lat="37.194521985948086" lon="-4.437693022191525">
        <ele>480.31999999999999</ele>
        <time>2025-05-10T10:47:49Z</time>
      </trkpt>
      <trkpt lat="37.19450999982655" lon="-4.437483977526426">
        <ele>480.80000000000001</ele>
        <time>2025-05-10T10:47:50Z</time>
      </trkpt>
      <trkpt lat="37.194502037018538" lon="-4.437271999195218">
        <ele>481.27999999999997</ele>
        <time>2025-05-10T10:47:51Z</time>
      </trkpt>
      <trkpt lat="37.194662969559431" lon="-4.435394033789635">
        <ele>490.41000000000003</ele>
        <time>2025-05-10T10:48:00Z</time>
      </trkpt>
      <trkpt lat="37.194739999249578" lon="-4.435194041579962">
        <ele>491.85000000000002</ele>
        <time>2025-05-10T10:48:01Z</time>
      </trkpt>
      <trkpt lat="37.195050967857242" lon="-4.434377979487181">
        <ele>496.18000000000001</ele>
        <time>2025-05-10T10:48:05Z</time>
      </trkpt>
      <trkpt lat="37.195136966183782" lon="-4.434230038896203">
        <ele>497.13999999999999</ele>
        <time>2025-05-10T10:48:06Z</time>
      </trkpt>
      <trkpt lat="37.195237968116999" lon="-4.434072962030768">
        <ele>497.62</ele>
        <time>2025-05-10T10:48:07Z</time>
      </trkpt>
      <trkpt lat="37.195437038317323" lon="-4.433813039213419">
        <ele>498.57999999999998</ele>
        <time>2025-05-10T10:48:09Z</time>
      </trkpt>
      <trkpt lat="37.195482971146703" lon="-4.433700973168016">
        <ele>499.06</ele>
        <time>2025-05-10T10:48:10Z</time>
      </trkpt>
      <trkpt lat="37.195491017773747" lon="-4.433568036183715">
        <ele>499.54000000000002</ele>
        <time>2025-05-10T10:48:11Z</time>
      </trkpt>
      <trkpt lat="37.195501998066902" lon="-4.433391010388732">
        <ele>500.01999999999998</ele>
        <time>2025-05-10T10:48:12Z</time>
      </trkpt>
      <trkpt lat="37.195429997518659" lon="-4.433291014283896">
        <ele>500.5</ele>
        <time>2025-05-10T10:48:13Z</time>
      </trkpt>
      <trkpt lat="37.195324972271919" lon="-4.433210967108607">
        <ele>501.45999999999998</ele>
        <time>2025-05-10T10:48:14Z</time>
      </trkpt>
      <trkpt lat="37.195221036672592" lon="-4.433180959895253">
        <ele>502.43000000000001</ele>
        <time>2025-05-10T10:48:15Z</time>
      </trkpt>
      <trkpt lat="37.195108970627189" lon="-4.433203004300594">
        <ele>502.91000000000003</ele>
        <time>2025-05-10T10:48:16Z</time>
      </trkpt>
      <trkpt lat="37.19498299062252" lon="-4.433228988200426">
        <ele>503.38999999999999</ele>
        <time>2025-05-10T10:48:17Z</time>
      </trkpt>
      <trkpt lat="37.194733964279294" lon="-4.43327902816236">
        <ele>504.35000000000002</ele>
        <time>2025-05-10T10:48:19Z</time>
      </trkpt>
      <trkpt lat="37.194617036730051" lon="-4.43330199457705">
        <ele>505.31</ele>
        <time>2025-05-10T10:48:20Z</time>
      </trkpt>
      <trkpt lat="37.194515028968453" lon="-4.433272993192077">
        <ele>505.79000000000002</ele>
        <time>2025-05-10T10:48:21Z</time>
      </trkpt>
      <trkpt lat="37.194418972358108" lon="-4.433232005685568">
        <ele>506.75</ele>
        <time>2025-05-10T10:48:22Z</time>
      </trkpt>
      <trkpt lat="37.194330962374806" lon="-4.433142989873886">
        <ele>507.70999999999998</ele>
        <time>2025-05-10T10:48:23Z</time>
      </trkpt>
      <trkpt lat="37.194263990968466" lon="-4.433022039011121">
        <ele>508.19</ele>
        <time>2025-05-10T10:48:24Z</time>
      </trkpt>
      <trkpt lat="37.194202970713377" lon="-4.432867979630828">
        <ele>509.16000000000003</ele>
        <time>2025-05-10T10:48:25Z</time>
      </trkpt>
      <trkpt lat="37.194135999307036" lon="-4.432702017948031">
        <ele>510.12</ele>
        <time>2025-05-10T10:48:26Z</time>
      </trkpt>
      <trkpt lat="37.193970959633589" lon="-4.432148979976773">
        <ele>513</ele>
        <time>2025-05-10T10:48:29Z</time>
      </trkpt>
      <trkpt lat="37.193943969905376" lon="-4.431938007473946">
        <ele>513.48000000000002</ele>
        <time>2025-05-10T10:48:30Z</time>
      </trkpt>
      <trkpt lat="37.193854032084346" lon="-4.430339997634292">
        <ele>522.61000000000001</ele>
        <time>2025-05-10T10:48:37Z</time>
      </trkpt>
      <trkpt lat="37.193876998499036" lon="-4.430123995989561">
        <ele>524.05999999999995</ele>
        <time>2025-05-10T10:48:38Z</time>
      </trkpt>
      <trkpt lat="37.193918991833925" lon="-4.429921992123127">
        <ele>525.5</ele>
        <time>2025-05-10T10:48:39Z</time>
      </trkpt>
      <trkpt lat="37.193957967683673" lon="-4.42973499186337">
        <ele>526.94000000000005</ele>
        <time>2025-05-10T10:48:40Z</time>
      </trkpt>
      <trkpt lat="37.194008007645607" lon="-4.429556960240006">
        <ele>528.38</ele>
        <time>2025-05-10T10:48:41Z</time>
      </trkpt>
      <trkpt lat="37.194088976830244" lon="-4.429401978850365">
        <ele>529.34000000000003</ele>
        <time>2025-05-10T10:48:42Z</time>
      </trkpt>
      <trkpt lat="37.194188972935081" lon="-4.429269963875413">
        <ele>530.78999999999996</ele>
        <time>2025-05-10T10:48:43Z</time>
      </trkpt>
      <trkpt lat="37.194297015666962" lon="-4.429151024669409">
        <ele>531.75</ele>
        <time>2025-05-10T10:48:44Z</time>
      </trkpt>
      <trkpt lat="37.194419978186488" lon="-4.429038036614656">
        <ele>532.71000000000004</ele>
        <time>2025-05-10T10:48:45Z</time>
      </trkpt>
      <trkpt lat="37.194630028679967" lon="-4.428765960037708">
        <ele>534.63</ele>
        <time>2025-05-10T10:48:47Z</time>
      </trkpt>
      <trkpt lat="37.194727007299662" lon="-4.428620031103492">
        <ele>535.59000000000003</ele>
        <time>2025-05-10T10:48:48Z</time>
      </trkpt>
      <trkpt lat="37.19479096122086" lon="-4.428457003086805">
        <ele>536.54999999999995</ele>
        <time>2025-05-10T10:48:49Z</time>
      </trkpt>
      <trkpt lat="37.195127997547388" lon="-4.427468022331595">
        <ele>538.96000000000004</ele>
        <time>2025-05-10T10:48:55Z</time>
      </trkpt>
      <trkpt lat="37.195225981995463" lon="-4.427342964336276">
        <ele>539.44000000000005</ele>
        <time>2025-05-10T10:48:56Z</time>
      </trkpt>
      <trkpt lat="37.196094011887908" lon="-4.426229009404779">
        <ele>541.84000000000003</ele>
        <time>2025-05-10T10:49:03Z</time>
      </trkpt>
      <trkpt lat="37.197552965953946" lon="-4.42416999489069">
        <ele>551.45000000000005</ele>
        <time>2025-05-10T10:49:14Z</time>
      </trkpt>
      <trkpt lat="37.198339020833373" lon="-4.422796033322811">
        <ele>559.13999999999999</ele>
        <time>2025-05-10T10:49:21Z</time>
      </trkpt>
      <trkpt lat="37.198991971090436" lon="-4.421296007931233">
        <ele>570.20000000000005</ele>
        <time>2025-05-10T10:49:29Z</time>
      </trkpt>
      <trkpt lat="37.199070006608963" lon="-4.421092998236418">
        <ele>571.63999999999999</ele>
        <time>2025-05-10T10:49:30Z</time>
      </trkpt>
      <trkpt lat="37.199119040742517" lon="-4.420866016298533">
        <ele>573.08000000000004</ele>
        <time>2025-05-10T10:49:31Z</time>
      </trkpt>
      <trkpt lat="37.199337976053357" lon="-4.419961022213101">
        <ele>578.85000000000002</ele>
        <time>2025-05-10T10:49:35Z</time>
      </trkpt>
      <trkpt lat="37.199412994086742" lon="-4.419745020568371">
        <ele>580.28999999999996</ele>
        <time>2025-05-10T10:49:36Z</time>
      </trkpt>
      <trkpt lat="37.199516007676721" lon="-4.419543016701937">
        <ele>582.22000000000003</ele>
        <time>2025-05-10T10:49:37Z</time>
      </trkpt>
      <trkpt lat="37.200277000665665" lon="-4.418119015172124">
        <ele>591.35000000000002</ele>
        <time>2025-05-10T10:49:45Z</time>
      </trkpt>
      <trkpt lat="37.200629040598869" lon="-4.417204968631268">
        <ele>596.63999999999999</ele>
        <time>2025-05-10T10:49:51Z</time>
      </trkpt>
      <trkpt lat="37.200770024210215" lon="-4.41669300198555">
        <ele>600</ele>
        <time>2025-05-10T10:49:54Z</time>
      </trkpt>
      <trkpt lat="37.200835989788175" lon="-4.416522011160851">
        <ele>601.44000000000005</ele>
        <time>2025-05-10T10:49:55Z</time>
      </trkpt>
      <trkpt lat="37.200986025854945" lon="-4.416168965399265">
        <ele>603.85000000000002</ele>
        <time>2025-05-10T10:49:57Z</time>
      </trkpt>
      <trkpt lat="37.201046962291002" lon="-4.415978025645018">
        <ele>604.80999999999995</ele>
        <time>2025-05-10T10:49:58Z</time>
      </trkpt>
      <trkpt lat="37.201520036906004" lon="-4.414186980575323">
        <ele>609.61000000000001</ele>
        <time>2025-05-10T10:50:07Z</time>
      </trkpt>
      <trkpt lat="37.201592959463596" lon="-4.41400702111423">
        <ele>609.61000000000001</ele>
        <time>2025-05-10T10:50:08Z</time>
      </trkpt>
      <trkpt lat="37.202241970226169" lon="-4.412364000454545">
        <ele>611.05999999999995</ele>
        <time>2025-05-10T10:50:16Z</time>
      </trkpt>
      <trkpt lat="37.203111005946994" lon="-4.41007599234581">
        <ele>612.5</ele>
        <time>2025-05-10T10:50:27Z</time>
      </trkpt>
      <trkpt lat="37.203223994001746" lon="-4.409920005127788">
        <ele>612.5</ele>
        <time>2025-05-10T10:50:28Z</time>
      </trkpt>
      <trkpt lat="37.20333999954164" lon="-4.409759994596243">
        <ele>612.01999999999998</ele>
        <time>2025-05-10T10:50:29Z</time>
      </trkpt>
      <trkpt lat="37.203663038089871" lon="-4.409273006021977">
        <ele>610.57000000000005</ele>
        <time>2025-05-10T10:50:32Z</time>
      </trkpt>
      <trkpt lat="37.203792035579681" lon="-4.409135961905122">
        <ele>610.09000000000003</ele>
        <time>2025-05-10T10:50:33Z</time>
      </trkpt>
      <trkpt lat="37.204182967543602" lon="-4.408746035769582">
        <ele>609.13</ele>
        <time>2025-05-10T10:50:36Z</time>
      </trkpt>
      <trkpt lat="37.20428204163909" lon="-4.408588036894798">
        <ele>608.16999999999996</ele>
        <time>2025-05-10T10:50:37Z</time>
      </trkpt>
      <trkpt lat="37.204364016652107" lon="-4.408403970301151">
        <ele>607.69000000000005</ele>
        <time>2025-05-10T10:50:38Z</time>
      </trkpt>
      <trkpt lat="37.204444985836744" lon="-4.408224010840058">
        <ele>607.21000000000004</ele>
        <time>2025-05-10T10:50:39Z</time>
      </trkpt>
      <trkpt lat="37.204525033012033" lon="-4.408045979216695">
        <ele>607.69000000000005</ele>
        <time>2025-05-10T10:50:40Z</time>
      </trkpt>
      <trkpt lat="37.20469300635159" lon="-4.407707015052438">
        <ele>607.21000000000004</ele>
        <time>2025-05-10T10:50:42Z</time>
      </trkpt>
      <trkpt lat="37.204782022163272" lon="-4.407544992864132">
        <ele>607.69000000000005</ele>
        <time>2025-05-10T10:50:43Z</time>
      </trkpt>
      <trkpt lat="37.204880006611347" lon="-4.407383976504207">
        <ele>607.69000000000005</ele>
        <time>2025-05-10T10:50:44Z</time>
      </trkpt>
      <trkpt lat="37.205009004101157" lon="-4.407257996499538">
        <ele>608.16999999999996</ele>
        <time>2025-05-10T10:50:45Z</time>
      </trkpt>
      <trkpt lat="37.205141019076109" lon="-4.40713101066649">
        <ele>608.16999999999996</ele>
        <time>2025-05-10T10:50:46Z</time>
      </trkpt>
      <trkpt lat="37.2052710223943" lon="-4.407005030661821">
        <ele>608.64999999999998</ele>
        <time>2025-05-10T10:50:47Z</time>
      </trkpt>
      <trkpt lat="37.2054039593786" lon="-4.406876033172011">
        <ele>609.13</ele>
        <time>2025-05-10T10:50:48Z</time>
      </trkpt>
      <trkpt lat="37.205564975738525" lon="-4.406719040125608">
        <ele>609.61000000000001</ele>
        <time>2025-05-10T10:50:49Z</time>
      </trkpt>
      <trkpt lat="37.207006998360157" lon="-4.404759015887976">
        <ele>612.98000000000002</ele>
        <time>2025-05-10T10:51:01Z</time>
      </trkpt>
      <trkpt lat="37.207121998071671" lon="-4.404595987871289">
        <ele>613.46000000000004</ele>
        <time>2025-05-10T10:51:02Z</time>
      </trkpt>
      <trkpt lat="37.207211013883352" lon="-4.404405970126391">
        <ele>613.94000000000005</ele>
        <time>2025-05-10T10:51:03Z</time>
      </trkpt>
      <trkpt lat="37.207574034109712" lon="-4.403469040989876">
        <ele>612.98000000000002</ele>
        <time>2025-05-10T10:51:08Z</time>
      </trkpt>
      <trkpt lat="37.207620972767472" lon="-4.403282962739468">
        <ele>612.5</ele>
        <time>2025-05-10T10:51:09Z</time>
      </trkpt>
      <trkpt lat="37.207661960273981" lon="-4.403117001056671">
        <ele>612.5</ele>
        <time>2025-05-10T10:51:10Z</time>
      </trkpt>
      <trkpt lat="37.207702025771141" lon="-4.402982974424958">
        <ele>612.01999999999998</ele>
        <time>2025-05-10T10:51:11Z</time>
      </trkpt>
      <trkpt lat="37.207756005227566" lon="-4.402874009683728">
        <ele>612.01999999999998</ele>
        <time>2025-05-10T10:51:12Z</time>
      </trkpt>
      <trkpt lat="37.207818031311035" lon="-4.402750041335821">
        <ele>612.01999999999998</ele>
        <time>2025-05-10T10:51:13Z</time>
      </trkpt>
      <trkpt lat="37.207907969132066" lon="-4.402708970010281">
        <ele>611.53999999999996</ele>
        <time>2025-05-10T10:51:14Z</time>
      </trkpt>
      <trkpt lat="37.208026992157102" lon="-4.402655996382237">
        <ele>611.05999999999995</ele>
        <time>2025-05-10T10:51:15Z</time>
      </trkpt>
      <trkpt lat="37.20828004181385" lon="-4.402526998892427">
        <ele>610.09000000000003</ele>
        <time>2025-05-10T10:51:17Z</time>
      </trkpt>
      <trkpt lat="37.208391018211842" lon="-4.402429014444351">
        <ele>609.61000000000001</ele>
        <time>2025-05-10T10:51:18Z</time>
      </trkpt>
      <trkpt lat="37.208464024588466" lon="-4.402304962277412">
        <ele>609.13</ele>
        <time>2025-05-10T10:51:19Z</time>
      </trkpt>
      <trkpt lat="37.208505012094975" lon="-4.402166996151209">
        <ele>608.64999999999998</ele>
        <time>2025-05-10T10:51:20Z</time>
      </trkpt>
      <trkpt lat="37.208548011258245" lon="-4.40201997756958">
        <ele>608.16999999999996</ele>
        <time>2025-05-10T10:51:21Z</time>
      </trkpt>
      <trkpt lat="37.208548011258245" lon="-4.401901038363576">
        <ele>608.16999999999996</ele>
        <time>2025-05-10T10:51:22Z</time>
      </trkpt>
      <trkpt lat="37.208548011258245" lon="-4.401748990640044">
        <ele>608.16999999999996</ele>
        <time>2025-05-10T10:51:23Z</time>
      </trkpt>
      <trkpt lat="37.208548011258245" lon="-4.401569031178951">
        <ele>608.16999999999996</ele>
        <time>2025-05-10T10:51:24Z</time>
      </trkpt>
      <trkpt lat="37.208577012643218" lon="-4.401469035074115">
        <ele>608.64999999999998</ele>
        <time>2025-05-10T10:51:25Z</time>
      </trkpt>
      <trkpt lat="37.208630992099643" lon="-4.401340037584305">
        <ele>609.61000000000001</ele>
        <time>2025-05-10T10:51:26Z</time>
      </trkpt>
      <trkpt lat="37.208768036216497" lon="-4.401064021512866">
        <ele>610.57000000000005</ele>
        <time>2025-05-10T10:51:28Z</time>
      </trkpt>
      <trkpt lat="37.208840036764741" lon="-4.40092203207314">
        <ele>611.05999999999995</ele>
        <time>2025-05-10T10:51:29Z</time>
      </trkpt>
      <trkpt lat="37.208887981250882" lon="-4.400765961036086">
        <ele>611.05999999999995</ele>
        <time>2025-05-10T10:51:30Z</time>
      </trkpt>
      <trkpt lat="37.209168020635843" lon="-4.399266019463539">
        <ele>612.98000000000002</ele>
        <time>2025-05-10T10:51:38Z</time>
      </trkpt>
      <trkpt lat="37.209436995908618" lon="-4.398236973211169">
        <ele>618.25999999999999</ele>
        <time>2025-05-10T10:51:44Z</time>
      </trkpt>
      <trkpt lat="37.209521988406777" lon="-4.398107975721359">
        <ele>619.23000000000002</ele>
        <time>2025-05-10T10:51:45Z</time>
      </trkpt>
      <trkpt lat="37.209609998390079" lon="-4.397995993494988">
        <ele>620.19000000000005</ele>
        <time>2025-05-10T10:51:46Z</time>
      </trkpt>
      <trkpt lat="37.209692979231477" lon="-4.397891974076629">
        <ele>621.14999999999998</ele>
        <time>2025-05-10T10:51:47Z</time>
      </trkpt>
      <trkpt lat="37.20976497977972" lon="-4.397799018770456">
        <ele>622.11000000000001</ele>
        <time>2025-05-10T10:51:48Z</time>
      </trkpt>
      <trkpt lat="37.209831029176712" lon="-4.397716959938407">
        <ele>623.07000000000005</ele>
        <time>2025-05-10T10:51:49Z</time>
      </trkpt>
      <trkpt lat="37.209945023059845" lon="-4.397572036832571">
        <ele>624.99000000000001</ele>
        <time>2025-05-10T10:51:51Z</time>
      </trkpt>
      <trkpt lat="37.210006965324283" lon="-4.397491989657283">
        <ele>625.96000000000004</ele>
        <time>2025-05-10T10:51:52Z</time>
      </trkpt>
      <trkpt lat="37.210006965324283" lon="-4.397408002987504">
        <ele>626.44000000000005</ele>
        <time>2025-05-10T10:51:53Z</time>
      </trkpt>
      <trkpt lat="37.209997996687889" lon="-4.397288979962468">
        <ele>626.91999999999996</ele>
        <time>2025-05-10T10:51:54Z</time>
      </trkpt>
      <trkpt lat="37.209967989474535" lon="-4.397182026877999">
        <ele>627.39999999999998</ele>
        <time>2025-05-10T10:51:55Z</time>
      </trkpt>
      <trkpt lat="37.209938988089561" lon="-4.39707700163126">
        <ele>628.36000000000001</ele>
        <time>2025-05-10T10:51:56Z</time>
      </trkpt>
      <trkpt lat="37.209908980876207" lon="-4.396969964727759">
        <ele>629.79999999999995</ele>
        <time>2025-05-10T10:51:57Z</time>
      </trkpt>
      <trkpt lat="37.209877967834473" lon="-4.396860999986529">
        <ele>630.27999999999997</ele>
        <time>2025-05-10T10:51:58Z</time>
      </trkpt>
      <trkpt lat="37.209755005314946" lon="-4.396360013633966">
        <ele>634.13</ele>
        <time>2025-05-10T10:52:04Z</time>
      </trkpt>
      <trkpt lat="37.209755005314946" lon="-4.396360013633966">
        <ele>635.57000000000005</ele>
        <time>2025-05-10T10:52:13Z</time>
      </trkpt>
      <trkpt lat="37.209746958687901" lon="-4.396315002813935">
        <ele>636.04999999999995</ele>
        <time>2025-05-10T10:52:49Z</time>
      </trkpt>
      <trkpt lat="37.209674036130309" lon="-4.395922981202602">
        <ele>638.45000000000005</ele>
        <time>2025-05-10T10:52:54Z</time>
      </trkpt>
      <trkpt lat="37.209387961775064" lon="-4.394938023760915">
        <ele>641.34000000000003</ele>
        <time>2025-05-10T10:53:03Z</time>
      </trkpt>
      <trkpt lat="37.209323002025485" lon="-4.394681034609675">
        <ele>642.29999999999995</ele>
        <time>2025-05-10T10:53:05Z</time>
      </trkpt>
      <trkpt lat="37.209297018125653" lon="-4.394535021856427">
        <ele>643.25999999999999</ele>
        <time>2025-05-10T10:53:06Z</time>
      </trkpt>
      <trkpt lat="37.20922602340579" lon="-4.39387402497232">
        <ele>645.17999999999995</ele>
        <time>2025-05-10T10:53:10Z</time>
      </trkpt>
      <trkpt lat="37.209148993715644" lon="-4.39338200725615">
        <ele>647.10000000000002</ele>
        <time>2025-05-10T10:53:13Z</time>
      </trkpt>
      <trkpt lat="37.209134995937347" lon="-4.39323297701776">
        <ele>648.07000000000005</ele>
        <time>2025-05-10T10:53:14Z</time>
      </trkpt>
      <trkpt lat="37.209145976230502" lon="-4.393084030598402">
        <ele>648.54999999999995</ele>
        <time>2025-05-10T10:53:15Z</time>
      </trkpt>
      <trkpt lat="37.209192998707294" lon="-4.392944974824786">
        <ele>649.50999999999999</ele>
        <time>2025-05-10T10:53:16Z</time>
      </trkpt>
      <trkpt lat="37.20926801674068" lon="-4.392804997041822">
        <ele>649.99000000000001</ele>
        <time>2025-05-10T10:53:17Z</time>
      </trkpt>
      <trkpt lat="37.209348985925317" lon="-4.392658984288573">
        <ele>650.47000000000003</ele>
        <time>2025-05-10T10:53:18Z</time>
      </trkpt>
      <trkpt lat="37.209432972595096" lon="-4.392513977363706">
        <ele>650.47000000000003</ele>
        <time>2025-05-10T10:53:19Z</time>
      </trkpt>
      <trkpt lat="37.209499021992087" lon="-4.392354972660542">
        <ele>650.95000000000005</ele>
        <time>2025-05-10T10:53:20Z</time>
      </trkpt>
      <trkpt lat="37.20954998396337" lon="-4.39217995852232">
        <ele>651.42999999999995</ele>
        <time>2025-05-10T10:53:21Z</time>
      </trkpt>
      <trkpt lat="37.209695996716619" lon="-4.391650976613164">
        <ele>652.38999999999999</ele>
        <time>2025-05-10T10:53:24Z</time>
      </trkpt>
      <trkpt lat="37.209706977009773" lon="-4.391471017152071">
        <ele>652.38999999999999</ele>
        <time>2025-05-10T10:53:25Z</time>
      </trkpt>
      <trkpt lat="37.209700020030141" lon="-4.391302037984133">
        <ele>652.38999999999999</ele>
        <time>2025-05-10T10:53:26Z</time>
      </trkpt>
      <trkpt lat="37.209665989503264" lon="-4.391144961118698">
        <ele>652.87</ele>
        <time>2025-05-10T10:53:27Z</time>
      </trkpt>
      <trkpt lat="37.209633970633149" lon="-4.390999032184482">
        <ele>653.35000000000002</ele>
        <time>2025-05-10T10:53:28Z</time>
      </trkpt>
      <trkpt lat="37.209603041410446" lon="-4.390857964754105">
        <ele>653.83000000000004</ele>
        <time>2025-05-10T10:53:29Z</time>
      </trkpt>
      <trkpt lat="37.209627013653517" lon="-4.390708012506366">
        <ele>654.30999999999995</ele>
        <time>2025-05-10T10:53:30Z</time>
      </trkpt>
      <trkpt lat="37.209659032523632" lon="-4.390557976439595">
        <ele>655.27999999999997</ele>
        <time>2025-05-10T10:53:31Z</time>
      </trkpt>
      <trkpt lat="37.209691973403096" lon="-4.390402995049954">
        <ele>655.75999999999999</ele>
        <time>2025-05-10T10:53:32Z</time>
      </trkpt>
      <trkpt lat="37.209963966161013" lon="-4.389211004599929">
        <ele>662.00999999999999</ele>
        <time>2025-05-10T10:53:39Z</time>
      </trkpt>
      <trkpt lat="37.210033033043146" lon="-4.389042025431991">
        <ele>662.97000000000003</ele>
        <time>2025-05-10T10:53:40Z</time>
      </trkpt>
      <trkpt lat="37.210307959467173" lon="-4.388566017150879">
        <ele>665.85000000000002</ele>
        <time>2025-05-10T10:53:43Z</time>
      </trkpt>
      <trkpt lat="37.210683971643448" lon="-4.387591034173966">
        <ele>665.37</ele>
        <time>2025-05-10T10:53:50Z</time>
      </trkpt>
      <trkpt lat="37.210785979405046" lon="-4.387313006445766">
        <ele>664.88999999999999</ele>
        <time>2025-05-10T10:53:53Z</time>
      </trkpt>
      <trkpt lat="37.210813974961638" lon="-4.387235976755619">
        <ele>664.40999999999997</ele>
        <time>2025-05-10T10:53:54Z</time>
      </trkpt>
      <trkpt lat="37.21083995886147" lon="-4.387166993692517">
        <ele>663.92999999999995</ele>
        <time>2025-05-10T10:53:55Z</time>
      </trkpt>
      <trkpt lat="37.210862003266811" lon="-4.387105973437429">
        <ele>663.45000000000005</ele>
        <time>2025-05-10T10:53:56Z</time>
      </trkpt>
      <trkpt lat="37.210882036015391" lon="-4.387052999809384">
        <ele>662.97000000000003</ele>
        <time>2025-05-10T10:53:57Z</time>
      </trkpt>
      <trkpt lat="37.210898967459798" lon="-4.387005977332592">
        <ele>662.49000000000001</ele>
        <time>2025-05-10T10:53:58Z</time>
      </trkpt>
      <trkpt lat="37.210932997986674" lon="-4.386915033683181">
        <ele>661.51999999999998</ele>
        <time>2025-05-10T10:54:00Z</time>
      </trkpt>
      <trkpt lat="37.210950013250113" lon="-4.386869017034769">
        <ele>661.51999999999998</ele>
        <time>2025-05-10T10:54:01Z</time>
      </trkpt>
      <trkpt lat="37.210972979664803" lon="-4.3868069909513">
        <ele>661.51999999999998</ele>
        <time>2025-05-10T10:54:02Z</time>
      </trkpt>
      <trkpt lat="37.210977002978325" lon="-4.386780001223087">
        <ele>661.51999999999998</ele>
        <time>2025-05-10T10:54:03Z</time>
      </trkpt>
      <trkpt lat="37.210986977443099" lon="-4.386715963482857">
        <ele>661.03999999999996</ele>
        <time>2025-05-10T10:54:04Z</time>
      </trkpt>
      <trkpt lat="37.210998963564634" lon="-4.386639017611742">
        <ele>661.03999999999996</ele>
        <time>2025-05-10T10:54:05Z</time>
      </trkpt>
      <trkpt lat="37.211013967171311" lon="-4.386542961001396">
        <ele>661.03999999999996</ele>
        <time>2025-05-10T10:54:06Z</time>
      </trkpt>
      <trkpt lat="37.211032994091511" lon="-4.386426033452153">
        <ele>661.51999999999998</ele>
        <time>2025-05-10T10:54:07Z</time>
      </trkpt>
      <trkpt lat="37.211065012961626" lon="-4.386306004598737">
        <ele>662.00999999999999</ele>
        <time>2025-05-10T10:54:08Z</time>
      </trkpt>
      <trkpt lat="37.211107006296515" lon="-4.386170972138643">
        <ele>662.97000000000003</ele>
        <time>2025-05-10T10:54:09Z</time>
      </trkpt>
      <trkpt lat="37.211314039304852" lon="-4.385311994701624">
        <ele>666.80999999999995</ele>
        <time>2025-05-10T10:54:14Z</time>
      </trkpt>
      <trkpt lat="37.21133298240602" lon="-4.385096998885274">
        <ele>667.28999999999996</ele>
        <time>2025-05-10T10:54:15Z</time>
      </trkpt>
      <trkpt lat="37.211252013221383" lon="-4.384009027853608">
        <ele>674.01999999999998</ele>
        <time>2025-05-10T10:54:21Z</time>
      </trkpt>
      <trkpt lat="37.211261987686157" lon="-4.383944990113378">
        <ele>675.46000000000004</ele>
        <time>2025-05-10T10:54:22Z</time>
      </trkpt>
      <trkpt lat="37.211312027648091" lon="-4.383908025920391">
        <ele>676.90999999999997</ele>
        <time>2025-05-10T10:54:23Z</time>
      </trkpt>
      <trkpt lat="37.211366007104516" lon="-4.383895033970475">
        <ele>678.35000000000002</ele>
        <time>2025-05-10T10:54:24Z</time>
      </trkpt>
      <trkpt lat="37.211442030966282" lon="-4.383913977071643">
        <ele>680.26999999999998</ele>
        <time>2025-05-10T10:54:25Z</time>
      </trkpt>
      <trkpt lat="37.211518976837397" lon="-4.383942978456616">
        <ele>681.71000000000004</ele>
        <time>2025-05-10T10:54:26Z</time>
      </trkpt>
      <trkpt lat="37.21158997155726" lon="-4.384025959298015">
        <ele>683.63</ele>
        <time>2025-05-10T10:54:27Z</time>
      </trkpt>
      <trkpt lat="37.211672030389309" lon="-4.384123021736741">
        <ele>685.55999999999995</ele>
        <time>2025-05-10T10:54:28Z</time>
      </trkpt>
      <trkpt lat="37.212366973981261" lon="-4.384973030537367">
        <ele>698.52999999999997</ele>
        <time>2025-05-10T10:54:36Z</time>
      </trkpt>
      <trkpt lat="37.212507035583258" lon="-4.385150978341699">
        <ele>700.46000000000004</ele>
        <time>2025-05-10T10:54:38Z</time>
      </trkpt>
      <trkpt lat="37.212567972019315" lon="-4.3852199614048">
        <ele>701.41999999999996</ele>
        <time>2025-05-10T10:54:39Z</time>
      </trkpt>
      <trkpt lat="37.212621029466391" lon="-4.385229013860226">
        <ele>702.38</ele>
        <time>2025-05-10T10:54:40Z</time>
      </trkpt>
      <trkpt lat="37.212662016972899" lon="-4.385234965011478">
        <ele>703.34000000000003</ele>
        <time>2025-05-10T10:54:41Z</time>
      </trkpt>
      <trkpt lat="37.212705016136169" lon="-4.385206969454885">
        <ele>704.29999999999995</ele>
        <time>2025-05-10T10:54:42Z</time>
      </trkpt>
      <trkpt lat="37.212731000036001" lon="-4.385147960856557">
        <ele>705.25999999999999</ele>
        <time>2025-05-10T10:54:43Z</time>
      </trkpt>
      <trkpt lat="37.212765030562878" lon="-4.385073026642203">
        <ele>705.75</ele>
        <time>2025-05-10T10:54:44Z</time>
      </trkpt>
      <trkpt lat="37.212801994755864" lon="-4.384992979466915">
        <ele>706.71000000000004</ele>
        <time>2025-05-10T10:54:45Z</time>
      </trkpt>
      <trkpt lat="37.212838036939502" lon="-4.384913016110659">
        <ele>707.66999999999996</ele>
        <time>2025-05-10T10:54:46Z</time>
      </trkpt>
      <trkpt lat="37.212901990860701" lon="-4.384772032499313">
        <ele>709.59000000000003</ele>
        <time>2025-05-10T10:54:48Z</time>
      </trkpt>
      <trkpt lat="37.213075999170542" lon="-4.384639011695981">
        <ele>713.91999999999996</ele>
        <time>2025-05-10T10:54:53Z</time>
      </trkpt>
      <trkpt lat="37.213160991668701" lon="-4.384596012532711">
        <ele>714.88</ele>
        <time>2025-05-10T10:54:55Z</time>
      </trkpt>
      <trkpt lat="37.213189993053675" lon="-4.384564999490976">
        <ele>715.84000000000003</ele>
        <time>2025-05-10T10:54:56Z</time>
      </trkpt>
      <trkpt lat="37.213666001334786" lon="-4.384056972339749">
        <ele>717.27999999999997</ele>
        <time>2025-05-10T10:55:04Z</time>
      </trkpt>
      <trkpt lat="37.213761974126101" lon="-4.384026965126395">
        <ele>716.79999999999995</ele>
        <time>2025-05-10T10:55:05Z</time>
      </trkpt>
      <trkpt lat="37.214712984859943" lon="-4.383739968761802">
        <ele>713.91999999999996</ele>
        <time>2025-05-10T10:55:13Z</time>
      </trkpt>
      <trkpt lat="37.215136019513011" lon="-4.383695041760802">
        <ele>713.44000000000005</ele>
        <time>2025-05-10T10:55:17Z</time>
      </trkpt>
      <trkpt lat="37.215223023667932" lon="-4.383695041760802">
        <ele>712.95000000000005</ele>
        <time>2025-05-10T10:55:18Z</time>
      </trkpt>
      <trkpt lat="37.215320002287626" lon="-4.383695041760802">
        <ele>712.95000000000005</ele>
        <time>2025-05-10T10:55:19Z</time>
      </trkpt>
      <trkpt lat="37.215508008375764" lon="-4.383682971820235">
        <ele>711.99000000000001</ele>
        <time>2025-05-10T10:55:21Z</time>
      </trkpt>
      <trkpt lat="37.215603981167078" lon="-4.383677020668984">
        <ele>711.99000000000001</ele>
        <time>2025-05-10T10:55:22Z</time>
      </trkpt>
      <trkpt lat="37.215700037777424" lon="-4.383647013455629">
        <ele>711.50999999999999</ele>
        <time>2025-05-10T10:55:23Z</time>
      </trkpt>
      <trkpt lat="37.21579902805388" lon="-4.383593033999205">
        <ele>711.02999999999997</ele>
        <time>2025-05-10T10:55:24Z</time>
      </trkpt>
      <trkpt lat="37.215902963653207" lon="-4.383536037057638">
        <ele>711.02999999999997</ele>
        <time>2025-05-10T10:55:25Z</time>
      </trkpt>
      <trkpt lat="37.216008994728327" lon="-4.383478034287691">
        <ele>710.54999999999995</ele>
        <time>2025-05-10T10:55:26Z</time>
      </trkpt>
      <trkpt lat="37.216572007164359" lon="-4.383122976869345">
        <ele>710.07000000000005</ele>
        <time>2025-05-10T10:55:31Z</time>
      </trkpt>
      <trkpt lat="37.216801000759006" lon="-4.382908986881375">
        <ele>711.02999999999997</ele>
        <time>2025-05-10T10:55:33Z</time>
      </trkpt>
      <trkpt lat="37.216900996863842" lon="-4.382774038240314">
        <ele>711.50999999999999</ele>
        <time>2025-05-10T10:55:34Z</time>
      </trkpt>
      <trkpt lat="37.216989006847143" lon="-4.382624002173543">
        <ele>711.99000000000001</ele>
        <time>2025-05-10T10:55:35Z</time>
      </trkpt>
      <trkpt lat="37.217602981254458" lon="-4.381506023928523">
        <ele>718.72000000000003</ele>
        <time>2025-05-10T10:55:42Z</time>
      </trkpt>
      <trkpt lat="37.217715969309211" lon="-4.381368979811668">
        <ele>719.67999999999995</ele>
        <time>2025-05-10T10:55:43Z</time>
      </trkpt>
      <trkpt lat="37.217818982899189" lon="-4.381244005635381">
        <ele>720.64999999999998</ele>
        <time>2025-05-10T10:55:44Z</time>
      </trkpt>
      <trkpt lat="37.217909004539251" lon="-4.381139986217022">
        <ele>721.61000000000001</ele>
        <time>2025-05-10T10:55:45Z</time>
      </trkpt>
      <trkpt lat="37.218027021735907" lon="-4.38109296374023">
        <ele>722.57000000000005</ele>
        <time>2025-05-10T10:55:46Z</time>
      </trkpt>
      <trkpt lat="37.21814202144742" lon="-4.381048958748579">
        <ele>723.52999999999997</ele>
        <time>2025-05-10T10:55:47Z</time>
      </trkpt>
      <trkpt lat="37.218477968126535" lon="-4.38094099983573">
        <ele>725.92999999999995</ele>
        <time>2025-05-10T10:55:50Z</time>
      </trkpt>
      <trkpt lat="37.218591962009668" lon="-4.380929013714194">
        <ele>726.88999999999999</ele>
        <time>2025-05-10T10:55:51Z</time>
      </trkpt>
      <trkpt lat="37.218698998913169" lon="-4.380952985957265">
        <ele>727.37</ele>
        <time>2025-05-10T10:55:52Z</time>
      </trkpt>
      <trkpt lat="37.218801006674767" lon="-4.380982993170619">
        <ele>728.34000000000003</ele>
        <time>2025-05-10T10:55:53Z</time>
      </trkpt>
      <trkpt lat="37.218902008607984" lon="-4.381013000383973">
        <ele>728.82000000000005</ele>
        <time>2025-05-10T10:55:54Z</time>
      </trkpt>
      <trkpt lat="37.219378016889095" lon="-4.381098998710513">
        <ele>730.74000000000001</ele>
        <time>2025-05-10T10:55:58Z</time>
      </trkpt>
      <trkpt lat="37.219505002722144" lon="-4.381080977618694">
        <ele>730.74000000000001</ele>
        <time>2025-05-10T10:55:59Z</time>
      </trkpt>
      <trkpt lat="37.219630982726812" lon="-4.381058011204004">
        <ele>731.22000000000003</ele>
        <time>2025-05-10T10:56:00Z</time>
      </trkpt>
      <trkpt lat="37.219742964953184" lon="-4.380988022312522">
        <ele>731.70000000000005</ele>
        <time>2025-05-10T10:56:01Z</time>
      </trkpt>
      <trkpt lat="37.219853019341826" lon="-4.380909986793995">
        <ele>732.17999999999995</ele>
        <time>2025-05-10T10:56:02Z</time>
      </trkpt>
      <trkpt lat="37.219953015446663" lon="-4.380818037316203">
        <ele>733.13999999999999</ele>
        <time>2025-05-10T10:56:03Z</time>
      </trkpt>
      <trkpt lat="37.220134986564517" lon="-4.380632964894176">
        <ele>735.07000000000005</ele>
        <time>2025-05-10T10:56:05Z</time>
      </trkpt>
      <trkpt lat="37.220204975455999" lon="-4.380515031516552">
        <ele>736.02999999999997</ele>
        <time>2025-05-10T10:56:06Z</time>
      </trkpt>
      <trkpt lat="37.220277981832623" lon="-4.380389973521233">
        <ele>736.50999999999999</ele>
        <time>2025-05-10T10:56:07Z</time>
      </trkpt>
      <trkpt lat="37.220342019572854" lon="-4.380256030708551">
        <ele>737.47000000000003</ele>
        <time>2025-05-10T10:56:08Z</time>
      </trkpt>
      <trkpt lat="37.220388958230615" lon="-4.380097026005387">
        <ele>737.95000000000005</ele>
        <time>2025-05-10T10:56:09Z</time>
      </trkpt>
      <trkpt lat="37.220436986535788" lon="-4.37993299216032">
        <ele>738.90999999999997</ele>
        <time>2025-05-10T10:56:10Z</time>
      </trkpt>
      <trkpt lat="37.221004022285342" lon="-4.37836498953402">
        <ele>746.12</ele>
        <time>2025-05-10T10:56:19Z</time>
      </trkpt>
      <trkpt lat="37.221079040318727" lon="-4.37819299288094">
        <ele>747.08000000000004</ele>
        <time>2025-05-10T10:56:20Z</time>
      </trkpt>
      <trkpt lat="37.221251036971807" lon="-4.377486985176802">
        <ele>750.45000000000005</ele>
        <time>2025-05-10T10:56:24Z</time>
      </trkpt>
      <trkpt lat="37.221251036971807" lon="-4.377300990745425">
        <ele>750.92999999999995</ele>
        <time>2025-05-10T10:56:25Z</time>
      </trkpt>
      <trkpt lat="37.221122039481997" lon="-4.376009004190564">
        <ele>758.13999999999999</ele>
        <time>2025-05-10T10:56:32Z</time>
      </trkpt>
      <trkpt lat="37.221126984804869" lon="-4.37584899365902">
        <ele>759.10000000000002</ele>
        <time>2025-05-10T10:56:33Z</time>
      </trkpt>
      <trkpt lat="37.221178030595183" lon="-4.375695018097758">
        <ele>760.05999999999995</ele>
        <time>2025-05-10T10:56:34Z</time>
      </trkpt>
      <trkpt lat="37.221404006704688" lon="-4.374837968498468">
        <ele>765.83000000000004</ele>
        <time>2025-05-10T10:56:39Z</time>
      </trkpt>
      <trkpt lat="37.221438959240913" lon="-4.374704025685787">
        <ele>766.30999999999995</ele>
        <time>2025-05-10T10:56:40Z</time>
      </trkpt>
      <trkpt lat="37.221399983391166" lon="-4.374571004882455">
        <ele>767.26999999999998</ele>
        <time>2025-05-10T10:56:41Z</time>
      </trkpt>
      <trkpt lat="37.221353966742754" lon="-4.374451981857419">
        <ele>767.75</ele>
        <time>2025-05-10T10:56:42Z</time>
      </trkpt>
      <trkpt lat="37.221303004771471" lon="-4.374321978539228">
        <ele>768.23000000000002</ele>
        <time>2025-05-10T10:56:43Z</time>
      </trkpt>
      <trkpt lat="37.221251958981156" lon="-4.374191975221038">
        <ele>768.71000000000004</ele>
        <time>2025-05-10T10:56:44Z</time>
      </trkpt>
      <trkpt lat="37.221251036971807" lon="-4.374056020751596">
        <ele>769.19000000000005</ele>
        <time>2025-05-10T10:56:45Z</time>
      </trkpt>
      <trkpt lat="37.221267968416214" lon="-4.373924005776644">
        <ele>769.66999999999996</ele>
        <time>2025-05-10T10:56:46Z</time>
      </trkpt>
      <trkpt lat="37.22130199894309" lon="-4.373776987195015">
        <ele>770.14999999999998</ele>
        <time>2025-05-10T10:56:47Z</time>
      </trkpt>
      <trkpt lat="37.221338041126728" lon="-4.373618988320231">
        <ele>770.63</ele>
        <time>2025-05-10T10:56:48Z</time>
      </trkpt>
      <trkpt lat="37.221378022804856" lon="-4.373446991667152">
        <ele>771.11000000000001</ele>
        <time>2025-05-10T10:56:49Z</time>
      </trkpt>
      <trkpt lat="37.221807008609176" lon="-4.371773041784763">
        <ele>776.88</ele>
        <time>2025-05-10T10:56:58Z</time>
      </trkpt>
      <trkpt lat="37.222146978601813" lon="-4.369448991492391">
        <ele>786.5</ele>
        <time>2025-05-10T10:57:09Z</time>
      </trkpt>
      <trkpt lat="37.222641007974744" lon="-4.368077963590622">
        <ele>794.19000000000005</ele>
        <time>2025-05-10T10:57:16Z</time>
      </trkpt>
      <trkpt lat="37.222688030451536" lon="-4.36790001578629">
        <ele>795.14999999999998</ele>
        <time>2025-05-10T10:57:17Z</time>
      </trkpt>
      <trkpt lat="37.222718959674239" lon="-4.367732964456081">
        <ele>796.11000000000001</ele>
        <time>2025-05-10T10:57:18Z</time>
      </trkpt>
      <trkpt lat="37.222723988816142" lon="-4.367573037743568">
        <ele>796.59000000000003</ele>
        <time>2025-05-10T10:57:19Z</time>
      </trkpt>
      <trkpt lat="37.222709991037846" lon="-4.367409003898501">
        <ele>797.54999999999995</ele>
        <time>2025-05-10T10:57:20Z</time>
      </trkpt>
      <trkpt lat="37.222669003531337" lon="-4.367267014458776">
        <ele>797.54999999999995</ele>
        <time>2025-05-10T10:57:21Z</time>
      </trkpt>
      <trkpt lat="37.222627010196447" lon="-4.367121001705527">
        <ele>798.02999999999997</ele>
        <time>2025-05-10T10:57:22Z</time>
      </trkpt>
      <trkpt lat="37.222517039626837" lon="-4.366598976776004">
        <ele>798.50999999999999</ele>
        <time>2025-05-10T10:57:27Z</time>
      </trkpt>
      <trkpt lat="37.222517039626837" lon="-4.366535022854805">
        <ele>798.50999999999999</ele>
        <time>2025-05-10T10:57:28Z</time>
      </trkpt>
      <trkpt lat="37.22252600826323" lon="-4.366033030673862">
        <ele>799.95000000000005</ele>
        <time>2025-05-10T10:57:34Z</time>
      </trkpt>
      <trkpt lat="37.222534976899624" lon="-4.365943009033799">
        <ele>799.47000000000003</ele>
        <time>2025-05-10T10:57:35Z</time>
      </trkpt>
      <trkpt lat="37.222554003819823" lon="-4.365747040137649">
        <ele>798.50999999999999</ele>
        <time>2025-05-10T10:57:38Z</time>
      </trkpt>
      <trkpt lat="37.222560038790107" lon="-4.365693982690573">
        <ele>798.50999999999999</ele>
        <time>2025-05-10T10:57:39Z</time>
      </trkpt>
      <trkpt lat="37.222580993548036" lon="-4.36557998880744">
        <ele>797.07000000000005</ele>
        <time>2025-05-10T10:57:48Z</time>
      </trkpt>
      <trkpt lat="37.222580993548036" lon="-4.36557998880744">
        <ele>797.07000000000005</ele>
        <time>2025-05-10T10:58:26Z</time>
      </trkpt>
      <trkpt lat="37.22265500575304" lon="-4.365178998559713">
        <ele>795.63</ele>
        <time>2025-05-10T10:58:38Z</time>
      </trkpt>
      <trkpt lat="37.222684007138014" lon="-4.365024017170072">
        <ele>795.14999999999998</ele>
        <time>2025-05-10T10:58:39Z</time>
      </trkpt>
      <trkpt lat="37.222716026008129" lon="-4.364854032173753">
        <ele>794.66999999999996</ele>
        <time>2025-05-10T10:58:40Z</time>
      </trkpt>
      <trkpt lat="37.222716026008129" lon="-4.364674994722009">
        <ele>793.71000000000004</ele>
        <time>2025-05-10T10:58:41Z</time>
      </trkpt>
      <trkpt lat="37.222684007138014" lon="-4.364472990855575">
        <ele>793.71000000000004</ele>
        <time>2025-05-10T10:58:42Z</time>
      </trkpt>
      <trkpt lat="37.222648970782757" lon="-4.364255983382464">
        <ele>793.22000000000003</ele>
        <time>2025-05-10T10:58:43Z</time>
      </trkpt>
      <trkpt lat="37.222320986911654" lon="-4.362281039357185">
        <ele>797.54999999999995</ele>
        <time>2025-05-10T10:58:52Z</time>
      </trkpt>
      <trkpt lat="37.222365997731686" lon="-4.360802974551916">
        <ele>799.95000000000005</ele>
        <time>2025-05-10T10:58:59Z</time>
      </trkpt>
      <trkpt lat="37.222424000501633" lon="-4.360436014831066">
        <ele>800.91999999999996</ele>
        <time>2025-05-10T10:59:01Z</time>
      </trkpt>
      <trkpt lat="37.222488038241863" lon="-4.360278015956283">
        <ele>800.91999999999996</ele>
        <time>2025-05-10T10:59:02Z</time>
      </trkpt>
      <trkpt lat="37.222566995769739" lon="-4.360120017081499">
        <ele>800.91999999999996</ele>
        <time>2025-05-10T10:59:03Z</time>
      </trkpt>
      <trkpt lat="37.222669003531337" lon="-4.359983978793025">
        <ele>800.91999999999996</ele>
        <time>2025-05-10T10:59:04Z</time>
      </trkpt>
      <trkpt lat="37.222775034606457" lon="-4.359853975474834">
        <ele>801.39999999999998</ele>
        <time>2025-05-10T10:59:05Z</time>
      </trkpt>
      <trkpt lat="37.222881987690926" lon="-4.359738975763321">
        <ele>801.39999999999998</ele>
        <time>2025-05-10T10:59:06Z</time>
      </trkpt>
      <trkpt lat="37.223006961867213" lon="-4.359680972993374">
        <ele>801.88</ele>
        <time>2025-05-10T10:59:07Z</time>
      </trkpt>
      <trkpt lat="37.223138976842165" lon="-4.359620036557317">
        <ele>801.88</ele>
        <time>2025-05-10T10:59:08Z</time>
      </trkpt>
      <trkpt lat="37.223266968503594" lon="-4.359620036557317">
        <ele>802.36000000000001</ele>
        <time>2025-05-10T10:59:09Z</time>
      </trkpt>
      <trkpt lat="37.223403006792068" lon="-4.359620036557317">
        <ele>802.36000000000001</ele>
        <time>2025-05-10T10:59:10Z</time>
      </trkpt>
      <trkpt lat="37.22353502176702" lon="-4.359676027670503">
        <ele>802.84000000000003</ele>
        <time>2025-05-10T10:59:11Z</time>
      </trkpt>
      <trkpt lat="37.223665025085211" lon="-4.35973796993494">
        <ele>803.32000000000005</ele>
        <time>2025-05-10T10:59:12Z</time>
      </trkpt>
      <trkpt lat="37.223796034231782" lon="-4.359802007675171">
        <ele>804.27999999999997</ele>
        <time>2025-05-10T10:59:13Z</time>
      </trkpt>
      <trkpt lat="37.223926959559321" lon="-4.359865039587021">
        <ele>804.27999999999997</ele>
        <time>2025-05-10T10:59:14Z</time>
      </trkpt>
      <trkpt lat="37.224040031433105" lon="-4.359920024871826">
        <ele>804.75999999999999</ele>
        <time>2025-05-10T10:59:15Z</time>
      </trkpt>
      <trkpt lat="37.224171040579677" lon="-4.35992899350822">
        <ele>804.75999999999999</ele>
        <time>2025-05-10T10:59:16Z</time>
      </trkpt>
      <trkpt lat="37.22428796812892" lon="-4.359937962144613">
        <ele>804.75999999999999</ele>
        <time>2025-05-10T10:59:17Z</time>
      </trkpt>
      <trkpt lat="37.224387964233756" lon="-4.359912984073162">
        <ele>804.75999999999999</ele>
        <time>2025-05-10T10:59:18Z</time>
      </trkpt>
      <trkpt lat="37.224496006965637" lon="-4.359846012666822">
        <ele>804.27999999999997</ele>
        <time>2025-05-10T10:59:19Z</time>
      </trkpt>
      <trkpt lat="37.224612012505531" lon="-4.359775017946959">
        <ele>804.27999999999997</ele>
        <time>2025-05-10T10:59:20Z</time>
      </trkpt>
      <trkpt lat="37.224706979468465" lon="-4.359657000750303">
        <ele>803.32000000000005</ele>
        <time>2025-05-10T10:59:21Z</time>
      </trkpt>
      <trkpt lat="37.224806975573301" lon="-4.359526997432113">
        <ele>802.84000000000003</ele>
        <time>2025-05-10T10:59:22Z</time>
      </trkpt>
      <trkpt lat="37.225725967437029" lon="-4.358418993651867">
        <ele>791.29999999999995</ele>
        <time>2025-05-10T10:59:30Z</time>
      </trkpt>
      <trkpt lat="37.225837027654052" lon="-4.358316985890269">
        <ele>789.38</ele>
        <time>2025-05-10T10:59:31Z</time>
      </trkpt>
      <trkpt lat="37.225953033193946" lon="-4.358283039182425">
        <ele>787.94000000000005</ele>
        <time>2025-05-10T10:59:32Z</time>
      </trkpt>
      <trkpt lat="37.226054035127163" lon="-4.358272980898619">
        <ele>786.5</ele>
        <time>2025-05-10T10:59:33Z</time>
      </trkpt>
      <trkpt lat="37.226154031231999" lon="-4.358284967020154">
        <ele>785.52999999999997</ele>
        <time>2025-05-10T10:59:34Z</time>
      </trkpt>
      <trkpt lat="37.22624103538692" lon="-4.35834095813334">
        <ele>785.04999999999995</ele>
        <time>2025-05-10T10:59:35Z</time>
      </trkpt>
      <trkpt lat="37.226340025663376" lon="-4.358436008915305">
        <ele>784.09000000000003</ele>
        <time>2025-05-10T10:59:36Z</time>
      </trkpt>
      <trkpt lat="37.226453013718128" lon="-4.358542961999774">
        <ele>783.13</ele>
        <time>2025-05-10T10:59:37Z</time>
      </trkpt>
      <trkpt lat="37.226842017844319" lon="-4.358871029689908">
        <ele>779.76999999999998</ele>
        <time>2025-05-10T10:59:40Z</time>
      </trkpt>
      <trkpt lat="37.226979983970523" lon="-4.358946969732642">
        <ele>778.32000000000005</ele>
        <time>2025-05-10T10:59:41Z</time>
      </trkpt>
      <trkpt lat="37.227118033915758" lon="-4.359004972502589">
        <ele>777.36000000000001</ele>
        <time>2025-05-10T10:59:42Z</time>
      </trkpt>
      <trkpt lat="37.227656990289688" lon="-4.359105974435806">
        <ele>774.48000000000002</ele>
        <time>2025-05-10T10:59:46Z</time>
      </trkpt>
      <trkpt lat="37.227774001657963" lon="-4.359126007184386">
        <ele>774</ele>
        <time>2025-05-10T10:59:47Z</time>
      </trkpt>
      <trkpt lat="37.227914985269308" lon="-4.359073033556342">
        <ele>773.51999999999998</ele>
        <time>2025-05-10T10:59:48Z</time>
      </trkpt>
      <trkpt lat="37.228704979643226" lon="-4.358731973916292">
        <ele>769.19000000000005</ele>
        <time>2025-05-10T10:59:54Z</time>
      </trkpt>
      <trkpt lat="37.228783015161753" lon="-4.358654022216797">
        <ele>768.71000000000004</ele>
        <time>2025-05-10T10:59:55Z</time>
      </trkpt>
      <trkpt lat="37.228814028203487" lon="-4.358507003635168">
        <ele>768.23000000000002</ele>
        <time>2025-05-10T10:59:56Z</time>
      </trkpt>
      <trkpt lat="37.228846969082952" lon="-4.358354033902288">
        <ele>766.78999999999996</ele>
        <time>2025-05-10T10:59:57Z</time>
      </trkpt>
      <trkpt lat="37.228825008496642" lon="-4.358254037797451">
        <ele>765.83000000000004</ele>
        <time>2025-05-10T10:59:58Z</time>
      </trkpt>
      <trkpt lat="37.228782009333372" lon="-4.358122022822499">
        <ele>764.38999999999999</ele>
        <time>2025-05-10T10:59:59Z</time>
      </trkpt>
      <trkpt lat="37.22871302627027" lon="-4.357998976483941">
        <ele>763.89999999999998</ele>
        <time>2025-05-10T11:00:00Z</time>
      </trkpt>
      <trkpt lat="37.228638008236885" lon="-4.35786503367126">
        <ele>762.94000000000005</ele>
        <time>2025-05-10T11:00:01Z</time>
      </trkpt>
      <trkpt lat="37.228051023557782" lon="-4.356843028217554">
        <ele>757.17999999999995</ele>
        <time>2025-05-10T11:00:08Z</time>
      </trkpt>
      <trkpt lat="37.227988997474313" lon="-4.356719981878996">
        <ele>756.69000000000005</ele>
        <time>2025-05-10T11:00:09Z</time>
      </trkpt>
      <trkpt lat="37.227977011352777" lon="-4.356575980782509">
        <ele>755.73000000000002</ele>
        <time>2025-05-10T11:00:10Z</time>
      </trkpt>
      <trkpt lat="37.227970976382494" lon="-4.356420999392867">
        <ele>754.76999999999998</ele>
        <time>2025-05-10T11:00:11Z</time>
      </trkpt>
      <trkpt lat="37.227996960282326" lon="-4.356252020224929">
        <ele>753.80999999999995</ele>
        <time>2025-05-10T11:00:12Z</time>
      </trkpt>
      <trkpt lat="37.228025961667299" lon="-4.356068037450314">
        <ele>753.33000000000004</ele>
        <time>2025-05-10T11:00:13Z</time>
      </trkpt>
      <trkpt lat="37.228137021884322" lon="-4.355320036411285">
        <ele>751.40999999999997</ele>
        <time>2025-05-10T11:00:17Z</time>
      </trkpt>
      <trkpt lat="37.228123024106026" lon="-4.355127001181245">
        <ele>750.45000000000005</ele>
        <time>2025-05-10T11:00:18Z</time>
      </trkpt>
      <trkpt lat="37.228031996637583" lon="-4.354104995727539">
        <ele>744.67999999999995</ele>
        <time>2025-05-10T11:00:23Z</time>
      </trkpt>
      <trkpt lat="37.227956978604198" lon="-4.353943979367614">
        <ele>743.24000000000001</ele>
        <time>2025-05-10T11:00:24Z</time>
      </trkpt>
      <trkpt lat="37.227549031376839" lon="-4.35290303081274">
        <ele>739.38999999999999</ele>
        <time>2025-05-10T11:00:30Z</time>
      </trkpt>
      <trkpt lat="37.227528998628259" lon="-4.352744026109576">
        <ele>739.87</ele>
        <time>2025-05-10T11:00:31Z</time>
      </trkpt>
      <trkpt lat="37.227524975314736" lon="-4.352573035284877">
        <ele>739.87</ele>
        <time>2025-05-10T11:00:32Z</time>
      </trkpt>
      <trkpt lat="37.227548025548458" lon="-4.35238896869123">
        <ele>740.35000000000002</ele>
        <time>2025-05-10T11:00:33Z</time>
      </trkpt>
      <trkpt lat="37.227570991963148" lon="-4.352196017280221">
        <ele>740.35000000000002</ele>
        <time>2025-05-10T11:00:34Z</time>
      </trkpt>
      <trkpt lat="37.227638969197869" lon="-4.351816987618804">
        <ele>740.83000000000004</ele>
        <time>2025-05-10T11:00:36Z</time>
      </trkpt>
      <trkpt lat="37.227694038301706" lon="-4.35163602232933">
        <ele>740.83000000000004</ele>
        <time>2025-05-10T11:00:37Z</time>
      </trkpt>
      <trkpt lat="37.227750029414892" lon="-4.351451033726335">
        <ele>740.83000000000004</ele>
        <time>2025-05-10T11:00:38Z</time>
      </trkpt>
      <trkpt lat="37.227804008871317" lon="-4.35127099044621">
        <ele>740.83000000000004</ele>
        <time>2025-05-10T11:00:39Z</time>
      </trkpt>
      <trkpt lat="37.2278549708426" lon="-4.351103017106652">
        <ele>740.83000000000004</ele>
        <time>2025-05-10T11:00:40Z</time>
      </trkpt>
      <trkpt lat="37.227881038561463" lon="-4.350923979654908">
        <ele>740.83000000000004</ele>
        <time>2025-05-10T11:00:41Z</time>
      </trkpt>
      <trkpt lat="37.227881038561463" lon="-4.350722981616855">
        <ele>740.83000000000004</ele>
        <time>2025-05-10T11:00:42Z</time>
      </trkpt>
      <trkpt lat="37.227881038561463" lon="-4.35051703825593">
        <ele>740.83000000000004</ele>
        <time>2025-05-10T11:00:43Z</time>
      </trkpt>
      <trkpt lat="37.227881038561463" lon="-4.349519005045295">
        <ele>737.95000000000005</ele>
        <time>2025-05-10T11:00:48Z</time>
      </trkpt>
      <trkpt lat="37.22791800275445" lon="-4.349333010613918">
        <ele>736.99000000000001</ele>
        <time>2025-05-10T11:00:49Z</time>
      </trkpt>
      <trkpt lat="37.227958990260959" lon="-4.349135030061007">
        <ele>736.02999999999997</ele>
        <time>2025-05-10T11:00:50Z</time>
      </trkpt>
      <trkpt lat="37.228000983595848" lon="-4.348931014537811">
        <ele>735.07000000000005</ele>
        <time>2025-05-10T11:00:51Z</time>
      </trkpt>
      <trkpt lat="37.228031996637583" lon="-4.348717024549842">
        <ele>734.10000000000002</ele>
        <time>2025-05-10T11:00:52Z</time>
      </trkpt>
      <trkpt lat="37.228031996637583" lon="-4.348508985713124">
        <ele>732.65999999999997</ele>
        <time>2025-05-10T11:00:53Z</time>
      </trkpt>
      <trkpt lat="37.228031996637583" lon="-4.348309999331832">
        <ele>731.70000000000005</ele>
        <time>2025-05-10T11:00:54Z</time>
      </trkpt>
      <trkpt lat="37.22800500690937" lon="-4.348130039870739">
        <ele>730.25999999999999</ele>
        <time>2025-05-10T11:00:55Z</time>
      </trkpt>
      <trkpt lat="37.227959996089339" lon="-4.347970029339194">
        <ele>729.29999999999995</ele>
        <time>2025-05-10T11:00:56Z</time>
      </trkpt>
      <trkpt lat="37.227912973612547" lon="-4.347800966352224">
        <ele>727.86000000000001</ele>
        <time>2025-05-10T11:00:57Z</time>
      </trkpt>
      <trkpt lat="37.227862011641264" lon="-4.347620001062751">
        <ele>726.88999999999999</ele>
        <time>2025-05-10T11:00:58Z</time>
      </trkpt>
      <trkpt lat="37.22780903801322" lon="-4.347431994974613">
        <ele>726.40999999999997</ele>
        <time>2025-05-10T11:00:59Z</time>
      </trkpt>
      <trkpt lat="37.227755980566144" lon="-4.347242983058095">
        <ele>725.45000000000005</ele>
        <time>2025-05-10T11:01:00Z</time>
      </trkpt>
      <trkpt lat="37.227590018883348" lon="-4.346507973968983">
        <ele>722.57000000000005</ele>
        <time>2025-05-10T11:01:04Z</time>
      </trkpt>
      <trkpt lat="37.227570991963148" lon="-4.346321979537606">
        <ele>721.61000000000001</ele>
        <time>2025-05-10T11:01:05Z</time>
      </trkpt>
      <trkpt lat="37.227504020556808" lon="-4.345752010121942">
        <ele>719.67999999999995</ele>
        <time>2025-05-10T11:01:08Z</time>
      </trkpt>
      <trkpt lat="37.227173019200563" lon="-4.344509979709983">
        <ele>714.39999999999998</ele>
        <time>2025-05-10T11:01:15Z</time>
      </trkpt>
      <trkpt lat="37.227173019200563" lon="-4.344382993876934">
        <ele>713.91999999999996</ele>
        <time>2025-05-10T11:01:16Z</time>
      </trkpt>
      <trkpt lat="37.227193973958492" lon="-4.344274029135704">
        <ele>713.44000000000005</ele>
        <time>2025-05-10T11:01:17Z</time>
      </trkpt>
      <trkpt lat="37.227233033627272" lon="-4.344146037474275">
        <ele>712.95000000000005</ele>
        <time>2025-05-10T11:01:18Z</time>
      </trkpt>
      <trkpt lat="37.227277038618922" lon="-4.344002958387137">
        <ele>711.99000000000001</ele>
        <time>2025-05-10T11:01:19Z</time>
      </trkpt>
      <trkpt lat="37.227412993088365" lon="-4.343511024489999">
        <ele>709.59000000000003</ele>
        <time>2025-05-10T11:01:22Z</time>
      </trkpt>
      <trkpt lat="37.227436965331435" lon="-4.343100981786847">
        <ele>707.19000000000005</ele>
        <time>2025-05-10T11:01:24Z</time>
      </trkpt>
      <trkpt lat="37.22761700861156" lon="-4.341588970273733">
        <ele>698.52999999999997</ele>
        <time>2025-05-10T11:01:31Z</time>
      </trkpt>
      <trkpt lat="37.227623965591192" lon="-4.341401970013976">
        <ele>697.09000000000003</ele>
        <time>2025-05-10T11:01:32Z</time>
      </trkpt>
      <trkpt lat="37.227581972256303" lon="-4.341199966147542">
        <ele>696.13</ele>
        <time>2025-05-10T11:01:33Z</time>
      </trkpt>
      <trkpt lat="37.227541990578175" lon="-4.341006008908153">
        <ele>695.16999999999996</ele>
        <time>2025-05-10T11:01:34Z</time>
      </trkpt>
      <trkpt lat="37.227306040003896" lon="-4.339492991566658">
        <ele>686.03999999999996</ele>
        <time>2025-05-10T11:01:41Z</time>
      </trkpt>
      <trkpt lat="37.227328000590205" lon="-4.339290987700224">
        <ele>685.55999999999995</ele>
        <time>2025-05-10T11:01:42Z</time>
      </trkpt>
      <trkpt lat="37.227431014180183" lon="-4.338716994971037">
        <ele>682.19000000000005</ele>
        <time>2025-05-10T11:01:45Z</time>
      </trkpt>
      <trkpt lat="37.228041971102357" lon="-4.337066011503339">
        <ele>676.90999999999997</ele>
        <time>2025-05-10T11:01:54Z</time>
      </trkpt>
      <trkpt lat="37.22830499522388" lon="-4.336599977687001">
        <ele>675.94000000000005</ele>
        <time>2025-05-10T11:01:57Z</time>
      </trkpt>
      <trkpt lat="37.228365009650588" lon="-4.336436027660966">
        <ele>675.46000000000004</ele>
        <time>2025-05-10T11:01:58Z</time>
      </trkpt>
      <trkpt lat="37.22841395996511" lon="-4.336263025179505">
        <ele>674.98000000000002</ele>
        <time>2025-05-10T11:01:59Z</time>
      </trkpt>
      <trkpt lat="37.228567013517022" lon="-4.335718033835292">
        <ele>672.10000000000002</ele>
        <time>2025-05-10T11:02:02Z</time>
      </trkpt>
      <trkpt lat="37.228644965216517" lon="-4.335561962798238">
        <ele>671.13999999999999</ele>
        <time>2025-05-10T11:02:03Z</time>
      </trkpt>
      <trkpt lat="37.228721994906664" lon="-4.335406981408596">
        <ele>670.17999999999995</ele>
        <time>2025-05-10T11:02:04Z</time>
      </trkpt>
      <trkpt lat="37.229205965995789" lon="-4.334083981812">
        <ele>658.63999999999999</ele>
        <time>2025-05-10T11:02:12Z</time>
      </trkpt>
      <trkpt lat="37.229212000966072" lon="-4.333896981552243">
        <ele>657.20000000000005</ele>
        <time>2025-05-10T11:02:13Z</time>
      </trkpt>
      <trkpt lat="37.229212000966072" lon="-4.333711992949247">
        <ele>655.27999999999997</ele>
        <time>2025-05-10T11:02:14Z</time>
      </trkpt>
      <trkpt lat="37.229195991531014" lon="-4.333531027659774">
        <ele>653.83000000000004</ele>
        <time>2025-05-10T11:02:15Z</time>
      </trkpt>
      <trkpt lat="37.229153998196125" lon="-4.333365987986326">
        <ele>652.38999999999999</ele>
        <time>2025-05-10T11:02:16Z</time>
      </trkpt>
      <trkpt lat="37.229113010689616" lon="-4.333204971626401">
        <ele>651.42999999999995</ele>
        <time>2025-05-10T11:02:17Z</time>
      </trkpt>
      <trkpt lat="37.229074034839869" lon="-4.33305200189352">
        <ele>649.99000000000001</ele>
        <time>2025-05-10T11:02:18Z</time>
      </trkpt>
      <trkpt lat="37.228888962417841" lon="-4.33227801695466">
        <ele>644.70000000000005</ele>
        <time>2025-05-10T11:02:24Z</time>
      </trkpt>
      <trkpt lat="37.228876976296306" lon="-4.332169974222779">
        <ele>644.22000000000003</ele>
        <time>2025-05-10T11:02:25Z</time>
      </trkpt>
      <trkpt lat="37.228868007659912" lon="-4.332089005038142">
        <ele>643.74000000000001</ele>
        <time>2025-05-10T11:02:26Z</time>
      </trkpt>
      <trkpt lat="37.228825008496642" lon="-4.331974005326629">
        <ele>643.25999999999999</ele>
        <time>2025-05-10T11:02:27Z</time>
      </trkpt>
      <trkpt lat="37.228785026818514" lon="-4.33189001865685">
        <ele>642.77999999999997</ele>
        <time>2025-05-10T11:02:28Z</time>
      </trkpt>
      <trkpt lat="37.228717971593142" lon="-4.331789016723633">
        <ele>642.29999999999995</ele>
        <time>2025-05-10T11:02:29Z</time>
      </trkpt>
      <trkpt lat="37.228657035157084" lon="-4.331743000075221">
        <ele>642.29999999999995</ele>
        <time>2025-05-10T11:02:30Z</time>
      </trkpt>
      <trkpt lat="37.227732008323073" lon="-4.331184010952711">
        <ele>640.86000000000001</ele>
        <time>2025-05-10T11:02:41Z</time>
      </trkpt>
      <trkpt lat="37.227611979469657" lon="-4.331160960718989">
        <ele>641.34000000000003</ele>
        <time>2025-05-10T11:02:42Z</time>
      </trkpt>
      <trkpt lat="37.22748901695013" lon="-4.331137994304299">
        <ele>641.82000000000005</ele>
        <time>2025-05-10T11:02:43Z</time>
      </trkpt>
      <trkpt lat="37.227244013920426" lon="-4.331089965999126">
        <ele>643.74000000000001</ele>
        <time>2025-05-10T11:02:45Z</time>
      </trkpt>
      <trkpt lat="37.227121973410249" lon="-4.331101030111313">
        <ele>644.70000000000005</ele>
        <time>2025-05-10T11:02:46Z</time>
      </trkpt>
      <trkpt lat="37.227000016719103" lon="-4.331133970990777">
        <ele>645.17999999999995</ele>
        <time>2025-05-10T11:02:47Z</time>
      </trkpt>
      <trkpt lat="37.226880993694067" lon="-4.331195997074246">
        <ele>646.13999999999999</ele>
        <time>2025-05-10T11:02:48Z</time>
      </trkpt>
      <trkpt lat="37.226766999810934" lon="-4.331269003450871">
        <ele>646.62</ele>
        <time>2025-05-10T11:02:49Z</time>
      </trkpt>
      <trkpt lat="37.226652000099421" lon="-4.331344021484256">
        <ele>647.59000000000003</ele>
        <time>2025-05-10T11:02:50Z</time>
      </trkpt>
      <trkpt lat="37.226254027336836" lon="-4.331601010635495">
        <ele>649.99000000000001</ele>
        <time>2025-05-10T11:02:54Z</time>
      </trkpt>
      <trkpt lat="37.226184960454702" lon="-4.331590030342341">
        <ele>650.47000000000003</ele>
        <time>2025-05-10T11:02:55Z</time>
      </trkpt>
      <trkpt lat="37.226122012361884" lon="-4.331549964845181">
        <ele>650.95000000000005</ele>
        <time>2025-05-10T11:02:56Z</time>
      </trkpt>
      <trkpt lat="37.226055040955544" lon="-4.331505037844181">
        <ele>650.95000000000005</ele>
        <time>2025-05-10T11:02:57Z</time>
      </trkpt>
      <trkpt lat="37.226008018478751" lon="-4.331409987062216">
        <ele>650.95000000000005</ele>
        <time>2025-05-10T11:02:58Z</time>
      </trkpt>
      <trkpt lat="37.225958984345198" lon="-4.331304961815476">
        <ele>650.95000000000005</ele>
        <time>2025-05-10T11:02:59Z</time>
      </trkpt>
      <trkpt lat="37.225912967696786" lon="-4.331187028437853">
        <ele>650.95000000000005</ele>
        <time>2025-05-10T11:03:00Z</time>
      </trkpt>
      <trkpt lat="37.225821018218994" lon="-4.330951999872923">
        <ele>650.95000000000005</ele>
        <time>2025-05-10T11:03:02Z</time>
      </trkpt>
      <trkpt lat="37.225741976872087" lon="-4.330858960747719">
        <ele>650.95000000000005</ele>
        <time>2025-05-10T11:03:03Z</time>
      </trkpt>
      <trkpt lat="37.225672993808985" lon="-4.330775979906321">
        <ele>650.47000000000003</ele>
        <time>2025-05-10T11:03:04Z</time>
      </trkpt>
      <trkpt lat="37.225605016574264" lon="-4.330697022378445">
        <ele>649.99000000000001</ele>
        <time>2025-05-10T11:03:05Z</time>
      </trkpt>
      <trkpt lat="37.225511977449059" lon="-4.330672966316342">
        <ele>649.50999999999999</ele>
        <time>2025-05-10T11:03:06Z</time>
      </trkpt>
      <trkpt lat="37.225392032414675" lon="-4.330672966316342">
        <ele>649.50999999999999</ele>
        <time>2025-05-10T11:03:07Z</time>
      </trkpt>
      <trkpt lat="37.225325983017683" lon="-4.330723006278276">
        <ele>649.02999999999997</ele>
        <time>2025-05-10T11:03:08Z</time>
      </trkpt>
      <trkpt lat="37.225230010226369" lon="-4.33079500682652">
        <ele>648.54999999999995</ele>
        <time>2025-05-10T11:03:09Z</time>
      </trkpt>
      <trkpt lat="37.225130014121532" lon="-4.330857032909989">
        <ele>648.07000000000005</ele>
        <time>2025-05-10T11:03:10Z</time>
      </trkpt>
      <trkpt lat="37.225032029673457" lon="-4.330915035679936">
        <ele>648.07000000000005</ele>
        <time>2025-05-10T11:03:11Z</time>
      </trkpt>
      <trkpt lat="37.224939996376634" lon="-4.330913024023175">
        <ele>648.07000000000005</ele>
        <time>2025-05-10T11:03:12Z</time>
      </trkpt>
      <trkpt lat="37.224829019978642" lon="-4.330883016809821">
        <ele>647.59000000000003</ele>
        <time>2025-05-10T11:03:13Z</time>
      </trkpt>
      <trkpt lat="37.224727012217045" lon="-4.330823002383113">
        <ele>647.59000000000003</ele>
        <time>2025-05-10T11:03:14Z</time>
      </trkpt>
      <trkpt lat="37.224617963656783" lon="-4.330714959651232">
        <ele>647.10000000000002</ele>
        <time>2025-05-10T11:03:15Z</time>
      </trkpt>
      <trkpt lat="37.224490977823734" lon="-4.330586967989802">
        <ele>647.10000000000002</ele>
        <time>2025-05-10T11:03:16Z</time>
      </trkpt>
      <trkpt lat="37.224102979525924" lon="-4.330069972202182">
        <ele>644.22000000000003</ele>
        <time>2025-05-10T11:03:20Z</time>
      </trkpt>
      <trkpt lat="37.223992003127933" lon="-4.329958995804191">
        <ele>643.74000000000001</ele>
        <time>2025-05-10T11:03:21Z</time>
      </trkpt>
      <trkpt lat="37.223863005638123" lon="-4.329900993034244">
        <ele>642.77999999999997</ele>
        <time>2025-05-10T11:03:22Z</time>
      </trkpt>
      <trkpt lat="37.22372998483479" lon="-4.329900993034244">
        <ele>642.29999999999995</ele>
        <time>2025-05-10T11:03:23Z</time>
      </trkpt>
      <trkpt lat="37.223593024536967" lon="-4.329946003854275">
        <ele>641.34000000000003</ele>
        <time>2025-05-10T11:03:24Z</time>
      </trkpt>
      <trkpt lat="37.223452040925622" lon="-4.329997971653938">
        <ele>640.86000000000001</ele>
        <time>2025-05-10T11:03:25Z</time>
      </trkpt>
      <trkpt lat="37.223166972398758" lon="-4.330071983858943">
        <ele>639.40999999999997</ele>
        <time>2025-05-10T11:03:27Z</time>
      </trkpt>
      <trkpt lat="37.22302095964551" lon="-4.330071983858943">
        <ele>638.92999999999995</ele>
        <time>2025-05-10T11:03:28Z</time>
      </trkpt>
      <trkpt lat="37.222888022661209" lon="-4.330008029937744">
        <ele>637.97000000000003</ele>
        <time>2025-05-10T11:03:29Z</time>
      </trkpt>
      <trkpt lat="37.222746033221483" lon="-4.329917002469301">
        <ele>637.00999999999999</ele>
        <time>2025-05-10T11:03:30Z</time>
      </trkpt>
      <trkpt lat="37.222601026296616" lon="-4.329823963344097">
        <ele>636.04999999999995</ele>
        <time>2025-05-10T11:03:31Z</time>
      </trkpt>
      <trkpt lat="37.222453001886606" lon="-4.329730002209544">
        <ele>635.09000000000003</ele>
        <time>2025-05-10T11:03:32Z</time>
      </trkpt>
      <trkpt lat="37.222309000790119" lon="-4.329637968912721">
        <ele>634.13</ele>
        <time>2025-05-10T11:03:33Z</time>
      </trkpt>
      <trkpt lat="37.222162988036871" lon="-4.329565968364477">
        <ele>633.16999999999996</ele>
        <time>2025-05-10T11:03:34Z</time>
      </trkpt>
      <trkpt lat="37.222005994990468" lon="-4.329529004171491">
        <ele>631.72000000000003</ele>
        <time>2025-05-10T11:03:35Z</time>
      </trkpt>
      <trkpt lat="37.221852019429207" lon="-4.329492961987853">
        <ele>630.75999999999999</ele>
        <time>2025-05-10T11:03:36Z</time>
      </trkpt>
      <trkpt lat="37.221671976149082" lon="-4.32952699251473">
        <ele>629.79999999999995</ele>
        <time>2025-05-10T11:03:37Z</time>
      </trkpt>
      <trkpt lat="37.221500985324383" lon="-4.329560017213225">
        <ele>628.36000000000001</ele>
        <time>2025-05-10T11:03:38Z</time>
      </trkpt>
      <trkpt lat="37.221338963136077" lon="-4.329626988619566">
        <ele>627.39999999999998</ele>
        <time>2025-05-10T11:03:39Z</time>
      </trkpt>
      <trkpt lat="37.221180964261293" lon="-4.329691026359797">
        <ele>626.44000000000005</ele>
        <time>2025-05-10T11:03:40Z</time>
      </trkpt>
      <trkpt lat="37.219941029325128" lon="-4.330180026590824">
        <ele>618.75</ele>
        <time>2025-05-10T11:03:49Z</time>
      </trkpt>
      <trkpt lat="37.219815971329808" lon="-4.330197041854262">
        <ele>618.25999999999999</ele>
        <time>2025-05-10T11:03:50Z</time>
      </trkpt>
      <trkpt lat="37.219687979668379" lon="-4.330167034640908">
        <ele>617.77999999999997</ele>
        <time>2025-05-10T11:03:51Z</time>
      </trkpt>
      <trkpt lat="37.219555964693427" lon="-4.330136021599174">
        <ele>616.82000000000005</ele>
        <time>2025-05-10T11:03:52Z</time>
      </trkpt>
      <trkpt lat="37.219426967203617" lon="-4.330094028264284">
        <ele>616.34000000000003</ele>
        <time>2025-05-10T11:03:53Z</time>
      </trkpt>
      <trkpt lat="37.218923969194293" lon="-4.329757997766137">
        <ele>612.5</ele>
        <time>2025-05-10T11:03:59Z</time>
      </trkpt>
      <trkpt lat="37.218711990863085" lon="-4.329823041334748">
        <ele>611.53999999999996</ele>
        <time>2025-05-10T11:04:04Z</time>
      </trkpt>
      <trkpt lat="37.218644013628364" lon="-4.329843996092677">
        <ele>611.05999999999995</ele>
        <time>2025-05-10T11:04:05Z</time>
      </trkpt>
      <trkpt lat="37.218562038615346" lon="-4.329868974164128">
        <ele>611.53999999999996</ele>
        <time>2025-05-10T11:04:06Z</time>
      </trkpt>
      <trkpt lat="37.21833698451519" lon="-4.329938041046262">
        <ele>611.05999999999995</ele>
        <time>2025-05-10T11:04:09Z</time>
      </trkpt>
      <trkpt lat="37.218286022543907" lon="-4.329952960833907">
        <ele>610.57000000000005</ele>
        <time>2025-05-10T11:04:10Z</time>
      </trkpt>
      <trkpt lat="37.218220978975296" lon="-4.329888001084328">
        <ele>610.57000000000005</ele>
        <time>2025-05-10T11:04:11Z</time>
      </trkpt>
      <trkpt lat="37.218199018388987" lon="-4.329821029677987">
        <ele>610.57000000000005</ele>
        <time>2025-05-10T11:04:12Z</time>
      </trkpt>
      <trkpt lat="37.218170017004013" lon="-4.329734025523067">
        <ele>610.57000000000005</ele>
        <time>2025-05-10T11:04:13Z</time>
      </trkpt>
      <trkpt lat="37.218136992305517" lon="-4.32963402941823">
        <ele>610.57000000000005</ele>
        <time>2025-05-10T11:04:14Z</time>
      </trkpt>
      <trkpt lat="37.217803979292512" lon="-4.328600959852338">
        <ele>607.21000000000004</ele>
        <time>2025-05-10T11:04:21Z</time>
      </trkpt>
      <trkpt lat="37.217656038701534" lon="-4.328070972114801">
        <ele>604.80999999999995</ele>
        <time>2025-05-10T11:04:24Z</time>
      </trkpt>
      <trkpt lat="37.217637011781335" lon="-4.327896041795611">
        <ele>604.33000000000004</ele>
        <time>2025-05-10T11:04:25Z</time>
      </trkpt>
      <trkpt lat="37.217632988467813" lon="-4.327742988243699">
        <ele>603.85000000000002</ele>
        <time>2025-05-10T11:04:26Z</time>
      </trkpt>
      <trkpt lat="37.217672970145941" lon="-4.327591024339199">
        <ele>603.36000000000001</ele>
        <time>2025-05-10T11:04:27Z</time>
      </trkpt>
      <trkpt lat="37.21771496348083" lon="-4.327432019636035">
        <ele>602.88</ele>
        <time>2025-05-10T11:04:28Z</time>
      </trkpt>
      <trkpt lat="37.21777799539268" lon="-4.327274020761251">
        <ele>602.39999999999998</ele>
        <time>2025-05-10T11:04:29Z</time>
      </trkpt>
      <trkpt lat="37.218320975080132" lon="-4.326088987290859">
        <ele>595.66999999999996</ele>
        <time>2025-05-10T11:04:36Z</time>
      </trkpt>
      <trkpt lat="37.218324998393655" lon="-4.325933000072837">
        <ele>594.71000000000004</ele>
        <time>2025-05-10T11:04:37Z</time>
      </trkpt>
      <trkpt lat="37.218316029757261" lon="-4.32579000480473">
        <ele>593.75</ele>
        <time>2025-05-10T11:04:38Z</time>
      </trkpt>
      <trkpt lat="37.218274036422372" lon="-4.325663018971682">
        <ele>592.78999999999996</ele>
        <time>2025-05-10T11:04:39Z</time>
      </trkpt>
      <trkpt lat="37.218198012560606" lon="-4.325552964583039">
        <ele>591.35000000000002</ele>
        <time>2025-05-10T11:04:40Z</time>
      </trkpt>
      <trkpt lat="37.218117965385318" lon="-4.325437964871526">
        <ele>590.38999999999999</ele>
        <time>2025-05-10T11:04:41Z</time>
      </trkpt>
      <trkpt lat="37.218020986765623" lon="-4.325410975143313">
        <ele>589.42999999999995</ele>
        <time>2025-05-10T11:04:42Z</time>
      </trkpt>
      <trkpt lat="37.217882014811039" lon="-4.325373005121946">
        <ele>588.95000000000005</ele>
        <time>2025-05-10T11:04:43Z</time>
      </trkpt>
      <trkpt lat="37.2177769895643" lon="-4.325380967929959">
        <ele>587.98000000000002</ele>
        <time>2025-05-10T11:04:44Z</time>
      </trkpt>
      <trkpt lat="37.217633994296193" lon="-4.325392032042146">
        <ele>587.5</ele>
        <time>2025-05-10T11:04:45Z</time>
      </trkpt>
      <trkpt lat="37.216606959700584" lon="-4.325486999005079">
        <ele>584.13999999999999</ele>
        <time>2025-05-10T11:04:51Z</time>
      </trkpt>
      <trkpt lat="37.216431023553014" lon="-4.325555982068181">
        <ele>583.65999999999997</ele>
        <time>2025-05-10T11:04:52Z</time>
      </trkpt>
      <trkpt lat="37.216259026899934" lon="-4.325628988444805">
        <ele>583.17999999999995</ele>
        <time>2025-05-10T11:04:53Z</time>
      </trkpt>
      <trkpt lat="37.215356966480613" lon="-4.326202981173992">
        <ele>576.92999999999995</ele>
        <time>2025-05-10T11:04:59Z</time>
      </trkpt>
      <trkpt lat="37.21524003893137" lon="-4.326320998370647">
        <ele>575.49000000000001</ele>
        <time>2025-05-10T11:05:00Z</time>
      </trkpt>
      <trkpt lat="37.215126967057586" lon="-4.326444966718555">
        <ele>574.52999999999997</ele>
        <time>2025-05-10T11:05:01Z</time>
      </trkpt>
      <trkpt lat="37.214934015646577" lon="-4.326716037467122">
        <ele>572.60000000000002</ele>
        <time>2025-05-10T11:05:03Z</time>
      </trkpt>
      <trkpt lat="37.214846005663276" lon="-4.326838999986649">
        <ele>571.63999999999999</ele>
        <time>2025-05-10T11:05:04Z</time>
      </trkpt>
      <trkpt lat="37.214741986244917" lon="-4.326893985271454">
        <ele>570.67999999999995</ele>
        <time>2025-05-10T11:05:05Z</time>
      </trkpt>
      <trkpt lat="37.21464199014008" lon="-4.326909994706512">
        <ele>569.72000000000003</ele>
        <time>2025-05-10T11:05:06Z</time>
      </trkpt>
      <trkpt lat="37.21453302539885" lon="-4.326888034120202">
        <ele>568.75999999999999</ele>
        <time>2025-05-10T11:05:07Z</time>
      </trkpt>
      <trkpt lat="37.214422971010208" lon="-4.32684101164341">
        <ele>567.79999999999995</ele>
        <time>2025-05-10T11:05:08Z</time>
      </trkpt>
      <trkpt lat="37.214305037632585" lon="-4.326754007488489">
        <ele>566.35000000000002</ele>
        <time>2025-05-10T11:05:09Z</time>
      </trkpt>
      <trkpt lat="37.214174028486013" lon="-4.326657028868794">
        <ele>565.38999999999999</ele>
        <time>2025-05-10T11:05:10Z</time>
      </trkpt>
      <trkpt lat="37.212973991408944" lon="-4.32568296790123">
        <ele>555.29999999999995</ele>
        <time>2025-05-10T11:05:18Z</time>
      </trkpt>
      <trkpt lat="37.212841976433992" lon="-4.325558999553323">
        <ele>554.34000000000003</ele>
        <time>2025-05-10T11:05:19Z</time>
      </trkpt>
      <trkpt lat="37.212737035006285" lon="-4.325401000678539">
        <ele>553.38</ele>
        <time>2025-05-10T11:05:20Z</time>
      </trkpt>
      <trkpt lat="37.212627986446023" lon="-4.325238978490233">
        <ele>552.40999999999997</ele>
        <time>2025-05-10T11:05:21Z</time>
      </trkpt>
      <trkpt lat="37.212002025917172" lon="-4.324282016605139">
        <ele>547.13</ele>
        <time>2025-05-10T11:05:27Z</time>
      </trkpt>
      <trkpt lat="37.211900018155575" lon="-4.324162993580103">
        <ele>547.13</ele>
        <time>2025-05-10T11:05:28Z</time>
      </trkpt>
      <trkpt lat="37.211789963766932" lon="-4.324065009132028">
        <ele>547.13</ele>
        <time>2025-05-10T11:05:29Z</time>
      </trkpt>
      <trkpt lat="37.211663983762264" lon="-4.323982028290629">
        <ele>546.64999999999998</ele>
        <time>2025-05-10T11:05:30Z</time>
      </trkpt>
      <trkpt lat="37.211530962958932" lon="-4.323893012478948">
        <ele>546.64999999999998</ele>
        <time>2025-05-10T11:05:31Z</time>
      </trkpt>
      <trkpt lat="37.211400959640741" lon="-4.323823023587465">
        <ele>546.64999999999998</ele>
        <time>2025-05-10T11:05:32Z</time>
      </trkpt>
      <trkpt lat="37.211257964372635" lon="-4.323745993897319">
        <ele>546.16999999999996</ele>
        <time>2025-05-10T11:05:33Z</time>
      </trkpt>
      <trkpt lat="37.211114969104528" lon="-4.323668964207172">
        <ele>546.16999999999996</ele>
        <time>2025-05-10T11:05:34Z</time>
      </trkpt>
      <trkpt lat="37.210229001939297" lon="-4.32316797785461">
        <ele>544.72000000000003</ele>
        <time>2025-05-10T11:05:40Z</time>
      </trkpt>
      <trkpt lat="37.210087012499571" lon="-4.323070999234915">
        <ele>544.72000000000003</ele>
        <time>2025-05-10T11:05:41Z</time>
      </trkpt>
      <trkpt lat="37.209488963708282" lon="-4.322506980970502">
        <ele>543.75999999999999</ele>
        <time>2025-05-10T11:05:46Z</time>
      </trkpt>
      <trkpt lat="37.209379998967052" lon="-4.322508992627263">
        <ele>543.75999999999999</ele>
        <time>2025-05-10T11:05:47Z</time>
      </trkpt>
      <trkpt lat="37.209278997033834" lon="-4.322529025375843">
        <ele>543.27999999999997</ele>
        <time>2025-05-10T11:05:48Z</time>
      </trkpt>
      <trkpt lat="37.209181012585759" lon="-4.322577975690365">
        <ele>543.27999999999997</ele>
        <time>2025-05-10T11:05:49Z</time>
      </trkpt>
      <trkpt lat="37.209080010652542" lon="-4.32262902148068">
        <ele>543.27999999999997</ele>
        <time>2025-05-10T11:05:50Z</time>
      </trkpt>
      <trkpt lat="37.208856968209147" lon="-4.322731029242277">
        <ele>543.75999999999999</ele>
        <time>2025-05-10T11:05:52Z</time>
      </trkpt>
      <trkpt lat="37.208738029003143" lon="-4.322771010920405">
        <ele>543.75999999999999</ele>
        <time>2025-05-10T11:05:53Z</time>
      </trkpt>
      <trkpt lat="37.208615988492966" lon="-4.322785008698702">
        <ele>543.75999999999999</ele>
        <time>2025-05-10T11:05:54Z</time>
      </trkpt>
      <trkpt lat="37.208490008488297" lon="-4.322743015363812">
        <ele>543.75999999999999</ele>
        <time>2025-05-10T11:05:55Z</time>
      </trkpt>
      <trkpt lat="37.208363022655249" lon="-4.322701022028923">
        <ele>543.27999999999997</ele>
        <time>2025-05-10T11:05:56Z</time>
      </trkpt>
      <trkpt lat="37.208123970776796" lon="-4.322573030367494">
        <ele>542.79999999999995</ele>
        <time>2025-05-10T11:05:58Z</time>
      </trkpt>
      <trkpt lat="37.207998996600509" lon="-4.322488959878683">
        <ele>542.32000000000005</ele>
        <time>2025-05-10T11:05:59Z</time>
      </trkpt>
      <trkpt lat="37.207888020202518" lon="-4.322384018450975">
        <ele>542.32000000000005</ele>
        <time>2025-05-10T11:06:00Z</time>
      </trkpt>
      <trkpt lat="37.2076799813658" lon="-4.322134992107749">
        <ele>541.84000000000003</ele>
        <time>2025-05-10T11:06:02Z</time>
      </trkpt>
      <trkpt lat="37.207564981654286" lon="-4.322045976296067">
        <ele>541.36000000000001</ele>
        <time>2025-05-10T11:06:03Z</time>
      </trkpt>
      <trkpt lat="37.207454005256295" lon="-4.322003982961178">
        <ele>540.88</ele>
        <time>2025-05-10T11:06:04Z</time>
      </trkpt>
      <trkpt lat="37.207330036908388" lon="-4.322024015709758">
        <ele>540.39999999999998</ele>
        <time>2025-05-10T11:06:05Z</time>
      </trkpt>
      <trkpt lat="37.207197016105056" lon="-4.322044970467687">
        <ele>539.91999999999996</ele>
        <time>2025-05-10T11:06:06Z</time>
      </trkpt>
      <trkpt lat="37.207045974209905" lon="-4.322069026529789">
        <ele>538.96000000000004</ele>
        <time>2025-05-10T11:06:07Z</time>
      </trkpt>
      <trkpt lat="37.206924017518759" lon="-4.32213700376451">
        <ele>538.48000000000002</ele>
        <time>2025-05-10T11:06:08Z</time>
      </trkpt>
      <trkpt lat="37.206787979230285" lon="-4.322213027626276">
        <ele>537.50999999999999</ele>
        <time>2025-05-10T11:06:09Z</time>
      </trkpt>
      <trkpt lat="37.206665016710758" lon="-4.322282010689378">
        <ele>536.07000000000005</ele>
        <time>2025-05-10T11:06:10Z</time>
      </trkpt>
      <trkpt lat="37.206556973978877" lon="-4.322342025116086">
        <ele>535.11000000000001</ele>
        <time>2025-05-10T11:06:11Z</time>
      </trkpt>
      <trkpt lat="37.206452032551169" lon="-4.322369014844298">
        <ele>533.66999999999996</ele>
        <time>2025-05-10T11:06:12Z</time>
      </trkpt>
      <trkpt lat="37.206343989819288" lon="-4.322369014844298">
        <ele>532.23000000000002</ele>
        <time>2025-05-10T11:06:13Z</time>
      </trkpt>
      <trkpt lat="37.206238964572549" lon="-4.322316963225603">
        <ele>531.26999999999998</ele>
        <time>2025-05-10T11:06:14Z</time>
      </trkpt>
      <trkpt lat="37.206127988174558" lon="-4.322241023182869">
        <ele>529.82000000000005</ele>
        <time>2025-05-10T11:06:15Z</time>
      </trkpt>
      <trkpt lat="37.206006031483412" lon="-4.32215896435082">
        <ele>528.86000000000001</ele>
        <time>2025-05-10T11:06:16Z</time>
      </trkpt>
      <trkpt lat="37.20587401650846" lon="-4.322069026529789">
        <ele>527.89999999999998</ele>
        <time>2025-05-10T11:06:17Z</time>
      </trkpt>
      <trkpt lat="37.204622011631727" lon="-4.321165038272739">
        <ele>518.76999999999998</ele>
        <time>2025-05-10T11:06:26Z</time>
      </trkpt>
      <trkpt lat="37.204512963071465" lon="-4.321074010804296">
        <ele>517.80999999999995</ele>
        <time>2025-05-10T11:06:27Z</time>
      </trkpt>
      <trkpt lat="37.20443501137197" lon="-4.320966973900795">
        <ele>517.33000000000004</ele>
        <time>2025-05-10T11:06:28Z</time>
      </trkpt>
      <trkpt lat="37.204379020258784" lon="-4.320853985846043">
        <ele>516.37</ele>
        <time>2025-05-10T11:06:29Z</time>
      </trkpt>
      <trkpt lat="37.204338032752275" lon="-4.320729011669755">
        <ele>515.88</ele>
        <time>2025-05-10T11:06:30Z</time>
      </trkpt>
      <trkpt lat="37.204324034973979" lon="-4.320581993088126">
        <ele>515.39999999999998</ele>
        <time>2025-05-10T11:06:31Z</time>
      </trkpt>
      <trkpt lat="37.204325962811708" lon="-4.320421982556582">
        <ele>515.39999999999998</ele>
        <time>2025-05-10T11:06:32Z</time>
      </trkpt>
      <trkpt lat="37.204334009438753" lon="-4.320253003388643">
        <ele>514.91999999999996</ele>
        <time>2025-05-10T11:06:33Z</time>
      </trkpt>
      <trkpt lat="37.204340966418386" lon="-4.320083018392324">
        <ele>514.44000000000005</ele>
        <time>2025-05-10T11:06:34Z</time>
      </trkpt>
      <trkpt lat="37.204374996945262" lon="-4.319918984547257">
        <ele>514.44000000000005</ele>
        <time>2025-05-10T11:06:35Z</time>
      </trkpt>
      <trkpt lat="37.204407015815377" lon="-4.31979401037097">
        <ele>514.44000000000005</ele>
        <time>2025-05-10T11:06:36Z</time>
      </trkpt>
      <trkpt lat="37.204501982778311" lon="-4.319659983739257">
        <ele>514.44000000000005</ele>
        <time>2025-05-10T11:06:37Z</time>
      </trkpt>
      <trkpt lat="37.204575994983315" lon="-4.319555964320898">
        <ele>514.91999999999996</ele>
        <time>2025-05-10T11:06:38Z</time>
      </trkpt>
      <trkpt lat="37.204652018845081" lon="-4.319449011236429">
        <ele>514.44000000000005</ele>
        <time>2025-05-10T11:06:39Z</time>
      </trkpt>
      <trkpt lat="37.204732988029718" lon="-4.319335017353296">
        <ele>514.44000000000005</ele>
        <time>2025-05-10T11:06:40Z</time>
      </trkpt>
      <trkpt lat="37.204815968871117" lon="-4.319218005985022">
        <ele>514.44000000000005</ele>
        <time>2025-05-10T11:06:41Z</time>
      </trkpt>
      <trkpt lat="37.20488402992487" lon="-4.319091020151973">
        <ele>514.44000000000005</ele>
        <time>2025-05-10T11:06:42Z</time>
      </trkpt>
      <trkpt lat="37.204903978854418" lon="-4.318938972428441">
        <ele>514.91999999999996</ele>
        <time>2025-05-10T11:06:43Z</time>
      </trkpt>
      <trkpt lat="37.204944966360927" lon="-4.318631021305919">
        <ele>515.39999999999998</ele>
        <time>2025-05-10T11:06:45Z</time>
      </trkpt>
      <trkpt lat="37.204964999109507" lon="-4.318485008552671">
        <ele>515.88</ele>
        <time>2025-05-10T11:06:46Z</time>
      </trkpt>
      <trkpt lat="37.205040017142892" lon="-4.318352993577719">
        <ele>515.88</ele>
        <time>2025-05-10T11:06:47Z</time>
      </trkpt>
      <trkpt lat="37.20512199215591" lon="-4.318209998309612">
        <ele>514.91999999999996</ele>
        <time>2025-05-10T11:06:48Z</time>
      </trkpt>
      <trkpt lat="37.205206984654069" lon="-4.318060968071222">
        <ele>514.44000000000005</ele>
        <time>2025-05-10T11:06:49Z</time>
      </trkpt>
      <trkpt lat="37.205298012122512" lon="-4.317901963368058">
        <ele>513.96000000000004</ele>
        <time>2025-05-10T11:06:50Z</time>
      </trkpt>
      <trkpt lat="37.205393984913826" lon="-4.317733990028501">
        <ele>513.48000000000002</ele>
        <time>2025-05-10T11:06:51Z</time>
      </trkpt>
      <trkpt lat="37.205446036532521" lon="-4.317555958405137">
        <ele>513</ele>
        <time>2025-05-10T11:06:52Z</time>
      </trkpt>
      <trkpt lat="37.205716017633677" lon="-4.316639984026551">
        <ele>510.60000000000002</ele>
        <time>2025-05-10T11:06:57Z</time>
      </trkpt>
      <trkpt lat="37.205720040947199" lon="-4.316440997645259">
        <ele>510.12</ele>
        <time>2025-05-10T11:06:58Z</time>
      </trkpt>
      <trkpt lat="37.205722974613309" lon="-4.31414402090013">
        <ele>513.96000000000004</ele>
        <time>2025-05-10T11:07:09Z</time>
      </trkpt>
      <trkpt lat="37.205716017633677" lon="-4.313515964895487">
        <ele>517.33000000000004</ele>
        <time>2025-05-10T11:07:12Z</time>
      </trkpt>
      <trkpt lat="37.205736972391605" lon="-4.313319995999336">
        <ele>518.28999999999996</ele>
        <time>2025-05-10T11:07:13Z</time>
      </trkpt>
      <trkpt lat="37.205841997638345" lon="-4.312579035758972">
        <ele>523.09000000000003</ele>
        <time>2025-05-10T11:07:17Z</time>
      </trkpt>
      <trkpt lat="37.205863036215305" lon="-4.312413996085525">
        <ele>524.53999999999996</ele>
        <time>2025-05-10T11:07:18Z</time>
      </trkpt>
      <trkpt lat="37.205827999860048" lon="-4.312250968068838">
        <ele>525.5</ele>
        <time>2025-05-10T11:07:19Z</time>
      </trkpt>
      <trkpt lat="37.205772008746862" lon="-4.312105039134622">
        <ele>526.94000000000005</ele>
        <time>2025-05-10T11:07:20Z</time>
      </trkpt>
      <trkpt lat="37.205693973228335" lon="-4.31197302415967">
        <ele>528.38</ele>
        <time>2025-05-10T11:07:21Z</time>
      </trkpt>
      <trkpt lat="37.205619039013982" lon="-4.311845032498241">
        <ele>529.82000000000005</ele>
        <time>2025-05-10T11:07:22Z</time>
      </trkpt>
      <trkpt lat="37.205564975738525" lon="-4.311725003644824">
        <ele>531.75</ele>
        <time>2025-05-10T11:07:23Z</time>
      </trkpt>
      <trkpt lat="37.205520970746875" lon="-4.311592988669872">
        <ele>533.19000000000005</ele>
        <time>2025-05-10T11:07:24Z</time>
      </trkpt>
      <trkpt lat="37.205514013767242" lon="-4.311452005058527">
        <ele>534.63</ele>
        <time>2025-05-10T11:07:25Z</time>
      </trkpt>
      <trkpt lat="37.205539997667074" lon="-4.311288977041841">
        <ele>536.07000000000005</ele>
        <time>2025-05-10T11:07:26Z</time>
      </trkpt>
      <trkpt lat="37.205566987395287" lon="-4.311116980388761">
        <ele>537.50999999999999</ele>
        <time>2025-05-10T11:07:27Z</time>
      </trkpt>
      <trkpt lat="37.20559598878026" lon="-4.310932997614145">
        <ele>538.96000000000004</ele>
        <time>2025-05-10T11:07:28Z</time>
      </trkpt>
      <trkpt lat="37.206024974584579" lon="-4.309325013309717">
        <ele>550.97000000000003</ele>
        <time>2025-05-10T11:07:36Z</time>
      </trkpt>
      <trkpt lat="37.206609025597572" lon="-4.307874022051692">
        <ele>563.95000000000005</ele>
        <time>2025-05-10T11:07:44Z</time>
      </trkpt>
      <trkpt lat="37.206785967573524" lon="-4.307379992678762">
        <ele>568.75999999999999</ele>
        <time>2025-05-10T11:07:47Z</time>
      </trkpt>
      <trkpt lat="37.206817986443639" lon="-4.307207996025682">
        <ele>570.20000000000005</ele>
        <time>2025-05-10T11:07:48Z</time>
      </trkpt>
      <trkpt lat="37.206846987828612" lon="-4.307057959958911">
        <ele>571.63999999999999</ele>
        <time>2025-05-10T11:07:49Z</time>
      </trkpt>
      <trkpt lat="37.2068199981004" lon="-4.306928962469101">
        <ele>573.08000000000004</ele>
        <time>2025-05-10T11:07:50Z</time>
      </trkpt>
      <trkpt lat="37.206767024472356" lon="-4.306769035756588">
        <ele>574.52999999999997</ele>
        <time>2025-05-10T11:07:51Z</time>
      </trkpt>
      <trkpt lat="37.206700975075364" lon="-4.30671296082437">
        <ele>575.49000000000001</ele>
        <time>2025-05-10T11:07:52Z</time>
      </trkpt>
      <trkpt lat="37.20658496953547" lon="-4.306629979982972">
        <ele>576.45000000000005</ele>
        <time>2025-05-10T11:07:53Z</time>
      </trkpt>
      <trkpt lat="37.20645597204566" lon="-4.306586980819702">
        <ele>577.40999999999997</ele>
        <time>2025-05-10T11:07:54Z</time>
      </trkpt>
      <trkpt lat="37.206327980384231" lon="-4.306544987484813">
        <ele>578.37</ele>
        <time>2025-05-10T11:07:55Z</time>
      </trkpt>
      <trkpt lat="37.205135989934206" lon="-4.306233013048768">
        <ele>589.42999999999995</ele>
        <time>2025-05-10T11:08:05Z</time>
      </trkpt>
      <trkpt lat="37.205029036849737" lon="-4.306165035814047">
        <ele>590.87</ele>
        <time>2025-05-10T11:08:06Z</time>
      </trkpt>
      <trkpt lat="37.204943038523197" lon="-4.30610996671021">
        <ele>591.83000000000004</ele>
        <time>2025-05-10T11:08:07Z</time>
      </trkpt>
      <trkpt lat="37.204881012439728" lon="-4.306047018617392">
        <ele>593.26999999999998</ele>
        <time>2025-05-10T11:08:08Z</time>
      </trkpt>
      <trkpt lat="37.204828960821033" lon="-4.305951967835426">
        <ele>594.23000000000002</ele>
        <time>2025-05-10T11:08:09Z</time>
      </trkpt>
      <trkpt lat="37.204771041870117" lon="-4.305846020579338">
        <ele>595.19000000000005</ele>
        <time>2025-05-10T11:08:10Z</time>
      </trkpt>
      <trkpt lat="37.20475897192955" lon="-4.305716017261148">
        <ele>596.14999999999998</ele>
        <time>2025-05-10T11:08:11Z</time>
      </trkpt>
      <trkpt lat="37.204745979979634" lon="-4.305576961487532">
        <ele>597.60000000000002</ele>
        <time>2025-05-10T11:08:12Z</time>
      </trkpt>
      <trkpt lat="37.204613965004683" lon="-4.304413972422481">
        <ele>604.33000000000004</ele>
        <time>2025-05-10T11:08:19Z</time>
      </trkpt>
      <trkpt lat="37.204603990539908" lon="-4.304267037659884">
        <ele>605.28999999999996</ele>
        <time>2025-05-10T11:08:20Z</time>
      </trkpt>
      <trkpt lat="37.204618994146585" lon="-4.304130999371409">
        <ele>606.25</ele>
        <time>2025-05-10T11:08:21Z</time>
      </trkpt>
      <trkpt lat="37.204673979431391" lon="-4.304033014923334">
        <ele>607.21000000000004</ele>
        <time>2025-05-10T11:08:22Z</time>
      </trkpt>
      <trkpt lat="37.204740028828382" lon="-4.303937964141369">
        <ele>608.16999999999996</ele>
        <time>2025-05-10T11:08:23Z</time>
      </trkpt>
      <trkpt lat="37.204824015498161" lon="-4.303864035755396">
        <ele>608.64999999999998</ele>
        <time>2025-05-10T11:08:24Z</time>
      </trkpt>
      <trkpt lat="37.204935997724533" lon="-4.303803015500307">
        <ele>609.61000000000001</ele>
        <time>2025-05-10T11:08:25Z</time>
      </trkpt>
      <trkpt lat="37.20505896024406" lon="-4.303756998851895">
        <ele>610.57000000000005</ele>
        <time>2025-05-10T11:08:26Z</time>
      </trkpt>
      <trkpt lat="37.205174965783954" lon="-4.303712993860245">
        <ele>611.53999999999996</ele>
        <time>2025-05-10T11:08:27Z</time>
      </trkpt>
      <trkpt lat="37.205264987424016" lon="-4.303679969161749">
        <ele>612.5</ele>
        <time>2025-05-10T11:08:28Z</time>
      </trkpt>
      <trkpt lat="37.205335982143879" lon="-4.303565975278616">
        <ele>613.46000000000004</ele>
        <time>2025-05-10T11:08:29Z</time>
      </trkpt>
      <trkpt lat="37.205389039590955" lon="-4.303458016365767">
        <ele>614.89999999999998</ele>
        <time>2025-05-10T11:08:30Z</time>
      </trkpt>
      <trkpt lat="37.205436984077096" lon="-4.30331502109766">
        <ele>615.86000000000001</ele>
        <time>2025-05-10T11:08:31Z</time>
      </trkpt>
      <trkpt lat="37.20546598546207" lon="-4.303169008344412">
        <ele>617.29999999999995</ele>
        <time>2025-05-10T11:08:32Z</time>
      </trkpt>
      <trkpt lat="37.205570004880428" lon="-4.302726024761796">
        <ele>620.19000000000005</ele>
        <time>2025-05-10T11:08:35Z</time>
      </trkpt>
      <trkpt lat="37.205625995993614" lon="-4.302614964544773">
        <ele>621.63</ele>
        <time>2025-05-10T11:08:36Z</time>
      </trkpt>
      <trkpt lat="37.205691961571574" lon="-4.3025410361588">
        <ele>622.59000000000003</ele>
        <time>2025-05-10T11:08:37Z</time>
      </trkpt>
      <trkpt lat="37.205772008746862" lon="-4.302495019510388">
        <ele>623.54999999999995</ele>
        <time>2025-05-10T11:08:38Z</time>
      </trkpt>
      <trkpt lat="37.205848032608628" lon="-4.302466018125415">
        <ele>624.50999999999999</ele>
        <time>2025-05-10T11:08:39Z</time>
      </trkpt>
      <trkpt lat="37.205922966822982" lon="-4.302438022568822">
        <ele>624.99000000000001</ele>
        <time>2025-05-10T11:08:40Z</time>
      </trkpt>
      <trkpt lat="37.205985998734832" lon="-4.302407009527087">
        <ele>625.47000000000003</ele>
        <time>2025-05-10T11:08:41Z</time>
      </trkpt>
      <trkpt lat="37.206050958484411" lon="-4.302374990656972">
        <ele>626.44000000000005</ele>
        <time>2025-05-10T11:08:42Z</time>
      </trkpt>
      <trkpt lat="37.206119019538164" lon="-4.302340960130096">
        <ele>626.91999999999996</ele>
        <time>2025-05-10T11:08:43Z</time>
      </trkpt>
      <trkpt lat="37.206178028136492" lon="-4.302292009815574">
        <ele>627.88</ele>
        <time>2025-05-10T11:08:44Z</time>
      </trkpt>
      <trkpt lat="37.206234019249678" lon="-4.302230989560485">
        <ele>628.36000000000001</ele>
        <time>2025-05-10T11:08:45Z</time>
      </trkpt>
      <trkpt lat="37.206290010362864" lon="-4.302169969305396">
        <ele>628.36000000000001</ele>
        <time>2025-05-10T11:08:46Z</time>
      </trkpt>
      <trkpt lat="37.206607013940811" lon="-4.30176897905767">
        <ele>631.72000000000003</ele>
        <time>2025-05-10T11:08:52Z</time>
      </trkpt>
      <trkpt lat="37.206653030589223" lon="-4.301689015701413">
        <ele>633.16999999999996</ele>
        <time>2025-05-10T11:08:53Z</time>
      </trkpt>
      <trkpt lat="37.206698041409254" lon="-4.301591031253338">
        <ele>634.13</ele>
        <time>2025-05-10T11:08:54Z</time>
      </trkpt>
      <trkpt lat="37.206729976460338" lon="-4.301487011834979">
        <ele>635.09000000000003</ele>
        <time>2025-05-10T11:08:55Z</time>
      </trkpt>
      <trkpt lat="37.206752020865679" lon="-4.30138198658824">
        <ele>636.04999999999995</ele>
        <time>2025-05-10T11:08:56Z</time>
      </trkpt>
      <trkpt lat="37.206774987280369" lon="-4.301276039332151">
        <ele>637.00999999999999</ele>
        <time>2025-05-10T11:08:57Z</time>
      </trkpt>
      <trkpt lat="37.207061983644962" lon="-4.300036020576954">
        <ele>642.29999999999995</ele>
        <time>2025-05-10T11:09:08Z</time>
      </trkpt>
      <trkpt lat="37.207202967256308" lon="-4.299464961513877">
        <ele>645.65999999999997</ele>
        <time>2025-05-10T11:09:13Z</time>
      </trkpt>
      <trkpt lat="37.207215959206223" lon="-4.299349039793015">
        <ele>646.62</ele>
        <time>2025-05-10T11:09:14Z</time>
      </trkpt>
      <trkpt lat="37.207202967256308" lon="-4.299237979575992">
        <ele>648.07000000000005</ele>
        <time>2025-05-10T11:09:15Z</time>
      </trkpt>
      <trkpt lat="37.207070030272007" lon="-4.298224020749331">
        <ele>654.30999999999995</ele>
        <time>2025-05-10T11:09:25Z</time>
      </trkpt>
      <trkpt lat="37.207076987251639" lon="-4.298096029087901">
        <ele>655.27999999999997</ele>
        <time>2025-05-10T11:09:26Z</time>
      </trkpt>
      <trkpt lat="37.207086961716413" lon="-4.297968037426472">
        <ele>655.27999999999997</ele>
        <time>2025-05-10T11:09:27Z</time>
      </trkpt>
      <trkpt lat="37.207119986414909" lon="-4.297847002744675">
        <ele>655.75999999999999</ele>
        <time>2025-05-10T11:09:28Z</time>
      </trkpt>
      <trkpt lat="37.207156028598547" lon="-4.297724962234497">
        <ele>656.24000000000001</ele>
        <time>2025-05-10T11:09:29Z</time>
      </trkpt>
      <trkpt lat="37.207189975306392" lon="-4.297606023028493">
        <ele>656.24000000000001</ele>
        <time>2025-05-10T11:09:30Z</time>
      </trkpt>
      <trkpt lat="37.207221994176507" lon="-4.297494040802121">
        <ele>656.72000000000003</ele>
        <time>2025-05-10T11:09:31Z</time>
      </trkpt>
      <trkpt lat="37.207223000004888" lon="-4.297372000291944">
        <ele>657.20000000000005</ele>
        <time>2025-05-10T11:09:32Z</time>
      </trkpt>
      <trkpt lat="37.207195004448295" lon="-4.297260018065572">
        <ele>657.67999999999995</ele>
        <time>2025-05-10T11:09:33Z</time>
      </trkpt>
      <trkpt lat="37.207167008891702" lon="-4.297139989212155">
        <ele>658.15999999999997</ele>
        <time>2025-05-10T11:09:34Z</time>
      </trkpt>
      <trkpt lat="37.207113029435277" lon="-4.29686900228262">
        <ele>659.60000000000002</ele>
        <time>2025-05-10T11:09:36Z</time>
      </trkpt>
      <trkpt lat="37.207124009728432" lon="-4.296721983700991">
        <ele>660.08000000000004</ele>
        <time>2025-05-10T11:09:37Z</time>
      </trkpt>
      <trkpt lat="37.207147981971502" lon="-4.296575970947743">
        <ele>661.03999999999996</ele>
        <time>2025-05-10T11:09:38Z</time>
      </trkpt>
      <trkpt lat="37.207183018326759" lon="-4.296428030356765">
        <ele>661.51999999999998</ele>
        <time>2025-05-10T11:09:39Z</time>
      </trkpt>
      <trkpt lat="37.207218976691365" lon="-4.296279000118375">
        <ele>662.00999999999999</ele>
        <time>2025-05-10T11:09:40Z</time>
      </trkpt>
      <trkpt lat="37.207348980009556" lon="-4.295908017084003">
        <ele>663.92999999999995</ele>
        <time>2025-05-10T11:09:43Z</time>
      </trkpt>
      <trkpt lat="37.207407988607883" lon="-4.295810032635927">
        <ele>664.40999999999997</ele>
        <time>2025-05-10T11:09:44Z</time>
      </trkpt>
      <trkpt lat="37.207491975277662" lon="-4.295757981017232">
        <ele>664.40999999999997</ele>
        <time>2025-05-10T11:09:45Z</time>
      </trkpt>
      <trkpt lat="37.207578979432583" lon="-4.295719005167484">
        <ele>664.88999999999999</ele>
        <time>2025-05-10T11:09:46Z</time>
      </trkpt>
      <trkpt lat="37.207685010507703" lon="-4.295719005167484">
        <ele>665.37</ele>
        <time>2025-05-10T11:09:47Z</time>
      </trkpt>
      <trkpt lat="37.20778601244092" lon="-4.295725962147117">
        <ele>666.33000000000004</ele>
        <time>2025-05-10T11:09:48Z</time>
      </trkpt>
      <trkpt lat="37.207893971353769" lon="-4.2957510240376">
        <ele>666.80999999999995</ele>
        <time>2025-05-10T11:09:49Z</time>
      </trkpt>
      <trkpt lat="37.208119025453925" lon="-4.295805003494024">
        <ele>667.76999999999998</ele>
        <time>2025-05-10T11:09:51Z</time>
      </trkpt>
      <trkpt lat="37.208321029320359" lon="-4.295920003205538">
        <ele>668.25</ele>
        <time>2025-05-10T11:09:53Z</time>
      </trkpt>
      <trkpt lat="37.208427982404828" lon="-4.295986974611878">
        <ele>668.73000000000002</ele>
        <time>2025-05-10T11:09:54Z</time>
      </trkpt>
      <trkpt lat="37.208723025396466" lon="-4.296084037050605">
        <ele>670.17999999999995</ele>
        <time>2025-05-10T11:09:57Z</time>
      </trkpt>
      <trkpt lat="37.20881899818778" lon="-4.29609602317214">
        <ele>670.65999999999997</ele>
        <time>2025-05-10T11:09:58Z</time>
      </trkpt>
      <trkpt lat="37.20901396125555" lon="-4.296064004302025">
        <ele>672.10000000000002</ele>
        <time>2025-05-10T11:10:00Z</time>
      </trkpt>
      <trkpt lat="37.209123009815812" lon="-4.296027962118387">
        <ele>673.05999999999995</ele>
        <time>2025-05-10T11:10:01Z</time>
      </trkpt>
      <trkpt lat="37.209237003698945" lon="-4.29598999209702">
        <ele>673.53999999999996</ele>
        <time>2025-05-10T11:10:02Z</time>
      </trkpt>
      <trkpt lat="37.209344962611794" lon="-4.295928971841931">
        <ele>674.01999999999998</ele>
        <time>2025-05-10T11:10:03Z</time>
      </trkpt>
      <trkpt lat="37.209456022828817" lon="-4.295853031799197">
        <ele>674.5</ele>
        <time>2025-05-10T11:10:04Z</time>
      </trkpt>
      <trkpt lat="37.209557024762034" lon="-4.295782959088683">
        <ele>674.5</ele>
        <time>2025-05-10T11:10:05Z</time>
      </trkpt>
      <trkpt lat="37.2096779756248" lon="-4.295650022104383">
        <ele>674.5</ele>
        <time>2025-05-10T11:10:06Z</time>
      </trkpt>
      <trkpt lat="37.209790963679552" lon="-4.295525969937444">
        <ele>674.5</ele>
        <time>2025-05-10T11:10:07Z</time>
      </trkpt>
      <trkpt lat="37.209902023896575" lon="-4.295405019074678">
        <ele>673.53999999999996</ele>
        <time>2025-05-10T11:10:08Z</time>
      </trkpt>
      <trkpt lat="37.210009982809424" lon="-4.295283984392881">
        <ele>673.05999999999995</ele>
        <time>2025-05-10T11:10:09Z</time>
      </trkpt>
      <trkpt lat="37.210079971700907" lon="-4.295143000781536">
        <ele>672.58000000000004</ele>
        <time>2025-05-10T11:10:10Z</time>
      </trkpt>
      <trkpt lat="37.210116013884544" lon="-4.29498097859323">
        <ele>671.62</ele>
        <time>2025-05-10T11:10:11Z</time>
      </trkpt>
      <trkpt lat="37.210132023319602" lon="-4.294811999425292">
        <ele>671.62</ele>
        <time>2025-05-10T11:10:12Z</time>
      </trkpt>
      <trkpt lat="37.210116013884544" lon="-4.294638996943831">
        <ele>671.62</ele>
        <time>2025-05-10T11:10:13Z</time>
      </trkpt>
      <trkpt lat="37.210098998621106" lon="-4.294459037482739">
        <ele>671.62</ele>
        <time>2025-05-10T11:10:14Z</time>
      </trkpt>
      <trkpt lat="37.210134034976363" lon="-4.292919030413032">
        <ele>674.01999999999998</ele>
        <time>2025-05-10T11:10:22Z</time>
      </trkpt>
      <trkpt lat="37.210207041352987" lon="-4.292468000203371">
        <ele>676.90999999999997</ele>
        <time>2025-05-10T11:10:25Z</time>
      </trkpt>
      <trkpt lat="37.210266971960664" lon="-4.292361969128251">
        <ele>677.87</ele>
        <time>2025-05-10T11:10:26Z</time>
      </trkpt>
      <trkpt lat="37.21034299582243" lon="-4.292273037135601">
        <ele>678.83000000000004</ele>
        <time>2025-05-10T11:10:27Z</time>
      </trkpt>
      <trkpt lat="37.210432011634111" lon="-4.292217968031764">
        <ele>679.30999999999995</ele>
        <time>2025-05-10T11:10:28Z</time>
      </trkpt>
      <trkpt lat="37.21053603105247" lon="-4.292179998010397">
        <ele>680.26999999999998</ele>
        <time>2025-05-10T11:10:29Z</time>
      </trkpt>
      <trkpt lat="37.2106640227139" lon="-4.292186032980681">
        <ele>681.71000000000004</ele>
        <time>2025-05-10T11:10:30Z</time>
      </trkpt>
      <trkpt lat="37.210792014375329" lon="-4.292191984131932">
        <ele>682.66999999999996</ele>
        <time>2025-05-10T11:10:31Z</time>
      </trkpt>
      <trkpt lat="37.210910031571984" lon="-4.292198019102216">
        <ele>683.63</ele>
        <time>2025-05-10T11:10:32Z</time>
      </trkpt>
      <trkpt lat="37.211015978828073" lon="-4.292160971090198">
        <ele>684.12</ele>
        <time>2025-05-10T11:10:33Z</time>
      </trkpt>
      <trkpt lat="37.211111029610038" lon="-4.292103974148631">
        <ele>684.60000000000002</ele>
        <time>2025-05-10T11:10:34Z</time>
      </trkpt>
      <trkpt lat="37.211185963824391" lon="-4.292029961943626">
        <ele>685.08000000000004</ele>
        <time>2025-05-10T11:10:35Z</time>
      </trkpt>
      <trkpt lat="37.211238015443087" lon="-4.29192703217268">
        <ele>685.55999999999995</ele>
        <time>2025-05-10T11:10:36Z</time>
      </trkpt>
      <trkpt lat="37.211263999342918" lon="-4.291808009147644">
        <ele>686.03999999999996</ele>
        <time>2025-05-10T11:10:37Z</time>
      </trkpt>
      <trkpt lat="37.211283026263118" lon="-4.291667025536299">
        <ele>686.51999999999998</ele>
        <time>2025-05-10T11:10:38Z</time>
      </trkpt>
      <trkpt lat="37.211302975192666" lon="-4.29152000695467">
        <ele>687.48000000000002</ele>
        <time>2025-05-10T11:10:39Z</time>
      </trkpt>
      <trkpt lat="37.211345974355936" lon="-4.291206020861864">
        <ele>688.91999999999996</ele>
        <time>2025-05-10T11:10:41Z</time>
      </trkpt>
      <trkpt lat="37.211368018761277" lon="-4.291046010330319">
        <ele>689.88</ele>
        <time>2025-05-10T11:10:42Z</time>
      </trkpt>
      <trkpt lat="37.211487041786313" lon="-4.290740992873907">
        <ele>692.28999999999996</ele>
        <time>2025-05-10T11:10:44Z</time>
      </trkpt>
      <trkpt lat="37.21156801097095" lon="-4.29059598594904">
        <ele>692.76999999999998</ele>
        <time>2025-05-10T11:10:45Z</time>
      </trkpt>
      <trkpt lat="37.211680999025702" lon="-4.290482997894287">
        <ele>693.73000000000002</ele>
        <time>2025-05-10T11:10:46Z</time>
      </trkpt>
      <trkpt lat="37.211778983473778" lon="-4.290371015667915">
        <ele>694.69000000000005</ele>
        <time>2025-05-10T11:10:47Z</time>
      </trkpt>
      <trkpt lat="37.211856013163924" lon="-4.290248975157738">
        <ele>695.64999999999998</ele>
        <time>2025-05-10T11:10:48Z</time>
      </trkpt>
      <trkpt lat="37.211909992620349" lon="-4.290115032345057">
        <ele>696.61000000000001</ele>
        <time>2025-05-10T11:10:49Z</time>
      </trkpt>
      <trkpt lat="37.211917033419013" lon="-4.289961978793144">
        <ele>697.57000000000005</ele>
        <time>2025-05-10T11:10:50Z</time>
      </trkpt>
      <trkpt lat="37.211904963478446" lon="-4.28980004042387">
        <ele>698.04999999999995</ele>
        <time>2025-05-10T11:10:51Z</time>
      </trkpt>
      <trkpt lat="37.211872022598982" lon="-4.2896309774369">
        <ele>698.52999999999997</ele>
        <time>2025-05-10T11:10:52Z</time>
      </trkpt>
      <trkpt lat="37.211837992072105" lon="-4.289453029632568">
        <ele>699.01999999999998</ele>
        <time>2025-05-10T11:10:53Z</time>
      </trkpt>
      <trkpt lat="37.21180496737361" lon="-4.289281032979488">
        <ele>699.98000000000002</ele>
        <time>2025-05-10T11:10:54Z</time>
      </trkpt>
      <trkpt lat="37.211793987080455" lon="-4.289110964164138">
        <ele>700.94000000000005</ele>
        <time>2025-05-10T11:10:55Z</time>
      </trkpt>
      <trkpt lat="37.21180597320199" lon="-4.288932010531426">
        <ele>701.89999999999998</ele>
        <time>2025-05-10T11:10:56Z</time>
      </trkpt>
      <trkpt lat="37.21184603869915" lon="-4.288755990564823">
        <ele>702.86000000000001</ele>
        <time>2025-05-10T11:10:57Z</time>
      </trkpt>
      <trkpt lat="37.211898006498814" lon="-4.288582988083363">
        <ele>703.82000000000005</ele>
        <time>2025-05-10T11:10:58Z</time>
      </trkpt>
      <trkpt lat="37.211949974298477" lon="-4.288414008915424">
        <ele>704.77999999999997</ele>
        <time>2025-05-10T11:10:59Z</time>
      </trkpt>
      <trkpt lat="37.212001020088792" lon="-4.288248969241977">
        <ele>705.75</ele>
        <time>2025-05-10T11:11:00Z</time>
      </trkpt>
      <trkpt lat="37.212046030908823" lon="-4.288101028650999">
        <ele>706.71000000000004</ele>
        <time>2025-05-10T11:11:01Z</time>
      </trkpt>
      <trkpt lat="37.212119037285447" lon="-4.287963984534144">
        <ele>707.66999999999996</ele>
        <time>2025-05-10T11:11:02Z</time>
      </trkpt>
      <trkpt lat="37.212179973721504" lon="-4.287852002307773">
        <ele>708.14999999999998</ele>
        <time>2025-05-10T11:11:03Z</time>
      </trkpt>
      <trkpt lat="37.212247028946877" lon="-4.287787964567542">
        <ele>709.11000000000001</ele>
        <time>2025-05-10T11:11:04Z</time>
      </trkpt>
      <trkpt lat="37.212332021445036" lon="-4.287731973454356">
        <ele>709.11000000000001</ele>
        <time>2025-05-10T11:11:05Z</time>
      </trkpt>
      <trkpt lat="37.212425982579589" lon="-4.287689980119467">
        <ele>709.59000000000003</ele>
        <time>2025-05-10T11:11:06Z</time>
      </trkpt>
      <trkpt lat="37.212541988119483" lon="-4.287677993997932">
        <ele>710.07000000000005</ele>
        <time>2025-05-10T11:11:07Z</time>
      </trkpt>
      <trkpt lat="37.212672997266054" lon="-4.287665002048016">
        <ele>710.07000000000005</ele>
        <time>2025-05-10T11:11:08Z</time>
      </trkpt>
      <trkpt lat="37.212821021676064" lon="-4.287651004269719">
        <ele>710.54999999999995</ele>
        <time>2025-05-10T11:11:09Z</time>
      </trkpt>
      <trkpt lat="37.21412600018084" lon="-4.287642035633326">
        <ele>704.77999999999997</ele>
        <time>2025-05-10T11:11:16Z</time>
      </trkpt>
      <trkpt lat="37.215652009472251" lon="-4.287648992612958">
        <ele>702.38</ele>
        <time>2025-05-10T11:11:24Z</time>
      </trkpt>
      <trkpt lat="37.215804979205132" lon="-4.287687968462706">
        <ele>702.86000000000001</ele>
        <time>2025-05-10T11:11:25Z</time>
      </trkpt>
      <trkpt lat="37.2163160238415" lon="-4.287832975387573">
        <ele>704.77999999999997</ele>
        <time>2025-05-10T11:11:29Z</time>
      </trkpt>
      <trkpt lat="37.216414008289576" lon="-4.287809003144503">
        <ele>705.25999999999999</ele>
        <time>2025-05-10T11:11:30Z</time>
      </trkpt>
      <trkpt lat="37.216491037979722" lon="-4.287754017859697">
        <ele>706.23000000000002</ele>
        <time>2025-05-10T11:11:31Z</time>
      </trkpt>
      <trkpt lat="37.216564966365695" lon="-4.287681011483073">
        <ele>706.71000000000004</ele>
        <time>2025-05-10T11:11:32Z</time>
      </trkpt>
      <trkpt lat="37.21661701798439" lon="-4.287595013156533">
        <ele>707.66999999999996</ele>
        <time>2025-05-10T11:11:33Z</time>
      </trkpt>
      <trkpt lat="37.216665968298912" lon="-4.287470960989595">
        <ele>708.63</ele>
        <time>2025-05-10T11:11:34Z</time>
      </trkpt>
      <trkpt lat="37.216721959412098" lon="-4.287332994863391">
        <ele>709.59000000000003</ele>
        <time>2025-05-10T11:11:35Z</time>
      </trkpt>
      <trkpt lat="37.216782979667187" lon="-4.287192011252046">
        <ele>710.54999999999995</ele>
        <time>2025-05-10T11:11:36Z</time>
      </trkpt>
      <trkpt lat="37.216855986043811" lon="-4.287058990448713">
        <ele>711.50999999999999</ele>
        <time>2025-05-10T11:11:37Z</time>
      </trkpt>
      <trkpt lat="37.216951958835125" lon="-4.286940973252058">
        <ele>712.47000000000003</ele>
        <time>2025-05-10T11:11:38Z</time>
      </trkpt>
      <trkpt lat="37.217055978253484" lon="-4.286825973540545">
        <ele>713.44000000000005</ele>
        <time>2025-05-10T11:11:39Z</time>
      </trkpt>
      <trkpt lat="37.217177012935281" lon="-4.286733018234372">
        <ele>714.39999999999998</ele>
        <time>2025-05-10T11:11:40Z</time>
      </trkpt>
      <trkpt lat="37.217297041788697" lon="-4.286645008251071">
        <ele>714.88</ele>
        <time>2025-05-10T11:11:41Z</time>
      </trkpt>
      <trkpt lat="37.217682022601366" lon="-4.286346025764942">
        <ele>719.67999999999995</ele>
        <time>2025-05-10T11:11:45Z</time>
      </trkpt>
      <trkpt lat="37.217839015647769" lon="-4.286221973598003">
        <ele>721.61000000000001</ele>
        <time>2025-05-10T11:11:47Z</time>
      </trkpt>
      <trkpt lat="37.217984022572637" lon="-4.286089958623052">
        <ele>723.52999999999997</ele>
        <time>2025-05-10T11:11:49Z</time>
      </trkpt>
      <trkpt lat="37.218059040606022" lon="-4.286011001095176">
        <ele>724.49000000000001</ele>
        <time>2025-05-10T11:11:50Z</time>
      </trkpt>
      <trkpt lat="37.218347964808345" lon="-4.285573968663812">
        <ele>729.29999999999995</ele>
        <time>2025-05-10T11:11:55Z</time>
      </trkpt>
      <trkpt lat="37.218817016109824" lon="-4.284812975674868">
        <ele>735.54999999999995</ele>
        <time>2025-05-10T11:12:05Z</time>
      </trkpt>
      <trkpt lat="37.218968980014324" lon="-4.284585993736982">
        <ele>737.47000000000003</ele>
        <time>2025-05-10T11:12:08Z</time>
      </trkpt>
      <trkpt lat="37.219601981341839" lon="-4.283632971346378">
        <ele>744.20000000000005</ele>
        <time>2025-05-10T11:12:18Z</time>
      </trkpt>
      <trkpt lat="37.22039801068604" lon="-4.282460007816553">
        <ele>755.25</ele>
        <time>2025-05-10T11:12:27Z</time>
      </trkpt>
      <trkpt lat="37.220495995134115" lon="-4.28236797451973">
        <ele>756.69000000000005</ele>
        <time>2025-05-10T11:12:28Z</time>
      </trkpt>
      <trkpt lat="37.220590962097049" lon="-4.282277030870318">
        <ele>758.13999999999999</ele>
        <time>2025-05-10T11:12:29Z</time>
      </trkpt>
      <trkpt lat="37.220690958201885" lon="-4.28219597786665">
        <ele>760.05999999999995</ele>
        <time>2025-05-10T11:12:30Z</time>
      </trkpt>
      <trkpt lat="37.220810987055302" lon="-4.282168988138437">
        <ele>761.5</ele>
        <time>2025-05-10T11:12:31Z</time>
      </trkpt>
      <trkpt lat="37.220940990373492" lon="-4.282170999795198">
        <ele>762.94000000000005</ele>
        <time>2025-05-10T11:12:32Z</time>
      </trkpt>
      <trkpt lat="37.221071999520063" lon="-4.282193966209889">
        <ele>764.38999999999999</ele>
        <time>2025-05-10T11:12:33Z</time>
      </trkpt>
      <trkpt lat="37.221206026151776" lon="-4.282218022271991">
        <ele>765.83000000000004</ele>
        <time>2025-05-10T11:12:34Z</time>
      </trkpt>
      <trkpt lat="37.221466032788157" lon="-4.282264960929751">
        <ele>768.23000000000002</ele>
        <time>2025-05-10T11:12:36Z</time>
      </trkpt>
      <trkpt lat="37.2215829603374" lon="-4.282235959544778">
        <ele>769.66999999999996</ele>
        <time>2025-05-10T11:12:37Z</time>
      </trkpt>
      <trkpt lat="37.221684968098998" lon="-4.282186003401876">
        <ele>770.63</ele>
        <time>2025-05-10T11:12:38Z</time>
      </trkpt>
      <trkpt lat="37.221784964203835" lon="-4.28211098536849">
        <ele>771.60000000000002</ele>
        <time>2025-05-10T11:12:39Z</time>
      </trkpt>
      <trkpt lat="37.221867023035884" lon="-4.281999003142119">
        <ele>772.55999999999995</ele>
        <time>2025-05-10T11:12:40Z</time>
      </trkpt>
      <trkpt lat="37.221944974735379" lon="-4.28187201730907">
        <ele>773.03999999999996</ele>
        <time>2025-05-10T11:12:41Z</time>
      </trkpt>
      <trkpt lat="37.222002977505326" lon="-4.281726004555821">
        <ele>773.51999999999998</ele>
        <time>2025-05-10T11:12:42Z</time>
      </trkpt>
      <trkpt lat="37.222042959183455" lon="-4.281563982367516">
        <ele>774</ele>
        <time>2025-05-10T11:12:43Z</time>
      </trkpt>
      <trkpt lat="37.222080007195473" lon="-4.281415035948157">
        <ele>774</ele>
        <time>2025-05-10T11:12:44Z</time>
      </trkpt>
      <trkpt lat="37.222143039107323" lon="-4.28129299543798">
        <ele>774</ele>
        <time>2025-05-10T11:12:45Z</time>
      </trkpt>
      <trkpt lat="37.222212022170424" lon="-4.281177995726466">
        <ele>773.51999999999998</ele>
        <time>2025-05-10T11:12:46Z</time>
      </trkpt>
      <trkpt lat="37.222305983304977" lon="-4.281095014885068">
        <ele>773.03999999999996</ele>
        <time>2025-05-10T11:12:47Z</time>
      </trkpt>
      <trkpt lat="37.222410002723336" lon="-4.281005999073386">
        <ele>773.03999999999996</ele>
        <time>2025-05-10T11:12:48Z</time>
      </trkpt>
      <trkpt lat="37.222519973292947" lon="-4.280912959948182">
        <ele>772.55999999999995</ele>
        <time>2025-05-10T11:12:49Z</time>
      </trkpt>
      <trkpt lat="37.222821973264217" lon="-4.280655970796943">
        <ele>771.60000000000002</ele>
        <time>2025-05-10T11:12:52Z</time>
      </trkpt>
      <trkpt lat="37.222924986854196" lon="-4.280569972470403">
        <ele>771.11000000000001</ele>
        <time>2025-05-10T11:12:53Z</time>
      </trkpt>
      <trkpt lat="37.222962034866214" lon="-4.280470982193947">
        <ele>770.63</ele>
        <time>2025-05-10T11:12:54Z</time>
      </trkpt>
      <trkpt lat="37.222991958260536" lon="-4.280340978875756">
        <ele>770.14999999999998</ele>
        <time>2025-05-10T11:12:55Z</time>
      </trkpt>
      <trkpt lat="37.223000004887581" lon="-4.280203012749553">
        <ele>769.66999999999996</ele>
        <time>2025-05-10T11:12:56Z</time>
      </trkpt>
      <trkpt lat="37.223007967695594" lon="-4.280058005824685">
        <ele>769.19000000000005</ele>
        <time>2025-05-10T11:12:57Z</time>
      </trkpt>
      <trkpt lat="37.223017020151019" lon="-4.279907969757915">
        <ele>769.19000000000005</ele>
        <time>2025-05-10T11:12:58Z</time>
      </trkpt>
      <trkpt lat="37.223025988787413" lon="-4.279755000025034">
        <ele>769.19000000000005</ele>
        <time>2025-05-10T11:12:59Z</time>
      </trkpt>
      <trkpt lat="37.223048033192754" lon="-4.279605969786644">
        <ele>769.19000000000005</ele>
        <time>2025-05-10T11:13:00Z</time>
      </trkpt>
      <trkpt lat="37.223103018477559" lon="-4.279462974518538">
        <ele>769.19000000000005</ele>
        <time>2025-05-10T11:13:01Z</time>
      </trkpt>
      <trkpt lat="37.223164960741997" lon="-4.279327020049095">
        <ele>769.19000000000005</ele>
        <time>2025-05-10T11:13:02Z</time>
      </trkpt>
      <trkpt lat="37.223239978775382" lon="-4.279201962053776">
        <ele>769.19000000000005</ele>
        <time>2025-05-10T11:13:03Z</time>
      </trkpt>
      <trkpt lat="37.223313990980387" lon="-4.279083022847772">
        <ele>769.66999999999996</ele>
        <time>2025-05-10T11:13:04Z</time>
      </trkpt>
      <trkpt lat="37.223391020670533" lon="-4.278966011479497">
        <ele>770.14999999999998</ele>
        <time>2025-05-10T11:13:05Z</time>
      </trkpt>
      <trkpt lat="37.223496967926621" lon="-4.278875989839435">
        <ele>770.63</ele>
        <time>2025-05-10T11:13:06Z</time>
      </trkpt>
      <trkpt lat="37.223615990951657" lon="-4.278790997341275">
        <ele>771.11000000000001</ele>
        <time>2025-05-10T11:13:07Z</time>
      </trkpt>
      <trkpt lat="37.223740965127945" lon="-4.278701981529594">
        <ele>771.60000000000002</ele>
        <time>2025-05-10T11:13:08Z</time>
      </trkpt>
      <trkpt lat="37.22387901507318" lon="-4.278634004294872">
        <ele>772.08000000000004</ele>
        <time>2025-05-10T11:13:09Z</time>
      </trkpt>
      <trkpt lat="37.225054996088147" lon="-4.278057999908924">
        <ele>777.36000000000001</ele>
        <time>2025-05-10T11:13:17Z</time>
      </trkpt>
      <trkpt lat="37.225823029875755" lon="-4.277621973305941">
        <ele>781.21000000000004</ele>
        <time>2025-05-10T11:13:23Z</time>
      </trkpt>
      <trkpt lat="37.225896958261728" lon="-4.277530023828149">
        <ele>782.16999999999996</ele>
        <time>2025-05-10T11:13:24Z</time>
      </trkpt>
      <trkpt lat="37.225964013487101" lon="-4.277431033551693">
        <ele>783.13</ele>
        <time>2025-05-10T11:13:25Z</time>
      </trkpt>
      <trkpt lat="37.226424012333155" lon="-4.276769030839205">
        <ele>785.52999999999997</ele>
        <time>2025-05-10T11:13:33Z</time>
      </trkpt>
      <trkpt lat="37.22649903036654" lon="-4.2766950186342">
        <ele>786.01999999999998</ele>
        <time>2025-05-10T11:13:34Z</time>
      </trkpt>
      <trkpt lat="37.226577987894416" lon="-4.276635004207492">
        <ele>786.01999999999998</ele>
        <time>2025-05-10T11:13:35Z</time>
      </trkpt>
      <trkpt lat="37.226668009534478" lon="-4.276607008650899">
        <ele>786.01999999999998</ele>
        <time>2025-05-10T11:13:36Z</time>
      </trkpt>
      <trkpt lat="37.226760964840651" lon="-4.276578007265925">
        <ele>786.01999999999998</ele>
        <time>2025-05-10T11:13:37Z</time>
      </trkpt>
      <trkpt lat="37.226850986480713" lon="-4.276559986174107">
        <ele>786.01999999999998</ele>
        <time>2025-05-10T11:13:38Z</time>
      </trkpt>
      <trkpt lat="37.226940002292395" lon="-4.276572978124023">
        <ele>786.01999999999998</ele>
        <time>2025-05-10T11:13:39Z</time>
      </trkpt>
      <trkpt lat="37.227021977305412" lon="-4.276585970073938">
        <ele>786.01999999999998</ele>
        <time>2025-05-10T11:13:40Z</time>
      </trkpt>
      <trkpt lat="37.227098001167178" lon="-4.276597034186125">
        <ele>786.01999999999998</ele>
        <time>2025-05-10T11:13:41Z</time>
      </trkpt>
      <trkpt lat="37.227353984490037" lon="-4.276601979508996">
        <ele>786.01999999999998</ele>
        <time>2025-05-10T11:13:48Z</time>
      </trkpt>
      <trkpt lat="37.227388015016913" lon="-4.276596028357744">
        <ele>785.52999999999997</ele>
        <time>2025-05-10T11:14:00Z</time>
      </trkpt>
      <trkpt lat="37.227388015016913" lon="-4.276596028357744">
        <ele>785.52999999999997</ele>
        <time>2025-05-10T11:14:41Z</time>
      </trkpt>
      <trkpt lat="37.227455992251635" lon="-4.276582030579448">
        <ele>785.04999999999995</ele>
        <time>2025-05-10T11:14:42Z</time>
      </trkpt>
      <trkpt lat="37.227536961436272" lon="-4.276516987010837">
        <ele>783.61000000000001</ele>
        <time>2025-05-10T11:14:44Z</time>
      </trkpt>
      <trkpt lat="37.227585995569825" lon="-4.276468958705664">
        <ele>783.13</ele>
        <time>2025-05-10T11:14:45Z</time>
      </trkpt>
      <trkpt lat="37.22793904133141" lon="-4.276125971227884">
        <ele>781.21000000000004</ele>
        <time>2025-05-10T11:14:52Z</time>
      </trkpt>
      <trkpt lat="37.228060998022556" lon="-4.27600895985961">
        <ele>780.25</ele>
        <time>2025-05-10T11:14:55Z</time>
      </trkpt>
      <trkpt lat="37.228193012997508" lon="-4.2758799623698">
        <ele>779.76999999999998</ele>
        <time>2025-05-10T11:14:58Z</time>
      </trkpt>
      <trkpt lat="37.228280017152429" lon="-4.275840986520052">
        <ele>779.28999999999996</ele>
        <time>2025-05-10T11:15:06Z</time>
      </trkpt>
      <trkpt lat="37.228280017152429" lon="-4.275840986520052">
        <ele>778.80999999999995</ele>
        <time>2025-05-10T11:15:50Z</time>
      </trkpt>
      <trkpt lat="37.228280017152429" lon="-4.275840986520052">
        <ele>778.80999999999995</ele>
        <time>2025-05-10T11:16:41Z</time>
      </trkpt>
      <trkpt lat="37.228516973555088" lon="-4.275696985423565">
        <ele>779.28999999999996</ele>
        <time>2025-05-10T11:16:55Z</time>
      </trkpt>
      <trkpt lat="37.229109993204474" lon="-4.275329019874334">
        <ele>777.36000000000001</ele>
        <time>2025-05-10T11:17:01Z</time>
      </trkpt>
      <trkpt lat="37.229184005409479" lon="-4.275215025991201">
        <ele>776.88</ele>
        <time>2025-05-10T11:17:02Z</time>
      </trkpt>
      <trkpt lat="37.229219041764736" lon="-4.275087034329772">
        <ele>775.91999999999996</ele>
        <time>2025-05-10T11:17:03Z</time>
      </trkpt>
      <trkpt lat="37.229225998744369" lon="-4.274950996041298">
        <ele>774.96000000000004</ele>
        <time>2025-05-10T11:17:04Z</time>
      </trkpt>
      <trkpt lat="37.229212000966072" lon="-4.274797020480037">
        <ele>774</ele>
        <time>2025-05-10T11:17:05Z</time>
      </trkpt>
      <trkpt lat="37.229170007631183" lon="-4.274665005505085">
        <ele>773.03999999999996</ele>
        <time>2025-05-10T11:17:06Z</time>
      </trkpt>
      <trkpt lat="37.229124996811152" lon="-4.274521004408598">
        <ele>772.08000000000004</ele>
        <time>2025-05-10T11:17:07Z</time>
      </trkpt>
      <trkpt lat="37.229030029848218" lon="-4.274216992780566">
        <ele>770.14999999999998</ele>
        <time>2025-05-10T11:17:09Z</time>
      </trkpt>
      <trkpt lat="37.228999016806483" lon="-4.274063017219305">
        <ele>769.19000000000005</ele>
        <time>2025-05-10T11:17:10Z</time>
      </trkpt>
      <trkpt lat="37.229004967957735" lon="-4.273890014737845">
        <ele>767.75</ele>
        <time>2025-05-10T11:17:11Z</time>
      </trkpt>
      <trkpt lat="37.229027012363076" lon="-4.272696012631059">
        <ele>761.5</ele>
        <time>2025-05-10T11:17:17Z</time>
      </trkpt>
      <trkpt lat="37.228932967409492" lon="-4.271020973101258">
        <ele>759.10000000000002</ele>
        <time>2025-05-10T11:17:25Z</time>
      </trkpt>
      <trkpt lat="37.228873036801815" lon="-4.27085098810494">
        <ele>760.05999999999995</ele>
        <time>2025-05-10T11:17:26Z</time>
      </trkpt>
      <trkpt lat="37.228818973526359" lon="-4.270698018372059">
        <ele>760.53999999999996</ele>
        <time>2025-05-10T11:17:27Z</time>
      </trkpt>
      <trkpt lat="37.228738004341722" lon="-4.270568015053868">
        <ele>761.01999999999998</ele>
        <time>2025-05-10T11:17:28Z</time>
      </trkpt>
      <trkpt lat="37.22864898853004" lon="-4.270448992028832">
        <ele>761.5</ele>
        <time>2025-05-10T11:17:29Z</time>
      </trkpt>
      <trkpt lat="37.228211034089327" lon="-4.26983904093504">
        <ele>762.46000000000004</ele>
        <time>2025-05-10T11:17:34Z</time>
      </trkpt>
      <trkpt lat="37.228174991905689" lon="-4.26966997794807">
        <ele>761.98000000000002</ele>
        <time>2025-05-10T11:17:35Z</time>
      </trkpt>
      <trkpt lat="37.228140039369464" lon="-4.269506027922034">
        <ele>761.01999999999998</ele>
        <time>2025-05-10T11:17:36Z</time>
      </trkpt>
      <trkpt lat="37.228078013285995" lon="-4.269211990758777">
        <ele>759.10000000000002</ele>
        <time>2025-05-10T11:17:38Z</time>
      </trkpt>
      <trkpt lat="37.228008024394512" lon="-4.26909196190536">
        <ele>758.13999999999999</ele>
        <time>2025-05-10T11:17:39Z</time>
      </trkpt>
      <trkpt lat="37.227921020239592" lon="-4.268953995779157">
        <ele>757.17999999999995</ele>
        <time>2025-05-10T11:17:40Z</time>
      </trkpt>
      <trkpt lat="37.227560011669993" lon="-4.268382014706731">
        <ele>752.37</ele>
        <time>2025-05-10T11:17:44Z</time>
      </trkpt>
      <trkpt lat="37.227498991414905" lon="-4.268199037760496">
        <ele>750.92999999999995</ele>
        <time>2025-05-10T11:17:45Z</time>
      </trkpt>
      <trkpt lat="37.227455992251635" lon="-4.268041960895062">
        <ele>749.97000000000003</ele>
        <time>2025-05-10T11:17:46Z</time>
      </trkpt>
      <trkpt lat="37.227483987808228" lon="-4.26788697950542">
        <ele>748.51999999999998</ele>
        <time>2025-05-10T11:17:47Z</time>
      </trkpt>
      <trkpt lat="37.227545008063316" lon="-4.267756976187229">
        <ele>747.08000000000004</ele>
        <time>2025-05-10T11:17:48Z</time>
      </trkpt>
      <trkpt lat="37.227634023874998" lon="-4.267638036981225">
        <ele>745.63999999999999</ele>
        <time>2025-05-10T11:17:49Z</time>
      </trkpt>
      <trkpt lat="37.22772697918117" lon="-4.267551032826304">
        <ele>744.20000000000005</ele>
        <time>2025-05-10T11:17:50Z</time>
      </trkpt>
      <trkpt lat="37.227859999984503" lon="-4.267498981207609">
        <ele>742.75999999999999</ele>
        <time>2025-05-10T11:17:51Z</time>
      </trkpt>
      <trkpt lat="37.228001989424229" lon="-4.267441984266043">
        <ele>741.78999999999996</ele>
        <time>2025-05-10T11:17:52Z</time>
      </trkpt>
      <trkpt lat="37.229639980942011" lon="-4.26681300625205">
        <ele>730.74000000000001</ele>
        <time>2025-05-10T11:18:03Z</time>
      </trkpt>
      <trkpt lat="37.22976696677506" lon="-4.266719967126846">
        <ele>730.25999999999999</ele>
        <time>2025-05-10T11:18:04Z</time>
      </trkpt>
      <trkpt lat="37.229864029213786" lon="-4.266601027920842">
        <ele>729.77999999999997</ele>
        <time>2025-05-10T11:18:05Z</time>
      </trkpt>
      <trkpt lat="37.229949021711946" lon="-4.266460966318846">
        <ele>728.82000000000005</ele>
        <time>2025-05-10T11:18:06Z</time>
      </trkpt>
      <trkpt lat="37.230038959532976" lon="-4.266314031556249">
        <ele>728.34000000000003</ele>
        <time>2025-05-10T11:18:07Z</time>
      </trkpt>
      <trkpt lat="37.231117961928248" lon="-4.264484010636807">
        <ele>721.61000000000001</ele>
        <time>2025-05-10T11:18:18Z</time>
      </trkpt>
      <trkpt lat="37.231649961322546" lon="-4.263377012684941">
        <ele>714.88</ele>
        <time>2025-05-10T11:18:25Z</time>
      </trkpt>
      <trkpt lat="37.231666976585984" lon="-4.263204010203481">
        <ele>713.44000000000005</ele>
        <time>2025-05-10T11:18:26Z</time>
      </trkpt>
      <trkpt lat="37.23167703486979" lon="-4.263040982186794">
        <ele>711.99000000000001</ele>
        <time>2025-05-10T11:18:27Z</time>
      </trkpt>
      <trkpt lat="37.231456004083157" lon="-4.261469962075353">
        <ele>699.5</ele>
        <time>2025-05-10T11:18:35Z</time>
      </trkpt>
      <trkpt lat="37.231213012710214" lon="-4.259446989744902">
        <ele>688.91999999999996</ele>
        <time>2025-05-10T11:18:45Z</time>
      </trkpt>
      <trkpt lat="37.231216030195355" lon="-4.259273987263441">
        <ele>688.44000000000005</ele>
        <time>2025-05-10T11:18:46Z</time>
      </trkpt>
      <trkpt lat="37.231229022145271" lon="-4.259111965075135">
        <ele>687.48000000000002</ele>
        <time>2025-05-10T11:18:47Z</time>
      </trkpt>
      <trkpt lat="37.231275960803032" lon="-4.258952960371971">
        <ele>686.51999999999998</ele>
        <time>2025-05-10T11:18:48Z</time>
      </trkpt>
      <trkpt lat="37.231323989108205" lon="-4.258786998689175">
        <ele>685.08000000000004</ele>
        <time>2025-05-10T11:18:49Z</time>
      </trkpt>
      <trkpt lat="37.231419961899519" lon="-4.258461026474834">
        <ele>683.63</ele>
        <time>2025-05-10T11:18:51Z</time>
      </trkpt>
      <trkpt lat="37.231443012133241" lon="-4.258296992629767">
        <ele>682.66999999999996</ele>
        <time>2025-05-10T11:18:52Z</time>
      </trkpt>
      <trkpt lat="37.231443012133241" lon="-4.258139999583364">
        <ele>681.71000000000004</ele>
        <time>2025-05-10T11:18:53Z</time>
      </trkpt>
      <trkpt lat="37.231404036283493" lon="-4.257973032072187">
        <ele>681.23000000000002</ele>
        <time>2025-05-10T11:18:54Z</time>
      </trkpt>
      <trkpt lat="37.231353996321559" lon="-4.2578100040555">
        <ele>680.75</ele>
        <time>2025-05-10T11:18:55Z</time>
      </trkpt>
      <trkpt lat="37.230916963890195" lon="-4.256396982818842">
        <ele>675.94000000000005</ele>
        <time>2025-05-10T11:19:03Z</time>
      </trkpt>
      <trkpt lat="37.230843035504222" lon="-4.256279971450567">
        <ele>675.46000000000004</ele>
        <time>2025-05-10T11:19:04Z</time>
      </trkpt>
      <trkpt lat="37.230724012479186" lon="-4.256187016144395">
        <ele>674.98000000000002</ele>
        <time>2025-05-10T11:19:05Z</time>
      </trkpt>
      <trkpt lat="37.230618987232447" lon="-4.256124990060926">
        <ele>674.01999999999998</ele>
        <time>2025-05-10T11:19:06Z</time>
      </trkpt>
      <trkpt lat="37.230501975864172" lon="-4.256107974797487">
        <ele>673.53999999999996</ele>
        <time>2025-05-10T11:19:07Z</time>
      </trkpt>
      <trkpt lat="37.230364009737968" lon="-4.256149968132377">
        <ele>673.05999999999995</ele>
        <time>2025-05-10T11:19:08Z</time>
      </trkpt>
      <trkpt lat="37.230220008641481" lon="-4.256193973124027">
        <ele>672.58000000000004</ele>
        <time>2025-05-10T11:19:09Z</time>
      </trkpt>
      <trkpt lat="37.229469995945692" lon="-4.256407963111997">
        <ele>670.17999999999995</ele>
        <time>2025-05-10T11:19:14Z</time>
      </trkpt>
      <trkpt lat="37.229322977364063" lon="-4.256378961727023">
        <ele>669.22000000000003</ele>
        <time>2025-05-10T11:19:15Z</time>
      </trkpt>
      <trkpt lat="37.229171013459563" lon="-4.256322970613837">
        <ele>668.73000000000002</ele>
        <time>2025-05-10T11:19:16Z</time>
      </trkpt>
      <trkpt lat="37.229017959907651" lon="-4.256245018914342">
        <ele>667.76999999999998</ele>
        <time>2025-05-10T11:19:17Z</time>
      </trkpt>
      <trkpt lat="37.228855015709996" lon="-4.256161032244563">
        <ele>667.28999999999996</ele>
        <time>2025-05-10T11:19:18Z</time>
      </trkpt>
      <trkpt lat="37.227035975083709" lon="-4.255180014297366">
        <ele>656.72000000000003</ele>
        <time>2025-05-10T11:19:28Z</time>
      </trkpt>
      <trkpt lat="37.225567968562245" lon="-4.25437199883163">
        <ele>649.50999999999999</ele>
        <time>2025-05-10T11:19:37Z</time>
      </trkpt>
      <trkpt lat="37.225496973842382" lon="-4.254235960543156">
        <ele>649.02999999999997</ele>
        <time>2025-05-10T11:19:38Z</time>
      </trkpt>
      <trkpt lat="37.225431008264422" lon="-4.254092965275049">
        <ele>648.54999999999995</ele>
        <time>2025-05-10T11:19:39Z</time>
      </trkpt>
      <trkpt lat="37.225388009101152" lon="-4.253910994157195">
        <ele>648.07000000000005</ele>
        <time>2025-05-10T11:19:40Z</time>
      </trkpt>
      <trkpt lat="37.22534098662436" lon="-4.253700021654367">
        <ele>647.10000000000002</ele>
        <time>2025-05-10T11:19:41Z</time>
      </trkpt>
      <trkpt lat="37.224956005811691" lon="-4.251750977709889">
        <ele>638.45000000000005</ele>
        <time>2025-05-10T11:19:49Z</time>
      </trkpt>
      <trkpt lat="37.224533976987004" lon="-4.249380994588137">
        <ele>627.39999999999998</ele>
        <time>2025-05-10T11:19:59Z</time>
      </trkpt>
      <trkpt lat="37.224533976987004" lon="-4.249196005985141">
        <ele>626.44000000000005</ele>
        <time>2025-05-10T11:20:00Z</time>
      </trkpt>
      <trkpt lat="37.224570019170642" lon="-4.249020991846919">
        <ele>625.47000000000003</ele>
        <time>2025-05-10T11:20:01Z</time>
      </trkpt>
      <trkpt lat="37.224620981141925" lon="-4.248828962445259">
        <ele>624.99000000000001</ele>
        <time>2025-05-10T11:20:02Z</time>
      </trkpt>
      <trkpt lat="37.225274015218019" lon="-4.24702500924468">
        <ele>616.34000000000003</ele>
        <time>2025-05-10T11:20:10Z</time>
      </trkpt>
      <trkpt lat="37.226259978488088" lon="-4.244298962876201">
        <ele>599.51999999999998</ele>
        <time>2025-05-10T11:20:22Z</time>
      </trkpt>
      <trkpt lat="37.226876970380545" lon="-4.242436001077294">
        <ele>589.42999999999995</ele>
        <time>2025-05-10T11:20:30Z</time>
      </trkpt>
      <trkpt lat="37.226907983422279" lon="-4.242226034402847">
        <ele>589.42999999999995</ele>
        <time>2025-05-10T11:20:31Z</time>
      </trkpt>
      <trkpt lat="37.226934973150492" lon="-4.242023024708033">
        <ele>588.95000000000005</ele>
        <time>2025-05-10T11:20:32Z</time>
      </trkpt>
      <trkpt lat="37.226888034492731" lon="-4.24182403832674">
        <ele>588.95000000000005</ele>
        <time>2025-05-10T11:20:33Z</time>
      </trkpt>
      <trkpt lat="37.226833971217275" lon="-4.241618011146784">
        <ele>588.46000000000004</ele>
        <time>2025-05-10T11:20:34Z</time>
      </trkpt>
      <trkpt lat="37.22675995901227" lon="-4.241420030593872">
        <ele>588.95000000000005</ele>
        <time>2025-05-10T11:20:35Z</time>
      </trkpt>
      <trkpt lat="37.226685024797916" lon="-4.241217020899057">
        <ele>589.42999999999995</ele>
        <time>2025-05-10T11:20:36Z</time>
      </trkpt>
      <trkpt lat="37.22660799510777" lon="-4.241006970405579">
        <ele>589.90999999999997</ele>
        <time>2025-05-10T11:20:37Z</time>
      </trkpt>
      <trkpt lat="37.225825041532516" lon="-4.238705970346928">
        <ele>588.46000000000004</ele>
        <time>2025-05-10T11:20:48Z</time>
      </trkpt>
      <trkpt lat="37.225656984373927" lon="-4.238328030332923">
        <ele>587.01999999999998</ele>
        <time>2025-05-10T11:20:50Z</time>
      </trkpt>
      <trkpt lat="37.225550031289458" lon="-4.238161984831095">
        <ele>587.01999999999998</ele>
        <time>2025-05-10T11:20:51Z</time>
      </trkpt>
      <trkpt lat="37.225439976900816" lon="-4.238010020926595">
        <ele>586.53999999999996</ele>
        <time>2025-05-10T11:20:52Z</time>
      </trkpt>
      <trkpt lat="37.22529698163271" lon="-4.237926034256816">
        <ele>586.53999999999996</ele>
        <time>2025-05-10T11:20:53Z</time>
      </trkpt>
      <trkpt lat="37.225155998021364" lon="-4.237866019830108">
        <ele>586.53999999999996</ele>
        <time>2025-05-10T11:20:54Z</time>
      </trkpt>
      <trkpt lat="37.224999004974961" lon="-4.237855039536953">
        <ele>586.53999999999996</ele>
        <time>2025-05-10T11:20:55Z</time>
      </trkpt>
      <trkpt lat="37.224835976958275" lon="-4.237842969596386">
        <ele>586.53999999999996</ele>
        <time>2025-05-10T11:20:56Z</time>
      </trkpt>
      <trkpt lat="37.224513022229075" lon="-4.237791001796722">
        <ele>586.53999999999996</ele>
        <time>2025-05-10T11:20:58Z</time>
      </trkpt>
      <trkpt lat="37.224376983940601" lon="-4.237734004855156">
        <ele>586.53999999999996</ele>
        <time>2025-05-10T11:20:59Z</time>
      </trkpt>
      <trkpt lat="37.224274976179004" lon="-4.237643983215094">
        <ele>586.53999999999996</ele>
        <time>2025-05-10T11:21:00Z</time>
      </trkpt>
      <trkpt lat="37.224184032529593" lon="-4.237534012645483">
        <ele>586.05999999999995</ele>
        <time>2025-05-10T11:21:01Z</time>
      </trkpt>
      <trkpt lat="37.224114965647459" lon="-4.237395962700248">
        <ele>586.05999999999995</ele>
        <time>2025-05-10T11:21:02Z</time>
      </trkpt>
      <trkpt lat="37.224044976755977" lon="-4.237255984917283">
        <ele>586.05999999999995</ele>
        <time>2025-05-10T11:21:03Z</time>
      </trkpt>
      <trkpt lat="37.223971970379353" lon="-4.237109972164035">
        <ele>586.53999999999996</ele>
        <time>2025-05-10T11:21:04Z</time>
      </trkpt>
      <trkpt lat="37.223153980448842" lon="-4.236106993630529">
        <ele>589.42999999999995</ele>
        <time>2025-05-10T11:21:11Z</time>
      </trkpt>
      <trkpt lat="37.221525041386485" lon="-4.234759015962482">
        <ele>597.12</ele>
        <time>2025-05-10T11:21:22Z</time>
      </trkpt>
      <trkpt lat="37.221370982006192" lon="-4.2346700001508">
        <ele>597.60000000000002</ele>
        <time>2025-05-10T11:21:23Z</time>
      </trkpt>
      <trkpt lat="37.221218012273312" lon="-4.234638987109065">
        <ele>598.08000000000004</ele>
        <time>2025-05-10T11:21:24Z</time>
      </trkpt>
      <trkpt lat="37.221055990085006" lon="-4.234629012644291">
        <ele>598.55999999999995</ele>
        <time>2025-05-10T11:21:25Z</time>
      </trkpt>
      <trkpt lat="37.220864966511726" lon="-4.234629012644291">
        <ele>599.03999999999996</ele>
        <time>2025-05-10T11:21:26Z</time>
      </trkpt>
      <trkpt lat="37.220715014263988" lon="-4.234668994322419">
        <ele>599.51999999999998</ele>
        <time>2025-05-10T11:21:27Z</time>
      </trkpt>
      <trkpt lat="37.220532959327102" lon="-4.234720962122083">
        <ele>600</ele>
        <time>2025-05-10T11:21:28Z</time>
      </trkpt>
      <trkpt lat="37.220371020957828" lon="-4.234818024560809">
        <ele>600.48000000000002</ele>
        <time>2025-05-10T11:21:29Z</time>
      </trkpt>
      <trkpt lat="37.220208998769522" lon="-4.234915003180504">
        <ele>600.96000000000004</ele>
        <time>2025-05-10T11:21:30Z</time>
      </trkpt>
      <trkpt lat="37.2188959736377" lon="-4.235669039189816">
        <ele>602.39999999999998</ele>
        <time>2025-05-10T11:21:38Z</time>
      </trkpt>
      <trkpt lat="37.218734035268426" lon="-4.235713966190815">
        <ele>602.39999999999998</ele>
        <time>2025-05-10T11:21:39Z</time>
      </trkpt>
      <trkpt lat="37.218567989766598" lon="-4.235759982839227">
        <ele>601.91999999999996</ele>
        <time>2025-05-10T11:21:40Z</time>
      </trkpt>
      <trkpt lat="37.218395993113518" lon="-4.235758977010846">
        <ele>601.91999999999996</ele>
        <time>2025-05-10T11:21:41Z</time>
      </trkpt>
      <trkpt lat="37.218215027824044" lon="-4.235751014202833">
        <ele>601.44000000000005</ele>
        <time>2025-05-10T11:21:42Z</time>
      </trkpt>
      <trkpt lat="37.218036996200681" lon="-4.235735004767776">
        <ele>601.44000000000005</ele>
        <time>2025-05-10T11:21:43Z</time>
      </trkpt>
      <trkpt lat="37.217857958748937" lon="-4.235689993947744">
        <ele>601.44000000000005</ele>
        <time>2025-05-10T11:21:44Z</time>
      </trkpt>
      <trkpt lat="37.217355966567993" lon="-4.235484972596169">
        <ele>601.44000000000005</ele>
        <time>2025-05-10T11:21:47Z</time>
      </trkpt>
      <trkpt lat="37.217205008491874" lon="-4.235361004248262">
        <ele>600.96000000000004</ele>
        <time>2025-05-10T11:21:48Z</time>
      </trkpt>
      <trkpt lat="37.217049021273851" lon="-4.235233012586832">
        <ele>600.96000000000004</ele>
        <time>2025-05-10T11:21:49Z</time>
      </trkpt>
      <trkpt lat="37.215482024475932" lon="-4.233637014403939">
        <ele>597.12</ele>
        <time>2025-05-10T11:21:59Z</time>
      </trkpt>
      <trkpt lat="37.213947968557477" lon="-4.232057025656104">
        <ele>591.35000000000002</ele>
        <time>2025-05-10T11:22:09Z</time>
      </trkpt>
      <trkpt lat="37.21257702447474" lon="-4.230644004419446">
        <ele>587.98000000000002</ele>
        <time>2025-05-10T11:22:18Z</time>
      </trkpt>
      <trkpt lat="37.211108012124896" lon="-4.229494007304311">
        <ele>584.13999999999999</ele>
        <time>2025-05-10T11:22:27Z</time>
      </trkpt>
      <trkpt lat="37.209194004535675" lon="-4.228721028193831">
        <ele>579.80999999999995</ele>
        <time>2025-05-10T11:22:38Z</time>
      </trkpt>
      <trkpt lat="37.208501994609833" lon="-4.228464039042592">
        <ele>581.73000000000002</ele>
        <time>2025-05-10T11:22:42Z</time>
      </trkpt>
      <trkpt lat="37.20832304097712" lon="-4.228449035435915">
        <ele>582.22000000000003</ele>
        <time>2025-05-10T11:22:43Z</time>
      </trkpt>
      <trkpt lat="37.208144003525376" lon="-4.228455992415547">
        <ele>583.17999999999995</ele>
        <time>2025-05-10T11:22:44Z</time>
      </trkpt>
      <trkpt lat="37.207973012700677" lon="-4.228478036820889">
        <ele>584.13999999999999</ele>
        <time>2025-05-10T11:22:45Z</time>
      </trkpt>
      <trkpt lat="37.207819959148765" lon="-4.228515001013875">
        <ele>585.58000000000004</ele>
        <time>2025-05-10T11:22:46Z</time>
      </trkpt>
      <trkpt lat="37.207677969709039" lon="-4.228593036532402">
        <ele>587.01999999999998</ele>
        <time>2025-05-10T11:22:47Z</time>
      </trkpt>
      <trkpt lat="37.207556013017893" lon="-4.228725973516703">
        <ele>587.98000000000002</ele>
        <time>2025-05-10T11:22:48Z</time>
      </trkpt>
      <trkpt lat="37.207431960850954" lon="-4.228881038725376">
        <ele>589.42999999999995</ele>
        <time>2025-05-10T11:22:49Z</time>
      </trkpt>
      <trkpt lat="37.207310004159808" lon="-4.229050017893314">
        <ele>590.38999999999999</ele>
        <time>2025-05-10T11:22:50Z</time>
      </trkpt>
      <trkpt lat="37.206771969795227" lon="-4.22977396287024">
        <ele>594.23000000000002</ele>
        <time>2025-05-10T11:22:55Z</time>
      </trkpt>
      <trkpt lat="37.206681026145816" lon="-4.229864990338683">
        <ele>594.71000000000004</ele>
        <time>2025-05-10T11:22:56Z</time>
      </trkpt>
      <trkpt lat="37.206546999514103" lon="-4.229904972016811">
        <ele>595.19000000000005</ele>
        <time>2025-05-10T11:22:57Z</time>
      </trkpt>
      <trkpt lat="37.206413978710771" lon="-4.229944031685591">
        <ele>595.66999999999996</ele>
        <time>2025-05-10T11:22:58Z</time>
      </trkpt>
      <trkpt lat="37.206279030069709" lon="-4.229960963129997">
        <ele>596.14999999999998</ele>
        <time>2025-05-10T11:22:59Z</time>
      </trkpt>
      <trkpt lat="37.206128994002938" lon="-4.229913018643856">
        <ele>597.12</ele>
        <time>2025-05-10T11:23:00Z</time>
      </trkpt>
      <trkpt lat="37.205969989299774" lon="-4.229862978681922">
        <ele>597.12</ele>
        <time>2025-05-10T11:23:01Z</time>
      </trkpt>
      <trkpt lat="37.205815007910132" lon="-4.229801036417484">
        <ele>597.60000000000002</ele>
        <time>2025-05-10T11:23:02Z</time>
      </trkpt>
      <trkpt lat="37.205031970515847" lon="-4.229458970949054">
        <ele>598.55999999999995</ele>
        <time>2025-05-10T11:23:08Z</time>
      </trkpt>
      <trkpt lat="37.20372598618269" lon="-4.228901993483305">
        <ele>599.03999999999996</ele>
        <time>2025-05-10T11:23:19Z</time>
      </trkpt>
      <trkpt lat="37.203655997291207" lon="-4.228856982663274">
        <ele>598.55999999999995</ele>
        <time>2025-05-10T11:23:20Z</time>
      </trkpt>
      <trkpt lat="37.20351199619472" lon="-4.228803003206849">
        <ele>599.03999999999996</ele>
        <time>2025-05-10T11:23:22Z</time>
      </trkpt>
      <trkpt lat="37.203243020921946" lon="-4.228677023202181">
        <ele>600</ele>
        <time>2025-05-10T11:23:26Z</time>
      </trkpt>
      <trkpt lat="37.203165991231799" lon="-4.228646010160446">
        <ele>600</ele>
        <time>2025-05-10T11:23:27Z</time>
      </trkpt>
      <trkpt lat="37.202748991549015" lon="-4.228473007678986">
        <ele>600.48000000000002</ele>
        <time>2025-05-10T11:23:32Z</time>
      </trkpt>
      <trkpt lat="37.202689982950687" lon="-4.228449035435915">
        <ele>600</ele>
        <time>2025-05-10T11:23:33Z</time>
      </trkpt>
      <trkpt lat="37.202068967744708" lon="-4.228259017691016">
        <ele>597.12</ele>
        <time>2025-05-10T11:23:40Z</time>
      </trkpt>
      <trkpt lat="37.201981963589787" lon="-4.228256000205874">
        <ele>596.63999999999999</ele>
        <time>2025-05-10T11:23:41Z</time>
      </trkpt>
      <trkpt lat="37.201862018555403" lon="-4.228298999369144">
        <ele>595.66999999999996</ele>
        <time>2025-05-10T11:23:42Z</time>
      </trkpt>
      <trkpt lat="37.201759004965425" lon="-4.228335041552782">
        <ele>595.19000000000005</ele>
        <time>2025-05-10T11:23:43Z</time>
      </trkpt>
      <trkpt lat="37.201652973890305" lon="-4.228383991867304">
        <ele>594.71000000000004</ele>
        <time>2025-05-10T11:23:44Z</time>
      </trkpt>
      <trkpt lat="37.201550966128707" lon="-4.22846102155745">
        <ele>594.23000000000002</ele>
        <time>2025-05-10T11:23:45Z</time>
      </trkpt>
      <trkpt lat="37.20144703052938" lon="-4.228538973256946">
        <ele>593.75</ele>
        <time>2025-05-10T11:23:46Z</time>
      </trkpt>
      <trkpt lat="37.200284041464329" lon="-4.229446984827519">
        <ele>589.42999999999995</ele>
        <time>2025-05-10T11:23:56Z</time>
      </trkpt>
      <trkpt lat="37.199632013216615" lon="-4.22994302585721">
        <ele>589.90999999999997</ele>
        <time>2025-05-10T11:24:01Z</time>
      </trkpt>
      <trkpt lat="37.199507961049676" lon="-4.229982001706958">
        <ele>589.42999999999995</ele>
        <time>2025-05-10T11:24:02Z</time>
      </trkpt>
      <trkpt lat="37.199394972994924" lon="-4.229976972565055">
        <ele>589.42999999999995</ele>
        <time>2025-05-10T11:24:03Z</time>
      </trkpt>
      <trkpt lat="37.199278967455029" lon="-4.229918969795108">
        <ele>589.42999999999995</ele>
        <time>2025-05-10T11:24:04Z</time>
      </trkpt>
      <trkpt lat="37.199151981621981" lon="-4.22985602170229">
        <ele>589.42999999999995</ele>
        <time>2025-05-10T11:24:05Z</time>
      </trkpt>
      <trkpt lat="37.199045028537512" lon="-4.229756025597453">
        <ele>589.42999999999995</ele>
        <time>2025-05-10T11:24:06Z</time>
      </trkpt>
      <trkpt lat="37.198932962492108" lon="-4.229639014229178">
        <ele>589.42999999999995</ele>
        <time>2025-05-10T11:24:07Z</time>
      </trkpt>
      <trkpt lat="37.198242964223027" lon="-4.228852037340403">
        <ele>589.42999999999995</ele>
        <time>2025-05-10T11:24:13Z</time>
      </trkpt>
      <trkpt lat="37.19818202778697" lon="-4.228709964081645">
        <ele>589.42999999999995</ele>
        <time>2025-05-10T11:24:14Z</time>
      </trkpt>
      <trkpt lat="37.198166018351912" lon="-4.228578032925725">
        <ele>589.42999999999995</ele>
        <time>2025-05-10T11:24:15Z</time>
      </trkpt>
      <trkpt lat="37.198172975331545" lon="-4.228405030444264">
        <ele>589.42999999999995</ele>
        <time>2025-05-10T11:24:16Z</time>
      </trkpt>
      <trkpt lat="37.198180016130209" lon="-4.228220963850617">
        <ele>589.42999999999995</ele>
        <time>2025-05-10T11:24:17Z</time>
      </trkpt>
      <trkpt lat="37.198212035000324" lon="-4.228047961369157">
        <ele>589.90999999999997</ele>
        <time>2025-05-10T11:24:18Z</time>
      </trkpt>
      <trkpt lat="37.198281018063426" lon="-4.227855009958148">
        <ele>589.42999999999995</ele>
        <time>2025-05-10T11:24:19Z</time>
      </trkpt>
      <trkpt lat="37.19835301861167" lon="-4.227650994434953">
        <ele>589.42999999999995</ele>
        <time>2025-05-10T11:24:20Z</time>
      </trkpt>
      <trkpt lat="37.19884897582233" lon="-4.226255994290113">
        <ele>588.95000000000005</ele>
        <time>2025-05-10T11:24:27Z</time>
      </trkpt>
      <trkpt lat="37.198889963328838" lon="-4.226100007072091">
        <ele>588.95000000000005</ele>
        <time>2025-05-10T11:24:28Z</time>
      </trkpt>
      <trkpt lat="37.198914019390941" lon="-4.225980984047055">
        <ele>588.46000000000004</ele>
        <time>2025-05-10T11:24:29Z</time>
      </trkpt>
      <trkpt lat="37.198873031884432" lon="-4.22584000043571">
        <ele>587.98000000000002</ele>
        <time>2025-05-10T11:24:30Z</time>
      </trkpt>
      <trkpt lat="37.198817040771246" lon="-4.225741010159254">
        <ele>587.5</ele>
        <time>2025-05-10T11:24:31Z</time>
      </trkpt>
      <trkpt lat="37.198734981939197" lon="-4.225695999339223">
        <ele>587.5</ele>
        <time>2025-05-10T11:24:32Z</time>
      </trkpt>
      <trkpt lat="37.198649989441037" lon="-4.225692981854081">
        <ele>587.01999999999998</ele>
        <time>2025-05-10T11:24:33Z</time>
      </trkpt>
      <trkpt lat="37.198544964194298" lon="-4.225718965753913">
        <ele>586.53999999999996</ele>
        <time>2025-05-10T11:24:34Z</time>
      </trkpt>
      <trkpt lat="37.198430970311165" lon="-4.225747967138887">
        <ele>586.53999999999996</ele>
        <time>2025-05-10T11:24:35Z</time>
      </trkpt>
      <trkpt lat="37.198314964771271" lon="-4.22577696852386">
        <ele>586.05999999999995</ele>
        <time>2025-05-10T11:24:36Z</time>
      </trkpt>
      <trkpt lat="37.19820398837328" lon="-4.225804964080453">
        <ele>585.58000000000004</ele>
        <time>2025-05-10T11:24:37Z</time>
      </trkpt>
      <trkpt lat="37.19809896312654" lon="-4.225809993222356">
        <ele>585.10000000000002</ele>
        <time>2025-05-10T11:24:38Z</time>
      </trkpt>
      <trkpt lat="37.197995027527213" lon="-4.22579700127244">
        <ele>584.13999999999999</ele>
        <time>2025-05-10T11:24:39Z</time>
      </trkpt>
      <trkpt lat="37.197913974523544" lon="-4.225740004330874">
        <ele>583.65999999999997</ele>
        <time>2025-05-10T11:24:40Z</time>
      </trkpt>
      <trkpt lat="37.197847003117204" lon="-4.22566800378263">
        <ele>583.17999999999995</ele>
        <time>2025-05-10T11:24:41Z</time>
      </trkpt>
      <trkpt lat="37.197810960933566" lon="-4.225587034597993">
        <ele>582.70000000000005</ele>
        <time>2025-05-10T11:24:42Z</time>
      </trkpt>
      <trkpt lat="37.197777014225721" lon="-4.225512016564608">
        <ele>582.22000000000003</ele>
        <time>2025-05-10T11:24:43Z</time>
      </trkpt>
      <trkpt lat="37.197747007012367" lon="-4.225444039329886">
        <ele>581.73000000000002</ele>
        <time>2025-05-10T11:24:44Z</time>
      </trkpt>
      <trkpt lat="37.197718005627394" lon="-4.225378995761275">
        <ele>581.73000000000002</ele>
        <time>2025-05-10T11:24:45Z</time>
      </trkpt>
      <trkpt lat="37.19768799841404" lon="-4.225301966071129">
        <ele>581.73000000000002</ele>
        <time>2025-05-10T11:24:46Z</time>
      </trkpt>
      <trkpt lat="37.197675006464124" lon="-4.22521797940135">
        <ele>581.25</ele>
        <time>2025-05-10T11:24:47Z</time>
      </trkpt>
      <trkpt lat="37.197580961510539" lon="-4.224643986672163">
        <ele>578.37</ele>
        <time>2025-05-10T11:24:54Z</time>
      </trkpt>
      <trkpt lat="37.197568975389004" lon="-4.224567040801048">
        <ele>577.88999999999999</ele>
        <time>2025-05-10T11:24:55Z</time>
      </trkpt>
      <trkpt lat="37.197537962347269" lon="-4.224495962262154">
        <ele>577.40999999999997</ele>
        <time>2025-05-10T11:24:56Z</time>
      </trkpt>
      <trkpt lat="37.197492029517889" lon="-4.22444298863411">
        <ele>577.40999999999997</ele>
        <time>2025-05-10T11:24:57Z</time>
      </trkpt>
      <trkpt lat="37.197446012869477" lon="-4.224390015006065">
        <ele>576.92999999999995</ele>
        <time>2025-05-10T11:24:58Z</time>
      </trkpt>
      <trkpt lat="37.197393039241433" lon="-4.224349027499557">
        <ele>576.45000000000005</ele>
        <time>2025-05-10T11:24:59Z</time>
      </trkpt>
      <trkpt lat="37.197334030643106" lon="-4.224342992529273">
        <ele>576.45000000000005</ele>
        <time>2025-05-10T11:25:00Z</time>
      </trkpt>
      <trkpt lat="37.197267981246114" lon="-4.224336035549641">
        <ele>575.97000000000003</ele>
        <time>2025-05-10T11:25:01Z</time>
      </trkpt>
      <trkpt lat="37.197196986526251" lon="-4.224328994750977">
        <ele>575.49000000000001</ele>
        <time>2025-05-10T11:25:02Z</time>
      </trkpt>
      <trkpt lat="37.197122974321246" lon="-4.224368976429105">
        <ele>575.49000000000001</ele>
        <time>2025-05-10T11:25:03Z</time>
      </trkpt>
      <trkpt lat="37.197032030671835" lon="-4.224419016391039">
        <ele>575.49000000000001</ele>
        <time>2025-05-10T11:25:04Z</time>
      </trkpt>
      <trkpt lat="37.196928011253476" lon="-4.224476013332605">
        <ele>575.49000000000001</ele>
        <time>2025-05-10T11:25:05Z</time>
      </trkpt>
      <trkpt lat="37.196818040683866" lon="-4.224535021930933">
        <ele>575.00999999999999</ele>
        <time>2025-05-10T11:25:06Z</time>
      </trkpt>
      <trkpt lat="37.19669901765883" lon="-4.224582966417074">
        <ele>575.00999999999999</ele>
        <time>2025-05-10T11:25:07Z</time>
      </trkpt>
      <trkpt lat="37.196579994633794" lon="-4.224568968638778">
        <ele>574.52999999999997</ele>
        <time>2025-05-10T11:25:08Z</time>
      </trkpt>
      <trkpt lat="37.196448985487223" lon="-4.224552037194371">
        <ele>574.52999999999997</ele>
        <time>2025-05-10T11:25:09Z</time>
      </trkpt>
      <trkpt lat="37.196317976340652" lon="-4.224511971697211">
        <ele>574.52999999999997</ele>
        <time>2025-05-10T11:25:10Z</time>
      </trkpt>
      <trkpt lat="37.196190990507603" lon="-4.224449023604393">
        <ele>574.03999999999996</ele>
        <time>2025-05-10T11:25:11Z</time>
      </trkpt>
      <trkpt lat="37.196073979139328" lon="-4.224342992529273">
        <ele>574.03999999999996</ele>
        <time>2025-05-10T11:25:12Z</time>
      </trkpt>
      <trkpt lat="37.195989992469549" lon="-4.22418599948287">
        <ele>574.52999999999997</ele>
        <time>2025-05-10T11:25:13Z</time>
      </trkpt>
      <trkpt lat="37.195917991921306" lon="-4.224007967859507">
        <ele>575.00999999999999</ele>
        <time>2025-05-10T11:25:14Z</time>
      </trkpt>
      <trkpt lat="37.195849008858204" lon="-4.223833959549666">
        <ele>575.00999999999999</ele>
        <time>2025-05-10T11:25:15Z</time>
      </trkpt>
      <trkpt lat="37.195786982774734" lon="-4.223678978160024">
        <ele>575.49000000000001</ele>
        <time>2025-05-10T11:25:16Z</time>
      </trkpt>
      <trkpt lat="37.195708025246859" lon="-4.223555009812117">
        <ele>575.97000000000003</ele>
        <time>2025-05-10T11:25:17Z</time>
      </trkpt>
      <trkpt lat="37.195598976686597" lon="-4.223487032577395">
        <ele>576.45000000000005</ele>
        <time>2025-05-10T11:25:18Z</time>
      </trkpt>
      <trkpt lat="37.195466961711645" lon="-4.223420983180404">
        <ele>576.92999999999995</ele>
        <time>2025-05-10T11:25:19Z</time>
      </trkpt>
      <trkpt lat="37.195317009463906" lon="-4.223345965147018">
        <ele>577.40999999999997</ele>
        <time>2025-05-10T11:25:20Z</time>
      </trkpt>
      <trkpt lat="37.195166973397136" lon="-4.223250998184085">
        <ele>577.88999999999999</ele>
        <time>2025-05-10T11:25:21Z</time>
      </trkpt>
      <trkpt lat="37.195040993392467" lon="-4.223115965723991">
        <ele>578.37</ele>
        <time>2025-05-10T11:25:22Z</time>
      </trkpt>
      <trkpt lat="37.19493898563087" lon="-4.222942963242531">
        <ele>578.85000000000002</ele>
        <time>2025-05-10T11:25:23Z</time>
      </trkpt>
      <trkpt lat="37.194832032546401" lon="-4.222760992124677">
        <ele>578.85000000000002</ele>
        <time>2025-05-10T11:25:24Z</time>
      </trkpt>
      <trkpt lat="37.194722983986139" lon="-4.22257399186492">
        <ele>578.85000000000002</ele>
        <time>2025-05-10T11:25:25Z</time>
      </trkpt>
      <trkpt lat="37.19371497631073" lon="-4.22076903283596">
        <ele>579.33000000000004</ele>
        <time>2025-05-10T11:25:35Z</time>
      </trkpt>
      <trkpt lat="37.193206027150154" lon="-4.220016002655029">
        <ele>579.80999999999995</ele>
        <time>2025-05-10T11:25:40Z</time>
      </trkpt>
      <trkpt lat="37.193085998296738" lon="-4.219895973801613">
        <ele>579.80999999999995</ele>
        <time>2025-05-10T11:25:41Z</time>
      </trkpt>
      <trkpt lat="37.192964041605592" lon="-4.219784997403622">
        <ele>580.28999999999996</ele>
        <time>2025-05-10T11:25:42Z</time>
      </trkpt>
      <trkpt lat="37.192689031362534" lon="-4.219617024064064">
        <ele>580.76999999999998</ele>
        <time>2025-05-10T11:25:44Z</time>
      </trkpt>
      <trkpt lat="37.192552993074059" lon="-4.219547035172582">
        <ele>580.76999999999998</ele>
        <time>2025-05-10T11:25:45Z</time>
      </trkpt>
      <trkpt lat="37.192416032776237" lon="-4.219496995210648">
        <ele>580.76999999999998</ele>
        <time>2025-05-10T11:25:46Z</time>
      </trkpt>
      <trkpt lat="37.192279994487762" lon="-4.219447039067745">
        <ele>580.76999999999998</ele>
        <time>2025-05-10T11:25:47Z</time>
      </trkpt>
      <trkpt lat="37.192132975906134" lon="-4.219393981620669">
        <ele>580.28999999999996</ele>
        <time>2025-05-10T11:25:48Z</time>
      </trkpt>
      <trkpt lat="37.191999033093452" lon="-4.219405967742205">
        <ele>580.28999999999996</ele>
        <time>2025-05-10T11:25:49Z</time>
      </trkpt>
      <trkpt lat="37.191207027062774" lon="-4.219476040452719">
        <ele>580.28999999999996</ele>
        <time>2025-05-10T11:25:54Z</time>
      </trkpt>
      <trkpt lat="37.191053973510861" lon="-4.219459025189281">
        <ele>580.28999999999996</ele>
        <time>2025-05-10T11:25:55Z</time>
      </trkpt>
      <trkpt lat="37.190915001556277" lon="-4.219422983005643">
        <ele>579.80999999999995</ele>
        <time>2025-05-10T11:25:56Z</time>
      </trkpt>
      <trkpt lat="37.190809976309538" lon="-4.219335978850722">
        <ele>579.80999999999995</ele>
        <time>2025-05-10T11:25:57Z</time>
      </trkpt>
      <trkpt lat="37.190731018781662" lon="-4.219217039644718">
        <ele>579.80999999999995</ele>
        <time>2025-05-10T11:25:58Z</time>
      </trkpt>
      <trkpt lat="37.190648959949613" lon="-4.219083013013005">
        <ele>579.80999999999995</ele>
        <time>2025-05-10T11:25:59Z</time>
      </trkpt>
      <trkpt lat="37.190600009635091" lon="-4.218911016359925">
        <ele>579.80999999999995</ele>
        <time>2025-05-10T11:26:00Z</time>
      </trkpt>
      <trkpt lat="37.190548963844776" lon="-4.218730973079801">
        <ele>580.28999999999996</ele>
        <time>2025-05-10T11:26:01Z</time>
      </trkpt>
      <trkpt lat="37.190451985225081" lon="-4.218391003087163">
        <ele>580.28999999999996</ele>
        <time>2025-05-10T11:26:03Z</time>
      </trkpt>
      <trkpt lat="37.190369004383683" lon="-4.218262005597353">
        <ele>580.76999999999998</ele>
        <time>2025-05-10T11:26:04Z</time>
      </trkpt>
      <trkpt lat="37.190258027985692" lon="-4.218167038634419">
        <ele>581.25</ele>
        <time>2025-05-10T11:26:05Z</time>
      </trkpt>
      <trkpt lat="37.190129030495882" lon="-4.218101995065808">
        <ele>581.25</ele>
        <time>2025-05-10T11:26:06Z</time>
      </trkpt>
      <trkpt lat="37.18999701552093" lon="-4.218036029487848">
        <ele>581.73000000000002</ele>
        <time>2025-05-10T11:26:07Z</time>
      </trkpt>
      <trkpt lat="37.18986801803112" lon="-4.217966040596366">
        <ele>581.73000000000002</ele>
        <time>2025-05-10T11:26:08Z</time>
      </trkpt>
      <trkpt lat="37.189768021926284" lon="-4.217857997864485">
        <ele>581.73000000000002</ele>
        <time>2025-05-10T11:26:09Z</time>
      </trkpt>
      <trkpt lat="37.189707001671195" lon="-4.217711985111237">
        <ele>581.73000000000002</ele>
        <time>2025-05-10T11:26:10Z</time>
      </trkpt>
      <trkpt lat="37.189641036093235" lon="-4.217552980408073">
        <ele>581.73000000000002</ele>
        <time>2025-05-10T11:26:11Z</time>
      </trkpt>
      <trkpt lat="37.189512038603425" lon="-4.21724402345717">
        <ele>581.25</ele>
        <time>2025-05-10T11:26:13Z</time>
      </trkpt>
      <trkpt lat="37.189415981993079" lon="-4.217117037624121">
        <ele>581.25</ele>
        <time>2025-05-10T11:26:14Z</time>
      </trkpt>
      <trkpt lat="37.189310034736991" lon="-4.21698703430593">
        <ele>580.76999999999998</ele>
        <time>2025-05-10T11:26:15Z</time>
      </trkpt>
      <trkpt lat="37.189164021983743" lon="-4.216945040971041">
        <ele>580.28999999999996</ele>
        <time>2025-05-10T11:26:16Z</time>
      </trkpt>
      <trkpt lat="37.18900803476572" lon="-4.216899024322629">
        <ele>579.80999999999995</ele>
        <time>2025-05-10T11:26:17Z</time>
      </trkpt>
      <trkpt lat="37.188845006749034" lon="-4.216852001845837">
        <ele>579.33000000000004</ele>
        <time>2025-05-10T11:26:18Z</time>
      </trkpt>
      <trkpt lat="37.187315979972482" lon="-4.216427961364389">
        <ele>573.55999999999995</ele>
        <time>2025-05-10T11:26:26Z</time>
      </trkpt>
      <trkpt lat="37.186561021953821" lon="-4.216234004124999">
        <ele>570.20000000000005</ele>
        <time>2025-05-10T11:26:30Z</time>
      </trkpt>
      <trkpt lat="37.186377039179206" lon="-4.216186981648207">
        <ele>569.24000000000001</ele>
        <time>2025-05-10T11:26:31Z</time>
      </trkpt>
      <trkpt lat="37.184846000745893" lon="-4.215812981128693">
        <ele>566.35000000000002</ele>
        <time>2025-05-10T11:26:40Z</time>
      </trkpt>
      <trkpt lat="37.184701999649405" lon="-4.215777022764087">
        <ele>566.83000000000004</ele>
        <time>2025-05-10T11:26:41Z</time>
      </trkpt>
      <trkpt lat="37.184592029079795" lon="-4.215700998902321">
        <ele>567.32000000000005</ele>
        <time>2025-05-10T11:26:42Z</time>
      </trkpt>
      <trkpt lat="37.184491027146578" lon="-4.215609971433878">
        <ele>568.27999999999997</ele>
        <time>2025-05-10T11:26:43Z</time>
      </trkpt>
      <trkpt lat="37.184420032426715" lon="-4.215481979772449">
        <ele>568.75999999999999</ele>
        <time>2025-05-10T11:26:44Z</time>
      </trkpt>
      <trkpt lat="37.184381978586316" lon="-4.215325992554426">
        <ele>569.24000000000001</ele>
        <time>2025-05-10T11:26:45Z</time>
      </trkpt>
      <trkpt lat="37.18436798080802" lon="-4.215150978416205">
        <ele>569.72000000000003</ele>
        <time>2025-05-10T11:26:46Z</time>
      </trkpt>
      <trkpt lat="37.184350965544581" lon="-4.214957021176815">
        <ele>570.20000000000005</ele>
        <time>2025-05-10T11:26:47Z</time>
      </trkpt>
      <trkpt lat="37.184407962486148" lon="-4.213922023773193">
        <ele>572.12</ele>
        <time>2025-05-10T11:26:52Z</time>
      </trkpt>
      <trkpt lat="37.184448027983308" lon="-4.213737035170198">
        <ele>572.12</ele>
        <time>2025-05-10T11:26:53Z</time>
      </trkpt>
      <trkpt lat="37.184983966872096" lon="-4.211450032889843">
        <ele>564.42999999999995</ele>
        <time>2025-05-10T11:27:03Z</time>
      </trkpt>
      <trkpt lat="37.185352016240358" lon="-4.209796031937003">
        <ele>554.82000000000005</ele>
        <time>2025-05-10T11:27:11Z</time>
      </trkpt>
      <trkpt lat="37.185313040390611" lon="-4.209669968113303">
        <ele>553.38</ele>
        <time>2025-05-10T11:27:12Z</time>
      </trkpt>
      <trkpt lat="37.185265012085438" lon="-4.209565026685596">
        <ele>552.89999999999998</ele>
        <time>2025-05-10T11:27:13Z</time>
      </trkpt>
      <trkpt lat="37.185179013758898" lon="-4.209479028359056">
        <ele>551.45000000000005</ele>
        <time>2025-05-10T11:27:14Z</time>
      </trkpt>
      <trkpt lat="37.185063008219004" lon="-4.209410967305303">
        <ele>550.97000000000003</ele>
        <time>2025-05-10T11:27:15Z</time>
      </trkpt>
      <trkpt lat="37.184929987415671" lon="-4.209343995898962">
        <ele>549.52999999999997</ele>
        <time>2025-05-10T11:27:16Z</time>
      </trkpt>
      <trkpt lat="37.184777017682791" lon="-4.209292028099299">
        <ele>548.09000000000003</ele>
        <time>2025-05-10T11:27:17Z</time>
      </trkpt>
      <trkpt lat="37.1833570394665" lon="-4.208825994282961">
        <ele>535.11000000000001</ele>
        <time>2025-05-10T11:27:25Z</time>
      </trkpt>
      <trkpt lat="37.18294900842011" lon="-4.208646034821868">
        <ele>530.78999999999996</ele>
        <time>2025-05-10T11:27:28Z</time>
      </trkpt>
      <trkpt lat="37.18286301009357" lon="-4.208578979596496">
        <ele>529.34000000000003</ele>
        <time>2025-05-10T11:27:29Z</time>
      </trkpt>
      <trkpt lat="37.182824034243822" lon="-4.208488035947084">
        <ele>527.89999999999998</ele>
        <time>2025-05-10T11:27:30Z</time>
      </trkpt>
      <trkpt lat="37.182805007323623" lon="-4.208383010700345">
        <ele>526.94000000000005</ele>
        <time>2025-05-10T11:27:31Z</time>
      </trkpt>
      <trkpt lat="37.18282101675868" lon="-4.208249989897013">
        <ele>525.98000000000002</ele>
        <time>2025-05-10T11:27:32Z</time>
      </trkpt>
      <trkpt lat="37.182838032022119" lon="-4.208118980750442">
        <ele>524.53999999999996</ele>
        <time>2025-05-10T11:27:33Z</time>
      </trkpt>
      <trkpt lat="37.182801989838481" lon="-4.208014961332083">
        <ele>523.58000000000004</ele>
        <time>2025-05-10T11:27:34Z</time>
      </trkpt>
      <trkpt lat="37.182751027867198" lon="-4.20792100019753">
        <ele>522.61000000000001</ele>
        <time>2025-05-10T11:27:35Z</time>
      </trkpt>
      <trkpt lat="37.182678021490574" lon="-4.207894010469317">
        <ele>521.64999999999998</ele>
        <time>2025-05-10T11:27:36Z</time>
      </trkpt>
      <trkpt lat="37.182568972930312" lon="-4.207896022126079">
        <ele>520.69000000000005</ele>
        <time>2025-05-10T11:27:37Z</time>
      </trkpt>
      <trkpt lat="37.18243402428925" lon="-4.20789903961122">
        <ele>519.73000000000002</ele>
        <time>2025-05-10T11:27:38Z</time>
      </trkpt>
      <trkpt lat="37.18114597722888" lon="-4.207947989925742">
        <ele>509.63999999999999</ele>
        <time>2025-05-10T11:27:46Z</time>
      </trkpt>
      <trkpt lat="37.180913966149092" lon="-4.207912031561136">
        <ele>507.70999999999998</ele>
        <time>2025-05-10T11:27:48Z</time>
      </trkpt>
      <trkpt lat="37.180856969207525" lon="-4.207828966900706">
        <ele>506.75</ele>
        <time>2025-05-10T11:27:49Z</time>
      </trkpt>
      <trkpt lat="37.180826039984822" lon="-4.207741040736437">
        <ele>505.79000000000002</ele>
        <time>2025-05-10T11:27:50Z</time>
      </trkpt>
      <trkpt lat="37.180832996964455" lon="-4.207611959427595">
        <ele>504.35000000000002</ele>
        <time>2025-05-10T11:27:51Z</time>
      </trkpt>
      <trkpt lat="37.180840959772468" lon="-4.207461001351476">
        <ele>503.38999999999999</ele>
        <time>2025-05-10T11:27:52Z</time>
      </trkpt>
      <trkpt lat="37.180828973650932" lon="-4.207305014133453">
        <ele>501.94999999999999</ele>
        <time>2025-05-10T11:27:53Z</time>
      </trkpt>
      <trkpt lat="37.180764013901353" lon="-4.207180039957166">
        <ele>500.98000000000002</ele>
        <time>2025-05-10T11:27:54Z</time>
      </trkpt>
      <trkpt lat="37.180678015574813" lon="-4.207077026367188">
        <ele>500.01999999999998</ele>
        <time>2025-05-10T11:27:55Z</time>
      </trkpt>
      <trkpt lat="37.180585982277989" lon="-4.206966971978545">
        <ele>499.06</ele>
        <time>2025-05-10T11:27:56Z</time>
      </trkpt>
      <trkpt lat="37.180497972294688" lon="-4.206861024722457">
        <ele>498.10000000000002</ele>
        <time>2025-05-10T11:27:57Z</time>
      </trkpt>
      <trkpt lat="37.180425971746445" lon="-4.206751976162195">
        <ele>497.13999999999999</ele>
        <time>2025-05-10T11:27:58Z</time>
      </trkpt>
      <trkpt lat="37.180374003946781" lon="-4.206668995320797">
        <ele>496.18000000000001</ele>
        <time>2025-05-10T11:27:59Z</time>
      </trkpt>
      <trkpt lat="37.180394036695361" lon="-4.206527005881071">
        <ele>495.22000000000003</ele>
        <time>2025-05-10T11:28:00Z</time>
      </trkpt>
      <trkpt lat="37.180411973968148" lon="-4.206402031704783">
        <ele>494.25999999999999</ele>
        <time>2025-05-10T11:28:01Z</time>
      </trkpt>
      <trkpt lat="37.180480035021901" lon="-4.206297006458044">
        <ele>493.76999999999998</ele>
        <time>2025-05-10T11:28:02Z</time>
      </trkpt>
      <trkpt lat="37.180578019469976" lon="-4.206189969554544">
        <ele>492.81</ele>
        <time>2025-05-10T11:28:03Z</time>
      </trkpt>
      <trkpt lat="37.180702993646264" lon="-4.206097014248371">
        <ele>492.32999999999998</ele>
        <time>2025-05-10T11:28:04Z</time>
      </trkpt>
      <trkpt lat="37.180836014449596" lon="-4.205999029800296">
        <ele>491.85000000000002</ele>
        <time>2025-05-10T11:28:05Z</time>
      </trkpt>
      <trkpt lat="37.180966017767787" lon="-4.20590297318995">
        <ele>491.37</ele>
        <time>2025-05-10T11:28:06Z</time>
      </trkpt>
      <trkpt lat="37.181089986115694" lon="-4.205782022327185">
        <ele>490.41000000000003</ele>
        <time>2025-05-10T11:28:07Z</time>
      </trkpt>
      <trkpt lat="37.181186964735389" lon="-4.205611031502485">
        <ele>489.44999999999999</ele>
        <time>2025-05-10T11:28:08Z</time>
      </trkpt>
      <trkpt lat="37.181349992752075" lon="-4.20521398074925">
        <ele>487.52999999999997</ele>
        <time>2025-05-10T11:28:10Z</time>
      </trkpt>
      <trkpt lat="37.181399026885629" lon="-4.204995967447758">
        <ele>486.56</ele>
        <time>2025-05-10T11:28:11Z</time>
      </trkpt>
      <trkpt lat="37.181426016613841" lon="-4.204778037965298">
        <ele>485.60000000000002</ele>
        <time>2025-05-10T11:28:12Z</time>
      </trkpt>
      <trkpt lat="37.181444959715009" lon="-4.204571004956961">
        <ele>484.16000000000003</ele>
        <time>2025-05-10T11:28:13Z</time>
      </trkpt>
      <trkpt lat="37.181431967765093" lon="-4.204373024404049">
        <ele>482.72000000000003</ele>
        <time>2025-05-10T11:28:14Z</time>
      </trkpt>
      <trkpt lat="37.18140103854239" lon="-4.204179989174008">
        <ele>481.27999999999997</ele>
        <time>2025-05-10T11:28:15Z</time>
      </trkpt>
      <trkpt lat="37.181348986923695" lon="-4.203998018056154">
        <ele>480.31999999999999</ele>
        <time>2025-05-10T11:28:16Z</time>
      </trkpt>
      <trkpt lat="37.181269023567438" lon="-4.203844964504242">
        <ele>478.87</ele>
        <time>2025-05-10T11:28:17Z</time>
      </trkpt>
      <trkpt lat="37.181183025240898" lon="-4.203699035570025">
        <ele>477.91000000000003</ele>
        <time>2025-05-10T11:28:18Z</time>
      </trkpt>
      <trkpt lat="37.180613977834582" lon="-4.202942987903953">
        <ele>471.18000000000001</ele>
        <time>2025-05-10T11:28:24Z</time>
      </trkpt>
      <trkpt lat="37.180419014766812" lon="-4.202794963493943">
        <ele>469.74000000000001</ele>
        <time>2025-05-10T11:28:26Z</time>
      </trkpt>
      <trkpt lat="37.180060017853975" lon="-4.202579967677593">
        <ele>467.33999999999997</ele>
        <time>2025-05-10T11:28:30Z</time>
      </trkpt>
      <trkpt lat="37.179990028962493" lon="-4.202521964907646">
        <ele>466.86000000000001</ele>
        <time>2025-05-10T11:28:31Z</time>
      </trkpt>
      <trkpt lat="37.179930014535785" lon="-4.202438984066248">
        <ele>466.38</ele>
        <time>2025-05-10T11:28:32Z</time>
      </trkpt>
      <trkpt lat="37.179892966523767" lon="-4.202347034588456">
        <ele>465.89999999999998</ele>
        <time>2025-05-10T11:28:33Z</time>
      </trkpt>
      <trkpt lat="37.179901013150811" lon="-4.202236980199814">
        <ele>465.42000000000002</ele>
        <time>2025-05-10T11:28:34Z</time>
      </trkpt>
      <trkpt lat="37.179960021749139" lon="-4.202138995751739">
        <ele>464.93000000000001</ele>
        <time>2025-05-10T11:28:35Z</time>
      </trkpt>
      <trkpt lat="37.180024981498718" lon="-4.202029025182128">
        <ele>464.44999999999999</ele>
        <time>2025-05-10T11:28:36Z</time>
      </trkpt>
      <trkpt lat="37.180096982046962" lon="-4.201910002157092">
        <ele>464.44999999999999</ele>
        <time>2025-05-10T11:28:37Z</time>
      </trkpt>
      <trkpt lat="37.180179040879011" lon="-4.201788967475295">
        <ele>463.97000000000003</ele>
        <time>2025-05-10T11:28:38Z</time>
      </trkpt>
      <trkpt lat="37.180267972871661" lon="-4.201673967763782">
        <ele>463.49000000000001</ele>
        <time>2025-05-10T11:28:39Z</time>
      </trkpt>
      <trkpt lat="37.180677009746432" lon="-4.201212963089347">
        <ele>461.08999999999997</ele>
        <time>2025-05-10T11:28:44Z</time>
      </trkpt>
      <trkpt lat="37.180769965052605" lon="-4.201148003339768">
        <ele>460.61000000000001</ele>
        <time>2025-05-10T11:28:45Z</time>
      </trkpt>
      <trkpt lat="37.180869961157441" lon="-4.201096035540104">
        <ele>460.13</ele>
        <time>2025-05-10T11:28:46Z</time>
      </trkpt>
      <trkpt lat="37.181117981672287" lon="-4.200936025008559">
        <ele>459.17000000000002</ele>
        <time>2025-05-10T11:28:49Z</time>
      </trkpt>
      <trkpt lat="37.181171039119363" lon="-4.200865030288696">
        <ele>458.69</ele>
        <time>2025-05-10T11:28:50Z</time>
      </trkpt>
      <trkpt lat="37.181208003312349" lon="-4.200780959799886">
        <ele>458.69</ele>
        <time>2025-05-10T11:28:51Z</time>
      </trkpt>
      <trkpt lat="37.181198028847575" lon="-4.200685992836952">
        <ele>458.20999999999998</ele>
        <time>2025-05-10T11:28:52Z</time>
      </trkpt>
      <trkpt lat="37.181183025240898" lon="-4.200582979246974">
        <ele>458.20999999999998</ele>
        <time>2025-05-10T11:28:53Z</time>
      </trkpt>
      <trkpt lat="37.181132985278964" lon="-4.200483988970518">
        <ele>457.72000000000003</ele>
        <time>2025-05-10T11:28:54Z</time>
      </trkpt>
      <trkpt lat="37.1810810174793" lon="-4.200379969552159">
        <ele>457.72000000000003</ele>
        <time>2025-05-10T11:28:55Z</time>
      </trkpt>
      <trkpt lat="37.180918995290995" lon="-4.200056008994579">
        <ele>456.75999999999999</ele>
        <time>2025-05-10T11:28:58Z</time>
      </trkpt>
      <trkpt lat="37.180866021662951" lon="-4.199949977919459">
        <ele>456.27999999999997</ele>
        <time>2025-05-10T11:28:59Z</time>
      </trkpt>
      <trkpt lat="37.180780023336411" lon="-4.199865991249681">
        <ele>456.27999999999997</ele>
        <time>2025-05-10T11:29:00Z</time>
      </trkpt>
      <trkpt lat="37.180677009746432" lon="-4.199817040935159">
        <ele>456.27999999999997</ele>
        <time>2025-05-10T11:29:01Z</time>
      </trkpt>
      <trkpt lat="37.180570978671312" lon="-4.199794996529818">
        <ele>456.75999999999999</ele>
        <time>2025-05-10T11:29:02Z</time>
      </trkpt>
      <trkpt lat="37.180447010323405" lon="-4.199791979044676">
        <ele>456.75999999999999</ele>
        <time>2025-05-10T11:29:03Z</time>
      </trkpt>
      <trkpt lat="37.180323963984847" lon="-4.199817040935159">
        <ele>457.24000000000001</ele>
        <time>2025-05-10T11:29:04Z</time>
      </trkpt>
      <trkpt lat="37.180194966495037" lon="-4.199843024834991">
        <ele>457.24000000000001</ele>
        <time>2025-05-10T11:29:05Z</time>
      </trkpt>
      <trkpt lat="37.180065969005227" lon="-4.199869008734822">
        <ele>457.72000000000003</ele>
        <time>2025-05-10T11:29:06Z</time>
      </trkpt>
      <trkpt lat="37.179935965687037" lon="-4.199903961271048">
        <ele>457.72000000000003</ele>
        <time>2025-05-10T11:29:07Z</time>
      </trkpt>
      <trkpt lat="37.179803028702736" lon="-4.199938997626305">
        <ele>457.72000000000003</ele>
        <time>2025-05-10T11:29:08Z</time>
      </trkpt>
      <trkpt lat="37.179666990414262" lon="-4.199959030374885">
        <ele>457.72000000000003</ele>
        <time>2025-05-10T11:29:09Z</time>
      </trkpt>
      <trkpt lat="37.178734000772238" lon="-4.199884012341499">
        <ele>461.56999999999999</ele>
        <time>2025-05-10T11:29:16Z</time>
      </trkpt>
      <trkpt lat="37.178637022152543" lon="-4.199835984036326">
        <ele>462.05000000000001</ele>
        <time>2025-05-10T11:29:17Z</time>
      </trkpt>
      <trkpt lat="37.178553035482764" lon="-4.199762977659702">
        <ele>463.00999999999999</ele>
        <time>2025-05-10T11:29:18Z</time>
      </trkpt>
      <trkpt lat="37.178469970822334" lon="-4.199679996818304">
        <ele>463.49000000000001</ele>
        <time>2025-05-10T11:29:19Z</time>
      </trkpt>
      <trkpt lat="37.178386989980936" lon="-4.199590981006622">
        <ele>463.97000000000003</ele>
        <time>2025-05-10T11:29:20Z</time>
      </trkpt>
      <trkpt lat="37.178252041339874" lon="-4.199401969090104">
        <ele>465.42000000000002</ele>
        <time>2025-05-10T11:29:22Z</time>
      </trkpt>
      <trkpt lat="37.177970996126533" lon="-4.199009025469422">
        <ele>467.81999999999999</ele>
        <time>2025-05-10T11:29:26Z</time>
      </trkpt>
      <trkpt lat="37.177878962829709" lon="-4.198931995779276">
        <ele>468.30000000000001</ele>
        <time>2025-05-10T11:29:27Z</time>
      </trkpt>
      <trkpt lat="37.17779103666544" lon="-4.198856977745891">
        <ele>468.77999999999997</ele>
        <time>2025-05-10T11:29:28Z</time>
      </trkpt>
      <trkpt lat="37.177515020594001" lon="-4.198666960000992">
        <ele>470.22000000000003</ele>
        <time>2025-05-10T11:29:31Z</time>
      </trkpt>
      <trkpt lat="37.17689199373126" lon="-4.198461016640067">
        <ele>472.63</ele>
        <time>2025-05-10T11:29:37Z</time>
      </trkpt>
      <trkpt lat="37.176801972091198" lon="-4.19840200804174">
        <ele>473.11000000000001</ele>
        <time>2025-05-10T11:29:38Z</time>
      </trkpt>
      <trkpt lat="37.176722008734941" lon="-4.198323972523212">
        <ele>473.58999999999997</ele>
        <time>2025-05-10T11:29:39Z</time>
      </trkpt>
      <trkpt lat="37.17665595933795" lon="-4.198218025267124">
        <ele>473.58999999999997</ele>
        <time>2025-05-10T11:29:40Z</time>
      </trkpt>
      <trkpt lat="37.176603991538286" lon="-4.198099002242088">
        <ele>474.06999999999999</ele>
        <time>2025-05-10T11:29:41Z</time>
      </trkpt>
      <trkpt lat="37.176555963233113" lon="-4.197975033894181">
        <ele>474.55000000000001</ele>
        <time>2025-05-10T11:29:42Z</time>
      </trkpt>
      <trkpt lat="37.176357982680202" lon="-4.197489973157644">
        <ele>475.02999999999997</ele>
        <time>2025-05-10T11:29:47Z</time>
      </trkpt>
      <trkpt lat="37.176325041800737" lon="-4.197417972609401">
        <ele>475.02999999999997</ele>
        <time>2025-05-10T11:29:48Z</time>
      </trkpt>
      <trkpt lat="37.176189003512263" lon="-4.197319988161326">
        <ele>475.02999999999997</ele>
        <time>2025-05-10T11:29:50Z</time>
      </trkpt>
      <trkpt lat="37.176147010177374" lon="-4.197248993441463">
        <ele>475.50999999999999</ele>
        <time>2025-05-10T11:29:51Z</time>
      </trkpt>
      <trkpt lat="37.176147010177374" lon="-4.196906005963683">
        <ele>475.99000000000001</ele>
        <time>2025-05-10T11:29:54Z</time>
      </trkpt>
      <trkpt lat="37.176066040992737" lon="-4.196795029565692">
        <ele>476.47000000000003</ele>
        <time>2025-05-10T11:29:55Z</time>
      </trkpt>
      <trkpt lat="37.175845010206103" lon="-4.19649101793766">
        <ele>477.43000000000001</ele>
        <time>2025-05-10T11:29:58Z</time>
      </trkpt>
      <trkpt lat="37.175781978294253" lon="-4.196363026276231">
        <ele>477.43000000000001</ele>
        <time>2025-05-10T11:29:59Z</time>
      </trkpt>
      <trkpt lat="37.175738979130983" lon="-4.196219025179744">
        <ele>477.91000000000003</ele>
        <time>2025-05-10T11:30:00Z</time>
      </trkpt>
      <trkpt lat="37.175707966089249" lon="-4.196046022698283">
        <ele>478.38999999999999</ele>
        <time>2025-05-10T11:30:01Z</time>
      </trkpt>
      <trkpt lat="37.175677036866546" lon="-4.195876959711313">
        <ele>478.87</ele>
        <time>2025-05-10T11:30:02Z</time>
      </trkpt>
      <trkpt lat="37.175460029393435" lon="-4.194180965423584">
        <ele>484.63999999999999</ele>
        <time>2025-05-10T11:30:11Z</time>
      </trkpt>
      <trkpt lat="37.175490958616138" lon="-4.193986002355814">
        <ele>485.60000000000002</ele>
        <time>2025-05-10T11:30:12Z</time>
      </trkpt>
      <trkpt lat="37.175520965829492" lon="-4.193799002096057">
        <ele>486.56</ele>
        <time>2025-05-10T11:30:13Z</time>
      </trkpt>
      <trkpt lat="37.175564970821142" lon="-4.193607978522778">
        <ele>487.05000000000001</ele>
        <time>2025-05-10T11:30:14Z</time>
      </trkpt>
      <trkpt lat="37.175651974976063" lon="-4.19344000518322">
        <ele>487.52999999999997</ele>
        <time>2025-05-10T11:30:15Z</time>
      </trkpt>
      <trkpt lat="37.175741996616125" lon="-4.193264991044998">
        <ele>488.49000000000001</ele>
        <time>2025-05-10T11:30:16Z</time>
      </trkpt>
      <trkpt lat="37.175835035741329" lon="-4.193083019927144">
        <ele>489.44999999999999</ele>
        <time>2025-05-10T11:30:17Z</time>
      </trkpt>
      <trkpt lat="37.176024969667196" lon="-4.192687980830669">
        <ele>490.88999999999999</ele>
        <time>2025-05-10T11:30:19Z</time>
      </trkpt>
      <trkpt lat="37.176287993788719" lon="-4.191751973703504">
        <ele>492.32999999999998</ele>
        <time>2025-05-10T11:30:23Z</time>
      </trkpt>
      <trkpt lat="37.176316995173693" lon="-4.191489033401012">
        <ele>493.29000000000002</ele>
        <time>2025-05-10T11:30:24Z</time>
      </trkpt>
      <trkpt lat="37.176511036232114" lon="-4.189032968133688">
        <ele>494.25999999999999</ele>
        <time>2025-05-10T11:30:34Z</time>
      </trkpt>
      <trkpt lat="37.176702981814742" lon="-4.18624397367239">
        <ele>491.37</ele>
        <time>2025-05-10T11:30:46Z</time>
      </trkpt>
      <trkpt lat="37.176842959597707" lon="-4.184205997735262">
        <ele>490.88999999999999</ele>
        <time>2025-05-10T11:30:54Z</time>
      </trkpt>
      <trkpt lat="37.177015962079167" lon="-4.18205201625824">
        <ele>488.49000000000001</ele>
        <time>2025-05-10T11:31:03Z</time>
      </trkpt>
      <trkpt lat="37.177145965397358" lon="-4.181468971073628">
        <ele>488.00999999999999</ele>
        <time>2025-05-10T11:31:06Z</time>
      </trkpt>
      <trkpt lat="37.177216960117221" lon="-4.181296974420548">
        <ele>488.00999999999999</ele>
        <time>2025-05-10T11:31:07Z</time>
      </trkpt>
      <trkpt lat="37.177294995635748" lon="-4.181137969717383">
        <ele>488.00999999999999</ele>
        <time>2025-05-10T11:31:08Z</time>
      </trkpt>
      <trkpt lat="37.177389040589333" lon="-4.180989023298025">
        <ele>487.52999999999997</ele>
        <time>2025-05-10T11:31:09Z</time>
      </trkpt>
      <trkpt lat="37.17749297618866" lon="-4.180824989452958">
        <ele>487.52999999999997</ele>
        <time>2025-05-10T11:31:10Z</time>
      </trkpt>
      <trkpt lat="37.17757998034358" lon="-4.18065601028502">
        <ele>488.00999999999999</ele>
        <time>2025-05-10T11:31:11Z</time>
      </trkpt>
      <trkpt lat="37.177844010293484" lon="-4.180141026154161">
        <ele>489.93000000000001</ele>
        <time>2025-05-10T11:31:14Z</time>
      </trkpt>
      <trkpt lat="37.177910981699824" lon="-4.179955031722784">
        <ele>490.88999999999999</ele>
        <time>2025-05-10T11:31:15Z</time>
      </trkpt>
      <trkpt lat="37.177960015833378" lon="-4.17975302785635">
        <ele>491.85000000000002</ele>
        <time>2025-05-10T11:31:16Z</time>
      </trkpt>
      <trkpt lat="37.177983988076448" lon="-4.179550018161535">
        <ele>492.81</ele>
        <time>2025-05-10T11:31:17Z</time>
      </trkpt>
      <trkpt lat="37.17800703831017" lon="-4.179343990981579">
        <ele>493.76999999999998</ele>
        <time>2025-05-10T11:31:18Z</time>
      </trkpt>
      <trkpt lat="37.178024975582957" lon="-4.179135030135512">
        <ele>493.76999999999998</ele>
        <time>2025-05-10T11:31:19Z</time>
      </trkpt>
      <trkpt lat="37.178023969754577" lon="-4.178911987692118">
        <ele>494.25999999999999</ele>
        <time>2025-05-10T11:31:20Z</time>
      </trkpt>
      <trkpt lat="37.177993040531874" lon="-4.178693974390626">
        <ele>494.25999999999999</ele>
        <time>2025-05-10T11:31:21Z</time>
      </trkpt>
      <trkpt lat="37.177937971428037" lon="-4.178473027423024">
        <ele>494.74000000000001</ele>
        <time>2025-05-10T11:31:22Z</time>
      </trkpt>
      <trkpt lat="37.177862031385303" lon="-4.178260965272784">
        <ele>494.25999999999999</ele>
        <time>2025-05-10T11:31:23Z</time>
      </trkpt>
      <trkpt lat="37.177776033058763" lon="-4.178054016083479">
        <ele>493.76999999999998</ele>
        <time>2025-05-10T11:31:24Z</time>
      </trkpt>
      <trkpt lat="37.177681988105178" lon="-4.177850000560284">
        <ele>493.76999999999998</ele>
        <time>2025-05-10T11:31:25Z</time>
      </trkpt>
      <trkpt lat="37.177461041137576" lon="-4.177205013111234">
        <ele>490.88999999999999</ele>
        <time>2025-05-10T11:31:28Z</time>
      </trkpt>
      <trkpt lat="37.1774079836905" lon="-4.1769839823246">
        <ele>489.93000000000001</ele>
        <time>2025-05-10T11:31:29Z</time>
      </trkpt>
      <trkpt lat="37.177390968427062" lon="-4.176762029528618">
        <ele>489.44999999999999</ele>
        <time>2025-05-10T11:31:30Z</time>
      </trkpt>
      <trkpt lat="37.177390968427062" lon="-4.176549967378378">
        <ele>488.49000000000001</ele>
        <time>2025-05-10T11:31:31Z</time>
      </trkpt>
      <trkpt lat="37.177390968427062" lon="-4.176346035674214">
        <ele>488.00999999999999</ele>
        <time>2025-05-10T11:31:32Z</time>
      </trkpt>
      <trkpt lat="37.177518960088491" lon="-4.174710977822542">
        <ele>490.88999999999999</ele>
        <time>2025-05-10T11:31:41Z</time>
      </trkpt>
      <trkpt lat="37.177648041397333" lon="-4.172561019659042">
        <ele>496.18000000000001</ele>
        <time>2025-05-10T11:31:52Z</time>
      </trkpt>
      <trkpt lat="37.177603030577302" lon="-4.172361027449369">
        <ele>496.18000000000001</ele>
        <time>2025-05-10T11:31:53Z</time>
      </trkpt>
      <trkpt lat="37.177553996443748" lon="-4.17216899804771">
        <ele>495.69999999999999</ele>
        <time>2025-05-10T11:31:54Z</time>
      </trkpt>
      <trkpt lat="37.177464980632067" lon="-4.171999013051391">
        <ele>496.18000000000001</ele>
        <time>2025-05-10T11:31:55Z</time>
      </trkpt>
      <trkpt lat="37.177379988133907" lon="-4.171834979206324">
        <ele>496.18000000000001</ele>
        <time>2025-05-10T11:31:56Z</time>
      </trkpt>
      <trkpt lat="37.177301030606031" lon="-4.171682009473443">
        <ele>495.69999999999999</ele>
        <time>2025-05-10T11:31:57Z</time>
      </trkpt>
      <trkpt lat="37.176713040098548" lon="-4.170742984861136">
        <ele>496.18000000000001</ele>
        <time>2025-05-10T11:32:05Z</time>
      </trkpt>
      <trkpt lat="37.17592497356236" lon="-4.169590976089239">
        <ele>500.5</ele>
        <time>2025-05-10T11:32:16Z</time>
      </trkpt>
      <trkpt lat="37.175827994942665" lon="-4.169487962499261">
        <ele>500.98000000000002</ele>
        <time>2025-05-10T11:32:17Z</time>
      </trkpt>
      <trkpt lat="37.175725987181067" lon="-4.16939701884985">
        <ele>501.45999999999998</ele>
        <time>2025-05-10T11:32:18Z</time>
      </trkpt>
      <trkpt lat="37.17562498524785" lon="-4.169306997209787">
        <ele>501.94999999999999</ele>
        <time>2025-05-10T11:32:19Z</time>
      </trkpt>
      <trkpt lat="37.175514008849859" lon="-4.169239019975066">
        <ele>502.43000000000001</ele>
        <time>2025-05-10T11:32:20Z</time>
      </trkpt>
      <trkpt lat="37.174858963117003" lon="-4.168840041384101">
        <ele>505.31</ele>
        <time>2025-05-10T11:32:25Z</time>
      </trkpt>
      <trkpt lat="37.174685960635543" lon="-4.168759994208813">
        <ele>505.79000000000002</ele>
        <time>2025-05-10T11:32:26Z</time>
      </trkpt>
      <trkpt lat="37.174504995346069" lon="-4.168715989217162">
        <ele>505.79000000000002</ele>
        <time>2025-05-10T11:32:27Z</time>
      </trkpt>
      <trkpt lat="37.174329981207848" lon="-4.168675001710653">
        <ele>506.26999999999998</ele>
        <time>2025-05-10T11:32:28Z</time>
      </trkpt>
      <trkpt lat="37.174153961241245" lon="-4.168679025024176">
        <ele>506.75</ele>
        <time>2025-05-10T11:32:29Z</time>
      </trkpt>
      <trkpt lat="37.173979030922055" lon="-4.16870903223753">
        <ele>507.23000000000002</ele>
        <time>2025-05-10T11:32:30Z</time>
      </trkpt>
      <trkpt lat="37.17381801456213" lon="-4.168782038614154">
        <ele>507.23000000000002</ele>
        <time>2025-05-10T11:32:31Z</time>
      </trkpt>
      <trkpt lat="37.172948978841305" lon="-4.169344967231154">
        <ele>507.70999999999998</ele>
        <time>2025-05-10T11:32:37Z</time>
      </trkpt>
      <trkpt lat="37.172846971079707" lon="-4.169472036883235">
        <ele>507.23000000000002</ele>
        <time>2025-05-10T11:32:38Z</time>
      </trkpt>
      <trkpt lat="37.172020012512803" lon="-4.170291032642126">
        <ele>504.35000000000002</ele>
        <time>2025-05-10T11:32:46Z</time>
      </trkpt>
      <trkpt lat="37.171277962625027" lon="-4.171011038124561">
        <ele>503.87</ele>
        <time>2025-05-10T11:32:54Z</time>
      </trkpt>
      <trkpt lat="37.171176038682461" lon="-4.171040961518884">
        <ele>503.38999999999999</ele>
        <time>2025-05-10T11:32:55Z</time>
      </trkpt>
      <trkpt lat="37.171085011214018" lon="-4.171036016196013">
        <ele>502.91000000000003</ele>
        <time>2025-05-10T11:32:56Z</time>
      </trkpt>
      <trkpt lat="37.170997001230717" lon="-4.171007014811039">
        <ele>502.91000000000003</ele>
        <time>2025-05-10T11:32:57Z</time>
      </trkpt>
      <trkpt lat="37.17093899846077" lon="-4.170925039798021">
        <ele>502.91000000000003</ele>
        <time>2025-05-10T11:32:58Z</time>
      </trkpt>
      <trkpt lat="37.170889964327216" lon="-4.170856978744268">
        <ele>502.91000000000003</ele>
        <time>2025-05-10T11:32:59Z</time>
      </trkpt>
      <trkpt lat="37.17085400596261" lon="-4.170723035931587">
        <ele>502.43000000000001</ele>
        <time>2025-05-10T11:33:00Z</time>
      </trkpt>
      <trkpt lat="37.170803966000676" lon="-4.17053502984345">
        <ele>501.94999999999999</ele>
        <time>2025-05-10T11:33:01Z</time>
      </trkpt>
      <trkpt lat="37.170807989314198" lon="-4.170445008203387">
        <ele>501.94999999999999</ele>
        <time>2025-05-10T11:33:02Z</time>
      </trkpt>
      <trkpt lat="37.170815030112863" lon="-4.170278962701559">
        <ele>501.45999999999998</ele>
        <time>2025-05-10T11:33:03Z</time>
      </trkpt>
      <trkpt lat="37.170822992920876" lon="-4.170106966048479">
        <ele>500.98000000000002</ele>
        <time>2025-05-10T11:33:04Z</time>
      </trkpt>
      <trkpt lat="37.170802960172296" lon="-4.169920971617103">
        <ele>500.98000000000002</ele>
        <time>2025-05-10T11:33:05Z</time>
      </trkpt>
      <trkpt lat="37.17076700180769" lon="-4.169728020206094">
        <ele>500.5</ele>
        <time>2025-05-10T11:33:06Z</time>
      </trkpt>
      <trkpt lat="37.170696007087827" lon="-4.16954898275435">
        <ele>500.5</ele>
        <time>2025-05-10T11:33:07Z</time>
      </trkpt>
      <trkpt lat="37.170619983226061" lon="-4.169375980272889">
        <ele>500.01999999999998</ele>
        <time>2025-05-10T11:33:08Z</time>
      </trkpt>
      <trkpt lat="37.170505989342928" lon="-4.169233990833163">
        <ele>500.01999999999998</ele>
        <time>2025-05-10T11:33:09Z</time>
      </trkpt>
      <trkpt lat="37.170366011559963" lon="-4.169141035526991">
        <ele>500.01999999999998</ele>
        <time>2025-05-10T11:33:10Z</time>
      </trkpt>
      <trkpt lat="37.170219998806715" lon="-4.169078003615141">
        <ele>499.54000000000002</ele>
        <time>2025-05-10T11:33:11Z</time>
      </trkpt>
      <trkpt lat="37.170066023245454" lon="-4.16903299279511">
        <ele>499.54000000000002</ele>
        <time>2025-05-10T11:33:12Z</time>
      </trkpt>
      <trkpt lat="37.169912969693542" lon="-4.16903299279511">
        <ele>499.06</ele>
        <time>2025-05-10T11:33:13Z</time>
      </trkpt>
      <trkpt lat="37.169767040759325" lon="-4.169067023321986">
        <ele>498.57999999999998</ele>
        <time>2025-05-10T11:33:14Z</time>
      </trkpt>
      <trkpt lat="37.169633014127612" lon="-4.169117985293269">
        <ele>498.57999999999998</ele>
        <time>2025-05-10T11:33:15Z</time>
      </trkpt>
      <trkpt lat="37.169509967789054" lon="-4.169164001941681">
        <ele>498.10000000000002</ele>
        <time>2025-05-10T11:33:16Z</time>
      </trkpt>
      <trkpt lat="37.169401003047824" lon="-4.16920498944819">
        <ele>498.10000000000002</ele>
        <time>2025-05-10T11:33:17Z</time>
      </trkpt>
      <trkpt lat="37.169306958094239" lon="-4.16922602802515">
        <ele>498.10000000000002</ele>
        <time>2025-05-10T11:33:18Z</time>
      </trkpt>
      <trkpt lat="37.169235963374376" lon="-4.16922602802515">
        <ele>498.10000000000002</ele>
        <time>2025-05-10T11:33:19Z</time>
      </trkpt>
      <trkpt lat="37.16917997226119" lon="-4.169215969741345">
        <ele>498.10000000000002</ele>
        <time>2025-05-10T11:33:20Z</time>
      </trkpt>
      <trkpt lat="37.16917997226119" lon="-4.169215969741345">
        <ele>498.10000000000002</ele>
        <time>2025-05-10T11:33:26Z</time>
      </trkpt>
      <trkpt lat="37.169131021946669" lon="-4.16918596252799">
        <ele>498.10000000000002</ele>
        <time>2025-05-10T11:33:35Z</time>
      </trkpt>
      <trkpt lat="37.169083999469876" lon="-4.169156039133668">
        <ele>498.10000000000002</ele>
        <time>2025-05-10T11:33:36Z</time>
      </trkpt>
      <trkpt lat="37.169018033891916" lon="-4.169107005000114">
        <ele>498.57999999999998</ele>
        <time>2025-05-10T11:33:37Z</time>
      </trkpt>
      <trkpt lat="37.168976040557027" lon="-4.16901396587491">
        <ele>498.57999999999998</ele>
        <time>2025-05-10T11:33:38Z</time>
      </trkpt>
      <trkpt lat="37.168926000595093" lon="-4.16890500113368">
        <ele>498.57999999999998</ele>
        <time>2025-05-10T11:33:39Z</time>
      </trkpt>
      <trkpt lat="37.168900016695261" lon="-4.168762005865574">
        <ele>498.57999999999998</ele>
        <time>2025-05-10T11:33:40Z</time>
      </trkpt>
      <trkpt lat="37.1688789781183" lon="-4.16860300116241">
        <ele>498.57999999999998</ele>
        <time>2025-05-10T11:33:41Z</time>
      </trkpt>
      <trkpt lat="37.168858023360372" lon="-4.168439973145723">
        <ele>498.57999999999998</ele>
        <time>2025-05-10T11:33:42Z</time>
      </trkpt>
      <trkpt lat="37.16887503862381" lon="-4.168293038383126">
        <ele>497.62</ele>
        <time>2025-05-10T11:33:43Z</time>
      </trkpt>
      <trkpt lat="37.168908985331655" lon="-4.168157000094652">
        <ele>497.62</ele>
        <time>2025-05-10T11:33:44Z</time>
      </trkpt>
      <trkpt lat="37.168973023071885" lon="-4.168060021474958">
        <ele>497.13999999999999</ele>
        <time>2025-05-10T11:33:45Z</time>
      </trkpt>
      <trkpt lat="37.169045023620129" lon="-4.167948039248586">
        <ele>496.66000000000003</ele>
        <time>2025-05-10T11:33:46Z</time>
      </trkpt>
      <trkpt lat="37.169115012511611" lon="-4.167825998738408">
        <ele>496.66000000000003</ele>
        <time>2025-05-10T11:33:47Z</time>
      </trkpt>
      <trkpt lat="37.169173015281558" lon="-4.167693983763456">
        <ele>496.18000000000001</ele>
        <time>2025-05-10T11:33:48Z</time>
      </trkpt>
      <trkpt lat="37.169173015281558" lon="-4.167534979060292">
        <ele>495.69999999999999</ele>
        <time>2025-05-10T11:33:49Z</time>
      </trkpt>
      <trkpt lat="37.169173015281558" lon="-4.16735895909369">
        <ele>495.22000000000003</ele>
        <time>2025-05-10T11:33:50Z</time>
      </trkpt>
      <trkpt lat="37.169173015281558" lon="-4.167173970490694">
        <ele>494.74000000000001</ele>
        <time>2025-05-10T11:33:51Z</time>
      </trkpt>
      <trkpt lat="37.169187013059855" lon="-4.166989987716079">
        <ele>494.74000000000001</ele>
        <time>2025-05-10T11:33:52Z</time>
      </trkpt>
      <trkpt lat="37.169223977252841" lon="-4.166804999113083">
        <ele>494.74000000000001</ele>
        <time>2025-05-10T11:33:53Z</time>
      </trkpt>
      <trkpt lat="37.169259013608098" lon="-4.166628979146481">
        <ele>494.74000000000001</ele>
        <time>2025-05-10T11:33:54Z</time>
      </trkpt>
      <trkpt lat="37.169337971135974" lon="-4.166477015241981">
        <ele>494.74000000000001</ele>
        <time>2025-05-10T11:33:55Z</time>
      </trkpt>
      <trkpt lat="37.16941500082612" lon="-4.166327985003591">
        <ele>495.22000000000003</ele>
        <time>2025-05-10T11:33:56Z</time>
      </trkpt>
      <trkpt lat="37.169707026332617" lon="-4.165619965642691">
        <ele>496.18000000000001</ele>
        <time>2025-05-10T11:34:01Z</time>
      </trkpt>
      <trkpt lat="37.169699985533953" lon="-4.165478982031345">
        <ele>496.66000000000003</ele>
        <time>2025-05-10T11:34:02Z</time>
      </trkpt>
      <trkpt lat="37.16969302855432" lon="-4.165334980934858">
        <ele>496.66000000000003</ele>
        <time>2025-05-10T11:34:03Z</time>
      </trkpt>
      <trkpt lat="37.169670984148979" lon="-4.165190979838371">
        <ele>496.66000000000003</ele>
        <time>2025-05-10T11:34:04Z</time>
      </trkpt>
      <trkpt lat="37.169622033834457" lon="-4.165061982348561">
        <ele>497.13999999999999</ele>
        <time>2025-05-10T11:34:05Z</time>
      </trkpt>
      <trkpt lat="37.169576017186046" lon="-4.164947988465428">
        <ele>497.13999999999999</ele>
        <time>2025-05-10T11:34:06Z</time>
      </trkpt>
      <trkpt lat="37.169524971395731" lon="-4.164869030937553">
        <ele>497.13999999999999</ele>
        <time>2025-05-10T11:34:07Z</time>
      </trkpt>
      <trkpt lat="37.169487001374364" lon="-4.164810022339225">
        <ele>497.13999999999999</ele>
        <time>2025-05-10T11:34:08Z</time>
      </trkpt>
      <trkpt lat="37.169442996382713" lon="-4.164741961285472">
        <ele>497.62</ele>
        <time>2025-05-10T11:34:14Z</time>
      </trkpt>
      <trkpt lat="37.16937200166285" lon="-4.164634002372623">
        <ele>498.10000000000002</ele>
        <time>2025-05-10T11:34:20Z</time>
      </trkpt>
      <trkpt lat="37.169341994449496" lon="-4.164587985724211">
        <ele>498.57999999999998</ele>
        <time>2025-05-10T11:34:21Z</time>
      </trkpt>
      <trkpt lat="37.16926496475935" lon="-4.164519002661109">
        <ele>499.06</ele>
        <time>2025-05-10T11:34:23Z</time>
      </trkpt>
      <trkpt lat="37.169223977252841" lon="-4.164482038468123">
        <ele>499.06</ele>
        <time>2025-05-10T11:34:24Z</time>
      </trkpt>
      <trkpt lat="37.169188018888235" lon="-4.164450019598007">
        <ele>499.54000000000002</ele>
        <time>2025-05-10T11:34:25Z</time>
      </trkpt>
      <trkpt lat="37.169022979214787" lon="-4.164526965469122">
        <ele>500.01999999999998</ele>
        <time>2025-05-10T11:34:27Z</time>
      </trkpt>
      <trkpt lat="37.169021973386407" lon="-4.164525959640741">
        <ele>500.01999999999998</ele>
        <time>2025-05-10T11:34:28Z</time>
      </trkpt>
      <trkpt lat="37.168976040557027" lon="-4.164514979347587">
        <ele>500.01999999999998</ele>
        <time>2025-05-10T11:34:29Z</time>
      </trkpt>
      <trkpt lat="37.168909991160035" lon="-4.164437027648091">
        <ele>500.5</ele>
        <time>2025-05-10T11:34:30Z</time>
      </trkpt>
      <trkpt lat="37.168893981724977" lon="-4.164397967979312">
        <ele>500.5</ele>
        <time>2025-05-10T11:34:31Z</time>
      </trkpt>
      <trkpt lat="37.168959025293589" lon="-4.164225971326232">
        <ele>500.98000000000002</ele>
        <time>2025-05-10T11:34:32Z</time>
      </trkpt>
      <trkpt lat="37.168948967009783" lon="-4.164194036275148">
        <ele>500.98000000000002</ele>
        <time>2025-05-10T11:34:33Z</time>
      </trkpt>
      <trkpt lat="37.168928012251854" lon="-4.164126981049776">
        <ele>501.45999999999998</ele>
        <time>2025-05-10T11:34:34Z</time>
      </trkpt>
      <trkpt lat="37.168861040845513" lon="-4.163912991061807">
        <ele>501.45999999999998</ele>
        <time>2025-05-10T11:34:37Z</time>
      </trkpt>
      <trkpt lat="37.168830027803779" lon="-4.163840990513563">
        <ele>501.94999999999999</ele>
        <time>2025-05-10T11:34:38Z</time>
      </trkpt>
      <trkpt lat="37.16879197396338" lon="-4.16376898996532">
        <ele>501.94999999999999</ele>
        <time>2025-05-10T11:34:39Z</time>
      </trkpt>
      <trkpt lat="37.168751992285252" lon="-4.163691960275173">
        <ele>501.94999999999999</ele>
        <time>2025-05-10T11:34:40Z</time>
      </trkpt>
      <trkpt lat="37.168712010607123" lon="-4.163616020232439">
        <ele>501.94999999999999</ele>
        <time>2025-05-10T11:34:41Z</time>
      </trkpt>
      <trkpt lat="37.168636992573738" lon="-4.163472019135952">
        <ele>502.43000000000001</ele>
        <time>2025-05-10T11:34:43Z</time>
      </trkpt>
      <trkpt lat="37.168214963749051" lon="-4.162755031138659">
        <ele>504.82999999999998</ele>
        <time>2025-05-10T11:34:54Z</time>
      </trkpt>
      <trkpt lat="37.168079009279609" lon="-4.162509022280574">
        <ele>504.82999999999998</ele>
        <time>2025-05-10T11:34:59Z</time>
      </trkpt>
      <trkpt lat="37.168079009279609" lon="-4.162509022280574">
        <ele>504.82999999999998</ele>
        <time>2025-05-10T11:35:00Z</time>
      </trkpt>
      <trkpt lat="37.16799602843821" lon="-4.162469962611795">
        <ele>504.82999999999998</ele>
        <time>2025-05-10T11:35:01Z</time>
      </trkpt>
      <trkpt lat="37.168001979589462" lon="-4.162426963448525">
        <ele>504.82999999999998</ele>
        <time>2025-05-10T11:35:02Z</time>
      </trkpt>
      <trkpt lat="37.168009020388126" lon="-4.162379018962383">
        <ele>504.82999999999998</ele>
        <time>2025-05-10T11:35:03Z</time>
      </trkpt>
      <trkpt lat="37.168013965710998" lon="-4.162338031455874">
        <ele>504.82999999999998</ele>
        <time>2025-05-10T11:35:04Z</time>
      </trkpt>
      <trkpt lat="37.168113961815834" lon="-4.162325961515307">
        <ele>504.82999999999998</ele>
        <time>2025-05-10T11:35:05Z</time>
      </trkpt>
      <trkpt lat="37.168314037844539" lon="-4.161823969334364">
        <ele>502.43000000000001</ele>
        <time>2025-05-10T11:35:16Z</time>
      </trkpt>
      <trkpt lat="37.168314037844539" lon="-4.161823969334364">
        <ele>502.43000000000001</ele>
        <time>2025-05-10T11:35:37Z</time>
      </trkpt>
      <trkpt lat="37.168327029794455" lon="-4.161798991262913">
        <ele>502.43000000000001</ele>
        <time>2025-05-10T11:35:40Z</time>
      </trkpt>
      <trkpt lat="37.16846901923418" lon="-4.161430019885302">
        <ele>498.10000000000002</ele>
        <time>2025-05-10T11:35:47Z</time>
      </trkpt>
      <trkpt lat="37.168487040325999" lon="-4.161365982145071">
        <ele>497.13999999999999</ele>
        <time>2025-05-10T11:35:48Z</time>
      </trkpt>
      <trkpt lat="37.16849097982049" lon="-4.161293981596828">
        <ele>496.18000000000001</ele>
        <time>2025-05-10T11:35:49Z</time>
      </trkpt>
      <trkpt lat="37.168501038104296" lon="-4.161147968843579">
        <ele>494.25999999999999</ele>
        <time>2025-05-10T11:35:51Z</time>
      </trkpt>
      <trkpt lat="37.168504977598786" lon="-4.161069011315703">
        <ele>493.76999999999998</ele>
        <time>2025-05-10T11:35:52Z</time>
      </trkpt>
      <trkpt lat="37.168559040874243" lon="-4.160738009959459">
        <ele>490.41000000000003</ele>
        <time>2025-05-10T11:35:56Z</time>
      </trkpt>
      <trkpt lat="37.168645039200783" lon="-4.160528965294361">
        <ele>488.00999999999999</ele>
        <time>2025-05-10T11:35:59Z</time>
      </trkpt>
      <trkpt lat="37.168779987841845" lon="-4.160209028050304">
        <ele>484.16000000000003</ele>
        <time>2025-05-10T11:36:05Z</time>
      </trkpt>
      <trkpt lat="37.168787028640509" lon="-4.160133004188538">
        <ele>483.19999999999999</ele>
        <time>2025-05-10T11:36:06Z</time>
      </trkpt>
      <trkpt lat="37.168787028640509" lon="-4.160020016133785">
        <ele>482.72000000000003</ele>
        <time>2025-05-10T11:36:07Z</time>
      </trkpt>
      <trkpt lat="37.168691977858543" lon="-4.159735031425953">
        <ele>480.80000000000001</ele>
        <time>2025-05-10T11:36:11Z</time>
      </trkpt>
      <trkpt lat="37.168655013665557" lon="-4.159649033099413">
        <ele>480.31999999999999</ele>
        <time>2025-05-10T11:36:12Z</time>
      </trkpt>
      <trkpt lat="37.168572032824159" lon="-4.159482987597585">
        <ele>479.83999999999997</ele>
        <time>2025-05-10T11:36:14Z</time>
      </trkpt>
      <trkpt lat="37.168528027832508" lon="-4.159418027848005">
        <ele>479.83999999999997</ele>
        <time>2025-05-10T11:36:15Z</time>
      </trkpt>
      <trkpt lat="37.168497014790773" lon="-4.159378968179226">
        <ele>479.35000000000002</ele>
        <time>2025-05-10T11:36:16Z</time>
      </trkpt>
      <trkpt lat="37.168477987870574" lon="-4.159356001764536">
        <ele>479.35000000000002</ele>
        <time>2025-05-10T11:36:17Z</time>
      </trkpt>
      <trkpt lat="37.168477987870574" lon="-4.159356001764536">
        <ele>478.38999999999999</ele>
        <time>2025-05-10T11:36:28Z</time>
      </trkpt>
      <trkpt lat="37.168477987870574" lon="-4.159356001764536">
        <ele>478.38999999999999</ele>
        <time>2025-05-10T11:37:07Z</time>
      </trkpt>
      <trkpt lat="37.168458960950375" lon="-4.159332029521465">
        <ele>478.38999999999999</ele>
        <time>2025-05-10T11:37:15Z</time>
      </trkpt>
      <trkpt lat="37.168430965393782" lon="-4.159296993166208">
        <ele>477.91000000000003</ele>
        <time>2025-05-10T11:37:16Z</time>
      </trkpt>
      <trkpt lat="37.168396012857556" lon="-4.159252988174558">
        <ele>477.91000000000003</ele>
        <time>2025-05-10T11:37:17Z</time>
      </trkpt>
      <trkpt lat="37.168099964037538" lon="-4.158904971554875">
        <ele>474.55000000000001</ele>
        <time>2025-05-10T11:37:23Z</time>
      </trkpt>
      <trkpt lat="37.168001979589462" lon="-4.158785026520491">
        <ele>471.18000000000001</ele>
        <time>2025-05-10T11:37:29Z</time>
      </trkpt>
      <trkpt lat="37.168001979589462" lon="-4.158785026520491">
        <ele>469.74000000000001</ele>
        <time>2025-05-10T11:38:11Z</time>
      </trkpt>
      <trkpt lat="37.167984964326024" lon="-4.158768011257052">
        <ele>468.30000000000001</ele>
        <time>2025-05-10T11:38:18Z</time>
      </trkpt>
      <trkpt lat="37.167958980426192" lon="-4.158742027357221">
        <ele>468.77999999999997</ele>
        <time>2025-05-10T11:38:19Z</time>
      </trkpt>
      <trkpt lat="37.167605012655258" lon="-4.158430974930525">
        <ele>473.11000000000001</ele>
        <time>2025-05-10T11:38:28Z</time>
      </trkpt>
      <trkpt lat="37.167303012683988" lon="-4.158193012699485">
        <ele>472.63</ele>
        <time>2025-05-10T11:38:33Z</time>
      </trkpt>
      <trkpt lat="37.167250039055943" lon="-4.158153031021357">
        <ele>472.13999999999999</ele>
        <time>2025-05-10T11:38:34Z</time>
      </trkpt>
      <trkpt lat="37.166985003277659" lon="-4.157959995791316">
        <ele>470.69999999999999</ele>
        <time>2025-05-10T11:38:39Z</time>
      </trkpt>
      <trkpt lat="37.166878972202539" lon="-4.157943986356258">
        <ele>470.69999999999999</ele>
        <time>2025-05-10T11:38:40Z</time>
      </trkpt>
      <trkpt lat="37.166942004114389" lon="-4.157809959724546">
        <ele>470.22000000000003</ele>
        <time>2025-05-10T11:38:41Z</time>
      </trkpt>
      <trkpt lat="37.166945021599531" lon="-4.157761009410024">
        <ele>470.22000000000003</ele>
        <time>2025-05-10T11:38:42Z</time>
      </trkpt>
      <trkpt lat="37.166950972750783" lon="-4.157676016911864">
        <ele>469.74000000000001</ele>
        <time>2025-05-10T11:38:43Z</time>
      </trkpt>
      <trkpt lat="37.166956001892686" lon="-4.157595969736576">
        <ele>469.74000000000001</ele>
        <time>2025-05-10T11:38:44Z</time>
      </trkpt>
      <trkpt lat="37.166979974135756" lon="-4.157434031367302">
        <ele>468.77999999999997</ele>
        <time>2025-05-10T11:38:46Z</time>
      </trkpt>
      <trkpt lat="37.167049963027239" lon="-4.157209983095527">
        <ele>468.30000000000001</ele>
        <time>2025-05-10T11:38:49Z</time>
      </trkpt>
      <trkpt lat="37.167130010202527" lon="-4.156990963965654">
        <ele>468.30000000000001</ele>
        <time>2025-05-10T11:38:52Z</time>
      </trkpt>
      <trkpt lat="37.167160017415881" lon="-4.156911000609398">
        <ele>469.25999999999999</ele>
        <time>2025-05-10T11:38:53Z</time>
      </trkpt>
      <trkpt lat="37.167270993813872" lon="-4.156624004244804">
        <ele>471.66000000000003</ele>
        <time>2025-05-10T11:38:57Z</time>
      </trkpt>
      <trkpt lat="37.167283985763788" lon="-4.156556027010083">
        <ele>471.66000000000003</ele>
        <time>2025-05-10T11:38:58Z</time>
      </trkpt>
      <trkpt lat="37.167281974107027" lon="-4.156482014805079">
        <ele>472.13999999999999</ele>
        <time>2025-05-10T11:38:59Z</time>
      </trkpt>
      <trkpt lat="37.167279040440917" lon="-4.15640096180141">
        <ele>472.13999999999999</ele>
        <time>2025-05-10T11:39:00Z</time>
      </trkpt>
      <trkpt lat="37.167277028784156" lon="-4.156323010101914">
        <ele>472.13999999999999</ele>
        <time>2025-05-10T11:39:01Z</time>
      </trkpt>
      <trkpt lat="37.167275017127395" lon="-4.156242962926626">
        <ele>472.13999999999999</ele>
        <time>2025-05-10T11:39:02Z</time>
      </trkpt>
      <trkpt lat="37.167271999642253" lon="-4.156155958771706">
        <ele>472.13999999999999</ele>
        <time>2025-05-10T11:39:03Z</time>
      </trkpt>
      <trkpt lat="37.167264958843589" lon="-4.155916990712285">
        <ele>472.13999999999999</ele>
        <time>2025-05-10T11:39:06Z</time>
      </trkpt>
      <trkpt lat="37.167263031005859" lon="-4.155838033184409">
        <ele>472.13999999999999</ele>
        <time>2025-05-10T11:39:07Z</time>
      </trkpt>
      <trkpt lat="37.167263031005859" lon="-4.155752034857869">
        <ele>472.13999999999999</ele>
        <time>2025-05-10T11:39:08Z</time>
      </trkpt>
      <trkpt lat="37.167263031005859" lon="-4.155642986297607">
        <ele>472.13999999999999</ele>
        <time>2025-05-10T11:39:09Z</time>
      </trkpt>
      <trkpt lat="37.167255990207195" lon="-4.155577020719647">
        <ele>472.63</ele>
        <time>2025-05-10T11:39:10Z</time>
      </trkpt>
      <trkpt lat="37.167245009914041" lon="-4.155483981594443">
        <ele>472.63</ele>
        <time>2025-05-10T11:39:11Z</time>
      </trkpt>
      <trkpt lat="37.167234029620886" lon="-4.155384991317987">
        <ele>472.63</ele>
        <time>2025-05-10T11:39:12Z</time>
      </trkpt>
      <trkpt lat="37.167222965508699" lon="-4.155290024355054">
        <ele>472.63</ele>
        <time>2025-05-10T11:39:13Z</time>
      </trkpt>
      <trkpt lat="37.167211985215545" lon="-4.155198996886611">
        <ele>472.63</ele>
        <time>2025-05-10T11:39:14Z</time>
      </trkpt>
      <trkpt lat="37.167202010750771" lon="-4.155109981074929">
        <ele>472.63</ele>
        <time>2025-05-10T11:39:15Z</time>
      </trkpt>
      <trkpt lat="37.167198993265629" lon="-4.155085003003478">
        <ele>472.63</ele>
        <time>2025-05-10T11:39:16Z</time>
      </trkpt>
      <trkpt lat="37.167068989947438" lon="-4.154817033559084">
        <ele>473.11000000000001</ele>
        <time>2025-05-10T11:39:19Z</time>
      </trkpt>
      <trkpt lat="37.166928006336093" lon="-4.154526013880968">
        <ele>473.58999999999997</ele>
        <time>2025-05-10T11:39:23Z</time>
      </trkpt>
      <trkpt lat="37.166766989976168" lon="-4.154132986441255">
        <ele>474.06999999999999</ele>
        <time>2025-05-10T11:39:28Z</time>
      </trkpt>
      <trkpt lat="37.166738994419575" lon="-4.154052017256618">
        <ele>474.06999999999999</ele>
        <time>2025-05-10T11:39:29Z</time>
      </trkpt>
      <trkpt lat="37.166680991649628" lon="-4.153884965926409">
        <ele>474.06999999999999</ele>
        <time>2025-05-10T11:39:31Z</time>
      </trkpt>
      <trkpt lat="37.166652996093035" lon="-4.153803996741772">
        <ele>474.55000000000001</ele>
        <time>2025-05-10T11:39:32Z</time>
      </trkpt>
      <trkpt lat="37.166627012193203" lon="-4.153728978708386">
        <ele>475.02999999999997</ele>
        <time>2025-05-10T11:39:33Z</time>
      </trkpt>
      <trkpt lat="37.166601028293371" lon="-4.153653960675001">
        <ele>475.02999999999997</ele>
        <time>2025-05-10T11:39:34Z</time>
      </trkpt>
      <trkpt lat="37.166575966402888" lon="-4.153578020632267">
        <ele>475.50999999999999</ele>
        <time>2025-05-10T11:39:35Z</time>
      </trkpt>
      <trkpt lat="37.166552999988198" lon="-4.153503002598882">
        <ele>475.50999999999999</ele>
        <time>2025-05-10T11:39:36Z</time>
      </trkpt>
      <trkpt lat="37.166528021916747" lon="-4.153425972908735">
        <ele>475.50999999999999</ele>
        <time>2025-05-10T11:39:37Z</time>
      </trkpt>
      <trkpt lat="37.166395001113415" lon="-4.153003022074699">
        <ele>475.50999999999999</ele>
        <time>2025-05-10T11:39:43Z</time>
      </trkpt>
      <trkpt lat="37.166373962536454" lon="-4.152937978506088">
        <ele>475.99000000000001</ele>
        <time>2025-05-10T11:39:44Z</time>
      </trkpt>
      <trkpt lat="37.166352001950145" lon="-4.152866983786225">
        <ele>476.47000000000003</ele>
        <time>2025-05-10T11:39:45Z</time>
      </trkpt>
      <trkpt lat="37.166258962824941" lon="-4.15255299769342">
        <ele>477.43000000000001</ele>
        <time>2025-05-10T11:39:53Z</time>
      </trkpt>
      <trkpt lat="37.166232978925109" lon="-4.152330961078405">
        <ele>476.47000000000003</ele>
        <time>2025-05-10T11:40:10Z</time>
      </trkpt>
      <trkpt lat="37.166232978925109" lon="-4.152267007157207">
        <ele>476.94999999999999</ele>
        <time>2025-05-10T11:40:20Z</time>
      </trkpt>
      <trkpt lat="37.166232978925109" lon="-4.152267007157207">
        <ele>476.47000000000003</ele>
        <time>2025-05-10T11:41:03Z</time>
      </trkpt>
      <trkpt lat="37.166232978925109" lon="-4.151991996914148">
        <ele>477.43000000000001</ele>
        <time>2025-05-10T11:41:26Z</time>
      </trkpt>
      <trkpt lat="37.166237002238631" lon="-4.151537027209997">
        <ele>468.77999999999997</ele>
        <time>2025-05-10T11:41:36Z</time>
      </trkpt>
      <trkpt lat="37.166230967268348" lon="-4.151496039703488">
        <ele>467.81999999999999</ele>
        <time>2025-05-10T11:41:37Z</time>
      </trkpt>
      <trkpt lat="37.166195008903742" lon="-4.15139595977962">
        <ele>465.89999999999998</ele>
        <time>2025-05-10T11:41:39Z</time>
      </trkpt>
      <trkpt lat="37.166174976155162" lon="-4.151339968666434">
        <ele>464.93000000000001</ele>
        <time>2025-05-10T11:41:40Z</time>
      </trkpt>
      <trkpt lat="37.166155027225614" lon="-4.151284983381629">
        <ele>463.97000000000003</ele>
        <time>2025-05-10T11:41:41Z</time>
      </trkpt>
      <trkpt lat="37.16614798642695" lon="-4.151266040280461">
        <ele>463.00999999999999</ele>
        <time>2025-05-10T11:41:42Z</time>
      </trkpt>
      <trkpt lat="37.166122002527118" lon="-4.151213988661766">
        <ele>461.56999999999999</ele>
        <time>2025-05-10T11:41:43Z</time>
      </trkpt>
      <trkpt lat="37.16610599309206" lon="-4.151182975620031">
        <ele>460.61000000000001</ele>
        <time>2025-05-10T11:41:44Z</time>
      </trkpt>
      <trkpt lat="37.16601898893714" lon="-4.15096303448081">
        <ele>456.75999999999999</ele>
        <time>2025-05-10T11:41:49Z</time>
      </trkpt>
      <trkpt lat="37.16601898893714" lon="-4.150888016447425">
        <ele>455.80000000000001</ele>
        <time>2025-05-10T11:41:50Z</time>
      </trkpt>
      <trkpt lat="37.166048996150494" lon="-4.150647958740592">
        <ele>452.92000000000002</ele>
        <time>2025-05-10T11:41:53Z</time>
      </trkpt>
      <trkpt lat="37.166115967556834" lon="-4.150471016764641">
        <ele>449.55000000000001</ele>
        <time>2025-05-10T11:41:57Z</time>
      </trkpt>
      <trkpt lat="37.16614798642695" lon="-4.150386024266481">
        <ele>449.06999999999999</ele>
        <time>2025-05-10T11:41:58Z</time>
      </trkpt>
      <trkpt lat="37.166161984205246" lon="-4.150357022881508">
        <ele>448.58999999999997</ele>
        <time>2025-05-10T11:41:59Z</time>
      </trkpt>
      <trkpt lat="37.166178999468684" lon="-4.150314023718238">
        <ele>447.63</ele>
        <time>2025-05-10T11:42:00Z</time>
      </trkpt>
      <trkpt lat="37.166202971711755" lon="-4.150245962664485">
        <ele>447.14999999999998</ele>
        <time>2025-05-10T11:42:01Z</time>
      </trkpt>
      <trkpt lat="37.166230967268348" lon="-4.150171028450131">
        <ele>446.19</ele>
        <time>2025-05-10T11:42:02Z</time>
      </trkpt>
      <trkpt lat="37.16625502333045" lon="-4.15010598488152">
        <ele>445.23000000000002</ele>
        <time>2025-05-10T11:42:03Z</time>
      </trkpt>
      <trkpt lat="37.16627798974514" lon="-4.150042030960321">
        <ele>443.79000000000002</ele>
        <time>2025-05-10T11:42:04Z</time>
      </trkpt>
      <trkpt lat="37.166304979473352" lon="-4.149971036240459">
        <ele>442.81999999999999</ele>
        <time>2025-05-10T11:42:05Z</time>
      </trkpt>
      <trkpt lat="37.166329035535455" lon="-4.149906998500228">
        <ele>441.86000000000001</ele>
        <time>2025-05-10T11:42:06Z</time>
      </trkpt>
      <trkpt lat="37.166348984465003" lon="-4.149852013215423">
        <ele>440.89999999999998</ele>
        <time>2025-05-10T11:42:07Z</time>
      </trkpt>
      <trkpt lat="37.166365999728441" lon="-4.149805996567011">
        <ele>439.94</ele>
        <time>2025-05-10T11:42:08Z</time>
      </trkpt>
      <trkpt lat="37.166383014991879" lon="-4.149759979918599">
        <ele>438.5</ele>
        <time>2025-05-10T11:42:09Z</time>
      </trkpt>
      <trkpt lat="37.166401036083698" lon="-4.149713041260839">
        <ele>437.54000000000002</ele>
        <time>2025-05-10T11:42:10Z</time>
      </trkpt>
      <trkpt lat="37.166422996670008" lon="-4.149655038490892">
        <ele>436.57999999999998</ele>
        <time>2025-05-10T11:42:11Z</time>
      </trkpt>
      <trkpt lat="37.166443029418588" lon="-4.149600975215435">
        <ele>435.61000000000001</ele>
        <time>2025-05-10T11:42:12Z</time>
      </trkpt>
      <trkpt lat="37.166465995833278" lon="-4.149539032950997">
        <ele>434.64999999999998</ele>
        <time>2025-05-10T11:42:13Z</time>
      </trkpt>
      <trkpt lat="37.166486028581858" lon="-4.149483041837812">
        <ele>434.17000000000002</ele>
        <time>2025-05-10T11:42:14Z</time>
      </trkpt>
      <trkpt lat="37.166502960026264" lon="-4.14943995885551">
        <ele>433.20999999999998</ele>
        <time>2025-05-10T11:42:15Z</time>
      </trkpt>
      <trkpt lat="37.166517041623592" lon="-4.149401988834143">
        <ele>432.73000000000002</ele>
        <time>2025-05-10T11:42:16Z</time>
      </trkpt>
      <trkpt lat="37.166533973067999" lon="-4.149355972185731">
        <ele>431.76999999999998</ele>
        <time>2025-05-10T11:42:17Z</time>
      </trkpt>
      <trkpt lat="37.166548976674676" lon="-4.149296963587403">
        <ele>430.81</ele>
        <time>2025-05-10T11:42:18Z</time>
      </trkpt>
      <trkpt lat="37.166562974452972" lon="-4.14924499578774">
        <ele>429.85000000000002</ele>
        <time>2025-05-10T11:42:19Z</time>
      </trkpt>
      <trkpt lat="37.166575966402888" lon="-4.149195039644837">
        <ele>428.88999999999999</ele>
        <time>2025-05-10T11:42:20Z</time>
      </trkpt>
      <trkpt lat="37.166647966951132" lon="-4.148917011916637">
        <ele>423.60000000000002</ele>
        <time>2025-05-10T11:42:26Z</time>
      </trkpt>
      <trkpt lat="37.166732037439942" lon="-4.148784996941686">
        <ele>422.63999999999999</ele>
        <time>2025-05-10T11:42:27Z</time>
      </trkpt>
      <trkpt lat="37.166762966662645" lon="-4.148791031911969">
        <ele>421.68000000000001</ele>
        <time>2025-05-10T11:42:28Z</time>
      </trkpt>
      <trkpt lat="37.166962036862969" lon="-4.148904019966722">
        <ele>414.94999999999999</ele>
        <time>2025-05-10T11:42:37Z</time>
      </trkpt>
      <trkpt lat="37.166962958872318" lon="-4.148905025795102">
        <ele>415.43000000000001</ele>
        <time>2025-05-10T11:42:38Z</time>
      </trkpt>
      <trkpt lat="37.166962958872318" lon="-4.148905025795102">
        <ele>413.98000000000002</ele>
        <time>2025-05-10T11:42:40Z</time>
      </trkpt>
      <trkpt lat="37.166962036862969" lon="-4.148909971117973">
        <ele>413.5</ele>
        <time>2025-05-10T11:42:41Z</time>
      </trkpt>
      <trkpt lat="37.166949966922402" lon="-4.148960011079907">
        <ele>412.06</ele>
        <time>2025-05-10T11:42:42Z</time>
      </trkpt>
      <trkpt lat="37.166938986629248" lon="-4.14900803938508">
        <ele>411.10000000000002</ele>
        <time>2025-05-10T11:42:43Z</time>
      </trkpt>
      <trkpt lat="37.166927000507712" lon="-4.149061013013125">
        <ele>410.13999999999999</ele>
        <time>2025-05-10T11:42:44Z</time>
      </trkpt>
      <trkpt lat="37.166865980252624" lon="-4.149319007992744">
        <ele>406.29000000000002</ele>
        <time>2025-05-10T11:42:48Z</time>
      </trkpt>
      <trkpt lat="37.166813006624579" lon="-4.149549007415772">
        <ele>405.81</ele>
        <time>2025-05-10T11:42:49Z</time>
      </trkpt>
      <trkpt lat="37.166813006624579" lon="-4.149549007415772">
        <ele>407.74000000000001</ele>
        <time>2025-05-10T11:42:50Z</time>
      </trkpt>
      <trkpt lat="37.166833039373159" lon="-4.149465020745993">
        <ele>408.22000000000003</ele>
        <time>2025-05-10T11:42:51Z</time>
      </trkpt>
      <trkpt lat="37.166819963604212" lon="-4.149516988545656">
        <ele>408.22000000000003</ele>
        <time>2025-05-10T11:42:52Z</time>
      </trkpt>
      <trkpt lat="37.166820969432592" lon="-4.149598963558674">
        <ele>409.18000000000001</ele>
        <time>2025-05-10T11:42:53Z</time>
      </trkpt>
      <trkpt lat="37.166873021051288" lon="-4.149722009897232">
        <ele>409.66000000000003</ele>
        <time>2025-05-10T11:42:54Z</time>
      </trkpt>
      <trkpt lat="37.166981985792518" lon="-4.149837009608746">
        <ele>409.66000000000003</ele>
        <time>2025-05-10T11:42:56Z</time>
      </trkpt>
      <trkpt lat="37.166987014934421" lon="-4.149840027093887">
        <ele>412.06</ele>
        <time>2025-05-10T11:42:57Z</time>
      </trkpt>
      <trkpt lat="37.166974022984505" lon="-4.149832986295223">
        <ele>413.98000000000002</ele>
        <time>2025-05-10T11:42:58Z</time>
      </trkpt>
      <trkpt lat="37.167139984667301" lon="-4.149746987968683">
        <ele>413.98000000000002</ele>
        <time>2025-05-10T11:42:59Z</time>
      </trkpt>
      <trkpt lat="37.167148031294346" lon="-4.149725027382374">
        <ele>413.98000000000002</ele>
        <time>2025-05-10T11:43:00Z</time>
      </trkpt>
      <trkpt lat="37.167149959132075" lon="-4.14971899241209">
        <ele>415.43000000000001</ele>
        <time>2025-05-10T11:43:01Z</time>
      </trkpt>
      <trkpt lat="37.167159011587501" lon="-4.149690996855497">
        <ele>415.43000000000001</ele>
        <time>2025-05-10T11:43:02Z</time>
      </trkpt>
      <trkpt lat="37.167165968567133" lon="-4.149670964106917">
        <ele>415.91000000000003</ele>
        <time>2025-05-10T11:43:03Z</time>
      </trkpt>
      <trkpt lat="37.167169991880655" lon="-4.149656966328621">
        <ele>416.87</ele>
        <time>2025-05-10T11:43:04Z</time>
      </trkpt>
      <trkpt lat="37.167176026850939" lon="-4.149639029055834">
        <ele>417.82999999999998</ele>
        <time>2025-05-10T11:43:05Z</time>
      </trkpt>
      <trkpt lat="37.167179966345429" lon="-4.149626959115267">
        <ele>418.79000000000002</ele>
        <time>2025-05-10T11:43:06Z</time>
      </trkpt>
      <trkpt lat="37.167182983830571" lon="-4.149618996307254">
        <ele>420.70999999999998</ele>
        <time>2025-05-10T11:43:07Z</time>
      </trkpt>
      <trkpt lat="37.167191030457616" lon="-4.149596029892564">
        <ele>421.68000000000001</ele>
        <time>2025-05-10T11:43:08Z</time>
      </trkpt>
      <trkpt lat="37.167205028235912" lon="-4.149552024900913">
        <ele>422.63999999999999</ele>
        <time>2025-05-10T11:43:09Z</time>
      </trkpt>
      <trkpt lat="37.167224977165461" lon="-4.149493016302586">
        <ele>423.12</ele>
        <time>2025-05-10T11:43:10Z</time>
      </trkpt>
      <trkpt lat="37.167246015742421" lon="-4.149429984390736">
        <ele>424.56</ele>
        <time>2025-05-10T11:43:11Z</time>
      </trkpt>
      <trkpt lat="37.167265964671969" lon="-4.149369969964027">
        <ele>425.04000000000002</ele>
        <time>2025-05-10T11:43:12Z</time>
      </trkpt>
      <trkpt lat="37.167284991592169" lon="-4.149313978850842">
        <ele>426</ele>
        <time>2025-05-10T11:43:13Z</time>
      </trkpt>
      <trkpt lat="37.167310975492001" lon="-4.149234015494585">
        <ele>426.48000000000002</ele>
        <time>2025-05-10T11:43:14Z</time>
      </trkpt>
      <trkpt lat="37.167349029332399" lon="-4.149120021611452">
        <ele>427.92000000000002</ele>
        <time>2025-05-10T11:43:15Z</time>
      </trkpt>
      <trkpt lat="37.167362021282315" lon="-4.149110969156027">
        <ele>428.88999999999999</ele>
        <time>2025-05-10T11:43:16Z</time>
      </trkpt>
      <trkpt lat="37.167408959940076" lon="-4.149077022448182">
        <ele>429.85000000000002</ele>
        <time>2025-05-10T11:43:17Z</time>
      </trkpt>
      <trkpt lat="37.167454976588488" lon="-4.149043997749686">
        <ele>430.32999999999998</ele>
        <time>2025-05-10T11:43:18Z</time>
      </trkpt>
      <trkpt lat="37.167506022378802" lon="-4.149011978879571">
        <ele>431.76999999999998</ele>
        <time>2025-05-10T11:43:19Z</time>
      </trkpt>
      <trkpt lat="37.167534017935395" lon="-4.14900803938508">
        <ele>432.25</ele>
        <time>2025-05-10T11:43:20Z</time>
      </trkpt>
      <trkpt lat="37.167568970471621" lon="-4.149003010243177">
        <ele>432.73000000000002</ele>
        <time>2025-05-10T11:43:21Z</time>
      </trkpt>
      <trkpt lat="37.167606018483639" lon="-4.148998986929655">
        <ele>432.73000000000002</ele>
        <time>2025-05-10T11:43:22Z</time>
      </trkpt>
      <trkpt lat="37.167638959363103" lon="-4.148994041606784">
        <ele>433.20999999999998</ele>
        <time>2025-05-10T11:43:23Z</time>
      </trkpt>
      <trkpt lat="37.167680030688643" lon="-4.148989012464881">
        <ele>433.20999999999998</ele>
        <time>2025-05-10T11:43:24Z</time>
      </trkpt>
      <trkpt lat="37.167821014299989" lon="-4.148969985544682">
        <ele>433.69</ele>
        <time>2025-05-10T11:43:25Z</time>
      </trkpt>
      <trkpt lat="37.167821014299989" lon="-4.148969985544682">
        <ele>434.17000000000002</ele>
        <time>2025-05-10T11:43:26Z</time>
      </trkpt>
      <trkpt lat="37.167950011789799" lon="-4.148926986381412">
        <ele>434.64999999999998</ele>
        <time>2025-05-10T11:43:27Z</time>
      </trkpt>
      <trkpt lat="37.168045984581113" lon="-4.148905025795102">
        <ele>435.61000000000001</ele>
        <time>2025-05-10T11:43:30Z</time>
      </trkpt>
      <trkpt lat="37.16810499317944" lon="-4.148891028016806">
        <ele>436.10000000000002</ele>
        <time>2025-05-10T11:43:31Z</time>
      </trkpt>
      <trkpt lat="37.168156038969755" lon="-4.148879963904619">
        <ele>436.57999999999998</ele>
        <time>2025-05-10T11:43:32Z</time>
      </trkpt>
      <trkpt lat="37.168228961527348" lon="-4.148862026631832">
        <ele>437.06</ele>
        <time>2025-05-10T11:43:33Z</time>
      </trkpt>
      <trkpt lat="37.168240025639534" lon="-4.148851968348026">
        <ele>437.06</ele>
        <time>2025-05-10T11:43:34Z</time>
      </trkpt>
      <trkpt lat="37.16827698983252" lon="-4.148813998326659">
        <ele>438.5</ele>
        <time>2025-05-10T11:43:35Z</time>
      </trkpt>
      <trkpt lat="37.168303979560733" lon="-4.148788014426827">
        <ele>439.45999999999998</ele>
        <time>2025-05-10T11:43:36Z</time>
      </trkpt>
      <trkpt lat="37.168400958180428" lon="-4.148691035807133">
        <ele>439.94</ele>
        <time>2025-05-10T11:43:37Z</time>
      </trkpt>
      <trkpt lat="37.168400958180428" lon="-4.148691035807133">
        <ele>440.42000000000002</ele>
        <time>2025-05-10T11:43:38Z</time>
      </trkpt>
      <trkpt lat="37.168400958180428" lon="-4.148691035807133">
        <ele>440.42000000000002</ele>
        <time>2025-05-10T11:43:39Z</time>
      </trkpt>
      <trkpt lat="37.168414033949375" lon="-4.148692963644862">
        <ele>440.89999999999998</ele>
        <time>2025-05-10T11:43:40Z</time>
      </trkpt>
      <trkpt lat="37.168454015627503" lon="-4.148697992786765">
        <ele>440.89999999999998</ele>
        <time>2025-05-10T11:43:41Z</time>
      </trkpt>
      <trkpt lat="37.168500032275915" lon="-4.148705033585429">
        <ele>441.38</ele>
        <time>2025-05-10T11:43:42Z</time>
      </trkpt>
      <trkpt lat="37.168548982590437" lon="-4.148711990565062">
        <ele>441.38</ele>
        <time>2025-05-10T11:43:43Z</time>
      </trkpt>
      <trkpt lat="37.168550994247198" lon="-4.148711990565062">
        <ele>440.89999999999998</ele>
        <time>2025-05-10T11:43:44Z</time>
      </trkpt>
      <trkpt lat="37.168761966750026" lon="-4.148736968636513">
        <ele>439.45999999999998</ele>
        <time>2025-05-10T11:43:49Z</time>
      </trkpt>
      <trkpt lat="37.168916026130319" lon="-4.148754989728332">
        <ele>440.42000000000002</ele>
        <time>2025-05-10T11:43:51Z</time>
      </trkpt>
      <trkpt lat="37.168916026130319" lon="-4.148754989728332">
        <ele>440.42000000000002</ele>
        <time>2025-05-10T11:43:52Z</time>
      </trkpt>
      <trkpt lat="37.16892097145319" lon="-4.14847101084888">
        <ele>441.38</ele>
        <time>2025-05-10T11:43:54Z</time>
      </trkpt>
      <trkpt lat="37.168900016695261" lon="-4.148420970886946">
        <ele>441.86000000000001</ele>
        <time>2025-05-10T11:43:55Z</time>
      </trkpt>
      <trkpt lat="37.168880989775062" lon="-4.148374032229185">
        <ele>441.86000000000001</ele>
        <time>2025-05-10T11:43:56Z</time>
      </trkpt>
      <trkpt lat="37.168860035017133" lon="-4.14832198061049">
        <ele>442.33999999999997</ele>
        <time>2025-05-10T11:43:57Z</time>
      </trkpt>
      <trkpt lat="37.168838996440172" lon="-4.148269006982446">
        <ele>442.81999999999999</ele>
        <time>2025-05-10T11:43:58Z</time>
      </trkpt>
      <trkpt lat="37.168817035853863" lon="-4.148215027526021">
        <ele>442.81999999999999</ele>
        <time>2025-05-10T11:43:59Z</time>
      </trkpt>
      <trkpt lat="37.168797003105283" lon="-4.148165993392468">
        <ele>443.31</ele>
        <time>2025-05-10T11:44:00Z</time>
      </trkpt>
      <trkpt lat="37.168778982013464" lon="-4.148122994229198">
        <ele>443.79000000000002</ele>
        <time>2025-05-10T11:44:01Z</time>
      </trkpt>
      <trkpt lat="37.168760038912296" lon="-4.148076977580786">
        <ele>444.26999999999998</ele>
        <time>2025-05-10T11:44:02Z</time>
      </trkpt>
      <trkpt lat="37.168739000335336" lon="-4.148025009781122">
        <ele>445.23000000000002</ele>
        <time>2025-05-10T11:44:03Z</time>
      </trkpt>
      <trkpt lat="37.168718967586756" lon="-4.147975975647569">
        <ele>445.23000000000002</ele>
        <time>2025-05-10T11:44:04Z</time>
      </trkpt>
      <trkpt lat="37.168446974828839" lon="-4.147295029833913">
        <ele>447.63</ele>
        <time>2025-05-10T11:44:15Z</time>
      </trkpt>
      <trkpt lat="37.168421996757388" lon="-4.14722403511405">
        <ele>448.11000000000001</ele>
        <time>2025-05-10T11:44:16Z</time>
      </trkpt>
      <trkpt lat="37.168373968452215" lon="-4.147109035402536">
        <ele>449.06999999999999</ele>
        <time>2025-05-10T11:44:18Z</time>
      </trkpt>
      <trkpt lat="37.168317977339029" lon="-4.146985989063978">
        <ele>450.02999999999997</ele>
        <time>2025-05-10T11:44:20Z</time>
      </trkpt>
      <trkpt lat="37.168260980397463" lon="-4.146870989352465">
        <ele>450.51999999999998</ele>
        <time>2025-05-10T11:44:22Z</time>
      </trkpt>
      <trkpt lat="37.168226027861238" lon="-4.146808041259646">
        <ele>450.51999999999998</ele>
        <time>2025-05-10T11:44:23Z</time>
      </trkpt>
      <trkpt lat="37.168109016492963" lon="-4.146612994372845">
        <ele>450.51999999999998</ele>
        <time>2025-05-10T11:44:26Z</time>
      </trkpt>
      <trkpt lat="37.168061994016171" lon="-4.146545017138124">
        <ele>451.48000000000002</ele>
        <time>2025-05-10T11:44:27Z</time>
      </trkpt>
      <trkpt lat="37.167975995689631" lon="-4.146419959142804">
        <ele>452.44</ele>
        <time>2025-05-10T11:44:29Z</time>
      </trkpt>
      <trkpt lat="37.167942970991135" lon="-4.146371008828282">
        <ele>452.44</ele>
        <time>2025-05-10T11:44:30Z</time>
      </trkpt>
      <trkpt lat="37.167918998748064" lon="-4.146335972473025">
        <ele>452.92000000000002</ele>
        <time>2025-05-10T11:44:31Z</time>
      </trkpt>
      <trkpt lat="37.167906006798148" lon="-4.146318035200238">
        <ele>452.92000000000002</ele>
        <time>2025-05-10T11:44:32Z</time>
      </trkpt>
      <trkpt lat="37.167885974049568" lon="-4.146287022158504">
        <ele>453.39999999999998</ele>
        <time>2025-05-10T11:44:33Z</time>
      </trkpt>
      <trkpt lat="37.167805004864931" lon="-4.146193983033299">
        <ele>454.36000000000001</ele>
        <time>2025-05-10T11:44:41Z</time>
      </trkpt>
      <trkpt lat="37.167693022638559" lon="-4.146116031333804">
        <ele>454.83999999999997</ele>
        <time>2025-05-10T11:44:43Z</time>
      </trkpt>
      <trkpt lat="37.167683970183134" lon="-4.146103961393237">
        <ele>455.80000000000001</ele>
        <time>2025-05-10T11:44:44Z</time>
      </trkpt>
      <trkpt lat="37.167652035132051" lon="-4.146061968058348">
        <ele>456.75999999999999</ele>
        <time>2025-05-10T11:44:45Z</time>
      </trkpt>
      <trkpt lat="37.167629990726709" lon="-4.146020980551839">
        <ele>457.72000000000003</ele>
        <time>2025-05-10T11:44:46Z</time>
      </trkpt>
      <trkpt lat="37.167643988505006" lon="-4.145951997488737">
        <ele>457.24000000000001</ele>
        <time>2025-05-10T11:44:47Z</time>
      </trkpt>
      <trkpt lat="37.167682964354753" lon="-4.145898018032312">
        <ele>456.75999999999999</ele>
        <time>2025-05-10T11:44:48Z</time>
      </trkpt>
      <trkpt lat="37.167749013751745" lon="-4.145861975848675">
        <ele>456.27999999999997</ele>
        <time>2025-05-10T11:44:49Z</time>
      </trkpt>
      <trkpt lat="37.16780299320817" lon="-4.145874967798591">
        <ele>456.27999999999997</ele>
        <time>2025-05-10T11:44:50Z</time>
      </trkpt>
      <trkpt lat="37.167821014299989" lon="-4.145879996940494">
        <ele>456.27999999999997</ele>
        <time>2025-05-10T11:44:51Z</time>
      </trkpt>
      <trkpt lat="37.167924027889967" lon="-4.145929031074047">
        <ele>456.27999999999997</ele>
        <time>2025-05-10T11:44:52Z</time>
      </trkpt>
      <trkpt lat="37.167980019003153" lon="-4.145915033295751">
        <ele>456.75999999999999</ele>
        <time>2025-05-10T11:44:53Z</time>
      </trkpt>
      <trkpt lat="37.168107004836202" lon="-4.145881002768874">
        <ele>457.24000000000001</ele>
        <time>2025-05-10T11:44:55Z</time>
      </trkpt>
      <trkpt lat="37.168171964585781" lon="-4.145862981677055">
        <ele>457.72000000000003</ele>
        <time>2025-05-10T11:44:56Z</time>
      </trkpt>
      <trkpt lat="37.168243965134025" lon="-4.145839009433985">
        <ele>457.72000000000003</ele>
        <time>2025-05-10T11:44:57Z</time>
      </trkpt>
      <trkpt lat="37.169089028611779" lon="-4.145545978099108">
        <ele>460.13</ele>
        <time>2025-05-10T11:45:06Z</time>
      </trkpt>
      <trkpt lat="37.170238019898534" lon="-4.145139958709478">
        <ele>460.13</ele>
        <time>2025-05-10T11:45:17Z</time>
      </trkpt>
      <trkpt lat="37.170863980427384" lon="-4.1449040081352">
        <ele>459.17000000000002</ele>
        <time>2025-05-10T11:45:24Z</time>
      </trkpt>
      <trkpt lat="37.17096003703773" lon="-4.144848017022014">
        <ele>459.17000000000002</ele>
        <time>2025-05-10T11:45:25Z</time>
      </trkpt>
      <trkpt lat="37.171211997047067" lon="-4.144698986783624">
        <ele>460.13</ele>
        <time>2025-05-10T11:45:28Z</time>
      </trkpt>
      <trkpt lat="37.171257007867098" lon="-4.144663028419018">
        <ele>460.13</ele>
        <time>2025-05-10T11:45:29Z</time>
      </trkpt>
      <trkpt lat="37.171278968453407" lon="-4.144645007327199">
        <ele>460.61000000000001</ele>
        <time>2025-05-10T11:45:30Z</time>
      </trkpt>
      <trkpt lat="37.171337977051735" lon="-4.144595973193646">
        <ele>461.08999999999997</ele>
        <time>2025-05-10T11:45:37Z</time>
      </trkpt>
      <trkpt lat="37.171378964558244" lon="-4.144563032314181">
        <ele>460.61000000000001</ele>
        <time>2025-05-10T11:45:38Z</time>
      </trkpt>
      <trkpt lat="37.171448031440377" lon="-4.144507041200995">
        <ele>460.61000000000001</ele>
        <time>2025-05-10T11:45:39Z</time>
      </trkpt>
      <trkpt lat="37.171451970934868" lon="-4.143816959112883">
        <ele>460.61000000000001</ele>
        <time>2025-05-10T11:45:45Z</time>
      </trkpt>
      <trkpt lat="37.171997968107462" lon="-4.14391603320837">
        <ele>460.61000000000001</ele>
        <time>2025-05-10T11:45:49Z</time>
      </trkpt>
      <trkpt lat="37.172062005847692" lon="-4.143848977982998">
        <ele>460.61000000000001</ele>
        <time>2025-05-10T11:45:50Z</time>
      </trkpt>
      <trkpt lat="37.172131994739175" lon="-4.143778989091516">
        <ele>460.61000000000001</ele>
        <time>2025-05-10T11:45:51Z</time>
      </trkpt>
      <trkpt lat="37.172111039981246" lon="-4.143437007442117">
        <ele>460.61000000000001</ele>
        <time>2025-05-10T11:45:52Z</time>
      </trkpt>
      <trkpt lat="37.172091007232666" lon="-4.143241038545966">
        <ele>460.61000000000001</ele>
        <time>2025-05-10T11:45:53Z</time>
      </trkpt>
      <trkpt lat="37.172091007232666" lon="-4.143204996362329">
        <ele>460.61000000000001</ele>
        <time>2025-05-10T11:45:54Z</time>
      </trkpt>
      <trkpt lat="37.172091007232666" lon="-4.143071975558996">
        <ele>460.61000000000001</ele>
        <time>2025-05-10T11:45:55Z</time>
      </trkpt>
      <trkpt lat="37.172091007232666" lon="-4.142936021089554">
        <ele>460.61000000000001</ele>
        <time>2025-05-10T11:45:56Z</time>
      </trkpt>
      <trkpt lat="37.172070974484086" lon="-4.142810963094235">
        <ele>460.61000000000001</ele>
        <time>2025-05-10T11:45:57Z</time>
      </trkpt>
      <trkpt lat="37.1720340102911" lon="-4.142689006403089">
        <ele>460.61000000000001</ele>
        <time>2025-05-10T11:45:58Z</time>
      </trkpt>
      <trkpt lat="37.171996040269732" lon="-4.142567971721292">
        <ele>460.61000000000001</ele>
        <time>2025-05-10T11:45:59Z</time>
      </trkpt>
      <trkpt lat="37.171958992257714" lon="-4.142447020858526">
        <ele>461.08999999999997</ele>
        <time>2025-05-10T11:46:00Z</time>
      </trkpt>
      <trkpt lat="37.171822031959891" lon="-4.14200596511364">
        <ele>463.00999999999999</ele>
        <time>2025-05-10T11:46:04Z</time>
      </trkpt>
      <trkpt lat="37.171809040009975" lon="-4.141923990100622">
        <ele>463.49000000000001</ele>
        <time>2025-05-10T11:46:05Z</time>
      </trkpt>
      <trkpt lat="37.171794036403298" lon="-4.141691979020834">
        <ele>464.44999999999999</ele>
        <time>2025-05-10T11:46:08Z</time>
      </trkpt>
      <trkpt lat="37.171781966462731" lon="-4.140830989927054">
        <ele>464.93000000000001</ele>
        <time>2025-05-10T11:46:15Z</time>
      </trkpt>
      <trkpt lat="37.171860001981258" lon="-4.140122970566154">
        <ele>463.49000000000001</ele>
        <time>2025-05-10T11:46:22Z</time>
      </trkpt>
      <trkpt lat="37.171977013349533" lon="-4.139357032254338">
        <ele>462.05000000000001</ele>
        <time>2025-05-10T11:46:29Z</time>
      </trkpt>
      <trkpt lat="37.172226961702108" lon="-4.138023974373937">
        <ele>463.00999999999999</ele>
        <time>2025-05-10T11:46:37Z</time>
      </trkpt>
      <trkpt lat="37.172588976100087" lon="-4.136685971170664">
        <ele>464.93000000000001</ele>
        <time>2025-05-10T11:46:47Z</time>
      </trkpt>
      <trkpt lat="37.172646978870034" lon="-4.135282002389431">
        <ele>466.86000000000001</ele>
        <time>2025-05-10T11:46:57Z</time>
      </trkpt>
      <trkpt lat="37.172648990526795" lon="-4.134381031617522">
        <ele>468.30000000000001</ele>
        <time>2025-05-10T11:47:03Z</time>
      </trkpt>
      <trkpt lat="37.172533990815282" lon="-4.133055014535785">
        <ele>472.13999999999999</ele>
        <time>2025-05-10T11:47:11Z</time>
      </trkpt>
      <trkpt lat="37.172520998865366" lon="-4.132896009832621">
        <ele>472.63</ele>
        <time>2025-05-10T11:47:12Z</time>
      </trkpt>
      <trkpt lat="37.172674974426627" lon="-4.131255000829697">
        <ele>478.87</ele>
        <time>2025-05-10T11:47:23Z</time>
      </trkpt>
      <trkpt lat="37.172694001346827" lon="-4.13109096698463">
        <ele>479.35000000000002</ele>
        <time>2025-05-10T11:47:24Z</time>
      </trkpt>
      <trkpt lat="37.172755021601915" lon="-4.130970016121864">
        <ele>479.83999999999997</ele>
        <time>2025-05-10T11:47:25Z</time>
      </trkpt>
      <trkpt lat="37.172814030200243" lon="-4.130851998925209">
        <ele>480.80000000000001</ele>
        <time>2025-05-10T11:47:26Z</time>
      </trkpt>
      <trkpt lat="37.172869015485048" lon="-4.130741022527218">
        <ele>481.27999999999997</ele>
        <time>2025-05-10T11:47:27Z</time>
      </trkpt>
      <trkpt lat="37.173097003251314" lon="-4.130302984267473">
        <ele>484.16000000000003</ele>
        <time>2025-05-10T11:47:31Z</time>
      </trkpt>
      <trkpt lat="37.173158023506403" lon="-4.130185972899199">
        <ele>484.63999999999999</ele>
        <time>2025-05-10T11:47:32Z</time>
      </trkpt>
      <trkpt lat="37.173220971599221" lon="-4.130068039521575">
        <ele>485.60000000000002</ele>
        <time>2025-05-10T11:47:33Z</time>
      </trkpt>
      <trkpt lat="37.173630008473992" lon="-4.129450041800737">
        <ele>493.29000000000002</ele>
        <time>2025-05-10T11:47:39Z</time>
      </trkpt>
      <trkpt lat="37.173980958759785" lon="-4.128708997741342">
        <ele>499.54000000000002</ele>
        <time>2025-05-10T11:47:47Z</time>
      </trkpt>
      <trkpt lat="37.174302991479635" lon="-4.127959990873933">
        <ele>501.94999999999999</ele>
        <time>2025-05-10T11:47:53Z</time>
      </trkpt>
      <trkpt lat="37.17435403726995" lon="-4.127822024747729">
        <ele>502.43000000000001</ele>
        <time>2025-05-10T11:47:54Z</time>
      </trkpt>
      <trkpt lat="37.174366023391485" lon="-4.127677017822862">
        <ele>502.43000000000001</ele>
        <time>2025-05-10T11:47:55Z</time>
      </trkpt>
      <trkpt lat="37.174323024228215" lon="-4.127561012282968">
        <ele>502.91000000000003</ele>
        <time>2025-05-10T11:47:56Z</time>
      </trkpt>
      <trkpt lat="37.174264015629888" lon="-4.127452969551086">
        <ele>503.38999999999999</ele>
        <time>2025-05-10T11:47:57Z</time>
      </trkpt>
      <trkpt lat="37.174200983718038" lon="-4.127337969839573">
        <ele>503.87</ele>
        <time>2025-05-10T11:47:58Z</time>
      </trkpt>
      <trkpt lat="37.174137029796839" lon="-4.127220958471298">
        <ele>504.82999999999998</ele>
        <time>2025-05-10T11:47:59Z</time>
      </trkpt>
      <trkpt lat="37.174081038683653" lon="-4.127091960981488">
        <ele>505.31</ele>
        <time>2025-05-10T11:48:00Z</time>
      </trkpt>
      <trkpt lat="37.174023035913706" lon="-4.126933040097356">
        <ele>506.26999999999998</ele>
        <time>2025-05-10T11:48:01Z</time>
      </trkpt>
      <trkpt lat="37.174014989286661" lon="-4.126790966838598">
        <ele>507.23000000000002</ele>
        <time>2025-05-10T11:48:02Z</time>
      </trkpt>
      <trkpt lat="37.174006020650268" lon="-4.126626010984182">
        <ele>508.19</ele>
        <time>2025-05-10T11:48:03Z</time>
      </trkpt>
      <trkpt lat="37.173984982073307" lon="-4.125958979129791">
        <ele>511.07999999999998</ele>
        <time>2025-05-10T11:48:07Z</time>
      </trkpt>
      <trkpt lat="37.173995040357113" lon="-4.125169990584254">
        <ele>509.63999999999999</ele>
        <time>2025-05-10T11:48:11Z</time>
      </trkpt>
      <trkpt lat="37.173633025959134" lon="-4.123363019898534">
        <ele>506.26999999999998</ele>
        <time>2025-05-10T11:48:19Z</time>
      </trkpt>
      <trkpt lat="37.173037994652987" lon="-4.121211972087622">
        <ele>491.85000000000002</ele>
        <time>2025-05-10T11:48:27Z</time>
      </trkpt>
      <trkpt lat="37.172066029161215" lon="-4.118775017559528">
        <ele>485.12</ele>
        <time>2025-05-10T11:48:37Z</time>
      </trkpt>
      <trkpt lat="37.171817002817988" lon="-4.118097005411983">
        <ele>486.07999999999998</ele>
        <time>2025-05-10T11:48:40Z</time>
      </trkpt>
      <trkpt lat="37.17175698839128" lon="-4.117863988503814">
        <ele>487.05000000000001</ele>
        <time>2025-05-10T11:48:41Z</time>
      </trkpt>
      <trkpt lat="37.171637965366244" lon="-4.117394015192986">
        <ele>488.00999999999999</ele>
        <time>2025-05-10T11:48:43Z</time>
      </trkpt>
      <trkpt lat="37.171576023101807" lon="-4.117148006334901">
        <ele>488.49000000000001</ele>
        <time>2025-05-10T11:48:44Z</time>
      </trkpt>
      <trkpt lat="37.171457000076771" lon="-4.116963017731905">
        <ele>488.49000000000001</ele>
        <time>2025-05-10T11:48:45Z</time>
      </trkpt>
      <trkpt lat="37.171329008415341" lon="-4.116769982501864">
        <ele>488.49000000000001</ele>
        <time>2025-05-10T11:48:46Z</time>
      </trkpt>
      <trkpt lat="37.171190036460757" lon="-4.116611983627081">
        <ele>488.49000000000001</ele>
        <time>2025-05-10T11:48:47Z</time>
      </trkpt>
      <trkpt lat="37.171019967645407" lon="-4.116509975865483">
        <ele>488.49000000000001</ele>
        <time>2025-05-10T11:48:48Z</time>
      </trkpt>
      <trkpt lat="37.17085300013423" lon="-4.116411991417408">
        <ele>488.49000000000001</ele>
        <time>2025-05-10T11:48:49Z</time>
      </trkpt>
      <trkpt lat="37.170687038451433" lon="-4.116314006969333">
        <ele>488.49000000000001</ele>
        <time>2025-05-10T11:48:50Z</time>
      </trkpt>
      <trkpt lat="37.170545971021056" lon="-4.116190038621426">
        <ele>488.00999999999999</ele>
        <time>2025-05-10T11:48:51Z</time>
      </trkpt>
      <trkpt lat="37.170419991016388" lon="-4.116037990897894">
        <ele>488.00999999999999</ele>
        <time>2025-05-10T11:48:52Z</time>
      </trkpt>
      <trkpt lat="37.170296022668481" lon="-4.115888038650155">
        <ele>488.00999999999999</ele>
        <time>2025-05-10T11:48:53Z</time>
      </trkpt>
      <trkpt lat="37.170189991593361" lon="-4.115742025896907">
        <ele>488.00999999999999</ele>
        <time>2025-05-10T11:48:54Z</time>
      </trkpt>
      <trkpt lat="37.17012302018702" lon="-4.115581009536982">
        <ele>488.00999999999999</ele>
        <time>2025-05-10T11:48:55Z</time>
      </trkpt>
      <trkpt lat="37.17005998827517" lon="-4.11542703397572">
        <ele>487.52999999999997</ele>
        <time>2025-05-10T11:48:56Z</time>
      </trkpt>
      <trkpt lat="37.170039033517241" lon="-4.115246990695596">
        <ele>487.52999999999997</ele>
        <time>2025-05-10T11:48:57Z</time>
      </trkpt>
      <trkpt lat="37.170022018253803" lon="-4.115054961293936">
        <ele>487.05000000000001</ele>
        <time>2025-05-10T11:48:58Z</time>
      </trkpt>
      <trkpt lat="37.16995001770556" lon="-4.114649025723338">
        <ele>486.07999999999998</ele>
        <time>2025-05-10T11:49:00Z</time>
      </trkpt>
      <trkpt lat="37.169868964701891" lon="-4.114291034638882">
        <ele>486.07999999999998</ele>
        <time>2025-05-10T11:49:02Z</time>
      </trkpt>
      <trkpt lat="37.169876005500555" lon="-4.114119037985802">
        <ele>486.56</ele>
        <time>2025-05-10T11:49:03Z</time>
      </trkpt>
      <trkpt lat="37.169898971915245" lon="-4.113936983048916">
        <ele>486.56</ele>
        <time>2025-05-10T11:49:04Z</time>
      </trkpt>
      <trkpt lat="37.169922022148967" lon="-4.113755011931062">
        <ele>486.56</ele>
        <time>2025-05-10T11:49:05Z</time>
      </trkpt>
      <trkpt lat="37.169945994392037" lon="-4.113564994186163">
        <ele>486.56</ele>
        <time>2025-05-10T11:49:06Z</time>
      </trkpt>
      <trkpt lat="37.169936019927263" lon="-4.113361984491348">
        <ele>486.56</ele>
        <time>2025-05-10T11:49:07Z</time>
      </trkpt>
      <trkpt lat="37.169925961643457" lon="-4.113145982846618">
        <ele>486.56</ele>
        <time>2025-05-10T11:49:08Z</time>
      </trkpt>
      <trkpt lat="37.169833006337285" lon="-4.111943012103438">
        <ele>484.63999999999999</ele>
        <time>2025-05-10T11:49:13Z</time>
      </trkpt>
      <trkpt lat="37.169765029102564" lon="-4.111704966053367">
        <ele>484.16000000000003</ele>
        <time>2025-05-10T11:49:14Z</time>
      </trkpt>
      <trkpt lat="37.169483983889222" lon="-4.11080801859498">
        <ele>481.75999999999999</ele>
        <time>2025-05-10T11:49:18Z</time>
      </trkpt>
      <trkpt lat="37.169467974454165" lon="-4.110551029443741">
        <ele>481.75999999999999</ele>
        <time>2025-05-10T11:49:19Z</time>
      </trkpt>
      <trkpt lat="37.169462023302913" lon="-4.110297979786992">
        <ele>481.27999999999997</ele>
        <time>2025-05-10T11:49:20Z</time>
      </trkpt>
      <trkpt lat="37.169493958353996" lon="-4.109547967091203">
        <ele>480.80000000000001</ele>
        <time>2025-05-10T11:49:23Z</time>
      </trkpt>
      <trkpt lat="37.169524971395731" lon="-4.109301036223769">
        <ele>480.31999999999999</ele>
        <time>2025-05-10T11:49:24Z</time>
      </trkpt>
      <trkpt lat="37.169550033286214" lon="-4.108822010457516">
        <ele>479.83999999999997</ele>
        <time>2025-05-10T11:49:26Z</time>
      </trkpt>
      <trkpt lat="37.169537041336298" lon="-4.108582958579063">
        <ele>479.83999999999997</ele>
        <time>2025-05-10T11:49:27Z</time>
      </trkpt>
      <trkpt lat="37.169532012194395" lon="-4.105942994356155">
        <ele>479.83999999999997</ele>
        <time>2025-05-10T11:49:38Z</time>
      </trkpt>
      <trkpt lat="37.169572999700904" lon="-4.105447037145495">
        <ele>479.83999999999997</ele>
        <time>2025-05-10T11:49:40Z</time>
      </trkpt>
      <trkpt lat="37.169620022177696" lon="-4.105219971388578">
        <ele>479.83999999999997</ele>
        <time>2025-05-10T11:49:41Z</time>
      </trkpt>
      <trkpt lat="37.169687999412417" lon="-4.104998018592596">
        <ele>479.83999999999997</ele>
        <time>2025-05-10T11:49:42Z</time>
      </trkpt>
      <trkpt lat="37.169759999960661" lon="-4.104775981977582">
        <ele>479.35000000000002</ele>
        <time>2025-05-10T11:49:43Z</time>
      </trkpt>
      <trkpt lat="37.169876005500555" lon="-4.104588981717825">
        <ele>478.87</ele>
        <time>2025-05-10T11:49:44Z</time>
      </trkpt>
      <trkpt lat="37.16999301686883" lon="-4.104398963972926">
        <ele>478.87</ele>
        <time>2025-05-10T11:49:45Z</time>
      </trkpt>
      <trkpt lat="37.170672034844756" lon="-4.103187024593353">
        <ele>480.80000000000001</ele>
        <time>2025-05-10T11:49:51Z</time>
      </trkpt>
      <trkpt lat="37.170717967674136" lon="-4.102933974936605">
        <ele>481.27999999999997</ele>
        <time>2025-05-10T11:49:52Z</time>
      </trkpt>
      <trkpt lat="37.171114012598991" lon="-4.101219959557056">
        <ele>485.12</ele>
        <time>2025-05-10T11:49:59Z</time>
      </trkpt>
      <trkpt lat="37.171926973387599" lon="-4.099701996892691">
        <ele>485.12</ele>
        <time>2025-05-10T11:50:06Z</time>
      </trkpt>
      <trkpt lat="37.17321895994246" lon="-4.097447013482451">
        <ele>483.68000000000001</ele>
        <time>2025-05-10T11:50:16Z</time>
      </trkpt>
      <trkpt lat="37.173465974628925" lon="-4.09699103794992">
        <ele>484.16000000000003</ele>
        <time>2025-05-10T11:50:18Z</time>
      </trkpt>
      <trkpt lat="37.173546021804214" lon="-4.096759026870132">
        <ele>484.63999999999999</ele>
        <time>2025-05-10T11:50:19Z</time>
      </trkpt>
      <trkpt lat="37.17360301874578" lon="-4.096531961113215">
        <ele>485.12</ele>
        <time>2025-05-10T11:50:20Z</time>
      </trkpt>
      <trkpt lat="37.173632020130754" lon="-4.096311014145613">
        <ele>486.07999999999998</ele>
        <time>2025-05-10T11:50:21Z</time>
      </trkpt>
      <trkpt lat="37.173658004030585" lon="-4.096055030822754">
        <ele>486.56</ele>
        <time>2025-05-10T11:50:22Z</time>
      </trkpt>
      <trkpt lat="37.17362598516047" lon="-4.095866018906236">
        <ele>487.52999999999997</ele>
        <time>2025-05-10T11:50:23Z</time>
      </trkpt>
      <trkpt lat="37.173564964905381" lon="-4.095654040575028">
        <ele>488.00999999999999</ele>
        <time>2025-05-10T11:50:24Z</time>
      </trkpt>
      <trkpt lat="37.173495981842279" lon="-4.095454970374703">
        <ele>488.49000000000001</ele>
        <time>2025-05-10T11:50:25Z</time>
      </trkpt>
      <trkpt lat="37.173227006569505" lon="-4.094465989619494">
        <ele>490.88999999999999</ele>
        <time>2025-05-10T11:50:30Z</time>
      </trkpt>
      <trkpt lat="37.173206973820925" lon="-4.094286030158401">
        <ele>490.88999999999999</ele>
        <time>2025-05-10T11:50:31Z</time>
      </trkpt>
      <trkpt lat="37.173206973820925" lon="-4.094102969393134">
        <ele>491.37</ele>
        <time>2025-05-10T11:50:32Z</time>
      </trkpt>
      <trkpt lat="37.173243016004562" lon="-4.093918986618519">
        <ele>491.37</ele>
        <time>2025-05-10T11:50:33Z</time>
      </trkpt>
      <trkpt lat="37.173307975754142" lon="-4.093743972480297">
        <ele>491.37</ele>
        <time>2025-05-10T11:50:34Z</time>
      </trkpt>
      <trkpt lat="37.173390034586191" lon="-4.093574993312359">
        <ele>490.88999999999999</ele>
        <time>2025-05-10T11:50:35Z</time>
      </trkpt>
      <trkpt lat="37.173514002934098" lon="-4.093434009701014">
        <ele>490.41000000000003</ele>
        <time>2025-05-10T11:50:36Z</time>
      </trkpt>
      <trkpt lat="37.173650963231921" lon="-4.093280034139752">
        <ele>489.93000000000001</ele>
        <time>2025-05-10T11:50:37Z</time>
      </trkpt>
      <trkpt lat="37.173833018168807" lon="-4.093165034428239">
        <ele>488.97000000000003</ele>
        <time>2025-05-10T11:50:38Z</time>
      </trkpt>
      <trkpt lat="37.174027981236577" lon="-4.093079958111048">
        <ele>487.52999999999997</ele>
        <time>2025-05-10T11:50:39Z</time>
      </trkpt>
      <trkpt lat="37.174226967617869" lon="-4.092993037775159">
        <ele>487.05000000000001</ele>
        <time>2025-05-10T11:50:40Z</time>
      </trkpt>
      <trkpt lat="37.17564501799643" lon="-4.092183010652661">
        <ele>482.72000000000003</ele>
        <time>2025-05-10T11:50:47Z</time>
      </trkpt>
      <trkpt lat="37.176158996298909" lon="-4.091638019308448">
        <ele>482.72000000000003</ele>
        <time>2025-05-10T11:50:50Z</time>
      </trkpt>
      <trkpt lat="37.178050959482789" lon="-4.089338025078178">
        <ele>482.72000000000003</ele>
        <time>2025-05-10T11:51:02Z</time>
      </trkpt>
      <trkpt lat="37.179714012891054" lon="-4.087689975276589">
        <ele>483.19999999999999</ele>
        <time>2025-05-10T11:51:12Z</time>
      </trkpt>
      <trkpt lat="37.18176900409162" lon="-4.085513027384877">
        <ele>483.68000000000001</ele>
        <time>2025-05-10T11:51:25Z</time>
      </trkpt>
      <trkpt lat="37.184149967506528" lon="-4.082860993221402">
        <ele>484.16000000000003</ele>
        <time>2025-05-10T11:51:40Z</time>
      </trkpt>
      <trkpt lat="37.184785986319184" lon="-4.082141993567348">
        <ele>484.63999999999999</ele>
        <time>2025-05-10T11:51:44Z</time>
      </trkpt>
      <trkpt lat="37.184897968545556" lon="-4.081924986094236">
        <ele>484.16000000000003</ele>
        <time>2025-05-10T11:51:45Z</time>
      </trkpt>
      <trkpt lat="37.185095027089119" lon="-4.081485019996762">
        <ele>484.16000000000003</ele>
        <time>2025-05-10T11:51:47Z</time>
      </trkpt>
      <trkpt lat="37.185226958245039" lon="-4.081315035000444">
        <ele>484.16000000000003</ele>
        <time>2025-05-10T11:51:48Z</time>
      </trkpt>
      <trkpt lat="37.186032962054014" lon="-4.080352960154414">
        <ele>487.05000000000001</ele>
        <time>2025-05-10T11:51:54Z</time>
      </trkpt>
      <trkpt lat="37.18617201782763" lon="-4.080270985141397">
        <ele>488.00999999999999</ele>
        <time>2025-05-10T11:51:55Z</time>
      </trkpt>
      <trkpt lat="37.186315013095737" lon="-4.080194039270282">
        <ele>489.44999999999999</ele>
        <time>2025-05-10T11:51:56Z</time>
      </trkpt>
      <trkpt lat="37.187510021030903" lon="-4.080119021236897">
        <ele>495.69999999999999</ele>
        <time>2025-05-10T11:52:03Z</time>
      </trkpt>
      <trkpt lat="37.188865039497614" lon="-4.080620007589459">
        <ele>502.43000000000001</ele>
        <time>2025-05-10T11:52:12Z</time>
      </trkpt>
      <trkpt lat="37.189221018925309" lon="-4.080638028681278">
        <ele>503.38999999999999</ele>
        <time>2025-05-10T11:52:14Z</time>
      </trkpt>
      <trkpt lat="37.189403995871544" lon="-4.080631993710995">
        <ele>503.87</ele>
        <time>2025-05-10T11:52:15Z</time>
      </trkpt>
      <trkpt lat="37.189592001959682" lon="-4.080605003982782">
        <ele>504.35000000000002</ele>
        <time>2025-05-10T11:52:16Z</time>
      </trkpt>
      <trkpt lat="37.189769027754664" lon="-4.080534009262919">
        <ele>504.82999999999998</ele>
        <time>2025-05-10T11:52:17Z</time>
      </trkpt>
      <trkpt lat="37.189939012750983" lon="-4.080442981794477">
        <ele>505.31</ele>
        <time>2025-05-10T11:52:18Z</time>
      </trkpt>
      <trkpt lat="37.19010598026216" lon="-4.080328987911344">
        <ele>505.31</ele>
        <time>2025-05-10T11:52:19Z</time>
      </trkpt>
      <trkpt lat="37.190273031592369" lon="-4.080211976543069">
        <ele>505.79000000000002</ele>
        <time>2025-05-10T11:52:20Z</time>
      </trkpt>
      <trkpt lat="37.19042600132525" lon="-4.080055989325047">
        <ele>506.26999999999998</ele>
        <time>2025-05-10T11:52:21Z</time>
      </trkpt>
      <trkpt lat="37.190580982714891" lon="-4.079897990450263">
        <ele>506.75</ele>
        <time>2025-05-10T11:52:22Z</time>
      </trkpt>
      <trkpt lat="37.191141983494163" lon="-4.079325003549457">
        <ele>508.67000000000002</ele>
        <time>2025-05-10T11:52:26Z</time>
      </trkpt>
      <trkpt lat="37.191275004297495" lon="-4.079188965260983">
        <ele>509.16000000000003</ele>
        <time>2025-05-10T11:52:27Z</time>
      </trkpt>
      <trkpt lat="37.191430991515517" lon="-4.079113025218248">
        <ele>509.16000000000003</ele>
        <time>2025-05-10T11:52:28Z</time>
      </trkpt>
      <trkpt lat="37.19240496866405" lon="-4.078633999451995">
        <ele>506.75</ele>
        <time>2025-05-10T11:52:34Z</time>
      </trkpt>
      <trkpt lat="37.192542012780905" lon="-4.078511958941817">
        <ele>506.26999999999998</ele>
        <time>2025-05-10T11:52:35Z</time>
      </trkpt>
      <trkpt lat="37.192668998613954" lon="-4.078369969502091">
        <ele>505.79000000000002</ele>
        <time>2025-05-10T11:52:36Z</time>
      </trkpt>
      <trkpt lat="37.193292025476694" lon="-4.077671002596617">
        <ele>502.43000000000001</ele>
        <time>2025-05-10T11:52:41Z</time>
      </trkpt>
      <trkpt lat="37.193430997431278" lon="-4.077566983178258">
        <ele>501.45999999999998</ele>
        <time>2025-05-10T11:52:42Z</time>
      </trkpt>
      <trkpt lat="37.19358597882092" lon="-4.077476039528847">
        <ele>500.5</ele>
        <time>2025-05-10T11:52:43Z</time>
      </trkpt>
      <trkpt lat="37.193757975474" lon="-4.077425999566913">
        <ele>499.54000000000002</ele>
        <time>2025-05-10T11:52:44Z</time>
      </trkpt>
      <trkpt lat="37.193937012925744" lon="-4.07737503759563">
        <ele>499.06</ele>
        <time>2025-05-10T11:52:45Z</time>
      </trkpt>
      <trkpt lat="37.194120995700359" lon="-4.077321980148554">
        <ele>498.57999999999998</ele>
        <time>2025-05-10T11:52:46Z</time>
      </trkpt>
      <trkpt lat="37.195599982514977" lon="-4.076901962980628">
        <ele>497.13999999999999</ele>
        <time>2025-05-10T11:52:54Z</time>
      </trkpt>
      <trkpt lat="37.195883961394429" lon="-4.076782017946243">
        <ele>496.66000000000003</ele>
        <time>2025-05-10T11:52:56Z</time>
      </trkpt>
      <trkpt lat="37.195999966934323" lon="-4.076674981042743">
        <ele>496.66000000000003</ele>
        <time>2025-05-10T11:52:57Z</time>
      </trkpt>
      <trkpt lat="37.196080014109612" lon="-4.076530979946256">
        <ele>496.66000000000003</ele>
        <time>2025-05-10T11:52:58Z</time>
      </trkpt>
      <trkpt lat="37.19616299495101" lon="-4.076382033526897">
        <ele>497.62</ele>
        <time>2025-05-10T11:52:59Z</time>
      </trkpt>
      <trkpt lat="37.196214040741324" lon="-4.076196039095521">
        <ele>498.10000000000002</ele>
        <time>2025-05-10T11:53:00Z</time>
      </trkpt>
      <trkpt lat="37.196252010762691" lon="-4.075990011915565">
        <ele>498.10000000000002</ele>
        <time>2025-05-10T11:53:01Z</time>
      </trkpt>
      <trkpt lat="37.196290986612439" lon="-4.075776021927595">
        <ele>498.57999999999998</ele>
        <time>2025-05-10T11:53:02Z</time>
      </trkpt>
      <trkpt lat="37.196696000173688" lon="-4.073570994660258">
        <ele>501.45999999999998</ele>
        <time>2025-05-10T11:53:11Z</time>
      </trkpt>
      <trkpt lat="37.197120962664485" lon="-4.072046997025609">
        <ele>501.45999999999998</ele>
        <time>2025-05-10T11:53:18Z</time>
      </trkpt>
      <trkpt lat="37.197201009839773" lon="-4.071842981502414">
        <ele>501.45999999999998</ele>
        <time>2025-05-10T11:53:19Z</time>
      </trkpt>
      <trkpt lat="37.197335036471486" lon="-4.071688000112772">
        <ele>500.98000000000002</ele>
        <time>2025-05-10T11:53:20Z</time>
      </trkpt>
      <trkpt lat="37.198640014976263" lon="-4.070184035226703">
        <ele>501.45999999999998</ele>
        <time>2025-05-10T11:53:29Z</time>
      </trkpt>
      <trkpt lat="37.199269998818636" lon="-4.069576011970639">
        <ele>501.94999999999999</ele>
        <time>2025-05-10T11:53:33Z</time>
      </trkpt>
      <trkpt lat="37.199935019016266" lon="-4.069163035601378">
        <ele>501.94999999999999</ele>
        <time>2025-05-10T11:53:37Z</time>
      </trkpt>
      <trkpt lat="37.200067033991218" lon="-4.069048035889864">
        <ele>501.94999999999999</ele>
        <time>2025-05-10T11:53:38Z</time>
      </trkpt>
      <trkpt lat="37.200162000954151" lon="-4.068902023136616">
        <ele>502.43000000000001</ele>
        <time>2025-05-10T11:53:39Z</time>
      </trkpt>
      <trkpt lat="37.200208017602563" lon="-4.068731032311916">
        <ele>502.43000000000001</ele>
        <time>2025-05-10T11:53:40Z</time>
      </trkpt>
      <trkpt lat="37.200218997895718" lon="-4.068561969324946">
        <ele>502.91000000000003</ele>
        <time>2025-05-10T11:53:41Z</time>
      </trkpt>
      <trkpt lat="37.200198965147138" lon="-4.068403970450163">
        <ele>503.38999999999999</ele>
        <time>2025-05-10T11:53:42Z</time>
      </trkpt>
      <trkpt lat="37.200169041752815" lon="-4.068232979625464">
        <ele>503.87</ele>
        <time>2025-05-10T11:53:43Z</time>
      </trkpt>
      <trkpt lat="37.200074996799231" lon="-4.068126026540995">
        <ele>504.35000000000002</ele>
        <time>2025-05-10T11:53:44Z</time>
      </trkpt>
      <trkpt lat="37.199980029836297" lon="-4.068016977980733">
        <ele>505.31</ele>
        <time>2025-05-10T11:53:45Z</time>
      </trkpt>
      <trkpt lat="37.19988196156919" lon="-4.067904995754361">
        <ele>506.26999999999998</ele>
        <time>2025-05-10T11:53:46Z</time>
      </trkpt>
      <trkpt lat="37.199415005743504" lon="-4.067339971661568">
        <ele>506.75</ele>
        <time>2025-05-10T11:53:51Z</time>
      </trkpt>
      <trkpt lat="37.199337976053357" lon="-4.067185996100307">
        <ele>506.26999999999998</ele>
        <time>2025-05-10T11:53:52Z</time>
      </trkpt>
      <trkpt lat="37.198678990826011" lon="-4.065680019557476">
        <ele>501.94999999999999</ele>
        <time>2025-05-10T11:54:00Z</time>
      </trkpt>
      <trkpt lat="37.198557034134865" lon="-4.065255979076028">
        <ele>501.45999999999998</ele>
        <time>2025-05-10T11:54:02Z</time>
      </trkpt>
      <trkpt lat="37.198141040280461" lon="-4.063354041427374">
        <ele>500.98000000000002</ele>
        <time>2025-05-10T11:54:11Z</time>
      </trkpt>
      <trkpt lat="37.198038026690483" lon="-4.062825981527567">
        <ele>500.5</ele>
        <time>2025-05-10T11:54:14Z</time>
      </trkpt>
      <trkpt lat="37.197829987853765" lon="-4.060696978121996">
        <ele>495.22000000000003</ele>
        <time>2025-05-10T11:54:26Z</time>
      </trkpt>
      <trkpt lat="37.197676012292504" lon="-4.059295020997524">
        <ele>491.85000000000002</ele>
        <time>2025-05-10T11:54:34Z</time>
      </trkpt>
      <trkpt lat="37.197629995644093" lon="-4.05913601629436">
        <ele>491.37</ele>
        <time>2025-05-10T11:54:35Z</time>
      </trkpt>
      <trkpt lat="37.1975829731673" lon="-4.059019004926086">
        <ele>491.37</ele>
        <time>2025-05-10T11:54:36Z</time>
      </trkpt>
      <trkpt lat="37.197491023689508" lon="-4.058895958587527">
        <ele>491.37</ele>
        <time>2025-05-10T11:54:37Z</time>
      </trkpt>
      <trkpt lat="37.197413993999362" lon="-4.058794034644961">
        <ele>491.37</ele>
        <time>2025-05-10T11:54:38Z</time>
      </trkpt>
      <trkpt lat="37.197342999279499" lon="-4.058698983862996">
        <ele>490.88999999999999</ele>
        <time>2025-05-10T11:54:39Z</time>
      </trkpt>
      <trkpt lat="37.197231017053127" lon="-4.058511983603239">
        <ele>490.88999999999999</ele>
        <time>2025-05-10T11:54:41Z</time>
      </trkpt>
      <trkpt lat="37.197192963212729" lon="-4.058413999155164">
        <ele>490.41000000000003</ele>
        <time>2025-05-10T11:54:42Z</time>
      </trkpt>
      <trkpt lat="37.197153987362981" lon="-4.058310985565186">
        <ele>489.93000000000001</ele>
        <time>2025-05-10T11:54:43Z</time>
      </trkpt>
      <trkpt lat="37.196995988488197" lon="-4.057083958759904">
        <ele>488.97000000000003</ele>
        <time>2025-05-10T11:54:54Z</time>
      </trkpt>
      <trkpt lat="37.196982996538281" lon="-4.056977005675435">
        <ele>488.97000000000003</ele>
        <time>2025-05-10T11:54:56Z</time>
      </trkpt>
      <trkpt lat="37.196976039558649" lon="-4.056929983198643">
        <ele>488.97000000000003</ele>
        <time>2025-05-10T11:54:57Z</time>
      </trkpt>
      <trkpt lat="37.196925999596715" lon="-4.056810960173607">
        <ele>488.97000000000003</ele>
        <time>2025-05-10T11:54:58Z</time>
      </trkpt>
      <trkpt lat="37.196866990998387" lon="-4.056813977658749">
        <ele>489.44999999999999</ele>
        <time>2025-05-10T11:54:59Z</time>
      </trkpt>
      <trkpt lat="37.196793984621763" lon="-4.056819006800652">
        <ele>489.44999999999999</ele>
        <time>2025-05-10T11:55:00Z</time>
      </trkpt>
      <trkpt lat="37.196711003780365" lon="-4.056824035942555">
        <ele>488.97000000000003</ele>
        <time>2025-05-10T11:55:01Z</time>
      </trkpt>
      <trkpt lat="37.196622993797064" lon="-4.056828981265426">
        <ele>488.97000000000003</ele>
        <time>2025-05-10T11:55:02Z</time>
      </trkpt>
      <trkpt lat="37.195673994719982" lon="-4.056714987382293">
        <ele>488.97000000000003</ele>
        <time>2025-05-10T11:55:11Z</time>
      </trkpt>
      <trkpt lat="37.194128958508372" lon="-4.055850980803371">
        <ele>488.97000000000003</ele>
        <time>2025-05-10T11:55:26Z</time>
      </trkpt>
      <trkpt lat="37.193570975214243" lon="-4.055500030517578">
        <ele>487.52999999999997</ele>
        <time>2025-05-10T11:55:34Z</time>
      </trkpt>
      <trkpt lat="37.192965969443321" lon="-4.055132986977696">
        <ele>486.07999999999998</ele>
        <time>2025-05-10T11:55:44Z</time>
      </trkpt>
      <trkpt lat="37.191999033093452" lon="-4.054520018398762">
        <ele>485.12</ele>
        <time>2025-05-10T11:55:56Z</time>
      </trkpt>
      <trkpt lat="37.191674988716841" lon="-4.054311979562044">
        <ele>484.16000000000003</ele>
        <time>2025-05-10T11:56:01Z</time>
      </trkpt>
      <trkpt lat="37.191613968461752" lon="-4.054273003712297">
        <ele>483.68000000000001</ele>
        <time>2025-05-10T11:56:02Z</time>
      </trkpt>
      <trkpt lat="37.191556971520185" lon="-4.054236961528659">
        <ele>483.68000000000001</ele>
        <time>2025-05-10T11:56:03Z</time>
      </trkpt>
      <trkpt lat="37.191507015377283" lon="-4.054204020649195">
        <ele>483.68000000000001</ele>
        <time>2025-05-10T11:56:04Z</time>
      </trkpt>
      <trkpt lat="37.191459992900491" lon="-4.054174013435841">
        <ele>483.19999999999999</ele>
        <time>2025-05-10T11:56:05Z</time>
      </trkpt>
      <trkpt lat="37.191421017050743" lon="-4.054149035364389">
        <ele>483.19999999999999</ele>
        <time>2025-05-10T11:56:06Z</time>
      </trkpt>
      <trkpt lat="37.191395033150911" lon="-4.054132020100951">
        <ele>482.72000000000003</ele>
        <time>2025-05-10T11:56:07Z</time>
      </trkpt>
      <trkpt lat="37.191395033150911" lon="-4.054132020100951">
        <ele>482.72000000000003</ele>
        <time>2025-05-10T11:56:16Z</time>
      </trkpt>
      <trkpt lat="37.191395033150911" lon="-4.054132020100951">
        <ele>482.72000000000003</ele>
        <time>2025-05-10T11:56:53Z</time>
      </trkpt>
      <trkpt lat="37.191395033150911" lon="-4.054132020100951">
        <ele>482.24000000000001</ele>
        <time>2025-05-10T11:57:40Z</time>
      </trkpt>
      <trkpt lat="37.191395033150911" lon="-4.054132020100951">
        <ele>482.24000000000001</ele>
        <time>2025-05-10T11:58:19Z</time>
      </trkpt>
      <trkpt lat="37.191395033150911" lon="-4.054132020100951">
        <ele>483.19999999999999</ele>
        <time>2025-05-10T11:58:56Z</time>
      </trkpt>
      <trkpt lat="37.191395033150911" lon="-4.054132020100951">
        <ele>483.68000000000001</ele>
        <time>2025-05-10T11:59:47Z</time>
      </trkpt>
      <trkpt lat="37.191395033150911" lon="-4.054132020100951">
        <ele>483.68000000000001</ele>
        <time>2025-05-10T12:00:35Z</time>
      </trkpt>
      <trkpt lat="37.191395033150911" lon="-4.054132020100951">
        <ele>484.16000000000003</ele>
        <time>2025-05-10T12:01:21Z</time>
      </trkpt>
      <trkpt lat="37.191395033150911" lon="-4.054132020100951">
        <ele>484.63999999999999</ele>
        <time>2025-05-10T12:02:19Z</time>
      </trkpt>
      <trkpt lat="37.191205015406013" lon="-4.054008973762393">
        <ele>485.60000000000002</ele>
        <time>2025-05-10T12:02:40Z</time>
      </trkpt>
      <trkpt lat="37.190265990793705" lon="-4.053418971598148">
        <ele>487.05000000000001</ele>
        <time>2025-05-10T12:02:52Z</time>
      </trkpt>
      <trkpt lat="37.190209999680519" lon="-4.053354011848569">
        <ele>487.52999999999997</ele>
        <time>2025-05-10T12:02:53Z</time>
      </trkpt>
      <trkpt lat="37.190134981647134" lon="-4.05326901935041">
        <ele>487.52999999999997</ele>
        <time>2025-05-10T12:02:54Z</time>
      </trkpt>
      <trkpt lat="37.190081002190709" lon="-4.053169023245573">
        <ele>487.52999999999997</ele>
        <time>2025-05-10T12:02:55Z</time>
      </trkpt>
      <trkpt lat="37.190036997199059" lon="-4.053073972463608">
        <ele>487.52999999999997</ele>
        <time>2025-05-10T12:02:56Z</time>
      </trkpt>
      <trkpt lat="37.190009001642466" lon="-4.05301102437079">
        <ele>487.52999999999997</ele>
        <time>2025-05-10T12:02:57Z</time>
      </trkpt>
      <trkpt lat="37.189983017742634" lon="-4.052895018830895">
        <ele>488.00999999999999</ele>
        <time>2025-05-10T12:02:58Z</time>
      </trkpt>
      <trkpt lat="37.189960973337293" lon="-4.052795022726059">
        <ele>488.00999999999999</ele>
        <time>2025-05-10T12:02:59Z</time>
      </trkpt>
      <trkpt lat="37.189937001094222" lon="-4.052686979994178">
        <ele>488.00999999999999</ele>
        <time>2025-05-10T12:03:00Z</time>
      </trkpt>
      <trkpt lat="37.189913028851151" lon="-4.052579021081328">
        <ele>488.49000000000001</ele>
        <time>2025-05-10T12:03:01Z</time>
      </trkpt>
      <trkpt lat="37.189880004152656" lon="-4.0524320024997">
        <ele>488.49000000000001</ele>
        <time>2025-05-10T12:03:02Z</time>
      </trkpt>
      <trkpt lat="37.189886039122939" lon="-4.052342986688018">
        <ele>488.49000000000001</ele>
        <time>2025-05-10T12:03:03Z</time>
      </trkpt>
      <trkpt lat="37.189895007759333" lon="-4.05221801251173">
        <ele>488.97000000000003</ele>
        <time>2025-05-10T12:03:04Z</time>
      </trkpt>
      <trkpt lat="37.189913028851151" lon="-4.052094966173172">
        <ele>488.97000000000003</ele>
        <time>2025-05-10T12:03:05Z</time>
      </trkpt>
      <trkpt lat="37.189948987215757" lon="-4.051976026967168">
        <ele>488.97000000000003</ele>
        <time>2025-05-10T12:03:06Z</time>
      </trkpt>
      <trkpt lat="37.189985029399395" lon="-4.051859015598893">
        <ele>488.97000000000003</ele>
        <time>2025-05-10T12:03:07Z</time>
      </trkpt>
      <trkpt lat="37.190041020512581" lon="-4.051756002008915">
        <ele>488.97000000000003</ele>
        <time>2025-05-10T12:03:08Z</time>
      </trkpt>
      <trkpt lat="37.190401023253798" lon="-4.05112199485302">
        <ele>488.49000000000001</ele>
        <time>2025-05-10T12:03:15Z</time>
      </trkpt>
      <trkpt lat="37.190394988283515" lon="-4.05099400319159">
        <ele>488.00999999999999</ele>
        <time>2025-05-10T12:03:16Z</time>
      </trkpt>
      <trkpt lat="37.190394988283515" lon="-4.050953015685082">
        <ele>488.00999999999999</ele>
        <time>2025-05-10T12:03:17Z</time>
      </trkpt>
      <trkpt lat="37.190394988283515" lon="-4.050868023186922">
        <ele>488.00999999999999</ele>
        <time>2025-05-10T12:03:18Z</time>
      </trkpt>
      <trkpt lat="37.190365986898541" lon="-4.050774984061718">
        <ele>488.00999999999999</ele>
        <time>2025-05-10T12:03:19Z</time>
      </trkpt>
      <trkpt lat="37.190299015492201" lon="-4.05071597546339">
        <ele>488.00999999999999</ele>
        <time>2025-05-10T12:03:20Z</time>
      </trkpt>
      <trkpt lat="37.190225003287196" lon="-4.05065000988543">
        <ele>488.00999999999999</ele>
        <time>2025-05-10T12:03:21Z</time>
      </trkpt>
      <trkpt lat="37.190145961940289" lon="-4.050580020993948">
        <ele>488.00999999999999</ele>
        <time>2025-05-10T12:03:22Z</time>
      </trkpt>
      <trkpt lat="37.189241973683238" lon="-4.049774017184973">
        <ele>490.88999999999999</ele>
        <time>2025-05-10T12:03:31Z</time>
      </trkpt>
      <trkpt lat="37.187758041545749" lon="-4.048474989831448">
        <ele>492.32999999999998</ele>
        <time>2025-05-10T12:03:41Z</time>
      </trkpt>
      <trkpt lat="37.186299003660679" lon="-4.047187026590109">
        <ele>490.41000000000003</ele>
        <time>2025-05-10T12:03:50Z</time>
      </trkpt>
      <trkpt lat="37.184461019933224" lon="-4.045575018972158">
        <ele>490.41000000000003</ele>
        <time>2025-05-10T12:04:03Z</time>
      </trkpt>
      <trkpt lat="37.183813014999032" lon="-4.045014018192887">
        <ele>492.32999999999998</ele>
        <time>2025-05-10T12:04:10Z</time>
      </trkpt>
      <trkpt lat="37.18374403193593" lon="-4.04495601542294">
        <ele>492.32999999999998</ele>
        <time>2025-05-10T12:04:11Z</time>
      </trkpt>
      <trkpt lat="37.183555020019412" lon="-4.044979987666011">
        <ele>492.32999999999998</ele>
        <time>2025-05-10T12:04:13Z</time>
      </trkpt>
      <trkpt lat="37.183456029742956" lon="-4.044923996552825">
        <ele>492.32999999999998</ele>
        <time>2025-05-10T12:04:14Z</time>
      </trkpt>
      <trkpt lat="37.183439014479518" lon="-4.044836992397904">
        <ele>492.81</ele>
        <time>2025-05-10T12:04:15Z</time>
      </trkpt>
      <trkpt lat="37.18342199921608" lon="-4.044753005728126">
        <ele>492.81</ele>
        <time>2025-05-10T12:04:16Z</time>
      </trkpt>
      <trkpt lat="37.183506991714239" lon="-4.044663989916444">
        <ele>492.81</ele>
        <time>2025-05-10T12:04:17Z</time>
      </trkpt>
      <trkpt lat="37.183506991714239" lon="-4.044663989916444">
        <ele>492.81</ele>
        <time>2025-05-10T12:04:18Z</time>
      </trkpt>
      <trkpt lat="37.183667002245784" lon="-4.04454798437655">
        <ele>492.32999999999998</ele>
        <time>2025-05-10T12:04:19Z</time>
      </trkpt>
      <trkpt lat="37.183719975873828" lon="-4.044431978836656">
        <ele>492.32999999999998</ele>
        <time>2025-05-10T12:04:20Z</time>
      </trkpt>
      <trkpt lat="37.18378895893693" lon="-4.044302981346846">
        <ele>492.32999999999998</ele>
        <time>2025-05-10T12:04:21Z</time>
      </trkpt>
      <trkpt lat="37.184530002996325" lon="-4.042887026444078">
        <ele>492.81</ele>
        <time>2025-05-10T12:04:31Z</time>
      </trkpt>
      <trkpt lat="37.185274986550212" lon="-4.041394963860512">
        <ele>494.25999999999999</ele>
        <time>2025-05-10T12:04:43Z</time>
      </trkpt>
      <trkpt lat="37.185843028128147" lon="-4.040333982557058">
        <ele>495.69999999999999</ele>
        <time>2025-05-10T12:04:54Z</time>
      </trkpt>
      <trkpt lat="37.185879992321134" lon="-4.040278997272253">
        <ele>495.69999999999999</ele>
        <time>2025-05-10T12:04:55Z</time>
      </trkpt>
      <trkpt lat="37.185876974835992" lon="-4.0401850361377">
        <ele>495.69999999999999</ele>
        <time>2025-05-10T12:04:56Z</time>
      </trkpt>
      <trkpt lat="37.185884015634656" lon="-4.040082022547722">
        <ele>495.22000000000003</ele>
        <time>2025-05-10T12:04:57Z</time>
      </trkpt>
      <trkpt lat="37.185917962342501" lon="-4.039999963715673">
        <ele>495.22000000000003</ele>
        <time>2025-05-10T12:04:58Z</time>
      </trkpt>
      <trkpt lat="37.185945035889745" lon="-4.039899967610836">
        <ele>494.74000000000001</ele>
        <time>2025-05-10T12:04:59Z</time>
      </trkpt>
      <trkpt lat="37.18638701364398" lon="-4.038651986047626">
        <ele>493.76999999999998</ele>
        <time>2025-05-10T12:05:10Z</time>
      </trkpt>
      <trkpt lat="37.186683984473348" lon="-4.037066968157888">
        <ele>493.29000000000002</ele>
        <time>2025-05-10T12:05:20Z</time>
      </trkpt>
      <trkpt lat="37.186850029975176" lon="-4.035383965820074">
        <ele>492.32999999999998</ele>
        <time>2025-05-10T12:05:29Z</time>
      </trkpt>
      <trkpt lat="37.186901997774839" lon="-4.035003008320928">
        <ele>492.32999999999998</ele>
        <time>2025-05-10T12:05:31Z</time>
      </trkpt>
      <trkpt lat="37.18694600276649" lon="-4.034817013889551">
        <ele>492.32999999999998</ele>
        <time>2025-05-10T12:05:32Z</time>
      </trkpt>
      <trkpt lat="37.187008028849959" lon="-4.034639988094568">
        <ele>492.32999999999998</ele>
        <time>2025-05-10T12:05:33Z</time>
      </trkpt>
      <trkpt lat="37.187624014914036" lon="-4.033638015389442">
        <ele>491.37</ele>
        <time>2025-05-10T12:05:40Z</time>
      </trkpt>
      <trkpt lat="37.187743037939072" lon="-4.03354799374938">
        <ele>490.88999999999999</ele>
        <time>2025-05-10T12:05:41Z</time>
      </trkpt>
      <trkpt lat="37.187866000458598" lon="-4.033455038443208">
        <ele>490.88999999999999</ele>
        <time>2025-05-10T12:05:42Z</time>
      </trkpt>
      <trkpt lat="37.187988040968776" lon="-4.033364010974765">
        <ele>490.88999999999999</ele>
        <time>2025-05-10T12:05:43Z</time>
      </trkpt>
      <trkpt lat="37.188649037852883" lon="-4.032927984371781">
        <ele>490.88999999999999</ele>
        <time>2025-05-10T12:05:49Z</time>
      </trkpt>
      <trkpt lat="37.18873000703752" lon="-4.03281700797379">
        <ele>490.88999999999999</ele>
        <time>2025-05-10T12:05:50Z</time>
      </trkpt>
      <trkpt lat="37.18881600536406" lon="-4.032698990777135">
        <ele>490.88999999999999</ele>
        <time>2025-05-10T12:05:51Z</time>
      </trkpt>
      <trkpt lat="37.189439032226801" lon="-4.03135503642261">
        <ele>496.66000000000003</ele>
        <time>2025-05-10T12:05:59Z</time>
      </trkpt>
      <trkpt lat="37.19021201133728" lon="-4.029188985005021">
        <ele>508.19</ele>
        <time>2025-05-10T12:06:09Z</time>
      </trkpt>
      <trkpt lat="37.190703023225069" lon="-4.027856010943651">
        <ele>515.39999999999998</ele>
        <time>2025-05-10T12:06:16Z</time>
      </trkpt>
      <trkpt lat="37.190687013790011" lon="-4.027669010683894">
        <ele>515.88</ele>
        <time>2025-05-10T12:06:17Z</time>
      </trkpt>
      <trkpt lat="37.190652983263135" lon="-4.027502965182066">
        <ele>516.85000000000002</ele>
        <time>2025-05-10T12:06:18Z</time>
      </trkpt>
      <trkpt lat="37.190604032948613" lon="-4.027346977964044">
        <ele>517.33000000000004</ele>
        <time>2025-05-10T12:06:19Z</time>
      </trkpt>
      <trkpt lat="37.190521974116564" lon="-4.027212029322982">
        <ele>518.28999999999996</ele>
        <time>2025-05-10T12:06:20Z</time>
      </trkpt>
      <trkpt lat="37.190444022417068" lon="-4.027084959670901">
        <ele>518.76999999999998</ele>
        <time>2025-05-10T12:06:21Z</time>
      </trkpt>
      <trkpt lat="37.190372021868825" lon="-4.026969959959388">
        <ele>519.25</ele>
        <time>2025-05-10T12:06:22Z</time>
      </trkpt>
      <trkpt lat="37.190130958333611" lon="-4.02662898413837">
        <ele>519.25</ele>
        <time>2025-05-10T12:06:27Z</time>
      </trkpt>
      <trkpt lat="37.190096005797386" lon="-4.026578022167087">
        <ele>519.25</ele>
        <time>2025-05-10T12:06:28Z</time>
      </trkpt>
      <trkpt lat="37.190078990533948" lon="-4.02645698748529">
        <ele>519.25</ele>
        <time>2025-05-10T12:06:29Z</time>
      </trkpt>
      <trkpt lat="37.190117966383696" lon="-4.026379035785794">
        <ele>519.25</ele>
        <time>2025-05-10T12:06:30Z</time>
      </trkpt>
      <trkpt lat="37.190164988860488" lon="-4.02628499083221">
        <ele>519.25</ele>
        <time>2025-05-10T12:06:31Z</time>
      </trkpt>
      <trkpt lat="37.190216034650803" lon="-4.026181977242231">
        <ele>518.76999999999998</ele>
        <time>2025-05-10T12:06:32Z</time>
      </trkpt>
      <trkpt lat="37.190284011885524" lon="-4.026096984744072">
        <ele>518.28999999999996</ele>
        <time>2025-05-10T12:06:33Z</time>
      </trkpt>
      <trkpt lat="37.190358024090528" lon="-4.026014003902674">
        <ele>517.80999999999995</ele>
        <time>2025-05-10T12:06:34Z</time>
      </trkpt>
      <trkpt lat="37.190453996881843" lon="-4.025956001132727">
        <ele>516.85000000000002</ele>
        <time>2025-05-10T12:06:35Z</time>
      </trkpt>
      <trkpt lat="37.190552987158298" lon="-4.025896992534399">
        <ele>516.37</ele>
        <time>2025-05-10T12:06:36Z</time>
      </trkpt>
      <trkpt lat="37.190660024061799" lon="-4.02583203278482">
        <ele>515.88</ele>
        <time>2025-05-10T12:06:37Z</time>
      </trkpt>
      <trkpt lat="37.191016003489494" lon="-4.025616031140089">
        <ele>512.51999999999998</ele>
        <time>2025-05-10T12:06:46Z</time>
      </trkpt>
      <trkpt lat="37.192066004499793" lon="-4.024731991812587">
        <ele>521.16999999999996</ele>
        <time>2025-05-10T12:06:54Z</time>
      </trkpt>
      <trkpt lat="37.193976994603872" lon="-4.022065037861466">
        <ele>526.46000000000004</ele>
        <time>2025-05-10T12:07:00Z</time>
      </trkpt>
      <trkpt lat="37.194836977869272" lon="-4.019708968698978">
        <ele>533.19000000000005</ele>
        <time>2025-05-10T12:07:07Z</time>
      </trkpt>
      <trkpt lat="37.195181977003813" lon="-4.017307972535491">
        <ele>535.59000000000003</ele>
        <time>2025-05-10T12:07:14Z</time>
      </trkpt>
      <trkpt lat="37.195348022505641" lon="-4.013764020055533">
        <ele>535.59000000000003</ele>
        <time>2025-05-10T12:07:24Z</time>
      </trkpt>
      <trkpt lat="37.195307034999132" lon="-4.010442020371556">
        <ele>526.94000000000005</ele>
        <time>2025-05-10T12:07:33Z</time>
      </trkpt>
      <trkpt lat="37.194730024784803" lon="-4.008375965058804">
        <ele>517.33000000000004</ele>
        <time>2025-05-10T12:07:39Z</time>
      </trkpt>
      <trkpt lat="37.193368971347809" lon="-4.005148010328412">
        <ele>507.23000000000002</ele>
        <time>2025-05-10T12:07:49Z</time>
      </trkpt>
      <trkpt lat="37.193002011626959" lon="-4.002984976395965">
        <ele>506.26999999999998</ele>
        <time>2025-05-10T12:07:55Z</time>
      </trkpt>
      <trkpt lat="37.192840995267034" lon="-3.99968896061182">
        <ele>515.88</ele>
        <time>2025-05-10T12:08:10Z</time>
      </trkpt>
      <trkpt lat="37.19313302077353" lon="-3.995263986289501">
        <ele>525.01999999999998</ele>
        <time>2025-05-10T12:08:16Z</time>
      </trkpt>
      <trkpt lat="37.193519007414579" lon="-3.992723012343049">
        <ele>547.13</ele>
        <time>2025-05-10T12:08:30Z</time>
      </trkpt>
      <trkpt lat="37.193602994084358" lon="-3.987195985391736">
        <ele>552.40999999999997</ele>
        <time>2025-05-10T12:08:38Z</time>
      </trkpt>
      <trkpt lat="37.192315030843019" lon="-3.978809975087643">
        <ele>562.99000000000001</ele>
        <time>2025-05-10T12:09:01Z</time>
      </trkpt>
      <trkpt lat="37.191688986495137" lon="-3.976754983887076">
        <ele>563.47000000000003</ele>
        <time>2025-05-10T12:09:07Z</time>
      </trkpt>
      <trkpt lat="37.190691959112883" lon="-3.97407797165215">
        <ele>565.38999999999999</ele>
        <time>2025-05-10T12:09:15Z</time>
      </trkpt>
      <trkpt lat="37.188933016732335" lon="-3.969348985701799">
        <ele>560.11000000000001</ele>
        <time>2025-05-10T12:09:29Z</time>
      </trkpt>
      <trkpt lat="37.187584033235908" lon="-3.965253001078963">
        <ele>563.47000000000003</ele>
        <time>2025-05-10T12:09:41Z</time>
      </trkpt>
      <trkpt lat="37.186565967276692" lon="-3.961780965328217">
        <ele>568.27999999999997</ele>
        <time>2025-05-10T12:09:51Z</time>
      </trkpt>
      <trkpt lat="37.185082035139203" lon="-3.958576982840896">
        <ele>572.60000000000002</ele>
        <time>2025-05-10T12:10:01Z</time>
      </trkpt>
      <trkpt lat="37.183768004179001" lon="-3.95525498315692">
        <ele>577.40999999999997</ele>
        <time>2025-05-10T12:10:11Z</time>
      </trkpt>
      <trkpt lat="37.181964972987771" lon="-3.949771039187908">
        <ele>586.05999999999995</ele>
        <time>2025-05-10T12:10:27Z</time>
      </trkpt>
      <trkpt lat="37.180164037272334" lon="-3.94427603110671">
        <ele>594.23000000000002</ele>
        <time>2025-05-10T12:10:43Z</time>
      </trkpt>
      <trkpt lat="37.179755000397563" lon="-3.942114003002644">
        <ele>597.12</ele>
        <time>2025-05-10T12:10:49Z</time>
      </trkpt>
      <trkpt lat="37.179893972352147" lon="-3.939877962693572">
        <ele>597.12</ele>
        <time>2025-05-10T12:10:55Z</time>
      </trkpt>
      <trkpt lat="37.180581036955118" lon="-3.934404999017716">
        <ele>600.96000000000004</ele>
        <time>2025-05-10T12:11:10Z</time>
      </trkpt>
      <trkpt lat="37.180682960897684" lon="-3.931423975154758">
        <ele>606.25</ele>
        <time>2025-05-10T12:11:18Z</time>
      </trkpt>
      <trkpt lat="37.180782034993172" lon="-3.926577977836132">
        <ele>601.91999999999996</ele>
        <time>2025-05-10T12:11:31Z</time>
      </trkpt>
      <trkpt lat="37.180567039176822" lon="-3.922495990991592">
        <ele>593.26999999999998</ele>
        <time>2025-05-10T12:11:42Z</time>
      </trkpt>
      <trkpt lat="37.179891038686037" lon="-3.917759964242578">
        <ele>585.10000000000002</ele>
        <time>2025-05-10T12:11:55Z</time>
      </trkpt>
      <trkpt lat="37.178940027952194" lon="-3.91155500896275">
        <ele>588.95000000000005</ele>
        <time>2025-05-10T12:12:12Z</time>
      </trkpt>
      <trkpt lat="37.178576001897454" lon="-3.907126011326909">
        <ele>594.71000000000004</ele>
        <time>2025-05-10T12:12:24Z</time>
      </trkpt>
      <trkpt lat="37.178550017997622" lon="-3.903007982298732">
        <ele>596.63999999999999</ele>
        <time>2025-05-10T12:12:35Z</time>
      </trkpt>
      <trkpt lat="37.179109007120132" lon="-3.900908986106515">
        <ele>592.30999999999995</ele>
        <time>2025-05-10T12:12:41Z</time>
      </trkpt>
      <trkpt lat="37.18060702085495" lon="-3.897730987519026">
        <ele>587.01999999999998</ele>
        <time>2025-05-10T12:12:51Z</time>
      </trkpt>
      <trkpt lat="37.181409001350403" lon="-3.895755959674716">
        <ele>587.98000000000002</ele>
        <time>2025-05-10T12:12:57Z</time>
      </trkpt>
      <trkpt lat="37.182206958532333" lon="-3.89297098852694">
        <ele>588.95000000000005</ele>
        <time>2025-05-10T12:13:05Z</time>
      </trkpt>
      <trkpt lat="37.183355027809739" lon="-3.890363965183497">
        <ele>587.5</ele>
        <time>2025-05-10T12:13:13Z</time>
      </trkpt>
      <trkpt lat="37.185563994571567" lon="-3.885515034198761">
        <ele>584.62</ele>
        <time>2025-05-10T12:13:28Z</time>
      </trkpt>
      <trkpt lat="37.187474984675646" lon="-3.881317963823676">
        <ele>581.25</ele>
        <time>2025-05-10T12:13:41Z</time>
      </trkpt>
      <trkpt lat="37.189823007211089" lon="-3.876129984855652">
        <ele>577.40999999999997</ele>
        <time>2025-05-10T12:13:57Z</time>
      </trkpt>
      <trkpt lat="37.191112982109189" lon="-3.873297991231084">
        <ele>563.95000000000005</ele>
        <time>2025-05-10T12:14:06Z</time>
      </trkpt>
      <trkpt lat="37.192178992554545" lon="-3.871569978073239">
        <ele>555.77999999999997</ele>
        <time>2025-05-10T12:14:13Z</time>
      </trkpt>
      <trkpt lat="37.194285029545426" lon="-3.868591971695423">
        <ele>544.24000000000001</ele>
        <time>2025-05-10T12:14:25Z</time>
      </trkpt>
      <trkpt lat="37.195084998384118" lon="-3.866915004327893">
        <ele>542.79999999999995</ele>
        <time>2025-05-10T12:14:31Z</time>
      </trkpt>
      <trkpt lat="37.195468973368406" lon="-3.865052964538336">
        <ele>540.39999999999998</ele>
        <time>2025-05-10T12:14:37Z</time>
      </trkpt>
      <trkpt lat="37.195410970598459" lon="-3.863152032718062">
        <ele>535.59000000000003</ele>
        <time>2025-05-10T12:14:43Z</time>
      </trkpt>
      <trkpt lat="37.194751985371113" lon="-3.860579039901495">
        <ele>536.07000000000005</ele>
        <time>2025-05-10T12:14:52Z</time>
      </trkpt>
      <trkpt lat="37.194214034825563" lon="-3.857960030436516">
        <ele>543.27999999999997</ele>
        <time>2025-05-10T12:15:01Z</time>
      </trkpt>
      <trkpt lat="37.194214034825563" lon="-3.855018988251686">
        <ele>552.40999999999997</ele>
        <time>2025-05-10T12:15:10Z</time>
      </trkpt>
      <trkpt lat="37.194112027063966" lon="-3.851848030462861">
        <ele>554.34000000000003</ele>
        <time>2025-05-10T12:15:20Z</time>
      </trkpt>
      <trkpt lat="37.193947993218899" lon="-3.84789202362299">
        <ele>545.69000000000005</ele>
        <time>2025-05-10T12:15:32Z</time>
      </trkpt>
      <trkpt lat="37.194192996248603" lon="-3.844829024747014">
        <ele>545.20000000000005</ele>
        <time>2025-05-10T12:15:41Z</time>
      </trkpt>
      <trkpt lat="37.194070033729076" lon="-3.842458035796881">
        <ele>551.92999999999995</ele>
        <time>2025-05-10T12:15:48Z</time>
      </trkpt>
      <trkpt lat="37.193447006866336" lon="-3.84063396602869">
        <ele>556.74000000000001</ele>
        <time>2025-05-10T12:15:54Z</time>
      </trkpt>
      <trkpt lat="37.192069021984935" lon="-3.838220983743668">
        <ele>560.59000000000003</ele>
        <time>2025-05-10T12:16:03Z</time>
      </trkpt>
      <trkpt lat="37.19032097607851" lon="-3.835435006767511">
        <ele>564.90999999999997</ele>
        <time>2025-05-10T12:16:14Z</time>
      </trkpt>
      <trkpt lat="37.189124962314963" lon="-3.832935020327568">
        <ele>570.67999999999995</ele>
        <time>2025-05-10T12:16:23Z</time>
      </trkpt>
      <trkpt lat="37.188876019790769" lon="-3.831110028550029">
        <ele>574.52999999999997</ele>
        <time>2025-05-10T12:16:29Z</time>
      </trkpt>
      <trkpt lat="37.189154969528317" lon="-3.82926500402391">
        <ele>575.97000000000003</ele>
        <time>2025-05-10T12:16:35Z</time>
      </trkpt>
      <trkpt lat="37.190030040219426" lon="-3.827233985066414">
        <ele>573.08000000000004</ele>
        <time>2025-05-10T12:16:42Z</time>
      </trkpt>
      <trkpt lat="37.191376006230712" lon="-3.824579017236829">
        <ele>563.95000000000005</ele>
        <time>2025-05-10T12:16:52Z</time>
      </trkpt>
      <trkpt lat="37.192829009145498" lon="-3.821756998077035">
        <ele>552.40999999999997</ele>
        <time>2025-05-10T12:17:03Z</time>
      </trkpt>
      <trkpt lat="37.194515028968453" lon="-3.818236012011766">
        <ele>548.57000000000005</ele>
        <time>2025-05-10T12:17:15Z</time>
      </trkpt>
      <trkpt lat="37.195078963413835" lon="-3.815856976434588">
        <ele>548.09000000000003</ele>
        <time>2025-05-10T12:17:22Z</time>
      </trkpt>
      <trkpt lat="37.195121962577105" lon="-3.813395965844393">
        <ele>550.49000000000001</ele>
        <time>2025-05-10T12:17:29Z</time>
      </trkpt>
      <trkpt lat="37.194901015609503" lon="-3.809354966506362">
        <ele>550.97000000000003</ele>
        <time>2025-05-10T12:17:40Z</time>
      </trkpt>
      <trkpt lat="37.194502959027886" lon="-3.80462103523314">
        <ele>554.34000000000003</ele>
        <time>2025-05-10T12:17:52Z</time>
      </trkpt>
      <trkpt lat="37.194298021495342" lon="-3.801981993019581">
        <ele>555.29999999999995</ele>
        <time>2025-05-10T12:17:59Z</time>
      </trkpt>
      <trkpt lat="37.193909017369151" lon="-3.79933699965477">
        <ele>557.22000000000003</ele>
        <time>2025-05-10T12:18:07Z</time>
      </trkpt>
      <trkpt lat="37.193204015493393" lon="-3.795090978965163">
        <ele>559.13999999999999</ele>
        <time>2025-05-10T12:18:19Z</time>
      </trkpt>
      <trkpt lat="37.192418966442347" lon="-3.79042100161314">
        <ele>562.02999999999997</ele>
        <time>2025-05-10T12:18:32Z</time>
      </trkpt>
      <trkpt lat="37.191536016762257" lon="-3.785498980432749">
        <ele>564.42999999999995</ele>
        <time>2025-05-10T12:18:46Z</time>
      </trkpt>
      <trkpt lat="37.190950037911534" lon="-3.783099995926023">
        <ele>567.32000000000005</ele>
        <time>2025-05-10T12:18:53Z</time>
      </trkpt>
      <trkpt lat="37.190721966326237" lon="-3.781042993068695">
        <ele>570.20000000000005</ele>
        <time>2025-05-10T12:18:59Z</time>
      </trkpt>
      <trkpt lat="37.190760020166636" lon="-3.778121983632445">
        <ele>571.15999999999997</ele>
        <time>2025-05-10T12:19:08Z</time>
      </trkpt>
      <trkpt lat="37.190486015751958" lon="-3.775567011907697">
        <ele>572.12</ele>
        <time>2025-05-10T12:19:14Z</time>
      </trkpt>
      <trkpt lat="37.190522979944944" lon="-3.773538004606962">
        <ele>572.60000000000002</ele>
        <time>2025-05-10T12:19:19Z</time>
      </trkpt>
      <trkpt lat="37.190625993534923" lon="-3.770533008500934">
        <ele>575.00999999999999</ele>
        <time>2025-05-10T12:19:27Z</time>
      </trkpt>
      <trkpt lat="37.190539995208383" lon="-3.767961021512747">
        <ele>576.45000000000005</ele>
        <time>2025-05-10T12:19:35Z</time>
      </trkpt>
      <trkpt lat="37.19074702821672" lon="-3.765568993985653">
        <ele>575.49000000000001</ele>
        <time>2025-05-10T12:19:43Z</time>
      </trkpt>
      <trkpt lat="37.191167967393994" lon="-3.762620994821191">
        <ele>574.52999999999997</ele>
        <time>2025-05-10T12:19:53Z</time>
      </trkpt>
      <trkpt lat="37.191486982628703" lon="-3.759305030107498">
        <ele>574.52999999999997</ele>
        <time>2025-05-10T12:20:04Z</time>
      </trkpt>
      <trkpt lat="37.191816978156567" lon="-3.755697961896658">
        <ele>575.49000000000001</ele>
        <time>2025-05-10T12:20:16Z</time>
      </trkpt>
      <trkpt lat="37.191700972616673" lon="-3.752845013514161">
        <ele>574.52999999999997</ele>
        <time>2025-05-10T12:20:25Z</time>
      </trkpt>
      <trkpt lat="37.191452030092478" lon="-3.750256011262536">
        <ele>574.52999999999997</ele>
        <time>2025-05-10T12:20:34Z</time>
      </trkpt>
      <trkpt lat="37.191030001267791" lon="-3.746863016858697">
        <ele>575.00999999999999</ele>
        <time>2025-05-10T12:20:46Z</time>
      </trkpt>
      <trkpt lat="37.190767982974648" lon="-3.744167983531952">
        <ele>575.00999999999999</ele>
        <time>2025-05-10T12:20:56Z</time>
      </trkpt>
      <trkpt lat="37.190523985773325" lon="-3.741943007335067">
        <ele>575.49000000000001</ele>
        <time>2025-05-10T12:21:05Z</time>
      </trkpt>
      <trkpt lat="37.190694976598024" lon="-3.739355010911822">
        <ele>577.40999999999997</ele>
        <time>2025-05-10T12:21:15Z</time>
      </trkpt>
      <trkpt lat="37.190544018521905" lon="-3.737755995243788">
        <ele>578.85000000000002</ele>
        <time>2025-05-10T12:21:21Z</time>
      </trkpt>
      <trkpt lat="37.190058035776019" lon="-3.735433034598827">
        <ele>581.25</ele>
        <time>2025-05-10T12:21:30Z</time>
      </trkpt>
      <trkpt lat="37.19008200801909" lon="-3.732906980440021">
        <ele>581.25</ele>
        <time>2025-05-10T12:21:40Z</time>
      </trkpt>
      <trkpt lat="37.190485009923577" lon="-3.730297023430467">
        <ele>582.22000000000003</ele>
        <time>2025-05-10T12:21:50Z</time>
      </trkpt>
      <trkpt lat="37.191290007904172" lon="-3.727349024266005">
        <ele>583.65999999999997</ele>
        <time>2025-05-10T12:22:01Z</time>
      </trkpt>
      <trkpt lat="37.192265996709466" lon="-3.723698034882546">
        <ele>588.95000000000005</ele>
        <time>2025-05-10T12:22:16Z</time>
      </trkpt>
      <trkpt lat="37.192541006952524" lon="-3.721120012924075">
        <ele>587.5</ele>
        <time>2025-05-10T12:22:26Z</time>
      </trkpt>
      <trkpt lat="37.192541006952524" lon="-3.717963974922895">
        <ele>585.10000000000002</ele>
        <time>2025-05-10T12:22:38Z</time>
      </trkpt>
      <trkpt lat="37.19249096699059" lon="-3.715084958821535">
        <ele>586.05999999999995</ele>
        <time>2025-05-10T12:22:49Z</time>
      </trkpt>
      <trkpt lat="37.192435981705785" lon="-3.711911989375949">
        <ele>588.46000000000004</ele>
        <time>2025-05-10T12:23:01Z</time>
      </trkpt>
      <trkpt lat="37.192389965057373" lon="-3.708775984123349">
        <ele>587.01999999999998</ele>
        <time>2025-05-10T12:23:13Z</time>
      </trkpt>
      <trkpt lat="37.192520974203944" lon="-3.70660699903965">
        <ele>589.90999999999997</ele>
        <time>2025-05-10T12:23:21Z</time>
      </trkpt>
      <trkpt lat="37.192836971953511" lon="-3.703584987670183">
        <ele>594.71000000000004</ele>
        <time>2025-05-10T12:23:32Z</time>
      </trkpt>
      <trkpt lat="37.193040987476707" lon="-3.700391985476017">
        <ele>596.63999999999999</ele>
        <time>2025-05-10T12:23:44Z</time>
      </trkpt>
      <trkpt lat="37.193003017455339" lon="-3.697987971827388">
        <ele>597.60000000000002</ele>
        <time>2025-05-10T12:23:53Z</time>
      </trkpt>
      <trkpt lat="37.192761031910777" lon="-3.694899994879961">
        <ele>599.03999999999996</ele>
        <time>2025-05-10T12:24:05Z</time>
      </trkpt>
      <trkpt lat="37.192556010559201" lon="-3.692207979038358">
        <ele>602.88</ele>
        <time>2025-05-10T12:24:15Z</time>
      </trkpt>
      <trkpt lat="37.192455008625984" lon="-3.689071973785758">
        <ele>604.33000000000004</ele>
        <time>2025-05-10T12:24:26Z</time>
      </trkpt>
      <trkpt lat="37.192455008625984" lon="-3.688783971592784">
        <ele>605.28999999999996</ele>
        <time>2025-05-10T12:24:27Z</time>
      </trkpt>
      <trkpt lat="37.192432964220643" lon="-3.686570981517434">
        <ele>608.64999999999998</ele>
        <time>2025-05-10T12:24:34Z</time>
      </trkpt>
      <trkpt lat="37.192389965057373" lon="-3.68338099680841">
        <ele>612.5</ele>
        <time>2025-05-10T12:24:44Z</time>
      </trkpt>
      <trkpt lat="37.192389965057373" lon="-3.681332040578127">
        <ele>618.25999999999999</ele>
        <time>2025-05-10T12:24:52Z</time>
      </trkpt>
      <trkpt lat="37.192369010299444" lon="-3.678599037230015">
        <ele>615.86000000000001</ele>
        <time>2025-05-10T12:25:02Z</time>
      </trkpt>
      <trkpt lat="37.192343026399612" lon="-3.675142005085945">
        <ele>612.5</ele>
        <time>2025-05-10T12:25:13Z</time>
      </trkpt>
      <trkpt lat="37.192298015579581" lon="-3.670604964718223">
        <ele>613.46000000000004</ele>
        <time>2025-05-10T12:25:27Z</time>
      </trkpt>
      <trkpt lat="37.192126018926501" lon="-3.667795015498996">
        <ele>613.94000000000005</ele>
        <time>2025-05-10T12:25:36Z</time>
      </trkpt>
      <trkpt lat="37.191750006750226" lon="-3.665615972131491">
        <ele>616.82000000000005</ele>
        <time>2025-05-10T12:25:44Z</time>
      </trkpt>
      <trkpt lat="37.191488994285464" lon="-3.663023030385375">
        <ele>619.71000000000004</ele>
        <time>2025-05-10T12:25:54Z</time>
      </trkpt>
      <trkpt lat="37.191609023138881" lon="-3.660248033702374">
        <ele>620.19000000000005</ele>
        <time>2025-05-10T12:26:04Z</time>
      </trkpt>
      <trkpt lat="37.191788982599974" lon="-3.657378992065787">
        <ele>623.07000000000005</ele>
        <time>2025-05-10T12:26:14Z</time>
      </trkpt>
      <trkpt lat="37.192433970049024" lon="-3.654839023947716">
        <ele>624.99000000000001</ele>
        <time>2025-05-10T12:26:23Z</time>
      </trkpt>
      <trkpt lat="37.193328989669681" lon="-3.653120985254645">
        <ele>626.91999999999996</ele>
        <time>2025-05-10T12:26:30Z</time>
      </trkpt>
      <trkpt lat="37.194642014801502" lon="-3.651342010125518">
        <ele>632.20000000000005</ele>
        <time>2025-05-10T12:26:39Z</time>
      </trkpt>
      <trkpt lat="37.196386959403753" lon="-3.649077974259853">
        <ele>640.38</ele>
        <time>2025-05-10T12:26:50Z</time>
      </trkpt>
      <trkpt lat="37.197269992902875" lon="-3.647821024060249">
        <ele>643.74000000000001</ele>
        <time>2025-05-10T12:26:57Z</time>
      </trkpt>
      <trkpt lat="37.197857983410358" lon="-3.646414959803224">
        <ele>641.34000000000003</ele>
        <time>2025-05-10T12:27:04Z</time>
      </trkpt>
      <trkpt lat="37.198169035837054" lon="-3.644846035167575">
        <ele>640.86000000000001</ele>
        <time>2025-05-10T12:27:11Z</time>
      </trkpt>
      <trkpt lat="37.198153026401997" lon="-3.643233021721244">
        <ele>642.29999999999995</ele>
        <time>2025-05-10T12:27:20Z</time>
      </trkpt>
      <trkpt lat="37.19796996563673" lon="-3.641408029943705">
        <ele>644.22000000000003</ele>
        <time>2025-05-10T12:27:29Z</time>
      </trkpt>
      <trkpt lat="37.197862006723881" lon="-3.640462970361114">
        <ele>645.65999999999997</ele>
        <time>2025-05-10T12:27:35Z</time>
      </trkpt>
      <trkpt lat="37.197876004502177" lon="-3.639031006023288">
        <ele>648.07000000000005</ele>
        <time>2025-05-10T12:27:44Z</time>
      </trkpt>
      <trkpt lat="37.197887990623713" lon="-3.637070981785655">
        <ele>651.90999999999997</ele>
        <time>2025-05-10T12:27:55Z</time>
      </trkpt>
      <trkpt lat="37.197547014802694" lon="-3.635730966925621">
        <ele>653.83000000000004</ele>
        <time>2025-05-10T12:28:03Z</time>
      </trkpt>
      <trkpt lat="37.196968998759985" lon="-3.633843027055264">
        <ele>654.79999999999995</ele>
        <time>2025-05-10T12:28:16Z</time>
      </trkpt>
      <trkpt lat="37.196674961596727" lon="-3.633173983544111">
        <ele>656.72000000000003</ele>
        <time>2025-05-10T12:28:22Z</time>
      </trkpt>
      <trkpt lat="37.196634979918599" lon="-3.633064012974501">
        <ele>656.72000000000003</ele>
        <time>2025-05-10T12:28:23Z</time>
      </trkpt>
      <trkpt lat="37.196395006030798" lon="-3.632469987496734">
        <ele>658.63999999999999</ele>
        <time>2025-05-10T12:28:29Z</time>
      </trkpt>
      <trkpt lat="37.196230972185731" lon="-3.63226898945868">
        <ele>660.08000000000004</ele>
        <time>2025-05-10T12:28:32Z</time>
      </trkpt>
      <trkpt lat="37.196167018264532" lon="-3.63226898945868">
        <ele>660.55999999999995</ele>
        <time>2025-05-10T12:28:33Z</time>
      </trkpt>
      <trkpt lat="37.196042966097593" lon="-3.632282987236977">
        <ele>661.03999999999996</ele>
        <time>2025-05-10T12:28:34Z</time>
      </trkpt>
      <trkpt lat="37.195959985256195" lon="-3.632292961701751">
        <ele>661.51999999999998</ele>
        <time>2025-05-10T12:28:35Z</time>
      </trkpt>
      <trkpt lat="37.195865018293262" lon="-3.632303019985557">
        <ele>661.51999999999998</ele>
        <time>2025-05-10T12:28:36Z</time>
      </trkpt>
      <trkpt lat="37.195758987218142" lon="-3.632315006107092">
        <ele>662.00999999999999</ele>
        <time>2025-05-10T12:28:37Z</time>
      </trkpt>
      <trkpt lat="37.194666992872953" lon="-3.632471999153495">
        <ele>664.88999999999999</ele>
        <time>2025-05-10T12:28:45Z</time>
      </trkpt>
      <trkpt lat="37.192877037450671" lon="-3.632864020764828">
        <ele>662.00999999999999</ele>
        <time>2025-05-10T12:28:56Z</time>
      </trkpt>
      <trkpt lat="37.191363014280796" lon="-3.633290994912386">
        <ele>659.12</ele>
        <time>2025-05-10T12:29:05Z</time>
      </trkpt>
      <trkpt lat="37.189830970019102" lon="-3.633501967415214">
        <ele>659.12</ele>
        <time>2025-05-10T12:29:12Z</time>
      </trkpt>
      <trkpt lat="37.188136987388134" lon="-3.633123021572828">
        <ele>655.27999999999997</ele>
        <time>2025-05-10T12:29:20Z</time>
      </trkpt>
      <trkpt lat="37.186637967824936" lon="-3.632168993353844">
        <ele>654.30999999999995</ele>
        <time>2025-05-10T12:29:28Z</time>
      </trkpt>
      <trkpt lat="37.185494005680084" lon="-3.630667040124536">
        <ele>652.87</ele>
        <time>2025-05-10T12:29:36Z</time>
      </trkpt>
      <trkpt lat="37.184441993013024" lon="-3.628532001748681">
        <ele>654.79999999999995</ele>
        <time>2025-05-10T12:29:46Z</time>
      </trkpt>
      <trkpt lat="37.183587038889527" lon="-3.626735005527735">
        <ele>656.72000000000003</ele>
        <time>2025-05-10T12:29:55Z</time>
      </trkpt>
      <trkpt lat="37.182565033435822" lon="-3.624515980482101">
        <ele>657.20000000000005</ele>
        <time>2025-05-10T12:30:07Z</time>
      </trkpt>
      <trkpt lat="37.181524001061916" lon="-3.622301984578371">
        <ele>659.12</ele>
        <time>2025-05-10T12:30:18Z</time>
      </trkpt>
      <trkpt lat="37.18045799061656" lon="-3.619973994791508">
        <ele>662.49000000000001</ele>
        <time>2025-05-10T12:30:30Z</time>
      </trkpt>
      <trkpt lat="37.179267005994916" lon="-3.617828981950879">
        <ele>662.97000000000003</ele>
        <time>2025-05-10T12:30:41Z</time>
      </trkpt>
      <trkpt lat="37.178277019411325" lon="-3.616341026499867">
        <ele>661.03999999999996</ele>
        <time>2025-05-10T12:30:51Z</time>
      </trkpt>
      <trkpt lat="37.177625996991992" lon="-3.615550026297569">
        <ele>660.08000000000004</ele>
        <time>2025-05-10T12:30:58Z</time>
      </trkpt>
      <trkpt lat="37.176839020103216" lon="-3.614687025547028">
        <ele>659.12</ele>
        <time>2025-05-10T12:31:06Z</time>
      </trkpt>
      <trkpt lat="37.176659982651472" lon="-3.614490972831845">
        <ele>658.15999999999997</ele>
        <time>2025-05-10T12:31:09Z</time>
      </trkpt>
      <trkpt lat="37.176604997366667" lon="-3.614430958405137">
        <ele>656.72000000000003</ele>
        <time>2025-05-10T12:31:15Z</time>
      </trkpt>
      <trkpt lat="37.176425959914923" lon="-3.614459037780762">
        <ele>655.27999999999997</ele>
        <time>2025-05-10T12:31:28Z</time>
      </trkpt>
      <trkpt lat="37.176362005993724" lon="-3.614502036944032">
        <ele>654.79999999999995</ele>
        <time>2025-05-10T12:31:29Z</time>
      </trkpt>
      <trkpt lat="37.176330992951989" lon="-3.61449901945889">
        <ele>653.83000000000004</ele>
        <time>2025-05-10T12:31:30Z</time>
      </trkpt>
      <trkpt lat="37.17624600045383" lon="-3.614488961175084">
        <ele>653.35000000000002</ele>
        <time>2025-05-10T12:31:31Z</time>
      </trkpt>
      <trkpt lat="37.176135024055839" lon="-3.614439005032182">
        <ele>652.87</ele>
        <time>2025-05-10T12:31:32Z</time>
      </trkpt>
      <trkpt lat="37.176072997972369" lon="-3.61432702280581">
        <ele>652.38999999999999</ele>
        <time>2025-05-10T12:31:33Z</time>
      </trkpt>
      <trkpt lat="37.17605497688055" lon="-3.614230966195464">
        <ele>651.90999999999997</ele>
        <time>2025-05-10T12:31:34Z</time>
      </trkpt>
      <trkpt lat="37.176049025729299" lon="-3.614098029211164">
        <ele>651.42999999999995</ele>
        <time>2025-05-10T12:31:35Z</time>
      </trkpt>
      <trkpt lat="37.176124965772033" lon="-3.613966014236212">
        <ele>651.42999999999995</ele>
        <time>2025-05-10T12:31:36Z</time>
      </trkpt>
      <trkpt lat="37.176148016005754" lon="-3.613912034779787">
        <ele>650.95000000000005</ele>
        <time>2025-05-10T12:31:37Z</time>
      </trkpt>
      <trkpt lat="37.176190009340644" lon="-3.613814972341061">
        <ele>650.95000000000005</ele>
        <time>2025-05-10T12:31:38Z</time>
      </trkpt>
      <trkpt lat="37.176254969090223" lon="-3.613711036741734">
        <ele>650.95000000000005</ele>
        <time>2025-05-10T12:31:39Z</time>
      </trkpt>
      <trkpt lat="37.176326969638467" lon="-3.61359897069633">
        <ele>650.47000000000003</ele>
        <time>2025-05-10T12:31:40Z</time>
      </trkpt>
      <trkpt lat="37.176538025960326" lon="-3.613324966281653">
        <ele>650.95000000000005</ele>
        <time>2025-05-10T12:31:43Z</time>
      </trkpt>
      <trkpt lat="37.176603991538286" lon="-3.613267969340086">
        <ele>651.42999999999995</ele>
        <time>2025-05-10T12:31:44Z</time>
      </trkpt>
      <trkpt lat="37.176640033721924" lon="-3.613236034289002">
        <ele>651.90999999999997</ele>
        <time>2025-05-10T12:31:45Z</time>
      </trkpt>
      <trkpt lat="37.176674986258149" lon="-3.613240979611874">
        <ele>651.90999999999997</ele>
        <time>2025-05-10T12:31:46Z</time>
      </trkpt>
      <trkpt lat="37.17671999707818" lon="-3.613247014582157">
        <ele>652.38999999999999</ele>
        <time>2025-05-10T12:31:47Z</time>
      </trkpt>
      <trkpt lat="37.176839020103216" lon="-3.613123968243599">
        <ele>652.87</ele>
        <time>2025-05-10T12:31:49Z</time>
      </trkpt>
      <trkpt lat="37.176857963204384" lon="-3.613072000443935">
        <ele>653.35000000000002</ele>
        <time>2025-05-10T12:31:50Z</time>
      </trkpt>
      <trkpt lat="37.176876990124583" lon="-3.613021038472652">
        <ele>653.35000000000002</ele>
        <time>2025-05-10T12:31:51Z</time>
      </trkpt>
      <trkpt lat="37.176925018429756" lon="-3.612964963540435">
        <ele>653.83000000000004</ele>
        <time>2025-05-10T12:31:52Z</time>
      </trkpt>
      <trkpt lat="37.176947984844446" lon="-3.612905032932758">
        <ele>654.30999999999995</ele>
        <time>2025-05-10T12:31:53Z</time>
      </trkpt>
      <trkpt lat="37.177067007869482" lon="-3.612602027133107">
        <ele>656.24000000000001</ele>
        <time>2025-05-10T12:31:57Z</time>
      </trkpt>
      <trkpt lat="37.177101960405707" lon="-3.612510999664664">
        <ele>656.72000000000003</ele>
        <time>2025-05-10T12:31:58Z</time>
      </trkpt>
      <trkpt lat="37.177208997309208" lon="-3.612238001078367">
        <ele>656.72000000000003</ele>
        <time>2025-05-10T12:32:02Z</time>
      </trkpt>
      <trkpt lat="37.177224000915885" lon="-3.612200031057">
        <ele>656.72000000000003</ele>
        <time>2025-05-10T12:32:03Z</time>
      </trkpt>
      <trkpt lat="37.177232969552279" lon="-3.612177986651659">
        <ele>657.20000000000005</ele>
        <time>2025-05-10T12:32:12Z</time>
      </trkpt>
      <trkpt lat="37.177285021170974" lon="-3.612044965848327">
        <ele>657.67999999999995</ele>
        <time>2025-05-10T12:32:40Z</time>
      </trkpt>
      <trkpt lat="37.177616022527218" lon="-3.611244997009635">
        <ele>651.90999999999997</ele>
        <time>2025-05-10T12:32:52Z</time>
      </trkpt>
      <trkpt lat="37.17764301225543" lon="-3.611171990633011">
        <ele>651.90999999999997</ele>
        <time>2025-05-10T12:32:53Z</time>
      </trkpt>
      <trkpt lat="37.177672013640404" lon="-3.61108498647809">
        <ele>651.42999999999995</ele>
        <time>2025-05-10T12:32:54Z</time>
      </trkpt>
      <trkpt lat="37.177984993904829" lon="-3.610280994325876">
        <ele>649.50999999999999</ele>
        <time>2025-05-10T12:33:01Z</time>
      </trkpt>
      <trkpt lat="37.178357988595963" lon="-3.609414976090193">
        <ele>651.90999999999997</ele>
        <time>2025-05-10T12:33:09Z</time>
      </trkpt>
      <trkpt lat="37.178424960002303" lon="-3.609325960278511">
        <ele>651.90999999999997</ele>
        <time>2025-05-10T12:33:10Z</time>
      </trkpt>
      <trkpt lat="37.17876099050045" lon="-3.608885994181037">
        <ele>652.87</ele>
        <time>2025-05-10T12:33:17Z</time>
      </trkpt>
      <trkpt lat="37.17876099050045" lon="-3.608885994181037">
        <ele>652.87</ele>
        <time>2025-05-10T12:33:28Z</time>
      </trkpt>
      <trkpt lat="37.178778005763888" lon="-3.608862021937966">
        <ele>652.38999999999999</ele>
        <time>2025-05-10T12:33:48Z</time>
      </trkpt>
      <trkpt lat="37.179129039868712" lon="-3.608436975628138">
        <ele>648.54999999999995</ele>
        <time>2025-05-10T12:33:55Z</time>
      </trkpt>
      <trkpt lat="37.179805040359497" lon="-3.60758101567626">
        <ele>645.65999999999997</ele>
        <time>2025-05-10T12:34:05Z</time>
      </trkpt>
      <trkpt lat="37.180434018373489" lon="-3.60680602490902">
        <ele>649.99000000000001</ele>
        <time>2025-05-10T12:34:13Z</time>
      </trkpt>
      <trkpt lat="37.180719003081322" lon="-3.606463959440589">
        <ele>651.42999999999995</ele>
        <time>2025-05-10T12:34:16Z</time>
      </trkpt>
      <trkpt lat="37.180834002792835" lon="-3.60640000551939">
        <ele>652.38999999999999</ele>
        <time>2025-05-10T12:34:17Z</time>
      </trkpt>
      <trkpt lat="37.180947996675968" lon="-3.60633596777916">
        <ele>653.35000000000002</ele>
        <time>2025-05-10T12:34:18Z</time>
      </trkpt>
      <trkpt lat="37.181393997743726" lon="-3.606102028861642">
        <ele>654.79999999999995</ele>
        <time>2025-05-10T12:34:22Z</time>
      </trkpt>
      <trkpt lat="37.181511009112" lon="-3.606047965586186">
        <ele>653.83000000000004</ele>
        <time>2025-05-10T12:34:23Z</time>
      </trkpt>
      <trkpt lat="37.18221802264452" lon="-3.605656027793884">
        <ele>649.02999999999997</ele>
        <time>2025-05-10T12:34:31Z</time>
      </trkpt>
      <trkpt lat="37.182408040389419" lon="-3.605555025860667">
        <ele>647.10000000000002</ele>
        <time>2025-05-10T12:34:36Z</time>
      </trkpt>
      <trkpt lat="37.18245699070394" lon="-3.605528958141804">
        <ele>647.59000000000003</ele>
        <time>2025-05-10T12:34:37Z</time>
      </trkpt>
      <trkpt lat="37.183013968169689" lon="-3.605229975655675">
        <ele>647.59000000000003</ele>
        <time>2025-05-10T12:34:45Z</time>
      </trkpt>
      <trkpt lat="37.183961039409041" lon="-3.604720020666719">
        <ele>643.74000000000001</ele>
        <time>2025-05-10T12:34:55Z</time>
      </trkpt>
      <trkpt lat="37.184150973334908" lon="-3.604631004855037">
        <ele>642.77999999999997</ele>
        <time>2025-05-10T12:34:56Z</time>
      </trkpt>
      <trkpt lat="37.184266978874803" lon="-3.604697976261377">
        <ele>641.82000000000005</ele>
        <time>2025-05-10T12:34:59Z</time>
      </trkpt>
      <trkpt lat="37.185072982683778" lon="-3.606112003326416">
        <ele>642.77999999999997</ele>
        <time>2025-05-10T12:35:17Z</time>
      </trkpt>
      <trkpt lat="37.186361029744148" lon="-3.603794993832707">
        <ele>644.70000000000005</ele>
        <time>2025-05-10T12:35:21Z</time>
      </trkpt>
      <trkpt lat="37.186406962573528" lon="-3.60377898439765">
        <ele>645.17999999999995</ele>
        <time>2025-05-10T12:35:22Z</time>
      </trkpt>
      <trkpt lat="37.186580970883369" lon="-3.603745037689805">
        <ele>646.13999999999999</ele>
        <time>2025-05-10T12:35:24Z</time>
      </trkpt>
      <trkpt lat="37.186661018058658" lon="-3.603730034083128">
        <ele>647.10000000000002</ele>
        <time>2025-05-10T12:35:25Z</time>
      </trkpt>
      <trkpt lat="37.186808958649635" lon="-3.603763980790973">
        <ele>648.07000000000005</ele>
        <time>2025-05-10T12:35:27Z</time>
      </trkpt>
      <trkpt lat="37.186863021925092" lon="-3.60373598523438">
        <ele>648.54999999999995</ele>
        <time>2025-05-10T12:35:28Z</time>
      </trkpt>
      <trkpt lat="37.186927981674671" lon="-3.603703966364265">
        <ele>649.02999999999997</ele>
        <time>2025-05-10T12:35:29Z</time>
      </trkpt>
      <trkpt lat="37.187043987214565" lon="-3.60358796082437">
        <ele>649.50999999999999</ele>
        <time>2025-05-10T12:35:31Z</time>
      </trkpt>
      <trkpt lat="37.187088998034596" lon="-3.603517971932888">
        <ele>649.99000000000001</ele>
        <time>2025-05-10T12:35:32Z</time>
      </trkpt>
      <trkpt lat="37.187111964449286" lon="-3.603472961112857">
        <ele>649.99000000000001</ele>
        <time>2025-05-10T12:35:33Z</time>
      </trkpt>
      <trkpt lat="37.187130991369486" lon="-3.603377994149923">
        <ele>650.47000000000003</ele>
        <time>2025-05-10T12:35:34Z</time>
      </trkpt>
      <trkpt lat="37.187150018289685" lon="-3.603289984166622">
        <ele>652.38999999999999</ele>
        <time>2025-05-10T12:35:35Z</time>
      </trkpt>
      <trkpt lat="37.187170973047614" lon="-3.603187976405025">
        <ele>654.30999999999995</ele>
        <time>2025-05-10T12:35:36Z</time>
      </trkpt>
      <trkpt lat="37.187192011624575" lon="-3.603088986128569">
        <ele>655.75999999999999</ele>
        <time>2025-05-10T12:35:37Z</time>
      </trkpt>
      <trkpt lat="37.187219001352787" lon="-3.602957976981998">
        <ele>656.24000000000001</ele>
        <time>2025-05-10T12:35:38Z</time>
      </trkpt>
      <trkpt lat="37.18731002882123" lon="-3.602363029494882">
        <ele>658.15999999999997</ele>
        <time>2025-05-10T12:35:45Z</time>
      </trkpt>
      <trkpt lat="37.187347998842597" lon="-3.602120960131288">
        <ele>658.15999999999997</ele>
        <time>2025-05-10T12:35:46Z</time>
      </trkpt>
      <trkpt lat="37.187347998842597" lon="-3.602120960131288">
        <ele>658.15999999999997</ele>
        <time>2025-05-10T12:35:47Z</time>
      </trkpt>
      <trkpt lat="37.187368031591177" lon="-3.602032028138638">
        <ele>658.63999999999999</ele>
        <time>2025-05-10T12:35:48Z</time>
      </trkpt>
      <trkpt lat="37.187392003834248" lon="-3.601929014548659">
        <ele>658.63999999999999</ele>
        <time>2025-05-10T12:35:49Z</time>
      </trkpt>
      <trkpt lat="37.187412958592176" lon="-3.601837987080216">
        <ele>658.15999999999997</ele>
        <time>2025-05-10T12:35:50Z</time>
      </trkpt>
      <trkpt lat="37.187432991340756" lon="-3.601754000410438">
        <ele>657.67999999999995</ele>
        <time>2025-05-10T12:35:51Z</time>
      </trkpt>
      <trkpt lat="37.187453024089336" lon="-3.601664984598756">
        <ele>657.67999999999995</ele>
        <time>2025-05-10T12:35:52Z</time>
      </trkpt>
      <trkpt lat="37.187473978847265" lon="-3.601573035120964">
        <ele>657.20000000000005</ele>
        <time>2025-05-10T12:35:53Z</time>
      </trkpt>
      <trkpt lat="37.187494011595845" lon="-3.601486030966044">
        <ele>657.20000000000005</ele>
        <time>2025-05-10T12:35:54Z</time>
      </trkpt>
      <trkpt lat="37.187512032687664" lon="-3.601411012932658">
        <ele>657.20000000000005</ele>
        <time>2025-05-10T12:35:55Z</time>
      </trkpt>
      <trkpt lat="37.187527036294341" lon="-3.601346975192428">
        <ele>657.20000000000005</ele>
        <time>2025-05-10T12:35:56Z</time>
      </trkpt>
      <trkpt lat="37.187543967738748" lon="-3.601257037371397">
        <ele>657.20000000000005</ele>
        <time>2025-05-10T12:36:03Z</time>
      </trkpt>
      <trkpt lat="37.187608005478978" lon="-3.600992001593113">
        <ele>663.92999999999995</ele>
        <time>2025-05-10T12:36:22Z</time>
      </trkpt>
      <trkpt lat="37.187671959400177" lon="-3.600855963304639">
        <ele>665.85000000000002</ele>
        <time>2025-05-10T12:36:24Z</time>
      </trkpt>
      <trkpt lat="37.187754018232226" lon="-3.60068597830832">
        <ele>666.33000000000004</ele>
        <time>2025-05-10T12:36:27Z</time>
      </trkpt>
      <trkpt lat="37.1877830196172" lon="-3.600628981366754">
        <ele>666.33000000000004</ele>
        <time>2025-05-10T12:36:28Z</time>
      </trkpt>
      <trkpt lat="37.187807997688651" lon="-3.600578019395471">
        <ele>666.33000000000004</ele>
        <time>2025-05-10T12:36:29Z</time>
      </trkpt>
      <trkpt lat="37.187830964103341" lon="-3.60053300857544">
        <ele>666.33000000000004</ele>
        <time>2025-05-10T12:36:30Z</time>
      </trkpt>
      <trkpt lat="37.187847979366779" lon="-3.600497972220182">
        <ele>666.33000000000004</ele>
        <time>2025-05-10T12:36:31Z</time>
      </trkpt>
      <trkpt lat="37.18786901794374" lon="-3.600453967228532">
        <ele>666.33000000000004</ele>
        <time>2025-05-10T12:36:32Z</time>
      </trkpt>
      <trkpt lat="37.187951998785138" lon="-3.600251963362098">
        <ele>667.28999999999996</ele>
        <time>2025-05-10T12:36:36Z</time>
      </trkpt>
      <trkpt lat="37.187996003776789" lon="-3.600145010277629">
        <ele>667.76999999999998</ele>
        <time>2025-05-10T12:36:38Z</time>
      </trkpt>
      <trkpt lat="37.188013019040227" lon="-3.600054988637567">
        <ele>668.25</ele>
        <time>2025-05-10T12:36:39Z</time>
      </trkpt>
      <trkpt lat="37.188013019040227" lon="-3.599984999746084">
        <ele>668.73000000000002</ele>
        <time>2025-05-10T12:36:40Z</time>
      </trkpt>
      <trkpt lat="37.188013019040227" lon="-3.599906964227557">
        <ele>668.73000000000002</ele>
        <time>2025-05-10T12:36:41Z</time>
      </trkpt>
      <trkpt lat="37.188013019040227" lon="-3.599823983386159">
        <ele>669.22000000000003</ele>
        <time>2025-05-10T12:36:42Z</time>
      </trkpt>
      <trkpt lat="37.187940012663603" lon="-3.599559031426907">
        <ele>670.65999999999997</ele>
        <time>2025-05-10T12:36:45Z</time>
      </trkpt>
      <trkpt lat="37.18791201710701" lon="-3.599495999515057">
        <ele>672.10000000000002</ele>
        <time>2025-05-10T12:36:46Z</time>
      </trkpt>
      <trkpt lat="37.187878992408514" lon="-3.599455012008548">
        <ele>672.58000000000004</ele>
        <time>2025-05-10T12:36:47Z</time>
      </trkpt>
      <trkpt lat="37.187828030437231" lon="-3.599403966218233">
        <ele>673.05999999999995</ele>
        <time>2025-05-10T12:36:48Z</time>
      </trkpt>
      <trkpt lat="37.187770027667284" lon="-3.599345963448286">
        <ele>674.01999999999998</ele>
        <time>2025-05-10T12:36:49Z</time>
      </trkpt>
      <trkpt lat="37.187713030725718" lon="-3.59928896650672">
        <ele>674.98000000000002</ele>
        <time>2025-05-10T12:36:50Z</time>
      </trkpt>
      <trkpt lat="37.187648992985487" lon="-3.599242027848959">
        <ele>676.41999999999996</ele>
        <time>2025-05-10T12:36:51Z</time>
      </trkpt>
      <trkpt lat="37.187580009922385" lon="-3.599191987887025">
        <ele>677.38999999999999</ele>
        <time>2025-05-10T12:36:52Z</time>
      </trkpt>
      <trkpt lat="37.187384041026235" lon="-3.599049998447299">
        <ele>679.78999999999996</ele>
        <time>2025-05-10T12:36:55Z</time>
      </trkpt>
      <trkpt lat="37.187254037708044" lon="-3.599006999284029">
        <ele>681.71000000000004</ele>
        <time>2025-05-10T12:36:57Z</time>
      </trkpt>
      <trkpt lat="37.187197962775826" lon="-3.59898797236383">
        <ele>682.19000000000005</ele>
        <time>2025-05-10T12:36:58Z</time>
      </trkpt>
      <trkpt lat="37.187123028561473" lon="-3.599006999284029">
        <ele>683.14999999999998</ele>
        <time>2025-05-10T12:36:59Z</time>
      </trkpt>
      <trkpt lat="37.187034012749791" lon="-3.599028959870338">
        <ele>684.12</ele>
        <time>2025-05-10T12:37:00Z</time>
      </trkpt>
      <trkpt lat="37.186939967796206" lon="-3.59905201010406">
        <ele>684.60000000000002</ele>
        <time>2025-05-10T12:37:01Z</time>
      </trkpt>
      <trkpt lat="37.186864027753472" lon="-3.599087968468666">
        <ele>684.12</ele>
        <time>2025-05-10T12:37:02Z</time>
      </trkpt>
      <trkpt lat="37.186771994456649" lon="-3.599131973460317">
        <ele>684.12</ele>
        <time>2025-05-10T12:37:03Z</time>
      </trkpt>
      <trkpt lat="37.186691025272012" lon="-3.599169021472335">
        <ele>683.63</ele>
        <time>2025-05-10T12:37:04Z</time>
      </trkpt>
      <trkpt lat="37.186575019732118" lon="-3.59922400675714">
        <ele>683.63</ele>
        <time>2025-05-10T12:37:05Z</time>
      </trkpt>
      <trkpt lat="37.186520034447312" lon="-3.599230041727424">
        <ele>683.63</ele>
        <time>2025-05-10T12:37:06Z</time>
      </trkpt>
      <trkpt lat="37.186444010585546" lon="-3.599236998707056">
        <ele>683.63</ele>
        <time>2025-05-10T12:37:07Z</time>
      </trkpt>
      <trkpt lat="37.186348037794232" lon="-3.599239010363817">
        <ele>684.12</ele>
        <time>2025-05-10T12:37:08Z</time>
      </trkpt>
      <trkpt lat="37.186232032254338" lon="-3.59918100759387">
        <ele>684.12</ele>
        <time>2025-05-10T12:37:09Z</time>
      </trkpt>
      <trkpt lat="37.186167994514108" lon="-3.59907397069037">
        <ele>685.08000000000004</ele>
        <time>2025-05-10T12:37:10Z</time>
      </trkpt>
      <trkpt lat="37.186141004785895" lon="-3.598982021212578">
        <ele>686.03999999999996</ele>
        <time>2025-05-10T12:37:11Z</time>
      </trkpt>
      <trkpt lat="37.186127007007599" lon="-3.598839025944471">
        <ele>687</ele>
        <time>2025-05-10T12:37:12Z</time>
      </trkpt>
      <trkpt lat="37.186131030321121" lon="-3.598737018182874">
        <ele>687.96000000000004</ele>
        <time>2025-05-10T12:37:13Z</time>
      </trkpt>
      <trkpt lat="37.186133963987231" lon="-3.598629981279373">
        <ele>688.91999999999996</ele>
        <time>2025-05-10T12:37:14Z</time>
      </trkpt>
      <trkpt lat="37.186136981472373" lon="-3.598517999053001">
        <ele>689.88</ele>
        <time>2025-05-10T12:37:15Z</time>
      </trkpt>
      <trkpt lat="37.186141004785895" lon="-3.59840702265501">
        <ele>690.84000000000003</ele>
        <time>2025-05-10T12:37:16Z</time>
      </trkpt>
      <trkpt lat="37.186144022271037" lon="-3.598303003236651">
        <ele>691.33000000000004</ele>
        <time>2025-05-10T12:37:17Z</time>
      </trkpt>
      <trkpt lat="37.186137987300754" lon="-3.598223961889744">
        <ele>692.28999999999996</ele>
        <time>2025-05-10T12:37:18Z</time>
      </trkpt>
      <trkpt lat="37.186088031157851" lon="-3.598140981048346">
        <ele>692.76999999999998</ele>
        <time>2025-05-10T12:37:19Z</time>
      </trkpt>
      <trkpt lat="37.186041008681059" lon="-3.59806202352047">
        <ele>693.73000000000002</ele>
        <time>2025-05-10T12:37:20Z</time>
      </trkpt>
      <trkpt lat="37.185983005911112" lon="-3.597991028800607">
        <ele>695.16999999999996</ele>
        <time>2025-05-10T12:37:21Z</time>
      </trkpt>
      <trkpt lat="37.185918968170881" lon="-3.597932020202279">
        <ele>696.61000000000001</ele>
        <time>2025-05-10T12:37:22Z</time>
      </trkpt>
      <trkpt lat="37.185438014566898" lon="-3.597421981394291">
        <ele>704.29999999999995</ele>
        <time>2025-05-10T12:37:29Z</time>
      </trkpt>
      <trkpt lat="37.185389986261725" lon="-3.597325002774596">
        <ele>705.25999999999999</ele>
        <time>2025-05-10T12:37:30Z</time>
      </trkpt>
      <trkpt lat="37.185346987098455" lon="-3.597203968092799">
        <ele>706.23000000000002</ele>
        <time>2025-05-10T12:37:31Z</time>
      </trkpt>
      <trkpt lat="37.185330977663398" lon="-3.597057033330202">
        <ele>708.14999999999998</ele>
        <time>2025-05-10T12:37:32Z</time>
      </trkpt>
      <trkpt lat="37.185338018462062" lon="-3.596986960619688">
        <ele>709.59000000000003</ele>
        <time>2025-05-10T12:37:33Z</time>
      </trkpt>
      <trkpt lat="37.185346987098455" lon="-3.596895011141896">
        <ele>711.02999999999997</ele>
        <time>2025-05-10T12:37:34Z</time>
      </trkpt>
      <trkpt lat="37.185350004583597" lon="-3.596810018643737">
        <ele>711.50999999999999</ele>
        <time>2025-05-10T12:37:35Z</time>
      </trkpt>
      <trkpt lat="37.185344975441694" lon="-3.596729971468449">
        <ele>712.47000000000003</ele>
        <time>2025-05-10T12:37:36Z</time>
      </trkpt>
      <trkpt lat="37.185341035947204" lon="-3.59666702337563">
        <ele>712.95000000000005</ele>
        <time>2025-05-10T12:37:37Z</time>
      </trkpt>
      <trkpt lat="37.185181025415659" lon="-3.596563003957272">
        <ele>713.44000000000005</ele>
        <time>2025-05-10T12:37:38Z</time>
      </trkpt>
      <trkpt lat="37.185181025415659" lon="-3.596563003957272">
        <ele>713.91999999999996</ele>
        <time>2025-05-10T12:37:39Z</time>
      </trkpt>
      <trkpt lat="37.185165015980601" lon="-3.596548000350595">
        <ele>714.39999999999998</ele>
        <time>2025-05-10T12:37:40Z</time>
      </trkpt>
      <trkpt lat="37.185181025415659" lon="-3.596563003957272">
        <ele>714.88</ele>
        <time>2025-05-10T12:37:41Z</time>
      </trkpt>
      <trkpt lat="37.185017997398973" lon="-3.596544982865453">
        <ele>715.84000000000003</ele>
        <time>2025-05-10T12:37:42Z</time>
      </trkpt>
      <trkpt lat="37.184974998235703" lon="-3.596612960100174">
        <ele>716.32000000000005</ele>
        <time>2025-05-10T12:37:43Z</time>
      </trkpt>
      <trkpt lat="37.184942979365587" lon="-3.596713962033391">
        <ele>717.27999999999997</ele>
        <time>2025-05-10T12:37:44Z</time>
      </trkpt>
      <trkpt lat="37.184901991859078" lon="-3.596863998100162">
        <ele>717.75999999999999</ele>
        <time>2025-05-10T12:37:45Z</time>
      </trkpt>
      <trkpt lat="37.184901991859078" lon="-3.596961982548237">
        <ele>718.24000000000001</ele>
        <time>2025-05-10T12:37:46Z</time>
      </trkpt>
      <trkpt lat="37.184901991859078" lon="-3.597091985866427">
        <ele>718.24000000000001</ele>
        <time>2025-05-10T12:37:47Z</time>
      </trkpt>
      <trkpt lat="37.184910960495472" lon="-3.597228024154902">
        <ele>718.72000000000003</ele>
        <time>2025-05-10T12:37:48Z</time>
      </trkpt>
      <trkpt lat="37.18492797575891" lon="-3.597351992502809">
        <ele>719.20000000000005</ele>
        <time>2025-05-10T12:37:49Z</time>
      </trkpt>
      <trkpt lat="37.18494700267911" lon="-3.597475960850716">
        <ele>719.67999999999995</ele>
        <time>2025-05-10T12:37:50Z</time>
      </trkpt>
      <trkpt lat="37.184972986578941" lon="-3.597596995532513">
        <ele>720.64999999999998</ele>
        <time>2025-05-10T12:37:51Z</time>
      </trkpt>
      <trkpt lat="37.184998970478773" lon="-3.59772096388042">
        <ele>721.13</ele>
        <time>2025-05-10T12:37:52Z</time>
      </trkpt>
      <trkpt lat="37.185042975470424" lon="-3.597835963591933">
        <ele>721.61000000000001</ele>
        <time>2025-05-10T12:37:53Z</time>
      </trkpt>
      <trkpt lat="37.1850960329175" lon="-3.597948029637337">
        <ele>722.09000000000003</ele>
        <time>2025-05-10T12:37:54Z</time>
      </trkpt>
      <trkpt lat="37.185146994888783" lon="-3.598055988550186">
        <ele>722.57000000000005</ele>
        <time>2025-05-10T12:37:55Z</time>
      </trkpt>
      <trkpt lat="37.185197034850717" lon="-3.598159002140164">
        <ele>723.52999999999997</ele>
        <time>2025-05-10T12:37:56Z</time>
      </trkpt>
      <trkpt lat="37.185224024578929" lon="-3.598280036821961">
        <ele>724.49000000000001</ele>
        <time>2025-05-10T12:37:57Z</time>
      </trkpt>
      <trkpt lat="37.185224024578929" lon="-3.598384978249669">
        <ele>724.97000000000003</ele>
        <time>2025-05-10T12:37:58Z</time>
      </trkpt>
      <trkpt lat="37.185180019587278" lon="-3.598473994061351">
        <ele>725.92999999999995</ele>
        <time>2025-05-10T12:37:59Z</time>
      </trkpt>
      <trkpt lat="37.185138026252389" lon="-3.598537025973201">
        <ele>726.88999999999999</ele>
        <time>2025-05-10T12:38:00Z</time>
      </trkpt>
      <trkpt lat="37.185087986290455" lon="-3.598537025973201">
        <ele>727.37</ele>
        <time>2025-05-10T12:38:01Z</time>
      </trkpt>
      <trkpt lat="37.18503300100565" lon="-3.598537025973201">
        <ele>727.86000000000001</ele>
        <time>2025-05-10T12:38:02Z</time>
      </trkpt>
      <trkpt lat="37.184976004064083" lon="-3.598537025973201">
        <ele>728.34000000000003</ele>
        <time>2025-05-10T12:38:03Z</time>
      </trkpt>
      <trkpt lat="37.184944991022348" lon="-3.598537025973201">
        <ele>728.82000000000005</ele>
        <time>2025-05-10T12:38:04Z</time>
      </trkpt>
      <trkpt lat="37.184921018779278" lon="-3.598501989617944">
        <ele>729.77999999999997</ele>
        <time>2025-05-10T12:38:05Z</time>
      </trkpt>
      <trkpt lat="37.184886988252401" lon="-3.598451027646661">
        <ele>731.22000000000003</ele>
        <time>2025-05-10T12:38:06Z</time>
      </trkpt>
      <trkpt lat="37.184853963553905" lon="-3.598397970199585">
        <ele>732.17999999999995</ele>
        <time>2025-05-10T12:38:07Z</time>
      </trkpt>
      <trkpt lat="37.184826973825693" lon="-3.598325969651341">
        <ele>732.65999999999997</ele>
        <time>2025-05-10T12:38:08Z</time>
      </trkpt>
      <trkpt lat="37.184767965227365" lon="-3.598174005746841">
        <ele>734.58000000000004</ele>
        <time>2025-05-10T12:38:10Z</time>
      </trkpt>
      <trkpt lat="37.184734018519521" lon="-3.598108040168881">
        <ele>735.54999999999995</ele>
        <time>2025-05-10T12:38:11Z</time>
      </trkpt>
      <trkpt lat="37.184681966900826" lon="-3.598040984943509">
        <ele>736.99000000000001</ele>
        <time>2025-05-10T12:38:12Z</time>
      </trkpt>
      <trkpt lat="37.184624969959259" lon="-3.597967978566885">
        <ele>737.95000000000005</ele>
        <time>2025-05-10T12:38:13Z</time>
      </trkpt>
      <trkpt lat="37.184564033523202" lon="-3.59789103269577">
        <ele>738.90999999999997</ele>
        <time>2025-05-10T12:38:14Z</time>
      </trkpt>
      <trkpt lat="37.184495972469449" lon="-3.597814003005624">
        <ele>739.87</ele>
        <time>2025-05-10T12:38:15Z</time>
      </trkpt>
      <trkpt lat="37.184413997456431" lon="-3.597748037427664">
        <ele>740.83000000000004</ele>
        <time>2025-05-10T12:38:16Z</time>
      </trkpt>
      <trkpt lat="37.184242000803351" lon="-3.597620967775583">
        <ele>741.78999999999996</ele>
        <time>2025-05-10T12:38:18Z</time>
      </trkpt>
      <trkpt lat="37.183676976710558" lon="-3.59720597974956">
        <ele>746.60000000000002</ele>
        <time>2025-05-10T12:38:24Z</time>
      </trkpt>
      <trkpt lat="37.183596007525921" lon="-3.597124004736543">
        <ele>747.55999999999995</ele>
        <time>2025-05-10T12:38:25Z</time>
      </trkpt>
      <trkpt lat="37.183516966179013" lon="-3.597045969218016">
        <ele>748.51999999999998</ele>
        <time>2025-05-10T12:38:26Z</time>
      </trkpt>
      <trkpt lat="37.183420993387699" lon="-3.596949996426702">
        <ele>749.49000000000001</ele>
        <time>2025-05-10T12:38:27Z</time>
      </trkpt>
      <trkpt lat="37.183391992002726" lon="-3.596880007535219">
        <ele>750.45000000000005</ele>
        <time>2025-05-10T12:38:28Z</time>
      </trkpt>
      <trkpt lat="37.1833570394665" lon="-3.59679501503706">
        <ele>751.40999999999997</ele>
        <time>2025-05-10T12:38:29Z</time>
      </trkpt>
      <trkpt lat="37.183324014768004" lon="-3.596716979518533">
        <ele>753.33000000000004</ele>
        <time>2025-05-10T12:38:30Z</time>
      </trkpt>
      <trkpt lat="37.18329400755465" lon="-3.596643973141909">
        <ele>753.80999999999995</ele>
        <time>2025-05-10T12:38:31Z</time>
      </trkpt>
      <trkpt lat="37.183204991742969" lon="-3.596415985375643">
        <ele>759.10000000000002</ele>
        <time>2025-05-10T12:38:35Z</time>
      </trkpt>
      <trkpt lat="37.183193005621433" lon="-3.596272990107536">
        <ele>761.5</ele>
        <time>2025-05-10T12:38:38Z</time>
      </trkpt>
      <trkpt lat="37.183184958994389" lon="-3.596177017316222">
        <ele>761.98000000000002</ele>
        <time>2025-05-10T12:38:39Z</time>
      </trkpt>
      <trkpt lat="37.183213038370013" lon="-3.596126977354288">
        <ele>762.94000000000005</ele>
        <time>2025-05-10T12:38:40Z</time>
      </trkpt>
      <trkpt lat="37.183246985077858" lon="-3.59606503508985">
        <ele>763.41999999999996</ele>
        <time>2025-05-10T12:38:41Z</time>
      </trkpt>
      <trkpt lat="37.183296019211411" lon="-3.595981970429421">
        <ele>763.89999999999998</ele>
        <time>2025-05-10T12:38:42Z</time>
      </trkpt>
      <trkpt lat="37.183354021981359" lon="-3.595947017893195">
        <ele>764.38999999999999</ele>
        <time>2025-05-10T12:38:43Z</time>
      </trkpt>
      <trkpt lat="37.183405989781022" lon="-3.595916004851461">
        <ele>764.87</ele>
        <time>2025-05-10T12:38:44Z</time>
      </trkpt>
      <trkpt lat="37.183462986722589" lon="-3.595883985981345">
        <ele>764.87</ele>
        <time>2025-05-10T12:38:45Z</time>
      </trkpt>
      <trkpt lat="37.183562982827425" lon="-3.595823971554637">
        <ele>765.35000000000002</ele>
        <time>2025-05-10T12:38:47Z</time>
      </trkpt>
      <trkpt lat="37.183601036667824" lon="-3.595796981826425">
        <ele>765.83000000000004</ele>
        <time>2025-05-10T12:38:48Z</time>
      </trkpt>
      <trkpt lat="37.183630038052797" lon="-3.595776027068496">
        <ele>765.83000000000004</ele>
        <time>2025-05-10T12:38:49Z</time>
      </trkpt>
      <trkpt lat="37.18374302610755" lon="-3.595673013478518">
        <ele>765.83000000000004</ele>
        <time>2025-05-10T12:38:52Z</time>
      </trkpt>
      <trkpt lat="37.18415399082005" lon="-3.595049986615777">
        <ele>764.87</ele>
        <time>2025-05-10T12:39:01Z</time>
      </trkpt>
      <trkpt lat="37.184183998033404" lon="-3.594964994117618">
        <ele>764.87</ele>
        <time>2025-05-10T12:39:02Z</time>
      </trkpt>
      <trkpt lat="37.184201013296843" lon="-3.594885030761361">
        <ele>764.87</ele>
        <time>2025-05-10T12:39:03Z</time>
      </trkpt>
      <trkpt lat="37.18421601690352" lon="-3.594812024384737">
        <ele>765.35000000000002</ele>
        <time>2025-05-10T12:39:04Z</time>
      </trkpt>
      <trkpt lat="37.184235965833068" lon="-3.594717979431152">
        <ele>765.83000000000004</ele>
        <time>2025-05-10T12:39:05Z</time>
      </trkpt>
      <trkpt lat="37.18423898331821" lon="-3.594688978046179">
        <ele>765.83000000000004</ele>
        <time>2025-05-10T12:39:06Z</time>
      </trkpt>
      <trkpt lat="37.184244012460113" lon="-3.594630975276232">
        <ele>766.30999999999995</ele>
        <time>2025-05-10T12:39:07Z</time>
      </trkpt>
      <trkpt lat="37.184249041602015" lon="-3.594568027183414">
        <ele>766.78999999999996</ele>
        <time>2025-05-10T12:39:08Z</time>
      </trkpt>
      <trkpt lat="37.184253986924887" lon="-3.594511030241847">
        <ele>766.78999999999996</ele>
        <time>2025-05-10T12:39:09Z</time>
      </trkpt>
      <trkpt lat="37.184300003573298" lon="-3.594280024990439">
        <ele>767.26999999999998</ele>
        <time>2025-05-10T12:39:14Z</time>
      </trkpt>
      <trkpt lat="37.184322969987988" lon="-3.594179023057222">
        <ele>766.78999999999996</ele>
        <time>2025-05-10T12:39:18Z</time>
      </trkpt>
      <trkpt lat="37.184331016615033" lon="-3.594164019450545">
        <ele>766.78999999999996</ele>
        <time>2025-05-10T12:39:19Z</time>
      </trkpt>
      <trkpt lat="37.184404022991657" lon="-3.594193020835519">
        <ele>764.87</ele>
        <time>2025-05-10T12:39:31Z</time>
      </trkpt>
      <trkpt lat="37.184380972757936" lon="-3.594223028048873">
        <ele>764.38999999999999</ele>
        <time>2025-05-10T12:39:46Z</time>
      </trkpt>
      <trkpt lat="37.184321964159608" lon="-3.594182040542364">
        <ele>763.89999999999998</ele>
        <time>2025-05-10T12:39:48Z</time>
      </trkpt>
      <trkpt lat="37.18430201523006" lon="-3.594270972535014">
        <ele>763.89999999999998</ele>
        <time>2025-05-10T12:39:49Z</time>
      </trkpt>
      <trkpt lat="37.184291034936905" lon="-3.594317995011807">
        <ele>763.89999999999998</ele>
        <time>2025-05-10T12:39:50Z</time>
      </trkpt>
      <trkpt lat="37.184275025501847" lon="-3.594384966418147">
        <ele>763.89999999999998</ele>
        <time>2025-05-10T12:39:51Z</time>
      </trkpt>
      <trkpt lat="37.18425901606679" lon="-3.594457972794771">
        <ele>764.38999999999999</ele>
        <time>2025-05-10T12:39:52Z</time>
      </trkpt>
      <trkpt lat="37.184250969439745" lon="-3.594544976949692">
        <ele>764.38999999999999</ele>
        <time>2025-05-10T12:39:53Z</time>
      </trkpt>
      <trkpt lat="37.184244012460113" lon="-3.594627035781741">
        <ele>764.38999999999999</ele>
        <time>2025-05-10T12:39:54Z</time>
      </trkpt>
      <trkpt lat="37.184209981933236" lon="-3.594841025769711">
        <ele>764.38999999999999</ele>
        <time>2025-05-10T12:39:57Z</time>
      </trkpt>
      <trkpt lat="37.184194978326559" lon="-3.594911014661193">
        <ele>764.38999999999999</ele>
        <time>2025-05-10T12:39:58Z</time>
      </trkpt>
      <trkpt lat="37.184032034128904" lon="-3.595275962725282">
        <ele>764.38999999999999</ele>
        <time>2025-05-10T12:40:03Z</time>
      </trkpt>
      <trkpt lat="37.183949975296855" lon="-3.595418035984039">
        <ele>764.38999999999999</ele>
        <time>2025-05-10T12:40:05Z</time>
      </trkpt>
      <trkpt lat="37.183845033869147" lon="-3.59554803930223">
        <ele>762.94000000000005</ele>
        <time>2025-05-10T12:40:07Z</time>
      </trkpt>
      <trkpt lat="37.183798011392355" lon="-3.595605958253145">
        <ele>762.46000000000004</ele>
        <time>2025-05-10T12:40:08Z</time>
      </trkpt>
      <trkpt lat="37.183754006400704" lon="-3.595661027356982">
        <ele>761.5</ele>
        <time>2025-05-10T12:40:09Z</time>
      </trkpt>
      <trkpt lat="37.183707989752293" lon="-3.595717018470168">
        <ele>761.01999999999998</ele>
        <time>2025-05-10T12:40:10Z</time>
      </trkpt>
      <trkpt lat="37.183668008074164" lon="-3.595749959349632">
        <ele>760.53999999999996</ele>
        <time>2025-05-10T12:40:11Z</time>
      </trkpt>
      <trkpt lat="37.183573041111231" lon="-3.595908964052796">
        <ele>756.21000000000004</ele>
        <time>2025-05-10T12:40:16Z</time>
      </trkpt>
      <trkpt lat="37.183582009747624" lon="-3.59593796543777">
        <ele>755.73000000000002</ele>
        <time>2025-05-10T12:40:17Z</time>
      </trkpt>
      <trkpt lat="37.183592990040779" lon="-3.595973001793027">
        <ele>755.25</ele>
        <time>2025-05-10T12:40:18Z</time>
      </trkpt>
      <trkpt lat="37.183605981990695" lon="-3.596013989299536">
        <ele>754.76999999999998</ele>
        <time>2025-05-10T12:40:19Z</time>
      </trkpt>
      <trkpt lat="37.183621991425753" lon="-3.596063023433089">
        <ele>754.28999999999996</ele>
        <time>2025-05-10T12:40:20Z</time>
      </trkpt>
      <trkpt lat="37.18363699503243" lon="-3.596112979575992">
        <ele>753.80999999999995</ele>
        <time>2025-05-10T12:40:21Z</time>
      </trkpt>
      <trkpt lat="37.183653004467487" lon="-3.596163019537926">
        <ele>753.80999999999995</ele>
        <time>2025-05-10T12:40:22Z</time>
      </trkpt>
      <trkpt lat="37.183664990589023" lon="-3.596203001216054">
        <ele>753.33000000000004</ele>
        <time>2025-05-10T12:40:23Z</time>
      </trkpt>
      <trkpt lat="37.183673959225416" lon="-3.596229990944266">
        <ele>752.85000000000002</ele>
        <time>2025-05-10T12:40:24Z</time>
      </trkpt>
      <trkpt lat="37.183673959225416" lon="-3.596229990944266">
        <ele>752.37</ele>
        <time>2025-05-10T12:40:25Z</time>
      </trkpt>
      <trkpt lat="37.183684017509222" lon="-3.596264021471143">
        <ele>751.88999999999999</ele>
        <time>2025-05-10T12:40:34Z</time>
      </trkpt>
      <trkpt lat="37.183691980317235" lon="-3.596290005370975">
        <ele>751.40999999999997</ele>
        <time>2025-05-10T12:40:35Z</time>
      </trkpt>
      <trkpt lat="37.18370002694428" lon="-3.596315989270806">
        <ele>751.40999999999997</ele>
        <time>2025-05-10T12:40:36Z</time>
      </trkpt>
      <trkpt lat="37.18374696560204" lon="-3.59654095955193">
        <ele>753.80999999999995</ele>
        <time>2025-05-10T12:40:47Z</time>
      </trkpt>
      <trkpt lat="37.183725005015731" lon="-3.596567027270794">
        <ele>753.80999999999995</ele>
        <time>2025-05-10T12:40:48Z</time>
      </trkpt>
      <trkpt lat="37.183715030550957" lon="-3.59658001922071">
        <ele>753.80999999999995</ele>
        <time>2025-05-10T12:40:49Z</time>
      </trkpt>
      <trkpt lat="37.183702038601041" lon="-3.596595022827387">
        <ele>753.80999999999995</ele>
        <time>2025-05-10T12:40:50Z</time>
      </trkpt>
      <trkpt lat="37.183687034994364" lon="-3.596613965928555">
        <ele>753.80999999999995</ele>
        <time>2025-05-10T12:40:51Z</time>
      </trkpt>
      <trkpt lat="37.183655016124249" lon="-3.596649002283812">
        <ele>753.80999999999995</ele>
        <time>2025-05-10T12:40:52Z</time>
      </trkpt>
      <trkpt lat="37.183643030002713" lon="-3.59664598479867">
        <ele>754.28999999999996</ele>
        <time>2025-05-10T12:40:53Z</time>
      </trkpt>
      <trkpt lat="37.18363699503243" lon="-3.596643973141909">
        <ele>754.28999999999996</ele>
        <time>2025-05-10T12:40:54Z</time>
      </trkpt>
      <trkpt lat="37.183628026396036" lon="-3.596641961485148">
        <ele>754.28999999999996</ele>
        <time>2025-05-10T12:40:55Z</time>
      </trkpt>
      <trkpt lat="37.183628026396036" lon="-3.596641961485148">
        <ele>757.17999999999995</ele>
        <time>2025-05-10T12:41:10Z</time>
      </trkpt>
      <trkpt lat="37.183628026396036" lon="-3.596641961485148">
        <ele>757.17999999999995</ele>
        <time>2025-05-10T12:41:24Z</time>
      </trkpt>
      <trkpt lat="37.183628026396036" lon="-3.596641961485148">
        <ele>757.17999999999995</ele>
        <time>2025-05-10T12:41:53Z</time>
      </trkpt>
      <trkpt lat="37.183628026396036" lon="-3.596641961485148">
        <ele>757.17999999999995</ele>
        <time>2025-05-10T12:42:10Z</time>
      </trkpt>
      <trkpt lat="37.183628026396036" lon="-3.596641961485148">
        <ele>758.13999999999999</ele>
        <time>2025-05-10T12:42:31Z</time>
      </trkpt>
      <trkpt lat="37.183628026396036" lon="-3.596641961485148">
        <ele>758.13999999999999</ele>
        <time>2025-05-10T12:42:59Z</time>
      </trkpt>
      <trkpt lat="37.183628026396036" lon="-3.596641961485148">
        <ele>758.62</ele>
        <time>2025-05-10T12:43:25Z</time>
      </trkpt>
      <trkpt lat="37.183360978960991" lon="-3.596843965351582">
        <ele>747.08000000000004</ele>
        <time>2025-05-12T06:16:10Z</time>
      </trkpt>
      <trkpt lat="37.183559965342283" lon="-3.596660988405347">
        <ele>774.96000000000004</ele>
        <time>2025-05-12T06:16:46Z</time>
      </trkpt>
      <trkpt lat="37.183602964505553" lon="-3.596644978970289">
        <ele>789.38</ele>
        <time>2025-05-12T06:17:38Z</time>
      </trkpt>
      <trkpt lat="37.183602964505553" lon="-3.596644978970289">
        <ele>789.38</ele>
        <time>2025-05-12T06:18:15Z</time>
      </trkpt>
      <trkpt lat="37.183601958677173" lon="-3.596643973141909">
        <ele>789.38</ele>
        <time>2025-05-12T06:19:13Z</time>
      </trkpt>
      <trkpt lat="37.183599025011063" lon="-3.596643973141909">
        <ele>788.89999999999998</ele>
        <time>2025-05-12T06:19:55Z</time>
      </trkpt>
      <trkpt lat="37.183599025011063" lon="-3.596643973141909">
        <ele>788.89999999999998</ele>
        <time>2025-05-12T06:20:16Z</time>
      </trkpt>
      <trkpt lat="37.183587038889527" lon="-3.596609020605683">
        <ele>785.04999999999995</ele>
        <time>2025-05-12T06:20:22Z</time>
      </trkpt>
      <trkpt lat="37.183683011680841" lon="-3.596617989242077">
        <ele>783.13</ele>
        <time>2025-05-12T06:20:27Z</time>
      </trkpt>
      <trkpt lat="37.18370396643877" lon="-3.596593011170626">
        <ele>782.64999999999998</ele>
        <time>2025-05-12T06:20:28Z</time>
      </trkpt>
      <trkpt lat="37.183729028329253" lon="-3.596563003957272">
        <ele>782.16999999999996</ele>
        <time>2025-05-12T06:20:29Z</time>
      </trkpt>
      <trkpt lat="37.183697009459138" lon="-3.596305008977652">
        <ele>780.25</ele>
        <time>2025-05-12T06:20:36Z</time>
      </trkpt>
      <trkpt lat="37.183684017509222" lon="-3.596262009814382">
        <ele>780.25</ele>
        <time>2025-05-12T06:20:37Z</time>
      </trkpt>
      <trkpt lat="37.183670019730926" lon="-3.596218004822731">
        <ele>779.76999999999998</ele>
        <time>2025-05-12T06:20:38Z</time>
      </trkpt>
      <trkpt lat="37.183598019182682" lon="-3.595988005399704">
        <ele>774.96000000000004</ele>
        <time>2025-05-12T06:20:48Z</time>
      </trkpt>
      <trkpt lat="37.183561976999044" lon="-3.59587199985981">
        <ele>774</ele>
        <time>2025-05-12T06:21:01Z</time>
      </trkpt>
      <trkpt lat="37.18353096395731" lon="-3.595845010131598">
        <ele>773.51999999999998</ele>
        <time>2025-05-12T06:21:02Z</time>
      </trkpt>
      <trkpt lat="37.18350799754262" lon="-3.595858002081513">
        <ele>773.03999999999996</ele>
        <time>2025-05-12T06:21:03Z</time>
      </trkpt>
      <trkpt lat="37.183473967015743" lon="-3.595877029001713">
        <ele>772.55999999999995</ele>
        <time>2025-05-12T06:21:04Z</time>
      </trkpt>
      <trkpt lat="37.183433985337615" lon="-3.595899995416403">
        <ele>772.55999999999995</ele>
        <time>2025-05-12T06:21:05Z</time>
      </trkpt>
      <trkpt lat="37.183382017537951" lon="-3.595930002629757">
        <ele>772.08000000000004</ele>
        <time>2025-05-12T06:21:06Z</time>
      </trkpt>
      <trkpt lat="37.18327104113996" lon="-3.596023041754961">
        <ele>771.60000000000002</ele>
        <time>2025-05-12T06:21:07Z</time>
      </trkpt>
      <trkpt lat="37.183231981471181" lon="-3.596092024818063">
        <ele>771.11000000000001</ele>
        <time>2025-05-12T06:21:08Z</time>
      </trkpt>
      <trkpt lat="37.183197028934956" lon="-3.596154972910881">
        <ele>770.63</ele>
        <time>2025-05-12T06:21:09Z</time>
      </trkpt>
      <trkpt lat="37.183193005621433" lon="-3.596277013421059">
        <ele>769.66999999999996</ele>
        <time>2025-05-12T06:21:10Z</time>
      </trkpt>
      <trkpt lat="37.183200968429446" lon="-3.596367035061121">
        <ele>769.19000000000005</ele>
        <time>2025-05-12T06:21:11Z</time>
      </trkpt>
      <trkpt lat="37.183221001178026" lon="-3.596469964832068">
        <ele>768.71000000000004</ele>
        <time>2025-05-12T06:21:12Z</time>
      </trkpt>
      <trkpt lat="37.183258971199393" lon="-3.596561998128891">
        <ele>768.23000000000002</ele>
        <time>2025-05-12T06:21:13Z</time>
      </trkpt>
      <trkpt lat="37.183334995061159" lon="-3.596743969246745">
        <ele>767.26999999999998</ele>
        <time>2025-05-12T06:21:15Z</time>
      </trkpt>
      <trkpt lat="37.183373970910907" lon="-3.596836002543569">
        <ele>766.30999999999995</ele>
        <time>2025-05-12T06:21:16Z</time>
      </trkpt>
      <trkpt lat="37.183420993387699" lon="-3.596949996426702">
        <ele>765.83000000000004</ele>
        <time>2025-05-12T06:21:17Z</time>
      </trkpt>
      <trkpt lat="37.183480001986027" lon="-3.597009005025029">
        <ele>765.35000000000002</ele>
        <time>2025-05-12T06:21:18Z</time>
      </trkpt>
      <trkpt lat="37.183544961735606" lon="-3.597073964774609">
        <ele>764.87</ele>
        <time>2025-05-12T06:21:19Z</time>
      </trkpt>
      <trkpt lat="37.183605981990695" lon="-3.597134985029697">
        <ele>764.38999999999999</ele>
        <time>2025-05-12T06:21:20Z</time>
      </trkpt>
      <trkpt lat="37.183667002245784" lon="-3.597194999456406">
        <ele>763.89999999999998</ele>
        <time>2025-05-12T06:21:21Z</time>
      </trkpt>
      <trkpt lat="37.184514999389648" lon="-3.597829006612301">
        <ele>756.69000000000005</ele>
        <time>2025-05-12T06:21:33Z</time>
      </trkpt>
      <trkpt lat="37.184645002707839" lon="-3.597994968295097">
        <ele>755.73000000000002</ele>
        <time>2025-05-12T06:21:35Z</time>
      </trkpt>
      <trkpt lat="37.184698982164264" lon="-3.59806302934885">
        <ele>755.25</ele>
        <time>2025-05-12T06:21:36Z</time>
      </trkpt>
      <trkpt lat="37.184744998812675" lon="-3.598121032118797">
        <ele>754.76999999999998</ele>
        <time>2025-05-12T06:21:37Z</time>
      </trkpt>
      <trkpt lat="37.184789003804326" lon="-3.598227985203266">
        <ele>754.28999999999996</ele>
        <time>2025-05-12T06:21:39Z</time>
      </trkpt>
      <trkpt lat="37.18484197743237" lon="-3.598365029320121">
        <ele>753.33000000000004</ele>
        <time>2025-05-12T06:21:41Z</time>
      </trkpt>
      <trkpt lat="37.18488103710115" lon="-3.598442981019616">
        <ele>752.85000000000002</ele>
        <time>2025-05-12T06:21:42Z</time>
      </trkpt>
      <trkpt lat="37.184919007122517" lon="-3.598499977961183">
        <ele>751.88999999999999</ele>
        <time>2025-05-12T06:21:43Z</time>
      </trkpt>
      <trkpt lat="37.184996036812663" lon="-3.598537025973201">
        <ele>751.40999999999997</ele>
        <time>2025-05-12T06:21:44Z</time>
      </trkpt>
      <trkpt lat="37.185044987127185" lon="-3.598537025973201">
        <ele>750.92999999999995</ele>
        <time>2025-05-12T06:21:45Z</time>
      </trkpt>
      <trkpt lat="37.185093015432358" lon="-3.598537025973201">
        <ele>750.45000000000005</ele>
        <time>2025-05-12T06:21:46Z</time>
      </trkpt>
      <trkpt lat="37.185138026252389" lon="-3.598537025973201">
        <ele>749.49000000000001</ele>
        <time>2025-05-12T06:21:47Z</time>
      </trkpt>
      <trkpt lat="37.185181025415659" lon="-3.59847298823297">
        <ele>749</ele>
        <time>2025-05-12T06:21:48Z</time>
      </trkpt>
      <trkpt lat="37.185207009315491" lon="-3.598433006554842">
        <ele>748.51999999999998</ele>
        <time>2025-05-12T06:21:49Z</time>
      </trkpt>
      <trkpt lat="37.185224024578929" lon="-3.598409034311771">
        <ele>748.03999999999996</ele>
        <time>2025-05-12T06:21:50Z</time>
      </trkpt>
      <trkpt lat="37.185224024578929" lon="-3.598317001014948">
        <ele>747.08000000000004</ele>
        <time>2025-05-12T06:21:51Z</time>
      </trkpt>
      <trkpt lat="37.185224024578929" lon="-3.59823795966804">
        <ele>746.60000000000002</ele>
        <time>2025-05-12T06:21:52Z</time>
      </trkpt>
      <trkpt lat="37.185190999880433" lon="-3.59814802184701">
        <ele>746.12</ele>
        <time>2025-05-12T06:21:53Z</time>
      </trkpt>
      <trkpt lat="37.18514297157526" lon="-3.598046014085412">
        <ele>745.63999999999999</ele>
        <time>2025-05-12T06:21:54Z</time>
      </trkpt>
      <trkpt lat="37.185091003775597" lon="-3.59793696552515">
        <ele>745.15999999999997</ele>
        <time>2025-05-12T06:21:55Z</time>
      </trkpt>
      <trkpt lat="37.185037024319172" lon="-3.597824983298779">
        <ele>745.15999999999997</ele>
        <time>2025-05-12T06:21:56Z</time>
      </trkpt>
      <trkpt lat="37.184994025155902" lon="-3.597695985808969">
        <ele>744.20000000000005</ele>
        <time>2025-05-12T06:21:57Z</time>
      </trkpt>
      <trkpt lat="37.184963012114167" lon="-3.59754896722734">
        <ele>743.72000000000003</ele>
        <time>2025-05-12T06:21:58Z</time>
      </trkpt>
      <trkpt lat="37.184936022385955" lon="-3.597403038293123">
        <ele>743.24000000000001</ele>
        <time>2025-05-12T06:21:59Z</time>
      </trkpt>
      <trkpt lat="37.184915989637375" lon="-3.597262976691127">
        <ele>742.75999999999999</ele>
        <time>2025-05-12T06:22:00Z</time>
      </trkpt>
      <trkpt lat="37.184901991859078" lon="-3.596914038062096">
        <ele>740.35000000000002</ele>
        <time>2025-05-12T06:22:03Z</time>
      </trkpt>
      <trkpt lat="37.184945996850729" lon="-3.596702981740236">
        <ele>738.90999999999997</ele>
        <time>2025-05-12T06:22:06Z</time>
      </trkpt>
      <trkpt lat="37.185072982683778" lon="-3.596306014806032">
        <ele>735.07000000000005</ele>
        <time>2025-05-12T06:22:13Z</time>
      </trkpt>
      <trkpt lat="37.185084968805313" lon="-3.596296962350607">
        <ele>734.58000000000004</ele>
        <time>2025-05-12T06:22:14Z</time>
      </trkpt>
      <trkpt lat="37.185126962140203" lon="-3.596263015642762">
        <ele>734.10000000000002</ele>
        <time>2025-05-12T06:22:15Z</time>
      </trkpt>
      <trkpt lat="37.185188988223672" lon="-3.596220016479492">
        <ele>733.62</ele>
        <time>2025-05-12T06:22:16Z</time>
      </trkpt>
      <trkpt lat="37.185293007642031" lon="-3.596247006207705">
        <ele>733.13999999999999</ele>
        <time>2025-05-12T06:22:17Z</time>
      </trkpt>
      <trkpt lat="37.185350004583597" lon="-3.59630299732089">
        <ele>733.13999999999999</ele>
        <time>2025-05-12T06:22:18Z</time>
      </trkpt>
      <trkpt lat="37.185330977663398" lon="-3.596498966217041">
        <ele>732.17999999999995</ele>
        <time>2025-05-12T06:22:19Z</time>
      </trkpt>
      <trkpt lat="37.18533500097692" lon="-3.596567027270794">
        <ele>732.17999999999995</ele>
        <time>2025-05-12T06:22:20Z</time>
      </trkpt>
      <trkpt lat="37.185341035947204" lon="-3.596658976748586">
        <ele>732.17999999999995</ele>
        <time>2025-05-12T06:22:21Z</time>
      </trkpt>
      <trkpt lat="37.185345981270075" lon="-3.596748998388648">
        <ele>732.17999999999995</ele>
        <time>2025-05-12T06:22:22Z</time>
      </trkpt>
      <trkpt lat="37.185352016240358" lon="-3.596842037513852">
        <ele>732.65999999999997</ele>
        <time>2025-05-12T06:22:23Z</time>
      </trkpt>
      <trkpt lat="37.185344975441694" lon="-3.596917977556586">
        <ele>732.65999999999997</ele>
        <time>2025-05-12T06:22:24Z</time>
      </trkpt>
      <trkpt lat="37.18533500097692" lon="-3.597015962004662">
        <ele>732.65999999999997</ele>
        <time>2025-05-12T06:22:25Z</time>
      </trkpt>
      <trkpt lat="37.185337012633681" lon="-3.597113024443388">
        <ele>732.17999999999995</ele>
        <time>2025-05-12T06:22:26Z</time>
      </trkpt>
      <trkpt lat="37.185347992926836" lon="-3.597211008891463">
        <ele>731.70000000000005</ele>
        <time>2025-05-12T06:22:27Z</time>
      </trkpt>
      <trkpt lat="37.185380011796951" lon="-3.597305975854397">
        <ele>731.70000000000005</ele>
        <time>2025-05-12T06:22:28Z</time>
      </trkpt>
      <trkpt lat="37.185422005131841" lon="-3.597389962524176">
        <ele>731.22000000000003</ele>
        <time>2025-05-12T06:22:29Z</time>
      </trkpt>
      <trkpt lat="37.185479002073407" lon="-3.597469003871083">
        <ele>730.74000000000001</ele>
        <time>2025-05-12T06:22:30Z</time>
      </trkpt>
      <trkpt lat="37.185535999014974" lon="-3.597533041611314">
        <ele>730.25999999999999</ele>
        <time>2025-05-12T06:22:31Z</time>
      </trkpt>
      <trkpt lat="37.185704978182912" lon="-3.597726998850703">
        <ele>729.29999999999995</ele>
        <time>2025-05-12T06:22:34Z</time>
      </trkpt>
      <trkpt lat="37.185773039236665" lon="-3.597796987742186">
        <ele>729.29999999999995</ele>
        <time>2025-05-12T06:22:35Z</time>
      </trkpt>
      <trkpt lat="37.186002032831311" lon="-3.598008966073394">
        <ele>728.82000000000005</ele>
        <time>2025-05-12T06:22:38Z</time>
      </trkpt>
      <trkpt lat="37.186060035601258" lon="-3.598093036562204">
        <ele>728.82000000000005</ele>
        <time>2025-05-12T06:22:39Z</time>
      </trkpt>
      <trkpt lat="37.186120972037315" lon="-3.598195966333151">
        <ele>728.34000000000003</ele>
        <time>2025-05-12T06:22:40Z</time>
      </trkpt>
      <trkpt lat="37.186145028099418" lon="-3.598271990194917">
        <ele>728.34000000000003</ele>
        <time>2025-05-12T06:22:41Z</time>
      </trkpt>
      <trkpt lat="37.186141004785895" lon="-3.598392019048333">
        <ele>728.34000000000003</ele>
        <time>2025-05-12T06:22:42Z</time>
      </trkpt>
      <trkpt lat="37.186137987300754" lon="-3.59851498156786">
        <ele>727.86000000000001</ele>
        <time>2025-05-12T06:22:43Z</time>
      </trkpt>
      <trkpt lat="37.186133963987231" lon="-3.598636016249657">
        <ele>727.37</ele>
        <time>2025-05-12T06:22:44Z</time>
      </trkpt>
      <trkpt lat="37.186130024492741" lon="-3.598758978769183">
        <ele>726.88999999999999</ele>
        <time>2025-05-12T06:22:45Z</time>
      </trkpt>
      <trkpt lat="37.186126001179218" lon="-3.5988790076226">
        <ele>726.40999999999997</ele>
        <time>2025-05-12T06:22:46Z</time>
      </trkpt>
      <trkpt lat="37.186147039756179" lon="-3.599000964313746">
        <ele>725.92999999999995</ele>
        <time>2025-05-12T06:22:47Z</time>
      </trkpt>
      <trkpt lat="37.186182998120785" lon="-3.599099032580853">
        <ele>724.97000000000003</ele>
        <time>2025-05-12T06:22:48Z</time>
      </trkpt>
      <trkpt lat="37.186242006719112" lon="-3.599186036735773">
        <ele>724.97000000000003</ele>
        <time>2025-05-12T06:22:49Z</time>
      </trkpt>
      <trkpt lat="37.186313001438975" lon="-3.599221995100379">
        <ele>724.00999999999999</ele>
        <time>2025-05-12T06:22:50Z</time>
      </trkpt>
      <trkpt lat="37.186401011422276" lon="-3.599242027848959">
        <ele>723.52999999999997</ele>
        <time>2025-05-12T06:22:51Z</time>
      </trkpt>
      <trkpt lat="37.186482986435294" lon="-3.599233981221914">
        <ele>723.04999999999995</ele>
        <time>2025-05-12T06:22:52Z</time>
      </trkpt>
      <trkpt lat="37.186575019732118" lon="-3.59922400675714">
        <ele>722.57000000000005</ele>
        <time>2025-05-12T06:22:53Z</time>
      </trkpt>
      <trkpt lat="37.186651965603232" lon="-3.599187964573503">
        <ele>722.09000000000003</ele>
        <time>2025-05-12T06:22:54Z</time>
      </trkpt>
      <trkpt lat="37.186732012778521" lon="-3.599151000380516">
        <ele>721.61000000000001</ele>
        <time>2025-05-12T06:22:55Z</time>
      </trkpt>
      <trkpt lat="37.187049016356468" lon="-3.599025020375848">
        <ele>720.64999999999998</ele>
        <time>2025-05-12T06:22:59Z</time>
      </trkpt>
      <trkpt lat="37.187125962227583" lon="-3.599005993455648">
        <ele>720.15999999999997</ele>
        <time>2025-05-12T06:23:00Z</time>
      </trkpt>
      <trkpt lat="37.187196034938097" lon="-3.59898897819221">
        <ele>719.67999999999995</ele>
        <time>2025-05-12T06:23:01Z</time>
      </trkpt>
      <trkpt lat="37.187258983030915" lon="-3.59900800511241">
        <ele>719.67999999999995</ele>
        <time>2025-05-12T06:23:02Z</time>
      </trkpt>
      <trkpt lat="37.18731296248734" lon="-3.599027032032609">
        <ele>719.20000000000005</ele>
        <time>2025-05-12T06:23:03Z</time>
      </trkpt>
      <trkpt lat="37.1873530279845" lon="-3.599040023982525">
        <ele>718.72000000000003</ele>
        <time>2025-05-12T06:23:04Z</time>
      </trkpt>
      <trkpt lat="37.187440032139421" lon="-3.599087968468666">
        <ele>718.24000000000001</ele>
        <time>2025-05-12T06:23:12Z</time>
      </trkpt>
      <trkpt lat="37.18752502463758" lon="-3.599151000380516">
        <ele>718.24000000000001</ele>
        <time>2025-05-12T06:23:53Z</time>
      </trkpt>
      <trkpt lat="37.187773967161775" lon="-3.599348980933428">
        <ele>717.27999999999997</ele>
        <time>2025-05-12T06:24:00Z</time>
      </trkpt>
      <trkpt lat="37.187896007671952" lon="-3.599472027271986">
        <ele>716.79999999999995</ele>
        <time>2025-05-12T06:24:07Z</time>
      </trkpt>
      <trkpt lat="37.187905982136726" lon="-3.59948200173676">
        <ele>716.79999999999995</ele>
        <time>2025-05-12T06:24:08Z</time>
      </trkpt>
      <trkpt lat="37.187927020713687" lon="-3.599529024213553">
        <ele>716.79999999999995</ele>
        <time>2025-05-12T06:24:09Z</time>
      </trkpt>
      <trkpt lat="37.187948981299996" lon="-3.599577974528074">
        <ele>717.27999999999997</ele>
        <time>2025-05-12T06:24:10Z</time>
      </trkpt>
      <trkpt lat="37.187969014048576" lon="-3.599624997004867">
        <ele>716.79999999999995</ele>
        <time>2025-05-12T06:24:11Z</time>
      </trkpt>
      <trkpt lat="37.187990974634886" lon="-3.59967403113842">
        <ele>716.79999999999995</ele>
        <time>2025-05-12T06:24:12Z</time>
      </trkpt>
      <trkpt lat="37.188003966584802" lon="-3.599723987281323">
        <ele>716.79999999999995</ele>
        <time>2025-05-12T06:24:13Z</time>
      </trkpt>
      <trkpt lat="37.188031040132046" lon="-3.59980302862823">
        <ele>716.32000000000005</ele>
        <time>2025-05-12T06:24:14Z</time>
      </trkpt>
      <trkpt lat="37.188104968518019" lon="-3.599981982260943">
        <ele>715.36000000000001</ele>
        <time>2025-05-12T06:24:17Z</time>
      </trkpt>
      <trkpt lat="37.188131958246231" lon="-3.600041996687651">
        <ele>715.36000000000001</ele>
        <time>2025-05-12T06:24:18Z</time>
      </trkpt>
      <trkpt lat="37.188160959631205" lon="-3.600098993629217">
        <ele>714.88</ele>
        <time>2025-05-12T06:24:19Z</time>
      </trkpt>
      <trkpt lat="37.188186021521688" lon="-3.600149033591151">
        <ele>714.39999999999998</ele>
        <time>2025-05-12T06:24:20Z</time>
      </trkpt>
      <trkpt lat="37.188247963786125" lon="-3.600204018875957">
        <ele>714.39999999999998</ele>
        <time>2025-05-12T06:24:21Z</time>
      </trkpt>
      <trkpt lat="37.188292974606156" lon="-3.600220028311014">
        <ele>714.39999999999998</ele>
        <time>2025-05-12T06:24:22Z</time>
      </trkpt>
      <trkpt lat="37.188339997082949" lon="-3.600236037746072">
        <ele>713.91999999999996</ele>
        <time>2025-05-12T06:24:23Z</time>
      </trkpt>
      <trkpt lat="37.188389031216502" lon="-3.600253975018859">
        <ele>713.44000000000005</ele>
        <time>2025-05-12T06:24:24Z</time>
      </trkpt>
      <trkpt lat="37.18887803144753" lon="-3.600421026349068">
        <ele>710.07000000000005</ele>
        <time>2025-05-12T06:24:34Z</time>
      </trkpt>
      <trkpt lat="37.189113982021809" lon="-3.600504007190466">
        <ele>709.59000000000003</ele>
        <time>2025-05-12T06:24:41Z</time>
      </trkpt>
      <trkpt lat="37.189113982021809" lon="-3.600504007190466">
        <ele>709.11000000000001</ele>
        <time>2025-05-12T06:24:54Z</time>
      </trkpt>
      <trkpt lat="37.189113982021809" lon="-3.600504007190466">
        <ele>709.11000000000001</ele>
        <time>2025-05-12T06:25:07Z</time>
      </trkpt>
      <trkpt lat="37.189142983406782" lon="-3.60051398165524">
        <ele>710.07000000000005</ele>
        <time>2025-05-12T06:25:08Z</time>
      </trkpt>
      <trkpt lat="37.189169973134995" lon="-3.600524039939046">
        <ele>711.50999999999999</ele>
        <time>2025-05-12T06:25:09Z</time>
      </trkpt>
      <trkpt lat="37.189206015318632" lon="-3.600536026060581">
        <ele>712.47000000000003</ele>
        <time>2025-05-12T06:25:10Z</time>
      </trkpt>
      <trkpt lat="37.189248008653522" lon="-3.600551029667258">
        <ele>712.47000000000003</ele>
        <time>2025-05-12T06:25:11Z</time>
      </trkpt>
      <trkpt lat="37.189296958968043" lon="-3.600554969161749">
        <ele>712.95000000000005</ele>
        <time>2025-05-12T06:25:12Z</time>
      </trkpt>
      <trkpt lat="37.189345993101597" lon="-3.600554969161749">
        <ele>712.95000000000005</ele>
        <time>2025-05-12T06:25:13Z</time>
      </trkpt>
      <trkpt lat="37.189451018348336" lon="-3.600546000525355">
        <ele>713.91999999999996</ele>
        <time>2025-05-12T06:25:15Z</time>
      </trkpt>
      <trkpt lat="37.189510026946664" lon="-3.600522028282285">
        <ele>713.91999999999996</ele>
        <time>2025-05-12T06:25:16Z</time>
      </trkpt>
      <trkpt lat="37.189573980867863" lon="-3.600498978048563">
        <ele>713.91999999999996</ele>
        <time>2025-05-12T06:25:17Z</time>
      </trkpt>
      <trkpt lat="37.189698033034801" lon="-3.600457990542054">
        <ele>714.39999999999998</ele>
        <time>2025-05-12T06:25:19Z</time>
      </trkpt>
      <trkpt lat="37.189772967249155" lon="-3.600425971671939">
        <ele>714.39999999999998</ele>
        <time>2025-05-12T06:25:20Z</time>
      </trkpt>
      <trkpt lat="37.189830970019102" lon="-3.600435024127364">
        <ele>714.39999999999998</ele>
        <time>2025-05-12T06:25:21Z</time>
      </trkpt>
      <trkpt lat="37.189894001930952" lon="-3.600446004420519">
        <ele>714.39999999999998</ele>
        <time>2025-05-12T06:25:22Z</time>
      </trkpt>
      <trkpt lat="37.189947981387377" lon="-3.600463019683957">
        <ele>714.39999999999998</ele>
        <time>2025-05-12T06:25:23Z</time>
      </trkpt>
      <trkpt lat="37.190073039382696" lon="-3.600501995533705">
        <ele>715.36000000000001</ele>
        <time>2025-05-12T06:25:28Z</time>
      </trkpt>
      <trkpt lat="37.190089970827103" lon="-3.600507024675608">
        <ele>715.36000000000001</ele>
        <time>2025-05-12T06:25:29Z</time>
      </trkpt>
      <trkpt lat="37.190113021060824" lon="-3.60051398165524">
        <ele>715.36000000000001</ele>
        <time>2025-05-12T06:25:30Z</time>
      </trkpt>
      <trkpt lat="37.190113021060824" lon="-3.60051398165524">
        <ele>715.36000000000001</ele>
        <time>2025-05-12T06:25:31Z</time>
      </trkpt>
      <trkpt lat="37.190223997458816" lon="-3.600548012182117">
        <ele>715.84000000000003</ele>
        <time>2025-05-12T06:25:44Z</time>
      </trkpt>
      <trkpt lat="37.190245036035776" lon="-3.600554969161749">
        <ele>715.84000000000003</ele>
        <time>2025-05-12T06:25:45Z</time>
      </trkpt>
      <trkpt lat="37.19029700383544" lon="-3.600631998851895">
        <ele>715.84000000000003</ele>
        <time>2025-05-12T06:25:46Z</time>
      </trkpt>
      <trkpt lat="37.190329022705555" lon="-3.600682038813829">
        <ele>715.84000000000003</ele>
        <time>2025-05-12T06:25:47Z</time>
      </trkpt>
      <trkpt lat="37.190348971635103" lon="-3.600740041583777">
        <ele>716.32000000000005</ele>
        <time>2025-05-12T06:25:48Z</time>
      </trkpt>
      <trkpt lat="37.190371016040444" lon="-3.600805001333356">
        <ele>716.32000000000005</ele>
        <time>2025-05-12T06:25:49Z</time>
      </trkpt>
      <trkpt lat="37.190394988283515" lon="-3.600875996053219">
        <ele>716.32000000000005</ele>
        <time>2025-05-12T06:25:50Z</time>
      </trkpt>
      <trkpt lat="37.190391970798373" lon="-3.600930981338024">
        <ele>716.32000000000005</ele>
        <time>2025-05-12T06:25:51Z</time>
      </trkpt>
      <trkpt lat="37.190388031303883" lon="-3.60100700519979">
        <ele>716.32000000000005</ele>
        <time>2025-05-12T06:25:52Z</time>
      </trkpt>
      <trkpt lat="37.19038300216198" lon="-3.601085040718317">
        <ele>716.32000000000005</ele>
        <time>2025-05-12T06:25:53Z</time>
      </trkpt>
      <trkpt lat="37.1903629694134" lon="-3.601422999054194">
        <ele>715.36000000000001</ele>
        <time>2025-05-12T06:26:00Z</time>
      </trkpt>
      <trkpt lat="37.190332040190697" lon="-3.602052982896566">
        <ele>714.39999999999998</ele>
        <time>2025-05-12T06:26:07Z</time>
      </trkpt>
      <trkpt lat="37.19029800966382" lon="-3.602249035611749">
        <ele>713.44000000000005</ele>
        <time>2025-05-12T06:26:09Z</time>
      </trkpt>
      <trkpt lat="37.19027797691524" lon="-3.602352971211076">
        <ele>712.95000000000005</ele>
        <time>2025-05-12T06:26:10Z</time>
      </trkpt>
      <trkpt lat="37.190163983032107" lon="-3.602894023060799">
        <ele>710.07000000000005</ele>
        <time>2025-05-12T06:26:17Z</time>
      </trkpt>
      <trkpt lat="37.1900400146842" lon="-3.6034120246768">
        <ele>706.71000000000004</ele>
        <time>2025-05-12T06:26:26Z</time>
      </trkpt>
      <trkpt lat="37.1900400146842" lon="-3.6034120246768">
        <ele>705.25999999999999</ele>
        <time>2025-05-12T06:26:39Z</time>
      </trkpt>
      <trkpt lat="37.1900400146842" lon="-3.6034120246768">
        <ele>704.29999999999995</ele>
        <time>2025-05-12T06:27:02Z</time>
      </trkpt>
      <trkpt lat="37.190001038834453" lon="-3.603579998016357">
        <ele>702.38</ele>
        <time>2025-05-12T06:27:11Z</time>
      </trkpt>
      <trkpt lat="37.18997698277235" lon="-3.603682005777955">
        <ele>701.41999999999996</ele>
        <time>2025-05-12T06:27:12Z</time>
      </trkpt>
      <trkpt lat="37.189944041892886" lon="-3.603794993832707">
        <ele>700.94000000000005</ele>
        <time>2025-05-12T06:27:13Z</time>
      </trkpt>
      <trkpt lat="37.189900958910584" lon="-3.603922985494137">
        <ele>700.46000000000004</ele>
        <time>2025-05-12T06:27:14Z</time>
      </trkpt>
      <trkpt lat="37.189872041344643" lon="-3.604012001305819">
        <ele>699.5</ele>
        <time>2025-05-12T06:27:15Z</time>
      </trkpt>
      <trkpt lat="37.189835999161005" lon="-3.604118032380939">
        <ele>699.01999999999998</ele>
        <time>2025-05-12T06:27:16Z</time>
      </trkpt>
      <trkpt lat="37.189767016097903" lon="-3.604324981570244">
        <ele>698.04999999999995</ele>
        <time>2025-05-12T06:27:18Z</time>
      </trkpt>
      <trkpt lat="37.189451018348336" lon="-3.605188988149166">
        <ele>693.73000000000002</ele>
        <time>2025-05-12T06:27:27Z</time>
      </trkpt>
      <trkpt lat="37.189413970336318" lon="-3.605294013395906">
        <ele>690.84000000000003</ele>
        <time>2025-05-12T06:27:34Z</time>
      </trkpt>
      <trkpt lat="37.189397038891912" lon="-3.605342041701078">
        <ele>690.36000000000001</ele>
        <time>2025-05-12T06:27:36Z</time>
      </trkpt>
      <trkpt lat="37.189388992264867" lon="-3.605365008115768">
        <ele>689.39999999999998</ele>
        <time>2025-05-12T06:27:37Z</time>
      </trkpt>
      <trkpt lat="37.189376000314951" lon="-3.605401972308755">
        <ele>688.44000000000005</ele>
        <time>2025-05-12T06:27:38Z</time>
      </trkpt>
      <trkpt lat="37.18935496173799" lon="-3.605586960911751">
        <ele>687.96000000000004</ele>
        <time>2025-05-12T06:27:39Z</time>
      </trkpt>
      <trkpt lat="37.189388992264867" lon="-3.605620991438627">
        <ele>687</ele>
        <time>2025-05-12T06:27:40Z</time>
      </trkpt>
      <trkpt lat="37.189430985599756" lon="-3.605662984773517">
        <ele>686.51999999999998</ele>
        <time>2025-05-12T06:27:41Z</time>
      </trkpt>
      <trkpt lat="37.189471973106265" lon="-3.605704978108406">
        <ele>686.03999999999996</ele>
        <time>2025-05-12T06:27:42Z</time>
      </trkpt>
      <trkpt lat="37.189513966441154" lon="-3.605745965614915">
        <ele>685.55999999999995</ele>
        <time>2025-05-12T06:27:43Z</time>
      </trkpt>
      <trkpt lat="37.189630977809429" lon="-3.60586398281157">
        <ele>684.12</ele>
        <time>2025-05-12T06:27:46Z</time>
      </trkpt>
      <trkpt lat="37.189665008336306" lon="-3.605918968096376">
        <ele>683.63</ele>
        <time>2025-05-12T06:27:47Z</time>
      </trkpt>
      <trkpt lat="37.189685041084886" lon="-3.605965990573168">
        <ele>683.63</ele>
        <time>2025-05-12T06:27:48Z</time>
      </trkpt>
      <trkpt lat="37.189713036641479" lon="-3.606029022485018">
        <ele>683.63</ele>
        <time>2025-05-12T06:27:49Z</time>
      </trkpt>
      <trkpt lat="37.189727034419775" lon="-3.606092976406217">
        <ele>683.63</ele>
        <time>2025-05-12T06:27:50Z</time>
      </trkpt>
      <trkpt lat="37.18971898779273" lon="-3.606167994439602">
        <ele>683.63</ele>
        <time>2025-05-12T06:27:51Z</time>
      </trkpt>
      <trkpt lat="37.189708007499576" lon="-3.606262039393187">
        <ele>683.63</ele>
        <time>2025-05-12T06:27:52Z</time>
      </trkpt>
      <trkpt lat="37.189659979194403" lon="-3.606310989707708">
        <ele>683.14999999999998</ele>
        <time>2025-05-12T06:27:53Z</time>
      </trkpt>
      <trkpt lat="37.189601976424456" lon="-3.606367986649275">
        <ele>682.66999999999996</ele>
        <time>2025-05-12T06:27:54Z</time>
      </trkpt>
      <trkpt lat="37.188908038660884" lon="-3.606778029352427">
        <ele>680.75</ele>
        <time>2025-05-12T06:28:02Z</time>
      </trkpt>
      <trkpt lat="37.188831008970737" lon="-3.606823040172458">
        <ele>680.75</ele>
        <time>2025-05-12T06:28:03Z</time>
      </trkpt>
      <trkpt lat="37.188758002594113" lon="-3.606867967173457">
        <ele>680.75</ele>
        <time>2025-05-12T06:28:04Z</time>
      </trkpt>
      <trkpt lat="37.188462037593126" lon="-3.607047004625201">
        <ele>678.83000000000004</ele>
        <time>2025-05-12T06:28:11Z</time>
      </trkpt>
      <trkpt lat="37.188462037593126" lon="-3.607047004625201">
        <ele>678.83000000000004</ele>
        <time>2025-05-12T06:28:31Z</time>
      </trkpt>
      <trkpt lat="37.188220974057913" lon="-3.607211038470268">
        <ele>675.46000000000004</ele>
        <time>2025-05-12T06:28:42Z</time>
      </trkpt>
      <trkpt lat="37.187729040160775" lon="-3.607526030391455">
        <ele>673.53999999999996</ele>
        <time>2025-05-12T06:28:49Z</time>
      </trkpt>
      <trkpt lat="37.187663996592164" lon="-3.607569029554725">
        <ele>673.05999999999995</ele>
        <time>2025-05-12T06:28:50Z</time>
      </trkpt>
      <trkpt lat="37.187186982482672" lon="-3.607869017869234">
        <ele>671.13999999999999</ele>
        <time>2025-05-12T06:28:57Z</time>
      </trkpt>
      <trkpt lat="37.18668800778687" lon="-3.608123995363712">
        <ele>668.73000000000002</ele>
        <time>2025-05-12T06:29:07Z</time>
      </trkpt>
      <trkpt lat="37.18668800778687" lon="-3.608123995363712">
        <ele>668.25</ele>
        <time>2025-05-12T06:29:25Z</time>
      </trkpt>
      <trkpt lat="37.186565967276692" lon="-3.608176968991756">
        <ele>669.70000000000005</ele>
        <time>2025-05-12T06:30:03Z</time>
      </trkpt>
      <trkpt lat="37.186350971460342" lon="-3.608270008116961">
        <ele>677.87</ele>
        <time>2025-05-12T06:30:12Z</time>
      </trkpt>
      <trkpt lat="37.186042014509439" lon="-3.608365980908275">
        <ele>685.08000000000004</ele>
        <time>2025-05-12T06:30:20Z</time>
      </trkpt>
      <trkpt lat="37.185997003689408" lon="-3.608376039192081">
        <ele>685.55999999999995</ele>
        <time>2025-05-12T06:30:21Z</time>
      </trkpt>
      <trkpt lat="37.185949981212616" lon="-3.608379978686571">
        <ele>686.51999999999998</ele>
        <time>2025-05-12T06:30:22Z</time>
      </trkpt>
      <trkpt lat="37.185931960120797" lon="-3.608345026150346">
        <ele>687.48000000000002</ele>
        <time>2025-05-12T06:30:23Z</time>
      </trkpt>
      <trkpt lat="37.18591402284801" lon="-3.608307978138328">
        <ele>687.96000000000004</ele>
        <time>2025-05-12T06:30:24Z</time>
      </trkpt>
      <trkpt lat="37.185897007584572" lon="-3.608275037258863">
        <ele>688.91999999999996</ele>
        <time>2025-05-12T06:30:25Z</time>
      </trkpt>
      <trkpt lat="37.185883009806275" lon="-3.60824603587389">
        <ele>689.39999999999998</ele>
        <time>2025-05-12T06:30:26Z</time>
      </trkpt>
      <trkpt lat="37.18587102368474" lon="-3.608222985640168">
        <ele>689.88</ele>
        <time>2025-05-12T06:30:27Z</time>
      </trkpt>
      <trkpt lat="37.185839004814625" lon="-3.608159031718969">
        <ele>690.84000000000003</ele>
        <time>2025-05-12T06:30:29Z</time>
      </trkpt>
      <trkpt lat="37.185814026743174" lon="-3.608107985928655">
        <ele>690.84000000000003</ele>
        <time>2025-05-12T06:30:30Z</time>
      </trkpt>
      <trkpt lat="37.185748983174562" lon="-3.607977982610464">
        <ele>691.33000000000004</ele>
        <time>2025-05-12T06:30:32Z</time>
      </trkpt>
      <trkpt lat="37.185712018981576" lon="-3.607902964577079">
        <ele>691.80999999999995</ele>
        <time>2025-05-12T06:30:33Z</time>
      </trkpt>
      <trkpt lat="37.185676982626319" lon="-3.607833981513977">
        <ele>692.28999999999996</ele>
        <time>2025-05-12T06:30:34Z</time>
      </trkpt>
      <trkpt lat="37.185644963756204" lon="-3.607770027592778">
        <ele>692.76999999999998</ele>
        <time>2025-05-12T06:30:35Z</time>
      </trkpt>
      <trkpt lat="37.18561302870512" lon="-3.607705989852548">
        <ele>693.25</ele>
        <time>2025-05-12T06:30:36Z</time>
      </trkpt>
      <trkpt lat="37.185488976538181" lon="-3.607450006529689">
        <ele>694.21000000000004</ele>
        <time>2025-05-12T06:30:40Z</time>
      </trkpt>
      <trkpt lat="37.18544396571815" lon="-3.607328971847892">
        <ele>696.13</ele>
        <time>2025-05-12T06:30:48Z</time>
      </trkpt>
      <trkpt lat="37.18537699431181" lon="-3.607203997671604">
        <ele>696.61000000000001</ele>
        <time>2025-05-12T06:30:51Z</time>
      </trkpt>
      <trkpt lat="37.185365008190274" lon="-3.607182037085295">
        <ele>696.61000000000001</ele>
        <time>2025-05-12T06:30:52Z</time>
      </trkpt>
      <trkpt lat="37.185181025415659" lon="-3.606798984110355">
        <ele>695.16999999999996</ele>
        <time>2025-05-12T06:31:02Z</time>
      </trkpt>
      <trkpt lat="37.184805013239384" lon="-3.606042014434934">
        <ele>691.33000000000004</ele>
        <time>2025-05-12T06:31:08Z</time>
      </trkpt>
      <trkpt lat="37.184387007728219" lon="-3.605189993977547">
        <ele>685.55999999999995</ele>
        <time>2025-05-12T06:31:16Z</time>
      </trkpt>
      <trkpt lat="37.18400496058166" lon="-3.604406034573913">
        <ele>678.35000000000002</ele>
        <time>2025-05-12T06:31:27Z</time>
      </trkpt>
      <trkpt lat="37.183538004755974" lon="-3.60345896333456">
        <ele>673.53999999999996</ele>
        <time>2025-05-12T06:31:38Z</time>
      </trkpt>
      <trkpt lat="37.183496011421084" lon="-3.603362990543246">
        <ele>674.01999999999998</ele>
        <time>2025-05-12T06:31:39Z</time>
      </trkpt>
      <trkpt lat="37.183449994772673" lon="-3.603265006095171">
        <ele>674.01999999999998</ele>
        <time>2025-05-12T06:31:40Z</time>
      </trkpt>
      <trkpt lat="37.183087980374694" lon="-3.602591017261148">
        <ele>675.94000000000005</ele>
        <time>2025-05-12T06:31:50Z</time>
      </trkpt>
      <trkpt lat="37.18290600925684" lon="-3.602163959294558">
        <ele>677.87</ele>
        <time>2025-05-12T06:32:02Z</time>
      </trkpt>
      <trkpt lat="37.182937022298574" lon="-3.60210201703012">
        <ele>677.87</ele>
        <time>2025-05-12T06:32:03Z</time>
      </trkpt>
      <trkpt lat="37.182951020076871" lon="-3.602077038958669">
        <ele>677.87</ele>
        <time>2025-05-12T06:32:04Z</time>
      </trkpt>
      <trkpt lat="37.18299200758338" lon="-3.602057006210089">
        <ele>677.87</ele>
        <time>2025-05-12T06:32:05Z</time>
      </trkpt>
      <trkpt lat="37.18305797316134" lon="-3.602086007595062">
        <ele>677.87</ele>
        <time>2025-05-12T06:32:06Z</time>
      </trkpt>
      <trkpt lat="37.183107007294893" lon="-3.602146022021771">
        <ele>678.35000000000002</ele>
        <time>2025-05-12T06:32:07Z</time>
      </trkpt>
      <trkpt lat="37.183156041428447" lon="-3.602220034226775">
        <ele>678.35000000000002</ele>
        <time>2025-05-12T06:32:08Z</time>
      </trkpt>
      <trkpt lat="37.183200968429446" lon="-3.602292034775019">
        <ele>678.83000000000004</ele>
        <time>2025-05-12T06:32:09Z</time>
      </trkpt>
      <trkpt lat="37.183243967592716" lon="-3.602366968989372">
        <ele>678.83000000000004</ele>
        <time>2025-05-12T06:32:10Z</time>
      </trkpt>
      <trkpt lat="37.18348796479404" lon="-3.6028559692204">
        <ele>680.75</ele>
        <time>2025-05-12T06:32:17Z</time>
      </trkpt>
      <trkpt lat="37.183533981442451" lon="-3.602943979203701">
        <ele>681.23000000000002</ele>
        <time>2025-05-12T06:32:20Z</time>
      </trkpt>
      <trkpt lat="37.183533981442451" lon="-3.602943979203701">
        <ele>681.23000000000002</ele>
        <time>2025-05-12T06:32:34Z</time>
      </trkpt>
      <trkpt lat="37.183566000312567" lon="-3.603002987802029">
        <ele>681.71000000000004</ele>
        <time>2025-05-12T06:32:39Z</time>
      </trkpt>
      <trkpt lat="37.183807985857129" lon="-3.603459969162941">
        <ele>683.14999999999998</ele>
        <time>2025-05-12T06:32:49Z</time>
      </trkpt>
      <trkpt lat="37.18385199084878" lon="-3.603539010509849">
        <ele>683.14999999999998</ele>
        <time>2025-05-12T06:32:50Z</time>
      </trkpt>
      <trkpt lat="37.184235965833068" lon="-3.604245018213987">
        <ele>682.66999999999996</ele>
        <time>2025-05-12T06:32:56Z</time>
      </trkpt>
      <trkpt lat="37.184235965833068" lon="-3.604245018213987">
        <ele>682.66999999999996</ele>
        <time>2025-05-12T06:32:57Z</time>
      </trkpt>
      <trkpt lat="37.184253986924887" lon="-3.604274019598961">
        <ele>682.66999999999996</ele>
        <time>2025-05-12T06:32:58Z</time>
      </trkpt>
      <trkpt lat="37.184267984703183" lon="-3.60429598018527">
        <ele>682.19000000000005</ele>
        <time>2025-05-12T06:32:59Z</time>
      </trkpt>
      <trkpt lat="37.184287011623383" lon="-3.604326993227005">
        <ele>682.19000000000005</ele>
        <time>2025-05-12T06:33:00Z</time>
      </trkpt>
      <trkpt lat="37.184311989694834" lon="-3.604368986561894">
        <ele>682.19000000000005</ele>
        <time>2025-05-12T06:33:01Z</time>
      </trkpt>
      <trkpt lat="37.184337973594666" lon="-3.604409974068403">
        <ele>682.19000000000005</ele>
        <time>2025-05-12T06:33:02Z</time>
      </trkpt>
      <trkpt lat="37.184357000514865" lon="-3.604440987110138">
        <ele>682.19000000000005</ele>
        <time>2025-05-12T06:33:03Z</time>
      </trkpt>
      <trkpt lat="37.18441198579967" lon="-3.604535032063723">
        <ele>681.71000000000004</ele>
        <time>2025-05-12T06:33:11Z</time>
      </trkpt>
      <trkpt lat="37.18471297994256" lon="-3.60521899536252">
        <ele>680.26999999999998</ele>
        <time>2025-05-12T06:33:18Z</time>
      </trkpt>
      <trkpt lat="37.184758996590972" lon="-3.605311028659344">
        <ele>680.26999999999998</ele>
        <time>2025-05-12T06:33:19Z</time>
      </trkpt>
      <trkpt lat="37.184812976047397" lon="-3.605399038642645">
        <ele>680.26999999999998</ele>
        <time>2025-05-12T06:33:20Z</time>
      </trkpt>
      <trkpt lat="37.184867039322853" lon="-3.605481013655663">
        <ele>679.78999999999996</ele>
        <time>2025-05-12T06:33:21Z</time>
      </trkpt>
      <trkpt lat="37.185250008478761" lon="-3.606272013857961">
        <ele>676.41999999999996</ele>
        <time>2025-05-12T06:33:29Z</time>
      </trkpt>
      <trkpt lat="37.185294013470411" lon="-3.606375027447939">
        <ele>675.94000000000005</ele>
        <time>2025-05-12T06:33:30Z</time>
      </trkpt>
      <trkpt lat="37.185336006805301" lon="-3.606478963047266">
        <ele>675.46000000000004</ele>
        <time>2025-05-12T06:33:31Z</time>
      </trkpt>
      <trkpt lat="37.185423010960221" lon="-3.606682978570461">
        <ele>674.98000000000002</ele>
        <time>2025-05-12T06:33:33Z</time>
      </trkpt>
      <trkpt lat="37.185514038428664" lon="-3.606877019628882">
        <ele>674.01999999999998</ele>
        <time>2025-05-12T06:33:35Z</time>
      </trkpt>
      <trkpt lat="37.185629038140178" lon="-3.607114981859922">
        <ele>673.05999999999995</ele>
        <time>2025-05-12T06:33:38Z</time>
      </trkpt>
      <trkpt lat="37.185969008132815" lon="-3.607817972078919">
        <ele>670.17999999999995</ele>
        <time>2025-05-12T06:33:48Z</time>
      </trkpt>
      <trkpt lat="37.186036985367537" lon="-3.607954010367394">
        <ele>670.65999999999997</ele>
        <time>2025-05-12T06:33:50Z</time>
      </trkpt>
      <trkpt lat="37.186093982309103" lon="-3.608066998422146">
        <ele>671.13999999999999</ele>
        <time>2025-05-12T06:33:52Z</time>
      </trkpt>
      <trkpt lat="37.186261033639312" lon="-3.608385007828474">
        <ele>671.62</ele>
        <time>2025-05-12T06:34:00Z</time>
      </trkpt>
      <trkpt lat="37.186391958966851" lon="-3.608686001971364">
        <ele>670.17999999999995</ele>
        <time>2025-05-12T06:34:10Z</time>
      </trkpt>
      <trkpt lat="37.186633022502065" lon="-3.609167961403728">
        <ele>667.76999999999998</ele>
        <time>2025-05-12T06:34:20Z</time>
      </trkpt>
      <trkpt lat="37.186786998063326" lon="-3.609511032700539">
        <ele>666.33000000000004</ele>
        <time>2025-05-12T06:34:26Z</time>
      </trkpt>
      <trkpt lat="37.186890011653304" lon="-3.609757963567972">
        <ele>665.37</ele>
        <time>2025-05-12T06:34:35Z</time>
      </trkpt>
      <trkpt lat="37.186919013038278" lon="-3.609824012964964">
        <ele>665.37</ele>
        <time>2025-05-12T06:34:54Z</time>
      </trkpt>
      <trkpt lat="37.186922030523419" lon="-3.609835999086499">
        <ele>666.33000000000004</ele>
        <time>2025-05-12T06:34:55Z</time>
      </trkpt>
      <trkpt lat="37.187147000804543" lon="-3.610519962385297">
        <ele>671.13999999999999</ele>
        <time>2025-05-12T06:35:05Z</time>
      </trkpt>
      <trkpt lat="37.187412036582828" lon="-3.611176013946533">
        <ele>673.05999999999995</ele>
        <time>2025-05-12T06:35:15Z</time>
      </trkpt>
      <trkpt lat="37.187453024089336" lon="-3.611241979524493">
        <ele>673.53999999999996</ele>
        <time>2025-05-12T06:35:22Z</time>
      </trkpt>
      <trkpt lat="37.187583027407527" lon="-3.611453035846353">
        <ele>674.01999999999998</ele>
        <time>2025-05-12T06:35:45Z</time>
      </trkpt>
      <trkpt lat="37.187599036842585" lon="-3.611479019746184">
        <ele>673.05999999999995</ele>
        <time>2025-05-12T06:35:54Z</time>
      </trkpt>
      <trkpt lat="37.187734991312027" lon="-3.611692003905773">
        <ele>669.70000000000005</ele>
        <time>2025-05-12T06:36:13Z</time>
      </trkpt>
      <trkpt lat="37.187989968806505" lon="-3.612091988325119">
        <ele>671.62</ele>
        <time>2025-05-12T06:36:20Z</time>
      </trkpt>
      <trkpt lat="37.188140004873276" lon="-3.612326011061668">
        <ele>674.01999999999998</ele>
        <time>2025-05-12T06:36:27Z</time>
      </trkpt>
      <trkpt lat="37.188140004873276" lon="-3.612326011061668">
        <ele>674.01999999999998</ele>
        <time>2025-05-12T06:36:53Z</time>
      </trkpt>
      <trkpt lat="37.188179986551404" lon="-3.612388959154487">
        <ele>675.94000000000005</ele>
        <time>2025-05-12T06:37:24Z</time>
      </trkpt>
      <trkpt lat="37.18830001540482" lon="-3.612578976899386">
        <ele>677.38999999999999</ele>
        <time>2025-05-12T06:37:27Z</time>
      </trkpt>
      <trkpt lat="37.188356006518006" lon="-3.612677967175841">
        <ele>677.38999999999999</ele>
        <time>2025-05-12T06:37:28Z</time>
      </trkpt>
      <trkpt lat="37.188421972095966" lon="-3.612745022401214">
        <ele>677.38999999999999</ele>
        <time>2025-05-12T06:37:29Z</time>
      </trkpt>
      <trkpt lat="37.189049022272229" lon="-3.613637024536729">
        <ele>676.90999999999997</ele>
        <time>2025-05-12T06:37:40Z</time>
      </trkpt>
      <trkpt lat="37.189128985628486" lon="-3.613751018419862">
        <ele>676.90999999999997</ele>
        <time>2025-05-12T06:37:48Z</time>
      </trkpt>
      <trkpt lat="37.189135020598769" lon="-3.613761998713017">
        <ele>676.90999999999997</ele>
        <time>2025-05-12T06:38:25Z</time>
      </trkpt>
      <trkpt lat="37.189147006720304" lon="-3.613783959299326">
        <ele>676.90999999999997</ele>
        <time>2025-05-12T06:38:26Z</time>
      </trkpt>
      <trkpt lat="37.189253959804773" lon="-3.613973977044225">
        <ele>676.90999999999997</ele>
        <time>2025-05-12T06:38:35Z</time>
      </trkpt>
      <trkpt lat="37.189300982281566" lon="-3.614057963714004">
        <ele>674.5</ele>
        <time>2025-05-12T06:38:55Z</time>
      </trkpt>
      <trkpt lat="37.189432997256517" lon="-3.614293998107314">
        <ele>672.10000000000002</ele>
        <time>2025-05-12T06:39:06Z</time>
      </trkpt>
      <trkpt lat="37.189537016674876" lon="-3.614480998367071">
        <ele>670.17999999999995</ele>
        <time>2025-05-12T06:39:13Z</time>
      </trkpt>
      <trkpt lat="37.189751006662846" lon="-3.614502036944032">
        <ele>669.70000000000005</ele>
        <time>2025-05-12T06:39:17Z</time>
      </trkpt>
      <trkpt lat="37.189787970855832" lon="-3.614519974216819">
        <ele>669.22000000000003</ele>
        <time>2025-05-12T06:39:18Z</time>
      </trkpt>
      <trkpt lat="37.189769027754664" lon="-3.614592980593443">
        <ele>669.22000000000003</ele>
        <time>2025-05-12T06:39:19Z</time>
      </trkpt>
      <trkpt lat="37.189772967249155" lon="-3.614608990028501">
        <ele>668.73000000000002</ele>
        <time>2025-05-12T06:39:20Z</time>
      </trkpt>
      <trkpt lat="37.189772967249155" lon="-3.614608990028501">
        <ele>668.73000000000002</ele>
        <time>2025-05-12T06:39:21Z</time>
      </trkpt>
      <trkpt lat="37.189753018319607" lon="-3.614746034145355">
        <ele>668.73000000000002</ele>
        <time>2025-05-12T06:39:22Z</time>
      </trkpt>
      <trkpt lat="37.189819989725947" lon="-3.614911995828152">
        <ele>668.25</ele>
        <time>2025-05-12T06:39:24Z</time>
      </trkpt>
      <trkpt lat="37.190090976655483" lon="-3.615524964407086">
        <ele>665.37</ele>
        <time>2025-05-12T06:39:31Z</time>
      </trkpt>
      <trkpt lat="37.190691037103534" lon="-3.61692801117897">
        <ele>662.97000000000003</ele>
        <time>2025-05-12T06:39:43Z</time>
      </trkpt>
      <trkpt lat="37.191153969615698" lon="-3.61793702468276">
        <ele>662.49000000000001</ele>
        <time>2025-05-12T06:39:51Z</time>
      </trkpt>
      <trkpt lat="37.191207027062774" lon="-3.618055963888764">
        <ele>662.49000000000001</ele>
        <time>2025-05-12T06:39:52Z</time>
      </trkpt>
      <trkpt lat="37.191509027034044" lon="-3.618842018768191">
        <ele>662.49000000000001</ele>
        <time>2025-05-12T06:39:59Z</time>
      </trkpt>
      <trkpt lat="37.191540962085128" lon="-3.618930028751493">
        <ele>662.49000000000001</ele>
        <time>2025-05-12T06:40:00Z</time>
      </trkpt>
      <trkpt lat="37.191567029803991" lon="-3.61901099793613">
        <ele>662.49000000000001</ele>
        <time>2025-05-12T06:40:01Z</time>
      </trkpt>
      <trkpt lat="37.19158697873354" lon="-3.619084004312754">
        <ele>662.97000000000003</ele>
        <time>2025-05-12T06:40:02Z</time>
      </trkpt>
      <trkpt lat="37.191609023138881" lon="-3.619146030396223">
        <ele>663.45000000000005</ele>
        <time>2025-05-12T06:40:03Z</time>
      </trkpt>
      <trkpt lat="37.19162997789681" lon="-3.619199004024267">
        <ele>663.45000000000005</ele>
        <time>2025-05-12T06:40:04Z</time>
      </trkpt>
      <trkpt lat="37.191644981503487" lon="-3.619235968217254">
        <ele>663.92999999999995</ele>
        <time>2025-05-12T06:40:05Z</time>
      </trkpt>
      <trkpt lat="37.191655961796641" lon="-3.619263041764498">
        <ele>663.92999999999995</ele>
        <time>2025-05-12T06:40:06Z</time>
      </trkpt>
      <trkpt lat="37.191666020080447" lon="-3.619288019835949">
        <ele>663.92999999999995</ele>
        <time>2025-05-12T06:40:07Z</time>
      </trkpt>
      <trkpt lat="37.191680017858744" lon="-3.619323978200555">
        <ele>664.40999999999997</ele>
        <time>2025-05-12T06:40:08Z</time>
      </trkpt>
      <trkpt lat="37.191698960959911" lon="-3.619373012334108">
        <ele>664.40999999999997</ele>
        <time>2025-05-12T06:40:09Z</time>
      </trkpt>
      <trkpt lat="37.191723017022014" lon="-3.619433026760817">
        <ele>664.40999999999997</ele>
        <time>2025-05-12T06:40:10Z</time>
      </trkpt>
      <trkpt lat="37.191770039498806" lon="-3.619451969861984">
        <ele>664.40999999999997</ele>
        <time>2025-05-12T06:40:11Z</time>
      </trkpt>
      <trkpt lat="37.191858971491456" lon="-3.619491029530764">
        <ele>664.88999999999999</ele>
        <time>2025-05-12T06:40:12Z</time>
      </trkpt>
      <trkpt lat="37.191893002018332" lon="-3.619559006765485">
        <ele>664.88999999999999</ele>
        <time>2025-05-12T06:40:13Z</time>
      </trkpt>
      <trkpt lat="37.191917980089784" lon="-3.619671994820237">
        <ele>664.88999999999999</ele>
        <time>2025-05-12T06:40:14Z</time>
      </trkpt>
      <trkpt lat="37.191917980089784" lon="-3.619754975661635">
        <ele>664.88999999999999</ele>
        <time>2025-05-12T06:40:15Z</time>
      </trkpt>
      <trkpt lat="37.191889984533191" lon="-3.619851032271981">
        <ele>665.37</ele>
        <time>2025-05-12T06:40:16Z</time>
      </trkpt>
      <trkpt lat="37.191816978156567" lon="-3.619912974536419">
        <ele>665.37</ele>
        <time>2025-05-12T06:40:17Z</time>
      </trkpt>
      <trkpt lat="37.191759981215" lon="-3.619937030598521">
        <ele>665.85000000000002</ele>
        <time>2025-05-12T06:40:18Z</time>
      </trkpt>
      <trkpt lat="37.191725028678775" lon="-3.619952034205198">
        <ele>665.85000000000002</ele>
        <time>2025-05-12T06:40:19Z</time>
      </trkpt>
      <trkpt lat="37.191725028678775" lon="-3.619952034205198">
        <ele>665.85000000000002</ele>
        <time>2025-05-12T06:40:20Z</time>
      </trkpt>
      <trkpt lat="37.191632995381951" lon="-3.619882967323065">
        <ele>666.33000000000004</ele>
        <time>2025-05-12T06:40:21Z</time>
      </trkpt>
      <trkpt lat="37.191614974290133" lon="-3.619869975373149">
        <ele>667.28999999999996</ele>
        <time>2025-05-12T06:40:30Z</time>
      </trkpt>
      <trkpt lat="37.191387992352247" lon="-3.619988998398185">
        <ele>667.28999999999996</ele>
        <time>2025-05-12T06:40:38Z</time>
      </trkpt>
      <trkpt lat="37.1913490165025" lon="-3.620027974247932">
        <ele>667.28999999999996</ele>
        <time>2025-05-12T06:40:39Z</time>
      </trkpt>
      <trkpt lat="37.191308028995991" lon="-3.620068961754441">
        <ele>667.28999999999996</ele>
        <time>2025-05-12T06:40:40Z</time>
      </trkpt>
      <trkpt lat="37.191030001267791" lon="-3.620307007804513">
        <ele>665.85000000000002</ele>
        <time>2025-05-12T06:40:45Z</time>
      </trkpt>
      <trkpt lat="37.190969986841083" lon="-3.620357969775796">
        <ele>665.85000000000002</ele>
        <time>2025-05-12T06:40:46Z</time>
      </trkpt>
      <trkpt lat="37.190783992409706" lon="-3.62051404081285">
        <ele>665.85000000000002</ele>
        <time>2025-05-12T06:40:49Z</time>
      </trkpt>
      <trkpt lat="37.190316030755639" lon="-3.620874965563417">
        <ele>665.85000000000002</ele>
        <time>2025-05-12T06:40:56Z</time>
      </trkpt>
      <trkpt lat="37.190251993015409" lon="-3.620927017182112">
        <ele>666.33000000000004</ele>
        <time>2025-05-12T06:40:57Z</time>
      </trkpt>
      <trkpt lat="37.190196001902223" lon="-3.620964987203479">
        <ele>666.33000000000004</ele>
        <time>2025-05-12T06:40:58Z</time>
      </trkpt>
      <trkpt lat="37.190141016617417" lon="-3.621007986366749">
        <ele>666.80999999999995</ele>
        <time>2025-05-12T06:40:59Z</time>
      </trkpt>
      <trkpt lat="37.19008200801909" lon="-3.621054003015161">
        <ele>667.28999999999996</ele>
        <time>2025-05-12T06:41:00Z</time>
      </trkpt>
      <trkpt lat="37.19001897610724" lon="-3.621102031320334">
        <ele>667.28999999999996</ele>
        <time>2025-05-12T06:41:01Z</time>
      </trkpt>
      <trkpt lat="37.189955022186041" lon="-3.621150981634855">
        <ele>667.76999999999998</ele>
        <time>2025-05-12T06:41:02Z</time>
      </trkpt>
      <trkpt lat="37.189469039440155" lon="-3.62152598798275">
        <ele>670.65999999999997</ele>
        <time>2025-05-12T06:41:10Z</time>
      </trkpt>
      <trkpt lat="37.189302993938327" lon="-3.621658002957702">
        <ele>671.13999999999999</ele>
        <time>2025-05-12T06:41:13Z</time>
      </trkpt>
      <trkpt lat="37.189252031967044" lon="-3.621698990464211">
        <ele>671.13999999999999</ele>
        <time>2025-05-12T06:41:14Z</time>
      </trkpt>
      <trkpt lat="37.189038963988423" lon="-3.621866041794419">
        <ele>670.65999999999997</ele>
        <time>2025-05-12T06:41:18Z</time>
      </trkpt>
      <trkpt lat="37.188976015895605" lon="-3.621925972402096">
        <ele>670.65999999999997</ele>
        <time>2025-05-12T06:41:19Z</time>
      </trkpt>
      <trkpt lat="37.188218962401152" lon="-3.622279018163681">
        <ele>670.17999999999995</ele>
        <time>2025-05-12T06:41:29Z</time>
      </trkpt>
      <trkpt lat="37.188135981559753" lon="-3.622300978749991">
        <ele>670.17999999999995</ele>
        <time>2025-05-12T06:41:30Z</time>
      </trkpt>
      <trkpt lat="37.188055012375116" lon="-3.622322017326951">
        <ele>670.17999999999995</ele>
        <time>2025-05-12T06:41:31Z</time>
      </trkpt>
      <trkpt lat="37.187901036813855" lon="-3.622355964034796">
        <ele>671.13999999999999</ele>
        <time>2025-05-12T06:41:33Z</time>
      </trkpt>
      <trkpt lat="37.187841022387147" lon="-3.622355964034796">
        <ele>671.62</ele>
        <time>2025-05-12T06:41:34Z</time>
      </trkpt>
      <trkpt lat="37.187101989984512" lon="-3.622348001226783">
        <ele>669.22000000000003</ele>
        <time>2025-05-12T06:41:45Z</time>
      </trkpt>
      <trkpt lat="37.186578959226608" lon="-3.622377002611756">
        <ele>665.37</ele>
        <time>2025-05-12T06:41:53Z</time>
      </trkpt>
      <trkpt lat="37.186508970335126" lon="-3.622383959591389">
        <ele>664.88999999999999</ele>
        <time>2025-05-12T06:41:54Z</time>
      </trkpt>
      <trkpt lat="37.186448033899069" lon="-3.622394017875195">
        <ele>664.40999999999997</ele>
        <time>2025-05-12T06:41:55Z</time>
      </trkpt>
      <trkpt lat="37.186037991195917" lon="-3.622484961524606">
        <ele>662.00999999999999</ele>
        <time>2025-05-12T06:42:02Z</time>
      </trkpt>
      <trkpt lat="37.185951992869377" lon="-3.622518992051482">
        <ele>662.00999999999999</ele>
        <time>2025-05-12T06:42:03Z</time>
      </trkpt>
      <trkpt lat="37.185164010152221" lon="-3.6230309586972">
        <ele>660.08000000000004</ele>
        <time>2025-05-12T06:42:12Z</time>
      </trkpt>
      <trkpt lat="37.184440987184644" lon="-3.623516019433737">
        <ele>661.03999999999996</ele>
        <time>2025-05-12T06:42:21Z</time>
      </trkpt>
      <trkpt lat="37.184254992753267" lon="-3.623633030802012">
        <ele>661.51999999999998</ele>
        <time>2025-05-12T06:42:25Z</time>
      </trkpt>
      <trkpt lat="37.184214005246758" lon="-3.623662032186985">
        <ele>661.51999999999998</ele>
        <time>2025-05-12T06:42:26Z</time>
      </trkpt>
      <trkpt lat="37.184175029397011" lon="-3.623690027743578">
        <ele>661.03999999999996</ele>
        <time>2025-05-12T06:42:27Z</time>
      </trkpt>
      <trkpt lat="37.184135969728231" lon="-3.623735960572958">
        <ele>661.03999999999996</ele>
        <time>2025-05-12T06:42:28Z</time>
      </trkpt>
      <trkpt lat="37.184105040505528" lon="-3.623797986656427">
        <ele>661.03999999999996</ele>
        <time>2025-05-12T06:42:29Z</time>
      </trkpt>
      <trkpt lat="37.184064975008368" lon="-3.623879039660096">
        <ele>661.51999999999998</ele>
        <time>2025-05-12T06:42:30Z</time>
      </trkpt>
      <trkpt lat="37.183987023308873" lon="-3.623925978317857">
        <ele>661.51999999999998</ele>
        <time>2025-05-12T06:42:32Z</time>
      </trkpt>
      <trkpt lat="37.183970008045435" lon="-3.623991021886468">
        <ele>661.51999999999998</ele>
        <time>2025-05-12T06:42:33Z</time>
      </trkpt>
      <trkpt lat="37.18398098833859" lon="-3.624036032706499">
        <ele>661.51999999999998</ele>
        <time>2025-05-12T06:42:34Z</time>
      </trkpt>
      <trkpt lat="37.184000015258789" lon="-3.624114990234375">
        <ele>661.51999999999998</ele>
        <time>2025-05-12T06:42:35Z</time>
      </trkpt>
      <trkpt lat="37.184004038572311" lon="-3.624136028811336">
        <ele>661.03999999999996</ele>
        <time>2025-05-12T06:42:36Z</time>
      </trkpt>
      <trkpt lat="37.184007978066802" lon="-3.62425597384572">
        <ele>659.60000000000002</ele>
        <time>2025-05-12T06:42:39Z</time>
      </trkpt>
      <trkpt lat="37.183992974460125" lon="-3.624269971624017">
        <ele>659.12</ele>
        <time>2025-05-12T06:42:40Z</time>
      </trkpt>
      <trkpt lat="37.183935977518559" lon="-3.624321017414331">
        <ele>658.15999999999997</ele>
        <time>2025-05-12T06:42:42Z</time>
      </trkpt>
      <trkpt lat="37.183889960870147" lon="-3.62436200492084">
        <ele>657.67999999999995</ele>
        <time>2025-05-12T06:42:43Z</time>
      </trkpt>
      <trkpt lat="37.183842016384006" lon="-3.62440500408411">
        <ele>657.67999999999995</ele>
        <time>2025-05-12T06:42:44Z</time>
      </trkpt>
      <trkpt lat="37.183806980028749" lon="-3.624437022954226">
        <ele>657.67999999999995</ele>
        <time>2025-05-12T06:42:45Z</time>
      </trkpt>
      <trkpt lat="37.183749983087182" lon="-3.624451020732522">
        <ele>657.20000000000005</ele>
        <time>2025-05-12T06:42:46Z</time>
      </trkpt>
      <trkpt lat="37.183720981702209" lon="-3.624457977712154">
        <ele>657.20000000000005</ele>
        <time>2025-05-12T06:42:47Z</time>
      </trkpt>
      <trkpt lat="37.183720981702209" lon="-3.624457977712154">
        <ele>656.72000000000003</ele>
        <time>2025-05-12T06:42:48Z</time>
      </trkpt>
      <trkpt lat="37.18361402861774" lon="-3.624372985213995">
        <ele>654.79999999999995</ele>
        <time>2025-05-12T06:42:58Z</time>
      </trkpt>
      <trkpt lat="37.18361402861774" lon="-3.624372985213995">
        <ele>653.83000000000004</ele>
        <time>2025-05-12T06:43:14Z</time>
      </trkpt>
      <trkpt lat="37.183734979480505" lon="-3.624216997995973">
        <ele>643.25999999999999</ele>
        <time>2025-05-12T06:46:23Z</time>
      </trkpt>
      <trkpt lat="37.183620985597372" lon="-3.624331997707486">
        <ele>643.74000000000001</ele>
        <time>2025-05-12T06:46:47Z</time>
      </trkpt>
      <trkpt lat="37.1835280302912" lon="-3.624309031292796">
        <ele>649.02999999999997</ele>
        <time>2025-05-12T06:47:38Z</time>
      </trkpt>
      <trkpt lat="37.18359500169754" lon="-3.624283969402313">
        <ele>649.50999999999999</ele>
        <time>2025-05-12T06:47:52Z</time>
      </trkpt>
      <trkpt lat="37.183626014739275" lon="-3.624223032966256">
        <ele>652.38999999999999</ele>
        <time>2025-05-12T06:47:54Z</time>
      </trkpt>
      <trkpt lat="37.183621991425753" lon="-3.624023040756583">
        <ele>649.02999999999997</ele>
        <time>2025-05-12T06:48:04Z</time>
      </trkpt>
      <trkpt lat="37.183611011132598" lon="-3.623971994966269">
        <ele>645.65999999999997</ele>
        <time>2025-05-12T06:48:07Z</time>
      </trkpt>
      <trkpt lat="37.183535993099213" lon="-3.623912986367941">
        <ele>644.70000000000005</ele>
        <time>2025-05-12T06:48:08Z</time>
      </trkpt>
      <trkpt lat="37.183503974229097" lon="-3.62393201328814">
        <ele>643.74000000000001</ele>
        <time>2025-05-12T06:48:09Z</time>
      </trkpt>
      <trkpt lat="37.183459969237447" lon="-3.623960008844733">
        <ele>643.25999999999999</ele>
        <time>2025-05-12T06:48:10Z</time>
      </trkpt>
      <trkpt lat="37.183415964245796" lon="-3.623990016058087">
        <ele>642.29999999999995</ele>
        <time>2025-05-12T06:48:11Z</time>
      </trkpt>
      <trkpt lat="37.183155035600066" lon="-3.624157989397645">
        <ele>638.92999999999995</ele>
        <time>2025-05-12T06:48:16Z</time>
      </trkpt>
      <trkpt lat="37.183104995638132" lon="-3.624197971075773">
        <ele>638.45000000000005</ele>
        <time>2025-05-12T06:48:17Z</time>
      </trkpt>
      <trkpt lat="37.183029977604747" lon="-3.624285981059074">
        <ele>636.52999999999997</ele>
        <time>2025-05-12T06:48:19Z</time>
      </trkpt>
      <trkpt lat="37.183017991483212" lon="-3.624343983829022">
        <ele>636.04999999999995</ele>
        <time>2025-05-12T06:48:20Z</time>
      </trkpt>
      <trkpt lat="37.182888993993402" lon="-3.624453032389283">
        <ele>633.16999999999996</ele>
        <time>2025-05-12T06:48:24Z</time>
      </trkpt>
      <trkpt lat="37.182884970679879" lon="-3.624457977712154">
        <ele>632.67999999999995</ele>
        <time>2025-05-12T06:48:25Z</time>
      </trkpt>
      <trkpt lat="37.182775000110269" lon="-3.624645983800292">
        <ele>631.24000000000001</ele>
        <time>2025-05-12T06:48:27Z</time>
      </trkpt>
      <trkpt lat="37.182694030925632" lon="-3.624699963256717">
        <ele>630.27999999999997</ele>
        <time>2025-05-12T06:48:28Z</time>
      </trkpt>
      <trkpt lat="37.182577019557357" lon="-3.624707004055381">
        <ele>630.27999999999997</ele>
        <time>2025-05-12T06:48:29Z</time>
      </trkpt>
      <trkpt lat="37.182495966553688" lon="-3.624699963256717">
        <ele>629.79999999999995</ele>
        <time>2025-05-12T06:48:30Z</time>
      </trkpt>
      <trkpt lat="37.182409968227148" lon="-3.624635003507137">
        <ele>628.84000000000003</ele>
        <time>2025-05-12T06:48:31Z</time>
      </trkpt>
      <trkpt lat="37.182380966842175" lon="-3.624560991302133">
        <ele>627.88</ele>
        <time>2025-05-12T06:48:32Z</time>
      </trkpt>
      <trkpt lat="37.18234802596271" lon="-3.624480022117496">
        <ele>626.91999999999996</ele>
        <time>2025-05-12T06:48:33Z</time>
      </trkpt>
      <trkpt lat="37.182321036234498" lon="-3.624401986598969">
        <ele>625.96000000000004</ele>
        <time>2025-05-12T06:48:34Z</time>
      </trkpt>
      <trkpt lat="37.182290023192763" lon="-3.624310959130526">
        <ele>625.47000000000003</ele>
        <time>2025-05-12T06:48:35Z</time>
      </trkpt>
      <trkpt lat="37.182253981009126" lon="-3.62420903518796">
        <ele>624.50999999999999</ele>
        <time>2025-05-12T06:48:36Z</time>
      </trkpt>
      <trkpt lat="37.182216010987759" lon="-3.624096969142556">
        <ele>623.54999999999995</ele>
        <time>2025-05-12T06:48:37Z</time>
      </trkpt>
      <trkpt lat="37.18217502348125" lon="-3.623980041593313">
        <ele>622.59000000000003</ele>
        <time>2025-05-12T06:48:38Z</time>
      </trkpt>
      <trkpt lat="37.18192096799612" lon="-3.623401019722223">
        <ele>620.66999999999996</ele>
        <time>2025-05-12T06:48:43Z</time>
      </trkpt>
      <trkpt lat="37.181863971054554" lon="-3.623274033889175">
        <ele>621.14999999999998</ele>
        <time>2025-05-12T06:48:44Z</time>
      </trkpt>
      <trkpt lat="37.18118897639215" lon="-3.621721034869552">
        <ele>627.88</ele>
        <time>2025-05-12T06:48:56Z</time>
      </trkpt>
      <trkpt lat="37.180582964792848" lon="-3.620232995599508">
        <ele>629.79999999999995</ele>
        <time>2025-05-12T06:49:04Z</time>
      </trkpt>
      <trkpt lat="37.179589960724115" lon="-3.618342960253358">
        <ele>632.67999999999995</ele>
        <time>2025-05-12T06:49:14Z</time>
      </trkpt>
      <trkpt lat="37.178205018863082" lon="-3.616248993203044">
        <ele>640.86000000000001</ele>
        <time>2025-05-12T06:49:25Z</time>
      </trkpt>
      <trkpt lat="37.176244994625449" lon="-3.614079002290964">
        <ele>649.99000000000001</ele>
        <time>2025-05-12T06:49:38Z</time>
      </trkpt>
      <trkpt lat="37.1744429692626" lon="-3.612610995769501">
        <ele>653.35000000000002</ele>
        <time>2025-05-12T06:49:48Z</time>
      </trkpt>
      <trkpt lat="37.172640021890402" lon="-3.611537022516131">
        <ele>655.27999999999997</ele>
        <time>2025-05-12T06:49:58Z</time>
      </trkpt>
      <trkpt lat="37.170386966317892" lon="-3.61061098985374">
        <ele>658.63999999999999</ele>
        <time>2025-05-12T06:50:09Z</time>
      </trkpt>
      <trkpt lat="37.168656019493937" lon="-3.610248975455761">
        <ele>660.08000000000004</ele>
        <time>2025-05-12T06:50:17Z</time>
      </trkpt>
      <trkpt lat="37.166013037785888" lon="-3.610082007944584">
        <ele>662.49000000000001</ele>
        <time>2025-05-12T06:50:29Z</time>
      </trkpt>
      <trkpt lat="37.16339997947216" lon="-3.610464977100492">
        <ele>662.00999999999999</ele>
        <time>2025-05-12T06:50:41Z</time>
      </trkpt>
      <trkpt lat="37.160860011354089" lon="-3.611381035298109">
        <ele>661.51999999999998</ele>
        <time>2025-05-12T06:50:53Z</time>
      </trkpt>
      <trkpt lat="37.158348960801959" lon="-3.612403040751815">
        <ele>660.55999999999995</ele>
        <time>2025-05-12T06:51:05Z</time>
      </trkpt>
      <trkpt lat="37.155375983566046" lon="-3.61329697072506">
        <ele>663.45000000000005</ele>
        <time>2025-05-12T06:51:19Z</time>
      </trkpt>
      <trkpt lat="37.153409002348781" lon="-3.613114999607205">
        <ele>668.25</ele>
        <time>2025-05-12T06:51:28Z</time>
      </trkpt>
      <trkpt lat="37.1513029653579" lon="-3.612273959442973">
        <ele>674.01999999999998</ele>
        <time>2025-05-12T06:51:38Z</time>
      </trkpt>
      <trkpt lat="37.148369969800115" lon="-3.610913995653391">
        <ele>677.87</ele>
        <time>2025-05-12T06:51:52Z</time>
      </trkpt>
      <trkpt lat="37.145377965644002" lon="-3.609573980793357">
        <ele>679.30999999999995</ele>
        <time>2025-05-12T06:52:07Z</time>
      </trkpt>
      <trkpt lat="37.143012005835772" lon="-3.608894962817431">
        <ele>678.83000000000004</ele>
        <time>2025-05-12T06:52:17Z</time>
      </trkpt>
      <trkpt lat="37.140799015760422" lon="-3.608533032238483">
        <ele>679.78999999999996</ele>
        <time>2025-05-12T06:52:26Z</time>
      </trkpt>
      <trkpt lat="37.138047991320491" lon="-3.608445022255182">
        <ele>683.63</ele>
        <time>2025-05-12T06:52:37Z</time>
      </trkpt>
      <trkpt lat="37.134853983297944" lon="-3.608879959210753">
        <ele>688.91999999999996</ele>
        <time>2025-05-12T06:52:50Z</time>
      </trkpt>
      <trkpt lat="37.131737004965544" lon="-3.609825018793345">
        <ele>690.36000000000001</ele>
        <time>2025-05-12T06:53:03Z</time>
      </trkpt>
      <trkpt lat="37.128973994404078" lon="-3.611155981197953">
        <ele>693.25</ele>
        <time>2025-05-12T06:53:15Z</time>
      </trkpt>
      <trkpt lat="37.126403013244271" lon="-3.612914001569152">
        <ele>696.13</ele>
        <time>2025-05-12T06:53:27Z</time>
      </trkpt>
      <trkpt lat="37.12405800819397" lon="-3.615025989711285">
        <ele>701.41999999999996</ele>
        <time>2025-05-12T06:53:40Z</time>
      </trkpt>
      <trkpt lat="37.121959012001753" lon="-3.61746403388679">
        <ele>705.75</ele>
        <time>2025-05-12T06:53:51Z</time>
      </trkpt>
      <trkpt lat="37.119788015261292" lon="-3.620238024741411">
        <ele>713.44000000000005</ele>
        <time>2025-05-12T06:54:04Z</time>
      </trkpt>
      <trkpt lat="37.117610983550549" lon="-3.623048979789019">
        <ele>723.52999999999997</ele>
        <time>2025-05-12T06:54:17Z</time>
      </trkpt>
      <trkpt lat="37.115582982078195" lon="-3.62567100673914">
        <ele>732.65999999999997</ele>
        <time>2025-05-12T06:54:29Z</time>
      </trkpt>
      <trkpt lat="37.112891972064972" lon="-3.629114041104913">
        <ele>736.50999999999999</ele>
        <time>2025-05-12T06:54:45Z</time>
      </trkpt>
      <trkpt lat="37.110604969784617" lon="-3.631938993930817">
        <ele>741.30999999999995</ele>
        <time>2025-05-12T06:54:58Z</time>
      </trkpt>
      <trkpt lat="37.108215037733316" lon="-3.634647019207478">
        <ele>741.30999999999995</ele>
        <time>2025-05-12T06:55:11Z</time>
      </trkpt>
      <trkpt lat="37.106142025440931" lon="-3.636828996241093">
        <ele>744.20000000000005</ele>
        <time>2025-05-12T06:55:22Z</time>
      </trkpt>
      <trkpt lat="37.104028025642037" lon="-3.639006027951837">
        <ele>749.49000000000001</ele>
        <time>2025-05-12T06:55:33Z</time>
      </trkpt>
      <trkpt lat="37.101337015628815" lon="-3.641746994107962">
        <ele>747.55999999999995</ele>
        <time>2025-05-12T06:55:47Z</time>
      </trkpt>
      <trkpt lat="37.098465040326118" lon="-3.644647970795631">
        <ele>744.20000000000005</ele>
        <time>2025-05-12T06:56:02Z</time>
      </trkpt>
      <trkpt lat="37.096152976155281" lon="-3.646423006430268">
        <ele>749.49000000000001</ele>
        <time>2025-05-12T06:56:13Z</time>
      </trkpt>
      <trkpt lat="37.093642009422183" lon="-3.647696971893311">
        <ele>756.21000000000004</ele>
        <time>2025-05-12T06:56:24Z</time>
      </trkpt>
      <trkpt lat="37.090964997187257" lon="-3.648393005132675">
        <ele>762.46000000000004</ele>
        <time>2025-05-12T06:56:35Z</time>
      </trkpt>
      <trkpt lat="37.088245991617441" lon="-3.648509010672569">
        <ele>766.30999999999995</ele>
        <time>2025-05-12T06:56:46Z</time>
      </trkpt>
      <trkpt lat="37.084563989192247" lon="-3.648159988224506">
        <ele>773.03999999999996</ele>
        <time>2025-05-12T06:57:01Z</time>
      </trkpt>
      <trkpt lat="37.081115003675222" lon="-3.647983968257904">
        <ele>786.5</ele>
        <time>2025-05-12T06:57:15Z</time>
      </trkpt>
      <trkpt lat="37.077665012329817" lon="-3.648297032341361">
        <ele>799.47000000000003</ele>
        <time>2025-05-12T06:57:29Z</time>
      </trkpt>
      <trkpt lat="37.074022991582751" lon="-3.649084009230137">
        <ele>814.37</ele>
        <time>2025-05-12T06:57:44Z</time>
      </trkpt>
      <trkpt lat="37.071405993774533" lon="-3.650023033842444">
        <ele>825.42999999999995</ele>
        <time>2025-05-12T06:57:55Z</time>
      </trkpt>
      <trkpt lat="37.068561008200049" lon="-3.651244025677443">
        <ele>835.51999999999998</ele>
        <time>2025-05-12T06:58:07Z</time>
      </trkpt>
      <trkpt lat="37.066231006756425" lon="-3.652369966730475">
        <ele>842.25</ele>
        <time>2025-05-12T06:58:17Z</time>
      </trkpt>
      <trkpt lat="37.063465984538198" lon="-3.653719034045935">
        <ele>844.65999999999997</ele>
        <time>2025-05-12T06:58:29Z</time>
      </trkpt>
      <trkpt lat="37.060165023431182" lon="-3.655010014772415">
        <ele>838.40999999999997</ele>
        <time>2025-05-12T06:58:43Z</time>
      </trkpt>
      <trkpt lat="37.057460015639663" lon="-3.655549976974726">
        <ele>837.45000000000005</ele>
        <time>2025-05-12T06:58:54Z</time>
      </trkpt>
      <trkpt lat="37.054731035605073" lon="-3.655616026371718">
        <ele>835.51999999999998</ele>
        <time>2025-05-12T06:59:05Z</time>
      </trkpt>
      <trkpt lat="37.05204295925796" lon="-3.655130965635181">
        <ele>833.60000000000002</ele>
        <time>2025-05-12T06:59:16Z</time>
      </trkpt>
      <trkpt lat="37.049452029168606" lon="-3.654151037335396">
        <ele>832.63999999999999</ele>
        <time>2025-05-12T06:59:27Z</time>
      </trkpt>
      <trkpt lat="37.047223029658198" lon="-3.652847986668348">
        <ele>835.03999999999996</ele>
        <time>2025-05-12T06:59:37Z</time>
      </trkpt>
      <trkpt lat="37.044036984443665" lon="-3.650421006605029">
        <ele>837.45000000000005</ele>
        <time>2025-05-12T06:59:52Z</time>
      </trkpt>
      <trkpt lat="37.040815986692905" lon="-3.648110032081604">
        <ele>835.51999999999998</ele>
        <time>2025-05-12T07:00:07Z</time>
      </trkpt>
      <trkpt lat="37.038744986057281" lon="-3.647041004151106">
        <ele>838.40999999999997</ele>
        <time>2025-05-12T07:00:16Z</time>
      </trkpt>
      <trkpt lat="37.036299984902143" lon="-3.646236006170511">
        <ele>835.51999999999998</ele>
        <time>2025-05-12T07:00:25Z</time>
      </trkpt>
      <trkpt lat="37.033125003799796" lon="-3.645749017596245">
        <ele>825.90999999999997</ele>
        <time>2025-05-12T07:00:36Z</time>
      </trkpt>
      <trkpt lat="37.028966993093491" lon="-3.645617002621293">
        <ele>811.97000000000003</ele>
        <time>2025-05-12T07:00:50Z</time>
      </trkpt>
      <trkpt lat="37.025415999814868" lon="-3.645235039293766">
        <ele>804.27999999999997</ele>
        <time>2025-05-12T07:01:02Z</time>
      </trkpt>
      <trkpt lat="37.023161016404629" lon="-3.644319986924529">
        <ele>801.88</ele>
        <time>2025-05-12T07:01:10Z</time>
      </trkpt>
      <trkpt lat="37.020832020789385" lon="-3.642675038427115">
        <ele>803.79999999999995</ele>
        <time>2025-05-12T07:01:19Z</time>
      </trkpt>
      <trkpt lat="37.018526997417212" lon="-3.640934033319354">
        <ele>805.24000000000001</ele>
        <time>2025-05-12T07:01:28Z</time>
      </trkpt>
      <trkpt lat="37.016510982066393" lon="-3.640263983979821">
        <ele>806.67999999999995</ele>
        <time>2025-05-12T07:01:35Z</time>
      </trkpt>
      <trkpt lat="37.014427995309234" lon="-3.64026096649468">
        <ele>807.15999999999997</ele>
        <time>2025-05-12T07:01:42Z</time>
      </trkpt>
      <trkpt lat="37.012050971388817" lon="-3.640508987009525">
        <ele>807.15999999999997</ele>
        <time>2025-05-12T07:01:50Z</time>
      </trkpt>
      <trkpt lat="37.009688029065728" lon="-3.640205981209874">
        <ele>811.49000000000001</ele>
        <time>2025-05-12T07:01:58Z</time>
      </trkpt>
      <trkpt lat="37.007721969857812" lon="-3.639349015429616">
        <ele>820.13999999999999</ele>
        <time>2025-05-12T07:02:05Z</time>
      </trkpt>
      <trkpt lat="37.005936037749052" lon="-3.637975975871086">
        <ele>828.30999999999995</ele>
        <time>2025-05-12T07:02:12Z</time>
      </trkpt>
      <trkpt lat="37.004212969914079" lon="-3.635927019640803">
        <ele>835.51999999999998</ele>
        <time>2025-05-12T07:02:20Z</time>
      </trkpt>
      <trkpt lat="37.002107016742229" lon="-3.632871983572841">
        <ele>838.40999999999997</ele>
        <time>2025-05-12T07:02:31Z</time>
      </trkpt>
      <trkpt lat="37.000721991062164" lon="-3.631497016176581">
        <ele>838.88999999999999</ele>
        <time>2025-05-12T07:02:37Z</time>
      </trkpt>
      <trkpt lat="36.998302973806858" lon="-3.630091035738587">
        <ele>830.72000000000003</ele>
        <time>2025-05-12T07:02:46Z</time>
      </trkpt>
      <trkpt lat="36.995734004303813" lon="-3.629214959219098">
        <ele>818.22000000000003</ele>
        <time>2025-05-12T07:02:55Z</time>
      </trkpt>
      <trkpt lat="36.994142029434443" lon="-3.628227990120649">
        <ele>808.61000000000001</ele>
        <time>2025-05-12T07:03:01Z</time>
      </trkpt>
      <trkpt lat="36.992803020402789" lon="-3.626760989427567">
        <ele>798.50999999999999</ele>
        <time>2025-05-12T07:03:07Z</time>
      </trkpt>
      <trkpt lat="36.991679007187486" lon="-3.62459703348577">
        <ele>785.52999999999997</ele>
        <time>2025-05-12T07:03:14Z</time>
      </trkpt>
      <trkpt lat="36.991190006956458" lon="-3.622495019808412">
        <ele>774.48000000000002</ele>
        <time>2025-05-12T07:03:20Z</time>
      </trkpt>
      <trkpt lat="36.991106020286679" lon="-3.619912974536419">
        <ele>761.5</ele>
        <time>2025-05-12T07:03:27Z</time>
      </trkpt>
      <trkpt lat="36.990963025018573" lon="-3.616604972630739">
        <ele>746.60000000000002</ele>
        <time>2025-05-12T07:03:36Z</time>
      </trkpt>
      <trkpt lat="36.990405963733792" lon="-3.614132981747389">
        <ele>739.38999999999999</ele>
        <time>2025-05-12T07:03:43Z</time>
      </trkpt>
      <trkpt lat="36.989205004647374" lon="-3.610753985121846">
        <ele>740.35000000000002</ele>
        <time>2025-05-12T07:03:53Z</time>
      </trkpt>
      <trkpt lat="36.988362958654761" lon="-3.607613034546375">
        <ele>740.35000000000002</ele>
        <time>2025-05-12T07:04:02Z</time>
      </trkpt>
      <trkpt lat="36.987880999222398" lon="-3.603977970778942">
        <ele>738.42999999999995</ele>
        <time>2025-05-12T07:04:12Z</time>
      </trkpt>
      <trkpt lat="36.987738003954291" lon="-3.599522989243269">
        <ele>733.62</ele>
        <time>2025-05-12T07:04:24Z</time>
      </trkpt>
      <trkpt lat="36.98747799731791" lon="-3.594739018008113">
        <ele>727.37</ele>
        <time>2025-05-12T07:04:37Z</time>
      </trkpt>
      <trkpt lat="36.986926971003413" lon="-3.591893026605249">
        <ele>725.92999999999995</ele>
        <time>2025-05-12T07:04:45Z</time>
      </trkpt>
      <trkpt lat="36.985905971378088" lon="-3.588846037164331">
        <ele>724.49000000000001</ele>
        <time>2025-05-12T07:04:54Z</time>
      </trkpt>
      <trkpt lat="36.984368981793523" lon="-3.584454003721476">
        <ele>733.62</ele>
        <time>2025-05-12T07:05:07Z</time>
      </trkpt>
      <trkpt lat="36.982767032459378" lon="-3.580093989148736">
        <ele>744.20000000000005</ele>
        <time>2025-05-12T07:05:20Z</time>
      </trkpt>
      <trkpt lat="36.981850974261761" lon="-3.577396022155881">
        <ele>751.88999999999999</ele>
        <time>2025-05-12T07:05:28Z</time>
      </trkpt>
      <trkpt lat="36.980615984648466" lon="-3.57283802703023">
        <ele>761.01999999999998</ele>
        <time>2025-05-12T07:05:41Z</time>
      </trkpt>
      <trkpt lat="36.979518039152026" lon="-3.56828598305583">
        <ele>770.14999999999998</ele>
        <time>2025-05-12T07:05:54Z</time>
      </trkpt>
      <trkpt lat="36.978430990129709" lon="-3.565344018861651">
        <ele>781.21000000000004</ele>
        <time>2025-05-12T07:06:03Z</time>
      </trkpt>
      <trkpt lat="36.977043030783534" lon="-3.563059028238058">
        <ele>793.22000000000003</ele>
        <time>2025-05-12T07:06:11Z</time>
      </trkpt>
      <trkpt lat="36.975305965170264" lon="-3.56117301620543">
        <ele>806.67999999999995</ele>
        <time>2025-05-12T07:06:19Z</time>
      </trkpt>
      <trkpt lat="36.973310988396406" lon="-3.559743985533714">
        <ele>819.65999999999997</ele>
        <time>2025-05-12T07:06:27Z</time>
      </trkpt>
      <trkpt lat="36.970603968948126" lon="-3.558429032564163">
        <ele>828.78999999999996</ele>
        <time>2025-05-12T07:06:37Z</time>
      </trkpt>
      <trkpt lat="36.968191992491484" lon="-3.557408032938838">
        <ele>833.60000000000002</ele>
        <time>2025-05-12T07:06:46Z</time>
      </trkpt>
      <trkpt lat="36.965987971052527" lon="-3.556129960343242">
        <ele>833.12</ele>
        <time>2025-05-12T07:06:54Z</time>
      </trkpt>
      <trkpt lat="36.965752020478249" lon="-3.555907001718879">
        <ele>832.15999999999997</ele>
        <time>2025-05-12T07:06:55Z</time>
      </trkpt>
      <trkpt lat="36.964287031441927" lon="-3.554121991619468">
        <ele>828.30999999999995</ele>
        <time>2025-05-12T07:07:02Z</time>
      </trkpt>
      <trkpt lat="36.963210040703416" lon="-3.551905984058976">
        <ele>822.54999999999995</ele>
        <time>2025-05-12T07:07:09Z</time>
      </trkpt>
      <trkpt lat="36.961918976157904" lon="-3.549014981836081">
        <ele>810.52999999999997</ele>
        <time>2025-05-12T07:07:18Z</time>
      </trkpt>
      <trkpt lat="36.960673006251454" lon="-3.547510011121631">
        <ele>800.91999999999996</ele>
        <time>2025-05-12T07:07:24Z</time>
      </trkpt>
      <trkpt lat="36.959099974483252" lon="-3.546598982065916">
        <ele>790.34000000000003</ele>
        <time>2025-05-12T07:07:30Z</time>
      </trkpt>
      <trkpt lat="36.957360981032252" lon="-3.546453975141048">
        <ele>779.28999999999996</ele>
        <time>2025-05-12T07:07:36Z</time>
      </trkpt>
      <trkpt lat="36.955043971538544" lon="-3.546546008437872">
        <ele>764.87</ele>
        <time>2025-05-12T07:07:44Z</time>
      </trkpt>
      <trkpt lat="36.95335803553462" lon="-3.545959023758769">
        <ele>757.17999999999995</ele>
        <time>2025-05-12T07:07:50Z</time>
      </trkpt>
      <trkpt lat="36.951195001602173" lon="-3.544855965301395">
        <ele>748.03999999999996</ele>
        <time>2025-05-12T07:07:58Z</time>
      </trkpt>
      <trkpt lat="36.949448967352509" lon="-3.544582966715097">
        <ele>740.83000000000004</ele>
        <time>2025-05-12T07:08:04Z</time>
      </trkpt>
      <trkpt lat="36.947399005293846" lon="-3.54488898999989">
        <ele>728.82000000000005</ele>
        <time>2025-05-12T07:08:11Z</time>
      </trkpt>
      <trkpt lat="36.945483991876245" lon="-3.545817034319043">
        <ele>715.36000000000001</ele>
        <time>2025-05-12T07:08:18Z</time>
      </trkpt>
      <trkpt lat="36.942880991846323" lon="-3.547511016950011">
        <ele>696.61000000000001</ele>
        <time>2025-05-12T07:08:28Z</time>
      </trkpt>
      <trkpt lat="36.940200962126255" lon="-3.548939963802695">
        <ele>677.38999999999999</ele>
        <time>2025-05-12T07:08:38Z</time>
      </trkpt>
      <trkpt lat="36.938548972830176" lon="-3.549008024856448">
        <ele>666.80999999999995</ele>
        <time>2025-05-12T07:08:44Z</time>
      </trkpt>
      <trkpt lat="36.937130000442266" lon="-3.548448029905558">
        <ele>657.67999999999995</ele>
        <time>2025-05-12T07:08:50Z</time>
      </trkpt>
      <trkpt lat="36.93574002943933" lon="-3.547196025028825">
        <ele>647.10000000000002</ele>
        <time>2025-05-12T07:08:57Z</time>
      </trkpt>
      <trkpt lat="36.934871999546885" lon="-3.5457260068506">
        <ele>638.45000000000005</ele>
        <time>2025-05-12T07:09:03Z</time>
      </trkpt>
      <trkpt lat="36.934388028457761" lon="-3.544006962329149">
        <ele>628.36000000000001</ele>
        <time>2025-05-12T07:09:09Z</time>
      </trkpt>
      <trkpt lat="36.933843959122896" lon="-3.540693009272218">
        <ele>609.61000000000001</ele>
        <time>2025-05-12T07:09:20Z</time>
      </trkpt>
      <trkpt lat="36.933229984715581" lon="-3.53870096616447">
        <ele>598.55999999999995</ele>
        <time>2025-05-12T07:09:27Z</time>
      </trkpt>
      <trkpt lat="36.932233963161707" lon="-3.536999020725489">
        <ele>587.5</ele>
        <time>2025-05-12T07:09:34Z</time>
      </trkpt>
      <trkpt lat="36.930731004104018" lon="-3.535525985062122">
        <ele>574.52999999999997</ele>
        <time>2025-05-12T07:09:42Z</time>
      </trkpt>
      <trkpt lat="36.928997961804271" lon="-3.534707995131612">
        <ele>563.47000000000003</ele>
        <time>2025-05-12T07:09:50Z</time>
      </trkpt>
      <trkpt lat="36.927177999168634" lon="-3.534313039854169">
        <ele>557.22000000000003</ele>
        <time>2025-05-12T07:09:58Z</time>
      </trkpt>
      <trkpt lat="36.92590101622045" lon="-3.533888999372721">
        <ele>554.34000000000003</ele>
        <time>2025-05-12T07:10:05Z</time>
      </trkpt>
      <trkpt lat="36.92572801373899" lon="-3.533833008259535">
        <ele>553.86000000000001</ele>
        <time>2025-05-12T07:10:06Z</time>
      </trkpt>
      <trkpt lat="36.925565991550684" lon="-3.533812975510955">
        <ele>553.38</ele>
        <time>2025-05-12T07:10:07Z</time>
      </trkpt>
      <trkpt lat="36.925400029867887" lon="-3.5338019952178">
        <ele>552.89999999999998</ele>
        <time>2025-05-12T07:10:08Z</time>
      </trkpt>
      <trkpt lat="36.925237001851201" lon="-3.533814987167716">
        <ele>552.40999999999997</ele>
        <time>2025-05-12T07:10:09Z</time>
      </trkpt>
      <trkpt lat="36.925077997148037" lon="-3.533832002431154">
        <ele>551.45000000000005</ele>
        <time>2025-05-12T07:10:10Z</time>
      </trkpt>
      <trkpt lat="36.924617998301983" lon="-3.533885981887579">
        <ele>550.49000000000001</ele>
        <time>2025-05-12T07:10:13Z</time>
      </trkpt>
      <trkpt lat="36.924243997782469" lon="-3.533935016021133">
        <ele>549.52999999999997</ele>
        <time>2025-05-12T07:10:17Z</time>
      </trkpt>
      <trkpt lat="36.92418297752738" lon="-3.533969968557358">
        <ele>549.52999999999997</ele>
        <time>2025-05-12T07:10:18Z</time>
      </trkpt>
      <trkpt lat="36.924050040543079" lon="-3.534051021561027">
        <ele>549.52999999999997</ele>
        <time>2025-05-12T07:10:20Z</time>
      </trkpt>
      <trkpt lat="36.923955995589495" lon="-3.534044986590743">
        <ele>550.00999999999999</ele>
        <time>2025-05-12T07:10:21Z</time>
      </trkpt>
      <trkpt lat="36.923869997262955" lon="-3.534020008519292">
        <ele>550.00999999999999</ele>
        <time>2025-05-12T07:10:22Z</time>
      </trkpt>
      <trkpt lat="36.923805037513375" lon="-3.533967034891248">
        <ele>550.00999999999999</ele>
        <time>2025-05-12T07:10:23Z</time>
      </trkpt>
      <trkpt lat="36.923774024471641" lon="-3.533858992159367">
        <ele>550.00999999999999</ele>
        <time>2025-05-12T07:10:24Z</time>
      </trkpt>
      <trkpt lat="36.923764972016215" lon="-3.533764025196433">
        <ele>550.49000000000001</ele>
        <time>2025-05-12T07:10:25Z</time>
      </trkpt>
      <trkpt lat="36.923777963966131" lon="-3.533668974414468">
        <ele>550.49000000000001</ele>
        <time>2025-05-12T07:10:26Z</time>
      </trkpt>
      <trkpt lat="36.923831021413207" lon="-3.533590016886592">
        <ele>550.49000000000001</ele>
        <time>2025-05-12T07:10:27Z</time>
      </trkpt>
      <trkpt lat="36.923891035839915" lon="-3.533482979983091">
        <ele>550.49000000000001</ele>
        <time>2025-05-12T07:10:28Z</time>
      </trkpt>
      <trkpt lat="36.923935962840915" lon="-3.533360017463565">
        <ele>550.49000000000001</ele>
        <time>2025-05-12T07:10:29Z</time>
      </trkpt>
      <trkpt lat="36.923983991146088" lon="-3.533231019973755">
        <ele>550.49000000000001</ele>
        <time>2025-05-12T07:10:30Z</time>
      </trkpt>
      <trkpt lat="36.924023972824216" lon="-3.533090958371759">
        <ele>550.49000000000001</ele>
        <time>2025-05-12T07:10:31Z</time>
      </trkpt>
      <trkpt lat="36.924041993916035" lon="-3.532944023609161">
        <ele>550.49000000000001</ele>
        <time>2025-05-12T07:10:32Z</time>
      </trkpt>
      <trkpt lat="36.924059009179473" lon="-3.532794993370771">
        <ele>550.97000000000003</ele>
        <time>2025-05-12T07:10:33Z</time>
      </trkpt>
      <trkpt lat="36.924047023057938" lon="-3.532072976231575">
        <ele>553.38</ele>
        <time>2025-05-12T07:10:39Z</time>
      </trkpt>
      <trkpt lat="36.923951972275972" lon="-3.531685983762145">
        <ele>554.34000000000003</ele>
        <time>2025-05-12T07:10:41Z</time>
      </trkpt>
      <trkpt lat="36.923933029174805" lon="-3.53161096572876">
        <ele>554.82000000000005</ele>
        <time>2025-05-12T07:10:42Z</time>
      </trkpt>
      <trkpt lat="36.923965970054269" lon="-3.531369986012578">
        <ele>555.29999999999995</ele>
        <time>2025-05-12T07:10:43Z</time>
      </trkpt>
      <trkpt lat="36.923908973112702" lon="-3.531243000179529">
        <ele>555.77999999999997</ele>
        <time>2025-05-12T07:10:44Z</time>
      </trkpt>
      <trkpt lat="36.923835966736078" lon="-3.531102016568184">
        <ele>555.77999999999997</ele>
        <time>2025-05-12T07:10:45Z</time>
      </trkpt>
      <trkpt lat="36.923756003379822" lon="-3.530952986329794">
        <ele>556.25999999999999</ele>
        <time>2025-05-12T07:10:46Z</time>
      </trkpt>
      <trkpt lat="36.923070028424263" lon="-3.529520016163588">
        <ele>556.25999999999999</ele>
        <time>2025-05-12T07:10:54Z</time>
      </trkpt>
      <trkpt lat="36.92256803624332" lon="-3.527928963303566">
        <ele>554.82000000000005</ele>
        <time>2025-05-12T07:11:02Z</time>
      </trkpt>
      <trkpt lat="36.922013992443681" lon="-3.525566020980477">
        <ele>556.74000000000001</ele>
        <time>2025-05-12T07:11:13Z</time>
      </trkpt>
      <trkpt lat="36.921769995242357" lon="-3.524727998301387">
        <ele>558.17999999999995</ele>
        <time>2025-05-12T07:11:17Z</time>
      </trkpt>
      <trkpt lat="36.921685002744198" lon="-3.524549966678023">
        <ele>558.17999999999995</ele>
        <time>2025-05-12T07:11:18Z</time>
      </trkpt>
      <trkpt lat="36.921594981104136" lon="-3.524358021095395">
        <ele>558.17999999999995</ele>
        <time>2025-05-12T07:11:19Z</time>
      </trkpt>
      <trkpt lat="36.921475036069751" lon="-3.524208990857005">
        <ele>558.17999999999995</ele>
        <time>2025-05-12T07:11:20Z</time>
      </trkpt>
      <trkpt lat="36.92132500000298" lon="-3.524070018902421">
        <ele>558.17999999999995</ele>
        <time>2025-05-12T07:11:21Z</time>
      </trkpt>
      <trkpt lat="36.920885033905506" lon="-3.523734994232655">
        <ele>559.13999999999999</ele>
        <time>2025-05-12T07:11:24Z</time>
      </trkpt>
      <trkpt lat="36.920768022537231" lon="-3.523602979257703">
        <ele>559.62</ele>
        <time>2025-05-12T07:11:25Z</time>
      </trkpt>
      <trkpt lat="36.920667020604014" lon="-3.523460989817977">
        <ele>560.11000000000001</ele>
        <time>2025-05-12T07:11:26Z</time>
      </trkpt>
      <trkpt lat="36.920542968437076" lon="-3.523284969851375">
        <ele>560.11000000000001</ele>
        <time>2025-05-12T07:11:27Z</time>
      </trkpt>
      <trkpt lat="36.920489994809031" lon="-3.523153038695455">
        <ele>560.11000000000001</ele>
        <time>2025-05-12T07:11:28Z</time>
      </trkpt>
      <trkpt lat="36.920430986210704" lon="-3.522978024557233">
        <ele>560.59000000000003</ele>
        <time>2025-05-12T07:11:29Z</time>
      </trkpt>
      <trkpt lat="36.920406008139253" lon="-3.522796975448728">
        <ele>560.59000000000003</ele>
        <time>2025-05-12T07:11:30Z</time>
      </trkpt>
      <trkpt lat="36.920394022017717" lon="-3.522619027644396">
        <ele>560.59000000000003</ele>
        <time>2025-05-12T07:11:31Z</time>
      </trkpt>
      <trkpt lat="36.920381030067801" lon="-3.522438984364271">
        <ele>560.59000000000003</ele>
        <time>2025-05-12T07:11:32Z</time>
      </trkpt>
      <trkpt lat="36.920370971783996" lon="-3.522298000752926">
        <ele>561.07000000000005</ele>
        <time>2025-05-12T07:11:33Z</time>
      </trkpt>
      <trkpt lat="36.920313974842429" lon="-3.522115023806691">
        <ele>561.54999999999995</ele>
        <time>2025-05-12T07:11:34Z</time>
      </trkpt>
      <trkpt lat="36.920266030356288" lon="-3.521961970254779">
        <ele>562.02999999999997</ele>
        <time>2025-05-12T07:11:35Z</time>
      </trkpt>
      <trkpt lat="36.920184977352619" lon="-3.521858034655452">
        <ele>562.50999999999999</ele>
        <time>2025-05-12T07:11:36Z</time>
      </trkpt>
      <trkpt lat="36.920082969591022" lon="-3.521732976660132">
        <ele>563.47000000000003</ele>
        <time>2025-05-12T07:11:37Z</time>
      </trkpt>
      <trkpt lat="36.919977022334933" lon="-3.521602973341942">
        <ele>563.47000000000003</ele>
        <time>2025-05-12T07:11:38Z</time>
      </trkpt>
      <trkpt lat="36.919850958511233" lon="-3.521482022479177">
        <ele>563.95000000000005</ele>
        <time>2025-05-12T07:11:39Z</time>
      </trkpt>
      <trkpt lat="36.91902500577271" lon="-3.520496981218457">
        <ele>565.87</ele>
        <time>2025-05-12T07:11:46Z</time>
      </trkpt>
      <trkpt lat="36.918978989124298" lon="-3.520341999828816">
        <ele>565.87</ele>
        <time>2025-05-12T07:11:47Z</time>
      </trkpt>
      <trkpt lat="36.918950993567705" lon="-3.52017997764051">
        <ele>566.35000000000002</ele>
        <time>2025-05-12T07:11:48Z</time>
      </trkpt>
      <trkpt lat="36.918921992182732" lon="-3.520013010129333">
        <ele>566.35000000000002</ele>
        <time>2025-05-12T07:11:49Z</time>
      </trkpt>
      <trkpt lat="36.918929032981396" lon="-3.519840007647872">
        <ele>566.35000000000002</ele>
        <time>2025-05-12T07:11:50Z</time>
      </trkpt>
      <trkpt lat="36.918955016881227" lon="-3.519662981852889">
        <ele>566.35000000000002</ele>
        <time>2025-05-12T07:11:51Z</time>
      </trkpt>
      <trkpt lat="36.918979994952679" lon="-3.519486961886287">
        <ele>565.87</ele>
        <time>2025-05-12T07:11:52Z</time>
      </trkpt>
      <trkpt lat="36.919008996337652" lon="-3.519314965233207">
        <ele>565.38999999999999</ele>
        <time>2025-05-12T07:11:53Z</time>
      </trkpt>
      <trkpt lat="36.9190479721874" lon="-3.519150009378791">
        <ele>565.38999999999999</ele>
        <time>2025-05-12T07:11:54Z</time>
      </trkpt>
      <trkpt lat="36.919085020199418" lon="-3.51899603381753">
        <ele>565.38999999999999</ele>
        <time>2025-05-12T07:11:55Z</time>
      </trkpt>
      <trkpt lat="36.919117961078882" lon="-3.518858989700675">
        <ele>565.38999999999999</ele>
        <time>2025-05-12T07:11:56Z</time>
      </trkpt>
      <trkpt lat="36.919102035462856" lon="-3.518767040222883">
        <ele>565.38999999999999</ele>
        <time>2025-05-12T07:11:57Z</time>
      </trkpt>
      <trkpt lat="36.919062975794077" lon="-3.518678024411202">
        <ele>564.90999999999997</ele>
        <time>2025-05-12T07:11:58Z</time>
      </trkpt>
      <trkpt lat="36.918988041579723" lon="-3.518628990277648">
        <ele>565.38999999999999</ele>
        <time>2025-05-12T07:11:59Z</time>
      </trkpt>
      <trkpt lat="36.918890979140997" lon="-3.518628990277648">
        <ele>565.87</ele>
        <time>2025-05-12T07:12:00Z</time>
      </trkpt>
      <trkpt lat="36.91883398219943" lon="-3.518681963905692">
        <ele>565.87</ele>
        <time>2025-05-12T07:12:01Z</time>
      </trkpt>
      <trkpt lat="36.91879098303616" lon="-3.518721023574472">
        <ele>566.35000000000002</ele>
        <time>2025-05-12T07:12:02Z</time>
      </trkpt>
      <trkpt lat="36.918756030499935" lon="-3.518752958625555">
        <ele>566.35000000000002</ele>
        <time>2025-05-12T07:12:03Z</time>
      </trkpt>
      <trkpt lat="36.918717976659536" lon="-3.518787994980812">
        <ele>568.27999999999997</ele>
        <time>2025-05-12T07:12:10Z</time>
      </trkpt>
      <trkpt lat="36.918717976659536" lon="-3.518787994980812">
        <ele>568.27999999999997</ele>
        <time>2025-05-12T07:12:50Z</time>
      </trkpt>
      <trkpt lat="36.918717976659536" lon="-3.518787994980812">
        <ele>568.75999999999999</ele>
        <time>2025-05-12T07:13:32Z</time>
      </trkpt>
      <trkpt lat="36.918710013851523" lon="-3.518796041607857">
        <ele>570.20000000000005</ele>
        <time>2025-05-12T07:14:07Z</time>
      </trkpt>
      <trkpt lat="36.91866097971797" lon="-3.518840968608856">
        <ele>573.08000000000004</ele>
        <time>2025-05-12T07:14:09Z</time>
      </trkpt>
      <trkpt lat="36.918615968897939" lon="-3.518882039934397">
        <ele>574.03999999999996</ele>
        <time>2025-05-12T07:14:10Z</time>
      </trkpt>
      <trkpt lat="36.918557966127992" lon="-3.518936019390822">
        <ele>575.00999999999999</ele>
        <time>2025-05-12T07:14:11Z</time>
      </trkpt>
      <trkpt lat="36.91825202666223" lon="-3.519179010763764">
        <ele>575.49000000000001</ele>
        <time>2025-05-12T07:14:15Z</time>
      </trkpt>
      <trkpt lat="36.918157981708646" lon="-3.519228966906667">
        <ele>575.97000000000003</ele>
        <time>2025-05-12T07:14:16Z</time>
      </trkpt>
      <trkpt lat="36.918064020574093" lon="-3.519201977178454">
        <ele>575.97000000000003</ele>
        <time>2025-05-12T07:14:17Z</time>
      </trkpt>
      <trkpt lat="36.917968969792128" lon="-3.519121007993817">
        <ele>576.45000000000005</ele>
        <time>2025-05-12T07:14:18Z</time>
      </trkpt>
      <trkpt lat="36.917896969243884" lon="-3.519008019939065">
        <ele>575.97000000000003</ele>
        <time>2025-05-12T07:14:19Z</time>
      </trkpt>
      <trkpt lat="36.917817005887628" lon="-3.518878016620874">
        <ele>575.97000000000003</ele>
        <time>2025-05-12T07:14:20Z</time>
      </trkpt>
      <trkpt lat="36.917732013389468" lon="-3.518747007474303">
        <ele>575.97000000000003</ele>
        <time>2025-05-12T07:14:21Z</time>
      </trkpt>
      <trkpt lat="36.917556999251246" lon="-3.518291031941772">
        <ele>575.97000000000003</ele>
        <time>2025-05-12T07:14:24Z</time>
      </trkpt>
      <trkpt lat="36.917549036443233" lon="-3.518133033066988">
        <ele>575.97000000000003</ele>
        <time>2025-05-12T07:14:25Z</time>
      </trkpt>
      <trkpt lat="36.917538978159428" lon="-3.517965981736779">
        <ele>575.97000000000003</ele>
        <time>2025-05-12T07:14:26Z</time>
      </trkpt>
      <trkpt lat="36.917566973716021" lon="-3.517811000347138">
        <ele>575.49000000000001</ele>
        <time>2025-05-12T07:14:27Z</time>
      </trkpt>
      <trkpt lat="36.917607961222529" lon="-3.517685020342469">
        <ele>575.49000000000001</ele>
        <time>2025-05-12T07:14:28Z</time>
      </trkpt>
      <trkpt lat="36.917673004791141" lon="-3.517575971782208">
        <ele>575.97000000000003</ele>
        <time>2025-05-12T07:14:29Z</time>
      </trkpt>
      <trkpt lat="36.917755985632539" lon="-3.517478993162513">
        <ele>575.97000000000003</ele>
        <time>2025-05-12T07:14:30Z</time>
      </trkpt>
      <trkpt lat="36.917872997000813" lon="-3.51738897152245">
        <ele>575.97000000000003</ele>
        <time>2025-05-12T07:14:31Z</time>
      </trkpt>
      <trkpt lat="36.917997971177101" lon="-3.517294004559517">
        <ele>575.49000000000001</ele>
        <time>2025-05-12T07:14:32Z</time>
      </trkpt>
      <trkpt lat="36.918124035000801" lon="-3.517189985141158">
        <ele>575.00999999999999</ele>
        <time>2025-05-12T07:14:33Z</time>
      </trkpt>
      <trkpt lat="36.918243980035186" lon="-3.517081020399928">
        <ele>575.00999999999999</ele>
        <time>2025-05-12T07:14:34Z</time>
      </trkpt>
      <trkpt lat="36.918344981968403" lon="-3.516940036788583">
        <ele>574.52999999999997</ele>
        <time>2025-05-12T07:14:35Z</time>
      </trkpt>
      <trkpt lat="36.918407008051872" lon="-3.516792012378573">
        <ele>574.03999999999996</ele>
        <time>2025-05-12T07:14:36Z</time>
      </trkpt>
      <trkpt lat="36.918426034972072" lon="-3.516624961048365">
        <ele>574.03999999999996</ele>
        <time>2025-05-12T07:14:37Z</time>
      </trkpt>
      <trkpt lat="36.918436009436846" lon="-3.516445001587272">
        <ele>574.03999999999996</ele>
        <time>2025-05-12T07:14:38Z</time>
      </trkpt>
      <trkpt lat="36.918409019708633" lon="-3.516258001327515">
        <ele>574.52999999999997</ele>
        <time>2025-05-12T07:14:39Z</time>
      </trkpt>
      <trkpt lat="36.918357973918319" lon="-3.516063960269094">
        <ele>574.52999999999997</ele>
        <time>2025-05-12T07:14:40Z</time>
      </trkpt>
      <trkpt lat="36.918284967541695" lon="-3.515879977494478">
        <ele>575.49000000000001</ele>
        <time>2025-05-12T07:14:41Z</time>
      </trkpt>
      <trkpt lat="36.918188994750381" lon="-3.515700018033385">
        <ele>576.45000000000005</ele>
        <time>2025-05-12T07:14:42Z</time>
      </trkpt>
      <trkpt lat="36.918093021959066" lon="-3.515519974753261">
        <ele>577.40999999999997</ele>
        <time>2025-05-12T07:14:43Z</time>
      </trkpt>
      <trkpt lat="36.917920019477606" lon="-3.515196014195681">
        <ele>580.28999999999996</ele>
        <time>2025-05-12T07:14:45Z</time>
      </trkpt>
      <trkpt lat="36.917838966473937" lon="-3.51504597812891">
        <ele>581.73000000000002</ele>
        <time>2025-05-12T07:14:46Z</time>
      </trkpt>
      <trkpt lat="36.917752968147397" lon="-3.514987975358963">
        <ele>582.70000000000005</ele>
        <time>2025-05-12T07:14:47Z</time>
      </trkpt>
      <trkpt lat="36.917656995356083" lon="-3.514971965923905">
        <ele>584.13999999999999</ele>
        <time>2025-05-12T07:14:48Z</time>
      </trkpt>
      <trkpt lat="36.917560016736388" lon="-3.514993004500866">
        <ele>585.10000000000002</ele>
        <time>2025-05-12T07:14:49Z</time>
      </trkpt>
      <trkpt lat="36.917487010359764" lon="-3.515056036412716">
        <ele>586.05999999999995</ele>
        <time>2025-05-12T07:14:50Z</time>
      </trkpt>
      <trkpt lat="36.917432025074959" lon="-3.515153015032411">
        <ele>587.5</ele>
        <time>2025-05-12T07:14:51Z</time>
      </trkpt>
      <trkpt lat="36.917409980669618" lon="-3.515278995037079">
        <ele>588.46000000000004</ele>
        <time>2025-05-12T07:14:52Z</time>
      </trkpt>
      <trkpt lat="36.917383996769786" lon="-3.51543003693223">
        <ele>589.42999999999995</ele>
        <time>2025-05-12T07:14:53Z</time>
      </trkpt>
      <trkpt lat="36.917356001213193" lon="-3.515590969473124">
        <ele>590.38999999999999</ele>
        <time>2025-05-12T07:14:54Z</time>
      </trkpt>
      <trkpt lat="36.917323982343078" lon="-3.515775036066771">
        <ele>591.35000000000002</ele>
        <time>2025-05-12T07:14:55Z</time>
      </trkpt>
      <trkpt lat="36.917253993451595" lon="-3.51586002856493">
        <ele>592.30999999999995</ele>
        <time>2025-05-12T07:14:56Z</time>
      </trkpt>
      <trkpt lat="36.917151985689998" lon="-3.515919959172607">
        <ele>593.26999999999998</ele>
        <time>2025-05-12T07:14:57Z</time>
      </trkpt>
      <trkpt lat="36.917047966271639" lon="-3.515905039384961">
        <ele>594.23000000000002</ele>
        <time>2025-05-12T07:14:58Z</time>
      </trkpt>
      <trkpt lat="36.916970014572144" lon="-3.515828009694815">
        <ele>595.19000000000005</ele>
        <time>2025-05-12T07:14:59Z</time>
      </trkpt>
      <trkpt lat="36.916916035115719" lon="-3.515718961134553">
        <ele>596.14999999999998</ele>
        <time>2025-05-12T07:15:00Z</time>
      </trkpt>
      <trkpt lat="36.916875969618559" lon="-3.515576971694827">
        <ele>597.60000000000002</ele>
        <time>2025-05-12T07:15:01Z</time>
      </trkpt>
      <trkpt lat="36.916833976283669" lon="-3.515425007790327">
        <ele>598.55999999999995</ele>
        <time>2025-05-12T07:15:02Z</time>
      </trkpt>
      <trkpt lat="36.916792988777161" lon="-3.515282012522221">
        <ele>599.51999999999998</ele>
        <time>2025-05-12T07:15:03Z</time>
      </trkpt>
      <trkpt lat="36.916759964078665" lon="-3.515162989497185">
        <ele>600.48000000000002</ele>
        <time>2025-05-12T07:15:04Z</time>
      </trkpt>
      <trkpt lat="36.916695004329085" lon="-3.515094006434083">
        <ele>601.44000000000005</ele>
        <time>2025-05-12T07:15:05Z</time>
      </trkpt>
      <trkpt lat="36.916615962982178" lon="-3.515067016705871">
        <ele>602.39999999999998</ele>
        <time>2025-05-12T07:15:06Z</time>
      </trkpt>
      <trkpt lat="36.916518984362483" lon="-3.515103980898857">
        <ele>602.88</ele>
        <time>2025-05-12T07:15:07Z</time>
      </trkpt>
      <trkpt lat="36.916422005742788" lon="-3.515181010589004">
        <ele>603.36000000000001</ele>
        <time>2025-05-12T07:15:08Z</time>
      </trkpt>
      <trkpt lat="36.916359979659319" lon="-3.515313025563955">
        <ele>603.85000000000002</ele>
        <time>2025-05-12T07:15:09Z</time>
      </trkpt>
      <trkpt lat="36.916290996596217" lon="-3.515468006953597">
        <ele>604.33000000000004</ele>
        <time>2025-05-12T07:15:10Z</time>
      </trkpt>
      <trkpt lat="36.91612302325666" lon="-3.516148030757904">
        <ele>606.73000000000002</ele>
        <time>2025-05-12T07:15:14Z</time>
      </trkpt>
      <trkpt lat="36.916051022708416" lon="-3.516249032691121">
        <ele>607.21000000000004</ele>
        <time>2025-05-12T07:15:15Z</time>
      </trkpt>
      <trkpt lat="36.915959995239973" lon="-3.516299994662404">
        <ele>608.16999999999996</ele>
        <time>2025-05-12T07:15:16Z</time>
      </trkpt>
      <trkpt lat="36.915863016620278" lon="-3.516278034076095">
        <ele>608.64999999999998</ele>
        <time>2025-05-12T07:15:17Z</time>
      </trkpt>
      <trkpt lat="36.915800990536809" lon="-3.51624702103436">
        <ele>609.61000000000001</ele>
        <time>2025-05-12T07:15:18Z</time>
      </trkpt>
      <trkpt lat="36.915713986381888" lon="-3.51609799079597">
        <ele>610.09000000000003</ele>
        <time>2025-05-12T07:15:19Z</time>
      </trkpt>
      <trkpt lat="36.91565103828907" lon="-3.515990031883121">
        <ele>611.05999999999995</ele>
        <time>2025-05-12T07:15:20Z</time>
      </trkpt>
      <trkpt lat="36.91565103828907" lon="-3.515879977494478">
        <ele>612.01999999999998</ele>
        <time>2025-05-12T07:15:21Z</time>
      </trkpt>
      <trkpt lat="36.915686996653676" lon="-3.515756009146571">
        <ele>612.98000000000002</ele>
        <time>2025-05-12T07:15:22Z</time>
      </trkpt>
      <trkpt lat="36.91573997028172" lon="-3.51560203358531">
        <ele>613.46000000000004</ele>
        <time>2025-05-12T07:15:23Z</time>
      </trkpt>
      <trkpt lat="36.915793027728796" lon="-3.515447974205017">
        <ele>613.94000000000005</ele>
        <time>2025-05-12T07:15:24Z</time>
      </trkpt>
      <trkpt lat="36.915840972214937" lon="-3.515307996422052">
        <ele>614.41999999999996</ele>
        <time>2025-05-12T07:15:25Z</time>
      </trkpt>
      <trkpt lat="36.915886988863349" lon="-3.51517396979034">
        <ele>614.89999999999998</ele>
        <time>2025-05-12T07:15:26Z</time>
      </trkpt>
      <trkpt lat="36.915878020226955" lon="-3.515025023370981">
        <ele>615.38</ele>
        <time>2025-05-12T07:15:27Z</time>
      </trkpt>
      <trkpt lat="36.915838038548827" lon="-3.51470097899437">
        <ele>617.29999999999995</ele>
        <time>2025-05-12T07:15:29Z</time>
      </trkpt>
      <trkpt lat="36.915800990536809" lon="-3.514552032575011">
        <ele>618.75</ele>
        <time>2025-05-12T07:15:30Z</time>
      </trkpt>
      <trkpt lat="36.915711974725127" lon="-3.514427980408073">
        <ele>620.19000000000005</ele>
        <time>2025-05-12T07:15:31Z</time>
      </trkpt>
      <trkpt lat="36.915611978620291" lon="-3.514354974031448">
        <ele>621.14999999999998</ele>
        <time>2025-05-12T07:15:32Z</time>
      </trkpt>
      <trkpt lat="36.915490021929145" lon="-3.514324966818094">
        <ele>622.11000000000001</ele>
        <time>2025-05-12T07:15:33Z</time>
      </trkpt>
      <trkpt lat="36.915349960327148" lon="-3.514348017051816">
        <ele>623.54999999999995</ele>
        <time>2025-05-12T07:15:34Z</time>
      </trkpt>
      <trkpt lat="36.91520000807941" lon="-3.514372995123267">
        <ele>624.02999999999997</ele>
        <time>2025-05-12T07:15:35Z</time>
      </trkpt>
      <trkpt lat="36.915037985891104" lon="-3.514405013993383">
        <ele>624.99000000000001</ele>
        <time>2025-05-12T07:15:36Z</time>
      </trkpt>
      <trkpt lat="36.914864983409643" lon="-3.514441978186369">
        <ele>625.47000000000003</ele>
        <time>2025-05-12T07:15:37Z</time>
      </trkpt>
      <trkpt lat="36.914377994835377" lon="-3.514543985947967">
        <ele>628.36000000000001</ele>
        <time>2025-05-12T07:15:40Z</time>
      </trkpt>
      <trkpt lat="36.914231982082129" lon="-3.51457298733294">
        <ele>629.79999999999995</ele>
        <time>2025-05-12T07:15:41Z</time>
      </trkpt>
      <trkpt lat="36.914088986814022" lon="-3.514527976512909">
        <ele>630.75999999999999</ele>
        <time>2025-05-12T07:15:42Z</time>
      </trkpt>
      <trkpt lat="36.91382403485477" lon="-3.514398979023099">
        <ele>632.67999999999995</ele>
        <time>2025-05-12T07:15:44Z</time>
      </trkpt>
      <trkpt lat="36.913721021264791" lon="-3.514295965433121">
        <ele>634.13</ele>
        <time>2025-05-12T07:15:45Z</time>
      </trkpt>
      <trkpt lat="36.91363200545311" lon="-3.514165040105581">
        <ele>635.57000000000005</ele>
        <time>2025-05-12T07:15:46Z</time>
      </trkpt>
      <trkpt lat="36.913462020456791" lon="-3.513887012377381">
        <ele>637.97000000000003</ele>
        <time>2025-05-12T07:15:48Z</time>
      </trkpt>
      <trkpt lat="36.913447016850114" lon="-3.513721972703934">
        <ele>639.40999999999997</ele>
        <time>2025-05-12T07:15:49Z</time>
      </trkpt>
      <trkpt lat="36.91344098187983" lon="-3.513650977984071">
        <ele>640.86000000000001</ele>
        <time>2025-05-12T07:15:50Z</time>
      </trkpt>
      <trkpt lat="36.913510970771313" lon="-3.513570008799434">
        <ele>642.29999999999995</ele>
        <time>2025-05-12T07:15:51Z</time>
      </trkpt>
      <trkpt lat="36.913575008511543" lon="-3.51349800825119">
        <ele>643.25999999999999</ele>
        <time>2025-05-12T07:15:52Z</time>
      </trkpt>
      <trkpt lat="36.913651032373309" lon="-3.513438999652863">
        <ele>644.70000000000005</ele>
        <time>2025-05-12T07:15:53Z</time>
      </trkpt>
      <trkpt lat="36.913757985457778" lon="-3.513365993276238">
        <ele>645.65999999999997</ele>
        <time>2025-05-12T07:15:54Z</time>
      </trkpt>
      <trkpt lat="36.913876002654433" lon="-3.513286029919982">
        <ele>646.62</ele>
        <time>2025-05-12T07:15:55Z</time>
      </trkpt>
      <trkpt lat="36.914112959057093" lon="-3.513125013560057">
        <ele>648.07000000000005</ele>
        <time>2025-05-12T07:15:57Z</time>
      </trkpt>
      <trkpt lat="36.91419099457562" lon="-3.513002973049879">
        <ele>649.02999999999997</ele>
        <time>2025-05-12T07:15:58Z</time>
      </trkpt>
      <trkpt lat="36.914227036759257" lon="-3.512877998873591">
        <ele>649.99000000000001</ele>
        <time>2025-05-12T07:15:59Z</time>
      </trkpt>
      <trkpt lat="36.914200969040394" lon="-3.512768028303981">
        <ele>650.47000000000003</ele>
        <time>2025-05-12T07:16:00Z</time>
      </trkpt>
      <trkpt lat="36.91414900124073" lon="-3.512664008885622">
        <ele>651.42999999999995</ele>
        <time>2025-05-12T07:16:01Z</time>
      </trkpt>
      <trkpt lat="36.914053028449416" lon="-3.512600976973772">
        <ele>651.90999999999997</ele>
        <time>2025-05-12T07:16:02Z</time>
      </trkpt>
      <trkpt lat="36.913939034566283" lon="-3.512527970597148">
        <ele>652.38999999999999</ele>
        <time>2025-05-12T07:16:03Z</time>
      </trkpt>
      <trkpt lat="36.913720015436411" lon="-3.512384975329042">
        <ele>653.83000000000004</ele>
        <time>2025-05-12T07:16:05Z</time>
      </trkpt>
      <trkpt lat="36.913670981302857" lon="-3.512286990880966">
        <ele>654.30999999999995</ele>
        <time>2025-05-12T07:16:06Z</time>
      </trkpt>
      <trkpt lat="36.913664024323225" lon="-3.512206021696329">
        <ele>654.79999999999995</ele>
        <time>2025-05-12T07:16:07Z</time>
      </trkpt>
      <trkpt lat="36.913680033758283" lon="-3.51212396286428">
        <ele>655.27999999999997</ele>
        <time>2025-05-12T07:16:08Z</time>
      </trkpt>
      <trkpt lat="36.913758991286159" lon="-3.512054979801178">
        <ele>655.27999999999997</ele>
        <time>2025-05-12T07:16:09Z</time>
      </trkpt>
      <trkpt lat="36.913853958249092" lon="-3.511969987303019">
        <ele>655.27999999999997</ele>
        <time>2025-05-12T07:16:10Z</time>
      </trkpt>
      <trkpt lat="36.914446977898479" lon="-3.511442011222243">
        <ele>656.24000000000001</ele>
        <time>2025-05-12T07:16:15Z</time>
      </trkpt>
      <trkpt lat="36.914589973166585" lon="-3.511434970423579">
        <ele>656.24000000000001</ele>
        <time>2025-05-12T07:16:16Z</time>
      </trkpt>
      <trkpt lat="36.914737997576594" lon="-3.511428013443947">
        <ele>656.24000000000001</ele>
        <time>2025-05-12T07:16:17Z</time>
      </trkpt>
      <trkpt lat="36.915848013013601" lon="-3.511563967913389">
        <ele>655.75999999999999</ele>
        <time>2025-05-12T07:16:24Z</time>
      </trkpt>
      <trkpt lat="36.916015986353159" lon="-3.511591041460633">
        <ele>655.27999999999997</ele>
        <time>2025-05-12T07:16:25Z</time>
      </trkpt>
      <trkpt lat="36.916154036298394" lon="-3.5115219745785">
        <ele>654.79999999999995</ele>
        <time>2025-05-12T07:16:26Z</time>
      </trkpt>
      <trkpt lat="36.916754012927413" lon="-3.51122198626399">
        <ele>653.35000000000002</ele>
        <time>2025-05-12T07:16:30Z</time>
      </trkpt>
      <trkpt lat="36.916861971840262" lon="-3.511099023744464">
        <ele>652.87</ele>
        <time>2025-05-12T07:16:31Z</time>
      </trkpt>
      <trkpt lat="36.916934978216887" lon="-3.510958962142468">
        <ele>652.38999999999999</ele>
        <time>2025-05-12T07:16:32Z</time>
      </trkpt>
      <trkpt lat="36.916923997923732" lon="-3.510832982137799">
        <ele>651.90999999999997</ele>
        <time>2025-05-12T07:16:33Z</time>
      </trkpt>
      <trkpt lat="36.916894996538758" lon="-3.510699961334467">
        <ele>651.90999999999997</ele>
        <time>2025-05-12T07:16:34Z</time>
      </trkpt>
      <trkpt lat="36.916841017082334" lon="-3.510565012693405">
        <ele>651.42999999999995</ele>
        <time>2025-05-12T07:16:35Z</time>
      </trkpt>
      <trkpt lat="36.916772034019232" lon="-3.510421011596918">
        <ele>651.42999999999995</ele>
        <time>2025-05-12T07:16:36Z</time>
      </trkpt>
      <trkpt lat="36.916548991575837" lon="-3.509925976395607">
        <ele>653.35000000000002</ele>
        <time>2025-05-12T07:16:39Z</time>
      </trkpt>
      <trkpt lat="36.916504986584187" lon="-3.509751968085766">
        <ele>654.30999999999995</ele>
        <time>2025-05-12T07:16:40Z</time>
      </trkpt>
      <trkpt lat="36.916501969099045" lon="-3.50956697948277">
        <ele>654.79999999999995</ele>
        <time>2025-05-12T07:16:41Z</time>
      </trkpt>
      <trkpt lat="36.916526025161147" lon="-3.509364975616336">
        <ele>655.75999999999999</ele>
        <time>2025-05-12T07:16:42Z</time>
      </trkpt>
      <trkpt lat="36.916552009060979" lon="-3.509152997285128">
        <ele>656.24000000000001</ele>
        <time>2025-05-12T07:16:43Z</time>
      </trkpt>
      <trkpt lat="36.916830958798528" lon="-3.506655022501946">
        <ele>666.80999999999995</ele>
        <time>2025-05-12T07:16:54Z</time>
      </trkpt>
      <trkpt lat="36.916829030960798" lon="-3.506426028907299">
        <ele>667.28999999999996</ele>
        <time>2025-05-12T07:16:55Z</time>
      </trkpt>
      <trkpt lat="36.916790977120399" lon="-3.506202986463904">
        <ele>667.28999999999996</ele>
        <time>2025-05-12T07:16:56Z</time>
      </trkpt>
      <trkpt lat="36.916710007935762" lon="-3.506001988425851">
        <ele>667.76999999999998</ele>
        <time>2025-05-12T07:16:57Z</time>
      </trkpt>
      <trkpt lat="36.916616968810558" lon="-3.505787998437882">
        <ele>668.25</ele>
        <time>2025-05-12T07:16:58Z</time>
      </trkpt>
      <trkpt lat="36.916523007676005" lon="-3.505568979308009">
        <ele>668.25</ele>
        <time>2025-05-12T07:16:59Z</time>
      </trkpt>
      <trkpt lat="36.915898974984884" lon="-3.503737030550838">
        <ele>670.17999999999995</ele>
        <time>2025-05-12T07:17:07Z</time>
      </trkpt>
      <trkpt lat="36.915483986958861" lon="-3.502284027636051">
        <ele>673.05999999999995</ele>
        <time>2025-05-12T07:17:14Z</time>
      </trkpt>
      <trkpt lat="36.915323976427317" lon="-3.501696037128568">
        <ele>674.98000000000002</ele>
        <time>2025-05-12T07:17:18Z</time>
      </trkpt>
      <trkpt lat="36.915258010849357" lon="-3.501621019095182">
        <ele>675.46000000000004</ele>
        <time>2025-05-12T07:17:19Z</time>
      </trkpt>
      <trkpt lat="36.915170000866055" lon="-3.501595035195351">
        <ele>675.46000000000004</ele>
        <time>2025-05-12T07:17:20Z</time>
      </trkpt>
      <trkpt lat="36.91507201641798" lon="-3.501567039638758">
        <ele>674.98000000000002</ele>
        <time>2025-05-12T07:17:21Z</time>
      </trkpt>
      <trkpt lat="36.914967996999621" lon="-3.501538038253784">
        <ele>674.5</ele>
        <time>2025-05-12T07:17:22Z</time>
      </trkpt>
      <trkpt lat="36.914624003693461" lon="-3.501405017450452">
        <ele>673.53999999999996</ele>
        <time>2025-05-12T07:17:25Z</time>
      </trkpt>
      <trkpt lat="36.91449198871851" lon="-3.501312984153628">
        <ele>674.01999999999998</ele>
        <time>2025-05-12T07:17:26Z</time>
      </trkpt>
      <trkpt lat="36.914421999827027" lon="-3.501221034675837">
        <ele>673.53999999999996</ele>
        <time>2025-05-12T07:17:27Z</time>
      </trkpt>
      <trkpt lat="36.914329966530204" lon="-3.50110100582242">
        <ele>673.05999999999995</ele>
        <time>2025-05-12T07:17:28Z</time>
      </trkpt>
      <trkpt lat="36.914239022880793" lon="-3.500980976969004">
        <ele>673.05999999999995</ele>
        <time>2025-05-12T07:17:29Z</time>
      </trkpt>
      <trkpt lat="36.914176996797323" lon="-3.500829013064504">
        <ele>673.53999999999996</ele>
        <time>2025-05-12T07:17:30Z</time>
      </trkpt>
      <trkpt lat="36.91412896849215" lon="-3.500669002532959">
        <ele>673.05999999999995</ele>
        <time>2025-05-12T07:17:31Z</time>
      </trkpt>
      <trkpt lat="36.914084041491151" lon="-3.500518966466188">
        <ele>673.05999999999995</ele>
        <time>2025-05-12T07:17:32Z</time>
      </trkpt>
      <trkpt lat="36.914001982659101" lon="-3.500378988683224">
        <ele>673.05999999999995</ele>
        <time>2025-05-12T07:17:33Z</time>
      </trkpt>
      <trkpt lat="36.913925036787987" lon="-3.500248985365033">
        <ele>673.05999999999995</ele>
        <time>2025-05-12T07:17:34Z</time>
      </trkpt>
      <trkpt lat="36.913851024582982" lon="-3.500124011188746">
        <ele>673.05999999999995</ele>
        <time>2025-05-12T07:17:35Z</time>
      </trkpt>
      <trkpt lat="36.913810959085822" lon="-3.500000964850187">
        <ele>672.58000000000004</ele>
        <time>2025-05-12T07:17:36Z</time>
      </trkpt>
      <trkpt lat="36.91382403485477" lon="-3.499880013987422">
        <ele>672.10000000000002</ele>
        <time>2025-05-12T07:17:37Z</time>
      </trkpt>
      <trkpt lat="36.91386996768415" lon="-3.49981002509594">
        <ele>671.62</ele>
        <time>2025-05-12T07:17:38Z</time>
      </trkpt>
      <trkpt lat="36.91395596601069" lon="-3.49972503259778">
        <ele>671.13999999999999</ele>
        <time>2025-05-12T07:17:39Z</time>
      </trkpt>
      <trkpt lat="36.914052022621036" lon="-3.499706005677581">
        <ele>670.65999999999997</ele>
        <time>2025-05-12T07:17:40Z</time>
      </trkpt>
      <trkpt lat="36.914186971262097" lon="-3.499680021777749">
        <ele>670.65999999999997</ele>
        <time>2025-05-12T07:17:41Z</time>
      </trkpt>
      <trkpt lat="36.914996998384595" lon="-3.499521017074585">
        <ele>670.17999999999995</ele>
        <time>2025-05-12T07:17:46Z</time>
      </trkpt>
      <trkpt lat="36.915160026401281" lon="-3.4994459990412">
        <ele>670.17999999999995</ele>
        <time>2025-05-12T07:17:47Z</time>
      </trkpt>
      <trkpt lat="36.915320958942175" lon="-3.499348014593124">
        <ele>670.17999999999995</ele>
        <time>2025-05-12T07:17:48Z</time>
      </trkpt>
      <trkpt lat="36.915465965867043" lon="-3.499214993789792">
        <ele>670.17999999999995</ele>
        <time>2025-05-12T07:17:49Z</time>
      </trkpt>
      <trkpt lat="36.91560703329742" lon="-3.499073004350066">
        <ele>670.17999999999995</ele>
        <time>2025-05-12T07:17:50Z</time>
      </trkpt>
      <trkpt lat="36.915732007473707" lon="-3.498921040445566">
        <ele>670.17999999999995</ele>
        <time>2025-05-12T07:17:51Z</time>
      </trkpt>
      <trkpt lat="36.916088992729783" lon="-3.498370014131069">
        <ele>669.70000000000005</ele>
        <time>2025-05-12T07:17:55Z</time>
      </trkpt>
      <trkpt lat="36.916117994114757" lon="-3.498245039954782">
        <ele>669.22000000000003</ele>
        <time>2025-05-12T07:17:56Z</time>
      </trkpt>
      <trkpt lat="36.916094021871686" lon="-3.498121993616223">
        <ele>669.22000000000003</ele>
        <time>2025-05-12T07:17:57Z</time>
      </trkpt>
      <trkpt lat="36.916026966646314" lon="-3.498031971976161">
        <ele>669.22000000000003</ele>
        <time>2025-05-12T07:17:58Z</time>
      </trkpt>
      <trkpt lat="36.915930993855" lon="-3.497957037761807">
        <ele>669.22000000000003</ele>
        <time>2025-05-12T07:17:59Z</time>
      </trkpt>
      <trkpt lat="36.915824040770531" lon="-3.49792200140655">
        <ele>668.73000000000002</ele>
        <time>2025-05-12T07:18:00Z</time>
      </trkpt>
      <trkpt lat="36.915694959461689" lon="-3.49792200140655">
        <ele>668.73000000000002</ele>
        <time>2025-05-12T07:18:01Z</time>
      </trkpt>
      <trkpt lat="36.915557999163866" lon="-3.49792200140655">
        <ele>668.73000000000002</ele>
        <time>2025-05-12T07:18:02Z</time>
      </trkpt>
      <trkpt lat="36.915178969502449" lon="-3.49792200140655">
        <ele>669.22000000000003</ele>
        <time>2025-05-12T07:18:05Z</time>
      </trkpt>
      <trkpt lat="36.915068998932838" lon="-3.497853018343449">
        <ele>669.70000000000005</ele>
        <time>2025-05-12T07:18:06Z</time>
      </trkpt>
      <trkpt lat="36.914979983121157" lon="-3.497796021401882">
        <ele>669.70000000000005</ele>
        <time>2025-05-12T07:18:07Z</time>
      </trkpt>
      <trkpt lat="36.914932960644364" lon="-3.497682027518749">
        <ele>669.70000000000005</ele>
        <time>2025-05-12T07:18:08Z</time>
      </trkpt>
      <trkpt lat="36.914928015321493" lon="-3.497551018372178">
        <ele>669.22000000000003</ele>
        <time>2025-05-12T07:18:09Z</time>
      </trkpt>
      <trkpt lat="36.914956010878086" lon="-3.497422020882368">
        <ele>669.22000000000003</ele>
        <time>2025-05-12T07:18:10Z</time>
      </trkpt>
      <trkpt lat="36.915022982284427" lon="-3.497320013120771">
        <ele>669.22000000000003</ele>
        <time>2025-05-12T07:18:11Z</time>
      </trkpt>
      <trkpt lat="36.915105041116476" lon="-3.497227979823947">
        <ele>668.73000000000002</ele>
        <time>2025-05-12T07:18:12Z</time>
      </trkpt>
      <trkpt lat="36.915207970887423" lon="-3.497156985104084">
        <ele>668.25</ele>
        <time>2025-05-12T07:18:13Z</time>
      </trkpt>
      <trkpt lat="36.915331017225981" lon="-3.497094959020615">
        <ele>668.73000000000002</ele>
        <time>2025-05-12T07:18:14Z</time>
      </trkpt>
      <trkpt lat="36.915470995008945" lon="-3.497070986777544">
        <ele>668.73000000000002</ele>
        <time>2025-05-12T07:18:15Z</time>
      </trkpt>
      <trkpt lat="36.915626982226968" lon="-3.497051037847996">
        <ele>668.73000000000002</ele>
        <time>2025-05-12T07:18:16Z</time>
      </trkpt>
      <trkpt lat="36.916261995211244" lon="-3.496940983459353">
        <ele>669.70000000000005</ele>
        <time>2025-05-12T07:18:20Z</time>
      </trkpt>
      <trkpt lat="36.916394010186195" lon="-3.496837969869375">
        <ele>669.70000000000005</ele>
        <time>2025-05-12T07:18:21Z</time>
      </trkpt>
      <trkpt lat="36.916514039039612" lon="-3.496722970157862">
        <ele>670.17999999999995</ele>
        <time>2025-05-12T07:18:22Z</time>
      </trkpt>
      <trkpt lat="36.916733980178833" lon="-3.496513003483415">
        <ele>671.13999999999999</ele>
        <time>2025-05-12T07:18:24Z</time>
      </trkpt>
      <trkpt lat="36.916843028739095" lon="-3.496415019035339">
        <ele>671.62</ele>
        <time>2025-05-12T07:18:25Z</time>
      </trkpt>
      <trkpt lat="36.916975965723395" lon="-3.496355004608631">
        <ele>672.10000000000002</ele>
        <time>2025-05-12T07:18:26Z</time>
      </trkpt>
      <trkpt lat="36.917389025911689" lon="-3.496166998520494">
        <ele>673.53999999999996</ele>
        <time>2025-05-12T07:18:29Z</time>
      </trkpt>
      <trkpt lat="36.917656995356083" lon="-3.496086029335856">
        <ele>675.46000000000004</ele>
        <time>2025-05-12T07:18:31Z</time>
      </trkpt>
      <trkpt lat="36.917780041694641" lon="-3.496091980487108">
        <ele>675.94000000000005</ele>
        <time>2025-05-12T07:18:32Z</time>
      </trkpt>
      <trkpt lat="36.9179099611938" lon="-3.496131962165237">
        <ele>676.41999999999996</ele>
        <time>2025-05-12T07:18:33Z</time>
      </trkpt>
      <trkpt lat="36.9184660166502" lon="-3.496294990181923">
        <ele>679.78999999999996</ele>
        <time>2025-05-12T07:18:38Z</time>
      </trkpt>
      <trkpt lat="36.918555032461882" lon="-3.496318962424994">
        <ele>680.75</ele>
        <time>2025-05-12T07:18:39Z</time>
      </trkpt>
      <trkpt lat="36.918644970282912" lon="-3.496315022930503">
        <ele>681.71000000000004</ele>
        <time>2025-05-12T07:18:40Z</time>
      </trkpt>
      <trkpt lat="36.9187250174582" lon="-3.496264982968569">
        <ele>682.66999999999996</ele>
        <time>2025-05-12T07:18:41Z</time>
      </trkpt>
      <trkpt lat="36.918794000521302" lon="-3.496195999905467">
        <ele>683.63</ele>
        <time>2025-05-12T07:18:42Z</time>
      </trkpt>
      <trkpt lat="36.918858960270882" lon="-3.496107989922166">
        <ele>684.12</ele>
        <time>2025-05-12T07:18:43Z</time>
      </trkpt>
      <trkpt lat="36.918893996626139" lon="-3.496002964675427">
        <ele>685.08000000000004</ele>
        <time>2025-05-12T07:18:44Z</time>
      </trkpt>
      <trkpt lat="36.918930038809776" lon="-3.495895005762577">
        <ele>685.08000000000004</ele>
        <time>2025-05-12T07:18:45Z</time>
      </trkpt>
      <trkpt lat="36.918955016881227" lon="-3.495783023536205">
        <ele>685.55999999999995</ele>
        <time>2025-05-12T07:18:46Z</time>
      </trkpt>
      <trkpt lat="36.918977983295918" lon="-3.495673974975944">
        <ele>685.55999999999995</ele>
        <time>2025-05-12T07:18:47Z</time>
      </trkpt>
      <trkpt lat="36.919188033789396" lon="-3.49465599283576">
        <ele>686.51999999999998</ele>
        <time>2025-05-12T07:18:56Z</time>
      </trkpt>
      <trkpt lat="36.919395988807082" lon="-3.493699030950666">
        <ele>686.03999999999996</ele>
        <time>2025-05-12T07:19:05Z</time>
      </trkpt>
      <trkpt lat="36.919419039040804" lon="-3.493596017360687">
        <ele>685.55999999999995</ele>
        <time>2025-05-12T07:19:06Z</time>
      </trkpt>
      <trkpt lat="36.919464971870184" lon="-3.493395019322634">
        <ele>684.60000000000002</ele>
        <time>2025-05-12T07:19:08Z</time>
      </trkpt>
      <trkpt lat="36.919504031538963" lon="-3.493312038481236">
        <ele>684.12</ele>
        <time>2025-05-12T07:19:09Z</time>
      </trkpt>
      <trkpt lat="36.919548958539963" lon="-3.493230985477567">
        <ele>684.12</ele>
        <time>2025-05-12T07:19:10Z</time>
      </trkpt>
      <trkpt lat="36.919592963531613" lon="-3.493168959394097">
        <ele>683.63</ele>
        <time>2025-05-12T07:19:11Z</time>
      </trkpt>
      <trkpt lat="36.919658007100224" lon="-3.493120009079576">
        <ele>683.63</ele>
        <time>2025-05-12T07:19:12Z</time>
      </trkpt>
      <trkpt lat="36.919720033183694" lon="-3.493110034614801">
        <ele>683.63</ele>
        <time>2025-05-12T07:19:13Z</time>
      </trkpt>
      <trkpt lat="36.919796979054809" lon="-3.493100982159376">
        <ele>683.14999999999998</ele>
        <time>2025-05-12T07:19:14Z</time>
      </trkpt>
      <trkpt lat="36.919857999309897" lon="-3.493095031008124">
        <ele>682.66999999999996</ele>
        <time>2025-05-12T07:19:15Z</time>
      </trkpt>
      <trkpt lat="36.919942991808057" lon="-3.493125038221479">
        <ele>681.71000000000004</ele>
        <time>2025-05-12T07:19:16Z</time>
      </trkpt>
      <trkpt lat="36.920026978477836" lon="-3.493141969665885">
        <ele>681.71000000000004</ele>
        <time>2025-05-12T07:19:17Z</time>
      </trkpt>
      <trkpt lat="36.920115994289517" lon="-3.493163008242846">
        <ele>681.23000000000002</ele>
        <time>2025-05-12T07:19:18Z</time>
      </trkpt>
      <trkpt lat="36.920296959578991" lon="-3.493201984092593">
        <ele>679.78999999999996</ele>
        <time>2025-05-12T07:19:20Z</time>
      </trkpt>
      <trkpt lat="36.920565012842417" lon="-3.493196032941341">
        <ele>677.87</ele>
        <time>2025-05-12T07:19:23Z</time>
      </trkpt>
      <trkpt lat="36.920651011168957" lon="-3.493185974657536">
        <ele>677.38999999999999</ele>
        <time>2025-05-12T07:19:24Z</time>
      </trkpt>
      <trkpt lat="36.920727035030723" lon="-3.493174994364381">
        <ele>676.41999999999996</ele>
        <time>2025-05-12T07:19:25Z</time>
      </trkpt>
      <trkpt lat="36.920857038348913" lon="-3.493153033778071">
        <ele>674.5</ele>
        <time>2025-05-12T07:19:27Z</time>
      </trkpt>
      <trkpt lat="36.92095996811986" lon="-3.49312998354435">
        <ele>672.58000000000004</ele>
        <time>2025-05-12T07:19:29Z</time>
      </trkpt>
      <trkpt lat="36.921005984768271" lon="-3.493093019351363">
        <ele>671.13999999999999</ele>
        <time>2025-05-12T07:19:30Z</time>
      </trkpt>
      <trkpt lat="36.921056024730206" lon="-3.493053037673235">
        <ele>670.17999999999995</ele>
        <time>2025-05-12T07:19:31Z</time>
      </trkpt>
      <trkpt lat="36.921081002801657" lon="-3.492983970791102">
        <ele>669.22000000000003</ele>
        <time>2025-05-12T07:19:32Z</time>
      </trkpt>
      <trkpt lat="36.921101035550237" lon="-3.492911970242858">
        <ele>668.25</ele>
        <time>2025-05-12T07:19:33Z</time>
      </trkpt>
      <trkpt lat="36.921101035550237" lon="-3.492832006886601">
        <ele>667.28999999999996</ele>
        <time>2025-05-12T07:19:34Z</time>
      </trkpt>
      <trkpt lat="36.921101035550237" lon="-3.492768974974752">
        <ele>666.33000000000004</ele>
        <time>2025-05-12T07:19:35Z</time>
      </trkpt>
      <trkpt lat="36.921101035550237" lon="-3.492686999961734">
        <ele>665.37</ele>
        <time>2025-05-12T07:19:36Z</time>
      </trkpt>
      <trkpt lat="36.921083014458418" lon="-3.492632014676929">
        <ele>664.40999999999997</ele>
        <time>2025-05-12T07:19:37Z</time>
      </trkpt>
      <trkpt lat="36.921054013073444" lon="-3.492556996643543">
        <ele>662.97000000000003</ele>
        <time>2025-05-12T07:19:38Z</time>
      </trkpt>
      <trkpt lat="36.920944964513183" lon="-3.492411989718676">
        <ele>661.03999999999996</ele>
        <time>2025-05-12T07:19:40Z</time>
      </trkpt>
      <trkpt lat="36.920661991462111" lon="-3.492085011675954">
        <ele>654.79999999999995</ele>
        <time>2025-05-12T07:19:46Z</time>
      </trkpt>
      <trkpt lat="36.92059401422739" lon="-3.492002030834556">
        <ele>652.87</ele>
        <time>2025-05-12T07:19:48Z</time>
      </trkpt>
      <trkpt lat="36.920560989528894" lon="-3.491960959509015">
        <ele>651.90999999999997</ele>
        <time>2025-05-12T07:19:49Z</time>
      </trkpt>
      <trkpt lat="36.92053098231554" lon="-3.491923995316029">
        <ele>650.95000000000005</ele>
        <time>2025-05-12T07:19:50Z</time>
      </trkpt>
      <trkpt lat="36.920502986758947" lon="-3.491888958960772">
        <ele>649.99000000000001</ele>
        <time>2025-05-12T07:19:51Z</time>
      </trkpt>
      <trkpt lat="36.920475997030735" lon="-3.491857023909688">
        <ele>649.02999999999997</ele>
        <time>2025-05-12T07:19:52Z</time>
      </trkpt>
      <trkpt lat="36.920350017026067" lon="-3.491700030863285">
        <ele>644.70000000000005</ele>
        <time>2025-05-12T07:19:58Z</time>
      </trkpt>
      <trkpt lat="36.920298971235752" lon="-3.491602968424559">
        <ele>642.77999999999997</ele>
        <time>2025-05-12T07:20:00Z</time>
      </trkpt>
      <trkpt lat="36.920266030356288" lon="-3.49154002033174">
        <ele>642.29999999999995</ele>
        <time>2025-05-12T07:20:01Z</time>
      </trkpt>
      <trkpt lat="36.920168967917562" lon="-3.491359977051616">
        <ele>640.86000000000001</ele>
        <time>2025-05-12T07:20:04Z</time>
      </trkpt>
      <trkpt lat="36.920044999569654" lon="-3.491111034527421">
        <ele>639.40999999999997</ele>
        <time>2025-05-12T07:20:08Z</time>
      </trkpt>
      <trkpt lat="36.919938968494534" lon="-3.490893021225929">
        <ele>637.97000000000003</ele>
        <time>2025-05-12T07:20:11Z</time>
      </trkpt>
      <trkpt lat="36.919911978766322" lon="-3.490833006799221">
        <ele>637.49000000000001</ele>
        <time>2025-05-12T07:20:12Z</time>
      </trkpt>
      <trkpt lat="36.919804019853473" lon="-3.490594038739801">
        <ele>634.61000000000001</ele>
        <time>2025-05-12T07:20:16Z</time>
      </trkpt>
      <trkpt lat="36.919708969071507" lon="-3.490446014329791">
        <ele>636.52999999999997</ele>
        <time>2025-05-12T07:20:19Z</time>
      </trkpt>
      <trkpt lat="36.91962799988687" lon="-3.490348029881716">
        <ele>637.97000000000003</ele>
        <time>2025-05-12T07:20:21Z</time>
      </trkpt>
      <trkpt lat="36.919582989066839" lon="-3.490293966606259">
        <ele>638.45000000000005</ele>
        <time>2025-05-12T07:20:22Z</time>
      </trkpt>
      <trkpt lat="36.919536972418427" lon="-3.490239987149835">
        <ele>638.92999999999995</ele>
        <time>2025-05-12T07:20:23Z</time>
      </trkpt>
      <trkpt lat="36.919490033760667" lon="-3.490181984379888">
        <ele>639.40999999999997</ele>
        <time>2025-05-12T07:20:24Z</time>
      </trkpt>
      <trkpt lat="36.919442005455494" lon="-3.490125993266702">
        <ele>639.40999999999997</ele>
        <time>2025-05-12T07:20:25Z</time>
      </trkpt>
      <trkpt lat="36.919394982978702" lon="-3.490068996325135">
        <ele>639.40999999999997</ele>
        <time>2025-05-12T07:20:26Z</time>
      </trkpt>
      <trkpt lat="36.91934997215867" lon="-3.490015016868711">
        <ele>639.40999999999997</ele>
        <time>2025-05-12T07:20:27Z</time>
      </trkpt>
      <trkpt lat="36.9193069729954" lon="-3.489966988563538">
        <ele>639.40999999999997</ele>
        <time>2025-05-12T07:20:28Z</time>
      </trkpt>
      <trkpt lat="36.919271014630795" lon="-3.48992801271379">
        <ele>639.88999999999999</ele>
        <time>2025-05-12T07:20:29Z</time>
      </trkpt>
      <trkpt lat="36.919237989932299" lon="-3.489891970530152">
        <ele>639.40999999999997</ele>
        <time>2025-05-12T07:20:30Z</time>
      </trkpt>
      <trkpt lat="36.919206976890564" lon="-3.489858023822308">
        <ele>639.40999999999997</ele>
        <time>2025-05-12T07:20:31Z</time>
      </trkpt>
      <trkpt lat="36.91917696967721" lon="-3.489824999123812">
        <ele>639.88999999999999</ele>
        <time>2025-05-12T07:20:32Z</time>
      </trkpt>
      <trkpt lat="36.919147968292236" lon="-3.489792980253696">
        <ele>639.88999999999999</ele>
        <time>2025-05-12T07:20:33Z</time>
      </trkpt>
      <trkpt lat="36.919118966907263" lon="-3.489761967211962">
        <ele>639.88999999999999</ele>
        <time>2025-05-12T07:20:34Z</time>
      </trkpt>
      <trkpt lat="36.919088959693909" lon="-3.489717040210962">
        <ele>639.88999999999999</ele>
        <time>2025-05-12T07:20:35Z</time>
      </trkpt>
      <trkpt lat="36.919061969965696" lon="-3.48967001773417">
        <ele>639.40999999999997</ele>
        <time>2025-05-12T07:20:36Z</time>
      </trkpt>
      <trkpt lat="36.919036991894245" lon="-3.489625006914139">
        <ele>638.92999999999995</ele>
        <time>2025-05-12T07:20:37Z</time>
      </trkpt>
      <trkpt lat="36.919008996337652" lon="-3.489575972780585">
        <ele>638.92999999999995</ele>
        <time>2025-05-12T07:20:38Z</time>
      </trkpt>
      <trkpt lat="36.91898301243782" lon="-3.489529034122825">
        <ele>638.45000000000005</ele>
        <time>2025-05-12T07:20:39Z</time>
      </trkpt>
      <trkpt lat="36.91896297968924" lon="-3.489493997767568">
        <ele>637.97000000000003</ele>
        <time>2025-05-12T07:20:40Z</time>
      </trkpt>
      <trkpt lat="36.918930038809776" lon="-3.489433983340859">
        <ele>637.49000000000001</ele>
        <time>2025-05-12T07:20:42Z</time>
      </trkpt>
      <trkpt lat="36.91891604103148" lon="-3.489411016926169">
        <ele>637.00999999999999</ele>
        <time>2025-05-12T07:20:43Z</time>
      </trkpt>
      <trkpt lat="36.918891984969378" lon="-3.489367011934519">
        <ele>637.00999999999999</ele>
        <time>2025-05-12T07:20:44Z</time>
      </trkpt>
      <trkpt lat="36.918797018006444" lon="-3.489198032766581">
        <ele>636.52999999999997</ele>
        <time>2025-05-12T07:20:47Z</time>
      </trkpt>
      <trkpt lat="36.918763993307948" lon="-3.489140029996634">
        <ele>636.52999999999997</ele>
        <time>2025-05-12T07:20:48Z</time>
      </trkpt>
      <trkpt lat="36.918702973052859" lon="-3.489012038335204">
        <ele>635.57000000000005</ele>
        <time>2025-05-12T07:20:50Z</time>
      </trkpt>
      <trkpt lat="36.918683024123311" lon="-3.488952023908496">
        <ele>635.57000000000005</ele>
        <time>2025-05-12T07:20:51Z</time>
      </trkpt>
      <trkpt lat="36.918601971119642" lon="-3.488668967038393">
        <ele>633.64999999999998</ele>
        <time>2025-05-12T07:20:55Z</time>
      </trkpt>
      <trkpt lat="36.918590990826488" lon="-3.488590009510517">
        <ele>633.16999999999996</ele>
        <time>2025-05-12T07:20:56Z</time>
      </trkpt>
      <trkpt lat="36.918579004704952" lon="-3.48850904032588">
        <ele>633.16999999999996</ele>
        <time>2025-05-12T07:20:57Z</time>
      </trkpt>
      <trkpt lat="36.918504992499948" lon="-3.488216008991003">
        <ele>630.27999999999997</ele>
        <time>2025-05-12T07:21:04Z</time>
      </trkpt>
      <trkpt lat="36.918465010821819" lon="-3.488180972635746">
        <ele>629.79999999999995</ele>
        <time>2025-05-12T07:21:05Z</time>
      </trkpt>
      <trkpt lat="36.918433997780085" lon="-3.488180972635746">
        <ele>629.79999999999995</ele>
        <time>2025-05-12T07:21:06Z</time>
      </trkpt>
      <trkpt lat="36.918397033587098" lon="-3.488180972635746">
        <ele>629.32000000000005</ele>
        <time>2025-05-12T07:21:07Z</time>
      </trkpt>
      <trkpt lat="36.918326960876584" lon="-3.488212991505861">
        <ele>629.79999999999995</ele>
        <time>2025-05-12T07:21:08Z</time>
      </trkpt>
      <trkpt lat="36.918302988633513" lon="-3.488262025639415">
        <ele>629.32000000000005</ele>
        <time>2025-05-12T07:21:09Z</time>
      </trkpt>
      <trkpt lat="36.918270969763398" lon="-3.488340983167291">
        <ele>628.84000000000003</ele>
        <time>2025-05-12T07:21:10Z</time>
      </trkpt>
      <trkpt lat="36.918206010013819" lon="-3.488518008962274">
        <ele>629.32000000000005</ele>
        <time>2025-05-12T07:21:12Z</time>
      </trkpt>
      <trkpt lat="36.918162005022168" lon="-3.488590009510517">
        <ele>629.32000000000005</ele>
        <time>2025-05-12T07:21:13Z</time>
      </trkpt>
      <trkpt lat="36.918109031394124" lon="-3.488672990351915">
        <ele>629.79999999999995</ele>
        <time>2025-05-12T07:21:14Z</time>
      </trkpt>
      <trkpt lat="36.91805899143219" lon="-3.488750020042062">
        <ele>630.27999999999997</ele>
        <time>2025-05-12T07:21:15Z</time>
      </trkpt>
      <trkpt lat="36.918008029460907" lon="-3.488825038075447">
        <ele>630.75999999999999</ele>
        <time>2025-05-12T07:21:16Z</time>
      </trkpt>
      <trkpt lat="36.917930999770761" lon="-3.488848004490137">
        <ele>631.24000000000001</ele>
        <time>2025-05-12T07:21:17Z</time>
      </trkpt>
      <trkpt lat="36.917853970080614" lon="-3.488870970904827">
        <ele>631.72000000000003</ele>
        <time>2025-05-12T07:21:18Z</time>
      </trkpt>
      <trkpt lat="36.917764032259583" lon="-3.488877005875111">
        <ele>631.72000000000003</ele>
        <time>2025-05-12T07:21:19Z</time>
      </trkpt>
      <trkpt lat="36.917689014226198" lon="-3.488848004490137">
        <ele>631.72000000000003</ele>
        <time>2025-05-12T07:21:20Z</time>
      </trkpt>
      <trkpt lat="36.917611984536052" lon="-3.488820008933544">
        <ele>631.24000000000001</ele>
        <time>2025-05-12T07:21:21Z</time>
      </trkpt>
      <trkpt lat="36.917238989844918" lon="-3.488535024225712">
        <ele>628.84000000000003</ele>
        <time>2025-05-12T07:21:26Z</time>
      </trkpt>
      <trkpt lat="36.917169000953436" lon="-3.488474003970623">
        <ele>628.36000000000001</ele>
        <time>2025-05-12T07:21:27Z</time>
      </trkpt>
      <trkpt lat="36.917109992355108" lon="-3.488378031179309">
        <ele>628.36000000000001</ele>
        <time>2025-05-12T07:21:28Z</time>
      </trkpt>
      <trkpt lat="36.917060036212206" lon="-3.488281974568963">
        <ele>627.39999999999998</ele>
        <time>2025-05-12T07:21:29Z</time>
      </trkpt>
      <trkpt lat="36.917007984593511" lon="-3.488183990120888">
        <ele>626.91999999999996</ele>
        <time>2025-05-12T07:21:30Z</time>
      </trkpt>
      <trkpt lat="36.916952999308705" lon="-3.488078964874148">
        <ele>626.44000000000005</ele>
        <time>2025-05-12T07:21:31Z</time>
      </trkpt>
      <trkpt lat="36.916902959346771" lon="-3.487953990697861">
        <ele>625.96000000000004</ele>
        <time>2025-05-12T07:21:32Z</time>
      </trkpt>
      <trkpt lat="36.916835987940431" lon="-3.487687027081847">
        <ele>624.50999999999999</ele>
        <time>2025-05-12T07:21:34Z</time>
      </trkpt>
      <trkpt lat="36.916445977985859" lon="-3.486148025840521">
        <ele>617.29999999999995</ele>
        <time>2025-05-12T07:21:45Z</time>
      </trkpt>
      <trkpt lat="36.916416976600885" lon="-3.485915008932352">
        <ele>617.29999999999995</ele>
        <time>2025-05-12T07:21:47Z</time>
      </trkpt>
      <trkpt lat="36.916450001299381" lon="-3.485010014846921">
        <ele>620.19000000000005</ele>
        <time>2025-05-12T07:21:56Z</time>
      </trkpt>
      <trkpt lat="36.916423011571169" lon="-3.484746990725398">
        <ele>621.63</ele>
        <time>2025-05-12T07:21:59Z</time>
      </trkpt>
      <trkpt lat="36.916530970484018" lon="-3.484618999063969">
        <ele>622.11000000000001</ele>
        <time>2025-05-12T07:22:00Z</time>
      </trkpt>
      <trkpt lat="36.916719982400537" lon="-3.483533039689064">
        <ele>627.39999999999998</ele>
        <time>2025-05-12T07:22:11Z</time>
      </trkpt>
      <trkpt lat="36.916746972128749" lon="-3.483295999467373">
        <ele>628.36000000000001</ele>
        <time>2025-05-12T07:22:13Z</time>
      </trkpt>
      <trkpt lat="36.916767004877329" lon="-3.482022034004331">
        <ele>628.36000000000001</ele>
        <time>2025-05-12T07:22:24Z</time>
      </trkpt>
      <trkpt lat="36.916772034019232" lon="-3.481916002929211">
        <ele>628.36000000000001</ele>
        <time>2025-05-12T07:22:25Z</time>
      </trkpt>
      <trkpt lat="36.916906982660294" lon="-3.481275960803032">
        <ele>629.32000000000005</ele>
        <time>2025-05-12T07:22:31Z</time>
      </trkpt>
      <trkpt lat="36.916929027065635" lon="-3.481168001890183">
        <ele>629.32000000000005</ele>
        <time>2025-05-12T07:22:32Z</time>
      </trkpt>
      <trkpt lat="36.916948975995183" lon="-3.481066999956965">
        <ele>629.79999999999995</ele>
        <time>2025-05-12T07:22:33Z</time>
      </trkpt>
      <trkpt lat="36.917003039270639" lon="-3.480799030512571">
        <ele>631.24000000000001</ele>
        <time>2025-05-12T07:22:36Z</time>
      </trkpt>
      <trkpt lat="36.917022988200188" lon="-3.480722000822425">
        <ele>631.24000000000001</ele>
        <time>2025-05-12T07:22:37Z</time>
      </trkpt>
      <trkpt lat="36.917121978476644" lon="-3.480341965332627">
        <ele>633.16999999999996</ele>
        <time>2025-05-12T07:22:41Z</time>
      </trkpt>
      <trkpt lat="36.917142011225224" lon="-3.48024096339941">
        <ele>633.64999999999998</ele>
        <time>2025-05-12T07:22:42Z</time>
      </trkpt>
      <trkpt lat="36.917161038145423" lon="-3.480144990608096">
        <ele>634.61000000000001</ele>
        <time>2025-05-12T07:22:43Z</time>
      </trkpt>
      <trkpt lat="36.917521040886641" lon="-3.479177970439196">
        <ele>637.49000000000001</ele>
        <time>2025-05-12T07:22:54Z</time>
      </trkpt>
      <trkpt lat="36.917670993134379" lon="-3.47892701625824">
        <ele>637.00999999999999</ele>
        <time>2025-05-12T07:22:57Z</time>
      </trkpt>
      <trkpt lat="36.918269963935018" lon="-3.477943986654282">
        <ele>641.82000000000005</ele>
        <time>2025-05-12T07:23:09Z</time>
      </trkpt>
      <trkpt lat="36.918324027210474" lon="-3.477868968620896">
        <ele>642.29999999999995</ele>
        <time>2025-05-12T07:23:10Z</time>
      </trkpt>
      <trkpt lat="36.918384963646531" lon="-3.477807026356459">
        <ele>642.29999999999995</ele>
        <time>2025-05-12T07:23:11Z</time>
      </trkpt>
      <trkpt lat="36.91844598390162" lon="-3.47774600610137">
        <ele>642.77999999999997</ele>
        <time>2025-05-12T07:23:12Z</time>
      </trkpt>
      <trkpt lat="36.918669026345015" lon="-3.477536961436272">
        <ele>644.70000000000005</ele>
        <time>2025-05-12T07:23:16Z</time>
      </trkpt>
      <trkpt lat="36.918711019679904" lon="-3.477474013343453">
        <ele>645.17999999999995</ele>
        <time>2025-05-12T07:23:17Z</time>
      </trkpt>
      <trkpt lat="36.918741026893258" lon="-3.477388015016913">
        <ele>646.13999999999999</ele>
        <time>2025-05-12T07:23:18Z</time>
      </trkpt>
      <trkpt lat="36.918743960559368" lon="-3.47729598172009">
        <ele>646.62</ele>
        <time>2025-05-12T07:23:19Z</time>
      </trkpt>
      <trkpt lat="36.918751001358032" lon="-3.477199003100395">
        <ele>646.62</ele>
        <time>2025-05-12T07:23:20Z</time>
      </trkpt>
      <trkpt lat="36.918757958337665" lon="-3.477106969803572">
        <ele>647.10000000000002</ele>
        <time>2025-05-12T07:23:21Z</time>
      </trkpt>
      <trkpt lat="36.918761981651187" lon="-3.477044021710753">
        <ele>648.07000000000005</ele>
        <time>2025-05-12T07:23:22Z</time>
      </trkpt>
      <trkpt lat="36.918783020228148" lon="-3.476933967322111">
        <ele>648.07000000000005</ele>
        <time>2025-05-12T07:23:23Z</time>
      </trkpt>
      <trkpt lat="36.918799029663205" lon="-3.476848974823952">
        <ele>648.54999999999995</ele>
        <time>2025-05-12T07:23:24Z</time>
      </trkpt>
      <trkpt lat="36.918960968032479" lon="-3.476279005408287">
        <ele>652.38999999999999</ele>
        <time>2025-05-12T07:23:31Z</time>
      </trkpt>
      <trkpt lat="36.918998016044497" lon="-3.476185966283083">
        <ele>652.87</ele>
        <time>2025-05-12T07:23:32Z</time>
      </trkpt>
      <trkpt lat="36.919045960530639" lon="-3.476109020411968">
        <ele>653.35000000000002</ele>
        <time>2025-05-12T07:23:33Z</time>
      </trkpt>
      <trkpt lat="36.919100023806095" lon="-3.476023022085428">
        <ele>653.35000000000002</ele>
        <time>2025-05-12T07:23:34Z</time>
      </trkpt>
      <trkpt lat="36.919152997434139" lon="-3.475939035415649">
        <ele>653.35000000000002</ele>
        <time>2025-05-12T07:23:35Z</time>
      </trkpt>
      <trkpt lat="36.919203037396073" lon="-3.475857982411981">
        <ele>653.35000000000002</ele>
        <time>2025-05-12T07:23:36Z</time>
      </trkpt>
      <trkpt lat="36.919356007128954" lon="-3.475610967725515">
        <ele>653.35000000000002</ele>
        <time>2025-05-12T07:23:39Z</time>
      </trkpt>
      <trkpt lat="36.919398000463843" lon="-3.475539973005652">
        <ele>653.35000000000002</ele>
        <time>2025-05-12T07:23:40Z</time>
      </trkpt>
      <trkpt lat="36.919442005455494" lon="-3.475462021306157">
        <ele>653.35000000000002</ele>
        <time>2025-05-12T07:23:41Z</time>
      </trkpt>
      <trkpt lat="36.919490033760667" lon="-3.475378034636378">
        <ele>653.35000000000002</ele>
        <time>2025-05-12T07:23:42Z</time>
      </trkpt>
      <trkpt lat="36.91954099573195" lon="-3.475290024653077">
        <ele>653.83000000000004</ele>
        <time>2025-05-12T07:23:43Z</time>
      </trkpt>
      <trkpt lat="36.919588018208742" lon="-3.475207965821028">
        <ele>653.83000000000004</ele>
        <time>2025-05-12T07:23:44Z</time>
      </trkpt>
      <trkpt lat="36.919634034857154" lon="-3.475126996636391">
        <ele>653.83000000000004</ele>
        <time>2025-05-12T07:23:45Z</time>
      </trkpt>
      <trkpt lat="36.919680973514915" lon="-3.475046027451754">
        <ele>653.83000000000004</ele>
        <time>2025-05-12T07:23:46Z</time>
      </trkpt>
      <trkpt lat="36.919898986816406" lon="-3.47461000084877">
        <ele>652.38999999999999</ele>
        <time>2025-05-12T07:23:51Z</time>
      </trkpt>
      <trkpt lat="36.919933017343283" lon="-3.474514028057456">
        <ele>651.42999999999995</ele>
        <time>2025-05-12T07:23:52Z</time>
      </trkpt>
      <trkpt lat="36.920027984306216" lon="-3.474232982844114">
        <ele>649.99000000000001</ele>
        <time>2025-05-12T07:23:55Z</time>
      </trkpt>
      <trkpt lat="36.920062014833093" lon="-3.474134998396039">
        <ele>650.47000000000003</ele>
        <time>2025-05-12T07:23:56Z</time>
      </trkpt>
      <trkpt lat="36.920096967369318" lon="-3.474032990634441">
        <ele>649.99000000000001</ele>
        <time>2025-05-12T07:23:57Z</time>
      </trkpt>
      <trkpt lat="36.920130997896194" lon="-3.473932994529605">
        <ele>649.50999999999999</ele>
        <time>2025-05-12T07:23:58Z</time>
      </trkpt>
      <trkpt lat="36.920165028423071" lon="-3.473832998424768">
        <ele>649.02999999999997</ele>
        <time>2025-05-12T07:23:59Z</time>
      </trkpt>
      <trkpt lat="36.920267036184669" lon="-3.473537033423781">
        <ele>647.10000000000002</ele>
        <time>2025-05-12T07:24:02Z</time>
      </trkpt>
      <trkpt lat="36.920423023402691" lon="-3.473182981833816">
        <ele>644.22000000000003</ele>
        <time>2025-05-12T07:24:06Z</time>
      </trkpt>
      <trkpt lat="36.920460993424058" lon="-3.47310402430594">
        <ele>643.74000000000001</ele>
        <time>2025-05-12T07:24:07Z</time>
      </trkpt>
      <trkpt lat="36.920624021440744" lon="-3.47276397049427">
        <ele>644.22000000000003</ele>
        <time>2025-05-12T07:24:11Z</time>
      </trkpt>
      <trkpt lat="36.921119978651404" lon="-3.472029967233539">
        <ele>641.82000000000005</ele>
        <time>2025-05-12T07:24:20Z</time>
      </trkpt>
      <trkpt lat="36.921167001128197" lon="-3.471950003877282">
        <ele>641.34000000000003</ele>
        <time>2025-05-12T07:24:21Z</time>
      </trkpt>
      <trkpt lat="36.921316031366587" lon="-3.471571980044246">
        <ele>639.88999999999999</ele>
        <time>2025-05-12T07:24:25Z</time>
      </trkpt>
      <trkpt lat="36.921316031366587" lon="-3.47145102918148">
        <ele>638.92999999999995</ele>
        <time>2025-05-12T07:24:26Z</time>
      </trkpt>
      <trkpt lat="36.921316031366587" lon="-3.471340974792838">
        <ele>638.45000000000005</ele>
        <time>2025-05-12T07:24:27Z</time>
      </trkpt>
      <trkpt lat="36.921316031366587" lon="-3.471233015879989">
        <ele>637.97000000000003</ele>
        <time>2025-05-12T07:24:28Z</time>
      </trkpt>
      <trkpt lat="36.921292981132865" lon="-3.471140982583165">
        <ele>637.49000000000001</ele>
        <time>2025-05-12T07:24:29Z</time>
      </trkpt>
      <trkpt lat="36.921263979747891" lon="-3.471051966771483">
        <ele>637.00999999999999</ele>
        <time>2025-05-12T07:24:30Z</time>
      </trkpt>
      <trkpt lat="36.921220980584621" lon="-3.47097996622324">
        <ele>636.52999999999997</ele>
        <time>2025-05-12T07:24:31Z</time>
      </trkpt>
      <trkpt lat="36.921168006956577" lon="-3.470919029787183">
        <ele>636.04999999999995</ele>
        <time>2025-05-12T07:24:32Z</time>
      </trkpt>
      <trkpt lat="36.92111000418663" lon="-3.470852980390191">
        <ele>636.04999999999995</ele>
        <time>2025-05-12T07:24:33Z</time>
      </trkpt>
      <trkpt lat="36.92104303278029" lon="-3.470804030075669">
        <ele>636.04999999999995</ele>
        <time>2025-05-12T07:24:34Z</time>
      </trkpt>
      <trkpt lat="36.920971032232046" lon="-3.470756001770496">
        <ele>635.57000000000005</ele>
        <time>2025-05-12T07:24:35Z</time>
      </trkpt>
      <trkpt lat="36.920889979228377" lon="-3.470716020092368">
        <ele>635.57000000000005</ele>
        <time>2025-05-12T07:24:36Z</time>
      </trkpt>
      <trkpt lat="36.92080800421536" lon="-3.470675032585859">
        <ele>635.09000000000003</ele>
        <time>2025-05-12T07:24:37Z</time>
      </trkpt>
      <trkpt lat="36.920726029202342" lon="-3.470633961260319">
        <ele>635.09000000000003</ele>
        <time>2025-05-12T07:24:38Z</time>
      </trkpt>
      <trkpt lat="36.920552020892501" lon="-3.470550980418921">
        <ele>634.61000000000001</ele>
        <time>2025-05-12T07:24:40Z</time>
      </trkpt>
      <trkpt lat="36.9204640109092" lon="-3.470516027882695">
        <ele>634.61000000000001</ele>
        <time>2025-05-12T07:24:41Z</time>
      </trkpt>
      <trkpt lat="36.920093027874827" lon="-3.470371020957828">
        <ele>634.13</ele>
        <time>2025-05-12T07:24:45Z</time>
      </trkpt>
      <trkpt lat="36.919989008456469" lon="-3.470371020957828">
        <ele>634.13</ele>
        <time>2025-05-12T07:24:46Z</time>
      </trkpt>
      <trkpt lat="36.919882977381349" lon="-3.470371020957828">
        <ele>634.61000000000001</ele>
        <time>2025-05-12T07:24:47Z</time>
      </trkpt>
      <trkpt lat="36.919016037136316" lon="-3.47042097710073">
        <ele>637.97000000000003</ele>
        <time>2025-05-12T07:24:55Z</time>
      </trkpt>
      <trkpt lat="36.91891897469759" lon="-3.470413014292717">
        <ele>637.97000000000003</ele>
        <time>2025-05-12T07:24:56Z</time>
      </trkpt>
      <trkpt lat="36.918827025219798" lon="-3.470405973494053">
        <ele>638.45000000000005</ele>
        <time>2025-05-12T07:24:57Z</time>
      </trkpt>
      <trkpt lat="36.918737003579736" lon="-3.470400022342801">
        <ele>638.45000000000005</ele>
        <time>2025-05-12T07:24:58Z</time>
      </trkpt>
      <trkpt lat="36.918632984161377" lon="-3.470391975715756">
        <ele>638.92999999999995</ele>
        <time>2025-05-12T07:24:59Z</time>
      </trkpt>
      <trkpt lat="36.91855201497674" lon="-3.470427012071014">
        <ele>639.40999999999997</ele>
        <time>2025-05-12T07:25:00Z</time>
      </trkpt>
      <trkpt lat="36.918459981679916" lon="-3.470464982092381">
        <ele>639.40999999999997</ele>
        <time>2025-05-12T07:25:01Z</time>
      </trkpt>
      <trkpt lat="36.918358979746699" lon="-3.470507981255651">
        <ele>640.38</ele>
        <time>2025-05-12T07:25:02Z</time>
      </trkpt>
      <trkpt lat="36.918225958943367" lon="-3.470563972368836">
        <ele>640.86000000000001</ele>
        <time>2025-05-12T07:25:03Z</time>
      </trkpt>
      <trkpt lat="36.917596980929375" lon="-3.470618035644293">
        <ele>641.34000000000003</ele>
        <time>2025-05-12T07:25:08Z</time>
      </trkpt>
      <trkpt lat="36.917509976774454" lon="-3.47069900482893">
        <ele>641.34000000000003</ele>
        <time>2025-05-12T07:25:09Z</time>
      </trkpt>
      <trkpt lat="36.917444011196494" lon="-3.470815010368824">
        <ele>641.34000000000003</ele>
        <time>2025-05-12T07:25:10Z</time>
      </trkpt>
      <trkpt lat="36.91737100481987" lon="-3.47110703587532">
        <ele>642.29999999999995</ele>
        <time>2025-05-12T07:25:12Z</time>
      </trkpt>
      <trkpt lat="36.917321970686316" lon="-3.471246007829905">
        <ele>642.29999999999995</ele>
        <time>2025-05-12T07:25:13Z</time>
      </trkpt>
      <trkpt lat="36.917234966531396" lon="-3.471381962299347">
        <ele>642.77999999999997</ele>
        <time>2025-05-12T07:25:14Z</time>
      </trkpt>
      <trkpt lat="36.917099012061954" lon="-3.471464021131396">
        <ele>642.77999999999997</ele>
        <time>2025-05-12T07:25:15Z</time>
      </trkpt>
      <trkpt lat="36.916960962116718" lon="-3.471548007801175">
        <ele>642.77999999999997</ele>
        <time>2025-05-12T07:25:16Z</time>
      </trkpt>
      <trkpt lat="36.91666298545897" lon="-3.471728973090649">
        <ele>642.77999999999997</ele>
        <time>2025-05-12T07:25:18Z</time>
      </trkpt>
      <trkpt lat="36.916528036817908" lon="-3.471866017207503">
        <ele>642.29999999999995</ele>
        <time>2025-05-12T07:25:19Z</time>
      </trkpt>
      <trkpt lat="36.916409013792872" lon="-3.472015969455242">
        <ele>641.82000000000005</ele>
        <time>2025-05-12T07:25:20Z</time>
      </trkpt>
      <trkpt lat="36.916310023516417" lon="-3.472175979986787">
        <ele>641.82000000000005</ele>
        <time>2025-05-12T07:25:21Z</time>
      </trkpt>
      <trkpt lat="36.916213966906071" lon="-3.472331967204809">
        <ele>641.82000000000005</ele>
        <time>2025-05-12T07:25:22Z</time>
      </trkpt>
      <trkpt lat="36.916108019649982" lon="-3.472458031028509">
        <ele>641.34000000000003</ele>
        <time>2025-05-12T07:25:23Z</time>
      </trkpt>
      <trkpt lat="36.91597499884665" lon="-3.472571019083262">
        <ele>641.34000000000003</ele>
        <time>2025-05-12T07:25:24Z</time>
      </trkpt>
      <trkpt lat="36.915841978043318" lon="-3.472685012966394">
        <ele>640.86000000000001</ele>
        <time>2025-05-12T07:25:25Z</time>
      </trkpt>
      <trkpt lat="36.915596975013614" lon="-3.472914006561041">
        <ele>639.40999999999997</ele>
        <time>2025-05-12T07:25:27Z</time>
      </trkpt>
      <trkpt lat="36.915488010272384" lon="-3.473053984344006">
        <ele>638.92999999999995</ele>
        <time>2025-05-12T07:25:28Z</time>
      </trkpt>
      <trkpt lat="36.915405029430985" lon="-3.473215000703931">
        <ele>638.45000000000005</ele>
        <time>2025-05-12T07:25:29Z</time>
      </trkpt>
      <trkpt lat="36.915322970598936" lon="-3.473376017063856">
        <ele>638.45000000000005</ele>
        <time>2025-05-12T07:25:30Z</time>
      </trkpt>
      <trkpt lat="36.915236972272396" lon="-3.473541978746653">
        <ele>637.97000000000003</ele>
        <time>2025-05-12T07:25:31Z</time>
      </trkpt>
      <trkpt lat="36.915140999481082" lon="-3.473712969571352">
        <ele>637.49000000000001</ele>
        <time>2025-05-12T07:25:32Z</time>
      </trkpt>
      <trkpt lat="36.915006972849369" lon="-3.473841967061162">
        <ele>637.49000000000001</ele>
        <time>2025-05-12T07:25:33Z</time>
      </trkpt>
      <trkpt lat="36.91389000043273" lon="-3.474706979468465">
        <ele>639.88999999999999</ele>
        <time>2025-05-12T07:25:40Z</time>
      </trkpt>
      <trkpt lat="36.912959022447467" lon="-3.475306034088135">
        <ele>641.82000000000005</ele>
        <time>2025-05-12T07:25:46Z</time>
      </trkpt>
      <trkpt lat="36.912853997200727" lon="-3.475421033799648">
        <ele>641.82000000000005</ele>
        <time>2025-05-12T07:25:47Z</time>
      </trkpt>
      <trkpt lat="36.912762969732285" lon="-3.475538967177272">
        <ele>641.82000000000005</ele>
        <time>2025-05-12T07:25:48Z</time>
      </trkpt>
      <trkpt lat="36.912704966962337" lon="-3.47570400685072">
        <ele>642.29999999999995</ele>
        <time>2025-05-12T07:25:49Z</time>
      </trkpt>
      <trkpt lat="36.912695998325944" lon="-3.475859994068742">
        <ele>642.29999999999995</ele>
        <time>2025-05-12T07:25:50Z</time>
      </trkpt>
      <trkpt lat="36.91268996335566" lon="-3.475970970466733">
        <ele>642.77999999999997</ele>
        <time>2025-05-12T07:25:51Z</time>
      </trkpt>
      <trkpt lat="36.912663979455829" lon="-3.476116983219981">
        <ele>642.29999999999995</ele>
        <time>2025-05-12T07:25:52Z</time>
      </trkpt>
      <trkpt lat="36.9126430246979" lon="-3.476237012073398">
        <ele>642.29999999999995</ele>
        <time>2025-05-12T07:25:53Z</time>
      </trkpt>
      <trkpt lat="36.912625003606081" lon="-3.476336002349854">
        <ele>642.29999999999995</ele>
        <time>2025-05-12T07:25:54Z</time>
      </trkpt>
      <trkpt lat="36.912564989179373" lon="-3.476366009563208">
        <ele>642.29999999999995</ele>
        <time>2025-05-12T07:25:55Z</time>
      </trkpt>
      <trkpt lat="36.912478990852833" lon="-3.476409008726478">
        <ele>641.82000000000005</ele>
        <time>2025-05-12T07:25:56Z</time>
      </trkpt>
      <trkpt lat="36.912384023889899" lon="-3.476457037031651">
        <ele>641.82000000000005</ele>
        <time>2025-05-12T07:25:57Z</time>
      </trkpt>
      <trkpt lat="36.912298025563359" lon="-3.476451002061367">
        <ele>641.34000000000003</ele>
        <time>2025-05-12T07:25:58Z</time>
      </trkpt>
      <trkpt lat="36.912201968953013" lon="-3.476411020383239">
        <ele>641.82000000000005</ele>
        <time>2025-05-12T07:25:59Z</time>
      </trkpt>
      <trkpt lat="36.912094010040164" lon="-3.476351005956531">
        <ele>641.82000000000005</ele>
        <time>2025-05-12T07:26:00Z</time>
      </trkpt>
      <trkpt lat="36.91197800450027" lon="-3.4762869682163">
        <ele>641.34000000000003</ele>
        <time>2025-05-12T07:26:01Z</time>
      </trkpt>
      <trkpt lat="36.911611966788769" lon="-3.476043976843357">
        <ele>639.88999999999999</ele>
        <time>2025-05-12T07:26:04Z</time>
      </trkpt>
      <trkpt lat="36.911507025361061" lon="-3.475965019315481">
        <ele>639.40999999999997</ele>
        <time>2025-05-12T07:26:05Z</time>
      </trkpt>
      <trkpt lat="36.91146201454103" lon="-3.475843984633684">
        <ele>638.45000000000005</ele>
        <time>2025-05-12T07:26:06Z</time>
      </trkpt>
      <trkpt lat="36.911453967913985" lon="-3.4757050126791">
        <ele>637.49000000000001</ele>
        <time>2025-05-12T07:26:07Z</time>
      </trkpt>
      <trkpt lat="36.911468971520662" lon="-3.475542990490794">
        <ele>637.00999999999999</ele>
        <time>2025-05-12T07:26:08Z</time>
      </trkpt>
      <trkpt lat="36.911485986784101" lon="-3.475365964695811">
        <ele>636.04999999999995</ele>
        <time>2025-05-12T07:26:09Z</time>
      </trkpt>
      <trkpt lat="36.911489004269242" lon="-3.47478199750185">
        <ele>634.13</ele>
        <time>2025-05-12T07:26:12Z</time>
      </trkpt>
      <trkpt lat="36.911426978185773" lon="-3.474646965041757">
        <ele>633.64999999999998</ele>
        <time>2025-05-12T07:26:13Z</time>
      </trkpt>
      <trkpt lat="36.911360006779432" lon="-3.474514028057456">
        <ele>632.67999999999995</ele>
        <time>2025-05-12T07:26:14Z</time>
      </trkpt>
      <trkpt lat="36.911294963210821" lon="-3.474383018910885">
        <ele>632.20000000000005</ele>
        <time>2025-05-12T07:26:15Z</time>
      </trkpt>
      <trkpt lat="36.911267973482609" lon="-3.474228037521243">
        <ele>631.24000000000001</ele>
        <time>2025-05-12T07:26:16Z</time>
      </trkpt>
      <trkpt lat="36.911238972097635" lon="-3.474064003676176">
        <ele>630.27999999999997</ele>
        <time>2025-05-12T07:26:17Z</time>
      </trkpt>
      <trkpt lat="36.911210976541042" lon="-3.473898964002729">
        <ele>629.79999999999995</ele>
        <time>2025-05-12T07:26:18Z</time>
      </trkpt>
      <trkpt lat="36.911154985427856" lon="-3.473758986219764">
        <ele>628.84000000000003</ele>
        <time>2025-05-12T07:26:19Z</time>
      </trkpt>
      <trkpt lat="36.911095976829529" lon="-3.473615990951657">
        <ele>628.36000000000001</ele>
        <time>2025-05-12T07:26:20Z</time>
      </trkpt>
      <trkpt lat="36.911030011251569" lon="-3.473456986248493">
        <ele>627.88</ele>
        <time>2025-05-12T07:26:21Z</time>
      </trkpt>
      <trkpt lat="36.910963039845228" lon="-3.473295969888568">
        <ele>626.91999999999996</ele>
        <time>2025-05-12T07:26:22Z</time>
      </trkpt>
      <trkpt lat="36.910870000720024" lon="-3.473176024854183">
        <ele>626.44000000000005</ele>
        <time>2025-05-12T07:26:23Z</time>
      </trkpt>
      <trkpt lat="36.910778973251581" lon="-3.473074017092586">
        <ele>625.47000000000003</ele>
        <time>2025-05-12T07:26:24Z</time>
      </trkpt>
      <trkpt lat="36.910662967711687" lon="-3.473020037636161">
        <ele>624.99000000000001</ele>
        <time>2025-05-12T07:26:25Z</time>
      </trkpt>
      <trkpt lat="36.910544028505683" lon="-3.472964968532324">
        <ele>624.02999999999997</ele>
        <time>2025-05-12T07:26:26Z</time>
      </trkpt>
      <trkpt lat="36.910429028794169" lon="-3.472888022661209">
        <ele>623.07000000000005</ele>
        <time>2025-05-12T07:26:27Z</time>
      </trkpt>
      <trkpt lat="36.910335989668965" lon="-3.472772017121315">
        <ele>622.11000000000001</ele>
        <time>2025-05-12T07:26:28Z</time>
      </trkpt>
      <trkpt lat="36.910270024091005" lon="-3.472628016024828">
        <ele>621.14999999999998</ele>
        <time>2025-05-12T07:26:29Z</time>
      </trkpt>
      <trkpt lat="36.910239011049271" lon="-3.472473034635186">
        <ele>620.19000000000005</ele>
        <time>2025-05-12T07:26:30Z</time>
      </trkpt>
      <trkpt lat="36.91023800522089" lon="-3.472309000790119">
        <ele>619.23000000000002</ele>
        <time>2025-05-12T07:26:31Z</time>
      </trkpt>
      <trkpt lat="36.910271029919386" lon="-3.472141027450562">
        <ele>618.25999999999999</ele>
        <time>2025-05-12T07:26:32Z</time>
      </trkpt>
      <trkpt lat="36.910307994112372" lon="-3.471958972513676">
        <ele>617.77999999999997</ele>
        <time>2025-05-12T07:26:33Z</time>
      </trkpt>
      <trkpt lat="36.910373037680984" lon="-3.471828969195485">
        <ele>616.82000000000005</ele>
        <time>2025-05-12T07:26:34Z</time>
      </trkpt>
      <trkpt lat="36.910449983552098" lon="-3.471674993634224">
        <ele>615.86000000000001</ele>
        <time>2025-05-12T07:26:35Z</time>
      </trkpt>
      <trkpt lat="36.910600019618869" lon="-3.471373999491334">
        <ele>614.41999999999996</ele>
        <time>2025-05-12T07:26:37Z</time>
      </trkpt>
      <trkpt lat="36.910665985196829" lon="-3.471241984516382">
        <ele>613.94000000000005</ele>
        <time>2025-05-12T07:26:38Z</time>
      </trkpt>
      <trkpt lat="36.910673025995493" lon="-3.471090020611882">
        <ele>613.46000000000004</ele>
        <time>2025-05-12T07:26:39Z</time>
      </trkpt>
      <trkpt lat="36.910623991861939" lon="-3.470965968444943">
        <ele>612.98000000000002</ele>
        <time>2025-05-12T07:26:40Z</time>
      </trkpt>
      <trkpt lat="36.910545034334064" lon="-3.470890028402209">
        <ele>612.5</ele>
        <time>2025-05-12T07:26:41Z</time>
      </trkpt>
      <trkpt lat="36.910440009087324" lon="-3.470824984833598">
        <ele>612.01999999999998</ele>
        <time>2025-05-12T07:26:42Z</time>
      </trkpt>
      <trkpt lat="36.910329032689333" lon="-3.470757007598877">
        <ele>612.01999999999998</ele>
        <time>2025-05-12T07:26:43Z</time>
      </trkpt>
      <trkpt lat="36.910213027149439" lon="-3.470795983448625">
        <ele>612.01999999999998</ele>
        <time>2025-05-12T07:26:44Z</time>
      </trkpt>
      <trkpt lat="36.910081012174487" lon="-3.470853986218572">
        <ele>612.01999999999998</ele>
        <time>2025-05-12T07:26:45Z</time>
      </trkpt>
      <trkpt lat="36.909945979714394" lon="-3.47093403339386">
        <ele>612.01999999999998</ele>
        <time>2025-05-12T07:26:46Z</time>
      </trkpt>
      <trkpt lat="36.909691002219915" lon="-3.471084991469979">
        <ele>612.5</ele>
        <time>2025-05-12T07:26:48Z</time>
      </trkpt>
      <trkpt lat="36.909581031650305" lon="-3.471099995076656">
        <ele>612.5</ele>
        <time>2025-05-12T07:26:49Z</time>
      </trkpt>
      <trkpt lat="36.909492015838623" lon="-3.471082979813218">
        <ele>612.5</ele>
        <time>2025-05-12T07:26:50Z</time>
      </trkpt>
      <trkpt lat="36.909418003633618" lon="-3.471023971214891">
        <ele>612.5</ele>
        <time>2025-05-12T07:26:51Z</time>
      </trkpt>
      <trkpt lat="36.909407023340464" lon="-3.470902014523745">
        <ele>612.5</ele>
        <time>2025-05-12T07:26:52Z</time>
      </trkpt>
      <trkpt lat="36.909407023340464" lon="-3.470761030912399">
        <ele>612.5</ele>
        <time>2025-05-12T07:26:53Z</time>
      </trkpt>
      <trkpt lat="36.909425966441631" lon="-3.470604959875345">
        <ele>612.01999999999998</ele>
        <time>2025-05-12T07:26:54Z</time>
      </trkpt>
      <trkpt lat="36.909553036093712" lon="-3.469879003241658">
        <ele>610.09000000000003</ele>
        <time>2025-05-12T07:26:58Z</time>
      </trkpt>
      <trkpt lat="36.909514982253313" lon="-3.469702983275056">
        <ele>610.09000000000003</ele>
        <time>2025-05-12T07:26:59Z</time>
      </trkpt>
      <trkpt lat="36.909453039988875" lon="-3.469541966915131">
        <ele>609.61000000000001</ele>
        <time>2025-05-12T07:27:00Z</time>
      </trkpt>
      <trkpt lat="36.909367041662335" lon="-3.469384973868728">
        <ele>609.61000000000001</ele>
        <time>2025-05-12T07:27:01Z</time>
      </trkpt>
      <trkpt lat="36.90924902446568" lon="-3.469252036884427">
        <ele>609.13</ele>
        <time>2025-05-12T07:27:02Z</time>
      </trkpt>
      <trkpt lat="36.909122038632631" lon="-3.469139970839024">
        <ele>608.64999999999998</ele>
        <time>2025-05-12T07:27:03Z</time>
      </trkpt>
      <trkpt lat="36.908995974808931" lon="-3.469040980562568">
        <ele>609.13</ele>
        <time>2025-05-12T07:27:04Z</time>
      </trkpt>
      <trkpt lat="36.908891033381224" lon="-3.468931009992957">
        <ele>609.61000000000001</ele>
        <time>2025-05-12T07:27:05Z</time>
      </trkpt>
      <trkpt lat="36.908826995640993" lon="-3.468804024159908">
        <ele>609.61000000000001</ele>
        <time>2025-05-12T07:27:06Z</time>
      </trkpt>
      <trkpt lat="36.908783996477723" lon="-3.468623980879784">
        <ele>609.13</ele>
        <time>2025-05-12T07:27:07Z</time>
      </trkpt>
      <trkpt lat="36.908576041460037" lon="-3.467430984601378">
        <ele>606.73000000000002</ele>
        <time>2025-05-12T07:27:13Z</time>
      </trkpt>
      <trkpt lat="36.908491970971227" lon="-3.467291006818414">
        <ele>606.73000000000002</ele>
        <time>2025-05-12T07:27:14Z</time>
      </trkpt>
      <trkpt lat="36.908406978473067" lon="-3.467185981571674">
        <ele>606.73000000000002</ele>
        <time>2025-05-12T07:27:15Z</time>
      </trkpt>
      <trkpt lat="36.908312011510134" lon="-3.467180030420423">
        <ele>606.73000000000002</ele>
        <time>2025-05-12T07:27:16Z</time>
      </trkpt>
      <trkpt lat="36.908214027062058" lon="-3.467187993228436">
        <ele>606.73000000000002</ele>
        <time>2025-05-12T07:27:17Z</time>
      </trkpt>
      <trkpt lat="36.908102966845036" lon="-3.467201991006732">
        <ele>607.21000000000004</ele>
        <time>2025-05-12T07:27:18Z</time>
      </trkpt>
      <trkpt lat="36.907593011856079" lon="-3.467383962124586">
        <ele>608.64999999999998</ele>
        <time>2025-05-12T07:27:22Z</time>
      </trkpt>
      <trkpt lat="36.907472983002663" lon="-3.467363007366657">
        <ele>609.61000000000001</ele>
        <time>2025-05-12T07:27:23Z</time>
      </trkpt>
      <trkpt lat="36.907368041574955" lon="-3.46728103235364">
        <ele>610.09000000000003</ele>
        <time>2025-05-12T07:27:24Z</time>
      </trkpt>
      <trkpt lat="36.907280031591654" lon="-3.467148011550307">
        <ele>610.57000000000005</ele>
        <time>2025-05-12T07:27:25Z</time>
      </trkpt>
      <trkpt lat="36.907181963324547" lon="-3.467001998797059">
        <ele>610.57000000000005</ele>
        <time>2025-05-12T07:27:26Z</time>
      </trkpt>
      <trkpt lat="36.906677037477493" lon="-3.466241005808115">
        <ele>613.94000000000005</ele>
        <time>2025-05-12T07:27:31Z</time>
      </trkpt>
      <trkpt lat="36.906618028879166" lon="-3.466106979176402">
        <ele>614.89999999999998</ele>
        <time>2025-05-12T07:27:32Z</time>
      </trkpt>
      <trkpt lat="36.906605958938599" lon="-3.46597203053534">
        <ele>614.89999999999998</ele>
        <time>2025-05-12T07:27:33Z</time>
      </trkpt>
      <trkpt lat="36.906635966151953" lon="-3.465858036652207">
        <ele>615.38</ele>
        <time>2025-05-12T07:27:34Z</time>
      </trkpt>
      <trkpt lat="36.906705033034086" lon="-3.465755023062229">
        <ele>615.86000000000001</ele>
        <time>2025-05-12T07:27:35Z</time>
      </trkpt>
      <trkpt lat="36.906783990561962" lon="-3.465637005865574">
        <ele>616.34000000000003</ele>
        <time>2025-05-12T07:27:36Z</time>
      </trkpt>
      <trkpt lat="36.906854985281825" lon="-3.46549803391099">
        <ele>616.82000000000005</ele>
        <time>2025-05-12T07:27:37Z</time>
      </trkpt>
      <trkpt lat="36.906905025243759" lon="-3.465359983965755">
        <ele>617.29999999999995</ele>
        <time>2025-05-12T07:27:38Z</time>
      </trkpt>
      <trkpt lat="36.906938971951604" lon="-3.46526401117444">
        <ele>617.29999999999995</ele>
        <time>2025-05-12T07:27:39Z</time>
      </trkpt>
      <trkpt lat="36.906911982223392" lon="-3.46511498093605">
        <ele>618.25999999999999</ele>
        <time>2025-05-12T07:27:40Z</time>
      </trkpt>
      <trkpt lat="36.906889015808702" lon="-3.464989000931382">
        <ele>618.75</ele>
        <time>2025-05-12T07:27:41Z</time>
      </trkpt>
      <trkpt lat="36.90686596557498" lon="-3.464864026755095">
        <ele>619.71000000000004</ele>
        <time>2025-05-12T07:27:42Z</time>
      </trkpt>
      <trkpt lat="36.906856996938586" lon="-3.464728994295001">
        <ele>620.66999999999996</ele>
        <time>2025-05-12T07:27:43Z</time>
      </trkpt>
      <trkpt lat="36.90686697140336" lon="-3.46457602456212">
        <ele>621.14999999999998</ele>
        <time>2025-05-12T07:27:44Z</time>
      </trkpt>
      <trkpt lat="36.906879963353276" lon="-3.464406039565802">
        <ele>622.11000000000001</ele>
        <time>2025-05-12T07:27:45Z</time>
      </trkpt>
      <trkpt lat="36.90690703690052" lon="-3.464206969365478">
        <ele>622.59000000000003</ele>
        <time>2025-05-12T07:27:46Z</time>
      </trkpt>
      <trkpt lat="36.907103005796671" lon="-3.462823033332825">
        <ele>625.96000000000004</ele>
        <time>2025-05-12T07:27:52Z</time>
      </trkpt>
      <trkpt lat="36.907069981098175" lon="-3.462664028629661">
        <ele>626.91999999999996</ele>
        <time>2025-05-12T07:27:53Z</time>
      </trkpt>
      <trkpt lat="36.907020024955273" lon="-3.462524972856045">
        <ele>627.88</ele>
        <time>2025-05-12T07:27:54Z</time>
      </trkpt>
      <trkpt lat="36.906968979164958" lon="-3.46238499507308">
        <ele>628.84000000000003</ele>
        <time>2025-05-12T07:27:55Z</time>
      </trkpt>
      <trkpt lat="36.906948024407029" lon="-3.462240993976593">
        <ele>629.32000000000005</ele>
        <time>2025-05-12T07:27:56Z</time>
      </trkpt>
      <trkpt lat="36.906960010528564" lon="-3.462152983993292">
        <ele>629.79999999999995</ele>
        <time>2025-05-12T07:27:57Z</time>
      </trkpt>
      <trkpt lat="36.907022036612034" lon="-3.462091041728854">
        <ele>630.27999999999997</ele>
        <time>2025-05-12T07:27:58Z</time>
      </trkpt>
      <trkpt lat="36.907089008018374" lon="-3.462023986503482">
        <ele>630.75999999999999</ele>
        <time>2025-05-12T07:27:59Z</time>
      </trkpt>
      <trkpt lat="36.907198978587985" lon="-3.462015017867088">
        <ele>631.24000000000001</ele>
        <time>2025-05-12T07:28:00Z</time>
      </trkpt>
      <trkpt lat="36.907330993562937" lon="-3.462004037573934">
        <ele>631.24000000000001</ele>
        <time>2025-05-12T07:28:01Z</time>
      </trkpt>
      <trkpt lat="36.907600974664092" lon="-3.461980987340212">
        <ele>632.20000000000005</ele>
        <time>2025-05-12T07:28:03Z</time>
      </trkpt>
      <trkpt lat="36.907711029052734" lon="-3.461914015933871">
        <ele>631.72000000000003</ele>
        <time>2025-05-12T07:28:04Z</time>
      </trkpt>
      <trkpt lat="36.907790992408991" lon="-3.461822988465428">
        <ele>632.20000000000005</ele>
        <time>2025-05-12T07:28:05Z</time>
      </trkpt>
      <trkpt lat="36.9078319799155" lon="-3.461691979318857">
        <ele>632.67999999999995</ele>
        <time>2025-05-12T07:28:06Z</time>
      </trkpt>
      <trkpt lat="36.907866010442376" lon="-3.461533980444074">
        <ele>632.67999999999995</ele>
        <time>2025-05-12T07:28:07Z</time>
      </trkpt>
      <trkpt lat="36.907879002392292" lon="-3.461355026811361">
        <ele>632.67999999999995</ele>
        <time>2025-05-12T07:28:08Z</time>
      </trkpt>
      <trkpt lat="36.908032977953553" lon="-3.459469014778733">
        <ele>634.13</ele>
        <time>2025-05-12T07:28:18Z</time>
      </trkpt>
      <trkpt lat="36.908095004037023" lon="-3.459099037572742">
        <ele>633.64999999999998</ele>
        <time>2025-05-12T07:28:20Z</time>
      </trkpt>
      <trkpt lat="36.908157030120492" lon="-3.458922011777759">
        <ele>633.64999999999998</ele>
        <time>2025-05-12T07:28:21Z</time>
      </trkpt>
      <trkpt lat="36.908204974606633" lon="-3.458783961832523">
        <ele>633.64999999999998</ele>
        <time>2025-05-12T07:28:22Z</time>
      </trkpt>
      <trkpt lat="36.908332966268063" lon="-3.458655970171094">
        <ele>633.64999999999998</ele>
        <time>2025-05-12T07:28:23Z</time>
      </trkpt>
      <trkpt lat="36.908437991514802" lon="-3.458555974066258">
        <ele>633.16999999999996</ele>
        <time>2025-05-12T07:28:24Z</time>
      </trkpt>
      <trkpt lat="36.908545028418303" lon="-3.458480034023523">
        <ele>633.16999999999996</ele>
        <time>2025-05-12T07:28:25Z</time>
      </trkpt>
      <trkpt lat="36.908618034794927" lon="-3.458378026261926">
        <ele>632.20000000000005</ele>
        <time>2025-05-12T07:28:26Z</time>
      </trkpt>
      <trkpt lat="36.90864996984601" lon="-3.458261014893651">
        <ele>631.72000000000003</ele>
        <time>2025-05-12T07:28:27Z</time>
      </trkpt>
      <trkpt lat="36.908636977896094" lon="-3.458142997696996">
        <ele>631.24000000000001</ele>
        <time>2025-05-12T07:28:28Z</time>
      </trkpt>
      <trkpt lat="36.908592972904444" lon="-3.458025986328721">
        <ele>631.24000000000001</ele>
        <time>2025-05-12T07:28:29Z</time>
      </trkpt>
      <trkpt lat="36.908533964306116" lon="-3.457893971353769">
        <ele>630.75999999999999</ele>
        <time>2025-05-12T07:28:30Z</time>
      </trkpt>
      <trkpt lat="36.90847503952682" lon="-3.457761034369469">
        <ele>630.75999999999999</ele>
        <time>2025-05-12T07:28:31Z</time>
      </trkpt>
      <trkpt lat="36.908420976251364" lon="-3.457638993859291">
        <ele>630.27999999999997</ele>
        <time>2025-05-12T07:28:32Z</time>
      </trkpt>
      <trkpt lat="36.908376971259713" lon="-3.457538997754455">
        <ele>630.27999999999997</ele>
        <time>2025-05-12T07:28:33Z</time>
      </trkpt>
      <trkpt lat="36.908407984301448" lon="-3.457402037456632">
        <ele>630.27999999999997</ele>
        <time>2025-05-12T07:28:34Z</time>
      </trkpt>
      <trkpt lat="36.908440003171563" lon="-3.457261975854635">
        <ele>629.79999999999995</ele>
        <time>2025-05-12T07:28:35Z</time>
      </trkpt>
      <trkpt lat="36.90847403369844" lon="-3.457112023606896">
        <ele>629.32000000000005</ele>
        <time>2025-05-12T07:28:36Z</time>
      </trkpt>
      <trkpt lat="36.90847403369844" lon="-3.456968022510409">
        <ele>629.32000000000005</ele>
        <time>2025-05-12T07:28:37Z</time>
      </trkpt>
      <trkpt lat="36.908461963757873" lon="-3.456852016970515">
        <ele>628.84000000000003</ele>
        <time>2025-05-12T07:28:38Z</time>
      </trkpt>
      <trkpt lat="36.908400021493435" lon="-3.456798959523439">
        <ele>628.84000000000003</ele>
        <time>2025-05-12T07:28:39Z</time>
      </trkpt>
      <trkpt lat="36.908312011510134" lon="-3.456724025309086">
        <ele>628.84000000000003</ele>
        <time>2025-05-12T07:28:40Z</time>
      </trkpt>
      <trkpt lat="36.908215032890439" lon="-3.456682031974196">
        <ele>628.36000000000001</ele>
        <time>2025-05-12T07:28:41Z</time>
      </trkpt>
      <trkpt lat="36.908091986551881" lon="-3.456628974527121">
        <ele>627.88</ele>
        <time>2025-05-12T07:28:42Z</time>
      </trkpt>
      <trkpt lat="36.907959971576929" lon="-3.456546999514103">
        <ele>627.88</ele>
        <time>2025-05-12T07:28:43Z</time>
      </trkpt>
      <trkpt lat="36.907842960208654" lon="-3.456438034772873">
        <ele>627.39999999999998</ele>
        <time>2025-05-12T07:28:44Z</time>
      </trkpt>
      <trkpt lat="36.906994041055441" lon="-3.455545026808977">
        <ele>621.63</ele>
        <time>2025-05-12T07:28:51Z</time>
      </trkpt>
      <trkpt lat="36.906931009143591" lon="-3.455408988520503">
        <ele>620.66999999999996</ele>
        <time>2025-05-12T07:28:52Z</time>
      </trkpt>
      <trkpt lat="36.906911982223392" lon="-3.455282002687454">
        <ele>619.71000000000004</ele>
        <time>2025-05-12T07:28:53Z</time>
      </trkpt>
      <trkpt lat="36.906870994716883" lon="-3.45501302741468">
        <ele>617.77999999999997</ele>
        <time>2025-05-12T07:28:55Z</time>
      </trkpt>
      <trkpt lat="36.906840987503529" lon="-3.45488796941936">
        <ele>616.82000000000005</ele>
        <time>2025-05-12T07:28:56Z</time>
      </trkpt>
      <trkpt lat="36.90675700083375" lon="-3.454802976921201">
        <ele>615.86000000000001</ele>
        <time>2025-05-12T07:28:57Z</time>
      </trkpt>
      <trkpt lat="36.906663039699197" lon="-3.45475897192955">
        <ele>614.89999999999998</ele>
        <time>2025-05-12T07:28:58Z</time>
      </trkpt>
      <trkpt lat="36.906559020280838" lon="-3.454738017171621">
        <ele>613.94000000000005</ele>
        <time>2025-05-12T07:28:59Z</time>
      </trkpt>
      <trkpt lat="36.906462041661143" lon="-3.454718990251422">
        <ele>612.98000000000002</ele>
        <time>2025-05-12T07:29:00Z</time>
      </trkpt>
      <trkpt lat="36.906362967565656" lon="-3.454682026058435">
        <ele>612.5</ele>
        <time>2025-05-12T07:29:01Z</time>
      </trkpt>
      <trkpt lat="36.906231036409736" lon="-3.454598961398006">
        <ele>611.53999999999996</ele>
        <time>2025-05-12T07:29:02Z</time>
      </trkpt>
      <trkpt lat="36.905975975096226" lon="-3.454258991405368">
        <ele>608.16999999999996</ele>
        <time>2025-05-12T07:29:05Z</time>
      </trkpt>
      <trkpt lat="36.905929958447814" lon="-3.454126976430416">
        <ele>607.21000000000004</ele>
        <time>2025-05-12T07:29:06Z</time>
      </trkpt>
      <trkpt lat="36.905886037275195" lon="-3.453994039446116">
        <ele>606.25</ele>
        <time>2025-05-12T07:29:07Z</time>
      </trkpt>
      <trkpt lat="36.90587698481977" lon="-3.453851966187358">
        <ele>605.28999999999996</ele>
        <time>2025-05-12T07:29:08Z</time>
      </trkpt>
      <trkpt lat="36.905899029225111" lon="-3.453687010332942">
        <ele>603.85000000000002</ele>
        <time>2025-05-12T07:29:09Z</time>
      </trkpt>
      <trkpt lat="36.905923001468182" lon="-3.453504033386707">
        <ele>602.39999999999998</ele>
        <time>2025-05-12T07:29:10Z</time>
      </trkpt>
      <trkpt lat="36.905948985368013" lon="-3.453310998156667">
        <ele>601.44000000000005</ele>
        <time>2025-05-12T07:29:11Z</time>
      </trkpt>
      <trkpt lat="36.905932975932956" lon="-3.453102959319949">
        <ele>600.48000000000002</ele>
        <time>2025-05-12T07:29:12Z</time>
      </trkpt>
      <trkpt lat="36.905912021175027" lon="-3.452900033444166">
        <ele>599.51999999999998</ele>
        <time>2025-05-12T07:29:13Z</time>
      </trkpt>
      <trkpt lat="36.905892994254827" lon="-3.452722001820803">
        <ele>598.55999999999995</ele>
        <time>2025-05-12T07:29:14Z</time>
      </trkpt>
      <trkpt lat="36.905906992033124" lon="-3.452572971582413">
        <ele>597.12</ele>
        <time>2025-05-12T07:29:15Z</time>
      </trkpt>
      <trkpt lat="36.90594001673162" lon="-3.452442968264222">
        <ele>596.63999999999999</ele>
        <time>2025-05-12T07:29:16Z</time>
      </trkpt>
      <trkpt lat="36.906029032543302" lon="-3.452349007129669">
        <ele>595.66999999999996</ele>
        <time>2025-05-12T07:29:17Z</time>
      </trkpt>
      <trkpt lat="36.906126011162996" lon="-3.45224498771131">
        <ele>594.71000000000004</ele>
        <time>2025-05-12T07:29:18Z</time>
      </trkpt>
      <trkpt lat="36.906922040507197" lon="-3.451390033587813">
        <ele>591.35000000000002</ele>
        <time>2025-05-12T07:29:25Z</time>
      </trkpt>
      <trkpt lat="36.906981971114874" lon="-3.451208984479308">
        <ele>591.35000000000002</ele>
        <time>2025-05-12T07:29:26Z</time>
      </trkpt>
      <trkpt lat="36.907003009691834" lon="-3.451071018353105">
        <ele>590.87</ele>
        <time>2025-05-12T07:29:27Z</time>
      </trkpt>
      <trkpt lat="36.907033016905189" lon="-3.450884018093348">
        <ele>589.90999999999997</ele>
        <time>2025-05-12T07:29:28Z</time>
      </trkpt>
      <trkpt lat="36.907064029946923" lon="-3.450680002570152">
        <ele>589.42999999999995</ele>
        <time>2025-05-12T07:29:29Z</time>
      </trkpt>
      <trkpt lat="36.907085990533233" lon="-3.450474981218576">
        <ele>588.95000000000005</ele>
        <time>2025-05-12T07:29:30Z</time>
      </trkpt>
      <trkpt lat="36.907072998583317" lon="-3.450306002050638">
        <ele>588.46000000000004</ele>
        <time>2025-05-12T07:29:31Z</time>
      </trkpt>
      <trkpt lat="36.906994041055441" lon="-3.450136017054319">
        <ele>587.5</ele>
        <time>2025-05-12T07:29:32Z</time>
      </trkpt>
      <trkpt lat="36.906892033293843" lon="-3.449984975159168">
        <ele>587.01999999999998</ele>
        <time>2025-05-12T07:29:33Z</time>
      </trkpt>
      <trkpt lat="36.906787008047104" lon="-3.449830999597907">
        <ele>586.53999999999996</ele>
        <time>2025-05-12T07:29:34Z</time>
      </trkpt>
      <trkpt lat="36.906703021377325" lon="-3.44970703125">
        <ele>586.05999999999995</ele>
        <time>2025-05-12T07:29:35Z</time>
      </trkpt>
      <trkpt lat="36.906566983088851" lon="-3.449632013216615">
        <ele>585.58000000000004</ele>
        <time>2025-05-12T07:29:36Z</time>
      </trkpt>
      <trkpt lat="36.906443014740944" lon="-3.449589014053345">
        <ele>584.62</ele>
        <time>2025-05-12T07:29:37Z</time>
      </trkpt>
      <trkpt lat="36.90630798228085" lon="-3.449567975476384">
        <ele>584.13999999999999</ele>
        <time>2025-05-12T07:29:38Z</time>
      </trkpt>
      <trkpt lat="36.906182002276182" lon="-3.449548026546836">
        <ele>583.65999999999997</ele>
        <time>2025-05-12T07:29:39Z</time>
      </trkpt>
      <trkpt lat="36.906093992292881" lon="-3.449523970484734">
        <ele>582.70000000000005</ele>
        <time>2025-05-12T07:29:40Z</time>
      </trkpt>
      <trkpt lat="36.906030038371682" lon="-3.449434032663703">
        <ele>581.73000000000002</ele>
        <time>2025-05-12T07:29:41Z</time>
      </trkpt>
      <trkpt lat="36.905991984531283" lon="-3.449328001588583">
        <ele>580.76999999999998</ele>
        <time>2025-05-12T07:29:42Z</time>
      </trkpt>
      <trkpt lat="36.90598301589489" lon="-3.449172014370561">
        <ele>579.33000000000004</ele>
        <time>2025-05-12T07:29:43Z</time>
      </trkpt>
      <trkpt lat="36.905973963439465" lon="-3.448989037424326">
        <ele>577.88999999999999</ele>
        <time>2025-05-12T07:29:44Z</time>
      </trkpt>
      <trkpt lat="36.905944962054491" lon="-3.448077002540231">
        <ele>572.60000000000002</ele>
        <time>2025-05-12T07:29:49Z</time>
      </trkpt>
      <trkpt lat="36.905967006459832" lon="-3.447909029200673">
        <ele>572.12</ele>
        <time>2025-05-12T07:29:50Z</time>
      </trkpt>
      <trkpt lat="36.906010005623102" lon="-3.447750024497509">
        <ele>571.15999999999997</ele>
        <time>2025-05-12T07:29:51Z</time>
      </trkpt>
      <trkpt lat="36.906231036409736" lon="-3.447089027613401">
        <ele>567.32000000000005</ele>
        <time>2025-05-12T07:29:56Z</time>
      </trkpt>
      <trkpt lat="36.906231036409736" lon="-3.446976961567998">
        <ele>566.83000000000004</ele>
        <time>2025-05-12T07:29:57Z</time>
      </trkpt>
      <trkpt lat="36.906216032803059" lon="-3.446877971291542">
        <ele>565.87</ele>
        <time>2025-05-12T07:29:58Z</time>
      </trkpt>
      <trkpt lat="36.906162975355983" lon="-3.446810999885202">
        <ele>564.90999999999997</ele>
        <time>2025-05-12T07:29:59Z</time>
      </trkpt>
      <trkpt lat="36.906064990907907" lon="-3.446789039298892">
        <ele>564.42999999999995</ele>
        <time>2025-05-12T07:30:00Z</time>
      </trkpt>
      <trkpt lat="36.905957031995058" lon="-3.446812005713582">
        <ele>563.47000000000003</ele>
        <time>2025-05-12T07:30:01Z</time>
      </trkpt>
      <trkpt lat="36.905844965949655" lon="-3.446879982948303">
        <ele>562.50999999999999</ele>
        <time>2025-05-12T07:30:02Z</time>
      </trkpt>
      <trkpt lat="36.905720997601748" lon="-3.446956006810069">
        <ele>562.02999999999997</ele>
        <time>2025-05-12T07:30:03Z</time>
      </trkpt>
      <trkpt lat="36.904965033754706" lon="-3.44745397567749">
        <ele>556.74000000000001</ele>
        <time>2025-05-12T07:30:09Z</time>
      </trkpt>
      <trkpt lat="36.904854979366064" lon="-3.447480965405703">
        <ele>556.25999999999999</ele>
        <time>2025-05-12T07:30:10Z</time>
      </trkpt>
      <trkpt lat="36.904746014624834" lon="-3.44747400842607">
        <ele>555.29999999999995</ele>
        <time>2025-05-12T07:30:11Z</time>
      </trkpt>
      <trkpt lat="36.904647024348378" lon="-3.44741097651422">
        <ele>554.82000000000005</ele>
        <time>2025-05-12T07:30:12Z</time>
      </trkpt>
      <trkpt lat="36.904563037678599" lon="-3.447306035086513">
        <ele>553.86000000000001</ele>
        <time>2025-05-12T07:30:13Z</time>
      </trkpt>
      <trkpt lat="36.904487013816833" lon="-3.447180977091193">
        <ele>552.40999999999997</ele>
        <time>2025-05-12T07:30:14Z</time>
      </trkpt>
      <trkpt lat="36.904463963583112" lon="-3.447030019015074">
        <ele>551.45000000000005</ele>
        <time>2025-05-12T07:30:15Z</time>
      </trkpt>
      <trkpt lat="36.904462035745382" lon="-3.44687202014029">
        <ele>550.00999999999999</ele>
        <time>2025-05-12T07:30:16Z</time>
      </trkpt>
      <trkpt lat="36.904490031301975" lon="-3.446711003780365">
        <ele>548.57000000000005</ele>
        <time>2025-05-12T07:30:17Z</time>
      </trkpt>
      <trkpt lat="36.904525989666581" lon="-3.446546969935298">
        <ele>547.13</ele>
        <time>2025-05-12T07:30:18Z</time>
      </trkpt>
      <trkpt lat="36.904590027406812" lon="-3.446397017687559">
        <ele>545.69000000000005</ele>
        <time>2025-05-12T07:30:19Z</time>
      </trkpt>
      <trkpt lat="36.904643001034856" lon="-3.446273971349001">
        <ele>544.72000000000003</ele>
        <time>2025-05-12T07:30:20Z</time>
      </trkpt>
      <trkpt lat="36.904760012403131" lon="-3.446194007992744">
        <ele>543.27999999999997</ele>
        <time>2025-05-12T07:30:21Z</time>
      </trkpt>
      <trkpt lat="36.904856991022825" lon="-3.446127958595753">
        <ele>542.32000000000005</ele>
        <time>2025-05-12T07:30:22Z</time>
      </trkpt>
      <trkpt lat="36.90495103597641" lon="-3.446064004674554">
        <ele>540.88</ele>
        <time>2025-05-12T07:30:23Z</time>
      </trkpt>
      <trkpt lat="36.905044997110963" lon="-3.445999966934323">
        <ele>539.91999999999996</ele>
        <time>2025-05-12T07:30:24Z</time>
      </trkpt>
      <trkpt lat="36.90512303262949" lon="-3.445931989699602">
        <ele>538.96000000000004</ele>
        <time>2025-05-12T07:30:25Z</time>
      </trkpt>
      <trkpt lat="36.905156979337335" lon="-3.445823024958372">
        <ele>537.50999999999999</ele>
        <time>2025-05-12T07:30:26Z</time>
      </trkpt>
      <trkpt lat="36.905149016529322" lon="-3.445688998326659">
        <ele>536.54999999999995</ele>
        <time>2025-05-12T07:30:27Z</time>
      </trkpt>
      <trkpt lat="36.905139964073896" lon="-3.445527981966734">
        <ele>535.59000000000003</ele>
        <time>2025-05-12T07:30:28Z</time>
      </trkpt>
      <trkpt lat="36.905085984617472" lon="-3.445365037769079">
        <ele>534.63</ele>
        <time>2025-05-12T07:30:29Z</time>
      </trkpt>
      <trkpt lat="36.905014989897609" lon="-3.445236040279269">
        <ele>533.66999999999996</ele>
        <time>2025-05-12T07:30:30Z</time>
      </trkpt>
      <trkpt lat="36.904894039034843" lon="-3.445167979225516">
        <ele>533.19000000000005</ele>
        <time>2025-05-12T07:30:31Z</time>
      </trkpt>
      <trkpt lat="36.90477903932333" lon="-3.445112993940711">
        <ele>532.71000000000004</ele>
        <time>2025-05-12T07:30:32Z</time>
      </trkpt>
      <trkpt lat="36.904670996591449" lon="-3.445062031969428">
        <ele>532.23000000000002</ele>
        <time>2025-05-12T07:30:33Z</time>
      </trkpt>
      <trkpt lat="36.904565971344709" lon="-3.445011992007494">
        <ele>532.23000000000002</ele>
        <time>2025-05-12T07:30:34Z</time>
      </trkpt>
      <trkpt lat="36.904485002160072" lon="-3.444920964539051">
        <ele>531.75</ele>
        <time>2025-05-12T07:30:35Z</time>
      </trkpt>
      <trkpt lat="36.904408978298306" lon="-3.444803031161428">
        <ele>531.75</ele>
        <time>2025-05-12T07:30:36Z</time>
      </trkpt>
      <trkpt lat="36.904335971921682" lon="-3.444667998701334">
        <ele>531.26999999999998</ele>
        <time>2025-05-12T07:30:37Z</time>
      </trkpt>
      <trkpt lat="36.904232958331704" lon="-3.444560961797833">
        <ele>530.78999999999996</ele>
        <time>2025-05-12T07:30:38Z</time>
      </trkpt>
      <trkpt lat="36.904115024954081" lon="-3.444491978734732">
        <ele>531.26999999999998</ele>
        <time>2025-05-12T07:30:39Z</time>
      </trkpt>
      <trkpt lat="36.903970018029213" lon="-3.444440010935068">
        <ele>531.26999999999998</ele>
        <time>2025-05-12T07:30:40Z</time>
      </trkpt>
      <trkpt lat="36.903829034417868" lon="-3.444421989843249">
        <ele>531.26999999999998</ele>
        <time>2025-05-12T07:30:41Z</time>
      </trkpt>
      <trkpt lat="36.903684027493" lon="-3.444415032863617">
        <ele>530.78999999999996</ele>
        <time>2025-05-12T07:30:42Z</time>
      </trkpt>
      <trkpt lat="36.903546983376145" lon="-3.444444034248591">
        <ele>530.78999999999996</ele>
        <time>2025-05-12T07:30:43Z</time>
      </trkpt>
      <trkpt lat="36.903408011421561" lon="-3.444474963471293">
        <ele>530.29999999999995</ele>
        <time>2025-05-12T07:30:44Z</time>
      </trkpt>
      <trkpt lat="36.902866959571838" lon="-3.444571020081639">
        <ele>528.86000000000001</ele>
        <time>2025-05-12T07:30:48Z</time>
      </trkpt>
      <trkpt lat="36.902734022587538" lon="-3.444546964019537">
        <ele>528.38</ele>
        <time>2025-05-12T07:30:49Z</time>
      </trkpt>
      <trkpt lat="36.902609970420599" lon="-3.444485021755099">
        <ele>527.89999999999998</ele>
        <time>2025-05-12T07:30:50Z</time>
      </trkpt>
      <trkpt lat="36.902490025386214" lon="-3.444416038691998">
        <ele>527.41999999999996</ele>
        <time>2025-05-12T07:30:51Z</time>
      </trkpt>
      <trkpt lat="36.902415007352829" lon="-3.44429399818182">
        <ele>526.94000000000005</ele>
        <time>2025-05-12T07:30:52Z</time>
      </trkpt>
      <trkpt lat="36.902337977662683" lon="-3.444169024005532">
        <ele>525.98000000000002</ele>
        <time>2025-05-12T07:30:53Z</time>
      </trkpt>
      <trkpt lat="36.902316017076373" lon="-3.444000966846943">
        <ele>525.5</ele>
        <time>2025-05-12T07:30:54Z</time>
      </trkpt>
      <trkpt lat="36.902303025126457" lon="-3.443806003779173">
        <ele>524.53999999999996</ele>
        <time>2025-05-12T07:30:55Z</time>
      </trkpt>
      <trkpt lat="36.90228802151978" lon="-3.443568963557482">
        <ele>524.05999999999995</ele>
        <time>2025-05-12T07:30:56Z</time>
      </trkpt>
      <trkpt lat="36.902203029021621" lon="-3.441867018118501">
        <ele>521.16999999999996</ele>
        <time>2025-05-12T07:31:02Z</time>
      </trkpt>
      <trkpt lat="36.902217026799917" lon="-3.441456975415349">
        <ele>520.21000000000004</ele>
        <time>2025-05-12T07:31:04Z</time>
      </trkpt>
      <trkpt lat="36.902283998206258" lon="-3.441298976540566">
        <ele>520.21000000000004</ele>
        <time>2025-05-12T07:31:05Z</time>
      </trkpt>
      <trkpt lat="36.902383994311094" lon="-3.441167967393994">
        <ele>519.73000000000002</ele>
        <time>2025-05-12T07:31:06Z</time>
      </trkpt>
      <trkpt lat="36.902512991800904" lon="-3.441032012924552">
        <ele>519.25</ele>
        <time>2025-05-12T07:31:07Z</time>
      </trkpt>
      <trkpt lat="36.90265397541225" lon="-3.440880971029401">
        <ele>518.76999999999998</ele>
        <time>2025-05-12T07:31:08Z</time>
      </trkpt>
      <trkpt lat="36.903841020539403" lon="-3.439714964479208">
        <ele>516.37</ele>
        <time>2025-05-12T07:31:16Z</time>
      </trkpt>
      <trkpt lat="36.903954008594155" lon="-3.439570963382721">
        <ele>515.88</ele>
        <time>2025-05-12T07:31:17Z</time>
      </trkpt>
      <trkpt lat="36.904055010527372" lon="-3.439427968114615">
        <ele>515.39999999999998</ele>
        <time>2025-05-12T07:31:18Z</time>
      </trkpt>
      <trkpt lat="36.904191970825195" lon="-3.439107025042176">
        <ele>514.91999999999996</ele>
        <time>2025-05-12T07:31:20Z</time>
      </trkpt>
      <trkpt lat="36.904230024665594" lon="-3.438936034217477">
        <ele>514.44000000000005</ele>
        <time>2025-05-12T07:31:21Z</time>
      </trkpt>
      <trkpt lat="36.9042659830302" lon="-3.438766971230507">
        <ele>514.44000000000005</ele>
        <time>2025-05-12T07:31:22Z</time>
      </trkpt>
      <trkpt lat="36.904332032427192" lon="-3.438461031764746">
        <ele>513.96000000000004</ele>
        <time>2025-05-12T07:31:24Z</time>
      </trkpt>
      <trkpt lat="36.904361033812165" lon="-3.438320970162749">
        <ele>513.96000000000004</ele>
        <time>2025-05-12T07:31:25Z</time>
      </trkpt>
      <trkpt lat="36.90439498052001" lon="-3.438187027350068">
        <ele>513.96000000000004</ele>
        <time>2025-05-12T07:31:26Z</time>
      </trkpt>
      <trkpt lat="36.904457006603479" lon="-3.438069010153413">
        <ele>513.96000000000004</ele>
        <time>2025-05-12T07:31:27Z</time>
      </trkpt>
      <trkpt lat="36.904516015201807" lon="-3.437956022098661">
        <ele>513.96000000000004</ele>
        <time>2025-05-12T07:31:28Z</time>
      </trkpt>
      <trkpt lat="36.904646018519998" lon="-3.437632983550429">
        <ele>513.48000000000002</ele>
        <time>2025-05-12T07:31:31Z</time>
      </trkpt>
      <trkpt lat="36.904669990763068" lon="-3.437513960525394">
        <ele>513</ele>
        <time>2025-05-12T07:31:32Z</time>
      </trkpt>
      <trkpt lat="36.904678037390113" lon="-3.437395021319389">
        <ele>512.51999999999998</ele>
        <time>2025-05-12T07:31:33Z</time>
      </trkpt>
      <trkpt lat="36.904640989378095" lon="-3.437283961102366">
        <ele>512.51999999999998</ele>
        <time>2025-05-12T07:31:34Z</time>
      </trkpt>
      <trkpt lat="36.904584998264909" lon="-3.437182959169149">
        <ele>512.51999999999998</ele>
        <time>2025-05-12T07:31:35Z</time>
      </trkpt>
      <trkpt lat="36.904510986059904" lon="-3.437091009691358">
        <ele>512.03999999999996</ele>
        <time>2025-05-12T07:31:36Z</time>
      </trkpt>
      <trkpt lat="36.904425993561745" lon="-3.437013980001211">
        <ele>512.03999999999996</ele>
        <time>2025-05-12T07:31:37Z</time>
      </trkpt>
      <trkpt lat="36.904342006891966" lon="-3.436937034130096">
        <ele>512.03999999999996</ele>
        <time>2025-05-12T07:31:38Z</time>
      </trkpt>
      <trkpt lat="36.904282998293638" lon="-3.436851035803556">
        <ele>512.03999999999996</ele>
        <time>2025-05-12T07:31:39Z</time>
      </trkpt>
      <trkpt lat="36.904236981645226" lon="-3.436748022213578">
        <ele>512.03999999999996</ele>
        <time>2025-05-12T07:31:40Z</time>
      </trkpt>
      <trkpt lat="36.904247961938381" lon="-3.436622964218259">
        <ele>512.03999999999996</ele>
        <time>2025-05-12T07:31:41Z</time>
      </trkpt>
      <trkpt lat="36.904260031878948" lon="-3.436491033062339">
        <ele>512.03999999999996</ele>
        <time>2025-05-12T07:31:42Z</time>
      </trkpt>
      <trkpt lat="36.904271012172103" lon="-3.436359018087387">
        <ele>511.56</ele>
        <time>2025-05-12T07:31:43Z</time>
      </trkpt>
      <trkpt lat="36.904397998005152" lon="-3.435722999274731">
        <ele>511.56</ele>
        <time>2025-05-12T07:31:49Z</time>
      </trkpt>
      <trkpt lat="36.904445020481944" lon="-3.435657033696771">
        <ele>511.56</ele>
        <time>2025-05-12T07:31:50Z</time>
      </trkpt>
      <trkpt lat="36.904506040737033" lon="-3.435629038140178">
        <ele>512.03999999999996</ele>
        <time>2025-05-12T07:31:51Z</time>
      </trkpt>
      <trkpt lat="36.904583992436528" lon="-3.435626020655036">
        <ele>511.56</ele>
        <time>2025-05-12T07:31:52Z</time>
      </trkpt>
      <trkpt lat="36.904670996591449" lon="-3.435620991513133">
        <ele>511.56</ele>
        <time>2025-05-12T07:31:53Z</time>
      </trkpt>
      <trkpt lat="36.904767975211143" lon="-3.435616968199611">
        <ele>511.07999999999998</ele>
        <time>2025-05-12T07:31:54Z</time>
      </trkpt>
      <trkpt lat="36.904868977144361" lon="-3.43561202287674">
        <ele>511.07999999999998</ele>
        <time>2025-05-12T07:31:55Z</time>
      </trkpt>
      <trkpt lat="36.904960004612803" lon="-3.435571035370231">
        <ele>510.12</ele>
        <time>2025-05-12T07:31:56Z</time>
      </trkpt>
      <trkpt lat="36.905023958534002" lon="-3.43550699763">
        <ele>509.63999999999999</ele>
        <time>2025-05-12T07:31:57Z</time>
      </trkpt>
      <trkpt lat="36.905044997110963" lon="-3.435422005131841">
        <ele>509.16000000000003</ele>
        <time>2025-05-12T07:31:58Z</time>
      </trkpt>
      <trkpt lat="36.905071986839175" lon="-3.435287978500128">
        <ele>509.16000000000003</ele>
        <time>2025-05-12T07:31:59Z</time>
      </trkpt>
      <trkpt lat="36.905071986839175" lon="-3.43518597073853">
        <ele>508.67000000000002</ele>
        <time>2025-05-12T07:32:00Z</time>
      </trkpt>
      <trkpt lat="36.905070981010795" lon="-3.435048004612327">
        <ele>508.19</ele>
        <time>2025-05-12T07:32:01Z</time>
      </trkpt>
      <trkpt lat="36.905018007382751" lon="-3.433547979220748">
        <ele>506.75</ele>
        <time>2025-05-12T07:32:12Z</time>
      </trkpt>
      <trkpt lat="36.90495103597641" lon="-3.432948002591729">
        <ele>505.31</ele>
        <time>2025-05-12T07:32:17Z</time>
      </trkpt>
      <trkpt lat="36.904898984357715" lon="-3.432841971516609">
        <ele>505.31</ele>
        <time>2025-05-12T07:32:18Z</time>
      </trkpt>
      <trkpt lat="36.904828995466232" lon="-3.432741975411773">
        <ele>505.31</ele>
        <time>2025-05-12T07:32:19Z</time>
      </trkpt>
      <trkpt lat="36.904741991311312" lon="-3.432667963206768">
        <ele>505.31</ele>
        <time>2025-05-12T07:32:20Z</time>
      </trkpt>
      <trkpt lat="36.904640989378095" lon="-3.432621024549007">
        <ele>505.31</ele>
        <time>2025-05-12T07:32:21Z</time>
      </trkpt>
      <trkpt lat="36.904066996648908" lon="-3.432358000427485">
        <ele>504.35000000000002</ele>
        <time>2025-05-12T07:32:26Z</time>
      </trkpt>
      <trkpt lat="36.903944034129381" lon="-3.432333022356033">
        <ele>503.38999999999999</ele>
        <time>2025-05-12T07:32:27Z</time>
      </trkpt>
      <trkpt lat="36.903820987790823" lon="-3.43234702013433">
        <ele>502.91000000000003</ele>
        <time>2025-05-12T07:32:28Z</time>
      </trkpt>
      <trkpt lat="36.90360096283257" lon="-3.432399993762374">
        <ele>501.94999999999999</ele>
        <time>2025-05-12T07:32:30Z</time>
      </trkpt>
      <trkpt lat="36.903501972556114" lon="-3.432488003745675">
        <ele>501.45999999999998</ele>
        <time>2025-05-12T07:32:31Z</time>
      </trkpt>
      <trkpt lat="36.903409017249942" lon="-3.432571990415454">
        <ele>501.45999999999998</ele>
        <time>2025-05-12T07:32:32Z</time>
      </trkpt>
      <trkpt lat="36.903116991743445" lon="-3.432796038687229">
        <ele>499.54000000000002</ele>
        <time>2025-05-12T07:32:35Z</time>
      </trkpt>
      <trkpt lat="36.903011966496706" lon="-3.432844989001751">
        <ele>499.06</ele>
        <time>2025-05-12T07:32:36Z</time>
      </trkpt>
      <trkpt lat="36.902907025068998" lon="-3.43288597650826">
        <ele>498.10000000000002</ele>
        <time>2025-05-12T07:32:37Z</time>
      </trkpt>
      <trkpt lat="36.902796970680356" lon="-3.432896034792066">
        <ele>497.13999999999999</ele>
        <time>2025-05-12T07:32:38Z</time>
      </trkpt>
      <trkpt lat="36.902685994282365" lon="-3.432905003428459">
        <ele>496.18000000000001</ele>
        <time>2025-05-12T07:32:39Z</time>
      </trkpt>
      <trkpt lat="36.902578035369515" lon="-3.432880025357008">
        <ele>495.22000000000003</ele>
        <time>2025-05-12T07:32:40Z</time>
      </trkpt>
      <trkpt lat="36.902468986809254" lon="-3.432854963466525">
        <ele>494.25999999999999</ele>
        <time>2025-05-12T07:32:41Z</time>
      </trkpt>
      <trkpt lat="36.90205299295485" lon="-3.432737030088902">
        <ele>490.88999999999999</ele>
        <time>2025-05-12T07:32:45Z</time>
      </trkpt>
      <trkpt lat="36.90196598879993" lon="-3.432694030925632">
        <ele>490.41000000000003</ele>
        <time>2025-05-12T07:32:46Z</time>
      </trkpt>
      <trkpt lat="36.901870016008615" lon="-3.432611972093582">
        <ele>489.93000000000001</ele>
        <time>2025-05-12T07:32:47Z</time>
      </trkpt>
      <trkpt lat="36.90185802988708" lon="-3.432508958503604">
        <ele>488.97000000000003</ele>
        <time>2025-05-12T07:32:48Z</time>
      </trkpt>
      <trkpt lat="36.901878984645009" lon="-3.43239102512598">
        <ele>488.49000000000001</ele>
        <time>2025-05-12T07:32:49Z</time>
      </trkpt>
      <trkpt lat="36.901913015171885" lon="-3.432275019586086">
        <ele>487.52999999999997</ele>
        <time>2025-05-12T07:32:50Z</time>
      </trkpt>
      <trkpt lat="36.901948973536491" lon="-3.432151973247528">
        <ele>486.56</ele>
        <time>2025-05-12T07:32:51Z</time>
      </trkpt>
      <trkpt lat="36.901960959658027" lon="-3.43202599324286">
        <ele>485.60000000000002</ele>
        <time>2025-05-12T07:32:52Z</time>
      </trkpt>
      <trkpt lat="36.901960959658027" lon="-3.43189699575305">
        <ele>484.63999999999999</ele>
        <time>2025-05-12T07:32:53Z</time>
      </trkpt>
      <trkpt lat="36.90190396271646" lon="-3.431777972728014">
        <ele>483.68000000000001</ele>
        <time>2025-05-12T07:32:54Z</time>
      </trkpt>
      <trkpt lat="36.901844032108784" lon="-3.431650986894965">
        <ele>482.24000000000001</ele>
        <time>2025-05-12T07:32:55Z</time>
      </trkpt>
      <trkpt lat="36.901783011853695" lon="-3.431524001061916">
        <ele>481.27999999999997</ele>
        <time>2025-05-12T07:32:56Z</time>
      </trkpt>
      <trkpt lat="36.901734983548522" lon="-3.431402966380119">
        <ele>479.83999999999997</ele>
        <time>2025-05-12T07:32:57Z</time>
      </trkpt>
      <trkpt lat="36.901704976335168" lon="-3.431282015517354">
        <ele>478.87</ele>
        <time>2025-05-12T07:32:58Z</time>
      </trkpt>
      <trkpt lat="36.90168502740562" lon="-3.431161986663938">
        <ele>477.91000000000003</ele>
        <time>2025-05-12T07:32:59Z</time>
      </trkpt>
      <trkpt lat="36.901717968285084" lon="-3.430916983634234">
        <ele>475.50999999999999</ele>
        <time>2025-05-12T07:33:01Z</time>
      </trkpt>
      <trkpt lat="36.901705982163548" lon="-3.430782034993172">
        <ele>475.02999999999997</ele>
        <time>2025-05-12T07:33:02Z</time>
      </trkpt>
      <trkpt lat="36.901674969121814" lon="-3.430649014189839">
        <ele>474.06999999999999</ele>
        <time>2025-05-12T07:33:03Z</time>
      </trkpt>
      <trkpt lat="36.901639010757208" lon="-3.430518005043268">
        <ele>473.11000000000001</ele>
        <time>2025-05-12T07:33:04Z</time>
      </trkpt>
      <trkpt lat="36.901593999937177" lon="-3.430390013381839">
        <ele>472.63</ele>
        <time>2025-05-12T07:33:05Z</time>
      </trkpt>
      <trkpt lat="36.901538008823991" lon="-3.430279958993197">
        <ele>471.66000000000003</ele>
        <time>2025-05-12T07:33:06Z</time>
      </trkpt>
      <trkpt lat="36.901237014681101" lon="-3.42970596626401">
        <ele>467.81999999999999</ele>
        <time>2025-05-12T07:33:12Z</time>
      </trkpt>
      <trkpt lat="36.901145987212658" lon="-3.429529024288058">
        <ele>466.38</ele>
        <time>2025-05-12T07:33:14Z</time>
      </trkpt>
      <trkpt lat="36.90106300637126" lon="-3.429236998781562">
        <ele>464.44999999999999</ele>
        <time>2025-05-12T07:33:17Z</time>
      </trkpt>
      <trkpt lat="36.901045991107821" lon="-3.429139014333487">
        <ele>463.97000000000003</ele>
        <time>2025-05-12T07:33:18Z</time>
      </trkpt>
      <trkpt lat="36.901028975844383" lon="-3.429049998521805">
        <ele>463.00999999999999</ele>
        <time>2025-05-12T07:33:19Z</time>
      </trkpt>
      <trkpt lat="36.901016989722848" lon="-3.428967017680407">
        <ele>462.05000000000001</ele>
        <time>2025-05-12T07:33:20Z</time>
      </trkpt>
      <trkpt lat="36.901016989722848" lon="-3.428887976333499">
        <ele>461.08999999999997</ele>
        <time>2025-05-12T07:33:21Z</time>
      </trkpt>
      <trkpt lat="36.90102000720799" lon="-3.428659988567233">
        <ele>459.17000000000002</ele>
        <time>2025-05-12T07:33:24Z</time>
      </trkpt>
      <trkpt lat="36.901124026626348" lon="-3.428593017160893">
        <ele>458.69</ele>
        <time>2025-05-12T07:33:25Z</time>
      </trkpt>
      <trkpt lat="36.901143975555897" lon="-3.428569966927171">
        <ele>458.69</ele>
        <time>2025-05-12T07:33:26Z</time>
      </trkpt>
      <trkpt lat="36.901424014940858" lon="-3.42833099886775">
        <ele>459.64999999999998</ele>
        <time>2025-05-12T07:33:30Z</time>
      </trkpt>
      <trkpt lat="36.901519987732172" lon="-3.428280958905816">
        <ele>461.08999999999997</ele>
        <time>2025-05-12T07:33:31Z</time>
      </trkpt>
      <trkpt lat="36.901627024635673" lon="-3.428241983056068">
        <ele>462.05000000000001</ele>
        <time>2025-05-12T07:33:32Z</time>
      </trkpt>
      <trkpt lat="36.901725009083748" lon="-3.428206024691463">
        <ele>463.00999999999999</ele>
        <time>2025-05-12T07:33:33Z</time>
      </trkpt>
      <trkpt lat="36.901855012401938" lon="-3.428194960579276">
        <ele>463.97000000000003</ele>
        <time>2025-05-12T07:33:34Z</time>
      </trkpt>
      <trkpt lat="36.901984009891748" lon="-3.428183980286121">
        <ele>464.93000000000001</ele>
        <time>2025-05-12T07:33:35Z</time>
      </trkpt>
      <trkpt lat="36.903431983664632" lon="-3.428104016929865">
        <ele>472.63</ele>
        <time>2025-05-12T07:33:44Z</time>
      </trkpt>
      <trkpt lat="36.904446026310325" lon="-3.427953980863094">
        <ele>480.31999999999999</ele>
        <time>2025-05-12T07:33:51Z</time>
      </trkpt>
      <trkpt lat="36.90527600236237" lon="-3.427811991423369">
        <ele>486.07999999999998</ele>
        <time>2025-05-12T07:33:59Z</time>
      </trkpt>
      <trkpt lat="36.906093992292881" lon="-3.427832024171948">
        <ele>490.41000000000003</ele>
        <time>2025-05-12T07:34:04Z</time>
      </trkpt>
      <trkpt lat="36.906357016414404" lon="-3.427826995030046">
        <ele>491.85000000000002</ele>
        <time>2025-05-12T07:34:06Z</time>
      </trkpt>
      <trkpt lat="36.906463969498873" lon="-3.427802016958594">
        <ele>492.81</ele>
        <time>2025-05-12T07:34:07Z</time>
      </trkpt>
      <trkpt lat="36.906648958101869" lon="-3.427759017795324">
        <ele>494.74000000000001</ele>
        <time>2025-05-12T07:34:09Z</time>
      </trkpt>
      <trkpt lat="36.906727999448776" lon="-3.427766980603337">
        <ele>495.69999999999999</ele>
        <time>2025-05-12T07:34:10Z</time>
      </trkpt>
      <trkpt lat="36.906806034967303" lon="-3.42779497615993">
        <ele>496.18000000000001</ele>
        <time>2025-05-12T07:34:11Z</time>
      </trkpt>
      <trkpt lat="36.906873006373644" lon="-3.427861025556922">
        <ele>496.66000000000003</ele>
        <time>2025-05-12T07:34:12Z</time>
      </trkpt>
      <trkpt lat="36.906905025243759" lon="-3.42796303331852">
        <ele>497.13999999999999</ele>
        <time>2025-05-12T07:34:13Z</time>
      </trkpt>
      <trkpt lat="36.906936960294843" lon="-3.428070992231369">
        <ele>498.10000000000002</ele>
        <time>2025-05-12T07:34:14Z</time>
      </trkpt>
      <trkpt lat="36.906895972788334" lon="-3.428172999992967">
        <ele>498.57999999999998</ele>
        <time>2025-05-12T07:34:15Z</time>
      </trkpt>
      <trkpt lat="36.906846016645432" lon="-3.428281964734197">
        <ele>499.06</ele>
        <time>2025-05-12T07:34:16Z</time>
      </trkpt>
      <trkpt lat="36.906776027753949" lon="-3.42835103161633">
        <ele>500.01999999999998</ele>
        <time>2025-05-12T07:34:17Z</time>
      </trkpt>
      <trkpt lat="36.906679971143603" lon="-3.428405011072755">
        <ele>500.5</ele>
        <time>2025-05-12T07:34:18Z</time>
      </trkpt>
      <trkpt lat="36.906562959775329" lon="-3.428435018286109">
        <ele>500.98000000000002</ele>
        <time>2025-05-12T07:34:19Z</time>
      </trkpt>
      <trkpt lat="36.906442008912563" lon="-3.428404005244374">
        <ele>501.94999999999999</ele>
        <time>2025-05-12T07:34:20Z</time>
      </trkpt>
      <trkpt lat="36.906312005594373" lon="-3.428348014131188">
        <ele>502.43000000000001</ele>
        <time>2025-05-12T07:34:21Z</time>
      </trkpt>
      <trkpt lat="36.906175967305899" lon="-3.428291017189622">
        <ele>503.38999999999999</ele>
        <time>2025-05-12T07:34:22Z</time>
      </trkpt>
      <trkpt lat="36.906044036149979" lon="-3.428246006369591">
        <ele>504.35000000000002</ele>
        <time>2025-05-12T07:34:23Z</time>
      </trkpt>
      <trkpt lat="36.905915960669518" lon="-3.428233014419675">
        <ele>505.31</ele>
        <time>2025-05-12T07:34:24Z</time>
      </trkpt>
      <trkpt lat="36.905810013413429" lon="-3.42826503328979">
        <ele>505.31</ele>
        <time>2025-05-12T07:34:25Z</time>
      </trkpt>
      <trkpt lat="36.90572896040976" lon="-3.428327981382608">
        <ele>505.79000000000002</ele>
        <time>2025-05-12T07:34:26Z</time>
      </trkpt>
      <trkpt lat="36.905672969296575" lon="-3.428429989144206">
        <ele>506.26999999999998</ele>
        <time>2025-05-12T07:34:27Z</time>
      </trkpt>
      <trkpt lat="36.905672969296575" lon="-3.428552029654384">
        <ele>507.23000000000002</ele>
        <time>2025-05-12T07:34:28Z</time>
      </trkpt>
      <trkpt lat="36.905720997601748" lon="-3.428679015487433">
        <ele>508.19</ele>
        <time>2025-05-12T07:34:29Z</time>
      </trkpt>
      <trkpt lat="36.905797021463513" lon="-3.428798960521817">
        <ele>508.67000000000002</ele>
        <time>2025-05-12T07:34:30Z</time>
      </trkpt>
      <trkpt lat="36.905901962891221" lon="-3.428880013525486">
        <ele>509.16000000000003</ele>
        <time>2025-05-12T07:34:31Z</time>
      </trkpt>
      <trkpt lat="36.906030960381031" lon="-3.428956959396601">
        <ele>509.63999999999999</ele>
        <time>2025-05-12T07:34:32Z</time>
      </trkpt>
      <trkpt lat="36.906173033639789" lon="-3.429006999358535">
        <ele>511.07999999999998</ele>
        <time>2025-05-12T07:34:33Z</time>
      </trkpt>
      <trkpt lat="36.906326003372669" lon="-3.42906097881496">
        <ele>512.03999999999996</ele>
        <time>2025-05-12T07:34:34Z</time>
      </trkpt>
      <trkpt lat="36.906964033842087" lon="-3.429322997108102">
        <ele>516.37</ele>
        <time>2025-05-12T07:34:38Z</time>
      </trkpt>
      <trkpt lat="36.907111974433064" lon="-3.429454006254673">
        <ele>517.33000000000004</ele>
        <time>2025-05-12T07:34:39Z</time>
      </trkpt>
      <trkpt lat="36.907587982714176" lon="-3.429857008159161">
        <ele>520.21000000000004</ele>
        <time>2025-05-12T07:34:42Z</time>
      </trkpt>
      <trkpt lat="36.907761991024017" lon="-3.429960021749139">
        <ele>522.13</ele>
        <time>2025-05-12T07:34:43Z</time>
      </trkpt>
      <trkpt lat="36.908162981271744" lon="-3.430223967880011">
        <ele>526.46000000000004</ele>
        <time>2025-05-12T07:34:46Z</time>
      </trkpt>
      <trkpt lat="36.908243028447032" lon="-3.430325975641608">
        <ele>527.89999999999998</ele>
        <time>2025-05-12T07:34:47Z</time>
      </trkpt>
      <trkpt lat="36.908301031216979" lon="-3.430456984788179">
        <ele>529.82000000000005</ele>
        <time>2025-05-12T07:34:48Z</time>
      </trkpt>
      <trkpt lat="36.908364985138178" lon="-3.430605009198189">
        <ele>530.78999999999996</ele>
        <time>2025-05-12T07:34:49Z</time>
      </trkpt>
      <trkpt lat="36.908446960151196" lon="-3.430749010294676">
        <ele>531.75</ele>
        <time>2025-05-12T07:34:50Z</time>
      </trkpt>
      <trkpt lat="36.908555002883077" lon="-3.430878007784486">
        <ele>532.71000000000004</ele>
        <time>2025-05-12T07:34:51Z</time>
      </trkpt>
      <trkpt lat="36.90868902951479" lon="-3.430964006111026">
        <ele>534.14999999999998</ele>
        <time>2025-05-12T07:34:52Z</time>
      </trkpt>
      <trkpt lat="36.908806040883064" lon="-3.431039024144411">
        <ele>535.11000000000001</ele>
        <time>2025-05-12T07:34:53Z</time>
      </trkpt>
      <trkpt lat="36.908955993130803" lon="-3.43105997890234">
        <ele>536.07000000000005</ele>
        <time>2025-05-12T07:34:54Z</time>
      </trkpt>
      <trkpt lat="36.909084990620613" lon="-3.431043969467282">
        <ele>537.02999999999997</ele>
        <time>2025-05-12T07:34:55Z</time>
      </trkpt>
      <trkpt lat="36.909231003373861" lon="-3.430997030809522">
        <ele>537.99000000000001</ele>
        <time>2025-05-12T07:34:56Z</time>
      </trkpt>
      <trkpt lat="36.910047987475991" lon="-3.430659994482994">
        <ele>545.69000000000005</ele>
        <time>2025-05-12T07:35:01Z</time>
      </trkpt>
      <trkpt lat="36.910182014107704" lon="-3.430562010034919">
        <ele>547.61000000000001</ele>
        <time>2025-05-12T07:35:02Z</time>
      </trkpt>
      <trkpt lat="36.910314029082656" lon="-3.430465031415224">
        <ele>549.04999999999995</ele>
        <time>2025-05-12T07:35:03Z</time>
      </trkpt>
      <trkpt lat="36.910552997142076" lon="-3.430221034213901">
        <ele>551.92999999999995</ele>
        <time>2025-05-12T07:35:05Z</time>
      </trkpt>
      <trkpt lat="36.910666991025209" lon="-3.430083990097046">
        <ele>553.86000000000001</ele>
        <time>2025-05-12T07:35:06Z</time>
      </trkpt>
      <trkpt lat="36.910768998786807" lon="-3.429936971515417">
        <ele>555.29999999999995</ele>
        <time>2025-05-12T07:35:07Z</time>
      </trkpt>
      <trkpt lat="36.910871006548405" lon="-3.42979003675282">
        <ele>556.25999999999999</ele>
        <time>2025-05-12T07:35:08Z</time>
      </trkpt>
      <trkpt lat="36.910974020138383" lon="-3.429642012342811">
        <ele>557.70000000000005</ele>
        <time>2025-05-12T07:35:09Z</time>
      </trkpt>
      <trkpt lat="36.911773988977075" lon="-3.428547000512481">
        <ele>565.87</ele>
        <time>2025-05-12T07:35:15Z</time>
      </trkpt>
      <trkpt lat="36.912273969501257" lon="-3.427831018343568">
        <ele>570.67999999999995</ele>
        <time>2025-05-12T07:35:19Z</time>
      </trkpt>
      <trkpt lat="36.912358961999416" lon="-3.427645023912191">
        <ele>572.12</ele>
        <time>2025-05-12T07:35:20Z</time>
      </trkpt>
      <trkpt lat="36.912415036931634" lon="-3.427448971197009">
        <ele>573.08000000000004</ele>
        <time>2025-05-12T07:35:21Z</time>
      </trkpt>
      <trkpt lat="36.912573035806417" lon="-3.42682896181941">
        <ele>577.40999999999997</ele>
        <time>2025-05-12T07:35:25Z</time>
      </trkpt>
      <trkpt lat="36.912629026919603" lon="-3.426759978756309">
        <ele>578.37</ele>
        <time>2025-05-12T07:35:26Z</time>
      </trkpt>
      <trkpt lat="36.91270999610424" lon="-3.426704993471503">
        <ele>578.85000000000002</ele>
        <time>2025-05-12T07:35:27Z</time>
      </trkpt>
      <trkpt lat="36.912781996652484" lon="-3.426722008734942">
        <ele>579.80999999999995</ele>
        <time>2025-05-12T07:35:28Z</time>
      </trkpt>
      <trkpt lat="36.912827007472515" lon="-3.426774982362986">
        <ele>580.76999999999998</ele>
        <time>2025-05-12T07:35:29Z</time>
      </trkpt>
      <trkpt lat="36.912864977493882" lon="-3.426854023709893">
        <ele>581.25</ele>
        <time>2025-05-12T07:35:30Z</time>
      </trkpt>
      <trkpt lat="36.91288199275732" lon="-3.426967011764646">
        <ele>582.22000000000003</ele>
        <time>2025-05-12T07:35:31Z</time>
      </trkpt>
      <trkpt lat="36.912856008857489" lon="-3.427122998982668">
        <ele>582.70000000000005</ele>
        <time>2025-05-12T07:35:32Z</time>
      </trkpt>
      <trkpt lat="36.912824995815754" lon="-3.427308993414044">
        <ele>583.65999999999997</ele>
        <time>2025-05-12T07:35:33Z</time>
      </trkpt>
      <trkpt lat="36.912803035229445" lon="-3.427510997280479">
        <ele>584.13999999999999</ele>
        <time>2025-05-12T07:35:34Z</time>
      </trkpt>
      <trkpt lat="36.912743020802736" lon="-3.428143998607993">
        <ele>586.05999999999995</ele>
        <time>2025-05-12T07:35:37Z</time>
      </trkpt>
      <trkpt lat="36.912692980840802" lon="-3.428303003311157">
        <ele>586.53999999999996</ele>
        <time>2025-05-12T07:35:38Z</time>
      </trkpt>
      <trkpt lat="36.912582004442811" lon="-3.428453961387277">
        <ele>587.5</ele>
        <time>2025-05-12T07:35:39Z</time>
      </trkpt>
      <trkpt lat="36.911858981475234" lon="-3.429474961012602">
        <ele>591.83000000000004</ele>
        <time>2025-05-12T07:35:46Z</time>
      </trkpt>
      <trkpt lat="36.911836015060544" lon="-3.429602030664682">
        <ele>592.30999999999995</ele>
        <time>2025-05-12T07:35:47Z</time>
      </trkpt>
      <trkpt lat="36.91185001283884" lon="-3.429739996790886">
        <ele>593.26999999999998</ele>
        <time>2025-05-12T07:35:48Z</time>
      </trkpt>
      <trkpt lat="36.911882031708956" lon="-3.430046020075679">
        <ele>594.71000000000004</ele>
        <time>2025-05-12T07:35:50Z</time>
      </trkpt>
      <trkpt lat="36.911878008395433" lon="-3.430212987586856">
        <ele>595.66999999999996</ele>
        <time>2025-05-12T07:35:51Z</time>
      </trkpt>
      <trkpt lat="36.911797039210796" lon="-3.430353971198201">
        <ele>596.63999999999999</ele>
        <time>2025-05-12T07:35:52Z</time>
      </trkpt>
      <trkpt lat="36.911709029227495" lon="-3.430509036406875">
        <ele>597.60000000000002</ele>
        <time>2025-05-12T07:35:53Z</time>
      </trkpt>
      <trkpt lat="36.911619007587433" lon="-3.430668041110039">
        <ele>598.55999999999995</ele>
        <time>2025-05-12T07:35:54Z</time>
      </trkpt>
      <trkpt lat="36.911529991775751" lon="-3.430825034156442">
        <ele>600</ele>
        <time>2025-05-12T07:35:55Z</time>
      </trkpt>
      <trkpt lat="36.911443993449211" lon="-3.430981021374464">
        <ele>600.96000000000004</ele>
        <time>2025-05-12T07:35:56Z</time>
      </trkpt>
      <trkpt lat="36.911413986235857" lon="-3.431152012199163">
        <ele>601.91999999999996</ele>
        <time>2025-05-12T07:35:57Z</time>
      </trkpt>
      <trkpt lat="36.911383979022503" lon="-3.431328032165766">
        <ele>602.88</ele>
        <time>2025-05-12T07:35:58Z</time>
      </trkpt>
      <trkpt lat="36.911368975415826" lon="-3.431519977748394">
        <ele>604.33000000000004</ele>
        <time>2025-05-12T07:35:59Z</time>
      </trkpt>
      <trkpt lat="36.911404011771083" lon="-3.431709995493293">
        <ele>605.28999999999996</ele>
        <time>2025-05-12T07:36:00Z</time>
      </trkpt>
      <trkpt lat="36.911438964307308" lon="-3.431900013238192">
        <ele>606.25</ele>
        <time>2025-05-12T07:36:01Z</time>
      </trkpt>
      <trkpt lat="36.911463020369411" lon="-3.432085001841188">
        <ele>607.69000000000005</ele>
        <time>2025-05-12T07:36:02Z</time>
      </trkpt>
      <trkpt lat="36.911447010934353" lon="-3.432239983230829">
        <ele>609.13</ele>
        <time>2025-05-12T07:36:03Z</time>
      </trkpt>
      <trkpt lat="36.91139898262918" lon="-3.432389013469219">
        <ele>610.57000000000005</ele>
        <time>2025-05-12T07:36:04Z</time>
      </trkpt>
      <trkpt lat="36.911346009001136" lon="-3.432536032050848">
        <ele>612.01999999999998</ele>
        <time>2025-05-12T07:36:05Z</time>
      </trkpt>
      <trkpt lat="36.911294041201472" lon="-3.432678021490574">
        <ele>612.98000000000002</ele>
        <time>2025-05-12T07:36:06Z</time>
      </trkpt>
      <trkpt lat="36.911295969039202" lon="-3.432811964303255">
        <ele>613.46000000000004</ele>
        <time>2025-05-12T07:36:07Z</time>
      </trkpt>
      <trkpt lat="36.911343997344375" lon="-3.432919001206756">
        <ele>614.41999999999996</ele>
        <time>2025-05-12T07:36:08Z</time>
      </trkpt>
      <trkpt lat="36.911422032862902" lon="-3.432996030896902">
        <ele>615.38</ele>
        <time>2025-05-12T07:36:09Z</time>
      </trkpt>
      <trkpt lat="36.91152798011899" lon="-3.433023020625114">
        <ele>615.86000000000001</ele>
        <time>2025-05-12T07:36:10Z</time>
      </trkpt>
      <trkpt lat="36.911624958738685" lon="-3.432983960956335">
        <ele>616.34000000000003</ele>
        <time>2025-05-12T07:36:11Z</time>
      </trkpt>
      <trkpt lat="36.911702994257212" lon="-3.43290600925684">
        <ele>617.29999999999995</ele>
        <time>2025-05-12T07:36:12Z</time>
      </trkpt>
      <trkpt lat="36.911731995642185" lon="-3.432787992060185">
        <ele>618.25999999999999</ele>
        <time>2025-05-12T07:36:14Z</time>
      </trkpt>
      <trkpt lat="36.911770971491933" lon="-3.432335034012795">
        <ele>618.75</ele>
        <time>2025-05-12T07:36:16Z</time>
      </trkpt>
      <trkpt lat="36.912045981734991" lon="-3.430996024981141">
        <ele>627.39999999999998</ele>
        <time>2025-05-12T07:36:24Z</time>
      </trkpt>
      <trkpt lat="36.912110019475222" lon="-3.430845988914371">
        <ele>628.84000000000003</ele>
        <time>2025-05-12T07:36:25Z</time>
      </trkpt>
      <trkpt lat="36.912432974204421" lon="-3.430262021720409">
        <ele>633.64999999999998</ele>
        <time>2025-05-12T07:36:30Z</time>
      </trkpt>
      <trkpt lat="36.912454012781382" lon="-3.430137969553471">
        <ele>634.61000000000001</ele>
        <time>2025-05-12T07:36:31Z</time>
      </trkpt>
      <trkpt lat="36.912459963932633" lon="-3.430009977892041">
        <ele>635.57000000000005</ele>
        <time>2025-05-12T07:36:32Z</time>
      </trkpt>
      <trkpt lat="36.912465998902917" lon="-3.42987603507936">
        <ele>636.04999999999995</ele>
        <time>2025-05-12T07:36:33Z</time>
      </trkpt>
      <trkpt lat="36.9124720338732" lon="-3.429747959598899">
        <ele>637.00999999999999</ele>
        <time>2025-05-12T07:36:34Z</time>
      </trkpt>
      <trkpt lat="36.912501035258174" lon="-3.429634971544147">
        <ele>637.97000000000003</ele>
        <time>2025-05-12T07:36:35Z</time>
      </trkpt>
      <trkpt lat="36.912582004442811" lon="-3.429557019844651">
        <ele>638.92999999999995</ele>
        <time>2025-05-12T07:36:36Z</time>
      </trkpt>
      <trkpt lat="36.912685018032789" lon="-3.429485019296408">
        <ele>639.88999999999999</ele>
        <time>2025-05-12T07:36:37Z</time>
      </trkpt>
      <trkpt lat="36.912792976945639" lon="-3.429410001263022">
        <ele>640.86000000000001</ele>
        <time>2025-05-12T07:36:38Z</time>
      </trkpt>
      <trkpt lat="36.91303102299571" lon="-3.429236998781562">
        <ele>643.25999999999999</ele>
        <time>2025-05-12T07:36:40Z</time>
      </trkpt>
      <trkpt lat="36.913146022707224" lon="-3.429115964099765">
        <ele>644.22000000000003</ele>
        <time>2025-05-12T07:36:41Z</time>
      </trkpt>
      <trkpt lat="36.913376022130251" lon="-3.428871966898441">
        <ele>647.10000000000002</ele>
        <time>2025-05-12T07:36:43Z</time>
      </trkpt>
      <trkpt lat="36.913524968549609" lon="-3.428825028240681">
        <ele>648.07000000000005</ele>
        <time>2025-05-12T07:36:44Z</time>
      </trkpt>
      <trkpt lat="36.913667041808367" lon="-3.42878102324903">
        <ele>649.50999999999999</ele>
        <time>2025-05-12T07:36:45Z</time>
      </trkpt>
      <trkpt lat="36.913822023198009" lon="-3.428755961358547">
        <ele>650.95000000000005</ele>
        <time>2025-05-12T07:36:46Z</time>
      </trkpt>
      <trkpt lat="36.913984967395663" lon="-3.428741963580251">
        <ele>651.90999999999997</ele>
        <time>2025-05-12T07:36:47Z</time>
      </trkpt>
      <trkpt lat="36.914530964568257" lon="-3.42867499217391">
        <ele>656.24000000000001</ele>
        <time>2025-05-12T07:36:51Z</time>
      </trkpt>
      <trkpt lat="36.914629032835364" lon="-3.428634004667401">
        <ele>657.20000000000005</ele>
        <time>2025-05-12T07:36:52Z</time>
      </trkpt>
      <trkpt lat="36.914713019505143" lon="-3.428598968312144">
        <ele>657.67999999999995</ele>
        <time>2025-05-12T07:36:53Z</time>
      </trkpt>
      <trkpt lat="36.914759958162904" lon="-3.428514981642366">
        <ele>658.63999999999999</ele>
        <time>2025-05-12T07:36:54Z</time>
      </trkpt>
      <trkpt lat="36.914800023660064" lon="-3.428420014679432">
        <ele>659.12</ele>
        <time>2025-05-12T07:36:55Z</time>
      </trkpt>
      <trkpt lat="36.914834976196289" lon="-3.428335022181273">
        <ele>659.60000000000002</ele>
        <time>2025-05-12T07:36:56Z</time>
      </trkpt>
      <trkpt lat="36.914893984794617" lon="-3.42824500054121">
        <ele>660.08000000000004</ele>
        <time>2025-05-12T07:36:57Z</time>
      </trkpt>
      <trkpt lat="36.914950981736183" lon="-3.428156990557909">
        <ele>660.55999999999995</ele>
        <time>2025-05-12T07:36:58Z</time>
      </trkpt>
      <trkpt lat="36.915009990334511" lon="-3.428065041080117">
        <ele>661.51999999999998</ele>
        <time>2025-05-12T07:36:59Z</time>
      </trkpt>
      <trkpt lat="36.915474012494087" lon="-3.427676958963275">
        <ele>665.85000000000002</ele>
        <time>2025-05-12T07:37:04Z</time>
      </trkpt>
      <trkpt lat="36.915575014427304" lon="-3.427632031962276">
        <ele>666.80999999999995</ele>
        <time>2025-05-12T07:37:05Z</time>
      </trkpt>
      <trkpt lat="36.915686996653676" lon="-3.427638988941908">
        <ele>667.28999999999996</ele>
        <time>2025-05-12T07:37:06Z</time>
      </trkpt>
      <trkpt lat="36.916462993249297" lon="-3.427671007812023">
        <ele>673.53999999999996</ele>
        <time>2025-05-12T07:37:12Z</time>
      </trkpt>
      <trkpt lat="36.916587967425585" lon="-3.427630020305514">
        <ele>674.5</ele>
        <time>2025-05-12T07:37:13Z</time>
      </trkpt>
      <trkpt lat="36.916697015985847" lon="-3.427548967301846">
        <ele>675.46000000000004</ele>
        <time>2025-05-12T07:37:14Z</time>
      </trkpt>
      <trkpt lat="36.916777985170484" lon="-3.427422987297177">
        <ele>676.41999999999996</ele>
        <time>2025-05-12T07:37:15Z</time>
      </trkpt>
      <trkpt lat="36.916864989325404" lon="-3.427289966493845">
        <ele>677.38999999999999</ele>
        <time>2025-05-12T07:37:16Z</time>
      </trkpt>
      <trkpt lat="36.916954005137086" lon="-3.427153006196022">
        <ele>678.35000000000002</ele>
        <time>2025-05-12T07:37:17Z</time>
      </trkpt>
      <trkpt lat="36.91713597625494" lon="-3.426872966811061">
        <ele>680.26999999999998</ele>
        <time>2025-05-12T07:37:19Z</time>
      </trkpt>
      <trkpt lat="36.917228009551764" lon="-3.426731983199716">
        <ele>680.75</ele>
        <time>2025-05-12T07:37:20Z</time>
      </trkpt>
      <trkpt lat="36.917292969301343" lon="-3.426563004031777">
        <ele>681.71000000000004</ele>
        <time>2025-05-12T07:37:21Z</time>
      </trkpt>
      <trkpt lat="36.917338985949755" lon="-3.426392013207078">
        <ele>682.66999999999996</ele>
        <time>2025-05-12T07:37:22Z</time>
      </trkpt>
      <trkpt lat="36.917386008426547" lon="-3.426218004897237">
        <ele>683.63</ele>
        <time>2025-05-12T07:37:23Z</time>
      </trkpt>
      <trkpt lat="36.917820023372769" lon="-3.425217038020492">
        <ele>687.48000000000002</ele>
        <time>2025-05-12T07:37:29Z</time>
      </trkpt>
      <trkpt lat="36.917937034741044" lon="-3.425075970590115">
        <ele>687.96000000000004</ele>
        <time>2025-05-12T07:37:30Z</time>
      </trkpt>
      <trkpt lat="36.918821996077895" lon="-3.424027981236577">
        <ele>693.25</ele>
        <time>2025-05-12T07:37:37Z</time>
      </trkpt>
      <trkpt lat="36.919385008513927" lon="-3.423361033201218">
        <ele>696.61000000000001</ele>
        <time>2025-05-12T07:37:42Z</time>
      </trkpt>
      <trkpt lat="36.919464971870184" lon="-3.423264976590872">
        <ele>697.09000000000003</ele>
        <time>2025-05-12T07:37:43Z</time>
      </trkpt>
      <trkpt lat="36.919508976861835" lon="-3.423161040991545">
        <ele>698.04999999999995</ele>
        <time>2025-05-12T07:37:44Z</time>
      </trkpt>
      <trkpt lat="36.919500008225441" lon="-3.423058027401567">
        <ele>698.52999999999997</ele>
        <time>2025-05-12T07:37:45Z</time>
      </trkpt>
      <trkpt lat="36.919471006840467" lon="-3.422946967184544">
        <ele>699.01999999999998</ele>
        <time>2025-05-12T07:37:46Z</time>
      </trkpt>
      <trkpt lat="36.919390959665179" lon="-3.422855017706752">
        <ele>699.5</ele>
        <time>2025-05-12T07:37:47Z</time>
      </trkpt>
      <trkpt lat="36.919302027672529" lon="-3.422750998288393">
        <ele>700.46000000000004</ele>
        <time>2025-05-12T07:37:48Z</time>
      </trkpt>
      <trkpt lat="36.919203959405422" lon="-3.422638010233641">
        <ele>701.41999999999996</ele>
        <time>2025-05-12T07:37:49Z</time>
      </trkpt>
      <trkpt lat="36.919027017429471" lon="-3.422384960576892">
        <ele>703.34000000000003</ele>
        <time>2025-05-12T07:37:51Z</time>
      </trkpt>
      <trkpt lat="36.918973037973046" lon="-3.422248000279069">
        <ele>704.29999999999995</ele>
        <time>2025-05-12T07:37:52Z</time>
      </trkpt>
      <trkpt lat="36.918953005224466" lon="-3.422068962827325">
        <ele>705.25999999999999</ele>
        <time>2025-05-12T07:37:53Z</time>
      </trkpt>
      <trkpt lat="36.918892990797758" lon="-3.42113102786243">
        <ele>710.07000000000005</ele>
        <time>2025-05-12T07:37:58Z</time>
      </trkpt>
      <trkpt lat="36.918913023546338" lon="-3.420995995402336">
        <ele>711.02999999999997</ele>
        <time>2025-05-12T07:37:59Z</time>
      </trkpt>
      <trkpt lat="36.919003967195749" lon="-3.420892981812358">
        <ele>711.50999999999999</ele>
        <time>2025-05-12T07:38:00Z</time>
      </trkpt>
      <trkpt lat="36.919107986614108" lon="-3.420775970444083">
        <ele>711.99000000000001</ele>
        <time>2025-05-12T07:38:01Z</time>
      </trkpt>
      <trkpt lat="36.91921996884048" lon="-3.420648984611034">
        <ele>712.95000000000005</ele>
        <time>2025-05-12T07:38:02Z</time>
      </trkpt>
      <trkpt lat="36.919334968551993" lon="-3.420517975464463">
        <ele>713.44000000000005</ele>
        <time>2025-05-12T07:38:03Z</time>
      </trkpt>
      <trkpt lat="36.919424990192056" lon="-3.420371962711215">
        <ele>713.91999999999996</ele>
        <time>2025-05-12T07:38:04Z</time>
      </trkpt>
      <trkpt lat="36.919474024325609" lon="-3.420199966058135">
        <ele>714.39999999999998</ele>
        <time>2025-05-12T07:38:05Z</time>
      </trkpt>
      <trkpt lat="36.91952196881175" lon="-3.420030986890197">
        <ele>714.88</ele>
        <time>2025-05-12T07:38:06Z</time>
      </trkpt>
      <trkpt lat="36.919568991288543" lon="-3.41986795887351">
        <ele>715.36000000000001</ele>
        <time>2025-05-12T07:38:07Z</time>
      </trkpt>
      <trkpt lat="36.919640991836786" lon="-3.419748013839126">
        <ele>715.84000000000003</ele>
        <time>2025-05-12T07:38:08Z</time>
      </trkpt>
      <trkpt lat="36.919709974899888" lon="-3.41964902356267">
        <ele>716.32000000000005</ele>
        <time>2025-05-12T07:38:09Z</time>
      </trkpt>
      <trkpt lat="36.919789016246796" lon="-3.419614993035793">
        <ele>716.32000000000005</ele>
        <time>2025-05-12T07:38:10Z</time>
      </trkpt>
      <trkpt lat="36.919888006523252" lon="-3.419605018571019">
        <ele>716.79999999999995</ele>
        <time>2025-05-12T07:38:11Z</time>
      </trkpt>
      <trkpt lat="36.920009041205049" lon="-3.419646006077528">
        <ele>716.79999999999995</ele>
        <time>2025-05-12T07:38:12Z</time>
      </trkpt>
      <trkpt lat="36.92014398984611" lon="-3.419705014675856">
        <ele>717.27999999999997</ele>
        <time>2025-05-12T07:38:13Z</time>
      </trkpt>
      <trkpt lat="36.920286985114217" lon="-3.41978196054697">
        <ele>717.75999999999999</ele>
        <time>2025-05-12T07:38:14Z</time>
      </trkpt>
      <trkpt lat="36.921467995271087" lon="-3.42042300850153">
        <ele>722.57000000000005</ele>
        <time>2025-05-12T07:38:22Z</time>
      </trkpt>
      <trkpt lat="36.921585006639361" lon="-3.420478999614716">
        <ele>723.52999999999997</ele>
        <time>2025-05-12T07:38:23Z</time>
      </trkpt>
      <trkpt lat="36.921697994694114" lon="-3.420474976301193">
        <ele>724.49000000000001</ele>
        <time>2025-05-12T07:38:24Z</time>
      </trkpt>
      <trkpt lat="36.921792961657047" lon="-3.420430971309543">
        <ele>724.97000000000003</ele>
        <time>2025-05-12T07:38:25Z</time>
      </trkpt>
      <trkpt lat="36.921888012439013" lon="-3.420387972146273">
        <ele>725.45000000000005</ele>
        <time>2025-05-12T07:38:26Z</time>
      </trkpt>
      <trkpt lat="36.921961018815637" lon="-3.420290993526578">
        <ele>726.40999999999997</ele>
        <time>2025-05-12T07:38:27Z</time>
      </trkpt>
      <trkpt lat="36.922022961080074" lon="-3.420175993815064">
        <ele>726.88999999999999</ele>
        <time>2025-05-12T07:38:28Z</time>
      </trkpt>
      <trkpt lat="36.922066966071725" lon="-3.420065017417073">
        <ele>726.88999999999999</ele>
        <time>2025-05-12T07:38:29Z</time>
      </trkpt>
      <trkpt lat="36.922061014920473" lon="-3.419916993007064">
        <ele>727.37</ele>
        <time>2025-05-12T07:38:30Z</time>
      </trkpt>
      <trkpt lat="36.922031007707119" lon="-3.419752037152648">
        <ele>728.34000000000003</ele>
        <time>2025-05-12T07:38:31Z</time>
      </trkpt>
      <trkpt lat="36.921814000234008" lon="-3.418556023389101">
        <ele>734.58000000000004</ele>
        <time>2025-05-12T07:38:38Z</time>
      </trkpt>
      <trkpt lat="36.921835038810968" lon="-3.418434988707304">
        <ele>734.58000000000004</ele>
        <time>2025-05-12T07:38:39Z</time>
      </trkpt>
      <trkpt lat="36.922151958569884" lon="-3.417263031005859">
        <ele>737.47000000000003</ele>
        <time>2025-05-12T07:38:46Z</time>
      </trkpt>
      <trkpt lat="36.922554038465023" lon="-3.41608202084899">
        <ele>741.78999999999996</ele>
        <time>2025-05-12T07:38:52Z</time>
      </trkpt>
      <trkpt lat="36.922644982114434" lon="-3.415939025580883">
        <ele>742.75999999999999</ele>
        <time>2025-05-12T07:38:53Z</time>
      </trkpt>
      <trkpt lat="36.922765010967851" lon="-3.415835006162524">
        <ele>743.72000000000003</ele>
        <time>2025-05-12T07:38:54Z</time>
      </trkpt>
      <trkpt lat="36.923650978133082" lon="-3.415120029821992">
        <ele>748.03999999999996</ele>
        <time>2025-05-12T07:39:01Z</time>
      </trkpt>
      <trkpt lat="36.923762038350105" lon="-3.41509597375989">
        <ele>748.03999999999996</ele>
        <time>2025-05-12T07:39:02Z</time>
      </trkpt>
      <trkpt lat="36.923892963677645" lon="-3.415111983194947">
        <ele>748.51999999999998</ele>
        <time>2025-05-12T07:39:03Z</time>
      </trkpt>
      <trkpt lat="36.924036964774132" lon="-3.415130004286766">
        <ele>748.51999999999998</ele>
        <time>2025-05-12T07:39:04Z</time>
      </trkpt>
      <trkpt lat="36.92418297752738" lon="-3.415163028985262">
        <ele>748.51999999999998</ele>
        <time>2025-05-12T07:39:05Z</time>
      </trkpt>
      <trkpt lat="36.924335025250912" lon="-3.415211979299784">
        <ele>749</ele>
        <time>2025-05-12T07:39:06Z</time>
      </trkpt>
      <trkpt lat="36.925074979662895" lon="-3.415468968451023">
        <ele>749.97000000000003</ele>
        <time>2025-05-12T07:39:11Z</time>
      </trkpt>
      <trkpt lat="36.925204982981086" lon="-3.415542980656028">
        <ele>750.45000000000005</ele>
        <time>2025-05-12T07:39:12Z</time>
      </trkpt>
      <trkpt lat="36.925534978508949" lon="-3.415693016722798">
        <ele>750.92999999999995</ele>
        <time>2025-05-12T07:39:15Z</time>
      </trkpt>
      <trkpt lat="36.925638997927308" lon="-3.415700979530811">
        <ele>751.40999999999997</ele>
        <time>2025-05-12T07:39:16Z</time>
      </trkpt>
      <trkpt lat="36.925755003467202" lon="-3.415705002844334">
        <ele>751.40999999999997</ele>
        <time>2025-05-12T07:39:17Z</time>
      </trkpt>
      <trkpt lat="36.926192035898566" lon="-3.415687987580895">
        <ele>752.37</ele>
        <time>2025-05-12T07:39:21Z</time>
      </trkpt>
      <trkpt lat="36.926282979547977" lon="-3.415656974539161">
        <ele>752.85000000000002</ele>
        <time>2025-05-12T07:39:22Z</time>
      </trkpt>
      <trkpt lat="36.926356991752982" lon="-3.415591008961201">
        <ele>753.33000000000004</ele>
        <time>2025-05-12T07:39:23Z</time>
      </trkpt>
      <trkpt lat="36.926435027271509" lon="-3.415511967614293">
        <ele>753.33000000000004</ele>
        <time>2025-05-12T07:39:24Z</time>
      </trkpt>
      <trkpt lat="36.926512978971004" lon="-3.415435021743178">
        <ele>753.80999999999995</ele>
        <time>2025-05-12T07:39:25Z</time>
      </trkpt>
      <trkpt lat="36.926571987569332" lon="-3.415341982617974">
        <ele>753.80999999999995</ele>
        <time>2025-05-12T07:39:26Z</time>
      </trkpt>
      <trkpt lat="36.926615992560983" lon="-3.415231006219983">
        <ele>754.28999999999996</ele>
        <time>2025-05-12T07:39:27Z</time>
      </trkpt>
      <trkpt lat="36.926662009209394" lon="-3.415112989023328">
        <ele>754.76999999999998</ele>
        <time>2025-05-12T07:39:28Z</time>
      </trkpt>
      <trkpt lat="36.926702996715903" lon="-3.414990026503801">
        <ele>755.25</ele>
        <time>2025-05-12T07:39:29Z</time>
      </trkpt>
      <trkpt lat="36.926709031686187" lon="-3.414848959073424">
        <ele>755.25</ele>
        <time>2025-05-12T07:39:30Z</time>
      </trkpt>
      <trkpt lat="36.9267169944942" lon="-3.414702024310827">
        <ele>755.73000000000002</ele>
        <time>2025-05-12T07:39:31Z</time>
      </trkpt>
      <trkpt lat="36.9267169944942" lon="-3.414546959102154">
        <ele>756.21000000000004</ele>
        <time>2025-05-12T07:39:32Z</time>
      </trkpt>
      <trkpt lat="36.926687993109226" lon="-3.414387032389641">
        <ele>756.69000000000005</ele>
        <time>2025-05-12T07:39:33Z</time>
      </trkpt>
      <trkpt lat="36.926615992560983" lon="-3.414250994101167">
        <ele>757.17999999999995</ele>
        <time>2025-05-12T07:39:34Z</time>
      </trkpt>
      <trkpt lat="36.926536029204726" lon="-3.414134988561273">
        <ele>757.65999999999997</ele>
        <time>2025-05-12T07:39:35Z</time>
      </trkpt>
      <trkpt lat="36.926463022828102" lon="-3.414027029648423">
        <ele>758.62</ele>
        <time>2025-05-12T07:39:36Z</time>
      </trkpt>
      <trkpt lat="36.926400996744633" lon="-3.413922004401684">
        <ele>759.10000000000002</ele>
        <time>2025-05-12T07:39:37Z</time>
      </trkpt>
      <trkpt lat="36.926400996744633" lon="-3.413819996640086">
        <ele>759.58000000000004</ele>
        <time>2025-05-12T07:39:38Z</time>
      </trkpt>
      <trkpt lat="36.926421029493213" lon="-3.413716983050108">
        <ele>760.05999999999995</ele>
        <time>2025-05-12T07:39:39Z</time>
      </trkpt>
      <trkpt lat="36.926451036706567" lon="-3.413606006652117">
        <ele>760.53999999999996</ele>
        <time>2025-05-12T07:39:40Z</time>
      </trkpt>
      <trkpt lat="36.92647903226316" lon="-3.413482960313559">
        <ele>761.01999999999998</ele>
        <time>2025-05-12T07:39:41Z</time>
      </trkpt>
      <trkpt lat="36.926507027819753" lon="-3.413365026935935">
        <ele>761.01999999999998</ele>
        <time>2025-05-12T07:39:42Z</time>
      </trkpt>
      <trkpt lat="36.926463022828102" lon="-3.413266036659479">
        <ele>761.5</ele>
        <time>2025-05-12T07:39:43Z</time>
      </trkpt>
      <trkpt lat="36.92639596760273" lon="-3.41320501640439">
        <ele>761.98000000000002</ele>
        <time>2025-05-12T07:39:44Z</time>
      </trkpt>
      <trkpt lat="36.926297983154655" lon="-3.413155982270837">
        <ele>762.94000000000005</ele>
        <time>2025-05-12T07:39:45Z</time>
      </trkpt>
      <trkpt lat="36.926192035898566" lon="-3.413103008642793">
        <ele>763.41999999999996</ele>
        <time>2025-05-12T07:39:46Z</time>
      </trkpt>
      <trkpt lat="36.926083993166685" lon="-3.413049029186368">
        <ele>763.89999999999998</ele>
        <time>2025-05-12T07:39:47Z</time>
      </trkpt>
      <trkpt lat="36.925990032032132" lon="-3.412987003102899">
        <ele>764.38999999999999</ele>
        <time>2025-05-12T07:39:48Z</time>
      </trkpt>
      <trkpt lat="36.925907973200083" lon="-3.412895975634456">
        <ele>764.87</ele>
        <time>2025-05-12T07:39:49Z</time>
      </trkpt>
      <trkpt lat="36.925829015672207" lon="-3.412807965651155">
        <ele>765.35000000000002</ele>
        <time>2025-05-12T07:39:50Z</time>
      </trkpt>
      <trkpt lat="36.925804959610105" lon="-3.412686008960009">
        <ele>766.30999999999995</ele>
        <time>2025-05-12T07:39:51Z</time>
      </trkpt>
      <trkpt lat="36.925804037600756" lon="-3.412558017298579">
        <ele>766.78999999999996</ele>
        <time>2025-05-12T07:39:52Z</time>
      </trkpt>
      <trkpt lat="36.925809988752007" lon="-3.412416027858853">
        <ele>767.75</ele>
        <time>2025-05-12T07:39:53Z</time>
      </trkpt>
      <trkpt lat="36.925816023722291" lon="-3.412268003448844">
        <ele>768.23000000000002</ele>
        <time>2025-05-12T07:39:54Z</time>
      </trkpt>
      <trkpt lat="36.925925994291902" lon="-3.411313975229859">
        <ele>774.48000000000002</ele>
        <time>2025-05-12T07:40:01Z</time>
      </trkpt>
      <trkpt lat="36.925915013998747" lon="-3.411152958869934">
        <ele>776.39999999999998</ele>
        <time>2025-05-12T07:40:03Z</time>
      </trkpt>
      <trkpt lat="36.925908979028463" lon="-3.411068972200155">
        <ele>777.84000000000003</ele>
        <time>2025-05-12T07:40:04Z</time>
      </trkpt>
      <trkpt lat="36.925851982086897" lon="-3.410984985530376">
        <ele>778.80999999999995</ele>
        <time>2025-05-12T07:40:05Z</time>
      </trkpt>
      <trkpt lat="36.925778975710273" lon="-3.410911979153752">
        <ele>779.76999999999998</ele>
        <time>2025-05-12T07:40:06Z</time>
      </trkpt>
      <trkpt lat="36.925717033445835" lon="-3.410911979153752">
        <ele>781.21000000000004</ele>
        <time>2025-05-12T07:40:07Z</time>
      </trkpt>
      <trkpt lat="36.925606979057193" lon="-3.410911979153752">
        <ele>782.16999999999996</ele>
        <time>2025-05-12T07:40:08Z</time>
      </trkpt>
      <trkpt lat="36.92555601708591" lon="-3.410941986367106">
        <ele>783.13</ele>
        <time>2025-05-12T07:40:09Z</time>
      </trkpt>
      <trkpt lat="36.925489967688918" lon="-3.410981968045235">
        <ele>784.57000000000005</ele>
        <time>2025-05-12T07:40:10Z</time>
      </trkpt>
      <trkpt lat="36.925332974642515" lon="-3.411076012998819">
        <ele>787.46000000000004</ele>
        <time>2025-05-12T07:40:13Z</time>
      </trkpt>
      <trkpt lat="36.925291987136006" lon="-3.411100991070271">
        <ele>788.89999999999998</ele>
        <time>2025-05-12T07:40:14Z</time>
      </trkpt>
      <trkpt lat="36.925270026549697" lon="-3.41109998524189">
        <ele>789.86000000000001</ele>
        <time>2025-05-12T07:40:15Z</time>
      </trkpt>
      <trkpt lat="36.925211017951369" lon="-3.411082969978452">
        <ele>790.82000000000005</ele>
        <time>2025-05-12T07:40:16Z</time>
      </trkpt>
      <trkpt lat="36.925144968554378" lon="-3.411063021048904">
        <ele>791.77999999999997</ele>
        <time>2025-05-12T07:40:17Z</time>
      </trkpt>
      <trkpt lat="36.925071040168405" lon="-3.411039970815182">
        <ele>792.25999999999999</ele>
        <time>2025-05-12T07:40:18Z</time>
      </trkpt>
      <trkpt lat="36.925023011863232" lon="-3.410957995802164">
        <ele>793.22000000000003</ele>
        <time>2025-05-12T07:40:19Z</time>
      </trkpt>
      <trkpt lat="36.924962997436523" lon="-3.410851964727044">
        <ele>793.71000000000004</ele>
        <time>2025-05-12T07:40:20Z</time>
      </trkpt>
      <trkpt lat="36.924895020201802" lon="-3.410731013864279">
        <ele>794.19000000000005</ele>
        <time>2025-05-12T07:40:21Z</time>
      </trkpt>
      <trkpt lat="36.92482503131032" lon="-3.410591036081314">
        <ele>794.66999999999996</ele>
        <time>2025-05-12T07:40:22Z</time>
      </trkpt>
      <trkpt lat="36.924750013276935" lon="-3.410443011671305">
        <ele>795.14999999999998</ele>
        <time>2025-05-12T07:40:23Z</time>
      </trkpt>
      <trkpt lat="36.924297977238894" lon="-3.409513961523771">
        <ele>800.44000000000005</ele>
        <time>2025-05-12T07:40:30Z</time>
      </trkpt>
      <trkpt lat="36.924253972247243" lon="-3.409413965418935">
        <ele>800.91999999999996</ele>
        <time>2025-05-12T07:40:31Z</time>
      </trkpt>
      <trkpt lat="36.924227988347411" lon="-3.409314975142479">
        <ele>801.39999999999998</ele>
        <time>2025-05-12T07:40:32Z</time>
      </trkpt>
      <trkpt lat="36.924214996397495" lon="-3.40920701622963">
        <ele>801.88</ele>
        <time>2025-05-12T07:40:33Z</time>
      </trkpt>
      <trkpt lat="36.92420301027596" lon="-3.40910199098289">
        <ele>802.36000000000001</ele>
        <time>2025-05-12T07:40:34Z</time>
      </trkpt>
      <trkpt lat="36.924191024154425" lon="-3.409001994878054">
        <ele>802.84000000000003</ele>
        <time>2025-05-12T07:40:35Z</time>
      </trkpt>
      <trkpt lat="36.92420301027596" lon="-3.408895963802934">
        <ele>803.32000000000005</ele>
        <time>2025-05-12T07:40:36Z</time>
      </trkpt>
      <trkpt lat="36.924219019711018" lon="-3.408791022375226">
        <ele>803.79999999999995</ele>
        <time>2025-05-12T07:40:37Z</time>
      </trkpt>
      <trkpt lat="36.924257995560765" lon="-3.40869102627039">
        <ele>804.27999999999997</ele>
        <time>2025-05-12T07:40:38Z</time>
      </trkpt>
      <trkpt lat="36.924456981942058" lon="-3.408167995512486">
        <ele>806.20000000000005</ele>
        <time>2025-05-12T07:40:43Z</time>
      </trkpt>
      <trkpt lat="36.924501992762089" lon="-3.408063976094127">
        <ele>807.15999999999997</ele>
        <time>2025-05-12T07:40:44Z</time>
      </trkpt>
      <trkpt lat="36.9245670363307" lon="-3.407978983595967">
        <ele>807.63999999999999</ele>
        <time>2025-05-12T07:40:45Z</time>
      </trkpt>
      <trkpt lat="36.924640964716673" lon="-3.407899020239711">
        <ele>808.13</ele>
        <time>2025-05-12T07:40:46Z</time>
      </trkpt>
      <trkpt lat="36.924716988578439" lon="-3.407816961407661">
        <ele>809.09000000000003</ele>
        <time>2025-05-12T07:40:47Z</time>
      </trkpt>
      <trkpt lat="36.924792006611824" lon="-3.407735992223024">
        <ele>809.57000000000005</ele>
        <time>2025-05-12T07:40:48Z</time>
      </trkpt>
      <trkpt lat="36.924844980239868" lon="-3.407611018046737">
        <ele>810.04999999999995</ele>
        <time>2025-05-12T07:40:49Z</time>
      </trkpt>
      <trkpt lat="36.924897031858563" lon="-3.40749098919332">
        <ele>811.00999999999999</ele>
        <time>2025-05-12T07:40:50Z</time>
      </trkpt>
      <trkpt lat="36.924941958859563" lon="-3.407370038330555">
        <ele>811.49000000000001</ele>
        <time>2025-05-12T07:40:51Z</time>
      </trkpt>
      <trkpt lat="36.924985041841865" lon="-3.407241040840745">
        <ele>812.45000000000005</ele>
        <time>2025-05-12T07:40:52Z</time>
      </trkpt>
      <trkpt lat="36.924989987164736" lon="-3.407101985067129">
        <ele>813.40999999999997</ele>
        <time>2025-05-12T07:40:53Z</time>
      </trkpt>
      <trkpt lat="36.924996022135019" lon="-3.406967036426067">
        <ele>813.88999999999999</ele>
        <time>2025-05-12T07:40:54Z</time>
      </trkpt>
      <trkpt lat="36.925000967457891" lon="-3.406828986480832">
        <ele>815.34000000000003</ele>
        <time>2025-05-12T07:40:55Z</time>
      </trkpt>
      <trkpt lat="36.925005996599793" lon="-3.406706023961306">
        <ele>816.29999999999995</ele>
        <time>2025-05-12T07:40:56Z</time>
      </trkpt>
      <trkpt lat="36.925080008804798" lon="-3.40658700093627">
        <ele>817.25999999999999</ele>
        <time>2025-05-12T07:40:57Z</time>
      </trkpt>
      <trkpt lat="36.925143040716648" lon="-3.406485999003053">
        <ele>818.70000000000005</ele>
        <time>2025-05-12T07:40:58Z</time>
      </trkpt>
      <trkpt lat="36.925202971324325" lon="-3.406388014554977">
        <ele>819.65999999999997</ele>
        <time>2025-05-12T07:40:59Z</time>
      </trkpt>
      <trkpt lat="36.925262985751033" lon="-3.406291035935283">
        <ele>820.13999999999999</ele>
        <time>2025-05-12T07:41:00Z</time>
      </trkpt>
      <trkpt lat="36.925315037369728" lon="-3.406197996810079">
        <ele>821.10000000000002</ele>
        <time>2025-05-12T07:41:01Z</time>
      </trkpt>
      <trkpt lat="36.92536499351263" lon="-3.406102024018765">
        <ele>821.58000000000004</ele>
        <time>2025-05-12T07:41:02Z</time>
      </trkpt>
      <trkpt lat="36.925415033474565" lon="-3.406006973236799">
        <ele>822.54999999999995</ele>
        <time>2025-05-12T07:41:03Z</time>
      </trkpt>
      <trkpt lat="36.925465995445848" lon="-3.405909994617105">
        <ele>823.02999999999997</ele>
        <time>2025-05-12T07:41:04Z</time>
      </trkpt>
      <trkpt lat="36.925517963245511" lon="-3.405812010169029">
        <ele>823.99000000000001</ele>
        <time>2025-05-12T07:41:05Z</time>
      </trkpt>
      <trkpt lat="36.925520980730653" lon="-3.405716037377715">
        <ele>824.95000000000005</ele>
        <time>2025-05-12T07:41:06Z</time>
      </trkpt>
      <trkpt lat="36.925520980730653" lon="-3.405589973554015">
        <ele>825.42999999999995</ele>
        <time>2025-05-12T07:41:07Z</time>
      </trkpt>
      <trkpt lat="36.925520980730653" lon="-3.405453013256192">
        <ele>826.38999999999999</ele>
        <time>2025-05-12T07:41:08Z</time>
      </trkpt>
      <trkpt lat="36.925532966852188" lon="-3.404871979728341">
        <ele>828.30999999999995</ele>
        <time>2025-05-12T07:41:12Z</time>
      </trkpt>
      <trkpt lat="36.925543025135994" lon="-3.404710041359067">
        <ele>828.30999999999995</ele>
        <time>2025-05-12T07:41:13Z</time>
      </trkpt>
      <trkpt lat="36.925602033734322" lon="-3.404600992798805">
        <ele>829.26999999999998</ele>
        <time>2025-05-12T07:41:14Z</time>
      </trkpt>
      <trkpt lat="36.925672022625804" lon="-3.404474006965756">
        <ele>830.24000000000001</ele>
        <time>2025-05-12T07:41:15Z</time>
      </trkpt>
      <trkpt lat="36.925755003467202" lon="-3.404355989769101">
        <ele>831.67999999999995</ele>
        <time>2025-05-12T07:41:16Z</time>
      </trkpt>
      <trkpt lat="36.925821974873543" lon="-3.404260016977787">
        <ele>832.63999999999999</ele>
        <time>2025-05-12T07:41:17Z</time>
      </trkpt>
      <trkpt lat="36.925821974873543" lon="-3.404109980911017">
        <ele>834.08000000000004</ele>
        <time>2025-05-12T07:41:18Z</time>
      </trkpt>
      <trkpt lat="36.925821974873543" lon="-3.403972014784813">
        <ele>835.03999999999996</ele>
        <time>2025-05-12T07:41:19Z</time>
      </trkpt>
      <trkpt lat="36.925792973488569" lon="-3.403827007859945">
        <ele>836.48000000000002</ele>
        <time>2025-05-12T07:41:20Z</time>
      </trkpt>
      <trkpt lat="36.925744023174047" lon="-3.403673032298684">
        <ele>837.45000000000005</ele>
        <time>2025-05-12T07:41:21Z</time>
      </trkpt>
      <trkpt lat="36.925695994868875" lon="-3.403520984575152">
        <ele>838.88999999999999</ele>
        <time>2025-05-12T07:41:22Z</time>
      </trkpt>
      <trkpt lat="36.925586024299264" lon="-3.403272964060307">
        <ele>841.28999999999996</ele>
        <time>2025-05-12T07:41:24Z</time>
      </trkpt>
      <trkpt lat="36.925473036244512" lon="-3.403159976005554">
        <ele>842.73000000000002</ele>
        <time>2025-05-12T07:41:25Z</time>
      </trkpt>
      <trkpt lat="36.925373040139675" lon="-3.403059979900718">
        <ele>843.69000000000005</ele>
        <time>2025-05-12T07:41:26Z</time>
      </trkpt>
      <trkpt lat="36.92527899518609" lon="-3.402967024594545">
        <ele>845.13999999999999</ele>
        <time>2025-05-12T07:41:27Z</time>
      </trkpt>
      <trkpt lat="36.92521302960813" lon="-3.40286904014647">
        <ele>846.10000000000002</ele>
        <time>2025-05-12T07:41:28Z</time>
      </trkpt>
      <trkpt lat="36.925157038494945" lon="-3.402779018506408">
        <ele>847.05999999999995</ele>
        <time>2025-05-12T07:41:29Z</time>
      </trkpt>
      <trkpt lat="36.925154021009803" lon="-3.40265597216785">
        <ele>848.01999999999998</ele>
        <time>2025-05-12T07:41:30Z</time>
      </trkpt>
      <trkpt lat="36.925151003524661" lon="-3.402512976899743">
        <ele>848.98000000000002</ele>
        <time>2025-05-12T07:41:31Z</time>
      </trkpt>
      <trkpt lat="36.925147986039519" lon="-3.402353972196579">
        <ele>849.46000000000004</ele>
        <time>2025-05-12T07:41:32Z</time>
      </trkpt>
      <trkpt lat="36.925134994089603" lon="-3.401170028373599">
        <ele>854.26999999999998</ele>
        <time>2025-05-12T07:41:39Z</time>
      </trkpt>
      <trkpt lat="36.925079002976418" lon="-3.400997025892139">
        <ele>855.23000000000002</ele>
        <time>2025-05-12T07:41:40Z</time>
      </trkpt>
      <trkpt lat="36.92497699521482" lon="-3.400675999000669">
        <ele>856.66999999999996</ele>
        <time>2025-05-12T07:41:42Z</time>
      </trkpt>
      <trkpt lat="36.924929972738028" lon="-3.400496961548924">
        <ele>857.14999999999998</ele>
        <time>2025-05-12T07:41:43Z</time>
      </trkpt>
      <trkpt lat="36.924693016335368" lon="-3.399073965847492">
        <ele>864.36000000000001</ele>
        <time>2025-05-12T07:41:50Z</time>
      </trkpt>
      <trkpt lat="36.924663009122014" lon="-3.39889501221478">
        <ele>865.32000000000005</ele>
        <time>2025-05-12T07:41:51Z</time>
      </trkpt>
      <trkpt lat="36.92461003549397" lon="-3.398750005289912">
        <ele>866.28999999999996</ele>
        <time>2025-05-12T07:41:52Z</time>
      </trkpt>
      <trkpt lat="36.924562007188797" lon="-3.398645985871553">
        <ele>867.25</ele>
        <time>2025-05-12T07:41:53Z</time>
      </trkpt>
      <trkpt lat="36.924477014690638" lon="-3.398569040000439">
        <ele>868.21000000000004</ele>
        <time>2025-05-12T07:41:54Z</time>
      </trkpt>
      <trkpt lat="36.924380036070943" lon="-3.398482035845518">
        <ele>868.69000000000005</ele>
        <time>2025-05-12T07:41:55Z</time>
      </trkpt>
      <trkpt lat="36.924274004995823" lon="-3.398385979235172">
        <ele>868.69000000000005</ele>
        <time>2025-05-12T07:41:56Z</time>
      </trkpt>
      <trkpt lat="36.923782993108034" lon="-3.397994041442871">
        <ele>869.64999999999998</ele>
        <time>2025-05-12T07:42:00Z</time>
      </trkpt>
      <trkpt lat="36.923663970082998" lon="-3.397977026179433">
        <ele>870.13</ele>
        <time>2025-05-12T07:42:01Z</time>
      </trkpt>
      <trkpt lat="36.923542013391852" lon="-3.397960010915995">
        <ele>870.61000000000001</ele>
        <time>2025-05-12T07:42:02Z</time>
      </trkpt>
      <trkpt lat="36.923434976488352" lon="-3.397944001480937">
        <ele>871.09000000000003</ele>
        <time>2025-05-12T07:42:03Z</time>
      </trkpt>
      <trkpt lat="36.923332968726754" lon="-3.397930003702641">
        <ele>871.09000000000003</ele>
        <time>2025-05-12T07:42:04Z</time>
      </trkpt>
      <trkpt lat="36.923253005370498" lon="-3.397850040346384">
        <ele>872.04999999999995</ele>
        <time>2025-05-12T07:42:05Z</time>
      </trkpt>
      <trkpt lat="36.923207994550467" lon="-3.397750966250897">
        <ele>872.52999999999997</ele>
        <time>2025-05-12T07:42:06Z</time>
      </trkpt>
      <trkpt lat="36.923186033964157" lon="-3.397634960711002">
        <ele>873.00999999999999</ele>
        <time>2025-05-12T07:42:07Z</time>
      </trkpt>
      <trkpt lat="36.923216041177511" lon="-3.397517027333379">
        <ele>873.98000000000002</ele>
        <time>2025-05-12T07:42:08Z</time>
      </trkpt>
      <trkpt lat="36.923265997320414" lon="-3.397424994036555">
        <ele>874.46000000000004</ele>
        <time>2025-05-12T07:42:09Z</time>
      </trkpt>
      <trkpt lat="36.923331962898374" lon="-3.397381994873285">
        <ele>875.41999999999996</ele>
        <time>2025-05-12T07:42:10Z</time>
      </trkpt>
      <trkpt lat="36.923430031165481" lon="-3.397355005145073">
        <ele>876.38</ele>
        <time>2025-05-12T07:42:11Z</time>
      </trkpt>
      <trkpt lat="36.923536984249949" lon="-3.397331032902002">
        <ele>877.34000000000003</ele>
        <time>2025-05-12T07:42:12Z</time>
      </trkpt>
      <trkpt lat="36.923662964254618" lon="-3.397359028458595">
        <ele>878.29999999999995</ele>
        <time>2025-05-12T07:42:13Z</time>
      </trkpt>
      <trkpt lat="36.923790033906698" lon="-3.397387024015188">
        <ele>878.77999999999997</ele>
        <time>2025-05-12T07:42:14Z</time>
      </trkpt>
      <trkpt lat="36.923911990597844" lon="-3.397415019571781">
        <ele>879.25999999999999</ele>
        <time>2025-05-12T07:42:15Z</time>
      </trkpt>
      <trkpt lat="36.924006035551429" lon="-3.397490037605166">
        <ele>879.74000000000001</ele>
        <time>2025-05-12T07:42:16Z</time>
      </trkpt>
      <trkpt lat="36.924104019999504" lon="-3.397570000961423">
        <ele>880.22000000000003</ele>
        <time>2025-05-12T07:42:17Z</time>
      </trkpt>
      <trkpt lat="36.924277022480965" lon="-3.397709978744388">
        <ele>881.19000000000005</ele>
        <time>2025-05-12T07:42:19Z</time>
      </trkpt>
      <trkpt lat="36.924377018585801" lon="-3.39777703396976">
        <ele>881.66999999999996</ele>
        <time>2025-05-12T07:42:20Z</time>
      </trkpt>
      <trkpt lat="36.924471985548735" lon="-3.397761024534702">
        <ele>882.14999999999998</ele>
        <time>2025-05-12T07:42:21Z</time>
      </trkpt>
      <trkpt lat="36.924555972218513" lon="-3.397677037864924">
        <ele>882.63</ele>
        <time>2025-05-12T07:42:22Z</time>
      </trkpt>
      <trkpt lat="36.924587991088629" lon="-3.397562960162759">
        <ele>883.59000000000003</ele>
        <time>2025-05-12T07:42:23Z</time>
      </trkpt>
      <trkpt lat="36.924586985260248" lon="-3.397445026785135">
        <ele>884.54999999999995</ele>
        <time>2025-05-12T07:42:24Z</time>
      </trkpt>
      <trkpt lat="36.924538034945726" lon="-3.397338995710015">
        <ele>885.50999999999999</ele>
        <time>2025-05-12T07:42:25Z</time>
      </trkpt>
      <trkpt lat="36.924448013305664" lon="-3.397280992940068">
        <ele>886.47000000000003</ele>
        <time>2025-05-12T07:42:26Z</time>
      </trkpt>
      <trkpt lat="36.924350028857589" lon="-3.397217961028218">
        <ele>887.42999999999995</ele>
        <time>2025-05-12T07:42:27Z</time>
      </trkpt>
      <trkpt lat="36.924254978075624" lon="-3.397157024592161">
        <ele>888.39999999999998</ele>
        <time>2025-05-12T07:42:28Z</time>
      </trkpt>
      <trkpt lat="36.924181971698999" lon="-3.397041019052267">
        <ele>889.36000000000001</ele>
        <time>2025-05-12T07:42:29Z</time>
      </trkpt>
      <trkpt lat="36.924142995849252" lon="-3.396934987977147">
        <ele>889.84000000000003</ele>
        <time>2025-05-12T07:42:30Z</time>
      </trkpt>
      <trkpt lat="36.924131009727716" lon="-3.396816970780492">
        <ele>890.79999999999995</ele>
        <time>2025-05-12T07:42:31Z</time>
      </trkpt>
      <trkpt lat="36.924118017777801" lon="-3.396693002432585">
        <ele>891.75999999999999</ele>
        <time>2025-05-12T07:42:32Z</time>
      </trkpt>
      <trkpt lat="36.924105025827885" lon="-3.396559981629252">
        <ele>892.24000000000001</ele>
        <time>2025-05-12T07:42:33Z</time>
      </trkpt>
      <trkpt lat="36.924091028049588" lon="-3.396425032988191">
        <ele>893.20000000000005</ele>
        <time>2025-05-12T07:42:34Z</time>
      </trkpt>
      <trkpt lat="36.924077030271292" lon="-3.396285977214575">
        <ele>893.67999999999995</ele>
        <time>2025-05-12T07:42:35Z</time>
      </trkpt>
      <trkpt lat="36.924062026664615" lon="-3.396147005259991">
        <ele>894.15999999999997</ele>
        <time>2025-05-12T07:42:36Z</time>
      </trkpt>
      <trkpt lat="36.923928000032902" lon="-3.395515009760857">
        <ele>898.97000000000003</ele>
        <time>2025-05-12T07:42:41Z</time>
      </trkpt>
      <trkpt lat="36.923891035839915" lon="-3.395376037806273">
        <ele>899.92999999999995</ele>
        <time>2025-05-12T07:42:42Z</time>
      </trkpt>
      <trkpt lat="36.923855999484658" lon="-3.395287021994591">
        <ele>900.88999999999999</ele>
        <time>2025-05-12T07:42:43Z</time>
      </trkpt>
      <trkpt lat="36.923417039215565" lon="-3.393968967720866">
        <ele>908.58000000000004</ele>
        <time>2025-05-12T07:42:53Z</time>
      </trkpt>
      <trkpt lat="36.923394994810224" lon="-3.393813986331224">
        <ele>909.05999999999995</ele>
        <time>2025-05-12T07:42:54Z</time>
      </trkpt>
      <trkpt lat="36.923377979546785" lon="-3.393660010769963">
        <ele>910.02999999999997</ele>
        <time>2025-05-12T07:42:55Z</time>
      </trkpt>
      <trkpt lat="36.923398012295365" lon="-3.393513998016715">
        <ele>910.50999999999999</ele>
        <time>2025-05-12T07:42:56Z</time>
      </trkpt>
      <trkpt lat="36.923490967601538" lon="-3.393148966133595">
        <ele>912.90999999999997</ele>
        <time>2025-05-12T07:42:59Z</time>
      </trkpt>
      <trkpt lat="36.923534972593188" lon="-3.393019968643785">
        <ele>913.38999999999999</ele>
        <time>2025-05-12T07:43:00Z</time>
      </trkpt>
      <trkpt lat="36.92362398840487" lon="-3.392762979492545">
        <ele>914.35000000000002</ele>
        <time>2025-05-12T07:43:02Z</time>
      </trkpt>
      <trkpt lat="36.92364402115345" lon="-3.392605986446142">
        <ele>914.83000000000004</ele>
        <time>2025-05-12T07:43:03Z</time>
      </trkpt>
      <trkpt lat="36.923647960647941" lon="-3.392447987571359">
        <ele>915.30999999999995</ele>
        <time>2025-05-12T07:43:04Z</time>
      </trkpt>
      <trkpt lat="36.923610996454954" lon="-3.39227900840342">
        <ele>915.78999999999996</ele>
        <time>2025-05-12T07:43:05Z</time>
      </trkpt>
      <trkpt lat="36.923571014776826" lon="-3.392097037285566">
        <ele>916.26999999999998</ele>
        <time>2025-05-12T07:43:06Z</time>
      </trkpt>
      <trkpt lat="36.923528015613556" lon="-3.391899978742003">
        <ele>917.24000000000001</ele>
        <time>2025-05-12T07:43:07Z</time>
      </trkpt>
      <trkpt lat="36.923462972044945" lon="-3.391696969047189">
        <ele>917.72000000000003</ele>
        <time>2025-05-12T07:43:08Z</time>
      </trkpt>
      <trkpt lat="36.923376973718405" lon="-3.391497982665896">
        <ele>918.20000000000005</ele>
        <time>2025-05-12T07:43:09Z</time>
      </trkpt>
      <trkpt lat="36.923159966245294" lon="-3.390985010191798">
        <ele>919.63999999999999</ele>
        <time>2025-05-12T07:43:12Z</time>
      </trkpt>
      <trkpt lat="36.923144040629268" lon="-3.390811001881957">
        <ele>920.60000000000002</ele>
        <time>2025-05-12T07:43:13Z</time>
      </trkpt>
      <trkpt lat="36.923154015094042" lon="-3.390630958601832">
        <ele>921.08000000000004</ele>
        <time>2025-05-12T07:43:14Z</time>
      </trkpt>
      <trkpt lat="36.923203971236944" lon="-3.389547010883689">
        <ele>924.92999999999995</ele>
        <time>2025-05-12T07:43:20Z</time>
      </trkpt>
      <trkpt lat="36.923158038407564" lon="-3.389421030879021">
        <ele>925.40999999999997</ele>
        <time>2025-05-12T07:43:21Z</time>
      </trkpt>
      <trkpt lat="36.923072040081024" lon="-3.389306031167507">
        <ele>926.37</ele>
        <time>2025-05-12T07:43:22Z</time>
      </trkpt>
      <trkpt lat="36.922945976257324" lon="-3.389219027012587">
        <ele>926.85000000000002</ele>
        <time>2025-05-12T07:43:23Z</time>
      </trkpt>
      <trkpt lat="36.922810021787882" lon="-3.389138979837298">
        <ele>927.33000000000004</ele>
        <time>2025-05-12T07:43:24Z</time>
      </trkpt>
      <trkpt lat="36.922668032348156" lon="-3.389058010652661">
        <ele>928.28999999999996</ele>
        <time>2025-05-12T07:43:25Z</time>
      </trkpt>
      <trkpt lat="36.921620965003967" lon="-3.388575967401266">
        <ele>934.05999999999995</ele>
        <time>2025-05-12T07:43:32Z</time>
      </trkpt>
      <trkpt lat="36.921508982777596" lon="-3.388531040400267">
        <ele>935.01999999999998</ele>
        <time>2025-05-12T07:43:33Z</time>
      </trkpt>
      <trkpt lat="36.921424996107817" lon="-3.388464991003275">
        <ele>935.98000000000002</ele>
        <time>2025-05-12T07:43:34Z</time>
      </trkpt>
      <trkpt lat="36.921379985287786" lon="-3.388381004333496">
        <ele>936.94000000000005</ele>
        <time>2025-05-12T07:43:35Z</time>
      </trkpt>
      <trkpt lat="36.921361964195967" lon="-3.38828100822866">
        <ele>937.41999999999996</ele>
        <time>2025-05-12T07:43:36Z</time>
      </trkpt>
      <trkpt lat="36.921379985287786" lon="-3.388101970776916">
        <ele>937.89999999999998</ele>
        <time>2025-05-12T07:43:37Z</time>
      </trkpt>
      <trkpt lat="36.921416027471423" lon="-3.388018989935517">
        <ele>938.86000000000001</ele>
        <time>2025-05-12T07:43:38Z</time>
      </trkpt>
      <trkpt lat="36.921477969735861" lon="-3.387872977182269">
        <ele>939.35000000000002</ele>
        <time>2025-05-12T07:43:39Z</time>
      </trkpt>
      <trkpt lat="36.921619959175587" lon="-3.387542981654406">
        <ele>940.30999999999995</ele>
        <time>2025-05-12T07:43:41Z</time>
      </trkpt>
      <trkpt lat="36.921687014400959" lon="-3.387384982779622">
        <ele>940.78999999999996</ele>
        <time>2025-05-12T07:43:42Z</time>
      </trkpt>
      <trkpt lat="36.921750968322158" lon="-3.387237964197993">
        <ele>941.26999999999998</ele>
        <time>2025-05-12T07:43:43Z</time>
      </trkpt>
      <trkpt lat="36.921837972477078" lon="-3.387128999456763">
        <ele>941.26999999999998</ele>
        <time>2025-05-12T07:43:44Z</time>
      </trkpt>
      <trkpt lat="36.92194702103734" lon="-3.387020034715533">
        <ele>941.26999999999998</ele>
        <time>2025-05-12T07:43:45Z</time>
      </trkpt>
      <trkpt lat="36.922065038233995" lon="-3.386903023347259">
        <ele>941.26999999999998</ele>
        <time>2025-05-12T07:43:46Z</time>
      </trkpt>
      <trkpt lat="36.922409031540155" lon="-3.386612003669143">
        <ele>941.26999999999998</ele>
        <time>2025-05-12T07:43:49Z</time>
      </trkpt>
      <trkpt lat="36.92252797074616" lon="-3.386550983414054">
        <ele>941.26999999999998</ele>
        <time>2025-05-12T07:43:50Z</time>
      </trkpt>
      <trkpt lat="36.923245964571834" lon="-3.386333975940943">
        <ele>942.23000000000002</ele>
        <time>2025-05-12T07:43:55Z</time>
      </trkpt>
      <trkpt lat="36.92330002784729" lon="-3.386255018413067">
        <ele>942.23000000000002</ele>
        <time>2025-05-12T07:43:56Z</time>
      </trkpt>
      <trkpt lat="36.923355013132095" lon="-3.386139012873173">
        <ele>941.75</ele>
        <time>2025-05-12T07:43:57Z</time>
      </trkpt>
      <trkpt lat="36.923419972881675" lon="-3.386003980413079">
        <ele>941.26999999999998</ele>
        <time>2025-05-12T07:43:58Z</time>
      </trkpt>
      <trkpt lat="36.92349499091506" lon="-3.38585402816534">
        <ele>940.30999999999995</ele>
        <time>2025-05-12T07:43:59Z</time>
      </trkpt>
      <trkpt lat="36.923578977584839" lon="-3.385740034282208">
        <ele>940.30999999999995</ele>
        <time>2025-05-12T07:44:00Z</time>
      </trkpt>
      <trkpt lat="36.923657013103366" lon="-3.385632997378707">
        <ele>939.83000000000004</ele>
        <time>2025-05-12T07:44:01Z</time>
      </trkpt>
      <trkpt lat="36.923718033358455" lon="-3.385540964081883">
        <ele>939.35000000000002</ele>
        <time>2025-05-12T07:44:02Z</time>
      </trkpt>
      <trkpt lat="36.923703029751778" lon="-3.385406015440822">
        <ele>938.86000000000001</ele>
        <time>2025-05-12T07:44:03Z</time>
      </trkpt>
      <trkpt lat="36.923659024760127" lon="-3.385255979374051">
        <ele>938.38</ele>
        <time>2025-05-12T07:44:04Z</time>
      </trkpt>
      <trkpt lat="36.923598004505038" lon="-3.38510200381279">
        <ele>937.89999999999998</ele>
        <time>2025-05-12T07:44:05Z</time>
      </trkpt>
      <trkpt lat="36.923535978421569" lon="-3.384944004938006">
        <ele>936.94000000000005</ele>
        <time>2025-05-12T07:44:06Z</time>
      </trkpt>
      <trkpt lat="36.923460960388184" lon="-3.384754993021488">
        <ele>936.46000000000004</ele>
        <time>2025-05-12T07:44:07Z</time>
      </trkpt>
      <trkpt lat="36.923455009236932" lon="-3.384630018845201">
        <ele>935.98000000000002</ele>
        <time>2025-05-12T07:44:08Z</time>
      </trkpt>
      <trkpt lat="36.923446962609887" lon="-3.384472019970417">
        <ele>935.5</ele>
        <time>2025-05-12T07:44:09Z</time>
      </trkpt>
      <trkpt lat="36.923440005630255" lon="-3.384326007217169">
        <ele>935.01999999999998</ele>
        <time>2025-05-12T07:44:10Z</time>
      </trkpt>
      <trkpt lat="36.92336599342525" lon="-3.384220981970429">
        <ele>935.01999999999998</ele>
        <time>2025-05-12T07:44:11Z</time>
      </trkpt>
      <trkpt lat="36.923286030068994" lon="-3.384108999744058">
        <ele>935.01999999999998</ele>
        <time>2025-05-12T07:44:12Z</time>
      </trkpt>
      <trkpt lat="36.923200031742454" lon="-3.38398695923388">
        <ele>934.53999999999996</ele>
        <time>2025-05-12T07:44:13Z</time>
      </trkpt>
      <trkpt lat="36.923113027587533" lon="-3.383863996714354">
        <ele>934.53999999999996</ele>
        <time>2025-05-12T07:44:14Z</time>
      </trkpt>
      <trkpt lat="36.923045972362161" lon="-3.383733993396163">
        <ele>934.53999999999996</ele>
        <time>2025-05-12T07:44:15Z</time>
      </trkpt>
      <trkpt lat="36.922994004562497" lon="-3.38359996676445">
        <ele>934.53999999999996</ele>
        <time>2025-05-12T07:44:16Z</time>
      </trkpt>
      <trkpt lat="36.92295796237886" lon="-3.383472980931401">
        <ele>934.05999999999995</ele>
        <time>2025-05-12T07:44:17Z</time>
      </trkpt>
      <trkpt lat="36.922899037599564" lon="-3.38310300372541">
        <ele>933.58000000000004</ele>
        <time>2025-05-12T07:44:20Z</time>
      </trkpt>
      <trkpt lat="36.922860983759165" lon="-3.382865963503718">
        <ele>933.10000000000002</ele>
        <time>2025-05-12T07:44:22Z</time>
      </trkpt>
      <trkpt lat="36.922814967110753" lon="-3.382721040397883">
        <ele>932.62</ele>
        <time>2025-05-12T07:44:23Z</time>
      </trkpt>
      <trkpt lat="36.922772973775864" lon="-3.38258701376617">
        <ele>932.13999999999999</ele>
        <time>2025-05-12T07:44:24Z</time>
      </trkpt>
      <trkpt lat="36.922632995992899" lon="-3.382069012150168">
        <ele>930.69000000000005</ele>
        <time>2025-05-12T07:44:28Z</time>
      </trkpt>
      <trkpt lat="36.922599971294403" lon="-3.381800958886743">
        <ele>929.73000000000002</ele>
        <time>2025-05-12T07:44:31Z</time>
      </trkpt>
      <trkpt lat="36.922579016536474" lon="-3.381630973890424">
        <ele>928.28999999999996</ele>
        <time>2025-05-12T07:44:39Z</time>
      </trkpt>
      <trkpt lat="36.922567030414939" lon="-3.381531983613968">
        <ele>926.37</ele>
        <time>2025-05-12T07:44:50Z</time>
      </trkpt>
      <trkpt lat="36.922567030414939" lon="-3.381531983613968">
        <ele>926.37</ele>
        <time>2025-05-12T07:45:11Z</time>
      </trkpt>
      <trkpt lat="36.922514978796244" lon="-3.381447996944189">
        <ele>945.11000000000001</ele>
        <time>2025-05-12T07:48:44Z</time>
      </trkpt>
      <trkpt lat="36.922501986846328" lon="-3.381468029692769">
        <ele>935.98000000000002</ele>
        <time>2025-05-12T07:49:32Z</time>
      </trkpt>
      <trkpt lat="36.922554960474372" lon="-3.381431987509131">
        <ele>935.01999999999998</ele>
        <time>2025-05-12T07:49:43Z</time>
      </trkpt>
      <trkpt lat="36.922551020979881" lon="-3.381399968639016">
        <ele>934.53999999999996</ele>
        <time>2025-05-12T07:49:44Z</time>
      </trkpt>
      <trkpt lat="36.922544986009598" lon="-3.381351018324494">
        <ele>934.53999999999996</ele>
        <time>2025-05-12T07:49:45Z</time>
      </trkpt>
      <trkpt lat="36.922539034858346" lon="-3.38129997253418">
        <ele>934.05999999999995</ele>
        <time>2025-05-12T07:49:46Z</time>
      </trkpt>
      <trkpt lat="36.922520007938147" lon="-3.381205005571246">
        <ele>934.05999999999995</ele>
        <time>2025-05-12T07:49:47Z</time>
      </trkpt>
      <trkpt lat="36.92248597741127" lon="-3.381034014746547">
        <ele>933.10000000000002</ele>
        <time>2025-05-12T07:49:49Z</time>
      </trkpt>
      <trkpt lat="36.922293026000261" lon="-3.380149975419045">
        <ele>931.16999999999996</ele>
        <time>2025-05-12T07:49:56Z</time>
      </trkpt>
      <trkpt lat="36.92222798243165" lon="-3.379762982949615">
        <ele>930.21000000000004</ele>
        <time>2025-05-12T07:49:59Z</time>
      </trkpt>
      <trkpt lat="36.922224964946508" lon="-3.379653012380004">
        <ele>929.73000000000002</ele>
        <time>2025-05-12T07:50:00Z</time>
      </trkpt>
      <trkpt lat="36.922251032665372" lon="-3.37953700684011">
        <ele>929.25</ele>
        <time>2025-05-12T07:50:01Z</time>
      </trkpt>
      <trkpt lat="36.922307023778558" lon="-3.379441034048796">
        <ele>928.76999999999998</ele>
        <time>2025-05-12T07:50:02Z</time>
      </trkpt>
      <trkpt lat="36.922367038205266" lon="-3.379369033500552">
        <ele>928.76999999999998</ele>
        <time>2025-05-12T07:50:03Z</time>
      </trkpt>
      <trkpt lat="36.92246301099658" lon="-3.379369033500552">
        <ele>928.28999999999996</ele>
        <time>2025-05-12T07:50:04Z</time>
      </trkpt>
      <trkpt lat="36.92257197573781" lon="-3.379369033500552">
        <ele>927.80999999999995</ele>
        <time>2025-05-12T07:50:05Z</time>
      </trkpt>
      <trkpt lat="36.922695022076368" lon="-3.379370961338282">
        <ele>927.33000000000004</ele>
        <time>2025-05-12T07:50:06Z</time>
      </trkpt>
      <trkpt lat="36.92282896488905" lon="-3.379381019622088">
        <ele>926.85000000000002</ele>
        <time>2025-05-12T07:50:07Z</time>
      </trkpt>
      <trkpt lat="36.922975983470678" lon="-3.379385964944959">
        <ele>925.88999999999999</ele>
        <time>2025-05-12T07:50:08Z</time>
      </trkpt>
      <trkpt lat="36.92313096486032" lon="-3.37936501018703">
        <ele>925.40999999999997</ele>
        <time>2025-05-12T07:50:09Z</time>
      </trkpt>
      <trkpt lat="36.923296004533768" lon="-3.379342965781689">
        <ele>924.92999999999995</ele>
        <time>2025-05-12T07:50:10Z</time>
      </trkpt>
      <trkpt lat="36.923462972044945" lon="-3.379319999366999">
        <ele>924.45000000000005</ele>
        <time>2025-05-12T07:50:11Z</time>
      </trkpt>
      <trkpt lat="36.923804031684995" lon="-3.379281023517251">
        <ele>923.96000000000004</ele>
        <time>2025-05-12T07:50:13Z</time>
      </trkpt>
      <trkpt lat="36.923976028338075" lon="-3.379274988546968">
        <ele>923.96000000000004</ele>
        <time>2025-05-12T07:50:14Z</time>
      </trkpt>
      <trkpt lat="36.924151964485645" lon="-3.379268031567335">
        <ele>923.96000000000004</ele>
        <time>2025-05-12T07:50:15Z</time>
      </trkpt>
      <trkpt lat="36.924323961138725" lon="-3.379261996597052">
        <ele>924.45000000000005</ele>
        <time>2025-05-12T07:50:16Z</time>
      </trkpt>
      <trkpt lat="36.924476008862257" lon="-3.379203993827105">
        <ele>924.92999999999995</ele>
        <time>2025-05-12T07:50:17Z</time>
      </trkpt>
      <trkpt lat="36.924625961109996" lon="-3.379140039905906">
        <ele>925.40999999999997</ele>
        <time>2025-05-12T07:50:18Z</time>
      </trkpt>
      <trkpt lat="36.924759987741709" lon="-3.379051024094224">
        <ele>925.40999999999997</ele>
        <time>2025-05-12T07:50:19Z</time>
      </trkpt>
      <trkpt lat="36.924884961917996" lon="-3.378964019939303">
        <ele>926.37</ele>
        <time>2025-05-12T07:50:20Z</time>
      </trkpt>
      <trkpt lat="36.925015971064568" lon="-3.378909034654498">
        <ele>926.85000000000002</ele>
        <time>2025-05-12T07:50:21Z</time>
      </trkpt>
      <trkpt lat="36.925157960504293" lon="-3.378863018006086">
        <ele>927.80999999999995</ele>
        <time>2025-05-12T07:50:22Z</time>
      </trkpt>
      <trkpt lat="36.925310008227825" lon="-3.378814989700913">
        <ele>928.28999999999996</ele>
        <time>2025-05-12T07:50:23Z</time>
      </trkpt>
      <trkpt lat="36.925469012930989" lon="-3.378764027729631">
        <ele>928.28999999999996</ele>
        <time>2025-05-12T07:50:24Z</time>
      </trkpt>
      <trkpt lat="36.925617037340999" lon="-3.378670988604426">
        <ele>928.76999999999998</ele>
        <time>2025-05-12T07:50:25Z</time>
      </trkpt>
      <trkpt lat="36.925762966275215" lon="-3.378553977236152">
        <ele>928.76999999999998</ele>
        <time>2025-05-12T07:50:26Z</time>
      </trkpt>
      <trkpt lat="36.925913002341986" lon="-3.378435960039496">
        <ele>929.25</ele>
        <time>2025-05-12T07:50:27Z</time>
      </trkpt>
      <trkpt lat="36.927156960591674" lon="-3.377229971811175">
        <ele>933.58000000000004</ele>
        <time>2025-05-12T07:50:36Z</time>
      </trkpt>
      <trkpt lat="36.927286041900516" lon="-3.377129975706339">
        <ele>934.05999999999995</ele>
        <time>2025-05-12T07:50:37Z</time>
      </trkpt>
      <trkpt lat="36.927406992763281" lon="-3.37704498320818">
        <ele>934.53999999999996</ele>
        <time>2025-05-12T07:50:38Z</time>
      </trkpt>
      <trkpt lat="36.927530961111188" lon="-3.376999972388148">
        <ele>935.01999999999998</ele>
        <time>2025-05-12T07:50:39Z</time>
      </trkpt>
      <trkpt lat="36.927650989964604" lon="-3.376956973224878">
        <ele>935.5</ele>
        <time>2025-05-12T07:50:40Z</time>
      </trkpt>
      <trkpt lat="36.927765989676118" lon="-3.37691598571837">
        <ele>935.98000000000002</ele>
        <time>2025-05-12T07:50:41Z</time>
      </trkpt>
      <trkpt lat="36.927875960245728" lon="-3.376876004040241">
        <ele>936.46000000000004</ele>
        <time>2025-05-12T07:50:42Z</time>
      </trkpt>
      <trkpt lat="36.928228000178933" lon="-3.376844990998507">
        <ele>937.41999999999996</ele>
        <time>2025-05-12T07:50:45Z</time>
      </trkpt>
      <trkpt lat="36.928337970748544" lon="-3.376839961856604">
        <ele>938.38</ele>
        <time>2025-05-12T07:50:46Z</time>
      </trkpt>
      <trkpt lat="36.928432015702128" lon="-3.376800986006856">
        <ele>938.38</ele>
        <time>2025-05-12T07:50:47Z</time>
      </trkpt>
      <trkpt lat="36.928494963794947" lon="-3.376738037914038">
        <ele>938.86000000000001</ele>
        <time>2025-05-12T07:50:48Z</time>
      </trkpt>
      <trkpt lat="36.928547015413642" lon="-3.376686992123723">
        <ele>939.35000000000002</ele>
        <time>2025-05-12T07:50:49Z</time>
      </trkpt>
      <trkpt lat="36.928578028455377" lon="-3.376640975475311">
        <ele>939.35000000000002</ele>
        <time>2025-05-12T07:50:50Z</time>
      </trkpt>
      <trkpt lat="36.928599989041686" lon="-3.376607028767467">
        <ele>939.83000000000004</ele>
        <time>2025-05-12T07:50:51Z</time>
      </trkpt>
      <trkpt lat="36.928613986819983" lon="-3.376585990190506">
        <ele>939.83000000000004</ele>
        <time>2025-05-12T07:50:52Z</time>
      </trkpt>
      <trkpt lat="36.928622033447027" lon="-3.376574004068971">
        <ele>940.30999999999995</ele>
        <time>2025-05-12T07:50:53Z</time>
      </trkpt>
      <trkpt lat="36.928655980154872" lon="-3.376522036269307">
        <ele>941.26999999999998</ele>
        <time>2025-05-12T07:50:56Z</time>
      </trkpt>
      <trkpt lat="36.928677018731833" lon="-3.376492029055953">
        <ele>941.75</ele>
        <time>2025-05-12T07:50:57Z</time>
      </trkpt>
      <trkpt lat="36.928719012066722" lon="-3.376428997144103">
        <ele>942.23000000000002</ele>
        <time>2025-05-12T07:50:58Z</time>
      </trkpt>
      <trkpt lat="36.928751030936837" lon="-3.376410976052284">
        <ele>942.23000000000002</ele>
        <time>2025-05-12T07:50:59Z</time>
      </trkpt>
      <trkpt lat="36.928814984858036" lon="-3.376375017687678">
        <ele>942.71000000000004</ele>
        <time>2025-05-12T07:51:00Z</time>
      </trkpt>
      <trkpt lat="36.92895102314651" lon="-3.376257000491023">
        <ele>942.71000000000004</ele>
        <time>2025-05-12T07:51:02Z</time>
      </trkpt>
      <trkpt lat="36.929010031744838" lon="-3.376157004386187">
        <ele>942.71000000000004</ele>
        <time>2025-05-12T07:51:03Z</time>
      </trkpt>
      <trkpt lat="36.929072979837656" lon="-3.376052984967828">
        <ele>942.23000000000002</ele>
        <time>2025-05-12T07:51:04Z</time>
      </trkpt>
      <trkpt lat="36.929137017577887" lon="-3.37594703771174">
        <ele>942.23000000000002</ele>
        <time>2025-05-12T07:51:05Z</time>
      </trkpt>
      <trkpt lat="36.929199965670705" lon="-3.375842012465">
        <ele>941.75</ele>
        <time>2025-05-12T07:51:06Z</time>
      </trkpt>
      <trkpt lat="36.929258974269032" lon="-3.375742016360164">
        <ele>940.78999999999996</ele>
        <time>2025-05-12T07:51:07Z</time>
      </trkpt>
      <trkpt lat="36.929325023666024" lon="-3.375659035518765">
        <ele>940.30999999999995</ele>
        <time>2025-05-12T07:51:08Z</time>
      </trkpt>
      <trkpt lat="36.929412027820945" lon="-3.375598015263677">
        <ele>939.83000000000004</ele>
        <time>2025-05-12T07:51:09Z</time>
      </trkpt>
      <trkpt lat="36.929497020319104" lon="-3.375536995008588">
        <ele>939.35000000000002</ele>
        <time>2025-05-12T07:51:10Z</time>
      </trkpt>
      <trkpt lat="36.929585030302405" lon="-3.375475974753499">
        <ele>939.35000000000002</ele>
        <time>2025-05-12T07:51:11Z</time>
      </trkpt>
      <trkpt lat="36.929773958399892" lon="-3.375392993912101">
        <ele>938.38</ele>
        <time>2025-05-12T07:51:13Z</time>
      </trkpt>
      <trkpt lat="36.929877977818251" lon="-3.375367010012269">
        <ele>937.89999999999998</ele>
        <time>2025-05-12T07:51:14Z</time>
      </trkpt>
      <trkpt lat="36.930377958342433" lon="-3.375319987535477">
        <ele>936.46000000000004</ele>
        <time>2025-05-12T07:51:18Z</time>
      </trkpt>
      <trkpt lat="36.930493041872978" lon="-3.375286040827632">
        <ele>935.98000000000002</ele>
        <time>2025-05-12T07:51:19Z</time>
      </trkpt>
      <trkpt lat="36.930592032149434" lon="-3.375212028622627">
        <ele>935.5</ele>
        <time>2025-05-12T07:51:20Z</time>
      </trkpt>
      <trkpt lat="36.930659003555775" lon="-3.375124018639326">
        <ele>935.01999999999998</ele>
        <time>2025-05-12T07:51:21Z</time>
      </trkpt>
      <trkpt lat="36.930732009932399" lon="-3.374997032806277">
        <ele>934.53999999999996</ele>
        <time>2025-05-12T07:51:22Z</time>
      </trkpt>
      <trkpt lat="36.930807027965784" lon="-3.374869041144848">
        <ele>934.05999999999995</ele>
        <time>2025-05-12T07:51:23Z</time>
      </trkpt>
      <trkpt lat="36.931011965498328" lon="-3.3744259737432">
        <ele>932.62</ele>
        <time>2025-05-12T07:51:26Z</time>
      </trkpt>
      <trkpt lat="36.931169964373112" lon="-3.373939990997315">
        <ele>932.13999999999999</ele>
        <time>2025-05-12T07:51:29Z</time>
      </trkpt>
      <trkpt lat="36.931211035698652" lon="-3.373771011829376">
        <ele>932.13999999999999</ele>
        <time>2025-05-12T07:51:30Z</time>
      </trkpt>
      <trkpt lat="36.931307008489966" lon="-3.373274970799685">
        <ele>933.10000000000002</ele>
        <time>2025-05-12T07:51:34Z</time>
      </trkpt>
      <trkpt lat="36.931343972682953" lon="-3.37319802492857">
        <ele>933.58000000000004</ele>
        <time>2025-05-12T07:51:35Z</time>
      </trkpt>
      <trkpt lat="36.931400969624519" lon="-3.373128036037087">
        <ele>934.05999999999995</ele>
        <time>2025-05-12T07:51:36Z</time>
      </trkpt>
      <trkpt lat="36.931480010971427" lon="-3.373067015781999">
        <ele>934.53999999999996</ele>
        <time>2025-05-12T07:51:37Z</time>
      </trkpt>
      <trkpt lat="36.93157103843987" lon="-3.373009013012052">
        <ele>934.53999999999996</ele>
        <time>2025-05-12T07:51:38Z</time>
      </trkpt>
      <trkpt lat="36.93247402086854" lon="-3.372420016676188">
        <ele>935.5</ele>
        <time>2025-05-12T07:51:45Z</time>
      </trkpt>
      <trkpt lat="36.933127976953983" lon="-3.37197401560843">
        <ele>935.98000000000002</ele>
        <time>2025-05-12T07:51:50Z</time>
      </trkpt>
      <trkpt lat="36.933212969452143" lon="-3.371880976483226">
        <ele>935.98000000000002</ele>
        <time>2025-05-12T07:51:51Z</time>
      </trkpt>
      <trkpt lat="36.933310031890869" lon="-3.371773017570376">
        <ele>935.98000000000002</ele>
        <time>2025-05-12T07:51:52Z</time>
      </trkpt>
      <trkpt lat="36.933352025225759" lon="-3.371690036728978">
        <ele>936.46000000000004</ele>
        <time>2025-05-12T07:51:53Z</time>
      </trkpt>
      <trkpt lat="36.933413967490196" lon="-3.37156699039042">
        <ele>936.94000000000005</ele>
        <time>2025-05-12T07:51:54Z</time>
      </trkpt>
      <trkpt lat="36.933543970808387" lon="-3.371357023715973">
        <ele>937.89999999999998</ele>
        <time>2025-05-12T07:51:56Z</time>
      </trkpt>
      <trkpt lat="36.933590993285179" lon="-3.371291980147362">
        <ele>938.38</ele>
        <time>2025-05-12T07:51:57Z</time>
      </trkpt>
      <trkpt lat="36.93376500159502" lon="-3.371052006259561">
        <ele>941.26999999999998</ele>
        <time>2025-05-12T07:52:01Z</time>
      </trkpt>
      <trkpt lat="36.933814035728574" lon="-3.37098503485322">
        <ele>941.75</ele>
        <time>2025-05-12T07:52:02Z</time>
      </trkpt>
      <trkpt lat="36.933864997699857" lon="-3.370914962142706">
        <ele>942.71000000000004</ele>
        <time>2025-05-12T07:52:03Z</time>
      </trkpt>
      <trkpt lat="36.93395996466279" lon="-3.370756963267922">
        <ele>944.14999999999998</ele>
        <time>2025-05-12T07:52:05Z</time>
      </trkpt>
      <trkpt lat="36.934007992967963" lon="-3.370667025446892">
        <ele>945.11000000000001</ele>
        <time>2025-05-12T07:52:06Z</time>
      </trkpt>
      <trkpt lat="36.934058032929897" lon="-3.370572980493307">
        <ele>945.59000000000003</ele>
        <time>2025-05-12T07:52:07Z</time>
      </trkpt>
      <trkpt lat="36.934115029871464" lon="-3.370474996045232">
        <ele>946.55999999999995</ele>
        <time>2025-05-12T07:52:08Z</time>
      </trkpt>
      <trkpt lat="36.934191975742579" lon="-3.370397966355085">
        <ele>947.51999999999998</ele>
        <time>2025-05-12T07:52:09Z</time>
      </trkpt>
      <trkpt lat="36.934275962412357" lon="-3.370313979685307">
        <ele>948.48000000000002</ele>
        <time>2025-05-12T07:52:10Z</time>
      </trkpt>
      <trkpt lat="36.934363972395658" lon="-3.370265029370785">
        <ele>949.44000000000005</ele>
        <time>2025-05-12T07:52:11Z</time>
      </trkpt>
      <trkpt lat="36.934468997642398" lon="-3.370206020772457">
        <ele>949.91999999999996</ele>
        <time>2025-05-12T07:52:12Z</time>
      </trkpt>
      <trkpt lat="36.934510990977287" lon="-3.370103007182479">
        <ele>950.39999999999998</ele>
        <time>2025-05-12T07:52:13Z</time>
      </trkpt>
      <trkpt lat="36.93455901928246" lon="-3.369979960843921">
        <ele>951.36000000000001</ele>
        <time>2025-05-12T07:52:14Z</time>
      </trkpt>
      <trkpt lat="36.934640994295478" lon="-3.369712997227907">
        <ele>951.84000000000003</ele>
        <time>2025-05-12T07:52:16Z</time>
      </trkpt>
      <trkpt lat="36.934711989015341" lon="-3.369618030264974">
        <ele>952.32000000000005</ele>
        <time>2025-05-12T07:52:17Z</time>
      </trkpt>
      <trkpt lat="36.934791030362248" lon="-3.369514010846615">
        <ele>952.79999999999995</ele>
        <time>2025-05-12T07:52:18Z</time>
      </trkpt>
      <trkpt lat="36.934876022860408" lon="-3.369406973943114">
        <ele>952.79999999999995</ele>
        <time>2025-05-12T07:52:19Z</time>
      </trkpt>
      <trkpt lat="36.934959003701806" lon="-3.369301026687026">
        <ele>953.27999999999997</ele>
        <time>2025-05-12T07:52:20Z</time>
      </trkpt>
      <trkpt lat="36.935041984543204" lon="-3.369196001440287">
        <ele>953.76999999999998</ele>
        <time>2025-05-12T07:52:21Z</time>
      </trkpt>
      <trkpt lat="36.935135023668408" lon="-3.369100028648973">
        <ele>954.25</ele>
        <time>2025-05-12T07:52:22Z</time>
      </trkpt>
      <trkpt lat="36.935240970924497" lon="-3.369018975645304">
        <ele>954.73000000000002</ele>
        <time>2025-05-12T07:52:23Z</time>
      </trkpt>
      <trkpt lat="36.935449009761214" lon="-3.368823006749153">
        <ele>955.69000000000005</ele>
        <time>2025-05-12T07:52:25Z</time>
      </trkpt>
      <trkpt lat="36.93554699420929" lon="-3.368703983724117">
        <ele>956.16999999999996</ele>
        <time>2025-05-12T07:52:26Z</time>
      </trkpt>
      <trkpt lat="36.935776993632317" lon="-3.368428973481059">
        <ele>956.64999999999998</ele>
        <time>2025-05-12T07:52:29Z</time>
      </trkpt>
      <trkpt lat="36.935865003615618" lon="-3.368354039266706">
        <ele>957.13</ele>
        <time>2025-05-12T07:52:30Z</time>
      </trkpt>
      <trkpt lat="36.936172032728791" lon="-3.368057990446687">
        <ele>957.61000000000001</ele>
        <time>2025-05-12T07:52:33Z</time>
      </trkpt>
      <trkpt lat="36.936394991353154" lon="-3.367804018780589">
        <ele>958.09000000000003</ele>
        <time>2025-05-12T07:52:35Z</time>
      </trkpt>
      <trkpt lat="36.936922967433929" lon="-3.36722700856626">
        <ele>959.52999999999997</ele>
        <time>2025-05-12T07:52:41Z</time>
      </trkpt>
      <trkpt lat="36.937048025429249" lon="-3.367083007469773">
        <ele>960.98000000000002</ele>
        <time>2025-05-12T07:52:48Z</time>
      </trkpt>
      <trkpt lat="36.937184985727072" lon="-3.36692500859499">
        <ele>962.89999999999998</ele>
        <time>2025-05-12T07:53:03Z</time>
      </trkpt>
      <trkpt lat="36.937280036509037" lon="-3.366815960034728">
        <ele>963.38</ele>
        <time>2025-05-12T07:53:50Z</time>
      </trkpt>
      <trkpt lat="36.937286993488669" lon="-3.366812020540237">
        <ele>962.89999999999998</ele>
        <time>2025-05-12T07:53:51Z</time>
      </trkpt>
      <trkpt lat="36.937342984601855" lon="-3.366774972528219">
        <ele>962.89999999999998</ele>
        <time>2025-05-12T07:53:52Z</time>
      </trkpt>
      <trkpt lat="36.937414985150099" lon="-3.366726022213697">
        <ele>962.89999999999998</ele>
        <time>2025-05-12T07:53:53Z</time>
      </trkpt>
      <trkpt lat="36.937504000961781" lon="-3.36666701361537">
        <ele>962.89999999999998</ele>
        <time>2025-05-12T07:53:54Z</time>
      </trkpt>
      <trkpt lat="36.938301036134362" lon="-3.366185976192355">
        <ele>961.46000000000004</ele>
        <time>2025-05-12T07:54:00Z</time>
      </trkpt>
      <trkpt lat="36.939018024131656" lon="-3.365704016759992">
        <ele>960.49000000000001</ele>
        <time>2025-05-12T07:54:05Z</time>
      </trkpt>
      <trkpt lat="36.939133023843169" lon="-3.365602008998394">
        <ele>960.49000000000001</ele>
        <time>2025-05-12T07:54:06Z</time>
      </trkpt>
      <trkpt lat="36.939250035211444" lon="-3.365498995408416">
        <ele>960.49000000000001</ele>
        <time>2025-05-12T07:54:07Z</time>
      </trkpt>
      <trkpt lat="36.939362017437816" lon="-3.36540000513196">
        <ele>960.49000000000001</ele>
        <time>2025-05-12T07:54:08Z</time>
      </trkpt>
      <trkpt lat="36.939511969685555" lon="-3.365316018462181">
        <ele>960.49000000000001</ele>
        <time>2025-05-12T07:54:09Z</time>
      </trkpt>
      <trkpt lat="36.93965001963079" lon="-3.365237982943654">
        <ele>960.98000000000002</ele>
        <time>2025-05-12T07:54:10Z</time>
      </trkpt>
      <trkpt lat="36.939807012677193" lon="-3.365174029022455">
        <ele>960.98000000000002</ele>
        <time>2025-05-12T07:54:11Z</time>
      </trkpt>
      <trkpt lat="36.939955037087202" lon="-3.365126000717282">
        <ele>961.46000000000004</ele>
        <time>2025-05-12T07:54:12Z</time>
      </trkpt>
      <trkpt lat="36.940398020669818" lon="-3.365006977692246">
        <ele>962.89999999999998</ele>
        <time>2025-05-12T07:54:15Z</time>
      </trkpt>
      <trkpt lat="36.940535986796021" lon="-3.364997003227472">
        <ele>963.38</ele>
        <time>2025-05-12T07:54:16Z</time>
      </trkpt>
      <trkpt lat="36.940664984285831" lon="-3.364958027377725">
        <ele>963.86000000000001</ele>
        <time>2025-05-12T07:54:17Z</time>
      </trkpt>
      <trkpt lat="36.9407909642905" lon="-3.364885021001101">
        <ele>964.34000000000003</ele>
        <time>2025-05-12T07:54:18Z</time>
      </trkpt>
      <trkpt lat="36.940907975658774" lon="-3.364816959947348">
        <ele>964.82000000000005</ele>
        <time>2025-05-12T07:54:19Z</time>
      </trkpt>
      <trkpt lat="36.941032027825713" lon="-3.364756023511291">
        <ele>965.77999999999997</ele>
        <time>2025-05-12T07:54:20Z</time>
      </trkpt>
      <trkpt lat="36.941168988123536" lon="-3.364756023511291">
        <ele>965.77999999999997</ele>
        <time>2025-05-12T07:54:21Z</time>
      </trkpt>
      <trkpt lat="36.941322963684797" lon="-3.364756023511291">
        <ele>966.25999999999999</ele>
        <time>2025-05-12T07:54:22Z</time>
      </trkpt>
      <trkpt lat="36.941481968387961" lon="-3.364726016297936">
        <ele>966.25999999999999</ele>
        <time>2025-05-12T07:54:23Z</time>
      </trkpt>
      <trkpt lat="36.941653965041041" lon="-3.364675976336002">
        <ele>966.74000000000001</ele>
        <time>2025-05-12T07:54:24Z</time>
      </trkpt>
      <trkpt lat="36.942124022170901" lon="-3.364483024924994">
        <ele>968.17999999999995</ele>
        <time>2025-05-12T07:54:27Z</time>
      </trkpt>
      <trkpt lat="36.942242961376905" lon="-3.364409012719989">
        <ele>968.66999999999996</ele>
        <time>2025-05-12T07:54:28Z</time>
      </trkpt>
      <trkpt lat="36.942353015765548" lon="-3.364309016615152">
        <ele>969.14999999999998</ele>
        <time>2025-05-12T07:54:29Z</time>
      </trkpt>
      <trkpt lat="36.942449994385242" lon="-3.36421899497509">
        <ele>969.63</ele>
        <time>2025-05-12T07:54:30Z</time>
      </trkpt>
      <trkpt lat="36.94248897023499" lon="-3.36413299664855">
        <ele>970.59000000000003</ele>
        <time>2025-05-12T07:54:31Z</time>
      </trkpt>
      <trkpt lat="36.942515959963202" lon="-3.36402696557343">
        <ele>971.07000000000005</ele>
        <time>2025-05-12T07:54:32Z</time>
      </trkpt>
      <trkpt lat="36.942504979670048" lon="-3.363996958360076">
        <ele>972.02999999999997</ele>
        <time>2025-05-12T07:54:33Z</time>
      </trkpt>
      <trkpt lat="36.942475978285074" lon="-3.363920012488961">
        <ele>972.50999999999999</ele>
        <time>2025-05-12T07:54:34Z</time>
      </trkpt>
      <trkpt lat="36.942446976900101" lon="-3.36385102942586">
        <ele>973.47000000000003</ele>
        <time>2025-05-12T07:54:35Z</time>
      </trkpt>
      <trkpt lat="36.942357961088419" lon="-3.363777017220855">
        <ele>973.95000000000005</ele>
        <time>2025-05-12T07:54:36Z</time>
      </trkpt>
      <trkpt lat="36.942258970811963" lon="-3.363732006400824">
        <ele>974.90999999999997</ele>
        <time>2025-05-12T07:54:37Z</time>
      </trkpt>
      <trkpt lat="36.942129973322153" lon="-3.363700993359089">
        <ele>975.88</ele>
        <time>2025-05-12T07:54:38Z</time>
      </trkpt>
      <trkpt lat="36.94197197444737" lon="-3.363662017509341">
        <ele>975.88</ele>
        <time>2025-05-12T07:54:39Z</time>
      </trkpt>
      <trkpt lat="36.941334027796984" lon="-3.363473005592823">
        <ele>977.32000000000005</ele>
        <time>2025-05-12T07:54:43Z</time>
      </trkpt>
      <trkpt lat="36.941059017553926" lon="-3.363320035859942">
        <ele>978.75999999999999</ele>
        <time>2025-05-12T07:54:45Z</time>
      </trkpt>
      <trkpt lat="36.940933037549257" lon="-3.363305032253265">
        <ele>979.72000000000003</ele>
        <time>2025-05-12T07:54:46Z</time>
      </trkpt>
      <trkpt lat="36.939590005204082" lon="-3.363233031705022">
        <ele>985.49000000000001</ele>
        <time>2025-05-12T07:54:54Z</time>
      </trkpt>
      <trkpt lat="36.939063034951687" lon="-3.363265972584486">
        <ele>988.37</ele>
        <time>2025-05-12T07:54:57Z</time>
      </trkpt>
      <trkpt lat="36.938436990603805" lon="-3.363392958417535">
        <ele>992.70000000000005</ele>
        <time>2025-05-12T07:55:01Z</time>
      </trkpt>
      <trkpt lat="36.938358033075929" lon="-3.363463031128049">
        <ele>993.65999999999997</ele>
        <time>2025-05-12T07:55:02Z</time>
      </trkpt>
      <trkpt lat="36.938301036134362" lon="-3.36355296894908">
        <ele>994.62</ele>
        <time>2025-05-12T07:55:03Z</time>
      </trkpt>
      <trkpt lat="36.938245967030525" lon="-3.363639973104">
        <ele>995.10000000000002</ele>
        <time>2025-05-12T07:55:04Z</time>
      </trkpt>
      <trkpt lat="36.938182013109326" lon="-3.363688001409173">
        <ele>995.58000000000004</ele>
        <time>2025-05-12T07:55:05Z</time>
      </trkpt>
      <trkpt lat="36.938117975369096" lon="-3.363694036379457">
        <ele>995.58000000000004</ele>
        <time>2025-05-12T07:55:06Z</time>
      </trkpt>
      <trkpt lat="36.938056033104658" lon="-3.3636590000242">
        <ele>995.58000000000004</ele>
        <time>2025-05-12T07:55:07Z</time>
      </trkpt>
      <trkpt lat="36.938010016456246" lon="-3.36359697394073">
        <ele>997.01999999999998</ele>
        <time>2025-05-12T07:55:08Z</time>
      </trkpt>
      <trkpt lat="36.938010016456246" lon="-3.363517010584474">
        <ele>997.99000000000001</ele>
        <time>2025-05-12T07:55:09Z</time>
      </trkpt>
      <trkpt lat="36.938027031719685" lon="-3.363438975065947">
        <ele>998.47000000000003</ele>
        <time>2025-05-12T07:55:10Z</time>
      </trkpt>
      <trkpt lat="36.938069025054574" lon="-3.363355994224548">
        <ele>999.42999999999995</ele>
        <time>2025-05-12T07:55:11Z</time>
      </trkpt>
      <trkpt lat="36.938160974532366" lon="-3.363327998667955">
        <ele>999.90999999999997</ele>
        <time>2025-05-12T07:55:12Z</time>
      </trkpt>
      <trkpt lat="36.938267005607486" lon="-3.36329497396946">
        <ele>1000.39</ele>
        <time>2025-05-12T07:55:13Z</time>
      </trkpt>
      <trkpt lat="36.938378987833858" lon="-3.363242000341415">
        <ele>1000.87</ele>
        <time>2025-05-12T07:55:14Z</time>
      </trkpt>
      <trkpt lat="36.938495999202132" lon="-3.363158013671637">
        <ele>1001.35</ele>
        <time>2025-05-12T07:55:15Z</time>
      </trkpt>
      <trkpt lat="36.938929008319974" lon="-3.362915022298694">
        <ele>1003.75</ele>
        <time>2025-05-12T07:55:18Z</time>
      </trkpt>
      <trkpt lat="36.939095975831151" lon="-3.362870011478663">
        <ele>1005.2</ele>
        <time>2025-05-12T07:55:19Z</time>
      </trkpt>
      <trkpt lat="36.93926596082747" lon="-3.362826006487012">
        <ele>1006.64</ele>
        <time>2025-05-12T07:55:20Z</time>
      </trkpt>
      <trkpt lat="36.940290983766317" lon="-3.362603969871998">
        <ele>1013.85</ele>
        <time>2025-05-12T07:55:26Z</time>
      </trkpt>
      <trkpt lat="36.94072499871254" lon="-3.362590977922082">
        <ele>1017.6900000000001</ele>
        <time>2025-05-12T07:55:29Z</time>
      </trkpt>
      <trkpt lat="36.940824994817376" lon="-3.362547978758812">
        <ele>1018.65</ele>
        <time>2025-05-12T07:55:30Z</time>
      </trkpt>
      <trkpt lat="36.941104028373957" lon="-3.362300964072347">
        <ele>1022.5</ele>
        <time>2025-05-12T07:55:33Z</time>
      </trkpt>
      <trkpt lat="36.941190026700497" lon="-3.362225024029613">
        <ele>1023.9400000000001</ele>
        <time>2025-05-12T07:55:34Z</time>
      </trkpt>
      <trkpt lat="36.941267978399992" lon="-3.36215503513813">
        <ele>1025.3800000000001</ele>
        <time>2025-05-12T07:55:35Z</time>
      </trkpt>
      <trkpt lat="36.9413470197469" lon="-3.36209200322628">
        <ele>1026.3399999999999</ele>
        <time>2025-05-12T07:55:36Z</time>
      </trkpt>
      <trkpt lat="36.941439975053072" lon="-3.362061996012926">
        <ele>1028.27</ele>
        <time>2025-05-12T07:55:37Z</time>
      </trkpt>
      <trkpt lat="36.941536031663418" lon="-3.362030982971191">
        <ele>1029.71</ele>
        <time>2025-05-12T07:55:38Z</time>
      </trkpt>
      <trkpt lat="36.941624963656068" lon="-3.362002987414599">
        <ele>1031.1500000000001</ele>
        <time>2025-05-12T07:55:39Z</time>
      </trkpt>
      <trkpt lat="36.941708028316498" lon="-3.361975997686386">
        <ele>1032.1099999999999</ele>
        <time>2025-05-12T07:55:40Z</time>
      </trkpt>
      <trkpt lat="36.94184398278594" lon="-3.361932998523116">
        <ele>1034.04</ele>
        <time>2025-05-12T07:55:42Z</time>
      </trkpt>
      <trkpt lat="36.941871978342533" lon="-3.361924029886723">
        <ele>1035</ele>
        <time>2025-05-12T07:55:43Z</time>
      </trkpt>
      <trkpt lat="36.941888993605971" lon="-3.361854963004589">
        <ele>1035.96</ele>
        <time>2025-05-12T07:55:44Z</time>
      </trkpt>
      <trkpt lat="36.941905003041029" lon="-3.361793020740151">
        <ele>1037.4000000000001</ele>
        <time>2025-05-12T07:55:45Z</time>
      </trkpt>
      <trkpt lat="36.941913971677423" lon="-3.361750021576881">
        <ele>1038.3599999999999</ele>
        <time>2025-05-12T07:55:46Z</time>
      </trkpt>
      <trkpt lat="36.941871978342533" lon="-3.361666034907103">
        <ele>1038.8399999999999</ele>
        <time>2025-05-12T07:55:47Z</time>
      </trkpt>
      <trkpt lat="36.941810036078095" lon="-3.361651031300426">
        <ele>1039.8</ele>
        <time>2025-05-12T07:55:48Z</time>
      </trkpt>
      <trkpt lat="36.941718002781272" lon="-3.361627981066704">
        <ele>1040.28</ele>
        <time>2025-05-12T07:55:49Z</time>
      </trkpt>
      <trkpt lat="36.941609038040042" lon="-3.361603002995253">
        <ele>1040.76</ele>
        <time>2025-05-12T07:55:50Z</time>
      </trkpt>
      <trkpt lat="36.941493032500148" lon="-3.361632004380226">
        <ele>1041.25</ele>
        <time>2025-05-12T07:55:51Z</time>
      </trkpt>
      <trkpt lat="36.941381972283125" lon="-3.361659999936819">
        <ele>1042.21</ele>
        <time>2025-05-12T07:55:52Z</time>
      </trkpt>
      <trkpt lat="36.941273007541895" lon="-3.361686989665031">
        <ele>1042.6900000000001</ele>
        <time>2025-05-12T07:55:53Z</time>
      </trkpt>
      <trkpt lat="36.941159013658762" lon="-3.361737029626966">
        <ele>1042.6900000000001</ele>
        <time>2025-05-12T07:55:54Z</time>
      </trkpt>
      <trkpt lat="36.941078966483474" lon="-3.361825039610267">
        <ele>1043.1700000000001</ele>
        <time>2025-05-12T07:55:55Z</time>
      </trkpt>
      <trkpt lat="36.94100403226912" lon="-3.361908020451665">
        <ele>1043.1700000000001</ele>
        <time>2025-05-12T07:55:56Z</time>
      </trkpt>
      <trkpt lat="36.940932031720877" lon="-3.361995024606586">
        <ele>1043.1700000000001</ele>
        <time>2025-05-12T07:55:57Z</time>
      </trkpt>
      <trkpt lat="36.94087696261704" lon="-3.362087979912758">
        <ele>1043.1700000000001</ele>
        <time>2025-05-12T07:55:58Z</time>
      </trkpt>
      <trkpt lat="36.940822983160615" lon="-3.36217800155282">
        <ele>1043.6500000000001</ele>
        <time>2025-05-12T07:55:59Z</time>
      </trkpt>
      <trkpt lat="36.940749976783991" lon="-3.362204991281033">
        <ele>1044.1300000000001</ele>
        <time>2025-05-12T07:56:00Z</time>
      </trkpt>
      <trkpt lat="36.940664984285831" lon="-3.362232986837626">
        <ele>1045.0899999999999</ele>
        <time>2025-05-12T07:56:01Z</time>
      </trkpt>
      <trkpt lat="36.940578985959291" lon="-3.362232986837626">
        <ele>1045.5699999999999</ele>
        <time>2025-05-12T07:56:02Z</time>
      </trkpt>
      <trkpt lat="36.940476978197694" lon="-3.362208008766174">
        <ele>1046.05</ele>
        <time>2025-05-12T07:56:03Z</time>
      </trkpt>
      <trkpt lat="36.940273968502879" lon="-3.362159980461001">
        <ele>1047.49</ele>
        <time>2025-05-12T07:56:05Z</time>
      </trkpt>
      <trkpt lat="36.940170032903552" lon="-3.362159980461001">
        <ele>1047.97</ele>
        <time>2025-05-12T07:56:06Z</time>
      </trkpt>
      <trkpt lat="36.939379032701254" lon="-3.362146988511086">
        <ele>1052.78</ele>
        <time>2025-05-12T07:56:14Z</time>
      </trkpt>
      <trkpt lat="36.939302003011107" lon="-3.362109018489718">
        <ele>1053.74</ele>
        <time>2025-05-12T07:56:15Z</time>
      </trkpt>
      <trkpt lat="36.939252968877554" lon="-3.36204900406301">
        <ele>1054.22</ele>
        <time>2025-05-12T07:56:16Z</time>
      </trkpt>
      <trkpt lat="36.939226984977722" lon="-3.361964011564851">
        <ele>1054.7</ele>
        <time>2025-05-12T07:56:17Z</time>
      </trkpt>
      <trkpt lat="36.939213993027806" lon="-3.361854963004589">
        <ele>1055.1800000000001</ele>
        <time>2025-05-12T07:56:18Z</time>
      </trkpt>
      <trkpt lat="36.939224973320961" lon="-3.361757984384894">
        <ele>1055.6700000000001</ele>
        <time>2025-05-12T07:56:19Z</time>
      </trkpt>
      <trkpt lat="36.939265038818121" lon="-3.361667040735483">
        <ele>1056.1500000000001</ele>
        <time>2025-05-12T07:56:20Z</time>
      </trkpt>
      <trkpt lat="36.939335027709603" lon="-3.361585987731814">
        <ele>1056.6300000000001</ele>
        <time>2025-05-12T07:56:21Z</time>
      </trkpt>
      <trkpt lat="36.939409961923957" lon="-3.361510969698429">
        <ele>1057.1099999999999</ele>
        <time>2025-05-12T07:56:22Z</time>
      </trkpt>
      <trkpt lat="36.939483974128962" lon="-3.361437041312456">
        <ele>1058.0699999999999</ele>
        <time>2025-05-12T07:56:23Z</time>
      </trkpt>
      <trkpt lat="36.939678015187383" lon="-3.361236965283752">
        <ele>1059.99</ele>
        <time>2025-05-12T07:56:26Z</time>
      </trkpt>
      <trkpt lat="36.939768036827445" lon="-3.361134035512805">
        <ele>1060.95</ele>
        <time>2025-05-12T07:56:28Z</time>
      </trkpt>
      <trkpt lat="36.939791003242135" lon="-3.361063040792942">
        <ele>1061.4300000000001</ele>
        <time>2025-05-12T07:56:29Z</time>
      </trkpt>
      <trkpt lat="36.939791003242135" lon="-3.360985005274415">
        <ele>1061.9100000000001</ele>
        <time>2025-05-12T07:56:30Z</time>
      </trkpt>
      <trkpt lat="36.939766025170684" lon="-3.360920967534185">
        <ele>1062.3900000000001</ele>
        <time>2025-05-12T07:56:31Z</time>
      </trkpt>
      <trkpt lat="36.939724031835794" lon="-3.360858019441366">
        <ele>1063.3599999999999</ele>
        <time>2025-05-12T07:56:32Z</time>
      </trkpt>
      <trkpt lat="36.939680026844144" lon="-3.360792975872755">
        <ele>1063.8399999999999</ele>
        <time>2025-05-12T07:56:33Z</time>
      </trkpt>
      <trkpt lat="36.939602997153997" lon="-3.360770009458065">
        <ele>1063.3599999999999</ele>
        <time>2025-05-12T07:56:34Z</time>
      </trkpt>
      <trkpt lat="36.93952202796936" lon="-3.360777972266078">
        <ele>1062.3900000000001</ele>
        <time>2025-05-12T07:56:35Z</time>
      </trkpt>
      <trkpt lat="36.939437035471201" lon="-3.360785013064742">
        <ele>1061.9100000000001</ele>
        <time>2025-05-12T07:56:36Z</time>
      </trkpt>
      <trkpt lat="36.939360005781054" lon="-3.360859025269747">
        <ele>1060.95</ele>
        <time>2025-05-12T07:56:37Z</time>
      </trkpt>
      <trkpt lat="36.939298985525966" lon="-3.360927002504468">
        <ele>1060.95</ele>
        <time>2025-05-12T07:56:38Z</time>
      </trkpt>
      <trkpt lat="36.939246011897922" lon="-3.360985005274415">
        <ele>1060.95</ele>
        <time>2025-05-12T07:56:39Z</time>
      </trkpt>
      <trkpt lat="36.939194966107607" lon="-3.361042002215982">
        <ele>1060.95</ele>
        <time>2025-05-12T07:56:40Z</time>
      </trkpt>
      <trkpt lat="36.938731027767062" lon="-3.361560003831983">
        <ele>1064.8</ele>
        <time>2025-05-12T07:56:47Z</time>
      </trkpt>
      <trkpt lat="36.938653998076916" lon="-3.361625969409943">
        <ele>1065.76</ele>
        <time>2025-05-12T07:56:48Z</time>
      </trkpt>
      <trkpt lat="36.938574034720659" lon="-3.361671986058354">
        <ele>1066.24</ele>
        <time>2025-05-12T07:56:49Z</time>
      </trkpt>
      <trkpt lat="36.93849298171699" lon="-3.361687995493412">
        <ele>1067.2</ele>
        <time>2025-05-12T07:56:50Z</time>
      </trkpt>
      <trkpt lat="36.938416035845876" lon="-3.361665029078722">
        <ele>1067.6800000000001</ele>
        <time>2025-05-12T07:56:51Z</time>
      </trkpt>
      <trkpt lat="36.938364990055561" lon="-3.361613983288407">
        <ele>1068.1600000000001</ele>
        <time>2025-05-12T07:56:52Z</time>
      </trkpt>
      <trkpt lat="36.938361972570419" lon="-3.361531002447009">
        <ele>1069.1199999999999</ele>
        <time>2025-05-12T07:56:53Z</time>
      </trkpt>
      <trkpt lat="36.938372030854225" lon="-3.361451039090753">
        <ele>1069.5999999999999</ele>
        <time>2025-05-12T07:56:54Z</time>
      </trkpt>
      <trkpt lat="36.93842601031065" lon="-3.361382978037">
        <ele>1070.5699999999999</ele>
        <time>2025-05-12T07:56:55Z</time>
      </trkpt>
      <trkpt lat="36.938499016687274" lon="-3.361315000802279">
        <ele>1071.53</ele>
        <time>2025-05-12T07:56:56Z</time>
      </trkpt>
      <trkpt lat="36.93857898004353" lon="-3.361240988597274">
        <ele>1072.01</ele>
        <time>2025-05-12T07:56:57Z</time>
      </trkpt>
      <trkpt lat="36.939382972195745" lon="-3.360280003398657">
        <ele>1078.74</ele>
        <time>2025-05-12T07:57:07Z</time>
      </trkpt>
      <trkpt lat="36.939467964693904" lon="-3.36020196788013">
        <ele>1079.7</ele>
        <time>2025-05-12T07:57:08Z</time>
      </trkpt>
      <trkpt lat="36.939554968848825" lon="-3.360120998695493">
        <ele>1080.6600000000001</ele>
        <time>2025-05-12T07:57:09Z</time>
      </trkpt>
      <trkpt lat="36.939635016024113" lon="-3.360084034502506">
        <ele>1081.6199999999999</ele>
        <time>2025-05-12T07:57:10Z</time>
      </trkpt>
      <trkpt lat="36.93971699103713" lon="-3.360046986490488">
        <ele>1082.5799999999999</ele>
        <time>2025-05-12T07:57:11Z</time>
      </trkpt>
      <trkpt lat="36.939789997413754" lon="-3.360013039782643">
        <ele>1083.54</ele>
        <time>2025-05-12T07:57:12Z</time>
      </trkpt>
      <trkpt lat="36.939855040982366" lon="-3.359949002042413">
        <ele>1084.5</ele>
        <time>2025-05-12T07:57:13Z</time>
      </trkpt>
      <trkpt lat="36.939898040145636" lon="-3.359864009544253">
        <ele>1084.99</ele>
        <time>2025-05-12T07:57:14Z</time>
      </trkpt>
      <trkpt lat="36.939898040145636" lon="-3.359783962368965">
        <ele>1085.47</ele>
        <time>2025-05-12T07:57:15Z</time>
      </trkpt>
      <trkpt lat="36.939858980476856" lon="-3.359683966264129">
        <ele>1085.95</ele>
        <time>2025-05-12T07:57:16Z</time>
      </trkpt>
      <trkpt lat="36.939783040434122" lon="-3.359649013727903">
        <ele>1086.4300000000001</ele>
        <time>2025-05-12T07:57:17Z</time>
      </trkpt>
      <trkpt lat="36.939725959673524" lon="-3.359649013727903">
        <ele>1086.9100000000001</ele>
        <time>2025-05-12T07:57:18Z</time>
      </trkpt>
      <trkpt lat="36.939649013802409" lon="-3.359739035367966">
        <ele>1087.3900000000001</ele>
        <time>2025-05-12T07:57:19Z</time>
      </trkpt>
      <trkpt lat="36.939592016860843" lon="-3.359805000945926">
        <ele>1088.3499999999999</ele>
        <time>2025-05-12T07:57:20Z</time>
      </trkpt>
      <trkpt lat="36.939528984948993" lon="-3.359880018979311">
        <ele>1089.3099999999999</ele>
        <time>2025-05-12T07:57:21Z</time>
      </trkpt>
      <trkpt lat="36.939456984400749" lon="-3.359949002042413">
        <ele>1090.27</ele>
        <time>2025-05-12T07:57:22Z</time>
      </trkpt>
      <trkpt lat="36.939375009387732" lon="-3.360013039782643">
        <ele>1091.71</ele>
        <time>2025-05-12T07:57:23Z</time>
      </trkpt>
      <trkpt lat="36.939283981919289" lon="-3.360084034502506">
        <ele>1092.2</ele>
        <time>2025-05-12T07:57:24Z</time>
      </trkpt>
      <trkpt lat="36.938336994498968" lon="-3.360916022211313">
        <ele>1101.8099999999999</ele>
        <time>2025-05-12T07:57:32Z</time>
      </trkpt>
      <trkpt lat="36.938084028661251" lon="-3.36108298972249">
        <ele>1104.21</ele>
        <time>2025-05-12T07:57:34Z</time>
      </trkpt>
      <trkpt lat="36.937991995364428" lon="-3.361198995262384">
        <ele>1104.6900000000001</ele>
        <time>2025-05-12T07:57:35Z</time>
      </trkpt>
      <trkpt lat="36.937902979552746" lon="-3.361332016065717">
        <ele>1105.6500000000001</ele>
        <time>2025-05-12T07:57:36Z</time>
      </trkpt>
      <trkpt lat="36.937655964866281" lon="-3.361702999100089">
        <ele>1108.0599999999999</ele>
        <time>2025-05-12T07:57:39Z</time>
      </trkpt>
      <trkpt lat="36.937576001510024" lon="-3.361821016296744">
        <ele>1109.02</ele>
        <time>2025-05-12T07:57:40Z</time>
      </trkpt>
      <trkpt lat="36.937478017061949" lon="-3.36191900074482">
        <ele>1109.98</ele>
        <time>2025-05-12T07:57:41Z</time>
      </trkpt>
      <trkpt lat="36.937361005693674" lon="-3.361974991858006">
        <ele>1110.9400000000001</ele>
        <time>2025-05-12T07:57:42Z</time>
      </trkpt>
      <trkpt lat="36.937252962961793" lon="-3.362010028213263">
        <ele>1111.9000000000001</ele>
        <time>2025-05-12T07:57:43Z</time>
      </trkpt>
      <trkpt lat="36.93713603541255" lon="-3.362020002678037">
        <ele>1113.3399999999999</ele>
        <time>2025-05-12T07:57:44Z</time>
      </trkpt>
      <trkpt lat="36.936999997124076" lon="-3.362030982971191">
        <ele>1114.3099999999999</ele>
        <time>2025-05-12T07:57:45Z</time>
      </trkpt>
      <trkpt lat="36.935846982523799" lon="-3.36224002763629">
        <ele>1122.96</ele>
        <time>2025-05-12T07:57:52Z</time>
      </trkpt>
      <trkpt lat="36.935064028948545" lon="-3.362406995147467">
        <ele>1129.21</ele>
        <time>2025-05-12T07:57:57Z</time>
      </trkpt>
      <trkpt lat="36.934955986216664" lon="-3.362475978210568">
        <ele>1130.6500000000001</ele>
        <time>2025-05-12T07:57:58Z</time>
      </trkpt>
      <trkpt lat="36.934868982061744" lon="-3.362588966265321">
        <ele>1132.0899999999999</ele>
        <time>2025-05-12T07:57:59Z</time>
      </trkpt>
      <trkpt lat="36.934780972078443" lon="-3.362702960148454">
        <ele>1133.53</ele>
        <time>2025-05-12T07:58:00Z</time>
      </trkpt>
      <trkpt lat="36.934692962095141" lon="-3.362817037850618">
        <ele>1134.97</ele>
        <time>2025-05-12T07:58:01Z</time>
      </trkpt>
      <trkpt lat="36.93460101261735" lon="-3.362936982885003">
        <ele>1136.4200000000001</ele>
        <time>2025-05-12T07:58:02Z</time>
      </trkpt>
      <trkpt lat="36.934376964345574" lon="-3.363120965659618">
        <ele>1138.8199999999999</ele>
        <time>2025-05-12T07:58:04Z</time>
      </trkpt>
      <trkpt lat="36.933928029611707" lon="-3.363435035571456">
        <ele>1144.1099999999999</ele>
        <time>2025-05-12T07:58:08Z</time>
      </trkpt>
      <trkpt lat="36.933797020465136" lon="-3.363479962572455">
        <ele>1145.0699999999999</ele>
        <time>2025-05-12T07:58:09Z</time>
      </trkpt>
      <trkpt lat="36.932343011721969" lon="-3.363901991397142">
        <ele>1155.1600000000001</ele>
        <time>2025-05-12T07:58:18Z</time>
      </trkpt>
      <trkpt lat="36.931468024849892" lon="-3.364273980259895">
        <ele>1161.8900000000001</ele>
        <time>2025-05-12T07:58:24Z</time>
      </trkpt>
      <trkpt lat="36.931321006268263" lon="-3.364313039928675">
        <ele>1162.3699999999999</ele>
        <time>2025-05-12T07:58:25Z</time>
      </trkpt>
      <trkpt lat="36.930881962180138" lon="-3.364387974143028">
        <ele>1163.3299999999999</ele>
        <time>2025-05-12T07:58:28Z</time>
      </trkpt>
      <trkpt lat="36.930493041872978" lon="-3.364488976076245">
        <ele>1164.29</ele>
        <time>2025-05-12T07:58:31Z</time>
      </trkpt>
      <trkpt lat="36.930372007191181" lon="-3.364490987733007">
        <ele>1163.8099999999999</ele>
        <time>2025-05-12T07:58:32Z</time>
      </trkpt>
      <trkpt lat="36.929190997034311" lon="-3.36460598744452">
        <ele>1162.8499999999999</ele>
        <time>2025-05-12T07:58:41Z</time>
      </trkpt>
      <trkpt lat="36.929083960130811" lon="-3.364690979942679">
        <ele>1162.3699999999999</ele>
        <time>2025-05-12T07:58:42Z</time>
      </trkpt>
      <trkpt lat="36.928965020924807" lon="-3.364787036553025">
        <ele>1161.8900000000001</ele>
        <time>2025-05-12T07:58:43Z</time>
      </trkpt>
      <trkpt lat="36.927795996889472" lon="-3.365742992609739">
        <ele>1166.22</ele>
        <time>2025-05-12T07:58:52Z</time>
      </trkpt>
      <trkpt lat="36.927384026348591" lon="-3.36606502532959">
        <ele>1169.0999999999999</ele>
        <time>2025-05-12T07:58:56Z</time>
      </trkpt>
      <trkpt lat="36.927301967516541" lon="-3.366128979250789">
        <ele>1170.0599999999999</ele>
        <time>2025-05-12T07:58:57Z</time>
      </trkpt>
      <trkpt lat="36.927214041352272" lon="-3.366128979250789">
        <ele>1170.54</ele>
        <time>2025-05-12T07:58:58Z</time>
      </trkpt>
      <trkpt lat="36.927130976691842" lon="-3.366128979250789">
        <ele>1171.02</ele>
        <time>2025-05-12T07:58:59Z</time>
      </trkpt>
      <trkpt lat="36.927075991407037" lon="-3.366061002016068">
        <ele>1171.5</ele>
        <time>2025-05-12T07:59:00Z</time>
      </trkpt>
      <trkpt lat="36.927033998072147" lon="-3.365977015346289">
        <ele>1171.98</ele>
        <time>2025-05-12T07:59:01Z</time>
      </trkpt>
      <trkpt lat="36.927007008343935" lon="-3.365870984271169">
        <ele>1172.47</ele>
        <time>2025-05-12T07:59:02Z</time>
      </trkpt>
      <trkpt lat="36.926978006958961" lon="-3.365755984559655">
        <ele>1172.47</ele>
        <time>2025-05-12T07:59:03Z</time>
      </trkpt>
      <trkpt lat="36.926946993917227" lon="-3.365632016211748">
        <ele>1172.47</ele>
        <time>2025-05-12T07:59:04Z</time>
      </trkpt>
      <trkpt lat="36.926841968670487" lon="-3.365224990993738">
        <ele>1172.47</ele>
        <time>2025-05-12T07:59:07Z</time>
      </trkpt>
      <trkpt lat="36.926791006699204" lon="-3.365096999332309">
        <ele>1172.47</ele>
        <time>2025-05-12T07:59:08Z</time>
      </trkpt>
      <trkpt lat="36.92673996090889" lon="-3.364971019327641">
        <ele>1172.95</ele>
        <time>2025-05-12T07:59:09Z</time>
      </trkpt>
      <trkpt lat="36.926692016422749" lon="-3.364849984645844">
        <ele>1172.95</ele>
        <time>2025-05-12T07:59:10Z</time>
      </trkpt>
      <trkpt lat="36.926637031137943" lon="-3.364713024348021">
        <ele>1173.4300000000001</ele>
        <time>2025-05-12T07:59:11Z</time>
      </trkpt>
      <trkpt lat="36.926637031137943" lon="-3.364606993272901">
        <ele>1173.9100000000001</ele>
        <time>2025-05-12T07:59:12Z</time>
      </trkpt>
      <trkpt lat="36.926637031137943" lon="-3.364470032975078">
        <ele>1173.9100000000001</ele>
        <time>2025-05-12T07:59:13Z</time>
      </trkpt>
      <trkpt lat="36.926649017259479" lon="-3.364332988858223">
        <ele>1173.9100000000001</ele>
        <time>2025-05-12T07:59:14Z</time>
      </trkpt>
      <trkpt lat="36.926665026694536" lon="-3.3641960285604">
        <ele>1173.9100000000001</ele>
        <time>2025-05-12T07:59:15Z</time>
      </trkpt>
      <trkpt lat="36.926681036129594" lon="-3.364054039120674">
        <ele>1173.9100000000001</ele>
        <time>2025-05-12T07:59:16Z</time>
      </trkpt>
      <trkpt lat="36.926697967574" lon="-3.363906014710665">
        <ele>1173.9100000000001</ele>
        <time>2025-05-12T07:59:17Z</time>
      </trkpt>
      <trkpt lat="36.926680030301213" lon="-3.363762013614178">
        <ele>1173.9100000000001</ele>
        <time>2025-05-12T07:59:18Z</time>
      </trkpt>
      <trkpt lat="36.92665203474462" lon="-3.363611977547407">
        <ele>1173.9100000000001</ele>
        <time>2025-05-12T07:59:19Z</time>
      </trkpt>
      <trkpt lat="36.926621021702886" lon="-3.363452972844243">
        <ele>1173.9100000000001</ele>
        <time>2025-05-12T07:59:20Z</time>
      </trkpt>
      <trkpt lat="36.926590008661151" lon="-3.363284999504685">
        <ele>1173.9100000000001</ele>
        <time>2025-05-12T07:59:21Z</time>
      </trkpt>
      <trkpt lat="36.926556983962655" lon="-3.363111997023225">
        <ele>1173.9100000000001</ele>
        <time>2025-05-12T07:59:22Z</time>
      </trkpt>
      <trkpt lat="36.926540974527597" lon="-3.362935977056623">
        <ele>1173.9100000000001</ele>
        <time>2025-05-12T07:59:23Z</time>
      </trkpt>
      <trkpt lat="36.926532005891204" lon="-3.362770015373826">
        <ele>1173.4300000000001</ele>
        <time>2025-05-12T07:59:24Z</time>
      </trkpt>
      <trkpt lat="36.926555978134274" lon="-3.362612016499043">
        <ele>1173.4300000000001</ele>
        <time>2025-05-12T07:59:25Z</time>
      </trkpt>
      <trkpt lat="36.926597971469164" lon="-3.362461980432272">
        <ele>1172.95</ele>
        <time>2025-05-12T07:59:26Z</time>
      </trkpt>
      <trkpt lat="36.926683969795704" lon="-3.362319990992546">
        <ele>1172.95</ele>
        <time>2025-05-12T07:59:27Z</time>
      </trkpt>
      <trkpt lat="36.926768962293863" lon="-3.362181019037962">
        <ele>1172.47</ele>
        <time>2025-05-12T07:59:28Z</time>
      </trkpt>
      <trkpt lat="36.92684699781239" lon="-3.362053027376533">
        <ele>1171.98</ele>
        <time>2025-05-12T07:59:29Z</time>
      </trkpt>
      <trkpt lat="36.926883962005377" lon="-3.361912965774536">
        <ele>1171.5</ele>
        <time>2025-05-12T07:59:30Z</time>
      </trkpt>
      <trkpt lat="36.926880022510886" lon="-3.361773993819952">
        <ele>1171.02</ele>
        <time>2025-05-12T07:59:31Z</time>
      </trkpt>
      <trkpt lat="36.926829982548952" lon="-3.36163803935051">
        <ele>1170.54</ele>
        <time>2025-05-12T07:59:32Z</time>
      </trkpt>
      <trkpt lat="36.926776003092527" lon="-3.361485991626978">
        <ele>1170.0599999999999</ele>
        <time>2025-05-12T07:59:33Z</time>
      </trkpt>
      <trkpt lat="36.92660802975297" lon="-3.361018029972911">
        <ele>1169.0999999999999</ele>
        <time>2025-05-12T07:59:36Z</time>
      </trkpt>
      <trkpt lat="36.92658900283277" lon="-3.360851984471083">
        <ele>1169.0999999999999</ele>
        <time>2025-05-12T07:59:37Z</time>
      </trkpt>
      <trkpt lat="36.926581040024757" lon="-3.360676970332861">
        <ele>1169.0999999999999</ele>
        <time>2025-05-12T07:59:38Z</time>
      </trkpt>
      <trkpt lat="36.926572993397713" lon="-3.360312022268772">
        <ele>1168.6199999999999</ele>
        <time>2025-05-12T07:59:40Z</time>
      </trkpt>
      <trkpt lat="36.926572993397713" lon="-3.360099960118532">
        <ele>1168.1400000000001</ele>
        <time>2025-05-12T07:59:41Z</time>
      </trkpt>
      <trkpt lat="36.926508033648133" lon="-3.359496966004372">
        <ele>1167.1800000000001</ele>
        <time>2025-05-12T07:59:44Z</time>
      </trkpt>
      <trkpt lat="36.926505016162992" lon="-3.358460040763021">
        <ele>1164.77</ele>
        <time>2025-05-12T07:59:49Z</time>
      </trkpt>
      <trkpt lat="36.926480960100889" lon="-3.358273040503264">
        <ele>1164.77</ele>
        <time>2025-05-12T07:59:50Z</time>
      </trkpt>
      <trkpt lat="36.926293959841132" lon="-3.357217004522681">
        <ele>1162.3699999999999</ele>
        <time>2025-05-12T07:59:56Z</time>
      </trkpt>
      <trkpt lat="36.926293959841132" lon="-3.357066968455911">
        <ele>1161.4100000000001</ele>
        <time>2025-05-12T07:59:57Z</time>
      </trkpt>
      <trkpt lat="36.926324972882867" lon="-3.356915004551411">
        <ele>1160.9300000000001</ele>
        <time>2025-05-12T07:59:58Z</time>
      </trkpt>
      <trkpt lat="36.92643703892827" lon="-3.356580985710025">
        <ele>1159.49</ele>
        <time>2025-05-12T08:00:00Z</time>
      </trkpt>
      <trkpt lat="36.926484983414412" lon="-3.356403037905693">
        <ele>1158.53</ele>
        <time>2025-05-12T08:00:01Z</time>
      </trkpt>
      <trkpt lat="36.926556983962655" lon="-3.356058038771153">
        <ele>1156.5999999999999</ele>
        <time>2025-05-12T08:00:03Z</time>
      </trkpt>
      <trkpt lat="36.926623033359647" lon="-3.355888975784183">
        <ele>1155.6400000000001</ele>
        <time>2025-05-12T08:00:04Z</time>
      </trkpt>
      <trkpt lat="36.926711965352297" lon="-3.355728965252638">
        <ele>1154.6800000000001</ele>
        <time>2025-05-12T08:00:05Z</time>
      </trkpt>
      <trkpt lat="36.927130976691842" lon="-3.354970989748836">
        <ele>1149.3900000000001</ele>
        <time>2025-05-12T08:00:10Z</time>
      </trkpt>
      <trkpt lat="36.927165007218719" lon="-3.354834029451013">
        <ele>1148.4300000000001</ele>
        <time>2025-05-12T08:00:11Z</time>
      </trkpt>
      <trkpt lat="36.927156960591674" lon="-3.354732021689415">
        <ele>1147.47</ele>
        <time>2025-05-12T08:00:12Z</time>
      </trkpt>
      <trkpt lat="36.927127037197351" lon="-3.354623978957534">
        <ele>1146.99</ele>
        <time>2025-05-12T08:00:13Z</time>
      </trkpt>
      <trkpt lat="36.927050007507205" lon="-3.354532029479742">
        <ele>1146.03</ele>
        <time>2025-05-12T08:00:14Z</time>
      </trkpt>
      <trkpt lat="36.926963003352284" lon="-3.35448500700295">
        <ele>1145.55</ele>
        <time>2025-05-12T08:00:15Z</time>
      </trkpt>
      <trkpt lat="36.926840962842107" lon="-3.354458017274737">
        <ele>1145.55</ele>
        <time>2025-05-12T08:00:16Z</time>
      </trkpt>
      <trkpt lat="36.926715988665819" lon="-3.354429015889764">
        <ele>1145.0699999999999</ele>
        <time>2025-05-12T08:00:17Z</time>
      </trkpt>
      <trkpt lat="36.926067983731627" lon="-3.354258025065064">
        <ele>1146.03</ele>
        <time>2025-05-12T08:00:24Z</time>
      </trkpt>
      <trkpt lat="36.925992965698242" lon="-3.354219971224666">
        <ele>1147.95</ele>
        <time>2025-05-12T08:00:31Z</time>
      </trkpt>
      <trkpt lat="36.925992965698242" lon="-3.354219971224666">
        <ele>1147.95</ele>
        <time>2025-05-12T08:01:02Z</time>
      </trkpt>
      <trkpt lat="36.925992965698242" lon="-3.354219971224666">
        <ele>1149.3900000000001</ele>
        <time>2025-05-12T08:02:03Z</time>
      </trkpt>
      <trkpt lat="36.925992965698242" lon="-3.354219971224666">
        <ele>1149.3900000000001</ele>
        <time>2025-05-12T08:02:24Z</time>
      </trkpt>
      <trkpt lat="36.925954995676875" lon="-3.354193987324834">
        <ele>1149.8699999999999</ele>
        <time>2025-05-12T08:02:25Z</time>
      </trkpt>
      <trkpt lat="36.925935968756676" lon="-3.354180995374918">
        <ele>1150.3499999999999</ele>
        <time>2025-05-12T08:02:26Z</time>
      </trkpt>
      <trkpt lat="36.925920965149999" lon="-3.354171020910144">
        <ele>1150.8399999999999</ele>
        <time>2025-05-12T08:02:27Z</time>
      </trkpt>
      <trkpt lat="36.925907973200083" lon="-3.354161968454719">
        <ele>1151.3199999999999</ele>
        <time>2025-05-12T08:02:28Z</time>
      </trkpt>
      <trkpt lat="36.925889030098915" lon="-3.354149982333183">
        <ele>1151.3199999999999</ele>
        <time>2025-05-12T08:02:29Z</time>
      </trkpt>
      <trkpt lat="36.925854999572039" lon="-3.354126010090113">
        <ele>1151.3199999999999</ele>
        <time>2025-05-12T08:02:30Z</time>
      </trkpt>
      <trkpt lat="36.925804959610105" lon="-3.354091979563236">
        <ele>1151.8</ele>
        <time>2025-05-12T08:02:31Z</time>
      </trkpt>
      <trkpt lat="36.925742011517286" lon="-3.354048980399966">
        <ele>1151.8</ele>
        <time>2025-05-12T08:02:32Z</time>
      </trkpt>
      <trkpt lat="36.925580995157361" lon="-3.353939009830356">
        <ele>1152.28</ele>
        <time>2025-05-12T08:02:34Z</time>
      </trkpt>
      <trkpt lat="36.925014965236187" lon="-3.353627035394311">
        <ele>1154.6800000000001</ele>
        <time>2025-05-12T08:02:39Z</time>
      </trkpt>
      <trkpt lat="36.924893008545041" lon="-3.353552017360926">
        <ele>1155.6400000000001</ele>
        <time>2025-05-12T08:02:40Z</time>
      </trkpt>
      <trkpt lat="36.924786977469921" lon="-3.353457972407341">
        <ele>1156.5999999999999</ele>
        <time>2025-05-12T08:02:41Z</time>
      </trkpt>
      <trkpt lat="36.924693016335368" lon="-3.353339033201337">
        <ele>1157.5599999999999</ele>
        <time>2025-05-12T08:02:42Z</time>
      </trkpt>
      <trkpt lat="36.924616992473602" lon="-3.35319503210485">
        <ele>1159.01</ele>
        <time>2025-05-12T08:02:43Z</time>
      </trkpt>
      <trkpt lat="36.924537029117346" lon="-3.353040972724557">
        <ele>1159.97</ele>
        <time>2025-05-12T08:02:44Z</time>
      </trkpt>
      <trkpt lat="36.924277022480965" lon="-3.352438984438777">
        <ele>1164.29</ele>
        <time>2025-05-12T08:02:48Z</time>
      </trkpt>
      <trkpt lat="36.924208961427212" lon="-3.352342005819082">
        <ele>1165.26</ele>
        <time>2025-05-12T08:02:49Z</time>
      </trkpt>
      <trkpt lat="36.924150036647916" lon="-3.352259024977684">
        <ele>1165.74</ele>
        <time>2025-05-12T08:02:50Z</time>
      </trkpt>
      <trkpt lat="36.924093961715698" lon="-3.352196998894215">
        <ele>1166.7</ele>
        <time>2025-05-12T08:02:51Z</time>
      </trkpt>
      <trkpt lat="36.92403101362288" lon="-3.352144025266171">
        <ele>1168.1400000000001</ele>
        <time>2025-05-12T08:02:52Z</time>
      </trkpt>
      <trkpt lat="36.923963958397508" lon="-3.352088034152985">
        <ele>1169.0999999999999</ele>
        <time>2025-05-12T08:02:53Z</time>
      </trkpt>
      <trkpt lat="36.923898998647928" lon="-3.352032965049148">
        <ele>1169.5799999999999</ele>
        <time>2025-05-12T08:02:54Z</time>
      </trkpt>
      <trkpt lat="36.923840995877981" lon="-3.351970016956329">
        <ele>1170.0599999999999</ele>
        <time>2025-05-12T08:02:55Z</time>
      </trkpt>
      <trkpt lat="36.923814006149769" lon="-3.351888963952661">
        <ele>1170.54</ele>
        <time>2025-05-12T08:02:56Z</time>
      </trkpt>
      <trkpt lat="36.923815011978149" lon="-3.351790979504585">
        <ele>1171.5</ele>
        <time>2025-05-12T08:02:57Z</time>
      </trkpt>
      <trkpt lat="36.923835966736078" lon="-3.351694000884891">
        <ele>1171.98</ele>
        <time>2025-05-12T08:02:58Z</time>
      </trkpt>
      <trkpt lat="36.923887012526393" lon="-3.351609008386731">
        <ele>1172.47</ele>
        <time>2025-05-12T08:02:59Z</time>
      </trkpt>
      <trkpt lat="36.923973010852933" lon="-3.351537007838488">
        <ele>1173.4300000000001</ele>
        <time>2025-05-12T08:03:00Z</time>
      </trkpt>
      <trkpt lat="36.924068983644247" lon="-3.351460983976722">
        <ele>1173.9100000000001</ele>
        <time>2025-05-12T08:03:01Z</time>
      </trkpt>
      <trkpt lat="36.924170991405845" lon="-3.351380014792085">
        <ele>1174.3900000000001</ele>
        <time>2025-05-12T08:03:02Z</time>
      </trkpt>
      <trkpt lat="36.924277022480965" lon="-3.351296028122306">
        <ele>1174.8699999999999</ele>
        <time>2025-05-12T08:03:03Z</time>
      </trkpt>
      <trkpt lat="36.924482965841889" lon="-3.351133000105619">
        <ele>1175.8299999999999</ele>
        <time>2025-05-12T08:03:05Z</time>
      </trkpt>
      <trkpt lat="36.92536398768425" lon="-3.350221971049905">
        <ele>1181.5999999999999</ele>
        <time>2025-05-12T08:03:14Z</time>
      </trkpt>
      <trkpt lat="36.925479993224144" lon="-3.35010102018714">
        <ele>1182.5599999999999</ele>
        <time>2025-05-12T08:03:15Z</time>
      </trkpt>
      <trkpt lat="36.925788028165698" lon="-3.349619982764125">
        <ele>1184.96</ele>
        <time>2025-05-12T08:03:18Z</time>
      </trkpt>
      <trkpt lat="36.925861034542322" lon="-3.349443040788174">
        <ele>1186.4000000000001</ele>
        <time>2025-05-12T08:03:19Z</time>
      </trkpt>
      <trkpt lat="36.925975028425455" lon="-3.349083960056305">
        <ele>1188.3299999999999</ele>
        <time>2025-05-12T08:03:21Z</time>
      </trkpt>
      <trkpt lat="36.926061026751995" lon="-3.348929984495044">
        <ele>1189.29</ele>
        <time>2025-05-12T08:03:22Z</time>
      </trkpt>
      <trkpt lat="36.926270993426442" lon="-3.348623961210251">
        <ele>1191.6900000000001</ele>
        <time>2025-05-12T08:03:24Z</time>
      </trkpt>
      <trkpt lat="36.926474003121257" lon="-3.348335037007928">
        <ele>1193.6099999999999</ele>
        <time>2025-05-12T08:03:26Z</time>
      </trkpt>
      <trkpt lat="36.92661096341908" lon="-3.348229005932808">
        <ele>1194.5799999999999</ele>
        <time>2025-05-12T08:03:27Z</time>
      </trkpt>
      <trkpt lat="36.926755970343947" lon="-3.348118029534817">
        <ele>1195.54</ele>
        <time>2025-05-12T08:03:28Z</time>
      </trkpt>
      <trkpt lat="36.92690902389586" lon="-3.348001018166542">
        <ele>1196.5</ele>
        <time>2025-05-12T08:03:29Z</time>
      </trkpt>
      <trkpt lat="36.927067022770643" lon="-3.347878977656364">
        <ele>1197.9400000000001</ele>
        <time>2025-05-12T08:03:30Z</time>
      </trkpt>
      <trkpt lat="36.927890041843057" lon="-3.34724698215723">
        <ele>1203.23</ele>
        <time>2025-05-12T08:03:35Z</time>
      </trkpt>
      <trkpt lat="36.928878016769886" lon="-3.346121963113546">
        <ele>1212.3599999999999</ele>
        <time>2025-05-12T08:03:42Z</time>
      </trkpt>
      <trkpt lat="36.928987987339497" lon="-3.345942003652453">
        <ele>1213.8</ele>
        <time>2025-05-12T08:03:43Z</time>
      </trkpt>
      <trkpt lat="36.929093012586236" lon="-3.345757015049458">
        <ele>1214.76</ele>
        <time>2025-05-12T08:03:44Z</time>
      </trkpt>
      <trkpt lat="36.929215975105762" lon="-3.345592981204391">
        <ele>1215.72</ele>
        <time>2025-05-12T08:03:45Z</time>
      </trkpt>
      <trkpt lat="36.929361987859011" lon="-3.345454009249806">
        <ele>1216.6900000000001</ele>
        <time>2025-05-12T08:03:46Z</time>
      </trkpt>
      <trkpt lat="36.929509006440639" lon="-3.345313025638461">
        <ele>1217.6500000000001</ele>
        <time>2025-05-12T08:03:47Z</time>
      </trkpt>
      <trkpt lat="36.929770018905401" lon="-3.34498998709023">
        <ele>1220.05</ele>
        <time>2025-05-12T08:03:49Z</time>
      </trkpt>
      <trkpt lat="36.929888958111405" lon="-3.344809021800757">
        <ele>1221.49</ele>
        <time>2025-05-12T08:03:50Z</time>
      </trkpt>
      <trkpt lat="36.930337976664305" lon="-3.344013998284936">
        <ele>1227.26</ele>
        <time>2025-05-12T08:03:55Z</time>
      </trkpt>
      <trkpt lat="36.930383993312716" lon="-3.343865973874927">
        <ele>1228.7</ele>
        <time>2025-05-12T08:03:56Z</time>
      </trkpt>
      <trkpt lat="36.930421963334084" lon="-3.343706969171763">
        <ele>1229.6600000000001</ele>
        <time>2025-05-12T08:03:57Z</time>
      </trkpt>
      <trkpt lat="36.930444007739425" lon="-3.343543019145727">
        <ele>1230.6199999999999</ele>
        <time>2025-05-12T08:03:58Z</time>
      </trkpt>
      <trkpt lat="36.930464962497354" lon="-3.343383008614183">
        <ele>1231.5899999999999</ele>
        <time>2025-05-12T08:03:59Z</time>
      </trkpt>
      <trkpt lat="36.930505027994514" lon="-3.343074973672628">
        <ele>1233.99</ele>
        <time>2025-05-12T08:04:01Z</time>
      </trkpt>
      <trkpt lat="36.930530006065965" lon="-3.342929966747761">
        <ele>1234.95</ele>
        <time>2025-05-12T08:04:02Z</time>
      </trkpt>
      <trkpt lat="36.930579962208867" lon="-3.342788983136416">
        <ele>1236.3900000000001</ele>
        <time>2025-05-12T08:04:03Z</time>
      </trkpt>
      <trkpt lat="36.93062799051404" lon="-3.342655040323734">
        <ele>1237.3499999999999</ele>
        <time>2025-05-12T08:04:04Z</time>
      </trkpt>
      <trkpt lat="36.930698985233903" lon="-3.342535011470318">
        <ele>1238.8</ele>
        <time>2025-05-12T08:04:05Z</time>
      </trkpt>
      <trkpt lat="36.930767968297005" lon="-3.342418000102043">
        <ele>1239.76</ele>
        <time>2025-05-12T08:04:06Z</time>
      </trkpt>
      <trkpt lat="36.930909035727382" lon="-3.342179032042623">
        <ele>1242.1600000000001</ele>
        <time>2025-05-12T08:04:08Z</time>
      </trkpt>
      <trkpt lat="36.930950023233891" lon="-3.342053974047303">
        <ele>1243.1199999999999</ele>
        <time>2025-05-12T08:04:09Z</time>
      </trkpt>
      <trkpt lat="36.930947005748749" lon="-3.341882983222604">
        <ele>1244.0799999999999</ele>
        <time>2025-05-12T08:04:10Z</time>
      </trkpt>
      <trkpt lat="36.930918004363775" lon="-3.341761026531458">
        <ele>1245.04</ele>
        <time>2025-05-12T08:04:11Z</time>
      </trkpt>
      <trkpt lat="36.930890008807182" lon="-3.34163898602128">
        <ele>1246.49</ele>
        <time>2025-05-12T08:04:12Z</time>
      </trkpt>
      <trkpt lat="36.931001991033554" lon="-3.340431991964579">
        <ele>1250.3299999999999</ele>
        <time>2025-05-12T08:04:20Z</time>
      </trkpt>
      <trkpt lat="36.931455032899976" lon="-3.339360030367971">
        <ele>1248.8900000000001</ele>
        <time>2025-05-12T08:04:28Z</time>
      </trkpt>
      <trkpt lat="36.931643038988113" lon="-3.33903799764812">
        <ele>1247.9300000000001</ele>
        <time>2025-05-12T08:04:31Z</time>
      </trkpt>
      <trkpt lat="36.931671034544706" lon="-3.338939007371664">
        <ele>1247.45</ele>
        <time>2025-05-12T08:04:32Z</time>
      </trkpt>
      <trkpt lat="36.93170104175806" lon="-3.338834987953305">
        <ele>1246.97</ele>
        <time>2025-05-12T08:04:33Z</time>
      </trkpt>
      <trkpt lat="36.931676985695958" lon="-3.338764999061823">
        <ele>1246.97</ele>
        <time>2025-05-12T08:04:34Z</time>
      </trkpt>
      <trkpt lat="36.931641027331352" lon="-3.338659973815084">
        <ele>1246.97</ele>
        <time>2025-05-12T08:04:35Z</time>
      </trkpt>
      <trkpt lat="36.931601967662573" lon="-3.338548997417092">
        <ele>1246.49</ele>
        <time>2025-05-12T08:04:36Z</time>
      </trkpt>
      <trkpt lat="36.931561985984445" lon="-3.338432991877198">
        <ele>1246.97</ele>
        <time>2025-05-12T08:04:37Z</time>
      </trkpt>
      <trkpt lat="36.931522004306316" lon="-3.338316986337304">
        <ele>1246.97</ele>
        <time>2025-05-12T08:04:38Z</time>
      </trkpt>
      <trkpt lat="36.93150800652802" lon="-3.338209027424455">
        <ele>1246.49</ele>
        <time>2025-05-12T08:04:39Z</time>
      </trkpt>
      <trkpt lat="36.93150800652802" lon="-3.338081035763025">
        <ele>1246.49</ele>
        <time>2025-05-12T08:04:40Z</time>
      </trkpt>
      <trkpt lat="36.93150800652802" lon="-3.337934017181397">
        <ele>1246.01</ele>
        <time>2025-05-12T08:04:41Z</time>
      </trkpt>
      <trkpt lat="36.931553017348051" lon="-3.33785698749125">
        <ele>1245.53</ele>
        <time>2025-05-12T08:04:42Z</time>
      </trkpt>
      <trkpt lat="36.931613031774759" lon="-3.337753973901272">
        <ele>1245.04</ele>
        <time>2025-05-12T08:04:43Z</time>
      </trkpt>
      <trkpt lat="36.931675979867578" lon="-3.337646014988422">
        <ele>1244.5599999999999</ele>
        <time>2025-05-12T08:04:44Z</time>
      </trkpt>
      <trkpt lat="36.931884018704295" lon="-3.337237983942032">
        <ele>1241.6800000000001</ele>
        <time>2025-05-12T08:04:48Z</time>
      </trkpt>
      <trkpt lat="36.93191603757441" lon="-3.337161960080266">
        <ele>1241.2</ele>
        <time>2025-05-12T08:04:49Z</time>
      </trkpt>
      <trkpt lat="36.931902961805463" lon="-3.337075039744377">
        <ele>1240.24</ele>
        <time>2025-05-12T08:04:50Z</time>
      </trkpt>
      <trkpt lat="36.931893993169069" lon="-3.337011002004147">
        <ele>1239.76</ele>
        <time>2025-05-12T08:04:51Z</time>
      </trkpt>
      <trkpt lat="36.931835990399122" lon="-3.336966997012496">
        <ele>1239.28</ele>
        <time>2025-05-12T08:04:52Z</time>
      </trkpt>
      <trkpt lat="36.931762984022498" lon="-3.336913017556071">
        <ele>1238.8</ele>
        <time>2025-05-12T08:04:53Z</time>
      </trkpt>
      <trkpt lat="36.931688971817493" lon="-3.336857026442885">
        <ele>1239.28</ele>
        <time>2025-05-12T08:04:54Z</time>
      </trkpt>
      <trkpt lat="36.931615965440869" lon="-3.336786031723023">
        <ele>1239.28</ele>
        <time>2025-05-12T08:04:55Z</time>
      </trkpt>
      <trkpt lat="36.931562991812825" lon="-3.336700033396483">
        <ele>1239.28</ele>
        <time>2025-05-12T08:04:56Z</time>
      </trkpt>
      <trkpt lat="36.931526027619839" lon="-3.336574975401163">
        <ele>1239.28</ele>
        <time>2025-05-12T08:04:57Z</time>
      </trkpt>
      <trkpt lat="36.931518986821175" lon="-3.336453018710017">
        <ele>1239.28</ele>
        <time>2025-05-12T08:04:58Z</time>
      </trkpt>
      <trkpt lat="36.931512029841542" lon="-3.336328966543078">
        <ele>1239.76</ele>
        <time>2025-05-12T08:04:59Z</time>
      </trkpt>
      <trkpt lat="36.931531978771091" lon="-3.336200974881649">
        <ele>1239.76</ele>
        <time>2025-05-12T08:05:00Z</time>
      </trkpt>
      <trkpt lat="36.931581012904644" lon="-3.336083041504026">
        <ele>1239.76</ele>
        <time>2025-05-12T08:05:01Z</time>
      </trkpt>
      <trkpt lat="36.931629963219166" lon="-3.335963012650609">
        <ele>1240.24</ele>
        <time>2025-05-12T08:05:02Z</time>
      </trkpt>
      <trkpt lat="36.931682014837861" lon="-3.335848012939096">
        <ele>1239.76</ele>
        <time>2025-05-12T08:05:03Z</time>
      </trkpt>
      <trkpt lat="36.931738005951047" lon="-3.335735024884343">
        <ele>1239.76</ele>
        <time>2025-05-12T08:05:04Z</time>
      </trkpt>
      <trkpt lat="36.931844037026167" lon="-3.335523968562484">
        <ele>1239.76</ele>
        <time>2025-05-12T08:05:06Z</time>
      </trkpt>
      <trkpt lat="36.931893993169069" lon="-3.335423972457647">
        <ele>1239.76</ele>
        <time>2025-05-12T08:05:07Z</time>
      </trkpt>
      <trkpt lat="36.931884018704295" lon="-3.33532003685832">
        <ele>1239.28</ele>
        <time>2025-05-12T08:05:08Z</time>
      </trkpt>
      <trkpt lat="36.931868009269238" lon="-3.335195984691382">
        <ele>1238.8</ele>
        <time>2025-05-12T08:05:09Z</time>
      </trkpt>
      <trkpt lat="36.931826015934348" lon="-3.335076961666346">
        <ele>1238.3199999999999</ele>
        <time>2025-05-12T08:05:10Z</time>
      </trkpt>
      <trkpt lat="36.931785028427839" lon="-3.334963973611593">
        <ele>1238.3199999999999</ele>
        <time>2025-05-12T08:05:11Z</time>
      </trkpt>
      <trkpt lat="36.93170296959579" lon="-3.33474101498723">
        <ele>1237.8299999999999</ele>
        <time>2025-05-12T08:05:13Z</time>
      </trkpt>
      <trkpt lat="36.931690983474255" lon="-3.334618974477053">
        <ele>1237.8299999999999</ele>
        <time>2025-05-12T08:05:14Z</time>
      </trkpt>
      <trkpt lat="36.93168100900948" lon="-3.334490982815623">
        <ele>1237.8299999999999</ele>
        <time>2025-05-12T08:05:15Z</time>
      </trkpt>
      <trkpt lat="36.93165997043252" lon="-3.334244973957539">
        <ele>1236.3900000000001</ele>
        <time>2025-05-12T08:05:17Z</time>
      </trkpt>
      <trkpt lat="36.931608002632856" lon="-3.334126034751535">
        <ele>1235.9100000000001</ele>
        <time>2025-05-12T08:05:18Z</time>
      </trkpt>
      <trkpt lat="36.931544970721006" lon="-3.334005000069737">
        <ele>1235.4300000000001</ele>
        <time>2025-05-12T08:05:19Z</time>
      </trkpt>
      <trkpt lat="36.931482022628188" lon="-3.333882037550211">
        <ele>1234.47</ele>
        <time>2025-05-12T08:05:20Z</time>
      </trkpt>
      <trkpt lat="36.931421002373099" lon="-3.333767037838697">
        <ele>1233.99</ele>
        <time>2025-05-12T08:05:21Z</time>
      </trkpt>
      <trkpt lat="36.931371968239546" lon="-3.333661006763578">
        <ele>1233.51</ele>
        <time>2025-05-12T08:05:22Z</time>
      </trkpt>
      <trkpt lat="36.93133600987494" lon="-3.33353997208178">
        <ele>1233.51</ele>
        <time>2025-05-12T08:05:23Z</time>
      </trkpt>
      <trkpt lat="36.931326035410166" lon="-3.333414997905493">
        <ele>1233.51</ele>
        <time>2025-05-12T08:05:24Z</time>
      </trkpt>
      <trkpt lat="36.931350007653236" lon="-3.333293963223696">
        <ele>1233.51</ele>
        <time>2025-05-12T08:05:25Z</time>
      </trkpt>
      <trkpt lat="36.931405998766422" lon="-3.333190027624369">
        <ele>1233.51</ele>
        <time>2025-05-12T08:05:26Z</time>
      </trkpt>
      <trkpt lat="36.931474981829524" lon="-3.333093971014023">
        <ele>1233.51</ele>
        <time>2025-05-12T08:05:27Z</time>
      </trkpt>
      <trkpt lat="36.931544970721006" lon="-3.332996992394328">
        <ele>1233.03</ele>
        <time>2025-05-12T08:05:28Z</time>
      </trkpt>
      <trkpt lat="36.931684026494622" lon="-3.332805968821049">
        <ele>1232.55</ele>
        <time>2025-05-12T08:05:30Z</time>
      </trkpt>
      <trkpt lat="36.931755021214485" lon="-3.332708990201354">
        <ele>1232.55</ele>
        <time>2025-05-12T08:05:31Z</time>
      </trkpt>
      <trkpt lat="36.932048974558711" lon="-3.331980016082525">
        <ele>1232.55</ele>
        <time>2025-05-12T08:05:37Z</time>
      </trkpt>
      <trkpt lat="36.932108988985419" lon="-3.331859987229109">
        <ele>1232.55</ele>
        <time>2025-05-12T08:05:38Z</time>
      </trkpt>
      <trkpt lat="36.932190963998437" lon="-3.33175303414464">
        <ele>1233.03</ele>
        <time>2025-05-12T08:05:39Z</time>
      </trkpt>
      <trkpt lat="36.932852966710925" lon="-3.331052977591753">
        <ele>1232.55</ele>
        <time>2025-05-12T08:05:44Z</time>
      </trkpt>
      <trkpt lat="36.932946005836129" lon="-3.330906964838505">
        <ele>1232.0699999999999</ele>
        <time>2025-05-12T08:05:45Z</time>
      </trkpt>
      <trkpt lat="36.933107022196054" lon="-3.330704960972071">
        <ele>1232.0699999999999</ele>
        <time>2025-05-12T08:05:47Z</time>
      </trkpt>
      <trkpt lat="36.933186985552311" lon="-3.330650981515646">
        <ele>1232.0699999999999</ele>
        <time>2025-05-12T08:05:48Z</time>
      </trkpt>
      <trkpt lat="36.933282036334276" lon="-3.330619968473911">
        <ele>1232.0699999999999</ele>
        <time>2025-05-12T08:05:49Z</time>
      </trkpt>
      <trkpt lat="36.933353031054139" lon="-3.330595996230841">
        <ele>1232.0699999999999</ele>
        <time>2025-05-12T08:05:50Z</time>
      </trkpt>
      <trkpt lat="36.933457972481847" lon="-3.330490970984101">
        <ele>1231.5899999999999</ele>
        <time>2025-05-12T08:05:51Z</time>
      </trkpt>
      <trkpt lat="36.933499965816736" lon="-3.330413019284606">
        <ele>1231.1099999999999</ele>
        <time>2025-05-12T08:05:52Z</time>
      </trkpt>
      <trkpt lat="36.933539025485516" lon="-3.330296007916331">
        <ele>1230.6199999999999</ele>
        <time>2025-05-12T08:05:53Z</time>
      </trkpt>
      <trkpt lat="36.933568026870489" lon="-3.33018695935607">
        <ele>1230.6199999999999</ele>
        <time>2025-05-12T08:05:54Z</time>
      </trkpt>
      <trkpt lat="36.933568026870489" lon="-3.330065002664924">
        <ele>1230.1400000000001</ele>
        <time>2025-05-12T08:05:55Z</time>
      </trkpt>
      <trkpt lat="36.933576995506883" lon="-3.329934999346733">
        <ele>1229.6600000000001</ele>
        <time>2025-05-12T08:05:56Z</time>
      </trkpt>
      <trkpt lat="36.933611026033759" lon="-3.329780017957091">
        <ele>1229.1800000000001</ele>
        <time>2025-05-12T08:05:57Z</time>
      </trkpt>
      <trkpt lat="36.933666011318564" lon="-3.329701982438564">
        <ele>1228.7</ele>
        <time>2025-05-12T08:05:58Z</time>
      </trkpt>
      <trkpt lat="36.933728959411383" lon="-3.329613972455263">
        <ele>1228.22</ele>
        <time>2025-05-12T08:05:59Z</time>
      </trkpt>
      <trkpt lat="36.933954013511539" lon="-3.329256987199187">
        <ele>1225.8199999999999</ele>
        <time>2025-05-12T08:06:03Z</time>
      </trkpt>
      <trkpt lat="36.933997012674809" lon="-3.329162020236254">
        <ele>1225.3399999999999</ele>
        <time>2025-05-12T08:06:04Z</time>
      </trkpt>
      <trkpt lat="36.934020984917879" lon="-3.329075016081333">
        <ele>1224.3800000000001</ele>
        <time>2025-05-12T08:06:05Z</time>
      </trkpt>
      <trkpt lat="36.934040011838078" lon="-3.328792965039611">
        <ele>1222.9300000000001</ele>
        <time>2025-05-12T08:06:07Z</time>
      </trkpt>
      <trkpt lat="36.934018973261118" lon="-3.328455006703734">
        <ele>1221.49</ele>
        <time>2025-05-12T08:06:10Z</time>
      </trkpt>
      <trkpt lat="36.934024002403021" lon="-3.328326009213924">
        <ele>1220.53</ele>
        <time>2025-05-12T08:06:11Z</time>
      </trkpt>
      <trkpt lat="36.934184012934566" lon="-3.3278420381248">
        <ele>1218.6099999999999</ele>
        <time>2025-05-12T08:06:15Z</time>
      </trkpt>
      <trkpt lat="36.934382999315858" lon="-3.327284976840019">
        <ele>1215.24</ele>
        <time>2025-05-12T08:06:21Z</time>
      </trkpt>
      <trkpt lat="36.934441002085805" lon="-3.327193027362227">
        <ele>1214.76</ele>
        <time>2025-05-12T08:06:22Z</time>
      </trkpt>
      <trkpt lat="36.934514008462429" lon="-3.327125972136855">
        <ele>1214.76</ele>
        <time>2025-05-12T08:06:23Z</time>
      </trkpt>
      <trkpt lat="36.934587014839053" lon="-3.327057994902134">
        <ele>1214.76</ele>
        <time>2025-05-12T08:06:24Z</time>
      </trkpt>
      <trkpt lat="36.934662032872438" lon="-3.326988006010652">
        <ele>1214.76</ele>
        <time>2025-05-12T08:06:25Z</time>
      </trkpt>
      <trkpt lat="36.934721041470766" lon="-3.326909970492125">
        <ele>1214.76</ele>
        <time>2025-05-12T08:06:26Z</time>
      </trkpt>
      <trkpt lat="36.934764040634036" lon="-3.326806034892798">
        <ele>1214.76</ele>
        <time>2025-05-12T08:06:27Z</time>
      </trkpt>
      <trkpt lat="36.934812990948558" lon="-3.326690029352903">
        <ele>1214.76</ele>
        <time>2025-05-12T08:06:28Z</time>
      </trkpt>
      <trkpt lat="36.934812990948558" lon="-3.326567988842726">
        <ele>1214.76</ele>
        <time>2025-05-12T08:06:29Z</time>
      </trkpt>
      <trkpt lat="36.934812990948558" lon="-3.326437985524535">
        <ele>1214.76</ele>
        <time>2025-05-12T08:06:30Z</time>
      </trkpt>
      <trkpt lat="36.934812990948558" lon="-3.326182002201676">
        <ele>1214.76</ele>
        <time>2025-05-12T08:06:32Z</time>
      </trkpt>
      <trkpt lat="36.934827994555235" lon="-3.326054010540247">
        <ele>1214.76</ele>
        <time>2025-05-12T08:06:33Z</time>
      </trkpt>
      <trkpt lat="36.93486001342535" lon="-3.325934987515211">
        <ele>1214.76</ele>
        <time>2025-05-12T08:06:34Z</time>
      </trkpt>
      <trkpt lat="36.934926984831691" lon="-3.325720997527242">
        <ele>1215.24</ele>
        <time>2025-05-12T08:06:36Z</time>
      </trkpt>
      <trkpt lat="36.935120020061731" lon="-3.325325036421418">
        <ele>1215.72</ele>
        <time>2025-05-12T08:06:41Z</time>
      </trkpt>
      <trkpt lat="36.935341972857714" lon="-3.324993029236794">
        <ele>1215.24</ele>
        <time>2025-05-12T08:06:45Z</time>
      </trkpt>
      <trkpt lat="36.935411961749196" lon="-3.324937038123608">
        <ele>1215.24</ele>
        <time>2025-05-12T08:06:46Z</time>
      </trkpt>
      <trkpt lat="36.935920994728804" lon="-3.324560020118952">
        <ele>1216.21</ele>
        <time>2025-05-12T08:06:54Z</time>
      </trkpt>
      <trkpt lat="36.935986960306764" lon="-3.32451400347054">
        <ele>1216.6900000000001</ele>
        <time>2025-05-12T08:06:55Z</time>
      </trkpt>
      <trkpt lat="36.936116041615605" lon="-3.324391040951014">
        <ele>1217.1700000000001</ele>
        <time>2025-05-12T08:06:57Z</time>
      </trkpt>
      <trkpt lat="36.936182007193565" lon="-3.32431803457439">
        <ele>1217.1700000000001</ele>
        <time>2025-05-12T08:06:58Z</time>
      </trkpt>
      <trkpt lat="36.936242021620274" lon="-3.324242010712624">
        <ele>1217.6500000000001</ele>
        <time>2025-05-12T08:06:59Z</time>
      </trkpt>
      <trkpt lat="36.936294995248318" lon="-3.324151989072561">
        <ele>1218.1300000000001</ele>
        <time>2025-05-12T08:07:00Z</time>
      </trkpt>
      <trkpt lat="36.936346041038632" lon="-3.32406397908926">
        <ele>1218.6099999999999</ele>
        <time>2025-05-12T08:07:01Z</time>
      </trkpt>
      <trkpt lat="36.936446037143469" lon="-3.323889970779419">
        <ele>1219.5699999999999</ele>
        <time>2025-05-12T08:07:03Z</time>
      </trkpt>
      <trkpt lat="36.936503034085035" lon="-3.323812019079924">
        <ele>1220.05</ele>
        <time>2025-05-12T08:07:04Z</time>
      </trkpt>
      <trkpt lat="36.936572017148137" lon="-3.323729038238525">
        <ele>1221.01</ele>
        <time>2025-05-12T08:07:05Z</time>
      </trkpt>
      <trkpt lat="36.936633037403226" lon="-3.323707999661565">
        <ele>1221.97</ele>
        <time>2025-05-12T08:07:06Z</time>
      </trkpt>
      <trkpt lat="36.936703026294708" lon="-3.323682015761733">
        <ele>1222.45</ele>
        <time>2025-05-12T08:07:07Z</time>
      </trkpt>
      <trkpt lat="36.936766980215907" lon="-3.323658965528011">
        <ele>1223.4200000000001</ele>
        <time>2025-05-12T08:07:08Z</time>
      </trkpt>
      <trkpt lat="36.936934031546116" lon="-3.3235680218786">
        <ele>1224.8599999999999</ele>
        <time>2025-05-12T08:07:11Z</time>
      </trkpt>
      <trkpt lat="36.937046013772488" lon="-3.323467019945383">
        <ele>1225.8199999999999</ele>
        <time>2025-05-12T08:07:13Z</time>
      </trkpt>
      <trkpt lat="36.937084989622235" lon="-3.323385966941714">
        <ele>1226.3</ele>
        <time>2025-05-12T08:07:14Z</time>
      </trkpt>
      <trkpt lat="36.937123965471983" lon="-3.323303991928697">
        <ele>1226.3</ele>
        <time>2025-05-12T08:07:15Z</time>
      </trkpt>
      <trkpt lat="36.937163025140762" lon="-3.32322302274406">
        <ele>1226.3</ele>
        <time>2025-05-12T08:07:16Z</time>
      </trkpt>
      <trkpt lat="36.93720200099051" lon="-3.32314096391201">
        <ele>1226.3</ele>
        <time>2025-05-12T08:07:17Z</time>
      </trkpt>
      <trkpt lat="36.93726796656847" lon="-3.322958992794156">
        <ele>1226.78</ele>
        <time>2025-05-12T08:07:19Z</time>
      </trkpt>
      <trkpt lat="36.937282970175147" lon="-3.322865031659603">
        <ele>1226.3</ele>
        <time>2025-05-12T08:07:20Z</time>
      </trkpt>
      <trkpt lat="36.937295962125063" lon="-3.322776015847921">
        <ele>1226.3</ele>
        <time>2025-05-12T08:07:21Z</time>
      </trkpt>
      <trkpt lat="36.93730803206563" lon="-3.322676019743085">
        <ele>1227.26</ele>
        <time>2025-05-12T08:07:22Z</time>
      </trkpt>
      <trkpt lat="36.937318006530404" lon="-3.322574011981487">
        <ele>1227.74</ele>
        <time>2025-05-12T08:07:23Z</time>
      </trkpt>
      <trkpt lat="36.937342984601855" lon="-3.322478039190173">
        <ele>1228.22</ele>
        <time>2025-05-12T08:07:24Z</time>
      </trkpt>
      <trkpt lat="36.937381038442254" lon="-3.322381982579827">
        <ele>1229.1800000000001</ele>
        <time>2025-05-12T08:07:25Z</time>
      </trkpt>
      <trkpt lat="36.937435017898679" lon="-3.322287015616894">
        <ele>1230.1400000000001</ele>
        <time>2025-05-12T08:07:26Z</time>
      </trkpt>
      <trkpt lat="36.937519004568458" lon="-3.322205040603876">
        <ele>1231.1099999999999</ele>
        <time>2025-05-12T08:07:27Z</time>
      </trkpt>
      <trkpt lat="36.937613971531391" lon="-3.322177967056632">
        <ele>1232.0699999999999</ele>
        <time>2025-05-12T08:07:28Z</time>
      </trkpt>
      <trkpt lat="36.937711033970118" lon="-3.322189031168819">
        <ele>1232.55</ele>
        <time>2025-05-12T08:07:29Z</time>
      </trkpt>
      <trkpt lat="36.937790997326374" lon="-3.32223697565496">
        <ele>1234.95</ele>
        <time>2025-05-12T08:07:30Z</time>
      </trkpt>
      <trkpt lat="36.937883030623198" lon="-3.322292966768146">
        <ele>1235.9100000000001</ele>
        <time>2025-05-12T08:07:31Z</time>
      </trkpt>
      <trkpt lat="36.937987972050905" lon="-3.322355998679996">
        <ele>1237.8299999999999</ele>
        <time>2025-05-12T08:07:32Z</time>
      </trkpt>
      <trkpt lat="36.938073970377445" lon="-3.322410983964801">
        <ele>1238.8</ele>
        <time>2025-05-12T08:07:33Z</time>
      </trkpt>
      <trkpt lat="36.938158962875605" lon="-3.322466975077987">
        <ele>1239.76</ele>
        <time>2025-05-12T08:07:34Z</time>
      </trkpt>
      <trkpt lat="36.938440008088946" lon="-3.322651041671634">
        <ele>1243.1199999999999</ele>
        <time>2025-05-12T08:07:38Z</time>
      </trkpt>
      <trkpt lat="36.938586020842195" lon="-3.322705021128058">
        <ele>1244.5599999999999</ele>
        <time>2025-05-12T08:07:40Z</time>
      </trkpt>
      <trkpt lat="36.938819959759712" lon="-3.322738967835903">
        <ele>1246.01</ele>
        <time>2025-05-12T08:07:43Z</time>
      </trkpt>
      <trkpt lat="36.93889900110662" lon="-3.322724970057607">
        <ele>1246.49</ele>
        <time>2025-05-12T08:07:44Z</time>
      </trkpt>
      <trkpt lat="36.938973013311625" lon="-3.322657998651266">
        <ele>1246.97</ele>
        <time>2025-05-12T08:07:45Z</time>
      </trkpt>
      <trkpt lat="36.939045013859868" lon="-3.32257803529501">
        <ele>1247.45</ele>
        <time>2025-05-12T08:07:46Z</time>
      </trkpt>
      <trkpt lat="36.939117014408112" lon="-3.322487007826567">
        <ele>1247.9300000000001</ele>
        <time>2025-05-12T08:07:47Z</time>
      </trkpt>
      <trkpt lat="36.939296973869205" lon="-3.322312999516726">
        <ele>1248.4100000000001</ele>
        <time>2025-05-12T08:07:49Z</time>
      </trkpt>
      <trkpt lat="36.93939495831728" lon="-3.322231024503708">
        <ele>1248.4100000000001</ele>
        <time>2025-05-12T08:07:50Z</time>
      </trkpt>
      <trkpt lat="36.939506018534303" lon="-3.322187019512057">
        <ele>1248.4100000000001</ele>
        <time>2025-05-12T08:07:51Z</time>
      </trkpt>
      <trkpt lat="36.939622024074197" lon="-3.322161035612226">
        <ele>1248.8900000000001</ele>
        <time>2025-05-12T08:07:52Z</time>
      </trkpt>
      <trkpt lat="36.939742974936962" lon="-3.322133962064982">
        <ele>1249.3699999999999</ele>
        <time>2025-05-12T08:07:53Z</time>
      </trkpt>
      <trkpt lat="36.939869038760662" lon="-3.322104960680008">
        <ele>1249.8499999999999</ele>
        <time>2025-05-12T08:07:54Z</time>
      </trkpt>
      <trkpt lat="36.939985966309905" lon="-3.322032960131764">
        <ele>1250.3299999999999</ele>
        <time>2025-05-12T08:07:55Z</time>
      </trkpt>
      <trkpt lat="36.940096020698547" lon="-3.32193598151207">
        <ele>1250.8099999999999</ele>
        <time>2025-05-12T08:07:56Z</time>
      </trkpt>
      <trkpt lat="36.940198028460145" lon="-3.321804972365499">
        <ele>1251.29</ele>
        <time>2025-05-12T08:07:57Z</time>
      </trkpt>
      <trkpt lat="36.940300958231091" lon="-3.321672035381198">
        <ele>1251.29</ele>
        <time>2025-05-12T08:07:58Z</time>
      </trkpt>
      <trkpt lat="36.940389974042773" lon="-3.321537002921104">
        <ele>1251.77</ele>
        <time>2025-05-12T08:07:59Z</time>
      </trkpt>
      <trkpt lat="36.940453005954623" lon="-3.321393001824617">
        <ele>1252.74</ele>
        <time>2025-05-12T08:08:00Z</time>
      </trkpt>
      <trkpt lat="36.940593989565969" lon="-3.321102987974882">
        <ele>1254.1800000000001</ele>
        <time>2025-05-12T08:08:02Z</time>
      </trkpt>
      <trkpt lat="36.940674958750606" lon="-3.320957981050015">
        <ele>1255.1400000000001</ele>
        <time>2025-05-12T08:08:03Z</time>
      </trkpt>
      <trkpt lat="36.940778978168964" lon="-3.320882963016629">
        <ele>1256.0999999999999</ele>
        <time>2025-05-12T08:08:04Z</time>
      </trkpt>
      <trkpt lat="36.940890960395336" lon="-3.320829989388585">
        <ele>1256.5799999999999</ele>
        <time>2025-05-12T08:08:05Z</time>
      </trkpt>
      <trkpt lat="36.940996991470456" lon="-3.32079503685236">
        <ele>1257.54</ele>
        <time>2025-05-12T08:08:06Z</time>
      </trkpt>
      <trkpt lat="36.941094975918531" lon="-3.320762012153864">
        <ele>1258.02</ele>
        <time>2025-05-12T08:08:07Z</time>
      </trkpt>
      <trkpt lat="36.941169993951917" lon="-3.320704009383917">
        <ele>1258.5</ele>
        <time>2025-05-12T08:08:08Z</time>
      </trkpt>
      <trkpt lat="36.941233025863767" lon="-3.32060401327908">
        <ele>1258.98</ele>
        <time>2025-05-12T08:08:09Z</time>
      </trkpt>
      <trkpt lat="36.941293040290475" lon="-3.320509968325496">
        <ele>1259.46</ele>
        <time>2025-05-12T08:08:10Z</time>
      </trkpt>
      <trkpt lat="36.941282982006669" lon="-3.320394968613982">
        <ele>1259.9400000000001</ele>
        <time>2025-05-12T08:08:11Z</time>
      </trkpt>
      <trkpt lat="36.941270995885134" lon="-3.320252979174256">
        <ele>1260.4300000000001</ele>
        <time>2025-05-12T08:08:12Z</time>
      </trkpt>
      <trkpt lat="36.941193966194987" lon="-3.320164969190955">
        <ele>1260.9100000000001</ele>
        <time>2025-05-12T08:08:13Z</time>
      </trkpt>
      <trkpt lat="36.941097993403673" lon="-3.320068996399641">
        <ele>1261.8699999999999</ele>
        <time>2025-05-12T08:08:14Z</time>
      </trkpt>
      <trkpt lat="36.940981987863779" lon="-3.320004958659411">
        <ele>1262.3499999999999</ele>
        <time>2025-05-12T08:08:15Z</time>
      </trkpt>
      <trkpt lat="36.940885009244084" lon="-3.319952990859747">
        <ele>1263.3099999999999</ele>
        <time>2025-05-12T08:08:16Z</time>
      </trkpt>
      <trkpt lat="36.940731033682823" lon="-3.319989033043385">
        <ele>1264.27</ele>
        <time>2025-05-12T08:08:17Z</time>
      </trkpt>
      <trkpt lat="36.940613016486168" lon="-3.320016022771597">
        <ele>1265.23</ele>
        <time>2025-05-12T08:08:18Z</time>
      </trkpt>
      <trkpt lat="36.94049097597599" lon="-3.320029014721513">
        <ele>1265.71</ele>
        <time>2025-05-12T08:08:19Z</time>
      </trkpt>
      <trkpt lat="36.940390979871154" lon="-3.319994984194636">
        <ele>1266.1900000000001</ele>
        <time>2025-05-12T08:08:20Z</time>
      </trkpt>
      <trkpt lat="36.94029601290822" lon="-3.31991602666676">
        <ele>1266.1900000000001</ele>
        <time>2025-05-12T08:08:21Z</time>
      </trkpt>
      <trkpt lat="36.940249996259809" lon="-3.319809995591641">
        <ele>1266.6700000000001</ele>
        <time>2025-05-12T08:08:22Z</time>
      </trkpt>
      <trkpt lat="36.940230969339609" lon="-3.319697007536888">
        <ele>1268.1199999999999</ele>
        <time>2025-05-12T08:08:23Z</time>
      </trkpt>
      <trkpt lat="36.94023298099637" lon="-3.31957396119833">
        <ele>1269.0799999999999</ele>
        <time>2025-05-12T08:08:24Z</time>
      </trkpt>
      <trkpt lat="36.940264999866486" lon="-3.319432977586985">
        <ele>1269.5599999999999</ele>
        <time>2025-05-12T08:08:25Z</time>
      </trkpt>
      <trkpt lat="36.940297018736601" lon="-3.31929299980402">
        <ele>1270.04</ele>
        <time>2025-05-12T08:08:26Z</time>
      </trkpt>
      <trkpt lat="36.940330965444446" lon="-3.319142963737249">
        <ele>1270.52</ele>
        <time>2025-05-12T08:08:27Z</time>
      </trkpt>
      <trkpt lat="36.940371030941606" lon="-3.318969961255789">
        <ele>1270.52</ele>
        <time>2025-05-12T08:08:28Z</time>
      </trkpt>
      <trkpt lat="36.940387962386012" lon="-3.318776004016399">
        <ele>1271</ele>
        <time>2025-05-12T08:08:29Z</time>
      </trkpt>
      <trkpt lat="36.94038201123476" lon="-3.318566037341952">
        <ele>1271</ele>
        <time>2025-05-12T08:08:30Z</time>
      </trkpt>
      <trkpt lat="36.940374970436096" lon="-3.318344000726938">
        <ele>1271</ele>
        <time>2025-05-12T08:08:31Z</time>
      </trkpt>
      <trkpt lat="36.94023298099637" lon="-3.315845020115376">
        <ele>1268.1199999999999</ele>
        <time>2025-05-12T08:08:42Z</time>
      </trkpt>
      <trkpt lat="36.940108006820083" lon="-3.313938975334168">
        <ele>1271.48</ele>
        <time>2025-05-12T08:08:52Z</time>
      </trkpt>
      <trkpt lat="36.940099960193038" lon="-3.31379103474319">
        <ele>1271.96</ele>
        <time>2025-05-12T08:08:53Z</time>
      </trkpt>
      <trkpt lat="36.940090991556644" lon="-3.313644016161561">
        <ele>1272.4400000000001</ele>
        <time>2025-05-12T08:08:54Z</time>
      </trkpt>
      <trkpt lat="36.940114963799715" lon="-3.313534967601299">
        <ele>1273.4000000000001</ele>
        <time>2025-05-12T08:08:55Z</time>
      </trkpt>
      <trkpt lat="36.940157040953636" lon="-3.313420973718166">
        <ele>1273.8800000000001</ele>
        <time>2025-05-12T08:08:56Z</time>
      </trkpt>
      <trkpt lat="36.94022904150188" lon="-3.313329024240375">
        <ele>1274.8499999999999</ele>
        <time>2025-05-12T08:08:57Z</time>
      </trkpt>
      <trkpt lat="36.940306993201375" lon="-3.313228022307158">
        <ele>1275.3299999999999</ele>
        <time>2025-05-12T08:08:58Z</time>
      </trkpt>
      <trkpt lat="36.940549984574318" lon="-3.312915964052081">
        <ele>1276.77</ele>
        <time>2025-05-12T08:09:01Z</time>
      </trkpt>
      <trkpt lat="36.940641012042761" lon="-3.312842035666108">
        <ele>1276.77</ele>
        <time>2025-05-12T08:09:02Z</time>
      </trkpt>
      <trkpt lat="36.941031021997333" lon="-3.312639025971293">
        <ele>1276.29</ele>
        <time>2025-05-12T08:09:06Z</time>
      </trkpt>
      <trkpt lat="36.941120037809014" lon="-3.312603989616036">
        <ele>1276.29</ele>
        <time>2025-05-12T08:09:07Z</time>
      </trkpt>
      <trkpt lat="36.941211987286806" lon="-3.312574988231063">
        <ele>1275.8099999999999</ele>
        <time>2025-05-12T08:09:08Z</time>
      </trkpt>
      <trkpt lat="36.941299997270107" lon="-3.312542969360948">
        <ele>1275.3299999999999</ele>
        <time>2025-05-12T08:09:09Z</time>
      </trkpt>
      <trkpt lat="36.941399993374944" lon="-3.312507010996342">
        <ele>1274.8499999999999</ele>
        <time>2025-05-12T08:09:10Z</time>
      </trkpt>
      <trkpt lat="36.94145699031651" lon="-3.312450014054775">
        <ele>1274.8499999999999</ele>
        <time>2025-05-12T08:09:11Z</time>
      </trkpt>
      <trkpt lat="36.941517004743218" lon="-3.312366027384996">
        <ele>1274.3599999999999</ele>
        <time>2025-05-12T08:09:12Z</time>
      </trkpt>
      <trkpt lat="36.94154298864305" lon="-3.312272988259792">
        <ele>1274.3599999999999</ele>
        <time>2025-05-12T08:09:13Z</time>
      </trkpt>
      <trkpt lat="36.94154198281467" lon="-3.312166035175324">
        <ele>1273.8800000000001</ele>
        <time>2025-05-12T08:09:14Z</time>
      </trkpt>
      <trkpt lat="36.941528990864754" lon="-3.312035026028752">
        <ele>1273.8800000000001</ele>
        <time>2025-05-12T08:09:15Z</time>
      </trkpt>
      <trkpt lat="36.941467970609665" lon="-3.311950033530593">
        <ele>1273.4000000000001</ele>
        <time>2025-05-12T08:09:16Z</time>
      </trkpt>
      <trkpt lat="36.941389013081789" lon="-3.311855988577008">
        <ele>1273.8800000000001</ele>
        <time>2025-05-12T08:09:17Z</time>
      </trkpt>
      <trkpt lat="36.941293962299824" lon="-3.311775019392371">
        <ele>1274.3599999999999</ele>
        <time>2025-05-12T08:09:18Z</time>
      </trkpt>
      <trkpt lat="36.941104028373957" lon="-3.311598999425769">
        <ele>1275.3299999999999</ele>
        <time>2025-05-12T08:09:20Z</time>
      </trkpt>
      <trkpt lat="36.941034039482474" lon="-3.311485005542636">
        <ele>1275.8099999999999</ele>
        <time>2025-05-12T08:09:21Z</time>
      </trkpt>
      <trkpt lat="36.940967990085483" lon="-3.311376962810755">
        <ele>1276.29</ele>
        <time>2025-05-12T08:09:22Z</time>
      </trkpt>
      <trkpt lat="36.940775960683823" lon="-3.311022995039821">
        <ele>1278.21</ele>
        <time>2025-05-12T08:09:26Z</time>
      </trkpt>
      <trkpt lat="36.940732961520553" lon="-3.310925010591745">
        <ele>1278.6900000000001</ele>
        <time>2025-05-12T08:09:27Z</time>
      </trkpt>
      <trkpt lat="36.940722987055779" lon="-3.310811016708612">
        <ele>1278.6900000000001</ele>
        <time>2025-05-12T08:09:28Z</time>
      </trkpt>
      <trkpt lat="36.940711000934243" lon="-3.310691993683577">
        <ele>1279.1700000000001</ele>
        <time>2025-05-12T08:09:29Z</time>
      </trkpt>
      <trkpt lat="36.940700020641088" lon="-3.310570036992431">
        <ele>1279.6500000000001</ele>
        <time>2025-05-12T08:09:30Z</time>
      </trkpt>
      <trkpt lat="36.940689040347934" lon="-3.31044003367424">
        <ele>1279.6500000000001</ele>
        <time>2025-05-12T08:09:31Z</time>
      </trkpt>
      <trkpt lat="36.940673030912876" lon="-3.310153037309647">
        <ele>1280.6099999999999</ele>
        <time>2025-05-12T08:09:33Z</time>
      </trkpt>
      <trkpt lat="36.940632965415716" lon="-3.310020016506314">
        <ele>1280.6099999999999</ele>
        <time>2025-05-12T08:09:34Z</time>
      </trkpt>
      <trkpt lat="36.940579991787672" lon="-3.30990401096642">
        <ele>1280.1300000000001</ele>
        <time>2025-05-12T08:09:35Z</time>
      </trkpt>
      <trkpt lat="36.940513020381331" lon="-3.309803009033203">
        <ele>1279.6500000000001</ele>
        <time>2025-05-12T08:09:36Z</time>
      </trkpt>
      <trkpt lat="36.940442025661469" lon="-3.309713993221521">
        <ele>1279.1700000000001</ele>
        <time>2025-05-12T08:09:37Z</time>
      </trkpt>
      <trkpt lat="36.940304981544614" lon="-3.309518024325371">
        <ele>1278.21</ele>
        <time>2025-05-12T08:09:39Z</time>
      </trkpt>
      <trkpt lat="36.940257037058473" lon="-3.309408975765109">
        <ele>1277.73</ele>
        <time>2025-05-12T08:09:40Z</time>
      </trkpt>
      <trkpt lat="36.940241027623415" lon="-3.309292970225215">
        <ele>1277.25</ele>
        <time>2025-05-12T08:09:41Z</time>
      </trkpt>
      <trkpt lat="36.940241027623415" lon="-3.309161961078644">
        <ele>1276.77</ele>
        <time>2025-05-12T08:09:42Z</time>
      </trkpt>
      <trkpt lat="36.940261982381344" lon="-3.309027012437582">
        <ele>1276.29</ele>
        <time>2025-05-12T08:09:43Z</time>
      </trkpt>
      <trkpt lat="36.940304981544614" lon="-3.308885022997856">
        <ele>1275.8099999999999</ele>
        <time>2025-05-12T08:09:44Z</time>
      </trkpt>
      <trkpt lat="36.940349992364645" lon="-3.308736998587847">
        <ele>1274.8499999999999</ele>
        <time>2025-05-12T08:09:45Z</time>
      </trkpt>
      <trkpt lat="36.940517965704203" lon="-3.308307006955147">
        <ele>1271.48</ele>
        <time>2025-05-12T08:09:48Z</time>
      </trkpt>
      <trkpt lat="36.94100403226912" lon="-3.307386003434658">
        <ele>1264.27</ele>
        <time>2025-05-12T08:09:55Z</time>
      </trkpt>
      <trkpt lat="36.941057005897164" lon="-3.307271003723145">
        <ele>1263.3099999999999</ele>
        <time>2025-05-12T08:09:56Z</time>
      </trkpt>
      <trkpt lat="36.94104602560401" lon="-3.307107975706458">
        <ele>1261.8699999999999</ele>
        <time>2025-05-12T08:09:57Z</time>
      </trkpt>
      <trkpt lat="36.941037978976965" lon="-3.306985013186932">
        <ele>1260.9100000000001</ele>
        <time>2025-05-12T08:09:58Z</time>
      </trkpt>
      <trkpt lat="36.941000008955598" lon="-3.306888034567237">
        <ele>1259.46</ele>
        <time>2025-05-12T08:09:59Z</time>
      </trkpt>
      <trkpt lat="36.940950974822044" lon="-3.306802958250046">
        <ele>1258.5</ele>
        <time>2025-05-12T08:10:00Z</time>
      </trkpt>
      <trkpt lat="36.940906969830394" lon="-3.306725006550551">
        <ele>1257.54</ele>
        <time>2025-05-12T08:10:01Z</time>
      </trkpt>
      <trkpt lat="36.940863970667124" lon="-3.306648982688785">
        <ele>1256.5799999999999</ele>
        <time>2025-05-12T08:10:02Z</time>
      </trkpt>
      <trkpt lat="36.940807979553938" lon="-3.306602966040373">
        <ele>1255.6199999999999</ele>
        <time>2025-05-12T08:10:03Z</time>
      </trkpt>
      <trkpt lat="36.940746959298849" lon="-3.306550998240709">
        <ele>1255.1400000000001</ele>
        <time>2025-05-12T08:10:04Z</time>
      </trkpt>
      <trkpt lat="36.940673030912876" lon="-3.306489977985621">
        <ele>1253.7</ele>
        <time>2025-05-12T08:10:05Z</time>
      </trkpt>
      <trkpt lat="36.940588960424066" lon="-3.306419989094138">
        <ele>1252.74</ele>
        <time>2025-05-12T08:10:06Z</time>
      </trkpt>
      <trkpt lat="36.940502040088177" lon="-3.306347988545895">
        <ele>1251.29</ele>
        <time>2025-05-12T08:10:07Z</time>
      </trkpt>
      <trkpt lat="36.940444959327579" lon="-3.306246986612678">
        <ele>1250.3299999999999</ele>
        <time>2025-05-12T08:10:08Z</time>
      </trkpt>
      <trkpt lat="36.940390979871154" lon="-3.306112037971616">
        <ele>1249.8499999999999</ele>
        <time>2025-05-12T08:10:09Z</time>
      </trkpt>
      <trkpt lat="36.940377987921238" lon="-3.305960996076465">
        <ele>1248.4100000000001</ele>
        <time>2025-05-12T08:10:10Z</time>
      </trkpt>
      <trkpt lat="36.940362984314561" lon="-3.305794028565288">
        <ele>1247.45</ele>
        <time>2025-05-12T08:10:11Z</time>
      </trkpt>
      <trkpt lat="36.940345969051123" lon="-3.305609961971641">
        <ele>1246.01</ele>
        <time>2025-05-12T08:10:12Z</time>
      </trkpt>
      <trkpt lat="36.940327025949955" lon="-3.305404018610716">
        <ele>1245.04</ele>
        <time>2025-05-12T08:10:13Z</time>
      </trkpt>
      <trkpt lat="36.940319985151291" lon="-3.305232021957636">
        <ele>1244.0799999999999</ele>
        <time>2025-05-12T08:10:14Z</time>
      </trkpt>
      <trkpt lat="36.940251002088189" lon="-3.304542023688555">
        <ele>1239.28</ele>
        <time>2025-05-12T08:10:18Z</time>
      </trkpt>
      <trkpt lat="36.940219989046454" lon="-3.304353011772037">
        <ele>1238.3199999999999</ele>
        <time>2025-05-12T08:10:19Z</time>
      </trkpt>
      <trkpt lat="36.940148994326591" lon="-3.304198030382395">
        <ele>1237.8299999999999</ele>
        <time>2025-05-12T08:10:20Z</time>
      </trkpt>
      <trkpt lat="36.940071964636445" lon="-3.304043971002102">
        <ele>1237.3499999999999</ele>
        <time>2025-05-12T08:10:21Z</time>
      </trkpt>
      <trkpt lat="36.939981020987034" lon="-3.303899969905615">
        <ele>1236.8699999999999</ele>
        <time>2025-05-12T08:10:22Z</time>
      </trkpt>
      <trkpt lat="36.939884964376688" lon="-3.303782036527991">
        <ele>1235.9100000000001</ele>
        <time>2025-05-12T08:10:23Z</time>
      </trkpt>
      <trkpt lat="36.939768958836794" lon="-3.303666030988097">
        <ele>1235.4300000000001</ele>
        <time>2025-05-12T08:10:24Z</time>
      </trkpt>
      <trkpt lat="36.939659994095564" lon="-3.303633006289601">
        <ele>1235.4300000000001</ele>
        <time>2025-05-12T08:10:25Z</time>
      </trkpt>
      <trkpt lat="36.939516998827457" lon="-3.303589001297951">
        <ele>1235.4300000000001</ele>
        <time>2025-05-12T08:10:26Z</time>
      </trkpt>
      <trkpt lat="36.939360005781054" lon="-3.303541978821158">
        <ele>1235.4300000000001</ele>
        <time>2025-05-12T08:10:27Z</time>
      </trkpt>
      <trkpt lat="36.93919999524951" lon="-3.30347802489996">
        <ele>1234.95</ele>
        <time>2025-05-12T08:10:28Z</time>
      </trkpt>
      <trkpt lat="36.937751015648246" lon="-3.302757013589144">
        <ele>1230.6199999999999</ele>
        <time>2025-05-12T08:10:37Z</time>
      </trkpt>
      <trkpt lat="36.937223961576819" lon="-3.302501030266285">
        <ele>1227.74</ele>
        <time>2025-05-12T08:10:41Z</time>
      </trkpt>
      <trkpt lat="36.937122037634254" lon="-3.302386030554771">
        <ele>1226.3</ele>
        <time>2025-05-12T08:10:42Z</time>
      </trkpt>
      <trkpt lat="36.937023969367146" lon="-3.302252003923059">
        <ele>1225.3399999999999</ele>
        <time>2025-05-12T08:10:43Z</time>
      </trkpt>
      <trkpt lat="36.9369210395962" lon="-3.302111020311713">
        <ele>1223.9000000000001</ele>
        <time>2025-05-12T08:10:44Z</time>
      </trkpt>
      <trkpt lat="36.936809979379177" lon="-3.301973976194859">
        <ele>1222.9300000000001</ele>
        <time>2025-05-12T08:10:45Z</time>
      </trkpt>
      <trkpt lat="36.936693973839283" lon="-3.301856964826584">
        <ele>1221.97</ele>
        <time>2025-05-12T08:10:46Z</time>
      </trkpt>
      <trkpt lat="36.936478978022933" lon="-3.301641969010234">
        <ele>1220.05</ele>
        <time>2025-05-12T08:10:48Z</time>
      </trkpt>
      <trkpt lat="36.936398008838296" lon="-3.301528980955482">
        <ele>1218.6099999999999</ele>
        <time>2025-05-12T08:10:49Z</time>
      </trkpt>
      <trkpt lat="36.936389040201902" lon="-3.301380034536123">
        <ele>1217.6500000000001</ele>
        <time>2025-05-12T08:10:50Z</time>
      </trkpt>
      <trkpt lat="36.936378981918097" lon="-3.301220024004579">
        <ele>1216.6900000000001</ele>
        <time>2025-05-12T08:10:51Z</time>
      </trkpt>
      <trkpt lat="36.936418963596225" lon="-3.301051966845989">
        <ele>1215.72</ele>
        <time>2025-05-12T08:10:52Z</time>
      </trkpt>
      <trkpt lat="36.936462968587875" lon="-3.300871001556516">
        <ele>1214.28</ele>
        <time>2025-05-12T08:10:53Z</time>
      </trkpt>
      <trkpt lat="36.936754994094372" lon="-3.299922002479434">
        <ele>1208.51</ele>
        <time>2025-05-12T08:10:58Z</time>
      </trkpt>
      <trkpt lat="36.936832023784518" lon="-3.299779007211328">
        <ele>1207.55</ele>
        <time>2025-05-12T08:10:59Z</time>
      </trkpt>
      <trkpt lat="36.936950962990522" lon="-3.299655038863421">
        <ele>1206.5899999999999</ele>
        <time>2025-05-12T08:11:00Z</time>
      </trkpt>
      <trkpt lat="36.9370730035007" lon="-3.299528975039721">
        <ele>1205.6300000000001</ele>
        <time>2025-05-12T08:11:01Z</time>
      </trkpt>
      <trkpt lat="36.937192026525736" lon="-3.299406012520194">
        <ele>1204.1900000000001</ele>
        <time>2025-05-12T08:11:02Z</time>
      </trkpt>
      <trkpt lat="36.937487991526723" lon="-3.299012985080481">
        <ele>1200.8199999999999</ele>
        <time>2025-05-12T08:11:05Z</time>
      </trkpt>
      <trkpt lat="36.937557980418205" lon="-3.298861021175981">
        <ele>1199.8599999999999</ele>
        <time>2025-05-12T08:11:06Z</time>
      </trkpt>
      <trkpt lat="36.93763199262321" lon="-3.298704028129578">
        <ele>1198.4200000000001</ele>
        <time>2025-05-12T08:11:07Z</time>
      </trkpt>
      <trkpt lat="36.937701981514692" lon="-3.298552986234427">
        <ele>1197.46</ele>
        <time>2025-05-12T08:11:08Z</time>
      </trkpt>
      <trkpt lat="36.937786974012852" lon="-3.298437986522913">
        <ele>1196.5</ele>
        <time>2025-05-12T08:11:09Z</time>
      </trkpt>
      <trkpt lat="36.937869032844901" lon="-3.298337990418077">
        <ele>1195.54</ele>
        <time>2025-05-12T08:11:10Z</time>
      </trkpt>
      <trkpt lat="36.937974980100989" lon="-3.298262972384691">
        <ele>1194.5799999999999</ele>
        <time>2025-05-12T08:11:11Z</time>
      </trkpt>
      <trkpt lat="36.938088973984122" lon="-3.298182003200054">
        <ele>1193.6099999999999</ele>
        <time>2025-05-12T08:11:12Z</time>
      </trkpt>
      <trkpt lat="36.938584009185433" lon="-3.297770032659173">
        <ele>1189.77</ele>
        <time>2025-05-12T08:11:16Z</time>
      </trkpt>
      <trkpt lat="36.938681993633509" lon="-3.297642040997744">
        <ele>1189.29</ele>
        <time>2025-05-12T08:11:17Z</time>
      </trkpt>
      <trkpt lat="36.938944011926651" lon="-3.297239039093256">
        <ele>1186.4000000000001</ele>
        <time>2025-05-12T08:11:20Z</time>
      </trkpt>
      <trkpt lat="36.93905096501112" lon="-3.297132002189755">
        <ele>1185.4400000000001</ele>
        <time>2025-05-12T08:11:21Z</time>
      </trkpt>
      <trkpt lat="36.939236037433147" lon="-3.296921029686928">
        <ele>1184</ele>
        <time>2025-05-12T08:11:23Z</time>
      </trkpt>
      <trkpt lat="36.939276019111276" lon="-3.29681801609695">
        <ele>1183.52</ele>
        <time>2025-05-12T08:11:24Z</time>
      </trkpt>
      <trkpt lat="36.939276019111276" lon="-3.296710979193449">
        <ele>1182.5599999999999</ele>
        <time>2025-05-12T08:11:25Z</time>
      </trkpt>
      <trkpt lat="36.939255986362696" lon="-3.296595979481936">
        <ele>1182.0799999999999</ele>
        <time>2025-05-12T08:11:26Z</time>
      </trkpt>
      <trkpt lat="36.93922103382647" lon="-3.296466981992126">
        <ele>1181.5999999999999</ele>
        <time>2025-05-12T08:11:27Z</time>
      </trkpt>
      <trkpt lat="36.939187003299594" lon="-3.296327004209161">
        <ele>1181.1199999999999</ele>
        <time>2025-05-12T08:11:28Z</time>
      </trkpt>
      <trkpt lat="36.939164036884904" lon="-3.296167999505997">
        <ele>1180.6400000000001</ele>
        <time>2025-05-12T08:11:29Z</time>
      </trkpt>
      <trkpt lat="36.939145009964705" lon="-3.296036990359426">
        <ele>1180.1600000000001</ele>
        <time>2025-05-12T08:11:30Z</time>
      </trkpt>
      <trkpt lat="36.939132018014789" lon="-3.295945040881634">
        <ele>1180.1600000000001</ele>
        <time>2025-05-12T08:11:31Z</time>
      </trkpt>
      <trkpt lat="36.939118020236492" lon="-3.295845966786146">
        <ele>1179.6700000000001</ele>
        <time>2025-05-12T08:11:32Z</time>
      </trkpt>
      <trkpt lat="36.939101004973054" lon="-3.295738007873297">
        <ele>1179.6700000000001</ele>
        <time>2025-05-12T08:11:33Z</time>
      </trkpt>
      <trkpt lat="36.939064040780067" lon="-3.295627031475306">
        <ele>1179.6700000000001</ele>
        <time>2025-05-12T08:11:34Z</time>
      </trkpt>
      <trkpt lat="36.939016012474895" lon="-3.29552804119885">
        <ele>1179.1900000000001</ele>
        <time>2025-05-12T08:11:35Z</time>
      </trkpt>
      <trkpt lat="36.938947029411793" lon="-3.295451011508703">
        <ele>1179.1900000000001</ele>
        <time>2025-05-12T08:11:36Z</time>
      </trkpt>
      <trkpt lat="36.938880980014801" lon="-3.295374987646937">
        <ele>1179.1900000000001</ele>
        <time>2025-05-12T08:11:37Z</time>
      </trkpt>
      <trkpt lat="36.938816020265222" lon="-3.295301981270313">
        <ele>1179.1900000000001</ele>
        <time>2025-05-12T08:11:38Z</time>
      </trkpt>
      <trkpt lat="36.938752988353372" lon="-3.29522998072207">
        <ele>1179.1900000000001</ele>
        <time>2025-05-12T08:11:39Z</time>
      </trkpt>
      <trkpt lat="36.938701020553708" lon="-3.295153034850955">
        <ele>1179.1900000000001</ele>
        <time>2025-05-12T08:11:40Z</time>
      </trkpt>
      <trkpt lat="36.938665984198451" lon="-3.295073993504047">
        <ele>1179.1900000000001</ele>
        <time>2025-05-12T08:11:41Z</time>
      </trkpt>
      <trkpt lat="36.938632037490606" lon="-3.29499302431941">
        <ele>1179.1900000000001</ele>
        <time>2025-05-12T08:11:42Z</time>
      </trkpt>
      <trkpt lat="36.938632037490606" lon="-3.294910965487361">
        <ele>1179.1900000000001</ele>
        <time>2025-05-12T08:11:43Z</time>
      </trkpt>
      <trkpt lat="36.938640000298619" lon="-3.294812981039286">
        <ele>1179.6700000000001</ele>
        <time>2025-05-12T08:11:44Z</time>
      </trkpt>
      <trkpt lat="36.938660033047199" lon="-3.294722037389875">
        <ele>1179.6700000000001</ele>
        <time>2025-05-12T08:11:45Z</time>
      </trkpt>
      <trkpt lat="36.938681993633509" lon="-3.294624974951148">
        <ele>1180.1600000000001</ele>
        <time>2025-05-12T08:11:46Z</time>
      </trkpt>
      <trkpt lat="36.938705965876579" lon="-3.29451902769506">
        <ele>1180.1600000000001</ele>
        <time>2025-05-12T08:11:47Z</time>
      </trkpt>
      <trkpt lat="36.938738990575075" lon="-3.294375026598573">
        <ele>1180.1600000000001</ele>
        <time>2025-05-12T08:11:48Z</time>
      </trkpt>
      <trkpt lat="36.938690040260553" lon="-3.293880997225642">
        <ele>1183.04</ele>
        <time>2025-05-12T08:11:52Z</time>
      </trkpt>
      <trkpt lat="36.938671013340354" lon="-3.293738001957536">
        <ele>1184</ele>
        <time>2025-05-12T08:11:53Z</time>
      </trkpt>
      <trkpt lat="36.938353003934026" lon="-3.292680038139224">
        <ele>1191.6900000000001</ele>
        <time>2025-05-12T08:12:02Z</time>
      </trkpt>
      <trkpt lat="36.938357027247548" lon="-3.29256403259933">
        <ele>1192.1700000000001</ele>
        <time>2025-05-12T08:12:03Z</time>
      </trkpt>
      <trkpt lat="36.938360966742039" lon="-3.292448027059436">
        <ele>1193.1300000000001</ele>
        <time>2025-05-12T08:12:04Z</time>
      </trkpt>
      <trkpt lat="36.938364990055561" lon="-3.292332021519542">
        <ele>1194.0899999999999</ele>
        <time>2025-05-12T08:12:05Z</time>
      </trkpt>
      <trkpt lat="36.938368007540703" lon="-3.29222003929317">
        <ele>1194.5799999999999</ele>
        <time>2025-05-12T08:12:06Z</time>
      </trkpt>
      <trkpt lat="36.938368007540703" lon="-3.291999008506537">
        <ele>1195.54</ele>
        <time>2025-05-12T08:12:08Z</time>
      </trkpt>
      <trkpt lat="36.938347974792123" lon="-3.291889959946275">
        <ele>1196.5</ele>
        <time>2025-05-12T08:12:09Z</time>
      </trkpt>
      <trkpt lat="36.93831997923553" lon="-3.291775966063142">
        <ele>1197.46</ele>
        <time>2025-05-12T08:12:10Z</time>
      </trkpt>
      <trkpt lat="36.938263988122344" lon="-3.291664989665151">
        <ele>1198.4200000000001</ele>
        <time>2025-05-12T08:12:11Z</time>
      </trkpt>
      <trkpt lat="36.938196010887623" lon="-3.291547978296876">
        <ele>1199.8599999999999</ele>
        <time>2025-05-12T08:12:12Z</time>
      </trkpt>
      <trkpt lat="36.938042035326362" lon="-3.291299035772681">
        <ele>1201.79</ele>
        <time>2025-05-12T08:12:14Z</time>
      </trkpt>
      <trkpt lat="36.937967017292976" lon="-3.291178001090884">
        <ele>1202.75</ele>
        <time>2025-05-12T08:12:15Z</time>
      </trkpt>
      <trkpt lat="36.937933992594481" lon="-3.291014973074198">
        <ele>1204.1900000000001</ele>
        <time>2025-05-12T08:12:16Z</time>
      </trkpt>
      <trkpt lat="36.937900967895985" lon="-3.290851023048163">
        <ele>1205.1500000000001</ele>
        <time>2025-05-12T08:12:17Z</time>
      </trkpt>
      <trkpt lat="36.937881018966436" lon="-3.290680032223463">
        <ele>1206.1099999999999</ele>
        <time>2025-05-12T08:12:18Z</time>
      </trkpt>
      <trkpt lat="36.937888981774449" lon="-3.290365040302277">
        <ele>1208.51</ele>
        <time>2025-05-12T08:12:20Z</time>
      </trkpt>
      <trkpt lat="36.937917983159423" lon="-3.290235036984086">
        <ele>1209.96</ele>
        <time>2025-05-12T08:12:21Z</time>
      </trkpt>
      <trkpt lat="36.937967017292976" lon="-3.290168987587094">
        <ele>1210.4400000000001</ele>
        <time>2025-05-12T08:12:22Z</time>
      </trkpt>
      <trkpt lat="36.938066007569432" lon="-3.290157001465559">
        <ele>1210.9200000000001</ele>
        <time>2025-05-12T08:12:23Z</time>
      </trkpt>
      <trkpt lat="36.938161980360746" lon="-3.290154989808798">
        <ele>1211.4000000000001</ele>
        <time>2025-05-12T08:12:24Z</time>
      </trkpt>
      <trkpt lat="36.938285026699305" lon="-3.290193965658546">
        <ele>1211.4000000000001</ele>
        <time>2025-05-12T08:12:25Z</time>
      </trkpt>
      <trkpt lat="36.938425004482269" lon="-3.290237970650196">
        <ele>1211.8800000000001</ele>
        <time>2025-05-12T08:12:26Z</time>
      </trkpt>
      <trkpt lat="36.938912998884916" lon="-3.29039404168725">
        <ele>1212.8399999999999</ele>
        <time>2025-05-12T08:12:29Z</time>
      </trkpt>
      <trkpt lat="36.939076026901603" lon="-3.290394963696599">
        <ele>1212.8399999999999</ele>
        <time>2025-05-12T08:12:30Z</time>
      </trkpt>
      <trkpt lat="36.93922002799809" lon="-3.290362022817135">
        <ele>1213.3199999999999</ele>
        <time>2025-05-12T08:12:31Z</time>
      </trkpt>
      <trkpt lat="36.939355982467532" lon="-3.290265966206789">
        <ele>1213.8</ele>
        <time>2025-05-12T08:12:32Z</time>
      </trkpt>
      <trkpt lat="36.939497971907258" lon="-3.290164964273572">
        <ele>1214.28</ele>
        <time>2025-05-12T08:12:33Z</time>
      </trkpt>
      <trkpt lat="36.939640967175364" lon="-3.290063962340355">
        <ele>1215.24</ele>
        <time>2025-05-12T08:12:34Z</time>
      </trkpt>
      <trkpt lat="36.939750015735626" lon="-3.289942005649209">
        <ele>1215.72</ele>
        <time>2025-05-12T08:12:35Z</time>
      </trkpt>
      <trkpt lat="36.939826961606741" lon="-3.289808984845877">
        <ele>1216.21</ele>
        <time>2025-05-12T08:12:36Z</time>
      </trkpt>
      <trkpt lat="36.939863003790379" lon="-3.289677975699306">
        <ele>1217.1700000000001</ele>
        <time>2025-05-12T08:12:37Z</time>
      </trkpt>
      <trkpt lat="36.939875995740294" lon="-3.289526011794806">
        <ele>1217.6500000000001</ele>
        <time>2025-05-12T08:12:38Z</time>
      </trkpt>
      <trkpt lat="36.939890999346972" lon="-3.289361977949739">
        <ele>1218.6099999999999</ele>
        <time>2025-05-12T08:12:39Z</time>
      </trkpt>
      <trkpt lat="36.939924024045467" lon="-3.289195010438561">
        <ele>1219.0899999999999</ele>
        <time>2025-05-12T08:12:40Z</time>
      </trkpt>
      <trkpt lat="36.939961994066834" lon="-3.289053020998836">
        <ele>1220.05</ele>
        <time>2025-05-12T08:12:41Z</time>
      </trkpt>
      <trkpt lat="36.940068025141954" lon="-3.288922011852264">
        <ele>1220.53</ele>
        <time>2025-05-12T08:12:42Z</time>
      </trkpt>
      <trkpt lat="36.940171038731933" lon="-3.288792008534074">
        <ele>1221.49</ele>
        <time>2025-05-12T08:12:43Z</time>
      </trkpt>
      <trkpt lat="36.940286038443446" lon="-3.288649013265967">
        <ele>1222.45</ele>
        <time>2025-05-12T08:12:44Z</time>
      </trkpt>
      <trkpt lat="36.940401960164309" lon="-3.288495037704706">
        <ele>1223.4200000000001</ele>
        <time>2025-05-12T08:12:45Z</time>
      </trkpt>
      <trkpt lat="36.94049097597599" lon="-3.288304014131427">
        <ele>1224.8599999999999</ele>
        <time>2025-05-12T08:12:46Z</time>
      </trkpt>
      <trkpt lat="36.940583009272814" lon="-3.288108967244625">
        <ele>1225.8199999999999</ele>
        <time>2025-05-12T08:12:47Z</time>
      </trkpt>
      <trkpt lat="36.940664984285831" lon="-3.287933031097055">
        <ele>1226.78</ele>
        <time>2025-05-12T08:12:48Z</time>
      </trkpt>
      <trkpt lat="36.940756011754274" lon="-3.287791041657329">
        <ele>1228.22</ele>
        <time>2025-05-12T08:12:49Z</time>
      </trkpt>
      <trkpt lat="36.940996991470456" lon="-3.287564981728792">
        <ele>1230.1400000000001</ele>
        <time>2025-05-12T08:12:51Z</time>
      </trkpt>
      <trkpt lat="36.941091036424041" lon="-3.287421986460686">
        <ele>1231.5899999999999</ele>
        <time>2025-05-12T08:12:52Z</time>
      </trkpt>
      <trkpt lat="36.941178040578961" lon="-3.287287037819624">
        <ele>1233.03</ele>
        <time>2025-05-12T08:12:53Z</time>
      </trkpt>
      <trkpt lat="36.941270995885134" lon="-3.287143958732486">
        <ele>1233.99</ele>
        <time>2025-05-12T08:12:54Z</time>
      </trkpt>
      <trkpt lat="36.941388007253408" lon="-3.287071036174893">
        <ele>1234.95</ele>
        <time>2025-05-12T08:12:55Z</time>
      </trkpt>
      <trkpt lat="36.941508958116174" lon="-3.286995012313128">
        <ele>1235.9100000000001</ele>
        <time>2025-05-12T08:12:56Z</time>
      </trkpt>
      <trkpt lat="36.942225024104118" lon="-3.286629980430007">
        <ele>1241.6800000000001</ele>
        <time>2025-05-12T08:13:02Z</time>
      </trkpt>
      <trkpt lat="36.942303981631994" lon="-3.286540964618325">
        <ele>1242.6400000000001</ele>
        <time>2025-05-12T08:13:03Z</time>
      </trkpt>
      <trkpt lat="36.942392997443676" lon="-3.286440968513489">
        <ele>1243.5999999999999</ele>
        <time>2025-05-12T08:13:04Z</time>
      </trkpt>
      <trkpt lat="36.942493999376893" lon="-3.286327980458736">
        <ele>1244.5599999999999</ele>
        <time>2025-05-12T08:13:05Z</time>
      </trkpt>
      <trkpt lat="36.942591983824968" lon="-3.286264026537538">
        <ele>1246.01</ele>
        <time>2025-05-12T08:13:06Z</time>
      </trkpt>
      <trkpt lat="36.942707989364862" lon="-3.286185991019011">
        <ele>1247.45</ele>
        <time>2025-05-12T08:13:07Z</time>
      </trkpt>
      <trkpt lat="36.943070003762841" lon="-3.28596998937428">
        <ele>1251.77</ele>
        <time>2025-05-12T08:13:10Z</time>
      </trkpt>
      <trkpt lat="36.943180980160832" lon="-3.285941993817687">
        <ele>1252.74</ele>
        <time>2025-05-12T08:13:11Z</time>
      </trkpt>
      <trkpt lat="36.943301009014249" lon="-3.285955991595984">
        <ele>1254.1800000000001</ele>
        <time>2025-05-12T08:13:12Z</time>
      </trkpt>
      <trkpt lat="36.943546012043953" lon="-3.285984992980957">
        <ele>1256.5799999999999</ele>
        <time>2025-05-12T08:13:14Z</time>
      </trkpt>
      <trkpt lat="36.943689007312059" lon="-3.285923972725868">
        <ele>1257.54</ele>
        <time>2025-05-12T08:13:15Z</time>
      </trkpt>
      <trkpt lat="36.943796966224909" lon="-3.285832023248076">
        <ele>1258.98</ele>
        <time>2025-05-12T08:13:16Z</time>
      </trkpt>
      <trkpt lat="36.943907020613551" lon="-3.285734038800001">
        <ele>1259.9400000000001</ele>
        <time>2025-05-12T08:13:17Z</time>
      </trkpt>
      <trkpt lat="36.944012967869639" lon="-3.285640999674797">
        <ele>1261.3900000000001</ele>
        <time>2025-05-12T08:13:18Z</time>
      </trkpt>
      <trkpt lat="36.944121010601521" lon="-3.285571010783315">
        <ele>1262.3499999999999</ele>
        <time>2025-05-12T08:13:19Z</time>
      </trkpt>
      <trkpt lat="36.944239027798176" lon="-3.285518037155271">
        <ele>1263.3099999999999</ele>
        <time>2025-05-12T08:13:20Z</time>
      </trkpt>
      <trkpt lat="36.944358972832561" lon="-3.285486018285155">
        <ele>1264.75</ele>
        <time>2025-05-12T08:13:21Z</time>
      </trkpt>
      <trkpt lat="36.944475984200835" lon="-3.28547696582973">
        <ele>1265.71</ele>
        <time>2025-05-12T08:13:22Z</time>
      </trkpt>
      <trkpt lat="36.944589978083968" lon="-3.285505967214704">
        <ele>1267.1600000000001</ele>
        <time>2025-05-12T08:13:23Z</time>
      </trkpt>
      <trkpt lat="36.944676982238889" lon="-3.285592971369624">
        <ele>1268.5999999999999</ele>
        <time>2025-05-12T08:13:24Z</time>
      </trkpt>
      <trkpt lat="36.94476499222219" lon="-3.285680981352925">
        <ele>1269.5599999999999</ele>
        <time>2025-05-12T08:13:25Z</time>
      </trkpt>
      <trkpt lat="36.944812014698982" lon="-3.285728003829718">
        <ele>1270.52</ele>
        <time>2025-05-12T08:13:26Z</time>
      </trkpt>
      <trkpt lat="36.944944029673934" lon="-3.285772008821368">
        <ele>1271</ele>
        <time>2025-05-12T08:13:27Z</time>
      </trkpt>
      <trkpt lat="36.945029022172093" lon="-3.285767985507846">
        <ele>1271.96</ele>
        <time>2025-05-12T08:13:28Z</time>
      </trkpt>
      <trkpt lat="36.945096999406815" lon="-3.285700008273125">
        <ele>1272.9200000000001</ele>
        <time>2025-05-12T08:13:29Z</time>
      </trkpt>
      <trkpt lat="36.94515299052" lon="-3.285594983026385">
        <ele>1273.4000000000001</ele>
        <time>2025-05-12T08:13:30Z</time>
      </trkpt>
      <trkpt lat="36.945189032703638" lon="-3.285461962223053">
        <ele>1274.3599999999999</ele>
        <time>2025-05-12T08:13:31Z</time>
      </trkpt>
      <trkpt lat="36.945224991068244" lon="-3.285334976390004">
        <ele>1275.3299999999999</ele>
        <time>2025-05-12T08:13:32Z</time>
      </trkpt>
      <trkpt lat="36.945270001888275" lon="-3.285229029133916">
        <ele>1276.29</ele>
        <time>2025-05-12T08:13:33Z</time>
      </trkpt>
      <trkpt lat="36.945357006043196" lon="-3.285161973908544">
        <ele>1276.77</ele>
        <time>2025-05-12T08:13:34Z</time>
      </trkpt>
      <trkpt lat="36.94547401741147" lon="-3.285150993615389">
        <ele>1278.21</ele>
        <time>2025-05-12T08:13:35Z</time>
      </trkpt>
      <trkpt lat="36.945605026558042" lon="-3.28517303802073">
        <ele>1278.6900000000001</ele>
        <time>2025-05-12T08:13:36Z</time>
      </trkpt>
      <trkpt lat="36.945748021826148" lon="-3.285197010263801">
        <ele>1279.1700000000001</ele>
        <time>2025-05-12T08:13:37Z</time>
      </trkpt>
      <trkpt lat="36.946040969341993" lon="-3.285233974456787">
        <ele>1280.6099999999999</ele>
        <time>2025-05-12T08:13:39Z</time>
      </trkpt>
      <trkpt lat="36.946176001802087" lon="-3.285233974456787">
        <ele>1281.5699999999999</ele>
        <time>2025-05-12T08:13:40Z</time>
      </trkpt>
      <trkpt lat="36.946299970149994" lon="-3.285231962800026">
        <ele>1282.54</ele>
        <time>2025-05-12T08:13:41Z</time>
      </trkpt>
      <trkpt lat="36.946700038388371" lon="-3.285128027200699">
        <ele>1284.46</ele>
        <time>2025-05-12T08:13:44Z</time>
      </trkpt>
      <trkpt lat="36.946852002292871" lon="-3.285115035250783">
        <ele>1284.9400000000001</ele>
        <time>2025-05-12T08:13:45Z</time>
      </trkpt>
      <trkpt lat="36.947005977854133" lon="-3.285138001665473">
        <ele>1285.9000000000001</ele>
        <time>2025-05-12T08:13:46Z</time>
      </trkpt>
      <trkpt lat="36.947161965072155" lon="-3.285161973908544">
        <ele>1286.3800000000001</ele>
        <time>2025-05-12T08:13:47Z</time>
      </trkpt>
      <trkpt lat="36.947313006967306" lon="-3.285228023305535">
        <ele>1287.3399999999999</ele>
        <time>2025-05-12T08:13:48Z</time>
      </trkpt>
      <trkpt lat="36.94745197892189" lon="-3.285312009975314">
        <ele>1287.8199999999999</ele>
        <time>2025-05-12T08:13:49Z</time>
      </trkpt>
      <trkpt lat="36.947589023038745" lon="-3.285393984988332">
        <ele>1288.78</ele>
        <time>2025-05-12T08:13:50Z</time>
      </trkpt>
      <trkpt lat="36.947716008871794" lon="-3.285470008850098">
        <ele>1289.75</ele>
        <time>2025-05-12T08:13:51Z</time>
      </trkpt>
      <trkpt lat="36.947841988876462" lon="-3.285456011071801">
        <ele>1290.23</ele>
        <time>2025-05-12T08:13:52Z</time>
      </trkpt>
      <trkpt lat="36.947971992194653" lon="-3.285404965281487">
        <ele>1291.1900000000001</ele>
        <time>2025-05-12T08:13:53Z</time>
      </trkpt>
      <trkpt lat="36.948100989684463" lon="-3.285355009138584">
        <ele>1291.6700000000001</ele>
        <time>2025-05-12T08:13:54Z</time>
      </trkpt>
      <trkpt lat="36.948221018537879" lon="-3.285307986661792">
        <ele>1292.6300000000001</ele>
        <time>2025-05-12T08:13:55Z</time>
      </trkpt>
      <trkpt lat="36.948340963572264" lon="-3.285298012197018">
        <ele>1293.1099999999999</ele>
        <time>2025-05-12T08:13:56Z</time>
      </trkpt>
      <trkpt lat="36.948444982990623" lon="-3.285334976390004">
        <ele>1294.0699999999999</ele>
        <time>2025-05-12T08:13:57Z</time>
      </trkpt>
      <trkpt lat="36.948540033772588" lon="-3.285404965281487">
        <ele>1295.03</ele>
        <time>2025-05-12T08:13:58Z</time>
      </trkpt>
      <trkpt lat="36.948637012392282" lon="-3.28547696582973">
        <ele>1295.99</ele>
        <time>2025-05-12T08:13:59Z</time>
      </trkpt>
      <trkpt lat="36.94873902015388" lon="-3.285551983863115">
        <ele>1296.96</ele>
        <time>2025-05-12T08:14:00Z</time>
      </trkpt>
      <trkpt lat="36.948843039572239" lon="-3.285629013553262">
        <ele>1297.9200000000001</ele>
        <time>2025-05-12T08:14:01Z</time>
      </trkpt>
      <trkpt lat="36.948935994878411" lon="-3.285678969696164">
        <ele>1298.8800000000001</ele>
        <time>2025-05-12T08:14:02Z</time>
      </trkpt>
      <trkpt lat="36.949030039831996" lon="-3.285699002444744">
        <ele>1299.3599999999999</ele>
        <time>2025-05-12T08:14:03Z</time>
      </trkpt>
      <trkpt lat="36.949113020673394" lon="-3.28564896248281">
        <ele>1300.3199999999999</ele>
        <time>2025-05-12T08:14:04Z</time>
      </trkpt>
      <trkpt lat="36.949171023443341" lon="-3.28553999774158">
        <ele>1300.8</ele>
        <time>2025-05-12T08:14:05Z</time>
      </trkpt>
      <trkpt lat="36.949231959879398" lon="-3.285405971109867">
        <ele>1301.76</ele>
        <time>2025-05-12T08:14:06Z</time>
      </trkpt>
      <trkpt lat="36.949283005669713" lon="-3.285263981670141">
        <ele>1302.72</ele>
        <time>2025-05-12T08:14:07Z</time>
      </trkpt>
      <trkpt lat="36.949338996782899" lon="-3.285104976966977">
        <ele>1303.6900000000001</ele>
        <time>2025-05-12T08:14:08Z</time>
      </trkpt>
      <trkpt lat="36.949433041736484" lon="-3.285012021660805">
        <ele>1305.1300000000001</ele>
        <time>2025-05-12T08:14:09Z</time>
      </trkpt>
      <trkpt lat="36.949554998427629" lon="-3.284971034154296">
        <ele>1306.0899999999999</ele>
        <time>2025-05-12T08:14:10Z</time>
      </trkpt>
      <trkpt lat="36.949686007574201" lon="-3.2849380094558">
        <ele>1307.53</ele>
        <time>2025-05-12T08:14:11Z</time>
      </trkpt>
      <trkpt lat="36.949824979528785" lon="-3.284903978928924">
        <ele>1308.97</ele>
        <time>2025-05-12T08:14:12Z</time>
      </trkpt>
      <trkpt lat="36.949956994503736" lon="-3.28487103804946">
        <ele>1309.9300000000001</ele>
        <time>2025-05-12T08:14:13Z</time>
      </trkpt>
      <trkpt lat="36.950039975345135" lon="-3.284769030287862">
        <ele>1311.3800000000001</ele>
        <time>2025-05-12T08:14:14Z</time>
      </trkpt>
      <trkpt lat="36.950121028348804" lon="-3.284666016697884">
        <ele>1312.8199999999999</ele>
        <time>2025-05-12T08:14:15Z</time>
      </trkpt>
      <trkpt lat="36.950204009190202" lon="-3.284559985622764">
        <ele>1313.78</ele>
        <time>2025-05-12T08:14:16Z</time>
      </trkpt>
      <trkpt lat="36.950295036658645" lon="-3.28444398008287">
        <ele>1315.22</ele>
        <time>2025-05-12T08:14:17Z</time>
      </trkpt>
      <trkpt lat="36.950406013056636" lon="-3.284347001463175">
        <ele>1316.1800000000001</ele>
        <time>2025-05-12T08:14:18Z</time>
      </trkpt>
      <trkpt lat="36.950527969747782" lon="-3.284290004521608">
        <ele>1317.1400000000001</ele>
        <time>2025-05-12T08:14:19Z</time>
      </trkpt>
      <trkpt lat="36.950655961409211" lon="-3.284290004521608">
        <ele>1318.0999999999999</ele>
        <time>2025-05-12T08:14:20Z</time>
      </trkpt>
      <trkpt lat="36.950785964727402" lon="-3.284290004521608">
        <ele>1319.0699999999999</ele>
        <time>2025-05-12T08:14:21Z</time>
      </trkpt>
      <trkpt lat="36.950898030772805" lon="-3.284282041713595">
        <ele>1320.03</ele>
        <time>2025-05-12T08:14:22Z</time>
      </trkpt>
      <trkpt lat="36.950991991907358" lon="-3.284225966781378">
        <ele>1320.51</ele>
        <time>2025-05-12T08:14:23Z</time>
      </trkpt>
      <trkpt lat="36.951048988848925" lon="-3.284095963463187">
        <ele>1321.47</ele>
        <time>2025-05-12T08:14:24Z</time>
      </trkpt>
      <trkpt lat="36.951397005468607" lon="-3.283332036808133">
        <ele>1325.3099999999999</ele>
        <time>2025-05-12T08:14:29Z</time>
      </trkpt>
      <trkpt lat="36.951489960774779" lon="-3.283179989084601">
        <ele>1326.28</ele>
        <time>2025-05-12T08:14:30Z</time>
      </trkpt>
      <trkpt lat="36.951608983799815" lon="-3.283061971887946">
        <ele>1327.24</ele>
        <time>2025-05-12T08:14:31Z</time>
      </trkpt>
      <trkpt lat="36.951734041795135" lon="-3.282950995489955">
        <ele>1327.72</ele>
        <time>2025-05-12T08:14:32Z</time>
      </trkpt>
      <trkpt lat="36.9518549926579" lon="-3.282843036577106">
        <ele>1328.2</ele>
        <time>2025-05-12T08:14:33Z</time>
      </trkpt>
      <trkpt lat="36.951980972662568" lon="-3.282784027978778">
        <ele>1329.1600000000001</ele>
        <time>2025-05-12T08:14:34Z</time>
      </trkpt>
      <trkpt lat="36.952120028436184" lon="-3.282744968309999">
        <ele>1330.1199999999999</ele>
        <time>2025-05-12T08:14:35Z</time>
      </trkpt>
      <trkpt lat="36.952255982905626" lon="-3.282728036865592">
        <ele>1330.5999999999999</ele>
        <time>2025-05-12T08:14:36Z</time>
      </trkpt>
      <trkpt lat="36.952401995658875" lon="-3.282737005501986">
        <ele>1331.0799999999999</ele>
        <time>2025-05-12T08:14:37Z</time>
      </trkpt>
      <trkpt lat="36.952541973441839" lon="-3.282731976360083">
        <ele>1331.5599999999999</ele>
        <time>2025-05-12T08:14:38Z</time>
      </trkpt>
      <trkpt lat="36.952643981203437" lon="-3.2826810143888">
        <ele>1331.5599999999999</ele>
        <time>2025-05-12T08:14:39Z</time>
      </trkpt>
      <trkpt lat="36.952712964266539" lon="-3.282573977485299">
        <ele>1332.04</ele>
        <time>2025-05-12T08:14:40Z</time>
      </trkpt>
      <trkpt lat="36.952788988128304" lon="-3.282457971945405">
        <ele>1332.04</ele>
        <time>2025-05-12T08:14:41Z</time>
      </trkpt>
      <trkpt lat="36.952874986454844" lon="-3.282326962798834">
        <ele>1332.04</ele>
        <time>2025-05-12T08:14:42Z</time>
      </trkpt>
      <trkpt lat="36.953070033341646" lon="-3.282053964212537">
        <ele>1331.5599999999999</ele>
        <time>2025-05-12T08:14:44Z</time>
      </trkpt>
      <trkpt lat="36.953181009739637" lon="-3.281928990036249">
        <ele>1331.5599999999999</ele>
        <time>2025-05-12T08:14:45Z</time>
      </trkpt>
      <trkpt lat="36.953328028321266" lon="-3.281850032508373">
        <ele>1331.5599999999999</ele>
        <time>2025-05-12T08:14:46Z</time>
      </trkpt>
      <trkpt lat="36.953626004979014" lon="-3.281690021976829">
        <ele>1332.04</ele>
        <time>2025-05-12T08:14:48Z</time>
      </trkpt>
      <trkpt lat="36.953770006075501" lon="-3.281623972579837">
        <ele>1332.04</ele>
        <time>2025-05-12T08:14:49Z</time>
      </trkpt>
      <trkpt lat="36.953911995515227" lon="-3.281603017821908">
        <ele>1332.52</ele>
        <time>2025-05-12T08:14:50Z</time>
      </trkpt>
      <trkpt lat="36.954043004661798" lon="-3.281583990901709">
        <ele>1333.01</ele>
        <time>2025-05-12T08:14:51Z</time>
      </trkpt>
      <trkpt lat="36.954160016030073" lon="-3.28156596980989">
        <ele>1333.49</ele>
        <time>2025-05-12T08:14:52Z</time>
      </trkpt>
      <trkpt lat="36.954247020184994" lon="-3.281485000625253">
        <ele>1333.49</ele>
        <time>2025-05-12T08:14:53Z</time>
      </trkpt>
      <trkpt lat="36.954287001863122" lon="-3.281377963721752">
        <ele>1333.97</ele>
        <time>2025-05-12T08:14:54Z</time>
      </trkpt>
      <trkpt lat="36.954289013519883" lon="-3.28128500841558">
        <ele>1333.97</ele>
        <time>2025-05-12T08:14:55Z</time>
      </trkpt>
      <trkpt lat="36.954276021569967" lon="-3.281165985390544">
        <ele>1333.97</ele>
        <time>2025-05-12T08:14:56Z</time>
      </trkpt>
      <trkpt lat="36.954208966344595" lon="-3.281077975407243">
        <ele>1333.97</ele>
        <time>2025-05-12T08:14:57Z</time>
      </trkpt>
      <trkpt lat="36.954112993553281" lon="-3.281015027314425">
        <ele>1333.97</ele>
        <time>2025-05-12T08:14:58Z</time>
      </trkpt>
      <trkpt lat="36.953968992456794" lon="-3.280979990959168">
        <ele>1333.97</ele>
        <time>2025-05-12T08:14:59Z</time>
      </trkpt>
      <trkpt lat="36.953811999410391" lon="-3.2809420209378">
        <ele>1334.45</ele>
        <time>2025-05-12T08:15:00Z</time>
      </trkpt>
      <trkpt lat="36.953660035505891" lon="-3.280904972925782">
        <ele>1334.9300000000001</ele>
        <time>2025-05-12T08:15:01Z</time>
      </trkpt>
      <trkpt lat="36.953521985560656" lon="-3.280872032046318">
        <ele>1334.45</ele>
        <time>2025-05-12T08:15:02Z</time>
      </trkpt>
      <trkpt lat="36.953384019434452" lon="-3.280790979042649">
        <ele>1334.45</ele>
        <time>2025-05-12T08:15:03Z</time>
      </trkpt>
      <trkpt lat="36.953287962824106" lon="-3.28070598654449">
        <ele>1333.97</ele>
        <time>2025-05-12T08:15:04Z</time>
      </trkpt>
      <trkpt lat="36.95320799946785" lon="-3.280568020418286">
        <ele>1333.97</ele>
        <time>2025-05-12T08:15:05Z</time>
      </trkpt>
      <trkpt lat="36.953137004747987" lon="-3.280442962422967">
        <ele>1334.45</ele>
        <time>2025-05-12T08:15:06Z</time>
      </trkpt>
      <trkpt lat="36.953061986714602" lon="-3.280312037095428">
        <ele>1334.9300000000001</ele>
        <time>2025-05-12T08:15:07Z</time>
      </trkpt>
      <trkpt lat="36.953005995601416" lon="-3.280168035998941">
        <ele>1335.8900000000001</ele>
        <time>2025-05-12T08:15:08Z</time>
      </trkpt>
      <trkpt lat="36.952966013923287" lon="-3.280020011588931">
        <ele>1335.8900000000001</ele>
        <time>2025-05-12T08:15:09Z</time>
      </trkpt>
      <trkpt lat="36.952966013923287" lon="-3.279867963865399">
        <ele>1336.3699999999999</ele>
        <time>2025-05-12T08:15:10Z</time>
      </trkpt>
      <trkpt lat="36.952999960631132" lon="-3.27971700578928">
        <ele>1336.8499999999999</ele>
        <time>2025-05-12T08:15:11Z</time>
      </trkpt>
      <trkpt lat="36.953062992542982" lon="-3.279578033834696">
        <ele>1337.3299999999999</ele>
        <time>2025-05-12T08:15:12Z</time>
      </trkpt>
      <trkpt lat="36.953144967556" lon="-3.279454987496138">
        <ele>1337.8099999999999</ele>
        <time>2025-05-12T08:15:13Z</time>
      </trkpt>
      <trkpt lat="36.953255021944642" lon="-3.279349962249398">
        <ele>1338.77</ele>
        <time>2025-05-12T08:15:14Z</time>
      </trkpt>
      <trkpt lat="36.953368009999394" lon="-3.279240997508168">
        <ele>1339.73</ele>
        <time>2025-05-12T08:15:15Z</time>
      </trkpt>
      <trkpt lat="36.953603960573673" lon="-3.279014015570283">
        <ele>1342.1400000000001</ele>
        <time>2025-05-12T08:15:17Z</time>
      </trkpt>
      <trkpt lat="36.95374402217567" lon="-3.278918964788318">
        <ele>1343.0999999999999</ele>
        <time>2025-05-12T08:15:18Z</time>
      </trkpt>
      <trkpt lat="36.955104991793633" lon="-3.278500037267804">
        <ele>1353.6700000000001</ele>
        <time>2025-05-12T08:15:26Z</time>
      </trkpt>
      <trkpt lat="36.956791011616588" lon="-3.278375985100865">
        <ele>1366.1700000000001</ele>
        <time>2025-05-12T08:15:35Z</time>
      </trkpt>
      <trkpt lat="36.957601960748434" lon="-3.278419990092516">
        <ele>1372.9000000000001</ele>
        <time>2025-05-12T08:15:40Z</time>
      </trkpt>
      <trkpt lat="36.957737999036908" lon="-3.27849299646914">
        <ele>1374.3399999999999</ele>
        <time>2025-05-12T08:15:41Z</time>
      </trkpt>
      <trkpt lat="36.958294976502657" lon="-3.278840007260442">
        <ele>1379.6300000000001</ele>
        <time>2025-05-12T08:15:45Z</time>
      </trkpt>
      <trkpt lat="36.958393966779113" lon="-3.278840007260442">
        <ele>1381.0699999999999</ele>
        <time>2025-05-12T08:15:46Z</time>
      </trkpt>
      <trkpt lat="36.958568980917335" lon="-3.278800025582314">
        <ele>1382.03</ele>
        <time>2025-05-12T08:15:47Z</time>
      </trkpt>
      <trkpt lat="36.959625016897917" lon="-3.278569020330906">
        <ele>1389.72</ele>
        <time>2025-05-12T08:15:53Z</time>
      </trkpt>
      <trkpt lat="36.960175037384033" lon="-3.278453014791012">
        <ele>1394.53</ele>
        <time>2025-05-12T08:15:57Z</time>
      </trkpt>
      <trkpt lat="36.960300011560321" lon="-3.278488973155618">
        <ele>1396.45</ele>
        <time>2025-05-12T08:15:58Z</time>
      </trkpt>
      <trkpt lat="36.960417022928596" lon="-3.278521997854114">
        <ele>1397.8900000000001</ele>
        <time>2025-05-12T08:15:59Z</time>
      </trkpt>
      <trkpt lat="36.960543002933264" lon="-3.278635991737247">
        <ele>1398.8599999999999</ele>
        <time>2025-05-12T08:16:00Z</time>
      </trkpt>
      <trkpt lat="36.960639981552958" lon="-3.278776975348592">
        <ele>1400.78</ele>
        <time>2025-05-12T08:16:01Z</time>
      </trkpt>
      <trkpt lat="36.960757998749614" lon="-3.278926005586982">
        <ele>1402.22</ele>
        <time>2025-05-12T08:16:02Z</time>
      </trkpt>
      <trkpt lat="36.960886996239424" lon="-3.279071012511849">
        <ele>1403.1800000000001</ele>
        <time>2025-05-12T08:16:03Z</time>
      </trkpt>
      <trkpt lat="36.961034014821053" lon="-3.279168996959925">
        <ele>1404.1400000000001</ele>
        <time>2025-05-12T08:16:04Z</time>
      </trkpt>
      <trkpt lat="36.961163012310863" lon="-3.279254995286465">
        <ele>1405.0999999999999</ele>
        <time>2025-05-12T08:16:05Z</time>
      </trkpt>
      <trkpt lat="36.961272982880473" lon="-3.279328001663089">
        <ele>1407.03</ele>
        <time>2025-05-12T08:16:06Z</time>
      </trkpt>
      <trkpt lat="36.961355963721871" lon="-3.279432021081448">
        <ele>1408.47</ele>
        <time>2025-05-12T08:16:07Z</time>
      </trkpt>
      <trkpt lat="36.961432993412018" lon="-3.279568981379271">
        <ele>1409.9100000000001</ele>
        <time>2025-05-12T08:16:08Z</time>
      </trkpt>
      <trkpt lat="36.961508011445403" lon="-3.279703008010984">
        <ele>1411.3499999999999</ele>
        <time>2025-05-12T08:16:09Z</time>
      </trkpt>
      <trkpt lat="36.961613036692142" lon="-3.279891014099121">
        <ele>1412.3099999999999</ele>
        <time>2025-05-12T08:16:10Z</time>
      </trkpt>
      <trkpt lat="36.961705991998315" lon="-3.279937030747533">
        <ele>1413.28</ele>
        <time>2025-05-12T08:16:11Z</time>
      </trkpt>
      <trkpt lat="36.961858039721847" lon="-3.27999796718359">
        <ele>1414.72</ele>
        <time>2025-05-12T08:16:12Z</time>
      </trkpt>
      <trkpt lat="36.962016960605979" lon="-3.27999796718359">
        <ele>1415.6800000000001</ele>
        <time>2025-05-12T08:16:13Z</time>
      </trkpt>
      <trkpt lat="36.96218803524971" lon="-3.280002996325493">
        <ele>1416.1600000000001</ele>
        <time>2025-05-12T08:16:14Z</time>
      </trkpt>
      <trkpt lat="36.962853977456689" lon="-3.280094023793936">
        <ele>1420.97</ele>
        <time>2025-05-12T08:16:18Z</time>
      </trkpt>
      <trkpt lat="36.963008036836982" lon="-3.280149009078741">
        <ele>1422.4100000000001</ele>
        <time>2025-05-12T08:16:19Z</time>
      </trkpt>
      <trkpt lat="36.963541964069009" lon="-3.280618982389569">
        <ele>1428.1800000000001</ele>
        <time>2025-05-12T08:16:23Z</time>
      </trkpt>
      <trkpt lat="36.963671967387199" lon="-3.280757032334805">
        <ele>1430.0999999999999</ele>
        <time>2025-05-12T08:16:24Z</time>
      </trkpt>
      <trkpt lat="36.964360037818551" lon="-3.281444013118744">
        <ele>1438.75</ele>
        <time>2025-05-12T08:16:29Z</time>
      </trkpt>
      <trkpt lat="36.964499009773135" lon="-3.281527999788523">
        <ele>1440.1900000000001</ele>
        <time>2025-05-12T08:16:30Z</time>
      </trkpt>
      <trkpt lat="36.964642005041242" lon="-3.281592959538102">
        <ele>1441.1500000000001</ele>
        <time>2025-05-12T08:16:31Z</time>
      </trkpt>
      <trkpt lat="36.964778965339065" lon="-3.281611986458302">
        <ele>1442.1099999999999</ele>
        <time>2025-05-12T08:16:32Z</time>
      </trkpt>
      <trkpt lat="36.964910980314016" lon="-3.281623972579837">
        <ele>1443.0799999999999</ele>
        <time>2025-05-12T08:16:33Z</time>
      </trkpt>
      <trkpt lat="36.965022962540388" lon="-3.28158700838685">
        <ele>1444.04</ele>
        <time>2025-05-12T08:16:34Z</time>
      </trkpt>
      <trkpt lat="36.965126981958747" lon="-3.281509978696704">
        <ele>1444.52</ele>
        <time>2025-05-12T08:16:35Z</time>
      </trkpt>
      <trkpt lat="36.965209040790796" lon="-3.28139497898519">
        <ele>1445</ele>
        <time>2025-05-12T08:16:36Z</time>
      </trkpt>
      <trkpt lat="36.965295961126685" lon="-3.281272016465664">
        <ele>1445.48</ele>
        <time>2025-05-12T08:16:37Z</time>
      </trkpt>
      <trkpt lat="36.965732993558049" lon="-3.280599033460021">
        <ele>1447.4000000000001</ele>
        <time>2025-05-12T08:16:42Z</time>
      </trkpt>
      <trkpt lat="36.965869031846523" lon="-3.280526027083397">
        <ele>1447.8800000000001</ele>
        <time>2025-05-12T08:16:43Z</time>
      </trkpt>
      <trkpt lat="36.96601202711463" lon="-3.280448997393251">
        <ele>1448.3599999999999</ele>
        <time>2025-05-12T08:16:44Z</time>
      </trkpt>
      <trkpt lat="36.966118980199099" lon="-3.280448997393251">
        <ele>1448.8399999999999</ele>
        <time>2025-05-12T08:16:45Z</time>
      </trkpt>
      <trkpt lat="36.966275973245502" lon="-3.280448997393251">
        <ele>1449.3199999999999</ele>
        <time>2025-05-12T08:16:46Z</time>
      </trkpt>
      <trkpt lat="36.96644595824182" lon="-3.280448997393251">
        <ele>1449.8099999999999</ele>
        <time>2025-05-12T08:16:47Z</time>
      </trkpt>
      <trkpt lat="36.967524038627744" lon="-3.280470035970211">
        <ele>1454.1300000000001</ele>
        <time>2025-05-12T08:16:53Z</time>
      </trkpt>
      <trkpt lat="36.96766602806747" lon="-3.280470035970211">
        <ele>1455.0899999999999</ele>
        <time>2025-05-12T08:16:54Z</time>
      </trkpt>
      <trkpt lat="36.9677749928087" lon="-3.280402980744839">
        <ele>1455.5699999999999</ele>
        <time>2025-05-12T08:16:55Z</time>
      </trkpt>
      <trkpt lat="36.967858979478478" lon="-3.280317988246679">
        <ele>1455.5699999999999</ele>
        <time>2025-05-12T08:16:56Z</time>
      </trkpt>
      <trkpt lat="36.967952018603683" lon="-3.280226038768888">
        <ele>1455.5699999999999</ele>
        <time>2025-05-12T08:16:57Z</time>
      </trkpt>
      <trkpt lat="36.968046985566616" lon="-3.280129982158542">
        <ele>1455.5699999999999</ele>
        <time>2025-05-12T08:16:58Z</time>
      </trkpt>
      <trkpt lat="36.968143964186311" lon="-3.280093017965555">
        <ele>1455.5699999999999</ele>
        <time>2025-05-12T08:16:59Z</time>
      </trkpt>
      <trkpt lat="36.96824798360467" lon="-3.280073991045356">
        <ele>1455.5699999999999</ele>
        <time>2025-05-12T08:17:00Z</time>
      </trkpt>
      <trkpt lat="36.968346973881125" lon="-3.280091006308794">
        <ele>1456.05</ele>
        <time>2025-05-12T08:17:01Z</time>
      </trkpt>
      <trkpt lat="36.968444036319852" lon="-3.280159989371896">
        <ele>1456.05</ele>
        <time>2025-05-12T08:17:02Z</time>
      </trkpt>
      <trkpt lat="36.968530034646392" lon="-3.280268032103777">
        <ele>1456.53</ele>
        <time>2025-05-12T08:17:03Z</time>
      </trkpt>
      <trkpt lat="36.968629024922848" lon="-3.280401974916458">
        <ele>1457.02</ele>
        <time>2025-05-12T08:17:04Z</time>
      </trkpt>
      <trkpt lat="36.968839997425675" lon="-3.280690982937813">
        <ele>1457.02</ele>
        <time>2025-05-12T08:17:06Z</time>
      </trkpt>
      <trkpt lat="36.968960026279092" lon="-3.280821992084384">
        <ele>1457.02</ele>
        <time>2025-05-12T08:17:07Z</time>
      </trkpt>
      <trkpt lat="36.969117019325495" lon="-3.280868008732796">
        <ele>1457.02</ele>
        <time>2025-05-12T08:17:08Z</time>
      </trkpt>
      <trkpt lat="36.969931991770864" lon="-3.281115023419261">
        <ele>1455.5699999999999</ele>
        <time>2025-05-12T08:17:13Z</time>
      </trkpt>
      <trkpt lat="36.970306998118758" lon="-3.281300012022257">
        <ele>1454.6099999999999</ele>
        <time>2025-05-12T08:17:16Z</time>
      </trkpt>
      <trkpt lat="36.97041898034513" lon="-3.281320966780186">
        <ele>1454.6099999999999</ele>
        <time>2025-05-12T08:17:17Z</time>
      </trkpt>
      <trkpt lat="36.970498021692038" lon="-3.281253995373845">
        <ele>1454.6099999999999</ele>
        <time>2025-05-12T08:17:18Z</time>
      </trkpt>
      <trkpt lat="36.970582008361816" lon="-3.281144024804235">
        <ele>1454.6099999999999</ele>
        <time>2025-05-12T08:17:19Z</time>
      </trkpt>
      <trkpt lat="36.970639005303383" lon="-3.280992982909083">
        <ele>1454.6099999999999</ele>
        <time>2025-05-12T08:17:20Z</time>
      </trkpt>
      <trkpt lat="36.970702959224582" lon="-3.280821992084384">
        <ele>1454.1300000000001</ele>
        <time>2025-05-12T08:17:21Z</time>
      </trkpt>
      <trkpt lat="36.970845032483339" lon="-3.280503982678056">
        <ele>1454.1300000000001</ele>
        <time>2025-05-12T08:17:23Z</time>
      </trkpt>
      <trkpt lat="36.970920972526073" lon="-3.280371967703104">
        <ele>1453.6500000000001</ele>
        <time>2025-05-12T08:17:24Z</time>
      </trkpt>
      <trkpt lat="36.971044018864632" lon="-3.280277000740171">
        <ele>1453.1700000000001</ele>
        <time>2025-05-12T08:17:25Z</time>
      </trkpt>
      <trkpt lat="36.971182990819216" lon="-3.28016996383667">
        <ele>1452.6900000000001</ele>
        <time>2025-05-12T08:17:26Z</time>
      </trkpt>
      <trkpt lat="36.971329003572464" lon="-3.280076002702117">
        <ele>1452.21</ele>
        <time>2025-05-12T08:17:27Z</time>
      </trkpt>
      <trkpt lat="36.97162002325058" lon="-3.279860001057386">
        <ele>1450.77</ele>
        <time>2025-05-12T08:17:29Z</time>
      </trkpt>
      <trkpt lat="36.971754971891642" lon="-3.279743995517492">
        <ele>1450.29</ele>
        <time>2025-05-12T08:17:30Z</time>
      </trkpt>
      <trkpt lat="36.972468020394444" lon="-3.278831960633397">
        <ele>1448.3599999999999</ele>
        <time>2025-05-12T08:17:37Z</time>
      </trkpt>
      <trkpt lat="36.972580002620816" lon="-3.278737999498844">
        <ele>1448.3599999999999</ele>
        <time>2025-05-12T08:17:38Z</time>
      </trkpt>
      <trkpt lat="36.972716962918639" lon="-3.278660969808698">
        <ele>1447.8800000000001</ele>
        <time>2025-05-12T08:17:39Z</time>
      </trkpt>
      <trkpt lat="36.972857024520636" lon="-3.278582012280822">
        <ele>1447.8800000000001</ele>
        <time>2025-05-12T08:17:40Z</time>
      </trkpt>
      <trkpt lat="36.973006976768374" lon="-3.278544964268804">
        <ele>1447.8800000000001</ele>
        <time>2025-05-12T08:17:41Z</time>
      </trkpt>
      <trkpt lat="36.9731489662081" lon="-3.278509005904198">
        <ele>1447.8800000000001</ele>
        <time>2025-05-12T08:17:42Z</time>
      </trkpt>
      <trkpt lat="36.973302019760013" lon="-3.278506994247437">
        <ele>1447.4000000000001</ele>
        <time>2025-05-12T08:17:43Z</time>
      </trkpt>
      <trkpt lat="36.973466975614429" lon="-3.278524009510875">
        <ele>1447.4000000000001</ele>
        <time>2025-05-12T08:17:44Z</time>
      </trkpt>
      <trkpt lat="36.974448999390006" lon="-3.278617970645428">
        <ele>1445.48</ele>
        <time>2025-05-12T08:17:50Z</time>
      </trkpt>
      <trkpt lat="36.974575985223055" lon="-3.278605984523892">
        <ele>1445.48</ele>
        <time>2025-05-12T08:17:51Z</time>
      </trkpt>
      <trkpt lat="36.974696014076471" lon="-3.278545970097184">
        <ele>1445.48</ele>
        <time>2025-05-12T08:17:52Z</time>
      </trkpt>
      <trkpt lat="36.974803972989321" lon="-3.278437005355954">
        <ele>1445.96</ele>
        <time>2025-05-12T08:17:53Z</time>
      </trkpt>
      <trkpt lat="36.974904974922538" lon="-3.278336003422737">
        <ele>1446.4400000000001</ele>
        <time>2025-05-12T08:17:54Z</time>
      </trkpt>
      <trkpt lat="36.975023997947574" lon="-3.278270959854126">
        <ele>1446.9200000000001</ele>
        <time>2025-05-12T08:17:55Z</time>
      </trkpt>
      <trkpt lat="36.975156012922525" lon="-3.27823500148952">
        <ele>1447.4000000000001</ele>
        <time>2025-05-12T08:17:56Z</time>
      </trkpt>
      <trkpt lat="36.975304959341884" lon="-3.278225027024746">
        <ele>1447.8800000000001</ele>
        <time>2025-05-12T08:17:57Z</time>
      </trkpt>
      <trkpt lat="36.975637972354889" lon="-3.278204994276166">
        <ele>1449.3199999999999</ele>
        <time>2025-05-12T08:17:59Z</time>
      </trkpt>
      <trkpt lat="36.975808041170239" lon="-3.278184961527586">
        <ele>1449.8099999999999</ele>
        <time>2025-05-12T08:18:00Z</time>
      </trkpt>
      <trkpt lat="36.975967967882752" lon="-3.278131987899542">
        <ele>1450.77</ele>
        <time>2025-05-12T08:18:01Z</time>
      </trkpt>
      <trkpt lat="36.976249013096094" lon="-3.278038026764989">
        <ele>1451.25</ele>
        <time>2025-05-12T08:18:03Z</time>
      </trkpt>
      <trkpt lat="36.976360995322466" lon="-3.278043977916241">
        <ele>1451.73</ele>
        <time>2025-05-12T08:18:04Z</time>
      </trkpt>
      <trkpt lat="36.976481024175882" lon="-3.278075996786356">
        <ele>1451.73</ele>
        <time>2025-05-12T08:18:05Z</time>
      </trkpt>
      <trkpt lat="36.976601975038648" lon="-3.2781479973346">
        <ele>1451.25</ele>
        <time>2025-05-12T08:18:06Z</time>
      </trkpt>
      <trkpt lat="36.976727033033967" lon="-3.278242964297533">
        <ele>1451.25</ele>
        <time>2025-05-12T08:18:07Z</time>
      </trkpt>
      <trkpt lat="36.976849995553493" lon="-3.278339020907879">
        <ele>1450.77</ele>
        <time>2025-05-12T08:18:08Z</time>
      </trkpt>
      <trkpt lat="36.976966001093388" lon="-3.278428036719561">
        <ele>1450.29</ele>
        <time>2025-05-12T08:18:09Z</time>
      </trkpt>
      <trkpt lat="36.977103967219591" lon="-3.278460977599025">
        <ele>1449.8099999999999</ele>
        <time>2025-05-12T08:18:10Z</time>
      </trkpt>
      <trkpt lat="36.977242017164826" lon="-3.278472041711211">
        <ele>1449.8099999999999</ele>
        <time>2025-05-12T08:18:11Z</time>
      </trkpt>
      <trkpt lat="36.977386018261313" lon="-3.278416972607374">
        <ele>1449.3199999999999</ele>
        <time>2025-05-12T08:18:12Z</time>
      </trkpt>
      <trkpt lat="36.977527001872659" lon="-3.278342038393021">
        <ele>1449.3199999999999</ele>
        <time>2025-05-12T08:18:13Z</time>
      </trkpt>
      <trkpt lat="36.977677959948778" lon="-3.278261991217732">
        <ele>1448.8399999999999</ele>
        <time>2025-05-12T08:18:14Z</time>
      </trkpt>
      <trkpt lat="36.977964034304023" lon="-3.278110027313232">
        <ele>1448.3599999999999</ele>
        <time>2025-05-12T08:18:16Z</time>
      </trkpt>
      <trkpt lat="36.97808900848031" lon="-3.277952028438449">
        <ele>1448.3599999999999</ele>
        <time>2025-05-12T08:18:17Z</time>
      </trkpt>
      <trkpt lat="36.978201996535063" lon="-3.277807021513581">
        <ele>1448.3599999999999</ele>
        <time>2025-05-12T08:18:18Z</time>
      </trkpt>
      <trkpt lat="36.978312972933054" lon="-3.277666959911585">
        <ele>1448.3599999999999</ele>
        <time>2025-05-12T08:18:19Z</time>
      </trkpt>
      <trkpt lat="36.978413974866271" lon="-3.277538968250155">
        <ele>1448.3599999999999</ele>
        <time>2025-05-12T08:18:20Z</time>
      </trkpt>
      <trkpt lat="36.978522017598152" lon="-3.277402007952333">
        <ele>1448.8399999999999</ele>
        <time>2025-05-12T08:18:21Z</time>
      </trkpt>
      <trkpt lat="36.978628970682621" lon="-3.277348028495908">
        <ele>1448.8399999999999</ele>
        <time>2025-05-12T08:18:22Z</time>
      </trkpt>
      <trkpt lat="36.978758974000812" lon="-3.277321960777044">
        <ele>1448.8399999999999</ele>
        <time>2025-05-12T08:18:23Z</time>
      </trkpt>
      <trkpt lat="36.978895012289286" lon="-3.277334030717611">
        <ele>1448.8399999999999</ele>
        <time>2025-05-12T08:18:24Z</time>
      </trkpt>
      <trkpt lat="36.979038007557392" lon="-3.277362026274204">
        <ele>1448.8399999999999</ele>
        <time>2025-05-12T08:18:25Z</time>
      </trkpt>
      <trkpt lat="36.979177985340357" lon="-3.277410976588726">
        <ele>1449.3199999999999</ele>
        <time>2025-05-12T08:18:26Z</time>
      </trkpt>
      <trkpt lat="36.979317041113973" lon="-3.277487000450492">
        <ele>1449.8099999999999</ele>
        <time>2025-05-12T08:18:27Z</time>
      </trkpt>
      <trkpt lat="36.979451989755034" lon="-3.277588002383709">
        <ele>1450.29</ele>
        <time>2025-05-12T08:18:28Z</time>
      </trkpt>
      <trkpt lat="36.980160009115934" lon="-3.278282023966312">
        <ele>1453.1700000000001</ele>
        <time>2025-05-12T08:18:34Z</time>
      </trkpt>
      <trkpt lat="36.980228992179036" lon="-3.278428036719561">
        <ele>1453.1700000000001</ele>
        <time>2025-05-12T08:18:35Z</time>
      </trkpt>
      <trkpt lat="36.980280037969351" lon="-3.278591986745596">
        <ele>1453.6500000000001</ele>
        <time>2025-05-12T08:18:36Z</time>
      </trkpt>
      <trkpt lat="36.980391014367342" lon="-3.278946038335562">
        <ele>1454.1300000000001</ele>
        <time>2025-05-12T08:18:38Z</time>
      </trkpt>
      <trkpt lat="36.980550019070506" lon="-3.279288019984961">
        <ele>1454.1300000000001</ele>
        <time>2025-05-12T08:18:40Z</time>
      </trkpt>
      <trkpt lat="36.980640962719917" lon="-3.279452975839376">
        <ele>1454.1300000000001</ele>
        <time>2025-05-12T08:18:41Z</time>
      </trkpt>
      <trkpt lat="36.980741964653134" lon="-3.279587002471089">
        <ele>1454.1300000000001</ele>
        <time>2025-05-12T08:18:42Z</time>
      </trkpt>
      <trkpt lat="36.980841038748622" lon="-3.279714994132519">
        <ele>1453.6500000000001</ele>
        <time>2025-05-12T08:18:43Z</time>
      </trkpt>
      <trkpt lat="36.98094598017633" lon="-3.279766039922833">
        <ele>1453.1700000000001</ele>
        <time>2025-05-12T08:18:44Z</time>
      </trkpt>
      <trkpt lat="36.98107497766614" lon="-3.279805015772581">
        <ele>1452.21</ele>
        <time>2025-05-12T08:18:45Z</time>
      </trkpt>
      <trkpt lat="36.981184026226401" lon="-3.27978297136724">
        <ele>1451.73</ele>
        <time>2025-05-12T08:18:46Z</time>
      </trkpt>
      <trkpt lat="36.981322998180985" lon="-3.279753969982266">
        <ele>1451.25</ele>
        <time>2025-05-12T08:18:47Z</time>
      </trkpt>
      <trkpt lat="36.981737986207008" lon="-3.279668977484107">
        <ele>1451.25</ele>
        <time>2025-05-12T08:18:50Z</time>
      </trkpt>
      <trkpt lat="36.981864972040057" lon="-3.279671994969249">
        <ele>1451.25</ele>
        <time>2025-05-12T08:18:51Z</time>
      </trkpt>
      <trkpt lat="36.981992041692138" lon="-3.279707031324506">
        <ele>1451.25</ele>
        <time>2025-05-12T08:18:52Z</time>
      </trkpt>
      <trkpt lat="36.982135036960244" lon="-3.279747013002634">
        <ele>1451.25</ele>
        <time>2025-05-12T08:18:53Z</time>
      </trkpt>
      <trkpt lat="36.982289012521505" lon="-3.2798230368644">
        <ele>1450.77</ele>
        <time>2025-05-12T08:18:54Z</time>
      </trkpt>
      <trkpt lat="36.982437036931515" lon="-3.279914986342192">
        <ele>1450.77</ele>
        <time>2025-05-12T08:18:55Z</time>
      </trkpt>
      <trkpt lat="36.982869040220976" lon="-3.280183961614966">
        <ele>1448.3599999999999</ele>
        <time>2025-05-12T08:18:58Z</time>
      </trkpt>
      <trkpt lat="36.98300801217556" lon="-3.280257973819971">
        <ele>1447.8800000000001</ele>
        <time>2025-05-12T08:18:59Z</time>
      </trkpt>
      <trkpt lat="36.983168022707105" lon="-3.280270965769887">
        <ele>1446.9200000000001</ele>
        <time>2025-05-12T08:19:00Z</time>
      </trkpt>
      <trkpt lat="36.983321998268366" lon="-3.280284041538835">
        <ele>1445.96</ele>
        <time>2025-05-12T08:19:01Z</time>
      </trkpt>
      <trkpt lat="36.983500029891729" lon="-3.28029896132648">
        <ele>1445</ele>
        <time>2025-05-12T08:19:02Z</time>
      </trkpt>
      <trkpt lat="36.983586028218269" lon="-3.280225032940507">
        <ele>1444.52</ele>
        <time>2025-05-12T08:19:03Z</time>
      </trkpt>
      <trkpt lat="36.983660962432623" lon="-3.280121013522148">
        <ele>1444.04</ele>
        <time>2025-05-12T08:19:04Z</time>
      </trkpt>
      <trkpt lat="36.983692981302738" lon="-3.279984975233674">
        <ele>1443.0799999999999</ele>
        <time>2025-05-12T08:19:05Z</time>
      </trkpt>
      <trkpt lat="36.983709996566176" lon="-3.279850026592612">
        <ele>1443.0799999999999</ele>
        <time>2025-05-12T08:19:06Z</time>
      </trkpt>
      <trkpt lat="36.983684012666345" lon="-3.279732009395957">
        <ele>1443.0799999999999</ele>
        <time>2025-05-12T08:19:07Z</time>
      </trkpt>
      <trkpt lat="36.983623998239636" lon="-3.279633019119501">
        <ele>1443.0799999999999</ele>
        <time>2025-05-12T08:19:08Z</time>
      </trkpt>
      <trkpt lat="36.983530037105083" lon="-3.279547020792961">
        <ele>1442.5999999999999</ele>
        <time>2025-05-12T08:19:09Z</time>
      </trkpt>
      <trkpt lat="36.983433980494738" lon="-3.27945901080966">
        <ele>1442.5999999999999</ele>
        <time>2025-05-12T08:19:10Z</time>
      </trkpt>
      <trkpt lat="36.98335200548172" lon="-3.279357003048062">
        <ele>1443.0799999999999</ele>
        <time>2025-05-12T08:19:11Z</time>
      </trkpt>
      <trkpt lat="36.983275981619954" lon="-3.279237980023027">
        <ele>1443.0799999999999</ele>
        <time>2025-05-12T08:19:12Z</time>
      </trkpt>
      <trkpt lat="36.983230970799923" lon="-3.279077969491482">
        <ele>1444.04</ele>
        <time>2025-05-12T08:19:13Z</time>
      </trkpt>
      <trkpt lat="36.983184032142162" lon="-3.278912007808685">
        <ele>1444.52</ele>
        <time>2025-05-12T08:19:14Z</time>
      </trkpt>
      <trkpt lat="36.983124017715454" lon="-3.27842996455729">
        <ele>1447.4000000000001</ele>
        <time>2025-05-12T08:19:17Z</time>
      </trkpt>
      <trkpt lat="36.983152013272047" lon="-3.27830096706748">
        <ele>1448.3599999999999</ele>
        <time>2025-05-12T08:19:18Z</time>
      </trkpt>
      <trkpt lat="36.983216973021626" lon="-3.278185967355967">
        <ele>1449.3199999999999</ele>
        <time>2025-05-12T08:19:19Z</time>
      </trkpt>
      <trkpt lat="36.983300959691405" lon="-3.278075996786356">
        <ele>1450.29</ele>
        <time>2025-05-12T08:19:20Z</time>
      </trkpt>
      <trkpt lat="36.983413025736809" lon="-3.277970971539617">
        <ele>1450.77</ele>
        <time>2025-05-12T08:19:21Z</time>
      </trkpt>
      <trkpt lat="36.983531964942813" lon="-3.277861000970006">
        <ele>1451.73</ele>
        <time>2025-05-12T08:19:22Z</time>
      </trkpt>
      <trkpt lat="36.983775040134788" lon="-3.277635024860501">
        <ele>1453.1700000000001</ele>
        <time>2025-05-12T08:19:24Z</time>
      </trkpt>
      <trkpt lat="36.983882999047637" lon="-3.277534022927284">
        <ele>1454.1300000000001</ele>
        <time>2025-05-12T08:19:25Z</time>
      </trkpt>
      <trkpt lat="36.983919963240623" lon="-3.277393961325288">
        <ele>1454.6099999999999</ele>
        <time>2025-05-12T08:19:26Z</time>
      </trkpt>
      <trkpt lat="36.983949970453978" lon="-3.277272004634142">
        <ele>1455.5699999999999</ele>
        <time>2025-05-12T08:19:27Z</time>
      </trkpt>
      <trkpt lat="36.98391099460423" lon="-3.277146024629474">
        <ele>1456.53</ele>
        <time>2025-05-12T08:19:28Z</time>
      </trkpt>
      <trkpt lat="36.983864977955818" lon="-3.276993976905942">
        <ele>1457.5</ele>
        <time>2025-05-12T08:19:29Z</time>
      </trkpt>
      <trkpt lat="36.983657022938132" lon="-3.276296015828848">
        <ele>1462.3</ele>
        <time>2025-05-12T08:19:33Z</time>
      </trkpt>
      <trkpt lat="36.983500029891729" lon="-3.275449024513364">
        <ele>1466.6300000000001</ele>
        <time>2025-05-12T08:19:37Z</time>
      </trkpt>
      <trkpt lat="36.983490977436304" lon="-3.275025989860296">
        <ele>1469.03</ele>
        <time>2025-05-12T08:19:39Z</time>
      </trkpt>
      <trkpt lat="36.983486032113433" lon="-3.274810994043946">
        <ele>1470.47</ele>
        <time>2025-05-12T08:19:40Z</time>
      </trkpt>
      <trkpt lat="36.983482008799911" lon="-3.274606978520751">
        <ele>1471.4400000000001</ele>
        <time>2025-05-12T08:19:41Z</time>
      </trkpt>
      <trkpt lat="36.983471028506756" lon="-3.274412015452981">
        <ele>1472.8800000000001</ele>
        <time>2025-05-12T08:19:42Z</time>
      </trkpt>
      <trkpt lat="36.983444960787892" lon="-3.274225015193224">
        <ele>1473.8399999999999</ele>
        <time>2025-05-12T08:19:43Z</time>
      </trkpt>
      <trkpt lat="36.983419982716441" lon="-3.274052012711763">
        <ele>1475.28</ele>
        <time>2025-05-12T08:19:44Z</time>
      </trkpt>
      <trkpt lat="36.983399027958512" lon="-3.273908011615276">
        <ele>1476.24</ele>
        <time>2025-05-12T08:19:45Z</time>
      </trkpt>
      <trkpt lat="36.983424006029963" lon="-3.27378798276186">
        <ele>1477.2</ele>
        <time>2025-05-12T08:19:46Z</time>
      </trkpt>
      <trkpt lat="36.983474968001246" lon="-3.273668959736824">
        <ele>1478.6500000000001</ele>
        <time>2025-05-12T08:19:47Z</time>
      </trkpt>
      <trkpt lat="36.983520984649658" lon="-3.273561000823975">
        <ele>1479.6099999999999</ele>
        <time>2025-05-12T08:19:48Z</time>
      </trkpt>
      <trkpt lat="36.983628021553159" lon="-3.273471985012293">
        <ele>1481.05</ele>
        <time>2025-05-12T08:19:49Z</time>
      </trkpt>
      <trkpt lat="36.983727011829615" lon="-3.273390009999275">
        <ele>1482.01</ele>
        <time>2025-05-12T08:19:50Z</time>
      </trkpt>
      <trkpt lat="36.983852991834283" lon="-3.273328989744186">
        <ele>1482.97</ele>
        <time>2025-05-12T08:19:51Z</time>
      </trkpt>
      <trkpt lat="36.984003027901053" lon="-3.273293031379581">
        <ele>1483.45</ele>
        <time>2025-05-12T08:19:52Z</time>
      </trkpt>
      <trkpt lat="36.98539299890399" lon="-3.272958006709814">
        <ele>1490.1800000000001</ele>
        <time>2025-05-12T08:20:00Z</time>
      </trkpt>
      <trkpt lat="36.985541023313999" lon="-3.272883994504809">
        <ele>1490.6600000000001</ele>
        <time>2025-05-12T08:20:01Z</time>
      </trkpt>
      <trkpt lat="36.985685024410486" lon="-3.272766983136535">
        <ele>1491.6199999999999</ele>
        <time>2025-05-12T08:20:02Z</time>
      </trkpt>
      <trkpt lat="36.985946036875248" lon="-3.272552993148565">
        <ele>1493.0599999999999</ele>
        <time>2025-05-12T08:20:04Z</time>
      </trkpt>
      <trkpt lat="36.986105963587761" lon="-3.272475963458419">
        <ele>1493.55</ele>
        <time>2025-05-12T08:20:05Z</time>
      </trkpt>
      <trkpt lat="36.986418021842837" lon="-3.27232601121068">
        <ele>1494.99</ele>
        <time>2025-05-12T08:20:07Z</time>
      </trkpt>
      <trkpt lat="36.986568979918957" lon="-3.272230038419366">
        <ele>1495.47</ele>
        <time>2025-05-12T08:20:08Z</time>
      </trkpt>
      <trkpt lat="36.986715998500586" lon="-3.272119984030724">
        <ele>1495.95</ele>
        <time>2025-05-12T08:20:09Z</time>
      </trkpt>
      <trkpt lat="36.986850025132298" lon="-3.271986041218042">
        <ele>1496.4300000000001</ele>
        <time>2025-05-12T08:20:10Z</time>
      </trkpt>
      <trkpt lat="36.986969970166683" lon="-3.271857965737581">
        <ele>1496.9100000000001</ele>
        <time>2025-05-12T08:20:11Z</time>
      </trkpt>
      <trkpt lat="36.987188989296556" lon="-3.271663002669811">
        <ele>1497.8699999999999</ele>
        <time>2025-05-12T08:20:13Z</time>
      </trkpt>
      <trkpt lat="36.987284040078521" lon="-3.271609023213387">
        <ele>1497.8699999999999</ele>
        <time>2025-05-12T08:20:14Z</time>
      </trkpt>
      <trkpt lat="36.98739199899137" lon="-3.271621009334922">
        <ele>1498.3499999999999</ele>
        <time>2025-05-12T08:20:15Z</time>
      </trkpt>
      <trkpt lat="36.987514039501548" lon="-3.271635007113218">
        <ele>1498.3499999999999</ele>
        <time>2025-05-12T08:20:16Z</time>
      </trkpt>
      <trkpt lat="36.98764999397099" lon="-3.271651016548276">
        <ele>1498.8299999999999</ele>
        <time>2025-05-12T08:20:17Z</time>
      </trkpt>
      <trkpt lat="36.988404029980302" lon="-3.271736009046435">
        <ele>1499.79</ele>
        <time>2025-05-12T08:20:22Z</time>
      </trkpt>
      <trkpt lat="36.988541996106505" lon="-3.271712036803365">
        <ele>1499.79</ele>
        <time>2025-05-12T08:20:23Z</time>
      </trkpt>
      <trkpt lat="36.988676022738218" lon="-3.271684963256121">
        <ele>1500.27</ele>
        <time>2025-05-12T08:20:24Z</time>
      </trkpt>
      <trkpt lat="36.988800996914506" lon="-3.271623020991683">
        <ele>1500.27</ele>
        <time>2025-05-12T08:20:25Z</time>
      </trkpt>
      <trkpt lat="36.9889170024544" lon="-3.271534005180001">
        <ele>1500.27</ele>
        <time>2025-05-12T08:20:26Z</time>
      </trkpt>
      <trkpt lat="36.989024039357901" lon="-3.271438032388687">
        <ele>1500.76</ele>
        <time>2025-05-12T08:20:27Z</time>
      </trkpt>
      <trkpt lat="36.989093022421002" lon="-3.271300988271833">
        <ele>1500.76</ele>
        <time>2025-05-12T08:20:28Z</time>
      </trkpt>
      <trkpt lat="36.989163011312485" lon="-3.271161010488868">
        <ele>1501.24</ele>
        <time>2025-05-12T08:20:29Z</time>
      </trkpt>
      <trkpt lat="36.989231994375587" lon="-3.271023966372013">
        <ele>1501.72</ele>
        <time>2025-05-12T08:20:30Z</time>
      </trkpt>
      <trkpt lat="36.989294020459056" lon="-3.270898992195725">
        <ele>1502.2</ele>
        <time>2025-05-12T08:20:31Z</time>
      </trkpt>
      <trkpt lat="36.989386975765228" lon="-3.270818023011088">
        <ele>1502.6800000000001</ele>
        <time>2025-05-12T08:20:32Z</time>
      </trkpt>
      <trkpt lat="36.989495018497109" lon="-3.270759014412761">
        <ele>1503.1600000000001</ele>
        <time>2025-05-12T08:20:33Z</time>
      </trkpt>
      <trkpt lat="36.989620998501778" lon="-3.270716015249491">
        <ele>1503.1600000000001</ele>
        <time>2025-05-12T08:20:34Z</time>
      </trkpt>
      <trkpt lat="36.989757036790252" lon="-3.270690031349659">
        <ele>1503.6400000000001</ele>
        <time>2025-05-12T08:20:35Z</time>
      </trkpt>
      <trkpt lat="36.990217035636306" lon="-3.270604033023119">
        <ele>1506.04</ele>
        <time>2025-05-12T08:20:38Z</time>
      </trkpt>
      <trkpt lat="36.990380985662341" lon="-3.270636973902583">
        <ele>1506.52</ele>
        <time>2025-05-12T08:20:39Z</time>
      </trkpt>
      <trkpt lat="36.990535967051983" lon="-3.270677961409092">
        <ele>1507</ele>
        <time>2025-05-12T08:20:40Z</time>
      </trkpt>
      <trkpt lat="36.991085987538099" lon="-3.27082104049623">
        <ele>1508.45</ele>
        <time>2025-05-12T08:20:44Z</time>
      </trkpt>
      <trkpt lat="36.991211967542768" lon="-3.270853981375694">
        <ele>1508.9300000000001</ele>
        <time>2025-05-12T08:20:45Z</time>
      </trkpt>
      <trkpt lat="36.991338031366467" lon="-3.27080100774765">
        <ele>1508.9300000000001</ele>
        <time>2025-05-12T08:20:46Z</time>
      </trkpt>
      <trkpt lat="36.991464011371136" lon="-3.2707379758358">
        <ele>1509.4100000000001</ele>
        <time>2025-05-12T08:20:47Z</time>
      </trkpt>
      <trkpt lat="36.991587979719043" lon="-3.270676033571363">
        <ele>1509.4100000000001</ele>
        <time>2025-05-12T08:20:48Z</time>
      </trkpt>
      <trkpt lat="36.991933984681964" lon="-3.270462965592742">
        <ele>1509.4100000000001</ele>
        <time>2025-05-12T08:20:51Z</time>
      </trkpt>
      <trkpt lat="36.99215903878212" lon="-3.270287029445171">
        <ele>1508.9300000000001</ele>
        <time>2025-05-12T08:20:53Z</time>
      </trkpt>
      <trkpt lat="36.992800002917647" lon="-3.269680012017489">
        <ele>1505.5599999999999</ele>
        <time>2025-05-12T08:20:59Z</time>
      </trkpt>
      <trkpt lat="36.992923971265554" lon="-3.269625026732683">
        <ele>1505.0799999999999</ele>
        <time>2025-05-12T08:21:00Z</time>
      </trkpt>
      <trkpt lat="36.993046011775732" lon="-3.269570963457227">
        <ele>1504.1199999999999</ele>
        <time>2025-05-12T08:21:01Z</time>
      </trkpt>
      <trkpt lat="36.993166040629148" lon="-3.269570041447878">
        <ele>1503.6400000000001</ele>
        <time>2025-05-12T08:21:02Z</time>
      </trkpt>
      <trkpt lat="36.993281962350011" lon="-3.269570041447878">
        <ele>1502.6800000000001</ele>
        <time>2025-05-12T08:21:03Z</time>
      </trkpt>
      <trkpt lat="36.993382964283228" lon="-3.269570041447878">
        <ele>1501.72</ele>
        <time>2025-05-12T08:21:04Z</time>
      </trkpt>
      <trkpt lat="36.993540963158011" lon="-3.26963902451098">
        <ele>1499.79</ele>
        <time>2025-05-12T08:21:06Z</time>
      </trkpt>
      <trkpt lat="36.993614975363016" lon="-3.269672971218824">
        <ele>1499.3099999999999</ele>
        <time>2025-05-12T08:21:07Z</time>
      </trkpt>
      <trkpt lat="36.993670966476202" lon="-3.269699038937688">
        <ele>1498.3499999999999</ele>
        <time>2025-05-12T08:21:08Z</time>
      </trkpt>
      <trkpt lat="36.993742967024446" lon="-3.269756035879254">
        <ele>1497.8699999999999</ele>
        <time>2025-05-12T08:21:09Z</time>
      </trkpt>
      <trkpt lat="36.993805998936296" lon="-3.269806997850537">
        <ele>1497.3900000000001</ele>
        <time>2025-05-12T08:21:10Z</time>
      </trkpt>
      <trkpt lat="36.993885040283203" lon="-3.269870029762387">
        <ele>1496.9100000000001</ele>
        <time>2025-05-12T08:21:11Z</time>
      </trkpt>
      <trkpt lat="36.993917981162667" lon="-3.269935995340347">
        <ele>1496.9100000000001</ele>
        <time>2025-05-12T08:21:12Z</time>
      </trkpt>
      <trkpt lat="36.993960980325937" lon="-3.270020987838507">
        <ele>1496.4300000000001</ele>
        <time>2025-05-12T08:21:13Z</time>
      </trkpt>
      <trkpt lat="36.994002973660827" lon="-3.270104974508286">
        <ele>1495.95</ele>
        <time>2025-05-12T08:21:14Z</time>
      </trkpt>
      <trkpt lat="36.99405200779438" lon="-3.270182004198432">
        <ele>1495.95</ele>
        <time>2025-05-12T08:21:15Z</time>
      </trkpt>
      <trkpt lat="36.994134988635778" lon="-3.27024101279676">
        <ele>1495.47</ele>
        <time>2025-05-12T08:21:16Z</time>
      </trkpt>
      <trkpt lat="36.994236996397376" lon="-3.270272025838494">
        <ele>1494.51</ele>
        <time>2025-05-12T08:21:17Z</time>
      </trkpt>
      <trkpt lat="36.994358031079173" lon="-3.270257022231817">
        <ele>1494.03</ele>
        <time>2025-05-12T08:21:18Z</time>
      </trkpt>
      <trkpt lat="36.994447968900204" lon="-3.270213017240167">
        <ele>1493.55</ele>
        <time>2025-05-12T08:21:19Z</time>
      </trkpt>
      <trkpt lat="36.994559029117227" lon="-3.270159037783742">
        <ele>1492.5799999999999</ele>
        <time>2025-05-12T08:21:20Z</time>
      </trkpt>
      <trkpt lat="36.994872009381652" lon="-3.270009001716971">
        <ele>1490.6600000000001</ele>
        <time>2025-05-12T08:21:23Z</time>
      </trkpt>
      <trkpt lat="36.994951972737908" lon="-3.269977988675237">
        <ele>1490.6600000000001</ele>
        <time>2025-05-12T08:21:24Z</time>
      </trkpt>
      <trkpt lat="36.995046017691493" lon="-3.269977988675237">
        <ele>1490.1800000000001</ele>
        <time>2025-05-12T08:21:25Z</time>
      </trkpt>
      <trkpt lat="36.995421024039388" lon="-3.269970025867224">
        <ele>1487.78</ele>
        <time>2025-05-12T08:21:29Z</time>
      </trkpt>
      <trkpt lat="36.995507022365928" lon="-3.269912023097277">
        <ele>1486.8199999999999</ele>
        <time>2025-05-12T08:21:30Z</time>
      </trkpt>
      <trkpt lat="36.995601989328861" lon="-3.269848991185427">
        <ele>1486.3399999999999</ele>
        <time>2025-05-12T08:21:31Z</time>
      </trkpt>
      <trkpt lat="36.996161984279752" lon="-3.269330989569426">
        <ele>1481.53</ele>
        <time>2025-05-12T08:21:37Z</time>
      </trkpt>
      <trkpt lat="36.996240019798279" lon="-3.26921196654439">
        <ele>1480.0899999999999</ele>
        <time>2025-05-12T08:21:38Z</time>
      </trkpt>
      <trkpt lat="36.996513018384576" lon="-3.268764037638903">
        <ele>1476.72</ele>
        <time>2025-05-12T08:21:42Z</time>
      </trkpt>
      <trkpt lat="36.996603040024638" lon="-3.268666975200176">
        <ele>1475.76</ele>
        <time>2025-05-12T08:21:43Z</time>
      </trkpt>
      <trkpt lat="36.997451959177852" lon="-3.267767010256648">
        <ele>1468.55</ele>
        <time>2025-05-12T08:21:52Z</time>
      </trkpt>
      <trkpt lat="36.997565031051636" lon="-3.267715964466333">
        <ele>1467.5899999999999</ele>
        <time>2025-05-12T08:21:53Z</time>
      </trkpt>
      <trkpt lat="36.997672989964485" lon="-3.267667014151812">
        <ele>1466.6300000000001</ele>
        <time>2025-05-12T08:21:54Z</time>
      </trkpt>
      <trkpt lat="36.997771980240941" lon="-3.26762200333178">
        <ele>1465.6700000000001</ele>
        <time>2025-05-12T08:21:55Z</time>
      </trkpt>
      <trkpt lat="36.99787700548768" lon="-3.267573975026608">
        <ele>1464.71</ele>
        <time>2025-05-12T08:21:56Z</time>
      </trkpt>
      <trkpt lat="36.997935008257627" lon="-3.26749300584197">
        <ele>1463.74</ele>
        <time>2025-05-12T08:21:57Z</time>
      </trkpt>
      <trkpt lat="36.997989993542433" lon="-3.267394015565515">
        <ele>1462.3</ele>
        <time>2025-05-12T08:21:58Z</time>
      </trkpt>
      <trkpt lat="36.998015977442265" lon="-3.267275998368859">
        <ele>1461.3399999999999</ele>
        <time>2025-05-12T08:21:59Z</time>
      </trkpt>
      <trkpt lat="36.998041961342096" lon="-3.267153035849333">
        <ele>1460.3800000000001</ele>
        <time>2025-05-12T08:22:00Z</time>
      </trkpt>
      <trkpt lat="36.998038021847606" lon="-3.267016997560859">
        <ele>1459.4200000000001</ele>
        <time>2025-05-12T08:22:01Z</time>
      </trkpt>
      <trkpt lat="36.99802603572607" lon="-3.266888000071049">
        <ele>1458.46</ele>
        <time>2025-05-12T08:22:02Z</time>
      </trkpt>
      <trkpt lat="36.998013965785503" lon="-3.266761014238">
        <ele>1457.02</ele>
        <time>2025-05-12T08:22:03Z</time>
      </trkpt>
      <trkpt lat="36.998001979663968" lon="-3.266635034233332">
        <ele>1456.05</ele>
        <time>2025-05-12T08:22:04Z</time>
      </trkpt>
      <trkpt lat="36.997986976057291" lon="-3.266391959041357">
        <ele>1454.1300000000001</ele>
        <time>2025-05-12T08:22:06Z</time>
      </trkpt>
      <trkpt lat="36.997996028512716" lon="-3.266276037320495">
        <ele>1453.1700000000001</ele>
        <time>2025-05-12T08:22:07Z</time>
      </trkpt>
      <trkpt lat="36.99800499714911" lon="-3.266165982931852">
        <ele>1452.21</ele>
        <time>2025-05-12T08:22:08Z</time>
      </trkpt>
      <trkpt lat="36.99806903488934" lon="-3.266081996262074">
        <ele>1451.25</ele>
        <time>2025-05-12T08:22:09Z</time>
      </trkpt>
      <trkpt lat="36.998132988810539" lon="-3.266005972400308">
        <ele>1450.29</ele>
        <time>2025-05-12T08:22:10Z</time>
      </trkpt>
      <trkpt lat="36.99819702655077" lon="-3.265928020700812">
        <ele>1449.8099999999999</ele>
        <time>2025-05-12T08:22:11Z</time>
      </trkpt>
      <trkpt lat="36.998279001563787" lon="-3.265877980738878">
        <ele>1448.8399999999999</ele>
        <time>2025-05-12T08:22:12Z</time>
      </trkpt>
      <trkpt lat="36.998358964920044" lon="-3.265848979353905">
        <ele>1447.8800000000001</ele>
        <time>2025-05-12T08:22:13Z</time>
      </trkpt>
      <trkpt lat="36.998429959639907" lon="-3.265821989625692">
        <ele>1446.9200000000001</ele>
        <time>2025-05-12T08:22:14Z</time>
      </trkpt>
      <trkpt lat="36.998493997380137" lon="-3.265798017382622">
        <ele>1445.96</ele>
        <time>2025-05-12T08:22:15Z</time>
      </trkpt>
      <trkpt lat="36.998562980443239" lon="-3.26577203348279">
        <ele>1445</ele>
        <time>2025-05-12T08:22:16Z</time>
      </trkpt>
      <trkpt lat="36.998617965728045" lon="-3.26577203348279">
        <ele>1444.52</ele>
        <time>2025-05-12T08:22:17Z</time>
      </trkpt>
      <trkpt lat="36.998682003468275" lon="-3.26577203348279">
        <ele>1443.5599999999999</ele>
        <time>2025-05-12T08:22:18Z</time>
      </trkpt>
      <trkpt lat="36.99886498041451" lon="-3.26577203348279">
        <ele>1441.6300000000001</ele>
        <time>2025-05-12T08:22:21Z</time>
      </trkpt>
      <trkpt lat="36.998948967084289" lon="-3.265749989077449">
        <ele>1440.6700000000001</ele>
        <time>2025-05-12T08:22:23Z</time>
      </trkpt>
      <trkpt lat="36.999005964025855" lon="-3.265713024884462">
        <ele>1440.1900000000001</ele>
        <time>2025-05-12T08:22:24Z</time>
      </trkpt>
      <trkpt lat="36.999047035351396" lon="-3.265685029327869">
        <ele>1439.23</ele>
        <time>2025-05-12T08:22:25Z</time>
      </trkpt>
      <trkpt lat="36.999109983444214" lon="-3.265581009909511">
        <ele>1438.27</ele>
        <time>2025-05-12T08:22:27Z</time>
      </trkpt>
      <trkpt lat="36.999134961515665" lon="-3.2655159663409">
        <ele>1437.79</ele>
        <time>2025-05-12T08:22:28Z</time>
      </trkpt>
      <trkpt lat="36.999161029234529" lon="-3.265448994934559">
        <ele>1437.3099999999999</ele>
        <time>2025-05-12T08:22:29Z</time>
      </trkpt>
      <trkpt lat="36.999185001477599" lon="-3.265376994386315">
        <ele>1436.8299999999999</ele>
        <time>2025-05-12T08:22:30Z</time>
      </trkpt>
      <trkpt lat="36.999176032841206" lon="-3.265302982181311">
        <ele>1436.3499999999999</ele>
        <time>2025-05-12T08:22:31Z</time>
      </trkpt>
      <trkpt lat="36.999167986214161" lon="-3.265230981633067">
        <ele>1435.8699999999999</ele>
        <time>2025-05-12T08:22:32Z</time>
      </trkpt>
      <trkpt lat="36.99914401397109" lon="-3.265155041590333">
        <ele>1435.8699999999999</ele>
        <time>2025-05-12T08:22:33Z</time>
      </trkpt>
      <trkpt lat="36.999109983444214" lon="-3.265094021335244">
        <ele>1435.3900000000001</ele>
        <time>2025-05-12T08:22:34Z</time>
      </trkpt>
      <trkpt lat="36.99907997623086" lon="-3.265039036050439">
        <ele>1435.3900000000001</ele>
        <time>2025-05-12T08:22:35Z</time>
      </trkpt>
      <trkpt lat="36.999050974845886" lon="-3.264985978603363">
        <ele>1435.3900000000001</ele>
        <time>2025-05-12T08:22:36Z</time>
      </trkpt>
      <trkpt lat="36.999025996774435" lon="-3.264939961954951">
        <ele>1434.9100000000001</ele>
        <time>2025-05-12T08:22:37Z</time>
      </trkpt>
      <trkpt lat="36.998999007046223" lon="-3.26489101164043">
        <ele>1434.9100000000001</ele>
        <time>2025-05-12T08:22:38Z</time>
      </trkpt>
      <trkpt lat="36.99897101148963" lon="-3.264841977506876">
        <ele>1434.4200000000001</ele>
        <time>2025-05-12T08:22:39Z</time>
      </trkpt>
      <trkpt lat="36.998943015933037" lon="-3.264792021363974">
        <ele>1433.9400000000001</ele>
        <time>2025-05-12T08:22:40Z</time>
      </trkpt>
      <trkpt lat="36.998914014548063" lon="-3.26474198140204">
        <ele>1433.46</ele>
        <time>2025-05-12T08:22:41Z</time>
      </trkpt>
      <trkpt lat="36.998888030648232" lon="-3.264694958925247">
        <ele>1433.46</ele>
        <time>2025-05-12T08:22:42Z</time>
      </trkpt>
      <trkpt lat="36.998861962929368" lon="-3.264648020267487">
        <ele>1432.98</ele>
        <time>2025-05-12T08:22:43Z</time>
      </trkpt>
      <trkpt lat="36.998805971816182" lon="-3.264503013342619">
        <ele>1432.5</ele>
        <time>2025-05-12T08:22:46Z</time>
      </trkpt>
      <trkpt lat="36.998792979866266" lon="-3.264452973380685">
        <ele>1432.5</ele>
        <time>2025-05-12T08:22:47Z</time>
      </trkpt>
      <trkpt lat="36.998781999573112" lon="-3.264396982267499">
        <ele>1432.5</ele>
        <time>2025-05-12T08:22:48Z</time>
      </trkpt>
      <trkpt lat="36.998770013451576" lon="-3.26433596201241">
        <ele>1432.02</ele>
        <time>2025-05-12T08:22:49Z</time>
      </trkpt>
      <trkpt lat="36.99875702150166" lon="-3.264266978949308">
        <ele>1432.02</ele>
        <time>2025-05-12T08:22:50Z</time>
      </trkpt>
      <trkpt lat="36.998777976259589" lon="-3.264205036684871">
        <ele>1432.5</ele>
        <time>2025-05-12T08:22:51Z</time>
      </trkpt>
      <trkpt lat="36.998803038150072" lon="-3.264136975631118">
        <ele>1432.98</ele>
        <time>2025-05-12T08:22:52Z</time>
      </trkpt>
      <trkpt lat="36.99884201399982" lon="-3.26409799978137">
        <ele>1432.98</ele>
        <time>2025-05-12T08:22:53Z</time>
      </trkpt>
      <trkpt lat="36.998906973749399" lon="-3.264067992568016">
        <ele>1433.46</ele>
        <time>2025-05-12T08:22:54Z</time>
      </trkpt>
      <trkpt lat="36.998970005661249" lon="-3.264038991183043">
        <ele>1433.9400000000001</ele>
        <time>2025-05-12T08:22:55Z</time>
      </trkpt>
      <trkpt lat="36.999032031744719" lon="-3.26401099562645">
        <ele>1434.4200000000001</ele>
        <time>2025-05-12T08:22:56Z</time>
      </trkpt>
      <trkpt lat="36.999282985925674" lon="-3.263985011726618">
        <ele>1433.46</ele>
        <time>2025-05-12T08:23:00Z</time>
      </trkpt>
      <trkpt lat="36.999344006180763" lon="-3.26399096287787">
        <ele>1433.46</ele>
        <time>2025-05-12T08:23:01Z</time>
      </trkpt>
      <trkpt lat="36.999410977587104" lon="-3.263996997848153">
        <ele>1432.98</ele>
        <time>2025-05-12T08:23:02Z</time>
      </trkpt>
      <trkpt lat="36.999840969219804" lon="-3.263992974534631">
        <ele>1432.5</ele>
        <time>2025-05-12T08:23:08Z</time>
      </trkpt>
      <trkpt lat="36.999919004738331" lon="-3.263974031433463">
        <ele>1432.02</ele>
        <time>2025-05-12T08:23:09Z</time>
      </trkpt>
      <trkpt lat="37.000022018328309" lon="-3.2639479637146">
        <ele>1432.02</ele>
        <time>2025-05-12T08:23:10Z</time>
      </trkpt>
      <trkpt lat="37.000085972249508" lon="-3.263903958722949">
        <ele>1431.54</ele>
        <time>2025-05-12T08:23:11Z</time>
      </trkpt>
      <trkpt lat="37.000166019424796" lon="-3.263849979266524">
        <ele>1431.0599999999999</ele>
        <time>2025-05-12T08:23:12Z</time>
      </trkpt>
      <trkpt lat="37.000635992735624" lon="-3.263462986797094">
        <ele>1428.1800000000001</ele>
        <time>2025-05-12T08:23:19Z</time>
      </trkpt>
      <trkpt lat="37.000693995505571" lon="-3.263404984027147">
        <ele>1427.21</ele>
        <time>2025-05-12T08:23:20Z</time>
      </trkpt>
      <trkpt lat="37.000753004103899" lon="-3.263343963772059">
        <ele>1426.73</ele>
        <time>2025-05-12T08:23:21Z</time>
      </trkpt>
      <trkpt lat="37.000774964690208" lon="-3.263261988759041">
        <ele>1426.25</ele>
        <time>2025-05-12T08:23:22Z</time>
      </trkpt>
      <trkpt lat="37.00079700909555" lon="-3.263180013746023">
        <ele>1426.25</ele>
        <time>2025-05-12T08:23:23Z</time>
      </trkpt>
      <trkpt lat="37.000818969681859" lon="-3.263098960742354">
        <ele>1425.77</ele>
        <time>2025-05-12T08:23:24Z</time>
      </trkpt>
      <trkpt lat="37.0008410140872" lon="-3.263015979900956">
        <ele>1425.77</ele>
        <time>2025-05-12T08:23:25Z</time>
      </trkpt>
      <trkpt lat="37.00086398050189" lon="-3.262929981574416">
        <ele>1425.29</ele>
        <time>2025-05-12T08:23:26Z</time>
      </trkpt>
      <trkpt lat="37.000888036563993" lon="-3.262841971591115">
        <ele>1424.8099999999999</ele>
        <time>2025-05-12T08:23:27Z</time>
      </trkpt>
      <trkpt lat="37.000900022685528" lon="-3.262747004628182">
        <ele>1424.3299999999999</ele>
        <time>2025-05-12T08:23:28Z</time>
      </trkpt>
      <trkpt lat="37.000893987715244" lon="-3.262648014351726">
        <ele>1423.8499999999999</ele>
        <time>2025-05-12T08:23:29Z</time>
      </trkpt>
      <trkpt lat="37.000888036563993" lon="-3.262545000761747">
        <ele>1422.8900000000001</ele>
        <time>2025-05-12T08:23:30Z</time>
      </trkpt>
      <trkpt lat="37.000882001593709" lon="-3.262445004656911">
        <ele>1422.4100000000001</ele>
        <time>2025-05-12T08:23:31Z</time>
      </trkpt>
      <trkpt lat="37.0008410140872" lon="-3.26235800050199">
        <ele>1422.4100000000001</ele>
        <time>2025-05-12T08:23:32Z</time>
      </trkpt>
      <trkpt lat="37.000794997438788" lon="-3.262280970811844">
        <ele>1421.9300000000001</ele>
        <time>2025-05-12T08:23:33Z</time>
      </trkpt>
      <trkpt lat="37.000745041295886" lon="-3.262204024940729">
        <ele>1421.45</ele>
        <time>2025-05-12T08:23:34Z</time>
      </trkpt>
      <trkpt lat="37.000685026869178" lon="-3.262150967493653">
        <ele>1421.45</ele>
        <time>2025-05-12T08:23:35Z</time>
      </trkpt>
      <trkpt lat="37.000515963882208" lon="-3.262060023844242">
        <ele>1420.49</ele>
        <time>2025-05-12T08:23:38Z</time>
      </trkpt>
      <trkpt lat="37.00045301578939" lon="-3.262060023844242">
        <ele>1420</ele>
        <time>2025-05-12T08:23:39Z</time>
      </trkpt>
      <trkpt lat="37.000366011634469" lon="-3.262060023844242">
        <ele>1420</ele>
        <time>2025-05-12T08:23:40Z</time>
      </trkpt>
      <trkpt lat="37.000317983329296" lon="-3.26209899969399">
        <ele>1420</ele>
        <time>2025-05-12T08:23:41Z</time>
      </trkpt>
      <trkpt lat="37.000240031629801" lon="-3.26216496527195">
        <ele>1420</ele>
        <time>2025-05-12T08:23:42Z</time>
      </trkpt>
      <trkpt lat="37.000158978626132" lon="-3.262234032154083">
        <ele>1420.49</ele>
        <time>2025-05-12T08:23:43Z</time>
      </trkpt>
      <trkpt lat="36.999906012788415" lon="-3.262446010485292">
        <ele>1421.45</ele>
        <time>2025-05-12T08:23:46Z</time>
      </trkpt>
      <trkpt lat="36.999828983098269" lon="-3.26250996440649">
        <ele>1421.9300000000001</ele>
        <time>2025-05-12T08:23:47Z</time>
      </trkpt>
      <trkpt lat="36.999719012528658" lon="-3.262560004368424">
        <ele>1421.9300000000001</ele>
        <time>2025-05-12T08:23:48Z</time>
      </trkpt>
      <trkpt lat="36.999609963968396" lon="-3.262594034895301">
        <ele>1421.9300000000001</ele>
        <time>2025-05-12T08:23:49Z</time>
      </trkpt>
      <trkpt lat="36.999492030590773" lon="-3.262586994096637">
        <ele>1421.45</ele>
        <time>2025-05-12T08:23:50Z</time>
      </trkpt>
      <trkpt lat="36.999365966767073" lon="-3.262578025460243">
        <ele>1421.45</ele>
        <time>2025-05-12T08:23:51Z</time>
      </trkpt>
      <trkpt lat="36.999235041439533" lon="-3.262560004368424">
        <ele>1421.45</ele>
        <time>2025-05-12T08:23:52Z</time>
      </trkpt>
      <trkpt lat="36.998827010393143" lon="-3.262494960799813">
        <ele>1420</ele>
        <time>2025-05-12T08:23:55Z</time>
      </trkpt>
      <trkpt lat="36.998673034831882" lon="-3.262523040175438">
        <ele>1419.52</ele>
        <time>2025-05-12T08:23:56Z</time>
      </trkpt>
      <trkpt lat="36.998187974095345" lon="-3.262609960511327">
        <ele>1418.0799999999999</ele>
        <time>2025-05-12T08:23:59Z</time>
      </trkpt>
      <trkpt lat="36.998011032119393" lon="-3.262638039886951">
        <ele>1417.5999999999999</ele>
        <time>2025-05-12T08:24:00Z</time>
      </trkpt>
      <trkpt lat="36.996885007247329" lon="-3.262618007138372">
        <ele>1413.28</ele>
        <time>2025-05-12T08:24:07Z</time>
      </trkpt>
      <trkpt lat="36.996791968122125" lon="-3.262644996866584">
        <ele>1412.79</ele>
        <time>2025-05-12T08:24:08Z</time>
      </trkpt>
      <trkpt lat="36.996687026694417" lon="-3.262696964666247">
        <ele>1412.79</ele>
        <time>2025-05-12T08:24:09Z</time>
      </trkpt>
      <trkpt lat="36.996613014489412" lon="-3.262773994356394">
        <ele>1412.79</ele>
        <time>2025-05-12T08:24:10Z</time>
      </trkpt>
      <trkpt lat="36.996561968699098" lon="-3.262900980189443">
        <ele>1412.79</ele>
        <time>2025-05-12T08:24:11Z</time>
      </trkpt>
      <trkpt lat="36.996517963707447" lon="-3.263041963800788">
        <ele>1412.79</ele>
        <time>2025-05-12T08:24:12Z</time>
      </trkpt>
      <trkpt lat="36.996157038956881" lon="-3.264339985325933">
        <ele>1418.0799999999999</ele>
        <time>2025-05-12T08:24:20Z</time>
      </trkpt>
      <trkpt lat="36.996128037571907" lon="-3.264447022229433">
        <ele>1419.52</ele>
        <time>2025-05-12T08:24:21Z</time>
      </trkpt>
      <trkpt lat="36.996052013710141" lon="-3.264533020555973">
        <ele>1420.49</ele>
        <time>2025-05-12T08:24:22Z</time>
      </trkpt>
      <trkpt lat="36.995978001505136" lon="-3.264589011669159">
        <ele>1420.97</ele>
        <time>2025-05-12T08:24:23Z</time>
      </trkpt>
      <trkpt lat="36.99589803814888" lon="-3.264649026095867">
        <ele>1421.9300000000001</ele>
        <time>2025-05-12T08:24:24Z</time>
      </trkpt>
      <trkpt lat="36.995812961831689" lon="-3.264712980017066">
        <ele>1422.4100000000001</ele>
        <time>2025-05-12T08:24:25Z</time>
      </trkpt>
      <trkpt lat="36.995164034888148" lon="-3.265148000791669">
        <ele>1425.77</ele>
        <time>2025-05-12T08:24:31Z</time>
      </trkpt>
      <trkpt lat="36.995022967457771" lon="-3.265213966369629">
        <ele>1425.77</ele>
        <time>2025-05-12T08:24:32Z</time>
      </trkpt>
      <trkpt lat="36.994900004938245" lon="-3.265229975804687">
        <ele>1426.25</ele>
        <time>2025-05-12T08:24:33Z</time>
      </trkpt>
      <trkpt lat="36.994750974699855" lon="-3.265250008553267">
        <ele>1426.25</ele>
        <time>2025-05-12T08:24:34Z</time>
      </trkpt>
      <trkpt lat="36.994594987481833" lon="-3.265237016603351">
        <ele>1426.25</ele>
        <time>2025-05-12T08:24:35Z</time>
      </trkpt>
      <trkpt lat="36.994436988607049" lon="-3.265208015218377">
        <ele>1426.25</ele>
        <time>2025-05-12T08:24:36Z</time>
      </trkpt>
      <trkpt lat="36.99428703635931" lon="-3.265167027711868">
        <ele>1425.77</ele>
        <time>2025-05-12T08:24:37Z</time>
      </trkpt>
      <trkpt lat="36.994121996685863" lon="-3.26510701328516">
        <ele>1425.77</ele>
        <time>2025-05-12T08:24:38Z</time>
      </trkpt>
      <trkpt lat="36.993992999196053" lon="-3.265002993866801">
        <ele>1425.29</ele>
        <time>2025-05-12T08:24:39Z</time>
      </trkpt>
      <trkpt lat="36.993856960907578" lon="-3.26489201746881">
        <ele>1425.29</ele>
        <time>2025-05-12T08:24:40Z</time>
      </trkpt>
      <trkpt lat="36.993724023923278" lon="-3.26480601914227">
        <ele>1424.8099999999999</ele>
        <time>2025-05-12T08:24:41Z</time>
      </trkpt>
      <trkpt lat="36.993592008948326" lon="-3.264753967523575">
        <ele>1424.3299999999999</ele>
        <time>2025-05-12T08:24:42Z</time>
      </trkpt>
      <trkpt lat="36.993482960388064" lon="-3.264783974736929">
        <ele>1423.8499999999999</ele>
        <time>2025-05-12T08:24:43Z</time>
      </trkpt>
      <trkpt lat="36.993379024788737" lon="-3.264838960021734">
        <ele>1423.8499999999999</ele>
        <time>2025-05-12T08:24:44Z</time>
      </trkpt>
      <trkpt lat="36.993295960128307" lon="-3.264882965013385">
        <ele>1424.3299999999999</ele>
        <time>2025-05-12T08:24:45Z</time>
      </trkpt>
      <trkpt lat="36.993208033964038" lon="-3.264928981661797">
        <ele>1423.8499999999999</ele>
        <time>2025-05-12T08:24:50Z</time>
      </trkpt>
      <trkpt lat="36.993189007043839" lon="-3.264939039945602">
        <ele>1425.29</ele>
        <time>2025-05-12T08:25:03Z</time>
      </trkpt>
      <trkpt lat="36.993189007043839" lon="-3.264939039945602">
        <ele>1425.29</ele>
        <time>2025-05-12T08:25:43Z</time>
      </trkpt>
      <trkpt lat="36.99315195903182" lon="-3.26495697721839">
        <ele>1426.25</ele>
        <time>2025-05-12T08:26:01Z</time>
      </trkpt>
      <trkpt lat="36.993124969303608" lon="-3.264958988875151">
        <ele>1426.73</ele>
        <time>2025-05-12T08:26:02Z</time>
      </trkpt>
      <trkpt lat="36.993079958483577" lon="-3.264963012188673">
        <ele>1427.7</ele>
        <time>2025-05-12T08:26:03Z</time>
      </trkpt>
      <trkpt lat="36.993009969592094" lon="-3.264968963339925">
        <ele>1428.1800000000001</ele>
        <time>2025-05-12T08:26:04Z</time>
      </trkpt>
      <trkpt lat="36.992923971265554" lon="-3.264976004138589">
        <ele>1428.6600000000001</ele>
        <time>2025-05-12T08:26:05Z</time>
      </trkpt>
      <trkpt lat="36.992730014026165" lon="-3.264992013573647">
        <ele>1430.0999999999999</ele>
        <time>2025-05-12T08:26:07Z</time>
      </trkpt>
      <trkpt lat="36.992640998214483" lon="-3.264998970553279">
        <ele>1430.0999999999999</ele>
        <time>2025-05-12T08:26:08Z</time>
      </trkpt>
      <trkpt lat="36.992522981017828" lon="-3.265062002465129">
        <ele>1431.0599999999999</ele>
        <time>2025-05-12T08:26:09Z</time>
      </trkpt>
      <trkpt lat="36.992414016276598" lon="-3.265121011063457">
        <ele>1431.54</ele>
        <time>2025-05-12T08:26:10Z</time>
      </trkpt>
      <trkpt lat="36.992299016565084" lon="-3.265182031318545">
        <ele>1432.5</ele>
        <time>2025-05-12T08:26:11Z</time>
      </trkpt>
      <trkpt lat="36.991788977757096" lon="-3.265396021306515">
        <ele>1436.8299999999999</ele>
        <time>2025-05-12T08:26:15Z</time>
      </trkpt>
      <trkpt lat="36.99164598248899" lon="-3.265432985499501">
        <ele>1437.79</ele>
        <time>2025-05-12T08:26:16Z</time>
      </trkpt>
      <trkpt lat="36.991382036358118" lon="-3.265500962734222">
        <ele>1439.23</ele>
        <time>2025-05-12T08:26:18Z</time>
      </trkpt>
      <trkpt lat="36.991245998069644" lon="-3.265535999089479">
        <ele>1439.71</ele>
        <time>2025-05-12T08:26:19Z</time>
      </trkpt>
      <trkpt lat="36.991132004186511" lon="-3.265617974102497">
        <ele>1440.1900000000001</ele>
        <time>2025-05-12T08:26:20Z</time>
      </trkpt>
      <trkpt lat="36.99091600254178" lon="-3.2657749671489">
        <ele>1440.1900000000001</ele>
        <time>2025-05-12T08:26:22Z</time>
      </trkpt>
      <trkpt lat="36.990801002830267" lon="-3.265827018767595">
        <ele>1440.1900000000001</ele>
        <time>2025-05-12T08:26:23Z</time>
      </trkpt>
      <trkpt lat="36.990160960704088" lon="-3.265909999608994">
        <ele>1440.1900000000001</ele>
        <time>2025-05-12T08:26:27Z</time>
      </trkpt>
      <trkpt lat="36.989829037338495" lon="-3.265919974073768">
        <ele>1439.23</ele>
        <time>2025-05-12T08:26:29Z</time>
      </trkpt>
      <trkpt lat="36.989662991836667" lon="-3.265950987115502">
        <ele>1438.75</ele>
        <time>2025-05-12T08:26:30Z</time>
      </trkpt>
      <trkpt lat="36.989190001040697" lon="-3.266069004312158">
        <ele>1435.8699999999999</ele>
        <time>2025-05-12T08:26:33Z</time>
      </trkpt>
      <trkpt lat="36.989032002165914" lon="-3.266055006533861">
        <ele>1434.4200000000001</ele>
        <time>2025-05-12T08:26:34Z</time>
      </trkpt>
      <trkpt lat="36.988696977496147" lon="-3.266041008755565">
        <ele>1432.5</ele>
        <time>2025-05-12T08:26:36Z</time>
      </trkpt>
      <trkpt lat="36.98855197057128" lon="-3.266070010140538">
        <ele>1431.0599999999999</ele>
        <time>2025-05-12T08:26:37Z</time>
      </trkpt>
      <trkpt lat="36.988421967253089" lon="-3.266171012073755">
        <ele>1429.6199999999999</ele>
        <time>2025-05-12T08:26:38Z</time>
      </trkpt>
      <trkpt lat="36.988000022247434" lon="-3.266518022865057">
        <ele>1425.77</ele>
        <time>2025-05-12T08:26:41Z</time>
      </trkpt>
      <trkpt lat="36.987859960645437" lon="-3.266593040898442">
        <ele>1424.8099999999999</ele>
        <time>2025-05-12T08:26:42Z</time>
      </trkpt>
      <trkpt lat="36.987700033932924" lon="-3.266646014526486">
        <ele>1423.8499999999999</ele>
        <time>2025-05-12T08:26:43Z</time>
      </trkpt>
      <trkpt lat="36.986719015985727" lon="-3.267081035301089">
        <ele>1415.6800000000001</ele>
        <time>2025-05-12T08:26:49Z</time>
      </trkpt>
      <trkpt lat="36.986551964655519" lon="-3.267064020037651">
        <ele>1414.24</ele>
        <time>2025-05-12T08:26:50Z</time>
      </trkpt>
      <trkpt lat="36.986411986872554" lon="-3.267050022259355">
        <ele>1412.79</ele>
        <time>2025-05-12T08:26:51Z</time>
      </trkpt>
      <trkpt lat="36.986289024353027" lon="-3.267038036137819">
        <ele>1411.8299999999999</ele>
        <time>2025-05-12T08:26:52Z</time>
      </trkpt>
      <trkpt lat="36.98620998300612" lon="-3.266957988962531">
        <ele>1410.3900000000001</ele>
        <time>2025-05-12T08:26:53Z</time>
      </trkpt>
      <trkpt lat="36.986136976629496" lon="-3.266882970929146">
        <ele>1408.95</ele>
        <time>2025-05-12T08:26:54Z</time>
      </trkpt>
      <trkpt lat="36.986087020486593" lon="-3.266743998974562">
        <ele>1407.99</ele>
        <time>2025-05-12T08:26:55Z</time>
      </trkpt>
      <trkpt lat="36.986029017716646" lon="-3.266583988443017">
        <ele>1406.55</ele>
        <time>2025-05-12T08:26:56Z</time>
      </trkpt>
      <trkpt lat="36.985965985804796" lon="-3.266410985961556">
        <ele>1405.0999999999999</ele>
        <time>2025-05-12T08:26:57Z</time>
      </trkpt>
      <trkpt lat="36.985903959721327" lon="-3.266239995136857">
        <ele>1404.1400000000001</ele>
        <time>2025-05-12T08:26:58Z</time>
      </trkpt>
      <trkpt lat="36.985806981101632" lon="-3.266118038445711">
        <ele>1402.7</ele>
        <time>2025-05-12T08:26:59Z</time>
      </trkpt>
      <trkpt lat="36.985696004703641" lon="-3.266028016805649">
        <ele>1401.74</ele>
        <time>2025-05-12T08:27:00Z</time>
      </trkpt>
      <trkpt lat="36.985579999163747" lon="-3.265986023470759">
        <ele>1400.78</ele>
        <time>2025-05-12T08:27:01Z</time>
      </trkpt>
      <trkpt lat="36.985471034422517" lon="-3.265986023470759">
        <ele>1399.8199999999999</ele>
        <time>2025-05-12T08:27:02Z</time>
      </trkpt>
      <trkpt lat="36.985390987247229" lon="-3.26600999571383">
        <ele>1399.3399999999999</ele>
        <time>2025-05-12T08:27:03Z</time>
      </trkpt>
      <trkpt lat="36.985318986698985" lon="-3.266103034839034">
        <ele>1399.3399999999999</ele>
        <time>2025-05-12T08:27:04Z</time>
      </trkpt>
      <trkpt lat="36.985246986150742" lon="-3.266218034550548">
        <ele>1399.3399999999999</ele>
        <time>2025-05-12T08:27:05Z</time>
      </trkpt>
      <trkpt lat="36.9851990416646" lon="-3.26637402176857">
        <ele>1399.3399999999999</ele>
        <time>2025-05-12T08:27:06Z</time>
      </trkpt>
      <trkpt lat="36.984809031710029" lon="-3.267359985038638">
        <ele>1403.6600000000001</ele>
        <time>2025-05-12T08:27:12Z</time>
      </trkpt>
      <trkpt lat="36.984775001183152" lon="-3.267539022490382">
        <ele>1404.1400000000001</ele>
        <time>2025-05-12T08:27:13Z</time>
      </trkpt>
      <trkpt lat="36.984738958999515" lon="-3.267731973901391">
        <ele>1405.0999999999999</ele>
        <time>2025-05-12T08:27:14Z</time>
      </trkpt>
      <trkpt lat="36.984638040885329" lon="-3.268274031579495">
        <ele>1408.95</ele>
        <time>2025-05-12T08:27:17Z</time>
      </trkpt>
      <trkpt lat="36.984601998701692" lon="-3.268406968563795">
        <ele>1410.3900000000001</ele>
        <time>2025-05-12T08:27:18Z</time>
      </trkpt>
      <trkpt lat="36.984542990103364" lon="-3.2684809807688">
        <ele>1411.8299999999999</ele>
        <time>2025-05-12T08:27:19Z</time>
      </trkpt>
      <trkpt lat="36.984442993998528" lon="-3.268521968275309">
        <ele>1412.79</ele>
        <time>2025-05-12T08:27:20Z</time>
      </trkpt>
      <trkpt lat="36.984323970973492" lon="-3.268516017124057">
        <ele>1414.24</ele>
        <time>2025-05-12T08:27:21Z</time>
      </trkpt>
      <trkpt lat="36.984210982918739" lon="-3.26845801435411">
        <ele>1415.2</ele>
        <time>2025-05-12T08:27:22Z</time>
      </trkpt>
      <trkpt lat="36.984105035662651" lon="-3.268350977450609">
        <ele>1416.6400000000001</ele>
        <time>2025-05-12T08:27:23Z</time>
      </trkpt>
      <trkpt lat="36.983980983495712" lon="-3.268228014931083">
        <ele>1417.5999999999999</ele>
        <time>2025-05-12T08:27:24Z</time>
      </trkpt>
      <trkpt lat="36.983839999884367" lon="-3.268121983855963">
        <ele>1418.5599999999999</ele>
        <time>2025-05-12T08:27:25Z</time>
      </trkpt>
      <trkpt lat="36.983692981302738" lon="-3.268044032156467">
        <ele>1419.04</ele>
        <time>2025-05-12T08:27:26Z</time>
      </trkpt>
      <trkpt lat="36.983529031276703" lon="-3.268026011064649">
        <ele>1420</ele>
        <time>2025-05-12T08:27:27Z</time>
      </trkpt>
      <trkpt lat="36.983387041836977" lon="-3.268046965822578">
        <ele>1420.97</ele>
        <time>2025-05-12T08:27:28Z</time>
      </trkpt>
      <trkpt lat="36.983256032690406" lon="-3.268069010227919">
        <ele>1421.45</ele>
        <time>2025-05-12T08:27:29Z</time>
      </trkpt>
      <trkpt lat="36.983134998008609" lon="-3.268088959157467">
        <ele>1422.4100000000001</ele>
        <time>2025-05-12T08:27:30Z</time>
      </trkpt>
      <trkpt lat="36.983007006347179" lon="-3.2680509891361">
        <ele>1423.8499999999999</ele>
        <time>2025-05-12T08:27:31Z</time>
      </trkpt>
      <trkpt lat="36.982886977493763" lon="-3.267996003851295">
        <ele>1424.8099999999999</ele>
        <time>2025-05-12T08:27:32Z</time>
      </trkpt>
      <trkpt lat="36.982782036066055" lon="-3.267906988039613">
        <ele>1425.77</ele>
        <time>2025-05-12T08:27:33Z</time>
      </trkpt>
      <trkpt lat="36.982696959748864" lon="-3.26777396723628">
        <ele>1426.73</ele>
        <time>2025-05-12T08:27:34Z</time>
      </trkpt>
      <trkpt lat="36.982611967250705" lon="-3.267632983624935">
        <ele>1427.7</ele>
        <time>2025-05-12T08:27:35Z</time>
      </trkpt>
      <trkpt lat="36.982534015551209" lon="-3.267501974478364">
        <ele>1428.6600000000001</ele>
        <time>2025-05-12T08:27:36Z</time>
      </trkpt>
      <trkpt lat="36.982446005567908" lon="-3.267423016950488">
        <ele>1429.6199999999999</ele>
        <time>2025-05-12T08:27:37Z</time>
      </trkpt>
      <trkpt lat="36.982354978099465" lon="-3.267384963110089">
        <ele>1431.0599999999999</ele>
        <time>2025-05-12T08:27:38Z</time>
      </trkpt>
      <trkpt lat="36.982246013358235" lon="-3.267398038879037">
        <ele>1432.02</ele>
        <time>2025-05-12T08:27:39Z</time>
      </trkpt>
      <trkpt lat="36.982124978676438" lon="-3.267441960051656">
        <ele>1432.98</ele>
        <time>2025-05-12T08:27:40Z</time>
      </trkpt>
      <trkpt lat="36.981995981186628" lon="-3.267499040812254">
        <ele>1434.4200000000001</ele>
        <time>2025-05-12T08:27:41Z</time>
      </trkpt>
      <trkpt lat="36.981871007010341" lon="-3.267554026097059">
        <ele>1435.3900000000001</ele>
        <time>2025-05-12T08:27:42Z</time>
      </trkpt>
      <trkpt lat="36.981745027005672" lon="-3.267564000561833">
        <ele>1436.3499999999999</ele>
        <time>2025-05-12T08:27:43Z</time>
      </trkpt>
      <trkpt lat="36.981618963181973" lon="-3.267527036368847">
        <ele>1437.79</ele>
        <time>2025-05-12T08:27:44Z</time>
      </trkpt>
      <trkpt lat="36.981513015925884" lon="-3.267445983365178">
        <ele>1438.75</ele>
        <time>2025-05-12T08:27:45Z</time>
      </trkpt>
      <trkpt lat="36.981415031477809" lon="-3.267373982816935">
        <ele>1439.71</ele>
        <time>2025-05-12T08:27:46Z</time>
      </trkpt>
      <trkpt lat="36.981315035372972" lon="-3.267375994473696">
        <ele>1440.6700000000001</ele>
        <time>2025-05-12T08:27:47Z</time>
      </trkpt>
      <trkpt lat="36.981183020398021" lon="-3.267402984201908">
        <ele>1441.6300000000001</ele>
        <time>2025-05-12T08:27:48Z</time>
      </trkpt>
      <trkpt lat="36.981114037334919" lon="-3.267497029155493">
        <ele>1442.5999999999999</ele>
        <time>2025-05-12T08:27:49Z</time>
      </trkpt>
      <trkpt lat="36.981015969067812" lon="-3.267630971968174">
        <ele>1443.5599999999999</ele>
        <time>2025-05-12T08:27:50Z</time>
      </trkpt>
      <trkpt lat="36.980913961306214" lon="-3.26777002774179">
        <ele>1444.04</ele>
        <time>2025-05-12T08:27:51Z</time>
      </trkpt>
      <trkpt lat="36.980812037363648" lon="-3.267910005524755">
        <ele>1445.48</ele>
        <time>2025-05-12T08:27:52Z</time>
      </trkpt>
      <trkpt lat="36.980712963268161" lon="-3.268045959994197">
        <ele>1446.9200000000001</ele>
        <time>2025-05-12T08:27:53Z</time>
      </trkpt>
      <trkpt lat="36.98060299269855" lon="-3.268197001889348">
        <ele>1447.8800000000001</ele>
        <time>2025-05-12T08:27:54Z</time>
      </trkpt>
      <trkpt lat="36.980475001037121" lon="-3.268267996609211">
        <ele>1449.3199999999999</ele>
        <time>2025-05-12T08:27:55Z</time>
      </trkpt>
      <trkpt lat="36.98032203130424" lon="-3.26835198327899">
        <ele>1450.29</ele>
        <time>2025-05-12T08:27:56Z</time>
      </trkpt>
      <trkpt lat="36.979675032198429" lon="-3.268710980191827">
        <ele>1456.05</ele>
        <time>2025-05-12T08:28:00Z</time>
      </trkpt>
      <trkpt lat="36.979403039440513" lon="-3.268861016258597">
        <ele>1459.4200000000001</ele>
        <time>2025-05-12T08:28:02Z</time>
      </trkpt>
      <trkpt lat="36.979272030293941" lon="-3.268898986279964">
        <ele>1460.8599999999999</ele>
        <time>2025-05-12T08:28:03Z</time>
      </trkpt>
      <trkpt lat="36.979138003662229" lon="-3.268871996551752">
        <ele>1462.78</ele>
        <time>2025-05-12T08:28:04Z</time>
      </trkpt>
      <trkpt lat="36.9789909850806" lon="-3.268831009045243">
        <ele>1464.23</ele>
        <time>2025-05-12T08:28:05Z</time>
      </trkpt>
      <trkpt lat="36.978841032832861" lon="-3.268788009881973">
        <ele>1466.1500000000001</ele>
        <time>2025-05-12T08:28:06Z</time>
      </trkpt>
      <trkpt lat="36.97868999093771" lon="-3.268788009881973">
        <ele>1467.1099999999999</ele>
        <time>2025-05-12T08:28:07Z</time>
      </trkpt>
      <trkpt lat="36.978546995669603" lon="-3.268818017095327">
        <ele>1467.5899999999999</ele>
        <time>2025-05-12T08:28:08Z</time>
      </trkpt>
      <trkpt lat="36.97841196320951" lon="-3.268863027915359">
        <ele>1468.0699999999999</ele>
        <time>2025-05-12T08:28:09Z</time>
      </trkpt>
      <trkpt lat="36.978285983204842" lon="-3.268905021250248">
        <ele>1468.55</ele>
        <time>2025-05-12T08:28:10Z</time>
      </trkpt>
      <trkpt lat="36.978167966008186" lon="-3.268890017643571">
        <ele>1468.55</ele>
        <time>2025-05-12T08:28:11Z</time>
      </trkpt>
      <trkpt lat="36.978056989610195" lon="-3.268841989338398">
        <ele>1469.03</ele>
        <time>2025-05-12T08:28:12Z</time>
      </trkpt>
      <trkpt lat="36.977927992120385" lon="-3.268746016547084">
        <ele>1469.03</ele>
        <time>2025-05-12T08:28:13Z</time>
      </trkpt>
      <trkpt lat="36.977786002680659" lon="-3.268641997128725">
        <ele>1469.03</ele>
        <time>2025-05-12T08:28:14Z</time>
      </trkpt>
      <trkpt lat="36.977476961910725" lon="-3.26841501519084">
        <ele>1469.03</ele>
        <time>2025-05-12T08:28:16Z</time>
      </trkpt>
      <trkpt lat="36.977305971086025" lon="-3.268318036571145">
        <ele>1469.51</ele>
        <time>2025-05-12T08:28:17Z</time>
      </trkpt>
      <trkpt lat="36.977118970826268" lon="-3.268259027972817">
        <ele>1469.51</ele>
        <time>2025-05-12T08:28:18Z</time>
      </trkpt>
      <trkpt lat="36.976924007758498" lon="-3.268247041851282">
        <ele>1469.51</ele>
        <time>2025-05-12T08:28:19Z</time>
      </trkpt>
      <trkpt lat="36.976723009720445" lon="-3.268231032416225">
        <ele>1469.51</ele>
        <time>2025-05-12T08:28:20Z</time>
      </trkpt>
      <trkpt lat="36.97523002512753" lon="-3.268102034926415">
        <ele>1466.1500000000001</ele>
        <time>2025-05-12T08:28:27Z</time>
      </trkpt>
      <trkpt lat="36.974818976595998" lon="-3.268127012997866">
        <ele>1464.71</ele>
        <time>2025-05-12T08:28:29Z</time>
      </trkpt>
      <trkpt lat="36.974269961938262" lon="-3.268298003822565">
        <ele>1462.3</ele>
        <time>2025-05-12T08:28:32Z</time>
      </trkpt>
      <trkpt lat="36.973976008594036" lon="-3.268424989655614">
        <ele>1461.3399999999999</ele>
        <time>2025-05-12T08:28:34Z</time>
      </trkpt>
      <trkpt lat="36.973856985569" lon="-3.268449967727065">
        <ele>1461.3399999999999</ele>
        <time>2025-05-12T08:28:35Z</time>
      </trkpt>
      <trkpt lat="36.973722036927938" lon="-3.268439993262291">
        <ele>1460.8599999999999</ele>
        <time>2025-05-12T08:28:36Z</time>
      </trkpt>
      <trkpt lat="36.973593039438128" lon="-3.268409986048937">
        <ele>1460.8599999999999</ele>
        <time>2025-05-12T08:28:37Z</time>
      </trkpt>
      <trkpt lat="36.97344702668488" lon="-3.268318958580494">
        <ele>1460.3800000000001</ele>
        <time>2025-05-12T08:28:38Z</time>
      </trkpt>
      <trkpt lat="36.973287016153336" lon="-3.268218962475658">
        <ele>1460.3800000000001</ele>
        <time>2025-05-12T08:28:39Z</time>
      </trkpt>
      <trkpt lat="36.972457962110639" lon="-3.26762200333178">
        <ele>1458.9400000000001</ele>
        <time>2025-05-12T08:28:44Z</time>
      </trkpt>
      <trkpt lat="36.972336005419493" lon="-3.267455035820603">
        <ele>1458.46</ele>
        <time>2025-05-12T08:28:45Z</time>
      </trkpt>
      <trkpt lat="36.972208013758063" lon="-3.267279015854001">
        <ele>1457.5</ele>
        <time>2025-05-12T08:28:46Z</time>
      </trkpt>
      <trkpt lat="36.971953958272934" lon="-3.266929993405938">
        <ele>1456.53</ele>
        <time>2025-05-12T08:28:48Z</time>
      </trkpt>
      <trkpt lat="36.971824960783124" lon="-3.266808036714792">
        <ele>1456.05</ele>
        <time>2025-05-12T08:28:49Z</time>
      </trkpt>
      <trkpt lat="36.971705015748739" lon="-3.26674098148942">
        <ele>1455.0899999999999</ele>
        <time>2025-05-12T08:28:50Z</time>
      </trkpt>
      <trkpt lat="36.971580041572452" lon="-3.266761014238">
        <ele>1454.6099999999999</ele>
        <time>2025-05-12T08:28:51Z</time>
      </trkpt>
      <trkpt lat="36.97144903242588" lon="-3.266798984259367">
        <ele>1453.6500000000001</ele>
        <time>2025-05-12T08:28:52Z</time>
      </trkpt>
      <trkpt lat="36.971304025501013" lon="-3.266875008121133">
        <ele>1453.1700000000001</ele>
        <time>2025-05-12T08:28:53Z</time>
      </trkpt>
      <trkpt lat="36.971148960292339" lon="-3.266956983134151">
        <ele>1452.21</ele>
        <time>2025-05-12T08:28:54Z</time>
      </trkpt>
      <trkpt lat="36.970570022240281" lon="-3.267223024740815">
        <ele>1449.3199999999999</ele>
        <time>2025-05-12T08:28:58Z</time>
      </trkpt>
      <trkpt lat="36.970442030578852" lon="-3.267250014469028">
        <ele>1448.3599999999999</ele>
        <time>2025-05-12T08:28:59Z</time>
      </trkpt>
      <trkpt lat="36.970320995897055" lon="-3.267227970063686">
        <ele>1447.4000000000001</ele>
        <time>2025-05-12T08:29:00Z</time>
      </trkpt>
      <trkpt lat="36.970217982307076" lon="-3.267210032790899">
        <ele>1445.96</ele>
        <time>2025-05-12T08:29:01Z</time>
      </trkpt>
      <trkpt lat="36.970098037272692" lon="-3.267096038907766">
        <ele>1444.52</ele>
        <time>2025-05-12T08:29:02Z</time>
      </trkpt>
      <trkpt lat="36.969972979277372" lon="-3.266978021711111">
        <ele>1443.5599999999999</ele>
        <time>2025-05-12T08:29:03Z</time>
      </trkpt>
      <trkpt lat="36.969839036464691" lon="-3.266851035878062">
        <ele>1442.1099999999999</ele>
        <time>2025-05-12T08:29:04Z</time>
      </trkpt>
      <trkpt lat="36.969683971256018" lon="-3.266760008409619">
        <ele>1441.1500000000001</ele>
        <time>2025-05-12T08:29:05Z</time>
      </trkpt>
      <trkpt lat="36.969527984037995" lon="-3.266736958175898">
        <ele>1439.71</ele>
        <time>2025-05-12T08:29:06Z</time>
      </trkpt>
      <trkpt lat="36.969375014305115" lon="-3.266749028116465">
        <ele>1438.27</ele>
        <time>2025-05-12T08:29:07Z</time>
      </trkpt>
      <trkpt lat="36.969212992116809" lon="-3.266789009794593">
        <ele>1437.3099999999999</ele>
        <time>2025-05-12T08:29:08Z</time>
      </trkpt>
      <trkpt lat="36.969049964100122" lon="-3.266827985644341">
        <ele>1435.8699999999999</ele>
        <time>2025-05-12T08:29:09Z</time>
      </trkpt>
      <trkpt lat="36.96861200965941" lon="-3.266901997849345">
        <ele>1433.46</ele>
        <time>2025-05-12T08:29:12Z</time>
      </trkpt>
      <trkpt lat="36.968465996906161" lon="-3.266893029212952">
        <ele>1432.98</ele>
        <time>2025-05-12T08:29:13Z</time>
      </trkpt>
      <trkpt lat="36.968127032741904" lon="-3.266793033108115">
        <ele>1432.5</ele>
        <time>2025-05-12T08:29:15Z</time>
      </trkpt>
      <trkpt lat="36.967939026653767" lon="-3.266774006187916">
        <ele>1432.02</ele>
        <time>2025-05-12T08:29:16Z</time>
      </trkpt>
      <trkpt lat="36.967556979507208" lon="-3.266759002581239">
        <ele>1431.54</ele>
        <time>2025-05-12T08:29:18Z</time>
      </trkpt>
      <trkpt lat="36.967338966205716" lon="-3.266820022836328">
        <ele>1431.54</ele>
        <time>2025-05-12T08:29:19Z</time>
      </trkpt>
      <trkpt lat="36.966727003455162" lon="-3.266971986740828">
        <ele>1432.98</ele>
        <time>2025-05-12T08:29:22Z</time>
      </trkpt>
      <trkpt lat="36.966535979881883" lon="-3.266999982297421">
        <ele>1432.98</ele>
        <time>2025-05-12T08:29:23Z</time>
      </trkpt>
      <trkpt lat="36.966354008764029" lon="-3.267002999782562">
        <ele>1433.46</ele>
        <time>2025-05-12T08:29:24Z</time>
      </trkpt>
      <trkpt lat="36.966189974918962" lon="-3.266967963427305">
        <ele>1433.46</ele>
        <time>2025-05-12T08:29:25Z</time>
      </trkpt>
      <trkpt lat="36.966029964387417" lon="-3.266934016719461">
        <ele>1433.9400000000001</ele>
        <time>2025-05-12T08:29:26Z</time>
      </trkpt>
      <trkpt lat="36.965879006311297" lon="-3.266901997849345">
        <ele>1433.9400000000001</ele>
        <time>2025-05-12T08:29:27Z</time>
      </trkpt>
      <trkpt lat="36.965740034356713" lon="-3.266871990635991">
        <ele>1433.9400000000001</ele>
        <time>2025-05-12T08:29:28Z</time>
      </trkpt>
      <trkpt lat="36.96562604047358" lon="-3.266905015334487">
        <ele>1433.9400000000001</ele>
        <time>2025-05-12T08:29:29Z</time>
      </trkpt>
      <trkpt lat="36.965502994135022" lon="-3.266962012276053">
        <ele>1434.4200000000001</ele>
        <time>2025-05-12T08:29:30Z</time>
      </trkpt>
      <trkpt lat="36.965372990816832" lon="-3.267021020874381">
        <ele>1434.4200000000001</ele>
        <time>2025-05-12T08:29:31Z</time>
      </trkpt>
      <trkpt lat="36.965237036347389" lon="-3.267082963138819">
        <ele>1434.9100000000001</ele>
        <time>2025-05-12T08:29:32Z</time>
      </trkpt>
      <trkpt lat="36.965094041079283" lon="-3.26714800670743">
        <ele>1435.8699999999999</ele>
        <time>2025-05-12T08:29:33Z</time>
      </trkpt>
      <trkpt lat="36.964937970042229" lon="-3.267210032790899">
        <ele>1436.3499999999999</ele>
        <time>2025-05-12T08:29:34Z</time>
      </trkpt>
      <trkpt lat="36.964765973389149" lon="-3.267210032790899">
        <ele>1437.3099999999999</ele>
        <time>2025-05-12T08:29:35Z</time>
      </trkpt>
      <trkpt lat="36.964590037241578" lon="-3.267210032790899">
        <ele>1437.79</ele>
        <time>2025-05-12T08:29:36Z</time>
      </trkpt>
      <trkpt lat="36.964268004521728" lon="-3.267179019749165">
        <ele>1438.27</ele>
        <time>2025-05-12T08:29:38Z</time>
      </trkpt>
      <trkpt lat="36.964134983718395" lon="-3.267136020585895">
        <ele>1438.27</ele>
        <time>2025-05-12T08:29:39Z</time>
      </trkpt>
      <trkpt lat="36.964012021198869" lon="-3.267024038359523">
        <ele>1438.27</ele>
        <time>2025-05-12T08:29:40Z</time>
      </trkpt>
      <trkpt lat="36.963734999299049" lon="-3.266770988702774">
        <ele>1437.79</ele>
        <time>2025-05-12T08:29:42Z</time>
      </trkpt>
      <trkpt lat="36.963572977110744" lon="-3.266679961234331">
        <ele>1437.79</ele>
        <time>2025-05-12T08:29:43Z</time>
      </trkpt>
      <trkpt lat="36.962591959163547" lon="-3.266498995944858">
        <ele>1434.9100000000001</ele>
        <time>2025-05-12T08:29:48Z</time>
      </trkpt>
      <trkpt lat="36.962419962510467" lon="-3.266445016488433">
        <ele>1433.9400000000001</ele>
        <time>2025-05-12T08:29:49Z</time>
      </trkpt>
      <trkpt lat="36.962256012484431" lon="-3.266365975141525">
        <ele>1432.98</ele>
        <time>2025-05-12T08:29:50Z</time>
      </trkpt>
      <trkpt lat="36.962099019438028" lon="-3.266290035098791">
        <ele>1432.5</ele>
        <time>2025-05-12T08:29:51Z</time>
      </trkpt>
      <trkpt lat="36.96195300668478" lon="-3.266219962388277">
        <ele>1432.02</ele>
        <time>2025-05-12T08:29:52Z</time>
      </trkpt>
      <trkpt lat="36.961807999759912" lon="-3.266214011237025">
        <ele>1431.0599999999999</ele>
        <time>2025-05-12T08:29:53Z</time>
      </trkpt>
      <trkpt lat="36.961658969521523" lon="-3.266256004571915">
        <ele>1430.0999999999999</ele>
        <time>2025-05-12T08:29:54Z</time>
      </trkpt>
      <trkpt lat="36.961499964818358" lon="-3.266319036483765">
        <ele>1429.6199999999999</ele>
        <time>2025-05-12T08:29:55Z</time>
      </trkpt>
      <trkpt lat="36.96133098565042" lon="-3.266387013718486">
        <ele>1428.6600000000001</ele>
        <time>2025-05-12T08:29:56Z</time>
      </trkpt>
      <trkpt lat="36.961142979562283" lon="-3.266418026760221">
        <ele>1427.7</ele>
        <time>2025-05-12T08:29:57Z</time>
      </trkpt>
      <trkpt lat="36.96077099069953" lon="-3.266472006216645">
        <ele>1425.77</ele>
        <time>2025-05-12T08:29:59Z</time>
      </trkpt>
      <trkpt lat="36.96062003262341" lon="-3.266437975689769">
        <ele>1424.8099999999999</ele>
        <time>2025-05-12T08:30:00Z</time>
      </trkpt>
      <trkpt lat="36.960483994334936" lon="-3.266377039253712">
        <ele>1423.8499999999999</ele>
        <time>2025-05-12T08:30:01Z</time>
      </trkpt>
      <trkpt lat="36.96036203764379" lon="-3.266281988471746">
        <ele>1422.8900000000001</ele>
        <time>2025-05-12T08:30:02Z</time>
      </trkpt>
      <trkpt lat="36.960217030718923" lon="-3.266167994588614">
        <ele>1421.45</ele>
        <time>2025-05-12T08:30:03Z</time>
      </trkpt>
      <trkpt lat="36.959894997999072" lon="-3.265912011265755">
        <ele>1420</ele>
        <time>2025-05-12T08:30:05Z</time>
      </trkpt>
      <trkpt lat="36.959733981639147" lon="-3.265826012939215">
        <ele>1419.52</ele>
        <time>2025-05-12T08:30:06Z</time>
      </trkpt>
      <trkpt lat="36.959587968885899" lon="-3.265801034867764">
        <ele>1419.04</ele>
        <time>2025-05-12T08:30:07Z</time>
      </trkpt>
      <trkpt lat="36.959448996931314" lon="-3.265822995454073">
        <ele>1418.5599999999999</ele>
        <time>2025-05-12T08:30:08Z</time>
      </trkpt>
      <trkpt lat="36.959301978349686" lon="-3.265889966860414">
        <ele>1418.0799999999999</ele>
        <time>2025-05-12T08:30:09Z</time>
      </trkpt>
      <trkpt lat="36.959151020273566" lon="-3.265959033742547">
        <ele>1417.5999999999999</ele>
        <time>2025-05-12T08:30:10Z</time>
      </trkpt>
      <trkpt lat="36.95900802500546" lon="-3.266023993492127">
        <ele>1417.1199999999999</ele>
        <time>2025-05-12T08:30:11Z</time>
      </trkpt>
      <trkpt lat="36.958870980888605" lon="-3.266071015968919">
        <ele>1416.1600000000001</ele>
        <time>2025-05-12T08:30:12Z</time>
      </trkpt>
      <trkpt lat="36.958723962306976" lon="-3.266093982383609">
        <ele>1415.6800000000001</ele>
        <time>2025-05-12T08:30:13Z</time>
      </trkpt>
      <trkpt lat="36.958394972607493" lon="-3.266093982383609">
        <ele>1414.72</ele>
        <time>2025-05-12T08:30:15Z</time>
      </trkpt>
      <trkpt lat="36.958221970126033" lon="-3.266110997647047">
        <ele>1414.24</ele>
        <time>2025-05-12T08:30:16Z</time>
      </trkpt>
      <trkpt lat="36.957205999642611" lon="-3.266314007341862">
        <ele>1413.28</ele>
        <time>2025-05-12T08:30:22Z</time>
      </trkpt>
      <trkpt lat="36.957067027688026" lon="-3.266304032877088">
        <ele>1413.28</ele>
        <time>2025-05-12T08:30:23Z</time>
      </trkpt>
      <trkpt lat="36.95692696608603" lon="-3.26624502427876">
        <ele>1413.28</ele>
        <time>2025-05-12T08:30:24Z</time>
      </trkpt>
      <trkpt lat="36.956598982214928" lon="-3.266105968505144">
        <ele>1412.3099999999999</ele>
        <time>2025-05-12T08:30:26Z</time>
      </trkpt>
      <trkpt lat="36.956420028582215" lon="-3.266029022634029">
        <ele>1411.3499999999999</ele>
        <time>2025-05-12T08:30:27Z</time>
      </trkpt>
      <trkpt lat="36.956235039979219" lon="-3.266029022634029">
        <ele>1410.3900000000001</ele>
        <time>2025-05-12T08:30:28Z</time>
      </trkpt>
      <trkpt lat="36.955633973702788" lon="-3.266046037897468">
        <ele>1407.03</ele>
        <time>2025-05-12T08:30:31Z</time>
      </trkpt>
      <trkpt lat="36.955460971221328" lon="-3.266094988211989">
        <ele>1405.5799999999999</ele>
        <time>2025-05-12T08:30:32Z</time>
      </trkpt>
      <trkpt lat="36.955297021195292" lon="-3.266176041215658">
        <ele>1404.6199999999999</ele>
        <time>2025-05-12T08:30:33Z</time>
      </trkpt>
      <trkpt lat="36.955139022320509" lon="-3.266278970986605">
        <ele>1403.6600000000001</ele>
        <time>2025-05-12T08:30:34Z</time>
      </trkpt>
      <trkpt lat="36.954984040930867" lon="-3.266378967091441">
        <ele>1402.22</ele>
        <time>2025-05-12T08:30:35Z</time>
      </trkpt>
      <trkpt lat="36.954811038449407" lon="-3.266422972083092">
        <ele>1401.74</ele>
        <time>2025-05-12T08:30:36Z</time>
      </trkpt>
      <trkpt lat="36.954624960198998" lon="-3.266458008438349">
        <ele>1400.3</ele>
        <time>2025-05-12T08:30:37Z</time>
      </trkpt>
      <trkpt lat="36.954428991302848" lon="-3.266486003994942">
        <ele>1399.8199999999999</ele>
        <time>2025-05-12T08:30:38Z</time>
      </trkpt>
      <trkpt lat="36.954037975519896" lon="-3.266543000936508">
        <ele>1398.8599999999999</ele>
        <time>2025-05-12T08:30:40Z</time>
      </trkpt>
      <trkpt lat="36.953857010230422" lon="-3.266580970957875">
        <ele>1398.3699999999999</ele>
        <time>2025-05-12T08:30:41Z</time>
      </trkpt>
      <trkpt lat="36.953537994995713" lon="-3.266649032011628">
        <ele>1397.4100000000001</ele>
        <time>2025-05-12T08:30:43Z</time>
      </trkpt>
      <trkpt lat="36.953412014991045" lon="-3.266618018969894">
        <ele>1396.9300000000001</ele>
        <time>2025-05-12T08:30:44Z</time>
      </trkpt>
      <trkpt lat="36.953300032764673" lon="-3.266574013978243">
        <ele>1396.45</ele>
        <time>2025-05-12T08:30:45Z</time>
      </trkpt>
      <trkpt lat="36.953229960054159" lon="-3.266463959589601">
        <ele>1395.97</ele>
        <time>2025-05-12T08:30:46Z</time>
      </trkpt>
      <trkpt lat="36.953158965334296" lon="-3.266346026211977">
        <ele>1395.01</ele>
        <time>2025-05-12T08:30:47Z</time>
      </trkpt>
      <trkpt lat="36.953158965334296" lon="-3.266204036772251">
        <ele>1394.53</ele>
        <time>2025-05-12T08:30:48Z</time>
      </trkpt>
      <trkpt lat="36.953158965334296" lon="-3.266056012362242">
        <ele>1394.53</ele>
        <time>2025-05-12T08:30:49Z</time>
      </trkpt>
      <trkpt lat="36.953134993091226" lon="-3.265761975198984">
        <ele>1394.05</ele>
        <time>2025-05-12T08:30:51Z</time>
      </trkpt>
      <trkpt lat="36.953103980049491" lon="-3.265640018507838">
        <ele>1393.5699999999999</ele>
        <time>2025-05-12T08:30:52Z</time>
      </trkpt>
      <trkpt lat="36.953053018078208" lon="-3.265538010746241">
        <ele>1393.5699999999999</ele>
        <time>2025-05-12T08:30:53Z</time>
      </trkpt>
      <trkpt lat="36.952961990609765" lon="-3.265505991876125">
        <ele>1393.0899999999999</ele>
        <time>2025-05-12T08:30:54Z</time>
      </trkpt>
      <trkpt lat="36.952861994504929" lon="-3.26547296717763">
        <ele>1393.0899999999999</ele>
        <time>2025-05-12T08:30:55Z</time>
      </trkpt>
      <trkpt lat="36.952769039198756" lon="-3.265490988269448">
        <ele>1393.0899999999999</ele>
        <time>2025-05-12T08:30:56Z</time>
      </trkpt>
      <trkpt lat="36.952658984810114" lon="-3.26551403850317">
        <ele>1393.0899999999999</ele>
        <time>2025-05-12T08:30:57Z</time>
      </trkpt>
      <trkpt lat="36.952557982876897" lon="-3.265535999089479">
        <ele>1392.6099999999999</ele>
        <time>2025-05-12T08:30:58Z</time>
      </trkpt>
      <trkpt lat="36.952429991215467" lon="-3.265508003532887">
        <ele>1392.1300000000001</ele>
        <time>2025-05-12T08:30:59Z</time>
      </trkpt>
      <trkpt lat="36.952308034524322" lon="-3.265483025461435">
        <ele>1392.1300000000001</ele>
        <time>2025-05-12T08:31:00Z</time>
      </trkpt>
      <trkpt lat="36.952180964872241" lon="-3.265455029904842">
        <ele>1391.6500000000001</ele>
        <time>2025-05-12T08:31:01Z</time>
      </trkpt>
      <trkpt lat="36.952045010402799" lon="-3.265426028519869">
        <ele>1391.1700000000001</ele>
        <time>2025-05-12T08:31:02Z</time>
      </trkpt>
      <trkpt lat="36.951905032619834" lon="-3.265416976064444">
        <ele>1390.2</ele>
        <time>2025-05-12T08:31:03Z</time>
      </trkpt>
      <trkpt lat="36.951742004603148" lon="-3.26545000076294">
        <ele>1389.72</ele>
        <time>2025-05-12T08:31:04Z</time>
      </trkpt>
      <trkpt lat="36.951559027656913" lon="-3.265486964955926">
        <ele>1388.76</ele>
        <time>2025-05-12T08:31:05Z</time>
      </trkpt>
      <trkpt lat="36.950206020846963" lon="-3.265891978517175">
        <ele>1385.4000000000001</ele>
        <time>2025-05-12T08:31:11Z</time>
      </trkpt>
      <trkpt lat="36.949545023962855" lon="-3.266174029558897">
        <ele>1383.96</ele>
        <time>2025-05-12T08:31:14Z</time>
      </trkpt>
      <trkpt lat="36.949330028146505" lon="-3.266297997906804">
        <ele>1383.47</ele>
        <time>2025-05-12T08:31:15Z</time>
      </trkpt>
      <trkpt lat="36.947940979152918" lon="-3.267452018335462">
        <ele>1382.03</ele>
        <time>2025-05-12T08:31:22Z</time>
      </trkpt>
      <trkpt lat="36.946990974247456" lon="-3.268247041851282">
        <ele>1382.03</ele>
        <time>2025-05-12T08:31:27Z</time>
      </trkpt>
      <trkpt lat="36.946855019778013" lon="-3.26843898743391">
        <ele>1382.99</ele>
        <time>2025-05-12T08:31:28Z</time>
      </trkpt>
      <trkpt lat="36.946733985096216" lon="-3.268623976036906">
        <ele>1382.99</ele>
        <time>2025-05-12T08:31:29Z</time>
      </trkpt>
      <trkpt lat="36.946523012593389" lon="-3.268945002928376">
        <ele>1383.96</ele>
        <time>2025-05-12T08:31:31Z</time>
      </trkpt>
      <trkpt lat="36.94639996625483" lon="-3.269066959619522">
        <ele>1384.9200000000001</ele>
        <time>2025-05-12T08:31:32Z</time>
      </trkpt>
      <trkpt lat="36.946255965158343" lon="-3.269192017614842">
        <ele>1385.8800000000001</ele>
        <time>2025-05-12T08:31:33Z</time>
      </trkpt>
      <trkpt lat="36.946085980162024" lon="-3.269294025376439">
        <ele>1386.3599999999999</ele>
        <time>2025-05-12T08:31:34Z</time>
      </trkpt>
      <trkpt lat="36.945909960195422" lon="-3.269400978460908">
        <ele>1387.3199999999999</ele>
        <time>2025-05-12T08:31:35Z</time>
      </trkpt>
      <trkpt lat="36.94573201239109" lon="-3.26947096735239">
        <ele>1388.28</ele>
        <time>2025-05-12T08:31:36Z</time>
      </trkpt>
      <trkpt lat="36.945562027394772" lon="-3.269516984000802">
        <ele>1388.76</ele>
        <time>2025-05-12T08:31:37Z</time>
      </trkpt>
      <trkpt lat="36.945406962186098" lon="-3.269559983164072">
        <ele>1389.72</ele>
        <time>2025-05-12T08:31:38Z</time>
      </trkpt>
      <trkpt lat="36.945263966917992" lon="-3.269543973729014">
        <ele>1390.2</ele>
        <time>2025-05-12T08:31:39Z</time>
      </trkpt>
      <trkpt lat="36.945143016055226" lon="-3.26951296068728">
        <ele>1391.1700000000001</ele>
        <time>2025-05-12T08:31:40Z</time>
      </trkpt>
      <trkpt lat="36.94504695944488" lon="-3.269488988444209">
        <ele>1391.6500000000001</ele>
        <time>2025-05-12T08:31:41Z</time>
      </trkpt>
      <trkpt lat="36.94498099386692" lon="-3.269415982067585">
        <ele>1392.1300000000001</ele>
        <time>2025-05-12T08:31:42Z</time>
      </trkpt>
      <trkpt lat="36.944931959733367" lon="-3.269337024539709">
        <ele>1392.6099999999999</ele>
        <time>2025-05-12T08:31:43Z</time>
      </trkpt>
      <trkpt lat="36.944883009418845" lon="-3.269240967929363">
        <ele>1393.0899999999999</ele>
        <time>2025-05-12T08:31:44Z</time>
      </trkpt>
      <trkpt lat="36.944855013862252" lon="-3.269116999581456">
        <ele>1393.5699999999999</ele>
        <time>2025-05-12T08:31:45Z</time>
      </trkpt>
      <trkpt lat="36.944863982498646" lon="-3.268988002091646">
        <ele>1394.05</ele>
        <time>2025-05-12T08:31:46Z</time>
      </trkpt>
      <trkpt lat="36.944888960570097" lon="-3.268863027915359">
        <ele>1394.53</ele>
        <time>2025-05-12T08:31:47Z</time>
      </trkpt>
      <trkpt lat="36.944913016632199" lon="-3.268748028203845">
        <ele>1395.01</ele>
        <time>2025-05-12T08:31:48Z</time>
      </trkpt>
      <trkpt lat="36.944989962503314" lon="-3.268368998542428">
        <ele>1395.97</ele>
        <time>2025-05-12T08:31:51Z</time>
      </trkpt>
      <trkpt lat="36.945019969716668" lon="-3.26822298578918">
        <ele>1395.97</ele>
        <time>2025-05-12T08:31:52Z</time>
      </trkpt>
      <trkpt lat="36.945118959993124" lon="-3.267015991732478">
        <ele>1396.9300000000001</ele>
        <time>2025-05-12T08:31:58Z</time>
      </trkpt>
      <trkpt lat="36.945145027711987" lon="-3.266625981777906">
        <ele>1397.4100000000001</ele>
        <time>2025-05-12T08:32:00Z</time>
      </trkpt>
      <trkpt lat="36.945174029096961" lon="-3.266430012881756">
        <ele>1397.8900000000001</ele>
        <time>2025-05-12T08:32:01Z</time>
      </trkpt>
      <trkpt lat="36.945248963311315" lon="-3.266233038157225">
        <ele>1397.8900000000001</ele>
        <time>2025-05-12T08:32:02Z</time>
      </trkpt>
      <trkpt lat="36.945498995482922" lon="-3.265613028779626">
        <ele>1398.3699999999999</ele>
        <time>2025-05-12T08:32:05Z</time>
      </trkpt>
      <trkpt lat="36.945610977709293" lon="-3.26542804017663">
        <ele>1398.8599999999999</ele>
        <time>2025-05-12T08:32:06Z</time>
      </trkpt>
      <trkpt lat="36.945812981575727" lon="-3.265091003850102">
        <ele>1399.3399999999999</ele>
        <time>2025-05-12T08:32:08Z</time>
      </trkpt>
      <trkpt lat="36.945854974910617" lon="-3.2649149838835">
        <ele>1399.3399999999999</ele>
        <time>2025-05-12T08:32:09Z</time>
      </trkpt>
      <trkpt lat="36.945875007659197" lon="-3.264725971966982">
        <ele>1399.3399999999999</ele>
        <time>2025-05-12T08:32:10Z</time>
      </trkpt>
      <trkpt lat="36.945895962417126" lon="-3.264524973928928">
        <ele>1399.3399999999999</ele>
        <time>2025-05-12T08:32:11Z</time>
      </trkpt>
      <trkpt lat="36.945918006822467" lon="-3.264307966455817">
        <ele>1399.8199999999999</ele>
        <time>2025-05-12T08:32:12Z</time>
      </trkpt>
      <trkpt lat="36.945941979065537" lon="-3.26407696120441">
        <ele>1399.3399999999999</ele>
        <time>2025-05-12T08:32:13Z</time>
      </trkpt>
      <trkpt lat="36.946134008467197" lon="-3.26300298795104">
        <ele>1398.3699999999999</ele>
        <time>2025-05-12T08:32:18Z</time>
      </trkpt>
      <trkpt lat="36.94618497043848" lon="-3.262813976034522">
        <ele>1398.8599999999999</ele>
        <time>2025-05-12T08:32:19Z</time>
      </trkpt>
      <trkpt lat="36.946429973468184" lon="-3.2620760332793">
        <ele>1398.8599999999999</ele>
        <time>2025-05-12T08:32:23Z</time>
      </trkpt>
      <trkpt lat="36.946508008986712" lon="-3.261901019141078">
        <ele>1398.8599999999999</ele>
        <time>2025-05-12T08:32:24Z</time>
      </trkpt>
      <trkpt lat="36.946571040898561" lon="-3.261759029701352">
        <ele>1398.3699999999999</ele>
        <time>2025-05-12T08:32:25Z</time>
      </trkpt>
      <trkpt lat="36.946558970957994" lon="-3.261568006128073">
        <ele>1398.3699999999999</ele>
        <time>2025-05-12T08:32:26Z</time>
      </trkpt>
      <trkpt lat="36.94654799066484" lon="-3.261401960626245">
        <ele>1398.3699999999999</ele>
        <time>2025-05-12T08:32:27Z</time>
      </trkpt>
      <trkpt lat="36.946538016200066" lon="-3.261243039742112">
        <ele>1398.8599999999999</ele>
        <time>2025-05-12T08:32:28Z</time>
      </trkpt>
      <trkpt lat="36.94652896374464" lon="-3.26109099201858">
        <ele>1398.8599999999999</ele>
        <time>2025-05-12T08:32:29Z</time>
      </trkpt>
      <trkpt lat="36.946583027020097" lon="-3.260936010628939">
        <ele>1399.3399999999999</ele>
        <time>2025-05-12T08:32:30Z</time>
      </trkpt>
      <trkpt lat="36.946644969284534" lon="-3.260757979005575">
        <ele>1399.3399999999999</ele>
        <time>2025-05-12T08:32:31Z</time>
      </trkpt>
      <trkpt lat="36.94719398394227" lon="-3.259278992190957">
        <ele>1402.22</ele>
        <time>2025-05-12T08:32:39Z</time>
      </trkpt>
      <trkpt lat="36.947261961176991" lon="-3.259172961115837">
        <ele>1402.7</ele>
        <time>2025-05-12T08:32:40Z</time>
      </trkpt>
      <trkpt lat="36.947344020009041" lon="-3.259081011638045">
        <ele>1402.7</ele>
        <time>2025-05-12T08:32:41Z</time>
      </trkpt>
      <trkpt lat="36.947449967265129" lon="-3.259015968069434">
        <ele>1403.1800000000001</ele>
        <time>2025-05-12T08:32:42Z</time>
      </trkpt>
      <trkpt lat="36.947560021653771" lon="-3.258964000269771">
        <ele>1403.6600000000001</ele>
        <time>2025-05-12T08:32:43Z</time>
      </trkpt>
      <trkpt lat="36.947662029415369" lon="-3.258915971964598">
        <ele>1403.6600000000001</ele>
        <time>2025-05-12T08:32:44Z</time>
      </trkpt>
      <trkpt lat="36.94775297306478" lon="-3.258856041356921">
        <ele>1404.1400000000001</ele>
        <time>2025-05-12T08:32:45Z</time>
      </trkpt>
      <trkpt lat="36.947827991098166" lon="-3.258766019716859">
        <ele>1404.1400000000001</ele>
        <time>2025-05-12T08:32:46Z</time>
      </trkpt>
      <trkpt lat="36.947855986654758" lon="-3.25864196754992">
        <ele>1404.6199999999999</ele>
        <time>2025-05-12T08:32:47Z</time>
      </trkpt>
      <trkpt lat="36.9478780310601" lon="-3.258508024737239">
        <ele>1404.6199999999999</ele>
        <time>2025-05-12T08:32:48Z</time>
      </trkpt>
      <trkpt lat="36.94790200330317" lon="-3.258369974792004">
        <ele>1404.6199999999999</ele>
        <time>2025-05-12T08:32:49Z</time>
      </trkpt>
      <trkpt lat="36.947923041880131" lon="-3.258239971473813">
        <ele>1405.0999999999999</ele>
        <time>2025-05-12T08:32:50Z</time>
      </trkpt>
      <trkpt lat="36.948058996349573" lon="-3.257831018418074">
        <ele>1406.0699999999999</ele>
        <time>2025-05-12T08:32:53Z</time>
      </trkpt>
      <trkpt lat="36.948061008006334" lon="-3.257704032585025">
        <ele>1406.55</ele>
        <time>2025-05-12T08:32:54Z</time>
      </trkpt>
      <trkpt lat="36.948042986914515" lon="-3.257578974589706">
        <ele>1407.51</ele>
        <time>2025-05-12T08:32:55Z</time>
      </trkpt>
      <trkpt lat="36.948011973872781" lon="-3.257451988756657">
        <ele>1407.99</ele>
        <time>2025-05-12T08:32:56Z</time>
      </trkpt>
      <trkpt lat="36.947928993031383" lon="-3.257345035672188">
        <ele>1407.99</ele>
        <time>2025-05-12T08:32:57Z</time>
      </trkpt>
      <trkpt lat="36.94783603772521" lon="-3.257306981831789">
        <ele>1407.99</ele>
        <time>2025-05-12T08:32:58Z</time>
      </trkpt>
      <trkpt lat="36.947744004428387" lon="-3.257269011810422">
        <ele>1408.47</ele>
        <time>2025-05-12T08:32:59Z</time>
      </trkpt>
      <trkpt lat="36.947649037465453" lon="-3.257230035960674">
        <ele>1407.99</ele>
        <time>2025-05-12T08:33:00Z</time>
      </trkpt>
      <trkpt lat="36.947578964754939" lon="-3.257165998220444">
        <ele>1407.51</ele>
        <time>2025-05-12T08:33:01Z</time>
      </trkpt>
      <trkpt lat="36.947528002783656" lon="-3.257064996287227">
        <ele>1406.55</ele>
        <time>2025-05-12T08:33:02Z</time>
      </trkpt>
      <trkpt lat="36.947525991126895" lon="-3.256973968818784">
        <ele>1406.0699999999999</ele>
        <time>2025-05-12T08:33:03Z</time>
      </trkpt>
      <trkpt lat="36.947547029703856" lon="-3.256854023784399">
        <ele>1405.0999999999999</ele>
        <time>2025-05-12T08:33:04Z</time>
      </trkpt>
      <trkpt lat="36.947572007775307" lon="-3.25670599937439">
        <ele>1404.6199999999999</ele>
        <time>2025-05-12T08:33:05Z</time>
      </trkpt>
      <trkpt lat="36.947602014988661" lon="-3.256531991064549">
        <ele>1404.1400000000001</ele>
        <time>2025-05-12T08:33:06Z</time>
      </trkpt>
      <trkpt lat="36.947635039687157" lon="-3.256337027996779">
        <ele>1403.1800000000001</ele>
        <time>2025-05-12T08:33:07Z</time>
      </trkpt>
      <trkpt lat="36.947670998051763" lon="-3.2561269775033">
        <ele>1402.7</ele>
        <time>2025-05-12T08:33:08Z</time>
      </trkpt>
      <trkpt lat="36.947678038850427" lon="-3.255898989737034">
        <ele>1402.22</ele>
        <time>2025-05-12T08:33:09Z</time>
      </trkpt>
      <trkpt lat="36.947661023586988" lon="-3.255667984485626">
        <ele>1401.74</ele>
        <time>2025-05-12T08:33:10Z</time>
      </trkpt>
      <trkpt lat="36.947645014151931" lon="-3.255452988669276">
        <ele>1401.26</ele>
        <time>2025-05-12T08:33:11Z</time>
      </trkpt>
      <trkpt lat="36.947631016373634" lon="-3.255265988409519">
        <ele>1400.78</ele>
        <time>2025-05-12T08:33:12Z</time>
      </trkpt>
      <trkpt lat="36.947636967524886" lon="-3.255083011463285">
        <ele>1400.78</ele>
        <time>2025-05-12T08:33:13Z</time>
      </trkpt>
      <trkpt lat="36.947676027193666" lon="-3.254887964576483">
        <ele>1400.3</ele>
        <time>2025-05-12T08:33:14Z</time>
      </trkpt>
      <trkpt lat="36.947801001369953" lon="-3.254276001825929">
        <ele>1400.3</ele>
        <time>2025-05-12T08:33:17Z</time>
      </trkpt>
      <trkpt lat="36.947888005524874" lon="-3.254118002951145">
        <ele>1400.3</ele>
        <time>2025-05-12T08:33:18Z</time>
      </trkpt>
      <trkpt lat="36.948005016893148" lon="-3.253972996026278">
        <ele>1400.78</ele>
        <time>2025-05-12T08:33:19Z</time>
      </trkpt>
      <trkpt lat="36.948214983567595" lon="-3.253681976348162">
        <ele>1400.78</ele>
        <time>2025-05-12T08:33:21Z</time>
      </trkpt>
      <trkpt lat="36.948279021307826" lon="-3.253536969423294">
        <ele>1401.26</ele>
        <time>2025-05-12T08:33:22Z</time>
      </trkpt>
      <trkpt lat="36.94830902852118" lon="-3.253368996083736">
        <ele>1401.74</ele>
        <time>2025-05-12T08:33:23Z</time>
      </trkpt>
      <trkpt lat="36.948296958580613" lon="-3.253180989995599">
        <ele>1402.22</ele>
        <time>2025-05-12T08:33:24Z</time>
      </trkpt>
      <trkpt lat="36.948276003822684" lon="-3.253002958372235">
        <ele>1402.22</ele>
        <time>2025-05-12T08:33:25Z</time>
      </trkpt>
      <trkpt lat="36.948229987174273" lon="-3.252830961719155">
        <ele>1402.22</ele>
        <time>2025-05-12T08:33:26Z</time>
      </trkpt>
      <trkpt lat="36.948186988011003" lon="-3.252672962844372">
        <ele>1402.7</ele>
        <time>2025-05-12T08:33:27Z</time>
      </trkpt>
      <trkpt lat="36.948149017989635" lon="-3.252530973404646">
        <ele>1402.7</ele>
        <time>2025-05-12T08:33:28Z</time>
      </trkpt>
      <trkpt lat="36.948166033253074" lon="-3.252381021156907">
        <ele>1403.1800000000001</ele>
        <time>2025-05-12T08:33:29Z</time>
      </trkpt>
      <trkpt lat="36.948209032416344" lon="-3.25221598148346">
        <ele>1403.1800000000001</ele>
        <time>2025-05-12T08:33:30Z</time>
      </trkpt>
      <trkpt lat="36.948253037407994" lon="-3.252049013972282">
        <ele>1403.6600000000001</ele>
        <time>2025-05-12T08:33:31Z</time>
      </trkpt>
      <trkpt lat="36.948316991329193" lon="-3.251889003440738">
        <ele>1403.6600000000001</ele>
        <time>2025-05-12T08:33:32Z</time>
      </trkpt>
      <trkpt lat="36.94839402101934" lon="-3.251725975424051">
        <ele>1403.6600000000001</ele>
        <time>2025-05-12T08:33:33Z</time>
      </trkpt>
      <trkpt lat="36.9484599865973" lon="-3.251558002084494">
        <ele>1403.1800000000001</ele>
        <time>2025-05-12T08:33:34Z</time>
      </trkpt>
      <trkpt lat="36.9484599865973" lon="-3.25137896463275">
        <ele>1402.7</ele>
        <time>2025-05-12T08:33:35Z</time>
      </trkpt>
      <trkpt lat="36.948455041274428" lon="-3.251182995736599">
        <ele>1402.7</ele>
        <time>2025-05-12T08:33:36Z</time>
      </trkpt>
      <trkpt lat="36.948408018797636" lon="-3.250981997698546">
        <ele>1402.22</ele>
        <time>2025-05-12T08:33:37Z</time>
      </trkpt>
      <trkpt lat="36.948254965245724" lon="-3.250394007191062">
        <ele>1399.3399999999999</ele>
        <time>2025-05-12T08:33:40Z</time>
      </trkpt>
      <trkpt lat="36.948205009102821" lon="-3.250243971124291">
        <ele>1398.3699999999999</ele>
        <time>2025-05-12T08:33:41Z</time>
      </trkpt>
      <trkpt lat="36.948118004947901" lon="-3.25015302747488">
        <ele>1397.4100000000001</ele>
        <time>2025-05-12T08:33:42Z</time>
      </trkpt>
      <trkpt lat="36.948023037984967" lon="-3.250113967806101">
        <ele>1396.45</ele>
        <time>2025-05-12T08:33:43Z</time>
      </trkpt>
      <trkpt lat="36.947914995253086" lon="-3.250092007219791">
        <ele>1395.49</ele>
        <time>2025-05-12T08:33:44Z</time>
      </trkpt>
      <trkpt lat="36.94779203273356" lon="-3.25006602331996">
        <ele>1394.53</ele>
        <time>2025-05-12T08:33:45Z</time>
      </trkpt>
      <trkpt lat="36.94766303524375" lon="-3.250039033591747">
        <ele>1393.5699999999999</ele>
        <time>2025-05-12T08:33:46Z</time>
      </trkpt>
      <trkpt lat="36.947549963369966" lon="-3.249992011114955">
        <ele>1392.6099999999999</ele>
        <time>2025-05-12T08:33:47Z</time>
      </trkpt>
      <trkpt lat="36.947463965043426" lon="-3.249906012788415">
        <ele>1391.6500000000001</ele>
        <time>2025-05-12T08:33:48Z</time>
      </trkpt>
      <trkpt lat="36.94742800667882" lon="-3.249786989763379">
        <ele>1390.6800000000001</ele>
        <time>2025-05-12T08:33:49Z</time>
      </trkpt>
      <trkpt lat="36.947411997243762" lon="-3.249663021415472">
        <ele>1389.24</ele>
        <time>2025-05-12T08:33:50Z</time>
      </trkpt>
      <trkpt lat="36.947425995022058" lon="-3.249522037804127">
        <ele>1388.76</ele>
        <time>2025-05-12T08:33:51Z</time>
      </trkpt>
      <trkpt lat="36.947462037205696" lon="-3.24937803670764">
        <ele>1387.8</ele>
        <time>2025-05-12T08:33:52Z</time>
      </trkpt>
      <trkpt lat="36.947524985298514" lon="-3.249225988984108">
        <ele>1386.3599999999999</ele>
        <time>2025-05-12T08:33:53Z</time>
      </trkpt>
      <trkpt lat="36.947624981403351" lon="-3.24908098205924">
        <ele>1385.4000000000001</ele>
        <time>2025-05-12T08:33:54Z</time>
      </trkpt>
      <trkpt lat="36.94773000665009" lon="-3.24892901815474">
        <ele>1384.4400000000001</ele>
        <time>2025-05-12T08:33:55Z</time>
      </trkpt>
      <trkpt lat="36.947831008583307" lon="-3.248783005401492">
        <ele>1382.99</ele>
        <time>2025-05-12T08:33:56Z</time>
      </trkpt>
      <trkpt lat="36.947920024394989" lon="-3.248653002083302">
        <ele>1381.55</ele>
        <time>2025-05-12T08:33:57Z</time>
      </trkpt>
      <trkpt lat="36.947956988587976" lon="-3.248524004593492">
        <ele>1380.5899999999999</ele>
        <time>2025-05-12T08:33:58Z</time>
      </trkpt>
      <trkpt lat="36.94798699580133" lon="-3.248407999053598">
        <ele>1379.6300000000001</ele>
        <time>2025-05-12T08:33:59Z</time>
      </trkpt>
      <trkpt lat="36.94796696305275" lon="-3.248272966593504">
        <ele>1378.1900000000001</ele>
        <time>2025-05-12T08:34:00Z</time>
      </trkpt>
      <trkpt lat="36.94794500246644" lon="-3.24811203405261">
        <ele>1377.23</ele>
        <time>2025-05-12T08:34:01Z</time>
      </trkpt>
      <trkpt lat="36.947951959446073" lon="-3.247952023521066">
        <ele>1376.26</ele>
        <time>2025-05-12T08:34:02Z</time>
      </trkpt>
      <trkpt lat="36.947959000244737" lon="-3.247785978019238">
        <ele>1375.3</ele>
        <time>2025-05-12T08:34:03Z</time>
      </trkpt>
      <trkpt lat="36.947966041043401" lon="-3.247642982751131">
        <ele>1373.8599999999999</ele>
        <time>2025-05-12T08:34:04Z</time>
      </trkpt>
      <trkpt lat="36.947907032445073" lon="-3.247546004131436">
        <ele>1372.9000000000001</ele>
        <time>2025-05-12T08:34:05Z</time>
      </trkpt>
      <trkpt lat="36.947842994704843" lon="-3.247462017461658">
        <ele>1371.9400000000001</ele>
        <time>2025-05-12T08:34:06Z</time>
      </trkpt>
      <trkpt lat="36.947750961408019" lon="-3.247422035783529">
        <ele>1370.98</ele>
        <time>2025-05-12T08:34:07Z</time>
      </trkpt>
      <trkpt lat="36.947647025808692" lon="-3.247417006641626">
        <ele>1370.02</ele>
        <time>2025-05-12T08:34:08Z</time>
      </trkpt>
      <trkpt lat="36.947542000561953" lon="-3.247439973056316">
        <ele>1369.05</ele>
        <time>2025-05-12T08:34:09Z</time>
      </trkpt>
      <trkpt lat="36.947445021942258" lon="-3.247461011633277">
        <ele>1368.0899999999999</ele>
        <time>2025-05-12T08:34:10Z</time>
      </trkpt>
      <trkpt lat="36.947355000302196" lon="-3.247480960562825">
        <ele>1367.1300000000001</ele>
        <time>2025-05-12T08:34:11Z</time>
      </trkpt>
      <trkpt lat="36.947275036945939" lon="-3.247497975826263">
        <ele>1366.6500000000001</ele>
        <time>2025-05-12T08:34:12Z</time>
      </trkpt>
      <trkpt lat="36.947215022519231" lon="-3.247510967776179">
        <ele>1365.6900000000001</ele>
        <time>2025-05-12T08:34:13Z</time>
      </trkpt>
      <trkpt lat="36.947160959243774" lon="-3.247470986098051">
        <ele>1365.21</ele>
        <time>2025-05-12T08:34:14Z</time>
      </trkpt>
      <trkpt lat="36.947129024192691" lon="-3.247394040226936">
        <ele>1364.25</ele>
        <time>2025-05-12T08:34:15Z</time>
      </trkpt>
      <trkpt lat="36.947129024192691" lon="-3.247307036072016">
        <ele>1363.77</ele>
        <time>2025-05-12T08:34:16Z</time>
      </trkpt>
      <trkpt lat="36.947137992829084" lon="-3.247223971411586">
        <ele>1363.29</ele>
        <time>2025-05-12T08:34:17Z</time>
      </trkpt>
      <trkpt lat="36.94719398394227" lon="-3.2471679802984">
        <ele>1362.3299999999999</ele>
        <time>2025-05-12T08:34:18Z</time>
      </trkpt>
      <trkpt lat="36.94725601002574" lon="-3.247116012498736">
        <ele>1361.8399999999999</ele>
        <time>2025-05-12T08:34:19Z</time>
      </trkpt>
      <trkpt lat="36.947335973381996" lon="-3.247075024992228">
        <ele>1360.8800000000001</ele>
        <time>2025-05-12T08:34:20Z</time>
      </trkpt>
      <trkpt lat="36.947427000850439" lon="-3.247030014172196">
        <ele>1360.4000000000001</ele>
        <time>2025-05-12T08:34:21Z</time>
      </trkpt>
      <trkpt lat="36.947528002783656" lon="-3.246978968381882">
        <ele>1359.4400000000001</ele>
        <time>2025-05-12T08:34:22Z</time>
      </trkpt>
      <trkpt lat="36.947635039687157" lon="-3.246929012238979">
        <ele>1358.48</ele>
        <time>2025-05-12T08:34:23Z</time>
      </trkpt>
      <trkpt lat="36.948196962475777" lon="-3.246702030301094">
        <ele>1353.1900000000001</ele>
        <time>2025-05-12T08:34:28Z</time>
      </trkpt>
      <trkpt lat="36.948342975229025" lon="-3.246601028367877">
        <ele>1351.75</ele>
        <time>2025-05-12T08:34:29Z</time>
      </trkpt>
      <trkpt lat="36.94863298907876" lon="-3.246377985924482">
        <ele>1348.3900000000001</ele>
        <time>2025-05-12T08:34:31Z</time>
      </trkpt>
      <trkpt lat="36.948714964091778" lon="-3.246235996484757">
        <ele>1346.9400000000001</ele>
        <time>2025-05-12T08:34:32Z</time>
      </trkpt>
      <trkpt lat="36.948777996003628" lon="-3.24609300121665">
        <ele>1345.5</ele>
        <time>2025-05-12T08:34:33Z</time>
      </trkpt>
      <trkpt lat="36.948963990435004" lon="-3.24538498185575">
        <ele>1339.73</ele>
        <time>2025-05-12T08:34:37Z</time>
      </trkpt>
      <trkpt lat="36.948974970728159" lon="-3.245240980759263">
        <ele>1338.29</ele>
        <time>2025-05-12T08:34:38Z</time>
      </trkpt>
      <trkpt lat="36.948929037898779" lon="-3.245120029896498">
        <ele>1337.3299999999999</ele>
        <time>2025-05-12T08:34:39Z</time>
      </trkpt>
      <trkpt lat="36.948858965188265" lon="-3.245006036013365">
        <ele>1335.8900000000001</ele>
        <time>2025-05-12T08:34:40Z</time>
      </trkpt>
      <trkpt lat="36.948759974911809" lon="-3.244883995503187">
        <ele>1335.4100000000001</ele>
        <time>2025-05-12T08:34:41Z</time>
      </trkpt>
      <trkpt lat="36.948635000735521" lon="-3.244794979691505">
        <ele>1335.4100000000001</ele>
        <time>2025-05-12T08:34:42Z</time>
      </trkpt>
      <trkpt lat="36.948518995195627" lon="-3.244711998850107">
        <ele>1335.4100000000001</ele>
        <time>2025-05-12T08:34:43Z</time>
      </trkpt>
      <trkpt lat="36.948026977479458" lon="-3.244345961138606">
        <ele>1336.3699999999999</ele>
        <time>2025-05-12T08:34:48Z</time>
      </trkpt>
      <trkpt lat="36.947949025779963" lon="-3.244244959205389">
        <ele>1336.3699999999999</ele>
        <time>2025-05-12T08:34:49Z</time>
      </trkpt>
      <trkpt lat="36.947860009968281" lon="-3.244129037484527">
        <ele>1336.3699999999999</ele>
        <time>2025-05-12T08:34:50Z</time>
      </trkpt>
      <trkpt lat="36.947253998368979" lon="-3.243217002600431">
        <ele>1336.3699999999999</ele>
        <time>2025-05-12T08:34:55Z</time>
      </trkpt>
      <trkpt lat="36.947101028636098" lon="-3.243104014545679">
        <ele>1336.3699999999999</ele>
        <time>2025-05-12T08:34:56Z</time>
      </trkpt>
      <trkpt lat="36.946960967034101" lon="-3.243001000955701">
        <ele>1335.8900000000001</ele>
        <time>2025-05-12T08:34:57Z</time>
      </trkpt>
      <trkpt lat="36.946841021999717" lon="-3.242911985144019">
        <ele>1335.8900000000001</ele>
        <time>2025-05-12T08:34:58Z</time>
      </trkpt>
      <trkpt lat="36.946749994531274" lon="-3.242821041494608">
        <ele>1335.8900000000001</ele>
        <time>2025-05-12T08:34:59Z</time>
      </trkpt>
      <trkpt lat="36.946690985932946" lon="-3.242683997377753">
        <ele>1335.8900000000001</ele>
        <time>2025-05-12T08:35:00Z</time>
      </trkpt>
      <trkpt lat="36.946629965677857" lon="-3.24252700433135">
        <ele>1335.4100000000001</ele>
        <time>2025-05-12T08:35:01Z</time>
      </trkpt>
      <trkpt lat="36.946589983999729" lon="-3.242340004071593">
        <ele>1335.4100000000001</ele>
        <time>2025-05-12T08:35:02Z</time>
      </trkpt>
      <trkpt lat="36.94639996625483" lon="-3.241439033299685">
        <ele>1334.45</ele>
        <time>2025-05-12T08:35:06Z</time>
      </trkpt>
      <trkpt lat="36.946326959878206" lon="-3.241256978362799">
        <ele>1334.45</ele>
        <time>2025-05-12T08:35:07Z</time>
      </trkpt>
      <trkpt lat="36.946254959329963" lon="-3.241078024730086">
        <ele>1334.45</ele>
        <time>2025-05-12T08:35:08Z</time>
      </trkpt>
      <trkpt lat="36.94622403010726" lon="-3.240910973399878">
        <ele>1333.97</ele>
        <time>2025-05-12T08:35:09Z</time>
      </trkpt>
      <trkpt lat="36.946214977651834" lon="-3.240730008110404">
        <ele>1333.97</ele>
        <time>2025-05-12T08:35:10Z</time>
      </trkpt>
      <trkpt lat="36.946207014843822" lon="-3.240531021729112">
        <ele>1333.49</ele>
        <time>2025-05-12T08:35:11Z</time>
      </trkpt>
      <trkpt lat="36.94622696377337" lon="-3.240309990942478">
        <ele>1333.49</ele>
        <time>2025-05-12T08:35:12Z</time>
      </trkpt>
      <trkpt lat="36.946331989020109" lon="-3.239361997693777">
        <ele>1332.52</ele>
        <time>2025-05-12T08:35:16Z</time>
      </trkpt>
      <trkpt lat="36.946327965706587" lon="-3.239138033241034">
        <ele>1332.04</ele>
        <time>2025-05-12T08:35:17Z</time>
      </trkpt>
      <trkpt lat="36.94631396792829" lon="-3.238756991922855">
        <ele>1331.5599999999999</ele>
        <time>2025-05-12T08:35:19Z</time>
      </trkpt>
      <trkpt lat="36.946369959041476" lon="-3.238577032461762">
        <ele>1331.5599999999999</ele>
        <time>2025-05-12T08:35:20Z</time>
      </trkpt>
      <trkpt lat="36.946425028145313" lon="-3.23840000666678">
        <ele>1331.5599999999999</ele>
        <time>2025-05-12T08:35:21Z</time>
      </trkpt>
      <trkpt lat="36.946484036743641" lon="-3.238212000578642">
        <ele>1331.0799999999999</ele>
        <time>2025-05-12T08:35:22Z</time>
      </trkpt>
      <trkpt lat="36.946524018421769" lon="-3.238016031682491">
        <ele>1330.5999999999999</ele>
        <time>2025-05-12T08:35:23Z</time>
      </trkpt>
      <trkpt lat="36.946508008986712" lon="-3.237798018381">
        <ele>1330.1199999999999</ele>
        <time>2025-05-12T08:35:24Z</time>
      </trkpt>
      <trkpt lat="36.946490993723273" lon="-3.237576987594366">
        <ele>1329.6400000000001</ele>
        <time>2025-05-12T08:35:25Z</time>
      </trkpt>
      <trkpt lat="36.946446988731623" lon="-3.237384958192706">
        <ele>1329.1600000000001</ele>
        <time>2025-05-12T08:35:26Z</time>
      </trkpt>
      <trkpt lat="36.946381023153663" lon="-3.237241040915251">
        <ele>1329.1600000000001</ele>
        <time>2025-05-12T08:35:27Z</time>
      </trkpt>
      <trkpt lat="36.946296030655503" lon="-3.237121012061834">
        <ele>1329.1600000000001</ele>
        <time>2025-05-12T08:35:28Z</time>
      </trkpt>
      <trkpt lat="36.946216989308596" lon="-3.237009029835463">
        <ele>1329.1600000000001</ele>
        <time>2025-05-12T08:35:29Z</time>
      </trkpt>
      <trkpt lat="36.94616099819541" lon="-3.236891012638807">
        <ele>1329.1600000000001</ele>
        <time>2025-05-12T08:35:30Z</time>
      </trkpt>
      <trkpt lat="36.946150017902255" lon="-3.236744999885559">
        <ele>1328.6800000000001</ele>
        <time>2025-05-12T08:35:31Z</time>
      </trkpt>
      <trkpt lat="36.946153035387397" lon="-3.23661700822413">
        <ele>1328.6800000000001</ele>
        <time>2025-05-12T08:35:32Z</time>
      </trkpt>
      <trkpt lat="36.94622403010726" lon="-3.236509971320629">
        <ele>1327.72</ele>
        <time>2025-05-12T08:35:33Z</time>
      </trkpt>
      <trkpt lat="36.946308016777039" lon="-3.236383991315961">
        <ele>1326.76</ele>
        <time>2025-05-12T08:35:34Z</time>
      </trkpt>
      <trkpt lat="36.946401977911592" lon="-3.236242001876235">
        <ele>1325.8</ele>
        <time>2025-05-12T08:35:35Z</time>
      </trkpt>
      <trkpt lat="36.94648596458137" lon="-3.236063970252872">
        <ele>1324.8299999999999</ele>
        <time>2025-05-12T08:35:36Z</time>
      </trkpt>
      <trkpt lat="36.946567017585039" lon="-3.23584696277976">
        <ele>1323.8699999999999</ele>
        <time>2025-05-12T08:35:37Z</time>
      </trkpt>
      <trkpt lat="36.946807997301221" lon="-3.235164005309343">
        <ele>1320.51</ele>
        <time>2025-05-12T08:35:40Z</time>
      </trkpt>
      <trkpt lat="36.946930959820747" lon="-3.234810037538409">
        <ele>1318.0999999999999</ele>
        <time>2025-05-12T08:35:42Z</time>
      </trkpt>
      <trkpt lat="36.9469990208745" lon="-3.234668970108032">
        <ele>1317.1400000000001</ele>
        <time>2025-05-12T08:35:43Z</time>
      </trkpt>
      <trkpt lat="36.947060963138938" lon="-3.234540978446603">
        <ele>1315.7</ele>
        <time>2025-05-12T08:35:44Z</time>
      </trkpt>
      <trkpt lat="36.947092982009053" lon="-3.234409969300032">
        <ele>1314.74</ele>
        <time>2025-05-12T08:35:45Z</time>
      </trkpt>
      <trkpt lat="36.94710798561573" lon="-3.234250964596868">
        <ele>1313.3</ele>
        <time>2025-05-12T08:35:46Z</time>
      </trkpt>
      <trkpt lat="36.947053000330925" lon="-3.234140994027257">
        <ele>1311.8599999999999</ele>
        <time>2025-05-12T08:35:47Z</time>
      </trkpt>
      <trkpt lat="36.946975970640779" lon="-3.233988024294376">
        <ele>1310.9000000000001</ele>
        <time>2025-05-12T08:35:48Z</time>
      </trkpt>
      <trkpt lat="36.946878992021084" lon="-3.233843017369509">
        <ele>1309.45</ele>
        <time>2025-05-12T08:35:49Z</time>
      </trkpt>
      <trkpt lat="36.94676399230957" lon="-3.233728017657995">
        <ele>1308.49</ele>
        <time>2025-05-12T08:35:50Z</time>
      </trkpt>
      <trkpt lat="36.946652010083199" lon="-3.233634978532791">
        <ele>1307.53</ele>
        <time>2025-05-12T08:35:51Z</time>
      </trkpt>
      <trkpt lat="36.946553019806743" lon="-3.233553003519774">
        <ele>1306.5699999999999</ele>
        <time>2025-05-12T08:35:52Z</time>
      </trkpt>
      <trkpt lat="36.946458974853158" lon="-3.233462981879711">
        <ele>1305.6099999999999</ele>
        <time>2025-05-12T08:35:53Z</time>
      </trkpt>
      <trkpt lat="36.946412036195397" lon="-3.233321998268366">
        <ele>1304.6500000000001</ele>
        <time>2025-05-12T08:35:54Z</time>
      </trkpt>
      <trkpt lat="36.946374988183379" lon="-3.233144972473383">
        <ele>1303.6900000000001</ele>
        <time>2025-05-12T08:35:55Z</time>
      </trkpt>
      <trkpt lat="36.946340035647154" lon="-3.232942968606949">
        <ele>1302.24</ele>
        <time>2025-05-12T08:35:56Z</time>
      </trkpt>
      <trkpt lat="36.94622503593564" lon="-3.232285995036364">
        <ele>1298.8800000000001</ele>
        <time>2025-05-12T08:35:59Z</time>
      </trkpt>
      <trkpt lat="36.946171978488564" lon="-3.232092037796974">
        <ele>1297.4400000000001</ele>
        <time>2025-05-12T08:36:00Z</time>
      </trkpt>
      <trkpt lat="36.946124034002423" lon="-3.231915012001991">
        <ele>1296.48</ele>
        <time>2025-05-12T08:36:01Z</time>
      </trkpt>
      <trkpt lat="36.946093020960689" lon="-3.231756007298827">
        <ele>1295.51</ele>
        <time>2025-05-12T08:36:02Z</time>
      </trkpt>
      <trkpt lat="36.946079023182392" lon="-3.231595996767283">
        <ele>1294.55</ele>
        <time>2025-05-12T08:36:03Z</time>
      </trkpt>
      <trkpt lat="36.946065025404096" lon="-3.231424000114203">
        <ele>1293.1099999999999</ele>
        <time>2025-05-12T08:36:04Z</time>
      </trkpt>
      <trkpt lat="36.945995036512613" lon="-3.230613972991705">
        <ele>1288.78</ele>
        <time>2025-05-12T08:36:08Z</time>
      </trkpt>
      <trkpt lat="36.945929992944002" lon="-3.230440970510244">
        <ele>1287.3399999999999</ele>
        <time>2025-05-12T08:36:09Z</time>
      </trkpt>
      <trkpt lat="36.945865033194423" lon="-3.230294035747647">
        <ele>1286.3800000000001</ele>
        <time>2025-05-12T08:36:10Z</time>
      </trkpt>
      <trkpt lat="36.945809964090586" lon="-3.230168977752328">
        <ele>1285.4200000000001</ele>
        <time>2025-05-12T08:36:11Z</time>
      </trkpt>
      <trkpt lat="36.945755984634161" lon="-3.230045009404421">
        <ele>1284.46</ele>
        <time>2025-05-12T08:36:12Z</time>
      </trkpt>
      <trkpt lat="36.945755984634161" lon="-3.22993696667254">
        <ele>1283.98</ele>
        <time>2025-05-12T08:36:13Z</time>
      </trkpt>
      <trkpt lat="36.945755984634161" lon="-3.229787014424801">
        <ele>1283.02</ele>
        <time>2025-05-12T08:36:14Z</time>
      </trkpt>
      <trkpt lat="36.945755984634161" lon="-3.229623986408114">
        <ele>1282.0599999999999</ele>
        <time>2025-05-12T08:36:15Z</time>
      </trkpt>
      <trkpt lat="36.945755984634161" lon="-3.229446960613132">
        <ele>1281.5699999999999</ele>
        <time>2025-05-12T08:36:16Z</time>
      </trkpt>
      <trkpt lat="36.945755984634161" lon="-3.229250991716981">
        <ele>1281.0899999999999</ele>
        <time>2025-05-12T08:36:17Z</time>
      </trkpt>
      <trkpt lat="36.945735029876232" lon="-3.229072038084269">
        <ele>1280.6099999999999</ele>
        <time>2025-05-12T08:36:18Z</time>
      </trkpt>
      <trkpt lat="36.945713991299272" lon="-3.228890988975763">
        <ele>1280.1300000000001</ele>
        <time>2025-05-12T08:36:19Z</time>
      </trkpt>
      <trkpt lat="36.945639979094267" lon="-3.228741036728025">
        <ele>1279.6500000000001</ele>
        <time>2025-05-12T08:36:20Z</time>
      </trkpt>
      <trkpt lat="36.945564961060882" lon="-3.228589994832873">
        <ele>1279.1700000000001</ele>
        <time>2025-05-12T08:36:21Z</time>
      </trkpt>
      <trkpt lat="36.945459013804793" lon="-3.228454040363431">
        <ele>1278.21</ele>
        <time>2025-05-12T08:36:22Z</time>
      </trkpt>
      <trkpt lat="36.945336973294616" lon="-3.228322025388479">
        <ele>1277.73</ele>
        <time>2025-05-12T08:36:23Z</time>
      </trkpt>
      <trkpt lat="36.945018041878939" lon="-3.227961016818881">
        <ele>1275.3299999999999</ele>
        <time>2025-05-12T08:36:26Z</time>
      </trkpt>
      <trkpt lat="36.944973031058908" lon="-3.227839982137084">
        <ele>1274.8499999999999</ele>
        <time>2025-05-12T08:36:27Z</time>
      </trkpt>
      <trkpt lat="36.944946041330695" lon="-3.227718025445938">
        <ele>1273.8800000000001</ele>
        <time>2025-05-12T08:36:28Z</time>
      </trkpt>
      <trkpt lat="36.944969007745385" lon="-3.227590033784509">
        <ele>1272.9200000000001</ele>
        <time>2025-05-12T08:36:29Z</time>
      </trkpt>
      <trkpt lat="36.945005971938372" lon="-3.227478973567486">
        <ele>1271.96</ele>
        <time>2025-05-12T08:36:30Z</time>
      </trkpt>
      <trkpt lat="36.945069003850222" lon="-3.227385012432933">
        <ele>1270.52</ele>
        <time>2025-05-12T08:36:31Z</time>
      </trkpt>
      <trkpt lat="36.945161037147045" lon="-3.227346958592534">
        <ele>1269.5599999999999</ele>
        <time>2025-05-12T08:36:32Z</time>
      </trkpt>
      <trkpt lat="36.945251980796456" lon="-3.227361040189862">
        <ele>1268.5999999999999</ele>
        <time>2025-05-12T08:36:33Z</time>
      </trkpt>
      <trkpt lat="36.945359017699957" lon="-3.227388029918075">
        <ele>1267.6400000000001</ele>
        <time>2025-05-12T08:36:34Z</time>
      </trkpt>
      <trkpt lat="36.945482986047864" lon="-3.227419964969158">
        <ele>1267.1600000000001</ele>
        <time>2025-05-12T08:36:35Z</time>
      </trkpt>
      <trkpt lat="36.945619024336338" lon="-3.227455001324415">
        <ele>1266.1900000000001</ele>
        <time>2025-05-12T08:36:36Z</time>
      </trkpt>
      <trkpt lat="36.9457539729774" lon="-3.227490037679672">
        <ele>1265.23</ele>
        <time>2025-05-12T08:36:37Z</time>
      </trkpt>
      <trkpt lat="36.945895040407777" lon="-3.227495988830924">
        <ele>1264.27</ele>
        <time>2025-05-12T08:36:38Z</time>
      </trkpt>
      <trkpt lat="36.946040969341993" lon="-3.227450978010893">
        <ele>1263.3099999999999</ele>
        <time>2025-05-12T08:36:39Z</time>
      </trkpt>
      <trkpt lat="36.946345986798406" lon="-3.22735701687634">
        <ele>1261.8699999999999</ele>
        <time>2025-05-12T08:36:41Z</time>
      </trkpt>
      <trkpt lat="36.947037996724248" lon="-3.227283004671335">
        <ele>1256.5799999999999</ele>
        <time>2025-05-12T08:36:47Z</time>
      </trkpt>
      <trkpt lat="36.947126006707549" lon="-3.227260038256645">
        <ele>1256.0999999999999</ele>
        <time>2025-05-12T08:36:48Z</time>
      </trkpt>
      <trkpt lat="36.947521967813373" lon="-3.227136991918087">
        <ele>1254.6600000000001</ele>
        <time>2025-05-12T08:36:53Z</time>
      </trkpt>
      <trkpt lat="36.947595980018377" lon="-3.227106984704733">
        <ele>1254.6600000000001</ele>
        <time>2025-05-12T08:36:54Z</time>
      </trkpt>
      <trkpt lat="36.947655994445086" lon="-3.227022998034954">
        <ele>1254.6600000000001</ele>
        <time>2025-05-12T08:36:55Z</time>
      </trkpt>
      <trkpt lat="36.947707962244749" lon="-3.226944962516427">
        <ele>1254.6600000000001</ele>
        <time>2025-05-12T08:36:56Z</time>
      </trkpt>
      <trkpt lat="36.947756996378303" lon="-3.226862987503409">
        <ele>1254.1800000000001</ele>
        <time>2025-05-12T08:36:57Z</time>
      </trkpt>
      <trkpt lat="36.948210038244724" lon="-3.226042985916138">
        <ele>1254.6600000000001</ele>
        <time>2025-05-12T08:37:08Z</time>
      </trkpt>
      <trkpt lat="36.948423022404313" lon="-3.225653981789947">
        <ele>1256.5799999999999</ele>
        <time>2025-05-12T08:37:13Z</time>
      </trkpt>
      <trkpt lat="36.948463004082441" lon="-3.225576030090451">
        <ele>1257.54</ele>
        <time>2025-05-12T08:37:14Z</time>
      </trkpt>
      <trkpt lat="36.948504997417331" lon="-3.225496988743544">
        <ele>1258.02</ele>
        <time>2025-05-12T08:37:15Z</time>
      </trkpt>
      <trkpt lat="36.948732985183597" lon="-3.225105972960591">
        <ele>1258.5</ele>
        <time>2025-05-12T08:37:20Z</time>
      </trkpt>
      <trkpt lat="36.948780007660389" lon="-3.225025003775954">
        <ele>1258.98</ele>
        <time>2025-05-12T08:37:21Z</time>
      </trkpt>
      <trkpt lat="36.949016964063048" lon="-3.224615966901183">
        <ele>1260.4300000000001</ele>
        <time>2025-05-12T08:37:26Z</time>
      </trkpt>
      <trkpt lat="36.949266996234655" lon="-3.224172983318567">
        <ele>1260.9100000000001</ele>
        <time>2025-05-12T08:37:32Z</time>
      </trkpt>
      <trkpt lat="36.94932097569108" lon="-3.224119003862143">
        <ele>1260.9100000000001</ele>
        <time>2025-05-12T08:37:33Z</time>
      </trkpt>
      <trkpt lat="36.949374033138156" lon="-3.224067036062479">
        <ele>1260.9100000000001</ele>
        <time>2025-05-12T08:37:34Z</time>
      </trkpt>
      <trkpt lat="36.94944703951478" lon="-3.223994029685855">
        <ele>1261.3900000000001</ele>
        <time>2025-05-12T08:37:35Z</time>
      </trkpt>
      <trkpt lat="36.94949297234416" lon="-3.223981959745288">
        <ele>1261.3900000000001</ele>
        <time>2025-05-12T08:37:36Z</time>
      </trkpt>
      <trkpt lat="36.949561033397913" lon="-3.223965028300881">
        <ele>1261.8699999999999</ele>
        <time>2025-05-12T08:37:37Z</time>
      </trkpt>
      <trkpt lat="36.949630016461015" lon="-3.223953964188695">
        <ele>1262.3499999999999</ele>
        <time>2025-05-12T08:37:38Z</time>
      </trkpt>
      <trkpt lat="36.949692964553833" lon="-3.223972991108894">
        <ele>1262.3499999999999</ele>
        <time>2025-05-12T08:37:39Z</time>
      </trkpt>
      <trkpt lat="36.949760019779205" lon="-3.223993023857474">
        <ele>1262.8299999999999</ele>
        <time>2025-05-12T08:37:40Z</time>
      </trkpt>
      <trkpt lat="36.949833026155829" lon="-3.224014984443784">
        <ele>1262.8299999999999</ele>
        <time>2025-05-12T08:37:41Z</time>
      </trkpt>
      <trkpt lat="36.950187999755144" lon="-3.224102994427085">
        <ele>1264.75</ele>
        <time>2025-05-12T08:37:46Z</time>
      </trkpt>
      <trkpt lat="36.950265029445291" lon="-3.224106011912227">
        <ele>1265.23</ele>
        <time>2025-05-12T08:37:47Z</time>
      </trkpt>
      <trkpt lat="36.950338035821915" lon="-3.224109029397368">
        <ele>1265.71</ele>
        <time>2025-05-12T08:37:48Z</time>
      </trkpt>
      <trkpt lat="36.950422022491693" lon="-3.224112968891859">
        <ele>1266.6700000000001</ele>
        <time>2025-05-12T08:37:49Z</time>
      </trkpt>
      <trkpt lat="36.95052201859653" lon="-3.224117998033762">
        <ele>1267.6400000000001</ele>
        <time>2025-05-12T08:37:50Z</time>
      </trkpt>
      <trkpt lat="36.950641963630915" lon="-3.224116992205381">
        <ele>1268.1199999999999</ele>
        <time>2025-05-12T08:37:51Z</time>
      </trkpt>
      <trkpt lat="36.95114403963089" lon="-3.224018001928926">
        <ele>1270.52</ele>
        <time>2025-05-12T08:37:55Z</time>
      </trkpt>
      <trkpt lat="36.951270019635558" lon="-3.224056977778673">
        <ele>1270.52</ele>
        <time>2025-05-12T08:37:56Z</time>
      </trkpt>
      <trkpt lat="36.951542012393475" lon="-3.224163008853793">
        <ele>1270.52</ele>
        <time>2025-05-12T08:37:58Z</time>
      </trkpt>
      <trkpt lat="36.951655000448227" lon="-3.224119003862143">
        <ele>1270.52</ele>
        <time>2025-05-12T08:37:59Z</time>
      </trkpt>
      <trkpt lat="36.951760025694966" lon="-3.224072987213731">
        <ele>1271</ele>
        <time>2025-05-12T08:38:00Z</time>
      </trkpt>
      <trkpt lat="36.951861027628183" lon="-3.22402898222208">
        <ele>1271</ele>
        <time>2025-05-12T08:38:01Z</time>
      </trkpt>
      <trkpt lat="36.951960017904639" lon="-3.224014984443784">
        <ele>1271</ele>
        <time>2025-05-12T08:38:02Z</time>
      </trkpt>
      <trkpt lat="36.952068982645869" lon="-3.224033005535603">
        <ele>1271.48</ele>
        <time>2025-05-12T08:38:03Z</time>
      </trkpt>
      <trkpt lat="36.952188005670905" lon="-3.224079022184014">
        <ele>1271.48</ele>
        <time>2025-05-12T08:38:04Z</time>
      </trkpt>
      <trkpt lat="36.952326977625489" lon="-3.224133001640439">
        <ele>1271</ele>
        <time>2025-05-12T08:38:05Z</time>
      </trkpt>
      <trkpt lat="36.95247801952064" lon="-3.224191004410386">
        <ele>1271</ele>
        <time>2025-05-12T08:38:06Z</time>
      </trkpt>
      <trkpt lat="36.952627971768379" lon="-3.224259987473488">
        <ele>1271</ele>
        <time>2025-05-12T08:38:07Z</time>
      </trkpt>
      <trkpt lat="36.952870041131973" lon="-3.22441203519702">
        <ele>1270.04</ele>
        <time>2025-05-12T08:38:09Z</time>
      </trkpt>
      <trkpt lat="36.952970959246159" lon="-3.224425027146936">
        <ele>1269.5599999999999</ele>
        <time>2025-05-12T08:38:10Z</time>
      </trkpt>
      <trkpt lat="36.953047988936305" lon="-3.22437196969986">
        <ele>1269.0799999999999</ele>
        <time>2025-05-12T08:38:11Z</time>
      </trkpt>
      <trkpt lat="36.953092999756336" lon="-3.224281026050448">
        <ele>1268.1199999999999</ele>
        <time>2025-05-12T08:38:12Z</time>
      </trkpt>
      <trkpt lat="36.953083025291562" lon="-3.22417801246047">
        <ele>1267.6400000000001</ele>
        <time>2025-05-12T08:38:13Z</time>
      </trkpt>
      <trkpt lat="36.953061986714602" lon="-3.224058989435434">
        <ele>1267.1600000000001</ele>
        <time>2025-05-12T08:38:14Z</time>
      </trkpt>
      <trkpt lat="36.953007001429796" lon="-3.223952036350966">
        <ele>1266.6700000000001</ele>
        <time>2025-05-12T08:38:15Z</time>
      </trkpt>
      <trkpt lat="36.952942963689566" lon="-3.223829995840788">
        <ele>1266.6700000000001</ele>
        <time>2025-05-12T08:38:16Z</time>
      </trkpt>
      <trkpt lat="36.952874986454844" lon="-3.223699992522597">
        <ele>1266.1900000000001</ele>
        <time>2025-05-12T08:38:17Z</time>
      </trkpt>
      <trkpt lat="36.952812960371375" lon="-3.223579041659832">
        <ele>1266.1900000000001</ele>
        <time>2025-05-12T08:38:18Z</time>
      </trkpt>
      <trkpt lat="36.952794017270207" lon="-3.223466975614429">
        <ele>1266.6700000000001</ele>
        <time>2025-05-12T08:38:19Z</time>
      </trkpt>
      <trkpt lat="36.952804997563362" lon="-3.223337978124619">
        <ele>1267.6400000000001</ele>
        <time>2025-05-12T08:38:20Z</time>
      </trkpt>
      <trkpt lat="36.952847996726632" lon="-3.223199006170034">
        <ele>1268.5999999999999</ele>
        <time>2025-05-12T08:38:21Z</time>
      </trkpt>
      <trkpt lat="36.952895019203424" lon="-3.223050981760025">
        <ele>1269.5599999999999</ele>
        <time>2025-05-12T08:38:22Z</time>
      </trkpt>
      <trkpt lat="36.952918991446495" lon="-3.222886025905609">
        <ele>1270.52</ele>
        <time>2025-05-12T08:38:23Z</time>
      </trkpt>
      <trkpt lat="36.952897030860186" lon="-3.222506996244192">
        <ele>1272.4400000000001</ele>
        <time>2025-05-12T08:38:25Z</time>
      </trkpt>
      <trkpt lat="36.95286501199007" lon="-3.222151016816497">
        <ele>1274.8499999999999</ele>
        <time>2025-05-12T08:38:27Z</time>
      </trkpt>
      <trkpt lat="36.952812038362026" lon="-3.22200802154839">
        <ele>1275.8099999999999</ele>
        <time>2025-05-12T08:38:28Z</time>
      </trkpt>
      <trkpt lat="36.952703995630145" lon="-3.221715996041894">
        <ele>1278.6900000000001</ele>
        <time>2025-05-12T08:38:30Z</time>
      </trkpt>
      <trkpt lat="36.952657978981733" lon="-3.221555985510349">
        <ele>1280.1300000000001</ele>
        <time>2025-05-12T08:38:31Z</time>
      </trkpt>
      <trkpt lat="36.952636018395424" lon="-3.221393963322043">
        <ele>1281.5699999999999</ele>
        <time>2025-05-12T08:38:32Z</time>
      </trkpt>
      <trkpt lat="36.952639035880566" lon="-3.221239987760782">
        <ele>1282.54</ele>
        <time>2025-05-12T08:38:33Z</time>
      </trkpt>
      <trkpt lat="36.952687986195087" lon="-3.221095986664295">
        <ele>1283.98</ele>
        <time>2025-05-12T08:38:34Z</time>
      </trkpt>
      <trkpt lat="36.952773984521627" lon="-3.220973024144769">
        <ele>1285.4200000000001</ele>
        <time>2025-05-12T08:38:35Z</time>
      </trkpt>
      <trkpt lat="36.952869035303593" lon="-3.220840003341436">
        <ele>1286.8599999999999</ele>
        <time>2025-05-12T08:38:36Z</time>
      </trkpt>
      <trkpt lat="36.952964002266526" lon="-3.220690973103046">
        <ele>1287.8199999999999</ele>
        <time>2025-05-12T08:38:37Z</time>
      </trkpt>
      <trkpt lat="36.953042959794402" lon="-3.220517970621586">
        <ele>1288.78</ele>
        <time>2025-05-12T08:38:38Z</time>
      </trkpt>
      <trkpt lat="36.953215040266514" lon="-3.220156962051988">
        <ele>1290.71</ele>
        <time>2025-05-12T08:38:40Z</time>
      </trkpt>
      <trkpt lat="36.953329034149647" lon="-3.220007009804249">
        <ele>1291.6700000000001</ele>
        <time>2025-05-12T08:38:41Z</time>
      </trkpt>
      <trkpt lat="36.953433975577354" lon="-3.219869965687394">
        <ele>1293.1099999999999</ele>
        <time>2025-05-12T08:38:42Z</time>
      </trkpt>
      <trkpt lat="36.953505976125598" lon="-3.219721019268036">
        <ele>1294.0699999999999</ele>
        <time>2025-05-12T08:38:43Z</time>
      </trkpt>
      <trkpt lat="36.953556016087532" lon="-3.219546005129814">
        <ele>1295.03</ele>
        <time>2025-05-12T08:38:44Z</time>
      </trkpt>
      <trkpt lat="36.953566996380687" lon="-3.219356993213296">
        <ele>1296.48</ele>
        <time>2025-05-12T08:38:45Z</time>
      </trkpt>
      <trkpt lat="36.953566996380687" lon="-3.219164963811636">
        <ele>1297.4400000000001</ele>
        <time>2025-05-12T08:38:46Z</time>
      </trkpt>
      <trkpt lat="36.953536989167333" lon="-3.218982992693782">
        <ele>1298.4000000000001</ele>
        <time>2025-05-12T08:38:47Z</time>
      </trkpt>
      <trkpt lat="36.953474963083863" lon="-3.218808984383941">
        <ele>1299.3599999999999</ele>
        <time>2025-05-12T08:38:48Z</time>
      </trkpt>
      <trkpt lat="36.953352000564337" lon="-3.218650985509157">
        <ele>1300.8</ele>
        <time>2025-05-12T08:38:49Z</time>
      </trkpt>
      <trkpt lat="36.95323197171092" lon="-3.218550989404321">
        <ele>1301.76</ele>
        <time>2025-05-12T08:38:50Z</time>
      </trkpt>
      <trkpt lat="36.953103980049491" lon="-3.218444958329201">
        <ele>1303.2</ele>
        <time>2025-05-12T08:38:51Z</time>
      </trkpt>
      <trkpt lat="36.952995015308261" lon="-3.218353008851409">
        <ele>1305.1300000000001</ele>
        <time>2025-05-12T08:38:52Z</time>
      </trkpt>
      <trkpt lat="36.95292703807354" lon="-3.218238009139895">
        <ele>1306.5699999999999</ele>
        <time>2025-05-12T08:38:53Z</time>
      </trkpt>
      <trkpt lat="36.952911028638482" lon="-3.218103982508183">
        <ele>1307.53</ele>
        <time>2025-05-12T08:38:54Z</time>
      </trkpt>
      <trkpt lat="36.952931983396411" lon="-3.217944977805018">
        <ele>1308.49</ele>
        <time>2025-05-12T08:38:55Z</time>
      </trkpt>
      <trkpt lat="36.952955033630133" lon="-3.217764012515545">
        <ele>1308.97</ele>
        <time>2025-05-12T08:38:56Z</time>
      </trkpt>
      <trkpt lat="36.952999960631132" lon="-3.217578018084168">
        <ele>1309.45</ele>
        <time>2025-05-12T08:38:57Z</time>
      </trkpt>
      <trkpt lat="36.953061986714602" lon="-3.217381965368986">
        <ele>1309.9300000000001</ele>
        <time>2025-05-12T08:38:58Z</time>
      </trkpt>
      <trkpt lat="36.953441016376019" lon="-3.216620972380042">
        <ele>1311.8599999999999</ele>
        <time>2025-05-12T08:39:02Z</time>
      </trkpt>
      <trkpt lat="36.953542018309236" lon="-3.216459034010768">
        <ele>1311.8599999999999</ele>
        <time>2025-05-12T08:39:03Z</time>
      </trkpt>
      <trkpt lat="36.953664980828762" lon="-3.216363983228803">
        <ele>1312.3399999999999</ele>
        <time>2025-05-12T08:39:04Z</time>
      </trkpt>
      <trkpt lat="36.953799007460475" lon="-3.216287959367037">
        <ele>1312.3399999999999</ele>
        <time>2025-05-12T08:39:05Z</time>
      </trkpt>
      <trkpt lat="36.953914007171988" lon="-3.21622702293098">
        <ele>1312.8199999999999</ele>
        <time>2025-05-12T08:39:06Z</time>
      </trkpt>
      <trkpt lat="36.954038981348276" lon="-3.216242026537657">
        <ele>1312.8199999999999</ele>
        <time>2025-05-12T08:39:07Z</time>
      </trkpt>
      <trkpt lat="36.95415398105979" lon="-3.216283014044166">
        <ele>1313.3</ele>
        <time>2025-05-12T08:39:08Z</time>
      </trkpt>
      <trkpt lat="36.954281972721219" lon="-3.216345040127635">
        <ele>1313.78</ele>
        <time>2025-05-12T08:39:09Z</time>
      </trkpt>
      <trkpt lat="36.9545610062778" lon="-3.216479988768697">
        <ele>1315.22</ele>
        <time>2025-05-12T08:39:11Z</time>
      </trkpt>
      <trkpt lat="36.954710958525538" lon="-3.21655198931694">
        <ele>1316.1800000000001</ele>
        <time>2025-05-12T08:39:12Z</time>
      </trkpt>
      <trkpt lat="36.955045983195305" lon="-3.216621978208423">
        <ele>1317.6199999999999</ele>
        <time>2025-05-12T08:39:14Z</time>
      </trkpt>
      <trkpt lat="36.955216974020004" lon="-3.216624995693564">
        <ele>1318.5899999999999</ele>
        <time>2025-05-12T08:39:15Z</time>
      </trkpt>
      <trkpt lat="36.955538000911474" lon="-3.216598005965352">
        <ele>1320.51</ele>
        <time>2025-05-12T08:39:17Z</time>
      </trkpt>
      <trkpt lat="36.955658029764891" lon="-3.216565987095237">
        <ele>1321.47</ele>
        <time>2025-05-12T08:39:18Z</time>
      </trkpt>
      <trkpt lat="36.955760037526488" lon="-3.21648602373898">
        <ele>1322.4300000000001</ele>
        <time>2025-05-12T08:39:19Z</time>
      </trkpt>
      <trkpt lat="36.955977967008948" lon="-3.21631302125752">
        <ele>1324.3499999999999</ele>
        <time>2025-05-12T08:39:21Z</time>
      </trkpt>
      <trkpt lat="36.956104030832648" lon="-3.216238003224134">
        <ele>1325.3099999999999</ele>
        <time>2025-05-12T08:39:22Z</time>
      </trkpt>
      <trkpt lat="36.956226993352175" lon="-3.216183017939329">
        <ele>1326.28</ele>
        <time>2025-05-12T08:39:23Z</time>
      </trkpt>
      <trkpt lat="36.956355990841985" lon="-3.216198021546006">
        <ele>1326.76</ele>
        <time>2025-05-12T08:39:24Z</time>
      </trkpt>
      <trkpt lat="36.956479959189892" lon="-3.216233979910612">
        <ele>1327.72</ele>
        <time>2025-05-12T08:39:25Z</time>
      </trkpt>
      <trkpt lat="36.956609040498734" lon="-3.216299023479223">
        <ele>1328.6800000000001</ele>
        <time>2025-05-12T08:39:26Z</time>
      </trkpt>
      <trkpt lat="36.956994021311402" lon="-3.21650798432529">
        <ele>1331.0799999999999</ele>
        <time>2025-05-12T08:39:29Z</time>
      </trkpt>
      <trkpt lat="36.957122012972832" lon="-3.216542014852166">
        <ele>1331.5599999999999</ele>
        <time>2025-05-12T08:39:30Z</time>
      </trkpt>
      <trkpt lat="36.957243969663978" lon="-3.21652801707387">
        <ele>1331.5599999999999</ele>
        <time>2025-05-12T08:39:31Z</time>
      </trkpt>
      <trkpt lat="36.957370033487678" lon="-3.216514019295573">
        <ele>1331.5599999999999</ele>
        <time>2025-05-12T08:39:32Z</time>
      </trkpt>
      <trkpt lat="36.957498025149107" lon="-3.216498009860516">
        <ele>1331.5599999999999</ele>
        <time>2025-05-12T08:39:33Z</time>
      </trkpt>
      <trkpt lat="36.957601038739085" lon="-3.216484012082219">
        <ele>1331.0799999999999</ele>
        <time>2025-05-12T08:39:34Z</time>
      </trkpt>
      <trkpt lat="36.957697011530399" lon="-3.216387033462524">
        <ele>1330.5999999999999</ele>
        <time>2025-05-12T08:39:35Z</time>
      </trkpt>
      <trkpt lat="36.957745961844921" lon="-3.216262981295586">
        <ele>1330.1199999999999</ele>
        <time>2025-05-12T08:39:36Z</time>
      </trkpt>
      <trkpt lat="36.957788961008191" lon="-3.216131972149015">
        <ele>1329.6400000000001</ele>
        <time>2025-05-12T08:39:37Z</time>
      </trkpt>
      <trkpt lat="36.957793990150094" lon="-3.215996017679572">
        <ele>1329.6400000000001</ele>
        <time>2025-05-12T08:39:38Z</time>
      </trkpt>
      <trkpt lat="36.957755014300346" lon="-3.215890992432833">
        <ele>1329.6400000000001</ele>
        <time>2025-05-12T08:39:39Z</time>
      </trkpt>
      <trkpt lat="36.957690976560116" lon="-3.215810023248196">
        <ele>1329.6400000000001</ele>
        <time>2025-05-12T08:39:40Z</time>
      </trkpt>
      <trkpt lat="36.957598021253943" lon="-3.215738022699952">
        <ele>1330.1199999999999</ele>
        <time>2025-05-12T08:39:41Z</time>
      </trkpt>
      <trkpt lat="36.957498025149107" lon="-3.215659987181425">
        <ele>1330.5999999999999</ele>
        <time>2025-05-12T08:39:42Z</time>
      </trkpt>
      <trkpt lat="36.957389982417226" lon="-3.215576000511646">
        <ele>1331.0799999999999</ele>
        <time>2025-05-12T08:39:43Z</time>
      </trkpt>
      <trkpt lat="36.957293003797531" lon="-3.215454965829849">
        <ele>1331.0799999999999</ele>
        <time>2025-05-12T08:39:44Z</time>
      </trkpt>
      <trkpt lat="36.957213962450624" lon="-3.21532404050231">
        <ele>1331.5599999999999</ele>
        <time>2025-05-12T08:39:45Z</time>
      </trkpt>
      <trkpt lat="36.957165012136102" lon="-3.215178027749062">
        <ele>1332.04</ele>
        <time>2025-05-12T08:39:46Z</time>
      </trkpt>
      <trkpt lat="36.957115978002548" lon="-3.215028997510672">
        <ele>1333.01</ele>
        <time>2025-05-12T08:39:47Z</time>
      </trkpt>
      <trkpt lat="36.957064010202885" lon="-3.21487401612103">
        <ele>1333.97</ele>
        <time>2025-05-12T08:39:48Z</time>
      </trkpt>
      <trkpt lat="36.956950016319752" lon="-3.214785000309348">
        <ele>1334.45</ele>
        <time>2025-05-12T08:39:49Z</time>
      </trkpt>
      <trkpt lat="36.956826969981194" lon="-3.214689027518034">
        <ele>1335.8900000000001</ele>
        <time>2025-05-12T08:39:50Z</time>
      </trkpt>
      <trkpt lat="36.956700989976525" lon="-3.214590037241578">
        <ele>1336.8499999999999</ele>
        <time>2025-05-12T08:39:51Z</time>
      </trkpt>
      <trkpt lat="36.956572998315096" lon="-3.214490041136742">
        <ele>1337.8099999999999</ele>
        <time>2025-05-12T08:39:52Z</time>
      </trkpt>
      <trkpt lat="36.956468978896737" lon="-3.214352997019887">
        <ele>1338.29</ele>
        <time>2025-05-12T08:39:53Z</time>
      </trkpt>
      <trkpt lat="36.956365965306759" lon="-3.214216036722064">
        <ele>1339.25</ele>
        <time>2025-05-12T08:39:54Z</time>
      </trkpt>
      <trkpt lat="36.956278961151838" lon="-3.214063988998532">
        <ele>1340.22</ele>
        <time>2025-05-12T08:39:55Z</time>
      </trkpt>
      <trkpt lat="36.956206038594246" lon="-3.213886963203549">
        <ele>1341.6600000000001</ele>
        <time>2025-05-12T08:39:56Z</time>
      </trkpt>
      <trkpt lat="36.956169996410608" lon="-3.213732987642288">
        <ele>1342.6199999999999</ele>
        <time>2025-05-12T08:39:57Z</time>
      </trkpt>
      <trkpt lat="36.956138983368874" lon="-3.213545987382531">
        <ele>1344.0599999999999</ele>
        <time>2025-05-12T08:39:58Z</time>
      </trkpt>
      <trkpt lat="36.956105958670378" lon="-3.212761022150517">
        <ele>1348.8699999999999</ele>
        <time>2025-05-12T08:40:02Z</time>
      </trkpt>
      <trkpt lat="36.956103025004268" lon="-3.212552983313799">
        <ele>1350.3099999999999</ele>
        <time>2025-05-12T08:40:03Z</time>
      </trkpt>
      <trkpt lat="36.956142000854015" lon="-3.212352991104126">
        <ele>1351.75</ele>
        <time>2025-05-12T08:40:04Z</time>
      </trkpt>
      <trkpt lat="36.956177037209272" lon="-3.212164985015988">
        <ele>1353.1900000000001</ele>
        <time>2025-05-12T08:40:05Z</time>
      </trkpt>
      <trkpt lat="36.956245014443994" lon="-3.212006986141205">
        <ele>1354.6300000000001</ele>
        <time>2025-05-12T08:40:06Z</time>
      </trkpt>
      <trkpt lat="36.956322966143489" lon="-3.211872037500143">
        <ele>1356.0799999999999</ele>
        <time>2025-05-12T08:40:07Z</time>
      </trkpt>
      <trkpt lat="36.956411981955171" lon="-3.21175703778863">
        <ele>1357.04</ele>
        <time>2025-05-12T08:40:08Z</time>
      </trkpt>
      <trkpt lat="36.956506026908755" lon="-3.211633991450071">
        <ele>1358</ele>
        <time>2025-05-12T08:40:09Z</time>
      </trkpt>
      <trkpt lat="36.956536034122109" lon="-3.21150197647512">
        <ele>1358.96</ele>
        <time>2025-05-12T08:40:10Z</time>
      </trkpt>
      <trkpt lat="36.956572998315096" lon="-3.211339032277465">
        <ele>1359.9200000000001</ele>
        <time>2025-05-12T08:40:11Z</time>
      </trkpt>
      <trkpt lat="36.956655979156494" lon="-3.210968971252441">
        <ele>1361.8399999999999</ele>
        <time>2025-05-12T08:40:13Z</time>
      </trkpt>
      <trkpt lat="36.956665031611919" lon="-3.210794040933251">
        <ele>1362.8099999999999</ele>
        <time>2025-05-12T08:40:14Z</time>
      </trkpt>
      <trkpt lat="36.956675006076694" lon="-3.210605029016733">
        <ele>1363.77</ele>
        <time>2025-05-12T08:40:15Z</time>
      </trkpt>
      <trkpt lat="36.956727979704738" lon="-3.21042800322175">
        <ele>1365.21</ele>
        <time>2025-05-12T08:40:16Z</time>
      </trkpt>
      <trkpt lat="36.956802997738123" lon="-3.210263969376683">
        <ele>1365.6900000000001</ele>
        <time>2025-05-12T08:40:17Z</time>
      </trkpt>
      <trkpt lat="36.956869969144464" lon="-3.210115022957325">
        <ele>1367.1300000000001</ele>
        <time>2025-05-12T08:40:18Z</time>
      </trkpt>
      <trkpt lat="36.956929983571172" lon="-3.209980996325612">
        <ele>1368.0899999999999</ele>
        <time>2025-05-12T08:40:19Z</time>
      </trkpt>
      <trkpt lat="36.956977006047964" lon="-3.209865996614099">
        <ele>1368.5699999999999</ele>
        <time>2025-05-12T08:40:20Z</time>
      </trkpt>
      <trkpt lat="36.956957979127765" lon="-3.209729958325625">
        <ele>1369.54</ele>
        <time>2025-05-12T08:40:21Z</time>
      </trkpt>
      <trkpt lat="36.956938030198216" lon="-3.209592998027802">
        <ele>1370.5</ele>
        <time>2025-05-12T08:40:22Z</time>
      </trkpt>
      <trkpt lat="36.956916991621256" lon="-3.209447991102934">
        <ele>1371.46</ele>
        <time>2025-05-12T08:40:23Z</time>
      </trkpt>
      <trkpt lat="36.956939036026597" lon="-3.209284041076899">
        <ele>1372.4200000000001</ele>
        <time>2025-05-12T08:40:24Z</time>
      </trkpt>
      <trkpt lat="36.956992009654641" lon="-3.209128975868225">
        <ele>1373.3800000000001</ele>
        <time>2025-05-12T08:40:25Z</time>
      </trkpt>
      <trkpt lat="36.957080019637942" lon="-3.208982041105628">
        <ele>1374.3399999999999</ele>
        <time>2025-05-12T08:40:26Z</time>
      </trkpt>
      <trkpt lat="36.957175992429256" lon="-3.208823036402464">
        <ele>1375.3</ele>
        <time>2025-05-12T08:40:27Z</time>
      </trkpt>
      <trkpt lat="36.957370033487678" lon="-3.208499997854233">
        <ele>1377.71</ele>
        <time>2025-05-12T08:40:29Z</time>
      </trkpt>
      <trkpt lat="36.957454020157456" lon="-3.208359014242888">
        <ele>1378.6700000000001</ele>
        <time>2025-05-12T08:40:30Z</time>
      </trkpt>
      <trkpt lat="36.957498025149107" lon="-3.208209984004498">
        <ele>1379.6300000000001</ele>
        <time>2025-05-12T08:40:31Z</time>
      </trkpt>
      <trkpt lat="36.957504982128739" lon="-3.208047961816192">
        <ele>1380.1099999999999</ele>
        <time>2025-05-12T08:40:32Z</time>
      </trkpt>
      <trkpt lat="36.957486961036921" lon="-3.207874037325382">
        <ele>1381.0699999999999</ele>
        <time>2025-05-12T08:40:33Z</time>
      </trkpt>
      <trkpt lat="36.957468017935753" lon="-3.207701034843922">
        <ele>1382.03</ele>
        <time>2025-05-12T08:40:34Z</time>
      </trkpt>
      <trkpt lat="36.957449996843934" lon="-3.207535995170474">
        <ele>1382.99</ele>
        <time>2025-05-12T08:40:35Z</time>
      </trkpt>
      <trkpt lat="36.957500958815217" lon="-3.20739702321589">
        <ele>1383.96</ele>
        <time>2025-05-12T08:40:36Z</time>
      </trkpt>
      <trkpt lat="36.957566002383828" lon="-3.207252016291022">
        <ele>1384.4400000000001</ele>
        <time>2025-05-12T08:40:37Z</time>
      </trkpt>
      <trkpt lat="36.95765501819551" lon="-3.207112038508058">
        <ele>1385.4000000000001</ele>
        <time>2025-05-12T08:40:38Z</time>
      </trkpt>
      <trkpt lat="36.957764988765121" lon="-3.206984968855977">
        <ele>1385.8800000000001</ele>
        <time>2025-05-12T08:40:39Z</time>
      </trkpt>
      <trkpt lat="36.957879988476634" lon="-3.206869969144464">
        <ele>1385.8800000000001</ele>
        <time>2025-05-12T08:40:40Z</time>
      </trkpt>
      <trkpt lat="36.957987025380135" lon="-3.206763016059995">
        <ele>1386.3599999999999</ele>
        <time>2025-05-12T08:40:41Z</time>
      </trkpt>
      <trkpt lat="36.95821400731802" lon="-3.206596970558167">
        <ele>1386.3599999999999</ele>
        <time>2025-05-12T08:40:43Z</time>
      </trkpt>
      <trkpt lat="36.958307968452573" lon="-3.206527987495065">
        <ele>1386.3599999999999</ele>
        <time>2025-05-12T08:40:44Z</time>
      </trkpt>
      <trkpt lat="36.958421962335706" lon="-3.20651700720191">
        <ele>1386.3599999999999</ele>
        <time>2025-05-12T08:40:45Z</time>
      </trkpt>
      <trkpt lat="36.95870703086257" lon="-3.206491023302078">
        <ele>1385.4000000000001</ele>
        <time>2025-05-12T08:40:47Z</time>
      </trkpt>
      <trkpt lat="36.958849020302296" lon="-3.206448024138808">
        <ele>1384.4400000000001</ele>
        <time>2025-05-12T08:40:48Z</time>
      </trkpt>
      <trkpt lat="36.958981035277247" lon="-3.206378035247326">
        <ele>1383.47</ele>
        <time>2025-05-12T08:40:49Z</time>
      </trkpt>
      <trkpt lat="36.959102991968393" lon="-3.206312991678715">
        <ele>1382.51</ele>
        <time>2025-05-12T08:40:50Z</time>
      </trkpt>
      <trkpt lat="36.959255961701274" lon="-3.206297988072038">
        <ele>1381.55</ele>
        <time>2025-05-12T08:40:51Z</time>
      </trkpt>
      <trkpt lat="36.959415972232819" lon="-3.206282984465361">
        <ele>1380.1099999999999</ele>
        <time>2025-05-12T08:40:52Z</time>
      </trkpt>
      <trkpt lat="36.959553016349673" lon="-3.206269992515445">
        <ele>1378.6700000000001</ele>
        <time>2025-05-12T08:40:53Z</time>
      </trkpt>
      <trkpt lat="36.959673967212439" lon="-3.206201009452343">
        <ele>1377.23</ele>
        <time>2025-05-12T08:40:54Z</time>
      </trkpt>
      <trkpt lat="36.959727024659514" lon="-3.206112999469042">
        <ele>1375.78</ele>
        <time>2025-05-12T08:40:55Z</time>
      </trkpt>
      <trkpt lat="36.959768012166023" lon="-3.205990958958864">
        <ele>1374.3399999999999</ele>
        <time>2025-05-12T08:40:56Z</time>
      </trkpt>
      <trkpt lat="36.959738004952669" lon="-3.205904960632324">
        <ele>1372.9000000000001</ele>
        <time>2025-05-12T08:40:57Z</time>
      </trkpt>
      <trkpt lat="36.959692994132638" lon="-3.205779986456037">
        <ele>1371.46</ele>
        <time>2025-05-12T08:40:58Z</time>
      </trkpt>
      <trkpt lat="36.959645971655846" lon="-3.205646965652704">
        <ele>1370.5</ele>
        <time>2025-05-12T08:40:59Z</time>
      </trkpt>
      <trkpt lat="36.959629962220788" lon="-3.205504976212978">
        <ele>1369.54</ele>
        <time>2025-05-12T08:41:00Z</time>
      </trkpt>
      <trkpt lat="36.959617976099253" lon="-3.205346977338195">
        <ele>1368.0899999999999</ele>
        <time>2025-05-12T08:41:01Z</time>
      </trkpt>
      <trkpt lat="36.959678996354342" lon="-3.205213034525514">
        <ele>1367.1300000000001</ele>
        <time>2025-05-12T08:41:02Z</time>
      </trkpt>
      <trkpt lat="36.959764994680882" lon="-3.205060986801982">
        <ele>1365.6900000000001</ele>
        <time>2025-05-12T08:41:03Z</time>
      </trkpt>
      <trkpt lat="36.959873959422112" lon="-3.20492603816092">
        <ele>1364.25</ele>
        <time>2025-05-12T08:41:04Z</time>
      </trkpt>
      <trkpt lat="36.959982002153993" lon="-3.204794023185968">
        <ele>1363.29</ele>
        <time>2025-05-12T08:41:05Z</time>
      </trkpt>
      <trkpt lat="36.960080992430449" lon="-3.20467097684741">
        <ele>1361.8399999999999</ele>
        <time>2025-05-12T08:41:06Z</time>
      </trkpt>
      <trkpt lat="36.960115022957325" lon="-3.204528987407684">
        <ele>1360.4000000000001</ele>
        <time>2025-05-12T08:41:07Z</time>
      </trkpt>
      <trkpt lat="36.960142012685537" lon="-3.204385992139578">
        <ele>1359.4400000000001</ele>
        <time>2025-05-12T08:41:08Z</time>
      </trkpt>
      <trkpt lat="36.960175037384033" lon="-3.204209972172976">
        <ele>1358.48</ele>
        <time>2025-05-12T08:41:09Z</time>
      </trkpt>
      <trkpt lat="36.960239997133613" lon="-3.204103019088507">
        <ele>1357.52</ele>
        <time>2025-05-12T08:41:10Z</time>
      </trkpt>
      <trkpt lat="36.960338987410069" lon="-3.204004028812051">
        <ele>1357.52</ele>
        <time>2025-05-12T08:41:11Z</time>
      </trkpt>
      <trkpt lat="36.96044996380806" lon="-3.203892968595028">
        <ele>1357.04</ele>
        <time>2025-05-12T08:41:12Z</time>
      </trkpt>
      <trkpt lat="36.960568986833096" lon="-3.203774029389024">
        <ele>1356.5599999999999</ele>
        <time>2025-05-12T08:41:13Z</time>
      </trkpt>
      <trkpt lat="36.960692033171654" lon="-3.203650983050466">
        <ele>1356.0799999999999</ele>
        <time>2025-05-12T08:41:14Z</time>
      </trkpt>
      <trkpt lat="36.960816001519561" lon="-3.203526008874178">
        <ele>1355.5999999999999</ele>
        <time>2025-05-12T08:41:15Z</time>
      </trkpt>
      <trkpt lat="36.960968971252441" lon="-3.203453002497554">
        <ele>1355.1199999999999</ele>
        <time>2025-05-12T08:41:16Z</time>
      </trkpt>
      <trkpt lat="36.961113978177309" lon="-3.203398017212749">
        <ele>1354.1500000000001</ele>
        <time>2025-05-12T08:41:17Z</time>
      </trkpt>
      <trkpt lat="36.9612439814955" lon="-3.203347977250814">
        <ele>1353.6700000000001</ele>
        <time>2025-05-12T08:41:18Z</time>
      </trkpt>
      <trkpt lat="36.961351018399" lon="-3.203283017501235">
        <ele>1352.71</ele>
        <time>2025-05-12T08:41:19Z</time>
      </trkpt>
      <trkpt lat="36.961423018947244" lon="-3.203174974769354">
        <ele>1352.23</ele>
        <time>2025-05-12T08:41:20Z</time>
      </trkpt>
      <trkpt lat="36.961472975090146" lon="-3.203029967844486">
        <ele>1351.75</ele>
        <time>2025-05-12T08:41:21Z</time>
      </trkpt>
      <trkpt lat="36.961529972031713" lon="-3.202868029475212">
        <ele>1351.27</ele>
        <time>2025-05-12T08:41:22Z</time>
      </trkpt>
      <trkpt lat="36.961648995056748" lon="-3.202527975663543">
        <ele>1350.3099999999999</ele>
        <time>2025-05-12T08:41:24Z</time>
      </trkpt>
      <trkpt lat="36.96169501170516" lon="-3.202341981232166">
        <ele>1349.8299999999999</ele>
        <time>2025-05-12T08:41:25Z</time>
      </trkpt>
      <trkpt lat="36.961679002270103" lon="-3.202139977365732">
        <ele>1349.3499999999999</ele>
        <time>2025-05-12T08:41:26Z</time>
      </trkpt>
      <trkpt lat="36.961614964529872" lon="-3.201931016519666">
        <ele>1348.8699999999999</ele>
        <time>2025-05-12T08:41:27Z</time>
      </trkpt>
      <trkpt lat="36.961550004780293" lon="-3.201723983511329">
        <ele>1348.8699999999999</ele>
        <time>2025-05-12T08:41:28Z</time>
      </trkpt>
      <trkpt lat="36.961426958441734" lon="-3.201549975201488">
        <ele>1348.3900000000001</ele>
        <time>2025-05-12T08:41:29Z</time>
      </trkpt>
      <trkpt lat="36.961311036720872" lon="-3.201386025175452">
        <ele>1348.3900000000001</ele>
        <time>2025-05-12T08:41:30Z</time>
      </trkpt>
      <trkpt lat="36.961199976503849" lon="-3.201229032129049">
        <ele>1347.9100000000001</ele>
        <time>2025-05-12T08:41:31Z</time>
      </trkpt>
      <trkpt lat="36.961091011762619" lon="-3.201075978577137">
        <ele>1347.9100000000001</ele>
        <time>2025-05-12T08:41:32Z</time>
      </trkpt>
      <trkpt lat="36.960999984294176" lon="-3.200913034379482">
        <ele>1347.9100000000001</ele>
        <time>2025-05-12T08:41:33Z</time>
      </trkpt>
      <trkpt lat="36.960918009281158" lon="-3.200756963342428">
        <ele>1347.4300000000001</ele>
        <time>2025-05-12T08:41:34Z</time>
      </trkpt>
      <trkpt lat="36.960894037038088" lon="-3.20060801692307">
        <ele>1346.9400000000001</ele>
        <time>2025-05-12T08:41:35Z</time>
      </trkpt>
      <trkpt lat="36.960891019552946" lon="-3.200484970584512">
        <ele>1346.46</ele>
        <time>2025-05-12T08:41:36Z</time>
      </trkpt>
      <trkpt lat="36.960956985130906" lon="-3.200370976701379">
        <ele>1346.46</ele>
        <time>2025-05-12T08:41:37Z</time>
      </trkpt>
      <trkpt lat="36.961034014821053" lon="-3.200239967554808">
        <ele>1345.5</ele>
        <time>2025-05-12T08:41:38Z</time>
      </trkpt>
      <trkpt lat="36.961142979562283" lon="-3.200154975056648">
        <ele>1344.54</ele>
        <time>2025-05-12T08:41:39Z</time>
      </trkpt>
      <trkpt lat="36.961271977052093" lon="-3.200057996436954">
        <ele>1343.5799999999999</ele>
        <time>2025-05-12T08:41:40Z</time>
      </trkpt>
      <trkpt lat="36.961999023333192" lon="-3.199575031176209">
        <ele>1337.8099999999999</ele>
        <time>2025-05-12T08:41:45Z</time>
      </trkpt>
      <trkpt lat="36.962164985015988" lon="-3.199536977335811">
        <ele>1336.3699999999999</ele>
        <time>2025-05-12T08:41:46Z</time>
      </trkpt>
      <trkpt lat="36.962327007204294" lon="-3.199501018971205">
        <ele>1334.9300000000001</ele>
        <time>2025-05-12T08:41:47Z</time>
      </trkpt>
      <trkpt lat="36.962471008300781" lon="-3.199467994272709">
        <ele>1333.97</ele>
        <time>2025-05-12T08:41:48Z</time>
      </trkpt>
      <trkpt lat="36.962641999125481" lon="-3.199349977076054">
        <ele>1333.01</ele>
        <time>2025-05-12T08:41:49Z</time>
      </trkpt>
      <trkpt lat="36.962778959423304" lon="-3.199240006506443">
        <ele>1332.04</ele>
        <time>2025-05-12T08:41:50Z</time>
      </trkpt>
      <trkpt lat="36.962885996326804" lon="-3.199093993753195">
        <ele>1331.0799999999999</ele>
        <time>2025-05-12T08:41:51Z</time>
      </trkpt>
      <trkpt lat="36.962974006310105" lon="-3.198937000706792">
        <ele>1330.1199999999999</ele>
        <time>2025-05-12T08:41:52Z</time>
      </trkpt>
      <trkpt lat="36.963052963837981" lon="-3.198795011267066">
        <ele>1328.6800000000001</ele>
        <time>2025-05-12T08:41:53Z</time>
      </trkpt>
      <trkpt lat="36.963138962164521" lon="-3.198693003505468">
        <ele>1326.76</ele>
        <time>2025-05-12T08:41:54Z</time>
      </trkpt>
      <trkpt lat="36.963248010724783" lon="-3.19860901683569">
        <ele>1325.3099999999999</ele>
        <time>2025-05-12T08:41:55Z</time>
      </trkpt>
      <trkpt lat="36.963868020102382" lon="-3.198325959965587">
        <ele>1318.0999999999999</ele>
        <time>2025-05-12T08:41:59Z</time>
      </trkpt>
      <trkpt lat="36.964002968743443" lon="-3.198233004659414">
        <ele>1316.1800000000001</ele>
        <time>2025-05-12T08:42:00Z</time>
      </trkpt>
      <trkpt lat="36.964110005646944" lon="-3.198118004947901">
        <ele>1314.74</ele>
        <time>2025-05-12T08:42:01Z</time>
      </trkpt>
      <trkpt lat="36.964202038943768" lon="-3.198019014671445">
        <ele>1313.78</ele>
        <time>2025-05-12T08:42:02Z</time>
      </trkpt>
      <trkpt lat="36.964305974543095" lon="-3.19796402938664">
        <ele>1312.8199999999999</ele>
        <time>2025-05-12T08:42:03Z</time>
      </trkpt>
      <trkpt lat="36.964418962597847" lon="-3.197928993031383">
        <ele>1311.3800000000001</ele>
        <time>2025-05-12T08:42:04Z</time>
      </trkpt>
      <trkpt lat="36.964535973966122" lon="-3.197884988039732">
        <ele>1309.9300000000001</ele>
        <time>2025-05-12T08:42:05Z</time>
      </trkpt>
      <trkpt lat="36.964653991162777" lon="-3.197811981663108">
        <ele>1308.49</ele>
        <time>2025-05-12T08:42:06Z</time>
      </trkpt>
      <trkpt lat="36.964751975610852" lon="-3.197693964466453">
        <ele>1307.05</ele>
        <time>2025-05-12T08:42:07Z</time>
      </trkpt>
      <trkpt lat="36.964839985594153" lon="-3.197569996118546">
        <ele>1306.0899999999999</ele>
        <time>2025-05-12T08:42:08Z</time>
      </trkpt>
      <trkpt lat="36.964919026941061" lon="-3.197457008063793">
        <ele>1304.6500000000001</ele>
        <time>2025-05-12T08:42:09Z</time>
      </trkpt>
      <trkpt lat="36.965016005560756" lon="-3.197393976151943">
        <ele>1303.6900000000001</ele>
        <time>2025-05-12T08:42:10Z</time>
      </trkpt>
      <trkpt lat="36.965114995837212" lon="-3.197347959503532">
        <ele>1303.2</ele>
        <time>2025-05-12T08:42:11Z</time>
      </trkpt>
      <trkpt lat="36.965204011648893" lon="-3.197306971997023">
        <ele>1302.24</ele>
        <time>2025-05-12T08:42:12Z</time>
      </trkpt>
      <trkpt lat="36.96528104133904" lon="-3.197339996695519">
        <ele>1301.76</ele>
        <time>2025-05-12T08:42:13Z</time>
      </trkpt>
      <trkpt lat="36.96539000608027" lon="-3.19740797393024">
        <ele>1301.28</ele>
        <time>2025-05-12T08:42:14Z</time>
      </trkpt>
      <trkpt lat="36.96543401107192" lon="-3.19749103859067">
        <ele>1300.3199999999999</ele>
        <time>2025-05-12T08:42:15Z</time>
      </trkpt>
      <trkpt lat="36.965492013841867" lon="-3.197602014988661">
        <ele>1299.8399999999999</ele>
        <time>2025-05-12T08:42:16Z</time>
      </trkpt>
      <trkpt lat="36.965548004955053" lon="-3.19770896807313">
        <ele>1299.8399999999999</ele>
        <time>2025-05-12T08:42:17Z</time>
      </trkpt>
      <trkpt lat="36.965598966926336" lon="-3.197805024683476">
        <ele>1299.3599999999999</ele>
        <time>2025-05-12T08:42:18Z</time>
      </trkpt>
      <trkpt lat="36.965666022151709" lon="-3.197851963341236">
        <ele>1299.8399999999999</ele>
        <time>2025-05-12T08:42:19Z</time>
      </trkpt>
      <trkpt lat="36.96573399938643" lon="-3.197875013574958">
        <ele>1299.8399999999999</ele>
        <time>2025-05-12T08:42:20Z</time>
      </trkpt>
      <trkpt lat="36.965829972177744" lon="-3.197844000533223">
        <ele>1299.8399999999999</ele>
        <time>2025-05-12T08:42:21Z</time>
      </trkpt>
      <trkpt lat="36.965909013524652" lon="-3.197739981114864">
        <ele>1299.8399999999999</ele>
        <time>2025-05-12T08:42:22Z</time>
      </trkpt>
      <trkpt lat="36.965963998809457" lon="-3.197605032473803">
        <ele>1299.8399999999999</ele>
        <time>2025-05-12T08:42:23Z</time>
      </trkpt>
      <trkpt lat="36.966024013236165" lon="-3.197454996407032">
        <ele>1300.3199999999999</ele>
        <time>2025-05-12T08:42:24Z</time>
      </trkpt>
      <trkpt lat="36.966215958818793" lon="-3.196979993954301">
        <ele>1301.28</ele>
        <time>2025-05-12T08:42:27Z</time>
      </trkpt>
      <trkpt lat="36.966279996559024" lon="-3.196824006736279">
        <ele>1301.28</ele>
        <time>2025-05-12T08:42:28Z</time>
      </trkpt>
      <trkpt lat="36.966319978237152" lon="-3.196651004254818">
        <ele>1301.76</ele>
        <time>2025-05-12T08:42:29Z</time>
      </trkpt>
      <trkpt lat="36.96633699350059" lon="-3.196469033136964">
        <ele>1301.76</ele>
        <time>2025-05-12T08:42:30Z</time>
      </trkpt>
      <trkpt lat="36.966353002935648" lon="-3.196284966543317">
        <ele>1301.76</ele>
        <time>2025-05-12T08:42:31Z</time>
      </trkpt>
      <trkpt lat="36.966370018199086" lon="-3.19609897211194">
        <ele>1301.76</ele>
        <time>2025-05-12T08:42:32Z</time>
      </trkpt>
      <trkpt lat="36.966386027634144" lon="-3.195918006822467">
        <ele>1301.76</ele>
        <time>2025-05-12T08:42:33Z</time>
      </trkpt>
      <trkpt lat="36.966411005705595" lon="-3.195745004341006">
        <ele>1301.76</ele>
        <time>2025-05-12T08:42:34Z</time>
      </trkpt>
      <trkpt lat="36.96646498516202" lon="-3.195599997416139">
        <ele>1302.24</ele>
        <time>2025-05-12T08:42:35Z</time>
      </trkpt>
      <trkpt lat="36.966516030952334" lon="-3.195466976612806">
        <ele>1302.24</ele>
        <time>2025-05-12T08:42:36Z</time>
      </trkpt>
      <trkpt lat="36.966564981266856" lon="-3.195337979122996">
        <ele>1302.24</ele>
        <time>2025-05-12T08:42:37Z</time>
      </trkpt>
      <trkpt lat="36.966647040098906" lon="-3.195239994674921">
        <ele>1301.76</ele>
        <time>2025-05-12T08:42:38Z</time>
      </trkpt>
      <trkpt lat="36.966742007061839" lon="-3.195133041590452">
        <ele>1301.76</ele>
        <time>2025-05-12T08:42:39Z</time>
      </trkpt>
      <trkpt lat="36.966837979853153" lon="-3.195051988586783">
        <ele>1301.28</ele>
        <time>2025-05-12T08:42:40Z</time>
      </trkpt>
      <trkpt lat="36.967073008418083" lon="-3.194854008033872">
        <ele>1300.3199999999999</ele>
        <time>2025-05-12T08:42:42Z</time>
      </trkpt>
      <trkpt lat="36.967188008129597" lon="-3.194738002493978">
        <ele>1299.8399999999999</ele>
        <time>2025-05-12T08:42:43Z</time>
      </trkpt>
      <trkpt lat="36.967291021719575" lon="-3.194600958377123">
        <ele>1298.8800000000001</ele>
        <time>2025-05-12T08:42:44Z</time>
      </trkpt>
      <trkpt lat="36.968246977776289" lon="-3.193407040089369">
        <ele>1291.6700000000001</ele>
        <time>2025-05-12T08:42:53Z</time>
      </trkpt>
      <trkpt lat="36.968544032424688" lon="-3.193073021247983">
        <ele>1289.75</ele>
        <time>2025-05-12T08:42:56Z</time>
      </trkpt>
      <trkpt lat="36.968668000772595" lon="-3.193031027913094">
        <ele>1289.27</ele>
        <time>2025-05-12T08:42:57Z</time>
      </trkpt>
      <trkpt lat="36.969523038715124" lon="-3.192740008234978">
        <ele>1285.4200000000001</ele>
        <time>2025-05-12T08:43:05Z</time>
      </trkpt>
      <trkpt lat="36.969614988192916" lon="-3.192735984921455">
        <ele>1284.46</ele>
        <time>2025-05-12T08:43:06Z</time>
      </trkpt>
      <trkpt lat="36.969696963205934" lon="-3.1927440315485">
        <ele>1283.98</ele>
        <time>2025-05-12T08:43:07Z</time>
      </trkpt>
      <trkpt lat="36.969768041744828" lon="-3.192749982699752">
        <ele>1283.5</ele>
        <time>2025-05-12T08:43:08Z</time>
      </trkpt>
      <trkpt lat="36.969842975959182" lon="-3.192758029326797">
        <ele>1282.54</ele>
        <time>2025-05-12T08:43:09Z</time>
      </trkpt>
      <trkpt lat="36.969925034791231" lon="-3.192764986306429">
        <ele>1282.0599999999999</ele>
        <time>2025-05-12T08:43:10Z</time>
      </trkpt>
      <trkpt lat="36.970002986490726" lon="-3.192773032933474">
        <ele>1281.0899999999999</ele>
        <time>2025-05-12T08:43:11Z</time>
      </trkpt>
      <trkpt lat="36.970053026452661" lon="-3.192725004628301">
        <ele>1280.1300000000001</ele>
        <time>2025-05-12T08:43:12Z</time>
      </trkpt>
      <trkpt lat="36.970121003687382" lon="-3.19266096688807">
        <ele>1279.6500000000001</ele>
        <time>2025-05-12T08:43:13Z</time>
      </trkpt>
      <trkpt lat="36.970194010064006" lon="-3.192591983824968">
        <ele>1278.6900000000001</ele>
        <time>2025-05-12T08:43:14Z</time>
      </trkpt>
      <trkpt lat="36.970268022269011" lon="-3.192521994933486">
        <ele>1278.21</ele>
        <time>2025-05-12T08:43:15Z</time>
      </trkpt>
      <trkpt lat="36.970341028645635" lon="-3.192453011870384">
        <ele>1277.25</ele>
        <time>2025-05-12T08:43:16Z</time>
      </trkpt>
      <trkpt lat="36.970421997830272" lon="-3.19238000549376">
        <ele>1276.77</ele>
        <time>2025-05-12T08:43:17Z</time>
      </trkpt>
      <trkpt lat="36.970629030838609" lon="-3.19227397441864">
        <ele>1274.8499999999999</ele>
        <time>2025-05-12T08:43:19Z</time>
      </trkpt>
      <trkpt lat="36.970729026943445" lon="-3.192252013832331">
        <ele>1274.3599999999999</ele>
        <time>2025-05-12T08:43:20Z</time>
      </trkpt>
      <trkpt lat="36.970829023048282" lon="-3.192239021882415">
        <ele>1273.4000000000001</ele>
        <time>2025-05-12T08:43:21Z</time>
      </trkpt>
      <trkpt lat="36.971029015257955" lon="-3.192256037145853">
        <ele>1271.48</ele>
        <time>2025-05-12T08:43:23Z</time>
      </trkpt>
      <trkpt lat="36.971109984442592" lon="-3.192234998568893">
        <ele>1270.52</ele>
        <time>2025-05-12T08:43:24Z</time>
      </trkpt>
      <trkpt lat="36.971197994425893" lon="-3.192198034375906">
        <ele>1269.5599999999999</ele>
        <time>2025-05-12T08:43:25Z</time>
      </trkpt>
      <trkpt lat="36.971271000802517" lon="-3.192168027162552">
        <ele>1269.0799999999999</ele>
        <time>2025-05-12T08:43:26Z</time>
      </trkpt>
      <trkpt lat="36.971311988309026" lon="-3.192151011899114">
        <ele>1268.1199999999999</ele>
        <time>2025-05-12T08:43:27Z</time>
      </trkpt>
      <trkpt lat="36.971335038542747" lon="-3.192110024392605">
        <ele>1267.1600000000001</ele>
        <time>2025-05-12T08:43:28Z</time>
      </trkpt>
      <trkpt lat="36.971366973593831" lon="-3.1920550391078">
        <ele>1266.6700000000001</ele>
        <time>2025-05-12T08:43:29Z</time>
      </trkpt>
      <trkpt lat="36.971397986635566" lon="-3.191999970003963">
        <ele>1265.71</ele>
        <time>2025-05-12T08:43:30Z</time>
      </trkpt>
      <trkpt lat="36.971376026049256" lon="-3.191893016919494">
        <ele>1265.23</ele>
        <time>2025-05-12T08:43:31Z</time>
      </trkpt>
      <trkpt lat="36.971327997744083" lon="-3.191854041069746">
        <ele>1264.27</ele>
        <time>2025-05-12T08:43:32Z</time>
      </trkpt>
      <trkpt lat="36.97123596444726" lon="-3.19182101637125">
        <ele>1263.3099999999999</ele>
        <time>2025-05-12T08:43:33Z</time>
      </trkpt>
      <trkpt lat="36.971154995262623" lon="-3.191853035241365">
        <ele>1263.3099999999999</ele>
        <time>2025-05-12T08:43:34Z</time>
      </trkpt>
      <trkpt lat="36.971062961965799" lon="-3.191889999434352">
        <ele>1263.3099999999999</ele>
        <time>2025-05-12T08:43:35Z</time>
      </trkpt>
      <trkpt lat="36.970963971689343" lon="-3.1919289752841">
        <ele>1262.8299999999999</ele>
        <time>2025-05-12T08:43:36Z</time>
      </trkpt>
      <trkpt lat="36.970849977806211" lon="-3.191942973062396">
        <ele>1262.3499999999999</ele>
        <time>2025-05-12T08:43:37Z</time>
      </trkpt>
      <trkpt lat="36.970729026943445" lon="-3.191953031346202">
        <ele>1261.8699999999999</ele>
        <time>2025-05-12T08:43:38Z</time>
      </trkpt>
      <trkpt lat="36.970602041110396" lon="-3.191966023296118">
        <ele>1261.3900000000001</ele>
        <time>2025-05-12T08:43:39Z</time>
      </trkpt>
      <trkpt lat="36.970471031963825" lon="-3.191983960568905">
        <ele>1260.9100000000001</ele>
        <time>2025-05-12T08:43:40Z</time>
      </trkpt>
      <trkpt lat="36.969895027577877" lon="-3.192099966108799">
        <ele>1258.02</ele>
        <time>2025-05-12T08:43:44Z</time>
      </trkpt>
      <trkpt lat="36.969759995117784" lon="-3.192157968878746">
        <ele>1257.0599999999999</ele>
        <time>2025-05-12T08:43:45Z</time>
      </trkpt>
      <trkpt lat="36.969633009284735" lon="-3.192213037982583">
        <ele>1256.5799999999999</ele>
        <time>2025-05-12T08:43:46Z</time>
      </trkpt>
      <trkpt lat="36.969503005966544" lon="-3.192254025489092">
        <ele>1256.0999999999999</ele>
        <time>2025-05-12T08:43:47Z</time>
      </trkpt>
      <trkpt lat="36.969359004870057" lon="-3.192236004397273">
        <ele>1255.1400000000001</ele>
        <time>2025-05-12T08:43:48Z</time>
      </trkpt>
      <trkpt lat="36.969238976016641" lon="-3.1921879760921">
        <ele>1253.7</ele>
        <time>2025-05-12T08:43:49Z</time>
      </trkpt>
      <trkpt lat="36.969104027375579" lon="-3.192133996635675">
        <ele>1252.74</ele>
        <time>2025-05-12T08:43:50Z</time>
      </trkpt>
      <trkpt lat="36.96895700879395" lon="-3.192111030220985">
        <ele>1251.77</ele>
        <time>2025-05-12T08:43:51Z</time>
      </trkpt>
      <trkpt lat="36.968803033232689" lon="-3.192118993028998">
        <ele>1250.8099999999999</ele>
        <time>2025-05-12T08:43:52Z</time>
      </trkpt>
      <trkpt lat="36.968660959973931" lon="-3.192126033827663">
        <ele>1249.8499999999999</ele>
        <time>2025-05-12T08:43:53Z</time>
      </trkpt>
      <trkpt lat="36.968531040474772" lon="-3.192132990807295">
        <ele>1248.8900000000001</ele>
        <time>2025-05-12T08:43:54Z</time>
      </trkpt>
      <trkpt lat="36.968040028586984" lon="-3.192168027162552">
        <ele>1245.53</ele>
        <time>2025-05-12T08:43:59Z</time>
      </trkpt>
      <trkpt lat="36.967985965311527" lon="-3.192171966657043">
        <ele>1245.04</ele>
        <time>2025-05-12T08:44:00Z</time>
      </trkpt>
      <trkpt lat="36.967653958126903" lon="-3.192203985527158">
        <ele>1243.1199999999999</ele>
        <time>2025-05-12T08:44:05Z</time>
      </trkpt>
      <trkpt lat="36.967599978670478" lon="-3.192194011062384">
        <ele>1242.6400000000001</ele>
        <time>2025-05-12T08:44:06Z</time>
      </trkpt>
      <trkpt lat="36.967557985335588" lon="-3.192152017727494">
        <ele>1242.6400000000001</ele>
        <time>2025-05-12T08:44:07Z</time>
      </trkpt>
      <trkpt lat="36.967533007264137" lon="-3.192116981372237">
        <ele>1242.1600000000001</ele>
        <time>2025-05-12T08:44:08Z</time>
      </trkpt>
      <trkpt lat="36.967521021142602" lon="-3.192069958895445">
        <ele>1242.1600000000001</ele>
        <time>2025-05-12T08:44:09Z</time>
      </trkpt>
      <trkpt lat="36.967520015314221" lon="-3.192026959732175">
        <ele>1242.1600000000001</ele>
        <time>2025-05-12T08:44:10Z</time>
      </trkpt>
      <trkpt lat="36.967542981728911" lon="-3.191970968618989">
        <ele>1242.1600000000001</ele>
        <time>2025-05-12T08:44:11Z</time>
      </trkpt>
      <trkpt lat="36.967556979507208" lon="-3.191936016082764">
        <ele>1241.6800000000001</ele>
        <time>2025-05-12T08:44:12Z</time>
      </trkpt>
      <trkpt lat="36.967637026682496" lon="-3.191896034404635">
        <ele>1241.6800000000001</ele>
        <time>2025-05-12T08:44:13Z</time>
      </trkpt>
      <trkpt lat="36.967708021402359" lon="-3.191860998049378">
        <ele>1241.2</ele>
        <time>2025-05-12T08:44:14Z</time>
      </trkpt>
      <trkpt lat="36.967787984758615" lon="-3.19186300970614">
        <ele>1240.72</ele>
        <time>2025-05-12T08:44:15Z</time>
      </trkpt>
      <trkpt lat="36.967880018055439" lon="-3.191883964464068">
        <ele>1240.24</ele>
        <time>2025-05-12T08:44:16Z</time>
      </trkpt>
      <trkpt lat="36.967982025817037" lon="-3.191893016919494">
        <ele>1239.28</ele>
        <time>2025-05-12T08:44:17Z</time>
      </trkpt>
      <trkpt lat="36.968093002215028" lon="-3.191893016919494">
        <ele>1238.8</ele>
        <time>2025-05-12T08:44:18Z</time>
      </trkpt>
      <trkpt lat="36.968214036896825" lon="-3.19188698194921">
        <ele>1238.3199999999999</ele>
        <time>2025-05-12T08:44:19Z</time>
      </trkpt>
      <trkpt lat="36.968331970274448" lon="-3.191826967522502">
        <ele>1237.8299999999999</ele>
        <time>2025-05-12T08:44:20Z</time>
      </trkpt>
      <trkpt lat="36.968442024663091" lon="-3.191738035529852">
        <ele>1236.8699999999999</ele>
        <time>2025-05-12T08:44:21Z</time>
      </trkpt>
      <trkpt lat="36.96854998357594" lon="-3.191646002233028">
        <ele>1236.3900000000001</ele>
        <time>2025-05-12T08:44:22Z</time>
      </trkpt>
      <trkpt lat="36.968650985509157" lon="-3.191579030826688">
        <ele>1235.4300000000001</ele>
        <time>2025-05-12T08:44:23Z</time>
      </trkpt>
      <trkpt lat="36.968732960522175" lon="-3.191523961722851">
        <ele>1234.47</ele>
        <time>2025-05-12T08:44:24Z</time>
      </trkpt>
      <trkpt lat="36.968812001869082" lon="-3.191531002521515">
        <ele>1233.03</ele>
        <time>2025-05-12T08:44:25Z</time>
      </trkpt>
      <trkpt lat="36.96889297105372" lon="-3.191566960886121">
        <ele>1232.55</ele>
        <time>2025-05-12T08:44:26Z</time>
      </trkpt>
      <trkpt lat="36.968951979652047" lon="-3.191593028604984">
        <ele>1231.5899999999999</ele>
        <time>2025-05-12T08:44:27Z</time>
      </trkpt>
      <trkpt lat="36.969049964100122" lon="-3.191593028604984">
        <ele>1230.1400000000001</ele>
        <time>2025-05-12T08:44:28Z</time>
      </trkpt>
      <trkpt lat="36.969145014882088" lon="-3.191592022776604">
        <ele>1229.1800000000001</ele>
        <time>2025-05-12T08:44:29Z</time>
      </trkpt>
      <trkpt lat="36.969189019873738" lon="-3.191493032500148">
        <ele>1228.22</ele>
        <time>2025-05-12T08:44:30Z</time>
      </trkpt>
      <trkpt lat="36.969231013208628" lon="-3.191373003646731">
        <ele>1227.26</ele>
        <time>2025-05-12T08:44:31Z</time>
      </trkpt>
      <trkpt lat="36.969231013208628" lon="-3.191244006156921">
        <ele>1225.8199999999999</ele>
        <time>2025-05-12T08:44:32Z</time>
      </trkpt>
      <trkpt lat="36.969231013208628" lon="-3.191121965646744">
        <ele>1224.8599999999999</ele>
        <time>2025-05-12T08:44:33Z</time>
      </trkpt>
      <trkpt lat="36.969287004321814" lon="-3.191024987027049">
        <ele>1223.9000000000001</ele>
        <time>2025-05-12T08:44:34Z</time>
      </trkpt>
      <trkpt lat="36.969352969899774" lon="-3.190909987315536">
        <ele>1223.4200000000001</ele>
        <time>2025-05-12T08:44:35Z</time>
      </trkpt>
      <trkpt lat="36.969438968226314" lon="-3.190804962068796">
        <ele>1222.9300000000001</ele>
        <time>2025-05-12T08:44:36Z</time>
      </trkpt>
      <trkpt lat="36.969534019008279" lon="-3.190709995105863">
        <ele>1221.97</ele>
        <time>2025-05-12T08:44:37Z</time>
      </trkpt>
      <trkpt lat="36.969595039263368" lon="-3.190648974850774">
        <ele>1221.01</ele>
        <time>2025-05-12T08:44:38Z</time>
      </trkpt>
      <trkpt lat="36.969725964590907" lon="-3.190604969859123">
        <ele>1220.05</ele>
        <time>2025-05-12T08:44:39Z</time>
      </trkpt>
      <trkpt lat="36.969853034242988" lon="-3.190562976524234">
        <ele>1219.0899999999999</ele>
        <time>2025-05-12T08:44:40Z</time>
      </trkpt>
      <trkpt lat="36.969918999820948" lon="-3.190577980130911">
        <ele>1218.6099999999999</ele>
        <time>2025-05-12T08:44:41Z</time>
      </trkpt>
      <trkpt lat="36.970022013410926" lon="-3.190602036193013">
        <ele>1217.6500000000001</ele>
        <time>2025-05-12T08:44:42Z</time>
      </trkpt>
      <trkpt lat="36.970460973680019" lon="-3.190684011206031">
        <ele>1214.28</ele>
        <time>2025-05-12T08:44:46Z</time>
      </trkpt>
      <trkpt lat="36.970560969784856" lon="-3.190670013427734">
        <ele>1213.3199999999999</ele>
        <time>2025-05-12T08:44:47Z</time>
      </trkpt>
      <trkpt lat="36.970628025010228" lon="-3.19057697430253">
        <ele>1212.3599999999999</ele>
        <time>2025-05-12T08:44:48Z</time>
      </trkpt>
      <trkpt lat="36.970673035830259" lon="-3.190448982641101">
        <ele>1211.4000000000001</ele>
        <time>2025-05-12T08:44:49Z</time>
      </trkpt>
      <trkpt lat="36.970720980316401" lon="-3.190310010686517">
        <ele>1209.96</ele>
        <time>2025-05-12T08:44:50Z</time>
      </trkpt>
      <trkpt lat="36.970775965601206" lon="-3.190155029296875">
        <ele>1209</ele>
        <time>2025-05-12T08:44:51Z</time>
      </trkpt>
      <trkpt lat="36.97086900472641" lon="-3.190041035413742">
        <ele>1208.03</ele>
        <time>2025-05-12T08:44:52Z</time>
      </trkpt>
      <trkpt lat="36.97097604162991" lon="-3.189911032095552">
        <ele>1207.0699999999999</ele>
        <time>2025-05-12T08:44:53Z</time>
      </trkpt>
      <trkpt lat="36.971410978585482" lon="-3.189444998279214">
        <ele>1202.75</ele>
        <time>2025-05-12T08:44:57Z</time>
      </trkpt>
      <trkpt lat="36.971497982740402" lon="-3.189333016052842">
        <ele>1202.27</ele>
        <time>2025-05-12T08:44:58Z</time>
      </trkpt>
      <trkpt lat="36.971651036292315" lon="-3.18913402967155">
        <ele>1200.8199999999999</ele>
        <time>2025-05-12T08:45:00Z</time>
      </trkpt>
      <trkpt lat="36.971740974113345" lon="-3.189018024131656">
        <ele>1200.3399999999999</ele>
        <time>2025-05-12T08:45:01Z</time>
      </trkpt>
      <trkpt lat="36.971812974661589" lon="-3.188972007483244">
        <ele>1199.8599999999999</ele>
        <time>2025-05-12T08:45:02Z</time>
      </trkpt>
      <trkpt lat="36.97241404093802" lon="-3.18857797421515">
        <ele>1195.0599999999999</ele>
        <time>2025-05-12T08:45:07Z</time>
      </trkpt>
      <trkpt lat="36.972499033436179" lon="-3.188456017524004">
        <ele>1194.0899999999999</ele>
        <time>2025-05-12T08:45:08Z</time>
      </trkpt>
      <trkpt lat="36.972578996792436" lon="-3.188333977013826">
        <ele>1193.1300000000001</ele>
        <time>2025-05-12T08:45:09Z</time>
      </trkpt>
      <trkpt lat="36.972650997340679" lon="-3.188209002837539">
        <ele>1192.6500000000001</ele>
        <time>2025-05-12T08:45:10Z</time>
      </trkpt>
      <trkpt lat="36.972728027030826" lon="-3.188073970377445">
        <ele>1191.21</ele>
        <time>2025-05-12T08:45:11Z</time>
      </trkpt>
      <trkpt lat="36.972835985943675" lon="-3.187984032556415">
        <ele>1189.77</ele>
        <time>2025-05-12T08:45:12Z</time>
      </trkpt>
      <trkpt lat="36.972960960119963" lon="-3.187879007309675">
        <ele>1188.3299999999999</ele>
        <time>2025-05-12T08:45:13Z</time>
      </trkpt>
      <trkpt lat="36.973112002015114" lon="-3.187788985669613">
        <ele>1186.8800000000001</ele>
        <time>2025-05-12T08:45:14Z</time>
      </trkpt>
      <trkpt lat="36.973580969497561" lon="-3.187527973204851">
        <ele>1183.52</ele>
        <time>2025-05-12T08:45:17Z</time>
      </trkpt>
      <trkpt lat="36.974154962226748" lon="-3.18722203373909">
        <ele>1180.6400000000001</ele>
        <time>2025-05-12T08:45:21Z</time>
      </trkpt>
      <trkpt lat="36.974277002736926" lon="-3.187140980735421">
        <ele>1180.1600000000001</ele>
        <time>2025-05-12T08:45:22Z</time>
      </trkpt>
      <trkpt lat="36.974386973306537" lon="-3.187056994065642">
        <ele>1179.6700000000001</ele>
        <time>2025-05-12T08:45:23Z</time>
      </trkpt>
      <trkpt lat="36.974482024088502" lon="-3.186983987689018">
        <ele>1179.1900000000001</ele>
        <time>2025-05-12T08:45:24Z</time>
      </trkpt>
      <trkpt lat="36.97454103268683" lon="-3.186894971877337">
        <ele>1178.71</ele>
        <time>2025-05-12T08:45:25Z</time>
      </trkpt>
      <trkpt lat="36.974595012143254" lon="-3.186807967722416">
        <ele>1178.23</ele>
        <time>2025-05-12T08:45:26Z</time>
      </trkpt>
      <trkpt lat="36.9745840318501" lon="-3.186720963567495">
        <ele>1177.75</ele>
        <time>2025-05-12T08:45:27Z</time>
      </trkpt>
      <trkpt lat="36.974573973566294" lon="-3.186635971069336">
        <ele>1177.27</ele>
        <time>2025-05-12T08:45:28Z</time>
      </trkpt>
      <trkpt lat="36.974573973566294" lon="-3.186635971069336">
        <ele>1176.79</ele>
        <time>2025-05-12T08:45:29Z</time>
      </trkpt>
      <trkpt lat="36.974461991339922" lon="-3.186649968847632">
        <ele>1176.3099999999999</ele>
        <time>2025-05-12T08:45:30Z</time>
      </trkpt>
      <trkpt lat="36.974401976913214" lon="-3.186657009646297">
        <ele>1175.8299999999999</ele>
        <time>2025-05-12T08:45:31Z</time>
      </trkpt>
      <trkpt lat="36.974342968314886" lon="-3.186759017407894">
        <ele>1175.3499999999999</ele>
        <time>2025-05-12T08:45:32Z</time>
      </trkpt>
      <trkpt lat="36.974280020222068" lon="-3.186866976320744">
        <ele>1174.3900000000001</ele>
        <time>2025-05-12T08:45:33Z</time>
      </trkpt>
      <trkpt lat="36.974193016067147" lon="-3.186967978253961">
        <ele>1173.9100000000001</ele>
        <time>2025-05-12T08:45:34Z</time>
      </trkpt>
      <trkpt lat="36.974096037447453" lon="-3.187053976580501">
        <ele>1173.4300000000001</ele>
        <time>2025-05-12T08:45:35Z</time>
      </trkpt>
      <trkpt lat="36.973958993330598" lon="-3.187122959643602">
        <ele>1172.95</ele>
        <time>2025-05-12T08:45:36Z</time>
      </trkpt>
      <trkpt lat="36.97381298057735" lon="-3.187171993777156">
        <ele>1172.47</ele>
        <time>2025-05-12T08:45:37Z</time>
      </trkpt>
      <trkpt lat="36.973668979480863" lon="-3.187171993777156">
        <ele>1171.98</ele>
        <time>2025-05-12T08:45:38Z</time>
      </trkpt>
      <trkpt lat="36.973365973681211" lon="-3.18720200099051">
        <ele>1171.02</ele>
        <time>2025-05-12T08:45:40Z</time>
      </trkpt>
      <trkpt lat="36.973046958446503" lon="-3.187297973781824">
        <ele>1169.0999999999999</ele>
        <time>2025-05-12T08:45:42Z</time>
      </trkpt>
      <trkpt lat="36.972733978182077" lon="-3.187386989593506">
        <ele>1167.1800000000001</ele>
        <time>2025-05-12T08:45:44Z</time>
      </trkpt>
      <trkpt lat="36.972596012055874" lon="-3.187386989593506">
        <ele>1166.22</ele>
        <time>2025-05-12T08:45:45Z</time>
      </trkpt>
      <trkpt lat="36.972212037071586" lon="-3.187405010685325">
        <ele>1163.8099999999999</ele>
        <time>2025-05-12T08:45:48Z</time>
      </trkpt>
      <trkpt lat="36.972121009603143" lon="-3.187435017898679">
        <ele>1162.8499999999999</ele>
        <time>2025-05-12T08:45:49Z</time>
      </trkpt>
      <trkpt lat="36.972032999619842" lon="-3.187520010396838">
        <ele>1162.3699999999999</ele>
        <time>2025-05-12T08:45:50Z</time>
      </trkpt>
      <trkpt lat="36.971940966323018" lon="-3.187608020380139">
        <ele>1161.4100000000001</ele>
        <time>2025-05-12T08:45:51Z</time>
      </trkpt>
      <trkpt lat="36.971837030723691" lon="-3.187708016484976">
        <ele>1160.9300000000001</ele>
        <time>2025-05-12T08:45:52Z</time>
      </trkpt>
      <trkpt lat="36.971721025183797" lon="-3.187818992882967">
        <ele>1160.45</ele>
        <time>2025-05-12T08:45:53Z</time>
      </trkpt>
      <trkpt lat="36.971594039350748" lon="-3.187928963452578">
        <ele>1159.49</ele>
        <time>2025-05-12T08:45:54Z</time>
      </trkpt>
      <trkpt lat="36.971465963870287" lon="-3.187965005636215">
        <ele>1158.53</ele>
        <time>2025-05-12T08:45:55Z</time>
      </trkpt>
      <trkpt lat="36.971368985250592" lon="-3.187947990372777">
        <ele>1157.0799999999999</ele>
        <time>2025-05-12T08:45:56Z</time>
      </trkpt>
      <trkpt lat="36.971288016065955" lon="-3.187893005087972">
        <ele>1156.1199999999999</ele>
        <time>2025-05-12T08:45:57Z</time>
      </trkpt>
      <trkpt lat="36.97119397111237" lon="-3.187822010368109">
        <ele>1155.1600000000001</ele>
        <time>2025-05-12T08:45:58Z</time>
      </trkpt>
      <trkpt lat="36.971099004149437" lon="-3.187749003991485">
        <ele>1153.72</ele>
        <time>2025-05-12T08:45:59Z</time>
      </trkpt>
      <trkpt lat="36.971007976680994" lon="-3.187680020928383">
        <ele>1152.76</ele>
        <time>2025-05-12T08:46:00Z</time>
      </trkpt>
      <trkpt lat="36.970904041081667" lon="-3.187691001221538">
        <ele>1151.8</ele>
        <time>2025-05-12T08:46:01Z</time>
      </trkpt>
      <trkpt lat="36.970809996128082" lon="-3.187718996778131">
        <ele>1150.8399999999999</ele>
        <time>2025-05-12T08:46:02Z</time>
      </trkpt>
      <trkpt lat="36.970714023336768" lon="-3.187746992334724">
        <ele>1149.3900000000001</ele>
        <time>2025-05-12T08:46:03Z</time>
      </trkpt>
      <trkpt lat="36.970625007525086" lon="-3.187772976234555">
        <ele>1148.9100000000001</ele>
        <time>2025-05-12T08:46:04Z</time>
      </trkpt>
      <trkpt lat="36.970540015026927" lon="-3.187729977071285">
        <ele>1148.4300000000001</ele>
        <time>2025-05-12T08:46:05Z</time>
      </trkpt>
      <trkpt lat="36.970496010035276" lon="-3.187657976523042">
        <ele>1148.9100000000001</ele>
        <time>2025-05-12T08:46:06Z</time>
      </trkpt>
      <trkpt lat="36.970477988943458" lon="-3.187603997066617">
        <ele>1149.3900000000001</ele>
        <time>2025-05-12T08:46:07Z</time>
      </trkpt>
      <trkpt lat="36.970491986721754" lon="-3.187506012618542">
        <ele>1149.3900000000001</ele>
        <time>2025-05-12T08:46:08Z</time>
      </trkpt>
      <trkpt lat="36.970535991713405" lon="-3.187441974878311">
        <ele>1148.9100000000001</ele>
        <time>2025-05-12T08:46:09Z</time>
      </trkpt>
      <trkpt lat="36.97061100974679" lon="-3.187384977936745">
        <ele>1148.9100000000001</ele>
        <time>2025-05-12T08:46:10Z</time>
      </trkpt>
      <trkpt lat="36.970703965052962" lon="-3.187357988208532">
        <ele>1147.95</ele>
        <time>2025-05-12T08:46:11Z</time>
      </trkpt>
      <trkpt lat="36.97080597281456" lon="-3.187357988208532">
        <ele>1147.47</ele>
        <time>2025-05-12T08:46:12Z</time>
      </trkpt>
      <trkpt lat="36.970921978354454" lon="-3.187387995421886">
        <ele>1146.51</ele>
        <time>2025-05-12T08:46:13Z</time>
      </trkpt>
      <trkpt lat="36.97104200720787" lon="-3.187420014292002">
        <ele>1145.0699999999999</ele>
        <time>2025-05-12T08:46:14Z</time>
      </trkpt>
      <trkpt lat="36.971162036061287" lon="-3.187451027333736">
        <ele>1143.6300000000001</ele>
        <time>2025-05-12T08:46:15Z</time>
      </trkpt>
      <trkpt lat="36.9712770357728" lon="-3.187451027333736">
        <ele>1141.7</ele>
        <time>2025-05-12T08:46:16Z</time>
      </trkpt>
      <trkpt lat="36.971374014392495" lon="-3.187410039827228">
        <ele>1139.3</ele>
        <time>2025-05-12T08:46:17Z</time>
      </trkpt>
      <trkpt lat="36.971452971920371" lon="-3.187329992651939">
        <ele>1137.3800000000001</ele>
        <time>2025-05-12T08:46:18Z</time>
      </trkpt>
      <trkpt lat="36.971495971083641" lon="-3.187211975455284">
        <ele>1135.45</ele>
        <time>2025-05-12T08:46:19Z</time>
      </trkpt>
      <trkpt lat="36.971521032974124" lon="-3.187091024592519">
        <ele>1133.53</ele>
        <time>2025-05-12T08:46:20Z</time>
      </trkpt>
      <trkpt lat="36.971498988568783" lon="-3.186950040981174">
        <ele>1132.0899999999999</ele>
        <time>2025-05-12T08:46:21Z</time>
      </trkpt>
      <trkpt lat="36.971476022154093" lon="-3.186804028227925">
        <ele>1130.1700000000001</ele>
        <time>2025-05-12T08:46:22Z</time>
      </trkpt>
      <trkpt lat="36.971229007467628" lon="-3.185221021994948">
        <ele>1121.03</ele>
        <time>2025-05-12T08:46:32Z</time>
      </trkpt>
      <trkpt lat="36.971179973334074" lon="-3.184909969568253">
        <ele>1120.0699999999999</ele>
        <time>2025-05-12T08:46:34Z</time>
      </trkpt>
      <trkpt lat="36.9711509719491" lon="-3.184768985956907">
        <ele>1119.1099999999999</ele>
        <time>2025-05-12T08:46:35Z</time>
      </trkpt>
      <trkpt lat="36.971076037734747" lon="-3.184619033709168">
        <ele>1119.1099999999999</ele>
        <time>2025-05-12T08:46:36Z</time>
      </trkpt>
      <trkpt lat="36.970992973074317" lon="-3.184535969048739">
        <ele>1118.6300000000001</ele>
        <time>2025-05-12T08:46:37Z</time>
      </trkpt>
      <trkpt lat="36.970867998898029" lon="-3.184468997642398">
        <ele>1118.1500000000001</ele>
        <time>2025-05-12T08:46:38Z</time>
      </trkpt>
      <trkpt lat="36.970744030550122" lon="-3.184434967115521">
        <ele>1118.1500000000001</ele>
        <time>2025-05-12T08:46:39Z</time>
      </trkpt>
      <trkpt lat="36.970583014190197" lon="-3.18445198237896">
        <ele>1118.6300000000001</ele>
        <time>2025-05-12T08:46:40Z</time>
      </trkpt>
      <trkpt lat="36.970429960638285" lon="-3.184484001249075">
        <ele>1119.5899999999999</ele>
        <time>2025-05-12T08:46:41Z</time>
      </trkpt>
      <trkpt lat="36.970122009515762" lon="-3.184540998190641">
        <ele>1121.03</ele>
        <time>2025-05-12T08:46:43Z</time>
      </trkpt>
      <trkpt lat="36.969980020076036" lon="-3.184553990140557">
        <ele>1122</ele>
        <time>2025-05-12T08:46:44Z</time>
      </trkpt>
      <trkpt lat="36.969862002879381" lon="-3.184477966278791">
        <ele>1122.48</ele>
        <time>2025-05-12T08:46:45Z</time>
      </trkpt>
      <trkpt lat="36.969731999561191" lon="-3.184388028457761">
        <ele>1122.96</ele>
        <time>2025-05-12T08:46:46Z</time>
      </trkpt>
      <trkpt lat="36.969637032598257" lon="-3.184264982119203">
        <ele>1123.4400000000001</ele>
        <time>2025-05-12T08:46:47Z</time>
      </trkpt>
      <trkpt lat="36.969564026221633" lon="-3.184121986851096">
        <ele>1124.4000000000001</ele>
        <time>2025-05-12T08:46:48Z</time>
      </trkpt>
      <trkpt lat="36.969510968774557" lon="-3.183968011289835">
        <ele>1124.8800000000001</ele>
        <time>2025-05-12T08:46:49Z</time>
      </trkpt>
      <trkpt lat="36.969460006803274" lon="-3.183821998536587">
        <ele>1125.8399999999999</ele>
        <time>2025-05-12T08:46:50Z</time>
      </trkpt>
      <trkpt lat="36.969416001811624" lon="-3.183711022138596">
        <ele>1126.8</ele>
        <time>2025-05-12T08:46:51Z</time>
      </trkpt>
      <trkpt lat="36.969322962686419" lon="-3.183630974963307">
        <ele>1127.28</ele>
        <time>2025-05-12T08:46:52Z</time>
      </trkpt>
      <trkpt lat="36.969231013208628" lon="-3.183594010770321">
        <ele>1128.24</ele>
        <time>2025-05-12T08:46:53Z</time>
      </trkpt>
      <trkpt lat="36.969079971313477" lon="-3.183610020205379">
        <ele>1129.21</ele>
        <time>2025-05-12T08:46:54Z</time>
      </trkpt>
      <trkpt lat="36.96897704154253" lon="-3.1836589705199">
        <ele>1130.6500000000001</ele>
        <time>2025-05-12T08:46:55Z</time>
      </trkpt>
      <trkpt lat="36.96882700547576" lon="-3.183728959411383">
        <ele>1132.5699999999999</ele>
        <time>2025-05-12T08:46:56Z</time>
      </trkpt>
      <trkpt lat="36.968038016930223" lon="-3.184057027101517">
        <ele>1140.26</ele>
        <time>2025-05-12T08:47:01Z</time>
      </trkpt>
      <trkpt lat="36.967886975035071" lon="-3.184067001566291">
        <ele>1141.22</ele>
        <time>2025-05-12T08:47:02Z</time>
      </trkpt>
      <trkpt lat="36.967726964503527" lon="-3.184034982696176">
        <ele>1142.1800000000001</ele>
        <time>2025-05-12T08:47:03Z</time>
      </trkpt>
      <trkpt lat="36.967557985335588" lon="-3.184001035988331">
        <ele>1143.1400000000001</ele>
        <time>2025-05-12T08:47:04Z</time>
      </trkpt>
      <trkpt lat="36.967390011996031" lon="-3.183968011289835">
        <ele>1144.5899999999999</ele>
        <time>2025-05-12T08:47:05Z</time>
      </trkpt>
      <trkpt lat="36.967232013121247" lon="-3.18393599241972">
        <ele>1145.55</ele>
        <time>2025-05-12T08:47:06Z</time>
      </trkpt>
      <trkpt lat="36.967080971226096" lon="-3.183905985206366">
        <ele>1146.99</ele>
        <time>2025-05-12T08:47:07Z</time>
      </trkpt>
      <trkpt lat="36.96693797595799" lon="-3.183858962729573">
        <ele>1147.95</ele>
        <time>2025-05-12T08:47:08Z</time>
      </trkpt>
      <trkpt lat="36.966784000396729" lon="-3.183782016858459">
        <ele>1148.9100000000001</ele>
        <time>2025-05-12T08:47:09Z</time>
      </trkpt>
      <trkpt lat="36.966675035655499" lon="-3.18369803018868">
        <ele>1149.8699999999999</ele>
        <time>2025-05-12T08:47:10Z</time>
      </trkpt>
      <trkpt lat="36.966552995145321" lon="-3.183603985235095">
        <ele>1150.8399999999999</ele>
        <time>2025-05-12T08:47:11Z</time>
      </trkpt>
      <trkpt lat="36.966431960463524" lon="-3.183568026870489">
        <ele>1151.8</ele>
        <time>2025-05-12T08:47:12Z</time>
      </trkpt>
      <trkpt lat="36.966302962973714" lon="-3.183568026870489">
        <ele>1151.8</ele>
        <time>2025-05-12T08:47:13Z</time>
      </trkpt>
      <trkpt lat="36.966180000454187" lon="-3.183568026870489">
        <ele>1152.28</ele>
        <time>2025-05-12T08:47:14Z</time>
      </trkpt>
      <trkpt lat="36.966075981035829" lon="-3.183568026870489">
        <ele>1153.24</ele>
        <time>2025-05-12T08:47:15Z</time>
      </trkpt>
      <trkpt lat="36.965979002416134" lon="-3.183501977473497">
        <ele>1153.24</ele>
        <time>2025-05-12T08:47:16Z</time>
      </trkpt>
      <trkpt lat="36.965923011302948" lon="-3.183412961661816">
        <ele>1153.72</ele>
        <time>2025-05-12T08:47:17Z</time>
      </trkpt>
      <trkpt lat="36.965873977169394" lon="-3.183272983878851">
        <ele>1154.2</ele>
        <time>2025-05-12T08:47:18Z</time>
      </trkpt>
      <trkpt lat="36.965813962742686" lon="-3.183104004710913">
        <ele>1154.6800000000001</ele>
        <time>2025-05-12T08:47:19Z</time>
      </trkpt>
      <trkpt lat="36.965746991336346" lon="-3.182913986966014">
        <ele>1154.6800000000001</ele>
        <time>2025-05-12T08:47:20Z</time>
      </trkpt>
      <trkpt lat="36.965657975524664" lon="-3.182706031948328">
        <ele>1154.2</ele>
        <time>2025-05-12T08:47:21Z</time>
      </trkpt>
      <trkpt lat="36.965527972206473" lon="-3.18251702003181">
        <ele>1153.72</ele>
        <time>2025-05-12T08:47:22Z</time>
      </trkpt>
      <trkpt lat="36.964867981150746" lon="-3.181559974327683">
        <ele>1154.2</ele>
        <time>2025-05-12T08:47:27Z</time>
      </trkpt>
      <trkpt lat="36.964723980054259" lon="-3.181471964344382">
        <ele>1154.2</ele>
        <time>2025-05-12T08:47:28Z</time>
      </trkpt>
      <trkpt lat="36.964570004492998" lon="-3.181419996544719">
        <ele>1154.6800000000001</ele>
        <time>2025-05-12T08:47:29Z</time>
      </trkpt>
      <trkpt lat="36.964403036981821" lon="-3.181365011259913">
        <ele>1155.6400000000001</ele>
        <time>2025-05-12T08:47:30Z</time>
      </trkpt>
      <trkpt lat="36.96423003450036" lon="-3.181322012096643">
        <ele>1156.1199999999999</ele>
        <time>2025-05-12T08:47:31Z</time>
      </trkpt>
      <trkpt lat="36.96380197070539" lon="-3.1812500115484">
        <ele>1157.0799999999999</ele>
        <time>2025-05-12T08:47:34Z</time>
      </trkpt>
      <trkpt lat="36.963699040934443" lon="-3.181148003786802">
        <ele>1157.5599999999999</ele>
        <time>2025-05-12T08:47:35Z</time>
      </trkpt>
      <trkpt lat="36.963636009022593" lon="-3.181063011288643">
        <ele>1157.5599999999999</ele>
        <time>2025-05-12T08:47:36Z</time>
      </trkpt>
      <trkpt lat="36.963581023737788" lon="-3.180935019627214">
        <ele>1157.5599999999999</ele>
        <time>2025-05-12T08:47:37Z</time>
      </trkpt>
      <trkpt lat="36.963520003482699" lon="-3.180793030187488">
        <ele>1158.05</ele>
        <time>2025-05-12T08:47:38Z</time>
      </trkpt>
      <trkpt lat="36.963312970474362" lon="-3.180368989706039">
        <ele>1159.01</ele>
        <time>2025-05-12T08:47:41Z</time>
      </trkpt>
      <trkpt lat="36.963230995461345" lon="-3.180236974731088">
        <ele>1159.97</ele>
        <time>2025-05-12T08:47:42Z</time>
      </trkpt>
      <trkpt lat="36.963151032105088" lon="-3.180109988898039">
        <ele>1160.45</ele>
        <time>2025-05-12T08:47:43Z</time>
      </trkpt>
      <trkpt lat="36.9630709849298" lon="-3.179979985579848">
        <ele>1161.4100000000001</ele>
        <time>2025-05-12T08:47:44Z</time>
      </trkpt>
      <trkpt lat="36.963023040443659" lon="-3.17981000058353">
        <ele>1161.8900000000001</ele>
        <time>2025-05-12T08:47:45Z</time>
      </trkpt>
      <trkpt lat="36.962980963289738" lon="-3.179630963131785">
        <ele>1162.8499999999999</ele>
        <time>2025-05-12T08:47:46Z</time>
      </trkpt>
      <trkpt lat="36.962963026016951" lon="-3.179461983963847">
        <ele>1163.3299999999999</ele>
        <time>2025-05-12T08:47:47Z</time>
      </trkpt>
      <trkpt lat="36.962947016581893" lon="-3.179310020059347">
        <ele>1163.8099999999999</ele>
        <time>2025-05-12T08:47:48Z</time>
      </trkpt>
      <trkpt lat="36.962974006310105" lon="-3.179161995649338">
        <ele>1163.8099999999999</ele>
        <time>2025-05-12T08:47:49Z</time>
      </trkpt>
      <trkpt lat="36.963114989921451" lon="-3.178676012903452">
        <ele>1163.3299999999999</ele>
        <time>2025-05-12T08:47:52Z</time>
      </trkpt>
      <trkpt lat="36.963166035711765" lon="-3.178522037342191">
        <ele>1163.8099999999999</ele>
        <time>2025-05-12T08:47:53Z</time>
      </trkpt>
      <trkpt lat="36.963213980197906" lon="-3.178378958255053">
        <ele>1163.8099999999999</ele>
        <time>2025-05-12T08:47:54Z</time>
      </trkpt>
      <trkpt lat="36.963238958269358" lon="-3.178232023492456">
        <ele>1163.8099999999999</ele>
        <time>2025-05-12T08:47:55Z</time>
      </trkpt>
      <trkpt lat="36.963225966319442" lon="-3.17809103988111">
        <ele>1163.8099999999999</ele>
        <time>2025-05-12T08:47:56Z</time>
      </trkpt>
      <trkpt lat="36.963168969377875" lon="-3.177947038784623">
        <ele>1163.8099999999999</ele>
        <time>2025-05-12T08:47:57Z</time>
      </trkpt>
      <trkpt lat="36.963092023506761" lon="-3.177811000496149">
        <ele>1163.3299999999999</ele>
        <time>2025-05-12T08:47:58Z</time>
      </trkpt>
      <trkpt lat="36.963004013523459" lon="-3.177673034369946">
        <ele>1163.3299999999999</ele>
        <time>2025-05-12T08:47:59Z</time>
      </trkpt>
      <trkpt lat="36.962922038510442" lon="-3.177516041323543">
        <ele>1163.8099999999999</ele>
        <time>2025-05-12T08:48:00Z</time>
      </trkpt>
      <trkpt lat="36.962837968021631" lon="-3.177347984164953">
        <ele>1163.8099999999999</ele>
        <time>2025-05-12T08:48:01Z</time>
      </trkpt>
      <trkpt lat="36.962737971916795" lon="-3.177203983068466">
        <ele>1163.8099999999999</ele>
        <time>2025-05-12T08:48:02Z</time>
      </trkpt>
      <trkpt lat="36.962625989690423" lon="-3.177092000842094">
        <ele>1163.8099999999999</ele>
        <time>2025-05-12T08:48:03Z</time>
      </trkpt>
      <trkpt lat="36.962520964443684" lon="-3.176985969766974">
        <ele>1164.29</ele>
        <time>2025-05-12T08:48:04Z</time>
      </trkpt>
      <trkpt lat="36.962410993874073" lon="-3.176913969218731">
        <ele>1164.29</ele>
        <time>2025-05-12T08:48:05Z</time>
      </trkpt>
      <trkpt lat="36.96229599416256" lon="-3.176871975883842">
        <ele>1164.77</ele>
        <time>2025-05-12T08:48:06Z</time>
      </trkpt>
      <trkpt lat="36.962189041078091" lon="-3.176830988377333">
        <ele>1165.26</ele>
        <time>2025-05-12T08:48:07Z</time>
      </trkpt>
      <trkpt lat="36.962091978639364" lon="-3.176795030012727">
        <ele>1165.74</ele>
        <time>2025-05-12T08:48:08Z</time>
      </trkpt>
      <trkpt lat="36.962012015283108" lon="-3.176765022799373">
        <ele>1165.74</ele>
        <time>2025-05-12T08:48:09Z</time>
      </trkpt>
      <trkpt lat="36.961950995028019" lon="-3.176741972565651">
        <ele>1166.22</ele>
        <time>2025-05-12T08:48:10Z</time>
      </trkpt>
      <trkpt lat="36.961864996701479" lon="-3.176710037514567">
        <ele>1166.22</ele>
        <time>2025-05-12T08:48:12Z</time>
      </trkpt>
      <trkpt lat="36.961788972839713" lon="-3.176634013652802">
        <ele>1166.7</ele>
        <time>2025-05-12T08:48:13Z</time>
      </trkpt>
      <trkpt lat="36.961797019466758" lon="-3.176547009497881">
        <ele>1166.7</ele>
        <time>2025-05-12T08:48:14Z</time>
      </trkpt>
      <trkpt lat="36.961805988103151" lon="-3.176443995907903">
        <ele>1167.1800000000001</ele>
        <time>2025-05-12T08:48:15Z</time>
      </trkpt>
      <trkpt lat="36.961791990324855" lon="-3.176327990368009">
        <ele>1167.1800000000001</ele>
        <time>2025-05-12T08:48:16Z</time>
      </trkpt>
      <trkpt lat="36.961745973676443" lon="-3.17620100453496">
        <ele>1167.6600000000001</ele>
        <time>2025-05-12T08:48:17Z</time>
      </trkpt>
      <trkpt lat="36.961679002270103" lon="-3.176077958196402">
        <ele>1168.1400000000001</ele>
        <time>2025-05-12T08:48:18Z</time>
      </trkpt>
      <trkpt lat="36.961602978408337" lon="-3.175951978191733">
        <ele>1168.6199999999999</ele>
        <time>2025-05-12T08:48:19Z</time>
      </trkpt>
      <trkpt lat="36.9615220092237" lon="-3.175825998187065">
        <ele>1169.0999999999999</ele>
        <time>2025-05-12T08:48:20Z</time>
      </trkpt>
      <trkpt lat="36.961473980918527" lon="-3.17566498182714">
        <ele>1170.0599999999999</ele>
        <time>2025-05-12T08:48:21Z</time>
      </trkpt>
      <trkpt lat="36.961432993412018" lon="-3.175493991002441">
        <ele>1170.54</ele>
        <time>2025-05-12T08:48:22Z</time>
      </trkpt>
      <trkpt lat="36.961391000077128" lon="-3.175315959379077">
        <ele>1171.5</ele>
        <time>2025-05-12T08:48:23Z</time>
      </trkpt>
      <trkpt lat="36.961349006742239" lon="-3.175143040716648">
        <ele>1172.47</ele>
        <time>2025-05-12T08:48:24Z</time>
      </trkpt>
      <trkpt lat="36.961291003972292" lon="-3.174845986068249">
        <ele>1173.9100000000001</ele>
        <time>2025-05-12T08:48:26Z</time>
      </trkpt>
      <trkpt lat="36.961291003972292" lon="-3.174706008285284">
        <ele>1175.3499999999999</ele>
        <time>2025-05-12T08:48:27Z</time>
      </trkpt>
      <trkpt lat="36.961334003135562" lon="-3.174577010795474">
        <ele>1175.8299999999999</ele>
        <time>2025-05-12T08:48:28Z</time>
      </trkpt>
      <trkpt lat="36.961412038654089" lon="-3.174485983327031">
        <ele>1177.27</ele>
        <time>2025-05-12T08:48:29Z</time>
      </trkpt>
      <trkpt lat="36.961505999788642" lon="-3.174376012757421">
        <ele>1177.75</ele>
        <time>2025-05-12T08:48:30Z</time>
      </trkpt>
      <trkpt lat="36.961612030863762" lon="-3.174251960590482">
        <ele>1178.71</ele>
        <time>2025-05-12T08:48:31Z</time>
      </trkpt>
      <trkpt lat="36.961727030575275" lon="-3.174116006121039">
        <ele>1180.1600000000001</ele>
        <time>2025-05-12T08:48:32Z</time>
      </trkpt>
      <trkpt lat="36.96184697560966" lon="-3.173976028338075">
        <ele>1181.1199999999999</ele>
        <time>2025-05-12T08:48:33Z</time>
      </trkpt>
      <trkpt lat="36.962099019438028" lon="-3.173676040023565">
        <ele>1183.52</ele>
        <time>2025-05-12T08:48:35Z</time>
      </trkpt>
      <trkpt lat="36.962208990007639" lon="-3.173506977036595">
        <ele>1184.96</ele>
        <time>2025-05-12T08:48:36Z</time>
      </trkpt>
      <trkpt lat="36.962449969723821" lon="-3.173073967918754">
        <ele>1187.8499999999999</ele>
        <time>2025-05-12T08:48:39Z</time>
      </trkpt>
      <trkpt lat="36.962467990815639" lon="-3.172949999570847">
        <ele>1188.8099999999999</ele>
        <time>2025-05-12T08:48:40Z</time>
      </trkpt>
      <trkpt lat="36.962461033836007" lon="-3.172821002081037">
        <ele>1189.29</ele>
        <time>2025-05-12T08:48:41Z</time>
      </trkpt>
      <trkpt lat="36.962452987208962" lon="-3.172682030126452">
        <ele>1190.25</ele>
        <time>2025-05-12T08:48:42Z</time>
      </trkpt>
      <trkpt lat="36.96246899664402" lon="-3.172562001273036">
        <ele>1190.73</ele>
        <time>2025-05-12T08:48:43Z</time>
      </trkpt>
      <trkpt lat="36.962514007464051" lon="-3.172410037368536">
        <ele>1191.6900000000001</ele>
        <time>2025-05-12T08:48:44Z</time>
      </trkpt>
      <trkpt lat="36.962590031325817" lon="-3.172341976314783">
        <ele>1192.1700000000001</ele>
        <time>2025-05-12T08:48:45Z</time>
      </trkpt>
      <trkpt lat="36.962697990238667" lon="-3.172244997695088">
        <ele>1193.1300000000001</ele>
        <time>2025-05-12T08:48:46Z</time>
      </trkpt>
      <trkpt lat="36.962825981900096" lon="-3.172165034338832">
        <ele>1194.0899999999999</ele>
        <time>2025-05-12T08:48:47Z</time>
      </trkpt>
      <trkpt lat="36.962968977168202" lon="-3.172088004648686">
        <ele>1194.5799999999999</ele>
        <time>2025-05-12T08:48:48Z</time>
      </trkpt>
      <trkpt lat="36.963115995749831" lon="-3.172010974958539">
        <ele>1195.0599999999999</ele>
        <time>2025-05-12T08:48:49Z</time>
      </trkpt>
      <trkpt lat="36.963257985189557" lon="-3.171936040744185">
        <ele>1195.54</ele>
        <time>2025-05-12T08:48:50Z</time>
      </trkpt>
      <trkpt lat="36.96339201182127" lon="-3.171865968033671">
        <ele>1196.02</ele>
        <time>2025-05-12T08:48:51Z</time>
      </trkpt>
      <trkpt lat="36.9635009765625" lon="-3.171808971092105">
        <ele>1196.5</ele>
        <time>2025-05-12T08:48:52Z</time>
      </trkpt>
      <trkpt lat="36.963596027344465" lon="-3.171733031049371">
        <ele>1196.5</ele>
        <time>2025-05-12T08:48:53Z</time>
      </trkpt>
      <trkpt lat="36.963647995144129" lon="-3.17164502106607">
        <ele>1196.98</ele>
        <time>2025-05-12T08:48:54Z</time>
      </trkpt>
      <trkpt lat="36.963667022064328" lon="-3.171535972505808">
        <ele>1196.98</ele>
        <time>2025-05-12T08:48:55Z</time>
      </trkpt>
      <trkpt lat="36.963652018457651" lon="-3.171401023864746">
        <ele>1197.9400000000001</ele>
        <time>2025-05-12T08:48:56Z</time>
      </trkpt>
      <trkpt lat="36.963570965453982" lon="-3.171320976689458">
        <ele>1198.4200000000001</ele>
        <time>2025-05-12T08:48:57Z</time>
      </trkpt>
      <trkpt lat="36.963459989055991" lon="-3.17125903442502">
        <ele>1198.9000000000001</ele>
        <time>2025-05-12T08:48:58Z</time>
      </trkpt>
      <trkpt lat="36.963331997394562" lon="-3.171204971149564">
        <ele>1199.3800000000001</ele>
        <time>2025-05-12T08:48:59Z</time>
      </trkpt>
      <trkpt lat="36.963184978812933" lon="-3.171168006956577">
        <ele>1200.3399999999999</ele>
        <time>2025-05-12T08:49:00Z</time>
      </trkpt>
      <trkpt lat="36.963051036000252" lon="-3.171144034713507">
        <ele>1200.8199999999999</ele>
        <time>2025-05-12T08:49:01Z</time>
      </trkpt>
      <trkpt lat="36.962949028238654" lon="-3.171063987538219">
        <ele>1201.79</ele>
        <time>2025-05-12T08:49:02Z</time>
      </trkpt>
      <trkpt lat="36.962858000770211" lon="-3.170992992818356">
        <ele>1202.27</ele>
        <time>2025-05-12T08:49:03Z</time>
      </trkpt>
      <trkpt lat="36.962838973850012" lon="-3.170900959521532">
        <ele>1203.23</ele>
        <time>2025-05-12T08:49:04Z</time>
      </trkpt>
      <trkpt lat="36.962874010205269" lon="-3.170822001993656">
        <ele>1204.1900000000001</ele>
        <time>2025-05-12T08:49:05Z</time>
      </trkpt>
      <trkpt lat="36.962936036288738" lon="-3.170746983960271">
        <ele>1205.1500000000001</ele>
        <time>2025-05-12T08:49:06Z</time>
      </trkpt>
      <trkpt lat="36.963031003251672" lon="-3.170660985633731">
        <ele>1205.6300000000001</ele>
        <time>2025-05-12T08:49:07Z</time>
      </trkpt>
      <trkpt lat="36.963138040155172" lon="-3.170564007014036">
        <ele>1206.5899999999999</ele>
        <time>2025-05-12T08:49:08Z</time>
      </trkpt>
      <trkpt lat="36.96337197907269" lon="-3.170364014804363">
        <ele>1208.51</ele>
        <time>2025-05-12T08:49:10Z</time>
      </trkpt>
      <trkpt lat="36.963508017361164" lon="-3.170319003984332">
        <ele>1209</ele>
        <time>2025-05-12T08:49:11Z</time>
      </trkpt>
      <trkpt lat="36.963728964328766" lon="-3.170244991779327">
        <ele>1211.4000000000001</ele>
        <time>2025-05-12T08:49:13Z</time>
      </trkpt>
      <trkpt lat="36.963799959048629" lon="-3.17016402259469">
        <ele>1212.3599999999999</ele>
        <time>2025-05-12T08:49:14Z</time>
      </trkpt>
      <trkpt lat="36.963849999010563" lon="-3.170027984306216">
        <ele>1213.8</ele>
        <time>2025-05-12T08:49:15Z</time>
      </trkpt>
      <trkpt lat="36.963891992345452" lon="-3.169859005138278">
        <ele>1214.76</ele>
        <time>2025-05-12T08:49:16Z</time>
      </trkpt>
      <trkpt lat="36.963937003165483" lon="-3.169679967686534">
        <ele>1215.72</ele>
        <time>2025-05-12T08:49:17Z</time>
      </trkpt>
      <trkpt lat="36.964001040905714" lon="-3.169491039589047">
        <ele>1217.1700000000001</ele>
        <time>2025-05-12T08:49:18Z</time>
      </trkpt>
      <trkpt lat="36.964073963463306" lon="-3.169296998530626">
        <ele>1218.6099999999999</ele>
        <time>2025-05-12T08:49:19Z</time>
      </trkpt>
      <trkpt lat="36.964255012571812" lon="-3.168754018843174">
        <ele>1223.4200000000001</ele>
        <time>2025-05-12T08:49:22Z</time>
      </trkpt>
      <trkpt lat="36.964261969551444" lon="-3.16859501414001">
        <ele>1224.8599999999999</ele>
        <time>2025-05-12T08:49:23Z</time>
      </trkpt>
      <trkpt lat="36.96427202783525" lon="-3.168331990018487">
        <ele>1227.74</ele>
        <time>2025-05-12T08:49:25Z</time>
      </trkpt>
      <trkpt lat="36.964313015341759" lon="-3.168256971985102">
        <ele>1228.7</ele>
        <time>2025-05-12T08:49:26Z</time>
      </trkpt>
      <trkpt lat="36.964403036981821" lon="-3.168182037770748">
        <ele>1229.1800000000001</ele>
        <time>2025-05-12T08:49:27Z</time>
      </trkpt>
      <trkpt lat="36.964498003944755" lon="-3.168191006407142">
        <ele>1230.1400000000001</ele>
        <time>2025-05-12T08:49:28Z</time>
      </trkpt>
      <trkpt lat="36.964618032798171" lon="-3.168201986700296">
        <ele>1231.1099999999999</ele>
        <time>2025-05-12T08:49:29Z</time>
      </trkpt>
      <trkpt lat="36.964894970878959" lon="-3.168224031105638">
        <ele>1232.0699999999999</ele>
        <time>2025-05-12T08:49:31Z</time>
      </trkpt>
      <trkpt lat="36.965048024430871" lon="-3.168211961165071">
        <ele>1233.03</ele>
        <time>2025-05-12T08:49:32Z</time>
      </trkpt>
      <trkpt lat="36.965207029134035" lon="-3.168167034164071">
        <ele>1233.99</ele>
        <time>2025-05-12T08:49:33Z</time>
      </trkpt>
      <trkpt lat="36.965353963896632" lon="-3.168067038059235">
        <ele>1234.47</ele>
        <time>2025-05-12T08:49:34Z</time>
      </trkpt>
      <trkpt lat="36.965502994135022" lon="-3.167966036126018">
        <ele>1235.4300000000001</ele>
        <time>2025-05-12T08:49:35Z</time>
      </trkpt>
      <trkpt lat="36.96562604047358" lon="-3.167881965637207">
        <ele>1236.3900000000001</ele>
        <time>2025-05-12T08:49:36Z</time>
      </trkpt>
      <trkpt lat="36.965793007984757" lon="-3.167852964252234">
        <ele>1237.3499999999999</ele>
        <time>2025-05-12T08:49:37Z</time>
      </trkpt>
      <trkpt lat="36.965933991596103" lon="-3.167827986180782">
        <ele>1238.3199999999999</ele>
        <time>2025-05-12T08:49:38Z</time>
      </trkpt>
      <trkpt lat="36.966067012399435" lon="-3.167751962319017">
        <ele>1239.28</ele>
        <time>2025-05-12T08:49:39Z</time>
      </trkpt>
      <trkpt lat="36.966170025989413" lon="-3.167641991749406">
        <ele>1240.24</ele>
        <time>2025-05-12T08:49:40Z</time>
      </trkpt>
      <trkpt lat="36.966253006830812" lon="-3.167503019794822">
        <ele>1241.2</ele>
        <time>2025-05-12T08:49:41Z</time>
      </trkpt>
      <trkpt lat="36.966312015429139" lon="-3.167333034798503">
        <ele>1242.1600000000001</ele>
        <time>2025-05-12T08:49:42Z</time>
      </trkpt>
      <trkpt lat="36.966374041512609" lon="-3.167155003175139">
        <ele>1243.1199999999999</ele>
        <time>2025-05-12T08:49:43Z</time>
      </trkpt>
      <trkpt lat="36.966431960463524" lon="-3.166985018178821">
        <ele>1244.5599999999999</ele>
        <time>2025-05-12T08:49:44Z</time>
      </trkpt>
      <trkpt lat="36.966521982103586" lon="-3.166868006810546">
        <ele>1245.53</ele>
        <time>2025-05-12T08:49:45Z</time>
      </trkpt>
      <trkpt lat="36.96661401540041" lon="-3.166765999048948">
        <ele>1246.49</ele>
        <time>2025-05-12T08:49:46Z</time>
      </trkpt>
      <trkpt lat="36.96674301289022" lon="-3.166712019592524">
        <ele>1247.45</ele>
        <time>2025-05-12T08:49:47Z</time>
      </trkpt>
      <trkpt lat="36.966866981238127" lon="-3.166659967973828">
        <ele>1247.9300000000001</ele>
        <time>2025-05-12T08:49:48Z</time>
      </trkpt>
      <trkpt lat="36.96695800870657" lon="-3.166537005454302">
        <ele>1247.9300000000001</ele>
        <time>2025-05-12T08:49:49Z</time>
      </trkpt>
      <trkpt lat="36.967015005648136" lon="-3.166383029893041">
        <ele>1248.4100000000001</ele>
        <time>2025-05-12T08:49:50Z</time>
      </trkpt>
      <trkpt lat="36.967064961791039" lon="-3.166211033239961">
        <ele>1248.8900000000001</ele>
        <time>2025-05-12T08:49:51Z</time>
      </trkpt>
      <trkpt lat="36.967119025066495" lon="-3.166028978303075">
        <ele>1249.3699999999999</ele>
        <time>2025-05-12T08:49:52Z</time>
      </trkpt>
      <trkpt lat="36.9671740103513" lon="-3.165839966386557">
        <ele>1249.3699999999999</ele>
        <time>2025-05-12T08:49:53Z</time>
      </trkpt>
      <trkpt lat="36.967251962050796" lon="-3.165671993046999">
        <ele>1248.8900000000001</ele>
        <time>2025-05-12T08:49:54Z</time>
      </trkpt>
      <trkpt lat="36.967340977862477" lon="-3.165512988343835">
        <ele>1248.8900000000001</ele>
        <time>2025-05-12T08:49:55Z</time>
      </trkpt>
      <trkpt lat="36.967711038887501" lon="-3.164951987564564">
        <ele>1248.4100000000001</ele>
        <time>2025-05-12T08:50:01Z</time>
      </trkpt>
      <trkpt lat="36.96775303222239" lon="-3.164892978966236">
        <ele>1248.4100000000001</ele>
        <time>2025-05-12T08:50:02Z</time>
      </trkpt>
      <trkpt lat="36.967772981151938" lon="-3.164849979802966">
        <ele>1247.9300000000001</ele>
        <time>2025-05-12T08:50:03Z</time>
      </trkpt>
      <trkpt lat="36.967787984758615" lon="-3.164817960932851">
        <ele>1247.9300000000001</ele>
        <time>2025-05-12T08:50:04Z</time>
      </trkpt>
      <trkpt lat="36.967799970880151" lon="-3.164790971204639">
        <ele>1247.9300000000001</ele>
        <time>2025-05-12T08:50:05Z</time>
      </trkpt>
      <trkpt lat="36.967852022498846" lon="-3.164677983149886">
        <ele>1246.97</ele>
        <time>2025-05-12T08:50:15Z</time>
      </trkpt>
      <trkpt lat="36.967763006687164" lon="-3.164562983438373">
        <ele>1253.22</ele>
        <time>2025-05-12T08:55:21Z</time>
      </trkpt>
      <trkpt lat="36.967897033318877" lon="-3.164581004530191">
        <ele>1246.97</ele>
        <time>2025-05-12T08:55:49Z</time>
      </trkpt>
      <trkpt lat="36.967933997511864" lon="-3.164501963183284">
        <ele>1246.97</ele>
        <time>2025-05-12T08:55:51Z</time>
      </trkpt>
      <trkpt lat="36.967958975583315" lon="-3.164445972070098">
        <ele>1246.97</ele>
        <time>2025-05-12T08:55:52Z</time>
      </trkpt>
      <trkpt lat="36.96799099445343" lon="-3.164377994835377">
        <ele>1246.97</ele>
        <time>2025-05-12T08:55:53Z</time>
      </trkpt>
      <trkpt lat="36.96801102720201" lon="-3.164293002337217">
        <ele>1246.49</ele>
        <time>2025-05-12T08:55:54Z</time>
      </trkpt>
      <trkpt lat="36.968017984181643" lon="-3.164193006232381">
        <ele>1246.49</ele>
        <time>2025-05-12T08:55:55Z</time>
      </trkpt>
      <trkpt lat="36.968027036637068" lon="-3.164081024006009">
        <ele>1246.49</ele>
        <time>2025-05-12T08:55:56Z</time>
      </trkpt>
      <trkpt lat="36.968036005273461" lon="-3.163959989324212">
        <ele>1246.49</ele>
        <time>2025-05-12T08:55:57Z</time>
      </trkpt>
      <trkpt lat="36.968044973909855" lon="-3.163834009319544">
        <ele>1246.01</ele>
        <time>2025-05-12T08:55:58Z</time>
      </trkpt>
      <trkpt lat="36.96807598695159" lon="-3.163711968809366">
        <ele>1246.01</ele>
        <time>2025-05-12T08:55:59Z</time>
      </trkpt>
      <trkpt lat="36.968157961964607" lon="-3.163548018783331">
        <ele>1245.53</ele>
        <time>2025-05-12T08:56:00Z</time>
      </trkpt>
      <trkpt lat="36.968237003311515" lon="-3.163463026285172">
        <ele>1245.04</ele>
        <time>2025-05-12T08:56:01Z</time>
      </trkpt>
      <trkpt lat="36.968340016901493" lon="-3.163351966068149">
        <ele>1244.5599999999999</ele>
        <time>2025-05-12T08:56:02Z</time>
      </trkpt>
      <trkpt lat="36.968458034098148" lon="-3.16322598606348">
        <ele>1243.5999999999999</ele>
        <time>2025-05-12T08:56:03Z</time>
      </trkpt>
      <trkpt lat="36.968503966927528" lon="-3.1630730163306">
        <ele>1243.1199999999999</ele>
        <time>2025-05-12T08:56:04Z</time>
      </trkpt>
      <trkpt lat="36.968559036031365" lon="-3.162890961393714">
        <ele>1242.1600000000001</ele>
        <time>2025-05-12T08:56:05Z</time>
      </trkpt>
      <trkpt lat="36.968640005216002" lon="-3.162477985024452">
        <ele>1239.76</ele>
        <time>2025-05-12T08:56:07Z</time>
      </trkpt>
      <trkpt lat="36.968692978844047" lon="-3.161160014569759">
        <ele>1235.4300000000001</ele>
        <time>2025-05-12T08:56:13Z</time>
      </trkpt>
      <trkpt lat="36.968659032136202" lon="-3.16098902374506">
        <ele>1234.95</ele>
        <time>2025-05-12T08:56:14Z</time>
      </trkpt>
      <trkpt lat="36.968599017709494" lon="-3.16083999350667">
        <ele>1234.47</ele>
        <time>2025-05-12T08:56:15Z</time>
      </trkpt>
      <trkpt lat="36.968534979969263" lon="-3.160700015723705">
        <ele>1234.47</ele>
        <time>2025-05-12T08:56:16Z</time>
      </trkpt>
      <trkpt lat="36.968473037704825" lon="-3.160566994920373">
        <ele>1233.99</ele>
        <time>2025-05-12T08:56:17Z</time>
      </trkpt>
      <trkpt lat="36.968415034934878" lon="-3.160443026572466">
        <ele>1233.99</ele>
        <time>2025-05-12T08:56:18Z</time>
      </trkpt>
      <trkpt lat="36.968374969437718" lon="-3.160315034911037">
        <ele>1233.99</ele>
        <time>2025-05-12T08:56:19Z</time>
      </trkpt>
      <trkpt lat="36.968386033549905" lon="-3.160184025764465">
        <ele>1233.99</ele>
        <time>2025-05-12T08:56:20Z</time>
      </trkpt>
      <trkpt lat="36.968413023278117" lon="-3.160057961940765">
        <ele>1233.51</ele>
        <time>2025-05-12T08:56:21Z</time>
      </trkpt>
      <trkpt lat="36.968473037704825" lon="-3.159951008856297">
        <ele>1233.51</ele>
        <time>2025-05-12T08:56:22Z</time>
      </trkpt>
      <trkpt lat="36.968562975525856" lon="-3.15987297333777">
        <ele>1233.51</ele>
        <time>2025-05-12T08:56:23Z</time>
      </trkpt>
      <trkpt lat="36.968671018257737" lon="-3.159833997488022">
        <ele>1233.51</ele>
        <time>2025-05-12T08:56:24Z</time>
      </trkpt>
      <trkpt lat="36.968789035454392" lon="-3.159826034680009">
        <ele>1233.51</ele>
        <time>2025-05-12T08:56:25Z</time>
      </trkpt>
      <trkpt lat="36.968908980488777" lon="-3.159817988052964">
        <ele>1233.03</ele>
        <time>2025-05-12T08:56:26Z</time>
      </trkpt>
      <trkpt lat="36.970270033925772" lon="-3.159755961969495">
        <ele>1230.6199999999999</ele>
        <time>2025-05-12T08:56:36Z</time>
      </trkpt>
      <trkpt lat="36.970585025846958" lon="-3.159763002768159">
        <ele>1230.6199999999999</ele>
        <time>2025-05-12T08:56:38Z</time>
      </trkpt>
      <trkpt lat="36.971493037417531" lon="-3.160028960555792">
        <ele>1228.7</ele>
        <time>2025-05-12T08:56:44Z</time>
      </trkpt>
      <trkpt lat="36.971590016037226" lon="-3.160113031044602">
        <ele>1227.74</ele>
        <time>2025-05-12T08:56:45Z</time>
      </trkpt>
      <trkpt lat="36.971654975786805" lon="-3.160178996622562">
        <ele>1226.78</ele>
        <time>2025-05-12T08:56:46Z</time>
      </trkpt>
      <trkpt lat="36.971787996590137" lon="-3.160244962200522">
        <ele>1226.3</ele>
        <time>2025-05-12T08:56:47Z</time>
      </trkpt>
      <trkpt lat="36.971892016008496" lon="-3.160278992727399">
        <ele>1225.3399999999999</ele>
        <time>2025-05-12T08:56:48Z</time>
      </trkpt>
      <trkpt lat="36.971973991021514" lon="-3.160204980522394">
        <ele>1224.3800000000001</ele>
        <time>2025-05-12T08:56:49Z</time>
      </trkpt>
      <trkpt lat="36.972038028761744" lon="-3.16010900773108">
        <ele>1223.4200000000001</ele>
        <time>2025-05-12T08:56:50Z</time>
      </trkpt>
      <trkpt lat="36.97207298129797" lon="-3.160003982484341">
        <ele>1222.9300000000001</ele>
        <time>2025-05-12T08:56:51Z</time>
      </trkpt>
      <trkpt lat="36.97209401987493" lon="-3.15985101275146">
        <ele>1222.45</ele>
        <time>2025-05-12T08:56:52Z</time>
      </trkpt>
      <trkpt lat="36.972117992118001" lon="-3.159683961421251">
        <ele>1221.97</ele>
        <time>2025-05-12T08:56:53Z</time>
      </trkpt>
      <trkpt lat="36.972142970189452" lon="-3.159511964768171">
        <ele>1221.97</ele>
        <time>2025-05-12T08:56:54Z</time>
      </trkpt>
      <trkpt lat="36.972203990444541" lon="-3.159341979771853">
        <ele>1221.97</ele>
        <time>2025-05-12T08:56:55Z</time>
      </trkpt>
      <trkpt lat="36.972274985164404" lon="-3.159176018089056">
        <ele>1221.97</ele>
        <time>2025-05-12T08:56:56Z</time>
      </trkpt>
      <trkpt lat="36.972385961562395" lon="-3.159035034477711">
        <ele>1221.97</ele>
        <time>2025-05-12T08:56:57Z</time>
      </trkpt>
      <trkpt lat="36.972494004294276" lon="-3.158910982310772">
        <ele>1222.45</ele>
        <time>2025-05-12T08:56:58Z</time>
      </trkpt>
      <trkpt lat="36.972601963207126" lon="-3.158803023397923">
        <ele>1222.45</ele>
        <time>2025-05-12T08:56:59Z</time>
      </trkpt>
      <trkpt lat="36.972714029252529" lon="-3.158730017021298">
        <ele>1222.9300000000001</ele>
        <time>2025-05-12T08:57:00Z</time>
      </trkpt>
      <trkpt lat="36.972835985943675" lon="-3.158675031736493">
        <ele>1223.4200000000001</ele>
        <time>2025-05-12T08:57:01Z</time>
      </trkpt>
      <trkpt lat="36.972972024232149" lon="-3.158647958189249">
        <ele>1223.4200000000001</ele>
        <time>2025-05-12T08:57:02Z</time>
      </trkpt>
      <trkpt lat="36.973117031157017" lon="-3.158634966239333">
        <ele>1223.9000000000001</ele>
        <time>2025-05-12T08:57:03Z</time>
      </trkpt>
      <trkpt lat="36.973267989233136" lon="-3.158622980117798">
        <ele>1223.9000000000001</ele>
        <time>2025-05-12T08:57:04Z</time>
      </trkpt>
      <trkpt lat="36.974401976913214" lon="-3.158418964594603">
        <ele>1224.3800000000001</ele>
        <time>2025-05-12T08:57:11Z</time>
      </trkpt>
      <trkpt lat="36.974551007151604" lon="-3.15839096903801">
        <ele>1224.3800000000001</ele>
        <time>2025-05-12T08:57:12Z</time>
      </trkpt>
      <trkpt lat="36.974705988541245" lon="-3.158361967653036">
        <ele>1224.3800000000001</ele>
        <time>2025-05-12T08:57:13Z</time>
      </trkpt>
      <trkpt lat="36.974863987416029" lon="-3.158362973481417">
        <ele>1224.3800000000001</ele>
        <time>2025-05-12T08:57:14Z</time>
      </trkpt>
      <trkpt lat="36.975017040967941" lon="-3.158373031765223">
        <ele>1224.3800000000001</ele>
        <time>2025-05-12T08:57:15Z</time>
      </trkpt>
      <trkpt lat="36.975389029830694" lon="-3.158398009836674">
        <ele>1223.9000000000001</ele>
        <time>2025-05-12T08:57:18Z</time>
      </trkpt>
      <trkpt lat="36.975477039813995" lon="-3.158485013991594">
        <ele>1223.9000000000001</ele>
        <time>2025-05-12T08:57:19Z</time>
      </trkpt>
      <trkpt lat="36.975561026483774" lon="-3.158570006489754">
        <ele>1223.9000000000001</ele>
        <time>2025-05-12T08:57:20Z</time>
      </trkpt>
      <trkpt lat="36.975634032860398" lon="-3.158686012029648">
        <ele>1223.9000000000001</ele>
        <time>2025-05-12T08:57:21Z</time>
      </trkpt>
      <trkpt lat="36.975709972903132" lon="-3.158806962892413">
        <ele>1223.9000000000001</ele>
        <time>2025-05-12T08:57:22Z</time>
      </trkpt>
      <trkpt lat="36.975785996764898" lon="-3.15892799757421">
        <ele>1224.3800000000001</ele>
        <time>2025-05-12T08:57:23Z</time>
      </trkpt>
      <trkpt lat="36.975864032283425" lon="-3.159050960093737">
        <ele>1224.3800000000001</ele>
        <time>2025-05-12T08:57:24Z</time>
      </trkpt>
      <trkpt lat="36.975956987589598" lon="-3.15916302613914">
        <ele>1224.3800000000001</ele>
        <time>2025-05-12T08:57:25Z</time>
      </trkpt>
      <trkpt lat="36.976072993129492" lon="-3.159217005595565">
        <ele>1224.3800000000001</ele>
        <time>2025-05-12T08:57:26Z</time>
      </trkpt>
      <trkpt lat="36.976186987012625" lon="-3.159269979223609">
        <ele>1224.3800000000001</ele>
        <time>2025-05-12T08:57:27Z</time>
      </trkpt>
      <trkpt lat="36.976310033351183" lon="-3.159255981445313">
        <ele>1224.3800000000001</ele>
        <time>2025-05-12T08:57:28Z</time>
      </trkpt>
      <trkpt lat="36.976428972557187" lon="-3.1592289917171">
        <ele>1224.3800000000001</ele>
        <time>2025-05-12T08:57:29Z</time>
      </trkpt>
      <trkpt lat="36.97654003277421" lon="-3.159164031967521">
        <ele>1224.3800000000001</ele>
        <time>2025-05-12T08:57:30Z</time>
      </trkpt>
      <trkpt lat="36.976647991687059" lon="-3.159101000055671">
        <ele>1224.3800000000001</ele>
        <time>2025-05-12T08:57:31Z</time>
      </trkpt>
      <trkpt lat="36.977033978328109" lon="-3.158918023109436">
        <ele>1225.8199999999999</ele>
        <time>2025-05-12T08:57:35Z</time>
      </trkpt>
      <trkpt lat="36.977128023281693" lon="-3.158903019502759">
        <ele>1226.3</ele>
        <time>2025-05-12T08:57:36Z</time>
      </trkpt>
      <trkpt lat="36.977218966931105" lon="-3.158889021724463">
        <ele>1226.78</ele>
        <time>2025-05-12T08:57:37Z</time>
      </trkpt>
      <trkpt lat="36.977308988571167" lon="-3.158874018117786">
        <ele>1227.26</ele>
        <time>2025-05-12T08:57:38Z</time>
      </trkpt>
      <trkpt lat="36.977398004382849" lon="-3.158860020339489">
        <ele>1227.74</ele>
        <time>2025-05-12T08:57:39Z</time>
      </trkpt>
      <trkpt lat="36.977489031851292" lon="-3.158834958449006">
        <ele>1227.74</ele>
        <time>2025-05-12T08:57:40Z</time>
      </trkpt>
      <trkpt lat="36.977564971894026" lon="-3.158779973164201">
        <ele>1228.22</ele>
        <time>2025-05-12T08:57:41Z</time>
      </trkpt>
      <trkpt lat="36.977913994342089" lon="-3.158529018983245">
        <ele>1230.1400000000001</ele>
        <time>2025-05-12T08:57:46Z</time>
      </trkpt>
      <trkpt lat="36.978041986003518" lon="-3.158458024263382">
        <ele>1230.6199999999999</ele>
        <time>2025-05-12T08:57:48Z</time>
      </trkpt>
      <trkpt lat="36.97811096906662" lon="-3.158448971807957">
        <ele>1231.1099999999999</ele>
        <time>2025-05-12T08:57:49Z</time>
      </trkpt>
      <trkpt lat="36.978178024291992" lon="-3.158441008999944">
        <ele>1231.1099999999999</ele>
        <time>2025-05-12T08:57:50Z</time>
      </trkpt>
      <trkpt lat="36.978229992091656" lon="-3.158499011769891">
        <ele>1231.1099999999999</ele>
        <time>2025-05-12T08:57:51Z</time>
      </trkpt>
      <trkpt lat="36.978291012346745" lon="-3.158570006489754">
        <ele>1231.1099999999999</ele>
        <time>2025-05-12T08:57:52Z</time>
      </trkpt>
      <trkpt lat="36.978357983753085" lon="-3.15864603035152">
        <ele>1230.6199999999999</ele>
        <time>2025-05-12T08:57:53Z</time>
      </trkpt>
      <trkpt lat="36.978425960987806" lon="-3.158723982051015">
        <ele>1229.6600000000001</ele>
        <time>2025-05-12T08:57:54Z</time>
      </trkpt>
      <trkpt lat="36.97849796153605" lon="-3.158791959285736">
        <ele>1229.6600000000001</ele>
        <time>2025-05-12T08:57:55Z</time>
      </trkpt>
      <trkpt lat="36.978574991226196" lon="-3.158822972327471">
        <ele>1229.1800000000001</ele>
        <time>2025-05-12T08:57:56Z</time>
      </trkpt>
      <trkpt lat="36.978653026744723" lon="-3.15877896733582">
        <ele>1228.7</ele>
        <time>2025-05-12T08:57:57Z</time>
      </trkpt>
      <trkpt lat="36.978714969009161" lon="-3.15873496234417">
        <ele>1228.22</ele>
        <time>2025-05-12T08:57:58Z</time>
      </trkpt>
      <trkpt lat="36.978755034506321" lon="-3.158653993159533">
        <ele>1227.26</ele>
        <time>2025-05-12T08:57:59Z</time>
      </trkpt>
      <trkpt lat="36.978782024234533" lon="-3.158558020368218">
        <ele>1226.78</ele>
        <time>2025-05-12T08:58:00Z</time>
      </trkpt>
      <trkpt lat="36.978813037276268" lon="-3.158450983464718">
        <ele>1226.3</ele>
        <time>2025-05-12T08:58:01Z</time>
      </trkpt>
      <trkpt lat="36.979057034477592" lon="-3.157496033236384">
        <ele>1220.05</ele>
        <time>2025-05-12T08:58:09Z</time>
      </trkpt>
      <trkpt lat="36.979105984792113" lon="-3.157390002161264">
        <ele>1219.5699999999999</ele>
        <time>2025-05-12T08:58:10Z</time>
      </trkpt>
      <trkpt lat="36.979157030582428" lon="-3.157282965257764">
        <ele>1218.6099999999999</ele>
        <time>2025-05-12T08:58:11Z</time>
      </trkpt>
      <trkpt lat="36.97920598089695" lon="-3.157199984416366">
        <ele>1217.6500000000001</ele>
        <time>2025-05-12T08:58:12Z</time>
      </trkpt>
      <trkpt lat="36.979275969788432" lon="-3.157133013010025">
        <ele>1216.6900000000001</ele>
        <time>2025-05-12T08:58:13Z</time>
      </trkpt>
      <trkpt lat="36.979343025013804" lon="-3.157067969441414">
        <ele>1215.72</ele>
        <time>2025-05-12T08:58:14Z</time>
      </trkpt>
      <trkpt lat="36.979408990591764" lon="-3.157006027176976">
        <ele>1214.76</ele>
        <time>2025-05-12T08:58:15Z</time>
      </trkpt>
      <trkpt lat="36.979675032198429" lon="-3.156731016933918">
        <ele>1209.96</ele>
        <time>2025-05-12T08:58:20Z</time>
      </trkpt>
      <trkpt lat="36.979889022186399" lon="-3.156334972009063">
        <ele>1204.1900000000001</ele>
        <time>2025-05-12T08:58:27Z</time>
      </trkpt>
      <trkpt lat="36.980133019387722" lon="-3.155956026166678">
        <ele>1198.9000000000001</ele>
        <time>2025-05-12T08:58:35Z</time>
      </trkpt>
      <trkpt lat="36.98021600022912" lon="-3.155882013961673">
        <ele>1197.9400000000001</ele>
        <time>2025-05-12T08:58:37Z</time>
      </trkpt>
      <trkpt lat="36.98023796081543" lon="-3.155866004526615">
        <ele>1197.46</ele>
        <time>2025-05-12T08:58:38Z</time>
      </trkpt>
      <trkpt lat="36.980290012434125" lon="-3.15585401840508">
        <ele>1196.98</ele>
        <time>2025-05-12T08:58:39Z</time>
      </trkpt>
      <trkpt lat="36.980437031015754" lon="-3.155823005363345">
        <ele>1195.54</ele>
        <time>2025-05-12T08:58:42Z</time>
      </trkpt>
      <trkpt lat="36.980495033785701" lon="-3.155823005363345">
        <ele>1195.0599999999999</ele>
        <time>2025-05-12T08:58:43Z</time>
      </trkpt>
      <trkpt lat="36.9805589877069" lon="-3.155823005363345">
        <ele>1194.5799999999999</ele>
        <time>2025-05-12T08:58:44Z</time>
      </trkpt>
      <trkpt lat="36.98062302544713" lon="-3.155823005363345">
        <ele>1194.0899999999999</ele>
        <time>2025-05-12T08:58:45Z</time>
      </trkpt>
      <trkpt lat="36.980668036267161" lon="-3.155823005363345">
        <ele>1194.0899999999999</ele>
        <time>2025-05-12T08:58:46Z</time>
      </trkpt>
      <trkpt lat="36.980734001845121" lon="-3.155853012576699">
        <ele>1193.6099999999999</ele>
        <time>2025-05-12T08:58:47Z</time>
      </trkpt>
      <trkpt lat="36.980771971866488" lon="-3.155868016183376">
        <ele>1193.1300000000001</ele>
        <time>2025-05-12T08:58:48Z</time>
      </trkpt>
      <trkpt lat="36.981024015694857" lon="-3.155969018116593">
        <ele>1191.6900000000001</ele>
        <time>2025-05-12T08:58:56Z</time>
      </trkpt>
      <trkpt lat="36.981057040393353" lon="-3.155968012288213">
        <ele>1191.6900000000001</ele>
        <time>2025-05-12T08:58:57Z</time>
      </trkpt>
      <trkpt lat="36.981099033728242" lon="-3.155958037823439">
        <ele>1191.21</ele>
        <time>2025-05-12T08:58:58Z</time>
      </trkpt>
      <trkpt lat="36.981151001527905" lon="-3.155946973711252">
        <ele>1191.21</ele>
        <time>2025-05-12T08:58:59Z</time>
      </trkpt>
      <trkpt lat="36.98122501373291" lon="-3.155929958447814">
        <ele>1191.21</ele>
        <time>2025-05-12T08:59:00Z</time>
      </trkpt>
      <trkpt lat="36.981266001239419" lon="-3.15589802339673">
        <ele>1191.21</ele>
        <time>2025-05-12T08:59:01Z</time>
      </trkpt>
      <trkpt lat="36.981314029544592" lon="-3.155858963727951">
        <ele>1191.21</ele>
        <time>2025-05-12T08:59:02Z</time>
      </trkpt>
      <trkpt lat="36.981358034536242" lon="-3.155826022848487">
        <ele>1190.73</ele>
        <time>2025-05-12T08:59:03Z</time>
      </trkpt>
      <trkpt lat="36.981400027871132" lon="-3.155797021463513">
        <ele>1190.73</ele>
        <time>2025-05-12T08:59:04Z</time>
      </trkpt>
      <trkpt lat="36.981444032862782" lon="-3.155766008421779">
        <ele>1190.73</ele>
        <time>2025-05-12T08:59:05Z</time>
      </trkpt>
      <trkpt lat="36.98148200288415" lon="-3.155739018693566">
        <ele>1190.25</ele>
        <time>2025-05-12T08:59:06Z</time>
      </trkpt>
      <trkpt lat="36.981515027582645" lon="-3.155714962631464">
        <ele>1189.77</ele>
        <time>2025-05-12T08:59:07Z</time>
      </trkpt>
      <trkpt lat="36.98154604062438" lon="-3.155694007873535">
        <ele>1189.77</ele>
        <time>2025-05-12T08:59:08Z</time>
      </trkpt>
      <trkpt lat="36.981576969847083" lon="-3.155671041458845">
        <ele>1189.77</ele>
        <time>2025-05-12T08:59:09Z</time>
      </trkpt>
      <trkpt lat="36.981629021465778" lon="-3.155633993446827">
        <ele>1189.77</ele>
        <time>2025-05-12T08:59:11Z</time>
      </trkpt>
      <trkpt lat="36.981651987880468" lon="-3.155617984011769">
        <ele>1190.25</ele>
        <time>2025-05-12T08:59:12Z</time>
      </trkpt>
      <trkpt lat="36.981673026457429" lon="-3.155602980405092">
        <ele>1190.25</ele>
        <time>2025-05-12T08:59:13Z</time>
      </trkpt>
      <trkpt lat="36.98171703144908" lon="-3.155571967363358">
        <ele>1190.25</ele>
        <time>2025-05-12T08:59:14Z</time>
      </trkpt>
      <trkpt lat="36.981771010905504" lon="-3.155533997341991">
        <ele>1190.73</ele>
        <time>2025-05-12T08:59:15Z</time>
      </trkpt>
      <trkpt lat="36.981829013675451" lon="-3.155493009835482">
        <ele>1190.73</ele>
        <time>2025-05-12T08:59:16Z</time>
      </trkpt>
      <trkpt lat="36.981929009780288" lon="-3.155388990417123">
        <ele>1191.21</ele>
        <time>2025-05-12T08:59:18Z</time>
      </trkpt>
      <trkpt lat="36.98197603225708" lon="-3.155337022617459">
        <ele>1191.21</ele>
        <time>2025-05-12T08:59:19Z</time>
      </trkpt>
      <trkpt lat="36.98204099200666" lon="-3.155265022069216">
        <ele>1191.6900000000001</ele>
        <time>2025-05-12T08:59:20Z</time>
      </trkpt>
      <trkpt lat="36.982058007270098" lon="-3.155221017077565">
        <ele>1192.1700000000001</ele>
        <time>2025-05-12T08:59:21Z</time>
      </trkpt>
      <trkpt lat="36.982082985341549" lon="-3.155158990994096">
        <ele>1192.1700000000001</ele>
        <time>2025-05-12T08:59:22Z</time>
      </trkpt>
      <trkpt lat="36.982107041403651" lon="-3.155099982395768">
        <ele>1192.6500000000001</ele>
        <time>2025-05-12T08:59:23Z</time>
      </trkpt>
      <trkpt lat="36.98212799616158" lon="-3.155046002939344">
        <ele>1192.6500000000001</ele>
        <time>2025-05-12T08:59:24Z</time>
      </trkpt>
      <trkpt lat="36.982167977839708" lon="-3.154940977692604">
        <ele>1192.6500000000001</ele>
        <time>2025-05-12T08:59:26Z</time>
      </trkpt>
      <trkpt lat="36.98219102807343" lon="-3.154879035428166">
        <ele>1192.6500000000001</ele>
        <time>2025-05-12T08:59:27Z</time>
      </trkpt>
      <trkpt lat="36.982212988659739" lon="-3.154842993244529">
        <ele>1192.6500000000001</ele>
        <time>2025-05-12T08:59:28Z</time>
      </trkpt>
      <trkpt lat="36.982240984216332" lon="-3.154797982424498">
        <ele>1192.1700000000001</ele>
        <time>2025-05-12T08:59:29Z</time>
      </trkpt>
      <trkpt lat="36.982268979772925" lon="-3.154751965776086">
        <ele>1191.6900000000001</ele>
        <time>2025-05-12T08:59:30Z</time>
      </trkpt>
      <trkpt lat="36.982337040826678" lon="-3.154641995206475">
        <ele>1191.21</ele>
        <time>2025-05-12T08:59:32Z</time>
      </trkpt>
      <trkpt lat="36.982381967827678" lon="-3.154580974951387">
        <ele>1190.73</ele>
        <time>2025-05-12T08:59:33Z</time>
      </trkpt>
      <trkpt lat="36.982436031103134" lon="-3.154525989666581">
        <ele>1190.25</ele>
        <time>2025-05-12T08:59:34Z</time>
      </trkpt>
      <trkpt lat="36.982616996392608" lon="-3.154346030205488">
        <ele>1189.29</ele>
        <time>2025-05-12T08:59:37Z</time>
      </trkpt>
      <trkpt lat="36.982685979455709" lon="-3.154322979971767">
        <ele>1188.8099999999999</ele>
        <time>2025-05-12T08:59:38Z</time>
      </trkpt>
      <trkpt lat="36.982764014974236" lon="-3.154299007728696">
        <ele>1188.3299999999999</ele>
        <time>2025-05-12T08:59:39Z</time>
      </trkpt>
      <trkpt lat="36.982837021350861" lon="-3.154278974980116">
        <ele>1188.3299999999999</ele>
        <time>2025-05-12T08:59:40Z</time>
      </trkpt>
      <trkpt lat="36.982917990535498" lon="-3.154318034648895">
        <ele>1187.8499999999999</ele>
        <time>2025-05-12T08:59:41Z</time>
      </trkpt>
      <trkpt lat="36.982998959720135" lon="-3.154357010498643">
        <ele>1187.8499999999999</ele>
        <time>2025-05-12T08:59:42Z</time>
      </trkpt>
      <trkpt lat="36.983078001067042" lon="-3.15439498052001">
        <ele>1187.3699999999999</ele>
        <time>2025-05-12T08:59:43Z</time>
      </trkpt>
      <trkpt lat="36.983152013272047" lon="-3.154431022703648">
        <ele>1186.8800000000001</ele>
        <time>2025-05-12T08:59:44Z</time>
      </trkpt>
      <trkpt lat="36.983305988833308" lon="-3.154505034908652">
        <ele>1185.4400000000001</ele>
        <time>2025-05-12T08:59:46Z</time>
      </trkpt>
      <trkpt lat="36.983383018523455" lon="-3.154543004930019">
        <ele>1184.96</ele>
        <time>2025-05-12T08:59:47Z</time>
      </trkpt>
      <trkpt lat="36.983535988256335" lon="-3.154571000486612">
        <ele>1183.52</ele>
        <time>2025-05-12T08:59:49Z</time>
      </trkpt>
      <trkpt lat="36.98367303237319" lon="-3.154559014365077">
        <ele>1182.0799999999999</ele>
        <time>2025-05-12T08:59:51Z</time>
      </trkpt>
      <trkpt lat="36.983723994344473" lon="-3.154534036293626">
        <ele>1181.1199999999999</ele>
        <time>2025-05-12T08:59:52Z</time>
      </trkpt>
      <trkpt lat="36.983772022649646" lon="-3.154498999938369">
        <ele>1180.6400000000001</ele>
        <time>2025-05-12T08:59:53Z</time>
      </trkpt>
      <trkpt lat="36.983818961307406" lon="-3.154464969411492">
        <ele>1179.6700000000001</ele>
        <time>2025-05-12T08:59:54Z</time>
      </trkpt>
      <trkpt lat="36.983861960470676" lon="-3.154434040188789">
        <ele>1178.71</ele>
        <time>2025-05-12T08:59:55Z</time>
      </trkpt>
      <trkpt lat="36.983905965462327" lon="-3.154402021318674">
        <ele>1177.75</ele>
        <time>2025-05-12T08:59:56Z</time>
      </trkpt>
      <trkpt lat="36.983951982110739" lon="-3.154362039640546">
        <ele>1177.27</ele>
        <time>2025-05-12T08:59:57Z</time>
      </trkpt>
      <trkpt lat="36.984015014022589" lon="-3.154299007728696">
        <ele>1176.3099999999999</ele>
        <time>2025-05-12T08:59:58Z</time>
      </trkpt>
      <trkpt lat="36.984056001529098" lon="-3.154246034100652">
        <ele>1175.3499999999999</ele>
        <time>2025-05-12T08:59:59Z</time>
      </trkpt>
      <trkpt lat="36.984112998470664" lon="-3.154174033552408">
        <ele>1174.3900000000001</ele>
        <time>2025-05-12T09:00:00Z</time>
      </trkpt>
      <trkpt lat="36.984173012897372" lon="-3.154098009690642">
        <ele>1173.4300000000001</ele>
        <time>2025-05-12T09:00:01Z</time>
      </trkpt>
      <trkpt lat="36.984436959028244" lon="-3.15381302498281">
        <ele>1169.0999999999999</ele>
        <time>2025-05-12T09:00:05Z</time>
      </trkpt>
      <trkpt lat="36.985087981447577" lon="-3.153220005333424">
        <ele>1164.29</ele>
        <time>2025-05-12T09:00:14Z</time>
      </trkpt>
      <trkpt lat="36.985918963328004" lon="-3.152467980980873">
        <ele>1159.01</ele>
        <time>2025-05-12T09:00:21Z</time>
      </trkpt>
      <trkpt lat="36.98606195859611" lon="-3.152360022068024">
        <ele>1158.05</ele>
        <time>2025-05-12T09:00:22Z</time>
      </trkpt>
      <trkpt lat="36.986216017976403" lon="-3.152268994599581">
        <ele>1157.5599999999999</ele>
        <time>2025-05-12T09:00:23Z</time>
      </trkpt>
      <trkpt lat="36.98638298548758" lon="-3.152172015979886">
        <ele>1156.5999999999999</ele>
        <time>2025-05-12T09:00:24Z</time>
      </trkpt>
      <trkpt lat="36.986571997404099" lon="-3.152101021260023">
        <ele>1155.6400000000001</ele>
        <time>2025-05-12T09:00:25Z</time>
      </trkpt>
      <trkpt lat="36.986760003492236" lon="-3.15202902071178">
        <ele>1154.6800000000001</ele>
        <time>2025-05-12T09:00:26Z</time>
      </trkpt>
      <trkpt lat="36.986937029287219" lon="-3.151961965486407">
        <ele>1153.72</ele>
        <time>2025-05-12T09:00:27Z</time>
      </trkpt>
      <trkpt lat="36.987106008455157" lon="-3.151934975758195">
        <ele>1152.28</ele>
        <time>2025-05-12T09:00:28Z</time>
      </trkpt>
      <trkpt lat="36.987269958481193" lon="-3.151928018778563">
        <ele>1151.3199999999999</ele>
        <time>2025-05-12T09:00:29Z</time>
      </trkpt>
      <trkpt lat="36.987429969012737" lon="-3.151921983808279">
        <ele>1149.8699999999999</ele>
        <time>2025-05-12T09:00:30Z</time>
      </trkpt>
      <trkpt lat="36.987557960674167" lon="-3.151906980201602">
        <ele>1147.95</ele>
        <time>2025-05-12T09:00:31Z</time>
      </trkpt>
      <trkpt lat="36.987659968435764" lon="-3.151863981038332">
        <ele>1146.51</ele>
        <time>2025-05-12T09:00:32Z</time>
      </trkpt>
      <trkpt lat="36.987721994519234" lon="-3.151789968833327">
        <ele>1144.5899999999999</ele>
        <time>2025-05-12T09:00:33Z</time>
      </trkpt>
      <trkpt lat="36.987765999510884" lon="-3.15166600048542">
        <ele>1143.1400000000001</ele>
        <time>2025-05-12T09:00:34Z</time>
      </trkpt>
      <trkpt lat="36.987784020602703" lon="-3.151506995782256">
        <ele>1141.7</ele>
        <time>2025-05-12T09:00:35Z</time>
      </trkpt>
      <trkpt lat="36.98775501921773" lon="-3.151326030492783">
        <ele>1140.26</ele>
        <time>2025-05-12T09:00:36Z</time>
      </trkpt>
      <trkpt lat="36.987725012004375" lon="-3.151140036061406">
        <ele>1138.8199999999999</ele>
        <time>2025-05-12T09:00:37Z</time>
      </trkpt>
      <trkpt lat="36.987697016447783" lon="-3.150970973074436">
        <ele>1137.3800000000001</ele>
        <time>2025-05-12T09:00:38Z</time>
      </trkpt>
      <trkpt lat="36.987673966214061" lon="-3.15082797780633">
        <ele>1135.45</ele>
        <time>2025-05-12T09:00:39Z</time>
      </trkpt>
      <trkpt lat="36.987693998962641" lon="-3.150685988366604">
        <ele>1134.01</ele>
        <time>2025-05-12T09:00:40Z</time>
      </trkpt>
      <trkpt lat="36.987769016996026" lon="-3.150566965341568">
        <ele>1133.05</ele>
        <time>2025-05-12T09:00:41Z</time>
      </trkpt>
      <trkpt lat="36.987880999222398" lon="-3.150481972843409">
        <ele>1131.6099999999999</ele>
        <time>2025-05-12T09:00:42Z</time>
      </trkpt>
      <trkpt lat="36.988003961741924" lon="-3.150431010872126">
        <ele>1130.1700000000001</ele>
        <time>2025-05-12T09:00:43Z</time>
      </trkpt>
      <trkpt lat="36.988148968666792" lon="-3.150404021143913">
        <ele>1128.73</ele>
        <time>2025-05-12T09:00:44Z</time>
      </trkpt>
      <trkpt lat="36.988285006955266" lon="-3.150428999215365">
        <ele>1127.28</ele>
        <time>2025-05-12T09:00:45Z</time>
      </trkpt>
      <trkpt lat="36.988415010273457" lon="-3.150423970073462">
        <ele>1125.3599999999999</ele>
        <time>2025-05-12T09:00:46Z</time>
      </trkpt>
      <trkpt lat="36.98852900415659" lon="-3.150406032800674">
        <ele>1123.9200000000001</ele>
        <time>2025-05-12T09:00:47Z</time>
      </trkpt>
      <trkpt lat="36.988607039675117" lon="-3.150393962860107">
        <ele>1122.48</ele>
        <time>2025-05-12T09:00:48Z</time>
      </trkpt>
      <trkpt lat="36.988651966676116" lon="-3.150298995897174">
        <ele>1120.55</ele>
        <time>2025-05-12T09:00:49Z</time>
      </trkpt>
      <trkpt lat="36.988706029951572" lon="-3.15018299035728">
        <ele>1118.6300000000001</ele>
        <time>2025-05-12T09:00:50Z</time>
      </trkpt>
      <trkpt lat="36.9887650385499" lon="-3.150058016180992">
        <ele>1116.71</ele>
        <time>2025-05-12T09:00:51Z</time>
      </trkpt>
      <trkpt lat="36.988786999136209" lon="-3.149939998984337">
        <ele>1115.27</ele>
        <time>2025-05-12T09:00:52Z</time>
      </trkpt>
      <trkpt lat="36.988797979429364" lon="-3.14981997013092">
        <ele>1113.8199999999999</ele>
        <time>2025-05-12T09:00:53Z</time>
      </trkpt>
      <trkpt lat="36.988763026893139" lon="-3.149746041744947">
        <ele>1112.8599999999999</ele>
        <time>2025-05-12T09:00:54Z</time>
      </trkpt>
      <trkpt lat="36.988689014688134" lon="-3.149649985134602">
        <ele>1111.9000000000001</ele>
        <time>2025-05-12T09:00:55Z</time>
      </trkpt>
      <trkpt lat="36.988589018583298" lon="-3.1495619751513">
        <ele>1111.4200000000001</ele>
        <time>2025-05-12T09:00:56Z</time>
      </trkpt>
      <trkpt lat="36.987423012033105" lon="-3.148940037935972">
        <ele>1115.27</ele>
        <time>2025-05-12T09:01:04Z</time>
      </trkpt>
      <trkpt lat="36.98696200735867" lon="-3.14876401796937">
        <ele>1118.6300000000001</ele>
        <time>2025-05-12T09:01:07Z</time>
      </trkpt>
      <trkpt lat="36.986846001818776" lon="-3.1487210188061">
        <ele>1119.5899999999999</ele>
        <time>2025-05-12T09:01:08Z</time>
      </trkpt>
      <trkpt lat="36.986705018207431" lon="-3.148770974949002">
        <ele>1120.55</ele>
        <time>2025-05-12T09:01:09Z</time>
      </trkpt>
      <trkpt lat="36.98655498214066" lon="-3.148825038224459">
        <ele>1121.03</ele>
        <time>2025-05-12T09:01:10Z</time>
      </trkpt>
      <trkpt lat="36.986418021842837" lon="-3.148930985480547">
        <ele>1122.48</ele>
        <time>2025-05-12T09:01:11Z</time>
      </trkpt>
      <trkpt lat="36.986277038231492" lon="-3.149042967706919">
        <ele>1123.4400000000001</ele>
        <time>2025-05-12T09:01:12Z</time>
      </trkpt>
      <trkpt lat="36.986148040741682" lon="-3.149155033752322">
        <ele>1123.9200000000001</ele>
        <time>2025-05-12T09:01:13Z</time>
      </trkpt>
      <trkpt lat="36.986029017716646" lon="-3.149261986836791">
        <ele>1124.8800000000001</ele>
        <time>2025-05-12T09:01:14Z</time>
      </trkpt>
      <trkpt lat="36.985897002741694" lon="-3.149339016526938">
        <ele>1125.8399999999999</ele>
        <time>2025-05-12T09:01:15Z</time>
      </trkpt>
      <trkpt lat="36.985774962231517" lon="-3.149403976276517">
        <ele>1126.8</ele>
        <time>2025-05-12T09:01:16Z</time>
      </trkpt>
      <trkpt lat="36.985633978620172" lon="-3.149449992924929">
        <ele>1127.28</ele>
        <time>2025-05-12T09:01:17Z</time>
      </trkpt>
      <trkpt lat="36.985494000837207" lon="-3.149449992924929">
        <ele>1128.24</ele>
        <time>2025-05-12T09:01:18Z</time>
      </trkpt>
      <trkpt lat="36.985342036932707" lon="-3.149449992924929">
        <ele>1129.21</ele>
        <time>2025-05-12T09:01:19Z</time>
      </trkpt>
      <trkpt lat="36.985195018351078" lon="-3.149471031501889">
        <ele>1130.1700000000001</ele>
        <time>2025-05-12T09:01:20Z</time>
      </trkpt>
      <trkpt lat="36.985057974234223" lon="-3.149493997916579">
        <ele>1130.6500000000001</ele>
        <time>2025-05-12T09:01:21Z</time>
      </trkpt>
      <trkpt lat="36.984937023371458" lon="-3.149514030665159">
        <ele>1131.1300000000001</ele>
        <time>2025-05-12T09:01:22Z</time>
      </trkpt>
      <trkpt lat="36.984836021438241" lon="-3.149530962109566">
        <ele>1132.0899999999999</ele>
        <time>2025-05-12T09:01:23Z</time>
      </trkpt>
      <trkpt lat="36.984743988141418" lon="-3.149487962946296">
        <ele>1133.05</ele>
        <time>2025-05-12T09:01:24Z</time>
      </trkpt>
      <trkpt lat="36.984656983986497" lon="-3.149425014853478">
        <ele>1133.05</ele>
        <time>2025-05-12T09:01:25Z</time>
      </trkpt>
      <trkpt lat="36.984551958739758" lon="-3.149328958243132">
        <ele>1133.53</ele>
        <time>2025-05-12T09:01:26Z</time>
      </trkpt>
      <trkpt lat="36.984479036182165" lon="-3.149202978238463">
        <ele>1134.01</ele>
        <time>2025-05-12T09:01:27Z</time>
      </trkpt>
      <trkpt lat="36.98440502397716" lon="-3.149075992405415">
        <ele>1134.49</ele>
        <time>2025-05-12T09:01:28Z</time>
      </trkpt>
      <trkpt lat="36.984332017600536" lon="-3.148952024057508">
        <ele>1134.97</ele>
        <time>2025-05-12T09:01:29Z</time>
      </trkpt>
      <trkpt lat="36.984272003173828" lon="-3.148849010467529">
        <ele>1135.45</ele>
        <time>2025-05-12T09:01:30Z</time>
      </trkpt>
      <trkpt lat="36.98416999541223" lon="-3.148826966062188">
        <ele>1135.45</ele>
        <time>2025-05-12T09:01:31Z</time>
      </trkpt>
      <trkpt lat="36.984061030671" lon="-3.148802993819118">
        <ele>1135.9400000000001</ele>
        <time>2025-05-12T09:01:32Z</time>
      </trkpt>
      <trkpt lat="36.983950976282358" lon="-3.148779021576047">
        <ele>1136.9000000000001</ele>
        <time>2025-05-12T09:01:33Z</time>
      </trkpt>
      <trkpt lat="36.983842011541128" lon="-3.148755971342325">
        <ele>1137.3800000000001</ele>
        <time>2025-05-12T09:01:34Z</time>
      </trkpt>
      <trkpt lat="36.983725000172853" lon="-3.148707021027803">
        <ele>1137.8599999999999</ele>
        <time>2025-05-12T09:01:35Z</time>
      </trkpt>
      <trkpt lat="36.983155030757189" lon="-3.148304019123316">
        <ele>1137.3800000000001</ele>
        <time>2025-05-12T09:01:40Z</time>
      </trkpt>
      <trkpt lat="36.983113037422299" lon="-3.148209974169731">
        <ele>1137.3800000000001</ele>
        <time>2025-05-12T09:01:41Z</time>
      </trkpt>
      <trkpt lat="36.983091998845339" lon="-3.148110983893275">
        <ele>1136.9000000000001</ele>
        <time>2025-05-12T09:01:42Z</time>
      </trkpt>
      <trkpt lat="36.983091998845339" lon="-3.147819964215159">
        <ele>1135.9400000000001</ele>
        <time>2025-05-12T09:01:44Z</time>
      </trkpt>
      <trkpt lat="36.983091998845339" lon="-3.147655008360744">
        <ele>1134.49</ele>
        <time>2025-05-12T09:01:45Z</time>
      </trkpt>
      <trkpt lat="36.983056962490082" lon="-3.147483011707664">
        <ele>1133.05</ele>
        <time>2025-05-12T09:01:46Z</time>
      </trkpt>
      <trkpt lat="36.982974987477064" lon="-3.147315038368106">
        <ele>1131.1300000000001</ele>
        <time>2025-05-12T09:01:47Z</time>
      </trkpt>
      <trkpt lat="36.982861999422312" lon="-3.147195009514689">
        <ele>1129.6900000000001</ele>
        <time>2025-05-12T09:01:48Z</time>
      </trkpt>
      <trkpt lat="36.982746999710798" lon="-3.147073974832892">
        <ele>1128.24</ele>
        <time>2025-05-12T09:01:49Z</time>
      </trkpt>
      <trkpt lat="36.982641974464059" lon="-3.146961992606521">
        <ele>1127.28</ele>
        <time>2025-05-12T09:01:50Z</time>
      </trkpt>
      <trkpt lat="36.98255798779428" lon="-3.146841963753104">
        <ele>1125.8399999999999</ele>
        <time>2025-05-12T09:01:51Z</time>
      </trkpt>
      <trkpt lat="36.982469977810979" lon="-3.14670299179852">
        <ele>1124.4000000000001</ele>
        <time>2025-05-12T09:01:52Z</time>
      </trkpt>
      <trkpt lat="36.982429996132851" lon="-3.146533006802201">
        <ele>1122.96</ele>
        <time>2025-05-12T09:01:53Z</time>
      </trkpt>
      <trkpt lat="36.982383979484439" lon="-3.1463379599154">
        <ele>1121.52</ele>
        <time>2025-05-12T09:01:54Z</time>
      </trkpt>
      <trkpt lat="36.982377022504807" lon="-3.146193036809564">
        <ele>1120.55</ele>
        <time>2025-05-12T09:01:55Z</time>
      </trkpt>
      <trkpt lat="36.982369981706142" lon="-3.146039983257651">
        <ele>1119.1099999999999</ele>
        <time>2025-05-12T09:01:56Z</time>
      </trkpt>
      <trkpt lat="36.98236302472651" lon="-3.145888019353151">
        <ele>1118.1500000000001</ele>
        <time>2025-05-12T09:01:57Z</time>
      </trkpt>
      <trkpt lat="36.982294041663408" lon="-3.145776959136128">
        <ele>1117.1900000000001</ele>
        <time>2025-05-12T09:01:58Z</time>
      </trkpt>
      <trkpt lat="36.982180969789624" lon="-3.145676963031292">
        <ele>1116.23</ele>
        <time>2025-05-12T09:01:59Z</time>
      </trkpt>
      <trkpt lat="36.982052978128195" lon="-3.145562969148159">
        <ele>1115.75</ele>
        <time>2025-05-12T09:02:00Z</time>
      </trkpt>
      <trkpt lat="36.98180302977562" lon="-3.145297011360526">
        <ele>1113.8199999999999</ele>
        <time>2025-05-12T09:02:02Z</time>
      </trkpt>
      <trkpt lat="36.981687024235725" lon="-3.145147981122136">
        <ele>1112.8599999999999</ele>
        <time>2025-05-12T09:02:03Z</time>
      </trkpt>
      <trkpt lat="36.981584010645747" lon="-3.145000962540507">
        <ele>1111.9000000000001</ele>
        <time>2025-05-12T09:02:04Z</time>
      </trkpt>
      <trkpt lat="36.981496000662446" lon="-3.144844975322485">
        <ele>1110.9400000000001</ele>
        <time>2025-05-12T09:02:05Z</time>
      </trkpt>
      <trkpt lat="36.981413019821048" lon="-3.144696028903127">
        <ele>1109.98</ele>
        <time>2025-05-12T09:02:06Z</time>
      </trkpt>
      <trkpt lat="36.981340013444424" lon="-3.144564013928175">
        <ele>1109.02</ele>
        <time>2025-05-12T09:02:07Z</time>
      </trkpt>
      <trkpt lat="36.981275975704193" lon="-3.144450020045042">
        <ele>1108.0599999999999</ele>
        <time>2025-05-12T09:02:08Z</time>
      </trkpt>
      <trkpt lat="36.98120397515595" lon="-3.144321022555232">
        <ele>1107.0999999999999</ele>
        <time>2025-05-12T09:02:09Z</time>
      </trkpt>
      <trkpt lat="36.981229959055781" lon="-3.144190013408661">
        <ele>1106.1300000000001</ele>
        <time>2025-05-12T09:02:10Z</time>
      </trkpt>
      <trkpt lat="36.981259966269135" lon="-3.144044000655413">
        <ele>1105.6500000000001</ele>
        <time>2025-05-12T09:02:11Z</time>
      </trkpt>
      <trkpt lat="36.981275975704193" lon="-3.1439099740237">
        <ele>1105.6500000000001</ele>
        <time>2025-05-12T09:02:12Z</time>
      </trkpt>
      <trkpt lat="36.98128997348249" lon="-3.143742000684142">
        <ele>1105.1700000000001</ele>
        <time>2025-05-12T09:02:13Z</time>
      </trkpt>
      <trkpt lat="36.98126801289618" lon="-3.143634963780642">
        <ele>1104.6900000000001</ele>
        <time>2025-05-12T09:02:14Z</time>
      </trkpt>
      <trkpt lat="36.981194000691175" lon="-3.143592970445752">
        <ele>1104.6900000000001</ele>
        <time>2025-05-12T09:02:15Z</time>
      </trkpt>
      <trkpt lat="36.98107497766614" lon="-3.143528010696173">
        <ele>1104.6900000000001</ele>
        <time>2025-05-12T09:02:16Z</time>
      </trkpt>
      <trkpt lat="36.980951009318233" lon="-3.143518958240748">
        <ele>1105.1700000000001</ele>
        <time>2025-05-12T09:02:17Z</time>
      </trkpt>
      <trkpt lat="36.979818027466536" lon="-3.143380992114544">
        <ele>1111.9000000000001</ele>
        <time>2025-05-12T09:02:24Z</time>
      </trkpt>
      <trkpt lat="36.979547040537" lon="-3.143311003223062">
        <ele>1114.3099999999999</ele>
        <time>2025-05-12T09:02:26Z</time>
      </trkpt>
      <trkpt lat="36.979443021118641" lon="-3.143259035423398">
        <ele>1115.27</ele>
        <time>2025-05-12T09:02:27Z</time>
      </trkpt>
      <trkpt lat="36.979374038055539" lon="-3.143138000741601">
        <ele>1116.23</ele>
        <time>2025-05-12T09:02:28Z</time>
      </trkpt>
      <trkpt lat="36.979307988658547" lon="-3.142989976331592">
        <ele>1117.1900000000001</ele>
        <time>2025-05-12T09:02:29Z</time>
      </trkpt>
      <trkpt lat="36.979250991716981" lon="-3.142861984670162">
        <ele>1118.6300000000001</ele>
        <time>2025-05-12T09:02:30Z</time>
      </trkpt>
      <trkpt lat="36.979243028908968" lon="-3.142639026045799">
        <ele>1119.5899999999999</ele>
        <time>2025-05-12T09:02:31Z</time>
      </trkpt>
      <trkpt lat="36.979234982281923" lon="-3.142442973330617">
        <ele>1120.55</ele>
        <time>2025-05-12T09:02:32Z</time>
      </trkpt>
      <trkpt lat="36.979230036959052" lon="-3.142304001376033">
        <ele>1121.52</ele>
        <time>2025-05-12T09:02:33Z</time>
      </trkpt>
      <trkpt lat="36.979168010875583" lon="-3.142118006944656">
        <ele>1122.48</ele>
        <time>2025-05-12T09:02:34Z</time>
      </trkpt>
      <trkpt lat="36.979075977578759" lon="-3.142039971426129">
        <ele>1122.96</ele>
        <time>2025-05-12T09:02:35Z</time>
      </trkpt>
      <trkpt lat="36.978961983695626" lon="-3.141949027776718">
        <ele>1123.4400000000001</ele>
        <time>2025-05-12T09:02:36Z</time>
      </trkpt>
      <trkpt lat="36.978830974549055" lon="-3.141842996701598">
        <ele>1123.9200000000001</ele>
        <time>2025-05-12T09:02:37Z</time>
      </trkpt>
      <trkpt lat="36.978698959574103" lon="-3.141718022525311">
        <ele>1124.4000000000001</ele>
        <time>2025-05-12T09:02:38Z</time>
      </trkpt>
      <trkpt lat="36.978577002882957" lon="-3.141554994508624">
        <ele>1124.4000000000001</ele>
        <time>2025-05-12T09:02:39Z</time>
      </trkpt>
      <trkpt lat="36.978449011221528" lon="-3.141379980370402">
        <ele>1124.8800000000001</ele>
        <time>2025-05-12T09:02:40Z</time>
      </trkpt>
      <trkpt lat="36.977558014914393" lon="-3.14029703848064">
        <ele>1126.8</ele>
        <time>2025-05-12T09:02:47Z</time>
      </trkpt>
      <trkpt lat="36.977321980521083" lon="-3.140093022957444">
        <ele>1126.8</ele>
        <time>2025-05-12T09:02:49Z</time>
      </trkpt>
      <trkpt lat="36.977268001064658" lon="-3.13999998383224">
        <ele>1126.8</ele>
        <time>2025-05-12T09:02:50Z</time>
      </trkpt>
      <trkpt lat="36.977222990244627" lon="-3.13989101909101">
        <ele>1126.8</ele>
        <time>2025-05-12T09:02:51Z</time>
      </trkpt>
      <trkpt lat="36.977190971374512" lon="-3.139794962480664">
        <ele>1126.8</ele>
        <time>2025-05-12T09:02:52Z</time>
      </trkpt>
      <trkpt lat="36.977190971374512" lon="-3.139651967212558">
        <ele>1126.3199999999999</ele>
        <time>2025-05-12T09:02:53Z</time>
      </trkpt>
      <trkpt lat="36.9772710185498" lon="-3.138423012569547">
        <ele>1124.8800000000001</ele>
        <time>2025-05-12T09:02:59Z</time>
      </trkpt>
      <trkpt lat="36.977268001064658" lon="-3.138197036460042">
        <ele>1124.4000000000001</ele>
        <time>2025-05-12T09:03:00Z</time>
      </trkpt>
      <trkpt lat="36.977257020771503" lon="-3.137987991794944">
        <ele>1123.9200000000001</ele>
        <time>2025-05-12T09:03:01Z</time>
      </trkpt>
      <trkpt lat="36.977188959717751" lon="-3.137783976271749">
        <ele>1122.96</ele>
        <time>2025-05-12T09:03:02Z</time>
      </trkpt>
      <trkpt lat="36.976796016097069" lon="-3.136345976963639">
        <ele>1123.4400000000001</ele>
        <time>2025-05-12T09:03:09Z</time>
      </trkpt>
      <trkpt lat="36.976795010268688" lon="-3.136176997795701">
        <ele>1124.4000000000001</ele>
        <time>2025-05-12T09:03:10Z</time>
      </trkpt>
      <trkpt lat="36.976811019703746" lon="-3.135998966172338">
        <ele>1125.3599999999999</ele>
        <time>2025-05-12T09:03:11Z</time>
      </trkpt>
      <trkpt lat="36.976830968633294" lon="-3.135809032246471">
        <ele>1126.3199999999999</ele>
        <time>2025-05-12T09:03:12Z</time>
      </trkpt>
      <trkpt lat="36.976881008595228" lon="-3.135619014501572">
        <ele>1127.76</ele>
        <time>2025-05-12T09:03:13Z</time>
      </trkpt>
      <trkpt lat="36.977091981098056" lon="-3.134978972375393">
        <ele>1132.0899999999999</ele>
        <time>2025-05-12T09:03:17Z</time>
      </trkpt>
      <trkpt lat="36.977178985252976" lon="-3.134840000420809">
        <ele>1132.5699999999999</ele>
        <time>2025-05-12T09:03:18Z</time>
      </trkpt>
      <trkpt lat="36.9772710185498" lon="-3.134691976010799">
        <ele>1133.05</ele>
        <time>2025-05-12T09:03:19Z</time>
      </trkpt>
      <trkpt lat="36.977342013269663" lon="-3.134579993784428">
        <ele>1133.05</ele>
        <time>2025-05-12T09:03:20Z</time>
      </trkpt>
      <trkpt lat="36.977332960814238" lon="-3.13439198769629">
        <ele>1133.05</ele>
        <time>2025-05-12T09:03:21Z</time>
      </trkpt>
      <trkpt lat="36.977327009662986" lon="-3.134251004084945">
        <ele>1133.05</ele>
        <time>2025-05-12T09:03:22Z</time>
      </trkpt>
      <trkpt lat="36.977320974692702" lon="-3.134095016866922">
        <ele>1132.5699999999999</ele>
        <time>2025-05-12T09:03:23Z</time>
      </trkpt>
      <trkpt lat="36.977352993562818" lon="-3.133937017992139">
        <ele>1132.0899999999999</ele>
        <time>2025-05-12T09:03:24Z</time>
      </trkpt>
      <trkpt lat="36.977420970797539" lon="-3.133828975260258">
        <ele>1131.6099999999999</ele>
        <time>2025-05-12T09:03:25Z</time>
      </trkpt>
      <trkpt lat="36.977522978559136" lon="-3.133716993033886">
        <ele>1130.6500000000001</ele>
        <time>2025-05-12T09:03:26Z</time>
      </trkpt>
      <trkpt lat="36.97761501185596" lon="-3.133649015799165">
        <ele>1130.1700000000001</ele>
        <time>2025-05-12T09:03:27Z</time>
      </trkpt>
      <trkpt lat="36.977749038487673" lon="-3.133620014414191">
        <ele>1129.6900000000001</ele>
        <time>2025-05-12T09:03:28Z</time>
      </trkpt>
      <trkpt lat="36.977878035977483" lon="-3.133593024685979">
        <ele>1129.21</ele>
        <time>2025-05-12T09:03:29Z</time>
      </trkpt>
      <trkpt lat="36.977994963526726" lon="-3.133622026070952">
        <ele>1128.73</ele>
        <time>2025-05-12T09:03:30Z</time>
      </trkpt>
      <trkpt lat="36.978123961016536" lon="-3.133623031899333">
        <ele>1127.76</ele>
        <time>2025-05-12T09:03:31Z</time>
      </trkpt>
      <trkpt lat="36.97821700014174" lon="-3.133552959188819">
        <ele>1127.28</ele>
        <time>2025-05-12T09:03:32Z</time>
      </trkpt>
      <trkpt lat="36.978267040103674" lon="-3.133471990004182">
        <ele>1126.8</ele>
        <time>2025-05-12T09:03:33Z</time>
      </trkpt>
      <trkpt lat="36.9782829657197" lon="-3.133407030254602">
        <ele>1126.3199999999999</ele>
        <time>2025-05-12T09:03:34Z</time>
      </trkpt>
      <trkpt lat="36.978273997083306" lon="-3.133293958380818">
        <ele>1125.3599999999999</ele>
        <time>2025-05-12T09:03:35Z</time>
      </trkpt>
      <trkpt lat="36.978264022618532" lon="-3.133163033053279">
        <ele>1124.8800000000001</ele>
        <time>2025-05-12T09:03:36Z</time>
      </trkpt>
      <trkpt lat="36.978213982656598" lon="-3.133020959794521">
        <ele>1124.8800000000001</ele>
        <time>2025-05-12T09:03:37Z</time>
      </trkpt>
      <trkpt lat="36.978156985715032" lon="-3.132860027253628">
        <ele>1124.4000000000001</ele>
        <time>2025-05-12T09:03:38Z</time>
      </trkpt>
      <trkpt lat="36.978050032630563" lon="-3.132541012018919">
        <ele>1124.4000000000001</ele>
        <time>2025-05-12T09:03:40Z</time>
      </trkpt>
      <trkpt lat="36.97800301015377" lon="-3.132367003709078">
        <ele>1124.4000000000001</ele>
        <time>2025-05-12T09:03:41Z</time>
      </trkpt>
      <trkpt lat="36.977964034304023" lon="-3.132210010662675">
        <ele>1123.9200000000001</ele>
        <time>2025-05-12T09:03:42Z</time>
      </trkpt>
      <trkpt lat="36.977964034304023" lon="-3.132041031494737">
        <ele>1123.9200000000001</ele>
        <time>2025-05-12T09:03:43Z</time>
      </trkpt>
      <trkpt lat="36.977965962141752" lon="-3.13185696490109">
        <ele>1123.9200000000001</ele>
        <time>2025-05-12T09:03:44Z</time>
      </trkpt>
      <trkpt lat="36.978111974895" lon="-3.130894973874092">
        <ele>1119.5899999999999</ele>
        <time>2025-05-12T09:03:49Z</time>
      </trkpt>
      <trkpt lat="36.978296963497996" lon="-3.130358029156923">
        <ele>1117.6700000000001</ele>
        <time>2025-05-12T09:03:52Z</time>
      </trkpt>
      <trkpt lat="36.978399977087975" lon="-3.130207993090153">
        <ele>1117.1900000000001</ele>
        <time>2025-05-12T09:03:53Z</time>
      </trkpt>
      <trkpt lat="36.978505002334714" lon="-3.130055023357272">
        <ele>1116.71</ele>
        <time>2025-05-12T09:03:54Z</time>
      </trkpt>
      <trkpt lat="36.978612039238214" lon="-3.129908004775643">
        <ele>1116.23</ele>
        <time>2025-05-12T09:03:55Z</time>
      </trkpt>
      <trkpt lat="36.97871002368629" lon="-3.129774983972311">
        <ele>1115.75</ele>
        <time>2025-05-12T09:03:56Z</time>
      </trkpt>
      <trkpt lat="36.978764003142715" lon="-3.129635006189346">
        <ele>1115.75</ele>
        <time>2025-05-12T09:03:57Z</time>
      </trkpt>
      <trkpt lat="36.97877598926425" lon="-3.129487987607718">
        <ele>1115.27</ele>
        <time>2025-05-12T09:03:58Z</time>
      </trkpt>
      <trkpt lat="36.97875302284956" lon="-3.129347003996372">
        <ele>1115.27</ele>
        <time>2025-05-12T09:03:59Z</time>
      </trkpt>
      <trkpt lat="36.978697031736374" lon="-3.129232004284859">
        <ele>1114.79</ele>
        <time>2025-05-12T09:04:00Z</time>
      </trkpt>
      <trkpt lat="36.978616984561086" lon="-3.129140976816416">
        <ele>1114.3099999999999</ele>
        <time>2025-05-12T09:04:01Z</time>
      </trkpt>
      <trkpt lat="36.978529980406165" lon="-3.129067970439792">
        <ele>1113.8199999999999</ele>
        <time>2025-05-12T09:04:02Z</time>
      </trkpt>
      <trkpt lat="36.978450017049909" lon="-3.128993036225438">
        <ele>1113.3399999999999</ele>
        <time>2025-05-12T09:04:03Z</time>
      </trkpt>
      <trkpt lat="36.978376004844904" lon="-3.128919024020433">
        <ele>1112.8599999999999</ele>
        <time>2025-05-12T09:04:04Z</time>
      </trkpt>
      <trkpt lat="36.978355972096324" lon="-3.128833025693893">
        <ele>1112.8599999999999</ele>
        <time>2025-05-12T09:04:05Z</time>
      </trkpt>
      <trkpt lat="36.978367958217859" lon="-3.128717020153999">
        <ele>1112.3800000000001</ele>
        <time>2025-05-12T09:04:06Z</time>
      </trkpt>
      <trkpt lat="36.978438030928373" lon="-3.128606965765357">
        <ele>1111.9000000000001</ele>
        <time>2025-05-12T09:04:07Z</time>
      </trkpt>
      <trkpt lat="36.978543978184462" lon="-3.128491966053844">
        <ele>1110.9400000000001</ele>
        <time>2025-05-12T09:04:08Z</time>
      </trkpt>
      <trkpt lat="36.978656966239214" lon="-3.128357017412782">
        <ele>1109.98</ele>
        <time>2025-05-12T09:04:09Z</time>
      </trkpt>
      <trkpt lat="36.978759979829192" lon="-3.128197006881237">
        <ele>1109.02</ele>
        <time>2025-05-12T09:04:10Z</time>
      </trkpt>
      <trkpt lat="36.978865005075932" lon="-3.128034984692931">
        <ele>1108.0599999999999</ele>
        <time>2025-05-12T09:04:11Z</time>
      </trkpt>
      <trkpt lat="36.978913033381104" lon="-3.127867011353374">
        <ele>1107.0999999999999</ele>
        <time>2025-05-12T09:04:12Z</time>
      </trkpt>
      <trkpt lat="36.978951003402472" lon="-3.127734996378422">
        <ele>1106.1300000000001</ele>
        <time>2025-05-12T09:04:13Z</time>
      </trkpt>
      <trkpt lat="36.978935999795794" lon="-3.127573980018497">
        <ele>1105.1700000000001</ele>
        <time>2025-05-12T09:04:14Z</time>
      </trkpt>
      <trkpt lat="36.978898029774427" lon="-3.127452023327351">
        <ele>1104.21</ele>
        <time>2025-05-12T09:04:15Z</time>
      </trkpt>
      <trkpt lat="36.978810019791126" lon="-3.127331994473934">
        <ele>1103.25</ele>
        <time>2025-05-12T09:04:16Z</time>
      </trkpt>
      <trkpt lat="36.978693008422852" lon="-3.127197967842221">
        <ele>1102.77</ele>
        <time>2025-05-12T09:04:17Z</time>
      </trkpt>
      <trkpt lat="36.978589994832873" lon="-3.127076011151075">
        <ele>1102.29</ele>
        <time>2025-05-12T09:04:18Z</time>
      </trkpt>
      <trkpt lat="36.978315990418196" lon="-3.126721037551761">
        <ele>1100.3699999999999</ele>
        <time>2025-05-12T09:04:21Z</time>
      </trkpt>
      <trkpt lat="36.978221023455262" lon="-3.126533031463623">
        <ele>1100.3699999999999</ele>
        <time>2025-05-12T09:04:22Z</time>
      </trkpt>
      <trkpt lat="36.97821700014174" lon="-3.126404033973813">
        <ele>1099.8900000000001</ele>
        <time>2025-05-12T09:04:23Z</time>
      </trkpt>
      <trkpt lat="36.978199984878302" lon="-3.125868011265993">
        <ele>1099.4000000000001</ele>
        <time>2025-05-12T09:04:26Z</time>
      </trkpt>
      <trkpt lat="36.978232003748417" lon="-3.125704983249307">
        <ele>1098.9200000000001</ele>
        <time>2025-05-12T09:04:27Z</time>
      </trkpt>
      <trkpt lat="36.978267040103674" lon="-3.125533992424607">
        <ele>1098.9200000000001</ele>
        <time>2025-05-12T09:04:28Z</time>
      </trkpt>
      <trkpt lat="36.97830299846828" lon="-3.125352021306753">
        <ele>1098.4400000000001</ele>
        <time>2025-05-12T09:04:29Z</time>
      </trkpt>
      <trkpt lat="36.978365024551749" lon="-3.125164015218616">
        <ele>1098.4400000000001</ele>
        <time>2025-05-12T09:04:30Z</time>
      </trkpt>
      <trkpt lat="36.97849603369832" lon="-3.124784985557199">
        <ele>1097.96</ele>
        <time>2025-05-12T09:04:32Z</time>
      </trkpt>
      <trkpt lat="36.978589994832873" lon="-3.124607959762216">
        <ele>1097.96</ele>
        <time>2025-05-12T09:04:33Z</time>
      </trkpt>
      <trkpt lat="36.979187959805131" lon="-3.123557036742568">
        <ele>1097.96</ele>
        <time>2025-05-12T09:04:40Z</time>
      </trkpt>
      <trkpt lat="36.979286028072238" lon="-3.123469026759267">
        <ele>1097.96</ele>
        <time>2025-05-12T09:04:41Z</time>
      </trkpt>
      <trkpt lat="36.979389041662216" lon="-3.123377999290824">
        <ele>1097.96</ele>
        <time>2025-05-12T09:04:42Z</time>
      </trkpt>
      <trkpt lat="36.9799580052495" lon="-3.122927974909544">
        <ele>1095.5599999999999</ele>
        <time>2025-05-12T09:04:47Z</time>
      </trkpt>
      <trkpt lat="36.980658983811736" lon="-3.122178968042135">
        <ele>1089.79</ele>
        <time>2025-05-12T09:04:56Z</time>
      </trkpt>
      <trkpt lat="36.98094598017633" lon="-3.121919967234135">
        <ele>1087.3900000000001</ele>
        <time>2025-05-12T09:05:00Z</time>
      </trkpt>
      <trkpt lat="36.980995014309883" lon="-3.121895994991064">
        <ele>1086.9100000000001</ele>
        <time>2025-05-12T09:05:01Z</time>
      </trkpt>
      <trkpt lat="36.981213027611375" lon="-3.121765991672874">
        <ele>1084.5</ele>
        <time>2025-05-12T09:05:05Z</time>
      </trkpt>
      <trkpt lat="36.981248985975981" lon="-3.121740007773042">
        <ele>1084.02</ele>
        <time>2025-05-12T09:05:06Z</time>
      </trkpt>
      <trkpt lat="36.981275975704193" lon="-3.121720980852842">
        <ele>1083.54</ele>
        <time>2025-05-12T09:05:07Z</time>
      </trkpt>
      <trkpt lat="36.981296008452773" lon="-3.121706983074546">
        <ele>1083.0599999999999</ele>
        <time>2025-05-12T09:05:08Z</time>
      </trkpt>
      <trkpt lat="36.98131000623107" lon="-3.121697008609772">
        <ele>1082.5799999999999</ele>
        <time>2025-05-12T09:05:09Z</time>
      </trkpt>
      <trkpt lat="36.98131000623107" lon="-3.121697008609772">
        <ele>1081.6199999999999</ele>
        <time>2025-05-12T09:05:22Z</time>
      </trkpt>
      <trkpt lat="36.981250997632742" lon="-3.121667001396418">
        <ele>1094.5999999999999</ele>
        <time>2025-05-12T09:46:16Z</time>
      </trkpt>
      <trkpt lat="36.981301959604025" lon="-3.121686028316617">
        <ele>1093.6400000000001</ele>
        <time>2025-05-12T09:47:01Z</time>
      </trkpt>
      <trkpt lat="36.981269018724561" lon="-3.121665995568037">
        <ele>1091.71</ele>
        <time>2025-05-12T09:47:42Z</time>
      </trkpt>
      <trkpt lat="36.981286033987999" lon="-3.12167395837605">
        <ele>1089.3099999999999</ele>
        <time>2025-05-12T09:47:54Z</time>
      </trkpt>
      <trkpt lat="36.981348982080817" lon="-3.121669013053179">
        <ele>1089.3099999999999</ele>
        <time>2025-05-12T09:47:58Z</time>
      </trkpt>
      <trkpt lat="36.981381000950933" lon="-3.121645962819457">
        <ele>1089.3099999999999</ele>
        <time>2025-05-12T09:47:59Z</time>
      </trkpt>
      <trkpt lat="36.981431040912867" lon="-3.121605981141329">
        <ele>1088.8299999999999</ele>
        <time>2025-05-12T09:48:00Z</time>
      </trkpt>
      <trkpt lat="36.981480997055769" lon="-3.121550995856524">
        <ele>1088.8299999999999</ele>
        <time>2025-05-12T09:48:01Z</time>
      </trkpt>
      <trkpt lat="36.981530031189322" lon="-3.121498022228479">
        <ele>1088.8299999999999</ele>
        <time>2025-05-12T09:48:02Z</time>
      </trkpt>
      <trkpt lat="36.981578981503844" lon="-3.121443958953023">
        <ele>1088.3499999999999</ele>
        <time>2025-05-12T09:48:03Z</time>
      </trkpt>
      <trkpt lat="36.98163203895092" lon="-3.121386040002108">
        <ele>1088.3499999999999</ele>
        <time>2025-05-12T09:48:04Z</time>
      </trkpt>
      <trkpt lat="36.981684006750584" lon="-3.121323008090258">
        <ele>1088.3499999999999</ele>
        <time>2025-05-12T09:48:05Z</time>
      </trkpt>
      <trkpt lat="36.981832031160593" lon="-3.121141958981752">
        <ele>1088.3499999999999</ele>
        <time>2025-05-12T09:48:08Z</time>
      </trkpt>
      <trkpt lat="36.982060018926859" lon="-3.120871977880597">
        <ele>1088.3499999999999</ele>
        <time>2025-05-12T09:48:12Z</time>
      </trkpt>
      <trkpt lat="36.982124978676438" lon="-3.120795032009482">
        <ele>1088.3499999999999</ele>
        <time>2025-05-12T09:48:13Z</time>
      </trkpt>
      <trkpt lat="36.982309967279434" lon="-3.120581964030862">
        <ele>1087.8699999999999</ele>
        <time>2025-05-12T09:48:16Z</time>
      </trkpt>
      <trkpt lat="36.982382973656058" lon="-3.120536031201482">
        <ele>1087.8699999999999</ele>
        <time>2025-05-12T09:48:17Z</time>
      </trkpt>
      <trkpt lat="36.982453968375921" lon="-3.12049001455307">
        <ele>1087.8699999999999</ele>
        <time>2025-05-12T09:48:18Z</time>
      </trkpt>
      <trkpt lat="36.982671981677413" lon="-3.120351964607835">
        <ele>1087.8699999999999</ele>
        <time>2025-05-12T09:48:21Z</time>
      </trkpt>
      <trkpt lat="36.982754040509462" lon="-3.120299996808171">
        <ele>1087.8699999999999</ele>
        <time>2025-05-12T09:48:22Z</time>
      </trkpt>
      <trkpt lat="36.982823023572564" lon="-3.120203018188477">
        <ele>1087.3900000000001</ele>
        <time>2025-05-12T09:48:23Z</time>
      </trkpt>
      <trkpt lat="36.982887983322144" lon="-3.120097992941737">
        <ele>1087.3900000000001</ele>
        <time>2025-05-12T09:48:24Z</time>
      </trkpt>
      <trkpt lat="36.982952021062374" lon="-3.119986010715365">
        <ele>1087.3900000000001</ele>
        <time>2025-05-12T09:48:25Z</time>
      </trkpt>
      <trkpt lat="36.983041958883405" lon="-3.119761040434241">
        <ele>1087.3900000000001</ele>
        <time>2025-05-12T09:48:27Z</time>
      </trkpt>
      <trkpt lat="36.98320004157722" lon="-3.119301963597536">
        <ele>1086.9100000000001</ele>
        <time>2025-05-12T09:48:32Z</time>
      </trkpt>
      <trkpt lat="36.983273969963193" lon="-3.119268016889691">
        <ele>1086.4300000000001</ele>
        <time>2025-05-12T09:48:33Z</time>
      </trkpt>
      <trkpt lat="36.983358040452003" lon="-3.119229041039944">
        <ele>1085.95</ele>
        <time>2025-05-12T09:48:34Z</time>
      </trkpt>
      <trkpt lat="36.983445966616273" lon="-3.119187969714403">
        <ele>1085.47</ele>
        <time>2025-05-12T09:48:35Z</time>
      </trkpt>
      <trkpt lat="36.983534982427955" lon="-3.119171038269997">
        <ele>1085.47</ele>
        <time>2025-05-12T09:48:36Z</time>
      </trkpt>
      <trkpt lat="36.983938990160823" lon="-3.119059978052974">
        <ele>1083.0599999999999</ele>
        <time>2025-05-12T09:48:41Z</time>
      </trkpt>
      <trkpt lat="36.984524969011545" lon="-3.118682960048318">
        <ele>1082.0999999999999</ele>
        <time>2025-05-12T09:48:47Z</time>
      </trkpt>
      <trkpt lat="36.984712975099683" lon="-3.118562009185553">
        <ele>1082.0999999999999</ele>
        <time>2025-05-12T09:48:49Z</time>
      </trkpt>
      <trkpt lat="36.984829986467957" lon="-3.118485985323787">
        <ele>1082.5799999999999</ele>
        <time>2025-05-12T09:48:50Z</time>
      </trkpt>
      <trkpt lat="36.985441027209163" lon="-3.117770003154874">
        <ele>1085.47</ele>
        <time>2025-05-12T09:48:59Z</time>
      </trkpt>
      <trkpt lat="36.985518978908658" lon="-3.117734966799617">
        <ele>1085.95</ele>
        <time>2025-05-12T09:49:00Z</time>
      </trkpt>
      <trkpt lat="36.985605983063579" lon="-3.117714012041688">
        <ele>1085.95</ele>
        <time>2025-05-12T09:49:01Z</time>
      </trkpt>
      <trkpt lat="36.985697010532022" lon="-3.117731027305126">
        <ele>1085.47</ele>
        <time>2025-05-12T09:49:02Z</time>
      </trkpt>
      <trkpt lat="36.985797006636858" lon="-3.117745025083423">
        <ele>1084.99</ele>
        <time>2025-05-12T09:49:03Z</time>
      </trkpt>
      <trkpt lat="36.985902031883597" lon="-3.117766985669732">
        <ele>1084.5</ele>
        <time>2025-05-12T09:49:04Z</time>
      </trkpt>
      <trkpt lat="36.986222974956036" lon="-3.11786999925971">
        <ele>1083.0599999999999</ele>
        <time>2025-05-12T09:49:07Z</time>
      </trkpt>
      <trkpt lat="36.986326994374394" lon="-3.117921967059374">
        <ele>1082.5799999999999</ele>
        <time>2025-05-12T09:49:08Z</time>
      </trkpt>
      <trkpt lat="36.986417016014457" lon="-3.118003020063043">
        <ele>1082.0999999999999</ele>
        <time>2025-05-12T09:49:09Z</time>
      </trkpt>
      <trkpt lat="36.986853964626789" lon="-3.118509035557509">
        <ele>1077.78</ele>
        <time>2025-05-12T09:49:14Z</time>
      </trkpt>
      <trkpt lat="36.986945997923613" lon="-3.118567960336804">
        <ele>1076.8099999999999</ele>
        <time>2025-05-12T09:49:15Z</time>
      </trkpt>
      <trkpt lat="36.98702503927052" lon="-3.118591010570526">
        <ele>1075.8499999999999</ele>
        <time>2025-05-12T09:49:16Z</time>
      </trkpt>
      <trkpt lat="36.987131992354989" lon="-3.118579024448991">
        <ele>1074.8900000000001</ele>
        <time>2025-05-12T09:49:17Z</time>
      </trkpt>
      <trkpt lat="36.987222013995051" lon="-3.118537031114101">
        <ele>1074.4100000000001</ele>
        <time>2025-05-12T09:49:18Z</time>
      </trkpt>
      <trkpt lat="36.987308012321591" lon="-3.118438040837646">
        <ele>1073.9300000000001</ele>
        <time>2025-05-12T09:49:19Z</time>
      </trkpt>
      <trkpt lat="36.987346988171339" lon="-3.118314994499087">
        <ele>1074.4100000000001</ele>
        <time>2025-05-12T09:49:20Z</time>
      </trkpt>
      <trkpt lat="36.987359980121255" lon="-3.118156995624304">
        <ele>1074.8900000000001</ele>
        <time>2025-05-12T09:49:21Z</time>
      </trkpt>
      <trkpt lat="36.98737196624279" lon="-3.11799799092114">
        <ele>1075.3699999999999</ele>
        <time>2025-05-12T09:49:22Z</time>
      </trkpt>
      <trkpt lat="36.987384036183357" lon="-3.117833035066724">
        <ele>1075.8499999999999</ele>
        <time>2025-05-12T09:49:23Z</time>
      </trkpt>
      <trkpt lat="36.987384036183357" lon="-3.117669001221657">
        <ele>1076.8099999999999</ele>
        <time>2025-05-12T09:49:24Z</time>
      </trkpt>
      <trkpt lat="36.987399039790034" lon="-3.117522988468409">
        <ele>1077.29</ele>
        <time>2025-05-12T09:49:25Z</time>
      </trkpt>
      <trkpt lat="36.98745796456933" lon="-3.117391979321837">
        <ele>1077.29</ele>
        <time>2025-05-12T09:49:26Z</time>
      </trkpt>
      <trkpt lat="36.987549997866154" lon="-3.117328025400639">
        <ele>1078.26</ele>
        <time>2025-05-12T09:49:27Z</time>
      </trkpt>
      <trkpt lat="36.98764999397099" lon="-3.117258958518505">
        <ele>1078.74</ele>
        <time>2025-05-12T09:49:28Z</time>
      </trkpt>
      <trkpt lat="36.987772034481168" lon="-3.117229035124183">
        <ele>1079.22</ele>
        <time>2025-05-12T09:49:29Z</time>
      </trkpt>
      <trkpt lat="36.987888040021062" lon="-3.117244960740209">
        <ele>1079.7</ele>
        <time>2025-05-12T09:49:30Z</time>
      </trkpt>
      <trkpt lat="36.98801402002573" lon="-3.117261976003647">
        <ele>1080.1800000000001</ele>
        <time>2025-05-12T09:49:31Z</time>
      </trkpt>
      <trkpt lat="36.988148968666792" lon="-3.117279997095466">
        <ele>1080.1800000000001</ele>
        <time>2025-05-12T09:49:32Z</time>
      </trkpt>
      <trkpt lat="36.988290036097169" lon="-3.117299024015665">
        <ele>1080.6600000000001</ele>
        <time>2025-05-12T09:49:33Z</time>
      </trkpt>
      <trkpt lat="36.988421967253089" lon="-3.117316961288452">
        <ele>1081.1400000000001</ele>
        <time>2025-05-12T09:49:34Z</time>
      </trkpt>
      <trkpt lat="36.988545013591647" lon="-3.117348980158567">
        <ele>1081.6199999999999</ele>
        <time>2025-05-12T09:49:35Z</time>
      </trkpt>
      <trkpt lat="36.988654984161258" lon="-3.117401031777263">
        <ele>1081.6199999999999</ele>
        <time>2025-05-12T09:49:36Z</time>
      </trkpt>
      <trkpt lat="36.9887650385499" lon="-3.117452999576926">
        <ele>1081.1400000000001</ele>
        <time>2025-05-12T09:49:37Z</time>
      </trkpt>
      <trkpt lat="36.988864028826356" lon="-3.117499016225338">
        <ele>1081.1400000000001</ele>
        <time>2025-05-12T09:49:38Z</time>
      </trkpt>
      <trkpt lat="36.988958995789289" lon="-3.117475965991616">
        <ele>1081.1400000000001</ele>
        <time>2025-05-12T09:49:39Z</time>
      </trkpt>
      <trkpt lat="36.989038959145546" lon="-3.117451993748546">
        <ele>1080.6600000000001</ele>
        <time>2025-05-12T09:49:40Z</time>
      </trkpt>
      <trkpt lat="36.989099979400635" lon="-3.117348980158567">
        <ele>1081.1400000000001</ele>
        <time>2025-05-12T09:49:41Z</time>
      </trkpt>
      <trkpt lat="36.989115988835692" lon="-3.117272034287453">
        <ele>1081.1400000000001</ele>
        <time>2025-05-12T09:49:42Z</time>
      </trkpt>
      <trkpt lat="36.989225959405303" lon="-3.116724025458098">
        <ele>1081.6199999999999</ele>
        <time>2025-05-12T09:49:46Z</time>
      </trkpt>
      <trkpt lat="36.989294020459056" lon="-3.116586981341243">
        <ele>1082.0999999999999</ele>
        <time>2025-05-12T09:49:47Z</time>
      </trkpt>
      <trkpt lat="36.989369038492441" lon="-3.1164510268718">
        <ele>1083.0599999999999</ele>
        <time>2025-05-12T09:49:48Z</time>
      </trkpt>
      <trkpt lat="36.989591997116804" lon="-3.116064034402371">
        <ele>1084.5</ele>
        <time>2025-05-12T09:49:51Z</time>
      </trkpt>
      <trkpt lat="36.989680007100105" lon="-3.115975018590689">
        <ele>1084.5</ele>
        <time>2025-05-12T09:49:52Z</time>
      </trkpt>
      <trkpt lat="36.989787966012955" lon="-3.115910980850458">
        <ele>1084.5</ele>
        <time>2025-05-12T09:49:53Z</time>
      </trkpt>
      <trkpt lat="36.989900032058358" lon="-3.115874016657472">
        <ele>1084.02</ele>
        <time>2025-05-12T09:49:54Z</time>
      </trkpt>
      <trkpt lat="36.989992987364531" lon="-3.115880973637104">
        <ele>1084.02</ele>
        <time>2025-05-12T09:49:55Z</time>
      </trkpt>
      <trkpt lat="36.990090971812606" lon="-3.115897988900542">
        <ele>1084.02</ele>
        <time>2025-05-12T09:49:56Z</time>
      </trkpt>
      <trkpt lat="36.990187028422952" lon="-3.115917015820742">
        <ele>1083.54</ele>
        <time>2025-05-12T09:49:57Z</time>
      </trkpt>
      <trkpt lat="36.990285012871027" lon="-3.115958003327251">
        <ele>1083.0599999999999</ele>
        <time>2025-05-12T09:49:58Z</time>
      </trkpt>
      <trkpt lat="36.990381991490722" lon="-3.115997985005379">
        <ele>1082.5799999999999</ele>
        <time>2025-05-12T09:49:59Z</time>
      </trkpt>
      <trkpt lat="36.990476958453655" lon="-3.115991028025746">
        <ele>1082.0999999999999</ele>
        <time>2025-05-12T09:50:00Z</time>
      </trkpt>
      <trkpt lat="36.990545019507408" lon="-3.11593403108418">
        <ele>1082.0999999999999</ele>
        <time>2025-05-12T09:50:01Z</time>
      </trkpt>
      <trkpt lat="36.99057200923562" lon="-3.115851972252131">
        <ele>1082.0999999999999</ele>
        <time>2025-05-12T09:50:02Z</time>
      </trkpt>
      <trkpt lat="36.990569997578859" lon="-3.115750970318914">
        <ele>1082.5799999999999</ele>
        <time>2025-05-12T09:50:03Z</time>
      </trkpt>
      <trkpt lat="36.990551976487041" lon="-3.115621972829104">
        <ele>1083.0599999999999</ele>
        <time>2025-05-12T09:50:04Z</time>
      </trkpt>
      <trkpt lat="36.990531021729112" lon="-3.115478977560997">
        <ele>1083.54</ele>
        <time>2025-05-12T09:50:05Z</time>
      </trkpt>
      <trkpt lat="36.990395989269018" lon="-3.114962987601757">
        <ele>1084.99</ele>
        <time>2025-05-12T09:50:08Z</time>
      </trkpt>
      <trkpt lat="36.990330023691058" lon="-3.114798031747341">
        <ele>1084.99</ele>
        <time>2025-05-12T09:50:09Z</time>
      </trkpt>
      <trkpt lat="36.990123996511102" lon="-3.114400980994105">
        <ele>1083.54</ele>
        <time>2025-05-12T09:50:12Z</time>
      </trkpt>
      <trkpt lat="36.990089965984225" lon="-3.114267960190773">
        <ele>1083.0599999999999</ele>
        <time>2025-05-12T09:50:13Z</time>
      </trkpt>
      <trkpt lat="36.990117961540818" lon="-3.114120019599795">
        <ele>1082.5799999999999</ele>
        <time>2025-05-12T09:50:14Z</time>
      </trkpt>
      <trkpt lat="36.990218041464686" lon="-3.11359397135675">
        <ele>1080.6600000000001</ele>
        <time>2025-05-12T09:50:17Z</time>
      </trkpt>
      <trkpt lat="36.990221980959177" lon="-3.113433038815856">
        <ele>1080.1800000000001</ele>
        <time>2025-05-12T09:50:18Z</time>
      </trkpt>
      <trkpt lat="36.990166995674372" lon="-3.113288031890988">
        <ele>1079.7</ele>
        <time>2025-05-12T09:50:19Z</time>
      </trkpt>
      <trkpt lat="36.990085020661354" lon="-3.113145958632231">
        <ele>1079.7</ele>
        <time>2025-05-12T09:50:20Z</time>
      </trkpt>
      <trkpt lat="36.989999022334814" lon="-3.112998018041253">
        <ele>1079.22</ele>
        <time>2025-05-12T09:50:21Z</time>
      </trkpt>
      <trkpt lat="36.98964798822999" lon="-3.112441962584853">
        <ele>1077.78</ele>
        <time>2025-05-12T09:50:25Z</time>
      </trkpt>
      <trkpt lat="36.989613035693765" lon="-3.112311959266663">
        <ele>1077.29</ele>
        <time>2025-05-12T09:50:26Z</time>
      </trkpt>
      <trkpt lat="36.989611024037004" lon="-3.112182039767504">
        <ele>1076.8099999999999</ele>
        <time>2025-05-12T09:50:27Z</time>
      </trkpt>
      <trkpt lat="36.989648994058371" lon="-3.112070979550481">
        <ele>1076.3299999999999</ele>
        <time>2025-05-12T09:50:28Z</time>
      </trkpt>
      <trkpt lat="36.989700961858034" lon="-3.111984981223941">
        <ele>1075.8499999999999</ele>
        <time>2025-05-12T09:50:29Z</time>
      </trkpt>
      <trkpt lat="36.98979701846838" lon="-3.111929995939136">
        <ele>1075.3699999999999</ele>
        <time>2025-05-12T09:50:30Z</time>
      </trkpt>
      <trkpt lat="36.989882010966539" lon="-3.111913986504078">
        <ele>1074.8900000000001</ele>
        <time>2025-05-12T09:50:31Z</time>
      </trkpt>
      <trkpt lat="36.989976977929473" lon="-3.111958997324109">
        <ele>1073.9300000000001</ele>
        <time>2025-05-12T09:50:32Z</time>
      </trkpt>
      <trkpt lat="36.990088960155845" lon="-3.112011970952153">
        <ele>1073.45</ele>
        <time>2025-05-12T09:50:33Z</time>
      </trkpt>
      <trkpt lat="36.990218041464686" lon="-3.112073997035623">
        <ele>1072.49</ele>
        <time>2025-05-12T09:50:34Z</time>
      </trkpt>
      <trkpt lat="36.990345027297735" lon="-3.112135017290711">
        <ele>1071.53</ele>
        <time>2025-05-12T09:50:35Z</time>
      </trkpt>
      <trkpt lat="36.990510988980532" lon="-3.112151026725769">
        <ele>1070.0799999999999</ele>
        <time>2025-05-12T09:50:36Z</time>
      </trkpt>
      <trkpt lat="36.990665970370173" lon="-3.112167036160827">
        <ele>1069.1199999999999</ele>
        <time>2025-05-12T09:50:37Z</time>
      </trkpt>
      <trkpt lat="36.990804020315409" lon="-3.112157983705401">
        <ele>1067.6800000000001</ele>
        <time>2025-05-12T09:50:38Z</time>
      </trkpt>
      <trkpt lat="36.990908961743116" lon="-3.112087994813919">
        <ele>1066.24</ele>
        <time>2025-05-12T09:50:39Z</time>
      </trkpt>
      <trkpt lat="36.990985991433263" lon="-3.112007025629282">
        <ele>1065.28</ele>
        <time>2025-05-12T09:50:40Z</time>
      </trkpt>
      <trkpt lat="36.991037037223577" lon="-3.111892025917769">
        <ele>1064.8</ele>
        <time>2025-05-12T09:50:41Z</time>
      </trkpt>
      <trkpt lat="36.99108699336648" lon="-3.111779037863016">
        <ele>1064.8</ele>
        <time>2025-05-12T09:50:42Z</time>
      </trkpt>
      <trkpt lat="36.991138961166143" lon="-3.111663032323122">
        <ele>1064.3199999999999</ele>
        <time>2025-05-12T09:50:43Z</time>
      </trkpt>
      <trkpt lat="36.991224959492683" lon="-3.111567981541157">
        <ele>1064.3199999999999</ele>
        <time>2025-05-12T09:50:44Z</time>
      </trkpt>
      <trkpt lat="36.991326967254281" lon="-3.111455999314785">
        <ele>1064.3199999999999</ele>
        <time>2025-05-12T09:50:45Z</time>
      </trkpt>
      <trkpt lat="36.991448001936078" lon="-3.111364971846342">
        <ele>1063.8399999999999</ele>
        <time>2025-05-12T09:50:46Z</time>
      </trkpt>
      <trkpt lat="36.991583034396172" lon="-3.111276961863041">
        <ele>1063.3599999999999</ele>
        <time>2025-05-12T09:50:47Z</time>
      </trkpt>
      <trkpt lat="36.991726029664278" lon="-3.111183000728488">
        <ele>1062.8699999999999</ele>
        <time>2025-05-12T09:50:48Z</time>
      </trkpt>
      <trkpt lat="36.991873970255256" lon="-3.111086022108793">
        <ele>1061.9100000000001</ele>
        <time>2025-05-12T09:50:49Z</time>
      </trkpt>
      <trkpt lat="36.992009002715349" lon="-3.110975967720151">
        <ele>1061.4300000000001</ele>
        <time>2025-05-12T09:50:50Z</time>
      </trkpt>
      <trkpt lat="36.992128025740385" lon="-3.110851999372244">
        <ele>1060.47</ele>
        <time>2025-05-12T09:50:51Z</time>
      </trkpt>
      <trkpt lat="36.992232967168093" lon="-3.110675979405642">
        <ele>1059.99</ele>
        <time>2025-05-12T09:50:52Z</time>
      </trkpt>
      <trkpt lat="36.992293987423182" lon="-3.110520998016">
        <ele>1059.51</ele>
        <time>2025-05-12T09:50:53Z</time>
      </trkpt>
      <trkpt lat="36.992356013506651" lon="-3.110364004969597">
        <ele>1058.55</ele>
        <time>2025-05-12T09:50:54Z</time>
      </trkpt>
      <trkpt lat="36.992408987134695" lon="-3.110226960852742">
        <ele>1058.0699999999999</ele>
        <time>2025-05-12T09:50:55Z</time>
      </trkpt>
      <trkpt lat="36.992455003783107" lon="-3.11011103913188">
        <ele>1057.5899999999999</ele>
        <time>2025-05-12T09:50:56Z</time>
      </trkpt>
      <trkpt lat="36.992514012381434" lon="-3.11002797447145">
        <ele>1057.1099999999999</ele>
        <time>2025-05-12T09:50:57Z</time>
      </trkpt>
      <trkpt lat="36.992587018758059" lon="-3.109950022771955">
        <ele>1056.1500000000001</ele>
        <time>2025-05-12T09:50:58Z</time>
      </trkpt>
      <trkpt lat="36.992663964629173" lon="-3.109866958111525">
        <ele>1055.6700000000001</ele>
        <time>2025-05-12T09:50:59Z</time>
      </trkpt>
      <trkpt lat="36.992754992097616" lon="-3.10976997949183">
        <ele>1055.1800000000001</ele>
        <time>2025-05-12T09:51:00Z</time>
      </trkpt>
      <trkpt lat="36.992829004302621" lon="-3.109642993658781">
        <ele>1054.22</ele>
        <time>2025-05-12T09:51:01Z</time>
      </trkpt>
      <trkpt lat="36.992889018729329" lon="-3.109503015875816">
        <ele>1053.74</ele>
        <time>2025-05-12T09:51:02Z</time>
      </trkpt>
      <trkpt lat="36.992945009842515" lon="-3.109372006729245">
        <ele>1052.78</ele>
        <time>2025-05-12T09:51:03Z</time>
      </trkpt>
      <trkpt lat="36.992997983470559" lon="-3.109268993139267">
        <ele>1052.3</ele>
        <time>2025-05-12T09:51:04Z</time>
      </trkpt>
      <trkpt lat="36.993073001503944" lon="-3.109201015904546">
        <ele>1051.8199999999999</ele>
        <time>2025-05-12T09:51:05Z</time>
      </trkpt>
      <trkpt lat="36.993145002052188" lon="-3.109136978164315">
        <ele>1050.8599999999999</ele>
        <time>2025-05-12T09:51:06Z</time>
      </trkpt>
      <trkpt lat="36.993333008140326" lon="-3.108970010653138">
        <ele>1048.9400000000001</ele>
        <time>2025-05-12T09:51:09Z</time>
      </trkpt>
      <trkpt lat="36.993399979546666" lon="-3.10893296264112">
        <ele>1048.45</ele>
        <time>2025-05-12T09:51:10Z</time>
      </trkpt>
      <trkpt lat="36.993474997580051" lon="-3.108920976519585">
        <ele>1047.97</ele>
        <time>2025-05-12T09:51:11Z</time>
      </trkpt>
      <trkpt lat="36.993552027270198" lon="-3.108947966247797">
        <ele>1047.49</ele>
        <time>2025-05-12T09:51:12Z</time>
      </trkpt>
      <trkpt lat="36.993627967312932" lon="-3.108992977067828">
        <ele>1047.01</ele>
        <time>2025-05-12T09:51:13Z</time>
      </trkpt>
      <trkpt lat="36.993709020316601" lon="-3.109042011201382">
        <ele>1047.01</ele>
        <time>2025-05-12T09:51:14Z</time>
      </trkpt>
      <trkpt lat="36.993790995329618" lon="-3.109091967344284">
        <ele>1046.53</ele>
        <time>2025-05-12T09:51:15Z</time>
      </trkpt>
      <trkpt lat="36.993874981999397" lon="-3.109142007306218">
        <ele>1046.05</ele>
        <time>2025-05-12T09:51:16Z</time>
      </trkpt>
      <trkpt lat="36.993953017517924" lon="-3.109168997034431">
        <ele>1045.0899999999999</ele>
        <time>2025-05-12T09:51:17Z</time>
      </trkpt>
      <trkpt lat="36.994035998359323" lon="-3.109151981770992">
        <ele>1044.6099999999999</ele>
        <time>2025-05-12T09:51:18Z</time>
      </trkpt>
      <trkpt lat="36.994084026664495" lon="-3.109108982607722">
        <ele>1043.6500000000001</ele>
        <time>2025-05-12T09:51:19Z</time>
      </trkpt>
      <trkpt lat="36.994128031656146" lon="-3.109071012586355">
        <ele>1043.1700000000001</ele>
        <time>2025-05-12T09:51:20Z</time>
      </trkpt>
      <trkpt lat="36.994168013334274" lon="-3.109034970402718">
        <ele>1042.6900000000001</ele>
        <time>2025-05-12T09:51:21Z</time>
      </trkpt>
      <trkpt lat="36.994196008890867" lon="-3.109009992331266">
        <ele>1042.21</ele>
        <time>2025-05-12T09:51:22Z</time>
      </trkpt>
      <trkpt lat="36.99422299861908" lon="-3.108986020088196">
        <ele>1041.73</ele>
        <time>2025-05-12T09:51:23Z</time>
      </trkpt>
      <trkpt lat="36.994242025539279" lon="-3.108980990946293">
        <ele>1041.25</ele>
        <time>2025-05-12T09:51:24Z</time>
      </trkpt>
      <trkpt lat="36.994242025539279" lon="-3.108980990946293">
        <ele>1038.8399999999999</ele>
        <time>2025-05-12T09:51:36Z</time>
      </trkpt>
      <trkpt lat="36.994242025539279" lon="-3.108980990946293">
        <ele>1038.3599999999999</ele>
        <time>2025-05-12T09:52:25Z</time>
      </trkpt>
      <trkpt lat="36.994242025539279" lon="-3.108980990946293">
        <ele>1037.4000000000001</ele>
        <time>2025-05-12T09:53:20Z</time>
      </trkpt>
      <trkpt lat="36.994242025539279" lon="-3.108980990946293">
        <ele>1037.8800000000001</ele>
        <time>2025-05-12T09:54:20Z</time>
      </trkpt>
      <trkpt lat="36.994242025539279" lon="-3.108980990946293">
        <ele>1037.8800000000001</ele>
        <time>2025-05-12T09:55:05Z</time>
      </trkpt>
      <trkpt lat="36.99428703635931" lon="-3.108980990946293">
        <ele>1037.8800000000001</ele>
        <time>2025-05-12T09:55:06Z</time>
      </trkpt>
      <trkpt lat="36.994506977498531" lon="-3.109062965959311">
        <ele>1037.4000000000001</ele>
        <time>2025-05-12T09:55:10Z</time>
      </trkpt>
      <trkpt lat="36.994560034945607" lon="-3.109096996486187">
        <ele>1037.4000000000001</ele>
        <time>2025-05-12T09:55:11Z</time>
      </trkpt>
      <trkpt lat="36.994706969708204" lon="-3.109184000641108">
        <ele>1037.4000000000001</ele>
        <time>2025-05-12T09:55:14Z</time>
      </trkpt>
      <trkpt lat="36.994764972478151" lon="-3.109205961227417">
        <ele>1037.4000000000001</ele>
        <time>2025-05-12T09:55:15Z</time>
      </trkpt>
      <trkpt lat="36.99482599273324" lon="-3.109229011461139">
        <ele>1037.4000000000001</ele>
        <time>2025-05-12T09:55:16Z</time>
      </trkpt>
      <trkpt lat="36.994882989674807" lon="-3.109224988147616">
        <ele>1037.4000000000001</ele>
        <time>2025-05-12T09:55:17Z</time>
      </trkpt>
      <trkpt lat="36.994948033243418" lon="-3.109200010076165">
        <ele>1037.4000000000001</ele>
        <time>2025-05-12T09:55:18Z</time>
      </trkpt>
      <trkpt lat="36.994998995214701" lon="-3.109133960679174">
        <ele>1037.8800000000001</ele>
        <time>2025-05-12T09:55:19Z</time>
      </trkpt>
      <trkpt lat="36.995064038783312" lon="-3.109036982059479">
        <ele>1037.8800000000001</ele>
        <time>2025-05-12T09:55:20Z</time>
      </trkpt>
      <trkpt lat="36.995131010189652" lon="-3.108935980126262">
        <ele>1038.3599999999999</ele>
        <time>2025-05-12T09:55:21Z</time>
      </trkpt>
      <trkpt lat="36.99525598436594" lon="-3.108720984309912">
        <ele>1039.3199999999999</ele>
        <time>2025-05-12T09:55:23Z</time>
      </trkpt>
      <trkpt lat="36.995245004072785" lon="-3.108611013740301">
        <ele>1040.28</ele>
        <time>2025-05-12T09:55:24Z</time>
      </trkpt>
      <trkpt lat="36.995216002687812" lon="-3.108486039564014">
        <ele>1040.76</ele>
        <time>2025-05-12T09:55:25Z</time>
      </trkpt>
      <trkpt lat="36.995150959119201" lon="-3.108356958255172">
        <ele>1040.76</ele>
        <time>2025-05-12T09:55:26Z</time>
      </trkpt>
      <trkpt lat="36.995077030733228" lon="-3.108210023492575">
        <ele>1040.28</ele>
        <time>2025-05-12T09:55:27Z</time>
      </trkpt>
      <trkpt lat="36.994968988001347" lon="-3.107925038784742">
        <ele>1039.3199999999999</ele>
        <time>2025-05-12T09:55:29Z</time>
      </trkpt>
      <trkpt lat="36.99493101797998" lon="-3.107773996889591">
        <ele>1038.8399999999999</ele>
        <time>2025-05-12T09:55:30Z</time>
      </trkpt>
      <trkpt lat="36.9949109852314" lon="-3.10759998857975">
        <ele>1038.3599999999999</ele>
        <time>2025-05-12T09:55:31Z</time>
      </trkpt>
      <trkpt lat="36.994881983846426" lon="-3.107422962784767">
        <ele>1037.8800000000001</ele>
        <time>2025-05-12T09:55:32Z</time>
      </trkpt>
      <trkpt lat="36.994822975248098" lon="-3.107250966131687">
        <ele>1037.8800000000001</ele>
        <time>2025-05-12T09:55:33Z</time>
      </trkpt>
      <trkpt lat="36.994763966649771" lon="-3.107078969478607">
        <ele>1036.9200000000001</ele>
        <time>2025-05-12T09:55:34Z</time>
      </trkpt>
      <trkpt lat="36.994703030213714" lon="-3.106901021674275">
        <ele>1036.4400000000001</ele>
        <time>2025-05-12T09:55:35Z</time>
      </trkpt>
      <trkpt lat="36.994639998301864" lon="-3.106709998100996">
        <ele>1035.96</ele>
        <time>2025-05-12T09:55:36Z</time>
      </trkpt>
      <trkpt lat="36.99452399276197" lon="-3.10631001368165">
        <ele>1034.04</ele>
        <time>2025-05-12T09:55:38Z</time>
      </trkpt>
      <trkpt lat="36.994449980556965" lon="-3.106123013421893">
        <ele>1033.55</ele>
        <time>2025-05-12T09:55:39Z</time>
      </trkpt>
      <trkpt lat="36.994376974180341" lon="-3.105954034253955">
        <ele>1032.5899999999999</ele>
        <time>2025-05-12T09:55:40Z</time>
      </trkpt>
      <trkpt lat="36.994314026087523" lon="-3.105810033157468">
        <ele>1031.6300000000001</ele>
        <time>2025-05-12T09:55:41Z</time>
      </trkpt>
      <trkpt lat="36.994300028309226" lon="-3.105697967112064">
        <ele>1030.6700000000001</ele>
        <time>2025-05-12T09:55:42Z</time>
      </trkpt>
      <trkpt lat="36.994310002774" lon="-3.105589002370834">
        <ele>1029.71</ele>
        <time>2025-05-12T09:55:43Z</time>
      </trkpt>
      <trkpt lat="36.994346966966987" lon="-3.105527982115746">
        <ele>1029.23</ele>
        <time>2025-05-12T09:55:44Z</time>
      </trkpt>
      <trkpt lat="36.994431959465146" lon="-3.105474002659321">
        <ele>1028.27</ele>
        <time>2025-05-12T09:55:45Z</time>
      </trkpt>
      <trkpt lat="36.994532961398363" lon="-3.105435026809573">
        <ele>1027.3099999999999</ele>
        <time>2025-05-12T09:55:46Z</time>
      </trkpt>
      <trkpt lat="36.994664976373315" lon="-3.105420023202896">
        <ele>1026.3399999999999</ele>
        <time>2025-05-12T09:55:47Z</time>
      </trkpt>
      <trkpt lat="36.994801014661789" lon="-3.105405019596219">
        <ele>1025.3800000000001</ele>
        <time>2025-05-12T09:55:48Z</time>
      </trkpt>
      <trkpt lat="36.994922971352935" lon="-3.105422034859657">
        <ele>1024.4200000000001</ele>
        <time>2025-05-12T09:55:49Z</time>
      </trkpt>
      <trkpt lat="36.995035037398338" lon="-3.105478025972843">
        <ele>1023.46</ele>
        <time>2025-05-12T09:55:50Z</time>
      </trkpt>
      <trkpt lat="36.995145007967949" lon="-3.105533011257649">
        <ele>1022.5</ele>
        <time>2025-05-12T09:55:51Z</time>
      </trkpt>
      <trkpt lat="36.995250033214688" lon="-3.105585984885693">
        <ele>1021.0599999999999</ele>
        <time>2025-05-12T09:55:52Z</time>
      </trkpt>
      <trkpt lat="36.995334019884467" lon="-3.105591014027596">
        <ele>1019.62</ele>
        <time>2025-05-12T09:55:53Z</time>
      </trkpt>
      <trkpt lat="36.995423035696149" lon="-3.105530999600887">
        <ele>1018.17</ele>
        <time>2025-05-12T09:55:54Z</time>
      </trkpt>
      <trkpt lat="36.995509034022689" lon="-3.105456987395883">
        <ele>1016.73</ele>
        <time>2025-05-12T09:55:55Z</time>
      </trkpt>
      <trkpt lat="36.995572987943888" lon="-3.105341987684369">
        <ele>1015.29</ele>
        <time>2025-05-12T09:55:56Z</time>
      </trkpt>
      <trkpt lat="36.995595032349229" lon="-3.10521500185132">
        <ele>1013.85</ele>
        <time>2025-05-12T09:55:57Z</time>
      </trkpt>
      <trkpt lat="36.995572987943888" lon="-3.105055997148156">
        <ele>1012.41</ele>
        <time>2025-05-12T09:55:58Z</time>
      </trkpt>
      <trkpt lat="36.995510039851069" lon="-3.104887017980218">
        <ele>1011.9299999999999</ele>
        <time>2025-05-12T09:55:59Z</time>
      </trkpt>
      <trkpt lat="36.995432004332542" lon="-3.104704041033983">
        <ele>1011.9299999999999</ele>
        <time>2025-05-12T09:56:00Z</time>
      </trkpt>
      <trkpt lat="36.995310969650745" lon="-3.104533972218633">
        <ele>1012.41</ele>
        <time>2025-05-12T09:56:01Z</time>
      </trkpt>
      <trkpt lat="36.995181972160935" lon="-3.10435401275754">
        <ele>1012.89</ele>
        <time>2025-05-12T09:56:02Z</time>
      </trkpt>
      <trkpt lat="36.994615020230412" lon="-3.103738026693463">
        <ele>1012.89</ele>
        <time>2025-05-12T09:56:06Z</time>
      </trkpt>
      <trkpt lat="36.994488034397364" lon="-3.10362302698195">
        <ele>1012.41</ele>
        <time>2025-05-12T09:56:07Z</time>
      </trkpt>
      <trkpt lat="36.994377980008721" lon="-3.103522025048733">
        <ele>1011.4400000000001</ele>
        <time>2025-05-12T09:56:08Z</time>
      </trkpt>
      <trkpt lat="36.994292987510562" lon="-3.103444995358586">
        <ele>1010.96</ele>
        <time>2025-05-12T09:56:09Z</time>
      </trkpt>
      <trkpt lat="36.994272032752633" lon="-3.103335024788976">
        <ele>1009.52</ele>
        <time>2025-05-12T09:56:10Z</time>
      </trkpt>
      <trkpt lat="36.99424303136766" lon="-3.103180965408683">
        <ele>1008.5599999999999</ele>
        <time>2025-05-12T09:56:11Z</time>
      </trkpt>
      <trkpt lat="36.994211012497544" lon="-3.103011986240745">
        <ele>1007.6</ele>
        <time>2025-05-12T09:56:12Z</time>
      </trkpt>
      <trkpt lat="36.994176981970668" lon="-3.102836972102523">
        <ele>1006.16</ele>
        <time>2025-05-12T09:56:13Z</time>
      </trkpt>
      <trkpt lat="36.994144041091204" lon="-3.102661035954952">
        <ele>1005.2</ele>
        <time>2025-05-12T09:56:14Z</time>
      </trkpt>
      <trkpt lat="36.99409400112927" lon="-3.102480992674828">
        <ele>1004.23</ele>
        <time>2025-05-12T09:56:15Z</time>
      </trkpt>
      <trkpt lat="36.993918986991048" lon="-3.102117972448468">
        <ele>1001.83</ele>
        <time>2025-05-12T09:56:17Z</time>
      </trkpt>
      <trkpt lat="36.99381303973496" lon="-3.101952010765672">
        <ele>1000.87</ele>
        <time>2025-05-12T09:56:18Z</time>
      </trkpt>
      <trkpt lat="36.993625033646822" lon="-3.101656967774034">
        <ele>998.47000000000003</ele>
        <time>2025-05-12T09:56:20Z</time>
      </trkpt>
      <trkpt lat="36.993560995906591" lon="-3.101528976112604">
        <ele>997.50999999999999</ele>
        <time>2025-05-12T09:56:21Z</time>
      </trkpt>
      <trkpt lat="36.993556972593069" lon="-3.101405007764697">
        <ele>996.53999999999996</ele>
        <time>2025-05-12T09:56:22Z</time>
      </trkpt>
      <trkpt lat="36.99360097758472" lon="-3.101321021094918">
        <ele>994.62</ele>
        <time>2025-05-12T09:56:23Z</time>
      </trkpt>
      <trkpt lat="36.993672978132963" lon="-3.101241979748011">
        <ele>993.17999999999995</ele>
        <time>2025-05-12T09:56:24Z</time>
      </trkpt>
      <trkpt lat="36.993752019479871" lon="-3.10115396976471">
        <ele>991.74000000000001</ele>
        <time>2025-05-12T09:56:25Z</time>
      </trkpt>
      <trkpt lat="36.993802981451154" lon="-3.101042993366718">
        <ele>990.77999999999997</ele>
        <time>2025-05-12T09:56:26Z</time>
      </trkpt>
      <trkpt lat="36.993841035291553" lon="-3.100934028625488">
        <ele>989.33000000000004</ele>
        <time>2025-05-12T09:56:27Z</time>
      </trkpt>
      <trkpt lat="36.993829971179366" lon="-3.100821962580085">
        <ele>988.37</ele>
        <time>2025-05-12T09:56:28Z</time>
      </trkpt>
      <trkpt lat="36.993821002542973" lon="-3.100719032809138">
        <ele>987.40999999999997</ele>
        <time>2025-05-12T09:56:29Z</time>
      </trkpt>
      <trkpt lat="36.993744978681207" lon="-3.100664969533682">
        <ele>986.45000000000005</ele>
        <time>2025-05-12T09:56:30Z</time>
      </trkpt>
      <trkpt lat="36.993656968697906" lon="-3.100600009784102">
        <ele>985.49000000000001</ele>
        <time>2025-05-12T09:56:31Z</time>
      </trkpt>
      <trkpt lat="36.993570970371366" lon="-3.100525997579098">
        <ele>984.52999999999997</ele>
        <time>2025-05-12T09:56:32Z</time>
      </trkpt>
      <trkpt lat="36.993510033935308" lon="-3.100446034222841">
        <ele>983.57000000000005</ele>
        <time>2025-05-12T09:56:33Z</time>
      </trkpt>
      <trkpt lat="36.993480026721954" lon="-3.100322987884283">
        <ele>982.60000000000002</ele>
        <time>2025-05-12T09:56:34Z</time>
      </trkpt>
      <trkpt lat="36.993507016450167" lon="-3.10018896125257">
        <ele>981.63999999999999</ele>
        <time>2025-05-12T09:56:35Z</time>
      </trkpt>
      <trkpt lat="36.993539035320282" lon="-3.100031968206167">
        <ele>980.20000000000005</ele>
        <time>2025-05-12T09:56:36Z</time>
      </trkpt>
      <trkpt lat="36.993652023375034" lon="-3.099483959376812">
        <ele>976.84000000000003</ele>
        <time>2025-05-12T09:56:39Z</time>
      </trkpt>
      <trkpt lat="36.99366400949657" lon="-3.099296959117055">
        <ele>975.88</ele>
        <time>2025-05-12T09:56:40Z</time>
      </trkpt>
      <trkpt lat="36.993648000061512" lon="-3.099099984392524">
        <ele>975.38999999999999</ele>
        <time>2025-05-12T09:56:41Z</time>
      </trkpt>
      <trkpt lat="36.993614975363016" lon="-3.09876998886466">
        <ele>974.42999999999995</ele>
        <time>2025-05-12T09:56:43Z</time>
      </trkpt>
      <trkpt lat="36.993636013939977" lon="-3.09862095862627">
        <ele>973.47000000000003</ele>
        <time>2025-05-12T09:56:44Z</time>
      </trkpt>
      <trkpt lat="36.993709020316601" lon="-3.098470000550151">
        <ele>972.50999999999999</ele>
        <time>2025-05-12T09:56:45Z</time>
      </trkpt>
      <trkpt lat="36.993786972016096" lon="-3.098307978361845">
        <ele>971.54999999999995</ele>
        <time>2025-05-12T09:56:46Z</time>
      </trkpt>
      <trkpt lat="36.993866013363004" lon="-3.098146039992571">
        <ele>970.11000000000001</ele>
        <time>2025-05-12T09:56:47Z</time>
      </trkpt>
      <trkpt lat="36.993934996426105" lon="-3.098003966733813">
        <ele>968.66999999999996</ele>
        <time>2025-05-12T09:56:48Z</time>
      </trkpt>
      <trkpt lat="36.99392301030457" lon="-3.097885027527809">
        <ele>967.22000000000003</ele>
        <time>2025-05-12T09:56:49Z</time>
      </trkpt>
      <trkpt lat="36.993877999484539" lon="-3.097735997289419">
        <ele>965.77999999999997</ele>
        <time>2025-05-12T09:56:50Z</time>
      </trkpt>
      <trkpt lat="36.993833994492888" lon="-3.097590990364552">
        <ele>964.34000000000003</ele>
        <time>2025-05-12T09:56:51Z</time>
      </trkpt>
      <trkpt lat="36.993799963966012" lon="-3.097452018409967">
        <ele>962.89999999999998</ele>
        <time>2025-05-12T09:56:52Z</time>
      </trkpt>
      <trkpt lat="36.993799963966012" lon="-3.097332995384932">
        <ele>961.46000000000004</ele>
        <time>2025-05-12T09:56:53Z</time>
      </trkpt>
      <trkpt lat="36.993842041119933" lon="-3.097213972359896">
        <ele>960.49000000000001</ele>
        <time>2025-05-12T09:56:54Z</time>
      </trkpt>
      <trkpt lat="36.99392301030457" lon="-3.09711598791182">
        <ele>959.04999999999995</ele>
        <time>2025-05-12T09:56:55Z</time>
      </trkpt>
      <trkpt lat="36.994014037773013" lon="-3.09700702317059">
        <ele>958.09000000000003</ele>
        <time>2025-05-12T09:56:56Z</time>
      </trkpt>
      <trkpt lat="36.994062988087535" lon="-3.096860004588962">
        <ele>956.64999999999998</ele>
        <time>2025-05-12T09:56:57Z</time>
      </trkpt>
      <trkpt lat="36.994096012786031" lon="-3.096720026805997">
        <ele>955.21000000000004</ele>
        <time>2025-05-12T09:56:58Z</time>
      </trkpt>
      <trkpt lat="36.994069023057818" lon="-3.096545012667775">
        <ele>954.25</ele>
        <time>2025-05-12T09:56:59Z</time>
      </trkpt>
      <trkpt lat="36.994043039157987" lon="-3.096374021843076">
        <ele>952.79999999999995</ele>
        <time>2025-05-12T09:57:00Z</time>
      </trkpt>
      <trkpt lat="36.994018983095884" lon="-3.096217028796673">
        <ele>951.36000000000001</ele>
        <time>2025-05-12T09:57:01Z</time>
      </trkpt>
      <trkpt lat="36.993992999196053" lon="-3.096042014658451">
        <ele>949.91999999999996</ele>
        <time>2025-05-12T09:57:02Z</time>
      </trkpt>
      <trkpt lat="36.994022000581026" lon="-3.095875969156623">
        <ele>948.48000000000002</ele>
        <time>2025-05-12T09:57:03Z</time>
      </trkpt>
      <trkpt lat="36.994057036936283" lon="-3.095676982775331">
        <ele>947.51999999999998</ele>
        <time>2025-05-12T09:57:04Z</time>
      </trkpt>
      <trkpt lat="36.994110010564327" lon="-3.095531975850463">
        <ele>946.55999999999995</ele>
        <time>2025-05-12T09:57:05Z</time>
      </trkpt>
      <trkpt lat="36.994196008890867" lon="-3.095376994460821">
        <ele>945.11000000000001</ele>
        <time>2025-05-12T09:57:06Z</time>
      </trkpt>
      <trkpt lat="36.994310002774" lon="-3.095240034162998">
        <ele>944.14999999999998</ele>
        <time>2025-05-12T09:57:07Z</time>
      </trkpt>
      <trkpt lat="36.995209967717528" lon="-3.094250969588757">
        <ele>936.46000000000004</ele>
        <time>2025-05-12T09:57:14Z</time>
      </trkpt>
      <trkpt lat="36.995281968265772" lon="-3.094133036211133">
        <ele>935.5</ele>
        <time>2025-05-12T09:57:15Z</time>
      </trkpt>
      <trkpt lat="36.995293032377958" lon="-3.094024993479252">
        <ele>935.01999999999998</ele>
        <time>2025-05-12T09:57:16Z</time>
      </trkpt>
      <trkpt lat="36.995294960215688" lon="-3.093903958797455">
        <ele>935.01999999999998</ele>
        <time>2025-05-12T09:57:17Z</time>
      </trkpt>
      <trkpt lat="36.995274005457759" lon="-3.093780996277928">
        <ele>934.53999999999996</ele>
        <time>2025-05-12T09:57:18Z</time>
      </trkpt>
      <trkpt lat="36.995237041264772" lon="-3.093573963269591">
        <ele>934.53999999999996</ele>
        <time>2025-05-12T09:57:19Z</time>
      </trkpt>
      <trkpt lat="36.995240980759263" lon="-3.093481007963419">
        <ele>934.05999999999995</ele>
        <time>2025-05-12T09:57:20Z</time>
      </trkpt>
      <trkpt lat="36.995398979634047" lon="-3.092245012521744">
        <ele>931.64999999999998</ele>
        <time>2025-05-12T09:57:26Z</time>
      </trkpt>
      <trkpt lat="36.995515991002321" lon="-3.091706978157163">
        <ele>929.25</ele>
        <time>2025-05-12T09:57:29Z</time>
      </trkpt>
      <trkpt lat="36.995595032349229" lon="-3.091572029516101">
        <ele>928.76999999999998</ele>
        <time>2025-05-12T09:57:30Z</time>
      </trkpt>
      <trkpt lat="36.995760994032025" lon="-3.091287966817617">
        <ele>926.85000000000002</ele>
        <time>2025-05-12T09:57:32Z</time>
      </trkpt>
      <trkpt lat="36.995837017893791" lon="-3.091129967942834">
        <ele>925.40999999999997</ele>
        <time>2025-05-12T09:57:33Z</time>
      </trkpt>
      <trkpt lat="36.995887979865074" lon="-3.090980015695095">
        <ele>924.45000000000005</ele>
        <time>2025-05-12T09:57:34Z</time>
      </trkpt>
      <trkpt lat="36.995933996513486" lon="-3.090746998786926">
        <ele>923</ele>
        <time>2025-05-12T09:57:36Z</time>
      </trkpt>
      <trkpt lat="36.995944976806641" lon="-3.090612972155213">
        <ele>922.51999999999998</ele>
        <time>2025-05-12T09:57:37Z</time>
      </trkpt>
      <trkpt lat="36.995930979028344" lon="-3.090512976050377">
        <ele>921.55999999999995</ele>
        <time>2025-05-12T09:57:38Z</time>
      </trkpt>
      <trkpt lat="36.995914969593287" lon="-3.090401999652386">
        <ele>921.08000000000004</ele>
        <time>2025-05-12T09:57:39Z</time>
      </trkpt>
      <trkpt lat="36.995899965986609" lon="-3.090297980234027">
        <ele>920.60000000000002</ele>
        <time>2025-05-12T09:57:40Z</time>
      </trkpt>
      <trkpt lat="36.995885968208313" lon="-3.09019697830081">
        <ele>920.12</ele>
        <time>2025-05-12T09:57:41Z</time>
      </trkpt>
      <trkpt lat="36.995871970430017" lon="-3.090098993852735">
        <ele>919.15999999999997</ele>
        <time>2025-05-12T09:57:42Z</time>
      </trkpt>
      <trkpt lat="36.995859984308481" lon="-3.090000003576279">
        <ele>919.15999999999997</ele>
        <time>2025-05-12T09:57:43Z</time>
      </trkpt>
      <trkpt lat="36.995859984308481" lon="-3.089686017483473">
        <ele>917.24000000000001</ele>
        <time>2025-05-12T09:57:46Z</time>
      </trkpt>
      <trkpt lat="36.995889991521835" lon="-3.089566994458437">
        <ele>917.24000000000001</ele>
        <time>2025-05-12T09:57:47Z</time>
      </trkpt>
      <trkpt lat="36.995923016220331" lon="-3.089451994746923">
        <ele>916.75</ele>
        <time>2025-05-12T09:57:48Z</time>
      </trkpt>
      <trkpt lat="36.995956962928176" lon="-3.089339006692171">
        <ele>916.26999999999998</ele>
        <time>2025-05-12T09:57:49Z</time>
      </trkpt>
      <trkpt lat="36.995988981798291" lon="-3.08922803029418">
        <ele>915.78999999999996</ele>
        <time>2025-05-12T09:57:50Z</time>
      </trkpt>
      <trkpt lat="36.996148992329836" lon="-3.088818993419409">
        <ele>914.83000000000004</ele>
        <time>2025-05-12T09:57:54Z</time>
      </trkpt>
      <trkpt lat="36.996204983443022" lon="-3.088728971779347">
        <ele>914.83000000000004</ele>
        <time>2025-05-12T09:57:55Z</time>
      </trkpt>
      <trkpt lat="36.996263992041349" lon="-3.088636016473174">
        <ele>914.83000000000004</ele>
        <time>2025-05-12T09:57:56Z</time>
      </trkpt>
      <trkpt lat="36.996499020606279" lon="-3.088435018435121">
        <ele>913.38999999999999</ele>
        <time>2025-05-12T09:57:59Z</time>
      </trkpt>
      <trkpt lat="36.996571021154523" lon="-3.088380033150315">
        <ele>913.38999999999999</ele>
        <time>2025-05-12T09:58:00Z</time>
      </trkpt>
      <trkpt lat="36.996654001995921" lon="-3.088317001238465">
        <ele>912.42999999999995</ele>
        <time>2025-05-12T09:58:01Z</time>
      </trkpt>
      <trkpt lat="36.996730025857687" lon="-3.088309038430452">
        <ele>911.95000000000005</ele>
        <time>2025-05-12T09:58:02Z</time>
      </trkpt>
      <trkpt lat="36.996819041669369" lon="-3.088300991803408">
        <ele>911.47000000000003</ele>
        <time>2025-05-12T09:58:03Z</time>
      </trkpt>
      <trkpt lat="36.996914008632302" lon="-3.08830501511693">
        <ele>910.99000000000001</ele>
        <time>2025-05-12T09:58:04Z</time>
      </trkpt>
      <trkpt lat="36.996997995302081" lon="-3.088323036208749">
        <ele>910.02999999999997</ele>
        <time>2025-05-12T09:58:05Z</time>
      </trkpt>
      <trkpt lat="36.997322961688042" lon="-3.088360000401735">
        <ele>907.62</ele>
        <time>2025-05-12T09:58:10Z</time>
      </trkpt>
      <trkpt lat="36.997362021356821" lon="-3.088360000401735">
        <ele>907.13999999999999</ele>
        <time>2025-05-12T09:58:11Z</time>
      </trkpt>
      <trkpt lat="36.997439973056316" lon="-3.088310966268182">
        <ele>906.65999999999997</ele>
        <time>2025-05-12T09:58:12Z</time>
      </trkpt>
      <trkpt lat="36.997498981654644" lon="-3.088274002075195">
        <ele>906.17999999999995</ele>
        <time>2025-05-12T09:58:13Z</time>
      </trkpt>
      <trkpt lat="36.997544998303056" lon="-3.088228991255164">
        <ele>906.17999999999995</ele>
        <time>2025-05-12T09:58:14Z</time>
      </trkpt>
      <trkpt lat="36.997582968324423" lon="-3.088152967393398">
        <ele>906.17999999999995</ele>
        <time>2025-05-12T09:58:15Z</time>
      </trkpt>
      <trkpt lat="36.99761901050806" lon="-3.088080966845155">
        <ele>906.17999999999995</ele>
        <time>2025-05-12T09:58:16Z</time>
      </trkpt>
      <trkpt lat="36.997753959149122" lon="-3.087810985744">
        <ele>906.17999999999995</ele>
        <time>2025-05-12T09:58:20Z</time>
      </trkpt>
      <trkpt lat="36.997788995504379" lon="-3.087730016559362">
        <ele>906.65999999999997</ele>
        <time>2025-05-12T09:58:21Z</time>
      </trkpt>
      <trkpt lat="36.997773991897702" lon="-3.087653992697597">
        <ele>907.13999999999999</ele>
        <time>2025-05-12T09:58:22Z</time>
      </trkpt>
      <trkpt lat="36.997739039361477" lon="-3.087581992149353">
        <ele>907.62</ele>
        <time>2025-05-12T09:58:23Z</time>
      </trkpt>
      <trkpt lat="36.997693022713065" lon="-3.08751099742949">
        <ele>908.10000000000002</ele>
        <time>2025-05-12T09:58:24Z</time>
      </trkpt>
      <trkpt lat="36.997643988579512" lon="-3.087433967739344">
        <ele>908.58000000000004</ele>
        <time>2025-05-12T09:58:25Z</time>
      </trkpt>
      <trkpt lat="36.997603001073003" lon="-3.087350986897945">
        <ele>908.58000000000004</ele>
        <time>2025-05-12T09:58:26Z</time>
      </trkpt>
      <trkpt lat="36.997566958889365" lon="-3.087256019935012">
        <ele>909.05999999999995</ele>
        <time>2025-05-12T09:58:27Z</time>
      </trkpt>
      <trkpt lat="36.997528988867998" lon="-3.087154012173414">
        <ele>909.05999999999995</ele>
        <time>2025-05-12T09:58:28Z</time>
      </trkpt>
      <trkpt lat="36.99748900718987" lon="-3.087047981098294">
        <ele>909.53999999999996</ele>
        <time>2025-05-12T09:58:29Z</time>
      </trkpt>
      <trkpt lat="36.997451037168503" lon="-3.086946979165077">
        <ele>910.02999999999997</ele>
        <time>2025-05-12T09:58:30Z</time>
      </trkpt>
      <trkpt lat="36.997408038005233" lon="-3.086857963353396">
        <ele>910.99000000000001</ele>
        <time>2025-05-12T09:58:31Z</time>
      </trkpt>
      <trkpt lat="36.997351963073015" lon="-3.086793003603816">
        <ele>911.47000000000003</ele>
        <time>2025-05-12T09:58:32Z</time>
      </trkpt>
      <trkpt lat="36.99729697778821" lon="-3.086728965863586">
        <ele>912.42999999999995</ele>
        <time>2025-05-12T09:58:33Z</time>
      </trkpt>
      <trkpt lat="36.997225983068347" lon="-3.086697030812502">
        <ele>912.90999999999997</ele>
        <time>2025-05-12T09:58:34Z</time>
      </trkpt>
      <trkpt lat="36.997154988348484" lon="-3.086665011942387">
        <ele>913.38999999999999</ele>
        <time>2025-05-12T09:58:35Z</time>
      </trkpt>
      <trkpt lat="36.996939992532134" lon="-3.086560992524028">
        <ele>915.78999999999996</ele>
        <time>2025-05-12T09:58:38Z</time>
      </trkpt>
      <trkpt lat="36.996870003640652" lon="-3.08652201667428">
        <ele>916.26999999999998</ele>
        <time>2025-05-12T09:58:39Z</time>
      </trkpt>
      <trkpt lat="36.996641010046005" lon="-3.086309032514691">
        <ele>919.15999999999997</ele>
        <time>2025-05-12T09:58:43Z</time>
      </trkpt>
      <trkpt lat="36.996602034196258" lon="-3.086251029744744">
        <ele>920.12</ele>
        <time>2025-05-12T09:58:44Z</time>
      </trkpt>
      <trkpt lat="36.996580995619297" lon="-3.086179029196501">
        <ele>920.60000000000002</ele>
        <time>2025-05-12T09:58:45Z</time>
      </trkpt>
      <trkpt lat="36.996557023376226" lon="-3.086100993677974">
        <ele>921.08000000000004</ele>
        <time>2025-05-12T09:58:46Z</time>
      </trkpt>
      <trkpt lat="36.996534978970885" lon="-3.086016001179814">
        <ele>921.55999999999995</ele>
        <time>2025-05-12T09:58:47Z</time>
      </trkpt>
      <trkpt lat="36.996512012556195" lon="-3.085918016731739">
        <ele>922.51999999999998</ele>
        <time>2025-05-12T09:58:48Z</time>
      </trkpt>
      <trkpt lat="36.996488962322474" lon="-3.085819026455283">
        <ele>923</ele>
        <time>2025-05-12T09:58:49Z</time>
      </trkpt>
      <trkpt lat="36.996430037543178" lon="-3.085002964362502">
        <ele>924.45000000000005</ele>
        <time>2025-05-12T09:58:58Z</time>
      </trkpt>
      <trkpt lat="36.996433977037668" lon="-3.084898022934794">
        <ele>924.45000000000005</ele>
        <time>2025-05-12T09:58:59Z</time>
      </trkpt>
      <trkpt lat="36.996438000351191" lon="-3.084795009344816">
        <ele>924.92999999999995</ele>
        <time>2025-05-12T09:59:00Z</time>
      </trkpt>
      <trkpt lat="36.996444035321474" lon="-3.084694007411599">
        <ele>924.92999999999995</ele>
        <time>2025-05-12T09:59:01Z</time>
      </trkpt>
      <trkpt lat="36.996450992301106" lon="-3.084591999650002">
        <ele>924.92999999999995</ele>
        <time>2025-05-12T09:59:02Z</time>
      </trkpt>
      <trkpt lat="36.9964599609375" lon="-3.083449965342879">
        <ele>921.08000000000004</ele>
        <time>2025-05-12T09:59:13Z</time>
      </trkpt>
      <trkpt lat="36.996482005342841" lon="-3.08269701898098">
        <ele>916.75</ele>
        <time>2025-05-12T09:59:21Z</time>
      </trkpt>
      <trkpt lat="36.996482005342841" lon="-3.082592999562621">
        <ele>915.30999999999995</ele>
        <time>2025-05-12T09:59:22Z</time>
      </trkpt>
      <trkpt lat="36.996482005342841" lon="-3.082483028993011">
        <ele>914.35000000000002</ele>
        <time>2025-05-12T09:59:23Z</time>
      </trkpt>
      <trkpt lat="36.996472030878067" lon="-3.081956980749965">
        <ele>911.47000000000003</ele>
        <time>2025-05-12T09:59:28Z</time>
      </trkpt>
      <trkpt lat="36.996453003957868" lon="-3.081856984645128">
        <ele>911.47000000000003</ele>
        <time>2025-05-12T09:59:29Z</time>
      </trkpt>
      <trkpt lat="36.996321994811296" lon="-3.081173021346331">
        <ele>907.13999999999999</ele>
        <time>2025-05-12T09:59:36Z</time>
      </trkpt>
      <trkpt lat="36.996263992041349" lon="-3.080975040793419">
        <ele>906.65999999999997</ele>
        <time>2025-05-12T09:59:38Z</time>
      </trkpt>
      <trkpt lat="36.99619903229177" lon="-3.080912008881569">
        <ele>905.70000000000005</ele>
        <time>2025-05-12T09:59:39Z</time>
      </trkpt>
      <trkpt lat="36.996127031743526" lon="-3.080864986404777">
        <ele>905.22000000000003</ele>
        <time>2025-05-12T09:59:40Z</time>
      </trkpt>
      <trkpt lat="36.996055031195283" lon="-3.080818969756365">
        <ele>904.74000000000001</ele>
        <time>2025-05-12T09:59:41Z</time>
      </trkpt>
      <trkpt lat="36.995981018990278" lon="-3.080771025270224">
        <ele>903.77999999999997</ele>
        <time>2025-05-12T09:59:42Z</time>
      </trkpt>
      <trkpt lat="36.995901977643371" lon="-3.08072098530829">
        <ele>903.29999999999995</ele>
        <time>2025-05-12T09:59:43Z</time>
      </trkpt>
      <trkpt lat="36.995845986530185" lon="-3.080642027780414">
        <ele>902.82000000000005</ele>
        <time>2025-05-12T09:59:44Z</time>
      </trkpt>
      <trkpt lat="36.995787983760238" lon="-3.080559968948364">
        <ele>902.33000000000004</ele>
        <time>2025-05-12T09:59:45Z</time>
      </trkpt>
      <trkpt lat="36.9957260414958" lon="-3.080473970621824">
        <ele>901.85000000000002</ele>
        <time>2025-05-12T09:59:46Z</time>
      </trkpt>
      <trkpt lat="36.995294960215688" lon="-3.079773997887969">
        <ele>898.49000000000001</ele>
        <time>2025-05-12T09:59:55Z</time>
      </trkpt>
      <trkpt lat="36.995209967717528" lon="-3.079609964042902">
        <ele>898.00999999999999</ele>
        <time>2025-05-12T09:59:57Z</time>
      </trkpt>
      <trkpt lat="36.995150959119201" lon="-3.07949798181653">
        <ele>898.49000000000001</ele>
        <time>2025-05-12T09:59:58Z</time>
      </trkpt>
      <trkpt lat="36.995150959119201" lon="-3.079419024288654">
        <ele>898.97000000000003</ele>
        <time>2025-05-12T09:59:59Z</time>
      </trkpt>
      <trkpt lat="36.995165962725878" lon="-3.079100009053946">
        <ele>899.45000000000005</ele>
        <time>2025-05-12T10:00:02Z</time>
      </trkpt>
      <trkpt lat="36.995171997696161" lon="-3.079007975757122">
        <ele>899.45000000000005</ele>
        <time>2025-05-12T10:00:03Z</time>
      </trkpt>
      <trkpt lat="36.995195969939232" lon="-3.078956007957459">
        <ele>899.92999999999995</ele>
        <time>2025-05-12T10:00:04Z</time>
      </trkpt>
      <trkpt lat="36.995245004072785" lon="-3.078899011015892">
        <ele>899.92999999999995</ele>
        <time>2025-05-12T10:00:05Z</time>
      </trkpt>
      <trkpt lat="36.995294038206339" lon="-3.078841008245945">
        <ele>899.92999999999995</ele>
        <time>2025-05-12T10:00:06Z</time>
      </trkpt>
      <trkpt lat="36.995342988520861" lon="-3.078822987154126">
        <ele>899.45000000000005</ele>
        <time>2025-05-12T10:00:07Z</time>
      </trkpt>
      <trkpt lat="36.995423035696149" lon="-3.078804966062307">
        <ele>898.97000000000003</ele>
        <time>2025-05-12T10:00:08Z</time>
      </trkpt>
      <trkpt lat="36.995510961860418" lon="-3.078784011304379">
        <ele>898.00999999999999</ele>
        <time>2025-05-12T10:00:09Z</time>
      </trkpt>
      <trkpt lat="36.995601989328861" lon="-3.078763978555799">
        <ele>897.04999999999995</ele>
        <time>2025-05-12T10:00:10Z</time>
      </trkpt>
      <trkpt lat="36.995692010968924" lon="-3.07874302379787">
        <ele>896.57000000000005</ele>
        <time>2025-05-12T10:00:11Z</time>
      </trkpt>
      <trkpt lat="36.995781026780605" lon="-3.078721985220909">
        <ele>895.61000000000001</ele>
        <time>2025-05-12T10:00:12Z</time>
      </trkpt>
      <trkpt lat="36.995868030935526" lon="-3.078699018806219">
        <ele>894.15999999999997</ele>
        <time>2025-05-12T10:00:13Z</time>
      </trkpt>
      <trkpt lat="36.995941959321499" lon="-3.07865702547133">
        <ele>893.20000000000005</ele>
        <time>2025-05-12T10:00:14Z</time>
      </trkpt>
      <trkpt lat="36.996018989011645" lon="-3.078587958589196">
        <ele>892.24000000000001</ele>
        <time>2025-05-12T10:00:15Z</time>
      </trkpt>
      <trkpt lat="36.996046984568238" lon="-3.078495003283024">
        <ele>891.27999999999997</ele>
        <time>2025-05-12T10:00:16Z</time>
      </trkpt>
      <trkpt lat="36.99607003480196" lon="-3.078391989693046">
        <ele>889.84000000000003</ele>
        <time>2025-05-12T10:00:17Z</time>
      </trkpt>
      <trkpt lat="36.996032986789942" lon="-3.078298028558493">
        <ele>889.36000000000001</ele>
        <time>2025-05-12T10:00:18Z</time>
      </trkpt>
      <trkpt lat="36.995995016768575" lon="-3.078197026625276">
        <ele>888.39999999999998</ele>
        <time>2025-05-12T10:00:19Z</time>
      </trkpt>
      <trkpt lat="36.995947994291782" lon="-3.078096024692059">
        <ele>887.42999999999995</ele>
        <time>2025-05-12T10:00:20Z</time>
      </trkpt>
      <trkpt lat="36.995887979865074" lon="-3.078006003051996">
        <ele>886.47000000000003</ele>
        <time>2025-05-12T10:00:21Z</time>
      </trkpt>
      <trkpt lat="36.995709026232362" lon="-3.077738033607602">
        <ele>882.14999999999998</ele>
        <time>2025-05-12T10:00:26Z</time>
      </trkpt>
      <trkpt lat="36.995729980990291" lon="-3.07767097838223">
        <ele>881.19000000000005</ele>
        <time>2025-05-12T10:00:27Z</time>
      </trkpt>
      <trkpt lat="36.995746996253729" lon="-3.077614987269044">
        <ele>880.22000000000003</ele>
        <time>2025-05-12T10:00:28Z</time>
      </trkpt>
      <trkpt lat="36.995962997898459" lon="-3.076947033405304">
        <ele>876.38</ele>
        <time>2025-05-12T10:00:35Z</time>
      </trkpt>
      <trkpt lat="36.996013959869742" lon="-3.076838990673423">
        <ele>875.89999999999998</ele>
        <time>2025-05-12T10:00:36Z</time>
      </trkpt>
      <trkpt lat="36.996096018701792" lon="-3.076664982363582">
        <ele>875.41999999999996</ele>
        <time>2025-05-12T10:00:37Z</time>
      </trkpt>
      <trkpt lat="36.996165001764894" lon="-3.076614020392299">
        <ele>875.41999999999996</ele>
        <time>2025-05-12T10:00:38Z</time>
      </trkpt>
      <trkpt lat="36.996270027011633" lon="-3.076534979045391">
        <ele>875.41999999999996</ele>
        <time>2025-05-12T10:00:39Z</time>
      </trkpt>
      <trkpt lat="36.99637396261096" lon="-3.076457027345896">
        <ele>875.41999999999996</ele>
        <time>2025-05-12T10:00:40Z</time>
      </trkpt>
      <trkpt lat="36.996525004506111" lon="-3.076344039291143">
        <ele>875.89999999999998</ele>
        <time>2025-05-12T10:00:41Z</time>
      </trkpt>
      <trkpt lat="36.996557023376226" lon="-3.0762720387429">
        <ele>875.89999999999998</ele>
        <time>2025-05-12T10:00:42Z</time>
      </trkpt>
      <trkpt lat="36.996686020866036" lon="-3.075990993529558">
        <ele>876.38</ele>
        <time>2025-05-12T10:00:44Z</time>
      </trkpt>
      <trkpt lat="36.996761038899422" lon="-3.075828971341252">
        <ele>876.86000000000001</ele>
        <time>2025-05-12T10:00:45Z</time>
      </trkpt>
      <trkpt lat="36.996935969218612" lon="-3.075554966926575">
        <ele>878.29999999999995</ele>
        <time>2025-05-12T10:00:47Z</time>
      </trkpt>
      <trkpt lat="36.997018028050661" lon="-3.075426975265145">
        <ele>878.77999999999997</ele>
        <time>2025-05-12T10:00:48Z</time>
      </trkpt>
      <trkpt lat="36.99710302054882" lon="-3.075259001925588">
        <ele>879.74000000000001</ele>
        <time>2025-05-12T10:00:49Z</time>
      </trkpt>
      <trkpt lat="36.997097991406918" lon="-3.075102008879185">
        <ele>881.19000000000005</ele>
        <time>2025-05-12T10:00:50Z</time>
      </trkpt>
      <trkpt lat="36.997092040255666" lon="-3.074951972812414">
        <ele>882.14999999999998</ele>
        <time>2025-05-12T10:00:51Z</time>
      </trkpt>
      <trkpt lat="36.997088016942143" lon="-3.074810989201069">
        <ele>883.11000000000001</ele>
        <time>2025-05-12T10:00:52Z</time>
      </trkpt>
      <trkpt lat="36.997082987800241" lon="-3.074668999761343">
        <ele>883.59000000000003</ele>
        <time>2025-05-12T10:00:53Z</time>
      </trkpt>
      <trkpt lat="36.997147025540471" lon="-3.074532961472869">
        <ele>884.54999999999995</ele>
        <time>2025-05-12T10:00:54Z</time>
      </trkpt>
      <trkpt lat="36.997346011921763" lon="-3.074107998982072">
        <ele>888.39999999999998</ele>
        <time>2025-05-12T10:00:57Z</time>
      </trkpt>
      <trkpt lat="36.997428992763162" lon="-3.073968021199107">
        <ele>890.32000000000005</ele>
        <time>2025-05-12T10:00:58Z</time>
      </trkpt>
      <trkpt lat="36.997547009959817" lon="-3.073897026479244">
        <ele>891.75999999999999</ele>
        <time>2025-05-12T10:00:59Z</time>
      </trkpt>
      <trkpt lat="36.997892009094357" lon="-3.073687981814146">
        <ele>897.04999999999995</ele>
        <time>2025-05-12T10:01:02Z</time>
      </trkpt>
      <trkpt lat="36.997973984107375" lon="-3.073638025671244">
        <ele>898.49000000000001</ele>
        <time>2025-05-12T10:01:03Z</time>
      </trkpt>
      <trkpt lat="36.998084038496017" lon="-3.073648000136018">
        <ele>900.40999999999997</ele>
        <time>2025-05-12T10:01:04Z</time>
      </trkpt>
      <trkpt lat="36.998184034600854" lon="-3.073689993470907">
        <ele>901.85000000000002</ele>
        <time>2025-05-12T10:01:05Z</time>
      </trkpt>
      <trkpt lat="36.998246982693672" lon="-3.07376098819077">
        <ele>903.77999999999997</ele>
        <time>2025-05-12T10:01:06Z</time>
      </trkpt>
      <trkpt lat="36.998303979635239" lon="-3.07382402010262">
        <ele>905.22000000000003</ele>
        <time>2025-05-12T10:01:07Z</time>
      </trkpt>
      <trkpt lat="36.99837002903223" lon="-3.073897026479244">
        <ele>906.65999999999997</ele>
        <time>2025-05-12T10:01:08Z</time>
      </trkpt>
      <trkpt lat="36.998394001275301" lon="-3.073897026479244">
        <ele>907.62</ele>
        <time>2025-05-12T10:01:09Z</time>
      </trkpt>
      <trkpt lat="36.998464995995164" lon="-3.073870958760381">
        <ele>909.05999999999995</ele>
        <time>2025-05-12T10:01:10Z</time>
      </trkpt>
      <trkpt lat="36.998557029291987" lon="-3.073793007060885">
        <ele>910.50999999999999</ele>
        <time>2025-05-12T10:01:11Z</time>
      </trkpt>
      <trkpt lat="36.998661970719695" lon="-3.073703991249204">
        <ele>911.95000000000005</ele>
        <time>2025-05-12T10:01:12Z</time>
      </trkpt>
      <trkpt lat="36.998887024819851" lon="-3.073509028181434">
        <ele>914.35000000000002</ele>
        <time>2025-05-12T10:01:14Z</time>
      </trkpt>
      <trkpt lat="36.998990960419178" lon="-3.073405008763075">
        <ele>915.30999999999995</ele>
        <time>2025-05-12T10:01:15Z</time>
      </trkpt>
      <trkpt lat="36.999083999544382" lon="-3.073311969637871">
        <ele>916.26999999999998</ele>
        <time>2025-05-12T10:01:16Z</time>
      </trkpt>
      <trkpt lat="36.999169997870922" lon="-3.073226977139711">
        <ele>917.72000000000003</ele>
        <time>2025-05-12T10:01:17Z</time>
      </trkpt>
      <trkpt lat="36.999270999804139" lon="-3.073137039318681">
        <ele>918.67999999999995</ele>
        <time>2025-05-12T10:01:18Z</time>
      </trkpt>
      <trkpt lat="36.99938097037375" lon="-3.073089011013508">
        <ele>919.15999999999997</ele>
        <time>2025-05-12T10:01:19Z</time>
      </trkpt>
      <trkpt lat="36.999490018934011" lon="-3.073040982708335">
        <ele>919.63999999999999</ele>
        <time>2025-05-12T10:01:20Z</time>
      </trkpt>
      <trkpt lat="36.999594960361719" lon="-3.072994966059923">
        <ele>920.60000000000002</ele>
        <time>2025-05-12T10:01:21Z</time>
      </trkpt>
      <trkpt lat="36.99970199726522" lon="-3.07292103767395">
        <ele>921.55999999999995</ele>
        <time>2025-05-12T10:01:22Z</time>
      </trkpt>
      <trkpt lat="36.999812973663211" lon="-3.072844007983804">
        <ele>922.51999999999998</ele>
        <time>2025-05-12T10:01:23Z</time>
      </trkpt>
      <trkpt lat="36.999925039708614" lon="-3.072765972465277">
        <ele>923</ele>
        <time>2025-05-12T10:01:24Z</time>
      </trkpt>
      <trkpt lat="37.000038027763367" lon="-3.072688020765781">
        <ele>923</ele>
        <time>2025-05-12T10:01:25Z</time>
      </trkpt>
      <trkpt lat="37.000151015818119" lon="-3.072609985247254">
        <ele>923.48000000000002</ele>
        <time>2025-05-12T10:01:26Z</time>
      </trkpt>
      <trkpt lat="37.000471958890557" lon="-3.072288958355784">
        <ele>924.45000000000005</ele>
        <time>2025-05-12T10:01:30Z</time>
      </trkpt>
      <trkpt lat="37.000558963045478" lon="-3.072202038019896">
        <ele>924.92999999999995</ele>
        <time>2025-05-12T10:01:31Z</time>
      </trkpt>
      <trkpt lat="37.000631969422102" lon="-3.072177981957793">
        <ele>924.92999999999995</ele>
        <time>2025-05-12T10:01:32Z</time>
      </trkpt>
      <trkpt lat="37.000687960535288" lon="-3.072159038856626">
        <ele>925.40999999999997</ele>
        <time>2025-05-12T10:01:33Z</time>
      </trkpt>
      <trkpt lat="37.000802960246801" lon="-3.072147974744439">
        <ele>925.40999999999997</ele>
        <time>2025-05-12T10:01:34Z</time>
      </trkpt>
      <trkpt lat="37.000869009643793" lon="-3.072141017764807">
        <ele>925.40999999999997</ele>
        <time>2025-05-12T10:01:35Z</time>
      </trkpt>
      <trkpt lat="37.000917959958315" lon="-3.072131965309382">
        <ele>925.40999999999997</ele>
        <time>2025-05-12T10:01:36Z</time>
      </trkpt>
      <trkpt lat="37.000961964949965" lon="-3.072116961702704">
        <ele>925.40999999999997</ele>
        <time>2025-05-12T10:01:37Z</time>
      </trkpt>
      <trkpt lat="37.001043017953634" lon="-3.072088966146112">
        <ele>925.88999999999999</ele>
        <time>2025-05-12T10:01:39Z</time>
      </trkpt>
      <trkpt lat="37.001088028773665" lon="-3.072073040530086">
        <ele>926.37</ele>
        <time>2025-05-12T10:01:40Z</time>
      </trkpt>
      <trkpt lat="37.001750031486154" lon="-3.071841029450297">
        <ele>932.13999999999999</ele>
        <time>2025-05-12T10:01:53Z</time>
      </trkpt>
      <trkpt lat="37.001848015934229" lon="-3.071775985881686">
        <ele>933.10000000000002</ele>
        <time>2025-05-12T10:01:55Z</time>
      </trkpt>
      <trkpt lat="37.00189596042037" lon="-3.07174296118319">
        <ele>933.58000000000004</ele>
        <time>2025-05-12T10:01:56Z</time>
      </trkpt>
      <trkpt lat="37.001950023695827" lon="-3.071704991161823">
        <ele>933.58000000000004</ele>
        <time>2025-05-12T10:01:57Z</time>
      </trkpt>
      <trkpt lat="37.001975001767278" lon="-3.071686970070005">
        <ele>934.53999999999996</ele>
        <time>2025-05-12T10:01:58Z</time>
      </trkpt>
      <trkpt lat="37.002004003152251" lon="-3.071594014763832">
        <ele>935.98000000000002</ele>
        <time>2025-05-12T10:01:59Z</time>
      </trkpt>
      <trkpt lat="37.002031998708844" lon="-3.071507010608912">
        <ele>936.46000000000004</ele>
        <time>2025-05-12T10:02:00Z</time>
      </trkpt>
      <trkpt lat="37.002058988437057" lon="-3.071422018110752">
        <ele>937.89999999999998</ele>
        <time>2025-05-12T10:02:01Z</time>
      </trkpt>
      <trkpt lat="37.002084972336888" lon="-3.071339037269354">
        <ele>938.86000000000001</ele>
        <time>2025-05-12T10:02:02Z</time>
      </trkpt>
      <trkpt lat="37.002111040055752" lon="-3.071262007579207">
        <ele>939.83000000000004</ele>
        <time>2025-05-12T10:02:03Z</time>
      </trkpt>
      <trkpt lat="37.002131994813681" lon="-3.071210961788893">
        <ele>940.30999999999995</ele>
        <time>2025-05-12T10:02:04Z</time>
      </trkpt>
      <trkpt lat="37.002152027562261" lon="-3.071163017302752">
        <ele>940.78999999999996</ele>
        <time>2025-05-12T10:02:05Z</time>
      </trkpt>
      <trkpt lat="37.002171976491809" lon="-3.07111700065434">
        <ele>941.75</ele>
        <time>2025-05-12T10:02:06Z</time>
      </trkpt>
      <trkpt lat="37.002271972596645" lon="-3.071022033691406">
        <ele>942.23000000000002</ele>
        <time>2025-05-12T10:02:07Z</time>
      </trkpt>
      <trkpt lat="37.002380015328526" lon="-3.071056986227632">
        <ele>942.71000000000004</ele>
        <time>2025-05-12T10:02:08Z</time>
      </trkpt>
      <trkpt lat="37.002443969249725" lon="-3.071111971512437">
        <ele>943.19000000000005</ele>
        <time>2025-05-12T10:02:09Z</time>
      </trkpt>
      <trkpt lat="37.002512030303478" lon="-3.071171985939145">
        <ele>944.14999999999998</ele>
        <time>2025-05-12T10:02:10Z</time>
      </trkpt>
      <trkpt lat="37.002579001709819" lon="-3.071228982880712">
        <ele>945.11000000000001</ele>
        <time>2025-05-12T10:02:11Z</time>
      </trkpt>
      <trkpt lat="37.002661982551217" lon="-3.071300983428955">
        <ele>945.59000000000003</ele>
        <time>2025-05-12T10:02:12Z</time>
      </trkpt>
      <trkpt lat="37.002711016684771" lon="-3.071319004520774">
        <ele>947.03999999999996</ele>
        <time>2025-05-12T10:02:14Z</time>
      </trkpt>
      <trkpt lat="37.002744963392615" lon="-3.07133199647069">
        <ele>947.51999999999998</ele>
        <time>2025-05-12T10:02:15Z</time>
      </trkpt>
      <trkpt lat="37.002772036939859" lon="-3.071341970935464">
        <ele>948.48000000000002</ele>
        <time>2025-05-12T10:02:16Z</time>
      </trkpt>
      <trkpt lat="37.002793997526169" lon="-3.071351023390889">
        <ele>949.44000000000005</ele>
        <time>2025-05-12T10:02:17Z</time>
      </trkpt>
      <trkpt lat="37.002793997526169" lon="-3.071351023390889">
        <ele>949.91999999999996</ele>
        <time>2025-05-12T10:02:30Z</time>
      </trkpt>
      <trkpt lat="37.002793997526169" lon="-3.071351023390889">
        <ele>951.36000000000001</ele>
        <time>2025-05-12T10:03:01Z</time>
      </trkpt>
      <trkpt lat="37.002793997526169" lon="-3.071351023390889">
        <ele>951.36000000000001</ele>
        <time>2025-05-12T10:03:02Z</time>
      </trkpt>
      <trkpt lat="37.002661982551217" lon="-3.071300983428955">
        <ele>952.32000000000005</ele>
        <time>2025-05-12T10:03:03Z</time>
      </trkpt>
      <trkpt lat="37.002711016684771" lon="-3.071320010349155">
        <ele>956.16999999999996</ele>
        <time>2025-05-12T10:03:08Z</time>
      </trkpt>
      <trkpt lat="37.002682015299797" lon="-3.071309030056">
        <ele>956.64999999999998</ele>
        <time>2025-05-12T10:03:09Z</time>
      </trkpt>
      <trkpt lat="37.002661982551217" lon="-3.071300983428955">
        <ele>959.52999999999997</ele>
        <time>2025-05-12T10:03:10Z</time>
      </trkpt>
      <trkpt lat="37.002279013395309" lon="-3.071022033691406">
        <ele>956.16999999999996</ele>
        <time>2025-05-12T10:03:22Z</time>
      </trkpt>
      <trkpt lat="37.002197038382292" lon="-3.07105497457087">
        <ele>955.69000000000005</ele>
        <time>2025-05-12T10:03:23Z</time>
      </trkpt>
      <trkpt lat="37.002180023118854" lon="-3.07109797373414">
        <ele>954.73000000000002</ele>
        <time>2025-05-12T10:03:24Z</time>
      </trkpt>
      <trkpt lat="37.002158984541893" lon="-3.071146002039313">
        <ele>954.25</ele>
        <time>2025-05-12T10:03:25Z</time>
      </trkpt>
      <trkpt lat="37.002136018127203" lon="-3.07120299898088">
        <ele>953.76999999999998</ele>
        <time>2025-05-12T10:03:26Z</time>
      </trkpt>
      <trkpt lat="37.001972990110517" lon="-3.071688981726766">
        <ele>949.91999999999996</ele>
        <time>2025-05-12T10:03:34Z</time>
      </trkpt>
      <trkpt lat="37.001938037574291" lon="-3.071713037788868">
        <ele>949.91999999999996</ele>
        <time>2025-05-12T10:03:35Z</time>
      </trkpt>
      <trkpt lat="37.001905012875795" lon="-3.071736004203558">
        <ele>949.44000000000005</ele>
        <time>2025-05-12T10:03:36Z</time>
      </trkpt>
      <trkpt lat="37.001819014549255" lon="-3.071796018630266">
        <ele>948.96000000000004</ele>
        <time>2025-05-12T10:03:38Z</time>
      </trkpt>
      <trkpt lat="37.001238986849785" lon="-3.07201998308301">
        <ele>945.11000000000001</ele>
        <time>2025-05-12T10:03:47Z</time>
      </trkpt>
      <trkpt lat="37.000850988551974" lon="-3.072143029421568">
        <ele>939.35000000000002</ele>
        <time>2025-05-12T10:03:56Z</time>
      </trkpt>
      <trkpt lat="37.000687960535288" lon="-3.072159038856626">
        <ele>937.89999999999998</ele>
        <time>2025-05-12T10:04:00Z</time>
      </trkpt>
      <trkpt lat="37.000607997179031" lon="-3.072186028584838">
        <ele>937.89999999999998</ele>
        <time>2025-05-12T10:04:01Z</time>
      </trkpt>
      <trkpt lat="37.000558963045478" lon="-3.072202038019896">
        <ele>937.41999999999996</ele>
        <time>2025-05-12T10:04:02Z</time>
      </trkpt>
      <trkpt lat="37.00049702078104" lon="-3.072263980284333">
        <ele>936.94000000000005</ele>
        <time>2025-05-12T10:04:03Z</time>
      </trkpt>
      <trkpt lat="37.000443963333964" lon="-3.072317037731409">
        <ele>936.46000000000004</ele>
        <time>2025-05-12T10:04:04Z</time>
      </trkpt>
      <trkpt lat="37.000380009412766" lon="-3.072380991652608">
        <ele>935.98000000000002</ele>
        <time>2025-05-12T10:04:05Z</time>
      </trkpt>
      <trkpt lat="37.000313960015774" lon="-3.0724470410496">
        <ele>935.5</ele>
        <time>2025-05-12T10:04:06Z</time>
      </trkpt>
      <trkpt lat="37.000011960044503" lon="-3.0727060418576">
        <ele>933.10000000000002</ele>
        <time>2025-05-12T10:04:10Z</time>
      </trkpt>
      <trkpt lat="36.99976603500545" lon="-3.0728770326823">
        <ele>932.13999999999999</ele>
        <time>2025-05-12T10:04:13Z</time>
      </trkpt>
      <trkpt lat="36.999677019193769" lon="-3.072937969118357">
        <ele>931.64999999999998</ele>
        <time>2025-05-12T10:04:14Z</time>
      </trkpt>
      <trkpt lat="36.99959303252399" lon="-3.072995971888304">
        <ele>931.64999999999998</ele>
        <time>2025-05-12T10:04:15Z</time>
      </trkpt>
      <trkpt lat="36.999496975913644" lon="-3.073037965223193">
        <ele>931.64999999999998</ele>
        <time>2025-05-12T10:04:16Z</time>
      </trkpt>
      <trkpt lat="36.999406032264233" lon="-3.073078030720353">
        <ele>931.16999999999996</ele>
        <time>2025-05-12T10:04:17Z</time>
      </trkpt>
      <trkpt lat="36.999317016452551" lon="-3.073117006570101">
        <ele>930.69000000000005</ele>
        <time>2025-05-12T10:04:18Z</time>
      </trkpt>
      <trkpt lat="36.99922900646925" lon="-3.073166962713003">
        <ele>929.73000000000002</ele>
        <time>2025-05-12T10:04:19Z</time>
      </trkpt>
      <trkpt lat="36.999063966795802" lon="-3.073332002386451">
        <ele>928.76999999999998</ele>
        <time>2025-05-12T10:04:21Z</time>
      </trkpt>
      <trkpt lat="36.998975034803152" lon="-3.073422024026513">
        <ele>928.28999999999996</ele>
        <time>2025-05-12T10:04:22Z</time>
      </trkpt>
      <trkpt lat="36.99888501316309" lon="-3.073511961847544">
        <ele>927.80999999999995</ele>
        <time>2025-05-12T10:04:23Z</time>
      </trkpt>
      <trkpt lat="36.998513024300337" lon="-3.073830977082253">
        <ele>924.45000000000005</ele>
        <time>2025-05-12T10:04:27Z</time>
      </trkpt>
      <trkpt lat="36.998433982953429" lon="-3.073897026479244">
        <ele>923.48000000000002</ele>
        <time>2025-05-12T10:04:28Z</time>
      </trkpt>
      <trkpt lat="36.99837002903223" lon="-3.073897026479244">
        <ele>922.51999999999998</ele>
        <time>2025-05-12T10:04:29Z</time>
      </trkpt>
      <trkpt lat="36.998308002948761" lon="-3.073827959597111">
        <ele>921.55999999999995</ele>
        <time>2025-05-12T10:04:30Z</time>
      </trkpt>
      <trkpt lat="36.998256035149097" lon="-3.073770962655544">
        <ele>920.60000000000002</ele>
        <time>2025-05-12T10:04:31Z</time>
      </trkpt>
      <trkpt lat="36.998202977702022" lon="-3.073712037876248">
        <ele>919.63999999999999</ele>
        <time>2025-05-12T10:04:32Z</time>
      </trkpt>
      <trkpt lat="36.99817699380219" lon="-3.073683036491275">
        <ele>918.67999999999995</ele>
        <time>2025-05-12T10:04:33Z</time>
      </trkpt>
      <trkpt lat="36.998057970777154" lon="-3.073638025671244">
        <ele>917.24000000000001</ele>
        <time>2025-05-12T10:04:34Z</time>
      </trkpt>
      <trkpt lat="36.997979013249278" lon="-3.073634002357721">
        <ele>916.75</ele>
        <time>2025-05-12T10:04:35Z</time>
      </trkpt>
      <trkpt lat="36.99789997190237" lon="-3.073682030662894">
        <ele>915.78999999999996</ele>
        <time>2025-05-12T10:04:36Z</time>
      </trkpt>
      <trkpt lat="36.99781003408134" lon="-3.0737370159477">
        <ele>914.83000000000004</ele>
        <time>2025-05-12T10:04:37Z</time>
      </trkpt>
      <trkpt lat="36.997711965814233" lon="-3.073797030374408">
        <ele>913.87</ele>
        <time>2025-05-12T10:04:38Z</time>
      </trkpt>
      <trkpt lat="36.997413989156485" lon="-3.073976989835501">
        <ele>910.02999999999997</ele>
        <time>2025-05-12T10:04:41Z</time>
      </trkpt>
      <trkpt lat="36.997359003871679" lon="-3.07408100925386">
        <ele>908.58000000000004</ele>
        <time>2025-05-12T10:04:42Z</time>
      </trkpt>
      <trkpt lat="36.997092962265015" lon="-3.074647961184382">
        <ele>900.40999999999997</ele>
        <time>2025-05-12T10:04:47Z</time>
      </trkpt>
      <trkpt lat="36.997084999457002" lon="-3.074750974774361">
        <ele>899.45000000000005</ele>
        <time>2025-05-12T10:04:48Z</time>
      </trkpt>
      <trkpt lat="36.997090028598905" lon="-3.074868991971016">
        <ele>898.00999999999999</ele>
        <time>2025-05-12T10:04:49Z</time>
      </trkpt>
      <trkpt lat="36.997097991406918" lon="-3.075124975293875">
        <ele>896.09000000000003</ele>
        <time>2025-05-12T10:04:51Z</time>
      </trkpt>
      <trkpt lat="36.99710201472044" lon="-3.075246009975672">
        <ele>895.12</ele>
        <time>2025-05-12T10:04:52Z</time>
      </trkpt>
      <trkpt lat="36.997052980586886" lon="-3.07537198998034">
        <ele>893.67999999999995</ele>
        <time>2025-05-12T10:04:53Z</time>
      </trkpt>
      <trkpt lat="36.996991038322449" lon="-3.075468968600035">
        <ele>892.24000000000001</ele>
        <time>2025-05-12T10:04:54Z</time>
      </trkpt>
      <trkpt lat="36.996919959783554" lon="-3.075580028817058">
        <ele>890.79999999999995</ele>
        <time>2025-05-12T10:04:55Z</time>
      </trkpt>
      <trkpt lat="36.996713010594249" lon="-3.075932990759611">
        <ele>887.42999999999995</ele>
        <time>2025-05-12T10:04:58Z</time>
      </trkpt>
      <trkpt lat="36.996656013652682" lon="-3.076056037098169">
        <ele>886.47000000000003</ele>
        <time>2025-05-12T10:04:59Z</time>
      </trkpt>
      <trkpt lat="36.996544031426311" lon="-3.076301962137222">
        <ele>884.07000000000005</ele>
        <time>2025-05-12T10:05:01Z</time>
      </trkpt>
      <trkpt lat="36.996463984251022" lon="-3.076388966292143">
        <ele>883.11000000000001</ele>
        <time>2025-05-12T10:05:02Z</time>
      </trkpt>
      <trkpt lat="36.996368011459708" lon="-3.076460966840386">
        <ele>882.14999999999998</ele>
        <time>2025-05-12T10:05:03Z</time>
      </trkpt>
      <trkpt lat="36.996080009266734" lon="-3.076700018718839">
        <ele>879.74000000000001</ele>
        <time>2025-05-12T10:05:06Z</time>
      </trkpt>
      <trkpt lat="36.996025023981929" lon="-3.076816024258733">
        <ele>878.77999999999997</ele>
        <time>2025-05-12T10:05:07Z</time>
      </trkpt>
      <trkpt lat="36.995970960706472" lon="-3.076930018141866">
        <ele>877.82000000000005</ele>
        <time>2025-05-12T10:05:08Z</time>
      </trkpt>
      <trkpt lat="36.995851015672088" lon="-3.077270993962884">
        <ele>876.38</ele>
        <time>2025-05-12T10:05:11Z</time>
      </trkpt>
      <trkpt lat="36.995772980153561" lon="-3.077528988942504">
        <ele>874.94000000000005</ele>
        <time>2025-05-12T10:05:14Z</time>
      </trkpt>
      <trkpt lat="36.995756970718503" lon="-3.077580034732819">
        <ele>874.46000000000004</ele>
        <time>2025-05-12T10:05:15Z</time>
      </trkpt>
      <trkpt lat="36.995748002082109" lon="-3.077612975612283">
        <ele>873.98000000000002</ele>
        <time>2025-05-12T10:05:16Z</time>
      </trkpt>
      <trkpt lat="36.995742972940207" lon="-3.07762898504734">
        <ele>873.98000000000002</ele>
        <time>2025-05-12T10:05:17Z</time>
      </trkpt>
      <trkpt lat="36.995667032897472" lon="-3.077696040272713">
        <ele>873.00999999999999</ele>
        <time>2025-05-12T10:05:18Z</time>
      </trkpt>
      <trkpt lat="36.995649011805654" lon="-3.077677013352513">
        <ele>873.5</ele>
        <time>2025-05-12T10:05:19Z</time>
      </trkpt>
      <trkpt lat="36.995610035955906" lon="-3.077638959512115">
        <ele>873.5</ele>
        <time>2025-05-12T10:05:20Z</time>
      </trkpt>
      <trkpt lat="36.995559995993972" lon="-3.077589003369212">
        <ele>873.00999999999999</ele>
        <time>2025-05-12T10:05:21Z</time>
      </trkpt>
      <trkpt lat="36.995495036244392" lon="-3.077523959800601">
        <ele>873.00999999999999</ele>
        <time>2025-05-12T10:05:22Z</time>
      </trkpt>
      <trkpt lat="36.995438961312175" lon="-3.077497975900769">
        <ele>872.52999999999997</ele>
        <time>2025-05-12T10:05:23Z</time>
      </trkpt>
      <trkpt lat="36.995266964659095" lon="-3.077419018372893">
        <ele>871.57000000000005</ele>
        <time>2025-05-12T10:05:25Z</time>
      </trkpt>
      <trkpt lat="36.995171997696161" lon="-3.077384987846017">
        <ele>871.57000000000005</ele>
        <time>2025-05-12T10:05:26Z</time>
      </trkpt>
      <trkpt lat="36.994973011314869" lon="-3.077338971197605">
        <ele>871.09000000000003</ele>
        <time>2025-05-12T10:05:28Z</time>
      </trkpt>
      <trkpt lat="36.994898999109864" lon="-3.077293038368225">
        <ele>871.09000000000003</ele>
        <time>2025-05-12T10:05:29Z</time>
      </trkpt>
      <trkpt lat="36.994850970804691" lon="-3.077222965657711">
        <ele>870.61000000000001</ele>
        <time>2025-05-12T10:05:30Z</time>
      </trkpt>
      <trkpt lat="36.994850970804691" lon="-3.077139984816313">
        <ele>870.13</ele>
        <time>2025-05-12T10:05:31Z</time>
      </trkpt>
      <trkpt lat="36.994906039908528" lon="-3.077082987874746">
        <ele>869.64999999999998</ele>
        <time>2025-05-12T10:05:32Z</time>
      </trkpt>
      <trkpt lat="36.994979968294501" lon="-3.077008975669742">
        <ele>869.64999999999998</ele>
        <time>2025-05-12T10:05:33Z</time>
      </trkpt>
      <trkpt lat="36.995052974671125" lon="-3.0769610311836">
        <ele>869.16999999999996</ele>
        <time>2025-05-12T10:05:34Z</time>
      </trkpt>
      <trkpt lat="36.995139978826046" lon="-3.076905040070415">
        <ele>869.16999999999996</ele>
        <time>2025-05-12T10:05:35Z</time>
      </trkpt>
      <trkpt lat="36.995309041813016" lon="-3.076795991510153">
        <ele>868.21000000000004</ele>
        <time>2025-05-12T10:05:37Z</time>
      </trkpt>
      <trkpt lat="36.995363021269441" lon="-3.076726002618671">
        <ele>868.21000000000004</ele>
        <time>2025-05-12T10:05:38Z</time>
      </trkpt>
      <trkpt lat="36.995382970198989" lon="-3.07663899846375">
        <ele>868.21000000000004</ele>
        <time>2025-05-12T10:05:39Z</time>
      </trkpt>
      <trkpt lat="36.995366038754582" lon="-3.076536990702152">
        <ele>867.73000000000002</ele>
        <time>2025-05-12T10:05:40Z</time>
      </trkpt>
      <trkpt lat="36.995303006842732" lon="-3.076468007639051">
        <ele>867.25</ele>
        <time>2025-05-12T10:05:41Z</time>
      </trkpt>
      <trkpt lat="36.995228994637728" lon="-3.076387038454413">
        <ele>867.25</ele>
        <time>2025-05-12T10:05:42Z</time>
      </trkpt>
      <trkpt lat="36.995001006871462" lon="-3.076149998232722">
        <ele>865.79999999999995</ele>
        <time>2025-05-12T10:05:45Z</time>
      </trkpt>
      <trkpt lat="36.994952978566289" lon="-3.076054025441408">
        <ele>865.32000000000005</ele>
        <time>2025-05-12T10:05:46Z</time>
      </trkpt>
      <trkpt lat="36.994922971352935" lon="-3.075957968831062">
        <ele>864.84000000000003</ele>
        <time>2025-05-12T10:05:47Z</time>
      </trkpt>
      <trkpt lat="36.994960019364953" lon="-3.075850009918213">
        <ele>863.88</ele>
        <time>2025-05-12T10:05:48Z</time>
      </trkpt>
      <trkpt lat="36.995002012699842" lon="-3.075730986893177">
        <ele>863.39999999999998</ele>
        <time>2025-05-12T10:05:49Z</time>
      </trkpt>
      <trkpt lat="36.995046017691493" lon="-3.07560701854527">
        <ele>862.44000000000005</ele>
        <time>2025-05-12T10:05:50Z</time>
      </trkpt>
      <trkpt lat="36.99506001546979" lon="-3.075484978035092">
        <ele>861.48000000000002</ele>
        <time>2025-05-12T10:05:51Z</time>
      </trkpt>
      <trkpt lat="36.995050963014364" lon="-3.075376013293862">
        <ele>860.51999999999998</ele>
        <time>2025-05-12T10:05:52Z</time>
      </trkpt>
      <trkpt lat="36.995016010478139" lon="-3.075271993875504">
        <ele>859.55999999999995</ele>
        <time>2025-05-12T10:05:53Z</time>
      </trkpt>
      <trkpt lat="36.99493202380836" lon="-3.075210973620415">
        <ele>858.11000000000001</ele>
        <time>2025-05-12T10:05:54Z</time>
      </trkpt>
      <trkpt lat="36.994833033531904" lon="-3.075139978900552">
        <ele>857.14999999999998</ele>
        <time>2025-05-12T10:05:55Z</time>
      </trkpt>
      <trkpt lat="36.994515024125576" lon="-3.074911991134286">
        <ele>853.78999999999996</ele>
        <time>2025-05-12T10:05:58Z</time>
      </trkpt>
      <trkpt lat="36.994466995820403" lon="-3.074804032221437">
        <ele>852.83000000000004</ele>
        <time>2025-05-12T10:05:59Z</time>
      </trkpt>
      <trkpt lat="36.994421985000372" lon="-3.074690960347652">
        <ele>851.38</ele>
        <time>2025-05-12T10:06:00Z</time>
      </trkpt>
      <trkpt lat="36.99437303468585" lon="-3.074396001175046">
        <ele>848.5</ele>
        <time>2025-05-12T10:06:02Z</time>
      </trkpt>
      <trkpt lat="36.994331041350961" lon="-3.07425300590694">
        <ele>847.05999999999995</ele>
        <time>2025-05-12T10:06:03Z</time>
      </trkpt>
      <trkpt lat="36.994258034974337" lon="-3.074116967618465">
        <ele>846.10000000000002</ele>
        <time>2025-05-12T10:06:04Z</time>
      </trkpt>
      <trkpt lat="36.994158960878849" lon="-3.07399501092732">
        <ele>845.13999999999999</ele>
        <time>2025-05-12T10:06:05Z</time>
      </trkpt>
      <trkpt lat="36.994061982259154" lon="-3.073875987902284">
        <ele>844.17999999999995</ele>
        <time>2025-05-12T10:06:06Z</time>
      </trkpt>
      <trkpt lat="36.993970032781363" lon="-3.073745984584093">
        <ele>843.69000000000005</ele>
        <time>2025-05-12T10:06:07Z</time>
      </trkpt>
      <trkpt lat="36.993899960070848" lon="-3.073603995144367">
        <ele>843.21000000000004</ele>
        <time>2025-05-12T10:06:08Z</time>
      </trkpt>
      <trkpt lat="36.993831982836127" lon="-3.073468040674925">
        <ele>842.73000000000002</ele>
        <time>2025-05-12T10:06:09Z</time>
      </trkpt>
      <trkpt lat="36.993732992559671" lon="-3.073375001549721">
        <ele>842.73000000000002</ele>
        <time>2025-05-12T10:06:10Z</time>
      </trkpt>
      <trkpt lat="36.993626039475203" lon="-3.07328699156642">
        <ele>841.76999999999998</ele>
        <time>2025-05-12T10:06:11Z</time>
      </trkpt>
      <trkpt lat="36.993540041148663" lon="-3.073197975754738">
        <ele>841.28999999999996</ele>
        <time>2025-05-12T10:06:12Z</time>
      </trkpt>
      <trkpt lat="36.993469968438148" lon="-3.073108959943056">
        <ele>841.28999999999996</ele>
        <time>2025-05-12T10:06:13Z</time>
      </trkpt>
      <trkpt lat="36.993412971496582" lon="-3.073034025728703">
        <ele>840.80999999999995</ele>
        <time>2025-05-12T10:06:14Z</time>
      </trkpt>
      <trkpt lat="36.993395034223795" lon="-3.072921959683299">
        <ele>840.80999999999995</ele>
        <time>2025-05-12T10:06:15Z</time>
      </trkpt>
      <trkpt lat="36.993377013131976" lon="-3.072802014648914">
        <ele>840.80999999999995</ele>
        <time>2025-05-12T10:06:16Z</time>
      </trkpt>
      <trkpt lat="36.993369972333312" lon="-3.072682991623879">
        <ele>840.80999999999995</ele>
        <time>2025-05-12T10:06:17Z</time>
      </trkpt>
      <trkpt lat="36.993402997031808" lon="-3.072573021054268">
        <ele>840.33000000000004</ele>
        <time>2025-05-12T10:06:18Z</time>
      </trkpt>
      <trkpt lat="36.993473991751671" lon="-3.072490962222219">
        <ele>840.33000000000004</ele>
        <time>2025-05-12T10:06:19Z</time>
      </trkpt>
      <trkpt lat="36.993560995906591" lon="-3.072420973330736">
        <ele>840.33000000000004</ele>
        <time>2025-05-12T10:06:20Z</time>
      </trkpt>
      <trkpt lat="36.993672978132963" lon="-3.072372023016214">
        <ele>839.85000000000002</ele>
        <time>2025-05-12T10:06:21Z</time>
      </trkpt>
      <trkpt lat="36.993795018643141" lon="-3.072318965569139">
        <ele>839.37</ele>
        <time>2025-05-12T10:06:22Z</time>
      </trkpt>
      <trkpt lat="36.994282007217407" lon="-3.07204102165997">
        <ele>836.96000000000004</ele>
        <time>2025-05-12T10:06:26Z</time>
      </trkpt>
      <trkpt lat="36.994368005543947" lon="-3.071956029161811">
        <ele>836</ele>
        <time>2025-05-12T10:06:27Z</time>
      </trkpt>
      <trkpt lat="36.994417039677501" lon="-3.071867013350129">
        <ele>835.51999999999998</ele>
        <time>2025-05-12T10:06:28Z</time>
      </trkpt>
      <trkpt lat="36.994403963908553" lon="-3.071765005588532">
        <ele>834.55999999999995</ele>
        <time>2025-05-12T10:06:29Z</time>
      </trkpt>
      <trkpt lat="36.994388960301876" lon="-3.07165302336216">
        <ele>833.60000000000002</ele>
        <time>2025-05-12T10:06:30Z</time>
      </trkpt>
      <trkpt lat="36.994348978623748" lon="-3.071532994508743">
        <ele>832.63999999999999</ele>
        <time>2025-05-12T10:06:31Z</time>
      </trkpt>
      <trkpt lat="36.994284018874168" lon="-3.071430986747146">
        <ele>831.67999999999995</ele>
        <time>2025-05-12T10:06:32Z</time>
      </trkpt>
      <trkpt lat="36.994211012497544" lon="-3.071336019784212">
        <ele>830.72000000000003</ele>
        <time>2025-05-12T10:06:33Z</time>
      </trkpt>
      <trkpt lat="36.994101963937283" lon="-3.071284973993897">
        <ele>830.24000000000001</ele>
        <time>2025-05-12T10:06:34Z</time>
      </trkpt>
      <trkpt lat="36.993811028078198" lon="-3.071093028411269">
        <ele>828.30999999999995</ele>
        <time>2025-05-12T10:06:37Z</time>
      </trkpt>
      <trkpt lat="36.993755036965013" lon="-3.07100904174149">
        <ele>827.83000000000004</ele>
        <time>2025-05-12T10:06:38Z</time>
      </trkpt>
      <trkpt lat="36.993757970631123" lon="-3.070942992344499">
        <ele>827.35000000000002</ele>
        <time>2025-05-12T10:06:39Z</time>
      </trkpt>
      <trkpt lat="36.993805998936296" lon="-3.070865962654352">
        <ele>826.87</ele>
        <time>2025-05-12T10:06:40Z</time>
      </trkpt>
      <trkpt lat="36.993853021413088" lon="-3.070805026218295">
        <ele>826.38999999999999</ele>
        <time>2025-05-12T10:06:41Z</time>
      </trkpt>
      <trkpt lat="36.993939019739628" lon="-3.070788010954857">
        <ele>826.38999999999999</ele>
        <time>2025-05-12T10:06:42Z</time>
      </trkpt>
      <trkpt lat="36.99403096921742" lon="-3.070769989863038">
        <ele>825.90999999999997</ele>
        <time>2025-05-12T10:06:43Z</time>
      </trkpt>
      <trkpt lat="36.994129959493876" lon="-3.07075004093349">
        <ele>825.42999999999995</ele>
        <time>2025-05-12T10:06:44Z</time>
      </trkpt>
      <trkpt lat="36.994213024154305" lon="-3.070679968222976">
        <ele>825.42999999999995</ele>
        <time>2025-05-12T10:06:45Z</time>
      </trkpt>
      <trkpt lat="36.994292987510562" lon="-3.070576032623649">
        <ele>824.47000000000003</ele>
        <time>2025-05-12T10:06:46Z</time>
      </trkpt>
      <trkpt lat="36.994378985837102" lon="-3.070463966578245">
        <ele>824.47000000000003</ele>
        <time>2025-05-12T10:06:47Z</time>
      </trkpt>
      <trkpt lat="36.994990026578307" lon="-3.069715965539217">
        <ele>818.22000000000003</ele>
        <time>2025-05-12T10:06:55Z</time>
      </trkpt>
      <trkpt lat="36.995038976892829" lon="-3.069660980254412">
        <ele>817.25999999999999</ele>
        <time>2025-05-12T10:06:56Z</time>
      </trkpt>
      <trkpt lat="36.995078036561608" lon="-3.069617981091142">
        <ele>816.29999999999995</ele>
        <time>2025-05-12T10:06:57Z</time>
      </trkpt>
      <trkpt lat="36.995153976604342" lon="-3.069626027718186">
        <ele>815.34000000000003</ele>
        <time>2025-05-12T10:06:58Z</time>
      </trkpt>
      <trkpt lat="36.995203010737896" lon="-3.069670032709837">
        <ele>814.37</ele>
        <time>2025-05-12T10:06:59Z</time>
      </trkpt>
      <trkpt lat="36.995260007679462" lon="-3.069722000509501">
        <ele>813.40999999999997</ele>
        <time>2025-05-12T10:07:00Z</time>
      </trkpt>
      <trkpt lat="36.99540501460433" lon="-3.069831971079111">
        <ele>812.92999999999995</ele>
        <time>2025-05-12T10:07:02Z</time>
      </trkpt>
      <trkpt lat="36.996082020923495" lon="-3.070194991305471">
        <ele>813.40999999999997</ele>
        <time>2025-05-12T10:07:09Z</time>
      </trkpt>
      <trkpt lat="36.996430037543178" lon="-3.070289958268404">
        <ele>813.40999999999997</ele>
        <time>2025-05-12T10:07:13Z</time>
      </trkpt>
      <trkpt lat="36.996480999514461" lon="-3.070284007117152">
        <ele>813.40999999999997</ele>
        <time>2025-05-12T10:07:14Z</time>
      </trkpt>
      <trkpt lat="36.996544031426311" lon="-3.07025701738894">
        <ele>813.40999999999997</ele>
        <time>2025-05-12T10:07:15Z</time>
      </trkpt>
      <trkpt lat="36.996611002832651" lon="-3.070228016003966">
        <ele>813.40999999999997</ele>
        <time>2025-05-12T10:07:16Z</time>
      </trkpt>
      <trkpt lat="36.996628018096089" lon="-3.070176970213652">
        <ele>813.40999999999997</ele>
        <time>2025-05-12T10:07:17Z</time>
      </trkpt>
      <trkpt lat="36.996654001995921" lon="-3.070099018514156">
        <ele>813.40999999999997</ele>
        <time>2025-05-12T10:07:18Z</time>
      </trkpt>
      <trkpt lat="36.996664982289076" lon="-3.070055013522506">
        <ele>813.40999999999997</ele>
        <time>2025-05-12T10:07:19Z</time>
      </trkpt>
      <trkpt lat="36.996678980067372" lon="-3.069981001317501">
        <ele>813.88999999999999</ele>
        <time>2025-05-12T10:07:20Z</time>
      </trkpt>
      <trkpt lat="36.996690966188908" lon="-3.069903971627355">
        <ele>813.88999999999999</ele>
        <time>2025-05-12T10:07:21Z</time>
      </trkpt>
      <trkpt lat="36.996707981452346" lon="-3.069828031584621">
        <ele>814.37</ele>
        <time>2025-05-12T10:07:22Z</time>
      </trkpt>
      <trkpt lat="36.996723990887403" lon="-3.069748990237713">
        <ele>814.37</ele>
        <time>2025-05-12T10:07:23Z</time>
      </trkpt>
      <trkpt lat="36.996850976720452" lon="-3.069363003596664">
        <ele>815.34000000000003</ele>
        <time>2025-05-12T10:07:28Z</time>
      </trkpt>
      <trkpt lat="36.99688701890409" lon="-3.069278011098504">
        <ele>815.82000000000005</ele>
        <time>2025-05-12T10:07:29Z</time>
      </trkpt>
      <trkpt lat="36.996924988925457" lon="-3.069188995286822">
        <ele>816.29999999999995</ele>
        <time>2025-05-12T10:07:30Z</time>
      </trkpt>
      <trkpt lat="36.996975028887391" lon="-3.069068966433406">
        <ele>816.77999999999997</ele>
        <time>2025-05-12T10:07:31Z</time>
      </trkpt>
      <trkpt lat="36.997033031657338" lon="-3.069011969491839">
        <ele>817.74000000000001</ele>
        <time>2025-05-12T10:07:32Z</time>
      </trkpt>
      <trkpt lat="36.997106038033962" lon="-3.068938963115215">
        <ele>818.22000000000003</ele>
        <time>2025-05-12T10:07:33Z</time>
      </trkpt>
      <trkpt lat="36.997186001390219" lon="-3.068885989487171">
        <ele>819.17999999999995</ele>
        <time>2025-05-12T10:07:34Z</time>
      </trkpt>
      <trkpt lat="36.997268982231617" lon="-3.068839972838759">
        <ele>819.65999999999997</ele>
        <time>2025-05-12T10:07:35Z</time>
      </trkpt>
      <trkpt lat="36.99736101552844" lon="-3.068808037787676">
        <ele>820.62</ele>
        <time>2025-05-12T10:07:36Z</time>
      </trkpt>
      <trkpt lat="36.997454976662993" lon="-3.06879797950387">
        <ele>821.58000000000004</ele>
        <time>2025-05-12T10:07:37Z</time>
      </trkpt>
      <trkpt lat="36.997541980817914" lon="-3.068790016695857">
        <ele>822.54999999999995</ele>
        <time>2025-05-12T10:07:38Z</time>
      </trkpt>
      <trkpt lat="36.997623033821583" lon="-3.068781970068812">
        <ele>823.50999999999999</ele>
        <time>2025-05-12T10:07:39Z</time>
      </trkpt>
      <trkpt lat="36.997707020491362" lon="-3.068773001432419">
        <ele>824.47000000000003</ele>
        <time>2025-05-12T10:07:40Z</time>
      </trkpt>
      <trkpt lat="36.997797964140773" lon="-3.068791022524238">
        <ele>825.42999999999995</ele>
        <time>2025-05-12T10:07:41Z</time>
      </trkpt>
      <trkpt lat="36.997870970517397" lon="-3.068823963403702">
        <ele>825.90999999999997</ele>
        <time>2025-05-12T10:07:42Z</time>
      </trkpt>
      <trkpt lat="36.99824103154242" lon="-3.069005012512207">
        <ele>828.30999999999995</ele>
        <time>2025-05-12T10:07:47Z</time>
      </trkpt>
      <trkpt lat="36.998333986848593" lon="-3.069048011675477">
        <ele>828.78999999999996</ele>
        <time>2025-05-12T10:07:48Z</time>
      </trkpt>
      <trkpt lat="36.99854495935142" lon="-3.069066032767296">
        <ele>829.26999999999998</ele>
        <time>2025-05-12T10:07:50Z</time>
      </trkpt>
      <trkpt lat="36.998740006238222" lon="-3.069035019725561">
        <ele>829.26999999999998</ele>
        <time>2025-05-12T10:07:52Z</time>
      </trkpt>
      <trkpt lat="36.998813012614846" lon="-3.068982968106866">
        <ele>828.78999999999996</ele>
        <time>2025-05-12T10:07:53Z</time>
      </trkpt>
      <trkpt lat="36.998866992071271" lon="-3.068907028064132">
        <ele>829.26999999999998</ele>
        <time>2025-05-12T10:07:54Z</time>
      </trkpt>
      <trkpt lat="36.998894987627864" lon="-3.068812983110547">
        <ele>829.26999999999998</ele>
        <time>2025-05-12T10:07:55Z</time>
      </trkpt>
      <trkpt lat="36.998926000669599" lon="-3.068710975348949">
        <ele>829.26999999999998</ele>
        <time>2025-05-12T10:07:56Z</time>
      </trkpt>
      <trkpt lat="36.998982997611165" lon="-3.068612990900874">
        <ele>828.78999999999996</ele>
        <time>2025-05-12T10:07:57Z</time>
      </trkpt>
      <trkpt lat="36.99905700981617" lon="-3.068490028381348">
        <ele>828.78999999999996</ele>
        <time>2025-05-12T10:07:58Z</time>
      </trkpt>
      <trkpt lat="36.999146025627851" lon="-3.068428002297878">
        <ele>828.30999999999995</ele>
        <time>2025-05-12T10:07:59Z</time>
      </trkpt>
      <trkpt lat="36.999247027561069" lon="-3.068357007578015">
        <ele>827.83000000000004</ele>
        <time>2025-05-12T10:08:00Z</time>
      </trkpt>
      <trkpt lat="36.999346017837524" lon="-3.068288024514914">
        <ele>827.83000000000004</ele>
        <time>2025-05-12T10:08:01Z</time>
      </trkpt>
      <trkpt lat="36.9994440022856" lon="-3.068219041451812">
        <ele>827.35000000000002</ele>
        <time>2025-05-12T10:08:02Z</time>
      </trkpt>
      <trkpt lat="36.999526983126998" lon="-3.068115022033453">
        <ele>827.35000000000002</ele>
        <time>2025-05-12T10:08:03Z</time>
      </trkpt>
      <trkpt lat="36.999594960361719" lon="-3.067993987351656">
        <ele>826.87</ele>
        <time>2025-05-12T10:08:04Z</time>
      </trkpt>
      <trkpt lat="36.999661009758711" lon="-3.06787496432662">
        <ele>826.87</ele>
        <time>2025-05-12T10:08:05Z</time>
      </trkpt>
      <trkpt lat="36.999729992821813" lon="-3.067778991535306">
        <ele>826.38999999999999</ele>
        <time>2025-05-12T10:08:06Z</time>
      </trkpt>
      <trkpt lat="36.99980802834034" lon="-3.067714031785727">
        <ele>826.38999999999999</ele>
        <time>2025-05-12T10:08:07Z</time>
      </trkpt>
      <trkpt lat="36.999901989474893" lon="-3.067691987380385">
        <ele>825.90999999999997</ele>
        <time>2025-05-12T10:08:08Z</time>
      </trkpt>
      <trkpt lat="37.000011960044503" lon="-3.067685030400753">
        <ele>825.42999999999995</ele>
        <time>2025-05-12T10:08:09Z</time>
      </trkpt>
      <trkpt lat="37.000128971412778" lon="-3.06767899543047">
        <ele>824.95000000000005</ele>
        <time>2025-05-12T10:08:10Z</time>
      </trkpt>
      <trkpt lat="37.000243971124291" lon="-3.067668015137315">
        <ele>824.47000000000003</ele>
        <time>2025-05-12T10:08:11Z</time>
      </trkpt>
      <trkpt lat="37.000353019684553" lon="-3.067652005702257">
        <ele>823.99000000000001</ele>
        <time>2025-05-12T10:08:12Z</time>
      </trkpt>
      <trkpt lat="37.000451004132628" lon="-3.067638007923961">
        <ele>823.50999999999999</ele>
        <time>2025-05-12T10:08:13Z</time>
      </trkpt>
      <trkpt lat="37.000527027994394" lon="-3.067582016810775">
        <ele>823.02999999999997</ele>
        <time>2025-05-12T10:08:14Z</time>
      </trkpt>
      <trkpt lat="37.000585030764341" lon="-3.067496018484235">
        <ele>822.05999999999995</ele>
        <time>2025-05-12T10:08:15Z</time>
      </trkpt>
      <trkpt lat="37.000618977472186" lon="-3.067416977137327">
        <ele>821.58000000000004</ele>
        <time>2025-05-12T10:08:16Z</time>
      </trkpt>
      <trkpt lat="37.000600034371018" lon="-3.067323016002774">
        <ele>821.10000000000002</ele>
        <time>2025-05-12T10:08:17Z</time>
      </trkpt>
      <trkpt lat="37.000572960823774" lon="-3.067218996584415">
        <ele>820.13999999999999</ele>
        <time>2025-05-12T10:08:18Z</time>
      </trkpt>
      <trkpt lat="37.000484028831124" lon="-3.067154958844185">
        <ele>820.13999999999999</ele>
        <time>2025-05-12T10:08:19Z</time>
      </trkpt>
      <trkpt lat="37.000382021069527" lon="-3.067082036286593">
        <ele>820.13999999999999</ele>
        <time>2025-05-12T10:08:20Z</time>
      </trkpt>
      <trkpt lat="37.000123020261526" lon="-3.066952032968402">
        <ele>820.62</ele>
        <time>2025-05-12T10:08:22Z</time>
      </trkpt>
      <trkpt lat="36.999978013336658" lon="-3.066920014098287">
        <ele>820.62</ele>
        <time>2025-05-12T10:08:23Z</time>
      </trkpt>
      <trkpt lat="36.99983099475503" lon="-3.066910039633513">
        <ele>820.62</ele>
        <time>2025-05-12T10:08:24Z</time>
      </trkpt>
      <trkpt lat="36.99968196451664" lon="-3.066901993006468">
        <ele>821.10000000000002</ele>
        <time>2025-05-12T10:08:25Z</time>
      </trkpt>
      <trkpt lat="36.999538969248533" lon="-3.066901993006468">
        <ele>821.10000000000002</ele>
        <time>2025-05-12T10:08:26Z</time>
      </trkpt>
      <trkpt lat="36.999413995072246" lon="-3.066901993006468">
        <ele>821.58000000000004</ele>
        <time>2025-05-12T10:08:27Z</time>
      </trkpt>
      <trkpt lat="36.999307963997126" lon="-3.066838961094618">
        <ele>822.05999999999995</ele>
        <time>2025-05-12T10:08:28Z</time>
      </trkpt>
      <trkpt lat="36.99920897372067" lon="-3.066752040758729">
        <ele>823.50999999999999</ele>
        <time>2025-05-12T10:08:29Z</time>
      </trkpt>
      <trkpt lat="36.999134961515665" lon="-3.066609967499971">
        <ele>824.47000000000003</ele>
        <time>2025-05-12T10:08:30Z</time>
      </trkpt>
      <trkpt lat="36.999077964574099" lon="-3.066473007202148">
        <ele>825.90999999999997</ele>
        <time>2025-05-12T10:08:31Z</time>
      </trkpt>
      <trkpt lat="36.999039994552732" lon="-3.066266980022192">
        <ele>826.87</ele>
        <time>2025-05-12T10:08:32Z</time>
      </trkpt>
      <trkpt lat="36.999003030359745" lon="-3.066066987812519">
        <ele>827.83000000000004</ele>
        <time>2025-05-12T10:08:33Z</time>
      </trkpt>
      <trkpt lat="36.99897101148963" lon="-3.065893985331059">
        <ele>828.78999999999996</ele>
        <time>2025-05-12T10:08:34Z</time>
      </trkpt>
      <trkpt lat="36.998893981799483" lon="-3.065692987293005">
        <ele>829.75999999999999</ele>
        <time>2025-05-12T10:08:35Z</time>
      </trkpt>
      <trkpt lat="36.998811000958085" lon="-3.065529959276319">
        <ele>830.72000000000003</ele>
        <time>2025-05-12T10:08:36Z</time>
      </trkpt>
      <trkpt lat="36.998726008459926" lon="-3.065376989543438">
        <ele>832.15999999999997</ele>
        <time>2025-05-12T10:08:37Z</time>
      </trkpt>
      <trkpt lat="36.998661970719695" lon="-3.065238017588854">
        <ele>833.12</ele>
        <time>2025-05-12T10:08:38Z</time>
      </trkpt>
      <trkpt lat="36.998616959899664" lon="-3.065092004835606">
        <ele>834.08000000000004</ele>
        <time>2025-05-12T10:08:39Z</time>
      </trkpt>
      <trkpt lat="36.998568009585142" lon="-3.064743988215923">
        <ele>836</ele>
        <time>2025-05-12T10:08:41Z</time>
      </trkpt>
      <trkpt lat="36.998545965179801" lon="-3.064574003219605">
        <ele>836.96000000000004</ele>
        <time>2025-05-12T10:08:42Z</time>
      </trkpt>
      <trkpt lat="36.998527022078633" lon="-3.064421033486724">
        <ele>837.92999999999995</ele>
        <time>2025-05-12T10:08:43Z</time>
      </trkpt>
      <trkpt lat="36.998507995158434" lon="-3.064269991591573">
        <ele>838.88999999999999</ele>
        <time>2025-05-12T10:08:44Z</time>
      </trkpt>
      <trkpt lat="36.998510006815195" lon="-3.064104029908776">
        <ele>839.85000000000002</ele>
        <time>2025-05-12T10:08:45Z</time>
      </trkpt>
      <trkpt lat="36.998531967401505" lon="-3.06391904130578">
        <ele>840.80999999999995</ele>
        <time>2025-05-12T10:08:46Z</time>
      </trkpt>
      <trkpt lat="36.998599022626877" lon="-3.063133992254734">
        <ele>843.21000000000004</ele>
        <time>2025-05-12T10:08:50Z</time>
      </trkpt>
      <trkpt lat="36.998574966564775" lon="-3.062941962853074">
        <ele>843.21000000000004</ele>
        <time>2025-05-12T10:08:51Z</time>
      </trkpt>
      <trkpt lat="36.998549988493323" lon="-3.06273995898664">
        <ele>843.69000000000005</ele>
        <time>2025-05-12T10:08:52Z</time>
      </trkpt>
      <trkpt lat="36.99834999628365" lon="-3.061946025118232">
        <ele>843.69000000000005</ele>
        <time>2025-05-12T10:08:56Z</time>
      </trkpt>
      <trkpt lat="36.99828403070569" lon="-3.061785008758307">
        <ele>843.69000000000005</ele>
        <time>2025-05-12T10:08:57Z</time>
      </trkpt>
      <trkpt lat="36.998186968266964" lon="-3.061689035966992">
        <ele>843.21000000000004</ele>
        <time>2025-05-12T10:08:58Z</time>
      </trkpt>
      <trkpt lat="36.998086972162127" lon="-3.061652993783355">
        <ele>843.21000000000004</ele>
        <time>2025-05-12T10:08:59Z</time>
      </trkpt>
      <trkpt lat="36.99798597022891" lon="-3.061615023761988">
        <ele>843.21000000000004</ele>
        <time>2025-05-12T10:09:00Z</time>
      </trkpt>
      <trkpt lat="36.997880022972822" lon="-3.061576969921589">
        <ele>843.69000000000005</ele>
        <time>2025-05-12T10:09:01Z</time>
      </trkpt>
      <trkpt lat="36.997785978019238" lon="-3.06151201017201">
        <ele>844.17999999999995</ele>
        <time>2025-05-12T10:09:02Z</time>
      </trkpt>
      <trkpt lat="36.997682964429259" lon="-3.061408996582031">
        <ele>844.65999999999997</ele>
        <time>2025-05-12T10:09:03Z</time>
      </trkpt>
      <trkpt lat="36.997603001073003" lon="-3.061287961900234">
        <ele>844.65999999999997</ele>
        <time>2025-05-12T10:09:04Z</time>
      </trkpt>
      <trkpt lat="36.997493030503392" lon="-3.061158964410424">
        <ele>845.62</ele>
        <time>2025-05-12T10:09:05Z</time>
      </trkpt>
      <trkpt lat="36.997364033013582" lon="-3.061038013547659">
        <ele>846.10000000000002</ele>
        <time>2025-05-12T10:09:06Z</time>
      </trkpt>
      <trkpt lat="36.997094973921776" lon="-3.060858976095915">
        <ele>846.58000000000004</ele>
        <time>2025-05-12T10:09:08Z</time>
      </trkpt>
      <trkpt lat="36.996968993917108" lon="-3.060807008296251">
        <ele>847.05999999999995</ele>
        <time>2025-05-12T10:09:09Z</time>
      </trkpt>
      <trkpt lat="36.99684401974082" lon="-3.060771971940994">
        <ele>847.53999999999996</ele>
        <time>2025-05-12T10:09:10Z</time>
      </trkpt>
      <trkpt lat="36.996703958138824" lon="-3.060812959447503">
        <ele>848.01999999999998</ele>
        <time>2025-05-12T10:09:11Z</time>
      </trkpt>
      <trkpt lat="36.996556017547846" lon="-3.060855958610773">
        <ele>848.5</ele>
        <time>2025-05-12T10:09:12Z</time>
      </trkpt>
      <trkpt lat="36.996405981481075" lon="-3.060899041593075">
        <ele>848.98000000000002</ele>
        <time>2025-05-12T10:09:13Z</time>
      </trkpt>
      <trkpt lat="36.996259968727827" lon="-3.060942040756345">
        <ele>849.46000000000004</ele>
        <time>2025-05-12T10:09:14Z</time>
      </trkpt>
      <trkpt lat="36.996122002601624" lon="-3.060957966372371">
        <ele>850.41999999999996</ele>
        <time>2025-05-12T10:09:15Z</time>
      </trkpt>
      <trkpt lat="36.995987975969911" lon="-3.060957966372371">
        <ele>850.89999999999998</ele>
        <time>2025-05-12T10:09:16Z</time>
      </trkpt>
      <trkpt lat="36.995886974036694" lon="-3.060898035764694">
        <ele>852.35000000000002</ele>
        <time>2025-05-12T10:09:17Z</time>
      </trkpt>
      <trkpt lat="36.995807010680437" lon="-3.060788987204433">
        <ele>853.78999999999996</ele>
        <time>2025-05-12T10:09:18Z</time>
      </trkpt>
      <trkpt lat="36.995730986818671" lon="-3.060679016634822">
        <ele>854.75</ele>
        <time>2025-05-12T10:09:19Z</time>
      </trkpt>
      <trkpt lat="36.995723024010658" lon="-3.06054599583149">
        <ele>855.71000000000004</ele>
        <time>2025-05-12T10:09:20Z</time>
      </trkpt>
      <trkpt lat="36.995713971555233" lon="-3.060408029705286">
        <ele>856.66999999999996</ele>
        <time>2025-05-12T10:09:21Z</time>
      </trkpt>
      <trkpt lat="36.995686981827021" lon="-3.060292024165392">
        <ele>857.63</ele>
        <time>2025-05-12T10:09:22Z</time>
      </trkpt>
      <trkpt lat="36.995647000148892" lon="-3.060210971161723">
        <ele>858.59000000000003</ele>
        <time>2025-05-12T10:09:23Z</time>
      </trkpt>
      <trkpt lat="36.995590003207326" lon="-3.060151962563396">
        <ele>859.55999999999995</ele>
        <time>2025-05-12T10:09:24Z</time>
      </trkpt>
      <trkpt lat="36.995507022365928" lon="-3.060121033340693">
        <ele>861</ele>
        <time>2025-05-12T10:09:25Z</time>
      </trkpt>
      <trkpt lat="36.995407026261091" lon="-3.060113992542028">
        <ele>861.96000000000004</ele>
        <time>2025-05-12T10:09:26Z</time>
      </trkpt>
      <trkpt lat="36.995300995185971" lon="-3.060146011412144">
        <ele>862.44000000000005</ele>
        <time>2025-05-12T10:09:27Z</time>
      </trkpt>
      <trkpt lat="36.995197981595993" lon="-3.060178030282259">
        <ele>863.39999999999998</ele>
        <time>2025-05-12T10:09:28Z</time>
      </trkpt>
      <trkpt lat="36.995110977441072" lon="-3.060177024453878">
        <ele>864.36000000000001</ele>
        <time>2025-05-12T10:09:29Z</time>
      </trkpt>
      <trkpt lat="36.995022967457771" lon="-3.060164032503963">
        <ele>865.32000000000005</ele>
        <time>2025-05-12T10:09:30Z</time>
      </trkpt>
      <trkpt lat="36.99497502297163" lon="-3.060056995600462">
        <ele>865.79999999999995</ele>
        <time>2025-05-12T10:09:31Z</time>
      </trkpt>
      <trkpt lat="36.994919031858444" lon="-3.059931015595794">
        <ele>867.25</ele>
        <time>2025-05-12T10:09:32Z</time>
      </trkpt>
      <trkpt lat="36.994859017431736" lon="-3.059796988964081">
        <ele>868.21000000000004</ele>
        <time>2025-05-12T10:09:33Z</time>
      </trkpt>
      <trkpt lat="36.994801014661789" lon="-3.059664973989129">
        <ele>869.16999999999996</ele>
        <time>2025-05-12T10:09:34Z</time>
      </trkpt>
      <trkpt lat="36.994764972478151" lon="-3.059547962620854">
        <ele>870.13</ele>
        <time>2025-05-12T10:09:35Z</time>
      </trkpt>
      <trkpt lat="36.994764972478151" lon="-3.059432040899992">
        <ele>871.09000000000003</ele>
        <time>2025-05-12T10:09:36Z</time>
      </trkpt>
      <trkpt lat="36.994764972478151" lon="-3.059328021481633">
        <ele>872.04999999999995</ele>
        <time>2025-05-12T10:09:37Z</time>
      </trkpt>
      <trkpt lat="36.994814006611705" lon="-3.059205980971456">
        <ele>872.52999999999997</ele>
        <time>2025-05-12T10:09:38Z</time>
      </trkpt>
      <trkpt lat="36.994850970804691" lon="-3.059113025665283">
        <ele>873.5</ele>
        <time>2025-05-12T10:09:39Z</time>
      </trkpt>
      <trkpt lat="36.994923977181315" lon="-3.059040019288659">
        <ele>873.98000000000002</ele>
        <time>2025-05-12T10:09:40Z</time>
      </trkpt>
      <trkpt lat="36.995021961629391" lon="-3.058942034840584">
        <ele>875.41999999999996</ele>
        <time>2025-05-12T10:09:41Z</time>
      </trkpt>
      <trkpt lat="36.995261013507843" lon="-3.058732990175486">
        <ele>876.86000000000001</ele>
        <time>2025-05-12T10:09:43Z</time>
      </trkpt>
      <trkpt lat="36.995511967688799" lon="-3.05859100073576">
        <ele>879.25999999999999</ele>
        <time>2025-05-12T10:09:45Z</time>
      </trkpt>
      <trkpt lat="36.995596038177609" lon="-3.058488992974162">
        <ele>880.22000000000003</ele>
        <time>2025-05-12T10:09:46Z</time>
      </trkpt>
      <trkpt lat="36.995670972391963" lon="-3.058361001312733">
        <ele>881.19000000000005</ele>
        <time>2025-05-12T10:09:47Z</time>
      </trkpt>
      <trkpt lat="36.995698967948556" lon="-3.05820400826633">
        <ele>882.14999999999998</ele>
        <time>2025-05-12T10:09:48Z</time>
      </trkpt>
      <trkpt lat="36.995696034282446" lon="-3.058056989684701">
        <ele>883.11000000000001</ele>
        <time>2025-05-12T10:09:49Z</time>
      </trkpt>
      <trkpt lat="36.995676001533866" lon="-3.057913994416595">
        <ele>884.07000000000005</ele>
        <time>2025-05-12T10:09:50Z</time>
      </trkpt>
      <trkpt lat="36.995638031512499" lon="-3.057802012190223">
        <ele>884.54999999999995</ele>
        <time>2025-05-12T10:09:51Z</time>
      </trkpt>
      <trkpt lat="36.995567036792636" lon="-3.057687012478709">
        <ele>885.02999999999997</ele>
        <time>2025-05-12T10:09:52Z</time>
      </trkpt>
      <trkpt lat="36.995493024587631" lon="-3.057566983625293">
        <ele>885.50999999999999</ele>
        <time>2025-05-12T10:09:53Z</time>
      </trkpt>
      <trkpt lat="36.995418006554246" lon="-3.057447038590908">
        <ele>885.99000000000001</ele>
        <time>2025-05-12T10:09:54Z</time>
      </trkpt>
      <trkpt lat="36.995348017662764" lon="-3.057333966717124">
        <ele>886.95000000000005</ele>
        <time>2025-05-12T10:09:55Z</time>
      </trkpt>
      <trkpt lat="36.995280040428042" lon="-3.0572160333395">
        <ele>887.42999999999995</ele>
        <time>2025-05-12T10:09:56Z</time>
      </trkpt>
      <trkpt lat="36.995266964659095" lon="-3.057055016979575">
        <ele>888.39999999999998</ele>
        <time>2025-05-12T10:09:57Z</time>
      </trkpt>
      <trkpt lat="36.995252966880798" lon="-3.056882014498115">
        <ele>888.88</ele>
        <time>2025-05-12T10:09:58Z</time>
      </trkpt>
      <trkpt lat="36.995237041264772" lon="-3.056687973439694">
        <ele>889.84000000000003</ele>
        <time>2025-05-12T10:09:59Z</time>
      </trkpt>
      <trkpt lat="36.995251961052418" lon="-3.05648404173553">
        <ele>890.79999999999995</ele>
        <time>2025-05-12T10:10:00Z</time>
      </trkpt>
      <trkpt lat="36.995395962148905" lon="-3.055212004110217">
        <ele>898.00999999999999</ele>
        <time>2025-05-12T10:10:06Z</time>
      </trkpt>
      <trkpt lat="36.995468968525529" lon="-3.055064985528588">
        <ele>898.97000000000003</ele>
        <time>2025-05-12T10:10:07Z</time>
      </trkpt>
      <trkpt lat="36.995539041236043" lon="-3.054927019402385">
        <ele>900.40999999999997</ele>
        <time>2025-05-12T10:10:08Z</time>
      </trkpt>
      <trkpt lat="36.995606012642384" lon="-3.054803973063827">
        <ele>901.85000000000002</ele>
        <time>2025-05-12T10:10:09Z</time>
      </trkpt>
      <trkpt lat="36.995666027069092" lon="-3.054688973352313">
        <ele>902.82000000000005</ele>
        <time>2025-05-12T10:10:10Z</time>
      </trkpt>
      <trkpt lat="36.995640965178609" lon="-3.054566010832787">
        <ele>903.77999999999997</ele>
        <time>2025-05-12T10:10:11Z</time>
      </trkpt>
      <trkpt lat="36.995614981278777" lon="-3.054433995857835">
        <ele>905.22000000000003</ele>
        <time>2025-05-12T10:10:12Z</time>
      </trkpt>
      <trkpt lat="36.995590003207326" lon="-3.054309021681547">
        <ele>906.17999999999995</ele>
        <time>2025-05-12T10:10:13Z</time>
      </trkpt>
      <trkpt lat="36.995591009035707" lon="-3.054188992828131">
        <ele>907.13999999999999</ele>
        <time>2025-05-12T10:10:14Z</time>
      </trkpt>
      <trkpt lat="36.995610035955906" lon="-3.054051026701927">
        <ele>908.10000000000002</ele>
        <time>2025-05-12T10:10:15Z</time>
      </trkpt>
      <trkpt lat="36.995628979057074" lon="-3.053905013948679">
        <ele>908.58000000000004</ele>
        <time>2025-05-12T10:10:16Z</time>
      </trkpt>
      <trkpt lat="36.99562001042068" lon="-3.053752966225147">
        <ele>909.05999999999995</ele>
        <time>2025-05-12T10:10:17Z</time>
      </trkpt>
      <trkpt lat="36.995545998215675" lon="-3.053637966513634">
        <ele>909.53999999999996</ele>
        <time>2025-05-12T10:10:18Z</time>
      </trkpt>
      <trkpt lat="36.995468968525529" lon="-3.053517015650868">
        <ele>910.50999999999999</ele>
        <time>2025-05-12T10:10:19Z</time>
      </trkpt>
      <trkpt lat="36.995337959378958" lon="-3.053459012880921">
        <ele>910.50999999999999</ele>
        <time>2025-05-12T10:10:20Z</time>
      </trkpt>
      <trkpt lat="36.995220026001334" lon="-3.053448032587767">
        <ele>910.50999999999999</ele>
        <time>2025-05-12T10:10:21Z</time>
      </trkpt>
      <trkpt lat="36.995113994926214" lon="-3.053448032587767">
        <ele>910.50999999999999</ele>
        <time>2025-05-12T10:10:22Z</time>
      </trkpt>
      <trkpt lat="36.995022967457771" lon="-3.053448032587767">
        <ele>910.99000000000001</ele>
        <time>2025-05-12T10:10:23Z</time>
      </trkpt>
      <trkpt lat="36.994963036850095" lon="-3.053388018161058">
        <ele>911.47000000000003</ele>
        <time>2025-05-12T10:10:24Z</time>
      </trkpt>
      <trkpt lat="36.99493202380836" lon="-3.053332027047873">
        <ele>911.47000000000003</ele>
        <time>2025-05-12T10:10:25Z</time>
      </trkpt>
      <trkpt lat="36.994916014373302" lon="-3.053233958780766">
        <ele>911.95000000000005</ele>
        <time>2025-05-12T10:10:26Z</time>
      </trkpt>
      <trkpt lat="36.994946021586657" lon="-3.053158018738031">
        <ele>912.42999999999995</ele>
        <time>2025-05-12T10:10:27Z</time>
      </trkpt>
      <trkpt lat="36.994987009093165" lon="-3.053116025403142">
        <ele>912.90999999999997</ele>
        <time>2025-05-12T10:10:28Z</time>
      </trkpt>
      <trkpt lat="36.995066972449422" lon="-3.053086018189788">
        <ele>913.38999999999999</ele>
        <time>2025-05-12T10:10:29Z</time>
      </trkpt>
      <trkpt lat="36.995145007967949" lon="-3.053073026239872">
        <ele>914.35000000000002</ele>
        <time>2025-05-12T10:10:30Z</time>
      </trkpt>
      <trkpt lat="36.99523301795125" lon="-3.053136980161071">
        <ele>914.83000000000004</ele>
        <time>2025-05-12T10:10:31Z</time>
      </trkpt>
      <trkpt lat="36.995328990742564" lon="-3.053206969052553">
        <ele>915.78999999999996</ele>
        <time>2025-05-12T10:10:32Z</time>
      </trkpt>
      <trkpt lat="36.995635014027357" lon="-3.05345700122416">
        <ele>918.67999999999995</ele>
        <time>2025-05-12T10:10:35Z</time>
      </trkpt>
      <trkpt lat="36.995708020403981" lon="-3.053569989278913">
        <ele>919.63999999999999</ele>
        <time>2025-05-12T10:10:36Z</time>
      </trkpt>
      <trkpt lat="36.995781026780605" lon="-3.053683983162046">
        <ele>920.60000000000002</ele>
        <time>2025-05-12T10:10:37Z</time>
      </trkpt>
      <trkpt lat="36.995815979316831" lon="-3.053815998136997">
        <ele>921.55999999999995</ele>
        <time>2025-05-12T10:10:38Z</time>
      </trkpt>
      <trkpt lat="36.995842969045043" lon="-3.053955975919962">
        <ele>922.51999999999998</ele>
        <time>2025-05-12T10:10:39Z</time>
      </trkpt>
      <trkpt lat="36.995868030935526" lon="-3.054085979238153">
        <ele>923.48000000000002</ele>
        <time>2025-05-12T10:10:40Z</time>
      </trkpt>
      <trkpt lat="36.995899965986609" lon="-3.054195027798414">
        <ele>924.45000000000005</ele>
        <time>2025-05-12T10:10:41Z</time>
      </trkpt>
      <trkpt lat="36.995951011776924" lon="-3.054296029731631">
        <ele>924.92999999999995</ele>
        <time>2025-05-12T10:10:42Z</time>
      </trkpt>
      <trkpt lat="36.996053019538522" lon="-3.054499961435795">
        <ele>926.37</ele>
        <time>2025-05-12T10:10:44Z</time>
      </trkpt>
      <trkpt lat="36.996071962639689" lon="-3.054632982239127">
        <ele>927.33000000000004</ele>
        <time>2025-05-12T10:10:45Z</time>
      </trkpt>
      <trkpt lat="36.996046984568238" lon="-3.05476700887084">
        <ele>927.80999999999995</ele>
        <time>2025-05-12T10:10:46Z</time>
      </trkpt>
      <trkpt lat="36.996012032032013" lon="-3.05491796694696">
        <ele>928.76999999999998</ele>
        <time>2025-05-12T10:10:47Z</time>
      </trkpt>
      <trkpt lat="36.995972972363234" lon="-3.055082000792027">
        <ele>929.73000000000002</ele>
        <time>2025-05-12T10:10:48Z</time>
      </trkpt>
      <trkpt lat="36.995933996513486" lon="-3.055249974131584">
        <ele>930.69000000000005</ele>
        <time>2025-05-12T10:10:49Z</time>
      </trkpt>
      <trkpt lat="36.995939025655389" lon="-3.055425994098187">
        <ele>931.64999999999998</ele>
        <time>2025-05-12T10:10:50Z</time>
      </trkpt>
      <trkpt lat="36.995956040918827" lon="-3.055586004629731">
        <ele>932.13999999999999</ele>
        <time>2025-05-12T10:10:51Z</time>
      </trkpt>
      <trkpt lat="36.995978001505136" lon="-3.055739980190992">
        <ele>933.10000000000002</ele>
        <time>2025-05-12T10:10:52Z</time>
      </trkpt>
      <trkpt lat="36.996004991233349" lon="-3.055888004601002">
        <ele>934.05999999999995</ele>
        <time>2025-05-12T10:10:53Z</time>
      </trkpt>
      <trkpt lat="36.995972972363234" lon="-3.056037034839392">
        <ele>935.01999999999998</ele>
        <time>2025-05-12T10:10:54Z</time>
      </trkpt>
      <trkpt lat="36.995928967371583" lon="-3.056180030107498">
        <ele>935.98000000000002</ele>
        <time>2025-05-12T10:10:55Z</time>
      </trkpt>
      <trkpt lat="36.995859984308481" lon="-3.056409023702145">
        <ele>937.41999999999996</ele>
        <time>2025-05-12T10:10:57Z</time>
      </trkpt>
      <trkpt lat="36.9958780054003" lon="-3.056538021191955">
        <ele>938.38</ele>
        <time>2025-05-12T10:10:58Z</time>
      </trkpt>
      <trkpt lat="36.99592100456357" lon="-3.056618990376592">
        <ele>938.86000000000001</ele>
        <time>2025-05-12T10:10:59Z</time>
      </trkpt>
      <trkpt lat="36.995987975969911" lon="-3.056696020066738">
        <ele>939.35000000000002</ele>
        <time>2025-05-12T10:11:00Z</time>
      </trkpt>
      <trkpt lat="36.996087972074747" lon="-3.056731978431344">
        <ele>940.30999999999995</ele>
        <time>2025-05-12T10:11:01Z</time>
      </trkpt>
      <trkpt lat="36.996188974007964" lon="-3.056769026443362">
        <ele>941.26999999999998</ele>
        <time>2025-05-12T10:11:02Z</time>
      </trkpt>
      <trkpt lat="36.996289975941181" lon="-3.056737007573247">
        <ele>941.75</ele>
        <time>2025-05-12T10:11:03Z</time>
      </trkpt>
      <trkpt lat="36.996402963995934" lon="-3.056689985096455">
        <ele>942.71000000000004</ele>
        <time>2025-05-12T10:11:04Z</time>
      </trkpt>
      <trkpt lat="36.996525004506111" lon="-3.056638017296791">
        <ele>943.19000000000005</ele>
        <time>2025-05-12T10:11:05Z</time>
      </trkpt>
      <trkpt lat="36.996785011142492" lon="-3.056518994271755">
        <ele>944.63</ele>
        <time>2025-05-12T10:11:07Z</time>
      </trkpt>
      <trkpt lat="36.996910991147161" lon="-3.056417992338538">
        <ele>945.59000000000003</ele>
        <time>2025-05-12T10:11:08Z</time>
      </trkpt>
      <trkpt lat="36.99703898280859" lon="-3.056315984576941">
        <ele>946.07000000000005</ele>
        <time>2025-05-12T10:11:09Z</time>
      </trkpt>
      <trkpt lat="36.997157000005245" lon="-3.056196961551905">
        <ele>946.55999999999995</ele>
        <time>2025-05-12T10:11:10Z</time>
      </trkpt>
      <trkpt lat="36.997264958918095" lon="-3.056075004860759">
        <ele>947.51999999999998</ele>
        <time>2025-05-12T10:11:11Z</time>
      </trkpt>
      <trkpt lat="36.997481966391206" lon="-3.055879035964608">
        <ele>948.96000000000004</ele>
        <time>2025-05-12T10:11:13Z</time>
      </trkpt>
      <trkpt lat="36.997604006901383" lon="-3.055843999609351">
        <ele>949.91999999999996</ele>
        <time>2025-05-12T10:11:14Z</time>
      </trkpt>
      <trkpt lat="36.997728981077671" lon="-3.055808041244745">
        <ele>950.88</ele>
        <time>2025-05-12T10:11:15Z</time>
      </trkpt>
      <trkpt lat="36.997839035466313" lon="-3.055777028203011">
        <ele>951.84000000000003</ele>
        <time>2025-05-12T10:11:16Z</time>
      </trkpt>
      <trkpt lat="36.997902989387512" lon="-3.055722964927554">
        <ele>952.32000000000005</ele>
        <time>2025-05-12T10:11:17Z</time>
      </trkpt>
      <trkpt lat="36.997951017692685" lon="-3.05564702488482">
        <ele>953.27999999999997</ele>
        <time>2025-05-12T10:11:18Z</time>
      </trkpt>
      <trkpt lat="36.997977001592517" lon="-3.055552979931235">
        <ele>954.25</ele>
        <time>2025-05-12T10:11:19Z</time>
      </trkpt>
      <trkpt lat="36.99794003739953" lon="-3.055448038503528">
        <ele>955.21000000000004</ele>
        <time>2025-05-12T10:11:20Z</time>
      </trkpt>
      <trkpt lat="36.997854961082339" lon="-3.055378971621394">
        <ele>956.16999999999996</ele>
        <time>2025-05-12T10:11:21Z</time>
      </trkpt>
      <trkpt lat="36.997749013826251" lon="-3.055354999378324">
        <ele>956.64999999999998</ele>
        <time>2025-05-12T10:11:22Z</time>
      </trkpt>
      <trkpt lat="36.997636025771499" lon="-3.055328009650111">
        <ele>957.13</ele>
        <time>2025-05-12T10:11:23Z</time>
      </trkpt>
      <trkpt lat="36.997251966968179" lon="-3.055281993001699">
        <ele>958.57000000000005</ele>
        <time>2025-05-12T10:11:26Z</time>
      </trkpt>
      <trkpt lat="36.997061027213931" lon="-3.055272018536925">
        <ele>959.52999999999997</ele>
        <time>2025-05-12T10:11:28Z</time>
      </trkpt>
      <trkpt lat="36.996971005573869" lon="-3.055200017988682">
        <ele>960.49000000000001</ele>
        <time>2025-05-12T10:11:29Z</time>
      </trkpt>
      <trkpt lat="36.996942004188895" lon="-3.055116031318903">
        <ele>961.46000000000004</ele>
        <time>2025-05-12T10:11:30Z</time>
      </trkpt>
      <trkpt lat="36.996944015845656" lon="-3.055021986365318">
        <ele>962.41999999999996</ele>
        <time>2025-05-12T10:11:31Z</time>
      </trkpt>
      <trkpt lat="36.996983997523785" lon="-3.05489600636065">
        <ele>963.38</ele>
        <time>2025-05-12T10:11:32Z</time>
      </trkpt>
      <trkpt lat="36.997030014172196" lon="-3.054753011092544">
        <ele>964.34000000000003</ele>
        <time>2025-05-12T10:11:33Z</time>
      </trkpt>
      <trkpt lat="36.997105032205582" lon="-3.054521000012755">
        <ele>966.25999999999999</ele>
        <time>2025-05-12T10:11:35Z</time>
      </trkpt>
      <trkpt lat="36.99718901887536" lon="-3.054470960050821">
        <ele>967.22000000000003</ele>
        <time>2025-05-12T10:11:36Z</time>
      </trkpt>
      <trkpt lat="36.997279962524772" lon="-3.054452016949654">
        <ele>968.17999999999995</ele>
        <time>2025-05-12T10:11:37Z</time>
      </trkpt>
      <trkpt lat="36.997391022741795" lon="-3.054443970322609">
        <ele>969.14999999999998</ele>
        <time>2025-05-12T10:11:38Z</time>
      </trkpt>
      <trkpt lat="36.997499987483025" lon="-3.054436007514596">
        <ele>970.11000000000001</ele>
        <time>2025-05-12T10:11:39Z</time>
      </trkpt>
      <trkpt lat="36.997578023001552" lon="-3.054491998627782">
        <ele>971.07000000000005</ele>
        <time>2025-05-12T10:11:40Z</time>
      </trkpt>
      <trkpt lat="36.997679024934769" lon="-3.054579002782702">
        <ele>972.02999999999997</ele>
        <time>2025-05-12T10:11:41Z</time>
      </trkpt>
      <trkpt lat="36.997786983847618" lon="-3.054672963917255">
        <ele>972.50999999999999</ele>
        <time>2025-05-12T10:11:42Z</time>
      </trkpt>
      <trkpt lat="36.998123014345765" lon="-3.05496197193861">
        <ele>974.90999999999997</ele>
        <time>2025-05-12T10:11:45Z</time>
      </trkpt>
      <trkpt lat="36.998224016278982" lon="-3.055049981921911">
        <ele>975.38999999999999</ele>
        <time>2025-05-12T10:11:46Z</time>
      </trkpt>
      <trkpt lat="36.99832602404058" lon="-3.055137991905212">
        <ele>976.36000000000001</ele>
        <time>2025-05-12T10:11:47Z</time>
      </trkpt>
      <trkpt lat="36.998425014317036" lon="-3.055223990231752">
        <ele>976.84000000000003</ele>
        <time>2025-05-12T10:11:48Z</time>
      </trkpt>
      <trkpt lat="36.99852199293673" lon="-3.055306971073151">
        <ele>977.79999999999995</ele>
        <time>2025-05-12T10:11:49Z</time>
      </trkpt>
      <trkpt lat="36.998610002920032" lon="-3.055380983278155">
        <ele>978.75999999999999</ele>
        <time>2025-05-12T10:11:50Z</time>
      </trkpt>
      <trkpt lat="36.99871402233839" lon="-3.055422976613045">
        <ele>979.72000000000003</ele>
        <time>2025-05-12T10:11:51Z</time>
      </trkpt>
      <trkpt lat="36.998805971816182" lon="-3.055459018796682">
        <ele>980.67999999999995</ele>
        <time>2025-05-12T10:11:52Z</time>
      </trkpt>
      <trkpt lat="36.99888501316309" lon="-3.055433034896851">
        <ele>981.15999999999997</ele>
        <time>2025-05-12T10:11:53Z</time>
      </trkpt>
      <trkpt lat="36.998961959034204" lon="-3.055394981056452">
        <ele>982.12</ele>
        <time>2025-05-12T10:11:54Z</time>
      </trkpt>
      <trkpt lat="36.999000012874603" lon="-3.055323986336589">
        <ele>983.09000000000003</ele>
        <time>2025-05-12T10:11:55Z</time>
      </trkpt>
      <trkpt lat="36.99901501648128" lon="-3.055207980796695">
        <ele>983.57000000000005</ele>
        <time>2025-05-12T10:11:56Z</time>
      </trkpt>
      <trkpt lat="36.999034965410829" lon="-3.055058028548956">
        <ele>984.52999999999997</ele>
        <time>2025-05-12T10:11:57Z</time>
      </trkpt>
      <trkpt lat="36.999004958197474" lon="-3.05491796694696">
        <ele>985.49000000000001</ele>
        <time>2025-05-12T10:11:58Z</time>
      </trkpt>
      <trkpt lat="36.998805971816182" lon="-3.054084973409772">
        <ele>987.88999999999999</ele>
        <time>2025-05-12T10:12:03Z</time>
      </trkpt>
      <trkpt lat="36.998739000409842" lon="-3.053969973698258">
        <ele>988.37</ele>
        <time>2025-05-12T10:12:04Z</time>
      </trkpt>
      <trkpt lat="36.998648978769779" lon="-3.053892021998763">
        <ele>988.37</ele>
        <time>2025-05-12T10:12:05Z</time>
      </trkpt>
      <trkpt lat="36.998462984338403" lon="-3.053729999810457">
        <ele>989.33000000000004</ele>
        <time>2025-05-12T10:12:07Z</time>
      </trkpt>
      <trkpt lat="36.998411016538739" lon="-3.053621035069227">
        <ele>990.29999999999995</ele>
        <time>2025-05-12T10:12:08Z</time>
      </trkpt>
      <trkpt lat="36.99836902320385" lon="-3.053465969860554">
        <ele>990.77999999999997</ele>
        <time>2025-05-12T10:12:09Z</time>
      </trkpt>
      <trkpt lat="36.99819803237915" lon="-3.05270497687161">
        <ele>994.13999999999999</ele>
        <time>2025-05-12T10:12:13Z</time>
      </trkpt>
      <trkpt lat="36.99819803237915" lon="-3.052500039339066">
        <ele>995.10000000000002</ele>
        <time>2025-05-12T10:12:14Z</time>
      </trkpt>
      <trkpt lat="36.998238014057279" lon="-3.05133000947535">
        <ele>1001.35</ele>
        <time>2025-05-12T10:12:21Z</time>
      </trkpt>
      <trkpt lat="36.998273972421885" lon="-3.051218027248979">
        <ele>1002.3099999999999</ele>
        <time>2025-05-12T10:12:22Z</time>
      </trkpt>
      <trkpt lat="36.99832702986896" lon="-3.051151977851987">
        <ele>1002.79</ele>
        <time>2025-05-12T10:12:23Z</time>
      </trkpt>
      <trkpt lat="36.99843599461019" lon="-3.051128005608916">
        <ele>1003.75</ele>
        <time>2025-05-12T10:12:24Z</time>
      </trkpt>
      <trkpt lat="36.998545965179801" lon="-3.051108978688717">
        <ele>1004.72</ele>
        <time>2025-05-12T10:12:25Z</time>
      </trkpt>
      <trkpt lat="36.998674962669611" lon="-3.051108978688717">
        <ele>1005.2</ele>
        <time>2025-05-12T10:12:26Z</time>
      </trkpt>
      <trkpt lat="36.998803038150072" lon="-3.051108978688717">
        <ele>1006.16</ele>
        <time>2025-05-12T10:12:27Z</time>
      </trkpt>
      <trkpt lat="36.998931029811502" lon="-3.051053993403912">
        <ele>1006.64</ele>
        <time>2025-05-12T10:12:28Z</time>
      </trkpt>
      <trkpt lat="36.999034965410829" lon="-3.051002025604248">
        <ele>1007.6</ele>
        <time>2025-05-12T10:12:29Z</time>
      </trkpt>
      <trkpt lat="36.999131022021174" lon="-3.050867998972535">
        <ele>1008.08</ele>
        <time>2025-05-12T10:12:30Z</time>
      </trkpt>
      <trkpt lat="36.999191958457232" lon="-3.050732966512442">
        <ele>1009.04</ele>
        <time>2025-05-12T10:12:31Z</time>
      </trkpt>
      <trkpt lat="36.99925297871232" lon="-3.050586031749845">
        <ele>1010</ele>
        <time>2025-05-12T10:12:32Z</time>
      </trkpt>
      <trkpt lat="36.999311987310648" lon="-3.050443036481738">
        <ele>1010.48</ele>
        <time>2025-05-12T10:12:33Z</time>
      </trkpt>
      <trkpt lat="36.999364960938692" lon="-3.050313033163548">
        <ele>1010.96</ele>
        <time>2025-05-12T10:12:34Z</time>
      </trkpt>
      <trkpt lat="36.99942204169929" lon="-3.050212031230331">
        <ele>1011.4400000000001</ele>
        <time>2025-05-12T10:12:35Z</time>
      </trkpt>
      <trkpt lat="36.999508962035179" lon="-3.050143970176578">
        <ele>1011.9299999999999</ele>
        <time>2025-05-12T10:12:36Z</time>
      </trkpt>
      <trkpt lat="36.999622033908963" lon="-3.050136007368565">
        <ele>1012.41</ele>
        <time>2025-05-12T10:12:37Z</time>
      </trkpt>
      <trkpt lat="36.999752959236503" lon="-3.050126032903791">
        <ele>1013.37</ele>
        <time>2025-05-12T10:12:38Z</time>
      </trkpt>
      <trkpt lat="36.99989402666688" lon="-3.050111029297113">
        <ele>1013.37</ele>
        <time>2025-05-12T10:12:39Z</time>
      </trkpt>
      <trkpt lat="37.000035010278225" lon="-3.050092002376914">
        <ele>1013.85</ele>
        <time>2025-05-12T10:12:40Z</time>
      </trkpt>
      <trkpt lat="37.000151015818119" lon="-3.050064006820321">
        <ele>1014.8099999999999</ele>
        <time>2025-05-12T10:12:41Z</time>
      </trkpt>
      <trkpt lat="37.000280013307929" lon="-3.049971973523498">
        <ele>1015.29</ele>
        <time>2025-05-12T10:12:42Z</time>
      </trkpt>
      <trkpt lat="37.000343967229128" lon="-3.049866026267409">
        <ele>1015.77</ele>
        <time>2025-05-12T10:12:43Z</time>
      </trkpt>
      <trkpt lat="37.000419991090894" lon="-3.049739040434361">
        <ele>1016.73</ele>
        <time>2025-05-12T10:12:44Z</time>
      </trkpt>
      <trkpt lat="37.000498026609421" lon="-3.049636026844382">
        <ele>1017.21</ele>
        <time>2025-05-12T10:12:45Z</time>
      </trkpt>
      <trkpt lat="37.000584024935961" lon="-3.049586992710829">
        <ele>1018.17</ele>
        <time>2025-05-12T10:12:46Z</time>
      </trkpt>
      <trkpt lat="37.000667005777359" lon="-3.049592021852732">
        <ele>1018.65</ele>
        <time>2025-05-12T10:12:47Z</time>
      </trkpt>
      <trkpt lat="37.000747974961996" lon="-3.049644995480776">
        <ele>1019.13</ele>
        <time>2025-05-12T10:12:48Z</time>
      </trkpt>
      <trkpt lat="37.000844031572342" lon="-3.049707021564245">
        <ele>1020.1</ele>
        <time>2025-05-12T10:12:49Z</time>
      </trkpt>
      <trkpt lat="37.000923994928598" lon="-3.049757983535528">
        <ele>1020.58</ele>
        <time>2025-05-12T10:12:50Z</time>
      </trkpt>
      <trkpt lat="37.00107797048986" lon="-3.049777010455728">
        <ele>1021.54</ele>
        <time>2025-05-12T10:12:51Z</time>
      </trkpt>
      <trkpt lat="37.00120696797967" lon="-3.049753960222006">
        <ele>1022.02</ele>
        <time>2025-05-12T10:12:52Z</time>
      </trkpt>
      <trkpt lat="37.001624973490834" lon="-3.049644995480776">
        <ele>1023.9400000000001</ele>
        <time>2025-05-12T10:12:55Z</time>
      </trkpt>
      <trkpt lat="37.001726981252432" lon="-3.049576012417674">
        <ele>1024.9000000000001</ele>
        <time>2025-05-12T10:12:56Z</time>
      </trkpt>
      <trkpt lat="37.001806022599339" lon="-3.049481967464089">
        <ele>1025.3800000000001</ele>
        <time>2025-05-12T10:12:57Z</time>
      </trkpt>
      <trkpt lat="37.001822032034397" lon="-3.049347018823028">
        <ele>1025.8599999999999</ele>
        <time>2025-05-12T10:12:58Z</time>
      </trkpt>
      <trkpt lat="37.001840975135565" lon="-3.049196982756257">
        <ele>1026.8299999999999</ele>
        <time>2025-05-12T10:12:59Z</time>
      </trkpt>
      <trkpt lat="37.001861007884145" lon="-3.049034960567951">
        <ele>1027.3099999999999</ele>
        <time>2025-05-12T10:13:00Z</time>
      </trkpt>
      <trkpt lat="37.001881040632725" lon="-3.04888098500669">
        <ele>1028.27</ele>
        <time>2025-05-12T10:13:01Z</time>
      </trkpt>
      <trkpt lat="37.001922028139234" lon="-3.04877202026546">
        <ele>1028.75</ele>
        <time>2025-05-12T10:13:02Z</time>
      </trkpt>
      <trkpt lat="37.001994028687477" lon="-3.048681998625398">
        <ele>1029.23</ele>
        <time>2025-05-12T10:13:03Z</time>
      </trkpt>
      <trkpt lat="37.002072986215353" lon="-3.048587031662464">
        <ele>1029.23</ele>
        <time>2025-05-12T10:13:04Z</time>
      </trkpt>
      <trkpt lat="37.002165019512177" lon="-3.048494998365641">
        <ele>1029.71</ele>
        <time>2025-05-12T10:13:05Z</time>
      </trkpt>
      <trkpt lat="37.002256968989968" lon="-3.048401959240437">
        <ele>1030.1900000000001</ele>
        <time>2025-05-12T10:13:06Z</time>
      </trkpt>
      <trkpt lat="37.002324024215341" lon="-3.048297017812729">
        <ele>1030.1900000000001</ele>
        <time>2025-05-12T10:13:07Z</time>
      </trkpt>
      <trkpt lat="37.002341039478779" lon="-3.048157962039113">
        <ele>1030.6700000000001</ele>
        <time>2025-05-12T10:13:08Z</time>
      </trkpt>
      <trkpt lat="37.002357970923185" lon="-3.048015972599387">
        <ele>1031.1500000000001</ele>
        <time>2025-05-12T10:13:09Z</time>
      </trkpt>
      <trkpt lat="37.002374986186624" lon="-3.047877000644803">
        <ele>1031.6300000000001</ele>
        <time>2025-05-12T10:13:10Z</time>
      </trkpt>
      <trkpt lat="37.002389989793301" lon="-3.047751020640135">
        <ele>1031.6300000000001</ele>
        <time>2025-05-12T10:13:11Z</time>
      </trkpt>
      <trkpt lat="37.002403987571597" lon="-3.04763300344348">
        <ele>1032.5899999999999</ele>
        <time>2025-05-12T10:13:12Z</time>
      </trkpt>
      <trkpt lat="37.002455033361912" lon="-3.047556979581714">
        <ele>1033.0699999999999</ele>
        <time>2025-05-12T10:13:13Z</time>
      </trkpt>
      <trkpt lat="37.002511024475098" lon="-3.047472992911935">
        <ele>1033.55</ele>
        <time>2025-05-12T10:13:14Z</time>
      </trkpt>
      <trkpt lat="37.002576990053058" lon="-3.047400992363691">
        <ele>1034.04</ele>
        <time>2025-05-12T10:13:15Z</time>
      </trkpt>
      <trkpt lat="37.00264697894454" lon="-3.047338966280222">
        <ele>1034.52</ele>
        <time>2025-05-12T10:13:16Z</time>
      </trkpt>
      <trkpt lat="37.002770025283098" lon="-3.047241987660527">
        <ele>1035.96</ele>
        <time>2025-05-12T10:13:18Z</time>
      </trkpt>
      <trkpt lat="37.002838002517819" lon="-3.047201000154018">
        <ele>1035.96</ele>
        <time>2025-05-12T10:13:19Z</time>
      </trkpt>
      <trkpt lat="37.002902962267399" lon="-3.047162024304271">
        <ele>1036.4400000000001</ele>
        <time>2025-05-12T10:13:20Z</time>
      </trkpt>
      <trkpt lat="37.002969011664391" lon="-3.047148026525974">
        <ele>1036.9200000000001</ele>
        <time>2025-05-12T10:13:21Z</time>
      </trkpt>
      <trkpt lat="37.003046041354537" lon="-3.047170992940664">
        <ele>1036.9200000000001</ele>
        <time>2025-05-12T10:13:22Z</time>
      </trkpt>
      <trkpt lat="37.003132039681077" lon="-3.047196976840496">
        <ele>1037.4000000000001</ele>
        <time>2025-05-12T10:13:23Z</time>
      </trkpt>
      <trkpt lat="37.003321973606944" lon="-3.047240981832147">
        <ele>1037.4000000000001</ele>
        <time>2025-05-12T10:13:25Z</time>
      </trkpt>
      <trkpt lat="37.0034209638834" lon="-3.047228995710611">
        <ele>1037.4000000000001</ele>
        <time>2025-05-12T10:13:26Z</time>
      </trkpt>
      <trkpt lat="37.003514003008604" lon="-3.047206029295921">
        <ele>1037.4000000000001</ele>
        <time>2025-05-12T10:13:27Z</time>
      </trkpt>
      <trkpt lat="37.003760011866689" lon="-3.047144003212452">
        <ele>1037.8800000000001</ele>
        <time>2025-05-12T10:13:30Z</time>
      </trkpt>
      <trkpt lat="37.003825977444649" lon="-3.047123970463872">
        <ele>1037.8800000000001</ele>
        <time>2025-05-12T10:13:31Z</time>
      </trkpt>
      <trkpt lat="37.00387098826468" lon="-3.047070996835828">
        <ele>1037.8800000000001</ele>
        <time>2025-05-12T10:13:32Z</time>
      </trkpt>
      <trkpt lat="37.003912981599569" lon="-3.047005031257868">
        <ele>1038.3599999999999</ele>
        <time>2025-05-12T10:13:33Z</time>
      </trkpt>
      <trkpt lat="37.003943994641304" lon="-3.046923978254199">
        <ele>1038.3599999999999</ele>
        <time>2025-05-12T10:13:34Z</time>
      </trkpt>
      <trkpt lat="37.003924967721105" lon="-3.04683999158442">
        <ele>1038.3599999999999</ele>
        <time>2025-05-12T10:13:35Z</time>
      </trkpt>
      <trkpt lat="37.003899989649653" lon="-3.046745024621487">
        <ele>1038.8399999999999</ele>
        <time>2025-05-12T10:13:36Z</time>
      </trkpt>
      <trkpt lat="37.003842992708087" lon="-3.046665983274579">
        <ele>1039.3199999999999</ele>
        <time>2025-05-12T10:13:37Z</time>
      </trkpt>
      <trkpt lat="37.003783984109759" lon="-3.046583002433181">
        <ele>1039.3199999999999</ele>
        <time>2025-05-12T10:13:38Z</time>
      </trkpt>
      <trkpt lat="37.00372003018856" lon="-3.04649499244988">
        <ele>1039.3199999999999</ele>
        <time>2025-05-12T10:13:39Z</time>
      </trkpt>
      <trkpt lat="37.003652974963188" lon="-3.046402037143707">
        <ele>1039.3199999999999</ele>
        <time>2025-05-12T10:13:40Z</time>
      </trkpt>
      <trkpt lat="37.003581980243325" lon="-3.04630296304822">
        <ele>1039.3199999999999</ele>
        <time>2025-05-12T10:13:41Z</time>
      </trkpt>
      <trkpt lat="37.003511991351843" lon="-3.046201039105654">
        <ele>1039.8</ele>
        <time>2025-05-12T10:13:42Z</time>
      </trkpt>
      <trkpt lat="37.003348041325808" lon="-3.0458739772439">
        <ele>1040.76</ele>
        <time>2025-05-12T10:13:45Z</time>
      </trkpt>
      <trkpt lat="37.003333037719131" lon="-3.04578797891736">
        <ele>1040.76</ele>
        <time>2025-05-12T10:13:46Z</time>
      </trkpt>
      <trkpt lat="37.003267994150519" lon="-3.045425964519382">
        <ele>1041.73</ele>
        <time>2025-05-12T10:13:49Z</time>
      </trkpt>
      <trkpt lat="37.003247039392591" lon="-3.045307025313377">
        <ele>1041.73</ele>
        <time>2025-05-12T10:13:50Z</time>
      </trkpt>
      <trkpt lat="37.003208985552192" lon="-3.045200994238257">
        <ele>1041.73</ele>
        <time>2025-05-12T10:13:51Z</time>
      </trkpt>
      <trkpt lat="37.003123993054032" lon="-3.044987004250288">
        <ele>1042.6900000000001</ele>
        <time>2025-05-12T10:13:53Z</time>
      </trkpt>
      <trkpt lat="37.003090968355536" lon="-3.044887008145452">
        <ele>1043.1700000000001</ele>
        <time>2025-05-12T10:13:54Z</time>
      </trkpt>
      <trkpt lat="37.003084011375904" lon="-3.044777037575841">
        <ele>1043.6500000000001</ele>
        <time>2025-05-12T10:13:55Z</time>
      </trkpt>
      <trkpt lat="37.00307697057724" lon="-3.044664971530438">
        <ele>1043.6500000000001</ele>
        <time>2025-05-12T10:13:56Z</time>
      </trkpt>
      <trkpt lat="37.003069007769227" lon="-3.044543014839292">
        <ele>1044.1300000000001</ele>
        <time>2025-05-12T10:13:57Z</time>
      </trkpt>
      <trkpt lat="37.003079988062382" lon="-3.0444320384413">
        <ele>1044.1300000000001</ele>
        <time>2025-05-12T10:13:58Z</time>
      </trkpt>
      <trkpt lat="37.003094991669059" lon="-3.043713038787246">
        <ele>1046.53</ele>
        <time>2025-05-12T10:14:05Z</time>
      </trkpt>
      <trkpt lat="37.00307697057724" lon="-3.043644977733493">
        <ele>1047.01</ele>
        <time>2025-05-12T10:14:06Z</time>
      </trkpt>
      <trkpt lat="37.002865998074412" lon="-3.043046006932855">
        <ele>1052.3</ele>
        <time>2025-05-12T10:14:16Z</time>
      </trkpt>
      <trkpt lat="37.002858035266399" lon="-3.042953973636031">
        <ele>1054.7</ele>
        <time>2025-05-12T10:14:23Z</time>
      </trkpt>
      <trkpt lat="37.002858035266399" lon="-3.042953973636031">
        <ele>1054.7</ele>
        <time>2025-05-12T10:14:52Z</time>
      </trkpt>
      <trkpt lat="37.002855017781258" lon="-3.042908040806651">
        <ele>1057.1099999999999</ele>
        <time>2025-05-12T10:15:27Z</time>
      </trkpt>
      <trkpt lat="37.002858035266399" lon="-3.042866969481111">
        <ele>1058.0699999999999</ele>
        <time>2025-05-12T10:15:28Z</time>
      </trkpt>
      <trkpt lat="37.00286197476089" lon="-3.04279999807477">
        <ele>1058.0699999999999</ele>
        <time>2025-05-12T10:15:29Z</time>
      </trkpt>
      <trkpt lat="37.002868009731174" lon="-3.04271399974823">
        <ele>1058.55</ele>
        <time>2025-05-12T10:15:30Z</time>
      </trkpt>
      <trkpt lat="37.002873960882425" lon="-3.042620038613677">
        <ele>1058.55</ele>
        <time>2025-05-12T10:15:31Z</time>
      </trkpt>
      <trkpt lat="37.002921989187598" lon="-3.042170014232397">
        <ele>1059.03</ele>
        <time>2025-05-12T10:15:35Z</time>
      </trkpt>
      <trkpt lat="37.003063978627324" lon="-3.041619993746281">
        <ele>1062.8699999999999</ele>
        <time>2025-05-12T10:15:39Z</time>
      </trkpt>
      <trkpt lat="37.003118963912129" lon="-3.041497031226754">
        <ele>1063.8399999999999</ele>
        <time>2025-05-12T10:15:40Z</time>
      </trkpt>
      <trkpt lat="37.003185013309121" lon="-3.041397035121918">
        <ele>1064.8</ele>
        <time>2025-05-12T10:15:41Z</time>
      </trkpt>
      <trkpt lat="37.003261959180236" lon="-3.041282035410404">
        <ele>1065.76</ele>
        <time>2025-05-12T10:15:42Z</time>
      </trkpt>
      <trkpt lat="37.003345023840666" lon="-3.041239958256483">
        <ele>1066.24</ele>
        <time>2025-05-12T10:15:43Z</time>
      </trkpt>
      <trkpt lat="37.003439990803599" lon="-3.041216991841793">
        <ele>1067.2</ele>
        <time>2025-05-12T10:15:44Z</time>
      </trkpt>
      <trkpt lat="37.003546021878719" lon="-3.041220009326935">
        <ele>1068.1600000000001</ele>
        <time>2025-05-12T10:15:45Z</time>
      </trkpt>
      <trkpt lat="37.003661021590233" lon="-3.041272982954979">
        <ele>1069.5999999999999</ele>
        <time>2025-05-12T10:15:46Z</time>
      </trkpt>
      <trkpt lat="37.003785995766521" lon="-3.041331991553307">
        <ele>1071.05</ele>
        <time>2025-05-12T10:15:47Z</time>
      </trkpt>
      <trkpt lat="37.00496600009501" lon="-3.041859967634082">
        <ele>1081.6199999999999</ele>
        <time>2025-05-12T10:15:55Z</time>
      </trkpt>
      <trkpt lat="37.005232041701674" lon="-3.041959041729569">
        <ele>1084.02</ele>
        <time>2025-05-12T10:15:57Z</time>
      </trkpt>
      <trkpt lat="37.005344023928046" lon="-3.041981002315879">
        <ele>1085.47</ele>
        <time>2025-05-12T10:15:58Z</time>
      </trkpt>
      <trkpt lat="37.005433961749077" lon="-3.04194001480937">
        <ele>1086.9100000000001</ele>
        <time>2025-05-12T10:15:59Z</time>
      </trkpt>
      <trkpt lat="37.005485007539392" lon="-3.04185401648283">
        <ele>1088.3499999999999</ele>
        <time>2025-05-12T10:16:00Z</time>
      </trkpt>
      <trkpt lat="37.005506968125701" lon="-3.041745973750949">
        <ele>1089.79</ele>
        <time>2025-05-12T10:16:01Z</time>
      </trkpt>
      <trkpt lat="37.005493976175785" lon="-3.041613958775997">
        <ele>1091.23</ele>
        <time>2025-05-12T10:16:02Z</time>
      </trkpt>
      <trkpt lat="37.00545902363956" lon="-3.04148898459971">
        <ele>1093.1600000000001</ele>
        <time>2025-05-12T10:16:03Z</time>
      </trkpt>
      <trkpt lat="37.005424993112683" lon="-3.041367027908564">
        <ele>1094.5999999999999</ele>
        <time>2025-05-12T10:16:04Z</time>
      </trkpt>
      <trkpt lat="37.005278980359435" lon="-3.040852965787053">
        <ele>1099.8900000000001</ele>
        <time>2025-05-12T10:16:10Z</time>
      </trkpt>
      <trkpt lat="37.005304964259267" lon="-3.040654985234141">
        <ele>1104.6900000000001</ele>
        <time>2025-05-12T10:16:18Z</time>
      </trkpt>
      <trkpt lat="37.005203040316701" lon="-3.040767973288894">
        <ele>1068.1600000000001</ele>
        <time>2025-05-12T10:30:24Z</time>
      </trkpt>
      <trkpt lat="37.005228018388152" lon="-3.040648028254509">
        <ele>1094.1199999999999</ele>
        <time>2025-05-12T10:30:39Z</time>
      </trkpt>
      <trkpt lat="37.005307981744409" lon="-3.040635036304593">
        <ele>1094.5999999999999</ele>
        <time>2025-05-12T10:30:41Z</time>
      </trkpt>
      <trkpt lat="37.005320973694324" lon="-3.040536968037486">
        <ele>1094.5999999999999</ele>
        <time>2025-05-12T10:30:43Z</time>
      </trkpt>
      <trkpt lat="37.005332037806511" lon="-3.040451975539327">
        <ele>1095.0799999999999</ele>
        <time>2025-05-12T10:30:44Z</time>
      </trkpt>
      <trkpt lat="37.005344023928046" lon="-3.040358014404774">
        <ele>1095.0799999999999</ele>
        <time>2025-05-12T10:30:45Z</time>
      </trkpt>
      <trkpt lat="37.005380988121033" lon="-3.039842024445534">
        <ele>1096.04</ele>
        <time>2025-05-12T10:30:50Z</time>
      </trkpt>
      <trkpt lat="37.005367996171117" lon="-3.03938303142786">
        <ele>1097</ele>
        <time>2025-05-12T10:30:54Z</time>
      </trkpt>
      <trkpt lat="37.005364978685975" lon="-3.039285968989134">
        <ele>1097</ele>
        <time>2025-05-12T10:30:55Z</time>
      </trkpt>
      <trkpt lat="37.005404960364103" lon="-3.039166023954749">
        <ele>1097.48</ele>
        <time>2025-05-12T10:30:56Z</time>
      </trkpt>
      <trkpt lat="37.005442008376122" lon="-3.039057981222868">
        <ele>1097.96</ele>
        <time>2025-05-12T10:30:57Z</time>
      </trkpt>
      <trkpt lat="37.005476960912347" lon="-3.038950022310019">
        <ele>1098.4400000000001</ele>
        <time>2025-05-12T10:30:58Z</time>
      </trkpt>
      <trkpt lat="37.005562037229538" lon="-3.038742989301682">
        <ele>1099.4000000000001</ele>
        <time>2025-05-12T10:31:00Z</time>
      </trkpt>
      <trkpt lat="37.005633031949401" lon="-3.038665959611535">
        <ele>1099.8900000000001</ele>
        <time>2025-05-12T10:31:01Z</time>
      </trkpt>
      <trkpt lat="37.00593201443553" lon="-3.038338981568813">
        <ele>1102.29</ele>
        <time>2025-05-12T10:31:05Z</time>
      </trkpt>
      <trkpt lat="37.006166037172079" lon="-3.038080986589193">
        <ele>1104.21</ele>
        <time>2025-05-12T10:31:08Z</time>
      </trkpt>
      <trkpt lat="37.006283970549703" lon="-3.037859033793211">
        <ele>1104.6900000000001</ele>
        <time>2025-05-12T10:31:10Z</time>
      </trkpt>
      <trkpt lat="37.006330993026495" lon="-3.037719978019595">
        <ele>1105.1700000000001</ele>
        <time>2025-05-12T10:31:11Z</time>
      </trkpt>
      <trkpt lat="37.006330993026495" lon="-3.03759902715683">
        <ele>1105.6500000000001</ele>
        <time>2025-05-12T10:31:12Z</time>
      </trkpt>
      <trkpt lat="37.006301991641521" lon="-3.037452008575201">
        <ele>1106.6099999999999</ele>
        <time>2025-05-12T10:31:13Z</time>
      </trkpt>
      <trkpt lat="37.006259998306632" lon="-3.037316976115108">
        <ele>1107.0999999999999</ele>
        <time>2025-05-12T10:31:14Z</time>
      </trkpt>
      <trkpt lat="37.006218004971743" lon="-3.037178004160523">
        <ele>1107.5799999999999</ele>
        <time>2025-05-12T10:31:15Z</time>
      </trkpt>
      <trkpt lat="37.006177017465234" lon="-3.037034003064036">
        <ele>1108.0599999999999</ele>
        <time>2025-05-12T10:31:16Z</time>
      </trkpt>
      <trkpt lat="37.006051959469914" lon="-3.036281978711486">
        <ele>1109.5</ele>
        <time>2025-05-12T10:31:21Z</time>
      </trkpt>
      <trkpt lat="37.006034022197127" lon="-3.036133032292128">
        <ele>1109.02</ele>
        <time>2025-05-12T10:31:22Z</time>
      </trkpt>
      <trkpt lat="37.006060006096959" lon="-3.035976039245725">
        <ele>1108.54</ele>
        <time>2025-05-12T10:31:23Z</time>
      </trkpt>
      <trkpt lat="37.006271984428167" lon="-3.034682041034102">
        <ele>1103.73</ele>
        <time>2025-05-12T10:31:30Z</time>
      </trkpt>
      <trkpt lat="37.006287993863225" lon="-3.034586990252137">
        <ele>1102.77</ele>
        <time>2025-05-12T10:31:31Z</time>
      </trkpt>
      <trkpt lat="37.006225967779756" lon="-3.034447012469173">
        <ele>1101.3299999999999</ele>
        <time>2025-05-12T10:31:32Z</time>
      </trkpt>
      <trkpt lat="37.006182968616486" lon="-3.034351039677858">
        <ele>1099.8900000000001</ele>
        <time>2025-05-12T10:31:33Z</time>
      </trkpt>
      <trkpt lat="37.006139969453216" lon="-3.034252971410751">
        <ele>1097.96</ele>
        <time>2025-05-12T10:31:34Z</time>
      </trkpt>
      <trkpt lat="37.006107028573751" lon="-3.034134032204747">
        <ele>1096.52</ele>
        <time>2025-05-12T10:31:35Z</time>
      </trkpt>
      <trkpt lat="37.006113985553384" lon="-3.034001011401415">
        <ele>1095.5599999999999</ele>
        <time>2025-05-12T10:31:36Z</time>
      </trkpt>
      <trkpt lat="37.006151033565402" lon="-3.03390403278172">
        <ele>1094.1199999999999</ele>
        <time>2025-05-12T10:31:37Z</time>
      </trkpt>
      <trkpt lat="37.00619000941515" lon="-3.033800013363361">
        <ele>1093.1600000000001</ele>
        <time>2025-05-12T10:31:38Z</time>
      </trkpt>
      <trkpt lat="37.006232002750039" lon="-3.033689958974719">
        <ele>1092.6800000000001</ele>
        <time>2025-05-12T10:31:39Z</time>
      </trkpt>
      <trkpt lat="37.006279025226831" lon="-3.033565990626812">
        <ele>1091.71</ele>
        <time>2025-05-12T10:31:40Z</time>
      </trkpt>
      <trkpt lat="37.006431994959712" lon="-3.033163994550705">
        <ele>1088.8299999999999</ele>
        <time>2025-05-12T10:31:43Z</time>
      </trkpt>
      <trkpt lat="37.006451021879911" lon="-3.033038014546037">
        <ele>1087.8699999999999</ele>
        <time>2025-05-12T10:31:44Z</time>
      </trkpt>
      <trkpt lat="37.006459990516305" lon="-3.032956039533019">
        <ele>1087.3900000000001</ele>
        <time>2025-05-12T10:31:45Z</time>
      </trkpt>
      <trkpt lat="37.006391007453203" lon="-3.032818995416164">
        <ele>1086.9100000000001</ele>
        <time>2025-05-12T10:31:46Z</time>
      </trkpt>
      <trkpt lat="37.006330993026495" lon="-3.032698966562748">
        <ele>1085.95</ele>
        <time>2025-05-12T10:31:47Z</time>
      </trkpt>
      <trkpt lat="37.006236026063561" lon="-3.032603999599814">
        <ele>1085.47</ele>
        <time>2025-05-12T10:31:48Z</time>
      </trkpt>
      <trkpt lat="37.006137035787106" lon="-3.032505009323359">
        <ele>1084.5</ele>
        <time>2025-05-12T10:31:49Z</time>
      </trkpt>
      <trkpt lat="37.006031004711986" lon="-3.032441977411509">
        <ele>1083.54</ele>
        <time>2025-05-12T10:31:50Z</time>
      </trkpt>
      <trkpt lat="37.005901001393795" lon="-3.032397972419858">
        <ele>1082.5799999999999</ele>
        <time>2025-05-12T10:31:51Z</time>
      </trkpt>
      <trkpt lat="37.005625991150737" lon="-3.032306022942066">
        <ele>1079.22</ele>
        <time>2025-05-12T10:31:53Z</time>
      </trkpt>
      <trkpt lat="37.005514008924365" lon="-3.032268974930048">
        <ele>1077.78</ele>
        <time>2025-05-12T10:31:54Z</time>
      </trkpt>
      <trkpt lat="37.005415018647909" lon="-3.032165039330721">
        <ele>1076.3299999999999</ele>
        <time>2025-05-12T10:31:55Z</time>
      </trkpt>
      <trkpt lat="37.005372019484639" lon="-3.032039981335402">
        <ele>1075.3699999999999</ele>
        <time>2025-05-12T10:31:56Z</time>
      </trkpt>
      <trkpt lat="37.005334971472621" lon="-3.031898997724056">
        <ele>1073.9300000000001</ele>
        <time>2025-05-12T10:31:57Z</time>
      </trkpt>
      <trkpt lat="37.005294989794493" lon="-3.031743010506034">
        <ele>1072.97</ele>
        <time>2025-05-12T10:31:58Z</time>
      </trkpt>
      <trkpt lat="37.005254002287984" lon="-3.031582999974489">
        <ele>1071.53</ele>
        <time>2025-05-12T10:31:59Z</time>
      </trkpt>
      <trkpt lat="37.005215026438236" lon="-3.031432963907719">
        <ele>1070.0799999999999</ele>
        <time>2025-05-12T10:32:00Z</time>
      </trkpt>
      <trkpt lat="37.00515802949667" lon="-3.031298015266657">
        <ele>1069.1199999999999</ele>
        <time>2025-05-12T10:32:01Z</time>
      </trkpt>
      <trkpt lat="37.005104972049594" lon="-3.031175974756479">
        <ele>1067.6800000000001</ele>
        <time>2025-05-12T10:32:02Z</time>
      </trkpt>
      <trkpt lat="37.005105977877975" lon="-3.031017975881696">
        <ele>1066.72</ele>
        <time>2025-05-12T10:32:03Z</time>
      </trkpt>
      <trkpt lat="37.005132967606187" lon="-3.030862994492054">
        <ele>1065.76</ele>
        <time>2025-05-12T10:32:04Z</time>
      </trkpt>
      <trkpt lat="37.00516096316278" lon="-3.03070398978889">
        <ele>1065.28</ele>
        <time>2025-05-12T10:32:05Z</time>
      </trkpt>
      <trkpt lat="37.00522399507463" lon="-3.03055202588439">
        <ele>1064.8</ele>
        <time>2025-05-12T10:32:06Z</time>
      </trkpt>
      <trkpt lat="37.00531099922955" lon="-3.030412970110774">
        <ele>1064.3199999999999</ele>
        <time>2025-05-12T10:32:07Z</time>
      </trkpt>
      <trkpt lat="37.00541602447629" lon="-3.030291013419628">
        <ele>1063.8399999999999</ele>
        <time>2025-05-12T10:32:08Z</time>
      </trkpt>
      <trkpt lat="37.005832018330693" lon="-3.029810981824994">
        <ele>1060.47</ele>
        <time>2025-05-12T10:32:12Z</time>
      </trkpt>
      <trkpt lat="37.005893960595131" lon="-3.029676033183932">
        <ele>1059.51</ele>
        <time>2025-05-12T10:32:13Z</time>
      </trkpt>
      <trkpt lat="37.005930002778769" lon="-3.029525997117162">
        <ele>1058.55</ele>
        <time>2025-05-12T10:32:14Z</time>
      </trkpt>
      <trkpt lat="37.005945006385446" lon="-3.02939398214221">
        <ele>1057.5899999999999</ele>
        <time>2025-05-12T10:32:15Z</time>
      </trkpt>
      <trkpt lat="37.005866970866919" lon="-3.029252998530865">
        <ele>1057.1099999999999</ele>
        <time>2025-05-12T10:32:16Z</time>
      </trkpt>
      <trkpt lat="37.005796981975436" lon="-3.029149984940887">
        <ele>1056.1500000000001</ele>
        <time>2025-05-12T10:32:17Z</time>
      </trkpt>
      <trkpt lat="37.005687011405826" lon="-3.029102962464094">
        <ele>1056.1500000000001</ele>
        <time>2025-05-12T10:32:18Z</time>
      </trkpt>
      <trkpt lat="37.00556798838079" lon="-3.029052000492811">
        <ele>1055.6700000000001</ele>
        <time>2025-05-12T10:32:19Z</time>
      </trkpt>
      <trkpt lat="37.00533002614975" lon="-3.028949992731214">
        <ele>1054.7</ele>
        <time>2025-05-12T10:32:21Z</time>
      </trkpt>
      <trkpt lat="37.005226006731391" lon="-3.028904981911182">
        <ele>1053.74</ele>
        <time>2025-05-12T10:32:22Z</time>
      </trkpt>
      <trkpt lat="37.00518200173974" lon="-3.028800962492824">
        <ele>1053.26</ele>
        <time>2025-05-12T10:32:23Z</time>
      </trkpt>
      <trkpt lat="37.005143025889993" lon="-3.028684034943581">
        <ele>1052.78</ele>
        <time>2025-05-12T10:32:24Z</time>
      </trkpt>
      <trkpt lat="37.005104972049594" lon="-3.028543973341584">
        <ele>1052.3</ele>
        <time>2025-05-12T10:32:25Z</time>
      </trkpt>
      <trkpt lat="37.005062978714705" lon="-3.02821297198534">
        <ele>1051.3399999999999</ele>
        <time>2025-05-12T10:32:27Z</time>
      </trkpt>
      <trkpt lat="37.005018973723054" lon="-3.028044998645783">
        <ele>1051.3399999999999</ele>
        <time>2025-05-12T10:32:28Z</time>
      </trkpt>
      <trkpt lat="37.004935992881656" lon="-3.027903009206057">
        <ele>1050.8599999999999</ele>
        <time>2025-05-12T10:32:29Z</time>
      </trkpt>
      <trkpt lat="37.004820993170142" lon="-3.02765398286283">
        <ele>1049.9000000000001</ele>
        <time>2025-05-12T10:32:31Z</time>
      </trkpt>
      <trkpt lat="37.004792997613549" lon="-3.027521967887878">
        <ele>1049.4200000000001</ele>
        <time>2025-05-12T10:32:32Z</time>
      </trkpt>
      <trkpt lat="37.004825016483665" lon="-3.027404034510255">
        <ele>1048.45</ele>
        <time>2025-05-12T10:32:33Z</time>
      </trkpt>
      <trkpt lat="37.00485804118216" lon="-3.027279982343316">
        <ele>1047.49</ele>
        <time>2025-05-12T10:32:34Z</time>
      </trkpt>
      <trkpt lat="37.004895005375147" lon="-3.027143022045493">
        <ele>1046.53</ele>
        <time>2025-05-12T10:32:35Z</time>
      </trkpt>
      <trkpt lat="37.004932975396514" lon="-3.027003966271877">
        <ele>1046.05</ele>
        <time>2025-05-12T10:32:36Z</time>
      </trkpt>
      <trkpt lat="37.005003970116377" lon="-3.026893995702267">
        <ele>1045.5699999999999</ele>
        <time>2025-05-12T10:32:37Z</time>
      </trkpt>
      <trkpt lat="37.005086028948426" lon="-3.026775978505611">
        <ele>1045.0899999999999</ele>
        <time>2025-05-12T10:32:38Z</time>
      </trkpt>
      <trkpt lat="37.005170015618205" lon="-3.026734990999103">
        <ele>1044.6099999999999</ele>
        <time>2025-05-12T10:32:39Z</time>
      </trkpt>
      <trkpt lat="37.005301024764776" lon="-3.026669025421143">
        <ele>1044.1300000000001</ele>
        <time>2025-05-12T10:32:40Z</time>
      </trkpt>
      <trkpt lat="37.005401020869613" lon="-3.026686040684581">
        <ele>1043.6500000000001</ele>
        <time>2025-05-12T10:32:41Z</time>
      </trkpt>
      <trkpt lat="37.00552498921752" lon="-3.026721999049187">
        <ele>1043.1700000000001</ele>
        <time>2025-05-12T10:32:42Z</time>
      </trkpt>
      <trkpt lat="37.005643006414175" lon="-3.026761980727315">
        <ele>1042.21</ele>
        <time>2025-05-12T10:32:43Z</time>
      </trkpt>
      <trkpt lat="37.005731016397476" lon="-3.026757035404444">
        <ele>1041.73</ele>
        <time>2025-05-12T10:32:44Z</time>
      </trkpt>
      <trkpt lat="37.005836041644216" lon="-3.026713030412793">
        <ele>1040.76</ele>
        <time>2025-05-12T10:32:45Z</time>
      </trkpt>
      <trkpt lat="37.005891026929021" lon="-3.026649998500943">
        <ele>1040.28</ele>
        <time>2025-05-12T10:32:46Z</time>
      </trkpt>
      <trkpt lat="37.005988005548716" lon="-3.026540027931333">
        <ele>1039.8</ele>
        <time>2025-05-12T10:32:47Z</time>
      </trkpt>
      <trkpt lat="37.006034022197127" lon="-3.026453023776412">
        <ele>1038.8399999999999</ele>
        <time>2025-05-12T10:32:48Z</time>
      </trkpt>
      <trkpt lat="37.006377009674907" lon="-3.025722038000822">
        <ele>1035</ele>
        <time>2025-05-12T10:32:53Z</time>
      </trkpt>
      <trkpt lat="37.006459990516305" lon="-3.025532020255923">
        <ele>1034.52</ele>
        <time>2025-05-12T10:32:54Z</time>
      </trkpt>
      <trkpt lat="37.006466025486588" lon="-3.025406040251255">
        <ele>1033.55</ele>
        <time>2025-05-12T10:32:55Z</time>
      </trkpt>
      <trkpt lat="37.006481029093266" lon="-3.025080990046263">
        <ele>1031.6300000000001</ele>
        <time>2025-05-12T10:32:57Z</time>
      </trkpt>
      <trkpt lat="37.006506007164717" lon="-3.024957021698356">
        <ele>1031.1500000000001</ele>
        <time>2025-05-12T10:32:58Z</time>
      </trkpt>
      <trkpt lat="37.006550012156367" lon="-3.024833975359798">
        <ele>1030.1900000000001</ele>
        <time>2025-05-12T10:32:59Z</time>
      </trkpt>
      <trkpt lat="37.006623018532991" lon="-3.024743031710386">
        <ele>1029.71</ele>
        <time>2025-05-12T10:33:00Z</time>
      </trkpt>
      <trkpt lat="37.00672603212297" lon="-3.024647980928421">
        <ele>1028.75</ele>
        <time>2025-05-12T10:33:01Z</time>
      </trkpt>
      <trkpt lat="37.006845977157354" lon="-3.024630965664983">
        <ele>1028.27</ele>
        <time>2025-05-12T10:33:02Z</time>
      </trkpt>
      <trkpt lat="37.006939016282558" lon="-3.024652004241943">
        <ele>1027.3099999999999</ele>
        <time>2025-05-12T10:33:03Z</time>
      </trkpt>
      <trkpt lat="37.007029037922621" lon="-3.024672958999872">
        <ele>1026.3399999999999</ele>
        <time>2025-05-12T10:33:04Z</time>
      </trkpt>
      <trkpt lat="37.007117969915271" lon="-3.024693997576833">
        <ele>1025.3800000000001</ele>
        <time>2025-05-12T10:33:05Z</time>
      </trkpt>
      <trkpt lat="37.007211009040475" lon="-3.024715958163142">
        <ele>1024.4200000000001</ele>
        <time>2025-05-12T10:33:06Z</time>
      </trkpt>
      <trkpt lat="37.007278986275196" lon="-3.024702966213226">
        <ele>1023.46</ele>
        <time>2025-05-12T10:33:07Z</time>
      </trkpt>
      <trkpt lat="37.007379988208413" lon="-3.024684023112059">
        <ele>1022.98</ele>
        <time>2025-05-12T10:33:08Z</time>
      </trkpt>
      <trkpt lat="37.007495993748307" lon="-3.024661978706718">
        <ele>1022.02</ele>
        <time>2025-05-12T10:33:09Z</time>
      </trkpt>
      <trkpt lat="37.007623985409737" lon="-3.024637000635266">
        <ele>1021.0599999999999</ele>
        <time>2025-05-12T10:33:10Z</time>
      </trkpt>
      <trkpt lat="37.00775801204145" lon="-3.024611016735435">
        <ele>1020.58</ele>
        <time>2025-05-12T10:33:11Z</time>
      </trkpt>
      <trkpt lat="37.00788801535964" lon="-3.024571035057306">
        <ele>1020.1</ele>
        <time>2025-05-12T10:33:12Z</time>
      </trkpt>
      <trkpt lat="37.008026987314224" lon="-3.024526024237275">
        <ele>1019.62</ele>
        <time>2025-05-12T10:33:13Z</time>
      </trkpt>
      <trkpt lat="37.008161013945937" lon="-3.024484030902386">
        <ele>1018.65</ele>
        <time>2025-05-12T10:33:14Z</time>
      </trkpt>
      <trkpt lat="37.008305015042424" lon="-3.024437008425593">
        <ele>1017.6900000000001</ele>
        <time>2025-05-12T10:33:15Z</time>
      </trkpt>
      <trkpt lat="37.008397970348597" lon="-3.024359978735447">
        <ele>1017.21</ele>
        <time>2025-05-12T10:33:16Z</time>
      </trkpt>
      <trkpt lat="37.008472988381982" lon="-3.024223018437624">
        <ele>1016.73</ele>
        <time>2025-05-12T10:33:17Z</time>
      </trkpt>
      <trkpt lat="37.008550018072128" lon="-3.024084968492389">
        <ele>1016.25</ele>
        <time>2025-05-12T10:33:18Z</time>
      </trkpt>
      <trkpt lat="37.008626963943243" lon="-3.023943984881043">
        <ele>1014.8099999999999</ele>
        <time>2025-05-12T10:33:19Z</time>
      </trkpt>
      <trkpt lat="37.008708016946912" lon="-3.023842982947826">
        <ele>1014.33</ele>
        <time>2025-05-12T10:33:20Z</time>
      </trkpt>
      <trkpt lat="37.008804995566607" lon="-3.023726977407932">
        <ele>1013.85</ele>
        <time>2025-05-12T10:33:21Z</time>
      </trkpt>
      <trkpt lat="37.008928963914514" lon="-3.023675009608269">
        <ele>1012.89</ele>
        <time>2025-05-12T10:33:22Z</time>
      </trkpt>
      <trkpt lat="37.009066008031368" lon="-3.023619018495083">
        <ele>1011.9299999999999</ele>
        <time>2025-05-12T10:33:23Z</time>
      </trkpt>
      <trkpt lat="37.009210009127855" lon="-3.023559004068375">
        <ele>1011.4400000000001</ele>
        <time>2025-05-12T10:33:24Z</time>
      </trkpt>
      <trkpt lat="37.009351998567581" lon="-3.023501001298428">
        <ele>1010.48</ele>
        <time>2025-05-12T10:33:25Z</time>
      </trkpt>
      <trkpt lat="37.009474961087108" lon="-3.023431012406945">
        <ele>1010</ele>
        <time>2025-05-12T10:33:26Z</time>
      </trkpt>
      <trkpt lat="37.009584009647369" lon="-3.023348031565547">
        <ele>1009.04</ele>
        <time>2025-05-12T10:33:27Z</time>
      </trkpt>
      <trkpt lat="37.009777966886759" lon="-3.023200007155538">
        <ele>1007.12</ele>
        <time>2025-05-12T10:33:29Z</time>
      </trkpt>
      <trkpt lat="37.009871006011963" lon="-3.023129012435675">
        <ele>1006.16</ele>
        <time>2025-05-12T10:33:30Z</time>
      </trkpt>
      <trkpt lat="37.009964967146516" lon="-3.023138986900449">
        <ele>1004.72</ele>
        <time>2025-05-12T10:33:31Z</time>
      </trkpt>
      <trkpt lat="37.010087007656693" lon="-3.0231639649719">
        <ele>1003.75</ele>
        <time>2025-05-12T10:33:32Z</time>
      </trkpt>
      <trkpt lat="37.010199995711446" lon="-3.023234959691763">
        <ele>1002.79</ele>
        <time>2025-05-12T10:33:33Z</time>
      </trkpt>
      <trkpt lat="37.010320024564862" lon="-3.023310983553529">
        <ele>1001.83</ele>
        <time>2025-05-12T10:33:34Z</time>
      </trkpt>
      <trkpt lat="37.010447010397911" lon="-3.023391030728817">
        <ele>1000.39</ele>
        <time>2025-05-12T10:33:35Z</time>
      </trkpt>
      <trkpt lat="37.011192999780178" lon="-3.023733012378216">
        <ele>994.62</ele>
        <time>2025-05-12T10:33:41Z</time>
      </trkpt>
      <trkpt lat="37.011452000588179" lon="-3.023733012378216">
        <ele>991.74000000000001</ele>
        <time>2025-05-12T10:33:44Z</time>
      </trkpt>
      <trkpt lat="37.011459963396192" lon="-3.023725971579552">
        <ele>991.25999999999999</ele>
        <time>2025-05-12T10:33:45Z</time>
      </trkpt>
      <trkpt lat="37.011479996144772" lon="-3.023636033758521">
        <ele>990.77999999999997</ele>
        <time>2025-05-12T10:33:46Z</time>
      </trkpt>
      <trkpt lat="37.011502040550113" lon="-3.023535031825304">
        <ele>990.77999999999997</ele>
        <time>2025-05-12T10:33:47Z</time>
      </trkpt>
      <trkpt lat="37.011493993923068" lon="-3.02341902628541">
        <ele>990.77999999999997</ele>
        <time>2025-05-12T10:33:48Z</time>
      </trkpt>
      <trkpt lat="37.011487036943436" lon="-3.02331299521029">
        <ele>990.77999999999997</ele>
        <time>2025-05-12T10:33:49Z</time>
      </trkpt>
      <trkpt lat="37.011490976437926" lon="-3.023193972185254">
        <ele>991.25999999999999</ele>
        <time>2025-05-12T10:33:50Z</time>
      </trkpt>
      <trkpt lat="37.011549985036254" lon="-3.023082995787263">
        <ele>990.77999999999997</ele>
        <time>2025-05-12T10:33:51Z</time>
      </trkpt>
      <trkpt lat="37.011628020554781" lon="-3.023035973310471">
        <ele>990.77999999999997</ele>
        <time>2025-05-12T10:33:52Z</time>
      </trkpt>
      <trkpt lat="37.01171301305294" lon="-3.022985011339188">
        <ele>991.25999999999999</ele>
        <time>2025-05-12T10:33:53Z</time>
      </trkpt>
      <trkpt lat="37.011802028864622" lon="-3.022932037711144">
        <ele>991.25999999999999</ele>
        <time>2025-05-12T10:33:54Z</time>
      </trkpt>
      <trkpt lat="37.012081984430552" lon="-3.022763980552554">
        <ele>991.25999999999999</ele>
        <time>2025-05-12T10:33:57Z</time>
      </trkpt>
      <trkpt lat="37.012296980246902" lon="-3.022590978071094">
        <ele>992.22000000000003</ele>
        <time>2025-05-12T10:34:00Z</time>
      </trkpt>
      <trkpt lat="37.012403011322021" lon="-3.022505985572934">
        <ele>992.22000000000003</ele>
        <time>2025-05-12T10:34:01Z</time>
      </trkpt>
      <trkpt lat="37.012461014091969" lon="-3.022505985572934">
        <ele>991.25999999999999</ele>
        <time>2025-05-12T10:34:02Z</time>
      </trkpt>
      <trkpt lat="37.012568973004818" lon="-3.022513026371598">
        <ele>990.77999999999997</ele>
        <time>2025-05-12T10:34:03Z</time>
      </trkpt>
      <trkpt lat="37.012673998251557" lon="-3.022556025534868">
        <ele>989.80999999999995</ele>
        <time>2025-05-12T10:34:04Z</time>
      </trkpt>
      <trkpt lat="37.012773994356394" lon="-3.022598018869758">
        <ele>988.85000000000002</ele>
        <time>2025-05-12T10:34:05Z</time>
      </trkpt>
      <trkpt lat="37.012843983247876" lon="-3.022597013041377">
        <ele>988.37</ele>
        <time>2025-05-12T10:34:06Z</time>
      </trkpt>
      <trkpt lat="37.012914977967739" lon="-3.022546973079443">
        <ele>987.88999999999999</ele>
        <time>2025-05-12T10:34:07Z</time>
      </trkpt>
      <trkpt lat="37.012982033193111" lon="-3.022458963096142">
        <ele>987.40999999999997</ele>
        <time>2025-05-12T10:34:08Z</time>
      </trkpt>
      <trkpt lat="37.013055039569736" lon="-3.022362990304828">
        <ele>987.40999999999997</ele>
        <time>2025-05-12T10:34:09Z</time>
      </trkpt>
      <trkpt lat="37.013199040666223" lon="-3.02217397838831">
        <ele>986.92999999999995</ele>
        <time>2025-05-12T10:34:11Z</time>
      </trkpt>
      <trkpt lat="37.013267017900944" lon="-3.022098038345575">
        <ele>986.45000000000005</ele>
        <time>2025-05-12T10:34:12Z</time>
      </trkpt>
      <trkpt lat="37.013347987085581" lon="-3.022034000605345">
        <ele>985.97000000000003</ele>
        <time>2025-05-12T10:34:13Z</time>
      </trkpt>
      <trkpt lat="37.013437002897263" lon="-3.022040035575628">
        <ele>985.00999999999999</ele>
        <time>2025-05-12T10:34:14Z</time>
      </trkpt>
      <trkpt lat="37.01353800483048" lon="-3.02204598672688">
        <ele>984.52999999999997</ele>
        <time>2025-05-12T10:34:15Z</time>
      </trkpt>
      <trkpt lat="37.01364504173398" lon="-3.022053027525544">
        <ele>984.04999999999995</ele>
        <time>2025-05-12T10:34:16Z</time>
      </trkpt>
      <trkpt lat="37.013755012303591" lon="-3.022059984505177">
        <ele>983.57000000000005</ele>
        <time>2025-05-12T10:34:17Z</time>
      </trkpt>
      <trkpt lat="37.013865988701582" lon="-3.022068031132221">
        <ele>983.09000000000003</ele>
        <time>2025-05-12T10:34:18Z</time>
      </trkpt>
      <trkpt lat="37.013978976756334" lon="-3.022074988111854">
        <ele>982.12</ele>
        <time>2025-05-12T10:34:19Z</time>
      </trkpt>
      <trkpt lat="37.014092970639467" lon="-3.022103989496827">
        <ele>981.63999999999999</ele>
        <time>2025-05-12T10:34:20Z</time>
      </trkpt>
      <trkpt lat="37.014688001945615" lon="-3.02221798337996">
        <ele>977.79999999999995</ele>
        <time>2025-05-12T10:34:25Z</time>
      </trkpt>
      <trkpt lat="37.014810964465141" lon="-3.022204991430044">
        <ele>977.32000000000005</ele>
        <time>2025-05-12T10:34:26Z</time>
      </trkpt>
      <trkpt lat="37.015241039916873" lon="-3.022162998095155">
        <ele>974.42999999999995</ele>
        <time>2025-05-12T10:34:30Z</time>
      </trkpt>
      <trkpt lat="37.015343969687819" lon="-3.022129973396659">
        <ele>973.47000000000003</ele>
        <time>2025-05-12T10:34:31Z</time>
      </trkpt>
      <trkpt lat="37.015410019084811" lon="-3.022026037797332">
        <ele>972.99000000000001</ele>
        <time>2025-05-12T10:34:32Z</time>
      </trkpt>
      <trkpt lat="37.015428962185979" lon="-3.021917995065451">
        <ele>972.02999999999997</ele>
        <time>2025-05-12T10:34:33Z</time>
      </trkpt>
      <trkpt lat="37.015428962185979" lon="-3.02183099091053">
        <ele>971.07000000000005</ele>
        <time>2025-05-12T10:34:34Z</time>
      </trkpt>
      <trkpt lat="37.015373976901174" lon="-3.021737029775977">
        <ele>970.11000000000001</ele>
        <time>2025-05-12T10:34:35Z</time>
      </trkpt>
      <trkpt lat="37.015313962474465" lon="-3.021675003692508">
        <ele>969.14999999999998</ele>
        <time>2025-05-12T10:34:36Z</time>
      </trkpt>
      <trkpt lat="37.015342963859439" lon="-3.021691013127565">
        <ele>967.70000000000005</ele>
        <time>2025-05-12T10:34:37Z</time>
      </trkpt>
      <trkpt lat="37.015163004398346" lon="-3.021594034507871">
        <ele>965.29999999999995</ele>
        <time>2025-05-12T10:34:38Z</time>
      </trkpt>
      <trkpt lat="37.015056973323226" lon="-3.021535025909543">
        <ele>963.86000000000001</ele>
        <time>2025-05-12T10:34:39Z</time>
      </trkpt>
      <trkpt lat="37.014968963339925" lon="-3.021461013704538">
        <ele>961.94000000000005</ele>
        <time>2025-05-12T10:34:40Z</time>
      </trkpt>
      <trkpt lat="37.014881959185004" lon="-3.021389013156295">
        <ele>960.00999999999999</ele>
        <time>2025-05-12T10:34:41Z</time>
      </trkpt>
      <trkpt lat="37.014683978632092" lon="-3.021189020946622">
        <ele>959.52999999999997</ele>
        <time>2025-05-12T10:34:43Z</time>
      </trkpt>
      <trkpt lat="37.014594040811062" lon="-3.021089024841785">
        <ele>960.49000000000001</ele>
        <time>2025-05-12T10:34:44Z</time>
      </trkpt>
      <trkpt lat="37.014506030827761" lon="-3.020991962403059">
        <ele>960.00999999999999</ele>
        <time>2025-05-12T10:34:45Z</time>
      </trkpt>
      <trkpt lat="37.01439899392426" lon="-3.020838992670178">
        <ele>960.00999999999999</ele>
        <time>2025-05-12T10:34:46Z</time>
      </trkpt>
      <trkpt lat="37.014350965619087" lon="-3.020708989351988">
        <ele>959.52999999999997</ele>
        <time>2025-05-12T10:34:47Z</time>
      </trkpt>
      <trkpt lat="37.014300003647804" lon="-3.020573034882546">
        <ele>960.49000000000001</ele>
        <time>2025-05-12T10:34:48Z</time>
      </trkpt>
      <trkpt lat="37.01420595869422" lon="-3.020317973569036">
        <ele>961.94000000000005</ele>
        <time>2025-05-12T10:34:50Z</time>
      </trkpt>
      <trkpt lat="37.014148039743304" lon="-3.020216971635819">
        <ele>962.41999999999996</ele>
        <time>2025-05-12T10:34:51Z</time>
      </trkpt>
      <trkpt lat="37.01411996036768" lon="-3.020167015492916">
        <ele>963.38</ele>
        <time>2025-05-12T10:34:52Z</time>
      </trkpt>
      <trkpt lat="37.014033040031791" lon="-3.020107001066208">
        <ele>964.34000000000003</ele>
        <time>2025-05-12T10:34:53Z</time>
      </trkpt>
      <trkpt lat="37.01394603587687" lon="-3.0200469866395">
        <ele>966.25999999999999</ele>
        <time>2025-05-12T10:34:54Z</time>
      </trkpt>
      <trkpt lat="37.01385903172195" lon="-3.019985966384411">
        <ele>967.70000000000005</ele>
        <time>2025-05-12T10:34:55Z</time>
      </trkpt>
      <trkpt lat="37.013768004253507" lon="-3.019924024119973">
        <ele>969.14999999999998</ele>
        <time>2025-05-12T10:34:56Z</time>
      </trkpt>
      <trkpt lat="37.01334597542882" lon="-3.019630992785096">
        <ele>974.90999999999997</ele>
        <time>2025-05-12T10:35:00Z</time>
      </trkpt>
      <trkpt lat="37.013233993202448" lon="-3.019490009173751">
        <ele>976.36000000000001</ele>
        <time>2025-05-12T10:35:01Z</time>
      </trkpt>
      <trkpt lat="37.013185964897275" lon="-3.019362017512322">
        <ele>977.79999999999995</ele>
        <time>2025-05-12T10:35:02Z</time>
      </trkpt>
      <trkpt lat="37.013162998482585" lon="-3.019245006144047">
        <ele>979.24000000000001</ele>
        <time>2025-05-12T10:35:03Z</time>
      </trkpt>
      <trkpt lat="37.013137014582753" lon="-3.019111985340715">
        <ele>980.67999999999995</ele>
        <time>2025-05-12T10:35:04Z</time>
      </trkpt>
      <trkpt lat="37.013084040954709" lon="-3.019040990620852">
        <ele>981.63999999999999</ele>
        <time>2025-05-12T10:35:05Z</time>
      </trkpt>
      <trkpt lat="37.012983961030841" lon="-3.018933031708002">
        <ele>983.09000000000003</ele>
        <time>2025-05-12T10:35:06Z</time>
      </trkpt>
      <trkpt lat="37.012876002117991" lon="-3.018816020339727">
        <ele>985.00999999999999</ele>
        <time>2025-05-12T10:35:07Z</time>
      </trkpt>
      <trkpt lat="37.011843016371131" lon="-3.017873978242278">
        <ele>994.62</ele>
        <time>2025-05-12T10:35:14Z</time>
      </trkpt>
      <trkpt lat="37.011539004743099" lon="-3.017709022387862">
        <ele>997.50999999999999</ele>
        <time>2025-05-12T10:35:16Z</time>
      </trkpt>
      <trkpt lat="37.011384023353457" lon="-3.017666023224592">
        <ele>998.95000000000005</ele>
        <time>2025-05-12T10:35:17Z</time>
      </trkpt>
      <trkpt lat="37.011232981458306" lon="-3.017642972990871">
        <ele>1000.87</ele>
        <time>2025-05-12T10:35:18Z</time>
      </trkpt>
      <trkpt lat="37.010958977043629" lon="-3.017565021291375">
        <ele>1003.75</ele>
        <time>2025-05-12T10:35:20Z</time>
      </trkpt>
      <trkpt lat="37.010851018130779" lon="-3.017507018521428">
        <ele>1005.2</ele>
        <time>2025-05-12T10:35:21Z</time>
      </trkpt>
      <trkpt lat="37.010673992335796" lon="-3.017392018809915">
        <ele>1008.5599999999999</ele>
        <time>2025-05-12T10:35:23Z</time>
      </trkpt>
      <trkpt lat="37.010539965704083" lon="-3.017270984128118">
        <ele>1010.96</ele>
        <time>2025-05-12T10:35:25Z</time>
      </trkpt>
      <trkpt lat="37.010497972369194" lon="-3.017209963873029">
        <ele>1012.41</ele>
        <time>2025-05-12T10:35:26Z</time>
      </trkpt>
      <trkpt lat="37.010461008176208" lon="-3.017128994688392">
        <ele>1013.37</ele>
        <time>2025-05-12T10:35:27Z</time>
      </trkpt>
      <trkpt lat="37.010423960164189" lon="-3.017049031332135">
        <ele>1014.8099999999999</ele>
        <time>2025-05-12T10:35:28Z</time>
      </trkpt>
      <trkpt lat="37.010396970435977" lon="-3.016978958621621">
        <ele>1015.77</ele>
        <time>2025-05-12T10:35:29Z</time>
      </trkpt>
      <trkpt lat="37.010320024564862" lon="-3.016732027754188">
        <ele>1020.58</ele>
        <time>2025-05-12T10:35:33Z</time>
      </trkpt>
      <trkpt lat="37.010286999866366" lon="-3.016614010557532">
        <ele>1023.46</ele>
        <time>2025-05-12T10:35:35Z</time>
      </trkpt>
      <trkpt lat="37.010221034288406" lon="-3.016403038054705">
        <ele>1026.3399999999999</ele>
        <time>2025-05-12T10:35:38Z</time>
      </trkpt>
      <trkpt lat="37.009910987690091" lon="-3.015667023137212">
        <ele>1033.55</ele>
        <time>2025-05-12T10:35:47Z</time>
      </trkpt>
      <trkpt lat="37.009871006011963" lon="-3.015574989840388">
        <ele>1034.52</ele>
        <time>2025-05-12T10:35:48Z</time>
      </trkpt>
      <trkpt lat="37.009738991037011" lon="-3.014992028474808">
        <ele>1035.96</ele>
        <time>2025-05-12T10:35:54Z</time>
      </trkpt>
      <trkpt lat="37.009717030450702" lon="-3.014870993793011">
        <ele>1035.96</ele>
        <time>2025-05-12T10:35:55Z</time>
      </trkpt>
      <trkpt lat="37.009687023237348" lon="-3.01476001739502">
        <ele>1035.96</ele>
        <time>2025-05-12T10:35:56Z</time>
      </trkpt>
      <trkpt lat="37.009658021852374" lon="-3.014652980491519">
        <ele>1035.96</ele>
        <time>2025-05-12T10:35:57Z</time>
      </trkpt>
      <trkpt lat="37.009634971618652" lon="-3.014566982164979">
        <ele>1036.4400000000001</ele>
        <time>2025-05-12T10:35:58Z</time>
      </trkpt>
      <trkpt lat="37.009454006329179" lon="-3.014007993042469">
        <ele>1039.3199999999999</ele>
        <time>2025-05-12T10:36:04Z</time>
      </trkpt>
      <trkpt lat="37.009361973032355" lon="-3.013950996100903">
        <ele>1039.8</ele>
        <time>2025-05-12T10:36:05Z</time>
      </trkpt>
      <trkpt lat="37.009080005809665" lon="-3.013380020856857">
        <ele>1041.73</ele>
        <time>2025-05-12T10:36:12Z</time>
      </trkpt>
      <trkpt lat="37.008884036913514" lon="-3.01312898285687">
        <ele>1041.25</ele>
        <time>2025-05-12T10:36:16Z</time>
      </trkpt>
      <trkpt lat="37.008826034143567" lon="-3.013038039207459">
        <ele>1040.76</ele>
        <time>2025-05-12T10:36:17Z</time>
      </trkpt>
      <trkpt lat="37.008784040808678" lon="-3.012972995638847">
        <ele>1040.28</ele>
        <time>2025-05-12T10:36:18Z</time>
      </trkpt>
      <trkpt lat="37.008744981139898" lon="-3.012911975383759">
        <ele>1039.8</ele>
        <time>2025-05-12T10:36:19Z</time>
      </trkpt>
      <trkpt lat="37.008702987805009" lon="-3.012847015634179">
        <ele>1039.3199999999999</ele>
        <time>2025-05-12T10:36:20Z</time>
      </trkpt>
      <trkpt lat="37.008683038875461" lon="-3.012779960408807">
        <ele>1038.8399999999999</ele>
        <time>2025-05-12T10:36:21Z</time>
      </trkpt>
      <trkpt lat="37.008668035268784" lon="-3.012692034244537">
        <ele>1037.8800000000001</ele>
        <time>2025-05-12T10:36:22Z</time>
      </trkpt>
      <trkpt lat="37.008654037490487" lon="-3.012603018432856">
        <ele>1037.4000000000001</ele>
        <time>2025-05-12T10:36:23Z</time>
      </trkpt>
      <trkpt lat="37.008658982813358" lon="-3.012524982914329">
        <ele>1036.9200000000001</ele>
        <time>2025-05-12T10:36:24Z</time>
      </trkpt>
      <trkpt lat="37.008675998076797" lon="-3.012447031214833">
        <ele>1036.9200000000001</ele>
        <time>2025-05-12T10:36:25Z</time>
      </trkpt>
      <trkpt lat="37.008695024996996" lon="-3.012365978211165">
        <ele>1036.4400000000001</ele>
        <time>2025-05-12T10:36:26Z</time>
      </trkpt>
      <trkpt lat="37.008749004453421" lon="-3.012185012921691">
        <ele>1036.4400000000001</ele>
        <time>2025-05-12T10:36:28Z</time>
      </trkpt>
      <trkpt lat="37.008749004453421" lon="-3.012185012921691">
        <ele>1036.4400000000001</ele>
        <time>2025-05-12T10:36:29Z</time>
      </trkpt>
      <trkpt lat="37.008771970868111" lon="-3.01169098354876">
        <ele>1035.96</ele>
        <time>2025-05-12T10:36:33Z</time>
      </trkpt>
      <trkpt lat="37.008773982524872" lon="-3.011635998263955">
        <ele>1035.96</ele>
        <time>2025-05-12T10:36:34Z</time>
      </trkpt>
      <trkpt lat="37.008775994181633" lon="-3.011597022414208">
        <ele>1035.96</ele>
        <time>2025-05-12T10:36:35Z</time>
      </trkpt>
      <trkpt lat="37.008777000010014" lon="-3.011566009372473">
        <ele>1035.96</ele>
        <time>2025-05-12T10:36:36Z</time>
      </trkpt>
      <trkpt lat="37.008777000010014" lon="-3.011528039351106">
        <ele>1035.96</ele>
        <time>2025-05-12T10:36:37Z</time>
      </trkpt>
      <trkpt lat="37.008777000010014" lon="-3.011433994397521">
        <ele>1036.4400000000001</ele>
        <time>2025-05-12T10:36:38Z</time>
      </trkpt>
      <trkpt lat="37.008823016658425" lon="-3.011411027982831">
        <ele>1036.4400000000001</ele>
        <time>2025-05-12T10:36:39Z</time>
      </trkpt>
      <trkpt lat="37.008867021650076" lon="-3.011385966092348">
        <ele>1036.4400000000001</ele>
        <time>2025-05-12T10:36:40Z</time>
      </trkpt>
      <trkpt lat="37.008913038298488" lon="-3.01132402382791">
        <ele>1036.4400000000001</ele>
        <time>2025-05-12T10:36:41Z</time>
      </trkpt>
      <trkpt lat="37.008991995826364" lon="-3.011220004409552">
        <ele>1036.9200000000001</ele>
        <time>2025-05-12T10:36:42Z</time>
      </trkpt>
      <trkpt lat="37.008999036625028" lon="-3.011154960840941">
        <ele>1037.4000000000001</ele>
        <time>2025-05-12T10:36:43Z</time>
      </trkpt>
      <trkpt lat="37.009014040231705" lon="-3.011034009978175">
        <ele>1037.8800000000001</ele>
        <time>2025-05-12T10:36:44Z</time>
      </trkpt>
      <trkpt lat="37.00902896001935" lon="-3.010907024145126">
        <ele>1038.8399999999999</ele>
        <time>2025-05-12T10:36:45Z</time>
      </trkpt>
      <trkpt lat="37.009043963626027" lon="-3.010779032483697">
        <ele>1038.8399999999999</ele>
        <time>2025-05-12T10:36:46Z</time>
      </trkpt>
      <trkpt lat="37.009071037173271" lon="-3.0106579978019">
        <ele>1039.3199999999999</ele>
        <time>2025-05-12T10:36:47Z</time>
      </trkpt>
      <trkpt lat="37.009133985266089" lon="-3.010553978383541">
        <ele>1039.8</ele>
        <time>2025-05-12T10:36:48Z</time>
      </trkpt>
      <trkpt lat="37.009201040491462" lon="-3.010449036955833">
        <ele>1040.76</ele>
        <time>2025-05-12T10:36:49Z</time>
      </trkpt>
      <trkpt lat="37.009270023554564" lon="-3.010338982567191">
        <ele>1041.25</ele>
        <time>2025-05-12T10:36:50Z</time>
      </trkpt>
      <trkpt lat="37.009433973580599" lon="-3.010124992579222">
        <ele>1043.1700000000001</ele>
        <time>2025-05-12T10:36:52Z</time>
      </trkpt>
      <trkpt lat="37.009525001049042" lon="-3.010053997859359">
        <ele>1044.1300000000001</ele>
        <time>2025-05-12T10:36:53Z</time>
      </trkpt>
      <trkpt lat="37.009635977447033" lon="-3.010029019787908">
        <ele>1045.0899999999999</ele>
        <time>2025-05-12T10:36:54Z</time>
      </trkpt>
      <trkpt lat="37.009734967723489" lon="-3.010082999244332">
        <ele>1046.05</ele>
        <time>2025-05-12T10:36:55Z</time>
      </trkpt>
      <trkpt lat="37.009786013513803" lon="-3.010147036984563">
        <ele>1047.01</ele>
        <time>2025-05-12T10:36:56Z</time>
      </trkpt>
      <trkpt lat="37.009804034605622" lon="-3.010291960090399">
        <ele>1048.9400000000001</ele>
        <time>2025-05-12T10:36:57Z</time>
      </trkpt>
      <trkpt lat="37.009780984371901" lon="-3.010387010872364">
        <ele>1050.3800000000001</ele>
        <time>2025-05-12T10:36:58Z</time>
      </trkpt>
      <trkpt lat="37.009735973551869" lon="-3.010504022240639">
        <ele>1051.8199999999999</ele>
        <time>2025-05-12T10:36:59Z</time>
      </trkpt>
      <trkpt lat="37.009686017408967" lon="-3.010633019730449">
        <ele>1053.74</ele>
        <time>2025-05-12T10:37:00Z</time>
      </trkpt>
      <trkpt lat="37.009632959961891" lon="-3.010771991685033">
        <ele>1055.1800000000001</ele>
        <time>2025-05-12T10:37:01Z</time>
      </trkpt>
      <trkpt lat="37.009605970233679" lon="-3.0109360255301">
        <ele>1056.6300000000001</ele>
        <time>2025-05-12T10:37:02Z</time>
      </trkpt>
      <trkpt lat="37.009643018245697" lon="-3.011096036061645">
        <ele>1058.0699999999999</ele>
        <time>2025-05-12T10:37:03Z</time>
      </trkpt>
      <trkpt lat="37.009702026844025" lon="-3.011245988309383">
        <ele>1059.03</ele>
        <time>2025-05-12T10:37:04Z</time>
      </trkpt>
      <trkpt lat="37.009778972715139" lon="-3.01138998940587">
        <ele>1060.47</ele>
        <time>2025-05-12T10:37:05Z</time>
      </trkpt>
      <trkpt lat="37.009879974648356" lon="-3.011524016037583">
        <ele>1061.4300000000001</ele>
        <time>2025-05-12T10:37:06Z</time>
      </trkpt>
      <trkpt lat="37.009978964924812" lon="-3.011663993820548">
        <ele>1062.8699999999999</ele>
        <time>2025-05-12T10:37:07Z</time>
      </trkpt>
      <trkpt lat="37.010418009012938" lon="-3.012405037879944">
        <ele>1072.01</ele>
        <time>2025-05-12T10:37:13Z</time>
      </trkpt>
      <trkpt lat="37.010716991499066" lon="-3.013224033638835">
        <ele>1081.1400000000001</ele>
        <time>2025-05-12T10:37:20Z</time>
      </trkpt>
      <trkpt lat="37.010740963742137" lon="-3.013374991714954">
        <ele>1082.0999999999999</ele>
        <time>2025-05-12T10:37:21Z</time>
      </trkpt>
      <trkpt lat="37.010785974562168" lon="-3.013656036928296">
        <ele>1083.54</ele>
        <time>2025-05-12T10:37:23Z</time>
      </trkpt>
      <trkpt lat="37.010828973725438" lon="-3.013784028589726">
        <ele>1084.5</ele>
        <time>2025-05-12T10:37:24Z</time>
      </trkpt>
      <trkpt lat="37.010888988152146" lon="-3.013911014422774">
        <ele>1085.95</ele>
        <time>2025-05-12T10:37:25Z</time>
      </trkpt>
      <trkpt lat="37.011316968128085" lon="-3.014698997139931">
        <ele>1092.6800000000001</ele>
        <time>2025-05-12T10:37:31Z</time>
      </trkpt>
      <trkpt lat="37.011415958404541" lon="-3.014781977981329">
        <ele>1093.6400000000001</ele>
        <time>2025-05-12T10:37:32Z</time>
      </trkpt>
      <trkpt lat="37.011473039165139" lon="-3.014799999073148">
        <ele>1094.5999999999999</ele>
        <time>2025-05-12T10:37:33Z</time>
      </trkpt>
      <trkpt lat="37.011545039713383" lon="-3.014738978818059">
        <ele>1095.5599999999999</ele>
        <time>2025-05-12T10:37:34Z</time>
      </trkpt>
      <trkpt lat="37.011612011119723" lon="-3.014672007411718">
        <ele>1096.52</ele>
        <time>2025-05-12T10:37:35Z</time>
      </trkpt>
      <trkpt lat="37.011643024161458" lon="-3.014538986608386">
        <ele>1097.48</ele>
        <time>2025-05-12T10:37:36Z</time>
      </trkpt>
      <trkpt lat="37.011619973927736" lon="-3.014398002997041">
        <ele>1098.9200000000001</ele>
        <time>2025-05-12T10:37:37Z</time>
      </trkpt>
      <trkpt lat="37.011553002521396" lon="-3.014283003285527">
        <ele>1100.3699999999999</ele>
        <time>2025-05-12T10:37:38Z</time>
      </trkpt>
      <trkpt lat="37.01147798448801" lon="-3.014152999967337">
        <ele>1101.3299999999999</ele>
        <time>2025-05-12T10:37:39Z</time>
      </trkpt>
      <trkpt lat="37.011400032788515" lon="-3.014017967507243">
        <ele>1102.77</ele>
        <time>2025-05-12T10:37:40Z</time>
      </trkpt>
      <trkpt lat="37.01136901974678" lon="-3.013868015259504">
        <ele>1104.21</ele>
        <time>2025-05-12T10:37:41Z</time>
      </trkpt>
      <trkpt lat="37.011362984776497" lon="-3.013739017769694">
        <ele>1105.1700000000001</ele>
        <time>2025-05-12T10:37:42Z</time>
      </trkpt>
      <trkpt lat="37.011403972283006" lon="-3.013615971431136">
        <ele>1106.6099999999999</ele>
        <time>2025-05-12T10:37:43Z</time>
      </trkpt>
      <trkpt lat="37.011470021679997" lon="-3.013517986983061">
        <ele>1107.5799999999999</ele>
        <time>2025-05-12T10:37:44Z</time>
      </trkpt>
      <trkpt lat="37.011560965329409" lon="-3.013411033898592">
        <ele>1109.02</ele>
        <time>2025-05-12T10:37:45Z</time>
      </trkpt>
      <trkpt lat="37.011746959760785" lon="-3.013143986463547">
        <ele>1111.4200000000001</ele>
        <time>2025-05-12T10:37:47Z</time>
      </trkpt>
      <trkpt lat="37.011823989450932" lon="-3.01300099119544">
        <ele>1112.3800000000001</ele>
        <time>2025-05-12T10:37:48Z</time>
      </trkpt>
      <trkpt lat="37.011875035241246" lon="-3.012809967622161">
        <ele>1113.3399999999999</ele>
        <time>2025-05-12T10:37:49Z</time>
      </trkpt>
      <trkpt lat="37.011919962242246" lon="-3.012639982625842">
        <ele>1114.79</ele>
        <time>2025-05-12T10:37:50Z</time>
      </trkpt>
      <trkpt lat="37.011960027739406" lon="-3.012491036206484">
        <ele>1115.75</ele>
        <time>2025-05-12T10:37:51Z</time>
      </trkpt>
      <trkpt lat="37.011995986104012" lon="-3.012357009574771">
        <ele>1116.71</ele>
        <time>2025-05-12T10:37:52Z</time>
      </trkpt>
      <trkpt lat="37.012065974995494" lon="-3.012233041226864">
        <ele>1117.6700000000001</ele>
        <time>2025-05-12T10:37:53Z</time>
      </trkpt>
      <trkpt lat="37.012161025777459" lon="-3.012137990444899">
        <ele>1118.6300000000001</ele>
        <time>2025-05-12T10:37:54Z</time>
      </trkpt>
      <trkpt lat="37.01227200217545" lon="-3.012042017653585">
        <ele>1119.5899999999999</ele>
        <time>2025-05-12T10:37:55Z</time>
      </trkpt>
      <trkpt lat="37.01238096691668" lon="-3.011946966871619">
        <ele>1120.55</ele>
        <time>2025-05-12T10:37:56Z</time>
      </trkpt>
      <trkpt lat="37.012451961636543" lon="-3.011801037937403">
        <ele>1122</ele>
        <time>2025-05-12T10:37:57Z</time>
      </trkpt>
      <trkpt lat="37.012510970234871" lon="-3.011641027405858">
        <ele>1123.4400000000001</ele>
        <time>2025-05-12T10:37:58Z</time>
      </trkpt>
      <trkpt lat="37.012506024912" lon="-3.011470958590508">
        <ele>1125.3599999999999</ele>
        <time>2025-05-12T10:37:59Z</time>
      </trkpt>
      <trkpt lat="37.012499989941716" lon="-3.011293010786176">
        <ele>1126.8</ele>
        <time>2025-05-12T10:38:00Z</time>
      </trkpt>
      <trkpt lat="37.012494960799813" lon="-3.011127971112728">
        <ele>1128.73</ele>
        <time>2025-05-12T10:38:01Z</time>
      </trkpt>
      <trkpt lat="37.012491021305323" lon="-3.01097902469337">
        <ele>1130.6500000000001</ele>
        <time>2025-05-12T10:38:02Z</time>
      </trkpt>
      <trkpt lat="37.012531002983451" lon="-3.010847009718418">
        <ele>1132.0899999999999</ele>
        <time>2025-05-12T10:38:03Z</time>
      </trkpt>
      <trkpt lat="37.012610966339707" lon="-3.010710971429944">
        <ele>1133.53</ele>
        <time>2025-05-12T10:38:04Z</time>
      </trkpt>
      <trkpt lat="37.012707022950053" lon="-3.010579040274024">
        <ele>1134.97</ele>
        <time>2025-05-12T10:38:05Z</time>
      </trkpt>
      <trkpt lat="37.012813976034522" lon="-3.010448031127453">
        <ele>1135.9400000000001</ele>
        <time>2025-05-12T10:38:06Z</time>
      </trkpt>
      <trkpt lat="37.012921012938023" lon="-3.010318027809262">
        <ele>1137.3800000000001</ele>
        <time>2025-05-12T10:38:07Z</time>
      </trkpt>
      <trkpt lat="37.013026038184762" lon="-3.010190036147833">
        <ele>1138.3399999999999</ele>
        <time>2025-05-12T10:38:08Z</time>
      </trkpt>
      <trkpt lat="37.013069037348032" lon="-3.010010998696089">
        <ele>1139.78</ele>
        <time>2025-05-12T10:38:09Z</time>
      </trkpt>
      <trkpt lat="37.013111030682921" lon="-3.009835984557867">
        <ele>1140.74</ele>
        <time>2025-05-12T10:38:10Z</time>
      </trkpt>
      <trkpt lat="37.013154029846191" lon="-3.009658036753535">
        <ele>1141.7</ele>
        <time>2025-05-12T10:38:11Z</time>
      </trkpt>
      <trkpt lat="37.013214966282248" lon="-3.009487967938185">
        <ele>1143.1400000000001</ele>
        <time>2025-05-12T10:38:12Z</time>
      </trkpt>
      <trkpt lat="37.013297025114298" lon="-3.00932502374053">
        <ele>1144.1099999999999</ele>
        <time>2025-05-12T10:38:13Z</time>
      </trkpt>
      <trkpt lat="37.013404984027147" lon="-3.009187979623675">
        <ele>1145.55</ele>
        <time>2025-05-12T10:38:14Z</time>
      </trkpt>
      <trkpt lat="37.013524007052183" lon="-3.009054036810994">
        <ele>1146.51</ele>
        <time>2025-05-12T10:38:15Z</time>
      </trkpt>
      <trkpt lat="37.013664990663528" lon="-3.008951023221016">
        <ele>1147.95</ele>
        <time>2025-05-12T10:38:16Z</time>
      </trkpt>
      <trkpt lat="37.013806980103254" lon="-3.008848009631038">
        <ele>1149.3900000000001</ele>
        <time>2025-05-12T10:38:17Z</time>
      </trkpt>
      <trkpt lat="37.013944024220109" lon="-3.008748013526201">
        <ele>1150.3499999999999</ele>
        <time>2025-05-12T10:38:18Z</time>
      </trkpt>
      <trkpt lat="37.014063969254494" lon="-3.00865899771452">
        <ele>1151.3199999999999</ele>
        <time>2025-05-12T10:38:19Z</time>
      </trkpt>
      <trkpt lat="37.014277037233114" lon="-3.008484989404678">
        <ele>1153.72</ele>
        <time>2025-05-12T10:38:21Z</time>
      </trkpt>
      <trkpt lat="37.014408968389034" lon="-3.00846403464675">
        <ele>1154.6800000000001</ele>
        <time>2025-05-12T10:38:22Z</time>
      </trkpt>
      <trkpt lat="37.014844994992018" lon="-3.008432015776634">
        <ele>1158.53</ele>
        <time>2025-05-12T10:38:25Z</time>
      </trkpt>
      <trkpt lat="37.01500098221004" lon="-3.008369989693165">
        <ele>1159.97</ele>
        <time>2025-05-12T10:38:26Z</time>
      </trkpt>
      <trkpt lat="37.015155041590333" lon="-3.008298994973302">
        <ele>1160.9300000000001</ele>
        <time>2025-05-12T10:38:27Z</time>
      </trkpt>
      <trkpt lat="37.015890972688794" lon="-3.00792801193893">
        <ele>1167.1800000000001</ele>
        <time>2025-05-12T10:38:32Z</time>
      </trkpt>
      <trkpt lat="37.016003038734198" lon="-3.007824998348951">
        <ele>1168.6199999999999</ele>
        <time>2025-05-12T10:38:33Z</time>
      </trkpt>
      <trkpt lat="37.016096999868751" lon="-3.007679991424084">
        <ele>1170.0599999999999</ele>
        <time>2025-05-12T10:38:34Z</time>
      </trkpt>
      <trkpt lat="37.016584994271398" lon="-3.006955040618777">
        <ele>1176.79</ele>
        <time>2025-05-12T10:38:39Z</time>
      </trkpt>
      <trkpt lat="37.017583027482033" lon="-3.006024984642863">
        <ele>1186.8800000000001</ele>
        <time>2025-05-12T10:38:47Z</time>
      </trkpt>
      <trkpt lat="37.017731973901391" lon="-3.005954995751381">
        <ele>1187.8499999999999</ele>
        <time>2025-05-12T10:38:48Z</time>
      </trkpt>
      <trkpt lat="37.017887961119413" lon="-3.005882995203137">
        <ele>1189.29</ele>
        <time>2025-05-12T10:38:49Z</time>
      </trkpt>
      <trkpt lat="37.018045037984848" lon="-3.005809988826513">
        <ele>1190.73</ele>
        <time>2025-05-12T10:38:50Z</time>
      </trkpt>
      <trkpt lat="37.018213011324406" lon="-3.005753997713327">
        <ele>1192.1700000000001</ele>
        <time>2025-05-12T10:38:51Z</time>
      </trkpt>
      <trkpt lat="37.019418999552727" lon="-3.005388965830207">
        <ele>1201.79</ele>
        <time>2025-05-12T10:38:58Z</time>
      </trkpt>
      <trkpt lat="37.019595019519329" lon="-3.005356024950743">
        <ele>1202.75</ele>
        <time>2025-05-12T10:38:59Z</time>
      </trkpt>
      <trkpt lat="37.019775984808803" lon="-3.005335992202163">
        <ele>1203.71</ele>
        <time>2025-05-12T10:39:00Z</time>
      </trkpt>
      <trkpt lat="37.020116960629821" lon="-3.005320988595486">
        <ele>1206.1099999999999</ele>
        <time>2025-05-12T10:39:02Z</time>
      </trkpt>
      <trkpt lat="37.020262973383069" lon="-3.00528796389699">
        <ele>1207.55</ele>
        <time>2025-05-12T10:39:03Z</time>
      </trkpt>
      <trkpt lat="37.020389037206769" lon="-3.005232978612185">
        <ele>1208.51</ele>
        <time>2025-05-12T10:39:04Z</time>
      </trkpt>
      <trkpt lat="37.020495990291238" lon="-3.005141029134393">
        <ele>1209.96</ele>
        <time>2025-05-12T10:39:05Z</time>
      </trkpt>
      <trkpt lat="37.020603027194738" lon="-3.00505000166595">
        <ele>1210.9200000000001</ele>
        <time>2025-05-12T10:39:06Z</time>
      </trkpt>
      <trkpt lat="37.020701011642814" lon="-3.00496500916779">
        <ele>1212.3599999999999</ele>
        <time>2025-05-12T10:39:07Z</time>
      </trkpt>
      <trkpt lat="37.020788015797734" lon="-3.004890996962786">
        <ele>1213.8</ele>
        <time>2025-05-12T10:39:08Z</time>
      </trkpt>
      <trkpt lat="37.020884994417429" lon="-3.004868030548096">
        <ele>1214.76</ele>
        <time>2025-05-12T10:39:09Z</time>
      </trkpt>
      <trkpt lat="37.020968981087208" lon="-3.004893008619547">
        <ele>1216.21</ele>
        <time>2025-05-12T10:39:10Z</time>
      </trkpt>
      <trkpt lat="37.02103896997869" lon="-3.004962997511029">
        <ele>1217.1700000000001</ele>
        <time>2025-05-12T10:39:11Z</time>
      </trkpt>
      <trkpt lat="37.021091021597385" lon="-3.005042038857937">
        <ele>1218.6099999999999</ele>
        <time>2025-05-12T10:39:12Z</time>
      </trkpt>
      <trkpt lat="37.021105019375682" lon="-3.005139017477632">
        <ele>1220.53</ele>
        <time>2025-05-12T10:39:13Z</time>
      </trkpt>
      <trkpt lat="37.021076017990708" lon="-3.005241025239229">
        <ele>1221.97</ele>
        <time>2025-05-12T10:39:14Z</time>
      </trkpt>
      <trkpt lat="37.021027989685535" lon="-3.005320988595486">
        <ele>1223.4200000000001</ele>
        <time>2025-05-12T10:39:15Z</time>
      </trkpt>
      <trkpt lat="37.020974010229111" lon="-3.005402041599155">
        <ele>1224.3800000000001</ele>
        <time>2025-05-12T10:39:16Z</time>
      </trkpt>
      <trkpt lat="37.020901003852487" lon="-3.005512012168765">
        <ele>1225.3399999999999</ele>
        <time>2025-05-12T10:39:17Z</time>
      </trkpt>
      <trkpt lat="37.020861022174358" lon="-3.005550988018513">
        <ele>1226.3</ele>
        <time>2025-05-12T10:39:18Z</time>
      </trkpt>
      <trkpt lat="37.020792961120605" lon="-3.005618965253234">
        <ele>1227.26</ele>
        <time>2025-05-12T10:39:19Z</time>
      </trkpt>
      <trkpt lat="37.020447961986065" lon="-3.005922976881266">
        <ele>1230.6199999999999</ele>
        <time>2025-05-12T10:39:24Z</time>
      </trkpt>
      <trkpt lat="37.019699960947037" lon="-3.006538040935993">
        <ele>1236.8699999999999</ele>
        <time>2025-05-12T10:39:33Z</time>
      </trkpt>
      <trkpt lat="37.018670998513699" lon="-3.007449992001057">
        <ele>1246.49</ele>
        <time>2025-05-12T10:39:42Z</time>
      </trkpt>
      <trkpt lat="37.018621964380145" lon="-3.007570020854473">
        <ele>1247.45</ele>
        <time>2025-05-12T10:39:43Z</time>
      </trkpt>
      <trkpt lat="37.018605032935739" lon="-3.007703041657805">
        <ele>1248.4100000000001</ele>
        <time>2025-05-12T10:39:44Z</time>
      </trkpt>
      <trkpt lat="37.018632022663951" lon="-3.007833966985345">
        <ele>1249.3699999999999</ele>
        <time>2025-05-12T10:39:45Z</time>
      </trkpt>
      <trkpt lat="37.018687007948756" lon="-3.007930023595691">
        <ele>1250.3299999999999</ele>
        <time>2025-05-12T10:39:46Z</time>
      </trkpt>
      <trkpt lat="37.018794966861606" lon="-3.007962964475155">
        <ele>1251.77</ele>
        <time>2025-05-12T10:39:47Z</time>
      </trkpt>
      <trkpt lat="37.018897980451584" lon="-3.007968999445438">
        <ele>1253.22</ele>
        <time>2025-05-12T10:39:48Z</time>
      </trkpt>
      <trkpt lat="37.019007029011846" lon="-3.007937986403704">
        <ele>1254.6600000000001</ele>
        <time>2025-05-12T10:39:49Z</time>
      </trkpt>
      <trkpt lat="37.01912697404623" lon="-3.007902028039098">
        <ele>1255.6199999999999</ele>
        <time>2025-05-12T10:39:50Z</time>
      </trkpt>
      <trkpt lat="37.019871035590768" lon="-3.007678985595703">
        <ele>1261.3900000000001</ele>
        <time>2025-05-12T10:39:55Z</time>
      </trkpt>
      <trkpt lat="37.020030040293932" lon="-3.007661970332265">
        <ele>1262.3499999999999</ele>
        <time>2025-05-12T10:39:56Z</time>
      </trkpt>
      <trkpt lat="37.020560028031468" lon="-3.00760698504746">
        <ele>1266.1900000000001</ele>
        <time>2025-05-12T10:39:59Z</time>
      </trkpt>
      <trkpt lat="37.020738981664181" lon="-3.007577983662486">
        <ele>1267.1600000000001</ele>
        <time>2025-05-12T10:40:00Z</time>
      </trkpt>
      <trkpt lat="37.021803986281157" lon="-3.007269026711583">
        <ele>1275.3299999999999</ele>
        <time>2025-05-12T10:40:06Z</time>
      </trkpt>
      <trkpt lat="37.021968020126224" lon="-3.007222004234791">
        <ele>1276.77</ele>
        <time>2025-05-12T10:40:07Z</time>
      </trkpt>
      <trkpt lat="37.022125013172626" lon="-3.007175987586379">
        <ele>1277.73</ele>
        <time>2025-05-12T10:40:08Z</time>
      </trkpt>
      <trkpt lat="37.022284017875791" lon="-3.007164001464844">
        <ele>1279.1700000000001</ele>
        <time>2025-05-12T10:40:09Z</time>
      </trkpt>
      <trkpt lat="37.022454002872109" lon="-3.007164001464844">
        <ele>1280.1300000000001</ele>
        <time>2025-05-12T10:40:10Z</time>
      </trkpt>
      <trkpt lat="37.022625999525189" lon="-3.007164001464844">
        <ele>1281.0899999999999</ele>
        <time>2025-05-12T10:40:11Z</time>
      </trkpt>
      <trkpt lat="37.022790033370256" lon="-3.007164001464844">
        <ele>1282.0599999999999</ele>
        <time>2025-05-12T10:40:12Z</time>
      </trkpt>
      <trkpt lat="37.022949038073421" lon="-3.007129970937967">
        <ele>1283.02</ele>
        <time>2025-05-12T10:40:13Z</time>
      </trkpt>
      <trkpt lat="37.023108964785933" lon="-3.007082026451826">
        <ele>1283.5</ele>
        <time>2025-05-12T10:40:14Z</time>
      </trkpt>
      <trkpt lat="37.023556977510452" lon="-3.006951017305255">
        <ele>1286.8599999999999</ele>
        <time>2025-05-12T10:40:17Z</time>
      </trkpt>
      <trkpt lat="37.023660996928811" lon="-3.006998961791396">
        <ele>1288.3</ele>
        <time>2025-05-12T10:40:18Z</time>
      </trkpt>
      <trkpt lat="37.023751018568873" lon="-3.007043972611427">
        <ele>1289.75</ele>
        <time>2025-05-12T10:40:19Z</time>
      </trkpt>
      <trkpt lat="37.023775996640325" lon="-3.007137011736631">
        <ele>1291.6700000000001</ele>
        <time>2025-05-12T10:40:20Z</time>
      </trkpt>
      <trkpt lat="37.023775996640325" lon="-3.007249999791384">
        <ele>1293.1099999999999</ele>
        <time>2025-05-12T10:40:21Z</time>
      </trkpt>
      <trkpt lat="37.023728974163532" lon="-3.007343038916588">
        <ele>1294.55</ele>
        <time>2025-05-12T10:40:22Z</time>
      </trkpt>
      <trkpt lat="37.023654039949179" lon="-3.007398024201393">
        <ele>1295.51</ele>
        <time>2025-05-12T10:40:23Z</time>
      </trkpt>
      <trkpt lat="37.023540968075395" lon="-3.00743498839438">
        <ele>1296.48</ele>
        <time>2025-05-12T10:40:24Z</time>
      </trkpt>
      <trkpt lat="37.023426974192262" lon="-3.007425013929606">
        <ele>1297.9200000000001</ele>
        <time>2025-05-12T10:40:25Z</time>
      </trkpt>
      <trkpt lat="37.023304011672735" lon="-3.007400035858154">
        <ele>1298.4000000000001</ele>
        <time>2025-05-12T10:40:26Z</time>
      </trkpt>
      <trkpt lat="37.023150958120823" lon="-3.007433982565999">
        <ele>1299.3599999999999</ele>
        <time>2025-05-12T10:40:27Z</time>
      </trkpt>
      <trkpt lat="37.023013997823" lon="-3.007512018084526">
        <ele>1300.3199999999999</ele>
        <time>2025-05-12T10:40:28Z</time>
      </trkpt>
      <trkpt lat="37.022918025031686" lon="-3.007634980604053">
        <ele>1301.76</ele>
        <time>2025-05-12T10:40:29Z</time>
      </trkpt>
      <trkpt lat="37.022845018655062" lon="-3.007781999185681">
        <ele>1302.72</ele>
        <time>2025-05-12T10:40:30Z</time>
      </trkpt>
      <trkpt lat="37.022777041420341" lon="-3.007946033030748">
        <ele>1304.1700000000001</ele>
        <time>2025-05-12T10:40:31Z</time>
      </trkpt>
      <trkpt lat="37.022684002295136" lon="-3.008085004985333">
        <ele>1305.6099999999999</ele>
        <time>2025-05-12T10:40:32Z</time>
      </trkpt>
      <trkpt lat="37.022571014240384" lon="-3.008171003311873">
        <ele>1306.5699999999999</ele>
        <time>2025-05-12T10:40:33Z</time>
      </trkpt>
      <trkpt lat="37.022438999265432" lon="-3.008228000253439">
        <ele>1307.53</ele>
        <time>2025-05-12T10:40:34Z</time>
      </trkpt>
      <trkpt lat="37.022185027599335" lon="-3.008336964994669">
        <ele>1308.97</ele>
        <time>2025-05-12T10:40:36Z</time>
      </trkpt>
      <trkpt lat="37.022125013172626" lon="-3.008436961099505">
        <ele>1309.9300000000001</ele>
        <time>2025-05-12T10:40:37Z</time>
      </trkpt>
      <trkpt lat="37.022081008180976" lon="-3.008537041023374">
        <ele>1310.4100000000001</ele>
        <time>2025-05-12T10:40:38Z</time>
      </trkpt>
      <trkpt lat="37.022081008180976" lon="-3.008633013814688">
        <ele>1311.8599999999999</ele>
        <time>2025-05-12T10:40:39Z</time>
      </trkpt>
      <trkpt lat="37.022138005122542" lon="-3.008710965514183">
        <ele>1312.8199999999999</ele>
        <time>2025-05-12T10:40:40Z</time>
      </trkpt>
      <trkpt lat="37.022229032590985" lon="-3.008758993819356">
        <ele>1313.78</ele>
        <time>2025-05-12T10:40:41Z</time>
      </trkpt>
      <trkpt lat="37.022339003160596" lon="-3.008779026567936">
        <ele>1315.22</ele>
        <time>2025-05-12T10:40:42Z</time>
      </trkpt>
      <trkpt lat="37.022460959851742" lon="-3.008799981325865">
        <ele>1315.7</ele>
        <time>2025-05-12T10:40:43Z</time>
      </trkpt>
      <trkpt lat="37.022886006161571" lon="-3.008858989924192">
        <ele>1319.55</ele>
        <time>2025-05-12T10:40:46Z</time>
      </trkpt>
      <trkpt lat="37.023045010864735" lon="-3.008834011852741">
        <ele>1320.99</ele>
        <time>2025-05-12T10:40:47Z</time>
      </trkpt>
      <trkpt lat="37.023205021396279" lon="-3.008771985769272">
        <ele>1322.4300000000001</ele>
        <time>2025-05-12T10:40:48Z</time>
      </trkpt>
      <trkpt lat="37.025262024253607" lon="-3.007922982797027">
        <ele>1339.25</ele>
        <time>2025-05-12T10:41:00Z</time>
      </trkpt>
      <trkpt lat="37.026890963315964" lon="-3.007299033924937">
        <ele>1351.75</ele>
        <time>2025-05-12T10:41:10Z</time>
      </trkpt>
      <trkpt lat="37.027006968855858" lon="-3.007325017824769">
        <ele>1352.71</ele>
        <time>2025-05-12T10:41:11Z</time>
      </trkpt>
      <trkpt lat="37.027082992717624" lon="-3.007411016151309">
        <ele>1353.6700000000001</ele>
        <time>2025-05-12T10:41:12Z</time>
      </trkpt>
      <trkpt lat="37.027110988274217" lon="-3.007527021691203">
        <ele>1354.6300000000001</ele>
        <time>2025-05-12T10:41:13Z</time>
      </trkpt>
      <trkpt lat="37.027122974395752" lon="-3.007635986432433">
        <ele>1356.0799999999999</ele>
        <time>2025-05-12T10:41:14Z</time>
      </trkpt>
      <trkpt lat="37.027079975232482" lon="-3.007764983922243">
        <ele>1357.52</ele>
        <time>2025-05-12T10:41:15Z</time>
      </trkpt>
      <trkpt lat="37.026998000219464" lon="-3.007809994742274">
        <ele>1358.48</ele>
        <time>2025-05-12T10:41:16Z</time>
      </trkpt>
      <trkpt lat="37.026887023821473" lon="-3.007872020825744">
        <ele>1359.4400000000001</ele>
        <time>2025-05-12T10:41:17Z</time>
      </trkpt>
      <trkpt lat="37.026764983311296" lon="-3.007876966148615">
        <ele>1360.4000000000001</ele>
        <time>2025-05-12T10:41:18Z</time>
      </trkpt>
      <trkpt lat="37.026611007750034" lon="-3.007884006947279">
        <ele>1361.3599999999999</ele>
        <time>2025-05-12T10:41:19Z</time>
      </trkpt>
      <trkpt lat="37.026455020532012" lon="-3.007889958098531">
        <ele>1362.8099999999999</ele>
        <time>2025-05-12T10:41:20Z</time>
      </trkpt>
      <trkpt lat="37.02632300555706" lon="-3.007933041080833">
        <ele>1364.25</ele>
        <time>2025-05-12T10:41:21Z</time>
      </trkpt>
      <trkpt lat="37.026212029159069" lon="-3.008021973073483">
        <ele>1365.6900000000001</ele>
        <time>2025-05-12T10:41:22Z</time>
      </trkpt>
      <trkpt lat="37.0261309761554" lon="-3.008137978613377">
        <ele>1367.1300000000001</ele>
        <time>2025-05-12T10:41:23Z</time>
      </trkpt>
      <trkpt lat="37.026070039719343" lon="-3.008307041600347">
        <ele>1368.5699999999999</ele>
        <time>2025-05-12T10:41:24Z</time>
      </trkpt>
      <trkpt lat="37.026004996150732" lon="-3.008485995233059">
        <ele>1369.54</ele>
        <time>2025-05-12T10:41:25Z</time>
      </trkpt>
      <trkpt lat="37.025956967845559" lon="-3.00868196412921">
        <ele>1370.98</ele>
        <time>2025-05-12T10:41:26Z</time>
      </trkpt>
      <trkpt lat="37.025913968682289" lon="-3.00889796577394">
        <ele>1372.4200000000001</ele>
        <time>2025-05-12T10:41:27Z</time>
      </trkpt>
      <trkpt lat="37.025879016146064" lon="-3.009073985740542">
        <ele>1373.8599999999999</ele>
        <time>2025-05-12T10:41:28Z</time>
      </trkpt>
      <trkpt lat="37.025798968970776" lon="-3.009280012920499">
        <ele>1375.78</ele>
        <time>2025-05-12T10:41:29Z</time>
      </trkpt>
      <trkpt lat="37.025702996179461" lon="-3.009401969611645">
        <ele>1377.23</ele>
        <time>2025-05-12T10:41:30Z</time>
      </trkpt>
      <trkpt lat="37.025582967326045" lon="-3.009489979594946">
        <ele>1378.1900000000001</ele>
        <time>2025-05-12T10:41:31Z</time>
      </trkpt>
      <trkpt lat="37.025447012856603" lon="-3.009550999850035">
        <ele>1379.1500000000001</ele>
        <time>2025-05-12T10:41:32Z</time>
      </trkpt>
      <trkpt lat="37.025321032851934" lon="-3.009588969871402">
        <ele>1380.5899999999999</ele>
        <time>2025-05-12T10:41:33Z</time>
      </trkpt>
      <trkpt lat="37.02520796097815" lon="-3.009676979854703">
        <ele>1381.55</ele>
        <time>2025-05-12T10:41:34Z</time>
      </trkpt>
      <trkpt lat="37.0251190289855" lon="-3.009759960696101">
        <ele>1382.51</ele>
        <time>2025-05-12T10:41:35Z</time>
      </trkpt>
      <trkpt lat="37.025064965710044" lon="-3.009885018691421">
        <ele>1383.47</ele>
        <time>2025-05-12T10:41:36Z</time>
      </trkpt>
      <trkpt lat="37.025078041478992" lon="-3.010003035888076">
        <ele>1383.96</ele>
        <time>2025-05-12T10:41:37Z</time>
      </trkpt>
      <trkpt lat="37.025117017328739" lon="-3.010108983144164">
        <ele>1384.4400000000001</ele>
        <time>2025-05-12T10:41:38Z</time>
      </trkpt>
      <trkpt lat="37.025186000391841" lon="-3.010211996734142">
        <ele>1384.9200000000001</ele>
        <time>2025-05-12T10:41:39Z</time>
      </trkpt>
      <trkpt lat="37.025285996496677" lon="-3.010253990069032">
        <ele>1385.4000000000001</ele>
        <time>2025-05-12T10:41:40Z</time>
      </trkpt>
      <trkpt lat="37.025427985936403" lon="-3.010253990069032">
        <ele>1385.8800000000001</ele>
        <time>2025-05-12T10:41:41Z</time>
      </trkpt>
      <trkpt lat="37.025535022839904" lon="-3.010187018662691">
        <ele>1386.3599999999999</ele>
        <time>2025-05-12T10:41:42Z</time>
      </trkpt>
      <trkpt lat="37.025668965652585" lon="-3.010104037821293">
        <ele>1386.3599999999999</ele>
        <time>2025-05-12T10:41:43Z</time>
      </trkpt>
      <trkpt lat="37.025808021426201" lon="-3.010016027837992">
        <ele>1386.8399999999999</ele>
        <time>2025-05-12T10:41:44Z</time>
      </trkpt>
      <trkpt lat="37.026981990784407" lon="-3.00923902541399">
        <ele>1393.5699999999999</ele>
        <time>2025-05-12T10:41:51Z</time>
      </trkpt>
      <trkpt lat="37.027178965508938" lon="-3.009145986288786">
        <ele>1394.53</ele>
        <time>2025-05-12T10:41:52Z</time>
      </trkpt>
      <trkpt lat="37.028489978983998" lon="-3.008603006601334">
        <ele>1404.6199999999999</ele>
        <time>2025-05-12T10:41:59Z</time>
      </trkpt>
      <trkpt lat="37.028646972030401" lon="-3.008569981902838">
        <ele>1406.0699999999999</ele>
        <time>2025-05-12T10:42:00Z</time>
      </trkpt>
      <trkpt lat="37.028810000047088" lon="-3.00857400521636">
        <ele>1407.51</ele>
        <time>2025-05-12T10:42:01Z</time>
      </trkpt>
      <trkpt lat="37.028979985043406" lon="-3.008619016036391">
        <ele>1408.95</ele>
        <time>2025-05-12T10:42:02Z</time>
      </trkpt>
      <trkpt lat="37.02915801666677" lon="-3.008666038513184">
        <ele>1410.3900000000001</ele>
        <time>2025-05-12T10:42:03Z</time>
      </trkpt>
      <trkpt lat="37.029513996094465" lon="-3.008751031011343">
        <ele>1413.28</ele>
        <time>2025-05-12T10:42:05Z</time>
      </trkpt>
      <trkpt lat="37.029694961383939" lon="-3.008743990212679">
        <ele>1414.72</ele>
        <time>2025-05-12T10:42:06Z</time>
      </trkpt>
      <trkpt lat="37.029879027977586" lon="-3.008737033233047">
        <ele>1416.1600000000001</ele>
        <time>2025-05-12T10:42:07Z</time>
      </trkpt>
      <trkpt lat="37.030269037932158" lon="-3.008713982999325">
        <ele>1419.52</ele>
        <time>2025-05-12T10:42:09Z</time>
      </trkpt>
      <trkpt lat="37.03046802431345" lon="-3.008741978555918">
        <ele>1420.97</ele>
        <time>2025-05-12T10:42:10Z</time>
      </trkpt>
      <trkpt lat="37.030671034008265" lon="-3.008769974112511">
        <ele>1422.4100000000001</ele>
        <time>2025-05-12T10:42:11Z</time>
      </trkpt>
      <trkpt lat="37.032108027487993" lon="-3.008828982710838">
        <ele>1433.46</ele>
        <time>2025-05-12T10:42:18Z</time>
      </trkpt>
      <trkpt lat="37.032852005213499" lon="-3.008609963580966">
        <ele>1439.71</ele>
        <time>2025-05-12T10:42:22Z</time>
      </trkpt>
      <trkpt lat="37.033045962452888" lon="-3.008580040186644">
        <ele>1441.6300000000001</ele>
        <time>2025-05-12T10:42:23Z</time>
      </trkpt>
      <trkpt lat="37.033224999904633" lon="-3.00859403796494">
        <ele>1443.0799999999999</ele>
        <time>2025-05-12T10:42:24Z</time>
      </trkpt>
      <trkpt lat="37.034666016697884" lon="-3.008662015199661">
        <ele>1453.6500000000001</ele>
        <time>2025-05-12T10:42:31Z</time>
      </trkpt>
      <trkpt lat="37.035241015255451" lon="-3.0086600035429">
        <ele>1458.46</ele>
        <time>2025-05-12T10:42:34Z</time>
      </trkpt>
      <trkpt lat="37.035415023565292" lon="-3.008713982999325">
        <ele>1459.9000000000001</ele>
        <time>2025-05-12T10:42:35Z</time>
      </trkpt>
      <trkpt lat="37.035580985248089" lon="-3.00878799520433">
        <ele>1461.3399999999999</ele>
        <time>2025-05-12T10:42:36Z</time>
      </trkpt>
      <trkpt lat="37.035726998001337" lon="-3.008902994915843">
        <ele>1463.26</ele>
        <time>2025-05-12T10:42:37Z</time>
      </trkpt>
      <trkpt lat="37.035866975784302" lon="-3.009028974920511">
        <ele>1464.71</ele>
        <time>2025-05-12T10:42:38Z</time>
      </trkpt>
      <trkpt lat="37.035993961617351" lon="-3.009193008765578">
        <ele>1466.1500000000001</ele>
        <time>2025-05-12T10:42:39Z</time>
      </trkpt>
      <trkpt lat="37.036127988249063" lon="-3.009366011247039">
        <ele>1468.0699999999999</ele>
        <time>2025-05-12T10:42:40Z</time>
      </trkpt>
      <trkpt lat="37.036269977688789" lon="-3.009548988193274">
        <ele>1469.51</ele>
        <time>2025-05-12T10:42:41Z</time>
      </trkpt>
      <trkpt lat="37.036425964906812" lon="-3.009724002331495">
        <ele>1470.95</ele>
        <time>2025-05-12T10:42:42Z</time>
      </trkpt>
      <trkpt lat="37.036924017593265" lon="-3.010094985365868">
        <ele>1475.28</ele>
        <time>2025-05-12T10:42:45Z</time>
      </trkpt>
      <trkpt lat="37.037077993154526" lon="-3.010147036984563">
        <ele>1476.72</ele>
        <time>2025-05-12T10:42:46Z</time>
      </trkpt>
      <trkpt lat="37.037235992029309" lon="-3.010147036984563">
        <ele>1478.6500000000001</ele>
        <time>2025-05-12T10:42:47Z</time>
      </trkpt>
      <trkpt lat="37.037380998954177" lon="-3.010067995637655">
        <ele>1480.0899999999999</ele>
        <time>2025-05-12T10:42:48Z</time>
      </trkpt>
      <trkpt lat="37.037532040849328" lon="-3.009976968169212">
        <ele>1481.53</ele>
        <time>2025-05-12T10:42:49Z</time>
      </trkpt>
      <trkpt lat="37.037690039724112" lon="-3.009882001206279">
        <ele>1482.97</ele>
        <time>2025-05-12T10:42:50Z</time>
      </trkpt>
      <trkpt lat="37.038339972496033" lon="-3.009488973766565">
        <ele>1488.26</ele>
        <time>2025-05-12T10:42:54Z</time>
      </trkpt>
      <trkpt lat="37.0385040063411" lon="-3.009452009573579">
        <ele>1489.7</ele>
        <time>2025-05-12T10:42:55Z</time>
      </trkpt>
      <trkpt lat="37.038666028529406" lon="-3.009442035108805">
        <ele>1491.1400000000001</ele>
        <time>2025-05-12T10:42:56Z</time>
      </trkpt>
      <trkpt lat="37.038821009919047" lon="-3.009481010958552">
        <ele>1492.0999999999999</ele>
        <time>2025-05-12T10:42:57Z</time>
      </trkpt>
      <trkpt lat="37.038988983258605" lon="-3.009545970708132">
        <ele>1493.0599999999999</ele>
        <time>2025-05-12T10:42:58Z</time>
      </trkpt>
      <trkpt lat="37.039146982133389" lon="-3.009650995954871">
        <ele>1494.51</ele>
        <time>2025-05-12T10:42:59Z</time>
      </trkpt>
      <trkpt lat="37.039317972958088" lon="-3.009765995666385">
        <ele>1495.47</ele>
        <time>2025-05-12T10:43:00Z</time>
      </trkpt>
      <trkpt lat="37.04069696366787" lon="-3.010501004755497">
        <ele>1505.0799999999999</ele>
        <time>2025-05-12T10:43:07Z</time>
      </trkpt>
      <trkpt lat="37.041024025529623" lon="-3.010695967823267">
        <ele>1507.97</ele>
        <time>2025-05-12T10:43:09Z</time>
      </trkpt>
      <trkpt lat="37.041178001090884" lon="-3.010811973363161">
        <ele>1509.4100000000001</ele>
        <time>2025-05-12T10:43:10Z</time>
      </trkpt>
      <trkpt lat="37.042072014883161" lon="-3.012091973796487">
        <ele>1521.4200000000001</ele>
        <time>2025-05-12T10:43:17Z</time>
      </trkpt>
      <trkpt lat="37.042647013440728" lon="-3.012877022847533">
        <ele>1527.1900000000001</ele>
        <time>2025-05-12T10:43:21Z</time>
      </trkpt>
      <trkpt lat="37.042795959860086" lon="-3.013013983145356">
        <ele>1528.6300000000001</ele>
        <time>2025-05-12T10:43:22Z</time>
      </trkpt>
      <trkpt lat="37.042966028675437" lon="-3.013083972036839">
        <ele>1529.5899999999999</ele>
        <time>2025-05-12T10:43:23Z</time>
      </trkpt>
      <trkpt lat="37.043146993964911" lon="-3.013113979250193">
        <ele>1530.5599999999999</ele>
        <time>2025-05-12T10:43:24Z</time>
      </trkpt>
      <trkpt lat="37.043332988396287" lon="-3.013134011998773">
        <ele>1532</ele>
        <time>2025-05-12T10:43:25Z</time>
      </trkpt>
      <trkpt lat="37.043520994484425" lon="-3.013142980635166">
        <ele>1533.4400000000001</ele>
        <time>2025-05-12T10:43:26Z</time>
      </trkpt>
      <trkpt lat="37.043688967823982" lon="-3.013151027262211">
        <ele>1534.8800000000001</ele>
        <time>2025-05-12T10:43:27Z</time>
      </trkpt>
      <trkpt lat="37.043891977518797" lon="-3.013217998668551">
        <ele>1535.8399999999999</ele>
        <time>2025-05-12T10:43:28Z</time>
      </trkpt>
      <trkpt lat="37.044074032455683" lon="-3.013285975903273">
        <ele>1536.8</ele>
        <time>2025-05-12T10:43:29Z</time>
      </trkpt>
      <trkpt lat="37.044249968603253" lon="-3.013380020856857">
        <ele>1537.29</ele>
        <time>2025-05-12T10:43:30Z</time>
      </trkpt>
      <trkpt lat="37.044421965256333" lon="-3.013514969497919">
        <ele>1538.25</ele>
        <time>2025-05-12T10:43:31Z</time>
      </trkpt>
      <trkpt lat="37.044597985222936" lon="-3.013653019443154">
        <ele>1539.21</ele>
        <time>2025-05-12T10:43:32Z</time>
      </trkpt>
      <trkpt lat="37.04477802850306" lon="-3.01379500888288">
        <ele>1540.1700000000001</ele>
        <time>2025-05-12T10:43:33Z</time>
      </trkpt>
      <trkpt lat="37.046160036697984" lon="-3.014918016269803">
        <ele>1546.9000000000001</ele>
        <time>2025-05-12T10:43:40Z</time>
      </trkpt>
      <trkpt lat="37.047961978241801" lon="-3.016101038083434">
        <ele>1555.55</ele>
        <time>2025-05-12T10:43:48Z</time>
      </trkpt>
      <trkpt lat="37.049599969759583" lon="-3.016742002218962">
        <ele>1566.1199999999999</ele>
        <time>2025-05-12T10:43:55Z</time>
      </trkpt>
      <trkpt lat="37.050026021897793" lon="-3.016878040507436">
        <ele>1569.01</ele>
        <time>2025-05-12T10:43:57Z</time>
      </trkpt>
      <trkpt lat="37.050233976915479" lon="-3.016907041892409">
        <ele>1570.9300000000001</ele>
        <time>2025-05-12T10:43:58Z</time>
      </trkpt>
      <trkpt lat="37.050448972731829" lon="-3.016921961680055">
        <ele>1572.8499999999999</ele>
        <time>2025-05-12T10:43:59Z</time>
      </trkpt>
      <trkpt lat="37.051295964047313" lon="-3.016891032457352">
        <ele>1579.5799999999999</ele>
        <time>2025-05-12T10:44:03Z</time>
      </trkpt>
      <trkpt lat="37.051476007327437" lon="-3.016943000257015">
        <ele>1581.03</ele>
        <time>2025-05-12T10:44:04Z</time>
      </trkpt>
      <trkpt lat="37.051841961219907" lon="-3.017104016616941">
        <ele>1583.4300000000001</ele>
        <time>2025-05-12T10:44:06Z</time>
      </trkpt>
      <trkpt lat="37.052025021985173" lon="-3.017159001901746">
        <ele>1584.3900000000001</ele>
        <time>2025-05-12T10:44:07Z</time>
      </trkpt>
      <trkpt lat="37.052215039730072" lon="-3.01716897636652">
        <ele>1585.8299999999999</ele>
        <time>2025-05-12T10:44:08Z</time>
      </trkpt>
      <trkpt lat="37.052402961999178" lon="-3.017110973596573">
        <ele>1586.79</ele>
        <time>2025-05-12T10:44:09Z</time>
      </trkpt>
      <trkpt lat="37.052603960037231" lon="-3.017049031332135">
        <ele>1588.72</ele>
        <time>2025-05-12T10:44:10Z</time>
      </trkpt>
      <trkpt lat="37.054096022620797" lon="-3.016641000285745">
        <ele>1600.73</ele>
        <time>2025-05-12T10:44:18Z</time>
      </trkpt>
      <trkpt lat="37.054290985688567" lon="-3.016636976972222">
        <ele>1602.1700000000001</ele>
        <time>2025-05-12T10:44:19Z</time>
      </trkpt>
      <trkpt lat="37.054486032575369" lon="-3.016664972528815">
        <ele>1603.6199999999999</ele>
        <time>2025-05-12T10:44:20Z</time>
      </trkpt>
      <trkpt lat="37.054687030613422" lon="-3.016694979742169">
        <ele>1605.0599999999999</ele>
        <time>2025-05-12T10:44:21Z</time>
      </trkpt>
      <trkpt lat="37.055496973916888" lon="-3.016862031072378">
        <ele>1609.8599999999999</ele>
        <time>2025-05-12T10:44:25Z</time>
      </trkpt>
      <trkpt lat="37.055701995268464" lon="-3.016839986667037">
        <ele>1611.3099999999999</ele>
        <time>2025-05-12T10:44:26Z</time>
      </trkpt>
      <trkpt lat="37.056503975763917" lon="-3.016800004988909">
        <ele>1617.5599999999999</ele>
        <time>2025-05-12T10:44:30Z</time>
      </trkpt>
      <trkpt lat="37.057074028998613" lon="-3.01682498306036">
        <ele>1622.3599999999999</ele>
        <time>2025-05-12T10:44:33Z</time>
      </trkpt>
      <trkpt lat="37.057247031480074" lon="-3.016807967796922">
        <ele>1624.28</ele>
        <time>2025-05-12T10:44:34Z</time>
      </trkpt>
      <trkpt lat="37.057418022304773" lon="-3.01678198389709">
        <ele>1625.73</ele>
        <time>2025-05-12T10:44:35Z</time>
      </trkpt>
      <trkpt lat="37.057592030614614" lon="-3.016763962805271">
        <ele>1627.6500000000001</ele>
        <time>2025-05-12T10:44:36Z</time>
      </trkpt>
      <trkpt lat="37.057770984247327" lon="-3.016797993332148">
        <ele>1629.5699999999999</ele>
        <time>2025-05-12T10:44:37Z</time>
      </trkpt>
      <trkpt lat="37.057952033355832" lon="-3.016833029687405">
        <ele>1631.01</ele>
        <time>2025-05-12T10:44:38Z</time>
      </trkpt>
      <trkpt lat="37.058129981160164" lon="-3.01686798222363">
        <ele>1632.46</ele>
        <time>2025-05-12T10:44:39Z</time>
      </trkpt>
      <trkpt lat="37.058300971984863" lon="-3.016944006085396">
        <ele>1633.9000000000001</ele>
        <time>2025-05-12T10:44:40Z</time>
      </trkpt>
      <trkpt lat="37.05846500582993" lon="-3.01706001162529">
        <ele>1635.8199999999999</ele>
        <time>2025-05-12T10:44:41Z</time>
      </trkpt>
      <trkpt lat="37.058776980265975" lon="-3.017280036583543">
        <ele>1639.1900000000001</ele>
        <time>2025-05-12T10:44:43Z</time>
      </trkpt>
      <trkpt lat="37.058933973312378" lon="-3.017353964969516">
        <ele>1640.6300000000001</ele>
        <time>2025-05-12T10:44:44Z</time>
      </trkpt>
      <trkpt lat="37.059099012985826" lon="-3.017399981617928">
        <ele>1642.0699999999999</ele>
        <time>2025-05-12T10:44:45Z</time>
      </trkpt>
      <trkpt lat="37.059448035433888" lon="-3.01746997050941">
        <ele>1645.4300000000001</ele>
        <time>2025-05-12T10:44:47Z</time>
      </trkpt>
      <trkpt lat="37.059626989066601" lon="-3.017528979107738">
        <ele>1646.8800000000001</ele>
        <time>2025-05-12T10:44:48Z</time>
      </trkpt>
      <trkpt lat="37.059997972100973" lon="-3.017650013789535">
        <ele>1649.76</ele>
        <time>2025-05-12T10:44:50Z</time>
      </trkpt>
      <trkpt lat="37.060190001502633" lon="-3.017697036266327">
        <ele>1650.72</ele>
        <time>2025-05-12T10:44:51Z</time>
      </trkpt>
      <trkpt lat="37.061118967831135" lon="-3.017908008769155">
        <ele>1657.9300000000001</ele>
        <time>2025-05-12T10:44:56Z</time>
      </trkpt>
      <trkpt lat="37.061301022768021" lon="-3.017870960757136">
        <ele>1659.8499999999999</ele>
        <time>2025-05-12T10:44:57Z</time>
      </trkpt>
      <trkpt lat="37.062863996252418" lon="-3.017513975501061">
        <ele>1668.51</ele>
        <time>2025-05-12T10:45:05Z</time>
      </trkpt>
      <trkpt lat="37.063029035925865" lon="-3.017399981617928">
        <ele>1669.47</ele>
        <time>2025-05-12T10:45:06Z</time>
      </trkpt>
      <trkpt lat="37.063186028972268" lon="-3.01727500744164">
        <ele>1670.4300000000001</ele>
        <time>2025-05-12T10:45:07Z</time>
      </trkpt>
      <trkpt lat="37.063345033675432" lon="-3.017149027436972">
        <ele>1670.9100000000001</ele>
        <time>2025-05-12T10:45:08Z</time>
      </trkpt>
      <trkpt lat="37.063501020893455" lon="-3.017024975270033">
        <ele>1671.3900000000001</ele>
        <time>2025-05-12T10:45:09Z</time>
      </trkpt>
      <trkpt lat="37.0636229775846" lon="-3.016926990821958">
        <ele>1672.3499999999999</ele>
        <time>2025-05-12T10:45:10Z</time>
      </trkpt>
      <trkpt lat="37.063788017258048" lon="-3.016872005537152">
        <ele>1672.8299999999999</ele>
        <time>2025-05-12T10:45:11Z</time>
      </trkpt>
      <trkpt lat="37.063921960070729" lon="-3.016881980001926">
        <ele>1673.3099999999999</ele>
        <time>2025-05-12T10:45:12Z</time>
      </trkpt>
      <trkpt lat="37.064081970602274" lon="-3.0169109813869">
        <ele>1673.79</ele>
        <time>2025-05-12T10:45:13Z</time>
      </trkpt>
      <trkpt lat="37.064253967255354" lon="-3.016943000257015">
        <ele>1674.27</ele>
        <time>2025-05-12T10:45:14Z</time>
      </trkpt>
      <trkpt lat="37.064431998878717" lon="-3.017006032168865">
        <ele>1674.75</ele>
        <time>2025-05-12T10:45:15Z</time>
      </trkpt>
      <trkpt lat="37.065158039331436" lon="-3.017313983291388">
        <ele>1676.2</ele>
        <time>2025-05-12T10:45:19Z</time>
      </trkpt>
      <trkpt lat="37.065324001014233" lon="-3.01740400493145">
        <ele>1676.2</ele>
        <time>2025-05-12T10:45:20Z</time>
      </trkpt>
      <trkpt lat="37.065476970747113" lon="-3.017487991601229">
        <ele>1676.6800000000001</ele>
        <time>2025-05-12T10:45:21Z</time>
      </trkpt>
      <trkpt lat="37.065618960186839" lon="-3.017534008249641">
        <ele>1677.1600000000001</ele>
        <time>2025-05-12T10:45:22Z</time>
      </trkpt>
      <trkpt lat="37.065759021788836" lon="-3.017517998814583">
        <ele>1677.6400000000001</ele>
        <time>2025-05-12T10:45:23Z</time>
      </trkpt>
      <trkpt lat="37.0658989995718" lon="-3.017459996044636">
        <ele>1677.6400000000001</ele>
        <time>2025-05-12T10:45:24Z</time>
      </trkpt>
      <trkpt lat="37.066043000668287" lon="-3.017379026859999">
        <ele>1678.5999999999999</ele>
        <time>2025-05-12T10:45:25Z</time>
      </trkpt>
      <trkpt lat="37.066192030906677" lon="-3.017286993563175">
        <ele>1679.0799999999999</ele>
        <time>2025-05-12T10:45:26Z</time>
      </trkpt>
      <trkpt lat="37.066794019192457" lon="-3.016970995813608">
        <ele>1681.96</ele>
        <time>2025-05-12T10:45:30Z</time>
      </trkpt>
      <trkpt lat="37.066936008632183" lon="-3.016966972500086">
        <ele>1682.4400000000001</ele>
        <time>2025-05-12T10:45:31Z</time>
      </trkpt>
      <trkpt lat="37.067085038870573" lon="-3.016994968056679">
        <ele>1683.4100000000001</ele>
        <time>2025-05-12T10:45:32Z</time>
      </trkpt>
      <trkpt lat="37.067245971411467" lon="-3.017025981098414">
        <ele>1683.8900000000001</ele>
        <time>2025-05-12T10:45:33Z</time>
      </trkpt>
      <trkpt lat="37.067412016913295" lon="-3.017079038545489">
        <ele>1684.8499999999999</ele>
        <time>2025-05-12T10:45:34Z</time>
      </trkpt>
      <trkpt lat="37.068943977355957" lon="-3.01742697134614">
        <ele>1693.5</ele>
        <time>2025-05-12T10:45:43Z</time>
      </trkpt>
      <trkpt lat="37.070274017751217" lon="-3.017544988542795">
        <ele>1702.6300000000001</ele>
        <time>2025-05-12T10:45:51Z</time>
      </trkpt>
      <trkpt lat="37.070446014404297" lon="-3.017570972442627">
        <ele>1703.5899999999999</ele>
        <time>2025-05-12T10:45:52Z</time>
      </trkpt>
      <trkpt lat="37.07088396884501" lon="-3.017772976309061">
        <ele>1706</ele>
        <time>2025-05-12T10:45:55Z</time>
      </trkpt>
      <trkpt lat="37.070992011576891" lon="-3.017881019040942">
        <ele>1706.48</ele>
        <time>2025-05-12T10:45:56Z</time>
      </trkpt>
      <trkpt lat="37.071106005460024" lon="-3.017994007095695">
        <ele>1706.96</ele>
        <time>2025-05-12T10:45:57Z</time>
      </trkpt>
      <trkpt lat="37.071344973519444" lon="-3.018233980983496">
        <ele>1707.9200000000001</ele>
        <time>2025-05-12T10:45:59Z</time>
      </trkpt>
      <trkpt lat="37.071490986272693" lon="-3.018311010673642">
        <ele>1708.4000000000001</ele>
        <time>2025-05-12T10:46:00Z</time>
      </trkpt>
      <trkpt lat="37.071650996804237" lon="-3.018360966816545">
        <ele>1708.8800000000001</ele>
        <time>2025-05-12T10:46:01Z</time>
      </trkpt>
      <trkpt lat="37.071963977068663" lon="-3.018460040912032">
        <ele>1709.3599999999999</ele>
        <time>2025-05-12T10:46:03Z</time>
      </trkpt>
      <trkpt lat="37.072121975943446" lon="-3.018509997054935">
        <ele>1710.3199999999999</ele>
        <time>2025-05-12T10:46:04Z</time>
      </trkpt>
      <trkpt lat="37.072276035323739" lon="-3.018594989553094">
        <ele>1710.3199999999999</ele>
        <time>2025-05-12T10:46:05Z</time>
      </trkpt>
      <trkpt lat="37.072425987571478" lon="-3.018719041720033">
        <ele>1710.8</ele>
        <time>2025-05-12T10:46:06Z</time>
      </trkpt>
      <trkpt lat="37.07258096896112" lon="-3.018847033381462">
        <ele>1711.28</ele>
        <time>2025-05-12T10:46:07Z</time>
      </trkpt>
      <trkpt lat="37.073088996112347" lon="-3.019366040825844">
        <ele>1713.21</ele>
        <time>2025-05-12T10:46:11Z</time>
      </trkpt>
      <trkpt lat="37.073129983618855" lon="-3.019520016387105">
        <ele>1714.6500000000001</ele>
        <time>2025-05-12T10:46:12Z</time>
      </trkpt>
      <trkpt lat="37.073163008317351" lon="-3.019701987504959">
        <ele>1715.6099999999999</ele>
        <time>2025-05-12T10:46:13Z</time>
      </trkpt>
      <trkpt lat="37.073336010798812" lon="-3.020650986582041">
        <ele>1719.9400000000001</ele>
        <time>2025-05-12T10:46:18Z</time>
      </trkpt>
      <trkpt lat="37.073359983041883" lon="-3.020784007385373">
        <ele>1720.9000000000001</ele>
        <time>2025-05-12T10:46:19Z</time>
      </trkpt>
      <trkpt lat="37.073427038267255" lon="-3.020846033468843">
        <ele>1722.3399999999999</ele>
        <time>2025-05-12T10:46:20Z</time>
      </trkpt>
      <trkpt lat="37.073497027158737" lon="-3.02088500931859">
        <ele>1722.8199999999999</ele>
        <time>2025-05-12T10:46:21Z</time>
      </trkpt>
      <trkpt lat="37.0735680218786" lon="-3.020913004875183">
        <ele>1723.78</ele>
        <time>2025-05-12T10:46:22Z</time>
      </trkpt>
      <trkpt lat="37.073635999113321" lon="-3.020875034853816">
        <ele>1724.74</ele>
        <time>2025-05-12T10:46:23Z</time>
      </trkpt>
      <trkpt lat="37.073700036853552" lon="-3.020838992670178">
        <ele>1725.7</ele>
        <time>2025-05-12T10:46:24Z</time>
      </trkpt>
      <trkpt lat="37.07376197911799" lon="-3.020804962143302">
        <ele>1726.6700000000001</ele>
        <time>2025-05-12T10:46:25Z</time>
      </trkpt>
      <trkpt lat="37.073814030736685" lon="-3.02077503874898">
        <ele>1727.6300000000001</ele>
        <time>2025-05-12T10:46:26Z</time>
      </trkpt>
      <trkpt lat="37.073958031833172" lon="-3.020709995180368">
        <ele>1731.47</ele>
        <time>2025-05-12T10:46:34Z</time>
      </trkpt>
      <trkpt lat="37.07402097992599" lon="-3.02069297991693">
        <ele>1732.4300000000001</ele>
        <time>2025-05-12T10:47:09Z</time>
      </trkpt>
      <trkpt lat="37.074136985465884" lon="-3.020660961046815">
        <ele>1733.3900000000001</ele>
        <time>2025-05-12T10:47:10Z</time>
      </trkpt>
      <trkpt lat="37.07419197075069" lon="-3.020666996017098">
        <ele>1734.3599999999999</ele>
        <time>2025-05-12T10:47:11Z</time>
      </trkpt>
      <trkpt lat="37.074330020695925" lon="-3.020681999623776">
        <ele>1734.8399999999999</ele>
        <time>2025-05-12T10:47:12Z</time>
      </trkpt>
      <trkpt lat="37.074461029842496" lon="-3.020732961595058">
        <ele>1735.8</ele>
        <time>2025-05-12T10:47:13Z</time>
      </trkpt>
      <trkpt lat="37.075613038614392" lon="-3.021137975156307">
        <ele>1740.5999999999999</ele>
        <time>2025-05-12T10:47:19Z</time>
      </trkpt>
      <trkpt lat="37.075805990025401" lon="-3.021145015954971">
        <ele>1741.5699999999999</ele>
        <time>2025-05-12T10:47:20Z</time>
      </trkpt>
      <trkpt lat="37.075987039133906" lon="-3.021151972934604">
        <ele>1742.53</ele>
        <time>2025-05-12T10:47:21Z</time>
      </trkpt>
      <trkpt lat="37.076149983331561" lon="-3.0211849976331">
        <ele>1743.01</ele>
        <time>2025-05-12T10:47:22Z</time>
      </trkpt>
      <trkpt lat="37.076292978599668" lon="-3.021240988746285">
        <ele>1744.45</ele>
        <time>2025-05-12T10:47:23Z</time>
      </trkpt>
      <trkpt lat="37.076420970261097" lon="-3.021338973194361">
        <ele>1744.9300000000001</ele>
        <time>2025-05-12T10:47:24Z</time>
      </trkpt>
      <trkpt lat="37.076519038528204" lon="-3.021468976512551">
        <ele>1746.3699999999999</ele>
        <time>2025-05-12T10:47:25Z</time>
      </trkpt>
      <trkpt lat="37.076609982177615" lon="-3.021590011194348">
        <ele>1747.3299999999999</ele>
        <time>2025-05-12T10:47:26Z</time>
      </trkpt>
      <trkpt lat="37.076689023524523" lon="-3.021685983985663">
        <ele>1748.29</ele>
        <time>2025-05-12T10:47:27Z</time>
      </trkpt>
      <trkpt lat="37.076777033507824" lon="-3.021758990362287">
        <ele>1748.78</ele>
        <time>2025-05-12T10:47:28Z</time>
      </trkpt>
      <trkpt lat="37.076864959672093" lon="-3.021757984533906">
        <ele>1749.74</ele>
        <time>2025-05-12T10:47:29Z</time>
      </trkpt>
      <trkpt lat="37.076969984918833" lon="-3.021727977320552">
        <ele>1750.7</ele>
        <time>2025-05-12T10:47:30Z</time>
      </trkpt>
      <trkpt lat="37.077097976580262" lon="-3.021691013127565">
        <ele>1751.6600000000001</ele>
        <time>2025-05-12T10:47:31Z</time>
      </trkpt>
      <trkpt lat="37.077201995998621" lon="-3.021655976772308">
        <ele>1752.6199999999999</ele>
        <time>2025-05-12T10:47:32Z</time>
      </trkpt>
      <trkpt lat="37.077312972396612" lon="-3.021620018407702">
        <ele>1754.0599999999999</ele>
        <time>2025-05-12T10:47:33Z</time>
      </trkpt>
      <trkpt lat="37.077431995421648" lon="-3.02163502201438">
        <ele>1755.02</ele>
        <time>2025-05-12T10:47:34Z</time>
      </trkpt>
      <trkpt lat="37.077542971819639" lon="-3.021680032834411">
        <ele>1755.99</ele>
        <time>2025-05-12T10:47:35Z</time>
      </trkpt>
      <trkpt lat="37.077636010944843" lon="-3.021783968433738">
        <ele>1756.95</ele>
        <time>2025-05-12T10:47:36Z</time>
      </trkpt>
      <trkpt lat="37.077722009271383" lon="-3.021910032257438">
        <ele>1757.9100000000001</ele>
        <time>2025-05-12T10:47:37Z</time>
      </trkpt>
      <trkpt lat="37.077766014263034" lon="-3.022068031132221">
        <ele>1758.8699999999999</ele>
        <time>2025-05-12T10:47:38Z</time>
      </trkpt>
      <trkpt lat="37.077807001769543" lon="-3.022214965894818">
        <ele>1760.3099999999999</ele>
        <time>2025-05-12T10:47:39Z</time>
      </trkpt>
      <trkpt lat="37.07786601036787" lon="-3.022323008626699">
        <ele>1760.79</ele>
        <time>2025-05-12T10:47:40Z</time>
      </trkpt>
      <trkpt lat="37.07795200869441" lon="-3.022395009174943">
        <ele>1761.75</ele>
        <time>2025-05-12T10:47:41Z</time>
      </trkpt>
      <trkpt lat="37.078040018677711" lon="-3.022368019446731">
        <ele>1762.71</ele>
        <time>2025-05-12T10:47:42Z</time>
      </trkpt>
      <trkpt lat="37.078128028661013" lon="-3.022334994748235">
        <ele>1763.6800000000001</ele>
        <time>2025-05-12T10:47:43Z</time>
      </trkpt>
      <trkpt lat="37.07820899784565" lon="-3.022233992815018">
        <ele>1764.6400000000001</ele>
        <time>2025-05-12T10:47:44Z</time>
      </trkpt>
      <trkpt lat="37.078293990343809" lon="-3.022127039730549">
        <ele>1765.1199999999999</ele>
        <time>2025-05-12T10:47:45Z</time>
      </trkpt>
      <trkpt lat="37.0784049667418" lon="-3.022059984505177">
        <ele>1765.5999999999999</ele>
        <time>2025-05-12T10:47:46Z</time>
      </trkpt>
      <trkpt lat="37.078527007251978" lon="-3.022058978676796">
        <ele>1766.0799999999999</ele>
        <time>2025-05-12T10:47:47Z</time>
      </trkpt>
      <trkpt lat="37.078656004741788" lon="-3.022100972011685">
        <ele>1766.0799999999999</ele>
        <time>2025-05-12T10:47:48Z</time>
      </trkpt>
      <trkpt lat="37.078801011666656" lon="-3.022147994488478">
        <ele>1766.5599999999999</ele>
        <time>2025-05-12T10:47:49Z</time>
      </trkpt>
      <trkpt lat="37.079130001366138" lon="-3.022255031391978">
        <ele>1767.52</ele>
        <time>2025-05-12T10:47:51Z</time>
      </trkpt>
      <trkpt lat="37.079308032989502" lon="-3.022313034161925">
        <ele>1768</ele>
        <time>2025-05-12T10:47:52Z</time>
      </trkpt>
      <trkpt lat="37.080923980101943" lon="-3.022603970021009">
        <ele>1776.6500000000001</ele>
        <time>2025-05-12T10:48:00Z</time>
      </trkpt>
      <trkpt lat="37.083049966022372" lon="-3.023189026862383">
        <ele>1791.0699999999999</ele>
        <time>2025-05-12T10:48:10Z</time>
      </trkpt>
      <trkpt lat="37.08366603590548" lon="-3.023473005741835">
        <ele>1796.3599999999999</ele>
        <time>2025-05-12T10:48:13Z</time>
      </trkpt>
      <trkpt lat="37.08385999314487" lon="-3.023602003231645">
        <ele>1797.8</ele>
        <time>2025-05-12T10:48:14Z</time>
      </trkpt>
      <trkpt lat="37.084055040031672" lon="-3.023732006549835">
        <ele>1799.24</ele>
        <time>2025-05-12T10:48:15Z</time>
      </trkpt>
      <trkpt lat="37.084808992221951" lon="-3.024285966530442">
        <ele>1805.49</ele>
        <time>2025-05-12T10:48:19Z</time>
      </trkpt>
      <trkpt lat="37.0855369605124" lon="-3.02464697510004">
        <ele>1811.74</ele>
        <time>2025-05-12T10:48:23Z</time>
      </trkpt>
      <trkpt lat="37.085694037377834" lon="-3.024672958999872">
        <ele>1812.7</ele>
        <time>2025-05-12T10:48:24Z</time>
      </trkpt>
      <trkpt lat="37.085852958261967" lon="-3.024668013677001">
        <ele>1814.1500000000001</ele>
        <time>2025-05-12T10:48:25Z</time>
      </trkpt>
      <trkpt lat="37.086572963744402" lon="-3.024600958451629">
        <ele>1818.95</ele>
        <time>2025-05-12T10:48:29Z</time>
      </trkpt>
      <trkpt lat="37.086755018681288" lon="-3.02460397593677">
        <ele>1820.3900000000001</ele>
        <time>2025-05-12T10:48:30Z</time>
      </trkpt>
      <trkpt lat="37.086933972314" lon="-3.024672036990523">
        <ele>1821.3499999999999</ele>
        <time>2025-05-12T10:48:31Z</time>
      </trkpt>
      <trkpt lat="37.087114015594125" lon="-3.024740014225245">
        <ele>1822.8</ele>
        <time>2025-05-12T10:48:32Z</time>
      </trkpt>
      <trkpt lat="37.087295986711979" lon="-3.024808997288346">
        <ele>1824.24</ele>
        <time>2025-05-12T10:48:33Z</time>
      </trkpt>
      <trkpt lat="37.087616007775068" lon="-3.024978982284665">
        <ele>1826.6400000000001</ele>
        <time>2025-05-12T10:48:35Z</time>
      </trkpt>
      <trkpt lat="37.087751962244511" lon="-3.02509599365294">
        <ele>1828.0799999999999</ele>
        <time>2025-05-12T10:48:36Z</time>
      </trkpt>
      <trkpt lat="37.087862016633153" lon="-3.025259021669626">
        <ele>1830.01</ele>
        <time>2025-05-12T10:48:37Z</time>
      </trkpt>
      <trkpt lat="37.088093021884561" lon="-3.025597985833883">
        <ele>1832.8900000000001</ele>
        <time>2025-05-12T10:48:39Z</time>
      </trkpt>
      <trkpt lat="37.089238995686173" lon="-3.026929032057524">
        <ele>1845.8699999999999</ele>
        <time>2025-05-12T10:48:47Z</time>
      </trkpt>
      <trkpt lat="37.089463965967298" lon="-3.027220973744988">
        <ele>1848.75</ele>
        <time>2025-05-12T10:48:49Z</time>
      </trkpt>
      <trkpt lat="37.089552981778979" lon="-3.027386013418436">
        <ele>1850.6800000000001</ele>
        <time>2025-05-12T10:48:50Z</time>
      </trkpt>
      <trkpt lat="37.090296037495136" lon="-3.02859602496028">
        <ele>1861.25</ele>
        <time>2025-05-12T10:48:57Z</time>
      </trkpt>
      <trkpt lat="37.090738015249372" lon="-3.029022999107838">
        <ele>1867.02</ele>
        <time>2025-05-12T10:49:01Z</time>
      </trkpt>
      <trkpt lat="37.090809009969234" lon="-3.029067004099488">
        <ele>1867.98</ele>
        <time>2025-05-12T10:49:02Z</time>
      </trkpt>
      <trkpt lat="37.090872963890433" lon="-3.029050994664431">
        <ele>1869.4200000000001</ele>
        <time>2025-05-12T10:49:03Z</time>
      </trkpt>
      <trkpt lat="37.090915041044354" lon="-3.028955021873117">
        <ele>1870.8599999999999</ele>
        <time>2025-05-12T10:49:04Z</time>
      </trkpt>
      <trkpt lat="37.090931972488761" lon="-3.028851002454758">
        <ele>1871.8199999999999</ele>
        <time>2025-05-12T10:49:05Z</time>
      </trkpt>
      <trkpt lat="37.090915041044354" lon="-3.028723010793328">
        <ele>1872.3</ele>
        <time>2025-05-12T10:49:06Z</time>
      </trkpt>
      <trkpt lat="37.090858966112137" lon="-3.028598036617041">
        <ele>1872.79</ele>
        <time>2025-05-12T10:49:07Z</time>
      </trkpt>
      <trkpt lat="37.090791994705796" lon="-3.028449006378651">
        <ele>1872.79</ele>
        <time>2025-05-12T10:49:08Z</time>
      </trkpt>
      <trkpt lat="37.090638019144535" lon="-3.028107024729252">
        <ele>1874.23</ele>
        <time>2025-05-12T10:49:10Z</time>
      </trkpt>
      <trkpt lat="37.090590996667743" lon="-3.027918012812734">
        <ele>1874.71</ele>
        <time>2025-05-12T10:49:11Z</time>
      </trkpt>
      <trkpt lat="37.090544980019331" lon="-3.027706034481525">
        <ele>1876.1500000000001</ele>
        <time>2025-05-12T10:49:12Z</time>
      </trkpt>
      <trkpt lat="37.090401984751225" lon="-3.026475990191102">
        <ele>1883.8399999999999</ele>
        <time>2025-05-12T10:49:18Z</time>
      </trkpt>
      <trkpt lat="37.09041497670114" lon="-3.026315979659557">
        <ele>1885.28</ele>
        <time>2025-05-12T10:49:19Z</time>
      </trkpt>
      <trkpt lat="37.090438026934862" lon="-3.026196034625173">
        <ele>1886.24</ele>
        <time>2025-05-12T10:49:20Z</time>
      </trkpt>
      <trkpt lat="37.090509021654725" lon="-3.026090003550053">
        <ele>1887.6900000000001</ele>
        <time>2025-05-12T10:49:21Z</time>
      </trkpt>
      <trkpt lat="37.090612035244703" lon="-3.026012973859906">
        <ele>1889.1300000000001</ele>
        <time>2025-05-12T10:49:22Z</time>
      </trkpt>
      <trkpt lat="37.090727034956217" lon="-3.025925969704986">
        <ele>1890.0899999999999</ele>
        <time>2025-05-12T10:49:23Z</time>
      </trkpt>
      <trkpt lat="37.091592969372869" lon="-3.02524896338582">
        <ele>1897.3</ele>
        <time>2025-05-12T10:49:29Z</time>
      </trkpt>
      <trkpt lat="37.091729007661343" lon="-3.0251170322299">
        <ele>1898.74</ele>
        <time>2025-05-12T10:49:30Z</time>
      </trkpt>
      <trkpt lat="37.091835038736463" lon="-3.024948975071311">
        <ele>1899.7</ele>
        <time>2025-05-12T10:49:31Z</time>
      </trkpt>
      <trkpt lat="37.091942997649312" lon="-3.024778990074992">
        <ele>1901.6300000000001</ele>
        <time>2025-05-12T10:49:32Z</time>
      </trkpt>
      <trkpt lat="37.092040982097387" lon="-3.024592995643616">
        <ele>1902.5899999999999</ele>
        <time>2025-05-12T10:49:33Z</time>
      </trkpt>
      <trkpt lat="37.092285985127091" lon="-3.024006010964513">
        <ele>1906.9100000000001</ele>
        <time>2025-05-12T10:49:36Z</time>
      </trkpt>
      <trkpt lat="37.092396039515734" lon="-3.023827979341149">
        <ele>1908.3499999999999</ele>
        <time>2025-05-12T10:49:37Z</time>
      </trkpt>
      <trkpt lat="37.092516990378499" lon="-3.023661011829972">
        <ele>1909.8</ele>
        <time>2025-05-12T10:49:38Z</time>
      </trkpt>
      <trkpt lat="37.092640958726406" lon="-3.02350795827806">
        <ele>1911.24</ele>
        <time>2025-05-12T10:49:39Z</time>
      </trkpt>
      <trkpt lat="37.092771967872977" lon="-3.02337602712214">
        <ele>1912.6800000000001</ele>
        <time>2025-05-12T10:49:40Z</time>
      </trkpt>
      <trkpt lat="37.092912029474974" lon="-3.023272007703781">
        <ele>1914.1199999999999</ele>
        <time>2025-05-12T10:49:41Z</time>
      </trkpt>
      <trkpt lat="37.093069022521377" lon="-3.023201012983918">
        <ele>1915.5599999999999</ele>
        <time>2025-05-12T10:49:42Z</time>
      </trkpt>
      <trkpt lat="37.09322601556778" lon="-3.023130018264055">
        <ele>1917.01</ele>
        <time>2025-05-12T10:49:43Z</time>
      </trkpt>
      <trkpt lat="37.093388037756085" lon="-3.023079978302121">
        <ele>1918.45</ele>
        <time>2025-05-12T10:49:44Z</time>
      </trkpt>
      <trkpt lat="37.093561040237546" lon="-3.023044019937515">
        <ele>1919.8900000000001</ele>
        <time>2025-05-12T10:49:45Z</time>
      </trkpt>
      <trkpt lat="37.0937430113554" lon="-3.023056006059051">
        <ele>1921.3299999999999</ele>
        <time>2025-05-12T10:49:46Z</time>
      </trkpt>
      <trkpt lat="37.093931017443538" lon="-3.023067992180586">
        <ele>1922.77</ele>
        <time>2025-05-12T10:49:47Z</time>
      </trkpt>
      <trkpt lat="37.09449402987957" lon="-3.023117026314139">
        <ele>1927.0999999999999</ele>
        <time>2025-05-12T10:49:50Z</time>
      </trkpt>
      <trkpt lat="37.094679018482566" lon="-3.023175029084086">
        <ele>1928.0599999999999</ele>
        <time>2025-05-12T10:49:51Z</time>
      </trkpt>
      <trkpt lat="37.09486098960042" lon="-3.023251974955201">
        <ele>1929.5</ele>
        <time>2025-05-12T10:49:52Z</time>
      </trkpt>
      <trkpt lat="37.095967987552285" lon="-3.023765031248331">
        <ele>1939.5999999999999</ele>
        <time>2025-05-12T10:49:58Z</time>
      </trkpt>
      <trkpt lat="37.096158005297184" lon="-3.023800989612937">
        <ele>1941.52</ele>
        <time>2025-05-12T10:49:59Z</time>
      </trkpt>
      <trkpt lat="37.09634399972856" lon="-3.023837031796575">
        <ele>1942.96</ele>
        <time>2025-05-12T10:50:00Z</time>
      </trkpt>
      <trkpt lat="37.096530999988317" lon="-3.023837031796575">
        <ele>1944.8800000000001</ele>
        <time>2025-05-12T10:50:01Z</time>
      </trkpt>
      <trkpt lat="37.096712971106172" lon="-3.023786991834641">
        <ele>1946.3299999999999</ele>
        <time>2025-05-12T10:50:02Z</time>
      </trkpt>
      <trkpt lat="37.096892008557916" lon="-3.023738041520119">
        <ele>1948.25</ele>
        <time>2025-05-12T10:50:03Z</time>
      </trkpt>
      <trkpt lat="37.097066016867757" lon="-3.023649025708437">
        <ele>1949.6900000000001</ele>
        <time>2025-05-12T10:50:04Z</time>
      </trkpt>
      <trkpt lat="37.097239019349217" lon="-3.023550035431981">
        <ele>1951.6099999999999</ele>
        <time>2025-05-12T10:50:05Z</time>
      </trkpt>
      <trkpt lat="37.098767962306738" lon="-3.022774960845709">
        <ele>1962.1900000000001</ele>
        <time>2025-05-12T10:50:14Z</time>
      </trkpt>
      <trkpt lat="37.099154032766819" lon="-3.022710001096129">
        <ele>1965.0699999999999</ele>
        <time>2025-05-12T10:50:17Z</time>
      </trkpt>
      <trkpt lat="37.099268026649952" lon="-3.022741014137864">
        <ele>1966.03</ele>
        <time>2025-05-12T10:50:18Z</time>
      </trkpt>
      <trkpt lat="37.099385960027575" lon="-3.022795999422669">
        <ele>1967.48</ele>
        <time>2025-05-12T10:50:19Z</time>
      </trkpt>
      <trkpt lat="37.099497020244598" lon="-3.022897001355887">
        <ele>1968.4400000000001</ele>
        <time>2025-05-12T10:50:20Z</time>
      </trkpt>
      <trkpt lat="37.099618976935744" lon="-3.023006971925497">
        <ele>1969.8800000000001</ele>
        <time>2025-05-12T10:50:21Z</time>
      </trkpt>
      <trkpt lat="37.100850027054548" lon="-3.024022020399571">
        <ele>1978.53</ele>
        <time>2025-05-12T10:50:29Z</time>
      </trkpt>
      <trkpt lat="37.101133000105619" lon="-3.024254031479359">
        <ele>1980.45</ele>
        <time>2025-05-12T10:50:31Z</time>
      </trkpt>
      <trkpt lat="37.101249005645514" lon="-3.024381017312408">
        <ele>1981.9000000000001</ele>
        <time>2025-05-12T10:50:32Z</time>
      </trkpt>
      <trkpt lat="37.101341960951686" lon="-3.024530969560146">
        <ele>1983.3399999999999</ele>
        <time>2025-05-12T10:50:33Z</time>
      </trkpt>
      <trkpt lat="37.101623006165028" lon="-3.025059029459953">
        <ele>1988.1400000000001</ele>
        <time>2025-05-12T10:50:37Z</time>
      </trkpt>
      <trkpt lat="37.101700035855174" lon="-3.025156008079648">
        <ele>1989.0999999999999</ele>
        <time>2025-05-12T10:50:38Z</time>
      </trkpt>
      <trkpt lat="37.101786034181714" lon="-3.025242006406188">
        <ele>1990.0699999999999</ele>
        <time>2025-05-12T10:50:39Z</time>
      </trkpt>
      <trkpt lat="37.102587008848786" lon="-3.025958994403482">
        <ele>1997.76</ele>
        <time>2025-05-12T10:50:46Z</time>
      </trkpt>
      <trkpt lat="37.102741990238428" lon="-3.026033006608486">
        <ele>1999.2</ele>
        <time>2025-05-12T10:50:47Z</time>
      </trkpt>
      <trkpt lat="37.102900994941592" lon="-3.026108024641872">
        <ele>2000.1600000000001</ele>
        <time>2025-05-12T10:50:48Z</time>
      </trkpt>
      <trkpt lat="37.103357976302505" lon="-3.026258982717991">
        <ele>2003.52</ele>
        <time>2025-05-12T10:50:51Z</time>
      </trkpt>
      <trkpt lat="37.103508012369275" lon="-3.026251019909978">
        <ele>2004.49</ele>
        <time>2025-05-12T10:50:52Z</time>
      </trkpt>
      <trkpt lat="37.103662993758917" lon="-3.026241967454553">
        <ele>2005.45</ele>
        <time>2025-05-12T10:50:53Z</time>
      </trkpt>
      <trkpt lat="37.1038209926337" lon="-3.026209026575089">
        <ele>2006.8900000000001</ele>
        <time>2025-05-12T10:50:54Z</time>
      </trkpt>
      <trkpt lat="37.103984020650387" lon="-3.026166027411819">
        <ele>2008.3299999999999</ele>
        <time>2025-05-12T10:50:55Z</time>
      </trkpt>
      <trkpt lat="37.10504500195384" lon="-3.025904009118676">
        <ele>2016.5</ele>
        <time>2025-05-12T10:51:01Z</time>
      </trkpt>
      <trkpt lat="37.105213981121778" lon="-3.025926975533366">
        <ele>2017.46</ele>
        <time>2025-05-12T10:51:02Z</time>
      </trkpt>
      <trkpt lat="37.105382038280368" lon="-3.025949019938707">
        <ele>2018.4300000000001</ele>
        <time>2025-05-12T10:51:03Z</time>
      </trkpt>
      <trkpt lat="37.105546994134784" lon="-3.026002999395132">
        <ele>2019.3900000000001</ele>
        <time>2025-05-12T10:51:04Z</time>
      </trkpt>
      <trkpt lat="37.105713039636612" lon="-3.026091009378433">
        <ele>2020.3499999999999</ele>
        <time>2025-05-12T10:51:05Z</time>
      </trkpt>
      <trkpt lat="37.107428982853889" lon="-3.026839010417461">
        <ele>2028.52</ele>
        <time>2025-05-12T10:51:14Z</time>
      </trkpt>
      <trkpt lat="37.108604041859508" lon="-3.027522973716259">
        <ele>2034.77</ele>
        <time>2025-05-12T10:51:21Z</time>
      </trkpt>
      <trkpt lat="37.109242994338274" lon="-3.027903009206057">
        <ele>2040.05</ele>
        <time>2025-05-12T10:51:28Z</time>
      </trkpt>
      <trkpt lat="37.109334021806717" lon="-3.027956988662481">
        <ele>2041.98</ele>
        <time>2025-05-12T10:51:31Z</time>
      </trkpt>
      <trkpt lat="37.109461007639766" lon="-3.028033012524247">
        <ele>2045.8199999999999</ele>
        <time>2025-05-12T10:51:39Z</time>
      </trkpt>
      <trkpt lat="37.109504006803036" lon="-3.028057990595698">
        <ele>2047.75</ele>
        <time>2025-05-12T10:51:53Z</time>
      </trkpt>
      <trkpt lat="37.109564021229744" lon="-3.028094032779336">
        <ele>2048.71</ele>
        <time>2025-05-12T10:51:55Z</time>
      </trkpt>
      <trkpt lat="37.10962101817131" lon="-3.028133008629084">
        <ele>2049.6700000000001</ele>
        <time>2025-05-12T10:51:56Z</time>
      </trkpt>
      <trkpt lat="37.109696036204696" lon="-3.02819000557065">
        <ele>2050.1500000000001</ele>
        <time>2025-05-12T10:51:57Z</time>
      </trkpt>
      <trkpt lat="37.110442025586963" lon="-3.028580015525222">
        <ele>2052.0700000000002</ele>
        <time>2025-05-12T10:52:03Z</time>
      </trkpt>
      <trkpt lat="37.112039029598236" lon="-3.02928501740098">
        <ele>2051.5900000000001</ele>
        <time>2025-05-12T10:52:12Z</time>
      </trkpt>
      <trkpt lat="37.113055000081658" lon="-3.029706040397286">
        <ele>2050.6300000000001</ele>
        <time>2025-05-12T10:52:20Z</time>
      </trkpt>
      <trkpt lat="37.113304026424885" lon="-3.029807964339852">
        <ele>2048.71</ele>
        <time>2025-05-12T10:52:26Z</time>
      </trkpt>
      <trkpt lat="37.113492032513022" lon="-3.029891029000282">
        <ele>2046.78</ele>
        <time>2025-05-12T10:52:37Z</time>
      </trkpt>
      <trkpt lat="37.113522961735725" lon="-3.029905026778579">
        <ele>2046.3</ele>
        <time>2025-05-12T10:52:46Z</time>
      </trkpt>
      <trkpt lat="37.113537965342402" lon="-3.029910977929831">
        <ele>2046.3</ele>
        <time>2025-05-12T10:52:47Z</time>
      </trkpt>
      <trkpt lat="37.11355104111135" lon="-3.029917012900114">
        <ele>2045.8199999999999</ele>
        <time>2025-05-12T10:52:48Z</time>
      </trkpt>
      <trkpt lat="37.11355104111135" lon="-3.029917012900114">
        <ele>2045.8199999999999</ele>
        <time>2025-05-12T10:52:49Z</time>
      </trkpt>
      <trkpt lat="37.11355104111135" lon="-3.029917012900114">
        <ele>2045.8199999999999</ele>
        <time>2025-05-12T10:52:51Z</time>
      </trkpt>
      <trkpt lat="37.113547017797828" lon="-3.029915001243353">
        <ele>2045.8199999999999</ele>
        <time>2025-05-12T10:52:52Z</time>
      </trkpt>
      <trkpt lat="37.113530002534389" lon="-3.029907960444689">
        <ele>2045.8199999999999</ele>
        <time>2025-05-12T10:52:53Z</time>
      </trkpt>
      <trkpt lat="37.113505024462938" lon="-3.029896980151534">
        <ele>2045.8199999999999</ele>
        <time>2025-05-12T10:52:54Z</time>
      </trkpt>
      <trkpt lat="37.113468982279301" lon="-3.029880970716476">
        <ele>2045.8199999999999</ele>
        <time>2025-05-12T10:52:55Z</time>
      </trkpt>
      <trkpt lat="37.113432018086314" lon="-3.02986403927207">
        <ele>2045.8199999999999</ele>
        <time>2025-05-12T10:52:56Z</time>
      </trkpt>
      <trkpt lat="37.113399999216199" lon="-3.029850041493774">
        <ele>2045.8199999999999</ele>
        <time>2025-05-12T10:52:57Z</time>
      </trkpt>
      <trkpt lat="37.113372003659606" lon="-3.029836965724826">
        <ele>2045.8199999999999</ele>
        <time>2025-05-12T10:52:58Z</time>
      </trkpt>
      <trkpt lat="37.113349959254265" lon="-3.029827997088432">
        <ele>2045.8199999999999</ele>
        <time>2025-05-12T10:52:59Z</time>
      </trkpt>
      <trkpt lat="37.113339984789491" lon="-3.029822967946529">
        <ele>2045.8199999999999</ele>
        <time>2025-05-12T10:53:00Z</time>
      </trkpt>
      <trkpt lat="37.113339984789491" lon="-3.029822967946529">
        <ele>2045.3399999999999</ele>
        <time>2025-05-12T10:53:13Z</time>
      </trkpt>
      <trkpt lat="37.113339984789491" lon="-3.029822967946529">
        <ele>2045.3399999999999</ele>
        <time>2025-05-12T10:53:38Z</time>
      </trkpt>
      <trkpt lat="37.113339984789491" lon="-3.029822967946529">
        <ele>2045.3399999999999</ele>
        <time>2025-05-12T10:53:55Z</time>
      </trkpt>
      <trkpt lat="37.113505024462938" lon="-3.029804024845362">
        <ele>2049.6700000000001</ele>
        <time>2025-05-12T10:56:03Z</time>
      </trkpt>
      <trkpt lat="37.113397987559438" lon="-3.029835037887096">
        <ele>2044.3800000000001</ele>
        <time>2025-05-12T10:56:48Z</time>
      </trkpt>
      <trkpt lat="37.113399999216199" lon="-3.029843000695109">
        <ele>2049.6700000000001</ele>
        <time>2025-05-12T10:57:36Z</time>
      </trkpt>
      <trkpt lat="37.113399999216199" lon="-3.029850963503122">
        <ele>2049.1900000000001</ele>
        <time>2025-05-12T10:58:24Z</time>
      </trkpt>
      <trkpt lat="37.113394970074296" lon="-3.029848029837012">
        <ele>2048.71</ele>
        <time>2025-05-12T10:59:16Z</time>
      </trkpt>
      <trkpt lat="37.113393964245915" lon="-3.02984400652349">
        <ele>2048.23</ele>
        <time>2025-05-12T10:59:48Z</time>
      </trkpt>
      <trkpt lat="37.113393964245915" lon="-3.02984400652349">
        <ele>2048.23</ele>
        <time>2025-05-12T10:59:54Z</time>
      </trkpt>
      <trkpt lat="37.113436041399837" lon="-3.029865967109799">
        <ele>2047.26</ele>
        <time>2025-05-12T10:59:57Z</time>
      </trkpt>
      <trkpt lat="37.113460013642907" lon="-3.029877031221986">
        <ele>2047.26</ele>
        <time>2025-05-12T10:59:58Z</time>
      </trkpt>
      <trkpt lat="37.113490020856261" lon="-3.029890023171902">
        <ele>2046.78</ele>
        <time>2025-05-12T10:59:59Z</time>
      </trkpt>
      <trkpt lat="37.113516004756093" lon="-3.029901003465056">
        <ele>2046.78</ele>
        <time>2025-05-12T11:00:00Z</time>
      </trkpt>
      <trkpt lat="37.113536959514022" lon="-3.029910977929831">
        <ele>2046.3</ele>
        <time>2025-05-12T11:00:01Z</time>
      </trkpt>
      <trkpt lat="37.113536959514022" lon="-3.029910977929831">
        <ele>2046.3</ele>
        <time>2025-05-12T11:00:02Z</time>
      </trkpt>
      <trkpt lat="37.113536959514022" lon="-3.029910977929831">
        <ele>2045.8199999999999</ele>
        <time>2025-05-12T11:00:05Z</time>
      </trkpt>
      <trkpt lat="37.113540982827544" lon="-3.029912989586592">
        <ele>2045.3399999999999</ele>
        <time>2025-05-12T11:00:06Z</time>
      </trkpt>
      <trkpt lat="37.113512987270951" lon="-3.029899997636676">
        <ele>2045.3399999999999</ele>
        <time>2025-05-12T11:00:07Z</time>
      </trkpt>
      <trkpt lat="37.113459007814527" lon="-3.029876025393605">
        <ele>2045.8199999999999</ele>
        <time>2025-05-12T11:00:08Z</time>
      </trkpt>
      <trkpt lat="37.113379966467619" lon="-3.029840989038348">
        <ele>2045.8199999999999</ele>
        <time>2025-05-12T11:00:09Z</time>
      </trkpt>
      <trkpt lat="37.112641017884016" lon="-3.029521973803639">
        <ele>2045.3399999999999</ele>
        <time>2025-05-12T11:00:15Z</time>
      </trkpt>
      <trkpt lat="37.110957009717822" lon="-3.028809009119868">
        <ele>2041.98</ele>
        <time>2025-05-12T11:00:25Z</time>
      </trkpt>
      <trkpt lat="37.109887981787324" lon="-3.028309028595686">
        <ele>2040.05</ele>
        <time>2025-05-12T11:00:31Z</time>
      </trkpt>
      <trkpt lat="37.108330959454179" lon="-3.027360029518604">
        <ele>2035.73</ele>
        <time>2025-05-12T11:00:40Z</time>
      </trkpt>
      <trkpt lat="37.106713000684977" lon="-3.026524018496275">
        <ele>2028.04</ele>
        <time>2025-05-12T11:00:48Z</time>
      </trkpt>
      <trkpt lat="37.104854984208941" lon="-3.02593301050365">
        <ele>2016.02</ele>
        <time>2025-05-12T11:00:57Z</time>
      </trkpt>
      <trkpt lat="37.104214020073414" lon="-3.025566972792149">
        <ele>2012.6600000000001</ele>
        <time>2025-05-12T11:01:00Z</time>
      </trkpt>
      <trkpt lat="37.103308020159602" lon="-3.025703011080623">
        <ele>2006.8900000000001</ele>
        <time>2025-05-12T11:01:05Z</time>
      </trkpt>
      <trkpt lat="37.102033970877528" lon="-3.025491032749414">
        <ele>1996.3199999999999</ele>
        <time>2025-05-12T11:01:12Z</time>
      </trkpt>
      <trkpt lat="37.101645972579718" lon="-3.025103034451604">
        <ele>1991.99</ele>
        <time>2025-05-12T11:01:15Z</time>
      </trkpt>
      <trkpt lat="37.10154103115201" lon="-3.02490497007966">
        <ele>1991.99</ele>
        <time>2025-05-12T11:01:16Z</time>
      </trkpt>
      <trkpt lat="37.101450003683567" lon="-3.02473297342658">
        <ele>1991.03</ele>
        <time>2025-05-12T11:01:17Z</time>
      </trkpt>
      <trkpt lat="37.10124003700912" lon="-3.024370959028602">
        <ele>1987.6600000000001</ele>
        <time>2025-05-12T11:01:19Z</time>
      </trkpt>
      <trkpt lat="37.101112967357039" lon="-3.024231987074018">
        <ele>1986.22</ele>
        <time>2025-05-12T11:01:20Z</time>
      </trkpt>
      <trkpt lat="37.100981958210468" lon="-3.024114975705743">
        <ele>1984.78</ele>
        <time>2025-05-12T11:01:21Z</time>
      </trkpt>
      <trkpt lat="37.100838040933013" lon="-3.024013973772526">
        <ele>1983.8199999999999</ele>
        <time>2025-05-12T11:01:22Z</time>
      </trkpt>
      <trkpt lat="37.100689010694623" lon="-3.023910038173199">
        <ele>1982.3800000000001</ele>
        <time>2025-05-12T11:01:23Z</time>
      </trkpt>
      <trkpt lat="37.099935980513692" lon="-3.023296985775232">
        <ele>1974.2</ele>
        <time>2025-05-12T11:01:29Z</time>
      </trkpt>
      <trkpt lat="37.099618976935744" lon="-3.023006971925497">
        <ele>1967.96</ele>
        <time>2025-05-12T11:01:36Z</time>
      </trkpt>
      <trkpt lat="37.099483022466302" lon="-3.022884009405971">
        <ele>1964.1099999999999</ele>
        <time>2025-05-12T11:01:44Z</time>
      </trkpt>
      <trkpt lat="37.099483022466302" lon="-3.022884009405971">
        <ele>1963.6300000000001</ele>
        <time>2025-05-12T11:02:26Z</time>
      </trkpt>
      <trkpt lat="37.099444968625903" lon="-3.022849978879094">
        <ele>1964.1099999999999</ele>
        <time>2025-05-12T11:02:31Z</time>
      </trkpt>
      <trkpt lat="37.099402975291014" lon="-3.022812008857727">
        <ele>1964.5899999999999</ele>
        <time>2025-05-12T11:02:32Z</time>
      </trkpt>
      <trkpt lat="37.099354024976492" lon="-3.022768003866077">
        <ele>1965.0699999999999</ele>
        <time>2025-05-12T11:02:33Z</time>
      </trkpt>
      <trkpt lat="37.099276995286345" lon="-3.022744031623006">
        <ele>1965.55</ele>
        <time>2025-05-12T11:02:34Z</time>
      </trkpt>
      <trkpt lat="37.099213963374496" lon="-3.022727016359568">
        <ele>1965.55</ele>
        <time>2025-05-12T11:02:35Z</time>
      </trkpt>
      <trkpt lat="37.099152021110058" lon="-3.022710001096129">
        <ele>1965.55</ele>
        <time>2025-05-12T11:02:36Z</time>
      </trkpt>
      <trkpt lat="37.099078008905053" lon="-3.022706983610988">
        <ele>1965.55</ele>
        <time>2025-05-12T11:02:37Z</time>
      </trkpt>
      <trkpt lat="37.099012965336442" lon="-3.022718969732523">
        <ele>1965.0699999999999</ele>
        <time>2025-05-12T11:02:38Z</time>
      </trkpt>
      <trkpt lat="37.098939958959818" lon="-3.0227339733392">
        <ele>1964.5899999999999</ele>
        <time>2025-05-12T11:02:39Z</time>
      </trkpt>
      <trkpt lat="37.098270999267697" lon="-3.022996997460723">
        <ele>1962.1900000000001</ele>
        <time>2025-05-12T11:02:45Z</time>
      </trkpt>
      <trkpt lat="37.097126031294465" lon="-3.023614995181561">
        <ele>1956.4200000000001</ele>
        <time>2025-05-12T11:02:52Z</time>
      </trkpt>
      <trkpt lat="37.096756976097822" lon="-3.023775005713105">
        <ele>1953.54</ele>
        <time>2025-05-12T11:02:54Z</time>
      </trkpt>
      <trkpt lat="37.096563018858433" lon="-3.023827979341149">
        <ele>1952.0899999999999</ele>
        <time>2025-05-12T11:02:55Z</time>
      </trkpt>
      <trkpt lat="37.09636596031487" lon="-3.023840971291065">
        <ele>1950.6500000000001</ele>
        <time>2025-05-12T11:02:56Z</time>
      </trkpt>
      <trkpt lat="37.096166973933578" lon="-3.023803001269698">
        <ele>1949.21</ele>
        <time>2025-05-12T11:02:57Z</time>
      </trkpt>
      <trkpt lat="37.095964970067143" lon="-3.023764025419951">
        <ele>1947.29</ele>
        <time>2025-05-12T11:02:58Z</time>
      </trkpt>
      <trkpt lat="37.095770006999373" lon="-3.023690013214946">
        <ele>1945.8499999999999</ele>
        <time>2025-05-12T11:02:59Z</time>
      </trkpt>
      <trkpt lat="37.095574960112572" lon="-3.023595968261361">
        <ele>1943.9200000000001</ele>
        <time>2025-05-12T11:03:00Z</time>
      </trkpt>
      <trkpt lat="37.095372034236789" lon="-3.023497983813286">
        <ele>1941.52</ele>
        <time>2025-05-12T11:03:01Z</time>
      </trkpt>
      <trkpt lat="37.09436503238976" lon="-3.023086013272405">
        <ele>1930.46</ele>
        <time>2025-05-12T11:03:06Z</time>
      </trkpt>
      <trkpt lat="37.094166968017817" lon="-3.023084001615644">
        <ele>1928.0599999999999</ele>
        <time>2025-05-12T11:03:07Z</time>
      </trkpt>
      <trkpt lat="37.093963958323002" lon="-3.023071009665728">
        <ele>1925.6600000000001</ele>
        <time>2025-05-12T11:03:08Z</time>
      </trkpt>
      <trkpt lat="37.093756003305316" lon="-3.023057011887431">
        <ele>1923.25</ele>
        <time>2025-05-12T11:03:09Z</time>
      </trkpt>
      <trkpt lat="37.093548970296979" lon="-3.023044019937515">
        <ele>1920.8499999999999</ele>
        <time>2025-05-12T11:03:10Z</time>
      </trkpt>
      <trkpt lat="37.093359958380461" lon="-3.023086013272405">
        <ele>1918.9300000000001</ele>
        <time>2025-05-12T11:03:11Z</time>
      </trkpt>
      <trkpt lat="37.09318402223289" lon="-3.023148961365223">
        <ele>1916.53</ele>
        <time>2025-05-12T11:03:12Z</time>
      </trkpt>
      <trkpt lat="37.093002973124385" lon="-3.023230014368892">
        <ele>1914.5999999999999</ele>
        <time>2025-05-12T11:03:13Z</time>
      </trkpt>
      <trkpt lat="37.092832988128066" lon="-3.023316012695432">
        <ele>1912.6800000000001</ele>
        <time>2025-05-12T11:03:14Z</time>
      </trkpt>
      <trkpt lat="37.092686975374818" lon="-3.023461019620299">
        <ele>1910.76</ele>
        <time>2025-05-12T11:03:15Z</time>
      </trkpt>
      <trkpt lat="37.092552026733756" lon="-3.023610971868038">
        <ele>1908.8299999999999</ele>
        <time>2025-05-12T11:03:16Z</time>
      </trkpt>
      <trkpt lat="37.092429986223578" lon="-3.023781040683389">
        <ele>1906.9100000000001</ele>
        <time>2025-05-12T11:03:17Z</time>
      </trkpt>
      <trkpt lat="37.092310041189194" lon="-3.023948008194566">
        <ele>1904.99</ele>
        <time>2025-05-12T11:03:18Z</time>
      </trkpt>
      <trkpt lat="37.092225970700383" lon="-3.024155041202903">
        <ele>1903.55</ele>
        <time>2025-05-12T11:03:19Z</time>
      </trkpt>
      <trkpt lat="37.091662036255002" lon="-3.025188026949763">
        <ele>1894.9000000000001</ele>
        <time>2025-05-12T11:03:24Z</time>
      </trkpt>
      <trkpt lat="37.091500014066696" lon="-3.025329010561109">
        <ele>1892.97</ele>
        <time>2025-05-12T11:03:25Z</time>
      </trkpt>
      <trkpt lat="37.091338997706771" lon="-3.025468988344073">
        <ele>1891.05</ele>
        <time>2025-05-12T11:03:26Z</time>
      </trkpt>
      <trkpt lat="37.090580016374588" lon="-3.026036024093628">
        <ele>1884.3199999999999</ele>
        <time>2025-05-12T11:03:31Z</time>
      </trkpt>
      <trkpt lat="37.090480020269752" lon="-3.026133002713323">
        <ele>1882.8800000000001</ele>
        <time>2025-05-12T11:03:32Z</time>
      </trkpt>
      <trkpt lat="37.090421011671424" lon="-3.026251019909978">
        <ele>1881.4400000000001</ele>
        <time>2025-05-12T11:03:33Z</time>
      </trkpt>
      <trkpt lat="37.090410031378269" lon="-3.026379011571407">
        <ele>1880</ele>
        <time>2025-05-12T11:03:34Z</time>
      </trkpt>
      <trkpt lat="37.090407013893127" lon="-3.026525024324656">
        <ele>1879.03</ele>
        <time>2025-05-12T11:03:35Z</time>
      </trkpt>
      <trkpt lat="37.090421011671424" lon="-3.026678999885917">
        <ele>1877.5899999999999</ele>
        <time>2025-05-12T11:03:36Z</time>
      </trkpt>
      <trkpt lat="37.090619998052716" lon="-3.028032006695867">
        <ele>1869.9000000000001</ele>
        <time>2025-05-12T11:03:43Z</time>
      </trkpt>
      <trkpt lat="37.090694010257721" lon="-3.02823199890554">
        <ele>1868.9400000000001</ele>
        <time>2025-05-12T11:03:44Z</time>
      </trkpt>
      <trkpt lat="37.0907779969275" lon="-3.028418999165297">
        <ele>1867.5</ele>
        <time>2025-05-12T11:03:45Z</time>
      </trkpt>
      <trkpt lat="37.090855026617646" lon="-3.028590995818377">
        <ele>1865.5799999999999</ele>
        <time>2025-05-12T11:03:46Z</time>
      </trkpt>
      <trkpt lat="37.090916968882084" lon="-3.02872896194458">
        <ele>1863.6500000000001</ele>
        <time>2025-05-12T11:03:47Z</time>
      </trkpt>
      <trkpt lat="37.090932978317142" lon="-3.02885795943439">
        <ele>1862.21</ele>
        <time>2025-05-12T11:03:48Z</time>
      </trkpt>
      <trkpt lat="37.090920992195606" lon="-3.028942029923201">
        <ele>1860.29</ele>
        <time>2025-05-12T11:03:49Z</time>
      </trkpt>
      <trkpt lat="37.09088696166873" lon="-3.029021993279457">
        <ele>1858.8499999999999</ele>
        <time>2025-05-12T11:03:50Z</time>
      </trkpt>
      <trkpt lat="37.090829964727163" lon="-3.029061974957585">
        <ele>1856.4400000000001</ele>
        <time>2025-05-12T11:03:51Z</time>
      </trkpt>
      <trkpt lat="37.09075603634119" lon="-3.029041020199657">
        <ele>1855</ele>
        <time>2025-05-12T11:03:52Z</time>
      </trkpt>
      <trkpt lat="37.090675989165902" lon="-3.02896399050951">
        <ele>1853.0799999999999</ele>
        <time>2025-05-12T11:03:53Z</time>
      </trkpt>
      <trkpt lat="37.090579010546207" lon="-3.028870029374957">
        <ele>1851.6400000000001</ele>
        <time>2025-05-12T11:03:54Z</time>
      </trkpt>
      <trkpt lat="37.090469961985946" lon="-3.028763998299837">
        <ele>1850.1900000000001</ele>
        <time>2025-05-12T11:03:55Z</time>
      </trkpt>
      <trkpt lat="37.089878031983972" lon="-3.028067965060473">
        <ele>1843.95</ele>
        <time>2025-05-12T11:04:00Z</time>
      </trkpt>
      <trkpt lat="37.089456003159285" lon="-3.027209993451834">
        <ele>1837.7</ele>
        <time>2025-05-12T11:04:05Z</time>
      </trkpt>
      <trkpt lat="37.089347038418055" lon="-3.027064986526966">
        <ele>1836.26</ele>
        <time>2025-05-12T11:04:06Z</time>
      </trkpt>
      <trkpt lat="37.088857032358646" lon="-3.026461992412806">
        <ele>1828.5599999999999</ele>
        <time>2025-05-12T11:04:12Z</time>
      </trkpt>
      <trkpt lat="37.088154964148998" lon="-3.025668980553746">
        <ele>1821.3499999999999</ele>
        <time>2025-05-12T11:04:20Z</time>
      </trkpt>
      <trkpt lat="37.088044993579388" lon="-3.02552699111402">
        <ele>1820.8699999999999</ele>
        <time>2025-05-12T11:04:21Z</time>
      </trkpt>
      <trkpt lat="37.087936028838158" lon="-3.025367986410856">
        <ele>1820.3900000000001</ele>
        <time>2025-05-12T11:04:22Z</time>
      </trkpt>
      <trkpt lat="37.087716003879905" lon="-3.025061041116715">
        <ele>1818.95</ele>
        <time>2025-05-12T11:04:24Z</time>
      </trkpt>
      <trkpt lat="37.08757895976305" lon="-3.024948975071311">
        <ele>1817.99</ele>
        <time>2025-05-12T11:04:25Z</time>
      </trkpt>
      <trkpt lat="37.087415009737015" lon="-3.024854008108378">
        <ele>1817.03</ele>
        <time>2025-05-12T11:04:26Z</time>
      </trkpt>
      <trkpt lat="37.087242007255554" lon="-3.024787958711386">
        <ele>1816.55</ele>
        <time>2025-05-12T11:04:27Z</time>
      </trkpt>
      <trkpt lat="37.087059030309319" lon="-3.024719981476665">
        <ele>1815.5899999999999</ele>
        <time>2025-05-12T11:04:28Z</time>
      </trkpt>
      <trkpt lat="37.086871024221182" lon="-3.024647980928421">
        <ele>1814.1500000000001</ele>
        <time>2025-05-12T11:04:29Z</time>
      </trkpt>
      <trkpt lat="37.086663991212845" lon="-3.024591989815235">
        <ele>1812.7</ele>
        <time>2025-05-12T11:04:30Z</time>
      </trkpt>
      <trkpt lat="37.086458969861269" lon="-3.024611016735435">
        <ele>1811.26</ele>
        <time>2025-05-12T11:04:31Z</time>
      </trkpt>
      <trkpt lat="37.086249003186822" lon="-3.024630965664983">
        <ele>1810.3</ele>
        <time>2025-05-12T11:04:32Z</time>
      </trkpt>
      <trkpt lat="37.086046999320388" lon="-3.024648986756802">
        <ele>1808.8599999999999</ele>
        <time>2025-05-12T11:04:33Z</time>
      </trkpt>
      <trkpt lat="37.085852958261967" lon="-3.02466700784862">
        <ele>1807.9000000000001</ele>
        <time>2025-05-12T11:04:34Z</time>
      </trkpt>
      <trkpt lat="37.085680961608887" lon="-3.024672958999872">
        <ele>1806.45</ele>
        <time>2025-05-12T11:04:35Z</time>
      </trkpt>
      <trkpt lat="37.085533021017909" lon="-3.024644963443279">
        <ele>1805.97</ele>
        <time>2025-05-12T11:04:36Z</time>
      </trkpt>
      <trkpt lat="37.08538600243628" lon="-3.024575980380178">
        <ele>1805.01</ele>
        <time>2025-05-12T11:04:37Z</time>
      </trkpt>
      <trkpt lat="37.085219034925103" lon="-3.024499034509063">
        <ele>1804.05</ele>
        <time>2025-05-12T11:04:38Z</time>
      </trkpt>
      <trkpt lat="37.085034968331456" lon="-3.024413036182523">
        <ele>1803.0899999999999</ele>
        <time>2025-05-12T11:04:39Z</time>
      </trkpt>
      <trkpt lat="37.084659961983562" lon="-3.024198962375522">
        <ele>1801.1700000000001</ele>
        <time>2025-05-12T11:04:41Z</time>
      </trkpt>
      <trkpt lat="37.08446298725903" lon="-3.024080023169518">
        <ele>1800.21</ele>
        <time>2025-05-12T11:04:42Z</time>
      </trkpt>
      <trkpt lat="37.083074022084475" lon="-3.023199001327157">
        <ele>1791.0699999999999</ele>
        <time>2025-05-12T11:04:49Z</time>
      </trkpt>
      <trkpt lat="37.081322036683559" lon="-3.02268804050982">
        <ele>1777.1300000000001</ele>
        <time>2025-05-12T11:04:57Z</time>
      </trkpt>
      <trkpt lat="37.079410962760448" lon="-3.022317979484797">
        <ele>1761.27</ele>
        <time>2025-05-12T11:05:06Z</time>
      </trkpt>
      <trkpt lat="37.079079961404204" lon="-3.022239021956921">
        <ele>1758.3900000000001</ele>
        <time>2025-05-12T11:05:08Z</time>
      </trkpt>
      <trkpt lat="37.078922968357801" lon="-3.022187976166606">
        <ele>1756.95</ele>
        <time>2025-05-12T11:05:09Z</time>
      </trkpt>
      <trkpt lat="37.078630020841956" lon="-3.022093009203672">
        <ele>1755.02</ele>
        <time>2025-05-12T11:05:11Z</time>
      </trkpt>
      <trkpt lat="37.078498005867004" lon="-3.022050010040402">
        <ele>1754.0599999999999</ele>
        <time>2025-05-12T11:05:12Z</time>
      </trkpt>
      <trkpt lat="37.078377977013588" lon="-3.022074988111854">
        <ele>1753.5799999999999</ele>
        <time>2025-05-12T11:05:13Z</time>
      </trkpt>
      <trkpt lat="37.078287033364177" lon="-3.022136008366942">
        <ele>1752.6199999999999</ele>
        <time>2025-05-12T11:05:14Z</time>
      </trkpt>
      <trkpt lat="37.078219978138804" lon="-3.022219995036721">
        <ele>1752.1400000000001</ele>
        <time>2025-05-12T11:05:15Z</time>
      </trkpt>
      <trkpt lat="37.078152000904083" lon="-3.022304987534881">
        <ele>1751.6600000000001</ele>
        <time>2025-05-12T11:05:16Z</time>
      </trkpt>
      <trkpt lat="37.078076982870698" lon="-3.022354021668434">
        <ele>1751.1800000000001</ele>
        <time>2025-05-12T11:05:17Z</time>
      </trkpt>
      <trkpt lat="37.07799500785768" lon="-3.022384028881788">
        <ele>1750.22</ele>
        <time>2025-05-12T11:05:18Z</time>
      </trkpt>
      <trkpt lat="37.077902974560857" lon="-3.022355027496815">
        <ele>1749.74</ele>
        <time>2025-05-12T11:05:19Z</time>
      </trkpt>
      <trkpt lat="37.077825022861362" lon="-3.022282021120191">
        <ele>1749.26</ele>
        <time>2025-05-12T11:05:20Z</time>
      </trkpt>
      <trkpt lat="37.077797027304769" lon="-3.022179007530212">
        <ele>1748.78</ele>
        <time>2025-05-12T11:05:21Z</time>
      </trkpt>
      <trkpt lat="37.077764002606273" lon="-3.022061996161938">
        <ele>1747.8099999999999</ele>
        <time>2025-05-12T11:05:22Z</time>
      </trkpt>
      <trkpt lat="37.077721003443003" lon="-3.021905003115535">
        <ele>1746.8499999999999</ele>
        <time>2025-05-12T11:05:23Z</time>
      </trkpt>
      <trkpt lat="37.07765000872314" lon="-3.021805007010698">
        <ele>1745.4100000000001</ele>
        <time>2025-05-12T11:05:24Z</time>
      </trkpt>
      <trkpt lat="37.077569961547852" lon="-3.021691013127565">
        <ele>1743.97</ele>
        <time>2025-05-12T11:05:25Z</time>
      </trkpt>
      <trkpt lat="37.077444987371564" lon="-3.021640973165631">
        <ele>1743.01</ele>
        <time>2025-05-12T11:05:26Z</time>
      </trkpt>
      <trkpt lat="37.077320013195276" lon="-3.021617000922561">
        <ele>1741.5699999999999</ele>
        <time>2025-05-12T11:05:27Z</time>
      </trkpt>
      <trkpt lat="37.07720099017024" lon="-3.021656982600689">
        <ele>1740.5999999999999</ele>
        <time>2025-05-12T11:05:28Z</time>
      </trkpt>
      <trkpt lat="37.077097976580262" lon="-3.021691013127565">
        <ele>1739.1600000000001</ele>
        <time>2025-05-12T11:05:29Z</time>
      </trkpt>
      <trkpt lat="37.076968979090452" lon="-3.021727977320552">
        <ele>1738.2</ele>
        <time>2025-05-12T11:05:30Z</time>
      </trkpt>
      <trkpt lat="37.076861020177603" lon="-3.021758990362287">
        <ele>1737.72</ele>
        <time>2025-05-12T11:05:31Z</time>
      </trkpt>
      <trkpt lat="37.076757000759244" lon="-3.021742980927229">
        <ele>1736.76</ele>
        <time>2025-05-12T11:05:32Z</time>
      </trkpt>
      <trkpt lat="37.076668990775943" lon="-3.021668968722224">
        <ele>1736.28</ele>
        <time>2025-05-12T11:05:33Z</time>
      </trkpt>
      <trkpt lat="37.076587015762925" lon="-3.021560003980994">
        <ele>1735.8</ele>
        <time>2025-05-12T11:05:34Z</time>
      </trkpt>
      <trkpt lat="37.076496994122863" lon="-3.021438969299197">
        <ele>1734.8399999999999</ele>
        <time>2025-05-12T11:05:35Z</time>
      </trkpt>
      <trkpt lat="37.076402027159929" lon="-3.021319024264813">
        <ele>1733.8800000000001</ele>
        <time>2025-05-12T11:05:36Z</time>
      </trkpt>
      <trkpt lat="37.076283004134893" lon="-3.021234031766653">
        <ele>1732.9100000000001</ele>
        <time>2025-05-12T11:05:37Z</time>
      </trkpt>
      <trkpt lat="37.076146965846419" lon="-3.0211849976331">
        <ele>1731.95</ele>
        <time>2025-05-12T11:05:38Z</time>
      </trkpt>
      <trkpt lat="37.076000031083822" lon="-3.021152978762984">
        <ele>1730.51</ele>
        <time>2025-05-12T11:05:39Z</time>
      </trkpt>
      <trkpt lat="37.075844965875149" lon="-3.021147027611733">
        <ele>1729.55</ele>
        <time>2025-05-12T11:05:40Z</time>
      </trkpt>
      <trkpt lat="37.075684033334255" lon="-3.021140992641449">
        <ele>1728.5899999999999</ele>
        <time>2025-05-12T11:05:41Z</time>
      </trkpt>
      <trkpt lat="37.075367029756308" lon="-3.021094975993037">
        <ele>1726.6700000000001</ele>
        <time>2025-05-12T11:05:43Z</time>
      </trkpt>
      <trkpt lat="37.075221017003059" lon="-3.021038984879851">
        <ele>1726.1800000000001</ele>
        <time>2025-05-12T11:05:44Z</time>
      </trkpt>
      <trkpt lat="37.074287021532655" lon="-3.020677976310253">
        <ele>1719.46</ele>
        <time>2025-05-12T11:05:51Z</time>
      </trkpt>
      <trkpt lat="37.074176967144012" lon="-3.020665990188718">
        <ele>1718.49</ele>
        <time>2025-05-12T11:05:52Z</time>
      </trkpt>
      <trkpt lat="37.074013017117977" lon="-3.020694991573691">
        <ele>1716.0899999999999</ele>
        <time>2025-05-12T11:05:54Z</time>
      </trkpt>
      <trkpt lat="37.073967000469565" lon="-3.020706977695227">
        <ele>1715.1300000000001</ele>
        <time>2025-05-12T11:05:55Z</time>
      </trkpt>
      <trkpt lat="37.073916960507631" lon="-3.020642017945647">
        <ele>1715.1300000000001</ele>
        <time>2025-05-12T11:05:56Z</time>
      </trkpt>
      <trkpt lat="37.073927018791437" lon="-3.020588038489223">
        <ele>1714.6500000000001</ele>
        <time>2025-05-12T11:05:57Z</time>
      </trkpt>
      <trkpt lat="37.073940010741353" lon="-3.020517965778709">
        <ele>1714.1700000000001</ele>
        <time>2025-05-12T11:05:58Z</time>
      </trkpt>
      <trkpt lat="37.07395501434803" lon="-3.020435990765691">
        <ele>1713.6900000000001</ele>
        <time>2025-05-12T11:05:59Z</time>
      </trkpt>
      <trkpt lat="37.074003964662552" lon="-3.020371031016111">
        <ele>1712.73</ele>
        <time>2025-05-12T11:06:00Z</time>
      </trkpt>
      <trkpt lat="37.074070014059544" lon="-3.020352004095912">
        <ele>1712.73</ele>
        <time>2025-05-12T11:06:01Z</time>
      </trkpt>
      <trkpt lat="37.074152994900942" lon="-3.020357033237815">
        <ele>1712.25</ele>
        <time>2025-05-12T11:06:02Z</time>
      </trkpt>
      <trkpt lat="37.074246034026146" lon="-3.020401038229466">
        <ele>1711.76</ele>
        <time>2025-05-12T11:06:03Z</time>
      </trkpt>
      <trkpt lat="37.074348963797092" lon="-3.020449988543987">
        <ele>1711.76</ele>
        <time>2025-05-12T11:06:04Z</time>
      </trkpt>
      <trkpt lat="37.074590027332306" lon="-3.020557025447488">
        <ele>1710.8</ele>
        <time>2025-05-12T11:06:06Z</time>
      </trkpt>
      <trkpt lat="37.07472899928689" lon="-3.020578986033797">
        <ele>1710.8</ele>
        <time>2025-05-12T11:06:07Z</time>
      </trkpt>
      <trkpt lat="37.075983015820384" lon="-3.020617961883545">
        <ele>1706</ele>
        <time>2025-05-12T11:06:15Z</time>
      </trkpt>
      <trkpt lat="37.076844004914165" lon="-3.020539004355669">
        <ele>1702.6300000000001</ele>
        <time>2025-05-12T11:06:23Z</time>
      </trkpt>
      <trkpt lat="37.07692002877593" lon="-3.020532969385386">
        <ele>1702.1500000000001</ele>
        <time>2025-05-12T11:06:24Z</time>
      </trkpt>
      <trkpt lat="37.077311966568232" lon="-3.020468009635806">
        <ele>1700.23</ele>
        <time>2025-05-12T11:06:29Z</time>
      </trkpt>
      <trkpt lat="37.07739201374352" lon="-3.020442025735974">
        <ele>1699.75</ele>
        <time>2025-05-12T11:06:30Z</time>
      </trkpt>
      <trkpt lat="37.07745797932148" lon="-3.020375976338983">
        <ele>1699.27</ele>
        <time>2025-05-12T11:06:31Z</time>
      </trkpt>
      <trkpt lat="37.077485974878073" lon="-3.020292995497584">
        <ele>1698.79</ele>
        <time>2025-05-12T11:06:32Z</time>
      </trkpt>
      <trkpt lat="37.077514976263046" lon="-3.020205991342664">
        <ele>1698.3099999999999</ele>
        <time>2025-05-12T11:06:33Z</time>
      </trkpt>
      <trkpt lat="37.07750198431313" lon="-3.020101971924305">
        <ele>1697.8299999999999</ele>
        <time>2025-05-12T11:06:34Z</time>
      </trkpt>
      <trkpt lat="37.077467031776905" lon="-3.020011028274894">
        <ele>1697.8299999999999</ele>
        <time>2025-05-12T11:06:35Z</time>
      </trkpt>
      <trkpt lat="37.077426966279745" lon="-3.019907008856535">
        <ele>1697.8299999999999</ele>
        <time>2025-05-12T11:06:36Z</time>
      </trkpt>
      <trkpt lat="37.077353959903121" lon="-3.019851017743349">
        <ele>1697.8299999999999</ele>
        <time>2025-05-12T11:06:37Z</time>
      </trkpt>
      <trkpt lat="37.077244995161891" lon="-3.01978999748826">
        <ele>1698.3099999999999</ele>
        <time>2025-05-12T11:06:38Z</time>
      </trkpt>
      <trkpt lat="37.077122032642365" lon="-3.019722020253539">
        <ele>1698.3099999999999</ele>
        <time>2025-05-12T11:06:39Z</time>
      </trkpt>
      <trkpt lat="37.076989011839032" lon="-3.019647002220154">
        <ele>1698.79</ele>
        <time>2025-05-12T11:06:40Z</time>
      </trkpt>
      <trkpt lat="37.076854985207319" lon="-3.019582964479923">
        <ele>1699.27</ele>
        <time>2025-05-12T11:06:41Z</time>
      </trkpt>
      <trkpt lat="37.076696986332536" lon="-3.019556980580092">
        <ele>1699.27</ele>
        <time>2025-05-12T11:06:42Z</time>
      </trkpt>
      <trkpt lat="37.076548039913177" lon="-3.01953200250864">
        <ele>1699.75</ele>
        <time>2025-05-12T11:06:43Z</time>
      </trkpt>
      <trkpt lat="37.075295029208064" lon="-3.019248023629189">
        <ele>1700.71</ele>
        <time>2025-05-12T11:06:51Z</time>
      </trkpt>
      <trkpt lat="37.074894960969687" lon="-3.019181974232197">
        <ele>1699.75</ele>
        <time>2025-05-12T11:06:54Z</time>
      </trkpt>
      <trkpt lat="37.074759006500244" lon="-3.019159007817507">
        <ele>1699.27</ele>
        <time>2025-05-12T11:06:55Z</time>
      </trkpt>
      <trkpt lat="37.074681976810098" lon="-3.01908197812736">
        <ele>1698.3099999999999</ele>
        <time>2025-05-12T11:06:56Z</time>
      </trkpt>
      <trkpt lat="37.074576029554009" lon="-3.018975025042892">
        <ele>1697.8299999999999</ele>
        <time>2025-05-12T11:06:57Z</time>
      </trkpt>
      <trkpt lat="37.074459018185735" lon="-3.018859019502997">
        <ele>1696.8599999999999</ele>
        <time>2025-05-12T11:06:58Z</time>
      </trkpt>
      <trkpt lat="37.074361033737659" lon="-3.018701020628214">
        <ele>1696.3800000000001</ele>
        <time>2025-05-12T11:06:59Z</time>
      </trkpt>
      <trkpt lat="37.074258020147681" lon="-3.018535980954766">
        <ele>1695.4200000000001</ele>
        <time>2025-05-12T11:07:00Z</time>
      </trkpt>
      <trkpt lat="37.07395400851965" lon="-3.018047986552119">
        <ele>1693.5</ele>
        <time>2025-05-12T11:07:03Z</time>
      </trkpt>
      <trkpt lat="37.073858035728335" lon="-3.017891999334097">
        <ele>1693.02</ele>
        <time>2025-05-12T11:07:04Z</time>
      </trkpt>
      <trkpt lat="37.073371969163418" lon="-3.017392018809915">
        <ele>1691.5799999999999</ele>
        <time>2025-05-12T11:07:10Z</time>
      </trkpt>
      <trkpt lat="37.073347996920347" lon="-3.017366034910083">
        <ele>1691.5799999999999</ele>
        <time>2025-05-12T11:07:16Z</time>
      </trkpt>
      <trkpt lat="37.073347996920347" lon="-3.017366034910083">
        <ele>1692.0599999999999</ele>
        <time>2025-05-12T11:07:59Z</time>
      </trkpt>
      <trkpt lat="37.073235008865595" lon="-3.017250029370189">
        <ele>1692.54</ele>
        <time>2025-05-12T11:08:08Z</time>
      </trkpt>
      <trkpt lat="37.073156973347068" lon="-3.017175011336803">
        <ele>1692.54</ele>
        <time>2025-05-12T11:08:09Z</time>
      </trkpt>
      <trkpt lat="37.07305203191936" lon="-3.017096975818276">
        <ele>1692.54</ele>
        <time>2025-05-12T11:08:10Z</time>
      </trkpt>
      <trkpt lat="37.072435040026903" lon="-3.016581991687417">
        <ele>1692.54</ele>
        <time>2025-05-12T11:08:15Z</time>
      </trkpt>
      <trkpt lat="37.072340995073318" lon="-3.016456011682749">
        <ele>1692.54</ele>
        <time>2025-05-12T11:08:16Z</time>
      </trkpt>
      <trkpt lat="37.072254996746778" lon="-3.016309998929501">
        <ele>1692.54</ele>
        <time>2025-05-12T11:08:17Z</time>
      </trkpt>
      <trkpt lat="37.072175033390522" lon="-3.016172032803297">
        <ele>1692.54</ele>
        <time>2025-05-12T11:08:18Z</time>
      </trkpt>
      <trkpt lat="37.072106972336769" lon="-3.016056027263403">
        <ele>1692.0599999999999</ele>
        <time>2025-05-12T11:08:19Z</time>
      </trkpt>
      <trkpt lat="37.072040000930429" lon="-3.015989977866411">
        <ele>1691.5799999999999</ele>
        <time>2025-05-12T11:08:20Z</time>
      </trkpt>
      <trkpt lat="37.071958025917411" lon="-3.015963993966579">
        <ele>1691.5799999999999</ele>
        <time>2025-05-12T11:08:21Z</time>
      </trkpt>
      <trkpt lat="37.071863980963826" lon="-3.015981009230018">
        <ele>1692.0599999999999</ele>
        <time>2025-05-12T11:08:22Z</time>
      </trkpt>
      <trkpt lat="37.07176499068737" lon="-3.015999030321837">
        <ele>1692.54</ele>
        <time>2025-05-12T11:08:23Z</time>
      </trkpt>
      <trkpt lat="37.071660971269011" lon="-3.015983020886779">
        <ele>1692.54</ele>
        <time>2025-05-12T11:08:24Z</time>
      </trkpt>
      <trkpt lat="37.071518981829286" lon="-3.015940021723509">
        <ele>1693.02</ele>
        <time>2025-05-12T11:08:25Z</time>
      </trkpt>
      <trkpt lat="37.071409011259675" lon="-3.01587900146842">
        <ele>1692.54</ele>
        <time>2025-05-12T11:08:26Z</time>
      </trkpt>
      <trkpt lat="37.07083904184401" lon="-3.015545988455415">
        <ele>1690.6199999999999</ele>
        <time>2025-05-12T11:08:30Z</time>
      </trkpt>
      <trkpt lat="37.07070903852582" lon="-3.015430988743901">
        <ele>1689.6500000000001</ele>
        <time>2025-05-12T11:08:31Z</time>
      </trkpt>
      <trkpt lat="37.070450959727168" lon="-3.015204006806016">
        <ele>1688.6900000000001</ele>
        <time>2025-05-12T11:08:33Z</time>
      </trkpt>
      <trkpt lat="37.070322968065739" lon="-3.015118008479476">
        <ele>1688.21</ele>
        <time>2025-05-12T11:08:34Z</time>
      </trkpt>
      <trkpt lat="37.070175027474761" lon="-3.015093030408025">
        <ele>1687.25</ele>
        <time>2025-05-12T11:08:35Z</time>
      </trkpt>
      <trkpt lat="37.069693990051746" lon="-3.01501801237464">
        <ele>1685.8099999999999</ele>
        <time>2025-05-12T11:08:38Z</time>
      </trkpt>
      <trkpt lat="37.069543031975627" lon="-3.01501801237464">
        <ele>1685.3299999999999</ele>
        <time>2025-05-12T11:08:39Z</time>
      </trkpt>
      <trkpt lat="37.069280007854104" lon="-3.01501801237464">
        <ele>1684.8499999999999</ele>
        <time>2025-05-12T11:08:41Z</time>
      </trkpt>
      <trkpt lat="37.069154027849436" lon="-3.015016000717878">
        <ele>1684.8499999999999</ele>
        <time>2025-05-12T11:08:42Z</time>
      </trkpt>
      <trkpt lat="37.068929979577661" lon="-3.0149320140481">
        <ele>1684.8499999999999</ele>
        <time>2025-05-12T11:08:44Z</time>
      </trkpt>
      <trkpt lat="37.068828977644444" lon="-3.014893960207701">
        <ele>1684.3699999999999</ele>
        <time>2025-05-12T11:08:45Z</time>
      </trkpt>
      <trkpt lat="37.068753959611058" lon="-3.014807039871812">
        <ele>1683.8900000000001</ele>
        <time>2025-05-12T11:08:46Z</time>
      </trkpt>
      <trkpt lat="37.068687994033098" lon="-3.01471802406013">
        <ele>1683.4100000000001</ele>
        <time>2025-05-12T11:08:47Z</time>
      </trkpt>
      <trkpt lat="37.068642983213067" lon="-3.014608975499868">
        <ele>1683.4100000000001</ele>
        <time>2025-05-12T11:08:48Z</time>
      </trkpt>
      <trkpt lat="37.068594032898545" lon="-3.014489030465484">
        <ele>1682.9300000000001</ele>
        <time>2025-05-12T11:08:49Z</time>
      </trkpt>
      <trkpt lat="37.06854198127985" lon="-3.014361960813403">
        <ele>1682.4400000000001</ele>
        <time>2025-05-12T11:08:50Z</time>
      </trkpt>
      <trkpt lat="37.068338971585035" lon="-3.014026014134288">
        <ele>1681.48</ele>
        <time>2025-05-12T11:08:53Z</time>
      </trkpt>
      <trkpt lat="37.068264037370682" lon="-3.013964993879199">
        <ele>1681</ele>
        <time>2025-05-12T11:08:54Z</time>
      </trkpt>
      <trkpt lat="37.068145014345646" lon="-3.013954013586044">
        <ele>1680.52</ele>
        <time>2025-05-12T11:08:55Z</time>
      </trkpt>
      <trkpt lat="37.067156033590436" lon="-3.01385996863246">
        <ele>1681</ele>
        <time>2025-05-12T11:09:00Z</time>
      </trkpt>
      <trkpt lat="37.066170992329717" lon="-3.013712028041482">
        <ele>1682.9300000000001</ele>
        <time>2025-05-12T11:09:05Z</time>
      </trkpt>
      <trkpt lat="37.06600402481854" lon="-3.013720996677876">
        <ele>1683.4100000000001</ele>
        <time>2025-05-12T11:09:06Z</time>
      </trkpt>
      <trkpt lat="37.065360965207219" lon="-3.013772964477539">
        <ele>1683.4100000000001</ele>
        <time>2025-05-12T11:09:10Z</time>
      </trkpt>
      <trkpt lat="37.065244037657976" lon="-3.013740023598075">
        <ele>1683.4100000000001</ele>
        <time>2025-05-12T11:09:11Z</time>
      </trkpt>
      <trkpt lat="37.065119985491037" lon="-3.013639021664858">
        <ele>1682.9300000000001</ele>
        <time>2025-05-12T11:09:12Z</time>
      </trkpt>
      <trkpt lat="37.064817985519767" lon="-3.0133640114218">
        <ele>1681.96</ele>
        <time>2025-05-12T11:09:14Z</time>
      </trkpt>
      <trkpt lat="37.064634002745152" lon="-3.013216992840171">
        <ele>1681.48</ele>
        <time>2025-05-12T11:09:15Z</time>
      </trkpt>
      <trkpt lat="37.064083982259035" lon="-3.012851038947702">
        <ele>1678.1199999999999</ele>
        <time>2025-05-12T11:09:18Z</time>
      </trkpt>
      <trkpt lat="37.063931012526155" lon="-3.012787001207471">
        <ele>1677.1600000000001</ele>
        <time>2025-05-12T11:09:19Z</time>
      </trkpt>
      <trkpt lat="37.063786005601287" lon="-3.012802004814148">
        <ele>1675.72</ele>
        <time>2025-05-12T11:09:20Z</time>
      </trkpt>
      <trkpt lat="37.063646027818322" lon="-3.012856990098953">
        <ele>1674.27</ele>
        <time>2025-05-12T11:09:21Z</time>
      </trkpt>
      <trkpt lat="37.063498003408313" lon="-3.012945000082254">
        <ele>1673.3099999999999</ele>
        <time>2025-05-12T11:09:22Z</time>
      </trkpt>
      <trkpt lat="37.063355008140206" lon="-3.013029992580414">
        <ele>1672.3499999999999</ele>
        <time>2025-05-12T11:09:23Z</time>
      </trkpt>
      <trkpt lat="37.063227016478777" lon="-3.01310601644218">
        <ele>1670.9100000000001</ele>
        <time>2025-05-12T11:09:24Z</time>
      </trkpt>
      <trkpt lat="37.063098018988967" lon="-3.013139041140676">
        <ele>1669.95</ele>
        <time>2025-05-12T11:09:25Z</time>
      </trkpt>
      <trkpt lat="37.062948988750577" lon="-3.01310601644218">
        <ele>1668.51</ele>
        <time>2025-05-12T11:09:26Z</time>
      </trkpt>
      <trkpt lat="37.06261295825243" lon="-3.013030998408794">
        <ele>1666.0999999999999</ele>
        <time>2025-05-12T11:09:28Z</time>
      </trkpt>
      <trkpt lat="37.062440039590001" lon="-3.01304399035871">
        <ele>1664.6600000000001</ele>
        <time>2025-05-12T11:09:29Z</time>
      </trkpt>
      <trkpt lat="37.062274999916553" lon="-3.013070980086923">
        <ele>1663.22</ele>
        <time>2025-05-12T11:09:30Z</time>
      </trkpt>
      <trkpt lat="37.062115995213389" lon="-3.013097969815135">
        <ele>1661.78</ele>
        <time>2025-05-12T11:09:31Z</time>
      </trkpt>
      <trkpt lat="37.061963025480509" lon="-3.013123031705618">
        <ele>1660.8099999999999</ele>
        <time>2025-05-12T11:09:32Z</time>
      </trkpt>
      <trkpt lat="37.061826987192035" lon="-3.013081960380077">
        <ele>1659.3699999999999</ele>
        <time>2025-05-12T11:09:33Z</time>
      </trkpt>
      <trkpt lat="37.061678040772676" lon="-3.013012977316976">
        <ele>1657.9300000000001</ele>
        <time>2025-05-12T11:09:34Z</time>
      </trkpt>
      <trkpt lat="37.061518030241132" lon="-3.012937037274241">
        <ele>1656.49</ele>
        <time>2025-05-12T11:09:35Z</time>
      </trkpt>
      <trkpt lat="37.061040010303259" lon="-3.012713994830847">
        <ele>1652.6400000000001</ele>
        <time>2025-05-12T11:09:38Z</time>
      </trkpt>
      <trkpt lat="37.060877988114953" lon="-3.012622967362404">
        <ele>1651.2</ele>
        <time>2025-05-12T11:09:39Z</time>
      </trkpt>
      <trkpt lat="37.060722000896931" lon="-3.012494975700975">
        <ele>1650.24</ele>
        <time>2025-05-12T11:09:40Z</time>
      </trkpt>
      <trkpt lat="37.060567019507289" lon="-3.012366984039545">
        <ele>1649.28</ele>
        <time>2025-05-12T11:09:41Z</time>
      </trkpt>
      <trkpt lat="37.060452019795775" lon="-3.012190964072943">
        <ele>1648.3199999999999</ele>
        <time>2025-05-12T11:09:42Z</time>
      </trkpt>
      <trkpt lat="37.06035302951932" lon="-3.012007987126708">
        <ele>1647.3599999999999</ele>
        <time>2025-05-12T11:09:43Z</time>
      </trkpt>
      <trkpt lat="37.06027097068727" lon="-3.011816963553429">
        <ele>1646.4000000000001</ele>
        <time>2025-05-12T11:09:44Z</time>
      </trkpt>
      <trkpt lat="37.060222020372748" lon="-3.011628035455942">
        <ele>1645.9100000000001</ele>
        <time>2025-05-12T11:09:45Z</time>
      </trkpt>
      <trkpt lat="37.060180027037859" lon="-3.011430976912379">
        <ele>1645.4300000000001</ele>
        <time>2025-05-12T11:09:46Z</time>
      </trkpt>
      <trkpt lat="37.06014096736908" lon="-3.011247999966145">
        <ele>1644.47</ele>
        <time>2025-05-12T11:09:47Z</time>
      </trkpt>
      <trkpt lat="37.060064021497965" lon="-3.01106502301991">
        <ele>1643.51</ele>
        <time>2025-05-12T11:09:48Z</time>
      </trkpt>
      <trkpt lat="37.059751963242888" lon="-3.010503016412258">
        <ele>1639.1900000000001</ele>
        <time>2025-05-12T11:09:51Z</time>
      </trkpt>
      <trkpt lat="37.059593964368105" lon="-3.010351974517107">
        <ele>1637.74</ele>
        <time>2025-05-12T11:09:52Z</time>
      </trkpt>
      <trkpt lat="37.059072023257613" lon="-3.009934974834323">
        <ele>1632.9400000000001</ele>
        <time>2025-05-12T11:09:55Z</time>
      </trkpt>
      <trkpt lat="37.057766038924456" lon="-3.009130982682109">
        <ele>1622.3599999999999</ele>
        <time>2025-05-12T11:10:03Z</time>
      </trkpt>
      <trkpt lat="37.057665959000587" lon="-3.009021012112498">
        <ele>1621.8800000000001</ele>
        <time>2025-05-12T11:10:04Z</time>
      </trkpt>
      <trkpt lat="37.057590018957853" lon="-3.008870976045728">
        <ele>1620.4400000000001</ele>
        <time>2025-05-12T11:10:05Z</time>
      </trkpt>
      <trkpt lat="37.057441994547844" lon="-3.008522959426045">
        <ele>1619</ele>
        <time>2025-05-12T11:10:07Z</time>
      </trkpt>
      <trkpt lat="37.057338980957866" lon="-3.008364960551262">
        <ele>1618.04</ele>
        <time>2025-05-12T11:10:08Z</time>
      </trkpt>
      <trkpt lat="37.057237979024649" lon="-3.00820897333324">
        <ele>1617.5599999999999</ele>
        <time>2025-05-12T11:10:09Z</time>
      </trkpt>
      <trkpt lat="37.057104958221316" lon="-3.008081987500191">
        <ele>1617.0699999999999</ele>
        <time>2025-05-12T11:10:10Z</time>
      </trkpt>
      <trkpt lat="37.056970009580255" lon="-3.007964976131916">
        <ele>1616.5899999999999</ele>
        <time>2025-05-12T11:10:11Z</time>
      </trkpt>
      <trkpt lat="37.056812010705471" lon="-3.007862968370318">
        <ele>1615.6300000000001</ele>
        <time>2025-05-12T11:10:12Z</time>
      </trkpt>
      <trkpt lat="37.056634984910488" lon="-3.007747968658805">
        <ele>1615.1500000000001</ele>
        <time>2025-05-12T11:10:13Z</time>
      </trkpt>
      <trkpt lat="37.055704006925225" lon="-3.007187973707914">
        <ele>1611.3099999999999</ele>
        <time>2025-05-12T11:10:18Z</time>
      </trkpt>
      <trkpt lat="37.055363031104207" lon="-3.007041960954666">
        <ele>1608.9000000000001</ele>
        <time>2025-05-12T11:10:20Z</time>
      </trkpt>
      <trkpt lat="37.055190028622746" lon="-3.006968032568693">
        <ele>1607.9400000000001</ele>
        <time>2025-05-12T11:10:21Z</time>
      </trkpt>
      <trkpt lat="37.055023983120918" lon="-3.006854960694909">
        <ele>1606.98</ele>
        <time>2025-05-12T11:10:22Z</time>
      </trkpt>
      <trkpt lat="37.054399028420448" lon="-3.006378030404449">
        <ele>1602.1700000000001</ele>
        <time>2025-05-12T11:10:26Z</time>
      </trkpt>
      <trkpt lat="37.054289979860187" lon="-3.006248027086258">
        <ele>1600.73</ele>
        <time>2025-05-12T11:10:27Z</time>
      </trkpt>
      <trkpt lat="37.054201969876885" lon="-3.006083993241191">
        <ele>1599.77</ele>
        <time>2025-05-12T11:10:28Z</time>
      </trkpt>
      <trkpt lat="37.054113037884235" lon="-3.005915014073253">
        <ele>1598.8099999999999</ele>
        <time>2025-05-12T11:10:29Z</time>
      </trkpt>
      <trkpt lat="37.054027039557695" lon="-3.005753997713327">
        <ele>1597.3699999999999</ele>
        <time>2025-05-12T11:10:30Z</time>
      </trkpt>
      <trkpt lat="37.053926959633827" lon="-3.005611002445221">
        <ele>1596.4100000000001</ele>
        <time>2025-05-12T11:10:31Z</time>
      </trkpt>
      <trkpt lat="37.053800979629159" lon="-3.005517963320017">
        <ele>1595.9300000000001</ele>
        <time>2025-05-12T11:10:32Z</time>
      </trkpt>
      <trkpt lat="37.053676005452871" lon="-3.005426013842225">
        <ele>1594.96</ele>
        <time>2025-05-12T11:10:33Z</time>
      </trkpt>
      <trkpt lat="37.053558994084597" lon="-3.005340015515685">
        <ele>1594</ele>
        <time>2025-05-12T11:10:34Z</time>
      </trkpt>
      <trkpt lat="37.05347802489996" lon="-3.0052459705621">
        <ele>1593.04</ele>
        <time>2025-05-12T11:10:35Z</time>
      </trkpt>
      <trkpt lat="37.053434019908309" lon="-3.005152009427548">
        <ele>1592.0799999999999</ele>
        <time>2025-05-12T11:10:36Z</time>
      </trkpt>
      <trkpt lat="37.053446006029844" lon="-3.005022006109357">
        <ele>1591.5999999999999</ele>
        <time>2025-05-12T11:10:37Z</time>
      </trkpt>
      <trkpt lat="37.053475007414818" lon="-3.004872975870967">
        <ele>1590.6400000000001</ele>
        <time>2025-05-12T11:10:38Z</time>
      </trkpt>
      <trkpt lat="37.053525969386101" lon="-3.004694022238255">
        <ele>1589.2</ele>
        <time>2025-05-12T11:10:39Z</time>
      </trkpt>
      <trkpt lat="37.053653039038181" lon="-3.004251038655639">
        <ele>1586.79</ele>
        <time>2025-05-12T11:10:41Z</time>
      </trkpt>
      <trkpt lat="37.053697966039181" lon="-3.004001006484032">
        <ele>1585.3499999999999</ele>
        <time>2025-05-12T11:10:42Z</time>
      </trkpt>
      <trkpt lat="37.053816989064217" lon="-3.003325005993247">
        <ele>1582.47</ele>
        <time>2025-05-12T11:10:45Z</time>
      </trkpt>
      <trkpt lat="37.053889995440841" lon="-3.003114033490419">
        <ele>1581.51</ele>
        <time>2025-05-12T11:10:46Z</time>
      </trkpt>
      <trkpt lat="37.054129969328642" lon="-3.002425041049719">
        <ele>1579.5799999999999</ele>
        <time>2025-05-12T11:10:49Z</time>
      </trkpt>
      <trkpt lat="37.054185960441828" lon="-3.002190012484789">
        <ele>1578.6199999999999</ele>
        <time>2025-05-12T11:10:50Z</time>
      </trkpt>
      <trkpt lat="37.054300960153341" lon="-3.00152599811554">
        <ele>1576.7</ele>
        <time>2025-05-12T11:10:53Z</time>
      </trkpt>
      <trkpt lat="37.054300960153341" lon="-3.001330029219389">
        <ele>1576.22</ele>
        <time>2025-05-12T11:10:54Z</time>
      </trkpt>
      <trkpt lat="37.054289979860187" lon="-3.001151997596026">
        <ele>1575.74</ele>
        <time>2025-05-12T11:10:55Z</time>
      </trkpt>
      <trkpt lat="37.054300038143992" lon="-3.00098997540772">
        <ele>1575.26</ele>
        <time>2025-05-12T11:10:56Z</time>
      </trkpt>
      <trkpt lat="37.054311018437147" lon="-3.000831976532936">
        <ele>1575.26</ele>
        <time>2025-05-12T11:10:57Z</time>
      </trkpt>
      <trkpt lat="37.054353011772037" lon="-3.000691998749971">
        <ele>1574.78</ele>
        <time>2025-05-12T11:10:58Z</time>
      </trkpt>
      <trkpt lat="37.054419983178377" lon="-3.000558977946639">
        <ele>1574.3</ele>
        <time>2025-05-12T11:10:59Z</time>
      </trkpt>
      <trkpt lat="37.054508998990059" lon="-3.000438027083874">
        <ele>1573.8199999999999</ele>
        <time>2025-05-12T11:11:00Z</time>
      </trkpt>
      <trkpt lat="37.054603965952992" lon="-3.000310035422444">
        <ele>1573.3299999999999</ele>
        <time>2025-05-12T11:11:01Z</time>
      </trkpt>
      <trkpt lat="37.054774034768343" lon="-3.000080035999417">
        <ele>1572.3699999999999</ele>
        <time>2025-05-12T11:11:03Z</time>
      </trkpt>
      <trkpt lat="37.054865984246135" lon="-3.000023039057851">
        <ele>1572.3699999999999</ele>
        <time>2025-05-12T11:11:04Z</time>
      </trkpt>
      <trkpt lat="37.054976960644126" lon="-2.999993031844497">
        <ele>1571.8900000000001</ele>
        <time>2025-05-12T11:11:05Z</time>
      </trkpt>
      <trkpt lat="37.055383985862136" lon="-2.999882977455854">
        <ele>1571.4100000000001</ele>
        <time>2025-05-12T11:11:08Z</time>
      </trkpt>
      <trkpt lat="37.056021010503173" lon="-2.999709974974394">
        <ele>1569.49</ele>
        <time>2025-05-12T11:11:12Z</time>
      </trkpt>
      <trkpt lat="37.056136010214686" lon="-2.999624982476234">
        <ele>1569.01</ele>
        <time>2025-05-12T11:11:13Z</time>
      </trkpt>
      <trkpt lat="37.056242963299155" lon="-2.99950897693634">
        <ele>1568.53</ele>
        <time>2025-05-12T11:11:14Z</time>
      </trkpt>
      <trkpt lat="37.056459970772266" lon="-2.999275038018823">
        <ele>1567.0899999999999</ele>
        <time>2025-05-12T11:11:16Z</time>
      </trkpt>
      <trkpt lat="37.056557033210993" lon="-2.999170012772083">
        <ele>1566.1199999999999</ele>
        <time>2025-05-12T11:11:17Z</time>
      </trkpt>
      <trkpt lat="37.056674966588616" lon="-2.999118966981769">
        <ele>1565.1600000000001</ele>
        <time>2025-05-12T11:11:18Z</time>
      </trkpt>
      <trkpt lat="37.056805975735188" lon="-2.999090971425176">
        <ele>1564.2</ele>
        <time>2025-05-12T11:11:19Z</time>
      </trkpt>
      <trkpt lat="37.056947965174913" lon="-2.999059036374092">
        <ele>1563.24</ele>
        <time>2025-05-12T11:11:20Z</time>
      </trkpt>
      <trkpt lat="37.057248959317803" lon="-2.998993992805481">
        <ele>1562.28</ele>
        <time>2025-05-12T11:11:22Z</time>
      </trkpt>
      <trkpt lat="37.057386003434658" lon="-2.998898020014167">
        <ele>1561.3199999999999</ele>
        <time>2025-05-12T11:11:23Z</time>
      </trkpt>
      <trkpt lat="37.058182032778859" lon="-2.998137027025223">
        <ele>1557.95</ele>
        <time>2025-05-12T11:11:30Z</time>
      </trkpt>
      <trkpt lat="37.058200975880027" lon="-2.99802403897047">
        <ele>1557.95</ele>
        <time>2025-05-12T11:11:31Z</time>
      </trkpt>
      <trkpt lat="37.058199970051646" lon="-2.997901998460293">
        <ele>1557.47</ele>
        <time>2025-05-12T11:11:32Z</time>
      </trkpt>
      <trkpt lat="37.058137021958828" lon="-2.997777024284005">
        <ele>1556.99</ele>
        <time>2025-05-12T11:11:33Z</time>
      </trkpt>
      <trkpt lat="37.05803501419723" lon="-2.997709969058633">
        <ele>1556.99</ele>
        <time>2025-05-12T11:11:34Z</time>
      </trkpt>
      <trkpt lat="37.057901993393898" lon="-2.997687002643943">
        <ele>1556.51</ele>
        <time>2025-05-12T11:11:35Z</time>
      </trkpt>
      <trkpt lat="37.057752041146159" lon="-2.997668981552124">
        <ele>1556.51</ele>
        <time>2025-05-12T11:11:36Z</time>
      </trkpt>
      <trkpt lat="37.057589013129473" lon="-2.997650038450956">
        <ele>1556.51</ele>
        <time>2025-05-12T11:11:37Z</time>
      </trkpt>
      <trkpt lat="37.057100012898445" lon="-2.997581977397203">
        <ele>1555.55</ele>
        <time>2025-05-12T11:11:40Z</time>
      </trkpt>
      <trkpt lat="37.056950982660055" lon="-2.997501008212566">
        <ele>1555.0699999999999</ele>
        <time>2025-05-12T11:11:41Z</time>
      </trkpt>
      <trkpt lat="37.0567880384624" lon="-2.997411992400885">
        <ele>1554.1099999999999</ele>
        <time>2025-05-12T11:11:42Z</time>
      </trkpt>
      <trkpt lat="37.056472040712833" lon="-2.997296992689371">
        <ele>1552.6700000000001</ele>
        <time>2025-05-12T11:11:44Z</time>
      </trkpt>
      <trkpt lat="37.056034002453089" lon="-2.997178975492716">
        <ele>1550.26</ele>
        <time>2025-05-12T11:11:47Z</time>
      </trkpt>
      <trkpt lat="37.055925959721208" lon="-2.997090965509415">
        <ele>1549.3</ele>
        <time>2025-05-12T11:11:48Z</time>
      </trkpt>
      <trkpt lat="37.055822024121881" lon="-2.997005973011255">
        <ele>1548.3399999999999</ele>
        <time>2025-05-12T11:11:49Z</time>
      </trkpt>
      <trkpt lat="37.055533016100526" lon="-2.99677899107337">
        <ele>1545.9400000000001</ele>
        <time>2025-05-12T11:11:52Z</time>
      </trkpt>
      <trkpt lat="37.055414998903871" lon="-2.996752001345158">
        <ele>1544.5</ele>
        <time>2025-05-12T11:11:53Z</time>
      </trkpt>
      <trkpt lat="37.055338975042105" lon="-2.996736997738481">
        <ele>1543.53</ele>
        <time>2025-05-12T11:11:54Z</time>
      </trkpt>
      <trkpt lat="37.055252976715565" lon="-2.996816961094737">
        <ele>1542.5699999999999</ele>
        <time>2025-05-12T11:11:55Z</time>
      </trkpt>
      <trkpt lat="37.055150968953967" lon="-2.996911006048322">
        <ele>1541.6099999999999</ele>
        <time>2025-05-12T11:11:56Z</time>
      </trkpt>
      <trkpt lat="37.055042004212737" lon="-2.997013013809919">
        <ele>1540.6500000000001</ele>
        <time>2025-05-12T11:11:57Z</time>
      </trkpt>
      <trkpt lat="37.054709997028112" lon="-2.997318031266332">
        <ele>1537.77</ele>
        <time>2025-05-12T11:12:00Z</time>
      </trkpt>
      <trkpt lat="37.054587034508586" lon="-2.997371004894376">
        <ele>1536.8</ele>
        <time>2025-05-12T11:12:01Z</time>
      </trkpt>
      <trkpt lat="37.054429035633802" lon="-2.997378967702389">
        <ele>1535.3599999999999</ele>
        <time>2025-05-12T11:12:02Z</time>
      </trkpt>
      <trkpt lat="37.054254021495581" lon="-2.997378967702389">
        <ele>1534.4000000000001</ele>
        <time>2025-05-12T11:12:03Z</time>
      </trkpt>
      <trkpt lat="37.054055035114288" lon="-2.997365975752473">
        <ele>1532.48</ele>
        <time>2025-05-12T11:12:04Z</time>
      </trkpt>
      <trkpt lat="37.053235033527017" lon="-2.997292969375849">
        <ele>1525.75</ele>
        <time>2025-05-12T11:12:08Z</time>
      </trkpt>
      <trkpt lat="37.053054990246892" lon="-2.997247958555818">
        <ele>1524.3099999999999</ele>
        <time>2025-05-12T11:12:09Z</time>
      </trkpt>
      <trkpt lat="37.052718959748745" lon="-2.997163971886039">
        <ele>1520.9400000000001</ele>
        <time>2025-05-12T11:12:11Z</time>
      </trkpt>
      <trkpt lat="37.052550986409187" lon="-2.997121978551149">
        <ele>1519.5</ele>
        <time>2025-05-12T11:12:12Z</time>
      </trkpt>
      <trkpt lat="37.052402039989829" lon="-2.997153997421265">
        <ele>1518.54</ele>
        <time>2025-05-12T11:12:13Z</time>
      </trkpt>
      <trkpt lat="37.051740037277341" lon="-2.997392965480685">
        <ele>1514.6900000000001</ele>
        <time>2025-05-12T11:12:17Z</time>
      </trkpt>
      <trkpt lat="37.05160902813077" lon="-2.997519029304385">
        <ele>1513.73</ele>
        <time>2025-05-12T11:12:18Z</time>
      </trkpt>
      <trkpt lat="37.051314990967512" lon="-2.997794961556792">
        <ele>1511.3299999999999</ele>
        <time>2025-05-12T11:12:20Z</time>
      </trkpt>
      <trkpt lat="37.050268007442355" lon="-2.998452018946409">
        <ele>1503.1600000000001</ele>
        <time>2025-05-12T11:12:26Z</time>
      </trkpt>
      <trkpt lat="37.050114031881094" lon="-2.998498035594821">
        <ele>1501.72</ele>
        <time>2025-05-12T11:12:27Z</time>
      </trkpt>
      <trkpt lat="37.048897985368967" lon="-2.998642036691308">
        <ele>1494.51</ele>
        <time>2025-05-12T11:12:33Z</time>
      </trkpt>
      <trkpt lat="37.048336984589696" lon="-2.998661985620856">
        <ele>1491.1400000000001</ele>
        <time>2025-05-12T11:12:36Z</time>
      </trkpt>
      <trkpt lat="37.048168005421758" lon="-2.998569030314684">
        <ele>1490.6600000000001</ele>
        <time>2025-05-12T11:12:37Z</time>
      </trkpt>
      <trkpt lat="37.047987962141633" lon="-2.998470040038228">
        <ele>1490.1800000000001</ele>
        <time>2025-05-12T11:12:38Z</time>
      </trkpt>
      <trkpt lat="37.047152034938335" lon="-2.998082963749766">
        <ele>1485.8499999999999</ele>
        <time>2025-05-12T11:12:43Z</time>
      </trkpt>
      <trkpt lat="37.047031000256538" lon="-2.997986990958452">
        <ele>1484.8900000000001</ele>
        <time>2025-05-12T11:12:44Z</time>
      </trkpt>
      <trkpt lat="37.046922035515308" lon="-2.997862016782165">
        <ele>1483.9300000000001</ele>
        <time>2025-05-12T11:12:45Z</time>
      </trkpt>
      <trkpt lat="37.046817010268569" lon="-2.997741987928748">
        <ele>1482.97</ele>
        <time>2025-05-12T11:12:46Z</time>
      </trkpt>
      <trkpt lat="37.046691030263901" lon="-2.997706029564142">
        <ele>1482.01</ele>
        <time>2025-05-12T11:12:47Z</time>
      </trkpt>
      <trkpt lat="37.046559015288949" lon="-2.997684990987182">
        <ele>1481.05</ele>
        <time>2025-05-12T11:12:48Z</time>
      </trkpt>
      <trkpt lat="37.04639196395874" lon="-2.997658001258969">
        <ele>1480.0899999999999</ele>
        <time>2025-05-12T11:12:49Z</time>
      </trkpt>
      <trkpt lat="37.04628199338913" lon="-2.997658001258969">
        <ele>1478.6500000000001</ele>
        <time>2025-05-12T11:12:50Z</time>
      </trkpt>
      <trkpt lat="37.04615299589932" lon="-2.997692031785846">
        <ele>1477.2</ele>
        <time>2025-05-12T11:12:51Z</time>
      </trkpt>
      <trkpt lat="37.046056017279625" lon="-2.997765960171819">
        <ele>1476.24</ele>
        <time>2025-05-12T11:12:52Z</time>
      </trkpt>
      <trkpt lat="37.045983010903001" lon="-2.997855981811881">
        <ele>1475.28</ele>
        <time>2025-05-12T11:12:53Z</time>
      </trkpt>
      <trkpt lat="37.045933976769447" lon="-2.997971987351775">
        <ele>1474.8</ele>
        <time>2025-05-12T11:12:54Z</time>
      </trkpt>
      <trkpt lat="37.045885026454926" lon="-2.998091010376811">
        <ele>1474.3199999999999</ele>
        <time>2025-05-12T11:12:55Z</time>
      </trkpt>
      <trkpt lat="37.045803973451257" lon="-2.998172985389829">
        <ele>1473.3599999999999</ele>
        <time>2025-05-12T11:12:56Z</time>
      </trkpt>
      <trkpt lat="37.045705989003181" lon="-2.998258983716369">
        <ele>1472.8800000000001</ele>
        <time>2025-05-12T11:12:57Z</time>
      </trkpt>
      <trkpt lat="37.045600963756442" lon="-2.998294020071626">
        <ele>1471.9200000000001</ele>
        <time>2025-05-12T11:12:58Z</time>
      </trkpt>
      <trkpt lat="37.045476995408535" lon="-2.998335007578135">
        <ele>1470.95</ele>
        <time>2025-05-12T11:12:59Z</time>
      </trkpt>
      <trkpt lat="37.045352021232247" lon="-2.998366020619869">
        <ele>1469.99</ele>
        <time>2025-05-12T11:13:00Z</time>
      </trkpt>
      <trkpt lat="37.045226041227579" lon="-2.998366020619869">
        <ele>1469.03</ele>
        <time>2025-05-12T11:13:01Z</time>
      </trkpt>
      <trkpt lat="37.045125961303711" lon="-2.998334001749754">
        <ele>1468.0699999999999</ele>
        <time>2025-05-12T11:13:02Z</time>
      </trkpt>
      <trkpt lat="37.045023031532764" lon="-2.998283039778471">
        <ele>1467.1099999999999</ele>
        <time>2025-05-12T11:13:03Z</time>
      </trkpt>
      <trkpt lat="37.044921023771167" lon="-2.998211039230228">
        <ele>1466.6300000000001</ele>
        <time>2025-05-12T11:13:04Z</time>
      </trkpt>
      <trkpt lat="37.044807029888034" lon="-2.998112970963121">
        <ele>1465.6700000000001</ele>
        <time>2025-05-12T11:13:05Z</time>
      </trkpt>
      <trkpt lat="37.04469102434814" lon="-2.998011969029903">
        <ele>1465.1900000000001</ele>
        <time>2025-05-12T11:13:06Z</time>
      </trkpt>
      <trkpt lat="37.044617012143135" lon="-2.997897975146771">
        <ele>1464.23</ele>
        <time>2025-05-12T11:13:07Z</time>
      </trkpt>
      <trkpt lat="37.044552974402905" lon="-2.997759003192186">
        <ele>1463.26</ele>
        <time>2025-05-12T11:13:08Z</time>
      </trkpt>
      <trkpt lat="37.044418025761843" lon="-2.997464966028929">
        <ele>1461.3399999999999</ele>
        <time>2025-05-12T11:13:10Z</time>
      </trkpt>
      <trkpt lat="37.04430403187871" lon="-2.997325994074345">
        <ele>1460.3800000000001</ele>
        <time>2025-05-12T11:13:11Z</time>
      </trkpt>
      <trkpt lat="37.044224990531802" lon="-2.99722901545465">
        <ele>1458.9400000000001</ele>
        <time>2025-05-12T11:13:12Z</time>
      </trkpt>
      <trkpt lat="37.044072020798922" lon="-2.997164977714419">
        <ele>1457.98</ele>
        <time>2025-05-12T11:13:13Z</time>
      </trkpt>
      <trkpt lat="37.043946040794253" lon="-2.997112004086375">
        <ele>1456.53</ele>
        <time>2025-05-12T11:13:14Z</time>
      </trkpt>
      <trkpt lat="37.043827017769217" lon="-2.997061964124441">
        <ele>1455.0899999999999</ele>
        <time>2025-05-12T11:13:15Z</time>
      </trkpt>
      <trkpt lat="37.043717969208956" lon="-2.997016031295061">
        <ele>1453.6500000000001</ele>
        <time>2025-05-12T11:13:16Z</time>
      </trkpt>
      <trkpt lat="37.043615039438009" lon="-2.996974037960172">
        <ele>1452.6900000000001</ele>
        <time>2025-05-12T11:13:17Z</time>
      </trkpt>
      <trkpt lat="37.043531974777579" lon="-2.996908994391561">
        <ele>1451.73</ele>
        <time>2025-05-12T11:13:18Z</time>
      </trkpt>
      <trkpt lat="37.043457962572575" lon="-2.996797012165189">
        <ele>1450.77</ele>
        <time>2025-05-12T11:13:19Z</time>
      </trkpt>
      <trkpt lat="37.043373975902796" lon="-2.996671032160521">
        <ele>1449.8099999999999</ele>
        <time>2025-05-12T11:13:20Z</time>
      </trkpt>
      <trkpt lat="37.043284960091114" lon="-2.996538011357188">
        <ele>1448.8399999999999</ele>
        <time>2025-05-12T11:13:21Z</time>
      </trkpt>
      <trkpt lat="37.043168032541871" lon="-2.996444972231984">
        <ele>1447.8800000000001</ele>
        <time>2025-05-12T11:13:22Z</time>
      </trkpt>
      <trkpt lat="37.043025037273765" lon="-2.996402978897095">
        <ele>1446.4400000000001</ele>
        <time>2025-05-12T11:13:23Z</time>
      </trkpt>
      <trkpt lat="37.042870977893472" lon="-2.996365008875728">
        <ele>1445</ele>
        <time>2025-05-12T11:13:24Z</time>
      </trkpt>
      <trkpt lat="37.042723037302494" lon="-2.996327960863709">
        <ele>1444.04</ele>
        <time>2025-05-12T11:13:25Z</time>
      </trkpt>
      <trkpt lat="37.042596973478794" lon="-2.996280016377568">
        <ele>1443.0799999999999</ele>
        <time>2025-05-12T11:13:26Z</time>
      </trkpt>
      <trkpt lat="37.042508963495493" lon="-2.996221007779241">
        <ele>1442.1099999999999</ele>
        <time>2025-05-12T11:13:27Z</time>
      </trkpt>
      <trkpt lat="37.042448027059436" lon="-2.996099973097444">
        <ele>1441.1500000000001</ele>
        <time>2025-05-12T11:13:28Z</time>
      </trkpt>
      <trkpt lat="37.042413996532559" lon="-2.995977010577917">
        <ele>1440.6700000000001</ele>
        <time>2025-05-12T11:13:29Z</time>
      </trkpt>
      <trkpt lat="37.042393041774631" lon="-2.995813982561231">
        <ele>1439.71</ele>
        <time>2025-05-12T11:13:30Z</time>
      </trkpt>
      <trkpt lat="37.04237200319767" lon="-2.995641985908151">
        <ele>1438.75</ele>
        <time>2025-05-12T11:13:31Z</time>
      </trkpt>
      <trkpt lat="37.04235197044909" lon="-2.995480969548225">
        <ele>1438.27</ele>
        <time>2025-05-12T11:13:32Z</time>
      </trkpt>
      <trkpt lat="37.042310982942581" lon="-2.995329005643725">
        <ele>1437.3099999999999</ele>
        <time>2025-05-12T11:13:33Z</time>
      </trkpt>
      <trkpt lat="37.042238982394338" lon="-2.995236972346902">
        <ele>1436.3499999999999</ele>
        <time>2025-05-12T11:13:34Z</time>
      </trkpt>
      <trkpt lat="37.042154995724559" lon="-2.995172012597323">
        <ele>1434.9100000000001</ele>
        <time>2025-05-12T11:13:35Z</time>
      </trkpt>
      <trkpt lat="37.042053993791342" lon="-2.995180981233716">
        <ele>1433.9400000000001</ele>
        <time>2025-05-12T11:13:36Z</time>
      </trkpt>
      <trkpt lat="37.041932037100196" lon="-2.995202019810677">
        <ele>1432.5</ele>
        <time>2025-05-12T11:13:37Z</time>
      </trkpt>
      <trkpt lat="37.041808990761638" lon="-2.995279971510172">
        <ele>1432.02</ele>
        <time>2025-05-12T11:13:38Z</time>
      </trkpt>
      <trkpt lat="37.041674964129925" lon="-2.995363958179951">
        <ele>1431.0599999999999</ele>
        <time>2025-05-12T11:13:39Z</time>
      </trkpt>
      <trkpt lat="37.041539009660482" lon="-2.995450040325522">
        <ele>1430.0999999999999</ele>
        <time>2025-05-12T11:13:40Z</time>
      </trkpt>
      <trkpt lat="37.041403977200389" lon="-2.995535032823682">
        <ele>1429.6199999999999</ele>
        <time>2025-05-12T11:13:41Z</time>
      </trkpt>
      <trkpt lat="37.041123015806079" lon="-2.995686996728182">
        <ele>1427.21</ele>
        <time>2025-05-12T11:13:43Z</time>
      </trkpt>
      <trkpt lat="37.041003992781043" lon="-2.995753968134522">
        <ele>1426.25</ele>
        <time>2025-05-12T11:13:44Z</time>
      </trkpt>
      <trkpt lat="37.040936015546322" lon="-2.9958760086447">
        <ele>1424.8099999999999</ele>
        <time>2025-05-12T11:13:45Z</time>
      </trkpt>
      <trkpt lat="37.040883963927627" lon="-2.996007017791271">
        <ele>1423.8499999999999</ele>
        <time>2025-05-12T11:13:46Z</time>
      </trkpt>
      <trkpt lat="37.040853034704924" lon="-2.996143978089094">
        <ele>1422.8900000000001</ele>
        <time>2025-05-12T11:13:47Z</time>
      </trkpt>
      <trkpt lat="37.040810035541654" lon="-2.996257971972227">
        <ele>1421.9300000000001</ele>
        <time>2025-05-12T11:13:48Z</time>
      </trkpt>
      <trkpt lat="37.040736023336649" lon="-2.996354028582573">
        <ele>1420.97</ele>
        <time>2025-05-12T11:13:49Z</time>
      </trkpt>
      <trkpt lat="37.040614988654852" lon="-2.996401973068714">
        <ele>1420</ele>
        <time>2025-05-12T11:13:50Z</time>
      </trkpt>
      <trkpt lat="37.040467970073223" lon="-2.996459975838661">
        <ele>1419.04</ele>
        <time>2025-05-12T11:13:51Z</time>
      </trkpt>
      <trkpt lat="37.039268016815186" lon="-2.99675895832479">
        <ele>1411.3499999999999</ele>
        <time>2025-05-12T11:13:58Z</time>
      </trkpt>
      <trkpt lat="37.039114041253924" lon="-2.996786031872034">
        <ele>1409.9100000000001</ele>
        <time>2025-05-12T11:13:59Z</time>
      </trkpt>
      <trkpt lat="37.038971967995167" lon="-2.996845040470362">
        <ele>1408.95</ele>
        <time>2025-05-12T11:14:00Z</time>
      </trkpt>
      <trkpt lat="37.038850011304021" lon="-2.996937995776534">
        <ele>1407.51</ele>
        <time>2025-05-12T11:14:01Z</time>
      </trkpt>
      <trkpt lat="37.03872000798583" lon="-2.99703698605299">
        <ele>1406.55</ele>
        <time>2025-05-12T11:14:02Z</time>
      </trkpt>
      <trkpt lat="37.038584975525737" lon="-2.997138993814588">
        <ele>1405.0999999999999</ele>
        <time>2025-05-12T11:14:03Z</time>
      </trkpt>
      <trkpt lat="37.038456983864307" lon="-2.997235972434282">
        <ele>1403.6600000000001</ele>
        <time>2025-05-12T11:14:04Z</time>
      </trkpt>
      <trkpt lat="37.038320023566484" lon="-2.997307972982526">
        <ele>1402.22</ele>
        <time>2025-05-12T11:14:05Z</time>
      </trkpt>
      <trkpt lat="37.038167975842953" lon="-2.99735801294446">
        <ele>1401.26</ele>
        <time>2025-05-12T11:14:06Z</time>
      </trkpt>
      <trkpt lat="37.038016011938453" lon="-2.99735801294446">
        <ele>1399.8199999999999</ele>
        <time>2025-05-12T11:14:07Z</time>
      </trkpt>
      <trkpt lat="37.037867987528443" lon="-2.997356001287699">
        <ele>1398.3699999999999</ele>
        <time>2025-05-12T11:14:08Z</time>
      </trkpt>
      <trkpt lat="37.037718035280704" lon="-2.997303027659655">
        <ele>1396.9300000000001</ele>
        <time>2025-05-12T11:14:09Z</time>
      </trkpt>
      <trkpt lat="37.037565987557173" lon="-2.997248964384198">
        <ele>1395.49</ele>
        <time>2025-05-12T11:14:10Z</time>
      </trkpt>
      <trkpt lat="37.037427015602589" lon="-2.997170006856322">
        <ele>1394.05</ele>
        <time>2025-05-12T11:14:11Z</time>
      </trkpt>
      <trkpt lat="37.037306986749172" lon="-2.997081996873021">
        <ele>1392.6099999999999</ele>
        <time>2025-05-12T11:14:12Z</time>
      </trkpt>
      <trkpt lat="37.037214031443" lon="-2.996961968019605">
        <ele>1391.1700000000001</ele>
        <time>2025-05-12T11:14:13Z</time>
      </trkpt>
      <trkpt lat="37.037100959569216" lon="-2.99677899107337">
        <ele>1390.2</ele>
        <time>2025-05-12T11:14:14Z</time>
      </trkpt>
      <trkpt lat="37.037047985941172" lon="-2.996639013290405">
        <ele>1389.24</ele>
        <time>2025-05-12T11:14:15Z</time>
      </trkpt>
      <trkpt lat="37.036981014534831" lon="-2.996462993323803">
        <ele>1387.8</ele>
        <time>2025-05-12T11:14:16Z</time>
      </trkpt>
      <trkpt lat="37.036921000108123" lon="-2.996302982792258">
        <ele>1386.8399999999999</ele>
        <time>2025-05-12T11:14:17Z</time>
      </trkpt>
      <trkpt lat="37.036869032308459" lon="-2.996166022494435">
        <ele>1385.8800000000001</ele>
        <time>2025-05-12T11:14:18Z</time>
      </trkpt>
      <trkpt lat="37.036778004840016" lon="-2.996119000017643">
        <ele>1384.4400000000001</ele>
        <time>2025-05-12T11:14:19Z</time>
      </trkpt>
      <trkpt lat="37.036693012341857" lon="-2.996106008067727">
        <ele>1383.47</ele>
        <time>2025-05-12T11:14:20Z</time>
      </trkpt>
      <trkpt lat="37.036598967388272" lon="-2.996165016666055">
        <ele>1382.03</ele>
        <time>2025-05-12T11:14:21Z</time>
      </trkpt>
      <trkpt lat="37.036516992375255" lon="-2.996267024427652">
        <ele>1380.5899999999999</ele>
        <time>2025-05-12T11:14:22Z</time>
      </trkpt>
      <trkpt lat="37.036465024575591" lon="-2.996403984725475">
        <ele>1379.1500000000001</ele>
        <time>2025-05-12T11:14:23Z</time>
      </trkpt>
      <trkpt lat="37.036440968513489" lon="-2.996559971943498">
        <ele>1378.1900000000001</ele>
        <time>2025-05-12T11:14:24Z</time>
      </trkpt>
      <trkpt lat="37.036450020968914" lon="-2.996709002181888">
        <ele>1377.23</ele>
        <time>2025-05-12T11:14:25Z</time>
      </trkpt>
      <trkpt lat="37.036478016525507" lon="-2.996850991621614">
        <ele>1375.78</ele>
        <time>2025-05-12T11:14:26Z</time>
      </trkpt>
      <trkpt lat="37.036551022902131" lon="-2.99695098772645">
        <ele>1374.8199999999999</ele>
        <time>2025-05-12T11:14:27Z</time>
      </trkpt>
      <trkpt lat="37.036638027057052" lon="-2.997072022408247">
        <ele>1373.8599999999999</ele>
        <time>2025-05-12T11:14:28Z</time>
      </trkpt>
      <trkpt lat="37.037293994799256" lon="-2.9979810398072">
        <ele>1368.5699999999999</ele>
        <time>2025-05-12T11:14:34Z</time>
      </trkpt>
      <trkpt lat="37.037401031702757" lon="-2.998128980398178">
        <ele>1367.6099999999999</ele>
        <time>2025-05-12T11:14:35Z</time>
      </trkpt>
      <trkpt lat="37.037546960636973" lon="-2.998211961239576">
        <ele>1366.1700000000001</ele>
        <time>2025-05-12T11:14:36Z</time>
      </trkpt>
      <trkpt lat="37.037676963955164" lon="-2.9982849676162">
        <ele>1364.73</ele>
        <time>2025-05-12T11:14:37Z</time>
      </trkpt>
      <trkpt lat="37.037813002243638" lon="-2.998332995921373">
        <ele>1363.29</ele>
        <time>2025-05-12T11:14:38Z</time>
      </trkpt>
      <trkpt lat="37.037957003340125" lon="-2.998352022841573">
        <ele>1361.8399999999999</ele>
        <time>2025-05-12T11:14:39Z</time>
      </trkpt>
      <trkpt lat="37.038107961416245" lon="-2.998372977599502">
        <ele>1360.8800000000001</ele>
        <time>2025-05-12T11:14:40Z</time>
      </trkpt>
      <trkpt lat="37.038260009139776" lon="-2.998408013954759">
        <ele>1359.9200000000001</ele>
        <time>2025-05-12T11:14:41Z</time>
      </trkpt>
      <trkpt lat="37.038407027721405" lon="-2.99847699701786">
        <ele>1358.96</ele>
        <time>2025-05-12T11:14:42Z</time>
      </trkpt>
      <trkpt lat="37.038668040186167" lon="-2.998559977859259">
        <ele>1357.52</ele>
        <time>2025-05-12T11:14:44Z</time>
      </trkpt>
      <trkpt lat="37.038772981613874" lon="-2.998527958989143">
        <ele>1356.5599999999999</ele>
        <time>2025-05-12T11:14:45Z</time>
      </trkpt>
      <trkpt lat="37.038872977718711" lon="-2.998478002846241">
        <ele>1356.0799999999999</ele>
        <time>2025-05-12T11:14:46Z</time>
      </trkpt>
      <trkpt lat="37.038964005187154" lon="-2.99843299202621">
        <ele>1355.5999999999999</ele>
        <time>2025-05-12T11:14:47Z</time>
      </trkpt>
      <trkpt lat="37.039023013785481" lon="-2.998468028381467">
        <ele>1355.1199999999999</ele>
        <time>2025-05-12T11:14:48Z</time>
      </trkpt>
      <trkpt lat="37.039076993241906" lon="-2.998502980917692">
        <ele>1354.6300000000001</ele>
        <time>2025-05-12T11:14:49Z</time>
      </trkpt>
      <trkpt lat="37.039073975756764" lon="-2.998551009222865">
        <ele>1354.1500000000001</ele>
        <time>2025-05-12T11:14:50Z</time>
      </trkpt>
      <trkpt lat="37.039025025442243" lon="-2.99862502142787">
        <ele>1353.6700000000001</ele>
        <time>2025-05-12T11:14:51Z</time>
      </trkpt>
      <trkpt lat="37.038947995752096" lon="-2.998662991449237">
        <ele>1352.71</ele>
        <time>2025-05-12T11:14:52Z</time>
      </trkpt>
      <trkpt lat="37.03882897272706" lon="-2.998695010319352">
        <ele>1351.27</ele>
        <time>2025-05-12T11:14:53Z</time>
      </trkpt>
      <trkpt lat="37.038695029914379" lon="-2.998704984784126">
        <ele>1350.3099999999999</ele>
        <time>2025-05-12T11:14:54Z</time>
      </trkpt>
      <trkpt lat="37.038550022989511" lon="-2.998695010319352">
        <ele>1349.3499999999999</ele>
        <time>2025-05-12T11:14:55Z</time>
      </trkpt>
      <trkpt lat="37.038410967215896" lon="-2.998686041682959">
        <ele>1348.3900000000001</ele>
        <time>2025-05-12T11:14:56Z</time>
      </trkpt>
      <trkpt lat="37.038279036059976" lon="-2.998676989227533">
        <ele>1347.4300000000001</ele>
        <time>2025-05-12T11:14:57Z</time>
      </trkpt>
      <trkpt lat="37.038158001378179" lon="-2.99866902641952">
        <ele>1345.98</ele>
        <time>2025-05-12T11:14:58Z</time>
      </trkpt>
      <trkpt lat="37.038070997223258" lon="-2.998749995604157">
        <ele>1345.02</ele>
        <time>2025-05-12T11:14:59Z</time>
      </trkpt>
      <trkpt lat="37.038006037473679" lon="-2.99884001724422">
        <ele>1344.0599999999999</ele>
        <time>2025-05-12T11:15:00Z</time>
      </trkpt>
      <trkpt lat="37.037944011390209" lon="-2.99892702139914">
        <ele>1343.0999999999999</ele>
        <time>2025-05-12T11:15:01Z</time>
      </trkpt>
      <trkpt lat="37.037875028327107" lon="-2.999020982533693">
        <ele>1342.6199999999999</ele>
        <time>2025-05-12T11:15:02Z</time>
      </trkpt>
      <trkpt lat="37.037784000858665" lon="-2.999102035537362">
        <ele>1342.1400000000001</ele>
        <time>2025-05-12T11:15:03Z</time>
      </trkpt>
      <trkpt lat="37.037674030289054" lon="-2.999180993065238">
        <ele>1341.1800000000001</ele>
        <time>2025-05-12T11:15:04Z</time>
      </trkpt>
      <trkpt lat="37.037551989778876" lon="-2.999267997220159">
        <ele>1340.22</ele>
        <time>2025-05-12T11:15:05Z</time>
      </trkpt>
      <trkpt lat="37.037442019209266" lon="-2.999267997220159">
        <ele>1339.25</ele>
        <time>2025-05-12T11:15:06Z</time>
      </trkpt>
      <trkpt lat="37.037321990355849" lon="-2.999241007491946">
        <ele>1338.77</ele>
        <time>2025-05-12T11:15:07Z</time>
      </trkpt>
      <trkpt lat="37.037200033664703" lon="-2.999201025813818">
        <ele>1337.8099999999999</ele>
        <time>2025-05-12T11:15:08Z</time>
      </trkpt>
      <trkpt lat="37.037075981497765" lon="-2.999159032478929">
        <ele>1337.3299999999999</ele>
        <time>2025-05-12T11:15:09Z</time>
      </trkpt>
      <trkpt lat="37.03695897012949" lon="-2.999155009165406">
        <ele>1335.8900000000001</ele>
        <time>2025-05-12T11:15:10Z</time>
      </trkpt>
      <trkpt lat="37.036865008994937" lon="-2.999181998893619">
        <ele>1334.9300000000001</ele>
        <time>2025-05-12T11:15:11Z</time>
      </trkpt>
      <trkpt lat="37.036847993731499" lon="-2.99927000887692">
        <ele>1333.49</ele>
        <time>2025-05-12T11:15:12Z</time>
      </trkpt>
      <trkpt lat="37.036831984296441" lon="-2.999347038567066">
        <ele>1332.52</ele>
        <time>2025-05-12T11:15:13Z</time>
      </trkpt>
      <trkpt lat="37.036852017045021" lon="-2.999425996094942">
        <ele>1331.5599999999999</ele>
        <time>2025-05-12T11:15:14Z</time>
      </trkpt>
      <trkpt lat="37.036940027028322" lon="-2.99950797110796">
        <ele>1330.5999999999999</ele>
        <time>2025-05-12T11:15:15Z</time>
      </trkpt>
      <trkpt lat="37.037059972062707" lon="-2.999562034383416">
        <ele>1330.1199999999999</ele>
        <time>2025-05-12T11:15:16Z</time>
      </trkpt>
      <trkpt lat="37.03719399869442" lon="-2.999604027718306">
        <ele>1329.1600000000001</ele>
        <time>2025-05-12T11:15:17Z</time>
      </trkpt>
      <trkpt lat="37.037331964820623" lon="-2.999631017446518">
        <ele>1328.6800000000001</ele>
        <time>2025-05-12T11:15:18Z</time>
      </trkpt>
      <trkpt lat="37.037445036694407" lon="-2.999653983861208">
        <ele>1327.72</ele>
        <time>2025-05-12T11:15:19Z</time>
      </trkpt>
      <trkpt lat="37.037588031962514" lon="-2.999618025496602">
        <ele>1327.24</ele>
        <time>2025-05-12T11:15:20Z</time>
      </trkpt>
      <trkpt lat="37.037702025845647" lon="-2.999589024111629">
        <ele>1326.28</ele>
        <time>2025-05-12T11:15:21Z</time>
      </trkpt>
      <trkpt lat="37.037778971716762" lon="-2.999502019956708">
        <ele>1325.3099999999999</ele>
        <time>2025-05-12T11:15:22Z</time>
      </trkpt>
      <trkpt lat="37.037852983921766" lon="-2.999417027458549">
        <ele>1324.8299999999999</ele>
        <time>2025-05-12T11:15:23Z</time>
      </trkpt>
      <trkpt lat="37.03792498447001" lon="-2.999334968626499">
        <ele>1324.3499999999999</ele>
        <time>2025-05-12T11:15:24Z</time>
      </trkpt>
      <trkpt lat="37.037987010553479" lon="-2.999263973906636">
        <ele>1323.8699999999999</ele>
        <time>2025-05-12T11:15:25Z</time>
      </trkpt>
      <trkpt lat="37.0380549877882" lon="-2.999263973906636">
        <ele>1323.3900000000001</ele>
        <time>2025-05-12T11:15:26Z</time>
      </trkpt>
      <trkpt lat="37.038119025528431" lon="-2.999285012483597">
        <ele>1322.9100000000001</ele>
        <time>2025-05-12T11:15:27Z</time>
      </trkpt>
      <trkpt lat="37.038131011649966" lon="-2.999353995546699">
        <ele>1322.4300000000001</ele>
        <time>2025-05-12T11:15:28Z</time>
      </trkpt>
      <trkpt lat="37.038131011649966" lon="-2.999438988044858">
        <ele>1321.95</ele>
        <time>2025-05-12T11:15:29Z</time>
      </trkpt>
      <trkpt lat="37.0380740147084" lon="-2.999510988593102">
        <ele>1321.47</ele>
        <time>2025-05-12T11:15:30Z</time>
      </trkpt>
      <trkpt lat="37.037993967533112" lon="-2.999587012454867">
        <ele>1320.51</ele>
        <time>2025-05-12T11:15:31Z</time>
      </trkpt>
      <trkpt lat="37.037899000570178" lon="-2.999663036316633">
        <ele>1319.55</ele>
        <time>2025-05-12T11:15:32Z</time>
      </trkpt>
      <trkpt lat="37.037330036982894" lon="-3.00008699297905">
        <ele>1315.7</ele>
        <time>2025-05-12T11:15:37Z</time>
      </trkpt>
      <trkpt lat="37.037250995635986" lon="-3.000125968828797">
        <ele>1314.74</ele>
        <time>2025-05-12T11:15:38Z</time>
      </trkpt>
      <trkpt lat="37.037098025903106" lon="-3.000096967443824">
        <ele>1313.78</ele>
        <time>2025-05-12T11:15:39Z</time>
      </trkpt>
      <trkpt lat="37.036974979564548" lon="-3.000072995200753">
        <ele>1313.3</ele>
        <time>2025-05-12T11:15:40Z</time>
      </trkpt>
      <trkpt lat="37.036855034530163" lon="-3.000050028786063">
        <ele>1312.3399999999999</ele>
        <time>2025-05-12T11:15:41Z</time>
      </trkpt>
      <trkpt lat="37.036404004320502" lon="-2.999848024919629">
        <ele>1309.45</ele>
        <time>2025-05-12T11:15:45Z</time>
      </trkpt>
      <trkpt lat="37.036305014044046" lon="-2.999773006886244">
        <ele>1308.49</ele>
        <time>2025-05-12T11:15:46Z</time>
      </trkpt>
      <trkpt lat="37.036222033202648" lon="-2.999662030488253">
        <ele>1308.01</ele>
        <time>2025-05-12T11:15:47Z</time>
      </trkpt>
      <trkpt lat="37.036136034876108" lon="-2.999547030776739">
        <ele>1307.05</ele>
        <time>2025-05-12T11:15:48Z</time>
      </trkpt>
      <trkpt lat="37.036064034327865" lon="-2.999387020245194">
        <ele>1306.0899999999999</ele>
        <time>2025-05-12T11:15:49Z</time>
      </trkpt>
      <trkpt lat="37.035869993269444" lon="-2.999111004173756">
        <ele>1304.6500000000001</ele>
        <time>2025-05-12T11:15:51Z</time>
      </trkpt>
      <trkpt lat="37.035753987729549" lon="-2.998975971713662">
        <ele>1303.2</ele>
        <time>2025-05-12T11:15:52Z</time>
      </trkpt>
      <trkpt lat="37.035498004406691" lon="-2.99873499199748">
        <ele>1301.28</ele>
        <time>2025-05-12T11:15:54Z</time>
      </trkpt>
      <trkpt lat="37.035369006916881" lon="-2.998615968972445">
        <ele>1300.3199999999999</ele>
        <time>2025-05-12T11:15:55Z</time>
      </trkpt>
      <trkpt lat="37.035245960578322" lon="-2.99849996343255">
        <ele>1299.3599999999999</ele>
        <time>2025-05-12T11:15:56Z</time>
      </trkpt>
      <trkpt lat="37.035134984180331" lon="-2.998374989256263">
        <ele>1298.4000000000001</ele>
        <time>2025-05-12T11:15:57Z</time>
      </trkpt>
      <trkpt lat="37.035066001117229" lon="-2.99819796346128">
        <ele>1297.4400000000001</ele>
        <time>2025-05-12T11:15:58Z</time>
      </trkpt>
      <trkpt lat="37.034995006397367" lon="-2.998018004000187">
        <ele>1296.48</ele>
        <time>2025-05-12T11:15:59Z</time>
      </trkpt>
      <trkpt lat="37.034927029162645" lon="-2.997846007347107">
        <ele>1295.51</ele>
        <time>2025-05-12T11:16:00Z</time>
      </trkpt>
      <trkpt lat="37.034870032221079" lon="-2.997701000422239">
        <ele>1294.55</ele>
        <time>2025-05-12T11:16:01Z</time>
      </trkpt>
      <trkpt lat="37.034783028066158" lon="-2.997599998489022">
        <ele>1293.5899999999999</ele>
        <time>2025-05-12T11:16:02Z</time>
      </trkpt>
      <trkpt lat="37.034707004204392" lon="-2.997555993497372">
        <ele>1293.1099999999999</ele>
        <time>2025-05-12T11:16:03Z</time>
      </trkpt>
      <trkpt lat="37.034590998664498" lon="-2.997572002932429">
        <ele>1293.1099999999999</ele>
        <time>2025-05-12T11:16:04Z</time>
      </trkpt>
      <trkpt lat="37.034518998116255" lon="-2.997631011530757">
        <ele>1292.6300000000001</ele>
        <time>2025-05-12T11:16:05Z</time>
      </trkpt>
      <trkpt lat="37.034410033375025" lon="-2.997720027342439">
        <ele>1292.6300000000001</ele>
        <time>2025-05-12T11:16:06Z</time>
      </trkpt>
      <trkpt lat="37.033806033432484" lon="-2.998138032853603">
        <ele>1291.6700000000001</ele>
        <time>2025-05-12T11:16:11Z</time>
      </trkpt>
      <trkpt lat="37.033681981265545" lon="-2.998147001489997">
        <ele>1291.1900000000001</ele>
        <time>2025-05-12T11:16:12Z</time>
      </trkpt>
      <trkpt lat="37.033531023189425" lon="-2.998139038681984">
        <ele>1290.23</ele>
        <time>2025-05-12T11:16:13Z</time>
      </trkpt>
      <trkpt lat="37.032372979447246" lon="-2.998069971799851">
        <ele>1283.98</ele>
        <time>2025-05-12T11:16:20Z</time>
      </trkpt>
      <trkpt lat="37.032270971685648" lon="-2.998032001778483">
        <ele>1283.02</ele>
        <time>2025-05-12T11:16:21Z</time>
      </trkpt>
      <trkpt lat="37.032194025814533" lon="-2.997973999008536">
        <ele>1283.02</ele>
        <time>2025-05-12T11:16:22Z</time>
      </trkpt>
      <trkpt lat="37.032133005559444" lon="-2.997909961268306">
        <ele>1282.54</ele>
        <time>2025-05-12T11:16:23Z</time>
      </trkpt>
      <trkpt lat="37.032096963375807" lon="-2.997826980426908">
        <ele>1282.0599999999999</ele>
        <time>2025-05-12T11:16:24Z</time>
      </trkpt>
      <trkpt lat="37.0320800319314" lon="-2.997786998748779">
        <ele>1282.0599999999999</ele>
        <time>2025-05-12T11:16:25Z</time>
      </trkpt>
      <trkpt lat="37.032094029709697" lon="-2.997678034007549">
        <ele>1281.5699999999999</ele>
        <time>2025-05-12T11:16:26Z</time>
      </trkpt>
      <trkpt lat="37.03210299834609" lon="-2.997602010145783">
        <ele>1281.5699999999999</ele>
        <time>2025-05-12T11:16:27Z</time>
      </trkpt>
      <trkpt lat="37.032111966982484" lon="-2.997527997940779">
        <ele>1281.5699999999999</ele>
        <time>2025-05-12T11:16:28Z</time>
      </trkpt>
      <trkpt lat="37.03212202526629" lon="-2.997454991564155">
        <ele>1281.5699999999999</ele>
        <time>2025-05-12T11:16:29Z</time>
      </trkpt>
      <trkpt lat="37.032139962539077" lon="-2.997309984639287">
        <ele>1281.0899999999999</ele>
        <time>2025-05-12T11:16:31Z</time>
      </trkpt>
      <trkpt lat="37.032115990296006" lon="-2.997225997969508">
        <ele>1281.0899999999999</ele>
        <time>2025-05-12T11:16:32Z</time>
      </trkpt>
      <trkpt lat="37.032078020274639" lon="-2.997164977714419">
        <ele>1280.6099999999999</ele>
        <time>2025-05-12T11:16:33Z</time>
      </trkpt>
      <trkpt lat="37.032024040818214" lon="-2.997103035449982">
        <ele>1280.1300000000001</ele>
        <time>2025-05-12T11:16:34Z</time>
      </trkpt>
      <trkpt lat="37.031966038048267" lon="-2.997116027399898">
        <ele>1279.6500000000001</ele>
        <time>2025-05-12T11:16:35Z</time>
      </trkpt>
      <trkpt lat="37.031905017793179" lon="-2.997129019349814">
        <ele>1279.1700000000001</ele>
        <time>2025-05-12T11:16:36Z</time>
      </trkpt>
      <trkpt lat="37.031838968396187" lon="-2.99714301712811">
        <ele>1279.1700000000001</ele>
        <time>2025-05-12T11:16:37Z</time>
      </trkpt>
      <trkpt lat="37.031767973676324" lon="-2.997158020734787">
        <ele>1278.6900000000001</ele>
        <time>2025-05-12T11:16:38Z</time>
      </trkpt>
      <trkpt lat="37.031697984784842" lon="-2.997157014906406">
        <ele>1278.21</ele>
        <time>2025-05-12T11:16:39Z</time>
      </trkpt>
      <trkpt lat="37.03156596980989" lon="-2.997128013521433">
        <ele>1277.25</ele>
        <time>2025-05-12T11:16:41Z</time>
      </trkpt>
      <trkpt lat="37.031435966491699" lon="-2.99710001796484">
        <ele>1275.8099999999999</ele>
        <time>2025-05-12T11:16:43Z</time>
      </trkpt>
      <trkpt lat="37.031400008127093" lon="-2.997063975781202">
        <ele>1275.3299999999999</ele>
        <time>2025-05-12T11:16:44Z</time>
      </trkpt>
      <trkpt lat="37.03135097399354" lon="-2.997015025466681">
        <ele>1274.8499999999999</ele>
        <time>2025-05-12T11:16:45Z</time>
      </trkpt>
      <trkpt lat="37.031330019235611" lon="-2.996951993554831">
        <ele>1273.8800000000001</ele>
        <time>2025-05-12T11:16:46Z</time>
      </trkpt>
      <trkpt lat="37.03130504116416" lon="-2.996873036026955">
        <ele>1273.4000000000001</ele>
        <time>2025-05-12T11:16:47Z</time>
      </trkpt>
      <trkpt lat="37.031278973445296" lon="-2.996793994680047">
        <ele>1272.9200000000001</ele>
        <time>2025-05-12T11:16:48Z</time>
      </trkpt>
      <trkpt lat="37.031230023130774" lon="-2.996640019118786">
        <ele>1271.48</ele>
        <time>2025-05-12T11:16:50Z</time>
      </trkpt>
      <trkpt lat="37.031107982620597" lon="-2.996299965307117">
        <ele>1269.0799999999999</ele>
        <time>2025-05-12T11:16:55Z</time>
      </trkpt>
      <trkpt lat="37.031075041741133" lon="-2.99624196253717">
        <ele>1268.1199999999999</ele>
        <time>2025-05-12T11:16:56Z</time>
      </trkpt>
      <trkpt lat="37.03096398152411" lon="-2.996049011126161">
        <ele>1265.23</ele>
        <time>2025-05-12T11:17:00Z</time>
      </trkpt>
      <trkpt lat="37.03096398152411" lon="-2.995991008356214">
        <ele>1264.75</ele>
        <time>2025-05-12T11:17:01Z</time>
      </trkpt>
      <trkpt lat="37.03096398152411" lon="-2.995926970615983">
        <ele>1264.27</ele>
        <time>2025-05-12T11:17:02Z</time>
      </trkpt>
      <trkpt lat="37.03096398152411" lon="-2.995863016694784">
        <ele>1263.3099999999999</ele>
        <time>2025-05-12T11:17:03Z</time>
      </trkpt>
      <trkpt lat="37.03096398152411" lon="-2.995798978954554">
        <ele>1262.3499999999999</ele>
        <time>2025-05-12T11:17:04Z</time>
      </trkpt>
      <trkpt lat="37.03096398152411" lon="-2.995734019204974">
        <ele>1261.3900000000001</ele>
        <time>2025-05-12T11:17:05Z</time>
      </trkpt>
      <trkpt lat="37.030974961817265" lon="-2.995659001171589">
        <ele>1260.9100000000001</ele>
        <time>2025-05-12T11:17:06Z</time>
      </trkpt>
      <trkpt lat="37.030994994565845" lon="-2.995606027543545">
        <ele>1260.4300000000001</ele>
        <time>2025-05-12T11:17:07Z</time>
      </trkpt>
      <trkpt lat="37.031075041741133" lon="-2.995407041162252">
        <ele>1258.98</ele>
        <time>2025-05-12T11:17:10Z</time>
      </trkpt>
      <trkpt lat="37.031090967357159" lon="-2.995344009250403">
        <ele>1258.5</ele>
        <time>2025-05-12T11:17:11Z</time>
      </trkpt>
      <trkpt lat="37.031084010377526" lon="-2.995277037844062">
        <ele>1258.02</ele>
        <time>2025-05-12T11:17:12Z</time>
      </trkpt>
      <trkpt lat="37.031077975407243" lon="-2.995222974568605">
        <ele>1257.54</ele>
        <time>2025-05-12T11:17:13Z</time>
      </trkpt>
      <trkpt lat="37.031045034527779" lon="-2.995159020647407">
        <ele>1257.0599999999999</ele>
        <time>2025-05-12T11:17:14Z</time>
      </trkpt>
      <trkpt lat="37.03096398152411" lon="-2.995125995948911">
        <ele>1256.5799999999999</ele>
        <time>2025-05-12T11:17:15Z</time>
      </trkpt>
      <trkpt lat="37.030923999845982" lon="-2.995138987898827">
        <ele>1256.0999999999999</ele>
        <time>2025-05-12T11:17:16Z</time>
      </trkpt>
      <trkpt lat="37.030860967934132" lon="-2.995158014819026">
        <ele>1255.6199999999999</ele>
        <time>2025-05-12T11:17:17Z</time>
      </trkpt>
      <trkpt lat="37.030793996527791" lon="-2.995178969576955">
        <ele>1255.1400000000001</ele>
        <time>2025-05-12T11:17:18Z</time>
      </trkpt>
      <trkpt lat="37.030465006828308" lon="-2.995259016752243">
        <ele>1253.7</ele>
        <time>2025-05-12T11:17:23Z</time>
      </trkpt>
      <trkpt lat="37.030413961037993" lon="-2.995267985388637">
        <ele>1253.22</ele>
        <time>2025-05-12T11:17:24Z</time>
      </trkpt>
      <trkpt lat="37.030355958268046" lon="-2.995277959853411">
        <ele>1252.74</ele>
        <time>2025-05-12T11:17:25Z</time>
      </trkpt>
      <trkpt lat="37.030298039317131" lon="-2.995287012308836">
        <ele>1252.25</ele>
        <time>2025-05-12T11:17:26Z</time>
      </trkpt>
      <trkpt lat="37.030228972434998" lon="-2.995294975116849">
        <ele>1251.77</ele>
        <time>2025-05-12T11:17:27Z</time>
      </trkpt>
      <trkpt lat="37.030179016292095" lon="-2.995269997045398">
        <ele>1251.29</ele>
        <time>2025-05-12T11:17:28Z</time>
      </trkpt>
      <trkpt lat="37.030050018802285" lon="-2.995207970961928">
        <ele>1250.3299999999999</ele>
        <time>2025-05-12T11:17:31Z</time>
      </trkpt>
      <trkpt lat="37.030008025467396" lon="-2.995193973183632">
        <ele>1249.8499999999999</ele>
        <time>2025-05-12T11:17:32Z</time>
      </trkpt>
      <trkpt lat="37.029967959970236" lon="-2.995179975405335">
        <ele>1249.3699999999999</ele>
        <time>2025-05-12T11:17:33Z</time>
      </trkpt>
      <trkpt lat="37.029924960806966" lon="-2.995165977627039">
        <ele>1248.4100000000001</ele>
        <time>2025-05-12T11:17:34Z</time>
      </trkpt>
      <trkpt lat="37.029869975522161" lon="-2.995148040354252">
        <ele>1247.9300000000001</ele>
        <time>2025-05-12T11:17:35Z</time>
      </trkpt>
      <trkpt lat="37.029840974137187" lon="-2.995139993727207">
        <ele>1247.9300000000001</ele>
        <time>2025-05-12T11:17:36Z</time>
      </trkpt>
      <trkpt lat="37.029798980802298" lon="-2.995128007605672">
        <ele>1246.97</ele>
        <time>2025-05-12T11:17:37Z</time>
      </trkpt>
      <trkpt lat="37.02976000495255" lon="-2.995116021484137">
        <ele>1246.97</ele>
        <time>2025-05-12T11:17:38Z</time>
      </trkpt>
      <trkpt lat="37.029720023274422" lon="-2.995105041190982">
        <ele>1246.49</ele>
        <time>2025-05-12T11:17:39Z</time>
      </trkpt>
      <trkpt lat="37.029622960835695" lon="-2.995060030370951">
        <ele>1245.53</ele>
        <time>2025-05-12T11:17:41Z</time>
      </trkpt>
      <trkpt lat="37.029510978609324" lon="-2.995008984580636">
        <ele>1245.04</ele>
        <time>2025-05-12T11:17:43Z</time>
      </trkpt>
      <trkpt lat="37.02939597889781" lon="-2.994933966547251">
        <ele>1245.04</ele>
        <time>2025-05-12T11:17:45Z</time>
      </trkpt>
      <trkpt lat="37.029347028583288" lon="-2.994889039546251">
        <ele>1244.5599999999999</ele>
        <time>2025-05-12T11:17:46Z</time>
      </trkpt>
      <trkpt lat="37.029210990294814" lon="-2.994762975722551">
        <ele>1245.04</ele>
        <time>2025-05-12T11:17:49Z</time>
      </trkpt>
      <trkpt lat="37.029139995574951" lon="-2.994697010144591">
        <ele>1244.5599999999999</ele>
        <time>2025-05-12T11:17:50Z</time>
      </trkpt>
      <trkpt lat="37.029125997796655" lon="-2.994696004316211">
        <ele>1244.5599999999999</ele>
        <time>2025-05-12T11:17:51Z</time>
      </trkpt>
      <trkpt lat="37.029060032218695" lon="-2.994691981002688">
        <ele>1245.04</ele>
        <time>2025-05-12T11:17:52Z</time>
      </trkpt>
      <trkpt lat="37.028997000306845" lon="-2.994687035679817">
        <ele>1245.04</ele>
        <time>2025-05-12T11:17:53Z</time>
      </trkpt>
      <trkpt lat="37.028933968394995" lon="-2.994682006537914">
        <ele>1245.04</ele>
        <time>2025-05-12T11:17:54Z</time>
      </trkpt>
      <trkpt lat="37.028873031958938" lon="-2.994677983224392">
        <ele>1245.04</ele>
        <time>2025-05-12T11:17:55Z</time>
      </trkpt>
      <trkpt lat="37.028840007260442" lon="-2.994675971567631">
        <ele>1245.04</ele>
        <time>2025-05-12T11:17:56Z</time>
      </trkpt>
      <trkpt lat="37.028777981176972" lon="-2.994649987667799">
        <ele>1245.04</ele>
        <time>2025-05-12T11:17:57Z</time>
      </trkpt>
      <trkpt lat="37.028733976185322" lon="-2.99463196657598">
        <ele>1245.53</ele>
        <time>2025-05-12T11:17:58Z</time>
      </trkpt>
      <trkpt lat="37.028687037527561" lon="-2.994612017646432">
        <ele>1245.53</ele>
        <time>2025-05-12T11:17:59Z</time>
      </trkpt>
      <trkpt lat="37.028635991737247" lon="-2.994590979069471">
        <ele>1246.01</ele>
        <time>2025-05-12T11:18:00Z</time>
      </trkpt>
      <trkpt lat="37.028582012280822" lon="-2.994568012654781">
        <ele>1246.01</ele>
        <time>2025-05-12T11:18:01Z</time>
      </trkpt>
      <trkpt lat="37.028534989804029" lon="-2.994525013491511">
        <ele>1246.01</ele>
        <time>2025-05-12T11:18:02Z</time>
      </trkpt>
      <trkpt lat="37.028331980109215" lon="-2.994360979646444">
        <ele>1246.97</ele>
        <time>2025-05-12T11:18:06Z</time>
      </trkpt>
      <trkpt lat="37.02821203507483" lon="-2.994310017675161">
        <ele>1246.97</ele>
        <time>2025-05-12T11:18:08Z</time>
      </trkpt>
      <trkpt lat="37.028150008991361" lon="-2.99428503960371">
        <ele>1246.97</ele>
        <time>2025-05-12T11:18:09Z</time>
      </trkpt>
      <trkpt lat="37.02808496542275" lon="-2.994262995198369">
        <ele>1246.97</ele>
        <time>2025-05-12T11:18:10Z</time>
      </trkpt>
      <trkpt lat="37.027951022610068" lon="-2.994233993813396">
        <ele>1246.97</ele>
        <time>2025-05-12T11:18:12Z</time>
      </trkpt>
      <trkpt lat="37.027350040152669" lon="-2.994124023243785">
        <ele>1247.45</ele>
        <time>2025-05-12T11:18:20Z</time>
      </trkpt>
      <trkpt lat="37.027270998805761" lon="-2.994086975231767">
        <ele>1246.97</ele>
        <time>2025-05-12T11:18:21Z</time>
      </trkpt>
      <trkpt lat="37.027009986341" lon="-2.993908021599054">
        <ele>1245.53</ele>
        <time>2025-05-12T11:18:25Z</time>
      </trkpt>
      <trkpt lat="37.026951983571053" lon="-2.993868961930275">
        <ele>1245.04</ele>
        <time>2025-05-12T11:18:26Z</time>
      </trkpt>
      <trkpt lat="37.026879983022809" lon="-2.993848007172346">
        <ele>1245.04</ele>
        <time>2025-05-12T11:18:27Z</time>
      </trkpt>
      <trkpt lat="37.026808988302946" lon="-2.993871979415417">
        <ele>1244.5599999999999</ele>
        <time>2025-05-12T11:18:28Z</time>
      </trkpt>
      <trkpt lat="37.026733970269561" lon="-2.993930988013744">
        <ele>1244.0799999999999</ele>
        <time>2025-05-12T11:18:29Z</time>
      </trkpt>
      <trkpt lat="37.026662975549698" lon="-2.994008017703891">
        <ele>1243.1199999999999</ele>
        <time>2025-05-12T11:18:30Z</time>
      </trkpt>
      <trkpt lat="37.026587035506964" lon="-2.994089992716909">
        <ele>1242.6400000000001</ele>
        <time>2025-05-12T11:18:31Z</time>
      </trkpt>
      <trkpt lat="37.026415960863233" lon="-2.99424204044044">
        <ele>1242.1600000000001</ele>
        <time>2025-05-12T11:18:33Z</time>
      </trkpt>
      <trkpt lat="37.026324011385441" lon="-2.994305994361639">
        <ele>1241.6800000000001</ele>
        <time>2025-05-12T11:18:34Z</time>
      </trkpt>
      <trkpt lat="37.026233989745378" lon="-2.994341030716896">
        <ele>1241.6800000000001</ele>
        <time>2025-05-12T11:18:35Z</time>
      </trkpt>
      <trkpt lat="37.026141034439206" lon="-2.994356034323573">
        <ele>1241.2</ele>
        <time>2025-05-12T11:18:36Z</time>
      </trkpt>
      <trkpt lat="37.026028968393803" lon="-2.994374977424741">
        <ele>1240.72</ele>
        <time>2025-05-12T11:18:37Z</time>
      </trkpt>
      <trkpt lat="37.025952022522688" lon="-2.994358967989683">
        <ele>1240.24</ele>
        <time>2025-05-12T11:18:38Z</time>
      </trkpt>
      <trkpt lat="37.025854960083961" lon="-2.994339019060135">
        <ele>1239.76</ele>
        <time>2025-05-12T11:18:39Z</time>
      </trkpt>
      <trkpt lat="37.025492023676634" lon="-2.994219996035099">
        <ele>1237.8299999999999</ele>
        <time>2025-05-12T11:18:43Z</time>
      </trkpt>
      <trkpt lat="37.025404013693333" lon="-2.994172973558307">
        <ele>1237.8299999999999</ele>
        <time>2025-05-12T11:18:44Z</time>
      </trkpt>
      <trkpt lat="37.025319021195173" lon="-2.994109019637108">
        <ele>1237.8299999999999</ele>
        <time>2025-05-12T11:18:45Z</time>
      </trkpt>
      <trkpt lat="37.025244003161788" lon="-2.994008017703891">
        <ele>1238.3199999999999</ele>
        <time>2025-05-12T11:18:46Z</time>
      </trkpt>
      <trkpt lat="37.025167979300022" lon="-2.993906009942293">
        <ele>1238.3199999999999</ele>
        <time>2025-05-12T11:18:47Z</time>
      </trkpt>
      <trkpt lat="37.024848964065313" lon="-2.993438970297575">
        <ele>1238.3199999999999</ele>
        <time>2025-05-12T11:18:51Z</time>
      </trkpt>
      <trkpt lat="37.024787021800876" lon="-2.993294969201088">
        <ele>1238.8</ele>
        <time>2025-05-12T11:18:52Z</time>
      </trkpt>
      <trkpt lat="37.024664981290698" lon="-2.993009984493256">
        <ele>1239.28</ele>
        <time>2025-05-12T11:18:54Z</time>
      </trkpt>
      <trkpt lat="37.024584012106061" lon="-2.992904037237167">
        <ele>1239.28</ele>
        <time>2025-05-12T11:18:55Z</time>
      </trkpt>
      <trkpt lat="37.024491978809237" lon="-2.992843016982079">
        <ele>1239.28</ele>
        <time>2025-05-12T11:18:56Z</time>
      </trkpt>
      <trkpt lat="37.024393994361162" lon="-2.99282600171864">
        <ele>1239.76</ele>
        <time>2025-05-12T11:18:57Z</time>
      </trkpt>
      <trkpt lat="37.024286035448313" lon="-2.992865983396769">
        <ele>1239.76</ele>
        <time>2025-05-12T11:18:58Z</time>
      </trkpt>
      <trkpt lat="37.024165000766516" lon="-2.9929109942168">
        <ele>1239.76</ele>
        <time>2025-05-12T11:18:59Z</time>
      </trkpt>
      <trkpt lat="37.024033991619945" lon="-2.992959022521973">
        <ele>1239.76</ele>
        <time>2025-05-12T11:19:00Z</time>
      </trkpt>
      <trkpt lat="37.023886973038316" lon="-2.992951981723309">
        <ele>1240.24</ele>
        <time>2025-05-12T11:19:01Z</time>
      </trkpt>
      <trkpt lat="37.023730985820293" lon="-2.992945024743676">
        <ele>1240.24</ele>
        <time>2025-05-12T11:19:02Z</time>
      </trkpt>
      <trkpt lat="37.023231005296111" lon="-2.99284896813333">
        <ele>1239.76</ele>
        <time>2025-05-12T11:19:05Z</time>
      </trkpt>
      <trkpt lat="37.023064959794283" lon="-2.992785014212132">
        <ele>1239.28</ele>
        <time>2025-05-12T11:19:06Z</time>
      </trkpt>
      <trkpt lat="37.022895980626345" lon="-2.992724999785423">
        <ele>1238.3199999999999</ele>
        <time>2025-05-12T11:19:07Z</time>
      </trkpt>
      <trkpt lat="37.022728007286787" lon="-2.99267303198576">
        <ele>1237.8299999999999</ele>
        <time>2025-05-12T11:19:08Z</time>
      </trkpt>
      <trkpt lat="37.022556010633707" lon="-2.992643024772406">
        <ele>1237.3499999999999</ele>
        <time>2025-05-12T11:19:09Z</time>
      </trkpt>
      <trkpt lat="37.022377979010344" lon="-2.992636989802122">
        <ele>1236.3900000000001</ele>
        <time>2025-05-12T11:19:10Z</time>
      </trkpt>
      <trkpt lat="37.022195002064109" lon="-2.992636989802122">
        <ele>1235.9100000000001</ele>
        <time>2025-05-12T11:19:11Z</time>
      </trkpt>
      <trkpt lat="37.02099597081542" lon="-2.992617040872574">
        <ele>1232.55</ele>
        <time>2025-05-12T11:19:18Z</time>
      </trkpt>
      <trkpt lat="37.020850041881204" lon="-2.992570018395782">
        <ele>1232.0699999999999</ele>
        <time>2025-05-12T11:19:19Z</time>
      </trkpt>
      <trkpt lat="37.020706962794065" lon="-2.99250396899879">
        <ele>1232.55</ele>
        <time>2025-05-12T11:19:20Z</time>
      </trkpt>
      <trkpt lat="37.020567990839481" lon="-2.99241797067225">
        <ele>1232.55</ele>
        <time>2025-05-12T11:19:21Z</time>
      </trkpt>
      <trkpt lat="37.020424995571375" lon="-2.992330966517329">
        <ele>1233.03</ele>
        <time>2025-05-12T11:19:22Z</time>
      </trkpt>
      <trkpt lat="37.019633995369077" lon="-2.991849007084966">
        <ele>1233.99</ele>
        <time>2025-05-12T11:19:27Z</time>
      </trkpt>
      <trkpt lat="37.019326966255903" lon="-2.991598974913359">
        <ele>1233.51</ele>
        <time>2025-05-12T11:19:29Z</time>
      </trkpt>
      <trkpt lat="37.019151030108333" lon="-2.991524040699005">
        <ele>1233.51</ele>
        <time>2025-05-12T11:19:30Z</time>
      </trkpt>
      <trkpt lat="37.018807958811522" lon="-2.991366963833571">
        <ele>1233.99</ele>
        <time>2025-05-12T11:19:32Z</time>
      </trkpt>
      <trkpt lat="37.018667981028557" lon="-2.991254981607199">
        <ele>1234.47</ele>
        <time>2025-05-12T11:19:33Z</time>
      </trkpt>
      <trkpt lat="37.018563039600849" lon="-2.991122966632247">
        <ele>1234.47</ele>
        <time>2025-05-12T11:19:34Z</time>
      </trkpt>
      <trkpt lat="37.018464971333742" lon="-2.990971002727747">
        <ele>1235.4300000000001</ele>
        <time>2025-05-12T11:19:35Z</time>
      </trkpt>
      <trkpt lat="37.018377967178822" lon="-2.990805041044951">
        <ele>1236.3900000000001</ele>
        <time>2025-05-12T11:19:36Z</time>
      </trkpt>
      <trkpt lat="37.018331028521061" lon="-2.990601025521755">
        <ele>1237.8299999999999</ele>
        <time>2025-05-12T11:19:37Z</time>
      </trkpt>
      <trkpt lat="37.018284006044269" lon="-2.990400027483702">
        <ele>1238.8</ele>
        <time>2025-05-12T11:19:38Z</time>
      </trkpt>
      <trkpt lat="37.018241006880999" lon="-2.990217972546816">
        <ele>1240.24</ele>
        <time>2025-05-12T11:19:39Z</time>
      </trkpt>
      <trkpt lat="37.01816095970571" lon="-2.990068020299077">
        <ele>1241.2</ele>
        <time>2025-05-12T11:19:40Z</time>
      </trkpt>
      <trkpt lat="37.018058029934764" lon="-2.989944973960519">
        <ele>1242.1600000000001</ele>
        <time>2025-05-12T11:19:41Z</time>
      </trkpt>
      <trkpt lat="37.017917968332767" lon="-2.989861993119121">
        <ele>1243.1199999999999</ele>
        <time>2025-05-12T11:19:42Z</time>
      </trkpt>
      <trkpt lat="37.017767010256648" lon="-2.989771971479058">
        <ele>1244.0799999999999</ele>
        <time>2025-05-12T11:19:43Z</time>
      </trkpt>
      <trkpt lat="37.017605993896723" lon="-2.989677004516125">
        <ele>1245.04</ele>
        <time>2025-05-12T11:19:44Z</time>
      </trkpt>
      <trkpt lat="37.01729997061193" lon="-2.989423032850027">
        <ele>1246.97</ele>
        <time>2025-05-12T11:19:46Z</time>
      </trkpt>
      <trkpt lat="37.017178013920784" lon="-2.98927903175354">
        <ele>1247.9300000000001</ele>
        <time>2025-05-12T11:19:47Z</time>
      </trkpt>
      <trkpt lat="37.016967041417956" lon="-2.989032017067075">
        <ele>1249.3699999999999</ele>
        <time>2025-05-12T11:19:49Z</time>
      </trkpt>
      <trkpt lat="37.016837960109115" lon="-2.988973008468747">
        <ele>1250.3299999999999</ele>
        <time>2025-05-12T11:19:50Z</time>
      </trkpt>
      <trkpt lat="37.016694964841008" lon="-2.988948030397296">
        <ele>1250.3299999999999</ele>
        <time>2025-05-12T11:19:51Z</time>
      </trkpt>
      <trkpt lat="37.016565967351198" lon="-2.988924980163574">
        <ele>1250.8099999999999</ele>
        <time>2025-05-12T11:19:52Z</time>
      </trkpt>
      <trkpt lat="37.016400005668402" lon="-2.988835964351893">
        <ele>1251.29</ele>
        <time>2025-05-12T11:19:53Z</time>
      </trkpt>
      <trkpt lat="37.016260027885437" lon="-2.98876203596592">
        <ele>1251.77</ele>
        <time>2025-05-12T11:19:54Z</time>
      </trkpt>
      <trkpt lat="37.016173023730516" lon="-2.988650975748897">
        <ele>1252.25</ele>
        <time>2025-05-12T11:19:55Z</time>
      </trkpt>
      <trkpt lat="37.016093982383609" lon="-2.988538993522525">
        <ele>1252.74</ele>
        <time>2025-05-12T11:19:56Z</time>
      </trkpt>
      <trkpt lat="37.016049977391958" lon="-2.988373031839728">
        <ele>1253.22</ele>
        <time>2025-05-12T11:19:57Z</time>
      </trkpt>
      <trkpt lat="37.015999015420675" lon="-2.988195000216365">
        <ele>1253.7</ele>
        <time>2025-05-12T11:19:58Z</time>
      </trkpt>
      <trkpt lat="37.015921985730529" lon="-2.988015040755272">
        <ele>1253.7</ele>
        <time>2025-05-12T11:19:59Z</time>
      </trkpt>
      <trkpt lat="37.015836993232369" lon="-2.987817982211709">
        <ele>1254.6600000000001</ele>
        <time>2025-05-12T11:20:00Z</time>
      </trkpt>
      <trkpt lat="37.015710007399321" lon="-2.987636011093855">
        <ele>1254.6600000000001</ele>
        <time>2025-05-12T11:20:01Z</time>
      </trkpt>
      <trkpt lat="37.015567012131214" lon="-2.987458985298872">
        <ele>1255.1400000000001</ele>
        <time>2025-05-12T11:20:02Z</time>
      </trkpt>
      <trkpt lat="37.015418987721205" lon="-2.987275002524257">
        <ele>1255.1400000000001</ele>
        <time>2025-05-12T11:20:03Z</time>
      </trkpt>
      <trkpt lat="37.014723038300872" lon="-2.986369002610445">
        <ele>1258.02</ele>
        <time>2025-05-12T11:20:08Z</time>
      </trkpt>
      <trkpt lat="37.014646008610725" lon="-2.98618895933032">
        <ele>1258.98</ele>
        <time>2025-05-12T11:20:09Z</time>
      </trkpt>
      <trkpt lat="37.01457099057734" lon="-2.985963989049196">
        <ele>1259.46</ele>
        <time>2025-05-12T11:20:10Z</time>
      </trkpt>
      <trkpt lat="37.01457099057734" lon="-2.985794004052877">
        <ele>1259.9400000000001</ele>
        <time>2025-05-12T11:20:11Z</time>
      </trkpt>
      <trkpt lat="37.01457099057734" lon="-2.985600968822837">
        <ele>1259.9400000000001</ele>
        <time>2025-05-12T11:20:12Z</time>
      </trkpt>
      <trkpt lat="37.01457099057734" lon="-2.985444981604815">
        <ele>1259.9400000000001</ele>
        <time>2025-05-12T11:20:13Z</time>
      </trkpt>
      <trkpt lat="37.014513993635774" lon="-2.98532897606492">
        <ele>1259.9400000000001</ele>
        <time>2025-05-12T11:20:14Z</time>
      </trkpt>
      <trkpt lat="37.014415003359318" lon="-2.985260998830199">
        <ele>1259.9400000000001</ele>
        <time>2025-05-12T11:20:15Z</time>
      </trkpt>
      <trkpt lat="37.01429002918303" lon="-2.985231997445226">
        <ele>1259.9400000000001</ele>
        <time>2025-05-12T11:20:16Z</time>
      </trkpt>
      <trkpt lat="37.014143010601401" lon="-2.985227974131703">
        <ele>1259.9400000000001</ele>
        <time>2025-05-12T11:20:17Z</time>
      </trkpt>
      <trkpt lat="37.01399196870625" lon="-2.98526301048696">
        <ele>1259.9400000000001</ele>
        <time>2025-05-12T11:20:18Z</time>
      </trkpt>
      <trkpt lat="37.013841010630131" lon="-2.985298968851566">
        <ele>1259.46</ele>
        <time>2025-05-12T11:20:19Z</time>
      </trkpt>
      <trkpt lat="37.013702038675547" lon="-2.985298968851566">
        <ele>1258.98</ele>
        <time>2025-05-12T11:20:20Z</time>
      </trkpt>
      <trkpt lat="37.013566000387073" lon="-2.98526200465858">
        <ele>1258.5</ele>
        <time>2025-05-12T11:20:21Z</time>
      </trkpt>
      <trkpt lat="37.013419987633824" lon="-2.985175000503659">
        <ele>1258.02</ele>
        <time>2025-05-12T11:20:22Z</time>
      </trkpt>
      <trkpt lat="37.013273974880576" lon="-2.985065029934049">
        <ele>1258.02</ele>
        <time>2025-05-12T11:20:23Z</time>
      </trkpt>
      <trkpt lat="37.013155035674572" lon="-2.984910970553756">
        <ele>1258.5</ele>
        <time>2025-05-12T11:20:24Z</time>
      </trkpt>
      <trkpt lat="37.013041041791439" lon="-2.984761018306017">
        <ele>1258.98</ele>
        <time>2025-05-12T11:20:25Z</time>
      </trkpt>
      <trkpt lat="37.012985972687602" lon="-2.984575023874641">
        <ele>1258.98</ele>
        <time>2025-05-12T11:20:26Z</time>
      </trkpt>
      <trkpt lat="37.012941967695951" lon="-2.984391041100025">
        <ele>1259.9400000000001</ele>
        <time>2025-05-12T11:20:27Z</time>
      </trkpt>
      <trkpt lat="37.012911038473248" lon="-2.984199011698365">
        <ele>1260.9100000000001</ele>
        <time>2025-05-12T11:20:28Z</time>
      </trkpt>
      <trkpt lat="37.012895029038191" lon="-2.984006982296705">
        <ele>1262.3499999999999</ele>
        <time>2025-05-12T11:20:29Z</time>
      </trkpt>
      <trkpt lat="37.012835014611483" lon="-2.983478000387549">
        <ele>1265.23</ele>
        <time>2025-05-12T11:20:32Z</time>
      </trkpt>
      <trkpt lat="37.012762008234859" lon="-2.983324024826288">
        <ele>1265.71</ele>
        <time>2025-05-12T11:20:33Z</time>
      </trkpt>
      <trkpt lat="37.012482974678278" lon="-2.982714995741844">
        <ele>1269.0799999999999</ele>
        <time>2025-05-12T11:20:37Z</time>
      </trkpt>
      <trkpt lat="37.012454979121685" lon="-2.982574012130499">
        <ele>1270.04</ele>
        <time>2025-05-12T11:20:38Z</time>
      </trkpt>
      <trkpt lat="37.012481968849897" lon="-2.982423976063728">
        <ele>1270.52</ele>
        <time>2025-05-12T11:20:39Z</time>
      </trkpt>
      <trkpt lat="37.012535026296973" lon="-2.982263965532184">
        <ele>1271</ele>
        <time>2025-05-12T11:20:40Z</time>
      </trkpt>
      <trkpt lat="37.012629993259907" lon="-2.982123987749219">
        <ele>1271.48</ele>
        <time>2025-05-12T11:20:41Z</time>
      </trkpt>
      <trkpt lat="37.01274499297142" lon="-2.98199599608779">
        <ele>1271.96</ele>
        <time>2025-05-12T11:20:42Z</time>
      </trkpt>
      <trkpt lat="37.012854041531682" lon="-2.981874039396644">
        <ele>1272.4400000000001</ele>
        <time>2025-05-12T11:20:43Z</time>
      </trkpt>
      <trkpt lat="37.013038024306297" lon="-2.981669018045068">
        <ele>1273.4000000000001</ele>
        <time>2025-05-12T11:20:45Z</time>
      </trkpt>
      <trkpt lat="37.013112036511302" lon="-2.98158603720367">
        <ele>1273.8800000000001</ele>
        <time>2025-05-12T11:20:46Z</time>
      </trkpt>
      <trkpt lat="37.013121005147696" lon="-2.981456033885479">
        <ele>1274.3599999999999</ele>
        <time>2025-05-12T11:20:47Z</time>
      </trkpt>
      <trkpt lat="37.013132991269231" lon="-2.981285965070128">
        <ele>1274.8499999999999</ele>
        <time>2025-05-12T11:20:48Z</time>
      </trkpt>
      <trkpt lat="37.013054033741355" lon="-2.981175994500518">
        <ele>1275.3299999999999</ele>
        <time>2025-05-12T11:20:49Z</time>
      </trkpt>
      <trkpt lat="37.012940961867571" lon="-2.981087984517217">
        <ele>1275.8099999999999</ele>
        <time>2025-05-12T11:20:50Z</time>
      </trkpt>
      <trkpt lat="37.012804001569748" lon="-2.981045991182327">
        <ele>1276.29</ele>
        <time>2025-05-12T11:20:51Z</time>
      </trkpt>
      <trkpt lat="37.0126579888165" lon="-2.981037022545934">
        <ele>1277.25</ele>
        <time>2025-05-12T11:20:52Z</time>
      </trkpt>
      <trkpt lat="37.012508036568761" lon="-2.981017995625734">
        <ele>1277.73</ele>
        <time>2025-05-12T11:20:53Z</time>
      </trkpt>
      <trkpt lat="37.012367974966764" lon="-2.980954041704536">
        <ele>1278.21</ele>
        <time>2025-05-12T11:20:54Z</time>
      </trkpt>
      <trkpt lat="37.012244006618857" lon="-2.980868965387344">
        <ele>1278.6900000000001</ele>
        <time>2025-05-12T11:20:55Z</time>
      </trkpt>
      <trkpt lat="37.01214199885726" lon="-2.980754971504211">
        <ele>1279.1700000000001</ele>
        <time>2025-05-12T11:20:56Z</time>
      </trkpt>
      <trkpt lat="37.012104028835893" lon="-2.980589009821415">
        <ele>1279.6500000000001</ele>
        <time>2025-05-12T11:20:57Z</time>
      </trkpt>
      <trkpt lat="37.012094976380467" lon="-2.980413995683193">
        <ele>1280.1300000000001</ele>
        <time>2025-05-12T11:20:58Z</time>
      </trkpt>
      <trkpt lat="37.012131018564105" lon="-2.98021400347352">
        <ele>1280.1300000000001</ele>
        <time>2025-05-12T11:20:59Z</time>
      </trkpt>
      <trkpt lat="37.012195978313684" lon="-2.980015017092228">
        <ele>1280.6099999999999</ele>
        <time>2025-05-12T11:21:00Z</time>
      </trkpt>
      <trkpt lat="37.012284994125366" lon="-2.979815024882555">
        <ele>1281.0899999999999</ele>
        <time>2025-05-12T11:21:01Z</time>
      </trkpt>
      <trkpt lat="37.012373004108667" lon="-2.979616960510612">
        <ele>1282.0599999999999</ele>
        <time>2025-05-12T11:21:02Z</time>
      </trkpt>
      <trkpt lat="37.012454979121685" lon="-2.979430966079235">
        <ele>1282.54</ele>
        <time>2025-05-12T11:21:03Z</time>
      </trkpt>
      <trkpt lat="37.012498984113336" lon="-2.979255029931665">
        <ele>1282.54</ele>
        <time>2025-05-12T11:21:04Z</time>
      </trkpt>
      <trkpt lat="37.012506024912" lon="-2.979100970551372">
        <ele>1283.02</ele>
        <time>2025-05-12T11:21:05Z</time>
      </trkpt>
      <trkpt lat="37.0124869979918" lon="-2.978963004425168">
        <ele>1283.02</ele>
        <time>2025-05-12T11:21:06Z</time>
      </trkpt>
      <trkpt lat="37.012425977736712" lon="-2.978826966136694">
        <ele>1283.5</ele>
        <time>2025-05-12T11:21:07Z</time>
      </trkpt>
      <trkpt lat="37.012361017987132" lon="-2.978681037202478">
        <ele>1283.5</ele>
        <time>2025-05-12T11:21:08Z</time>
      </trkpt>
      <trkpt lat="37.012293040752411" lon="-2.978527983650565">
        <ele>1283.98</ele>
        <time>2025-05-12T11:21:09Z</time>
      </trkpt>
      <trkpt lat="37.012232020497322" lon="-2.978371996432543">
        <ele>1283.98</ele>
        <time>2025-05-12T11:21:10Z</time>
      </trkpt>
      <trkpt lat="37.012232020497322" lon="-2.978178961202502">
        <ele>1283.98</ele>
        <time>2025-05-12T11:21:11Z</time>
      </trkpt>
      <trkpt lat="37.012258004397154" lon="-2.977985003963113">
        <ele>1284.46</ele>
        <time>2025-05-12T11:21:12Z</time>
      </trkpt>
      <trkpt lat="37.012307960540056" lon="-2.977781994268298">
        <ele>1284.46</ele>
        <time>2025-05-12T11:21:13Z</time>
      </trkpt>
      <trkpt lat="37.012361017987132" lon="-2.977574039250612">
        <ele>1284.46</ele>
        <time>2025-05-12T11:21:14Z</time>
      </trkpt>
      <trkpt lat="37.012418014928699" lon="-2.977347979322076">
        <ele>1284.9400000000001</ele>
        <time>2025-05-12T11:21:15Z</time>
      </trkpt>
      <trkpt lat="37.012478029355407" lon="-2.977117979899049">
        <ele>1284.9400000000001</ele>
        <time>2025-05-12T11:21:16Z</time>
      </trkpt>
      <trkpt lat="37.012618007138371" lon="-2.976446002721787">
        <ele>1285.9000000000001</ele>
        <time>2025-05-12T11:21:19Z</time>
      </trkpt>
      <trkpt lat="37.01261599548161" lon="-2.976257996633649">
        <ele>1285.4200000000001</ele>
        <time>2025-05-12T11:21:20Z</time>
      </trkpt>
      <trkpt lat="37.012537959963083" lon="-2.976133022457361">
        <ele>1284.9400000000001</ele>
        <time>2025-05-12T11:21:21Z</time>
      </trkpt>
      <trkpt lat="37.012450033798814" lon="-2.976032020524144">
        <ele>1284.46</ele>
        <time>2025-05-12T11:21:22Z</time>
      </trkpt>
      <trkpt lat="37.012351965531707" lon="-2.975920038297772">
        <ele>1284.46</ele>
        <time>2025-05-12T11:21:23Z</time>
      </trkpt>
      <trkpt lat="37.012241994962096" lon="-2.975793974474073">
        <ele>1283.98</ele>
        <time>2025-05-12T11:21:24Z</time>
      </trkpt>
      <trkpt lat="37.012140993028879" lon="-2.97563698142767">
        <ele>1283.98</ele>
        <time>2025-05-12T11:21:25Z</time>
      </trkpt>
      <trkpt lat="37.012066980823874" lon="-2.975433971732855">
        <ele>1284.46</ele>
        <time>2025-05-12T11:21:26Z</time>
      </trkpt>
      <trkpt lat="37.012001015245914" lon="-2.975211013108492">
        <ele>1284.46</ele>
        <time>2025-05-12T11:21:27Z</time>
      </trkpt>
      <trkpt lat="37.011957010254264" lon="-2.97497003339231">
        <ele>1285.4200000000001</ele>
        <time>2025-05-12T11:21:28Z</time>
      </trkpt>
      <trkpt lat="37.011919040232897" lon="-2.97471103258431">
        <ele>1285.9000000000001</ele>
        <time>2025-05-12T11:21:29Z</time>
      </trkpt>
      <trkpt lat="37.011890038847923" lon="-2.974440967664123">
        <ele>1286.8599999999999</ele>
        <time>2025-05-12T11:21:30Z</time>
      </trkpt>
      <trkpt lat="37.011847961694002" lon="-2.973691038787365">
        <ele>1290.23</ele>
        <time>2025-05-12T11:21:33Z</time>
      </trkpt>
      <trkpt lat="37.011880986392498" lon="-2.973482999950647">
        <ele>1291.1900000000001</ele>
        <time>2025-05-12T11:21:34Z</time>
      </trkpt>
      <trkpt lat="37.01194703578949" lon="-2.973317038267851">
        <ele>1292.6300000000001</ele>
        <time>2025-05-12T11:21:35Z</time>
      </trkpt>
      <trkpt lat="37.012054994702339" lon="-2.973172031342983">
        <ele>1293.5899999999999</ele>
        <time>2025-05-12T11:21:36Z</time>
      </trkpt>
      <trkpt lat="37.012169994413853" lon="-2.97301503829658">
        <ele>1295.03</ele>
        <time>2025-05-12T11:21:37Z</time>
      </trkpt>
      <trkpt lat="37.012317012995481" lon="-2.97288503497839">
        <ele>1296.96</ele>
        <time>2025-05-12T11:21:38Z</time>
      </trkpt>
      <trkpt lat="37.012478029355407" lon="-2.972771041095257">
        <ele>1298.8800000000001</ele>
        <time>2025-05-12T11:21:39Z</time>
      </trkpt>
      <trkpt lat="37.012647008523345" lon="-2.972684036940336">
        <ele>1300.3199999999999</ele>
        <time>2025-05-12T11:21:40Z</time>
      </trkpt>
      <trkpt lat="37.01281095854938" lon="-2.972639026120305">
        <ele>1302.24</ele>
        <time>2025-05-12T11:21:41Z</time>
      </trkpt>
      <trkpt lat="37.012960994616151" lon="-2.972639026120305">
        <ele>1304.1700000000001</ele>
        <time>2025-05-12T11:21:42Z</time>
      </trkpt>
      <trkpt lat="37.0130879804492" lon="-2.972711026668549">
        <ele>1304.6500000000001</ele>
        <time>2025-05-12T11:21:43Z</time>
      </trkpt>
      <trkpt lat="37.013213038444519" lon="-2.972813034430146">
        <ele>1305.6099999999999</ele>
        <time>2025-05-12T11:21:44Z</time>
      </trkpt>
      <trkpt lat="37.013355027884245" lon="-2.972935996949673">
        <ele>1306.5699999999999</ele>
        <time>2025-05-12T11:21:45Z</time>
      </trkpt>
      <trkpt lat="37.013503974303603" lon="-2.973066000267863">
        <ele>1307.53</ele>
        <time>2025-05-12T11:21:46Z</time>
      </trkpt>
      <trkpt lat="37.01366700232029" lon="-2.973161973059177">
        <ele>1308.49</ele>
        <time>2025-05-12T11:21:47Z</time>
      </trkpt>
      <trkpt lat="37.013842016458511" lon="-2.97318703494966">
        <ele>1309.45</ele>
        <time>2025-05-12T11:21:48Z</time>
      </trkpt>
      <trkpt lat="37.014030022546649" lon="-2.973172031342983">
        <ele>1310.4100000000001</ele>
        <time>2025-05-12T11:21:49Z</time>
      </trkpt>
      <trkpt lat="37.014219034463167" lon="-2.97312299720943">
        <ele>1311.3800000000001</ele>
        <time>2025-05-12T11:21:50Z</time>
      </trkpt>
      <trkpt lat="37.014394970610738" lon="-2.973069017753005">
        <ele>1311.8599999999999</ele>
        <time>2025-05-12T11:21:51Z</time>
      </trkpt>
      <trkpt lat="37.014553975313902" lon="-2.973068011924624">
        <ele>1312.3399999999999</ele>
        <time>2025-05-12T11:21:52Z</time>
      </trkpt>
      <trkpt lat="37.014808030799031" lon="-2.973010009154677">
        <ele>1312.3399999999999</ele>
        <time>2025-05-12T11:21:54Z</time>
      </trkpt>
      <trkpt lat="37.014905009418726" lon="-2.972923004999757">
        <ele>1312.3399999999999</ele>
        <time>2025-05-12T11:21:55Z</time>
      </trkpt>
      <trkpt lat="37.01495798304677" lon="-2.97279903665185">
        <ele>1312.3399999999999</ele>
        <time>2025-05-12T11:21:56Z</time>
      </trkpt>
      <trkpt lat="37.014997964724898" lon="-2.972627962008119">
        <ele>1311.8599999999999</ele>
        <time>2025-05-12T11:21:57Z</time>
      </trkpt>
      <trkpt lat="37.015041969716549" lon="-2.972442973405123">
        <ele>1311.3800000000001</ele>
        <time>2025-05-12T11:21:58Z</time>
      </trkpt>
      <trkpt lat="37.0150859747082" lon="-2.972253039479256">
        <ele>1310.9000000000001</ele>
        <time>2025-05-12T11:21:59Z</time>
      </trkpt>
      <trkpt lat="37.015177002176642" lon="-2.9718760214746">
        <ele>1310.4100000000001</ele>
        <time>2025-05-12T11:22:01Z</time>
      </trkpt>
      <trkpt lat="37.01523601077497" lon="-2.971736965700984">
        <ele>1309.9300000000001</ele>
        <time>2025-05-12T11:22:02Z</time>
      </trkpt>
      <trkpt lat="37.015380011871457" lon="-2.971611991524696">
        <ele>1309.9300000000001</ele>
        <time>2025-05-12T11:22:03Z</time>
      </trkpt>
      <trkpt lat="37.01551697216928" lon="-2.97149196267128">
        <ele>1309.45</ele>
        <time>2025-05-12T11:22:04Z</time>
      </trkpt>
      <trkpt lat="37.015658961609006" lon="-2.971366988494992">
        <ele>1308.97</ele>
        <time>2025-05-12T11:22:05Z</time>
      </trkpt>
      <trkpt lat="37.015793994069099" lon="-2.971248971298337">
        <ele>1308.49</ele>
        <time>2025-05-12T11:22:06Z</time>
      </trkpt>
      <trkpt lat="37.015904970467091" lon="-2.971151992678642">
        <ele>1308.49</ele>
        <time>2025-05-12T11:22:07Z</time>
      </trkpt>
      <trkpt lat="37.015934977680445" lon="-2.971051996573806">
        <ele>1308.01</ele>
        <time>2025-05-12T11:22:08Z</time>
      </trkpt>
      <trkpt lat="37.015936989337206" lon="-2.970946971327066">
        <ele>1307.53</ele>
        <time>2025-05-12T11:22:09Z</time>
      </trkpt>
      <trkpt lat="37.015913017094135" lon="-2.970825014635921">
        <ele>1306.5699999999999</ele>
        <time>2025-05-12T11:22:10Z</time>
      </trkpt>
      <trkpt lat="37.015886027365923" lon="-2.970681013539434">
        <ele>1305.6099999999999</ele>
        <time>2025-05-12T11:22:11Z</time>
      </trkpt>
      <trkpt lat="37.015861971303821" lon="-2.970518991351128">
        <ele>1305.1300000000001</ele>
        <time>2025-05-12T11:22:12Z</time>
      </trkpt>
      <trkpt lat="37.0159010309726" lon="-2.970335008576512">
        <ele>1304.1700000000001</ele>
        <time>2025-05-12T11:22:13Z</time>
      </trkpt>
      <trkpt lat="37.015988035127521" lon="-2.96992102637887">
        <ele>1302.24</ele>
        <time>2025-05-12T11:22:15Z</time>
      </trkpt>
      <trkpt lat="37.015995997935534" lon="-2.96970896422863">
        <ele>1301.28</ele>
        <time>2025-05-12T11:22:16Z</time>
      </trkpt>
      <trkpt lat="37.015974959358573" lon="-2.96951299533248">
        <ele>1300.3199999999999</ele>
        <time>2025-05-12T11:22:17Z</time>
      </trkpt>
      <trkpt lat="37.015955010429025" lon="-2.969325995072722">
        <ele>1299.8399999999999</ele>
        <time>2025-05-12T11:22:18Z</time>
      </trkpt>
      <trkpt lat="37.01596699655056" lon="-2.969158021733165">
        <ele>1298.8800000000001</ele>
        <time>2025-05-12T11:22:19Z</time>
      </trkpt>
      <trkpt lat="37.016031034290791" lon="-2.969004968181253">
        <ele>1297.9200000000001</ele>
        <time>2025-05-12T11:22:20Z</time>
      </trkpt>
      <trkpt lat="37.016137987375259" lon="-2.968865996226668">
        <ele>1297.4400000000001</ele>
        <time>2025-05-12T11:22:21Z</time>
      </trkpt>
      <trkpt lat="37.016257010400295" lon="-2.968729035928845">
        <ele>1296.48</ele>
        <time>2025-05-12T11:22:22Z</time>
      </trkpt>
      <trkpt lat="37.016394976526499" lon="-2.968626022338867">
        <ele>1295.99</ele>
        <time>2025-05-12T11:22:23Z</time>
      </trkpt>
      <trkpt lat="37.016551969572902" lon="-2.968573970720172">
        <ele>1295.03</ele>
        <time>2025-05-12T11:22:24Z</time>
      </trkpt>
      <trkpt lat="37.016708040609956" lon="-2.968522002920508">
        <ele>1294.0699999999999</ele>
        <time>2025-05-12T11:22:25Z</time>
      </trkpt>
      <trkpt lat="37.016852041706443" lon="-2.968473974615336">
        <ele>1293.5899999999999</ele>
        <time>2025-05-12T11:22:26Z</time>
      </trkpt>
      <trkpt lat="37.016954971477389" lon="-2.968391999602318">
        <ele>1292.6300000000001</ele>
        <time>2025-05-12T11:22:27Z</time>
      </trkpt>
      <trkpt lat="37.017036024481058" lon="-2.968281023204327">
        <ele>1291.6700000000001</ele>
        <time>2025-05-12T11:22:28Z</time>
      </trkpt>
      <trkpt lat="37.01706301420927" lon="-2.96814096160233">
        <ele>1291.1900000000001</ele>
        <time>2025-05-12T11:22:29Z</time>
      </trkpt>
      <trkpt lat="37.017030995339155" lon="-2.967998972162604">
        <ele>1290.23</ele>
        <time>2025-05-12T11:22:30Z</time>
      </trkpt>
      <trkpt lat="37.016965029761195" lon="-2.967887995764613">
        <ele>1289.75</ele>
        <time>2025-05-12T11:22:31Z</time>
      </trkpt>
      <trkpt lat="37.016867967322469" lon="-2.967791017144918">
        <ele>1289.27</ele>
        <time>2025-05-12T11:22:32Z</time>
      </trkpt>
      <trkpt lat="37.016765037551522" lon="-2.967681968584657">
        <ele>1289.27</ele>
        <time>2025-05-12T11:22:33Z</time>
      </trkpt>
      <trkpt lat="37.016663029789925" lon="-2.967541990801692">
        <ele>1289.27</ele>
        <time>2025-05-12T11:22:34Z</time>
      </trkpt>
      <trkpt lat="37.016206970438361" lon="-2.966916030272842">
        <ele>1289.27</ele>
        <time>2025-05-12T11:22:38Z</time>
      </trkpt>
      <trkpt lat="37.016126001253724" lon="-2.966731963679195">
        <ele>1289.27</ele>
        <time>2025-05-12T11:22:39Z</time>
      </trkpt>
      <trkpt lat="37.016043020412326" lon="-2.966537000611424">
        <ele>1289.27</ele>
        <time>2025-05-12T11:22:40Z</time>
      </trkpt>
      <trkpt lat="37.015484031289816" lon="-2.965329000726342">
        <ele>1290.23</ele>
        <time>2025-05-12T11:22:46Z</time>
      </trkpt>
      <trkpt lat="37.015342963859439" lon="-2.965177958831191">
        <ele>1290.23</ele>
        <time>2025-05-12T11:22:47Z</time>
      </trkpt>
      <trkpt lat="37.015200974419713" lon="-2.965024989098311">
        <ele>1290.23</ele>
        <time>2025-05-12T11:22:48Z</time>
      </trkpt>
      <trkpt lat="37.014787998050451" lon="-2.964578988030553">
        <ele>1289.27</ele>
        <time>2025-05-12T11:22:51Z</time>
      </trkpt>
      <trkpt lat="37.014686996117234" lon="-2.964429035782814">
        <ele>1289.27</ele>
        <time>2025-05-12T11:22:52Z</time>
      </trkpt>
      <trkpt lat="37.01463301666081" lon="-2.964263996109366">
        <ele>1288.78</ele>
        <time>2025-05-12T11:22:53Z</time>
      </trkpt>
      <trkpt lat="37.014622958377004" lon="-2.964068027213216">
        <ele>1288.3</ele>
        <time>2025-05-12T11:22:54Z</time>
      </trkpt>
      <trkpt lat="37.01461398974061" lon="-2.963857976719737">
        <ele>1287.8199999999999</ele>
        <time>2025-05-12T11:22:55Z</time>
      </trkpt>
      <trkpt lat="37.014622958377004" lon="-2.963625965639949">
        <ele>1286.8599999999999</ele>
        <time>2025-05-12T11:22:56Z</time>
      </trkpt>
      <trkpt lat="37.014818005263805" lon="-2.961710030212998">
        <ele>1276.77</ele>
        <time>2025-05-12T11:23:04Z</time>
      </trkpt>
      <trkpt lat="37.014884976670146" lon="-2.961511965841055">
        <ele>1275.3299999999999</ele>
        <time>2025-05-12T11:23:05Z</time>
      </trkpt>
      <trkpt lat="37.014977009966969" lon="-2.961317002773285">
        <ele>1273.8800000000001</ele>
        <time>2025-05-12T11:23:06Z</time>
      </trkpt>
      <trkpt lat="37.015072982758284" lon="-2.961126985028386">
        <ele>1272.9200000000001</ele>
        <time>2025-05-12T11:23:07Z</time>
      </trkpt>
      <trkpt lat="37.015174990519881" lon="-2.960937973111868">
        <ele>1271</ele>
        <time>2025-05-12T11:23:08Z</time>
      </trkpt>
      <trkpt lat="37.015352016314864" lon="-2.960560033097863">
        <ele>1268.1199999999999</ele>
        <time>2025-05-12T11:23:10Z</time>
      </trkpt>
      <trkpt lat="37.01540800742805" lon="-2.960363980382681">
        <ele>1266.6700000000001</ele>
        <time>2025-05-12T11:23:11Z</time>
      </trkpt>
      <trkpt lat="37.015453018248081" lon="-2.960171028971672">
        <ele>1264.75</ele>
        <time>2025-05-12T11:23:12Z</time>
      </trkpt>
      <trkpt lat="37.015468021854758" lon="-2.9599520098418">
        <ele>1263.79</ele>
        <time>2025-05-12T11:23:13Z</time>
      </trkpt>
      <trkpt lat="37.015484031289816" lon="-2.959728967398405">
        <ele>1262.3499999999999</ele>
        <time>2025-05-12T11:23:14Z</time>
      </trkpt>
      <trkpt lat="37.015499034896493" lon="-2.959503997117281">
        <ele>1261.3900000000001</ele>
        <time>2025-05-12T11:23:15Z</time>
      </trkpt>
      <trkpt lat="37.015514960512519" lon="-2.959270980209112">
        <ele>1259.9400000000001</ele>
        <time>2025-05-12T11:23:16Z</time>
      </trkpt>
      <trkpt lat="37.015571035444736" lon="-2.959069982171059">
        <ele>1258.5</ele>
        <time>2025-05-12T11:23:17Z</time>
      </trkpt>
      <trkpt lat="37.01568603515625" lon="-2.958660023286939">
        <ele>1255.1400000000001</ele>
        <time>2025-05-12T11:23:19Z</time>
      </trkpt>
      <trkpt lat="37.015757029876113" lon="-2.95847000554204">
        <ele>1253.7</ele>
        <time>2025-05-12T11:23:20Z</time>
      </trkpt>
      <trkpt lat="37.015940006822348" lon="-2.958128023892641">
        <ele>1251.29</ele>
        <time>2025-05-12T11:23:22Z</time>
      </trkpt>
      <trkpt lat="37.016042014583945" lon="-2.957975976169109">
        <ele>1249.8499999999999</ele>
        <time>2025-05-12T11:23:23Z</time>
      </trkpt>
      <trkpt lat="37.016173023730516" lon="-2.957866005599499">
        <ele>1248.4100000000001</ele>
        <time>2025-05-12T11:23:24Z</time>
      </trkpt>
      <trkpt lat="37.016313001513481" lon="-2.957756035029888">
        <ele>1246.97</ele>
        <time>2025-05-12T11:23:25Z</time>
      </trkpt>
      <trkpt lat="37.01646002009511" lon="-2.957650003954768">
        <ele>1245.53</ele>
        <time>2025-05-12T11:23:26Z</time>
      </trkpt>
      <trkpt lat="37.017273986712098" lon="-2.957104006782174">
        <ele>1239.28</ele>
        <time>2025-05-12T11:23:32Z</time>
      </trkpt>
      <trkpt lat="37.017309023067355" lon="-2.957011973485351">
        <ele>1238.3199999999999</ele>
        <time>2025-05-12T11:23:33Z</time>
      </trkpt>
      <trkpt lat="37.017339030280709" lon="-2.956931004300714">
        <ele>1237.3499999999999</ele>
        <time>2025-05-12T11:23:34Z</time>
      </trkpt>
      <trkpt lat="37.017354033887386" lon="-2.956706034019589">
        <ele>1236.3900000000001</ele>
        <time>2025-05-12T11:23:36Z</time>
      </trkpt>
      <trkpt lat="37.017379011958838" lon="-2.956576030701399">
        <ele>1235.4300000000001</ele>
        <time>2025-05-12T11:23:37Z</time>
      </trkpt>
      <trkpt lat="37.017441038042307" lon="-2.956462036818266">
        <ele>1234.95</ele>
        <time>2025-05-12T11:23:38Z</time>
      </trkpt>
      <trkpt lat="37.017527036368847" lon="-2.956350976601243">
        <ele>1233.99</ele>
        <time>2025-05-12T11:23:39Z</time>
      </trkpt>
      <trkpt lat="37.01764103025198" lon="-2.956281993538141">
        <ele>1233.51</ele>
        <time>2025-05-12T11:23:40Z</time>
      </trkpt>
      <trkpt lat="37.017757035791874" lon="-2.956247041001916">
        <ele>1233.03</ele>
        <time>2025-05-12T11:23:41Z</time>
      </trkpt>
      <trkpt lat="37.01787899248302" lon="-2.956252992153168">
        <ele>1232.0699999999999</ele>
        <time>2025-05-12T11:23:42Z</time>
      </trkpt>
      <trkpt lat="37.018013019114733" lon="-2.956260032951832">
        <ele>1231.1099999999999</ele>
        <time>2025-05-12T11:23:43Z</time>
      </trkpt>
      <trkpt lat="37.018154002726078" lon="-2.956265984103084">
        <ele>1230.1400000000001</ele>
        <time>2025-05-12T11:23:44Z</time>
      </trkpt>
      <trkpt lat="37.018296997994184" lon="-2.95621301047504">
        <ele>1229.1800000000001</ele>
        <time>2025-05-12T11:23:45Z</time>
      </trkpt>
      <trkpt lat="37.018403029069304" lon="-2.956112008541822">
        <ele>1228.22</ele>
        <time>2025-05-12T11:23:46Z</time>
      </trkpt>
      <trkpt lat="37.018488021567464" lon="-2.955989968031645">
        <ele>1227.74</ele>
        <time>2025-05-12T11:23:47Z</time>
      </trkpt>
      <trkpt lat="37.018560022115707" lon="-2.955852001905441">
        <ele>1227.26</ele>
        <time>2025-05-12T11:23:48Z</time>
      </trkpt>
      <trkpt lat="37.018632022663951" lon="-2.955716969445348">
        <ele>1226.3</ele>
        <time>2025-05-12T11:23:49Z</time>
      </trkpt>
      <trkpt lat="37.018744004890323" lon="-2.955603981390595">
        <ele>1225.8199999999999</ele>
        <time>2025-05-12T11:23:50Z</time>
      </trkpt>
      <trkpt lat="37.01886503957212" lon="-2.955500967800617">
        <ele>1224.8599999999999</ele>
        <time>2025-05-12T11:23:51Z</time>
      </trkpt>
      <trkpt lat="37.019011974334717" lon="-2.955408012494445">
        <ele>1224.3800000000001</ele>
        <time>2025-05-12T11:23:52Z</time>
      </trkpt>
      <trkpt lat="37.019837005063891" lon="-2.954750033095479">
        <ele>1220.53</ele>
        <time>2025-05-12T11:24:00Z</time>
      </trkpt>
      <trkpt lat="37.020620964467525" lon="-2.95402298681438">
        <ele>1216.6900000000001</ele>
        <time>2025-05-12T11:24:11Z</time>
      </trkpt>
      <trkpt lat="37.020850963890553" lon="-2.953856019303203">
        <ele>1214.28</ele>
        <time>2025-05-12T11:24:15Z</time>
      </trkpt>
      <trkpt lat="37.020901003852487" lon="-2.953849984332919">
        <ele>1213.8</ele>
        <time>2025-05-12T11:24:16Z</time>
      </trkpt>
      <trkpt lat="37.020965963602066" lon="-2.953875968232751">
        <ele>1213.3199999999999</ele>
        <time>2025-05-12T11:24:17Z</time>
      </trkpt>
      <trkpt lat="37.021047016605735" lon="-2.953885020688176">
        <ele>1212.8399999999999</ele>
        <time>2025-05-12T11:24:18Z</time>
      </trkpt>
      <trkpt lat="37.021107031032443" lon="-2.953885020688176">
        <ele>1212.3599999999999</ele>
        <time>2025-05-12T11:24:19Z</time>
      </trkpt>
      <trkpt lat="37.021158998832107" lon="-2.953885020688176">
        <ele>1211.8800000000001</ele>
        <time>2025-05-12T11:24:20Z</time>
      </trkpt>
      <trkpt lat="37.021223036572337" lon="-2.95385199598968">
        <ele>1211.4000000000001</ele>
        <time>2025-05-12T11:24:21Z</time>
      </trkpt>
      <trkpt lat="37.021278021857142" lon="-2.953811008483172">
        <ele>1210.9200000000001</ele>
        <time>2025-05-12T11:24:22Z</time>
      </trkpt>
      <trkpt lat="37.021443983539939" lon="-2.9536799993366">
        <ele>1209.48</ele>
        <time>2025-05-12T11:24:25Z</time>
      </trkpt>
      <trkpt lat="37.021482037380338" lon="-2.95361696742475">
        <ele>1209</ele>
        <time>2025-05-12T11:24:26Z</time>
      </trkpt>
      <trkpt lat="37.021584967151284" lon="-2.95333600603044">
        <ele>1206.5899999999999</ele>
        <time>2025-05-12T11:24:30Z</time>
      </trkpt>
      <trkpt lat="37.02161799184978" lon="-2.953222012147307">
        <ele>1205.6300000000001</ele>
        <time>2025-05-12T11:24:32Z</time>
      </trkpt>
      <trkpt lat="37.021652022376657" lon="-2.953155040740967">
        <ele>1205.1500000000001</ele>
        <time>2025-05-12T11:24:33Z</time>
      </trkpt>
      <trkpt lat="37.021694015711546" lon="-2.953125033527613">
        <ele>1204.6700000000001</ele>
        <time>2025-05-12T11:24:34Z</time>
      </trkpt>
      <trkpt lat="37.021742966026068" lon="-2.953089997172356">
        <ele>1204.1900000000001</ele>
        <time>2025-05-12T11:24:35Z</time>
      </trkpt>
      <trkpt lat="37.021790994331241" lon="-2.953055966645479">
        <ele>1203.71</ele>
        <time>2025-05-12T11:24:36Z</time>
      </trkpt>
      <trkpt lat="37.021833993494511" lon="-2.953027971088886">
        <ele>1203.23</ele>
        <time>2025-05-12T11:24:37Z</time>
      </trkpt>
      <trkpt lat="37.021973971277475" lon="-2.952939961105585">
        <ele>1201.79</ele>
        <time>2025-05-12T11:24:40Z</time>
      </trkpt>
      <trkpt lat="37.022386025637388" lon="-2.952919006347656">
        <ele>1199.8599999999999</ele>
        <time>2025-05-12T11:24:48Z</time>
      </trkpt>
      <trkpt lat="37.022536983713508" lon="-2.952893022447825">
        <ele>1198.9000000000001</ele>
        <time>2025-05-12T11:24:50Z</time>
      </trkpt>
      <trkpt lat="37.022601021453738" lon="-2.952888999134302">
        <ele>1198.4200000000001</ele>
        <time>2025-05-12T11:24:51Z</time>
      </trkpt>
      <trkpt lat="37.022664975374937" lon="-2.95288497582078">
        <ele>1197.9400000000001</ele>
        <time>2025-05-12T11:24:52Z</time>
      </trkpt>
      <trkpt lat="37.022809982299805" lon="-2.952876007184386">
        <ele>1196.5</ele>
        <time>2025-05-12T11:24:54Z</time>
      </trkpt>
      <trkpt lat="37.022880977019668" lon="-2.952881036326289">
        <ele>1196.02</ele>
        <time>2025-05-12T11:24:55Z</time>
      </trkpt>
      <trkpt lat="37.023101001977921" lon="-2.952895034104586">
        <ele>1196.5</ele>
        <time>2025-05-12T11:24:58Z</time>
      </trkpt>
      <trkpt lat="37.023247014731169" lon="-2.952868966385722">
        <ele>1198.4200000000001</ele>
        <time>2025-05-12T11:25:00Z</time>
      </trkpt>
      <trkpt lat="37.023321026936173" lon="-2.952851029112935">
        <ele>1199.8599999999999</ele>
        <time>2025-05-12T11:25:01Z</time>
      </trkpt>
      <trkpt lat="37.023403001949191" lon="-2.952834013849497">
        <ele>1200.8199999999999</ele>
        <time>2025-05-12T11:25:02Z</time>
      </trkpt>
      <trkpt lat="37.023639036342502" lon="-2.952854968607426">
        <ele>1204.1900000000001</ele>
        <time>2025-05-12T11:25:05Z</time>
      </trkpt>
      <trkpt lat="37.023703996092081" lon="-2.952859997749329">
        <ele>1204.6700000000001</ele>
        <time>2025-05-12T11:25:06Z</time>
      </trkpt>
      <trkpt lat="37.023984035477042" lon="-2.952849017456174">
        <ele>1208.03</ele>
        <time>2025-05-12T11:25:10Z</time>
      </trkpt>
      <trkpt lat="37.024226021021605" lon="-2.952748015522957">
        <ele>1208.51</ele>
        <time>2025-05-12T11:25:13Z</time>
      </trkpt>
      <trkpt lat="37.02453900128603" lon="-2.952560009434819">
        <ele>1208.51</ele>
        <time>2025-05-12T11:25:17Z</time>
      </trkpt>
      <trkpt lat="37.024614019319415" lon="-2.952514998614788">
        <ele>1208.03</ele>
        <time>2025-05-12T11:25:18Z</time>
      </trkpt>
      <trkpt lat="37.024656012654305" lon="-2.952490020543337">
        <ele>1207.55</ele>
        <time>2025-05-12T11:25:19Z</time>
      </trkpt>
      <trkpt lat="37.024724995717406" lon="-2.952405028045178">
        <ele>1207.0699999999999</ele>
        <time>2025-05-12T11:25:20Z</time>
      </trkpt>
      <trkpt lat="37.024785010144114" lon="-2.952331015840173">
        <ele>1206.5899999999999</ele>
        <time>2025-05-12T11:25:21Z</time>
      </trkpt>
      <trkpt lat="37.024897998198867" lon="-2.952191038057208">
        <ele>1205.6300000000001</ele>
        <time>2025-05-12T11:25:23Z</time>
      </trkpt>
      <trkpt lat="37.024943009018898" lon="-2.952128006145358">
        <ele>1205.1500000000001</ele>
        <time>2025-05-12T11:25:24Z</time>
      </trkpt>
      <trkpt lat="37.024982990697026" lon="-2.952043013647199">
        <ele>1204.6700000000001</ele>
        <time>2025-05-12T11:25:25Z</time>
      </trkpt>
      <trkpt lat="37.025062032043934" lon="-2.951875040307641">
        <ele>1204.1900000000001</ele>
        <time>2025-05-12T11:25:27Z</time>
      </trkpt>
      <trkpt lat="37.025106037035584" lon="-2.951794993132353">
        <ele>1203.71</ele>
        <time>2025-05-12T11:25:28Z</time>
      </trkpt>
      <trkpt lat="37.0252900198102" lon="-2.951536998152733">
        <ele>1201.79</ele>
        <time>2025-05-12T11:25:31Z</time>
      </trkpt>
      <trkpt lat="37.025341987609863" lon="-2.951439013704658">
        <ele>1201.3</ele>
        <time>2025-05-12T11:25:32Z</time>
      </trkpt>
      <trkpt lat="37.025960991159081" lon="-2.950287004932761">
        <ele>1193.1300000000001</ele>
        <time>2025-05-12T11:25:43Z</time>
      </trkpt>
      <trkpt lat="37.02600197866559" lon="-2.950161024928093">
        <ele>1192.6500000000001</ele>
        <time>2025-05-12T11:25:44Z</time>
      </trkpt>
      <trkpt lat="37.026031985878944" lon="-2.950017023831606">
        <ele>1191.6900000000001</ele>
        <time>2025-05-12T11:25:45Z</time>
      </trkpt>
      <trkpt lat="37.026252010837197" lon="-2.948989989235997">
        <ele>1188.8099999999999</ele>
        <time>2025-05-12T11:25:51Z</time>
      </trkpt>
      <trkpt lat="37.026308001950383" lon="-2.948821010068059">
        <ele>1189.29</ele>
        <time>2025-05-12T11:25:52Z</time>
      </trkpt>
      <trkpt lat="37.026403974741697" lon="-2.948702992871404">
        <ele>1189.77</ele>
        <time>2025-05-12T11:25:53Z</time>
      </trkpt>
      <trkpt lat="37.026508999988437" lon="-2.948573995381594">
        <ele>1190.25</ele>
        <time>2025-05-12T11:25:54Z</time>
      </trkpt>
      <trkpt lat="37.026610001921654" lon="-2.948434017598629">
        <ele>1190.73</ele>
        <time>2025-05-12T11:25:55Z</time>
      </trkpt>
      <trkpt lat="37.026693988591433" lon="-2.948271995410323">
        <ele>1191.6900000000001</ele>
        <time>2025-05-12T11:25:56Z</time>
      </trkpt>
      <trkpt lat="37.026777975261211" lon="-2.948108967393637">
        <ele>1192.6500000000001</ele>
        <time>2025-05-12T11:25:57Z</time>
      </trkpt>
      <trkpt lat="37.026865985244513" lon="-2.947940994054079">
        <ele>1193.6099999999999</ele>
        <time>2025-05-12T11:25:58Z</time>
      </trkpt>
      <trkpt lat="37.026981990784407" lon="-2.947824988514185">
        <ele>1194.5799999999999</ele>
        <time>2025-05-12T11:25:59Z</time>
      </trkpt>
      <trkpt lat="37.027106964960694" lon="-2.947718035429716">
        <ele>1195.0599999999999</ele>
        <time>2025-05-12T11:26:00Z</time>
      </trkpt>
      <trkpt lat="37.027241997420788" lon="-2.947632959112525">
        <ele>1196.02</ele>
        <time>2025-05-12T11:26:01Z</time>
      </trkpt>
      <trkpt lat="37.027670983225107" lon="-2.94740698300302">
        <ele>1196.98</ele>
        <time>2025-05-12T11:26:04Z</time>
      </trkpt>
      <trkpt lat="37.027836022898555" lon="-2.947373958304524">
        <ele>1196.98</ele>
        <time>2025-05-12T11:26:05Z</time>
      </trkpt>
      <trkpt lat="37.028003996238112" lon="-2.94734001159668">
        <ele>1196.5</ele>
        <time>2025-05-12T11:26:06Z</time>
      </trkpt>
      <trkpt lat="37.028538007289171" lon="-2.947301035746932">
        <ele>1194.5799999999999</ele>
        <time>2025-05-12T11:26:09Z</time>
      </trkpt>
      <trkpt lat="37.028861967846751" lon="-2.94727697968483">
        <ele>1192.6500000000001</ele>
        <time>2025-05-12T11:26:11Z</time>
      </trkpt>
      <trkpt lat="37.029004963114858" lon="-2.947332970798016">
        <ele>1191.6900000000001</ele>
        <time>2025-05-12T11:26:12Z</time>
      </trkpt>
      <trkpt lat="37.029291037470102" lon="-2.94746900908649">
        <ele>1189.29</ele>
        <time>2025-05-12T11:26:14Z</time>
      </trkpt>
      <trkpt lat="37.029472002759576" lon="-2.94746900908649">
        <ele>1187.8499999999999</ele>
        <time>2025-05-12T11:26:15Z</time>
      </trkpt>
      <trkpt lat="37.029634024947882" lon="-2.947451993823052">
        <ele>1186.4000000000001</ele>
        <time>2025-05-12T11:26:16Z</time>
      </trkpt>
      <trkpt lat="37.029797974973917" lon="-2.947389967739582">
        <ele>1185.4400000000001</ele>
        <time>2025-05-12T11:26:17Z</time>
      </trkpt>
      <trkpt lat="37.029966032132506" lon="-2.947326013818383">
        <ele>1184</ele>
        <time>2025-05-12T11:26:18Z</time>
      </trkpt>
      <trkpt lat="37.03029703348875" lon="-2.947199027985334">
        <ele>1182.0799999999999</ele>
        <time>2025-05-12T11:26:20Z</time>
      </trkpt>
      <trkpt lat="37.030460983514786" lon="-2.947137001901865">
        <ele>1181.1199999999999</ele>
        <time>2025-05-12T11:26:21Z</time>
      </trkpt>
      <trkpt lat="37.030627029016614" lon="-2.947072964161634">
        <ele>1180.1600000000001</ele>
        <time>2025-05-12T11:26:22Z</time>
      </trkpt>
      <trkpt lat="37.031102031469345" lon="-2.946844976395369">
        <ele>1176.3099999999999</ele>
        <time>2025-05-12T11:26:25Z</time>
      </trkpt>
      <trkpt lat="37.031249972060323" lon="-2.946754032745957">
        <ele>1175.3499999999999</ele>
        <time>2025-05-12T11:26:26Z</time>
      </trkpt>
      <trkpt lat="37.031375030055642" lon="-2.946628974750638">
        <ele>1173.9100000000001</ele>
        <time>2025-05-12T11:26:27Z</time>
      </trkpt>
      <trkpt lat="37.031482988968492" lon="-2.946493020281196">
        <ele>1172.95</ele>
        <time>2025-05-12T11:26:28Z</time>
      </trkpt>
      <trkpt lat="37.031560018658638" lon="-2.94633200392127">
        <ele>1171.5</ele>
        <time>2025-05-12T11:26:29Z</time>
      </trkpt>
      <trkpt lat="37.031632019206882" lon="-2.94617903418839">
        <ele>1170.0599999999999</ele>
        <time>2025-05-12T11:26:30Z</time>
      </trkpt>
      <trkpt lat="37.031717011705041" lon="-2.946063028648496">
        <ele>1168.6199999999999</ele>
        <time>2025-05-12T11:26:31Z</time>
      </trkpt>
      <trkpt lat="37.031817007809877" lon="-2.945991028100252">
        <ele>1167.1800000000001</ele>
        <time>2025-05-12T11:26:32Z</time>
      </trkpt>
      <trkpt lat="37.03191096894443" lon="-2.945922967046499">
        <ele>1165.74</ele>
        <time>2025-05-12T11:26:33Z</time>
      </trkpt>
      <trkpt lat="37.03199596144259" lon="-2.945862030610442">
        <ele>1164.29</ele>
        <time>2025-05-12T11:26:34Z</time>
      </trkpt>
      <trkpt lat="37.03205899335444" lon="-2.945817019790411">
        <ele>1163.3299999999999</ele>
        <time>2025-05-12T11:26:35Z</time>
      </trkpt>
      <trkpt lat="37.032067961990833" lon="-2.9457519762218">
        <ele>1161.8900000000001</ele>
        <time>2025-05-12T11:26:36Z</time>
      </trkpt>
      <trkpt lat="37.03207902610302" lon="-2.945663966238499">
        <ele>1160.9300000000001</ele>
        <time>2025-05-12T11:26:37Z</time>
      </trkpt>
      <trkpt lat="37.03203703276813" lon="-2.945537986233831">
        <ele>1159.97</ele>
        <time>2025-05-12T11:26:38Z</time>
      </trkpt>
      <trkpt lat="37.031924966722727" lon="-2.94547101482749">
        <ele>1159.01</ele>
        <time>2025-05-12T11:26:39Z</time>
      </trkpt>
      <trkpt lat="37.031808039173484" lon="-2.945462968200445">
        <ele>1158.05</ele>
        <time>2025-05-12T11:26:40Z</time>
      </trkpt>
      <trkpt lat="37.031666971743107" lon="-2.945452993735671">
        <ele>1157.5599999999999</ele>
        <time>2025-05-12T11:26:41Z</time>
      </trkpt>
      <trkpt lat="37.031518025323749" lon="-2.945442013442516">
        <ele>1157.5599999999999</ele>
        <time>2025-05-12T11:26:42Z</time>
      </trkpt>
      <trkpt lat="37.031364971771836" lon="-2.945431033149362">
        <ele>1157.5599999999999</ele>
        <time>2025-05-12T11:26:43Z</time>
      </trkpt>
      <trkpt lat="37.031204039230943" lon="-2.945474032312632">
        <ele>1157.5599999999999</ele>
        <time>2025-05-12T11:26:44Z</time>
      </trkpt>
      <trkpt lat="37.030528960749507" lon="-2.945602023974061">
        <ele>1159.49</ele>
        <time>2025-05-12T11:26:48Z</time>
      </trkpt>
      <trkpt lat="37.030365010723472" lon="-2.945602023974061">
        <ele>1160.45</ele>
        <time>2025-05-12T11:26:49Z</time>
      </trkpt>
      <trkpt lat="37.03019100241363" lon="-2.945576040074229">
        <ele>1161.4100000000001</ele>
        <time>2025-05-12T11:26:50Z</time>
      </trkpt>
      <trkpt lat="37.029477031901479" lon="-2.945325002074242">
        <ele>1165.74</ele>
        <time>2025-05-12T11:26:54Z</time>
      </trkpt>
      <trkpt lat="37.029297994449735" lon="-2.945331037044525">
        <ele>1166.7</ele>
        <time>2025-05-12T11:26:55Z</time>
      </trkpt>
      <trkpt lat="37.028975961729884" lon="-2.945341011509299">
        <ele>1169.0999999999999</ele>
        <time>2025-05-12T11:26:57Z</time>
      </trkpt>
      <trkpt lat="37.028833972290158" lon="-2.9453219845891">
        <ele>1170.0599999999999</ele>
        <time>2025-05-12T11:26:58Z</time>
      </trkpt>
      <trkpt lat="37.028718972578645" lon="-2.945226011797786">
        <ele>1171.02</ele>
        <time>2025-05-12T11:26:59Z</time>
      </trkpt>
      <trkpt lat="37.028319993987679" lon="-2.944905990734696">
        <ele>1175.3499999999999</ele>
        <time>2025-05-12T11:27:02Z</time>
      </trkpt>
      <trkpt lat="37.028183033689857" lon="-2.944854022935033">
        <ele>1176.3099999999999</ele>
        <time>2025-05-12T11:27:03Z</time>
      </trkpt>
      <trkpt lat="37.028074990957975" lon="-2.944884030148387">
        <ele>1177.75</ele>
        <time>2025-05-12T11:27:04Z</time>
      </trkpt>
      <trkpt lat="37.027960997074842" lon="-2.944931974634528">
        <ele>1178.71</ele>
        <time>2025-05-12T11:27:05Z</time>
      </trkpt>
      <trkpt lat="37.027836022898555" lon="-2.945030964910984">
        <ele>1179.6700000000001</ele>
        <time>2025-05-12T11:27:06Z</time>
      </trkpt>
      <trkpt lat="37.0276989787817" lon="-2.945140013471246">
        <ele>1180.6400000000001</ele>
        <time>2025-05-12T11:27:07Z</time>
      </trkpt>
      <trkpt lat="37.027405025437474" lon="-2.945373030379415">
        <ele>1182.5599999999999</ele>
        <time>2025-05-12T11:27:09Z</time>
      </trkpt>
      <trkpt lat="37.027247026562691" lon="-2.945420974865556">
        <ele>1183.52</ele>
        <time>2025-05-12T11:27:10Z</time>
      </trkpt>
      <trkpt lat="37.027102019637823" lon="-2.945416029542685">
        <ele>1184.48</ele>
        <time>2025-05-12T11:27:11Z</time>
      </trkpt>
      <trkpt lat="37.026930022984743" lon="-2.945344028994441">
        <ele>1184.96</ele>
        <time>2025-05-12T11:27:12Z</time>
      </trkpt>
      <trkpt lat="37.02681502327323" lon="-2.945260964334011">
        <ele>1185.4400000000001</ele>
        <time>2025-05-12T11:27:13Z</time>
      </trkpt>
      <trkpt lat="37.026658030226827" lon="-2.945147976279259">
        <ele>1184.96</ele>
        <time>2025-05-12T11:27:14Z</time>
      </trkpt>
      <trkpt lat="37.025641975924373" lon="-2.944268966093659">
        <ele>1182.5599999999999</ele>
        <time>2025-05-12T11:27:20Z</time>
      </trkpt>
      <trkpt lat="37.025451036170125" lon="-2.944165030494332">
        <ele>1181.5999999999999</ele>
        <time>2025-05-12T11:27:21Z</time>
      </trkpt>
      <trkpt lat="37.025255989283323" lon="-2.944094035774469">
        <ele>1181.1199999999999</ele>
        <time>2025-05-12T11:27:22Z</time>
      </trkpt>
      <trkpt lat="37.024913001805544" lon="-2.943950034677982">
        <ele>1179.6700000000001</ele>
        <time>2025-05-12T11:27:24Z</time>
      </trkpt>
      <trkpt lat="37.024771012365818" lon="-2.943807961419225">
        <ele>1179.1900000000001</ele>
        <time>2025-05-12T11:27:25Z</time>
      </trkpt>
      <trkpt lat="37.024632040411234" lon="-2.943665971979499">
        <ele>1178.23</ele>
        <time>2025-05-12T11:27:26Z</time>
      </trkpt>
      <trkpt lat="37.023348016664386" lon="-2.942384965717793">
        <ele>1172.47</ele>
        <time>2025-05-12T11:27:34Z</time>
      </trkpt>
      <trkpt lat="37.022196007892489" lon="-2.941515007987618">
        <ele>1170.0599999999999</ele>
        <time>2025-05-12T11:27:41Z</time>
      </trkpt>
      <trkpt lat="37.022041026502848" lon="-2.941458011046052">
        <ele>1169.5799999999999</ele>
        <time>2025-05-12T11:27:42Z</time>
      </trkpt>
      <trkpt lat="37.021597037091851" lon="-2.941292971372604">
        <ele>1169.0999999999999</ele>
        <time>2025-05-12T11:27:45Z</time>
      </trkpt>
      <trkpt lat="37.021448006853461" lon="-2.94119599275291">
        <ele>1169.0999999999999</ele>
        <time>2025-05-12T11:27:46Z</time>
      </trkpt>
      <trkpt lat="37.020825985819101" lon="-2.940804976969957">
        <ele>1169.0999999999999</ele>
        <time>2025-05-12T11:27:50Z</time>
      </trkpt>
      <trkpt lat="37.020669998601079" lon="-2.940730964764953">
        <ele>1169.0999999999999</ele>
        <time>2025-05-12T11:27:51Z</time>
      </trkpt>
      <trkpt lat="37.020502025261521" lon="-2.940675979480147">
        <ele>1169.0999999999999</ele>
        <time>2025-05-12T11:27:52Z</time>
      </trkpt>
      <trkpt lat="37.020323993638158" lon="-2.940645972266793">
        <ele>1168.6199999999999</ele>
        <time>2025-05-12T11:27:53Z</time>
      </trkpt>
      <trkpt lat="37.02013598755002" lon="-2.94065703637898">
        <ele>1168.6199999999999</ele>
        <time>2025-05-12T11:27:54Z</time>
      </trkpt>
      <trkpt lat="37.019943036139011" lon="-2.940669022500515">
        <ele>1168.1400000000001</ele>
        <time>2025-05-12T11:27:55Z</time>
      </trkpt>
      <trkpt lat="37.019085986539721" lon="-2.940644966438413">
        <ele>1163.8099999999999</ele>
        <time>2025-05-12T11:28:00Z</time>
      </trkpt>
      <trkpt lat="37.018965035676956" lon="-2.940571960061789">
        <ele>1163.3299999999999</ele>
        <time>2025-05-12T11:28:01Z</time>
      </trkpt>
      <trkpt lat="37.018841989338398" lon="-2.940438017249107">
        <ele>1163.3299999999999</ele>
        <time>2025-05-12T11:28:02Z</time>
      </trkpt>
      <trkpt lat="37.017764998599887" lon="-2.939368989318609">
        <ele>1163.3299999999999</ele>
        <time>2025-05-12T11:28:09Z</time>
      </trkpt>
      <trkpt lat="37.016845000907779" lon="-2.938400963321328">
        <ele>1159.01</ele>
        <time>2025-05-12T11:28:15Z</time>
      </trkpt>
      <trkpt lat="37.016429007053375" lon="-2.937956973910332">
        <ele>1156.1199999999999</ele>
        <time>2025-05-12T11:28:18Z</time>
      </trkpt>
      <trkpt lat="37.016266984865069" lon="-2.937874998897314">
        <ele>1154.6800000000001</ele>
        <time>2025-05-12T11:28:19Z</time>
      </trkpt>
      <trkpt lat="37.016090964898467" lon="-2.937824036926031">
        <ele>1153.72</ele>
        <time>2025-05-12T11:28:20Z</time>
      </trkpt>
      <trkpt lat="37.01590396463871" lon="-2.937831999734044">
        <ele>1152.28</ele>
        <time>2025-05-12T11:28:21Z</time>
      </trkpt>
      <trkpt lat="37.015707995742559" lon="-2.937858989462256">
        <ele>1151.8</ele>
        <time>2025-05-12T11:28:22Z</time>
      </trkpt>
      <trkpt lat="37.015500962734222" lon="-2.937885979190469">
        <ele>1150.8399999999999</ele>
        <time>2025-05-12T11:28:23Z</time>
      </trkpt>
      <trkpt lat="37.013138020411134" lon="-2.938327034935355">
        <ele>1157.0799999999999</ele>
        <time>2025-05-12T11:28:34Z</time>
      </trkpt>
      <trkpt lat="37.012974992394447" lon="-2.938328040763736">
        <ele>1158.53</ele>
        <time>2025-05-12T11:28:35Z</time>
      </trkpt>
      <trkpt lat="37.012840965762734" lon="-2.938291998580098">
        <ele>1159.97</ele>
        <time>2025-05-12T11:28:36Z</time>
      </trkpt>
      <trkpt lat="37.012720014899969" lon="-2.938214968889952">
        <ele>1161.4100000000001</ele>
        <time>2025-05-12T11:28:37Z</time>
      </trkpt>
      <trkpt lat="37.012626975774765" lon="-2.938098041340709">
        <ele>1162.3699999999999</ele>
        <time>2025-05-12T11:28:38Z</time>
      </trkpt>
      <trkpt lat="37.01255002990365" lon="-2.937920009717345">
        <ele>1163.3299999999999</ele>
        <time>2025-05-12T11:28:39Z</time>
      </trkpt>
      <trkpt lat="37.012484986335039" lon="-2.937717000022531">
        <ele>1164.29</ele>
        <time>2025-05-12T11:28:40Z</time>
      </trkpt>
      <trkpt lat="37.012422038242221" lon="-2.937499992549419">
        <ele>1165.26</ele>
        <time>2025-05-12T11:28:41Z</time>
      </trkpt>
      <trkpt lat="37.0123799610883" lon="-2.937282985076308">
        <ele>1166.22</ele>
        <time>2025-05-12T11:28:42Z</time>
      </trkpt>
      <trkpt lat="37.012376021593809" lon="-2.937036976218224">
        <ele>1166.7</ele>
        <time>2025-05-12T11:28:43Z</time>
      </trkpt>
      <trkpt lat="37.012361017987132" lon="-2.935134032741189">
        <ele>1173.9100000000001</ele>
        <time>2025-05-12T11:28:50Z</time>
      </trkpt>
      <trkpt lat="37.012342996895313" lon="-2.934919958934188">
        <ele>1174.8699999999999</ele>
        <time>2025-05-12T11:28:51Z</time>
      </trkpt>
      <trkpt lat="37.012304021045566" lon="-2.934738993644714">
        <ele>1175.8299999999999</ele>
        <time>2025-05-12T11:28:52Z</time>
      </trkpt>
      <trkpt lat="37.012226991355419" lon="-2.934590969234705">
        <ele>1176.3099999999999</ele>
        <time>2025-05-12T11:28:53Z</time>
      </trkpt>
      <trkpt lat="37.012112997472286" lon="-2.934454008936882">
        <ele>1177.75</ele>
        <time>2025-05-12T11:28:54Z</time>
      </trkpt>
      <trkpt lat="37.011974025517702" lon="-2.934315036982298">
        <ele>1178.23</ele>
        <time>2025-05-12T11:28:55Z</time>
      </trkpt>
      <trkpt lat="37.011827006936073" lon="-2.934156032279134">
        <ele>1179.1900000000001</ele>
        <time>2025-05-12T11:28:56Z</time>
      </trkpt>
      <trkpt lat="37.011389974504709" lon="-2.933736015111208">
        <ele>1182.0799999999999</ele>
        <time>2025-05-12T11:28:59Z</time>
      </trkpt>
      <trkpt lat="37.011260977014899" lon="-2.93357097543776">
        <ele>1183.04</ele>
        <time>2025-05-12T11:29:00Z</time>
      </trkpt>
      <trkpt lat="37.01113298535347" lon="-2.933384981006384">
        <ele>1184</ele>
        <time>2025-05-12T11:29:01Z</time>
      </trkpt>
      <trkpt lat="37.010877002030611" lon="-2.932991031557322">
        <ele>1185.4400000000001</ele>
        <time>2025-05-12T11:29:03Z</time>
      </trkpt>
      <trkpt lat="37.010784968733788" lon="-2.932768994942308">
        <ele>1186.4000000000001</ele>
        <time>2025-05-12T11:29:04Z</time>
      </trkpt>
      <trkpt lat="37.010537032037973" lon="-2.932169018313289">
        <ele>1188.8099999999999</ele>
        <time>2025-05-12T11:29:07Z</time>
      </trkpt>
      <trkpt lat="37.010505013167858" lon="-2.931966008618474">
        <ele>1189.77</ele>
        <time>2025-05-12T11:29:08Z</time>
      </trkpt>
      <trkpt lat="37.010471988469362" lon="-2.931761993095279">
        <ele>1190.73</ele>
        <time>2025-05-12T11:29:09Z</time>
      </trkpt>
      <trkpt lat="37.010419014841318" lon="-2.930611995980144">
        <ele>1193.1300000000001</ele>
        <time>2025-05-12T11:29:15Z</time>
      </trkpt>
      <trkpt lat="37.010369980707765" lon="-2.930494984611869">
        <ele>1192.6500000000001</ele>
        <time>2025-05-12T11:29:16Z</time>
      </trkpt>
      <trkpt lat="37.010285994037986" lon="-2.930417032912374">
        <ele>1192.1700000000001</ele>
        <time>2025-05-12T11:29:17Z</time>
      </trkpt>
      <trkpt lat="37.010198989883065" lon="-2.930421978235245">
        <ele>1191.6900000000001</ele>
        <time>2025-05-12T11:29:18Z</time>
      </trkpt>
      <trkpt lat="37.010133024305105" lon="-2.930476041510701">
        <ele>1190.73</ele>
        <time>2025-05-12T11:29:19Z</time>
      </trkpt>
      <trkpt lat="37.010089019313455" lon="-2.930586012080312">
        <ele>1190.25</ele>
        <time>2025-05-12T11:29:20Z</time>
      </trkpt>
      <trkpt lat="37.010051971301436" lon="-2.930716015398502">
        <ele>1189.29</ele>
        <time>2025-05-12T11:29:21Z</time>
      </trkpt>
      <trkpt lat="37.010024981573224" lon="-2.930864039808512">
        <ele>1188.3299999999999</ele>
        <time>2025-05-12T11:29:22Z</time>
      </trkpt>
      <trkpt lat="37.00999497435987" lon="-2.931028995662928">
        <ele>1187.3699999999999</ele>
        <time>2025-05-12T11:29:23Z</time>
      </trkpt>
      <trkpt lat="37.009926997125149" lon="-2.931168973445892">
        <ele>1186.4000000000001</ele>
        <time>2025-05-12T11:29:24Z</time>
      </trkpt>
      <trkpt lat="37.009820966050029" lon="-2.931276010349393">
        <ele>1185.4400000000001</ele>
        <time>2025-05-12T11:29:25Z</time>
      </trkpt>
      <trkpt lat="37.009701021015644" lon="-2.931342981755734">
        <ele>1184.48</ele>
        <time>2025-05-12T11:29:26Z</time>
      </trkpt>
      <trkpt lat="37.009575041010976" lon="-2.931370977312326">
        <ele>1183.52</ele>
        <time>2025-05-12T11:29:27Z</time>
      </trkpt>
      <trkpt lat="37.009442020207644" lon="-2.931353962048888">
        <ele>1182.5599999999999</ele>
        <time>2025-05-12T11:29:28Z</time>
      </trkpt>
      <trkpt lat="37.009321991354227" lon="-2.931285984814167">
        <ele>1181.5999999999999</ele>
        <time>2025-05-12T11:29:29Z</time>
      </trkpt>
      <trkpt lat="37.009231969714165" lon="-2.931178025901318">
        <ele>1181.5999999999999</ele>
        <time>2025-05-12T11:29:30Z</time>
      </trkpt>
      <trkpt lat="37.009133985266089" lon="-2.931032013148069">
        <ele>1181.1199999999999</ele>
        <time>2025-05-12T11:29:31Z</time>
      </trkpt>
      <trkpt lat="37.009041029959917" lon="-2.930874014273286">
        <ele>1181.1199999999999</ele>
        <time>2025-05-12T11:29:32Z</time>
      </trkpt>
      <trkpt lat="37.008605003356934" lon="-2.93023799546063">
        <ele>1180.6400000000001</ele>
        <time>2025-05-12T11:29:36Z</time>
      </trkpt>
      <trkpt lat="37.00767301954329" lon="-2.929561994969845">
        <ele>1177.75</ele>
        <time>2025-05-12T11:29:42Z</time>
      </trkpt>
      <trkpt lat="37.007485013455153" lon="-2.929510027170181">
        <ele>1176.3099999999999</ele>
        <time>2025-05-12T11:29:43Z</time>
      </trkpt>
      <trkpt lat="37.007294995710254" lon="-2.929481025785208">
        <ele>1174.8699999999999</ele>
        <time>2025-05-12T11:29:44Z</time>
      </trkpt>
      <trkpt lat="37.006947984918952" lon="-2.929492006078363">
        <ele>1172.47</ele>
        <time>2025-05-12T11:29:46Z</time>
      </trkpt>
      <trkpt lat="37.006803983822465" lon="-2.929554032161832">
        <ele>1171.5</ele>
        <time>2025-05-12T11:29:47Z</time>
      </trkpt>
      <trkpt lat="37.006675992161036" lon="-2.929647993296385">
        <ele>1170.0599999999999</ele>
        <time>2025-05-12T11:29:48Z</time>
      </trkpt>
      <trkpt lat="37.006398970261216" lon="-2.929896013811231">
        <ele>1167.6600000000001</ele>
        <time>2025-05-12T11:29:50Z</time>
      </trkpt>
      <trkpt lat="37.006230996921659" lon="-2.929999027401209">
        <ele>1166.7</ele>
        <time>2025-05-12T11:29:51Z</time>
      </trkpt>
      <trkpt lat="37.006051959469914" lon="-2.930087959393859">
        <ele>1165.26</ele>
        <time>2025-05-12T11:29:52Z</time>
      </trkpt>
      <trkpt lat="37.00571802444756" lon="-2.930255010724068">
        <ele>1162.3699999999999</ele>
        <time>2025-05-12T11:29:54Z</time>
      </trkpt>
      <trkpt lat="37.005581986159086" lon="-2.930360035970807">
        <ele>1160.45</ele>
        <time>2025-05-12T11:29:55Z</time>
      </trkpt>
      <trkpt lat="37.00550302863121" lon="-2.930498002097011">
        <ele>1158.53</ele>
        <time>2025-05-12T11:29:56Z</time>
      </trkpt>
      <trkpt lat="37.005455000326037" lon="-2.930663963779807">
        <ele>1157.0799999999999</ele>
        <time>2025-05-12T11:29:57Z</time>
      </trkpt>
      <trkpt lat="37.005433961749077" lon="-2.930849958211184">
        <ele>1155.1600000000001</ele>
        <time>2025-05-12T11:29:58Z</time>
      </trkpt>
      <trkpt lat="37.005442008376122" lon="-2.931056991219521">
        <ele>1153.72</ele>
        <time>2025-05-12T11:29:59Z</time>
      </trkpt>
      <trkpt lat="37.005452988669276" lon="-2.931276010349393">
        <ele>1152.28</ele>
        <time>2025-05-12T11:30:00Z</time>
      </trkpt>
      <trkpt lat="37.005500011146069" lon="-2.931498968973756">
        <ele>1151.3199999999999</ele>
        <time>2025-05-12T11:30:01Z</time>
      </trkpt>
      <trkpt lat="37.005554996430874" lon="-2.931733997538686">
        <ele>1150.3499999999999</ele>
        <time>2025-05-12T11:30:02Z</time>
      </trkpt>
      <trkpt lat="37.005629008635879" lon="-2.931971959769726">
        <ele>1149.3900000000001</ele>
        <time>2025-05-12T11:30:03Z</time>
      </trkpt>
      <trkpt lat="37.005792036652565" lon="-2.932425001636148">
        <ele>1147.95</ele>
        <time>2025-05-12T11:30:05Z</time>
      </trkpt>
      <trkpt lat="37.005914999172091" lon="-2.932612001895905">
        <ele>1146.51</ele>
        <time>2025-05-12T11:30:06Z</time>
      </trkpt>
      <trkpt lat="37.006045002490282" lon="-2.932811994105578">
        <ele>1145.55</ele>
        <time>2025-05-12T11:30:07Z</time>
      </trkpt>
      <trkpt lat="37.006496032699943" lon="-2.933346005156636">
        <ele>1140.74</ele>
        <time>2025-05-12T11:30:10Z</time>
      </trkpt>
      <trkpt lat="37.006660988554358" lon="-2.933428985998035">
        <ele>1139.3</ele>
        <time>2025-05-12T11:30:11Z</time>
      </trkpt>
      <trkpt lat="37.006816975772381" lon="-2.933507021516562">
        <ele>1137.8599999999999</ele>
        <time>2025-05-12T11:30:12Z</time>
      </trkpt>
      <trkpt lat="37.00709299184382" lon="-2.933644987642765">
        <ele>1135.45</ele>
        <time>2025-05-12T11:30:14Z</time>
      </trkpt>
      <trkpt lat="37.007145965471864" lon="-2.933671977370977">
        <ele>1134.49</ele>
        <time>2025-05-12T11:30:15Z</time>
      </trkpt>
      <trkpt lat="37.007186030969024" lon="-2.933817990124226">
        <ele>1133.05</ele>
        <time>2025-05-12T11:30:16Z</time>
      </trkpt>
      <trkpt lat="37.007211009040475" lon="-2.933908011764288">
        <ele>1132.0899999999999</ele>
        <time>2025-05-12T11:30:17Z</time>
      </trkpt>
      <trkpt lat="37.007190976291895" lon="-2.933981018140912">
        <ele>1130.6500000000001</ele>
        <time>2025-05-12T11:30:18Z</time>
      </trkpt>
      <trkpt lat="37.007159041240811" lon="-2.934097023680806">
        <ele>1129.21</ele>
        <time>2025-05-12T11:30:19Z</time>
      </trkpt>
      <trkpt lat="37.007095003500581" lon="-2.934184027835727">
        <ele>1128.24</ele>
        <time>2025-05-12T11:30:20Z</time>
      </trkpt>
      <trkpt lat="37.00698503293097" lon="-2.934238007292152">
        <ele>1126.8</ele>
        <time>2025-05-12T11:30:21Z</time>
      </trkpt>
      <trkpt lat="37.006862992420793" lon="-2.93423498980701">
        <ele>1125.8399999999999</ele>
        <time>2025-05-12T11:30:22Z</time>
      </trkpt>
      <trkpt lat="37.006741035729647" lon="-2.934171035885811">
        <ele>1124.4000000000001</ele>
        <time>2025-05-12T11:30:23Z</time>
      </trkpt>
      <trkpt lat="37.00662000104785" lon="-2.934081014245749">
        <ele>1122.96</ele>
        <time>2025-05-12T11:30:24Z</time>
      </trkpt>
      <trkpt lat="37.006512964144349" lon="-2.933945981785655">
        <ele>1122</ele>
        <time>2025-05-12T11:30:25Z</time>
      </trkpt>
      <trkpt lat="37.006266033276916" lon="-2.933717994019389">
        <ele>1120.55</ele>
        <time>2025-05-12T11:30:27Z</time>
      </trkpt>
      <trkpt lat="37.006109040230513" lon="-2.93365596793592">
        <ele>1119.5899999999999</ele>
        <time>2025-05-12T11:30:28Z</time>
      </trkpt>
      <trkpt lat="37.005940983071923" lon="-2.933587990701199">
        <ele>1119.1099999999999</ele>
        <time>2025-05-12T11:30:29Z</time>
      </trkpt>
      <trkpt lat="37.005212008953094" lon="-2.933364026248455">
        <ele>1114.3099999999999</ele>
        <time>2025-05-12T11:30:33Z</time>
      </trkpt>
      <trkpt lat="37.005040012300014" lon="-2.93326897546649">
        <ele>1113.3399999999999</ele>
        <time>2025-05-12T11:30:34Z</time>
      </trkpt>
      <trkpt lat="37.004877990111709" lon="-2.933136960491538">
        <ele>1112.3800000000001</ele>
        <time>2025-05-12T11:30:35Z</time>
      </trkpt>
      <trkpt lat="37.004722002893686" lon="-2.933002011850476">
        <ele>1110.9400000000001</ele>
        <time>2025-05-12T11:30:36Z</time>
      </trkpt>
      <trkpt lat="37.004585964605212" lon="-2.932835966348648">
        <ele>1109.5</ele>
        <time>2025-05-12T11:30:37Z</time>
      </trkpt>
      <trkpt lat="37.004467025399208" lon="-2.93266698718071">
        <ele>1108.54</ele>
        <time>2025-05-12T11:30:38Z</time>
      </trkpt>
      <trkpt lat="37.004385972395539" lon="-2.93247202411294">
        <ele>1107.5799999999999</ele>
        <time>2025-05-12T11:30:39Z</time>
      </trkpt>
      <trkpt lat="37.004323024302721" lon="-2.932246970012784">
        <ele>1107.0999999999999</ele>
        <time>2025-05-12T11:30:40Z</time>
      </trkpt>
      <trkpt lat="37.004255969077349" lon="-2.932009007781744">
        <ele>1106.1300000000001</ele>
        <time>2025-05-12T11:30:41Z</time>
      </trkpt>
      <trkpt lat="37.003764035180211" lon="-2.930021993815899">
        <ele>1097</ele>
        <time>2025-05-12T11:30:49Z</time>
      </trkpt>
      <trkpt lat="37.003588015213609" lon="-2.929428974166513">
        <ele>1094.1199999999999</ele>
        <time>2025-05-12T11:30:52Z</time>
      </trkpt>
      <trkpt lat="37.003528000786901" lon="-2.929253960028291">
        <ele>1093.1600000000001</ele>
        <time>2025-05-12T11:30:53Z</time>
      </trkpt>
      <trkpt lat="37.003430016338825" lon="-2.929124962538481">
        <ele>1092.2</ele>
        <time>2025-05-12T11:30:54Z</time>
      </trkpt>
      <trkpt lat="37.003296995535493" lon="-2.929042987525463">
        <ele>1091.23</ele>
        <time>2025-05-12T11:30:55Z</time>
      </trkpt>
      <trkpt lat="37.003134973347187" lon="-2.92901499196887">
        <ele>1089.79</ele>
        <time>2025-05-12T11:30:56Z</time>
      </trkpt>
      <trkpt lat="37.002950990572572" lon="-2.929041981697083">
        <ele>1088.8299999999999</ele>
        <time>2025-05-12T11:30:57Z</time>
      </trkpt>
      <trkpt lat="37.002771031111479" lon="-2.929138038307428">
        <ele>1087.3900000000001</ele>
        <time>2025-05-12T11:30:58Z</time>
      </trkpt>
      <trkpt lat="37.002600962296128" lon="-2.929279021918774">
        <ele>1085.95</ele>
        <time>2025-05-12T11:30:59Z</time>
      </trkpt>
      <trkpt lat="37.002417985349894" lon="-2.929430985823274">
        <ele>1084.5</ele>
        <time>2025-05-12T11:31:00Z</time>
      </trkpt>
      <trkpt lat="37.001668978482485" lon="-2.929964996874332">
        <ele>1079.22</ele>
        <time>2025-05-12T11:31:04Z</time>
      </trkpt>
      <trkpt lat="37.001482984051108" lon="-2.930061975494027">
        <ele>1077.78</ele>
        <time>2025-05-12T11:31:05Z</time>
      </trkpt>
      <trkpt lat="37.001273017376661" lon="-2.930118972435594">
        <ele>1076.3299999999999</ele>
        <time>2025-05-12T11:31:06Z</time>
      </trkpt>
      <trkpt lat="37.001058021560311" lon="-2.93017496354878">
        <ele>1074.8900000000001</ele>
        <time>2025-05-12T11:31:07Z</time>
      </trkpt>
      <trkpt lat="37.000830033794045" lon="-2.930190972983837">
        <ele>1073.9300000000001</ele>
        <time>2025-05-12T11:31:08Z</time>
      </trkpt>
      <trkpt lat="37.000600034371018" lon="-2.930207988247275">
        <ele>1072.49</ele>
        <time>2025-05-12T11:31:09Z</time>
      </trkpt>
      <trkpt lat="36.999783972278237" lon="-2.930184016004205">
        <ele>1067.6800000000001</ele>
        <time>2025-05-12T11:31:13Z</time>
      </trkpt>
      <trkpt lat="36.99967903085053" lon="-2.9301100037992">
        <ele>1066.72</ele>
        <time>2025-05-12T11:31:14Z</time>
      </trkpt>
      <trkpt lat="36.999569982290268" lon="-2.929972959682345">
        <ele>1066.24</ele>
        <time>2025-05-12T11:31:15Z</time>
      </trkpt>
      <trkpt lat="36.999369990080595" lon="-2.929657967761159">
        <ele>1064.3199999999999</ele>
        <time>2025-05-12T11:31:17Z</time>
      </trkpt>
      <trkpt lat="36.999289020895958" lon="-2.929456969723105">
        <ele>1063.3599999999999</ele>
        <time>2025-05-12T11:31:18Z</time>
      </trkpt>
      <trkpt lat="36.999247027561069" lon="-2.929239040240645">
        <ele>1062.3900000000001</ele>
        <time>2025-05-12T11:31:19Z</time>
      </trkpt>
      <trkpt lat="36.999239986762404" lon="-2.928985990583897">
        <ele>1061.4300000000001</ele>
        <time>2025-05-12T11:31:20Z</time>
      </trkpt>
      <trkpt lat="36.999232023954391" lon="-2.928731013089418">
        <ele>1060.47</ele>
        <time>2025-05-12T11:31:21Z</time>
      </trkpt>
      <trkpt lat="36.999191958457232" lon="-2.928485004231334">
        <ele>1059.51</ele>
        <time>2025-05-12T11:31:22Z</time>
      </trkpt>
      <trkpt lat="36.999109983444214" lon="-2.928288029506803">
        <ele>1058.55</ele>
        <time>2025-05-12T11:31:23Z</time>
      </trkpt>
      <trkpt lat="36.99901501648128" lon="-2.92811100371182">
        <ele>1057.1099999999999</ele>
        <time>2025-05-12T11:31:24Z</time>
      </trkpt>
      <trkpt lat="36.998893981799483" lon="-2.927955016493797">
        <ele>1056.1500000000001</ele>
        <time>2025-05-12T11:31:25Z</time>
      </trkpt>
      <trkpt lat="36.998745035380125" lon="-2.927814032882452">
        <ele>1054.7</ele>
        <time>2025-05-12T11:31:26Z</time>
      </trkpt>
      <trkpt lat="36.998602962121367" lon="-2.927680006250739">
        <ele>1053.26</ele>
        <time>2025-05-12T11:31:27Z</time>
      </trkpt>
      <trkpt lat="36.998505983501673" lon="-2.927518989890814">
        <ele>1051.8199999999999</ele>
        <time>2025-05-12T11:31:28Z</time>
      </trkpt>
      <trkpt lat="36.998429959639907" lon="-2.927355961874127">
        <ele>1050.8599999999999</ele>
        <time>2025-05-12T11:31:29Z</time>
      </trkpt>
      <trkpt lat="36.9984130281955" lon="-2.927194023504853">
        <ele>1049.4200000000001</ele>
        <time>2025-05-12T11:31:30Z</time>
      </trkpt>
      <trkpt lat="36.998428031802177" lon="-2.92703895829618">
        <ele>1047.97</ele>
        <time>2025-05-12T11:31:31Z</time>
      </trkpt>
      <trkpt lat="36.998484022915363" lon="-2.926869979128242">
        <ele>1047.01</ele>
        <time>2025-05-12T11:31:32Z</time>
      </trkpt>
      <trkpt lat="36.99854495935142" lon="-2.926689013838768">
        <ele>1046.05</ele>
        <time>2025-05-12T11:31:33Z</time>
      </trkpt>
      <trkpt lat="36.998745035380125" lon="-2.926087025552988">
        <ele>1042.21</ele>
        <time>2025-05-12T11:31:36Z</time>
      </trkpt>
      <trkpt lat="36.998777976259589" lon="-2.925897007808089">
        <ele>1041.25</ele>
        <time>2025-05-12T11:31:37Z</time>
      </trkpt>
      <trkpt lat="36.998772025108337" lon="-2.925699027255178">
        <ele>1040.28</ele>
        <time>2025-05-12T11:31:38Z</time>
      </trkpt>
      <trkpt lat="36.998732965439558" lon="-2.925491994246841">
        <ele>1039.8</ele>
        <time>2025-05-12T11:31:39Z</time>
      </trkpt>
      <trkpt lat="36.998702958226204" lon="-2.925270041450858">
        <ele>1039.3199999999999</ele>
        <time>2025-05-12T11:31:40Z</time>
      </trkpt>
      <trkpt lat="36.998680997639894" lon="-2.925036018714309">
        <ele>1038.3599999999999</ele>
        <time>2025-05-12T11:31:41Z</time>
      </trkpt>
      <trkpt lat="36.998665994033217" lon="-2.924795038998127">
        <ele>1037.8800000000001</ele>
        <time>2025-05-12T11:31:42Z</time>
      </trkpt>
      <trkpt lat="36.998574966564775" lon="-2.923692986369133">
        <ele>1033.0699999999999</ele>
        <time>2025-05-12T11:31:47Z</time>
      </trkpt>
      <trkpt lat="36.99854202568531" lon="-2.923586033284664">
        <ele>1031.6300000000001</ele>
        <time>2025-05-12T11:31:48Z</time>
      </trkpt>
      <trkpt lat="36.998426020145416" lon="-2.923503974452615">
        <ele>1030.6700000000001</ele>
        <time>2025-05-12T11:31:49Z</time>
      </trkpt>
      <trkpt lat="36.998337004333735" lon="-2.923478996381164">
        <ele>1029.23</ele>
        <time>2025-05-12T11:31:50Z</time>
      </trkpt>
      <trkpt lat="36.998236002400517" lon="-2.923516966402531">
        <ele>1027.79</ele>
        <time>2025-05-12T11:31:51Z</time>
      </trkpt>
      <trkpt lat="36.99815503321588" lon="-2.923630960285664">
        <ele>1026.3399999999999</ele>
        <time>2025-05-12T11:31:52Z</time>
      </trkpt>
      <trkpt lat="36.998123014345765" lon="-2.923783008009195">
        <ele>1024.9000000000001</ele>
        <time>2025-05-12T11:31:53Z</time>
      </trkpt>
      <trkpt lat="36.998085966333747" lon="-2.923957016319037">
        <ele>1023.46</ele>
        <time>2025-05-12T11:31:54Z</time>
      </trkpt>
      <trkpt lat="36.99804900214076" lon="-2.924152985215187">
        <ele>1022.5</ele>
        <time>2025-05-12T11:31:55Z</time>
      </trkpt>
      <trkpt lat="36.997915981337428" lon="-2.92480300180614">
        <ele>1018.65</ele>
        <time>2025-05-12T11:31:58Z</time>
      </trkpt>
      <trkpt lat="36.997854961082339" lon="-2.925002994015813">
        <ele>1017.21</ele>
        <time>2025-05-12T11:31:59Z</time>
      </trkpt>
      <trkpt lat="36.997741973027587" lon="-2.925171973183751">
        <ele>1015.77</ele>
        <time>2025-05-12T11:32:00Z</time>
      </trkpt>
      <trkpt lat="36.99764097109437" lon="-2.925324020907283">
        <ele>1014.8099999999999</ele>
        <time>2025-05-12T11:32:01Z</time>
      </trkpt>
      <trkpt lat="36.997500993311405" lon="-2.925376994535327">
        <ele>1013.85</ele>
        <time>2025-05-12T11:32:02Z</time>
      </trkpt>
      <trkpt lat="36.997351041063666" lon="-2.92540499009192">
        <ele>1012.41</ele>
        <time>2025-05-12T11:32:03Z</time>
      </trkpt>
      <trkpt lat="36.997192958369851" lon="-2.925426028668881">
        <ele>1011.4400000000001</ele>
        <time>2025-05-12T11:32:04Z</time>
      </trkpt>
      <trkpt lat="36.996066011488438" lon="-2.925477996468544">
        <ele>1002.79</ele>
        <time>2025-05-12T11:32:11Z</time>
      </trkpt>
      <trkpt lat="36.995915975421667" lon="-2.925441032275558">
        <ele>1001.35</ele>
        <time>2025-05-12T11:32:12Z</time>
      </trkpt>
      <trkpt lat="36.995774991810322" lon="-2.925389986485243">
        <ele>999.90999999999997</ele>
        <time>2025-05-12T11:32:13Z</time>
      </trkpt>
      <trkpt lat="36.995657980442047" lon="-2.925272975116968">
        <ele>998.47000000000003</ele>
        <time>2025-05-12T11:32:14Z</time>
      </trkpt>
      <trkpt lat="36.995562007650733" lon="-2.925123022869229">
        <ele>997.50999999999999</ele>
        <time>2025-05-12T11:32:15Z</time>
      </trkpt>
      <trkpt lat="36.995467962697148" lon="-2.924943985417485">
        <ele>996.05999999999995</ele>
        <time>2025-05-12T11:32:16Z</time>
      </trkpt>
      <trkpt lat="36.995380036532879" lon="-2.924741981551051">
        <ele>995.10000000000002</ele>
        <time>2025-05-12T11:32:17Z</time>
      </trkpt>
      <trkpt lat="36.995294038206339" lon="-2.924517011269927">
        <ele>993.65999999999997</ele>
        <time>2025-05-12T11:32:18Z</time>
      </trkpt>
      <trkpt lat="36.994758015498519" lon="-2.922551035881043">
        <ele>983.57000000000005</ele>
        <time>2025-05-12T11:32:25Z</time>
      </trkpt>
      <trkpt lat="36.994343027472496" lon="-2.91969096288085">
        <ele>969.63</ele>
        <time>2025-05-12T11:32:34Z</time>
      </trkpt>
      <trkpt lat="36.994263986125588" lon="-2.917678970843554">
        <ele>960.98000000000002</ele>
        <time>2025-05-12T11:32:41Z</time>
      </trkpt>
      <trkpt lat="36.994345039129257" lon="-2.915180996060371">
        <ele>955.21000000000004</ele>
        <time>2025-05-12T11:32:49Z</time>
      </trkpt>
      <trkpt lat="36.994403041899204" lon="-2.914038961753249">
        <ele>953.27999999999997</ele>
        <time>2025-05-12T11:32:53Z</time>
      </trkpt>
      <trkpt lat="36.994668999686837" lon="-2.912169964984059">
        <ele>952.32000000000005</ele>
        <time>2025-05-12T11:33:00Z</time>
      </trkpt>
      <trkpt lat="36.994678974151611" lon="-2.911938037723303">
        <ele>952.32000000000005</ele>
        <time>2025-05-12T11:33:01Z</time>
      </trkpt>
      <trkpt lat="36.994685009121895" lon="-2.911204034462571">
        <ele>951.36000000000001</ele>
        <time>2025-05-12T11:33:04Z</time>
      </trkpt>
      <trkpt lat="36.994730019941926" lon="-2.910938998684287">
        <ele>950.39999999999998</ele>
        <time>2025-05-12T11:33:05Z</time>
      </trkpt>
      <trkpt lat="36.994800008833408" lon="-2.910679997876287">
        <ele>949.91999999999996</ele>
        <time>2025-05-12T11:33:06Z</time>
      </trkpt>
      <trkpt lat="36.995200999081135" lon="-2.908740006387234">
        <ele>948</ele>
        <time>2025-05-12T11:33:13Z</time>
      </trkpt>
      <trkpt lat="36.99531901627779" lon="-2.907653963193297">
        <ele>945.11000000000001</ele>
        <time>2025-05-12T11:33:17Z</time>
      </trkpt>
      <trkpt lat="36.995310969650745" lon="-2.907408960163593">
        <ele>944.63</ele>
        <time>2025-05-12T11:33:18Z</time>
      </trkpt>
      <trkpt lat="36.995271993800998" lon="-2.90716596879065">
        <ele>944.14999999999998</ele>
        <time>2025-05-12T11:33:19Z</time>
      </trkpt>
      <trkpt lat="36.995208039879799" lon="-2.906919037923217">
        <ele>944.14999999999998</ele>
        <time>2025-05-12T11:33:20Z</time>
      </trkpt>
      <trkpt lat="36.995150959119201" lon="-2.906634975224733">
        <ele>943.66999999999996</ele>
        <time>2025-05-12T11:33:21Z</time>
      </trkpt>
      <trkpt lat="36.99484501965344" lon="-2.905386993661523">
        <ele>941.26999999999998</ele>
        <time>2025-05-12T11:33:27Z</time>
      </trkpt>
      <trkpt lat="36.994691966101527" lon="-2.904444029554725">
        <ele>939.83000000000004</ele>
        <time>2025-05-12T11:33:33Z</time>
      </trkpt>
      <trkpt lat="36.994661958888173" lon="-2.904289970174432">
        <ele>939.35000000000002</ele>
        <time>2025-05-12T11:33:34Z</time>
      </trkpt>
      <trkpt lat="36.994177987799048" lon="-2.902573021128774">
        <ele>939.35000000000002</ele>
        <time>2025-05-12T11:33:46Z</time>
      </trkpt>
      <trkpt lat="36.994121996685863" lon="-2.902126014232636">
        <ele>939.83000000000004</ele>
        <time>2025-05-12T11:33:50Z</time>
      </trkpt>
      <trkpt lat="36.993825025856495" lon="-2.901089005172253">
        <ele>935.98000000000002</ele>
        <time>2025-05-12T11:33:59Z</time>
      </trkpt>
      <trkpt lat="36.993538029491901" lon="-2.900007991120219">
        <ele>929.25</ele>
        <time>2025-05-12T11:34:09Z</time>
      </trkpt>
      <trkpt lat="36.993521014228463" lon="-2.899918975308538">
        <ele>928.76999999999998</ele>
        <time>2025-05-12T11:34:10Z</time>
      </trkpt>
      <trkpt lat="36.993425041437149" lon="-2.899823002517223">
        <ele>928.28999999999996</ele>
        <time>2025-05-12T11:34:11Z</time>
      </trkpt>
      <trkpt lat="36.993388999253511" lon="-2.899703979492188">
        <ele>927.80999999999995</ele>
        <time>2025-05-12T11:34:12Z</time>
      </trkpt>
      <trkpt lat="36.993318004533648" lon="-2.899642959237099">
        <ele>927.33000000000004</ele>
        <time>2025-05-12T11:34:13Z</time>
      </trkpt>
      <trkpt lat="36.993248015642166" lon="-2.899582022801042">
        <ele>926.85000000000002</ele>
        <time>2025-05-12T11:34:14Z</time>
      </trkpt>
      <trkpt lat="36.992607973515987" lon="-2.899040970951319">
        <ele>920.60000000000002</ele>
        <time>2025-05-12T11:34:24Z</time>
      </trkpt>
      <trkpt lat="36.992520969361067" lon="-2.899021022021771">
        <ele>919.63999999999999</ele>
        <time>2025-05-12T11:34:25Z</time>
      </trkpt>
      <trkpt lat="36.992469001561403" lon="-2.899059997871518">
        <ele>918.67999999999995</ele>
        <time>2025-05-12T11:34:26Z</time>
      </trkpt>
      <trkpt lat="36.992437988519669" lon="-2.899028984829783">
        <ele>918.20000000000005</ele>
        <time>2025-05-12T11:34:27Z</time>
      </trkpt>
      <trkpt lat="36.99239800684154" lon="-2.898989003151655">
        <ele>917.24000000000001</ele>
        <time>2025-05-12T11:34:28Z</time>
      </trkpt>
      <trkpt lat="36.992408987134695" lon="-2.898923959583044">
        <ele>916.75</ele>
        <time>2025-05-12T11:34:29Z</time>
      </trkpt>
      <trkpt lat="36.992447962984443" lon="-2.898831004276872">
        <ele>915.78999999999996</ele>
        <time>2025-05-12T11:34:30Z</time>
      </trkpt>
      <trkpt lat="36.992447962984443" lon="-2.898756992071867">
        <ele>915.30999999999995</ele>
        <time>2025-05-12T11:34:31Z</time>
      </trkpt>
      <trkpt lat="36.992447962984443" lon="-2.898682979866862">
        <ele>914.35000000000002</ele>
        <time>2025-05-12T11:34:32Z</time>
      </trkpt>
      <trkpt lat="36.992447962984443" lon="-2.898607039824128">
        <ele>913.87</ele>
        <time>2025-05-12T11:34:33Z</time>
      </trkpt>
      <trkpt lat="36.99244000017643" lon="-2.898537972941995">
        <ele>913.38999999999999</ele>
        <time>2025-05-12T11:34:34Z</time>
      </trkpt>
      <trkpt lat="36.992426002398133" lon="-2.898058025166392">
        <ele>909.05999999999995</ele>
        <time>2025-05-12T11:34:43Z</time>
      </trkpt>
      <trkpt lat="36.99244100600481" lon="-2.897878987714648">
        <ele>908.58000000000004</ele>
        <time>2025-05-12T11:34:46Z</time>
      </trkpt>
      <trkpt lat="36.992490040138364" lon="-2.897502975538373">
        <ele>906.65999999999997</ele>
        <time>2025-05-12T11:34:52Z</time>
      </trkpt>
      <trkpt lat="36.992498002946377" lon="-2.897444972768426">
        <ele>906.17999999999995</ele>
        <time>2025-05-12T11:34:53Z</time>
      </trkpt>
      <trkpt lat="36.992618031799793" lon="-2.896606028079987">
        <ele>905.22000000000003</ele>
        <time>2025-05-12T11:35:04Z</time>
      </trkpt>
      <trkpt lat="36.992755997925997" lon="-2.89551998488605">
        <ele>905.70000000000005</ele>
        <time>2025-05-12T11:35:17Z</time>
      </trkpt>
      <trkpt lat="36.992922965437174" lon="-2.89440200664103">
        <ele>908.58000000000004</ele>
        <time>2025-05-12T11:35:30Z</time>
      </trkpt>
      <trkpt lat="36.992988009005785" lon="-2.893946031108499">
        <ele>909.53999999999996</ele>
        <time>2025-05-12T11:35:35Z</time>
      </trkpt>
      <trkpt lat="36.993011981248856" lon="-2.893777973949909">
        <ele>910.50999999999999</ele>
        <time>2025-05-12T11:35:37Z</time>
      </trkpt>
      <trkpt lat="36.993024973198771" lon="-2.893688958138228">
        <ele>910.99000000000001</ele>
        <time>2025-05-12T11:35:38Z</time>
      </trkpt>
      <trkpt lat="36.993121029809117" lon="-2.89328696206212">
        <ele>914.35000000000002</ele>
        <time>2025-05-12T11:35:43Z</time>
      </trkpt>
      <trkpt lat="36.99338598176837" lon="-2.892541978508234">
        <ele>920.12</ele>
        <time>2025-05-12T11:35:52Z</time>
      </trkpt>
      <trkpt lat="36.993486983701587" lon="-2.892289012670517">
        <ele>921.55999999999995</ele>
        <time>2025-05-12T11:35:55Z</time>
      </trkpt>
      <trkpt lat="36.993628973141313" lon="-2.891932027414441">
        <ele>923.48000000000002</ele>
        <time>2025-05-12T11:36:01Z</time>
      </trkpt>
      <trkpt lat="36.993698040023446" lon="-2.891736980527639">
        <ele>923.96000000000004</ele>
        <time>2025-05-12T11:36:05Z</time>
      </trkpt>
      <trkpt lat="36.993715977296233" lon="-2.891685012727976">
        <ele>924.45000000000005</ele>
        <time>2025-05-12T11:36:06Z</time>
      </trkpt>
      <trkpt lat="36.993735004216433" lon="-2.891632961109281">
        <ele>924.45000000000005</ele>
        <time>2025-05-12T11:36:07Z</time>
      </trkpt>
      <trkpt lat="36.993770962581038" lon="-2.891528019681573">
        <ele>924.92999999999995</ele>
        <time>2025-05-12T11:36:09Z</time>
      </trkpt>
      <trkpt lat="36.993789989501238" lon="-2.891475968062878">
        <ele>924.92999999999995</ele>
        <time>2025-05-12T11:36:10Z</time>
      </trkpt>
      <trkpt lat="36.993807004764676" lon="-2.891428023576737">
        <ele>925.40999999999997</ele>
        <time>2025-05-12T11:36:11Z</time>
      </trkpt>
      <trkpt lat="36.993823014199734" lon="-2.891379995271564">
        <ele>925.40999999999997</ele>
        <time>2025-05-12T11:36:12Z</time>
      </trkpt>
      <trkpt lat="36.993841035291553" lon="-2.891329033300281">
        <ele>925.40999999999997</ele>
        <time>2025-05-12T11:36:13Z</time>
      </trkpt>
      <trkpt lat="36.993907000869513" lon="-2.891142033040524">
        <ele>925.88999999999999</ele>
        <time>2025-05-12T11:36:16Z</time>
      </trkpt>
      <trkpt lat="36.993907000869513" lon="-2.891094004735351">
        <ele>926.37</ele>
        <time>2025-05-12T11:36:17Z</time>
      </trkpt>
      <trkpt lat="36.993907000869513" lon="-2.89102703332901">
        <ele>925.88999999999999</ele>
        <time>2025-05-12T11:36:18Z</time>
      </trkpt>
      <trkpt lat="36.993907000869513" lon="-2.890822011977434">
        <ele>925.88999999999999</ele>
        <time>2025-05-12T11:36:21Z</time>
      </trkpt>
      <trkpt lat="36.993907000869513" lon="-2.890735007822514">
        <ele>926.37</ele>
        <time>2025-05-12T11:36:22Z</time>
      </trkpt>
      <trkpt lat="36.993926027789712" lon="-2.890566028654575">
        <ele>926.37</ele>
        <time>2025-05-12T11:36:25Z</time>
      </trkpt>
      <trkpt lat="36.993939019739628" lon="-2.890444993972778">
        <ele>926.85000000000002</ele>
        <time>2025-05-12T11:36:27Z</time>
      </trkpt>
      <trkpt lat="36.993950000032783" lon="-2.890323959290981">
        <ele>926.85000000000002</ele>
        <time>2025-05-12T11:36:29Z</time>
      </trkpt>
      <trkpt lat="36.993950000032783" lon="-2.890251958742738">
        <ele>927.33000000000004</ele>
        <time>2025-05-12T11:36:30Z</time>
      </trkpt>
      <trkpt lat="36.993950000032783" lon="-2.890128996223211">
        <ele>927.33000000000004</ele>
        <time>2025-05-12T11:36:32Z</time>
      </trkpt>
      <trkpt lat="36.993950000032783" lon="-2.890048027038574">
        <ele>927.80999999999995</ele>
        <time>2025-05-12T11:36:33Z</time>
      </trkpt>
      <trkpt lat="36.993939019739628" lon="-2.890016008168459">
        <ele>927.80999999999995</ele>
        <time>2025-05-12T11:36:34Z</time>
      </trkpt>
      <trkpt lat="36.993897026404738" lon="-2.889893967658281">
        <ele>928.76999999999998</ele>
        <time>2025-05-12T11:36:36Z</time>
      </trkpt>
      <trkpt lat="36.993872970342636" lon="-2.889834959059954">
        <ele>929.25</ele>
        <time>2025-05-12T11:36:37Z</time>
      </trkpt>
      <trkpt lat="36.993864001706243" lon="-2.889811992645264">
        <ele>929.25</ele>
        <time>2025-05-12T11:36:38Z</time>
      </trkpt>
      <trkpt lat="36.993868025019765" lon="-2.889721971005201">
        <ele>929.73000000000002</ele>
        <time>2025-05-12T11:36:39Z</time>
      </trkpt>
      <trkpt lat="36.993870958685875" lon="-2.889650976285338">
        <ele>929.73000000000002</ele>
        <time>2025-05-12T11:36:40Z</time>
      </trkpt>
      <trkpt lat="36.993876993656158" lon="-2.889512004330754">
        <ele>929.73000000000002</ele>
        <time>2025-05-12T11:36:42Z</time>
      </trkpt>
      <trkpt lat="36.9938800111413" lon="-2.889435980468988">
        <ele>929.73000000000002</ele>
        <time>2025-05-12T11:36:43Z</time>
      </trkpt>
      <trkpt lat="36.993884034454823" lon="-2.889359034597874">
        <ele>929.73000000000002</ele>
        <time>2025-05-12T11:36:44Z</time>
      </trkpt>
      <trkpt lat="36.993887973949313" lon="-2.889282004907727">
        <ele>929.25</ele>
        <time>2025-05-12T11:36:45Z</time>
      </trkpt>
      <trkpt lat="36.993895014747977" lon="-2.889202041551471">
        <ele>929.25</ele>
        <time>2025-05-12T11:36:46Z</time>
      </trkpt>
      <trkpt lat="36.99390297755599" lon="-2.88911797106266">
        <ele>929.25</ele>
        <time>2025-05-12T11:36:47Z</time>
      </trkpt>
      <trkpt lat="36.993909012526274" lon="-2.889039013534784">
        <ele>929.73000000000002</ele>
        <time>2025-05-12T11:36:48Z</time>
      </trkpt>
      <trkpt lat="36.993915969505906" lon="-2.888960978016257">
        <ele>929.25</ele>
        <time>2025-05-12T11:36:49Z</time>
      </trkpt>
      <trkpt lat="36.99392301030457" lon="-2.88887900300324">
        <ele>928.76999999999998</ele>
        <time>2025-05-12T11:36:50Z</time>
      </trkpt>
      <trkpt lat="36.993928961455822" lon="-2.888804990798235">
        <ele>928.28999999999996</ele>
        <time>2025-05-12T11:36:51Z</time>
      </trkpt>
      <trkpt lat="36.993933990597725" lon="-2.888747993856669">
        <ele>927.80999999999995</ele>
        <time>2025-05-12T11:36:52Z</time>
      </trkpt>
      <trkpt lat="36.993948994204402" lon="-2.888560993596911">
        <ele>925.40999999999997</ele>
        <time>2025-05-12T11:36:55Z</time>
      </trkpt>
      <trkpt lat="36.993943965062499" lon="-2.888494022190571">
        <ele>925.40999999999997</ele>
        <time>2025-05-12T11:36:56Z</time>
      </trkpt>
      <trkpt lat="36.993939019739628" lon="-2.888427972793579">
        <ele>924.92999999999995</ele>
        <time>2025-05-12T11:36:57Z</time>
      </trkpt>
      <trkpt lat="36.993932984769344" lon="-2.888352032750845">
        <ele>924.45000000000005</ele>
        <time>2025-05-12T11:36:58Z</time>
      </trkpt>
      <trkpt lat="36.993911024183035" lon="-2.888251030817628">
        <ele>924.45000000000005</ele>
        <time>2025-05-12T11:36:59Z</time>
      </trkpt>
      <trkpt lat="36.993873976171017" lon="-2.888174001127482">
        <ele>924.45000000000005</ele>
        <time>2025-05-12T11:37:00Z</time>
      </trkpt>
      <trkpt lat="36.993835000321269" lon="-2.888091020286083">
        <ele>923.96000000000004</ele>
        <time>2025-05-12T11:37:01Z</time>
      </trkpt>
      <trkpt lat="36.993796024471521" lon="-2.888008961454034">
        <ele>923.48000000000002</ele>
        <time>2025-05-12T11:37:02Z</time>
      </trkpt>
      <trkpt lat="36.993294032290578" lon="-2.886995002627373">
        <ele>919.15999999999997</ele>
        <time>2025-05-12T11:37:13Z</time>
      </trkpt>
      <trkpt lat="36.992704030126333" lon="-2.886312967166305">
        <ele>911.47000000000003</ele>
        <time>2025-05-12T11:37:22Z</time>
      </trkpt>
      <trkpt lat="36.992168007418513" lon="-2.885734029114246">
        <ele>907.13999999999999</ele>
        <time>2025-05-12T11:37:29Z</time>
      </trkpt>
      <trkpt lat="36.992088966071606" lon="-2.885647024959326">
        <ele>906.65999999999997</ele>
        <time>2025-05-12T11:37:30Z</time>
      </trkpt>
      <trkpt lat="36.991393016651273" lon="-2.884875973686576">
        <ele>900.88999999999999</ele>
        <time>2025-05-12T11:37:37Z</time>
      </trkpt>
      <trkpt lat="36.991181960329413" lon="-2.884641028940678">
        <ele>898.97000000000003</ele>
        <time>2025-05-12T11:37:39Z</time>
      </trkpt>
      <trkpt lat="36.990288030356169" lon="-2.883665040135384">
        <ele>890.32000000000005</ele>
        <time>2025-05-12T11:37:48Z</time>
      </trkpt>
      <trkpt lat="36.988970981910825" lon="-2.882221005856991">
        <ele>882.14999999999998</ele>
        <time>2025-05-12T11:38:01Z</time>
      </trkpt>
      <trkpt lat="36.987738003954291" lon="-2.880881996825337">
        <ele>876.38</ele>
        <time>2025-05-12T11:38:14Z</time>
      </trkpt>
      <trkpt lat="36.986785987392068" lon="-2.879796959459782">
        <ele>870.13</ele>
        <time>2025-05-12T11:38:24Z</time>
      </trkpt>
      <trkpt lat="36.986501002684236" lon="-2.879439974203706">
        <ele>870.13</ele>
        <time>2025-05-12T11:38:27Z</time>
      </trkpt>
      <trkpt lat="36.986430007964373" lon="-2.879290021955967">
        <ele>869.64999999999998</ele>
        <time>2025-05-12T11:38:28Z</time>
      </trkpt>
      <trkpt lat="36.986357001587749" lon="-2.879136968404055">
        <ele>869.64999999999998</ele>
        <time>2025-05-12T11:38:29Z</time>
      </trkpt>
      <trkpt lat="36.986290030181408" lon="-2.878990033641458">
        <ele>869.64999999999998</ele>
        <time>2025-05-12T11:38:30Z</time>
      </trkpt>
      <trkpt lat="36.9862300157547" lon="-2.878846032544971">
        <ele>869.64999999999998</ele>
        <time>2025-05-12T11:38:31Z</time>
      </trkpt>
      <trkpt lat="36.985937990248203" lon="-2.878052014857531">
        <ele>870.13</ele>
        <time>2025-05-12T11:38:38Z</time>
      </trkpt>
      <trkpt lat="36.985904965549707" lon="-2.877961993217468">
        <ele>870.13</ele>
        <time>2025-05-12T11:38:39Z</time>
      </trkpt>
      <trkpt lat="36.985748978331685" lon="-2.877489002421498">
        <ele>870.61000000000001</ele>
        <time>2025-05-12T11:38:44Z</time>
      </trkpt>
      <trkpt lat="36.98571796528995" lon="-2.877394035458565">
        <ele>870.13</ele>
        <time>2025-05-12T11:38:45Z</time>
      </trkpt>
      <trkpt lat="36.98532703332603" lon="-2.876160973683">
        <ele>870.61000000000001</ele>
        <time>2025-05-12T11:38:57Z</time>
      </trkpt>
      <trkpt lat="36.985296020284295" lon="-2.876061983406544">
        <ele>870.61000000000001</ele>
        <time>2025-05-12T11:38:58Z</time>
      </trkpt>
      <trkpt lat="36.985267018899322" lon="-2.875963998958468">
        <ele>870.61000000000001</ele>
        <time>2025-05-12T11:38:59Z</time>
      </trkpt>
      <trkpt lat="36.985240029171109" lon="-2.875866014510393">
        <ele>870.61000000000001</ele>
        <time>2025-05-12T11:39:00Z</time>
      </trkpt>
      <trkpt lat="36.985211027786136" lon="-2.875764006748796">
        <ele>871.09000000000003</ele>
        <time>2025-05-12T11:39:01Z</time>
      </trkpt>
      <trkpt lat="36.985061997547746" lon="-2.875329991802573">
        <ele>870.61000000000001</ele>
        <time>2025-05-12T11:39:05Z</time>
      </trkpt>
      <trkpt lat="36.985025033354759" lon="-2.875223038718104">
        <ele>870.61000000000001</ele>
        <time>2025-05-12T11:39:06Z</time>
      </trkpt>
      <trkpt lat="36.985001983121037" lon="-2.875155983492732">
        <ele>870.13</ele>
        <time>2025-05-12T11:39:07Z</time>
      </trkpt>
      <trkpt lat="36.984951021149755" lon="-2.874995972961187">
        <ele>869.64999999999998</ele>
        <time>2025-05-12T11:39:08Z</time>
      </trkpt>
      <trkpt lat="36.98489704169333" lon="-2.874895976856351">
        <ele>869.16999999999996</ele>
        <time>2025-05-12T11:39:09Z</time>
      </trkpt>
      <trkpt lat="36.98440502397716" lon="-2.873849999159575">
        <ele>868.69000000000005</ele>
        <time>2025-05-12T11:39:19Z</time>
      </trkpt>
      <trkpt lat="36.983973020687699" lon="-2.872468996793032">
        <ele>865.79999999999995</ele>
        <time>2025-05-12T11:39:27Z</time>
      </trkpt>
      <trkpt lat="36.983370026573539" lon="-2.870535040274262">
        <ele>861</ele>
        <time>2025-05-12T11:39:37Z</time>
      </trkpt>
      <trkpt lat="36.982993008568883" lon="-2.868933007121086">
        <ele>854.75</ele>
        <time>2025-05-12T11:39:45Z</time>
      </trkpt>
      <trkpt lat="36.982676004990935" lon="-2.867600033059716">
        <ele>851.38</ele>
        <time>2025-05-12T11:39:52Z</time>
      </trkpt>
      <trkpt lat="36.98219102807343" lon="-2.865546969696879">
        <ele>849.94000000000005</ele>
        <time>2025-05-12T11:40:03Z</time>
      </trkpt>
      <trkpt lat="36.981838988140225" lon="-2.864121040329337">
        <ele>849.46000000000004</ele>
        <time>2025-05-12T11:40:11Z</time>
      </trkpt>
      <trkpt lat="36.981647964566946" lon="-2.863461971282959">
        <ele>847.53999999999996</ele>
        <time>2025-05-12T11:40:15Z</time>
      </trkpt>
      <trkpt lat="36.981579987332225" lon="-2.86331201903522">
        <ele>847.05999999999995</ele>
        <time>2025-05-12T11:40:16Z</time>
      </trkpt>
      <trkpt lat="36.981043964624405" lon="-2.862376011908054">
        <ele>845.62</ele>
        <time>2025-05-12T11:40:24Z</time>
      </trkpt>
      <trkpt lat="36.980840032920241" lon="-2.862050039693713">
        <ele>846.10000000000002</ele>
        <time>2025-05-12T11:40:28Z</time>
      </trkpt>
      <trkpt lat="36.980799967423081" lon="-2.861974015831947">
        <ele>846.58000000000004</ele>
        <time>2025-05-12T11:40:29Z</time>
      </trkpt>
      <trkpt lat="36.980663007125258" lon="-2.861711997538805">
        <ele>848.01999999999998</ele>
        <time>2025-05-12T11:40:32Z</time>
      </trkpt>
      <trkpt lat="36.980616990476847" lon="-2.861627005040646">
        <ele>848.01999999999998</ele>
        <time>2025-05-12T11:40:33Z</time>
      </trkpt>
      <trkpt lat="36.980405012145638" lon="-2.861296003684402">
        <ele>848.98000000000002</ele>
        <time>2025-05-12T11:40:37Z</time>
      </trkpt>
      <trkpt lat="36.98019596748054" lon="-2.860896019265056">
        <ele>848.98000000000002</ele>
        <time>2025-05-12T11:40:41Z</time>
      </trkpt>
      <trkpt lat="36.980165038257837" lon="-2.860794011503458">
        <ele>848.98000000000002</ele>
        <time>2025-05-12T11:40:42Z</time>
      </trkpt>
      <trkpt lat="36.980135031044483" lon="-2.86069200374186">
        <ele>848.5</ele>
        <time>2025-05-12T11:40:43Z</time>
      </trkpt>
      <trkpt lat="36.98002397082746" lon="-2.860285984352231">
        <ele>849.46000000000004</ele>
        <time>2025-05-12T11:40:47Z</time>
      </trkpt>
      <trkpt lat="36.980028999969363" lon="-2.860214989632368">
        <ele>849.94000000000005</ele>
        <time>2025-05-12T11:40:48Z</time>
      </trkpt>
      <trkpt lat="36.980036040768027" lon="-2.860112981870771">
        <ele>849.94000000000005</ele>
        <time>2025-05-12T11:40:49Z</time>
      </trkpt>
      <trkpt lat="36.98004299774766" lon="-2.860020026564598">
        <ele>850.41999999999996</ele>
        <time>2025-05-12T11:40:50Z</time>
      </trkpt>
      <trkpt lat="36.980053978040814" lon="-2.859959006309509">
        <ele>850.89999999999998</ele>
        <time>2025-05-12T11:40:51Z</time>
      </trkpt>
      <trkpt lat="36.98006696999073" lon="-2.859856998547912">
        <ele>850.89999999999998</ele>
        <time>2025-05-12T11:40:52Z</time>
      </trkpt>
      <trkpt lat="36.980084991082549" lon="-2.859801007434726">
        <ele>851.38</ele>
        <time>2025-05-12T11:40:53Z</time>
      </trkpt>
      <trkpt lat="36.980088008567691" lon="-2.859710985794663">
        <ele>851.87</ele>
        <time>2025-05-12T11:40:54Z</time>
      </trkpt>
      <trkpt lat="36.980088008567691" lon="-2.859623981639743">
        <ele>852.35000000000002</ele>
        <time>2025-05-12T11:40:55Z</time>
      </trkpt>
      <trkpt lat="36.980082979425788" lon="-2.859537983313203">
        <ele>852.35000000000002</ele>
        <time>2025-05-12T11:40:56Z</time>
      </trkpt>
      <trkpt lat="36.980073004961014" lon="-2.859452990815043">
        <ele>852.83000000000004</ele>
        <time>2025-05-12T11:40:57Z</time>
      </trkpt>
      <trkpt lat="36.980035034939647" lon="-2.859202958643436">
        <ele>854.26999999999998</ele>
        <time>2025-05-12T11:41:00Z</time>
      </trkpt>
      <trkpt lat="36.980024976655841" lon="-2.859112014994025">
        <ele>854.75</ele>
        <time>2025-05-12T11:41:01Z</time>
      </trkpt>
      <trkpt lat="36.980028999969363" lon="-2.859029034152627">
        <ele>855.71000000000004</ele>
        <time>2025-05-12T11:41:02Z</time>
      </trkpt>
      <trkpt lat="36.980041991919279" lon="-2.858777996152639">
        <ele>856.66999999999996</ele>
        <time>2025-05-12T11:41:05Z</time>
      </trkpt>
      <trkpt lat="36.980045009404421" lon="-2.858698032796383">
        <ele>857.14999999999998</ele>
        <time>2025-05-12T11:41:06Z</time>
      </trkpt>
      <trkpt lat="36.980045009404421" lon="-2.858618991449475">
        <ele>857.14999999999998</ele>
        <time>2025-05-12T11:41:07Z</time>
      </trkpt>
      <trkpt lat="36.980045009404421" lon="-2.858542967587709">
        <ele>857.63</ele>
        <time>2025-05-12T11:41:08Z</time>
      </trkpt>
      <trkpt lat="36.980050038546324" lon="-2.858455963432789">
        <ele>857.63</ele>
        <time>2025-05-12T11:41:09Z</time>
      </trkpt>
      <trkpt lat="36.98006696999073" lon="-2.858354961499572">
        <ele>858.11000000000001</ele>
        <time>2025-05-12T11:41:10Z</time>
      </trkpt>
      <trkpt lat="36.980071999132633" lon="-2.858282038941979">
        <ele>858.11000000000001</ele>
        <time>2025-05-12T11:41:11Z</time>
      </trkpt>
      <trkpt lat="36.980079961940646" lon="-2.858186988160014">
        <ele>858.11000000000001</ele>
        <time>2025-05-12T11:41:12Z</time>
      </trkpt>
      <trkpt lat="36.98008599691093" lon="-2.858101995661855">
        <ele>858.59000000000003</ele>
        <time>2025-05-12T11:41:13Z</time>
      </trkpt>
      <trkpt lat="36.980095971375704" lon="-2.858021026477218">
        <ele>858.59000000000003</ele>
        <time>2025-05-12T11:41:14Z</time>
      </trkpt>
      <trkpt lat="36.98010896332562" lon="-2.857921030372381">
        <ele>859.08000000000004</ele>
        <time>2025-05-12T11:41:15Z</time>
      </trkpt>
      <trkpt lat="36.980095971375704" lon="-2.857817010954022">
        <ele>859.55999999999995</ele>
        <time>2025-05-12T11:41:16Z</time>
      </trkpt>
      <trkpt lat="36.980093959718943" lon="-2.857608972117305">
        <ele>860.03999999999996</ele>
        <time>2025-05-12T11:41:18Z</time>
      </trkpt>
      <trkpt lat="36.98010703548789" lon="-2.857298003509641">
        <ele>861.96000000000004</ele>
        <time>2025-05-12T11:41:21Z</time>
      </trkpt>
      <trkpt lat="36.980122039094567" lon="-2.857194989919663">
        <ele>862.44000000000005</ele>
        <time>2025-05-12T11:41:22Z</time>
      </trkpt>
      <trkpt lat="36.98015296831727" lon="-2.857088036835194">
        <ele>863.39999999999998</ele>
        <time>2025-05-12T11:41:23Z</time>
      </trkpt>
      <trkpt lat="36.980679016560316" lon="-2.855723965913057">
        <ele>864.84000000000003</ele>
        <time>2025-05-12T11:41:36Z</time>
      </trkpt>
      <trkpt lat="36.98094698600471" lon="-2.854972025379539">
        <ele>862.44000000000005</ele>
        <time>2025-05-12T11:41:43Z</time>
      </trkpt>
      <trkpt lat="36.980984034016728" lon="-2.854863982647657">
        <ele>862.44000000000005</ele>
        <time>2025-05-12T11:41:44Z</time>
      </trkpt>
      <trkpt lat="36.981195006519556" lon="-2.854339024052024">
        <ele>861.96000000000004</ele>
        <time>2025-05-12T11:41:49Z</time>
      </trkpt>
      <trkpt lat="36.98124697431922" lon="-2.854235004633665">
        <ele>861.96000000000004</ele>
        <time>2025-05-12T11:41:50Z</time>
      </trkpt>
      <trkpt lat="36.98204099200666" lon="-2.853334033861756">
        <ele>857.63</ele>
        <time>2025-05-12T11:42:02Z</time>
      </trkpt>
      <trkpt lat="36.982172001153231" lon="-2.853203024715185">
        <ele>856.66999999999996</ele>
        <time>2025-05-12T11:42:05Z</time>
      </trkpt>
      <trkpt lat="36.982279038056731" lon="-2.853108979761601">
        <ele>855.23000000000002</ele>
        <time>2025-05-12T11:42:08Z</time>
      </trkpt>
      <trkpt lat="36.982321031391621" lon="-2.853075033053756">
        <ele>855.23000000000002</ele>
        <time>2025-05-12T11:42:09Z</time>
      </trkpt>
      <trkpt lat="36.982369981706142" lon="-2.853025998920202">
        <ele>854.75</ele>
        <time>2025-05-12T11:42:10Z</time>
      </trkpt>
      <trkpt lat="36.983033996075392" lon="-2.852351004257798">
        <ele>850.89999999999998</ele>
        <time>2025-05-12T11:42:19Z</time>
      </trkpt>
      <trkpt lat="36.98386799544096" lon="-2.851627981290221">
        <ele>846.10000000000002</ele>
        <time>2025-05-12T11:42:29Z</time>
      </trkpt>
      <trkpt lat="36.984843984246254" lon="-2.850735979154706">
        <ele>841.28999999999996</ele>
        <time>2025-05-12T11:42:40Z</time>
      </trkpt>
      <trkpt lat="36.984925959259272" lon="-2.850620979443193">
        <ele>840.80999999999995</ele>
        <time>2025-05-12T11:42:41Z</time>
      </trkpt>
      <trkpt lat="36.984997037798166" lon="-2.850503968074918">
        <ele>840.33000000000004</ele>
        <time>2025-05-12T11:42:42Z</time>
      </trkpt>
      <trkpt lat="36.98505001142621" lon="-2.850370025262237">
        <ele>839.37</ele>
        <time>2025-05-12T11:42:43Z</time>
      </trkpt>
      <trkpt lat="36.9850729778409" lon="-2.850230969488621">
        <ele>838.88999999999999</ele>
        <time>2025-05-12T11:42:44Z</time>
      </trkpt>
      <trkpt lat="36.985083036124706" lon="-2.850085962563753">
        <ele>838.40999999999997</ele>
        <time>2025-05-12T11:42:45Z</time>
      </trkpt>
      <trkpt lat="36.985090998932719" lon="-2.849943973124027">
        <ele>837.92999999999995</ele>
        <time>2025-05-12T11:42:46Z</time>
      </trkpt>
      <trkpt lat="36.985109020024538" lon="-2.849506018683314">
        <ele>837.45000000000005</ele>
        <time>2025-05-12T11:42:50Z</time>
      </trkpt>
      <trkpt lat="36.985109020024538" lon="-2.849436029791832">
        <ele>837.45000000000005</ele>
        <time>2025-05-12T11:42:51Z</time>
      </trkpt>
      <trkpt lat="36.985109020024538" lon="-2.84936998039484">
        <ele>836.96000000000004</ele>
        <time>2025-05-12T11:42:52Z</time>
      </trkpt>
      <trkpt lat="36.985153025016189" lon="-2.849248023703694">
        <ele>836.48000000000002</ele>
        <time>2025-05-12T11:42:53Z</time>
      </trkpt>
      <trkpt lat="36.985230976715684" lon="-2.849233020097017">
        <ele>836</ele>
        <time>2025-05-12T11:42:54Z</time>
      </trkpt>
      <trkpt lat="36.985325021669269" lon="-2.849213993176818">
        <ele>835.51999999999998</ele>
        <time>2025-05-12T11:42:55Z</time>
      </trkpt>
      <trkpt lat="36.985423006117344" lon="-2.849193960428238">
        <ele>835.03999999999996</ele>
        <time>2025-05-12T11:42:56Z</time>
      </trkpt>
      <trkpt lat="36.985538005828857" lon="-2.849170994013548">
        <ele>834.55999999999995</ele>
        <time>2025-05-12T11:42:57Z</time>
      </trkpt>
      <trkpt lat="36.985632972791791" lon="-2.849123971536756">
        <ele>834.08000000000004</ele>
        <time>2025-05-12T11:42:58Z</time>
      </trkpt>
      <trkpt lat="36.985747972503304" lon="-2.849066974595189">
        <ele>833.60000000000002</ele>
        <time>2025-05-12T11:42:59Z</time>
      </trkpt>
      <trkpt lat="36.98584402911365" lon="-2.848962033167481">
        <ele>833.12</ele>
        <time>2025-05-12T11:43:00Z</time>
      </trkpt>
      <trkpt lat="36.985946036875248" lon="-2.848848039284349">
        <ele>832.15999999999997</ele>
        <time>2025-05-12T11:43:01Z</time>
      </trkpt>
      <trkpt lat="36.986050978302956" lon="-2.848731027916074">
        <ele>831.67999999999995</ele>
        <time>2025-05-12T11:43:02Z</time>
      </trkpt>
      <trkpt lat="36.986136976629496" lon="-2.848597001284361">
        <ele>830.72000000000003</ele>
        <time>2025-05-12T11:43:03Z</time>
      </trkpt>
      <trkpt lat="36.986193973571062" lon="-2.848417041823268">
        <ele>830.24000000000001</ele>
        <time>2025-05-12T11:43:04Z</time>
      </trkpt>
      <trkpt lat="36.98625398799777" lon="-2.84823196940124">
        <ele>829.75999999999999</ele>
        <time>2025-05-12T11:43:05Z</time>
      </trkpt>
      <trkpt lat="36.986314002424479" lon="-2.84803600050509">
        <ele>828.78999999999996</ele>
        <time>2025-05-12T11:43:06Z</time>
      </trkpt>
      <trkpt lat="36.986349960789084" lon="-2.847818993031979">
        <ele>827.83000000000004</ele>
        <time>2025-05-12T11:43:07Z</time>
      </trkpt>
      <trkpt lat="36.98672597296536" lon="-2.845574989914894">
        <ele>816.77999999999997</ele>
        <time>2025-05-12T11:43:16Z</time>
      </trkpt>
      <trkpt lat="36.987241040915251" lon="-2.842723969370127">
        <ele>811.00999999999999</ele>
        <time>2025-05-12T11:43:27Z</time>
      </trkpt>
      <trkpt lat="36.987324021756649" lon="-2.842510985210538">
        <ele>811.97000000000003</ele>
        <time>2025-05-12T11:43:28Z</time>
      </trkpt>
      <trkpt lat="36.98741203173995" lon="-2.842296995222569">
        <ele>813.40999999999997</ele>
        <time>2025-05-12T11:43:29Z</time>
      </trkpt>
      <trkpt lat="36.987529965117574" lon="-2.842103959992528">
        <ele>814.37</ele>
        <time>2025-05-12T11:43:30Z</time>
      </trkpt>
      <trkpt lat="36.987668015062809" lon="-2.84193498082459">
        <ele>815.34000000000003</ele>
        <time>2025-05-12T11:43:31Z</time>
      </trkpt>
      <trkpt lat="36.987826013937593" lon="-2.841788968071342">
        <ele>816.77999999999997</ele>
        <time>2025-05-12T11:43:32Z</time>
      </trkpt>
      <trkpt lat="36.988003961741924" lon="-2.841673968359828">
        <ele>818.22000000000003</ele>
        <time>2025-05-12T11:43:33Z</time>
      </trkpt>
      <trkpt lat="36.988184005022049" lon="-2.841561986133456">
        <ele>819.65999999999997</ele>
        <time>2025-05-12T11:43:34Z</time>
      </trkpt>
      <trkpt lat="36.98837704025209" lon="-2.841470036655664">
        <ele>821.10000000000002</ele>
        <time>2025-05-12T11:43:35Z</time>
      </trkpt>
      <trkpt lat="36.988765960559249" lon="-2.841271972283721">
        <ele>823.99000000000001</ele>
        <time>2025-05-12T11:43:37Z</time>
      </trkpt>
      <trkpt lat="36.988944998010993" lon="-2.841128977015615">
        <ele>824.95000000000005</ele>
        <time>2025-05-12T11:43:38Z</time>
      </trkpt>
      <trkpt lat="36.989114983007312" lon="-2.840981036424637">
        <ele>825.90999999999997</ele>
        <time>2025-05-12T11:43:39Z</time>
      </trkpt>
      <trkpt lat="36.989278011023998" lon="-2.84081800840795">
        <ele>827.35000000000002</ele>
        <time>2025-05-12T11:43:40Z</time>
      </trkpt>
      <trkpt lat="36.989444978535175" lon="-2.840659003704786">
        <ele>828.78999999999996</ele>
        <time>2025-05-12T11:43:41Z</time>
      </trkpt>
      <trkpt lat="36.989613035693765" lon="-2.840520031750202">
        <ele>830.24000000000001</ele>
        <time>2025-05-12T11:43:42Z</time>
      </trkpt>
      <trkpt lat="36.989780003204942" lon="-2.840381981804967">
        <ele>831.67999999999995</ele>
        <time>2025-05-12T11:43:43Z</time>
      </trkpt>
      <trkpt lat="36.989960968494415" lon="-2.840264970436692">
        <ele>833.12</ele>
        <time>2025-05-12T11:43:44Z</time>
      </trkpt>
      <trkpt lat="36.990158027037978" lon="-2.840201016515493">
        <ele>834.55999999999995</ele>
        <time>2025-05-12T11:43:45Z</time>
      </trkpt>
      <trkpt lat="36.990359025076032" lon="-2.840171009302139">
        <ele>836</ele>
        <time>2025-05-12T11:43:46Z</time>
      </trkpt>
      <trkpt lat="36.990559017285705" lon="-2.840142007917166">
        <ele>837.45000000000005</ele>
        <time>2025-05-12T11:43:47Z</time>
      </trkpt>
      <trkpt lat="36.990738976746798" lon="-2.840112000703812">
        <ele>838.88999999999999</ele>
        <time>2025-05-12T11:43:48Z</time>
      </trkpt>
      <trkpt lat="36.990899993106723" lon="-2.840023990720511">
        <ele>840.33000000000004</ele>
        <time>2025-05-12T11:43:49Z</time>
      </trkpt>
      <trkpt lat="36.991015998646617" lon="-2.839900022372603">
        <ele>841.76999999999998</ele>
        <time>2025-05-12T11:43:50Z</time>
      </trkpt>
      <trkpt lat="36.99111096560955" lon="-2.839730959385634">
        <ele>843.69000000000005</ele>
        <time>2025-05-12T11:43:51Z</time>
      </trkpt>
      <trkpt lat="36.991177015006542" lon="-2.839543037116528">
        <ele>845.13999999999999</ele>
        <time>2025-05-12T11:43:52Z</time>
      </trkpt>
      <trkpt lat="36.99121599085629" lon="-2.839309014379978">
        <ele>846.58000000000004</ele>
        <time>2025-05-12T11:43:53Z</time>
      </trkpt>
      <trkpt lat="36.991250021383166" lon="-2.839063005521894">
        <ele>848.01999999999998</ele>
        <time>2025-05-12T11:43:54Z</time>
      </trkpt>
      <trkpt lat="36.991282040253282" lon="-2.838814985007048">
        <ele>849.46000000000004</ele>
        <time>2025-05-12T11:43:55Z</time>
      </trkpt>
      <trkpt lat="36.991347000002861" lon="-2.838592026382685">
        <ele>850.89999999999998</ele>
        <time>2025-05-12T11:43:56Z</time>
      </trkpt>
      <trkpt lat="36.991442972794175" lon="-2.838395973667502">
        <ele>852.35000000000002</ele>
        <time>2025-05-12T11:43:57Z</time>
      </trkpt>
      <trkpt lat="36.991592003032565" lon="-2.838247027248144">
        <ele>853.78999999999996</ele>
        <time>2025-05-12T11:43:58Z</time>
      </trkpt>
      <trkpt lat="36.991760982200503" lon="-2.838108977302909">
        <ele>855.23000000000002</ele>
        <time>2025-05-12T11:43:59Z</time>
      </trkpt>
      <trkpt lat="36.991952005773783" lon="-2.837988026440144">
        <ele>856.66999999999996</ele>
        <time>2025-05-12T11:44:00Z</time>
      </trkpt>
      <trkpt lat="36.992543013766408" lon="-2.837592987343669">
        <ele>860.51999999999998</ele>
        <time>2025-05-12T11:44:03Z</time>
      </trkpt>
      <trkpt lat="36.992714004591107" lon="-2.837412022054195">
        <ele>861.48000000000002</ele>
        <time>2025-05-12T11:44:04Z</time>
      </trkpt>
      <trkpt lat="36.992855994030833" lon="-2.837218986824155">
        <ele>862.91999999999996</ele>
        <time>2025-05-12T11:44:05Z</time>
      </trkpt>
      <trkpt lat="36.992964036762714" lon="-2.836953029036522">
        <ele>863.88</ele>
        <time>2025-05-12T11:44:06Z</time>
      </trkpt>
      <trkpt lat="36.993064032867551" lon="-2.836705008521676">
        <ele>865.32000000000005</ele>
        <time>2025-05-12T11:44:07Z</time>
      </trkpt>
      <trkpt lat="36.993163023144007" lon="-2.836461011320353">
        <ele>866.76999999999998</ele>
        <time>2025-05-12T11:44:08Z</time>
      </trkpt>
      <trkpt lat="36.993280034512281" lon="-2.836233023554087">
        <ele>868.21000000000004</ele>
        <time>2025-05-12T11:44:09Z</time>
      </trkpt>
      <trkpt lat="36.993411965668201" lon="-2.836016016080976">
        <ele>870.13</ele>
        <time>2025-05-12T11:44:10Z</time>
      </trkpt>
      <trkpt lat="36.993553033098578" lon="-2.835822980850935">
        <ele>872.52999999999997</ele>
        <time>2025-05-12T11:44:11Z</time>
      </trkpt>
      <trkpt lat="36.993682030588388" lon="-2.835643021389842">
        <ele>874.46000000000004</ele>
        <time>2025-05-12T11:44:12Z</time>
      </trkpt>
      <trkpt lat="36.993799963966012" lon="-2.835480999201536">
        <ele>875.41999999999996</ele>
        <time>2025-05-12T11:44:13Z</time>
      </trkpt>
      <trkpt lat="36.993877999484539" lon="-2.835290981456637">
        <ele>876.86000000000001</ele>
        <time>2025-05-12T11:44:14Z</time>
      </trkpt>
      <trkpt lat="36.993936002254486" lon="-2.8351029753685">
        <ele>878.29999999999995</ele>
        <time>2025-05-12T11:44:15Z</time>
      </trkpt>
      <trkpt lat="36.993938013911247" lon="-2.834900971502066">
        <ele>879.25999999999999</ele>
        <time>2025-05-12T11:44:16Z</time>
      </trkpt>
      <trkpt lat="36.99390297755599" lon="-2.834697961807251">
        <ele>880.71000000000004</ele>
        <time>2025-05-12T11:44:17Z</time>
      </trkpt>
      <trkpt lat="36.993844974786043" lon="-2.83450098708272">
        <ele>882.14999999999998</ele>
        <time>2025-05-12T11:44:18Z</time>
      </trkpt>
      <trkpt lat="36.993716983124614" lon="-2.834333013743162">
        <ele>883.11000000000001</ele>
        <time>2025-05-12T11:44:19Z</time>
      </trkpt>
      <trkpt lat="36.993583040311933" lon="-2.834161017090082">
        <ele>885.02999999999997</ele>
        <time>2025-05-12T11:44:20Z</time>
      </trkpt>
      <trkpt lat="36.993453036993742" lon="-2.833992959931493">
        <ele>886.47000000000003</ele>
        <time>2025-05-12T11:44:21Z</time>
      </trkpt>
      <trkpt lat="36.993350023403764" lon="-2.833805959671736">
        <ele>887.90999999999997</ele>
        <time>2025-05-12T11:44:22Z</time>
      </trkpt>
      <trkpt lat="36.993282968178391" lon="-2.833603033795953">
        <ele>889.84000000000003</ele>
        <time>2025-05-12T11:44:23Z</time>
      </trkpt>
      <trkpt lat="36.993269976228476" lon="-2.833402035757899">
        <ele>891.27999999999997</ele>
        <time>2025-05-12T11:44:24Z</time>
      </trkpt>
      <trkpt lat="36.993281040340662" lon="-2.833201037719846">
        <ele>892.72000000000003</ele>
        <time>2025-05-12T11:44:25Z</time>
      </trkpt>
      <trkpt lat="36.9933429826051" lon="-2.833013031631708">
        <ele>894.63999999999999</ele>
        <time>2025-05-12T11:44:26Z</time>
      </trkpt>
      <trkpt lat="36.993439961224794" lon="-2.832842962816358">
        <ele>896.57000000000005</ele>
        <time>2025-05-12T11:44:27Z</time>
      </trkpt>
      <trkpt lat="36.993560995906591" lon="-2.832699967548251">
        <ele>898.00999999999999</ele>
        <time>2025-05-12T11:44:28Z</time>
      </trkpt>
      <trkpt lat="36.993711031973362" lon="-2.832559989765286">
        <ele>899.92999999999995</ele>
        <time>2025-05-12T11:44:29Z</time>
      </trkpt>
      <trkpt lat="36.99385997839272" lon="-2.832420011982322">
        <ele>901.37</ele>
        <time>2025-05-12T11:44:30Z</time>
      </trkpt>
      <trkpt lat="36.994000039994717" lon="-2.832289002835751">
        <ele>903.29999999999995</ele>
        <time>2025-05-12T11:44:31Z</time>
      </trkpt>
      <trkpt lat="36.994143035262823" lon="-2.832154976204038">
        <ele>904.25999999999999</ele>
        <time>2025-05-12T11:44:32Z</time>
      </trkpt>
      <trkpt lat="36.994219981133938" lon="-2.832002006471157">
        <ele>905.70000000000005</ele>
        <time>2025-05-12T11:44:33Z</time>
      </trkpt>
      <trkpt lat="36.994269015267491" lon="-2.831810982897878">
        <ele>907.13999999999999</ele>
        <time>2025-05-12T11:44:34Z</time>
      </trkpt>
      <trkpt lat="36.99428603053093" lon="-2.831605961546302">
        <ele>908.58000000000004</ele>
        <time>2025-05-12T11:44:35Z</time>
      </trkpt>
      <trkpt lat="36.994242025539279" lon="-2.831399012356997">
        <ele>909.53999999999996</ele>
        <time>2025-05-12T11:44:36Z</time>
      </trkpt>
      <trkpt lat="36.994153009727597" lon="-2.83121301792562">
        <ele>910.50999999999999</ele>
        <time>2025-05-12T11:44:37Z</time>
      </trkpt>
      <trkpt lat="36.994043039157987" lon="-2.831029035151005">
        <ele>911.95000000000005</ele>
        <time>2025-05-12T11:44:38Z</time>
      </trkpt>
      <trkpt lat="36.993928039446473" lon="-2.830838011577725">
        <ele>913.87</ele>
        <time>2025-05-12T11:44:39Z</time>
      </trkpt>
      <trkpt lat="36.993817985057831" lon="-2.830655034631491">
        <ele>915.30999999999995</ele>
        <time>2025-05-12T11:44:40Z</time>
      </trkpt>
      <trkpt lat="36.993728969246149" lon="-2.830470968037844">
        <ele>916.75</ele>
        <time>2025-05-12T11:44:41Z</time>
      </trkpt>
      <trkpt lat="36.993666021153331" lon="-2.830272987484932">
        <ele>918.20000000000005</ele>
        <time>2025-05-12T11:44:42Z</time>
      </trkpt>
      <trkpt lat="36.993653029203415" lon="-2.830056985840201">
        <ele>920.12</ele>
        <time>2025-05-12T11:44:43Z</time>
      </trkpt>
      <trkpt lat="36.993690999224782" lon="-2.829844001680613">
        <ele>922.03999999999996</ele>
        <time>2025-05-12T11:44:44Z</time>
      </trkpt>
      <trkpt lat="36.99379300698638" lon="-2.829670999199152">
        <ele>923.96000000000004</ele>
        <time>2025-05-12T11:44:45Z</time>
      </trkpt>
      <trkpt lat="36.993913035839796" lon="-2.829520041123033">
        <ele>925.40999999999997</ele>
        <time>2025-05-12T11:44:46Z</time>
      </trkpt>
      <trkpt lat="36.994060976430774" lon="-2.829401018097997">
        <ele>926.85000000000002</ele>
        <time>2025-05-12T11:44:47Z</time>
      </trkpt>
      <trkpt lat="36.994240013882518" lon="-2.82932398840785">
        <ele>928.28999999999996</ele>
        <time>2025-05-12T11:44:48Z</time>
      </trkpt>
      <trkpt lat="36.994423996657133" lon="-2.829245030879974">
        <ele>929.73000000000002</ele>
        <time>2025-05-12T11:44:49Z</time>
      </trkpt>
      <trkpt lat="36.994787016883492" lon="-2.82904302701354">
        <ele>933.10000000000002</ele>
        <time>2025-05-12T11:44:51Z</time>
      </trkpt>
      <trkpt lat="36.994963036850095" lon="-2.828926015645266">
        <ele>934.53999999999996</ele>
        <time>2025-05-12T11:44:52Z</time>
      </trkpt>
      <trkpt lat="36.995122963562608" lon="-2.828781008720398">
        <ele>936.46000000000004</ele>
        <time>2025-05-12T11:44:53Z</time>
      </trkpt>
      <trkpt lat="36.995271993800998" lon="-2.828607000410557">
        <ele>937.41999999999996</ele>
        <time>2025-05-12T11:44:54Z</time>
      </trkpt>
      <trkpt lat="36.995381964370608" lon="-2.82839703373611">
        <ele>938.86000000000001</ele>
        <time>2025-05-12T11:44:55Z</time>
      </trkpt>
      <trkpt lat="36.995482966303825" lon="-2.828178014606237">
        <ele>940.30999999999995</ele>
        <time>2025-05-12T11:44:56Z</time>
      </trkpt>
      <trkpt lat="36.995585979893804" lon="-2.827954972162843">
        <ele>941.26999999999998</ele>
        <time>2025-05-12T11:44:57Z</time>
      </trkpt>
      <trkpt lat="36.995821008458734" lon="-2.827547024935484">
        <ele>944.14999999999998</ele>
        <time>2025-05-12T11:44:59Z</time>
      </trkpt>
      <trkpt lat="36.995944976806641" lon="-2.827369999140501">
        <ele>945.11000000000001</ele>
        <time>2025-05-12T11:45:00Z</time>
      </trkpt>
      <trkpt lat="36.996125020086765" lon="-2.827275032177568">
        <ele>946.07000000000005</ele>
        <time>2025-05-12T11:45:01Z</time>
      </trkpt>
      <trkpt lat="36.996310008689761" lon="-2.827176963910461">
        <ele>947.51999999999998</ele>
        <time>2025-05-12T11:45:02Z</time>
      </trkpt>
      <trkpt lat="36.996488040313125" lon="-2.827169001102448">
        <ele>948.48000000000002</ele>
        <time>2025-05-12T11:45:03Z</time>
      </trkpt>
      <trkpt lat="36.996683003380895" lon="-2.827160032466054">
        <ele>949.91999999999996</ele>
        <time>2025-05-12T11:45:04Z</time>
      </trkpt>
      <trkpt lat="36.996879978105426" lon="-2.827156009152532">
        <ele>951.36000000000001</ele>
        <time>2025-05-12T11:45:05Z</time>
      </trkpt>
      <trkpt lat="36.9974460080266" lon="-2.827114015817642">
        <ele>955.21000000000004</ele>
        <time>2025-05-12T11:45:08Z</time>
      </trkpt>
      <trkpt lat="36.997601995244622" lon="-2.827074034139514">
        <ele>956.16999999999996</ele>
        <time>2025-05-12T11:45:09Z</time>
      </trkpt>
      <trkpt lat="36.997741973027587" lon="-2.826975965872407">
        <ele>958.09000000000003</ele>
        <time>2025-05-12T11:45:10Z</time>
      </trkpt>
      <trkpt lat="36.997864013537765" lon="-2.826875969767571">
        <ele>959.52999999999997</ele>
        <time>2025-05-12T11:45:11Z</time>
      </trkpt>
      <trkpt lat="36.997934002429247" lon="-2.82670003362">
        <ele>960.98000000000002</ele>
        <time>2025-05-12T11:45:12Z</time>
      </trkpt>
      <trkpt lat="36.998008014634252" lon="-2.826516972854734">
        <ele>961.94000000000005</ele>
        <time>2025-05-12T11:45:13Z</time>
      </trkpt>
      <trkpt lat="36.998041961342096" lon="-2.826324021443725">
        <ele>963.86000000000001</ele>
        <time>2025-05-12T11:45:14Z</time>
      </trkpt>
      <trkpt lat="36.998062999919057" lon="-2.826116988435388">
        <ele>966.25999999999999</ele>
        <time>2025-05-12T11:45:15Z</time>
      </trkpt>
      <trkpt lat="36.998084960505366" lon="-2.82590601593256">
        <ele>968.66999999999996</ele>
        <time>2025-05-12T11:45:16Z</time>
      </trkpt>
      <trkpt lat="36.998152015730739" lon="-2.825707029551268">
        <ele>971.07000000000005</ele>
        <time>2025-05-12T11:45:17Z</time>
      </trkpt>
      <trkpt lat="36.998234996572137" lon="-2.825518017634749">
        <ele>972.50999999999999</ele>
        <time>2025-05-12T11:45:18Z</time>
      </trkpt>
      <trkpt lat="36.998362988233566" lon="-2.82539002597332">
        <ele>973.47000000000003</ele>
        <time>2025-05-12T11:45:19Z</time>
      </trkpt>
      <trkpt lat="36.99849902652204" lon="-2.82526396214962">
        <ele>974.90999999999997</ele>
        <time>2025-05-12T11:45:20Z</time>
      </trkpt>
      <trkpt lat="36.998658031225204" lon="-2.825191039592028">
        <ele>975.88</ele>
        <time>2025-05-12T11:45:21Z</time>
      </trkpt>
      <trkpt lat="36.998832039535046" lon="-2.825139993801713">
        <ele>976.84000000000003</ele>
        <time>2025-05-12T11:45:22Z</time>
      </trkpt>
      <trkpt lat="36.999010993167758" lon="-2.825088026002049">
        <ele>978.27999999999997</ele>
        <time>2025-05-12T11:45:23Z</time>
      </trkpt>
      <trkpt lat="36.999172009527683" lon="-2.824996998533607">
        <ele>979.24000000000001</ele>
        <time>2025-05-12T11:45:24Z</time>
      </trkpt>
      <trkpt lat="36.999321961775422" lon="-2.824898008257151">
        <ele>980.67999999999995</ele>
        <time>2025-05-12T11:45:25Z</time>
      </trkpt>
      <trkpt lat="36.999428998678923" lon="-2.824739003553987">
        <ele>982.12</ele>
        <time>2025-05-12T11:45:26Z</time>
      </trkpt>
      <trkpt lat="36.99950804002583" lon="-2.82455300912261">
        <ele>984.04999999999995</ele>
        <time>2025-05-12T11:45:27Z</time>
      </trkpt>
      <trkpt lat="36.999557996168733" lon="-2.824343964457512">
        <ele>985.49000000000001</ele>
        <time>2025-05-12T11:45:28Z</time>
      </trkpt>
      <trkpt lat="36.999570988118649" lon="-2.824113965034485">
        <ele>987.40999999999997</ele>
        <time>2025-05-12T11:45:29Z</time>
      </trkpt>
      <trkpt lat="36.999563025310636" lon="-2.823871979489923">
        <ele>988.85000000000002</ele>
        <time>2025-05-12T11:45:30Z</time>
      </trkpt>
      <trkpt lat="36.999436039477587" lon="-2.821784969419241">
        <ele>1003.27</ele>
        <time>2025-05-12T11:45:38Z</time>
      </trkpt>
      <trkpt lat="36.999459005892277" lon="-2.821142999455333">
        <ele>1007.6</ele>
        <time>2025-05-12T11:45:41Z</time>
      </trkpt>
      <trkpt lat="36.99950996786356" lon="-2.820951975882053">
        <ele>1008.08</ele>
        <time>2025-05-12T11:45:42Z</time>
      </trkpt>
      <trkpt lat="36.999603006988764" lon="-2.82079397700727">
        <ele>1008.5599999999999</ele>
        <time>2025-05-12T11:45:43Z</time>
      </trkpt>
      <trkpt lat="36.999718006700277" lon="-2.820644024759531">
        <ele>1009.04</ele>
        <time>2025-05-12T11:45:44Z</time>
      </trkpt>
      <trkpt lat="36.999856978654861" lon="-2.820563977584243">
        <ele>1009.04</ele>
        <time>2025-05-12T11:45:45Z</time>
      </trkpt>
      <trkpt lat="37.00000399723649" lon="-2.820503963157535">
        <ele>1009.04</ele>
        <time>2025-05-12T11:45:46Z</time>
      </trkpt>
      <trkpt lat="37.000164007768035" lon="-2.820517038926482">
        <ele>1009.04</ele>
        <time>2025-05-12T11:45:47Z</time>
      </trkpt>
      <trkpt lat="37.000313038006425" lon="-2.820565989241004">
        <ele>1008.5599999999999</ele>
        <time>2025-05-12T11:45:48Z</time>
      </trkpt>
      <trkpt lat="37.000447986647487" lon="-2.820683000609279">
        <ele>1008.08</ele>
        <time>2025-05-12T11:45:49Z</time>
      </trkpt>
      <trkpt lat="37.000580001622438" lon="-2.820818033069372">
        <ele>1008.08</ele>
        <time>2025-05-12T11:45:50Z</time>
      </trkpt>
      <trkpt lat="37.000689972192049" lon="-2.82100603915751">
        <ele>1008.08</ele>
        <time>2025-05-12T11:45:51Z</time>
      </trkpt>
      <trkpt lat="37.000812012702227" lon="-2.821194967254996">
        <ele>1007.6</ele>
        <time>2025-05-12T11:45:52Z</time>
      </trkpt>
      <trkpt lat="37.00094603933394" lon="-2.821364030241966">
        <ele>1007.12</ele>
        <time>2025-05-12T11:45:53Z</time>
      </trkpt>
      <trkpt lat="37.001089034602046" lon="-2.821504008024931">
        <ele>1006.64</ele>
        <time>2025-05-12T11:45:54Z</time>
      </trkpt>
      <trkpt lat="37.001253990456462" lon="-2.821598974987865">
        <ele>1006.16</ele>
        <time>2025-05-12T11:45:55Z</time>
      </trkpt>
      <trkpt lat="37.001432022079825" lon="-2.821616996079683">
        <ele>1005.2</ele>
        <time>2025-05-12T11:45:56Z</time>
      </trkpt>
      <trkpt lat="37.001601001247764" lon="-2.82158799469471">
        <ele>1004.23</ele>
        <time>2025-05-12T11:45:57Z</time>
      </trkpt>
      <trkpt lat="37.001753970980644" lon="-2.821511970832944">
        <ele>1002.79</ele>
        <time>2025-05-12T11:45:58Z</time>
      </trkpt>
      <trkpt lat="37.001906018704176" lon="-2.821403006091714">
        <ele>1001.35</ele>
        <time>2025-05-12T11:45:59Z</time>
      </trkpt>
      <trkpt lat="37.002019006758928" lon="-2.821225980296731">
        <ele>999.90999999999997</ele>
        <time>2025-05-12T11:46:00Z</time>
      </trkpt>
      <trkpt lat="37.002111040055752" lon="-2.821024982258678">
        <ele>998.95000000000005</ele>
        <time>2025-05-12T11:46:01Z</time>
      </trkpt>
      <trkpt lat="37.002207012847066" lon="-2.820818033069372">
        <ele>997.50999999999999</ele>
        <time>2025-05-12T11:46:02Z</time>
      </trkpt>
      <trkpt lat="37.002416979521513" lon="-2.820385023951531">
        <ele>995.10000000000002</ele>
        <time>2025-05-12T11:46:04Z</time>
      </trkpt>
      <trkpt lat="37.002557041123509" lon="-2.820181008428335">
        <ele>993.17999999999995</ele>
        <time>2025-05-12T11:46:05Z</time>
      </trkpt>
      <trkpt lat="37.002712022513151" lon="-2.819983027875423">
        <ele>991.74000000000001</ele>
        <time>2025-05-12T11:46:06Z</time>
      </trkpt>
      <trkpt lat="37.002870021387935" lon="-2.819780018180609">
        <ele>989.80999999999995</ele>
        <time>2025-05-12T11:46:07Z</time>
      </trkpt>
      <trkpt lat="37.00303397141397" lon="-2.819576002657414">
        <ele>987.88999999999999</ele>
        <time>2025-05-12T11:46:08Z</time>
      </trkpt>
      <trkpt lat="37.003884986042976" lon="-2.818198017776012">
        <ele>982.60000000000002</ele>
        <time>2025-05-12T11:46:14Z</time>
      </trkpt>
      <trkpt lat="37.004667017608881" lon="-2.815729966387153">
        <ele>973.95000000000005</ele>
        <time>2025-05-12T11:46:23Z</time>
      </trkpt>
      <trkpt lat="37.00472803786397" lon="-2.815445987507701">
        <ele>972.02999999999997</ele>
        <time>2025-05-12T11:46:24Z</time>
      </trkpt>
      <trkpt lat="37.00473197735846" lon="-2.815144993364811">
        <ele>970.59000000000003</ele>
        <time>2025-05-12T11:46:25Z</time>
      </trkpt>
      <trkpt lat="37.004717979580164" lon="-2.81484198756516">
        <ele>968.66999999999996</ele>
        <time>2025-05-12T11:46:26Z</time>
      </trkpt>
      <trkpt lat="37.004702975973487" lon="-2.814535964280367">
        <ele>967.22000000000003</ele>
        <time>2025-05-12T11:46:27Z</time>
      </trkpt>
      <trkpt lat="37.004641033709049" lon="-2.812717007473111">
        <ele>955.21000000000004</ele>
        <time>2025-05-12T11:46:33Z</time>
      </trkpt>
      <trkpt lat="37.004667017608881" lon="-2.812416013330221">
        <ele>953.27999999999997</ele>
        <time>2025-05-12T11:46:34Z</time>
      </trkpt>
      <trkpt lat="37.004720997065306" lon="-2.812124993652105">
        <ele>950.88</ele>
        <time>2025-05-12T11:46:35Z</time>
      </trkpt>
      <trkpt lat="37.004891987890005" lon="-2.811555024236441">
        <ele>947.51999999999998</ele>
        <time>2025-05-12T11:46:37Z</time>
      </trkpt>
      <trkpt lat="37.005016040056944" lon="-2.811299040913582">
        <ele>945.59000000000003</ele>
        <time>2025-05-12T11:46:38Z</time>
      </trkpt>
      <trkpt lat="37.005143025889993" lon="-2.811044985428453">
        <ele>944.14999999999998</ele>
        <time>2025-05-12T11:46:39Z</time>
      </trkpt>
      <trkpt lat="37.00531099922955" lon="-2.810838958248496">
        <ele>942.23000000000002</ele>
        <time>2025-05-12T11:46:40Z</time>
      </trkpt>
      <trkpt lat="37.005479978397489" lon="-2.810642989352346">
        <ele>941.26999999999998</ele>
        <time>2025-05-12T11:46:41Z</time>
      </trkpt>
      <trkpt lat="37.005658010020852" lon="-2.810454983264208">
        <ele>940.30999999999995</ele>
        <time>2025-05-12T11:46:42Z</time>
      </trkpt>
      <trkpt lat="37.005834029987454" lon="-2.810268988832831">
        <ele>939.83000000000004</ele>
        <time>2025-05-12T11:46:43Z</time>
      </trkpt>
      <trkpt lat="37.00677003711462" lon="-2.80912896618247">
        <ele>938.86000000000001</ele>
        <time>2025-05-12T11:46:49Z</time>
      </trkpt>
      <trkpt lat="37.006876990199089" lon="-2.808908019214869">
        <ele>939.35000000000002</ele>
        <time>2025-05-12T11:46:50Z</time>
      </trkpt>
      <trkpt lat="37.006957037374377" lon="-2.808658992871642">
        <ele>939.83000000000004</ele>
        <time>2025-05-12T11:46:51Z</time>
      </trkpt>
      <trkpt lat="37.007038006559014" lon="-2.808409966528416">
        <ele>940.30999999999995</ele>
        <time>2025-05-12T11:46:52Z</time>
      </trkpt>
      <trkpt lat="37.007099026814103" lon="-2.808158006519079">
        <ele>940.30999999999995</ele>
        <time>2025-05-12T11:46:53Z</time>
      </trkpt>
      <trkpt lat="37.007139008492231" lon="-2.807890037074685">
        <ele>940.78999999999996</ele>
        <time>2025-05-12T11:46:54Z</time>
      </trkpt>
      <trkpt lat="37.007168009877205" lon="-2.807620977982879">
        <ele>941.26999999999998</ele>
        <time>2025-05-12T11:46:55Z</time>
      </trkpt>
      <trkpt lat="37.007168009877205" lon="-2.807346973568201">
        <ele>941.75</ele>
        <time>2025-05-12T11:46:56Z</time>
      </trkpt>
      <trkpt lat="37.007168009877205" lon="-2.807071041315794">
        <ele>942.23000000000002</ele>
        <time>2025-05-12T11:46:57Z</time>
      </trkpt>
      <trkpt lat="37.007300024852157" lon="-2.805440006777644">
        <ele>945.59000000000003</ele>
        <time>2025-05-12T11:47:03Z</time>
      </trkpt>
      <trkpt lat="37.007363978773355" lon="-2.805187962949276">
        <ele>946.55999999999995</ele>
        <time>2025-05-12T11:47:04Z</time>
      </trkpt>
      <trkpt lat="37.007459029555321" lon="-2.804955029860139">
        <ele>947.51999999999998</ele>
        <time>2025-05-12T11:47:05Z</time>
      </trkpt>
      <trkpt lat="37.007555002346635" lon="-2.804720001295209">
        <ele>948.48000000000002</ele>
        <time>2025-05-12T11:47:06Z</time>
      </trkpt>
      <trkpt lat="37.007685005664825" lon="-2.804496958851814">
        <ele>948.96000000000004</ele>
        <time>2025-05-12T11:47:07Z</time>
      </trkpt>
      <trkpt lat="37.007820960134268" lon="-2.804285986348987">
        <ele>949.44000000000005</ele>
        <time>2025-05-12T11:47:08Z</time>
      </trkpt>
      <trkpt lat="37.008611038327217" lon="-2.802652018144727">
        <ele>944.63</ele>
        <time>2025-05-12T11:47:15Z</time>
      </trkpt>
      <trkpt lat="37.008702987805009" lon="-2.801821958273649">
        <ele>940.30999999999995</ele>
        <time>2025-05-12T11:47:18Z</time>
      </trkpt>
      <trkpt lat="37.008712962269783" lon="-2.801534961909056">
        <ele>938.86000000000001</ele>
        <time>2025-05-12T11:47:19Z</time>
      </trkpt>
      <trkpt lat="37.008697036653757" lon="-2.801248971372843">
        <ele>937.41999999999996</ele>
        <time>2025-05-12T11:47:20Z</time>
      </trkpt>
      <trkpt lat="37.008654959499836" lon="-2.800959041342139">
        <ele>935.98000000000002</ele>
        <time>2025-05-12T11:47:21Z</time>
      </trkpt>
      <trkpt lat="37.008599974215031" lon="-2.800672966986895">
        <ele>934.53999999999996</ele>
        <time>2025-05-12T11:47:22Z</time>
      </trkpt>
      <trkpt lat="37.008513975888491" lon="-2.800388988107443">
        <ele>933.10000000000002</ele>
        <time>2025-05-12T11:47:23Z</time>
      </trkpt>
      <trkpt lat="37.007754994556308" lon="-2.798639014363289">
        <ele>919.15999999999997</ele>
        <time>2025-05-12T11:47:30Z</time>
      </trkpt>
      <trkpt lat="37.007381999865174" lon="-2.797714993357658">
        <ele>912.90999999999997</ele>
        <time>2025-05-12T11:47:34Z</time>
      </trkpt>
      <trkpt lat="37.007335983216763" lon="-2.797466972842813">
        <ele>910.99000000000001</ele>
        <time>2025-05-12T11:47:35Z</time>
      </trkpt>
      <trkpt lat="37.007317962124944" lon="-2.797230016440153">
        <ele>909.53999999999996</ele>
        <time>2025-05-12T11:47:36Z</time>
      </trkpt>
      <trkpt lat="37.00732902623713" lon="-2.796991970390081">
        <ele>907.62</ele>
        <time>2025-05-12T11:47:37Z</time>
      </trkpt>
      <trkpt lat="37.007369007915258" lon="-2.796759037300944">
        <ele>906.17999999999995</ele>
        <time>2025-05-12T11:47:38Z</time>
      </trkpt>
      <trkpt lat="37.007417036220431" lon="-2.796529959887266">
        <ele>904.25999999999999</ele>
        <time>2025-05-12T11:47:39Z</time>
      </trkpt>
      <trkpt lat="37.007463974878192" lon="-2.796311024576426">
        <ele>902.82000000000005</ele>
        <time>2025-05-12T11:47:40Z</time>
      </trkpt>
      <trkpt lat="37.007505968213081" lon="-2.796108014881611">
        <ele>901.37</ele>
        <time>2025-05-12T11:47:41Z</time>
      </trkpt>
      <trkpt lat="37.007546033710241" lon="-2.795921014621854">
        <ele>900.40999999999997</ele>
        <time>2025-05-12T11:47:42Z</time>
      </trkpt>
      <trkpt lat="37.00767201371491" lon="-2.795377029106021">
        <ele>897.04999999999995</ele>
        <time>2025-05-12T11:47:46Z</time>
      </trkpt>
      <trkpt lat="37.007809979841113" lon="-2.795287007465959">
        <ele>896.57000000000005</ele>
        <time>2025-05-12T11:47:47Z</time>
      </trkpt>
      <trkpt lat="37.007896983996034" lon="-2.79526999220252">
        <ele>896.09000000000003</ele>
        <time>2025-05-12T11:47:48Z</time>
      </trkpt>
      <trkpt lat="37.008007038384676" lon="-2.79526999220252">
        <ele>896.09000000000003</ele>
        <time>2025-05-12T11:47:49Z</time>
      </trkpt>
      <trkpt lat="37.008087001740932" lon="-2.795201009139419">
        <ele>896.09000000000003</ele>
        <time>2025-05-12T11:47:50Z</time>
      </trkpt>
      <trkpt lat="37.008135030046105" lon="-2.795094978064299">
        <ele>895.61000000000001</ele>
        <time>2025-05-12T11:47:51Z</time>
      </trkpt>
      <trkpt lat="37.008143998682499" lon="-2.794943014159799">
        <ele>895.61000000000001</ele>
        <time>2025-05-12T11:47:52Z</time>
      </trkpt>
      <trkpt lat="37.008154978975654" lon="-2.794755008071661">
        <ele>895.61000000000001</ele>
        <time>2025-05-12T11:47:53Z</time>
      </trkpt>
      <trkpt lat="37.008140981197357" lon="-2.794594997540116">
        <ele>896.09000000000003</ele>
        <time>2025-05-12T11:47:54Z</time>
      </trkpt>
      <trkpt lat="37.008148021996021" lon="-2.794415960088372">
        <ele>896.57000000000005</ele>
        <time>2025-05-12T11:47:55Z</time>
      </trkpt>
      <trkpt lat="37.008178029209375" lon="-2.794246980920434">
        <ele>897.52999999999997</ele>
        <time>2025-05-12T11:47:56Z</time>
      </trkpt>
      <trkpt lat="37.0082320086658" lon="-2.794066015630961">
        <ele>898.49000000000001</ele>
        <time>2025-05-12T11:47:57Z</time>
      </trkpt>
      <trkpt lat="37.008313983678818" lon="-2.793907010927796">
        <ele>898.97000000000003</ele>
        <time>2025-05-12T11:47:58Z</time>
      </trkpt>
      <trkpt lat="37.008396964520216" lon="-2.79374398291111">
        <ele>899.92999999999995</ele>
        <time>2025-05-12T11:47:59Z</time>
      </trkpt>
      <trkpt lat="37.009152006357908" lon="-2.792537994682789">
        <ele>903.29999999999995</ele>
        <time>2025-05-12T11:48:07Z</time>
      </trkpt>
      <trkpt lat="37.009286032989621" lon="-2.792463982477784">
        <ele>903.29999999999995</ele>
        <time>2025-05-12T11:48:08Z</time>
      </trkpt>
      <trkpt lat="37.009429028257728" lon="-2.792396005243063">
        <ele>903.77999999999997</ele>
        <time>2025-05-12T11:48:09Z</time>
      </trkpt>
      <trkpt lat="37.010222962126136" lon="-2.79200398363173">
        <ele>905.70000000000005</ele>
        <time>2025-05-12T11:48:14Z</time>
      </trkpt>
      <trkpt lat="37.010375009849668" lon="-2.791927959769964">
        <ele>906.17999999999995</ele>
        <time>2025-05-12T11:48:15Z</time>
      </trkpt>
      <trkpt lat="37.01050903648138" lon="-2.79180902056396">
        <ele>906.65999999999997</ele>
        <time>2025-05-12T11:48:16Z</time>
      </trkpt>
      <trkpt lat="37.011386035010219" lon="-2.790992958471179">
        <ele>913.38999999999999</ele>
        <time>2025-05-12T11:48:24Z</time>
      </trkpt>
      <trkpt lat="37.011456023901701" lon="-2.790941996499896">
        <ele>914.35000000000002</ele>
        <time>2025-05-12T11:48:25Z</time>
      </trkpt>
      <trkpt lat="37.011708989739418" lon="-2.790661035105586">
        <ele>916.26999999999998</ele>
        <time>2025-05-12T11:48:29Z</time>
      </trkpt>
      <trkpt lat="37.011760035529733" lon="-2.790565984323621">
        <ele>916.75</ele>
        <time>2025-05-12T11:48:30Z</time>
      </trkpt>
      <trkpt lat="37.011787025257945" lon="-2.790454002097249">
        <ele>917.24000000000001</ele>
        <time>2025-05-12T11:48:31Z</time>
      </trkpt>
      <trkpt lat="37.0117980055511" lon="-2.790328022092581">
        <ele>917.72000000000003</ele>
        <time>2025-05-12T11:48:32Z</time>
      </trkpt>
      <trkpt lat="37.011787025257945" lon="-2.790202964097261">
        <ele>918.20000000000005</ele>
        <time>2025-05-12T11:48:33Z</time>
      </trkpt>
      <trkpt lat="37.01175601221621" lon="-2.79006902128458">
        <ele>918.67999999999995</ele>
        <time>2025-05-12T11:48:34Z</time>
      </trkpt>
      <trkpt lat="37.011701026931405" lon="-2.789932982996106">
        <ele>919.15999999999997</ele>
        <time>2025-05-12T11:48:35Z</time>
      </trkpt>
      <trkpt lat="37.01162600889802" lon="-2.789815971627832">
        <ele>919.15999999999997</ele>
        <time>2025-05-12T11:48:36Z</time>
      </trkpt>
      <trkpt lat="37.011409001424909" lon="-2.789476001635194">
        <ele>920.12</ele>
        <time>2025-05-12T11:48:39Z</time>
      </trkpt>
      <trkpt lat="37.011317973956466" lon="-2.78938296250999">
        <ele>920.12</ele>
        <time>2025-05-12T11:48:40Z</time>
      </trkpt>
      <trkpt lat="37.011229963973165" lon="-2.789300987496972">
        <ele>920.60000000000002</ele>
        <time>2025-05-12T11:48:41Z</time>
      </trkpt>
      <trkpt lat="37.011142959818244" lon="-2.789220018312335">
        <ele>921.08000000000004</ele>
        <time>2025-05-12T11:48:42Z</time>
      </trkpt>
      <trkpt lat="37.011080011725426" lon="-2.78912597335875">
        <ele>921.55999999999995</ele>
        <time>2025-05-12T11:48:43Z</time>
      </trkpt>
      <trkpt lat="37.011041035875678" lon="-2.788997981697321">
        <ele>922.51999999999998</ele>
        <time>2025-05-12T11:48:44Z</time>
      </trkpt>
      <trkpt lat="37.011002982035279" lon="-2.788868984207511">
        <ele>923.48000000000002</ele>
        <time>2025-05-12T11:48:45Z</time>
      </trkpt>
      <trkpt lat="37.010966017842293" lon="-2.788747027516365">
        <ele>924.45000000000005</ele>
        <time>2025-05-12T11:48:46Z</time>
      </trkpt>
      <trkpt lat="37.010973980650306" lon="-2.78862901031971">
        <ele>925.40999999999997</ele>
        <time>2025-05-12T11:48:47Z</time>
      </trkpt>
      <trkpt lat="37.010983033105731" lon="-2.788508981466293">
        <ele>926.37</ele>
        <time>2025-05-12T11:48:48Z</time>
      </trkpt>
      <trkpt lat="37.011008011177182" lon="-2.788412002846599">
        <ele>926.85000000000002</ele>
        <time>2025-05-12T11:48:49Z</time>
      </trkpt>
      <trkpt lat="37.011069031432271" lon="-2.788315024226904">
        <ele>927.80999999999995</ele>
        <time>2025-05-12T11:48:50Z</time>
      </trkpt>
      <trkpt lat="37.011143965646625" lon="-2.788237994536758">
        <ele>928.76999999999998</ele>
        <time>2025-05-12T11:48:51Z</time>
      </trkpt>
      <trkpt lat="37.011235998943448" lon="-2.788165993988514">
        <ele>929.25</ele>
        <time>2025-05-12T11:48:52Z</time>
      </trkpt>
      <trkpt lat="37.011329960078001" lon="-2.788089970126748">
        <ele>930.21000000000004</ele>
        <time>2025-05-12T11:48:53Z</time>
      </trkpt>
      <trkpt lat="37.012441987171769" lon="-2.787280026823282">
        <ele>939.35000000000002</ele>
        <time>2025-05-12T11:49:03Z</time>
      </trkpt>
      <trkpt lat="37.012521028518677" lon="-2.787176007404923">
        <ele>939.83000000000004</ele>
        <time>2025-05-12T11:49:04Z</time>
      </trkpt>
      <trkpt lat="37.012570984661579" lon="-2.787050027400255">
        <ele>940.78999999999996</ele>
        <time>2025-05-12T11:49:05Z</time>
      </trkpt>
      <trkpt lat="37.012610966339707" lon="-2.786907032132149">
        <ele>941.75</ele>
        <time>2025-05-12T11:49:06Z</time>
      </trkpt>
      <trkpt lat="37.012639967724681" lon="-2.786747021600604">
        <ele>942.71000000000004</ele>
        <time>2025-05-12T11:49:07Z</time>
      </trkpt>
      <trkpt lat="37.012670980766416" lon="-2.786577958613634">
        <ele>943.66999999999996</ele>
        <time>2025-05-12T11:49:08Z</time>
      </trkpt>
      <trkpt lat="37.01270199380815" lon="-2.786408979445696">
        <ele>944.63</ele>
        <time>2025-05-12T11:49:09Z</time>
      </trkpt>
      <trkpt lat="37.012740969657898" lon="-2.786243017762899">
        <ele>945.59000000000003</ele>
        <time>2025-05-12T11:49:10Z</time>
      </trkpt>
      <trkpt lat="37.01281095854938" lon="-2.786089964210987">
        <ele>947.03999999999996</ele>
        <time>2025-05-12T11:49:11Z</time>
      </trkpt>
      <trkpt lat="37.012912966310978" lon="-2.785949986428022">
        <ele>948.48000000000002</ele>
        <time>2025-05-12T11:49:12Z</time>
      </trkpt>
      <trkpt lat="37.01302201487124" lon="-2.785823000594974">
        <ele>949.44000000000005</ele>
        <time>2025-05-12T11:49:13Z</time>
      </trkpt>
      <trkpt lat="37.01332401484251" lon="-2.785427961498499">
        <ele>953.76999999999998</ele>
        <time>2025-05-12T11:49:16Z</time>
      </trkpt>
      <trkpt lat="37.013394003733993" lon="-2.78527700342238">
        <ele>955.21000000000004</ele>
        <time>2025-05-12T11:49:17Z</time>
      </trkpt>
      <trkpt lat="37.01341001316905" lon="-2.785104000940919">
        <ele>956.64999999999998</ele>
        <time>2025-05-12T11:49:18Z</time>
      </trkpt>
      <trkpt lat="37.013392997905612" lon="-2.784935021772981">
        <ele>957.61000000000001</ele>
        <time>2025-05-12T11:49:19Z</time>
      </trkpt>
      <trkpt lat="37.013318985700607" lon="-2.784766964614391">
        <ele>959.04999999999995</ele>
        <time>2025-05-12T11:49:20Z</time>
      </trkpt>
      <trkpt lat="37.013234999030828" lon="-2.784605026245117">
        <ele>960.98000000000002</ele>
        <time>2025-05-12T11:49:21Z</time>
      </trkpt>
      <trkpt lat="37.01278698630631" lon="-2.783820983022451">
        <ele>968.17999999999995</ele>
        <time>2025-05-12T11:49:26Z</time>
      </trkpt>
      <trkpt lat="37.012756979092956" lon="-2.783681005239487">
        <ele>969.14999999999998</ele>
        <time>2025-05-12T11:49:27Z</time>
      </trkpt>
      <trkpt lat="37.012747004628181" lon="-2.783574974164367">
        <ele>970.11000000000001</ele>
        <time>2025-05-12T11:49:28Z</time>
      </trkpt>
      <trkpt lat="37.012798972427845" lon="-2.783399960026145">
        <ele>971.54999999999995</ele>
        <time>2025-05-12T11:49:29Z</time>
      </trkpt>
      <trkpt lat="37.012871978804469" lon="-2.783289989456534">
        <ele>972.50999999999999</ele>
        <time>2025-05-12T11:49:30Z</time>
      </trkpt>
      <trkpt lat="37.012977004051208" lon="-2.783189993351698">
        <ele>972.99000000000001</ele>
        <time>2025-05-12T11:49:31Z</time>
      </trkpt>
      <trkpt lat="37.013113964349031" lon="-2.783115981146693">
        <ele>973.95000000000005</ele>
        <time>2025-05-12T11:49:32Z</time>
      </trkpt>
      <trkpt lat="37.013251008465886" lon="-2.783082034438849">
        <ele>974.90999999999997</ele>
        <time>2025-05-12T11:49:33Z</time>
      </trkpt>
      <trkpt lat="37.013394003733993" lon="-2.783097960054874">
        <ele>975.38999999999999</ele>
        <time>2025-05-12T11:49:34Z</time>
      </trkpt>
      <trkpt lat="37.013544961810112" lon="-2.78315001167357">
        <ele>975.88</ele>
        <time>2025-05-12T11:49:35Z</time>
      </trkpt>
      <trkpt lat="37.013702038675547" lon="-2.783204996958375">
        <ele>976.36000000000001</ele>
        <time>2025-05-12T11:49:36Z</time>
      </trkpt>
      <trkpt lat="37.013849979266524" lon="-2.783252019435167">
        <ele>976.84000000000003</ele>
        <time>2025-05-12T11:49:37Z</time>
      </trkpt>
      <trkpt lat="37.013984005898237" lon="-2.78323601000011">
        <ele>976.84000000000003</ele>
        <time>2025-05-12T11:49:38Z</time>
      </trkpt>
      <trkpt lat="37.014103028923273" lon="-2.783156968653202">
        <ele>976.84000000000003</ele>
        <time>2025-05-12T11:49:39Z</time>
      </trkpt>
      <trkpt lat="37.014177041128278" lon="-2.783040041103959">
        <ele>977.32000000000005</ele>
        <time>2025-05-12T11:49:40Z</time>
      </trkpt>
      <trkpt lat="37.014233032241464" lon="-2.782905008643866">
        <ele>977.79999999999995</ele>
        <time>2025-05-12T11:49:41Z</time>
      </trkpt>
      <trkpt lat="37.014234960079193" lon="-2.782749021425843">
        <ele>978.27999999999997</ele>
        <time>2025-05-12T11:49:42Z</time>
      </trkpt>
      <trkpt lat="37.014216016978025" lon="-2.782581970095635">
        <ele>979.24000000000001</ele>
        <time>2025-05-12T11:49:43Z</time>
      </trkpt>
      <trkpt lat="37.014195984229445" lon="-2.782402010634542">
        <ele>980.20000000000005</ele>
        <time>2025-05-12T11:49:44Z</time>
      </trkpt>
      <trkpt lat="37.014154996722937" lon="-2.782044019550085">
        <ele>981.63999999999999</ele>
        <time>2025-05-12T11:49:46Z</time>
      </trkpt>
      <trkpt lat="37.014119038358331" lon="-2.78188300319016">
        <ele>982.60000000000002</ele>
        <time>2025-05-12T11:49:47Z</time>
      </trkpt>
      <trkpt lat="37.014037985354662" lon="-2.781737996265292">
        <ele>983.57000000000005</ele>
        <time>2025-05-12T11:49:48Z</time>
      </trkpt>
      <trkpt lat="37.013938995078206" lon="-2.781570022925735">
        <ele>984.52999999999997</ele>
        <time>2025-05-12T11:49:49Z</time>
      </trkpt>
      <trkpt lat="37.013803040608764" lon="-2.781434990465641">
        <ele>985.00999999999999</ele>
        <time>2025-05-12T11:49:50Z</time>
      </trkpt>
      <trkpt lat="37.013659039512277" lon="-2.781291995197535">
        <ele>985.97000000000003</ele>
        <time>2025-05-12T11:49:51Z</time>
      </trkpt>
      <trkpt lat="37.01351503841579" lon="-2.781166015192866">
        <ele>986.45000000000005</ele>
        <time>2025-05-12T11:49:52Z</time>
      </trkpt>
      <trkpt lat="37.013175990432501" lon="-2.780870972201228">
        <ele>988.37</ele>
        <time>2025-05-12T11:49:55Z</time>
      </trkpt>
      <trkpt lat="37.013095021247864" lon="-2.780729988589883">
        <ele>988.85000000000002</ele>
        <time>2025-05-12T11:49:56Z</time>
      </trkpt>
      <trkpt lat="37.013003993779421" lon="-2.780570983886719">
        <ele>989.33000000000004</ele>
        <time>2025-05-12T11:49:57Z</time>
      </trkpt>
      <trkpt lat="37.012981027364731" lon="-2.780409967526794">
        <ele>989.80999999999995</ele>
        <time>2025-05-12T11:49:58Z</time>
      </trkpt>
      <trkpt lat="37.012954037636518" lon="-2.780221961438656">
        <ele>990.77999999999997</ele>
        <time>2025-05-12T11:49:59Z</time>
      </trkpt>
      <trkpt lat="37.012927969917655" lon="-2.780034961178899">
        <ele>991.74000000000001</ele>
        <time>2025-05-12T11:50:00Z</time>
      </trkpt>
      <trkpt lat="37.012901986017823" lon="-2.779857013374567">
        <ele>992.22000000000003</ele>
        <time>2025-05-12T11:50:01Z</time>
      </trkpt>
      <trkpt lat="37.012939034029841" lon="-2.779675964266062">
        <ele>993.17999999999995</ele>
        <time>2025-05-12T11:50:02Z</time>
      </trkpt>
      <trkpt lat="37.012995025143027" lon="-2.779484018683434">
        <ele>993.65999999999997</ele>
        <time>2025-05-12T11:50:03Z</time>
      </trkpt>
      <trkpt lat="37.013053027912974" lon="-2.779286038130522">
        <ele>994.62</ele>
        <time>2025-05-12T11:50:04Z</time>
      </trkpt>
      <trkpt lat="37.013415964320302" lon="-2.778224973008037">
        <ele>998.47000000000003</ele>
        <time>2025-05-12T11:50:09Z</time>
      </trkpt>
      <trkpt lat="37.0135179720819" lon="-2.778049958869815">
        <ele>998.95000000000005</ele>
        <time>2025-05-12T11:50:10Z</time>
      </trkpt>
      <trkpt lat="37.013639006763697" lon="-2.777890032157302">
        <ele>999.90999999999997</ele>
        <time>2025-05-12T11:50:11Z</time>
      </trkpt>
      <trkpt lat="37.014172011986375" lon="-2.777305981144309">
        <ele>1004.72</ele>
        <time>2025-05-12T11:50:15Z</time>
      </trkpt>
      <trkpt lat="37.014303021132946" lon="-2.777206990867853">
        <ele>1005.6799999999999</ele>
        <time>2025-05-12T11:50:16Z</time>
      </trkpt>
      <trkpt lat="37.01444199308753" lon="-2.777138007804751">
        <ele>1006.64</ele>
        <time>2025-05-12T11:50:17Z</time>
      </trkpt>
      <trkpt lat="37.014597980305552" lon="-2.777138007804751">
        <ele>1007.6</ele>
        <time>2025-05-12T11:50:18Z</time>
      </trkpt>
      <trkpt lat="37.014766959473491" lon="-2.777138007804751">
        <ele>1008.5599999999999</ele>
        <time>2025-05-12T11:50:19Z</time>
      </trkpt>
      <trkpt lat="37.014947002753615" lon="-2.777138007804751">
        <ele>1009.04</ele>
        <time>2025-05-12T11:50:20Z</time>
      </trkpt>
      <trkpt lat="37.015130985528231" lon="-2.777082016691566">
        <ele>1010</ele>
        <time>2025-05-12T11:50:21Z</time>
      </trkpt>
      <trkpt lat="37.015829030424356" lon="-2.776715978980064">
        <ele>1014.33</ele>
        <time>2025-05-12T11:50:25Z</time>
      </trkpt>
      <trkpt lat="37.01594403013587" lon="-2.776600979268551">
        <ele>1015.29</ele>
        <time>2025-05-12T11:50:26Z</time>
      </trkpt>
      <trkpt lat="37.016044026240706" lon="-2.7764240372926">
        <ele>1016.73</ele>
        <time>2025-05-12T11:50:27Z</time>
      </trkpt>
      <trkpt lat="37.016249969601631" lon="-2.776111979037523">
        <ele>1019.13</ele>
        <time>2025-05-12T11:50:29Z</time>
      </trkpt>
      <trkpt lat="37.016368992626667" lon="-2.775967977941036">
        <ele>1020.58</ele>
        <time>2025-05-12T11:50:30Z</time>
      </trkpt>
      <trkpt lat="37.016507964581251" lon="-2.775878962129355">
        <ele>1022.02</ele>
        <time>2025-05-12T11:50:31Z</time>
      </trkpt>
      <trkpt lat="37.016661018133163" lon="-2.775829005986452">
        <ele>1022.98</ele>
        <time>2025-05-12T11:50:32Z</time>
      </trkpt>
      <trkpt lat="37.016827985644341" lon="-2.775829005986452">
        <ele>1023.9400000000001</ele>
        <time>2025-05-12T11:50:33Z</time>
      </trkpt>
      <trkpt lat="37.017005011439323" lon="-2.775829005986452">
        <ele>1025.3800000000001</ele>
        <time>2025-05-12T11:50:34Z</time>
      </trkpt>
      <trkpt lat="37.0171910058707" lon="-2.775834035128355">
        <ele>1026.3399999999999</ele>
        <time>2025-05-12T11:50:35Z</time>
      </trkpt>
      <trkpt lat="37.018104968592525" lon="-2.775820037350059">
        <ele>1032.1099999999999</ele>
        <time>2025-05-12T11:50:40Z</time>
      </trkpt>
      <trkpt lat="37.018250981345773" lon="-2.775715012103319">
        <ele>1033.0699999999999</ele>
        <time>2025-05-12T11:50:41Z</time>
      </trkpt>
      <trkpt lat="37.01839498244226" lon="-2.77558802627027">
        <ele>1034.04</ele>
        <time>2025-05-12T11:50:42Z</time>
      </trkpt>
      <trkpt lat="37.019366025924683" lon="-2.774495026096702">
        <ele>1039.3199999999999</ele>
        <time>2025-05-12T11:50:49Z</time>
      </trkpt>
      <trkpt lat="37.019455963745713" lon="-2.774306014180183">
        <ele>1040.28</ele>
        <time>2025-05-12T11:50:50Z</time>
      </trkpt>
      <trkpt lat="37.019547997042537" lon="-2.774110967293382">
        <ele>1041.25</ele>
        <time>2025-05-12T11:50:51Z</time>
      </trkpt>
      <trkpt lat="37.020011013373733" lon="-2.773240003734827">
        <ele>1047.01</ele>
        <time>2025-05-12T11:50:56Z</time>
      </trkpt>
      <trkpt lat="37.020106986165047" lon="-2.773125004023314">
        <ele>1047.97</ele>
        <time>2025-05-12T11:50:57Z</time>
      </trkpt>
      <trkpt lat="37.020244030281901" lon="-2.773083010688424">
        <ele>1048.9400000000001</ele>
        <time>2025-05-12T11:50:58Z</time>
      </trkpt>
      <trkpt lat="37.020386019721627" lon="-2.773039005696774">
        <ele>1049.9000000000001</ele>
        <time>2025-05-12T11:50:59Z</time>
      </trkpt>
      <trkpt lat="37.020528009161353" lon="-2.773039005696774">
        <ele>1050.8599999999999</ele>
        <time>2025-05-12T11:51:00Z</time>
      </trkpt>
      <trkpt lat="37.020639991387725" lon="-2.773073958232999">
        <ele>1051.8199999999999</ele>
        <time>2025-05-12T11:51:01Z</time>
      </trkpt>
      <trkpt lat="37.020763037726283" lon="-2.773144030943513">
        <ele>1052.78</ele>
        <time>2025-05-12T11:51:02Z</time>
      </trkpt>
      <trkpt lat="37.020894968882203" lon="-2.773218965157867">
        <ele>1053.26</ele>
        <time>2025-05-12T11:51:03Z</time>
      </trkpt>
      <trkpt lat="37.021032012999058" lon="-2.773295994848013">
        <ele>1054.22</ele>
        <time>2025-05-12T11:51:04Z</time>
      </trkpt>
      <trkpt lat="37.021169979125261" lon="-2.77337403036654">
        <ele>1054.7</ele>
        <time>2025-05-12T11:51:05Z</time>
      </trkpt>
      <trkpt lat="37.021327978000045" lon="-2.773422980681062">
        <ele>1055.6700000000001</ele>
        <time>2025-05-12T11:51:06Z</time>
      </trkpt>
      <trkpt lat="37.021618997678161" lon="-2.773476038128138">
        <ele>1057.5899999999999</ele>
        <time>2025-05-12T11:51:08Z</time>
      </trkpt>
      <trkpt lat="37.021752018481493" lon="-2.773464974015951">
        <ele>1058.55</ele>
        <time>2025-05-12T11:51:09Z</time>
      </trkpt>
      <trkpt lat="37.0218759868294" lon="-2.773412000387907">
        <ele>1059.51</ele>
        <time>2025-05-12T11:51:10Z</time>
      </trkpt>
      <trkpt lat="37.022003978490829" lon="-2.773358020931482">
        <ele>1060.47</ele>
        <time>2025-05-12T11:51:11Z</time>
      </trkpt>
      <trkpt lat="37.022144962102175" lon="-2.773297000676394">
        <ele>1060.95</ele>
        <time>2025-05-12T11:51:12Z</time>
      </trkpt>
      <trkpt lat="37.022263985127211" lon="-2.77320496737957">
        <ele>1061.4300000000001</ele>
        <time>2025-05-12T11:51:13Z</time>
      </trkpt>
      <trkpt lat="37.022380996495485" lon="-2.773089967668057">
        <ele>1062.3900000000001</ele>
        <time>2025-05-12T11:51:14Z</time>
      </trkpt>
      <trkpt lat="37.022483004257083" lon="-2.772953007370234">
        <ele>1062.8699999999999</ele>
        <time>2025-05-12T11:51:15Z</time>
      </trkpt>
      <trkpt lat="37.022560033947229" lon="-2.772789979353547">
        <ele>1062.8699999999999</ele>
        <time>2025-05-12T11:51:16Z</time>
      </trkpt>
      <trkpt lat="37.022618036717176" lon="-2.772591998800635">
        <ele>1063.8399999999999</ele>
        <time>2025-05-12T11:51:17Z</time>
      </trkpt>
      <trkpt lat="37.022676961496472" lon="-2.772391000762582">
        <ele>1064.8</ele>
        <time>2025-05-12T11:51:18Z</time>
      </trkpt>
      <trkpt lat="37.022789027541876" lon="-2.772009037435055">
        <ele>1066.24</ele>
        <time>2025-05-12T11:51:20Z</time>
      </trkpt>
      <trkpt lat="37.022891035303473" lon="-2.771851038560271">
        <ele>1066.72</ele>
        <time>2025-05-12T11:51:21Z</time>
      </trkpt>
      <trkpt lat="37.023538034409285" lon="-2.770812017843127">
        <ele>1071.05</ele>
        <time>2025-05-12T11:51:27Z</time>
      </trkpt>
      <trkpt lat="37.023626966401935" lon="-2.770600039511919">
        <ele>1071.05</ele>
        <time>2025-05-12T11:51:28Z</time>
      </trkpt>
      <trkpt lat="37.023695027455688" lon="-2.770360987633467">
        <ele>1070.5699999999999</ele>
        <time>2025-05-12T11:51:29Z</time>
      </trkpt>
      <trkpt lat="37.023746995255351" lon="-2.770107015967369">
        <ele>1070.0799999999999</ele>
        <time>2025-05-12T11:51:30Z</time>
      </trkpt>
      <trkpt lat="37.023777002468705" lon="-2.76982999406755">
        <ele>1069.5999999999999</ele>
        <time>2025-05-12T11:51:31Z</time>
      </trkpt>
      <trkpt lat="37.023797035217285" lon="-2.769540986046195">
        <ele>1069.1199999999999</ele>
        <time>2025-05-12T11:51:32Z</time>
      </trkpt>
      <trkpt lat="37.023794017732143" lon="-2.769240997731686">
        <ele>1068.1600000000001</ele>
        <time>2025-05-12T11:51:33Z</time>
      </trkpt>
      <trkpt lat="37.023763004690409" lon="-2.766614025458694">
        <ele>1061.4300000000001</ele>
        <time>2025-05-12T11:51:42Z</time>
      </trkpt>
      <trkpt lat="37.023755041882396" lon="-2.765989992767572">
        <ele>1059.03</ele>
        <time>2025-05-12T11:51:46Z</time>
      </trkpt>
      <trkpt lat="37.023755041882396" lon="-2.765600988641381">
        <ele>1055.6700000000001</ele>
        <time>2025-05-12T11:51:53Z</time>
      </trkpt>
      <trkpt lat="37.023792006075382" lon="-2.765337964519858">
        <ele>1051.8199999999999</ele>
        <time>2025-05-12T11:52:07Z</time>
      </trkpt>
      <trkpt lat="37.023796029388905" lon="-2.765321033075452">
        <ele>1051.3399999999999</ele>
        <time>2025-05-12T11:52:21Z</time>
      </trkpt>
      <trkpt lat="37.023796029388905" lon="-2.765321033075452">
        <ele>1051.3399999999999</ele>
        <time>2025-05-12T11:53:05Z</time>
      </trkpt>
      <trkpt lat="37.023796029388905" lon="-2.765321033075452">
        <ele>1051.8199999999999</ele>
        <time>2025-05-12T11:53:55Z</time>
      </trkpt>
      <trkpt lat="37.023822013288736" lon="-2.765206033363938">
        <ele>1051.8199999999999</ele>
        <time>2025-05-12T11:54:23Z</time>
      </trkpt>
      <trkpt lat="37.024018988013268" lon="-2.764770006760955">
        <ele>1049.9000000000001</ele>
        <time>2025-05-12T11:54:28Z</time>
      </trkpt>
      <trkpt lat="37.024085037410259" lon="-2.76469498872757">
        <ele>1049.4200000000001</ele>
        <time>2025-05-12T11:54:29Z</time>
      </trkpt>
      <trkpt lat="37.024290980771184" lon="-2.764456020668149">
        <ele>1047.49</ele>
        <time>2025-05-12T11:54:32Z</time>
      </trkpt>
      <trkpt lat="37.024393994361162" lon="-2.7643739618361">
        <ele>1047.01</ele>
        <time>2025-05-12T11:54:33Z</time>
      </trkpt>
      <trkpt lat="37.024479992687702" lon="-2.764304978772998">
        <ele>1046.05</ele>
        <time>2025-05-12T11:54:34Z</time>
      </trkpt>
      <trkpt lat="37.024564985185862" lon="-2.764301961287856">
        <ele>1045.5699999999999</ele>
        <time>2025-05-12T11:54:35Z</time>
      </trkpt>
      <trkpt lat="37.024651989340782" lon="-2.7643290348351">
        <ele>1045.0899999999999</ele>
        <time>2025-05-12T11:54:36Z</time>
      </trkpt>
      <trkpt lat="37.02473497018218" lon="-2.764359964057803">
        <ele>1044.6099999999999</ele>
        <time>2025-05-12T11:54:37Z</time>
      </trkpt>
      <trkpt lat="37.024814011529088" lon="-2.76441796682775">
        <ele>1044.6099999999999</ele>
        <time>2025-05-12T11:54:38Z</time>
      </trkpt>
      <trkpt lat="37.025086004287004" lon="-2.764618964865804">
        <ele>1045.0899999999999</ele>
        <time>2025-05-12T11:54:41Z</time>
      </trkpt>
      <trkpt lat="37.025190023705363" lon="-2.76469599455595">
        <ele>1045.0899999999999</ele>
        <time>2025-05-12T11:54:42Z</time>
      </trkpt>
      <trkpt lat="37.025310974568129" lon="-2.764742011204362">
        <ele>1045.5699999999999</ele>
        <time>2025-05-12T11:54:43Z</time>
      </trkpt>
      <trkpt lat="37.025436032563448" lon="-2.764776963740587">
        <ele>1046.05</ele>
        <time>2025-05-12T11:54:44Z</time>
      </trkpt>
      <trkpt lat="37.025553965941072" lon="-2.764810994267464">
        <ele>1047.01</ele>
        <time>2025-05-12T11:54:45Z</time>
      </trkpt>
      <trkpt lat="37.025664020329714" lon="-2.764842007309198">
        <ele>1047.97</ele>
        <time>2025-05-12T11:54:46Z</time>
      </trkpt>
      <trkpt lat="37.025730991736054" lon="-2.764949966222048">
        <ele>1048.45</ele>
        <time>2025-05-12T11:54:47Z</time>
      </trkpt>
      <trkpt lat="37.025802992284298" lon="-2.765066977590323">
        <ele>1048.9400000000001</ele>
        <time>2025-05-12T11:54:48Z</time>
      </trkpt>
      <trkpt lat="37.025877004489303" lon="-2.765186000615358">
        <ele>1049.9000000000001</ele>
        <time>2025-05-12T11:54:49Z</time>
      </trkpt>
      <trkpt lat="37.025941964238882" lon="-2.765291025862098">
        <ele>1050.3800000000001</ele>
        <time>2025-05-12T11:54:50Z</time>
      </trkpt>
      <trkpt lat="37.026027040556073" lon="-2.765349028632045">
        <ele>1050.8599999999999</ele>
        <time>2025-05-12T11:54:51Z</time>
      </trkpt>
      <trkpt lat="37.026101974770427" lon="-2.765367971733213">
        <ele>1050.8599999999999</ele>
        <time>2025-05-12T11:54:52Z</time>
      </trkpt>
      <trkpt lat="37.026177998632193" lon="-2.765338970348239">
        <ele>1050.8599999999999</ele>
        <time>2025-05-12T11:54:53Z</time>
      </trkpt>
      <trkpt lat="37.026249999180436" lon="-2.765292031690478">
        <ele>1050.8599999999999</ele>
        <time>2025-05-12T11:54:54Z</time>
      </trkpt>
      <trkpt lat="37.02628000639379" lon="-2.76518801227212">
        <ele>1051.3399999999999</ele>
        <time>2025-05-12T11:54:55Z</time>
      </trkpt>
      <trkpt lat="37.02627900056541" lon="-2.765068989247084">
        <ele>1051.3399999999999</ele>
        <time>2025-05-12T11:54:56Z</time>
      </trkpt>
      <trkpt lat="37.026267014443874" lon="-2.764925993978977">
        <ele>1051.3399999999999</ele>
        <time>2025-05-12T11:54:57Z</time>
      </trkpt>
      <trkpt lat="37.026199959218502" lon="-2.764408998191357">
        <ele>1051.8199999999999</ele>
        <time>2025-05-12T11:55:00Z</time>
      </trkpt>
      <trkpt lat="37.025942970067263" lon="-2.763419011607766">
        <ele>1049.4200000000001</ele>
        <time>2025-05-12T11:55:05Z</time>
      </trkpt>
      <trkpt lat="37.025855965912342" lon="-2.763266041874886">
        <ele>1048.45</ele>
        <time>2025-05-12T11:55:06Z</time>
      </trkpt>
      <trkpt lat="37.025696961209178" lon="-2.762986002489924">
        <ele>1046.53</ele>
        <time>2025-05-12T11:55:08Z</time>
      </trkpt>
      <trkpt lat="37.02563401311636" lon="-2.762843007221818">
        <ele>1045.5699999999999</ele>
        <time>2025-05-12T11:55:09Z</time>
      </trkpt>
      <trkpt lat="37.025600988417864" lon="-2.762660030275583">
        <ele>1044.6099999999999</ele>
        <time>2025-05-12T11:55:10Z</time>
      </trkpt>
      <trkpt lat="37.025474002584815" lon="-2.761871963739395">
        <ele>1041.25</ele>
        <time>2025-05-12T11:55:14Z</time>
      </trkpt>
      <trkpt lat="37.025481965392828" lon="-2.761669959872961">
        <ele>1040.28</ele>
        <time>2025-05-12T11:55:15Z</time>
      </trkpt>
      <trkpt lat="37.025489006191492" lon="-2.761470973491669">
        <ele>1039.3199999999999</ele>
        <time>2025-05-12T11:55:16Z</time>
      </trkpt>
      <trkpt lat="37.025521025061607" lon="-2.761291014030576">
        <ele>1038.3599999999999</ele>
        <time>2025-05-12T11:55:17Z</time>
      </trkpt>
      <trkpt lat="37.025573998689651" lon="-2.761107031255961">
        <ele>1036.9200000000001</ele>
        <time>2025-05-12T11:55:18Z</time>
      </trkpt>
      <trkpt lat="37.025627978146076" lon="-2.760922964662314">
        <ele>1035.48</ele>
        <time>2025-05-12T11:55:19Z</time>
      </trkpt>
      <trkpt lat="37.02567801810801" lon="-2.760750968009234">
        <ele>1034.04</ele>
        <time>2025-05-12T11:55:20Z</time>
      </trkpt>
      <trkpt lat="37.025639964267612" lon="-2.76059003546834">
        <ele>1032.5899999999999</ele>
        <time>2025-05-12T11:55:21Z</time>
      </trkpt>
      <trkpt lat="37.025581039488316" lon="-2.760419966652989">
        <ele>1031.1500000000001</ele>
        <time>2025-05-12T11:55:22Z</time>
      </trkpt>
      <trkpt lat="37.025521025061607" lon="-2.760244030505419">
        <ele>1029.71</ele>
        <time>2025-05-12T11:55:23Z</time>
      </trkpt>
      <trkpt lat="37.025450030341744" lon="-2.759917974472046">
        <ele>1027.3099999999999</ele>
        <time>2025-05-12T11:55:25Z</time>
      </trkpt>
      <trkpt lat="37.025433015078306" lon="-2.75977598503232">
        <ele>1025.8599999999999</ele>
        <time>2025-05-12T11:55:26Z</time>
      </trkpt>
      <trkpt lat="37.025454975664616" lon="-2.759644975885749">
        <ele>1023.9400000000001</ele>
        <time>2025-05-12T11:55:27Z</time>
      </trkpt>
      <trkpt lat="37.025498980656266" lon="-2.759492006152868">
        <ele>1022.98</ele>
        <time>2025-05-12T11:55:28Z</time>
      </trkpt>
      <trkpt lat="37.025547008961439" lon="-2.759325038641691">
        <ele>1021.54</ele>
        <time>2025-05-12T11:55:29Z</time>
      </trkpt>
      <trkpt lat="37.025598976761103" lon="-2.759146001189947">
        <ele>1020.1</ele>
        <time>2025-05-12T11:55:30Z</time>
      </trkpt>
      <trkpt lat="37.025630995631218" lon="-2.758949026465416">
        <ele>1019.13</ele>
        <time>2025-05-12T11:55:31Z</time>
      </trkpt>
      <trkpt lat="37.025648010894656" lon="-2.758750040084124">
        <ele>1018.17</ele>
        <time>2025-05-12T11:55:32Z</time>
      </trkpt>
      <trkpt lat="37.025667037814856" lon="-2.758546024560928">
        <ele>1016.73</ele>
        <time>2025-05-12T11:55:33Z</time>
      </trkpt>
      <trkpt lat="37.025729985907674" lon="-2.758364975452423">
        <ele>1015.29</ele>
        <time>2025-05-12T11:55:34Z</time>
      </trkpt>
      <trkpt lat="37.025853032246232" lon="-2.758007990196347">
        <ele>1012.41</ele>
        <time>2025-05-12T11:55:36Z</time>
      </trkpt>
      <trkpt lat="37.025887984782457" lon="-2.757805986329913">
        <ele>1010.48</ele>
        <time>2025-05-12T11:55:37Z</time>
      </trkpt>
      <trkpt lat="37.02591497451067" lon="-2.757440032437444">
        <ele>1007.6</ele>
        <time>2025-05-12T11:55:39Z</time>
      </trkpt>
      <trkpt lat="37.025946993380785" lon="-2.757308017462492">
        <ele>1006.64</ele>
        <time>2025-05-12T11:55:40Z</time>
      </trkpt>
      <trkpt lat="37.026028968393803" lon="-2.757160998880863">
        <ele>1004.72</ele>
        <time>2025-05-12T11:55:41Z</time>
      </trkpt>
      <trkpt lat="37.026080014184117" lon="-2.75711003690958">
        <ele>1003.27</ele>
        <time>2025-05-12T11:55:42Z</time>
      </trkpt>
      <trkpt lat="37.02617397531867" lon="-2.757015991955996">
        <ele>1002.3099999999999</ele>
        <time>2025-05-12T11:55:43Z</time>
      </trkpt>
      <trkpt lat="37.026285035535693" lon="-2.756905015558004">
        <ele>1000.87</ele>
        <time>2025-05-12T11:55:44Z</time>
      </trkpt>
      <trkpt lat="37.026404980570078" lon="-2.756783980876207">
        <ele>999.90999999999997</ele>
        <time>2025-05-12T11:55:45Z</time>
      </trkpt>
      <trkpt lat="37.026513023301959" lon="-2.756642997264862">
        <ele>998.95000000000005</ele>
        <time>2025-05-12T11:55:46Z</time>
      </trkpt>
      <trkpt lat="37.026587035506964" lon="-2.756495978683233">
        <ele>997.50999999999999</ele>
        <time>2025-05-12T11:55:47Z</time>
      </trkpt>
      <trkpt lat="37.026597009971738" lon="-2.756278971210122">
        <ele>996.53999999999996</ele>
        <time>2025-05-12T11:55:48Z</time>
      </trkpt>
      <trkpt lat="37.026605978608131" lon="-2.756066992878914">
        <ele>995.58000000000004</ele>
        <time>2025-05-12T11:55:49Z</time>
      </trkpt>
      <trkpt lat="37.026616036891937" lon="-2.755845040082932">
        <ele>995.10000000000002</ele>
        <time>2025-05-12T11:55:50Z</time>
      </trkpt>
      <trkpt lat="37.026696000248194" lon="-2.754734018817544">
        <ele>994.13999999999999</ele>
        <time>2025-05-12T11:55:56Z</time>
      </trkpt>
      <trkpt lat="37.026712009683251" lon="-2.754612984135747">
        <ele>993.65999999999997</ele>
        <time>2025-05-12T11:55:57Z</time>
      </trkpt>
      <trkpt lat="37.026748973876238" lon="-2.754534026607871">
        <ele>993.17999999999995</ele>
        <time>2025-05-12T11:55:58Z</time>
      </trkpt>
      <trkpt lat="37.026778981089592" lon="-2.754487004131079">
        <ele>992.22000000000003</ele>
        <time>2025-05-12T11:55:59Z</time>
      </trkpt>
      <trkpt lat="37.026803037151694" lon="-2.754448028281331">
        <ele>991.25999999999999</ele>
        <time>2025-05-12T11:56:00Z</time>
      </trkpt>
      <trkpt lat="37.026821980252862" lon="-2.754419026896358">
        <ele>990.77999999999997</ele>
        <time>2025-05-12T11:56:01Z</time>
      </trkpt>
      <trkpt lat="37.026821980252862" lon="-2.754419026896358">
        <ele>989.80999999999995</ele>
        <time>2025-05-12T11:56:11Z</time>
      </trkpt>
      <trkpt lat="37.026821980252862" lon="-2.754419026896358">
        <ele>989.33000000000004</ele>
        <time>2025-05-12T11:56:57Z</time>
      </trkpt>
      <trkpt lat="37.026900015771389" lon="-2.754346020519733">
        <ele>988.37</ele>
        <time>2025-05-12T11:57:03Z</time>
      </trkpt>
      <trkpt lat="37.026977967470884" lon="-2.754338979721069">
        <ele>987.40999999999997</ele>
        <time>2025-05-12T11:57:04Z</time>
      </trkpt>
      <trkpt lat="37.02707402408123" lon="-2.754329005256295">
        <ele>986.92999999999995</ele>
        <time>2025-05-12T11:57:05Z</time>
      </trkpt>
      <trkpt lat="37.027169996872544" lon="-2.754377033561468">
        <ele>985.97000000000003</ele>
        <time>2025-05-12T11:57:06Z</time>
      </trkpt>
      <trkpt lat="37.02728901989758" lon="-2.754442999139428">
        <ele>985.00999999999999</ele>
        <time>2025-05-12T11:57:07Z</time>
      </trkpt>
      <trkpt lat="37.027414999902248" lon="-2.75451198220253">
        <ele>984.52999999999997</ele>
        <time>2025-05-12T11:57:08Z</time>
      </trkpt>
      <trkpt lat="37.027533017098904" lon="-2.754583982750773">
        <ele>983.57000000000005</ele>
        <time>2025-05-12T11:57:09Z</time>
      </trkpt>
      <trkpt lat="37.027644999325275" lon="-2.754681967198849">
        <ele>983.09000000000003</ele>
        <time>2025-05-12T11:57:10Z</time>
      </trkpt>
      <trkpt lat="37.02774197794497" lon="-2.754819011315703">
        <ele>983.09000000000003</ele>
        <time>2025-05-12T11:57:11Z</time>
      </trkpt>
      <trkpt lat="37.027831999585032" lon="-2.754970975220203">
        <ele>983.09000000000003</ele>
        <time>2025-05-12T11:57:12Z</time>
      </trkpt>
      <trkpt lat="37.027920009568334" lon="-2.755140960216522">
        <ele>982.60000000000002</ele>
        <time>2025-05-12T11:57:13Z</time>
      </trkpt>
      <trkpt lat="37.027996033430099" lon="-2.755330977961421">
        <ele>982.60000000000002</ele>
        <time>2025-05-12T11:57:14Z</time>
      </trkpt>
      <trkpt lat="37.028073985129595" lon="-2.755525019019842">
        <ele>983.09000000000003</ele>
        <time>2025-05-12T11:57:15Z</time>
      </trkpt>
      <trkpt lat="37.028330974280834" lon="-2.75614402256906">
        <ele>984.52999999999997</ele>
        <time>2025-05-12T11:57:19Z</time>
      </trkpt>
      <trkpt lat="37.028402974829078" lon="-2.756219040602446">
        <ele>984.52999999999997</ele>
        <time>2025-05-12T11:57:20Z</time>
      </trkpt>
      <trkpt lat="37.02847296372056" lon="-2.756243012845516">
        <ele>985.00999999999999</ele>
        <time>2025-05-12T11:57:21Z</time>
      </trkpt>
      <trkpt lat="37.028529038652778" lon="-2.756194984540343">
        <ele>985.00999999999999</ele>
        <time>2025-05-12T11:57:22Z</time>
      </trkpt>
      <trkpt lat="37.028603972867131" lon="-2.756131030619144">
        <ele>984.52999999999997</ele>
        <time>2025-05-12T11:57:23Z</time>
      </trkpt>
      <trkpt lat="37.028670022264123" lon="-2.756055006757379">
        <ele>984.52999999999997</ele>
        <time>2025-05-12T11:57:24Z</time>
      </trkpt>
      <trkpt lat="37.028758032247424" lon="-2.755955010652542">
        <ele>985.00999999999999</ele>
        <time>2025-05-12T11:57:25Z</time>
      </trkpt>
      <trkpt lat="37.028856016695499" lon="-2.75584202259779">
        <ele>985.00999999999999</ele>
        <time>2025-05-12T11:57:26Z</time>
      </trkpt>
      <trkpt lat="37.028949977830052" lon="-2.755700033158064">
        <ele>984.52999999999997</ele>
        <time>2025-05-12T11:57:27Z</time>
      </trkpt>
      <trkpt lat="37.029261030256748" lon="-2.755194017663598">
        <ele>984.04999999999995</ele>
        <time>2025-05-12T11:57:31Z</time>
      </trkpt>
      <trkpt lat="37.029344011098146" lon="-2.755155963823199">
        <ele>983.57000000000005</ele>
        <time>2025-05-12T11:57:32Z</time>
      </trkpt>
      <trkpt lat="37.029437972232699" lon="-2.75515403598547">
        <ele>982.60000000000002</ele>
        <time>2025-05-12T11:57:33Z</time>
      </trkpt>
      <trkpt lat="37.0295450091362" lon="-2.755210027098656">
        <ele>981.63999999999999</ele>
        <time>2025-05-12T11:57:34Z</time>
      </trkpt>
      <trkpt lat="37.029661014676094" lon="-2.755272975191474">
        <ele>980.67999999999995</ele>
        <time>2025-05-12T11:57:35Z</time>
      </trkpt>
      <trkpt lat="37.029768973588943" lon="-2.755314968526363">
        <ele>979.72000000000003</ele>
        <time>2025-05-12T11:57:36Z</time>
      </trkpt>
      <trkpt lat="37.029855977743864" lon="-2.755314968526363">
        <ele>978.27999999999997</ele>
        <time>2025-05-12T11:57:37Z</time>
      </trkpt>
      <trkpt lat="37.029903000220656" lon="-2.755260989069939">
        <ele>977.32000000000005</ele>
        <time>2025-05-12T11:57:38Z</time>
      </trkpt>
      <trkpt lat="37.029938036575913" lon="-2.755171973258257">
        <ele>976.36000000000001</ele>
        <time>2025-05-12T11:57:39Z</time>
      </trkpt>
      <trkpt lat="37.02995203435421" lon="-2.755042975768447">
        <ele>975.88</ele>
        <time>2025-05-12T11:57:40Z</time>
      </trkpt>
      <trkpt lat="37.029965026304126" lon="-2.754911966621876">
        <ele>974.90999999999997</ele>
        <time>2025-05-12T11:57:41Z</time>
      </trkpt>
      <trkpt lat="37.029999978840351" lon="-2.754781963303685">
        <ele>974.42999999999995</ele>
        <time>2025-05-12T11:57:42Z</time>
      </trkpt>
      <trkpt lat="37.030082959681749" lon="-2.754715997725725">
        <ele>973.95000000000005</ele>
        <time>2025-05-12T11:57:43Z</time>
      </trkpt>
      <trkpt lat="37.030192008242011" lon="-2.754628993570805">
        <ele>973.95000000000005</ele>
        <time>2025-05-12T11:57:44Z</time>
      </trkpt>
      <trkpt lat="37.03029602766037" lon="-2.754590017721057">
        <ele>973.47000000000003</ele>
        <time>2025-05-12T11:57:45Z</time>
      </trkpt>
      <trkpt lat="37.030401974916458" lon="-2.754550036042929">
        <ele>972.99000000000001</ele>
        <time>2025-05-12T11:57:46Z</time>
      </trkpt>
      <trkpt lat="37.030496019870043" lon="-2.754514999687672">
        <ele>972.50999999999999</ele>
        <time>2025-05-12T11:57:47Z</time>
      </trkpt>
      <trkpt lat="37.030585035681725" lon="-2.754524974152446">
        <ele>972.02999999999997</ele>
        <time>2025-05-12T11:57:48Z</time>
      </trkpt>
      <trkpt lat="37.030647983774543" lon="-2.754605021327734">
        <ele>971.54999999999995</ele>
        <time>2025-05-12T11:57:49Z</time>
      </trkpt>
      <trkpt lat="37.030695006251335" lon="-2.754710968583822">
        <ele>970.59000000000003</ele>
        <time>2025-05-12T11:57:50Z</time>
      </trkpt>
      <trkpt lat="37.030740017071366" lon="-2.754815993830562">
        <ele>969.14999999999998</ele>
        <time>2025-05-12T11:57:51Z</time>
      </trkpt>
      <trkpt lat="37.030783016234636" lon="-2.754885982722044">
        <ele>968.17999999999995</ele>
        <time>2025-05-12T11:57:52Z</time>
      </trkpt>
      <trkpt lat="37.030862979590893" lon="-2.754885982722044">
        <ele>967.22000000000003</ele>
        <time>2025-05-12T11:57:53Z</time>
      </trkpt>
      <trkpt lat="37.030951995402575" lon="-2.75485304184258">
        <ele>966.25999999999999</ele>
        <time>2025-05-12T11:57:54Z</time>
      </trkpt>
      <trkpt lat="37.031040005385876" lon="-2.75481297634542">
        <ele>965.77999999999997</ele>
        <time>2025-05-12T11:57:55Z</time>
      </trkpt>
      <trkpt lat="37.031141007319093" lon="-2.754798978567123">
        <ele>965.29999999999995</ele>
        <time>2025-05-12T11:57:56Z</time>
      </trkpt>
      <trkpt lat="37.031237985938787" lon="-2.754870979115367">
        <ele>965.29999999999995</ele>
        <time>2025-05-12T11:57:57Z</time>
      </trkpt>
      <trkpt lat="37.031343011185527" lon="-2.754950020462275">
        <ele>965.29999999999995</ele>
        <time>2025-05-12T11:57:58Z</time>
      </trkpt>
      <trkpt lat="37.031442001461983" lon="-2.75502503849566">
        <ele>965.29999999999995</ele>
        <time>2025-05-12T11:57:59Z</time>
      </trkpt>
      <trkpt lat="37.031532023102045" lon="-2.755092009902">
        <ele>965.29999999999995</ele>
        <time>2025-05-12T11:58:00Z</time>
      </trkpt>
      <trkpt lat="37.031615003943443" lon="-2.755072982981801">
        <ele>965.29999999999995</ele>
        <time>2025-05-12T11:58:01Z</time>
      </trkpt>
      <trkpt lat="37.031678035855293" lon="-2.755019003525376">
        <ele>964.82000000000005</ele>
        <time>2025-05-12T11:58:02Z</time>
      </trkpt>
      <trkpt lat="37.031739978119731" lon="-2.754929987713695">
        <ele>964.34000000000003</ele>
        <time>2025-05-12T11:58:03Z</time>
      </trkpt>
      <trkpt lat="37.0318020042032" lon="-2.754840971902013">
        <ele>963.86000000000001</ele>
        <time>2025-05-12T11:58:04Z</time>
      </trkpt>
      <trkpt lat="37.031870987266302" lon="-2.754777017980814">
        <ele>963.38</ele>
        <time>2025-05-12T11:58:05Z</time>
      </trkpt>
      <trkpt lat="37.031963020563126" lon="-2.75476997718215">
        <ele>962.89999999999998</ele>
        <time>2025-05-12T11:58:06Z</time>
      </trkpt>
      <trkpt lat="37.032072991132736" lon="-2.754761008545756">
        <ele>962.41999999999996</ele>
        <time>2025-05-12T11:58:07Z</time>
      </trkpt>
      <trkpt lat="37.032179022207856" lon="-2.754721026867628">
        <ele>961.94000000000005</ele>
        <time>2025-05-12T11:58:08Z</time>
      </trkpt>
      <trkpt lat="37.032272983342409" lon="-2.754641985520721">
        <ele>962.41999999999996</ele>
        <time>2025-05-12T11:58:09Z</time>
      </trkpt>
      <trkpt lat="37.032354036346078" lon="-2.75453201495111">
        <ele>962.41999999999996</ele>
        <time>2025-05-12T11:58:10Z</time>
      </trkpt>
      <trkpt lat="37.03242402523756" lon="-2.754432018846273">
        <ele>962.41999999999996</ele>
        <time>2025-05-12T11:58:11Z</time>
      </trkpt>
      <trkpt lat="37.032441040500998" lon="-2.754287011921406">
        <ele>961.94000000000005</ele>
        <time>2025-05-12T11:58:12Z</time>
      </trkpt>
      <trkpt lat="37.032459983602166" lon="-2.754123983904719">
        <ele>961.94000000000005</ele>
        <time>2025-05-12T11:58:13Z</time>
      </trkpt>
      <trkpt lat="37.03248999081552" lon="-2.753947963938117">
        <ele>960.98000000000002</ele>
        <time>2025-05-12T11:58:14Z</time>
      </trkpt>
      <trkpt lat="37.03255201689899" lon="-2.753619980067015">
        <ele>959.52999999999997</ele>
        <time>2025-05-12T11:58:16Z</time>
      </trkpt>
      <trkpt lat="37.032626029103994" lon="-2.753462987020612">
        <ele>959.04999999999995</ele>
        <time>2025-05-12T11:58:17Z</time>
      </trkpt>
      <trkpt lat="37.032686965540051" lon="-2.753333989530802">
        <ele>959.04999999999995</ele>
        <time>2025-05-12T11:58:18Z</time>
      </trkpt>
      <trkpt lat="37.032772041857243" lon="-2.753221001476049">
        <ele>958.57000000000005</ele>
        <time>2025-05-12T11:58:19Z</time>
      </trkpt>
      <trkpt lat="37.03287698328495" lon="-2.753145983442664">
        <ele>958.09000000000003</ele>
        <time>2025-05-12T11:58:20Z</time>
      </trkpt>
      <trkpt lat="37.032985026016831" lon="-2.753069037571549">
        <ele>957.61000000000001</ele>
        <time>2025-05-12T11:58:21Z</time>
      </trkpt>
      <trkpt lat="37.033085022121668" lon="-2.752997959032655">
        <ele>957.61000000000001</ele>
        <time>2025-05-12T11:58:22Z</time>
      </trkpt>
      <trkpt lat="37.03328300267458" lon="-2.752913972362876">
        <ele>956.16999999999996</ele>
        <time>2025-05-12T11:58:24Z</time>
      </trkpt>
      <trkpt lat="37.033381992951035" lon="-2.752897040918469">
        <ele>955.21000000000004</ele>
        <time>2025-05-12T11:58:25Z</time>
      </trkpt>
      <trkpt lat="37.03356103040278" lon="-2.752855969592929">
        <ele>953.27999999999997</ele>
        <time>2025-05-12T11:58:27Z</time>
      </trkpt>
      <trkpt lat="37.03364702872932" lon="-2.752805007621646">
        <ele>952.32000000000005</ele>
        <time>2025-05-12T11:58:28Z</time>
      </trkpt>
      <trkpt lat="37.033710982650518" lon="-2.752676010131836">
        <ele>951.84000000000003</ele>
        <time>2025-05-12T11:58:29Z</time>
      </trkpt>
      <trkpt lat="37.033718023449183" lon="-2.752567967399955">
        <ele>950.88</ele>
        <time>2025-05-12T11:58:30Z</time>
      </trkpt>
      <trkpt lat="37.033729003742337" lon="-2.752420026808977">
        <ele>950.39999999999998</ele>
        <time>2025-05-12T11:58:31Z</time>
      </trkpt>
      <trkpt lat="37.033747024834156" lon="-2.752151973545551">
        <ele>949.91999999999996</ele>
        <time>2025-05-12T11:58:33Z</time>
      </trkpt>
      <trkpt lat="37.033769991248846" lon="-2.752025993540883">
        <ele>950.39999999999998</ele>
        <time>2025-05-12T11:58:34Z</time>
      </trkpt>
      <trkpt lat="37.033816007897258" lon="-2.751950975507498">
        <ele>949.91999999999996</ele>
        <time>2025-05-12T11:58:35Z</time>
      </trkpt>
      <trkpt lat="37.03390896320343" lon="-2.751939995214343">
        <ele>950.39999999999998</ele>
        <time>2025-05-12T11:58:36Z</time>
      </trkpt>
      <trkpt lat="37.03399496152997" lon="-2.751933038234711">
        <ele>949.91999999999996</ele>
        <time>2025-05-12T11:58:37Z</time>
      </trkpt>
      <trkpt lat="37.034096969291568" lon="-2.751924991607666">
        <ele>949.44000000000005</ele>
        <time>2025-05-12T11:58:38Z</time>
      </trkpt>
      <trkpt lat="37.03502400778234" lon="-2.751841004937887">
        <ele>941.26999999999998</ele>
        <time>2025-05-12T11:58:45Z</time>
      </trkpt>
      <trkpt lat="37.035159962251782" lon="-2.751873023808003">
        <ele>940.30999999999995</ele>
        <time>2025-05-12T11:58:46Z</time>
      </trkpt>
      <trkpt lat="37.035292983055115" lon="-2.751909988000989">
        <ele>939.35000000000002</ele>
        <time>2025-05-12T11:58:47Z</time>
      </trkpt>
      <trkpt lat="37.035415023565292" lon="-2.751944018527865">
        <ele>938.38</ele>
        <time>2025-05-12T11:58:48Z</time>
      </trkpt>
      <trkpt lat="37.035532034933567" lon="-2.751976037397981">
        <ele>937.89999999999998</ele>
        <time>2025-05-12T11:58:49Z</time>
      </trkpt>
      <trkpt lat="37.035644017159939" lon="-2.75197695940733">
        <ele>937.41999999999996</ele>
        <time>2025-05-12T11:58:50Z</time>
      </trkpt>
      <trkpt lat="37.035759016871452" lon="-2.751956004649401">
        <ele>937.41999999999996</ele>
        <time>2025-05-12T11:58:51Z</time>
      </trkpt>
      <trkpt lat="37.035864964127541" lon="-2.751935971900821">
        <ele>937.41999999999996</ele>
        <time>2025-05-12T11:58:52Z</time>
      </trkpt>
      <trkpt lat="37.035968983545899" lon="-2.751946030184627">
        <ele>937.41999999999996</ele>
        <time>2025-05-12T11:58:53Z</time>
      </trkpt>
      <trkpt lat="37.036064034327865" lon="-2.751987017691135">
        <ele>937.41999999999996</ele>
        <time>2025-05-12T11:58:54Z</time>
      </trkpt>
      <trkpt lat="37.036166964098811" lon="-2.752032028511167">
        <ele>937.41999999999996</ele>
        <time>2025-05-12T11:58:55Z</time>
      </trkpt>
      <trkpt lat="37.036264026537538" lon="-2.752075027674437">
        <ele>937.41999999999996</ele>
        <time>2025-05-12T11:58:56Z</time>
      </trkpt>
      <trkpt lat="37.036400986835361" lon="-2.75210402905941">
        <ele>937.89999999999998</ele>
        <time>2025-05-12T11:58:57Z</time>
      </trkpt>
      <trkpt lat="37.036529984325171" lon="-2.752131018787623">
        <ele>937.89999999999998</ele>
        <time>2025-05-12T11:58:58Z</time>
      </trkpt>
      <trkpt lat="37.036654036492109" lon="-2.752157002687454">
        <ele>938.38</ele>
        <time>2025-05-12T11:58:59Z</time>
      </trkpt>
      <trkpt lat="37.036766018718481" lon="-2.752134958282113">
        <ele>938.86000000000001</ele>
        <time>2025-05-12T11:59:00Z</time>
      </trkpt>
      <trkpt lat="37.036908008158207" lon="-2.752096988260746">
        <ele>939.35000000000002</ele>
        <time>2025-05-12T11:59:01Z</time>
      </trkpt>
      <trkpt lat="37.036971962079406" lon="-2.752050971612334">
        <ele>940.30999999999995</ele>
        <time>2025-05-12T11:59:02Z</time>
      </trkpt>
      <trkpt lat="37.037055026739836" lon="-2.751990035176277">
        <ele>940.30999999999995</ele>
        <time>2025-05-12T11:59:03Z</time>
      </trkpt>
      <trkpt lat="37.037144964560866" lon="-2.751924991607666">
        <ele>941.26999999999998</ele>
        <time>2025-05-12T11:59:04Z</time>
      </trkpt>
      <trkpt lat="37.037242026999593" lon="-2.751951981335878">
        <ele>941.75</ele>
        <time>2025-05-12T11:59:05Z</time>
      </trkpt>
      <trkpt lat="37.037349985912442" lon="-2.751980982720852">
        <ele>941.75</ele>
        <time>2025-05-12T11:59:06Z</time>
      </trkpt>
      <trkpt lat="37.037463979795575" lon="-2.752030016854405">
        <ele>942.23000000000002</ele>
        <time>2025-05-12T11:59:07Z</time>
      </trkpt>
      <trkpt lat="37.03758099116385" lon="-2.752087013795972">
        <ele>942.71000000000004</ele>
        <time>2025-05-12T11:59:08Z</time>
      </trkpt>
      <trkpt lat="37.038125982508063" lon="-2.752350959926844">
        <ele>946.07000000000005</ele>
        <time>2025-05-12T11:59:13Z</time>
      </trkpt>
      <trkpt lat="37.038178034126759" lon="-2.752437964081764">
        <ele>946.07000000000005</ele>
        <time>2025-05-12T11:59:14Z</time>
      </trkpt>
      <trkpt lat="37.038293033838272" lon="-2.752648014575243">
        <ele>946.55999999999995</ele>
        <time>2025-05-12T11:59:16Z</time>
      </trkpt>
      <trkpt lat="37.038366962224245" lon="-2.752782963216305">
        <ele>946.55999999999995</ele>
        <time>2025-05-12T11:59:17Z</time>
      </trkpt>
      <trkpt lat="37.038479028269649" lon="-2.752854041755199">
        <ele>946.07000000000005</ele>
        <time>2025-05-12T11:59:18Z</time>
      </trkpt>
      <trkpt lat="37.03859101049602" lon="-2.752924030646682">
        <ele>946.07000000000005</ele>
        <time>2025-05-12T11:59:19Z</time>
      </trkpt>
      <trkpt lat="37.038701986894011" lon="-2.752995025366545">
        <ele>946.55999999999995</ele>
        <time>2025-05-12T11:59:20Z</time>
      </trkpt>
      <trkpt lat="37.038799971342087" lon="-2.753069959580898">
        <ele>947.03999999999996</ele>
        <time>2025-05-12T11:59:21Z</time>
      </trkpt>
      <trkpt lat="37.038888987153769" lon="-2.753173978999257">
        <ele>947.03999999999996</ele>
        <time>2025-05-12T11:59:22Z</time>
      </trkpt>
      <trkpt lat="37.038987977430224" lon="-2.753289984539151">
        <ele>947.03999999999996</ele>
        <time>2025-05-12T11:59:23Z</time>
      </trkpt>
      <trkpt lat="37.039203979074955" lon="-2.753525013104081">
        <ele>948.48000000000002</ele>
        <time>2025-05-12T11:59:25Z</time>
      </trkpt>
      <trkpt lat="37.039318978786469" lon="-2.753613023087382">
        <ele>948.96000000000004</ele>
        <time>2025-05-12T11:59:26Z</time>
      </trkpt>
      <trkpt lat="37.03942702151835" lon="-2.753696003928781">
        <ele>948.96000000000004</ele>
        <time>2025-05-12T11:59:27Z</time>
      </trkpt>
      <trkpt lat="37.039545960724354" lon="-2.753705978393555">
        <ele>949.44000000000005</ele>
        <time>2025-05-12T11:59:28Z</time>
      </trkpt>
      <trkpt lat="37.039647968485951" lon="-2.753689968958497">
        <ele>949.91999999999996</ele>
        <time>2025-05-12T11:59:29Z</time>
      </trkpt>
      <trkpt lat="37.039753999561071" lon="-2.753644036129117">
        <ele>950.88</ele>
        <time>2025-05-12T11:59:30Z</time>
      </trkpt>
      <trkpt lat="37.039864975959063" lon="-2.753596007823944">
        <ele>951.84000000000003</ele>
        <time>2025-05-12T11:59:31Z</time>
      </trkpt>
      <trkpt lat="37.039983998984098" lon="-2.753544040024281">
        <ele>953.27999999999997</ele>
        <time>2025-05-12T11:59:32Z</time>
      </trkpt>
      <trkpt lat="37.040102016180754" lon="-2.753492994233966">
        <ele>954.25</ele>
        <time>2025-05-12T11:59:33Z</time>
      </trkpt>
      <trkpt lat="37.04022497870028" lon="-2.753514032810926">
        <ele>954.73000000000002</ele>
        <time>2025-05-12T11:59:34Z</time>
      </trkpt>
      <trkpt lat="37.04035297036171" lon="-2.753539010882378">
        <ele>955.69000000000005</ele>
        <time>2025-05-12T11:59:35Z</time>
      </trkpt>
      <trkpt lat="37.04047903418541" lon="-2.753562983125448">
        <ele>956.64999999999998</ele>
        <time>2025-05-12T11:59:36Z</time>
      </trkpt>
      <trkpt lat="37.040600990876555" lon="-2.753561977297068">
        <ele>957.61000000000001</ele>
        <time>2025-05-12T11:59:37Z</time>
      </trkpt>
      <trkpt lat="37.040719008073211" lon="-2.753519983962178">
        <ele>958.57000000000005</ele>
        <time>2025-05-12T11:59:38Z</time>
      </trkpt>
      <trkpt lat="37.040831996127963" lon="-2.75348000228405">
        <ele>959.52999999999997</ele>
        <time>2025-05-12T11:59:39Z</time>
      </trkpt>
      <trkpt lat="37.040940960869193" lon="-2.753444965928793">
        <ele>960.49000000000001</ele>
        <time>2025-05-12T11:59:40Z</time>
      </trkpt>
      <trkpt lat="37.041172971948981" lon="-2.753409007564187">
        <ele>961.94000000000005</ele>
        <time>2025-05-12T11:59:42Z</time>
      </trkpt>
      <trkpt lat="37.041328037157655" lon="-2.753384029492736">
        <ele>962.89999999999998</ele>
        <time>2025-05-12T11:59:44Z</time>
      </trkpt>
      <trkpt lat="37.041419986635447" lon="-2.753434991464019">
        <ele>963.38</ele>
        <time>2025-05-12T11:59:45Z</time>
      </trkpt>
      <trkpt lat="37.041493998840451" lon="-2.753475978970528">
        <ele>963.86000000000001</ele>
        <time>2025-05-12T11:59:46Z</time>
      </trkpt>
      <trkpt lat="37.041572034358978" lon="-2.753519983962178">
        <ele>963.86000000000001</ele>
        <time>2025-05-12T11:59:47Z</time>
      </trkpt>
      <trkpt lat="37.041660966351628" lon="-2.753569018095732">
        <ele>963.86000000000001</ele>
        <time>2025-05-12T11:59:48Z</time>
      </trkpt>
      <trkpt lat="37.041760962456465" lon="-2.753610005602241">
        <ele>963.86000000000001</ele>
        <time>2025-05-12T11:59:49Z</time>
      </trkpt>
      <trkpt lat="37.041861964389682" lon="-2.753635989502072">
        <ele>964.34000000000003</ele>
        <time>2025-05-12T11:59:50Z</time>
      </trkpt>
      <trkpt lat="37.041969001293182" lon="-2.753600031137466">
        <ele>964.82000000000005</ele>
        <time>2025-05-12T11:59:51Z</time>
      </trkpt>
      <trkpt lat="37.042082995176315" lon="-2.7535430341959">
        <ele>964.82000000000005</ele>
        <time>2025-05-12T11:59:52Z</time>
      </trkpt>
      <trkpt lat="37.04220000654459" lon="-2.753485031425953">
        <ele>965.29999999999995</ele>
        <time>2025-05-12T11:59:53Z</time>
      </trkpt>
      <trkpt lat="37.042310982942581" lon="-2.753449995070696">
        <ele>965.29999999999995</ele>
        <time>2025-05-12T11:59:54Z</time>
      </trkpt>
      <trkpt lat="37.042420031502843" lon="-2.753423005342484">
        <ele>964.34000000000003</ele>
        <time>2025-05-12T11:59:55Z</time>
      </trkpt>
      <trkpt lat="37.042519021779299" lon="-2.753398027271032">
        <ele>963.86000000000001</ele>
        <time>2025-05-12T11:59:56Z</time>
      </trkpt>
      <trkpt lat="37.042608959600329" lon="-2.753348993137479">
        <ele>963.38</ele>
        <time>2025-05-12T11:59:57Z</time>
      </trkpt>
      <trkpt lat="37.042669979855418" lon="-2.753286967054009">
        <ele>962.89999999999998</ele>
        <time>2025-05-12T11:59:58Z</time>
      </trkpt>
      <trkpt lat="37.042696969583631" lon="-2.753221001476049">
        <ele>962.89999999999998</ele>
        <time>2025-05-12T11:59:59Z</time>
      </trkpt>
      <trkpt lat="37.042688000947237" lon="-2.753142965957522">
        <ele>962.41999999999996</ele>
        <time>2025-05-12T12:00:00Z</time>
      </trkpt>
      <trkpt lat="37.042646007612348" lon="-2.753056967630982">
        <ele>961.94000000000005</ele>
        <time>2025-05-12T12:00:01Z</time>
      </trkpt>
      <trkpt lat="37.04256696626544" lon="-2.752994019538164">
        <ele>961.46000000000004</ele>
        <time>2025-05-12T12:00:02Z</time>
      </trkpt>
      <trkpt lat="37.042468981817365" lon="-2.752916989848018">
        <ele>961.94000000000005</ele>
        <time>2025-05-12T12:00:03Z</time>
      </trkpt>
      <trkpt lat="37.04209104180336" lon="-2.752617001533508">
        <ele>964.82000000000005</ele>
        <time>2025-05-12T12:00:07Z</time>
      </trkpt>
      <trkpt lat="37.042019041255116" lon="-2.752535026520491">
        <ele>965.77999999999997</ele>
        <time>2025-05-12T12:00:08Z</time>
      </trkpt>
      <trkpt lat="37.041889959946275" lon="-2.75236101821065">
        <ele>967.70000000000005</ele>
        <time>2025-05-12T12:00:10Z</time>
      </trkpt>
      <trkpt lat="37.041807984933257" lon="-2.752290023490787">
        <ele>968.17999999999995</ele>
        <time>2025-05-12T12:00:11Z</time>
      </trkpt>
      <trkpt lat="37.041730033233762" lon="-2.752222968265414">
        <ele>968.66999999999996</ele>
        <time>2025-05-12T12:00:12Z</time>
      </trkpt>
      <trkpt lat="37.041659960523248" lon="-2.752163037657738">
        <ele>969.14999999999998</ele>
        <time>2025-05-12T12:00:13Z</time>
      </trkpt>
      <trkpt lat="37.041600029915571" lon="-2.752101011574268">
        <ele>969.63</ele>
        <time>2025-05-12T12:00:14Z</time>
      </trkpt>
      <trkpt lat="37.041571028530598" lon="-2.752028005197644">
        <ele>969.63</ele>
        <time>2025-05-12T12:00:15Z</time>
      </trkpt>
      <trkpt lat="37.041556024923921" lon="-2.751946030184627">
        <ele>970.11000000000001</ele>
        <time>2025-05-12T12:00:16Z</time>
      </trkpt>
      <trkpt lat="37.041544038802385" lon="-2.751850979402661">
        <ele>971.07000000000005</ele>
        <time>2025-05-12T12:00:17Z</time>
      </trkpt>
      <trkpt lat="37.041531968861818" lon="-2.751758024096489">
        <ele>971.54999999999995</ele>
        <time>2025-05-12T12:00:18Z</time>
      </trkpt>
      <trkpt lat="37.041519982740283" lon="-2.751664984971285">
        <ele>971.54999999999995</ele>
        <time>2025-05-12T12:00:19Z</time>
      </trkpt>
      <trkpt lat="37.041474971920252" lon="-2.751339012756944">
        <ele>969.63</ele>
        <time>2025-05-12T12:00:25Z</time>
      </trkpt>
      <trkpt lat="37.041420992463827" lon="-2.751241028308868">
        <ele>968.17999999999995</ele>
        <time>2025-05-12T12:00:27Z</time>
      </trkpt>
      <trkpt lat="37.041269028559327" lon="-2.750986972823739">
        <ele>966.74000000000001</ele>
        <time>2025-05-12T12:00:31Z</time>
      </trkpt>
      <trkpt lat="37.040874995291233" lon="-2.750391019508243">
        <ele>964.82000000000005</ele>
        <time>2025-05-12T12:00:40Z</time>
      </trkpt>
      <trkpt lat="37.040834007784724" lon="-2.750327987596393">
        <ele>964.34000000000003</ele>
        <time>2025-05-12T12:00:41Z</time>
      </trkpt>
      <trkpt lat="37.04050300642848" lon="-2.749771010130644">
        <ele>958.09000000000003</ele>
        <time>2025-05-12T12:00:50Z</time>
      </trkpt>
      <trkpt lat="37.040443997830153" lon="-2.749646035954356">
        <ele>957.61000000000001</ele>
        <time>2025-05-12T12:00:52Z</time>
      </trkpt>
      <trkpt lat="37.040412984788418" lon="-2.749581998214126">
        <ele>956.64999999999998</ele>
        <time>2025-05-12T12:00:53Z</time>
      </trkpt>
      <trkpt lat="37.040289016440511" lon="-2.749426010996103">
        <ele>955.69000000000005</ele>
        <time>2025-05-12T12:00:56Z</time>
      </trkpt>
      <trkpt lat="37.040187008678913" lon="-2.749241022393107">
        <ele>954.73000000000002</ele>
        <time>2025-05-12T12:00:59Z</time>
      </trkpt>
      <trkpt lat="37.039976958185434" lon="-2.748448010534048">
        <ele>955.21000000000004</ele>
        <time>2025-05-12T12:01:11Z</time>
      </trkpt>
      <trkpt lat="37.039942005649209" lon="-2.748114997521043">
        <ele>957.13</ele>
        <time>2025-05-12T12:01:16Z</time>
      </trkpt>
      <trkpt lat="37.039933959022164" lon="-2.748040985316038">
        <ele>957.61000000000001</ele>
        <time>2025-05-12T12:01:17Z</time>
      </trkpt>
      <trkpt lat="37.039884002879262" lon="-2.747924979776144">
        <ele>957.61000000000001</ele>
        <time>2025-05-12T12:01:19Z</time>
      </trkpt>
      <trkpt lat="37.039861036464572" lon="-2.747873011976481">
        <ele>957.61000000000001</ele>
        <time>2025-05-12T12:01:20Z</time>
      </trkpt>
      <trkpt lat="37.039835974574089" lon="-2.747815009206533">
        <ele>958.09000000000003</ele>
        <time>2025-05-12T12:01:21Z</time>
      </trkpt>
      <trkpt lat="37.039796998724341" lon="-2.747734962031245">
        <ele>957.61000000000001</ele>
        <time>2025-05-12T12:01:22Z</time>
      </trkpt>
      <trkpt lat="37.039742013439536" lon="-2.747693974524736">
        <ele>957.61000000000001</ele>
        <time>2025-05-12T12:01:23Z</time>
      </trkpt>
      <trkpt lat="37.039684010669589" lon="-2.747649969533086">
        <ele>958.09000000000003</ele>
        <time>2025-05-12T12:01:24Z</time>
      </trkpt>
      <trkpt lat="37.039623996242881" lon="-2.747606970369816">
        <ele>958.09000000000003</ele>
        <time>2025-05-12T12:01:25Z</time>
      </trkpt>
      <trkpt lat="37.039568005129695" lon="-2.747576963156462">
        <ele>958.09000000000003</ele>
        <time>2025-05-12T12:01:26Z</time>
      </trkpt>
      <trkpt lat="37.03951402567327" lon="-2.747548967599869">
        <ele>958.09000000000003</ele>
        <time>2025-05-12T12:01:27Z</time>
      </trkpt>
      <trkpt lat="37.039358960464597" lon="-2.747465986758471">
        <ele>958.57000000000005</ele>
        <time>2025-05-12T12:01:30Z</time>
      </trkpt>
      <trkpt lat="37.039309004321694" lon="-2.747438997030258">
        <ele>958.57000000000005</ele>
        <time>2025-05-12T12:01:31Z</time>
      </trkpt>
      <trkpt lat="37.039260976016521" lon="-2.747405972331762">
        <ele>959.04999999999995</ele>
        <time>2025-05-12T12:01:32Z</time>
      </trkpt>
      <trkpt lat="37.039217976853251" lon="-2.747375965118408">
        <ele>959.04999999999995</ele>
        <time>2025-05-12T12:01:33Z</time>
      </trkpt>
      <trkpt lat="37.039175983518362" lon="-2.747347969561815">
        <ele>959.04999999999995</ele>
        <time>2025-05-12T12:01:34Z</time>
      </trkpt>
      <trkpt lat="37.039133990183473" lon="-2.747317962348461">
        <ele>959.04999999999995</ele>
        <time>2025-05-12T12:01:35Z</time>
      </trkpt>
      <trkpt lat="37.03904396854341" lon="-2.747257025912404">
        <ele>959.04999999999995</ele>
        <time>2025-05-12T12:01:37Z</time>
      </trkpt>
      <trkpt lat="37.038955958560109" lon="-2.747187037020922">
        <ele>959.04999999999995</ele>
        <time>2025-05-12T12:01:39Z</time>
      </trkpt>
      <trkpt lat="37.038923017680645" lon="-2.747136997058988">
        <ele>958.57000000000005</ele>
        <time>2025-05-12T12:01:40Z</time>
      </trkpt>
      <trkpt lat="37.03889200463891" lon="-2.747090980410576">
        <ele>958.57000000000005</ele>
        <time>2025-05-12T12:01:41Z</time>
      </trkpt>
      <trkpt lat="37.038882030174136" lon="-2.747075976803899">
        <ele>958.09000000000003</ele>
        <time>2025-05-12T12:01:42Z</time>
      </trkpt>
      <trkpt lat="37.038860991597176" lon="-2.747011017054319">
        <ele>958.09000000000003</ele>
        <time>2025-05-12T12:01:43Z</time>
      </trkpt>
      <trkpt lat="37.038841964676976" lon="-2.746954020112753">
        <ele>957.61000000000001</ele>
        <time>2025-05-12T12:01:44Z</time>
      </trkpt>
      <trkpt lat="37.038823021575809" lon="-2.746897023171186">
        <ele>957.61000000000001</ele>
        <time>2025-05-12T12:01:45Z</time>
      </trkpt>
      <trkpt lat="37.038791002705693" lon="-2.746833991259337">
        <ele>957.61000000000001</ele>
        <time>2025-05-12T12:01:46Z</time>
      </trkpt>
      <trkpt lat="37.038756972178817" lon="-2.746772971004248">
        <ele>957.61000000000001</ele>
        <time>2025-05-12T12:01:47Z</time>
      </trkpt>
      <trkpt lat="37.038724031299353" lon="-2.74671102873981">
        <ele>957.13</ele>
        <time>2025-05-12T12:01:48Z</time>
      </trkpt>
      <trkpt lat="37.038691006600857" lon="-2.746652020141482">
        <ele>957.13</ele>
        <time>2025-05-12T12:01:49Z</time>
      </trkpt>
      <trkpt lat="37.038558991625905" lon="-2.746356977149844">
        <ele>955.21000000000004</ele>
        <time>2025-05-12T12:01:55Z</time>
      </trkpt>
      <trkpt lat="37.038545999675989" lon="-2.74628103710711">
        <ele>954.73000000000002</ele>
        <time>2025-05-12T12:01:56Z</time>
      </trkpt>
      <trkpt lat="37.03852797858417" lon="-2.746206019073725">
        <ele>954.73000000000002</ele>
        <time>2025-05-12T12:01:57Z</time>
      </trkpt>
      <trkpt lat="37.038478022441268" lon="-2.746054977178574">
        <ele>953.76999999999998</ele>
        <time>2025-05-12T12:01:59Z</time>
      </trkpt>
      <trkpt lat="37.038456983864307" lon="-2.745996974408627">
        <ele>953.27999999999997</ele>
        <time>2025-05-12T12:02:00Z</time>
      </trkpt>
      <trkpt lat="37.038437034934759" lon="-2.745941989123821">
        <ele>952.79999999999995</ele>
        <time>2025-05-12T12:02:01Z</time>
      </trkpt>
      <trkpt lat="37.038389006629586" lon="-2.74580997414887">
        <ele>951.84000000000003</ele>
        <time>2025-05-12T12:02:03Z</time>
      </trkpt>
      <trkpt lat="37.038382971659303" lon="-2.74574501439929">
        <ele>951.84000000000003</ele>
        <time>2025-05-12T12:02:04Z</time>
      </trkpt>
      <trkpt lat="37.038378026336432" lon="-2.745690029114485">
        <ele>951.84000000000003</ele>
        <time>2025-05-12T12:02:05Z</time>
      </trkpt>
      <trkpt lat="37.03837500885129" lon="-2.745653986930847">
        <ele>952.32000000000005</ele>
        <time>2025-05-12T12:02:06Z</time>
      </trkpt>
      <trkpt lat="37.038366962224245" lon="-2.745574023574591">
        <ele>953.27999999999997</ele>
        <time>2025-05-12T12:02:07Z</time>
      </trkpt>
      <trkpt lat="37.038367968052626" lon="-2.745563965290785">
        <ele>953.76999999999998</ele>
        <time>2025-05-12T12:02:08Z</time>
      </trkpt>
      <trkpt lat="37.038371991366148" lon="-2.745524989441037">
        <ele>954.25</ele>
        <time>2025-05-12T12:02:09Z</time>
      </trkpt>
      <trkpt lat="37.038377020508051" lon="-2.745478972792625">
        <ele>953.76999999999998</ele>
        <time>2025-05-12T12:02:10Z</time>
      </trkpt>
      <trkpt lat="37.038380960002542" lon="-2.745431028306484">
        <ele>953.27999999999997</ele>
        <time>2025-05-12T12:02:11Z</time>
      </trkpt>
      <trkpt lat="37.038384983316064" lon="-2.745390962809324">
        <ele>952.32000000000005</ele>
        <time>2025-05-12T12:02:12Z</time>
      </trkpt>
      <trkpt lat="37.038389006629586" lon="-2.745359027758241">
        <ele>951.84000000000003</ele>
        <time>2025-05-12T12:02:13Z</time>
      </trkpt>
      <trkpt lat="37.038389006629586" lon="-2.745359027758241">
        <ele>950.88</ele>
        <time>2025-05-12T12:02:14Z</time>
      </trkpt>
      <trkpt lat="37.038378026336432" lon="-2.745349975302815">
        <ele>949.91999999999996</ele>
        <time>2025-05-12T12:02:15Z</time>
      </trkpt>
      <trkpt lat="37.038356987759471" lon="-2.745333965867758">
        <ele>948.96000000000004</ele>
        <time>2025-05-12T12:02:16Z</time>
      </trkpt>
      <trkpt lat="37.038329998031259" lon="-2.745312005281448">
        <ele>948</ele>
        <time>2025-05-12T12:02:17Z</time>
      </trkpt>
      <trkpt lat="37.038307031616569" lon="-2.74529398418963">
        <ele>947.03999999999996</ele>
        <time>2025-05-12T12:02:18Z</time>
      </trkpt>
      <trkpt lat="37.038288004696369" lon="-2.745277974754572">
        <ele>946.07000000000005</ele>
        <time>2025-05-12T12:02:19Z</time>
      </trkpt>
      <trkpt lat="37.038262020796537" lon="-2.745240004733205">
        <ele>945.59000000000003</ele>
        <time>2025-05-12T12:02:20Z</time>
      </trkpt>
      <trkpt lat="37.03824701718986" lon="-2.745217038318515">
        <ele>945.11000000000001</ele>
        <time>2025-05-12T12:02:21Z</time>
      </trkpt>
      <trkpt lat="37.038236958906054" lon="-2.745199017226696">
        <ele>944.14999999999998</ele>
        <time>2025-05-12T12:02:22Z</time>
      </trkpt>
      <trkpt lat="37.038222039118409" lon="-2.745173033326864">
        <ele>943.66999999999996</ele>
        <time>2025-05-12T12:02:23Z</time>
      </trkpt>
      <trkpt lat="37.038205023854971" lon="-2.74514595977962">
        <ele>942.71000000000004</ele>
        <time>2025-05-12T12:02:24Z</time>
      </trkpt>
      <trkpt lat="37.038179961964488" lon="-2.74510296061635">
        <ele>942.71000000000004</ele>
        <time>2025-05-12T12:02:25Z</time>
      </trkpt>
      <trkpt lat="37.038153978064656" lon="-2.745060967281461">
        <ele>941.75</ele>
        <time>2025-05-12T12:02:26Z</time>
      </trkpt>
      <trkpt lat="37.038152972236276" lon="-2.745059039443731">
        <ele>940.78999999999996</ele>
        <time>2025-05-12T12:02:27Z</time>
      </trkpt>
      <trkpt lat="37.038108967244625" lon="-2.744966000318527">
        <ele>940.30999999999995</ele>
        <time>2025-05-12T12:02:28Z</time>
      </trkpt>
      <trkpt lat="37.038045013323426" lon="-2.744947979226708">
        <ele>940.30999999999995</ele>
        <time>2025-05-12T12:02:29Z</time>
      </trkpt>
      <trkpt lat="37.037992039695382" lon="-2.744932975620031">
        <ele>940.30999999999995</ele>
        <time>2025-05-12T12:02:30Z</time>
      </trkpt>
      <trkpt lat="37.037895983085036" lon="-2.744921995326877">
        <ele>939.83000000000004</ele>
        <time>2025-05-12T12:02:32Z</time>
      </trkpt>
      <trkpt lat="37.037854995578527" lon="-2.744904980063438">
        <ele>939.35000000000002</ele>
        <time>2025-05-12T12:02:33Z</time>
      </trkpt>
      <trkpt lat="37.037808978930116" lon="-2.74488695897162">
        <ele>938.86000000000001</ele>
        <time>2025-05-12T12:02:34Z</time>
      </trkpt>
      <trkpt lat="37.03777302056551" lon="-2.744862986728549">
        <ele>938.38</ele>
        <time>2025-05-12T12:02:35Z</time>
      </trkpt>
      <trkpt lat="37.03773102723062" lon="-2.744834991171956">
        <ele>937.89999999999998</ele>
        <time>2025-05-12T12:02:36Z</time>
      </trkpt>
      <trkpt lat="37.037680987268686" lon="-2.74480096064508">
        <ele>937.41999999999996</ele>
        <time>2025-05-12T12:02:37Z</time>
      </trkpt>
      <trkpt lat="37.037647040560842" lon="-2.744768019765616">
        <ele>937.41999999999996</ele>
        <time>2025-05-12T12:02:38Z</time>
      </trkpt>
      <trkpt lat="37.037609992548823" lon="-2.744729965925217">
        <ele>936.94000000000005</ele>
        <time>2025-05-12T12:02:39Z</time>
      </trkpt>
      <trkpt lat="37.037574034184217" lon="-2.744695013388991">
        <ele>936.94000000000005</ele>
        <time>2025-05-12T12:02:40Z</time>
      </trkpt>
      <trkpt lat="37.037541009485722" lon="-2.744660982862115">
        <ele>936.94000000000005</ele>
        <time>2025-05-12T12:02:41Z</time>
      </trkpt>
      <trkpt lat="37.037474038079381" lon="-2.744568027555943">
        <ele>937.41999999999996</ele>
        <time>2025-05-12T12:02:43Z</time>
      </trkpt>
      <trkpt lat="37.037445036694407" lon="-2.744517987594008">
        <ele>937.41999999999996</ele>
        <time>2025-05-12T12:02:44Z</time>
      </trkpt>
      <trkpt lat="37.037422992289066" lon="-2.744479011744261">
        <ele>937.89999999999998</ele>
        <time>2025-05-12T12:02:45Z</time>
      </trkpt>
      <trkpt lat="37.037286031991243" lon="-2.744320007041097">
        <ele>937.89999999999998</ele>
        <time>2025-05-12T12:02:48Z</time>
      </trkpt>
      <trkpt lat="37.037250995635986" lon="-2.74424297735095">
        <ele>937.89999999999998</ele>
        <time>2025-05-12T12:02:49Z</time>
      </trkpt>
      <trkpt lat="37.03723800368607" lon="-2.744183968752623">
        <ele>937.89999999999998</ele>
        <time>2025-05-12T12:02:50Z</time>
      </trkpt>
      <trkpt lat="37.037224005907774" lon="-2.744125965982676">
        <ele>938.38</ele>
        <time>2025-05-12T12:02:51Z</time>
      </trkpt>
      <trkpt lat="37.037212019786239" lon="-2.74407098069787">
        <ele>938.86000000000001</ele>
        <time>2025-05-12T12:02:52Z</time>
      </trkpt>
      <trkpt lat="37.037198022007942" lon="-2.744009038433433">
        <ele>939.83000000000004</ele>
        <time>2025-05-12T12:02:53Z</time>
      </trkpt>
      <trkpt lat="37.037187041714787" lon="-2.743964027613401">
        <ele>940.78999999999996</ele>
        <time>2025-05-12T12:02:54Z</time>
      </trkpt>
      <trkpt lat="37.037156028673053" lon="-2.743908958509564">
        <ele>941.26999999999998</ele>
        <time>2025-05-12T12:02:55Z</time>
      </trkpt>
      <trkpt lat="37.037120992317796" lon="-2.743846010416746">
        <ele>942.23000000000002</ele>
        <time>2025-05-12T12:02:56Z</time>
      </trkpt>
      <trkpt lat="37.036869032308459" lon="-2.743447031825781">
        <ele>951.84000000000003</ele>
        <time>2025-05-12T12:03:03Z</time>
      </trkpt>
      <trkpt lat="37.036836007609963" lon="-2.743396991863847">
        <ele>952.32000000000005</ele>
        <time>2025-05-12T12:03:04Z</time>
      </trkpt>
      <trkpt lat="37.036800971254706" lon="-2.743342006579042">
        <ele>952.79999999999995</ele>
        <time>2025-05-12T12:03:05Z</time>
      </trkpt>
      <trkpt lat="37.036761995404959" lon="-2.743331026285887">
        <ele>953.76999999999998</ele>
        <time>2025-05-12T12:03:06Z</time>
      </trkpt>
      <trkpt lat="37.036697035655379" lon="-2.743311999365687">
        <ele>954.73000000000002</ele>
        <time>2025-05-12T12:03:07Z</time>
      </trkpt>
      <trkpt lat="37.035921039059758" lon="-2.743148971349001">
        <ele>957.61000000000001</ele>
        <time>2025-05-12T12:03:16Z</time>
      </trkpt>
      <trkpt lat="37.035826994106174" lon="-2.743163974955678">
        <ele>957.61000000000001</ele>
        <time>2025-05-12T12:03:17Z</time>
      </trkpt>
      <trkpt lat="37.035557013005018" lon="-2.743178978562355">
        <ele>958.09000000000003</ele>
        <time>2025-05-12T12:03:20Z</time>
      </trkpt>
      <trkpt lat="37.035135990008712" lon="-2.743164980784059">
        <ele>958.09000000000003</ele>
        <time>2025-05-12T12:03:25Z</time>
      </trkpt>
      <trkpt lat="37.035056026652455" lon="-2.743173027411103">
        <ele>958.09000000000003</ele>
        <time>2025-05-12T12:03:26Z</time>
      </trkpt>
      <trkpt lat="37.034982014447451" lon="-2.743180990219116">
        <ele>957.61000000000001</ele>
        <time>2025-05-12T12:03:27Z</time>
      </trkpt>
      <trkpt lat="37.034909008070827" lon="-2.74318803101778">
        <ele>957.61000000000001</ele>
        <time>2025-05-12T12:03:28Z</time>
      </trkpt>
      <trkpt lat="37.034841030836105" lon="-2.743183001875877">
        <ele>958.09000000000003</ele>
        <time>2025-05-12T12:03:29Z</time>
      </trkpt>
      <trkpt lat="37.034777998924255" lon="-2.743163974955678">
        <ele>958.57000000000005</ele>
        <time>2025-05-12T12:03:30Z</time>
      </trkpt>
      <trkpt lat="37.034722007811069" lon="-2.74314796552062">
        <ele>958.09000000000003</ele>
        <time>2025-05-12T12:03:31Z</time>
      </trkpt>
      <trkpt lat="37.034360999241471" lon="-2.742948979139328">
        <ele>962.89999999999998</ele>
        <time>2025-05-12T12:03:39Z</time>
      </trkpt>
      <trkpt lat="37.034313976764679" lon="-2.742935987189412">
        <ele>963.38</ele>
        <time>2025-05-12T12:03:40Z</time>
      </trkpt>
      <trkpt lat="37.034267960116267" lon="-2.742924001067877">
        <ele>964.34000000000003</ele>
        <time>2025-05-12T12:03:45Z</time>
      </trkpt>
      <trkpt lat="37.034182967618108" lon="-2.742891982197762">
        <ele>964.82000000000005</ele>
        <time>2025-05-12T12:03:47Z</time>
      </trkpt>
      <trkpt lat="37.034096969291568" lon="-2.742847977206111">
        <ele>965.29999999999995</ele>
        <time>2025-05-12T12:03:48Z</time>
      </trkpt>
      <trkpt lat="37.03407702036202" lon="-2.742821993306279">
        <ele>965.29999999999995</ele>
        <time>2025-05-12T12:03:49Z</time>
      </trkpt>
      <trkpt lat="37.033611992374063" lon="-2.742279013618827">
        <ele>965.29999999999995</ele>
        <time>2025-05-12T12:03:55Z</time>
      </trkpt>
      <trkpt lat="37.033513002097607" lon="-2.742191003635526">
        <ele>965.29999999999995</ele>
        <time>2025-05-12T12:03:56Z</time>
      </trkpt>
      <trkpt lat="37.033157022669911" lon="-2.741872994229198">
        <ele>964.82000000000005</ele>
        <time>2025-05-12T12:03:59Z</time>
      </trkpt>
      <trkpt lat="37.033024001866579" lon="-2.741753971204162">
        <ele>964.82000000000005</ele>
        <time>2025-05-12T12:04:00Z</time>
      </trkpt>
      <trkpt lat="37.032945966348052" lon="-2.741596978157759">
        <ele>964.34000000000003</ele>
        <time>2025-05-12T12:04:01Z</time>
      </trkpt>
      <trkpt lat="37.032856028527021" lon="-2.741418024525046">
        <ele>964.34000000000003</ele>
        <time>2025-05-12T12:04:02Z</time>
      </trkpt>
      <trkpt lat="37.032762989401817" lon="-2.74123203009367">
        <ele>963.86000000000001</ele>
        <time>2025-05-12T12:04:03Z</time>
      </trkpt>
      <trkpt lat="37.032353030517697" lon="-2.740476988255978">
        <ele>960.98000000000002</ele>
        <time>2025-05-12T12:04:07Z</time>
      </trkpt>
      <trkpt lat="37.031645011156797" lon="-2.739591021090746">
        <ele>953.76999999999998</ele>
        <time>2025-05-12T12:04:13Z</time>
      </trkpt>
      <trkpt lat="37.03066298738122" lon="-2.73893304169178">
        <ele>944.63</ele>
        <time>2025-05-12T12:04:20Z</time>
      </trkpt>
      <trkpt lat="37.029934013262391" lon="-2.738514030352235">
        <ele>940.78999999999996</ele>
        <time>2025-05-12T12:04:25Z</time>
      </trkpt>
      <trkpt lat="37.029834017157555" lon="-2.738413028419018">
        <ele>940.30999999999995</ele>
        <time>2025-05-12T12:04:26Z</time>
      </trkpt>
      <trkpt lat="37.029723962768912" lon="-2.738294005393982">
        <ele>939.35000000000002</ele>
        <time>2025-05-12T12:04:27Z</time>
      </trkpt>
      <trkpt lat="37.029062965884805" lon="-2.73738699965179">
        <ele>933.10000000000002</ele>
        <time>2025-05-12T12:04:33Z</time>
      </trkpt>
      <trkpt lat="37.028923993930221" lon="-2.737306030467153">
        <ele>932.13999999999999</ele>
        <time>2025-05-12T12:04:34Z</time>
      </trkpt>
      <trkpt lat="37.028767000883818" lon="-2.737268982455134">
        <ele>931.64999999999998</ele>
        <time>2025-05-12T12:04:35Z</time>
      </trkpt>
      <trkpt lat="37.028603972867131" lon="-2.737268982455134">
        <ele>930.69000000000005</ele>
        <time>2025-05-12T12:04:36Z</time>
      </trkpt>
      <trkpt lat="37.028440022841096" lon="-2.737268982455134">
        <ele>928.76999999999998</ele>
        <time>2025-05-12T12:04:37Z</time>
      </trkpt>
      <trkpt lat="37.02778397127986" lon="-2.737293038517237">
        <ele>923</ele>
        <time>2025-05-12T12:04:41Z</time>
      </trkpt>
      <trkpt lat="37.027622032910585" lon="-2.737322961911559">
        <ele>921.55999999999995</ele>
        <time>2025-05-12T12:04:42Z</time>
      </trkpt>
      <trkpt lat="37.027154993265867" lon="-2.737456988543272">
        <ele>917.72000000000003</ele>
        <time>2025-05-12T12:04:45Z</time>
      </trkpt>
      <trkpt lat="37.027000011876225" lon="-2.73747400380671">
        <ele>916.75</ele>
        <time>2025-05-12T12:04:46Z</time>
      </trkpt>
      <trkpt lat="37.026841007173061" lon="-2.737447014078498">
        <ele>915.78999999999996</ele>
        <time>2025-05-12T12:04:47Z</time>
      </trkpt>
      <trkpt lat="37.026372961699963" lon="-2.7373450063169">
        <ele>912.42999999999995</ele>
        <time>2025-05-12T12:04:50Z</time>
      </trkpt>
      <trkpt lat="37.026222003623843" lon="-2.737268982455134">
        <ele>911.47000000000003</ele>
        <time>2025-05-12T12:04:51Z</time>
      </trkpt>
      <trkpt lat="37.026103986427188" lon="-2.737165968865156">
        <ele>910.50999999999999</ele>
        <time>2025-05-12T12:04:52Z</time>
      </trkpt>
      <trkpt lat="37.025989992544055" lon="-2.737028002738953">
        <ele>909.05999999999995</ele>
        <time>2025-05-12T12:04:53Z</time>
      </trkpt>
      <trkpt lat="37.025891002267599" lon="-2.736880984157324">
        <ele>908.10000000000002</ele>
        <time>2025-05-12T12:04:54Z</time>
      </trkpt>
      <trkpt lat="37.0257200114429" lon="-2.736623995006084">
        <ele>906.17999999999995</ele>
        <time>2025-05-12T12:04:56Z</time>
      </trkpt>
      <trkpt lat="37.025707019492984" lon="-2.736492985859513">
        <ele>905.22000000000003</ele>
        <time>2025-05-12T12:04:57Z</time>
      </trkpt>
      <trkpt lat="37.025739960372448" lon="-2.7363589592278">
        <ele>904.74000000000001</ele>
        <time>2025-05-12T12:04:58Z</time>
      </trkpt>
      <trkpt lat="37.025956967845559" lon="-2.735720006749034">
        <ele>903.77999999999997</ele>
        <time>2025-05-12T12:05:02Z</time>
      </trkpt>
      <trkpt lat="37.026051012799144" lon="-2.735553039237857">
        <ele>903.29999999999995</ele>
        <time>2025-05-12T12:05:03Z</time>
      </trkpt>
      <trkpt lat="37.026152014732361" lon="-2.735434016212821">
        <ele>902.33000000000004</ele>
        <time>2025-05-12T12:05:04Z</time>
      </trkpt>
      <trkpt lat="37.026397017762065" lon="-2.735150037333369">
        <ele>900.88999999999999</ele>
        <time>2025-05-12T12:05:06Z</time>
      </trkpt>
      <trkpt lat="37.02664696611464" lon="-2.734859017655253">
        <ele>899.45000000000005</ele>
        <time>2025-05-12T12:05:08Z</time>
      </trkpt>
      <trkpt lat="37.026768000796437" lon="-2.734718034043908">
        <ele>898.49000000000001</ele>
        <time>2025-05-12T12:05:09Z</time>
      </trkpt>
      <trkpt lat="37.026970004662871" lon="-2.734484011307359">
        <ele>896.57000000000005</ele>
        <time>2025-05-12T12:05:11Z</time>
      </trkpt>
      <trkpt lat="37.026964975520968" lon="-2.734417961910367">
        <ele>895.12</ele>
        <time>2025-05-12T12:05:12Z</time>
      </trkpt>
      <trkpt lat="37.026951983571053" lon="-2.734307991340756">
        <ele>893.67999999999995</ele>
        <time>2025-05-12T12:05:13Z</time>
      </trkpt>
      <trkpt lat="37.026914013549685" lon="-2.734264992177486">
        <ele>892.72000000000003</ele>
        <time>2025-05-12T12:05:14Z</time>
      </trkpt>
      <trkpt lat="37.026841007173061" lon="-2.734182011336088">
        <ele>891.75999999999999</ele>
        <time>2025-05-12T12:05:15Z</time>
      </trkpt>
      <trkpt lat="37.026743022724986" lon="-2.734115039929748">
        <ele>891.27999999999997</ele>
        <time>2025-05-12T12:05:16Z</time>
      </trkpt>
      <trkpt lat="37.026594998314977" lon="-2.734077991917729">
        <ele>890.79999999999995</ele>
        <time>2025-05-12T12:05:17Z</time>
      </trkpt>
      <trkpt lat="37.026436999440193" lon="-2.734103975817561">
        <ele>890.32000000000005</ele>
        <time>2025-05-12T12:05:18Z</time>
      </trkpt>
      <trkpt lat="37.026273971423507" lon="-2.734135994687676">
        <ele>889.36000000000001</ele>
        <time>2025-05-12T12:05:19Z</time>
      </trkpt>
      <trkpt lat="37.026112033054233" lon="-2.734170025214553">
        <ele>888.88</ele>
        <time>2025-05-12T12:05:20Z</time>
      </trkpt>
      <trkpt lat="37.02595897950232" lon="-2.734199026599526">
        <ele>887.42999999999995</ele>
        <time>2025-05-12T12:05:21Z</time>
      </trkpt>
      <trkpt lat="37.025826964527369" lon="-2.734148986637592">
        <ele>886.47000000000003</ele>
        <time>2025-05-12T12:05:22Z</time>
      </trkpt>
      <trkpt lat="37.025724034756422" lon="-2.73405603133142">
        <ele>885.50999999999999</ele>
        <time>2025-05-12T12:05:23Z</time>
      </trkpt>
      <trkpt lat="37.025629989802837" lon="-2.733924016356468">
        <ele>884.54999999999995</ele>
        <time>2025-05-12T12:05:24Z</time>
      </trkpt>
      <trkpt lat="37.025538040325046" lon="-2.73375503718853">
        <ele>883.11000000000001</ele>
        <time>2025-05-12T12:05:25Z</time>
      </trkpt>
      <trkpt lat="37.02479800209403" lon="-2.732640998438001">
        <ele>870.61000000000001</ele>
        <time>2025-05-12T12:05:31Z</time>
      </trkpt>
      <trkpt lat="37.024651989340782" lon="-2.732489034533501">
        <ele>868.69000000000005</ele>
        <time>2025-05-12T12:05:32Z</time>
      </trkpt>
      <trkpt lat="37.024515029042959" lon="-2.732346039265394">
        <ele>866.28999999999996</ele>
        <time>2025-05-12T12:05:33Z</time>
      </trkpt>
      <trkpt lat="37.024408997967839" lon="-2.732205977663398">
        <ele>863.88</ele>
        <time>2025-05-12T12:05:34Z</time>
      </trkpt>
      <trkpt lat="37.024342026561499" lon="-2.732072034850717">
        <ele>861.96000000000004</ele>
        <time>2025-05-12T12:05:35Z</time>
      </trkpt>
      <trkpt lat="37.024321993812919" lon="-2.731929961591959">
        <ele>861</ele>
        <time>2025-05-12T12:05:36Z</time>
      </trkpt>
      <trkpt lat="37.024359963834286" lon="-2.731768023222685">
        <ele>859.55999999999995</ele>
        <time>2025-05-12T12:05:37Z</time>
      </trkpt>
      <trkpt lat="37.024403968825936" lon="-2.731585968285799">
        <ele>858.59000000000003</ele>
        <time>2025-05-12T12:05:38Z</time>
      </trkpt>
      <trkpt lat="37.024419978260994" lon="-2.731396034359932">
        <ele>857.14999999999998</ele>
        <time>2025-05-12T12:05:39Z</time>
      </trkpt>
      <trkpt lat="37.024416038766503" lon="-2.731205010786653">
        <ele>855.71000000000004</ele>
        <time>2025-05-12T12:05:40Z</time>
      </trkpt>
      <trkpt lat="37.024364992976189" lon="-2.731018010526896">
        <ele>854.26999999999998</ele>
        <time>2025-05-12T12:05:41Z</time>
      </trkpt>
      <trkpt lat="37.024277988821268" lon="-2.730851965025067">
        <ele>852.83000000000004</ele>
        <time>2025-05-12T12:05:42Z</time>
      </trkpt>
      <trkpt lat="37.024186961352825" lon="-2.730696983635426">
        <ele>851.87</ele>
        <time>2025-05-12T12:05:43Z</time>
      </trkpt>
      <trkpt lat="37.024103980511427" lon="-2.730558011680841">
        <ele>850.41999999999996</ele>
        <time>2025-05-12T12:05:44Z</time>
      </trkpt>
      <trkpt lat="37.024084031581879" lon="-2.730431025847793">
        <ele>848.98000000000002</ele>
        <time>2025-05-12T12:05:45Z</time>
      </trkpt>
      <trkpt lat="37.024096017703414" lon="-2.730318959802389">
        <ele>848.01999999999998</ele>
        <time>2025-05-12T12:05:46Z</time>
      </trkpt>
      <trkpt lat="37.024156032130122" lon="-2.730236984789372">
        <ele>846.58000000000004</ele>
        <time>2025-05-12T12:05:47Z</time>
      </trkpt>
      <trkpt lat="37.024249993264675" lon="-2.730201026424766">
        <ele>845.62</ele>
        <time>2025-05-12T12:05:48Z</time>
      </trkpt>
      <trkpt lat="37.024362981319427" lon="-2.730201026424766">
        <ele>844.65999999999997</ele>
        <time>2025-05-12T12:05:49Z</time>
      </trkpt>
      <trkpt lat="37.02449700795114" lon="-2.730258023366332">
        <ele>843.69000000000005</ele>
        <time>2025-05-12T12:05:50Z</time>
      </trkpt>
      <trkpt lat="37.024641009047627" lon="-2.73031996563077">
        <ele>843.21000000000004</ele>
        <time>2025-05-12T12:05:51Z</time>
      </trkpt>
      <trkpt lat="37.024781992658973" lon="-2.730379980057478">
        <ele>842.25</ele>
        <time>2025-05-12T12:05:52Z</time>
      </trkpt>
      <trkpt lat="37.024914007633924" lon="-2.730366988107562">
        <ele>841.76999999999998</ele>
        <time>2025-05-12T12:05:53Z</time>
      </trkpt>
      <trkpt lat="37.025006040930748" lon="-2.730324994772673">
        <ele>840.80999999999995</ele>
        <time>2025-05-12T12:05:54Z</time>
      </trkpt>
      <trkpt lat="37.025087010115385" lon="-2.730228016152978">
        <ele>839.85000000000002</ele>
        <time>2025-05-12T12:05:55Z</time>
      </trkpt>
      <trkpt lat="37.025158004835248" lon="-2.730085020884872">
        <ele>838.88999999999999</ele>
        <time>2025-05-12T12:05:56Z</time>
      </trkpt>
      <trkpt lat="37.025237968191504" lon="-2.729925010353327">
        <ele>837.92999999999995</ele>
        <time>2025-05-12T12:05:57Z</time>
      </trkpt>
      <trkpt lat="37.025326984003186" lon="-2.729769023135305">
        <ele>836.96000000000004</ele>
        <time>2025-05-12T12:05:58Z</time>
      </trkpt>
      <trkpt lat="37.025436032563448" lon="-2.729637008160353">
        <ele>835.51999999999998</ele>
        <time>2025-05-12T12:05:59Z</time>
      </trkpt>
      <trkpt lat="37.025535022839904" lon="-2.729516979306936">
        <ele>834.55999999999995</ele>
        <time>2025-05-12T12:06:00Z</time>
      </trkpt>
      <trkpt lat="37.025597970932722" lon="-2.729418994858861">
        <ele>833.12</ele>
        <time>2025-05-12T12:06:01Z</time>
      </trkpt>
      <trkpt lat="37.025585984811187" lon="-2.729326039552689">
        <ele>831.67999999999995</ele>
        <time>2025-05-12T12:06:02Z</time>
      </trkpt>
      <trkpt lat="37.025550026446581" lon="-2.729246998205781">
        <ele>830.72000000000003</ele>
        <time>2025-05-12T12:06:03Z</time>
      </trkpt>
      <trkpt lat="37.025452964007854" lon="-2.729235012084246">
        <ele>829.26999999999998</ele>
        <time>2025-05-12T12:06:04Z</time>
      </trkpt>
      <trkpt lat="37.025340981781483" lon="-2.729256972670555">
        <ele>828.30999999999995</ele>
        <time>2025-05-12T12:06:05Z</time>
      </trkpt>
      <trkpt lat="37.025217013433576" lon="-2.729339031502605">
        <ele>827.35000000000002</ele>
        <time>2025-05-12T12:06:06Z</time>
      </trkpt>
      <trkpt lat="37.025095978751779" lon="-2.729455037042499">
        <ele>826.38999999999999</ele>
        <time>2025-05-12T12:06:07Z</time>
      </trkpt>
      <trkpt lat="37.025011992082" lon="-2.729605995118618">
        <ele>824.95000000000005</ele>
        <time>2025-05-12T12:06:08Z</time>
      </trkpt>
      <trkpt lat="37.024932028725743" lon="-2.729746978729963">
        <ele>823.50999999999999</ele>
        <time>2025-05-12T12:06:09Z</time>
      </trkpt>
      <trkpt lat="37.024827003479004" lon="-2.72982400842011">
        <ele>822.54999999999995</ele>
        <time>2025-05-12T12:06:10Z</time>
      </trkpt>
      <trkpt lat="37.024722984060645" lon="-2.729828031733632">
        <ele>822.05999999999995</ele>
        <time>2025-05-12T12:06:11Z</time>
      </trkpt>
      <trkpt lat="37.024633968248963" lon="-2.729800958186388">
        <ele>821.58000000000004</ele>
        <time>2025-05-12T12:06:12Z</time>
      </trkpt>
      <trkpt lat="37.024590969085693" lon="-2.72973801009357">
        <ele>821.10000000000002</ele>
        <time>2025-05-12T12:06:13Z</time>
      </trkpt>
      <trkpt lat="37.024590969085693" lon="-2.729596020653844">
        <ele>820.62</ele>
        <time>2025-05-12T12:06:14Z</time>
      </trkpt>
      <trkpt lat="37.024630028754473" lon="-2.729482026770711">
        <ele>820.13999999999999</ele>
        <time>2025-05-12T12:06:15Z</time>
      </trkpt>
      <trkpt lat="37.024700017645955" lon="-2.729326039552689">
        <ele>819.65999999999997</ele>
        <time>2025-05-12T12:06:16Z</time>
      </trkpt>
      <trkpt lat="37.024779981002212" lon="-2.729151025414467">
        <ele>818.70000000000005</ele>
        <time>2025-05-12T12:06:17Z</time>
      </trkpt>
      <trkpt lat="37.025285996496677" lon="-2.728144023567438">
        <ele>814.37</ele>
        <time>2025-05-12T12:06:22Z</time>
      </trkpt>
      <trkpt lat="37.025322038680315" lon="-2.727921986952424">
        <ele>813.40999999999997</ele>
        <time>2025-05-12T12:06:23Z</time>
      </trkpt>
      <trkpt lat="37.025359002873302" lon="-2.727690981701016">
        <ele>811.97000000000003</ele>
        <time>2025-05-12T12:06:24Z</time>
      </trkpt>
      <trkpt lat="37.025452964007854" lon="-2.726767966523767">
        <ele>806.67999999999995</ele>
        <time>2025-05-12T12:06:29Z</time>
      </trkpt>
      <trkpt lat="37.025455981492996" lon="-2.726705018430948">
        <ele>802.84000000000003</ele>
        <time>2025-05-12T12:06:36Z</time>
      </trkpt>
      <trkpt lat="37.025455981492996" lon="-2.726705018430948">
        <ele>802.36000000000001</ele>
        <time>2025-05-12T12:07:14Z</time>
      </trkpt>
      <trkpt lat="37.025455981492996" lon="-2.726705018430948">
        <ele>801.88</ele>
        <time>2025-05-12T12:08:07Z</time>
      </trkpt>
      <trkpt lat="37.025455981492996" lon="-2.726705018430948">
        <ele>801.88</ele>
        <time>2025-05-12T12:08:34Z</time>
      </trkpt>
      <trkpt lat="37.02539898455143" lon="-2.726649027317762">
        <ele>822.05999999999995</ele>
        <time>2025-05-12T12:11:15Z</time>
      </trkpt>
      <trkpt lat="37.025466039776802" lon="-2.726727984845638">
        <ele>803.79999999999995</ele>
        <time>2025-05-12T12:11:53Z</time>
      </trkpt>
      <trkpt lat="37.025427985936403" lon="-2.726697977632284">
        <ele>810.52999999999997</ele>
        <time>2025-05-12T12:12:38Z</time>
      </trkpt>
      <trkpt lat="37.02546201646328" lon="-2.726705018430948">
        <ele>805.24000000000001</ele>
        <time>2025-05-12T12:13:22Z</time>
      </trkpt>
      <trkpt lat="37.025466039776802" lon="-2.726474013179541">
        <ele>805.72000000000003</ele>
        <time>2025-05-12T12:13:40Z</time>
      </trkpt>
      <trkpt lat="37.025489006191492" lon="-2.725989036262035">
        <ele>804.27999999999997</ele>
        <time>2025-05-12T12:13:44Z</time>
      </trkpt>
      <trkpt lat="37.025478025898337" lon="-2.725869007408619">
        <ele>803.79999999999995</ele>
        <time>2025-05-12T12:13:45Z</time>
      </trkpt>
      <trkpt lat="37.025448018684983" lon="-2.725744033232331">
        <ele>803.32000000000005</ele>
        <time>2025-05-12T12:13:46Z</time>
      </trkpt>
      <trkpt lat="37.025392027571797" lon="-2.725630961358547">
        <ele>802.84000000000003</ele>
        <time>2025-05-12T12:13:47Z</time>
      </trkpt>
      <trkpt lat="37.025322960689664" lon="-2.725519984960556">
        <ele>802.36000000000001</ele>
        <time>2025-05-12T12:13:48Z</time>
      </trkpt>
      <trkpt lat="37.025250038132071" lon="-2.725417977198958">
        <ele>802.36000000000001</ele>
        <time>2025-05-12T12:13:49Z</time>
      </trkpt>
      <trkpt lat="37.025164039805532" lon="-2.725324016064405">
        <ele>801.88</ele>
        <time>2025-05-12T12:13:50Z</time>
      </trkpt>
      <trkpt lat="37.025057002902031" lon="-2.72526802495122">
        <ele>801.88</ele>
        <time>2025-05-12T12:13:51Z</time>
      </trkpt>
      <trkpt lat="37.024693982675672" lon="-2.725074989721179">
        <ele>800.44000000000005</ele>
        <time>2025-05-12T12:13:54Z</time>
      </trkpt>
      <trkpt lat="37.024470018222928" lon="-2.724956972524524">
        <ele>799.47000000000003</ele>
        <time>2025-05-12T12:13:56Z</time>
      </trkpt>
      <trkpt lat="37.024370022118092" lon="-2.724915985018015">
        <ele>798.50999999999999</ele>
        <time>2025-05-12T12:13:57Z</time>
      </trkpt>
      <trkpt lat="37.024263991042972" lon="-2.724978011101484">
        <ele>797.54999999999995</ele>
        <time>2025-05-12T12:13:58Z</time>
      </trkpt>
      <trkpt lat="37.024177992716432" lon="-2.725055040791631">
        <ele>796.59000000000003</ele>
        <time>2025-05-12T12:13:59Z</time>
      </trkpt>
      <trkpt lat="37.02413197606802" lon="-2.72518303245306">
        <ele>795.63</ele>
        <time>2025-05-12T12:14:00Z</time>
      </trkpt>
      <trkpt lat="37.024081014096737" lon="-2.725326027721167">
        <ele>794.66999999999996</ele>
        <time>2025-05-12T12:14:01Z</time>
      </trkpt>
      <trkpt lat="37.024044971913099" lon="-2.72548696026206">
        <ele>793.71000000000004</ele>
        <time>2025-05-12T12:14:02Z</time>
      </trkpt>
      <trkpt lat="37.024012031033635" lon="-2.725639007985592">
        <ele>792.74000000000001</ele>
        <time>2025-05-12T12:14:03Z</time>
      </trkpt>
      <trkpt lat="37.024038014933467" lon="-2.725821984931827">
        <ele>791.29999999999995</ele>
        <time>2025-05-12T12:14:04Z</time>
      </trkpt>
      <trkpt lat="37.024062993004918" lon="-2.725994987413287">
        <ele>790.34000000000003</ele>
        <time>2025-05-12T12:14:05Z</time>
      </trkpt>
      <trkpt lat="37.024086965247989" lon="-2.726165978237987">
        <ele>789.38</ele>
        <time>2025-05-12T12:14:06Z</time>
      </trkpt>
      <trkpt lat="37.024134993553162" lon="-2.726287012919784">
        <ele>788.41999999999996</ele>
        <time>2025-05-12T12:14:07Z</time>
      </trkpt>
      <trkpt lat="37.024206994101405" lon="-2.726377034559846">
        <ele>787.46000000000004</ele>
        <time>2025-05-12T12:14:08Z</time>
      </trkpt>
      <trkpt lat="37.024270026013255" lon="-2.726454986259341">
        <ele>786.5</ele>
        <time>2025-05-12T12:14:09Z</time>
      </trkpt>
      <trkpt lat="37.024364992976189" lon="-2.726490022614598">
        <ele>786.01999999999998</ele>
        <time>2025-05-12T12:14:10Z</time>
      </trkpt>
      <trkpt lat="37.024478986859322" lon="-2.726533021777868">
        <ele>785.52999999999997</ele>
        <time>2025-05-12T12:14:11Z</time>
      </trkpt>
      <trkpt lat="37.024603961035609" lon="-2.726579960435629">
        <ele>785.04999999999995</ele>
        <time>2025-05-12T12:14:12Z</time>
      </trkpt>
      <trkpt lat="37.02473203651607" lon="-2.726627988740802">
        <ele>784.09000000000003</ele>
        <time>2025-05-12T12:14:13Z</time>
      </trkpt>
      <trkpt lat="37.024824991822243" lon="-2.726722033694387">
        <ele>783.61000000000001</ele>
        <time>2025-05-12T12:14:14Z</time>
      </trkpt>
      <trkpt lat="37.024885006248951" lon="-2.726833010092378">
        <ele>783.13</ele>
        <time>2025-05-12T12:14:15Z</time>
      </trkpt>
      <trkpt lat="37.024891041219234" lon="-2.726973993703723">
        <ele>782.16999999999996</ele>
        <time>2025-05-12T12:14:16Z</time>
      </trkpt>
      <trkpt lat="37.024834966287017" lon="-2.727091005071998">
        <ele>781.69000000000005</ele>
        <time>2025-05-12T12:14:17Z</time>
      </trkpt>
      <trkpt lat="37.024762965738773" lon="-2.727163005620241">
        <ele>780.73000000000002</ele>
        <time>2025-05-12T12:14:18Z</time>
      </trkpt>
      <trkpt lat="37.024620976299047" lon="-2.727179015055299">
        <ele>779.76999999999998</ele>
        <time>2025-05-12T12:14:19Z</time>
      </trkpt>
      <trkpt lat="37.024474963545799" lon="-2.727195024490356">
        <ele>778.80999999999995</ele>
        <time>2025-05-12T12:14:20Z</time>
      </trkpt>
      <trkpt lat="37.024315958842635" lon="-2.727220002561808">
        <ele>778.32000000000005</ele>
        <time>2025-05-12T12:14:21Z</time>
      </trkpt>
      <trkpt lat="37.024158965796232" lon="-2.727257972583175">
        <ele>777.36000000000001</ele>
        <time>2025-05-12T12:14:22Z</time>
      </trkpt>
      <trkpt lat="37.023856965824962" lon="-2.727330978959799">
        <ele>775.91999999999996</ele>
        <time>2025-05-12T12:14:24Z</time>
      </trkpt>
      <trkpt lat="37.023132015019655" lon="-2.727591991424561">
        <ele>772.08000000000004</ele>
        <time>2025-05-12T12:14:29Z</time>
      </trkpt>
      <trkpt lat="37.022989019751549" lon="-2.727551003918052">
        <ele>771.11000000000001</ele>
        <time>2025-05-12T12:14:30Z</time>
      </trkpt>
      <trkpt lat="37.022912995889783" lon="-2.727468023076654">
        <ele>769.66999999999996</ele>
        <time>2025-05-12T12:14:31Z</time>
      </trkpt>
      <trkpt lat="37.022822974249721" lon="-2.727355035021901">
        <ele>767.75</ele>
        <time>2025-05-12T12:14:32Z</time>
      </trkpt>
      <trkpt lat="37.022731024771929" lon="-2.727222014218569">
        <ele>766.30999999999995</ele>
        <time>2025-05-12T12:14:33Z</time>
      </trkpt>
      <trkpt lat="37.022650977596641" lon="-2.727103997021914">
        <ele>764.87</ele>
        <time>2025-05-12T12:14:34Z</time>
      </trkpt>
      <trkpt lat="37.022544024512172" lon="-2.727068038657308">
        <ele>763.89999999999998</ele>
        <time>2025-05-12T12:14:35Z</time>
      </trkpt>
      <trkpt lat="37.022489039227366" lon="-2.727077007293701">
        <ele>762.46000000000004</ele>
        <time>2025-05-12T12:14:36Z</time>
      </trkpt>
      <trkpt lat="37.022426007315516" lon="-2.727169962599874">
        <ele>761.01999999999998</ele>
        <time>2025-05-12T12:14:37Z</time>
      </trkpt>
      <trkpt lat="37.022392982617021" lon="-2.727280016988516">
        <ele>759.58000000000004</ele>
        <time>2025-05-12T12:14:38Z</time>
      </trkpt>
      <trkpt lat="37.022374039515853" lon="-2.727425023913384">
        <ele>758.13999999999999</ele>
        <time>2025-05-12T12:14:39Z</time>
      </trkpt>
      <trkpt lat="37.022239007055759" lon="-2.728115022182465">
        <ele>754.28999999999996</ele>
        <time>2025-05-12T12:14:43Z</time>
      </trkpt>
      <trkpt lat="37.022184021770954" lon="-2.728238990530372">
        <ele>753.80999999999995</ele>
        <time>2025-05-12T12:14:44Z</time>
      </trkpt>
      <trkpt lat="37.022101040929556" lon="-2.728304034098983">
        <ele>752.85000000000002</ele>
        <time>2025-05-12T12:14:45Z</time>
      </trkpt>
      <trkpt lat="37.021995009854436" lon="-2.72832197137177">
        <ele>752.37</ele>
        <time>2025-05-12T12:14:46Z</time>
      </trkpt>
      <trkpt lat="37.021890990436077" lon="-2.728279978036881">
        <ele>751.40999999999997</ele>
        <time>2025-05-12T12:14:47Z</time>
      </trkpt>
      <trkpt lat="37.021821001544595" lon="-2.728162966668606">
        <ele>750.45000000000005</ele>
        <time>2025-05-12T12:14:48Z</time>
      </trkpt>
      <trkpt lat="37.021775990724564" lon="-2.728011002764106">
        <ele>749</ele>
        <time>2025-05-12T12:14:49Z</time>
      </trkpt>
      <trkpt lat="37.021738020703197" lon="-2.727840011939406">
        <ele>747.55999999999995</ele>
        <time>2025-05-12T12:14:50Z</time>
      </trkpt>
      <trkpt lat="37.02161799184978" lon="-2.727476991713047">
        <ele>746.12</ele>
        <time>2025-05-12T12:14:52Z</time>
      </trkpt>
      <trkpt lat="37.021542973816395" lon="-2.727287979796529">
        <ele>745.63999999999999</ele>
        <time>2025-05-12T12:14:53Z</time>
      </trkpt>
      <trkpt lat="37.021458987146616" lon="-2.727120006456971">
        <ele>744.67999999999995</ele>
        <time>2025-05-12T12:14:54Z</time>
      </trkpt>
      <trkpt lat="37.021324038505554" lon="-2.72700903005898">
        <ele>744.20000000000005</ele>
        <time>2025-05-12T12:14:55Z</time>
      </trkpt>
      <trkpt lat="37.02118800021708" lon="-2.726896964013577">
        <ele>743.24000000000001</ele>
        <time>2025-05-12T12:14:56Z</time>
      </trkpt>
      <trkpt lat="37.021036958321929" lon="-2.726793028414249">
        <ele>742.75999999999999</ele>
        <time>2025-05-12T12:14:57Z</time>
      </trkpt>
      <trkpt lat="37.020867979153991" lon="-2.726713987067342">
        <ele>741.78999999999996</ele>
        <time>2025-05-12T12:14:58Z</time>
      </trkpt>
      <trkpt lat="37.020692965015769" lon="-2.726656990125775">
        <ele>740.83000000000004</ele>
        <time>2025-05-12T12:14:59Z</time>
      </trkpt>
      <trkpt lat="37.020516023039818" lon="-2.726630000397563">
        <ele>739.87</ele>
        <time>2025-05-12T12:15:00Z</time>
      </trkpt>
      <trkpt lat="37.020346960052848" lon="-2.726640980690718">
        <ele>738.42999999999995</ele>
        <time>2025-05-12T12:15:01Z</time>
      </trkpt>
      <trkpt lat="37.020191978663206" lon="-2.726655984297395">
        <ele>736.50999999999999</ele>
        <time>2025-05-12T12:15:02Z</time>
      </trkpt>
      <trkpt lat="37.020046971738338" lon="-2.72666696459055">
        <ele>734.58000000000004</ele>
        <time>2025-05-12T12:15:03Z</time>
      </trkpt>
      <trkpt lat="37.019934989511967" lon="-2.726648021489382">
        <ele>732.65999999999997</ele>
        <time>2025-05-12T12:15:04Z</time>
      </trkpt>
      <trkpt lat="37.019848991185427" lon="-2.726540984585881">
        <ele>731.22000000000003</ele>
        <time>2025-05-12T12:15:05Z</time>
      </trkpt>
      <trkpt lat="37.01981202699244" lon="-2.726426990702748">
        <ele>729.29999999999995</ele>
        <time>2025-05-12T12:15:06Z</time>
      </trkpt>
      <trkpt lat="37.019831975921988" lon="-2.726309979334474">
        <ele>727.86000000000001</ele>
        <time>2025-05-12T12:15:07Z</time>
      </trkpt>
      <trkpt lat="37.019889978691936" lon="-2.726180981844664">
        <ele>726.88999999999999</ele>
        <time>2025-05-12T12:15:08Z</time>
      </trkpt>
      <trkpt lat="37.01998402364552" lon="-2.72604200989008">
        <ele>725.45000000000005</ele>
        <time>2025-05-12T12:15:09Z</time>
      </trkpt>
      <trkpt lat="37.020171023905277" lon="-2.725768005475402">
        <ele>723.04999999999995</ele>
        <time>2025-05-12T12:15:11Z</time>
      </trkpt>
      <trkpt lat="37.020303038880229" lon="-2.725686030462384">
        <ele>721.61000000000001</ele>
        <time>2025-05-12T12:15:12Z</time>
      </trkpt>
      <trkpt lat="37.020387025550008" lon="-2.725683012977243">
        <ele>720.15999999999997</ele>
        <time>2025-05-12T12:15:13Z</time>
      </trkpt>
      <trkpt lat="37.020496996119618" lon="-2.725737998262048">
        <ele>719.20000000000005</ele>
        <time>2025-05-12T12:15:14Z</time>
      </trkpt>
      <trkpt lat="37.0205860119313" lon="-2.725844029337168">
        <ele>717.75999999999999</ele>
        <time>2025-05-12T12:15:15Z</time>
      </trkpt>
      <trkpt lat="37.020688019692898" lon="-2.725984007120132">
        <ele>716.79999999999995</ele>
        <time>2025-05-12T12:15:16Z</time>
      </trkpt>
      <trkpt lat="37.02080000191927" lon="-2.726136976853013">
        <ele>715.36000000000001</ele>
        <time>2025-05-12T12:15:17Z</time>
      </trkpt>
      <trkpt lat="37.020917013287544" lon="-2.726297993212938">
        <ele>714.88</ele>
        <time>2025-05-12T12:15:18Z</time>
      </trkpt>
      <trkpt lat="37.02107903547585" lon="-2.726404024288058">
        <ele>713.44000000000005</ele>
        <time>2025-05-12T12:15:19Z</time>
      </trkpt>
      <trkpt lat="37.021235022693872" lon="-2.726503014564514">
        <ele>712.47000000000003</ele>
        <time>2025-05-12T12:15:20Z</time>
      </trkpt>
      <trkpt lat="37.021382041275501" lon="-2.726596975699067">
        <ele>711.50999999999999</ele>
        <time>2025-05-12T12:15:21Z</time>
      </trkpt>
      <trkpt lat="37.021538028493524" lon="-2.726605022326112">
        <ele>710.54999999999995</ele>
        <time>2025-05-12T12:15:22Z</time>
      </trkpt>
      <trkpt lat="37.021669959649444" lon="-2.726605022326112">
        <ele>709.59000000000003</ele>
        <time>2025-05-12T12:15:23Z</time>
      </trkpt>
      <trkpt lat="37.021741960197687" lon="-2.726508965715766">
        <ele>709.11000000000001</ele>
        <time>2025-05-12T12:15:24Z</time>
      </trkpt>
      <trkpt lat="37.021780014038086" lon="-2.726431014016271">
        <ele>708.14999999999998</ele>
        <time>2025-05-12T12:15:25Z</time>
      </trkpt>
      <trkpt lat="37.021780014038086" lon="-2.726315008476377">
        <ele>707.66999999999996</ele>
        <time>2025-05-12T12:15:26Z</time>
      </trkpt>
      <trkpt lat="37.0217240229249" lon="-2.72621501237154">
        <ele>707.19000000000005</ele>
        <time>2025-05-12T12:15:27Z</time>
      </trkpt>
      <trkpt lat="37.021615980193019" lon="-2.726125996559858">
        <ele>706.71000000000004</ele>
        <time>2025-05-12T12:15:28Z</time>
      </trkpt>
      <trkpt lat="37.021494023501873" lon="-2.726026000455022">
        <ele>706.71000000000004</ele>
        <time>2025-05-12T12:15:29Z</time>
      </trkpt>
      <trkpt lat="37.021371982991695" lon="-2.725909994915128">
        <ele>705.75</ele>
        <time>2025-05-12T12:15:30Z</time>
      </trkpt>
      <trkpt lat="37.021267963573337" lon="-2.725755013525486">
        <ele>705.25999999999999</ele>
        <time>2025-05-12T12:15:31Z</time>
      </trkpt>
      <trkpt lat="37.02121096663177" lon="-2.725558960810304">
        <ele>704.77999999999997</ele>
        <time>2025-05-12T12:15:32Z</time>
      </trkpt>
      <trkpt lat="37.021155981346965" lon="-2.725357040762901">
        <ele>704.29999999999995</ele>
        <time>2025-05-12T12:15:33Z</time>
      </trkpt>
      <trkpt lat="37.021094039082527" lon="-2.725124023854733">
        <ele>703.82000000000005</ele>
        <time>2025-05-12T12:15:34Z</time>
      </trkpt>
      <trkpt lat="37.021013991907239" lon="-2.724984968081117">
        <ele>703.34000000000003</ele>
        <time>2025-05-12T12:15:35Z</time>
      </trkpt>
      <trkpt lat="37.020889017730951" lon="-2.724872985854745">
        <ele>702.86000000000001</ele>
        <time>2025-05-12T12:15:36Z</time>
      </trkpt>
      <trkpt lat="37.020748034119606" lon="-2.724796961992979">
        <ele>702.38</ele>
        <time>2025-05-12T12:15:37Z</time>
      </trkpt>
      <trkpt lat="37.020592968910933" lon="-2.724728984758258">
        <ele>700.94000000000005</ele>
        <time>2025-05-12T12:15:38Z</time>
      </trkpt>
      <trkpt lat="37.020432036370039" lon="-2.724657990038395">
        <ele>699.98000000000002</ele>
        <time>2025-05-12T12:15:39Z</time>
      </trkpt>
      <trkpt lat="37.020283006131649" lon="-2.724578026682138">
        <ele>699.01999999999998</ele>
        <time>2025-05-12T12:15:40Z</time>
      </trkpt>
      <trkpt lat="37.020147973671556" lon="-2.724466966465116">
        <ele>698.52999999999997</ele>
        <time>2025-05-12T12:15:41Z</time>
      </trkpt>
      <trkpt lat="37.020020987838507" lon="-2.724362025037408">
        <ele>698.04999999999995</ele>
        <time>2025-05-12T12:15:42Z</time>
      </trkpt>
      <trkpt lat="37.019891990348697" lon="-2.724299998953939">
        <ele>698.04999999999995</ele>
        <time>2025-05-12T12:15:43Z</time>
      </trkpt>
      <trkpt lat="37.01976802200079" lon="-2.724297987297177">
        <ele>697.57000000000005</ele>
        <time>2025-05-12T12:15:44Z</time>
      </trkpt>
      <trkpt lat="37.019643969833851" lon="-2.724332017824054">
        <ele>696.61000000000001</ele>
        <time>2025-05-12T12:15:45Z</time>
      </trkpt>
      <trkpt lat="37.019522013142705" lon="-2.724421033635736">
        <ele>695.64999999999998</ele>
        <time>2025-05-12T12:15:46Z</time>
      </trkpt>
      <trkpt lat="37.019420005381107" lon="-2.724566040560603">
        <ele>695.16999999999996</ele>
        <time>2025-05-12T12:15:47Z</time>
      </trkpt>
      <trkpt lat="37.019354039803147" lon="-2.72471196949482">
        <ele>693.73000000000002</ele>
        <time>2025-05-12T12:15:48Z</time>
      </trkpt>
      <trkpt lat="37.019280027598143" lon="-2.724842978641391">
        <ele>692.28999999999996</ele>
        <time>2025-05-12T12:15:49Z</time>
      </trkpt>
      <trkpt lat="37.0191890001297" lon="-2.724956972524524">
        <ele>691.33000000000004</ele>
        <time>2025-05-12T12:15:50Z</time>
      </trkpt>
      <trkpt lat="37.019090009853244" lon="-2.725029978901148">
        <ele>690.36000000000001</ele>
        <time>2025-05-12T12:15:51Z</time>
      </trkpt>
      <trkpt lat="37.018952965736389" lon="-2.725064009428024">
        <ele>689.39999999999998</ele>
        <time>2025-05-12T12:15:52Z</time>
      </trkpt>
      <trkpt lat="37.018806030973792" lon="-2.725100973621011">
        <ele>688.44000000000005</ele>
        <time>2025-05-12T12:15:53Z</time>
      </trkpt>
      <trkpt lat="37.018550969660282" lon="-2.725121006369591">
        <ele>687</ele>
        <time>2025-05-12T12:15:55Z</time>
      </trkpt>
      <trkpt lat="37.0184809807688" lon="-2.725073983892798">
        <ele>686.03999999999996</ele>
        <time>2025-05-12T12:15:56Z</time>
      </trkpt>
      <trkpt lat="37.018429012969136" lon="-2.724983962252736">
        <ele>685.08000000000004</ele>
        <time>2025-05-12T12:15:57Z</time>
      </trkpt>
      <trkpt lat="37.018433958292007" lon="-2.724868962541223">
        <ele>684.12</ele>
        <time>2025-05-12T12:15:58Z</time>
      </trkpt>
      <trkpt lat="37.018475029617548" lon="-2.72471004165709">
        <ele>683.63</ele>
        <time>2025-05-12T12:15:59Z</time>
      </trkpt>
      <trkpt lat="37.01852397993207" lon="-2.724524969235063">
        <ele>682.66999999999996</ele>
        <time>2025-05-12T12:16:00Z</time>
      </trkpt>
      <trkpt lat="37.018733024597168" lon="-2.723730029538274">
        <ele>679.30999999999995</ele>
        <time>2025-05-12T12:16:04Z</time>
      </trkpt>
      <trkpt lat="37.018819022923708" lon="-2.723601032048464">
        <ele>678.35000000000002</ele>
        <time>2025-05-12T12:16:05Z</time>
      </trkpt>
      <trkpt lat="37.018909966573119" lon="-2.723583010956645">
        <ele>677.38999999999999</ele>
        <time>2025-05-12T12:16:06Z</time>
      </trkpt>
      <trkpt lat="37.018980039283633" lon="-2.723610000684857">
        <ele>676.90999999999997</ele>
        <time>2025-05-12T12:16:07Z</time>
      </trkpt>
      <trkpt lat="37.019075006246567" lon="-2.723664985969663">
        <ele>675.94000000000005</ele>
        <time>2025-05-12T12:16:08Z</time>
      </trkpt>
      <trkpt lat="37.019183970987797" lon="-2.723728017881513">
        <ele>674.98000000000002</ele>
        <time>2025-05-12T12:16:09Z</time>
      </trkpt>
      <trkpt lat="37.019300982356071" lon="-2.723795995116234">
        <ele>674.5</ele>
        <time>2025-05-12T12:16:10Z</time>
      </trkpt>
      <trkpt lat="37.019443977624178" lon="-2.723799012601376">
        <ele>673.53999999999996</ele>
        <time>2025-05-12T12:16:11Z</time>
      </trkpt>
      <trkpt lat="37.019581021741033" lon="-2.723777974024415">
        <ele>672.58000000000004</ele>
        <time>2025-05-12T12:16:12Z</time>
      </trkpt>
      <trkpt lat="37.019723011180758" lon="-2.723756013438106">
        <ele>671.13999999999999</ele>
        <time>2025-05-12T12:16:13Z</time>
      </trkpt>
      <trkpt lat="37.019865000620484" lon="-2.723733969032764">
        <ele>670.17999999999995</ele>
        <time>2025-05-12T12:16:14Z</time>
      </trkpt>
      <trkpt lat="37.019995003938675" lon="-2.723699016496539">
        <ele>669.22000000000003</ele>
        <time>2025-05-12T12:16:15Z</time>
      </trkpt>
      <trkpt lat="37.020098017528653" lon="-2.723668003454804">
        <ele>668.73000000000002</ele>
        <time>2025-05-12T12:16:16Z</time>
      </trkpt>
      <trkpt lat="37.020118972286582" lon="-2.723602959886193">
        <ele>668.25</ele>
        <time>2025-05-12T12:16:17Z</time>
      </trkpt>
      <trkpt lat="37.020149985328317" lon="-2.723450995981693">
        <ele>667.76999999999998</ele>
        <time>2025-05-12T12:16:18Z</time>
      </trkpt>
      <trkpt lat="37.020149985328317" lon="-2.723412020131946">
        <ele>667.28999999999996</ele>
        <time>2025-05-12T12:16:19Z</time>
      </trkpt>
      <trkpt lat="37.020149985328317" lon="-2.723286962136626">
        <ele>666.33000000000004</ele>
        <time>2025-05-12T12:16:20Z</time>
      </trkpt>
      <trkpt lat="37.020205976441503" lon="-2.723167017102242">
        <ele>665.85000000000002</ele>
        <time>2025-05-12T12:16:21Z</time>
      </trkpt>
      <trkpt lat="37.02028401196003" lon="-2.723042964935303">
        <ele>665.37</ele>
        <time>2025-05-12T12:16:22Z</time>
      </trkpt>
      <trkpt lat="37.020362969487906" lon="-2.722915979102254">
        <ele>664.88999999999999</ele>
        <time>2025-05-12T12:16:23Z</time>
      </trkpt>
      <trkpt lat="37.020374033600092" lon="-2.72275404073298">
        <ele>664.88999999999999</ele>
        <time>2025-05-12T12:16:24Z</time>
      </trkpt>
      <trkpt lat="37.020386019721627" lon="-2.722549019381404">
        <ele>664.40999999999997</ele>
        <time>2025-05-12T12:16:25Z</time>
      </trkpt>
      <trkpt lat="37.020359029993415" lon="-2.722382973879576">
        <ele>664.40999999999997</ele>
        <time>2025-05-12T12:16:26Z</time>
      </trkpt>
      <trkpt lat="37.020332040265203" lon="-2.722207037732005">
        <ele>663.92999999999995</ele>
        <time>2025-05-12T12:16:27Z</time>
      </trkpt>
      <trkpt lat="37.02034997753799" lon="-2.722055995836854">
        <ele>663.45000000000005</ele>
        <time>2025-05-12T12:16:28Z</time>
      </trkpt>
      <trkpt lat="37.020410997793078" lon="-2.721965974196792">
        <ele>662.97000000000003</ele>
        <time>2025-05-12T12:16:29Z</time>
      </trkpt>
      <trkpt lat="37.020502025261521" lon="-2.721915012225509">
        <ele>662.00999999999999</ele>
        <time>2025-05-12T12:16:30Z</time>
      </trkpt>
      <trkpt lat="37.020622976124287" lon="-2.721887016668916">
        <ele>661.03999999999996</ele>
        <time>2025-05-12T12:16:31Z</time>
      </trkpt>
      <trkpt lat="37.020747028291225" lon="-2.721858015283942">
        <ele>660.08000000000004</ele>
        <time>2025-05-12T12:16:32Z</time>
      </trkpt>
      <trkpt lat="37.020841995254159" lon="-2.721814010292292">
        <ele>659.12</ele>
        <time>2025-05-12T12:16:33Z</time>
      </trkpt>
      <trkpt lat="37.020896980538964" lon="-2.721759025007486">
        <ele>658.15999999999997</ele>
        <time>2025-05-12T12:16:34Z</time>
      </trkpt>
      <trkpt lat="37.02088600024581" lon="-2.72168199531734">
        <ele>656.72000000000003</ele>
        <time>2025-05-12T12:16:35Z</time>
      </trkpt>
      <trkpt lat="37.020845012739301" lon="-2.721634972840548">
        <ele>656.24000000000001</ele>
        <time>2025-05-12T12:16:36Z</time>
      </trkpt>
      <trkpt lat="37.020766977220774" lon="-2.721605971455574">
        <ele>654.79999999999995</ele>
        <time>2025-05-12T12:16:37Z</time>
      </trkpt>
      <trkpt lat="37.020666981115937" lon="-2.721589962020516">
        <ele>653.83000000000004</ele>
        <time>2025-05-12T12:16:38Z</time>
      </trkpt>
      <trkpt lat="37.020547036081553" lon="-2.721606977283955">
        <ele>652.87</ele>
        <time>2025-05-12T12:16:39Z</time>
      </trkpt>
      <trkpt lat="37.020161971449852" lon="-2.721689036116004">
        <ele>650.47000000000003</ele>
        <time>2025-05-12T12:16:42Z</time>
      </trkpt>
      <trkpt lat="37.020085025578737" lon="-2.721771011129022">
        <ele>649.99000000000001</ele>
        <time>2025-05-12T12:16:43Z</time>
      </trkpt>
      <trkpt lat="37.020042026415467" lon="-2.721890034154058">
        <ele>649.50999999999999</ele>
        <time>2025-05-12T12:16:44Z</time>
      </trkpt>
      <trkpt lat="37.020036997273564" lon="-2.722033029422164">
        <ele>649.02999999999997</ele>
        <time>2025-05-12T12:16:45Z</time>
      </trkpt>
      <trkpt lat="37.020031968131661" lon="-2.722194967791438">
        <ele>648.54999999999995</ele>
        <time>2025-05-12T12:16:46Z</time>
      </trkpt>
      <trkpt lat="37.02002601698041" lon="-2.722359001636505">
        <ele>648.54999999999995</ele>
        <time>2025-05-12T12:16:47Z</time>
      </trkpt>
      <trkpt lat="37.020020987838507" lon="-2.722507026046515">
        <ele>648.07000000000005</ele>
        <time>2025-05-12T12:16:48Z</time>
      </trkpt>
      <trkpt lat="37.019949993118644" lon="-2.722577014937997">
        <ele>648.07000000000005</ele>
        <time>2025-05-12T12:16:49Z</time>
      </trkpt>
      <trkpt lat="37.01985402032733" lon="-2.722592018544674">
        <ele>648.07000000000005</ele>
        <time>2025-05-12T12:16:50Z</time>
      </trkpt>
      <trkpt lat="37.019739020615816" lon="-2.722592018544674">
        <ele>648.07000000000005</ele>
        <time>2025-05-12T12:16:51Z</time>
      </trkpt>
      <trkpt lat="37.019628966227174" lon="-2.722609033808112">
        <ele>647.59000000000003</ele>
        <time>2025-05-12T12:16:52Z</time>
      </trkpt>
      <trkpt lat="37.019549002870917" lon="-2.722656978294253">
        <ele>647.10000000000002</ele>
        <time>2025-05-12T12:16:53Z</time>
      </trkpt>
      <trkpt lat="37.019526036456227" lon="-2.722786981612444">
        <ele>646.62</ele>
        <time>2025-05-12T12:16:54Z</time>
      </trkpt>
      <trkpt lat="37.019501980394125" lon="-2.722922014072537">
        <ele>645.65999999999997</ele>
        <time>2025-05-12T12:16:55Z</time>
      </trkpt>
      <trkpt lat="37.0194670278579" lon="-2.723047994077206">
        <ele>645.17999999999995</ele>
        <time>2025-05-12T12:16:56Z</time>
      </trkpt>
      <trkpt lat="37.019409025087953" lon="-2.723133992403746">
        <ele>644.70000000000005</ele>
        <time>2025-05-12T12:16:57Z</time>
      </trkpt>
      <trkpt lat="37.019320009276271" lon="-2.723150001838803">
        <ele>644.70000000000005</ele>
        <time>2025-05-12T12:16:58Z</time>
      </trkpt>
      <trkpt lat="37.019239040091634" lon="-2.723104991018772">
        <ele>644.70000000000005</ele>
        <time>2025-05-12T12:16:59Z</time>
      </trkpt>
      <trkpt lat="37.019141977652907" lon="-2.723019998520613">
        <ele>644.70000000000005</ele>
        <time>2025-05-12T12:17:00Z</time>
      </trkpt>
      <trkpt lat="37.019058996811509" lon="-2.722888989374042">
        <ele>644.70000000000005</ele>
        <time>2025-05-12T12:17:01Z</time>
      </trkpt>
      <trkpt lat="37.018982972949743" lon="-2.722727973014116">
        <ele>644.70000000000005</ele>
        <time>2025-05-12T12:17:02Z</time>
      </trkpt>
      <trkpt lat="37.018943997099996" lon="-2.722538961097598">
        <ele>644.22000000000003</ele>
        <time>2025-05-12T12:17:03Z</time>
      </trkpt>
      <trkpt lat="37.018905021250248" lon="-2.722355984151363">
        <ele>643.74000000000001</ele>
        <time>2025-05-12T12:17:04Z</time>
      </trkpt>
      <trkpt lat="37.018831009045243" lon="-2.722191028296948">
        <ele>642.77999999999997</ele>
        <time>2025-05-12T12:17:05Z</time>
      </trkpt>
      <trkpt lat="37.018721038475633" lon="-2.722064964473248">
        <ele>641.82000000000005</ele>
        <time>2025-05-12T12:17:06Z</time>
      </trkpt>
      <trkpt lat="37.018593968823552" lon="-2.721937978640199">
        <ele>641.34000000000003</ele>
        <time>2025-05-12T12:17:07Z</time>
      </trkpt>
      <trkpt lat="37.018472012132406" lon="-2.721872013062239">
        <ele>640.38</ele>
        <time>2025-05-12T12:17:08Z</time>
      </trkpt>
      <trkpt lat="37.018362041562796" lon="-2.721851980313659">
        <ele>639.88999999999999</ele>
        <time>2025-05-12T12:17:09Z</time>
      </trkpt>
      <trkpt lat="37.018283000215888" lon="-2.721857009455562">
        <ele>638.92999999999995</ele>
        <time>2025-05-12T12:17:10Z</time>
      </trkpt>
      <trkpt lat="37.018181998282671" lon="-2.721931021660566">
        <ele>637.97000000000003</ele>
        <time>2025-05-12T12:17:11Z</time>
      </trkpt>
      <trkpt lat="37.018068004399538" lon="-2.722012996673584">
        <ele>636.52999999999997</ele>
        <time>2025-05-12T12:17:12Z</time>
      </trkpt>
      <trkpt lat="37.017955016344786" lon="-2.722094971686602">
        <ele>635.57000000000005</ele>
        <time>2025-05-12T12:17:13Z</time>
      </trkpt>
      <trkpt lat="37.01785895973444" lon="-2.722164960578084">
        <ele>635.09000000000003</ele>
        <time>2025-05-12T12:17:14Z</time>
      </trkpt>
      <trkpt lat="37.017818978056312" lon="-2.722302004694939">
        <ele>634.13</ele>
        <time>2025-05-12T12:17:15Z</time>
      </trkpt>
      <trkpt lat="37.017811015248299" lon="-2.7224559802562">
        <ele>633.16999999999996</ele>
        <time>2025-05-12T12:17:16Z</time>
      </trkpt>
      <trkpt lat="37.017811015248299" lon="-2.722630994394422">
        <ele>632.20000000000005</ele>
        <time>2025-05-12T12:17:17Z</time>
      </trkpt>
      <trkpt lat="37.017811015248299" lon="-2.722803996875882">
        <ele>630.75999999999999</ele>
        <time>2025-05-12T12:17:18Z</time>
      </trkpt>
      <trkpt lat="37.017790982499719" lon="-2.72295000962913">
        <ele>629.79999999999995</ele>
        <time>2025-05-12T12:17:19Z</time>
      </trkpt>
      <trkpt lat="37.017735997214913" lon="-2.723052017390728">
        <ele>629.32000000000005</ele>
        <time>2025-05-12T12:17:20Z</time>
      </trkpt>
      <trkpt lat="37.01764203608036" lon="-2.72307900711894">
        <ele>628.36000000000001</ele>
        <time>2025-05-12T12:17:21Z</time>
      </trkpt>
      <trkpt lat="37.017575986683369" lon="-2.723047994077206">
        <ele>626.91999999999996</ele>
        <time>2025-05-12T12:17:22Z</time>
      </trkpt>
      <trkpt lat="37.017482025548816" lon="-2.722963001579046">
        <ele>625.96000000000004</ele>
        <time>2025-05-12T12:17:23Z</time>
      </trkpt>
      <trkpt lat="37.017379011958838" lon="-2.722867028787732">
        <ele>624.50999999999999</ele>
        <time>2025-05-12T12:17:24Z</time>
      </trkpt>
      <trkpt lat="37.017289996147156" lon="-2.72271397523582">
        <ele>623.07000000000005</ele>
        <time>2025-05-12T12:17:25Z</time>
      </trkpt>
      <trkpt lat="37.017190000042319" lon="-2.722566034644842">
        <ele>622.11000000000001</ele>
        <time>2025-05-12T12:17:26Z</time>
      </trkpt>
      <trkpt lat="37.01708204112947" lon="-2.722441982477903">
        <ele>620.66999999999996</ele>
        <time>2025-05-12T12:17:27Z</time>
      </trkpt>
      <trkpt lat="37.016979027539492" lon="-2.722322959452868">
        <ele>619.71000000000004</ele>
        <time>2025-05-12T12:17:28Z</time>
      </trkpt>
      <trkpt lat="37.016837038099766" lon="-2.722268979996443">
        <ele>618.75</ele>
        <time>2025-05-12T12:17:29Z</time>
      </trkpt>
      <trkpt lat="37.016682978719473" lon="-2.722237966954708">
        <ele>617.77999999999997</ele>
        <time>2025-05-12T12:17:30Z</time>
      </trkpt>
      <trkpt lat="37.016523974016309" lon="-2.722206031903625">
        <ele>616.82000000000005</ele>
        <time>2025-05-12T12:17:31Z</time>
      </trkpt>
      <trkpt lat="37.016229014843702" lon="-2.722147023305297">
        <ele>614.89999999999998</ele>
        <time>2025-05-12T12:17:33Z</time>
      </trkpt>
      <trkpt lat="37.016104962676764" lon="-2.722194967791438">
        <ele>613.94000000000005</ele>
        <time>2025-05-12T12:17:34Z</time>
      </trkpt>
      <trkpt lat="37.016013013198972" lon="-2.722247019410133">
        <ele>612.98000000000002</ele>
        <time>2025-05-12T12:17:35Z</time>
      </trkpt>
      <trkpt lat="37.01598996296525" lon="-2.722337963059545">
        <ele>612.01999999999998</ele>
        <time>2025-05-12T12:17:36Z</time>
      </trkpt>
      <trkpt lat="37.015968002378941" lon="-2.722440976649523">
        <ele>611.05999999999995</ele>
        <time>2025-05-12T12:17:37Z</time>
      </trkpt>
      <trkpt lat="37.015945035964251" lon="-2.722551031038165">
        <ele>610.57000000000005</ele>
        <time>2025-05-12T12:17:38Z</time>
      </trkpt>
      <trkpt lat="37.015925003215671" lon="-2.72264800965786">
        <ele>610.09000000000003</ele>
        <time>2025-05-12T12:17:39Z</time>
      </trkpt>
      <trkpt lat="37.015867000445724" lon="-2.722674999386072">
        <ele>609.61000000000001</ele>
        <time>2025-05-12T12:17:40Z</time>
      </trkpt>
      <trkpt lat="37.015802040696144" lon="-2.72264800965786">
        <ele>608.64999999999998</ele>
        <time>2025-05-12T12:17:41Z</time>
      </trkpt>
      <trkpt lat="37.015714030712843" lon="-2.722600987181068">
        <ele>608.16999999999996</ele>
        <time>2025-05-12T12:17:42Z</time>
      </trkpt>
      <trkpt lat="37.015614034608006" lon="-2.722547007724643">
        <ele>607.21000000000004</ele>
        <time>2025-05-12T12:17:43Z</time>
      </trkpt>
      <trkpt lat="37.015499034896493" lon="-2.722548013553023">
        <ele>606.25</ele>
        <time>2025-05-12T12:17:44Z</time>
      </trkpt>
      <trkpt lat="37.015412030741572" lon="-2.722569974139333">
        <ele>605.28999999999996</ele>
        <time>2025-05-12T12:17:45Z</time>
      </trkpt>
      <trkpt lat="37.015368025749922" lon="-2.722650021314621">
        <ele>603.85000000000002</ele>
        <time>2025-05-12T12:17:46Z</time>
      </trkpt>
      <trkpt lat="37.015348998829722" lon="-2.722763009369373">
        <ele>603.36000000000001</ele>
        <time>2025-05-12T12:17:47Z</time>
      </trkpt>
      <trkpt lat="37.015362996608019" lon="-2.722908016294241">
        <ele>602.39999999999998</ele>
        <time>2025-05-12T12:17:48Z</time>
      </trkpt>
      <trkpt lat="37.015376994386315" lon="-2.723054029047489">
        <ele>601.91999999999996</ele>
        <time>2025-05-12T12:17:49Z</time>
      </trkpt>
      <trkpt lat="37.015370959416032" lon="-2.723174979910255">
        <ele>600.96000000000004</ele>
        <time>2025-05-12T12:17:50Z</time>
      </trkpt>
      <trkpt lat="37.01532200910151" lon="-2.723257960751653">
        <ele>600</ele>
        <time>2025-05-12T12:17:51Z</time>
      </trkpt>
      <trkpt lat="37.015240034088492" lon="-2.723237005993724">
        <ele>599.51999999999998</ele>
        <time>2025-05-12T12:17:52Z</time>
      </trkpt>
      <trkpt lat="37.01515001244843" lon="-2.723214961588383">
        <ele>598.55999999999995</ele>
        <time>2025-05-12T12:17:53Z</time>
      </trkpt>
      <trkpt lat="37.015063008293509" lon="-2.723132986575365">
        <ele>598.08000000000004</ele>
        <time>2025-05-12T12:17:54Z</time>
      </trkpt>
      <trkpt lat="37.014952031895518" lon="-2.723028967157006">
        <ele>597.12</ele>
        <time>2025-05-12T12:17:55Z</time>
      </trkpt>
      <trkpt lat="37.014833008870482" lon="-2.722915979102254">
        <ele>596.63999999999999</ele>
        <time>2025-05-12T12:17:56Z</time>
      </trkpt>
      <trkpt lat="37.014715997502208" lon="-2.722793016582727">
        <ele>596.14999999999998</ele>
        <time>2025-05-12T12:17:57Z</time>
      </trkpt>
      <trkpt lat="37.01461298391223" lon="-2.722653038799763">
        <ele>595.19000000000005</ele>
        <time>2025-05-12T12:17:58Z</time>
      </trkpt>
      <trkpt lat="37.014536038041115" lon="-2.722492022439838">
        <ele>594.71000000000004</ele>
        <time>2025-05-12T12:17:59Z</time>
      </trkpt>
      <trkpt lat="37.014466971158981" lon="-2.722345003858209">
        <ele>594.23000000000002</ele>
        <time>2025-05-12T12:18:00Z</time>
      </trkpt>
      <trkpt lat="37.014388013631105" lon="-2.722249031066895">
        <ele>593.75</ele>
        <time>2025-05-12T12:18:01Z</time>
      </trkpt>
      <trkpt lat="37.014301009476185" lon="-2.722217012196779">
        <ele>592.78999999999996</ele>
        <time>2025-05-12T12:18:02Z</time>
      </trkpt>
      <trkpt lat="37.014207970350981" lon="-2.722248025238514">
        <ele>591.83000000000004</ele>
        <time>2025-05-12T12:18:03Z</time>
      </trkpt>
      <trkpt lat="37.014130018651485" lon="-2.722293036058545">
        <ele>590.87</ele>
        <time>2025-05-12T12:18:04Z</time>
      </trkpt>
      <trkpt lat="37.014068998396397" lon="-2.722406024113298">
        <ele>589.90999999999997</ele>
        <time>2025-05-12T12:18:05Z</time>
      </trkpt>
      <trkpt lat="37.01401099562645" lon="-2.722513983026147">
        <ele>588.95000000000005</ele>
        <time>2025-05-12T12:18:06Z</time>
      </trkpt>
      <trkpt lat="37.013944024220109" lon="-2.722567962482572">
        <ele>588.46000000000004</ele>
        <time>2025-05-12T12:18:07Z</time>
      </trkpt>
      <trkpt lat="37.01386196538806" lon="-2.722581960260868">
        <ele>588.46000000000004</ele>
        <time>2025-05-12T12:18:08Z</time>
      </trkpt>
      <trkpt lat="37.013770015910268" lon="-2.722522029653192">
        <ele>588.46000000000004</ele>
        <time>2025-05-12T12:18:09Z</time>
      </trkpt>
      <trkpt lat="37.01366700232029" lon="-2.722419016063213">
        <ele>587.98000000000002</ele>
        <time>2025-05-12T12:18:10Z</time>
      </trkpt>
      <trkpt lat="37.013555020093918" lon="-2.722306028008461">
        <ele>587.98000000000002</ele>
        <time>2025-05-12T12:18:11Z</time>
      </trkpt>
      <trkpt lat="37.013455023989081" lon="-2.722206031903625">
        <ele>587.01999999999998</ele>
        <time>2025-05-12T12:18:12Z</time>
      </trkpt>
      <trkpt lat="37.013442032039165" lon="-2.72209002636373">
        <ele>586.53999999999996</ele>
        <time>2025-05-12T12:18:13Z</time>
      </trkpt>
      <trkpt lat="37.013428034260869" lon="-2.721964968368411">
        <ele>585.58000000000004</ele>
        <time>2025-05-12T12:18:14Z</time>
      </trkpt>
      <trkpt lat="37.013414958491921" lon="-2.721843011677265">
        <ele>584.62</ele>
        <time>2025-05-12T12:18:15Z</time>
      </trkpt>
      <trkpt lat="37.013356033712626" lon="-2.721746033057571">
        <ele>583.17999999999995</ele>
        <time>2025-05-12T12:18:16Z</time>
      </trkpt>
      <trkpt lat="37.013277998194098" lon="-2.721742009744048">
        <ele>581.73000000000002</ele>
        <time>2025-05-12T12:18:17Z</time>
      </trkpt>
      <trkpt lat="37.013154029846191" lon="-2.721756007522345">
        <ele>580.76999999999998</ele>
        <time>2025-05-12T12:18:18Z</time>
      </trkpt>
      <trkpt lat="37.01306501403451" lon="-2.721809986978769">
        <ele>579.80999999999995</ele>
        <time>2025-05-12T12:18:19Z</time>
      </trkpt>
      <trkpt lat="37.012950014322996" lon="-2.721881987527013">
        <ele>579.33000000000004</ele>
        <time>2025-05-12T12:18:20Z</time>
      </trkpt>
      <trkpt lat="37.012837026268244" lon="-2.721921969205141">
        <ele>578.37</ele>
        <time>2025-05-12T12:18:21Z</time>
      </trkpt>
      <trkpt lat="37.012733006849885" lon="-2.721906965598464">
        <ele>577.88999999999999</ele>
        <time>2025-05-12T12:18:22Z</time>
      </trkpt>
      <trkpt lat="37.012696964666247" lon="-2.72183102555573">
        <ele>576.92999999999995</ele>
        <time>2025-05-12T12:18:23Z</time>
      </trkpt>
      <trkpt lat="37.012661006301641" lon="-2.721733963117003">
        <ele>575.49000000000001</ele>
        <time>2025-05-12T12:18:24Z</time>
      </trkpt>
      <trkpt lat="37.012668969109654" lon="-2.721605971455574">
        <ele>575.00999999999999</ele>
        <time>2025-05-12T12:18:25Z</time>
      </trkpt>
      <trkpt lat="37.01267902739346" lon="-2.721469011157751">
        <ele>574.03999999999996</ele>
        <time>2025-05-12T12:18:26Z</time>
      </trkpt>
      <trkpt lat="37.012648014351726" lon="-2.721369015052915">
        <ele>573.08000000000004</ele>
        <time>2025-05-12T12:18:27Z</time>
      </trkpt>
      <trkpt lat="37.012596968561411" lon="-2.721304977312684">
        <ele>572.60000000000002</ele>
        <time>2025-05-12T12:18:28Z</time>
      </trkpt>
      <trkpt lat="37.012484986335039" lon="-2.721282010897994">
        <ele>571.63999999999999</ele>
        <time>2025-05-12T12:18:29Z</time>
      </trkpt>
      <trkpt lat="37.012351965531707" lon="-2.721254015341401">
        <ele>570.67999999999995</ele>
        <time>2025-05-12T12:18:30Z</time>
      </trkpt>
      <trkpt lat="37.012192038819194" lon="-2.721220990642905">
        <ele>569.72000000000003</ele>
        <time>2025-05-12T12:18:31Z</time>
      </trkpt>
      <trkpt lat="37.010837020352483" lon="-2.720898035913706">
        <ele>559.13999999999999</ele>
        <time>2025-05-12T12:18:38Z</time>
      </trkpt>
      <trkpt lat="37.009837981313467" lon="-2.720545995980501">
        <ele>550.49000000000001</ele>
        <time>2025-05-12T12:18:44Z</time>
      </trkpt>
      <trkpt lat="37.009704960510135" lon="-2.720450023189187">
        <ele>549.04999999999995</ele>
        <time>2025-05-12T12:18:45Z</time>
      </trkpt>
      <trkpt lat="37.009589038789272" lon="-2.720367964357138">
        <ele>547.13</ele>
        <time>2025-05-12T12:18:46Z</time>
      </trkpt>
      <trkpt lat="37.009492982178926" lon="-2.720338962972164">
        <ele>545.69000000000005</ele>
        <time>2025-05-12T12:18:47Z</time>
      </trkpt>
      <trkpt lat="37.009414024651051" lon="-2.720352960750461">
        <ele>544.24000000000001</ele>
        <time>2025-05-12T12:18:48Z</time>
      </trkpt>
      <trkpt lat="37.009377982467413" lon="-2.720424961298704">
        <ele>542.79999999999995</ele>
        <time>2025-05-12T12:18:49Z</time>
      </trkpt>
      <trkpt lat="37.009377982467413" lon="-2.720531998202205">
        <ele>541.36000000000001</ele>
        <time>2025-05-12T12:18:50Z</time>
      </trkpt>
      <trkpt lat="37.009444031864405" lon="-2.720649009570479">
        <ele>540.39999999999998</ele>
        <time>2025-05-12T12:18:51Z</time>
      </trkpt>
      <trkpt lat="37.009544027969241" lon="-2.7207360137254">
        <ele>539.44000000000005</ele>
        <time>2025-05-12T12:18:52Z</time>
      </trkpt>
      <trkpt lat="37.00965098105371" lon="-2.720820000395179">
        <ele>538.48000000000002</ele>
        <time>2025-05-12T12:18:53Z</time>
      </trkpt>
      <trkpt lat="37.009742008522153" lon="-2.720899041742086">
        <ele>537.99000000000001</ele>
        <time>2025-05-12T12:18:54Z</time>
      </trkpt>
      <trkpt lat="37.009763969108462" lon="-2.720971964299679">
        <ele>537.50999999999999</ele>
        <time>2025-05-12T12:18:55Z</time>
      </trkpt>
      <trkpt lat="37.009763969108462" lon="-2.721063997596502">
        <ele>536.54999999999995</ele>
        <time>2025-05-12T12:18:56Z</time>
      </trkpt>
      <trkpt lat="37.009743014350533" lon="-2.721100961789489">
        <ele>535.59000000000003</ele>
        <time>2025-05-12T12:18:57Z</time>
      </trkpt>
      <trkpt lat="37.009677970781922" lon="-2.721132980659604">
        <ele>535.11000000000001</ele>
        <time>2025-05-12T12:18:58Z</time>
      </trkpt>
      <trkpt lat="37.009588032960892" lon="-2.721083024516702">
        <ele>534.14999999999998</ele>
        <time>2025-05-12T12:18:59Z</time>
      </trkpt>
      <trkpt lat="37.009480996057391" lon="-2.721019992604852">
        <ele>533.66999999999996</ele>
        <time>2025-05-12T12:19:00Z</time>
      </trkpt>
      <trkpt lat="37.009379994124174" lon="-2.720885965973139">
        <ele>533.19000000000005</ele>
        <time>2025-05-12T12:19:01Z</time>
      </trkpt>
      <trkpt lat="37.009266000241041" lon="-2.720734002068639">
        <ele>532.23000000000002</ele>
        <time>2025-05-12T12:19:02Z</time>
      </trkpt>
      <trkpt lat="37.009149994701147" lon="-2.720567034557462">
        <ele>531.75</ele>
        <time>2025-05-12T12:19:03Z</time>
      </trkpt>
      <trkpt lat="37.009060978889465" lon="-2.720364024862647">
        <ele>530.78999999999996</ele>
        <time>2025-05-12T12:19:04Z</time>
      </trkpt>
      <trkpt lat="37.008975986391306" lon="-2.720171995460987">
        <ele>529.82000000000005</ele>
        <time>2025-05-12T12:19:05Z</time>
      </trkpt>
      <trkpt lat="37.008921001106501" lon="-2.719993963837624">
        <ele>529.34000000000003</ele>
        <time>2025-05-12T12:19:06Z</time>
      </trkpt>
      <trkpt lat="37.008904991671443" lon="-2.719810986891389">
        <ele>528.86000000000001</ele>
        <time>2025-05-12T12:19:07Z</time>
      </trkpt>
      <trkpt lat="37.008889988064766" lon="-2.719647036865354">
        <ele>528.38</ele>
        <time>2025-05-12T12:19:08Z</time>
      </trkpt>
      <trkpt lat="37.008861992508173" lon="-2.719519967213273">
        <ele>526.94000000000005</ele>
        <time>2025-05-12T12:19:09Z</time>
      </trkpt>
      <trkpt lat="37.008813964203" lon="-2.719432041049004">
        <ele>525.98000000000002</ele>
        <time>2025-05-12T12:19:10Z</time>
      </trkpt>
      <trkpt lat="37.008734000846744" lon="-2.719394993036985">
        <ele>525.01999999999998</ele>
        <time>2025-05-12T12:19:11Z</time>
      </trkpt>
      <trkpt lat="37.008638028055429" lon="-2.71940496750176">
        <ele>524.53999999999996</ele>
        <time>2025-05-12T12:19:12Z</time>
      </trkpt>
      <trkpt lat="37.008568961173296" lon="-2.719474034383893">
        <ele>523.58000000000004</ele>
        <time>2025-05-12T12:19:13Z</time>
      </trkpt>
      <trkpt lat="37.008520010858774" lon="-2.719588028267026">
        <ele>522.61000000000001</ele>
        <time>2025-05-12T12:19:14Z</time>
      </trkpt>
      <trkpt lat="37.008510036394" lon="-2.719729011878371">
        <ele>522.13</ele>
        <time>2025-05-12T12:19:15Z</time>
      </trkpt>
      <trkpt lat="37.008542977273464" lon="-2.719871001318097">
        <ele>521.16999999999996</ele>
        <time>2025-05-12T12:19:16Z</time>
      </trkpt>
      <trkpt lat="37.008601985871792" lon="-2.720015002414584">
        <ele>520.69000000000005</ele>
        <time>2025-05-12T12:19:17Z</time>
      </trkpt>
      <trkpt lat="37.008669041097164" lon="-2.720176018774509">
        <ele>519.73000000000002</ele>
        <time>2025-05-12T12:19:18Z</time>
      </trkpt>
      <trkpt lat="37.008741963654757" lon="-2.720352960750461">
        <ele>519.25</ele>
        <time>2025-05-12T12:19:19Z</time>
      </trkpt>
      <trkpt lat="37.008816981688142" lon="-2.720536021515727">
        <ele>518.28999999999996</ele>
        <time>2025-05-12T12:19:20Z</time>
      </trkpt>
      <trkpt lat="37.008968023583293" lon="-2.720886971801519">
        <ele>516.37</ele>
        <time>2025-05-12T12:19:22Z</time>
      </trkpt>
      <trkpt lat="37.009051004424691" lon="-2.721028039231896">
        <ele>515.39999999999998</ele>
        <time>2025-05-12T12:19:23Z</time>
      </trkpt>
      <trkpt lat="37.009127028286457" lon="-2.721157036721706">
        <ele>514.44000000000005</ele>
        <time>2025-05-12T12:19:24Z</time>
      </trkpt>
      <trkpt lat="37.009172039106488" lon="-2.721272958442569">
        <ele>513.48000000000002</ele>
        <time>2025-05-12T12:19:25Z</time>
      </trkpt>
      <trkpt lat="37.009175978600979" lon="-2.721369015052915">
        <ele>512.51999999999998</ele>
        <time>2025-05-12T12:19:26Z</time>
      </trkpt>
      <trkpt lat="37.009133985266089" lon="-2.721465993672609">
        <ele>511.07999999999998</ele>
        <time>2025-05-12T12:19:27Z</time>
      </trkpt>
      <trkpt lat="37.009073970839381" lon="-2.721517961472273">
        <ele>509.63999999999999</ele>
        <time>2025-05-12T12:19:28Z</time>
      </trkpt>
      <trkpt lat="37.008970035240054" lon="-2.721561966463924">
        <ele>508.19</ele>
        <time>2025-05-12T12:19:29Z</time>
      </trkpt>
      <trkpt lat="37.008888982236385" lon="-2.721539000049233">
        <ele>506.75</ele>
        <time>2025-05-12T12:19:30Z</time>
      </trkpt>
      <trkpt lat="37.00876803137362" lon="-2.721483008936048">
        <ele>505.79000000000002</ele>
        <time>2025-05-12T12:19:31Z</time>
      </trkpt>
      <trkpt lat="37.008632998913527" lon="-2.721386030316353">
        <ele>504.82999999999998</ele>
        <time>2025-05-12T12:19:32Z</time>
      </trkpt>
      <trkpt lat="37.008479023352265" lon="-2.721272958442569">
        <ele>504.35000000000002</ele>
        <time>2025-05-12T12:19:33Z</time>
      </trkpt>
      <trkpt lat="37.007403038442135" lon="-2.720325971022248">
        <ele>496.66000000000003</ele>
        <time>2025-05-12T12:19:40Z</time>
      </trkpt>
      <trkpt lat="37.007241016253829" lon="-2.720277020707727">
        <ele>495.69999999999999</ele>
        <time>2025-05-12T12:19:41Z</time>
      </trkpt>
      <trkpt lat="37.00689903460443" lon="-2.720174007117748">
        <ele>493.76999999999998</ele>
        <time>2025-05-12T12:19:43Z</time>
      </trkpt>
      <trkpt lat="37.00672896578908" lon="-2.720114998519421">
        <ele>492.81</ele>
        <time>2025-05-12T12:19:44Z</time>
      </trkpt>
      <trkpt lat="37.006596028804779" lon="-2.719987006857991">
        <ele>491.85000000000002</ele>
        <time>2025-05-12T12:19:45Z</time>
      </trkpt>
      <trkpt lat="37.006465019658208" lon="-2.719862032681704">
        <ele>490.41000000000003</ele>
        <time>2025-05-12T12:19:46Z</time>
      </trkpt>
      <trkpt lat="37.00633903965354" lon="-2.719740997999907">
        <ele>489.44999999999999</ele>
        <time>2025-05-12T12:19:47Z</time>
      </trkpt>
      <trkpt lat="37.006201995536685" lon="-2.719609988853335">
        <ele>488.49000000000001</ele>
        <time>2025-05-12T12:19:48Z</time>
      </trkpt>
      <trkpt lat="37.00608397834003" lon="-2.719550980255008">
        <ele>487.52999999999997</ele>
        <time>2025-05-12T12:19:49Z</time>
      </trkpt>
      <trkpt lat="37.005953975021839" lon="-2.719486020505428">
        <ele>486.56</ele>
        <time>2025-05-12T12:19:50Z</time>
      </trkpt>
      <trkpt lat="37.005865965038538" lon="-2.719374038279057">
        <ele>485.60000000000002</ele>
        <time>2025-05-12T12:19:51Z</time>
      </trkpt>
      <trkpt lat="37.005806034430861" lon="-2.71923297084868">
        <ele>484.63999999999999</ele>
        <time>2025-05-12T12:19:52Z</time>
      </trkpt>
      <trkpt lat="37.005746020004153" lon="-2.719089975580573">
        <ele>484.16000000000003</ele>
        <time>2025-05-12T12:19:53Z</time>
      </trkpt>
      <trkpt lat="37.005659015849233" lon="-2.718969024717808">
        <ele>483.19999999999999</ele>
        <time>2025-05-12T12:19:54Z</time>
      </trkpt>
      <trkpt lat="37.005556002259254" lon="-2.718897024169564">
        <ele>482.24000000000001</ele>
        <time>2025-05-12T12:19:55Z</time>
      </trkpt>
      <trkpt lat="37.005442008376122" lon="-2.718885960057378">
        <ele>481.75999999999999</ele>
        <time>2025-05-12T12:19:56Z</time>
      </trkpt>
      <trkpt lat="37.005347963422537" lon="-2.718905992805958">
        <ele>480.80000000000001</ele>
        <time>2025-05-12T12:19:57Z</time>
      </trkpt>
      <trkpt lat="37.00524503365159" lon="-2.718973970040679">
        <ele>479.83999999999997</ele>
        <time>2025-05-12T12:19:58Z</time>
      </trkpt>
      <trkpt lat="37.005156017839909" lon="-2.719077989459038">
        <ele>479.35000000000002</ele>
        <time>2025-05-12T12:19:59Z</time>
      </trkpt>
      <trkpt lat="37.005089968442917" lon="-2.719195000827313">
        <ele>478.87</ele>
        <time>2025-05-12T12:20:00Z</time>
      </trkpt>
      <trkpt lat="37.005049986764789" lon="-2.719303965568543">
        <ele>478.38999999999999</ele>
        <time>2025-05-12T12:20:01Z</time>
      </trkpt>
      <trkpt lat="37.005018973723054" lon="-2.719391975551844">
        <ele>477.91000000000003</ele>
        <time>2025-05-12T12:20:02Z</time>
      </trkpt>
      <trkpt lat="37.004999024793506" lon="-2.719449978321791">
        <ele>477.43000000000001</ele>
        <time>2025-05-12T12:20:03Z</time>
      </trkpt>
      <trkpt lat="37.004876984283328" lon="-2.719500018283725">
        <ele>477.43000000000001</ele>
        <time>2025-05-12T12:20:04Z</time>
      </trkpt>
      <trkpt lat="37.004846977069974" lon="-2.719475040212274">
        <ele>476.94999999999999</ele>
        <time>2025-05-12T12:20:05Z</time>
      </trkpt>
      <trkpt lat="37.004786040633917" lon="-2.719417037442327">
        <ele>476.47000000000003</ele>
        <time>2025-05-12T12:20:06Z</time>
      </trkpt>
      <trkpt lat="37.004704987630248" lon="-2.719335984438658">
        <ele>476.47000000000003</ele>
        <time>2025-05-12T12:20:07Z</time>
      </trkpt>
      <trkpt lat="37.003987999632955" lon="-2.718599969521165">
        <ele>475.99000000000001</ele>
        <time>2025-05-12T12:20:13Z</time>
      </trkpt>
      <trkpt lat="37.003883980214596" lon="-2.718438031151891">
        <ele>475.99000000000001</ele>
        <time>2025-05-12T12:20:14Z</time>
      </trkpt>
      <trkpt lat="37.003790019080043" lon="-2.718255976215005">
        <ele>475.50999999999999</ele>
        <time>2025-05-12T12:20:15Z</time>
      </trkpt>
      <trkpt lat="37.003709971904755" lon="-2.718055984005332">
        <ele>475.02999999999997</ele>
        <time>2025-05-12T12:20:16Z</time>
      </trkpt>
      <trkpt lat="37.003626991063356" lon="-2.717850040644407">
        <ele>475.02999999999997</ele>
        <time>2025-05-12T12:20:17Z</time>
      </trkpt>
      <trkpt lat="37.003586003556848" lon="-2.717636972665787">
        <ele>474.55000000000001</ele>
        <time>2025-05-12T12:20:18Z</time>
      </trkpt>
      <trkpt lat="37.003541998565197" lon="-2.717410996556282">
        <ele>474.06999999999999</ele>
        <time>2025-05-12T12:20:19Z</time>
      </trkpt>
      <trkpt lat="37.003497993573546" lon="-2.717182002961636">
        <ele>473.58999999999997</ele>
        <time>2025-05-12T12:20:20Z</time>
      </trkpt>
      <trkpt lat="37.003476032987237" lon="-2.716939011588693">
        <ele>473.58999999999997</ele>
        <time>2025-05-12T12:20:21Z</time>
      </trkpt>
      <trkpt lat="37.003310993313789" lon="-2.715717013925314">
        <ele>470.69999999999999</ele>
        <time>2025-05-12T12:20:26Z</time>
      </trkpt>
      <trkpt lat="37.003218960016966" lon="-2.715485002845526">
        <ele>470.22000000000003</ele>
        <time>2025-05-12T12:20:27Z</time>
      </trkpt>
      <trkpt lat="37.003112006932497" lon="-2.715258020907641">
        <ele>469.74000000000001</ele>
        <time>2025-05-12T12:20:28Z</time>
      </trkpt>
      <trkpt lat="37.002978986129165" lon="-2.715046964585781">
        <ele>469.25999999999999</ele>
        <time>2025-05-12T12:20:29Z</time>
      </trkpt>
      <trkpt lat="37.002831967547536" lon="-2.714852001518011">
        <ele>468.77999999999997</ele>
        <time>2025-05-12T12:20:30Z</time>
      </trkpt>
      <trkpt lat="37.002681009471416" lon="-2.714659972116351">
        <ele>468.30000000000001</ele>
        <time>2025-05-12T12:20:31Z</time>
      </trkpt>
      <trkpt lat="37.001649029552937" lon="-2.713057016953826">
        <ele>463.49000000000001</ele>
        <time>2025-05-12T12:20:39Z</time>
      </trkpt>
      <trkpt lat="37.00054001994431" lon="-2.711125994101167">
        <ele>460.61000000000001</ele>
        <time>2025-05-12T12:20:48Z</time>
      </trkpt>
      <trkpt lat="37.000412028282881" lon="-2.7109170332551">
        <ele>460.13</ele>
        <time>2025-05-12T12:20:49Z</time>
      </trkpt>
      <trkpt lat="37.000331981107593" lon="-2.710679993033409">
        <ele>459.64999999999998</ele>
        <time>2025-05-12T12:20:50Z</time>
      </trkpt>
      <trkpt lat="37.000259980559349" lon="-2.710426021367312">
        <ele>459.17000000000002</ele>
        <time>2025-05-12T12:20:51Z</time>
      </trkpt>
      <trkpt lat="37.000186974182725" lon="-2.710168026387692">
        <ele>459.17000000000002</ele>
        <time>2025-05-12T12:20:52Z</time>
      </trkpt>
      <trkpt lat="37.000143975019455" lon="-2.709902990609407">
        <ele>459.17000000000002</ele>
        <time>2025-05-12T12:20:53Z</time>
      </trkpt>
      <trkpt lat="37.00013198889792" lon="-2.709636026993394">
        <ele>459.17000000000002</ele>
        <time>2025-05-12T12:20:54Z</time>
      </trkpt>
      <trkpt lat="37.000118996948004" lon="-2.709368979558349">
        <ele>458.69</ele>
        <time>2025-05-12T12:20:55Z</time>
      </trkpt>
      <trkpt lat="37.00002302415669" lon="-2.708277991041541">
        <ele>457.24000000000001</ele>
        <time>2025-05-12T12:20:59Z</time>
      </trkpt>
      <trkpt lat="36.999954041093588" lon="-2.708013039082289">
        <ele>457.24000000000001</ele>
        <time>2025-05-12T12:21:00Z</time>
      </trkpt>
      <trkpt lat="36.99985203333199" lon="-2.707757977768779">
        <ele>457.24000000000001</ele>
        <time>2025-05-12T12:21:01Z</time>
      </trkpt>
      <trkpt lat="36.999748013913631" lon="-2.707497971132398">
        <ele>457.24000000000001</ele>
        <time>2025-05-12T12:21:02Z</time>
      </trkpt>
      <trkpt lat="36.99963896535337" lon="-2.707240981981158">
        <ele>457.24000000000001</ele>
        <time>2025-05-12T12:21:03Z</time>
      </trkpt>
      <trkpt lat="36.999491024762392" lon="-2.707018023356795">
        <ele>457.24000000000001</ele>
        <time>2025-05-12T12:21:04Z</time>
      </trkpt>
      <trkpt lat="36.999340988695621" lon="-2.706789029762149">
        <ele>457.24000000000001</ele>
        <time>2025-05-12T12:21:05Z</time>
      </trkpt>
      <trkpt lat="36.999048963189125" lon="-2.706330036744475">
        <ele>457.24000000000001</ele>
        <time>2025-05-12T12:21:07Z</time>
      </trkpt>
      <trkpt lat="36.998902028426528" lon="-2.706100037321448">
        <ele>457.24000000000001</ele>
        <time>2025-05-12T12:21:08Z</time>
      </trkpt>
      <trkpt lat="36.998784011229873" lon="-2.705848999321461">
        <ele>456.75999999999999</ele>
        <time>2025-05-12T12:21:09Z</time>
      </trkpt>
      <trkpt lat="36.998683009296656" lon="-2.705581029877067">
        <ele>456.75999999999999</ele>
        <time>2025-05-12T12:21:10Z</time>
      </trkpt>
      <trkpt lat="36.99858502484858" lon="-2.705319011583924">
        <ele>456.75999999999999</ele>
        <time>2025-05-12T12:21:11Z</time>
      </trkpt>
      <trkpt lat="36.99854495935142" lon="-2.705021034926176">
        <ele>456.75999999999999</ele>
        <time>2025-05-12T12:21:12Z</time>
      </trkpt>
      <trkpt lat="36.998504977673292" lon="-2.704722974449396">
        <ele>456.27999999999997</ele>
        <time>2025-05-12T12:21:13Z</time>
      </trkpt>
      <trkpt lat="36.998464995995164" lon="-2.704422986134887">
        <ele>455.80000000000001</ele>
        <time>2025-05-12T12:21:14Z</time>
      </trkpt>
      <trkpt lat="36.998156039044261" lon="-2.702004974707961">
        <ele>452.44</ele>
        <time>2025-05-12T12:21:22Z</time>
      </trkpt>
      <trkpt lat="36.998082026839256" lon="-2.701716972514987">
        <ele>451.95999999999998</ele>
        <time>2025-05-12T12:21:23Z</time>
      </trkpt>
      <trkpt lat="36.99796300381422" lon="-2.701456965878606">
        <ele>451.95999999999998</ele>
        <time>2025-05-12T12:21:24Z</time>
      </trkpt>
      <trkpt lat="36.99783400632441" lon="-2.701198970898986">
        <ele>451.48000000000002</ele>
        <time>2025-05-12T12:21:25Z</time>
      </trkpt>
      <trkpt lat="36.997695034369826" lon="-2.700952040031552">
        <ele>451.48000000000002</ele>
        <time>2025-05-12T12:21:26Z</time>
      </trkpt>
      <trkpt lat="36.996071040630341" lon="-2.697796002030373">
        <ele>438.5</ele>
        <time>2025-05-12T12:21:38Z</time>
      </trkpt>
      <trkpt lat="36.995746996253729" lon="-2.695950977504253">
        <ele>433.20999999999998</ele>
        <time>2025-05-12T12:21:44Z</time>
      </trkpt>
      <trkpt lat="36.995933996513486" lon="-2.693884000182152">
        <ele>430.32999999999998</ele>
        <time>2025-05-12T12:21:51Z</time>
      </trkpt>
      <trkpt lat="36.995984958484769" lon="-2.693318976089358">
        <ele>429.37</ele>
        <time>2025-05-12T12:21:53Z</time>
      </trkpt>
      <trkpt lat="36.995960986241698" lon="-2.6930439658463">
        <ele>428.88999999999999</ele>
        <time>2025-05-12T12:21:54Z</time>
      </trkpt>
      <trkpt lat="36.995927039533854" lon="-2.692769961431623">
        <ele>428.39999999999998</ele>
        <time>2025-05-12T12:21:55Z</time>
      </trkpt>
      <trkpt lat="36.995516996830702" lon="-2.690923009067774">
        <ele>426.95999999999998</ele>
        <time>2025-05-12T12:22:03Z</time>
      </trkpt>
      <trkpt lat="36.99497401714325" lon="-2.689096005633473">
        <ele>422.16000000000003</ele>
        <time>2025-05-12T12:22:10Z</time>
      </trkpt>
      <trkpt lat="36.994464984163642" lon="-2.68754200078547">
        <ele>416.38999999999999</ele>
        <time>2025-05-12T12:22:16Z</time>
      </trkpt>
      <trkpt lat="36.994464984163642" lon="-2.687317030504346">
        <ele>415.43000000000001</ele>
        <time>2025-05-12T12:22:17Z</time>
      </trkpt>
      <trkpt lat="36.994464984163642" lon="-2.687103962525725">
        <ele>414.94999999999999</ele>
        <time>2025-05-12T12:22:18Z</time>
      </trkpt>
      <trkpt lat="36.994464984163642" lon="-2.686864994466305">
        <ele>414.47000000000003</ele>
        <time>2025-05-12T12:22:19Z</time>
      </trkpt>
      <trkpt lat="36.994489040225744" lon="-2.686689980328083">
        <ele>413.98000000000002</ele>
        <time>2025-05-12T12:22:20Z</time>
      </trkpt>
      <trkpt lat="36.994776036590338" lon="-2.684902958571911">
        <ele>408.69999999999999</ele>
        <time>2025-05-12T12:22:30Z</time>
      </trkpt>
      <trkpt lat="36.995326979085803" lon="-2.683766959235072">
        <ele>406.76999999999998</ele>
        <time>2025-05-12T12:22:39Z</time>
      </trkpt>
      <trkpt lat="36.995523031800985" lon="-2.683376027271152">
        <ele>404.85000000000002</ele>
        <time>2025-05-12T12:22:42Z</time>
      </trkpt>
      <trkpt lat="36.996154021471739" lon="-2.681603003293276">
        <ele>401.49000000000001</ele>
        <time>2025-05-12T12:22:55Z</time>
      </trkpt>
      <trkpt lat="36.996482005342841" lon="-2.680191993713379">
        <ele>401.00999999999999</ele>
        <time>2025-05-12T12:23:05Z</time>
      </trkpt>
      <trkpt lat="36.996496003121138" lon="-2.680029971525073">
        <ele>401.00999999999999</ele>
        <time>2025-05-12T12:23:06Z</time>
      </trkpt>
      <trkpt lat="36.996475970372558" lon="-2.679880019277334">
        <ele>400.52999999999997</ele>
        <time>2025-05-12T12:23:07Z</time>
      </trkpt>
      <trkpt lat="36.996456021443009" lon="-2.679731994867325">
        <ele>400.52999999999997</ele>
        <time>2025-05-12T12:23:08Z</time>
      </trkpt>
      <trkpt lat="36.99643699452281" lon="-2.679585982114077">
        <ele>400.05000000000001</ele>
        <time>2025-05-12T12:23:09Z</time>
      </trkpt>
      <trkpt lat="36.996415033936501" lon="-2.679436029866338">
        <ele>400.05000000000001</ele>
        <time>2025-05-12T12:23:10Z</time>
      </trkpt>
      <trkpt lat="36.996360970661044" lon="-2.679302003234625">
        <ele>399.56999999999999</ele>
        <time>2025-05-12T12:23:11Z</time>
      </trkpt>
      <trkpt lat="36.996303973719478" lon="-2.67916495911777">
        <ele>399.56999999999999</ele>
        <time>2025-05-12T12:23:12Z</time>
      </trkpt>
      <trkpt lat="36.996248988434672" lon="-2.679027998819947">
        <ele>399.07999999999998</ele>
        <time>2025-05-12T12:23:13Z</time>
      </trkpt>
      <trkpt lat="36.995480032637715" lon="-2.677866015583277">
        <ele>398.12</ele>
        <time>2025-05-12T12:23:23Z</time>
      </trkpt>
      <trkpt lat="36.995413983240724" lon="-2.677736012265086">
        <ele>398.12</ele>
        <time>2025-05-12T12:23:24Z</time>
      </trkpt>
      <trkpt lat="36.995350029319525" lon="-2.677607014775276">
        <ele>398.12</ele>
        <time>2025-05-12T12:23:25Z</time>
      </trkpt>
      <trkpt lat="36.995300995185971" lon="-2.67746401950717">
        <ele>398.12</ele>
        <time>2025-05-12T12:23:26Z</time>
      </trkpt>
      <trkpt lat="36.995035037398338" lon="-2.676000958308578">
        <ele>397.16000000000003</ele>
        <time>2025-05-12T12:23:33Z</time>
      </trkpt>
      <trkpt lat="36.995021961629391" lon="-2.675229990854859">
        <ele>396.19999999999999</ele>
        <time>2025-05-12T12:23:36Z</time>
      </trkpt>
      <trkpt lat="36.995063032954931" lon="-2.674960009753704">
        <ele>396.19999999999999</ele>
        <time>2025-05-12T12:23:37Z</time>
      </trkpt>
      <trkpt lat="36.995106032118201" lon="-2.674686005339027">
        <ele>395.72000000000003</ele>
        <time>2025-05-12T12:23:38Z</time>
      </trkpt>
      <trkpt lat="36.99516898021102" lon="-2.674416024237871">
        <ele>395.24000000000001</ele>
        <time>2025-05-12T12:23:39Z</time>
      </trkpt>
      <trkpt lat="36.995263025164604" lon="-2.674153000116348">
        <ele>395.24000000000001</ele>
        <time>2025-05-12T12:23:40Z</time>
      </trkpt>
      <trkpt lat="36.995356986299157" lon="-2.673887964338064">
        <ele>395.24000000000001</ele>
        <time>2025-05-12T12:23:41Z</time>
      </trkpt>
      <trkpt lat="36.995495036244392" lon="-2.673641033470631">
        <ele>394.27999999999997</ele>
        <time>2025-05-12T12:23:42Z</time>
      </trkpt>
      <trkpt lat="36.996617959812284" lon="-2.672074036672711">
        <ele>391.87</ele>
        <time>2025-05-12T12:23:49Z</time>
      </trkpt>
      <trkpt lat="36.997351963073015" lon="-2.671043984591961">
        <ele>395.24000000000001</ele>
        <time>2025-05-12T12:23:54Z</time>
      </trkpt>
      <trkpt lat="36.997432010248303" lon="-2.670829994603992">
        <ele>395.72000000000003</ele>
        <time>2025-05-12T12:23:55Z</time>
      </trkpt>
      <trkpt lat="36.997460005804896" lon="-2.670588009059429">
        <ele>396.19999999999999</ele>
        <time>2025-05-12T12:23:56Z</time>
      </trkpt>
      <trkpt lat="36.997488001361489" lon="-2.670345017686486">
        <ele>396.68000000000001</ele>
        <time>2025-05-12T12:23:57Z</time>
      </trkpt>
      <trkpt lat="36.9974460080266" lon="-2.670098003000021">
        <ele>397.16000000000003</ele>
        <time>2025-05-12T12:23:58Z</time>
      </trkpt>
      <trkpt lat="36.997396973893046" lon="-2.669857023283839">
        <ele>397.63999999999999</ele>
        <time>2025-05-12T12:23:59Z</time>
      </trkpt>
      <trkpt lat="36.997331008315086" lon="-2.66962400637567">
        <ele>398.12</ele>
        <time>2025-05-12T12:24:00Z</time>
      </trkpt>
      <trkpt lat="36.997215002775192" lon="-2.669420996680856">
        <ele>398.60000000000002</ele>
        <time>2025-05-12T12:24:01Z</time>
      </trkpt>
      <trkpt lat="36.997092962265015" lon="-2.669214969500899">
        <ele>399.07999999999998</ele>
        <time>2025-05-12T12:24:02Z</time>
      </trkpt>
      <trkpt lat="36.996943010017276" lon="-2.669041967019439">
        <ele>399.07999999999998</ele>
        <time>2025-05-12T12:24:03Z</time>
      </trkpt>
      <trkpt lat="36.995311975479126" lon="-2.667041039094329">
        <ele>400.05000000000001</ele>
        <time>2025-05-12T12:24:14Z</time>
      </trkpt>
      <trkpt lat="36.994722979143262" lon="-2.665585018694401">
        <ele>403.88999999999999</ele>
        <time>2025-05-12T12:24:21Z</time>
      </trkpt>
      <trkpt lat="36.994579983875155" lon="-2.663978040218353">
        <ele>405.81</ele>
        <time>2025-05-12T12:24:28Z</time>
      </trkpt>
      <trkpt lat="36.99460999108851" lon="-2.663747034966946">
        <ele>405.81</ele>
        <time>2025-05-12T12:24:29Z</time>
      </trkpt>
      <trkpt lat="36.994685009121895" lon="-2.663317965343595">
        <ele>404.85000000000002</ele>
        <time>2025-05-12T12:24:31Z</time>
      </trkpt>
      <trkpt lat="36.994733959436417" lon="-2.663107998669148">
        <ele>404.85000000000002</ele>
        <time>2025-05-12T12:24:32Z</time>
      </trkpt>
      <trkpt lat="36.995511967688799" lon="-2.661097012460232">
        <ele>400.05000000000001</ele>
        <time>2025-05-12T12:24:42Z</time>
      </trkpt>
      <trkpt lat="36.995691005140543" lon="-2.660673977807164">
        <ele>399.07999999999998</ele>
        <time>2025-05-12T12:24:44Z</time>
      </trkpt>
      <trkpt lat="36.995761999860406" lon="-2.660450013354421">
        <ele>398.60000000000002</ele>
        <time>2025-05-12T12:24:45Z</time>
      </trkpt>
      <trkpt lat="36.995823020115495" lon="-2.660224959254265">
        <ele>397.63999999999999</ele>
        <time>2025-05-12T12:24:46Z</time>
      </trkpt>
      <trkpt lat="36.995849004015326" lon="-2.659989008679986">
        <ele>397.16000000000003</ele>
        <time>2025-05-12T12:24:47Z</time>
      </trkpt>
      <trkpt lat="36.995873982086778" lon="-2.65976001508534">
        <ele>396.68000000000001</ele>
        <time>2025-05-12T12:24:48Z</time>
      </trkpt>
      <trkpt lat="36.995865013450384" lon="-2.659526998177171">
        <ele>396.19999999999999</ele>
        <time>2025-05-12T12:24:49Z</time>
      </trkpt>
      <trkpt lat="36.995843974873424" lon="-2.659291969612241">
        <ele>395.72000000000003</ele>
        <time>2025-05-12T12:24:50Z</time>
      </trkpt>
      <trkpt lat="36.995782032608986" lon="-2.659070016816258">
        <ele>395.24000000000001</ele>
        <time>2025-05-12T12:24:51Z</time>
      </trkpt>
      <trkpt lat="36.995698967948556" lon="-2.658858960494399">
        <ele>395.24000000000001</ele>
        <time>2025-05-12T12:24:52Z</time>
      </trkpt>
      <trkpt lat="36.995604000985622" lon="-2.658653017133474">
        <ele>395.24000000000001</ele>
        <time>2025-05-12T12:24:53Z</time>
      </trkpt>
      <trkpt lat="36.995510961860418" lon="-2.65845101326704">
        <ele>395.72000000000003</ele>
        <time>2025-05-12T12:24:54Z</time>
      </trkpt>
      <trkpt lat="36.995390010997653" lon="-2.658269964158535">
        <ele>396.68000000000001</ele>
        <time>2025-05-12T12:24:55Z</time>
      </trkpt>
      <trkpt lat="36.995253972709179" lon="-2.658108025789261">
        <ele>397.16000000000003</ele>
        <time>2025-05-12T12:24:56Z</time>
      </trkpt>
      <trkpt lat="36.995101002976298" lon="-2.657972993329167">
        <ele>398.12</ele>
        <time>2025-05-12T12:24:57Z</time>
      </trkpt>
      <trkpt lat="36.994949961081147" lon="-2.657839972525835">
        <ele>399.07999999999998</ele>
        <time>2025-05-12T12:24:58Z</time>
      </trkpt>
      <trkpt lat="36.994790034368634" lon="-2.65772002749145">
        <ele>400.52999999999997</ele>
        <time>2025-05-12T12:24:59Z</time>
      </trkpt>
      <trkpt lat="36.992918020114303" lon="-2.65645201317966">
        <ele>421.68000000000001</ele>
        <time>2025-05-12T12:25:11Z</time>
      </trkpt>
      <trkpt lat="36.992262974381447" lon="-2.655996037647128">
        <ele>428.39999999999998</ele>
        <time>2025-05-12T12:25:15Z</time>
      </trkpt>
      <trkpt lat="36.992126014083624" lon="-2.655838038772345">
        <ele>430.32999999999998</ele>
        <time>2025-05-12T12:25:16Z</time>
      </trkpt>
      <trkpt lat="36.992001961916685" lon="-2.655651960521936">
        <ele>431.76999999999998</ele>
        <time>2025-05-12T12:25:17Z</time>
      </trkpt>
      <trkpt lat="36.991876987740397" lon="-2.655464960262179">
        <ele>432.73000000000002</ele>
        <time>2025-05-12T12:25:18Z</time>
      </trkpt>
      <trkpt lat="36.991798030212522" lon="-2.6552480366081">
        <ele>433.69</ele>
        <time>2025-05-12T12:25:19Z</time>
      </trkpt>
      <trkpt lat="36.991718988865614" lon="-2.655018959194422">
        <ele>434.64999999999998</ele>
        <time>2025-05-12T12:25:20Z</time>
      </trkpt>
      <trkpt lat="36.99164598248899" lon="-2.654784014448524">
        <ele>435.61000000000001</ele>
        <time>2025-05-12T12:25:21Z</time>
      </trkpt>
      <trkpt lat="36.991611029952765" lon="-2.654533982276917">
        <ele>436.10000000000002</ele>
        <time>2025-05-12T12:25:22Z</time>
      </trkpt>
      <trkpt lat="36.991611029952765" lon="-2.654277998954058">
        <ele>436.10000000000002</ele>
        <time>2025-05-12T12:25:23Z</time>
      </trkpt>
      <trkpt lat="36.991611029952765" lon="-2.654028972610831">
        <ele>436.10000000000002</ele>
        <time>2025-05-12T12:25:24Z</time>
      </trkpt>
      <trkpt lat="36.991630978882313" lon="-2.65110301785171">
        <ele>428.88999999999999</ele>
        <time>2025-05-12T12:25:36Z</time>
      </trkpt>
      <trkpt lat="36.991339037194848" lon="-2.649723021313548">
        <ele>425.04000000000002</ele>
        <time>2025-05-12T12:25:42Z</time>
      </trkpt>
      <trkpt lat="36.990516018122435" lon="-2.648046975955367">
        <ele>420.23000000000002</ele>
        <time>2025-05-12T12:25:50Z</time>
      </trkpt>
      <trkpt lat="36.988999983295798" lon="-2.645134013146162">
        <ele>435.61000000000001</ele>
        <time>2025-05-12T12:26:04Z</time>
      </trkpt>
      <trkpt lat="36.988473013043404" lon="-2.644394980743527">
        <ele>440.42000000000002</ele>
        <time>2025-05-12T12:26:08Z</time>
      </trkpt>
      <trkpt lat="36.988310990855098" lon="-2.644233964383602">
        <ele>441.38</ele>
        <time>2025-05-12T12:26:09Z</time>
      </trkpt>
      <trkpt lat="36.987011041492224" lon="-2.642997968941927">
        <ele>445.23000000000002</ele>
        <time>2025-05-12T12:26:17Z</time>
      </trkpt>
      <trkpt lat="36.985774962231517" lon="-2.641539014875889">
        <ele>451.48000000000002</ele>
        <time>2025-05-12T12:26:26Z</time>
      </trkpt>
      <trkpt lat="36.984578026458621" lon="-2.640818003565073">
        <ele>457.72000000000003</ele>
        <time>2025-05-12T12:26:33Z</time>
      </trkpt>
      <trkpt lat="36.983645958825946" lon="-2.640147032216191">
        <ele>459.64999999999998</ele>
        <time>2025-05-12T12:26:39Z</time>
      </trkpt>
      <trkpt lat="36.983514027670026" lon="-2.639971012249589">
        <ele>459.64999999999998</ele>
        <time>2025-05-12T12:26:40Z</time>
      </trkpt>
      <trkpt lat="36.983384024351835" lon="-2.639789963141084">
        <ele>459.64999999999998</ele>
        <time>2025-05-12T12:26:41Z</time>
      </trkpt>
      <trkpt lat="36.98328603990376" lon="-2.639576978981495">
        <ele>459.64999999999998</ele>
        <time>2025-05-12T12:26:42Z</time>
      </trkpt>
      <trkpt lat="36.983185037970543" lon="-2.639358965680003">
        <ele>459.64999999999998</ele>
        <time>2025-05-12T12:26:43Z</time>
      </trkpt>
      <trkpt lat="36.982774995267391" lon="-2.638480961322784">
        <ele>459.17000000000002</ele>
        <time>2025-05-12T12:26:47Z</time>
      </trkpt>
      <trkpt lat="36.982647003605962" lon="-2.638282980769873">
        <ele>458.69</ele>
        <time>2025-05-12T12:26:48Z</time>
      </trkpt>
      <trkpt lat="36.982509959489107" lon="-2.638094974681735">
        <ele>458.69</ele>
        <time>2025-05-12T12:26:49Z</time>
      </trkpt>
      <trkpt lat="36.982306027784944" lon="-2.637964971363545">
        <ele>458.20999999999998</ele>
        <time>2025-05-12T12:26:50Z</time>
      </trkpt>
      <trkpt lat="36.982110980898142" lon="-2.637870004400611">
        <ele>457.72000000000003</ele>
        <time>2025-05-12T12:26:51Z</time>
      </trkpt>
      <trkpt lat="36.981916017830372" lon="-2.637800015509129">
        <ele>457.24000000000001</ele>
        <time>2025-05-12T12:26:52Z</time>
      </trkpt>
      <trkpt lat="36.981726000085473" lon="-2.637732038274407">
        <ele>456.75999999999999</ele>
        <time>2025-05-12T12:26:53Z</time>
      </trkpt>
      <trkpt lat="36.980693014338613" lon="-2.637357031926513">
        <ele>451.95999999999998</ele>
        <time>2025-05-12T12:26:59Z</time>
      </trkpt>
      <trkpt lat="36.980562005192041" lon="-2.637235997244716">
        <ele>451.48000000000002</ele>
        <time>2025-05-12T12:27:00Z</time>
      </trkpt>
      <trkpt lat="36.980440970510244" lon="-2.637104988098145">
        <ele>450.02999999999997</ele>
        <time>2025-05-12T12:27:01Z</time>
      </trkpt>
      <trkpt lat="36.980348015204072" lon="-2.636942965909839">
        <ele>449.06999999999999</ele>
        <time>2025-05-12T12:27:02Z</time>
      </trkpt>
      <trkpt lat="36.980256987735629" lon="-2.636771975085139">
        <ele>448.11000000000001</ele>
        <time>2025-05-12T12:27:03Z</time>
      </trkpt>
      <trkpt lat="36.980186998844147" lon="-2.636581035330892">
        <ele>447.14999999999998</ele>
        <time>2025-05-12T12:27:04Z</time>
      </trkpt>
      <trkpt lat="36.980153974145651" lon="-2.636372996494174">
        <ele>446.19</ele>
        <time>2025-05-12T12:27:05Z</time>
      </trkpt>
      <trkpt lat="36.980138970538974" lon="-2.636147020384669">
        <ele>444.75</ele>
        <time>2025-05-12T12:27:06Z</time>
      </trkpt>
      <trkpt lat="36.980163026601076" lon="-2.635916015133262">
        <ele>443.79000000000002</ele>
        <time>2025-05-12T12:27:07Z</time>
      </trkpt>
      <trkpt lat="36.980185993015766" lon="-2.635684004053474">
        <ele>442.33999999999997</ele>
        <time>2025-05-12T12:27:08Z</time>
      </trkpt>
      <trkpt lat="36.980223963037133" lon="-2.634951006621122">
        <ele>437.54000000000002</ele>
        <time>2025-05-12T12:27:11Z</time>
      </trkpt>
      <trkpt lat="36.980208037421107" lon="-2.634696029126644">
        <ele>436.10000000000002</ele>
        <time>2025-05-12T12:27:12Z</time>
      </trkpt>
      <trkpt lat="36.980175012722611" lon="-2.63445102609694">
        <ele>434.64999999999998</ele>
        <time>2025-05-12T12:27:13Z</time>
      </trkpt>
      <trkpt lat="36.980093037709594" lon="-2.634222032502294">
        <ele>433.69</ele>
        <time>2025-05-12T12:27:14Z</time>
      </trkpt>
      <trkpt lat="36.980012990534306" lon="-2.633997984230518">
        <ele>432.73000000000002</ele>
        <time>2025-05-12T12:27:15Z</time>
      </trkpt>
      <trkpt lat="36.97991500608623" lon="-2.633806960657239">
        <ele>432.25</ele>
        <time>2025-05-12T12:27:16Z</time>
      </trkpt>
      <trkpt lat="36.979791959747672" lon="-2.633618032559753">
        <ele>431.76999999999998</ele>
        <time>2025-05-12T12:27:17Z</time>
      </trkpt>
      <trkpt lat="36.979659022763371" lon="-2.633414017036557">
        <ele>431.76999999999998</ele>
        <time>2025-05-12T12:27:18Z</time>
      </trkpt>
      <trkpt lat="36.97950697503984" lon="-2.633293988183141">
        <ele>432.25</ele>
        <time>2025-05-12T12:27:19Z</time>
      </trkpt>
      <trkpt lat="36.979343025013804" lon="-2.633164990693331">
        <ele>432.73000000000002</ele>
        <time>2025-05-12T12:27:20Z</time>
      </trkpt>
      <trkpt lat="36.979172034189105" lon="-2.633060971274972">
        <ele>433.20999999999998</ele>
        <time>2025-05-12T12:27:21Z</time>
      </trkpt>
      <trkpt lat="36.978987967595458" lon="-2.632987964898348">
        <ele>433.69</ele>
        <time>2025-05-12T12:27:22Z</time>
      </trkpt>
      <trkpt lat="36.978107029572129" lon="-2.632607007399201">
        <ele>438.01999999999998</ele>
        <time>2025-05-12T12:27:27Z</time>
      </trkpt>
      <trkpt lat="36.977946013212204" lon="-2.63249603100121">
        <ele>439.45999999999998</ele>
        <time>2025-05-12T12:27:28Z</time>
      </trkpt>
      <trkpt lat="36.977794971317053" lon="-2.632365021854639">
        <ele>440.42000000000002</ele>
        <time>2025-05-12T12:27:29Z</time>
      </trkpt>
      <trkpt lat="36.977652981877327" lon="-2.632223032414913">
        <ele>441.86000000000001</ele>
        <time>2025-05-12T12:27:30Z</time>
      </trkpt>
      <trkpt lat="36.977531025186181" lon="-2.632050029933453">
        <ele>442.81999999999999</ele>
        <time>2025-05-12T12:27:31Z</time>
      </trkpt>
      <trkpt lat="36.977418037131429" lon="-2.631870992481709">
        <ele>444.26999999999998</ele>
        <time>2025-05-12T12:27:32Z</time>
      </trkpt>
      <trkpt lat="36.977317035198212" lon="-2.631674017757177">
        <ele>445.70999999999998</ele>
        <time>2025-05-12T12:27:33Z</time>
      </trkpt>
      <trkpt lat="36.977231958881021" lon="-2.631472013890743">
        <ele>447.63</ele>
        <time>2025-05-12T12:27:34Z</time>
      </trkpt>
      <trkpt lat="36.977159958332777" lon="-2.631261041387916">
        <ele>449.06999999999999</ele>
        <time>2025-05-12T12:27:35Z</time>
      </trkpt>
      <trkpt lat="36.976360995322466" lon="-2.628445979207754">
        <ele>464.93000000000001</ele>
        <time>2025-05-12T12:27:47Z</time>
      </trkpt>
      <trkpt lat="36.976070981472731" lon="-2.627761010080576">
        <ele>469.74000000000001</ele>
        <time>2025-05-12T12:27:50Z</time>
      </trkpt>
      <trkpt lat="36.975954975932837" lon="-2.627550037577748">
        <ele>471.18000000000001</ele>
        <time>2025-05-12T12:27:51Z</time>
      </trkpt>
      <trkpt lat="36.97581198066473" lon="-2.62736395932734">
        <ele>472.13999999999999</ele>
        <time>2025-05-12T12:27:52Z</time>
      </trkpt>
      <trkpt lat="36.975664040073752" lon="-2.627183999866247">
        <ele>473.58999999999997</ele>
        <time>2025-05-12T12:27:53Z</time>
      </trkpt>
      <trkpt lat="36.975517021492124" lon="-2.627006974071264">
        <ele>474.55000000000001</ele>
        <time>2025-05-12T12:27:54Z</time>
      </trkpt>
      <trkpt lat="36.975345024839044" lon="-2.626863978803158">
        <ele>475.99000000000001</ele>
        <time>2025-05-12T12:27:55Z</time>
      </trkpt>
      <trkpt lat="36.9751659873873" lon="-2.62673799879849">
        <ele>476.47000000000003</ele>
        <time>2025-05-12T12:27:56Z</time>
      </trkpt>
      <trkpt lat="36.974976975470781" lon="-2.62663196772337">
        <ele>477.43000000000001</ele>
        <time>2025-05-12T12:27:57Z</time>
      </trkpt>
      <trkpt lat="36.974782012403011" lon="-2.626533983275294">
        <ele>477.91000000000003</ele>
        <time>2025-05-12T12:27:58Z</time>
      </trkpt>
      <trkpt lat="36.974574979394674" lon="-2.626462988555431">
        <ele>478.87</ele>
        <time>2025-05-12T12:27:59Z</time>
      </trkpt>
      <trkpt lat="36.974364006891847" lon="-2.626402974128723">
        <ele>479.35000000000002</ele>
        <time>2025-05-12T12:28:00Z</time>
      </trkpt>
      <trkpt lat="36.972960038110614" lon="-2.625809032469988">
        <ele>480.80000000000001</ele>
        <time>2025-05-12T12:28:07Z</time>
      </trkpt>
      <trkpt lat="36.97278100065887" lon="-2.625676011666656">
        <ele>481.27999999999997</ele>
        <time>2025-05-12T12:28:08Z</time>
      </trkpt>
      <trkpt lat="36.972626019269228" lon="-2.625497980043292">
        <ele>481.27999999999997</ele>
        <time>2025-05-12T12:28:09Z</time>
      </trkpt>
      <trkpt lat="36.972470032051206" lon="-2.625318020582199">
        <ele>481.75999999999999</ele>
        <time>2025-05-12T12:28:10Z</time>
      </trkpt>
      <trkpt lat="36.972324019297957" lon="-2.625134959816933">
        <ele>482.72000000000003</ele>
        <time>2025-05-12T12:28:11Z</time>
      </trkpt>
      <trkpt lat="36.972198039293289" lon="-2.624930022284389">
        <ele>483.68000000000001</ele>
        <time>2025-05-12T12:28:12Z</time>
      </trkpt>
      <trkpt lat="36.972088990733027" lon="-2.624712008982897">
        <ele>484.16000000000003</ele>
        <time>2025-05-12T12:28:13Z</time>
      </trkpt>
      <trkpt lat="36.971999974921346" lon="-2.624486032873392">
        <ele>485.60000000000002</ele>
        <time>2025-05-12T12:28:14Z</time>
      </trkpt>
      <trkpt lat="36.971917999908328" lon="-2.624258967116475">
        <ele>487.05000000000001</ele>
        <time>2025-05-12T12:28:15Z</time>
      </trkpt>
      <trkpt lat="36.971108978614211" lon="-2.621983028948307">
        <ele>494.74000000000001</ele>
        <time>2025-05-12T12:28:25Z</time>
      </trkpt>
      <trkpt lat="36.970972018316388" lon="-2.621779013425112">
        <ele>495.22000000000003</ele>
        <time>2025-05-12T12:28:26Z</time>
      </trkpt>
      <trkpt lat="36.970813013613224" lon="-2.621591007336974">
        <ele>495.22000000000003</ele>
        <time>2025-05-12T12:28:27Z</time>
      </trkpt>
      <trkpt lat="36.970640011131763" lon="-2.621426973491907">
        <ele>495.22000000000003</ele>
        <time>2025-05-12T12:28:28Z</time>
      </trkpt>
      <trkpt lat="36.970456028357148" lon="-2.621275009587407">
        <ele>494.74000000000001</ele>
        <time>2025-05-12T12:28:29Z</time>
      </trkpt>
      <trkpt lat="36.970255030319095" lon="-2.62119404040277">
        <ele>495.22000000000003</ele>
        <time>2025-05-12T12:28:30Z</time>
      </trkpt>
      <trkpt lat="36.970056965947151" lon="-2.621114999055862">
        <ele>494.74000000000001</ele>
        <time>2025-05-12T12:28:31Z</time>
      </trkpt>
      <trkpt lat="36.969865020364523" lon="-2.62104501016438">
        <ele>494.74000000000001</ele>
        <time>2025-05-12T12:28:32Z</time>
      </trkpt>
      <trkpt lat="36.969322962686419" lon="-2.620819034054875">
        <ele>493.76999999999998</ele>
        <time>2025-05-12T12:28:35Z</time>
      </trkpt>
      <trkpt lat="36.969160018488765" lon="-2.620720965787768">
        <ele>493.76999999999998</ele>
        <time>2025-05-12T12:28:36Z</time>
      </trkpt>
      <trkpt lat="36.969005037099123" lon="-2.620600014925003">
        <ele>493.29000000000002</ele>
        <time>2025-05-12T12:28:37Z</time>
      </trkpt>
      <trkpt lat="36.968844020739198" lon="-2.620475040748715">
        <ele>492.81</ele>
        <time>2025-05-12T12:28:38Z</time>
      </trkpt>
      <trkpt lat="36.968706976622343" lon="-2.620348976925015">
        <ele>492.81</ele>
        <time>2025-05-12T12:28:39Z</time>
      </trkpt>
      <trkpt lat="36.967588998377323" lon="-2.619618996977806">
        <ele>492.81</ele>
        <time>2025-05-12T12:28:46Z</time>
      </trkpt>
      <trkpt lat="36.966190980747342" lon="-2.618894968181849">
        <ele>493.76999999999998</ele>
        <time>2025-05-12T12:28:54Z</time>
      </trkpt>
      <trkpt lat="36.965422024950385" lon="-2.617896012961865">
        <ele>494.74000000000001</ele>
        <time>2025-05-12T12:29:00Z</time>
      </trkpt>
      <trkpt lat="36.964714005589485" lon="-2.616006983444095">
        <ele>497.62</ele>
        <time>2025-05-12T12:29:09Z</time>
      </trkpt>
      <trkpt lat="36.963853016495705" lon="-2.613582015037537">
        <ele>506.75</ele>
        <time>2025-05-12T12:29:21Z</time>
      </trkpt>
      <trkpt lat="36.962908040732145" lon="-2.610867032781243">
        <ele>513</ele>
        <time>2025-05-12T12:29:33Z</time>
      </trkpt>
      <trkpt lat="36.961732981726527" lon="-2.607655003666878">
        <ele>514.91999999999996</ele>
        <time>2025-05-12T12:29:47Z</time>
      </trkpt>
      <trkpt lat="36.961507005617023" lon="-2.607245966792107">
        <ele>514.91999999999996</ele>
        <time>2025-05-12T12:29:49Z</time>
      </trkpt>
      <trkpt lat="36.96137398481369" lon="-2.60705603286624">
        <ele>514.91999999999996</ele>
        <time>2025-05-12T12:29:50Z</time>
      </trkpt>
      <trkpt lat="36.960716005414724" lon="-2.60611399076879">
        <ele>515.88</ele>
        <time>2025-05-12T12:29:55Z</time>
      </trkpt>
      <trkpt lat="36.960626989603043" lon="-2.605892037972808">
        <ele>516.37</ele>
        <time>2025-05-12T12:29:56Z</time>
      </trkpt>
      <trkpt lat="36.960548032075167" lon="-2.60566396638751">
        <ele>516.37</ele>
        <time>2025-05-12T12:29:57Z</time>
      </trkpt>
      <trkpt lat="36.960472008213401" lon="-2.605435978621244">
        <ele>516.37</ele>
        <time>2025-05-12T12:29:58Z</time>
      </trkpt>
      <trkpt lat="36.960424985736609" lon="-2.605199022218585">
        <ele>516.85000000000002</ele>
        <time>2025-05-12T12:29:59Z</time>
      </trkpt>
      <trkpt lat="36.960411993786693" lon="-2.604960976168513">
        <ele>517.33000000000004</ele>
        <time>2025-05-12T12:30:00Z</time>
      </trkpt>
      <trkpt lat="36.960411993786693" lon="-2.604708010330796">
        <ele>517.80999999999995</ele>
        <time>2025-05-12T12:30:01Z</time>
      </trkpt>
      <trkpt lat="36.960416017100215" lon="-2.604462001472712">
        <ele>517.80999999999995</ele>
        <time>2025-05-12T12:30:02Z</time>
      </trkpt>
      <trkpt lat="36.960482988506556" lon="-2.601701002568007">
        <ele>527.41999999999996</ele>
        <time>2025-05-12T12:30:13Z</time>
      </trkpt>
      <trkpt lat="36.960109993815422" lon="-2.600051024928689">
        <ele>539.91999999999996</ele>
        <time>2025-05-12T12:30:20Z</time>
      </trkpt>
      <trkpt lat="36.960089961066842" lon="-2.599810967221856">
        <ele>541.84000000000003</ele>
        <time>2025-05-12T12:30:21Z</time>
      </trkpt>
      <trkpt lat="36.960102031007409" lon="-2.599575016647577">
        <ele>543.27999999999997</ele>
        <time>2025-05-12T12:30:22Z</time>
      </trkpt>
      <trkpt lat="36.960118962451816" lon="-2.599334958940744">
        <ele>544.72000000000003</ele>
        <time>2025-05-12T12:30:23Z</time>
      </trkpt>
      <trkpt lat="36.96014896966517" lon="-2.599096996709704">
        <ele>546.64999999999998</ele>
        <time>2025-05-12T12:30:24Z</time>
      </trkpt>
      <trkpt lat="36.960177971050143" lon="-2.598857022821903">
        <ele>548.09000000000003</ele>
        <time>2025-05-12T12:30:25Z</time>
      </trkpt>
      <trkpt lat="36.960259024053812" lon="-2.598167024552822">
        <ele>552.89999999999998</ele>
        <time>2025-05-12T12:30:28Z</time>
      </trkpt>
      <trkpt lat="36.960220970213413" lon="-2.597953034564853">
        <ele>554.82000000000005</ele>
        <time>2025-05-12T12:30:29Z</time>
      </trkpt>
      <trkpt lat="36.960171014070511" lon="-2.597737032920122">
        <ele>556.25999999999999</ele>
        <time>2025-05-12T12:30:30Z</time>
      </trkpt>
      <trkpt lat="36.960100019350648" lon="-2.597525976598263">
        <ele>558.17999999999995</ele>
        <time>2025-05-12T12:30:31Z</time>
      </trkpt>
      <trkpt lat="36.960005974397063" lon="-2.597317015752196">
        <ele>560.11000000000001</ele>
        <time>2025-05-12T12:30:32Z</time>
      </trkpt>
      <trkpt lat="36.959894997999072" lon="-2.597115011885762">
        <ele>562.02999999999997</ele>
        <time>2025-05-12T12:30:33Z</time>
      </trkpt>
      <trkpt lat="36.958852959796786" lon="-2.595419017598033">
        <ele>573.55999999999995</ele>
        <time>2025-05-12T12:30:42Z</time>
      </trkpt>
      <trkpt lat="36.958405030891299" lon="-2.59472600184381">
        <ele>574.03999999999996</ele>
        <time>2025-05-12T12:30:46Z</time>
      </trkpt>
      <trkpt lat="36.958298999816179" lon="-2.594551993533969">
        <ele>573.55999999999995</ele>
        <time>2025-05-12T12:30:47Z</time>
      </trkpt>
      <trkpt lat="36.958219036459923" lon="-2.594362981617451">
        <ele>572.60000000000002</ele>
        <time>2025-05-12T12:30:48Z</time>
      </trkpt>
      <trkpt lat="36.958167990669608" lon="-2.594153014943004">
        <ele>572.12</ele>
        <time>2025-05-12T12:30:49Z</time>
      </trkpt>
      <trkpt lat="36.958121974021196" lon="-2.593922009691596">
        <ele>571.63999999999999</ele>
        <time>2025-05-12T12:30:50Z</time>
      </trkpt>
      <trkpt lat="36.958088027313352" lon="-2.593685975298286">
        <ele>570.67999999999995</ele>
        <time>2025-05-12T12:30:51Z</time>
      </trkpt>
      <trkpt lat="36.958073023706675" lon="-2.593417000025511">
        <ele>569.72000000000003</ele>
        <time>2025-05-12T12:30:52Z</time>
      </trkpt>
      <trkpt lat="36.958109987899661" lon="-2.593174008652568">
        <ele>569.24000000000001</ele>
        <time>2025-05-12T12:30:53Z</time>
      </trkpt>
      <trkpt lat="36.95817100815475" lon="-2.59292297065258">
        <ele>568.75999999999999</ele>
        <time>2025-05-12T12:30:54Z</time>
      </trkpt>
      <trkpt lat="36.958235967904329" lon="-2.592670004814863">
        <ele>567.79999999999995</ele>
        <time>2025-05-12T12:30:55Z</time>
      </trkpt>
      <trkpt lat="36.958338981494308" lon="-2.59214898571372">
        <ele>565.87</ele>
        <time>2025-05-12T12:30:57Z</time>
      </trkpt>
      <trkpt lat="36.958380974829197" lon="-2.591894008219242">
        <ele>564.90999999999997</ele>
        <time>2025-05-12T12:30:58Z</time>
      </trkpt>
      <trkpt lat="36.958367982879281" lon="-2.591641964390874">
        <ele>563.47000000000003</ele>
        <time>2025-05-12T12:30:59Z</time>
      </trkpt>
      <trkpt lat="36.958329007029533" lon="-2.591398973017931">
        <ele>562.50999999999999</ele>
        <time>2025-05-12T12:31:00Z</time>
      </trkpt>
      <trkpt lat="36.958254994824529" lon="-2.59116000495851">
        <ele>561.54999999999995</ele>
        <time>2025-05-12T12:31:01Z</time>
      </trkpt>
      <trkpt lat="36.958148963749409" lon="-2.590938974171877">
        <ele>561.07000000000005</ele>
        <time>2025-05-12T12:31:02Z</time>
      </trkpt>
      <trkpt lat="36.958033964037895" lon="-2.590707968920469">
        <ele>560.11000000000001</ele>
        <time>2025-05-12T12:31:03Z</time>
      </trkpt>
      <trkpt lat="36.957601960748434" lon="-2.589796017855406">
        <ele>557.70000000000005</ele>
        <time>2025-05-12T12:31:07Z</time>
      </trkpt>
      <trkpt lat="36.957540018483996" lon="-2.589551014825702">
        <ele>557.22000000000003</ele>
        <time>2025-05-12T12:31:08Z</time>
      </trkpt>
      <trkpt lat="36.957490984350443" lon="-2.589297965168953">
        <ele>556.25999999999999</ele>
        <time>2025-05-12T12:31:09Z</time>
      </trkpt>
      <trkpt lat="36.95748302154243" lon="-2.589037036523223">
        <ele>555.77999999999997</ele>
        <time>2025-05-12T12:31:10Z</time>
      </trkpt>
      <trkpt lat="36.957474974915385" lon="-2.588772000744939">
        <ele>555.77999999999997</ele>
        <time>2025-05-12T12:31:11Z</time>
      </trkpt>
      <trkpt lat="36.957487966865301" lon="-2.588509982451797">
        <ele>555.77999999999997</ele>
        <time>2025-05-12T12:31:12Z</time>
      </trkpt>
      <trkpt lat="36.957513028755784" lon="-2.588246958330274">
        <ele>555.29999999999995</ele>
        <time>2025-05-12T12:31:13Z</time>
      </trkpt>
      <trkpt lat="36.957572037354112" lon="-2.587993992492557">
        <ele>555.29999999999995</ele>
        <time>2025-05-12T12:31:14Z</time>
      </trkpt>
      <trkpt lat="36.957635991275311" lon="-2.587738009169698">
        <ele>554.82000000000005</ele>
        <time>2025-05-12T12:31:15Z</time>
      </trkpt>
      <trkpt lat="36.958303023129702" lon="-2.584711974486709">
        <ele>541.36000000000001</ele>
        <time>2025-05-12T12:31:26Z</time>
      </trkpt>
      <trkpt lat="36.958969971165061" lon="-2.582260016351938">
        <ele>526.94000000000005</ele>
        <time>2025-05-12T12:31:35Z</time>
      </trkpt>
      <trkpt lat="36.959179015830159" lon="-2.581773027777672">
        <ele>523.58000000000004</ele>
        <time>2025-05-12T12:31:37Z</time>
      </trkpt>
      <trkpt lat="36.960263969376683" lon="-2.579336995258927">
        <ele>508.67000000000002</ele>
        <time>2025-05-12T12:31:47Z</time>
      </trkpt>
      <trkpt lat="36.961163012310863" lon="-2.576787974685431">
        <ele>496.18000000000001</ele>
        <time>2025-05-12T12:31:57Z</time>
      </trkpt>
      <trkpt lat="36.962258024141192" lon="-2.574771959334612">
        <ele>492.32999999999998</ele>
        <time>2025-05-12T12:32:06Z</time>
      </trkpt>
      <trkpt lat="36.962706036865711" lon="-2.573147965595126">
        <ele>490.41000000000003</ele>
        <time>2025-05-12T12:32:13Z</time>
      </trkpt>
      <trkpt lat="36.96270695887506" lon="-2.572410022839904">
        <ele>490.41000000000003</ele>
        <time>2025-05-12T12:32:18Z</time>
      </trkpt>
      <trkpt lat="36.96270695887506" lon="-2.572243977338076">
        <ele>490.41000000000003</ele>
        <time>2025-05-12T12:32:21Z</time>
      </trkpt>
      <trkpt lat="36.96270695887506" lon="-2.572178011760116">
        <ele>490.41000000000003</ele>
        <time>2025-05-12T12:32:22Z</time>
      </trkpt>
      <trkpt lat="36.962850037962198" lon="-2.571928985416889">
        <ele>490.41000000000003</ele>
        <time>2025-05-12T12:32:25Z</time>
      </trkpt>
      <trkpt lat="36.962900999933481" lon="-2.571895038709045">
        <ele>489.93000000000001</ele>
        <time>2025-05-12T12:32:26Z</time>
      </trkpt>
      <trkpt lat="36.963151032105088" lon="-2.57169303484261">
        <ele>488.00999999999999</ele>
        <time>2025-05-12T12:32:29Z</time>
      </trkpt>
      <trkpt lat="36.963212974369526" lon="-2.571603013202548">
        <ele>487.52999999999997</ele>
        <time>2025-05-12T12:32:30Z</time>
      </trkpt>
      <trkpt lat="36.96371597237885" lon="-2.570571033284068">
        <ele>482.72000000000003</ele>
        <time>2025-05-12T12:32:39Z</time>
      </trkpt>
      <trkpt lat="36.963737010955811" lon="-2.570478999987245">
        <ele>481.75999999999999</ele>
        <time>2025-05-12T12:32:40Z</time>
      </trkpt>
      <trkpt lat="36.963709015399218" lon="-2.570219999179244">
        <ele>480.80000000000001</ele>
        <time>2025-05-12T12:32:42Z</time>
      </trkpt>
      <trkpt lat="36.963699962943792" lon="-2.570093013346195">
        <ele>480.80000000000001</ele>
        <time>2025-05-12T12:32:43Z</time>
      </trkpt>
      <trkpt lat="36.963684959337115" lon="-2.56997499614954">
        <ele>480.31999999999999</ele>
        <time>2025-05-12T12:32:44Z</time>
      </trkpt>
      <trkpt lat="36.963647995144129" lon="-2.569844992831349">
        <ele>479.83999999999997</ele>
        <time>2025-05-12T12:32:45Z</time>
      </trkpt>
      <trkpt lat="36.963609019294381" lon="-2.569709038361907">
        <ele>479.35000000000002</ele>
        <time>2025-05-12T12:32:46Z</time>
      </trkpt>
      <trkpt lat="36.963598961010575" lon="-2.569556990638375">
        <ele>478.87</ele>
        <time>2025-05-12T12:32:47Z</time>
      </trkpt>
      <trkpt lat="36.96358697488904" lon="-2.569384993985295">
        <ele>478.38999999999999</ele>
        <time>2025-05-12T12:32:48Z</time>
      </trkpt>
      <trkpt lat="36.963560990989208" lon="-2.569263959303498">
        <ele>477.43000000000001</ele>
        <time>2025-05-12T12:32:49Z</time>
      </trkpt>
      <trkpt lat="36.963527966290712" lon="-2.569109983742237">
        <ele>476.47000000000003</ele>
        <time>2025-05-12T12:32:50Z</time>
      </trkpt>
      <trkpt lat="36.963494019582868" lon="-2.568956008180976">
        <ele>475.99000000000001</ele>
        <time>2025-05-12T12:32:51Z</time>
      </trkpt>
      <trkpt lat="36.963473986834288" lon="-2.568803038448095">
        <ele>475.02999999999997</ele>
        <time>2025-05-12T12:32:52Z</time>
      </trkpt>
      <trkpt lat="36.963463006541133" lon="-2.56864202208817">
        <ele>474.55000000000001</ele>
        <time>2025-05-12T12:32:53Z</time>
      </trkpt>
      <trkpt lat="36.96356400847435" lon="-2.567163035273552">
        <ele>465.89999999999998</ele>
        <time>2025-05-12T12:33:01Z</time>
      </trkpt>
      <trkpt lat="36.963656963780522" lon="-2.566606979817152">
        <ele>464.44999999999999</ele>
        <time>2025-05-12T12:33:04Z</time>
      </trkpt>
      <trkpt lat="36.963701974600554" lon="-2.566426014527679">
        <ele>463.97000000000003</ele>
        <time>2025-05-12T12:33:05Z</time>
      </trkpt>
      <trkpt lat="36.96380197070539" lon="-2.566143963485956">
        <ele>463.97000000000003</ele>
        <time>2025-05-12T12:33:07Z</time>
      </trkpt>
      <trkpt lat="36.963817980140448" lon="-2.566028963774443">
        <ele>463.49000000000001</ele>
        <time>2025-05-12T12:33:08Z</time>
      </trkpt>
      <trkpt lat="36.963796019554138" lon="-2.565930979326367">
        <ele>463.00999999999999</ele>
        <time>2025-05-12T12:33:09Z</time>
      </trkpt>
      <trkpt lat="36.963746985420585" lon="-2.565816985443234">
        <ele>462.52999999999997</ele>
        <time>2025-05-12T12:33:10Z</time>
      </trkpt>
      <trkpt lat="36.963696023449302" lon="-2.565696034580469">
        <ele>462.05000000000001</ele>
        <time>2025-05-12T12:33:11Z</time>
      </trkpt>
      <trkpt lat="36.963640032336116" lon="-2.565566031262279">
        <ele>461.56999999999999</ele>
        <time>2025-05-12T12:33:12Z</time>
      </trkpt>
      <trkpt lat="36.963482033461332" lon="-2.565174009650946">
        <ele>460.61000000000001</ele>
        <time>2025-05-12T12:33:15Z</time>
      </trkpt>
      <trkpt lat="36.963465018197894" lon="-2.565047023817897">
        <ele>460.13</ele>
        <time>2025-05-12T12:33:16Z</time>
      </trkpt>
      <trkpt lat="36.963480021804571" lon="-2.564944010227919">
        <ele>459.17000000000002</ele>
        <time>2025-05-12T12:33:17Z</time>
      </trkpt>
      <trkpt lat="36.963557973504066" lon="-2.564873015508056">
        <ele>458.20999999999998</ele>
        <time>2025-05-12T12:33:18Z</time>
      </trkpt>
      <trkpt lat="36.963638020679355" lon="-2.564801014959812">
        <ele>457.72000000000003</ele>
        <time>2025-05-12T12:33:19Z</time>
      </trkpt>
      <trkpt lat="36.963738016784191" lon="-2.564729014411569">
        <ele>456.27999999999997</ele>
        <time>2025-05-12T12:33:20Z</time>
      </trkpt>
      <trkpt lat="36.964188041165471" lon="-2.564514018595219">
        <ele>452.92000000000002</ele>
        <time>2025-05-12T12:33:24Z</time>
      </trkpt>
      <trkpt lat="36.964299017563462" lon="-2.564529022201896">
        <ele>451.95999999999998</ele>
        <time>2025-05-12T12:33:25Z</time>
      </trkpt>
      <trkpt lat="36.964371018111706" lon="-2.564575038850308">
        <ele>451.95999999999998</ele>
        <time>2025-05-12T12:33:26Z</time>
      </trkpt>
      <trkpt lat="36.964432038366795" lon="-2.5646479614079">
        <ele>451.48000000000002</ele>
        <time>2025-05-12T12:33:27Z</time>
      </trkpt>
      <trkpt lat="36.96446699090302" lon="-2.564748041331768">
        <ele>451</ele>
        <time>2025-05-12T12:33:28Z</time>
      </trkpt>
      <trkpt lat="36.964498003944755" lon="-2.564875027164817">
        <ele>451</ele>
        <time>2025-05-12T12:33:29Z</time>
      </trkpt>
      <trkpt lat="36.96453102864325" lon="-2.565006958320737">
        <ele>451</ele>
        <time>2025-05-12T12:33:30Z</time>
      </trkpt>
      <trkpt lat="36.964544020593166" lon="-2.565145008265972">
        <ele>450.51999999999998</ele>
        <time>2025-05-12T12:33:31Z</time>
      </trkpt>
      <trkpt lat="36.964557012543082" lon="-2.565293032675982">
        <ele>450.51999999999998</ele>
        <time>2025-05-12T12:33:32Z</time>
      </trkpt>
      <trkpt lat="36.964572016149759" lon="-2.565451031550765">
        <ele>450.51999999999998</ele>
        <time>2025-05-12T12:33:33Z</time>
      </trkpt>
      <trkpt lat="36.964587019756436" lon="-2.565617999061942">
        <ele>450.51999999999998</ele>
        <time>2025-05-12T12:33:34Z</time>
      </trkpt>
      <trkpt lat="36.96461602114141" lon="-2.565792007371783">
        <ele>450.02999999999997</ele>
        <time>2025-05-12T12:33:35Z</time>
      </trkpt>
      <trkpt lat="36.965102003887296" lon="-2.567615993320942">
        <ele>446.19</ele>
        <time>2025-05-12T12:33:45Z</time>
      </trkpt>
      <trkpt lat="36.96532697416842" lon="-2.568444963544607">
        <ele>441.38</ele>
        <time>2025-05-12T12:33:50Z</time>
      </trkpt>
      <trkpt lat="36.965366033837199" lon="-2.568603968247771">
        <ele>439.94</ele>
        <time>2025-05-12T12:33:51Z</time>
      </trkpt>
      <trkpt lat="36.965466029942036" lon="-2.568709999322891">
        <ele>438.98000000000002</ele>
        <time>2025-05-12T12:33:52Z</time>
      </trkpt>
      <trkpt lat="36.965560996904969" lon="-2.568804966285825">
        <ele>438.01999999999998</ele>
        <time>2025-05-12T12:33:53Z</time>
      </trkpt>
      <trkpt lat="36.965672979131341" lon="-2.568843020126224">
        <ele>437.54000000000002</ele>
        <time>2025-05-12T12:33:54Z</time>
      </trkpt>
      <trkpt lat="36.965794013813138" lon="-2.568884007632732">
        <ele>437.06</ele>
        <time>2025-05-12T12:33:55Z</time>
      </trkpt>
      <trkpt lat="36.967144003137946" lon="-2.569391028955579">
        <ele>434.17000000000002</ele>
        <time>2025-05-12T12:34:05Z</time>
      </trkpt>
      <trkpt lat="36.967371990904212" lon="-2.569469986483455">
        <ele>433.20999999999998</ele>
        <time>2025-05-12T12:34:07Z</time>
      </trkpt>
      <trkpt lat="36.967468969523907" lon="-2.569469986483455">
        <ele>432.73000000000002</ele>
        <time>2025-05-12T12:34:08Z</time>
      </trkpt>
      <trkpt lat="36.96754097007215" lon="-2.569439979270101">
        <ele>432.25</ele>
        <time>2025-05-12T12:34:09Z</time>
      </trkpt>
      <trkpt lat="36.967617999762297" lon="-2.56935297511518">
        <ele>431.76999999999998</ele>
        <time>2025-05-12T12:34:10Z</time>
      </trkpt>
      <trkpt lat="36.967698968946934" lon="-2.569261025637388">
        <ele>430.81</ele>
        <time>2025-05-12T12:34:11Z</time>
      </trkpt>
      <trkpt lat="36.967913964763284" lon="-2.56892298348248">
        <ele>428.39999999999998</ele>
        <time>2025-05-12T12:34:14Z</time>
      </trkpt>
      <trkpt lat="36.967958975583315" lon="-2.568818964064121">
        <ele>427.44</ele>
        <time>2025-05-12T12:34:15Z</time>
      </trkpt>
      <trkpt lat="36.967945983633399" lon="-2.568729026243091">
        <ele>426.48000000000002</ele>
        <time>2025-05-12T12:34:16Z</time>
      </trkpt>
      <trkpt lat="36.967921005561948" lon="-2.568631963804364">
        <ele>425.51999999999998</ele>
        <time>2025-05-12T12:34:17Z</time>
      </trkpt>
      <trkpt lat="36.967901978641748" lon="-2.568514030426741">
        <ele>424.56</ele>
        <time>2025-05-12T12:34:18Z</time>
      </trkpt>
      <trkpt lat="36.967909019440413" lon="-2.568380003795028">
        <ele>424.07999999999998</ele>
        <time>2025-05-12T12:34:19Z</time>
      </trkpt>
      <trkpt lat="36.967916982248425" lon="-2.568232985213399">
        <ele>423.12</ele>
        <time>2025-05-12T12:34:20Z</time>
      </trkpt>
      <trkpt lat="36.967912958934903" lon="-2.568072974681854">
        <ele>422.63999999999999</ele>
        <time>2025-05-12T12:34:21Z</time>
      </trkpt>
      <trkpt lat="36.967889992520213" lon="-2.567897960543633">
        <ele>421.68000000000001</ele>
        <time>2025-05-12T12:34:22Z</time>
      </trkpt>
      <trkpt lat="36.967825032770634" lon="-2.567360009998083">
        <ele>419.26999999999998</ele>
        <time>2025-05-12T12:34:25Z</time>
      </trkpt>
      <trkpt lat="36.967767030000687" lon="-2.567196981981397">
        <ele>418.31</ele>
        <time>2025-05-12T12:34:26Z</time>
      </trkpt>
      <trkpt lat="36.967648006975651" lon="-2.566862963140011">
        <ele>416.38999999999999</ele>
        <time>2025-05-12T12:34:28Z</time>
      </trkpt>
      <trkpt lat="36.967617999762297" lon="-2.566698007285595">
        <ele>414.94999999999999</ele>
        <time>2025-05-12T12:34:29Z</time>
      </trkpt>
      <trkpt lat="36.967611964792013" lon="-2.566531039774418">
        <ele>413.98000000000002</ele>
        <time>2025-05-12T12:34:30Z</time>
      </trkpt>
      <trkpt lat="36.967599978670478" lon="-2.566178999841213">
        <ele>411.57999999999998</ele>
        <time>2025-05-12T12:34:32Z</time>
      </trkpt>
      <trkpt lat="36.967526972293854" lon="-2.565572988241911">
        <ele>407.74000000000001</ele>
        <time>2025-05-12T12:34:36Z</time>
      </trkpt>
      <trkpt lat="36.967547005042434" lon="-2.565481038764119">
        <ele>407.25999999999999</ele>
        <time>2025-05-12T12:34:37Z</time>
      </trkpt>
      <trkpt lat="36.967592015862465" lon="-2.565397974103689">
        <ele>406.76999999999998</ele>
        <time>2025-05-12T12:34:38Z</time>
      </trkpt>
      <trkpt lat="36.967662004753947" lon="-2.565320022404194">
        <ele>406.29000000000002</ele>
        <time>2025-05-12T12:34:39Z</time>
      </trkpt>
      <trkpt lat="36.967740962281823" lon="-2.565234024077654">
        <ele>406.29000000000002</ele>
        <time>2025-05-12T12:34:40Z</time>
      </trkpt>
      <trkpt lat="36.967840036377311" lon="-2.5651849899441">
        <ele>406.76999999999998</ele>
        <time>2025-05-12T12:34:41Z</time>
      </trkpt>
      <trkpt lat="36.967935003340244" lon="-2.565163029357791">
        <ele>406.76999999999998</ele>
        <time>2025-05-12T12:34:42Z</time>
      </trkpt>
      <trkpt lat="36.968027958646417" lon="-2.56514098495245">
        <ele>407.25999999999999</ele>
        <time>2025-05-12T12:34:43Z</time>
      </trkpt>
      <trkpt lat="36.968125021085143" lon="-2.565163029357791">
        <ele>407.25999999999999</ele>
        <time>2025-05-12T12:34:44Z</time>
      </trkpt>
      <trkpt lat="36.968227028846741" lon="-2.565199993550777">
        <ele>407.25999999999999</ele>
        <time>2025-05-12T12:34:45Z</time>
      </trkpt>
      <trkpt lat="36.968328030779958" lon="-2.565263025462627">
        <ele>407.25999999999999</ele>
        <time>2025-05-12T12:34:46Z</time>
      </trkpt>
      <trkpt lat="36.968422997742891" lon="-2.565357992425561">
        <ele>407.25999999999999</ele>
        <time>2025-05-12T12:34:47Z</time>
      </trkpt>
      <trkpt lat="36.968516036868095" lon="-2.565451031550765">
        <ele>407.74000000000001</ele>
        <time>2025-05-12T12:34:48Z</time>
      </trkpt>
      <trkpt lat="36.968600023537874" lon="-2.56554801017046">
        <ele>407.25999999999999</ele>
        <time>2025-05-12T12:34:49Z</time>
      </trkpt>
      <trkpt lat="36.96865500882268" lon="-2.565666027367115">
        <ele>407.25999999999999</ele>
        <time>2025-05-12T12:34:50Z</time>
      </trkpt>
      <trkpt lat="36.968688033521175" lon="-2.565802987664938">
        <ele>406.76999999999998</ele>
        <time>2025-05-12T12:34:51Z</time>
      </trkpt>
      <trkpt lat="36.968838991597295" lon="-2.566387038677931">
        <ele>404.85000000000002</ele>
        <time>2025-05-12T12:34:55Z</time>
      </trkpt>
      <trkpt lat="36.968905040994287" lon="-2.566502960398793">
        <ele>404.37</ele>
        <time>2025-05-12T12:34:56Z</time>
      </trkpt>
      <trkpt lat="36.968997996300459" lon="-2.566583007574081">
        <ele>403.88999999999999</ele>
        <time>2025-05-12T12:34:57Z</time>
      </trkpt>
      <trkpt lat="36.969094974920154" lon="-2.566660959273577">
        <ele>403.41000000000003</ele>
        <time>2025-05-12T12:34:58Z</time>
      </trkpt>
      <trkpt lat="36.969191031530499" lon="-2.566702030599117">
        <ele>402.93000000000001</ele>
        <time>2025-05-12T12:34:59Z</time>
      </trkpt>
      <trkpt lat="36.969282981008291" lon="-2.566702030599117">
        <ele>402.44999999999999</ele>
        <time>2025-05-12T12:35:00Z</time>
      </trkpt>
      <trkpt lat="36.969370990991592" lon="-2.566702030599117">
        <ele>401.97000000000003</ele>
        <time>2025-05-12T12:35:01Z</time>
      </trkpt>
      <trkpt lat="36.969437962397933" lon="-2.566652996465564">
        <ele>401.49000000000001</ele>
        <time>2025-05-12T12:35:02Z</time>
      </trkpt>
      <trkpt lat="36.969509962946177" lon="-2.566589964553714">
        <ele>401.49000000000001</ele>
        <time>2025-05-12T12:35:03Z</time>
      </trkpt>
      <trkpt lat="36.96955899707973" lon="-2.566531039774418">
        <ele>401.00999999999999</ele>
        <time>2025-05-12T12:35:04Z</time>
      </trkpt>
      <trkpt lat="36.969587998464704" lon="-2.566433977335692">
        <ele>400.52999999999997</ele>
        <time>2025-05-12T12:35:05Z</time>
      </trkpt>
      <trkpt lat="36.969616999849677" lon="-2.566338004544377">
        <ele>400.05000000000001</ele>
        <time>2025-05-12T12:35:06Z</time>
      </trkpt>
      <trkpt lat="36.969642983749509" lon="-2.566197020933032">
        <ele>399.56999999999999</ele>
        <time>2025-05-12T12:35:07Z</time>
      </trkpt>
      <trkpt lat="36.969767035916448" lon="-2.565383976325393">
        <ele>394.27999999999997</ele>
        <time>2025-05-12T12:35:12Z</time>
      </trkpt>
      <trkpt lat="36.969767035916448" lon="-2.565179038792849">
        <ele>393.31999999999999</ele>
        <time>2025-05-12T12:35:13Z</time>
      </trkpt>
      <trkpt lat="36.96971096098423" lon="-2.564596999436617">
        <ele>390.91000000000003</ele>
        <time>2025-05-12T12:35:16Z</time>
      </trkpt>
      <trkpt lat="36.969673996791244" lon="-2.564414022490382">
        <ele>389.94999999999999</ele>
        <time>2025-05-12T12:35:17Z</time>
      </trkpt>
      <trkpt lat="36.969421030953526" lon="-2.563538029789925">
        <ele>387.06999999999999</ele>
        <time>2025-05-12T12:35:22Z</time>
      </trkpt>
      <trkpt lat="36.969350958243012" lon="-2.563083982095122">
        <ele>386.11000000000001</ele>
        <time>2025-05-12T12:35:25Z</time>
      </trkpt>
      <trkpt lat="36.969337966293097" lon="-2.562947021797299">
        <ele>385.63</ele>
        <time>2025-05-12T12:35:26Z</time>
      </trkpt>
      <trkpt lat="36.969395969063044" lon="-2.562860017642379">
        <ele>385.63</ele>
        <time>2025-05-12T12:35:27Z</time>
      </trkpt>
      <trkpt lat="36.969466041773558" lon="-2.56275599822402">
        <ele>385.14999999999998</ele>
        <time>2025-05-12T12:35:28Z</time>
      </trkpt>
      <trkpt lat="36.969539970159531" lon="-2.562645021826029">
        <ele>384.66000000000003</ele>
        <time>2025-05-12T12:35:29Z</time>
      </trkpt>
      <trkpt lat="36.969678020104766" lon="-2.562436982989311">
        <ele>383.22000000000003</ele>
        <time>2025-05-12T12:35:31Z</time>
      </trkpt>
      <trkpt lat="36.969677014276385" lon="-2.562329024076462">
        <ele>382.74000000000001</ele>
        <time>2025-05-12T12:35:32Z</time>
      </trkpt>
      <trkpt lat="36.969671985134482" lon="-2.562199020758271">
        <ele>381.77999999999997</ele>
        <time>2025-05-12T12:35:33Z</time>
      </trkpt>
      <trkpt lat="36.969667039811611" lon="-2.562059964984655">
        <ele>381.30000000000001</ele>
        <time>2025-05-12T12:35:34Z</time>
      </trkpt>
      <trkpt lat="36.969662010669708" lon="-2.56191898137331">
        <ele>380.81999999999999</ele>
        <time>2025-05-12T12:35:35Z</time>
      </trkpt>
      <trkpt lat="36.969611970707774" lon="-2.561784032732248">
        <ele>379.86000000000001</ele>
        <time>2025-05-12T12:35:36Z</time>
      </trkpt>
      <trkpt lat="36.969541981816292" lon="-2.561651011928916">
        <ele>379.38</ele>
        <time>2025-05-12T12:35:37Z</time>
      </trkpt>
      <trkpt lat="36.969468975439668" lon="-2.561512039974332">
        <ele>378.42000000000002</ele>
        <time>2025-05-12T12:35:38Z</time>
      </trkpt>
      <trkpt lat="36.969391023740172" lon="-2.561364015564323">
        <ele>378.42000000000002</ele>
        <time>2025-05-12T12:35:39Z</time>
      </trkpt>
      <trkpt lat="36.969091035425663" lon="-2.56084400229156">
        <ele>377.44999999999999</ele>
        <time>2025-05-12T12:35:43Z</time>
      </trkpt>
      <trkpt lat="36.969029009342194" lon="-2.560748029500246">
        <ele>376.97000000000003</ele>
        <time>2025-05-12T12:35:44Z</time>
      </trkpt>
      <trkpt lat="36.968962037935853" lon="-2.560688015073538">
        <ele>376.97000000000003</ele>
        <time>2025-05-12T12:35:45Z</time>
      </trkpt>
      <trkpt lat="36.968873022124171" lon="-2.560669993981719">
        <ele>376.97000000000003</ele>
        <time>2025-05-12T12:35:46Z</time>
      </trkpt>
      <trkpt lat="36.968777971342206" lon="-2.56065096706152">
        <ele>376.49000000000001</ele>
        <time>2025-05-12T12:35:47Z</time>
      </trkpt>
      <trkpt lat="36.968426015228033" lon="-2.560580978170037">
        <ele>375.52999999999997</ele>
        <time>2025-05-12T12:35:50Z</time>
      </trkpt>
      <trkpt lat="36.968309003859758" lon="-2.560529010370374">
        <ele>375.52999999999997</ele>
        <time>2025-05-12T12:35:51Z</time>
      </trkpt>
      <trkpt lat="36.968194004148245" lon="-2.560428008437157">
        <ele>375.05000000000001</ele>
        <time>2025-05-12T12:35:52Z</time>
      </trkpt>
      <trkpt lat="36.967556979507208" lon="-2.559916963800788">
        <ele>372.64999999999998</ele>
        <time>2025-05-12T12:35:57Z</time>
      </trkpt>
      <trkpt lat="36.96743200533092" lon="-2.559878993779421">
        <ele>372.17000000000002</ele>
        <time>2025-05-12T12:35:58Z</time>
      </trkpt>
      <trkpt lat="36.967099998146296" lon="-2.559775980189443">
        <ele>369.27999999999997</ele>
        <time>2025-05-12T12:36:01Z</time>
      </trkpt>
      <trkpt lat="36.967056998983026" lon="-2.559697022661567">
        <ele>368.80000000000001</ele>
        <time>2025-05-12T12:36:02Z</time>
      </trkpt>
      <trkpt lat="36.967020034790039" lon="-2.55959996022284">
        <ele>368.31999999999999</ele>
        <time>2025-05-12T12:36:03Z</time>
      </trkpt>
      <trkpt lat="36.967033026739955" lon="-2.559474986046553">
        <ele>368.31999999999999</ele>
        <time>2025-05-12T12:36:04Z</time>
      </trkpt>
      <trkpt lat="36.967048030346632" lon="-2.559328973293304">
        <ele>368.31999999999999</ele>
        <time>2025-05-12T12:36:05Z</time>
      </trkpt>
      <trkpt lat="36.967063033953309" lon="-2.559170974418521">
        <ele>368.31999999999999</ele>
        <time>2025-05-12T12:36:06Z</time>
      </trkpt>
      <trkpt lat="36.967142997309566" lon="-2.559058992192149">
        <ele>367.83999999999997</ele>
        <time>2025-05-12T12:36:07Z</time>
      </trkpt>
      <trkpt lat="36.967231007292867" lon="-2.558936029672623">
        <ele>367.36000000000001</ele>
        <time>2025-05-12T12:36:08Z</time>
      </trkpt>
      <trkpt lat="36.96730300784111" lon="-2.558804014697671">
        <ele>366.88</ele>
        <time>2025-05-12T12:36:09Z</time>
      </trkpt>
      <trkpt lat="36.967361010611057" lon="-2.558655990287662">
        <ele>366.39999999999998</ele>
        <time>2025-05-12T12:36:10Z</time>
      </trkpt>
      <trkpt lat="36.967420019209385" lon="-2.55850100889802">
        <ele>365.92000000000002</ele>
        <time>2025-05-12T12:36:11Z</time>
      </trkpt>
      <trkpt lat="36.967477016150951" lon="-2.55835298448801">
        <ele>365.92000000000002</ele>
        <time>2025-05-12T12:36:12Z</time>
      </trkpt>
      <trkpt lat="36.967508029192686" lon="-2.558220969513059">
        <ele>364.95999999999998</ele>
        <time>2025-05-12T12:36:13Z</time>
      </trkpt>
      <trkpt lat="36.967481039464474" lon="-2.55811401642859">
        <ele>364.48000000000002</ele>
        <time>2025-05-12T12:36:14Z</time>
      </trkpt>
      <trkpt lat="36.967426976189017" lon="-2.558000022545457">
        <ele>364</ele>
        <time>2025-05-12T12:36:15Z</time>
      </trkpt>
      <trkpt lat="36.967366961762309" lon="-2.557872030884028">
        <ele>363.04000000000002</ele>
        <time>2025-05-12T12:36:16Z</time>
      </trkpt>
      <trkpt lat="36.967304013669491" lon="-2.557738004252315">
        <ele>362.55000000000001</ele>
        <time>2025-05-12T12:36:17Z</time>
      </trkpt>
      <trkpt lat="36.967156995087862" lon="-2.557370960712433">
        <ele>360.63</ele>
        <time>2025-05-12T12:36:20Z</time>
      </trkpt>
      <trkpt lat="36.967159006744623" lon="-2.557268030941486">
        <ele>360.14999999999998</ele>
        <time>2025-05-12T12:36:21Z</time>
      </trkpt>
      <trkpt lat="36.967184990644455" lon="-2.557169040665031">
        <ele>360.14999999999998</ele>
        <time>2025-05-12T12:36:22Z</time>
      </trkpt>
      <trkpt lat="36.967235030606389" lon="-2.557068038731813">
        <ele>359.19</ele>
        <time>2025-05-12T12:36:23Z</time>
      </trkpt>
      <trkpt lat="36.967293033376336" lon="-2.556952033191919">
        <ele>358.70999999999998</ele>
        <time>2025-05-12T12:36:24Z</time>
      </trkpt>
      <trkpt lat="36.967421025037766" lon="-2.556694960221648">
        <ele>358.23000000000002</ele>
        <time>2025-05-12T12:36:26Z</time>
      </trkpt>
      <trkpt lat="36.96747500449419" lon="-2.556554982438684">
        <ele>357.75</ele>
        <time>2025-05-12T12:36:27Z</time>
      </trkpt>
      <trkpt lat="36.967491013929248" lon="-2.556381979957223">
        <ele>357.26999999999998</ele>
        <time>2025-05-12T12:36:28Z</time>
      </trkpt>
      <trkpt lat="36.967544993385673" lon="-2.556026000529528">
        <ele>356.31</ele>
        <time>2025-05-12T12:36:30Z</time>
      </trkpt>
      <trkpt lat="36.967588998377323" lon="-2.555856015533209">
        <ele>355.82999999999998</ele>
        <time>2025-05-12T12:36:31Z</time>
      </trkpt>
      <trkpt lat="36.96773299947381" lon="-2.555445972830057">
        <ele>352.94</ele>
        <time>2025-05-12T12:36:34Z</time>
      </trkpt>
      <trkpt lat="36.967792008072138" lon="-2.55538403056562">
        <ele>351.98000000000002</ele>
        <time>2025-05-12T12:36:35Z</time>
      </trkpt>
      <trkpt lat="36.967844981700182" lon="-2.555353017523885">
        <ele>351.01999999999998</ele>
        <time>2025-05-12T12:36:36Z</time>
      </trkpt>
      <trkpt lat="36.96790399029851" lon="-2.555368021130562">
        <ele>350.54000000000002</ele>
        <time>2025-05-12T12:36:37Z</time>
      </trkpt>
      <trkpt lat="36.96794698946178" lon="-2.555414037778974">
        <ele>349.10000000000002</ele>
        <time>2025-05-12T12:36:38Z</time>
      </trkpt>
      <trkpt lat="36.967985965311527" lon="-2.555483020842075">
        <ele>347.64999999999998</ele>
        <time>2025-05-12T12:36:39Z</time>
      </trkpt>
      <trkpt lat="36.967985965311527" lon="-2.555590979754925">
        <ele>347.17000000000002</ele>
        <time>2025-05-12T12:36:40Z</time>
      </trkpt>
      <trkpt lat="36.967985965311527" lon="-2.555722994729877">
        <ele>346.20999999999998</ele>
        <time>2025-05-12T12:36:41Z</time>
      </trkpt>
      <trkpt lat="36.967985965311527" lon="-2.555875964462757">
        <ele>345.25</ele>
        <time>2025-05-12T12:36:42Z</time>
      </trkpt>
      <trkpt lat="36.967992000281811" lon="-2.556036980822682">
        <ele>344.76999999999998</ele>
        <time>2025-05-12T12:36:43Z</time>
      </trkpt>
      <trkpt lat="36.9680339936167" lon="-2.556191040202975">
        <ele>343.81</ele>
        <time>2025-05-12T12:36:44Z</time>
      </trkpt>
      <trkpt lat="36.968084033578634" lon="-2.556314002722502">
        <ele>343.32999999999998</ele>
        <time>2025-05-12T12:36:45Z</time>
      </trkpt>
      <trkpt lat="36.968134995549917" lon="-2.556407041847706">
        <ele>342.37</ele>
        <time>2025-05-12T12:36:46Z</time>
      </trkpt>
      <trkpt lat="36.968179000541568" lon="-2.556489016860724">
        <ele>341.88999999999999</ele>
        <time>2025-05-12T12:36:47Z</time>
      </trkpt>
      <trkpt lat="36.968253012746572" lon="-2.556461021304131">
        <ele>340.92000000000002</ele>
        <time>2025-05-12T12:36:48Z</time>
      </trkpt>
      <trkpt lat="36.968328030779958" lon="-2.556433025747538">
        <ele>339.95999999999998</ele>
        <time>2025-05-12T12:36:49Z</time>
      </trkpt>
      <trkpt lat="36.968373963609338" lon="-2.556366976350546">
        <ele>339</ele>
        <time>2025-05-12T12:36:50Z</time>
      </trkpt>
      <trkpt lat="36.968418974429369" lon="-2.556253988295794">
        <ele>338.04000000000002</ele>
        <time>2025-05-12T12:36:51Z</time>
      </trkpt>
      <trkpt lat="36.968470020219684" lon="-2.556127002462745">
        <ele>337.07999999999998</ele>
        <time>2025-05-12T12:36:52Z</time>
      </trkpt>
      <trkpt lat="36.968564987182617" lon="-2.555888034403324">
        <ele>334.68000000000001</ele>
        <time>2025-05-12T12:36:54Z</time>
      </trkpt>
      <trkpt lat="36.968546966090798" lon="-2.555745961144567">
        <ele>333.70999999999998</ele>
        <time>2025-05-12T12:36:55Z</time>
      </trkpt>
      <trkpt lat="36.968529028818011" lon="-2.555605983361602">
        <ele>332.26999999999998</ele>
        <time>2025-05-12T12:36:56Z</time>
      </trkpt>
      <trkpt lat="36.968511007726192" lon="-2.555467011407018">
        <ele>331.31</ele>
        <time>2025-05-12T12:36:57Z</time>
      </trkpt>
      <trkpt lat="36.968516958877444" lon="-2.55532200448215">
        <ele>330.35000000000002</ele>
        <time>2025-05-12T12:36:58Z</time>
      </trkpt>
      <trkpt lat="36.968545960262418" lon="-2.555196024477482">
        <ele>329.38999999999999</ele>
        <time>2025-05-12T12:36:59Z</time>
      </trkpt>
      <trkpt lat="36.968574961647391" lon="-2.555069960653782">
        <ele>328.43000000000001</ele>
        <time>2025-05-12T12:37:00Z</time>
      </trkpt>
      <trkpt lat="36.968602035194635" lon="-2.554949009791017">
        <ele>327.47000000000003</ele>
        <time>2025-05-12T12:37:01Z</time>
      </trkpt>
      <trkpt lat="36.968590971082449" lon="-2.554834010079503">
        <ele>326.5</ele>
        <time>2025-05-12T12:37:02Z</time>
      </trkpt>
      <trkpt lat="36.968531040474772" lon="-2.554765027016401">
        <ele>325.54000000000002</ele>
        <time>2025-05-12T12:37:03Z</time>
      </trkpt>
      <trkpt lat="36.968450993299484" lon="-2.554694032296538">
        <ele>324.57999999999998</ele>
        <time>2025-05-12T12:37:04Z</time>
      </trkpt>
      <trkpt lat="36.968368012458086" lon="-2.554621025919914">
        <ele>323.62</ele>
        <time>2025-05-12T12:37:05Z</time>
      </trkpt>
      <trkpt lat="36.968221999704838" lon="-2.554491022601724">
        <ele>321.69999999999999</ele>
        <time>2025-05-12T12:37:07Z</time>
      </trkpt>
      <trkpt lat="36.968158967792988" lon="-2.554416004568338">
        <ele>320.74000000000001</ele>
        <time>2025-05-12T12:37:08Z</time>
      </trkpt>
      <trkpt lat="36.968104988336563" lon="-2.554345009848476">
        <ele>319.77999999999997</ele>
        <time>2025-05-12T12:37:09Z</time>
      </trkpt>
      <trkpt lat="36.968008009716868" lon="-2.554214000701904">
        <ele>318.32999999999998</ele>
        <time>2025-05-12T12:37:11Z</time>
      </trkpt>
      <trkpt lat="36.968016978353262" lon="-2.554144011810422">
        <ele>317.85000000000002</ele>
        <time>2025-05-12T12:37:12Z</time>
      </trkpt>
      <trkpt lat="36.968022007495165" lon="-2.554029012098908">
        <ele>317.37</ele>
        <time>2025-05-12T12:37:13Z</time>
      </trkpt>
      <trkpt lat="36.968002980574965" lon="-2.553933961316943">
        <ele>317.37</ele>
        <time>2025-05-12T12:37:14Z</time>
      </trkpt>
      <trkpt lat="36.96798998862505" lon="-2.553827008232474">
        <ele>317.37</ele>
        <time>2025-05-12T12:37:15Z</time>
      </trkpt>
      <trkpt lat="36.968013038858771" lon="-2.553698010742664">
        <ele>317.37</ele>
        <time>2025-05-12T12:37:16Z</time>
      </trkpt>
      <trkpt lat="36.968034999445081" lon="-2.553572030737996">
        <ele>317.37</ele>
        <time>2025-05-12T12:37:17Z</time>
      </trkpt>
      <trkpt lat="36.968064000830054" lon="-2.553463988006115">
        <ele>317.85000000000002</ele>
        <time>2025-05-12T12:37:18Z</time>
      </trkpt>
      <trkpt lat="36.968125021085143" lon="-2.553372960537672">
        <ele>317.85000000000002</ele>
        <time>2025-05-12T12:37:19Z</time>
      </trkpt>
      <trkpt lat="36.968223005533218" lon="-2.553327027708292">
        <ele>317.85000000000002</ele>
        <time>2025-05-12T12:37:20Z</time>
      </trkpt>
      <trkpt lat="36.968335993587971" lon="-2.553332978859544">
        <ele>318.32999999999998</ele>
        <time>2025-05-12T12:37:21Z</time>
      </trkpt>
      <trkpt lat="36.968450993299484" lon="-2.55336600355804">
        <ele>318.32999999999998</ele>
        <time>2025-05-12T12:37:22Z</time>
      </trkpt>
      <trkpt lat="36.968560041859746" lon="-2.553397016599774">
        <ele>318.32999999999998</ele>
        <time>2025-05-12T12:37:23Z</time>
      </trkpt>
      <trkpt lat="36.968646040186286" lon="-2.553344964981079">
        <ele>317.85000000000002</ele>
        <time>2025-05-12T12:37:24Z</time>
      </trkpt>
      <trkpt lat="36.968700019642711" lon="-2.553287968039513">
        <ele>317.85000000000002</ele>
        <time>2025-05-12T12:37:25Z</time>
      </trkpt>
      <trkpt lat="36.968726003542542" lon="-2.553185960277915">
        <ele>317.37</ele>
        <time>2025-05-12T12:37:26Z</time>
      </trkpt>
      <trkpt lat="36.968758022412658" lon="-2.553054029121995">
        <ele>316.88999999999999</ele>
        <time>2025-05-12T12:37:27Z</time>
      </trkpt>
      <trkpt lat="36.968744024634361" lon="-2.552913967519999">
        <ele>316.41000000000003</ele>
        <time>2025-05-12T12:37:28Z</time>
      </trkpt>
      <trkpt lat="36.968671018257737" lon="-2.552750017493963">
        <ele>315.93000000000001</ele>
        <time>2025-05-12T12:37:29Z</time>
      </trkpt>
      <trkpt lat="36.968577979132533" lon="-2.552623031660914">
        <ele>314.97000000000003</ele>
        <time>2025-05-12T12:37:30Z</time>
      </trkpt>
      <trkpt lat="36.96848401799798" lon="-2.552495039999485">
        <ele>314.49000000000001</ele>
        <time>2025-05-12T12:37:31Z</time>
      </trkpt>
      <trkpt lat="36.968384021893144" lon="-2.55235699005425">
        <ele>313.52999999999997</ele>
        <time>2025-05-12T12:37:32Z</time>
      </trkpt>
      <trkpt lat="36.968281008303165" lon="-2.552212988957763">
        <ele>313.05000000000001</ele>
        <time>2025-05-12T12:37:33Z</time>
      </trkpt>
      <trkpt lat="36.968185035511851" lon="-2.552080973982811">
        <ele>312.56999999999999</ele>
        <time>2025-05-12T12:37:34Z</time>
      </trkpt>
      <trkpt lat="36.968114962801337" lon="-2.551981983706355">
        <ele>312.08999999999997</ele>
        <time>2025-05-12T12:37:35Z</time>
      </trkpt>
      <trkpt lat="36.968080010265112" lon="-2.551830019801855">
        <ele>311.60000000000002</ele>
        <time>2025-05-12T12:37:36Z</time>
      </trkpt>
      <trkpt lat="36.968050003051758" lon="-2.551703033968806">
        <ele>311.60000000000002</ele>
        <time>2025-05-12T12:37:37Z</time>
      </trkpt>
      <trkpt lat="36.968066012486815" lon="-2.551592979580164">
        <ele>311.60000000000002</ele>
        <time>2025-05-12T12:37:38Z</time>
      </trkpt>
      <trkpt lat="36.968128960579634" lon="-2.551496000960469">
        <ele>311.60000000000002</ele>
        <time>2025-05-12T12:37:39Z</time>
      </trkpt>
      <trkpt lat="36.968224011361599" lon="-2.551421988755465">
        <ele>311.12</ele>
        <time>2025-05-12T12:37:40Z</time>
      </trkpt>
      <trkpt lat="36.968340016901493" lon="-2.551406985148788">
        <ele>311.12</ele>
        <time>2025-05-12T12:37:41Z</time>
      </trkpt>
      <trkpt lat="36.96846297942102" lon="-2.55139198154211">
        <ele>311.12</ele>
        <time>2025-05-12T12:37:42Z</time>
      </trkpt>
      <trkpt lat="36.96859298273921" lon="-2.551375972107053">
        <ele>311.12</ele>
        <time>2025-05-12T12:37:43Z</time>
      </trkpt>
      <trkpt lat="36.968716029077768" lon="-2.551359962671995">
        <ele>311.12</ele>
        <time>2025-05-12T12:37:44Z</time>
      </trkpt>
      <trkpt lat="36.968818036839366" lon="-2.551299026235938">
        <ele>310.63999999999999</ele>
        <time>2025-05-12T12:37:45Z</time>
      </trkpt>
      <trkpt lat="36.968874027952552" lon="-2.551214033737779">
        <ele>310.16000000000003</ele>
        <time>2025-05-12T12:37:46Z</time>
      </trkpt>
      <trkpt lat="36.96893597021699" lon="-2.551100039854646">
        <ele>309.68000000000001</ele>
        <time>2025-05-12T12:37:47Z</time>
      </trkpt>
      <trkpt lat="36.968976035714149" lon="-2.550939023494721">
        <ele>309.68000000000001</ele>
        <time>2025-05-12T12:37:48Z</time>
      </trkpt>
      <trkpt lat="36.969072008505464" lon="-2.550404006615281">
        <ele>308.24000000000001</ele>
        <time>2025-05-12T12:37:51Z</time>
      </trkpt>
      <trkpt lat="36.969102015718818" lon="-2.550200996920466">
        <ele>307.75999999999999</ele>
        <time>2025-05-12T12:37:52Z</time>
      </trkpt>
      <trkpt lat="36.969088017940521" lon="-2.550024976953864">
        <ele>307.27999999999997</ele>
        <time>2025-05-12T12:37:53Z</time>
      </trkpt>
      <trkpt lat="36.968985004350543" lon="-2.549273036420345">
        <ele>306.31999999999999</ele>
        <time>2025-05-12T12:37:57Z</time>
      </trkpt>
      <trkpt lat="36.9688939768821" lon="-2.549113025888801">
        <ele>306.31999999999999</ele>
        <time>2025-05-12T12:37:58Z</time>
      </trkpt>
      <trkpt lat="36.968779982998967" lon="-2.548914039507508">
        <ele>305.83999999999997</ele>
        <time>2025-05-12T12:37:59Z</time>
      </trkpt>
      <trkpt lat="36.967985965311527" lon="-2.547863032668829">
        <ele>306.31999999999999</ele>
        <time>2025-05-12T12:38:06Z</time>
      </trkpt>
      <trkpt lat="36.967914970591664" lon="-2.547685001045466">
        <ele>306.80000000000001</ele>
        <time>2025-05-12T12:38:07Z</time>
      </trkpt>
      <trkpt lat="36.967197982594371" lon="-2.545626992359757">
        <ele>307.75999999999999</ele>
        <time>2025-05-12T12:38:17Z</time>
      </trkpt>
      <trkpt lat="36.966772014275193" lon="-2.544444976374507">
        <ele>307.27999999999997</ele>
        <time>2025-05-12T12:38:23Z</time>
      </trkpt>
      <trkpt lat="36.96667998097837" lon="-2.544289994984865">
        <ele>307.27999999999997</ele>
        <time>2025-05-12T12:38:24Z</time>
      </trkpt>
      <trkpt lat="36.966547966003418" lon="-2.54412897862494">
        <ele>307.27999999999997</ele>
        <time>2025-05-12T12:38:25Z</time>
      </trkpt>
      <trkpt lat="36.96562796831131" lon="-2.542911004275084">
        <ele>310.16000000000003</ele>
        <time>2025-05-12T12:38:33Z</time>
      </trkpt>
      <trkpt lat="36.965560996904969" lon="-2.542744958773255">
        <ele>311.12</ele>
        <time>2025-05-12T12:38:34Z</time>
      </trkpt>
      <trkpt lat="36.965560996904969" lon="-2.542571034282446">
        <ele>312.08999999999997</ele>
        <time>2025-05-12T12:38:35Z</time>
      </trkpt>
      <trkpt lat="36.965591004118323" lon="-2.541651958599687">
        <ele>315.44999999999999</ele>
        <time>2025-05-12T12:38:40Z</time>
      </trkpt>
      <trkpt lat="36.965569965541363" lon="-2.541469987481833">
        <ele>315.93000000000001</ele>
        <time>2025-05-12T12:38:41Z</time>
      </trkpt>
      <trkpt lat="36.965522021055222" lon="-2.541281981393695">
        <ele>316.41000000000003</ele>
        <time>2025-05-12T12:38:42Z</time>
      </trkpt>
      <trkpt lat="36.965439962223172" lon="-2.54111803136766">
        <ele>316.88999999999999</ele>
        <time>2025-05-12T12:38:43Z</time>
      </trkpt>
      <trkpt lat="36.965356981381774" lon="-2.540952991694212">
        <ele>316.88999999999999</ele>
        <time>2025-05-12T12:38:44Z</time>
      </trkpt>
      <trkpt lat="36.965239970013499" lon="-2.540823994204402">
        <ele>316.88999999999999</ele>
        <time>2025-05-12T12:38:45Z</time>
      </trkpt>
      <trkpt lat="36.965102003887296" lon="-2.540718968957663">
        <ele>316.88999999999999</ele>
        <time>2025-05-12T12:38:46Z</time>
      </trkpt>
      <trkpt lat="36.964959008619189" lon="-2.540610004216433">
        <ele>316.88999999999999</ele>
        <time>2025-05-12T12:38:47Z</time>
      </trkpt>
      <trkpt lat="36.964685004204512" lon="-2.540377993136644">
        <ele>317.37</ele>
        <time>2025-05-12T12:38:49Z</time>
      </trkpt>
      <trkpt lat="36.964586013928056" lon="-2.540224017575383">
        <ele>317.37</ele>
        <time>2025-05-12T12:38:50Z</time>
      </trkpt>
      <trkpt lat="36.964489035308361" lon="-2.540055960416794">
        <ele>317.37</ele>
        <time>2025-05-12T12:38:51Z</time>
      </trkpt>
      <trkpt lat="36.963364016264677" lon="-2.537957970052958">
        <ele>314.97000000000003</ele>
        <time>2025-05-12T12:39:03Z</time>
      </trkpt>
      <trkpt lat="36.962878033518791" lon="-2.536980975419283">
        <ele>314.97000000000003</ele>
        <time>2025-05-12T12:39:11Z</time>
      </trkpt>
      <trkpt lat="36.962851965799928" lon="-2.536856001242995">
        <ele>314.49000000000001</ele>
        <time>2025-05-12T12:39:12Z</time>
      </trkpt>
      <trkpt lat="36.962836040183902" lon="-2.536682998761535">
        <ele>314.49000000000001</ele>
        <time>2025-05-12T12:39:13Z</time>
      </trkpt>
      <trkpt lat="36.962874010205269" lon="-2.536547966301441">
        <ele>314.00999999999999</ele>
        <time>2025-05-12T12:39:14Z</time>
      </trkpt>
      <trkpt lat="36.962920026853681" lon="-2.536380998790264">
        <ele>314.00999999999999</ele>
        <time>2025-05-12T12:39:15Z</time>
      </trkpt>
      <trkpt lat="36.962978029623628" lon="-2.536211013793945">
        <ele>313.52999999999997</ele>
        <time>2025-05-12T12:39:16Z</time>
      </trkpt>
      <trkpt lat="36.963064027950168" lon="-2.535865008831024">
        <ele>313.05000000000001</ele>
        <time>2025-05-12T12:39:18Z</time>
      </trkpt>
      <trkpt lat="36.963152037933469" lon="-2.53555404022336">
        <ele>312.56999999999999</ele>
        <time>2025-05-12T12:39:20Z</time>
      </trkpt>
      <trkpt lat="36.963200988247991" lon="-2.535396041348577">
        <ele>312.08999999999997</ele>
        <time>2025-05-12T12:39:21Z</time>
      </trkpt>
      <trkpt lat="36.963417995721102" lon="-2.534951968118548">
        <ele>311.12</ele>
        <time>2025-05-12T12:39:24Z</time>
      </trkpt>
      <trkpt lat="36.963446997106075" lon="-2.534789023920894">
        <ele>310.63999999999999</ele>
        <time>2025-05-12T12:39:25Z</time>
      </trkpt>
      <trkpt lat="36.963477004319429" lon="-2.534624990075827">
        <ele>310.16000000000003</ele>
        <time>2025-05-12T12:39:26Z</time>
      </trkpt>
      <trkpt lat="36.963504999876022" lon="-2.534463973715901">
        <ele>309.19999999999999</ele>
        <time>2025-05-12T12:39:27Z</time>
      </trkpt>
      <trkpt lat="36.963514974340796" lon="-2.534302035346627">
        <ele>308.24000000000001</ele>
        <time>2025-05-12T12:39:28Z</time>
      </trkpt>
      <trkpt lat="36.963494019582868" lon="-2.534142024815083">
        <ele>307.27999999999997</ele>
        <time>2025-05-12T12:39:29Z</time>
      </trkpt>
      <trkpt lat="36.963471975177526" lon="-2.533975979313254">
        <ele>306.31999999999999</ele>
        <time>2025-05-12T12:39:30Z</time>
      </trkpt>
      <trkpt lat="36.963427970185876" lon="-2.533805994316936">
        <ele>305.36000000000001</ele>
        <time>2025-05-12T12:39:31Z</time>
      </trkpt>
      <trkpt lat="36.963355969637632" lon="-2.533650007098913">
        <ele>304.38999999999999</ele>
        <time>2025-05-12T12:39:32Z</time>
      </trkpt>
      <trkpt lat="36.963269971311092" lon="-2.533500976860523">
        <ele>303.43000000000001</ele>
        <time>2025-05-12T12:39:33Z</time>
      </trkpt>
      <trkpt lat="36.963181961327791" lon="-2.533365022391081">
        <ele>301.99000000000001</ele>
        <time>2025-05-12T12:39:34Z</time>
      </trkpt>
      <trkpt lat="36.963093029335141" lon="-2.533227978274226">
        <ele>301.02999999999997</ele>
        <time>2025-05-12T12:39:35Z</time>
      </trkpt>
      <trkpt lat="36.962985992431641" lon="-2.533101998269558">
        <ele>300.06999999999999</ele>
        <time>2025-05-12T12:39:36Z</time>
      </trkpt>
      <trkpt lat="36.962877027690411" lon="-2.53297601826489">
        <ele>299.11000000000001</ele>
        <time>2025-05-12T12:39:37Z</time>
      </trkpt>
      <trkpt lat="36.962429014965892" lon="-2.532628001645207">
        <ele>295.74000000000001</ele>
        <time>2025-05-12T12:39:41Z</time>
      </trkpt>
      <trkpt lat="36.96236003190279" lon="-2.53259296528995">
        <ele>295.25999999999999</ele>
        <time>2025-05-12T12:39:42Z</time>
      </trkpt>
      <trkpt lat="36.962306974455714" lon="-2.532566981390119">
        <ele>294.77999999999997</ele>
        <time>2025-05-12T12:39:43Z</time>
      </trkpt>
      <trkpt lat="36.96227596141398" lon="-2.532466985285282">
        <ele>294.77999999999997</ele>
        <time>2025-05-12T12:39:44Z</time>
      </trkpt>
      <trkpt lat="36.96229699999094" lon="-2.532389033585787">
        <ele>294.77999999999997</ele>
        <time>2025-05-12T12:39:45Z</time>
      </trkpt>
      <trkpt lat="36.962320972234011" lon="-2.532292976975441">
        <ele>294.30000000000001</ele>
        <time>2025-05-12T12:39:46Z</time>
      </trkpt>
      <trkpt lat="36.962351985275745" lon="-2.532174959778786">
        <ele>293.81999999999999</ele>
        <time>2025-05-12T12:39:47Z</time>
      </trkpt>
      <trkpt lat="36.962625989690423" lon="-2.531122025102377">
        <ele>287.08999999999997</ele>
        <time>2025-05-12T12:39:53Z</time>
      </trkpt>
      <trkpt lat="36.962678963318467" lon="-2.530918009579182">
        <ele>286.13</ele>
        <time>2025-05-12T12:39:54Z</time>
      </trkpt>
      <trkpt lat="36.962700001895428" lon="-2.530710976570845">
        <ele>284.69</ele>
        <time>2025-05-12T12:39:55Z</time>
      </trkpt>
      <trkpt lat="36.962716011330485" lon="-2.530508972704411">
        <ele>283.25</ele>
        <time>2025-05-12T12:39:56Z</time>
      </trkpt>
      <trkpt lat="36.962724979966879" lon="-2.530308980494738">
        <ele>282.27999999999997</ele>
        <time>2025-05-12T12:39:57Z</time>
      </trkpt>
      <trkpt lat="36.962708970531821" lon="-2.530106976628304">
        <ele>281.80000000000001</ele>
        <time>2025-05-12T12:39:58Z</time>
      </trkpt>
      <trkpt lat="36.962692961096764" lon="-2.529903966933489">
        <ele>280.83999999999997</ele>
        <time>2025-05-12T12:39:59Z</time>
      </trkpt>
      <trkpt lat="36.962664965540171" lon="-2.529491996392608">
        <ele>279.39999999999998</ele>
        <time>2025-05-12T12:40:01Z</time>
      </trkpt>
      <trkpt lat="36.962688015773892" lon="-2.529294015839696">
        <ele>278.92000000000002</ele>
        <time>2025-05-12T12:40:02Z</time>
      </trkpt>
      <trkpt lat="36.962700001895428" lon="-2.529097963124514">
        <ele>278.44</ele>
        <time>2025-05-12T12:40:03Z</time>
      </trkpt>
      <trkpt lat="36.962710982188582" lon="-2.528901994228363">
        <ele>277.95999999999998</ele>
        <time>2025-05-12T12:40:04Z</time>
      </trkpt>
      <trkpt lat="36.962722968310118" lon="-2.528709964826703">
        <ele>277.48000000000002</ele>
        <time>2025-05-12T12:40:05Z</time>
      </trkpt>
      <trkpt lat="36.962724979966879" lon="-2.528516007587314">
        <ele>277</ele>
        <time>2025-05-12T12:40:06Z</time>
      </trkpt>
      <trkpt lat="36.962702013552189" lon="-2.527740010991693">
        <ele>274.58999999999997</ele>
        <time>2025-05-12T12:40:10Z</time>
      </trkpt>
      <trkpt lat="36.962664965540171" lon="-2.52756399102509">
        <ele>273.63</ele>
        <time>2025-05-12T12:40:11Z</time>
      </trkpt>
      <trkpt lat="36.962561029940844" lon="-2.527408003807068">
        <ele>272.67000000000002</ele>
        <time>2025-05-12T12:40:12Z</time>
      </trkpt>
      <trkpt lat="36.962459022179246" lon="-2.527255034074187">
        <ele>271.70999999999998</ele>
        <time>2025-05-12T12:40:13Z</time>
      </trkpt>
      <trkpt lat="36.962355002760887" lon="-2.527099968865514">
        <ele>270.75</ele>
        <time>2025-05-12T12:40:14Z</time>
      </trkpt>
      <trkpt lat="36.962171019986272" lon="-2.526784976944327">
        <ele>268.82999999999998</ele>
        <time>2025-05-12T12:40:16Z</time>
      </trkpt>
      <trkpt lat="36.962094996124506" lon="-2.526623038575053">
        <ele>268.35000000000002</ele>
        <time>2025-05-12T12:40:17Z</time>
      </trkpt>
      <trkpt lat="36.962033975869417" lon="-2.526431009173393">
        <ele>267.38</ele>
        <time>2025-05-12T12:40:18Z</time>
      </trkpt>
      <trkpt lat="36.962013021111488" lon="-2.526221964508295">
        <ele>266.89999999999998</ele>
        <time>2025-05-12T12:40:19Z</time>
      </trkpt>
      <trkpt lat="36.961990976706147" lon="-2.526004035025835">
        <ele>265.94</ele>
        <time>2025-05-12T12:40:20Z</time>
      </trkpt>
      <trkpt lat="36.961870025843382" lon="-2.525131981819868">
        <ele>262.57999999999998</ele>
        <time>2025-05-12T12:40:24Z</time>
      </trkpt>
      <trkpt lat="36.961809005588293" lon="-2.524937018752098">
        <ele>261.62</ele>
        <time>2025-05-12T12:40:25Z</time>
      </trkpt>
      <trkpt lat="36.961762988939881" lon="-2.524796035140753">
        <ele>261.13999999999999</ele>
        <time>2025-05-12T12:40:26Z</time>
      </trkpt>
      <trkpt lat="36.961762988939881" lon="-2.524575004354119">
        <ele>260.17000000000002</ele>
        <time>2025-05-12T12:40:27Z</time>
      </trkpt>
      <trkpt lat="36.961762988939881" lon="-2.524408036842942">
        <ele>259.69</ele>
        <time>2025-05-12T12:40:28Z</time>
      </trkpt>
      <trkpt lat="36.961762988939881" lon="-2.524234028533101">
        <ele>259.20999999999998</ele>
        <time>2025-05-12T12:40:29Z</time>
      </trkpt>
      <trkpt lat="36.961730970069766" lon="-2.524062031880021">
        <ele>258.25</ele>
        <time>2025-05-12T12:40:30Z</time>
      </trkpt>
      <trkpt lat="36.961656035855412" lon="-2.523903027176857">
        <ele>257.29000000000002</ele>
        <time>2025-05-12T12:40:31Z</time>
      </trkpt>
      <trkpt lat="36.961581017822027" lon="-2.523743016645312">
        <ele>256.32999999999998</ele>
        <time>2025-05-12T12:40:32Z</time>
      </trkpt>
      <trkpt lat="36.961510023102164" lon="-2.523590968921781">
        <ele>255.37</ele>
        <time>2025-05-12T12:40:33Z</time>
      </trkpt>
      <trkpt lat="36.961313970386982" lon="-2.523175980895758">
        <ele>252.96000000000001</ele>
        <time>2025-05-12T12:40:36Z</time>
      </trkpt>
      <trkpt lat="36.961256973445415" lon="-2.523055030032992">
        <ele>252.47999999999999</ele>
        <time>2025-05-12T12:40:37Z</time>
      </trkpt>
      <trkpt lat="36.961277006193995" lon="-2.522935001179576">
        <ele>251.52000000000001</ele>
        <time>2025-05-12T12:40:38Z</time>
      </trkpt>
      <trkpt lat="36.961315982043743" lon="-2.522794017568231">
        <ele>250.56</ele>
        <time>2025-05-12T12:40:39Z</time>
      </trkpt>
      <trkpt lat="36.961358981207013" lon="-2.522639958187938">
        <ele>250.08000000000001</ele>
        <time>2025-05-12T12:40:40Z</time>
      </trkpt>
      <trkpt lat="36.961641032248735" lon="-2.521958006545901">
        <ele>246.72</ele>
        <time>2025-05-12T12:40:44Z</time>
      </trkpt>
      <trkpt lat="36.961892992258072" lon="-2.521449979394674">
        <ele>243.83000000000001</ele>
        <time>2025-05-12T12:40:47Z</time>
      </trkpt>
      <trkpt lat="36.961950995028019" lon="-2.521278988569975">
        <ele>242.87</ele>
        <time>2025-05-12T12:40:48Z</time>
      </trkpt>
      <trkpt lat="36.962007991969585" lon="-2.521113026887178">
        <ele>241.91</ele>
        <time>2025-05-12T12:40:49Z</time>
      </trkpt>
      <trkpt lat="36.962067000567913" lon="-2.520941030234098">
        <ele>240.94999999999999</ele>
        <time>2025-05-12T12:40:50Z</time>
      </trkpt>
      <trkpt lat="36.96210497058928" lon="-2.520768027752638">
        <ele>239.99000000000001</ele>
        <time>2025-05-12T12:40:51Z</time>
      </trkpt>
      <trkpt lat="36.962097007781267" lon="-2.520574992522597">
        <ele>239.50999999999999</ele>
        <time>2025-05-12T12:40:52Z</time>
      </trkpt>
      <trkpt lat="36.962089966982603" lon="-2.520377011969686">
        <ele>239.02000000000001</ele>
        <time>2025-05-12T12:40:53Z</time>
      </trkpt>
      <trkpt lat="36.962063983082771" lon="-2.520180037245154">
        <ele>238.06</ele>
        <time>2025-05-12T12:40:54Z</time>
      </trkpt>
      <trkpt lat="36.962003968656063" lon="-2.519983984529972">
        <ele>237.09999999999999</ele>
        <time>2025-05-12T12:40:55Z</time>
      </trkpt>
      <trkpt lat="36.961944038048387" lon="-2.519791033118963">
        <ele>236.13999999999999</ele>
        <time>2025-05-12T12:40:56Z</time>
      </trkpt>
      <trkpt lat="36.96175703778863" lon="-2.519271019846201">
        <ele>234.22</ele>
        <time>2025-05-12T12:40:59Z</time>
      </trkpt>
      <trkpt lat="36.961679002270103" lon="-2.519145961850882">
        <ele>233.74000000000001</ele>
        <time>2025-05-12T12:41:00Z</time>
      </trkpt>
      <trkpt lat="36.961585963144898" lon="-2.519084019586444">
        <ele>233.25999999999999</ele>
        <time>2025-05-12T12:41:01Z</time>
      </trkpt>
      <trkpt lat="36.961484961211681" lon="-2.519057029858232">
        <ele>233.25999999999999</ele>
        <time>2025-05-12T12:41:02Z</time>
      </trkpt>
      <trkpt lat="36.961377002298832" lon="-2.519087959080935">
        <ele>232.30000000000001</ele>
        <time>2025-05-12T12:41:03Z</time>
      </trkpt>
      <trkpt lat="36.961283963173628" lon="-2.5191639829427">
        <ele>232.30000000000001</ele>
        <time>2025-05-12T12:41:04Z</time>
      </trkpt>
      <trkpt lat="36.961187990382314" lon="-2.519243024289608">
        <ele>231.81</ele>
        <time>2025-05-12T12:41:05Z</time>
      </trkpt>
      <trkpt lat="36.960918009281158" lon="-2.519456008449197">
        <ele>231.33000000000001</ele>
        <time>2025-05-12T12:41:08Z</time>
      </trkpt>
      <trkpt lat="36.960839973762631" lon="-2.519517028704286">
        <ele>231.33000000000001</ele>
        <time>2025-05-12T12:41:09Z</time>
      </trkpt>
      <trkpt lat="36.960746012628078" lon="-2.519517028704286">
        <ele>230.84999999999999</ele>
        <time>2025-05-12T12:41:10Z</time>
      </trkpt>
      <trkpt lat="36.960647022351623" lon="-2.519508982077241">
        <ele>230.84999999999999</ele>
        <time>2025-05-12T12:41:11Z</time>
      </trkpt>
      <trkpt lat="36.960546020418406" lon="-2.519473023712635">
        <ele>230.37</ele>
        <time>2025-05-12T12:41:12Z</time>
      </trkpt>
      <trkpt lat="36.960440995171666" lon="-2.519435975700617">
        <ele>230.37</ele>
        <time>2025-05-12T12:41:13Z</time>
      </trkpt>
      <trkpt lat="36.960244020447135" lon="-2.519337991252542">
        <ele>230.37</ele>
        <time>2025-05-12T12:41:15Z</time>
      </trkpt>
      <trkpt lat="36.960188029333949" lon="-2.519262973219156">
        <ele>230.37</ele>
        <time>2025-05-12T12:41:16Z</time>
      </trkpt>
      <trkpt lat="36.960132960230112" lon="-2.519151996821165">
        <ele>229.88999999999999</ele>
        <time>2025-05-12T12:41:17Z</time>
      </trkpt>
      <trkpt lat="36.960132960230112" lon="-2.519062981009483">
        <ele>230.37</ele>
        <time>2025-05-12T12:41:18Z</time>
      </trkpt>
      <trkpt lat="36.960132960230112" lon="-2.518939012661576">
        <ele>230.37</ele>
        <time>2025-05-12T12:41:19Z</time>
      </trkpt>
      <trkpt lat="36.960132960230112" lon="-2.518804986029863">
        <ele>230.84999999999999</ele>
        <time>2025-05-12T12:41:20Z</time>
      </trkpt>
      <trkpt lat="36.960132960230112" lon="-2.518057990819216">
        <ele>230.84999999999999</ele>
        <time>2025-05-12T12:41:25Z</time>
      </trkpt>
      <trkpt lat="36.960187023505569" lon="-2.517879959195852">
        <ele>230.84999999999999</ele>
        <time>2025-05-12T12:41:26Z</time>
      </trkpt>
      <trkpt lat="36.960253994911909" lon="-2.517746016383171">
        <ele>231.33000000000001</ele>
        <time>2025-05-12T12:41:27Z</time>
      </trkpt>
      <trkpt lat="36.9603649713099" lon="-2.517645014449954">
        <ele>231.33000000000001</ele>
        <time>2025-05-12T12:41:28Z</time>
      </trkpt>
      <trkpt lat="36.960483994334936" lon="-2.517536971718073">
        <ele>231.81</ele>
        <time>2025-05-12T12:41:29Z</time>
      </trkpt>
      <trkpt lat="36.96061902679503" lon="-2.517440998926759">
        <ele>232.30000000000001</ele>
        <time>2025-05-12T12:41:30Z</time>
      </trkpt>
      <trkpt lat="36.961720995604992" lon="-2.516628038138151">
        <ele>234.69999999999999</ele>
        <time>2025-05-12T12:41:37Z</time>
      </trkpt>
      <trkpt lat="36.962679969146848" lon="-2.515584994107485">
        <ele>232.30000000000001</ele>
        <time>2025-05-12T12:41:45Z</time>
      </trkpt>
      <trkpt lat="36.962797986343503" lon="-2.515453984960914">
        <ele>231.81</ele>
        <time>2025-05-12T12:41:46Z</time>
      </trkpt>
      <trkpt lat="36.962903011590242" lon="-2.515296991914511">
        <ele>231.33000000000001</ele>
        <time>2025-05-12T12:41:47Z</time>
      </trkpt>
      <trkpt lat="36.963561996817589" lon="-2.51432997174561">
        <ele>227.97</ele>
        <time>2025-05-12T12:41:53Z</time>
      </trkpt>
      <trkpt lat="36.963651012629271" lon="-2.514182031154633">
        <ele>227.00999999999999</ele>
        <time>2025-05-12T12:41:54Z</time>
      </trkpt>
      <trkpt lat="36.963695017620921" lon="-2.514022020623088">
        <ele>226.05000000000001</ele>
        <time>2025-05-12T12:41:55Z</time>
      </trkpt>
      <trkpt lat="36.963695017620921" lon="-2.513878019526601">
        <ele>225.56999999999999</ele>
        <time>2025-05-12T12:41:56Z</time>
      </trkpt>
      <trkpt lat="36.96367003954947" lon="-2.513735024258494">
        <ele>225.09</ele>
        <time>2025-05-12T12:41:57Z</time>
      </trkpt>
      <trkpt lat="36.963610025122762" lon="-2.513605020940304">
        <ele>224.61000000000001</ele>
        <time>2025-05-12T12:41:58Z</time>
      </trkpt>
      <trkpt lat="36.963530983775854" lon="-2.513480968773365">
        <ele>223.63999999999999</ele>
        <time>2025-05-12T12:41:59Z</time>
      </trkpt>
      <trkpt lat="36.963420007377863" lon="-2.513392036780715">
        <ele>223.16</ele>
        <time>2025-05-12T12:42:00Z</time>
      </trkpt>
      <trkpt lat="36.963302996009588" lon="-2.513304026797414">
        <ele>222.19999999999999</ele>
        <time>2025-05-12T12:42:01Z</time>
      </trkpt>
      <trkpt lat="36.963186990469694" lon="-2.513223979622126">
        <ele>221.72</ele>
        <time>2025-05-12T12:42:02Z</time>
      </trkpt>
      <trkpt lat="36.962969982996583" lon="-2.513097999617457">
        <ele>221.24000000000001</ele>
        <time>2025-05-12T12:42:04Z</time>
      </trkpt>
      <trkpt lat="36.962853977456689" lon="-2.513089030981064">
        <ele>221.24000000000001</ele>
        <time>2025-05-12T12:42:05Z</time>
      </trkpt>
      <trkpt lat="36.96272699162364" lon="-2.513079978525639">
        <ele>221.24000000000001</ele>
        <time>2025-05-12T12:42:06Z</time>
      </trkpt>
      <trkpt lat="36.962458016350865" lon="-2.513114009052515">
        <ele>222.19999999999999</ele>
        <time>2025-05-12T12:42:08Z</time>
      </trkpt>
      <trkpt lat="36.962345028296113" lon="-2.513099005445838">
        <ele>222.19999999999999</ele>
        <time>2025-05-12T12:42:09Z</time>
      </trkpt>
      <trkpt lat="36.962237991392612" lon="-2.513037985190749">
        <ele>222.68000000000001</ele>
        <time>2025-05-12T12:42:10Z</time>
      </trkpt>
      <trkpt lat="36.962152998894453" lon="-2.512941006571055">
        <ele>222.68000000000001</ele>
        <time>2025-05-12T12:42:11Z</time>
      </trkpt>
      <trkpt lat="36.962088039144874" lon="-2.512829024344683">
        <ele>222.68000000000001</ele>
        <time>2025-05-12T12:42:12Z</time>
      </trkpt>
      <trkpt lat="36.962044034153223" lon="-2.512699021026492">
        <ele>222.68000000000001</ele>
        <time>2025-05-12T12:42:13Z</time>
      </trkpt>
      <trkpt lat="36.962020983919501" lon="-2.512574968859553">
        <ele>222.68000000000001</ele>
        <time>2025-05-12T12:42:14Z</time>
      </trkpt>
      <trkpt lat="36.962020983919501" lon="-2.512442031875253">
        <ele>222.19999999999999</ele>
        <time>2025-05-12T12:42:15Z</time>
      </trkpt>
      <trkpt lat="36.962020983919501" lon="-2.512304987758398">
        <ele>221.72</ele>
        <time>2025-05-12T12:42:16Z</time>
      </trkpt>
      <trkpt lat="36.962002962827682" lon="-2.512161992490292">
        <ele>221.24000000000001</ele>
        <time>2025-05-12T12:42:17Z</time>
      </trkpt>
      <trkpt lat="36.961959963664412" lon="-2.512020003050566">
        <ele>220.28</ele>
        <time>2025-05-12T12:42:18Z</time>
      </trkpt>
      <trkpt lat="36.961917970329523" lon="-2.511880025267601">
        <ele>219.80000000000001</ele>
        <time>2025-05-12T12:42:19Z</time>
      </trkpt>
      <trkpt lat="36.961895003914833" lon="-2.511747004464269">
        <ele>219.31999999999999</ele>
        <time>2025-05-12T12:42:20Z</time>
      </trkpt>
      <trkpt lat="36.961905984207988" lon="-2.511603003367782">
        <ele>218.36000000000001</ele>
        <time>2025-05-12T12:42:21Z</time>
      </trkpt>
      <trkpt lat="36.961934985592961" lon="-2.511464031413198">
        <ele>217.40000000000001</ele>
        <time>2025-05-12T12:42:22Z</time>
      </trkpt>
      <trkpt lat="36.962025007233024" lon="-2.511347020044923">
        <ele>216.43000000000001</ele>
        <time>2025-05-12T12:42:23Z</time>
      </trkpt>
      <trkpt lat="36.962115028873086" lon="-2.511227997019887">
        <ele>214.99000000000001</ele>
        <time>2025-05-12T12:42:24Z</time>
      </trkpt>
      <trkpt lat="36.962191974744201" lon="-2.51112699508667">
        <ele>213.55000000000001</ele>
        <time>2025-05-12T12:42:25Z</time>
      </trkpt>
      <trkpt lat="36.962309991940856" lon="-2.511101011186838">
        <ele>212.59</ele>
        <time>2025-05-12T12:42:26Z</time>
      </trkpt>
      <trkpt lat="36.962419040501118" lon="-2.511091958731413">
        <ele>211.63</ele>
        <time>2025-05-12T12:42:27Z</time>
      </trkpt>
      <trkpt lat="36.96253496222198" lon="-2.511120038107038">
        <ele>210.66999999999999</ele>
        <time>2025-05-12T12:42:28Z</time>
      </trkpt>
      <trkpt lat="36.962651973590255" lon="-2.511148033663631">
        <ele>209.69999999999999</ele>
        <time>2025-05-12T12:42:29Z</time>
      </trkpt>
      <trkpt lat="36.962777031585574" lon="-2.511177035048604">
        <ele>209.22</ele>
        <time>2025-05-12T12:42:30Z</time>
      </trkpt>
      <trkpt lat="36.962912986055017" lon="-2.511165970936418">
        <ele>208.74000000000001</ele>
        <time>2025-05-12T12:42:31Z</time>
      </trkpt>
      <trkpt lat="36.963047012686729" lon="-2.511120960116386">
        <ele>207.78</ele>
        <time>2025-05-12T12:42:32Z</time>
      </trkpt>
      <trkpt lat="36.963323028758168" lon="-2.511029010638595">
        <ele>205.86000000000001</ele>
        <time>2025-05-12T12:42:34Z</time>
      </trkpt>
      <trkpt lat="36.963460994884372" lon="-2.511019958183169">
        <ele>205.38</ele>
        <time>2025-05-12T12:42:35Z</time>
      </trkpt>
      <trkpt lat="36.963726030662656" lon="-2.511019958183169">
        <ele>203.46000000000001</ele>
        <time>2025-05-12T12:42:37Z</time>
      </trkpt>
      <trkpt lat="36.963836001232266" lon="-2.510986011475325">
        <ele>202.49000000000001</ele>
        <time>2025-05-12T12:42:38Z</time>
      </trkpt>
      <trkpt lat="36.963909007608891" lon="-2.51091199927032">
        <ele>201.53</ele>
        <time>2025-05-12T12:42:39Z</time>
      </trkpt>
      <trkpt lat="36.963942032307386" lon="-2.510788030922413">
        <ele>200.56999999999999</ele>
        <time>2025-05-12T12:42:40Z</time>
      </trkpt>
      <trkpt lat="36.963978996500373" lon="-2.510645035654306">
        <ele>199.61000000000001</ele>
        <time>2025-05-12T12:42:41Z</time>
      </trkpt>
      <trkpt lat="36.96401696652174" lon="-2.510497011244297">
        <ele>199.13</ele>
        <time>2025-05-12T12:42:42Z</time>
      </trkpt>
      <trkpt lat="36.964034987613559" lon="-2.510150000452995">
        <ele>197.21000000000001</ele>
        <time>2025-05-12T12:42:44Z</time>
      </trkpt>
      <trkpt lat="36.964018978178501" lon="-2.509971968829632">
        <ele>196.25</ele>
        <time>2025-05-12T12:42:45Z</time>
      </trkpt>
      <trkpt lat="36.963983019813895" lon="-2.509786980226636">
        <ele>195.28</ele>
        <time>2025-05-12T12:42:46Z</time>
      </trkpt>
      <trkpt lat="36.963915964588523" lon="-2.509611966088414">
        <ele>194.31999999999999</ele>
        <time>2025-05-12T12:42:47Z</time>
      </trkpt>
      <trkpt lat="36.963833989575505" lon="-2.509447010233998">
        <ele>193.84</ele>
        <time>2025-05-12T12:42:48Z</time>
      </trkpt>
      <trkpt lat="36.963737010955811" lon="-2.509281970560551">
        <ele>192.88</ele>
        <time>2025-05-12T12:42:49Z</time>
      </trkpt>
      <trkpt lat="36.963628968223929" lon="-2.509153978899121">
        <ele>191.91999999999999</ele>
        <time>2025-05-12T12:42:50Z</time>
      </trkpt>
      <trkpt lat="36.963517991825938" lon="-2.509020958095789">
        <ele>190.96000000000001</ele>
        <time>2025-05-12T12:42:51Z</time>
      </trkpt>
      <trkpt lat="36.963098980486393" lon="-2.508552996441722">
        <ele>187.59</ele>
        <time>2025-05-12T12:42:55Z</time>
      </trkpt>
      <trkpt lat="36.962977023795247" lon="-2.508465992286801">
        <ele>186.63</ele>
        <time>2025-05-12T12:42:56Z</time>
      </trkpt>
      <trkpt lat="36.962854983285069" lon="-2.5083779823035">
        <ele>186.15000000000001</ele>
        <time>2025-05-12T12:42:57Z</time>
      </trkpt>
      <trkpt lat="36.96270695887506" lon="-2.508273040875793">
        <ele>185.66999999999999</ele>
        <time>2025-05-12T12:42:58Z</time>
      </trkpt>
      <trkpt lat="36.962580978870392" lon="-2.508228030055761">
        <ele>185.66999999999999</ele>
        <time>2025-05-12T12:42:59Z</time>
      </trkpt>
      <trkpt lat="36.961973961442709" lon="-2.50801001675427">
        <ele>185.66999999999999</ele>
        <time>2025-05-12T12:43:03Z</time>
      </trkpt>
      <trkpt lat="36.961814034730196" lon="-2.507937010377646">
        <ele>186.15000000000001</ele>
        <time>2025-05-12T12:43:04Z</time>
      </trkpt>
      <trkpt lat="36.961224032565951" lon="-2.507486985996366">
        <ele>189.52000000000001</ele>
        <time>2025-05-12T12:43:08Z</time>
      </trkpt>
      <trkpt lat="36.96040696464479" lon="-2.506260965019465">
        <ele>194.80000000000001</ele>
        <time>2025-05-12T12:43:15Z</time>
      </trkpt>
      <trkpt lat="36.95956801995635" lon="-2.505069980397821">
        <ele>193.84</ele>
        <time>2025-05-12T12:43:22Z</time>
      </trkpt>
      <trkpt lat="36.959443967789412" lon="-2.504907958209515">
        <ele>193.36000000000001</ele>
        <time>2025-05-12T12:43:23Z</time>
      </trkpt>
      <trkpt lat="36.959318993613124" lon="-2.504746019840241">
        <ele>192.88</ele>
        <time>2025-05-12T12:43:24Z</time>
      </trkpt>
      <trkpt lat="36.959200976416469" lon="-2.504587015137076">
        <ele>191.91999999999999</ele>
        <time>2025-05-12T12:43:25Z</time>
      </trkpt>
      <trkpt lat="36.959098968654871" lon="-2.504395991563797">
        <ele>191.44</ele>
        <time>2025-05-12T12:43:26Z</time>
      </trkpt>
      <trkpt lat="36.958995033055544" lon="-2.504201028496027">
        <ele>190.96000000000001</ele>
        <time>2025-05-12T12:43:27Z</time>
      </trkpt>
      <trkpt lat="36.958889001980424" lon="-2.504001958295703">
        <ele>190</ele>
        <time>2025-05-12T12:43:28Z</time>
      </trkpt>
      <trkpt lat="36.95879403501749" lon="-2.503788974136114">
        <ele>189.03999999999999</ele>
        <time>2025-05-12T12:43:29Z</time>
      </trkpt>
      <trkpt lat="36.958131026476622" lon="-2.50218995846808">
        <ele>181.34999999999999</ele>
        <time>2025-05-12T12:43:36Z</time>
      </trkpt>
      <trkpt lat="36.957466006278992" lon="-2.500838963314891">
        <ele>174.13999999999999</ele>
        <time>2025-05-12T12:43:44Z</time>
      </trkpt>
      <trkpt lat="36.957439016550779" lon="-2.50077199190855">
        <ele>173.66</ele>
        <time>2025-05-12T12:43:45Z</time>
      </trkpt>
      <trkpt lat="36.957423007115722" lon="-2.500723963603377">
        <ele>173.16999999999999</ele>
        <time>2025-05-12T12:43:46Z</time>
      </trkpt>
      <trkpt lat="36.957413032650948" lon="-2.500693034380674">
        <ele>172.69</ele>
        <time>2025-05-12T12:43:47Z</time>
      </trkpt>
      <trkpt lat="36.957403980195522" lon="-2.500666966661811">
        <ele>172.21000000000001</ele>
        <time>2025-05-12T12:43:48Z</time>
      </trkpt>
      <trkpt lat="36.957368021830916" lon="-2.500560013577342">
        <ele>170.77000000000001</ele>
        <time>2025-05-12T12:43:51Z</time>
      </trkpt>
      <trkpt lat="36.957365004345775" lon="-2.500548027455807">
        <ele>170.77000000000001</ele>
        <time>2025-05-12T12:43:52Z</time>
      </trkpt>
      <trkpt lat="36.957360981032252" lon="-2.500530006363988">
        <ele>170.28999999999999</ele>
        <time>2025-05-12T12:43:53Z</time>
      </trkpt>
      <trkpt lat="36.957360981032252" lon="-2.500530006363988">
        <ele>170.28999999999999</ele>
        <time>2025-05-12T12:44:05Z</time>
      </trkpt>
      <trkpt lat="36.957360981032252" lon="-2.500530006363988">
        <ele>170.77000000000001</ele>
        <time>2025-05-12T12:44:51Z</time>
      </trkpt>
      <trkpt lat="36.957360981032252" lon="-2.500530006363988">
        <ele>170.77000000000001</ele>
        <time>2025-05-12T12:45:49Z</time>
      </trkpt>
      <trkpt lat="36.957360981032252" lon="-2.500530006363988">
        <ele>170.28999999999999</ele>
        <time>2025-05-12T12:46:51Z</time>
      </trkpt>
      <trkpt lat="36.957251010462642" lon="-2.500559007748961">
        <ele>173.66</ele>
        <time>2025-05-12T12:49:31Z</time>
      </trkpt>
      <trkpt lat="36.957189990207553" lon="-2.500604018568993">
        <ele>176.53999999999999</ele>
        <time>2025-05-12T12:50:00Z</time>
      </trkpt>
      <trkpt lat="36.957276994362473" lon="-2.500636037439108">
        <ele>176.06</ele>
        <time>2025-05-12T12:50:10Z</time>
      </trkpt>
      <trkpt lat="36.957312030717731" lon="-2.500601001083851">
        <ele>176.06</ele>
        <time>2025-05-12T12:50:11Z</time>
      </trkpt>
      <trkpt lat="36.957347989082336" lon="-2.500564958900213">
        <ele>176.06</ele>
        <time>2025-05-12T12:50:12Z</time>
      </trkpt>
      <trkpt lat="36.957331979647279" lon="-2.50038499943912">
        <ele>176.06</ele>
        <time>2025-05-12T12:50:13Z</time>
      </trkpt>
      <trkpt lat="36.957313036546111" lon="-2.500291038304567">
        <ele>175.58000000000001</ele>
        <time>2025-05-12T12:50:14Z</time>
      </trkpt>
      <trkpt lat="36.957289986312389" lon="-2.500171009451151">
        <ele>175.09999999999999</ele>
        <time>2025-05-12T12:50:15Z</time>
      </trkpt>
      <trkpt lat="36.957262996584177" lon="-2.500022985041142">
        <ele>174.62</ele>
        <time>2025-05-12T12:50:16Z</time>
      </trkpt>
      <trkpt lat="36.957181021571159" lon="-2.499679997563362">
        <ele>174.62</ele>
        <time>2025-05-12T12:50:18Z</time>
      </trkpt>
      <trkpt lat="36.956841973587871" lon="-2.498208973556757">
        <ele>171.72999999999999</ele>
        <time>2025-05-12T12:50:25Z</time>
      </trkpt>
      <trkpt lat="36.956767039373517" lon="-2.497993977740407">
        <ele>171.72999999999999</ele>
        <time>2025-05-12T12:50:26Z</time>
      </trkpt>
      <trkpt lat="36.956682968884706" lon="-2.497795997187495">
        <ele>172.21000000000001</ele>
        <time>2025-05-12T12:50:27Z</time>
      </trkpt>
      <trkpt lat="36.956164967268705" lon="-2.49671095982194">
        <ele>174.13999999999999</ele>
        <time>2025-05-12T12:50:34Z</time>
      </trkpt>
      <trkpt lat="36.955447979271412" lon="-2.495508994907141">
        <ele>171.72999999999999</ele>
        <time>2025-05-12T12:50:44Z</time>
      </trkpt>
      <trkpt lat="36.955397017300129" lon="-2.495392989367247">
        <ele>171.72999999999999</ele>
        <time>2025-05-12T12:50:45Z</time>
      </trkpt>
      <trkpt lat="36.954896030947566" lon="-2.494259001687169">
        <ele>167.41</ele>
        <time>2025-05-12T12:50:56Z</time>
      </trkpt>
      <trkpt lat="36.954789999872446" lon="-2.494004024192691">
        <ele>165.96000000000001</ele>
        <time>2025-05-12T12:50:59Z</time>
      </trkpt>
      <trkpt lat="36.95458497852087" lon="-2.493454003706574">
        <ele>165</ele>
        <time>2025-05-12T12:51:05Z</time>
      </trkpt>
      <trkpt lat="36.954470984637737" lon="-2.493176981806755">
        <ele>165.47999999999999</ele>
        <time>2025-05-12T12:51:08Z</time>
      </trkpt>
      <trkpt lat="36.954438965767622" lon="-2.49308000318706">
        <ele>165.47999999999999</ele>
        <time>2025-05-12T12:51:09Z</time>
      </trkpt>
      <trkpt lat="36.954403007403016" lon="-2.49297397211194">
        <ele>165.47999999999999</ele>
        <time>2025-05-12T12:51:10Z</time>
      </trkpt>
      <trkpt lat="36.954100001603365" lon="-2.491990020498633">
        <ele>162.12</ele>
        <time>2025-05-12T12:51:20Z</time>
      </trkpt>
      <trkpt lat="36.954071000218391" lon="-2.491893963888288">
        <ele>162.12</ele>
        <time>2025-05-12T12:51:21Z</time>
      </trkpt>
      <trkpt lat="36.954030012711883" lon="-2.491810983046889">
        <ele>162.12</ele>
        <time>2025-05-12T12:51:22Z</time>
      </trkpt>
      <trkpt lat="36.953979972749949" lon="-2.491733031347394">
        <ele>162.12</ele>
        <time>2025-05-12T12:51:23Z</time>
      </trkpt>
      <trkpt lat="36.953928004950285" lon="-2.491652984172106">
        <ele>162.12</ele>
        <time>2025-05-12T12:51:24Z</time>
      </trkpt>
      <trkpt lat="36.953771011903882" lon="-2.491373028606176">
        <ele>161.16</ele>
        <time>2025-05-12T12:51:31Z</time>
      </trkpt>
      <trkpt lat="36.953713009133935" lon="-2.491294993087649">
        <ele>160.68000000000001</ele>
        <time>2025-05-12T12:51:39Z</time>
      </trkpt>
      <trkpt lat="36.953717032447457" lon="-2.491300022229552">
        <ele>160.68000000000001</ele>
        <time>2025-05-12T12:51:40Z</time>
      </trkpt>
      <trkpt lat="36.953717032447457" lon="-2.491300022229552">
        <ele>160.19999999999999</ele>
        <time>2025-05-12T12:51:41Z</time>
      </trkpt>
      <trkpt lat="36.953663975000381" lon="-2.491226010024548">
        <ele>159.24000000000001</ele>
        <time>2025-05-12T12:51:44Z</time>
      </trkpt>
      <trkpt lat="36.953642014414072" lon="-2.491196002811194">
        <ele>158.75</ele>
        <time>2025-05-12T12:51:45Z</time>
      </trkpt>
      <trkpt lat="36.954038981348276" lon="-2.490527965128422">
        <ele>155.38999999999999</ele>
        <time>2025-05-12T12:51:51Z</time>
      </trkpt>
      <trkpt lat="36.954079968854785" lon="-2.490493012592197">
        <ele>155.38999999999999</ele>
        <time>2025-05-12T12:51:52Z</time>
      </trkpt>
      <trkpt lat="36.954141994938254" lon="-2.490439033135772">
        <ele>155.38999999999999</ele>
        <time>2025-05-12T12:51:53Z</time>
      </trkpt>
      <trkpt lat="36.954295970499516" lon="-2.490324033424258">
        <ele>154.91</ele>
        <time>2025-05-12T12:51:55Z</time>
      </trkpt>
      <trkpt lat="36.954447012394667" lon="-2.490216996520758">
        <ele>154.43000000000001</ele>
        <time>2025-05-12T12:51:57Z</time>
      </trkpt>
      <trkpt lat="36.95537799037993" lon="-2.489518029615283">
        <ele>159.72</ele>
        <time>2025-05-12T12:52:09Z</time>
      </trkpt>
      <trkpt lat="36.956403013318777" lon="-2.488778997212648">
        <ele>158.27000000000001</ele>
        <time>2025-05-12T12:52:20Z</time>
      </trkpt>
      <trkpt lat="36.956561012193561" lon="-2.488723006099463">
        <ele>156.83000000000001</ele>
        <time>2025-05-12T12:52:22Z</time>
      </trkpt>
      <trkpt lat="36.956612979993224" lon="-2.488703979179263">
        <ele>156.34999999999999</ele>
        <time>2025-05-12T12:52:23Z</time>
      </trkpt>
      <trkpt lat="36.956664025783539" lon="-2.488619992509484">
        <ele>155.87</ele>
        <time>2025-05-12T12:52:24Z</time>
      </trkpt>
      <trkpt lat="36.956678023561835" lon="-2.488596020266414">
        <ele>155.38999999999999</ele>
        <time>2025-05-12T12:52:25Z</time>
      </trkpt>
      <trkpt lat="36.956753963604569" lon="-2.488468028604984">
        <ele>154.91</ele>
        <time>2025-05-12T12:52:26Z</time>
      </trkpt>
      <trkpt lat="36.956805009394884" lon="-2.488379012793303">
        <ele>154.91</ele>
        <time>2025-05-12T12:52:27Z</time>
      </trkpt>
      <trkpt lat="36.956864017993212" lon="-2.488297037780285">
        <ele>154.43000000000001</ele>
        <time>2025-05-12T12:52:28Z</time>
      </trkpt>
      <trkpt lat="36.957120001316071" lon="-2.488005012273789">
        <ele>154.91</ele>
        <time>2025-05-12T12:52:32Z</time>
      </trkpt>
      <trkpt lat="36.957168029621243" lon="-2.487917002290487">
        <ele>154.91</ele>
        <time>2025-05-12T12:52:33Z</time>
      </trkpt>
      <trkpt lat="36.957217985764146" lon="-2.487817006185651">
        <ele>154.91</ele>
        <time>2025-05-12T12:52:34Z</time>
      </trkpt>
      <trkpt lat="36.957428036257625" lon="-2.487332029268146">
        <ele>157.31</ele>
        <time>2025-05-12T12:52:39Z</time>
      </trkpt>
      <trkpt lat="36.957428958266973" lon="-2.487242007628083">
        <ele>157.78999999999999</ele>
        <time>2025-05-12T12:52:40Z</time>
      </trkpt>
      <trkpt lat="36.957428036257625" lon="-2.487158020958304">
        <ele>158.75</ele>
        <time>2025-05-12T12:52:41Z</time>
      </trkpt>
      <trkpt lat="36.957304989919066" lon="-2.48686901293695">
        <ele>161.16</ele>
        <time>2025-05-12T12:52:44Z</time>
      </trkpt>
      <trkpt lat="36.957316976040602" lon="-2.486746972426772">
        <ele>162.12</ele>
        <time>2025-05-12T12:52:45Z</time>
      </trkpt>
      <trkpt lat="36.957332985475659" lon="-2.486644964665175">
        <ele>163.08000000000001</ele>
        <time>2025-05-12T12:52:46Z</time>
      </trkpt>
      <trkpt lat="36.957371039316058" lon="-2.486555026844144">
        <ele>163.56</ele>
        <time>2025-05-12T12:52:47Z</time>
      </trkpt>
      <trkpt lat="36.95744002237916" lon="-2.486494006589055">
        <ele>164.03999999999999</ele>
        <time>2025-05-12T12:52:48Z</time>
      </trkpt>
      <trkpt lat="36.957515040412545" lon="-2.486426029354334">
        <ele>164.52000000000001</ele>
        <time>2025-05-12T12:52:49Z</time>
      </trkpt>
      <trkpt lat="36.957902032881975" lon="-2.486152024939656">
        <ele>166.44999999999999</ele>
        <time>2025-05-12T12:52:54Z</time>
      </trkpt>
      <trkpt lat="36.958583984524012" lon="-2.485819011926651">
        <ele>167.41</ele>
        <time>2025-05-12T12:53:02Z</time>
      </trkpt>
      <trkpt lat="36.958742989227176" lon="-2.485704012215138">
        <ele>166.93000000000001</ele>
        <time>2025-05-12T12:53:04Z</time>
      </trkpt>
      <trkpt lat="36.958779031410813" lon="-2.48562203720212">
        <ele>166.44999999999999</ele>
        <time>2025-05-12T12:53:05Z</time>
      </trkpt>
      <trkpt lat="36.958800991997123" lon="-2.485536960884929">
        <ele>166.44999999999999</ele>
        <time>2025-05-12T12:53:06Z</time>
      </trkpt>
      <trkpt lat="36.9587969686836" lon="-2.485439982265234">
        <ele>165.47999999999999</ele>
        <time>2025-05-12T12:53:07Z</time>
      </trkpt>
      <trkpt lat="36.95879302918911" lon="-2.485349038615823">
        <ele>165</ele>
        <time>2025-05-12T12:53:08Z</time>
      </trkpt>
      <trkpt lat="36.958908028900623" lon="-2.484418982639909">
        <ele>162.59999999999999</ele>
        <time>2025-05-12T12:53:18Z</time>
      </trkpt>
      <trkpt lat="36.958921020850539" lon="-2.484309012070298">
        <ele>162.59999999999999</ele>
        <time>2025-05-12T12:53:19Z</time>
      </trkpt>
      <trkpt lat="36.958951028063893" lon="-2.484182026237249">
        <ele>162.59999999999999</ele>
        <time>2025-05-12T12:53:20Z</time>
      </trkpt>
      <trkpt lat="36.959240958094597" lon="-2.483425978571177">
        <ele>162.12</ele>
        <time>2025-05-12T12:53:27Z</time>
      </trkpt>
      <trkpt lat="36.959327040240169" lon="-2.483030017465353">
        <ele>162.12</ele>
        <time>2025-05-12T12:53:31Z</time>
      </trkpt>
      <trkpt lat="36.959354029968381" lon="-2.482929015532136">
        <ele>162.59999999999999</ele>
        <time>2025-05-12T12:53:32Z</time>
      </trkpt>
      <trkpt lat="36.959415972232819" lon="-2.482827007770538">
        <ele>163.08000000000001</ele>
        <time>2025-05-12T12:53:33Z</time>
      </trkpt>
      <trkpt lat="36.959497025236487" lon="-2.482784008607268">
        <ele>163.56</ele>
        <time>2025-05-12T12:53:34Z</time>
      </trkpt>
      <trkpt lat="36.959584029391408" lon="-2.482736986130476">
        <ele>164.52000000000001</ele>
        <time>2025-05-12T12:53:35Z</time>
      </trkpt>
      <trkpt lat="36.959680002182722" lon="-2.482693986967206">
        <ele>165</ele>
        <time>2025-05-12T12:53:36Z</time>
      </trkpt>
      <trkpt lat="36.959781004115939" lon="-2.482682000845671">
        <ele>165</ele>
        <time>2025-05-12T12:53:37Z</time>
      </trkpt>
      <trkpt lat="36.959882006049156" lon="-2.482650987803936">
        <ele>165.47999999999999</ele>
        <time>2025-05-12T12:53:38Z</time>
      </trkpt>
      <trkpt lat="36.959963981062174" lon="-2.482583010569215">
        <ele>165.47999999999999</ele>
        <time>2025-05-12T12:53:39Z</time>
      </trkpt>
      <trkpt lat="36.960049979388714" lon="-2.482510004192591">
        <ele>165</ele>
        <time>2025-05-12T12:53:40Z</time>
      </trkpt>
      <trkpt lat="36.960300011560321" lon="-2.482283022254705">
        <ele>164.52000000000001</ele>
        <time>2025-05-12T12:53:43Z</time>
      </trkpt>
      <trkpt lat="36.960592959076166" lon="-2.481915978714824">
        <ele>164.52000000000001</ele>
        <time>2025-05-12T12:53:47Z</time>
      </trkpt>
      <trkpt lat="36.960840979591012" lon="-2.481643985956907">
        <ele>164.52000000000001</ele>
        <time>2025-05-12T12:53:50Z</time>
      </trkpt>
      <trkpt lat="36.960898982360959" lon="-2.48154298402369">
        <ele>164.03999999999999</ele>
        <time>2025-05-12T12:53:51Z</time>
      </trkpt>
      <trkpt lat="36.960962014272809" lon="-2.481432007625699">
        <ele>163.56</ele>
        <time>2025-05-12T12:53:52Z</time>
      </trkpt>
      <trkpt lat="36.961374990642071" lon="-2.480716025456786">
        <ele>164.03999999999999</ele>
        <time>2025-05-12T12:53:58Z</time>
      </trkpt>
      <trkpt lat="36.961899027228355" lon="-2.480024015530944">
        <ele>165.96000000000001</ele>
        <time>2025-05-12T12:54:06Z</time>
      </trkpt>
      <trkpt lat="36.961968010291457" lon="-2.479936005547643">
        <ele>166.44999999999999</ele>
        <time>2025-05-12T12:54:07Z</time>
      </trkpt>
      <trkpt lat="36.962344022467732" lon="-2.479580026119947">
        <ele>169.33000000000001</ele>
        <time>2025-05-12T12:54:11Z</time>
      </trkpt>
      <trkpt lat="36.962460028007627" lon="-2.479523029178381">
        <ele>169.81</ele>
        <time>2025-05-12T12:54:12Z</time>
      </trkpt>
      <trkpt lat="36.962862024083734" lon="-2.479240978136659">
        <ele>172.69</ele>
        <time>2025-05-12T12:54:16Z</time>
      </trkpt>
      <trkpt lat="36.962942993268371" lon="-2.479139976203442">
        <ele>173.16999999999999</ele>
        <time>2025-05-12T12:54:17Z</time>
      </trkpt>
      <trkpt lat="36.963578006252646" lon="-2.478207992389798">
        <ele>176.53999999999999</ele>
        <time>2025-05-12T12:54:25Z</time>
      </trkpt>
      <trkpt lat="36.96367297321558" lon="-2.478107996284962">
        <ele>176.06</ele>
        <time>2025-05-12T12:54:26Z</time>
      </trkpt>
      <trkpt lat="36.963777998462319" lon="-2.478023003786802">
        <ele>176.53999999999999</ele>
        <time>2025-05-12T12:54:27Z</time>
      </trkpt>
      <trkpt lat="36.964915003627539" lon="-2.477368963882327">
        <ele>173.16999999999999</ele>
        <time>2025-05-12T12:54:37Z</time>
      </trkpt>
      <trkpt lat="36.96502598002553" lon="-2.47730802744627">
        <ele>172.69</ele>
        <time>2025-05-12T12:54:38Z</time>
      </trkpt>
      <trkpt lat="36.965104015544057" lon="-2.477196967229247">
        <ele>172.21000000000001</ele>
        <time>2025-05-12T12:54:39Z</time>
      </trkpt>
      <trkpt lat="36.965181967243552" lon="-2.477074004709721">
        <ele>171.25</ele>
        <time>2025-05-12T12:54:40Z</time>
      </trkpt>
      <trkpt lat="36.965227983891964" lon="-2.476936960592866">
        <ele>170.77000000000001</ele>
        <time>2025-05-12T12:54:41Z</time>
      </trkpt>
      <trkpt lat="36.965246004983783" lon="-2.476765969768167">
        <ele>169.81</ele>
        <time>2025-05-12T12:54:42Z</time>
      </trkpt>
      <trkpt lat="36.965214991942048" lon="-2.476620962843299">
        <ele>169.33000000000001</ele>
        <time>2025-05-12T12:54:43Z</time>
      </trkpt>
      <trkpt lat="36.965196970850229" lon="-2.47653697617352">
        <ele>169.33000000000001</ele>
        <time>2025-05-12T12:54:44Z</time>
      </trkpt>
      <trkpt lat="36.965078031644225" lon="-2.475617984309793">
        <ele>167.88999999999999</ele>
        <time>2025-05-12T12:54:51Z</time>
      </trkpt>
      <trkpt lat="36.964883990585804" lon="-2.474856991320849">
        <ele>165.47999999999999</ele>
        <time>2025-05-12T12:54:57Z</time>
      </trkpt>
      <trkpt lat="36.964694978669286" lon="-2.472973996773362">
        <ele>164.03999999999999</ele>
        <time>2025-05-12T12:55:07Z</time>
      </trkpt>
      <trkpt lat="36.964542008936405" lon="-2.471860963851214">
        <ele>163.08000000000001</ele>
        <time>2025-05-12T12:55:13Z</time>
      </trkpt>
      <trkpt lat="36.964490041136742" lon="-2.471688967198134">
        <ele>163.08000000000001</ele>
        <time>2025-05-12T12:55:14Z</time>
      </trkpt>
      <trkpt lat="36.964434972032905" lon="-2.471511019393802">
        <ele>162.59999999999999</ele>
        <time>2025-05-12T12:55:15Z</time>
      </trkpt>
      <trkpt lat="36.964345034211874" lon="-2.471353020519018">
        <ele>162.59999999999999</ele>
        <time>2025-05-12T12:55:16Z</time>
      </trkpt>
      <trkpt lat="36.964242020621896" lon="-2.471196027472615">
        <ele>162.12</ele>
        <time>2025-05-12T12:55:17Z</time>
      </trkpt>
      <trkpt lat="36.964134983718395" lon="-2.471034005284309">
        <ele>161.63999999999999</ele>
        <time>2025-05-12T12:55:18Z</time>
      </trkpt>
      <trkpt lat="36.963845975697041" lon="-2.470522960647941">
        <ele>160.68000000000001</ele>
        <time>2025-05-12T12:55:21Z</time>
      </trkpt>
      <trkpt lat="36.963394023478031" lon="-2.469370029866695">
        <ele>160.68000000000001</ele>
        <time>2025-05-12T12:55:27Z</time>
      </trkpt>
      <trkpt lat="36.963294027373195" lon="-2.469203984364867">
        <ele>161.16</ele>
        <time>2025-05-12T12:55:28Z</time>
      </trkpt>
      <trkpt lat="36.963172992691398" lon="-2.469072975218296">
        <ele>161.16</ele>
        <time>2025-05-12T12:55:29Z</time>
      </trkpt>
      <trkpt lat="36.963051036000252" lon="-2.468940960243344">
        <ele>161.16</ele>
        <time>2025-05-12T12:55:30Z</time>
      </trkpt>
      <trkpt lat="36.962938969954848" lon="-2.468829983845353">
        <ele>161.63999999999999</ele>
        <time>2025-05-12T12:55:31Z</time>
      </trkpt>
      <trkpt lat="36.962824976071715" lon="-2.46871498413384">
        <ele>161.63999999999999</ele>
        <time>2025-05-12T12:55:32Z</time>
      </trkpt>
      <trkpt lat="36.962709976360202" lon="-2.468600990250707">
        <ele>162.12</ele>
        <time>2025-05-12T12:55:33Z</time>
      </trkpt>
      <trkpt lat="36.961474986746907" lon="-2.467051008716226">
        <ele>162.59999999999999</ele>
        <time>2025-05-12T12:55:45Z</time>
      </trkpt>
      <trkpt lat="36.961407009512186" lon="-2.466957969591022">
        <ele>162.59999999999999</ele>
        <time>2025-05-12T12:55:46Z</time>
      </trkpt>
      <trkpt lat="36.961302990093827" lon="-2.466859985142946">
        <ele>162.59999999999999</ele>
        <time>2025-05-12T12:55:47Z</time>
      </trkpt>
      <trkpt lat="36.961143985390663" lon="-2.466829977929592">
        <ele>162.12</ele>
        <time>2025-05-12T12:55:49Z</time>
      </trkpt>
      <trkpt lat="36.961097968742251" lon="-2.466756971552968">
        <ele>162.12</ele>
        <time>2025-05-12T12:55:50Z</time>
      </trkpt>
      <trkpt lat="36.961077013984323" lon="-2.466628979891539">
        <ele>161.63999999999999</ele>
        <time>2025-05-12T12:55:51Z</time>
      </trkpt>
      <trkpt lat="36.961110038682818" lon="-2.466542981564999">
        <ele>161.63999999999999</ele>
        <time>2025-05-12T12:55:52Z</time>
      </trkpt>
      <trkpt lat="36.961120013147593" lon="-2.466516997665167">
        <ele>161.63999999999999</ele>
        <time>2025-05-12T12:55:53Z</time>
      </trkpt>
      <trkpt lat="36.961191007867455" lon="-2.466354975476861">
        <ele>161.63999999999999</ele>
        <time>2025-05-12T12:55:54Z</time>
      </trkpt>
      <trkpt lat="36.961174998432398" lon="-2.466255985200405">
        <ele>161.63999999999999</ele>
        <time>2025-05-12T12:55:55Z</time>
      </trkpt>
      <trkpt lat="36.961159994825721" lon="-2.466146014630795">
        <ele>161.63999999999999</ele>
        <time>2025-05-12T12:55:56Z</time>
      </trkpt>
      <trkpt lat="36.961149014532566" lon="-2.466035038232803">
        <ele>161.63999999999999</ele>
        <time>2025-05-12T12:55:57Z</time>
      </trkpt>
      <trkpt lat="36.961120013147593" lon="-2.465744018554688">
        <ele>162.59999999999999</ele>
        <time>2025-05-12T12:56:00Z</time>
      </trkpt>
      <trkpt lat="36.96109302341938" lon="-2.465609991922975">
        <ele>163.08000000000001</ele>
        <time>2025-05-12T12:56:01Z</time>
      </trkpt>
      <trkpt lat="36.961041977629066" lon="-2.465284019708633">
        <ele>164.52000000000001</ele>
        <time>2025-05-12T12:56:04Z</time>
      </trkpt>
      <trkpt lat="36.96098598651588" lon="-2.465200033038855">
        <ele>165</ele>
        <time>2025-05-12T12:56:05Z</time>
      </trkpt>
      <trkpt lat="36.9609210267663" lon="-2.465118980035186">
        <ele>165</ele>
        <time>2025-05-12T12:56:06Z</time>
      </trkpt>
      <trkpt lat="36.960910968482494" lon="-2.465041028335691">
        <ele>165.47999999999999</ele>
        <time>2025-05-12T12:56:07Z</time>
      </trkpt>
      <trkpt lat="36.960937958210707" lon="-2.464959975332022">
        <ele>165.96000000000001</ele>
        <time>2025-05-12T12:56:08Z</time>
      </trkpt>
      <trkpt lat="36.96098598651588" lon="-2.464912030845881">
        <ele>165.96000000000001</ele>
        <time>2025-05-12T12:56:09Z</time>
      </trkpt>
      <trkpt lat="36.961097968742251" lon="-2.464928962290287">
        <ele>166.44999999999999</ele>
        <time>2025-05-12T12:56:10Z</time>
      </trkpt>
      <trkpt lat="36.961152032017708" lon="-2.464874982833862">
        <ele>166.44999999999999</ele>
        <time>2025-05-12T12:56:11Z</time>
      </trkpt>
      <trkpt lat="36.961237024515867" lon="-2.464799964800477">
        <ele>166.44999999999999</ele>
        <time>2025-05-12T12:56:12Z</time>
      </trkpt>
      <trkpt lat="36.961344983428717" lon="-2.464808011427522">
        <ele>166.93000000000001</ele>
        <time>2025-05-12T12:56:13Z</time>
      </trkpt>
      <trkpt lat="36.961441962048411" lon="-2.464865008369088">
        <ele>167.41</ele>
        <time>2025-05-12T12:56:14Z</time>
      </trkpt>
      <trkpt lat="36.961527038365602" lon="-2.464950000867248">
        <ele>167.41</ele>
        <time>2025-05-12T12:56:15Z</time>
      </trkpt>
      <trkpt lat="36.961615970358253" lon="-2.465042034164071">
        <ele>167.41</ele>
        <time>2025-05-12T12:56:16Z</time>
      </trkpt>
      <trkpt lat="36.961818980053067" lon="-2.465258035808802">
        <ele>167.41</ele>
        <time>2025-05-12T12:56:18Z</time>
      </trkpt>
      <trkpt lat="36.961935991421342" lon="-2.46536398306489">
        <ele>167.41</ele>
        <time>2025-05-12T12:56:19Z</time>
      </trkpt>
      <trkpt lat="36.962064988911152" lon="-2.465447969734669">
        <ele>167.41</ele>
        <time>2025-05-12T12:56:20Z</time>
      </trkpt>
      <trkpt lat="36.962343016639352" lon="-2.465589037165046">
        <ele>166.44999999999999</ele>
        <time>2025-05-12T12:56:22Z</time>
      </trkpt>
      <trkpt lat="36.962495986372232" lon="-2.465648967772722">
        <ele>165.96000000000001</ele>
        <time>2025-05-12T12:56:23Z</time>
      </trkpt>
      <trkpt lat="36.962655996903777" lon="-2.465710993856192">
        <ele>165.47999999999999</ele>
        <time>2025-05-12T12:56:24Z</time>
      </trkpt>
      <trkpt lat="36.962824976071715" lon="-2.465766984969378">
        <ele>165</ele>
        <time>2025-05-12T12:56:25Z</time>
      </trkpt>
      <trkpt lat="36.963002001866698" lon="-2.465774025768042">
        <ele>164.52000000000001</ele>
        <time>2025-05-12T12:56:26Z</time>
      </trkpt>
      <trkpt lat="36.963178021833301" lon="-2.465781988576055">
        <ele>163.56</ele>
        <time>2025-05-12T12:56:27Z</time>
      </trkpt>
      <trkpt lat="36.963348006829619" lon="-2.465776959434152">
        <ele>163.56</ele>
        <time>2025-05-12T12:56:28Z</time>
      </trkpt>
      <trkpt lat="36.963512962684035" lon="-2.465736977756023">
        <ele>163.08000000000001</ele>
        <time>2025-05-12T12:56:29Z</time>
      </trkpt>
      <trkpt lat="36.964769996702671" lon="-2.465419974178076">
        <ele>163.08000000000001</ele>
        <time>2025-05-12T12:56:37Z</time>
      </trkpt>
      <trkpt lat="36.966814007610083" lon="-2.464924016967416">
        <ele>164.52000000000001</ele>
        <time>2025-05-12T12:56:50Z</time>
      </trkpt>
      <trkpt lat="36.968690967187285" lon="-2.464814968407154">
        <ele>164.52000000000001</ele>
        <time>2025-05-12T12:57:01Z</time>
      </trkpt>
      <trkpt lat="36.970553006976843" lon="-2.464724024757743">
        <ele>167.41</ele>
        <time>2025-05-12T12:57:11Z</time>
      </trkpt>
      <trkpt lat="36.972407000139356" lon="-2.464623022824526">
        <ele>171.25</ele>
        <time>2025-05-12T12:57:21Z</time>
      </trkpt>
      <trkpt lat="36.974216988310218" lon="-2.464543981477618">
        <ele>177.5</ele>
        <time>2025-05-12T12:57:31Z</time>
      </trkpt>
      <trkpt lat="36.976089002564549" lon="-2.46448396705091">
        <ele>184.71000000000001</ele>
        <time>2025-05-12T12:57:41Z</time>
      </trkpt>
      <trkpt lat="36.978575997054577" lon="-2.464357987046242">
        <ele>192.88</ele>
        <time>2025-05-12T12:57:53Z</time>
      </trkpt>
      <trkpt lat="36.980894012376666" lon="-2.464140979573131">
        <ele>199.61000000000001</ele>
        <time>2025-05-12T12:58:04Z</time>
      </trkpt>
      <trkpt lat="36.982946991920471" lon="-2.463508984073997">
        <ele>207.78</ele>
        <time>2025-05-12T12:58:15Z</time>
      </trkpt>
      <trkpt lat="36.98502603918314" lon="-2.462923005223274">
        <ele>212.11000000000001</ele>
        <time>2025-05-12T12:58:26Z</time>
      </trkpt>
      <trkpt lat="36.986690014600754" lon="-2.463001040741801">
        <ele>212.11000000000001</ele>
        <time>2025-05-12T12:58:35Z</time>
      </trkpt>
      <trkpt lat="36.988670993596315" lon="-2.463298011571169">
        <ele>212.11000000000001</ele>
        <time>2025-05-12T12:58:45Z</time>
      </trkpt>
      <trkpt lat="36.990379979833961" lon="-2.463033981621265">
        <ele>213.06999999999999</ele>
        <time>2025-05-12T12:58:53Z</time>
      </trkpt>
      <trkpt lat="36.99194798246026" lon="-2.462754026055336">
        <ele>214.99000000000001</ele>
        <time>2025-05-12T12:59:01Z</time>
      </trkpt>
      <trkpt lat="36.992146968841553" lon="-2.462718989700079">
        <ele>215.47</ele>
        <time>2025-05-12T12:59:02Z</time>
      </trkpt>
      <trkpt lat="36.992328017950058" lon="-2.46278403326869">
        <ele>215.94999999999999</ele>
        <time>2025-05-12T12:59:03Z</time>
      </trkpt>
      <trkpt lat="36.992500014603138" lon="-2.462901966646314">
        <ele>216.43000000000001</ele>
        <time>2025-05-12T12:59:04Z</time>
      </trkpt>
      <trkpt lat="36.992640998214483" lon="-2.463018978014588">
        <ele>216.91</ele>
        <time>2025-05-12T12:59:05Z</time>
      </trkpt>
      <trkpt lat="36.992791034281254" lon="-2.463204972445965">
        <ele>217.40000000000001</ele>
        <time>2025-05-12T12:59:06Z</time>
      </trkpt>
      <trkpt lat="36.992927994579077" lon="-2.463374035432935">
        <ele>217.88</ele>
        <time>2025-05-12T12:59:07Z</time>
      </trkpt>
      <trkpt lat="36.99321499094367" lon="-2.4636659771204">
        <ele>218.84</ele>
        <time>2025-05-12T12:59:09Z</time>
      </trkpt>
      <trkpt lat="36.993384975939989" lon="-2.463761027902365">
        <ele>219.31999999999999</ele>
        <time>2025-05-12T12:59:10Z</time>
      </trkpt>
      <trkpt lat="36.993556972593069" lon="-2.463801009580493">
        <ele>220.28</ele>
        <time>2025-05-12T12:59:11Z</time>
      </trkpt>
      <trkpt lat="36.993736010044813" lon="-2.463840991258621">
        <ele>221.24000000000001</ele>
        <time>2025-05-12T12:59:12Z</time>
      </trkpt>
      <trkpt lat="36.99392301030457" lon="-2.463851971551776">
        <ele>221.72</ele>
        <time>2025-05-12T12:59:13Z</time>
      </trkpt>
      <trkpt lat="36.99411797337234" lon="-2.463847026228905">
        <ele>222.68000000000001</ele>
        <time>2025-05-12T12:59:14Z</time>
      </trkpt>
      <trkpt lat="36.995736015960574" lon="-2.463485011830926">
        <ele>230.84999999999999</ele>
        <time>2025-05-12T12:59:22Z</time>
      </trkpt>
      <trkpt lat="36.997392028570175" lon="-2.462536012753844">
        <ele>242.87</ele>
        <time>2025-05-12T12:59:31Z</time>
      </trkpt>
      <trkpt lat="36.997589003294706" lon="-2.46246200054884">
        <ele>244.31</ele>
        <time>2025-05-12T12:59:32Z</time>
      </trkpt>
      <trkpt lat="36.997788995504379" lon="-2.462400980293751">
        <ele>245.27000000000001</ele>
        <time>2025-05-12T12:59:33Z</time>
      </trkpt>
      <trkpt lat="36.999537963420153" lon="-2.461823970079422">
        <ele>250.08000000000001</ele>
        <time>2025-05-12T12:59:42Z</time>
      </trkpt>
      <trkpt lat="37.000956013798714" lon="-2.460949989035726">
        <ele>249.59999999999999</ele>
        <time>2025-05-12T12:59:50Z</time>
      </trkpt>
      <trkpt lat="37.001760005950928" lon="-2.460165023803711">
        <ele>248.16</ele>
        <time>2025-05-12T12:59:55Z</time>
      </trkpt>
      <trkpt lat="37.001878023147583" lon="-2.45997098274529">
        <ele>248.16</ele>
        <time>2025-05-12T12:59:56Z</time>
      </trkpt>
      <trkpt lat="37.003100020810962" lon="-2.458175998181105">
        <ele>246.22999999999999</ele>
        <time>2025-05-12T13:00:06Z</time>
      </trkpt>
      <trkpt lat="37.003529006615281" lon="-2.457767967134714">
        <ele>245.75</ele>
        <time>2025-05-12T13:00:09Z</time>
      </trkpt>
      <trkpt lat="37.003678036853671" lon="-2.457661014050245">
        <ele>245.75</ele>
        <time>2025-05-12T13:00:10Z</time>
      </trkpt>
      <trkpt lat="37.003837963566184" lon="-2.457587001845241">
        <ele>245.75</ele>
        <time>2025-05-12T13:00:11Z</time>
      </trkpt>
      <trkpt lat="37.004006020724773" lon="-2.45754299685359">
        <ele>246.22999999999999</ele>
        <time>2025-05-12T13:00:12Z</time>
      </trkpt>
      <trkpt lat="37.004180029034615" lon="-2.4575200304389">
        <ele>246.72</ele>
        <time>2025-05-12T13:00:13Z</time>
      </trkpt>
      <trkpt lat="37.004695013165474" lon="-2.457424979656935">
        <ele>248.16</ele>
        <time>2025-05-12T13:00:16Z</time>
      </trkpt>
      <trkpt lat="37.004853012040257" lon="-2.457325989380479">
        <ele>248.63999999999999</ele>
        <time>2025-05-12T13:00:17Z</time>
      </trkpt>
      <trkpt lat="37.005007993429899" lon="-2.45721903629601">
        <ele>248.63999999999999</ele>
        <time>2025-05-12T13:00:18Z</time>
      </trkpt>
      <trkpt lat="37.005151994526386" lon="-2.457081992179155">
        <ele>249.12</ele>
        <time>2025-05-12T13:00:19Z</time>
      </trkpt>
      <trkpt lat="37.005297001451254" lon="-2.456943020224571">
        <ele>249.12</ele>
        <time>2025-05-12T13:00:20Z</time>
      </trkpt>
      <trkpt lat="37.006014995276928" lon="-2.456238018348813">
        <ele>247.19999999999999</ele>
        <time>2025-05-12T13:00:25Z</time>
      </trkpt>
      <trkpt lat="37.006139969453216" lon="-2.456070967018604">
        <ele>247.19999999999999</ele>
        <time>2025-05-12T13:00:26Z</time>
      </trkpt>
      <trkpt lat="37.006222028285265" lon="-2.455861000344157">
        <ele>246.72</ele>
        <time>2025-05-12T13:00:27Z</time>
      </trkpt>
      <trkpt lat="37.00629604049027" lon="-2.455647010356188">
        <ele>246.22999999999999</ele>
        <time>2025-05-12T13:00:28Z</time>
      </trkpt>
      <trkpt lat="37.006367035210133" lon="-2.45543897151947">
        <ele>246.22999999999999</ele>
        <time>2025-05-12T13:00:29Z</time>
      </trkpt>
      <trkpt lat="37.006433000788093" lon="-2.4552440084517">
        <ele>245.75</ele>
        <time>2025-05-12T13:00:30Z</time>
      </trkpt>
      <trkpt lat="37.006516987457871" lon="-2.45507201179862">
        <ele>245.75</ele>
        <time>2025-05-12T13:00:31Z</time>
      </trkpt>
      <trkpt lat="37.006606003269553" lon="-2.454914012923837">
        <ele>245.27000000000001</ele>
        <time>2025-05-12T13:00:32Z</time>
      </trkpt>
      <trkpt lat="37.006724020466208" lon="-2.454808987677097">
        <ele>244.78999999999999</ele>
        <time>2025-05-12T13:00:33Z</time>
      </trkpt>
      <trkpt lat="37.006854023784399" lon="-2.454716032370925">
        <ele>244.78999999999999</ele>
        <time>2025-05-12T13:00:34Z</time>
      </trkpt>
      <trkpt lat="37.006998024880886" lon="-2.454631039872766">
        <ele>244.78999999999999</ele>
        <time>2025-05-12T13:00:35Z</time>
      </trkpt>
      <trkpt lat="37.007152000442147" lon="-2.454567002132535">
        <ele>244.78999999999999</ele>
        <time>2025-05-12T13:00:36Z</time>
      </trkpt>
      <trkpt lat="37.008292023092508" lon="-2.454097028821707">
        <ele>243.83000000000001</ele>
        <time>2025-05-12T13:00:43Z</time>
      </trkpt>
      <trkpt lat="37.008433006703854" lon="-2.454000972211361">
        <ele>243.83000000000001</ele>
        <time>2025-05-12T13:00:44Z</time>
      </trkpt>
      <trkpt lat="37.008551023900509" lon="-2.453866023570299">
        <ele>243.34999999999999</ele>
        <time>2025-05-12T13:00:45Z</time>
      </trkpt>
      <trkpt lat="37.009426010772586" lon="-2.452661963179708">
        <ele>244.31</ele>
        <time>2025-05-12T13:00:53Z</time>
      </trkpt>
      <trkpt lat="37.010644990950823" lon="-2.450513010844588">
        <ele>249.12</ele>
        <time>2025-05-12T13:01:04Z</time>
      </trkpt>
      <trkpt lat="37.011890038847923" lon="-2.448295997455716">
        <ele>257.29000000000002</ele>
        <time>2025-05-12T13:01:15Z</time>
      </trkpt>
      <trkpt lat="37.012578025460243" lon="-2.447190005332232">
        <ele>263.06</ele>
        <time>2025-05-12T13:01:22Z</time>
      </trkpt>
      <trkpt lat="37.013261988759041" lon="-2.446410991251469">
        <ele>268.35000000000002</ele>
        <time>2025-05-12T13:01:30Z</time>
      </trkpt>
      <trkpt lat="37.013339018449187" lon="-2.446352988481522">
        <ele>269.31</ele>
        <time>2025-05-12T13:01:37Z</time>
      </trkpt>
      <trkpt lat="37.013339018449187" lon="-2.446352988481522">
        <ele>270.26999999999998</ele>
        <time>2025-05-12T13:02:16Z</time>
      </trkpt>
      <trkpt lat="37.013491988182068" lon="-2.446237988770008">
        <ele>270.26999999999998</ele>
        <time>2025-05-12T13:02:42Z</time>
      </trkpt>
      <trkpt lat="37.014220040291548" lon="-2.445691991597414">
        <ele>272.19</ele>
        <time>2025-05-12T13:02:49Z</time>
      </trkpt>
      <trkpt lat="37.015654016286135" lon="-2.445096960291266">
        <ele>276.51999999999998</ele>
        <time>2025-05-12T13:02:56Z</time>
      </trkpt>
      <trkpt lat="37.017303993925452" lon="-2.444669986143708">
        <ele>279.39999999999998</ele>
        <time>2025-05-12T13:03:04Z</time>
      </trkpt>
      <trkpt lat="37.017908999696374" lon="-2.444338984787464">
        <ele>276.51999999999998</ele>
        <time>2025-05-12T13:03:08Z</time>
      </trkpt>
      <trkpt lat="37.018010001629591" lon="-2.444236977025867">
        <ele>275.56</ele>
        <time>2025-05-12T13:03:09Z</time>
      </trkpt>
      <trkpt lat="37.018079990521073" lon="-2.444127006456256">
        <ele>274.58999999999997</ele>
        <time>2025-05-12T13:03:10Z</time>
      </trkpt>
      <trkpt lat="37.018184009939432" lon="-2.443945035338402">
        <ele>273.14999999999998</ele>
        <time>2025-05-12T13:03:12Z</time>
      </trkpt>
      <trkpt lat="37.018247963860631" lon="-2.443904969841242">
        <ele>272.19</ele>
        <time>2025-05-12T13:03:13Z</time>
      </trkpt>
      <trkpt lat="37.018312001600862" lon="-2.443883009254932">
        <ele>271.70999999999998</ele>
        <time>2025-05-12T13:03:14Z</time>
      </trkpt>
      <trkpt lat="37.018356006592512" lon="-2.443894995376468">
        <ele>270.75</ele>
        <time>2025-05-12T13:03:15Z</time>
      </trkpt>
      <trkpt lat="37.018390037119389" lon="-2.443914022296667">
        <ele>270.26999999999998</ele>
        <time>2025-05-12T13:03:16Z</time>
      </trkpt>
      <trkpt lat="37.01841602101922" lon="-2.443929025903344">
        <ele>269.31</ele>
        <time>2025-05-12T13:03:17Z</time>
      </trkpt>
      <trkpt lat="37.018471006304026" lon="-2.443960038945079">
        <ele>268.35000000000002</ele>
        <time>2025-05-12T13:03:19Z</time>
      </trkpt>
      <trkpt lat="37.018553987145424" lon="-2.443956015631557">
        <ele>267.86000000000001</ele>
        <time>2025-05-12T13:03:20Z</time>
      </trkpt>
      <trkpt lat="37.018603021278977" lon="-2.443914022296667">
        <ele>266.89999999999998</ele>
        <time>2025-05-12T13:03:21Z</time>
      </trkpt>
      <trkpt lat="37.018668986856937" lon="-2.443802040070295">
        <ele>265.94</ele>
        <time>2025-05-12T13:03:22Z</time>
      </trkpt>
      <trkpt lat="37.018662029877305" lon="-2.443698020651937">
        <ele>265.45999999999998</ele>
        <time>2025-05-12T13:03:23Z</time>
      </trkpt>
      <trkpt lat="37.018647026270628" lon="-2.443589977920055">
        <ele>264.98000000000002</ele>
        <time>2025-05-12T13:03:24Z</time>
      </trkpt>
      <trkpt lat="37.018643002957106" lon="-2.443470032885671">
        <ele>264.98000000000002</ele>
        <time>2025-05-12T13:03:25Z</time>
      </trkpt>
      <trkpt lat="37.018622970208526" lon="-2.442360017448664">
        <ele>265.45999999999998</ele>
        <time>2025-05-12T13:03:34Z</time>
      </trkpt>
      <trkpt lat="37.018644008785486" lon="-2.442237976938486">
        <ele>265.45999999999998</ele>
        <time>2025-05-12T13:03:35Z</time>
      </trkpt>
      <trkpt lat="37.018668986856937" lon="-2.442097999155521">
        <ele>265.94</ele>
        <time>2025-05-12T13:03:36Z</time>
      </trkpt>
      <trkpt lat="37.018720032647252" lon="-2.44200998917222">
        <ele>266.42000000000002</ele>
        <time>2025-05-12T13:03:37Z</time>
      </trkpt>
      <trkpt lat="37.018784992396832" lon="-2.441898006945849">
        <ele>266.89999999999998</ele>
        <time>2025-05-12T13:03:38Z</time>
      </trkpt>
      <trkpt lat="37.018864033743739" lon="-2.44179499335587">
        <ele>267.38</ele>
        <time>2025-05-12T13:03:39Z</time>
      </trkpt>
      <trkpt lat="37.018956989049911" lon="-2.441702960059047">
        <ele>267.86000000000001</ele>
        <time>2025-05-12T13:03:40Z</time>
      </trkpt>
      <trkpt lat="37.019717982038856" lon="-2.440738035365939">
        <ele>273.14999999999998</ele>
        <time>2025-05-12T13:03:48Z</time>
      </trkpt>
      <trkpt lat="37.019838010892272" lon="-2.440436035394669">
        <ele>274.58999999999997</ele>
        <time>2025-05-12T13:03:50Z</time>
      </trkpt>
      <trkpt lat="37.019881010055542" lon="-2.440283987671137">
        <ele>275.56</ele>
        <time>2025-05-12T13:03:51Z</time>
      </trkpt>
      <trkpt lat="37.020222991704941" lon="-2.438335027545691">
        <ele>283.73000000000002</ele>
        <time>2025-05-12T13:04:03Z</time>
      </trkpt>
      <trkpt lat="37.020581988617778" lon="-2.436391012743115">
        <ele>289.49000000000001</ele>
        <time>2025-05-12T13:04:15Z</time>
      </trkpt>
      <trkpt lat="37.020948026329279" lon="-2.435408988967538">
        <ele>292.86000000000001</ele>
        <time>2025-05-12T13:04:24Z</time>
      </trkpt>
      <trkpt lat="37.021302999928594" lon="-2.43455302901566">
        <ele>298.14999999999998</ele>
        <time>2025-05-12T13:04:35Z</time>
      </trkpt>
      <trkpt lat="37.021580021828413" lon="-2.434040978550911">
        <ele>300.06999999999999</ele>
        <time>2025-05-12T13:04:39Z</time>
      </trkpt>
      <trkpt lat="37.021679012104869" lon="-2.433923967182636">
        <ele>300.06999999999999</ele>
        <time>2025-05-12T13:04:40Z</time>
      </trkpt>
      <trkpt lat="37.021773979067802" lon="-2.433812990784645">
        <ele>300.06999999999999</ele>
        <time>2025-05-12T13:04:41Z</time>
      </trkpt>
      <trkpt lat="37.022957000881433" lon="-2.432982008904219">
        <ele>298.14999999999998</ele>
        <time>2025-05-12T13:04:50Z</time>
      </trkpt>
      <trkpt lat="37.023718999698758" lon="-2.432403992861509">
        <ele>299.58999999999997</ele>
        <time>2025-05-12T13:04:56Z</time>
      </trkpt>
      <trkpt lat="37.023821007460356" lon="-2.432293016463518">
        <ele>300.06999999999999</ele>
        <time>2025-05-12T13:04:57Z</time>
      </trkpt>
      <trkpt lat="37.02389501966536" lon="-2.432159995660186">
        <ele>300.06999999999999</ele>
        <time>2025-05-12T13:04:58Z</time>
      </trkpt>
      <trkpt lat="37.023953022435308" lon="-2.432004008442164">
        <ele>300.55000000000001</ele>
        <time>2025-05-12T13:04:59Z</time>
      </trkpt>
      <trkpt lat="37.024013036862016" lon="-2.431845003738999">
        <ele>301.50999999999999</ele>
        <time>2025-05-12T13:05:00Z</time>
      </trkpt>
      <trkpt lat="37.024069027975202" lon="-2.431676024571061">
        <ele>301.99000000000001</ele>
        <time>2025-05-12T13:05:01Z</time>
      </trkpt>
      <trkpt lat="37.024819040670991" lon="-2.42890496738255">
        <ele>316.41000000000003</ele>
        <time>2025-05-12T13:05:16Z</time>
      </trkpt>
      <trkpt lat="37.024899004027247" lon="-2.428719978779554">
        <ele>317.37</ele>
        <time>2025-05-12T13:05:17Z</time>
      </trkpt>
      <trkpt lat="37.025014003738761" lon="-2.428561979904771">
        <ele>317.85000000000002</ele>
        <time>2025-05-12T13:05:18Z</time>
      </trkpt>
      <trkpt lat="37.025130009278655" lon="-2.428401969373226">
        <ele>318.32999999999998</ele>
        <time>2025-05-12T13:05:19Z</time>
      </trkpt>
      <trkpt lat="37.025253977626562" lon="-2.428244976326823">
        <ele>319.30000000000001</ele>
        <time>2025-05-12T13:05:20Z</time>
      </trkpt>
      <trkpt lat="37.025400996208191" lon="-2.428143974393606">
        <ele>319.77999999999997</ele>
        <time>2025-05-12T13:05:21Z</time>
      </trkpt>
      <trkpt lat="37.025544997304678" lon="-2.428045989945531">
        <ele>320.25999999999999</ele>
        <time>2025-05-12T13:05:22Z</time>
      </trkpt>
      <trkpt lat="37.025692015886307" lon="-2.427959991618991">
        <ele>320.74000000000001</ele>
        <time>2025-05-12T13:05:23Z</time>
      </trkpt>
      <trkpt lat="37.025843979790807" lon="-2.427902994677424">
        <ele>320.74000000000001</ele>
        <time>2025-05-12T13:05:24Z</time>
      </trkpt>
      <trkpt lat="37.025999967008829" lon="-2.42785002104938">
        <ele>321.22000000000003</ele>
        <time>2025-05-12T13:05:25Z</time>
      </trkpt>
      <trkpt lat="37.026160983368754" lon="-2.42785002104938">
        <ele>321.69999999999999</ele>
        <time>2025-05-12T13:05:26Z</time>
      </trkpt>
      <trkpt lat="37.02632199972868" lon="-2.42785002104938">
        <ele>321.69999999999999</ele>
        <time>2025-05-12T13:05:27Z</time>
      </trkpt>
      <trkpt lat="37.027907017618418" lon="-2.427883967757225">
        <ele>319.30000000000001</ele>
        <time>2025-05-12T13:05:36Z</time>
      </trkpt>
      <trkpt lat="37.028697011992335" lon="-2.427574004977942">
        <ele>315.93000000000001</ele>
        <time>2025-05-12T13:05:41Z</time>
      </trkpt>
      <trkpt lat="37.028845958411694" lon="-2.42748498916626">
        <ele>314.97000000000003</ele>
        <time>2025-05-12T13:05:42Z</time>
      </trkpt>
      <trkpt lat="37.029937030747533" lon="-2.426498020067811">
        <ele>310.63999999999999</ele>
        <time>2025-05-12T13:05:50Z</time>
      </trkpt>
      <trkpt lat="37.030042978003621" lon="-2.426344966515899">
        <ele>310.63999999999999</ele>
        <time>2025-05-12T13:05:51Z</time>
      </trkpt>
      <trkpt lat="37.030145991593599" lon="-2.426190990954638">
        <ele>310.63999999999999</ele>
        <time>2025-05-12T13:05:52Z</time>
      </trkpt>
      <trkpt lat="37.030214974656701" lon="-2.426009019836783">
        <ele>311.12</ele>
        <time>2025-05-12T13:05:53Z</time>
      </trkpt>
      <trkpt lat="37.030271971598268" lon="-2.425820007920265">
        <ele>311.60000000000002</ele>
        <time>2025-05-12T13:05:54Z</time>
      </trkpt>
      <trkpt lat="37.030325029045343" lon="-2.425643987953663">
        <ele>312.56999999999999</ele>
        <time>2025-05-12T13:05:55Z</time>
      </trkpt>
      <trkpt lat="37.030370961874723" lon="-2.425471991300583">
        <ele>313.52999999999997</ele>
        <time>2025-05-12T13:05:56Z</time>
      </trkpt>
      <trkpt lat="37.030412033200264" lon="-2.425293959677219">
        <ele>314.97000000000003</ele>
        <time>2025-05-12T13:05:57Z</time>
      </trkpt>
      <trkpt lat="37.030703974887729" lon="-2.423559995368123">
        <ele>325.06</ele>
        <time>2025-05-12T13:06:08Z</time>
      </trkpt>
      <trkpt lat="37.030742028728127" lon="-2.423439966514707">
        <ele>326.01999999999998</ele>
        <time>2025-05-12T13:06:09Z</time>
      </trkpt>
      <trkpt lat="37.030777987092733" lon="-2.423323960974813">
        <ele>326.99000000000001</ele>
        <time>2025-05-12T13:06:10Z</time>
      </trkpt>
      <trkpt lat="37.030844958499074" lon="-2.423226982355118">
        <ele>327.47000000000003</ele>
        <time>2025-05-12T13:06:11Z</time>
      </trkpt>
      <trkpt lat="37.030922994017601" lon="-2.423149030655623">
        <ele>327.94999999999999</ele>
        <time>2025-05-12T13:06:12Z</time>
      </trkpt>
      <trkpt lat="37.031020978465676" lon="-2.423119023442268">
        <ele>328.43000000000001</ele>
        <time>2025-05-12T13:06:13Z</time>
      </trkpt>
      <trkpt lat="37.031115023419261" lon="-2.423107959330082">
        <ele>328.91000000000003</ele>
        <time>2025-05-12T13:06:14Z</time>
      </trkpt>
      <trkpt lat="37.031234968453646" lon="-2.423140984028578">
        <ele>328.91000000000003</ele>
        <time>2025-05-12T13:06:15Z</time>
      </trkpt>
      <trkpt lat="37.03135097399354" lon="-2.423171997070313">
        <ele>328.91000000000003</ele>
        <time>2025-05-12T13:06:16Z</time>
      </trkpt>
      <trkpt lat="37.03145801089704" lon="-2.423223964869976">
        <ele>328.91000000000003</ele>
        <time>2025-05-12T13:06:17Z</time>
      </trkpt>
      <trkpt lat="37.031572004780173" lon="-2.423278028145433">
        <ele>328.91000000000003</ele>
        <time>2025-05-12T13:06:18Z</time>
      </trkpt>
      <trkpt lat="37.031808961182833" lon="-2.423392022028565">
        <ele>328.43000000000001</ele>
        <time>2025-05-12T13:06:20Z</time>
      </trkpt>
      <trkpt lat="37.032481022179127" lon="-2.423563012853265">
        <ele>329.87</ele>
        <time>2025-05-12T13:06:25Z</time>
      </trkpt>
      <trkpt lat="37.032615970820189" lon="-2.423533005639911">
        <ele>330.35000000000002</ele>
        <time>2025-05-12T13:06:26Z</time>
      </trkpt>
      <trkpt lat="37.032887041568756" lon="-2.423473997041583">
        <ele>331.79000000000002</ele>
        <time>2025-05-12T13:06:28Z</time>
      </trkpt>
      <trkpt lat="37.03300204128027" lon="-2.423409959301353">
        <ele>332.75</ele>
        <time>2025-05-12T13:06:29Z</time>
      </trkpt>
      <trkpt lat="37.033117963001132" lon="-2.423342987895012">
        <ele>333.70999999999998</ele>
        <time>2025-05-12T13:06:30Z</time>
      </trkpt>
      <trkpt lat="37.033223994076252" lon="-2.423263024538755">
        <ele>334.68000000000001</ele>
        <time>2025-05-12T13:06:31Z</time>
      </trkpt>
      <trkpt lat="37.033329019322991" lon="-2.423176020383835">
        <ele>335.63999999999999</ele>
        <time>2025-05-12T13:06:32Z</time>
      </trkpt>
      <trkpt lat="37.033431027084589" lon="-2.423076024278998">
        <ele>336.60000000000002</ele>
        <time>2025-05-12T13:06:33Z</time>
      </trkpt>
      <trkpt lat="37.033603023737669" lon="-2.422814005985856">
        <ele>337.56</ele>
        <time>2025-05-12T13:06:35Z</time>
      </trkpt>
      <trkpt lat="37.034467030316591" lon="-2.421412970870733">
        <ele>343.32999999999998</ele>
        <time>2025-05-12T13:06:45Z</time>
      </trkpt>
      <trkpt lat="37.034779004752636" lon="-2.420884994789958">
        <ele>344.76999999999998</ele>
        <time>2025-05-12T13:06:52Z</time>
      </trkpt>
      <trkpt lat="37.034791996702552" lon="-2.420863034203649">
        <ele>344.76999999999998</ele>
        <time>2025-05-12T13:07:00Z</time>
      </trkpt>
      <trkpt lat="37.034791996702552" lon="-2.420863034203649">
        <ele>345.25</ele>
        <time>2025-05-12T13:07:42Z</time>
      </trkpt>
      <trkpt lat="37.034948989748955" lon="-2.420596992596984">
        <ele>345.73000000000002</ele>
        <time>2025-05-12T13:08:00Z</time>
      </trkpt>
      <trkpt lat="37.03545399941504" lon="-2.419742960482836">
        <ele>344.76999999999998</ele>
        <time>2025-05-12T13:08:06Z</time>
      </trkpt>
      <trkpt lat="37.036585975438356" lon="-2.417764998972416">
        <ele>345.25</ele>
        <time>2025-05-12T13:08:17Z</time>
      </trkpt>
      <trkpt lat="37.037617033347487" lon="-2.416056012734771">
        <ele>349.57999999999998</ele>
        <time>2025-05-12T13:08:27Z</time>
      </trkpt>
      <trkpt lat="37.037813002243638" lon="-2.415756024420261">
        <ele>350.06</ele>
        <time>2025-05-12T13:08:29Z</time>
      </trkpt>
      <trkpt lat="37.038797959685326" lon="-2.41474399343133">
        <ele>352.94</ele>
        <time>2025-05-12T13:08:37Z</time>
      </trkpt>
      <trkpt lat="37.039117980748415" lon="-2.414507959038019">
        <ele>354.86000000000001</ele>
        <time>2025-05-12T13:08:41Z</time>
      </trkpt>
      <trkpt lat="37.039144970476627" lon="-2.414488010108471">
        <ele>356.31</ele>
        <time>2025-05-12T13:08:48Z</time>
      </trkpt>
      <trkpt lat="37.039144970476627" lon="-2.414488010108471">
        <ele>356.31</ele>
        <time>2025-05-12T13:08:54Z</time>
      </trkpt>
      <trkpt lat="37.039313027635217" lon="-2.414383990690112">
        <ele>358.23000000000002</ele>
        <time>2025-05-12T13:09:02Z</time>
      </trkpt>
      <trkpt lat="37.040086006745696" lon="-2.413945030421019">
        <ele>362.06999999999999</ele>
        <time>2025-05-12T13:09:09Z</time>
      </trkpt>
      <trkpt lat="37.041270034387708" lon="-2.413052022457123">
        <ele>366.39999999999998</ele>
        <time>2025-05-12T13:09:18Z</time>
      </trkpt>
      <trkpt lat="37.041957015171647" lon="-2.411861037835479">
        <ele>366.88</ele>
        <time>2025-05-12T13:09:25Z</time>
      </trkpt>
      <trkpt lat="37.042553974315524" lon="-2.409753995016217">
        <ele>366.39999999999998</ele>
        <time>2025-05-12T13:09:35Z</time>
      </trkpt>
      <trkpt lat="37.042594039812684" lon="-2.409515026956797">
        <ele>365.92000000000002</ele>
        <time>2025-05-12T13:09:36Z</time>
      </trkpt>
      <trkpt lat="37.042594039812684" lon="-2.409275975078344">
        <ele>364.95999999999998</ele>
        <time>2025-05-12T13:09:37Z</time>
      </trkpt>
      <trkpt lat="37.042580964043736" lon="-2.409031977877021">
        <ele>364.48000000000002</ele>
        <time>2025-05-12T13:09:38Z</time>
      </trkpt>
      <trkpt lat="37.042513992637396" lon="-2.408819999545813">
        <ele>363.51999999999998</ele>
        <time>2025-05-12T13:09:39Z</time>
      </trkpt>
      <trkpt lat="37.042446015402675" lon="-2.408602992072702">
        <ele>362.55000000000001</ele>
        <time>2025-05-12T13:09:40Z</time>
      </trkpt>
      <trkpt lat="37.041924996301532" lon="-2.407055022194982">
        <ele>354.86000000000001</ele>
        <time>2025-05-12T13:09:48Z</time>
      </trkpt>
      <trkpt lat="37.041821982711554" lon="-2.406713962554932">
        <ele>352.94</ele>
        <time>2025-05-12T13:09:50Z</time>
      </trkpt>
      <trkpt lat="37.041840003803372" lon="-2.406570967286825">
        <ele>351.98000000000002</ele>
        <time>2025-05-12T13:09:51Z</time>
      </trkpt>
      <trkpt lat="37.041862970218062" lon="-2.406396036967635">
        <ele>351.01999999999998</ele>
        <time>2025-05-12T13:09:52Z</time>
      </trkpt>
      <trkpt lat="37.041886020451784" lon="-2.406220017001033">
        <ele>350.54000000000002</ele>
        <time>2025-05-12T13:09:53Z</time>
      </trkpt>
      <trkpt lat="37.041961960494518" lon="-2.406081967055798">
        <ele>349.57999999999998</ele>
        <time>2025-05-12T13:09:54Z</time>
      </trkpt>
      <trkpt lat="37.042049970477819" lon="-2.405954981222749">
        <ele>349.10000000000002</ele>
        <time>2025-05-12T13:09:55Z</time>
      </trkpt>
      <trkpt lat="37.042172010987997" lon="-2.405854985117912">
        <ele>348.62</ele>
        <time>2025-05-12T13:09:56Z</time>
      </trkpt>
      <trkpt lat="37.042295979335904" lon="-2.405751971527934">
        <ele>348.62</ele>
        <time>2025-05-12T13:09:57Z</time>
      </trkpt>
      <trkpt lat="37.043735990300775" lon="-2.404690990224481">
        <ele>349.10000000000002</ele>
        <time>2025-05-12T13:10:07Z</time>
      </trkpt>
      <trkpt lat="37.045123027637601" lon="-2.403681976720691">
        <ele>357.75</ele>
        <time>2025-05-12T13:10:16Z</time>
      </trkpt>
      <trkpt lat="37.046693963930011" lon="-2.402571961283684">
        <ele>371.69</ele>
        <time>2025-05-12T13:10:27Z</time>
      </trkpt>
      <trkpt lat="37.047362001612782" lon="-2.401876011863351">
        <ele>375.05000000000001</ele>
        <time>2025-05-12T13:10:35Z</time>
      </trkpt>
      <trkpt lat="37.048071026802063" lon="-2.401129016652703">
        <ele>378.42000000000002</ele>
        <time>2025-05-12T13:10:44Z</time>
      </trkpt>
      <trkpt lat="37.048127017915249" lon="-2.401066990569234">
        <ele>379.86000000000001</ele>
        <time>2025-05-12T13:10:50Z</time>
      </trkpt>
      <trkpt lat="37.048134980723262" lon="-2.40105701610446">
        <ele>379.86000000000001</ele>
        <time>2025-05-12T13:10:57Z</time>
      </trkpt>
      <trkpt lat="37.048163982108235" lon="-2.401136979460716">
        <ele>380.33999999999997</ele>
        <time>2025-05-12T13:10:59Z</time>
      </trkpt>
      <trkpt lat="37.048147972673178" lon="-2.401180984452367">
        <ele>380.81999999999999</ele>
        <time>2025-05-12T13:11:00Z</time>
      </trkpt>
      <trkpt lat="37.04812902957201" lon="-2.401233036071062">
        <ele>380.81999999999999</ele>
        <time>2025-05-12T13:11:01Z</time>
      </trkpt>
      <trkpt lat="37.048105979338288" lon="-2.401302019134164">
        <ele>380.81999999999999</ele>
        <time>2025-05-12T13:11:02Z</time>
      </trkpt>
      <trkpt lat="37.048092987388372" lon="-2.401375025510788">
        <ele>380.81999999999999</ele>
        <time>2025-05-12T13:11:03Z</time>
      </trkpt>
      <trkpt lat="37.048054011538625" lon="-2.401594966650009">
        <ele>381.30000000000001</ele>
        <time>2025-05-12T13:11:08Z</time>
      </trkpt>
      <trkpt lat="37.048017969354987" lon="-2.401666967198253">
        <ele>381.30000000000001</ele>
        <time>2025-05-12T13:11:09Z</time>
      </trkpt>
      <trkpt lat="37.047932976856828" lon="-2.401721030473709">
        <ele>380.81999999999999</ele>
        <time>2025-05-12T13:11:10Z</time>
      </trkpt>
      <trkpt lat="37.047180030494928" lon="-2.402222016826272">
        <ele>377.94</ele>
        <time>2025-05-12T13:11:16Z</time>
      </trkpt>
      <trkpt lat="37.045757034793496" lon="-2.403234969824553">
        <ele>373.61000000000001</ele>
        <time>2025-05-12T13:11:26Z</time>
      </trkpt>
      <trkpt lat="37.043875968083739" lon="-2.404587976634502">
        <ele>360.14999999999998</ele>
        <time>2025-05-12T13:11:39Z</time>
      </trkpt>
      <trkpt lat="37.042551962658763" lon="-2.405539993196726">
        <ele>349.57999999999998</ele>
        <time>2025-05-12T13:11:49Z</time>
      </trkpt>
      <trkpt lat="37.042078971862793" lon="-2.405932014808059">
        <ele>348.62</ele>
        <time>2025-05-12T13:11:54Z</time>
      </trkpt>
      <trkpt lat="37.04200797714293" lon="-2.405995968729258">
        <ele>348.62</ele>
        <time>2025-05-12T13:11:55Z</time>
      </trkpt>
      <trkpt lat="37.041894989088178" lon="-2.406204007565975">
        <ele>349.10000000000002</ele>
        <time>2025-05-12T13:11:58Z</time>
      </trkpt>
      <trkpt lat="37.041886020451784" lon="-2.406220017001033">
        <ele>349.10000000000002</ele>
        <time>2025-05-12T13:11:59Z</time>
      </trkpt>
      <trkpt lat="37.041771020740271" lon="-2.40614902228117">
        <ele>349.10000000000002</ele>
        <time>2025-05-12T13:12:01Z</time>
      </trkpt>
      <trkpt lat="37.041731039062142" lon="-2.406123960390687">
        <ele>349.57999999999998</ele>
        <time>2025-05-12T13:12:02Z</time>
      </trkpt>
      <trkpt lat="37.041686028242111" lon="-2.406094959005714">
        <ele>349.57999999999998</ele>
        <time>2025-05-12T13:12:03Z</time>
      </trkpt>
      <trkpt lat="37.041639005765319" lon="-2.406066041439772">
        <ele>349.57999999999998</ele>
        <time>2025-05-12T13:12:04Z</time>
      </trkpt>
      <trkpt lat="37.041543032974005" lon="-2.406006027013063">
        <ele>349.10000000000002</ele>
        <time>2025-05-12T13:12:07Z</time>
      </trkpt>
      <trkpt lat="37.041543032974005" lon="-2.406006027013063">
        <ele>349.57999999999998</ele>
        <time>2025-05-12T13:12:18Z</time>
      </trkpt>
      <trkpt lat="37.041505984961987" lon="-2.405919022858143">
        <ele>349.57999999999998</ele>
        <time>2025-05-12T13:12:20Z</time>
      </trkpt>
      <trkpt lat="37.041485030204058" lon="-2.40587099455297">
        <ele>349.57999999999998</ele>
        <time>2025-05-12T13:12:21Z</time>
      </trkpt>
      <trkpt lat="37.041478995233774" lon="-2.405855990946293">
        <ele>349.57999999999998</ele>
        <time>2025-05-12T13:12:22Z</time>
      </trkpt>
      <trkpt lat="37.041505984961987" lon="-2.405778039246798">
        <ele>349.57999999999998</ele>
        <time>2025-05-12T13:12:23Z</time>
      </trkpt>
      <trkpt lat="37.041533980518579" lon="-2.405697992071509">
        <ele>349.57999999999998</ele>
        <time>2025-05-12T13:12:24Z</time>
      </trkpt>
      <trkpt lat="37.041563987731934" lon="-2.405610987916589">
        <ele>348.62</ele>
        <time>2025-05-12T13:12:25Z</time>
      </trkpt>
      <trkpt lat="37.041595000773668" lon="-2.405522977933288">
        <ele>348.13</ele>
        <time>2025-05-12T13:12:26Z</time>
      </trkpt>
      <trkpt lat="37.041734978556633" lon="-2.405126010999084">
        <ele>346.20999999999998</ele>
        <time>2025-05-12T13:12:30Z</time>
      </trkpt>
      <trkpt lat="37.041761968284845" lon="-2.405008999630809">
        <ele>345.73000000000002</ele>
        <time>2025-05-12T13:12:31Z</time>
      </trkpt>
      <trkpt lat="37.041771020740271" lon="-2.404901040717959">
        <ele>345.25</ele>
        <time>2025-05-12T13:12:32Z</time>
      </trkpt>
      <trkpt lat="37.041801027953625" lon="-2.404545983299613">
        <ele>343.32999999999998</ele>
        <time>2025-05-12T13:12:36Z</time>
      </trkpt>
      <trkpt lat="37.041825000196695" lon="-2.404498038813472">
        <ele>342.85000000000002</ele>
        <time>2025-05-12T13:12:37Z</time>
      </trkpt>
      <trkpt lat="37.041845032945275" lon="-2.404458979144692">
        <ele>342.37</ele>
        <time>2025-05-12T13:12:38Z</time>
      </trkpt>
      <trkpt lat="37.041898006573319" lon="-2.404438024386764">
        <ele>341.88999999999999</ele>
        <time>2025-05-12T13:12:39Z</time>
      </trkpt>
      <trkpt lat="37.041927007958293" lon="-2.404455039650202">
        <ele>341.41000000000003</ele>
        <time>2025-05-12T13:12:40Z</time>
      </trkpt>
      <trkpt lat="37.041960032656789" lon="-2.40447498857975">
        <ele>341.41000000000003</ele>
        <time>2025-05-12T13:12:41Z</time>
      </trkpt>
      <trkpt lat="37.041988028213382" lon="-2.404507007449865">
        <ele>340.92000000000002</ele>
        <time>2025-05-12T13:12:42Z</time>
      </trkpt>
      <trkpt lat="37.042020969092846" lon="-2.404555035755038">
        <ele>340.44</ele>
        <time>2025-05-12T13:12:43Z</time>
      </trkpt>
      <trkpt lat="37.042059022933245" lon="-2.404612032696605">
        <ele>340.44</ele>
        <time>2025-05-12T13:12:44Z</time>
      </trkpt>
      <trkpt lat="37.042105961591005" lon="-2.404683027416468">
        <ele>339.95999999999998</ele>
        <time>2025-05-12T13:12:45Z</time>
      </trkpt>
      <trkpt lat="37.042752960696816" lon="-2.405672008171678">
        <ele>335.16000000000003</ele>
        <time>2025-05-12T13:12:57Z</time>
      </trkpt>
      <trkpt lat="37.043364001438022" lon="-2.406740030273795">
        <ele>332.75</ele>
        <time>2025-05-12T13:13:10Z</time>
      </trkpt>
      <trkpt lat="37.044031033292413" lon="-2.407907964661717">
        <ele>330.35000000000002</ele>
        <time>2025-05-12T13:13:24Z</time>
      </trkpt>
      <trkpt lat="37.044652970507741" lon="-2.409060979261994">
        <ele>330.35000000000002</ele>
        <time>2025-05-12T13:13:38Z</time>
      </trkpt>
      <trkpt lat="37.044722037389874" lon="-2.409215038642287">
        <ele>330.82999999999998</ele>
        <time>2025-05-12T13:13:40Z</time>
      </trkpt>
      <trkpt lat="37.044753972440958" lon="-2.409287039190531">
        <ele>330.82999999999998</ele>
        <time>2025-05-12T13:13:41Z</time>
      </trkpt>
      <trkpt lat="37.044785991311073" lon="-2.409360967576504">
        <ele>331.31</ele>
        <time>2025-05-12T13:13:42Z</time>
      </trkpt>
      <trkpt lat="37.044811975210905" lon="-2.409443026408553">
        <ele>331.31</ele>
        <time>2025-05-12T13:13:43Z</time>
      </trkpt>
      <trkpt lat="37.044837959110737" lon="-2.40952399559319">
        <ele>331.31</ele>
        <time>2025-05-12T13:13:44Z</time>
      </trkpt>
      <trkpt lat="37.04486302100122" lon="-2.409602031111717">
        <ele>331.31</ele>
        <time>2025-05-12T13:13:45Z</time>
      </trkpt>
      <trkpt lat="37.044954970479012" lon="-2.409982988610864">
        <ele>331.79000000000002</ele>
        <time>2025-05-12T13:13:50Z</time>
      </trkpt>
      <trkpt lat="37.044954970479012" lon="-2.41006001830101">
        <ele>331.79000000000002</ele>
        <time>2025-05-12T13:13:51Z</time>
      </trkpt>
      <trkpt lat="37.044954970479012" lon="-2.410139981657267">
        <ele>331.79000000000002</ele>
        <time>2025-05-12T13:13:52Z</time>
      </trkpt>
      <trkpt lat="37.044941978529096" lon="-2.410299992188811">
        <ele>332.26999999999998</ele>
        <time>2025-05-12T13:13:54Z</time>
      </trkpt>
      <trkpt lat="37.044893028214574" lon="-2.410647002980113">
        <ele>333.23000000000002</ele>
        <time>2025-05-12T13:13:58Z</time>
      </trkpt>
      <trkpt lat="37.044880036264658" lon="-2.410736018791795">
        <ele>333.23000000000002</ele>
        <time>2025-05-12T13:13:59Z</time>
      </trkpt>
      <trkpt lat="37.044795965775847" lon="-2.411074982956052">
        <ele>333.23000000000002</ele>
        <time>2025-05-12T13:14:03Z</time>
      </trkpt>
      <trkpt lat="37.044660011306405" lon="-2.41137002594769">
        <ele>332.75</ele>
        <time>2025-05-12T13:14:07Z</time>
      </trkpt>
      <trkpt lat="37.044623969122767" lon="-2.411447977647185">
        <ele>332.75</ele>
        <time>2025-05-12T13:14:08Z</time>
      </trkpt>
      <trkpt lat="37.044368991628289" lon="-2.41220997646451">
        <ele>331.31</ele>
        <time>2025-05-12T13:14:17Z</time>
      </trkpt>
      <trkpt lat="37.044030027464032" lon="-2.413217984139919">
        <ele>330.82999999999998</ele>
        <time>2025-05-12T13:14:29Z</time>
      </trkpt>
      <trkpt lat="37.043874962255359" lon="-2.413631966337562">
        <ele>329.87</ele>
        <time>2025-05-12T13:14:34Z</time>
      </trkpt>
      <trkpt lat="37.043866999447346" lon="-2.413721987977624">
        <ele>329.38999999999999</ele>
        <time>2025-05-12T13:14:35Z</time>
      </trkpt>
      <trkpt lat="37.043922990560532" lon="-2.414784980937839">
        <ele>327.47000000000003</ele>
        <time>2025-05-12T13:14:46Z</time>
      </trkpt>
      <trkpt lat="37.043886026367545" lon="-2.415637001395226">
        <ele>326.5</ele>
        <time>2025-05-12T13:14:56Z</time>
      </trkpt>
      <trkpt lat="37.043882003054023" lon="-2.415728028863668">
        <ele>326.99000000000001</ele>
        <time>2025-05-12T13:14:57Z</time>
      </trkpt>
      <trkpt lat="37.043676981702447" lon="-2.416853969916701">
        <ele>325.06</ele>
        <time>2025-05-12T13:15:09Z</time>
      </trkpt>
      <trkpt lat="37.043583020567894" lon="-2.417168039828539">
        <ele>324.10000000000002</ele>
        <time>2025-05-12T13:15:16Z</time>
      </trkpt>
      <trkpt lat="37.043543960899115" lon="-2.417294019833207">
        <ele>324.10000000000002</ele>
        <time>2025-05-12T13:15:33Z</time>
      </trkpt>
      <trkpt lat="37.043539015576243" lon="-2.417313968762755">
        <ele>323.62</ele>
        <time>2025-05-12T13:15:34Z</time>
      </trkpt>
      <trkpt lat="37.043563993647695" lon="-2.417369959875941">
        <ele>323.62</ele>
        <time>2025-05-12T13:15:35Z</time>
      </trkpt>
      <trkpt lat="37.043595006689429" lon="-2.417439026758075">
        <ele>323.62</ele>
        <time>2025-05-12T13:15:36Z</time>
      </trkpt>
      <trkpt lat="37.043629959225655" lon="-2.41751697845757">
        <ele>323.62</ele>
        <time>2025-05-12T13:15:37Z</time>
      </trkpt>
      <trkpt lat="37.043670024722815" lon="-2.417605994269252">
        <ele>323.62</ele>
        <time>2025-05-12T13:15:38Z</time>
      </trkpt>
      <trkpt lat="37.043716041371226" lon="-2.41770800203085">
        <ele>323.13999999999999</ele>
        <time>2025-05-12T13:15:39Z</time>
      </trkpt>
      <trkpt lat="37.043777983635664" lon="-2.41779500618577">
        <ele>323.13999999999999</ele>
        <time>2025-05-12T13:15:40Z</time>
      </trkpt>
      <trkpt lat="37.043845960870385" lon="-2.417871030047536">
        <ele>323.62</ele>
        <time>2025-05-12T13:15:41Z</time>
      </trkpt>
      <trkpt lat="37.043911004438996" lon="-2.417942024767399">
        <ele>323.62</ele>
        <time>2025-05-12T13:15:42Z</time>
      </trkpt>
      <trkpt lat="37.043992979452014" lon="-2.417985023930669">
        <ele>324.10000000000002</ele>
        <time>2025-05-12T13:15:43Z</time>
      </trkpt>
      <trkpt lat="37.044075038284063" lon="-2.418017964810133">
        <ele>324.57999999999998</ele>
        <time>2025-05-12T13:15:44Z</time>
      </trkpt>
      <trkpt lat="37.044163970276713" lon="-2.418036991730332">
        <ele>325.54000000000002</ele>
        <time>2025-05-12T13:15:45Z</time>
      </trkpt>
      <trkpt lat="37.044252986088395" lon="-2.418014025315642">
        <ele>326.5</ele>
        <time>2025-05-12T13:15:46Z</time>
      </trkpt>
      <trkpt lat="37.044344013556838" lon="-2.41798996925354">
        <ele>327.94999999999999</ele>
        <time>2025-05-12T13:15:47Z</time>
      </trkpt>
      <trkpt lat="37.0444340351969" lon="-2.41796700283885">
        <ele>329.38999999999999</ele>
        <time>2025-05-12T13:15:48Z</time>
      </trkpt>
      <trkpt lat="37.044523973017931" lon="-2.41794403642416">
        <ele>330.82999999999998</ele>
        <time>2025-05-12T13:15:49Z</time>
      </trkpt>
      <trkpt lat="37.044615000486374" lon="-2.417919980362058">
        <ele>331.79000000000002</ele>
        <time>2025-05-12T13:15:50Z</time>
      </trkpt>
      <trkpt lat="37.044711979106069" lon="-2.417915035039187">
        <ele>333.23000000000002</ele>
        <time>2025-05-12T13:15:51Z</time>
      </trkpt>
      <trkpt lat="37.044808035716414" lon="-2.417915035039187">
        <ele>334.68000000000001</ele>
        <time>2025-05-12T13:15:52Z</time>
      </trkpt>
      <trkpt lat="37.044899985194206" lon="-2.417917968705297">
        <ele>335.63999999999999</ele>
        <time>2025-05-12T13:15:53Z</time>
      </trkpt>
      <trkpt lat="37.044990006834269" lon="-2.417947975918651">
        <ele>337.07999999999998</ele>
        <time>2025-05-12T13:15:54Z</time>
      </trkpt>
      <trkpt lat="37.04507902264595" lon="-2.417977983132005">
        <ele>338.04000000000002</ele>
        <time>2025-05-12T13:15:55Z</time>
      </trkpt>
      <trkpt lat="37.045150017365813" lon="-2.418065993115306">
        <ele>339</ele>
        <time>2025-05-12T13:15:56Z</time>
      </trkpt>
      <trkpt lat="37.045214977115393" lon="-2.418151991441846">
        <ele>340.44</ele>
        <time>2025-05-12T13:15:57Z</time>
      </trkpt>
      <trkpt lat="37.045283038169146" lon="-2.418240001425147">
        <ele>341.41000000000003</ele>
        <time>2025-05-12T13:15:58Z</time>
      </trkpt>
      <trkpt lat="37.045350009575486" lon="-2.418328011408448">
        <ele>342.85000000000002</ele>
        <time>2025-05-12T13:15:59Z</time>
      </trkpt>
      <trkpt lat="37.045447994023561" lon="-2.418547030538321">
        <ele>345.25</ele>
        <time>2025-05-12T13:16:01Z</time>
      </trkpt>
      <trkpt lat="37.045496022328734" lon="-2.418662030249834">
        <ele>346.20999999999998</ele>
        <time>2025-05-12T13:16:02Z</time>
      </trkpt>
      <trkpt lat="37.045538015663624" lon="-2.418778035789728">
        <ele>347.64999999999998</ele>
        <time>2025-05-12T13:16:03Z</time>
      </trkpt>
      <trkpt lat="37.045634994283319" lon="-2.419373989105225">
        <ele>351.98000000000002</ele>
        <time>2025-05-12T13:16:08Z</time>
      </trkpt>
      <trkpt lat="37.045661984011531" lon="-2.419480020180345">
        <ele>351.98000000000002</ele>
        <time>2025-05-12T13:16:09Z</time>
      </trkpt>
      <trkpt lat="37.045696014538407" lon="-2.419582027941942">
        <ele>352.45999999999998</ele>
        <time>2025-05-12T13:16:10Z</time>
      </trkpt>
      <trkpt lat="37.045729039236903" lon="-2.419680012390018">
        <ele>352.94</ele>
        <time>2025-05-12T13:16:11Z</time>
      </trkpt>
      <trkpt lat="37.04578603617847" lon="-2.419771961867809">
        <ele>352.94</ele>
        <time>2025-05-12T13:16:12Z</time>
      </trkpt>
      <trkpt lat="37.045828029513359" lon="-2.419810015708208">
        <ele>353.42000000000002</ele>
        <time>2025-05-12T13:16:13Z</time>
      </trkpt>
      <trkpt lat="37.045859964564443" lon="-2.419838011264801">
        <ele>353.42000000000002</ele>
        <time>2025-05-12T13:16:14Z</time>
      </trkpt>
      <trkpt lat="37.045885026454926" lon="-2.419859971851111">
        <ele>353.89999999999998</ele>
        <time>2025-05-12T13:16:15Z</time>
      </trkpt>
      <trkpt lat="37.04598200507462" lon="-2.419924009591341">
        <ele>355.33999999999997</ele>
        <time>2025-05-12T13:16:25Z</time>
      </trkpt>
      <trkpt lat="37.04598200507462" lon="-2.419924009591341">
        <ele>356.31</ele>
        <time>2025-05-12T13:16:59Z</time>
      </trkpt>
      <trkpt lat="37.04598200507462" lon="-2.419924009591341">
        <ele>356.31</ele>
        <time>2025-05-12T13:17:55Z</time>
      </trkpt>
      <trkpt lat="37.04598200507462" lon="-2.419924009591341">
        <ele>356.31</ele>
        <time>2025-05-12T13:18:55Z</time>
      </trkpt>
      <trkpt lat="37.04598200507462" lon="-2.419924009591341">
        <ele>355.82999999999998</ele>
        <time>2025-05-12T13:19:58Z</time>
      </trkpt>
      <trkpt lat="37.04598200507462" lon="-2.419924009591341">
        <ele>355.33999999999997</ele>
        <time>2025-05-12T13:20:50Z</time>
      </trkpt>
      <trkpt lat="37.04598200507462" lon="-2.419924009591341">
        <ele>354.86000000000001</ele>
        <time>2025-05-12T13:21:41Z</time>
      </trkpt>
      <trkpt lat="37.046026010066271" lon="-2.419940019026399">
        <ele>354.86000000000001</ele>
        <time>2025-05-12T13:21:45Z</time>
      </trkpt>
      <trkpt lat="37.046333039179444" lon="-2.420044960454106">
        <ele>352.94</ele>
        <time>2025-05-12T13:21:55Z</time>
      </trkpt>
      <trkpt lat="37.046965034678578" lon="-2.420262973755598">
        <ele>353.42000000000002</ele>
        <time>2025-05-12T13:22:12Z</time>
      </trkpt>
      <trkpt lat="37.047006022185087" lon="-2.420276971533895">
        <ele>353.42000000000002</ele>
        <time>2025-05-12T13:22:13Z</time>
      </trkpt>
      <trkpt lat="37.047050027176738" lon="-2.420292980968952">
        <ele>353.42000000000002</ele>
        <time>2025-05-12T13:22:14Z</time>
      </trkpt>
      <trkpt lat="37.047093026340008" lon="-2.420306978747249">
        <ele>353.42000000000002</ele>
        <time>2025-05-12T13:22:15Z</time>
      </trkpt>
      <trkpt lat="37.047130996361375" lon="-2.420319970697165">
        <ele>353.89999999999998</ele>
        <time>2025-05-12T13:22:16Z</time>
      </trkpt>
      <trkpt lat="37.047165026888251" lon="-2.420332040637732">
        <ele>353.89999999999998</ele>
        <time>2025-05-12T13:22:17Z</time>
      </trkpt>
      <trkpt lat="37.04718598164618" lon="-2.420340003445745">
        <ele>353.42000000000002</ele>
        <time>2025-05-12T13:22:18Z</time>
      </trkpt>
      <trkpt lat="37.047241972759366" lon="-2.42037302814424">
        <ele>353.42000000000002</ele>
        <time>2025-05-12T13:22:19Z</time>
      </trkpt>
      <trkpt lat="37.047273991629481" lon="-2.420391971245408">
        <ele>353.42000000000002</ele>
        <time>2025-05-12T13:22:20Z</time>
      </trkpt>
      <trkpt lat="37.047308022156358" lon="-2.420413009822369">
        <ele>353.89999999999998</ele>
        <time>2025-05-12T13:22:21Z</time>
      </trkpt>
      <trkpt lat="37.047343980520964" lon="-2.420433964580298">
        <ele>353.89999999999998</ele>
        <time>2025-05-12T13:22:22Z</time>
      </trkpt>
      <trkpt lat="37.047643968835473" lon="-2.420758008956909">
        <ele>355.33999999999997</ele>
        <time>2025-05-12T13:22:34Z</time>
      </trkpt>
      <trkpt lat="37.047846978530288" lon="-2.421032013371587">
        <ele>358.70999999999998</ele>
        <time>2025-05-12T13:22:43Z</time>
      </trkpt>
      <trkpt lat="37.047924008220434" lon="-2.421136032789946">
        <ele>360.63</ele>
        <time>2025-05-12T13:22:54Z</time>
      </trkpt>
      <trkpt lat="37.047932976856828" lon="-2.421148018911481">
        <ele>360.63</ele>
        <time>2025-05-12T13:23:01Z</time>
      </trkpt>
      <trkpt lat="37.047944962978363" lon="-2.421164028346539">
        <ele>360.63</ele>
        <time>2025-05-12T13:23:02Z</time>
      </trkpt>
      <trkpt lat="37.047973964363337" lon="-2.421204010024667">
        <ele>360.63</ele>
        <time>2025-05-12T13:23:04Z</time>
      </trkpt>
      <trkpt lat="37.047990979626775" lon="-2.421225970610976">
        <ele>360.63</ele>
        <time>2025-05-12T13:23:05Z</time>
      </trkpt>
      <trkpt lat="37.04800195991993" lon="-2.421240974217653">
        <ele>360.63</ele>
        <time>2025-05-12T13:23:06Z</time>
      </trkpt>
      <trkpt lat="37.04800195991993" lon="-2.421240974217653">
        <ele>360.63</ele>
        <time>2025-05-12T13:23:09Z</time>
      </trkpt>
      <trkpt lat="37.04800195991993" lon="-2.421240974217653">
        <ele>360.63</ele>
        <time>2025-05-12T13:23:10Z</time>
      </trkpt>
      <trkpt lat="37.04800195991993" lon="-2.421240974217653">
        <ele>360.63</ele>
        <time>2025-05-12T13:23:11Z</time>
      </trkpt>
      <trkpt lat="37.047999026253819" lon="-2.421238040551543">
        <ele>360.63</ele>
        <time>2025-05-12T13:23:12Z</time>
      </trkpt>
      <trkpt lat="37.047993997111917" lon="-2.421230999752879">
        <ele>360.63</ele>
        <time>2025-05-12T13:23:13Z</time>
      </trkpt>
      <trkpt lat="37.047927025705576" lon="-2.4212989769876">
        <ele>360.63</ele>
        <time>2025-05-12T13:23:15Z</time>
      </trkpt>
      <trkpt lat="37.047926019877195" lon="-2.421418000012636">
        <ele>361.11000000000001</ele>
        <time>2025-05-12T13:23:30Z</time>
      </trkpt>
      <trkpt lat="37.047931971028447" lon="-2.421284979209304">
        <ele>332.75</ele>
        <time>2025-05-12T13:44:31Z</time>
      </trkpt>
      <trkpt lat="37.047927025705576" lon="-2.421386986970902">
        <ele>360.14999999999998</ele>
        <time>2025-05-12T13:45:12Z</time>
      </trkpt>
      <trkpt lat="37.047910010442138" lon="-2.421391010284424">
        <ele>361.58999999999997</ele>
        <time>2025-05-12T13:46:01Z</time>
      </trkpt>
      <trkpt lat="37.047923002392054" lon="-2.421398973092437">
        <ele>361.11000000000001</ele>
        <time>2025-05-12T13:46:51Z</time>
      </trkpt>
      <trkpt lat="37.047917973250151" lon="-2.421402996405959">
        <ele>361.58999999999997</ele>
        <time>2025-05-12T13:47:47Z</time>
      </trkpt>
      <trkpt lat="37.047917973250151" lon="-2.421402996405959">
        <ele>361.11000000000001</ele>
        <time>2025-05-12T13:48:50Z</time>
      </trkpt>
      <trkpt lat="37.047918979078531" lon="-2.42140400223434">
        <ele>361.58999999999997</ele>
        <time>2025-05-12T13:49:47Z</time>
      </trkpt>
      <trkpt lat="37.047918979078531" lon="-2.42140400223434">
        <ele>361.58999999999997</ele>
        <time>2025-05-12T13:50:46Z</time>
      </trkpt>
      <trkpt lat="37.047917973250151" lon="-2.421406013891101">
        <ele>361.58999999999997</ele>
        <time>2025-05-12T13:51:39Z</time>
      </trkpt>
      <trkpt lat="37.04791596159339" lon="-2.421407019719482">
        <ele>362.06999999999999</ele>
        <time>2025-05-12T13:52:33Z</time>
      </trkpt>
      <trkpt lat="37.04791596159339" lon="-2.421409031376243">
        <ele>362.55000000000001</ele>
        <time>2025-05-12T13:53:34Z</time>
      </trkpt>
      <trkpt lat="37.04791696742177" lon="-2.421409031376243">
        <ele>363.04000000000002</ele>
        <time>2025-05-12T13:54:25Z</time>
      </trkpt>
      <trkpt lat="37.04791403375566" lon="-2.421411965042353">
        <ele>363.04000000000002</ele>
        <time>2025-05-12T13:55:24Z</time>
      </trkpt>
      <trkpt lat="37.04791596159339" lon="-2.421407019719482">
        <ele>363.51999999999998</ele>
        <time>2025-05-12T13:56:21Z</time>
      </trkpt>
      <trkpt lat="37.047909004613757" lon="-2.421363014727831">
        <ele>361.58999999999997</ele>
        <time>2025-05-12T14:45:42Z</time>
      </trkpt>
      <trkpt lat="37.047931971028447" lon="-2.421398973092437">
        <ele>363.51999999999998</ele>
        <time>2025-05-12T14:46:26Z</time>
      </trkpt>
      <trkpt lat="37.047926019877195" lon="-2.421406013891101">
        <ele>366.39999999999998</ele>
        <time>2025-05-12T14:46:56Z</time>
      </trkpt>
      <trkpt lat="37.047940017655492" lon="-2.421394027769566">
        <ele>370.24000000000001</ele>
        <time>2025-05-12T14:47:14Z</time>
      </trkpt>
      <trkpt lat="37.04797999933362" lon="-2.421210967004299">
        <ele>370.73000000000002</ele>
        <time>2025-05-12T14:47:18Z</time>
      </trkpt>
      <trkpt lat="37.047952003777027" lon="-2.421172996982932">
        <ele>370.73000000000002</ele>
        <time>2025-05-12T14:47:19Z</time>
      </trkpt>
      <trkpt lat="37.047923002392054" lon="-2.421135026961565">
        <ele>371.20999999999998</ele>
        <time>2025-05-12T14:47:20Z</time>
      </trkpt>
      <trkpt lat="37.047895006835461" lon="-2.421095967292786">
        <ele>371.20999999999998</ele>
        <time>2025-05-12T14:47:21Z</time>
      </trkpt>
      <trkpt lat="37.047867011278868" lon="-2.421059003099799">
        <ele>371.20999999999998</ele>
        <time>2025-05-12T14:47:22Z</time>
      </trkpt>
      <trkpt lat="37.047840021550655" lon="-2.421022038906813">
        <ele>370.73000000000002</ele>
        <time>2025-05-12T14:47:23Z</time>
      </trkpt>
      <trkpt lat="37.047814037650824" lon="-2.420987002551556">
        <ele>370.73000000000002</ele>
        <time>2025-05-12T14:47:24Z</time>
      </trkpt>
      <trkpt lat="37.047789981588721" lon="-2.42095498368144">
        <ele>370.73000000000002</ele>
        <time>2025-05-12T14:47:25Z</time>
      </trkpt>
      <trkpt lat="37.047768021002412" lon="-2.420924976468086">
        <ele>370.73000000000002</ele>
        <time>2025-05-12T14:47:26Z</time>
      </trkpt>
      <trkpt lat="37.04774497076869" lon="-2.420893963426352">
        <ele>370.73000000000002</ele>
        <time>2025-05-12T14:47:27Z</time>
      </trkpt>
      <trkpt lat="37.047642963007092" lon="-2.420757003128529">
        <ele>371.20999999999998</ele>
        <time>2025-05-12T14:47:31Z</time>
      </trkpt>
      <trkpt lat="37.04761597327888" lon="-2.420720038935542">
        <ele>371.20999999999998</ele>
        <time>2025-05-12T14:47:32Z</time>
      </trkpt>
      <trkpt lat="37.047587977722287" lon="-2.420682990923524">
        <ele>371.20999999999998</ele>
        <time>2025-05-12T14:47:33Z</time>
      </trkpt>
      <trkpt lat="37.047564005479217" lon="-2.420651977881789">
        <ele>371.20999999999998</ele>
        <time>2025-05-12T14:47:34Z</time>
      </trkpt>
      <trkpt lat="37.047533998265862" lon="-2.420618031173945">
        <ele>370.73000000000002</ele>
        <time>2025-05-12T14:47:35Z</time>
      </trkpt>
      <trkpt lat="37.047503991052508" lon="-2.420585006475449">
        <ele>370.73000000000002</ele>
        <time>2025-05-12T14:47:36Z</time>
      </trkpt>
      <trkpt lat="37.047471972182393" lon="-2.42054795846343">
        <ele>370.73000000000002</ele>
        <time>2025-05-12T14:47:37Z</time>
      </trkpt>
      <trkpt lat="37.047437019646168" lon="-2.420508982613683">
        <ele>370.24000000000001</ele>
        <time>2025-05-12T14:47:38Z</time>
      </trkpt>
      <trkpt lat="37.04735797829926" lon="-2.420443017035723">
        <ele>369.75999999999999</ele>
        <time>2025-05-12T14:47:40Z</time>
      </trkpt>
      <trkpt lat="37.046550968661904" lon="-2.420120984315872">
        <ele>365.44</ele>
        <time>2025-05-12T14:47:57Z</time>
      </trkpt>
      <trkpt lat="37.046406967565417" lon="-2.42007102817297">
        <ele>364.48000000000002</ele>
        <time>2025-05-12T14:48:00Z</time>
      </trkpt>
      <trkpt lat="37.046230025589466" lon="-2.420010007917881">
        <ele>363.51999999999998</ele>
        <time>2025-05-12T14:48:04Z</time>
      </trkpt>
      <trkpt lat="37.046051993966103" lon="-2.419948987662792">
        <ele>362.55000000000001</ele>
        <time>2025-05-12T14:48:08Z</time>
      </trkpt>
      <trkpt lat="37.046007988974452" lon="-2.419932978227735">
        <ele>362.06999999999999</ele>
        <time>2025-05-12T14:48:09Z</time>
      </trkpt>
      <trkpt lat="37.045899024233222" lon="-2.419872963801026">
        <ele>361.58999999999997</ele>
        <time>2025-05-12T14:48:11Z</time>
      </trkpt>
      <trkpt lat="37.045730967074633" lon="-2.419685963541269">
        <ele>360.63</ele>
        <time>2025-05-12T14:48:14Z</time>
      </trkpt>
      <trkpt lat="37.045701965689659" lon="-2.419598959386349">
        <ele>360.63</ele>
        <time>2025-05-12T14:48:15Z</time>
      </trkpt>
      <trkpt lat="37.045669024810195" lon="-2.419499969109893">
        <ele>360.63</ele>
        <time>2025-05-12T14:48:16Z</time>
      </trkpt>
      <trkpt lat="37.04563700594008" lon="-2.419388992711902">
        <ele>360.63</ele>
        <time>2025-05-12T14:48:17Z</time>
      </trkpt>
      <trkpt lat="37.04561797901988" lon="-2.419272987172008">
        <ele>360.63</ele>
        <time>2025-05-12T14:48:18Z</time>
      </trkpt>
      <trkpt lat="37.045484958216548" lon="-2.418635962530971">
        <ele>358.70999999999998</ele>
        <time>2025-05-12T14:48:24Z</time>
      </trkpt>
      <trkpt lat="37.045443970710039" lon="-2.418538983911276">
        <ele>358.23000000000002</ele>
        <time>2025-05-12T14:48:25Z</time>
      </trkpt>
      <trkpt lat="37.04540298320353" lon="-2.41843999363482">
        <ele>357.75</ele>
        <time>2025-05-12T14:48:26Z</time>
      </trkpt>
      <trkpt lat="37.04520802013576" lon="-2.418142016977072">
        <ele>355.33999999999997</ele>
        <time>2025-05-12T14:48:29Z</time>
      </trkpt>
      <trkpt lat="37.045039040967822" lon="-2.417964991182089">
        <ele>353.42000000000002</ele>
        <time>2025-05-12T14:48:31Z</time>
      </trkpt>
      <trkpt lat="37.044935021549463" lon="-2.417930038645864">
        <ele>351.98000000000002</ele>
        <time>2025-05-12T14:48:32Z</time>
      </trkpt>
      <trkpt lat="37.04482396133244" lon="-2.417915035039187">
        <ele>350.54000000000002</ele>
        <time>2025-05-12T14:48:33Z</time>
      </trkpt>
      <trkpt lat="37.044703010469675" lon="-2.417915035039187">
        <ele>349.10000000000002</ele>
        <time>2025-05-12T14:48:34Z</time>
      </trkpt>
      <trkpt lat="37.044578036293387" lon="-2.417929032817483">
        <ele>347.64999999999998</ele>
        <time>2025-05-12T14:48:35Z</time>
      </trkpt>
      <trkpt lat="37.04445700161159" lon="-2.417960967868567">
        <ele>346.20999999999998</ele>
        <time>2025-05-12T14:48:36Z</time>
      </trkpt>
      <trkpt lat="37.044335966929793" lon="-2.417991980910301">
        <ele>344.29000000000002</ele>
        <time>2025-05-12T14:48:37Z</time>
      </trkpt>
      <trkpt lat="37.04422197304666" lon="-2.418021988123655">
        <ele>342.37</ele>
        <time>2025-05-12T14:48:38Z</time>
      </trkpt>
      <trkpt lat="37.044120971113443" lon="-2.418035985901952">
        <ele>339.95999999999998</ele>
        <time>2025-05-12T14:48:39Z</time>
      </trkpt>
      <trkpt lat="37.044022986665368" lon="-2.417997010052204">
        <ele>338.51999999999998</ele>
        <time>2025-05-12T14:48:40Z</time>
      </trkpt>
      <trkpt lat="37.043925002217293" lon="-2.417958034202457">
        <ele>336.60000000000002</ele>
        <time>2025-05-12T14:48:41Z</time>
      </trkpt>
      <trkpt lat="37.043865993618965" lon="-2.417891984805465">
        <ele>335.16000000000003</ele>
        <time>2025-05-12T14:48:42Z</time>
      </trkpt>
      <trkpt lat="37.043807990849018" lon="-2.417829036712647">
        <ele>333.70999999999998</ele>
        <time>2025-05-12T14:48:43Z</time>
      </trkpt>
      <trkpt lat="37.043716041371226" lon="-2.41770900785923">
        <ele>330.82999999999998</ele>
        <time>2025-05-12T14:48:45Z</time>
      </trkpt>
      <trkpt lat="37.043560976162553" lon="-2.41736400872469">
        <ele>321.22000000000003</ele>
        <time>2025-05-12T14:48:53Z</time>
      </trkpt>
      <trkpt lat="37.043539015576243" lon="-2.417312962934375">
        <ele>319.30000000000001</ele>
        <time>2025-05-12T14:48:55Z</time>
      </trkpt>
      <trkpt lat="37.043566005304456" lon="-2.417223025113344">
        <ele>318.32999999999998</ele>
        <time>2025-05-12T14:48:56Z</time>
      </trkpt>
      <trkpt lat="37.043581008911133" lon="-2.417170973494649">
        <ele>317.85000000000002</ele>
        <time>2025-05-12T14:48:57Z</time>
      </trkpt>
      <trkpt lat="37.043615961447358" lon="-2.417054967954755">
        <ele>316.41000000000003</ele>
        <time>2025-05-12T14:48:59Z</time>
      </trkpt>
      <trkpt lat="37.043631970882416" lon="-2.417001994326711">
        <ele>315.93000000000001</ele>
        <time>2025-05-12T14:49:00Z</time>
      </trkpt>
      <trkpt lat="37.043674970045686" lon="-2.416860004886985">
        <ele>314.00999999999999</ele>
        <time>2025-05-12T14:49:09Z</time>
      </trkpt>
      <trkpt lat="37.043674970045686" lon="-2.416860004886985">
        <ele>314.97000000000003</ele>
        <time>2025-05-12T14:49:50Z</time>
      </trkpt>
      <trkpt lat="37.043674970045686" lon="-2.416860004886985">
        <ele>315.44999999999999</ele>
        <time>2025-05-12T14:50:43Z</time>
      </trkpt>
      <trkpt lat="37.043674970045686" lon="-2.416860004886985">
        <ele>315.93000000000001</ele>
        <time>2025-05-12T14:51:35Z</time>
      </trkpt>
      <trkpt lat="37.043674970045686" lon="-2.416860004886985">
        <ele>317.85000000000002</ele>
        <time>2025-05-12T14:52:06Z</time>
      </trkpt>
      <trkpt lat="37.043674970045686" lon="-2.416860004886985">
        <ele>321.22000000000003</ele>
        <time>2025-05-12T14:52:22Z</time>
      </trkpt>
      <trkpt lat="37.043674970045686" lon="-2.416860004886985">
        <ele>321.69999999999999</ele>
        <time>2025-05-12T14:52:23Z</time>
      </trkpt>
      <trkpt lat="37.043469026684761" lon="-2.417170973494649">
        <ele>324.10000000000002</ele>
        <time>2025-05-12T14:52:33Z</time>
      </trkpt>
      <trkpt lat="37.043453017249703" lon="-2.417138032615185">
        <ele>324.10000000000002</ele>
        <time>2025-05-12T14:52:34Z</time>
      </trkpt>
      <trkpt lat="37.043426027521491" lon="-2.417082963511348">
        <ele>324.10000000000002</ele>
        <time>2025-05-12T14:52:35Z</time>
      </trkpt>
      <trkpt lat="37.043088991194963" lon="-2.416390031576157">
        <ele>327.94999999999999</ele>
        <time>2025-05-12T14:52:42Z</time>
      </trkpt>
      <trkpt lat="37.042814986780286" lon="-2.415828024968505">
        <ele>335.63999999999999</ele>
        <time>2025-05-12T14:52:47Z</time>
      </trkpt>
      <trkpt lat="37.042766958475113" lon="-2.415729034692049">
        <ele>337.07999999999998</ele>
        <time>2025-05-12T14:52:48Z</time>
      </trkpt>
      <trkpt lat="37.042755978181958" lon="-2.415587967261672">
        <ele>339</ele>
        <time>2025-05-12T14:52:49Z</time>
      </trkpt>
      <trkpt lat="37.042769975960255" lon="-2.415465004742146">
        <ele>340.44</ele>
        <time>2025-05-12T14:52:50Z</time>
      </trkpt>
      <trkpt lat="37.042783973738551" lon="-2.415338018909097">
        <ele>341.88999999999999</ele>
        <time>2025-05-12T14:52:51Z</time>
      </trkpt>
      <trkpt lat="37.042798977345228" lon="-2.415210027247667">
        <ele>343.81</ele>
        <time>2025-05-12T14:52:52Z</time>
      </trkpt>
      <trkpt lat="37.042814986780286" lon="-2.415074994787574">
        <ele>345.25</ele>
        <time>2025-05-12T14:52:53Z</time>
      </trkpt>
      <trkpt lat="37.042938033118844" lon="-2.413886021822691">
        <ele>359.19</ele>
        <time>2025-05-12T14:53:02Z</time>
      </trkpt>
      <trkpt lat="37.042749021202326" lon="-2.412565033882856">
        <ele>367.83999999999997</ele>
        <time>2025-05-12T14:53:14Z</time>
      </trkpt>
      <trkpt lat="37.042621029540896" lon="-2.411705972626805">
        <ele>369.27999999999997</ele>
        <time>2025-05-12T14:53:23Z</time>
      </trkpt>
      <trkpt lat="37.042606025934219" lon="-2.411623997613788">
        <ele>369.27999999999997</ele>
        <time>2025-05-12T14:53:24Z</time>
      </trkpt>
      <trkpt lat="37.042589010670781" lon="-2.411545962095261">
        <ele>369.27999999999997</ele>
        <time>2025-05-12T14:53:25Z</time>
      </trkpt>
      <trkpt lat="37.042573001235723" lon="-2.411473039537668">
        <ele>369.75999999999999</ele>
        <time>2025-05-12T14:53:26Z</time>
      </trkpt>
      <trkpt lat="37.042557997629046" lon="-2.411403972655535">
        <ele>369.75999999999999</ele>
        <time>2025-05-12T14:53:27Z</time>
      </trkpt>
      <trkpt lat="37.042545005679131" lon="-2.411341024562717">
        <ele>369.75999999999999</ele>
        <time>2025-05-12T14:53:28Z</time>
      </trkpt>
      <trkpt lat="37.042533019557595" lon="-2.41128696128726">
        <ele>369.75999999999999</ele>
        <time>2025-05-12T14:53:29Z</time>
      </trkpt>
      <trkpt lat="37.04252396710217" lon="-2.411244967952371">
        <ele>369.75999999999999</ele>
        <time>2025-05-12T14:53:30Z</time>
      </trkpt>
      <trkpt lat="37.042518015950918" lon="-2.411216972395778">
        <ele>369.75999999999999</ele>
        <time>2025-05-12T14:53:31Z</time>
      </trkpt>
      <trkpt lat="37.042513992637396" lon="-2.411199035122991">
        <ele>369.75999999999999</ele>
        <time>2025-05-12T14:53:32Z</time>
      </trkpt>
      <trkpt lat="37.042513992637396" lon="-2.411199035122991">
        <ele>370.24000000000001</ele>
        <time>2025-05-12T14:53:37Z</time>
      </trkpt>
      <trkpt lat="37.042160024866462" lon="-2.411230970174074">
        <ele>371.20999999999998</ele>
        <time>2025-05-12T14:53:40Z</time>
      </trkpt>
      <trkpt lat="37.042131023481488" lon="-2.411319985985756">
        <ele>371.69</ele>
        <time>2025-05-12T14:53:41Z</time>
      </trkpt>
      <trkpt lat="37.042103027924895" lon="-2.411407995969057">
        <ele>371.69</ele>
        <time>2025-05-12T14:53:42Z</time>
      </trkpt>
      <trkpt lat="37.042066985741258" lon="-2.411519978195429">
        <ele>371.69</ele>
        <time>2025-05-12T14:53:43Z</time>
      </trkpt>
      <trkpt lat="37.041674964129925" lon="-2.412475012242794">
        <ele>370.73000000000002</ele>
        <time>2025-05-12T14:53:49Z</time>
      </trkpt>
      <trkpt lat="37.040915982797742" lon="-2.413399033248425">
        <ele>370.73000000000002</ele>
        <time>2025-05-12T14:53:55Z</time>
      </trkpt>
      <trkpt lat="37.03938502818346" lon="-2.414341997355223">
        <ele>365.92000000000002</ele>
        <time>2025-05-12T14:54:04Z</time>
      </trkpt>
      <trkpt lat="37.038109973073006" lon="-2.415393004193902">
        <ele>360.63</ele>
        <time>2025-05-12T14:54:12Z</time>
      </trkpt>
      <trkpt lat="37.037026025354862" lon="-2.417024038732052">
        <ele>356.31</ele>
        <time>2025-05-12T14:54:20Z</time>
      </trkpt>
      <trkpt lat="37.035376969724894" lon="-2.419872963801026">
        <ele>347.17000000000002</ele>
        <time>2025-05-12T14:54:33Z</time>
      </trkpt>
      <trkpt lat="37.033660020679235" lon="-2.422727001830936">
        <ele>343.81</ele>
        <time>2025-05-12T14:54:46Z</time>
      </trkpt>
      <trkpt lat="37.033404037356377" lon="-2.423112988471985">
        <ele>342.37</ele>
        <time>2025-05-12T14:54:48Z</time>
      </trkpt>
      <trkpt lat="37.033246960490942" lon="-2.423243997618556">
        <ele>341.88999999999999</ele>
        <time>2025-05-12T14:54:49Z</time>
      </trkpt>
      <trkpt lat="37.0330919791013" lon="-2.423357991501689">
        <ele>340.92000000000002</ele>
        <time>2025-05-12T14:54:50Z</time>
      </trkpt>
      <trkpt lat="37.032932974398136" lon="-2.423450024798513">
        <ele>339.95999999999998</ele>
        <time>2025-05-12T14:54:51Z</time>
      </trkpt>
      <trkpt lat="37.032776987180114" lon="-2.423497969284654">
        <ele>339</ele>
        <time>2025-05-12T14:54:52Z</time>
      </trkpt>
      <trkpt lat="37.032616976648569" lon="-2.423533005639911">
        <ele>338.04000000000002</ele>
        <time>2025-05-12T14:54:53Z</time>
      </trkpt>
      <trkpt lat="37.032464006915689" lon="-2.423566030338407">
        <ele>337.07999999999998</ele>
        <time>2025-05-12T14:54:54Z</time>
      </trkpt>
      <trkpt lat="37.032320005819201" lon="-2.423555972054601">
        <ele>336.12</ele>
        <time>2025-05-12T14:54:55Z</time>
      </trkpt>
      <trkpt lat="37.032173993065953" lon="-2.423512972891331">
        <ele>334.68000000000001</ele>
        <time>2025-05-12T14:54:56Z</time>
      </trkpt>
      <trkpt lat="37.032027980312705" lon="-2.423470979556441">
        <ele>333.70999999999998</ele>
        <time>2025-05-12T14:54:57Z</time>
      </trkpt>
      <trkpt lat="37.031882973387837" lon="-2.423427980393171">
        <ele>332.75</ele>
        <time>2025-05-12T14:54:58Z</time>
      </trkpt>
      <trkpt lat="37.031733021140099" lon="-2.423355979844928">
        <ele>331.79000000000002</ele>
        <time>2025-05-12T14:54:59Z</time>
      </trkpt>
      <trkpt lat="37.031582985073328" lon="-2.423283979296684">
        <ele>330.82999999999998</ele>
        <time>2025-05-12T14:55:00Z</time>
      </trkpt>
      <trkpt lat="37.03143697232008" lon="-2.423213990405202">
        <ele>330.35000000000002</ele>
        <time>2025-05-12T14:55:01Z</time>
      </trkpt>
      <trkpt lat="37.031296994537115" lon="-2.423157999292016">
        <ele>329.38999999999999</ele>
        <time>2025-05-12T14:55:02Z</time>
      </trkpt>
      <trkpt lat="37.031160034239292" lon="-2.423120029270649">
        <ele>328.91000000000003</ele>
        <time>2025-05-12T14:55:03Z</time>
      </trkpt>
      <trkpt lat="37.031016033142805" lon="-2.423120029270649">
        <ele>328.43000000000001</ele>
        <time>2025-05-12T14:55:04Z</time>
      </trkpt>
      <trkpt lat="37.030888041481376" lon="-2.423183983191848">
        <ele>328.43000000000001</ele>
        <time>2025-05-12T14:55:05Z</time>
      </trkpt>
      <trkpt lat="37.030795002356172" lon="-2.423277022317052">
        <ele>328.43000000000001</ele>
        <time>2025-05-12T14:55:06Z</time>
      </trkpt>
      <trkpt lat="37.030753009021282" lon="-2.423405013978481">
        <ele>327.94999999999999</ele>
        <time>2025-05-12T14:55:07Z</time>
      </trkpt>
      <trkpt lat="37.030709004029632" lon="-2.423543985933065">
        <ele>327.47000000000003</ele>
        <time>2025-05-12T14:55:08Z</time>
      </trkpt>
      <trkpt lat="37.03066298738122" lon="-2.423692010343075">
        <ele>327.47000000000003</ele>
        <time>2025-05-12T14:55:09Z</time>
      </trkpt>
      <trkpt lat="37.030632980167866" lon="-2.423859983682632">
        <ele>326.99000000000001</ele>
        <time>2025-05-12T14:55:10Z</time>
      </trkpt>
      <trkpt lat="37.030273983255029" lon="-2.425813972949982">
        <ele>320.25999999999999</ele>
        <time>2025-05-12T14:55:20Z</time>
      </trkpt>
      <trkpt lat="37.030214974656701" lon="-2.426009019836783">
        <ele>319.30000000000001</ele>
        <time>2025-05-12T14:55:21Z</time>
      </trkpt>
      <trkpt lat="37.030141968280077" lon="-2.426197025924921">
        <ele>318.32999999999998</ele>
        <time>2025-05-12T14:55:22Z</time>
      </trkpt>
      <trkpt lat="37.030034009367228" lon="-2.426359970122576">
        <ele>317.85000000000002</ele>
        <time>2025-05-12T14:55:23Z</time>
      </trkpt>
      <trkpt lat="37.029920015484095" lon="-2.426517968997359">
        <ele>316.88999999999999</ele>
        <time>2025-05-12T14:55:24Z</time>
      </trkpt>
      <trkpt lat="37.029794035479426" lon="-2.426662975922227">
        <ele>315.93000000000001</ele>
        <time>2025-05-12T14:55:25Z</time>
      </trkpt>
      <trkpt lat="37.029668977484107" lon="-2.426804965361953">
        <ele>314.97000000000003</ele>
        <time>2025-05-12T14:55:26Z</time>
      </trkpt>
      <trkpt lat="37.029531011357903" lon="-2.42692600004375">
        <ele>314.00999999999999</ele>
        <time>2025-05-12T14:55:27Z</time>
      </trkpt>
      <trkpt lat="37.028291998431087" lon="-2.427809033542872">
        <ele>316.41000000000003</ele>
        <time>2025-05-12T14:55:35Z</time>
      </trkpt>
      <trkpt lat="37.028112038969994" lon="-2.427843986079097">
        <ele>317.37</ele>
        <time>2025-05-12T14:55:36Z</time>
      </trkpt>
      <trkpt lat="37.02793300151825" lon="-2.427879022434354">
        <ele>318.32999999999998</ele>
        <time>2025-05-12T14:55:37Z</time>
      </trkpt>
      <trkpt lat="37.027752036228776" lon="-2.427913974970579">
        <ele>319.30000000000001</ele>
        <time>2025-05-12T14:55:38Z</time>
      </trkpt>
      <trkpt lat="37.02756897546351" lon="-2.427929984405637">
        <ele>320.74000000000001</ele>
        <time>2025-05-12T14:55:39Z</time>
      </trkpt>
      <trkpt lat="37.025857977569103" lon="-2.427897965535522">
        <ele>326.99000000000001</ele>
        <time>2025-05-12T14:55:48Z</time>
      </trkpt>
      <trkpt lat="37.025682041421533" lon="-2.427964014932513">
        <ele>326.99000000000001</ele>
        <time>2025-05-12T14:55:49Z</time>
      </trkpt>
      <trkpt lat="37.025521025061607" lon="-2.428061999380589">
        <ele>327.47000000000003</ele>
        <time>2025-05-12T14:55:50Z</time>
      </trkpt>
      <trkpt lat="37.025362020358443" lon="-2.428169958293438">
        <ele>327.47000000000003</ele>
        <time>2025-05-12T14:55:51Z</time>
      </trkpt>
      <trkpt lat="37.02520796097815" lon="-2.428295016288757">
        <ele>327.47000000000003</ele>
        <time>2025-05-12T14:55:52Z</time>
      </trkpt>
      <trkpt lat="37.025083992630243" lon="-2.428466007113457">
        <ele>327.47000000000003</ele>
        <time>2025-05-12T14:55:53Z</time>
      </trkpt>
      <trkpt lat="37.024958012625575" lon="-2.428639009594917">
        <ele>327.47000000000003</ele>
        <time>2025-05-12T14:55:54Z</time>
      </trkpt>
      <trkpt lat="37.024851981550455" lon="-2.428827015683055">
        <ele>326.99000000000001</ele>
        <time>2025-05-12T14:55:55Z</time>
      </trkpt>
      <trkpt lat="37.024766989052296" lon="-2.429032037034631">
        <ele>326.5</ele>
        <time>2025-05-12T14:55:56Z</time>
      </trkpt>
      <trkpt lat="37.024699011817575" lon="-2.42924502119422">
        <ele>326.01999999999998</ele>
        <time>2025-05-12T14:55:57Z</time>
      </trkpt>
      <trkpt lat="37.024634974077344" lon="-2.429465968161821">
        <ele>325.54000000000002</ele>
        <time>2025-05-12T14:55:58Z</time>
      </trkpt>
      <trkpt lat="37.023956039920449" lon="-2.431996967643499">
        <ele>315.44999999999999</ele>
        <time>2025-05-12T14:56:10Z</time>
      </trkpt>
      <trkpt lat="37.023889990523458" lon="-2.432171981781721">
        <ele>314.49000000000001</ele>
        <time>2025-05-12T14:56:11Z</time>
      </trkpt>
      <trkpt lat="37.023798041045666" lon="-2.432316988706589">
        <ele>313.52999999999997</ele>
        <time>2025-05-12T14:56:12Z</time>
      </trkpt>
      <trkpt lat="37.023687986657023" lon="-2.432437017560005">
        <ele>312.56999999999999</ele>
        <time>2025-05-12T14:56:13Z</time>
      </trkpt>
      <trkpt lat="37.023574998602271" lon="-2.432548999786377">
        <ele>311.60000000000002</ele>
        <time>2025-05-12T14:56:14Z</time>
      </trkpt>
      <trkpt lat="37.023450024425983" lon="-2.43264002725482">
        <ele>311.12</ele>
        <time>2025-05-12T14:56:15Z</time>
      </trkpt>
      <trkpt lat="37.023326978087425" lon="-2.432731976732612">
        <ele>310.16000000000003</ele>
        <time>2025-05-12T14:56:16Z</time>
      </trkpt>
      <trkpt lat="37.021955028176308" lon="-2.433648034930229">
        <ele>306.31999999999999</ele>
        <time>2025-05-12T14:56:26Z</time>
      </trkpt>
      <trkpt lat="37.021628972142935" lon="-2.433982975780964">
        <ele>306.80000000000001</ele>
        <time>2025-05-12T14:56:29Z</time>
      </trkpt>
      <trkpt lat="37.021540962159634" lon="-2.434086995199323">
        <ele>307.27999999999997</ele>
        <time>2025-05-12T14:56:30Z</time>
      </trkpt>
      <trkpt lat="37.021467033773661" lon="-2.43418799713254">
        <ele>307.75999999999999</ele>
        <time>2025-05-12T14:56:31Z</time>
      </trkpt>
      <trkpt lat="37.021411964669824" lon="-2.434310959652066">
        <ele>307.75999999999999</ele>
        <time>2025-05-12T14:56:32Z</time>
      </trkpt>
      <trkpt lat="37.021356979385018" lon="-2.434433000162244">
        <ele>307.75999999999999</ele>
        <time>2025-05-12T14:56:33Z</time>
      </trkpt>
      <trkpt lat="37.020782986655831" lon="-2.435810985043645">
        <ele>305.36000000000001</ele>
        <time>2025-05-12T14:56:43Z</time>
      </trkpt>
      <trkpt lat="37.020323993638158" lon="-2.437592977657914">
        <ele>299.11000000000001</ele>
        <time>2025-05-12T14:56:53Z</time>
      </trkpt>
      <trkpt lat="37.019988968968391" lon="-2.43973103351891">
        <ele>290.45999999999998</ele>
        <time>2025-05-12T14:57:05Z</time>
      </trkpt>
      <trkpt lat="37.019494017586112" lon="-2.441104995086789">
        <ele>282.76999999999998</ele>
        <time>2025-05-12T14:57:14Z</time>
      </trkpt>
      <trkpt lat="37.019397038966417" lon="-2.441233992576599">
        <ele>281.80000000000001</ele>
        <time>2025-05-12T14:57:15Z</time>
      </trkpt>
      <trkpt lat="37.019292013719678" lon="-2.441352009773254">
        <ele>280.83999999999997</ele>
        <time>2025-05-12T14:57:16Z</time>
      </trkpt>
      <trkpt lat="37.019181959331036" lon="-2.441469021141529">
        <ele>279.88</ele>
        <time>2025-05-12T14:57:17Z</time>
      </trkpt>
      <trkpt lat="37.019054973497987" lon="-2.441603969782591">
        <ele>278.92000000000002</ele>
        <time>2025-05-12T14:57:18Z</time>
      </trkpt>
      <trkpt lat="37.018769988790154" lon="-2.44192399084568">
        <ele>276.04000000000002</ele>
        <time>2025-05-12T14:57:21Z</time>
      </trkpt>
      <trkpt lat="37.018692959100008" lon="-2.442057011649013">
        <ele>275.06999999999999</ele>
        <time>2025-05-12T14:57:22Z</time>
      </trkpt>
      <trkpt lat="37.018649959936738" lon="-2.442206963896751">
        <ele>274.11000000000001</ele>
        <time>2025-05-12T14:57:23Z</time>
      </trkpt>
      <trkpt lat="37.018620958551764" lon="-2.442366974428296">
        <ele>273.14999999999998</ele>
        <time>2025-05-12T14:57:24Z</time>
      </trkpt>
      <trkpt lat="37.018606038764119" lon="-2.442508963868022">
        <ele>272.67000000000002</ele>
        <time>2025-05-12T14:57:25Z</time>
      </trkpt>
      <trkpt lat="37.018611989915371" lon="-2.442661011591554">
        <ele>272.19</ele>
        <time>2025-05-12T14:57:26Z</time>
      </trkpt>
      <trkpt lat="37.018665969371796" lon="-2.443729033693671">
        <ele>270.75</ele>
        <time>2025-05-12T14:57:35Z</time>
      </trkpt>
      <trkpt lat="37.018668986856937" lon="-2.4437499884516">
        <ele>270.75</ele>
        <time>2025-05-12T14:57:36Z</time>
      </trkpt>
      <trkpt lat="37.018740987405181" lon="-2.443892983719707">
        <ele>271.23000000000002</ele>
        <time>2025-05-12T14:57:37Z</time>
      </trkpt>
      <trkpt lat="37.01884500682354" lon="-2.444030027836561">
        <ele>271.23000000000002</ele>
        <time>2025-05-12T14:57:39Z</time>
      </trkpt>
      <trkpt lat="37.01891197822988" lon="-2.444045031443238">
        <ele>271.70999999999998</ele>
        <time>2025-05-12T14:57:40Z</time>
      </trkpt>
      <trkpt lat="37.018988002091646" lon="-2.444061040878296">
        <ele>271.70999999999998</ele>
        <time>2025-05-12T14:57:41Z</time>
      </trkpt>
      <trkpt lat="37.019067965447903" lon="-2.444047965109348">
        <ele>272.19</ele>
        <time>2025-05-12T14:57:42Z</time>
      </trkpt>
      <trkpt lat="37.019142983481288" lon="-2.443994991481304">
        <ele>272.19</ele>
        <time>2025-05-12T14:57:43Z</time>
      </trkpt>
      <trkpt lat="37.019224958494306" lon="-2.443936988711357">
        <ele>273.14999999999998</ele>
        <time>2025-05-12T14:57:44Z</time>
      </trkpt>
      <trkpt lat="37.019518995657563" lon="-2.443728027865291">
        <ele>274.58999999999997</ele>
        <time>2025-05-12T14:57:47Z</time>
      </trkpt>
      <trkpt lat="37.019641036167741" lon="-2.443675976246595">
        <ele>275.06999999999999</ele>
        <time>2025-05-12T14:57:48Z</time>
      </trkpt>
      <trkpt lat="37.019773973152041" lon="-2.443631971254945">
        <ele>275.56</ele>
        <time>2025-05-12T14:57:49Z</time>
      </trkpt>
      <trkpt lat="37.019916968420148" lon="-2.4435980245471">
        <ele>276.04000000000002</ele>
        <time>2025-05-12T14:57:50Z</time>
      </trkpt>
      <trkpt lat="37.020063987001777" lon="-2.443594001233578">
        <ele>277</ele>
        <time>2025-05-12T14:57:51Z</time>
      </trkpt>
      <trkpt lat="37.020215028896928" lon="-2.443589977920055">
        <ele>277.95999999999998</ele>
        <time>2025-05-12T14:57:52Z</time>
      </trkpt>
      <trkpt lat="37.021837010979652" lon="-2.443591989576817">
        <ele>285.17000000000002</ele>
        <time>2025-05-12T14:58:01Z</time>
      </trkpt>
      <trkpt lat="37.023366037756205" lon="-2.443884015083313">
        <ele>289.49000000000001</ele>
        <time>2025-05-12T14:58:08Z</time>
      </trkpt>
      <trkpt lat="37.024893974885345" lon="-2.444756990298629">
        <ele>298.14999999999998</ele>
        <time>2025-05-12T14:58:15Z</time>
      </trkpt>
      <trkpt lat="37.026146985590458" lon="-2.446195995435119">
        <ele>308.24000000000001</ele>
        <time>2025-05-12T14:58:22Z</time>
      </trkpt>
      <trkpt lat="37.02760904096067" lon="-2.448654994368553">
        <ele>323.62</ele>
        <time>2025-05-12T14:58:32Z</time>
      </trkpt>
      <trkpt lat="37.02935297973454" lon="-2.450787015259266">
        <ele>342.37</ele>
        <time>2025-05-12T14:58:42Z</time>
      </trkpt>
      <trkpt lat="37.031331025063992" lon="-2.453088015317917">
        <ele>364</ele>
        <time>2025-05-12T14:58:53Z</time>
      </trkpt>
      <trkpt lat="37.032815041020513" lon="-2.455574003979564">
        <ele>383.69999999999999</ele>
        <time>2025-05-12T14:59:03Z</time>
      </trkpt>
      <trkpt lat="37.034080037847161" lon="-2.458600960671902">
        <ele>401.49000000000001</ele>
        <time>2025-05-12T14:59:14Z</time>
      </trkpt>
      <trkpt lat="37.035752981901169" lon="-2.462061010301113">
        <ele>420.70999999999998</ele>
        <time>2025-05-12T14:59:27Z</time>
      </trkpt>
      <trkpt lat="37.037498010322452" lon="-2.46469602920115">
        <ele>433.20999999999998</ele>
        <time>2025-05-12T14:59:38Z</time>
      </trkpt>
      <trkpt lat="37.039714017882943" lon="-2.467198027297854">
        <ele>441.38</ele>
        <time>2025-05-12T14:59:50Z</time>
      </trkpt>
      <trkpt lat="37.042239988222718" lon="-2.469200966879726">
        <ele>447.63</ele>
        <time>2025-05-12T15:00:02Z</time>
      </trkpt>
      <trkpt lat="37.046031961217523" lon="-2.471537003293634">
        <ele>459.64999999999998</ele>
        <time>2025-05-12T15:00:19Z</time>
      </trkpt>
      <trkpt lat="37.048944002017379" lon="-2.473313966766">
        <ele>471.18000000000001</ele>
        <time>2025-05-12T15:00:32Z</time>
      </trkpt>
      <trkpt lat="37.052743015810847" lon="-2.475644974038005">
        <ele>484.16000000000003</ele>
        <time>2025-05-12T15:00:49Z</time>
      </trkpt>
      <trkpt lat="37.055344004184008" lon="-2.477498967200518">
        <ele>493.76999999999998</ele>
        <time>2025-05-12T15:01:01Z</time>
      </trkpt>
      <trkpt lat="37.057247031480074" lon="-2.479496961459518">
        <ele>501.94999999999999</ele>
        <time>2025-05-12T15:01:11Z</time>
      </trkpt>
      <trkpt lat="37.058830037713051" lon="-2.481899969279766">
        <ele>510.60000000000002</ele>
        <time>2025-05-12T15:01:21Z</time>
      </trkpt>
      <trkpt lat="37.060731975361705" lon="-2.485163966193795">
        <ele>519.73000000000002</ele>
        <time>2025-05-12T15:01:34Z</time>
      </trkpt>
      <trkpt lat="37.062550010159612" lon="-2.487281989306212">
        <ele>526.94000000000005</ele>
        <time>2025-05-12T15:01:44Z</time>
      </trkpt>
      <trkpt lat="37.064649006351829" lon="-2.48897303827107">
        <ele>534.14999999999998</ele>
        <time>2025-05-12T15:01:54Z</time>
      </trkpt>
      <trkpt lat="37.067698007449508" lon="-2.491084020584822">
        <ele>547.13</ele>
        <time>2025-05-12T15:02:08Z</time>
      </trkpt>
      <trkpt lat="37.069953996688128" lon="-2.493010014295578">
        <ele>560.11000000000001</ele>
        <time>2025-05-12T15:02:19Z</time>
      </trkpt>
      <trkpt lat="37.071082033216953" lon="-2.49492896720767">
        <ele>568.27999999999997</ele>
        <time>2025-05-12T15:02:26Z</time>
      </trkpt>
      <trkpt lat="37.072421964257956" lon="-2.497760038822889">
        <ele>579.33000000000004</ele>
        <time>2025-05-12T15:02:35Z</time>
      </trkpt>
      <trkpt lat="37.073913021013141" lon="-2.499512024223805">
        <ele>588.95000000000005</ele>
        <time>2025-05-12T15:02:42Z</time>
      </trkpt>
      <trkpt lat="37.07638400606811" lon="-2.501546982675791">
        <ele>602.88</ele>
        <time>2025-05-12T15:02:52Z</time>
      </trkpt>
      <trkpt lat="37.079807007685304" lon="-2.504458017647266">
        <ele>622.11000000000001</ele>
        <time>2025-05-12T15:03:06Z</time>
      </trkpt>
      <trkpt lat="37.081426978111267" lon="-2.506598001345992">
        <ele>634.13</ele>
        <time>2025-05-12T15:03:14Z</time>
      </trkpt>
      <trkpt lat="37.082639001309872" lon="-2.509117014706135">
        <ele>648.54999999999995</ele>
        <time>2025-05-12T15:03:22Z</time>
      </trkpt>
      <trkpt lat="37.083427989855409" lon="-2.511895028874278">
        <ele>662.49000000000001</ele>
        <time>2025-05-12T15:03:30Z</time>
      </trkpt>
      <trkpt lat="37.084285961464047" lon="-2.515009995549917">
        <ele>677.38999999999999</ele>
        <time>2025-05-12T15:03:39Z</time>
      </trkpt>
      <trkpt lat="37.085467977449298" lon="-2.517117038369179">
        <ele>691.33000000000004</ele>
        <time>2025-05-12T15:03:46Z</time>
      </trkpt>
      <trkpt lat="37.088106013834476" lon="-2.521083019673824">
        <ele>717.27999999999997</ele>
        <time>2025-05-12T15:04:00Z</time>
      </trkpt>
      <trkpt lat="37.089587012305856" lon="-2.522279033437371">
        <ele>728.34000000000003</ele>
        <time>2025-05-12T15:04:06Z</time>
      </trkpt>
      <trkpt lat="37.091632029041648" lon="-2.523742010816932">
        <ele>743.72000000000003</ele>
        <time>2025-05-12T15:04:14Z</time>
      </trkpt>
      <trkpt lat="37.093045972287655" lon="-2.525640008971095">
        <ele>753.80999999999995</ele>
        <time>2025-05-12T15:04:21Z</time>
      </trkpt>
      <trkpt lat="37.094639036804438" lon="-2.52782198600471">
        <ele>761.01999999999998</ele>
        <time>2025-05-12T15:04:29Z</time>
      </trkpt>
      <trkpt lat="37.0961709972471" lon="-2.528903000056744">
        <ele>763.41999999999996</ele>
        <time>2025-05-12T15:04:35Z</time>
      </trkpt>
      <trkpt lat="37.098197992891073" lon="-2.529495013877749">
        <ele>760.05999999999995</ele>
        <time>2025-05-12T15:04:42Z</time>
      </trkpt>
      <trkpt lat="37.100262036547065" lon="-2.52917398698628">
        <ele>753.33000000000004</ele>
        <time>2025-05-12T15:04:49Z</time>
      </trkpt>
      <trkpt lat="37.105171987786889" lon="-2.527922987937927">
        <ele>750.92999999999995</ele>
        <time>2025-05-12T15:05:06Z</time>
      </trkpt>
      <trkpt lat="37.107539959251881" lon="-2.527683014050126">
        <ele>753.80999999999995</ele>
        <time>2025-05-12T15:05:14Z</time>
      </trkpt>
      <trkpt lat="37.109548011794686" lon="-2.528263963758946">
        <ele>753.33000000000004</ele>
        <time>2025-05-12T15:05:21Z</time>
      </trkpt>
      <trkpt lat="37.111126994714141" lon="-2.529299966990948">
        <ele>751.88999999999999</ele>
        <time>2025-05-12T15:05:27Z</time>
      </trkpt>
      <trkpt lat="37.112655015662313" lon="-2.531052958220244">
        <ele>747.08000000000004</ele>
        <time>2025-05-12T15:05:34Z</time>
      </trkpt>
      <trkpt lat="37.113963011652231" lon="-2.533516986295581">
        <ele>738.90999999999997</ele>
        <time>2025-05-12T15:05:42Z</time>
      </trkpt>
      <trkpt lat="37.115909960120916" lon="-2.537674997001886">
        <ele>727.37</ele>
        <time>2025-05-12T15:05:55Z</time>
      </trkpt>
      <trkpt lat="37.116419998928905" lon="-2.540084039792419">
        <ele>727.37</ele>
        <time>2025-05-12T15:06:02Z</time>
      </trkpt>
      <trkpt lat="37.116368031129241" lon="-2.542285965755582">
        <ele>732.65999999999997</ele>
        <time>2025-05-12T15:06:09Z</time>
      </trkpt>
      <trkpt lat="37.11589403450489" lon="-2.545113014057279">
        <ele>736.99000000000001</ele>
        <time>2025-05-12T15:06:18Z</time>
      </trkpt>
      <trkpt lat="37.115846006199718" lon="-2.547404039651156">
        <ele>739.38999999999999</ele>
        <time>2025-05-12T15:06:25Z</time>
      </trkpt>
      <trkpt lat="37.11625998839736" lon="-2.549665980041027">
        <ele>742.75999999999999</ele>
        <time>2025-05-12T15:06:32Z</time>
      </trkpt>
      <trkpt lat="37.117165988311172" lon="-2.553845029324293">
        <ele>749</ele>
        <time>2025-05-12T15:06:45Z</time>
      </trkpt>
      <trkpt lat="37.117373021319509" lon="-2.557175997644663">
        <ele>753.33000000000004</ele>
        <time>2025-05-12T15:06:55Z</time>
      </trkpt>
      <trkpt lat="37.117496989667416" lon="-2.561136027798057">
        <ele>757.65999999999997</ele>
        <time>2025-05-12T15:07:06Z</time>
      </trkpt>
      <trkpt lat="37.117583993822336" lon="-2.5663230009377">
        <ele>763.41999999999996</ele>
        <time>2025-05-12T15:07:20Z</time>
      </trkpt>
      <trkpt lat="37.117717014625669" lon="-2.572242971509695">
        <ele>769.66999999999996</ele>
        <time>2025-05-12T15:07:36Z</time>
      </trkpt>
      <trkpt lat="37.118340963497758" lon="-2.575463969260454">
        <ele>773.03999999999996</ele>
        <time>2025-05-12T15:07:45Z</time>
      </trkpt>
      <trkpt lat="37.119552986696362" lon="-2.580410968512297">
        <ele>776.39999999999998</ele>
        <time>2025-05-12T15:07:59Z</time>
      </trkpt>
      <trkpt lat="37.119608977809548" lon="-2.582981027662754">
        <ele>776.39999999999998</ele>
        <time>2025-05-12T15:08:06Z</time>
      </trkpt>
      <trkpt lat="37.119088964536786" lon="-2.585469027981162">
        <ele>774.48000000000002</ele>
        <time>2025-05-12T15:08:13Z</time>
      </trkpt>
      <trkpt lat="37.118159998208284" lon="-2.587786037474871">
        <ele>771.11000000000001</ele>
        <time>2025-05-12T15:08:20Z</time>
      </trkpt>
      <trkpt lat="37.11750796996057" lon="-2.590252999216318">
        <ele>766.30999999999995</ele>
        <time>2025-05-12T15:08:27Z</time>
      </trkpt>
      <trkpt lat="37.117416020482779" lon="-2.59279397316277">
        <ele>762.94000000000005</ele>
        <time>2025-05-12T15:08:34Z</time>
      </trkpt>
      <trkpt lat="37.117688013240695" lon="-2.598338015377522">
        <ele>761.98000000000002</ele>
        <time>2025-05-12T15:08:49Z</time>
      </trkpt>
      <trkpt lat="37.118095960468054" lon="-2.602017000317574">
        <ele>759.58000000000004</ele>
        <time>2025-05-12T15:08:59Z</time>
      </trkpt>
      <trkpt lat="37.119389958679676" lon="-2.60731796734035">
        <ele>754.76999999999998</ele>
        <time>2025-05-12T15:09:14Z</time>
      </trkpt>
      <trkpt lat="37.120051039382815" lon="-2.611286966130137">
        <ele>756.69000000000005</ele>
        <time>2025-05-12T15:09:25Z</time>
      </trkpt>
      <trkpt lat="37.120121028274298" lon="-2.614640984684229">
        <ele>758.62</ele>
        <time>2025-05-12T15:09:34Z</time>
      </trkpt>
      <trkpt lat="37.120189005509019" lon="-2.619458986446261">
        <ele>758.62</ele>
        <time>2025-05-12T15:09:47Z</time>
      </trkpt>
      <trkpt lat="37.120597036555409" lon="-2.622325010597706">
        <ele>760.05999999999995</ele>
        <time>2025-05-12T15:09:56Z</time>
      </trkpt>
      <trkpt lat="37.121641002595425" lon="-2.625305028632283">
        <ele>765.35000000000002</ele>
        <time>2025-05-12T15:10:04Z</time>
      </trkpt>
      <trkpt lat="37.123597003519535" lon="-2.62948801741004">
        <ele>779.76999999999998</ele>
        <time>2025-05-12T15:10:17Z</time>
      </trkpt>
      <trkpt lat="37.125554010272026" lon="-2.633546032011509">
        <ele>780.73000000000002</ele>
        <time>2025-05-12T15:10:30Z</time>
      </trkpt>
      <trkpt lat="37.127344971522689" lon="-2.636437034234405">
        <ele>772.08000000000004</ele>
        <time>2025-05-12T15:10:40Z</time>
      </trkpt>
      <trkpt lat="37.129523009061813" lon="-2.638817997649312">
        <ele>760.05999999999995</ele>
        <time>2025-05-12T15:10:50Z</time>
      </trkpt>
      <trkpt lat="37.13170699775219" lon="-2.640539975836873">
        <ele>751.40999999999997</ele>
        <time>2025-05-12T15:10:59Z</time>
      </trkpt>
      <trkpt lat="37.134610991925001" lon="-2.642864026129246">
        <ele>756.21000000000004</ele>
        <time>2025-05-12T15:11:11Z</time>
      </trkpt>
      <trkpt lat="37.135738022625446" lon="-2.64448500238359">
        <ele>762.46000000000004</ele>
        <time>2025-05-12T15:11:17Z</time>
      </trkpt>
      <trkpt lat="37.136472025886178" lon="-2.646421976387501">
        <ele>768.71000000000004</ele>
        <time>2025-05-12T15:11:23Z</time>
      </trkpt>
      <trkpt lat="37.136750975623727" lon="-2.648925986140966">
        <ele>776.88</ele>
        <time>2025-05-12T15:11:30Z</time>
      </trkpt>
      <trkpt lat="37.136376975104213" lon="-2.651429995894432">
        <ele>783.61000000000001</ele>
        <time>2025-05-12T15:11:37Z</time>
      </trkpt>
      <trkpt lat="37.135629979893565" lon="-2.653838032856584">
        <ele>786.5</ele>
        <time>2025-05-12T15:11:44Z</time>
      </trkpt>
      <trkpt lat="37.135334014892578" lon="-2.656009029597044">
        <ele>786.98000000000002</ele>
        <time>2025-05-12T15:11:50Z</time>
      </trkpt>
      <trkpt lat="37.13551003485918" lon="-2.658212967216969">
        <ele>784.09000000000003</ele>
        <time>2025-05-12T15:11:56Z</time>
      </trkpt>
      <trkpt lat="37.136175977066159" lon="-2.660259995609522">
        <ele>777.84000000000003</ele>
        <time>2025-05-12T15:12:02Z</time>
      </trkpt>
      <trkpt lat="37.137469975277781" lon="-2.662729974836111">
        <ele>768.23000000000002</ele>
        <time>2025-05-12T15:12:10Z</time>
      </trkpt>
      <trkpt lat="37.138355020433664" lon="-2.665463984012604">
        <ele>760.05999999999995</ele>
        <time>2025-05-12T15:12:18Z</time>
      </trkpt>
      <trkpt lat="37.138660037890077" lon="-2.668027002364397">
        <ele>757.65999999999997</ele>
        <time>2025-05-12T15:12:25Z</time>
      </trkpt>
      <trkpt lat="37.138618966564536" lon="-2.670993022620678">
        <ele>754.28999999999996</ele>
        <time>2025-05-12T15:12:33Z</time>
      </trkpt>
      <trkpt lat="37.138485023751855" lon="-2.676173038780689">
        <ele>749</ele>
        <time>2025-05-12T15:12:47Z</time>
      </trkpt>
      <trkpt lat="37.13834697380662" lon="-2.681734012439847">
        <ele>746.60000000000002</ele>
        <time>2025-05-12T15:13:02Z</time>
      </trkpt>
      <trkpt lat="37.138237003237009" lon="-2.686179019510746">
        <ele>743.72000000000003</ele>
        <time>2025-05-12T15:13:14Z</time>
      </trkpt>
      <trkpt lat="37.138298023492098" lon="-2.691012024879456">
        <ele>739.87</ele>
        <time>2025-05-12T15:13:27Z</time>
      </trkpt>
      <trkpt lat="37.138914009556174" lon="-2.69465203396976">
        <ele>738.42999999999995</ele>
        <time>2025-05-12T15:13:37Z</time>
      </trkpt>
      <trkpt lat="37.140088984742761" lon="-2.700784988701344">
        <ele>734.10000000000002</ele>
        <time>2025-05-12T15:13:54Z</time>
      </trkpt>
      <trkpt lat="37.140912003815174" lon="-2.705118013545871">
        <ele>730.74000000000001</ele>
        <time>2025-05-12T15:14:06Z</time>
      </trkpt>
      <trkpt lat="37.141546010971069" lon="-2.709498982876539">
        <ele>727.37</ele>
        <time>2025-05-12T15:14:18Z</time>
      </trkpt>
      <trkpt lat="37.141581969335675" lon="-2.713200012221932">
        <ele>726.40999999999997</ele>
        <time>2025-05-12T15:14:28Z</time>
      </trkpt>
      <trkpt lat="37.141101015731692" lon="-2.716851001605392">
        <ele>728.34000000000003</ele>
        <time>2025-05-12T15:14:38Z</time>
      </trkpt>
      <trkpt lat="37.140169031918049" lon="-2.720373999327421">
        <ele>730.25999999999999</ele>
        <time>2025-05-12T15:14:48Z</time>
      </trkpt>
      <trkpt lat="37.138833040371537" lon="-2.723684012889862">
        <ele>733.62</ele>
        <time>2025-05-12T15:14:58Z</time>
      </trkpt>
      <trkpt lat="37.136681992560625" lon="-2.728562029078603">
        <ele>735.54999999999995</ele>
        <time>2025-05-12T15:15:13Z</time>
      </trkpt>
      <trkpt lat="37.136114034801722" lon="-2.730648033320904">
        <ele>736.99000000000001</ele>
        <time>2025-05-12T15:15:19Z</time>
      </trkpt>
      <trkpt lat="37.136022001504898" lon="-2.732879966497421">
        <ele>739.38999999999999</ele>
        <time>2025-05-12T15:15:25Z</time>
      </trkpt>
      <trkpt lat="37.136483006179333" lon="-2.735026990994811">
        <ele>741.78999999999996</ele>
        <time>2025-05-12T15:15:31Z</time>
      </trkpt>
      <trkpt lat="37.137308036908507" lon="-2.73740803822875">
        <ele>744.67999999999995</ele>
        <time>2025-05-12T15:15:38Z</time>
      </trkpt>
      <trkpt lat="37.137768035754561" lon="-2.739923028275371">
        <ele>749</ele>
        <time>2025-05-12T15:15:45Z</time>
      </trkpt>
      <trkpt lat="37.13811001740396" lon="-2.741333032026887">
        <ele>752.37</ele>
        <time>2025-05-12T15:15:49Z</time>
      </trkpt>
      <trkpt lat="37.139201005920768" lon="-2.743509979918599">
        <ele>757.17999999999995</ele>
        <time>2025-05-12T15:15:56Z</time>
      </trkpt>
      <trkpt lat="37.140514031052589" lon="-2.744981003925204">
        <ele>761.01999999999998</ele>
        <time>2025-05-12T15:16:02Z</time>
      </trkpt>
      <trkpt lat="37.142463997006416" lon="-2.746727960184217">
        <ele>764.87</ele>
        <time>2025-05-12T15:16:10Z</time>
      </trkpt>
      <trkpt lat="37.143537970259786" lon="-2.748492015525699">
        <ele>766.78999999999996</ele>
        <time>2025-05-12T15:16:16Z</time>
      </trkpt>
      <trkpt lat="37.144922995939851" lon="-2.75085898116231">
        <ele>770.63</ele>
        <time>2025-05-12T15:16:24Z</time>
      </trkpt>
      <trkpt lat="37.146336017176509" lon="-2.752207964658737">
        <ele>773.51999999999998</ele>
        <time>2025-05-12T15:16:30Z</time>
      </trkpt>
      <trkpt lat="37.1468769852072" lon="-2.752523040398955">
        <ele>775.44000000000005</ele>
        <time>2025-05-12T15:16:33Z</time>
      </trkpt>
      <trkpt lat="37.149319974705577" lon="-2.75380102917552">
        <ele>784.09000000000003</ele>
        <time>2025-05-12T15:16:41Z</time>
      </trkpt>
      <trkpt lat="37.15091303922236" lon="-2.755430974066258">
        <ele>792.74000000000001</ele>
        <time>2025-05-12T15:16:48Z</time>
      </trkpt>
      <trkpt lat="37.151908976957202" lon="-2.757255965843797">
        <ele>798.99000000000001</ele>
        <time>2025-05-12T15:16:54Z</time>
      </trkpt>
      <trkpt lat="37.152494033798575" lon="-2.759339958429337">
        <ele>806.20000000000005</ele>
        <time>2025-05-12T15:17:00Z</time>
      </trkpt>
      <trkpt lat="37.152539966627955" lon="-2.761942958459258">
        <ele>813.40999999999997</ele>
        <time>2025-05-12T15:17:07Z</time>
      </trkpt>
      <trkpt lat="37.152093965560198" lon="-2.764106998220086">
        <ele>815.82000000000005</ele>
        <time>2025-05-12T15:17:13Z</time>
      </trkpt>
      <trkpt lat="37.151190983131528" lon="-2.766030980274081">
        <ele>818.22000000000003</ele>
        <time>2025-05-12T15:17:19Z</time>
      </trkpt>
      <trkpt lat="37.149911988526583" lon="-2.767559001222253">
        <ele>820.13999999999999</ele>
        <time>2025-05-12T15:17:25Z</time>
      </trkpt>
      <trkpt lat="37.148036034777761" lon="-2.769374018535018">
        <ele>822.05999999999995</ele>
        <time>2025-05-12T15:17:33Z</time>
      </trkpt>
      <trkpt lat="37.146849995478988" lon="-2.771476032212377">
        <ele>823.02999999999997</ele>
        <time>2025-05-12T15:17:40Z</time>
      </trkpt>
      <trkpt lat="37.146297041326761" lon="-2.77358902618289">
        <ele>824.47000000000003</ele>
        <time>2025-05-12T15:17:46Z</time>
      </trkpt>
      <trkpt lat="37.146109035238624" lon="-2.776524033397436">
        <ele>829.26999999999998</ele>
        <time>2025-05-12T15:17:54Z</time>
      </trkpt>
      <trkpt lat="37.145896973088384" lon="-2.780932998284698">
        <ele>835.51999999999998</ele>
        <time>2025-05-12T15:18:06Z</time>
      </trkpt>
      <trkpt lat="37.145951958373189" lon="-2.784537971019745">
        <ele>836.96000000000004</ele>
        <time>2025-05-12T15:18:16Z</time>
      </trkpt>
      <trkpt lat="37.146624019369483" lon="-2.789157992228866">
        <ele>844.17999999999995</ele>
        <time>2025-05-12T15:18:29Z</time>
      </trkpt>
      <trkpt lat="37.147388029843569" lon="-2.794117983430624">
        <ele>853.78999999999996</ele>
        <time>2025-05-12T15:18:43Z</time>
      </trkpt>
      <trkpt lat="37.148206019774079" lon="-2.799429008737207">
        <ele>862.91999999999996</ele>
        <time>2025-05-12T15:18:58Z</time>
      </trkpt>
      <trkpt lat="37.148940023034811" lon="-2.802906995639205">
        <ele>869.64999999999998</ele>
        <time>2025-05-12T15:19:08Z</time>
      </trkpt>
      <trkpt lat="37.149998992681503" lon="-2.805932024493814">
        <ele>877.34000000000003</ele>
        <time>2025-05-12T15:19:17Z</time>
      </trkpt>
      <trkpt lat="37.151315035298467" lon="-2.810014011338353">
        <ele>888.39999999999998</ele>
        <time>2025-05-12T15:19:29Z</time>
      </trkpt>
      <trkpt lat="37.152436031028628" lon="-2.814603019505739">
        <ele>901.85000000000002</ele>
        <time>2025-05-12T15:19:42Z</time>
      </trkpt>
      <trkpt lat="37.153725000098348" lon="-2.820241022855043">
        <ele>916.75</ele>
        <time>2025-05-12T15:19:58Z</time>
      </trkpt>
      <trkpt lat="37.154892012476921" lon="-2.824400961399078">
        <ele>925.88999999999999</ele>
        <time>2025-05-12T15:20:10Z</time>
      </trkpt>
      <trkpt lat="37.156489016488194" lon="-2.82915199175477">
        <ele>936.46000000000004</ele>
        <time>2025-05-12T15:20:24Z</time>
      </trkpt>
      <trkpt lat="37.158506959676743" lon="-2.834467040374875">
        <ele>948.48000000000002</ele>
        <time>2025-05-12T15:20:40Z</time>
      </trkpt>
      <trkpt lat="37.159049017354846" lon="-2.836961997672916">
        <ele>952.79999999999995</ele>
        <time>2025-05-12T15:20:47Z</time>
      </trkpt>
      <trkpt lat="37.159433998167515" lon="-2.839519986882806">
        <ele>954.25</ele>
        <time>2025-05-12T15:20:55Z</time>
      </trkpt>
      <trkpt lat="37.160402024164796" lon="-2.84221401438117">
        <ele>956.16999999999996</ele>
        <time>2025-05-12T15:21:02Z</time>
      </trkpt>
      <trkpt lat="37.161704991012812" lon="-2.844217959791422">
        <ele>959.04999999999995</ele>
        <time>2025-05-12T15:21:09Z</time>
      </trkpt>
      <trkpt lat="37.163899037986994" lon="-2.846721969544888">
        <ele>961.46000000000004</ele>
        <time>2025-05-12T15:21:19Z</time>
      </trkpt>
      <trkpt lat="37.165124975144863" lon="-2.848825994879007">
        <ele>963.86000000000001</ele>
        <time>2025-05-12T15:21:26Z</time>
      </trkpt>
      <trkpt lat="37.166045978665352" lon="-2.851555980741978">
        <ele>967.70000000000005</ele>
        <time>2025-05-12T15:21:34Z</time>
      </trkpt>
      <trkpt lat="37.166450992226601" lon="-2.85409402102232">
        <ele>969.63</ele>
        <time>2025-05-12T15:21:41Z</time>
      </trkpt>
      <trkpt lat="37.166995983570814" lon="-2.857345025986433">
        <ele>970.59000000000003</ele>
        <time>2025-05-12T15:21:50Z</time>
      </trkpt>
      <trkpt lat="37.168007008731365" lon="-2.859582994133234">
        <ele>974.90999999999997</ele>
        <time>2025-05-12T15:21:57Z</time>
      </trkpt>
      <trkpt lat="37.168764984235168" lon="-2.86157201975584">
        <ele>983.09000000000003</ele>
        <time>2025-05-12T15:22:03Z</time>
      </trkpt>
      <trkpt lat="37.169065978378057" lon="-2.863746033981443">
        <ele>991.74000000000001</ele>
        <time>2025-05-12T15:22:09Z</time>
      </trkpt>
      <trkpt lat="37.16889901086688" lon="-2.865945026278496">
        <ele>1000.87</ele>
        <time>2025-05-12T15:22:15Z</time>
      </trkpt>
      <trkpt lat="37.168498020619154" lon="-2.869226038455963">
        <ele>1011.9299999999999</ele>
        <time>2025-05-12T15:22:24Z</time>
      </trkpt>
      <trkpt lat="37.168818041682243" lon="-2.871385971084237">
        <ele>1021.0599999999999</ele>
        <time>2025-05-12T15:22:30Z</time>
      </trkpt>
      <trkpt lat="37.169534023851156" lon="-2.874585008248687">
        <ele>1035.48</ele>
        <time>2025-05-12T15:22:39Z</time>
      </trkpt>
      <trkpt lat="37.169516002759337" lon="-2.876785006374121">
        <ele>1043.6500000000001</ele>
        <time>2025-05-12T15:22:45Z</time>
      </trkpt>
      <trkpt lat="37.169001018628478" lon="-2.879667961969972">
        <ele>1055.6700000000001</ele>
        <time>2025-05-12T15:22:53Z</time>
      </trkpt>
      <trkpt lat="37.168890964239836" lon="-2.882609004154801">
        <ele>1066.72</ele>
        <time>2025-05-12T15:23:01Z</time>
      </trkpt>
      <trkpt lat="37.168965982273221" lon="-2.885926980525255">
        <ele>1080.1800000000001</ele>
        <time>2025-05-12T15:23:10Z</time>
      </trkpt>
      <trkpt lat="37.168614026159048" lon="-2.888825023546815">
        <ele>1090.75</ele>
        <time>2025-05-12T15:23:18Z</time>
      </trkpt>
      <trkpt lat="37.167713977396488" lon="-2.891948958858848">
        <ele>1103.25</ele>
        <time>2025-05-12T15:23:27Z</time>
      </trkpt>
      <trkpt lat="37.167293038219213" lon="-2.894104029983282">
        <ele>1111.9000000000001</ele>
        <time>2025-05-12T15:23:33Z</time>
      </trkpt>
      <trkpt lat="37.167353974655271" lon="-2.896694960072637">
        <ele>1120.55</ele>
        <time>2025-05-12T15:23:40Z</time>
      </trkpt>
      <trkpt lat="37.167990999296308" lon="-2.901827031746507">
        <ele>1134.01</ele>
        <time>2025-05-12T15:23:54Z</time>
      </trkpt>
      <trkpt lat="37.168768001720309" lon="-2.905409038066864">
        <ele>1138.8199999999999</ele>
        <time>2025-05-12T15:24:04Z</time>
      </trkpt>
      <trkpt lat="37.169002024456859" lon="-2.907985970377922">
        <ele>1138.8199999999999</ele>
        <time>2025-05-12T15:24:11Z</time>
      </trkpt>
      <trkpt lat="37.168750986456871" lon="-2.910914020612836">
        <ele>1137.3800000000001</ele>
        <time>2025-05-12T15:24:19Z</time>
      </trkpt>
      <trkpt lat="37.168180011212826" lon="-2.914378009736538">
        <ele>1142.6600000000001</ele>
        <time>2025-05-12T15:24:29Z</time>
      </trkpt>
      <trkpt lat="37.167872982099652" lon="-2.917045969516039">
        <ele>1150.3499999999999</ele>
        <time>2025-05-12T15:24:38Z</time>
      </trkpt>
      <trkpt lat="37.168113961815834" lon="-2.918874984607101">
        <ele>1155.1600000000001</ele>
        <time>2025-05-12T15:24:44Z</time>
      </trkpt>
      <trkpt lat="37.168960031121969" lon="-2.921123011037707">
        <ele>1158.53</ele>
        <time>2025-05-12T15:24:52Z</time>
      </trkpt>
      <trkpt lat="37.170022018253803" lon="-2.92280500754714">
        <ele>1159.01</ele>
        <time>2025-05-12T15:24:59Z</time>
      </trkpt>
      <trkpt lat="37.171913981437683" lon="-2.925663990899921">
        <ele>1154.2</ele>
        <time>2025-05-12T15:25:11Z</time>
      </trkpt>
      <trkpt lat="37.173778032884002" lon="-2.928528003394604">
        <ele>1152.76</ele>
        <time>2025-05-12T15:25:23Z</time>
      </trkpt>
      <trkpt lat="37.174439029768109" lon="-2.93013196438551">
        <ele>1152.28</ele>
        <time>2025-05-12T15:25:29Z</time>
      </trkpt>
      <trkpt lat="37.174687972292304" lon="-2.931952010840178">
        <ele>1150.8399999999999</ele>
        <time>2025-05-12T15:25:35Z</time>
      </trkpt>
      <trkpt lat="37.174761984497309" lon="-2.934716027230024">
        <ele>1148.4300000000001</ele>
        <time>2025-05-12T15:25:44Z</time>
      </trkpt>
      <trkpt lat="37.175246039405465" lon="-2.936419984325767">
        <ele>1149.8699999999999</ele>
        <time>2025-05-12T15:25:50Z</time>
      </trkpt>
      <trkpt lat="37.176165031269193" lon="-2.937804004177451">
        <ele>1149.8699999999999</ele>
        <time>2025-05-12T15:25:56Z</time>
      </trkpt>
      <trkpt lat="37.177412007004023" lon="-2.938759038224816">
        <ele>1151.3199999999999</ele>
        <time>2025-05-12T15:26:02Z</time>
      </trkpt>
      <trkpt lat="37.177646029740572" lon="-2.938864985480905">
        <ele>1151.3199999999999</ele>
        <time>2025-05-12T15:26:03Z</time>
      </trkpt>
      <trkpt lat="37.17788097448647" lon="-2.938970010727644">
        <ele>1151.3199999999999</ele>
        <time>2025-05-12T15:26:04Z</time>
      </trkpt>
      <trkpt lat="37.180245006456971" lon="-2.939685992896557">
        <ele>1146.03</ele>
        <time>2025-05-12T15:26:14Z</time>
      </trkpt>
      <trkpt lat="37.182079972699285" lon="-2.940481016412377">
        <ele>1147.47</ele>
        <time>2025-05-12T15:26:22Z</time>
      </trkpt>
      <trkpt lat="37.183221001178026" lon="-2.941659009084106">
        <ele>1149.8699999999999</ele>
        <time>2025-05-12T15:26:29Z</time>
      </trkpt>
      <trkpt lat="37.18413001857698" lon="-2.943480983376503">
        <ele>1155.1600000000001</ele>
        <time>2025-05-12T15:26:35Z</time>
      </trkpt>
      <trkpt lat="37.184704011306167" lon="-2.945877034217119">
        <ele>1160.45</ele>
        <time>2025-05-12T15:26:43Z</time>
      </trkpt>
      <trkpt lat="37.185671031475067" lon="-2.950302008539438">
        <ele>1166.22</ele>
        <time>2025-05-12T15:26:58Z</time>
      </trkpt>
      <trkpt lat="37.186708962544799" lon="-2.954996963962913">
        <ele>1173.4300000000001</ele>
        <time>2025-05-12T15:27:14Z</time>
      </trkpt>
      <trkpt lat="37.187598031014204" lon="-2.957907998934388">
        <ele>1173.4300000000001</ele>
        <time>2025-05-12T15:27:24Z</time>
      </trkpt>
      <trkpt lat="37.188850035890937" lon="-2.960922969505191">
        <ele>1169.0999999999999</ele>
        <time>2025-05-12T15:27:35Z</time>
      </trkpt>
      <trkpt lat="37.189700966700912" lon="-2.963592018932104">
        <ele>1164.29</ele>
        <time>2025-05-12T15:27:44Z</time>
      </trkpt>
      <trkpt lat="37.190563967451453" lon="-2.96764500439167">
        <ele>1158.05</ele>
        <time>2025-05-12T15:27:56Z</time>
      </trkpt>
      <trkpt lat="37.191499974578619" lon="-2.972169974818826">
        <ele>1150.3499999999999</ele>
        <time>2025-05-12T15:28:09Z</time>
      </trkpt>
      <trkpt lat="37.192649971693754" lon="-2.977799009531736">
        <ele>1146.99</ele>
        <time>2025-05-12T15:28:25Z</time>
      </trkpt>
      <trkpt lat="37.193777002394199" lon="-2.983335005119443">
        <ele>1149.3900000000001</ele>
        <time>2025-05-12T15:28:41Z</time>
      </trkpt>
      <trkpt lat="37.194784004241228" lon="-2.988202041015029">
        <ele>1149.8699999999999</ele>
        <time>2025-05-12T15:28:55Z</time>
      </trkpt>
      <trkpt lat="37.195954034104943" lon="-2.993941968306899">
        <ele>1147.47</ele>
        <time>2025-05-12T15:29:11Z</time>
      </trkpt>
      <trkpt lat="37.197201009839773" lon="-3.000066038221121">
        <ele>1148.9100000000001</ele>
        <time>2025-05-12T15:29:28Z</time>
      </trkpt>
      <trkpt lat="37.198389982804656" lon="-3.005821974948049">
        <ele>1146.51</ele>
        <time>2025-05-12T15:29:44Z</time>
      </trkpt>
      <trkpt lat="37.199419029057026" lon="-3.010863019153476">
        <ele>1142.1800000000001</ele>
        <time>2025-05-12T15:29:58Z</time>
      </trkpt>
      <trkpt lat="37.200370961800218" lon="-3.015526961535215">
        <ele>1137.8599999999999</ele>
        <time>2025-05-12T15:30:11Z</time>
      </trkpt>
      <trkpt lat="37.201396990567446" lon="-3.020556019619107">
        <ele>1132.0899999999999</ele>
        <time>2025-05-12T15:30:25Z</time>
      </trkpt>
      <trkpt lat="37.202423019334674" lon="-3.025581976398826">
        <ele>1128.73</ele>
        <time>2025-05-12T15:30:39Z</time>
      </trkpt>
      <trkpt lat="37.20366002060473" lon="-3.031679978594184">
        <ele>1134.49</ele>
        <time>2025-05-12T15:30:56Z</time>
      </trkpt>
      <trkpt lat="37.204918982461095" lon="-3.037786027416587">
        <ele>1141.22</ele>
        <time>2025-05-12T15:31:13Z</time>
      </trkpt>
      <trkpt lat="37.205945011228323" lon="-3.042845008894801">
        <ele>1140.74</ele>
        <time>2025-05-12T15:31:27Z</time>
      </trkpt>
      <trkpt lat="37.207192992791533" lon="-3.048946028575301">
        <ele>1128.73</ele>
        <time>2025-05-12T15:31:44Z</time>
      </trkpt>
      <trkpt lat="37.208443991839886" lon="-3.055058028548956">
        <ele>1123.4400000000001</ele>
        <time>2025-05-12T15:32:01Z</time>
      </trkpt>
      <trkpt lat="37.209387039765716" lon="-3.059731023386121">
        <ele>1120.55</ele>
        <time>2025-05-12T15:32:14Z</time>
      </trkpt>
      <trkpt lat="37.210841970518231" lon="-3.066135970875621">
        <ele>1117.6700000000001</ele>
        <time>2025-05-12T15:32:32Z</time>
      </trkpt>
      <trkpt lat="37.211846960708499" lon="-3.068389026448131">
        <ele>1116.71</ele>
        <time>2025-05-12T15:32:39Z</time>
      </trkpt>
      <trkpt lat="37.213239027187228" lon="-3.070307979360223">
        <ele>1115.27</ele>
        <time>2025-05-12T15:32:46Z</time>
      </trkpt>
      <trkpt lat="37.215640023350716" lon="-3.072486016899347">
        <ele>1111.4200000000001</ele>
        <time>2025-05-12T15:32:56Z</time>
      </trkpt>
      <trkpt lat="37.219622014090419" lon="-3.075734004378319">
        <ele>1106.1300000000001</ele>
        <time>2025-05-12T15:33:12Z</time>
      </trkpt>
      <trkpt lat="37.223609033972025" lon="-3.078974029049277">
        <ele>1100.8499999999999</ele>
        <time>2025-05-12T15:33:28Z</time>
      </trkpt>
      <trkpt lat="37.226658035069704" lon="-3.081245021894574">
        <ele>1098.4400000000001</ele>
        <time>2025-05-12T15:33:40Z</time>
      </trkpt>
      <trkpt lat="37.228915030136704" lon="-3.082056976854801">
        <ele>1096.52</ele>
        <time>2025-05-12T15:33:48Z</time>
      </trkpt>
      <trkpt lat="37.230992987751961" lon="-3.082239031791687">
        <ele>1095.5599999999999</ele>
        <time>2025-05-12T15:33:55Z</time>
      </trkpt>
      <trkpt lat="37.233949033543468" lon="-3.082139035686851">
        <ele>1093.1600000000001</ele>
        <time>2025-05-12T15:34:05Z</time>
      </trkpt>
      <trkpt lat="37.237511007115245" lon="-3.082005009055138">
        <ele>1093.1600000000001</ele>
        <time>2025-05-12T15:34:17Z</time>
      </trkpt>
      <trkpt lat="37.240474009886384" lon="-3.081898977980018">
        <ele>1091.71</ele>
        <time>2025-05-12T15:34:27Z</time>
      </trkpt>
      <trkpt lat="37.243744963780046" lon="-3.081781966611743">
        <ele>1091.71</ele>
        <time>2025-05-12T15:34:38Z</time>
      </trkpt>
      <trkpt lat="37.247302997857332" lon="-3.081668978556991">
        <ele>1089.3099999999999</ele>
        <time>2025-05-12T15:34:50Z</time>
      </trkpt>
      <trkpt lat="37.250573029741645" lon="-3.081560013815761">
        <ele>1086.9100000000001</ele>
        <time>2025-05-12T15:35:01Z</time>
      </trkpt>
      <trkpt lat="37.253833003342152" lon="-3.08145197108388">
        <ele>1085.95</ele>
        <time>2025-05-12T15:35:12Z</time>
      </trkpt>
      <trkpt lat="37.256501968950033" lon="-3.081578034907579">
        <ele>1084.5</ele>
        <time>2025-05-12T15:35:21Z</time>
      </trkpt>
      <trkpt lat="37.258796012029052" lon="-3.082318995147944">
        <ele>1083.54</ele>
        <time>2025-05-12T15:35:29Z</time>
      </trkpt>
      <trkpt lat="37.260886039584875" lon="-3.083713995292783">
        <ele>1081.6199999999999</ele>
        <time>2025-05-12T15:35:37Z</time>
      </trkpt>
      <trkpt lat="37.262478014454246" lon="-3.085364978760481">
        <ele>1079.7</ele>
        <time>2025-05-12T15:35:44Z</time>
      </trkpt>
      <trkpt lat="37.263917019590735" lon="-3.087697997689247">
        <ele>1079.22</ele>
        <time>2025-05-12T15:35:52Z</time>
      </trkpt>
      <trkpt lat="37.265333980321884" lon="-3.090973980724812">
        <ele>1077.78</ele>
        <time>2025-05-12T15:36:02Z</time>
      </trkpt>
      <trkpt lat="37.266586991026998" lon="-3.093035006895661">
        <ele>1072.49</ele>
        <time>2025-05-12T15:36:09Z</time>
      </trkpt>
      <trkpt lat="37.268038988113403" lon="-3.09427997097373">
        <ele>1067.6800000000001</ele>
        <time>2025-05-12T15:36:15Z</time>
      </trkpt>
      <trkpt lat="37.269719978794456" lon="-3.094959994778037">
        <ele>1065.28</ele>
        <time>2025-05-12T15:36:21Z</time>
      </trkpt>
      <trkpt lat="37.272372012957931" lon="-3.095222013071179">
        <ele>1069.1199999999999</ele>
        <time>2025-05-12T15:36:31Z</time>
      </trkpt>
      <trkpt lat="37.276240009814501" lon="-3.095576986670494">
        <ele>1069.1199999999999</ele>
        <time>2025-05-12T15:36:43Z</time>
      </trkpt>
      <trkpt lat="37.278827000409365" lon="-3.096371004357934">
        <ele>1061.4300000000001</ele>
        <time>2025-05-12T15:36:52Z</time>
      </trkpt>
      <trkpt lat="37.280967989936471" lon="-3.097663996741176">
        <ele>1048.9400000000001</ele>
        <time>2025-05-12T15:37:00Z</time>
      </trkpt>
      <trkpt lat="37.28264101780951" lon="-3.099216995760799">
        <ele>1037.4000000000001</ele>
        <time>2025-05-12T15:37:07Z</time>
      </trkpt>
      <trkpt lat="37.284267023205757" lon="-3.101378018036485">
        <ele>1026.3399999999999</ele>
        <time>2025-05-12T15:37:15Z</time>
      </trkpt>
      <trkpt lat="37.285922029986978" lon="-3.104476975277066">
        <ele>1013.37</ele>
        <time>2025-05-12T15:37:25Z</time>
      </trkpt>
      <trkpt lat="37.287777028977871" lon="-3.108297027647495">
        <ele>996.05999999999995</ele>
        <time>2025-05-12T15:37:37Z</time>
      </trkpt>
      <trkpt lat="37.289156019687653" lon="-3.110210029408336">
        <ele>985.49000000000001</ele>
        <time>2025-05-12T15:37:44Z</time>
      </trkpt>
      <trkpt lat="37.290420010685921" lon="-3.111148970201612">
        <ele>978.27999999999997</ele>
        <time>2025-05-12T15:37:49Z</time>
      </trkpt>
      <trkpt lat="37.290971959009767" lon="-3.111379975453019">
        <ele>975.38999999999999</ele>
        <time>2025-05-12T15:37:51Z</time>
      </trkpt>
      <trkpt lat="37.292980011552572" lon="-3.111646017059684">
        <ele>966.25999999999999</ele>
        <time>2025-05-12T15:37:58Z</time>
      </trkpt>
      <trkpt lat="37.295241029933095" lon="-3.111029025167227">
        <ele>963.86000000000001</ele>
        <time>2025-05-12T15:38:06Z</time>
      </trkpt>
      <trkpt lat="37.298290031030774" lon="-3.109793029725552">
        <ele>980.20000000000005</ele>
        <time>2025-05-12T15:38:17Z</time>
      </trkpt>
      <trkpt lat="37.300020977854729" lon="-3.109708037227392">
        <ele>985.97000000000003</ele>
        <time>2025-05-12T15:38:23Z</time>
      </trkpt>
      <trkpt lat="37.301714038476348" lon="-3.110230984166265">
        <ele>986.45000000000005</ele>
        <time>2025-05-12T15:38:29Z</time>
      </trkpt>
      <trkpt lat="37.305060010403395" lon="-3.111492041498423">
        <ele>983.57000000000005</ele>
        <time>2025-05-12T15:38:41Z</time>
      </trkpt>
      <trkpt lat="37.30762998573482" lon="-3.112077014520764">
        <ele>983.09000000000003</ele>
        <time>2025-05-12T15:38:50Z</time>
      </trkpt>
      <trkpt lat="37.310817958787084" lon="-3.112185979261994">
        <ele>993.17999999999995</ele>
        <time>2025-05-12T15:39:01Z</time>
      </trkpt>
      <trkpt lat="37.314905980601907" lon="-3.112142980098724">
        <ele>1013.85</ele>
        <time>2025-05-12T15:39:15Z</time>
      </trkpt>
      <trkpt lat="37.316911015659571" lon="-3.112632986158133">
        <ele>1022.5</ele>
        <time>2025-05-12T15:39:22Z</time>
      </trkpt>
      <trkpt lat="37.318503996357322" lon="-3.113675024360418">
        <ele>1023.46</ele>
        <time>2025-05-12T15:39:28Z</time>
      </trkpt>
      <trkpt lat="37.319549974054098" lon="-3.114915965124965">
        <ele>1019.62</ele>
        <time>2025-05-12T15:39:33Z</time>
      </trkpt>
      <trkpt lat="37.320445999503136" lon="-3.116801977157593">
        <ele>1011.4400000000001</ele>
        <time>2025-05-12T15:39:39Z</time>
      </trkpt>
      <trkpt lat="37.320865010842681" lon="-3.118755966424942">
        <ele>1003.75</ele>
        <time>2025-05-12T15:39:44Z</time>
      </trkpt>
      <trkpt lat="37.320837015286088" lon="-3.121045986190438">
        <ele>994.62</ele>
        <time>2025-05-12T15:39:50Z</time>
      </trkpt>
      <trkpt lat="37.32026101090014" lon="-3.124292967841029">
        <ele>977.79999999999995</ele>
        <time>2025-05-12T15:39:59Z</time>
      </trkpt>
      <trkpt lat="37.31950999237597" lon="-3.128549968823791">
        <ele>954.25</ele>
        <time>2025-05-12T15:40:11Z</time>
      </trkpt>
      <trkpt lat="37.319055022671819" lon="-3.13194002956152">
        <ele>934.05999999999995</ele>
        <time>2025-05-12T15:40:21Z</time>
      </trkpt>
      <trkpt lat="37.319078994914889" lon="-3.134525008499622">
        <ele>924.45000000000005</ele>
        <time>2025-05-12T15:40:29Z</time>
      </trkpt>
      <trkpt lat="37.319310000166297" lon="-3.137996038421989">
        <ele>913.38999999999999</ele>
        <time>2025-05-12T15:40:41Z</time>
      </trkpt>
      <trkpt lat="37.319375965744257" lon="-3.139055008068681">
        <ele>909.53999999999996</ele>
        <time>2025-05-12T15:40:45Z</time>
      </trkpt>
      <trkpt lat="37.319604037329555" lon="-3.13907696865499">
        <ele>908.10000000000002</ele>
        <time>2025-05-12T15:40:46Z</time>
      </trkpt>
      <trkpt lat="37.319656005129218" lon="-3.139149975031614">
        <ele>907.62</ele>
        <time>2025-05-12T15:40:47Z</time>
      </trkpt>
      <trkpt lat="37.31974896043539" lon="-3.139212001115084">
        <ele>907.62</ele>
        <time>2025-05-12T15:40:48Z</time>
      </trkpt>
      <trkpt lat="37.319850968196988" lon="-3.139279978349805">
        <ele>907.13999999999999</ele>
        <time>2025-05-12T15:40:49Z</time>
      </trkpt>
      <trkpt lat="37.319935038685799" lon="-3.139319960027933">
        <ele>906.17999999999995</ele>
        <time>2025-05-12T15:40:50Z</time>
      </trkpt>
      <trkpt lat="37.320065964013338" lon="-3.139306968078017">
        <ele>905.22000000000003</ele>
        <time>2025-05-12T15:40:51Z</time>
      </trkpt>
      <trkpt lat="37.320167971774936" lon="-3.139274027198553">
        <ele>904.74000000000001</ele>
        <time>2025-05-12T15:40:52Z</time>
      </trkpt>
      <trkpt lat="37.320271991193295" lon="-3.13920496031642">
        <ele>904.74000000000001</ele>
        <time>2025-05-12T15:40:53Z</time>
      </trkpt>
      <trkpt lat="37.320373998954892" lon="-3.139136983081698">
        <ele>904.74000000000001</ele>
        <time>2025-05-12T15:40:54Z</time>
      </trkpt>
      <trkpt lat="37.320430995896459" lon="-3.139037992805243">
        <ele>905.22000000000003</ele>
        <time>2025-05-12T15:40:55Z</time>
      </trkpt>
      <trkpt lat="37.320491010323167" lon="-3.138916958123446">
        <ele>905.70000000000005</ele>
        <time>2025-05-12T15:40:57Z</time>
      </trkpt>
      <trkpt lat="37.320553958415985" lon="-3.13866600394249">
        <ele>906.17999999999995</ele>
        <time>2025-05-12T15:40:58Z</time>
      </trkpt>
      <trkpt lat="37.320568040013313" lon="-3.138532983139157">
        <ele>906.17999999999995</ele>
        <time>2025-05-12T15:40:59Z</time>
      </trkpt>
      <trkpt lat="37.320554964244366" lon="-3.138381019234657">
        <ele>906.65999999999997</ele>
        <time>2025-05-12T15:41:00Z</time>
      </trkpt>
      <trkpt lat="37.320504002273083" lon="-3.138245986774564">
        <ele>907.13999999999999</ele>
        <time>2025-05-12T15:41:01Z</time>
      </trkpt>
      <trkpt lat="37.320449016988277" lon="-3.138102991506457">
        <ele>907.62</ele>
        <time>2025-05-12T15:41:02Z</time>
      </trkpt>
      <trkpt lat="37.320389002561569" lon="-3.137964019551873">
        <ele>908.58000000000004</ele>
        <time>2025-05-12T15:41:04Z</time>
      </trkpt>
      <trkpt lat="37.320233015343547" lon="-3.137733014300466">
        <ele>909.53999999999996</ele>
        <time>2025-05-12T15:41:06Z</time>
      </trkpt>
      <trkpt lat="37.320037968456745" lon="-3.137602005153894">
        <ele>910.02999999999997</ele>
        <time>2025-05-12T15:41:07Z</time>
      </trkpt>
      <trkpt lat="37.319934032857418" lon="-3.137544002383947">
        <ele>910.50999999999999</ele>
        <time>2025-05-12T15:41:08Z</time>
      </trkpt>
      <trkpt lat="37.319830013439059" lon="-3.137501003220677">
        <ele>910.99000000000001</ele>
        <time>2025-05-12T15:41:09Z</time>
      </trkpt>
      <trkpt lat="37.319714007899165" lon="-3.137455992400646">
        <ele>911.95000000000005</ele>
        <time>2025-05-12T15:41:11Z</time>
      </trkpt>
      <trkpt lat="37.318633999675512" lon="-3.137602005153894">
        <ele>912.42999999999995</ele>
        <time>2025-05-12T15:41:20Z</time>
      </trkpt>
      <trkpt lat="37.318335017189384" lon="-3.137770984321833">
        <ele>911.47000000000003</ele>
        <time>2025-05-12T15:41:22Z</time>
      </trkpt>
      <trkpt lat="37.318237032741308" lon="-3.137867962941527">
        <ele>911.47000000000003</ele>
        <time>2025-05-12T15:41:23Z</time>
      </trkpt>
      <trkpt lat="37.318172995001078" lon="-3.137996038421989">
        <ele>910.99000000000001</ele>
        <time>2025-05-12T15:41:24Z</time>
      </trkpt>
      <trkpt lat="37.318110968917608" lon="-3.138121012598276">
        <ele>910.02999999999997</ele>
        <time>2025-05-12T15:41:25Z</time>
      </trkpt>
      <trkpt lat="37.318051960319281" lon="-3.138239029794931">
        <ele>909.53999999999996</ele>
        <time>2025-05-12T15:41:26Z</time>
      </trkpt>
      <trkpt lat="37.318004015833139" lon="-3.138335002586246">
        <ele>909.05999999999995</ele>
        <time>2025-05-12T15:41:27Z</time>
      </trkpt>
      <trkpt lat="37.318009966984391" lon="-3.138512028381228">
        <ele>908.10000000000002</ele>
        <time>2025-05-12T15:41:28Z</time>
      </trkpt>
      <trkpt lat="37.318016001954675" lon="-3.13866700977087">
        <ele>906.17999999999995</ele>
        <time>2025-05-12T15:41:30Z</time>
      </trkpt>
      <trkpt lat="37.318062018603086" lon="-3.138949982821941">
        <ele>905.22000000000003</ele>
        <time>2025-05-12T15:41:31Z</time>
      </trkpt>
      <trkpt lat="37.318138964474201" lon="-3.139072023332119">
        <ele>904.25999999999999</ele>
        <time>2025-05-12T15:41:32Z</time>
      </trkpt>
      <trkpt lat="37.318227980285883" lon="-3.139170007780194">
        <ele>903.29999999999995</ele>
        <time>2025-05-12T15:41:33Z</time>
      </trkpt>
      <trkpt lat="37.318337028846145" lon="-3.139255000278354">
        <ele>902.33000000000004</ele>
        <time>2025-05-12T15:41:34Z</time>
      </trkpt>
      <trkpt lat="37.31845797970891" lon="-3.139278972521424">
        <ele>901.85000000000002</ele>
        <time>2025-05-12T15:41:35Z</time>
      </trkpt>
      <trkpt lat="37.318587983027101" lon="-3.139278972521424">
        <ele>901.37</ele>
        <time>2025-05-12T15:41:36Z</time>
      </trkpt>
      <trkpt lat="37.318706000223756" lon="-3.139247037470341">
        <ele>900.88999999999999</ele>
        <time>2025-05-12T15:41:37Z</time>
      </trkpt>
      <trkpt lat="37.318824017420411" lon="-3.13918299973011">
        <ele>900.40999999999997</ele>
        <time>2025-05-12T15:41:38Z</time>
      </trkpt>
      <trkpt lat="37.31892803683877" lon="-3.139087026938796">
        <ele>899.92999999999995</ele>
        <time>2025-05-12T15:41:39Z</time>
      </trkpt>
      <trkpt lat="37.319003976881504" lon="-3.138958029448986">
        <ele>899.92999999999995</ele>
        <time>2025-05-12T15:41:40Z</time>
      </trkpt>
      <trkpt lat="37.319049993529916" lon="-3.138807993382216">
        <ele>899.92999999999995</ele>
        <time>2025-05-12T15:41:41Z</time>
      </trkpt>
      <trkpt lat="37.319074971601367" lon="-3.138657035306096">
        <ele>899.92999999999995</ele>
        <time>2025-05-12T15:41:42Z</time>
      </trkpt>
      <trkpt lat="37.319071032106876" lon="-3.138485960662365">
        <ele>900.40999999999997</ele>
        <time>2025-05-12T15:41:43Z</time>
      </trkpt>
      <trkpt lat="37.319068014621735" lon="-3.138312036171556">
        <ele>900.40999999999997</ele>
        <time>2025-05-12T15:41:44Z</time>
      </trkpt>
      <trkpt lat="37.319013029336929" lon="-3.136656023561955">
        <ele>905.70000000000005</ele>
        <time>2025-05-12T15:41:52Z</time>
      </trkpt>
      <trkpt lat="37.318933987990022" lon="-3.134224014356732">
        <ele>915.30999999999995</ele>
        <time>2025-05-12T15:42:01Z</time>
      </trkpt>
      <trkpt lat="37.318974975496531" lon="-3.13151297159493">
        <ele>929.73000000000002</ele>
        <time>2025-05-12T15:42:11Z</time>
      </trkpt>
      <trkpt lat="37.319507980719209" lon="-3.127581020817161">
        <ele>952.79999999999995</ele>
        <time>2025-05-12T15:42:26Z</time>
      </trkpt>
      <trkpt lat="37.319661034271121" lon="-3.126401016488671">
        <ele>960.00999999999999</ele>
        <time>2025-05-12T15:42:32Z</time>
      </trkpt>
      <trkpt lat="37.319954987615347" lon="-3.124695969745517">
        <ele>969.14999999999998</ele>
        <time>2025-05-12T15:42:41Z</time>
      </trkpt>
      <trkpt lat="37.320405011996627" lon="-3.122408967465162">
        <ele>983.09000000000003</ele>
        <time>2025-05-12T15:42:51Z</time>
      </trkpt>
      <trkpt lat="37.320470977574587" lon="-3.119676969945431">
        <ele>991.74000000000001</ele>
        <time>2025-05-12T15:43:00Z</time>
      </trkpt>
      <trkpt lat="37.32073400169611" lon="-3.117450987920165">
        <ele>996.53999999999996</ele>
        <time>2025-05-12T15:43:09Z</time>
      </trkpt>
      <trkpt lat="37.321583004668355" lon="-3.115069018676877">
        <ele>1002.79</ele>
        <time>2025-05-12T15:43:18Z</time>
      </trkpt>
      <trkpt lat="37.322426978498697" lon="-3.112038038671017">
        <ele>1011.9299999999999</ele>
        <time>2025-05-12T15:43:28Z</time>
      </trkpt>
      <trkpt lat="37.322982028126717" lon="-3.109221970662475">
        <ele>1022.5</ele>
        <time>2025-05-12T15:43:37Z</time>
      </trkpt>
      <trkpt lat="37.323224013671279" lon="-3.10652400366962">
        <ele>1035</ele>
        <time>2025-05-12T15:43:45Z</time>
      </trkpt>
      <trkpt lat="37.323733968660235" lon="-3.104669004678726">
        <ele>1044.6099999999999</ele>
        <time>2025-05-12T15:43:52Z</time>
      </trkpt>
      <trkpt lat="37.324517006054521" lon="-3.103082980960608">
        <ele>1052.78</ele>
        <time>2025-05-12T15:43:59Z</time>
      </trkpt>
      <trkpt lat="37.325908988714218" lon="-3.101093033328652">
        <ele>1064.3199999999999</ele>
        <time>2025-05-12T15:44:08Z</time>
      </trkpt>
      <trkpt lat="37.328104041516781" lon="-3.098013019189239">
        <ele>1079.7</ele>
        <time>2025-05-12T15:44:22Z</time>
      </trkpt>
      <trkpt lat="37.329576993361115" lon="-3.096520034596324">
        <ele>1081.6199999999999</ele>
        <time>2025-05-12T15:44:30Z</time>
      </trkpt>
      <trkpt lat="37.331238035112619" lon="-3.095514038577676">
        <ele>1083.0599999999999</ele>
        <time>2025-05-12T15:44:38Z</time>
      </trkpt>
      <trkpt lat="37.333464017137885" lon="-3.094804007560015">
        <ele>1084.99</ele>
        <time>2025-05-12T15:44:48Z</time>
      </trkpt>
      <trkpt lat="37.33549696393311" lon="-3.094250969588757">
        <ele>1087.3900000000001</ele>
        <time>2025-05-12T15:44:58Z</time>
      </trkpt>
      <trkpt lat="37.337039988487959" lon="-3.09365501627326">
        <ele>1086.9100000000001</ele>
        <time>2025-05-12T15:45:07Z</time>
      </trkpt>
      <trkpt lat="37.337263030931354" lon="-3.093511015176773">
        <ele>1087.3900000000001</ele>
        <time>2025-05-12T15:45:09Z</time>
      </trkpt>
      <trkpt lat="37.337341988459229" lon="-3.093412024900317">
        <ele>1087.8699999999999</ele>
        <time>2025-05-12T15:45:10Z</time>
      </trkpt>
      <trkpt lat="37.337403008714318" lon="-3.093329966068268">
        <ele>1088.3499999999999</ele>
        <time>2025-05-12T15:45:11Z</time>
      </trkpt>
      <trkpt lat="37.337427986785769" lon="-3.093223012983799">
        <ele>1088.8299999999999</ele>
        <time>2025-05-12T15:45:12Z</time>
      </trkpt>
      <trkpt lat="37.337450031191111" lon="-3.093128968030214">
        <ele>1088.8299999999999</ele>
        <time>2025-05-12T15:45:13Z</time>
      </trkpt>
      <trkpt lat="37.337455982342362" lon="-3.093026038259268">
        <ele>1089.3099999999999</ele>
        <time>2025-05-12T15:45:14Z</time>
      </trkpt>
      <trkpt lat="37.337432010099292" lon="-3.092948002740741">
        <ele>1089.79</ele>
        <time>2025-05-12T15:45:15Z</time>
      </trkpt>
      <trkpt lat="37.337411977350712" lon="-3.09288295917213">
        <ele>1089.79</ele>
        <time>2025-05-12T15:45:16Z</time>
      </trkpt>
      <trkpt lat="37.337338970974088" lon="-3.092780029401183">
        <ele>1090.27</ele>
        <time>2025-05-12T15:45:17Z</time>
      </trkpt>
      <trkpt lat="37.337282979860902" lon="-3.092780029401183">
        <ele>1090.27</ele>
        <time>2025-05-12T15:45:18Z</time>
      </trkpt>
      <trkpt lat="37.337218020111322" lon="-3.092780029401183">
        <ele>1090.75</ele>
        <time>2025-05-12T15:45:19Z</time>
      </trkpt>
      <trkpt lat="37.337139984592795" lon="-3.092805007472634">
        <ele>1090.75</ele>
        <time>2025-05-12T15:45:20Z</time>
      </trkpt>
      <trkpt lat="37.337053986266255" lon="-3.092835014685988">
        <ele>1090.75</ele>
        <time>2025-05-12T15:45:21Z</time>
      </trkpt>
      <trkpt lat="37.336962958797812" lon="-3.092868039384484">
        <ele>1090.75</ele>
        <time>2025-05-12T15:45:22Z</time>
      </trkpt>
      <trkpt lat="37.336871009320021" lon="-3.092925036326051">
        <ele>1090.75</ele>
        <time>2025-05-12T15:45:23Z</time>
      </trkpt>
      <trkpt lat="37.336808983236551" lon="-3.092985972762108">
        <ele>1090.75</ele>
        <time>2025-05-12T15:45:24Z</time>
      </trkpt>
      <trkpt lat="37.336752992123365" lon="-3.093054033815861">
        <ele>1090.75</ele>
        <time>2025-05-12T15:45:25Z</time>
      </trkpt>
      <trkpt lat="37.336704963818192" lon="-3.093124022707343">
        <ele>1090.75</ele>
        <time>2025-05-12T15:45:26Z</time>
      </trkpt>
      <trkpt lat="37.336661964654922" lon="-3.093186970800161">
        <ele>1090.27</ele>
        <time>2025-05-12T15:45:27Z</time>
      </trkpt>
      <trkpt lat="37.336628017947078" lon="-3.093236004933715">
        <ele>1089.79</ele>
        <time>2025-05-12T15:45:28Z</time>
      </trkpt>
      <trkpt lat="37.336587030440569" lon="-3.093296019360423">
        <ele>1089.79</ele>
        <time>2025-05-12T15:45:30Z</time>
      </trkpt>
      <trkpt lat="37.336543025448918" lon="-3.093359973281622">
        <ele>1089.3099999999999</ele>
        <time>2025-05-12T15:45:31Z</time>
      </trkpt>
      <trkpt lat="37.336543025448918" lon="-3.093359973281622">
        <ele>1088.3499999999999</ele>
        <time>2025-05-12T15:45:35Z</time>
      </trkpt>
      <trkpt lat="37.336594993248582" lon="-3.093284033238888">
        <ele>1087.8699999999999</ele>
        <time>2025-05-12T15:45:36Z</time>
      </trkpt>
      <trkpt lat="37.336613014340401" lon="-3.093257965520024">
        <ele>1087.8699999999999</ele>
        <time>2025-05-12T15:45:38Z</time>
      </trkpt>
      <trkpt lat="37.336758021265268" lon="-3.093046993017197">
        <ele>1086.4300000000001</ele>
        <time>2025-05-12T15:45:41Z</time>
      </trkpt>
      <trkpt lat="37.336774030700326" lon="-3.092970969155431">
        <ele>1085.95</ele>
        <time>2025-05-12T15:45:43Z</time>
      </trkpt>
      <trkpt lat="37.336765984073281" lon="-3.09290399774909">
        <ele>1085.47</ele>
        <time>2025-05-12T15:45:44Z</time>
      </trkpt>
      <trkpt lat="37.33674100600183" lon="-3.092695958912373">
        <ele>1085.47</ele>
        <time>2025-05-12T15:45:46Z</time>
      </trkpt>
      <trkpt lat="37.336733965203166" lon="-3.09264499694109">
        <ele>1084.99</ele>
        <time>2025-05-12T15:45:47Z</time>
      </trkpt>
      <trkpt lat="37.336730025708675" lon="-3.092608032748103">
        <ele>1084.99</ele>
        <time>2025-05-12T15:45:48Z</time>
      </trkpt>
      <trkpt lat="37.336728014051914" lon="-3.092591017484665">
        <ele>1084.99</ele>
        <time>2025-05-12T15:45:49Z</time>
      </trkpt>
      <trkpt lat="37.336716027930379" lon="-3.092485992237926">
        <ele>1084.02</ele>
        <time>2025-05-12T15:45:59Z</time>
      </trkpt>
      <trkpt lat="37.3366769682616" lon="-3.092167982831597">
        <ele>1084.02</ele>
        <time>2025-05-12T15:46:03Z</time>
      </trkpt>
      <trkpt lat="37.336670011281967" lon="-3.09210604056716">
        <ele>1084.02</ele>
        <time>2025-05-12T15:46:04Z</time>
      </trkpt>
      <trkpt lat="37.336662970483303" lon="-3.092052983120084">
        <ele>1084.02</ele>
        <time>2025-05-12T15:46:05Z</time>
      </trkpt>
      <trkpt lat="37.336658025160432" lon="-3.092008978128433">
        <ele>1084.02</ele>
        <time>2025-05-12T15:46:06Z</time>
      </trkpt>
      <trkpt lat="37.336649978533387" lon="-3.091943012550473">
        <ele>1084.5</ele>
        <time>2025-05-12T15:46:07Z</time>
      </trkpt>
      <trkpt lat="37.336672022938728" lon="-3.091900013387203">
        <ele>1084.99</ele>
        <time>2025-05-12T15:46:08Z</time>
      </trkpt>
      <trkpt lat="37.336656013503671" lon="-3.091993974521756">
        <ele>1085.47</ele>
        <time>2025-05-12T15:46:09Z</time>
      </trkpt>
      <trkpt lat="37.336659030988812" lon="-3.092019036412239">
        <ele>1085.95</ele>
        <time>2025-05-12T15:46:10Z</time>
      </trkpt>
      <trkpt lat="37.336661964654922" lon="-3.092040996998549">
        <ele>1085.95</ele>
        <time>2025-05-12T15:46:11Z</time>
      </trkpt>
      <trkpt lat="37.336661964654922" lon="-3.092040996998549">
        <ele>1086.4300000000001</ele>
        <time>2025-05-12T15:46:27Z</time>
      </trkpt>
      <trkpt lat="37.336661964654922" lon="-3.092040996998549">
        <ele>1086.9100000000001</ele>
        <time>2025-05-12T15:47:13Z</time>
      </trkpt>
      <trkpt lat="37.336661964654922" lon="-3.092040996998549">
        <ele>1087.3900000000001</ele>
        <time>2025-05-12T15:47:59Z</time>
      </trkpt>
      <trkpt lat="37.336661964654922" lon="-3.092040996998549">
        <ele>1087.3900000000001</ele>
        <time>2025-05-12T15:48:02Z</time>
      </trkpt>
      <trkpt lat="37.336671017110348" lon="-3.092115009203553">
        <ele>1088.3499999999999</ele>
        <time>2025-05-12T15:48:20Z</time>
      </trkpt>
      <trkpt lat="37.336713010445237" lon="-3.092467971146107">
        <ele>1087.8699999999999</ele>
        <time>2025-05-12T15:48:25Z</time>
      </trkpt>
      <trkpt lat="37.33671996742487" lon="-3.092521028593183">
        <ele>1087.8699999999999</ele>
        <time>2025-05-12T15:48:26Z</time>
      </trkpt>
      <trkpt lat="37.336726002395153" lon="-3.092571990564466">
        <ele>1087.8699999999999</ele>
        <time>2025-05-12T15:48:27Z</time>
      </trkpt>
      <trkpt lat="37.336732037365437" lon="-3.0926220305264">
        <ele>1087.3900000000001</ele>
        <time>2025-05-12T15:48:28Z</time>
      </trkpt>
      <trkpt lat="37.336737988516688" lon="-3.092671986669302">
        <ele>1087.8699999999999</ele>
        <time>2025-05-12T15:48:29Z</time>
      </trkpt>
      <trkpt lat="37.33676296658814" lon="-3.0928810313344">
        <ele>1087.3900000000001</ele>
        <time>2025-05-12T15:48:33Z</time>
      </trkpt>
      <trkpt lat="37.336907973513007" lon="-3.092886982485652">
        <ele>1086.9100000000001</ele>
        <time>2025-05-12T15:48:34Z</time>
      </trkpt>
      <trkpt lat="37.336907973513007" lon="-3.092886982485652">
        <ele>1085.47</ele>
        <time>2025-05-12T15:48:36Z</time>
      </trkpt>
      <trkpt lat="37.337009981274605" lon="-3.092851024121046">
        <ele>1084.99</ele>
        <time>2025-05-12T15:48:37Z</time>
      </trkpt>
      <trkpt lat="37.337207961827517" lon="-3.092780029401183">
        <ele>1084.02</ele>
        <time>2025-05-12T15:48:40Z</time>
      </trkpt>
      <trkpt lat="37.337423041462898" lon="-3.092629993334413">
        <ele>1084.02</ele>
        <time>2025-05-12T15:48:41Z</time>
      </trkpt>
      <trkpt lat="37.337423041462898" lon="-3.092629993334413">
        <ele>1084.02</ele>
        <time>2025-05-12T15:48:43Z</time>
      </trkpt>
      <trkpt lat="37.337480960413814" lon="-3.092564027756453">
        <ele>1084.02</ele>
        <time>2025-05-12T15:48:44Z</time>
      </trkpt>
      <trkpt lat="37.337572993710637" lon="-3.092457996681333">
        <ele>1084.02</ele>
        <time>2025-05-12T15:48:45Z</time>
      </trkpt>
      <trkpt lat="37.337724035605788" lon="-3.092488003894687">
        <ele>1084.02</ele>
        <time>2025-05-12T15:48:46Z</time>
      </trkpt>
      <trkpt lat="37.337803998962045" lon="-3.092525973916054">
        <ele>1084.5</ele>
        <time>2025-05-12T15:48:47Z</time>
      </trkpt>
      <trkpt lat="37.337851021438837" lon="-3.092595962807536">
        <ele>1084.5</ele>
        <time>2025-05-12T15:48:48Z</time>
      </trkpt>
      <trkpt lat="37.337886979803443" lon="-3.092677015811205">
        <ele>1084.99</ele>
        <time>2025-05-12T15:48:49Z</time>
      </trkpt>
      <trkpt lat="37.337912041693926" lon="-3.092767037451267">
        <ele>1084.99</ele>
        <time>2025-05-12T15:48:50Z</time>
      </trkpt>
      <trkpt lat="37.337893014773726" lon="-3.092873990535736">
        <ele>1084.99</ele>
        <time>2025-05-12T15:48:51Z</time>
      </trkpt>
      <trkpt lat="37.337872982025146" lon="-3.092952026054263">
        <ele>1084.99</ele>
        <time>2025-05-12T15:48:52Z</time>
      </trkpt>
      <trkpt lat="37.337872982025146" lon="-3.092952026054263">
        <ele>1084.99</ele>
        <time>2025-05-12T15:48:53Z</time>
      </trkpt>
      <trkpt lat="37.337724035605788" lon="-3.093217983841896">
        <ele>1084.99</ele>
        <time>2025-05-12T15:48:54Z</time>
      </trkpt>
      <trkpt lat="37.337748007848859" lon="-3.093317979946733">
        <ele>1084.99</ele>
        <time>2025-05-12T15:48:55Z</time>
      </trkpt>
      <trkpt lat="37.337774997577071" lon="-3.093428034335375">
        <ele>1084.99</ele>
        <time>2025-05-12T15:48:56Z</time>
      </trkpt>
      <trkpt lat="37.337802993133664" lon="-3.093546973541379">
        <ele>1084.99</ele>
        <time>2025-05-12T15:48:57Z</time>
      </trkpt>
      <trkpt lat="37.337833000347018" lon="-3.093679994344711">
        <ele>1084.99</ele>
        <time>2025-05-12T15:48:58Z</time>
      </trkpt>
      <trkpt lat="37.337953029200435" lon="-3.094495972618461">
        <ele>1084.99</ele>
        <time>2025-05-12T15:49:03Z</time>
      </trkpt>
      <trkpt lat="37.337927967309952" lon="-3.094670986756682">
        <ele>1084.99</ele>
        <time>2025-05-12T15:49:04Z</time>
      </trkpt>
      <trkpt lat="37.337892008945346" lon="-3.094825968146324">
        <ele>1084.5</ele>
        <time>2025-05-12T15:49:05Z</time>
      </trkpt>
      <trkpt lat="37.337792012840509" lon="-3.094955971464515">
        <ele>1084.5</ele>
        <time>2025-05-12T15:49:06Z</time>
      </trkpt>
      <trkpt lat="37.337678018957376" lon="-3.095028977841139">
        <ele>1084.02</ele>
        <time>2025-05-12T15:49:07Z</time>
      </trkpt>
      <trkpt lat="37.337564025074244" lon="-3.095054961740971">
        <ele>1083.54</ele>
        <time>2025-05-12T15:49:08Z</time>
      </trkpt>
      <trkpt lat="37.337437961250544" lon="-3.095054961740971">
        <ele>1083.54</ele>
        <time>2025-05-12T15:49:09Z</time>
      </trkpt>
      <trkpt lat="37.337293960154057" lon="-3.095054961740971">
        <ele>1083.0599999999999</ele>
        <time>2025-05-12T15:49:10Z</time>
      </trkpt>
      <trkpt lat="37.337202010676265" lon="-3.094969969242811">
        <ele>1082.0999999999999</ele>
        <time>2025-05-12T15:49:12Z</time>
      </trkpt>
      <trkpt lat="37.336735976859927" lon="-3.09453796595335">
        <ele>1081.1400000000001</ele>
        <time>2025-05-12T15:49:15Z</time>
      </trkpt>
      <trkpt lat="37.336599016562104" lon="-3.094453979283571">
        <ele>1081.1400000000001</ele>
        <time>2025-05-12T15:49:16Z</time>
      </trkpt>
      <trkpt lat="37.336455015465617" lon="-3.094398993998766">
        <ele>1081.1400000000001</ele>
        <time>2025-05-12T15:49:17Z</time>
      </trkpt>
      <trkpt lat="37.336300034075975" lon="-3.094369992613792">
        <ele>1081.1400000000001</ele>
        <time>2025-05-12T15:49:18Z</time>
      </trkpt>
      <trkpt lat="37.33613801188767" lon="-3.094350965693593">
        <ele>1081.6199999999999</ele>
        <time>2025-05-12T15:49:19Z</time>
      </trkpt>
      <trkpt lat="37.335965009406209" lon="-3.094368986785412">
        <ele>1082.0999999999999</ele>
        <time>2025-05-12T15:49:20Z</time>
      </trkpt>
      <trkpt lat="37.335787983611226" lon="-3.094387007877231">
        <ele>1082.0999999999999</ele>
        <time>2025-05-12T15:49:21Z</time>
      </trkpt>
      <trkpt lat="37.335605006664991" lon="-3.09440603479743">
        <ele>1082.5799999999999</ele>
        <time>2025-05-12T15:49:22Z</time>
      </trkpt>
      <trkpt lat="37.333741961047053" lon="-3.094905009493232">
        <ele>1084.02</ele>
        <time>2025-05-12T15:49:31Z</time>
      </trkpt>
      <trkpt lat="37.331283967941999" lon="-3.095655022189021">
        <ele>1081.6199999999999</ele>
        <time>2025-05-12T15:49:41Z</time>
      </trkpt>
      <trkpt lat="37.329550003632903" lon="-3.096719020977616">
        <ele>1079.7</ele>
        <time>2025-05-12T15:49:49Z</time>
      </trkpt>
      <trkpt lat="37.32806297019124" lon="-3.098294986411929">
        <ele>1079.7</ele>
        <time>2025-05-12T15:49:57Z</time>
      </trkpt>
      <trkpt lat="37.326499996706843" lon="-3.100480986759067">
        <ele>1072.97</ele>
        <time>2025-05-12T15:50:06Z</time>
      </trkpt>
      <trkpt lat="37.324877008795738" lon="-3.102806964889169">
        <ele>1060.95</ele>
        <time>2025-05-12T15:50:16Z</time>
      </trkpt>
      <trkpt lat="37.323788031935692" lon="-3.104897998273373">
        <ele>1049.4200000000001</ele>
        <time>2025-05-12T15:50:24Z</time>
      </trkpt>
      <trkpt lat="37.323292996734381" lon="-3.107010992243886">
        <ele>1038.8399999999999</ele>
        <time>2025-05-12T15:50:31Z</time>
      </trkpt>
      <trkpt lat="37.323132986202836" lon="-3.109349962323904">
        <ele>1029.71</ele>
        <time>2025-05-12T15:50:39Z</time>
      </trkpt>
      <trkpt lat="37.322762003168464" lon="-3.111420040950179">
        <ele>1020.1</ele>
        <time>2025-05-12T15:50:46Z</time>
      </trkpt>
      <trkpt lat="37.321907971054316" lon="-3.114698035642505">
        <ele>1005.2</ele>
        <time>2025-05-12T15:50:57Z</time>
      </trkpt>
      <trkpt lat="37.321534976363182" lon="-3.117046980187297">
        <ele>996.53999999999996</ele>
        <time>2025-05-12T15:51:05Z</time>
      </trkpt>
      <trkpt lat="37.321223001927137" lon="-3.120347019284964">
        <ele>987.40999999999997</ele>
        <time>2025-05-12T15:51:16Z</time>
      </trkpt>
      <trkpt lat="37.320781024172902" lon="-3.122283993288875">
        <ele>977.32000000000005</ele>
        <time>2025-05-12T15:51:24Z</time>
      </trkpt>
      <trkpt lat="37.320010978728533" lon="-3.125417986884713">
        <ele>960.49000000000001</ele>
        <time>2025-05-12T15:51:36Z</time>
      </trkpt>
      <trkpt lat="37.319519966840744" lon="-3.128448966890574">
        <ele>945.11000000000001</ele>
        <time>2025-05-12T15:51:47Z</time>
      </trkpt>
      <trkpt lat="37.319088969379663" lon="-3.131687985733151">
        <ele>925.40999999999997</ele>
        <time>2025-05-12T15:51:59Z</time>
      </trkpt>
      <trkpt lat="37.319061979651451" lon="-3.134224014356732">
        <ele>912.42999999999995</ele>
        <time>2025-05-12T15:52:07Z</time>
      </trkpt>
      <trkpt lat="37.319245962426066" lon="-3.137003034353256">
        <ele>896.57000000000005</ele>
        <time>2025-05-12T15:52:17Z</time>
      </trkpt>
      <trkpt lat="37.319485014304519" lon="-3.138800030574203">
        <ele>888.39999999999998</ele>
        <time>2025-05-12T15:52:25Z</time>
      </trkpt>
      <trkpt lat="37.319534970447421" lon="-3.138976972550154">
        <ele>887.90999999999997</ele>
        <time>2025-05-12T15:52:26Z</time>
      </trkpt>
      <trkpt lat="37.319618035107851" lon="-3.13909599557519">
        <ele>887.90999999999997</ele>
        <time>2025-05-12T15:52:27Z</time>
      </trkpt>
      <trkpt lat="37.319721970707178" lon="-3.139193980023265">
        <ele>887.90999999999997</ele>
        <time>2025-05-12T15:52:28Z</time>
      </trkpt>
      <trkpt lat="37.319835964590311" lon="-3.139270003885031">
        <ele>887.90999999999997</ele>
        <time>2025-05-12T15:52:29Z</time>
      </trkpt>
      <trkpt lat="37.319974014535546" lon="-3.139316020533443">
        <ele>888.39999999999998</ele>
        <time>2025-05-12T15:52:30Z</time>
      </trkpt>
      <trkpt lat="37.320106029510498" lon="-3.139303028583527">
        <ele>888.88</ele>
        <time>2025-05-12T15:52:31Z</time>
      </trkpt>
      <trkpt lat="37.320237960666418" lon="-3.139227004721761">
        <ele>890.32000000000005</ele>
        <time>2025-05-12T15:52:33Z</time>
      </trkpt>
      <trkpt lat="37.320443987846375" lon="-3.13901100307703">
        <ele>891.27999999999997</ele>
        <time>2025-05-12T15:52:34Z</time>
      </trkpt>
      <trkpt lat="37.320513976737857" lon="-3.138872031122446">
        <ele>891.75999999999999</ele>
        <time>2025-05-12T15:52:35Z</time>
      </trkpt>
      <trkpt lat="37.320548007264733" lon="-3.138720989227295">
        <ele>892.24000000000001</ele>
        <time>2025-05-12T15:52:36Z</time>
      </trkpt>
      <trkpt lat="37.320565022528172" lon="-3.138566007837653">
        <ele>892.72000000000003</ele>
        <time>2025-05-12T15:52:37Z</time>
      </trkpt>
      <trkpt lat="37.320564016699791" lon="-3.138403985649347">
        <ele>894.15999999999997</ele>
        <time>2025-05-12T15:52:39Z</time>
      </trkpt>
      <trkpt lat="37.320453962311149" lon="-3.138115983456373">
        <ele>895.12</ele>
        <time>2025-05-12T15:52:40Z</time>
      </trkpt>
      <trkpt lat="37.320395959541202" lon="-3.137974999845028">
        <ele>896.09000000000003</ele>
        <time>2025-05-12T15:52:41Z</time>
      </trkpt>
      <trkpt lat="37.320309039205313" lon="-3.137844996526837">
        <ele>897.52999999999997</ele>
        <time>2025-05-12T15:52:42Z</time>
      </trkpt>
      <trkpt lat="37.320221029222012" lon="-3.13772396184504">
        <ele>898.49000000000001</ele>
        <time>2025-05-12T15:52:43Z</time>
      </trkpt>
      <trkpt lat="37.320098988711834" lon="-3.137643998488784">
        <ele>899.92999999999995</ele>
        <time>2025-05-12T15:52:44Z</time>
      </trkpt>
      <trkpt lat="37.319978037849069" lon="-3.137562023475766">
        <ele>900.88999999999999</ele>
        <time>2025-05-12T15:52:45Z</time>
      </trkpt>
      <trkpt lat="37.319848034530878" lon="-3.13750796020031">
        <ele>901.85000000000002</ele>
        <time>2025-05-12T15:52:46Z</time>
      </trkpt>
      <trkpt lat="37.319710990414023" lon="-3.137455992400646">
        <ele>902.82000000000005</ele>
        <time>2025-05-12T15:52:47Z</time>
      </trkpt>
      <trkpt lat="37.319567995145917" lon="-3.137469990178943">
        <ele>903.77999999999997</ele>
        <time>2025-05-12T15:52:48Z</time>
      </trkpt>
      <trkpt lat="37.319418964907527" lon="-3.13748499378562">
        <ele>904.74000000000001</ele>
        <time>2025-05-12T15:52:49Z</time>
      </trkpt>
      <trkpt lat="37.317852973937988" lon="-3.137519024312496">
        <ele>903.77999999999997</ele>
        <time>2025-05-12T15:52:58Z</time>
      </trkpt>
      <trkpt lat="37.316916966810822" lon="-3.137460015714169">
        <ele>901.85000000000002</ele>
        <time>2025-05-12T15:53:03Z</time>
      </trkpt>
      <trkpt lat="37.315231030806899" lon="-3.136920975521207">
        <ele>902.33000000000004</ele>
        <time>2025-05-12T15:53:13Z</time>
      </trkpt>
      <trkpt lat="37.312863981351256" lon="-3.135925959795713">
        <ele>903.29999999999995</ele>
        <time>2025-05-12T15:53:27Z</time>
      </trkpt>
      <trkpt lat="37.310837991535664" lon="-3.134662974625826">
        <ele>908.58000000000004</ele>
        <time>2025-05-12T15:53:39Z</time>
      </trkpt>
      <trkpt lat="37.309133028611541" lon="-3.133324971422553">
        <ele>913.38999999999999</ele>
        <time>2025-05-12T15:53:50Z</time>
      </trkpt>
      <trkpt lat="37.308432972058654" lon="-3.13275801949203">
        <ele>916.75</ele>
        <time>2025-05-12T15:53:57Z</time>
      </trkpt>
      <trkpt lat="37.307489002123475" lon="-3.13198302872479">
        <ele>917.72000000000003</ele>
        <time>2025-05-12T15:54:09Z</time>
      </trkpt>
      <trkpt lat="37.307368973270059" lon="-3.131911028176546">
        <ele>918.67999999999995</ele>
        <time>2025-05-12T15:54:11Z</time>
      </trkpt>
      <trkpt lat="37.307320022955537" lon="-3.131882026791573">
        <ele>919.15999999999997</ele>
        <time>2025-05-12T15:54:12Z</time>
      </trkpt>
      <trkpt lat="37.307267971336842" lon="-3.131850007921457">
        <ele>919.63999999999999</ele>
        <time>2025-05-12T15:54:13Z</time>
      </trkpt>
      <trkpt lat="37.307213991880417" lon="-3.131817989051342">
        <ele>920.12</ele>
        <time>2025-05-12T15:54:14Z</time>
      </trkpt>
      <trkpt lat="37.307108966633677" lon="-3.131836010143161">
        <ele>920.60000000000002</ele>
        <time>2025-05-12T15:54:15Z</time>
      </trkpt>
      <trkpt lat="37.30704702436924" lon="-3.131884960457683">
        <ele>921.08000000000004</ele>
        <time>2025-05-12T15:54:16Z</time>
      </trkpt>
      <trkpt lat="37.306986004114151" lon="-3.131933994591236">
        <ele>921.55999999999995</ele>
        <time>2025-05-12T15:54:17Z</time>
      </trkpt>
      <trkpt lat="37.306928001344204" lon="-3.131980011239648">
        <ele>922.03999999999996</ele>
        <time>2025-05-12T15:54:18Z</time>
      </trkpt>
      <trkpt lat="37.306874021887779" lon="-3.132022004574537">
        <ele>922.51999999999998</ele>
        <time>2025-05-12T15:54:19Z</time>
      </trkpt>
      <trkpt lat="37.306476971134543" lon="-3.132433975115418">
        <ele>926.37</ele>
        <time>2025-05-12T15:54:30Z</time>
      </trkpt>
      <trkpt lat="37.306434977799654" lon="-3.132468005642295">
        <ele>925.88999999999999</ele>
        <time>2025-05-12T15:54:40Z</time>
      </trkpt>
      <trkpt lat="37.305679013952613" lon="-3.133082985877991">
        <ele>1090.27</ele>
        <time>2025-05-12T15:59:03Z</time>
      </trkpt>
      <trkpt lat="37.306112023070455" lon="-3.132808981463313">
        <ele>1022.5</ele>
        <time>2025-05-12T15:59:36Z</time>
      </trkpt>
      <trkpt lat="37.306090984493494" lon="-3.13282398506999">
        <ele>979.24000000000001</ele>
        <time>2025-05-12T16:00:25Z</time>
      </trkpt>
      <trkpt lat="37.306150998920202" lon="-3.132752990350127">
        <ele>979.72000000000003</ele>
        <time>2025-05-12T16:00:34Z</time>
      </trkpt>
      <trkpt lat="37.306061983108521" lon="-3.132775034755468">
        <ele>980.67999999999995</ele>
        <time>2025-05-12T16:00:35Z</time>
      </trkpt>
      <trkpt lat="37.305958969518542" lon="-3.132853992283344">
        <ele>980.20000000000005</ele>
        <time>2025-05-12T16:00:39Z</time>
      </trkpt>
      <trkpt lat="37.305875988677144" lon="-3.132813004776835">
        <ele>980.20000000000005</ele>
        <time>2025-05-12T16:00:40Z</time>
      </trkpt>
      <trkpt lat="37.305830977857113" lon="-3.132850974798203">
        <ele>980.20000000000005</ele>
        <time>2025-05-12T16:00:41Z</time>
      </trkpt>
      <trkpt lat="37.305784961208701" lon="-3.132888022810221">
        <ele>980.20000000000005</ele>
        <time>2025-05-12T16:00:42Z</time>
      </trkpt>
      <trkpt lat="37.305744979530573" lon="-3.132921969518066">
        <ele>979.72000000000003</ele>
        <time>2025-05-12T16:00:43Z</time>
      </trkpt>
      <trkpt lat="37.305701980367303" lon="-3.132957005873323">
        <ele>979.72000000000003</ele>
        <time>2025-05-12T16:00:44Z</time>
      </trkpt>
      <trkpt lat="37.305660992860794" lon="-3.132991958409548">
        <ele>977.79999999999995</ele>
        <time>2025-05-12T16:00:45Z</time>
      </trkpt>
      <trkpt lat="37.305562002584338" lon="-3.133074017241597">
        <ele>974.90999999999997</ele>
        <time>2025-05-12T16:00:47Z</time>
      </trkpt>
      <trkpt lat="37.305328985676169" lon="-3.133258000016213">
        <ele>967.22000000000003</ele>
        <time>2025-05-12T16:00:52Z</time>
      </trkpt>
      <trkpt lat="37.305294033139944" lon="-3.133284989744425">
        <ele>966.25999999999999</ele>
        <time>2025-05-12T16:00:53Z</time>
      </trkpt>
      <trkpt lat="37.305149026215076" lon="-3.133399989455938">
        <ele>959.04999999999995</ele>
        <time>2025-05-12T16:00:58Z</time>
      </trkpt>
      <trkpt lat="37.305096974596381" lon="-3.133441982790828">
        <ele>958.09000000000003</ele>
        <time>2025-05-12T16:00:59Z</time>
      </trkpt>
      <trkpt lat="37.305039977654815" lon="-3.133486993610859">
        <ele>957.13</ele>
        <time>2025-05-12T16:01:00Z</time>
      </trkpt>
      <trkpt lat="37.304980969056487" lon="-3.133534016087651">
        <ele>956.16999999999996</ele>
        <time>2025-05-12T16:01:01Z</time>
      </trkpt>
      <trkpt lat="37.304921038448811" lon="-3.133581038564444">
        <ele>955.69000000000005</ele>
        <time>2025-05-12T16:01:02Z</time>
      </trkpt>
      <trkpt lat="37.304440001025796" lon="-3.133959984406829">
        <ele>951.84000000000003</ele>
        <time>2025-05-12T16:01:12Z</time>
      </trkpt>
      <trkpt lat="37.304398007690907" lon="-3.133993009105325">
        <ele>951.36000000000001</ele>
        <time>2025-05-12T16:01:24Z</time>
      </trkpt>
      <trkpt lat="37.304331958293915" lon="-3.134045982733369">
        <ele>949.44000000000005</ele>
        <time>2025-05-12T16:01:34Z</time>
      </trkpt>
      <trkpt lat="37.304204972460866" lon="-3.134146984666586">
        <ele>946.07000000000005</ele>
        <time>2025-05-12T16:01:45Z</time>
      </trkpt>
      <trkpt lat="37.304204972460866" lon="-3.134146984666586">
        <ele>946.07000000000005</ele>
        <time>2025-05-12T16:02:09Z</time>
      </trkpt>
      <trkpt lat="37.304204972460866" lon="-3.134146984666586">
        <ele>946.07000000000005</ele>
        <time>2025-05-12T16:02:28Z</time>
      </trkpt>
      <trkpt lat="37.30412601493299" lon="-3.134211022406817">
        <ele>945.11000000000001</ele>
        <time>2025-05-12T16:02:40Z</time>
      </trkpt>
      <trkpt lat="37.304096007719636" lon="-3.134234994649887">
        <ele>943.66999999999996</ele>
        <time>2025-05-12T16:02:51Z</time>
      </trkpt>
      <trkpt lat="37.304044039919972" lon="-3.134275982156396">
        <ele>942.71000000000004</ele>
        <time>2025-05-12T16:03:05Z</time>
      </trkpt>
      <trkpt lat="37.303966004401445" lon="-3.134341025725007">
        <ele>941.75</ele>
        <time>2025-05-12T16:03:15Z</time>
      </trkpt>
      <trkpt lat="37.303966004401445" lon="-3.134341025725007">
        <ele>941.26999999999998</ele>
        <time>2025-05-12T16:03:21Z</time>
      </trkpt>
      <trkpt lat="37.304012021049857" lon="-3.134301966056228">
        <ele>941.26999999999998</ele>
        <time>2025-05-12T16:03:22Z</time>
      </trkpt>
      <trkpt lat="37.304047979414463" lon="-3.134272964671254">
        <ele>941.26999999999998</ele>
        <time>2025-05-12T16:03:23Z</time>
      </trkpt>
      <trkpt lat="37.304098019376397" lon="-3.134232982993126">
        <ele>941.26999999999998</ele>
        <time>2025-05-12T16:03:24Z</time>
      </trkpt>
      <trkpt lat="37.304156022146344" lon="-3.134186966344714">
        <ele>941.26999999999998</ele>
        <time>2025-05-12T16:03:25Z</time>
      </trkpt>
      <trkpt lat="37.304434971883893" lon="-3.133964007720351">
        <ele>940.78999999999996</ele>
        <time>2025-05-12T16:03:31Z</time>
      </trkpt>
      <trkpt lat="37.304490962997079" lon="-3.13391899690032">
        <ele>940.78999999999996</ele>
        <time>2025-05-12T16:03:32Z</time>
      </trkpt>
      <trkpt lat="37.304552989080548" lon="-3.133870968595147">
        <ele>941.26999999999998</ele>
        <time>2025-05-12T16:03:33Z</time>
      </trkpt>
      <trkpt lat="37.30537299066782" lon="-3.133222963660955">
        <ele>942.71000000000004</ele>
        <time>2025-05-12T16:03:45Z</time>
      </trkpt>
      <trkpt lat="37.305571977049112" lon="-3.133065970614553">
        <ele>942.23000000000002</ele>
        <time>2025-05-12T16:03:48Z</time>
      </trkpt>
      <trkpt lat="37.305631991475821" lon="-3.13301601447165">
        <ele>942.71000000000004</ele>
        <time>2025-05-12T16:03:49Z</time>
      </trkpt>
      <trkpt lat="37.306220987811685" lon="-3.132531037554145">
        <ele>941.75</ele>
        <time>2025-05-12T16:03:58Z</time>
      </trkpt>
      <trkpt lat="37.306282008066773" lon="-3.132482003420591">
        <ele>941.75</ele>
        <time>2025-05-12T16:03:59Z</time>
      </trkpt>
      <trkpt lat="37.307051969692111" lon="-3.131882026791573">
        <ele>936.94000000000005</ele>
        <time>2025-05-12T16:04:12Z</time>
      </trkpt>
      <trkpt lat="37.307102009654045" lon="-3.131841961294413">
        <ele>935.01999999999998</ele>
        <time>2025-05-12T16:04:13Z</time>
      </trkpt>
      <trkpt lat="37.307145008817315" lon="-3.131808014586568">
        <ele>933.58000000000004</ele>
        <time>2025-05-12T16:04:14Z</time>
      </trkpt>
      <trkpt lat="37.307181973010302" lon="-3.131779013201594">
        <ele>932.13999999999999</ele>
        <time>2025-05-12T16:04:15Z</time>
      </trkpt>
      <trkpt lat="37.307213991880417" lon="-3.131753029301763">
        <ele>930.69000000000005</ele>
        <time>2025-05-12T16:04:16Z</time>
      </trkpt>
      <trkpt lat="37.307247016578913" lon="-3.131726961582899">
        <ele>930.21000000000004</ele>
        <time>2025-05-12T16:04:17Z</time>
      </trkpt>
      <trkpt lat="37.307280963286757" lon="-3.131698966026306">
        <ele>929.25</ele>
        <time>2025-05-12T16:04:18Z</time>
      </trkpt>
      <trkpt lat="37.307366039603949" lon="-3.131631994619966">
        <ele>927.80999999999995</ele>
        <time>2025-05-12T16:04:20Z</time>
      </trkpt>
      <trkpt lat="37.307417001575232" lon="-3.131591007113457">
        <ele>927.80999999999995</ele>
        <time>2025-05-12T16:04:21Z</time>
      </trkpt>
      <trkpt lat="37.308119991794229" lon="-3.131008967757225">
        <ele>926.37</ele>
        <time>2025-05-12T16:04:31Z</time>
      </trkpt>
      <trkpt lat="37.309012999758124" lon="-3.130315029993653">
        <ele>929.73000000000002</ele>
        <time>2025-05-12T16:04:41Z</time>
      </trkpt>
      <trkpt lat="37.3092180211097" lon="-3.13013699837029">
        <ele>931.16999999999996</ele>
        <time>2025-05-12T16:04:44Z</time>
      </trkpt>
      <trkpt lat="37.309291027486324" lon="-3.130076983943582">
        <ele>931.16999999999996</ele>
        <time>2025-05-12T16:04:45Z</time>
      </trkpt>
      <trkpt lat="37.31020700186491" lon="-3.129357984289527">
        <ele>930.69000000000005</ele>
        <time>2025-05-12T16:04:55Z</time>
      </trkpt>
      <trkpt lat="37.311721025034785" lon="-3.128145039081574">
        <ele>932.13999999999999</ele>
        <time>2025-05-12T16:05:10Z</time>
      </trkpt>
      <trkpt lat="37.312585031613708" lon="-3.127440037205815">
        <ele>935.01999999999998</ele>
        <time>2025-05-12T16:05:20Z</time>
      </trkpt>
      <trkpt lat="37.3134920373559" lon="-3.126705028116703">
        <ele>939.35000000000002</ele>
        <time>2025-05-12T16:05:31Z</time>
      </trkpt>
      <trkpt lat="37.314212964847684" lon="-3.126160958781838">
        <ele>944.63</ele>
        <time>2025-05-12T16:05:39Z</time>
      </trkpt>
      <trkpt lat="37.31478301808238" lon="-3.125671958550811">
        <ele>950.88</ele>
        <time>2025-05-12T16:05:46Z</time>
      </trkpt>
      <trkpt lat="37.314877985045314" lon="-3.125600041821599">
        <ele>952.32000000000005</ele>
        <time>2025-05-12T16:05:47Z</time>
      </trkpt>
      <trkpt lat="37.314972029998899" lon="-3.125528963282704">
        <ele>953.76999999999998</ele>
        <time>2025-05-12T16:05:48Z</time>
      </trkpt>
      <trkpt lat="37.315065991133451" lon="-3.125457968562841">
        <ele>955.21000000000004</ele>
        <time>2025-05-12T16:05:49Z</time>
      </trkpt>
      <trkpt lat="37.315156012773514" lon="-3.125384962186217">
        <ele>957.13</ele>
        <time>2025-05-12T16:05:50Z</time>
      </trkpt>
      <trkpt lat="37.315243016928434" lon="-3.125314973294735">
        <ele>958.57000000000005</ele>
        <time>2025-05-12T16:05:51Z</time>
      </trkpt>
      <trkpt lat="37.316305004060268" lon="-3.124448033049703">
        <ele>963.86000000000001</ele>
        <time>2025-05-12T16:06:03Z</time>
      </trkpt>
      <trkpt lat="37.317057028412819" lon="-3.123569022864103">
        <ele>967.70000000000005</ele>
        <time>2025-05-12T16:06:13Z</time>
      </trkpt>
      <trkpt lat="37.317936038598418" lon="-3.122444003820419">
        <ele>974.90999999999997</ele>
        <time>2025-05-12T16:06:24Z</time>
      </trkpt>
      <trkpt lat="37.318948991596699" lon="-3.121505985036492">
        <ele>979.72000000000003</ele>
        <time>2025-05-12T16:06:35Z</time>
      </trkpt>
      <trkpt lat="37.319050999358296" lon="-3.121365001425147">
        <ele>979.72000000000003</ele>
        <time>2025-05-12T16:06:36Z</time>
      </trkpt>
      <trkpt lat="37.319140015169978" lon="-3.121211025863886">
        <ele>979.72000000000003</ele>
        <time>2025-05-12T16:06:37Z</time>
      </trkpt>
      <trkpt lat="37.319227019324899" lon="-3.121060989797115">
        <ele>980.20000000000005</ele>
        <time>2025-05-12T16:06:38Z</time>
      </trkpt>
      <trkpt lat="37.319298014044762" lon="-3.1208770070225">
        <ele>981.15999999999997</ele>
        <time>2025-05-12T16:06:39Z</time>
      </trkpt>
      <trkpt lat="37.319372026249766" lon="-3.120687995105982">
        <ele>981.63999999999999</ele>
        <time>2025-05-12T16:06:40Z</time>
      </trkpt>
      <trkpt lat="37.320257993414998" lon="-3.118378026410937">
        <ele>989.33000000000004</ele>
        <time>2025-05-12T16:06:52Z</time>
      </trkpt>
      <trkpt lat="37.32051900587976" lon="-3.117673024535179">
        <ele>993.65999999999997</ele>
        <time>2025-05-12T16:06:56Z</time>
      </trkpt>
      <trkpt lat="37.320572985336185" lon="-3.11750597320497">
        <ele>994.62</ele>
        <time>2025-05-12T16:06:57Z</time>
      </trkpt>
      <trkpt lat="37.320624031126499" lon="-3.117344034835696">
        <ele>995.10000000000002</ele>
        <time>2025-05-12T16:06:58Z</time>
      </trkpt>
      <trkpt lat="37.320684967562556" lon="-3.117193998768926">
        <ele>995.10000000000002</ele>
        <time>2025-05-12T16:06:59Z</time>
      </trkpt>
      <trkpt lat="37.320749005302787" lon="-3.117033988237381">
        <ele>995.10000000000002</ele>
        <time>2025-05-12T16:07:00Z</time>
      </trkpt>
      <trkpt lat="37.321474961936474" lon="-3.115374958142638">
        <ele>998.95000000000005</ele>
        <time>2025-05-12T16:07:09Z</time>
      </trkpt>
      <trkpt lat="37.322007967159152" lon="-3.113617021590471">
        <ele>1005.2</ele>
        <time>2025-05-12T16:07:16Z</time>
      </trkpt>
      <trkpt lat="37.322808019816875" lon="-3.110511023551226">
        <ele>1016.73</ele>
        <time>2025-05-12T16:07:26Z</time>
      </trkpt>
      <trkpt lat="37.323042964562774" lon="-3.108400963246822">
        <ele>1026.3399999999999</ele>
        <time>2025-05-12T16:07:32Z</time>
      </trkpt>
      <trkpt lat="37.32344102114439" lon="-3.10557902790606">
        <ele>1038.3599999999999</ele>
        <time>2025-05-12T16:07:40Z</time>
      </trkpt>
      <trkpt lat="37.324214000254869" lon="-3.103621015325189">
        <ele>1048.9400000000001</ele>
        <time>2025-05-12T16:07:46Z</time>
      </trkpt>
      <trkpt lat="37.325533982366323" lon="-3.101618997752667">
        <ele>1060.47</ele>
        <time>2025-05-12T16:07:53Z</time>
      </trkpt>
      <trkpt lat="37.328548030927777" lon="-3.097508009523153">
        <ele>1079.22</ele>
        <time>2025-05-12T16:08:08Z</time>
      </trkpt>
      <trkpt lat="37.33025198802352" lon="-3.096034973859787">
        <ele>1081.1400000000001</ele>
        <time>2025-05-12T16:08:15Z</time>
      </trkpt>
      <trkpt lat="37.332197008654475" lon="-3.095163004472852">
        <ele>1084.5</ele>
        <time>2025-05-12T16:08:22Z</time>
      </trkpt>
      <trkpt lat="37.335689999163151" lon="-3.094199001789093">
        <ele>1086.4300000000001</ele>
        <time>2025-05-12T16:08:34Z</time>
      </trkpt>
      <trkpt lat="37.340347990393639" lon="-3.092993013560772">
        <ele>1080.1800000000001</ele>
        <time>2025-05-12T16:08:50Z</time>
      </trkpt>
      <trkpt lat="37.343812985345721" lon="-3.09200101532042">
        <ele>1074.4100000000001</ele>
        <time>2025-05-12T16:09:02Z</time>
      </trkpt>
      <trkpt lat="37.347461963072419" lon="-3.09043301269412">
        <ele>1071.05</ele>
        <time>2025-05-12T16:09:15Z</time>
      </trkpt>
      <trkpt lat="37.350377021357417" lon="-3.08864900842309">
        <ele>1076.8099999999999</ele>
        <time>2025-05-12T16:09:26Z</time>
      </trkpt>
      <trkpt lat="37.353354021906853" lon="-3.086251029744744">
        <ele>1085.95</ele>
        <time>2025-05-12T16:09:38Z</time>
      </trkpt>
      <trkpt lat="37.355891978368163" lon="-3.083692034706473">
        <ele>1097</ele>
        <time>2025-05-12T16:09:49Z</time>
      </trkpt>
      <trkpt lat="37.358846012502909" lon="-3.080620989203453">
        <ele>1108.54</ele>
        <time>2025-05-12T16:10:02Z</time>
      </trkpt>
      <trkpt lat="37.363184988498688" lon="-3.076111022382975">
        <ele>1120.0699999999999</ele>
        <time>2025-05-12T16:10:21Z</time>
      </trkpt>
      <trkpt lat="37.366491984575987" lon="-3.072990020737052">
        <ele>1123.4400000000001</ele>
        <time>2025-05-12T16:10:35Z</time>
      </trkpt>
      <trkpt lat="37.368397023528814" lon="-3.072016965597868">
        <ele>1125.3599999999999</ele>
        <time>2025-05-12T16:10:42Z</time>
      </trkpt>
      <trkpt lat="37.370440028607845" lon="-3.071568030864">
        <ele>1126.8</ele>
        <time>2025-05-12T16:10:49Z</time>
      </trkpt>
      <trkpt lat="37.37277103587985" lon="-3.07105497457087">
        <ele>1126.3199999999999</ele>
        <time>2025-05-12T16:10:57Z</time>
      </trkpt>
      <trkpt lat="37.374282963573933" lon="-3.069888968020678">
        <ele>1124.4000000000001</ele>
        <time>2025-05-12T16:11:03Z</time>
      </trkpt>
      <trkpt lat="37.375344028696418" lon="-3.068136982619762">
        <ele>1120.0699999999999</ele>
        <time>2025-05-12T16:11:09Z</time>
      </trkpt>
      <trkpt lat="37.375862030312419" lon="-3.066061958670616">
        <ele>1121.03</ele>
        <time>2025-05-12T16:11:15Z</time>
      </trkpt>
      <trkpt lat="37.376523027196527" lon="-3.062449023127556">
        <ele>1129.6900000000001</ele>
        <time>2025-05-12T16:11:25Z</time>
      </trkpt>
      <trkpt lat="37.377443024888635" lon="-3.06013603694737">
        <ele>1136.4200000000001</ele>
        <time>2025-05-12T16:11:32Z</time>
      </trkpt>
      <trkpt lat="37.378989988937974" lon="-3.057875018566847">
        <ele>1139.3</ele>
        <time>2025-05-12T16:11:40Z</time>
      </trkpt>
      <trkpt lat="37.381097031757236" lon="-3.055169004946947">
        <ele>1137.3800000000001</ele>
        <time>2025-05-12T16:11:50Z</time>
      </trkpt>
      <trkpt lat="37.384019969031215" lon="-3.051412990316749">
        <ele>1134.97</ele>
        <time>2025-05-12T16:12:04Z</time>
      </trkpt>
      <trkpt lat="37.386117037385702" lon="-3.048718040809035">
        <ele>1134.49</ele>
        <time>2025-05-12T16:12:14Z</time>
      </trkpt>
      <trkpt lat="37.387795010581613" lon="-3.046569004654884">
        <ele>1136.9000000000001</ele>
        <time>2025-05-12T16:12:28Z</time>
      </trkpt>
      <trkpt lat="37.390719037503004" lon="-3.042491041123867">
        <ele>1144.1099999999999</ele>
        <time>2025-05-12T16:12:37Z</time>
      </trkpt>
      <trkpt lat="37.391985962167382" lon="-3.040112005546689">
        <ele>1146.51</ele>
        <time>2025-05-12T16:12:45Z</time>
      </trkpt>
      <trkpt lat="37.393049038946629" lon="-3.037213962525129">
        <ele>1148.4300000000001</ele>
        <time>2025-05-12T16:12:54Z</time>
      </trkpt>
      <trkpt lat="37.393765021115541" lon="-3.033975027501583">
        <ele>1150.3499999999999</ele>
        <time>2025-05-12T16:13:03Z</time>
      </trkpt>
      <trkpt lat="37.394032990559936" lon="-3.030788982287049">
        <ele>1155.1600000000001</ele>
        <time>2025-05-12T16:13:12Z</time>
      </trkpt>
      <trkpt lat="37.393894018605351" lon="-3.02752397954464">
        <ele>1166.22</ele>
        <time>2025-05-12T16:13:21Z</time>
      </trkpt>
      <trkpt lat="37.393244002014399" lon="-3.023907020688057">
        <ele>1177.27</ele>
        <time>2025-05-12T16:13:31Z</time>
      </trkpt>
      <trkpt lat="37.392205987125635" lon="-3.020835975185037">
        <ele>1184</ele>
        <time>2025-05-12T16:13:40Z</time>
      </trkpt>
      <trkpt lat="37.390457019209862" lon="-3.016414018347859">
        <ele>1196.5</ele>
        <time>2025-05-12T16:13:54Z</time>
      </trkpt>
      <trkpt lat="37.389146005734801" lon="-3.012869982048869">
        <ele>1209.48</ele>
        <time>2025-05-12T16:14:07Z</time>
      </trkpt>
      <trkpt lat="37.388911982998252" lon="-3.011045996099711">
        <ele>1212.8399999999999</ele>
        <time>2025-05-12T16:14:13Z</time>
      </trkpt>
      <trkpt lat="37.389125972986221" lon="-3.008847003802657">
        <ele>1213.3199999999999</ele>
        <time>2025-05-12T16:14:20Z</time>
      </trkpt>
      <trkpt lat="37.38920602016151" lon="-3.008542992174625">
        <ele>1212.8399999999999</ele>
        <time>2025-05-12T16:14:21Z</time>
      </trkpt>
      <trkpt lat="37.389297969639301" lon="-3.008243003860116">
        <ele>1209.96</ele>
        <time>2025-05-12T16:14:28Z</time>
      </trkpt>
      <trkpt lat="37.390057034790516" lon="-3.006609035655856">
        <ele>1209</ele>
        <time>2025-05-12T16:14:34Z</time>
      </trkpt>
      <trkpt lat="37.390815010294318" lon="-3.005057964473963">
        <ele>1209</ele>
        <time>2025-05-12T16:14:41Z</time>
      </trkpt>
      <trkpt lat="37.391346003860235" lon="-3.000841028988361">
        <ele>1208.51</ele>
        <time>2025-05-12T16:14:48Z</time>
      </trkpt>
      <trkpt lat="37.391543984413147" lon="-2.998429974541068">
        <ele>1208.03</ele>
        <time>2025-05-12T16:14:56Z</time>
      </trkpt>
      <trkpt lat="37.392185032367706" lon="-2.996685029938817">
        <ele>1208.03</ele>
        <time>2025-05-12T16:15:02Z</time>
      </trkpt>
      <trkpt lat="37.393249031156301" lon="-2.995133958756924">
        <ele>1208.03</ele>
        <time>2025-05-12T16:15:08Z</time>
      </trkpt>
      <trkpt lat="37.394741009920835" lon="-2.994035007432103">
        <ele>1208.03</ele>
        <time>2025-05-12T16:15:14Z</time>
      </trkpt>
      <trkpt lat="37.39649198949337" lon="-2.993290023878217">
        <ele>1209</ele>
        <time>2025-05-12T16:15:20Z</time>
      </trkpt>
      <trkpt lat="37.396773034706712" lon="-2.993134036660194">
        <ele>1209.48</ele>
        <time>2025-05-12T16:15:21Z</time>
      </trkpt>
      <trkpt lat="37.397033963352442" lon="-2.992945024743676">
        <ele>1209.48</ele>
        <time>2025-05-12T16:15:22Z</time>
      </trkpt>
      <trkpt lat="37.397291036322713" lon="-2.992745032534003">
        <ele>1209.96</ele>
        <time>2025-05-12T16:15:23Z</time>
      </trkpt>
      <trkpt lat="37.397547019645572" lon="-2.992507992312312">
        <ele>1210.4400000000001</ele>
        <time>2025-05-12T16:15:24Z</time>
      </trkpt>
      <trkpt lat="37.397762015461922" lon="-2.992251003161073">
        <ele>1210.4400000000001</ele>
        <time>2025-05-12T16:15:25Z</time>
      </trkpt>
      <trkpt lat="37.397980028763413" lon="-2.991976998746395">
        <ele>1210.9200000000001</ele>
        <time>2025-05-12T16:15:26Z</time>
      </trkpt>
      <trkpt lat="37.398330979049206" lon="-2.991362018510699">
        <ele>1215.24</ele>
        <time>2025-05-12T16:15:34Z</time>
      </trkpt>
      <trkpt lat="37.398789972066879" lon="-2.987313978374004">
        <ele>1214.76</ele>
        <time>2025-05-12T16:15:39Z</time>
      </trkpt>
      <trkpt lat="37.398064015433192" lon="-2.984764035791159">
        <ele>1210.9200000000001</ele>
        <time>2025-05-12T16:15:46Z</time>
      </trkpt>
      <trkpt lat="37.396916029974818" lon="-2.98087902367115">
        <ele>1213.3199999999999</ele>
        <time>2025-05-12T16:15:57Z</time>
      </trkpt>
      <trkpt lat="37.396298032253981" lon="-2.978800982236862">
        <ele>1218.1300000000001</ele>
        <time>2025-05-12T16:16:04Z</time>
      </trkpt>
      <trkpt lat="37.394831031560898" lon="-2.973566986620426">
        <ele>1232.0699999999999</ele>
        <time>2025-05-12T16:16:22Z</time>
      </trkpt>
      <trkpt lat="37.394138015806675" lon="-2.9693409986794">
        <ele>1246.01</ele>
        <time>2025-05-12T16:16:36Z</time>
      </trkpt>
      <trkpt lat="37.393595036119223" lon="-2.96732297167182">
        <ele>1256.5799999999999</ele>
        <time>2025-05-12T16:16:43Z</time>
      </trkpt>
      <trkpt lat="37.39253900013864" lon="-2.965243002399802">
        <ele>1267.6400000000001</ele>
        <time>2025-05-12T16:16:51Z</time>
      </trkpt>
      <trkpt lat="37.391983028501272" lon="-2.963538039475679">
        <ele>1270.04</ele>
        <time>2025-05-12T16:16:57Z</time>
      </trkpt>
      <trkpt lat="37.391898036003113" lon="-2.961702989414334">
        <ele>1271</ele>
        <time>2025-05-12T16:17:03Z</time>
      </trkpt>
      <trkpt lat="37.392298020422459" lon="-2.959933988749981">
        <ele>1271.96</ele>
        <time>2025-05-12T16:17:09Z</time>
      </trkpt>
      <trkpt lat="37.393104024231434" lon="-2.958392975851893">
        <ele>1273.4000000000001</ele>
        <time>2025-05-12T16:17:15Z</time>
      </trkpt>
      <trkpt lat="37.394271958619356" lon="-2.957265023142099">
        <ele>1275.3299999999999</ele>
        <time>2025-05-12T16:17:21Z</time>
      </trkpt>
      <trkpt lat="37.396069038659334" lon="-2.955663995817304">
        <ele>1274.3599999999999</ele>
        <time>2025-05-12T16:17:30Z</time>
      </trkpt>
      <trkpt lat="37.397307967767119" lon="-2.953736996278167">
        <ele>1272.4400000000001</ele>
        <time>2025-05-12T16:17:38Z</time>
      </trkpt>
      <trkpt lat="37.399004967883229" lon="-2.950332015752792">
        <ele>1263.3099999999999</ele>
        <time>2025-05-12T16:17:51Z</time>
      </trkpt>
      <trkpt lat="37.399921026080847" lon="-2.947485018521547">
        <ele>1256.0999999999999</ele>
        <time>2025-05-12T16:18:01Z</time>
      </trkpt>
      <trkpt lat="37.400409020483494" lon="-2.944155978038907">
        <ele>1254.1800000000001</ele>
        <time>2025-05-12T16:18:12Z</time>
      </trkpt>
      <trkpt lat="37.400705991312861" lon="-2.939858995378017">
        <ele>1258.02</ele>
        <time>2025-05-12T16:18:26Z</time>
      </trkpt>
      <trkpt lat="37.400977984070778" lon="-2.935763010755181">
        <ele>1261.8699999999999</ele>
        <time>2025-05-12T16:18:39Z</time>
      </trkpt>
      <trkpt lat="37.401200020685792" lon="-2.932411003857851">
        <ele>1264.27</ele>
        <time>2025-05-12T16:18:48Z</time>
      </trkpt>
      <trkpt lat="37.401736965402961" lon="-2.929166033864021">
        <ele>1268.1199999999999</ele>
        <time>2025-05-12T16:18:57Z</time>
      </trkpt>
      <trkpt lat="37.402699962258339" lon="-2.927300976589322">
        <ele>1270.52</ele>
        <time>2025-05-12T16:19:03Z</time>
      </trkpt>
      <trkpt lat="37.405591970309615" lon="-2.923030983656645">
        <ele>1274.3599999999999</ele>
        <time>2025-05-12T16:19:18Z</time>
      </trkpt>
      <trkpt lat="37.40757898427546" lon="-2.920281970873475">
        <ele>1263.3099999999999</ele>
        <time>2025-05-12T16:19:28Z</time>
      </trkpt>
      <trkpt lat="37.407804960384965" lon="-2.920063035562635">
        <ele>1263.3099999999999</ele>
        <time>2025-05-12T16:19:29Z</time>
      </trkpt>
      <trkpt lat="37.409308003261685" lon="-2.919013034552336">
        <ele>1267.6400000000001</ele>
        <time>2025-05-12T16:19:35Z</time>
      </trkpt>
      <trkpt lat="37.410840969532728" lon="-2.918630987405777">
        <ele>1268.5999999999999</ele>
        <time>2025-05-12T16:19:41Z</time>
      </trkpt>
      <trkpt lat="37.41256202571094" lon="-2.918773982673883">
        <ele>1269.0799999999999</ele>
        <time>2025-05-12T16:19:48Z</time>
      </trkpt>
      <trkpt lat="37.414464969187975" lon="-2.918833997100592">
        <ele>1268.5999999999999</ele>
        <time>2025-05-12T16:19:56Z</time>
      </trkpt>
      <trkpt lat="37.416180996224284" lon="-2.918356982991099">
        <ele>1266.1900000000001</ele>
        <time>2025-05-12T16:20:03Z</time>
      </trkpt>
      <trkpt lat="37.419050959870219" lon="-2.917461963370442">
        <ele>1257.0599999999999</ele>
        <time>2025-05-12T16:20:15Z</time>
      </trkpt>
      <trkpt lat="37.420774027705193" lon="-2.916654031723738">
        <ele>1254.6600000000001</ele>
        <time>2025-05-12T16:20:24Z</time>
      </trkpt>
      <trkpt lat="37.421419015154243" lon="-2.916169976815581">
        <ele>1257.0599999999999</ele>
        <time>2025-05-12T16:20:30Z</time>
      </trkpt>
      <trkpt lat="37.421466959640384" lon="-2.916136030107737">
        <ele>1257.0599999999999</ele>
        <time>2025-05-12T16:20:31Z</time>
      </trkpt>
      <trkpt lat="37.421541977673769" lon="-2.916082972660661">
        <ele>1258.02</ele>
        <time>2025-05-12T16:20:33Z</time>
      </trkpt>
      <trkpt lat="37.421643985435367" lon="-2.916011977940798">
        <ele>1258.02</ele>
        <time>2025-05-12T16:20:34Z</time>
      </trkpt>
      <trkpt lat="37.421695031225681" lon="-2.91616402566433">
        <ele>1257.54</ele>
        <time>2025-05-12T16:20:41Z</time>
      </trkpt>
      <trkpt lat="37.42197004146874" lon="-2.916969023644924">
        <ele>1257.54</ele>
        <time>2025-05-12T16:20:42Z</time>
      </trkpt>
      <trkpt lat="37.421909021213651" lon="-2.917053010314703">
        <ele>1257.54</ele>
        <time>2025-05-12T16:20:43Z</time>
      </trkpt>
      <trkpt lat="37.421845989301801" lon="-2.917080000042915">
        <ele>1257.0599999999999</ele>
        <time>2025-05-12T16:20:44Z</time>
      </trkpt>
      <trkpt lat="37.421764014288783" lon="-2.917114030569792">
        <ele>1257.0599999999999</ele>
        <time>2025-05-12T16:20:45Z</time>
      </trkpt>
      <trkpt lat="37.421668041497469" lon="-2.917155018076301">
        <ele>1257.0599999999999</ele>
        <time>2025-05-12T16:20:46Z</time>
      </trkpt>
      <trkpt lat="37.421580031514168" lon="-2.917191982269287">
        <ele>1257.0599999999999</ele>
        <time>2025-05-12T16:20:47Z</time>
      </trkpt>
      <trkpt lat="37.421448016539216" lon="-2.917196005582809">
        <ele>1257.0599999999999</ele>
        <time>2025-05-12T16:20:48Z</time>
      </trkpt>
      <trkpt lat="37.421307032927871" lon="-2.917200028896332">
        <ele>1256.5799999999999</ele>
        <time>2025-05-12T16:20:49Z</time>
      </trkpt>
      <trkpt lat="37.421164959669113" lon="-2.917204974219203">
        <ele>1256.0999999999999</ele>
        <time>2025-05-12T16:20:50Z</time>
      </trkpt>
      <trkpt lat="37.420809986069798" lon="-2.917228024452925">
        <ele>1254.1800000000001</ele>
        <time>2025-05-12T16:20:53Z</time>
      </trkpt>
      <trkpt lat="37.420720970258117" lon="-2.917248979210854">
        <ele>1253.7</ele>
        <time>2025-05-12T16:20:54Z</time>
      </trkpt>
      <trkpt lat="37.420648969709873" lon="-2.917265994474292">
        <ele>1253.22</ele>
        <time>2025-05-12T16:20:55Z</time>
      </trkpt>
      <trkpt lat="37.420565988868475" lon="-2.917436985298991">
        <ele>1253.22</ele>
        <time>2025-05-12T16:20:56Z</time>
      </trkpt>
      <trkpt lat="37.420595996081829" lon="-2.917505968362093">
        <ele>1252.74</ele>
        <time>2025-05-12T16:20:57Z</time>
      </trkpt>
      <trkpt lat="37.420633966103196" lon="-2.917595990002155">
        <ele>1252.25</ele>
        <time>2025-05-12T16:20:58Z</time>
      </trkpt>
      <trkpt lat="37.420693980529904" lon="-2.917658016085625">
        <ele>1251.77</ele>
        <time>2025-05-12T16:20:59Z</time>
      </trkpt>
      <trkpt lat="37.420757012441754" lon="-2.917720964178443">
        <ele>1251.29</ele>
        <time>2025-05-12T16:21:00Z</time>
      </trkpt>
      <trkpt lat="37.420827001333237" lon="-2.917738985270262">
        <ele>1250.8099999999999</ele>
        <time>2025-05-12T16:21:01Z</time>
      </trkpt>
      <trkpt lat="37.420916017144918" lon="-2.917714007198811">
        <ele>1250.8099999999999</ele>
        <time>2025-05-12T16:21:02Z</time>
      </trkpt>
      <trkpt lat="37.421014001592994" lon="-2.917687017470598">
        <ele>1250.8099999999999</ele>
        <time>2025-05-12T16:21:03Z</time>
      </trkpt>
      <trkpt lat="37.421121038496494" lon="-2.917657010257244">
        <ele>1250.3299999999999</ele>
        <time>2025-05-12T16:21:04Z</time>
      </trkpt>
      <trkpt lat="37.421233020722866" lon="-2.917662039399147">
        <ele>1249.8499999999999</ele>
        <time>2025-05-12T16:21:05Z</time>
      </trkpt>
      <trkpt lat="37.421368975192308" lon="-2.917705960571766">
        <ele>1248.8900000000001</ele>
        <time>2025-05-12T16:21:06Z</time>
      </trkpt>
      <trkpt lat="37.421513982117176" lon="-2.917751977220178">
        <ele>1247.9300000000001</ele>
        <time>2025-05-12T16:21:07Z</time>
      </trkpt>
      <trkpt lat="37.421665024012327" lon="-2.917800005525351">
        <ele>1246.97</ele>
        <time>2025-05-12T16:21:08Z</time>
      </trkpt>
      <trkpt lat="37.421825034543872" lon="-2.917852979153395">
        <ele>1245.53</ele>
        <time>2025-05-12T16:21:09Z</time>
      </trkpt>
      <trkpt lat="37.423511976376176" lon="-2.918555969372392">
        <ele>1231.5899999999999</ele>
        <time>2025-05-12T16:21:18Z</time>
      </trkpt>
      <trkpt lat="37.425792021676898" lon="-2.919514020904899">
        <ele>1213.8</ele>
        <time>2025-05-12T16:21:29Z</time>
      </trkpt>
      <trkpt lat="37.428056979551911" lon="-2.920487998053432">
        <ele>1198.9000000000001</ele>
        <time>2025-05-12T16:21:40Z</time>
      </trkpt>
      <trkpt lat="37.430161004886031" lon="-2.921356027945876">
        <ele>1187.8499999999999</ele>
        <time>2025-05-12T16:21:50Z</time>
      </trkpt>
      <trkpt lat="37.432778002694249" lon="-2.922163959592581">
        <ele>1178.71</ele>
        <time>2025-05-12T16:22:02Z</time>
      </trkpt>
      <trkpt lat="37.434994010254741" lon="-2.922753961756825">
        <ele>1165.26</ele>
        <time>2025-05-12T16:22:12Z</time>
      </trkpt>
      <trkpt lat="37.437645038589835" lon="-2.923415964469314">
        <ele>1156.1199999999999</ele>
        <time>2025-05-12T16:22:23Z</time>
      </trkpt>
      <trkpt lat="37.440303023904562" lon="-2.924078973010182">
        <ele>1147.95</ele>
        <time>2025-05-12T16:22:34Z</time>
      </trkpt>
      <trkpt lat="37.443396029993892" lon="-2.924876008182764">
        <ele>1140.26</ele>
        <time>2025-05-12T16:22:47Z</time>
      </trkpt>
      <trkpt lat="37.445828961208463" lon="-2.925522001460195">
        <ele>1134.01</ele>
        <time>2025-05-12T16:22:57Z</time>
      </trkpt>
      <trkpt lat="37.448472026735544" lon="-2.926220968365669">
        <ele>1127.28</ele>
        <time>2025-05-12T16:23:08Z</time>
      </trkpt>
      <trkpt lat="37.451253980398178" lon="-2.926946002990007">
        <ele>1118.6300000000001</ele>
        <time>2025-05-12T16:23:20Z</time>
      </trkpt>
      <trkpt lat="37.454148000106215" lon="-2.927700961008668">
        <ele>1110.9400000000001</ele>
        <time>2025-05-12T16:23:32Z</time>
      </trkpt>
      <trkpt lat="37.456623008474708" lon="-2.928333962336183">
        <ele>1106.1300000000001</ele>
        <time>2025-05-12T16:23:42Z</time>
      </trkpt>
      <trkpt lat="37.459322987124324" lon="-2.929009962826967">
        <ele>1096.04</ele>
        <time>2025-05-12T16:23:53Z</time>
      </trkpt>
      <trkpt lat="37.461938979104161" lon="-2.929662996903062">
        <ele>1086.9100000000001</ele>
        <time>2025-05-12T16:24:04Z</time>
      </trkpt>
      <trkpt lat="37.464693021029234" lon="-2.930351989343762">
        <ele>1078.26</ele>
        <time>2025-05-12T16:24:16Z</time>
      </trkpt>
      <trkpt lat="37.467338014394045" lon="-2.93101298622787">
        <ele>1069.5999999999999</ele>
        <time>2025-05-12T16:24:28Z</time>
      </trkpt>
      <trkpt lat="37.468470996245742" lon="-2.931295959278941">
        <ele>1065.76</ele>
        <time>2025-05-12T16:24:36Z</time>
      </trkpt>
      <trkpt lat="37.46883200481534" lon="-2.931386986747384">
        <ele>1062.8699999999999</ele>
        <time>2025-05-12T16:24:41Z</time>
      </trkpt>
      <trkpt lat="37.468902999535203" lon="-2.931322026997805">
        <ele>1062.8699999999999</ele>
        <time>2025-05-12T16:24:42Z</time>
      </trkpt>
      <trkpt lat="37.468927977606654" lon="-2.931257989257574">
        <ele>1062.3900000000001</ele>
        <time>2025-05-12T16:24:43Z</time>
      </trkpt>
      <trkpt lat="37.468955973163247" lon="-2.931188000366092">
        <ele>1061.9100000000001</ele>
        <time>2025-05-12T16:24:44Z</time>
      </trkpt>
      <trkpt lat="37.468991009518504" lon="-2.931118011474609">
        <ele>1061.4300000000001</ele>
        <time>2025-05-12T16:24:45Z</time>
      </trkpt>
      <trkpt lat="37.469029985368252" lon="-2.931037964299321">
        <ele>1060.95</ele>
        <time>2025-05-12T16:24:46Z</time>
      </trkpt>
      <trkpt lat="37.469313964247704" lon="-2.930472018197179">
        <ele>1059.99</ele>
        <time>2025-05-12T16:24:52Z</time>
      </trkpt>
      <trkpt lat="37.469366015866399" lon="-2.93036699295044">
        <ele>1059.99</ele>
        <time>2025-05-12T16:24:53Z</time>
      </trkpt>
      <trkpt lat="37.469385964795947" lon="-2.930289041250944">
        <ele>1059.99</ele>
        <time>2025-05-12T16:24:54Z</time>
      </trkpt>
      <trkpt lat="37.469484033063054" lon="-2.92991403490305">
        <ele>1059.99</ele>
        <time>2025-05-12T16:24:59Z</time>
      </trkpt>
      <trkpt lat="37.469785027205944" lon="-2.929329983890057">
        <ele>1059.51</ele>
        <time>2025-05-12T16:25:07Z</time>
      </trkpt>
      <trkpt lat="37.470021983608603" lon="-2.928896974772215">
        <ele>1059.99</ele>
        <time>2025-05-12T16:25:14Z</time>
      </trkpt>
      <trkpt lat="37.470094989985228" lon="-2.928764037787914">
        <ele>1059.99</ele>
        <time>2025-05-12T16:25:16Z</time>
      </trkpt>
      <trkpt lat="37.470309985801578" lon="-2.928278977051377">
        <ele>1059.99</ele>
        <time>2025-05-12T16:25:22Z</time>
      </trkpt>
      <trkpt lat="37.47050897218287" lon="-2.928046965971589">
        <ele>1059.51</ele>
        <time>2025-05-12T16:25:29Z</time>
      </trkpt>
      <trkpt lat="37.470555994659662" lon="-2.928022993728519">
        <ele>1059.51</ele>
        <time>2025-05-12T16:25:30Z</time>
      </trkpt>
      <trkpt lat="37.470605028793216" lon="-2.927999021485448">
        <ele>1059.51</ele>
        <time>2025-05-12T16:25:31Z</time>
      </trkpt>
      <trkpt lat="37.470756992697716" lon="-2.927922997623682">
        <ele>1059.51</ele>
        <time>2025-05-12T16:25:34Z</time>
      </trkpt>
      <trkpt lat="37.470861012116075" lon="-2.927871029824019">
        <ele>1059.99</ele>
        <time>2025-05-12T16:25:36Z</time>
      </trkpt>
      <trkpt lat="37.47091700322926" lon="-2.927843034267426">
        <ele>1059.99</ele>
        <time>2025-05-12T16:25:37Z</time>
      </trkpt>
      <trkpt lat="37.470977017655969" lon="-2.927813027054071">
        <ele>1059.99</ele>
        <time>2025-05-12T16:25:38Z</time>
      </trkpt>
      <trkpt lat="37.471061004325747" lon="-2.927771033719182">
        <ele>1059.99</ele>
        <time>2025-05-12T16:25:39Z</time>
      </trkpt>
      <trkpt lat="37.471106015145779" lon="-2.927762987092137">
        <ele>1059.99</ele>
        <time>2025-05-12T16:25:40Z</time>
      </trkpt>
      <trkpt lat="37.471470963209867" lon="-2.927696015685797">
        <ele>1058.55</ele>
        <time>2025-05-12T16:25:46Z</time>
      </trkpt>
      <trkpt lat="37.47160498984158" lon="-2.927685035392642">
        <ele>1058.0699999999999</ele>
        <time>2025-05-12T16:25:48Z</time>
      </trkpt>
      <trkpt lat="37.471673972904682" lon="-2.927685035392642">
        <ele>1058.0699999999999</ele>
        <time>2025-05-12T16:25:49Z</time>
      </trkpt>
      <trkpt lat="37.471743961796165" lon="-2.927685035392642">
        <ele>1058.0699999999999</ele>
        <time>2025-05-12T16:25:50Z</time>
      </trkpt>
      <trkpt lat="37.471874970942736" lon="-2.927685035392642">
        <ele>1058.0699999999999</ele>
        <time>2025-05-12T16:25:52Z</time>
      </trkpt>
      <trkpt lat="37.472004974260926" lon="-2.927673971280456">
        <ele>1058.0699999999999</ele>
        <time>2025-05-12T16:25:54Z</time>
      </trkpt>
      <trkpt lat="37.472072029486299" lon="-2.927656034007669">
        <ele>1058.55</ele>
        <time>2025-05-12T16:25:55Z</time>
      </trkpt>
      <trkpt lat="37.47220303863287" lon="-2.927622003480792">
        <ele>1058.55</ele>
        <time>2025-05-12T16:25:57Z</time>
      </trkpt>
      <trkpt lat="37.472266992554069" lon="-2.927605994045734">
        <ele>1058.55</ele>
        <time>2025-05-12T16:25:58Z</time>
      </trkpt>
      <trkpt lat="37.472385009750724" lon="-2.927574981004">
        <ele>1059.03</ele>
        <time>2025-05-12T16:26:00Z</time>
      </trkpt>
      <trkpt lat="37.472438989207149" lon="-2.927560983225703">
        <ele>1059.03</ele>
        <time>2025-05-12T16:26:01Z</time>
      </trkpt>
      <trkpt lat="37.472481988370419" lon="-2.927517984062433">
        <ele>1059.03</ele>
        <time>2025-05-12T16:26:02Z</time>
      </trkpt>
      <trkpt lat="37.472514007240534" lon="-2.927469033747912">
        <ele>1059.03</ele>
        <time>2025-05-12T16:26:03Z</time>
      </trkpt>
      <trkpt lat="37.47254703193903" lon="-2.927418993785977">
        <ele>1059.03</ele>
        <time>2025-05-12T16:26:04Z</time>
      </trkpt>
      <trkpt lat="37.472580978646874" lon="-2.927368031814694">
        <ele>1059.03</ele>
        <time>2025-05-12T16:26:05Z</time>
      </trkpt>
      <trkpt lat="37.472615009173751" lon="-2.92731799185276">
        <ele>1059.03</ele>
        <time>2025-05-12T16:26:06Z</time>
      </trkpt>
      <trkpt lat="37.472628001123667" lon="-2.927298964932561">
        <ele>1059.03</ele>
        <time>2025-05-12T16:26:07Z</time>
      </trkpt>
      <trkpt lat="37.472692960873246" lon="-2.92725495994091">
        <ele>1059.03</ele>
        <time>2025-05-12T16:26:08Z</time>
      </trkpt>
      <trkpt lat="37.472739983350039" lon="-2.927224030718207">
        <ele>1059.03</ele>
        <time>2025-05-12T16:26:09Z</time>
      </trkpt>
      <trkpt lat="37.472789017483592" lon="-2.927191006019712">
        <ele>1058.55</ele>
        <time>2025-05-12T16:26:10Z</time>
      </trkpt>
      <trkpt lat="37.472836961969733" lon="-2.927158987149596">
        <ele>1058.0699999999999</ele>
        <time>2025-05-12T16:26:11Z</time>
      </trkpt>
      <trkpt lat="37.472995966672897" lon="-2.927073994651437">
        <ele>1057.5899999999999</ele>
        <time>2025-05-12T16:26:14Z</time>
      </trkpt>
      <trkpt lat="37.473333002999425" lon="-2.927006017416716">
        <ele>1055.6700000000001</ele>
        <time>2025-05-12T16:26:23Z</time>
      </trkpt>
      <trkpt lat="37.473385976627469" lon="-2.926995037123561">
        <ele>1054.22</ele>
        <time>2025-05-12T16:26:35Z</time>
      </trkpt>
      <trkpt lat="37.473420007154346" lon="-2.926987996324897">
        <ele>1053.74</ele>
        <time>2025-05-12T16:27:14Z</time>
      </trkpt>
      <trkpt lat="37.473452026024461" lon="-2.926981039345264">
        <ele>1053.26</ele>
        <time>2025-05-12T16:27:15Z</time>
      </trkpt>
      <trkpt lat="37.473951000720263" lon="-2.926889006048441">
        <ele>1050.8599999999999</ele>
        <time>2025-05-12T16:27:23Z</time>
      </trkpt>
      <trkpt lat="37.474230034276843" lon="-2.926878025755286">
        <ele>1048.9400000000001</ele>
        <time>2025-05-12T16:27:28Z</time>
      </trkpt>
      <trkpt lat="37.474514013156295" lon="-2.926860004663467">
        <ele>1047.01</ele>
        <time>2025-05-12T16:27:37Z</time>
      </trkpt>
      <trkpt lat="37.474821964278817" lon="-2.926813988015056">
        <ele>1047.01</ele>
        <time>2025-05-12T16:27:49Z</time>
      </trkpt>
      <trkpt lat="37.474865969270468" lon="-2.926850030198693">
        <ele>1046.53</ele>
        <time>2025-05-12T16:27:50Z</time>
      </trkpt>
      <trkpt lat="37.474865969270468" lon="-2.926850030198693">
        <ele>1045.0899999999999</ele>
        <time>2025-05-12T16:28:03Z</time>
      </trkpt>
      <trkpt lat="37.474724985659122" lon="-2.927097966894507">
        <ele>1056.6300000000001</ele>
        <time>2025-05-13T06:01:28Z</time>
      </trkpt>
      <trkpt lat="37.474720040336251" lon="-2.927098972722888">
        <ele>1056.6300000000001</ele>
        <time>2025-05-13T06:02:15Z</time>
      </trkpt>
      <trkpt lat="37.47471802867949" lon="-2.927096039056778">
        <ele>1056.6300000000001</ele>
        <time>2025-05-13T06:03:16Z</time>
      </trkpt>
      <trkpt lat="37.47471702285111" lon="-2.927096961066127">
        <ele>1057.1099999999999</ele>
        <time>2025-05-13T06:04:07Z</time>
      </trkpt>
      <trkpt lat="37.474763039499521" lon="-2.927119005471468">
        <ele>1057.1099999999999</ele>
        <time>2025-05-13T06:04:15Z</time>
      </trkpt>
      <trkpt lat="37.474773013964295" lon="-2.927126968279481">
        <ele>1056.6300000000001</ele>
        <time>2025-05-13T06:04:16Z</time>
      </trkpt>
      <trkpt lat="37.474773013964295" lon="-2.927126968279481">
        <ele>1056.1500000000001</ele>
        <time>2025-05-13T06:04:17Z</time>
      </trkpt>
      <trkpt lat="37.474773013964295" lon="-2.927126968279481">
        <ele>1056.1500000000001</ele>
        <time>2025-05-13T06:04:18Z</time>
      </trkpt>
      <trkpt lat="37.474766978994012" lon="-2.92712202295661">
        <ele>1055.6700000000001</ele>
        <time>2025-05-13T06:04:19Z</time>
      </trkpt>
      <trkpt lat="37.474747030064464" lon="-2.927106013521552">
        <ele>1055.1800000000001</ele>
        <time>2025-05-13T06:04:20Z</time>
      </trkpt>
      <trkpt lat="37.474725991487503" lon="-2.927088998258114">
        <ele>1055.1800000000001</ele>
        <time>2025-05-13T06:04:21Z</time>
      </trkpt>
      <trkpt lat="37.474710987880826" lon="-2.927077012136579">
        <ele>1054.7</ele>
        <time>2025-05-13T06:04:22Z</time>
      </trkpt>
      <trkpt lat="37.474695984274149" lon="-2.927065026015043">
        <ele>1054.7</ele>
        <time>2025-05-13T06:04:23Z</time>
      </trkpt>
      <trkpt lat="37.474516024813056" lon="-2.926921024918556">
        <ele>1053.74</ele>
        <time>2025-05-13T06:04:33Z</time>
      </trkpt>
      <trkpt lat="37.474516024813056" lon="-2.926921024918556">
        <ele>1053.74</ele>
        <time>2025-05-13T06:05:10Z</time>
      </trkpt>
      <trkpt lat="37.474163984879851" lon="-2.926880037412047">
        <ele>1050.8599999999999</ele>
        <time>2025-05-13T06:05:19Z</time>
      </trkpt>
      <trkpt lat="37.473405003547668" lon="-2.926991013810039">
        <ele>1052.78</ele>
        <time>2025-05-13T06:05:33Z</time>
      </trkpt>
      <trkpt lat="37.472865963354707" lon="-2.927139960229397">
        <ele>1054.22</ele>
        <time>2025-05-13T06:05:42Z</time>
      </trkpt>
      <trkpt lat="37.472663037478924" lon="-2.92727499268949">
        <ele>1055.1800000000001</ele>
        <time>2025-05-13T06:05:46Z</time>
      </trkpt>
      <trkpt lat="37.472622971981764" lon="-2.927304999902844">
        <ele>1055.1800000000001</ele>
        <time>2025-05-13T06:05:47Z</time>
      </trkpt>
      <trkpt lat="37.4725900311023" lon="-2.927355039864779">
        <ele>1055.1800000000001</ele>
        <time>2025-05-13T06:05:48Z</time>
      </trkpt>
      <trkpt lat="37.472557006403804" lon="-2.9274039901793">
        <ele>1055.1800000000001</ele>
        <time>2025-05-13T06:05:49Z</time>
      </trkpt>
      <trkpt lat="37.472524987533689" lon="-2.927453024312854">
        <ele>1055.1800000000001</ele>
        <time>2025-05-13T06:05:50Z</time>
      </trkpt>
      <trkpt lat="37.472492968663573" lon="-2.927500968798995">
        <ele>1055.1800000000001</ele>
        <time>2025-05-13T06:05:51Z</time>
      </trkpt>
      <trkpt lat="37.472456004470587" lon="-2.927556037902832">
        <ele>1055.6700000000001</ele>
        <time>2025-05-13T06:05:52Z</time>
      </trkpt>
      <trkpt lat="37.472409987822175" lon="-2.927568024024367">
        <ele>1055.6700000000001</ele>
        <time>2025-05-13T06:05:53Z</time>
      </trkpt>
      <trkpt lat="37.472357014194131" lon="-2.927582021802664">
        <ele>1055.6700000000001</ele>
        <time>2025-05-13T06:05:54Z</time>
      </trkpt>
      <trkpt lat="37.471961975097656" lon="-2.927685035392642">
        <ele>1056.1500000000001</ele>
        <time>2025-05-13T06:06:01Z</time>
      </trkpt>
      <trkpt lat="37.471903972327709" lon="-2.927685035392642">
        <ele>1056.1500000000001</ele>
        <time>2025-05-13T06:06:02Z</time>
      </trkpt>
      <trkpt lat="37.471846975386143" lon="-2.927685035392642">
        <ele>1056.1500000000001</ele>
        <time>2025-05-13T06:06:03Z</time>
      </trkpt>
      <trkpt lat="37.471788972616196" lon="-2.927685035392642">
        <ele>1056.1500000000001</ele>
        <time>2025-05-13T06:06:04Z</time>
      </trkpt>
      <trkpt lat="37.471730969846249" lon="-2.927685035392642">
        <ele>1055.6700000000001</ele>
        <time>2025-05-13T06:06:05Z</time>
      </trkpt>
      <trkpt lat="37.471670033410192" lon="-2.927685035392642">
        <ele>1055.6700000000001</ele>
        <time>2025-05-13T06:06:06Z</time>
      </trkpt>
      <trkpt lat="37.471554027870297" lon="-2.927685035392642">
        <ele>1056.1500000000001</ele>
        <time>2025-05-13T06:06:08Z</time>
      </trkpt>
      <trkpt lat="37.47149501927197" lon="-2.927691992372274">
        <ele>1056.1500000000001</ele>
        <time>2025-05-13T06:06:09Z</time>
      </trkpt>
      <trkpt lat="37.470717011019588" lon="-2.927943030372262">
        <ele>1058.55</ele>
        <time>2025-05-13T06:06:22Z</time>
      </trkpt>
      <trkpt lat="37.470438983291388" lon="-2.928082002326846">
        <ele>1059.51</ele>
        <time>2025-05-13T06:06:28Z</time>
      </trkpt>
      <trkpt lat="37.470375029370189" lon="-2.928114021196961">
        <ele>1059.51</ele>
        <time>2025-05-13T06:06:29Z</time>
      </trkpt>
      <trkpt lat="37.470362959429622" lon="-2.928144028410316">
        <ele>1059.51</ele>
        <time>2025-05-13T06:06:30Z</time>
      </trkpt>
      <trkpt lat="37.470335969701409" lon="-2.928212005645037">
        <ele>1059.51</ele>
        <time>2025-05-13T06:06:31Z</time>
      </trkpt>
      <trkpt lat="37.470305040478706" lon="-2.928291969001293">
        <ele>1059.99</ele>
        <time>2025-05-13T06:06:32Z</time>
      </trkpt>
      <trkpt lat="37.470268998295069" lon="-2.928384002298117">
        <ele>1059.99</ele>
        <time>2025-05-13T06:06:33Z</time>
      </trkpt>
      <trkpt lat="37.470231028273702" lon="-2.928479975089431">
        <ele>1059.99</ele>
        <time>2025-05-13T06:06:34Z</time>
      </trkpt>
      <trkpt lat="37.470191968604922" lon="-2.928580977022648">
        <ele>1060.47</ele>
        <time>2025-05-13T06:06:35Z</time>
      </trkpt>
      <trkpt lat="37.469936991110444" lon="-2.929050028324127">
        <ele>1060.95</ele>
        <time>2025-05-13T06:06:41Z</time>
      </trkpt>
      <trkpt lat="37.469551004469395" lon="-2.929769027978182">
        <ele>1062.8699999999999</ele>
        <time>2025-05-13T06:06:49Z</time>
      </trkpt>
      <trkpt lat="37.469514040276408" lon="-2.929837005212903">
        <ele>1062.8699999999999</ele>
        <time>2025-05-13T06:06:50Z</time>
      </trkpt>
      <trkpt lat="37.469295021146536" lon="-2.930509988218546">
        <ele>1062.3900000000001</ele>
        <time>2025-05-13T06:06:58Z</time>
      </trkpt>
      <trkpt lat="37.468970976769924" lon="-2.931156987324357">
        <ele>1062.3900000000001</ele>
        <time>2025-05-13T06:07:05Z</time>
      </trkpt>
      <trkpt lat="37.46894096955657" lon="-2.931224964559078">
        <ele>1062.3900000000001</ele>
        <time>2025-05-13T06:07:06Z</time>
      </trkpt>
      <trkpt lat="37.468901993706822" lon="-2.931323032826185">
        <ele>1062.8699999999999</ele>
        <time>2025-05-13T06:07:12Z</time>
      </trkpt>
      <trkpt lat="37.468889001756907" lon="-2.931354967877269">
        <ele>1063.3599999999999</ele>
        <time>2025-05-13T06:07:13Z</time>
      </trkpt>
      <trkpt lat="37.468872992321849" lon="-2.931396961212158">
        <ele>1063.3599999999999</ele>
        <time>2025-05-13T06:07:14Z</time>
      </trkpt>
      <trkpt lat="37.468812977895141" lon="-2.931382041424513">
        <ele>1063.3599999999999</ele>
        <time>2025-05-13T06:07:15Z</time>
      </trkpt>
      <trkpt lat="37.468084003776312" lon="-2.931199986487627">
        <ele>1063.8399999999999</ele>
        <time>2025-05-13T06:07:21Z</time>
      </trkpt>
      <trkpt lat="37.466498985886574" lon="-2.930804025381804">
        <ele>1067.6800000000001</ele>
        <time>2025-05-13T06:07:30Z</time>
      </trkpt>
      <trkpt lat="37.464310973882675" lon="-2.930257022380829">
        <ele>1073.45</ele>
        <time>2025-05-13T06:07:41Z</time>
      </trkpt>
      <trkpt lat="37.462041992694139" lon="-2.929689986631274">
        <ele>1081.6199999999999</ele>
        <time>2025-05-13T06:07:53Z</time>
      </trkpt>
      <trkpt lat="37.459834031760693" lon="-2.929137032479048">
        <ele>1086.4300000000001</ele>
        <time>2025-05-13T06:08:05Z</time>
      </trkpt>
      <trkpt lat="37.458040975034237" lon="-2.928689019754529">
        <ele>1091.23</ele>
        <time>2025-05-13T06:08:15Z</time>
      </trkpt>
      <trkpt lat="37.455682978034019" lon="-2.928100023418665">
        <ele>1098.9200000000001</ele>
        <time>2025-05-13T06:08:28Z</time>
      </trkpt>
      <trkpt lat="37.453981032595038" lon="-2.927657039836049">
        <ele>1104.6900000000001</ele>
        <time>2025-05-13T06:08:36Z</time>
      </trkpt>
      <trkpt lat="37.450403971597552" lon="-2.926724972203374">
        <ele>1117.1900000000001</ele>
        <time>2025-05-13T06:08:51Z</time>
      </trkpt>
      <trkpt lat="37.44812099263072" lon="-2.926130024716258">
        <ele>1123.9200000000001</ele>
        <time>2025-05-13T06:09:01Z</time>
      </trkpt>
      <trkpt lat="37.446025013923645" lon="-2.925573969259858">
        <ele>1131.1300000000001</ele>
        <time>2025-05-13T06:09:11Z</time>
      </trkpt>
      <trkpt lat="37.444151993840933" lon="-2.925077006220818">
        <ele>1136.4200000000001</ele>
        <time>2025-05-13T06:09:20Z</time>
      </trkpt>
      <trkpt lat="37.441396024078131" lon="-2.924350965768099">
        <ele>1146.51</ele>
        <time>2025-05-13T06:09:33Z</time>
      </trkpt>
      <trkpt lat="37.439685026183724" lon="-2.923924997448921">
        <ele>1151.3199999999999</ele>
        <time>2025-05-13T06:09:41Z</time>
      </trkpt>
      <trkpt lat="37.437275983393192" lon="-2.923324014991522">
        <ele>1159.01</ele>
        <time>2025-05-13T06:09:52Z</time>
      </trkpt>
      <trkpt lat="37.435515029355884" lon="-2.922884970903397">
        <ele>1163.3299999999999</ele>
        <time>2025-05-13T06:10:00Z</time>
      </trkpt>
      <trkpt lat="37.4322210252285" lon="-2.921972014009953">
        <ele>1176.79</ele>
        <time>2025-05-13T06:10:15Z</time>
      </trkpt>
      <trkpt lat="37.429618025198579" lon="-2.921160981059074">
        <ele>1187.8499999999999</ele>
        <time>2025-05-13T06:10:27Z</time>
      </trkpt>
      <trkpt lat="37.427535960450768" lon="-2.92024802416563">
        <ele>1196.5</ele>
        <time>2025-05-13T06:10:37Z</time>
      </trkpt>
      <trkpt lat="37.424862971529365" lon="-2.919124010950327">
        <ele>1213.3199999999999</ele>
        <time>2025-05-13T06:10:50Z</time>
      </trkpt>
      <trkpt lat="37.423064969480038" lon="-2.918367963284254">
        <ele>1225.3399999999999</ele>
        <time>2025-05-13T06:10:59Z</time>
      </trkpt>
      <trkpt lat="37.421682039275765" lon="-2.917806040495634">
        <ele>1236.8699999999999</ele>
        <time>2025-05-13T06:11:07Z</time>
      </trkpt>
      <trkpt lat="37.421253975480795" lon="-2.917668996378779">
        <ele>1240.24</ele>
        <time>2025-05-13T06:11:10Z</time>
      </trkpt>
      <trkpt lat="37.421121038496494" lon="-2.917657010257244">
        <ele>1241.2</ele>
        <time>2025-05-13T06:11:11Z</time>
      </trkpt>
      <trkpt lat="37.4210050329566" lon="-2.917689029127359">
        <ele>1242.6400000000001</ele>
        <time>2025-05-13T06:11:12Z</time>
      </trkpt>
      <trkpt lat="37.420816021040082" lon="-2.917742002755404">
        <ele>1245.04</ele>
        <time>2025-05-13T06:11:14Z</time>
      </trkpt>
      <trkpt lat="37.420775033533573" lon="-2.917738985270262">
        <ele>1246.01</ele>
        <time>2025-05-13T06:11:15Z</time>
      </trkpt>
      <trkpt lat="37.420731028541923" lon="-2.917694980278611">
        <ele>1246.97</ele>
        <time>2025-05-13T06:11:16Z</time>
      </trkpt>
      <trkpt lat="37.420687023550272" lon="-2.917651981115341">
        <ele>1247.9300000000001</ele>
        <time>2025-05-13T06:11:17Z</time>
      </trkpt>
      <trkpt lat="37.420635977759957" lon="-2.917600013315678">
        <ele>1248.4100000000001</ele>
        <time>2025-05-13T06:11:18Z</time>
      </trkpt>
      <trkpt lat="37.42062097415328" lon="-2.917564976960421">
        <ele>1249.3699999999999</ele>
        <time>2025-05-13T06:11:19Z</time>
      </trkpt>
      <trkpt lat="37.42059700191021" lon="-2.917509991675615">
        <ele>1250.3299999999999</ele>
        <time>2025-05-13T06:11:20Z</time>
      </trkpt>
      <trkpt lat="37.420578980818391" lon="-2.917466992512345">
        <ele>1250.8099999999999</ele>
        <time>2025-05-13T06:11:21Z</time>
      </trkpt>
      <trkpt lat="37.420561965554953" lon="-2.917429022490978">
        <ele>1251.77</ele>
        <time>2025-05-13T06:11:22Z</time>
      </trkpt>
      <trkpt lat="37.420547967776656" lon="-2.917395997792482">
        <ele>1252.25</ele>
        <time>2025-05-13T06:11:23Z</time>
      </trkpt>
      <trkpt lat="37.420543022453785" lon="-2.917290972545743">
        <ele>1253.22</ele>
        <time>2025-05-13T06:11:24Z</time>
      </trkpt>
      <trkpt lat="37.420589039102197" lon="-2.917279992252588">
        <ele>1253.7</ele>
        <time>2025-05-13T06:11:25Z</time>
      </trkpt>
      <trkpt lat="37.42066397331655" lon="-2.91726297698915">
        <ele>1253.7</ele>
        <time>2025-05-13T06:11:26Z</time>
      </trkpt>
      <trkpt lat="37.420760029926896" lon="-2.91724001057446">
        <ele>1253.7</ele>
        <time>2025-05-13T06:11:27Z</time>
      </trkpt>
      <trkpt lat="37.420872012153268" lon="-2.917213020846248">
        <ele>1254.1800000000001</ele>
        <time>2025-05-13T06:11:28Z</time>
      </trkpt>
      <trkpt lat="37.420981982722878" lon="-2.917210003361106">
        <ele>1254.1800000000001</ele>
        <time>2025-05-13T06:11:29Z</time>
      </trkpt>
      <trkpt lat="37.421095976606011" lon="-2.917206985875964">
        <ele>1255.1400000000001</ele>
        <time>2025-05-13T06:11:30Z</time>
      </trkpt>
      <trkpt lat="37.421455979347229" lon="-2.917196005582809">
        <ele>1256.5799999999999</ele>
        <time>2025-05-13T06:11:33Z</time>
      </trkpt>
      <trkpt lat="37.42156402207911" lon="-2.917192988097668">
        <ele>1257.54</ele>
        <time>2025-05-13T06:11:34Z</time>
      </trkpt>
      <trkpt lat="37.421654965728521" lon="-2.917159963399172">
        <ele>1258.02</ele>
        <time>2025-05-13T06:11:35Z</time>
      </trkpt>
      <trkpt lat="37.421746999025345" lon="-2.917121993377805">
        <ele>1258.98</ele>
        <time>2025-05-13T06:11:36Z</time>
      </trkpt>
      <trkpt lat="37.421831991523504" lon="-2.917086035013199">
        <ele>1258.98</ele>
        <time>2025-05-13T06:11:37Z</time>
      </trkpt>
      <trkpt lat="37.421900974586606" lon="-2.917057033628225">
        <ele>1259.46</ele>
        <time>2025-05-13T06:11:38Z</time>
      </trkpt>
      <trkpt lat="37.421954032033682" lon="-2.916920995339751">
        <ele>1259.9400000000001</ele>
        <time>2025-05-13T06:11:39Z</time>
      </trkpt>
      <trkpt lat="37.421926036477089" lon="-2.916834997013211">
        <ele>1259.9400000000001</ele>
        <time>2025-05-13T06:11:40Z</time>
      </trkpt>
      <trkpt lat="37.421894017606974" lon="-2.916739024221897">
        <ele>1259.9400000000001</ele>
        <time>2025-05-13T06:11:41Z</time>
      </trkpt>
      <trkpt lat="37.421859987080097" lon="-2.916639028117061">
        <ele>1259.9400000000001</ele>
        <time>2025-05-13T06:11:42Z</time>
      </trkpt>
      <trkpt lat="37.421695031225681" lon="-2.91616503149271">
        <ele>1259.46</ele>
        <time>2025-05-13T06:11:47Z</time>
      </trkpt>
      <trkpt lat="37.42167198099196" lon="-2.916094036772847">
        <ele>1259.46</ele>
        <time>2025-05-13T06:11:48Z</time>
      </trkpt>
      <trkpt lat="37.421669969335198" lon="-2.915999991819263">
        <ele>1258.98</ele>
        <time>2025-05-13T06:11:49Z</time>
      </trkpt>
      <trkpt lat="37.421728977933526" lon="-2.91597199626267">
        <ele>1258.98</ele>
        <time>2025-05-13T06:11:50Z</time>
      </trkpt>
      <trkpt lat="37.421807013452053" lon="-2.915935032069683">
        <ele>1258.98</ele>
        <time>2025-05-13T06:11:51Z</time>
      </trkpt>
      <trkpt lat="37.421903992071748" lon="-2.915889015421271">
        <ele>1258.98</ele>
        <time>2025-05-13T06:11:52Z</time>
      </trkpt>
      <trkpt lat="37.42281099781394" lon="-2.915459023788571">
        <ele>1253.22</ele>
        <time>2025-05-13T06:11:58Z</time>
      </trkpt>
      <trkpt lat="37.424418982118368" lon="-2.914449004456401">
        <ele>1240.24</ele>
        <time>2025-05-13T06:12:06Z</time>
      </trkpt>
      <trkpt lat="37.426428040489554" lon="-2.91298602707684">
        <ele>1231.5899999999999</ele>
        <time>2025-05-13T06:12:15Z</time>
      </trkpt>
      <trkpt lat="37.427543001249433" lon="-2.91139698587358">
        <ele>1225.3399999999999</ele>
        <time>2025-05-13T06:12:21Z</time>
      </trkpt>
      <trkpt lat="37.428757958114147" lon="-2.909492030739784">
        <ele>1219.0899999999999</ele>
        <time>2025-05-13T06:12:28Z</time>
      </trkpt>
      <trkpt lat="37.430130997672677" lon="-2.908439012244344">
        <ele>1215.24</ele>
        <time>2025-05-13T06:12:34Z</time>
      </trkpt>
      <trkpt lat="37.43170696310699" lon="-2.907174015417695">
        <ele>1214.28</ele>
        <time>2025-05-13T06:12:41Z</time>
      </trkpt>
      <trkpt lat="37.433169018477201" lon="-2.905133021995425">
        <ele>1213.3199999999999</ele>
        <time>2025-05-13T06:12:49Z</time>
      </trkpt>
      <trkpt lat="37.435194002464414" lon="-2.902469001710415">
        <ele>1206.1099999999999</ele>
        <time>2025-05-13T06:12:59Z</time>
      </trkpt>
      <trkpt lat="37.43819204159081" lon="-2.898854976519942">
        <ele>1197.46</ele>
        <time>2025-05-13T06:13:13Z</time>
      </trkpt>
      <trkpt lat="37.440532017499208" lon="-2.896029017865658">
        <ele>1184.96</ele>
        <time>2025-05-13T06:13:24Z</time>
      </trkpt>
      <trkpt lat="37.443308020010591" lon="-2.892710035666823">
        <ele>1167.6600000000001</ele>
        <time>2025-05-13T06:13:37Z</time>
      </trkpt>
      <trkpt lat="37.446513008326292" lon="-2.888871040195227">
        <ele>1151.3199999999999</ele>
        <time>2025-05-13T06:13:52Z</time>
      </trkpt>
      <trkpt lat="37.450551996007562" lon="-2.883994029834867">
        <ele>1146.99</ele>
        <time>2025-05-13T06:14:11Z</time>
      </trkpt>
      <trkpt lat="37.455032961443067" lon="-2.87856699898839">
        <ele>1144.1099999999999</ele>
        <time>2025-05-13T06:14:32Z</time>
      </trkpt>
      <trkpt lat="37.458861982449889" lon="-2.873912025243044">
        <ele>1131.6099999999999</ele>
        <time>2025-05-13T06:14:50Z</time>
      </trkpt>
      <trkpt lat="37.462670970708132" lon="-2.869226038455963">
        <ele>1122.48</ele>
        <time>2025-05-13T06:15:08Z</time>
      </trkpt>
      <trkpt lat="37.466260017827153" lon="-2.864801986142993">
        <ele>1115.75</ele>
        <time>2025-05-13T06:15:25Z</time>
      </trkpt>
      <trkpt lat="37.469410020858049" lon="-2.86090699955821">
        <ele>1118.1500000000001</ele>
        <time>2025-05-13T06:15:40Z</time>
      </trkpt>
      <trkpt lat="37.47106796130538" lon="-2.859345031902194">
        <ele>1121.03</ele>
        <time>2025-05-13T06:15:47Z</time>
      </trkpt>
      <trkpt lat="37.47476002201438" lon="-2.856901036575437">
        <ele>1112.8599999999999</ele>
        <time>2025-05-13T06:16:01Z</time>
      </trkpt>
      <trkpt lat="37.479466963559389" lon="-2.853791015222669">
        <ele>1109.02</ele>
        <time>2025-05-13T06:16:19Z</time>
      </trkpt>
      <trkpt lat="37.483420958742499" lon="-2.851166976615787">
        <ele>1100.3699999999999</ele>
        <time>2025-05-13T06:16:34Z</time>
      </trkpt>
      <trkpt lat="37.486282037571073" lon="-2.849265960976481">
        <ele>1089.79</ele>
        <time>2025-05-13T06:16:45Z</time>
      </trkpt>
      <trkpt lat="37.488508019596338" lon="-2.847480028867722">
        <ele>1082.0999999999999</ele>
        <time>2025-05-13T06:16:54Z</time>
      </trkpt>
      <trkpt lat="37.489052005112171" lon="-2.846638988703489">
        <ele>1079.7</ele>
        <time>2025-05-13T06:16:57Z</time>
      </trkpt>
      <trkpt lat="37.489186031743884" lon="-2.846312010660768">
        <ele>1079.22</ele>
        <time>2025-05-13T06:16:58Z</time>
      </trkpt>
      <trkpt lat="37.489319974556565" lon="-2.845987966284156">
        <ele>1078.26</ele>
        <time>2025-05-13T06:16:59Z</time>
      </trkpt>
      <trkpt lat="37.489449977874756" lon="-2.845652019605041">
        <ele>1077.78</ele>
        <time>2025-05-13T06:17:00Z</time>
      </trkpt>
      <trkpt lat="37.489530025050044" lon="-2.845305008813739">
        <ele>1076.8099999999999</ele>
        <time>2025-05-13T06:17:01Z</time>
      </trkpt>
      <trkpt lat="37.489613005891442" lon="-2.844949029386044">
        <ele>1075.8499999999999</ele>
        <time>2025-05-13T06:17:02Z</time>
      </trkpt>
      <trkpt lat="37.490479024127126" lon="-2.840614998713136">
        <ele>1067.2</ele>
        <time>2025-05-13T06:17:14Z</time>
      </trkpt>
      <trkpt lat="37.491428023204207" lon="-2.836678018793464">
        <ele>1054.22</ele>
        <time>2025-05-13T06:17:25Z</time>
      </trkpt>
      <trkpt lat="37.492289012297988" lon="-2.833124008029699">
        <ele>1037.4000000000001</ele>
        <time>2025-05-13T06:17:35Z</time>
      </trkpt>
      <trkpt lat="37.493463987484574" lon="-2.828274993225932">
        <ele>1027.79</ele>
        <time>2025-05-13T06:17:49Z</time>
      </trkpt>
      <trkpt lat="37.493995986878872" lon="-2.826083963736892">
        <ele>1025.3800000000001</ele>
        <time>2025-05-13T06:17:57Z</time>
      </trkpt>
      <trkpt lat="37.494772989302874" lon="-2.823121966794133">
        <ele>1024.9000000000001</ele>
        <time>2025-05-13T06:18:08Z</time>
      </trkpt>
      <trkpt lat="37.495783008635044" lon="-2.819914966821671">
        <ele>1022.02</ele>
        <time>2025-05-13T06:18:20Z</time>
      </trkpt>
      <trkpt lat="37.49712998047471" lon="-2.816880969330668">
        <ele>1019.13</ele>
        <time>2025-05-13T06:18:32Z</time>
      </trkpt>
      <trkpt lat="37.498237984254956" lon="-2.815061006695032">
        <ele>1015.29</ele>
        <time>2025-05-13T06:18:39Z</time>
      </trkpt>
      <trkpt lat="37.49996499158442" lon="-2.812842987477779">
        <ele>1008.5599999999999</ele>
        <time>2025-05-13T06:18:47Z</time>
      </trkpt>
      <trkpt lat="37.502162978053093" lon="-2.810747008770704">
        <ele>996.53999999999996</ele>
        <time>2025-05-13T06:18:56Z</time>
      </trkpt>
      <trkpt lat="37.505454970523715" lon="-2.80820301733911">
        <ele>973.47000000000003</ele>
        <time>2025-05-13T06:19:09Z</time>
      </trkpt>
      <trkpt lat="37.507971972227097" lon="-2.806516997516155">
        <ele>955.69000000000005</ele>
        <time>2025-05-13T06:19:18Z</time>
      </trkpt>
      <trkpt lat="37.509893020614982" lon="-2.805155022069812">
        <ele>942.23000000000002</ele>
        <time>2025-05-13T06:19:25Z</time>
      </trkpt>
      <trkpt lat="37.512074997648597" lon="-2.803214024752379">
        <ele>926.85000000000002</ele>
        <time>2025-05-13T06:19:34Z</time>
      </trkpt>
      <trkpt lat="37.513638976961374" lon="-2.801019977778196">
        <ele>911.95000000000005</ele>
        <time>2025-05-13T06:19:42Z</time>
      </trkpt>
      <trkpt lat="37.514650002121925" lon="-2.798781003803015">
        <ele>898.97000000000003</ele>
        <time>2025-05-13T06:19:49Z</time>
      </trkpt>
      <trkpt lat="37.515247967094183" lon="-2.796295015141368">
        <ele>887.42999999999995</ele>
        <time>2025-05-13T06:19:56Z</time>
      </trkpt>
      <trkpt lat="37.515405965968966" lon="-2.793322037905455">
        <ele>872.52999999999997</ele>
        <time>2025-05-13T06:20:04Z</time>
      </trkpt>
      <trkpt lat="37.514981003478169" lon="-2.790420977398753">
        <ele>858.11000000000001</ele>
        <time>2025-05-13T06:20:12Z</time>
      </trkpt>
      <trkpt lat="37.513922033831477" lon="-2.786969980224967">
        <ele>848.98000000000002</ele>
        <time>2025-05-13T06:20:22Z</time>
      </trkpt>
      <trkpt lat="37.512409016489983" lon="-2.782911965623498">
        <ele>840.33000000000004</ele>
        <time>2025-05-13T06:20:34Z</time>
      </trkpt>
      <trkpt lat="37.510946039110422" lon="-2.778840959072113">
        <ele>832.63999999999999</ele>
        <time>2025-05-13T06:20:46Z</time>
      </trkpt>
      <trkpt lat="37.509220037609339" lon="-2.774530984461308">
        <ele>823.02999999999997</ele>
        <time>2025-05-13T06:20:59Z</time>
      </trkpt>
      <trkpt lat="37.507573999464512" lon="-2.771443007513881">
        <ele>813.88999999999999</ele>
        <time>2025-05-13T06:21:09Z</time>
      </trkpt>
      <trkpt lat="37.505826037377119" lon="-2.768446980044246">
        <ele>802.84000000000003</ele>
        <time>2025-05-13T06:21:19Z</time>
      </trkpt>
      <trkpt lat="37.504852982237935" lon="-2.766160983592272">
        <ele>795.63</ele>
        <time>2025-05-13T06:21:26Z</time>
      </trkpt>
      <trkpt lat="37.504316959530115" lon="-2.763650016859174">
        <ele>789.86000000000001</ele>
        <time>2025-05-13T06:21:33Z</time>
      </trkpt>
      <trkpt lat="37.504302961751819" lon="-2.760697994381189">
        <ele>787.46000000000004</ele>
        <time>2025-05-13T06:21:41Z</time>
      </trkpt>
      <trkpt lat="37.50475600361824" lon="-2.757400972768664">
        <ele>787.94000000000005</ele>
        <time>2025-05-13T06:21:50Z</time>
      </trkpt>
      <trkpt lat="37.505535017699003" lon="-2.751914011314511">
        <ele>786.5</ele>
        <time>2025-05-13T06:22:05Z</time>
      </trkpt>
      <trkpt lat="37.505692010745406" lon="-2.747471015900374">
        <ele>788.89999999999998</ele>
        <time>2025-05-13T06:22:17Z</time>
      </trkpt>
      <trkpt lat="37.505237963050604" lon="-2.741914987564087">
        <ele>790.82000000000005</ele>
        <time>2025-05-13T06:22:32Z</time>
      </trkpt>
      <trkpt lat="37.50529102049768" lon="-2.738964976742864">
        <ele>790.34000000000003</ele>
        <time>2025-05-13T06:22:40Z</time>
      </trkpt>
      <trkpt lat="37.505783038213849" lon="-2.736443029716611">
        <ele>790.34000000000003</ele>
        <time>2025-05-13T06:22:47Z</time>
      </trkpt>
      <trkpt lat="37.506852988153696" lon="-2.733793007209897">
        <ele>788.89999999999998</ele>
        <time>2025-05-13T06:22:55Z</time>
      </trkpt>
      <trkpt lat="37.509372001513839" lon="-2.729196036234498">
        <ele>784.09000000000003</ele>
        <time>2025-05-13T06:23:10Z</time>
      </trkpt>
      <trkpt lat="37.51242402009666" lon="-2.723688958212733">
        <ele>774</ele>
        <time>2025-05-13T06:23:28Z</time>
      </trkpt>
      <trkpt lat="37.515128022059798" lon="-2.718810020014644">
        <ele>761.5</ele>
        <time>2025-05-13T06:23:44Z</time>
      </trkpt>
      <trkpt lat="37.517992034554482" lon="-2.713622041046619">
        <ele>749.97000000000003</ele>
        <time>2025-05-13T06:24:01Z</time>
      </trkpt>
      <trkpt lat="37.51981602050364" lon="-2.709854040294886">
        <ele>752.37</ele>
        <time>2025-05-13T06:24:13Z</time>
      </trkpt>
      <trkpt lat="37.520155990496278" lon="-2.707681031897664">
        <ele>757.17999999999995</ele>
        <time>2025-05-13T06:24:19Z</time>
      </trkpt>
      <trkpt lat="37.520092036575079" lon="-2.706174971535802">
        <ele>758.62</ele>
        <time>2025-05-13T06:24:24Z</time>
      </trkpt>
      <trkpt lat="37.519513014703989" lon="-2.702787006273866">
        <ele>769.66999999999996</ele>
        <time>2025-05-13T06:24:36Z</time>
      </trkpt>
      <trkpt lat="37.51951796002686" lon="-2.700449964031577">
        <ele>775.91999999999996</ele>
        <time>2025-05-13T06:24:43Z</time>
      </trkpt>
      <trkpt lat="37.520061023533344" lon="-2.698033964261413">
        <ele>777.36000000000001</ele>
        <time>2025-05-13T06:24:50Z</time>
      </trkpt>
      <trkpt lat="37.521273968741298" lon="-2.694250959903002">
        <ele>775.44000000000005</ele>
        <time>2025-05-13T06:25:01Z</time>
      </trkpt>
      <trkpt lat="37.521654004231095" lon="-2.691725995391607">
        <ele>784.57000000000005</ele>
        <time>2025-05-13T06:25:08Z</time>
      </trkpt>
      <trkpt lat="37.522265966981649" lon="-2.687722966074944">
        <ele>799.47000000000003</ele>
        <time>2025-05-13T06:25:19Z</time>
      </trkpt>
      <trkpt lat="37.523173978552222" lon="-2.685381984338164">
        <ele>802.36000000000001</ele>
        <time>2025-05-13T06:25:26Z</time>
      </trkpt>
      <trkpt lat="37.524701999500394" lon="-2.683105962350965">
        <ele>800.44000000000005</ele>
        <time>2025-05-13T06:25:34Z</time>
      </trkpt>
      <trkpt lat="37.526118960231543" lon="-2.680750982835889">
        <ele>798.50999999999999</ele>
        <time>2025-05-13T06:25:42Z</time>
      </trkpt>
      <trkpt lat="37.526642996817827" lon="-2.678735973313451">
        <ele>797.54999999999995</ele>
        <time>2025-05-13T06:25:48Z</time>
      </trkpt>
      <trkpt lat="37.526578959077597" lon="-2.676216959953308">
        <ele>799.95000000000005</ele>
        <time>2025-05-13T06:25:55Z</time>
      </trkpt>
      <trkpt lat="37.526135975494981" lon="-2.673400975763798">
        <ele>809.57000000000005</ele>
        <time>2025-05-13T06:26:03Z</time>
      </trkpt>
      <trkpt lat="37.526296991854906" lon="-2.67127800732851">
        <ele>817.25999999999999</ele>
        <time>2025-05-13T06:26:09Z</time>
      </trkpt>
      <trkpt lat="37.526900991797447" lon="-2.667398024350405">
        <ele>833.60000000000002</ele>
        <time>2025-05-13T06:26:20Z</time>
      </trkpt>
      <trkpt lat="37.526843994855881" lon="-2.664818996563554">
        <ele>844.17999999999995</ele>
        <time>2025-05-13T06:26:27Z</time>
      </trkpt>
      <trkpt lat="37.526750033721328" lon="-2.661124002188444">
        <ele>855.71000000000004</ele>
        <time>2025-05-13T06:26:37Z</time>
      </trkpt>
      <trkpt lat="37.527307011187077" lon="-2.659028023481369">
        <ele>860.51999999999998</ele>
        <time>2025-05-13T06:26:43Z</time>
      </trkpt>
      <trkpt lat="37.528317030519247" lon="-2.65720596536994">
        <ele>865.79999999999995</ele>
        <time>2025-05-13T06:26:49Z</time>
      </trkpt>
      <trkpt lat="37.530554998666048" lon="-2.653753040358424">
        <ele>876.86000000000001</ele>
        <time>2025-05-13T06:27:01Z</time>
      </trkpt>
      <trkpt lat="37.532076984643936" lon="-2.650963962078095">
        <ele>876.38</ele>
        <time>2025-05-13T06:27:10Z</time>
      </trkpt>
      <trkpt lat="37.534732958301902" lon="-2.646073959767819">
        <ele>876.38</ele>
        <time>2025-05-13T06:27:26Z</time>
      </trkpt>
      <trkpt lat="37.537225987762213" lon="-2.641479000449181">
        <ele>884.54999999999995</ele>
        <time>2025-05-13T06:27:41Z</time>
      </trkpt>
      <trkpt lat="37.539554983377457" lon="-2.637185035273433">
        <ele>891.27999999999997</ele>
        <time>2025-05-13T06:27:55Z</time>
      </trkpt>
      <trkpt lat="37.542219003662467" lon="-2.632275000214577">
        <ele>902.82000000000005</ele>
        <time>2025-05-13T06:28:11Z</time>
      </trkpt>
      <trkpt lat="37.545558018609881" lon="-2.626117989420891">
        <ele>911.47000000000003</ele>
        <time>2025-05-13T06:28:31Z</time>
      </trkpt>
      <trkpt lat="37.547073969617486" lon="-2.623362019658089">
        <ele>907.13999999999999</ele>
        <time>2025-05-13T06:28:40Z</time>
      </trkpt>
      <trkpt lat="37.549905041232705" lon="-2.618141015991569">
        <ele>900.88999999999999</ele>
        <time>2025-05-13T06:28:57Z</time>
      </trkpt>
      <trkpt lat="37.552235964685678" lon="-2.614295985549688">
        <ele>901.37</ele>
        <time>2025-05-13T06:29:10Z</time>
      </trkpt>
      <trkpt lat="37.554071014747024" lon="-2.612421959638596">
        <ele>899.45000000000005</ele>
        <time>2025-05-13T06:29:18Z</time>
      </trkpt>
      <trkpt lat="37.557057989761233" lon="-2.609414029866457">
        <ele>900.88999999999999</ele>
        <time>2025-05-13T06:29:31Z</time>
      </trkpt>
      <trkpt lat="37.558751972392201" lon="-2.606841959059238">
        <ele>908.58000000000004</ele>
        <time>2025-05-13T06:29:40Z</time>
      </trkpt>
      <trkpt lat="37.560399016365409" lon="-2.603337988257408">
        <ele>915.30999999999995</ele>
        <time>2025-05-13T06:29:51Z</time>
      </trkpt>
      <trkpt lat="37.561940029263496" lon="-2.600235007703304">
        <ele>918.20000000000005</ele>
        <time>2025-05-13T06:30:02Z</time>
      </trkpt>
      <trkpt lat="37.563552958890796" lon="-2.597824037075043">
        <ele>919.63999999999999</ele>
        <time>2025-05-13T06:30:11Z</time>
      </trkpt>
      <trkpt lat="37.565351966768503" lon="-2.595983035862446">
        <ele>919.15999999999997</ele>
        <time>2025-05-13T06:30:19Z</time>
      </trkpt>
      <trkpt lat="37.568086981773376" lon="-2.593148024752736">
        <ele>923.48000000000002</ele>
        <time>2025-05-13T06:30:31Z</time>
      </trkpt>
      <trkpt lat="37.570022027939558" lon="-2.59032198227942">
        <ele>923</ele>
        <time>2025-05-13T06:30:41Z</time>
      </trkpt>
      <trkpt lat="37.571526998654008" lon="-2.587153036147356">
        <ele>926.37</ele>
        <time>2025-05-13T06:30:51Z</time>
      </trkpt>
      <trkpt lat="37.572699040174484" lon="-2.583353016525507">
        <ele>935.01999999999998</ele>
        <time>2025-05-13T06:31:02Z</time>
      </trkpt>
      <trkpt lat="37.573299016803503" lon="-2.579730022698641">
        <ele>943.66999999999996</ele>
        <time>2025-05-13T06:31:12Z</time>
      </trkpt>
      <trkpt lat="37.573367999866605" lon="-2.575634038075805">
        <ele>949.91999999999996</ele>
        <time>2025-05-13T06:31:23Z</time>
      </trkpt>
      <trkpt lat="37.573005985468626" lon="-2.572321007028222">
        <ele>951.84000000000003</ele>
        <time>2025-05-13T06:31:32Z</time>
      </trkpt>
      <trkpt lat="37.572452025488019" lon="-2.568667000159621">
        <ele>950.39999999999998</ele>
        <time>2025-05-13T06:31:42Z</time>
      </trkpt>
      <trkpt lat="37.572579011321068" lon="-2.566070035099983">
        <ele>947.51999999999998</ele>
        <time>2025-05-13T06:31:49Z</time>
      </trkpt>
      <trkpt lat="37.57318502292037" lon="-2.563581028953195">
        <ele>942.71000000000004</ele>
        <time>2025-05-13T06:31:56Z</time>
      </trkpt>
      <trkpt lat="37.574309958145022" lon="-2.56140198558569">
        <ele>937.41999999999996</ele>
        <time>2025-05-13T06:32:03Z</time>
      </trkpt>
      <trkpt lat="37.576543986797333" lon="-2.557957023382187">
        <ele>928.76999999999998</ele>
        <time>2025-05-13T06:32:15Z</time>
      </trkpt>
      <trkpt lat="37.578237969428301" lon="-2.554490016773343">
        <ele>935.01999999999998</ele>
        <time>2025-05-13T06:32:26Z</time>
      </trkpt>
      <trkpt lat="37.579800020903349" lon="-2.551803030073643">
        <ele>945.59000000000003</ele>
        <time>2025-05-13T06:32:35Z</time>
      </trkpt>
      <trkpt lat="37.581529039889574" lon="-2.549802018329501">
        <ele>956.16999999999996</ele>
        <time>2025-05-13T06:32:43Z</time>
      </trkpt>
      <trkpt lat="37.58345402777195" lon="-2.547504035755992">
        <ele>968.17999999999995</ele>
        <time>2025-05-13T06:32:52Z</time>
      </trkpt>
      <trkpt lat="37.584775015711784" lon="-2.545054005458951">
        <ele>977.79999999999995</ele>
        <time>2025-05-13T06:33:00Z</time>
      </trkpt>
      <trkpt lat="37.585532991215587" lon="-2.542233997955918">
        <ele>985.00999999999999</ele>
        <time>2025-05-13T06:33:08Z</time>
      </trkpt>
      <trkpt lat="37.585885031148791" lon="-2.538534980267286">
        <ele>985.97000000000003</ele>
        <time>2025-05-13T06:33:18Z</time>
      </trkpt>
      <trkpt lat="37.586237993091345" lon="-2.533360999077559">
        <ele>995.10000000000002</ele>
        <time>2025-05-13T06:33:32Z</time>
      </trkpt>
      <trkpt lat="37.586708972230554" lon="-2.526335958391428">
        <ele>1004.72</ele>
        <time>2025-05-13T06:33:51Z</time>
      </trkpt>
      <trkpt lat="37.587170982733369" lon="-2.519653989002109">
        <ele>1009.04</ele>
        <time>2025-05-13T06:34:09Z</time>
      </trkpt>
      <trkpt lat="37.587703987956047" lon="-2.511869966983795">
        <ele>1013.85</ele>
        <time>2025-05-13T06:34:30Z</time>
      </trkpt>
      <trkpt lat="37.588187037035823" lon="-2.504821959882975">
        <ele>1017.21</ele>
        <time>2025-05-13T06:34:49Z</time>
      </trkpt>
      <trkpt lat="37.588478978723288" lon="-2.500760005787015">
        <ele>1020.58</ele>
        <time>2025-05-13T06:35:00Z</time>
      </trkpt>
      <trkpt lat="37.588986000046134" lon="-2.493711998686194">
        <ele>1028.27</ele>
        <time>2025-05-13T06:35:19Z</time>
      </trkpt>
      <trkpt lat="37.589457985013723" lon="-2.487046038731933">
        <ele>1033.55</ele>
        <time>2025-05-13T06:35:37Z</time>
      </trkpt>
      <trkpt lat="37.589956959709525" lon="-2.480003982782364">
        <ele>1044.6099999999999</ele>
        <time>2025-05-13T06:35:56Z</time>
      </trkpt>
      <trkpt lat="37.590320985764265" lon="-2.474826984107494">
        <ele>1056.1500000000001</ele>
        <time>2025-05-13T06:36:10Z</time>
      </trkpt>
      <trkpt lat="37.590710995718837" lon="-2.469285959377885">
        <ele>1060.47</ele>
        <time>2025-05-13T06:36:25Z</time>
      </trkpt>
      <trkpt lat="37.591055994853377" lon="-2.464082976803184">
        <ele>1062.3900000000001</ele>
        <time>2025-05-13T06:36:39Z</time>
      </trkpt>
      <trkpt lat="37.591457990929484" lon="-2.458543041720986">
        <ele>1067.6800000000001</ele>
        <time>2025-05-13T06:36:54Z</time>
      </trkpt>
      <trkpt lat="37.591844983398914" lon="-2.452991036698222">
        <ele>1078.26</ele>
        <time>2025-05-13T06:37:09Z</time>
      </trkpt>
      <trkpt lat="37.592227030545473" lon="-2.447428973391652">
        <ele>1077.29</ele>
        <time>2025-05-13T06:37:24Z</time>
      </trkpt>
      <trkpt lat="37.592608993873" lon="-2.44186095893383">
        <ele>1076.8099999999999</ele>
        <time>2025-05-13T06:37:39Z</time>
      </trkpt>
      <trkpt lat="37.592938989400864" lon="-2.437057960778475">
        <ele>1079.7</ele>
        <time>2025-05-13T06:37:52Z</time>
      </trkpt>
      <trkpt lat="37.593293963000178" lon="-2.431883979588747">
        <ele>1086.9100000000001</ele>
        <time>2025-05-13T06:38:06Z</time>
      </trkpt>
      <trkpt lat="37.593610966578126" lon="-2.427431009709835">
        <ele>1093.1600000000001</ele>
        <time>2025-05-13T06:38:18Z</time>
      </trkpt>
      <trkpt lat="37.59389603510499" lon="-2.423357991501689">
        <ele>1095.5599999999999</ele>
        <time>2025-05-13T06:38:29Z</time>
      </trkpt>
      <trkpt lat="37.594171967357397" lon="-2.419285979121923">
        <ele>1098.9200000000001</ele>
        <time>2025-05-13T06:38:40Z</time>
      </trkpt>
      <trkpt lat="37.594494000077248" lon="-2.414461020380259">
        <ele>1105.6500000000001</ele>
        <time>2025-05-13T06:38:53Z</time>
      </trkpt>
      <trkpt lat="37.594845034182072" lon="-2.409638995304704">
        <ele>1111.4200000000001</ele>
        <time>2025-05-13T06:39:06Z</time>
      </trkpt>
      <trkpt lat="37.595278965309262" lon="-2.407113024964929">
        <ele>1116.23</ele>
        <time>2025-05-13T06:39:13Z</time>
      </trkpt>
      <trkpt lat="37.596310023218393" lon="-2.404867010191083">
        <ele>1122</ele>
        <time>2025-05-13T06:39:20Z</time>
      </trkpt>
      <trkpt lat="37.597564039751887" lon="-2.40236802957952">
        <ele>1128.24</ele>
        <time>2025-05-13T06:39:28Z</time>
      </trkpt>
      <trkpt lat="37.598013980314136" lon="-2.400224022567272">
        <ele>1132.5699999999999</ele>
        <time>2025-05-13T06:39:34Z</time>
      </trkpt>
      <trkpt lat="37.598067037761211" lon="-2.397240987047553">
        <ele>1137.8599999999999</ele>
        <time>2025-05-13T06:39:42Z</time>
      </trkpt>
      <trkpt lat="37.597586000338197" lon="-2.393579017370939">
        <ele>1139.3</ele>
        <time>2025-05-13T06:39:52Z</time>
      </trkpt>
      <trkpt lat="37.596645969897509" lon="-2.390854982659221">
        <ele>1134.49</ele>
        <time>2025-05-13T06:40:00Z</time>
      </trkpt>
      <trkpt lat="37.595346020534635" lon="-2.387510016560555">
        <ele>1130.1700000000001</ele>
        <time>2025-05-13T06:40:10Z</time>
      </trkpt>
      <trkpt lat="37.594918962568045" lon="-2.385354023426771">
        <ele>1127.76</ele>
        <time>2025-05-13T06:40:16Z</time>
      </trkpt>
      <trkpt lat="37.594646969810128" lon="-2.38129198551178">
        <ele>1128.24</ele>
        <time>2025-05-13T06:40:27Z</time>
      </trkpt>
      <trkpt lat="37.594457035884261" lon="-2.376459985971451">
        <ele>1133.05</ele>
        <time>2025-05-13T06:40:40Z</time>
      </trkpt>
      <trkpt lat="37.594529036432505" lon="-2.373113008216023">
        <ele>1136.9000000000001</ele>
        <time>2025-05-13T06:40:49Z</time>
      </trkpt>
      <trkpt lat="37.594616040587425" lon="-2.369013000279665">
        <ele>1137.3800000000001</ele>
        <time>2025-05-13T06:41:00Z</time>
      </trkpt>
      <trkpt lat="37.594779990613461" lon="-2.362689021974802">
        <ele>1130.6500000000001</ele>
        <time>2025-05-13T06:41:17Z</time>
      </trkpt>
      <trkpt lat="37.594903958961368" lon="-2.357471035793424">
        <ele>1124.8800000000001</ele>
        <time>2025-05-13T06:41:31Z</time>
      </trkpt>
      <trkpt lat="37.595052989199758" lon="-2.351531032472849">
        <ele>1123.9200000000001</ele>
        <time>2025-05-13T06:41:47Z</time>
      </trkpt>
      <trkpt lat="37.595160026103258" lon="-2.346690986305475">
        <ele>1123.4400000000001</ele>
        <time>2025-05-13T06:42:00Z</time>
      </trkpt>
      <trkpt lat="37.595266979187727" lon="-2.341815987601876">
        <ele>1120.55</ele>
        <time>2025-05-13T06:42:13Z</time>
      </trkpt>
      <trkpt lat="37.595413997769356" lon="-2.335118008777499">
        <ele>1115.75</ele>
        <time>2025-05-13T06:42:31Z</time>
      </trkpt>
      <trkpt lat="37.595561016350985" lon="-2.328420029953122">
        <ele>1105.1700000000001</ele>
        <time>2025-05-13T06:42:49Z</time>
      </trkpt>
      <trkpt lat="37.595648020505905" lon="-2.323567997664213">
        <ele>1097.96</ele>
        <time>2025-05-13T06:43:02Z</time>
      </trkpt>
      <trkpt lat="37.595700994133949" lon="-2.318768016994">
        <ele>1098.9200000000001</ele>
        <time>2025-05-13T06:43:15Z</time>
      </trkpt>
      <trkpt lat="37.595647014677525" lon="-2.313919002190232">
        <ele>1096.52</ele>
        <time>2025-05-13T06:43:28Z</time>
      </trkpt>
      <trkpt lat="37.595454985275865" lon="-2.306089969351888">
        <ele>1085.47</ele>
        <time>2025-05-13T06:43:49Z</time>
      </trkpt>
      <trkpt lat="37.595276031643152" lon="-2.299014972522855">
        <ele>1074.8900000000001</ele>
        <time>2025-05-13T06:44:08Z</time>
      </trkpt>
      <trkpt lat="37.595135970041156" lon="-2.293818024918437">
        <ele>1069.5999999999999</ele>
        <time>2025-05-13T06:44:22Z</time>
      </trkpt>
      <trkpt lat="37.595157008618116" lon="-2.28972296230495">
        <ele>1066.24</ele>
        <time>2025-05-13T06:44:33Z</time>
      </trkpt>
      <trkpt lat="37.59563997387886" lon="-2.286440022289753">
        <ele>1063.3599999999999</ele>
        <time>2025-05-13T06:44:42Z</time>
      </trkpt>
      <trkpt lat="37.596646975725889" lon="-2.283353973180056">
        <ele>1064.3199999999999</ele>
        <time>2025-05-13T06:44:51Z</time>
      </trkpt>
      <trkpt lat="37.598278010264039" lon="-2.280262978747487">
        <ele>1068.6400000000001</ele>
        <time>2025-05-13T06:45:01Z</time>
      </trkpt>
      <trkpt lat="37.600157987326384" lon="-2.277867011725903">
        <ele>1072.97</ele>
        <time>2025-05-13T06:45:10Z</time>
      </trkpt>
      <trkpt lat="37.601836966350675" lon="-2.275272980332375">
        <ele>1075.3699999999999</ele>
        <time>2025-05-13T06:45:19Z</time>
      </trkpt>
      <trkpt lat="37.602956034243107" lon="-2.272666040807962">
        <ele>1075.3699999999999</ele>
        <time>2025-05-13T06:45:27Z</time>
      </trkpt>
      <trkpt lat="37.603762960061431" lon="-2.269473038613796">
        <ele>1076.3299999999999</ele>
        <time>2025-05-13T06:45:36Z</time>
      </trkpt>
      <trkpt lat="37.604023972526193" lon="-2.266136035323143">
        <ele>1073.9300000000001</ele>
        <time>2025-05-13T06:45:45Z</time>
      </trkpt>
      <trkpt lat="37.603805037215352" lon="-2.262812023982406">
        <ele>1069.1199999999999</ele>
        <time>2025-05-13T06:45:54Z</time>
      </trkpt>
      <trkpt lat="37.603148985654116" lon="-2.259940970689058">
        <ele>1064.3199999999999</ele>
        <time>2025-05-13T06:46:02Z</time>
      </trkpt>
      <trkpt lat="37.601956995204091" lon="-2.256947038695216">
        <ele>1056.6300000000001</ele>
        <time>2025-05-13T06:46:11Z</time>
      </trkpt>
      <trkpt lat="37.600151030346751" lon="-2.253550020977855">
        <ele>1048.9400000000001</ele>
        <time>2025-05-13T06:46:22Z</time>
      </trkpt>
      <trkpt lat="37.598585039377213" lon="-2.249968014657497">
        <ele>1045.0899999999999</ele>
        <time>2025-05-13T06:46:33Z</time>
      </trkpt>
      <trkpt lat="37.597377961501479" lon="-2.246153997257352">
        <ele>1038.8399999999999</ele>
        <time>2025-05-13T06:46:44Z</time>
      </trkpt>
      <trkpt lat="37.596604982391" lon="-2.242183992639184">
        <ele>1028.75</ele>
        <time>2025-05-13T06:46:55Z</time>
      </trkpt>
      <trkpt lat="37.596473973244429" lon="-2.239215038716793">
        <ele>1022.5</ele>
        <time>2025-05-13T06:47:03Z</time>
      </trkpt>
      <trkpt lat="37.596773039549589" lon="-2.236254969611764">
        <ele>1017.6900000000001</ele>
        <time>2025-05-13T06:47:11Z</time>
      </trkpt>
      <trkpt lat="37.597476029768586" lon="-2.233392968773842">
        <ele>1011.4400000000001</ele>
        <time>2025-05-13T06:47:19Z</time>
      </trkpt>
      <trkpt lat="37.598715964704752" lon="-2.230452010408044">
        <ele>1006.16</ele>
        <time>2025-05-13T06:47:28Z</time>
      </trkpt>
      <trkpt lat="37.600811021402478" lon="-2.225982025265694">
        <ele>1007.6</ele>
        <time>2025-05-13T06:47:42Z</time>
      </trkpt>
      <trkpt lat="37.602770961821079" lon="-2.221803981810808">
        <ele>1005.2</ele>
        <time>2025-05-13T06:47:55Z</time>
      </trkpt>
      <trkpt lat="37.604047022759914" lon="-2.218442000448704">
        <ele>997.50999999999999</ele>
        <time>2025-05-13T06:48:05Z</time>
      </trkpt>
      <trkpt lat="37.605070034042001" lon="-2.214946998283267">
        <ele>991.74000000000001</ele>
        <time>2025-05-13T06:48:15Z</time>
      </trkpt>
      <trkpt lat="37.605657018721104" lon="-2.211670009419322">
        <ele>985.97000000000003</ele>
        <time>2025-05-13T06:48:24Z</time>
      </trkpt>
      <trkpt lat="37.606408959254622" lon="-2.208482036367059">
        <ele>982.60000000000002</ele>
        <time>2025-05-13T06:48:33Z</time>
      </trkpt>
      <trkpt lat="37.607645960524678" lon="-2.205514004454017">
        <ele>980.67999999999995</ele>
        <time>2025-05-13T06:48:42Z</time>
      </trkpt>
      <trkpt lat="37.609717966988683" lon="-2.2014170140028">
        <ele>977.32000000000005</ele>
        <time>2025-05-13T06:48:55Z</time>
      </trkpt>
      <trkpt lat="37.61147397570312" lon="-2.197960987687111">
        <ele>972.02999999999997</ele>
        <time>2025-05-13T06:49:06Z</time>
      </trkpt>
      <trkpt lat="37.612577034160495" lon="-2.19533896073699">
        <ele>970.59000000000003</ele>
        <time>2025-05-13T06:49:14Z</time>
      </trkpt>
      <trkpt lat="37.613197965547442" lon="-2.192860012874007">
        <ele>968.66999999999996</ele>
        <time>2025-05-13T06:49:21Z</time>
      </trkpt>
      <trkpt lat="37.614195998758078" lon="-2.189378002658486">
        <ele>964.82000000000005</ele>
        <time>2025-05-13T06:49:31Z</time>
      </trkpt>
      <trkpt lat="37.615273995324969" lon="-2.187611013650894">
        <ele>961.94000000000005</ele>
        <time>2025-05-13T06:49:37Z</time>
      </trkpt>
      <trkpt lat="37.616931013762951" lon="-2.184994015842676">
        <ele>958.09000000000003</ele>
        <time>2025-05-13T06:49:46Z</time>
      </trkpt>
      <trkpt lat="37.617635009810328" lon="-2.183345966041088">
        <ele>954.73000000000002</ele>
        <time>2025-05-13T06:49:51Z</time>
      </trkpt>
      <trkpt lat="37.618422992527485" lon="-2.18055596575141">
        <ele>956.16999999999996</ele>
        <time>2025-05-13T06:49:59Z</time>
      </trkpt>
      <trkpt lat="37.618744019418955" lon="-2.177982972934842">
        <ele>954.73000000000002</ele>
        <time>2025-05-13T06:50:06Z</time>
      </trkpt>
      <trkpt lat="37.618633965030313" lon="-2.175001027062535">
        <ele>948</ele>
        <time>2025-05-13T06:50:14Z</time>
      </trkpt>
      <trkpt lat="37.618258958682418" lon="-2.171321036294103">
        <ele>944.14999999999998</ele>
        <time>2025-05-13T06:50:24Z</time>
      </trkpt>
      <trkpt lat="37.617950001731515" lon="-2.16723402030766">
        <ele>942.71000000000004</ele>
        <time>2025-05-13T06:50:35Z</time>
      </trkpt>
      <trkpt lat="37.61806701309979" lon="-2.162794964388013">
        <ele>929.73000000000002</ele>
        <time>2025-05-13T06:50:47Z</time>
      </trkpt>
      <trkpt lat="37.618252001702785" lon="-2.159831039607525">
        <ele>926.85000000000002</ele>
        <time>2025-05-13T06:50:55Z</time>
      </trkpt>
      <trkpt lat="37.618803028017282" lon="-2.157316971570253">
        <ele>923.96000000000004</ele>
        <time>2025-05-13T06:51:02Z</time>
      </trkpt>
      <trkpt lat="37.619785973802209" lon="-2.155004991218448">
        <ele>918.20000000000005</ele>
        <time>2025-05-13T06:51:09Z</time>
      </trkpt>
      <trkpt lat="37.621563021093607" lon="-2.15204500593245">
        <ele>910.99000000000001</ele>
        <time>2025-05-13T06:51:19Z</time>
      </trkpt>
      <trkpt lat="37.62283899821341" lon="-2.149529010057449">
        <ele>910.99000000000001</ele>
        <time>2025-05-13T06:51:27Z</time>
      </trkpt>
      <trkpt lat="37.623849017545581" lon="-2.146427035331726">
        <ele>910.50999999999999</ele>
        <time>2025-05-13T06:51:36Z</time>
      </trkpt>
      <trkpt lat="37.624389985576272" lon="-2.143123978748918">
        <ele>907.62</ele>
        <time>2025-05-13T06:51:45Z</time>
      </trkpt>
      <trkpt lat="37.625128012150526" lon="-2.139529986307025">
        <ele>901.37</ele>
        <time>2025-05-13T06:51:55Z</time>
      </trkpt>
      <trkpt lat="37.626178013160825" lon="-2.136057028546929">
        <ele>897.04999999999995</ele>
        <time>2025-05-13T06:52:05Z</time>
      </trkpt>
      <trkpt lat="37.626700960099697" lon="-2.133157979696989">
        <ele>896.09000000000003</ele>
        <time>2025-05-13T06:52:13Z</time>
      </trkpt>
      <trkpt lat="37.627172023057938" lon="-2.129110023379326">
        <ele>892.72000000000003</ele>
        <time>2025-05-13T06:52:24Z</time>
      </trkpt>
      <trkpt lat="37.627683989703655" lon="-2.126208040863276">
        <ele>890.79999999999995</ele>
        <time>2025-05-13T06:52:32Z</time>
      </trkpt>
      <trkpt lat="37.628742959350348" lon="-2.123549971729517">
        <ele>888.39999999999998</ele>
        <time>2025-05-13T06:52:40Z</time>
      </trkpt>
      <trkpt lat="37.630094038322568" lon="-2.12157896719873">
        <ele>884.07000000000005</ele>
        <time>2025-05-13T06:52:47Z</time>
      </trkpt>
      <trkpt lat="37.63222698122263" lon="-2.119017038494349">
        <ele>879.74000000000001</ele>
        <time>2025-05-13T06:52:57Z</time>
      </trkpt>
      <trkpt lat="37.634343998506665" lon="-2.116954000666738">
        <ele>874.46000000000004</ele>
        <time>2025-05-13T06:53:06Z</time>
      </trkpt>
      <trkpt lat="37.637788038700819" lon="-2.114027962088585">
        <ele>861</ele>
        <time>2025-05-13T06:53:20Z</time>
      </trkpt>
      <trkpt lat="37.640678035095334" lon="-2.111428985372186">
        <ele>855.71000000000004</ele>
        <time>2025-05-13T06:53:32Z</time>
      </trkpt>
      <trkpt lat="37.641719989478588" lon="-2.109664008021355">
        <ele>856.19000000000005</ele>
        <time>2025-05-13T06:53:38Z</time>
      </trkpt>
      <trkpt lat="37.642141012474895" lon="-2.108292980119586">
        <ele>856.19000000000005</ele>
        <time>2025-05-13T06:53:42Z</time>
      </trkpt>
      <trkpt lat="37.642308985814452" lon="-2.106112008914352">
        <ele>856.19000000000005</ele>
        <time>2025-05-13T06:53:48Z</time>
      </trkpt>
      <trkpt lat="37.642271015793085" lon="-2.104632016271353">
        <ele>857.14999999999998</ele>
        <time>2025-05-13T06:53:52Z</time>
      </trkpt>
      <trkpt lat="37.642471008002758" lon="-2.101688962429762">
        <ele>863.39999999999998</ele>
        <time>2025-05-13T06:54:00Z</time>
      </trkpt>
      <trkpt lat="37.643093029037118" lon="-2.099222000688314">
        <ele>871.57000000000005</ele>
        <time>2025-05-13T06:54:07Z</time>
      </trkpt>
      <trkpt lat="37.644456010311842" lon="-2.095049992203713">
        <ele>872.04999999999995</ele>
        <time>2025-05-13T06:54:19Z</time>
      </trkpt>
      <trkpt lat="37.645696029067039" lon="-2.091264976188541">
        <ele>858.11000000000001</ele>
        <time>2025-05-13T06:54:30Z</time>
      </trkpt>
      <trkpt lat="37.646502032876015" lon="-2.088085971772671">
        <ele>847.53999999999996</ele>
        <time>2025-05-13T06:54:39Z</time>
      </trkpt>
      <trkpt lat="37.646691966801882" lon="-2.085120035335422">
        <ele>839.85000000000002</ele>
        <time>2025-05-13T06:54:47Z</time>
      </trkpt>
      <trkpt lat="37.64638502150774" lon="-2.082170024514198">
        <ele>832.63999999999999</ele>
        <time>2025-05-13T06:54:55Z</time>
      </trkpt>
      <trkpt lat="37.645565019920468" lon="-2.0793810300529">
        <ele>824.47000000000003</ele>
        <time>2025-05-13T06:55:03Z</time>
      </trkpt>
      <trkpt lat="37.644447041675448" lon="-2.077195029705763">
        <ele>816.77999999999997</ele>
        <time>2025-05-13T06:55:10Z</time>
      </trkpt>
      <trkpt lat="37.642815001308918" lon="-2.075046999379993">
        <ele>808.61000000000001</ele>
        <time>2025-05-13T06:55:18Z</time>
      </trkpt>
      <trkpt lat="37.640780964866281" lon="-2.072359006851912">
        <ele>800.91999999999996</ele>
        <time>2025-05-13T06:55:28Z</time>
      </trkpt>
      <trkpt lat="37.639848981052637" lon="-2.070048032328486">
        <ele>797.07000000000005</ele>
        <time>2025-05-13T06:55:35Z</time>
      </trkpt>
      <trkpt lat="37.639395017176867" lon="-2.067498005926609">
        <ele>792.74000000000001</ele>
        <time>2025-05-13T06:55:42Z</time>
      </trkpt>
      <trkpt lat="37.639431981369853" lon="-2.065257020294666">
        <ele>786.98000000000002</ele>
        <time>2025-05-13T06:55:48Z</time>
      </trkpt>
      <trkpt lat="37.639963980764151" lon="-2.062735995277762">
        <ele>779.76999999999998</ele>
        <time>2025-05-13T06:55:55Z</time>
      </trkpt>
      <trkpt lat="37.640974000096321" lon="-2.06006501801312">
        <ele>776.39999999999998</ele>
        <time>2025-05-13T06:56:03Z</time>
      </trkpt>
      <trkpt lat="37.641514968127012" lon="-2.057941965758801">
        <ele>774.48000000000002</ele>
        <time>2025-05-13T06:56:09Z</time>
      </trkpt>
      <trkpt lat="37.641645977273583" lon="-2.05534097738564">
        <ele>772.08000000000004</ele>
        <time>2025-05-13T06:56:16Z</time>
      </trkpt>
      <trkpt lat="37.641628040000796" lon="-2.054958008229733">
        <ele>771.60000000000002</ele>
        <time>2025-05-13T06:56:17Z</time>
      </trkpt>
      <trkpt lat="37.641162006184459" lon="-2.052428014576435">
        <ele>769.66999999999996</ele>
        <time>2025-05-13T06:56:24Z</time>
      </trkpt>
      <trkpt lat="37.640110999345779" lon="-2.049761982634664">
        <ele>768.23000000000002</ele>
        <time>2025-05-13T06:56:32Z</time>
      </trkpt>
      <trkpt lat="37.639143979176879" lon="-2.046648021787405">
        <ele>768.23000000000002</ele>
        <time>2025-05-13T06:56:41Z</time>
      </trkpt>
      <trkpt lat="37.637725006788969" lon="-2.040998032316566">
        <ele>785.52999999999997</ele>
        <time>2025-05-13T06:56:57Z</time>
      </trkpt>
      <trkpt lat="37.637386964634061" lon="-2.038454962894321">
        <ele>797.07000000000005</ele>
        <time>2025-05-13T06:57:04Z</time>
      </trkpt>
      <trkpt lat="37.637659963220358" lon="-2.036268040537834">
        <ele>806.67999999999995</ele>
        <time>2025-05-13T06:57:10Z</time>
      </trkpt>
      <trkpt lat="37.63847996480763" lon="-2.034295024350286">
        <ele>815.82000000000005</ele>
        <time>2025-05-13T06:57:16Z</time>
      </trkpt>
      <trkpt lat="37.63936098664999" lon="-2.031967034563422">
        <ele>824.47000000000003</ele>
        <time>2025-05-13T06:57:23Z</time>
      </trkpt>
      <trkpt lat="37.639543041586876" lon="-2.030142964795232">
        <ele>830.72000000000003</ele>
        <time>2025-05-13T06:57:28Z</time>
      </trkpt>
      <trkpt lat="37.639227965846658" lon="-2.027956964448094">
        <ele>838.88999999999999</ele>
        <time>2025-05-13T06:57:34Z</time>
      </trkpt>
      <trkpt lat="37.6383710000664" lon="-2.026030970737338">
        <ele>848.5</ele>
        <time>2025-05-13T06:57:40Z</time>
      </trkpt>
      <trkpt lat="37.637040037661791" lon="-2.024576961994171">
        <ele>857.63</ele>
        <time>2025-05-13T06:57:46Z</time>
      </trkpt>
      <trkpt lat="37.635248992592096" lon="-2.023285981267691">
        <ele>870.13</ele>
        <time>2025-05-13T06:57:53Z</time>
      </trkpt>
      <trkpt lat="37.633989024907351" lon="-2.021742034703493">
        <ele>878.29999999999995</ele>
        <time>2025-05-13T06:57:59Z</time>
      </trkpt>
      <trkpt lat="37.633205987513065" lon="-2.019764995202422">
        <ele>885.99000000000001</ele>
        <time>2025-05-13T06:58:05Z</time>
      </trkpt>
      <trkpt lat="37.632726961746812" lon="-2.016861001029611">
        <ele>895.61000000000001</ele>
        <time>2025-05-13T06:58:13Z</time>
      </trkpt>
      <trkpt lat="37.632308034226298" lon="-2.01391601935029">
        <ele>908.10000000000002</ele>
        <time>2025-05-13T06:58:21Z</time>
      </trkpt>
      <trkpt lat="37.631674027070403" lon="-2.009535972028971">
        <ele>917.72000000000003</ele>
        <time>2025-05-13T06:58:33Z</time>
      </trkpt>
      <trkpt lat="37.630794011056423" lon="-2.004445977509022">
        <ele>923.96000000000004</ele>
        <time>2025-05-13T06:58:47Z</time>
      </trkpt>
      <trkpt lat="37.629916006699204" lon="-2.00010197237134">
        <ele>930.69000000000005</ele>
        <time>2025-05-13T06:58:59Z</time>
      </trkpt>
      <trkpt lat="37.628902969881892" lon="-1.995436018332839">
        <ele>933.10000000000002</ele>
        <time>2025-05-13T06:59:12Z</time>
      </trkpt>
      <trkpt lat="37.627984983846545" lon="-1.992678958922625">
        <ele>931.64999999999998</ele>
        <time>2025-05-13T06:59:20Z</time>
      </trkpt>
      <trkpt lat="37.627015030011535" lon="-1.989988032728434">
        <ele>930.21000000000004</ele>
        <time>2025-05-13T06:59:28Z</time>
      </trkpt>
      <trkpt lat="37.626846972852945" lon="-1.98778904043138">
        <ele>930.69000000000005</ele>
        <time>2025-05-13T06:59:34Z</time>
      </trkpt>
      <trkpt lat="37.627143021672964" lon="-1.984842969104648">
        <ele>932.13999999999999</ele>
        <time>2025-05-13T06:59:42Z</time>
      </trkpt>
      <trkpt lat="37.627549963071942" lon="-1.981160966679454">
        <ele>934.05999999999995</ele>
        <time>2025-05-13T06:59:52Z</time>
      </trkpt>
      <trkpt lat="37.627630010247231" lon="-1.977423978969455">
        <ele>930.21000000000004</ele>
        <time>2025-05-13T07:00:02Z</time>
      </trkpt>
      <trkpt lat="37.627132963389158" lon="-1.973370993509889">
        <ele>923.96000000000004</ele>
        <time>2025-05-13T07:00:13Z</time>
      </trkpt>
      <trkpt lat="37.626351015642285" lon="-1.967876991257072">
        <ele>913.87</ele>
        <time>2025-05-13T07:00:28Z</time>
      </trkpt>
      <trkpt lat="37.625508969649673" lon="-1.96200898848474">
        <ele>894.63999999999999</ele>
        <time>2025-05-13T07:00:44Z</time>
      </trkpt>
      <trkpt lat="37.624646974727511" lon="-1.958452966064215">
        <ele>882.14999999999998</ele>
        <time>2025-05-13T07:00:54Z</time>
      </trkpt>
      <trkpt lat="37.623586999252439" lon="-1.956224972382188">
        <ele>873.00999999999999</ele>
        <time>2025-05-13T07:01:01Z</time>
      </trkpt>
      <trkpt lat="37.621839037165046" lon="-1.953718028962612">
        <ele>862.44000000000005</ele>
        <time>2025-05-13T07:01:10Z</time>
      </trkpt>
      <trkpt lat="37.620693985372782" lon="-1.951563963666558">
        <ele>858.11000000000001</ele>
        <time>2025-05-13T07:01:17Z</time>
      </trkpt>
      <trkpt lat="37.619764013215899" lon="-1.948416978120804">
        <ele>855.71000000000004</ele>
        <time>2025-05-13T07:01:26Z</time>
      </trkpt>
      <trkpt lat="37.618650980293751" lon="-1.944179004058242">
        <ele>850.89999999999998</ele>
        <time>2025-05-13T07:01:38Z</time>
      </trkpt>
      <trkpt lat="37.61703796684742" lon="-1.938144033774734">
        <ele>832.15999999999997</ele>
        <time>2025-05-13T07:01:55Z</time>
      </trkpt>
      <trkpt lat="37.61589802801609" lon="-1.934735029935837">
        <ele>815.82000000000005</ele>
        <time>2025-05-13T07:02:05Z</time>
      </trkpt>
      <trkpt lat="37.614735038951039" lon="-1.933069964870811">
        <ele>805.72000000000003</ele>
        <time>2025-05-13T07:02:11Z</time>
      </trkpt>
      <trkpt lat="37.613063016906381" lon="-1.931523000821471">
        <ele>795.14999999999998</ele>
        <time>2025-05-13T07:02:18Z</time>
      </trkpt>
      <trkpt lat="37.611892987042665" lon="-1.929873023182154">
        <ele>788.89999999999998</ele>
        <time>2025-05-13T07:02:24Z</time>
      </trkpt>
      <trkpt lat="37.611087989062071" lon="-1.927895983681083">
        <ele>786.01999999999998</ele>
        <time>2025-05-13T07:02:30Z</time>
      </trkpt>
      <trkpt lat="37.610765034332871" lon="-1.925713000819087">
        <ele>784.57000000000005</ele>
        <time>2025-05-13T07:02:36Z</time>
      </trkpt>
      <trkpt lat="37.610919009894133" lon="-1.923122992739081">
        <ele>782.64999999999998</ele>
        <time>2025-05-13T07:02:43Z</time>
      </trkpt>
      <trkpt lat="37.611437011510134" lon="-1.917178966104984">
        <ele>768.71000000000004</ele>
        <time>2025-05-13T07:02:59Z</time>
      </trkpt>
      <trkpt lat="37.61155704036355" lon="-1.913481960073113">
        <ele>758.62</ele>
        <time>2025-05-13T07:03:09Z</time>
      </trkpt>
      <trkpt lat="37.611227966845036" lon="-1.910153003409505">
        <ele>751.40999999999997</ele>
        <time>2025-05-13T07:03:18Z</time>
      </trkpt>
      <trkpt lat="37.610707031562924" lon="-1.905728029087186">
        <ele>735.07000000000005</ele>
        <time>2025-05-13T07:03:30Z</time>
      </trkpt>
      <trkpt lat="37.609985014423728" lon="-1.903706984594464">
        <ele>727.37</ele>
        <time>2025-05-13T07:03:36Z</time>
      </trkpt>
      <trkpt lat="37.608848009258509" lon="-1.90202197059989">
        <ele>723.04999999999995</ele>
        <time>2025-05-13T07:03:42Z</time>
      </trkpt>
      <trkpt lat="37.606753036379814" lon="-1.899950969964266">
        <ele>719.20000000000005</ele>
        <time>2025-05-13T07:03:51Z</time>
      </trkpt>
      <trkpt lat="37.605074979364872" lon="-1.897882986813784">
        <ele>720.15999999999997</ele>
        <time>2025-05-13T07:03:59Z</time>
      </trkpt>
      <trkpt lat="37.604213990271091" lon="-1.895954981446266">
        <ele>724.00999999999999</ele>
        <time>2025-05-13T07:04:05Z</time>
      </trkpt>
      <trkpt lat="37.60244901292026" lon="-1.891215015202761">
        <ele>736.50999999999999</ele>
        <time>2025-05-13T07:04:19Z</time>
      </trkpt>
      <trkpt lat="37.600762993097305" lon="-1.886433977633715">
        <ele>730.74000000000001</ele>
        <time>2025-05-13T07:04:33Z</time>
      </trkpt>
      <trkpt lat="37.600520001724362" lon="-1.883857967332006">
        <ele>721.61000000000001</ele>
        <time>2025-05-13T07:04:40Z</time>
      </trkpt>
      <trkpt lat="37.600827030837536" lon="-1.881286986172199">
        <ele>711.50999999999999</ele>
        <time>2025-05-13T07:04:47Z</time>
      </trkpt>
      <trkpt lat="37.600950999185443" lon="-1.877942020073533">
        <ele>698.04999999999995</ele>
        <time>2025-05-13T07:04:56Z</time>
      </trkpt>
      <trkpt lat="37.600785959511995" lon="-1.87647401355207">
        <ele>692.28999999999996</ele>
        <time>2025-05-13T07:05:00Z</time>
      </trkpt>
      <trkpt lat="37.600306011736393" lon="-1.874318020418286">
        <ele>683.14999999999998</ele>
        <time>2025-05-13T07:05:06Z</time>
      </trkpt>
      <trkpt lat="37.599263973534107" lon="-1.871670009568334">
        <ele>673.53999999999996</ele>
        <time>2025-05-13T07:05:14Z</time>
      </trkpt>
      <trkpt lat="37.597490027546883" lon="-1.868695020675659">
        <ele>665.37</ele>
        <time>2025-05-13T07:05:24Z</time>
      </trkpt>
      <trkpt lat="37.595246024429798" lon="-1.865222984924913">
        <ele>648.07000000000005</ele>
        <time>2025-05-13T07:05:36Z</time>
      </trkpt>
      <trkpt lat="37.59385596960783" lon="-1.863836031407118">
        <ele>637.97000000000003</ele>
        <time>2025-05-13T07:05:42Z</time>
      </trkpt>
      <trkpt lat="37.589958971366286" lon="-1.860453011468053">
        <ele>612.01999999999998</ele>
        <time>2025-05-13T07:05:58Z</time>
      </trkpt>
      <trkpt lat="37.587743969634175" lon="-1.857965011149645">
        <ele>595.66999999999996</ele>
        <time>2025-05-13T07:06:08Z</time>
      </trkpt>
      <trkpt lat="37.585042985156178" lon="-1.854533040896058">
        <ele>575.49000000000001</ele>
        <time>2025-05-13T07:06:21Z</time>
      </trkpt>
      <trkpt lat="37.584232036024332" lon="-1.852547032758594">
        <ele>566.35000000000002</ele>
        <time>2025-05-13T07:06:27Z</time>
      </trkpt>
      <trkpt lat="37.58386398665607" lon="-1.850368995219469">
        <ele>557.70000000000005</ele>
        <time>2025-05-13T07:06:33Z</time>
      </trkpt>
      <trkpt lat="37.583355959504843" lon="-1.846352973952889">
        <ele>551.45000000000005</ele>
        <time>2025-05-13T07:06:44Z</time>
      </trkpt>
      <trkpt lat="37.582472003996372" lon="-1.844001011922956">
        <ele>548.09000000000003</ele>
        <time>2025-05-13T07:06:51Z</time>
      </trkpt>
      <trkpt lat="37.580480966717005" lon="-1.840296965092421">
        <ele>540.39999999999998</ele>
        <time>2025-05-13T07:07:03Z</time>
      </trkpt>
      <trkpt lat="37.579161990433931" lon="-1.837879959493876">
        <ele>540.88</ele>
        <time>2025-05-13T07:07:11Z</time>
      </trkpt>
      <trkpt lat="37.577939992770553" lon="-1.834950987249613">
        <ele>552.89999999999998</ele>
        <time>2025-05-13T07:07:20Z</time>
      </trkpt>
      <trkpt lat="37.577478988096118" lon="-1.832025032490492">
        <ele>562.02999999999997</ele>
        <time>2025-05-13T07:07:28Z</time>
      </trkpt>
      <trkpt lat="37.576680025085807" lon="-1.828804034739733">
        <ele>558.17999999999995</ele>
        <time>2025-05-13T07:07:37Z</time>
      </trkpt>
      <trkpt lat="37.575643016025424" lon="-1.826538993045688">
        <ele>548.57000000000005</ele>
        <time>2025-05-13T07:07:44Z</time>
      </trkpt>
      <trkpt lat="37.574156988412142" lon="-1.824727999046445">
        <ele>536.07000000000005</ele>
        <time>2025-05-13T07:07:51Z</time>
      </trkpt>
      <trkpt lat="37.572339959442616" lon="-1.823484040796757">
        <ele>523.09000000000003</ele>
        <time>2025-05-13T07:07:58Z</time>
      </trkpt>
      <trkpt lat="37.569671999663115" lon="-1.821908997371793">
        <ele>505.79000000000002</ele>
        <time>2025-05-13T07:08:08Z</time>
      </trkpt>
      <trkpt lat="37.568189995363355" lon="-1.820315010845661">
        <ele>498.10000000000002</ele>
        <time>2025-05-13T07:08:15Z</time>
      </trkpt>
      <trkpt lat="37.56738499738276" lon="-1.819631969556212">
        <ele>495.22000000000003</ele>
        <time>2025-05-13T07:08:20Z</time>
      </trkpt>
      <trkpt lat="37.567226998507977" lon="-1.819549994543195">
        <ele>494.74000000000001</ele>
        <time>2025-05-13T07:08:21Z</time>
      </trkpt>
      <trkpt lat="37.567093977704644" lon="-1.819481011480093">
        <ele>494.74000000000001</ele>
        <time>2025-05-13T07:08:22Z</time>
      </trkpt>
      <trkpt lat="37.566970009356737" lon="-1.819415967911482">
        <ele>494.74000000000001</ele>
        <time>2025-05-13T07:08:23Z</time>
      </trkpt>
      <trkpt lat="37.566850986331701" lon="-1.819371040910482">
        <ele>494.74000000000001</ele>
        <time>2025-05-13T07:08:24Z</time>
      </trkpt>
      <trkpt lat="37.566726012155414" lon="-1.819359976798296">
        <ele>494.74000000000001</ele>
        <time>2025-05-13T07:08:25Z</time>
      </trkpt>
      <trkpt lat="37.56661000661552" lon="-1.81936701759696">
        <ele>495.22000000000003</ele>
        <time>2025-05-13T07:08:26Z</time>
      </trkpt>
      <trkpt lat="37.56650104187429" lon="-1.819400964304805">
        <ele>495.22000000000003</ele>
        <time>2025-05-13T07:08:27Z</time>
      </trkpt>
      <trkpt lat="37.566397022455931" lon="-1.81943298317492">
        <ele>495.22000000000003</ele>
        <time>2025-05-13T07:08:28Z</time>
      </trkpt>
      <trkpt lat="37.566294008865952" lon="-1.819486962631345">
        <ele>495.69999999999999</ele>
        <time>2025-05-13T07:08:29Z</time>
      </trkpt>
      <trkpt lat="37.566176997497678" lon="-1.819555023685098">
        <ele>495.69999999999999</ele>
        <time>2025-05-13T07:08:30Z</time>
      </trkpt>
      <trkpt lat="37.566045988351107" lon="-1.819630963727832">
        <ele>495.69999999999999</ele>
        <time>2025-05-13T07:08:31Z</time>
      </trkpt>
      <trkpt lat="37.565903998911381" lon="-1.819714028388262">
        <ele>495.22000000000003</ele>
        <time>2025-05-13T07:08:32Z</time>
      </trkpt>
      <trkpt lat="37.564719971269369" lon="-1.820552973076701">
        <ele>494.74000000000001</ele>
        <time>2025-05-13T07:08:39Z</time>
      </trkpt>
      <trkpt lat="37.563250958919525" lon="-1.820937031880021">
        <ele>495.69999999999999</ele>
        <time>2025-05-13T07:08:45Z</time>
      </trkpt>
      <trkpt lat="37.561699971556664" lon="-1.820694962516427">
        <ele>500.98000000000002</ele>
        <time>2025-05-13T07:08:51Z</time>
      </trkpt>
      <trkpt lat="37.558638984337449" lon="-1.819745041429997">
        <ele>509.63999999999999</ele>
        <time>2025-05-13T07:09:03Z</time>
      </trkpt>
      <trkpt lat="37.556010000407696" lon="-1.818960998207331">
        <ele>504.82999999999998</ele>
        <time>2025-05-13T07:09:13Z</time>
      </trkpt>
      <trkpt lat="37.553821988403797" lon="-1.818821020424366">
        <ele>495.69999999999999</ele>
        <time>2025-05-13T07:09:21Z</time>
      </trkpt>
      <trkpt lat="37.551546972244978" lon="-1.819252017885447">
        <ele>485.12</ele>
        <time>2025-05-13T07:09:29Z</time>
      </trkpt>
      <trkpt lat="37.548983031883836" lon="-1.819549994543195">
        <ele>474.06999999999999</ele>
        <time>2025-05-13T07:09:38Z</time>
      </trkpt>
      <trkpt lat="37.546530989930034" lon="-1.819312032312155">
        <ele>474.55000000000001</ele>
        <time>2025-05-13T07:09:47Z</time>
      </trkpt>
      <trkpt lat="37.544239964336157" lon="-1.818548021838069">
        <ele>475.02999999999997</ele>
        <time>2025-05-13T07:09:56Z</time>
      </trkpt>
      <trkpt lat="37.542096041142941" lon="-1.817341027781367">
        <ele>475.99000000000001</ele>
        <time>2025-05-13T07:10:05Z</time>
      </trkpt>
      <trkpt lat="37.540094023570418" lon="-1.816178038716316">
        <ele>476.47000000000003</ele>
        <time>2025-05-13T07:10:15Z</time>
      </trkpt>
      <trkpt lat="37.538397023454309" lon="-1.815561968833208">
        <ele>477.43000000000001</ele>
        <time>2025-05-13T07:10:25Z</time>
      </trkpt>
      <trkpt lat="37.537809032946825" lon="-1.815438000485301">
        <ele>476.47000000000003</ele>
        <time>2025-05-13T07:10:30Z</time>
      </trkpt>
      <trkpt lat="37.537721022963524" lon="-1.815570015460253">
        <ele>476.47000000000003</ele>
        <time>2025-05-13T07:10:31Z</time>
      </trkpt>
      <trkpt lat="37.537632007151842" lon="-1.815597005188465">
        <ele>476.47000000000003</ele>
        <time>2025-05-13T07:10:32Z</time>
      </trkpt>
      <trkpt lat="37.537557994946837" lon="-1.815619971603155">
        <ele>475.99000000000001</ele>
        <time>2025-05-13T07:10:33Z</time>
      </trkpt>
      <trkpt lat="37.537494963034987" lon="-1.815701024606824">
        <ele>475.50999999999999</ele>
        <time>2025-05-13T07:10:34Z</time>
      </trkpt>
      <trkpt lat="37.537431009113789" lon="-1.815782999619842">
        <ele>475.50999999999999</ele>
        <time>2025-05-13T07:10:35Z</time>
      </trkpt>
      <trkpt lat="37.537404019385576" lon="-1.815879978239536">
        <ele>475.02999999999997</ele>
        <time>2025-05-13T07:10:36Z</time>
      </trkpt>
      <trkpt lat="37.537394966930151" lon="-1.815992966294289">
        <ele>474.55000000000001</ele>
        <time>2025-05-13T07:10:37Z</time>
      </trkpt>
      <trkpt lat="37.537387004122138" lon="-1.816112995147705">
        <ele>474.06999999999999</ele>
        <time>2025-05-13T07:10:38Z</time>
      </trkpt>
      <trkpt lat="37.537423968315125" lon="-1.816215002909303">
        <ele>473.58999999999997</ele>
        <time>2025-05-13T07:10:39Z</time>
      </trkpt>
      <trkpt lat="37.537459004670382" lon="-1.816310975700617">
        <ele>473.11000000000001</ele>
        <time>2025-05-13T07:10:40Z</time>
      </trkpt>
      <trkpt lat="37.53752002492547" lon="-1.816389011219144">
        <ele>472.63</ele>
        <time>2025-05-13T07:10:41Z</time>
      </trkpt>
      <trkpt lat="37.537580039352179" lon="-1.816440979018807">
        <ele>472.13999999999999</ele>
        <time>2025-05-13T07:10:42Z</time>
      </trkpt>
      <trkpt lat="37.537654973566532" lon="-1.816481966525316">
        <ele>472.13999999999999</ele>
        <time>2025-05-13T07:10:43Z</time>
      </trkpt>
      <trkpt lat="37.537723034620285" lon="-1.816492024809122">
        <ele>471.66000000000003</ele>
        <time>2025-05-13T07:10:44Z</time>
      </trkpt>
      <trkpt lat="37.537812972441316" lon="-1.816476015374064">
        <ele>471.66000000000003</ele>
        <time>2025-05-13T07:10:45Z</time>
      </trkpt>
      <trkpt lat="37.537887990474701" lon="-1.816432010382414">
        <ele>471.18000000000001</ele>
        <time>2025-05-13T07:10:46Z</time>
      </trkpt>
      <trkpt lat="37.537970971316099" lon="-1.816383982077241">
        <ele>470.69999999999999</ele>
        <time>2025-05-13T07:10:47Z</time>
      </trkpt>
      <trkpt lat="37.53805797547102" lon="-1.816289015114307">
        <ele>470.69999999999999</ele>
        <time>2025-05-13T07:10:48Z</time>
      </trkpt>
      <trkpt lat="37.538114972412586" lon="-1.816168986260891">
        <ele>470.69999999999999</ele>
        <time>2025-05-13T07:10:49Z</time>
      </trkpt>
      <trkpt lat="37.538173981010914" lon="-1.816042000427842">
        <ele>470.22000000000003</ele>
        <time>2025-05-13T07:10:50Z</time>
      </trkpt>
      <trkpt lat="37.538235001266003" lon="-1.815910991281271">
        <ele>470.22000000000003</ele>
        <time>2025-05-13T07:10:51Z</time>
      </trkpt>
      <trkpt lat="37.538569020107388" lon="-1.814999040216208">
        <ele>472.13999999999999</ele>
        <time>2025-05-13T07:10:57Z</time>
      </trkpt>
      <trkpt lat="37.53883003257215" lon="-1.814333014190197">
        <ele>470.69999999999999</ele>
        <time>2025-05-13T07:11:03Z</time>
      </trkpt>
      <trkpt lat="37.538815028965473" lon="-1.814252967014909">
        <ele>470.22000000000003</ele>
        <time>2025-05-13T07:11:04Z</time>
      </trkpt>
      <trkpt lat="37.538799019530416" lon="-1.814166968688369">
        <ele>469.74000000000001</ele>
        <time>2025-05-13T07:11:05Z</time>
      </trkpt>
      <trkpt lat="37.538782004266977" lon="-1.814075019210577">
        <ele>469.74000000000001</ele>
        <time>2025-05-13T07:11:06Z</time>
      </trkpt>
      <trkpt lat="37.538763983175159" lon="-1.814004024490714">
        <ele>469.25999999999999</ele>
        <time>2025-05-13T07:11:07Z</time>
      </trkpt>
      <trkpt lat="37.538771023973823" lon="-1.813916014507413">
        <ele>469.25999999999999</ele>
        <time>2025-05-13T07:11:08Z</time>
      </trkpt>
      <trkpt lat="37.538779992610216" lon="-1.813848037272692">
        <ele>468.77999999999997</ele>
        <time>2025-05-13T07:11:09Z</time>
      </trkpt>
      <trkpt lat="37.538816034793854" lon="-1.8137819878757">
        <ele>468.77999999999997</ele>
        <time>2025-05-13T07:11:10Z</time>
      </trkpt>
      <trkpt lat="37.538868002593517" lon="-1.813728008419275">
        <ele>468.77999999999997</ele>
        <time>2025-05-13T07:11:11Z</time>
      </trkpt>
      <trkpt lat="37.538922987878323" lon="-1.813719039782882">
        <ele>468.77999999999997</ele>
        <time>2025-05-13T07:11:12Z</time>
      </trkpt>
      <trkpt lat="37.538983002305031" lon="-1.813715016469359">
        <ele>468.30000000000001</ele>
        <time>2025-05-13T07:11:13Z</time>
      </trkpt>
      <trkpt lat="37.539032036438584" lon="-1.813748041167855">
        <ele>468.30000000000001</ele>
        <time>2025-05-13T07:11:14Z</time>
      </trkpt>
      <trkpt lat="37.539085010066628" lon="-1.813782993704081">
        <ele>468.30000000000001</ele>
        <time>2025-05-13T07:11:15Z</time>
      </trkpt>
      <trkpt lat="37.539119962602854" lon="-1.813860023394227">
        <ele>467.81999999999999</ele>
        <time>2025-05-13T07:11:16Z</time>
      </trkpt>
      <trkpt lat="37.539138989523053" lon="-1.813938980922103">
        <ele>467.81999999999999</ele>
        <time>2025-05-13T07:11:17Z</time>
      </trkpt>
      <trkpt lat="37.539116023108363" lon="-1.814037971198559">
        <ele>467.33999999999997</ele>
        <time>2025-05-13T07:11:18Z</time>
      </trkpt>
      <trkpt lat="37.539081992581487" lon="-1.814117012545466">
        <ele>467.81999999999999</ele>
        <time>2025-05-13T07:11:19Z</time>
      </trkpt>
      <trkpt lat="37.538994988426566" lon="-1.814193958416581">
        <ele>467.81999999999999</ele>
        <time>2025-05-13T07:11:20Z</time>
      </trkpt>
      <trkpt lat="37.53887202590704" lon="-1.814379030838609">
        <ele>467.81999999999999</ele>
        <time>2025-05-13T07:11:22Z</time>
      </trkpt>
      <trkpt lat="37.538805976510048" lon="-1.814477015286684">
        <ele>467.81999999999999</ele>
        <time>2025-05-13T07:11:23Z</time>
      </trkpt>
      <trkpt lat="37.538757026195526" lon="-1.814573993906379">
        <ele>467.81999999999999</ele>
        <time>2025-05-13T07:11:24Z</time>
      </trkpt>
      <trkpt lat="37.539147036150098" lon="-1.815323000773788">
        <ele>471.66000000000003</ele>
        <time>2025-05-13T07:11:29Z</time>
      </trkpt>
      <trkpt lat="37.539290031418204" lon="-1.815402964130044">
        <ele>472.63</ele>
        <time>2025-05-13T07:11:30Z</time>
      </trkpt>
      <trkpt lat="37.539421962574124" lon="-1.815512012690306">
        <ele>473.58999999999997</ele>
        <time>2025-05-13T07:11:31Z</time>
      </trkpt>
      <trkpt lat="37.539575016126037" lon="-1.815617037937045">
        <ele>474.55000000000001</ele>
        <time>2025-05-13T07:11:32Z</time>
      </trkpt>
      <trkpt lat="37.539739971980453" lon="-1.815731031820178">
        <ele>475.50999999999999</ele>
        <time>2025-05-13T07:11:33Z</time>
      </trkpt>
      <trkpt lat="37.541271010413766" lon="-1.816564025357366">
        <ele>476.47000000000003</ele>
        <time>2025-05-13T07:11:40Z</time>
      </trkpt>
      <trkpt lat="37.54377300851047" lon="-1.818102020770311">
        <ele>476.47000000000003</ele>
        <time>2025-05-13T07:11:50Z</time>
      </trkpt>
      <trkpt lat="37.546281041577458" lon="-1.819036016240716">
        <ele>474.06999999999999</ele>
        <time>2025-05-13T07:12:00Z</time>
      </trkpt>
      <trkpt lat="37.548955958336592" lon="-1.819328041747212">
        <ele>469.74000000000001</ele>
        <time>2025-05-13T07:12:10Z</time>
      </trkpt>
      <trkpt lat="37.551574967801571" lon="-1.819019000977278">
        <ele>474.55000000000001</ele>
        <time>2025-05-13T07:12:19Z</time>
      </trkpt>
      <trkpt lat="37.554433029145002" lon="-1.818551039323211">
        <ele>490.88999999999999</ele>
        <time>2025-05-13T07:12:29Z</time>
      </trkpt>
      <trkpt lat="37.55646999925375" lon="-1.818832000717521">
        <ele>502.43000000000001</ele>
        <time>2025-05-13T07:12:36Z</time>
      </trkpt>
      <trkpt lat="37.560505969449878" lon="-1.820066990330815">
        <ele>516.37</ele>
        <time>2025-05-13T07:12:50Z</time>
      </trkpt>
      <trkpt lat="37.562827002257109" lon="-1.820704014971852">
        <ele>511.56</ele>
        <time>2025-05-13T07:12:58Z</time>
      </trkpt>
      <trkpt lat="37.563121961429715" lon="-1.820722036063671">
        <ele>510.12</ele>
        <time>2025-05-13T07:12:59Z</time>
      </trkpt>
      <trkpt lat="37.564823990687728" lon="-1.820275029167533">
        <ele>502.91000000000003</ele>
        <time>2025-05-13T07:13:05Z</time>
      </trkpt>
      <trkpt lat="37.566034002229571" lon="-1.819270960986614">
        <ele>500.98000000000002</ele>
        <time>2025-05-13T07:13:10Z</time>
      </trkpt>
      <trkpt lat="37.566928016021848" lon="-1.817837990820408">
        <ele>502.91000000000003</ele>
        <time>2025-05-13T07:13:15Z</time>
      </trkpt>
      <trkpt lat="37.567165978252888" lon="-1.81717598810792">
        <ele>504.35000000000002</ele>
        <time>2025-05-13T07:13:17Z</time>
      </trkpt>
      <trkpt lat="37.567267986014485" lon="-1.816830988973379">
        <ele>504.82999999999998</ele>
        <time>2025-05-13T07:13:18Z</time>
      </trkpt>
      <trkpt lat="37.5674709957093" lon="-1.814615987241268">
        <ele>511.07999999999998</ele>
        <time>2025-05-13T07:13:24Z</time>
      </trkpt>
      <trkpt lat="37.567688003182411" lon="-1.812012987211347">
        <ele>514.91999999999996</ele>
        <time>2025-05-13T07:13:31Z</time>
      </trkpt>
      <trkpt lat="37.568318992853165" lon="-1.809922959655523">
        <ele>513</ele>
        <time>2025-05-13T07:13:37Z</time>
      </trkpt>
      <trkpt lat="37.569518024101853" lon="-1.807775013148785">
        <ele>505.31</ele>
        <time>2025-05-13T07:13:44Z</time>
      </trkpt>
      <trkpt lat="37.571266992017627" lon="-1.805770983919501">
        <ele>492.81</ele>
        <time>2025-05-13T07:13:52Z</time>
      </trkpt>
      <trkpt lat="37.572257984429598" lon="-1.804181020706892">
        <ele>483.19999999999999</ele>
        <time>2025-05-13T07:13:58Z</time>
      </trkpt>
      <trkpt lat="37.573229027912021" lon="-1.801885971799493">
        <ele>471.18000000000001</ele>
        <time>2025-05-13T07:14:06Z</time>
      </trkpt>
      <trkpt lat="37.574384976178408" lon="-1.799780018627644">
        <ele>459.64999999999998</ele>
        <time>2025-05-13T07:14:14Z</time>
      </trkpt>
      <trkpt lat="37.575931018218398" lon="-1.797960978001356">
        <ele>450.02999999999997</ele>
        <time>2025-05-13T07:14:22Z</time>
      </trkpt>
      <trkpt lat="37.577852988615632" lon="-1.795549001544714">
        <ele>442.81999999999999</ele>
        <time>2025-05-13T07:14:32Z</time>
      </trkpt>
      <trkpt lat="37.579614026471972" lon="-1.792696975171566">
        <ele>435.13</ele>
        <time>2025-05-13T07:14:43Z</time>
      </trkpt>
      <trkpt lat="37.581446981057525" lon="-1.790741980075836">
        <ele>431.29000000000002</ele>
        <time>2025-05-13T07:14:52Z</time>
      </trkpt>
      <trkpt lat="37.58386499248445" lon="-1.788129005581141">
        <ele>424.56</ele>
        <time>2025-05-13T07:15:04Z</time>
      </trkpt>
      <trkpt lat="37.584706032648683" lon="-1.786418007686734">
        <ele>419.26999999999998</ele>
        <time>2025-05-13T07:15:10Z</time>
      </trkpt>
      <trkpt lat="37.585636004805565" lon="-1.784343989565969">
        <ele>411.57999999999998</ele>
        <time>2025-05-13T07:15:17Z</time>
      </trkpt>
      <trkpt lat="37.587005021050572" lon="-1.782701974734664">
        <ele>406.76999999999998</ele>
        <time>2025-05-13T07:15:24Z</time>
      </trkpt>
      <trkpt lat="37.589424960315228" lon="-1.780188996344805">
        <ele>405.32999999999998</ele>
        <time>2025-05-13T07:15:36Z</time>
      </trkpt>
      <trkpt lat="37.592231975868344" lon="-1.777286008000374">
        <ele>403.88999999999999</ele>
        <time>2025-05-13T07:15:50Z</time>
      </trkpt>
      <trkpt lat="37.595018036663532" lon="-1.774393999949098">
        <ele>398.60000000000002</ele>
        <time>2025-05-13T07:16:04Z</time>
      </trkpt>
      <trkpt lat="37.597609972581267" lon="-1.771701984107494">
        <ele>396.19999999999999</ele>
        <time>2025-05-13T07:16:17Z</time>
      </trkpt>
      <trkpt lat="37.599491961300373" lon="-1.769762998446822">
        <ele>393.31999999999999</ele>
        <time>2025-05-13T07:16:26Z</time>
      </trkpt>
      <trkpt lat="37.601494984701276" lon="-1.767687974497676">
        <ele>392.83999999999997</ele>
        <time>2025-05-13T07:16:36Z</time>
      </trkpt>
      <trkpt lat="37.603868991136551" lon="-1.765236016362906">
        <ele>386.58999999999997</ele>
        <time>2025-05-13T07:16:47Z</time>
      </trkpt>
      <trkpt lat="37.606990998610854" lon="-1.761848973110318">
        <ele>381.30000000000001</ele>
        <time>2025-05-13T07:17:01Z</time>
      </trkpt>
      <trkpt lat="37.610196992754936" lon="-1.758524039760232">
        <ele>383.22000000000003</ele>
        <time>2025-05-13T07:17:15Z</time>
      </trkpt>
      <trkpt lat="37.612726986408234" lon="-1.75592003390193">
        <ele>377.94</ele>
        <time>2025-05-13T07:17:26Z</time>
      </trkpt>
      <trkpt lat="37.616840992122889" lon="-1.75166797824204">
        <ele>364.48000000000002</ele>
        <time>2025-05-13T07:17:44Z</time>
      </trkpt>
      <trkpt lat="37.618591971695423" lon="-1.750311031937599">
        <ele>360.63</ele>
        <time>2025-05-13T07:17:51Z</time>
      </trkpt>
      <trkpt lat="37.619967022910714" lon="-1.749694040045142">
        <ele>359.67000000000002</ele>
        <time>2025-05-13T07:17:56Z</time>
      </trkpt>
      <trkpt lat="37.622309010475874" lon="-1.749205039814115">
        <ele>360.63</ele>
        <time>2025-05-13T07:18:04Z</time>
      </trkpt>
      <trkpt lat="37.625194983556867" lon="-1.74833700992167">
        <ele>362.06999999999999</ele>
        <time>2025-05-13T07:18:14Z</time>
      </trkpt>
      <trkpt lat="37.627618024125695" lon="-1.746958019211888">
        <ele>360.63</ele>
        <time>2025-05-13T07:18:23Z</time>
      </trkpt>
      <trkpt lat="37.629582993686199" lon="-1.745316004380584">
        <ele>361.58999999999997</ele>
        <time>2025-05-13T07:18:31Z</time>
      </trkpt>
      <trkpt lat="37.632658984512091" lon="-1.742452997714281">
        <ele>369.27999999999997</ele>
        <time>2025-05-13T07:18:44Z</time>
      </trkpt>
      <trkpt lat="37.635038020089269" lon="-1.740953978151083">
        <ele>372.64999999999998</ele>
        <time>2025-05-13T07:18:53Z</time>
      </trkpt>
      <trkpt lat="37.637609001249075" lon="-1.740026017650962">
        <ele>372.64999999999998</ele>
        <time>2025-05-13T07:19:02Z</time>
      </trkpt>
      <trkpt lat="37.640239996835589" lon="-1.739633996039629">
        <ele>376.00999999999999</ele>
        <time>2025-05-13T07:19:11Z</time>
      </trkpt>
      <trkpt lat="37.642258023843169" lon="-1.739166034385562">
        <ele>382.25999999999999</ele>
        <time>2025-05-13T07:19:18Z</time>
      </trkpt>
      <trkpt lat="37.644104976207018" lon="-1.73802400007844">
        <ele>388.02999999999997</ele>
        <time>2025-05-13T07:19:25Z</time>
      </trkpt>
      <trkpt lat="37.645445996895432" lon="-1.736526992172003">
        <ele>391.38999999999999</ele>
        <time>2025-05-13T07:19:31Z</time>
      </trkpt>
      <trkpt lat="37.646484011784196" lon="-1.734689008444548">
        <ele>389.47000000000003</ele>
        <time>2025-05-13T07:19:37Z</time>
      </trkpt>
      <trkpt lat="37.647176021710038" lon="-1.732230009511113">
        <ele>382.74000000000001</ele>
        <time>2025-05-13T07:19:44Z</time>
      </trkpt>
      <trkpt lat="37.647928968071938" lon="-1.729441015049815">
        <ele>374.56999999999999</ele>
        <time>2025-05-13T07:19:52Z</time>
      </trkpt>
      <trkpt lat="37.648859024047852" lon="-1.727734040468931">
        <ele>371.20999999999998</ele>
        <time>2025-05-13T07:19:58Z</time>
      </trkpt>
      <trkpt lat="37.650543032214046" lon="-1.725523984059691">
        <ele>365.92000000000002</ele>
        <time>2025-05-13T07:20:07Z</time>
      </trkpt>
      <trkpt lat="37.651268988847733" lon="-1.723708966746926">
        <ele>362.06999999999999</ele>
        <time>2025-05-13T07:20:13Z</time>
      </trkpt>
      <trkpt lat="37.652215976268053" lon="-1.720927013084292">
        <ele>357.26999999999998</ele>
        <time>2025-05-13T07:20:22Z</time>
      </trkpt>
      <trkpt lat="37.653320040553808" lon="-1.719531007111073">
        <ele>356.31</ele>
        <time>2025-05-13T07:20:28Z</time>
      </trkpt>
      <trkpt lat="37.654727026820183" lon="-1.718713017180562">
        <ele>359.67000000000002</ele>
        <time>2025-05-13T07:20:34Z</time>
      </trkpt>
      <trkpt lat="37.656541038304567" lon="-1.718230973929167">
        <ele>368.80000000000001</ele>
        <time>2025-05-13T07:20:41Z</time>
      </trkpt>
      <trkpt lat="37.658883025869727" lon="-1.71763401478529">
        <ele>376.00999999999999</ele>
        <time>2025-05-13T07:20:50Z</time>
      </trkpt>
      <trkpt lat="37.660502996295691" lon="-1.716792974621058">
        <ele>376.97000000000003</ele>
        <time>2025-05-13T07:20:56Z</time>
      </trkpt>
      <trkpt lat="37.661575963720679" lon="-1.715523032471538">
        <ele>376.97000000000003</ele>
        <time>2025-05-13T07:21:01Z</time>
      </trkpt>
      <trkpt lat="37.662621019408107" lon="-1.714010015130043">
        <ele>376.97000000000003</ele>
        <time>2025-05-13T07:21:07Z</time>
      </trkpt>
      <trkpt lat="37.664719009771943" lon="-1.711155977100134">
        <ele>378.42000000000002</ele>
        <time>2025-05-13T07:21:19Z</time>
      </trkpt>
      <trkpt lat="37.665744032710791" lon="-1.710230028256774">
        <ele>379.86000000000001</ele>
        <time>2025-05-13T07:21:25Z</time>
      </trkpt>
      <trkpt lat="37.667330978438258" lon="-1.709591997787356">
        <ele>381.30000000000001</ele>
        <time>2025-05-13T07:21:34Z</time>
      </trkpt>
      <trkpt lat="37.668823963031173" lon="-1.709497030824423">
        <ele>381.30000000000001</ele>
        <time>2025-05-13T07:21:42Z</time>
      </trkpt>
      <trkpt lat="37.670479975640774" lon="-1.709181033074856">
        <ele>381.30000000000001</ele>
        <time>2025-05-13T07:21:51Z</time>
      </trkpt>
      <trkpt lat="37.672215029597282" lon="-1.708161039277911">
        <ele>384.18000000000001</ele>
        <time>2025-05-13T07:22:01Z</time>
      </trkpt>
      <trkpt lat="37.673655962571502" lon="-1.707467017695308">
        <ele>386.11000000000001</ele>
        <time>2025-05-13T07:22:09Z</time>
      </trkpt>
      <trkpt lat="37.675093961879611" lon="-1.707393005490303">
        <ele>386.11000000000001</ele>
        <time>2025-05-13T07:22:17Z</time>
      </trkpt>
      <trkpt lat="37.679828982800245" lon="-1.70990196056664">
        <ele>358.70999999999998</ele>
        <time>2025-05-13T07:22:42Z</time>
      </trkpt>
      <trkpt lat="37.681925967335701" lon="-1.710517024621368">
        <ele>357.26999999999998</ele>
        <time>2025-05-13T07:22:53Z</time>
      </trkpt>
      <trkpt lat="37.684265021234751" lon="-1.710626995190978">
        <ele>348.13</ele>
        <time>2025-05-13T07:23:05Z</time>
      </trkpt>
      <trkpt lat="37.686336021870375" lon="-1.710548959672451">
        <ele>344.76999999999998</ele>
        <time>2025-05-13T07:23:16Z</time>
      </trkpt>
      <trkpt lat="37.689282009378076" lon="-1.710398001596332">
        <ele>347.17000000000002</ele>
        <time>2025-05-13T07:23:29Z</time>
      </trkpt>
      <trkpt lat="37.69092402420938" lon="-1.709896009415388">
        <ele>348.13</ele>
        <time>2025-05-13T07:23:36Z</time>
      </trkpt>
      <trkpt lat="37.692454978823662" lon="-1.70878398232162">
        <ele>350.06</ele>
        <time>2025-05-13T07:23:43Z</time>
      </trkpt>
      <trkpt lat="37.693656021729112" lon="-1.70727800577879">
        <ele>352.45999999999998</ele>
        <time>2025-05-13T07:23:50Z</time>
      </trkpt>
      <trkpt lat="37.695024032145739" lon="-1.704833004623652">
        <ele>356.79000000000002</ele>
        <time>2025-05-13T07:24:00Z</time>
      </trkpt>
      <trkpt lat="37.696070009842515" lon="-1.702425973489881">
        <ele>359.19</ele>
        <time>2025-05-13T07:24:09Z</time>
      </trkpt>
      <trkpt lat="37.696452978998423" lon="-1.700336029753089">
        <ele>367.36000000000001</ele>
        <time>2025-05-13T07:24:16Z</time>
      </trkpt>
      <trkpt lat="37.696324987336993" lon="-1.697921035811305">
        <ele>377.94</ele>
        <time>2025-05-13T07:24:24Z</time>
      </trkpt>
      <trkpt lat="37.69567103125155" lon="-1.695501012727618">
        <ele>389.47000000000003</ele>
        <time>2025-05-13T07:24:32Z</time>
      </trkpt>
      <trkpt lat="37.69459999166429" lon="-1.691953958943486">
        <ele>406.29000000000002</ele>
        <time>2025-05-13T07:24:44Z</time>
      </trkpt>
      <trkpt lat="37.693674964830279" lon="-1.690015979111195">
        <ele>413.98000000000002</ele>
        <time>2025-05-13T07:24:51Z</time>
      </trkpt>
      <trkpt lat="37.692446010187268" lon="-1.688494998961687">
        <ele>418.31</ele>
        <time>2025-05-13T07:24:58Z</time>
      </trkpt>
      <trkpt lat="37.69073199480772" lon="-1.686212019994855">
        <ele>418.31</ele>
        <time>2025-05-13T07:25:08Z</time>
      </trkpt>
      <trkpt lat="37.69015297293663" lon="-1.684470009058714">
        <ele>413.98000000000002</ele>
        <time>2025-05-13T07:25:14Z</time>
      </trkpt>
      <trkpt lat="37.690088013187051" lon="-1.682617021724582">
        <ele>405.81</ele>
        <time>2025-05-13T07:25:20Z</time>
      </trkpt>
      <trkpt lat="37.690462013706565" lon="-1.680817008018494">
        <ele>395.24000000000001</ele>
        <time>2025-05-13T07:25:26Z</time>
      </trkpt>
      <trkpt lat="37.691205991432071" lon="-1.678583985194564">
        <ele>380.81999999999999</ele>
        <time>2025-05-13T07:25:34Z</time>
      </trkpt>
      <trkpt lat="37.691477984189987" lon="-1.676450036466122">
        <ele>369.27999999999997</ele>
        <time>2025-05-13T07:25:41Z</time>
      </trkpt>
      <trkpt lat="37.691605975851417" lon="-1.672842968255281">
        <ele>351.5</ele>
        <time>2025-05-13T07:25:53Z</time>
      </trkpt>
      <trkpt lat="37.691971007734537" lon="-1.669272026047111">
        <ele>341.41000000000003</ele>
        <time>2025-05-13T07:26:05Z</time>
      </trkpt>
      <trkpt lat="37.692548017948866" lon="-1.666528964415193">
        <ele>340.44</ele>
        <time>2025-05-13T07:26:14Z</time>
      </trkpt>
      <trkpt lat="37.693676976487041" lon="-1.66297797113657">
        <ele>339.48000000000002</ele>
        <time>2025-05-13T07:26:26Z</time>
      </trkpt>
      <trkpt lat="37.695010034367442" lon="-1.660002982243896">
        <ele>336.12</ele>
        <time>2025-05-13T07:26:37Z</time>
      </trkpt>
      <trkpt lat="37.696482986211777" lon="-1.656808974221349">
        <ele>332.26999999999998</ele>
        <time>2025-05-13T07:26:49Z</time>
      </trkpt>
      <trkpt lat="37.697225036099553" lon="-1.654423987492919">
        <ele>329.87</ele>
        <time>2025-05-13T07:26:57Z</time>
      </trkpt>
      <trkpt lat="37.697661984711885" lon="-1.651863986626267">
        <ele>328.43000000000001</ele>
        <time>2025-05-13T07:27:05Z</time>
      </trkpt>
      <trkpt lat="37.698261961340904" lon="-1.648993017151952">
        <ele>327.94999999999999</ele>
        <time>2025-05-13T07:27:13Z</time>
      </trkpt>
      <trkpt lat="37.699417993426323" lon="-1.646404014900327">
        <ele>329.38999999999999</ele>
        <time>2025-05-13T07:27:21Z</time>
      </trkpt>
      <trkpt lat="37.701157992705703" lon="-1.643861029297113">
        <ele>332.75</ele>
        <time>2025-05-13T07:27:30Z</time>
      </trkpt>
      <trkpt lat="37.702730018645525" lon="-1.641159961000085">
        <ele>331.79000000000002</ele>
        <time>2025-05-13T07:27:39Z</time>
      </trkpt>
      <trkpt lat="37.703486988320947" lon="-1.638748990371823">
        <ele>331.79000000000002</ele>
        <time>2025-05-13T07:27:46Z</time>
      </trkpt>
      <trkpt lat="37.70433297380805" lon="-1.635593036189675">
        <ele>332.26999999999998</ele>
        <time>2025-05-13T07:27:55Z</time>
      </trkpt>
      <trkpt lat="37.705442989245057" lon="-1.632156036794186">
        <ele>333.23000000000002</ele>
        <time>2025-05-13T07:28:05Z</time>
      </trkpt>
      <trkpt lat="37.705796035006642" lon="-1.629206025972962">
        <ele>331.79000000000002</ele>
        <time>2025-05-13T07:28:13Z</time>
      </trkpt>
      <trkpt lat="37.705708025023341" lon="-1.626381995156407">
        <ele>330.82999999999998</ele>
        <time>2025-05-13T07:28:21Z</time>
      </trkpt>
      <trkpt lat="37.705827970057726" lon="-1.623528962954879">
        <ele>329.38999999999999</ele>
        <time>2025-05-13T07:28:29Z</time>
      </trkpt>
      <trkpt lat="37.7063939999789" lon="-1.620647013187408">
        <ele>328.43000000000001</ele>
        <time>2025-05-13T07:28:37Z</time>
      </trkpt>
      <trkpt lat="37.707158010452986" lon="-1.61665303632617">
        <ele>326.99000000000001</ele>
        <time>2025-05-13T07:28:48Z</time>
      </trkpt>
      <trkpt lat="37.707831999287009" lon="-1.613038005307317">
        <ele>321.69999999999999</ele>
        <time>2025-05-13T07:28:58Z</time>
      </trkpt>
      <trkpt lat="37.708721989765763" lon="-1.610299972817302">
        <ele>318.81</ele>
        <time>2025-05-13T07:29:06Z</time>
      </trkpt>
      <trkpt lat="37.710097040981054" lon="-1.607902999967337">
        <ele>320.74000000000001</ele>
        <time>2025-05-13T07:29:14Z</time>
      </trkpt>
      <trkpt lat="37.712059998884797" lon="-1.605124985799193">
        <ele>327.94999999999999</ele>
        <time>2025-05-13T07:29:24Z</time>
      </trkpt>
      <trkpt lat="37.713488023728132" lon="-1.60228000022471">
        <ele>331.79000000000002</ele>
        <time>2025-05-13T07:29:33Z</time>
      </trkpt>
      <trkpt lat="37.714367033913732" lon="-1.599505003541708">
        <ele>324.57999999999998</ele>
        <time>2025-05-13T07:29:41Z</time>
      </trkpt>
      <trkpt lat="37.714831978082657" lon="-1.596586005762219">
        <ele>315.44999999999999</ele>
        <time>2025-05-13T07:29:49Z</time>
      </trkpt>
      <trkpt lat="37.71496600471437" lon="-1.592868966981769">
        <ele>303.91000000000003</ele>
        <time>2025-05-13T07:29:59Z</time>
      </trkpt>
      <trkpt lat="37.715253001078963" lon="-1.58842102624476">
        <ele>290.45999999999998</ele>
        <time>2025-05-13T07:30:11Z</time>
      </trkpt>
      <trkpt lat="37.716024974361062" lon="-1.584451021626592">
        <ele>278.44</ele>
        <time>2025-05-13T07:30:22Z</time>
      </trkpt>
      <trkpt lat="37.717145970091224" lon="-1.581015028059483">
        <ele>273.14999999999998</ele>
        <time>2025-05-13T07:30:32Z</time>
      </trkpt>
      <trkpt lat="37.719043968245387" lon="-1.576805971562862">
        <ele>274.58999999999997</ele>
        <time>2025-05-13T07:30:45Z</time>
      </trkpt>
      <trkpt lat="37.721468014642596" lon="-1.571627967059612">
        <ele>264.5</ele>
        <time>2025-05-13T07:31:01Z</time>
      </trkpt>
      <trkpt lat="37.723101982846856" lon="-1.568122990429401">
        <ele>254.41</ele>
        <time>2025-05-13T07:31:12Z</time>
      </trkpt>
      <trkpt lat="37.725352020934224" lon="-1.563297025859356">
        <ele>252.47999999999999</ele>
        <time>2025-05-13T07:31:27Z</time>
      </trkpt>
      <trkpt lat="37.727597029879689" lon="-1.558481035754085">
        <ele>253.44</ele>
        <time>2025-05-13T07:31:42Z</time>
      </trkpt>
      <trkpt lat="37.728940984234214" lon="-1.555597996339202">
        <ele>255.84999999999999</ele>
        <time>2025-05-13T07:31:51Z</time>
      </trkpt>
      <trkpt lat="37.729091020300984" lon="-1.555275963619351">
        <ele>256.32999999999998</ele>
        <time>2025-05-13T07:31:52Z</time>
      </trkpt>
      <trkpt lat="37.730901008471847" lon="-1.550980992615223">
        <ele>258.73000000000002</ele>
        <time>2025-05-13T07:32:05Z</time>
      </trkpt>
      <trkpt lat="37.731340974569321" lon="-1.548447981476784">
        <ele>257.29000000000002</ele>
        <time>2025-05-13T07:32:12Z</time>
      </trkpt>
      <trkpt lat="37.731269979849458" lon="-1.54584095813334">
        <ele>257.29000000000002</ele>
        <time>2025-05-13T07:32:19Z</time>
      </trkpt>
      <trkpt lat="37.731198985129595" lon="-1.542875021696091">
        <ele>258.25</ele>
        <time>2025-05-13T07:32:27Z</time>
      </trkpt>
      <trkpt lat="37.731577008962631" lon="-1.540330024436116">
        <ele>260.17000000000002</ele>
        <time>2025-05-13T07:32:34Z</time>
      </trkpt>
      <trkpt lat="37.732449984177947" lon="-1.537969009950757">
        <ele>262.10000000000002</ele>
        <time>2025-05-13T07:32:41Z</time>
      </trkpt>
      <trkpt lat="37.73376896046102" lon="-1.535959029570222">
        <ele>264.01999999999998</ele>
        <time>2025-05-13T07:32:48Z</time>
      </trkpt>
      <trkpt lat="37.735461015254259" lon="-1.534462021663785">
        <ele>265.45999999999998</ele>
        <time>2025-05-13T07:32:55Z</time>
      </trkpt>
      <trkpt lat="37.738181026652455" lon="-1.53221701271832">
        <ele>267.86000000000001</ele>
        <time>2025-05-13T07:33:06Z</time>
      </trkpt>
      <trkpt lat="37.739611985161901" lon="-1.530363019555807">
        <ele>268.82999999999998</ele>
        <time>2025-05-13T07:33:13Z</time>
      </trkpt>
      <trkpt lat="37.740924004465342" lon="-1.52787703089416">
        <ele>268.35000000000002</ele>
        <time>2025-05-13T07:33:21Z</time>
      </trkpt>
      <trkpt lat="37.742278017103672" lon="-1.524125961586833">
        <ele>260.17000000000002</ele>
        <time>2025-05-13T07:33:32Z</time>
      </trkpt>
      <trkpt lat="37.743244031444192" lon="-1.519817998632789">
        <ele>251.03999999999999</ele>
        <time>2025-05-13T07:33:44Z</time>
      </trkpt>
      <trkpt lat="37.743594981729984" lon="-1.517003020271659">
        <ele>244.31</ele>
        <time>2025-05-13T07:33:52Z</time>
      </trkpt>
      <trkpt lat="37.743882983922958" lon="-1.513111973181367">
        <ele>240.94999999999999</ele>
        <time>2025-05-13T07:34:03Z</time>
      </trkpt>
      <trkpt lat="37.744168974459171" lon="-1.508039999753237">
        <ele>240.94999999999999</ele>
        <time>2025-05-13T07:34:17Z</time>
      </trkpt>
      <trkpt lat="37.744399979710579" lon="-1.504097990691662">
        <ele>234.69999999999999</ele>
        <time>2025-05-13T07:34:28Z</time>
      </trkpt>
      <trkpt lat="37.744785966351628" lon="-1.499459026381373">
        <ele>227.49000000000001</ele>
        <time>2025-05-13T07:34:41Z</time>
      </trkpt>
      <trkpt lat="37.745503038167953" lon="-1.493569985032082">
        <ele>223.63999999999999</ele>
        <time>2025-05-13T07:34:57Z</time>
      </trkpt>
      <trkpt lat="37.745875027030706" lon="-1.491376021876931">
        <ele>222.19999999999999</ele>
        <time>2025-05-13T07:35:03Z</time>
      </trkpt>
      <trkpt lat="37.745950967073441" lon="-1.491015013307333">
        <ele>221.72</ele>
        <time>2025-05-13T07:35:04Z</time>
      </trkpt>
      <trkpt lat="37.747180005535483" lon="-1.485655959695578">
        <ele>218.84</ele>
        <time>2025-05-13T07:35:19Z</time>
      </trkpt>
      <trkpt lat="37.74846201762557" lon="-1.48149199783802">
        <ele>216.91</ele>
        <time>2025-05-13T07:35:31Z</time>
      </trkpt>
      <trkpt lat="37.75043897330761" lon="-1.476476015523076">
        <ele>215.94999999999999</ele>
        <time>2025-05-13T07:35:46Z</time>
      </trkpt>
      <trkpt lat="37.752107977867126" lon="-1.472995011135936">
        <ele>213.06999999999999</ele>
        <time>2025-05-13T07:35:57Z</time>
      </trkpt>
      <trkpt lat="37.754001030698419" lon="-1.469648033380508">
        <ele>209.69999999999999</ele>
        <time>2025-05-13T07:36:08Z</time>
      </trkpt>
      <trkpt lat="37.756472015753388" lon="-1.465915990993381">
        <ele>206.81999999999999</ele>
        <time>2025-05-13T07:36:21Z</time>
      </trkpt>
      <trkpt lat="37.759005026891828" lon="-1.462789960205555">
        <ele>206.34</ele>
        <time>2025-05-13T07:36:33Z</time>
      </trkpt>
      <trkpt lat="37.761769965291023" lon="-1.459970036521554">
        <ele>204.41999999999999</ele>
        <time>2025-05-13T07:36:45Z</time>
      </trkpt>
      <trkpt lat="37.764998003840446" lon="-1.457307022064924">
        <ele>202.49000000000001</ele>
        <time>2025-05-13T07:36:58Z</time>
      </trkpt>
      <trkpt lat="37.768098972737789" lon="-1.455114986747503">
        <ele>201.05000000000001</ele>
        <time>2025-05-13T07:37:10Z</time>
      </trkpt>
      <trkpt lat="37.772319009527564" lon="-1.452415008097887">
        <ele>198.65000000000001</ele>
        <time>2025-05-13T07:37:26Z</time>
      </trkpt>
      <trkpt lat="37.77495302259922" lon="-1.450706021860242">
        <ele>198.16999999999999</ele>
        <time>2025-05-13T07:37:36Z</time>
      </trkpt>
      <trkpt lat="37.778554977849126" lon="-1.44810201600194">
        <ele>194.80000000000001</ele>
        <time>2025-05-13T07:37:50Z</time>
      </trkpt>
      <trkpt lat="37.781966999173164" lon="-1.445126021280885">
        <ele>192.88</ele>
        <time>2025-05-13T07:38:04Z</time>
      </trkpt>
      <trkpt lat="37.784227011725307" lon="-1.442694012075663">
        <ele>195.28</ele>
        <time>2025-05-13T07:38:14Z</time>
      </trkpt>
      <trkpt lat="37.786888014525175" lon="-1.439207978546619">
        <ele>190.96000000000001</ele>
        <time>2025-05-13T07:38:27Z</time>
      </trkpt>
      <trkpt lat="37.789296973496675" lon="-1.435445006936789">
        <ele>187.11000000000001</ele>
        <time>2025-05-13T07:38:40Z</time>
      </trkpt>
      <trkpt lat="37.792255030944943" lon="-1.430799001827836">
        <ele>184.22999999999999</ele>
        <time>2025-05-13T07:38:56Z</time>
      </trkpt>
      <trkpt lat="37.794468021020293" lon="-1.428320975974202">
        <ele>181.34999999999999</ele>
        <time>2025-05-13T07:39:06Z</time>
      </trkpt>
      <trkpt lat="37.796980999410152" lon="-1.426353994756937">
        <ele>179.41999999999999</ele>
        <time>2025-05-13T07:39:16Z</time>
      </trkpt>
      <trkpt lat="37.799715008586645" lon="-1.424921024590731">
        <ele>177.5</ele>
        <time>2025-05-13T07:39:26Z</time>
      </trkpt>
      <trkpt lat="37.802266040816903" lon="-1.424170006066561">
        <ele>176.06</ele>
        <time>2025-05-13T07:39:35Z</time>
      </trkpt>
      <trkpt lat="37.805512016639113" lon="-1.423697015270591">
        <ele>174.62</ele>
        <time>2025-05-13T07:39:46Z</time>
      </trkpt>
      <trkpt lat="37.809023028239608" lon="-1.423011040315032">
        <ele>175.09999999999999</ele>
        <time>2025-05-13T07:39:58Z</time>
      </trkpt>
      <trkpt lat="37.811855021864176" lon="-1.42193497158587">
        <ele>175.58000000000001</ele>
        <time>2025-05-13T07:40:08Z</time>
      </trkpt>
      <trkpt lat="37.814517030492425" lon="-1.420309972018004">
        <ele>174.62</ele>
        <time>2025-05-13T07:40:18Z</time>
      </trkpt>
      <trkpt lat="37.81719203107059" lon="-1.417986005544663">
        <ele>172.21000000000001</ele>
        <time>2025-05-13T07:40:29Z</time>
      </trkpt>
      <trkpt lat="37.819819003343582" lon="-1.414972962811589">
        <ele>170.28999999999999</ele>
        <time>2025-05-13T07:40:41Z</time>
      </trkpt>
      <trkpt lat="37.822598023340106" lon="-1.411098008975387">
        <ele>169.81</ele>
        <time>2025-05-13T07:40:55Z</time>
      </trkpt>
      <trkpt lat="37.825218960642815" lon="-1.407535029575229">
        <ele>168.84999999999999</ele>
        <time>2025-05-13T07:41:08Z</time>
      </trkpt>
      <trkpt lat="37.827910976484418" lon="-1.404664982110262">
        <ele>163.08000000000001</ele>
        <time>2025-05-13T07:41:20Z</time>
      </trkpt>
      <trkpt lat="37.830918990075588" lon="-1.402259962633252">
        <ele>159.72</ele>
        <time>2025-05-13T07:41:32Z</time>
      </trkpt>
      <trkpt lat="37.83412397839129" lon="-1.400346038863063">
        <ele>159.72</ele>
        <time>2025-05-13T07:41:44Z</time>
      </trkpt>
      <trkpt lat="37.837500041350722" lon="-1.398972999304533">
        <ele>159.24000000000001</ele>
        <time>2025-05-13T07:41:56Z</time>
      </trkpt>
      <trkpt lat="37.84099898301065" lon="-1.398199014365673">
        <ele>157.31</ele>
        <time>2025-05-13T07:42:08Z</time>
      </trkpt>
      <trkpt lat="37.842737976461649" lon="-1.398031963035464">
        <ele>160.68000000000001</ele>
        <time>2025-05-13T07:42:14Z</time>
      </trkpt>
      <trkpt lat="37.845091028138995" lon="-1.397990975528956">
        <ele>163.56</ele>
        <time>2025-05-13T07:42:22Z</time>
      </trkpt>
      <trkpt lat="37.847386999055743" lon="-1.398231033235788">
        <ele>162.12</ele>
        <time>2025-05-13T07:42:30Z</time>
      </trkpt>
      <trkpt lat="37.849801992997527" lon="-1.39875297434628">
        <ele>163.08000000000001</ele>
        <time>2025-05-13T07:42:38Z</time>
      </trkpt>
      <trkpt lat="37.853715000674129" lon="-1.399843040853739">
        <ele>166.93000000000001</ele>
        <time>2025-05-13T07:42:52Z</time>
      </trkpt>
      <trkpt lat="37.855764962732792" lon="-1.399947982281447">
        <ele>174.62</ele>
        <time>2025-05-13T07:42:59Z</time>
      </trkpt>
      <trkpt lat="37.857798999175429" lon="-1.399478008970618">
        <ele>183.27000000000001</ele>
        <time>2025-05-13T07:43:06Z</time>
      </trkpt>
      <trkpt lat="37.859686017036438" lon="-1.398405963554978">
        <ele>188.56</ele>
        <time>2025-05-13T07:43:13Z</time>
      </trkpt>
      <trkpt lat="37.8613440413028" lon="-1.396809965372086">
        <ele>190.47999999999999</ele>
        <time>2025-05-13T07:43:20Z</time>
      </trkpt>
      <trkpt lat="37.862648013979197" lon="-1.394771989434958">
        <ele>187.59</ele>
        <time>2025-05-13T07:43:27Z</time>
      </trkpt>
      <trkpt lat="37.864760002121329" lon="-1.390720009803772">
        <ele>180.38</ele>
        <time>2025-05-13T07:43:40Z</time>
      </trkpt>
      <trkpt lat="37.866852963343263" lon="-1.386667024344206">
        <ele>176.06</ele>
        <time>2025-05-13T07:43:53Z</time>
      </trkpt>
      <trkpt lat="37.869420005008578" lon="-1.381675014272332">
        <ele>175.58000000000001</ele>
        <time>2025-05-13T07:44:09Z</time>
      </trkpt>
      <trkpt lat="37.872146973386407" lon="-1.37638796120882">
        <ele>177.5</ele>
        <time>2025-05-13T07:44:26Z</time>
      </trkpt>
      <trkpt lat="37.874377984553576" lon="-1.372040016576648">
        <ele>183.75</ele>
        <time>2025-05-13T07:44:40Z</time>
      </trkpt>
      <trkpt lat="37.876364998519421" lon="-1.368152992799878">
        <ele>184.71000000000001</ele>
        <time>2025-05-13T07:44:53Z</time>
      </trkpt>
      <trkpt lat="37.877883967012167" lon="-1.36540599167347">
        <ele>184.71000000000001</ele>
        <time>2025-05-13T07:45:05Z</time>
      </trkpt>
      <trkpt lat="37.879180982708931" lon="-1.36385802179575">
        <ele>185.19</ele>
        <time>2025-05-13T07:45:13Z</time>
      </trkpt>
      <trkpt lat="37.880658963695168" lon="-1.362684974446893">
        <ele>185.66999999999999</ele>
        <time>2025-05-13T07:45:21Z</time>
      </trkpt>
      <trkpt lat="37.882627034559846" lon="-1.361467000097036">
        <ele>186.15000000000001</ele>
        <time>2025-05-13T07:45:31Z</time>
      </trkpt>
      <trkpt lat="37.884973967447877" lon="-1.360171996057034">
        <ele>185.66999999999999</ele>
        <time>2025-05-13T07:45:43Z</time>
      </trkpt>
      <trkpt lat="37.886960981413722" lon="-1.358997020870447">
        <ele>186.63</ele>
        <time>2025-05-13T07:45:54Z</time>
      </trkpt>
      <trkpt lat="37.888838024809957" lon="-1.357446033507586">
        <ele>185.19</ele>
        <time>2025-05-13T07:46:05Z</time>
      </trkpt>
      <trkpt lat="37.890319023281336" lon="-1.355573013424873">
        <ele>184.22999999999999</ele>
        <time>2025-05-13T07:46:15Z</time>
      </trkpt>
      <trkpt lat="37.891483018174767" lon="-1.353231025859714">
        <ele>182.78999999999999</ele>
        <time>2025-05-13T07:46:25Z</time>
      </trkpt>
      <trkpt lat="37.892131023108959" lon="-1.351019963622093">
        <ele>182.78999999999999</ele>
        <time>2025-05-13T07:46:34Z</time>
      </trkpt>
      <trkpt lat="37.892421958968043" lon="-1.348511008545756">
        <ele>182.31</ele>
        <time>2025-05-13T07:46:44Z</time>
      </trkpt>
      <trkpt lat="37.892658999189734" lon="-1.343892998993397">
        <ele>177.02000000000001</ele>
        <time>2025-05-13T07:47:02Z</time>
      </trkpt>
      <trkpt lat="37.892952030524611" lon="-1.341434000059962">
        <ele>172.69</ele>
        <time>2025-05-13T07:47:11Z</time>
      </trkpt>
      <trkpt lat="37.893667006865144" lon="-1.339106010273099">
        <ele>167.88999999999999</ele>
        <time>2025-05-13T07:47:20Z</time>
      </trkpt>
      <trkpt lat="37.894747015088797" lon="-1.337072979658842">
        <ele>164.03999999999999</ele>
        <time>2025-05-13T07:47:29Z</time>
      </trkpt>
      <trkpt lat="37.896491037681699" lon="-1.334553966298699">
        <ele>160.19999999999999</ele>
        <time>2025-05-13T07:47:40Z</time>
      </trkpt>
      <trkpt lat="37.898201029747725" lon="-1.332078035920858">
        <ele>159.24000000000001</ele>
        <time>2025-05-13T07:47:49Z</time>
      </trkpt>
      <trkpt lat="37.900273036211729" lon="-1.328932978212833">
        <ele>159.24000000000001</ele>
        <time>2025-05-13T07:48:00Z</time>
      </trkpt>
      <trkpt lat="37.90205997414887" lon="-1.32617399096489">
        <ele>160.19999999999999</ele>
        <time>2025-05-13T07:48:10Z</time>
      </trkpt>
      <trkpt lat="37.903273003175855" lon="-1.324759041890502">
        <ele>159.24000000000001</ele>
        <time>2025-05-13T07:48:17Z</time>
      </trkpt>
      <trkpt lat="37.904685018584132" lon="-1.323199002072215">
        <ele>158.27000000000001</ele>
        <time>2025-05-13T07:48:25Z</time>
      </trkpt>
      <trkpt lat="37.906107008457184" lon="-1.32103999145329">
        <ele>155.87</ele>
        <time>2025-05-13T07:48:33Z</time>
      </trkpt>
      <trkpt lat="37.907912973314524" lon="-1.317642973735929">
        <ele>156.83000000000001</ele>
        <time>2025-05-13T07:48:44Z</time>
      </trkpt>
      <trkpt lat="37.910268036648631" lon="-1.31377698853612">
        <ele>156.83000000000001</ele>
        <time>2025-05-13T07:48:57Z</time>
      </trkpt>
      <trkpt lat="37.912632990628481" lon="-1.31040302105248">
        <ele>152.99000000000001</ele>
        <time>2025-05-13T07:49:09Z</time>
      </trkpt>
      <trkpt lat="37.915857005864382" lon="-1.305989027023315">
        <ele>144.81999999999999</ele>
        <time>2025-05-13T07:49:25Z</time>
      </trkpt>
      <trkpt lat="37.918856972828507" lon="-1.301833027973771">
        <ele>139.53</ele>
        <time>2025-05-13T07:49:40Z</time>
      </trkpt>
      <trkpt lat="37.919985009357333" lon="-1.299653984606266">
        <ele>139.53</ele>
        <time>2025-05-13T07:49:47Z</time>
      </trkpt>
      <trkpt lat="37.920711971819401" lon="-1.297207977622747">
        <ele>138.56999999999999</ele>
        <time>2025-05-13T07:49:54Z</time>
      </trkpt>
      <trkpt lat="37.921551000326872" lon="-1.293239984661341">
        <ele>136.16</ele>
        <time>2025-05-13T07:50:05Z</time>
      </trkpt>
      <trkpt lat="37.922516008839011" lon="-1.290920963510871">
        <ele>133.75999999999999</ele>
        <time>2025-05-13T07:50:12Z</time>
      </trkpt>
      <trkpt lat="37.923873038962483" lon="-1.288958005607128">
        <ele>130.88</ele>
        <time>2025-05-13T07:50:19Z</time>
      </trkpt>
      <trkpt lat="37.926287027075887" lon="-1.285896012559533">
        <ele>128.47</ele>
        <time>2025-05-13T07:50:30Z</time>
      </trkpt>
      <trkpt lat="37.928657010197639" lon="-1.28294700756669">
        <ele>127.98999999999999</ele>
        <time>2025-05-13T07:50:41Z</time>
      </trkpt>
      <trkpt lat="37.93093697167933" lon="-1.27998098731041">
        <ele>126.06999999999999</ele>
        <time>2025-05-13T07:50:52Z</time>
      </trkpt>
      <trkpt lat="37.933260016143322" lon="-1.2765640206635">
        <ele>125.59</ele>
        <time>2025-05-13T07:51:04Z</time>
      </trkpt>
      <trkpt lat="37.934770015999675" lon="-1.27437399700284">
        <ele>124.15000000000001</ele>
        <time>2025-05-13T07:51:12Z</time>
      </trkpt>
      <trkpt lat="37.93628697283566" lon="-1.27269702963531">
        <ele>123.67</ele>
        <time>2025-05-13T07:51:19Z</time>
      </trkpt>
      <trkpt lat="37.938294019550085" lon="-1.271356008946896">
        <ele>125.59</ele>
        <time>2025-05-13T07:51:27Z</time>
      </trkpt>
      <trkpt lat="37.94049602933228" lon="-1.270279018208385">
        <ele>125.11</ele>
        <time>2025-05-13T07:51:36Z</time>
      </trkpt>
      <trkpt lat="37.942994004115462" lon="-1.268690982833505">
        <ele>124.63</ele>
        <time>2025-05-13T07:51:47Z</time>
      </trkpt>
      <trkpt lat="37.945059975609183" lon="-1.266827015206218">
        <ele>124.63</ele>
        <time>2025-05-13T07:51:57Z</time>
      </trkpt>
      <trkpt lat="37.946862000972033" lon="-1.264675967395306">
        <ele>123.67</ele>
        <time>2025-05-13T07:52:07Z</time>
      </trkpt>
      <trkpt lat="37.948439978063107" lon="-1.2623639870435">
        <ele>123.67</ele>
        <time>2025-05-13T07:52:16Z</time>
      </trkpt>
      <trkpt lat="37.950809961184859" lon="-1.259021032601595">
        <ele>120.78</ele>
        <time>2025-05-13T07:52:28Z</time>
      </trkpt>
      <trkpt lat="37.953023035079241" lon="-1.256623975932598">
        <ele>119.34</ele>
        <time>2025-05-13T07:52:38Z</time>
      </trkpt>
      <trkpt lat="37.955084983259439" lon="-1.254980033263564">
        <ele>117.42</ele>
        <time>2025-05-13T07:52:47Z</time>
      </trkpt>
      <trkpt lat="37.957683959975839" lon="-1.253537004813552">
        <ele>115.98</ele>
        <time>2025-05-13T07:52:58Z</time>
      </trkpt>
      <trkpt lat="37.960983999073505" lon="-1.252398993819952">
        <ele>117.42</ele>
        <time>2025-05-13T07:53:10Z</time>
      </trkpt>
      <trkpt lat="37.96419502235949" lon="-1.251501962542534">
        <ele>119.34</ele>
        <time>2025-05-13T07:53:21Z</time>
      </trkpt>
      <trkpt lat="37.968124961480498" lon="-1.250383984297514">
        <ele>120.3</ele>
        <time>2025-05-13T07:53:35Z</time>
      </trkpt>
      <trkpt lat="37.971919029951096" lon="-1.249067019671202">
        <ele>122.70999999999999</ele>
        <time>2025-05-13T07:53:49Z</time>
      </trkpt>
      <trkpt lat="37.974282978102565" lon="-1.248147021979094">
        <ele>126.55</ele>
        <time>2025-05-13T07:53:59Z</time>
      </trkpt>
      <trkpt lat="37.976171001791954" lon="-1.247325008735061">
        <ele>131.36000000000001</ele>
        <time>2025-05-13T07:54:08Z</time>
      </trkpt>
      <trkpt lat="37.978249965235591" lon="-1.246361006051302">
        <ele>137.13</ele>
        <time>2025-05-13T07:54:19Z</time>
      </trkpt>
      <trkpt lat="37.980127008631825" lon="-1.24541200697422">
        <ele>139.53</ele>
        <time>2025-05-13T07:54:29Z</time>
      </trkpt>
      <trkpt lat="37.981828032061458" lon="-1.24450902454555">
        <ele>141.44999999999999</ele>
        <time>2025-05-13T07:54:39Z</time>
      </trkpt>
      <trkpt lat="37.983053969219327" lon="-1.243852972984314">
        <ele>142.88999999999999</ele>
        <time>2025-05-13T07:54:46Z</time>
      </trkpt>
      <trkpt lat="37.984844008460641" lon="-1.242842031642795">
        <ele>144.34</ele>
        <time>2025-05-13T07:54:55Z</time>
      </trkpt>
      <trkpt lat="37.987788990139961" lon="-1.241223989054561">
        <ele>145.30000000000001</ele>
        <time>2025-05-13T07:55:08Z</time>
      </trkpt>
      <trkpt lat="37.990354020148516" lon="-1.239929990842938">
        <ele>141.93000000000001</ele>
        <time>2025-05-13T07:55:19Z</time>
      </trkpt>
      <trkpt lat="37.992225028574467" lon="-1.238934975117445">
        <ele>134.24000000000001</ele>
        <time>2025-05-13T07:55:26Z</time>
      </trkpt>
      <trkpt lat="37.994815036654472" lon="-1.237071007490158">
        <ele>121.73999999999999</ele>
        <time>2025-05-13T07:55:36Z</time>
      </trkpt>
      <trkpt lat="37.997072031721473" lon="-1.234673028811812">
        <ele>115.5</ele>
        <time>2025-05-13T07:55:46Z</time>
      </trkpt>
      <trkpt lat="37.998986961320043" lon="-1.231799963861704">
        <ele>112.61</ele>
        <time>2025-05-13T07:55:56Z</time>
      </trkpt>
      <trkpt lat="38.000449016690254" lon="-1.228529009968042">
        <ele>107.31999999999999</ele>
        <time>2025-05-13T07:56:06Z</time>
      </trkpt>
      <trkpt lat="38.001412013545632" lon="-1.225362997502089">
        <ele>99.150000000000006</ele>
        <time>2025-05-13T07:56:15Z</time>
      </trkpt>
      <trkpt lat="38.001973014324903" lon="-1.221675965934992">
        <ele>87.140000000000001</ele>
        <time>2025-05-13T07:56:25Z</time>
      </trkpt>
      <trkpt lat="38.002006961032748" lon="-1.217963034287095">
        <ele>78</ele>
        <time>2025-05-13T07:56:35Z</time>
      </trkpt>
      <trkpt lat="38.001575041562319" lon="-1.214282037690282">
        <ele>77.519999999999996</ele>
        <time>2025-05-13T07:56:45Z</time>
      </trkpt>
      <trkpt lat="38.00054800696671" lon="-1.208960032090545">
        <ele>90.5</ele>
        <time>2025-05-13T07:57:00Z</time>
      </trkpt>
      <trkpt lat="38.00009697675705" lon="-1.206966983154416">
        <ele>99.150000000000006</ele>
        <time>2025-05-13T07:57:07Z</time>
      </trkpt>
      <trkpt lat="37.999465987086296" lon="-1.204360965639353">
        <ele>105.88</ele>
        <time>2025-05-13T07:57:17Z</time>
      </trkpt>
      <trkpt lat="37.998736007139087" lon="-1.201552022248507">
        <ele>107.31999999999999</ele>
        <time>2025-05-13T07:57:26Z</time>
      </trkpt>
      <trkpt lat="37.997765969485044" lon="-1.197540024295449">
        <ele>99.150000000000006</ele>
        <time>2025-05-13T07:57:38Z</time>
      </trkpt>
      <trkpt lat="37.997720036655664" lon="-1.194767961278558">
        <ele>98.670000000000002</ele>
        <time>2025-05-13T07:57:46Z</time>
      </trkpt>
      <trkpt lat="37.998137036338449" lon="-1.192380962893367">
        <ele>102.04000000000001</ele>
        <time>2025-05-13T07:57:53Z</time>
      </trkpt>
      <trkpt lat="37.998997019603848" lon="-1.190209966152906">
        <ele>103.48</ele>
        <time>2025-05-13T07:58:00Z</time>
      </trkpt>
      <trkpt lat="38.000650014728308" lon="-1.187375960871577">
        <ele>100.11</ele>
        <time>2025-05-13T07:58:10Z</time>
      </trkpt>
      <trkpt lat="38.001905959099531" lon="-1.184515971690416">
        <ele>96.269999999999996</ele>
        <time>2025-05-13T07:58:19Z</time>
      </trkpt>
      <trkpt lat="38.002663012593985" lon="-1.181711973622441">
        <ele>91.459999999999994</ele>
        <time>2025-05-13T07:58:27Z</time>
      </trkpt>
      <trkpt lat="38.00301999785006" lon="-1.178740002214909">
        <ele>83.769999999999996</ele>
        <time>2025-05-13T07:58:35Z</time>
      </trkpt>
      <trkpt lat="38.003177996724844" lon="-1.175010977312923">
        <ele>77.040000000000006</ele>
        <time>2025-05-13T07:58:45Z</time>
      </trkpt>
      <trkpt lat="38.003717036917806" lon="-1.172490958124399">
        <ele>74.159999999999997</ele>
        <time>2025-05-13T07:58:52Z</time>
      </trkpt>
      <trkpt lat="38.004483981058002" lon="-1.170608969405294">
        <ele>73.200000000000003</ele>
        <time>2025-05-13T07:58:58Z</time>
      </trkpt>
      <trkpt lat="38.005564995110035" lon="-1.16883703507483">
        <ele>73.680000000000007</ele>
        <time>2025-05-13T07:59:06Z</time>
      </trkpt>
      <trkpt lat="38.007029984146357" lon="-1.16696703247726">
        <ele>77.040000000000006</ele>
        <time>2025-05-13T07:59:17Z</time>
      </trkpt>
      <trkpt lat="38.00778703764081" lon="-1.16626001894474">
        <ele>78</ele>
        <time>2025-05-13T07:59:22Z</time>
      </trkpt>
      <trkpt lat="38.007958028465509" lon="-1.166144013404846">
        <ele>78</ele>
        <time>2025-05-13T07:59:23Z</time>
      </trkpt>
      <trkpt lat="38.008143017068505" lon="-1.166073018684983">
        <ele>78.480000000000004</ele>
        <time>2025-05-13T07:59:24Z</time>
      </trkpt>
      <trkpt lat="38.008334962651134" lon="-1.166016021743417">
        <ele>78.480000000000004</ele>
        <time>2025-05-13T07:59:25Z</time>
      </trkpt>
      <trkpt lat="38.008529003709555" lon="-1.165976040065289">
        <ele>78.969999999999999</ele>
        <time>2025-05-13T07:59:26Z</time>
      </trkpt>
      <trkpt lat="38.008727990090847" lon="-1.165952989831567">
        <ele>79.450000000000003</ele>
        <time>2025-05-13T07:59:27Z</time>
      </trkpt>
      <trkpt lat="38.008924964815378" lon="-1.165973022580147">
        <ele>79.930000000000007</ele>
        <time>2025-05-13T07:59:28Z</time>
      </trkpt>
      <trkpt lat="38.00912001170218" lon="-1.166014010086656">
        <ele>79.930000000000007</ele>
        <time>2025-05-13T07:59:29Z</time>
      </trkpt>
      <trkpt lat="38.009317992255092" lon="-1.166054997593164">
        <ele>79.930000000000007</ele>
        <time>2025-05-13T07:59:30Z</time>
      </trkpt>
      <trkpt lat="38.00950800999999" lon="-1.166132027283311">
        <ele>80.409999999999997</ele>
        <time>2025-05-13T07:59:31Z</time>
      </trkpt>
      <trkpt lat="38.009691992774606" lon="-1.166244009509683">
        <ele>80.409999999999997</ele>
        <time>2025-05-13T07:59:32Z</time>
      </trkpt>
      <trkpt lat="38.00987396389246" lon="-1.166354985907674">
        <ele>80.890000000000001</ele>
        <time>2025-05-13T07:59:33Z</time>
      </trkpt>
      <trkpt lat="38.010056018829346" lon="-1.166462022811174">
        <ele>80.890000000000001</ele>
        <time>2025-05-13T07:59:34Z</time>
      </trkpt>
      <trkpt lat="38.01159099675715" lon="-1.167145986109972">
        <ele>82.329999999999998</ele>
        <time>2025-05-13T07:59:42Z</time>
      </trkpt>
      <trkpt lat="38.013425040990114" lon="-1.167390989139676">
        <ele>85.209999999999994</ele>
        <time>2025-05-13T07:59:51Z</time>
      </trkpt>
      <trkpt lat="38.014679979532957" lon="-1.167057976126671">
        <ele>86.659999999999997</ele>
        <time>2025-05-13T07:59:58Z</time>
      </trkpt>
      <trkpt lat="38.015859983861446" lon="-1.166546009480953">
        <ele>87.140000000000001</ele>
        <time>2025-05-13T08:00:06Z</time>
      </trkpt>
      <trkpt lat="38.017193963751197" lon="-1.165967993438244">
        <ele>90.019999999999996</ele>
        <time>2025-05-13T08:00:13Z</time>
      </trkpt>
      <trkpt lat="38.018407998606563" lon="-1.165642021223903">
        <ele>93.870000000000005</ele>
        <time>2025-05-13T08:00:20Z</time>
      </trkpt>
      <trkpt lat="38.019419023767114" lon="-1.165446974337101">
        <ele>97.230000000000004</ele>
        <time>2025-05-13T08:00:27Z</time>
      </trkpt>
      <trkpt lat="38.021344011649489" lon="-1.165105998516083">
        <ele>103.48</ele>
        <time>2025-05-13T08:00:38Z</time>
      </trkpt>
      <trkpt lat="38.023468991741538" lon="-1.164759993553162">
        <ele>109.25</ele>
        <time>2025-05-13T08:00:50Z</time>
      </trkpt>
      <trkpt lat="38.025119975209236" lon="-1.164380041882396">
        <ele>112.13</ele>
        <time>2025-05-13T08:00:59Z</time>
      </trkpt>
      <trkpt lat="38.026181040331721" lon="-1.163762966170907">
        <ele>111.65000000000001</ele>
        <time>2025-05-13T08:01:05Z</time>
      </trkpt>
      <trkpt lat="38.027196004986763" lon="-1.162551026791334">
        <ele>110.20999999999999</ele>
        <time>2025-05-13T08:01:12Z</time>
      </trkpt>
      <trkpt lat="38.027860019356012" lon="-1.160951005294919">
        <ele>109.25</ele>
        <time>2025-05-13T08:01:18Z</time>
      </trkpt>
      <trkpt lat="38.028911026194692" lon="-1.157680973410606">
        <ele>106.36</ele>
        <time>2025-05-13T08:01:30Z</time>
      </trkpt>
      <trkpt lat="38.030144004151225" lon="-1.15519498474896">
        <ele>103.48</ele>
        <time>2025-05-13T08:01:40Z</time>
      </trkpt>
      <trkpt lat="38.031751988455653" lon="-1.152743026614189">
        <ele>99.629999999999995</ele>
        <time>2025-05-13T08:01:50Z</time>
      </trkpt>
      <trkpt lat="38.033905969932675" lon="-1.149812964722514">
        <ele>96.75</ele>
        <time>2025-05-13T08:02:03Z</time>
      </trkpt>
      <trkpt lat="38.03561202250421" lon="-1.147533003240824">
        <ele>99.629999999999995</ele>
        <time>2025-05-13T08:02:13Z</time>
      </trkpt>
      <trkpt lat="38.037654021754861" lon="-1.144715007394552">
        <ele>104.92</ele>
        <time>2025-05-13T08:02:25Z</time>
      </trkpt>
      <trkpt lat="38.039669031277299" lon="-1.141730966046453">
        <ele>108.29000000000001</ele>
        <time>2025-05-13T08:02:36Z</time>
      </trkpt>
      <trkpt lat="38.041532998904586" lon="-1.138387005776167">
        <ele>106.84</ele>
        <time>2025-05-13T08:02:47Z</time>
      </trkpt>
      <trkpt lat="38.042606972157955" lon="-1.135959019884467">
        <ele>102.52</ele>
        <time>2025-05-13T08:02:56Z</time>
      </trkpt>
      <trkpt lat="38.043441977351904" lon="-1.133735971525312">
        <ele>97.709999999999994</ele>
        <time>2025-05-13T08:03:05Z</time>
      </trkpt>
      <trkpt lat="38.04446398280561" lon="-1.130914036184549">
        <ele>94.349999999999994</ele>
        <time>2025-05-13T08:03:17Z</time>
      </trkpt>
      <trkpt lat="38.045590007677674" lon="-1.12818798981607">
        <ele>97.230000000000004</ele>
        <time>2025-05-13T08:03:29Z</time>
      </trkpt>
      <trkpt lat="38.047178965061903" lon="-1.125034969300032">
        <ele>102.04000000000001</ele>
        <time>2025-05-13T08:03:43Z</time>
      </trkpt>
      <trkpt lat="38.047877009958029" lon="-1.123410975560546">
        <ele>102.52</ele>
        <time>2025-05-13T08:03:51Z</time>
      </trkpt>
      <trkpt lat="38.048639008775353" lon="-1.121029006317258">
        <ele>99.629999999999995</ele>
        <time>2025-05-13T08:04:01Z</time>
      </trkpt>
      <trkpt lat="38.048893986269832" lon="-1.119116004556418">
        <ele>99.629999999999995</ele>
        <time>2025-05-13T08:04:09Z</time>
      </trkpt>
      <trkpt lat="38.048822991549969" lon="-1.118321986868978">
        <ele>98.189999999999998</ele>
        <time>2025-05-13T08:04:13Z</time>
      </trkpt>
      <trkpt lat="38.048779992386699" lon="-1.118153007701039">
        <ele>97.230000000000004</ele>
        <time>2025-05-13T08:04:14Z</time>
      </trkpt>
      <trkpt lat="38.048716960474849" lon="-1.117999032139778">
        <ele>96.75</ele>
        <time>2025-05-13T08:04:15Z</time>
      </trkpt>
      <trkpt lat="38.048659041523933" lon="-1.117858970537782">
        <ele>95.790000000000006</ele>
        <time>2025-05-13T08:04:16Z</time>
      </trkpt>
      <trkpt lat="38.048572037369013" lon="-1.117756962776184">
        <ele>95.310000000000002</ele>
        <time>2025-05-13T08:04:17Z</time>
      </trkpt>
      <trkpt lat="38.048507999628782" lon="-1.117631988599896">
        <ele>94.829999999999998</ele>
        <time>2025-05-13T08:04:18Z</time>
      </trkpt>
      <trkpt lat="38.048500958830118" lon="-1.117496034130454">
        <ele>94.349999999999994</ele>
        <time>2025-05-13T08:04:19Z</time>
      </trkpt>
      <trkpt lat="38.048526020720601" lon="-1.117391008883715">
        <ele>94.349999999999994</ele>
        <time>2025-05-13T08:04:20Z</time>
      </trkpt>
      <trkpt lat="38.048581006005406" lon="-1.117257988080382">
        <ele>93.870000000000005</ele>
        <time>2025-05-13T08:04:21Z</time>
      </trkpt>
      <trkpt lat="38.048677984625101" lon="-1.117205014452338">
        <ele>93.870000000000005</ele>
        <time>2025-05-13T08:04:22Z</time>
      </trkpt>
      <trkpt lat="38.048768006265163" lon="-1.117182970046997">
        <ele>93.390000000000001</ele>
        <time>2025-05-13T08:04:23Z</time>
      </trkpt>
      <trkpt lat="38.048871019855142" lon="-1.117207026109099">
        <ele>93.390000000000001</ele>
        <time>2025-05-13T08:04:24Z</time>
      </trkpt>
      <trkpt lat="38.048964980989695" lon="-1.117266034707427">
        <ele>92.900000000000006</ele>
        <time>2025-05-13T08:04:25Z</time>
      </trkpt>
      <trkpt lat="38.049028012901545" lon="-1.117387991398573">
        <ele>92.900000000000006</ele>
        <time>2025-05-13T08:04:26Z</time>
      </trkpt>
      <trkpt lat="38.04903999902308" lon="-1.11750902608037">
        <ele>92.900000000000006</ele>
        <time>2025-05-13T08:04:27Z</time>
      </trkpt>
      <trkpt lat="38.04902097210288" lon="-1.117641963064671">
        <ele>93.390000000000001</ele>
        <time>2025-05-13T08:04:28Z</time>
      </trkpt>
      <trkpt lat="38.049002029001713" lon="-1.117709018290043">
        <ele>93.390000000000001</ele>
        <time>2025-05-13T08:04:29Z</time>
      </trkpt>
      <trkpt lat="38.04899800568819" lon="-1.117814965546131">
        <ele>93.870000000000005</ele>
        <time>2025-05-13T08:04:30Z</time>
      </trkpt>
      <trkpt lat="38.048995994031429" lon="-1.117865005508065">
        <ele>94.349999999999994</ele>
        <time>2025-05-13T08:04:31Z</time>
      </trkpt>
      <trkpt lat="38.048990964889526" lon="-1.118000037968159">
        <ele>94.349999999999994</ele>
        <time>2025-05-13T08:04:33Z</time>
      </trkpt>
      <trkpt lat="38.048987025395036" lon="-1.118101961910725">
        <ele>94.829999999999998</ele>
        <time>2025-05-13T08:04:34Z</time>
      </trkpt>
      <trkpt lat="38.048886023461819" lon="-1.118230037391186">
        <ele>94.829999999999998</ele>
        <time>2025-05-13T08:04:35Z</time>
      </trkpt>
      <trkpt lat="38.048908989876509" lon="-1.118376972153783">
        <ele>94.829999999999998</ele>
        <time>2025-05-13T08:04:36Z</time>
      </trkpt>
      <trkpt lat="38.04893396794796" lon="-1.118543017655611">
        <ele>95.310000000000002</ele>
        <time>2025-05-13T08:04:37Z</time>
      </trkpt>
      <trkpt lat="38.049187017604709" lon="-1.12012904137373">
        <ele>102.04000000000001</ele>
        <time>2025-05-13T08:04:45Z</time>
      </trkpt>
      <trkpt lat="38.049455992877483" lon="-1.121854037046433">
        <ele>105.40000000000001</ele>
        <time>2025-05-13T08:04:54Z</time>
      </trkpt>
      <trkpt lat="38.04951399564743" lon="-1.122889034450054">
        <ele>105.40000000000001</ele>
        <time>2025-05-13T08:05:01Z</time>
      </trkpt>
      <trkpt lat="38.049487005919218" lon="-1.123125990852714">
        <ele>105.88</ele>
        <time>2025-05-13T08:05:03Z</time>
      </trkpt>
      <trkpt lat="38.049477031454444" lon="-1.123221041634679">
        <ele>105.88</ele>
        <time>2025-05-13T08:05:04Z</time>
      </trkpt>
      <trkpt lat="38.049603011459112" lon="-1.123374011367559">
        <ele>105.88</ele>
        <time>2025-05-13T08:05:05Z</time>
      </trkpt>
      <trkpt lat="38.049610974267125" lon="-1.12339697778225">
        <ele>106.36</ele>
        <time>2025-05-13T08:05:07Z</time>
      </trkpt>
      <trkpt lat="38.049665037542582" lon="-1.123561011627317">
        <ele>106.36</ele>
        <time>2025-05-13T08:05:08Z</time>
      </trkpt>
      <trkpt lat="38.049657996743917" lon="-1.123662013560534">
        <ele>106.36</ele>
        <time>2025-05-13T08:05:10Z</time>
      </trkpt>
      <trkpt lat="38.049603011459112" lon="-1.123824035748839">
        <ele>106.36</ele>
        <time>2025-05-13T08:05:11Z</time>
      </trkpt>
      <trkpt lat="38.049548026174307" lon="-1.123879021033645">
        <ele>106.36</ele>
        <time>2025-05-13T08:05:12Z</time>
      </trkpt>
      <trkpt lat="38.049489017575979" lon="-1.123938029631972">
        <ele>106.84</ele>
        <time>2025-05-13T08:05:13Z</time>
      </trkpt>
      <trkpt lat="38.049435960128903" lon="-1.123966025188565">
        <ele>106.84</ele>
        <time>2025-05-13T08:05:14Z</time>
      </trkpt>
      <trkpt lat="38.049355996772647" lon="-1.123992009088397">
        <ele>107.31999999999999</ele>
        <time>2025-05-13T08:05:15Z</time>
      </trkpt>
      <trkpt lat="38.049345016479492" lon="-1.123996032401919">
        <ele>107.31999999999999</ele>
        <time>2025-05-13T08:05:16Z</time>
      </trkpt>
      <trkpt lat="38.049133960157633" lon="-1.124002989381552">
        <ele>106.84</ele>
        <time>2025-05-13T08:05:17Z</time>
      </trkpt>
      <trkpt lat="38.049061959609389" lon="-1.124088987708092">
        <ele>106.36</ele>
        <time>2025-05-13T08:05:18Z</time>
      </trkpt>
      <trkpt lat="38.04897797293961" lon="-1.124187977984548">
        <ele>105.88</ele>
        <time>2025-05-13T08:05:19Z</time>
      </trkpt>
      <trkpt lat="38.048758031800389" lon="-1.124344971030951">
        <ele>105.40000000000001</ele>
        <time>2025-05-13T08:05:21Z</time>
      </trkpt>
      <trkpt lat="38.048638002946973" lon="-1.124424012377858">
        <ele>104.92</ele>
        <time>2025-05-13T08:05:22Z</time>
      </trkpt>
      <trkpt lat="38.048506993800402" lon="-1.124473968520761">
        <ele>104.44</ele>
        <time>2025-05-13T08:05:23Z</time>
      </trkpt>
      <trkpt lat="38.047658996656537" lon="-1.124835982918739">
        <ele>101.56</ele>
        <time>2025-05-13T08:05:29Z</time>
      </trkpt>
      <trkpt lat="38.047546008601785" lon="-1.124959029257298">
        <ele>101.08</ele>
        <time>2025-05-13T08:05:30Z</time>
      </trkpt>
      <trkpt lat="38.047436038032174" lon="-1.125098001211882">
        <ele>100.59999999999999</ele>
        <time>2025-05-13T08:05:31Z</time>
      </trkpt>
      <trkpt lat="38.047324977815151" lon="-1.125237978994846">
        <ele>100.59999999999999</ele>
        <time>2025-05-13T08:05:32Z</time>
      </trkpt>
      <trkpt lat="38.047210983932018" lon="-1.125382985919714">
        <ele>100.59999999999999</ele>
        <time>2025-05-13T08:05:33Z</time>
      </trkpt>
      <trkpt lat="38.047091038897634" lon="-1.125536039471626">
        <ele>100.11</ele>
        <time>2025-05-13T08:05:34Z</time>
      </trkpt>
      <trkpt lat="38.046259973198175" lon="-1.127076968550682">
        <ele>99.150000000000006</ele>
        <time>2025-05-13T08:05:41Z</time>
      </trkpt>
      <trkpt lat="38.044994976371527" lon="-1.129864035174251">
        <ele>94.829999999999998</ele>
        <time>2025-05-13T08:05:52Z</time>
      </trkpt>
      <trkpt lat="38.043650016188622" lon="-1.13351603038609">
        <ele>94.349999999999994</ele>
        <time>2025-05-13T08:06:06Z</time>
      </trkpt>
      <trkpt lat="38.042494989931583" lon="-1.136514991521835">
        <ele>100.59999999999999</ele>
        <time>2025-05-13T08:06:18Z</time>
      </trkpt>
      <trkpt lat="38.041028995066881" lon="-1.139582013711333">
        <ele>105.88</ele>
        <time>2025-05-13T08:06:30Z</time>
      </trkpt>
      <trkpt lat="38.039526036009192" lon="-1.142151989042759">
        <ele>110.69</ele>
        <time>2025-05-13T08:06:41Z</time>
      </trkpt>
      <trkpt lat="38.037903970107436" lon="-1.144580980762839">
        <ele>110.69</ele>
        <time>2025-05-13T08:06:52Z</time>
      </trkpt>
      <trkpt lat="38.036441998556256" lon="-1.146609988063574">
        <ele>109.73</ele>
        <time>2025-05-13T08:07:02Z</time>
      </trkpt>
      <trkpt lat="38.035037023946643" lon="-1.148515027016401">
        <ele>107.31999999999999</ele>
        <time>2025-05-13T08:07:12Z</time>
      </trkpt>
      <trkpt lat="38.033544961363077" lon="-1.150526013225317">
        <ele>103.48</ele>
        <time>2025-05-13T08:07:22Z</time>
      </trkpt>
      <trkpt lat="38.032315000891685" lon="-1.152201974764466">
        <ele>103.48</ele>
        <time>2025-05-13T08:07:31Z</time>
      </trkpt>
      <trkpt lat="38.032148033380508" lon="-1.152528030797839">
        <ele>103</ele>
        <time>2025-05-13T08:07:33Z</time>
      </trkpt>
      <trkpt lat="38.032114002853632" lon="-1.152687035501003">
        <ele>102.52</ele>
        <time>2025-05-13T08:07:34Z</time>
      </trkpt>
      <trkpt lat="38.032085001468658" lon="-1.152857020497322">
        <ele>102.04000000000001</ele>
        <time>2025-05-13T08:07:35Z</time>
      </trkpt>
      <trkpt lat="38.032052982598543" lon="-1.153037985786796">
        <ele>101.56</ele>
        <time>2025-05-13T08:07:36Z</time>
      </trkpt>
      <trkpt lat="38.032039990648627" lon="-1.153225991874933">
        <ele>101.56</ele>
        <time>2025-05-13T08:07:37Z</time>
      </trkpt>
      <trkpt lat="38.032083995640278" lon="-1.153430007398129">
        <ele>101.56</ele>
        <time>2025-05-13T08:07:38Z</time>
      </trkpt>
      <trkpt lat="38.032132023945451" lon="-1.153645003214479">
        <ele>102.04000000000001</ele>
        <time>2025-05-13T08:07:39Z</time>
      </trkpt>
      <trkpt lat="38.032180974259973" lon="-1.153869973495603">
        <ele>103</ele>
        <time>2025-05-13T08:07:40Z</time>
      </trkpt>
      <trkpt lat="38.032268984243274" lon="-1.154308011755347">
        <ele>104.44</ele>
        <time>2025-05-13T08:07:42Z</time>
      </trkpt>
      <trkpt lat="38.032279964536428" lon="-1.154512027278543">
        <ele>104.92</ele>
        <time>2025-05-13T08:07:43Z</time>
      </trkpt>
      <trkpt lat="38.032272001728415" lon="-1.154715036973357">
        <ele>105.40000000000001</ele>
        <time>2025-05-13T08:07:44Z</time>
      </trkpt>
      <trkpt lat="38.032241994515061" lon="-1.154916035011411">
        <ele>105.40000000000001</ele>
        <time>2025-05-13T08:07:45Z</time>
      </trkpt>
      <trkpt lat="38.032191032543778" lon="-1.155122984200716">
        <ele>105.40000000000001</ele>
        <time>2025-05-13T08:07:46Z</time>
      </trkpt>
      <trkpt lat="38.032111991196871" lon="-1.155321970582008">
        <ele>104.92</ele>
        <time>2025-05-13T08:07:47Z</time>
      </trkpt>
      <trkpt lat="38.032029010355473" lon="-1.155527997761965">
        <ele>104.92</ele>
        <time>2025-05-13T08:07:48Z</time>
      </trkpt>
      <trkpt lat="38.031900012865663" lon="-1.155967963859439">
        <ele>103.95999999999999</ele>
        <time>2025-05-13T08:07:50Z</time>
      </trkpt>
      <trkpt lat="38.031890960410237" lon="-1.156201986595988">
        <ele>103.48</ele>
        <time>2025-05-13T08:07:51Z</time>
      </trkpt>
      <trkpt lat="38.031881991773844" lon="-1.156436009332538">
        <ele>103</ele>
        <time>2025-05-13T08:07:52Z</time>
      </trkpt>
      <trkpt lat="38.031918033957481" lon="-1.156660979613662">
        <ele>103.48</ele>
        <time>2025-05-13T08:07:53Z</time>
      </trkpt>
      <trkpt lat="38.031976036727428" lon="-1.156873963773251">
        <ele>103.95999999999999</ele>
        <time>2025-05-13T08:07:54Z</time>
      </trkpt>
      <trkpt lat="38.032054994255304" lon="-1.157063981518149">
        <ele>104.92</ele>
        <time>2025-05-13T08:07:55Z</time>
      </trkpt>
      <trkpt lat="38.032162031158805" lon="-1.157229021191597">
        <ele>105.40000000000001</ele>
        <time>2025-05-13T08:07:56Z</time>
      </trkpt>
      <trkpt lat="38.032279964536428" lon="-1.157390959560871">
        <ele>106.36</ele>
        <time>2025-05-13T08:07:57Z</time>
      </trkpt>
      <trkpt lat="38.032403010874987" lon="-1.157560022547841">
        <ele>107.81</ele>
        <time>2025-05-13T08:07:58Z</time>
      </trkpt>
      <trkpt lat="38.033605981618166" lon="-1.158895008265972">
        <ele>116.45999999999999</ele>
        <time>2025-05-13T08:08:07Z</time>
      </trkpt>
      <trkpt lat="38.034850023686886" lon="-1.159696988761425">
        <ele>122.22</ele>
        <time>2025-05-13T08:08:14Z</time>
      </trkpt>
      <trkpt lat="38.036545012146235" lon="-1.16037399508059">
        <ele>129.43000000000001</ele>
        <time>2025-05-13T08:08:21Z</time>
      </trkpt>
      <trkpt lat="38.038584999740124" lon="-1.160876993089914">
        <ele>140.00999999999999</ele>
        <time>2025-05-13T08:08:28Z</time>
      </trkpt>
      <trkpt lat="38.041120022535324" lon="-1.161958007141948">
        <ele>152.50999999999999</ele>
        <time>2025-05-13T08:08:37Z</time>
      </trkpt>
      <trkpt lat="38.042667992413044" lon="-1.163058970123529">
        <ele>159.72</ele>
        <time>2025-05-13T08:08:43Z</time>
      </trkpt>
      <trkpt lat="38.044168017804623" lon="-1.164587996900082">
        <ele>167.88999999999999</ele>
        <time>2025-05-13T08:08:49Z</time>
      </trkpt>
      <trkpt lat="38.045914974063635" lon="-1.167192002758384">
        <ele>175.58000000000001</ele>
        <time>2025-05-13T08:08:57Z</time>
      </trkpt>
      <trkpt lat="38.046985007822514" lon="-1.169453021138907">
        <ele>175.09999999999999</ele>
        <time>2025-05-13T08:09:04Z</time>
      </trkpt>
      <trkpt lat="38.048443039879203" lon="-1.172270011156797">
        <ele>170.77000000000001</ele>
        <time>2025-05-13T08:09:13Z</time>
      </trkpt>
      <trkpt lat="38.050292003899813" lon="-1.17472498677671">
        <ele>162.59999999999999</ele>
        <time>2025-05-13T08:09:22Z</time>
      </trkpt>
      <trkpt lat="38.052676990628242" lon="-1.177523033693433">
        <ele>150.58000000000001</ele>
        <time>2025-05-13T08:09:33Z</time>
      </trkpt>
      <trkpt lat="38.054008036851883" lon="-1.179987983778119">
        <ele>141.44999999999999</ele>
        <time>2025-05-13T08:09:41Z</time>
      </trkpt>
      <trkpt lat="38.055186029523611" lon="-1.183430012315512">
        <ele>136.63999999999999</ele>
        <time>2025-05-13T08:09:51Z</time>
      </trkpt>
      <trkpt lat="38.056244999170303" lon="-1.185662029311061">
        <ele>135.19999999999999</ele>
        <time>2025-05-13T08:09:58Z</time>
      </trkpt>
      <trkpt lat="38.057808978483081" lon="-1.187905026599765">
        <ele>133.75999999999999</ele>
        <time>2025-05-13T08:10:06Z</time>
      </trkpt>
      <trkpt lat="38.05973899550736" lon="-1.189646031707525">
        <ele>136.63999999999999</ele>
        <time>2025-05-13T08:10:14Z</time>
      </trkpt>
      <trkpt lat="38.061942011117935" lon="-1.190823018550873">
        <ele>139.05000000000001</ele>
        <time>2025-05-13T08:10:22Z</time>
      </trkpt>
      <trkpt lat="38.064761012792587" lon="-1.191897997632623">
        <ele>143.84999999999999</ele>
        <time>2025-05-13T08:10:32Z</time>
      </trkpt>
      <trkpt lat="38.066449966281652" lon="-1.193084036931396">
        <ele>149.13999999999999</ele>
        <time>2025-05-13T08:10:39Z</time>
      </trkpt>
      <trkpt lat="38.067867010831833" lon="-1.194661008194089">
        <ele>149.13999999999999</ele>
        <time>2025-05-13T08:10:47Z</time>
      </trkpt>
      <trkpt lat="38.069069981575012" lon="-1.196666965261102">
        <ele>144.34</ele>
        <time>2025-05-13T08:10:55Z</time>
      </trkpt>
      <trkpt lat="38.070228025317192" lon="-1.199015993624926">
        <ele>139.05000000000001</ele>
        <time>2025-05-13T08:11:03Z</time>
      </trkpt>
      <trkpt lat="38.071622019633651" lon="-1.201382959261537">
        <ele>131.36000000000001</ele>
        <time>2025-05-13T08:11:11Z</time>
      </trkpt>
      <trkpt lat="38.073723027482629" lon="-1.204033987596631">
        <ele>124.63</ele>
        <time>2025-05-13T08:11:21Z</time>
      </trkpt>
      <trkpt lat="38.07606803253293" lon="-1.206914009526372">
        <ele>119.34</ele>
        <time>2025-05-13T08:11:32Z</time>
      </trkpt>
      <trkpt lat="38.078034007921815" lon="-1.210212958976626">
        <ele>114.53</ele>
        <time>2025-05-13T08:11:43Z</time>
      </trkpt>
      <trkpt lat="38.079280983656645" lon="-1.213197000324726">
        <ele>110.69</ele>
        <time>2025-05-13T08:11:52Z</time>
      </trkpt>
      <trkpt lat="38.080853009596467" lon="-1.217231964692473">
        <ele>104.44</ele>
        <time>2025-05-13T08:12:04Z</time>
      </trkpt>
      <trkpt lat="38.082119012251496" lon="-1.219300031661987">
        <ele>101.56</ele>
        <time>2025-05-13T08:12:11Z</time>
      </trkpt>
      <trkpt lat="38.083933023735881" lon="-1.221237005665898">
        <ele>101.08</ele>
        <time>2025-05-13T08:12:19Z</time>
      </trkpt>
      <trkpt lat="38.085578978061676" lon="-1.222381973639131">
        <ele>102.04000000000001</ele>
        <time>2025-05-13T08:12:26Z</time>
      </trkpt>
      <trkpt lat="38.08829496614635" lon="-1.223847968503833">
        <ele>105.88</ele>
        <time>2025-05-13T08:12:37Z</time>
      </trkpt>
      <trkpt lat="38.091509006917477" lon="-1.225589979439974">
        <ele>113.09</ele>
        <time>2025-05-13T08:12:49Z</time>
      </trkpt>
      <trkpt lat="38.094766968861222" lon="-1.227443972602487">
        <ele>122.70999999999999</ele>
        <time>2025-05-13T08:13:01Z</time>
      </trkpt>
      <trkpt lat="38.096751971170306" lon="-1.228851964697242">
        <ele>125.59</ele>
        <time>2025-05-13T08:13:09Z</time>
      </trkpt>
      <trkpt lat="38.099098987877369" lon="-1.230874015018344">
        <ele>120.78</ele>
        <time>2025-05-13T08:13:19Z</time>
      </trkpt>
      <trkpt lat="38.100929008796811" lon="-1.232513012364507">
        <ele>120.78</ele>
        <time>2025-05-13T08:13:27Z</time>
      </trkpt>
      <trkpt lat="38.103166976943612" lon="-1.234501032158732">
        <ele>129.91999999999999</ele>
        <time>2025-05-13T08:13:37Z</time>
      </trkpt>
      <trkpt lat="38.105514999479055" lon="-1.236610002815723">
        <ele>141.93000000000001</ele>
        <time>2025-05-13T08:13:47Z</time>
      </trkpt>
      <trkpt lat="38.107331022620201" lon="-1.237839041277766">
        <ele>149.13999999999999</ele>
        <time>2025-05-13T08:13:54Z</time>
      </trkpt>
      <trkpt lat="38.109330022707582" lon="-1.238480005413294">
        <ele>154.91</ele>
        <time>2025-05-13T08:14:01Z</time>
      </trkpt>
      <trkpt lat="38.112212978303432" lon="-1.239351974800229">
        <ele>161.16</ele>
        <time>2025-05-13T08:14:11Z</time>
      </trkpt>
      <trkpt lat="38.113804031163454" lon="-1.240310026332736">
        <ele>161.16</ele>
        <time>2025-05-13T08:14:17Z</time>
      </trkpt>
      <trkpt lat="38.116343999281526" lon="-1.242229985073209">
        <ele>165</ele>
        <time>2025-05-13T08:14:27Z</time>
      </trkpt>
      <trkpt lat="38.117990959435701" lon="-1.244377009570599">
        <ele>162.12</ele>
        <time>2025-05-13T08:14:35Z</time>
      </trkpt>
      <trkpt lat="38.120149970054626" lon="-1.24747303314507">
        <ele>160.19999999999999</ele>
        <time>2025-05-13T08:14:46Z</time>
      </trkpt>
      <trkpt lat="38.122511990368366" lon="-1.251334995031357">
        <ele>152.50999999999999</ele>
        <time>2025-05-13T08:14:59Z</time>
      </trkpt>
      <trkpt lat="38.124507972970605" lon="-1.254576025530696">
        <ele>152.03</ele>
        <time>2025-05-13T08:15:10Z</time>
      </trkpt>
      <trkpt lat="38.126840991899371" lon="-1.258010007441044">
        <ele>145.78</ele>
        <time>2025-05-13T08:15:22Z</time>
      </trkpt>
      <trkpt lat="38.130348986014724" lon="-1.263104025274515">
        <ele>140.00999999999999</ele>
        <time>2025-05-13T08:15:40Z</time>
      </trkpt>
      <trkpt lat="38.132673036307096" lon="-1.266512023285031">
        <ele>137.13</ele>
        <time>2025-05-13T08:15:52Z</time>
      </trkpt>
      <trkpt lat="38.134312033653259" lon="-1.26868000254035">
        <ele>131.84</ele>
        <time>2025-05-13T08:16:00Z</time>
      </trkpt>
      <trkpt lat="38.136697020381689" lon="-1.270933980122209">
        <ele>132.80000000000001</ele>
        <time>2025-05-13T08:16:10Z</time>
      </trkpt>
      <trkpt lat="38.139358023181558" lon="-1.272580018267036">
        <ele>135.19999999999999</ele>
        <time>2025-05-13T08:16:20Z</time>
      </trkpt>
      <trkpt lat="38.141609989106655" lon="-1.273483000695705">
        <ele>137.61000000000001</ele>
        <time>2025-05-13T08:16:28Z</time>
      </trkpt>
      <trkpt lat="38.144424967467785" lon="-1.274642972275615">
        <ele>146.74000000000001</ele>
        <time>2025-05-13T08:16:38Z</time>
      </trkpt>
      <trkpt lat="38.146163038909435" lon="-1.276066973805428">
        <ele>154.43000000000001</ele>
        <time>2025-05-13T08:16:45Z</time>
      </trkpt>
      <trkpt lat="38.148080985993147" lon="-1.278407033532858">
        <ele>163.56</ele>
        <time>2025-05-13T08:16:54Z</time>
      </trkpt>
      <trkpt lat="38.150676023215055" lon="-1.281797010451555">
        <ele>170.77000000000001</ele>
        <time>2025-05-13T08:17:07Z</time>
      </trkpt>
      <trkpt lat="38.152089966461062" lon="-1.284008994698525">
        <ele>173.66</ele>
        <time>2025-05-13T08:17:16Z</time>
      </trkpt>
      <trkpt lat="38.152951039373875" lon="-1.286331033334136">
        <ele>176.06</ele>
        <time>2025-05-13T08:17:23Z</time>
      </trkpt>
      <trkpt lat="38.153420006856322" lon="-1.288898997008801">
        <ele>178.46000000000001</ele>
        <time>2025-05-13T08:17:30Z</time>
      </trkpt>
      <trkpt lat="38.154009003192186" lon="-1.292181015014648">
        <ele>185.19</ele>
        <time>2025-05-13T08:17:39Z</time>
      </trkpt>
      <trkpt lat="38.15513301640749" lon="-1.29480698145926">
        <ele>194.80000000000001</ele>
        <time>2025-05-13T08:17:47Z</time>
      </trkpt>
      <trkpt lat="38.156503960490227" lon="-1.296744961291552">
        <ele>202.00999999999999</ele>
        <time>2025-05-13T08:17:54Z</time>
      </trkpt>
      <trkpt lat="38.158200960606337" lon="-1.298242975026369">
        <ele>209.69999999999999</ele>
        <time>2025-05-13T08:18:01Z</time>
      </trkpt>
      <trkpt lat="38.161374013870955" lon="-1.300280028954148">
        <ele>221.72</ele>
        <time>2025-05-13T08:18:13Z</time>
      </trkpt>
      <trkpt lat="38.163479967042804" lon="-1.302328985184431">
        <ele>230.37</ele>
        <time>2025-05-13T08:18:22Z</time>
      </trkpt>
      <trkpt lat="38.165491037070751" lon="-1.305065006017685">
        <ele>238.06</ele>
        <time>2025-05-13T08:18:32Z</time>
      </trkpt>
      <trkpt lat="38.167594978585839" lon="-1.307692984119058">
        <ele>247.68000000000001</ele>
        <time>2025-05-13T08:18:42Z</time>
      </trkpt>
      <trkpt lat="38.169431034475565" lon="-1.309344973415136">
        <ele>255.37</ele>
        <time>2025-05-13T08:18:50Z</time>
      </trkpt>
      <trkpt lat="38.171569006517529" lon="-1.310912976041436">
        <ele>263.06</ele>
        <time>2025-05-13T08:18:59Z</time>
      </trkpt>
      <trkpt lat="38.174481969326735" lon="-1.312764035537839">
        <ele>272.67000000000002</ele>
        <time>2025-05-13T08:19:11Z</time>
      </trkpt>
      <trkpt lat="38.17741496488452" lon="-1.314511997625232">
        <ele>277</ele>
        <time>2025-05-13T08:19:23Z</time>
      </trkpt>
      <trkpt lat="38.180428007617593" lon="-1.316409995779395">
        <ele>274.11000000000001</ele>
        <time>2025-05-13T08:19:36Z</time>
      </trkpt>
      <trkpt lat="38.182273032143712" lon="-1.318056033924222">
        <ele>266.89999999999998</ele>
        <time>2025-05-13T08:19:45Z</time>
      </trkpt>
      <trkpt lat="38.184341015294194" lon="-1.320599019527435">
        <ele>257.29000000000002</ele>
        <time>2025-05-13T08:19:56Z</time>
      </trkpt>
      <trkpt lat="38.186304979026318" lon="-1.323140999302268">
        <ele>247.68000000000001</ele>
        <time>2025-05-13T08:20:07Z</time>
      </trkpt>
      <trkpt lat="38.187752030789852" lon="-1.324204998090863">
        <ele>245.27000000000001</ele>
        <time>2025-05-13T08:20:13Z</time>
      </trkpt>
      <trkpt lat="38.19030499085784" lon="-1.325266985222697">
        <ele>241.91</ele>
        <time>2025-05-13T08:20:22Z</time>
      </trkpt>
      <trkpt lat="38.192916959524155" lon="-1.32568096742034">
        <ele>238.53999999999999</ele>
        <time>2025-05-13T08:20:31Z</time>
      </trkpt>
      <trkpt lat="38.195273028686643" lon="-1.325411992147565">
        <ele>244.31</ele>
        <time>2025-05-13T08:20:39Z</time>
      </trkpt>
      <trkpt lat="38.197253001853824" lon="-1.324639013037086">
        <ele>248.16</ele>
        <time>2025-05-13T08:20:46Z</time>
      </trkpt>
      <trkpt lat="38.19937102496624" lon="-1.323259016498923">
        <ele>249.12</ele>
        <time>2025-05-13T08:20:54Z</time>
      </trkpt>
      <trkpt lat="38.203394003212452" lon="-1.320013962686062">
        <ele>240.94999999999999</ele>
        <time>2025-05-13T08:21:10Z</time>
      </trkpt>
      <trkpt lat="38.207639018073678" lon="-1.316563971340656">
        <ele>228.44999999999999</ele>
        <time>2025-05-13T08:21:27Z</time>
      </trkpt>
      <trkpt lat="38.211113987490535" lon="-1.313729966059327">
        <ele>227.97</ele>
        <time>2025-05-13T08:21:41Z</time>
      </trkpt>
      <trkpt lat="38.214709991589189" lon="-1.311151022091508">
        <ele>239.02000000000001</ele>
        <time>2025-05-13T08:21:55Z</time>
      </trkpt>
      <trkpt lat="38.217249037697911" lon="-1.310170004144311">
        <ele>241.91</ele>
        <time>2025-05-13T08:22:04Z</time>
      </trkpt>
      <trkpt lat="38.2198900077492" lon="-1.309828022494912">
        <ele>245.27000000000001</ele>
        <time>2025-05-13T08:22:13Z</time>
      </trkpt>
      <trkpt lat="38.222544975578785" lon="-1.310147037729621">
        <ele>251.52000000000001</ele>
        <time>2025-05-13T08:22:22Z</time>
      </trkpt>
      <trkpt lat="38.224826026707888" lon="-1.310998974367976">
        <ele>254.41</ele>
        <time>2025-05-13T08:22:30Z</time>
      </trkpt>
      <trkpt lat="38.226566025987267" lon="-1.312031038105488">
        <ele>257.29000000000002</ele>
        <time>2025-05-13T08:22:37Z</time>
      </trkpt>
      <trkpt lat="38.22775499895215" lon="-1.312977019697428">
        <ele>259.20999999999998</ele>
        <time>2025-05-13T08:22:44Z</time>
      </trkpt>
      <trkpt lat="38.229389972984791" lon="-1.314597995951772">
        <ele>264.01999999999998</ele>
        <time>2025-05-13T08:22:54Z</time>
      </trkpt>
      <trkpt lat="38.230552040040493" lon="-1.315820999443531">
        <ele>262.10000000000002</ele>
        <time>2025-05-13T08:23:03Z</time>
      </trkpt>
      <trkpt lat="38.230972979217768" lon="-1.316423993557692">
        <ele>257.29000000000002</ele>
        <time>2025-05-13T08:23:08Z</time>
      </trkpt>
      <trkpt lat="38.231065012514591" lon="-1.316498005762696">
        <ele>256.81</ele>
        <time>2025-05-13T08:23:09Z</time>
      </trkpt>
      <trkpt lat="38.231263998895884" lon="-1.316595990210772">
        <ele>256.32999999999998</ele>
        <time>2025-05-13T08:23:11Z</time>
      </trkpt>
      <trkpt lat="38.231354020535946" lon="-1.316672014072537">
        <ele>256.32999999999998</ele>
        <time>2025-05-13T08:23:12Z</time>
      </trkpt>
      <trkpt lat="38.231413029134274" lon="-1.316803023219109">
        <ele>256.32999999999998</ele>
        <time>2025-05-13T08:23:13Z</time>
      </trkpt>
      <trkpt lat="38.231458961963654" lon="-1.316933026537299">
        <ele>255.84999999999999</ele>
        <time>2025-05-13T08:23:14Z</time>
      </trkpt>
      <trkpt lat="38.231477988883853" lon="-1.317079039290547">
        <ele>255.84999999999999</ele>
        <time>2025-05-13T08:23:15Z</time>
      </trkpt>
      <trkpt lat="38.231477988883853" lon="-1.317227985709906">
        <ele>255.84999999999999</ele>
        <time>2025-05-13T08:23:16Z</time>
      </trkpt>
      <trkpt lat="38.231433983892202" lon="-1.317368969321251">
        <ele>255.84999999999999</ele>
        <time>2025-05-13T08:23:17Z</time>
      </trkpt>
      <trkpt lat="38.231377992779016" lon="-1.317499978467822">
        <ele>255.84999999999999</ele>
        <time>2025-05-13T08:23:18Z</time>
      </trkpt>
      <trkpt lat="38.231306998059154" lon="-1.317595029249787">
        <ele>255.37</ele>
        <time>2025-05-13T08:23:19Z</time>
      </trkpt>
      <trkpt lat="38.231210019439459" lon="-1.31766501814127">
        <ele>255.37</ele>
        <time>2025-05-13T08:23:20Z</time>
      </trkpt>
      <trkpt lat="38.231110023334622" lon="-1.317706005647779">
        <ele>255.37</ele>
        <time>2025-05-13T08:23:21Z</time>
      </trkpt>
      <trkpt lat="38.231010027229786" lon="-1.317735007032752">
        <ele>254.88999999999999</ele>
        <time>2025-05-13T08:23:22Z</time>
      </trkpt>
      <trkpt lat="38.230883963406086" lon="-1.317718997597694">
        <ele>254.88999999999999</ele>
        <time>2025-05-13T08:23:23Z</time>
      </trkpt>
      <trkpt lat="38.230855967849493" lon="-1.317715980112553">
        <ele>254.41</ele>
        <time>2025-05-13T08:23:24Z</time>
      </trkpt>
      <trkpt lat="38.230557991191745" lon="-1.317746993154287">
        <ele>254.41</ele>
        <time>2025-05-13T08:23:25Z</time>
      </trkpt>
      <trkpt lat="38.230518009513617" lon="-1.317844977602363">
        <ele>253.93000000000001</ele>
        <time>2025-05-13T08:23:26Z</time>
      </trkpt>
      <trkpt lat="38.230491019785404" lon="-1.317909015342593">
        <ele>253.93000000000001</ele>
        <time>2025-05-13T08:23:27Z</time>
      </trkpt>
      <trkpt lat="38.230475010350347" lon="-1.318105990067124">
        <ele>254.41</ele>
        <time>2025-05-13T08:23:28Z</time>
      </trkpt>
      <trkpt lat="38.230469981208444" lon="-1.318257031962276">
        <ele>254.41</ele>
        <time>2025-05-13T08:23:29Z</time>
      </trkpt>
      <trkpt lat="38.230469981208444" lon="-1.318422993645072">
        <ele>254.41</ele>
        <time>2025-05-13T08:23:30Z</time>
      </trkpt>
      <trkpt lat="38.230519015341997" lon="-1.319912038743496">
        <ele>253.44</ele>
        <time>2025-05-13T08:23:37Z</time>
      </trkpt>
      <trkpt lat="38.230606019496918" lon="-1.322597013786435">
        <ele>251.03999999999999</ele>
        <time>2025-05-13T08:23:47Z</time>
      </trkpt>
      <trkpt lat="38.230706015601754" lon="-1.325693959370256">
        <ele>245.75</ele>
        <time>2025-05-13T08:23:58Z</time>
      </trkpt>
      <trkpt lat="38.230757983401418" lon="-1.327530015259981">
        <ele>242.87</ele>
        <time>2025-05-13T08:24:06Z</time>
      </trkpt>
      <trkpt lat="38.230769969522953" lon="-1.328488988801837">
        <ele>241.91</ele>
        <time>2025-05-13T08:24:13Z</time>
      </trkpt>
      <trkpt lat="38.230840964242816" lon="-1.328694010153413">
        <ele>241.43000000000001</ele>
        <time>2025-05-13T08:24:18Z</time>
      </trkpt>
      <trkpt lat="38.230898967012763" lon="-1.328704990446568">
        <ele>240.94999999999999</ele>
        <time>2025-05-13T08:24:19Z</time>
      </trkpt>
      <trkpt lat="38.230983959510922" lon="-1.328722005710006">
        <ele>240.94999999999999</ele>
        <time>2025-05-13T08:24:20Z</time>
      </trkpt>
      <trkpt lat="38.231784012168646" lon="-1.328868018463254">
        <ele>241.91</ele>
        <time>2025-05-13T08:24:26Z</time>
      </trkpt>
      <trkpt lat="38.233495010063052" lon="-1.329146968200803">
        <ele>241.91</ele>
        <time>2025-05-13T08:24:36Z</time>
      </trkpt>
      <trkpt lat="38.235339028760791" lon="-1.329474030062556">
        <ele>242.87</ele>
        <time>2025-05-13T08:24:46Z</time>
      </trkpt>
      <trkpt lat="38.236835030838847" lon="-1.329725990071893">
        <ele>243.34999999999999</ele>
        <time>2025-05-13T08:24:54Z</time>
      </trkpt>
      <trkpt lat="38.2373589836061" lon="-1.329811988398433">
        <ele>243.83000000000001</ele>
        <time>2025-05-13T08:24:59Z</time>
      </trkpt>
      <trkpt lat="38.237400976940989" lon="-1.329752979800105">
        <ele>243.83000000000001</ele>
        <time>2025-05-13T08:25:00Z</time>
      </trkpt>
      <trkpt lat="38.237459985539317" lon="-1.329720038920641">
        <ele>243.83000000000001</ele>
        <time>2025-05-13T08:25:01Z</time>
      </trkpt>
      <trkpt lat="38.23750801384449" lon="-1.329691959545016">
        <ele>244.31</ele>
        <time>2025-05-13T08:25:02Z</time>
      </trkpt>
      <trkpt lat="38.237555036321282" lon="-1.329664969816804">
        <ele>244.31</ele>
        <time>2025-05-13T08:25:03Z</time>
      </trkpt>
      <trkpt lat="38.237598035484552" lon="-1.329640997573733">
        <ele>244.31</ele>
        <time>2025-05-13T08:25:04Z</time>
      </trkpt>
      <trkpt lat="38.237632988020778" lon="-1.329619958996773">
        <ele>244.31</ele>
        <time>2025-05-13T08:25:05Z</time>
      </trkpt>
      <trkpt lat="38.237760979682207" lon="-1.329581988975406">
        <ele>245.27000000000001</ele>
        <time>2025-05-13T08:25:14Z</time>
      </trkpt>
      <trkpt lat="38.237760979682207" lon="-1.329581988975406">
        <ele>245.27000000000001</ele>
        <time>2025-05-13T08:25:46Z</time>
      </trkpt>
      <trkpt lat="38.237760979682207" lon="-1.329581988975406">
        <ele>244.78999999999999</ele>
        <time>2025-05-13T08:26:21Z</time>
      </trkpt>
      <trkpt lat="38.237854018807411" lon="-1.329386020079255">
        <ele>248.63999999999999</ele>
        <time>2025-05-13T08:29:39Z</time>
      </trkpt>
      <trkpt lat="38.237837003543973" lon="-1.329299015924335">
        <ele>230.37</ele>
        <time>2025-05-13T08:30:20Z</time>
      </trkpt>
      <trkpt lat="38.237821999937296" lon="-1.329338997602463">
        <ele>229.41</ele>
        <time>2025-05-13T08:31:16Z</time>
      </trkpt>
      <trkpt lat="38.237894000485539" lon="-1.329581988975406">
        <ele>229.88999999999999</ele>
        <time>2025-05-13T08:31:34Z</time>
      </trkpt>
      <trkpt lat="38.237894000485539" lon="-1.329581988975406">
        <ele>232.30000000000001</ele>
        <time>2025-05-13T08:31:35Z</time>
      </trkpt>
      <trkpt lat="38.237894000485539" lon="-1.329581988975406">
        <ele>234.22</ele>
        <time>2025-05-13T08:31:36Z</time>
      </trkpt>
      <trkpt lat="38.237899029627442" lon="-1.32959196344018">
        <ele>236.13999999999999</ele>
        <time>2025-05-13T08:31:37Z</time>
      </trkpt>
      <trkpt lat="38.237936999648809" lon="-1.329667987301946">
        <ele>238.53999999999999</ele>
        <time>2025-05-13T08:31:38Z</time>
      </trkpt>
      <trkpt lat="38.237954014912248" lon="-1.329706963151693">
        <ele>239.99000000000001</ele>
        <time>2025-05-13T08:31:39Z</time>
      </trkpt>
      <trkpt lat="38.237990979105234" lon="-1.329793967306614">
        <ele>241.91</ele>
        <time>2025-05-13T08:31:42Z</time>
      </trkpt>
      <trkpt lat="38.237862987443805" lon="-1.329888012260199">
        <ele>241.91</ele>
        <time>2025-05-13T08:31:44Z</time>
      </trkpt>
      <trkpt lat="38.237797021865845" lon="-1.329878037795425">
        <ele>241.43000000000001</ele>
        <time>2025-05-13T08:31:45Z</time>
      </trkpt>
      <trkpt lat="38.237714963033795" lon="-1.329865967854857">
        <ele>240.94999999999999</ele>
        <time>2025-05-13T08:31:46Z</time>
      </trkpt>
      <trkpt lat="38.237618990242481" lon="-1.329851970076561">
        <ele>240.94999999999999</ele>
        <time>2025-05-13T08:31:47Z</time>
      </trkpt>
      <trkpt lat="38.237509019672871" lon="-1.329835960641503">
        <ele>240.47</ele>
        <time>2025-05-13T08:31:48Z</time>
      </trkpt>
      <trkpt lat="38.236445020884275" lon="-1.329661030322313">
        <ele>239.99000000000001</ele>
        <time>2025-05-13T08:31:55Z</time>
      </trkpt>
      <trkpt lat="38.23484499938786" lon="-1.329392977058888">
        <ele>239.50999999999999</ele>
        <time>2025-05-13T08:32:04Z</time>
      </trkpt>
      <trkpt lat="38.232664028182626" lon="-1.329016964882612">
        <ele>239.50999999999999</ele>
        <time>2025-05-13T08:32:19Z</time>
      </trkpt>
      <trkpt lat="38.230664022266865" lon="-1.328673977404833">
        <ele>239.50999999999999</ele>
        <time>2025-05-13T08:32:33Z</time>
      </trkpt>
      <trkpt lat="38.228951012715697" lon="-1.328391004353762">
        <ele>240.47</ele>
        <time>2025-05-13T08:32:45Z</time>
      </trkpt>
      <trkpt lat="38.228195970878005" lon="-1.32825898937881">
        <ele>239.50999999999999</ele>
        <time>2025-05-13T08:32:52Z</time>
      </trkpt>
      <trkpt lat="38.227445036172867" lon="-1.328147007152438">
        <ele>239.02000000000001</ele>
        <time>2025-05-13T08:33:01Z</time>
      </trkpt>
      <trkpt lat="38.227249989286065" lon="-1.328240968286991">
        <ele>239.02000000000001</ele>
        <time>2025-05-13T08:33:03Z</time>
      </trkpt>
      <trkpt lat="38.227157033979893" lon="-1.328293019905686">
        <ele>238.53999999999999</ele>
        <time>2025-05-13T08:33:04Z</time>
      </trkpt>
      <trkpt lat="38.227078998461366" lon="-1.328337024897337">
        <ele>238.53999999999999</ele>
        <time>2025-05-13T08:33:05Z</time>
      </trkpt>
      <trkpt lat="38.227015966549516" lon="-1.328457975760102">
        <ele>238.53999999999999</ele>
        <time>2025-05-13T08:33:06Z</time>
      </trkpt>
      <trkpt lat="38.226953018456697" lon="-1.328579010441899">
        <ele>238.53999999999999</ele>
        <time>2025-05-13T08:33:07Z</time>
      </trkpt>
      <trkpt lat="38.226886969059706" lon="-1.328704990446568">
        <ele>238.53999999999999</ele>
        <time>2025-05-13T08:33:08Z</time>
      </trkpt>
      <trkpt lat="38.226783033460379" lon="-1.328822001814842">
        <ele>238.53999999999999</ele>
        <time>2025-05-13T08:33:09Z</time>
      </trkpt>
      <trkpt lat="38.226675996556878" lon="-1.32888201624155">
        <ele>238.53999999999999</ele>
        <time>2025-05-13T08:33:10Z</time>
      </trkpt>
      <trkpt lat="38.226565020158887" lon="-1.328938007354736">
        <ele>238.53999999999999</ele>
        <time>2025-05-13T08:33:11Z</time>
      </trkpt>
      <trkpt lat="38.226435016840696" lon="-1.328917974606156">
        <ele>238.06</ele>
        <time>2025-05-13T08:33:12Z</time>
      </trkpt>
      <trkpt lat="38.226284980773926" lon="-1.328895008191466">
        <ele>238.06</ele>
        <time>2025-05-13T08:33:13Z</time>
      </trkpt>
      <trkpt lat="38.226180039346218" lon="-1.328816972672939">
        <ele>238.06</ele>
        <time>2025-05-13T08:33:14Z</time>
      </trkpt>
      <trkpt lat="38.226054981350899" lon="-1.328726029023528">
        <ele>238.06</ele>
        <time>2025-05-13T08:33:15Z</time>
      </trkpt>
      <trkpt lat="38.225925983861089" lon="-1.328630978241563">
        <ele>238.06</ele>
        <time>2025-05-13T08:33:16Z</time>
      </trkpt>
      <trkpt lat="38.225809978321195" lon="-1.328508015722036">
        <ele>238.06</ele>
        <time>2025-05-13T08:33:17Z</time>
      </trkpt>
      <trkpt lat="38.225701013579965" lon="-1.328368959948421">
        <ele>237.58000000000001</ele>
        <time>2025-05-13T08:33:18Z</time>
      </trkpt>
      <trkpt lat="38.225594982504845" lon="-1.328234011307359">
        <ele>237.58000000000001</ele>
        <time>2025-05-13T08:33:19Z</time>
      </trkpt>
      <trkpt lat="38.225427009165287" lon="-1.327909966930747">
        <ele>236.62</ele>
        <time>2025-05-13T08:33:22Z</time>
      </trkpt>
      <trkpt lat="38.225400019437075" lon="-1.327862022444606">
        <ele>236.13999999999999</ele>
        <time>2025-05-13T08:33:23Z</time>
      </trkpt>
      <trkpt lat="38.225383004173636" lon="-1.32782899774611">
        <ele>236.13999999999999</ele>
        <time>2025-05-13T08:33:24Z</time>
      </trkpt>
      <trkpt lat="38.225372023880482" lon="-1.32780896499753">
        <ele>235.66</ele>
        <time>2025-05-13T08:33:25Z</time>
      </trkpt>
      <trkpt lat="38.225362971425056" lon="-1.327793039381504">
        <ele>235.18000000000001</ele>
        <time>2025-05-13T08:33:26Z</time>
      </trkpt>
      <trkpt lat="38.225352996960282" lon="-1.327775018289685">
        <ele>235.18000000000001</ele>
        <time>2025-05-13T08:33:27Z</time>
      </trkpt>
      <trkpt lat="38.225470008328557" lon="-1.327735958620906">
        <ele>234.69999999999999</ele>
        <time>2025-05-13T08:33:28Z</time>
      </trkpt>
      <trkpt lat="38.225470008328557" lon="-1.327735958620906">
        <ele>234.69999999999999</ele>
        <time>2025-05-13T08:33:29Z</time>
      </trkpt>
      <trkpt lat="38.225470008328557" lon="-1.327735958620906">
        <ele>234.22</ele>
        <time>2025-05-13T08:33:30Z</time>
      </trkpt>
      <trkpt lat="38.225470008328557" lon="-1.327801002189517">
        <ele>234.22</ele>
        <time>2025-05-13T08:33:31Z</time>
      </trkpt>
      <trkpt lat="38.225470008328557" lon="-1.327801002189517">
        <ele>234.22</ele>
        <time>2025-05-13T08:33:32Z</time>
      </trkpt>
      <trkpt lat="38.225496998056769" lon="-1.327804019674659">
        <ele>234.22</ele>
        <time>2025-05-13T08:33:33Z</time>
      </trkpt>
      <trkpt lat="38.22551803663373" lon="-1.32780603133142">
        <ele>234.22</ele>
        <time>2025-05-13T08:33:34Z</time>
      </trkpt>
      <trkpt lat="38.225533962249756" lon="-1.327807959169149">
        <ele>234.22</ele>
        <time>2025-05-13T08:33:35Z</time>
      </trkpt>
      <trkpt lat="38.225547038018703" lon="-1.32780896499753">
        <ele>233.74000000000001</ele>
        <time>2025-05-13T08:33:36Z</time>
      </trkpt>
      <trkpt lat="38.225547038018703" lon="-1.32780896499753">
        <ele>233.74000000000001</ele>
        <time>2025-05-13T08:33:37Z</time>
      </trkpt>
      <trkpt lat="38.225536979734898" lon="-1.327654989436269">
        <ele>233.74000000000001</ele>
        <time>2025-05-13T08:33:38Z</time>
      </trkpt>
      <trkpt lat="38.225559024140239" lon="-1.327627999708056">
        <ele>233.25999999999999</ele>
        <time>2025-05-13T08:33:39Z</time>
      </trkpt>
      <trkpt lat="38.225587019696832" lon="-1.327592963352799">
        <ele>233.25999999999999</ele>
        <time>2025-05-13T08:33:40Z</time>
      </trkpt>
      <trkpt lat="38.225617026910186" lon="-1.327557004988194">
        <ele>232.78</ele>
        <time>2025-05-13T08:33:41Z</time>
      </trkpt>
      <trkpt lat="38.225643010810018" lon="-1.327523980289698">
        <ele>232.78</ele>
        <time>2025-05-13T08:33:42Z</time>
      </trkpt>
      <trkpt lat="38.225648961961269" lon="-1.327479975298047">
        <ele>232.30000000000001</ele>
        <time>2025-05-13T08:33:43Z</time>
      </trkpt>
      <trkpt lat="38.225624989718199" lon="-1.327445022761822">
        <ele>232.30000000000001</ele>
        <time>2025-05-13T08:33:44Z</time>
      </trkpt>
      <trkpt lat="38.225596994161606" lon="-1.327404035255313">
        <ele>231.81</ele>
        <time>2025-05-13T08:33:45Z</time>
      </trkpt>
      <trkpt lat="38.22556396946311" lon="-1.327353995293379">
        <ele>231.33000000000001</ele>
        <time>2025-05-13T08:33:46Z</time>
      </trkpt>
      <trkpt lat="38.225271021947265" lon="-1.326924003660679">
        <ele>229.88999999999999</ele>
        <time>2025-05-13T08:33:54Z</time>
      </trkpt>
      <trkpt lat="38.225242020562291" lon="-1.32688301615417">
        <ele>229.88999999999999</ele>
        <time>2025-05-13T08:33:55Z</time>
      </trkpt>
      <trkpt lat="38.225183011963964" lon="-1.326799029484391">
        <ele>229.41</ele>
        <time>2025-05-13T08:33:58Z</time>
      </trkpt>
      <trkpt lat="38.225177982822061" lon="-1.32671001367271">
        <ele>229.88999999999999</ele>
        <time>2025-05-13T08:33:59Z</time>
      </trkpt>
      <trkpt lat="38.225198015570641" lon="-1.326683023944497">
        <ele>230.37</ele>
        <time>2025-05-13T08:34:00Z</time>
      </trkpt>
      <trkpt lat="38.225226011127234" lon="-1.326644970104098">
        <ele>230.84999999999999</ele>
        <time>2025-05-13T08:34:01Z</time>
      </trkpt>
      <trkpt lat="38.225254006683826" lon="-1.326609011739492">
        <ele>231.81</ele>
        <time>2025-05-13T08:34:02Z</time>
      </trkpt>
      <trkpt lat="38.225331958383322" lon="-1.326505998149514">
        <ele>233.74000000000001</ele>
        <time>2025-05-13T08:34:05Z</time>
      </trkpt>
      <trkpt lat="38.225356014445424" lon="-1.32647498510778">
        <ele>234.22</ele>
        <time>2025-05-13T08:34:06Z</time>
      </trkpt>
      <trkpt lat="38.225419968366623" lon="-1.326392004266381">
        <ele>236.13999999999999</ele>
        <time>2025-05-13T08:34:09Z</time>
      </trkpt>
      <trkpt lat="38.225491968914866" lon="-1.326298965141177">
        <ele>236.62</ele>
        <time>2025-05-13T08:34:10Z</time>
      </trkpt>
      <trkpt lat="38.225512001663446" lon="-1.326328972354531">
        <ele>237.09999999999999</ele>
        <time>2025-05-13T08:34:11Z</time>
      </trkpt>
      <trkpt lat="38.225537985563278" lon="-1.326368032023311">
        <ele>237.58000000000001</ele>
        <time>2025-05-13T08:34:12Z</time>
      </trkpt>
      <trkpt lat="38.225567992776632" lon="-1.32641295902431">
        <ele>237.58000000000001</ele>
        <time>2025-05-13T08:34:13Z</time>
      </trkpt>
      <trkpt lat="38.225600011646748" lon="-1.326461993157864">
        <ele>238.06</ele>
        <time>2025-05-13T08:34:14Z</time>
      </trkpt>
      <trkpt lat="38.225634964182973" lon="-1.326513960957527">
        <ele>238.06</ele>
        <time>2025-05-13T08:34:15Z</time>
      </trkpt>
      <trkpt lat="38.225852977484465" lon="-1.326841022819281">
        <ele>238.53999999999999</ele>
        <time>2025-05-13T08:34:25Z</time>
      </trkpt>
      <trkpt lat="38.225869992747903" lon="-1.326866000890732">
        <ele>238.53999999999999</ele>
        <time>2025-05-13T08:34:37Z</time>
      </trkpt>
      <trkpt lat="38.22597099468112" lon="-1.326768016442657">
        <ele>238.06</ele>
        <time>2025-05-13T08:34:40Z</time>
      </trkpt>
      <trkpt lat="38.226011982187629" lon="-1.326638013124466">
        <ele>238.06</ele>
        <time>2025-05-13T08:34:42Z</time>
      </trkpt>
      <trkpt lat="38.226031009107828" lon="-1.326577998697758">
        <ele>238.53999999999999</ele>
        <time>2025-05-13T08:34:43Z</time>
      </trkpt>
      <trkpt lat="38.226042995229363" lon="-1.326537011191249">
        <ele>239.02000000000001</ele>
        <time>2025-05-13T08:34:49Z</time>
      </trkpt>
      <trkpt lat="38.226042995229363" lon="-1.326537011191249">
        <ele>239.50999999999999</ele>
        <time>2025-05-13T08:35:33Z</time>
      </trkpt>
      <trkpt lat="38.226065039634705" lon="-1.326441038399935">
        <ele>242.38999999999999</ele>
        <time>2025-05-13T08:35:37Z</time>
      </trkpt>
      <trkpt lat="38.226065039634705" lon="-1.326441038399935">
        <ele>246.72</ele>
        <time>2025-05-13T08:35:46Z</time>
      </trkpt>
      <trkpt lat="38.226069984957576" lon="-1.326447995379567">
        <ele>246.72</ele>
        <time>2025-05-13T08:35:47Z</time>
      </trkpt>
      <trkpt lat="38.226070990785956" lon="-1.326449001207948">
        <ele>246.72</ele>
        <time>2025-05-13T08:35:48Z</time>
      </trkpt>
      <trkpt lat="38.226052969694138" lon="-1.326504992321134">
        <ele>246.72</ele>
        <time>2025-05-13T08:35:49Z</time>
      </trkpt>
      <trkpt lat="38.226038971915841" lon="-1.326551008969545">
        <ele>246.72</ele>
        <time>2025-05-13T08:35:50Z</time>
      </trkpt>
      <trkpt lat="38.226025979965925" lon="-1.326823001727462">
        <ele>244.31</ele>
        <time>2025-05-13T08:36:00Z</time>
      </trkpt>
      <trkpt lat="38.226169981062412" lon="-1.326895002275705">
        <ele>243.83000000000001</ele>
        <time>2025-05-13T08:36:09Z</time>
      </trkpt>
      <trkpt lat="38.226139973849058" lon="-1.326831970363855">
        <ele>242.87</ele>
        <time>2025-05-13T09:18:12Z</time>
      </trkpt>
      <trkpt lat="38.226180039346218" lon="-1.32692601531744">
        <ele>246.22999999999999</ele>
        <time>2025-05-13T09:18:45Z</time>
      </trkpt>
      <trkpt lat="38.226209962740541" lon="-1.326919980347157">
        <ele>252.96000000000001</ele>
        <time>2025-05-13T09:19:26Z</time>
      </trkpt>
      <trkpt lat="38.226234018802643" lon="-1.326906988397241">
        <ele>253.93000000000001</ele>
        <time>2025-05-13T09:20:07Z</time>
      </trkpt>
      <trkpt lat="38.226232007145882" lon="-1.326909000054002">
        <ele>253.93000000000001</ele>
        <time>2025-05-13T09:20:53Z</time>
      </trkpt>
      <trkpt lat="38.22622999548912" lon="-1.326907994225621">
        <ele>253.44</ele>
        <time>2025-05-13T09:21:27Z</time>
      </trkpt>
      <trkpt lat="38.226328985765576" lon="-1.326974965631962">
        <ele>250.56</ele>
        <time>2025-05-13T09:21:56Z</time>
      </trkpt>
      <trkpt lat="38.226448008790612" lon="-1.32703397423029">
        <ele>247.19999999999999</ele>
        <time>2025-05-13T09:22:11Z</time>
      </trkpt>
      <trkpt lat="38.226492013782263" lon="-1.327057024464011">
        <ele>244.78999999999999</ele>
        <time>2025-05-13T09:22:25Z</time>
      </trkpt>
      <trkpt lat="38.226564014330506" lon="-1.327092982828617">
        <ele>241.91</ele>
        <time>2025-05-13T09:22:37Z</time>
      </trkpt>
      <trkpt lat="38.226546999067068" lon="-1.327136987820268">
        <ele>241.43000000000001</ele>
        <time>2025-05-13T09:22:38Z</time>
      </trkpt>
      <trkpt lat="38.226535012945533" lon="-1.327169006690383">
        <ele>241.43000000000001</ele>
        <time>2025-05-13T09:22:39Z</time>
      </trkpt>
      <trkpt lat="38.226523026823997" lon="-1.327198008075357">
        <ele>240.94999999999999</ele>
        <time>2025-05-13T09:22:40Z</time>
      </trkpt>
      <trkpt lat="38.226511962711811" lon="-1.32722700946033">
        <ele>240.47</ele>
        <time>2025-05-13T09:22:41Z</time>
      </trkpt>
      <trkpt lat="38.226498970761895" lon="-1.327261039987207">
        <ele>239.50999999999999</ele>
        <time>2025-05-13T09:22:42Z</time>
      </trkpt>
      <trkpt lat="38.226483967155218" lon="-1.327299010008574">
        <ele>239.02000000000001</ele>
        <time>2025-05-13T09:22:43Z</time>
      </trkpt>
      <trkpt lat="38.226483967155218" lon="-1.327299010008574">
        <ele>238.53999999999999</ele>
        <time>2025-05-13T09:22:44Z</time>
      </trkpt>
      <trkpt lat="38.22635899297893" lon="-1.327688014134765">
        <ele>228.93000000000001</ele>
        <time>2025-05-13T09:22:53Z</time>
      </trkpt>
      <trkpt lat="38.226353041827679" lon="-1.327710980549455">
        <ele>227.97</ele>
        <time>2025-05-13T09:22:54Z</time>
      </trkpt>
      <trkpt lat="38.226349018514156" lon="-1.327727995812893">
        <ele>227.00999999999999</ele>
        <time>2025-05-13T09:22:55Z</time>
      </trkpt>
      <trkpt lat="38.22633602656424" lon="-1.327776024118066">
        <ele>224.61000000000001</ele>
        <time>2025-05-13T09:22:58Z</time>
      </trkpt>
      <trkpt lat="38.226414984092116" lon="-1.327865039929748">
        <ele>224.12</ele>
        <time>2025-05-13T09:22:59Z</time>
      </trkpt>
      <trkpt lat="38.226451026275754" lon="-1.327857999131084">
        <ele>223.16</ele>
        <time>2025-05-13T09:23:00Z</time>
      </trkpt>
      <trkpt lat="38.226496037095785" lon="-1.32784903049469">
        <ele>222.68000000000001</ele>
        <time>2025-05-13T09:23:01Z</time>
      </trkpt>
      <trkpt lat="38.226521015167236" lon="-1.327844001352787">
        <ele>222.19999999999999</ele>
        <time>2025-05-13T09:23:02Z</time>
      </trkpt>
      <trkpt lat="38.226545993238688" lon="-1.327789016067982">
        <ele>221.72</ele>
        <time>2025-05-13T09:23:03Z</time>
      </trkpt>
      <trkpt lat="38.226565020158887" lon="-1.327747022733092">
        <ele>220.75999999999999</ele>
        <time>2025-05-13T09:23:04Z</time>
      </trkpt>
      <trkpt lat="38.226583963260055" lon="-1.327704023569822">
        <ele>220.28</ele>
        <time>2025-05-13T09:23:05Z</time>
      </trkpt>
      <trkpt lat="38.22674497961998" lon="-1.327344020828605">
        <ele>214.99000000000001</ele>
        <time>2025-05-13T09:23:13Z</time>
      </trkpt>
      <trkpt lat="38.226767024025321" lon="-1.327295992523432">
        <ele>214.50999999999999</ele>
        <time>2025-05-13T09:23:14Z</time>
      </trkpt>
      <trkpt lat="38.226799964904785" lon="-1.327220974490047">
        <ele>214.50999999999999</ele>
        <time>2025-05-13T09:23:15Z</time>
      </trkpt>
      <trkpt lat="38.226907001808286" lon="-1.327216029167175">
        <ele>214.99000000000001</ele>
        <time>2025-05-13T09:23:17Z</time>
      </trkpt>
      <trkpt lat="38.226953018456697" lon="-1.327233966439962">
        <ele>214.99000000000001</ele>
        <time>2025-05-13T09:23:18Z</time>
      </trkpt>
      <trkpt lat="38.226993000134826" lon="-1.327248970046639">
        <ele>214.99000000000001</ele>
        <time>2025-05-13T09:23:19Z</time>
      </trkpt>
      <trkpt lat="38.22708603926003" lon="-1.327285012230277">
        <ele>215.94999999999999</ele>
        <time>2025-05-13T09:23:25Z</time>
      </trkpt>
      <trkpt lat="38.227144964039326" lon="-1.32729297503829">
        <ele>215.94999999999999</ele>
        <time>2025-05-13T09:23:26Z</time>
      </trkpt>
      <trkpt lat="38.227149993181229" lon="-1.327248970046639">
        <ele>216.43000000000001</ele>
        <time>2025-05-13T09:23:27Z</time>
      </trkpt>
      <trkpt lat="38.227157033979893" lon="-1.327186021953821">
        <ele>216.91</ele>
        <time>2025-05-13T09:23:28Z</time>
      </trkpt>
      <trkpt lat="38.227163990959525" lon="-1.32712097838521">
        <ele>216.91</ele>
        <time>2025-05-13T09:23:29Z</time>
      </trkpt>
      <trkpt lat="38.227214030921459" lon="-1.32664798758924">
        <ele>218.36000000000001</ele>
        <time>2025-05-13T09:23:36Z</time>
      </trkpt>
      <trkpt lat="38.227233979851007" lon="-1.326461993157864">
        <ele>219.31999999999999</ele>
        <time>2025-05-13T09:23:39Z</time>
      </trkpt>
      <trkpt lat="38.22723900899291" lon="-1.326411031186581">
        <ele>219.31999999999999</ele>
        <time>2025-05-13T09:23:40Z</time>
      </trkpt>
      <trkpt lat="38.227250995114446" lon="-1.326298965141177">
        <ele>219.31999999999999</ele>
        <time>2025-05-13T09:23:41Z</time>
      </trkpt>
      <trkpt lat="38.227369012311101" lon="-1.326296031475067">
        <ele>219.31999999999999</ele>
        <time>2025-05-13T09:23:42Z</time>
      </trkpt>
      <trkpt lat="38.227443024516106" lon="-1.326295025646687">
        <ele>219.31999999999999</ele>
        <time>2025-05-13T09:23:43Z</time>
      </trkpt>
      <trkpt lat="38.227520976215601" lon="-1.326293013989925">
        <ele>219.31999999999999</ele>
        <time>2025-05-13T09:23:44Z</time>
      </trkpt>
      <trkpt lat="38.227593982592225" lon="-1.326292008161545">
        <ele>219.80000000000001</ele>
        <time>2025-05-13T09:23:45Z</time>
      </trkpt>
      <trkpt lat="38.228372996672988" lon="-1.326275998726487">
        <ele>220.75999999999999</ele>
        <time>2025-05-13T09:23:53Z</time>
      </trkpt>
      <trkpt lat="38.229977963492274" lon="-1.326255965977907">
        <ele>227.49000000000001</ele>
        <time>2025-05-13T09:24:07Z</time>
      </trkpt>
      <trkpt lat="38.230641977861524" lon="-1.326274992898107">
        <ele>228.93000000000001</ele>
        <time>2025-05-13T09:24:15Z</time>
      </trkpt>
      <trkpt lat="38.230658993124962" lon="-1.326274992898107">
        <ele>229.41</ele>
        <time>2025-05-13T09:24:19Z</time>
      </trkpt>
      <trkpt lat="38.230724958702922" lon="-1.326219001784921">
        <ele>230.37</ele>
        <time>2025-05-13T09:24:20Z</time>
      </trkpt>
      <trkpt lat="38.230723030865192" lon="-1.326150018721819">
        <ele>230.84999999999999</ele>
        <time>2025-05-13T09:24:21Z</time>
      </trkpt>
      <trkpt lat="38.23071900755167" lon="-1.326055973768234">
        <ele>231.33000000000001</ele>
        <time>2025-05-13T09:24:22Z</time>
      </trkpt>
      <trkpt lat="38.230714984238148" lon="-1.32593896239996">
        <ele>231.33000000000001</ele>
        <time>2025-05-13T09:24:23Z</time>
      </trkpt>
      <trkpt lat="38.230668967589736" lon="-1.324675977230072">
        <ele>232.30000000000001</ele>
        <time>2025-05-13T09:24:30Z</time>
      </trkpt>
      <trkpt lat="38.230596967041492" lon="-1.322302976623178">
        <ele>236.13999999999999</ele>
        <time>2025-05-13T09:24:40Z</time>
      </trkpt>
      <trkpt lat="38.230522032827139" lon="-1.319993007928133">
        <ele>239.99000000000001</ele>
        <time>2025-05-13T09:24:50Z</time>
      </trkpt>
      <trkpt lat="38.230472998693585" lon="-1.318127028644085">
        <ele>246.22999999999999</ele>
        <time>2025-05-13T09:25:00Z</time>
      </trkpt>
      <trkpt lat="38.23048397898674" lon="-1.317991996183991">
        <ele>246.72</ele>
        <time>2025-05-13T09:25:01Z</time>
      </trkpt>
      <trkpt lat="38.230551034212112" lon="-1.317765014246106">
        <ele>247.19999999999999</ele>
        <time>2025-05-13T09:25:03Z</time>
      </trkpt>
      <trkpt lat="38.230603002011776" lon="-1.317637022584677">
        <ele>247.19999999999999</ele>
        <time>2025-05-13T09:25:04Z</time>
      </trkpt>
      <trkpt lat="38.230523038655519" lon="-1.317252041772008">
        <ele>247.68000000000001</ele>
        <time>2025-05-13T09:25:06Z</time>
      </trkpt>
      <trkpt lat="38.230494037270546" lon="-1.31708599627018">
        <ele>247.68000000000001</ele>
        <time>2025-05-13T09:25:07Z</time>
      </trkpt>
      <trkpt lat="38.230537036433816" lon="-1.316955992951989">
        <ele>247.68000000000001</ele>
        <time>2025-05-13T09:25:08Z</time>
      </trkpt>
      <trkpt lat="38.230578023940325" lon="-1.316832024604082">
        <ele>247.68000000000001</ele>
        <time>2025-05-13T09:25:09Z</time>
      </trkpt>
      <trkpt lat="38.230624962598085" lon="-1.31671903654933">
        <ele>247.68000000000001</ele>
        <time>2025-05-13T09:25:10Z</time>
      </trkpt>
      <trkpt lat="38.230690006166697" lon="-1.316595990210772">
        <ele>247.68000000000001</ele>
        <time>2025-05-13T09:25:11Z</time>
      </trkpt>
      <trkpt lat="38.230779021978378" lon="-1.316532036289573">
        <ele>247.68000000000001</ele>
        <time>2025-05-13T09:25:12Z</time>
      </trkpt>
      <trkpt lat="38.230885975062847" lon="-1.316486019641161">
        <ele>247.68000000000001</ele>
        <time>2025-05-13T09:25:13Z</time>
      </trkpt>
      <trkpt lat="38.230989994481206" lon="-1.316473027691245">
        <ele>248.16</ele>
        <time>2025-05-13T09:25:14Z</time>
      </trkpt>
      <trkpt lat="38.231103988364339" lon="-1.316516026854515">
        <ele>248.63999999999999</ele>
        <time>2025-05-13T09:25:15Z</time>
      </trkpt>
      <trkpt lat="38.231204990297556" lon="-1.316561037674546">
        <ele>249.12</ele>
        <time>2025-05-13T09:25:16Z</time>
      </trkpt>
      <trkpt lat="38.231300041079521" lon="-1.316625997424126">
        <ele>249.59999999999999</ele>
        <time>2025-05-13T09:25:17Z</time>
      </trkpt>
      <trkpt lat="38.231388973072171" lon="-1.316736973822117">
        <ele>249.59999999999999</ele>
        <time>2025-05-13T09:25:18Z</time>
      </trkpt>
      <trkpt lat="38.231435995548964" lon="-1.316867982968688">
        <ele>250.08000000000001</ele>
        <time>2025-05-13T09:25:19Z</time>
      </trkpt>
      <trkpt lat="38.231477988883853" lon="-1.316986000165343">
        <ele>250.08000000000001</ele>
        <time>2025-05-13T09:25:20Z</time>
      </trkpt>
      <trkpt lat="38.231477988883853" lon="-1.317174006253481">
        <ele>250.08000000000001</ele>
        <time>2025-05-13T09:25:21Z</time>
      </trkpt>
      <trkpt lat="38.2315359916538" lon="-1.317362012341619">
        <ele>250.08000000000001</ele>
        <time>2025-05-13T09:25:22Z</time>
      </trkpt>
      <trkpt lat="38.232458001002669" lon="-1.31889196112752">
        <ele>252.96000000000001</ele>
        <time>2025-05-13T09:25:29Z</time>
      </trkpt>
      <trkpt lat="38.233537003397942" lon="-1.320536993443966">
        <ele>255.84999999999999</ele>
        <time>2025-05-13T09:25:37Z</time>
      </trkpt>
      <trkpt lat="38.235495015978813" lon="-1.322688041254878">
        <ele>255.37</ele>
        <time>2025-05-13T09:25:46Z</time>
      </trkpt>
      <trkpt lat="38.238188037648797" lon="-1.32501401938498">
        <ele>251.03999999999999</ele>
        <time>2025-05-13T09:25:57Z</time>
      </trkpt>
      <trkpt lat="38.240846022963524" lon="-1.326644970104098">
        <ele>252</ele>
        <time>2025-05-13T09:26:07Z</time>
      </trkpt>
      <trkpt lat="38.243942968547344" lon="-1.327891023829579">
        <ele>263.06</ele>
        <time>2025-05-13T09:26:18Z</time>
      </trkpt>
      <trkpt lat="38.246856015175581" lon="-1.328411959111691">
        <ele>279.88</ele>
        <time>2025-05-13T09:26:28Z</time>
      </trkpt>
      <trkpt lat="38.249516012147069" lon="-1.328261001035571">
        <ele>291.89999999999998</ele>
        <time>2025-05-13T09:26:37Z</time>
      </trkpt>
      <trkpt lat="38.252100991085172" lon="-1.327466983348131">
        <ele>303.43000000000001</ele>
        <time>2025-05-13T09:26:46Z</time>
      </trkpt>
      <trkpt lat="38.254254972562194" lon="-1.326241968199611">
        <ele>313.52999999999997</ele>
        <time>2025-05-13T09:26:54Z</time>
      </trkpt>
      <trkpt lat="38.257099958136678" lon="-1.324222013354302">
        <ele>321.22000000000003</ele>
        <time>2025-05-13T09:27:04Z</time>
      </trkpt>
      <trkpt lat="38.259068029001355" lon="-1.323354989290237">
        <ele>323.62</ele>
        <time>2025-05-13T09:27:11Z</time>
      </trkpt>
      <trkpt lat="38.261130983009934" lon="-1.32301602512598">
        <ele>325.54000000000002</ele>
        <time>2025-05-13T09:27:19Z</time>
      </trkpt>
      <trkpt lat="38.262892020866275" lon="-1.323175029829145">
        <ele>327.94999999999999</ele>
        <time>2025-05-13T09:27:25Z</time>
      </trkpt>
      <trkpt lat="38.265530979260802" lon="-1.323766959831119">
        <ele>334.68000000000001</ele>
        <time>2025-05-13T09:27:34Z</time>
      </trkpt>
      <trkpt lat="38.268181001767516" lon="-1.323959995061159">
        <ele>339.95999999999998</ele>
        <time>2025-05-13T09:27:43Z</time>
      </trkpt>
      <trkpt lat="38.271110979840159" lon="-1.323447022587061">
        <ele>339.48000000000002</ele>
        <time>2025-05-13T09:27:53Z</time>
      </trkpt>
      <trkpt lat="38.273996030911803" lon="-1.322616040706635">
        <ele>341.41000000000003</ele>
        <time>2025-05-13T09:28:03Z</time>
      </trkpt>
      <trkpt lat="38.279194990172982" lon="-1.321074021980166">
        <ele>342.85000000000002</ele>
        <time>2025-05-13T09:28:21Z</time>
      </trkpt>
      <trkpt lat="38.282296964898705" lon="-1.319780023768544">
        <ele>339.95999999999998</ele>
        <time>2025-05-13T09:28:32Z</time>
      </trkpt>
      <trkpt lat="38.28527002595365" lon="-1.318060979247093">
        <ele>339</ele>
        <time>2025-05-13T09:28:43Z</time>
      </trkpt>
      <trkpt lat="38.288667965680361" lon="-1.315756039693952">
        <ele>337.56</ele>
        <time>2025-05-13T09:28:56Z</time>
      </trkpt>
      <trkpt lat="38.291960963979363" lon="-1.314039006829262">
        <ele>335.16000000000003</ele>
        <time>2025-05-13T09:29:07Z</time>
      </trkpt>
      <trkpt lat="38.296091984957457" lon="-1.31199499592185">
        <ele>335.63999999999999</ele>
        <time>2025-05-13T09:29:23Z</time>
      </trkpt>
      <trkpt lat="38.301348024979234" lon="-1.309399036690593">
        <ele>337.07999999999998</ele>
        <time>2025-05-13T09:29:42Z</time>
      </trkpt>
      <trkpt lat="38.30520898103714" lon="-1.307499026879668">
        <ele>337.56</ele>
        <time>2025-05-13T09:29:56Z</time>
      </trkpt>
      <trkpt lat="38.30963596701622" lon="-1.305309003219008">
        <ele>336.60000000000002</ele>
        <time>2025-05-13T09:30:11Z</time>
      </trkpt>
      <trkpt lat="38.315169028937817" lon="-1.302571976557374">
        <ele>339.95999999999998</ele>
        <time>2025-05-13T09:30:32Z</time>
      </trkpt>
      <trkpt lat="38.318407963961363" lon="-1.300689987838268">
        <ele>341.41000000000003</ele>
        <time>2025-05-13T09:30:44Z</time>
      </trkpt>
      <trkpt lat="38.320880038663745" lon="-1.298653017729521">
        <ele>344.76999999999998</ele>
        <time>2025-05-13T09:30:54Z</time>
      </trkpt>
      <trkpt lat="38.323589991778135" lon="-1.295720022171736">
        <ele>350.54000000000002</ele>
        <time>2025-05-13T09:31:06Z</time>
      </trkpt>
      <trkpt lat="38.327265037223697" lon="-1.291323965415359">
        <ele>352.94</ele>
        <time>2025-05-13T09:31:23Z</time>
      </trkpt>
      <trkpt lat="38.331153988838196" lon="-1.286678966134787">
        <ele>351.98000000000002</ele>
        <time>2025-05-13T09:31:41Z</time>
      </trkpt>
      <trkpt lat="38.333693034946918" lon="-1.284073032438755">
        <ele>354.86000000000001</ele>
        <time>2025-05-13T09:31:52Z</time>
      </trkpt>
      <trkpt lat="38.336228979751468" lon="-1.282078977674246">
        <ele>359.19</ele>
        <time>2025-05-13T09:32:02Z</time>
      </trkpt>
      <trkpt lat="38.338799038901925" lon="-1.280240993946791">
        <ele>362.06999999999999</ele>
        <time>2025-05-13T09:32:12Z</time>
      </trkpt>
      <trkpt lat="38.341784002259374" lon="-1.277786018326879">
        <ele>365.92000000000002</ele>
        <time>2025-05-13T09:32:24Z</time>
      </trkpt>
      <trkpt lat="38.344494039192796" lon="-1.274864003062248">
        <ele>370.24000000000001</ele>
        <time>2025-05-13T09:32:36Z</time>
      </trkpt>
      <trkpt lat="38.348431019112468" lon="-1.270289998501539">
        <ele>376.49000000000001</ele>
        <time>2025-05-13T09:32:54Z</time>
      </trkpt>
      <trkpt lat="38.351709013804793" lon="-1.266480004414916">
        <ele>385.63</ele>
        <time>2025-05-13T09:33:09Z</time>
      </trkpt>
      <trkpt lat="38.35447202436626" lon="-1.263636024668813">
        <ele>394.75999999999999</ele>
        <time>2025-05-13T09:33:21Z</time>
      </trkpt>
      <trkpt lat="38.356791967526078" lon="-1.261959979310632">
        <ele>398.60000000000002</ele>
        <time>2025-05-13T09:33:30Z</time>
      </trkpt>
      <trkpt lat="38.359262030571699" lon="-1.260722978040576">
        <ele>399.56999999999999</ele>
        <time>2025-05-13T09:33:39Z</time>
      </trkpt>
      <trkpt lat="38.362174993380904" lon="-1.259941030293703">
        <ele>396.68000000000001</ele>
        <time>2025-05-13T09:33:49Z</time>
      </trkpt>
      <trkpt lat="38.366007031872869" lon="-1.259369971230626">
        <ele>387.55000000000001</ele>
        <time>2025-05-13T09:34:02Z</time>
      </trkpt>
      <trkpt lat="38.368570972234011" lon="-1.258508982136846">
        <ele>383.69999999999999</ele>
        <time>2025-05-13T09:34:11Z</time>
      </trkpt>
      <trkpt lat="38.370708022266626" lon="-1.257212972268462">
        <ele>385.63</ele>
        <time>2025-05-13T09:34:19Z</time>
      </trkpt>
      <trkpt lat="38.373146988451481" lon="-1.255057984963059">
        <ele>388.99000000000001</ele>
        <time>2025-05-13T09:34:28Z</time>
      </trkpt>
      <trkpt lat="38.376118959859014" lon="-1.252565961331129">
        <ele>393.31999999999999</ele>
        <time>2025-05-13T09:34:41Z</time>
      </trkpt>
      <trkpt lat="38.378802007064223" lon="-1.250974992290139">
        <ele>395.24000000000001</ele>
        <time>2025-05-13T09:34:51Z</time>
      </trkpt>
      <trkpt lat="38.382473029196262" lon="-1.249425010755658">
        <ele>397.63999999999999</ele>
        <time>2025-05-13T09:35:04Z</time>
      </trkpt>
      <trkpt lat="38.386735981330276" lon="-1.247757012024522">
        <ele>400.52999999999997</ele>
        <time>2025-05-13T09:35:19Z</time>
      </trkpt>
      <trkpt lat="38.390410020947456" lon="-1.246332004666328">
        <ele>405.81</ele>
        <time>2025-05-13T09:35:32Z</time>
      </trkpt>
      <trkpt lat="38.395788017660379" lon="-1.244222028180957">
        <ele>414.47000000000003</ele>
        <time>2025-05-13T09:35:51Z</time>
      </trkpt>
      <trkpt lat="38.40060300193727" lon="-1.242303997278214">
        <ele>423.12</ele>
        <time>2025-05-13T09:36:08Z</time>
      </trkpt>
      <trkpt lat="38.404451971873641" lon="-1.240326035767794">
        <ele>429.37</ele>
        <time>2025-05-13T09:36:22Z</time>
      </trkpt>
      <trkpt lat="38.40853001922369" lon="-1.23804297298193">
        <ele>438.01999999999998</ele>
        <time>2025-05-13T09:36:37Z</time>
      </trkpt>
      <trkpt lat="38.413140987977386" lon="-1.235538963228464">
        <ele>451.95999999999998</ele>
        <time>2025-05-13T09:36:54Z</time>
      </trkpt>
      <trkpt lat="38.415145017206669" lon="-1.234890036284924">
        <ele>458.69</ele>
        <time>2025-05-13T09:37:01Z</time>
      </trkpt>
      <trkpt lat="38.417503014206886" lon="-1.234684009104967">
        <ele>465.89999999999998</ele>
        <time>2025-05-13T09:37:09Z</time>
      </trkpt>
      <trkpt lat="38.419556999579072" lon="-1.234997995197773">
        <ele>473.58999999999997</ele>
        <time>2025-05-13T09:37:16Z</time>
      </trkpt>
      <trkpt lat="38.421807959675789" lon="-1.235946994274855">
        <ele>484.16000000000003</ele>
        <time>2025-05-13T09:37:24Z</time>
      </trkpt>
      <trkpt lat="38.424121029675007" lon="-1.237617004662752">
        <ele>494.74000000000001</ele>
        <time>2025-05-13T09:37:33Z</time>
      </trkpt>
      <trkpt lat="38.426075018942356" lon="-1.239907024428248">
        <ele>503.87</ele>
        <time>2025-05-13T09:37:42Z</time>
      </trkpt>
      <trkpt lat="38.428707020357251" lon="-1.243485007435083">
        <ele>514.44000000000005</ele>
        <time>2025-05-13T09:37:55Z</time>
      </trkpt>
      <trkpt lat="38.432340994477272" lon="-1.248464025557041">
        <ele>525.01999999999998</ele>
        <time>2025-05-13T09:38:13Z</time>
      </trkpt>
      <trkpt lat="38.434666972607374" lon="-1.251396015286446">
        <ele>524.05999999999995</ele>
        <time>2025-05-13T09:38:24Z</time>
      </trkpt>
      <trkpt lat="38.436888009309769" lon="-1.253246990963817">
        <ele>521.16999999999996</ele>
        <time>2025-05-13T09:38:32Z</time>
      </trkpt>
      <trkpt lat="38.439066968858242" lon="-1.254421966150403">
        <ele>518.28999999999996</ele>
        <time>2025-05-13T09:38:41Z</time>
      </trkpt>
      <trkpt lat="38.441667035222054" lon="-1.255148006603122">
        <ele>515.88</ele>
        <time>2025-05-13T09:38:50Z</time>
      </trkpt>
      <trkpt lat="38.444036012515426" lon="-1.255221012979746">
        <ele>513</ele>
        <time>2025-05-13T09:38:58Z</time>
      </trkpt>
      <trkpt lat="38.446672959253192" lon="-1.25465095974505">
        <ele>509.63999999999999</ele>
        <time>2025-05-13T09:39:07Z</time>
      </trkpt>
      <trkpt lat="38.449163977056742" lon="-1.253431979566813">
        <ele>507.70999999999998</ele>
        <time>2025-05-13T09:39:16Z</time>
      </trkpt>
      <trkpt lat="38.451429018750787" lon="-1.251648981124163">
        <ele>507.70999999999998</ele>
        <time>2025-05-13T09:39:25Z</time>
      </trkpt>
      <trkpt lat="38.453351994976401" lon="-1.249296013265848">
        <ele>509.63999999999999</ele>
        <time>2025-05-13T09:39:33Z</time>
      </trkpt>
      <trkpt lat="38.454886972904205" lon="-1.246525961905718">
        <ele>511.56</ele>
        <time>2025-05-13T09:39:42Z</time>
      </trkpt>
      <trkpt lat="38.455849969759583" lon="-1.24377803876996">
        <ele>515.39999999999998</ele>
        <time>2025-05-13T09:39:51Z</time>
      </trkpt>
      <trkpt lat="38.456472996622324" lon="-1.240481017157435">
        <ele>517.80999999999995</ele>
        <time>2025-05-13T09:40:00Z</time>
      </trkpt>
      <trkpt lat="38.457072973251343" lon="-1.235265964642167">
        <ele>521.16999999999996</ele>
        <time>2025-05-13T09:40:14Z</time>
      </trkpt>
      <trkpt lat="38.457953995093703" lon="-1.232063993811607">
        <ele>524.53999999999996</ele>
        <time>2025-05-13T09:40:23Z</time>
      </trkpt>
      <trkpt lat="38.459318988025188" lon="-1.229142984375358">
        <ele>526.46000000000004</ele>
        <time>2025-05-13T09:40:32Z</time>
      </trkpt>
      <trkpt lat="38.46110500395298" lon="-1.226629000157118">
        <ele>529.34000000000003</ele>
        <time>2025-05-13T09:40:41Z</time>
      </trkpt>
      <trkpt lat="38.462982969358563" lon="-1.22478699311614">
        <ele>531.26999999999998</ele>
        <time>2025-05-13T09:40:49Z</time>
      </trkpt>
      <trkpt lat="38.46563802100718" lon="-1.223120000213385">
        <ele>532.23000000000002</ele>
        <time>2025-05-13T09:40:59Z</time>
      </trkpt>
      <trkpt lat="38.470925996080041" lon="-1.22061800211668">
        <ele>537.99000000000001</ele>
        <time>2025-05-13T09:41:18Z</time>
      </trkpt>
      <trkpt lat="38.474245984107256" lon="-1.218993002548814">
        <ele>542.79999999999995</ele>
        <time>2025-05-13T09:41:30Z</time>
      </trkpt>
      <trkpt lat="38.476888965815306" lon="-1.217300025746226">
        <ele>543.75999999999999</ele>
        <time>2025-05-13T09:41:40Z</time>
      </trkpt>
      <trkpt lat="38.479572013020515" lon="-1.214947979897261">
        <ele>546.64999999999998</ele>
        <time>2025-05-13T09:41:51Z</time>
      </trkpt>
      <trkpt lat="38.481529019773006" lon="-1.212657038122416">
        <ele>548.57000000000005</ele>
        <time>2025-05-13T09:42:00Z</time>
      </trkpt>
      <trkpt lat="38.483463982120156" lon="-1.209805011749268">
        <ele>551.45000000000005</ele>
        <time>2025-05-13T09:42:10Z</time>
      </trkpt>
      <trkpt lat="38.485502041876316" lon="-1.206076992675662">
        <ele>553.86000000000001</ele>
        <time>2025-05-13T09:42:22Z</time>
      </trkpt>
      <trkpt lat="38.4884989913553" lon="-1.200452987104654">
        <ele>555.77999999999997</ele>
        <time>2025-05-13T09:42:40Z</time>
      </trkpt>
      <trkpt lat="38.491629967465997" lon="-1.194483982399106">
        <ele>553.38</ele>
        <time>2025-05-13T09:42:59Z</time>
      </trkpt>
      <trkpt lat="38.494102964177728" lon="-1.189791038632393">
        <ele>550.49000000000001</ele>
        <time>2025-05-13T09:43:14Z</time>
      </trkpt>
      <trkpt lat="38.496331963688135" lon="-1.185779040679336">
        <ele>550.49000000000001</ele>
        <time>2025-05-13T09:43:27Z</time>
      </trkpt>
      <trkpt lat="38.499285997822881" lon="-1.181057011708617">
        <ele>552.40999999999997</ele>
        <time>2025-05-13T09:43:43Z</time>
      </trkpt>
      <trkpt lat="38.500692984089255" lon="-1.179106961935759">
        <ele>551.45000000000005</ele>
        <time>2025-05-13T09:43:50Z</time>
      </trkpt>
      <trkpt lat="38.503800993785262" lon="-1.17506998591125">
        <ele>550.97000000000003</ele>
        <time>2025-05-13T09:44:05Z</time>
      </trkpt>
      <trkpt lat="38.507166998460889" lon="-1.171359987929463">
        <ele>552.40999999999997</ele>
        <time>2025-05-13T09:44:20Z</time>
      </trkpt>
      <trkpt lat="38.511433973908424" lon="-1.167285041883588">
        <ele>553.86000000000001</ele>
        <time>2025-05-13T09:44:38Z</time>
      </trkpt>
      <trkpt lat="38.514701994135976" lon="-1.164657985791564">
        <ele>555.29999999999995</ele>
        <time>2025-05-13T09:44:51Z</time>
      </trkpt>
      <trkpt lat="38.519386975094676" lon="-1.16144897416234">
        <ele>555.77999999999997</ele>
        <time>2025-05-13T09:45:09Z</time>
      </trkpt>
      <trkpt lat="38.523556971922517" lon="-1.15857096388936">
        <ele>558.17999999999995</ele>
        <time>2025-05-13T09:45:25Z</time>
      </trkpt>
      <trkpt lat="38.527760999277234" lon="-1.155037991702557">
        <ele>562.50999999999999</ele>
        <time>2025-05-13T09:45:42Z</time>
      </trkpt>
      <trkpt lat="38.532663993537426" lon="-1.150760035961866">
        <ele>562.99000000000001</ele>
        <time>2025-05-13T09:46:02Z</time>
      </trkpt>
      <trkpt lat="38.536537019535899" lon="-1.147252041846514">
        <ele>560.11000000000001</ele>
        <time>2025-05-13T09:46:18Z</time>
      </trkpt>
      <trkpt lat="38.539277985692024" lon="-1.144359027966857">
        <ele>558.17999999999995</ele>
        <time>2025-05-13T09:46:30Z</time>
      </trkpt>
      <trkpt lat="38.542453972622752" lon="-1.140380976721644">
        <ele>554.34000000000003</ele>
        <time>2025-05-13T09:46:44Z</time>
      </trkpt>
      <trkpt lat="38.544944990426302" lon="-1.136651029810309">
        <ele>553.38</ele>
        <time>2025-05-13T09:46:58Z</time>
      </trkpt>
      <trkpt lat="38.546697981655598" lon="-1.133618960157037">
        <ele>552.89999999999998</ele>
        <time>2025-05-13T09:47:08Z</time>
      </trkpt>
      <trkpt lat="38.549222024157643" lon="-1.128499964252114">
        <ele>557.70000000000005</ele>
        <time>2025-05-13T09:47:24Z</time>
      </trkpt>
      <trkpt lat="38.550834031775594" lon="-1.125795040279627">
        <ele>560.59000000000003</ele>
        <time>2025-05-13T09:47:33Z</time>
      </trkpt>
      <trkpt lat="38.553547002375126" lon="-1.12230003811419">
        <ele>563.95000000000005</ele>
        <time>2025-05-13T09:47:46Z</time>
      </trkpt>
      <trkpt lat="38.554914006963372" lon="-1.119833998382092">
        <ele>566.35000000000002</ele>
        <time>2025-05-13T09:47:54Z</time>
      </trkpt>
      <trkpt lat="38.556037014350295" lon="-1.116759013384581">
        <ele>566.83000000000004</ele>
        <time>2025-05-13T09:48:03Z</time>
      </trkpt>
      <trkpt lat="38.556633973494172" lon="-1.1134700383991">
        <ele>563.47000000000003</ele>
        <time>2025-05-13T09:48:12Z</time>
      </trkpt>
      <trkpt lat="38.556851986795664" lon="-1.109720980748534">
        <ele>561.07000000000005</ele>
        <time>2025-05-13T09:48:22Z</time>
      </trkpt>
      <trkpt lat="38.557333024218678" lon="-1.106371991336346">
        <ele>559.62</ele>
        <time>2025-05-13T09:48:31Z</time>
      </trkpt>
      <trkpt lat="38.558284034952521" lon="-1.103193992748857">
        <ele>558.65999999999997</ele>
        <time>2025-05-13T09:48:40Z</time>
      </trkpt>
      <trkpt lat="38.559706024825573" lon="-1.100306008011103">
        <ele>558.65999999999997</ele>
        <time>2025-05-13T09:48:49Z</time>
      </trkpt>
      <trkpt lat="38.561644004657865" lon="-1.09649601392448">
        <ele>558.17999999999995</ele>
        <time>2025-05-13T09:49:01Z</time>
      </trkpt>
      <trkpt lat="38.563074041157961" lon="-1.093194968998432">
        <ele>556.74000000000001</ele>
        <time>2025-05-13T09:49:11Z</time>
      </trkpt>
      <trkpt lat="38.564567025750875" lon="-1.089086998254061">
        <ele>554.34000000000003</ele>
        <time>2025-05-13T09:49:23Z</time>
      </trkpt>
      <trkpt lat="38.566226977854967" lon="-1.084239995107055">
        <ele>554.34000000000003</ele>
        <time>2025-05-13T09:49:37Z</time>
      </trkpt>
      <trkpt lat="38.567732032388449" lon="-1.080996030941606">
        <ele>556.74000000000001</ele>
        <time>2025-05-13T09:49:47Z</time>
      </trkpt>
      <trkpt lat="38.569746958091855" lon="-1.077738991007209">
        <ele>560.11000000000001</ele>
        <time>2025-05-13T09:49:58Z</time>
      </trkpt>
      <trkpt lat="38.573087984696031" lon="-1.07340102083981">
        <ele>562.02999999999997</ele>
        <time>2025-05-13T09:50:13Z</time>
      </trkpt>
      <trkpt lat="38.574330015107989" lon="-1.071303030475974">
        <ele>561.54999999999995</ele>
        <time>2025-05-13T09:50:21Z</time>
      </trkpt>
      <trkpt lat="38.575418991968036" lon="-1.068644039332867">
        <ele>560.11000000000001</ele>
        <time>2025-05-13T09:50:29Z</time>
      </trkpt>
      <trkpt lat="38.576773004606366" lon="-1.064864974468947">
        <ele>558.17999999999995</ele>
        <time>2025-05-13T09:50:39Z</time>
      </trkpt>
      <trkpt lat="38.577977987006307" lon="-1.062705963850021">
        <ele>554.82000000000005</ele>
        <time>2025-05-13T09:50:47Z</time>
      </trkpt>
      <trkpt lat="38.579684039577842" lon="-1.060603028163314">
        <ele>553.86000000000001</ele>
        <time>2025-05-13T09:50:55Z</time>
      </trkpt>
      <trkpt lat="38.581691002473235" lon="-1.059018010273576">
        <ele>556.25999999999999</ele>
        <time>2025-05-13T09:51:03Z</time>
      </trkpt>
      <trkpt lat="38.58443196862936" lon="-1.057584034278989">
        <ele>559.62</ele>
        <time>2025-05-13T09:51:13Z</time>
      </trkpt>
      <trkpt lat="38.586825001984835" lon="-1.056067999452353">
        <ele>563.47000000000003</ele>
        <time>2025-05-13T09:51:22Z</time>
      </trkpt>
      <trkpt lat="38.588701039552689" lon="-1.054239990189672">
        <ele>565.38999999999999</ele>
        <time>2025-05-13T09:51:30Z</time>
      </trkpt>
      <trkpt lat="38.590988963842392" lon="-1.051271036267281">
        <ele>565.38999999999999</ele>
        <time>2025-05-13T09:51:40Z</time>
      </trkpt>
      <trkpt lat="38.592789983376861" lon="-1.04931503534317">
        <ele>564.90999999999997</ele>
        <time>2025-05-13T09:51:49Z</time>
      </trkpt>
      <trkpt lat="38.594579016789794" lon="-1.047994969412684">
        <ele>563.47000000000003</ele>
        <time>2025-05-13T09:51:56Z</time>
      </trkpt>
      <trkpt lat="38.597601028159261" lon="-1.046445993706584">
        <ele>563.47000000000003</ele>
        <time>2025-05-13T09:52:07Z</time>
      </trkpt>
      <trkpt lat="38.601851994171739" lon="-1.044797021895647">
        <ele>565.38999999999999</ele>
        <time>2025-05-13T09:52:22Z</time>
      </trkpt>
      <trkpt lat="38.606206979602575" lon="-1.04360000230372">
        <ele>566.35000000000002</ele>
        <time>2025-05-13T09:52:37Z</time>
      </trkpt>
      <trkpt lat="38.610023008659482" lon="-1.042926013469696">
        <ele>567.32000000000005</ele>
        <time>2025-05-13T09:52:50Z</time>
      </trkpt>
      <trkpt lat="38.614435996860266" lon="-1.042301980778575">
        <ele>576.92999999999995</ele>
        <time>2025-05-13T09:53:05Z</time>
      </trkpt>
      <trkpt lat="38.617938039824367" lon="-1.041446020826697">
        <ele>588.95000000000005</ele>
        <time>2025-05-13T09:53:17Z</time>
      </trkpt>
      <trkpt lat="38.621651977300644" lon="-1.040145987644792">
        <ele>600.96000000000004</ele>
        <time>2025-05-13T09:53:30Z</time>
      </trkpt>
      <trkpt lat="38.624792005866766" lon="-1.039085006341338">
        <ele>609.61000000000001</ele>
        <time>2025-05-13T09:53:41Z</time>
      </trkpt>
      <trkpt lat="38.627738999202847" lon="-1.038702037185431">
        <ele>617.77999999999997</ele>
        <time>2025-05-13T09:53:51Z</time>
      </trkpt>
      <trkpt lat="38.630689010024071" lon="-1.038972018286586">
        <ele>625.96000000000004</ele>
        <time>2025-05-13T09:54:01Z</time>
      </trkpt>
      <trkpt lat="38.633881006389856" lon="-1.039810040965676">
        <ele>635.57000000000005</ele>
        <time>2025-05-13T09:54:12Z</time>
      </trkpt>
      <trkpt lat="38.638212019577622" lon="-1.041072020307183">
        <ele>648.07000000000005</ele>
        <time>2025-05-13T09:54:27Z</time>
      </trkpt>
      <trkpt lat="38.640173971652985" lon="-1.041393969208002">
        <ele>654.79999999999995</ele>
        <time>2025-05-13T09:54:35Z</time>
      </trkpt>
      <trkpt lat="38.642927007749677" lon="-1.041385000571609">
        <ele>664.40999999999997</ele>
        <time>2025-05-13T09:54:48Z</time>
      </trkpt>
      <trkpt lat="38.644909998401999" lon="-1.041051987558603">
        <ele>673.05999999999995</ele>
        <time>2025-05-13T09:54:58Z</time>
      </trkpt>
      <trkpt lat="38.646547989919782" lon="-1.04053096845746">
        <ele>678.35000000000002</ele>
        <time>2025-05-13T09:55:07Z</time>
      </trkpt>
      <trkpt lat="38.647453989833593" lon="-1.040118997916579">
        <ele>681.71000000000004</ele>
        <time>2025-05-13T09:55:14Z</time>
      </trkpt>
      <trkpt lat="38.64877900108695" lon="-1.039384994655848">
        <ele>685.08000000000004</ele>
        <time>2025-05-13T09:55:21Z</time>
      </trkpt>
      <trkpt lat="38.650543978437781" lon="-1.038003992289305">
        <ele>689.39999999999998</ele>
        <time>2025-05-13T09:55:29Z</time>
      </trkpt>
      <trkpt lat="38.652735007926822" lon="-1.035484978929162">
        <ele>696.61000000000001</ele>
        <time>2025-05-13T09:55:38Z</time>
      </trkpt>
      <trkpt lat="38.654927965253592" lon="-1.032406976446509">
        <ele>708.14999999999998</ele>
        <time>2025-05-13T09:55:50Z</time>
      </trkpt>
      <trkpt lat="38.657430969178677" lon="-1.029740022495389">
        <ele>716.79999999999995</ele>
        <time>2025-05-13T09:56:01Z</time>
      </trkpt>
      <trkpt lat="38.659998010843992" lon="-1.027839006856084">
        <ele>720.64999999999998</ele>
        <time>2025-05-13T09:56:11Z</time>
      </trkpt>
      <trkpt lat="38.662779964506626" lon="-1.02649899199605">
        <ele>721.13</ele>
        <time>2025-05-13T09:56:21Z</time>
      </trkpt>
      <trkpt lat="38.665328985080123" lon="-1.025448990985751">
        <ele>714.88</ele>
        <time>2025-05-13T09:56:30Z</time>
      </trkpt>
      <trkpt lat="38.66776904091239" lon="-1.024058014154434">
        <ele>704.29999999999995</ele>
        <time>2025-05-13T09:56:39Z</time>
      </trkpt>
      <trkpt lat="38.671049969270825" lon="-1.021488038823009">
        <ele>688.44000000000005</ele>
        <time>2025-05-13T09:56:52Z</time>
      </trkpt>
      <trkpt lat="38.675307976081967" lon="-1.018017008900642">
        <ele>667.76999999999998</ele>
        <time>2025-05-13T09:57:09Z</time>
      </trkpt>
      <trkpt lat="38.677872000262141" lon="-1.016107024624944">
        <ele>655.27999999999997</ele>
        <time>2025-05-13T09:57:19Z</time>
      </trkpt>
      <trkpt lat="38.680140981450677" lon="-1.015207981690764">
        <ele>646.62</ele>
        <time>2025-05-13T09:57:27Z</time>
      </trkpt>
      <trkpt lat="38.683085041120648" lon="-1.014731973409653">
        <ele>641.34000000000003</ele>
        <time>2025-05-13T09:57:37Z</time>
      </trkpt>
      <trkpt lat="38.685360979288816" lon="-1.013939967378974">
        <ele>637.97000000000003</ele>
        <time>2025-05-13T09:57:45Z</time>
      </trkpt>
      <trkpt lat="38.687444971874356" lon="-1.012495011091232">
        <ele>634.61000000000001</ele>
        <time>2025-05-13T09:57:53Z</time>
      </trkpt>
      <trkpt lat="38.68938697502017" lon="-1.010732967406511">
        <ele>631.24000000000001</ele>
        <time>2025-05-13T09:58:01Z</time>
      </trkpt>
      <trkpt lat="38.691551014780998" lon="-1.009498983621597">
        <ele>622.59000000000003</ele>
        <time>2025-05-13T09:58:09Z</time>
      </trkpt>
      <trkpt lat="38.693741038441658" lon="-1.00888098590076">
        <ele>613.46000000000004</ele>
        <time>2025-05-13T09:58:16Z</time>
      </trkpt>
      <trkpt lat="38.69606601074338" lon="-1.008271034806967">
        <ele>602.39999999999998</ele>
        <time>2025-05-13T09:58:24Z</time>
      </trkpt>
      <trkpt lat="38.69793601334095" lon="-1.007168982177973">
        <ele>596.63999999999999</ele>
        <time>2025-05-13T09:58:31Z</time>
      </trkpt>
      <trkpt lat="38.699920009821653" lon="-1.005557980388403">
        <ele>595.19000000000005</ele>
        <time>2025-05-13T09:58:39Z</time>
      </trkpt>
      <trkpt lat="38.701746007427573" lon="-1.004315027967095">
        <ele>594.71000000000004</ele>
        <time>2025-05-13T09:58:47Z</time>
      </trkpt>
      <trkpt lat="38.704035021364689" lon="-1.003523021936417">
        <ele>591.35000000000002</ele>
        <time>2025-05-13T09:58:55Z</time>
      </trkpt>
      <trkpt lat="38.707274962216616" lon="-1.003027986735106">
        <ele>582.70000000000005</ele>
        <time>2025-05-13T09:59:06Z</time>
      </trkpt>
      <trkpt lat="38.7098160199821" lon="-1.001999024301767">
        <ele>577.88999999999999</ele>
        <time>2025-05-13T09:59:14Z</time>
      </trkpt>
      <trkpt lat="38.711609998717904" lon="-1.000641994178295">
        <ele>575.00999999999999</ele>
        <time>2025-05-13T09:59:22Z</time>
      </trkpt>
      <trkpt lat="38.71338696219027" lon="-0.998612986877561">
        <ele>571.63999999999999</ele>
        <time>2025-05-13T09:59:30Z</time>
      </trkpt>
      <trkpt lat="38.714603008702397" lon="-0.996478032320738">
        <ele>565.87</ele>
        <time>2025-05-13T09:59:37Z</time>
      </trkpt>
      <trkpt lat="38.715600036084652" lon="-0.993739999830723">
        <ele>558.65999999999997</ele>
        <time>2025-05-13T09:59:45Z</time>
      </trkpt>
      <trkpt lat="38.716094987466931" lon="-0.990775991231203">
        <ele>553.38</ele>
        <time>2025-05-13T09:59:53Z</time>
      </trkpt>
      <trkpt lat="38.716348959133029" lon="-0.988161005079746">
        <ele>553.38</ele>
        <time>2025-05-13T10:00:00Z</time>
      </trkpt>
      <trkpt lat="38.716538976877928" lon="-0.982483020052314">
        <ele>557.70000000000005</ele>
        <time>2025-05-13T10:00:15Z</time>
      </trkpt>
      <trkpt lat="38.716510981321335" lon="-0.978318974375725">
        <ele>560.59000000000003</ele>
        <time>2025-05-13T10:00:26Z</time>
      </trkpt>
      <trkpt lat="38.716678032651544" lon="-0.973409023135901">
        <ele>563.95000000000005</ele>
        <time>2025-05-13T10:00:39Z</time>
      </trkpt>
      <trkpt lat="38.717093020677567" lon="-0.968534024432302">
        <ele>577.40999999999997</ele>
        <time>2025-05-13T10:00:52Z</time>
      </trkpt>
      <trkpt lat="38.717819983139634" lon="-0.963710993528366">
        <ele>591.35000000000002</ele>
        <time>2025-05-13T10:01:04Z</time>
      </trkpt>
      <trkpt lat="38.718701004981995" lon="-0.958521002903581">
        <ele>599.03999999999996</ele>
        <time>2025-05-13T10:01:19Z</time>
      </trkpt>
      <trkpt lat="38.719558976590633" lon="-0.953711969777942">
        <ele>603.85000000000002</ele>
        <time>2025-05-13T10:01:31Z</time>
      </trkpt>
      <trkpt lat="38.720716014504433" lon="-0.948628010228276">
        <ele>609.61000000000001</ele>
        <time>2025-05-13T10:01:46Z</time>
      </trkpt>
      <trkpt lat="38.721923008561134" lon="-0.944332033395767">
        <ele>610.09000000000003</ele>
        <time>2025-05-13T10:01:58Z</time>
      </trkpt>
      <trkpt lat="38.723280960693955" lon="-0.940531007945538">
        <ele>601.44000000000005</ele>
        <time>2025-05-13T10:02:09Z</time>
      </trkpt>
      <trkpt lat="38.724759025499225" lon="-0.937736984342337">
        <ele>590.87</ele>
        <time>2025-05-13T10:02:18Z</time>
      </trkpt>
      <trkpt lat="38.724930016323924" lon="-0.937443030998111">
        <ele>589.90999999999997</ele>
        <time>2025-05-13T10:02:19Z</time>
      </trkpt>
      <trkpt lat="38.727081986144185" lon="-0.933786006644368">
        <ele>589.42999999999995</ele>
        <time>2025-05-13T10:02:30Z</time>
      </trkpt>
      <trkpt lat="38.729104036465287" lon="-0.930512035265565">
        <ele>589.42999999999995</ele>
        <time>2025-05-13T10:02:42Z</time>
      </trkpt>
      <trkpt lat="38.73113002628088" lon="-0.928307007998228">
        <ele>592.30999999999995</ele>
        <time>2025-05-13T10:02:51Z</time>
      </trkpt>
      <trkpt lat="38.733491962775588" lon="-0.926722995936871">
        <ele>597.12</ele>
        <time>2025-05-13T10:03:00Z</time>
      </trkpt>
      <trkpt lat="38.737060977146029" lon="-0.924848970025778">
        <ele>603.85000000000002</ele>
        <time>2025-05-13T10:03:13Z</time>
      </trkpt>
      <trkpt lat="38.741119997575879" lon="-0.922520980238914">
        <ele>612.5</ele>
        <time>2025-05-13T10:03:28Z</time>
      </trkpt>
      <trkpt lat="38.743849983438849" lon="-0.920258034020662">
        <ele>620.66999999999996</ele>
        <time>2025-05-13T10:03:39Z</time>
      </trkpt>
      <trkpt lat="38.745651002973318" lon="-0.918301027268171">
        <ele>624.50999999999999</ele>
        <time>2025-05-13T10:03:47Z</time>
      </trkpt>
      <trkpt lat="38.748038001358509" lon="-0.914922030642629">
        <ele>630.75999999999999</ele>
        <time>2025-05-13T10:03:59Z</time>
      </trkpt>
      <trkpt lat="38.750061979517341" lon="-0.91118797659874">
        <ele>633.64999999999998</ele>
        <time>2025-05-13T10:04:10Z</time>
      </trkpt>
      <trkpt lat="38.752899002283812" lon="-0.905860019847751">
        <ele>636.04999999999995</ele>
        <time>2025-05-13T10:04:28Z</time>
      </trkpt>
      <trkpt lat="38.75532497651875" lon="-0.901567982509732">
        <ele>639.40999999999997</ele>
        <time>2025-05-13T10:04:42Z</time>
      </trkpt>
      <trkpt lat="38.757438976317644" lon="-0.898932963609695">
        <ele>642.77999999999997</ele>
        <time>2025-05-13T10:04:52Z</time>
      </trkpt>
      <trkpt lat="38.759650038555264" lon="-0.897025996819139">
        <ele>644.70000000000005</ele>
        <time>2025-05-13T10:05:01Z</time>
      </trkpt>
      <trkpt lat="38.762071989476681" lon="-0.89556997641921">
        <ele>647.59000000000003</ele>
        <time>2025-05-13T10:05:10Z</time>
      </trkpt>
      <trkpt lat="38.764939019456506" lon="-0.894592981785536">
        <ele>652.38999999999999</ele>
        <time>2025-05-13T10:05:20Z</time>
      </trkpt>
      <trkpt lat="38.768184995278716" lon="-0.894004991278052">
        <ele>653.35000000000002</ele>
        <time>2025-05-13T10:05:31Z</time>
      </trkpt>
      <trkpt lat="38.77231702208519" lon="-0.893324967473745">
        <ele>645.65999999999997</ele>
        <time>2025-05-13T10:05:45Z</time>
      </trkpt>
      <trkpt lat="38.776736967265606" lon="-0.89268802665174">
        <ele>628.36000000000001</ele>
        <time>2025-05-13T10:06:00Z</time>
      </trkpt>
      <trkpt lat="38.780006999149919" lon="-0.892594987526536">
        <ele>615.86000000000001</ele>
        <time>2025-05-13T10:06:11Z</time>
      </trkpt>
      <trkpt lat="38.785061035305262" lon="-0.892635975033045">
        <ele>596.63999999999999</ele>
        <time>2025-05-13T10:06:28Z</time>
      </trkpt>
      <trkpt lat="38.789189038798213" lon="-0.89226096868515">
        <ele>588.46000000000004</ele>
        <time>2025-05-13T10:06:41Z</time>
      </trkpt>
      <trkpt lat="38.793297009542584" lon="-0.891393022611737">
        <ele>582.70000000000005</ele>
        <time>2025-05-13T10:06:55Z</time>
      </trkpt>
      <trkpt lat="38.797600027173758" lon="-0.889946976676583">
        <ele>575.49000000000001</ele>
        <time>2025-05-13T10:07:11Z</time>
      </trkpt>
      <trkpt lat="38.801264008507133" lon="-0.888376962393522">
        <ele>565.87</ele>
        <time>2025-05-13T10:07:24Z</time>
      </trkpt>
      <trkpt lat="38.805204005911946" lon="-0.886664036661386">
        <ele>549.04999999999995</ele>
        <time>2025-05-13T10:07:38Z</time>
      </trkpt>
      <trkpt lat="38.807759983465075" lon="-0.885669020935893">
        <ele>536.07000000000005</ele>
        <time>2025-05-13T10:07:47Z</time>
      </trkpt>
      <trkpt lat="38.810128038749099" lon="-0.885523008182645">
        <ele>524.05999999999995</ele>
        <time>2025-05-13T10:07:55Z</time>
      </trkpt>
      <trkpt lat="38.812454016879201" lon="-0.886105969548225">
        <ele>514.44000000000005</ele>
        <time>2025-05-13T10:08:03Z</time>
      </trkpt>
      <trkpt lat="38.814584026113153" lon="-0.887401979416609">
        <ele>504.82999999999998</ele>
        <time>2025-05-13T10:08:11Z</time>
      </trkpt>
      <trkpt lat="38.817158024758101" lon="-0.889239963144064">
        <ele>497.13999999999999</ele>
        <time>2025-05-13T10:08:21Z</time>
      </trkpt>
      <trkpt lat="38.819402027875185" lon="-0.890222992748022">
        <ele>496.18000000000001</ele>
        <time>2025-05-13T10:08:29Z</time>
      </trkpt>
      <trkpt lat="38.823780985549092" lon="-0.891382964327931">
        <ele>489.93000000000001</ele>
        <time>2025-05-13T10:08:44Z</time>
      </trkpt>
      <trkpt lat="38.825232982635498" lon="-0.891273999586701">
        <ele>489.93000000000001</ele>
        <time>2025-05-13T10:08:49Z</time>
      </trkpt>
      <trkpt lat="38.825513022020459" lon="-0.891161011531949">
        <ele>489.44999999999999</ele>
        <time>2025-05-13T10:08:50Z</time>
      </trkpt>
      <trkpt lat="38.827307000756264" lon="-0.889927027747035">
        <ele>486.56</ele>
        <time>2025-05-13T10:08:57Z</time>
      </trkpt>
      <trkpt lat="38.827711008489132" lon="-0.889398967847228">
        <ele>486.07999999999998</ele>
        <time>2025-05-13T10:08:59Z</time>
      </trkpt>
      <trkpt lat="38.827999010682106" lon="-0.888762027025223">
        <ele>486.07999999999998</ele>
        <time>2025-05-13T10:09:00Z</time>
      </trkpt>
      <trkpt lat="38.828135970979929" lon="-0.88843597099185">
        <ele>486.07999999999998</ele>
        <time>2025-05-13T10:09:01Z</time>
      </trkpt>
      <trkpt lat="38.829156970605254" lon="-0.885294014587998">
        <ele>485.60000000000002</ele>
        <time>2025-05-13T10:09:10Z</time>
      </trkpt>
      <trkpt lat="38.830952038988471" lon="-0.880075022578239">
        <ele>479.35000000000002</ele>
        <time>2025-05-13T10:09:26Z</time>
      </trkpt>
      <trkpt lat="38.832662031054497" lon="-0.874848989769816">
        <ele>475.02999999999997</ele>
        <time>2025-05-13T10:09:41Z</time>
      </trkpt>
      <trkpt lat="38.834763038903475" lon="-0.8685830142349">
        <ele>478.38999999999999</ele>
        <time>2025-05-13T10:09:58Z</time>
      </trkpt>
      <trkpt lat="38.836159966886044" lon="-0.864375969395041">
        <ele>475.02999999999997</ele>
        <time>2025-05-13T10:10:11Z</time>
      </trkpt>
      <trkpt lat="38.837947994470596" lon="-0.859179021790624">
        <ele>463.00999999999999</ele>
        <time>2025-05-13T10:10:25Z</time>
      </trkpt>
      <trkpt lat="38.839239981025457" lon="-0.856663025915623">
        <ele>463.00999999999999</ele>
        <time>2025-05-13T10:10:33Z</time>
      </trkpt>
      <trkpt lat="38.84094201028347" lon="-0.854054996743798">
        <ele>472.63</ele>
        <time>2025-05-13T10:10:42Z</time>
      </trkpt>
      <trkpt lat="38.841743990778923" lon="-0.852037975564599">
        <ele>477.91000000000003</ele>
        <time>2025-05-13T10:10:48Z</time>
      </trkpt>
      <trkpt lat="38.842283030971885" lon="-0.849476968869567">
        <ele>480.31999999999999</ele>
        <time>2025-05-13T10:10:55Z</time>
      </trkpt>
      <trkpt lat="38.843030026182532" lon="-0.846986034885049">
        <ele>477.43000000000001</ele>
        <time>2025-05-13T10:11:02Z</time>
      </trkpt>
      <trkpt lat="38.843881962820888" lon="-0.845418032258749">
        <ele>472.13999999999999</ele>
        <time>2025-05-13T10:11:08Z</time>
      </trkpt>
      <trkpt lat="38.845520038157701" lon="-0.842752000316978">
        <ele>459.64999999999998</ele>
        <time>2025-05-13T10:11:17Z</time>
      </trkpt>
      <trkpt lat="38.848043996840715" lon="-0.837614983320236">
        <ele>450.51999999999998</ele>
        <time>2025-05-13T10:11:32Z</time>
      </trkpt>
      <trkpt lat="38.849201034754515" lon="-0.835525961592793">
        <ele>452.92000000000002</ele>
        <time>2025-05-13T10:11:40Z</time>
      </trkpt>
      <trkpt lat="38.850844977423549" lon="-0.833491003140807">
        <ele>451.95999999999998</ele>
        <time>2025-05-13T10:11:49Z</time>
      </trkpt>
      <trkpt lat="38.852184992283583" lon="-0.831496026366949">
        <ele>452.92000000000002</ele>
        <time>2025-05-13T10:11:58Z</time>
      </trkpt>
      <trkpt lat="38.852555975317955" lon="-0.830658003687859">
        <ele>449.06999999999999</ele>
        <time>2025-05-13T10:12:02Z</time>
      </trkpt>
      <trkpt lat="38.853161986917257" lon="-0.828585997223854">
        <ele>443.79000000000002</ele>
        <time>2025-05-13T10:12:08Z</time>
      </trkpt>
      <trkpt lat="38.853962039574981" lon="-0.824153982102871">
        <ele>432.73000000000002</ele>
        <time>2025-05-13T10:12:19Z</time>
      </trkpt>
      <trkpt lat="38.855458041653037" lon="-0.819634962826967">
        <ele>429.85000000000002</ele>
        <time>2025-05-13T10:12:32Z</time>
      </trkpt>
      <trkpt lat="38.857774967327714" lon="-0.812632972374558">
        <ele>426.48000000000002</ele>
        <time>2025-05-13T10:12:52Z</time>
      </trkpt>
      <trkpt lat="38.85952795855701" lon="-0.807398976758122">
        <ele>428.39999999999998</ele>
        <time>2025-05-13T10:13:07Z</time>
      </trkpt>
      <trkpt lat="38.861049022525549" lon="-0.802854979410768">
        <ele>432.25</ele>
        <time>2025-05-13T10:13:20Z</time>
      </trkpt>
      <trkpt lat="38.862676033750176" lon="-0.797995990142226">
        <ele>433.69</ele>
        <time>2025-05-13T10:13:34Z</time>
      </trkpt>
      <trkpt lat="38.86502698995173" lon="-0.790987964719534">
        <ele>434.17000000000002</ele>
        <time>2025-05-13T10:13:54Z</time>
      </trkpt>
      <trkpt lat="38.866907972842455" lon="-0.785396983847022">
        <ele>415.91000000000003</ele>
        <time>2025-05-13T10:14:10Z</time>
      </trkpt>
      <trkpt lat="38.868905967101455" lon="-0.77946200966835">
        <ele>392.83999999999997</ele>
        <time>2025-05-13T10:14:27Z</time>
      </trkpt>
      <trkpt lat="38.87018303386867" lon="-0.775653021410108">
        <ele>385.14999999999998</ele>
        <time>2025-05-13T10:14:38Z</time>
      </trkpt>
      <trkpt lat="38.871734021231532" lon="-0.771559970453382">
        <ele>386.11000000000001</ele>
        <time>2025-05-13T10:14:50Z</time>
      </trkpt>
      <trkpt lat="38.872918970882893" lon="-0.769869005307555">
        <ele>387.55000000000001</ele>
        <time>2025-05-13T10:14:56Z</time>
      </trkpt>
      <trkpt lat="38.874402986839414" lon="-0.768624963238835">
        <ele>387.55000000000001</ele>
        <time>2025-05-13T10:15:02Z</time>
      </trkpt>
      <trkpt lat="38.87656501494348" lon="-0.767353009432554">
        <ele>382.25999999999999</ele>
        <time>2025-05-13T10:15:10Z</time>
      </trkpt>
      <trkpt lat="38.878227984532714" lon="-0.765802022069693">
        <ele>376.49000000000001</ele>
        <time>2025-05-13T10:15:17Z</time>
      </trkpt>
      <trkpt lat="38.879542015492916" lon="-0.76377703808248">
        <ele>373.61000000000001</ele>
        <time>2025-05-13T10:15:24Z</time>
      </trkpt>
      <trkpt lat="38.881360972300172" lon="-0.760352024808526">
        <ele>379.38</ele>
        <time>2025-05-13T10:15:35Z</time>
      </trkpt>
      <trkpt lat="38.882116014137864" lon="-0.75829996727407">
        <ele>383.69999999999999</ele>
        <time>2025-05-13T10:15:41Z</time>
      </trkpt>
      <trkpt lat="38.882332015782595" lon="-0.75604397803545">
        <ele>384.66000000000003</ele>
        <time>2025-05-13T10:15:47Z</time>
      </trkpt>
      <trkpt lat="38.882028004154563" lon="-0.753810033202171">
        <ele>382.25999999999999</ele>
        <time>2025-05-13T10:15:53Z</time>
      </trkpt>
      <trkpt lat="38.881372958421707" lon="-0.750901009887457">
        <ele>373.61000000000001</ele>
        <time>2025-05-13T10:16:01Z</time>
      </trkpt>
      <trkpt lat="38.881356026977301" lon="-0.749399978667498">
        <ele>367.36000000000001</ele>
        <time>2025-05-13T10:16:06Z</time>
      </trkpt>
      <trkpt lat="38.881948962807655" lon="-0.746857998892665">
        <ele>362.06999999999999</ele>
        <time>2025-05-13T10:16:12Z</time>
      </trkpt>
      <trkpt lat="38.882941966876388" lon="-0.744968969374895">
        <ele>355.82999999999998</ele>
        <time>2025-05-13T10:16:18Z</time>
      </trkpt>
      <trkpt lat="38.884994024410844" lon="-0.741713019087911">
        <ele>342.85000000000002</ele>
        <time>2025-05-13T10:16:29Z</time>
      </trkpt>
      <trkpt lat="38.886947007849813" lon="-0.737934960052371">
        <ele>340.92000000000002</ele>
        <time>2025-05-13T10:16:41Z</time>
      </trkpt>
      <trkpt lat="38.888913989067078" lon="-0.734117003157735">
        <ele>341.88999999999999</ele>
        <time>2025-05-13T10:16:53Z</time>
      </trkpt>
      <trkpt lat="38.89136703684926" lon="-0.729347029700875">
        <ele>323.13999999999999</ele>
        <time>2025-05-13T10:17:09Z</time>
      </trkpt>
      <trkpt lat="38.894157959148288" lon="-0.723959980532527">
        <ele>298.14999999999998</ele>
        <time>2025-05-13T10:17:26Z</time>
      </trkpt>
      <trkpt lat="38.89659097418189" lon="-0.71923702955246">
        <ele>298.63</ele>
        <time>2025-05-13T10:17:41Z</time>
      </trkpt>
      <trkpt lat="38.898718971759081" lon="-0.715105002745986">
        <ele>294.77999999999997</ele>
        <time>2025-05-13T10:17:54Z</time>
      </trkpt>
      <trkpt lat="38.901001028716564" lon="-0.710671981796622">
        <ele>288.52999999999997</ele>
        <time>2025-05-13T10:18:07Z</time>
      </trkpt>
      <trkpt lat="38.90297002159059" lon="-0.706875985488296">
        <ele>291.42000000000002</ele>
        <time>2025-05-13T10:18:20Z</time>
      </trkpt>
      <trkpt lat="38.90533396974206" lon="-0.702547989785671">
        <ele>300.06999999999999</ele>
        <time>2025-05-13T10:18:34Z</time>
      </trkpt>
      <trkpt lat="38.90776296146214" lon="-0.698238015174866">
        <ele>309.68000000000001</ele>
        <time>2025-05-13T10:18:48Z</time>
      </trkpt>
      <trkpt lat="38.910031020641327" lon="-0.693323034793139">
        <ele>307.75999999999999</ele>
        <time>2025-05-13T10:19:03Z</time>
      </trkpt>
      <trkpt lat="38.911745036020875" lon="-0.690214019268751">
        <ele>304.38999999999999</ele>
        <time>2025-05-13T10:19:13Z</time>
      </trkpt>
      <trkpt lat="38.914249967783689" lon="-0.686482982710004">
        <ele>291.42000000000002</ele>
        <time>2025-05-13T10:19:26Z</time>
      </trkpt>
      <trkpt lat="38.916100021451712" lon="-0.683735981583595">
        <ele>281.31999999999999</ele>
        <time>2025-05-13T10:19:37Z</time>
      </trkpt>
      <trkpt lat="38.916979031637311" lon="-0.682448018342257">
        <ele>277.48000000000002</ele>
        <time>2025-05-13T10:19:43Z</time>
      </trkpt>
      <trkpt lat="38.91820102930069" lon="-0.680624032393098">
        <ele>278.44</ele>
        <time>2025-05-13T10:19:52Z</time>
      </trkpt>
      <trkpt lat="38.919034022837877" lon="-0.679389964789152">
        <ele>283.25</ele>
        <time>2025-05-13T10:20:02Z</time>
      </trkpt>
      <trkpt lat="38.920169016346335" lon="-0.67770604044199">
        <ele>288.52999999999997</ele>
        <time>2025-05-13T10:20:13Z</time>
      </trkpt>
      <trkpt lat="38.921323036774993" lon="-0.675995964556932">
        <ele>292.86000000000001</ele>
        <time>2025-05-13T10:20:25Z</time>
      </trkpt>
      <trkpt lat="38.922202968969941" lon="-0.674690986052155">
        <ele>294.77999999999997</ele>
        <time>2025-05-13T10:20:35Z</time>
      </trkpt>
      <trkpt lat="38.922961028292775" lon="-0.673566972836852">
        <ele>295.25999999999999</ele>
        <time>2025-05-13T10:20:42Z</time>
      </trkpt>
      <trkpt lat="38.924335995689034" lon="-0.671527991071343">
        <ele>293.81999999999999</ele>
        <time>2025-05-13T10:20:51Z</time>
      </trkpt>
      <trkpt lat="38.926207004114985" lon="-0.66878903657198">
        <ele>285.64999999999998</ele>
        <time>2025-05-13T10:21:01Z</time>
      </trkpt>
      <trkpt lat="38.929738970473409" lon="-0.663660988211632">
        <ele>265.94</ele>
        <time>2025-05-13T10:21:19Z</time>
      </trkpt>
      <trkpt lat="38.933062981814146" lon="-0.658805016428232">
        <ele>259.69</ele>
        <time>2025-05-13T10:21:35Z</time>
      </trkpt>
      <trkpt lat="38.936772979795933" lon="-0.65338502638042">
        <ele>245.27000000000001</ele>
        <time>2025-05-13T10:21:55Z</time>
      </trkpt>
      <trkpt lat="38.940280973911285" lon="-0.648258989676833">
        <ele>239.99000000000001</ele>
        <time>2025-05-13T10:22:13Z</time>
      </trkpt>
      <trkpt lat="38.944189958274364" lon="-0.642545968294144">
        <ele>237.58000000000001</ele>
        <time>2025-05-13T10:22:33Z</time>
      </trkpt>
      <trkpt lat="38.947510030120611" lon="-0.637698965147138">
        <ele>233.74000000000001</ele>
        <time>2025-05-13T10:22:50Z</time>
      </trkpt>
      <trkpt lat="38.951018024235964" lon="-0.632561026141047">
        <ele>234.69999999999999</ele>
        <time>2025-05-13T10:23:08Z</time>
      </trkpt>
      <trkpt lat="38.954931031912565" lon="-0.626812968403101">
        <ele>222.19999999999999</ele>
        <time>2025-05-13T10:23:28Z</time>
      </trkpt>
      <trkpt lat="38.957639979198575" lon="-0.622819997370243">
        <ele>214.99000000000001</ele>
        <time>2025-05-13T10:23:42Z</time>
      </trkpt>
      <trkpt lat="38.960953010246158" lon="-0.617956984788179">
        <ele>225.09</ele>
        <time>2025-05-13T10:23:59Z</time>
      </trkpt>
      <trkpt lat="38.96330296061933" lon="-0.614532977342606">
        <ele>227.49000000000001</ele>
        <time>2025-05-13T10:24:11Z</time>
      </trkpt>
      <trkpt lat="38.965634973719716" lon="-0.611090026795864">
        <ele>221.24000000000001</ele>
        <time>2025-05-13T10:24:23Z</time>
      </trkpt>
      <trkpt lat="38.968317015096545" lon="-0.607523024082184">
        <ele>213.55000000000001</ele>
        <time>2025-05-13T10:24:35Z</time>
      </trkpt>
      <trkpt lat="38.970450041815639" lon="-0.605482030659914">
        <ele>206.81999999999999</ele>
        <time>2025-05-13T10:24:45Z</time>
      </trkpt>
      <trkpt lat="38.973067039623857" lon="-0.603700960054994">
        <ele>207.30000000000001</ele>
        <time>2025-05-13T10:24:55Z</time>
      </trkpt>
      <trkpt lat="38.976378981024027" lon="-0.601977976039052">
        <ele>200.09</ele>
        <time>2025-05-13T10:25:07Z</time>
      </trkpt>
      <trkpt lat="38.978723986074328" lon="-0.600736029446125">
        <ele>190</ele>
        <time>2025-05-13T10:25:16Z</time>
      </trkpt>
      <trkpt lat="38.981883963569999" lon="-0.598998041823506">
        <ele>178.46000000000001</ele>
        <time>2025-05-13T10:25:30Z</time>
      </trkpt>
      <trkpt lat="38.983407961204648" lon="-0.597620978951454">
        <ele>172.21000000000001</ele>
        <time>2025-05-13T10:25:38Z</time>
      </trkpt>
      <trkpt lat="38.984778989106417" lon="-0.59569900855422">
        <ele>166.44999999999999</ele>
        <time>2025-05-13T10:25:47Z</time>
      </trkpt>
      <trkpt lat="38.985875006765127" lon="-0.593222994357347">
        <ele>163.56</ele>
        <time>2025-05-13T10:25:57Z</time>
      </trkpt>
      <trkpt lat="38.986953003332019" lon="-0.590489991009235">
        <ele>160.68000000000001</ele>
        <time>2025-05-13T10:26:07Z</time>
      </trkpt>
      <trkpt lat="38.988323025405407" lon="-0.58759999461472">
        <ele>165.96000000000001</ele>
        <time>2025-05-13T10:26:16Z</time>
      </trkpt>
      <trkpt lat="38.9898999966681" lon="-0.585360014811158">
        <ele>177.97999999999999</ele>
        <time>2025-05-13T10:26:24Z</time>
      </trkpt>
      <trkpt lat="38.992007961496711" lon="-0.583264036104083">
        <ele>188.56</ele>
        <time>2025-05-13T10:26:33Z</time>
      </trkpt>
      <trkpt lat="38.994059013202786" lon="-0.581381041556597">
        <ele>189.52000000000001</ele>
        <time>2025-05-13T10:26:43Z</time>
      </trkpt>
      <trkpt lat="38.996032029390335" lon="-0.579527970403433">
        <ele>178.46000000000001</ele>
        <time>2025-05-13T10:26:52Z</time>
      </trkpt>
      <trkpt lat="38.99989097379148" lon="-0.575972031801939">
        <ele>156.34999999999999</ele>
        <time>2025-05-13T10:27:08Z</time>
      </trkpt>
      <trkpt lat="39.003983018919826" lon="-0.572192966938019">
        <ele>144.81999999999999</ele>
        <time>2025-05-13T10:27:25Z</time>
      </trkpt>
      <trkpt lat="39.006426008418202" lon="-0.56944596581161">
        <ele>142.41</ele>
        <time>2025-05-13T10:27:35Z</time>
      </trkpt>
      <trkpt lat="39.00813901796937" lon="-0.566808013245463">
        <ele>134.72</ele>
        <time>2025-05-13T10:27:45Z</time>
      </trkpt>
      <trkpt lat="39.010152015835047" lon="-0.563079994171858">
        <ele>123.19</ele>
        <time>2025-05-13T10:27:57Z</time>
      </trkpt>
      <trkpt lat="39.011549027636647" lon="-0.561159029603004">
        <ele>120.3</ele>
        <time>2025-05-13T10:28:04Z</time>
      </trkpt>
      <trkpt lat="39.013535035774112" lon="-0.559491030871868">
        <ele>117.90000000000001</ele>
        <time>2025-05-13T10:28:11Z</time>
      </trkpt>
      <trkpt lat="39.016239959746599" lon="-0.557989999651909">
        <ele>117.42</ele>
        <time>2025-05-13T10:28:22Z</time>
      </trkpt>
      <trkpt lat="39.019521977752447" lon="-0.556195015087724">
        <ele>122.22</ele>
        <time>2025-05-13T10:28:33Z</time>
      </trkpt>
      <trkpt lat="39.021558025851846" lon="-0.554700018838048">
        <ele>135.19999999999999</ele>
        <time>2025-05-13T10:28:42Z</time>
      </trkpt>
      <trkpt lat="39.02433997951448" lon="-0.552546037361026">
        <ele>148.66</ele>
        <time>2025-05-13T10:28:53Z</time>
      </trkpt>
      <trkpt lat="39.026605021208525" lon="-0.551766017451882">
        <ele>163.08000000000001</ele>
        <time>2025-05-13T10:29:01Z</time>
      </trkpt>
      <trkpt lat="39.030138999223709" lon="-0.551240975037217">
        <ele>177.97999999999999</ele>
        <time>2025-05-13T10:29:12Z</time>
      </trkpt>
      <trkpt lat="39.033402996137738" lon="-0.551312975585461">
        <ele>184.22999999999999</ele>
        <time>2025-05-13T10:29:24Z</time>
      </trkpt>
      <trkpt lat="39.036656012758613" lon="-0.551913036033511">
        <ele>177.02000000000001</ele>
        <time>2025-05-13T10:29:35Z</time>
      </trkpt>
      <trkpt lat="39.039002023637295" lon="-0.552362976595759">
        <ele>164.52000000000001</ele>
        <time>2025-05-13T10:29:43Z</time>
      </trkpt>
      <trkpt lat="39.0410550031811" lon="-0.552128031849861">
        <ele>151.53999999999999</ele>
        <time>2025-05-13T10:29:50Z</time>
      </trkpt>
      <trkpt lat="39.043031958863139" lon="-0.551286991685629">
        <ele>138.09</ele>
        <time>2025-05-13T10:29:57Z</time>
      </trkpt>
      <trkpt lat="39.046287992969155" lon="-0.549450013786554">
        <ele>125.11</ele>
        <time>2025-05-13T10:30:08Z</time>
      </trkpt>
      <trkpt lat="39.050909020006657" lon="-0.546838967129588">
        <ele>99.150000000000006</ele>
        <time>2025-05-13T10:30:26Z</time>
      </trkpt>
      <trkpt lat="39.054777016863227" lon="-0.544896963983774">
        <ele>76.079999999999998</ele>
        <time>2025-05-13T10:30:40Z</time>
      </trkpt>
      <trkpt lat="39.057676987722516" lon="-0.544159021228552">
        <ele>65.030000000000001</ele>
        <time>2025-05-13T10:30:50Z</time>
      </trkpt>
      <trkpt lat="39.061484970152378" lon="-0.543330973014236">
        <ele>57.82</ele>
        <time>2025-05-13T10:31:03Z</time>
      </trkpt>
      <trkpt lat="39.065886978060007" lon="-0.542353978380561">
        <ele>52.530000000000001</ele>
        <time>2025-05-13T10:31:18Z</time>
      </trkpt>
      <trkpt lat="39.06969697214663" lon="-0.541636990383267">
        <ele>47.240000000000002</ele>
        <time>2025-05-13T10:31:31Z</time>
      </trkpt>
      <trkpt lat="39.072651006281376" lon="-0.541840000078082">
        <ele>41.469999999999999</ele>
        <time>2025-05-13T10:31:41Z</time>
      </trkpt>
      <trkpt lat="39.075015038251877" lon="-0.542020965367556">
        <ele>42.920000000000002</ele>
        <time>2025-05-13T10:31:49Z</time>
      </trkpt>
      <trkpt lat="39.07826797105372" lon="-0.541683007031679">
        <ele>43.880000000000003</ele>
        <time>2025-05-13T10:32:00Z</time>
      </trkpt>
      <trkpt lat="39.082966027781367" lon="-0.540702994912863">
        <ele>44.840000000000003</ele>
        <time>2025-05-13T10:32:15Z</time>
      </trkpt>
      <trkpt lat="39.085497027263045" lon="-0.539661040529609">
        <ele>43.880000000000003</ele>
        <time>2025-05-13T10:32:25Z</time>
      </trkpt>
      <trkpt lat="39.088121987879276" lon="-0.53794601932168">
        <ele>45.799999999999997</ele>
        <time>2025-05-13T10:32:35Z</time>
      </trkpt>
      <trkpt lat="39.091665018349886" lon="-0.535156019032002">
        <ele>49.649999999999999</ele>
        <time>2025-05-13T10:32:49Z</time>
      </trkpt>
      <trkpt lat="39.09556201659143" lon="-0.532372975721955">
        <ele>43.880000000000003</ele>
        <time>2025-05-13T10:33:04Z</time>
      </trkpt>
      <trkpt lat="39.097986984997988" lon="-0.530949980020523">
        <ele>40.990000000000002</ele>
        <time>2025-05-13T10:33:13Z</time>
      </trkpt>
      <trkpt lat="39.100753013044596" lon="-0.529627986252308">
        <ele>41.469999999999999</ele>
        <time>2025-05-13T10:33:23Z</time>
      </trkpt>
      <trkpt lat="39.10280498676002" lon="-0.529291033744812">
        <ele>40.990000000000002</ele>
        <time>2025-05-13T10:33:30Z</time>
      </trkpt>
      <trkpt lat="39.104560995474458" lon="-0.529493037611246">
        <ele>40.990000000000002</ele>
        <time>2025-05-13T10:33:36Z</time>
      </trkpt>
      <trkpt lat="39.106532000005245" lon="-0.530279008671641">
        <ele>40.509999999999998</ele>
        <time>2025-05-13T10:33:43Z</time>
      </trkpt>
      <trkpt lat="39.109545964747667" lon="-0.531841982156038">
        <ele>39.549999999999997</ele>
        <time>2025-05-13T10:33:54Z</time>
      </trkpt>
      <trkpt lat="39.111879989504814" lon="-0.532367024570704">
        <ele>37.149999999999999</ele>
        <time>2025-05-13T10:34:02Z</time>
      </trkpt>
      <trkpt lat="39.11425500176847" lon="-0.532211037352681">
        <ele>37.149999999999999</ele>
        <time>2025-05-13T10:34:09Z</time>
      </trkpt>
      <trkpt lat="39.118393985554576" lon="-0.531584993004799">
        <ele>34.740000000000002</ele>
        <time>2025-05-13T10:34:24Z</time>
      </trkpt>
      <trkpt lat="39.12192502990365" lon="-0.531030027195811">
        <ele>36.189999999999998</ele>
        <time>2025-05-13T10:34:36Z</time>
      </trkpt>
      <trkpt lat="39.124814020469785" lon="-0.53014799952507">
        <ele>38.590000000000003</ele>
        <time>2025-05-13T10:34:46Z</time>
      </trkpt>
      <trkpt lat="39.127287017181516" lon="-0.528861964121461">
        <ele>39.07</ele>
        <time>2025-05-13T10:34:55Z</time>
      </trkpt>
      <trkpt lat="39.129816005006433" lon="-0.52690302953124">
        <ele>38.590000000000003</ele>
        <time>2025-05-13T10:35:05Z</time>
      </trkpt>
      <trkpt lat="39.131261967122555" lon="-0.525595033541322">
        <ele>38.109999999999999</ele>
        <time>2025-05-13T10:35:11Z</time>
      </trkpt>
      <trkpt lat="39.131516022607684" lon="-0.525401998311281">
        <ele>36.189999999999998</ele>
        <time>2025-05-13T10:35:18Z</time>
      </trkpt>
      <trkpt lat="39.135228032246232" lon="-0.524168014526367">
        <ele>34.740000000000002</ele>
        <time>2025-05-13T10:35:31Z</time>
      </trkpt>
      <trkpt lat="39.13782499730587" lon="-0.524851977825165">
        <ele>34.740000000000002</ele>
        <time>2025-05-13T10:35:40Z</time>
      </trkpt>
      <trkpt lat="39.141836995258927" lon="-0.528074987232685">
        <ele>34.259999999999998</ele>
        <time>2025-05-13T10:35:49Z</time>
      </trkpt>
      <trkpt lat="39.144248971715569" lon="-0.529499994590878">
        <ele>36.670000000000002</ele>
        <time>2025-05-13T10:35:58Z</time>
      </trkpt>
      <trkpt lat="39.146852977573872" lon="-0.530270040035248">
        <ele>38.590000000000003</ele>
        <time>2025-05-13T10:36:07Z</time>
      </trkpt>
      <trkpt lat="39.149216003715992" lon="-0.530376993119717">
        <ele>37.149999999999999</ele>
        <time>2025-05-13T10:36:15Z</time>
      </trkpt>
      <trkpt lat="39.151843981817365" lon="-0.529850022867322">
        <ele>40.030000000000001</ele>
        <time>2025-05-13T10:36:24Z</time>
      </trkpt>
      <trkpt lat="39.153755977749825" lon="-0.528841009363532">
        <ele>44.359999999999999</ele>
        <time>2025-05-13T10:36:31Z</time>
      </trkpt>
      <trkpt lat="39.155684988945723" lon="-0.527051975950599">
        <ele>49.159999999999997</ele>
        <time>2025-05-13T10:36:39Z</time>
      </trkpt>
      <trkpt lat="39.158130995929241" lon="-0.524917021393776">
        <ele>50.130000000000003</ele>
        <time>2025-05-13T10:36:49Z</time>
      </trkpt>
      <trkpt lat="39.160563005134463" lon="-0.523490002378821">
        <ele>50.130000000000003</ele>
        <time>2025-05-13T10:36:58Z</time>
      </trkpt>
      <trkpt lat="39.16139398701489" lon="-0.523065039888024">
        <ele>48.68</ele>
        <time>2025-05-13T10:37:08Z</time>
      </trkpt>
      <trkpt lat="39.165705973282456" lon="-0.51979199051857">
        <ele>47.719999999999999</ele>
        <time>2025-05-13T10:37:18Z</time>
      </trkpt>
      <trkpt lat="39.165962040424347" lon="-0.5195970274508">
        <ele>44.840000000000003</ele>
        <time>2025-05-13T10:37:26Z</time>
      </trkpt>
      <trkpt lat="39.170431019738317" lon="-0.517675979062915">
        <ele>41.469999999999999</ele>
        <time>2025-05-13T10:37:35Z</time>
      </trkpt>
      <trkpt lat="39.173525031656027" lon="-0.516402013599873">
        <ele>41.950000000000003</ele>
        <time>2025-05-13T10:37:46Z</time>
      </trkpt>
      <trkpt lat="39.177543986588717" lon="-0.514982035383582">
        <ele>41.950000000000003</ele>
        <time>2025-05-13T10:38:00Z</time>
      </trkpt>
      <trkpt lat="39.180888030678034" lon="-0.513462983071804">
        <ele>36.189999999999998</ele>
        <time>2025-05-13T10:38:12Z</time>
      </trkpt>
      <trkpt lat="39.182182028889656" lon="-0.512581039220095">
        <ele>36.670000000000002</ele>
        <time>2025-05-13T10:38:17Z</time>
      </trkpt>
      <trkpt lat="39.182408004999161" lon="-0.512346010655165">
        <ele>37.630000000000003</ele>
        <time>2025-05-13T10:38:18Z</time>
      </trkpt>
      <trkpt lat="39.182614032179117" lon="-0.5120799690485">
        <ele>37.630000000000003</ele>
        <time>2025-05-13T10:38:19Z</time>
      </trkpt>
      <trkpt lat="39.182822993025184" lon="-0.511810993775725">
        <ele>38.590000000000003</ele>
        <time>2025-05-13T10:38:20Z</time>
      </trkpt>
      <trkpt lat="39.183021979406476" lon="-0.511534977704287">
        <ele>39.07</ele>
        <time>2025-05-13T10:38:21Z</time>
      </trkpt>
      <trkpt lat="39.184671035036445" lon="-0.508423028513789">
        <ele>44.840000000000003</ele>
        <time>2025-05-13T10:38:31Z</time>
      </trkpt>
      <trkpt lat="39.186589987948537" lon="-0.504776984453201">
        <ele>49.159999999999997</ele>
        <time>2025-05-13T10:38:44Z</time>
      </trkpt>
      <trkpt lat="39.188819993287325" lon="-0.500557031482458">
        <ele>42.920000000000002</ele>
        <time>2025-05-13T10:38:59Z</time>
      </trkpt>
      <trkpt lat="39.190464019775391" lon="-0.497818998992443">
        <ele>44.359999999999999</ele>
        <time>2025-05-13T10:39:11Z</time>
      </trkpt>
      <trkpt lat="39.192371992394328" lon="-0.495950002223253">
        <ele>45.799999999999997</ele>
        <time>2025-05-13T10:39:20Z</time>
      </trkpt>
      <trkpt lat="39.19430997222662" lon="-0.494887009263039">
        <ele>47.719999999999999</ele>
        <time>2025-05-13T10:39:28Z</time>
      </trkpt>
      <trkpt lat="39.196410980075598" lon="-0.494393985718489">
        <ele>43.880000000000003</ele>
        <time>2025-05-13T10:39:36Z</time>
      </trkpt>
      <trkpt lat="39.198752967640758" lon="-0.494608981534839">
        <ele>43.399999999999999</ele>
        <time>2025-05-13T10:39:44Z</time>
      </trkpt>
      <trkpt lat="39.200753979384899" lon="-0.495383972302079">
        <ele>42.439999999999998</ele>
        <time>2025-05-13T10:39:52Z</time>
      </trkpt>
      <trkpt lat="39.204476969316602" lon="-0.497279036790133">
        <ele>45.32</ele>
        <time>2025-05-13T10:40:07Z</time>
      </trkpt>
      <trkpt lat="39.206490973010659" lon="-0.498107001185417">
        <ele>48.200000000000003</ele>
        <time>2025-05-13T10:40:16Z</time>
      </trkpt>
      <trkpt lat="39.208884006366134" lon="-0.498294001445174">
        <ele>51.57</ele>
        <time>2025-05-13T10:40:25Z</time>
      </trkpt>
      <trkpt lat="39.210985014215112" lon="-0.49777097068727">
        <ele>49.649999999999999</ele>
        <time>2025-05-13T10:40:32Z</time>
      </trkpt>
      <trkpt lat="39.21332398429513" lon="-0.496520977467299">
        <ele>49.649999999999999</ele>
        <time>2025-05-13T10:40:43Z</time>
      </trkpt>
      <trkpt lat="39.216834995895624" lon="-0.49450303427875">
        <ele>49.159999999999997</ele>
        <time>2025-05-13T10:40:57Z</time>
      </trkpt>
      <trkpt lat="39.219715017825365" lon="-0.4928910266608">
        <ele>51.57</ele>
        <time>2025-05-13T10:41:08Z</time>
      </trkpt>
      <trkpt lat="39.222716996446252" lon="-0.49119402654469">
        <ele>50.130000000000003</ele>
        <time>2025-05-13T10:41:25Z</time>
      </trkpt>
      <trkpt lat="39.228966040536761" lon="-0.487698018550873">
        <ele>49.159999999999997</ele>
        <time>2025-05-13T10:41:42Z</time>
      </trkpt>
      <trkpt lat="39.231968019157648" lon="-0.486024990677834">
        <ele>45.799999999999997</ele>
        <time>2025-05-13T10:41:53Z</time>
      </trkpt>
      <trkpt lat="39.23493797890842" lon="-0.484337965026498">
        <ele>44.359999999999999</ele>
        <time>2025-05-13T10:42:04Z</time>
      </trkpt>
      <trkpt lat="39.240107014775276" lon="-0.481447968631983">
        <ele>47.240000000000002</ele>
        <time>2025-05-13T10:42:23Z</time>
      </trkpt>
      <trkpt lat="39.242812022566795" lon="-0.479922965168953">
        <ele>47.719999999999999</ele>
        <time>2025-05-13T10:42:33Z</time>
      </trkpt>
      <trkpt lat="39.24546699039638" lon="-0.478425035253167">
        <ele>47.719999999999999</ele>
        <time>2025-05-13T10:42:44Z</time>
      </trkpt>
      <trkpt lat="39.248590003699064" lon="-0.476555032655597">
        <ele>48.200000000000003</ele>
        <time>2025-05-13T10:42:57Z</time>
      </trkpt>
      <trkpt lat="39.250338971614838" lon="-0.474965991452336">
        <ele>50.130000000000003</ele>
        <time>2025-05-13T10:43:05Z</time>
      </trkpt>
      <trkpt lat="39.25180203281343" lon="-0.473117027431726">
        <ele>49.649999999999999</ele>
        <time>2025-05-13T10:43:12Z</time>
      </trkpt>
      <trkpt lat="39.253153027966619" lon="-0.47063103877008">
        <ele>45.32</ele>
        <time>2025-05-13T10:43:20Z</time>
      </trkpt>
      <trkpt lat="39.255350008606911" lon="-0.466087963432074">
        <ele>42.439999999999998</ele>
        <time>2025-05-13T10:43:34Z</time>
      </trkpt>
      <trkpt lat="39.257065029814839" lon="-0.463442970067263">
        <ele>42.439999999999998</ele>
        <time>2025-05-13T10:43:42Z</time>
      </trkpt>
      <trkpt lat="39.259128989651799" lon="-0.461275996640325">
        <ele>42.439999999999998</ele>
        <time>2025-05-13T10:43:52Z</time>
      </trkpt>
      <trkpt lat="39.261490004137158" lon="-0.459671029821038">
        <ele>42.439999999999998</ele>
        <time>2025-05-13T10:44:01Z</time>
      </trkpt>
      <trkpt lat="39.263754040002823" lon="-0.458739968016744">
        <ele>41.469999999999999</ele>
        <time>2025-05-13T10:44:09Z</time>
      </trkpt>
      <trkpt lat="39.266072977334261" lon="-0.458374014124274">
        <ele>43.399999999999999</ele>
        <time>2025-05-13T10:44:17Z</time>
      </trkpt>
      <trkpt lat="39.268284039571881" lon="-0.458444003015757">
        <ele>44.840000000000003</ele>
        <time>2025-05-13T10:44:25Z</time>
      </trkpt>
      <trkpt lat="39.270314974710345" lon="-0.458939038217068">
        <ele>45.799999999999997</ele>
        <time>2025-05-13T10:44:32Z</time>
      </trkpt>
      <trkpt lat="39.273732025176287" lon="-0.460187019780278">
        <ele>50.130000000000003</ele>
        <time>2025-05-13T10:44:44Z</time>
      </trkpt>
      <trkpt lat="39.275794979184866" lon="-0.460435040295124">
        <ele>53.009999999999998</ele>
        <time>2025-05-13T10:44:51Z</time>
      </trkpt>
      <trkpt lat="39.277882995083928" lon="-0.460181990638375">
        <ele>55.409999999999997</ele>
        <time>2025-05-13T10:44:58Z</time>
      </trkpt>
      <trkpt lat="39.28016304038465" lon="-0.45933298766613">
        <ele>57.82</ele>
        <time>2025-05-13T10:45:06Z</time>
      </trkpt>
      <trkpt lat="39.28345100954175" lon="-0.457568010315299">
        <ele>58.299999999999997</ele>
        <time>2025-05-13T10:45:18Z</time>
      </trkpt>
      <trkpt lat="39.287830973044038" lon="-0.45520800165832">
        <ele>54.93</ele>
        <time>2025-05-13T10:45:34Z</time>
      </trkpt>
      <trkpt lat="39.291383977979422" lon="-0.453287959098816">
        <ele>50.609999999999999</ele>
        <time>2025-05-13T10:45:47Z</time>
      </trkpt>
      <trkpt lat="39.294673958793283" lon="-0.451520970091224">
        <ele>46.280000000000001</ele>
        <time>2025-05-13T10:45:59Z</time>
      </trkpt>
      <trkpt lat="39.299030033871531" lon="-0.44917001388967">
        <ele>42.439999999999998</ele>
        <time>2025-05-13T10:46:14Z</time>
      </trkpt>
      <trkpt lat="39.303418966010213" lon="-0.446800030767918">
        <ele>39.549999999999997</ele>
        <time>2025-05-13T10:46:31Z</time>
      </trkpt>
      <trkpt lat="39.308325983583927" lon="-0.444147996604443">
        <ele>34.740000000000002</ele>
        <time>2025-05-13T10:46:49Z</time>
      </trkpt>
      <trkpt lat="39.310153992846608" lon="-0.443008979782462">
        <ele>36.670000000000002</ele>
        <time>2025-05-13T10:46:57Z</time>
      </trkpt>
      <trkpt lat="39.312281990423799" lon="-0.441411975771189">
        <ele>39.07</ele>
        <time>2025-05-13T10:47:07Z</time>
      </trkpt>
      <trkpt lat="39.314448041841388" lon="-0.440273964777589">
        <ele>43.399999999999999</ele>
        <time>2025-05-13T10:47:15Z</time>
      </trkpt>
      <trkpt lat="39.317315993830562" lon="-0.439081974327564">
        <ele>41.469999999999999</ele>
        <time>2025-05-13T10:47:25Z</time>
      </trkpt>
      <trkpt lat="39.32126697152853" lon="-0.437423028051853">
        <ele>29.940000000000001</ele>
        <time>2025-05-13T10:47:39Z</time>
      </trkpt>
      <trkpt lat="39.325509974732995" lon="-0.435651009902358">
        <ele>33.299999999999997</ele>
        <time>2025-05-13T10:47:54Z</time>
      </trkpt>
      <trkpt lat="39.327966040000319" lon="-0.434625986963511">
        <ele>40.509999999999998</ele>
        <time>2025-05-13T10:48:04Z</time>
      </trkpt>
      <trkpt lat="39.330815970897675" lon="-0.433413963764906">
        <ele>41.950000000000003</ele>
        <time>2025-05-13T10:48:15Z</time>
      </trkpt>
      <trkpt lat="39.334103018045425" lon="-0.432098004966974">
        <ele>36.189999999999998</ele>
        <time>2025-05-13T10:48:28Z</time>
      </trkpt>
      <trkpt lat="39.336681962013245" lon="-0.431021014228463">
        <ele>36.189999999999998</ele>
        <time>2025-05-13T10:48:39Z</time>
      </trkpt>
      <trkpt lat="39.339113971218467" lon="-0.429986016824842">
        <ele>37.149999999999999</ele>
        <time>2025-05-13T10:48:48Z</time>
      </trkpt>
      <trkpt lat="39.3409220315516" lon="-0.429241033270955">
        <ele>39.07</ele>
        <time>2025-05-13T10:48:58Z</time>
      </trkpt>
      <trkpt lat="39.341929033398628" lon="-0.428655976429582">
        <ele>40.990000000000002</ele>
        <time>2025-05-13T10:49:03Z</time>
      </trkpt>
      <trkpt lat="39.343078024685383" lon="-0.427877968177199">
        <ele>40.030000000000001</ele>
        <time>2025-05-13T10:49:09Z</time>
      </trkpt>
      <trkpt lat="39.343283968046308" lon="-0.427809990942478">
        <ele>40.509999999999998</ele>
        <time>2025-05-13T10:49:10Z</time>
      </trkpt>
      <trkpt lat="39.343487983569503" lon="-0.427759028971195">
        <ele>40.509999999999998</ele>
        <time>2025-05-13T10:49:11Z</time>
      </trkpt>
      <trkpt lat="39.343701973557472" lon="-0.427759028971195">
        <ele>40.990000000000002</ele>
        <time>2025-05-13T10:49:12Z</time>
      </trkpt>
      <trkpt lat="39.343919986858964" lon="-0.427759028971195">
        <ele>40.990000000000002</ele>
        <time>2025-05-13T10:49:13Z</time>
      </trkpt>
      <trkpt lat="39.344130959361792" lon="-0.427767997607589">
        <ele>41.469999999999999</ele>
        <time>2025-05-13T10:49:14Z</time>
      </trkpt>
      <trkpt lat="39.34434000402689" lon="-0.427834969013929">
        <ele>41.469999999999999</ele>
        <time>2025-05-13T10:49:15Z</time>
      </trkpt>
      <trkpt lat="39.344551982358098" lon="-0.427902024239302">
        <ele>41.469999999999999</ele>
        <time>2025-05-13T10:49:16Z</time>
      </trkpt>
      <trkpt lat="39.34474996291101" lon="-0.428020041435957">
        <ele>41.469999999999999</ele>
        <time>2025-05-13T10:49:17Z</time>
      </trkpt>
      <trkpt lat="39.344948027282953" lon="-0.428145015612245">
        <ele>41.469999999999999</ele>
        <time>2025-05-13T10:49:18Z</time>
      </trkpt>
      <trkpt lat="39.345132010057569" lon="-0.42830703780055">
        <ele>40.990000000000002</ele>
        <time>2025-05-13T10:49:19Z</time>
      </trkpt>
      <trkpt lat="39.345314987003803" lon="-0.428477022796869">
        <ele>40.509999999999998</ele>
        <time>2025-05-13T10:49:20Z</time>
      </trkpt>
      <trkpt lat="39.34606097638607" lon="-0.42916702106595">
        <ele>37.630000000000003</ele>
        <time>2025-05-13T10:49:24Z</time>
      </trkpt>
      <trkpt lat="39.346260968595743" lon="-0.429311022162437">
        <ele>37.149999999999999</ele>
        <time>2025-05-13T10:49:25Z</time>
      </trkpt>
      <trkpt lat="39.346478981897235" lon="-0.429418981075287">
        <ele>36.189999999999998</ele>
        <time>2025-05-13T10:49:26Z</time>
      </trkpt>
      <trkpt lat="39.346695989370346" lon="-0.429521994665265">
        <ele>35.229999999999997</ele>
        <time>2025-05-13T10:49:27Z</time>
      </trkpt>
      <trkpt lat="39.3471559882164" lon="-0.429620984941721">
        <ele>33.780000000000001</ele>
        <time>2025-05-13T10:49:29Z</time>
      </trkpt>
      <trkpt lat="39.349006963893771" lon="-0.429497016593814">
        <ele>29.460000000000001</ele>
        <time>2025-05-13T10:49:37Z</time>
      </trkpt>
      <trkpt lat="39.349250961095095" lon="-0.429515037685633">
        <ele>28.98</ele>
        <time>2025-05-13T10:49:38Z</time>
      </trkpt>
      <trkpt lat="39.349699979647994" lon="-0.429673036560416">
        <ele>28.02</ele>
        <time>2025-05-13T10:49:40Z</time>
      </trkpt>
      <trkpt lat="39.349915981292725" lon="-0.429788958281279">
        <ele>28.02</ele>
        <time>2025-05-13T10:49:41Z</time>
      </trkpt>
      <trkpt lat="39.350130977109075" lon="-0.429904041811824">
        <ele>28.5</ele>
        <time>2025-05-13T10:49:42Z</time>
      </trkpt>
      <trkpt lat="39.35031202621758" lon="-0.430093975737691">
        <ele>28.98</ele>
        <time>2025-05-13T10:49:43Z</time>
      </trkpt>
      <trkpt lat="39.350495003163815" lon="-0.43028499931097">
        <ele>29.940000000000001</ele>
        <time>2025-05-13T10:49:44Z</time>
      </trkpt>
      <trkpt lat="39.350659037008882" lon="-0.430495971813798">
        <ele>30.899999999999999</ele>
        <time>2025-05-13T10:49:45Z</time>
      </trkpt>
      <trkpt lat="39.350798008963466" lon="-0.430741980671883">
        <ele>31.379999999999999</ele>
        <time>2025-05-13T10:49:46Z</time>
      </trkpt>
      <trkpt lat="39.352174988016486" lon="-0.433065025135875">
        <ele>32.340000000000003</ele>
        <time>2025-05-13T10:49:55Z</time>
      </trkpt>
      <trkpt lat="39.353941977024078" lon="-0.435371976345778">
        <ele>29.940000000000001</ele>
        <time>2025-05-13T10:50:04Z</time>
      </trkpt>
      <trkpt lat="39.355980036780238" lon="-0.43743995949626">
        <ele>31.379999999999999</ele>
        <time>2025-05-13T10:50:13Z</time>
      </trkpt>
      <trkpt lat="39.358729971572757" lon="-0.440367003902793">
        <ele>32.82</ele>
        <time>2025-05-13T10:50:25Z</time>
      </trkpt>
      <trkpt lat="39.360657976940274" lon="-0.443269992247224">
        <ele>31.379999999999999</ele>
        <time>2025-05-13T10:50:35Z</time>
      </trkpt>
      <trkpt lat="39.362564021721482" lon="-0.44715098105371">
        <ele>32.340000000000003</ele>
        <time>2025-05-13T10:50:47Z</time>
      </trkpt>
      <trkpt lat="39.363428028300405" lon="-0.448700962588191">
        <ele>33.780000000000001</ele>
        <time>2025-05-13T10:50:52Z</time>
      </trkpt>
      <trkpt lat="39.365174984559417" lon="-0.450724018737674">
        <ele>36.670000000000002</ele>
        <time>2025-05-13T10:51:00Z</time>
      </trkpt>
      <trkpt lat="39.36700601130724" lon="-0.451966971158981">
        <ele>39.07</ele>
        <time>2025-05-13T10:51:07Z</time>
      </trkpt>
      <trkpt lat="39.370012013241649" lon="-0.453624995425344">
        <ele>38.109999999999999</ele>
        <time>2025-05-13T10:51:18Z</time>
      </trkpt>
      <trkpt lat="39.372218968346715" lon="-0.455549983307719">
        <ele>36.670000000000002</ele>
        <time>2025-05-13T10:51:26Z</time>
      </trkpt>
      <trkpt lat="39.37390498816967" lon="-0.457702958956361">
        <ele>38.109999999999999</ele>
        <time>2025-05-13T10:51:35Z</time>
      </trkpt>
      <trkpt lat="39.375406019389629" lon="-0.460544005036354">
        <ele>40.509999999999998</ele>
        <time>2025-05-13T10:51:44Z</time>
      </trkpt>
      <trkpt lat="39.376713009551167" lon="-0.463540032505989">
        <ele>40.509999999999998</ele>
        <time>2025-05-13T10:51:53Z</time>
      </trkpt>
      <trkpt lat="39.377949004992843" lon="-0.465675992891192">
        <ele>43.399999999999999</ele>
        <time>2025-05-13T10:52:00Z</time>
      </trkpt>
      <trkpt lat="39.379890002310276" lon="-0.468025021255016">
        <ele>47.240000000000002</ele>
        <time>2025-05-13T10:52:08Z</time>
      </trkpt>
      <trkpt lat="39.382466012611985" lon="-0.470647970214486">
        <ele>51.57</ele>
        <time>2025-05-13T10:52:20Z</time>
      </trkpt>
      <trkpt lat="39.384236019104719" lon="-0.473197996616364">
        <ele>53.490000000000002</ele>
        <time>2025-05-13T10:52:29Z</time>
      </trkpt>
      <trkpt lat="39.386448003351688" lon="-0.476769022643566">
        <ele>64.549999999999997</ele>
        <time>2025-05-13T10:52:41Z</time>
      </trkpt>
      <trkpt lat="39.388813963159919" lon="-0.479665976017714">
        <ele>77.519999999999996</ele>
        <time>2025-05-13T10:52:52Z</time>
      </trkpt>
      <trkpt lat="39.391922978684306" lon="-0.483255023136735">
        <ele>78.480000000000004</ele>
        <time>2025-05-13T10:53:06Z</time>
      </trkpt>
      <trkpt lat="39.395016990602016" lon="-0.486799981445074">
        <ele>87.140000000000001</ele>
        <time>2025-05-13T10:53:20Z</time>
      </trkpt>
      <trkpt lat="39.397748988121748" lon="-0.489731971174479">
        <ele>95.790000000000006</ele>
        <time>2025-05-13T10:53:31Z</time>
      </trkpt>
      <trkpt lat="39.400941990315914" lon="-0.492556001991034">
        <ele>102.04000000000001</ele>
        <time>2025-05-13T10:53:45Z</time>
      </trkpt>
      <trkpt lat="39.40422099083662" lon="-0.495154978707433">
        <ele>103.95999999999999</ele>
        <time>2025-05-13T10:53:58Z</time>
      </trkpt>
      <trkpt lat="39.406981989741325" lon="-0.496563976630569">
        <ele>100.11</ele>
        <time>2025-05-13T10:54:08Z</time>
      </trkpt>
      <trkpt lat="39.4088189676404" lon="-0.497763007879257">
        <ele>95.790000000000006</ele>
        <time>2025-05-13T10:54:15Z</time>
      </trkpt>
      <trkpt lat="39.410703973844647" lon="-0.499649019911885">
        <ele>90.980000000000004</ele>
        <time>2025-05-13T10:54:23Z</time>
      </trkpt>
      <trkpt lat="39.413803014904261" lon="-0.503195989876986">
        <ele>83.290000000000006</ele>
        <time>2025-05-13T10:54:37Z</time>
      </trkpt>
      <trkpt lat="39.415199020877481" lon="-0.505657000467181">
        <ele>83.290000000000006</ele>
        <time>2025-05-13T10:54:45Z</time>
      </trkpt>
      <trkpt lat="39.416827037930489" lon="-0.508860982954502">
        <ele>87.620000000000005</ele>
        <time>2025-05-13T10:54:55Z</time>
      </trkpt>
      <trkpt lat="39.418844981119037" lon="-0.511687025427818">
        <ele>83.290000000000006</ele>
        <time>2025-05-13T10:55:04Z</time>
      </trkpt>
      <trkpt lat="39.421275984495878" lon="-0.515035009011626">
        <ele>77.519999999999996</ele>
        <time>2025-05-13T10:55:17Z</time>
      </trkpt>
      <trkpt lat="39.422666039317846" lon="-0.517845964059234">
        <ele>76.560000000000002</ele>
        <time>2025-05-13T10:55:26Z</time>
      </trkpt>
      <trkpt lat="39.423741018399596" lon="-0.520301023498178">
        <ele>76.079999999999998</ele>
        <time>2025-05-13T10:55:33Z</time>
      </trkpt>
      <trkpt lat="39.425100982189178" lon="-0.52286303602159">
        <ele>78</ele>
        <time>2025-05-13T10:55:41Z</time>
      </trkpt>
      <trkpt lat="39.426291966810822" lon="-0.524372030049562">
        <ele>78.969999999999999</ele>
        <time>2025-05-13T10:55:47Z</time>
      </trkpt>
      <trkpt lat="39.428314017131925" lon="-0.526334987953305">
        <ele>80.409999999999997</ele>
        <time>2025-05-13T10:55:58Z</time>
      </trkpt>
      <trkpt lat="39.430855996906757" lon="-0.528759034350514">
        <ele>78.969999999999999</ele>
        <time>2025-05-13T10:56:12Z</time>
      </trkpt>
      <trkpt lat="39.432389969006181" lon="-0.530983004719019">
        <ele>78</ele>
        <time>2025-05-13T10:56:22Z</time>
      </trkpt>
      <trkpt lat="39.434445966035128" lon="-0.53489601239562">
        <ele>77.040000000000006</ele>
        <time>2025-05-13T10:56:38Z</time>
      </trkpt>
      <trkpt lat="39.435768965631723" lon="-0.53685000166297">
        <ele>78.969999999999999</ele>
        <time>2025-05-13T10:56:46Z</time>
      </trkpt>
      <trkpt lat="39.43739203736186" lon="-0.538323037326336">
        <ele>81.370000000000005</ele>
        <time>2025-05-13T10:56:53Z</time>
      </trkpt>
      <trkpt lat="39.440357973799109" lon="-0.540121039375663">
        <ele>85.209999999999994</ele>
        <time>2025-05-13T10:57:04Z</time>
      </trkpt>
      <trkpt lat="39.443552987650037" lon="-0.542154991999269">
        <ele>88.579999999999998</ele>
        <time>2025-05-13T10:57:16Z</time>
      </trkpt>
      <trkpt lat="39.446141989901662" lon="-0.544019965454936">
        <ele>89.060000000000002</ele>
        <time>2025-05-13T10:57:27Z</time>
      </trkpt>
      <trkpt lat="39.448322039097548" lon="-0.545847974717617">
        <ele>90.5</ele>
        <time>2025-05-13T10:57:37Z</time>
      </trkpt>
      <trkpt lat="39.450994022190571" lon="-0.54826196283102">
        <ele>91.459999999999994</ele>
        <time>2025-05-13T10:57:50Z</time>
      </trkpt>
      <trkpt lat="39.453494008630514" lon="-0.550187034532428">
        <ele>91.939999999999998</ele>
        <time>2025-05-13T10:58:01Z</time>
      </trkpt>
      <trkpt lat="39.455802971497178" lon="-0.551260001957417">
        <ele>92.420000000000002</ele>
        <time>2025-05-13T10:58:10Z</time>
      </trkpt>
      <trkpt lat="39.459063028916717" lon="-0.552359959110618">
        <ele>94.349999999999994</ele>
        <time>2025-05-13T10:58:23Z</time>
      </trkpt>
      <trkpt lat="39.46100402623415" lon="-0.552522987127304">
        <ele>95.310000000000002</ele>
        <time>2025-05-13T10:58:31Z</time>
      </trkpt>
      <trkpt lat="39.462660038843751" lon="-0.552072040736675">
        <ele>96.269999999999996</ele>
        <time>2025-05-13T10:58:39Z</time>
      </trkpt>
      <trkpt lat="39.463574001565576" lon="-0.551693011075258">
        <ele>96.269999999999996</ele>
        <time>2025-05-13T10:58:44Z</time>
      </trkpt>
      <trkpt lat="39.463749015703797" lon="-0.551609024405479">
        <ele>95.790000000000006</ele>
        <time>2025-05-13T10:58:45Z</time>
      </trkpt>
      <trkpt lat="39.46461302228272" lon="-0.550705036148429">
        <ele>94.349999999999994</ele>
        <time>2025-05-13T10:58:50Z</time>
      </trkpt>
      <trkpt lat="39.465329004451632" lon="-0.550263980403543">
        <ele>93.870000000000005</ele>
        <time>2025-05-13T10:58:54Z</time>
      </trkpt>
      <trkpt lat="39.467124994844198" lon="-0.550148980692029">
        <ele>97.230000000000004</ele>
        <time>2025-05-13T10:59:04Z</time>
      </trkpt>
      <trkpt lat="39.469495983794332" lon="-0.549646988511086">
        <ele>102.04000000000001</ele>
        <time>2025-05-13T10:59:15Z</time>
      </trkpt>
      <trkpt lat="39.472137037664652" lon="-0.549284974113107">
        <ele>103.95999999999999</ele>
        <time>2025-05-13T10:59:28Z</time>
      </trkpt>
      <trkpt lat="39.474542979151011" lon="-0.548950033262372">
        <ele>105.40000000000001</ele>
        <time>2025-05-13T10:59:38Z</time>
      </trkpt>
      <trkpt lat="39.477571025490761" lon="-0.548439994454384">
        <ele>103.48</ele>
        <time>2025-05-13T10:59:51Z</time>
      </trkpt>
      <trkpt lat="39.478725967928767" lon="-0.548033975064754">
        <ele>102.52</ele>
        <time>2025-05-13T10:59:55Z</time>
      </trkpt>
      <trkpt lat="39.480531010776758" lon="-0.546783981844783">
        <ele>100.11</ele>
        <time>2025-05-13T11:00:02Z</time>
      </trkpt>
      <trkpt lat="39.482567980885506" lon="-0.544602004811168">
        <ele>96.269999999999996</ele>
        <time>2025-05-13T11:00:11Z</time>
      </trkpt>
      <trkpt lat="39.484721040353179" lon="-0.542623959481716">
        <ele>96.75</ele>
        <time>2025-05-13T11:00:20Z</time>
      </trkpt>
      <trkpt lat="39.487191019579768" lon="-0.54129702039063">
        <ele>96.75</ele>
        <time>2025-05-13T11:00:29Z</time>
      </trkpt>
      <trkpt lat="39.489882029592991" lon="-0.539707979187369">
        <ele>97.230000000000004</ele>
        <time>2025-05-13T11:00:38Z</time>
      </trkpt>
      <trkpt lat="39.49127702973783" lon="-0.538317002356052">
        <ele>97.230000000000004</ele>
        <time>2025-05-13T11:00:45Z</time>
      </trkpt>
      <trkpt lat="39.493029015138745" lon="-0.535743003711104">
        <ele>96.75</ele>
        <time>2025-05-13T11:00:54Z</time>
      </trkpt>
      <trkpt lat="39.49508098885417" lon="-0.532468026503921">
        <ele>94.829999999999998</ele>
        <time>2025-05-13T11:01:05Z</time>
      </trkpt>
      <trkpt lat="39.496955014765263" lon="-0.530586037784815">
        <ele>94.349999999999994</ele>
        <time>2025-05-13T11:01:13Z</time>
      </trkpt>
      <trkpt lat="39.499789020046592" lon="-0.527829984202981">
        <ele>95.310000000000002</ele>
        <time>2025-05-13T11:01:25Z</time>
      </trkpt>
      <trkpt lat="39.501513009890914" lon="-0.525251040235162">
        <ele>98.189999999999998</ele>
        <time>2025-05-13T11:01:34Z</time>
      </trkpt>
      <trkpt lat="39.503945019096136" lon="-0.520433960482478">
        <ele>99.629999999999995</ele>
        <time>2025-05-13T11:01:49Z</time>
      </trkpt>
      <trkpt lat="39.505052017048001" lon="-0.517312036827207">
        <ele>94.829999999999998</ele>
        <time>2025-05-13T11:01:58Z</time>
      </trkpt>
      <trkpt lat="39.506112998351455" lon="-0.512941963970661">
        <ele>81.849999999999994</ele>
        <time>2025-05-13T11:02:10Z</time>
      </trkpt>
      <trkpt lat="39.507042970508337" lon="-0.510540967807174">
        <ele>77.519999999999996</ele>
        <time>2025-05-13T11:02:17Z</time>
      </trkpt>
      <trkpt lat="39.508502008393407" lon="-0.508112981915474">
        <ele>67.909999999999997</ele>
        <time>2025-05-13T11:02:25Z</time>
      </trkpt>
      <trkpt lat="39.509413037449121" lon="-0.506596025079489">
        <ele>63.579999999999998</ele>
        <time>2025-05-13T11:02:30Z</time>
      </trkpt>
      <trkpt lat="39.509588973596692" lon="-0.506291007623076">
        <ele>63.579999999999998</ele>
        <time>2025-05-13T11:02:31Z</time>
      </trkpt>
      <trkpt lat="39.511314975097775" lon="-0.502702966332436">
        <ele>64.069999999999993</ele>
        <time>2025-05-13T11:02:42Z</time>
      </trkpt>
      <trkpt lat="39.512080997228622" lon="-0.500668007880449">
        <ele>63.100000000000001</ele>
        <time>2025-05-13T11:02:49Z</time>
      </trkpt>
      <trkpt lat="39.513009963557124" lon="-0.497155990451574">
        <ele>62.140000000000001</ele>
        <time>2025-05-13T11:03:01Z</time>
      </trkpt>
      <trkpt lat="39.513596026226878" lon="-0.493761990219355">
        <ele>62.619999999999997</ele>
        <time>2025-05-13T11:03:11Z</time>
      </trkpt>
      <trkpt lat="39.513886040076613" lon="-0.49093603156507">
        <ele>67.909999999999997</ele>
        <time>2025-05-13T11:03:19Z</time>
      </trkpt>
      <trkpt lat="39.514389038085938" lon="-0.48689603805542">
        <ele>78.480000000000004</ele>
        <time>2025-05-13T11:03:31Z</time>
      </trkpt>
      <trkpt lat="39.515287997201085" lon="-0.483729019761086">
        <ele>85.209999999999994</ele>
        <time>2025-05-13T11:03:41Z</time>
      </trkpt>
      <trkpt lat="39.516595993191004" lon="-0.480911023914814">
        <ele>89.540000000000006</ele>
        <time>2025-05-13T11:03:51Z</time>
      </trkpt>
      <trkpt lat="39.51809098944068" lon="-0.478685041889548">
        <ele>93.870000000000005</ele>
        <time>2025-05-13T11:04:00Z</time>
      </trkpt>
      <trkpt lat="39.519975995644927" lon="-0.476653017103672">
        <ele>91.939999999999998</ele>
        <time>2025-05-13T11:04:09Z</time>
      </trkpt>
      <trkpt lat="39.52139999717474" lon="-0.475229015573859">
        <ele>87.620000000000005</ele>
        <time>2025-05-13T11:04:16Z</time>
      </trkpt>
      <trkpt lat="39.52256097458303" lon="-0.473858993500471">
        <ele>84.730000000000004</ele>
        <time>2025-05-13T11:04:22Z</time>
      </trkpt>
      <trkpt lat="39.523367984220386" lon="-0.472809998318553">
        <ele>82.329999999999998</ele>
        <time>2025-05-13T11:04:30Z</time>
      </trkpt>
      <trkpt lat="39.524023029953241" lon="-0.471810959279537">
        <ele>81.370000000000005</ele>
        <time>2025-05-13T11:04:40Z</time>
      </trkpt>
      <trkpt lat="39.524610014632344" lon="-0.470835976302624">
        <ele>80.890000000000001</ele>
        <time>2025-05-13T11:04:51Z</time>
      </trkpt>
      <trkpt lat="39.524637004360557" lon="-0.470789037644863">
        <ele>80.890000000000001</ele>
        <time>2025-05-13T11:04:52Z</time>
      </trkpt>
      <trkpt lat="39.524660976603627" lon="-0.470749977976084">
        <ele>80.890000000000001</ele>
        <time>2025-05-13T11:04:53Z</time>
      </trkpt>
      <trkpt lat="39.524681009352207" lon="-0.470715025439858">
        <ele>81.370000000000005</ele>
        <time>2025-05-13T11:04:54Z</time>
      </trkpt>
      <trkpt lat="39.524951996281743" lon="-0.470257960259914">
        <ele>82.329999999999998</ele>
        <time>2025-05-13T11:05:03Z</time>
      </trkpt>
      <trkpt lat="39.525666972622275" lon="-0.469006039202213">
        <ele>82.329999999999998</ele>
        <time>2025-05-13T11:05:14Z</time>
      </trkpt>
      <trkpt lat="39.52657800167799" lon="-0.467519005760551">
        <ele>84.25</ele>
        <time>2025-05-13T11:05:24Z</time>
      </trkpt>
      <trkpt lat="39.527834029868245" lon="-0.465729972347617">
        <ele>87.620000000000005</ele>
        <time>2025-05-13T11:05:35Z</time>
      </trkpt>
      <trkpt lat="39.529472021386027" lon="-0.463901041075587">
        <ele>91.939999999999998</ele>
        <time>2025-05-13T11:05:46Z</time>
      </trkpt>
      <trkpt lat="39.531603036448359" lon="-0.461968006566167">
        <ele>98.189999999999998</ele>
        <time>2025-05-13T11:05:58Z</time>
      </trkpt>
      <trkpt lat="39.532652031630278" lon="-0.461028981953859">
        <ele>101.56</ele>
        <time>2025-05-13T11:06:05Z</time>
      </trkpt>
      <trkpt lat="39.533980982378125" lon="-0.459835985675454">
        <ele>105.40000000000001</ele>
        <time>2025-05-13T11:06:16Z</time>
      </trkpt>
      <trkpt lat="39.535570023581386" lon="-0.458252979442477">
        <ele>108.29000000000001</ele>
        <time>2025-05-13T11:06:27Z</time>
      </trkpt>
      <trkpt lat="39.536962006241083" lon="-0.456729987636209">
        <ele>111.17</ele>
        <time>2025-05-13T11:06:36Z</time>
      </trkpt>
      <trkpt lat="39.538661018013954" lon="-0.454591009765863">
        <ele>111.65000000000001</ele>
        <time>2025-05-13T11:06:46Z</time>
      </trkpt>
      <trkpt lat="39.541327971965075" lon="-0.450811022892594">
        <ele>113.09</ele>
        <time>2025-05-13T11:07:02Z</time>
      </trkpt>
      <trkpt lat="39.543396038934588" lon="-0.447980035096407">
        <ele>113.56999999999999</ele>
        <time>2025-05-13T11:07:14Z</time>
      </trkpt>
      <trkpt lat="39.54486102797091" lon="-0.446287980303168">
        <ele>111.17</ele>
        <time>2025-05-13T11:07:23Z</time>
      </trkpt>
      <trkpt lat="39.546115966513753" lon="-0.444989958778024">
        <ele>107.81</ele>
        <time>2025-05-13T11:07:30Z</time>
      </trkpt>
      <trkpt lat="39.547595037147403" lon="-0.443552965298295">
        <ele>103.48</ele>
        <time>2025-05-13T11:07:39Z</time>
      </trkpt>
      <trkpt lat="39.549622032791376" lon="-0.441509960219264">
        <ele>97.709999999999994</ele>
        <time>2025-05-13T11:07:48Z</time>
      </trkpt>
      <trkpt lat="39.552025040611625" lon="-0.438659023493528">
        <ele>87.140000000000001</ele>
        <time>2025-05-13T11:07:59Z</time>
      </trkpt>
      <trkpt lat="39.554052036255598" lon="-0.435846978798509">
        <ele>80.409999999999997</ele>
        <time>2025-05-13T11:08:09Z</time>
      </trkpt>
      <trkpt lat="39.556336021050811" lon="-0.432957988232374">
        <ele>77.040000000000006</ele>
        <time>2025-05-13T11:08:20Z</time>
      </trkpt>
      <trkpt lat="39.558517998084426" lon="-0.430668974295259">
        <ele>78.480000000000004</ele>
        <time>2025-05-13T11:08:31Z</time>
      </trkpt>
      <trkpt lat="39.560904996469617" lon="-0.428571989759803">
        <ele>79.450000000000003</ele>
        <time>2025-05-13T11:08:41Z</time>
      </trkpt>
      <trkpt lat="39.563480000942945" lon="-0.426743980497122">
        <ele>80.890000000000001</ele>
        <time>2025-05-13T11:08:51Z</time>
      </trkpt>
      <trkpt lat="39.566064979881048" lon="-0.425317967310548">
        <ele>81.849999999999994</ele>
        <time>2025-05-13T11:09:02Z</time>
      </trkpt>
      <trkpt lat="39.569300981238484" lon="-0.42394501157105">
        <ele>78</ele>
        <time>2025-05-13T11:09:15Z</time>
      </trkpt>
      <trkpt lat="39.571581026539207" lon="-0.423181001096964">
        <ele>75.120000000000005</ele>
        <time>2025-05-13T11:09:24Z</time>
      </trkpt>
      <trkpt lat="39.57427597604692" lon="-0.422093030065298">
        <ele>72.719999999999999</ele>
        <time>2025-05-13T11:09:34Z</time>
      </trkpt>
      <trkpt lat="39.576947959139943" lon="-0.420441962778568">
        <ele>69.829999999999998</ele>
        <time>2025-05-13T11:09:44Z</time>
      </trkpt>
      <trkpt lat="39.57956001162529" lon="-0.417967038229108">
        <ele>66.950000000000003</ele>
        <time>2025-05-13T11:09:54Z</time>
      </trkpt>
      <trkpt lat="39.581619026139379" lon="-0.415238980203867">
        <ele>65.030000000000001</ele>
        <time>2025-05-13T11:10:05Z</time>
      </trkpt>
      <trkpt lat="39.583308985456824" lon="-0.412105992436409">
        <ele>65.989999999999995</ele>
        <time>2025-05-13T11:10:14Z</time>
      </trkpt>
      <trkpt lat="39.584342977032065" lon="-0.409387992694974">
        <ele>66.469999999999999</ele>
        <time>2025-05-13T11:10:23Z</time>
      </trkpt>
      <trkpt lat="39.584614969789982" lon="-0.408505965024233">
        <ele>65.989999999999995</ele>
        <time>2025-05-13T11:10:27Z</time>
      </trkpt>
      <trkpt lat="39.584656041115522" lon="-0.408374033868313">
        <ele>65.030000000000001</ele>
        <time>2025-05-13T11:10:32Z</time>
      </trkpt>
      <trkpt lat="39.584722006693482" lon="-0.408155014738441">
        <ele>65.030000000000001</ele>
        <time>2025-05-13T11:10:41Z</time>
      </trkpt>
      <trkpt lat="39.585041021928191" lon="-0.406764037907124">
        <ele>65.510000000000005</ele>
        <time>2025-05-13T11:10:49Z</time>
      </trkpt>
      <trkpt lat="39.585367999970913" lon="-0.405042981728911">
        <ele>64.549999999999997</ele>
        <time>2025-05-13T11:10:58Z</time>
      </trkpt>
      <trkpt lat="39.585586013272405" lon="-0.40321497246623">
        <ele>63.100000000000001</ele>
        <time>2025-05-13T11:11:06Z</time>
      </trkpt>
      <trkpt lat="39.58574702963233" lon="-0.401050010696054">
        <ele>62.619999999999997</ele>
        <time>2025-05-13T11:11:13Z</time>
      </trkpt>
      <trkpt lat="39.585950961336493" lon="-0.398169988766313">
        <ele>63.579999999999998</ele>
        <time>2025-05-13T11:11:23Z</time>
      </trkpt>
      <trkpt lat="39.586324961856008" lon="-0.395293990150094">
        <ele>63.100000000000001</ele>
        <time>2025-05-13T11:11:33Z</time>
      </trkpt>
      <trkpt lat="39.586988976225257" lon="-0.391458012163639">
        <ele>59.259999999999998</ele>
        <time>2025-05-13T11:11:44Z</time>
      </trkpt>
      <trkpt lat="39.587953984737396" lon="-0.387504016980529">
        <ele>56.369999999999997</ele>
        <time>2025-05-13T11:11:56Z</time>
      </trkpt>
      <trkpt lat="39.589361976832151" lon="-0.38316898047924">
        <ele>52.049999999999997</ele>
        <time>2025-05-13T11:12:09Z</time>
      </trkpt>
      <trkpt lat="39.591242037713528" lon="-0.377780003473163">
        <ele>51.090000000000003</ele>
        <time>2025-05-13T11:12:26Z</time>
      </trkpt>
      <trkpt lat="39.592542992904782" lon="-0.37326199002564">
        <ele>52.530000000000001</ele>
        <time>2025-05-13T11:12:39Z</time>
      </trkpt>
      <trkpt lat="39.593814024701715" lon="-0.369096016511321">
        <ele>53.969999999999999</ele>
        <time>2025-05-13T11:12:50Z</time>
      </trkpt>
      <trkpt lat="39.594899984076619" lon="-0.366169977933168">
        <ele>57.340000000000003</ele>
        <time>2025-05-13T11:13:00Z</time>
      </trkpt>
      <trkpt lat="39.596257014200091" lon="-0.363082000985742">
        <ele>57.82</ele>
        <time>2025-05-13T11:13:11Z</time>
      </trkpt>
      <trkpt lat="39.598159035667777" lon="-0.359333027154207">
        <ele>55.409999999999997</ele>
        <time>2025-05-13T11:13:24Z</time>
      </trkpt>
      <trkpt lat="39.600130962207913" lon="-0.355982026085258">
        <ele>51.57</ele>
        <time>2025-05-13T11:13:36Z</time>
      </trkpt>
      <trkpt lat="39.601410962641239" lon="-0.354058966040611">
        <ele>50.130000000000003</ele>
        <time>2025-05-13T11:13:44Z</time>
      </trkpt>
      <trkpt lat="39.602877041324973" lon="-0.352018978446722">
        <ele>49.649999999999999</ele>
        <time>2025-05-13T11:13:55Z</time>
      </trkpt>
      <trkpt lat="39.604025026783347" lon="-0.350603023543954">
        <ele>49.649999999999999</ele>
        <time>2025-05-13T11:14:05Z</time>
      </trkpt>
      <trkpt lat="39.605347020551562" lon="-0.349038960412145">
        <ele>49.649999999999999</ele>
        <time>2025-05-13T11:14:16Z</time>
      </trkpt>
      <trkpt lat="39.606927009299397" lon="-0.347313964739442">
        <ele>53.969999999999999</ele>
        <time>2025-05-13T11:14:26Z</time>
      </trkpt>
      <trkpt lat="39.609519029036164" lon="-0.344845997169614">
        <ele>58.299999999999997</ele>
        <time>2025-05-13T11:14:40Z</time>
      </trkpt>
      <trkpt lat="39.611827991902828" lon="-0.342657985165715">
        <ele>60.700000000000003</ele>
        <time>2025-05-13T11:14:51Z</time>
      </trkpt>
      <trkpt lat="39.614054979756474" lon="-0.340289007872343">
        <ele>57.82</ele>
        <time>2025-05-13T11:15:03Z</time>
      </trkpt>
      <trkpt lat="39.616204015910625" lon="-0.337647031992674">
        <ele>54.93</ele>
        <time>2025-05-13T11:15:14Z</time>
      </trkpt>
      <trkpt lat="39.618370989337564" lon="-0.334644969552755">
        <ele>54.450000000000003</ele>
        <time>2025-05-13T11:15:27Z</time>
      </trkpt>
      <trkpt lat="39.620063966140151" lon="-0.331875002011657">
        <ele>52.049999999999997</ele>
        <time>2025-05-13T11:15:38Z</time>
      </trkpt>
      <trkpt lat="39.621956013143063" lon="-0.328401038423181">
        <ele>52.049999999999997</ele>
        <time>2025-05-13T11:15:50Z</time>
      </trkpt>
      <trkpt lat="39.623479004949331" lon="-0.325207030400634">
        <ele>52.530000000000001</ele>
        <time>2025-05-13T11:16:01Z</time>
      </trkpt>
      <trkpt lat="39.624621039256454" lon="-0.322406971827149">
        <ele>53.969999999999999</ele>
        <time>2025-05-13T11:16:11Z</time>
      </trkpt>
      <trkpt lat="39.625580012798309" lon="-0.319688972085714">
        <ele>48.68</ele>
        <time>2025-05-13T11:16:23Z</time>
      </trkpt>
      <trkpt lat="39.626543009653687" lon="-0.3168869856745">
        <ele>42.920000000000002</ele>
        <time>2025-05-13T11:16:35Z</time>
      </trkpt>
      <trkpt lat="39.627805994823575" lon="-0.313676968216896">
        <ele>37.149999999999999</ele>
        <time>2025-05-13T11:16:48Z</time>
      </trkpt>
      <trkpt lat="39.629236031323671" lon="-0.310771968215704">
        <ele>30.899999999999999</ele>
        <time>2025-05-13T11:17:00Z</time>
      </trkpt>
      <trkpt lat="39.630296006798744" lon="-0.308990981429815">
        <ele>28.02</ele>
        <time>2025-05-13T11:17:08Z</time>
      </trkpt>
      <trkpt lat="39.63151297532022" lon="-0.306682018563151">
        <ele>21.77</ele>
        <time>2025-05-13T11:17:18Z</time>
      </trkpt>
      <trkpt lat="39.632527017965913" lon="-0.303249964490533">
        <ele>26.09</ele>
        <time>2025-05-13T11:17:30Z</time>
      </trkpt>
      <trkpt lat="39.633500995114446" lon="-0.299853030592203">
        <ele>19.84</ele>
        <time>2025-05-13T11:17:42Z</time>
      </trkpt>
      <trkpt lat="39.634539010003209" lon="-0.296205980703235">
        <ele>16.48</ele>
        <time>2025-05-13T11:17:55Z</time>
      </trkpt>
      <trkpt lat="39.635018035769463" lon="-0.294812992215157">
        <ele>15.52</ele>
        <time>2025-05-13T11:18:00Z</time>
      </trkpt>
      <trkpt lat="39.635136974975467" lon="-0.294564971700311">
        <ele>15.52</ele>
        <time>2025-05-13T11:18:01Z</time>
      </trkpt>
      <trkpt lat="39.635284999385476" lon="-0.294333966448903">
        <ele>15.039999999999999</ele>
        <time>2025-05-13T11:18:02Z</time>
      </trkpt>
      <trkpt lat="39.635456996038556" lon="-0.294126011431217">
        <ele>15.039999999999999</ele>
        <time>2025-05-13T11:18:03Z</time>
      </trkpt>
      <trkpt lat="39.635634021833539" lon="-0.293919984251261">
        <ele>14.56</ele>
        <time>2025-05-13T11:18:04Z</time>
      </trkpt>
      <trkpt lat="39.635824961587787" lon="-0.293737007305026">
        <ele>14.56</ele>
        <time>2025-05-13T11:18:05Z</time>
      </trkpt>
      <trkpt lat="39.638220006600022" lon="-0.291986027732491">
        <ele>12.15</ele>
        <time>2025-05-13T11:18:16Z</time>
      </trkpt>
      <trkpt lat="39.640204003080726" lon="-0.290430011227727">
        <ele>12.15</ele>
        <time>2025-05-13T11:18:26Z</time>
      </trkpt>
      <trkpt lat="39.64218900538981" lon="-0.288598984479904">
        <ele>16</ele>
        <time>2025-05-13T11:18:37Z</time>
      </trkpt>
      <trkpt lat="39.644133020192385" lon="-0.286710960790515">
        <ele>21.77</ele>
        <time>2025-05-13T11:18:48Z</time>
      </trkpt>
      <trkpt lat="39.645723989233375" lon="-0.285444958135486">
        <ele>21.77</ele>
        <time>2025-05-13T11:18:57Z</time>
      </trkpt>
      <trkpt lat="39.647775962948799" lon="-0.284668039530516">
        <ele>21.77</ele>
        <time>2025-05-13T11:19:07Z</time>
      </trkpt>
      <trkpt lat="39.650696972385049" lon="-0.283644022420049">
        <ele>22.73</ele>
        <time>2025-05-13T11:19:21Z</time>
      </trkpt>
      <trkpt lat="39.653887040913105" lon="-0.282526966184378">
        <ele>24.170000000000002</ele>
        <time>2025-05-13T11:19:36Z</time>
      </trkpt>
      <trkpt lat="39.655441967770457" lon="-0.281995972618461">
        <ele>24.170000000000002</ele>
        <time>2025-05-13T11:19:44Z</time>
      </trkpt>
      <trkpt lat="39.657203005626798" lon="-0.281207989901304">
        <ele>23.690000000000001</ele>
        <time>2025-05-13T11:19:52Z</time>
      </trkpt>
      <trkpt lat="39.659325974062085" lon="-0.280034020543098">
        <ele>26.57</ele>
        <time>2025-05-13T11:20:03Z</time>
      </trkpt>
      <trkpt lat="39.660716028884053" lon="-0.279261963441968">
        <ele>26.09</ele>
        <time>2025-05-13T11:20:10Z</time>
      </trkpt>
      <trkpt lat="39.662704970687628" lon="-0.27831899933517">
        <ele>27.530000000000001</ele>
        <time>2025-05-13T11:20:20Z</time>
      </trkpt>
      <trkpt lat="39.66305298730731" lon="-0.278157982975245">
        <ele>28.5</ele>
        <time>2025-05-13T11:20:22Z</time>
      </trkpt>
      <trkpt lat="39.663240993395448" lon="-0.278069972991943">
        <ele>28.5</ele>
        <time>2025-05-13T11:20:23Z</time>
      </trkpt>
      <trkpt lat="39.663388011977077" lon="-0.278034014627337">
        <ele>28.98</ele>
        <time>2025-05-13T11:20:24Z</time>
      </trkpt>
      <trkpt lat="39.663575012236834" lon="-0.278112972155213">
        <ele>28.98</ele>
        <time>2025-05-13T11:20:25Z</time>
      </trkpt>
      <trkpt lat="39.663921017199755" lon="-0.278145996853709">
        <ele>29.460000000000001</ele>
        <time>2025-05-13T11:20:26Z</time>
      </trkpt>
      <trkpt lat="39.664414962753654" lon="-0.278344983235002">
        <ele>28.98</ele>
        <time>2025-05-13T11:20:30Z</time>
      </trkpt>
      <trkpt lat="39.664566004648805" lon="-0.278473980724812">
        <ele>28.5</ele>
        <time>2025-05-13T11:20:31Z</time>
      </trkpt>
      <trkpt lat="39.664716962724924" lon="-0.278604989871383">
        <ele>28.5</ele>
        <time>2025-05-13T11:20:32Z</time>
      </trkpt>
      <trkpt lat="39.664855012670159" lon="-0.278761982917786">
        <ele>28.98</ele>
        <time>2025-05-13T11:20:33Z</time>
      </trkpt>
      <trkpt lat="39.66498602181673" lon="-0.278922999277711">
        <ele>29.460000000000001</ele>
        <time>2025-05-13T11:20:34Z</time>
      </trkpt>
      <trkpt lat="39.665078977122903" lon="-0.27911301702261">
        <ele>30.420000000000002</ele>
        <time>2025-05-13T11:20:35Z</time>
      </trkpt>
      <trkpt lat="39.665171010419726" lon="-0.279301023110747">
        <ele>30.899999999999999</ele>
        <time>2025-05-13T11:20:36Z</time>
      </trkpt>
      <trkpt lat="39.665249967947602" lon="-0.279505960643291">
        <ele>30.899999999999999</ele>
        <time>2025-05-13T11:20:37Z</time>
      </trkpt>
      <trkpt lat="39.665901996195316" lon="-0.281487023457885">
        <ele>29.460000000000001</ele>
        <time>2025-05-13T11:20:45Z</time>
      </trkpt>
      <trkpt lat="39.667030032724142" lon="-0.284220026805997">
        <ele>32.82</ele>
        <time>2025-05-13T11:20:55Z</time>
      </trkpt>
      <trkpt lat="39.668373987078667" lon="-0.28747103177011">
        <ele>45.799999999999997</ele>
        <time>2025-05-13T11:21:07Z</time>
      </trkpt>
      <trkpt lat="39.66939096339047" lon="-0.289153028279543">
        <ele>56.859999999999999</ele>
        <time>2025-05-13T11:21:14Z</time>
      </trkpt>
      <trkpt lat="39.671388035640121" lon="-0.29108002781868">
        <ele>62.140000000000001</ele>
        <time>2025-05-13T11:21:24Z</time>
      </trkpt>
      <trkpt lat="39.672447005286813" lon="-0.29239104129374">
        <ele>63.100000000000001</ele>
        <time>2025-05-13T11:21:30Z</time>
      </trkpt>
      <trkpt lat="39.6731280349195" lon="-0.294043030589819">
        <ele>64.549999999999997</ele>
        <time>2025-05-13T11:21:36Z</time>
      </trkpt>
      <trkpt lat="39.67338896356523" lon="-0.295917978510261">
        <ele>67.909999999999997</ele>
        <time>2025-05-13T11:21:42Z</time>
      </trkpt>
      <trkpt lat="39.673248985782266" lon="-0.299244001507759">
        <ele>72.239999999999995</ele>
        <time>2025-05-13T11:21:52Z</time>
      </trkpt>
      <trkpt lat="39.673273963853717" lon="-0.300631960853934">
        <ele>74.159999999999997</ele>
        <time>2025-05-13T11:21:56Z</time>
      </trkpt>
      <trkpt lat="39.67291496694088" lon="-0.304771028459072">
        <ele>78</ele>
        <time>2025-05-13T11:22:08Z</time>
      </trkpt>
      <trkpt lat="39.67289200052619" lon="-0.306515973061323">
        <ele>77.519999999999996</ele>
        <time>2025-05-13T11:22:13Z</time>
      </trkpt>
      <trkpt lat="39.673383012413979" lon="-0.309604033827782">
        <ele>80.890000000000001</ele>
        <time>2025-05-13T11:22:22Z</time>
      </trkpt>
      <trkpt lat="39.674236038699746" lon="-0.313122002407908">
        <ele>81.370000000000005</ele>
        <time>2025-05-13T11:22:33Z</time>
      </trkpt>
      <trkpt lat="39.675387963652611" lon="-0.316567970439792">
        <ele>80.890000000000001</ele>
        <time>2025-05-13T11:22:44Z</time>
      </trkpt>
      <trkpt lat="39.67583597637713" lon="-0.317813018336892">
        <ele>80.409999999999997</ele>
        <time>2025-05-13T11:22:48Z</time>
      </trkpt>
      <trkpt lat="39.67611500993371" lon="-0.318386005237699">
        <ele>80.409999999999997</ele>
        <time>2025-05-13T11:22:50Z</time>
      </trkpt>
      <trkpt lat="39.676452968269587" lon="-0.318894032388926">
        <ele>80.409999999999997</ele>
        <time>2025-05-13T11:22:52Z</time>
      </trkpt>
      <trkpt lat="39.676644997671247" lon="-0.319114979356527">
        <ele>80.409999999999997</ele>
        <time>2025-05-13T11:22:53Z</time>
      </trkpt>
      <trkpt lat="39.676839960739017" lon="-0.319337015971541">
        <ele>80.409999999999997</ele>
        <time>2025-05-13T11:22:54Z</time>
      </trkpt>
      <trkpt lat="39.679131992161274" lon="-0.321081960573792">
        <ele>84.730000000000004</ele>
        <time>2025-05-13T11:23:04Z</time>
      </trkpt>
      <trkpt lat="39.681737003847957" lon="-0.322940982878208">
        <ele>84.730000000000004</ele>
        <time>2025-05-13T11:23:15Z</time>
      </trkpt>
      <trkpt lat="39.682980962097645" lon="-0.324173038825393">
        <ele>85.209999999999994</ele>
        <time>2025-05-13T11:23:20Z</time>
      </trkpt>
      <trkpt lat="39.683152036741376" lon="-0.324432039633393">
        <ele>85.209999999999994</ele>
        <time>2025-05-13T11:23:22Z</time>
      </trkpt>
      <trkpt lat="39.68417102470994" lon="-0.32644403167069">
        <ele>86.659999999999997</ele>
        <time>2025-05-13T11:23:29Z</time>
      </trkpt>
      <trkpt lat="39.68546200543642" lon="-0.329034039750695">
        <ele>90.5</ele>
        <time>2025-05-13T11:23:38Z</time>
      </trkpt>
      <trkpt lat="39.685641964897513" lon="-0.329274013638496">
        <ele>91.459999999999994</ele>
        <time>2025-05-13T11:23:39Z</time>
      </trkpt>
      <trkpt lat="39.685823014006019" lon="-0.329491021111608">
        <ele>91.939999999999998</ele>
        <time>2025-05-13T11:23:40Z</time>
      </trkpt>
      <trkpt lat="39.686015965417027" lon="-0.329683972522616">
        <ele>92.420000000000002</ele>
        <time>2025-05-13T11:23:41Z</time>
      </trkpt>
      <trkpt lat="39.686205983161926" lon="-0.329872984439135">
        <ele>92.900000000000006</ele>
        <time>2025-05-13T11:23:42Z</time>
      </trkpt>
      <trkpt lat="39.688223004341125" lon="-0.331318024545908">
        <ele>97.709999999999994</ele>
        <time>2025-05-13T11:23:51Z</time>
      </trkpt>
      <trkpt lat="39.691087016835809" lon="-0.333264973014593">
        <ele>106.84</ele>
        <time>2025-05-13T11:24:07Z</time>
      </trkpt>
      <trkpt lat="39.693096997216344" lon="-0.334931965917349">
        <ele>111.17</ele>
        <time>2025-05-13T11:24:18Z</time>
      </trkpt>
      <trkpt lat="39.694116991013288" lon="-0.336554031819105">
        <ele>114.05</ele>
        <time>2025-05-13T11:24:25Z</time>
      </trkpt>
      <trkpt lat="39.694899022579193" lon="-0.338132008910179">
        <ele>117.90000000000001</ele>
        <time>2025-05-13T11:24:31Z</time>
      </trkpt>
      <trkpt lat="39.695023996755481" lon="-0.338385980576277">
        <ele>119.34</ele>
        <time>2025-05-13T11:24:32Z</time>
      </trkpt>
      <trkpt lat="39.696470964699984" lon="-0.341346971690655">
        <ele>122.22</ele>
        <time>2025-05-13T11:24:44Z</time>
      </trkpt>
      <trkpt lat="39.697183007374406" lon="-0.342509960755706">
        <ele>120.3</ele>
        <time>2025-05-13T11:24:49Z</time>
      </trkpt>
      <trkpt lat="39.697351986542344" lon="-0.342698972672224">
        <ele>119.34</ele>
        <time>2025-05-13T11:24:50Z</time>
      </trkpt>
      <trkpt lat="39.698385978117585" lon="-0.343718966469169">
        <ele>116.94</ele>
        <time>2025-05-13T11:24:57Z</time>
      </trkpt>
      <trkpt lat="39.698601979762316" lon="-0.343909990042448">
        <ele>116.45999999999999</ele>
        <time>2025-05-13T11:24:59Z</time>
      </trkpt>
      <trkpt lat="39.698744975030422" lon="-0.343877971172333">
        <ele>116.45999999999999</ele>
        <time>2025-05-13T11:25:00Z</time>
      </trkpt>
      <trkpt lat="39.698841031640768" lon="-0.34393304027617">
        <ele>116.45999999999999</ele>
        <time>2025-05-13T11:25:01Z</time>
      </trkpt>
      <trkpt lat="39.698930969461799" lon="-0.343938991427422">
        <ele>116.45999999999999</ele>
        <time>2025-05-13T11:25:02Z</time>
      </trkpt>
      <trkpt lat="39.699029037728906" lon="-0.343931028619409">
        <ele>115.98</ele>
        <time>2025-05-13T11:25:03Z</time>
      </trkpt>
      <trkpt lat="39.699118975549936" lon="-0.343923987820745">
        <ele>115.5</ele>
        <time>2025-05-13T11:25:04Z</time>
      </trkpt>
      <trkpt lat="39.699257025495172" lon="-0.343786021694541">
        <ele>114.53</ele>
        <time>2025-05-13T11:25:06Z</time>
      </trkpt>
      <trkpt lat="39.69934101216495" lon="-0.343628022819757">
        <ele>113.09</ele>
        <time>2025-05-13T11:25:08Z</time>
      </trkpt>
      <trkpt lat="39.699366996064782" lon="-0.343372039496899">
        <ele>112.13</ele>
        <time>2025-05-13T11:25:10Z</time>
      </trkpt>
      <trkpt lat="39.699358027428389" lon="-0.343249998986721">
        <ele>111.65000000000001</ele>
        <time>2025-05-13T11:25:11Z</time>
      </trkpt>
      <trkpt lat="39.699292983859777" lon="-0.343138016760349">
        <ele>110.69</ele>
        <time>2025-05-13T11:25:12Z</time>
      </trkpt>
      <trkpt lat="39.699226012453437" lon="-0.343022011220455">
        <ele>110.20999999999999</ele>
        <time>2025-05-13T11:25:13Z</time>
      </trkpt>
      <trkpt lat="39.699124004691839" lon="-0.34296803176403">
        <ele>109.25</ele>
        <time>2025-05-13T11:25:14Z</time>
      </trkpt>
      <trkpt lat="39.699023002758622" lon="-0.342913968488574">
        <ele>108.77</ele>
        <time>2025-05-13T11:25:15Z</time>
      </trkpt>
      <trkpt lat="39.698839019984007" lon="-0.342831993475556">
        <ele>107.31999999999999</ele>
        <time>2025-05-13T11:25:17Z</time>
      </trkpt>
      <trkpt lat="39.698534002527595" lon="-0.342793017625809">
        <ele>104.44</ele>
        <time>2025-05-13T11:25:21Z</time>
      </trkpt>
      <trkpt lat="39.698474993929267" lon="-0.342788994312286">
        <ele>103.95999999999999</ele>
        <time>2025-05-13T11:25:22Z</time>
      </trkpt>
      <trkpt lat="39.698420008644462" lon="-0.342785976827145">
        <ele>103.48</ele>
        <time>2025-05-13T11:25:23Z</time>
      </trkpt>
      <trkpt lat="39.698366029188037" lon="-0.342785976827145">
        <ele>102.52</ele>
        <time>2025-05-13T11:25:24Z</time>
      </trkpt>
      <trkpt lat="39.698324035853148" lon="-0.342749012634158">
        <ele>102.52</ele>
        <time>2025-05-13T11:25:25Z</time>
      </trkpt>
      <trkpt lat="39.698295034468174" lon="-0.342700984328985">
        <ele>102.04000000000001</ele>
        <time>2025-05-13T11:25:26Z</time>
      </trkpt>
      <trkpt lat="39.698291011154652" lon="-0.34262403845787">
        <ele>101.56</ele>
        <time>2025-05-13T11:25:27Z</time>
      </trkpt>
      <trkpt lat="39.698302997276187" lon="-0.342550026252866">
        <ele>101.08</ele>
        <time>2025-05-13T11:25:28Z</time>
      </trkpt>
      <trkpt lat="39.698431994765997" lon="-0.342507027089596">
        <ele>100.59999999999999</ele>
        <time>2025-05-13T11:25:29Z</time>
      </trkpt>
      <trkpt lat="39.698469964787364" lon="-0.342419017106295">
        <ele>99.150000000000006</ele>
        <time>2025-05-13T11:25:30Z</time>
      </trkpt>
      <trkpt lat="39.698513969779015" lon="-0.342310974374413">
        <ele>98.670000000000002</ele>
        <time>2025-05-13T11:25:31Z</time>
      </trkpt>
      <trkpt lat="39.698558980599046" lon="-0.3421959746629">
        <ele>97.709999999999994</ele>
        <time>2025-05-13T11:25:32Z</time>
      </trkpt>
      <trkpt lat="39.698607008904219" lon="-0.342074017971754">
        <ele>96.75</ele>
        <time>2025-05-13T11:25:33Z</time>
      </trkpt>
      <trkpt lat="39.698657970875502" lon="-0.341944014653564">
        <ele>95.310000000000002</ele>
        <time>2025-05-13T11:25:34Z</time>
      </trkpt>
      <trkpt lat="39.698708010837436" lon="-0.341816022992134">
        <ele>94.349999999999994</ele>
        <time>2025-05-13T11:25:35Z</time>
      </trkpt>
      <trkpt lat="39.698756039142609" lon="-0.341696999967098">
        <ele>93.390000000000001</ele>
        <time>2025-05-13T11:25:36Z</time>
      </trkpt>
      <trkpt lat="39.698785962536931" lon="-0.341594992205501">
        <ele>93.390000000000001</ele>
        <time>2025-05-13T11:25:37Z</time>
      </trkpt>
      <trkpt lat="39.698807001113892" lon="-0.341489966958761">
        <ele>93.390000000000001</ele>
        <time>2025-05-13T11:25:38Z</time>
      </trkpt>
      <trkpt lat="39.69882502220571" lon="-0.341397011652589">
        <ele>93.390000000000001</ele>
        <time>2025-05-13T11:25:39Z</time>
      </trkpt>
      <trkpt lat="39.698838014155626" lon="-0.341328028589487">
        <ele>93.390000000000001</ele>
        <time>2025-05-13T11:25:40Z</time>
      </trkpt>
      <trkpt lat="39.698860980570316" lon="-0.341198025271297">
        <ele>93.390000000000001</ele>
        <time>2025-05-13T11:25:41Z</time>
      </trkpt>
      <trkpt lat="39.698842959478498" lon="-0.341169023886323">
        <ele>92.900000000000006</ele>
        <time>2025-05-13T11:25:42Z</time>
      </trkpt>
      <trkpt lat="39.698797026649117" lon="-0.341090988367796">
        <ele>93.390000000000001</ele>
        <time>2025-05-13T11:25:43Z</time>
      </trkpt>
      <trkpt lat="39.69880498945713" lon="-0.341067016124725">
        <ele>93.390000000000001</ele>
        <time>2025-05-13T11:25:44Z</time>
      </trkpt>
      <trkpt lat="39.698828039690852" lon="-0.340998033061624">
        <ele>93.390000000000001</ele>
        <time>2025-05-13T11:25:45Z</time>
      </trkpt>
      <trkpt lat="39.699001964181662" lon="-0.340843973681331">
        <ele>93.390000000000001</ele>
        <time>2025-05-13T11:25:48Z</time>
      </trkpt>
      <trkpt lat="39.699013028293848" lon="-0.340779013931751">
        <ele>93.390000000000001</ele>
        <time>2025-05-13T11:25:49Z</time>
      </trkpt>
      <trkpt lat="39.699024008587003" lon="-0.340716987848282">
        <ele>93.390000000000001</ele>
        <time>2025-05-13T11:25:50Z</time>
      </trkpt>
      <trkpt lat="39.699032977223396" lon="-0.340662002563477">
        <ele>93.390000000000001</ele>
        <time>2025-05-13T11:25:51Z</time>
      </trkpt>
      <trkpt lat="39.699032977223396" lon="-0.340662002563477">
        <ele>93.390000000000001</ele>
        <time>2025-05-13T11:25:52Z</time>
      </trkpt>
      <trkpt lat="39.699032977223396" lon="-0.340662002563477">
        <ele>93.390000000000001</ele>
        <time>2025-05-13T11:25:53Z</time>
      </trkpt>
      <trkpt lat="39.699032977223396" lon="-0.340662002563477">
        <ele>92.900000000000006</ele>
        <time>2025-05-13T11:26:10Z</time>
      </trkpt>
      <trkpt lat="39.699003975838423" lon="-0.340535016730428">
        <ele>101.56</ele>
        <time>2025-05-13T11:38:38Z</time>
      </trkpt>
      <trkpt lat="39.69891102053225" lon="-0.340581033378839">
        <ele>124.63</ele>
        <time>2025-05-13T11:39:21Z</time>
      </trkpt>
      <trkpt lat="39.69891102053225" lon="-0.340564018115401">
        <ele>117.90000000000001</ele>
        <time>2025-05-13T11:40:19Z</time>
      </trkpt>
      <trkpt lat="39.698915965855122" lon="-0.340567035600543">
        <ele>117.42</ele>
        <time>2025-05-13T11:41:03Z</time>
      </trkpt>
      <trkpt lat="39.698919989168644" lon="-0.340566029772162">
        <ele>116.94</ele>
        <time>2025-05-13T11:41:55Z</time>
      </trkpt>
      <trkpt lat="39.698926024138927" lon="-0.340570975095034">
        <ele>115.98</ele>
        <time>2025-05-13T11:42:47Z</time>
      </trkpt>
      <trkpt lat="39.69893298111856" lon="-0.340572986751795">
        <ele>115.5</ele>
        <time>2025-05-13T11:43:05Z</time>
      </trkpt>
      <trkpt lat="39.699044041335583" lon="-0.340640963986516">
        <ele>115.01000000000001</ele>
        <time>2025-05-13T11:43:14Z</time>
      </trkpt>
      <trkpt lat="39.699063990265131" lon="-0.34060500562191">
        <ele>113.09</ele>
        <time>2025-05-13T11:43:15Z</time>
      </trkpt>
      <trkpt lat="39.699032977223396" lon="-0.340662002563477">
        <ele>111.65000000000001</ele>
        <time>2025-05-13T11:43:17Z</time>
      </trkpt>
      <trkpt lat="39.699032977223396" lon="-0.340662002563477">
        <ele>110.69</ele>
        <time>2025-05-13T11:43:18Z</time>
      </trkpt>
      <trkpt lat="39.699032977223396" lon="-0.340662002563477">
        <ele>110.20999999999999</ele>
        <time>2025-05-13T11:43:19Z</time>
      </trkpt>
      <trkpt lat="39.699032977223396" lon="-0.340662002563477">
        <ele>109.25</ele>
        <time>2025-05-13T11:43:39Z</time>
      </trkpt>
      <trkpt lat="39.6990189794451" lon="-0.340743977576494">
        <ele>107.31999999999999</ele>
        <time>2025-05-13T11:44:18Z</time>
      </trkpt>
      <trkpt lat="39.699004981666803" lon="-0.340829975903034">
        <ele>107.31999999999999</ele>
        <time>2025-05-13T11:44:19Z</time>
      </trkpt>
      <trkpt lat="39.699054015800357" lon="-0.341004990041256">
        <ele>106.84</ele>
        <time>2025-05-13T11:44:20Z</time>
      </trkpt>
      <trkpt lat="39.699101038277149" lon="-0.341200036928058">
        <ele>106.36</ele>
        <time>2025-05-13T11:44:22Z</time>
      </trkpt>
      <trkpt lat="39.699131967499852" lon="-0.341332973912358">
        <ele>105.88</ele>
        <time>2025-05-13T11:44:23Z</time>
      </trkpt>
      <trkpt lat="39.699201034381986" lon="-0.341463983058929">
        <ele>105.40000000000001</ele>
        <time>2025-05-13T11:44:24Z</time>
      </trkpt>
      <trkpt lat="39.699286026880145" lon="-0.34159398637712">
        <ele>104.92</ele>
        <time>2025-05-13T11:44:25Z</time>
      </trkpt>
      <trkpt lat="39.699375964701176" lon="-0.341732036322355">
        <ele>104.44</ele>
        <time>2025-05-13T11:44:26Z</time>
      </trkpt>
      <trkpt lat="39.700426971539855" lon="-0.343040032312274">
        <ele>101.56</ele>
        <time>2025-05-13T11:44:35Z</time>
      </trkpt>
      <trkpt lat="39.701806968078017" lon="-0.34445003606379">
        <ele>103</ele>
        <time>2025-05-13T11:44:45Z</time>
      </trkpt>
      <trkpt lat="39.702791003510356" lon="-0.345242964103818">
        <ele>106.84</ele>
        <time>2025-05-13T11:44:53Z</time>
      </trkpt>
      <trkpt lat="39.703985005617142" lon="-0.346059026196599">
        <ele>109.25</ele>
        <time>2025-05-13T11:45:02Z</time>
      </trkpt>
      <trkpt lat="39.705285960808396" lon="-0.346967037767172">
        <ele>111.17</ele>
        <time>2025-05-13T11:45:12Z</time>
      </trkpt>
      <trkpt lat="39.706380972638726" lon="-0.347700035199523">
        <ele>115.5</ele>
        <time>2025-05-13T11:45:23Z</time>
      </trkpt>
      <trkpt lat="39.706799983978271" lon="-0.347958030179143">
        <ele>118.86</ele>
        <time>2025-05-13T11:45:30Z</time>
      </trkpt>
      <trkpt lat="39.706779029220343" lon="-0.3480189666152">
        <ele>119.34</ele>
        <time>2025-05-13T11:45:31Z</time>
      </trkpt>
      <trkpt lat="39.706779029220343" lon="-0.348064983263612">
        <ele>120.3</ele>
        <time>2025-05-13T11:45:32Z</time>
      </trkpt>
      <trkpt lat="39.706761008128524" lon="-0.348098007962108">
        <ele>120.78</ele>
        <time>2025-05-13T11:45:33Z</time>
      </trkpt>
      <trkpt lat="39.706739969551563" lon="-0.348135977983475">
        <ele>120.78</ele>
        <time>2025-05-13T11:45:34Z</time>
      </trkpt>
      <trkpt lat="39.706725971773267" lon="-0.348162967711687">
        <ele>120.78</ele>
        <time>2025-05-13T11:45:35Z</time>
      </trkpt>
      <trkpt lat="39.706637961789966" lon="-0.348292971029878">
        <ele>121.26000000000001</ele>
        <time>2025-05-13T11:45:36Z</time>
      </trkpt>
      <trkpt lat="39.706614995375276" lon="-0.348277967423201">
        <ele>121.26000000000001</ele>
        <time>2025-05-13T11:45:37Z</time>
      </trkpt>
      <trkpt lat="39.70658197067678" lon="-0.348257012665272">
        <ele>121.73999999999999</ele>
        <time>2025-05-13T11:45:39Z</time>
      </trkpt>
      <trkpt lat="39.70658197067678" lon="-0.348257012665272">
        <ele>119.81999999999999</ele>
        <time>2025-05-13T11:45:51Z</time>
      </trkpt>
      <trkpt lat="39.70658197067678" lon="-0.348257012665272">
        <ele>118.86</ele>
        <time>2025-05-13T11:46:38Z</time>
      </trkpt>
      <trkpt lat="39.706583982333541" lon="-0.348036987707019">
        <ele>107.81</ele>
        <time>2025-05-13T11:50:02Z</time>
      </trkpt>
      <trkpt lat="39.706661012023687" lon="-0.347948977723718">
        <ele>104.92</ele>
        <time>2025-05-13T11:50:32Z</time>
      </trkpt>
      <trkpt lat="39.70668900758028" lon="-0.348033970221877">
        <ele>98.670000000000002</ele>
        <time>2025-05-13T11:51:22Z</time>
      </trkpt>
      <trkpt lat="39.706651037558913" lon="-0.348012009635568">
        <ele>96.75</ele>
        <time>2025-05-13T11:52:07Z</time>
      </trkpt>
      <trkpt lat="39.706694036722183" lon="-0.348005974665284">
        <ele>103</ele>
        <time>2025-05-13T11:52:36Z</time>
      </trkpt>
      <trkpt lat="39.706694036722183" lon="-0.348005974665284">
        <ele>103</ele>
        <time>2025-05-13T11:53:04Z</time>
      </trkpt>
      <trkpt lat="39.706690013408661" lon="-0.348013015463948">
        <ele>102.52</ele>
        <time>2025-05-13T11:53:32Z</time>
      </trkpt>
      <trkpt lat="39.706686995923519" lon="-0.348013015463948">
        <ele>102.52</ele>
        <time>2025-05-13T11:53:52Z</time>
      </trkpt>
      <trkpt lat="39.706755978986621" lon="-0.348045034334064">
        <ele>106.36</ele>
        <time>2025-05-13T11:54:07Z</time>
      </trkpt>
      <trkpt lat="39.706755978986621" lon="-0.348045034334064">
        <ele>106.36</ele>
        <time>2025-05-13T11:54:08Z</time>
      </trkpt>
      <trkpt lat="39.706779029220343" lon="-0.347935985773802">
        <ele>103.95999999999999</ele>
        <time>2025-05-13T11:54:12Z</time>
      </trkpt>
      <trkpt lat="39.706734018400311" lon="-0.347911007702351">
        <ele>103</ele>
        <time>2025-05-13T11:54:13Z</time>
      </trkpt>
      <trkpt lat="39.706677021458745" lon="-0.347878988832235">
        <ele>102.04000000000001</ele>
        <time>2025-05-13T11:54:14Z</time>
      </trkpt>
      <trkpt lat="39.706585993990302" lon="-0.347829032689333">
        <ele>101.08</ele>
        <time>2025-05-13T11:54:15Z</time>
      </trkpt>
      <trkpt lat="39.705826006829739" lon="-0.347346989437938">
        <ele>97.230000000000004</ele>
        <time>2025-05-13T11:54:21Z</time>
      </trkpt>
      <trkpt lat="39.704434024170041" lon="-0.346375023946166">
        <ele>93.390000000000001</ele>
        <time>2025-05-13T11:54:29Z</time>
      </trkpt>
      <trkpt lat="39.702165964990854" lon="-0.344789000228047">
        <ele>91.459999999999994</ele>
        <time>2025-05-13T11:54:41Z</time>
      </trkpt>
      <trkpt lat="39.700969029217958" lon="-0.343615030869842">
        <ele>91.939999999999998</ele>
        <time>2025-05-13T11:54:48Z</time>
      </trkpt>
      <trkpt lat="39.699648041278124" lon="-0.342107964679599">
        <ele>92.420000000000002</ele>
        <time>2025-05-13T11:54:57Z</time>
      </trkpt>
      <trkpt lat="39.69908201135695" lon="-0.341326016932726">
        <ele>92.900000000000006</ele>
        <time>2025-05-13T11:55:03Z</time>
      </trkpt>
      <trkpt lat="39.699030965566635" lon="-0.341288968920708">
        <ele>92.900000000000006</ele>
        <time>2025-05-13T11:55:04Z</time>
      </trkpt>
      <trkpt lat="39.698968017473817" lon="-0.341241024434567">
        <ele>92.900000000000006</ele>
        <time>2025-05-13T11:55:05Z</time>
      </trkpt>
      <trkpt lat="39.698917977511883" lon="-0.34131302498281">
        <ele>93.390000000000001</ele>
        <time>2025-05-13T11:55:06Z</time>
      </trkpt>
      <trkpt lat="39.698888976126909" lon="-0.341387037187815">
        <ele>93.390000000000001</ele>
        <time>2025-05-13T11:55:07Z</time>
      </trkpt>
      <trkpt lat="39.698852011933923" lon="-0.341478986665607">
        <ele>92.900000000000006</ele>
        <time>2025-05-13T11:55:08Z</time>
      </trkpt>
      <trkpt lat="39.698817981407046" lon="-0.341562973335385">
        <ele>92.420000000000002</ele>
        <time>2025-05-13T11:55:09Z</time>
      </trkpt>
      <trkpt lat="39.698774982243776" lon="-0.341648971661925">
        <ele>92.420000000000002</ele>
        <time>2025-05-13T11:55:10Z</time>
      </trkpt>
      <trkpt lat="39.69871899113059" lon="-0.341790961101651">
        <ele>92.420000000000002</ele>
        <time>2025-05-13T11:55:11Z</time>
      </trkpt>
      <trkpt lat="39.69867498613894" lon="-0.341900009661913">
        <ele>92.420000000000002</ele>
        <time>2025-05-13T11:55:12Z</time>
      </trkpt>
      <trkpt lat="39.698486980050802" lon="-0.342378029599786">
        <ele>93.390000000000001</ele>
        <time>2025-05-13T11:55:17Z</time>
      </trkpt>
      <trkpt lat="39.698474993929267" lon="-0.342571986839175">
        <ele>93.870000000000005</ele>
        <time>2025-05-13T11:55:18Z</time>
      </trkpt>
      <trkpt lat="39.698496032506227" lon="-0.342614986002445">
        <ele>94.829999999999998</ele>
        <time>2025-05-13T11:55:19Z</time>
      </trkpt>
      <trkpt lat="39.698601979762316" lon="-0.342694027349353">
        <ele>95.310000000000002</ele>
        <time>2025-05-13T11:55:20Z</time>
      </trkpt>
      <trkpt lat="39.698693007230759" lon="-0.342762004584074">
        <ele>95.310000000000002</ele>
        <time>2025-05-13T11:55:21Z</time>
      </trkpt>
      <trkpt lat="39.698802977800369" lon="-0.342822019010782">
        <ele>95.790000000000006</ele>
        <time>2025-05-13T11:55:22Z</time>
      </trkpt>
      <trkpt lat="39.699206985533237" lon="-0.343012036755681">
        <ele>97.709999999999994</ele>
        <time>2025-05-13T11:55:25Z</time>
      </trkpt>
      <trkpt lat="39.699296001344919" lon="-0.343142040073872">
        <ele>98.189999999999998</ele>
        <time>2025-05-13T11:55:26Z</time>
      </trkpt>
      <trkpt lat="39.699376970529556" lon="-0.343281012028456">
        <ele>99.150000000000006</ele>
        <time>2025-05-13T11:55:27Z</time>
      </trkpt>
      <trkpt lat="39.699461963027716" lon="-0.343429958447814">
        <ele>100.11</ele>
        <time>2025-05-13T11:55:28Z</time>
      </trkpt>
      <trkpt lat="39.699484007433057" lon="-0.343616036698222">
        <ele>101.08</ele>
        <time>2025-05-13T11:55:29Z</time>
      </trkpt>
      <trkpt lat="39.699507979676127" lon="-0.343820974230766">
        <ele>102.04000000000001</ele>
        <time>2025-05-13T11:55:30Z</time>
      </trkpt>
      <trkpt lat="39.69953304156661" lon="-0.344034964218736">
        <ele>103</ele>
        <time>2025-05-13T11:55:31Z</time>
      </trkpt>
      <trkpt lat="39.699559025466442" lon="-0.34425700083375">
        <ele>104.44</ele>
        <time>2025-05-13T11:55:32Z</time>
      </trkpt>
      <trkpt lat="39.699585009366274" lon="-0.34447300247848">
        <ele>105.88</ele>
        <time>2025-05-13T11:55:33Z</time>
      </trkpt>
      <trkpt lat="39.699653992429376" lon="-0.344651034101844">
        <ele>106.84</ele>
        <time>2025-05-13T11:55:34Z</time>
      </trkpt>
      <trkpt lat="39.699754994362593" lon="-0.344802998006344">
        <ele>108.29000000000001</ele>
        <time>2025-05-13T11:55:35Z</time>
      </trkpt>
      <trkpt lat="39.69987996853888" lon="-0.344943981617689">
        <ele>108.77</ele>
        <time>2025-05-13T11:55:36Z</time>
      </trkpt>
      <trkpt lat="39.700016006827354" lon="-0.345098963007331">
        <ele>109.73</ele>
        <time>2025-05-13T11:55:37Z</time>
      </trkpt>
      <trkpt lat="39.7012759745121" lon="-0.346280978992581">
        <ele>114.05</ele>
        <time>2025-05-13T11:55:44Z</time>
      </trkpt>
      <trkpt lat="39.702892005443573" lon="-0.347707998007536">
        <ele>116.94</ele>
        <time>2025-05-13T11:55:51Z</time>
      </trkpt>
      <trkpt lat="39.704897040501237" lon="-0.349231995642185">
        <ele>119.81999999999999</ele>
        <time>2025-05-13T11:55:59Z</time>
      </trkpt>
      <trkpt lat="39.70713802613318" lon="-0.350159034132957">
        <ele>124.15000000000001</ele>
        <time>2025-05-13T11:56:07Z</time>
      </trkpt>
      <trkpt lat="39.70900802873075" lon="-0.351256979629397">
        <ele>127.98999999999999</ele>
        <time>2025-05-13T11:56:14Z</time>
      </trkpt>
      <trkpt lat="39.711635001003742" lon="-0.353362010791898">
        <ele>133.28</ele>
        <time>2025-05-13T11:56:25Z</time>
      </trkpt>
      <trkpt lat="39.711816972121596" lon="-0.353608019649982">
        <ele>133.75999999999999</ele>
        <time>2025-05-13T11:56:26Z</time>
      </trkpt>
      <trkpt lat="39.711986035108566" lon="-0.353867020457983">
        <ele>134.24000000000001</ele>
        <time>2025-05-13T11:56:27Z</time>
      </trkpt>
      <trkpt lat="39.71214503981173" lon="-0.354144964367151">
        <ele>134.72</ele>
        <time>2025-05-13T11:56:28Z</time>
      </trkpt>
      <trkpt lat="39.712289962917566" lon="-0.354429027065635">
        <ele>135.68000000000001</ele>
        <time>2025-05-13T11:56:29Z</time>
      </trkpt>
      <trkpt lat="39.712412003427744" lon="-0.354741001501679">
        <ele>136.16</ele>
        <time>2025-05-13T11:56:30Z</time>
      </trkpt>
      <trkpt lat="39.712820034474134" lon="-0.356431966647506">
        <ele>139.05000000000001</ele>
        <time>2025-05-13T11:56:35Z</time>
      </trkpt>
      <trkpt lat="39.71296101808548" lon="-0.35938398912549">
        <ele>141.44999999999999</ele>
        <time>2025-05-13T11:56:43Z</time>
      </trkpt>
      <trkpt lat="39.713146006688476" lon="-0.361628998070955">
        <ele>143.37</ele>
        <time>2025-05-13T11:56:49Z</time>
      </trkpt>
      <trkpt lat="39.713239967823029" lon="-0.361979026347399">
        <ele>143.37</ele>
        <time>2025-05-13T11:56:50Z</time>
      </trkpt>
      <trkpt lat="39.713344993069768" lon="-0.3623260371387">
        <ele>143.84999999999999</ele>
        <time>2025-05-13T11:56:51Z</time>
      </trkpt>
      <trkpt lat="39.713474996387959" lon="-0.362665001302958">
        <ele>143.84999999999999</ele>
        <time>2025-05-13T11:56:52Z</time>
      </trkpt>
      <trkpt lat="39.71360701136291" lon="-0.363006982952356">
        <ele>144.34</ele>
        <time>2025-05-13T11:56:53Z</time>
      </trkpt>
      <trkpt lat="39.714571014046669" lon="-0.364418998360634">
        <ele>147.22</ele>
        <time>2025-05-13T11:56:58Z</time>
      </trkpt>
      <trkpt lat="39.716430036351085" lon="-0.366304004564881">
        <ele>152.50999999999999</ele>
        <time>2025-05-13T11:57:06Z</time>
      </trkpt>
      <trkpt lat="39.716695994138718" lon="-0.366491004824638">
        <ele>152.99000000000001</ele>
        <time>2025-05-13T11:57:07Z</time>
      </trkpt>
      <trkpt lat="39.716981984674931" lon="-0.366612039506435">
        <ele>152.99000000000001</ele>
        <time>2025-05-13T11:57:08Z</time>
      </trkpt>
      <trkpt lat="39.717265963554382" lon="-0.366719998419285">
        <ele>153.47</ele>
        <time>2025-05-13T11:57:09Z</time>
      </trkpt>
      <trkpt lat="39.717552959918976" lon="-0.36679401062429">
        <ele>153.47</ele>
        <time>2025-05-13T11:57:10Z</time>
      </trkpt>
      <trkpt lat="39.717843979597092" lon="-0.366852013394237">
        <ele>153.94999999999999</ele>
        <time>2025-05-13T11:57:11Z</time>
      </trkpt>
      <trkpt lat="39.719596970826387" lon="-0.366949997842312">
        <ele>155.87</ele>
        <time>2025-05-13T11:57:17Z</time>
      </trkpt>
      <trkpt lat="39.720764989033341" lon="-0.367149990051985">
        <ele>157.31</ele>
        <time>2025-05-13T11:57:21Z</time>
      </trkpt>
      <trkpt lat="39.721043016761541" lon="-0.367280999198556">
        <ele>158.27000000000001</ele>
        <time>2025-05-13T11:57:22Z</time>
      </trkpt>
      <trkpt lat="39.723177971318364" lon="-0.368623025715351">
        <ele>160.68000000000001</ele>
        <time>2025-05-13T11:57:30Z</time>
      </trkpt>
      <trkpt lat="39.725819025188684" lon="-0.370354978367686">
        <ele>164.03999999999999</ele>
        <time>2025-05-13T11:57:40Z</time>
      </trkpt>
      <trkpt lat="39.729289971292019" lon="-0.37255103699863">
        <ele>172.21000000000001</ele>
        <time>2025-05-13T11:57:53Z</time>
      </trkpt>
      <trkpt lat="39.729567999020219" lon="-0.372676011174917">
        <ele>172.69</ele>
        <time>2025-05-13T11:57:54Z</time>
      </trkpt>
      <trkpt lat="39.72984803840518" lon="-0.372782964259386">
        <ele>173.16999999999999</ele>
        <time>2025-05-13T11:57:55Z</time>
      </trkpt>
      <trkpt lat="39.731901017948985" lon="-0.372937023639679">
        <ele>176.06</ele>
        <time>2025-05-13T11:58:02Z</time>
      </trkpt>
      <trkpt lat="39.733575973659754" lon="-0.372272003442049">
        <ele>179.41999999999999</ele>
        <time>2025-05-13T11:58:08Z</time>
      </trkpt>
      <trkpt lat="39.735870016738772" lon="-0.370561005547643">
        <ele>184.71000000000001</ele>
        <time>2025-05-13T11:58:17Z</time>
      </trkpt>
      <trkpt lat="39.737408012151718" lon="-0.369445038959384">
        <ele>192.88</ele>
        <time>2025-05-13T11:58:30Z</time>
      </trkpt>
      <trkpt lat="39.74136795848608" lon="-0.368248019367456">
        <ele>197.21000000000001</ele>
        <time>2025-05-13T11:58:37Z</time>
      </trkpt>
      <trkpt lat="39.743419010192156" lon="-0.368755962699652">
        <ele>199.13</ele>
        <time>2025-05-13T11:58:44Z</time>
      </trkpt>
      <trkpt lat="39.745259005576372" lon="-0.369995981454849">
        <ele>198.16999999999999</ele>
        <time>2025-05-13T11:58:51Z</time>
      </trkpt>
      <trkpt lat="39.747087014839053" lon="-0.371941002085805">
        <ele>201.53</ele>
        <time>2025-05-13T11:58:59Z</time>
      </trkpt>
      <trkpt lat="39.749992014840245" lon="-0.375146996229887">
        <ele>210.66999999999999</ele>
        <time>2025-05-13T11:59:12Z</time>
      </trkpt>
      <trkpt lat="39.752692999318242" lon="-0.378056019544601">
        <ele>217.40000000000001</ele>
        <time>2025-05-13T11:59:24Z</time>
      </trkpt>
      <trkpt lat="39.755196003243327" lon="-0.380840990692377">
        <ele>225.56999999999999</ele>
        <time>2025-05-13T11:59:35Z</time>
      </trkpt>
      <trkpt lat="39.758040988817811" lon="-0.384200038388371">
        <ele>243.83000000000001</ele>
        <time>2025-05-13T11:59:48Z</time>
      </trkpt>
      <trkpt lat="39.759857011958957" lon="-0.387249961495399">
        <ele>257.29000000000002</ele>
        <time>2025-05-13T11:59:58Z</time>
      </trkpt>
      <trkpt lat="39.761165007948875" lon="-0.389167992398143">
        <ele>258.25</ele>
        <time>2025-05-13T12:00:05Z</time>
      </trkpt>
      <trkpt lat="39.762412989512086" lon="-0.38995698094368">
        <ele>255.37</ele>
        <time>2025-05-13T12:00:10Z</time>
      </trkpt>
      <trkpt lat="39.763802038505673" lon="-0.390137024223804">
        <ele>251.52000000000001</ele>
        <time>2025-05-13T12:00:15Z</time>
      </trkpt>
      <trkpt lat="39.765206007286906" lon="-0.389729999005795">
        <ele>246.72</ele>
        <time>2025-05-13T12:00:20Z</time>
      </trkpt>
      <trkpt lat="39.767685038968921" lon="-0.388866998255253">
        <ele>239.50999999999999</ele>
        <time>2025-05-13T12:00:29Z</time>
      </trkpt>
      <trkpt lat="39.768255008384585" lon="-0.388813018798828">
        <ele>238.06</ele>
        <time>2025-05-13T12:00:38Z</time>
      </trkpt>
      <trkpt lat="39.774489970877767" lon="-0.391076970845461">
        <ele>247.68000000000001</ele>
        <time>2025-05-13T12:00:53Z</time>
      </trkpt>
      <trkpt lat="39.776992974802852" lon="-0.392137030139565">
        <ele>256.32999999999998</ele>
        <time>2025-05-13T12:01:02Z</time>
      </trkpt>
      <trkpt lat="39.778678994625807" lon="-0.392851000651717">
        <ele>263.06</ele>
        <time>2025-05-13T12:01:08Z</time>
      </trkpt>
      <trkpt lat="39.78156303986907" lon="-0.394083978608251">
        <ele>275.56</ele>
        <time>2025-05-13T12:01:18Z</time>
      </trkpt>
      <trkpt lat="39.78412396274507" lon="-0.395173961296678">
        <ele>277.95999999999998</ele>
        <time>2025-05-13T12:01:27Z</time>
      </trkpt>
      <trkpt lat="39.786665020510554" lon="-0.396298980340362">
        <ele>265.94</ele>
        <time>2025-05-13T12:01:36Z</time>
      </trkpt>
      <trkpt lat="39.7893410269171" lon="-0.397935966029763">
        <ele>251.03999999999999</ele>
        <time>2025-05-13T12:01:46Z</time>
      </trkpt>
      <trkpt lat="39.790757987648249" lon="-0.399009017273784">
        <ele>243.34999999999999</ele>
        <time>2025-05-13T12:01:52Z</time>
      </trkpt>
      <trkpt lat="39.792708959430456" lon="-0.400636028498411">
        <ele>230.84999999999999</ele>
        <time>2025-05-13T12:02:00Z</time>
      </trkpt>
      <trkpt lat="39.794474020600319" lon="-0.402185004204512">
        <ele>227.00999999999999</ele>
        <time>2025-05-13T12:02:08Z</time>
      </trkpt>
      <trkpt lat="39.795543970540166" lon="-0.40366399101913">
        <ele>230.37</ele>
        <time>2025-05-13T12:02:14Z</time>
      </trkpt>
      <trkpt lat="39.796171020716429" lon="-0.405603982508183">
        <ele>233.25999999999999</ele>
        <time>2025-05-13T12:02:20Z</time>
      </trkpt>
      <trkpt lat="39.796591959893703" lon="-0.408810982480645">
        <ele>235.66</ele>
        <time>2025-05-13T12:02:29Z</time>
      </trkpt>
      <trkpt lat="39.797084983438253" lon="-0.412642015144229">
        <ele>241.43000000000001</ele>
        <time>2025-05-13T12:02:40Z</time>
      </trkpt>
      <trkpt lat="39.797608014196157" lon="-0.415321039035916">
        <ele>247.19999999999999</ele>
        <time>2025-05-13T12:02:48Z</time>
      </trkpt>
      <trkpt lat="39.798521976917982" lon="-0.417090961709619">
        <ele>249.59999999999999</ele>
        <time>2025-05-13T12:02:54Z</time>
      </trkpt>
      <trkpt lat="39.799622017890215" lon="-0.41820902377367">
        <ele>252.96000000000001</ele>
        <time>2025-05-13T12:02:59Z</time>
      </trkpt>
      <trkpt lat="39.801328992471099" lon="-0.419205967336893">
        <ele>256.32999999999998</ele>
        <time>2025-05-13T12:03:06Z</time>
      </trkpt>
      <trkpt lat="39.803698975592852" lon="-0.420698029920459">
        <ele>258.25</ele>
        <time>2025-05-13T12:03:16Z</time>
      </trkpt>
      <trkpt lat="39.804732967168093" lon="-0.422180034220219">
        <ele>263.54000000000002</ele>
        <time>2025-05-13T12:03:22Z</time>
      </trkpt>
      <trkpt lat="39.805506030097604" lon="-0.424554962664843">
        <ele>275.56</ele>
        <time>2025-05-13T12:03:30Z</time>
      </trkpt>
      <trkpt lat="39.805888999253511" lon="-0.427095014601946">
        <ele>282.27999999999997</ele>
        <time>2025-05-13T12:03:38Z</time>
      </trkpt>
      <trkpt lat="39.806534992530942" lon="-0.428907014429569">
        <ele>284.69</ele>
        <time>2025-05-13T12:03:44Z</time>
      </trkpt>
      <trkpt lat="39.806675976142287" lon="-0.429181018844247">
        <ele>285.64999999999998</ele>
        <time>2025-05-13T12:03:45Z</time>
      </trkpt>
      <trkpt lat="39.807824967429042" lon="-0.430448027327657">
        <ele>291.42000000000002</ele>
        <time>2025-05-13T12:03:51Z</time>
      </trkpt>
      <trkpt lat="39.809505036100745" lon="-0.43125101365149">
        <ele>300.06999999999999</ele>
        <time>2025-05-13T12:03:58Z</time>
      </trkpt>
      <trkpt lat="39.811162976548076" lon="-0.432123988866806">
        <ele>307.27999999999997</ele>
        <time>2025-05-13T12:04:05Z</time>
      </trkpt>
      <trkpt lat="39.812326971441507" lon="-0.433360990136862">
        <ele>309.19999999999999</ele>
        <time>2025-05-13T12:04:11Z</time>
      </trkpt>
      <trkpt lat="39.814815977588296" lon="-0.436653988435864">
        <ele>303.91000000000003</ele>
        <time>2025-05-13T12:04:25Z</time>
      </trkpt>
      <trkpt lat="39.815548975020647" lon="-0.43842701241374">
        <ele>300.55000000000001</ele>
        <time>2025-05-13T12:04:31Z</time>
      </trkpt>
      <trkpt lat="39.816255988553166" lon="-0.441052978858352">
        <ele>295.74000000000001</ele>
        <time>2025-05-13T12:04:39Z</time>
      </trkpt>
      <trkpt lat="39.81718797236681" lon="-0.442781997844577">
        <ele>292.38</ele>
        <time>2025-05-13T12:04:45Z</time>
      </trkpt>
      <trkpt lat="39.819438010454178" lon="-0.446152025833726">
        <ele>290.45999999999998</ele>
        <time>2025-05-13T12:04:58Z</time>
      </trkpt>
      <trkpt lat="39.82086100615561" lon="-0.448533995077014">
        <ele>298.14999999999998</ele>
        <time>2025-05-13T12:05:07Z</time>
      </trkpt>
      <trkpt lat="39.821922993287444" lon="-0.450742961838841">
        <ele>307.27999999999997</ele>
        <time>2025-05-13T12:05:15Z</time>
      </trkpt>
      <trkpt lat="39.823920987546444" lon="-0.454766023904085">
        <ele>314.97000000000003</ele>
        <time>2025-05-13T12:05:30Z</time>
      </trkpt>
      <trkpt lat="39.826093995943666" lon="-0.458147032186389">
        <ele>318.32999999999998</ele>
        <time>2025-05-13T12:05:44Z</time>
      </trkpt>
      <trkpt lat="39.827781021595001" lon="-0.461112968623638">
        <ele>315.44999999999999</ele>
        <time>2025-05-13T12:05:56Z</time>
      </trkpt>
      <trkpt lat="39.829116007313132" lon="-0.463598035275936">
        <ele>311.60000000000002</ele>
        <time>2025-05-13T12:06:05Z</time>
      </trkpt>
      <trkpt lat="39.831280969083309" lon="-0.46786199323833">
        <ele>312.08999999999997</ele>
        <time>2025-05-13T12:06:20Z</time>
      </trkpt>
      <trkpt lat="39.831800982356071" lon="-0.470116976648569">
        <ele>317.85000000000002</ele>
        <time>2025-05-13T12:06:27Z</time>
      </trkpt>
      <trkpt lat="39.831865020096302" lon="-0.472488971427083">
        <ele>324.57999999999998</ele>
        <time>2025-05-13T12:06:34Z</time>
      </trkpt>
      <trkpt lat="39.831748008728027" lon="-0.476035019382834">
        <ele>334.19999999999999</ele>
        <time>2025-05-13T12:06:44Z</time>
      </trkpt>
      <trkpt lat="39.831856973469257" lon="-0.480265030637383">
        <ele>334.68000000000001</ele>
        <time>2025-05-13T12:06:55Z</time>
      </trkpt>
      <trkpt lat="39.832496009767056" lon="-0.483231972903013">
        <ele>330.35000000000002</ele>
        <time>2025-05-13T12:07:03Z</time>
      </trkpt>
      <trkpt lat="39.833670984953642" lon="-0.485906973481178">
        <ele>324.10000000000002</ele>
        <time>2025-05-13T12:07:11Z</time>
      </trkpt>
      <trkpt lat="39.835073025897145" lon="-0.487866997718811">
        <ele>322.18000000000001</ele>
        <time>2025-05-13T12:07:18Z</time>
      </trkpt>
      <trkpt lat="39.837477039545774" lon="-0.490112006664276">
        <ele>326.5</ele>
        <time>2025-05-13T12:07:28Z</time>
      </trkpt>
      <trkpt lat="39.839778039604425" lon="-0.491876984015107">
        <ele>331.79000000000002</ele>
        <time>2025-05-13T12:07:37Z</time>
      </trkpt>
      <trkpt lat="39.843533970415592" lon="-0.494706965982914">
        <ele>344.29000000000002</ele>
        <time>2025-05-13T12:07:52Z</time>
      </trkpt>
      <trkpt lat="39.84664399176836" lon="-0.497072003781796">
        <ele>362.06999999999999</ele>
        <time>2025-05-13T12:08:06Z</time>
      </trkpt>
      <trkpt lat="39.849559972062707" lon="-0.499262027442455">
        <ele>372.17000000000002</ele>
        <time>2025-05-13T12:08:17Z</time>
      </trkpt>
      <trkpt lat="39.851941019296646" lon="-0.501316012814641">
        <ele>377.94</ele>
        <time>2025-05-13T12:08:27Z</time>
      </trkpt>
      <trkpt lat="39.853547997772694" lon="-0.503466976806521">
        <ele>387.06999999999999</ele>
        <time>2025-05-13T12:08:35Z</time>
      </trkpt>
      <trkpt lat="39.854816012084484" lon="-0.505875013768673">
        <ele>395.24000000000001</ele>
        <time>2025-05-13T12:08:43Z</time>
      </trkpt>
      <trkpt lat="39.856454003602266" lon="-0.50913498736918">
        <ele>405.81</ele>
        <time>2025-05-13T12:08:54Z</time>
      </trkpt>
      <trkpt lat="39.857827965170145" lon="-0.510553037747741">
        <ele>413.5</ele>
        <time>2025-05-13T12:09:00Z</time>
      </trkpt>
      <trkpt lat="39.859468974173069" lon="-0.511432969942689">
        <ele>422.63999999999999</ele>
        <time>2025-05-13T12:09:06Z</time>
      </trkpt>
      <trkpt lat="39.861982958391309" lon="-0.512548014521599">
        <ele>438.01999999999998</ele>
        <time>2025-05-13T12:09:15Z</time>
      </trkpt>
      <trkpt lat="39.86372496932745" lon="-0.51401199772954">
        <ele>446.67000000000002</ele>
        <time>2025-05-13T12:09:22Z</time>
      </trkpt>
      <trkpt lat="39.86585196107626" lon="-0.51605299115181">
        <ele>454.83999999999997</ele>
        <time>2025-05-13T12:09:31Z</time>
      </trkpt>
      <trkpt lat="39.867773009464145" lon="-0.516968965530396">
        <ele>466.38</ele>
        <time>2025-05-13T12:09:38Z</time>
      </trkpt>
      <trkpt lat="39.871126022189856" lon="-0.518462033942342">
        <ele>488.97000000000003</ele>
        <time>2025-05-13T12:09:50Z</time>
      </trkpt>
      <trkpt lat="39.873215965926647" lon="-0.519895004108548">
        <ele>502.91000000000003</ele>
        <time>2025-05-13T12:09:58Z</time>
      </trkpt>
      <trkpt lat="39.875299958512187" lon="-0.522060971707106">
        <ele>515.88</ele>
        <time>2025-05-13T12:10:07Z</time>
      </trkpt>
      <trkpt lat="39.876677021384239" lon="-0.524087967351079">
        <ele>523.09000000000003</ele>
        <time>2025-05-13T12:10:14Z</time>
      </trkpt>
      <trkpt lat="39.878113009035587" lon="-0.527040995657444">
        <ele>518.76999999999998</ele>
        <time>2025-05-13T12:10:23Z</time>
      </trkpt>
      <trkpt lat="39.879576992243528" lon="-0.530816037207842">
        <ele>501.45999999999998</ele>
        <time>2025-05-13T12:10:34Z</time>
      </trkpt>
      <trkpt lat="39.88142897374928" lon="-0.53564895875752">
        <ele>475.50999999999999</ele>
        <time>2025-05-13T12:10:48Z</time>
      </trkpt>
      <trkpt lat="39.883032012730837" lon="-0.539311012253165">
        <ele>460.61000000000001</ele>
        <time>2025-05-13T12:10:59Z</time>
      </trkpt>
      <trkpt lat="39.884578976780176" lon="-0.541632967069745">
        <ele>453.39999999999998</ele>
        <time>2025-05-13T12:11:07Z</time>
      </trkpt>
      <trkpt lat="39.886228032410145" lon="-0.543262995779514">
        <ele>451.48000000000002</ele>
        <time>2025-05-13T12:11:14Z</time>
      </trkpt>
      <trkpt lat="39.888387965038419" lon="-0.544577026739717">
        <ele>449.55000000000001</ele>
        <time>2025-05-13T12:11:22Z</time>
      </trkpt>
      <trkpt lat="39.890978978946805" lon="-0.545451007783413">
        <ele>447.14999999999998</ele>
        <time>2025-05-13T12:11:31Z</time>
      </trkpt>
      <trkpt lat="39.893899988383055" lon="-0.54619699716568">
        <ele>444.75</ele>
        <time>2025-05-13T12:11:41Z</time>
      </trkpt>
      <trkpt lat="39.898793008178473" lon="-0.547403991222382">
        <ele>462.05000000000001</ele>
        <time>2025-05-13T12:11:58Z</time>
      </trkpt>
      <trkpt lat="39.901406988501549" lon="-0.548049984499812">
        <ele>477.43000000000001</ele>
        <time>2025-05-13T12:12:07Z</time>
      </trkpt>
      <trkpt lat="39.903382016345859" lon="-0.548940980806947">
        <ele>487.52999999999997</ele>
        <time>2025-05-13T12:12:14Z</time>
      </trkpt>
      <trkpt lat="39.905438013374805" lon="-0.550459027290344">
        <ele>494.25999999999999</ele>
        <time>2025-05-13T12:12:22Z</time>
      </trkpt>
      <trkpt lat="39.908163975924253" lon="-0.552777964621782">
        <ele>501.45999999999998</ele>
        <time>2025-05-13T12:12:33Z</time>
      </trkpt>
      <trkpt lat="39.910634960979223" lon="-0.554056959226727">
        <ele>509.63999999999999</ele>
        <time>2025-05-13T12:12:42Z</time>
      </trkpt>
      <trkpt lat="39.913893006742001" lon="-0.555859990417957">
        <ele>519.73000000000002</ele>
        <time>2025-05-13T12:12:54Z</time>
      </trkpt>
      <trkpt lat="39.915791004896164" lon="-0.557687999680638">
        <ele>525.01999999999998</ele>
        <time>2025-05-13T12:13:02Z</time>
      </trkpt>
      <trkpt lat="39.917360013350844" lon="-0.559979025274515">
        <ele>530.29999999999995</ele>
        <time>2025-05-13T12:13:10Z</time>
      </trkpt>
      <trkpt lat="39.918722994625568" lon="-0.562961976975203">
        <ele>535.11000000000001</ele>
        <time>2025-05-13T12:13:19Z</time>
      </trkpt>
      <trkpt lat="39.920494006946683" lon="-0.566496960818768">
        <ele>540.39999999999998</ele>
        <time>2025-05-13T12:13:30Z</time>
      </trkpt>
      <trkpt lat="39.922645976766944" lon="-0.570178963243961">
        <ele>548.09000000000003</ele>
        <time>2025-05-13T12:13:42Z</time>
      </trkpt>
      <trkpt lat="39.923781976103783" lon="-0.573296025395393">
        <ele>555.29999999999995</ele>
        <time>2025-05-13T12:13:51Z</time>
      </trkpt>
      <trkpt lat="39.924546992406249" lon="-0.576593969017267">
        <ele>566.35000000000002</ele>
        <time>2025-05-13T12:14:00Z</time>
      </trkpt>
      <trkpt lat="39.925510995090008" lon="-0.579384975135326">
        <ele>576.92999999999995</ele>
        <time>2025-05-13T12:14:08Z</time>
      </trkpt>
      <trkpt lat="39.926636014133692" lon="-0.581173002719879">
        <ele>585.10000000000002</ele>
        <time>2025-05-13T12:14:14Z</time>
      </trkpt>
      <trkpt lat="39.928326979279518" lon="-0.582745028659701">
        <ele>593.75</ele>
        <time>2025-05-13T12:14:21Z</time>
      </trkpt>
      <trkpt lat="39.931564992293715" lon="-0.585479959845543">
        <ele>607.21000000000004</ele>
        <time>2025-05-13T12:14:34Z</time>
      </trkpt>
      <trkpt lat="39.932758994400501" lon="-0.587172014638782">
        <ele>613.46000000000004</ele>
        <time>2025-05-13T12:14:40Z</time>
      </trkpt>
      <trkpt lat="39.933778988197446" lon="-0.589490029960871">
        <ele>619.71000000000004</ele>
        <time>2025-05-13T12:14:47Z</time>
      </trkpt>
      <trkpt lat="39.934383993968368" lon="-0.592438029125333">
        <ele>627.88</ele>
        <time>2025-05-13T12:14:55Z</time>
      </trkpt>
      <trkpt lat="39.935005009174347" lon="-0.596567038446665">
        <ele>639.40999999999997</ele>
        <time>2025-05-13T12:15:06Z</time>
      </trkpt>
      <trkpt lat="39.935980997979641" lon="-0.601400965824723">
        <ele>655.27999999999997</ele>
        <time>2025-05-13T12:15:19Z</time>
      </trkpt>
      <trkpt lat="39.937197966501117" lon="-0.605725022032857">
        <ele>667.28999999999996</ele>
        <time>2025-05-13T12:15:31Z</time>
      </trkpt>
      <trkpt lat="39.93870796635747" lon="-0.609910022467375">
        <ele>679.30999999999995</ele>
        <time>2025-05-13T12:15:43Z</time>
      </trkpt>
      <trkpt lat="39.940825989469886" lon="-0.614092005416751">
        <ele>692.28999999999996</ele>
        <time>2025-05-13T12:15:56Z</time>
      </trkpt>
      <trkpt lat="39.942980976775289" lon="-0.617300011217594">
        <ele>701.89999999999998</ele>
        <time>2025-05-13T12:16:07Z</time>
      </trkpt>
      <trkpt lat="39.945653965696692" lon="-0.620360998436809">
        <ele>712.95000000000005</ele>
        <time>2025-05-13T12:16:19Z</time>
      </trkpt>
      <trkpt lat="39.948854008689523" lon="-0.623138006776571">
        <ele>724.49000000000001</ele>
        <time>2025-05-13T12:16:32Z</time>
      </trkpt>
      <trkpt lat="39.951778035610914" lon="-0.625007003545761">
        <ele>733.62</ele>
        <time>2025-05-13T12:16:43Z</time>
      </trkpt>
      <trkpt lat="39.955403041094542" lon="-0.626655975356698">
        <ele>745.15999999999997</ele>
        <time>2025-05-13T12:16:56Z</time>
      </trkpt>
      <trkpt lat="39.959707986563444" lon="-0.6279890332371">
        <ele>760.53999999999996</ele>
        <time>2025-05-13T12:17:11Z</time>
      </trkpt>
      <trkpt lat="39.963489985093474" lon="-0.628795959055424">
        <ele>782.64999999999998</ele>
        <time>2025-05-13T12:17:24Z</time>
      </trkpt>
      <trkpt lat="39.9675830360502" lon="-0.629683015868068">
        <ele>800.91999999999996</ele>
        <time>2025-05-13T12:17:38Z</time>
      </trkpt>
      <trkpt lat="39.971076026558876" lon="-0.630611982196569">
        <ele>815.34000000000003</ele>
        <time>2025-05-13T12:17:50Z</time>
      </trkpt>
      <trkpt lat="39.973245011642575" lon="-0.63181503675878">
        <ele>824.47000000000003</ele>
        <time>2025-05-13T12:17:58Z</time>
      </trkpt>
      <trkpt lat="39.974635988473892" lon="-0.633227974176407">
        <ele>831.67999999999995</ele>
        <time>2025-05-13T12:18:04Z</time>
      </trkpt>
      <trkpt lat="39.975924035534263" lon="-0.635320013388991">
        <ele>841.28999999999996</ele>
        <time>2025-05-13T12:18:11Z</time>
      </trkpt>
      <trkpt lat="39.978483030572534" lon="-0.640028966590762">
        <ele>864.36000000000001</ele>
        <time>2025-05-13T12:18:26Z</time>
      </trkpt>
      <trkpt lat="39.980872962623835" lon="-0.644430974498391">
        <ele>886.95000000000005</ele>
        <time>2025-05-13T12:18:40Z</time>
      </trkpt>
      <trkpt lat="39.982310961931944" lon="-0.64709197729826">
        <ele>897.52999999999997</ele>
        <time>2025-05-13T12:18:49Z</time>
      </trkpt>
      <trkpt lat="39.983334979042411" lon="-0.649456009268761">
        <ele>908.58000000000004</ele>
        <time>2025-05-13T12:18:57Z</time>
      </trkpt>
      <trkpt lat="39.983540000393987" lon="-0.65147596411407">
        <ele>916.26999999999998</ele>
        <time>2025-05-13T12:19:03Z</time>
      </trkpt>
      <trkpt lat="39.983400022611022" lon="-0.656457999721169">
        <ele>938.38</ele>
        <time>2025-05-13T12:19:17Z</time>
      </trkpt>
      <trkpt lat="39.983834037557244" lon="-0.658578034490347">
        <ele>948.48000000000002</ele>
        <time>2025-05-13T12:19:23Z</time>
      </trkpt>
      <trkpt lat="39.984673988074064" lon="-0.660084011033177">
        <ele>956.64999999999998</ele>
        <time>2025-05-13T12:19:28Z</time>
      </trkpt>
      <trkpt lat="39.986120034009218" lon="-0.66133601590991">
        <ele>966.25999999999999</ele>
        <time>2025-05-13T12:19:34Z</time>
      </trkpt>
      <trkpt lat="39.988076034933329" lon="-0.662204967811704">
        <ele>978.27999999999997</ele>
        <time>2025-05-13T12:19:41Z</time>
      </trkpt>
      <trkpt lat="39.989299960434437" lon="-0.663222027942538">
        <ele>986.92999999999995</ele>
        <time>2025-05-13T12:19:46Z</time>
      </trkpt>
      <trkpt lat="39.99033403582871" lon="-0.665050959214568">
        <ele>998.95000000000005</ele>
        <time>2025-05-13T12:19:52Z</time>
      </trkpt>
      <trkpt lat="39.990760004147887" lon="-0.666873017325997">
        <ele>1006.16</ele>
        <time>2025-05-13T12:19:57Z</time>
      </trkpt>
      <trkpt lat="39.990719016641378" lon="-0.669175023213029">
        <ele>1012.41</ele>
        <time>2025-05-13T12:20:03Z</time>
      </trkpt>
      <trkpt lat="39.990091966465116" lon="-0.672151017934084">
        <ele>1012.89</ele>
        <time>2025-05-13T12:20:11Z</time>
      </trkpt>
      <trkpt lat="39.988631000742316" lon="-0.67796696908772">
        <ele>999.90999999999997</ele>
        <time>2025-05-13T12:20:27Z</time>
      </trkpt>
      <trkpt lat="39.988089026883245" lon="-0.680912034586072">
        <ele>996.05999999999995</ele>
        <time>2025-05-13T12:20:36Z</time>
      </trkpt>
      <trkpt lat="39.988259011879563" lon="-0.682977000251412">
        <ele>994.62</ele>
        <time>2025-05-13T12:20:42Z</time>
      </trkpt>
      <trkpt lat="39.988916991278529" lon="-0.68494901061058">
        <ele>993.17999999999995</ele>
        <time>2025-05-13T12:20:48Z</time>
      </trkpt>
      <trkpt lat="39.990029018372297" lon="-0.686503015458584">
        <ele>992.70000000000005</ele>
        <time>2025-05-13T12:20:54Z</time>
      </trkpt>
      <trkpt lat="39.991439022123814" lon="-0.68759199231863">
        <ele>991.25999999999999</ele>
        <time>2025-05-13T12:21:00Z</time>
      </trkpt>
      <trkpt lat="39.99308698810637" lon="-0.688040005043149">
        <ele>990.29999999999995</ele>
        <time>2025-05-13T12:21:06Z</time>
      </trkpt>
      <trkpt lat="39.995413972064853" lon="-0.687884017825127">
        <ele>991.25999999999999</ele>
        <time>2025-05-13T12:21:14Z</time>
      </trkpt>
      <trkpt lat="39.997785966843367" lon="-0.688109993934631">
        <ele>992.70000000000005</ele>
        <time>2025-05-13T12:21:22Z</time>
      </trkpt>
      <trkpt lat="40.000052014365792" lon="-0.689009036868811">
        <ele>993.17999999999995</ele>
        <time>2025-05-13T12:21:30Z</time>
      </trkpt>
      <trkpt lat="40.002891970798373" lon="-0.690102037042379">
        <ele>996.53999999999996</ele>
        <time>2025-05-13T12:21:40Z</time>
      </trkpt>
      <trkpt lat="40.005260026082397" lon="-0.690335975959897">
        <ele>997.50999999999999</ele>
        <time>2025-05-13T12:21:48Z</time>
      </trkpt>
      <trkpt lat="40.008800961077213" lon="-0.689990976825356">
        <ele>997.01999999999998</ele>
        <time>2025-05-13T12:22:00Z</time>
      </trkpt>
      <trkpt lat="40.012061018496752" lon="-0.68997697904706">
        <ele>996.05999999999995</ele>
        <time>2025-05-13T12:22:11Z</time>
      </trkpt>
      <trkpt lat="40.014398982748389" lon="-0.690525993704796">
        <ele>995.10000000000002</ele>
        <time>2025-05-13T12:22:19Z</time>
      </trkpt>
      <trkpt lat="40.016930988058448" lon="-0.691696023568511">
        <ele>992.22000000000003</ele>
        <time>2025-05-13T12:22:28Z</time>
      </trkpt>
      <trkpt lat="40.019240034744143" lon="-0.693470975384116">
        <ele>985.49000000000001</ele>
        <time>2025-05-13T12:22:37Z</time>
      </trkpt>
      <trkpt lat="40.02149099484086" lon="-0.6960120331496">
        <ele>975.88</ele>
        <time>2025-05-13T12:22:47Z</time>
      </trkpt>
      <trkpt lat="40.024601016193628" lon="-0.700147999450564">
        <ele>961.46000000000004</ele>
        <time>2025-05-13T12:23:02Z</time>
      </trkpt>
      <trkpt lat="40.027652028948069" lon="-0.703814998269081">
        <ele>955.21000000000004</ele>
        <time>2025-05-13T12:23:16Z</time>
      </trkpt>
      <trkpt lat="40.031456993892789" lon="-0.707522984594107">
        <ele>951.36000000000001</ele>
        <time>2025-05-13T12:23:32Z</time>
      </trkpt>
      <trkpt lat="40.033946000039577" lon="-0.709606977179646">
        <ele>949.44000000000005</ele>
        <time>2025-05-13T12:23:42Z</time>
      </trkpt>
      <trkpt lat="40.036279018968344" lon="-0.711321998387575">
        <ele>947.51999999999998</ele>
        <time>2025-05-13T12:23:51Z</time>
      </trkpt>
      <trkpt lat="40.03975298255682" lon="-0.713453013449907">
        <ele>946.07000000000005</ele>
        <time>2025-05-13T12:24:04Z</time>
      </trkpt>
      <trkpt lat="40.043395003303885" lon="-0.715111959725618">
        <ele>943.66999999999996</ele>
        <time>2025-05-13T12:24:17Z</time>
      </trkpt>
      <trkpt lat="40.046275025233626" lon="-0.715960040688515">
        <ele>946.07000000000005</ele>
        <time>2025-05-13T12:24:27Z</time>
      </trkpt>
      <trkpt lat="40.048893028870225" lon="-0.716442000120878">
        <ele>948</ele>
        <time>2025-05-13T12:24:36Z</time>
      </trkpt>
      <trkpt lat="40.052443016320467" lon="-0.716691026464105">
        <ele>947.03999999999996</ele>
        <time>2025-05-13T12:24:48Z</time>
      </trkpt>
      <trkpt lat="40.056594992056489" lon="-0.716728996485472">
        <ele>943.66999999999996</ele>
        <time>2025-05-13T12:25:02Z</time>
      </trkpt>
      <trkpt lat="40.060755014419556" lon="-0.716853970661759">
        <ele>939.83000000000004</ele>
        <time>2025-05-13T12:25:16Z</time>
      </trkpt>
      <trkpt lat="40.063113011419773" lon="-0.717226965352893">
        <ele>937.41999999999996</ele>
        <time>2025-05-13T12:25:24Z</time>
      </trkpt>
      <trkpt lat="40.06626795977354" lon="-0.71827101521194">
        <ele>939.83000000000004</ele>
        <time>2025-05-13T12:25:35Z</time>
      </trkpt>
      <trkpt lat="40.069042034447193" lon="-0.719676995649934">
        <ele>948.96000000000004</ele>
        <time>2025-05-13T12:25:45Z</time>
      </trkpt>
      <trkpt lat="40.072438968345523" lon="-0.722109004855156">
        <ele>960.98000000000002</ele>
        <time>2025-05-13T12:25:58Z</time>
      </trkpt>
      <trkpt lat="40.076602008193731" lon="-0.725140990689397">
        <ele>967.22000000000003</ele>
        <time>2025-05-13T12:26:14Z</time>
      </trkpt>
      <trkpt lat="40.078871995210648" lon="-0.726488968357444">
        <ele>965.29999999999995</ele>
        <time>2025-05-13T12:26:23Z</time>
      </trkpt>
      <trkpt lat="40.081775989383459" lon="-0.72768297046423">
        <ele>957.61000000000001</ele>
        <time>2025-05-13T12:26:35Z</time>
      </trkpt>
      <trkpt lat="40.084819961339235" lon="-0.728358970955014">
        <ele>951.36000000000001</ele>
        <time>2025-05-13T12:26:47Z</time>
      </trkpt>
      <trkpt lat="40.087640974670649" lon="-0.728488974273205">
        <ele>944.63</ele>
        <time>2025-05-13T12:26:57Z</time>
      </trkpt>
      <trkpt lat="40.091099012643099" lon="-0.728160990402102">
        <ele>936.46000000000004</ele>
        <time>2025-05-13T12:27:09Z</time>
      </trkpt>
      <trkpt lat="40.094152959063649" lon="-0.72768003679812">
        <ele>929.25</ele>
        <time>2025-05-13T12:27:20Z</time>
      </trkpt>
      <trkpt lat="40.097544025629759" lon="-0.727177960798144">
        <ele>922.51999999999998</ele>
        <time>2025-05-13T12:27:33Z</time>
      </trkpt>
      <trkpt lat="40.101256035268307" lon="-0.726928012445569">
        <ele>920.60000000000002</ele>
        <time>2025-05-13T12:27:47Z</time>
      </trkpt>
      <trkpt lat="40.103092007339001" lon="-0.7269730232656">
        <ele>924.45000000000005</ele>
        <time>2025-05-13T12:27:55Z</time>
      </trkpt>
      <trkpt lat="40.105674974620342" lon="-0.727306958287954">
        <ele>933.58000000000004</ele>
        <time>2025-05-13T12:28:07Z</time>
      </trkpt>
      <trkpt lat="40.107952002435923" lon="-0.727915987372398">
        <ele>938.38</ele>
        <time>2025-05-13T12:28:18Z</time>
      </trkpt>
      <trkpt lat="40.110595989972353" lon="-0.728859035298228">
        <ele>945.11000000000001</ele>
        <time>2025-05-13T12:28:31Z</time>
      </trkpt>
      <trkpt lat="40.111726960167289" lon="-0.729099009186029">
        <ele>941.26999999999998</ele>
        <time>2025-05-13T12:28:38Z</time>
      </trkpt>
      <trkpt lat="40.112003982067108" lon="-0.729164974763989">
        <ele>940.30999999999995</ele>
        <time>2025-05-13T12:28:41Z</time>
      </trkpt>
      <trkpt lat="40.11204999871552" lon="-0.729195987805724">
        <ele>940.30999999999995</ele>
        <time>2025-05-13T12:28:42Z</time>
      </trkpt>
      <trkpt lat="40.11213599704206" lon="-0.729303024709225">
        <ele>940.30999999999995</ele>
        <time>2025-05-13T12:28:45Z</time>
      </trkpt>
      <trkpt lat="40.112140020355582" lon="-0.729366978630424">
        <ele>939.83000000000004</ele>
        <time>2025-05-13T12:28:46Z</time>
      </trkpt>
      <trkpt lat="40.112145971506834" lon="-0.729449959471822">
        <ele>939.83000000000004</ele>
        <time>2025-05-13T12:28:47Z</time>
      </trkpt>
      <trkpt lat="40.11215703561902" lon="-0.729912975803018">
        <ele>939.35000000000002</ele>
        <time>2025-05-13T12:28:51Z</time>
      </trkpt>
      <trkpt lat="40.112167010083795" lon="-0.730043984949589">
        <ele>939.83000000000004</ele>
        <time>2025-05-13T12:28:52Z</time>
      </trkpt>
      <trkpt lat="40.11224202811718" lon="-0.731502017006278">
        <ele>941.26999999999998</ele>
        <time>2025-05-13T12:29:01Z</time>
      </trkpt>
      <trkpt lat="40.112333977594972" lon="-0.733500011265278">
        <ele>939.83000000000004</ele>
        <time>2025-05-13T12:29:12Z</time>
      </trkpt>
      <trkpt lat="40.112349987030029" lon="-0.733849033713341">
        <ele>938.86000000000001</ele>
        <time>2025-05-13T12:29:15Z</time>
      </trkpt>
      <trkpt lat="40.11235099285841" lon="-0.733888009563088">
        <ele>938.38</ele>
        <time>2025-05-13T12:29:16Z</time>
      </trkpt>
      <trkpt lat="40.11235099285841" lon="-0.73387099429965">
        <ele>938.38</ele>
        <time>2025-05-13T12:29:18Z</time>
      </trkpt>
      <trkpt lat="40.112349987030029" lon="-0.733846016228199">
        <ele>938.38</ele>
        <time>2025-05-13T12:29:19Z</time>
      </trkpt>
      <trkpt lat="40.112347975373268" lon="-0.733817014843225">
        <ele>938.38</ele>
        <time>2025-05-13T12:29:20Z</time>
      </trkpt>
      <trkpt lat="40.112346969544888" lon="-0.733792036771774">
        <ele>938.38</ele>
        <time>2025-05-13T12:29:21Z</time>
      </trkpt>
      <trkpt lat="40.112346969544888" lon="-0.733792036771774">
        <ele>938.38</ele>
        <time>2025-05-13T12:29:22Z</time>
      </trkpt>
      <trkpt lat="40.112346969544888" lon="-0.733792036771774">
        <ele>938.38</ele>
        <time>2025-05-13T12:29:35Z</time>
      </trkpt>
      <trkpt lat="40.112358033657074" lon="-0.733794970437884">
        <ele>930.69000000000005</ele>
        <time>2025-05-13T12:36:28Z</time>
      </trkpt>
      <trkpt lat="40.112292990088463" lon="-0.733750965446234">
        <ele>938.38</ele>
        <time>2025-05-13T12:37:04Z</time>
      </trkpt>
      <trkpt lat="40.112273041158915" lon="-0.733775021508336">
        <ele>936.94000000000005</ele>
        <time>2025-05-13T12:37:52Z</time>
      </trkpt>
      <trkpt lat="40.112274968996644" lon="-0.733786001801491">
        <ele>937.89999999999998</ele>
        <time>2025-05-13T12:38:48Z</time>
      </trkpt>
      <trkpt lat="40.112274968996644" lon="-0.733782984316349">
        <ele>937.89999999999998</ele>
        <time>2025-05-13T12:39:15Z</time>
      </trkpt>
      <trkpt lat="40.112345041707158" lon="-0.73374099098146">
        <ele>937.41999999999996</ele>
        <time>2025-05-13T12:39:18Z</time>
      </trkpt>
      <trkpt lat="40.112342024222016" lon="-0.733680976554751">
        <ele>937.89999999999998</ele>
        <time>2025-05-13T12:39:19Z</time>
      </trkpt>
      <trkpt lat="40.112338000908494" lon="-0.73359196074307">
        <ele>938.86000000000001</ele>
        <time>2025-05-13T12:39:20Z</time>
      </trkpt>
      <trkpt lat="40.112332971766591" lon="-0.733490958809853">
        <ele>939.35000000000002</ele>
        <time>2025-05-13T12:39:21Z</time>
      </trkpt>
      <trkpt lat="40.112281003966928" lon="-0.732349008321762">
        <ele>942.23000000000002</ele>
        <time>2025-05-13T12:39:31Z</time>
      </trkpt>
      <trkpt lat="40.1122219953686" lon="-0.731062972918153">
        <ele>943.66999999999996</ele>
        <time>2025-05-13T12:39:42Z</time>
      </trkpt>
      <trkpt lat="40.112217972055078" lon="-0.730957025662065">
        <ele>943.66999999999996</ele>
        <time>2025-05-13T12:39:44Z</time>
      </trkpt>
      <trkpt lat="40.112210009247065" lon="-0.730772037059069">
        <ele>943.19000000000005</ele>
        <time>2025-05-13T12:39:53Z</time>
      </trkpt>
      <trkpt lat="40.112210009247065" lon="-0.730772037059069">
        <ele>943.66999999999996</ele>
        <time>2025-05-13T12:40:41Z</time>
      </trkpt>
      <trkpt lat="40.112209003418684" lon="-0.730732977390289">
        <ele>943.66999999999996</ele>
        <time>2025-05-13T12:40:42Z</time>
      </trkpt>
      <trkpt lat="40.112210009247065" lon="-0.730772037059069">
        <ele>943.19000000000005</ele>
        <time>2025-05-13T12:40:44Z</time>
      </trkpt>
      <trkpt lat="40.112212020903826" lon="-0.73081998154521">
        <ele>942.71000000000004</ele>
        <time>2025-05-13T12:40:45Z</time>
      </trkpt>
      <trkpt lat="40.112214032560587" lon="-0.730859963223338">
        <ele>943.19000000000005</ele>
        <time>2025-05-13T12:40:46Z</time>
      </trkpt>
      <trkpt lat="40.112214032560587" lon="-0.730873961001635">
        <ele>942.71000000000004</ele>
        <time>2025-05-13T12:40:47Z</time>
      </trkpt>
      <trkpt lat="40.112105989828706" lon="-0.730879995971918">
        <ele>942.71000000000004</ele>
        <time>2025-05-13T12:40:48Z</time>
      </trkpt>
      <trkpt lat="40.112062990665436" lon="-0.730812018737197">
        <ele>942.23000000000002</ele>
        <time>2025-05-13T12:40:49Z</time>
      </trkpt>
      <trkpt lat="40.112011022865772" lon="-0.730729959905148">
        <ele>942.23000000000002</ele>
        <time>2025-05-13T12:40:50Z</time>
      </trkpt>
      <trkpt lat="40.111395958811045" lon="-0.730143981054425">
        <ele>942.23000000000002</ele>
        <time>2025-05-13T12:40:56Z</time>
      </trkpt>
      <trkpt lat="40.110130961984396" lon="-0.729170003905892">
        <ele>946.07000000000005</ele>
        <time>2025-05-13T12:41:04Z</time>
      </trkpt>
      <trkpt lat="40.10841703042388" lon="-0.728321000933647">
        <ele>947.03999999999996</ele>
        <time>2025-05-13T12:41:12Z</time>
      </trkpt>
      <trkpt lat="40.10603497736156" lon="-0.727622034028172">
        <ele>940.30999999999995</ele>
        <time>2025-05-13T12:41:21Z</time>
      </trkpt>
      <trkpt lat="40.103170964866877" lon="-0.727221965789795">
        <ele>930.21000000000004</ele>
        <time>2025-05-13T12:41:31Z</time>
      </trkpt>
      <trkpt lat="40.099042961373925" lon="-0.727250967174768">
        <ele>922.51999999999998</ele>
        <time>2025-05-13T12:41:45Z</time>
      </trkpt>
      <trkpt lat="40.094921998679638" lon="-0.72776704095304">
        <ele>926.37</ele>
        <time>2025-05-13T12:41:59Z</time>
      </trkpt>
      <trkpt lat="40.090516973286867" lon="-0.728472964838147">
        <ele>938.38</ele>
        <time>2025-05-13T12:42:14Z</time>
      </trkpt>
      <trkpt lat="40.086688036099076" lon="-0.728725008666515">
        <ele>949.91999999999996</ele>
        <time>2025-05-13T12:42:27Z</time>
      </trkpt>
      <trkpt lat="40.083737019449472" lon="-0.7284149620682">
        <ele>957.13</ele>
        <time>2025-05-13T12:42:37Z</time>
      </trkpt>
      <trkpt lat="40.080849034711719" lon="-0.727605018764734">
        <ele>963.38</ele>
        <time>2025-05-13T12:42:47Z</time>
      </trkpt>
      <trkpt lat="40.077783018350601" lon="-0.726156961172819">
        <ele>970.59000000000003</ele>
        <time>2025-05-13T12:42:58Z</time>
      </trkpt>
      <trkpt lat="40.074608037248254" lon="-0.724010020494461">
        <ele>973.95000000000005</ele>
        <time>2025-05-13T12:43:10Z</time>
      </trkpt>
      <trkpt lat="40.071789035573602" lon="-0.721896020695567">
        <ele>969.63</ele>
        <time>2025-05-13T12:43:21Z</time>
      </trkpt>
      <trkpt lat="40.068654958158731" lon="-0.719717983156443">
        <ele>957.61000000000001</ele>
        <time>2025-05-13T12:43:33Z</time>
      </trkpt>
      <trkpt lat="40.065609980374575" lon="-0.718197003006935">
        <ele>947.51999999999998</ele>
        <time>2025-05-13T12:43:44Z</time>
      </trkpt>
      <trkpt lat="40.062739010900259" lon="-0.717341965064406">
        <ele>940.78999999999996</ele>
        <time>2025-05-13T12:43:54Z</time>
      </trkpt>
      <trkpt lat="40.060102986171842" lon="-0.717033008113503">
        <ele>941.26999999999998</ele>
        <time>2025-05-13T12:44:03Z</time>
      </trkpt>
      <trkpt lat="40.055685974657536" lon="-0.716948015615344">
        <ele>945.11000000000001</ele>
        <time>2025-05-13T12:44:18Z</time>
      </trkpt>
      <trkpt lat="40.05339503288269" lon="-0.716952960938215">
        <ele>948</ele>
        <time>2025-05-13T12:44:27Z</time>
      </trkpt>
      <trkpt lat="40.051133008673787" lon="-0.716862017288804">
        <ele>950.88</ele>
        <time>2025-05-13T12:44:36Z</time>
      </trkpt>
      <trkpt lat="40.048872996121645" lon="-0.716691026464105">
        <ele>952.79999999999995</ele>
        <time>2025-05-13T12:44:46Z</time>
      </trkpt>
      <trkpt lat="40.04684398882091" lon="-0.716346027329564">
        <ele>952.32000000000005</ele>
        <time>2025-05-13T12:44:55Z</time>
      </trkpt>
      <trkpt lat="40.045799016952515" lon="-0.716243013739586">
        <ele>951.84000000000003</ele>
        <time>2025-05-13T12:45:00Z</time>
      </trkpt>
      <trkpt lat="40.045599024742842" lon="-0.716291964054108">
        <ele>951.36000000000001</ele>
        <time>2025-05-13T12:45:01Z</time>
      </trkpt>
      <trkpt lat="40.045397020876408" lon="-0.716340998187661">
        <ele>951.36000000000001</ele>
        <time>2025-05-13T12:45:02Z</time>
      </trkpt>
      <trkpt lat="40.045199962332845" lon="-0.716389026492834">
        <ele>951.36000000000001</ele>
        <time>2025-05-13T12:45:03Z</time>
      </trkpt>
      <trkpt lat="40.04501698538661" lon="-0.716465972363949">
        <ele>951.36000000000001</ele>
        <time>2025-05-13T12:45:04Z</time>
      </trkpt>
      <trkpt lat="40.044851023703814" lon="-0.716565968468785">
        <ele>951.84000000000003</ele>
        <time>2025-05-13T12:45:05Z</time>
      </trkpt>
      <trkpt lat="40.044694030657411" lon="-0.716668982058764">
        <ele>952.32000000000005</ele>
        <time>2025-05-13T12:45:06Z</time>
      </trkpt>
      <trkpt lat="40.044411979615688" lon="-0.716853970661759">
        <ele>953.27999999999997</ele>
        <time>2025-05-13T12:45:08Z</time>
      </trkpt>
      <trkpt lat="40.04428599961102" lon="-0.716927982866764">
        <ele>954.25</ele>
        <time>2025-05-13T12:45:09Z</time>
      </trkpt>
      <trkpt lat="40.044160019606352" lon="-0.716958995908499">
        <ele>954.73000000000002</ele>
        <time>2025-05-13T12:45:10Z</time>
      </trkpt>
      <trkpt lat="40.044024987146258" lon="-0.716933012008667">
        <ele>955.21000000000004</ele>
        <time>2025-05-13T12:45:11Z</time>
      </trkpt>
      <trkpt lat="40.043894983828068" lon="-0.716894036158919">
        <ele>955.69000000000005</ele>
        <time>2025-05-13T12:45:12Z</time>
      </trkpt>
      <trkpt lat="40.043767997995019" lon="-0.716855982318521">
        <ele>956.16999999999996</ele>
        <time>2025-05-13T12:45:13Z</time>
      </trkpt>
      <trkpt lat="40.043316967785358" lon="-0.716650038957596">
        <ele>957.13</ele>
        <time>2025-05-13T12:45:18Z</time>
      </trkpt>
      <trkpt lat="40.043272962793708" lon="-0.716568985953927">
        <ele>956.64999999999998</ele>
        <time>2025-05-13T12:45:19Z</time>
      </trkpt>
      <trkpt lat="40.043252008035779" lon="-0.716512994840741">
        <ele>956.64999999999998</ele>
        <time>2025-05-13T12:45:20Z</time>
      </trkpt>
      <trkpt lat="40.04323298111558" lon="-0.716461027041078">
        <ele>956.64999999999998</ele>
        <time>2025-05-13T12:45:21Z</time>
      </trkpt>
      <trkpt lat="40.043239016085863" lon="-0.716382991522551">
        <ele>956.64999999999998</ele>
        <time>2025-05-13T12:45:22Z</time>
      </trkpt>
      <trkpt lat="40.043292995542288" lon="-0.716328006237745">
        <ele>956.64999999999998</ele>
        <time>2025-05-13T12:45:23Z</time>
      </trkpt>
      <trkpt lat="40.043363990262151" lon="-0.716257011517882">
        <ele>956.16999999999996</ele>
        <time>2025-05-13T12:45:24Z</time>
      </trkpt>
      <trkpt lat="40.043441019952297" lon="-0.716147962957621">
        <ele>956.16999999999996</ele>
        <time>2025-05-13T12:45:25Z</time>
      </trkpt>
      <trkpt lat="40.043518971651793" lon="-0.716022988781333">
        <ele>956.16999999999996</ele>
        <time>2025-05-13T12:45:26Z</time>
      </trkpt>
      <trkpt lat="40.043605975806713" lon="-0.715875970199704">
        <ele>956.64999999999998</ele>
        <time>2025-05-13T12:45:27Z</time>
      </trkpt>
      <trkpt lat="40.043671019375324" lon="-0.715700034052134">
        <ele>956.64999999999998</ele>
        <time>2025-05-13T12:45:28Z</time>
      </trkpt>
      <trkpt lat="40.043740002438426" lon="-0.715513033792377">
        <ele>956.64999999999998</ele>
        <time>2025-05-13T12:45:29Z</time>
      </trkpt>
      <trkpt lat="40.043804040178657" lon="-0.715303989127278">
        <ele>956.64999999999998</ele>
        <time>2025-05-13T12:45:30Z</time>
      </trkpt>
      <trkpt lat="40.044126994907856" lon="-0.714130019769073">
        <ele>953.27999999999997</ele>
        <time>2025-05-13T12:45:36Z</time>
      </trkpt>
      <trkpt lat="40.044160019606352" lon="-0.714024994522333">
        <ele>952.32000000000005</ele>
        <time>2025-05-13T12:45:37Z</time>
      </trkpt>
      <trkpt lat="40.044205030426383" lon="-0.713966991752386">
        <ele>951.84000000000003</ele>
        <time>2025-05-13T12:45:38Z</time>
      </trkpt>
      <trkpt lat="40.044268984347582" lon="-0.713983001187444">
        <ele>951.84000000000003</ele>
        <time>2025-05-13T12:45:39Z</time>
      </trkpt>
      <trkpt lat="40.0443509593606" lon="-0.714004039764404">
        <ele>951.36000000000001</ele>
        <time>2025-05-13T12:45:40Z</time>
      </trkpt>
      <trkpt lat="40.044443998485804" lon="-0.71408299729228">
        <ele>950.88</ele>
        <time>2025-05-13T12:45:41Z</time>
      </trkpt>
      <trkpt lat="40.044858986511827" lon="-0.714288018643856">
        <ele>949.91999999999996</ele>
        <time>2025-05-13T12:45:44Z</time>
      </trkpt>
      <trkpt lat="40.044983960688114" lon="-0.714408969506621">
        <ele>949.44000000000005</ele>
        <time>2025-05-13T12:45:45Z</time>
      </trkpt>
      <trkpt lat="40.045124022290111" lon="-0.714582977816463">
        <ele>948.96000000000004</ele>
        <time>2025-05-13T12:45:46Z</time>
      </trkpt>
      <trkpt lat="40.045207003131509" lon="-0.714737037196755">
        <ele>948.48000000000002</ele>
        <time>2025-05-13T12:45:47Z</time>
      </trkpt>
      <trkpt lat="40.045316973701119" lon="-0.714937029406428">
        <ele>948</ele>
        <time>2025-05-13T12:45:48Z</time>
      </trkpt>
      <trkpt lat="40.045431973412633" lon="-0.715148001909256">
        <ele>947.03999999999996</ele>
        <time>2025-05-13T12:45:49Z</time>
      </trkpt>
      <trkpt lat="40.045564994215965" lon="-0.715356040745974">
        <ele>947.03999999999996</ele>
        <time>2025-05-13T12:45:50Z</time>
      </trkpt>
      <trkpt lat="40.045723998919129" lon="-0.71554203517735">
        <ele>946.55999999999995</ele>
        <time>2025-05-13T12:45:51Z</time>
      </trkpt>
      <trkpt lat="40.045915022492409" lon="-0.715701961889863">
        <ele>946.55999999999995</ele>
        <time>2025-05-13T12:45:52Z</time>
      </trkpt>
      <trkpt lat="40.046127000823617" lon="-0.715829031541944">
        <ele>946.07000000000005</ele>
        <time>2025-05-13T12:45:53Z</time>
      </trkpt>
      <trkpt lat="40.046353982761502" lon="-0.715928021818399">
        <ele>946.07000000000005</ele>
        <time>2025-05-13T12:45:54Z</time>
      </trkpt>
      <trkpt lat="40.046588005498052" lon="-0.716029023751616">
        <ele>946.07000000000005</ele>
        <time>2025-05-13T12:45:55Z</time>
      </trkpt>
      <trkpt lat="40.046841977164149" lon="-0.716100018471479">
        <ele>946.07000000000005</ele>
        <time>2025-05-13T12:45:56Z</time>
      </trkpt>
      <trkpt lat="40.049090003594756" lon="-0.716459015384316">
        <ele>946.55999999999995</ele>
        <time>2025-05-13T12:46:04Z</time>
      </trkpt>
      <trkpt lat="40.051713036373258" lon="-0.716668982058764">
        <ele>945.11000000000001</ele>
        <time>2025-05-13T12:46:13Z</time>
      </trkpt>
      <trkpt lat="40.056170029565692" lon="-0.716728996485472">
        <ele>940.30999999999995</ele>
        <time>2025-05-13T12:46:28Z</time>
      </trkpt>
      <trkpt lat="40.061217024922371" lon="-0.716889007017016">
        <ele>935.01999999999998</ele>
        <time>2025-05-13T12:46:45Z</time>
      </trkpt>
      <trkpt lat="40.063841985538602" lon="-0.717415977269411">
        <ele>937.89999999999998</ele>
        <time>2025-05-13T12:46:54Z</time>
      </trkpt>
      <trkpt lat="40.066961981356144" lon="-0.718577038496733">
        <ele>943.19000000000005</ele>
        <time>2025-05-13T12:47:05Z</time>
      </trkpt>
      <trkpt lat="40.069953985512257" lon="-0.720276972278953">
        <ele>952.79999999999995</ele>
        <time>2025-05-13T12:47:16Z</time>
      </trkpt>
      <trkpt lat="40.072546005249023" lon="-0.722188968211412">
        <ele>958.57000000000005</ele>
        <time>2025-05-13T12:47:26Z</time>
      </trkpt>
      <trkpt lat="40.076432023197412" lon="-0.725021967664361">
        <ele>964.34000000000003</ele>
        <time>2025-05-13T12:47:41Z</time>
      </trkpt>
      <trkpt lat="40.079402988776565" lon="-0.726763978600502">
        <ele>961.94000000000005</ele>
        <time>2025-05-13T12:47:52Z</time>
      </trkpt>
      <trkpt lat="40.082548968493938" lon="-0.727916993200779">
        <ele>956.16999999999996</ele>
        <time>2025-05-13T12:48:03Z</time>
      </trkpt>
      <trkpt lat="40.085491016507149" lon="-0.728436000645161">
        <ele>948.96000000000004</ele>
        <time>2025-05-13T12:48:13Z</time>
      </trkpt>
      <trkpt lat="40.088733974844217" lon="-0.728418985381722">
        <ele>940.78999999999996</ele>
        <time>2025-05-13T12:48:24Z</time>
      </trkpt>
      <trkpt lat="40.092862984165549" lon="-0.727882962673903">
        <ele>929.25</ele>
        <time>2025-05-13T12:48:38Z</time>
      </trkpt>
      <trkpt lat="40.095802014693618" lon="-0.727420030161738">
        <ele>922.03999999999996</ele>
        <time>2025-05-13T12:48:48Z</time>
      </trkpt>
      <trkpt lat="40.099043967202306" lon="-0.727019039914012">
        <ele>916.26999999999998</ele>
        <time>2025-05-13T12:48:59Z</time>
      </trkpt>
      <trkpt lat="40.103189991787076" lon="-0.726980986073613">
        <ele>922.51999999999998</ele>
        <time>2025-05-13T12:49:13Z</time>
      </trkpt>
      <trkpt lat="40.10642297565937" lon="-0.727479960769415">
        <ele>933.58000000000004</ele>
        <time>2025-05-13T12:49:24Z</time>
      </trkpt>
      <trkpt lat="40.109296962618828" lon="-0.728418985381722">
        <ele>943.66999999999996</ele>
        <time>2025-05-13T12:49:34Z</time>
      </trkpt>
      <trkpt lat="40.112044969573617" lon="-0.729860002174973">
        <ele>948.48000000000002</ele>
        <time>2025-05-13T12:49:44Z</time>
      </trkpt>
      <trkpt lat="40.114870006218553" lon="-0.731986993923783">
        <ele>947.03999999999996</ele>
        <time>2025-05-13T12:49:55Z</time>
      </trkpt>
      <trkpt lat="40.117454985156655" lon="-0.734597034752369">
        <ele>938.86000000000001</ele>
        <time>2025-05-13T12:50:06Z</time>
      </trkpt>
      <trkpt lat="40.119731007143855" lon="-0.73767302557826">
        <ele>927.33000000000004</ele>
        <time>2025-05-13T12:50:17Z</time>
      </trkpt>
      <trkpt lat="40.121746016666293" lon="-0.741489976644516">
        <ele>921.08000000000004</ele>
        <time>2025-05-13T12:50:29Z</time>
      </trkpt>
      <trkpt lat="40.123525997623801" lon="-0.74592400342226">
        <ele>928.76999999999998</ele>
        <time>2025-05-13T12:50:42Z</time>
      </trkpt>
      <trkpt lat="40.124974977225065" lon="-0.750574031844735">
        <ele>940.30999999999995</ele>
        <time>2025-05-13T12:50:55Z</time>
      </trkpt>
      <trkpt lat="40.126412976533175" lon="-0.755687998607755">
        <ele>940.78999999999996</ele>
        <time>2025-05-13T12:51:09Z</time>
      </trkpt>
      <trkpt lat="40.127931023016572" lon="-0.761161968111992">
        <ele>927.33000000000004</ele>
        <time>2025-05-13T12:51:24Z</time>
      </trkpt>
      <trkpt lat="40.129726007580757" lon="-0.767689039930701">
        <ele>923.48000000000002</ele>
        <time>2025-05-13T12:51:42Z</time>
      </trkpt>
      <trkpt lat="40.131116984412074" lon="-0.77196498401463">
        <ele>924.92999999999995</ele>
        <time>2025-05-13T12:51:54Z</time>
      </trkpt>
      <trkpt lat="40.132771991193295" lon="-0.775617985054851">
        <ele>919.63999999999999</ele>
        <time>2025-05-13T12:52:05Z</time>
      </trkpt>
      <trkpt lat="40.134612992405891" lon="-0.778635973110795">
        <ele>912.42999999999995</ele>
        <time>2025-05-13T12:52:15Z</time>
      </trkpt>
      <trkpt lat="40.137321017682552" lon="-0.782172968611121">
        <ele>915.30999999999995</ele>
        <time>2025-05-13T12:52:28Z</time>
      </trkpt>
      <trkpt lat="40.14047596603632" lon="-0.786275994032621">
        <ele>933.58000000000004</ele>
        <time>2025-05-13T12:52:43Z</time>
      </trkpt>
      <trkpt lat="40.142528023570776" lon="-0.789576033130288">
        <ele>945.59000000000003</ele>
        <time>2025-05-13T12:52:54Z</time>
      </trkpt>
      <trkpt lat="40.144195016473532" lon="-0.793221993371844">
        <ele>957.61000000000001</ele>
        <time>2025-05-13T12:53:05Z</time>
      </trkpt>
      <trkpt lat="40.145360017195344" lon="-0.796770974993706">
        <ele>967.70000000000005</ele>
        <time>2025-05-13T12:53:15Z</time>
      </trkpt>
      <trkpt lat="40.146072981879115" lon="-0.800123987719417">
        <ele>978.27999999999997</ele>
        <time>2025-05-13T12:53:24Z</time>
      </trkpt>
      <trkpt lat="40.146664995700121" lon="-0.804312005639076">
        <ele>983.57000000000005</ele>
        <time>2025-05-13T12:53:35Z</time>
      </trkpt>
      <trkpt lat="40.147406039759517" lon="-0.81082901917398">
        <ele>976.84000000000003</ele>
        <time>2025-05-13T12:53:52Z</time>
      </trkpt>
      <trkpt lat="40.148154040798545" lon="-0.814961967989802">
        <ele>973.95000000000005</ele>
        <time>2025-05-13T12:54:03Z</time>
      </trkpt>
      <trkpt lat="40.149399004876614" lon="-0.8188889734447">
        <ele>975.88</ele>
        <time>2025-05-13T12:54:14Z</time>
      </trkpt>
      <trkpt lat="40.151035990566015" lon="-0.822541974484921">
        <ele>978.75999999999999</ele>
        <time>2025-05-13T12:54:25Z</time>
      </trkpt>
      <trkpt lat="40.151384007185698" lon="-0.823156032711267">
        <ele>979.24000000000001</ele>
        <time>2025-05-13T12:54:27Z</time>
      </trkpt>
      <trkpt lat="40.151552986353636" lon="-0.823462978005409">
        <ele>979.24000000000001</ele>
        <time>2025-05-13T12:54:28Z</time>
      </trkpt>
      <trkpt lat="40.153810987249017" lon="-0.827048001810908">
        <ele>980.67999999999995</ele>
        <time>2025-05-13T12:54:40Z</time>
      </trkpt>
      <trkpt lat="40.156595036387444" lon="-0.831086989492178">
        <ele>973.95000000000005</ele>
        <time>2025-05-13T12:54:54Z</time>
      </trkpt>
      <trkpt lat="40.158820012584329" lon="-0.834708977490664">
        <ele>972.02999999999997</ele>
        <time>2025-05-13T12:55:06Z</time>
      </trkpt>
      <trkpt lat="40.16101498156786" lon="-0.839287005364895">
        <ele>975.38999999999999</ele>
        <time>2025-05-13T12:55:20Z</time>
      </trkpt>
      <trkpt lat="40.163619993254542" lon="-0.844905981794">
        <ele>987.40999999999997</ele>
        <time>2025-05-13T12:55:37Z</time>
      </trkpt>
      <trkpt lat="40.165768023580313" lon="-0.849540000781417">
        <ele>998.47000000000003</ele>
        <time>2025-05-13T12:55:51Z</time>
      </trkpt>
      <trkpt lat="40.168219981715083" lon="-0.854829987511039">
        <ele>1010.96</ele>
        <time>2025-05-13T12:56:07Z</time>
      </trkpt>
      <trkpt lat="40.170525005087256" lon="-0.859800036996603">
        <ele>1017.6900000000001</ele>
        <time>2025-05-13T12:56:22Z</time>
      </trkpt>
      <trkpt lat="40.172507995739579" lon="-0.864100037142634">
        <ele>1023.9400000000001</ele>
        <time>2025-05-13T12:56:35Z</time>
      </trkpt>
      <trkpt lat="40.174492998048663" lon="-0.868409005925059">
        <ele>1029.71</ele>
        <time>2025-05-13T12:56:48Z</time>
      </trkpt>
      <trkpt lat="40.177083006128669" lon="-0.874029994010925">
        <ele>1041.25</ele>
        <time>2025-05-13T12:57:05Z</time>
      </trkpt>
      <trkpt lat="40.179832018911839" lon="-0.880002016201615">
        <ele>1049.9000000000001</ele>
        <time>2025-05-13T12:57:23Z</time>
      </trkpt>
      <trkpt lat="40.182272996753454" lon="-0.885304994881153">
        <ele>1061.9100000000001</ele>
        <time>2025-05-13T12:57:39Z</time>
      </trkpt>
      <trkpt lat="40.184920001775026" lon="-0.891346000134945">
        <ele>1073.9300000000001</ele>
        <time>2025-05-13T12:57:57Z</time>
      </trkpt>
      <trkpt lat="40.186636028811336" lon="-0.89627698995173">
        <ele>1082.5799999999999</ele>
        <time>2025-05-13T12:58:11Z</time>
      </trkpt>
      <trkpt lat="40.188929988071322" lon="-0.902985027059913">
        <ele>1099.4000000000001</ele>
        <time>2025-05-13T12:58:30Z</time>
      </trkpt>
      <trkpt lat="40.190334962680936" lon="-0.905943000689149">
        <ele>1102.29</ele>
        <time>2025-05-13T12:58:39Z</time>
      </trkpt>
      <trkpt lat="40.192477041855454" lon="-0.909150000661612">
        <ele>1108.54</ele>
        <time>2025-05-13T12:58:50Z</time>
      </trkpt>
      <trkpt lat="40.194966970011592" lon="-0.912965023890138">
        <ele>1120.0699999999999</ele>
        <time>2025-05-13T12:59:03Z</time>
      </trkpt>
      <trkpt lat="40.196580989286304" lon="-0.916205970570445">
        <ele>1127.28</ele>
        <time>2025-05-13T12:59:13Z</time>
      </trkpt>
      <trkpt lat="40.198113033547997" lon="-0.920390971004963">
        <ele>1134.49</ele>
        <time>2025-05-13T12:59:25Z</time>
      </trkpt>
      <trkpt lat="40.19942999817431" lon="-0.923410970717669">
        <ele>1142.1800000000001</ele>
        <time>2025-05-13T12:59:34Z</time>
      </trkpt>
      <trkpt lat="40.201230011880398" lon="-0.926472963765264">
        <ele>1148.9100000000001</ele>
        <time>2025-05-13T12:59:44Z</time>
      </trkpt>
      <trkpt lat="40.203599995002151" lon="-0.929379975423217">
        <ele>1153.72</ele>
        <time>2025-05-13T12:59:55Z</time>
      </trkpt>
      <trkpt lat="40.206029992550611" lon="-0.931591959670186">
        <ele>1152.28</ele>
        <time>2025-05-13T13:00:05Z</time>
      </trkpt>
      <trkpt lat="40.208419002592564" lon="-0.93318996950984">
        <ele>1152.76</ele>
        <time>2025-05-13T13:00:14Z</time>
      </trkpt>
      <trkpt lat="40.211513014510274" lon="-0.934560997411609">
        <ele>1148.9100000000001</ele>
        <time>2025-05-13T13:00:25Z</time>
      </trkpt>
      <trkpt lat="40.215807985514402" lon="-0.936023974791169">
        <ele>1137.3800000000001</ele>
        <time>2025-05-13T13:00:40Z</time>
      </trkpt>
      <trkpt lat="40.219369037076831" lon="-0.937930019572377">
        <ele>1139.78</ele>
        <time>2025-05-13T13:00:53Z</time>
      </trkpt>
      <trkpt lat="40.221664002165198" lon="-0.939693991094828">
        <ele>1137.3800000000001</ele>
        <time>2025-05-13T13:01:02Z</time>
      </trkpt>
      <trkpt lat="40.224619964137673" lon="-0.942292967811227">
        <ele>1132.5699999999999</ele>
        <time>2025-05-13T13:01:14Z</time>
      </trkpt>
      <trkpt lat="40.226676966995001" lon="-0.943835992366076">
        <ele>1136.9000000000001</ele>
        <time>2025-05-13T13:01:22Z</time>
      </trkpt>
      <trkpt lat="40.229385998100042" lon="-0.945357978343964">
        <ele>1146.99</ele>
        <time>2025-05-13T13:01:32Z</time>
      </trkpt>
      <trkpt lat="40.232781004160643" lon="-0.946714002639055">
        <ele>1162.3699999999999</ele>
        <time>2025-05-13T13:01:44Z</time>
      </trkpt>
      <trkpt lat="40.235234973952174" lon="-0.948070026934147">
        <ele>1171.98</ele>
        <time>2025-05-13T13:01:53Z</time>
      </trkpt>
      <trkpt lat="40.237429020926356" lon="-0.950046982616186">
        <ele>1177.75</ele>
        <time>2025-05-13T13:02:02Z</time>
      </trkpt>
      <trkpt lat="40.240065967664123" lon="-0.953186005353928">
        <ele>1181.1199999999999</ele>
        <time>2025-05-13T13:02:14Z</time>
      </trkpt>
      <trkpt lat="40.243428032845259" lon="-0.956998011097312">
        <ele>1181.1199999999999</ele>
        <time>2025-05-13T13:02:29Z</time>
      </trkpt>
      <trkpt lat="40.246779033914208" lon="-0.960206016898155">
        <ele>1174.8699999999999</ele>
        <time>2025-05-13T13:02:43Z</time>
      </trkpt>
      <trkpt lat="40.250903014093637" lon="-0.96397896297276">
        <ele>1176.79</ele>
        <time>2025-05-13T13:03:00Z</time>
      </trkpt>
      <trkpt lat="40.255037974566221" lon="-0.967761967331171">
        <ele>1187.3699999999999</ele>
        <time>2025-05-13T13:03:17Z</time>
      </trkpt>
      <trkpt lat="40.258916029706597" lon="-0.971315978094935">
        <ele>1193.6099999999999</ele>
        <time>2025-05-13T13:03:33Z</time>
      </trkpt>
      <trkpt lat="40.263287024572492" lon="-0.975291011855006">
        <ele>1210.4400000000001</ele>
        <time>2025-05-13T13:03:51Z</time>
      </trkpt>
      <trkpt lat="40.267760027199984" lon="-0.979107040911913">
        <ele>1218.1300000000001</ele>
        <time>2025-05-13T13:04:09Z</time>
      </trkpt>
      <trkpt lat="40.272549027577043" lon="-0.982971014454961">
        <ele>1222.45</ele>
        <time>2025-05-13T13:04:28Z</time>
      </trkpt>
      <trkpt lat="40.275901034474373" lon="-0.985444011166692">
        <ele>1225.3399999999999</ele>
        <time>2025-05-13T13:04:41Z</time>
      </trkpt>
      <trkpt lat="40.279213981702924" lon="-0.988052962347865">
        <ele>1219.0899999999999</ele>
        <time>2025-05-13T13:04:54Z</time>
      </trkpt>
      <trkpt lat="40.283773988485336" lon="-0.991690959781408">
        <ele>1198.9000000000001</ele>
        <time>2025-05-13T13:05:12Z</time>
      </trkpt>
      <trkpt lat="40.288114976137877" lon="-0.995016982778907">
        <ele>1182.0799999999999</ele>
        <time>2025-05-13T13:05:29Z</time>
      </trkpt>
      <trkpt lat="40.291372016072273" lon="-0.996907018125057">
        <ele>1176.3099999999999</ele>
        <time>2025-05-13T13:05:41Z</time>
      </trkpt>
      <trkpt lat="40.294784959405661" lon="-0.998166985809803">
        <ele>1170.54</ele>
        <time>2025-05-13T13:05:53Z</time>
      </trkpt>
      <trkpt lat="40.297995982691646" lon="-0.998807027935982">
        <ele>1168.6199999999999</ele>
        <time>2025-05-13T13:06:04Z</time>
      </trkpt>
      <trkpt lat="40.301247993484139" lon="-0.99897600710392">
        <ele>1170.54</ele>
        <time>2025-05-13T13:06:15Z</time>
      </trkpt>
      <trkpt lat="40.30511599034071" lon="-0.99921396933496">
        <ele>1171.02</ele>
        <time>2025-05-13T13:06:28Z</time>
      </trkpt>
      <trkpt lat="40.307713961228728" lon="-1.000065989792347">
        <ele>1165.26</ele>
        <time>2025-05-13T13:06:37Z</time>
      </trkpt>
      <trkpt lat="40.311582963913679" lon="-1.002035988494754">
        <ele>1147.95</ele>
        <time>2025-05-13T13:06:51Z</time>
      </trkpt>
      <trkpt lat="40.315704010426998" lon="-1.00424000993371">
        <ele>1127.76</ele>
        <time>2025-05-13T13:07:06Z</time>
      </trkpt>
      <trkpt lat="40.320110963657498" lon="-1.006571017205715">
        <ele>1108.54</ele>
        <time>2025-05-13T13:07:22Z</time>
      </trkpt>
      <trkpt lat="40.324519006535411" lon="-1.008904036134481">
        <ele>1095.5599999999999</ele>
        <time>2025-05-13T13:07:38Z</time>
      </trkpt>
      <trkpt lat="40.328897964209318" lon="-1.011300003156066">
        <ele>1084.02</ele>
        <time>2025-05-13T13:07:54Z</time>
      </trkpt>
      <trkpt lat="40.332084009423852" lon="-1.013394976034761">
        <ele>1074.4100000000001</ele>
        <time>2025-05-13T13:08:06Z</time>
      </trkpt>
      <trkpt lat="40.335053969174623" lon="-1.015955982729793">
        <ele>1067.2</ele>
        <time>2025-05-13T13:08:18Z</time>
      </trkpt>
      <trkpt lat="40.337541969493032" lon="-1.018728967756033">
        <ele>1061.9100000000001</ele>
        <time>2025-05-13T13:08:29Z</time>
      </trkpt>
      <trkpt lat="40.339957969263196" lon="-1.022130008786917">
        <ele>1059.03</ele>
        <time>2025-05-13T13:08:41Z</time>
      </trkpt>
      <trkpt lat="40.34187700599432" lon="-1.025593997910619">
        <ele>1055.1800000000001</ele>
        <time>2025-05-13T13:08:52Z</time>
      </trkpt>
      <trkpt lat="40.343528995290399" lon="-1.029161000624299">
        <ele>1051.3399999999999</ele>
        <time>2025-05-13T13:09:03Z</time>
      </trkpt>
      <trkpt lat="40.345376031473279" lon="-1.03352596051991">
        <ele>1044.6099999999999</ele>
        <time>2025-05-13T13:09:16Z</time>
      </trkpt>
      <trkpt lat="40.347350975498557" lon="-1.037753960117698">
        <ele>1040.28</ele>
        <time>2025-05-13T13:09:29Z</time>
      </trkpt>
      <trkpt lat="40.349360033869743" lon="-1.0411730222404">
        <ele>1036.4400000000001</ele>
        <time>2025-05-13T13:09:40Z</time>
      </trkpt>
      <trkpt lat="40.351661033928394" lon="-1.044371975585818">
        <ele>1031.6300000000001</ele>
        <time>2025-05-13T13:09:51Z</time>
      </trkpt>
      <trkpt lat="40.354378027841449" lon="-1.047423994168639">
        <ele>1026.3399999999999</ele>
        <time>2025-05-13T13:10:03Z</time>
      </trkpt>
      <trkpt lat="40.357112037017941" lon="-1.050393031910062">
        <ele>1021.0599999999999</ele>
        <time>2025-05-13T13:10:15Z</time>
      </trkpt>
      <trkpt lat="40.358811970800161" lon="-1.053083958104253">
        <ele>1016.25</ele>
        <time>2025-05-13T13:10:24Z</time>
      </trkpt>
      <trkpt lat="40.359948975965381" lon="-1.055821990594268">
        <ele>1013.37</ele>
        <time>2025-05-13T13:10:32Z</time>
      </trkpt>
      <trkpt lat="40.360692031681538" lon="-1.058778958395124">
        <ele>1011.4400000000001</ele>
        <time>2025-05-13T13:10:40Z</time>
      </trkpt>
      <trkpt lat="40.360964024439454" lon="-1.06205896474421">
        <ele>1009.52</ele>
        <time>2025-05-13T13:10:49Z</time>
      </trkpt>
      <trkpt lat="40.360790016129613" lon="-1.065351963043213">
        <ele>1006.64</ele>
        <time>2025-05-13T13:10:58Z</time>
      </trkpt>
      <trkpt lat="40.360088031738997" lon="-1.07028303667903">
        <ele>1000.87</ele>
        <time>2025-05-13T13:11:11Z</time>
      </trkpt>
      <trkpt lat="40.359158981591463" lon="-1.074764002114534">
        <ele>995.58000000000004</ele>
        <time>2025-05-13T13:11:23Z</time>
      </trkpt>
      <trkpt lat="40.358063969761133" lon="-1.0795440338552">
        <ele>987.88999999999999</ele>
        <time>2025-05-13T13:11:36Z</time>
      </trkpt>
      <trkpt lat="40.357850985601544" lon="-1.082350965589285">
        <ele>978.75999999999999</ele>
        <time>2025-05-13T13:11:43Z</time>
      </trkpt>
      <trkpt lat="40.358248958364129" lon="-1.085547991096973">
        <ele>965.77999999999997</ele>
        <time>2025-05-13T13:11:51Z</time>
      </trkpt>
      <trkpt lat="40.359089998528361" lon="-1.088172029703856">
        <ele>954.25</ele>
        <time>2025-05-13T13:11:58Z</time>
      </trkpt>
      <trkpt lat="40.360344015061855" lon="-1.090440005064011">
        <ele>942.23000000000002</ele>
        <time>2025-05-13T13:12:05Z</time>
      </trkpt>
      <trkpt lat="40.361994998529553" lon="-1.092387959361076">
        <ele>932.13999999999999</ele>
        <time>2025-05-13T13:12:13Z</time>
      </trkpt>
      <trkpt lat="40.364101035520434" lon="-1.094204988330603">
        <ele>923</ele>
        <time>2025-05-13T13:12:23Z</time>
      </trkpt>
      <trkpt lat="40.36538396961987" lon="-1.095005040988326">
        <ele>917.24000000000001</ele>
        <time>2025-05-13T13:12:30Z</time>
      </trkpt>
      <trkpt lat="40.366583000868559" lon="-1.095912968739867">
        <ele>908.10000000000002</ele>
        <time>2025-05-13T13:12:39Z</time>
      </trkpt>
      <trkpt lat="40.366734964773059" lon="-1.096021011471748">
        <ele>907.62</ele>
        <time>2025-05-13T13:12:41Z</time>
      </trkpt>
      <trkpt lat="40.366814006119967" lon="-1.096077002584934">
        <ele>907.62</ele>
        <time>2025-05-13T13:12:42Z</time>
      </trkpt>
      <trkpt lat="40.367135033011436" lon="-1.096147997304797">
        <ele>908.10000000000002</ele>
        <time>2025-05-13T13:12:45Z</time>
      </trkpt>
      <trkpt lat="40.367234023287892" lon="-1.096193008124828">
        <ele>908.58000000000004</ele>
        <time>2025-05-13T13:12:46Z</time>
      </trkpt>
      <trkpt lat="40.367319015786052" lon="-1.096285041421652">
        <ele>908.58000000000004</ele>
        <time>2025-05-13T13:12:47Z</time>
      </trkpt>
      <trkpt lat="40.367385987192392" lon="-1.096406998112798">
        <ele>908.58000000000004</ele>
        <time>2025-05-13T13:12:48Z</time>
      </trkpt>
      <trkpt lat="40.367452958598733" lon="-1.096535995602608">
        <ele>908.58000000000004</ele>
        <time>2025-05-13T13:12:49Z</time>
      </trkpt>
      <trkpt lat="40.367481959983706" lon="-1.096702041104436">
        <ele>908.58000000000004</ele>
        <time>2025-05-13T13:12:50Z</time>
      </trkpt>
      <trkpt lat="40.367462011054158" lon="-1.09688401222229">
        <ele>908.58000000000004</ele>
        <time>2025-05-13T13:12:51Z</time>
      </trkpt>
      <trkpt lat="40.367446001619101" lon="-1.097029019147158">
        <ele>908.58000000000004</ele>
        <time>2025-05-13T13:12:52Z</time>
      </trkpt>
      <trkpt lat="40.367400990799069" lon="-1.09716396778822">
        <ele>908.10000000000002</ele>
        <time>2025-05-13T13:12:53Z</time>
      </trkpt>
      <trkpt lat="40.367319015786052" lon="-1.0972910374403">
        <ele>907.13999999999999</ele>
        <time>2025-05-13T13:12:54Z</time>
      </trkpt>
      <trkpt lat="40.367218013852835" lon="-1.097408970817924">
        <ele>906.65999999999997</ele>
        <time>2025-05-13T13:12:55Z</time>
      </trkpt>
      <trkpt lat="40.367107037454844" lon="-1.097493041306734">
        <ele>906.17999999999995</ele>
        <time>2025-05-13T13:12:56Z</time>
      </trkpt>
      <trkpt lat="40.366965970024467" lon="-1.097517013549805">
        <ele>905.70000000000005</ele>
        <time>2025-05-13T13:12:57Z</time>
      </trkpt>
      <trkpt lat="40.366835966706276" lon="-1.097540985792875">
        <ele>905.70000000000005</ele>
        <time>2025-05-13T13:12:58Z</time>
      </trkpt>
      <trkpt lat="40.366731025278568" lon="-1.097646011039615">
        <ele>905.22000000000003</ele>
        <time>2025-05-13T13:12:59Z</time>
      </trkpt>
      <trkpt lat="40.366602027788758" lon="-1.097752964124084">
        <ele>905.22000000000003</ele>
        <time>2025-05-13T13:13:00Z</time>
      </trkpt>
      <trkpt lat="40.366538995876908" lon="-1.097880033776164">
        <ele>904.74000000000001</ele>
        <time>2025-05-13T13:13:01Z</time>
      </trkpt>
      <trkpt lat="40.366460960358381" lon="-1.098037026822567">
        <ele>904.74000000000001</ele>
        <time>2025-05-13T13:13:02Z</time>
      </trkpt>
      <trkpt lat="40.366385020315647" lon="-1.098214974626899">
        <ele>904.74000000000001</ele>
        <time>2025-05-13T13:13:03Z</time>
      </trkpt>
      <trkpt lat="40.365966008976102" lon="-1.099719023332">
        <ele>904.25999999999999</ele>
        <time>2025-05-13T13:13:10Z</time>
      </trkpt>
      <trkpt lat="40.365937007591128" lon="-1.099967965856195">
        <ele>904.74000000000001</ele>
        <time>2025-05-13T13:13:11Z</time>
      </trkpt>
      <trkpt lat="40.365922003984451" lon="-1.100226966664195">
        <ele>905.22000000000003</ele>
        <time>2025-05-13T13:13:12Z</time>
      </trkpt>
      <trkpt lat="40.365946982055902" lon="-1.100489990785718">
        <ele>906.17999999999995</ele>
        <time>2025-05-13T13:13:13Z</time>
      </trkpt>
      <trkpt lat="40.365971960127354" lon="-1.100757038220763">
        <ele>907.13999999999999</ele>
        <time>2025-05-13T13:13:14Z</time>
      </trkpt>
      <trkpt lat="40.365997022017837" lon="-1.101028025150299">
        <ele>908.10000000000002</ele>
        <time>2025-05-13T13:13:15Z</time>
      </trkpt>
      <trkpt lat="40.366023005917668" lon="-1.101299012079835">
        <ele>909.53999999999996</ele>
        <time>2025-05-13T13:13:16Z</time>
      </trkpt>
      <trkpt lat="40.366041027009487" lon="-1.101578967645764">
        <ele>910.99000000000001</ele>
        <time>2025-05-13T13:13:17Z</time>
      </trkpt>
      <trkpt lat="40.366022000089288" lon="-1.101861018687487">
        <ele>912.42999999999995</ele>
        <time>2025-05-13T13:13:18Z</time>
      </trkpt>
      <trkpt lat="40.366002973169088" lon="-1.102149020880461">
        <ele>913.87</ele>
        <time>2025-05-13T13:13:19Z</time>
      </trkpt>
      <trkpt lat="40.365903982892632" lon="-1.102422019466758">
        <ele>915.30999999999995</ele>
        <time>2025-05-13T13:13:20Z</time>
      </trkpt>
      <trkpt lat="40.365813039243221" lon="-1.102681020274758">
        <ele>916.75</ele>
        <time>2025-05-13T13:13:21Z</time>
      </trkpt>
      <trkpt lat="40.36570399068296" lon="-1.102923005819321">
        <ele>917.72000000000003</ele>
        <time>2025-05-13T13:13:22Z</time>
      </trkpt>
      <trkpt lat="40.36557599902153" lon="-1.103141019120812">
        <ele>918.67999999999995</ele>
        <time>2025-05-13T13:13:23Z</time>
      </trkpt>
      <trkpt lat="40.364261968061328" lon="-1.105303969234228">
        <ele>925.88999999999999</ele>
        <time>2025-05-13T13:13:33Z</time>
      </trkpt>
      <trkpt lat="40.363273993134499" lon="-1.106701986864209">
        <ele>937.41999999999996</ele>
        <time>2025-05-13T13:13:40Z</time>
      </trkpt>
      <trkpt lat="40.363114988431334" lon="-1.106808017939329">
        <ele>938.86000000000001</ele>
        <time>2025-05-13T13:13:41Z</time>
      </trkpt>
      <trkpt lat="40.362961012870073" lon="-1.106911031529307">
        <ele>940.30999999999995</ele>
        <time>2025-05-13T13:13:42Z</time>
      </trkpt>
      <trkpt lat="40.361551009118557" lon="-1.107375975698233">
        <ele>948</ele>
        <time>2025-05-13T13:13:51Z</time>
      </trkpt>
      <trkpt lat="40.360857993364334" lon="-1.107587032020092">
        <ele>950.39999999999998</ele>
        <time>2025-05-13T13:13:58Z</time>
      </trkpt>
      <trkpt lat="40.360843995586038" lon="-1.10773497261107">
        <ele>950.39999999999998</ele>
        <time>2025-05-13T13:13:59Z</time>
      </trkpt>
      <trkpt lat="40.360605027526617" lon="-1.107853995636106">
        <ele>950.88</ele>
        <time>2025-05-13T13:14:06Z</time>
      </trkpt>
      <trkpt lat="40.360549036413431" lon="-1.107870005071163">
        <ele>950.88</ele>
        <time>2025-05-13T13:14:09Z</time>
      </trkpt>
      <trkpt lat="40.360549036413431" lon="-1.107870005071163">
        <ele>951.36000000000001</ele>
        <time>2025-05-13T13:14:20Z</time>
      </trkpt>
      <trkpt lat="40.360565967857838" lon="-1.10803596675396">
        <ele>972.99000000000001</ele>
        <time>2025-05-13T13:19:35Z</time>
      </trkpt>
      <trkpt lat="40.360544007271528" lon="-1.108087012544274">
        <ele>958.09000000000003</ele>
        <time>2025-05-13T13:20:26Z</time>
      </trkpt>
      <trkpt lat="40.360536966472864" lon="-1.108080977573991">
        <ele>960.00999999999999</ele>
        <time>2025-05-13T13:21:17Z</time>
      </trkpt>
      <trkpt lat="40.360536966472864" lon="-1.108075026422739">
        <ele>960.00999999999999</ele>
        <time>2025-05-13T13:21:53Z</time>
      </trkpt>
      <trkpt lat="40.360500002279878" lon="-1.108006965368986">
        <ele>958.57000000000005</ele>
        <time>2025-05-13T13:22:01Z</time>
      </trkpt>
      <trkpt lat="40.360303027555346" lon="-1.107874028384686">
        <ele>956.64999999999998</ele>
        <time>2025-05-13T13:22:11Z</time>
      </trkpt>
      <trkpt lat="40.360296992585063" lon="-1.107849972322583">
        <ele>956.64999999999998</ele>
        <time>2025-05-13T13:22:12Z</time>
      </trkpt>
      <trkpt lat="40.360296992585063" lon="-1.107849972322583">
        <ele>956.16999999999996</ele>
        <time>2025-05-13T13:22:29Z</time>
      </trkpt>
      <trkpt lat="40.360296992585063" lon="-1.107849972322583">
        <ele>955.69000000000005</ele>
        <time>2025-05-13T13:23:02Z</time>
      </trkpt>
      <trkpt lat="40.360296992585063" lon="-1.107849972322583">
        <ele>955.21000000000004</ele>
        <time>2025-05-13T13:23:51Z</time>
      </trkpt>
      <trkpt lat="40.360284000635147" lon="-1.107800016179681">
        <ele>955.21000000000004</ele>
        <time>2025-05-13T13:24:00Z</time>
      </trkpt>
      <trkpt lat="40.360276959836483" lon="-1.107770008966327">
        <ele>955.21000000000004</ele>
        <time>2025-05-13T13:24:01Z</time>
      </trkpt>
      <trkpt lat="40.360285006463528" lon="-1.107748970389366">
        <ele>954.73000000000002</ele>
        <time>2025-05-13T13:24:02Z</time>
      </trkpt>
      <trkpt lat="40.360340997576714" lon="-1.107731033116579">
        <ele>953.76999999999998</ele>
        <time>2025-05-13T13:24:03Z</time>
      </trkpt>
      <trkpt lat="40.36041802726686" lon="-1.107707982882857">
        <ele>953.27999999999997</ele>
        <time>2025-05-13T13:24:04Z</time>
      </trkpt>
      <trkpt lat="40.3605040255934" lon="-1.107680993154645">
        <ele>952.79999999999995</ele>
        <time>2025-05-13T13:24:05Z</time>
      </trkpt>
      <trkpt lat="40.361198969185352" lon="-1.107484018430114">
        <ele>950.39999999999998</ele>
        <time>2025-05-13T13:24:10Z</time>
      </trkpt>
      <trkpt lat="40.362756997346878" lon="-1.107002981007099">
        <ele>948.48000000000002</ele>
        <time>2025-05-13T13:24:18Z</time>
      </trkpt>
      <trkpt lat="40.363317998126149" lon="-1.106672985479236">
        <ele>946.07000000000005</ele>
        <time>2025-05-13T13:24:21Z</time>
      </trkpt>
      <trkpt lat="40.363474991172552" lon="-1.106491014361382">
        <ele>944.63</ele>
        <time>2025-05-13T13:24:22Z</time>
      </trkpt>
      <trkpt lat="40.363623015582561" lon="-1.106305019930005">
        <ele>943.66999999999996</ele>
        <time>2025-05-13T13:24:23Z</time>
      </trkpt>
      <trkpt lat="40.364935034886003" lon="-1.104214992374182">
        <ele>928.28999999999996</ele>
        <time>2025-05-13T13:24:32Z</time>
      </trkpt>
      <trkpt lat="40.365795018151402" lon="-1.102731982246041">
        <ele>923.48000000000002</ele>
        <time>2025-05-13T13:24:39Z</time>
      </trkpt>
      <trkpt lat="40.366014959290624" lon="-1.10197501257062">
        <ele>921.08000000000004</ele>
        <time>2025-05-13T13:24:43Z</time>
      </trkpt>
      <trkpt lat="40.366028035059571" lon="-1.101778959855437">
        <ele>920.12</ele>
        <time>2025-05-13T13:24:44Z</time>
      </trkpt>
      <trkpt lat="40.366041027009487" lon="-1.101577039808035">
        <ele>919.63999999999999</ele>
        <time>2025-05-13T13:24:45Z</time>
      </trkpt>
      <trkpt lat="40.366029040887952" lon="-1.101367995142937">
        <ele>918.67999999999995</ele>
        <time>2025-05-13T13:24:46Z</time>
      </trkpt>
      <trkpt lat="40.366010013967752" lon="-1.101157022640109">
        <ele>917.72000000000003</ele>
        <time>2025-05-13T13:24:47Z</time>
      </trkpt>
      <trkpt lat="40.365989981219172" lon="-1.10094697214663">
        <ele>916.75</ele>
        <time>2025-05-13T13:24:48Z</time>
      </trkpt>
      <trkpt lat="40.365922003984451" lon="-1.100100986659527">
        <ele>912.90999999999997</ele>
        <time>2025-05-13T13:24:52Z</time>
      </trkpt>
      <trkpt lat="40.365946982055902" lon="-1.099880039691925">
        <ele>911.95000000000005</ele>
        <time>2025-05-13T13:24:53Z</time>
      </trkpt>
      <trkpt lat="40.365972965955734" lon="-1.09965699724853">
        <ele>911.47000000000003</ele>
        <time>2025-05-13T13:24:54Z</time>
      </trkpt>
      <trkpt lat="40.365998027846217" lon="-1.099436972290278">
        <ele>910.99000000000001</ele>
        <time>2025-05-13T13:24:55Z</time>
      </trkpt>
      <trkpt lat="40.366058964282274" lon="-1.099228011444211">
        <ele>910.50999999999999</ele>
        <time>2025-05-13T13:24:56Z</time>
      </trkpt>
      <trkpt lat="40.366125013679266" lon="-1.099022990092635">
        <ele>910.50999999999999</ele>
        <time>2025-05-13T13:24:57Z</time>
      </trkpt>
      <trkpt lat="40.366188967600465" lon="-1.098821992054582">
        <ele>910.02999999999997</ele>
        <time>2025-05-13T13:24:58Z</time>
      </trkpt>
      <trkpt lat="40.366464983671904" lon="-1.097906017675996">
        <ele>909.05999999999995</ele>
        <time>2025-05-13T13:25:03Z</time>
      </trkpt>
      <trkpt lat="40.366503959521651" lon="-1.097740978002548">
        <ele>908.58000000000004</ele>
        <time>2025-05-13T13:25:04Z</time>
      </trkpt>
      <trkpt lat="40.366517035290599" lon="-1.097574010491371">
        <ele>908.58000000000004</ele>
        <time>2025-05-13T13:25:05Z</time>
      </trkpt>
      <trkpt lat="40.366517035290599" lon="-1.097395978868008">
        <ele>908.58000000000004</ele>
        <time>2025-05-13T13:25:06Z</time>
      </trkpt>
      <trkpt lat="40.3664789814502" lon="-1.097213001921773">
        <ele>908.58000000000004</ele>
        <time>2025-05-13T13:25:07Z</time>
      </trkpt>
      <trkpt lat="40.366403041407466" lon="-1.097066989168525">
        <ele>909.05999999999995</ele>
        <time>2025-05-13T13:25:08Z</time>
      </trkpt>
      <trkpt lat="40.366372028365731" lon="-1.096893986687064">
        <ele>909.05999999999995</ele>
        <time>2025-05-13T13:25:09Z</time>
      </trkpt>
      <trkpt lat="40.366389965638518" lon="-1.096756020560861">
        <ele>910.02999999999997</ele>
        <time>2025-05-13T13:25:10Z</time>
      </trkpt>
      <trkpt lat="40.366406980901957" lon="-1.09662501141429">
        <ele>910.50999999999999</ele>
        <time>2025-05-13T13:25:11Z</time>
      </trkpt>
      <trkpt lat="40.366422990337014" lon="-1.096502970904112">
        <ele>910.99000000000001</ele>
        <time>2025-05-13T13:25:12Z</time>
      </trkpt>
      <trkpt lat="40.366474036127329" lon="-1.096380008384585">
        <ele>911.47000000000003</ele>
        <time>2025-05-13T13:25:13Z</time>
      </trkpt>
      <trkpt lat="40.366513011977077" lon="-1.096300967037678">
        <ele>912.90999999999997</ele>
        <time>2025-05-13T13:25:14Z</time>
      </trkpt>
      <trkpt lat="40.366574032232165" lon="-1.096228966489434">
        <ele>913.87</ele>
        <time>2025-05-13T13:25:15Z</time>
      </trkpt>
      <trkpt lat="40.366653995588422" lon="-1.096180016174913">
        <ele>914.83000000000004</ele>
        <time>2025-05-13T13:25:16Z</time>
      </trkpt>
      <trkpt lat="40.366737982258201" lon="-1.096127964556217">
        <ele>915.78999999999996</ele>
        <time>2025-05-13T13:25:17Z</time>
      </trkpt>
      <trkpt lat="40.36682297475636" lon="-1.096078008413315">
        <ele>916.75</ele>
        <time>2025-05-13T13:25:18Z</time>
      </trkpt>
      <trkpt lat="40.366920959204435" lon="-1.096058981493115">
        <ele>917.72000000000003</ele>
        <time>2025-05-13T13:25:20Z</time>
      </trkpt>
      <trkpt lat="40.367109971120954" lon="-1.096138022840023">
        <ele>918.20000000000005</ele>
        <time>2025-05-13T13:25:21Z</time>
      </trkpt>
      <trkpt lat="40.367224970832467" lon="-1.096186973154545">
        <ele>918.20000000000005</ele>
        <time>2025-05-13T13:25:22Z</time>
      </trkpt>
      <trkpt lat="40.367296971380711" lon="-1.096244975924492">
        <ele>918.20000000000005</ele>
        <time>2025-05-13T13:25:23Z</time>
      </trkpt>
      <trkpt lat="40.367363020777702" lon="-1.096363998949528">
        <ele>917.72000000000003</ele>
        <time>2025-05-13T13:25:24Z</time>
      </trkpt>
      <trkpt lat="40.367435021325946" lon="-1.096500959247351">
        <ele>917.72000000000003</ele>
        <time>2025-05-13T13:25:25Z</time>
      </trkpt>
      <trkpt lat="40.367518002167344" lon="-1.096654012799263">
        <ele>917.72000000000003</ele>
        <time>2025-05-13T13:25:26Z</time>
      </trkpt>
      <trkpt lat="40.367611041292548" lon="-1.096817962825298">
        <ele>917.24000000000001</ele>
        <time>2025-05-13T13:25:27Z</time>
      </trkpt>
      <trkpt lat="40.36772302351892" lon="-1.096979985013604">
        <ele>916.75</ele>
        <time>2025-05-13T13:25:28Z</time>
      </trkpt>
      <trkpt lat="40.368914008140564" lon="-1.098454026505351">
        <ele>916.75</ele>
        <time>2025-05-13T13:25:36Z</time>
      </trkpt>
      <trkpt lat="40.37056197412312" lon="-1.10064497217536">
        <ele>914.83000000000004</ele>
        <time>2025-05-13T13:25:45Z</time>
      </trkpt>
      <trkpt lat="40.372502971440554" lon="-1.103524994105101">
        <ele>912.42999999999995</ele>
        <time>2025-05-13T13:25:55Z</time>
      </trkpt>
      <trkpt lat="40.37436299957335" lon="-1.107011027634144">
        <ele>912.42999999999995</ele>
        <time>2025-05-13T13:26:06Z</time>
      </trkpt>
      <trkpt lat="40.375894038006663" lon="-1.110761007294059">
        <ele>915.78999999999996</ele>
        <time>2025-05-13T13:26:17Z</time>
      </trkpt>
      <trkpt lat="40.377098014578223" lon="-1.114735035225749">
        <ele>922.51999999999998</ele>
        <time>2025-05-13T13:26:28Z</time>
      </trkpt>
      <trkpt lat="40.37846895866096" lon="-1.120274970307946">
        <ele>934.53999999999996</ele>
        <time>2025-05-13T13:26:43Z</time>
      </trkpt>
      <trkpt lat="40.37999102845788" lon="-1.126138027757406">
        <ele>946.55999999999995</ele>
        <time>2025-05-13T13:26:59Z</time>
      </trkpt>
      <trkpt lat="40.38158300332725" lon="-1.130307018756867">
        <ele>955.21000000000004</ele>
        <time>2025-05-13T13:27:11Z</time>
      </trkpt>
      <trkpt lat="40.383095014840364" lon="-1.133183017373085">
        <ele>959.52999999999997</ele>
        <time>2025-05-13T13:27:20Z</time>
      </trkpt>
      <trkpt lat="40.385179007425904" lon="-1.136944983154535">
        <ele>964.82000000000005</ele>
        <time>2025-05-13T13:27:32Z</time>
      </trkpt>
      <trkpt lat="40.386681966483593" lon="-1.140288021415472">
        <ele>967.22000000000003</ele>
        <time>2025-05-13T13:27:42Z</time>
      </trkpt>
      <trkpt lat="40.387974958866835" lon="-1.143790986388922">
        <ele>969.63</ele>
        <time>2025-05-13T13:27:52Z</time>
      </trkpt>
      <trkpt lat="40.389978988096118" lon="-1.148530030623078">
        <ele>976.36000000000001</ele>
        <time>2025-05-13T13:28:06Z</time>
      </trkpt>
      <trkpt lat="40.391975976526737" lon="-1.151885977014899">
        <ele>981.63999999999999</ele>
        <time>2025-05-13T13:28:17Z</time>
      </trkpt>
      <trkpt lat="40.395434014499187" lon="-1.156695010140538">
        <ele>989.80999999999995</ele>
        <time>2025-05-13T13:28:34Z</time>
      </trkpt>
      <trkpt lat="40.397413987666368" lon="-1.1600730009377">
        <ele>993.17999999999995</ele>
        <time>2025-05-13T13:28:45Z</time>
      </trkpt>
      <trkpt lat="40.400129975751042" lon="-1.165644032880664">
        <ele>997.01999999999998</ele>
        <time>2025-05-13T13:29:02Z</time>
      </trkpt>
      <trkpt lat="40.402173986658454" lon="-1.16943902336061">
        <ele>999.90999999999997</ele>
        <time>2025-05-13T13:29:14Z</time>
      </trkpt>
      <trkpt lat="40.404843036085367" lon="-1.17307098582387">
        <ele>1001.83</ele>
        <time>2025-05-13T13:29:27Z</time>
      </trkpt>
      <trkpt lat="40.407884996384382" lon="-1.176750976592302">
        <ele>1005.6799999999999</ele>
        <time>2025-05-13T13:29:41Z</time>
      </trkpt>
      <trkpt lat="40.410240981727839" lon="-1.180242961272597">
        <ele>1006.64</ele>
        <time>2025-05-13T13:29:53Z</time>
      </trkpt>
      <trkpt lat="40.412614988163114" lon="-1.184702971950173">
        <ele>1009.04</ele>
        <time>2025-05-13T13:30:07Z</time>
      </trkpt>
      <trkpt lat="40.415208013728261" lon="-1.189431035891175">
        <ele>1010.96</ele>
        <time>2025-05-13T13:30:22Z</time>
      </trkpt>
      <trkpt lat="40.417993990704417" lon="-1.19346097111702">
        <ele>1010.48</ele>
        <time>2025-05-13T13:30:36Z</time>
      </trkpt>
      <trkpt lat="40.42066203430295" lon="-1.196565963327885">
        <ele>1010.48</ele>
        <time>2025-05-13T13:30:48Z</time>
      </trkpt>
      <trkpt lat="40.424440009519458" lon="-1.200315020978451">
        <ele>1006.64</ele>
        <time>2025-05-13T13:31:04Z</time>
      </trkpt>
      <trkpt lat="40.427349032834172" lon="-1.20362201705575">
        <ele>1005.6799999999999</ele>
        <time>2025-05-13T13:31:17Z</time>
      </trkpt>
      <trkpt lat="40.429691020399332" lon="-1.207104027271271">
        <ele>1007.12</ele>
        <time>2025-05-13T13:31:29Z</time>
      </trkpt>
      <trkpt lat="40.432066032662988" lon="-1.211556997150183">
        <ele>1009.52</ele>
        <time>2025-05-13T13:31:43Z</time>
      </trkpt>
      <trkpt lat="40.434507010504603" lon="-1.215957999229431">
        <ele>1011.9299999999999</ele>
        <time>2025-05-13T13:31:57Z</time>
      </trkpt>
      <trkpt lat="40.437172036617994" lon="-1.21960798278451">
        <ele>1012.41</ele>
        <time>2025-05-13T13:32:10Z</time>
      </trkpt>
      <trkpt lat="40.43997704051435" lon="-1.222460009157658">
        <ele>1010.48</ele>
        <time>2025-05-13T13:32:22Z</time>
      </trkpt>
      <trkpt lat="40.442753965035081" lon="-1.224686997011304">
        <ele>1011.9299999999999</ele>
        <time>2025-05-13T13:32:33Z</time>
      </trkpt>
      <trkpt lat="40.446009999141097" lon="-1.226597987115383">
        <ele>1016.25</ele>
        <time>2025-05-13T13:32:45Z</time>
      </trkpt>
      <trkpt lat="40.44902203604579" lon="-1.228190967813134">
        <ele>1021.0599999999999</ele>
        <time>2025-05-13T13:32:56Z</time>
      </trkpt>
      <trkpt lat="40.452499017119408" lon="-1.230364982038736">
        <ele>1025.8599999999999</ele>
        <time>2025-05-13T13:33:09Z</time>
      </trkpt>
      <trkpt lat="40.45718701556325" lon="-1.233726963400841">
        <ele>1028.75</ele>
        <time>2025-05-13T13:33:27Z</time>
      </trkpt>
      <trkpt lat="40.462124962359667" lon="-1.237306036055088">
        <ele>1024.9000000000001</ele>
        <time>2025-05-13T13:33:46Z</time>
      </trkpt>
      <trkpt lat="40.46524696983397" lon="-1.239541992545128">
        <ele>1023.46</ele>
        <time>2025-05-13T13:33:58Z</time>
      </trkpt>
      <trkpt lat="40.468220030888915" lon="-1.241338988766074">
        <ele>1022.5</ele>
        <time>2025-05-13T13:34:09Z</time>
      </trkpt>
      <trkpt lat="40.471326028928161" lon="-1.242680009454489">
        <ele>1021.0599999999999</ele>
        <time>2025-05-13T13:34:20Z</time>
      </trkpt>
      <trkpt lat="40.474524982273579" lon="-1.24352197162807">
        <ele>1018.17</ele>
        <time>2025-05-13T13:34:31Z</time>
      </trkpt>
      <trkpt lat="40.478070024400949" lon="-1.243804022669792">
        <ele>1016.73</ele>
        <time>2025-05-13T13:34:43Z</time>
      </trkpt>
      <trkpt lat="40.483407033607364" lon="-1.243939977139235">
        <ele>1019.13</ele>
        <time>2025-05-13T13:35:01Z</time>
      </trkpt>
      <trkpt lat="40.486929025501013" lon="-1.244557974860072">
        <ele>1021.54</ele>
        <time>2025-05-13T13:35:13Z</time>
      </trkpt>
      <trkpt lat="40.490369964390993" lon="-1.245759017765522">
        <ele>1022.5</ele>
        <time>2025-05-13T13:35:25Z</time>
      </trkpt>
      <trkpt lat="40.493407985195518" lon="-1.247369013726711">
        <ele>1022.02</ele>
        <time>2025-05-13T13:35:36Z</time>
      </trkpt>
      <trkpt lat="40.497331973165274" lon="-1.250150967389345">
        <ele>1018.17</ele>
        <time>2025-05-13T13:35:51Z</time>
      </trkpt>
      <trkpt lat="40.499726012349129" lon="-1.251674965023994">
        <ele>1014.8099999999999</ele>
        <time>2025-05-13T13:36:00Z</time>
      </trkpt>
      <trkpt lat="40.503393011167645" lon="-1.253243973478675">
        <ele>1011.9299999999999</ele>
        <time>2025-05-13T13:36:13Z</time>
      </trkpt>
      <trkpt lat="40.50690402276814" lon="-1.253922991454601">
        <ele>1010</ele>
        <time>2025-05-13T13:36:25Z</time>
      </trkpt>
      <trkpt lat="40.51017195917666" lon="-1.253922991454601">
        <ele>1009.52</ele>
        <time>2025-05-13T13:36:36Z</time>
      </trkpt>
      <trkpt lat="40.514020007103682" lon="-1.253648987039924">
        <ele>1012.89</ele>
        <time>2025-05-13T13:36:49Z</time>
      </trkpt>
      <trkpt lat="40.517263971269131" lon="-1.253883009776473">
        <ele>1016.73</ele>
        <time>2025-05-13T13:37:00Z</time>
      </trkpt>
      <trkpt lat="40.520178023725748" lon="-1.254593962803483">
        <ele>1019.62</ele>
        <time>2025-05-13T13:37:10Z</time>
      </trkpt>
      <trkpt lat="40.523287961259484" lon="-1.255974965170026">
        <ele>1019.62</ele>
        <time>2025-05-13T13:37:21Z</time>
      </trkpt>
      <trkpt lat="40.526217017322779" lon="-1.25787396915257">
        <ele>1015.77</ele>
        <time>2025-05-13T13:37:32Z</time>
      </trkpt>
      <trkpt lat="40.53053897805512" lon="-1.261288002133369">
        <ele>1011.4400000000001</ele>
        <time>2025-05-13T13:37:49Z</time>
      </trkpt>
      <trkpt lat="40.534348972141743" lon="-1.26429702155292">
        <ele>1009.52</ele>
        <time>2025-05-13T13:38:04Z</time>
      </trkpt>
      <trkpt lat="40.537720005959272" lon="-1.266771024093032">
        <ele>1010.96</ele>
        <time>2025-05-13T13:38:17Z</time>
      </trkpt>
      <trkpt lat="40.540759032592177" lon="-1.268317988142371">
        <ele>1012.41</ele>
        <time>2025-05-13T13:38:28Z</time>
      </trkpt>
      <trkpt lat="40.544483028352261" lon="-1.269580973312259">
        <ele>1012.89</ele>
        <time>2025-05-13T13:38:41Z</time>
      </trkpt>
      <trkpt lat="40.547606041654944" lon="-1.270773969590664">
        <ele>1013.37</ele>
        <time>2025-05-13T13:38:52Z</time>
      </trkpt>
      <trkpt lat="40.550846988335252" lon="-1.27271999605">
        <ele>1012.89</ele>
        <time>2025-05-13T13:39:04Z</time>
      </trkpt>
      <trkpt lat="40.554449027404189" lon="-1.275456016883254">
        <ele>1010.48</ele>
        <time>2025-05-13T13:39:18Z</time>
      </trkpt>
      <trkpt lat="40.557120004668832" lon="-1.277134995907545">
        <ele>1009.04</ele>
        <time>2025-05-13T13:39:28Z</time>
      </trkpt>
      <trkpt lat="40.560524985194206" lon="-1.278492026031017">
        <ele>1006.64</ele>
        <time>2025-05-13T13:39:40Z</time>
      </trkpt>
      <trkpt lat="40.563744977116585" lon="-1.27918504178524">
        <ele>1003.75</ele>
        <time>2025-05-13T13:39:51Z</time>
      </trkpt>
      <trkpt lat="40.567857977002859" lon="-1.279898006469011">
        <ele>1003.27</ele>
        <time>2025-05-13T13:40:05Z</time>
      </trkpt>
      <trkpt lat="40.571050979197025" lon="-1.280803000554442">
        <ele>1001.35</ele>
        <time>2025-05-13T13:40:16Z</time>
      </trkpt>
      <trkpt lat="40.574767012149096" lon="-1.282229013741016">
        <ele>999.90999999999997</ele>
        <time>2025-05-13T13:40:29Z</time>
      </trkpt>
      <trkpt lat="40.578487990424037" lon="-1.283524017781019">
        <ele>998.47000000000003</ele>
        <time>2025-05-13T13:40:42Z</time>
      </trkpt>
      <trkpt lat="40.581693984568119" lon="-1.284325998276472">
        <ele>995.58000000000004</ele>
        <time>2025-05-13T13:40:53Z</time>
      </trkpt>
      <trkpt lat="40.5852419603616" lon="-1.28479303792119">
        <ele>993.17999999999995</ele>
        <time>2025-05-13T13:41:05Z</time>
      </trkpt>
      <trkpt lat="40.589391002431512" lon="-1.285012979060412">
        <ele>991.74000000000001</ele>
        <time>2025-05-13T13:41:19Z</time>
      </trkpt>
      <trkpt lat="40.593253970146179" lon="-1.285186987370253">
        <ele>991.74000000000001</ele>
        <time>2025-05-13T13:41:32Z</time>
      </trkpt>
      <trkpt lat="40.597108975052834" lon="-1.285368036478758">
        <ele>993.17999999999995</ele>
        <time>2025-05-13T13:41:45Z</time>
      </trkpt>
      <trkpt lat="40.601560017094016" lon="-1.285585965961218">
        <ele>995.58000000000004</ele>
        <time>2025-05-13T13:42:00Z</time>
      </trkpt>
      <trkpt lat="40.605397000908852" lon="-1.285917973145843">
        <ele>996.05999999999995</ele>
        <time>2025-05-13T13:42:13Z</time>
      </trkpt>
      <trkpt lat="40.609182016924024" lon="-1.286890022456646">
        <ele>997.99000000000001</ele>
        <time>2025-05-13T13:42:26Z</time>
      </trkpt>
      <trkpt lat="40.612262031063437" lon="-1.28831896930933">
        <ele>998.47000000000003</ele>
        <time>2025-05-13T13:42:37Z</time>
      </trkpt>
      <trkpt lat="40.615135012194514" lon="-1.29033800214529">
        <ele>997.99000000000001</ele>
        <time>2025-05-13T13:42:48Z</time>
      </trkpt>
      <trkpt lat="40.617313971742988" lon="-1.292373966425657">
        <ele>994.62</ele>
        <time>2025-05-13T13:42:57Z</time>
      </trkpt>
      <trkpt lat="40.620415024459362" lon="-1.296005006879568">
        <ele>992.70000000000005</ele>
        <time>2025-05-13T13:43:11Z</time>
      </trkpt>
      <trkpt lat="40.622794982045889" lon="-1.298944037407637">
        <ele>989.80999999999995</ele>
        <time>2025-05-13T13:43:22Z</time>
      </trkpt>
      <trkpt lat="40.626410013064742" lon="-1.302985958755016">
        <ele>988.37</ele>
        <time>2025-05-13T13:43:38Z</time>
      </trkpt>
      <trkpt lat="40.629539983347058" lon="-1.305965976789594">
        <ele>989.33000000000004</ele>
        <time>2025-05-13T13:43:51Z</time>
      </trkpt>
      <trkpt lat="40.633566984906793" lon="-1.309255035594106">
        <ele>988.85000000000002</ele>
        <time>2025-05-13T13:44:07Z</time>
      </trkpt>
      <trkpt lat="40.636726962402463" lon="-1.311424020677805">
        <ele>991.74000000000001</ele>
        <time>2025-05-13T13:44:19Z</time>
      </trkpt>
      <trkpt lat="40.640255995094776" lon="-1.3134999666363">
        <ele>993.17999999999995</ele>
        <time>2025-05-13T13:44:32Z</time>
      </trkpt>
      <trkpt lat="40.642492035403848" lon="-1.314599001780152">
        <ele>991.25999999999999</ele>
        <time>2025-05-13T13:44:40Z</time>
      </trkpt>
      <trkpt lat="40.646743001416326" lon="-1.316382000222802">
        <ele>986.45000000000005</ele>
        <time>2025-05-13T13:44:55Z</time>
      </trkpt>
      <trkpt lat="40.650762962177396" lon="-1.317654959857464">
        <ele>990.29999999999995</ele>
        <time>2025-05-13T13:45:09Z</time>
      </trkpt>
      <trkpt lat="40.654290989041328" lon="-1.318223001435399">
        <ele>997.50999999999999</ele>
        <time>2025-05-13T13:45:21Z</time>
      </trkpt>
      <trkpt lat="40.656975964084268" lon="-1.318191988393664">
        <ele>998.47000000000003</ele>
        <time>2025-05-13T13:45:30Z</time>
      </trkpt>
      <trkpt lat="40.660219006240368" lon="-1.317565022036433">
        <ele>993.17999999999995</ele>
        <time>2025-05-13T13:45:41Z</time>
      </trkpt>
      <trkpt lat="40.664525041356683" lon="-1.316029960289598">
        <ele>982.60000000000002</ele>
        <time>2025-05-13T13:45:56Z</time>
      </trkpt>
      <trkpt lat="40.668232021853328" lon="-1.314691035076976">
        <ele>979.24000000000001</ele>
        <time>2025-05-13T13:46:09Z</time>
      </trkpt>
      <trkpt lat="40.672033969312906" lon="-1.313901962712407">
        <ele>977.32000000000005</ele>
        <time>2025-05-13T13:46:22Z</time>
      </trkpt>
      <trkpt lat="40.675291009247303" lon="-1.313859969377518">
        <ele>976.84000000000003</ele>
        <time>2025-05-13T13:46:33Z</time>
      </trkpt>
      <trkpt lat="40.678524998947978" lon="-1.314444020390511">
        <ele>978.75999999999999</ele>
        <time>2025-05-13T13:46:44Z</time>
      </trkpt>
      <trkpt lat="40.681091034784913" lon="-1.315358988940716">
        <ele>980.67999999999995</ele>
        <time>2025-05-13T13:46:53Z</time>
      </trkpt>
      <trkpt lat="40.68555599078536" lon="-1.317509030923247">
        <ele>979.24000000000001</ele>
        <time>2025-05-13T13:47:09Z</time>
      </trkpt>
      <trkpt lat="40.689470004290342" lon="-1.319333016872406">
        <ele>980.20000000000005</ele>
        <time>2025-05-13T13:47:23Z</time>
      </trkpt>
      <trkpt lat="40.692372992634773" lon="-1.320226024836302">
        <ele>977.79999999999995</ele>
        <time>2025-05-13T13:47:33Z</time>
      </trkpt>
      <trkpt lat="40.695318980142474" lon="-1.320735979825258">
        <ele>977.79999999999995</ele>
        <time>2025-05-13T13:47:43Z</time>
      </trkpt>
      <trkpt lat="40.697975037619472" lon="-1.320821978151798">
        <ele>976.84000000000003</ele>
        <time>2025-05-13T13:47:52Z</time>
      </trkpt>
      <trkpt lat="40.701526030898094" lon="-1.320573035627604">
        <ele>981.63999999999999</ele>
        <time>2025-05-13T13:48:04Z</time>
      </trkpt>
      <trkpt lat="40.705693010240793" lon="-1.320355022326112">
        <ele>984.04999999999995</ele>
        <time>2025-05-13T13:48:18Z</time>
      </trkpt>
      <trkpt lat="40.708936974406242" lon="-1.320703038945794">
        <ele>982.60000000000002</ele>
        <time>2025-05-13T13:48:29Z</time>
      </trkpt>
      <trkpt lat="40.712102986872196" lon="-1.321700988337398">
        <ele>984.52999999999997</ele>
        <time>2025-05-13T13:48:40Z</time>
      </trkpt>
      <trkpt lat="40.715444013476372" lon="-1.323318025097251">
        <ele>985.97000000000003</ele>
        <time>2025-05-13T13:48:52Z</time>
      </trkpt>
      <trkpt lat="40.719916010275483" lon="-1.325416015461087">
        <ele>986.92999999999995</ele>
        <time>2025-05-13T13:49:08Z</time>
      </trkpt>
      <trkpt lat="40.724524967372417" lon="-1.326901959255338">
        <ele>985.49000000000001</ele>
        <time>2025-05-13T13:49:24Z</time>
      </trkpt>
      <trkpt lat="40.728635033592582" lon="-1.327705029398203">
        <ele>987.88999999999999</ele>
        <time>2025-05-13T13:49:38Z</time>
      </trkpt>
      <trkpt lat="40.733052967116237" lon="-1.328459987416863">
        <ele>988.37</ele>
        <time>2025-05-13T13:49:53Z</time>
      </trkpt>
      <trkpt lat="40.737115005031228" lon="-1.32965499535203">
        <ele>985.97000000000003</ele>
        <time>2025-05-13T13:50:07Z</time>
      </trkpt>
      <trkpt lat="40.740540018305182" lon="-1.330908006057143">
        <ele>983.57000000000005</ele>
        <time>2025-05-13T13:50:19Z</time>
      </trkpt>
      <trkpt lat="40.744322016835213" lon="-1.331941997632384">
        <ele>982.60000000000002</ele>
        <time>2025-05-13T13:50:32Z</time>
      </trkpt>
      <trkpt lat="40.747848032042384" lon="-1.332521019503474">
        <ele>985.49000000000001</ele>
        <time>2025-05-13T13:50:44Z</time>
      </trkpt>
      <trkpt lat="40.751999001950026" lon="-1.332715982571244">
        <ele>983.09000000000003</ele>
        <time>2025-05-13T13:50:58Z</time>
      </trkpt>
      <trkpt lat="40.756449038162827" lon="-1.332396967336536">
        <ele>979.24000000000001</ele>
        <time>2025-05-13T13:51:13Z</time>
      </trkpt>
      <trkpt lat="40.760601013898849" lon="-1.332349022850394">
        <ele>976.36000000000001</ele>
        <time>2025-05-13T13:51:27Z</time>
      </trkpt>
      <trkpt lat="40.764447972178459" lon="-1.332738026976585">
        <ele>973.47000000000003</ele>
        <time>2025-05-13T13:51:40Z</time>
      </trkpt>
      <trkpt lat="40.768562983721495" lon="-1.333632962778211">
        <ele>969.63</ele>
        <time>2025-05-13T13:51:54Z</time>
      </trkpt>
      <trkpt lat="40.772576993331313" lon="-1.335013965144754">
        <ele>966.74000000000001</ele>
        <time>2025-05-13T13:52:08Z</time>
      </trkpt>
      <trkpt lat="40.776515984907746" lon="-1.336690010502935">
        <ele>963.38</ele>
        <time>2025-05-13T13:52:22Z</time>
      </trkpt>
      <trkpt lat="40.77966196462512" lon="-1.337773036211729">
        <ele>962.41999999999996</ele>
        <time>2025-05-13T13:52:33Z</time>
      </trkpt>
      <trkpt lat="40.782895032316446" lon="-1.338341999799013">
        <ele>960.00999999999999</ele>
        <time>2025-05-13T13:52:44Z</time>
      </trkpt>
      <trkpt lat="40.786166992038488" lon="-1.338266981765628">
        <ele>958.09000000000003</ele>
        <time>2025-05-13T13:52:55Z</time>
      </trkpt>
      <trkpt lat="40.789391007274389" lon="-1.337580000981689">
        <ele>956.64999999999998</ele>
        <time>2025-05-13T13:53:06Z</time>
      </trkpt>
      <trkpt lat="40.792505973950028" lon="-1.33629203774035">
        <ele>955.69000000000005</ele>
        <time>2025-05-13T13:53:17Z</time>
      </trkpt>
      <trkpt lat="40.796046992763877" lon="-1.334266969934106">
        <ele>953.27999999999997</ele>
        <time>2025-05-13T13:53:30Z</time>
      </trkpt>
      <trkpt lat="40.800364008173347" lon="-1.331663969904184">
        <ele>950.88</ele>
        <time>2025-05-13T13:53:46Z</time>
      </trkpt>
      <trkpt lat="40.803734036162496" lon="-1.330150030553341">
        <ele>947.51999999999998</ele>
        <time>2025-05-13T13:53:58Z</time>
      </trkpt>
      <trkpt lat="40.807206993922591" lon="-1.3292489759624">
        <ele>944.14999999999998</ele>
        <time>2025-05-13T13:54:10Z</time>
      </trkpt>
      <trkpt lat="40.811346983537078" lon="-1.328689986839891">
        <ele>939.35000000000002</ele>
        <time>2025-05-13T13:54:24Z</time>
      </trkpt>
      <trkpt lat="40.815744968131185" lon="-1.327932011336088">
        <ele>936.94000000000005</ele>
        <time>2025-05-13T13:54:39Z</time>
      </trkpt>
      <trkpt lat="40.819162018597126" lon="-1.326600965112448">
        <ele>935.98000000000002</ele>
        <time>2025-05-13T13:54:51Z</time>
      </trkpt>
      <trkpt lat="40.82211596891284" lon="-1.324789971113205">
        <ele>934.53999999999996</ele>
        <time>2025-05-13T13:55:02Z</time>
      </trkpt>
      <trkpt lat="40.824858024716377" lon="-1.322440020740032">
        <ele>934.53999999999996</ele>
        <time>2025-05-13T13:55:13Z</time>
      </trkpt>
      <trkpt lat="40.828040968626738" lon="-1.318902019411326">
        <ele>939.35000000000002</ele>
        <time>2025-05-13T13:55:27Z</time>
      </trkpt>
      <trkpt lat="40.831467993557453" lon="-1.315162014216185">
        <ele>944.63</ele>
        <time>2025-05-13T13:55:42Z</time>
      </trkpt>
      <trkpt lat="40.834479024633765" lon="-1.312683988362551">
        <ele>946.07000000000005</ele>
        <time>2025-05-13T13:55:54Z</time>
      </trkpt>
      <trkpt lat="40.837473962455988" lon="-1.310981959104538">
        <ele>946.55999999999995</ele>
        <time>2025-05-13T13:56:05Z</time>
      </trkpt>
      <trkpt lat="40.840618014335632" lon="-1.30986800417304">
        <ele>948.48000000000002</ele>
        <time>2025-05-13T13:56:16Z</time>
      </trkpt>
      <trkpt lat="40.843573976308107" lon="-1.309371041134">
        <ele>944.63</ele>
        <time>2025-05-13T13:56:26Z</time>
      </trkpt>
      <trkpt lat="40.846537984907627" lon="-1.309344973415136">
        <ele>939.83000000000004</ele>
        <time>2025-05-13T13:56:36Z</time>
      </trkpt>
      <trkpt lat="40.851255990564823" lon="-1.309705981984735">
        <ele>934.05999999999995</ele>
        <time>2025-05-13T13:56:52Z</time>
      </trkpt>
      <trkpt lat="40.854823999106884" lon="-1.309740012511611">
        <ele>930.69000000000005</ele>
        <time>2025-05-13T13:57:04Z</time>
      </trkpt>
      <trkpt lat="40.858348002657294" lon="-1.309251012280583">
        <ele>930.69000000000005</ele>
        <time>2025-05-13T13:57:16Z</time>
      </trkpt>
      <trkpt lat="40.863284021615982" lon="-1.307987021282315">
        <ele>933.58000000000004</ele>
        <time>2025-05-13T13:57:33Z</time>
      </trkpt>
      <trkpt lat="40.867400038987398" lon="-1.307271039113402">
        <ele>933.58000000000004</ele>
        <time>2025-05-13T13:57:47Z</time>
      </trkpt>
      <trkpt lat="40.871562995016575" lon="-1.307157967239618">
        <ele>931.64999999999998</ele>
        <time>2025-05-13T13:58:01Z</time>
      </trkpt>
      <trkpt lat="40.875414982438087" lon="-1.306951018050313">
        <ele>928.76999999999998</ele>
        <time>2025-05-13T13:58:14Z</time>
      </trkpt>
      <trkpt lat="40.880122007802129" lon="-1.306114001199603">
        <ele>923</ele>
        <time>2025-05-13T13:58:30Z</time>
      </trkpt>
      <trkpt lat="40.883373012766242" lon="-1.305934963747859">
        <ele>921.55999999999995</ele>
        <time>2025-05-13T13:58:41Z</time>
      </trkpt>
      <trkpt lat="40.885913986712694" lon="-1.305906968191266">
        <ele>919.15999999999997</ele>
        <time>2025-05-13T13:58:50Z</time>
      </trkpt>
      <trkpt lat="40.889284014701843" lon="-1.305577978491783">
        <ele>915.30999999999995</ele>
        <time>2025-05-13T13:59:02Z</time>
      </trkpt>
      <trkpt lat="40.893058972433209" lon="-1.304504005238414">
        <ele>912.42999999999995</ele>
        <time>2025-05-13T13:59:15Z</time>
      </trkpt>
      <trkpt lat="40.897389985620975" lon="-1.303134988993406">
        <ele>909.05999999999995</ele>
        <time>2025-05-13T13:59:30Z</time>
      </trkpt>
      <trkpt lat="40.899877985939384" lon="-1.301889019086957">
        <ele>907.62</ele>
        <time>2025-05-13T13:59:39Z</time>
      </trkpt>
      <trkpt lat="40.901870029047132" lon="-1.300213979557157">
        <ele>909.05999999999995</ele>
        <time>2025-05-13T13:59:47Z</time>
      </trkpt>
      <trkpt lat="40.903559988364577" lon="-1.298030996695161">
        <ele>910.50999999999999</ele>
        <time>2025-05-13T13:59:55Z</time>
      </trkpt>
      <trkpt lat="40.905066970735788" lon="-1.295159021392465">
        <ele>913.38999999999999</ele>
        <time>2025-05-13T14:00:04Z</time>
      </trkpt>
      <trkpt lat="40.907595036551356" lon="-1.289873979985714">
        <ele>914.83000000000004</ele>
        <time>2025-05-13T14:00:20Z</time>
      </trkpt>
      <trkpt lat="40.909806014969945" lon="-1.285249013453722">
        <ele>914.35000000000002</ele>
        <time>2025-05-13T14:00:34Z</time>
      </trkpt>
      <trkpt lat="40.911548025906086" lon="-1.281599029898644">
        <ele>917.72000000000003</ele>
        <time>2025-05-13T14:00:45Z</time>
      </trkpt>
      <trkpt lat="40.913436971604824" lon="-1.277641011402011">
        <ele>926.37</ele>
        <time>2025-05-13T14:00:57Z</time>
      </trkpt>
      <trkpt lat="40.915631018579006" lon="-1.273483000695705">
        <ele>937.41999999999996</ele>
        <time>2025-05-13T14:01:10Z</time>
      </trkpt>
      <trkpt lat="40.917772008106112" lon="-1.270797019824386">
        <ele>945.59000000000003</ele>
        <time>2025-05-13T14:01:20Z</time>
      </trkpt>
      <trkpt lat="40.920004025101662" lon="-1.268862979486585">
        <ele>949.44000000000005</ele>
        <time>2025-05-13T14:01:29Z</time>
      </trkpt>
      <trkpt lat="40.922462018206716" lon="-1.267465967684984">
        <ele>949.91999999999996</ele>
        <time>2025-05-13T14:01:38Z</time>
      </trkpt>
      <trkpt lat="40.925064012408257" lon="-1.266616964712739">
        <ele>945.59000000000003</ele>
        <time>2025-05-13T14:01:47Z</time>
      </trkpt>
      <trkpt lat="40.927721997722983" lon="-1.266389982774854">
        <ele>940.30999999999995</ele>
        <time>2025-05-13T14:01:56Z</time>
      </trkpt>
      <trkpt lat="40.930386018007994" lon="-1.266792984679341">
        <ele>934.53999999999996</ele>
        <time>2025-05-13T14:02:05Z</time>
      </trkpt>
      <trkpt lat="40.932952975854278" lon="-1.267776014283299">
        <ele>928.28999999999996</ele>
        <time>2025-05-13T14:02:14Z</time>
      </trkpt>
      <trkpt lat="40.935346009209752" lon="-1.269313003867865">
        <ele>922.51999999999998</ele>
        <time>2025-05-13T14:02:23Z</time>
      </trkpt>
      <trkpt lat="40.938110025599599" lon="-1.271577961742878">
        <ele>917.24000000000001</ele>
        <time>2025-05-13T14:02:34Z</time>
      </trkpt>
      <trkpt lat="40.93998203985393" lon="-1.27271999605">
        <ele>915.78999999999996</ele>
        <time>2025-05-13T14:02:41Z</time>
      </trkpt>
      <trkpt lat="40.942544974386692" lon="-1.273590037599206">
        <ele>913.87</ele>
        <time>2025-05-13T14:02:50Z</time>
      </trkpt>
      <trkpt lat="40.944899031892419" lon="-1.273812996223569">
        <ele>915.30999999999995</ele>
        <time>2025-05-13T14:02:58Z</time>
      </trkpt>
      <trkpt lat="40.947546036913991" lon="-1.273393984884024">
        <ele>918.20000000000005</ele>
        <time>2025-05-13T14:03:07Z</time>
      </trkpt>
      <trkpt lat="40.950079970061779" lon="-1.272280029952526">
        <ele>922.51999999999998</ele>
        <time>2025-05-13T14:03:16Z</time>
      </trkpt>
      <trkpt lat="40.952698979526758" lon="-1.27044104039669">
        <ele>923.96000000000004</ele>
        <time>2025-05-13T14:03:26Z</time>
      </trkpt>
      <trkpt lat="40.956822959706187" lon="-1.267305035144091">
        <ele>929.25</ele>
        <time>2025-05-13T14:03:42Z</time>
      </trkpt>
      <trkpt lat="40.960419969633222" lon="-1.264582006260753">
        <ele>933.58000000000004</ele>
        <time>2025-05-13T14:03:56Z</time>
      </trkpt>
      <trkpt lat="40.963313989341259" lon="-1.262600021436811">
        <ele>937.89999999999998</ele>
        <time>2025-05-13T14:04:07Z</time>
      </trkpt>
      <trkpt lat="40.966096026822925" lon="-1.261272998526692">
        <ele>941.26999999999998</ele>
        <time>2025-05-13T14:04:17Z</time>
      </trkpt>
      <trkpt lat="40.969585999846458" lon="-1.260340008884668">
        <ele>942.71000000000004</ele>
        <time>2025-05-13T14:04:29Z</time>
      </trkpt>
      <trkpt lat="40.973140010610223" lon="-1.259994003921747">
        <ele>943.66999999999996</ele>
        <time>2025-05-13T14:04:41Z</time>
      </trkpt>
      <trkpt lat="40.977283017709851" lon="-1.259770961478353">
        <ele>945.59000000000003</ele>
        <time>2025-05-13T14:04:55Z</time>
      </trkpt>
      <trkpt lat="40.981130981817842" lon="-1.259574992582202">
        <ele>949.44000000000005</ele>
        <time>2025-05-13T14:05:08Z</time>
      </trkpt>
      <trkpt lat="40.984377963468432" lon="-1.259413976222277">
        <ele>953.27999999999997</ele>
        <time>2025-05-13T14:05:19Z</time>
      </trkpt>
      <trkpt lat="40.98851602524519" lon="-1.25946200452745">
        <ele>961.94000000000005</ele>
        <time>2025-05-13T14:05:33Z</time>
      </trkpt>
      <trkpt lat="40.992027036845684" lon="-1.260102968662977">
        <ele>973.95000000000005</ele>
        <time>2025-05-13T14:05:45Z</time>
      </trkpt>
      <trkpt lat="40.995144015178084" lon="-1.261221030727029">
        <ele>985.00999999999999</ele>
        <time>2025-05-13T14:05:56Z</time>
      </trkpt>
      <trkpt lat="40.997359016910195" lon="-1.262343032285571">
        <ele>996.53999999999996</ele>
        <time>2025-05-13T14:06:04Z</time>
      </trkpt>
      <trkpt lat="41.000555958598852" lon="-1.264427024871111">
        <ele>1003.75</ele>
        <time>2025-05-13T14:06:16Z</time>
      </trkpt>
      <trkpt lat="41.004015002399683" lon="-1.266664993017912">
        <ele>1005.6799999999999</ele>
        <time>2025-05-13T14:06:29Z</time>
      </trkpt>
      <trkpt lat="41.007096022367477" lon="-1.267994027584791">
        <ele>1008.08</ele>
        <time>2025-05-13T14:06:40Z</time>
      </trkpt>
      <trkpt lat="41.010273015126586" lon="-1.268681008368731">
        <ele>1015.77</ele>
        <time>2025-05-13T14:06:51Z</time>
      </trkpt>
      <trkpt lat="41.013254038989544" lon="-1.268805982545018">
        <ele>1025.3800000000001</ele>
        <time>2025-05-13T14:07:01Z</time>
      </trkpt>
      <trkpt lat="41.016517030075192" lon="-1.268384037539363">
        <ele>1035.96</ele>
        <time>2025-05-13T14:07:12Z</time>
      </trkpt>
      <trkpt lat="41.020914008840919" lon="-1.267601000145078">
        <ele>1043.1700000000001</ele>
        <time>2025-05-13T14:07:27Z</time>
      </trkpt>
      <trkpt lat="41.024172976613045" lon="-1.267623966559768">
        <ele>1044.6099999999999</ele>
        <time>2025-05-13T14:07:38Z</time>
      </trkpt>
      <trkpt lat="41.027095997706056" lon="-1.268183961510658">
        <ele>1046.05</ele>
        <time>2025-05-13T14:07:48Z</time>
      </trkpt>
      <trkpt lat="41.030513970181346" lon="-1.269463039934635">
        <ele>1046.53</ele>
        <time>2025-05-13T14:08:00Z</time>
      </trkpt>
      <trkpt lat="41.034750016406178" lon="-1.271251989528537">
        <ele>1044.6099999999999</ele>
        <time>2025-05-13T14:08:15Z</time>
      </trkpt>
      <trkpt lat="41.039547985419631" lon="-1.273288959637284">
        <ele>1040.28</ele>
        <time>2025-05-13T14:08:32Z</time>
      </trkpt>
      <trkpt lat="41.044065998867154" lon="-1.275191986933351">
        <ele>1036.9200000000001</ele>
        <time>2025-05-13T14:08:48Z</time>
      </trkpt>
      <trkpt lat="41.047179959714413" lon="-1.276466958224773">
        <ele>1035.96</ele>
        <time>2025-05-13T14:08:59Z</time>
      </trkpt>
      <trkpt lat="41.049483977258205" lon="-1.277208002284169">
        <ele>1036.9200000000001</ele>
        <time>2025-05-13T14:09:07Z</time>
      </trkpt>
      <trkpt lat="41.05329698882997" lon="-1.278097992762923">
        <ele>1033.55</ele>
        <time>2025-05-13T14:09:20Z</time>
      </trkpt>
      <trkpt lat="41.057410994544625" lon="-1.278936015442014">
        <ele>1033.55</ele>
        <time>2025-05-13T14:09:34Z</time>
      </trkpt>
      <trkpt lat="41.060614977031946" lon="-1.279918039217591">
        <ele>1031.6300000000001</ele>
        <time>2025-05-13T14:09:45Z</time>
      </trkpt>
      <trkpt lat="41.063433978706598" lon="-1.281025959178805">
        <ele>1027.79</ele>
        <time>2025-05-13T14:09:55Z</time>
      </trkpt>
      <trkpt lat="41.067301975563169" lon="-1.28300903365016">
        <ele>1022.5</ele>
        <time>2025-05-13T14:10:09Z</time>
      </trkpt>
      <trkpt lat="41.071595018729568" lon="-1.285701971501112">
        <ele>1016.73</ele>
        <time>2025-05-13T14:10:25Z</time>
      </trkpt>
      <trkpt lat="41.075173001736403" lon="-1.287689991295338">
        <ele>1012.41</ele>
        <time>2025-05-13T14:10:38Z</time>
      </trkpt>
      <trkpt lat="41.078861961141229" lon="-1.289200996980071">
        <ele>1008.5599999999999</ele>
        <time>2025-05-13T14:10:51Z</time>
      </trkpt>
      <trkpt lat="41.082358974963427" lon="-1.290112026035786">
        <ele>1001.83</ele>
        <time>2025-05-13T14:11:03Z</time>
      </trkpt>
      <trkpt lat="41.085328012704849" lon="-1.290511004626751">
        <ele>994.13999999999999</ele>
        <time>2025-05-13T14:11:13Z</time>
      </trkpt>
      <trkpt lat="41.089177988469601" lon="-1.290531037375331">
        <ele>984.04999999999995</ele>
        <time>2025-05-13T14:11:26Z</time>
      </trkpt>
      <trkpt lat="41.093306997790933" lon="-1.289996020495892">
        <ele>974.90999999999997</ele>
        <time>2025-05-13T14:11:40Z</time>
      </trkpt>
      <trkpt lat="41.098573012277484" lon="-1.288844011723995">
        <ele>968.66999999999996</ele>
        <time>2025-05-13T14:11:58Z</time>
      </trkpt>
      <trkpt lat="41.101798033341765" lon="-1.288101961836219">
        <ele>962.41999999999996</ele>
        <time>2025-05-13T14:12:09Z</time>
      </trkpt>
      <trkpt lat="41.105889994651079" lon="-1.287195039913058">
        <ele>954.25</ele>
        <time>2025-05-13T14:12:23Z</time>
      </trkpt>
      <trkpt lat="41.109700994566083" lon="-1.286508981138468">
        <ele>949.44000000000005</ele>
        <time>2025-05-13T14:12:36Z</time>
      </trkpt>
      <trkpt lat="41.114143989980221" lon="-1.286116959527135">
        <ele>944.63</ele>
        <time>2025-05-13T14:12:51Z</time>
      </trkpt>
      <trkpt lat="41.118887979537249" lon="-1.286260038614273">
        <ele>942.23000000000002</ele>
        <time>2025-05-13T14:13:07Z</time>
      </trkpt>
      <trkpt lat="41.122132027521729" lon="-1.286691036075354">
        <ele>941.75</ele>
        <time>2025-05-13T14:13:18Z</time>
      </trkpt>
      <trkpt lat="41.12653898075223" lon="-1.287523023784161">
        <ele>938.86000000000001</ele>
        <time>2025-05-13T14:13:33Z</time>
      </trkpt>
      <trkpt lat="41.130047980695963" lon="-1.288302037864924">
        <ele>935.5</ele>
        <time>2025-05-13T14:13:45Z</time>
      </trkpt>
      <trkpt lat="41.133251963183284" lon="-1.289015002548695">
        <ele>934.53999999999996</ele>
        <time>2025-05-13T14:13:56Z</time>
      </trkpt>
      <trkpt lat="41.137065980583429" lon="-1.289861993864179">
        <ele>931.64999999999998</ele>
        <time>2025-05-13T14:14:09Z</time>
      </trkpt>
      <trkpt lat="41.140879997983575" lon="-1.29070202820003">
        <ele>928.28999999999996</ele>
        <time>2025-05-13T14:14:22Z</time>
      </trkpt>
      <trkpt lat="41.145277982577682" lon="-1.291666030883789">
        <ele>926.37</ele>
        <time>2025-05-13T14:14:37Z</time>
      </trkpt>
      <trkpt lat="41.149959024041891" lon="-1.292652999982238">
        <ele>920.12</ele>
        <time>2025-05-13T14:14:53Z</time>
      </trkpt>
      <trkpt lat="41.154387015849352" lon="-1.293361019343138">
        <ele>912.90999999999997</ele>
        <time>2025-05-13T14:15:08Z</time>
      </trkpt>
      <trkpt lat="41.157933985814452" lon="-1.293647009879351">
        <ele>907.13999999999999</ele>
        <time>2025-05-13T14:15:20Z</time>
      </trkpt>
      <trkpt lat="41.16149696521461" lon="-1.293578026816249">
        <ele>901.37</ele>
        <time>2025-05-13T14:15:32Z</time>
      </trkpt>
      <trkpt lat="41.164169032126665" lon="-1.293299999088049">
        <ele>897.52999999999997</ele>
        <time>2025-05-13T14:15:41Z</time>
      </trkpt>
      <trkpt lat="41.167676020413637" lon="-1.292588962242007">
        <ele>891.27999999999997</ele>
        <time>2025-05-13T14:15:53Z</time>
      </trkpt>
      <trkpt lat="41.171417031437159" lon="-1.291402000933886">
        <ele>884.54999999999995</ele>
        <time>2025-05-13T14:16:06Z</time>
      </trkpt>
      <trkpt lat="41.175065003335476" lon="-1.289809020236135">
        <ele>877.82000000000005</ele>
        <time>2025-05-13T14:16:19Z</time>
      </trkpt>
      <trkpt lat="41.178334029391408" lon="-1.28795200958848">
        <ele>877.34000000000003</ele>
        <time>2025-05-13T14:16:31Z</time>
      </trkpt>
      <trkpt lat="41.181750996038318" lon="-1.285578003153205">
        <ele>883.59000000000003</ele>
        <time>2025-05-13T14:16:44Z</time>
      </trkpt>
      <trkpt lat="41.185248009860516" lon="-1.282604020088911">
        <ele>886.47000000000003</ele>
        <time>2025-05-13T14:16:58Z</time>
      </trkpt>
      <trkpt lat="41.189269982278347" lon="-1.278598979115486">
        <ele>886.47000000000003</ele>
        <time>2025-05-13T14:17:15Z</time>
      </trkpt>
      <trkpt lat="41.193169998005033" lon="-1.274389000609517">
        <ele>894.63999999999999</ele>
        <time>2025-05-13T14:17:32Z</time>
      </trkpt>
      <trkpt lat="41.196932969614863" lon="-1.27056903205812">
        <ele>904.74000000000001</ele>
        <time>2025-05-13T14:17:48Z</time>
      </trkpt>
      <trkpt lat="41.201072037220001" lon="-1.266758032143116">
        <ele>907.13999999999999</ele>
        <time>2025-05-13T14:18:05Z</time>
      </trkpt>
      <trkpt lat="41.204586988314986" lon="-1.263843979686499">
        <ele>899.92999999999995</ele>
        <time>2025-05-13T14:18:19Z</time>
      </trkpt>
      <trkpt lat="41.208427995443344" lon="-1.260876031592488">
        <ele>889.36000000000001</ele>
        <time>2025-05-13T14:18:34Z</time>
      </trkpt>
      <trkpt lat="41.210793033242226" lon="-1.258521974086762">
        <ele>882.14999999999998</ele>
        <time>2025-05-13T14:18:44Z</time>
      </trkpt>
      <trkpt lat="41.21252398006618" lon="-1.255847979336977">
        <ele>877.34000000000003</ele>
        <time>2025-05-13T14:18:53Z</time>
      </trkpt>
      <trkpt lat="41.213708007708192" lon="-1.253140037879348">
        <ele>875.89999999999998</ele>
        <time>2025-05-13T14:19:01Z</time>
      </trkpt>
      <trkpt lat="41.214840989559889" lon="-1.249588038772345">
        <ele>873.98000000000002</ele>
        <time>2025-05-13T14:19:11Z</time>
      </trkpt>
      <trkpt lat="41.215643975883722" lon="-1.247286032885313">
        <ele>871.57000000000005</ele>
        <time>2025-05-13T14:19:19Z</time>
      </trkpt>
      <trkpt lat="41.216937974095345" lon="-1.244718991219997">
        <ele>870.13</ele>
        <time>2025-05-13T14:19:28Z</time>
      </trkpt>
      <trkpt lat="41.218669004738331" lon="-1.242379015311599">
        <ele>868.69000000000005</ele>
        <time>2025-05-13T14:19:37Z</time>
      </trkpt>
      <trkpt lat="41.22053699567914" lon="-1.240635998547077">
        <ele>867.25</ele>
        <time>2025-05-13T14:19:45Z</time>
      </trkpt>
      <trkpt lat="41.222952995449305" lon="-1.239190036430955">
        <ele>866.28999999999996</ele>
        <time>2025-05-13T14:19:54Z</time>
      </trkpt>
      <trkpt lat="41.225549038499594" lon="-1.238394007086754">
        <ele>870.13</ele>
        <time>2025-05-13T14:20:03Z</time>
      </trkpt>
      <trkpt lat="41.228220015764236" lon="-1.238318989053369">
        <ele>877.34000000000003</ele>
        <time>2025-05-13T14:20:12Z</time>
      </trkpt>
      <trkpt lat="41.23054901137948" lon="-1.238882001489401">
        <ele>884.07000000000005</ele>
        <time>2025-05-13T14:20:20Z</time>
      </trkpt>
      <trkpt lat="41.233051009476185" lon="-1.240119002759457">
        <ele>892.24000000000001</ele>
        <time>2025-05-13T14:20:29Z</time>
      </trkpt>
      <trkpt lat="41.236206963658333" lon="-1.242286982014775">
        <ele>900.88999999999999</ele>
        <time>2025-05-13T14:20:41Z</time>
      </trkpt>
      <trkpt lat="41.238900991156697" lon="-1.24388700351119">
        <ele>907.13999999999999</ele>
        <time>2025-05-13T14:20:51Z</time>
      </trkpt>
      <trkpt lat="41.241723010316491" lon="-1.245023002848029">
        <ele>916.75</ele>
        <time>2025-05-13T14:21:01Z</time>
      </trkpt>
      <trkpt lat="41.245226981118321" lon="-1.245731022208929">
        <ele>924.92999999999995</ele>
        <time>2025-05-13T14:21:13Z</time>
      </trkpt>
      <trkpt lat="41.249676011502743" lon="-1.246039979159832">
        <ele>929.25</ele>
        <time>2025-05-13T14:21:28Z</time>
      </trkpt>
      <trkpt lat="41.253232033923268" lon="-1.246250029653311">
        <ele>929.25</ele>
        <time>2025-05-13T14:21:40Z</time>
      </trkpt>
      <trkpt lat="41.257399013265967" lon="-1.246501989662647">
        <ele>923</ele>
        <time>2025-05-13T14:21:54Z</time>
      </trkpt>
      <trkpt lat="41.261555012315512" lon="-1.246530991047621">
        <ele>907.62</ele>
        <time>2025-05-13T14:22:08Z</time>
      </trkpt>
      <trkpt lat="41.263880990445614" lon="-1.245903018862009">
        <ele>897.04999999999995</ele>
        <time>2025-05-13T14:22:16Z</time>
      </trkpt>
      <trkpt lat="41.266051987186074" lon="-1.244624024257064">
        <ele>884.54999999999995</ele>
        <time>2025-05-13T14:22:24Z</time>
      </trkpt>
      <trkpt lat="41.267700036987662" lon="-1.243145959451795">
        <ele>873.00999999999999</ele>
        <time>2025-05-13T14:22:31Z</time>
      </trkpt>
      <trkpt lat="41.269339034333825" lon="-1.240908997133374">
        <ele>861</ele>
        <time>2025-05-13T14:22:39Z</time>
      </trkpt>
      <trkpt lat="41.271315990015864" lon="-1.237449031323195">
        <ele>842.73000000000002</ele>
        <time>2025-05-13T14:22:50Z</time>
      </trkpt>
      <trkpt lat="41.273341979831457" lon="-1.234586024656892">
        <ele>826.38999999999999</ele>
        <time>2025-05-13T14:23:00Z</time>
      </trkpt>
      <trkpt lat="41.275489004328847" lon="-1.232489962130785">
        <ele>811.97000000000003</ele>
        <time>2025-05-13T14:23:09Z</time>
      </trkpt>
      <trkpt lat="41.278154030442238" lon="-1.230795979499817">
        <ele>794.19000000000005</ele>
        <time>2025-05-13T14:23:19Z</time>
      </trkpt>
      <trkpt lat="41.280706990510225" lon="-1.229773974046111">
        <ele>777.84000000000003</ele>
        <time>2025-05-13T14:23:28Z</time>
      </trkpt>
      <trkpt lat="41.284159999340773" lon="-1.228592041879892">
        <ele>756.69000000000005</ele>
        <time>2025-05-13T14:23:40Z</time>
      </trkpt>
      <trkpt lat="41.287227021530271" lon="-1.227096961811185">
        <ele>737.47000000000003</ele>
        <time>2025-05-13T14:23:51Z</time>
      </trkpt>
      <trkpt lat="41.290399990975857" lon="-1.224961001425982">
        <ele>720.64999999999998</ele>
        <time>2025-05-13T14:24:03Z</time>
      </trkpt>
      <trkpt lat="41.293066022917628" lon="-1.22246696613729">
        <ele>708.14999999999998</ele>
        <time>2025-05-13T14:24:14Z</time>
      </trkpt>
      <trkpt lat="41.29631501622498" lon="-1.219019992277026">
        <ele>691.80999999999995</ele>
        <time>2025-05-13T14:24:28Z</time>
      </trkpt>
      <trkpt lat="41.299424031749368" lon="-1.216032011434436">
        <ele>678.35000000000002</ele>
        <time>2025-05-13T14:24:41Z</time>
      </trkpt>
      <trkpt lat="41.302520977333188" lon="-1.213731011375785">
        <ele>669.22000000000003</ele>
        <time>2025-05-13T14:24:53Z</time>
      </trkpt>
      <trkpt lat="41.306386962532997" lon="-1.211711978539825">
        <ele>661.03999999999996</ele>
        <time>2025-05-13T14:25:07Z</time>
      </trkpt>
      <trkpt lat="41.311716008931398" lon="-1.209278041496873">
        <ele>650.47000000000003</ele>
        <time>2025-05-13T14:25:26Z</time>
      </trkpt>
      <trkpt lat="41.31676996126771" lon="-1.206993972882628">
        <ele>638.92999999999995</ele>
        <time>2025-05-13T14:25:44Z</time>
      </trkpt>
      <trkpt lat="41.321830032393336" lon="-1.204706970602274">
        <ele>626.44000000000005</ele>
        <time>2025-05-13T14:26:02Z</time>
      </trkpt>
      <trkpt lat="41.3252770062536" lon="-1.203539036214352">
        <ele>618.25999999999999</ele>
        <time>2025-05-13T14:26:14Z</time>
      </trkpt>
      <trkpt lat="41.328527005389333" lon="-1.203112984076142">
        <ele>610.57000000000005</ele>
        <time>2025-05-13T14:26:25Z</time>
      </trkpt>
      <trkpt lat="41.331778010353446" lon="-1.203340971842408">
        <ele>602.39999999999998</ele>
        <time>2025-05-13T14:26:36Z</time>
      </trkpt>
      <trkpt lat="41.334692984819412" lon="-1.2040960136801">
        <ele>597.12</ele>
        <time>2025-05-13T14:26:46Z</time>
      </trkpt>
      <trkpt lat="41.337516009807587" lon="-1.205352963879705">
        <ele>593.26999999999998</ele>
        <time>2025-05-13T14:26:56Z</time>
      </trkpt>
      <trkpt lat="41.341405967250466" lon="-1.207277029752731">
        <ele>587.01999999999998</ele>
        <time>2025-05-13T14:27:10Z</time>
      </trkpt>
      <trkpt lat="41.344029000028968" lon="-1.207889998331666">
        <ele>584.13999999999999</ele>
        <time>2025-05-13T14:27:19Z</time>
      </trkpt>
      <trkpt lat="41.346691008657217" lon="-1.207937020808458">
        <ele>581.25</ele>
        <time>2025-05-13T14:27:28Z</time>
      </trkpt>
      <trkpt lat="41.349601959809661" lon="-1.207249034196138">
        <ele>577.88999999999999</ele>
        <time>2025-05-13T14:27:38Z</time>
      </trkpt>
      <trkpt lat="41.352099012583494" lon="-1.206043967977166">
        <ele>575.00999999999999</ele>
        <time>2025-05-13T14:27:47Z</time>
      </trkpt>
      <trkpt lat="41.355645982548594" lon="-1.204063994809985">
        <ele>569.72000000000003</ele>
        <time>2025-05-13T14:28:00Z</time>
      </trkpt>
      <trkpt lat="41.358243031427264" lon="-1.203210968524218">
        <ele>567.79999999999995</ele>
        <time>2025-05-13T14:28:09Z</time>
      </trkpt>
      <trkpt lat="41.361195975914598" lon="-1.202951967716217">
        <ele>566.83000000000004</ele>
        <time>2025-05-13T14:28:19Z</time>
      </trkpt>
      <trkpt lat="41.365351974964142" lon="-1.20308599434793">
        <ele>563.95000000000005</ele>
        <time>2025-05-13T14:28:33Z</time>
      </trkpt>
      <trkpt lat="41.368300979956985" lon="-1.202620966359973">
        <ele>561.07000000000005</ele>
        <time>2025-05-13T14:28:43Z</time>
      </trkpt>
      <trkpt lat="41.37086701579392" lon="-1.201681019738317">
        <ele>555.29999999999995</ele>
        <time>2025-05-13T14:28:52Z</time>
      </trkpt>
      <trkpt lat="41.373298019170761" lon="-1.200229022651911">
        <ele>550.00999999999999</ele>
        <time>2025-05-13T14:29:01Z</time>
      </trkpt>
      <trkpt lat="41.375775039196014" lon="-1.198086021468043">
        <ele>544.72000000000003</ele>
        <time>2025-05-13T14:29:11Z</time>
      </trkpt>
      <trkpt lat="41.377966990694404" lon="-1.195451002568007">
        <ele>547.13</ele>
        <time>2025-05-13T14:29:21Z</time>
      </trkpt>
      <trkpt lat="41.381088998168707" lon="-1.191253010183573">
        <ele>554.34000000000003</ele>
        <time>2025-05-13T14:29:36Z</time>
      </trkpt>
      <trkpt lat="41.38382401317358" lon="-1.188219012692571">
        <ele>557.22000000000003</ele>
        <time>2025-05-13T14:29:48Z</time>
      </trkpt>
      <trkpt lat="41.386483004316688" lon="-1.185866966843605">
        <ele>555.77999999999997</ele>
        <time>2025-05-13T14:29:59Z</time>
      </trkpt>
      <trkpt lat="41.388796996325254" lon="-1.184139959514141">
        <ele>551.45000000000005</ele>
        <time>2025-05-13T14:30:08Z</time>
      </trkpt>
      <trkpt lat="41.392045989632607" lon="-1.182239027693868">
        <ele>545.69000000000005</ele>
        <time>2025-05-13T14:30:20Z</time>
      </trkpt>
      <trkpt lat="41.395439989864826" lon="-1.180829023942351">
        <ele>540.39999999999998</ele>
        <time>2025-05-13T14:30:32Z</time>
      </trkpt>
      <trkpt lat="41.399800004437566" lon="-1.179609959945083">
        <ele>533.66999999999996</ele>
        <time>2025-05-13T14:30:47Z</time>
      </trkpt>
      <trkpt lat="41.403226023539901" lon="-1.178341023623943">
        <ele>530.29999999999995</ele>
        <time>2025-05-13T14:30:59Z</time>
      </trkpt>
      <trkpt lat="41.405373970046639" lon="-1.177065968513489">
        <ele>530.29999999999995</ele>
        <time>2025-05-13T14:31:07Z</time>
      </trkpt>
      <trkpt lat="41.407858030870557" lon="-1.174936965107918">
        <ele>535.11000000000001</ele>
        <time>2025-05-13T14:31:17Z</time>
      </trkpt>
      <trkpt lat="41.410027015954256" lon="-1.172280991449952">
        <ele>540.88</ele>
        <time>2025-05-13T14:31:27Z</time>
      </trkpt>
      <trkpt lat="41.411882014945149" lon="-1.169226039201021">
        <ele>546.64999999999998</ele>
        <time>2025-05-13T14:31:37Z</time>
      </trkpt>
      <trkpt lat="41.414607977494597" lon="-1.163615025579929">
        <ele>555.29999999999995</ele>
        <time>2025-05-13T14:31:54Z</time>
      </trkpt>
      <trkpt lat="41.416745027527213" lon="-1.159845013171434">
        <ele>561.07000000000005</ele>
        <time>2025-05-13T14:32:06Z</time>
      </trkpt>
      <trkpt lat="41.419367976486683" lon="-1.156081035733223">
        <ele>562.99000000000001</ele>
        <time>2025-05-13T14:32:19Z</time>
      </trkpt>
      <trkpt lat="41.422501970082521" lon="-1.152458041906357">
        <ele>559.62</ele>
        <time>2025-05-13T14:32:33Z</time>
      </trkpt>
      <trkpt lat="41.425918014720082" lon="-1.149325976148248">
        <ele>550.00999999999999</ele>
        <time>2025-05-13T14:32:47Z</time>
      </trkpt>
      <trkpt lat="41.429842002689838" lon="-1.146548967808485">
        <ele>536.54999999999995</ele>
        <time>2025-05-13T14:33:02Z</time>
      </trkpt>
      <trkpt lat="41.433717962354422" lon="-1.144574023783207">
        <ele>524.05999999999995</ele>
        <time>2025-05-13T14:33:16Z</time>
      </trkpt>
      <trkpt lat="41.437424020841718" lon="-1.143151028081775">
        <ele>513.96000000000004</ele>
        <time>2025-05-13T14:33:29Z</time>
      </trkpt>
      <trkpt lat="41.441402994096279" lon="-1.141585037112236">
        <ele>501.94999999999999</ele>
        <time>2025-05-13T14:33:43Z</time>
      </trkpt>
      <trkpt lat="41.444030972197652" lon="-1.139813018962741">
        <ele>499.06</ele>
        <time>2025-05-13T14:33:53Z</time>
      </trkpt>
      <trkpt lat="41.446431968361139" lon="-1.137521993368864">
        <ele>500.5</ele>
        <time>2025-05-13T14:34:03Z</time>
      </trkpt>
      <trkpt lat="41.448314040899277" lon="-1.135016977787018">
        <ele>500.01999999999998</ele>
        <time>2025-05-13T14:34:12Z</time>
      </trkpt>
      <trkpt lat="41.45008203573525" lon="-1.13186202943325">
        <ele>496.18000000000001</ele>
        <time>2025-05-13T14:34:22Z</time>
      </trkpt>
      <trkpt lat="41.45315601490438" lon="-1.125593958422542">
        <ele>488.97000000000003</ele>
        <time>2025-05-13T14:34:41Z</time>
      </trkpt>
      <trkpt lat="41.454604994505644" lon="-1.121276021003723">
        <ele>486.56</ele>
        <time>2025-05-13T14:34:53Z</time>
      </trkpt>
      <trkpt lat="41.456083981320262" lon="-1.117854025214911">
        <ele>484.63999999999999</ele>
        <time>2025-05-13T14:35:03Z</time>
      </trkpt>
      <trkpt lat="41.457945015281439" lon="-1.11478197388351">
        <ele>481.27999999999997</ele>
        <time>2025-05-13T14:35:13Z</time>
      </trkpt>
      <trkpt lat="41.461162995547056" lon="-1.110137980431318">
        <ele>472.63</ele>
        <time>2025-05-13T14:35:29Z</time>
      </trkpt>
      <trkpt lat="41.463990965858102" lon="-1.106092035770416">
        <ele>463.00999999999999</ele>
        <time>2025-05-13T14:35:43Z</time>
      </trkpt>
      <trkpt lat="41.46699302829802" lon="-1.102253962308168">
        <ele>454.36000000000001</ele>
        <time>2025-05-13T14:35:57Z</time>
      </trkpt>
      <trkpt lat="41.470100032165647" lon="-1.098598027601838">
        <ele>446.67000000000002</ele>
        <time>2025-05-13T14:36:11Z</time>
      </trkpt>
      <trkpt lat="41.471994007006288" lon="-1.095581967383623">
        <ele>441.86000000000001</ele>
        <time>2025-05-13T14:36:21Z</time>
      </trkpt>
      <trkpt lat="41.473495960235596" lon="-1.092187967151403">
        <ele>435.61000000000001</ele>
        <time>2025-05-13T14:36:31Z</time>
      </trkpt>
      <trkpt lat="41.475336961448193" lon="-1.08768998645246">
        <ele>430.32999999999998</ele>
        <time>2025-05-13T14:36:44Z</time>
      </trkpt>
      <trkpt lat="41.477140998467803" lon="-1.084575019776821">
        <ele>426</ele>
        <time>2025-05-13T14:36:54Z</time>
      </trkpt>
      <trkpt lat="41.479076966643333" lon="-1.082136975601316">
        <ele>420.23000000000002</ele>
        <time>2025-05-13T14:37:03Z</time>
      </trkpt>
      <trkpt lat="41.481525991111994" lon="-1.079916022717953">
        <ele>413.01999999999998</ele>
        <time>2025-05-13T14:37:13Z</time>
      </trkpt>
      <trkpt lat="41.484955027699471" lon="-1.077601024881005">
        <ele>405.81</ele>
        <time>2025-05-13T14:37:26Z</time>
      </trkpt>
      <trkpt lat="41.488018026575446" lon="-1.075186030939221">
        <ele>402.93000000000001</ele>
        <time>2025-05-13T14:37:38Z</time>
      </trkpt>
      <trkpt lat="41.490537039935589" lon="-1.072426959872246">
        <ele>402.44999999999999</ele>
        <time>2025-05-13T14:37:49Z</time>
      </trkpt>
      <trkpt lat="41.493684025481343" lon="-1.068250006064773">
        <ele>404.37</ele>
        <time>2025-05-13T14:38:04Z</time>
      </trkpt>
      <trkpt lat="41.496206978335977" lon="-1.064920965582132">
        <ele>409.18000000000001</ele>
        <time>2025-05-13T14:38:16Z</time>
      </trkpt>
      <trkpt lat="41.498739989474416" lon="-1.061587985605001">
        <ele>408.69999999999999</ele>
        <time>2025-05-13T14:38:28Z</time>
      </trkpt>
      <trkpt lat="41.500793974846601" lon="-1.058232961222529">
        <ele>405.81</ele>
        <time>2025-05-13T14:38:39Z</time>
      </trkpt>
      <trkpt lat="41.502735977992415" lon="-1.053816033527255">
        <ele>401.00999999999999</ele>
        <time>2025-05-13T14:38:52Z</time>
      </trkpt>
      <trkpt lat="41.504805972799659" lon="-1.049480997025967">
        <ele>397.16000000000003</ele>
        <time>2025-05-13T14:39:05Z</time>
      </trkpt>
      <trkpt lat="41.50691200979054" lon="-1.04617903009057">
        <ele>393.31999999999999</ele>
        <time>2025-05-13T14:39:16Z</time>
      </trkpt>
      <trkpt lat="41.509103961288929" lon="-1.043528001755476">
        <ele>389.94999999999999</ele>
        <time>2025-05-13T14:39:26Z</time>
      </trkpt>
      <trkpt lat="41.51153102517128" lon="-1.041263965889812">
        <ele>388.99000000000001</ele>
        <time>2025-05-13T14:39:36Z</time>
      </trkpt>
      <trkpt lat="41.514597041532397" lon="-1.038817958906293">
        <ele>393.31999999999999</ele>
        <time>2025-05-13T14:39:48Z</time>
      </trkpt>
      <trkpt lat="41.517785014584661" lon="-1.035883035510778">
        <ele>392.83999999999997</ele>
        <time>2025-05-13T14:40:01Z</time>
      </trkpt>
      <trkpt lat="41.519962968304753" lon="-1.033213986083865">
        <ele>389.47000000000003</ele>
        <time>2025-05-13T14:40:11Z</time>
      </trkpt>
      <trkpt lat="41.522530009970069" lon="-1.029407009482384">
        <ele>383.69999999999999</ele>
        <time>2025-05-13T14:40:24Z</time>
      </trkpt>
      <trkpt lat="41.525554032996297" lon="-1.024548020213842">
        <ele>377.44999999999999</ele>
        <time>2025-05-13T14:40:40Z</time>
      </trkpt>
      <trkpt lat="41.527976989746094" lon="-1.020062025636435">
        <ele>374.08999999999997</ele>
        <time>2025-05-13T14:40:54Z</time>
      </trkpt>
      <trkpt lat="41.530306991189718" lon="-1.01597098633647">
        <ele>371.20999999999998</ele>
        <time>2025-05-13T14:41:07Z</time>
      </trkpt>
      <trkpt lat="41.532779987901449" lon="-1.012567011639476">
        <ele>368.80000000000001</ele>
        <time>2025-05-13T14:41:19Z</time>
      </trkpt>
      <trkpt lat="41.535303024575114" lon="-1.009788997471333">
        <ele>369.75999999999999</ele>
        <time>2025-05-13T14:41:30Z</time>
      </trkpt>
      <trkpt lat="41.538258986547589" lon="-1.007138974964619">
        <ele>368.80000000000001</ele>
        <time>2025-05-13T14:41:42Z</time>
      </trkpt>
      <trkpt lat="41.541217966005206" lon="-1.00451803766191">
        <ele>366.39999999999998</ele>
        <time>2025-05-13T14:41:54Z</time>
      </trkpt>
      <trkpt lat="41.542619001120329" lon="-1.002955986186862">
        <ele>364.95999999999998</ele>
        <time>2025-05-13T14:42:01Z</time>
      </trkpt>
      <trkpt lat="41.544255986809731" lon="-1.000741990283132">
        <ele>362.55000000000001</ele>
        <time>2025-05-13T14:42:10Z</time>
      </trkpt>
      <trkpt lat="41.54597301967442" lon="-0.998013010248542">
        <ele>355.82999999999998</ele>
        <time>2025-05-13T14:42:19Z</time>
      </trkpt>
      <trkpt lat="41.547854002565145" lon="-0.995525009930134">
        <ele>349.57999999999998</ele>
        <time>2025-05-13T14:42:28Z</time>
      </trkpt>
      <trkpt lat="41.549692992120981" lon="-0.993738994002342">
        <ele>350.06</ele>
        <time>2025-05-13T14:42:36Z</time>
      </trkpt>
      <trkpt lat="41.552028022706509" lon="-0.991357024759054">
        <ele>354.86000000000001</ele>
        <time>2025-05-13T14:42:46Z</time>
      </trkpt>
      <trkpt lat="41.553728962317109" lon="-0.988656962290406">
        <ele>357.26999999999998</ele>
        <time>2025-05-13T14:42:55Z</time>
      </trkpt>
      <trkpt lat="41.554744010791183" lon="-0.986079024150968">
        <ele>354.38</ele>
        <time>2025-05-13T14:43:02Z</time>
      </trkpt>
      <trkpt lat="41.555421017110348" lon="-0.983100011944771">
        <ele>351.01999999999998</ele>
        <time>2025-05-13T14:43:10Z</time>
      </trkpt>
      <trkpt lat="41.556023005396128" lon="-0.979351960122585">
        <ele>347.17000000000002</ele>
        <time>2025-05-13T14:43:20Z</time>
      </trkpt>
      <trkpt lat="41.557047022506595" lon="-0.976255014538765">
        <ele>342.85000000000002</ele>
        <time>2025-05-13T14:43:29Z</time>
      </trkpt>
      <trkpt lat="41.558148991316557" lon="-0.974072031676769">
        <ele>338.04000000000002</ele>
        <time>2025-05-13T14:43:36Z</time>
      </trkpt>
      <trkpt lat="41.559821013361216" lon="-0.971801038831472">
        <ele>330.82999999999998</ele>
        <time>2025-05-13T14:43:44Z</time>
      </trkpt>
      <trkpt lat="41.562326028943062" lon="-0.969445975497365">
        <ele>319.77999999999997</ele>
        <time>2025-05-13T14:43:54Z</time>
      </trkpt>
      <trkpt lat="41.566039966419339" lon="-0.966049963608384">
        <ele>313.05000000000001</ele>
        <time>2025-05-13T14:44:09Z</time>
      </trkpt>
      <trkpt lat="41.569101959466934" lon="-0.963606974110007">
        <ele>311.12</ele>
        <time>2025-05-13T14:44:21Z</time>
      </trkpt>
      <trkpt lat="41.571762040257454" lon="-0.962203005328774">
        <ele>309.68000000000001</ele>
        <time>2025-05-13T14:44:31Z</time>
      </trkpt>
      <trkpt lat="41.575218988582492" lon="-0.960972961038351">
        <ele>305.83999999999997</ele>
        <time>2025-05-13T14:44:43Z</time>
      </trkpt>
      <trkpt lat="41.57744899392128" lon="-0.959815001115203">
        <ele>302.47000000000003</ele>
        <time>2025-05-13T14:44:51Z</time>
      </trkpt>
      <trkpt lat="41.580472011119127" lon="-0.957671999931335">
        <ele>300.06999999999999</ele>
        <time>2025-05-13T14:45:03Z</time>
      </trkpt>
      <trkpt lat="41.583782024681568" lon="-0.955268992111087">
        <ele>296.22000000000003</ele>
        <time>2025-05-13T14:45:16Z</time>
      </trkpt>
      <trkpt lat="41.586349988356233" lon="-0.953081985935569">
        <ele>292.38</ele>
        <time>2025-05-13T14:45:26Z</time>
      </trkpt>
      <trkpt lat="41.588371032848954" lon="-0.950607983395457">
        <ele>290.45999999999998</ele>
        <time>2025-05-13T14:45:35Z</time>
      </trkpt>
      <trkpt lat="41.590155959129333" lon="-0.947657972574234">
        <ele>289.00999999999999</ele>
        <time>2025-05-13T14:45:45Z</time>
      </trkpt>
      <trkpt lat="41.591575015336275" lon="-0.945530980825424">
        <ele>287.56999999999999</ele>
        <time>2025-05-13T14:45:52Z</time>
      </trkpt>
      <trkpt lat="41.593457004055381" lon="-0.943595012649894">
        <ele>286.13</ele>
        <time>2025-05-13T14:46:00Z</time>
      </trkpt>
      <trkpt lat="41.59656903706491" lon="-0.940782967954874">
        <ele>283.25</ele>
        <time>2025-05-13T14:46:13Z</time>
      </trkpt>
      <trkpt lat="41.599570009857416" lon="-0.938262026757002">
        <ele>279.88</ele>
        <time>2025-05-13T14:46:25Z</time>
      </trkpt>
      <trkpt lat="41.601894982159138" lon="-0.936955036595464">
        <ele>278.92000000000002</ele>
        <time>2025-05-13T14:46:34Z</time>
      </trkpt>
      <trkpt lat="41.604880029335618" lon="-0.935906963422894">
        <ele>282.27999999999997</ele>
        <time>2025-05-13T14:46:45Z</time>
      </trkpt>
      <trkpt lat="41.607457967475057" lon="-0.935092996805906">
        <ele>283.25</ele>
        <time>2025-05-13T14:46:55Z</time>
      </trkpt>
      <trkpt lat="41.610035989433527" lon="-0.934267966076732">
        <ele>282.76999999999998</ele>
        <time>2025-05-13T14:47:04Z</time>
      </trkpt>
      <trkpt lat="41.611741036176682" lon="-0.933352997526526">
        <ele>282.76999999999998</ele>
        <time>2025-05-13T14:47:11Z</time>
      </trkpt>
      <trkpt lat="41.613058000802994" lon="-0.932470969855785">
        <ele>286.13</ele>
        <time>2025-05-13T14:47:19Z</time>
      </trkpt>
      <trkpt lat="41.614461969584227" lon="-0.931434966623783">
        <ele>289.00999999999999</ele>
        <time>2025-05-13T14:47:30Z</time>
      </trkpt>
      <trkpt lat="41.614792970940471" lon="-0.931099019944668">
        <ele>289.49000000000001</ele>
        <time>2025-05-13T14:47:34Z</time>
      </trkpt>
      <trkpt lat="41.614895984530449" lon="-0.930831972509623">
        <ele>289.49000000000001</ele>
        <time>2025-05-13T14:47:35Z</time>
      </trkpt>
      <trkpt lat="41.6149209626019" lon="-0.930725019425154">
        <ele>289.49000000000001</ele>
        <time>2025-05-13T14:47:36Z</time>
      </trkpt>
      <trkpt lat="41.614904031157494" lon="-0.930608008056879">
        <ele>289.49000000000001</ele>
        <time>2025-05-13T14:47:37Z</time>
      </trkpt>
      <trkpt lat="41.614874023944139" lon="-0.93050298281014">
        <ele>289.49000000000001</ele>
        <time>2025-05-13T14:47:38Z</time>
      </trkpt>
      <trkpt lat="41.614839993417263" lon="-0.930388988927007">
        <ele>289.00999999999999</ele>
        <time>2025-05-13T14:47:39Z</time>
      </trkpt>
      <trkpt lat="41.614763969555497" lon="-0.930336015298963">
        <ele>289.00999999999999</ele>
        <time>2025-05-13T14:47:40Z</time>
      </trkpt>
      <trkpt lat="41.614674031734467" lon="-0.930279018357396">
        <ele>288.52999999999997</ele>
        <time>2025-05-13T14:47:41Z</time>
      </trkpt>
      <trkpt lat="41.61459700204432" lon="-0.930235013365746">
        <ele>288.05000000000001</ele>
        <time>2025-05-13T14:47:42Z</time>
      </trkpt>
      <trkpt lat="41.614500023424625" lon="-0.930267032235861">
        <ele>287.56999999999999</ele>
        <time>2025-05-13T14:47:43Z</time>
      </trkpt>
      <trkpt lat="41.61440396681428" lon="-0.930298967286944">
        <ele>287.08999999999997</ele>
        <time>2025-05-13T14:47:44Z</time>
      </trkpt>
      <trkpt lat="41.61431604065001" lon="-0.930361999198794">
        <ele>286.13</ele>
        <time>2025-05-13T14:47:45Z</time>
      </trkpt>
      <trkpt lat="41.614247979596257" lon="-0.930464006960392">
        <ele>285.17000000000002</ele>
        <time>2025-05-13T14:47:46Z</time>
      </trkpt>
      <trkpt lat="41.614201962947845" lon="-0.930594010278583">
        <ele>284.20999999999998</ele>
        <time>2025-05-13T14:47:47Z</time>
      </trkpt>
      <trkpt lat="41.614180002361536" lon="-0.930729964748025">
        <ele>283.25</ele>
        <time>2025-05-13T14:47:48Z</time>
      </trkpt>
      <trkpt lat="41.614211015403271" lon="-0.930883018299937">
        <ele>282.27999999999997</ele>
        <time>2025-05-13T14:47:49Z</time>
      </trkpt>
      <trkpt lat="41.614258037880063" lon="-0.931024001911283">
        <ele>281.31999999999999</ele>
        <time>2025-05-13T14:47:50Z</time>
      </trkpt>
      <trkpt lat="41.614308999851346" lon="-0.931176971644163">
        <ele>280.36000000000001</ele>
        <time>2025-05-13T14:47:51Z</time>
      </trkpt>
      <trkpt lat="41.614362979307771" lon="-0.93134100548923">
        <ele>279.88</ele>
        <time>2025-05-13T14:47:52Z</time>
      </trkpt>
      <trkpt lat="41.614422993734479" lon="-0.931519959121943">
        <ele>279.39999999999998</ele>
        <time>2025-05-13T14:47:53Z</time>
      </trkpt>
      <trkpt lat="41.614498011767864" lon="-0.931697990745306">
        <ele>279.39999999999998</ele>
        <time>2025-05-13T14:47:54Z</time>
      </trkpt>
      <trkpt lat="41.614578980952501" lon="-0.931871999055147">
        <ele>278.92000000000002</ele>
        <time>2025-05-13T14:47:55Z</time>
      </trkpt>
      <trkpt lat="41.614664979279041" lon="-0.932056987658143">
        <ele>278.44</ele>
        <time>2025-05-13T14:47:56Z</time>
      </trkpt>
      <trkpt lat="41.614758018404245" lon="-0.932249017059803">
        <ele>278.44</ele>
        <time>2025-05-13T14:47:57Z</time>
      </trkpt>
      <trkpt lat="41.615855963900685" lon="-0.934505006298423">
        <ele>277</ele>
        <time>2025-05-13T14:48:08Z</time>
      </trkpt>
      <trkpt lat="41.616847962141037" lon="-0.936600985005498">
        <ele>274.58999999999997</ele>
        <time>2025-05-13T14:48:17Z</time>
      </trkpt>
      <trkpt lat="41.617876002565026" lon="-0.939692985266447">
        <ele>273.63</ele>
        <time>2025-05-13T14:48:29Z</time>
      </trkpt>
      <trkpt lat="41.618572035804391" lon="-0.942484997212887">
        <ele>275.06999999999999</ele>
        <time>2025-05-13T14:48:38Z</time>
      </trkpt>
      <trkpt lat="41.619095988571644" lon="-0.946131963282824">
        <ele>280.36000000000001</ele>
        <time>2025-05-13T14:48:48Z</time>
      </trkpt>
      <trkpt lat="41.619193973019719" lon="-0.950211016461253">
        <ele>287.56999999999999</ele>
        <time>2025-05-13T14:49:00Z</time>
      </trkpt>
      <trkpt lat="41.619025999680161" lon="-0.955034969374537">
        <ele>290.45999999999998</ele>
        <time>2025-05-13T14:49:12Z</time>
      </trkpt>
      <trkpt lat="41.618879986926913" lon="-0.959421973675489">
        <ele>290.94</ele>
        <time>2025-05-13T14:49:23Z</time>
      </trkpt>
      <trkpt lat="41.618948969990015" lon="-0.962805999442935">
        <ele>289.00999999999999</ele>
        <time>2025-05-13T14:49:32Z</time>
      </trkpt>
      <trkpt lat="41.619535032659769" lon="-0.965679986402392">
        <ele>286.13</ele>
        <time>2025-05-13T14:49:40Z</time>
      </trkpt>
      <trkpt lat="41.620583022013307" lon="-0.968100009486079">
        <ele>279.39999999999998</ele>
        <time>2025-05-13T14:49:47Z</time>
      </trkpt>
      <trkpt lat="41.621989002451301" lon="-0.970119964331388">
        <ele>274.58999999999997</ele>
        <time>2025-05-13T14:49:54Z</time>
      </trkpt>
      <trkpt lat="41.623691031709313" lon="-0.971633987501264">
        <ele>269.79000000000002</ele>
        <time>2025-05-13T14:50:01Z</time>
      </trkpt>
      <trkpt lat="41.625692965462804" lon="-0.972641995176673">
        <ele>264.98000000000002</ele>
        <time>2025-05-13T14:50:09Z</time>
      </trkpt>
      <trkpt lat="41.629045978188515" lon="-0.973757039755583">
        <ele>263.54000000000002</ele>
        <time>2025-05-13T14:50:22Z</time>
      </trkpt>
      <trkpt lat="41.632431009784341" lon="-0.974782984703779">
        <ele>262.10000000000002</ele>
        <time>2025-05-13T14:50:35Z</time>
      </trkpt>
      <trkpt lat="41.634324984624982" lon="-0.974838975816965">
        <ele>261.13999999999999</ele>
        <time>2025-05-13T14:50:42Z</time>
      </trkpt>
      <trkpt lat="41.636017039418221" lon="-0.974352993071079">
        <ele>260.64999999999998</ele>
        <time>2025-05-13T14:50:49Z</time>
      </trkpt>
      <trkpt lat="41.638833023607731" lon="-0.972784990444779">
        <ele>255.84999999999999</ele>
        <time>2025-05-13T14:50:59Z</time>
      </trkpt>
      <trkpt lat="41.642190981656313" lon="-0.970519026741385">
        <ele>249.12</ele>
        <time>2025-05-13T14:51:13Z</time>
      </trkpt>
      <trkpt lat="41.64433398284018" lon="-0.968336965888739">
        <ele>246.22999999999999</ele>
        <time>2025-05-13T14:51:23Z</time>
      </trkpt>
      <trkpt lat="41.64684503339231" lon="-0.965545037761331">
        <ele>243.34999999999999</ele>
        <time>2025-05-13T14:51:35Z</time>
      </trkpt>
      <trkpt lat="41.649309983476996" lon="-0.962770041078329">
        <ele>236.62</ele>
        <time>2025-05-13T14:51:47Z</time>
      </trkpt>
      <trkpt lat="41.651548035442829" lon="-0.960250021889806">
        <ele>226.53</ele>
        <time>2025-05-13T14:51:58Z</time>
      </trkpt>
      <trkpt lat="41.65333497337997" lon="-0.95824096351862">
        <ele>226.05000000000001</ele>
        <time>2025-05-13T14:52:08Z</time>
      </trkpt>
      <trkpt lat="41.655359035357833" lon="-0.955924037843943">
        <ele>225.56999999999999</ele>
        <time>2025-05-13T14:52:21Z</time>
      </trkpt>
      <trkpt lat="41.656855037435889" lon="-0.953768966719508">
        <ele>222.68000000000001</ele>
        <time>2025-05-13T14:52:32Z</time>
      </trkpt>
      <trkpt lat="41.658135959878564" lon="-0.951673993840814">
        <ele>219.31999999999999</ele>
        <time>2025-05-13T14:52:42Z</time>
      </trkpt>
      <trkpt lat="41.65950296446681" lon="-0.949051966890693">
        <ele>215.94999999999999</ele>
        <time>2025-05-13T14:52:53Z</time>
      </trkpt>
      <trkpt lat="41.660928977653384" lon="-0.945574985817075">
        <ele>214.99000000000001</ele>
        <time>2025-05-13T14:53:07Z</time>
      </trkpt>
      <trkpt lat="41.661908989772201" lon="-0.943186981603503">
        <ele>214.99000000000001</ele>
        <time>2025-05-13T14:53:17Z</time>
      </trkpt>
      <trkpt lat="41.663220003247261" lon="-0.940777016803622">
        <ele>215.94999999999999</ele>
        <time>2025-05-13T14:53:28Z</time>
      </trkpt>
      <trkpt lat="41.664435965940356" lon="-0.939006004482508">
        <ele>213.06999999999999</ele>
        <time>2025-05-13T14:53:38Z</time>
      </trkpt>
      <trkpt lat="41.664520958438516" lon="-0.93886099755764">
        <ele>213.06999999999999</ele>
        <time>2025-05-13T14:53:39Z</time>
      </trkpt>
      <trkpt lat="41.664578961208463" lon="-0.938722025603056">
        <ele>213.55000000000001</ele>
        <time>2025-05-13T14:53:40Z</time>
      </trkpt>
      <trkpt lat="41.664620032534003" lon="-0.9386230353266">
        <ele>213.55000000000001</ele>
        <time>2025-05-13T14:53:41Z</time>
      </trkpt>
      <trkpt lat="41.66463503614068" lon="-0.938437040895224">
        <ele>213.55000000000001</ele>
        <time>2025-05-13T14:53:42Z</time>
      </trkpt>
      <trkpt lat="41.664647022262216" lon="-0.938294967636466">
        <ele>213.55000000000001</ele>
        <time>2025-05-13T14:53:43Z</time>
      </trkpt>
      <trkpt lat="41.664659008383751" lon="-0.938150966539979">
        <ele>213.55000000000001</ele>
        <time>2025-05-13T14:53:44Z</time>
      </trkpt>
      <trkpt lat="41.66472296230495" lon="-0.93750698491931">
        <ele>212.11000000000001</ele>
        <time>2025-05-13T14:53:48Z</time>
      </trkpt>
      <trkpt lat="41.664753975346684" lon="-0.937349991872907">
        <ele>211.63</ele>
        <time>2025-05-13T14:53:49Z</time>
      </trkpt>
      <trkpt lat="41.664804015308619" lon="-0.937203979119658">
        <ele>211.15000000000001</ele>
        <time>2025-05-13T14:53:50Z</time>
      </trkpt>
      <trkpt lat="41.66487199254334" lon="-0.937068024650216">
        <ele>210.66999999999999</ele>
        <time>2025-05-13T14:53:51Z</time>
      </trkpt>
      <trkpt lat="41.66495899669826" lon="-0.9369479957968">
        <ele>210.19</ele>
        <time>2025-05-13T14:53:52Z</time>
      </trkpt>
      <trkpt lat="41.665048012509942" lon="-0.936828972771764">
        <ele>209.22</ele>
        <time>2025-05-13T14:53:53Z</time>
      </trkpt>
      <trkpt lat="41.665330985561013" lon="-0.936307031661272">
        <ele>206.81999999999999</ele>
        <time>2025-05-13T14:53:57Z</time>
      </trkpt>
      <trkpt lat="41.665364010259509" lon="-0.936189014464617">
        <ele>206.34</ele>
        <time>2025-05-13T14:53:58Z</time>
      </trkpt>
      <trkpt lat="41.665400974452496" lon="-0.935993967577815">
        <ele>205.86000000000001</ele>
        <time>2025-05-13T14:54:00Z</time>
      </trkpt>
      <trkpt lat="41.665411032736301" lon="-0.935885002836585">
        <ele>205.38</ele>
        <time>2025-05-13T14:54:01Z</time>
      </trkpt>
      <trkpt lat="41.665394017472863" lon="-0.935774026438594">
        <ele>204.90000000000001</ele>
        <time>2025-05-13T14:54:02Z</time>
      </trkpt>
      <trkpt lat="41.665370967239141" lon="-0.935682998970151">
        <ele>204.41999999999999</ele>
        <time>2025-05-13T14:54:03Z</time>
      </trkpt>
      <trkpt lat="41.665337020531297" lon="-0.93546699732542">
        <ele>203.94</ele>
        <time>2025-05-13T14:54:04Z</time>
      </trkpt>
      <trkpt lat="41.664953967556357" lon="-0.934764007106423">
        <ele>203.46000000000001</ele>
        <time>2025-05-13T14:54:11Z</time>
      </trkpt>
      <trkpt lat="41.66485296562314" lon="-0.934560997411609">
        <ele>203.46000000000001</ele>
        <time>2025-05-13T14:54:19Z</time>
      </trkpt>
      <trkpt lat="41.664739977568388" lon="-0.934342984110117">
        <ele>202.97999999999999</ele>
        <time>2025-05-13T14:54:45Z</time>
      </trkpt>
      <trkpt lat="41.664222981780767" lon="-0.933289965614676">
        <ele>203.94</ele>
        <time>2025-05-13T14:54:56Z</time>
      </trkpt>
      <trkpt lat="41.663557039573789" lon="-0.93185699544847">
        <ele>203.94</ele>
        <time>2025-05-13T14:55:07Z</time>
      </trkpt>
      <trkpt lat="41.663039037957788" lon="-0.930598033592105">
        <ele>203.46000000000001</ele>
        <time>2025-05-13T14:55:17Z</time>
      </trkpt>
      <trkpt lat="41.662711976096034" lon="-0.929781971499324">
        <ele>203.46000000000001</ele>
        <time>2025-05-13T14:55:22Z</time>
      </trkpt>
      <trkpt lat="41.662048967555165" lon="-0.928562991321087">
        <ele>205.86000000000001</ele>
        <time>2025-05-13T14:55:33Z</time>
      </trkpt>
      <trkpt lat="41.66152099147439" lon="-0.927723040804267">
        <ele>207.30000000000001</ele>
        <time>2025-05-13T14:55:41Z</time>
      </trkpt>
      <trkpt lat="41.661485033109784" lon="-0.927662020549178">
        <ele>207.30000000000001</ele>
        <time>2025-05-13T14:55:42Z</time>
      </trkpt>
      <trkpt lat="41.661456031724811" lon="-0.927612986415625">
        <ele>207.78</ele>
        <time>2025-05-13T14:55:43Z</time>
      </trkpt>
      <trkpt lat="41.661375984549522" lon="-0.927593959495425">
        <ele>207.78</ele>
        <time>2025-05-13T14:55:44Z</time>
      </trkpt>
      <trkpt lat="41.661314964294434" lon="-0.927593959495425">
        <ele>208.25999999999999</ele>
        <time>2025-05-13T14:55:45Z</time>
      </trkpt>
      <trkpt lat="41.661285040900111" lon="-0.927573004737496">
        <ele>208.25999999999999</ele>
        <time>2025-05-13T14:55:46Z</time>
      </trkpt>
      <trkpt lat="41.661235000938177" lon="-0.927539980039001">
        <ele>208.25999999999999</ele>
        <time>2025-05-13T14:55:47Z</time>
      </trkpt>
      <trkpt lat="41.661181021481752" lon="-0.927498992532492">
        <ele>208.74000000000001</ele>
        <time>2025-05-13T14:55:48Z</time>
      </trkpt>
      <trkpt lat="41.661040959879756" lon="-0.927277961745858">
        <ele>207.78</ele>
        <time>2025-05-13T14:55:54Z</time>
      </trkpt>
      <trkpt lat="41.660920009016991" lon="-0.927337976172566">
        <ele>207.30000000000001</ele>
        <time>2025-05-13T14:56:10Z</time>
      </trkpt>
      <trkpt lat="41.661135004833341" lon="-0.927505027502775">
        <ele>238.06</ele>
        <time>2025-05-13T15:00:11Z</time>
      </trkpt>
      <trkpt lat="41.660968037322164" lon="-0.927209984511137">
        <ele>256.32999999999998</ele>
        <time>2025-05-13T15:00:33Z</time>
      </trkpt>
      <trkpt lat="41.661023022606969" lon="-0.927157010883093">
        <ele>255.37</ele>
        <time>2025-05-13T15:01:15Z</time>
      </trkpt>
      <trkpt lat="41.660966025665402" lon="-0.927228005602956">
        <ele>247.19999999999999</ele>
        <time>2025-05-13T15:02:08Z</time>
      </trkpt>
      <trkpt lat="41.660967031493783" lon="-0.927229011431336">
        <ele>247.19999999999999</ele>
        <time>2025-05-13T15:02:51Z</time>
      </trkpt>
      <trkpt lat="41.66094096377492" lon="-0.927222976461053">
        <ele>246.22999999999999</ele>
        <time>2025-05-13T15:03:19Z</time>
      </trkpt>
      <trkpt lat="41.660940041765571" lon="-0.927206967025995">
        <ele>245.75</ele>
        <time>2025-05-13T15:04:00Z</time>
      </trkpt>
      <trkpt lat="41.660957979038358" lon="-0.927147036418319">
        <ele>244.31</ele>
        <time>2025-05-13T15:04:25Z</time>
      </trkpt>
      <trkpt lat="41.660929983481765" lon="-0.927103031426668">
        <ele>243.83000000000001</ele>
        <time>2025-05-13T15:04:26Z</time>
      </trkpt>
      <trkpt lat="41.660882961004972" lon="-0.927028013393283">
        <ele>241.91</ele>
        <time>2025-05-13T15:04:27Z</time>
      </trkpt>
      <trkpt lat="41.660839961841702" lon="-0.926960036158562">
        <ele>239.99000000000001</ele>
        <time>2025-05-13T15:04:28Z</time>
      </trkpt>
      <trkpt lat="41.660797968506813" lon="-0.92689398676157">
        <ele>238.06</ele>
        <time>2025-05-13T15:04:29Z</time>
      </trkpt>
      <trkpt lat="41.660765027627349" lon="-0.926829027011991">
        <ele>236.13999999999999</ele>
        <time>2025-05-13T15:04:30Z</time>
      </trkpt>
      <trkpt lat="41.660739965736866" lon="-0.926768006756902">
        <ele>234.22</ele>
        <time>2025-05-13T15:04:31Z</time>
      </trkpt>
      <trkpt lat="41.660736026242375" lon="-0.926715033128858">
        <ele>233.25999999999999</ele>
        <time>2025-05-13T15:04:32Z</time>
      </trkpt>
      <trkpt lat="41.660736026242375" lon="-0.926665998995304">
        <ele>231.81</ele>
        <time>2025-05-13T15:04:33Z</time>
      </trkpt>
      <trkpt lat="41.660736026242375" lon="-0.926631968468428">
        <ele>230.84999999999999</ele>
        <time>2025-05-13T15:04:34Z</time>
      </trkpt>
      <trkpt lat="41.660736026242375" lon="-0.926631968468428">
        <ele>228.93000000000001</ele>
        <time>2025-05-13T15:04:47Z</time>
      </trkpt>
      <trkpt lat="41.660736026242375" lon="-0.926525015383959">
        <ele>226.53</ele>
        <time>2025-05-13T15:04:52Z</time>
      </trkpt>
      <trkpt lat="41.660684980452061" lon="-0.926418984308839">
        <ele>226.05000000000001</ele>
        <time>2025-05-13T15:04:53Z</time>
      </trkpt>
      <trkpt lat="41.660629995167255" lon="-0.926333991810679">
        <ele>225.09</ele>
        <time>2025-05-13T15:04:54Z</time>
      </trkpt>
      <trkpt lat="41.660063965246081" lon="-0.925456993281841">
        <ele>219.80000000000001</ele>
        <time>2025-05-13T15:05:01Z</time>
      </trkpt>
      <trkpt lat="41.659390982240438" lon="-0.924415960907936">
        <ele>215.47</ele>
        <time>2025-05-13T15:05:09Z</time>
      </trkpt>
      <trkpt lat="41.658719005063176" lon="-0.923216007649899">
        <ele>211.15000000000001</ele>
        <time>2025-05-13T15:05:18Z</time>
      </trkpt>
      <trkpt lat="41.658623032271862" lon="-0.92291702516377">
        <ele>210.19</ele>
        <time>2025-05-13T15:05:20Z</time>
      </trkpt>
      <trkpt lat="41.658596964552999" lon="-0.922763971611857">
        <ele>210.19</ele>
        <time>2025-05-13T15:05:21Z</time>
      </trkpt>
      <trkpt lat="41.658462015911937" lon="-0.921781025826931">
        <ele>205.38</ele>
        <time>2025-05-13T15:05:27Z</time>
      </trkpt>
      <trkpt lat="41.658484982326627" lon="-0.921455975621939">
        <ele>204.41999999999999</ele>
        <time>2025-05-13T15:05:29Z</time>
      </trkpt>
      <trkpt lat="41.658498980104923" lon="-0.921290013939142">
        <ele>204.90000000000001</ele>
        <time>2025-05-13T15:05:30Z</time>
      </trkpt>
      <trkpt lat="41.658520018681884" lon="-0.921121034771204">
        <ele>205.38</ele>
        <time>2025-05-13T15:05:31Z</time>
      </trkpt>
      <trkpt lat="41.658546002581716" lon="-0.920949038118124">
        <ele>205.86000000000001</ele>
        <time>2025-05-13T15:05:32Z</time>
      </trkpt>
      <trkpt lat="41.658570980653167" lon="-0.920785004273057">
        <ele>206.34</ele>
        <time>2025-05-13T15:05:33Z</time>
      </trkpt>
      <trkpt lat="41.658595036715269" lon="-0.920629017055035">
        <ele>206.81999999999999</ele>
        <time>2025-05-13T15:05:34Z</time>
      </trkpt>
      <trkpt lat="41.658697966486216" lon="-0.919692004099488">
        <ele>208.74000000000001</ele>
        <time>2025-05-13T15:05:40Z</time>
      </trkpt>
      <trkpt lat="41.658697966486216" lon="-0.919516989961267">
        <ele>208.74000000000001</ele>
        <time>2025-05-13T15:05:41Z</time>
      </trkpt>
      <trkpt lat="41.658681035041809" lon="-0.919353039935231">
        <ele>208.74000000000001</ele>
        <time>2025-05-13T15:05:42Z</time>
      </trkpt>
      <trkpt lat="41.658613979816437" lon="-0.919046010822058">
        <ele>207.78</ele>
        <time>2025-05-13T15:05:44Z</time>
      </trkpt>
      <trkpt lat="41.658250959590077" lon="-0.91765402816236">
        <ele>205.86000000000001</ele>
        <time>2025-05-13T15:05:53Z</time>
      </trkpt>
      <trkpt lat="41.657958012074232" lon="-0.916544012725353">
        <ele>204.41999999999999</ele>
        <time>2025-05-13T15:06:01Z</time>
      </trkpt>
      <trkpt lat="41.657833037897944" lon="-0.91610798612237">
        <ele>204.90000000000001</ele>
        <time>2025-05-13T15:06:04Z</time>
      </trkpt>
      <trkpt lat="41.6578059643507" lon="-0.916016958653927">
        <ele>205.38</ele>
        <time>2025-05-13T15:06:05Z</time>
      </trkpt>
      <trkpt lat="41.65816898457706" lon="-0.915786037221551">
        <ele>205.38</ele>
        <time>2025-05-13T15:06:09Z</time>
      </trkpt>
      <trkpt lat="41.658260012045503" lon="-0.915810009464622">
        <ele>205.38</ele>
        <time>2025-05-13T15:06:10Z</time>
      </trkpt>
      <trkpt lat="41.658343998715281" lon="-0.915831970050931">
        <ele>205.86000000000001</ele>
        <time>2025-05-13T15:06:11Z</time>
      </trkpt>
      <trkpt lat="41.65844701230526" lon="-0.9157869592309">
        <ele>205.86000000000001</ele>
        <time>2025-05-13T15:06:12Z</time>
      </trkpt>
      <trkpt lat="41.65851297788322" lon="-0.915753012523055">
        <ele>206.34</ele>
        <time>2025-05-13T15:06:13Z</time>
      </trkpt>
      <trkpt lat="41.658570980653167" lon="-0.915723005309701">
        <ele>206.81999999999999</ele>
        <time>2025-05-13T15:06:14Z</time>
      </trkpt>
      <trkpt lat="41.658623032271862" lon="-0.915696015581489">
        <ele>206.81999999999999</ele>
        <time>2025-05-13T15:06:15Z</time>
      </trkpt>
      <trkpt lat="41.658725962042809" lon="-0.915642958134413">
        <ele>207.78</ele>
        <time>2025-05-13T15:06:22Z</time>
      </trkpt>
      <trkpt lat="41.658869041129947" lon="-0.91556902974844">
        <ele>209.22</ele>
        <time>2025-05-13T15:06:49Z</time>
      </trkpt>
      <trkpt lat="41.65945602580905" lon="-0.91531396843493">
        <ele>208.74000000000001</ele>
        <time>2025-05-13T15:06:58Z</time>
      </trkpt>
      <trkpt lat="41.660206960514188" lon="-0.914922030642629">
        <ele>209.22</ele>
        <time>2025-05-13T15:07:06Z</time>
      </trkpt>
      <trkpt lat="41.660758992657065" lon="-0.914688007906079">
        <ele>209.69999999999999</ele>
        <time>2025-05-13T15:07:12Z</time>
      </trkpt>
      <trkpt lat="41.660827975720167" lon="-0.914578037336469">
        <ele>209.69999999999999</ele>
        <time>2025-05-13T15:07:13Z</time>
      </trkpt>
      <trkpt lat="41.660885978490114" lon="-0.914462031796575">
        <ele>209.69999999999999</ele>
        <time>2025-05-13T15:07:14Z</time>
      </trkpt>
      <trkpt lat="41.660914979875088" lon="-0.914362035691738">
        <ele>209.69999999999999</ele>
        <time>2025-05-13T15:07:15Z</time>
      </trkpt>
      <trkpt lat="41.660909028723836" lon="-0.914233038201928">
        <ele>209.69999999999999</ele>
        <time>2025-05-13T15:07:16Z</time>
      </trkpt>
      <trkpt lat="41.660878015682101" lon="-0.914114015176892">
        <ele>209.69999999999999</ele>
        <time>2025-05-13T15:07:17Z</time>
      </trkpt>
      <trkpt lat="41.660845996811986" lon="-0.913989041000605">
        <ele>209.69999999999999</ele>
        <time>2025-05-13T15:07:18Z</time>
      </trkpt>
      <trkpt lat="41.66081196628511" lon="-0.913859037682414">
        <ele>209.69999999999999</ele>
        <time>2025-05-13T15:07:19Z</time>
      </trkpt>
      <trkpt lat="41.660342998802662" lon="-0.912214005365968">
        <ele>208.74000000000001</ele>
        <time>2025-05-13T15:07:31Z</time>
      </trkpt>
      <trkpt lat="41.660019960254431" lon="-0.91101597994566">
        <ele>208.25999999999999</ele>
        <time>2025-05-13T15:07:42Z</time>
      </trkpt>
      <trkpt lat="41.659976039081812" lon="-0.910848006606102">
        <ele>208.74000000000001</ele>
        <time>2025-05-13T15:07:50Z</time>
      </trkpt>
      <trkpt lat="41.659900015220046" lon="-0.910568973049521">
        <ele>208.25999999999999</ele>
        <time>2025-05-13T15:08:06Z</time>
      </trkpt>
      <trkpt lat="41.659583011642098" lon="-0.909432973712683">
        <ele>208.25999999999999</ele>
        <time>2025-05-13T15:08:15Z</time>
      </trkpt>
      <trkpt lat="41.659186966717243" lon="-0.908401999622583">
        <ele>207.30000000000001</ele>
        <time>2025-05-13T15:08:22Z</time>
      </trkpt>
      <trkpt lat="41.658320026472211" lon="-0.907360967248678">
        <ele>207.30000000000001</ele>
        <time>2025-05-13T15:08:31Z</time>
      </trkpt>
      <trkpt lat="41.657701022922993" lon="-0.906143998727202">
        <ele>210.19</ele>
        <time>2025-05-13T15:08:40Z</time>
      </trkpt>
      <trkpt lat="41.657407991588116" lon="-0.904996013268828">
        <ele>210.66999999999999</ele>
        <time>2025-05-13T15:08:48Z</time>
      </trkpt>
      <trkpt lat="41.65722300298512" lon="-0.903534041717649">
        <ele>211.15000000000001</ele>
        <time>2025-05-13T15:08:58Z</time>
      </trkpt>
      <trkpt lat="41.657141027972102" lon="-0.902903974056244">
        <ele>210.66999999999999</ele>
        <time>2025-05-13T15:09:06Z</time>
      </trkpt>
      <trkpt lat="41.657141027972102" lon="-0.902903974056244">
        <ele>210.19</ele>
        <time>2025-05-13T15:09:18Z</time>
      </trkpt>
      <trkpt lat="41.65711697191" lon="-0.902696019038558">
        <ele>210.66999999999999</ele>
        <time>2025-05-13T15:09:52Z</time>
      </trkpt>
      <trkpt lat="41.657037008553743" lon="-0.902017001062632">
        <ele>210.19</ele>
        <time>2025-05-13T15:09:58Z</time>
      </trkpt>
      <trkpt lat="41.656828969717026" lon="-0.900916960090399">
        <ele>210.19</ele>
        <time>2025-05-13T15:10:05Z</time>
      </trkpt>
      <trkpt lat="41.656721010804176" lon="-0.900630969554186">
        <ele>210.66999999999999</ele>
        <time>2025-05-13T15:10:07Z</time>
      </trkpt>
      <trkpt lat="41.656022965908051" lon="-0.899347029626369">
        <ele>212.11000000000001</ele>
        <time>2025-05-13T15:10:17Z</time>
      </trkpt>
      <trkpt lat="41.655729012563825" lon="-0.898925000801682">
        <ele>212.59</ele>
        <time>2025-05-13T15:10:24Z</time>
      </trkpt>
      <trkpt lat="41.655729012563825" lon="-0.898925000801682">
        <ele>212.59</ele>
        <time>2025-05-13T15:10:39Z</time>
      </trkpt>
      <trkpt lat="41.655628010630608" lon="-0.898799020797014">
        <ele>211.63</ele>
        <time>2025-05-13T15:11:17Z</time>
      </trkpt>
      <trkpt lat="41.655489960685372" lon="-0.898631969466805">
        <ele>211.15000000000001</ele>
        <time>2025-05-13T15:11:20Z</time>
      </trkpt>
      <trkpt lat="41.655446961522102" lon="-0.898578995838761">
        <ele>210.66999999999999</ele>
        <time>2025-05-13T15:11:21Z</time>
      </trkpt>
      <trkpt lat="41.655372027307749" lon="-0.898540019989014">
        <ele>210.66999999999999</ele>
        <time>2025-05-13T15:11:22Z</time>
      </trkpt>
      <trkpt lat="41.65503297932446" lon="-0.898294011130929">
        <ele>208.25999999999999</ele>
        <time>2025-05-13T15:11:27Z</time>
      </trkpt>
      <trkpt lat="41.654975982382894" lon="-0.89821295812726">
        <ele>207.78</ele>
        <time>2025-05-13T15:11:28Z</time>
      </trkpt>
      <trkpt lat="41.654963996261358" lon="-0.898197032511234">
        <ele>207.30000000000001</ele>
        <time>2025-05-13T15:11:29Z</time>
      </trkpt>
      <trkpt lat="41.654930971562862" lon="-0.898041967302561">
        <ele>207.30000000000001</ele>
        <time>2025-05-13T15:11:30Z</time>
      </trkpt>
      <trkpt lat="41.654910016804934" lon="-0.897943982854486">
        <ele>207.30000000000001</ele>
        <time>2025-05-13T15:11:31Z</time>
      </trkpt>
      <trkpt lat="41.654899958521128" lon="-0.897890003398061">
        <ele>207.30000000000001</ele>
        <time>2025-05-13T15:11:32Z</time>
      </trkpt>
      <trkpt lat="41.654909010976553" lon="-0.897767040878534">
        <ele>206.81999999999999</ele>
        <time>2025-05-13T15:11:33Z</time>
      </trkpt>
      <trkpt lat="41.654916973784566" lon="-0.897666038945317">
        <ele>206.34</ele>
        <time>2025-05-13T15:11:34Z</time>
      </trkpt>
      <trkpt lat="41.654927032068372" lon="-0.897606024518609">
        <ele>206.34</ele>
        <time>2025-05-13T15:11:35Z</time>
      </trkpt>
      <trkpt lat="41.654952010139823" lon="-0.897555984556675">
        <ele>205.86000000000001</ele>
        <time>2025-05-13T15:11:36Z</time>
      </trkpt>
      <trkpt lat="41.654971037060022" lon="-0.897517008706927">
        <ele>205.86000000000001</ele>
        <time>2025-05-13T15:11:37Z</time>
      </trkpt>
      <trkpt lat="41.654985034838319" lon="-0.897489013150334">
        <ele>205.86000000000001</ele>
        <time>2025-05-13T15:11:38Z</time>
      </trkpt>
      <trkpt lat="41.654985034838319" lon="-0.897489013150334">
        <ele>205.38</ele>
        <time>2025-05-13T15:11:39Z</time>
      </trkpt>
      <trkpt lat="41.655034990981221" lon="-0.89745900593698">
        <ele>205.38</ele>
        <time>2025-05-13T15:11:53Z</time>
      </trkpt>
      <trkpt lat="41.655086958780885" lon="-0.897427992895246">
        <ele>205.38</ele>
        <time>2025-05-13T15:11:54Z</time>
      </trkpt>
      <trkpt lat="41.655144961550832" lon="-0.89741600677371">
        <ele>205.38</ele>
        <time>2025-05-13T15:11:55Z</time>
      </trkpt>
      <trkpt lat="41.655286028981209" lon="-0.897337971255183">
        <ele>205.38</ele>
        <time>2025-05-13T15:11:57Z</time>
      </trkpt>
      <trkpt lat="41.655329028144479" lon="-0.897274017333984">
        <ele>205.38</ele>
        <time>2025-05-13T15:11:58Z</time>
      </trkpt>
      <trkpt lat="41.655384013429284" lon="-0.897146025672555">
        <ele>205.38</ele>
        <time>2025-05-13T15:11:59Z</time>
      </trkpt>
      <trkpt lat="41.655418965965509" lon="-0.897030020132661">
        <ele>205.38</ele>
        <time>2025-05-13T15:12:00Z</time>
      </trkpt>
      <trkpt lat="41.655457019805908" lon="-0.896904962137342">
        <ele>205.38</ele>
        <time>2025-05-13T15:12:01Z</time>
      </trkpt>
      <trkpt lat="41.655494989827275" lon="-0.896775964647532">
        <ele>204.90000000000001</ele>
        <time>2025-05-13T15:12:02Z</time>
      </trkpt>
      <trkpt lat="41.655533965677023" lon="-0.896645961329341">
        <ele>204.90000000000001</ele>
        <time>2025-05-13T15:12:03Z</time>
      </trkpt>
      <trkpt lat="41.655786009505391" lon="-0.895210979506373">
        <ele>206.81999999999999</ele>
        <time>2025-05-13T15:12:13Z</time>
      </trkpt>
      <trkpt lat="41.655800007283688" lon="-0.895069995895028">
        <ele>206.81999999999999</ele>
        <time>2025-05-13T15:12:14Z</time>
      </trkpt>
      <trkpt lat="41.655814005061984" lon="-0.894931023940444">
        <ele>206.34</ele>
        <time>2025-05-13T15:12:15Z</time>
      </trkpt>
      <trkpt lat="41.655829008668661" lon="-0.894799008965492">
        <ele>206.34</ele>
        <time>2025-05-13T15:12:16Z</time>
      </trkpt>
      <trkpt lat="41.655943002551794" lon="-0.894198026508093">
        <ele>205.86000000000001</ele>
        <time>2025-05-13T15:12:23Z</time>
      </trkpt>
      <trkpt lat="41.655963035300374" lon="-0.894108004868031">
        <ele>204.41999999999999</ele>
        <time>2025-05-13T15:12:34Z</time>
      </trkpt>
      <trkpt lat="41.655972003936768" lon="-0.894067017361522">
        <ele>203.46000000000001</ele>
        <time>2025-05-13T15:12:55Z</time>
      </trkpt>
      <trkpt lat="41.655972003936768" lon="-0.894067017361522">
        <ele>203.46000000000001</ele>
        <time>2025-05-13T15:13:29Z</time>
      </trkpt>
      <trkpt lat="41.655986001715064" lon="-0.894007002934814">
        <ele>202.49000000000001</ele>
        <time>2025-05-13T15:13:36Z</time>
      </trkpt>
      <trkpt lat="41.655993964523077" lon="-0.893970038741827">
        <ele>201.53</ele>
        <time>2025-05-13T15:13:37Z</time>
      </trkpt>
      <trkpt lat="41.656029000878334" lon="-0.893893009051681">
        <ele>201.05000000000001</ele>
        <time>2025-05-13T15:13:38Z</time>
      </trkpt>
      <trkpt lat="41.656059008091688" lon="-0.893827965483069">
        <ele>200.56999999999999</ele>
        <time>2025-05-13T15:13:39Z</time>
      </trkpt>
      <trkpt lat="41.656087003648281" lon="-0.893769040703774">
        <ele>200.09</ele>
        <time>2025-05-13T15:13:40Z</time>
      </trkpt>
      <trkpt lat="41.656111981719732" lon="-0.893713971599936">
        <ele>199.13</ele>
        <time>2025-05-13T15:13:41Z</time>
      </trkpt>
      <trkpt lat="41.656122962012887" lon="-0.893691005185246">
        <ele>197.69</ele>
        <time>2025-05-13T15:13:43Z</time>
      </trkpt>
      <trkpt lat="41.656128996983171" lon="-0.893551027402282">
        <ele>197.21000000000001</ele>
        <time>2025-05-13T15:13:44Z</time>
      </trkpt>
      <trkpt lat="41.656133020296693" lon="-0.893479026854038">
        <ele>196.25</ele>
        <time>2025-05-13T15:13:45Z</time>
      </trkpt>
      <trkpt lat="41.656136037781835" lon="-0.893405014649034">
        <ele>195.28</ele>
        <time>2025-05-13T15:13:46Z</time>
      </trkpt>
      <trkpt lat="41.656139977276325" lon="-0.893329996615648">
        <ele>194.80000000000001</ele>
        <time>2025-05-13T15:13:47Z</time>
      </trkpt>
      <trkpt lat="41.656144000589848" lon="-0.893239974975586">
        <ele>193.84</ele>
        <time>2025-05-13T15:13:48Z</time>
      </trkpt>
      <trkpt lat="41.656136037781835" lon="-0.893199993297458">
        <ele>193.36000000000001</ele>
        <time>2025-05-13T15:13:49Z</time>
      </trkpt>
      <trkpt lat="41.656047021970153" lon="-0.892738988623023">
        <ele>187.11000000000001</ele>
        <time>2025-05-13T15:13:58Z</time>
      </trkpt>
      <trkpt lat="41.656039981171489" lon="-0.892701018601656">
        <ele>186.63</ele>
        <time>2025-05-13T15:13:59Z</time>
      </trkpt>
      <trkpt lat="41.656015003100038" lon="-0.892575038596988">
        <ele>186.15000000000001</ele>
        <time>2025-05-13T15:14:00Z</time>
      </trkpt>
      <trkpt lat="41.655990025028586" lon="-0.892583001405001">
        <ele>185.66999999999999</ele>
        <time>2025-05-13T15:14:01Z</time>
      </trkpt>
      <trkpt lat="41.655950965359807" lon="-0.892595993354917">
        <ele>185.19</ele>
        <time>2025-05-13T15:14:02Z</time>
      </trkpt>
      <trkpt lat="41.65593302808702" lon="-0.8926020283252">
        <ele>184.71000000000001</ele>
        <time>2025-05-13T15:14:03Z</time>
      </trkpt>
      <trkpt lat="41.655906960368156" lon="-0.892610996961594">
        <ele>184.22999999999999</ele>
        <time>2025-05-13T15:14:04Z</time>
      </trkpt>
      <trkpt lat="41.655729012563825" lon="-0.892665982246399">
        <ele>182.31</ele>
        <time>2025-05-13T15:14:09Z</time>
      </trkpt>
      <trkpt lat="41.655650977045298" lon="-0.892681991681457">
        <ele>181.83000000000001</ele>
        <time>2025-05-13T15:14:10Z</time>
      </trkpt>
      <trkpt lat="41.655639996752143" lon="-0.892678974196315">
        <ele>181.34999999999999</ele>
        <time>2025-05-13T15:14:11Z</time>
      </trkpt>
      <trkpt lat="41.655480992048979" lon="-0.892626000568271">
        <ele>179.41999999999999</ele>
        <time>2025-05-13T15:14:20Z</time>
      </trkpt>
      <trkpt lat="41.655448973178864" lon="-0.892608985304832">
        <ele>179.41999999999999</ele>
        <time>2025-05-13T15:14:32Z</time>
      </trkpt>
      <trkpt lat="41.655426006764174" lon="-0.892586018890142">
        <ele>178.46000000000001</ele>
        <time>2025-05-13T15:14:33Z</time>
      </trkpt>
      <trkpt lat="41.655183015391231" lon="-0.892080003395677">
        <ele>176.06</ele>
        <time>2025-05-13T15:14:41Z</time>
      </trkpt>
      <trkpt lat="41.655061980709434" lon="-0.891715977340937">
        <ele>176.53999999999999</ele>
        <time>2025-05-13T15:14:47Z</time>
      </trkpt>
      <trkpt lat="41.654914040118456" lon="-0.891364021226764">
        <ele>175.09999999999999</ele>
        <time>2025-05-13T15:14:55Z</time>
      </trkpt>
      <trkpt lat="41.654744977131486" lon="-0.890975017100573">
        <ele>172.69</ele>
        <time>2025-05-13T15:15:00Z</time>
      </trkpt>
      <trkpt lat="41.654455969110131" lon="-0.890275966376066">
        <ele>168.84999999999999</ele>
        <time>2025-05-13T15:15:09Z</time>
      </trkpt>
      <trkpt lat="41.654426967725158" lon="-0.890201032161713">
        <ele>168.84999999999999</ele>
        <time>2025-05-13T15:15:11Z</time>
      </trkpt>
      <trkpt lat="41.654428979381919" lon="-0.889962986111641">
        <ele>168.37</ele>
        <time>2025-05-13T15:15:12Z</time>
      </trkpt>
      <trkpt lat="41.654454963281751" lon="-0.889931973069906">
        <ele>169.81</ele>
        <time>2025-05-13T15:15:13Z</time>
      </trkpt>
      <trkpt lat="41.654570968821645" lon="-0.88978998363018">
        <ele>170.77000000000001</ele>
        <time>2025-05-13T15:15:17Z</time>
      </trkpt>
      <trkpt lat="41.654601981863379" lon="-0.889753019437194">
        <ele>170.77000000000001</ele>
        <time>2025-05-13T15:15:18Z</time>
      </trkpt>
      <trkpt lat="41.654664007946849" lon="-0.889678001403809">
        <ele>170.28999999999999</ele>
        <time>2025-05-13T15:15:19Z</time>
      </trkpt>
      <trkpt lat="41.654842961579561" lon="-0.889580016955733">
        <ele>168.37</ele>
        <time>2025-05-13T15:15:24Z</time>
      </trkpt>
      <trkpt lat="41.654874980449677" lon="-0.889563001692295">
        <ele>167.88999999999999</ele>
        <time>2025-05-13T15:15:25Z</time>
      </trkpt>
      <trkpt lat="41.654898030683398" lon="-0.889550009742379">
        <ele>167.41</ele>
        <time>2025-05-13T15:15:26Z</time>
      </trkpt>
      <trkpt lat="41.654918985441327" lon="-0.889539029449224">
        <ele>167.41</ele>
        <time>2025-05-13T15:15:27Z</time>
      </trkpt>
      <trkpt lat="41.654938012361526" lon="-0.889527965337038">
        <ele>167.41</ele>
        <time>2025-05-13T15:15:28Z</time>
      </trkpt>
      <trkpt lat="41.654938012361526" lon="-0.889527965337038">
        <ele>168.37</ele>
        <time>2025-05-13T15:15:41Z</time>
      </trkpt>
      <trkpt lat="41.655097017064691" lon="-0.889259995892644">
        <ele>172.21000000000001</ele>
        <time>2025-05-13T15:15:51Z</time>
      </trkpt>
      <trkpt lat="41.654971959069371" lon="-0.888817012310028">
        <ele>172.21000000000001</ele>
        <time>2025-05-13T15:16:00Z</time>
      </trkpt>
      <trkpt lat="41.654949998483062" lon="-0.888774013146758">
        <ele>172.21000000000001</ele>
        <time>2025-05-13T15:16:10Z</time>
      </trkpt>
      <trkpt lat="41.654826030135155" lon="-0.888534039258957">
        <ele>172.69</ele>
        <time>2025-05-13T15:16:25Z</time>
      </trkpt>
      <trkpt lat="41.654754029586911" lon="-0.88839397765696">
        <ele>175.58000000000001</ele>
        <time>2025-05-13T15:16:35Z</time>
      </trkpt>
      <trkpt lat="41.654652021825314" lon="-0.888161966577172">
        <ele>173.66</ele>
        <time>2025-05-13T15:16:43Z</time>
      </trkpt>
      <trkpt lat="41.654636012390256" lon="-0.888085020706058">
        <ele>172.69</ele>
        <time>2025-05-13T15:16:58Z</time>
      </trkpt>
      <trkpt lat="41.654636012390256" lon="-0.888085020706058">
        <ele>172.69</ele>
        <time>2025-05-13T15:17:28Z</time>
      </trkpt>
      <trkpt lat="41.654613967984915" lon="-0.887978989630938">
        <ele>173.66</ele>
        <time>2025-05-13T15:17:33Z</time>
      </trkpt>
      <trkpt lat="41.654613967984915" lon="-0.887978989630938">
        <ele>173.16999999999999</ele>
        <time>2025-05-13T15:17:45Z</time>
      </trkpt>
      <trkpt lat="41.654613967984915" lon="-0.887978989630938">
        <ele>173.16999999999999</ele>
        <time>2025-05-13T15:18:30Z</time>
      </trkpt>
      <trkpt lat="41.654698960483074" lon="-0.888194991275668">
        <ele>173.16999999999999</ele>
        <time>2025-05-13T15:19:00Z</time>
      </trkpt>
      <trkpt lat="41.65462302044034" lon="-0.888021988794208">
        <ele>172.69</ele>
        <time>2025-05-13T15:19:01Z</time>
      </trkpt>
      <trkpt lat="41.654588989913464" lon="-0.887857032939792">
        <ele>176.06</ele>
        <time>2025-05-13T15:19:13Z</time>
      </trkpt>
      <trkpt lat="41.654588989913464" lon="-0.887857032939792">
        <ele>176.06</ele>
        <time>2025-05-13T15:19:32Z</time>
      </trkpt>
      <trkpt lat="41.654410036280751" lon="-0.887927021831274">
        <ele>188.56</ele>
        <time>2025-05-14T06:04:27Z</time>
      </trkpt>
      <trkpt lat="41.654485976323485" lon="-0.887830965220928">
        <ele>184.71000000000001</ele>
        <time>2025-05-14T06:04:59Z</time>
      </trkpt>
      <trkpt lat="41.654526963829994" lon="-0.887892991304398">
        <ele>197.21000000000001</ele>
        <time>2025-05-14T06:05:30Z</time>
      </trkpt>
      <trkpt lat="41.654500979930162" lon="-0.887944037094712">
        <ele>198.65000000000001</ele>
        <time>2025-05-14T06:06:02Z</time>
      </trkpt>
      <trkpt lat="41.654503997415304" lon="-0.887941019609571">
        <ele>199.13</ele>
        <time>2025-05-14T06:06:47Z</time>
      </trkpt>
      <trkpt lat="41.654510032385588" lon="-0.887930961325765">
        <ele>199.61000000000001</ele>
        <time>2025-05-14T06:07:31Z</time>
      </trkpt>
      <trkpt lat="41.654512966051698" lon="-0.887926016002893">
        <ele>200.56999999999999</ele>
        <time>2025-05-14T06:08:09Z</time>
      </trkpt>
      <trkpt lat="41.654512966051698" lon="-0.887925010174513">
        <ele>201.05000000000001</ele>
        <time>2025-05-14T06:08:57Z</time>
      </trkpt>
      <trkpt lat="41.654519001021981" lon="-0.887924004346132">
        <ele>202.00999999999999</ele>
        <time>2025-05-14T06:09:44Z</time>
      </trkpt>
      <trkpt lat="41.654523024335504" lon="-0.887921992689371">
        <ele>202.97999999999999</ele>
        <time>2025-05-14T06:10:22Z</time>
      </trkpt>
      <trkpt lat="41.654525035992265" lon="-0.887922998517752">
        <ele>202.97999999999999</ele>
        <time>2025-05-14T06:11:03Z</time>
      </trkpt>
      <trkpt lat="41.654540961608291" lon="-0.887931967154145">
        <ele>202.97999999999999</ele>
        <time>2025-05-14T06:11:40Z</time>
      </trkpt>
      <trkpt lat="41.654526963829994" lon="-0.887973960489035">
        <ele>214.50999999999999</ele>
        <time>2025-05-14T06:12:15Z</time>
      </trkpt>
      <trkpt lat="41.654567029327154" lon="-0.887934984639287">
        <ele>213.55000000000001</ele>
        <time>2025-05-14T06:12:39Z</time>
      </trkpt>
      <trkpt lat="41.654558982700109" lon="-0.887953005731106">
        <ele>213.55000000000001</ele>
        <time>2025-05-14T06:13:16Z</time>
      </trkpt>
      <trkpt lat="41.654626959934831" lon="-0.88796298019588">
        <ele>217.40000000000001</ele>
        <time>2025-05-14T06:13:40Z</time>
      </trkpt>
      <trkpt lat="41.654641041532159" lon="-0.887964991852641">
        <ele>218.84</ele>
        <time>2025-05-14T06:13:54Z</time>
      </trkpt>
      <trkpt lat="41.654702983796597" lon="-0.888189040124416">
        <ele>218.84</ele>
        <time>2025-05-14T06:14:03Z</time>
      </trkpt>
      <trkpt lat="41.654702983796597" lon="-0.888189040124416">
        <ele>218.84</ele>
        <time>2025-05-14T06:14:29Z</time>
      </trkpt>
      <trkpt lat="41.654733996838331" lon="-0.888205971568823">
        <ele>225.09</ele>
        <time>2025-05-14T06:14:38Z</time>
      </trkpt>
      <trkpt lat="41.654743971303105" lon="-0.888163978233933">
        <ele>226.53</ele>
        <time>2025-05-14T06:14:40Z</time>
      </trkpt>
      <trkpt lat="41.654762998223305" lon="-0.888150986284018">
        <ele>227.00999999999999</ele>
        <time>2025-05-14T06:14:41Z</time>
      </trkpt>
      <trkpt lat="41.655008001253009" lon="-0.887984018772841">
        <ele>228.93000000000001</ele>
        <time>2025-05-14T06:14:48Z</time>
      </trkpt>
      <trkpt lat="41.655027028173208" lon="-0.887970020994544">
        <ele>229.41</ele>
        <time>2025-05-14T06:14:49Z</time>
      </trkpt>
      <trkpt lat="41.655048988759518" lon="-0.887956023216248">
        <ele>229.41</ele>
        <time>2025-05-14T06:14:50Z</time>
      </trkpt>
      <trkpt lat="41.655071033164859" lon="-0.88794001378119">
        <ele>229.41</ele>
        <time>2025-05-14T06:14:51Z</time>
      </trkpt>
      <trkpt lat="41.655071033164859" lon="-0.88794001378119">
        <ele>229.41</ele>
        <time>2025-05-14T06:14:52Z</time>
      </trkpt>
      <trkpt lat="41.655037002637982" lon="-0.887676989659667">
        <ele>229.88999999999999</ele>
        <time>2025-05-14T06:14:55Z</time>
      </trkpt>
      <trkpt lat="41.654966007918119" lon="-0.887297037988901">
        <ele>230.37</ele>
        <time>2025-05-14T06:14:59Z</time>
      </trkpt>
      <trkpt lat="41.654930971562862" lon="-0.886813988909125">
        <ele>228.93000000000001</ele>
        <time>2025-05-14T06:15:05Z</time>
      </trkpt>
      <trkpt lat="41.654889984056354" lon="-0.886634029448032">
        <ele>228.44999999999999</ele>
        <time>2025-05-14T06:15:07Z</time>
      </trkpt>
      <trkpt lat="41.6546889860183" lon="-0.886037992313504">
        <ele>224.61000000000001</ele>
        <time>2025-05-14T06:15:15Z</time>
      </trkpt>
      <trkpt lat="41.654749000445008" lon="-0.885816039517522">
        <ele>224.12</ele>
        <time>2025-05-14T06:15:17Z</time>
      </trkpt>
      <trkpt lat="41.654749000445008" lon="-0.885816039517522">
        <ele>224.12</ele>
        <time>2025-05-14T06:15:18Z</time>
      </trkpt>
      <trkpt lat="41.654749000445008" lon="-0.885816039517522">
        <ele>223.63999999999999</ele>
        <time>2025-05-14T06:15:19Z</time>
      </trkpt>
      <trkpt lat="41.654749000445008" lon="-0.885816039517522">
        <ele>223.63999999999999</ele>
        <time>2025-05-14T06:15:20Z</time>
      </trkpt>
      <trkpt lat="41.654842961579561" lon="-0.884744999930263">
        <ele>220.75999999999999</ele>
        <time>2025-05-14T06:15:29Z</time>
      </trkpt>
      <trkpt lat="41.6545370221138" lon="-0.884277960285544">
        <ele>216.91</ele>
        <time>2025-05-14T06:15:34Z</time>
      </trkpt>
      <trkpt lat="41.6545370221138" lon="-0.884277960285544">
        <ele>215.47</ele>
        <time>2025-05-14T06:15:48Z</time>
      </trkpt>
      <trkpt lat="41.6545370221138" lon="-0.884277960285544">
        <ele>215.47</ele>
        <time>2025-05-14T06:16:00Z</time>
      </trkpt>
      <trkpt lat="41.65406302548945" lon="-0.884248958900571">
        <ele>214.50999999999999</ele>
        <time>2025-05-14T06:16:05Z</time>
      </trkpt>
      <trkpt lat="41.65406302548945" lon="-0.884248958900571">
        <ele>214.03</ele>
        <time>2025-05-14T06:16:06Z</time>
      </trkpt>
      <trkpt lat="41.65406302548945" lon="-0.884248958900571">
        <ele>214.03</ele>
        <time>2025-05-14T06:16:07Z</time>
      </trkpt>
      <trkpt lat="41.65406302548945" lon="-0.884248958900571">
        <ele>214.03</ele>
        <time>2025-05-14T06:16:08Z</time>
      </trkpt>
      <trkpt lat="41.65402002632618" lon="-0.884205959737301">
        <ele>214.50999999999999</ele>
        <time>2025-05-14T06:16:09Z</time>
      </trkpt>
      <trkpt lat="41.653985995799303" lon="-0.88420202024281">
        <ele>215.47</ele>
        <time>2025-05-14T06:16:10Z</time>
      </trkpt>
      <trkpt lat="41.65393503382802" lon="-0.884193973615766">
        <ele>216.43000000000001</ele>
        <time>2025-05-14T06:16:11Z</time>
      </trkpt>
      <trkpt lat="41.653862027451396" lon="-0.884187016636133">
        <ele>216.91</ele>
        <time>2025-05-14T06:16:12Z</time>
      </trkpt>
      <trkpt lat="41.653800001367927" lon="-0.884207971394062">
        <ele>216.91</ele>
        <time>2025-05-14T06:16:13Z</time>
      </trkpt>
      <trkpt lat="41.653736969456077" lon="-0.884229009971023">
        <ele>216.91</ele>
        <time>2025-05-14T06:16:14Z</time>
      </trkpt>
      <trkpt lat="41.653675027191639" lon="-0.884249964728951">
        <ele>216.43000000000001</ele>
        <time>2025-05-14T06:16:15Z</time>
      </trkpt>
      <trkpt lat="41.653604032471776" lon="-0.884274020791054">
        <ele>216.43000000000001</ele>
        <time>2025-05-14T06:16:16Z</time>
      </trkpt>
      <trkpt lat="41.653542006388307" lon="-0.884306039661169">
        <ele>216.43000000000001</ele>
        <time>2025-05-14T06:16:17Z</time>
      </trkpt>
      <trkpt lat="41.653474029153585" lon="-0.884339986369014">
        <ele>216.43000000000001</ele>
        <time>2025-05-14T06:16:18Z</time>
      </trkpt>
      <trkpt lat="41.653329022228718" lon="-0.88439698331058">
        <ele>215.94999999999999</ele>
        <time>2025-05-14T06:16:21Z</time>
      </trkpt>
      <trkpt lat="41.653289962559938" lon="-0.884410981088877">
        <ele>215.47</ele>
        <time>2025-05-14T06:16:22Z</time>
      </trkpt>
      <trkpt lat="41.653203964233398" lon="-0.884441994130611">
        <ele>215.47</ele>
        <time>2025-05-14T06:16:23Z</time>
      </trkpt>
      <trkpt lat="41.653075972571969" lon="-0.884507037699223">
        <ele>215.47</ele>
        <time>2025-05-14T06:16:24Z</time>
      </trkpt>
      <trkpt lat="41.653153002262115" lon="-0.884467978030443">
        <ele>214.99000000000001</ele>
        <time>2025-05-14T06:16:25Z</time>
      </trkpt>
      <trkpt lat="41.653128024190664" lon="-0.884479964151978">
        <ele>214.99000000000001</ele>
        <time>2025-05-14T06:16:26Z</time>
      </trkpt>
      <trkpt lat="41.653116038069129" lon="-0.884691020473838">
        <ele>214.03</ele>
        <time>2025-05-14T06:16:29Z</time>
      </trkpt>
      <trkpt lat="41.653133975341916" lon="-0.884774001315236">
        <ele>214.03</ele>
        <time>2025-05-14T06:16:30Z</time>
      </trkpt>
      <trkpt lat="41.65322600863874" lon="-0.885193012654781">
        <ele>214.03</ele>
        <time>2025-05-14T06:16:34Z</time>
      </trkpt>
      <trkpt lat="41.653245035558939" lon="-0.885314969345927">
        <ele>213.55000000000001</ele>
        <time>2025-05-14T06:16:39Z</time>
      </trkpt>
      <trkpt lat="41.653247969225049" lon="-0.88534003123641">
        <ele>213.55000000000001</ele>
        <time>2025-05-14T06:16:40Z</time>
      </trkpt>
      <trkpt lat="41.65326900780201" lon="-0.88547196239233">
        <ele>210.66999999999999</ele>
        <time>2025-05-14T06:16:48Z</time>
      </trkpt>
      <trkpt lat="41.65326900780201" lon="-0.88547196239233">
        <ele>210.19</ele>
        <time>2025-05-14T06:16:49Z</time>
      </trkpt>
      <trkpt lat="41.65326900780201" lon="-0.88547196239233">
        <ele>210.19</ele>
        <time>2025-05-14T06:16:50Z</time>
      </trkpt>
      <trkpt lat="41.65326900780201" lon="-0.88547196239233">
        <ele>210.19</ele>
        <time>2025-05-14T06:16:51Z</time>
      </trkpt>
      <trkpt lat="41.65326900780201" lon="-0.88547196239233">
        <ele>209.69999999999999</ele>
        <time>2025-05-14T06:16:52Z</time>
      </trkpt>
      <trkpt lat="41.65326900780201" lon="-0.88547196239233">
        <ele>209.69999999999999</ele>
        <time>2025-05-14T06:16:53Z</time>
      </trkpt>
      <trkpt lat="41.65301101282239" lon="-0.885836994275451">
        <ele>209.22</ele>
        <time>2025-05-14T06:16:54Z</time>
      </trkpt>
      <trkpt lat="41.65303498506546" lon="-0.885916035622358">
        <ele>209.22</ele>
        <time>2025-05-14T06:16:55Z</time>
      </trkpt>
      <trkpt lat="41.653047977015376" lon="-0.885960040614009">
        <ele>208.74000000000001</ele>
        <time>2025-05-14T06:16:56Z</time>
      </trkpt>
      <trkpt lat="41.653059963136911" lon="-0.885999016463757">
        <ele>208.74000000000001</ele>
        <time>2025-05-14T06:16:57Z</time>
      </trkpt>
      <trkpt lat="41.653071027249098" lon="-0.886035980656743">
        <ele>208.25999999999999</ele>
        <time>2025-05-14T06:16:58Z</time>
      </trkpt>
      <trkpt lat="41.653081001713872" lon="-0.886067999526858">
        <ele>208.25999999999999</ele>
        <time>2025-05-14T06:16:59Z</time>
      </trkpt>
      <trkpt lat="41.653089970350266" lon="-0.886101024225354">
        <ele>208.25999999999999</ele>
        <time>2025-05-14T06:17:00Z</time>
      </trkpt>
      <trkpt lat="41.653101034462452" lon="-0.886134970933199">
        <ele>207.78</ele>
        <time>2025-05-14T06:17:01Z</time>
      </trkpt>
      <trkpt lat="41.653110003098845" lon="-0.886167995631695">
        <ele>207.78</ele>
        <time>2025-05-14T06:17:02Z</time>
      </trkpt>
      <trkpt lat="41.653128024190664" lon="-0.886225998401642">
        <ele>206.81999999999999</ele>
        <time>2025-05-14T06:17:08Z</time>
      </trkpt>
      <trkpt lat="41.65322600863874" lon="-0.886245025321841">
        <ele>206.34</ele>
        <time>2025-05-14T06:17:09Z</time>
      </trkpt>
      <trkpt lat="41.653332961723208" lon="-0.886202026158571">
        <ele>205.86000000000001</ele>
        <time>2025-05-14T06:17:10Z</time>
      </trkpt>
      <trkpt lat="41.653357017785311" lon="-0.886196997016668">
        <ele>205.86000000000001</ele>
        <time>2025-05-14T06:17:11Z</time>
      </trkpt>
      <trkpt lat="41.653409991413355" lon="-0.886184005066752">
        <ele>205.38</ele>
        <time>2025-05-14T06:17:12Z</time>
      </trkpt>
      <trkpt lat="41.653460031375289" lon="-0.886173024773598">
        <ele>205.38</ele>
        <time>2025-05-14T06:17:13Z</time>
      </trkpt>
      <trkpt lat="41.653519961982965" lon="-0.886159026995301">
        <ele>204.90000000000001</ele>
        <time>2025-05-14T06:17:14Z</time>
      </trkpt>
      <trkpt lat="41.65359003469348" lon="-0.886143017560244">
        <ele>204.90000000000001</ele>
        <time>2025-05-14T06:17:15Z</time>
      </trkpt>
      <trkpt lat="41.653662035241723" lon="-0.886126002296805">
        <ele>204.41999999999999</ele>
        <time>2025-05-14T06:17:16Z</time>
      </trkpt>
      <trkpt lat="41.65389102883637" lon="-0.886073028668761">
        <ele>206.34</ele>
        <time>2025-05-14T06:17:20Z</time>
      </trkpt>
      <trkpt lat="41.653926987200975" lon="-0.886065987870097">
        <ele>206.34</ele>
        <time>2025-05-14T06:17:21Z</time>
      </trkpt>
      <trkpt lat="41.653966968879104" lon="-0.886059030890465">
        <ele>206.34</ele>
        <time>2025-05-14T06:17:22Z</time>
      </trkpt>
      <trkpt lat="41.653996976092458" lon="-0.886052995920181">
        <ele>206.34</ele>
        <time>2025-05-14T06:17:23Z</time>
      </trkpt>
      <trkpt lat="41.654018014669418" lon="-0.886048972606659">
        <ele>206.81999999999999</ele>
        <time>2025-05-14T06:17:24Z</time>
      </trkpt>
      <trkpt lat="41.654033018276095" lon="-0.886046960949898">
        <ele>206.81999999999999</ele>
        <time>2025-05-14T06:17:25Z</time>
      </trkpt>
      <trkpt lat="41.654046010226011" lon="-0.886044027283788">
        <ele>206.81999999999999</ele>
        <time>2025-05-14T06:17:26Z</time>
      </trkpt>
      <trkpt lat="41.654068976640701" lon="-0.886040003970265">
        <ele>206.81999999999999</ele>
        <time>2025-05-14T06:17:27Z</time>
      </trkpt>
      <trkpt lat="41.654095966368914" lon="-0.886034974828362">
        <ele>206.81999999999999</ele>
        <time>2025-05-14T06:17:28Z</time>
      </trkpt>
      <trkpt lat="41.654123961925507" lon="-0.886030029505491">
        <ele>206.81999999999999</ele>
        <time>2025-05-14T06:17:29Z</time>
      </trkpt>
      <trkpt lat="41.654157992452383" lon="-0.886022988706827">
        <ele>206.34</ele>
        <time>2025-05-14T06:17:30Z</time>
      </trkpt>
      <trkpt lat="41.654194034636021" lon="-0.886017037555575">
        <ele>206.81999999999999</ele>
        <time>2025-05-14T06:17:31Z</time>
      </trkpt>
      <trkpt lat="41.654234016314149" lon="-0.886008990928531">
        <ele>206.81999999999999</ele>
        <time>2025-05-14T06:17:32Z</time>
      </trkpt>
      <trkpt lat="41.6542589943856" lon="-0.886003961786628">
        <ele>207.30000000000001</ele>
        <time>2025-05-14T06:17:33Z</time>
      </trkpt>
      <trkpt lat="41.654306016862392" lon="-0.885992981493473">
        <ele>207.78</ele>
        <time>2025-05-14T06:17:35Z</time>
      </trkpt>
      <trkpt lat="41.654356978833675" lon="-0.885982001200318">
        <ele>207.78</ele>
        <time>2025-05-14T06:17:36Z</time>
      </trkpt>
      <trkpt lat="41.654404001310468" lon="-0.885971020907164">
        <ele>208.25999999999999</ele>
        <time>2025-05-14T06:17:37Z</time>
      </trkpt>
      <trkpt lat="41.654448006302118" lon="-0.885960962623358">
        <ele>208.25999999999999</ele>
        <time>2025-05-14T06:17:38Z</time>
      </trkpt>
      <trkpt lat="41.654492011293769" lon="-0.885951993986964">
        <ele>208.74000000000001</ele>
        <time>2025-05-14T06:17:39Z</time>
      </trkpt>
      <trkpt lat="41.654628971591592" lon="-0.885960040614009">
        <ele>209.69999999999999</ele>
        <time>2025-05-14T06:17:40Z</time>
      </trkpt>
      <trkpt lat="41.654642969369888" lon="-0.886020977050066">
        <ele>210.19</ele>
        <time>2025-05-14T06:17:41Z</time>
      </trkpt>
      <trkpt lat="41.654658978804946" lon="-0.886089038103819">
        <ele>210.19</ele>
        <time>2025-05-14T06:17:42Z</time>
      </trkpt>
      <trkpt lat="41.654674988240004" lon="-0.886159026995301">
        <ele>210.19</ele>
        <time>2025-05-14T06:17:43Z</time>
      </trkpt>
      <trkpt lat="41.654693009331822" lon="-0.886239996179938">
        <ele>210.19</ele>
        <time>2025-05-14T06:17:44Z</time>
      </trkpt>
      <trkpt lat="41.654712958261371" lon="-0.886325994506478">
        <ele>210.19</ele>
        <time>2025-05-14T06:17:45Z</time>
      </trkpt>
      <trkpt lat="41.654730979353189" lon="-0.886409981176257">
        <ele>210.19</ele>
        <time>2025-05-14T06:17:46Z</time>
      </trkpt>
      <trkpt lat="41.654768027365208" lon="-0.886576026678085">
        <ele>209.69999999999999</ele>
        <time>2025-05-14T06:17:48Z</time>
      </trkpt>
      <trkpt lat="41.654784958809614" lon="-0.88665003888309">
        <ele>209.69999999999999</ele>
        <time>2025-05-14T06:17:49Z</time>
      </trkpt>
      <trkpt lat="41.654799962416291" lon="-0.886718016117811">
        <ele>209.69999999999999</ele>
        <time>2025-05-14T06:17:50Z</time>
      </trkpt>
      <trkpt lat="41.654813960194588" lon="-0.88678197003901">
        <ele>209.22</ele>
        <time>2025-05-14T06:17:51Z</time>
      </trkpt>
      <trkpt lat="41.654827035963535" lon="-0.886840978637338">
        <ele>209.22</ele>
        <time>2025-05-14T06:17:52Z</time>
      </trkpt>
      <trkpt lat="41.654885960742831" lon="-0.887105008587241">
        <ele>208.74000000000001</ele>
        <time>2025-05-14T06:17:58Z</time>
      </trkpt>
      <trkpt lat="41.654893001541495" lon="-0.887138033285737">
        <ele>208.25999999999999</ele>
        <time>2025-05-14T06:17:59Z</time>
      </trkpt>
      <trkpt lat="41.654899958521128" lon="-0.887170974165201">
        <ele>208.25999999999999</ele>
        <time>2025-05-14T06:18:00Z</time>
      </trkpt>
      <trkpt lat="41.654943041503429" lon="-0.8873609919101">
        <ele>208.25999999999999</ele>
        <time>2025-05-14T06:18:01Z</time>
      </trkpt>
      <trkpt lat="41.654943041503429" lon="-0.8873609919101">
        <ele>207.78</ele>
        <time>2025-05-14T06:18:02Z</time>
      </trkpt>
      <trkpt lat="41.654943041503429" lon="-0.8873609919101">
        <ele>207.78</ele>
        <time>2025-05-14T06:18:03Z</time>
      </trkpt>
      <trkpt lat="41.654943041503429" lon="-0.8873609919101">
        <ele>207.78</ele>
        <time>2025-05-14T06:18:04Z</time>
      </trkpt>
      <trkpt lat="41.654943041503429" lon="-0.8873609919101">
        <ele>207.30000000000001</ele>
        <time>2025-05-14T06:18:05Z</time>
      </trkpt>
      <trkpt lat="41.654943041503429" lon="-0.887364009395242">
        <ele>206.81999999999999</ele>
        <time>2025-05-14T06:18:09Z</time>
      </trkpt>
      <trkpt lat="41.654948992654681" lon="-0.887390999123454">
        <ele>206.81999999999999</ele>
        <time>2025-05-14T06:18:10Z</time>
      </trkpt>
      <trkpt lat="41.654959972947836" lon="-0.887438021600246">
        <ele>206.34</ele>
        <time>2025-05-14T06:18:11Z</time>
      </trkpt>
      <trkpt lat="41.655045971274376" lon="-0.887826019898057">
        <ele>205.38</ele>
        <time>2025-05-14T06:18:16Z</time>
      </trkpt>
      <trkpt lat="41.655064998194575" lon="-0.887911012396216">
        <ele>205.38</ele>
        <time>2025-05-14T06:18:17Z</time>
      </trkpt>
      <trkpt lat="41.655084025114775" lon="-0.887998016551137">
        <ele>204.90000000000001</ele>
        <time>2025-05-14T06:18:18Z</time>
      </trkpt>
      <trkpt lat="41.655101962387562" lon="-0.888082003220916">
        <ele>204.90000000000001</ele>
        <time>2025-05-14T06:18:19Z</time>
      </trkpt>
      <trkpt lat="41.655119983479381" lon="-0.888166995719075">
        <ele>204.41999999999999</ele>
        <time>2025-05-14T06:18:20Z</time>
      </trkpt>
      <trkpt lat="41.655201036483049" lon="-0.888546025380492">
        <ele>203.46000000000001</ele>
        <time>2025-05-14T06:18:24Z</time>
      </trkpt>
      <trkpt lat="41.655224002897739" lon="-0.88865197263658">
        <ele>203.46000000000001</ele>
        <time>2025-05-14T06:18:25Z</time>
      </trkpt>
      <trkpt lat="41.65528804063797" lon="-0.888965958729386">
        <ele>203.46000000000001</ele>
        <time>2025-05-14T06:18:28Z</time>
      </trkpt>
      <trkpt lat="41.655308995395899" lon="-0.889074001461267">
        <ele>203.94</ele>
        <time>2025-05-14T06:18:29Z</time>
      </trkpt>
      <trkpt lat="41.655372027307749" lon="-0.889398967847228">
        <ele>204.41999999999999</ele>
        <time>2025-05-14T06:18:31Z</time>
      </trkpt>
      <trkpt lat="41.655373033136129" lon="-0.889407014474273">
        <ele>204.41999999999999</ele>
        <time>2025-05-14T06:18:32Z</time>
      </trkpt>
      <trkpt lat="41.655395999550819" lon="-0.889517990872264">
        <ele>204.90000000000001</ele>
        <time>2025-05-14T06:18:33Z</time>
      </trkpt>
      <trkpt lat="41.655417960137129" lon="-0.889622010290623">
        <ele>204.90000000000001</ele>
        <time>2025-05-14T06:18:34Z</time>
      </trkpt>
      <trkpt lat="41.655437992885709" lon="-0.889717983081937">
        <ele>204.90000000000001</ele>
        <time>2025-05-14T06:18:35Z</time>
      </trkpt>
      <trkpt lat="41.655459031462669" lon="-0.889817979186773">
        <ele>204.90000000000001</ele>
        <time>2025-05-14T06:18:36Z</time>
      </trkpt>
      <trkpt lat="41.655477974563837" lon="-0.889913029968739">
        <ele>204.90000000000001</ele>
        <time>2025-05-14T06:18:37Z</time>
      </trkpt>
      <trkpt lat="41.655494989827275" lon="-0.889992993324995">
        <ele>204.41999999999999</ele>
        <time>2025-05-14T06:18:38Z</time>
      </trkpt>
      <trkpt lat="41.655507981777191" lon="-0.890055019408464">
        <ele>204.41999999999999</ele>
        <time>2025-05-14T06:18:39Z</time>
      </trkpt>
      <trkpt lat="41.655518962070346" lon="-0.89011101052165">
        <ele>204.41999999999999</ele>
        <time>2025-05-14T06:18:40Z</time>
      </trkpt>
      <trkpt lat="41.655531032010913" lon="-0.890167001634836">
        <ele>203.94</ele>
        <time>2025-05-14T06:18:41Z</time>
      </trkpt>
      <trkpt lat="41.655543018132448" lon="-0.890222992748022">
        <ele>203.94</ele>
        <time>2025-05-14T06:18:42Z</time>
      </trkpt>
      <trkpt lat="41.655607977882028" lon="-0.890535973012447">
        <ele>203.46000000000001</ele>
        <time>2025-05-14T06:18:45Z</time>
      </trkpt>
      <trkpt lat="41.655607977882028" lon="-0.890535973012447">
        <ele>202.97999999999999</ele>
        <time>2025-05-14T06:18:46Z</time>
      </trkpt>
      <trkpt lat="41.655607977882028" lon="-0.890535973012447">
        <ele>202.97999999999999</ele>
        <time>2025-05-14T06:18:47Z</time>
      </trkpt>
      <trkpt lat="41.655607977882028" lon="-0.890535973012447">
        <ele>202.49000000000001</ele>
        <time>2025-05-14T06:18:48Z</time>
      </trkpt>
      <trkpt lat="41.655609989538789" lon="-0.890548964962363">
        <ele>202.49000000000001</ele>
        <time>2025-05-14T06:18:49Z</time>
      </trkpt>
      <trkpt lat="41.655615018680692" lon="-0.890575032681227">
        <ele>202.49000000000001</ele>
        <time>2025-05-14T06:18:50Z</time>
      </trkpt>
      <trkpt lat="41.655615018680692" lon="-0.890575032681227">
        <ele>202.00999999999999</ele>
        <time>2025-05-14T06:18:51Z</time>
      </trkpt>
      <trkpt lat="41.655623987317085" lon="-0.890622977167368">
        <ele>201.53</ele>
        <time>2025-05-14T06:19:02Z</time>
      </trkpt>
      <trkpt lat="41.65571803227067" lon="-0.891112983226776">
        <ele>201.53</ele>
        <time>2025-05-14T06:19:09Z</time>
      </trkpt>
      <trkpt lat="41.655738987028599" lon="-0.891226977109909">
        <ele>201.53</ele>
        <time>2025-05-14T06:19:11Z</time>
      </trkpt>
      <trkpt lat="41.65576396510005" lon="-0.891362009570003">
        <ele>201.53</ele>
        <time>2025-05-14T06:19:13Z</time>
      </trkpt>
      <trkpt lat="41.655809981748462" lon="-0.8916159812361">
        <ele>201.53</ele>
        <time>2025-05-14T06:19:16Z</time>
      </trkpt>
      <trkpt lat="41.656032018363476" lon="-0.892659025266767">
        <ele>202.97999999999999</ele>
        <time>2025-05-14T06:19:25Z</time>
      </trkpt>
      <trkpt lat="41.656136037781835" lon="-0.89341901242733">
        <ele>204.41999999999999</ele>
        <time>2025-05-14T06:19:34Z</time>
      </trkpt>
      <trkpt lat="41.656136037781835" lon="-0.89341901242733">
        <ele>204.41999999999999</ele>
        <time>2025-05-14T06:19:44Z</time>
      </trkpt>
      <trkpt lat="41.656136037781835" lon="-0.89341901242733">
        <ele>205.86000000000001</ele>
        <time>2025-05-14T06:20:28Z</time>
      </trkpt>
      <trkpt lat="41.656309040263295" lon="-0.893666027113795">
        <ele>209.22</ele>
        <time>2025-05-14T06:20:42Z</time>
      </trkpt>
      <trkpt lat="41.656444994732738" lon="-0.893648006021976">
        <ele>209.22</ele>
        <time>2025-05-14T06:20:43Z</time>
      </trkpt>
      <trkpt lat="41.656395038589835" lon="-0.89365404099226">
        <ele>209.69999999999999</ele>
        <time>2025-05-14T06:20:44Z</time>
      </trkpt>
      <trkpt lat="41.656444994732738" lon="-0.893648006021976">
        <ele>209.69999999999999</ele>
        <time>2025-05-14T06:20:45Z</time>
      </trkpt>
      <trkpt lat="41.656444994732738" lon="-0.893648006021976">
        <ele>209.69999999999999</ele>
        <time>2025-05-14T06:20:46Z</time>
      </trkpt>
      <trkpt lat="41.656615985557437" lon="-0.893605006858706">
        <ele>210.19</ele>
        <time>2025-05-14T06:21:02Z</time>
      </trkpt>
      <trkpt lat="41.656822012737393" lon="-0.893564019352198">
        <ele>208.74000000000001</ele>
        <time>2025-05-14T06:21:12Z</time>
      </trkpt>
      <trkpt lat="41.656830981373787" lon="-0.893562007695436">
        <ele>208.74000000000001</ele>
        <time>2025-05-14T06:21:13Z</time>
      </trkpt>
      <trkpt lat="41.656875992193818" lon="-0.893543986603618">
        <ele>208.74000000000001</ele>
        <time>2025-05-14T06:21:14Z</time>
      </trkpt>
      <trkpt lat="41.656913962215185" lon="-0.893528982996941">
        <ele>209.22</ele>
        <time>2025-05-14T06:21:15Z</time>
      </trkpt>
      <trkpt lat="41.656958973035216" lon="-0.893510961905122">
        <ele>209.22</ele>
        <time>2025-05-14T06:21:16Z</time>
      </trkpt>
      <trkpt lat="41.657005995512009" lon="-0.893492018803954">
        <ele>209.69999999999999</ele>
        <time>2025-05-14T06:21:17Z</time>
      </trkpt>
      <trkpt lat="41.657058969140053" lon="-0.893470980226994">
        <ele>210.19</ele>
        <time>2025-05-14T06:21:18Z</time>
      </trkpt>
      <trkpt lat="41.65737203322351" lon="-0.893323039636016">
        <ele>210.66999999999999</ele>
        <time>2025-05-14T06:21:22Z</time>
      </trkpt>
      <trkpt lat="41.65745803155005" lon="-0.893275011330843">
        <ele>210.19</ele>
        <time>2025-05-14T06:21:23Z</time>
      </trkpt>
      <trkpt lat="41.657532965764403" lon="-0.893234023824334">
        <ele>210.19</ele>
        <time>2025-05-14T06:21:24Z</time>
      </trkpt>
      <trkpt lat="41.657603038474917" lon="-0.893194964155555">
        <ele>210.66999999999999</ele>
        <time>2025-05-14T06:21:25Z</time>
      </trkpt>
      <trkpt lat="41.657662969082594" lon="-0.893162023276091">
        <ele>211.15000000000001</ele>
        <time>2025-05-14T06:21:26Z</time>
      </trkpt>
      <trkpt lat="41.657715020701289" lon="-0.893133021891117">
        <ele>211.15000000000001</ele>
        <time>2025-05-14T06:21:27Z</time>
      </trkpt>
      <trkpt lat="41.657947031781077" lon="-0.893004024401307">
        <ele>212.59</ele>
        <time>2025-05-14T06:21:31Z</time>
      </trkpt>
      <trkpt lat="41.657968992367387" lon="-0.892992038279772">
        <ele>213.06999999999999</ele>
        <time>2025-05-14T06:21:32Z</time>
      </trkpt>
      <trkpt lat="41.658020038157701" lon="-0.892963036894798">
        <ele>213.55000000000001</ele>
        <time>2025-05-14T06:21:33Z</time>
      </trkpt>
      <trkpt lat="41.658567963168025" lon="-0.892575960606337">
        <ele>215.47</ele>
        <time>2025-05-14T06:21:40Z</time>
      </trkpt>
      <trkpt lat="41.658643987029791" lon="-0.892500020563602">
        <ele>216.43000000000001</ele>
        <time>2025-05-14T06:21:41Z</time>
      </trkpt>
      <trkpt lat="41.658714981749654" lon="-0.892428020015359">
        <ele>217.40000000000001</ele>
        <time>2025-05-14T06:21:42Z</time>
      </trkpt>
      <trkpt lat="41.658772984519601" lon="-0.892371023073792">
        <ele>218.36000000000001</ele>
        <time>2025-05-14T06:21:43Z</time>
      </trkpt>
      <trkpt lat="41.658805003389716" lon="-0.892296005040407">
        <ele>219.31999999999999</ele>
        <time>2025-05-14T06:21:44Z</time>
      </trkpt>
      <trkpt lat="41.658824030309916" lon="-0.89223800227046">
        <ele>218.36000000000001</ele>
        <time>2025-05-14T06:21:45Z</time>
      </trkpt>
      <trkpt lat="41.658841967582703" lon="-0.892186034470797">
        <ele>217.88</ele>
        <time>2025-05-14T06:21:46Z</time>
      </trkpt>
      <trkpt lat="41.658859988674521" lon="-0.892129959538579">
        <ele>217.88</ele>
        <time>2025-05-14T06:21:47Z</time>
      </trkpt>
      <trkpt lat="41.658882033079863" lon="-0.892064999789">
        <ele>217.88</ele>
        <time>2025-05-14T06:21:48Z</time>
      </trkpt>
      <trkpt lat="41.658908016979694" lon="-0.891987970098853">
        <ele>218.36000000000001</ele>
        <time>2025-05-14T06:21:49Z</time>
      </trkpt>
      <trkpt lat="41.658912040293217" lon="-0.891973972320557">
        <ele>217.88</ele>
        <time>2025-05-14T06:21:50Z</time>
      </trkpt>
      <trkpt lat="41.658977000042796" lon="-0.891927033662796">
        <ele>217.88</ele>
        <time>2025-05-14T06:21:51Z</time>
      </trkpt>
      <trkpt lat="41.65902896784246" lon="-0.891888979822397">
        <ele>217.88</ele>
        <time>2025-05-14T06:21:52Z</time>
      </trkpt>
      <trkpt lat="41.659083031117916" lon="-0.89185000397265">
        <ele>217.88</ele>
        <time>2025-05-14T06:21:53Z</time>
      </trkpt>
      <trkpt lat="41.659133993089199" lon="-0.891812033951283">
        <ele>217.88</ele>
        <time>2025-05-14T06:21:54Z</time>
      </trkpt>
      <trkpt lat="41.659147990867496" lon="-0.891801975667477">
        <ele>217.40000000000001</ele>
        <time>2025-05-14T06:21:55Z</time>
      </trkpt>
      <trkpt lat="41.659193001687527" lon="-0.891801975667477">
        <ele>217.40000000000001</ele>
        <time>2025-05-14T06:21:56Z</time>
      </trkpt>
      <trkpt lat="41.659225020557642" lon="-0.891805998980999">
        <ele>217.40000000000001</ele>
        <time>2025-05-14T06:21:57Z</time>
      </trkpt>
      <trkpt lat="41.659333985298872" lon="-0.891813961789012">
        <ele>217.40000000000001</ele>
        <time>2025-05-14T06:21:58Z</time>
      </trkpt>
      <trkpt lat="41.659314958378673" lon="-0.891854027286172">
        <ele>216.91</ele>
        <time>2025-05-14T06:21:59Z</time>
      </trkpt>
      <trkpt lat="41.659445967525244" lon="-0.891796024516225">
        <ele>216.91</ele>
        <time>2025-05-14T06:22:00Z</time>
      </trkpt>
      <trkpt lat="41.659514028578997" lon="-0.89178403839469">
        <ele>216.91</ele>
        <time>2025-05-14T06:22:01Z</time>
      </trkpt>
      <trkpt lat="41.659584017470479" lon="-0.891772974282503">
        <ele>216.91</ele>
        <time>2025-05-14T06:22:02Z</time>
      </trkpt>
      <trkpt lat="41.659663980826735" lon="-0.891758976504207">
        <ele>216.43000000000001</ele>
        <time>2025-05-14T06:22:03Z</time>
      </trkpt>
      <trkpt lat="41.659741010516882" lon="-0.891716983169317">
        <ele>215.94999999999999</ele>
        <time>2025-05-14T06:22:04Z</time>
      </trkpt>
      <trkpt lat="41.659905966371298" lon="-0.891626039519906">
        <ele>214.03</ele>
        <time>2025-05-14T06:22:06Z</time>
      </trkpt>
      <trkpt lat="41.660580961033702" lon="-0.890992032364011">
        <ele>211.15000000000001</ele>
        <time>2025-05-14T06:22:13Z</time>
      </trkpt>
      <trkpt lat="41.661621993407607" lon="-0.889950999990106">
        <ele>209.22</ele>
        <time>2025-05-14T06:22:24Z</time>
      </trkpt>
      <trkpt lat="41.661900021135807" lon="-0.889672972261906">
        <ele>207.78</ele>
        <time>2025-05-14T06:22:31Z</time>
      </trkpt>
      <trkpt lat="41.661900021135807" lon="-0.889672972261906">
        <ele>207.30000000000001</ele>
        <time>2025-05-14T06:22:43Z</time>
      </trkpt>
      <trkpt lat="41.661933967843652" lon="-0.889639025554061">
        <ele>206.81999999999999</ele>
        <time>2025-05-14T06:22:53Z</time>
      </trkpt>
      <trkpt lat="41.661951988935471" lon="-0.889613041654229">
        <ele>206.81999999999999</ele>
        <time>2025-05-14T06:22:54Z</time>
      </trkpt>
      <trkpt lat="41.661984007805586" lon="-0.889568030834198">
        <ele>206.81999999999999</ele>
        <time>2025-05-14T06:22:55Z</time>
      </trkpt>
      <trkpt lat="41.662496980279684" lon="-0.889096967875957">
        <ele>205.38</ele>
        <time>2025-05-14T06:23:03Z</time>
      </trkpt>
      <trkpt lat="41.663572965189815" lon="-0.888064987957478">
        <ele>203.46000000000001</ele>
        <time>2025-05-14T06:23:15Z</time>
      </trkpt>
      <trkpt lat="41.664116028696299" lon="-0.88748998939991">
        <ele>200.56999999999999</ele>
        <time>2025-05-14T06:23:24Z</time>
      </trkpt>
      <trkpt lat="41.664230022579432" lon="-0.887369960546494">
        <ele>198.65000000000001</ele>
        <time>2025-05-14T06:23:33Z</time>
      </trkpt>
      <trkpt lat="41.664340998977423" lon="-0.887253032997251">
        <ele>198.16999999999999</ele>
        <time>2025-05-14T06:23:36Z</time>
      </trkpt>
      <trkpt lat="41.664396990090609" lon="-0.887182038277388">
        <ele>197.69</ele>
        <time>2025-05-14T06:23:37Z</time>
      </trkpt>
      <trkpt lat="41.665109032765031" lon="-0.886164978146553">
        <ele>196.25</ele>
        <time>2025-05-14T06:23:46Z</time>
      </trkpt>
      <trkpt lat="41.665859967470169" lon="-0.884607033804059">
        <ele>196.72999999999999</ele>
        <time>2025-05-14T06:23:57Z</time>
      </trkpt>
      <trkpt lat="41.666174037382007" lon="-0.883701033890247">
        <ele>196.72999999999999</ele>
        <time>2025-05-14T06:24:05Z</time>
      </trkpt>
      <trkpt lat="41.666189040988684" lon="-0.88364495895803">
        <ele>196.72999999999999</ele>
        <time>2025-05-14T06:24:06Z</time>
      </trkpt>
      <trkpt lat="41.6662020329386" lon="-0.883595002815127">
        <ele>196.72999999999999</ele>
        <time>2025-05-14T06:24:07Z</time>
      </trkpt>
      <trkpt lat="41.666213013231754" lon="-0.883555021136999">
        <ele>196.72999999999999</ele>
        <time>2025-05-14T06:24:08Z</time>
      </trkpt>
      <trkpt lat="41.666220976039767" lon="-0.883523002266884">
        <ele>196.72999999999999</ele>
        <time>2025-05-14T06:24:09Z</time>
      </trkpt>
      <trkpt lat="41.666231034323573" lon="-0.883486960083246">
        <ele>196.72999999999999</ele>
        <time>2025-05-14T06:24:10Z</time>
      </trkpt>
      <trkpt lat="41.666244026273489" lon="-0.883439015597105">
        <ele>196.72999999999999</ele>
        <time>2025-05-14T06:24:11Z</time>
      </trkpt>
      <trkpt lat="41.666259029880166" lon="-0.883367015048862">
        <ele>196.72999999999999</ele>
        <time>2025-05-14T06:24:12Z</time>
      </trkpt>
      <trkpt lat="41.666277972981334" lon="-0.883260983973742">
        <ele>196.72999999999999</ele>
        <time>2025-05-14T06:24:13Z</time>
      </trkpt>
      <trkpt lat="41.666306974366307" lon="-0.883112959563732">
        <ele>196.72999999999999</ele>
        <time>2025-05-14T06:24:14Z</time>
      </trkpt>
      <trkpt lat="41.666339999064803" lon="-0.88295797817409">
        <ele>197.21000000000001</ele>
        <time>2025-05-14T06:24:15Z</time>
      </trkpt>
      <trkpt lat="41.666517024859786" lon="-0.88188199326396">
        <ele>196.72999999999999</ele>
        <time>2025-05-14T06:24:23Z</time>
      </trkpt>
      <trkpt lat="41.66658902540803" lon="-0.880971970036626">
        <ele>197.21000000000001</ele>
        <time>2025-05-14T06:24:31Z</time>
      </trkpt>
      <trkpt lat="41.666593970730901" lon="-0.879330961033702">
        <ele>197.21000000000001</ele>
        <time>2025-05-14T06:24:43Z</time>
      </trkpt>
      <trkpt lat="41.666573015972972" lon="-0.878221029415727">
        <ele>195.77000000000001</ele>
        <time>2025-05-14T06:24:52Z</time>
      </trkpt>
      <trkpt lat="41.666550971567631" lon="-0.877105984836817">
        <ele>194.80000000000001</ele>
        <time>2025-05-14T06:25:01Z</time>
      </trkpt>
      <trkpt lat="41.666538985446095" lon="-0.875386018306017">
        <ele>194.31999999999999</ele>
        <time>2025-05-14T06:25:12Z</time>
      </trkpt>
      <trkpt lat="41.666513001546264" lon="-0.874543972313404">
        <ele>194.80000000000001</ele>
        <time>2025-05-14T06:25:18Z</time>
      </trkpt>
      <trkpt lat="41.666507972404361" lon="-0.874485969543457">
        <ele>194.80000000000001</ele>
        <time>2025-05-14T06:25:19Z</time>
      </trkpt>
      <trkpt lat="41.666507972404361" lon="-0.874313972890377">
        <ele>195.28</ele>
        <time>2025-05-14T06:25:20Z</time>
      </trkpt>
      <trkpt lat="41.666507972404361" lon="-0.873751966282725">
        <ele>196.25</ele>
        <time>2025-05-14T06:25:26Z</time>
      </trkpt>
      <trkpt lat="41.666507972404361" lon="-0.873669991269708">
        <ele>196.25</ele>
        <time>2025-05-14T06:25:34Z</time>
      </trkpt>
      <trkpt lat="41.666507972404361" lon="-0.873436974361539">
        <ele>197.21000000000001</ele>
        <time>2025-05-14T06:25:49Z</time>
      </trkpt>
      <trkpt lat="41.666507972404361" lon="-0.872629964724183">
        <ele>198.16999999999999</ele>
        <time>2025-05-14T06:25:58Z</time>
      </trkpt>
      <trkpt lat="41.666507972404361" lon="-0.872629964724183">
        <ele>198.16999999999999</ele>
        <time>2025-05-14T06:26:06Z</time>
      </trkpt>
      <trkpt lat="41.666507972404361" lon="-0.872573973610997">
        <ele>198.16999999999999</ele>
        <time>2025-05-14T06:26:12Z</time>
      </trkpt>
      <trkpt lat="41.666507972404361" lon="-0.872498033568263">
        <ele>198.16999999999999</ele>
        <time>2025-05-14T06:26:13Z</time>
      </trkpt>
      <trkpt lat="41.666492968797684" lon="-0.87208497337997">
        <ele>198.65000000000001</ele>
        <time>2025-05-14T06:26:18Z</time>
      </trkpt>
      <trkpt lat="41.666488023474813" lon="-0.872011967003345">
        <ele>198.65000000000001</ele>
        <time>2025-05-14T06:26:19Z</time>
      </trkpt>
      <trkpt lat="41.666487017646432" lon="-0.871996963396668">
        <ele>198.16999999999999</ele>
        <time>2025-05-14T06:26:20Z</time>
      </trkpt>
      <trkpt lat="41.666392972692847" lon="-0.87180401198566">
        <ele>198.16999999999999</ele>
        <time>2025-05-14T06:26:21Z</time>
      </trkpt>
      <trkpt lat="41.666344022378325" lon="-0.87180401198566">
        <ele>197.69</ele>
        <time>2025-05-14T06:26:22Z</time>
      </trkpt>
      <trkpt lat="41.666286019608378" lon="-0.87180401198566">
        <ele>197.21000000000001</ele>
        <time>2025-05-14T06:26:23Z</time>
      </trkpt>
      <trkpt lat="41.666218964383006" lon="-0.87180401198566">
        <ele>196.25</ele>
        <time>2025-05-14T06:26:24Z</time>
      </trkpt>
      <trkpt lat="41.666152998805046" lon="-0.87180401198566">
        <ele>195.77000000000001</ele>
        <time>2025-05-14T06:26:25Z</time>
      </trkpt>
      <trkpt lat="41.666028024628758" lon="-0.871727988123894">
        <ele>195.28</ele>
        <time>2025-05-14T06:26:28Z</time>
      </trkpt>
      <trkpt lat="41.66601000353694" lon="-0.871700998395681">
        <ele>194.80000000000001</ele>
        <time>2025-05-14T06:26:29Z</time>
      </trkpt>
      <trkpt lat="41.666007991880178" lon="-0.871630003675818">
        <ele>194.31999999999999</ele>
        <time>2025-05-14T06:26:31Z</time>
      </trkpt>
      <trkpt lat="41.666016960516572" lon="-0.871603013947606">
        <ele>193.84</ele>
        <time>2025-05-14T06:26:32Z</time>
      </trkpt>
      <trkpt lat="41.666035987436771" lon="-0.87154601700604">
        <ele>193.36000000000001</ele>
        <time>2025-05-14T06:26:33Z</time>
      </trkpt>
      <trkpt lat="41.66607697494328" lon="-0.871533025056124">
        <ele>192.88</ele>
        <time>2025-05-14T06:26:34Z</time>
      </trkpt>
      <trkpt lat="41.666123997420073" lon="-0.871517015621066">
        <ele>192.40000000000001</ele>
        <time>2025-05-14T06:26:35Z</time>
      </trkpt>
      <trkpt lat="41.666157022118568" lon="-0.871506035327911">
        <ele>192.40000000000001</ele>
        <time>2025-05-14T06:26:36Z</time>
      </trkpt>
      <trkpt lat="41.666176971048117" lon="-0.871498994529247">
        <ele>191.91999999999999</ele>
        <time>2025-05-14T06:26:37Z</time>
      </trkpt>
      <trkpt lat="41.666309991851449" lon="-0.871458007022738">
        <ele>190.96000000000001</ele>
        <time>2025-05-14T06:26:43Z</time>
      </trkpt>
      <trkpt lat="41.666443012654781" lon="-0.871435962617397">
        <ele>190.96000000000001</ele>
        <time>2025-05-14T06:26:45Z</time>
      </trkpt>
      <trkpt lat="41.666559018194675" lon="-0.871489020064473">
        <ele>190.96000000000001</ele>
        <time>2025-05-14T06:26:46Z</time>
      </trkpt>
      <trkpt lat="41.666564969345927" lon="-0.871545011177659">
        <ele>190.96000000000001</ele>
        <time>2025-05-14T06:26:47Z</time>
      </trkpt>
      <trkpt lat="41.666571004316211" lon="-0.871595973148942">
        <ele>190.96000000000001</ele>
        <time>2025-05-14T06:26:48Z</time>
      </trkpt>
      <trkpt lat="41.666575027629733" lon="-0.871631009504199">
        <ele>190.96000000000001</ele>
        <time>2025-05-14T06:26:49Z</time>
      </trkpt>
      <trkpt lat="41.666575027629733" lon="-0.871631009504199">
        <ele>190.47999999999999</ele>
        <time>2025-05-14T06:26:58Z</time>
      </trkpt>
      <trkpt lat="41.666593970730901" lon="-0.871915994212031">
        <ele>188.08000000000001</ele>
        <time>2025-05-14T06:27:20Z</time>
      </trkpt>
      <trkpt lat="41.666573015972972" lon="-0.872618984431028">
        <ele>187.59</ele>
        <time>2025-05-14T06:27:25Z</time>
      </trkpt>
      <trkpt lat="41.666579972952604" lon="-0.872785029932857">
        <ele>187.11000000000001</ele>
        <time>2025-05-14T06:27:26Z</time>
      </trkpt>
      <trkpt lat="41.666601011529565" lon="-0.873918011784554">
        <ele>187.11000000000001</ele>
        <time>2025-05-14T06:27:35Z</time>
      </trkpt>
      <trkpt lat="41.666615009307861" lon="-0.874133007600904">
        <ele>188.08000000000001</ele>
        <time>2025-05-14T06:27:43Z</time>
      </trkpt>
      <trkpt lat="41.666615009307861" lon="-0.874145999550819">
        <ele>188.08000000000001</ele>
        <time>2025-05-14T06:27:57Z</time>
      </trkpt>
      <trkpt lat="41.666615009307861" lon="-0.874636005610228">
        <ele>189.52000000000001</ele>
        <time>2025-05-14T06:28:02Z</time>
      </trkpt>
      <trkpt lat="41.666636969894171" lon="-0.875459024682641">
        <ele>191.44</ele>
        <time>2025-05-14T06:28:10Z</time>
      </trkpt>
      <trkpt lat="41.666679969057441" lon="-0.876310039311647">
        <ele>196.25</ele>
        <time>2025-05-14T06:28:20Z</time>
      </trkpt>
      <trkpt lat="41.666701007634401" lon="-0.877524996176362">
        <ele>198.65000000000001</ele>
        <time>2025-05-14T06:28:28Z</time>
      </trkpt>
      <trkpt lat="41.666701007634401" lon="-0.87765097618103">
        <ele>198.65000000000001</ele>
        <time>2025-05-14T06:28:29Z</time>
      </trkpt>
      <trkpt lat="41.666701007634401" lon="-0.877746026962996">
        <ele>198.65000000000001</ele>
        <time>2025-05-14T06:28:30Z</time>
      </trkpt>
      <trkpt lat="41.666701007634401" lon="-0.877811992540956">
        <ele>198.16999999999999</ele>
        <time>2025-05-14T06:28:31Z</time>
      </trkpt>
      <trkpt lat="41.666701007634401" lon="-0.877838982269168">
        <ele>198.16999999999999</ele>
        <time>2025-05-14T06:28:32Z</time>
      </trkpt>
      <trkpt lat="41.666701007634401" lon="-0.877864966169">
        <ele>197.69</ele>
        <time>2025-05-14T06:28:33Z</time>
      </trkpt>
      <trkpt lat="41.666701007634401" lon="-0.877925986424088">
        <ele>197.69</ele>
        <time>2025-05-14T06:28:41Z</time>
      </trkpt>
      <trkpt lat="41.666701007634401" lon="-0.877998992800713">
        <ele>197.69</ele>
        <time>2025-05-14T06:28:42Z</time>
      </trkpt>
      <trkpt lat="41.666701007634401" lon="-0.878092031925917">
        <ele>197.69</ele>
        <time>2025-05-14T06:28:43Z</time>
      </trkpt>
      <trkpt lat="41.666701007634401" lon="-0.878204014152288">
        <ele>197.69</ele>
        <time>2025-05-14T06:28:44Z</time>
      </trkpt>
      <trkpt lat="41.666701007634401" lon="-0.878325970843434">
        <ele>197.21000000000001</ele>
        <time>2025-05-14T06:28:45Z</time>
      </trkpt>
      <trkpt lat="41.666701007634401" lon="-0.878445999696851">
        <ele>197.69</ele>
        <time>2025-05-14T06:28:46Z</time>
      </trkpt>
      <trkpt lat="41.666744006797671" lon="-0.878540966659784">
        <ele>197.69</ele>
        <time>2025-05-14T06:28:47Z</time>
      </trkpt>
      <trkpt lat="41.666773008182645" lon="-0.87859402410686">
        <ele>197.69</ele>
        <time>2025-05-14T06:28:48Z</time>
      </trkpt>
      <trkpt lat="41.666790023446083" lon="-0.878625037148595">
        <ele>198.16999999999999</ele>
        <time>2025-05-14T06:28:49Z</time>
      </trkpt>
      <trkpt lat="41.666799997910857" lon="-0.878644986078143">
        <ele>198.16999999999999</ele>
        <time>2025-05-14T06:28:50Z</time>
      </trkpt>
      <trkpt lat="41.666799997910857" lon="-0.878644986078143">
        <ele>198.65000000000001</ele>
        <time>2025-05-14T06:29:05Z</time>
      </trkpt>
      <trkpt lat="41.666926983743906" lon="-0.878880014643073">
        <ele>200.09</ele>
        <time>2025-05-14T06:29:26Z</time>
      </trkpt>
      <trkpt lat="41.667181039229035" lon="-0.879316963255405">
        <ele>202.00999999999999</ele>
        <time>2025-05-14T06:29:35Z</time>
      </trkpt>
      <trkpt lat="41.667284974828362" lon="-0.879471022635698">
        <ele>202.00999999999999</ele>
        <time>2025-05-14T06:29:40Z</time>
      </trkpt>
      <trkpt lat="41.667767018079758" lon="-0.879921969026327">
        <ele>201.05000000000001</ele>
        <time>2025-05-14T06:29:48Z</time>
      </trkpt>
      <trkpt lat="41.667856033891439" lon="-0.879966979846358">
        <ele>200.56999999999999</ele>
        <time>2025-05-14T06:29:49Z</time>
      </trkpt>
      <trkpt lat="41.667959969490767" lon="-0.880001010373235">
        <ele>200.09</ele>
        <time>2025-05-14T06:29:50Z</time>
      </trkpt>
      <trkpt lat="41.669170986860991" lon="-0.88005599565804">
        <ele>200.09</ele>
        <time>2025-05-14T06:29:59Z</time>
      </trkpt>
      <trkpt lat="41.670916015282273" lon="-0.880228998139501">
        <ele>199.61000000000001</ele>
        <time>2025-05-14T06:30:11Z</time>
      </trkpt>
      <trkpt lat="41.672806972637773" lon="-0.880342992022634">
        <ele>199.13</ele>
        <time>2025-05-14T06:30:23Z</time>
      </trkpt>
      <trkpt lat="41.674224017187953" lon="-0.88016496039927">
        <ele>198.65000000000001</ele>
        <time>2025-05-14T06:30:31Z</time>
      </trkpt>
      <trkpt lat="41.675863014534116" lon="-0.879474962130189">
        <ele>198.16999999999999</ele>
        <time>2025-05-14T06:30:40Z</time>
      </trkpt>
      <trkpt lat="41.677454989403486" lon="-0.878182975575328">
        <ele>198.65000000000001</ele>
        <time>2025-05-14T06:30:50Z</time>
      </trkpt>
      <trkpt lat="41.67864496819675" lon="-0.876511037349701">
        <ele>200.09</ele>
        <time>2025-05-14T06:30:59Z</time>
      </trkpt>
      <trkpt lat="41.679291967302561" lon="-0.874684033915401">
        <ele>202.49000000000001</ele>
        <time>2025-05-14T06:31:07Z</time>
      </trkpt>
      <trkpt lat="41.679512998089194" lon="-0.872570034116507">
        <ele>206.81999999999999</ele>
        <time>2025-05-14T06:31:15Z</time>
      </trkpt>
      <trkpt lat="41.679563038051128" lon="-0.869882963597775">
        <ele>208.74000000000001</ele>
        <time>2025-05-14T06:31:24Z</time>
      </trkpt>
      <trkpt lat="41.679553985595703" lon="-0.86684200912714">
        <ele>208.74000000000001</ele>
        <time>2025-05-14T06:31:35Z</time>
      </trkpt>
      <trkpt lat="41.679576030001044" lon="-0.864025019109249">
        <ele>210.66999999999999</ele>
        <time>2025-05-14T06:31:45Z</time>
      </trkpt>
      <trkpt lat="41.679622968658805" lon="-0.861305007711053">
        <ele>213.55000000000001</ele>
        <time>2025-05-14T06:31:55Z</time>
      </trkpt>
      <trkpt lat="41.679446026682854" lon="-0.858624977990985">
        <ele>214.99000000000001</ele>
        <time>2025-05-14T06:32:04Z</time>
      </trkpt>
      <trkpt lat="41.679091975092888" lon="-0.855904966592789">
        <ele>215.47</ele>
        <time>2025-05-14T06:32:13Z</time>
      </trkpt>
      <trkpt lat="41.678457967936993" lon="-0.852179965004325">
        <ele>210.19</ele>
        <time>2025-05-14T06:32:23Z</time>
      </trkpt>
      <trkpt lat="41.677824966609478" lon="-0.848344992846251">
        <ele>205.86000000000001</ele>
        <time>2025-05-14T06:32:33Z</time>
      </trkpt>
      <trkpt lat="41.676744036376476" lon="-0.841792020946741">
        <ele>205.86000000000001</ele>
        <time>2025-05-14T06:32:50Z</time>
      </trkpt>
      <trkpt lat="41.675727982074022" lon="-0.8356240298599">
        <ele>209.22</ele>
        <time>2025-05-14T06:33:06Z</time>
      </trkpt>
      <trkpt lat="41.674692984670401" lon="-0.829441035166383">
        <ele>212.11000000000001</ele>
        <time>2025-05-14T06:33:22Z</time>
      </trkpt>
      <trkpt lat="41.673812968656421" lon="-0.825669011101127">
        <ele>213.55000000000001</ele>
        <time>2025-05-14T06:33:32Z</time>
      </trkpt>
      <trkpt lat="41.672617038711905" lon="-0.822553038597107">
        <ele>215.94999999999999</ele>
        <time>2025-05-14T06:33:41Z</time>
      </trkpt>
      <trkpt lat="41.671338966116309" lon="-0.820177020505071">
        <ele>218.36000000000001</ele>
        <time>2025-05-14T06:33:49Z</time>
      </trkpt>
      <trkpt lat="41.669760989025235" lon="-0.817839978262782">
        <ele>216.43000000000001</ele>
        <time>2025-05-14T06:33:57Z</time>
      </trkpt>
      <trkpt lat="41.66816096752882" lon="-0.815016031265259">
        <ele>216.43000000000001</ele>
        <time>2025-05-14T06:34:06Z</time>
      </trkpt>
      <trkpt lat="41.667161006480455" lon="-0.812165010720491">
        <ele>215.94999999999999</ele>
        <time>2025-05-14T06:34:14Z</time>
      </trkpt>
      <trkpt lat="41.665371973067522" lon="-0.806303964927793">
        <ele>216.91</ele>
        <time>2025-05-14T06:34:30Z</time>
      </trkpt>
      <trkpt lat="41.664579967036843" lon="-0.802486008033156">
        <ele>216.91</ele>
        <time>2025-05-14T06:34:40Z</time>
      </trkpt>
      <trkpt lat="41.664107982069254" lon="-0.79978896304965">
        <ele>215.47</ele>
        <time>2025-05-14T06:34:47Z</time>
      </trkpt>
      <trkpt lat="41.663255961611867" lon="-0.796025991439819">
        <ele>216.91</ele>
        <time>2025-05-14T06:34:57Z</time>
      </trkpt>
      <trkpt lat="41.661973027512431" lon="-0.792032014578581">
        <ele>217.40000000000001</ele>
        <time>2025-05-14T06:35:08Z</time>
      </trkpt>
      <trkpt lat="41.660464033484459" lon="-0.787741988897324">
        <ele>217.88</ele>
        <time>2025-05-14T06:35:20Z</time>
      </trkpt>
      <trkpt lat="41.659678984433413" lon="-0.78549899160862">
        <ele>218.36000000000001</ele>
        <time>2025-05-14T06:35:27Z</time>
      </trkpt>
      <trkpt lat="41.658433014526963" lon="-0.782029973343015">
        <ele>216.43000000000001</ele>
        <time>2025-05-14T06:35:38Z</time>
      </trkpt>
      <trkpt lat="41.657034996896982" lon="-0.778118977323174">
        <ele>217.88</ele>
        <time>2025-05-14T06:35:49Z</time>
      </trkpt>
      <trkpt lat="41.655510999262333" lon="-0.773857031017542">
        <ele>220.75999999999999</ele>
        <time>2025-05-14T06:36:01Z</time>
      </trkpt>
      <trkpt lat="41.65436502546072" lon="-0.771008022129536">
        <ele>222.19999999999999</ele>
        <time>2025-05-14T06:36:10Z</time>
      </trkpt>
      <trkpt lat="41.653047977015376" lon="-0.769023019820452">
        <ele>222.19999999999999</ele>
        <time>2025-05-14T06:36:18Z</time>
      </trkpt>
      <trkpt lat="41.651520961895585" lon="-0.767525006085634">
        <ele>220.75999999999999</ele>
        <time>2025-05-14T06:36:25Z</time>
      </trkpt>
      <trkpt lat="41.648913016542792" lon="-0.765663972124457">
        <ele>216.91</ele>
        <time>2025-05-14T06:36:35Z</time>
      </trkpt>
      <trkpt lat="41.646634982898831" lon="-0.763807967305183">
        <ele>214.03</ele>
        <time>2025-05-14T06:36:44Z</time>
      </trkpt>
      <trkpt lat="41.644345968961716" lon="-0.761624984443188">
        <ele>208.74000000000001</ele>
        <time>2025-05-14T06:36:54Z</time>
      </trkpt>
      <trkpt lat="41.642589038237929" lon="-0.759123992174864">
        <ele>207.30000000000001</ele>
        <time>2025-05-14T06:37:04Z</time>
      </trkpt>
      <trkpt lat="41.640763962641358" lon="-0.756052024662495">
        <ele>210.66999999999999</ele>
        <time>2025-05-14T06:37:15Z</time>
      </trkpt>
      <trkpt lat="41.639578007161617" lon="-0.7535719871521">
        <ele>215.94999999999999</ele>
        <time>2025-05-14T06:37:24Z</time>
      </trkpt>
      <trkpt lat="41.638463968411088" lon="-0.751126985996962">
        <ele>218.84</ele>
        <time>2025-05-14T06:37:32Z</time>
      </trkpt>
      <trkpt lat="41.636702008545399" lon="-0.747587978839874">
        <ele>219.80000000000001</ele>
        <time>2025-05-14T06:37:43Z</time>
      </trkpt>
      <trkpt lat="41.636351980268955" lon="-0.746947014704347">
        <ele>220.28</ele>
        <time>2025-05-14T06:37:45Z</time>
      </trkpt>
      <trkpt lat="41.633957019075751" lon="-0.742439981549978">
        <ele>221.24000000000001</ele>
        <time>2025-05-14T06:37:59Z</time>
      </trkpt>
      <trkpt lat="41.632733009755611" lon="-0.739300036802888">
        <ele>216.91</ele>
        <time>2025-05-14T06:38:08Z</time>
      </trkpt>
      <trkpt lat="41.631361981853843" lon="-0.735359033569694">
        <ele>210.66999999999999</ele>
        <time>2025-05-14T06:38:19Z</time>
      </trkpt>
      <trkpt lat="41.630003023892641" lon="-0.732768019661307">
        <ele>206.81999999999999</ele>
        <time>2025-05-14T06:38:27Z</time>
      </trkpt>
      <trkpt lat="41.62800301797688" lon="-0.729878023266792">
        <ele>207.30000000000001</ele>
        <time>2025-05-14T06:38:37Z</time>
      </trkpt>
      <trkpt lat="41.626425040885806" lon="-0.727092968299985">
        <ele>209.69999999999999</ele>
        <time>2025-05-14T06:38:46Z</time>
      </trkpt>
      <trkpt lat="41.625261968001723" lon="-0.723925027996302">
        <ele>207.30000000000001</ele>
        <time>2025-05-14T06:38:55Z</time>
      </trkpt>
      <trkpt lat="41.62439402192831" lon="-0.720667988061905">
        <ele>204.41999999999999</ele>
        <time>2025-05-14T06:39:04Z</time>
      </trkpt>
      <trkpt lat="41.623477963730693" lon="-0.717797018587589">
        <ele>203.94</ele>
        <time>2025-05-14T06:39:12Z</time>
      </trkpt>
      <trkpt lat="41.622110959142447" lon="-0.714827980846167">
        <ele>204.90000000000001</ele>
        <time>2025-05-14T06:39:21Z</time>
      </trkpt>
      <trkpt lat="41.620115982368588" lon="-0.711506986990571">
        <ele>201.05000000000001</ele>
        <time>2025-05-14T06:39:32Z</time>
      </trkpt>
      <trkpt lat="41.618723999708891" lon="-0.709042036905885">
        <ele>196.25</ele>
        <time>2025-05-14T06:39:40Z</time>
      </trkpt>
      <trkpt lat="41.617644997313619" lon="-0.706309033557773">
        <ele>194.31999999999999</ele>
        <time>2025-05-14T06:39:48Z</time>
      </trkpt>
      <trkpt lat="41.616789037361741" lon="-0.703014023602009">
        <ele>197.69</ele>
        <time>2025-05-14T06:39:57Z</time>
      </trkpt>
      <trkpt lat="41.615921007469296" lon="-0.700553013011813">
        <ele>201.53</ele>
        <time>2025-05-14T06:40:04Z</time>
      </trkpt>
      <trkpt lat="41.615740964189172" lon="-0.700241038575768">
        <ele>201.05000000000001</ele>
        <time>2025-05-14T06:40:05Z</time>
      </trkpt>
      <trkpt lat="41.615540971979499" lon="-0.699969967827201">
        <ele>201.05000000000001</ele>
        <time>2025-05-14T06:40:06Z</time>
      </trkpt>
      <trkpt lat="41.615329999476671" lon="-0.699706021696329">
        <ele>201.53</ele>
        <time>2025-05-14T06:40:07Z</time>
      </trkpt>
      <trkpt lat="41.615117015317082" lon="-0.699477028101683">
        <ele>201.53</ele>
        <time>2025-05-14T06:40:08Z</time>
      </trkpt>
      <trkpt lat="41.614864971488714" lon="-0.69923797622323">
        <ele>202.00999999999999</ele>
        <time>2025-05-14T06:40:09Z</time>
      </trkpt>
      <trkpt lat="41.614620974287391" lon="-0.699020968750119">
        <ele>202.00999999999999</ele>
        <time>2025-05-14T06:40:10Z</time>
      </trkpt>
      <trkpt lat="41.611962988972664" lon="-0.697373002767563">
        <ele>199.61000000000001</ele>
        <time>2025-05-14T06:40:20Z</time>
      </trkpt>
      <trkpt lat="41.608189037069678" lon="-0.695169987156987">
        <ele>192.40000000000001</ele>
        <time>2025-05-14T06:40:34Z</time>
      </trkpt>
      <trkpt lat="41.606020973995328" lon="-0.693954024463892">
        <ele>189.03999999999999</ele>
        <time>2025-05-14T06:40:42Z</time>
      </trkpt>
      <trkpt lat="41.602129004895687" lon="-0.692193992435932">
        <ele>185.19</ele>
        <time>2025-05-14T06:40:56Z</time>
      </trkpt>
      <trkpt lat="41.598960980772972" lon="-0.691262008622289">
        <ele>184.71000000000001</ele>
        <time>2025-05-14T06:41:07Z</time>
      </trkpt>
      <trkpt lat="41.595240002498031" lon="-0.690096002072096">
        <ele>187.59</ele>
        <time>2025-05-14T06:41:20Z</time>
      </trkpt>
      <trkpt lat="41.593107981607318" lon="-0.688781971111894">
        <ele>188.08000000000001</ele>
        <time>2025-05-14T06:41:28Z</time>
      </trkpt>
      <trkpt lat="41.590732969343662" lon="-0.68647401407361">
        <ele>186.63</ele>
        <time>2025-05-14T06:41:38Z</time>
      </trkpt>
      <trkpt lat="41.588948965072632" lon="-0.68385299295187">
        <ele>184.71000000000001</ele>
        <time>2025-05-14T06:41:47Z</time>
      </trkpt>
      <trkpt lat="41.587558994069695" lon="-0.680825030431151">
        <ele>181.83000000000001</ele>
        <time>2025-05-14T06:41:56Z</time>
      </trkpt>
      <trkpt lat="41.58653698861599" lon="-0.677119977772236">
        <ele>180.87</ele>
        <time>2025-05-14T06:42:06Z</time>
      </trkpt>
      <trkpt lat="41.585536021739244" lon="-0.673003038391471">
        <ele>178.94</ele>
        <time>2025-05-14T06:42:17Z</time>
      </trkpt>
      <trkpt lat="41.58421603962779" lon="-0.669452967122197">
        <ele>179.90000000000001</ele>
        <time>2025-05-14T06:42:27Z</time>
      </trkpt>
      <trkpt lat="41.582504035905004" lon="-0.666228029876947">
        <ele>181.34999999999999</ele>
        <time>2025-05-14T06:42:37Z</time>
      </trkpt>
      <trkpt lat="41.580391963943839" lon="-0.663452027365565">
        <ele>181.83000000000001</ele>
        <time>2025-05-14T06:42:47Z</time>
      </trkpt>
      <trkpt lat="41.577974958345294" lon="-0.661165025085211">
        <ele>182.78999999999999</ele>
        <time>2025-05-14T06:42:57Z</time>
      </trkpt>
      <trkpt lat="41.574471993371844" lon="-0.658166985958815">
        <ele>181.34999999999999</ele>
        <time>2025-05-14T06:43:11Z</time>
      </trkpt>
      <trkpt lat="41.57257198356092" lon="-0.655674962326884">
        <ele>179.41999999999999</ele>
        <time>2025-05-14T06:43:20Z</time>
      </trkpt>
      <trkpt lat="41.571072963997722" lon="-0.65276401117444">
        <ele>177.5</ele>
        <time>2025-05-14T06:43:29Z</time>
      </trkpt>
      <trkpt lat="41.570024974644184" lon="-0.64949800260365">
        <ele>176.06</ele>
        <time>2025-05-14T06:43:38Z</time>
      </trkpt>
      <trkpt lat="41.569627001881599" lon="-0.647467989474535">
        <ele>174.62</ele>
        <time>2025-05-14T06:43:44Z</time>
      </trkpt>
      <trkpt lat="41.569369006901979" lon="-0.644470034167171">
        <ele>176.06</ele>
        <time>2025-05-14T06:43:54Z</time>
      </trkpt>
      <trkpt lat="41.569516025483608" lon="-0.641178041696548">
        <ele>178.46000000000001</ele>
        <time>2025-05-14T06:44:05Z</time>
      </trkpt>
      <trkpt lat="41.569747030735016" lon="-0.637248018756509">
        <ele>181.83000000000001</ele>
        <time>2025-05-14T06:44:18Z</time>
      </trkpt>
      <trkpt lat="41.569513007998466" lon="-0.634338995441794">
        <ele>184.71000000000001</ele>
        <time>2025-05-14T06:44:27Z</time>
      </trkpt>
      <trkpt lat="41.568816974759102" lon="-0.631541032344103">
        <ele>187.59</ele>
        <time>2025-05-14T06:44:35Z</time>
      </trkpt>
      <trkpt lat="41.567593971267343" lon="-0.628819009289145">
        <ele>189.03999999999999</ele>
        <time>2025-05-14T06:44:43Z</time>
      </trkpt>
      <trkpt lat="41.565590025857091" lon="-0.625922977924347">
        <ele>186.63</ele>
        <time>2025-05-14T06:44:53Z</time>
      </trkpt>
      <trkpt lat="41.563301011919975" lon="-0.622856039553881">
        <ele>183.75</ele>
        <time>2025-05-14T06:45:04Z</time>
      </trkpt>
      <trkpt lat="41.560988025739789" lon="-0.619230028241873">
        <ele>180.87</ele>
        <time>2025-05-14T06:45:16Z</time>
      </trkpt>
      <trkpt lat="41.559124980121851" lon="-0.615675011649728">
        <ele>181.83000000000001</ele>
        <time>2025-05-14T06:45:27Z</time>
      </trkpt>
      <trkpt lat="41.55723100528121" lon="-0.611199997365475">
        <ele>185.66999999999999</ele>
        <time>2025-05-14T06:45:40Z</time>
      </trkpt>
      <trkpt lat="41.555716982111335" lon="-0.606472017243505">
        <ele>189.03999999999999</ele>
        <time>2025-05-14T06:45:53Z</time>
      </trkpt>
      <trkpt lat="41.554260961711407" lon="-0.6012830324471">
        <ele>192.88</ele>
        <time>2025-05-14T06:46:07Z</time>
      </trkpt>
      <trkpt lat="41.553627960383892" lon="-0.599425015971065">
        <ele>193.84</ele>
        <time>2025-05-14T06:46:13Z</time>
      </trkpt>
      <trkpt lat="41.552227009087801" lon="-0.596205024048686">
        <ele>192.40000000000001</ele>
        <time>2025-05-14T06:46:25Z</time>
      </trkpt>
      <trkpt lat="41.550804013386369" lon="-0.593633037060499">
        <ele>190.47999999999999</ele>
        <time>2025-05-14T06:46:36Z</time>
      </trkpt>
      <trkpt lat="41.549295019358397" lon="-0.591244027018547">
        <ele>190.47999999999999</ele>
        <time>2025-05-14T06:46:47Z</time>
      </trkpt>
      <trkpt lat="41.547909993678331" lon="-0.588809000328183">
        <ele>189.52000000000001</ele>
        <time>2025-05-14T06:46:56Z</time>
      </trkpt>
      <trkpt lat="41.546734012663364" lon="-0.585797969251871">
        <ele>189.52000000000001</ele>
        <time>2025-05-14T06:47:05Z</time>
      </trkpt>
      <trkpt lat="41.545590972527862" lon="-0.582170030102134">
        <ele>184.71000000000001</ele>
        <time>2025-05-14T06:47:15Z</time>
      </trkpt>
      <trkpt lat="41.544234026223421" lon="-0.579124968498945">
        <ele>183.27000000000001</ele>
        <time>2025-05-14T06:47:24Z</time>
      </trkpt>
      <trkpt lat="41.542314989492297" lon="-0.575220007449389">
        <ele>186.63</ele>
        <time>2025-05-14T06:47:36Z</time>
      </trkpt>
      <trkpt lat="41.541284015402198" lon="-0.571999009698629">
        <ele>189.52000000000001</ele>
        <time>2025-05-14T06:47:45Z</time>
      </trkpt>
      <trkpt lat="41.540760984644294" lon="-0.568599980324507">
        <ele>192.40000000000001</ele>
        <time>2025-05-14T06:47:54Z</time>
      </trkpt>
      <trkpt lat="41.540684960782528" lon="-0.565101038664579">
        <ele>195.28</ele>
        <time>2025-05-14T06:48:03Z</time>
      </trkpt>
      <trkpt lat="41.541170021519065" lon="-0.561669990420341">
        <ele>197.21000000000001</ele>
        <time>2025-05-14T06:48:12Z</time>
      </trkpt>
      <trkpt lat="41.541968984529376" lon="-0.558759961277246">
        <ele>198.65000000000001</ele>
        <time>2025-05-14T06:48:20Z</time>
      </trkpt>
      <trkpt lat="41.543432967737317" lon="-0.5549839977175">
        <ele>201.05000000000001</ele>
        <time>2025-05-14T06:48:31Z</time>
      </trkpt>
      <trkpt lat="41.544424965977669" lon="-0.551320016384125">
        <ele>208.25999999999999</ele>
        <time>2025-05-14T06:48:41Z</time>
      </trkpt>
      <trkpt lat="41.544795027002692" lon="-0.548236984759569">
        <ele>216.91</ele>
        <time>2025-05-14T06:48:49Z</time>
      </trkpt>
      <trkpt lat="41.544644990935922" lon="-0.544332023710012">
        <ele>227.97</ele>
        <time>2025-05-14T06:48:59Z</time>
      </trkpt>
      <trkpt lat="41.544093964621425" lon="-0.541285034269094">
        <ele>235.66</ele>
        <time>2025-05-14T06:49:07Z</time>
      </trkpt>
      <trkpt lat="41.543256025761366" lon="-0.538743976503611">
        <ele>239.99000000000001</ele>
        <time>2025-05-14T06:49:14Z</time>
      </trkpt>
      <trkpt lat="41.541981976479292" lon="-0.53612002171576">
        <ele>241.43000000000001</ele>
        <time>2025-05-14T06:49:22Z</time>
      </trkpt>
      <trkpt lat="41.539694974198937" lon="-0.532042980194092">
        <ele>237.58000000000001</ele>
        <time>2025-05-14T06:49:35Z</time>
      </trkpt>
      <trkpt lat="41.538597028702497" lon="-0.529468981549144">
        <ele>235.18000000000001</ele>
        <time>2025-05-14T06:49:43Z</time>
      </trkpt>
      <trkpt lat="41.537712989374995" lon="-0.526534980162978">
        <ele>231.33000000000001</ele>
        <time>2025-05-14T06:49:53Z</time>
      </trkpt>
      <trkpt lat="41.536946967244148" lon="-0.52344398573041">
        <ele>232.30000000000001</ele>
        <time>2025-05-14T06:50:04Z</time>
      </trkpt>
      <trkpt lat="41.53602596372366" lon="-0.520010003820062">
        <ele>234.22</ele>
        <time>2025-05-14T06:50:16Z</time>
      </trkpt>
      <trkpt lat="41.534642027691007" lon="-0.51618299447">
        <ele>235.18000000000001</ele>
        <time>2025-05-14T06:50:30Z</time>
      </trkpt>
      <trkpt lat="41.533221965655684" lon="-0.513175986707211">
        <ele>234.69999999999999</ele>
        <time>2025-05-14T06:50:42Z</time>
      </trkpt>
      <trkpt lat="41.532025029882789" lon="-0.511031979694963">
        <ele>232.78</ele>
        <time>2025-05-14T06:50:51Z</time>
      </trkpt>
      <trkpt lat="41.530585018917918" lon="-0.508841034024954">
        <ele>228.93000000000001</ele>
        <time>2025-05-14T06:51:01Z</time>
      </trkpt>
      <trkpt lat="41.52867503464222" lon="-0.506285978481174">
        <ele>229.41</ele>
        <time>2025-05-14T06:51:13Z</time>
      </trkpt>
      <trkpt lat="41.526618031784892" lon="-0.503352982923388">
        <ele>233.25999999999999</ele>
        <time>2025-05-14T06:51:26Z</time>
      </trkpt>
      <trkpt lat="41.525064026936889" lon="-0.500365002080798">
        <ele>236.62</ele>
        <time>2025-05-14T06:51:38Z</time>
      </trkpt>
      <trkpt lat="41.52399399317801" lon="-0.497523033991456">
        <ele>238.53999999999999</ele>
        <time>2025-05-14T06:51:49Z</time>
      </trkpt>
      <trkpt lat="41.523197963833809" lon="-0.494380993768573">
        <ele>238.06</ele>
        <time>2025-05-14T06:52:00Z</time>
      </trkpt>
      <trkpt lat="41.522752968594432" lon="-0.491426037624478">
        <ele>239.02000000000001</ele>
        <time>2025-05-14T06:52:10Z</time>
      </trkpt>
      <trkpt lat="41.522592036053538" lon="-0.487545970827341">
        <ele>240.47</ele>
        <time>2025-05-14T06:52:23Z</time>
      </trkpt>
      <trkpt lat="41.522880960255861" lon="-0.483968993648887">
        <ele>239.02000000000001</ele>
        <time>2025-05-14T06:52:35Z</time>
      </trkpt>
      <trkpt lat="41.52362996712327" lon="-0.480231000110507">
        <ele>236.62</ele>
        <time>2025-05-14T06:52:47Z</time>
      </trkpt>
      <trkpt lat="41.524291969835758" lon="-0.47791600227356">
        <ele>236.13999999999999</ele>
        <time>2025-05-14T06:52:54Z</time>
      </trkpt>
      <trkpt lat="41.525544980540872" lon="-0.473700994625688">
        <ele>234.22</ele>
        <time>2025-05-14T06:53:06Z</time>
      </trkpt>
      <trkpt lat="41.525982012972236" lon="-0.470637995749712">
        <ele>231.81</ele>
        <time>2025-05-14T06:53:14Z</time>
      </trkpt>
      <trkpt lat="41.525903977453709" lon="-0.467126984149218">
        <ele>230.37</ele>
        <time>2025-05-14T06:53:23Z</time>
      </trkpt>
      <trkpt lat="41.525683030486107" lon="-0.464049987494946">
        <ele>231.81</ele>
        <time>2025-05-14T06:53:31Z</time>
      </trkpt>
      <trkpt lat="41.524768983945251" lon="-0.460334038361907">
        <ele>237.58000000000001</ele>
        <time>2025-05-14T06:53:41Z</time>
      </trkpt>
      <trkpt lat="41.524117039516568" lon="-0.457331975921988">
        <ele>243.83000000000001</ele>
        <time>2025-05-14T06:53:49Z</time>
      </trkpt>
      <trkpt lat="41.523705990985036" lon="-0.454237964004278">
        <ele>245.75</ele>
        <time>2025-05-14T06:53:57Z</time>
      </trkpt>
      <trkpt lat="41.523622004315257" lon="-0.449938969686627">
        <ele>245.75</ele>
        <time>2025-05-14T06:54:08Z</time>
      </trkpt>
      <trkpt lat="41.523449001833797" lon="-0.444875964894891">
        <ele>244.31</ele>
        <time>2025-05-14T06:54:21Z</time>
      </trkpt>
      <trkpt lat="41.522782975807786" lon="-0.440692976117134">
        <ele>251.52000000000001</ele>
        <time>2025-05-14T06:54:32Z</time>
      </trkpt>
      <trkpt lat="41.522220969200134" lon="-0.436851968988776">
        <ele>259.20999999999998</ele>
        <time>2025-05-14T06:54:42Z</time>
      </trkpt>
      <trkpt lat="41.522189034149051" lon="-0.436073960736394">
        <ele>261.13999999999999</ele>
        <time>2025-05-14T06:54:44Z</time>
      </trkpt>
      <trkpt lat="41.522258017212152" lon="-0.432956982403994">
        <ele>268.35000000000002</ele>
        <time>2025-05-14T06:54:52Z</time>
      </trkpt>
      <trkpt lat="41.522814994677901" lon="-0.42953297495842">
        <ele>275.56</ele>
        <time>2025-05-14T06:55:01Z</time>
      </trkpt>
      <trkpt lat="41.523879999294877" lon="-0.426323963329196">
        <ele>282.27999999999997</ele>
        <time>2025-05-14T06:55:10Z</time>
      </trkpt>
      <trkpt lat="41.525487983599305" lon="-0.423052003607154">
        <ele>289.49000000000001</ele>
        <time>2025-05-14T06:55:20Z</time>
      </trkpt>
      <trkpt lat="41.527135027572513" lon="-0.419365977868438">
        <ele>296.69999999999999</ele>
        <time>2025-05-14T06:55:31Z</time>
      </trkpt>
      <trkpt lat="41.527956034988165" lon="-0.416438011452556">
        <ele>301.50999999999999</ele>
        <time>2025-05-14T06:55:39Z</time>
      </trkpt>
      <trkpt lat="41.528347972780466" lon="-0.413340982049704">
        <ele>305.36000000000001</ele>
        <time>2025-05-14T06:55:47Z</time>
      </trkpt>
      <trkpt lat="41.528285024687648" lon="-0.409826030954719">
        <ele>308.72000000000003</ele>
        <time>2025-05-14T06:55:56Z</time>
      </trkpt>
      <trkpt lat="41.527762999758124" lon="-0.406387019902468">
        <ele>312.08999999999997</ele>
        <time>2025-05-14T06:56:05Z</time>
      </trkpt>
      <trkpt lat="41.52764699421823" lon="-0.406011007726192">
        <ele>313.05000000000001</ele>
        <time>2025-05-14T06:56:06Z</time>
      </trkpt>
      <trkpt lat="41.526331035420299" lon="-0.402076039463282">
        <ele>316.41000000000003</ele>
        <time>2025-05-14T06:56:17Z</time>
      </trkpt>
      <trkpt lat="41.525194030255079" lon="-0.398053983226419">
        <ele>317.85000000000002</ele>
        <time>2025-05-14T06:56:28Z</time>
      </trkpt>
      <trkpt lat="41.524588018655777" lon="-0.394223034381866">
        <ele>315.93000000000001</ele>
        <time>2025-05-14T06:56:38Z</time>
      </trkpt>
      <trkpt lat="41.523866001516581" lon="-0.390834985300899">
        <ele>314.00999999999999</ele>
        <time>2025-05-14T06:56:47Z</time>
      </trkpt>
      <trkpt lat="41.522880038246512" lon="-0.387983964756131">
        <ele>315.44999999999999</ele>
        <time>2025-05-14T06:56:55Z</time>
      </trkpt>
      <trkpt lat="41.521577993407845" lon="-0.384051008149982">
        <ele>319.30000000000001</ele>
        <time>2025-05-14T06:57:06Z</time>
      </trkpt>
      <trkpt lat="41.521012969315052" lon="-0.380619037896395">
        <ele>319.30000000000001</ele>
        <time>2025-05-14T06:57:15Z</time>
      </trkpt>
      <trkpt lat="41.52094398625195" lon="-0.377104002982378">
        <ele>317.85000000000002</ele>
        <time>2025-05-14T06:57:24Z</time>
      </trkpt>
      <trkpt lat="41.521384958177805" lon="-0.373634984716773">
        <ele>314.49000000000001</ele>
        <time>2025-05-14T06:57:33Z</time>
      </trkpt>
      <trkpt lat="41.522196996957064" lon="-0.370713975280523">
        <ele>311.60000000000002</ele>
        <time>2025-05-14T06:57:41Z</time>
      </trkpt>
      <trkpt lat="41.523591997101903" lon="-0.366831980645657">
        <ele>304.38999999999999</ele>
        <time>2025-05-14T06:57:52Z</time>
      </trkpt>
      <trkpt lat="41.524935029447079" lon="-0.362901035696268">
        <ele>299.58999999999997</ele>
        <time>2025-05-14T06:58:03Z</time>
      </trkpt>
      <trkpt lat="41.525963991880417" lon="-0.359207969158888">
        <ele>297.18000000000001</ele>
        <time>2025-05-14T06:58:13Z</time>
      </trkpt>
      <trkpt lat="41.526735965162516" lon="-0.355419013649225">
        <ele>294.77999999999997</ele>
        <time>2025-05-14T06:58:23Z</time>
      </trkpt>
      <trkpt lat="41.527241980656981" lon="-0.35192996263504">
        <ele>295.74000000000001</ele>
        <time>2025-05-14T06:58:32Z</time>
      </trkpt>
      <trkpt lat="41.527627967298031" lon="-0.346830999478698">
        <ele>300.06999999999999</ele>
        <time>2025-05-14T06:58:45Z</time>
      </trkpt>
      <trkpt lat="41.527664009481668" lon="-0.344062959775329">
        <ele>303.43000000000001</ele>
        <time>2025-05-14T06:58:52Z</time>
      </trkpt>
      <trkpt lat="41.52740802615881" lon="-0.338959973305464">
        <ele>308.24000000000001</ele>
        <time>2025-05-14T06:59:05Z</time>
      </trkpt>
      <trkpt lat="41.526987003162503" lon="-0.33544996753335">
        <ele>311.60000000000002</ele>
        <time>2025-05-14T06:59:14Z</time>
      </trkpt>
      <trkpt lat="41.526532033458352" lon="-0.332757029682398">
        <ele>312.56999999999999</ele>
        <time>2025-05-14T06:59:21Z</time>
      </trkpt>
      <trkpt lat="41.52588302269578" lon="-0.329857980832458">
        <ele>314.97000000000003</ele>
        <time>2025-05-14T06:59:29Z</time>
      </trkpt>
      <trkpt lat="41.525268964469433" lon="-0.327514987438917">
        <ele>318.32999999999998</ele>
        <time>2025-05-14T06:59:35Z</time>
      </trkpt>
      <trkpt lat="41.524333963170648" lon="-0.324580986052752">
        <ele>321.22000000000003</ele>
        <time>2025-05-14T06:59:43Z</time>
      </trkpt>
      <trkpt lat="41.523118000477552" lon="-0.321404999122024">
        <ele>320.25999999999999</ele>
        <time>2025-05-14T06:59:52Z</time>
      </trkpt>
      <trkpt lat="41.521571958437562" lon="-0.317949978634715">
        <ele>317.85000000000002</ele>
        <time>2025-05-14T07:00:02Z</time>
      </trkpt>
      <trkpt lat="41.52006103657186" lon="-0.314668966457248">
        <ele>315.93000000000001</ele>
        <time>2025-05-14T07:00:12Z</time>
      </trkpt>
      <trkpt lat="41.51879696175456" lon="-0.311111016198993">
        <ele>317.85000000000002</ele>
        <time>2025-05-14T07:00:22Z</time>
      </trkpt>
      <trkpt lat="41.518052984029055" lon="-0.307695977389812">
        <ele>322.18000000000001</ele>
        <time>2025-05-14T07:00:31Z</time>
      </trkpt>
      <trkpt lat="41.517668003216386" lon="-0.303794033825397">
        <ele>327.94999999999999</ele>
        <time>2025-05-14T07:00:41Z</time>
      </trkpt>
      <trkpt lat="41.517723994329572" lon="-0.300243040546775">
        <ele>334.19999999999999</ele>
        <time>2025-05-14T07:00:50Z</time>
      </trkpt>
      <trkpt lat="41.517945025116205" lon="-0.295133013278246">
        <ele>341.41000000000003</ele>
        <time>2025-05-14T07:01:03Z</time>
      </trkpt>
      <trkpt lat="41.517686024308205" lon="-0.290814992040396">
        <ele>344.76999999999998</ele>
        <time>2025-05-14T07:01:14Z</time>
      </trkpt>
      <trkpt lat="41.517442027106881" lon="-0.286089023575187">
        <ele>347.64999999999998</ele>
        <time>2025-05-14T07:01:26Z</time>
      </trkpt>
      <trkpt lat="41.517793983221054" lon="-0.281755998730659">
        <ele>348.62</ele>
        <time>2025-05-14T07:01:37Z</time>
      </trkpt>
      <trkpt lat="41.518618008121848" lon="-0.2771379891783">
        <ele>345.73000000000002</ele>
        <time>2025-05-14T07:01:49Z</time>
      </trkpt>
      <trkpt lat="41.5190090239048" lon="-0.273654973134398">
        <ele>342.85000000000002</ele>
        <time>2025-05-14T07:01:58Z</time>
      </trkpt>
      <trkpt lat="41.518957978114486" lon="-0.269333012402058">
        <ele>342.37</ele>
        <time>2025-05-14T07:02:09Z</time>
      </trkpt>
      <trkpt lat="41.518546007573605" lon="-0.26510601863265">
        <ele>346.20999999999998</ele>
        <time>2025-05-14T07:02:20Z</time>
      </trkpt>
      <trkpt lat="41.518346015363932" lon="-0.260843988507986">
        <ele>352.94</ele>
        <time>2025-05-14T07:02:31Z</time>
      </trkpt>
      <trkpt lat="41.518593030050397" lon="-0.256990995258093">
        <ele>360.14999999999998</ele>
        <time>2025-05-14T07:02:41Z</time>
      </trkpt>
      <trkpt lat="41.519082030281425" lon="-0.25120597332716">
        <ele>373.13</ele>
        <time>2025-05-14T07:02:56Z</time>
      </trkpt>
      <trkpt lat="41.51920398697257" lon="-0.246557034552097">
        <ele>381.30000000000001</ele>
        <time>2025-05-14T07:03:08Z</time>
      </trkpt>
      <trkpt lat="41.518939035013318" lon="-0.241529988124967">
        <ele>385.63</ele>
        <time>2025-05-14T07:03:21Z</time>
      </trkpt>
      <trkpt lat="41.518424972891808" lon="-0.237317997962236">
        <ele>384.18000000000001</ele>
        <time>2025-05-14T07:03:32Z</time>
      </trkpt>
      <trkpt lat="41.517674960196018" lon="-0.23236496374011">
        <ele>382.74000000000001</ele>
        <time>2025-05-14T07:03:45Z</time>
      </trkpt>
      <trkpt lat="41.517226025462151" lon="-0.227751983329654">
        <ele>379.86000000000001</ele>
        <time>2025-05-14T07:03:57Z</time>
      </trkpt>
      <trkpt lat="41.517277993261814" lon="-0.223827995359898">
        <ele>379.86000000000001</ele>
        <time>2025-05-14T07:04:07Z</time>
      </trkpt>
      <trkpt lat="41.51780697517097" lon="-0.219581974670291">
        <ele>381.30000000000001</ele>
        <time>2025-05-14T07:04:18Z</time>
      </trkpt>
      <trkpt lat="41.518015014007688" lon="-0.218428960070014">
        <ele>382.74000000000001</ele>
        <time>2025-05-14T07:04:21Z</time>
      </trkpt>
      <trkpt lat="41.51810503564775" lon="-0.218042973428965">
        <ele>383.69999999999999</ele>
        <time>2025-05-14T07:04:22Z</time>
      </trkpt>
      <trkpt lat="41.519200969487429" lon="-0.213997028768063">
        <ele>388.50999999999999</ele>
        <time>2025-05-14T07:04:33Z</time>
      </trkpt>
      <trkpt lat="41.520575014874339" lon="-0.210541002452374">
        <ele>389.94999999999999</ele>
        <time>2025-05-14T07:04:43Z</time>
      </trkpt>
      <trkpt lat="41.523053040727973" lon="-0.205620992928743">
        <ele>388.99000000000001</ele>
        <time>2025-05-14T07:04:58Z</time>
      </trkpt>
      <trkpt lat="41.524195997044444" lon="-0.202868040651083">
        <ele>388.99000000000001</ele>
        <time>2025-05-14T07:05:06Z</time>
      </trkpt>
      <trkpt lat="41.525341970846057" lon="-0.198796028271317">
        <ele>388.99000000000001</ele>
        <time>2025-05-14T07:05:17Z</time>
      </trkpt>
      <trkpt lat="41.525831976905465" lon="-0.19532298669219">
        <ele>386.11000000000001</ele>
        <time>2025-05-14T07:05:26Z</time>
      </trkpt>
      <trkpt lat="41.525915041565895" lon="-0.19136899150908">
        <ele>381.77999999999997</ele>
        <time>2025-05-14T07:05:36Z</time>
      </trkpt>
      <trkpt lat="41.525595020502806" lon="-0.187851022928953">
        <ele>376.49000000000001</ele>
        <time>2025-05-14T07:05:45Z</time>
      </trkpt>
      <trkpt lat="41.525543974712491" lon="-0.187462018802762">
        <ele>376.00999999999999</ele>
        <time>2025-05-14T07:05:46Z</time>
      </trkpt>
      <trkpt lat="41.525085987523198" lon="-0.183980008587241">
        <ele>370.24000000000001</ele>
        <time>2025-05-14T07:05:55Z</time>
      </trkpt>
      <trkpt lat="41.524665970355272" lon="-0.179262002930045">
        <ele>365.44</ele>
        <time>2025-05-14T07:06:07Z</time>
      </trkpt>
      <trkpt lat="41.524590030312538" lon="-0.175719978287816">
        <ele>364.95999999999998</ele>
        <time>2025-05-14T07:06:16Z</time>
      </trkpt>
      <trkpt lat="41.524434965103865" lon="-0.171756008639932">
        <ele>366.88</ele>
        <time>2025-05-14T07:06:26Z</time>
      </trkpt>
      <trkpt lat="41.523990975692868" lon="-0.167832020670176">
        <ele>366.39999999999998</ele>
        <time>2025-05-14T07:06:36Z</time>
      </trkpt>
      <trkpt lat="41.52322000823915" lon="-0.164010962471366">
        <ele>364.95999999999998</ele>
        <time>2025-05-14T07:06:46Z</time>
      </trkpt>
      <trkpt lat="41.522161960601807" lon="-0.160329965874553">
        <ele>361.11000000000001</ele>
        <time>2025-05-14T07:06:56Z</time>
      </trkpt>
      <trkpt lat="41.520374016836286" lon="-0.155821004882455">
        <ele>355.33999999999997</ele>
        <time>2025-05-14T07:07:09Z</time>
      </trkpt>
      <trkpt lat="41.518596969544888" lon="-0.15132000669837">
        <ele>351.98000000000002</ele>
        <time>2025-05-14T07:07:22Z</time>
      </trkpt>
      <trkpt lat="41.517345970496535" lon="-0.146939037367702">
        <ele>347.17000000000002</ele>
        <time>2025-05-14T07:07:34Z</time>
      </trkpt>
      <trkpt lat="41.516624037176371" lon="-0.143152009695768">
        <ele>343.32999999999998</ele>
        <time>2025-05-14T07:07:44Z</time>
      </trkpt>
      <trkpt lat="41.516199996694922" lon="-0.138886962085962">
        <ele>341.41000000000003</ele>
        <time>2025-05-14T07:07:55Z</time>
      </trkpt>
      <trkpt lat="41.516125984489918" lon="-0.135794961825013">
        <ele>340.44</ele>
        <time>2025-05-14T07:08:03Z</time>
      </trkpt>
      <trkpt lat="41.516241990029812" lon="-0.132719976827502">
        <ele>339.95999999999998</ele>
        <time>2025-05-14T07:08:11Z</time>
      </trkpt>
      <trkpt lat="41.51675496250391" lon="-0.128488959744573">
        <ele>340.44</ele>
        <time>2025-05-14T07:08:22Z</time>
      </trkpt>
      <trkpt lat="41.517820972949266" lon="-0.123586971312761">
        <ele>341.88999999999999</ele>
        <time>2025-05-14T07:08:35Z</time>
      </trkpt>
      <trkpt lat="41.51918102055788" lon="-0.118002025410533">
        <ele>338.51999999999998</ele>
        <time>2025-05-14T07:08:50Z</time>
      </trkpt>
      <trkpt lat="41.519645964726806" lon="-0.114156994968653">
        <ele>337.07999999999998</ele>
        <time>2025-05-14T07:09:00Z</time>
      </trkpt>
      <trkpt lat="41.519621992483735" lon="-0.110239963978529">
        <ele>338.51999999999998</ele>
        <time>2025-05-14T07:09:10Z</time>
      </trkpt>
      <trkpt lat="41.51911798864603" lon="-0.106402980163693">
        <ele>341.41000000000003</ele>
        <time>2025-05-14T07:09:20Z</time>
      </trkpt>
      <trkpt lat="41.517995987087488" lon="-0.101129002869129">
        <ele>346.20999999999998</ele>
        <time>2025-05-14T07:09:34Z</time>
      </trkpt>
      <trkpt lat="41.517622992396355" lon="-0.097649004310369">
        <ele>348.13</ele>
        <time>2025-05-14T07:09:43Z</time>
      </trkpt>
      <trkpt lat="41.517749978229403" lon="-0.094144027680159">
        <ele>348.13</ele>
        <time>2025-05-14T07:09:52Z</time>
      </trkpt>
      <trkpt lat="41.518177036195993" lon="-0.089084040373564">
        <ele>343.32999999999998</ele>
        <time>2025-05-14T07:10:05Z</time>
      </trkpt>
      <trkpt lat="41.517946030944586" lon="-0.085992040112615">
        <ele>340.92000000000002</ele>
        <time>2025-05-14T07:10:13Z</time>
      </trkpt>
      <trkpt lat="41.517243962734938" lon="-0.083011016249657">
        <ele>339</ele>
        <time>2025-05-14T07:10:21Z</time>
      </trkpt>
      <trkpt lat="41.516220029443502" lon="-0.080669028684497">
        <ele>338.04000000000002</ele>
        <time>2025-05-14T07:10:28Z</time>
      </trkpt>
      <trkpt lat="41.514363018795848" lon="-0.077224988490343">
        <ele>337.56</ele>
        <time>2025-05-14T07:10:39Z</time>
      </trkpt>
      <trkpt lat="41.51320799253881" lon="-0.074117984622717">
        <ele>335.16000000000003</ele>
        <time>2025-05-14T07:10:48Z</time>
      </trkpt>
      <trkpt lat="41.512581026181579" lon="-0.071147019043565">
        <ele>331.31</ele>
        <time>2025-05-14T07:10:56Z</time>
      </trkpt>
      <trkpt lat="41.512429984286427" lon="-0.067627960816026">
        <ele>325.06</ele>
        <time>2025-05-14T07:11:05Z</time>
      </trkpt>
      <trkpt lat="41.51284203864634" lon="-0.064165983349085">
        <ele>319.30000000000001</ele>
        <time>2025-05-14T07:11:14Z</time>
      </trkpt>
      <trkpt lat="41.513726999983191" lon="-0.060436958447099">
        <ele>313.05000000000001</ele>
        <time>2025-05-14T07:11:24Z</time>
      </trkpt>
      <trkpt lat="41.514467038214207" lon="-0.056246006861329">
        <ele>306.31999999999999</ele>
        <time>2025-05-14T07:11:35Z</time>
      </trkpt>
      <trkpt lat="41.514510037377477" lon="-0.052727032452822">
        <ele>299.58999999999997</ele>
        <time>2025-05-14T07:11:44Z</time>
      </trkpt>
      <trkpt lat="41.514055989682674" lon="-0.049253990873694">
        <ele>291.89999999999998</ele>
        <time>2025-05-14T07:11:53Z</time>
      </trkpt>
      <trkpt lat="41.513112019747496" lon="-0.044307997450233">
        <ele>280.83999999999997</ele>
        <time>2025-05-14T07:12:06Z</time>
      </trkpt>
      <trkpt lat="41.512813037261367" lon="-0.040812995284796">
        <ele>271.70999999999998</ele>
        <time>2025-05-14T07:12:15Z</time>
      </trkpt>
      <trkpt lat="41.512975981459022" lon="-0.036523975431919">
        <ele>267.86000000000001</ele>
        <time>2025-05-14T07:12:26Z</time>
      </trkpt>
      <trkpt lat="41.513485014438629" lon="-0.030280966311693">
        <ele>284.20999999999998</ele>
        <time>2025-05-14T07:12:42Z</time>
      </trkpt>
      <trkpt lat="41.513407984748483" lon="-0.026355972513556">
        <ele>297.67000000000002</ele>
        <time>2025-05-14T07:12:52Z</time>
      </trkpt>
      <trkpt lat="41.512803984805942" lon="-0.022502979263663">
        <ele>311.12</ele>
        <time>2025-05-14T07:13:02Z</time>
      </trkpt>
      <trkpt lat="41.511888010427356" lon="-0.019150972366333">
        <ele>315.44999999999999</ele>
        <time>2025-05-14T07:13:11Z</time>
      </trkpt>
      <trkpt lat="41.510456968098879" lon="-0.014378987252712">
        <ele>315.44999999999999</ele>
        <time>2025-05-14T07:13:24Z</time>
      </trkpt>
      <trkpt lat="41.509961010888219" lon="-0.010905023664236">
        <ele>311.12</ele>
        <time>2025-05-14T07:13:33Z</time>
      </trkpt>
      <trkpt lat="41.509967967867851" lon="-0.007744962349534">
        <ele>308.72000000000003</ele>
        <time>2025-05-14T07:13:41Z</time>
      </trkpt>
      <trkpt lat="41.510531986132264" lon="-0.003899009898305">
        <ele>306.80000000000001</ele>
        <time>2025-05-14T07:13:51Z</time>
      </trkpt>
      <trkpt lat="41.511563966050744" lon="-0.000206027179956">
        <ele>310.16000000000003</ele>
        <time>2025-05-14T07:14:01Z</time>
      </trkpt>
      <trkpt lat="41.512429984286427" lon="0.003540012985468">
        <ele>316.88999999999999</ele>
        <time>2025-05-14T07:14:11Z</time>
      </trkpt>
      <trkpt lat="41.51267196983099" lon="0.007062004879117">
        <ele>324.10000000000002</ele>
        <time>2025-05-14T07:14:20Z</time>
      </trkpt>
      <trkpt lat="41.512388996779919" lon="0.010588020086288">
        <ele>329.87</ele>
        <time>2025-05-14T07:14:29Z</time>
      </trkpt>
      <trkpt lat="41.511591961607337" lon="0.014000041410327">
        <ele>330.35000000000002</ele>
        <time>2025-05-14T07:14:38Z</time>
      </trkpt>
      <trkpt lat="41.510422015562654" lon="0.018488969653845">
        <ele>321.22000000000003</ele>
        <time>2025-05-14T07:14:50Z</time>
      </trkpt>
      <trkpt lat="41.510004010051489" lon="0.02197802066803">
        <ele>313.05000000000001</ele>
        <time>2025-05-14T07:14:59Z</time>
      </trkpt>
      <trkpt lat="41.510070981457829" lon="0.025111008435488">
        <ele>308.24000000000001</ele>
        <time>2025-05-14T07:15:07Z</time>
      </trkpt>
      <trkpt lat="41.510624019429088" lon="0.028559993952513">
        <ele>307.75999999999999</ele>
        <time>2025-05-14T07:15:16Z</time>
      </trkpt>
      <trkpt lat="41.511538987979293" lon="0.031458036974072">
        <ele>309.19999999999999</ele>
        <time>2025-05-14T07:15:24Z</time>
      </trkpt>
      <trkpt lat="41.513001965358853" lon="0.034432020038366">
        <ele>310.63999999999999</ele>
        <time>2025-05-14T07:15:33Z</time>
      </trkpt>
      <trkpt lat="41.51443300768733" lon="0.03645901568234">
        <ele>313.52999999999997</ele>
        <time>2025-05-14T07:15:40Z</time>
      </trkpt>
      <trkpt lat="41.517286961898208" lon="0.039877993986011">
        <ele>314.00999999999999</ele>
        <time>2025-05-14T07:15:53Z</time>
      </trkpt>
      <trkpt lat="41.519357040524483" lon="0.04268903285265">
        <ele>312.56999999999999</ele>
        <time>2025-05-14T07:16:03Z</time>
      </trkpt>
      <trkpt lat="41.520998971536756" lon="0.045495964586735">
        <ele>311.12</ele>
        <time>2025-05-14T07:16:12Z</time>
      </trkpt>
      <trkpt lat="41.522851036861539" lon="0.049536963924766">
        <ele>305.36000000000001</ele>
        <time>2025-05-14T07:16:24Z</time>
      </trkpt>
      <trkpt lat="41.524146040901542" lon="0.053505040705204">
        <ele>301.50999999999999</ele>
        <time>2025-05-14T07:16:35Z</time>
      </trkpt>
      <trkpt lat="41.524827992543578" lon="0.056923013180494">
        <ele>299.11000000000001</ele>
        <time>2025-05-14T07:16:44Z</time>
      </trkpt>
      <trkpt lat="41.525128986686468" lon="0.060837026685476">
        <ele>296.22000000000003</ele>
        <time>2025-05-14T07:16:54Z</time>
      </trkpt>
      <trkpt lat="41.524977022781968" lon="0.064364969730377">
        <ele>293.81999999999999</ele>
        <time>2025-05-14T07:17:03Z</time>
      </trkpt>
      <trkpt lat="41.524350978434086" lon="0.06821402348578">
        <ele>291.89999999999998</ele>
        <time>2025-05-14T07:17:13Z</time>
      </trkpt>
      <trkpt lat="41.523341964930296" lon="0.071513978764415">
        <ele>291.42000000000002</ele>
        <time>2025-05-14T07:17:22Z</time>
      </trkpt>
      <trkpt lat="41.521868007257581" lon="0.074943015351892">
        <ele>291.42000000000002</ele>
        <time>2025-05-14T07:17:32Z</time>
      </trkpt>
      <trkpt lat="41.519950982183218" lon="0.077942982316017">
        <ele>291.42000000000002</ele>
        <time>2025-05-14T07:17:42Z</time>
      </trkpt>
      <trkpt lat="41.517709996551275" lon="0.080516980960965">
        <ele>290.94</ele>
        <time>2025-05-14T07:17:52Z</time>
      </trkpt>
      <trkpt lat="41.515187965705991" lon="0.082603991031647">
        <ele>288.05000000000001</ele>
        <time>2025-05-14T07:18:02Z</time>
      </trkpt>
      <trkpt lat="41.512493016198277" lon="0.085041029378772">
        <ele>285.64999999999998</ele>
        <time>2025-05-14T07:18:13Z</time>
      </trkpt>
      <trkpt lat="41.511059040203691" lon="0.087030977010727">
        <ele>283.25</ele>
        <time>2025-05-14T07:18:20Z</time>
      </trkpt>
      <trkpt lat="41.509841987863183" lon="0.089714024215937">
        <ele>285.64999999999998</ele>
        <time>2025-05-14T07:18:28Z</time>
      </trkpt>
      <trkpt lat="41.5083749871701" lon="0.093993991613388">
        <ele>288.05000000000001</ele>
        <time>2025-05-14T07:18:40Z</time>
      </trkpt>
      <trkpt lat="41.507205963134766" lon="0.096237994730473">
        <ele>289.49000000000001</ele>
        <time>2025-05-14T07:18:47Z</time>
      </trkpt>
      <trkpt lat="41.505695963278413" lon="0.099108964204788">
        <ele>291.42000000000002</ele>
        <time>2025-05-14T07:18:56Z</time>
      </trkpt>
      <trkpt lat="41.504901023581624" lon="0.101620014756918">
        <ele>295.25999999999999</ele>
        <time>2025-05-14T07:19:03Z</time>
      </trkpt>
      <trkpt lat="41.504421997815371" lon="0.105079980567098">
        <ele>299.58999999999997</ele>
        <time>2025-05-14T07:19:12Z</time>
      </trkpt>
      <trkpt lat="41.503842975944281" lon="0.108097968623042">
        <ele>303.43000000000001</ele>
        <time>2025-05-14T07:19:20Z</time>
      </trkpt>
      <trkpt lat="41.503042001277208" lon="0.110146002843976">
        <ele>303.43000000000001</ele>
        <time>2025-05-14T07:19:26Z</time>
      </trkpt>
      <trkpt lat="41.501720007508993" lon="0.112266959622502">
        <ele>301.50999999999999</ele>
        <time>2025-05-14T07:19:33Z</time>
      </trkpt>
      <trkpt lat="41.499674990773201" lon="0.114510040730238">
        <ele>298.63</ele>
        <time>2025-05-14T07:19:42Z</time>
      </trkpt>
      <trkpt lat="41.497811023145914" lon="0.116995023563504">
        <ele>295.74000000000001</ele>
        <time>2025-05-14T07:19:51Z</time>
      </trkpt>
      <trkpt lat="41.49657896719873" lon="0.119663989171386">
        <ele>292.38</ele>
        <time>2025-05-14T07:19:59Z</time>
      </trkpt>
      <trkpt lat="41.495803976431489" lon="0.122621962800622">
        <ele>286.13</ele>
        <time>2025-05-14T07:20:07Z</time>
      </trkpt>
      <trkpt lat="41.495494013652205" lon="0.125714968889952">
        <ele>279.88</ele>
        <time>2025-05-14T07:20:15Z</time>
      </trkpt>
      <trkpt lat="41.495612030848861" lon="0.128068020567298">
        <ele>275.56</ele>
        <time>2025-05-14T07:20:21Z</time>
      </trkpt>
      <trkpt lat="41.496064988896251" lon="0.130755007266998">
        <ele>271.23000000000002</ele>
        <time>2025-05-14T07:20:28Z</time>
      </trkpt>
      <trkpt lat="41.496585002169013" lon="0.134859038516879">
        <ele>261.62</ele>
        <time>2025-05-14T07:20:39Z</time>
      </trkpt>
      <trkpt lat="41.496454998850822" lon="0.137998983263969">
        <ele>252.96000000000001</ele>
        <time>2025-05-14T07:20:48Z</time>
      </trkpt>
      <trkpt lat="41.495835995301604" lon="0.140903983265162">
        <ele>246.72</ele>
        <time>2025-05-14T07:20:57Z</time>
      </trkpt>
      <trkpt lat="41.494862018153071" lon="0.143402041867375">
        <ele>242.87</ele>
        <time>2025-05-14T07:21:05Z</time>
      </trkpt>
      <trkpt lat="41.493586041033268" lon="0.145530961453915">
        <ele>242.87</ele>
        <time>2025-05-14T07:21:12Z</time>
      </trkpt>
      <trkpt lat="41.491414960473776" lon="0.148723041638732">
        <ele>245.27000000000001</ele>
        <time>2025-05-14T07:21:23Z</time>
      </trkpt>
      <trkpt lat="41.490137977525592" lon="0.151345990598202">
        <ele>247.19999999999999</ele>
        <time>2025-05-14T07:21:31Z</time>
      </trkpt>
      <trkpt lat="41.489115972071886" lon="0.154589032754302">
        <ele>251.03999999999999</ele>
        <time>2025-05-14T07:21:40Z</time>
      </trkpt>
      <trkpt lat="41.488593025133014" lon="0.158021003007889">
        <ele>254.41</ele>
        <time>2025-05-14T07:21:49Z</time>
      </trkpt>
      <trkpt lat="41.488418010994792" lon="0.161941973492503">
        <ele>258.25</ele>
        <time>2025-05-14T07:21:59Z</time>
      </trkpt>
      <trkpt lat="41.487973015755415" lon="0.167379984632134">
        <ele>263.54000000000002</ele>
        <time>2025-05-14T07:22:13Z</time>
      </trkpt>
      <trkpt lat="41.48712401278317" lon="0.171919036656618">
        <ele>267.38</ele>
        <time>2025-05-14T07:22:25Z</time>
      </trkpt>
      <trkpt lat="41.485824985429645" lon="0.176292965188622">
        <ele>270.26999999999998</ele>
        <time>2025-05-14T07:22:37Z</time>
      </trkpt>
      <trkpt lat="41.484103007242084" lon="0.180393978953362">
        <ele>270.75</ele>
        <time>2025-05-14T07:22:49Z</time>
      </trkpt>
      <trkpt lat="41.482553025707603" lon="0.183240976184607">
        <ele>270.75</ele>
        <time>2025-05-14T07:22:58Z</time>
      </trkpt>
      <trkpt lat="41.480816965922713" lon="0.186385028064251">
        <ele>266.89999999999998</ele>
        <time>2025-05-14T07:23:08Z</time>
      </trkpt>
      <trkpt lat="41.479259021580219" lon="0.190099971368909">
        <ele>264.01999999999998</ele>
        <time>2025-05-14T07:23:19Z</time>
      </trkpt>
      <trkpt lat="41.478256965056062" lon="0.193736962974072">
        <ele>261.13999999999999</ele>
        <time>2025-05-14T07:23:29Z</time>
      </trkpt>
      <trkpt lat="41.47758599370718" lon="0.19830702804029">
        <ele>258.73000000000002</ele>
        <time>2025-05-14T07:23:41Z</time>
      </trkpt>
      <trkpt lat="41.476687034592032" lon="0.203595003113151">
        <ele>257.76999999999998</ele>
        <time>2025-05-14T07:23:55Z</time>
      </trkpt>
      <trkpt lat="41.475452966988087" lon="0.207946971058846">
        <ele>261.13999999999999</ele>
        <time>2025-05-14T07:24:07Z</time>
      </trkpt>
      <trkpt lat="41.474486030638218" lon="0.210505966097116">
        <ele>264.5</ele>
        <time>2025-05-14T07:24:15Z</time>
      </trkpt>
      <trkpt lat="41.473244000226259" lon="0.213442984968424">
        <ele>267.86000000000001</ele>
        <time>2025-05-14T07:24:24Z</time>
      </trkpt>
      <trkpt lat="41.471509030088782" lon="0.217496976256371">
        <ele>271.70999999999998</ele>
        <time>2025-05-14T07:24:36Z</time>
      </trkpt>
      <trkpt lat="41.470283009111881" lon="0.220984015613794">
        <ele>276.04000000000002</ele>
        <time>2025-05-14T07:24:46Z</time>
      </trkpt>
      <trkpt lat="41.469166958704591" lon="0.224935999140143">
        <ele>281.31999999999999</ele>
        <time>2025-05-14T07:24:57Z</time>
      </trkpt>
      <trkpt lat="41.46832600235939" lon="0.228968029841781">
        <ele>286.13</ele>
        <time>2025-05-14T07:25:08Z</time>
      </trkpt>
      <trkpt lat="41.467685038223863" lon="0.233925003558397">
        <ele>294.30000000000001</ele>
        <time>2025-05-14T07:25:21Z</time>
      </trkpt>
      <trkpt lat="41.467384966090322" lon="0.239328984171152">
        <ele>303.43000000000001</ele>
        <time>2025-05-14T07:25:35Z</time>
      </trkpt>
      <trkpt lat="41.467532990500331" lon="0.244363993406296">
        <ele>312.08999999999997</ele>
        <time>2025-05-14T07:25:48Z</time>
      </trkpt>
      <trkpt lat="41.468129027634859" lon="0.249725980684161">
        <ele>322.18000000000001</ele>
        <time>2025-05-14T07:26:02Z</time>
      </trkpt>
      <trkpt lat="41.468778038397431" lon="0.255075981840491">
        <ele>331.31</ele>
        <time>2025-05-14T07:26:16Z</time>
      </trkpt>
      <trkpt lat="41.468822965398431" lon="0.258952025324106">
        <ele>338.04000000000002</ele>
        <time>2025-05-14T07:26:26Z</time>
      </trkpt>
      <trkpt lat="41.468451982364058" lon="0.262392964214087">
        <ele>341.88999999999999</ele>
        <time>2025-05-14T07:26:35Z</time>
      </trkpt>
      <trkpt lat="41.467605996876955" lon="0.266108997166157">
        <ele>343.81</ele>
        <time>2025-05-14T07:26:45Z</time>
      </trkpt>
      <trkpt lat="41.466305963695049" lon="0.269571980461478">
        <ele>343.81</ele>
        <time>2025-05-14T07:26:55Z</time>
      </trkpt>
      <trkpt lat="41.464983969926834" lon="0.272578988224268">
        <ele>342.37</ele>
        <time>2025-05-14T07:27:04Z</time>
      </trkpt>
      <trkpt lat="41.464316016063094" lon="0.275128008797765">
        <ele>340.44</ele>
        <time>2025-05-14T07:27:11Z</time>
      </trkpt>
      <trkpt lat="41.464041005820036" lon="0.278214979916811">
        <ele>337.07999999999998</ele>
        <time>2025-05-14T07:27:19Z</time>
      </trkpt>
      <trkpt lat="41.464374018833041" lon="0.281293988227844">
        <ele>331.79000000000002</ele>
        <time>2025-05-14T07:27:27Z</time>
      </trkpt>
      <trkpt lat="41.465056976303458" lon="0.284707015380263">
        <ele>326.01999999999998</ele>
        <time>2025-05-14T07:27:36Z</time>
      </trkpt>
      <trkpt lat="41.465235007926822" lon="0.287438007071614">
        <ele>318.81</ele>
        <time>2025-05-14T07:27:43Z</time>
      </trkpt>
      <trkpt lat="41.465354030951858" lon="0.291343973949552">
        <ele>306.80000000000001</ele>
        <time>2025-05-14T07:27:53Z</time>
      </trkpt>
      <trkpt lat="41.465949984267354" lon="0.294371014460921">
        <ele>296.22000000000003</ele>
        <time>2025-05-14T07:28:01Z</time>
      </trkpt>
      <trkpt lat="41.466733021661639" lon="0.298135997727513">
        <ele>281.80000000000001</ele>
        <time>2025-05-14T07:28:11Z</time>
      </trkpt>
      <trkpt lat="41.467556962743402" lon="0.301882037892938">
        <ele>269.79000000000002</ele>
        <time>2025-05-14T07:28:21Z</time>
      </trkpt>
      <trkpt lat="41.468622973188758" lon="0.304213967174292">
        <ele>260.17000000000002</ele>
        <time>2025-05-14T07:28:28Z</time>
      </trkpt>
      <trkpt lat="41.470231963321567" lon="0.306496024131775">
        <ele>248.16</ele>
        <time>2025-05-14T07:28:36Z</time>
      </trkpt>
      <trkpt lat="41.472190981730819" lon="0.309393983334303">
        <ele>233.74000000000001</ele>
        <time>2025-05-14T07:28:46Z</time>
      </trkpt>
      <trkpt lat="41.474017985165119" lon="0.311936968937516">
        <ele>223.63999999999999</ele>
        <time>2025-05-14T07:28:55Z</time>
      </trkpt>
      <trkpt lat="41.476026037707925" lon="0.313559034839273">
        <ele>213.55000000000001</ele>
        <time>2025-05-14T07:29:03Z</time>
      </trkpt>
      <trkpt lat="41.478436002507806" lon="0.315029975026846">
        <ele>201.05000000000001</ele>
        <time>2025-05-14T07:29:12Z</time>
      </trkpt>
      <trkpt lat="41.480311034247279" lon="0.316895032301545">
        <ele>190.47999999999999</ele>
        <time>2025-05-14T07:29:20Z</time>
      </trkpt>
      <trkpt lat="41.481626993045211" lon="0.319001991301775">
        <ele>181.34999999999999</ele>
        <time>2025-05-14T07:29:27Z</time>
      </trkpt>
      <trkpt lat="41.48252503015101" lon="0.321452021598816">
        <ele>171.72999999999999</ele>
        <time>2025-05-14T07:29:34Z</time>
      </trkpt>
      <trkpt lat="41.483692964538932" lon="0.325032016262412">
        <ele>158.75</ele>
        <time>2025-05-14T07:29:44Z</time>
      </trkpt>
      <trkpt lat="41.484931977465749" lon="0.327207958325744">
        <ele>149.62</ele>
        <time>2025-05-14T07:29:51Z</time>
      </trkpt>
      <trkpt lat="41.486919997259974" lon="0.330088986083865">
        <ele>136.16</ele>
        <time>2025-05-14T07:30:01Z</time>
      </trkpt>
      <trkpt lat="41.488132020458579" lon="0.332773961126804">
        <ele>125.59</ele>
        <time>2025-05-14T07:30:09Z</time>
      </trkpt>
      <trkpt lat="41.489643026143312" lon="0.337438993155956">
        <ele>109.25</ele>
        <time>2025-05-14T07:30:22Z</time>
      </trkpt>
      <trkpt lat="41.490574004128575" lon="0.341979973018169">
        <ele>100.11</ele>
        <time>2025-05-14T07:30:34Z</time>
      </trkpt>
      <trkpt lat="41.490898970514536" lon="0.345884012058377">
        <ele>98.670000000000002</ele>
        <time>2025-05-14T07:30:44Z</time>
      </trkpt>
      <trkpt lat="41.490894025191665" lon="0.349810011684895">
        <ele>102.04000000000001</ele>
        <time>2025-05-14T07:30:54Z</time>
      </trkpt>
      <trkpt lat="41.490722028538585" lon="0.354917021468282">
        <ele>107.81</ele>
        <time>2025-05-14T07:31:07Z</time>
      </trkpt>
      <trkpt lat="41.491072978824377" lon="0.358010027557611">
        <ele>113.09</ele>
        <time>2025-05-14T07:31:15Z</time>
      </trkpt>
      <trkpt lat="41.491956012323499" lon="0.361360022798181">
        <ele>119.81999999999999</ele>
        <time>2025-05-14T07:31:24Z</time>
      </trkpt>
      <trkpt lat="41.492835022509098" lon="0.365118971094489">
        <ele>127.51000000000001</ele>
        <time>2025-05-14T07:31:34Z</time>
      </trkpt>
      <trkpt lat="41.493023028597236" lon="0.367854991927743">
        <ele>130.88</ele>
        <time>2025-05-14T07:31:41Z</time>
      </trkpt>
      <trkpt lat="41.493189996108413" lon="0.372183993458748">
        <ele>132.31999999999999</ele>
        <time>2025-05-14T07:31:52Z</time>
      </trkpt>
      <trkpt lat="41.493776980787516" lon="0.375640019774437">
        <ele>133.75999999999999</ele>
        <time>2025-05-14T07:32:01Z</time>
      </trkpt>
      <trkpt lat="41.495106015354395" lon="0.380452992394567">
        <ele>136.16</ele>
        <time>2025-05-14T07:32:14Z</time>
      </trkpt>
      <trkpt lat="41.495643965899944" lon="0.383915975689888">
        <ele>137.61000000000001</ele>
        <time>2025-05-14T07:32:23Z</time>
      </trkpt>
      <trkpt lat="41.495801964774728" lon="0.388236008584499">
        <ele>140.49000000000001</ele>
        <time>2025-05-14T07:32:34Z</time>
      </trkpt>
      <trkpt lat="41.496122991666198" lon="0.39214700460434">
        <ele>141.93000000000001</ele>
        <time>2025-05-14T07:32:44Z</time>
      </trkpt>
      <trkpt lat="41.496928995475173" lon="0.395551985129714">
        <ele>143.37</ele>
        <time>2025-05-14T07:32:53Z</time>
      </trkpt>
      <trkpt lat="41.498225005343556" lon="0.398656977340579">
        <ele>145.30000000000001</ele>
        <time>2025-05-14T07:33:02Z</time>
      </trkpt>
      <trkpt lat="41.499941032379866" lon="0.401352010667324">
        <ele>147.22</ele>
        <time>2025-05-14T07:33:11Z</time>
      </trkpt>
      <trkpt lat="41.502127032727003" lon="0.404043020680547">
        <ele>151.53999999999999</ele>
        <time>2025-05-14T07:33:21Z</time>
      </trkpt>
      <trkpt lat="41.503620017319918" lon="0.406097006052732">
        <ele>153.94999999999999</ele>
        <time>2025-05-14T07:33:29Z</time>
      </trkpt>
      <trkpt lat="41.505283992737532" lon="0.409119017422199">
        <ele>155.87</ele>
        <time>2025-05-14T07:33:40Z</time>
      </trkpt>
      <trkpt lat="41.50643901899457" lon="0.412111021578312">
        <ele>157.78999999999999</ele>
        <time>2025-05-14T07:33:50Z</time>
      </trkpt>
      <trkpt lat="41.507314005866647" lon="0.415422962978482">
        <ele>158.75</ele>
        <time>2025-05-14T07:33:59Z</time>
      </trkpt>
      <trkpt lat="41.507867965847254" lon="0.419277967885137">
        <ele>157.31</ele>
        <time>2025-05-14T07:34:09Z</time>
      </trkpt>
      <trkpt lat="41.508358977735043" lon="0.423553995788097">
        <ele>154.43000000000001</ele>
        <time>2025-05-14T07:34:20Z</time>
      </trkpt>
      <trkpt lat="41.509072026237845" lon="0.426572989672422">
        <ele>153.47</ele>
        <time>2025-05-14T07:34:28Z</time>
      </trkpt>
      <trkpt lat="41.510228980332613" lon="0.429765991866589">
        <ele>152.99000000000001</ele>
        <time>2025-05-14T07:34:37Z</time>
      </trkpt>
      <trkpt lat="41.511415019631386" lon="0.433373982086778">
        <ele>152.99000000000001</ele>
        <time>2025-05-14T07:34:47Z</time>
      </trkpt>
      <trkpt lat="41.512098982930183" lon="0.437209038063884">
        <ele>154.91</ele>
        <time>2025-05-14T07:34:57Z</time>
      </trkpt>
      <trkpt lat="41.512913033366203" lon="0.440997993573546">
        <ele>155.87</ele>
        <time>2025-05-14T07:35:07Z</time>
      </trkpt>
      <trkpt lat="41.514136958867311" lon="0.444157971069217">
        <ele>152.50999999999999</ele>
        <time>2025-05-14T07:35:16Z</time>
      </trkpt>
      <trkpt lat="41.515720970928669" lon="0.447012009099126">
        <ele>144.81999999999999</ele>
        <time>2025-05-14T07:35:25Z</time>
      </trkpt>
      <trkpt lat="41.517749978229403" lon="0.45086701400578">
        <ele>137.61000000000001</ele>
        <time>2025-05-14T07:35:37Z</time>
      </trkpt>
      <trkpt lat="41.518770977854729" lon="0.454115001484752">
        <ele>139.53</ele>
        <time>2025-05-14T07:35:46Z</time>
      </trkpt>
      <trkpt lat="41.519832964986563" lon="0.458615999668837">
        <ele>147.22</ele>
        <time>2025-05-14T07:35:58Z</time>
      </trkpt>
      <trkpt lat="41.520988997071981" lon="0.461807996034622">
        <ele>149.62</ele>
        <time>2025-05-14T07:36:07Z</time>
      </trkpt>
      <trkpt lat="41.522377962246537" lon="0.464379983022809">
        <ele>152.03</ele>
        <time>2025-05-14T07:36:15Z</time>
      </trkpt>
      <trkpt lat="41.524285012856126" lon="0.466743009164929">
        <ele>153.47</ele>
        <time>2025-05-14T07:36:24Z</time>
      </trkpt>
      <trkpt lat="41.52553902938962" lon="0.467892000451684">
        <ele>153.47</ele>
        <time>2025-05-14T07:36:31Z</time>
      </trkpt>
      <trkpt lat="41.527557978406549" lon="0.469433013349772">
        <ele>150.58000000000001</ele>
        <time>2025-05-14T07:36:41Z</time>
      </trkpt>
      <trkpt lat="41.530397012829781" lon="0.471293041482568">
        <ele>147.22</ele>
        <time>2025-05-14T07:36:53Z</time>
      </trkpt>
      <trkpt lat="41.532070962712169" lon="0.472394004464149">
        <ele>145.30000000000001</ele>
        <time>2025-05-14T07:37:01Z</time>
      </trkpt>
      <trkpt lat="41.53428596444428" lon="0.474102990701795">
        <ele>140.97</ele>
        <time>2025-05-14T07:37:12Z</time>
      </trkpt>
      <trkpt lat="41.535307969897985" lon="0.475098006427288">
        <ele>140.49000000000001</ele>
        <time>2025-05-14T07:37:18Z</time>
      </trkpt>
      <trkpt lat="41.535797975957394" lon="0.475826980546117">
        <ele>140.49000000000001</ele>
        <time>2025-05-14T07:37:22Z</time>
      </trkpt>
      <trkpt lat="41.535886991769075" lon="0.475996965542436">
        <ele>140.00999999999999</ele>
        <time>2025-05-14T07:37:23Z</time>
      </trkpt>
      <trkpt lat="41.535941977053881" lon="0.476172985509038">
        <ele>140.49000000000001</ele>
        <time>2025-05-14T07:37:24Z</time>
      </trkpt>
      <trkpt lat="41.535938959568739" lon="0.47632603906095">
        <ele>140.49000000000001</ele>
        <time>2025-05-14T07:37:25Z</time>
      </trkpt>
      <trkpt lat="41.535904007032514" lon="0.476484037935734">
        <ele>140.97</ele>
        <time>2025-05-14T07:37:26Z</time>
      </trkpt>
      <trkpt lat="41.535865031182766" lon="0.476634996011853">
        <ele>141.44999999999999</ele>
        <time>2025-05-14T07:37:27Z</time>
      </trkpt>
      <trkpt lat="41.535793030634522" lon="0.47675896435976">
        <ele>141.93000000000001</ele>
        <time>2025-05-14T07:37:28Z</time>
      </trkpt>
      <trkpt lat="41.53568297624588" lon="0.4768449626863">
        <ele>142.41</ele>
        <time>2025-05-14T07:37:29Z</time>
      </trkpt>
      <trkpt lat="41.535562025383115" lon="0.476902965456247">
        <ele>142.41</ele>
        <time>2025-05-14T07:37:30Z</time>
      </trkpt>
      <trkpt lat="41.535415006801486" lon="0.476915035396814">
        <ele>142.88999999999999</ele>
        <time>2025-05-14T07:37:31Z</time>
      </trkpt>
      <trkpt lat="41.53527301736176" lon="0.476850997656584">
        <ele>143.37</ele>
        <time>2025-05-14T07:37:32Z</time>
      </trkpt>
      <trkpt lat="41.535145025700331" lon="0.476741027086973">
        <ele>143.37</ele>
        <time>2025-05-14T07:37:33Z</time>
      </trkpt>
      <trkpt lat="41.535017034038901" lon="0.476603982970119">
        <ele>143.84999999999999</ele>
        <time>2025-05-14T07:37:34Z</time>
      </trkpt>
      <trkpt lat="41.534894993528724" lon="0.476446989923716">
        <ele>143.84999999999999</ele>
        <time>2025-05-14T07:37:35Z</time>
      </trkpt>
      <trkpt lat="41.534793991595507" lon="0.476264012977481">
        <ele>144.34</ele>
        <time>2025-05-14T07:37:36Z</time>
      </trkpt>
      <trkpt lat="41.534687038511038" lon="0.476055974140763">
        <ele>144.81999999999999</ele>
        <time>2025-05-14T07:37:37Z</time>
      </trkpt>
      <trkpt lat="41.534621994942427" lon="0.475824968889356">
        <ele>145.30000000000001</ele>
        <time>2025-05-14T07:37:38Z</time>
      </trkpt>
      <trkpt lat="41.534556029364467" lon="0.475590024143457">
        <ele>146.25999999999999</ele>
        <time>2025-05-14T07:37:39Z</time>
      </trkpt>
      <trkpt lat="41.534532979130745" lon="0.475328005850315">
        <ele>146.74000000000001</ele>
        <time>2025-05-14T07:37:40Z</time>
      </trkpt>
      <trkpt lat="41.534529039636254" lon="0.475070010870695">
        <ele>147.22</ele>
        <time>2025-05-14T07:37:41Z</time>
      </trkpt>
      <trkpt lat="41.534566003829241" lon="0.474828025326133">
        <ele>148.18000000000001</ele>
        <time>2025-05-14T07:37:42Z</time>
      </trkpt>
      <trkpt lat="41.534602968022227" lon="0.474582016468048">
        <ele>148.66</ele>
        <time>2025-05-14T07:37:43Z</time>
      </trkpt>
      <trkpt lat="41.534644039347768" lon="0.474336007609963">
        <ele>149.13999999999999</ele>
        <time>2025-05-14T07:37:44Z</time>
      </trkpt>
      <trkpt lat="41.534699024632573" lon="0.474074995145202">
        <ele>149.13999999999999</ele>
        <time>2025-05-14T07:37:45Z</time>
      </trkpt>
      <trkpt lat="41.53479902073741" lon="0.473857987672091">
        <ele>149.62</ele>
        <time>2025-05-14T07:37:46Z</time>
      </trkpt>
      <trkpt lat="41.535869976505637" lon="0.4719009809196">
        <ele>147.22</ele>
        <time>2025-05-14T07:37:55Z</time>
      </trkpt>
      <trkpt lat="41.537272017449141" lon="0.470490977168083">
        <ele>149.62</ele>
        <time>2025-05-14T07:38:03Z</time>
      </trkpt>
      <trkpt lat="41.538685038685799" lon="0.469428990036249">
        <ele>151.53999999999999</ele>
        <time>2025-05-14T07:38:11Z</time>
      </trkpt>
      <trkpt lat="41.538941022008657" lon="0.46917300671339">
        <ele>151.53999999999999</ele>
        <time>2025-05-14T07:38:13Z</time>
      </trkpt>
      <trkpt lat="41.539059961214662" lon="0.469053983688354">
        <ele>151.06</ele>
        <time>2025-05-14T07:38:14Z</time>
      </trkpt>
      <trkpt lat="41.539177978411317" lon="0.468935966491699">
        <ele>151.06</ele>
        <time>2025-05-14T07:38:15Z</time>
      </trkpt>
      <trkpt lat="41.539237992838025" lon="0.468798000365496">
        <ele>151.53999999999999</ele>
        <time>2025-05-14T07:38:16Z</time>
      </trkpt>
      <trkpt lat="41.539303958415985" lon="0.468646958470345">
        <ele>152.03</ele>
        <time>2025-05-14T07:38:17Z</time>
      </trkpt>
      <trkpt lat="41.539415018633008" lon="0.468389969319105">
        <ele>152.99000000000001</ele>
        <time>2025-05-14T07:38:19Z</time>
      </trkpt>
      <trkpt lat="41.539457011967897" lon="0.46829198487103">
        <ele>153.47</ele>
        <time>2025-05-14T07:38:20Z</time>
      </trkpt>
      <trkpt lat="41.539478972554207" lon="0.468204980716109">
        <ele>153.94999999999999</ele>
        <time>2025-05-14T07:38:21Z</time>
      </trkpt>
      <trkpt lat="41.53959103859961" lon="0.467727966606617">
        <ele>156.34999999999999</ele>
        <time>2025-05-14T07:38:30Z</time>
      </trkpt>
      <trkpt lat="41.539634959772229" lon="0.467656971886754">
        <ele>156.83000000000001</ele>
        <time>2025-05-14T07:38:31Z</time>
      </trkpt>
      <trkpt lat="41.539692962542176" lon="0.467563010752201">
        <ele>156.83000000000001</ele>
        <time>2025-05-14T07:38:32Z</time>
      </trkpt>
      <trkpt lat="41.539750965312123" lon="0.467551024630666">
        <ele>157.31</ele>
        <time>2025-05-14T07:38:33Z</time>
      </trkpt>
      <trkpt lat="41.539837969467044" lon="0.467534009367228">
        <ele>157.31</ele>
        <time>2025-05-14T07:38:34Z</time>
      </trkpt>
      <trkpt lat="41.539953975006938" lon="0.467542978003621">
        <ele>157.31</ele>
        <time>2025-05-14T07:38:35Z</time>
      </trkpt>
      <trkpt lat="41.540080960839987" lon="0.467627970501781">
        <ele>157.31</ele>
        <time>2025-05-14T07:38:36Z</time>
      </trkpt>
      <trkpt lat="41.540185986086726" lon="0.467774989083409">
        <ele>157.31</ele>
        <time>2025-05-14T07:38:37Z</time>
      </trkpt>
      <trkpt lat="41.540267039090395" lon="0.467938017100096">
        <ele>156.83000000000001</ele>
        <time>2025-05-14T07:38:38Z</time>
      </trkpt>
      <trkpt lat="41.541000958532095" lon="0.469418009743094">
        <ele>150.58000000000001</ele>
        <time>2025-05-14T07:38:45Z</time>
      </trkpt>
      <trkpt lat="41.542548006400466" lon="0.472490983083844">
        <ele>143.84999999999999</ele>
        <time>2025-05-14T07:38:57Z</time>
      </trkpt>
      <trkpt lat="41.543922973796725" lon="0.475386008620262">
        <ele>139.53</ele>
        <time>2025-05-14T07:39:07Z</time>
      </trkpt>
      <trkpt lat="41.54507297091186" lon="0.478082969784737">
        <ele>137.13</ele>
        <time>2025-05-14T07:39:15Z</time>
      </trkpt>
      <trkpt lat="41.546761002391577" lon="0.483109010383487">
        <ele>136.63999999999999</ele>
        <time>2025-05-14T07:39:29Z</time>
      </trkpt>
      <trkpt lat="41.548367980867624" lon="0.487316977232695">
        <ele>140.97</ele>
        <time>2025-05-14T07:39:41Z</time>
      </trkpt>
      <trkpt lat="41.549610011279583" lon="0.48898103646934">
        <ele>143.37</ele>
        <time>2025-05-14T07:39:47Z</time>
      </trkpt>
      <trkpt lat="41.551134008914232" lon="0.490205967798829">
        <ele>142.88999999999999</ele>
        <time>2025-05-14T07:39:53Z</time>
      </trkpt>
      <trkpt lat="41.553136026486754" lon="0.490963021293283">
        <ele>140.00999999999999</ele>
        <time>2025-05-14T07:40:00Z</time>
      </trkpt>
      <trkpt lat="41.556236995384097" lon="0.49216004088521">
        <ele>133.28</ele>
        <time>2025-05-14T07:40:11Z</time>
      </trkpt>
      <trkpt lat="41.558913001790643" lon="0.493840025737882">
        <ele>131.84</ele>
        <time>2025-05-14T07:40:21Z</time>
      </trkpt>
      <trkpt lat="41.561128003522754" lon="0.495821004733443">
        <ele>131.36000000000001</ele>
        <time>2025-05-14T07:40:30Z</time>
      </trkpt>
      <trkpt lat="41.563348034396768" lon="0.498417969793081">
        <ele>131.84</ele>
        <time>2025-05-14T07:40:40Z</time>
      </trkpt>
      <trkpt lat="41.565667977556586" lon="0.50090798176825">
        <ele>135.19999999999999</ele>
        <time>2025-05-14T07:40:50Z</time>
      </trkpt>
      <trkpt lat="41.567978030070662" lon="0.502714030444622">
        <ele>137.13</ele>
        <time>2025-05-14T07:40:59Z</time>
      </trkpt>
      <trkpt lat="41.57098101451993" lon="0.504398038610816">
        <ele>137.61000000000001</ele>
        <time>2025-05-14T07:41:10Z</time>
      </trkpt>
      <trkpt lat="41.57338703982532" lon="0.505885994061828">
        <ele>139.53</ele>
        <time>2025-05-14T07:41:19Z</time>
      </trkpt>
      <trkpt lat="41.576137980446219" lon="0.508213983848691">
        <ele>147.69999999999999</ele>
        <time>2025-05-14T07:41:30Z</time>
      </trkpt>
      <trkpt lat="41.579236015677452" lon="0.510557983070612">
        <ele>156.34999999999999</ele>
        <time>2025-05-14T07:41:42Z</time>
      </trkpt>
      <trkpt lat="41.582213016226888" lon="0.512354979291558">
        <ele>164.52000000000001</ele>
        <time>2025-05-14T07:41:53Z</time>
      </trkpt>
      <trkpt lat="41.585064036771655" lon="0.514473002403975">
        <ele>169.33000000000001</ele>
        <time>2025-05-14T07:42:04Z</time>
      </trkpt>
      <trkpt lat="41.587004028260708" lon="0.5163349583745">
        <ele>167.88999999999999</ele>
        <time>2025-05-14T07:42:13Z</time>
      </trkpt>
      <trkpt lat="41.590607995167375" lon="0.519804982468486">
        <ele>161.63999999999999</ele>
        <time>2025-05-14T07:42:27Z</time>
      </trkpt>
      <trkpt lat="41.593403024598956" lon="0.522021995857358">
        <ele>162.59999999999999</ele>
        <time>2025-05-14T07:42:38Z</time>
      </trkpt>
      <trkpt lat="41.595785999670625" lon="0.523602990433574">
        <ele>166.44999999999999</ele>
        <time>2025-05-14T07:42:47Z</time>
      </trkpt>
      <trkpt lat="41.599043039605021" lon="0.525524038821459">
        <ele>169.33000000000001</ele>
        <time>2025-05-14T07:42:59Z</time>
      </trkpt>
      <trkpt lat="41.601045979186893" lon="0.527169993147254">
        <ele>171.25</ele>
        <time>2025-05-14T07:43:07Z</time>
      </trkpt>
      <trkpt lat="41.602762006223202" lon="0.529348030686378">
        <ele>172.21000000000001</ele>
        <time>2025-05-14T07:43:15Z</time>
      </trkpt>
      <trkpt lat="41.604081988334656" lon="0.531980032101274">
        <ele>170.77000000000001</ele>
        <time>2025-05-14T07:43:23Z</time>
      </trkpt>
      <trkpt lat="41.605791980400681" lon="0.536115998402238">
        <ele>168.37</ele>
        <time>2025-05-14T07:43:35Z</time>
      </trkpt>
      <trkpt lat="41.607500966638327" lon="0.539330039173365">
        <ele>171.25</ele>
        <time>2025-05-14T07:43:45Z</time>
      </trkpt>
      <trkpt lat="41.609589988365769" lon="0.542116016149521">
        <ele>172.69</ele>
        <time>2025-05-14T07:43:55Z</time>
      </trkpt>
      <trkpt lat="41.611582031473517" lon="0.543793989345431">
        <ele>175.09999999999999</ele>
        <time>2025-05-14T07:44:03Z</time>
      </trkpt>
      <trkpt lat="41.614419976249337" lon="0.545755019411445">
        <ele>178.94</ele>
        <time>2025-05-14T07:44:14Z</time>
      </trkpt>
      <trkpt lat="41.616513021290302" lon="0.547863990068436">
        <ele>181.83000000000001</ele>
        <time>2025-05-14T07:44:23Z</time>
      </trkpt>
      <trkpt lat="41.618706984445453" lon="0.549756959080696">
        <ele>184.71000000000001</ele>
        <time>2025-05-14T07:44:32Z</time>
      </trkpt>
      <trkpt lat="41.620586961507797" lon="0.550776030868292">
        <ele>190</ele>
        <time>2025-05-14T07:44:39Z</time>
      </trkpt>
      <trkpt lat="41.622883016243577" lon="0.551322028040886">
        <ele>196.72999999999999</ele>
        <time>2025-05-14T07:44:47Z</time>
      </trkpt>
      <trkpt lat="41.625504959374666" lon="0.55146099999547">
        <ele>202.49000000000001</ele>
        <time>2025-05-14T07:44:56Z</time>
      </trkpt>
      <trkpt lat="41.628096979111433" lon="0.551992999389768">
        <ele>204.41999999999999</ele>
        <time>2025-05-14T07:45:05Z</time>
      </trkpt>
      <trkpt lat="41.631261985749006" lon="0.552708981558681">
        <ele>204.41999999999999</ele>
        <time>2025-05-14T07:45:16Z</time>
      </trkpt>
      <trkpt lat="41.634689010679722" lon="0.55341700091958">
        <ele>205.86000000000001</ele>
        <time>2025-05-14T07:45:28Z</time>
      </trkpt>
      <trkpt lat="41.637172987684608" lon="0.554544031620026">
        <ele>210.19</ele>
        <time>2025-05-14T07:45:37Z</time>
      </trkpt>
      <trkpt lat="41.639208029955626" lon="0.556065011769533">
        <ele>216.91</ele>
        <time>2025-05-14T07:45:45Z</time>
      </trkpt>
      <trkpt lat="41.640798998996615" lon="0.557744996622205">
        <ele>221.24000000000001</ele>
        <time>2025-05-14T07:45:52Z</time>
      </trkpt>
      <trkpt lat="41.642414024099708" lon="0.559995034709573">
        <ele>227.49000000000001</ele>
        <time>2025-05-14T07:46:00Z</time>
      </trkpt>
      <trkpt lat="41.644689962267876" lon="0.563522977754474">
        <ele>235.66</ele>
        <time>2025-05-14T07:46:12Z</time>
      </trkpt>
      <trkpt lat="41.646496010944247" lon="0.565480990335345">
        <ele>234.69999999999999</ele>
        <time>2025-05-14T07:46:20Z</time>
      </trkpt>
      <trkpt lat="41.648457963019609" lon="0.56781199760735">
        <ele>234.22</ele>
        <time>2025-05-14T07:46:29Z</time>
      </trkpt>
      <trkpt lat="41.650179019197822" lon="0.57097096927464">
        <ele>228.93000000000001</ele>
        <time>2025-05-14T07:46:39Z</time>
      </trkpt>
      <trkpt lat="41.652031000703573" lon="0.573945036157966">
        <ele>222.19999999999999</ele>
        <time>2025-05-14T07:46:49Z</time>
      </trkpt>
      <trkpt lat="41.654554959386587" lon="0.577171985059977">
        <ele>219.31999999999999</ele>
        <time>2025-05-14T07:47:01Z</time>
      </trkpt>
      <trkpt lat="41.656245002523065" lon="0.579867018386722">
        <ele>217.88</ele>
        <time>2025-05-14T07:47:10Z</time>
      </trkpt>
      <trkpt lat="41.65763103403151" lon="0.582823986187577">
        <ele>215.47</ele>
        <time>2025-05-14T07:47:19Z</time>
      </trkpt>
      <trkpt lat="41.658944981172681" lon="0.586284035816789">
        <ele>213.06999999999999</ele>
        <time>2025-05-14T07:47:29Z</time>
      </trkpt>
      <trkpt lat="41.659901021048427" lon="0.589550966396928">
        <ele>211.63</ele>
        <time>2025-05-14T07:47:38Z</time>
      </trkpt>
      <trkpt lat="41.660791011527181" lon="0.59372398070991">
        <ele>209.22</ele>
        <time>2025-05-14T07:47:49Z</time>
      </trkpt>
      <trkpt lat="41.661373972892761" lon="0.598025992512703">
        <ele>206.81999999999999</ele>
        <time>2025-05-14T07:48:00Z</time>
      </trkpt>
      <trkpt lat="41.662004040554166" lon="0.603501973673701">
        <ele>206.34</ele>
        <time>2025-05-14T07:48:14Z</time>
      </trkpt>
      <trkpt lat="41.662774002179503" lon="0.608535977080464">
        <ele>209.22</ele>
        <time>2025-05-14T07:48:27Z</time>
      </trkpt>
      <trkpt lat="41.66353901848197" lon="0.614394005388021">
        <ele>205.38</ele>
        <time>2025-05-14T07:48:42Z</time>
      </trkpt>
      <trkpt lat="41.663988959044218" lon="0.619898987933993">
        <ele>196.72999999999999</ele>
        <time>2025-05-14T07:48:56Z</time>
      </trkpt>
      <trkpt lat="41.664178976789117" lon="0.625823987647891">
        <ele>197.69</ele>
        <time>2025-05-14T07:49:11Z</time>
      </trkpt>
      <trkpt lat="41.6640779748559" lon="0.631374986842275">
        <ele>193.36000000000001</ele>
        <time>2025-05-14T07:49:25Z</time>
      </trkpt>
      <trkpt lat="41.663717972114682" lon="0.637299986556172">
        <ele>185.19</ele>
        <time>2025-05-14T07:49:40Z</time>
      </trkpt>
      <trkpt lat="41.663070973008871" lon="0.643177041783929">
        <ele>176.53999999999999</ele>
        <time>2025-05-14T07:49:55Z</time>
      </trkpt>
      <trkpt lat="41.66233797557652" lon="0.647421972826123">
        <ele>172.21000000000001</ele>
        <time>2025-05-14T07:50:06Z</time>
      </trkpt>
      <trkpt lat="41.661524008959532" lon="0.649882983416319">
        <ele>171.25</ele>
        <time>2025-05-14T07:50:13Z</time>
      </trkpt>
      <trkpt lat="41.660243002697825" lon="0.652397973462939">
        <ele>169.81</ele>
        <time>2025-05-14T07:50:22Z</time>
      </trkpt>
      <trkpt lat="41.658670976758003" lon="0.654582967981696">
        <ele>169.33000000000001</ele>
        <time>2025-05-14T07:50:31Z</time>
      </trkpt>
      <trkpt lat="41.657627010717988" lon="0.656062960624695">
        <ele>169.33000000000001</ele>
        <time>2025-05-14T07:50:38Z</time>
      </trkpt>
      <trkpt lat="41.657359963282943" lon="0.656406031921506">
        <ele>169.81</ele>
        <time>2025-05-14T07:50:40Z</time>
      </trkpt>
      <trkpt lat="41.657213028520346" lon="0.656517008319497">
        <ele>169.81</ele>
        <time>2025-05-14T07:50:41Z</time>
      </trkpt>
      <trkpt lat="41.657067015767097" lon="0.656625973060727">
        <ele>169.81</ele>
        <time>2025-05-14T07:50:42Z</time>
      </trkpt>
      <trkpt lat="41.65690298192203" lon="0.656660003587604">
        <ele>169.81</ele>
        <time>2025-05-14T07:50:43Z</time>
      </trkpt>
      <trkpt lat="41.656737020239234" lon="0.65669403411448">
        <ele>169.81</ele>
        <time>2025-05-14T07:50:44Z</time>
      </trkpt>
      <trkpt lat="41.65657801553607" lon="0.656726974993944">
        <ele>170.28999999999999</ele>
        <time>2025-05-14T07:50:45Z</time>
      </trkpt>
      <trkpt lat="41.656444994732738" lon="0.656754970550537">
        <ele>171.25</ele>
        <time>2025-05-14T07:50:46Z</time>
      </trkpt>
      <trkpt lat="41.65630099363625" lon="0.656821019947529">
        <ele>171.72999999999999</ele>
        <time>2025-05-14T07:50:47Z</time>
      </trkpt>
      <trkpt lat="41.656165961176157" lon="0.656883968040347">
        <ele>172.69</ele>
        <time>2025-05-14T07:50:48Z</time>
      </trkpt>
      <trkpt lat="41.656095972284675" lon="0.656968038529158">
        <ele>173.16999999999999</ele>
        <time>2025-05-14T07:50:49Z</time>
      </trkpt>
      <trkpt lat="41.656017014756799" lon="0.657063005492091">
        <ele>173.66</ele>
        <time>2025-05-14T07:50:50Z</time>
      </trkpt>
      <trkpt lat="41.655941996723413" lon="0.657152021303773">
        <ele>174.13999999999999</ele>
        <time>2025-05-14T07:50:51Z</time>
      </trkpt>
      <trkpt lat="41.655837977305055" lon="0.657317982986569">
        <ele>175.09999999999999</ele>
        <time>2025-05-14T07:50:53Z</time>
      </trkpt>
      <trkpt lat="41.655832026153803" lon="0.657377997413278">
        <ele>175.58000000000001</ele>
        <time>2025-05-14T07:50:54Z</time>
      </trkpt>
      <trkpt lat="41.6558269970119" lon="0.657420996576548">
        <ele>176.06</ele>
        <time>2025-05-14T07:50:55Z</time>
      </trkpt>
      <trkpt lat="41.655823979526758" lon="0.657452009618282">
        <ele>176.53999999999999</ele>
        <time>2025-05-14T07:51:04Z</time>
      </trkpt>
      <trkpt lat="41.655812999233603" lon="0.657543959096074">
        <ele>177.02000000000001</ele>
        <time>2025-05-14T07:51:12Z</time>
      </trkpt>
      <trkpt lat="41.655805958434939" lon="0.657613025978208">
        <ele>177.5</ele>
        <time>2025-05-14T07:51:13Z</time>
      </trkpt>
      <trkpt lat="41.655857004225254" lon="0.657788040116429">
        <ele>177.97999999999999</ele>
        <time>2025-05-14T07:51:14Z</time>
      </trkpt>
      <trkpt lat="41.655924981459975" lon="0.657828021794558">
        <ele>177.97999999999999</ele>
        <time>2025-05-14T07:51:15Z</time>
      </trkpt>
      <trkpt lat="41.656003016978502" lon="0.657874038442969">
        <ele>177.97999999999999</ele>
        <time>2025-05-14T07:51:16Z</time>
      </trkpt>
      <trkpt lat="41.656089015305042" lon="0.657925000414252">
        <ele>178.46000000000001</ele>
        <time>2025-05-14T07:51:17Z</time>
      </trkpt>
      <trkpt lat="41.656893007457256" lon="0.65845800563693">
        <ele>179.41999999999999</ele>
        <time>2025-05-14T07:51:24Z</time>
      </trkpt>
      <trkpt lat="41.658077035099268" lon="0.659557040780783">
        <ele>177.02000000000001</ele>
        <time>2025-05-14T07:51:32Z</time>
      </trkpt>
      <trkpt lat="41.659194007515907" lon="0.661007026210427">
        <ele>173.66</ele>
        <time>2025-05-14T07:51:41Z</time>
      </trkpt>
      <trkpt lat="41.660448024049401" lon="0.662246961146593">
        <ele>176.06</ele>
        <time>2025-05-14T07:51:50Z</time>
      </trkpt>
      <trkpt lat="41.662123985588551" lon="0.663284976035357">
        <ele>181.34999999999999</ele>
        <time>2025-05-14T07:51:59Z</time>
      </trkpt>
      <trkpt lat="41.663666004315019" lon="0.663988972082734">
        <ele>181.83000000000001</ele>
        <time>2025-05-14T07:52:08Z</time>
      </trkpt>
      <trkpt lat="41.665051029995084" lon="0.665063029155135">
        <ele>180.87</ele>
        <time>2025-05-14T07:52:16Z</time>
      </trkpt>
      <trkpt lat="41.66764497756958" lon="0.667377021163702">
        <ele>184.71000000000001</ele>
        <time>2025-05-14T07:52:30Z</time>
      </trkpt>
      <trkpt lat="41.669372990727425" lon="0.668347980827093">
        <ele>190</ele>
        <time>2025-05-14T07:52:38Z</time>
      </trkpt>
      <trkpt lat="41.671345001086593" lon="0.669462019577622">
        <ele>196.72999999999999</ele>
        <time>2025-05-14T07:52:47Z</time>
      </trkpt>
      <trkpt lat="41.672999002039433" lon="0.671189026907086">
        <ele>204.41999999999999</ele>
        <time>2025-05-14T07:52:56Z</time>
      </trkpt>
      <trkpt lat="41.676293006166816" lon="0.674745971336961">
        <ele>207.78</ele>
        <time>2025-05-14T07:53:15Z</time>
      </trkpt>
      <trkpt lat="41.678572967648506" lon="0.677623981609941">
        <ele>212.11000000000001</ele>
        <time>2025-05-14T07:53:29Z</time>
      </trkpt>
      <trkpt lat="41.681069014593959" lon="0.681386031210423">
        <ele>211.63</ele>
        <time>2025-05-14T07:53:46Z</time>
      </trkpt>
      <trkpt lat="41.681688018143177" lon="0.683032991364598">
        <ele>208.74000000000001</ele>
        <time>2025-05-14T07:53:52Z</time>
      </trkpt>
      <trkpt lat="41.681965962052345" lon="0.685137016698718">
        <ele>205.86000000000001</ele>
        <time>2025-05-14T07:53:59Z</time>
      </trkpt>
      <trkpt lat="41.682339962571859" lon="0.690185017883778">
        <ele>191.44</ele>
        <time>2025-05-14T07:54:16Z</time>
      </trkpt>
      <trkpt lat="41.682882020249963" lon="0.693346001207829">
        <ele>186.63</ele>
        <time>2025-05-14T07:54:27Z</time>
      </trkpt>
      <trkpt lat="41.683807969093323" lon="0.696257036179304">
        <ele>182.31</ele>
        <time>2025-05-14T07:54:38Z</time>
      </trkpt>
      <trkpt lat="41.685044970363379" lon="0.698774959892035">
        <ele>179.41999999999999</ele>
        <time>2025-05-14T07:54:48Z</time>
      </trkpt>
      <trkpt lat="41.686656977981329" lon="0.701129017397761">
        <ele>181.83000000000001</ele>
        <time>2025-05-14T07:54:59Z</time>
      </trkpt>
      <trkpt lat="41.688732001930475" lon="0.703738974407315">
        <ele>185.19</ele>
        <time>2025-05-14T07:55:12Z</time>
      </trkpt>
      <trkpt lat="41.690691020339727" lon="0.705936038866639">
        <ele>185.66999999999999</ele>
        <time>2025-05-14T07:55:23Z</time>
      </trkpt>
      <trkpt lat="41.692703012377024" lon="0.707260966300964">
        <ele>185.66999999999999</ele>
        <time>2025-05-14T07:55:33Z</time>
      </trkpt>
      <trkpt lat="41.694663958624005" lon="0.707854991778731">
        <ele>190.96000000000001</ele>
        <time>2025-05-14T07:55:42Z</time>
      </trkpt>
      <trkpt lat="41.696544019505382" lon="0.707952976226807">
        <ele>197.21000000000001</ele>
        <time>2025-05-14T07:55:50Z</time>
      </trkpt>
      <trkpt lat="41.699024979025126" lon="0.708212982863188">
        <ele>200.09</ele>
        <time>2025-05-14T07:56:01Z</time>
      </trkpt>
      <trkpt lat="41.70163300819695" lon="0.709124011918902">
        <ele>203.46000000000001</ele>
        <time>2025-05-14T07:56:13Z</time>
      </trkpt>
      <trkpt lat="41.703822026029229" lon="0.710544995963573">
        <ele>206.81999999999999</ele>
        <time>2025-05-14T07:56:24Z</time>
      </trkpt>
      <trkpt lat="41.706197038292885" lon="0.712716998532414">
        <ele>216.91</ele>
        <time>2025-05-14T07:56:37Z</time>
      </trkpt>
      <trkpt lat="41.709107989445329" lon="0.715975966304541">
        <ele>214.03</ele>
        <time>2025-05-14T07:56:54Z</time>
      </trkpt>
      <trkpt lat="41.712151039391756" lon="0.719448002055287">
        <ele>216.91</ele>
        <time>2025-05-14T07:57:12Z</time>
      </trkpt>
      <trkpt lat="41.715200962498784" lon="0.722898999229074">
        <ele>214.99000000000001</ele>
        <time>2025-05-14T07:57:30Z</time>
      </trkpt>
      <trkpt lat="41.718267984688282" lon="0.726337004452944">
        <ele>217.40000000000001</ele>
        <time>2025-05-14T07:57:48Z</time>
      </trkpt>
      <trkpt lat="41.719960039481521" lon="0.727719012647867">
        <ele>222.19999999999999</ele>
        <time>2025-05-14T07:57:57Z</time>
      </trkpt>
      <trkpt lat="41.722049983218312" lon="0.728728026151657">
        <ele>226.05000000000001</ele>
        <time>2025-05-14T07:58:07Z</time>
      </trkpt>
      <trkpt lat="41.723759975284338" lon="0.729640983045101">
        <ele>229.88999999999999</ele>
        <time>2025-05-14T07:58:16Z</time>
      </trkpt>
      <trkpt lat="41.725223958492279" lon="0.730956019833684">
        <ele>230.37</ele>
        <time>2025-05-14T07:58:26Z</time>
      </trkpt>
      <trkpt lat="41.726592974737287" lon="0.732438024133444">
        <ele>226.53</ele>
        <time>2025-05-14T07:58:37Z</time>
      </trkpt>
      <trkpt lat="41.727323960512877" lon="0.733086029067636">
        <ele>224.12</ele>
        <time>2025-05-14T07:58:44Z</time>
      </trkpt>
      <trkpt lat="41.728205988183618" lon="0.733766974881291">
        <ele>222.68000000000001</ele>
        <time>2025-05-14T07:58:54Z</time>
      </trkpt>
      <trkpt lat="41.729323966428638" lon="0.734357982873917">
        <ele>220.75999999999999</ele>
        <time>2025-05-14T07:59:02Z</time>
      </trkpt>
      <trkpt lat="41.730642020702362" lon="0.734832985326648">
        <ele>222.68000000000001</ele>
        <time>2025-05-14T07:59:08Z</time>
      </trkpt>
      <trkpt lat="41.732203988358378" lon="0.735390968620777">
        <ele>227.00999999999999</ele>
        <time>2025-05-14T07:59:17Z</time>
      </trkpt>
      <trkpt lat="41.733470996841788" lon="0.736082978546619">
        <ele>231.33000000000001</ele>
        <time>2025-05-14T07:59:25Z</time>
      </trkpt>
      <trkpt lat="41.734508005902171" lon="0.7373290322721">
        <ele>233.74000000000001</ele>
        <time>2025-05-14T07:59:33Z</time>
      </trkpt>
      <trkpt lat="41.735239997506142" lon="0.739199034869671">
        <ele>236.13999999999999</ele>
        <time>2025-05-14T07:59:41Z</time>
      </trkpt>
      <trkpt lat="41.735756993293762" lon="0.741115976125002">
        <ele>237.09999999999999</ele>
        <time>2025-05-14T07:59:47Z</time>
      </trkpt>
      <trkpt lat="41.736277006566525" lon="0.742953037843108">
        <ele>237.58000000000001</ele>
        <time>2025-05-14T07:59:53Z</time>
      </trkpt>
      <trkpt lat="41.736900033429265" lon="0.74540700763464">
        <ele>235.18000000000001</ele>
        <time>2025-05-14T08:00:03Z</time>
      </trkpt>
      <trkpt lat="41.737102037295699" lon="0.747472979128361">
        <ele>228.44999999999999</ele>
        <time>2025-05-14T08:00:11Z</time>
      </trkpt>
      <trkpt lat="41.73740403726697" lon="0.749687980860472">
        <ele>218.36000000000001</ele>
        <time>2025-05-14T08:00:19Z</time>
      </trkpt>
      <trkpt lat="41.738245999440551" lon="0.751689998432994">
        <ele>212.59</ele>
        <time>2025-05-14T08:00:27Z</time>
      </trkpt>
      <trkpt lat="41.739738984033465" lon="0.754502965137362">
        <ele>214.03</ele>
        <time>2025-05-14T08:00:39Z</time>
      </trkpt>
      <trkpt lat="41.741629019379616" lon="0.757091967388988">
        <ele>216.43000000000001</ele>
        <time>2025-05-14T08:00:51Z</time>
      </trkpt>
      <trkpt lat="41.743845026940107" lon="0.760071985423565">
        <ele>218.36000000000001</ele>
        <time>2025-05-14T08:01:05Z</time>
      </trkpt>
      <trkpt lat="41.745563987642527" lon="0.761916004121304">
        <ele>219.31999999999999</ele>
        <time>2025-05-14T08:01:15Z</time>
      </trkpt>
      <trkpt lat="41.748147960752249" lon="0.763742001727223">
        <ele>218.84</ele>
        <time>2025-05-14T08:01:28Z</time>
      </trkpt>
      <trkpt lat="41.749998014420271" lon="0.764858974143863">
        <ele>220.75999999999999</ele>
        <time>2025-05-14T08:01:38Z</time>
      </trkpt>
      <trkpt lat="41.750729000195861" lon="0.765244038775563">
        <ele>221.24000000000001</ele>
        <time>2025-05-14T08:01:42Z</time>
      </trkpt>
      <trkpt lat="41.750892028212547" lon="0.765406982973218">
        <ele>221.24000000000001</ele>
        <time>2025-05-14T08:01:43Z</time>
      </trkpt>
      <trkpt lat="41.751051032915711" lon="0.765584008768201">
        <ele>221.24000000000001</ele>
        <time>2025-05-14T08:01:44Z</time>
      </trkpt>
      <trkpt lat="41.751194028183818" lon="0.765786012634635">
        <ele>221.24000000000001</ele>
        <time>2025-05-14T08:01:45Z</time>
      </trkpt>
      <trkpt lat="41.751331994310021" lon="0.765996985137463">
        <ele>221.24000000000001</ele>
        <time>2025-05-14T08:01:46Z</time>
      </trkpt>
      <trkpt lat="41.751464009284973" lon="0.766212986782193">
        <ele>221.24000000000001</ele>
        <time>2025-05-14T08:01:47Z</time>
      </trkpt>
      <trkpt lat="41.752548040822148" lon="0.767789036035538">
        <ele>221.72</ele>
        <time>2025-05-14T08:01:55Z</time>
      </trkpt>
      <trkpt lat="41.754182009026408" lon="0.769294006749988">
        <ele>221.24000000000001</ele>
        <time>2025-05-14T08:02:04Z</time>
      </trkpt>
      <trkpt lat="41.755855958908796" lon="0.770349958911538">
        <ele>221.72</ele>
        <time>2025-05-14T08:02:12Z</time>
      </trkpt>
      <trkpt lat="41.757252970710397" lon="0.771771026775241">
        <ele>220.75999999999999</ele>
        <time>2025-05-14T08:02:20Z</time>
      </trkpt>
      <trkpt lat="41.758960029110312" lon="0.773930037394166">
        <ele>221.24000000000001</ele>
        <time>2025-05-14T08:02:31Z</time>
      </trkpt>
      <trkpt lat="41.75914803519845" lon="0.774065991863608">
        <ele>221.24000000000001</ele>
        <time>2025-05-14T08:02:32Z</time>
      </trkpt>
      <trkpt lat="41.759338974952698" lon="0.774199012666941">
        <ele>220.75999999999999</ele>
        <time>2025-05-14T08:02:33Z</time>
      </trkpt>
      <trkpt lat="41.760603971779346" lon="0.775282960385084">
        <ele>220.28</ele>
        <time>2025-05-14T08:02:40Z</time>
      </trkpt>
      <trkpt lat="41.762700034305453" lon="0.77759301289916">
        <ele>220.28</ele>
        <time>2025-05-14T08:02:52Z</time>
      </trkpt>
      <trkpt lat="41.76310496404767" lon="0.778267001733184">
        <ele>219.80000000000001</ele>
        <time>2025-05-14T08:02:55Z</time>
      </trkpt>
      <trkpt lat="41.764469034969807" lon="0.781049961224198">
        <ele>219.80000000000001</ele>
        <time>2025-05-14T08:03:07Z</time>
      </trkpt>
      <trkpt lat="41.766015999019146" lon="0.784207005053759">
        <ele>219.80000000000001</ele>
        <time>2025-05-14T08:03:19Z</time>
      </trkpt>
      <trkpt lat="41.767049990594387" lon="0.785955972969532">
        <ele>220.28</ele>
        <time>2025-05-14T08:03:27Z</time>
      </trkpt>
      <trkpt lat="41.768833994865417" lon="0.787803009152412">
        <ele>220.28</ele>
        <time>2025-05-14T08:03:37Z</time>
      </trkpt>
      <trkpt lat="41.7707309871912" lon="0.789514007046819">
        <ele>224.12</ele>
        <time>2025-05-14T08:03:47Z</time>
      </trkpt>
      <trkpt lat="41.772828977555037" lon="0.791459027677774">
        <ele>232.30000000000001</ele>
        <time>2025-05-14T08:03:59Z</time>
      </trkpt>
      <trkpt lat="41.774460012093186" lon="0.792624028399587">
        <ele>237.58000000000001</ele>
        <time>2025-05-14T08:04:07Z</time>
      </trkpt>
      <trkpt lat="41.776104960590601" lon="0.792882023379207">
        <ele>242.87</ele>
        <time>2025-05-14T08:04:14Z</time>
      </trkpt>
      <trkpt lat="41.777606997638941" lon="0.792471980676055">
        <ele>247.19999999999999</ele>
        <time>2025-05-14T08:04:21Z</time>
      </trkpt>
      <trkpt lat="41.779950996860862" lon="0.791309997439384">
        <ele>253.93000000000001</ele>
        <time>2025-05-14T08:04:32Z</time>
      </trkpt>
      <trkpt lat="41.781201995909214" lon="0.790679007768631">
        <ele>257.29000000000002</ele>
        <time>2025-05-14T08:04:38Z</time>
      </trkpt>
      <trkpt lat="41.781397964805365" lon="0.790575994178653">
        <ele>257.76999999999998</ele>
        <time>2025-05-14T08:04:39Z</time>
      </trkpt>
      <trkpt lat="41.782880974933505" lon="0.790056986734271">
        <ele>260.64999999999998</ele>
        <time>2025-05-14T08:04:46Z</time>
      </trkpt>
      <trkpt lat="41.783087002113461" lon="0.790037959814072">
        <ele>261.13999999999999</ele>
        <time>2025-05-14T08:04:47Z</time>
      </trkpt>
      <trkpt lat="41.783281965181231" lon="0.790053969249129">
        <ele>261.13999999999999</ele>
        <time>2025-05-14T08:04:48Z</time>
      </trkpt>
      <trkpt lat="41.783839026466012" lon="0.790222026407719">
        <ele>262.57999999999998</ele>
        <time>2025-05-14T08:04:51Z</time>
      </trkpt>
      <trkpt lat="41.78398797288537" lon="0.790324034169316">
        <ele>263.06</ele>
        <time>2025-05-14T08:04:52Z</time>
      </trkpt>
      <trkpt lat="41.784143960103393" lon="0.790428975597024">
        <ele>263.06</ele>
        <time>2025-05-14T08:04:53Z</time>
      </trkpt>
      <trkpt lat="41.784292990341783" lon="0.790531989187002">
        <ele>263.54000000000002</ele>
        <time>2025-05-14T08:04:54Z</time>
      </trkpt>
      <trkpt lat="41.784428022801876" lon="0.790669033303857">
        <ele>264.01999999999998</ele>
        <time>2025-05-14T08:04:55Z</time>
      </trkpt>
      <trkpt lat="41.784560037776828" lon="0.790810016915202">
        <ele>264.5</ele>
        <time>2025-05-14T08:04:56Z</time>
      </trkpt>
      <trkpt lat="41.784687023609877" lon="0.790945971384645">
        <ele>264.5</ele>
        <time>2025-05-14T08:04:57Z</time>
      </trkpt>
      <trkpt lat="41.785174012184143" lon="0.791477970778942">
        <ele>266.89999999999998</ele>
        <time>2025-05-14T08:05:02Z</time>
      </trkpt>
      <trkpt lat="41.785225979983807" lon="0.79153697937727">
        <ele>267.38</ele>
        <time>2025-05-14T08:05:03Z</time>
      </trkpt>
      <trkpt lat="41.785262022167444" lon="0.791716016829014">
        <ele>267.86000000000001</ele>
        <time>2025-05-14T08:05:04Z</time>
      </trkpt>
      <trkpt lat="41.785227991640568" lon="0.791811989620328">
        <ele>268.35000000000002</ele>
        <time>2025-05-14T08:05:05Z</time>
      </trkpt>
      <trkpt lat="41.785193961113691" lon="0.791936041787267">
        <ele>268.82999999999998</ele>
        <time>2025-05-14T08:05:06Z</time>
      </trkpt>
      <trkpt lat="41.785221034660935" lon="0.792070990428329">
        <ele>269.31</ele>
        <time>2025-05-14T08:05:07Z</time>
      </trkpt>
      <trkpt lat="41.785271996632218" lon="0.792193030938506">
        <ele>269.31</ele>
        <time>2025-05-14T08:05:08Z</time>
      </trkpt>
      <trkpt lat="41.785336034372449" lon="0.792295038700104">
        <ele>269.79000000000002</ele>
        <time>2025-05-14T08:05:09Z</time>
      </trkpt>
      <trkpt lat="41.785423960536718" lon="0.792315993458033">
        <ele>270.26999999999998</ele>
        <time>2025-05-14T08:05:10Z</time>
      </trkpt>
      <trkpt lat="41.785513982176781" lon="0.792329991236329">
        <ele>270.75</ele>
        <time>2025-05-14T08:05:11Z</time>
      </trkpt>
      <trkpt lat="41.785643985494971" lon="0.792454965412617">
        <ele>271.23000000000002</ele>
        <time>2025-05-14T08:05:12Z</time>
      </trkpt>
      <trkpt lat="41.785665024071932" lon="0.792551022022963">
        <ele>271.70999999999998</ele>
        <time>2025-05-14T08:05:13Z</time>
      </trkpt>
      <trkpt lat="41.785686984658241" lon="0.792649006471038">
        <ele>272.19</ele>
        <time>2025-05-14T08:05:14Z</time>
      </trkpt>
      <trkpt lat="41.785712968558073" lon="0.792765012010932">
        <ele>272.67000000000002</ele>
        <time>2025-05-14T08:05:15Z</time>
      </trkpt>
      <trkpt lat="41.785740964114666" lon="0.792896021157503">
        <ele>273.63</ele>
        <time>2025-05-14T08:05:16Z</time>
      </trkpt>
      <trkpt lat="41.78576803766191" lon="0.793023006990552">
        <ele>274.11000000000001</ele>
        <time>2025-05-14T08:05:17Z</time>
      </trkpt>
      <trkpt lat="41.785917989909649" lon="0.793666988611221">
        <ele>276.51999999999998</ele>
        <time>2025-05-14T08:05:23Z</time>
      </trkpt>
      <trkpt lat="41.78587700240314" lon="0.793805038556457">
        <ele>277</ele>
        <time>2025-05-14T08:05:24Z</time>
      </trkpt>
      <trkpt lat="41.78587700240314" lon="0.79392003826797">
        <ele>277.48000000000002</ele>
        <time>2025-05-14T08:05:26Z</time>
      </trkpt>
      <trkpt lat="41.78587700240314" lon="0.793977035209537">
        <ele>277.48000000000002</ele>
        <time>2025-05-14T08:05:27Z</time>
      </trkpt>
      <trkpt lat="41.78600599989295" lon="0.794040989130735">
        <ele>277.48000000000002</ele>
        <time>2025-05-14T08:05:28Z</time>
      </trkpt>
      <trkpt lat="41.786013040691614" lon="0.794082982465625">
        <ele>277.95999999999998</ele>
        <time>2025-05-14T08:05:29Z</time>
      </trkpt>
      <trkpt lat="41.786019997671247" lon="0.794126987457275">
        <ele>277.48000000000002</ele>
        <time>2025-05-14T08:05:30Z</time>
      </trkpt>
      <trkpt lat="41.78602603264153" lon="0.794163029640913">
        <ele>277.95999999999998</ele>
        <time>2025-05-14T08:05:31Z</time>
      </trkpt>
      <trkpt lat="41.78602603264153" lon="0.794163029640913">
        <ele>277.95999999999998</ele>
        <time>2025-05-14T08:05:40Z</time>
      </trkpt>
      <trkpt lat="41.78602603264153" lon="0.794163029640913">
        <ele>277.95999999999998</ele>
        <time>2025-05-14T08:06:12Z</time>
      </trkpt>
      <trkpt lat="41.78602603264153" lon="0.794163029640913">
        <ele>277.95999999999998</ele>
        <time>2025-05-14T08:06:28Z</time>
      </trkpt>
      <trkpt lat="41.78611203096807" lon="0.794495958834887">
        <ele>278.44</ele>
        <time>2025-05-14T08:06:40Z</time>
      </trkpt>
      <trkpt lat="41.786352004855871" lon="0.795546965673566">
        <ele>277.95999999999998</ele>
        <time>2025-05-14T08:06:49Z</time>
      </trkpt>
      <trkpt lat="41.786657022312284" lon="0.797012038528919">
        <ele>275.06999999999999</ele>
        <time>2025-05-14T08:07:01Z</time>
      </trkpt>
      <trkpt lat="41.786658028140664" lon="0.797150004655123">
        <ele>275.06999999999999</ele>
        <time>2025-05-14T08:07:02Z</time>
      </trkpt>
      <trkpt lat="41.786616034805775" lon="0.797275984659791">
        <ele>275.06999999999999</ele>
        <time>2025-05-14T08:07:03Z</time>
      </trkpt>
      <trkpt lat="41.786574041470885" lon="0.797401964664459">
        <ele>274.58999999999997</ele>
        <time>2025-05-14T08:07:04Z</time>
      </trkpt>
      <trkpt lat="41.786507992073894" lon="0.797533979639411">
        <ele>274.58999999999997</ele>
        <time>2025-05-14T08:07:05Z</time>
      </trkpt>
      <trkpt lat="41.786418976262212" lon="0.797632969915867">
        <ele>274.11000000000001</ele>
        <time>2025-05-14T08:07:06Z</time>
      </trkpt>
      <trkpt lat="41.78632702678442" lon="0.797735983505845">
        <ele>273.63</ele>
        <time>2025-05-14T08:07:07Z</time>
      </trkpt>
      <trkpt lat="41.786235999315977" lon="0.797835979610682">
        <ele>272.67000000000002</ele>
        <time>2025-05-14T08:07:08Z</time>
      </trkpt>
      <trkpt lat="41.785291023552418" lon="0.798771986737847">
        <ele>266.89999999999998</ele>
        <time>2025-05-14T08:07:19Z</time>
      </trkpt>
      <trkpt lat="41.785058006644249" lon="0.798823032528162">
        <ele>265.94</ele>
        <time>2025-05-14T08:07:21Z</time>
      </trkpt>
      <trkpt lat="41.784939989447594" lon="0.798843987286091">
        <ele>265.94</ele>
        <time>2025-05-14T08:07:22Z</time>
      </trkpt>
      <trkpt lat="41.784584010019898" lon="0.798909030854702">
        <ele>264.5</ele>
        <time>2025-05-14T08:07:25Z</time>
      </trkpt>
      <trkpt lat="41.784488959237933" lon="0.79897197894752">
        <ele>263.54000000000002</ele>
        <time>2025-05-14T08:07:26Z</time>
      </trkpt>
      <trkpt lat="41.784382006153464" lon="0.79905403777957">
        <ele>263.06</ele>
        <time>2025-05-14T08:07:27Z</time>
      </trkpt>
      <trkpt lat="41.783770965412259" lon="0.799519987776876">
        <ele>259.20999999999998</ele>
        <time>2025-05-14T08:07:33Z</time>
      </trkpt>
      <trkpt lat="41.783682033419609" lon="0.799586959183216">
        <ele>258.25</ele>
        <time>2025-05-14T08:07:34Z</time>
      </trkpt>
      <trkpt lat="41.783637022599578" lon="0.799692990258336">
        <ele>257.29000000000002</ele>
        <time>2025-05-14T08:07:35Z</time>
      </trkpt>
      <trkpt lat="41.78359704092145" lon="0.799819976091385">
        <ele>255.84999999999999</ele>
        <time>2025-05-14T08:07:36Z</time>
      </trkpt>
      <trkpt lat="41.783555969595909" lon="0.799951991066337">
        <ele>254.88999999999999</ele>
        <time>2025-05-14T08:07:37Z</time>
      </trkpt>
      <trkpt lat="41.783545995131135" lon="0.800093980506063">
        <ele>253.93000000000001</ele>
        <time>2025-05-14T08:07:38Z</time>
      </trkpt>
      <trkpt lat="41.783559992909431" lon="0.800242004916072">
        <ele>253.44</ele>
        <time>2025-05-14T08:07:39Z</time>
      </trkpt>
      <trkpt lat="41.78359997458756" lon="0.800391035154462">
        <ele>252.47999999999999</ele>
        <time>2025-05-14T08:07:40Z</time>
      </trkpt>
      <trkpt lat="41.78364004008472" lon="0.80053998157382">
        <ele>251.52000000000001</ele>
        <time>2025-05-14T08:07:41Z</time>
      </trkpt>
      <trkpt lat="41.78370600566268" lon="0.800843993201852">
        <ele>249.59999999999999</ele>
        <time>2025-05-14T08:07:43Z</time>
      </trkpt>
      <trkpt lat="41.783693013712764" lon="0.800987994298339">
        <ele>249.12</ele>
        <time>2025-05-14T08:07:44Z</time>
      </trkpt>
      <trkpt lat="41.783649008721113" lon="0.801115985959768">
        <ele>248.16</ele>
        <time>2025-05-14T08:07:45Z</time>
      </trkpt>
      <trkpt lat="41.783602992072701" lon="0.801208019256592">
        <ele>247.19999999999999</ele>
        <time>2025-05-14T08:07:46Z</time>
      </trkpt>
      <trkpt lat="41.783484974876046" lon="0.80131103284657">
        <ele>245.75</ele>
        <time>2025-05-14T08:07:47Z</time>
      </trkpt>
      <trkpt lat="41.783381039276719" lon="0.801400970667601">
        <ele>244.78999999999999</ele>
        <time>2025-05-14T08:07:48Z</time>
      </trkpt>
      <trkpt lat="41.783272996544838" lon="0.801495015621185">
        <ele>244.31</ele>
        <time>2025-05-14T08:07:49Z</time>
      </trkpt>
      <trkpt lat="41.783167971298099" lon="0.801585959270597">
        <ele>242.87</ele>
        <time>2025-05-14T08:07:50Z</time>
      </trkpt>
      <trkpt lat="41.78308398462832" lon="0.801696013659239">
        <ele>241.43000000000001</ele>
        <time>2025-05-14T08:07:51Z</time>
      </trkpt>
      <trkpt lat="41.783025981858373" lon="0.801830962300301">
        <ele>239.99000000000001</ele>
        <time>2025-05-14T08:07:52Z</time>
      </trkpt>
      <trkpt lat="41.782982982695103" lon="0.801974041387439">
        <ele>238.53999999999999</ele>
        <time>2025-05-14T08:07:53Z</time>
      </trkpt>
      <trkpt lat="41.782995974645019" lon="0.802124999463558">
        <ele>237.09999999999999</ele>
        <time>2025-05-14T08:07:54Z</time>
      </trkpt>
      <trkpt lat="41.783039979636669" lon="0.8022799808532">
        <ele>235.66</ele>
        <time>2025-05-14T08:07:55Z</time>
      </trkpt>
      <trkpt lat="41.783106029033661" lon="0.802423981949687">
        <ele>234.69999999999999</ele>
        <time>2025-05-14T08:07:56Z</time>
      </trkpt>
      <trkpt lat="41.783198984339833" lon="0.802554991096258">
        <ele>233.74000000000001</ele>
        <time>2025-05-14T08:07:57Z</time>
      </trkpt>
      <trkpt lat="41.783280959352851" lon="0.80266697332263">
        <ele>233.25999999999999</ele>
        <time>2025-05-14T08:07:58Z</time>
      </trkpt>
      <trkpt lat="41.783408029004931" lon="0.802779961377382">
        <ele>232.30000000000001</ele>
        <time>2025-05-14T08:07:59Z</time>
      </trkpt>
      <trkpt lat="41.783521017059684" lon="0.802869983017445">
        <ele>231.33000000000001</ele>
        <time>2025-05-14T08:08:00Z</time>
      </trkpt>
      <trkpt lat="41.783635010942817" lon="0.80294600687921">
        <ele>230.37</ele>
        <time>2025-05-14T08:08:01Z</time>
      </trkpt>
      <trkpt lat="41.784212021157146" lon="0.803252030164003">
        <ele>227.97</ele>
        <time>2025-05-14T08:08:07Z</time>
      </trkpt>
      <trkpt lat="41.784301958978176" lon="0.803272984921932">
        <ele>227.97</ele>
        <time>2025-05-14T08:08:08Z</time>
      </trkpt>
      <trkpt lat="41.784969996660948" lon="0.803413968533278">
        <ele>224.61000000000001</ele>
        <time>2025-05-14T08:08:15Z</time>
      </trkpt>
      <trkpt lat="41.785840038210154" lon="0.803647991269827">
        <ele>218.36000000000001</ele>
        <time>2025-05-14T08:08:26Z</time>
      </trkpt>
      <trkpt lat="41.785894017666578" lon="0.803660983219743">
        <ele>217.88</ele>
        <time>2025-05-14T08:08:27Z</time>
      </trkpt>
      <trkpt lat="41.785949002951384" lon="0.803673975169659">
        <ele>217.40000000000001</ele>
        <time>2025-05-14T08:08:28Z</time>
      </trkpt>
      <trkpt lat="41.786003988236189" lon="0.803686967119575">
        <ele>217.40000000000001</ele>
        <time>2025-05-14T08:08:29Z</time>
      </trkpt>
      <trkpt lat="41.786058973520994" lon="0.80369995906949">
        <ele>216.91</ele>
        <time>2025-05-14T08:08:30Z</time>
      </trkpt>
      <trkpt lat="41.786123011261225" lon="0.803832979872823">
        <ele>216.43000000000001</ele>
        <time>2025-05-14T08:08:31Z</time>
      </trkpt>
      <trkpt lat="41.786115970462561" lon="0.803910009562969">
        <ele>215.94999999999999</ele>
        <time>2025-05-14T08:08:32Z</time>
      </trkpt>
      <trkpt lat="41.786102978512645" lon="0.804001959040761">
        <ele>215.47</ele>
        <time>2025-05-14T08:08:33Z</time>
      </trkpt>
      <trkpt lat="41.786010023206472" lon="0.804618028923869">
        <ele>214.03</ele>
        <time>2025-05-14T08:08:42Z</time>
      </trkpt>
      <trkpt lat="41.785989990457892" lon="0.80470503307879">
        <ele>216.43000000000001</ele>
        <time>2025-05-14T08:08:51Z</time>
      </trkpt>
      <trkpt lat="41.78598596714437" lon="0.804633032530546">
        <ele>216.43000000000001</ele>
        <time>2025-05-14T08:08:52Z</time>
      </trkpt>
      <trkpt lat="41.785889994353056" lon="0.804592967033386">
        <ele>216.91</ele>
        <time>2025-05-14T08:08:57Z</time>
      </trkpt>
      <trkpt lat="41.785889994353056" lon="0.804592967033386">
        <ele>217.40000000000001</ele>
        <time>2025-05-14T08:08:58Z</time>
      </trkpt>
      <trkpt lat="41.785889994353056" lon="0.804592967033386">
        <ele>217.40000000000001</ele>
        <time>2025-05-14T08:09:14Z</time>
      </trkpt>
      <trkpt lat="41.785889994353056" lon="0.804592967033386">
        <ele>217.40000000000001</ele>
        <time>2025-05-14T08:09:58Z</time>
      </trkpt>
      <trkpt lat="41.785889994353056" lon="0.804592967033386">
        <ele>217.40000000000001</ele>
        <time>2025-05-14T08:10:56Z</time>
      </trkpt>
      <trkpt lat="41.785889994353056" lon="0.804592967033386">
        <ele>217.40000000000001</ele>
        <time>2025-05-14T08:11:44Z</time>
      </trkpt>
      <trkpt lat="41.785889994353056" lon="0.804592967033386">
        <ele>216.91</ele>
        <time>2025-05-14T08:12:31Z</time>
      </trkpt>
      <trkpt lat="41.785889994353056" lon="0.804592967033386">
        <ele>217.40000000000001</ele>
        <time>2025-05-14T08:13:21Z</time>
      </trkpt>
      <trkpt lat="41.785815982148051" lon="0.804853979498148">
        <ele>223.16</ele>
        <time>2025-05-14T08:51:12Z</time>
      </trkpt>
      <trkpt lat="41.785787986591458" lon="0.804827995598316">
        <ele>228.93000000000001</ele>
        <time>2025-05-14T08:51:54Z</time>
      </trkpt>
      <trkpt lat="41.785792009904981" lon="0.804823972284794">
        <ele>226.05000000000001</ele>
        <time>2025-05-14T08:52:36Z</time>
      </trkpt>
      <trkpt lat="41.78581397049129" lon="0.804806035012007">
        <ele>226.05000000000001</ele>
        <time>2025-05-14T08:52:52Z</time>
      </trkpt>
      <trkpt lat="41.785901980474591" lon="0.80479203723371">
        <ele>224.12</ele>
        <time>2025-05-14T08:53:09Z</time>
      </trkpt>
      <trkpt lat="41.785901980474591" lon="0.80479203723371">
        <ele>224.12</ele>
        <time>2025-05-14T08:53:12Z</time>
      </trkpt>
      <trkpt lat="41.7859429679811" lon="0.804866971448064">
        <ele>222.68000000000001</ele>
        <time>2025-05-14T08:53:17Z</time>
      </trkpt>
      <trkpt lat="41.78589896298945" lon="0.805314984172583">
        <ele>219.31999999999999</ele>
        <time>2025-05-14T08:53:27Z</time>
      </trkpt>
      <trkpt lat="41.785886976867914" lon="0.80541699193418">
        <ele>217.40000000000001</ele>
        <time>2025-05-14T08:53:38Z</time>
      </trkpt>
      <trkpt lat="41.785868033766747" lon="0.805581025779247">
        <ele>215.94999999999999</ele>
        <time>2025-05-14T08:53:48Z</time>
      </trkpt>
      <trkpt lat="41.785865016281605" lon="0.80560801550746">
        <ele>215.94999999999999</ele>
        <time>2025-05-14T08:53:49Z</time>
      </trkpt>
      <trkpt lat="41.785861998796463" lon="0.805638022720814">
        <ele>215.94999999999999</ele>
        <time>2025-05-14T08:53:52Z</time>
      </trkpt>
      <trkpt lat="41.785881025716662" lon="0.805698037147522">
        <ele>215.47</ele>
        <time>2025-05-14T08:53:53Z</time>
      </trkpt>
      <trkpt lat="41.785927964374423" lon="0.805705999955535">
        <ele>214.99000000000001</ele>
        <time>2025-05-14T08:53:54Z</time>
      </trkpt>
      <trkpt lat="41.785981021821499" lon="0.80571698024869">
        <ele>214.50999999999999</ele>
        <time>2025-05-14T08:53:55Z</time>
      </trkpt>
      <trkpt lat="41.786046987399459" lon="0.805728966370225">
        <ele>214.50999999999999</ele>
        <time>2025-05-14T08:53:56Z</time>
      </trkpt>
      <trkpt lat="41.786125022917986" lon="0.805744975805283">
        <ele>214.03</ele>
        <time>2025-05-14T08:53:57Z</time>
      </trkpt>
      <trkpt lat="41.78620096296072" lon="0.805758973583579">
        <ele>214.03</ele>
        <time>2025-05-14T08:53:58Z</time>
      </trkpt>
      <trkpt lat="41.787146022543311" lon="0.805939016863704">
        <ele>214.50999999999999</ele>
        <time>2025-05-14T08:54:10Z</time>
      </trkpt>
      <trkpt lat="41.788104996085167" lon="0.806144960224628">
        <ele>217.40000000000001</ele>
        <time>2025-05-14T08:54:22Z</time>
      </trkpt>
      <trkpt lat="41.788941007107496" lon="0.806330032646656">
        <ele>217.88</ele>
        <time>2025-05-14T08:54:32Z</time>
      </trkpt>
      <trkpt lat="41.789044020697474" lon="0.806354004889727">
        <ele>218.36000000000001</ele>
        <time>2025-05-14T08:54:39Z</time>
      </trkpt>
      <trkpt lat="41.789044020697474" lon="0.806354004889727">
        <ele>218.36000000000001</ele>
        <time>2025-05-14T08:55:30Z</time>
      </trkpt>
      <trkpt lat="41.78912197239697" lon="0.806371020153165">
        <ele>218.84</ele>
        <time>2025-05-14T08:55:49Z</time>
      </trkpt>
      <trkpt lat="41.789349038153887" lon="0.806406978517771">
        <ele>217.40000000000001</ele>
        <time>2025-05-14T08:55:53Z</time>
      </trkpt>
      <trkpt lat="41.789454985409975" lon="0.806422987952828">
        <ele>215.94999999999999</ele>
        <time>2025-05-14T08:56:01Z</time>
      </trkpt>
      <trkpt lat="41.789454985409975" lon="0.806422987952828">
        <ele>215.47</ele>
        <time>2025-05-14T08:56:46Z</time>
      </trkpt>
      <trkpt lat="41.789561016485095" lon="0.806438997387886">
        <ele>214.99000000000001</ele>
        <time>2025-05-14T08:57:30Z</time>
      </trkpt>
      <trkpt lat="41.789675010368228" lon="0.806508986279368">
        <ele>214.99000000000001</ele>
        <time>2025-05-14T08:57:33Z</time>
      </trkpt>
      <trkpt lat="41.789675010368228" lon="0.806530024856329">
        <ele>214.50999999999999</ele>
        <time>2025-05-14T08:57:34Z</time>
      </trkpt>
      <trkpt lat="41.789663024246693" lon="0.806650975719094">
        <ele>214.50999999999999</ele>
        <time>2025-05-14T08:57:35Z</time>
      </trkpt>
      <trkpt lat="41.789567973464727" lon="0.807563010603189">
        <ele>211.63</ele>
        <time>2025-05-14T08:57:46Z</time>
      </trkpt>
      <trkpt lat="41.789536960422993" lon="0.807854030281305">
        <ele>209.69999999999999</ele>
        <time>2025-05-14T08:57:51Z</time>
      </trkpt>
      <trkpt lat="41.789517011493444" lon="0.80790800973773">
        <ele>209.22</ele>
        <time>2025-05-14T08:57:52Z</time>
      </trkpt>
      <trkpt lat="41.789448028430343" lon="0.807939022779465">
        <ele>208.74000000000001</ele>
        <time>2025-05-14T08:57:53Z</time>
      </trkpt>
      <trkpt lat="41.789405029267073" lon="0.807915972545743">
        <ele>208.25999999999999</ele>
        <time>2025-05-14T08:57:54Z</time>
      </trkpt>
      <trkpt lat="41.789359012618661" lon="0.807890994474292">
        <ele>208.25999999999999</ele>
        <time>2025-05-14T08:57:55Z</time>
      </trkpt>
      <trkpt lat="41.789307966828346" lon="0.807864004746079">
        <ele>207.78</ele>
        <time>2025-05-14T08:57:56Z</time>
      </trkpt>
      <trkpt lat="41.78869198076427" lon="0.807695025578141">
        <ele>205.86000000000001</ele>
        <time>2025-05-14T08:58:07Z</time>
      </trkpt>
      <trkpt lat="41.788567006587982" lon="0.807669041678309">
        <ele>205.86000000000001</ele>
        <time>2025-05-14T08:58:09Z</time>
      </trkpt>
      <trkpt lat="41.788524007424712" lon="0.807659989222884">
        <ele>205.86000000000001</ele>
        <time>2025-05-14T08:58:10Z</time>
      </trkpt>
      <trkpt lat="41.788452006876469" lon="0.807644985616207">
        <ele>205.86000000000001</ele>
        <time>2025-05-14T08:58:11Z</time>
      </trkpt>
      <trkpt lat="41.788383023813367" lon="0.8076729811728">
        <ele>205.86000000000001</ele>
        <time>2025-05-14T08:58:12Z</time>
      </trkpt>
      <trkpt lat="41.788302976638079" lon="0.807729978114367">
        <ele>206.34</ele>
        <time>2025-05-14T08:58:13Z</time>
      </trkpt>
      <trkpt lat="41.788238016888499" lon="0.807793010026217">
        <ele>206.81999999999999</ele>
        <time>2025-05-14T08:58:14Z</time>
      </trkpt>
      <trkpt lat="41.788178002461791" lon="0.807845983654261">
        <ele>207.30000000000001</ele>
        <time>2025-05-14T08:58:15Z</time>
      </trkpt>
      <trkpt lat="41.788066020235419" lon="0.807945979759097">
        <ele>207.30000000000001</ele>
        <time>2025-05-14T08:58:17Z</time>
      </trkpt>
      <trkpt lat="41.787937022745609" lon="0.808010017499328">
        <ele>207.30000000000001</ele>
        <time>2025-05-14T08:58:20Z</time>
      </trkpt>
      <trkpt lat="41.787753961980343" lon="0.807971963658929">
        <ele>207.78</ele>
        <time>2025-05-14T08:58:23Z</time>
      </trkpt>
      <trkpt lat="41.787686990574002" lon="0.807957965880632">
        <ele>208.25999999999999</ele>
        <time>2025-05-14T08:58:24Z</time>
      </trkpt>
      <trkpt lat="41.787619013339281" lon="0.807942962273955">
        <ele>208.25999999999999</ele>
        <time>2025-05-14T08:58:25Z</time>
      </trkpt>
      <trkpt lat="41.787346014752984" lon="0.807879008352757">
        <ele>209.69999999999999</ele>
        <time>2025-05-14T08:58:29Z</time>
      </trkpt>
      <trkpt lat="41.786711001768708" lon="0.807744981721044">
        <ele>209.69999999999999</ele>
        <time>2025-05-14T08:58:38Z</time>
      </trkpt>
      <trkpt lat="41.786636989563704" lon="0.807728972285986">
        <ele>209.69999999999999</ele>
        <time>2025-05-14T08:58:39Z</time>
      </trkpt>
      <trkpt lat="41.786415036767721" lon="0.807682033628225">
        <ele>209.22</ele>
        <time>2025-05-14T08:58:42Z</time>
      </trkpt>
      <trkpt lat="41.785633005201817" lon="0.807526968419552">
        <ele>208.25999999999999</ele>
        <time>2025-05-14T08:58:52Z</time>
      </trkpt>
      <trkpt lat="41.78557600826025" lon="0.807516993954778">
        <ele>208.25999999999999</ele>
        <time>2025-05-14T08:58:53Z</time>
      </trkpt>
      <trkpt lat="41.785518005490303" lon="0.807498972862959">
        <ele>208.25999999999999</ele>
        <time>2025-05-14T08:58:54Z</time>
      </trkpt>
      <trkpt lat="41.784782996401191" lon="0.807288000360131">
        <ele>208.25999999999999</ele>
        <time>2025-05-14T08:59:03Z</time>
      </trkpt>
      <trkpt lat="41.78424303419888" lon="0.807130001485348">
        <ele>207.78</ele>
        <time>2025-05-14T08:59:08Z</time>
      </trkpt>
      <trkpt lat="41.784022003412247" lon="0.807130001485348">
        <ele>207.78</ele>
        <time>2025-05-14T08:59:10Z</time>
      </trkpt>
      <trkpt lat="41.78389904089272" lon="0.807130001485348">
        <ele>207.30000000000001</ele>
        <time>2025-05-14T08:59:11Z</time>
      </trkpt>
      <trkpt lat="41.783781023696065" lon="0.807180963456631">
        <ele>207.30000000000001</ele>
        <time>2025-05-14T08:59:12Z</time>
      </trkpt>
      <trkpt lat="41.783669963479042" lon="0.807251036167145">
        <ele>207.78</ele>
        <time>2025-05-14T08:59:13Z</time>
      </trkpt>
      <trkpt lat="41.783583965152502" lon="0.807351032271981">
        <ele>208.25999999999999</ele>
        <time>2025-05-14T08:59:14Z</time>
      </trkpt>
      <trkpt lat="41.783533003181219" lon="0.807486986741424">
        <ele>208.74000000000001</ele>
        <time>2025-05-14T08:59:15Z</time>
      </trkpt>
      <trkpt lat="41.783516993746161" lon="0.807639034464955">
        <ele>209.22</ele>
        <time>2025-05-14T08:59:16Z</time>
      </trkpt>
      <trkpt lat="41.783564016222954" lon="0.807768031954765">
        <ele>210.19</ele>
        <time>2025-05-14T08:59:17Z</time>
      </trkpt>
      <trkpt lat="41.783608021214604" lon="0.807883031666279">
        <ele>210.66999999999999</ele>
        <time>2025-05-14T08:59:18Z</time>
      </trkpt>
      <trkpt lat="41.783654037863016" lon="0.807959977537394">
        <ele>211.63</ele>
        <time>2025-05-14T08:59:19Z</time>
      </trkpt>
      <trkpt lat="41.783713968470693" lon="0.808031978085637">
        <ele>212.59</ele>
        <time>2025-05-14T08:59:20Z</time>
      </trkpt>
      <trkpt lat="41.783782029524446" lon="0.808110013604164">
        <ele>213.06999999999999</ele>
        <time>2025-05-14T08:59:21Z</time>
      </trkpt>
      <trkpt lat="41.784012028947473" lon="0.808398015797138">
        <ele>214.03</ele>
        <time>2025-05-14T08:59:24Z</time>
      </trkpt>
      <trkpt lat="41.78409299813211" lon="0.808506980538368">
        <ele>214.50999999999999</ele>
        <time>2025-05-14T08:59:25Z</time>
      </trkpt>
      <trkpt lat="41.784149995073676" lon="0.808629021048546">
        <ele>214.99000000000001</ele>
        <time>2025-05-14T08:59:26Z</time>
      </trkpt>
      <trkpt lat="41.784181008115411" lon="0.808793976902962">
        <ele>215.47</ele>
        <time>2025-05-14T08:59:27Z</time>
      </trkpt>
      <trkpt lat="41.784214032813907" lon="0.808969996869564">
        <ele>215.94999999999999</ele>
        <time>2025-05-14T08:59:28Z</time>
      </trkpt>
      <trkpt lat="41.78424596786499" lon="0.809174012392759">
        <ele>215.94999999999999</ele>
        <time>2025-05-14T08:59:29Z</time>
      </trkpt>
      <trkpt lat="41.78409400396049" lon="0.811107968911529">
        <ele>215.47</ele>
        <time>2025-05-14T08:59:37Z</time>
      </trkpt>
      <trkpt lat="41.783788986504078" lon="0.814710007980466">
        <ele>220.28</ele>
        <time>2025-05-14T08:59:50Z</time>
      </trkpt>
      <trkpt lat="41.783390007913113" lon="0.817529009655118">
        <ele>228.93000000000001</ele>
        <time>2025-05-14T09:00:01Z</time>
      </trkpt>
      <trkpt lat="41.78321298211813" lon="0.820682030171156">
        <ele>236.13999999999999</ele>
        <time>2025-05-14T09:00:13Z</time>
      </trkpt>
      <trkpt lat="41.783065041527152" lon="0.823375973850489">
        <ele>243.83000000000001</ele>
        <time>2025-05-14T09:00:23Z</time>
      </trkpt>
      <trkpt lat="41.782966973260045" lon="0.826346017420292">
        <ele>246.22999999999999</ele>
        <time>2025-05-14T09:00:34Z</time>
      </trkpt>
      <trkpt lat="41.782918022945523" lon="0.827371040359139">
        <ele>247.19999999999999</ele>
        <time>2025-05-14T09:00:40Z</time>
      </trkpt>
      <trkpt lat="41.78291299380362" lon="0.827451003715396">
        <ele>247.19999999999999</ele>
        <time>2025-05-14T09:00:41Z</time>
      </trkpt>
      <trkpt lat="41.783017013221979" lon="0.827426025643945">
        <ele>246.72</ele>
        <time>2025-05-14T09:00:42Z</time>
      </trkpt>
      <trkpt lat="41.783099994063377" lon="0.827441029250622">
        <ele>246.22999999999999</ele>
        <time>2025-05-14T09:00:43Z</time>
      </trkpt>
      <trkpt lat="41.783200995996594" lon="0.827459972351789">
        <ele>245.75</ele>
        <time>2025-05-14T09:00:44Z</time>
      </trkpt>
      <trkpt lat="41.78331901319325" lon="0.827484028413892">
        <ele>245.27000000000001</ele>
        <time>2025-05-14T09:00:45Z</time>
      </trkpt>
      <trkpt lat="41.783451028168201" lon="0.827510012313724">
        <ele>244.78999999999999</ele>
        <time>2025-05-14T09:00:46Z</time>
      </trkpt>
      <trkpt lat="41.783583965152502" lon="0.827534990385175">
        <ele>243.83000000000001</ele>
        <time>2025-05-14T09:00:47Z</time>
      </trkpt>
      <trkpt lat="41.783714974299073" lon="0.827476987615228">
        <ele>243.34999999999999</ele>
        <time>2025-05-14T09:00:48Z</time>
      </trkpt>
      <trkpt lat="41.783817987889051" lon="0.827401969581842">
        <ele>242.87</ele>
        <time>2025-05-14T09:00:49Z</time>
      </trkpt>
      <trkpt lat="41.783897029235959" lon="0.827314965426922">
        <ele>241.91</ele>
        <time>2025-05-14T09:00:50Z</time>
      </trkpt>
      <trkpt lat="41.783968023955822" lon="0.827236007899046">
        <ele>240.94999999999999</ele>
        <time>2025-05-14T09:00:51Z</time>
      </trkpt>
      <trkpt lat="41.784023009240627" lon="0.827172975987196">
        <ele>240.47</ele>
        <time>2025-05-14T09:00:52Z</time>
      </trkpt>
      <trkpt lat="41.78407296538353" lon="0.827114973217249">
        <ele>239.99000000000001</ele>
        <time>2025-05-14T09:00:53Z</time>
      </trkpt>
      <trkpt lat="41.784130968153477" lon="0.827056970447302">
        <ele>239.50999999999999</ele>
        <time>2025-05-14T09:00:54Z</time>
      </trkpt>
      <trkpt lat="41.784194000065327" lon="0.827021012082696">
        <ele>239.50999999999999</ele>
        <time>2025-05-14T09:00:55Z</time>
      </trkpt>
      <trkpt lat="41.784271029755473" lon="0.826970972120762">
        <ele>239.50999999999999</ele>
        <time>2025-05-14T09:00:56Z</time>
      </trkpt>
      <trkpt lat="41.784306988120079" lon="0.826881034299731">
        <ele>239.50999999999999</ele>
        <time>2025-05-14T09:00:57Z</time>
      </trkpt>
      <trkpt lat="41.784389968961477" lon="0.826853038743138">
        <ele>239.02000000000001</ele>
        <time>2025-05-14T09:00:58Z</time>
      </trkpt>
      <trkpt lat="41.784489965066314" lon="0.826828982681036">
        <ele>239.02000000000001</ele>
        <time>2025-05-14T09:00:59Z</time>
      </trkpt>
      <trkpt lat="41.784594990313053" lon="0.826804004609585">
        <ele>238.53999999999999</ele>
        <time>2025-05-14T09:01:00Z</time>
      </trkpt>
      <trkpt lat="41.784725999459624" lon="0.826821019873023">
        <ele>238.53999999999999</ele>
        <time>2025-05-14T09:01:01Z</time>
      </trkpt>
      <trkpt lat="41.784843010827899" lon="0.82690198905766">
        <ele>238.53999999999999</ele>
        <time>2025-05-14T09:01:02Z</time>
      </trkpt>
      <trkpt lat="41.786039024591446" lon="0.827683014795184">
        <ele>239.99000000000001</ele>
        <time>2025-05-14T09:01:12Z</time>
      </trkpt>
      <trkpt lat="41.786116976290941" lon="0.827784016728401">
        <ele>239.99000000000001</ele>
        <time>2025-05-14T09:01:13Z</time>
      </trkpt>
      <trkpt lat="41.786187971010804" lon="0.827874960377812">
        <ele>239.99000000000001</ele>
        <time>2025-05-14T09:01:14Z</time>
      </trkpt>
      <trkpt lat="41.786292996257544" lon="0.828075036406517">
        <ele>240.47</ele>
        <time>2025-05-14T09:01:16Z</time>
      </trkpt>
      <trkpt lat="41.786359967663884" lon="0.828129015862942">
        <ele>240.47</ele>
        <time>2025-05-14T09:01:17Z</time>
      </trkpt>
      <trkpt lat="41.786432974040508" lon="0.828158017247915">
        <ele>240.47</ele>
        <time>2025-05-14T09:01:18Z</time>
      </trkpt>
      <trkpt lat="41.786520984023809" lon="0.828159023076296">
        <ele>240.94999999999999</ele>
        <time>2025-05-14T09:01:19Z</time>
      </trkpt>
      <trkpt lat="41.786599019542336" lon="0.828185006976128">
        <ele>240.94999999999999</ele>
        <time>2025-05-14T09:01:20Z</time>
      </trkpt>
      <trkpt lat="41.78669398650527" lon="0.828217025846243">
        <ele>240.94999999999999</ele>
        <time>2025-05-14T09:01:21Z</time>
      </trkpt>
      <trkpt lat="41.786792976781726" lon="0.828276034444571">
        <ele>240.94999999999999</ele>
        <time>2025-05-14T09:01:22Z</time>
      </trkpt>
      <trkpt lat="41.786906970664859" lon="0.828351974487305">
        <ele>240.94999999999999</ele>
        <time>2025-05-14T09:01:23Z</time>
      </trkpt>
      <trkpt lat="41.786993974819779" lon="0.828437972813845">
        <ele>241.43000000000001</ele>
        <time>2025-05-14T09:01:24Z</time>
      </trkpt>
      <trkpt lat="41.78779000416398" lon="0.829298961907625">
        <ele>242.38999999999999</ele>
        <time>2025-05-14T09:01:34Z</time>
      </trkpt>
      <trkpt lat="41.788290990516543" lon="0.829769019037485">
        <ele>243.34999999999999</ele>
        <time>2025-05-14T09:01:46Z</time>
      </trkpt>
      <trkpt lat="41.788494000211358" lon="0.829959958791733">
        <ele>243.83000000000001</ele>
        <time>2025-05-14T09:01:55Z</time>
      </trkpt>
      <trkpt lat="41.788494000211358" lon="0.829959958791733">
        <ele>243.83000000000001</ele>
        <time>2025-05-14T09:02:37Z</time>
      </trkpt>
      <trkpt lat="41.788593996316195" lon="0.83006096072495">
        <ele>243.83000000000001</ele>
        <time>2025-05-14T09:02:40Z</time>
      </trkpt>
      <trkpt lat="41.789081990718842" lon="0.830540992319584">
        <ele>243.34999999999999</ele>
        <time>2025-05-14T09:02:45Z</time>
      </trkpt>
      <trkpt lat="41.790241962298751" lon="0.831682020798326">
        <ele>241.91</ele>
        <time>2025-05-14T09:02:52Z</time>
      </trkpt>
      <trkpt lat="41.792586967349052" lon="0.83405502140522">
        <ele>243.34999999999999</ele>
        <time>2025-05-14T09:03:05Z</time>
      </trkpt>
      <trkpt lat="41.794064026325941" lon="0.835883030667901">
        <ele>247.68000000000001</ele>
        <time>2025-05-14T09:03:14Z</time>
      </trkpt>
      <trkpt lat="41.79646803997457" lon="0.839021969586611">
        <ele>265.94</ele>
        <time>2025-05-14T09:03:29Z</time>
      </trkpt>
      <trkpt lat="41.797802019864321" lon="0.840669013559818">
        <ele>267.38</ele>
        <time>2025-05-14T09:03:37Z</time>
      </trkpt>
      <trkpt lat="41.79799203760922" lon="0.840832041576505">
        <ele>266.89999999999998</ele>
        <time>2025-05-14T09:03:38Z</time>
      </trkpt>
      <trkpt lat="41.800025990232825" lon="0.842008022591472">
        <ele>256.32999999999998</ele>
        <time>2025-05-14T09:03:48Z</time>
      </trkpt>
      <trkpt lat="41.800774997100234" lon="0.84236903116107">
        <ele>249.59999999999999</ele>
        <time>2025-05-14T09:03:54Z</time>
      </trkpt>
      <trkpt lat="41.800965014845133" lon="0.842546978965402">
        <ele>247.19999999999999</ele>
        <time>2025-05-14T09:03:56Z</time>
      </trkpt>
      <trkpt lat="41.801056964322925" lon="0.842633983120322">
        <ele>246.22999999999999</ele>
        <time>2025-05-14T09:03:57Z</time>
      </trkpt>
      <trkpt lat="41.801141034811735" lon="0.842732973396778">
        <ele>245.75</ele>
        <time>2025-05-14T09:03:58Z</time>
      </trkpt>
      <trkpt lat="41.801212029531598" lon="0.842847973108292">
        <ele>244.78999999999999</ele>
        <time>2025-05-14T09:03:59Z</time>
      </trkpt>
      <trkpt lat="41.801288975402713" lon="0.842977976426482">
        <ele>244.31</ele>
        <time>2025-05-14T09:04:00Z</time>
      </trkpt>
      <trkpt lat="41.801351001486182" lon="0.843139998614788">
        <ele>243.34999999999999</ele>
        <time>2025-05-14T09:04:01Z</time>
      </trkpt>
      <trkpt lat="41.801851987838745" lon="0.844608005136251">
        <ele>239.02000000000001</ele>
        <time>2025-05-14T09:04:08Z</time>
      </trkpt>
      <trkpt lat="41.802021972835064" lon="0.845016958191991">
        <ele>238.53999999999999</ele>
        <time>2025-05-14T09:04:10Z</time>
      </trkpt>
      <trkpt lat="41.802134960889816" lon="0.845189038664103">
        <ele>238.06</ele>
        <time>2025-05-14T09:04:11Z</time>
      </trkpt>
      <trkpt lat="41.80227099917829" lon="0.845322981476784">
        <ele>238.06</ele>
        <time>2025-05-14T09:04:12Z</time>
      </trkpt>
      <trkpt lat="41.802418017759919" lon="0.845430018380284">
        <ele>238.53999999999999</ele>
        <time>2025-05-14T09:04:13Z</time>
      </trkpt>
      <trkpt lat="41.802578028291464" lon="0.845490032806993">
        <ele>238.53999999999999</ele>
        <time>2025-05-14T09:04:14Z</time>
      </trkpt>
      <trkpt lat="41.802738960832357" lon="0.84554904140532">
        <ele>238.53999999999999</ele>
        <time>2025-05-14T09:04:15Z</time>
      </trkpt>
      <trkpt lat="41.802905006334186" lon="0.845592962577939">
        <ele>238.53999999999999</ele>
        <time>2025-05-14T09:04:16Z</time>
      </trkpt>
      <trkpt lat="41.803080020472407" lon="0.8455949742347">
        <ele>238.53999999999999</ele>
        <time>2025-05-14T09:04:17Z</time>
      </trkpt>
      <trkpt lat="41.803256962448359" lon="0.845579970628023">
        <ele>238.53999999999999</ele>
        <time>2025-05-14T09:04:18Z</time>
      </trkpt>
      <trkpt lat="41.804162040352821" lon="0.845521967858076">
        <ele>238.06</ele>
        <time>2025-05-14T09:04:23Z</time>
      </trkpt>
      <trkpt lat="41.804338982328773" lon="0.845547029748559">
        <ele>237.58000000000001</ele>
        <time>2025-05-14T09:04:24Z</time>
      </trkpt>
      <trkpt lat="41.804510978981853" lon="0.845621963962913">
        <ele>237.58000000000001</ele>
        <time>2025-05-14T09:04:25Z</time>
      </trkpt>
      <trkpt lat="41.804652968421578" lon="0.845754984766245">
        <ele>238.06</ele>
        <time>2025-05-14T09:04:26Z</time>
      </trkpt>
      <trkpt lat="41.804780038073659" lon="0.845902003347874">
        <ele>238.06</ele>
        <time>2025-05-14T09:04:27Z</time>
      </trkpt>
      <trkpt lat="41.804868970066309" lon="0.846080034971237">
        <ele>238.06</ele>
        <time>2025-05-14T09:04:28Z</time>
      </trkpt>
      <trkpt lat="41.804954968392849" lon="0.846251025795937">
        <ele>238.53999999999999</ele>
        <time>2025-05-14T09:04:29Z</time>
      </trkpt>
      <trkpt lat="41.805035015568137" lon="0.846411036327481">
        <ele>238.53999999999999</ele>
        <time>2025-05-14T09:04:30Z</time>
      </trkpt>
      <trkpt lat="41.805754015222192" lon="0.847917012870312">
        <ele>240.47</ele>
        <time>2025-05-14T09:04:39Z</time>
      </trkpt>
      <trkpt lat="41.806980958208442" lon="0.850668037310243">
        <ele>243.83000000000001</ele>
        <time>2025-05-14T09:04:52Z</time>
      </trkpt>
      <trkpt lat="41.808223994448781" lon="0.854193968698382">
        <ele>244.78999999999999</ele>
        <time>2025-05-14T09:05:05Z</time>
      </trkpt>
      <trkpt lat="41.808467991650105" lon="0.855030985549092">
        <ele>245.27000000000001</ele>
        <time>2025-05-14T09:05:08Z</time>
      </trkpt>
      <trkpt lat="41.808511996641755" lon="0.855323011055589">
        <ele>245.75</ele>
        <time>2025-05-14T09:05:09Z</time>
      </trkpt>
      <trkpt lat="41.808829000219703" lon="0.858624977990985">
        <ele>242.38999999999999</ele>
        <time>2025-05-14T09:05:20Z</time>
      </trkpt>
      <trkpt lat="41.809491002932191" lon="0.861123958602548">
        <ele>240.94999999999999</ele>
        <time>2025-05-14T09:05:29Z</time>
      </trkpt>
      <trkpt lat="41.80985301733017" lon="0.862345034256577">
        <ele>241.91</ele>
        <time>2025-05-14T09:05:35Z</time>
      </trkpt>
      <trkpt lat="41.810657009482384" lon="0.8651880081743">
        <ele>243.83000000000001</ele>
        <time>2025-05-14T09:05:48Z</time>
      </trkpt>
      <trkpt lat="41.811610031872988" lon="0.868782000616193">
        <ele>249.59999999999999</ele>
        <time>2025-05-14T09:06:04Z</time>
      </trkpt>
      <trkpt lat="41.811767024919391" lon="0.870727021247149">
        <ele>256.81</ele>
        <time>2025-05-14T09:06:12Z</time>
      </trkpt>
      <trkpt lat="41.811856962740421" lon="0.873113013803959">
        <ele>260.17000000000002</ele>
        <time>2025-05-14T09:06:24Z</time>
      </trkpt>
      <trkpt lat="41.81187397800386" lon="0.873500006273389">
        <ele>261.62</ele>
        <time>2025-05-14T09:06:31Z</time>
      </trkpt>
      <trkpt lat="41.81187397800386" lon="0.873500006273389">
        <ele>261.62</ele>
        <time>2025-05-14T09:07:15Z</time>
      </trkpt>
      <trkpt lat="41.811875989660621" lon="0.873558009043336">
        <ele>261.62</ele>
        <time>2025-05-14T09:08:08Z</time>
      </trkpt>
      <trkpt lat="41.811914965510368" lon="0.874210959300399">
        <ele>261.13999999999999</ele>
        <time>2025-05-14T09:08:14Z</time>
      </trkpt>
      <trkpt lat="41.812082016840577" lon="0.875353999435902">
        <ele>262.10000000000002</ele>
        <time>2025-05-14T09:08:20Z</time>
      </trkpt>
      <trkpt lat="41.812147982418537" lon="0.875562960281968">
        <ele>262.10000000000002</ele>
        <time>2025-05-14T09:08:21Z</time>
      </trkpt>
      <trkpt lat="41.81299296207726" lon="0.877460036426783">
        <ele>261.13999999999999</ele>
        <time>2025-05-14T09:08:30Z</time>
      </trkpt>
      <trkpt lat="41.814276985824108" lon="0.880106035619974">
        <ele>260.64999999999998</ele>
        <time>2025-05-14T09:08:42Z</time>
      </trkpt>
      <trkpt lat="41.815691012889147" lon="0.883180014789104">
        <ele>260.64999999999998</ele>
        <time>2025-05-14T09:08:55Z</time>
      </trkpt>
      <trkpt lat="41.816267017275095" lon="0.885497024282813">
        <ele>262.57999999999998</ele>
        <time>2025-05-14T09:09:04Z</time>
      </trkpt>
      <trkpt lat="41.8170300219208" lon="0.888454997912049">
        <ele>267.38</ele>
        <time>2025-05-14T09:09:15Z</time>
      </trkpt>
      <trkpt lat="41.818064013496041" lon="0.889924010261893">
        <ele>270.26999999999998</ele>
        <time>2025-05-14T09:09:22Z</time>
      </trkpt>
      <trkpt lat="41.820759968832135" lon="0.893241986632347">
        <ele>277.48000000000002</ele>
        <time>2025-05-14T09:09:39Z</time>
      </trkpt>
      <trkpt lat="41.821926981210709" lon="0.895294966176152">
        <ele>281.31999999999999</ele>
        <time>2025-05-14T09:09:48Z</time>
      </trkpt>
      <trkpt lat="41.823461959138513" lon="0.897317016497254">
        <ele>286.13</ele>
        <time>2025-05-14T09:09:58Z</time>
      </trkpt>
      <trkpt lat="41.824995009228587" lon="0.899312999099493">
        <ele>291.42000000000002</ele>
        <time>2025-05-14T09:10:08Z</time>
      </trkpt>
      <trkpt lat="41.826150035485625" lon="0.901738973334432">
        <ele>301.50999999999999</ele>
        <time>2025-05-14T09:10:18Z</time>
      </trkpt>
      <trkpt lat="41.828172001987696" lon="0.906161013990641">
        <ele>321.69999999999999</ele>
        <time>2025-05-14T09:10:36Z</time>
      </trkpt>
      <trkpt lat="41.829590974375606" lon="0.909085040912032">
        <ele>328.91000000000003</ele>
        <time>2025-05-14T09:10:48Z</time>
      </trkpt>
      <trkpt lat="41.830856977030635" lon="0.910667963325977">
        <ele>323.62</ele>
        <time>2025-05-14T09:10:56Z</time>
      </trkpt>
      <trkpt lat="41.832306962460279" lon="0.912379967048764">
        <ele>314.49000000000001</ele>
        <time>2025-05-14T09:11:05Z</time>
      </trkpt>
      <trkpt lat="41.834728997200727" lon="0.915200980380178">
        <ele>314.49000000000001</ele>
        <time>2025-05-14T09:11:20Z</time>
      </trkpt>
      <trkpt lat="41.835643965750933" lon="0.916781974956393">
        <ele>319.77999999999997</ele>
        <time>2025-05-14T09:11:27Z</time>
      </trkpt>
      <trkpt lat="41.836419040337205" lon="0.919479019939899">
        <ele>326.5</ele>
        <time>2025-05-14T09:11:37Z</time>
      </trkpt>
      <trkpt lat="41.837238958105445" lon="0.921816984191537">
        <ele>330.82999999999998</ele>
        <time>2025-05-14T09:11:46Z</time>
      </trkpt>
      <trkpt lat="41.838931012898684" lon="0.924789039418101">
        <ele>339.95999999999998</ele>
        <time>2025-05-14T09:11:59Z</time>
      </trkpt>
      <trkpt lat="41.840616026893258" lon="0.927781965583563">
        <ele>350.54000000000002</ele>
        <time>2025-05-14T09:12:12Z</time>
      </trkpt>
      <trkpt lat="41.843205029144883" lon="0.932379020377994">
        <ele>364.48000000000002</ele>
        <time>2025-05-14T09:12:32Z</time>
      </trkpt>
      <trkpt lat="41.845105038955808" lon="0.935866981744766">
        <ele>377.44999999999999</ele>
        <time>2025-05-14T09:12:47Z</time>
      </trkpt>
      <trkpt lat="41.845508040860295" lon="0.937489969655871">
        <ele>382.74000000000001</ele>
        <time>2025-05-14T09:12:53Z</time>
      </trkpt>
      <trkpt lat="41.845496976748109" lon="0.940105961635709">
        <ele>386.11000000000001</ele>
        <time>2025-05-14T09:13:02Z</time>
      </trkpt>
      <trkpt lat="41.845677020028234" lon="0.942659005522728">
        <ele>387.55000000000001</ele>
        <time>2025-05-14T09:13:11Z</time>
      </trkpt>
      <trkpt lat="41.846757028251886" lon="0.946414014324546">
        <ele>393.31999999999999</ele>
        <time>2025-05-14T09:13:25Z</time>
      </trkpt>
      <trkpt lat="41.847354993224144" lon="0.948234982788563">
        <ele>398.60000000000002</ele>
        <time>2025-05-14T09:13:32Z</time>
      </trkpt>
      <trkpt lat="41.847457000985742" lon="0.948478979989886">
        <ele>399.56999999999999</ele>
        <time>2025-05-14T09:13:33Z</time>
      </trkpt>
      <trkpt lat="41.847576024010777" lon="0.948719959706068">
        <ele>401.00999999999999</ele>
        <time>2025-05-14T09:13:34Z</time>
      </trkpt>
      <trkpt lat="41.847746009007096" lon="0.948900002986193">
        <ele>402.44999999999999</ele>
        <time>2025-05-14T09:13:35Z</time>
      </trkpt>
      <trkpt lat="41.847920017316937" lon="0.94906403683126">
        <ele>403.88999999999999</ele>
        <time>2025-05-14T09:13:36Z</time>
      </trkpt>
      <trkpt lat="41.848104000091553" lon="0.949206026270986">
        <ele>405.32999999999998</ele>
        <time>2025-05-14T09:13:37Z</time>
      </trkpt>
      <trkpt lat="41.848294017836452" lon="0.949327982962132">
        <ele>406.76999999999998</ele>
        <time>2025-05-14T09:13:38Z</time>
      </trkpt>
      <trkpt lat="41.848499039188027" lon="0.949427979066968">
        <ele>408.69999999999999</ele>
        <time>2025-05-14T09:13:39Z</time>
      </trkpt>
      <trkpt lat="41.848705988377333" lon="0.949464021250606">
        <ele>410.13999999999999</ele>
        <time>2025-05-14T09:13:40Z</time>
      </trkpt>
      <trkpt lat="41.848918972536922" lon="0.949499979615211">
        <ele>412.06</ele>
        <time>2025-05-14T09:13:41Z</time>
      </trkpt>
      <trkpt lat="41.850840020924807" lon="0.949760992079973">
        <ele>427.92000000000002</ele>
        <time>2025-05-14T09:13:50Z</time>
      </trkpt>
      <trkpt lat="41.851818021386862" lon="0.95033397898078">
        <ele>436.57999999999998</ele>
        <time>2025-05-14T09:13:55Z</time>
      </trkpt>
      <trkpt lat="41.851988006383181" lon="0.950504969805479">
        <ele>438.5</ele>
        <time>2025-05-14T09:13:56Z</time>
      </trkpt>
      <trkpt lat="41.852149022743106" lon="0.950690964236856">
        <ele>439.94</ele>
        <time>2025-05-14T09:13:57Z</time>
      </trkpt>
      <trkpt lat="41.852279026061296" lon="0.95091300085187">
        <ele>441.86000000000001</ele>
        <time>2025-05-14T09:13:58Z</time>
      </trkpt>
      <trkpt lat="41.852407017722726" lon="0.951138976961374">
        <ele>443.31</ele>
        <time>2025-05-14T09:13:59Z</time>
      </trkpt>
      <trkpt lat="41.852536015212536" lon="0.951365036889911">
        <ele>444.75</ele>
        <time>2025-05-14T09:14:00Z</time>
      </trkpt>
      <trkpt lat="41.852646991610527" lon="0.951606016606092">
        <ele>445.70999999999998</ele>
        <time>2025-05-14T09:14:01Z</time>
      </trkpt>
      <trkpt lat="41.852733995765448" lon="0.951867029070854">
        <ele>447.14999999999998</ele>
        <time>2025-05-14T09:14:02Z</time>
      </trkpt>
      <trkpt lat="41.852800967171788" lon="0.952129969373345">
        <ele>448.11000000000001</ele>
        <time>2025-05-14T09:14:03Z</time>
      </trkpt>
      <trkpt lat="41.853138003498316" lon="0.953641980886459">
        <ele>456.27999999999997</ele>
        <time>2025-05-14T09:14:10Z</time>
      </trkpt>
      <trkpt lat="41.853192988783121" lon="0.953998966142535">
        <ele>458.20999999999998</ele>
        <time>2025-05-14T09:14:12Z</time>
      </trkpt>
      <trkpt lat="41.85321100987494" lon="0.954174986109138">
        <ele>459.17000000000002</ele>
        <time>2025-05-14T09:14:13Z</time>
      </trkpt>
      <trkpt lat="41.85321100987494" lon="0.955111999064684">
        <ele>463.97000000000003</ele>
        <time>2025-05-14T09:14:19Z</time>
      </trkpt>
      <trkpt lat="41.85321100987494" lon="0.955249965190887">
        <ele>464.93000000000001</ele>
        <time>2025-05-14T09:14:20Z</time>
      </trkpt>
      <trkpt lat="41.85321100987494" lon="0.95538298599422">
        <ele>465.42000000000002</ele>
        <time>2025-05-14T09:14:21Z</time>
      </trkpt>
      <trkpt lat="41.853173039853573" lon="0.95671302638948">
        <ele>470.69999999999999</ele>
        <time>2025-05-14T09:14:32Z</time>
      </trkpt>
      <trkpt lat="41.853159964084625" lon="0.957306968048215">
        <ele>472.63</ele>
        <time>2025-05-14T09:14:37Z</time>
      </trkpt>
      <trkpt lat="41.853155018761754" lon="0.957418028265238">
        <ele>472.63</ele>
        <time>2025-05-14T09:14:38Z</time>
      </trkpt>
      <trkpt lat="41.853009006008506" lon="0.958725018426776">
        <ele>472.63</ele>
        <time>2025-05-14T09:14:47Z</time>
      </trkpt>
      <trkpt lat="41.852939017117023" lon="0.960546992719173">
        <ele>463.49000000000001</ele>
        <time>2025-05-14T09:14:56Z</time>
      </trkpt>
      <trkpt lat="41.853318968787789" lon="0.961990021169186">
        <ele>454.36000000000001</ele>
        <time>2025-05-14T09:15:02Z</time>
      </trkpt>
      <trkpt lat="41.854352038353682" lon="0.964785972610116">
        <ele>447.63</ele>
        <time>2025-05-14T09:15:13Z</time>
      </trkpt>
      <trkpt lat="41.856063036248088" lon="0.969425020739436">
        <ele>448.58999999999997</ele>
        <time>2025-05-14T09:15:31Z</time>
      </trkpt>
      <trkpt lat="41.857827007770538" lon="0.974373025819659">
        <ele>452.92000000000002</ele>
        <time>2025-05-14T09:15:50Z</time>
      </trkpt>
      <trkpt lat="41.858667964115739" lon="0.977643979713321">
        <ele>454.83999999999997</ele>
        <time>2025-05-14T09:16:02Z</time>
      </trkpt>
      <trkpt lat="41.859989035874605" lon="0.98311903886497">
        <ele>458.69</ele>
        <time>2025-05-14T09:16:22Z</time>
      </trkpt>
      <trkpt lat="41.860996959730983" lon="0.987577959895134">
        <ele>451.95999999999998</ele>
        <time>2025-05-14T09:16:38Z</time>
      </trkpt>
      <trkpt lat="41.861709002405405" lon="0.990614974871278">
        <ele>439.94</ele>
        <time>2025-05-14T09:16:49Z</time>
      </trkpt>
      <trkpt lat="41.863327967002988" lon="0.994972977787256">
        <ele>428.39999999999998</ele>
        <time>2025-05-14T09:17:06Z</time>
      </trkpt>
      <trkpt lat="41.864983979612589" lon="0.999343972653151">
        <ele>424.56</ele>
        <time>2025-05-14T09:17:23Z</time>
      </trkpt>
      <trkpt lat="41.866800002753735" lon="1.003656964749098">
        <ele>407.74000000000001</ele>
        <time>2025-05-14T09:17:40Z</time>
      </trkpt>
      <trkpt lat="41.868902016431093" lon="1.008683005347848">
        <ele>388.99000000000001</ele>
        <time>2025-05-14T09:18:00Z</time>
      </trkpt>
      <trkpt lat="41.869644988328218" lon="1.011062040925026">
        <ele>385.63</ele>
        <time>2025-05-14T09:18:09Z</time>
      </trkpt>
      <trkpt lat="41.87087100930512" lon="1.016021026298404">
        <ele>375.52999999999997</ele>
        <time>2025-05-14T09:18:27Z</time>
      </trkpt>
      <trkpt lat="41.872004996985197" lon="1.019435981288552">
        <ele>370.24000000000001</ele>
        <time>2025-05-14T09:18:40Z</time>
      </trkpt>
      <trkpt lat="41.872084960341454" lon="1.0202900134027">
        <ele>368.80000000000001</ele>
        <time>2025-05-14T09:18:43Z</time>
      </trkpt>
      <trkpt lat="41.872074985876679" lon="1.020576003938913">
        <ele>368.31999999999999</ele>
        <time>2025-05-14T09:18:44Z</time>
      </trkpt>
      <trkpt lat="41.872049001976848" lon="1.020859982818365">
        <ele>367.36000000000001</ele>
        <time>2025-05-14T09:18:45Z</time>
      </trkpt>
      <trkpt lat="41.871751025319099" lon="1.02374603971839">
        <ele>364.95999999999998</ele>
        <time>2025-05-14T09:18:55Z</time>
      </trkpt>
      <trkpt lat="41.872015977278352" lon="1.026281984522939">
        <ele>368.80000000000001</ele>
        <time>2025-05-14T09:19:04Z</time>
      </trkpt>
      <trkpt lat="41.872726008296013" lon="1.031120019033551">
        <ele>365.44</ele>
        <time>2025-05-14T09:19:21Z</time>
      </trkpt>
      <trkpt lat="41.873061032965779" lon="1.032769996672869">
        <ele>361.58999999999997</ele>
        <time>2025-05-14T09:19:27Z</time>
      </trkpt>
      <trkpt lat="41.873154994100332" lon="1.033025979995728">
        <ele>361.11000000000001</ele>
        <time>2025-05-14T09:19:28Z</time>
      </trkpt>
      <trkpt lat="41.873248033225536" lon="1.033280035480857">
        <ele>360.63</ele>
        <time>2025-05-14T09:19:29Z</time>
      </trkpt>
      <trkpt lat="41.873383987694979" lon="1.033497964963317">
        <ele>360.14999999999998</ele>
        <time>2025-05-14T09:19:30Z</time>
      </trkpt>
      <trkpt lat="41.873522959649563" lon="1.033712038770318">
        <ele>359.67000000000002</ele>
        <time>2025-05-14T09:19:31Z</time>
      </trkpt>
      <trkpt lat="41.873666038736701" lon="1.033931979909539">
        <ele>359.67000000000002</ele>
        <time>2025-05-14T09:19:32Z</time>
      </trkpt>
      <trkpt lat="41.873818002641201" lon="1.034129038453102">
        <ele>359.67000000000002</ele>
        <time>2025-05-14T09:19:33Z</time>
      </trkpt>
      <trkpt lat="41.875476026907563" lon="1.035945983603597">
        <ele>364</ele>
        <time>2025-05-14T09:19:43Z</time>
      </trkpt>
      <trkpt lat="41.877865958958864" lon="1.038487041369081">
        <ele>369.75999999999999</ele>
        <time>2025-05-14T09:19:57Z</time>
      </trkpt>
      <trkpt lat="41.88000401481986" lon="1.040376992896199">
        <ele>373.13</ele>
        <time>2025-05-14T09:20:09Z</time>
      </trkpt>
      <trkpt lat="41.881122998893261" lon="1.041476028040052">
        <ele>376.97000000000003</ele>
        <time>2025-05-14T09:20:17Z</time>
      </trkpt>
      <trkpt lat="41.882032016292214" lon="1.042896006256342">
        <ele>377.94</ele>
        <time>2025-05-14T09:20:25Z</time>
      </trkpt>
      <trkpt lat="41.882137041538954" lon="1.043066997081041">
        <ele>377.94</ele>
        <time>2025-05-14T09:20:26Z</time>
      </trkpt>
      <trkpt lat="41.882278025150299" lon="1.043188031762838">
        <ele>377.94</ele>
        <time>2025-05-14T09:20:27Z</time>
      </trkpt>
      <trkpt lat="41.882422026246786" lon="1.043293979018927">
        <ele>377.94</ele>
        <time>2025-05-14T09:20:28Z</time>
      </trkpt>
      <trkpt lat="41.882582036778331" lon="1.043387018144131">
        <ele>377.44999999999999</ele>
        <time>2025-05-14T09:20:29Z</time>
      </trkpt>
      <trkpt lat="41.88275202177465" lon="1.04347201064229">
        <ele>377.44999999999999</ele>
        <time>2025-05-14T09:20:30Z</time>
      </trkpt>
      <trkpt lat="41.882898034527898" lon="1.043582987040281">
        <ele>376.97000000000003</ele>
        <time>2025-05-14T09:20:31Z</time>
      </trkpt>
      <trkpt lat="41.883038012310863" lon="1.043722964823246">
        <ele>376.97000000000003</ele>
        <time>2025-05-14T09:20:32Z</time>
      </trkpt>
      <trkpt lat="41.88316198065877" lon="1.043890016153455">
        <ele>376.49000000000001</ele>
        <time>2025-05-14T09:20:33Z</time>
      </trkpt>
      <trkpt lat="41.883283015340567" lon="1.04407399892807">
        <ele>376.00999999999999</ele>
        <time>2025-05-14T09:20:34Z</time>
      </trkpt>
      <trkpt lat="41.885007005184889" lon="1.046706000342965">
        <ele>366.88</ele>
        <time>2025-05-14T09:20:48Z</time>
      </trkpt>
      <trkpt lat="41.885855002328753" lon="1.048140982165933">
        <ele>359.67000000000002</ele>
        <time>2025-05-14T09:20:56Z</time>
      </trkpt>
      <trkpt lat="41.88634199090302" lon="1.048980010673404">
        <ele>354.86000000000001</ele>
        <time>2025-05-14T09:21:02Z</time>
      </trkpt>
      <trkpt lat="41.88638499006629" lon="1.049094004556537">
        <ele>353.89999999999998</ele>
        <time>2025-05-14T09:21:03Z</time>
      </trkpt>
      <trkpt lat="41.886364035308361" lon="1.049279998987913">
        <ele>353.42000000000002</ele>
        <time>2025-05-14T09:21:04Z</time>
      </trkpt>
      <trkpt lat="41.88649202696979" lon="1.049344958737493">
        <ele>352.45999999999998</ele>
        <time>2025-05-14T09:21:05Z</time>
      </trkpt>
      <trkpt lat="41.886508036404848" lon="1.049364991486073">
        <ele>351.5</ele>
        <time>2025-05-14T09:21:06Z</time>
      </trkpt>
      <trkpt lat="41.886574001982808" lon="1.049453001469374">
        <ele>351.01999999999998</ele>
        <time>2025-05-14T09:21:07Z</time>
      </trkpt>
      <trkpt lat="41.886648014187813" lon="1.049561966210604">
        <ele>350.54000000000002</ele>
        <time>2025-05-14T09:21:08Z</time>
      </trkpt>
      <trkpt lat="41.886724038049579" lon="1.049690963700414">
        <ele>349.57999999999998</ele>
        <time>2025-05-14T09:21:09Z</time>
      </trkpt>
      <trkpt lat="41.886807018890977" lon="1.049833036959171">
        <ele>349.10000000000002</ele>
        <time>2025-05-14T09:21:10Z</time>
      </trkpt>
      <trkpt lat="41.887376988306642" lon="1.050764014944434">
        <ele>344.76999999999998</ele>
        <time>2025-05-14T09:21:16Z</time>
      </trkpt>
      <trkpt lat="41.887486958876252" lon="1.050886977463961">
        <ele>343.81</ele>
        <time>2025-05-14T09:21:17Z</time>
      </trkpt>
      <trkpt lat="41.887616040185094" lon="1.050973981618881">
        <ele>342.85000000000002</ele>
        <time>2025-05-14T09:21:18Z</time>
      </trkpt>
      <trkpt lat="41.887750988826156" lon="1.051041036844254">
        <ele>341.88999999999999</ele>
        <time>2025-05-14T09:21:19Z</time>
      </trkpt>
      <trkpt lat="41.88789096660912" lon="1.051080012694001">
        <ele>340.92000000000002</ele>
        <time>2025-05-14T09:21:20Z</time>
      </trkpt>
      <trkpt lat="41.888034967705607" lon="1.051070038229227">
        <ele>340.44</ele>
        <time>2025-05-14T09:21:21Z</time>
      </trkpt>
      <trkpt lat="41.888170000165701" lon="1.051058974117041">
        <ele>339.48000000000002</ele>
        <time>2025-05-14T09:21:22Z</time>
      </trkpt>
      <trkpt lat="41.888300003483891" lon="1.050998959690332">
        <ele>338.51999999999998</ele>
        <time>2025-05-14T09:21:23Z</time>
      </trkpt>
      <trkpt lat="41.888422966003418" lon="1.050941962748766">
        <ele>337.56</ele>
        <time>2025-05-14T09:21:24Z</time>
      </trkpt>
      <trkpt lat="41.888631004840136" lon="1.050770971924067">
        <ele>335.63999999999999</ele>
        <time>2025-05-14T09:21:26Z</time>
      </trkpt>
      <trkpt lat="41.889562988653779" lon="1.049929009750485">
        <ele>327.47000000000003</ele>
        <time>2025-05-14T09:21:36Z</time>
      </trkpt>
      <trkpt lat="41.889661978930235" lon="1.049909982830286">
        <ele>326.5</ele>
        <time>2025-05-14T09:21:37Z</time>
      </trkpt>
      <trkpt lat="41.889760969206691" lon="1.049929009750485">
        <ele>325.54000000000002</ele>
        <time>2025-05-14T09:21:38Z</time>
      </trkpt>
      <trkpt lat="41.889861971139908" lon="1.04995901696384">
        <ele>325.06</ele>
        <time>2025-05-14T09:21:39Z</time>
      </trkpt>
      <trkpt lat="41.889962973073125" lon="1.050019031390548">
        <ele>324.57999999999998</ele>
        <time>2025-05-14T09:21:40Z</time>
      </trkpt>
      <trkpt lat="41.890065986663103" lon="1.050080973654985">
        <ele>324.10000000000002</ele>
        <time>2025-05-14T09:21:41Z</time>
      </trkpt>
      <trkpt lat="41.89066001214087" lon="1.05041298083961">
        <ele>323.62</ele>
        <time>2025-05-14T09:21:47Z</time>
      </trkpt>
      <trkpt lat="41.89074601046741" lon="1.050435025244951">
        <ele>323.13999999999999</ele>
        <time>2025-05-14T09:21:48Z</time>
      </trkpt>
      <trkpt lat="41.890826979652047" lon="1.050409963354468">
        <ele>323.13999999999999</ele>
        <time>2025-05-14T09:21:49Z</time>
      </trkpt>
      <trkpt lat="41.890908032655716" lon="1.050374004989862">
        <ele>323.13999999999999</ele>
        <time>2025-05-14T09:21:50Z</time>
      </trkpt>
      <trkpt lat="41.890972992405295" lon="1.050328994169831">
        <ele>322.66000000000003</ele>
        <time>2025-05-14T09:21:51Z</time>
      </trkpt>
      <trkpt lat="41.891029989346862" lon="1.050251964479685">
        <ele>322.66000000000003</ele>
        <time>2025-05-14T09:21:52Z</time>
      </trkpt>
      <trkpt lat="41.89109000377357" lon="1.050170995295048">
        <ele>322.66000000000003</ele>
        <time>2025-05-14T09:21:53Z</time>
      </trkpt>
      <trkpt lat="41.891148006543517" lon="1.050092037767172">
        <ele>322.66000000000003</ele>
        <time>2025-05-14T09:21:54Z</time>
      </trkpt>
      <trkpt lat="41.891205003485084" lon="1.050014002248645">
        <ele>322.66000000000003</ele>
        <time>2025-05-14T09:21:55Z</time>
      </trkpt>
      <trkpt lat="41.891526030376554" lon="1.04946699924767">
        <ele>324.10000000000002</ele>
        <time>2025-05-14T09:22:01Z</time>
      </trkpt>
      <trkpt lat="41.891582021489739" lon="1.049376977607608">
        <ele>324.10000000000002</ele>
        <time>2025-05-14T09:22:02Z</time>
      </trkpt>
      <trkpt lat="41.891640024259686" lon="1.049285028129816">
        <ele>324.57999999999998</ele>
        <time>2025-05-14T09:22:03Z</time>
      </trkpt>
      <trkpt lat="41.891878992319107" lon="1.048909015953541">
        <ele>325.54000000000002</ele>
        <time>2025-05-14T09:22:07Z</time>
      </trkpt>
      <trkpt lat="41.891943030059338" lon="1.048808014020324">
        <ele>325.54000000000002</ele>
        <time>2025-05-14T09:22:08Z</time>
      </trkpt>
      <trkpt lat="41.89201301895082" lon="1.048723021522164">
        <ele>325.54000000000002</ele>
        <time>2025-05-14T09:22:09Z</time>
      </trkpt>
      <trkpt lat="41.892156014218926" lon="1.048552030697465">
        <ele>324.57999999999998</ele>
        <time>2025-05-14T09:22:11Z</time>
      </trkpt>
      <trkpt lat="41.892849029973149" lon="1.047817021608353">
        <ele>320.25999999999999</ele>
        <time>2025-05-14T09:22:21Z</time>
      </trkpt>
      <trkpt lat="41.892920024693012" lon="1.047743009403348">
        <ele>319.77999999999997</ele>
        <time>2025-05-14T09:22:22Z</time>
      </trkpt>
      <trkpt lat="41.893124962225556" lon="1.047527007758617">
        <ele>319.30000000000001</ele>
        <time>2025-05-14T09:22:25Z</time>
      </trkpt>
      <trkpt lat="41.893308022990823" lon="1.047331960871816">
        <ele>318.81</ele>
        <time>2025-05-14T09:22:28Z</time>
      </trkpt>
      <trkpt lat="41.89336996525526" lon="1.047258032485843">
        <ele>318.32999999999998</ele>
        <time>2025-05-14T09:22:29Z</time>
      </trkpt>
      <trkpt lat="41.89356098882854" lon="1.047062985599041">
        <ele>317.85000000000002</ele>
        <time>2025-05-14T09:22:32Z</time>
      </trkpt>
      <trkpt lat="41.893623014912009" lon="1.047008000314236">
        <ele>317.85000000000002</ele>
        <time>2025-05-14T09:22:33Z</time>
      </trkpt>
      <trkpt lat="41.893685963004827" lon="1.046949997544289">
        <ele>317.85000000000002</ele>
        <time>2025-05-14T09:22:34Z</time>
      </trkpt>
      <trkpt lat="41.893746983259916" lon="1.046895012259483">
        <ele>317.37</ele>
        <time>2025-05-14T09:22:35Z</time>
      </trkpt>
      <trkpt lat="41.893811021000147" lon="1.046851007267833">
        <ele>317.37</ele>
        <time>2025-05-14T09:22:36Z</time>
      </trkpt>
      <trkpt lat="41.893881009891629" lon="1.046811025589705">
        <ele>317.37</ele>
        <time>2025-05-14T09:22:37Z</time>
      </trkpt>
      <trkpt lat="41.893956027925014" lon="1.046786969527602">
        <ele>317.37</ele>
        <time>2025-05-14T09:22:38Z</time>
      </trkpt>
      <trkpt lat="41.894036997109652" lon="1.046779006719589">
        <ele>317.37</ele>
        <time>2025-05-14T09:22:39Z</time>
      </trkpt>
      <trkpt lat="41.894130958244205" lon="1.046770038083196">
        <ele>317.37</ele>
        <time>2025-05-14T09:22:40Z</time>
      </trkpt>
      <trkpt lat="41.894188961014152" lon="1.046785963699222">
        <ele>316.88999999999999</ele>
        <time>2025-05-14T09:22:41Z</time>
      </trkpt>
      <trkpt lat="41.894260039553046" lon="1.046805996447802">
        <ele>316.88999999999999</ele>
        <time>2025-05-14T09:22:42Z</time>
      </trkpt>
      <trkpt lat="41.894338997080922" lon="1.046860981732607">
        <ele>316.88999999999999</ele>
        <time>2025-05-14T09:22:43Z</time>
      </trkpt>
      <trkpt lat="41.894403034821153" lon="1.046914039179683">
        <ele>316.88999999999999</ele>
        <time>2025-05-14T09:22:44Z</time>
      </trkpt>
      <trkpt lat="41.894462965428829" lon="1.046963995322585">
        <ele>316.88999999999999</ele>
        <time>2025-05-14T09:22:45Z</time>
      </trkpt>
      <trkpt lat="41.894523985683918" lon="1.047014035284519">
        <ele>316.41000000000003</ele>
        <time>2025-05-14T09:22:46Z</time>
      </trkpt>
      <trkpt lat="41.894860016182065" lon="1.047330033034086">
        <ele>316.41000000000003</ele>
        <time>2025-05-14T09:22:52Z</time>
      </trkpt>
      <trkpt lat="41.895380029454827" lon="1.047893967479467">
        <ele>317.85000000000002</ele>
        <time>2025-05-14T09:23:02Z</time>
      </trkpt>
      <trkpt lat="41.895670965313911" lon="1.048700977116823">
        <ele>316.41000000000003</ele>
        <time>2025-05-14T09:23:12Z</time>
      </trkpt>
      <trkpt lat="41.895900964736938" lon="1.049650982022286">
        <ele>316.88999999999999</ele>
        <time>2025-05-14T09:23:23Z</time>
      </trkpt>
      <trkpt lat="41.896003978326917" lon="1.050041997805238">
        <ele>316.88999999999999</ele>
        <time>2025-05-14T09:23:27Z</time>
      </trkpt>
      <trkpt lat="41.89609500579536" lon="1.051128963008523">
        <ele>315.44999999999999</ele>
        <time>2025-05-14T09:23:37Z</time>
      </trkpt>
      <trkpt lat="41.896100034937263" lon="1.05122703127563">
        <ele>314.97000000000003</ele>
        <time>2025-05-14T09:23:38Z</time>
      </trkpt>
      <trkpt lat="41.896152002736926" lon="1.052355989813805">
        <ele>312.56999999999999</ele>
        <time>2025-05-14T09:23:50Z</time>
      </trkpt>
      <trkpt lat="41.89620103687048" lon="1.053600031882525">
        <ele>314.00999999999999</ele>
        <time>2025-05-14T09:24:01Z</time>
      </trkpt>
      <trkpt lat="41.896243030205369" lon="1.05472999624908">
        <ele>313.52999999999997</ele>
        <time>2025-05-14T09:24:11Z</time>
      </trkpt>
      <trkpt lat="41.896248981356621" lon="1.054866034537554">
        <ele>313.52999999999997</ele>
        <time>2025-05-14T09:24:12Z</time>
      </trkpt>
      <trkpt lat="41.896263984963298" lon="1.055151019245386">
        <ele>313.52999999999997</ele>
        <time>2025-05-14T09:24:14Z</time>
      </trkpt>
      <trkpt lat="41.896271025761962" lon="1.055299965664744">
        <ele>313.52999999999997</ele>
        <time>2025-05-14T09:24:15Z</time>
      </trkpt>
      <trkpt lat="41.896359035745263" lon="1.056884983554483">
        <ele>315.44999999999999</ele>
        <time>2025-05-14T09:24:23Z</time>
      </trkpt>
      <trkpt lat="41.896507982164621" lon="1.057539023458958">
        <ele>315.93000000000001</ele>
        <time>2025-05-14T09:24:26Z</time>
      </trkpt>
      <trkpt lat="41.896579982712865" lon="1.057735998183489">
        <ele>315.93000000000001</ele>
        <time>2025-05-14T09:24:27Z</time>
      </trkpt>
      <trkpt lat="41.896651983261108" lon="1.057925010100007">
        <ele>316.41000000000003</ele>
        <time>2025-05-14T09:24:28Z</time>
      </trkpt>
      <trkpt lat="41.896747034043074" lon="1.058092983439565">
        <ele>316.41000000000003</ele>
        <time>2025-05-14T09:24:29Z</time>
      </trkpt>
      <trkpt lat="41.896843006834388" lon="1.058261040598154">
        <ele>316.41000000000003</ele>
        <time>2025-05-14T09:24:30Z</time>
      </trkpt>
      <trkpt lat="41.897706007584929" lon="1.05941497720778">
        <ele>316.88999999999999</ele>
        <time>2025-05-14T09:24:39Z</time>
      </trkpt>
      <trkpt lat="41.897736014798284" lon="1.059537017717958">
        <ele>316.88999999999999</ele>
        <time>2025-05-14T09:24:40Z</time>
      </trkpt>
      <trkpt lat="41.897757975384593" lon="1.05965101160109">
        <ele>316.88999999999999</ele>
        <time>2025-05-14T09:24:41Z</time>
      </trkpt>
      <trkpt lat="41.897757975384593" lon="1.059729969128966">
        <ele>317.37</ele>
        <time>2025-05-14T09:24:42Z</time>
      </trkpt>
      <trkpt lat="41.897806003689766" lon="1.059815967455506">
        <ele>317.85000000000002</ele>
        <time>2025-05-14T09:24:43Z</time>
      </trkpt>
      <trkpt lat="41.897838022559881" lon="1.059871958568692">
        <ele>317.85000000000002</ele>
        <time>2025-05-14T09:24:44Z</time>
      </trkpt>
      <trkpt lat="41.897876998409629" lon="1.059940019622445">
        <ele>318.32999999999998</ele>
        <time>2025-05-14T09:24:45Z</time>
      </trkpt>
      <trkpt lat="41.897941036149859" lon="1.060029035434127">
        <ele>318.32999999999998</ele>
        <time>2025-05-14T09:24:46Z</time>
      </trkpt>
      <trkpt lat="41.898026028648019" lon="1.060019982978702">
        <ele>318.81</ele>
        <time>2025-05-14T09:24:47Z</time>
      </trkpt>
      <trkpt lat="41.898129964247346" lon="1.060007996857166">
        <ele>318.32999999999998</ele>
        <time>2025-05-14T09:24:48Z</time>
      </trkpt>
      <trkpt lat="41.899043004959822" lon="1.06007999740541">
        <ele>317.85000000000002</ele>
        <time>2025-05-14T09:24:54Z</time>
      </trkpt>
      <trkpt lat="41.899773990735412" lon="1.06044796295464">
        <ele>315.93000000000001</ele>
        <time>2025-05-14T09:24:58Z</time>
      </trkpt>
      <trkpt lat="41.900397017598152" lon="1.061038970947266">
        <ele>313.05000000000001</ele>
        <time>2025-05-14T09:25:02Z</time>
      </trkpt>
      <trkpt lat="41.901174020022154" lon="1.062632035464048">
        <ele>312.56999999999999</ele>
        <time>2025-05-14T09:25:10Z</time>
      </trkpt>
      <trkpt lat="41.902341032400727" lon="1.064784005284309">
        <ele>316.88999999999999</ele>
        <time>2025-05-14T09:25:21Z</time>
      </trkpt>
      <trkpt lat="41.902470029890537" lon="1.064958013594151">
        <ele>317.37</ele>
        <time>2025-05-14T09:25:22Z</time>
      </trkpt>
      <trkpt lat="41.90333697013557" lon="1.065854961052537">
        <ele>320.25999999999999</ele>
        <time>2025-05-14T09:25:28Z</time>
      </trkpt>
      <trkpt lat="41.903483988717198" lon="1.066008014604449">
        <ele>320.74000000000001</ele>
        <time>2025-05-14T09:25:29Z</time>
      </trkpt>
      <trkpt lat="41.905425991863012" lon="1.067978013306856">
        <ele>325.06</ele>
        <time>2025-05-14T09:25:42Z</time>
      </trkpt>
      <trkpt lat="41.906726025044918" lon="1.069277040660381">
        <ele>326.5</ele>
        <time>2025-05-14T09:25:52Z</time>
      </trkpt>
      <trkpt lat="41.907391967251897" lon="1.069843992590904">
        <ele>326.5</ele>
        <time>2025-05-14T09:25:59Z</time>
      </trkpt>
      <trkpt lat="41.907558012753725" lon="1.069889003410935">
        <ele>326.01999999999998</ele>
        <time>2025-05-14T09:26:01Z</time>
      </trkpt>
      <trkpt lat="41.907649962231517" lon="1.069909036159515">
        <ele>326.01999999999998</ele>
        <time>2025-05-14T09:26:02Z</time>
      </trkpt>
      <trkpt lat="41.907736966386437" lon="1.06991901062429">
        <ele>326.01999999999998</ele>
        <time>2025-05-14T09:26:03Z</time>
      </trkpt>
      <trkpt lat="41.907835034653544" lon="1.069901995360851">
        <ele>326.01999999999998</ele>
        <time>2025-05-14T09:26:04Z</time>
      </trkpt>
      <trkpt lat="41.90793402493" lon="1.069885985925794">
        <ele>326.5</ele>
        <time>2025-05-14T09:26:05Z</time>
      </trkpt>
      <trkpt lat="41.908031003549695" lon="1.069869976490736">
        <ele>326.99000000000001</ele>
        <time>2025-05-14T09:26:06Z</time>
      </trkpt>
      <trkpt lat="41.908930968493223" lon="1.069320039823651">
        <ele>327.94999999999999</ele>
        <time>2025-05-14T09:26:15Z</time>
      </trkpt>
      <trkpt lat="41.909989016130567" lon="1.068584024906158">
        <ele>328.43000000000001</ele>
        <time>2025-05-14T09:26:22Z</time>
      </trkpt>
      <trkpt lat="41.911166002973914" lon="1.067813979461789">
        <ele>328.43000000000001</ele>
        <time>2025-05-14T09:26:29Z</time>
      </trkpt>
      <trkpt lat="41.911361971870065" lon="1.067711971700192">
        <ele>327.94999999999999</ele>
        <time>2025-05-14T09:26:30Z</time>
      </trkpt>
      <trkpt lat="41.911548972129822" lon="1.067700991407037">
        <ele>327.47000000000003</ele>
        <time>2025-05-14T09:26:31Z</time>
      </trkpt>
      <trkpt lat="41.911753993481398" lon="1.067698979750276">
        <ele>326.5</ele>
        <time>2025-05-14T09:26:32Z</time>
      </trkpt>
      <trkpt lat="41.911954991519451" lon="1.067733010277152">
        <ele>326.01999999999998</ele>
        <time>2025-05-14T09:26:33Z</time>
      </trkpt>
      <trkpt lat="41.912149032577872" lon="1.067866031080484">
        <ele>325.06</ele>
        <time>2025-05-14T09:26:34Z</time>
      </trkpt>
      <trkpt lat="41.912329997867346" lon="1.067994022741914">
        <ele>325.06</ele>
        <time>2025-05-14T09:26:35Z</time>
      </trkpt>
      <trkpt lat="41.912514986470342" lon="1.068141963332892">
        <ele>324.57999999999998</ele>
        <time>2025-05-14T09:26:36Z</time>
      </trkpt>
      <trkpt lat="41.912676002830267" lon="1.06833097524941">
        <ele>324.10000000000002</ele>
        <time>2025-05-14T09:26:37Z</time>
      </trkpt>
      <trkpt lat="41.912839030846953" lon="1.068520992994309">
        <ele>323.62</ele>
        <time>2025-05-14T09:26:38Z</time>
      </trkpt>
      <trkpt lat="41.915528029203415" lon="1.071681976318359">
        <ele>323.62</ele>
        <time>2025-05-14T09:26:54Z</time>
      </trkpt>
      <trkpt lat="41.917697014287114" lon="1.074176011607051">
        <ele>328.91000000000003</ele>
        <time>2025-05-14T09:27:07Z</time>
      </trkpt>
      <trkpt lat="41.919393008574843" lon="1.075552990660071">
        <ele>333.70999999999998</ele>
        <time>2025-05-14T09:27:16Z</time>
      </trkpt>
      <trkpt lat="41.921168966218829" lon="1.076867021620274">
        <ele>337.07999999999998</ele>
        <time>2025-05-14T09:27:25Z</time>
      </trkpt>
      <trkpt lat="41.922864960506558" lon="1.07817099429667">
        <ele>336.12</ele>
        <time>2025-05-14T09:27:34Z</time>
      </trkpt>
      <trkpt lat="41.923731984570622" lon="1.079445965588093">
        <ele>333.23000000000002</ele>
        <time>2025-05-14T09:27:40Z</time>
      </trkpt>
      <trkpt lat="41.924387030303478" lon="1.081570023670793">
        <ele>328.43000000000001</ele>
        <time>2025-05-14T09:27:48Z</time>
      </trkpt>
      <trkpt lat="41.924664974212646" lon="1.083816960453987">
        <ele>326.99000000000001</ele>
        <time>2025-05-14T09:27:56Z</time>
      </trkpt>
      <trkpt lat="41.924658017233014" lon="1.084880959242582">
        <ele>327.94999999999999</ele>
        <time>2025-05-14T09:28:00Z</time>
      </trkpt>
      <trkpt lat="41.924688024446368" lon="1.085102995857596">
        <ele>327.94999999999999</ele>
        <time>2025-05-14T09:28:01Z</time>
      </trkpt>
      <trkpt lat="41.924758013337851" lon="1.085320003330708">
        <ele>327.94999999999999</ele>
        <time>2025-05-14T09:28:02Z</time>
      </trkpt>
      <trkpt lat="41.924873013049364" lon="1.085493005812168">
        <ele>328.43000000000001</ele>
        <time>2025-05-14T09:28:03Z</time>
      </trkpt>
      <trkpt lat="41.925013996660709" lon="1.085618985816836">
        <ele>329.38999999999999</ele>
        <time>2025-05-14T09:28:04Z</time>
      </trkpt>
      <trkpt lat="41.925179036334157" lon="1.085697021335363">
        <ele>330.35000000000002</ele>
        <time>2025-05-14T09:28:05Z</time>
      </trkpt>
      <trkpt lat="41.925355978310108" lon="1.085737003013492">
        <ele>331.31</ele>
        <time>2025-05-14T09:28:06Z</time>
      </trkpt>
      <trkpt lat="41.925542978569865" lon="1.085732979699969">
        <ele>331.79000000000002</ele>
        <time>2025-05-14T09:28:07Z</time>
      </trkpt>
      <trkpt lat="41.925742970779538" lon="1.085716970264912">
        <ele>332.75</ele>
        <time>2025-05-14T09:28:08Z</time>
      </trkpt>
      <trkpt lat="41.927478024736047" lon="1.085507003590465">
        <ele>336.12</ele>
        <time>2025-05-14T09:28:16Z</time>
      </trkpt>
      <trkpt lat="41.928933039307594" lon="1.084972992539406">
        <ele>338.51999999999998</ele>
        <time>2025-05-14T09:28:23Z</time>
      </trkpt>
      <trkpt lat="41.929744994267821" lon="1.084628999233246">
        <ele>341.88999999999999</ele>
        <time>2025-05-14T09:28:27Z</time>
      </trkpt>
      <trkpt lat="41.92995697259903" lon="1.084599997848272">
        <ele>342.85000000000002</ele>
        <time>2025-05-14T09:28:28Z</time>
      </trkpt>
      <trkpt lat="41.930167023092508" lon="1.084578959271312">
        <ele>343.81</ele>
        <time>2025-05-14T09:28:29Z</time>
      </trkpt>
      <trkpt lat="41.930381013080478" lon="1.084586000069976">
        <ele>344.76999999999998</ele>
        <time>2025-05-14T09:28:30Z</time>
      </trkpt>
      <trkpt lat="41.930593997240067" lon="1.084592035040259">
        <ele>345.73000000000002</ele>
        <time>2025-05-14T09:28:31Z</time>
      </trkpt>
      <trkpt lat="41.932302983477712" lon="1.084426995366812">
        <ele>353.42000000000002</ele>
        <time>2025-05-14T09:28:39Z</time>
      </trkpt>
      <trkpt lat="41.933935023844242" lon="1.083590984344482">
        <ele>356.31</ele>
        <time>2025-05-14T09:28:47Z</time>
      </trkpt>
      <trkpt lat="41.934140967205167" lon="1.083566006273031">
        <ele>356.31</ele>
        <time>2025-05-14T09:28:48Z</time>
      </trkpt>
      <trkpt lat="41.934355963021517" lon="1.083553014323115">
        <ele>355.82999999999998</ele>
        <time>2025-05-14T09:28:49Z</time>
      </trkpt>
      <trkpt lat="41.935663959011436" lon="1.083591990172863">
        <ele>351.01999999999998</ele>
        <time>2025-05-14T09:28:56Z</time>
      </trkpt>
      <trkpt lat="41.936898026615381" lon="1.083851996809244">
        <ele>355.82999999999998</ele>
        <time>2025-05-14T09:29:04Z</time>
      </trkpt>
      <trkpt lat="41.937895976006985" lon="1.08472497202456">
        <ele>364.48000000000002</ele>
        <time>2025-05-14T09:29:13Z</time>
      </trkpt>
      <trkpt lat="41.938885040581226" lon="1.085694003850222">
        <ele>371.20999999999998</ele>
        <time>2025-05-14T09:29:22Z</time>
      </trkpt>
      <trkpt lat="41.940243998542428" lon="1.086371010169387">
        <ele>380.33999999999997</ele>
        <time>2025-05-14T09:29:30Z</time>
      </trkpt>
      <trkpt lat="41.941894982010126" lon="1.086540995165706">
        <ele>389.47000000000003</ele>
        <time>2025-05-14T09:29:38Z</time>
      </trkpt>
      <trkpt lat="41.942520020529628" lon="1.086712991818786">
        <ele>391.87</ele>
        <time>2025-05-14T09:29:41Z</time>
      </trkpt>
      <trkpt lat="41.942720012739301" lon="1.086784992367029">
        <ele>392.36000000000001</ele>
        <time>2025-05-14T09:29:42Z</time>
      </trkpt>
      <trkpt lat="41.942911958321929" lon="1.086902003735304">
        <ele>393.31999999999999</ele>
        <time>2025-05-14T09:29:43Z</time>
      </trkpt>
      <trkpt lat="41.944292038679123" lon="1.087596025317907">
        <ele>399.56999999999999</ele>
        <time>2025-05-14T09:29:51Z</time>
      </trkpt>
      <trkpt lat="41.947257975116372" lon="1.088249981403351">
        <ele>413.98000000000002</ele>
        <time>2025-05-14T09:30:04Z</time>
      </trkpt>
      <trkpt lat="41.950029032304883" lon="1.088795978575945">
        <ele>422.63999999999999</ele>
        <time>2025-05-14T09:30:17Z</time>
      </trkpt>
      <trkpt lat="41.951308026909828" lon="1.08878499828279">
        <ele>426.48000000000002</ele>
        <time>2025-05-14T09:30:23Z</time>
      </trkpt>
      <trkpt lat="41.951510030776262" lon="1.088705034926534">
        <ele>427.44</ele>
        <time>2025-05-14T09:30:24Z</time>
      </trkpt>
      <trkpt lat="41.951712034642696" lon="1.088615013286471">
        <ele>428.39999999999998</ele>
        <time>2025-05-14T09:30:25Z</time>
      </trkpt>
      <trkpt lat="41.951900962740183" lon="1.0884840041399">
        <ele>429.37</ele>
        <time>2025-05-14T09:30:26Z</time>
      </trkpt>
      <trkpt lat="41.952084023505449" lon="1.088338997215033">
        <ele>429.85000000000002</ele>
        <time>2025-05-14T09:30:27Z</time>
      </trkpt>
      <trkpt lat="41.954678976908326" lon="1.086300015449524">
        <ele>447.14999999999998</ele>
        <time>2025-05-14T09:30:41Z</time>
      </trkpt>
      <trkpt lat="41.956284027546644" lon="1.08549602329731">
        <ele>458.20999999999998</ele>
        <time>2025-05-14T09:30:49Z</time>
      </trkpt>
      <trkpt lat="41.958002988249063" lon="1.085320003330708">
        <ele>465.89999999999998</ele>
        <time>2025-05-14T09:30:57Z</time>
      </trkpt>
      <trkpt lat="41.959666963666677" lon="1.085898019373417">
        <ele>473.11000000000001</ele>
        <time>2025-05-14T09:31:05Z</time>
      </trkpt>
      <trkpt lat="41.961157014593482" lon="1.087046004831791">
        <ele>480.80000000000001</ele>
        <time>2025-05-14T09:31:13Z</time>
      </trkpt>
      <trkpt lat="41.962215984240174" lon="1.088461959734559">
        <ele>486.56</ele>
        <time>2025-05-14T09:31:20Z</time>
      </trkpt>
      <trkpt lat="41.96239703334868" lon="1.08859296888113">
        <ele>487.52999999999997</ele>
        <time>2025-05-14T09:31:21Z</time>
      </trkpt>
      <trkpt lat="41.962595013901591" lon="1.088685002177954">
        <ele>488.00999999999999</ele>
        <time>2025-05-14T09:31:22Z</time>
      </trkpt>
      <trkpt lat="41.962801041081548" lon="1.088759014382958">
        <ele>488.97000000000003</ele>
        <time>2025-05-14T09:31:23Z</time>
      </trkpt>
      <trkpt lat="41.963010001927614" lon="1.08882799744606">
        <ele>489.93000000000001</ele>
        <time>2025-05-14T09:31:24Z</time>
      </trkpt>
      <trkpt lat="41.963223991915584" lon="1.08884702436626">
        <ele>490.41000000000003</ele>
        <time>2025-05-14T09:31:25Z</time>
      </trkpt>
      <trkpt lat="41.963437981903553" lon="1.088865967467427">
        <ele>490.88999999999999</ele>
        <time>2025-05-14T09:31:26Z</time>
      </trkpt>
      <trkpt lat="41.965137999504805" lon="1.089240973815322">
        <ele>496.66000000000003</ele>
        <time>2025-05-14T09:31:34Z</time>
      </trkpt>
      <trkpt lat="41.966516990214586" lon="1.090013030916452">
        <ele>500.5</ele>
        <time>2025-05-14T09:31:41Z</time>
      </trkpt>
      <trkpt lat="41.966686975210905" lon="1.090168012306094">
        <ele>500.98000000000002</ele>
        <time>2025-05-14T09:31:42Z</time>
      </trkpt>
      <trkpt lat="41.967099029570818" lon="1.090619964525104">
        <ele>503.87</ele>
        <time>2025-05-14T09:31:45Z</time>
      </trkpt>
      <trkpt lat="41.967455008998513" lon="1.090937973931432">
        <ele>505.31</ele>
        <time>2025-05-14T09:31:48Z</time>
      </trkpt>
      <trkpt lat="41.967561962082982" lon="1.091011986136437">
        <ele>505.31</ele>
        <time>2025-05-14T09:31:49Z</time>
      </trkpt>
      <trkpt lat="41.967889023944736" lon="1.091194963082671">
        <ele>504.82999999999998</ele>
        <time>2025-05-14T09:31:53Z</time>
      </trkpt>
      <trkpt lat="41.968133021146059" lon="1.091265035793185">
        <ele>504.82999999999998</ele>
        <time>2025-05-14T09:31:54Z</time>
      </trkpt>
      <trkpt lat="41.968253972008824" lon="1.091299988329411">
        <ele>504.82999999999998</ele>
        <time>2025-05-14T09:31:55Z</time>
      </trkpt>
      <trkpt lat="41.968377018347383" lon="1.091310968622565">
        <ele>504.82999999999998</ele>
        <time>2025-05-14T09:31:56Z</time>
      </trkpt>
      <trkpt lat="41.968504004180431" lon="1.091303005814552">
        <ele>504.35000000000002</ele>
        <time>2025-05-14T09:31:57Z</time>
      </trkpt>
      <trkpt lat="41.968631995841861" lon="1.091294037178159">
        <ele>504.35000000000002</ele>
        <time>2025-05-14T09:31:58Z</time>
      </trkpt>
      <trkpt lat="41.968754036352038" lon="1.091237040236592">
        <ele>504.35000000000002</ele>
        <time>2025-05-14T09:31:59Z</time>
      </trkpt>
      <trkpt lat="41.968875993043184" lon="1.091179959475994">
        <ele>504.35000000000002</ele>
        <time>2025-05-14T09:32:00Z</time>
      </trkpt>
      <trkpt lat="41.968998033553362" lon="1.091122040525079">
        <ele>504.35000000000002</ele>
        <time>2025-05-14T09:32:01Z</time>
      </trkpt>
      <trkpt lat="41.969106998294592" lon="1.091036964207888">
        <ele>504.35000000000002</ele>
        <time>2025-05-14T09:32:02Z</time>
      </trkpt>
      <trkpt lat="41.969512011855841" lon="1.090715015307069">
        <ele>504.35000000000002</ele>
        <time>2025-05-14T09:32:06Z</time>
      </trkpt>
      <trkpt lat="41.96963899768889" lon="1.090679978951812">
        <ele>504.35000000000002</ele>
        <time>2025-05-14T09:32:07Z</time>
      </trkpt>
      <trkpt lat="41.96974796243012" lon="1.090650977566838">
        <ele>504.35000000000002</ele>
        <time>2025-05-14T09:32:08Z</time>
      </trkpt>
      <trkpt lat="41.969876037910581" lon="1.090687019750476">
        <ele>504.35000000000002</ele>
        <time>2025-05-14T09:32:09Z</time>
      </trkpt>
      <trkpt lat="41.969994977116585" lon="1.090720966458321">
        <ele>504.82999999999998</ele>
        <time>2025-05-14T09:32:10Z</time>
      </trkpt>
      <trkpt lat="41.970092039555311" lon="1.090785004198551">
        <ele>504.82999999999998</ele>
        <time>2025-05-14T09:32:11Z</time>
      </trkpt>
      <trkpt lat="41.970187006518245" lon="1.090890029445291">
        <ele>505.31</ele>
        <time>2025-05-14T09:32:12Z</time>
      </trkpt>
      <trkpt lat="41.970256995409727" lon="1.090993965044618">
        <ele>505.31</ele>
        <time>2025-05-14T09:32:13Z</time>
      </trkpt>
      <trkpt lat="41.970309969037771" lon="1.091145006939769">
        <ele>505.79000000000002</ele>
        <time>2025-05-14T09:32:14Z</time>
      </trkpt>
      <trkpt lat="41.970365960150957" lon="1.091306023299694">
        <ele>505.79000000000002</ele>
        <time>2025-05-14T09:32:15Z</time>
      </trkpt>
      <trkpt lat="41.970399990677834" lon="1.091465028002858">
        <ele>505.79000000000002</ele>
        <time>2025-05-14T09:32:16Z</time>
      </trkpt>
      <trkpt lat="41.970417005941272" lon="1.091649010777473">
        <ele>505.79000000000002</ele>
        <time>2025-05-14T09:32:17Z</time>
      </trkpt>
      <trkpt lat="41.970435027033091" lon="1.091829976066947">
        <ele>505.79000000000002</ele>
        <time>2025-05-14T09:32:18Z</time>
      </trkpt>
      <trkpt lat="41.970497975125909" lon="1.092692976817489">
        <ele>506.75</ele>
        <time>2025-05-14T09:32:23Z</time>
      </trkpt>
      <trkpt lat="41.970523037016392" lon="1.092850975692272">
        <ele>507.23000000000002</ele>
        <time>2025-05-14T09:32:24Z</time>
      </trkpt>
      <trkpt lat="41.970570981502533" lon="1.093020038679242">
        <ele>507.70999999999998</ele>
        <time>2025-05-14T09:32:25Z</time>
      </trkpt>
      <trkpt lat="41.970644993707538" lon="1.093156998977065">
        <ele>508.19</ele>
        <time>2025-05-14T09:32:26Z</time>
      </trkpt>
      <trkpt lat="41.970754964277148" lon="1.093279961496592">
        <ele>509.16000000000003</ele>
        <time>2025-05-14T09:32:27Z</time>
      </trkpt>
      <trkpt lat="41.970862001180649" lon="1.093376018106937">
        <ele>510.12</ele>
        <time>2025-05-14T09:32:28Z</time>
      </trkpt>
      <trkpt lat="41.971006002277136" lon="1.093421028926969">
        <ele>510.60000000000002</ele>
        <time>2025-05-14T09:32:29Z</time>
      </trkpt>
      <trkpt lat="41.971143968403339" lon="1.093439972028136">
        <ele>511.56</ele>
        <time>2025-05-14T09:32:30Z</time>
      </trkpt>
      <trkpt lat="41.971281012520194" lon="1.093440977856517">
        <ele>512.51999999999998</ele>
        <time>2025-05-14T09:32:31Z</time>
      </trkpt>
      <trkpt lat="41.971992971375585" lon="1.093612974509597">
        <ele>519.73000000000002</ele>
        <time>2025-05-14T09:32:36Z</time>
      </trkpt>
      <trkpt lat="41.97213102132082" lon="1.093711964786053">
        <ele>521.16999999999996</ele>
        <time>2025-05-14T09:32:37Z</time>
      </trkpt>
      <trkpt lat="41.972273010760546" lon="1.093840962275863">
        <ele>522.61000000000001</ele>
        <time>2025-05-14T09:32:38Z</time>
      </trkpt>
      <trkpt lat="41.973586035892367" lon="1.095151975750923">
        <ele>532.71000000000004</ele>
        <time>2025-05-14T09:32:46Z</time>
      </trkpt>
      <trkpt lat="41.973976967856288" lon="1.095411982387304">
        <ele>535.59000000000003</ele>
        <time>2025-05-14T09:32:48Z</time>
      </trkpt>
      <trkpt lat="41.974182995036244" lon="1.095468979328871">
        <ele>537.02999999999997</ele>
        <time>2025-05-14T09:32:49Z</time>
      </trkpt>
      <trkpt lat="41.974392039701343" lon="1.09550996683538">
        <ele>538.48000000000002</ele>
        <time>2025-05-14T09:32:50Z</time>
      </trkpt>
      <trkpt lat="41.974597983062267" lon="1.095516001805663">
        <ele>539.44000000000005</ele>
        <time>2025-05-14T09:32:51Z</time>
      </trkpt>
      <trkpt lat="41.974806021898985" lon="1.095508961006999">
        <ele>540.39999999999998</ele>
        <time>2025-05-14T09:32:52Z</time>
      </trkpt>
      <trkpt lat="41.975214974954724" lon="1.095533017069101">
        <ele>542.32000000000005</ele>
        <time>2025-05-14T09:32:54Z</time>
      </trkpt>
      <trkpt lat="41.975403986871243" lon="1.095592025667429">
        <ele>543.27999999999997</ele>
        <time>2025-05-14T09:32:55Z</time>
      </trkpt>
      <trkpt lat="41.975585035979748" lon="1.09568296931684">
        <ele>543.75999999999999</ele>
        <time>2025-05-14T09:32:56Z</time>
      </trkpt>
      <trkpt lat="41.975752003490925" lon="1.095818001776934">
        <ele>544.72000000000003</ele>
        <time>2025-05-14T09:32:57Z</time>
      </trkpt>
      <trkpt lat="41.975897010415792" lon="1.095998967066407">
        <ele>545.69000000000005</ele>
        <time>2025-05-14T09:32:58Z</time>
      </trkpt>
      <trkpt lat="41.976038999855518" lon="1.096209017559886">
        <ele>546.64999999999998</ele>
        <time>2025-05-14T09:32:59Z</time>
      </trkpt>
      <trkpt lat="41.976185012608767" lon="1.096426025032997">
        <ele>548.09000000000003</ele>
        <time>2025-05-14T09:33:00Z</time>
      </trkpt>
      <trkpt lat="41.976931001991034" lon="1.097573004662991">
        <ele>553.86000000000001</ele>
        <time>2025-05-14T09:33:05Z</time>
      </trkpt>
      <trkpt lat="41.977114984765649" lon="1.097741983830929">
        <ele>555.29999999999995</ele>
        <time>2025-05-14T09:33:06Z</time>
      </trkpt>
      <trkpt lat="41.977303996682167" lon="1.097881039604545">
        <ele>556.74000000000001</ele>
        <time>2025-05-14T09:33:07Z</time>
      </trkpt>
      <trkpt lat="41.977502983063459" lon="1.097999978810549">
        <ele>558.17999999999995</ele>
        <time>2025-05-14T09:33:08Z</time>
      </trkpt>
      <trkpt lat="41.977715967223048" lon="1.098096035420895">
        <ele>559.13999999999999</ele>
        <time>2025-05-14T09:33:09Z</time>
      </trkpt>
      <trkpt lat="41.979206018149853" lon="1.098992982879281">
        <ele>567.79999999999995</ele>
        <time>2025-05-14T09:33:16Z</time>
      </trkpt>
      <trkpt lat="41.98053396306932" lon="1.100518992170692">
        <ele>573.08000000000004</ele>
        <time>2025-05-14T09:33:23Z</time>
      </trkpt>
      <trkpt lat="41.981098987162113" lon="1.101505039259791">
        <ele>577.40999999999997</ele>
        <time>2025-05-14T09:33:27Z</time>
      </trkpt>
      <trkpt lat="41.981566026806831" lon="1.102397963404656">
        <ele>581.73000000000002</ele>
        <time>2025-05-14T09:33:31Z</time>
      </trkpt>
      <trkpt lat="41.981701981276274" lon="1.102571971714497">
        <ele>582.70000000000005</ele>
        <time>2025-05-14T09:33:32Z</time>
      </trkpt>
      <trkpt lat="41.98186500929296" lon="1.102673979476094">
        <ele>584.13999999999999</ele>
        <time>2025-05-14T09:33:33Z</time>
      </trkpt>
      <trkpt lat="41.982043040916324" lon="1.102747991681099">
        <ele>585.58000000000004</ele>
        <time>2025-05-14T09:33:34Z</time>
      </trkpt>
      <trkpt lat="41.982214031741023" lon="1.102762995287776">
        <ele>586.53999999999996</ele>
        <time>2025-05-14T09:33:35Z</time>
      </trkpt>
      <trkpt lat="41.982378987595439" lon="1.102745980024338">
        <ele>587.5</ele>
        <time>2025-05-14T09:33:36Z</time>
      </trkpt>
      <trkpt lat="41.982532041147351" lon="1.102721001952887">
        <ele>588.95000000000005</ele>
        <time>2025-05-14T09:33:37Z</time>
      </trkpt>
      <trkpt lat="41.982670007273555" lon="1.102635003626347">
        <ele>589.90999999999997</ele>
        <time>2025-05-14T09:33:38Z</time>
      </trkpt>
      <trkpt lat="41.982816020026803" lon="1.102558979764581">
        <ele>590.38999999999999</ele>
        <time>2025-05-14T09:33:39Z</time>
      </trkpt>
      <trkpt lat="41.982959015294909" lon="1.102457977831364">
        <ele>591.35000000000002</ele>
        <time>2025-05-14T09:33:40Z</time>
      </trkpt>
      <trkpt lat="41.983265960589051" lon="1.102287992835045">
        <ele>592.78999999999996</ele>
        <time>2025-05-14T09:33:42Z</time>
      </trkpt>
      <trkpt lat="41.983437035232782" lon="1.102259997278452">
        <ele>593.26999999999998</ele>
        <time>2025-05-14T09:33:43Z</time>
      </trkpt>
      <trkpt lat="41.983618000522256" lon="1.10225304029882">
        <ele>593.75</ele>
        <time>2025-05-14T09:33:44Z</time>
      </trkpt>
      <trkpt lat="41.983801983296871" lon="1.102310037240386">
        <ele>594.71000000000004</ele>
        <time>2025-05-14T09:33:45Z</time>
      </trkpt>
      <trkpt lat="41.98397196829319" lon="1.102432999759913">
        <ele>595.19000000000005</ele>
        <time>2025-05-14T09:33:46Z</time>
      </trkpt>
      <trkpt lat="41.984124016016722" lon="1.102565014734864">
        <ele>595.66999999999996</ele>
        <time>2025-05-14T09:33:47Z</time>
      </trkpt>
      <trkpt lat="41.984245972707868" lon="1.10275000333786">
        <ele>596.63999999999999</ele>
        <time>2025-05-14T09:33:48Z</time>
      </trkpt>
      <trkpt lat="41.984341023489833" lon="1.102928034961224">
        <ele>597.60000000000002</ele>
        <time>2025-05-14T09:33:49Z</time>
      </trkpt>
      <trkpt lat="41.9849160220474" lon="1.103886002674699">
        <ele>601.91999999999996</ele>
        <time>2025-05-14T09:33:55Z</time>
      </trkpt>
      <trkpt lat="41.985048037022352" lon="1.103993961587548">
        <ele>602.88</ele>
        <time>2025-05-14T09:33:56Z</time>
      </trkpt>
      <trkpt lat="41.98519597761333" lon="1.104095969349146">
        <ele>603.36000000000001</ele>
        <time>2025-05-14T09:33:57Z</time>
      </trkpt>
      <trkpt lat="41.98536898009479" lon="1.104190014302731">
        <ele>604.33000000000004</ele>
        <time>2025-05-14T09:33:58Z</time>
      </trkpt>
      <trkpt lat="41.985542988404632" lon="1.104233013466001">
        <ele>604.80999999999995</ele>
        <time>2025-05-14T09:33:59Z</time>
      </trkpt>
      <trkpt lat="41.98697897605598" lon="1.104511041194201">
        <ele>609.13</ele>
        <time>2025-05-14T09:34:06Z</time>
      </trkpt>
      <trkpt lat="41.98719103820622" lon="1.104494025930762">
        <ele>610.09000000000003</ele>
        <time>2025-05-14T09:34:07Z</time>
      </trkpt>
      <trkpt lat="41.987404022365808" lon="1.104478016495705">
        <ele>610.57000000000005</ele>
        <time>2025-05-14T09:34:08Z</time>
      </trkpt>
      <trkpt lat="41.98929799720645" lon="1.103946017101407">
        <ele>617.77999999999997</ele>
        <time>2025-05-14T09:34:17Z</time>
      </trkpt>
      <trkpt lat="41.989938961341977" lon="1.103872004896402">
        <ele>620.19000000000005</ele>
        <time>2025-05-14T09:34:20Z</time>
      </trkpt>
      <trkpt lat="41.990149011835456" lon="1.103907041251659">
        <ele>621.14999999999998</ele>
        <time>2025-05-14T09:34:21Z</time>
      </trkpt>
      <trkpt lat="41.990332994610071" lon="1.104026986286044">
        <ele>622.11000000000001</ele>
        <time>2025-05-14T09:34:22Z</time>
      </trkpt>
      <trkpt lat="41.990510020405054" lon="1.104157995432615">
        <ele>622.59000000000003</ele>
        <time>2025-05-14T09:34:23Z</time>
      </trkpt>
      <trkpt lat="41.990669025108218" lon="1.104276012629271">
        <ele>623.54999999999995</ele>
        <time>2025-05-14T09:34:24Z</time>
      </trkpt>
      <trkpt lat="41.990791987627745" lon="1.104466030374169">
        <ele>624.02999999999997</ele>
        <time>2025-05-14T09:34:25Z</time>
      </trkpt>
      <trkpt lat="41.990916039794683" lon="1.104664010927081">
        <ele>625.47000000000003</ele>
        <time>2025-05-14T09:34:26Z</time>
      </trkpt>
      <trkpt lat="41.991026010364294" lon="1.104902978986502">
        <ele>626.91999999999996</ele>
        <time>2025-05-14T09:34:27Z</time>
      </trkpt>
      <trkpt lat="41.992142982780933" lon="1.107750982046127">
        <ele>638.92999999999995</ele>
        <time>2025-05-14T09:34:38Z</time>
      </trkpt>
      <trkpt lat="41.99235001578927" lon="1.108253980055451">
        <ele>641.34000000000003</ele>
        <time>2025-05-14T09:34:40Z</time>
      </trkpt>
      <trkpt lat="41.992473984137177" lon="1.108484985306859">
        <ele>642.77999999999997</ele>
        <time>2025-05-14T09:34:41Z</time>
      </trkpt>
      <trkpt lat="41.992598036304116" lon="1.108716996386647">
        <ele>644.22000000000003</ele>
        <time>2025-05-14T09:34:42Z</time>
      </trkpt>
      <trkpt lat="41.992767015472054" lon="1.108892010524869">
        <ele>645.65999999999997</ele>
        <time>2025-05-14T09:34:43Z</time>
      </trkpt>
      <trkpt lat="41.992947980761528" lon="1.109041040763259">
        <ele>647.10000000000002</ele>
        <time>2025-05-14T09:34:44Z</time>
      </trkpt>
      <trkpt lat="41.993137998506427" lon="1.109158974140883">
        <ele>648.07000000000005</ele>
        <time>2025-05-14T09:34:45Z</time>
      </trkpt>
      <trkpt lat="41.993342014029622" lon="1.109236003831029">
        <ele>649.50999999999999</ele>
        <time>2025-05-14T09:34:46Z</time>
      </trkpt>
      <trkpt lat="41.993550974875689" lon="1.109297024086118">
        <ele>650.47000000000003</ele>
        <time>2025-05-14T09:34:47Z</time>
      </trkpt>
      <trkpt lat="41.993762031197548" lon="1.109297024086118">
        <ele>651.90999999999997</ele>
        <time>2025-05-14T09:34:48Z</time>
      </trkpt>
      <trkpt lat="41.993966968730092" lon="1.109242038801312">
        <ele>652.87</ele>
        <time>2025-05-14T09:34:49Z</time>
      </trkpt>
      <trkpt lat="41.994174001738429" lon="1.109172971919179">
        <ele>653.83000000000004</ele>
        <time>2025-05-14T09:34:50Z</time>
      </trkpt>
      <trkpt lat="41.994380028918386" lon="1.109086973592639">
        <ele>654.79999999999995</ele>
        <time>2025-05-14T09:34:51Z</time>
      </trkpt>
      <trkpt lat="41.994575997814536" lon="1.108964011073113">
        <ele>655.27999999999997</ele>
        <time>2025-05-14T09:34:52Z</time>
      </trkpt>
      <trkpt lat="41.994770960882306" lon="1.108841970562935">
        <ele>656.24000000000001</ele>
        <time>2025-05-14T09:34:53Z</time>
      </trkpt>
      <trkpt lat="41.994965001940727" lon="1.10872101970017">
        <ele>656.72000000000003</ele>
        <time>2025-05-14T09:34:54Z</time>
      </trkpt>
      <trkpt lat="41.99516398832202" lon="1.10863502137363">
        <ele>657.67999999999995</ele>
        <time>2025-05-14T09:34:55Z</time>
      </trkpt>
      <trkpt lat="41.995368003845215" lon="1.108582969754934">
        <ele>658.15999999999997</ele>
        <time>2025-05-14T09:34:56Z</time>
      </trkpt>
      <trkpt lat="41.995561961084604" lon="1.108567966148257">
        <ele>658.63999999999999</ele>
        <time>2025-05-14T09:34:57Z</time>
      </trkpt>
      <trkpt lat="41.995783997699618" lon="1.108630998060107">
        <ele>659.12</ele>
        <time>2025-05-14T09:34:58Z</time>
      </trkpt>
      <trkpt lat="41.995991030707955" lon="1.108690006658435">
        <ele>659.60000000000002</ele>
        <time>2025-05-14T09:34:59Z</time>
      </trkpt>
      <trkpt lat="41.996175013482571" lon="1.108820009976625">
        <ele>660.08000000000004</ele>
        <time>2025-05-14T09:35:00Z</time>
      </trkpt>
      <trkpt lat="41.996358996257186" lon="1.10895998775959">
        <ele>660.55999999999995</ele>
        <time>2025-05-14T09:35:01Z</time>
      </trkpt>
      <trkpt lat="41.996545996516943" lon="1.109100971370935">
        <ele>661.03999999999996</ele>
        <time>2025-05-14T09:35:02Z</time>
      </trkpt>
      <trkpt lat="41.998135959729552" lon="1.109957015141845">
        <ele>665.85000000000002</ele>
        <time>2025-05-14T09:35:10Z</time>
      </trkpt>
      <trkpt lat="41.999208005145192" lon="1.110288016498089">
        <ele>671.13999999999999</ele>
        <time>2025-05-14T09:35:15Z</time>
      </trkpt>
      <trkpt lat="42.000699983909726" lon="1.110291033983231">
        <ele>681.23000000000002</ele>
        <time>2025-05-14T09:35:22Z</time>
      </trkpt>
      <trkpt lat="42.000912968069315" lon="1.110310982912779">
        <ele>682.66999999999996</ele>
        <time>2025-05-14T09:35:23Z</time>
      </trkpt>
      <trkpt lat="42.001122012734413" lon="1.110345013439655">
        <ele>684.12</ele>
        <time>2025-05-14T09:35:24Z</time>
      </trkpt>
      <trkpt lat="42.001320999115705" lon="1.110445009544492">
        <ele>685.55999999999995</ele>
        <time>2025-05-14T09:35:25Z</time>
      </trkpt>
      <trkpt lat="42.001510011032224" lon="1.110556991770864">
        <ele>686.51999999999998</ele>
        <time>2025-05-14T09:35:26Z</time>
      </trkpt>
      <trkpt lat="42.001692987978458" lon="1.110698981210589">
        <ele>687.96000000000004</ele>
        <time>2025-05-14T09:35:27Z</time>
      </trkpt>
      <trkpt lat="42.002263963222504" lon="1.111109023913741">
        <ele>691.33000000000004</ele>
        <time>2025-05-14T09:35:30Z</time>
      </trkpt>
      <trkpt lat="42.002472002059221" lon="1.111179012805224">
        <ele>692.28999999999996</ele>
        <time>2025-05-14T09:35:31Z</time>
      </trkpt>
      <trkpt lat="42.002680962905288" lon="1.111247995868325">
        <ele>693.25</ele>
        <time>2025-05-14T09:35:32Z</time>
      </trkpt>
      <trkpt lat="42.004350973293185" lon="1.111805979162455">
        <ele>699.5</ele>
        <time>2025-05-14T09:35:40Z</time>
      </trkpt>
      <trkpt lat="42.00592802837491" lon="1.112750032916665">
        <ele>703.82000000000005</ele>
        <time>2025-05-14T09:35:48Z</time>
      </trkpt>
      <trkpt lat="42.007810017094016" lon="1.1132110375911">
        <ele>711.99000000000001</ele>
        <time>2025-05-14T09:35:57Z</time>
      </trkpt>
      <trkpt lat="42.009931979700923" lon="1.11336400732398">
        <ele>721.13</ele>
        <time>2025-05-14T09:36:07Z</time>
      </trkpt>
      <trkpt lat="42.011645995080471" lon="1.113335005939007">
        <ele>728.34000000000003</ele>
        <time>2025-05-14T09:36:15Z</time>
      </trkpt>
      <trkpt lat="42.013138979673386" lon="1.113726021721959">
        <ele>735.54999999999995</ele>
        <time>2025-05-14T09:36:23Z</time>
      </trkpt>
      <trkpt lat="42.013567965477705" lon="1.113852001726627">
        <ele>738.42999999999995</ele>
        <time>2025-05-14T09:36:26Z</time>
      </trkpt>
      <trkpt lat="42.013678019866347" lon="1.113885026425123">
        <ele>738.90999999999997</ele>
        <time>2025-05-14T09:36:27Z</time>
      </trkpt>
      <trkpt lat="42.013754965737462" lon="1.114027015864849">
        <ele>739.38999999999999</ele>
        <time>2025-05-14T09:36:28Z</time>
      </trkpt>
      <trkpt lat="42.013806011527777" lon="1.114143021404743">
        <ele>739.87</ele>
        <time>2025-05-14T09:36:29Z</time>
      </trkpt>
      <trkpt lat="42.013864014297724" lon="1.114289034157991">
        <ele>740.35000000000002</ele>
        <time>2025-05-14T09:36:30Z</time>
      </trkpt>
      <trkpt lat="42.013853034004569" lon="1.114433035254479">
        <ele>740.83000000000004</ele>
        <time>2025-05-14T09:36:31Z</time>
      </trkpt>
      <trkpt lat="42.013836018741131" lon="1.114598996937275">
        <ele>740.83000000000004</ele>
        <time>2025-05-14T09:36:32Z</time>
      </trkpt>
      <trkpt lat="42.013807017356157" lon="1.114773005247116">
        <ele>740.83000000000004</ele>
        <time>2025-05-14T09:36:33Z</time>
      </trkpt>
      <trkpt lat="42.013779021799564" lon="1.114940978586674">
        <ele>740.83000000000004</ele>
        <time>2025-05-14T09:36:34Z</time>
      </trkpt>
      <trkpt lat="42.013803999871016" lon="1.115139964967966">
        <ele>740.83000000000004</ele>
        <time>2025-05-14T09:36:35Z</time>
      </trkpt>
      <trkpt lat="42.013837024569511" lon="1.115321014076471">
        <ele>740.35000000000002</ele>
        <time>2025-05-14T09:36:36Z</time>
      </trkpt>
      <trkpt lat="42.013912964612246" lon="1.115506002679467">
        <ele>739.38999999999999</ele>
        <time>2025-05-14T09:36:37Z</time>
      </trkpt>
      <trkpt lat="42.013992005959153" lon="1.115698032081127">
        <ele>738.42999999999995</ele>
        <time>2025-05-14T09:36:38Z</time>
      </trkpt>
      <trkpt lat="42.01407196931541" lon="1.115892995148897">
        <ele>736.99000000000001</ele>
        <time>2025-05-14T09:36:39Z</time>
      </trkpt>
      <trkpt lat="42.014381010085344" lon="1.116686007007957">
        <ele>730.25999999999999</ele>
        <time>2025-05-14T09:36:43Z</time>
      </trkpt>
      <trkpt lat="42.014423003420234" lon="1.116893040016294">
        <ele>728.34000000000003</ele>
        <time>2025-05-14T09:36:44Z</time>
      </trkpt>
      <trkpt lat="42.014423003420234" lon="1.117147011682391">
        <ele>726.88999999999999</ele>
        <time>2025-05-14T09:36:45Z</time>
      </trkpt>
      <trkpt lat="42.014423003420234" lon="1.117394026368856">
        <ele>725.45000000000005</ele>
        <time>2025-05-14T09:36:46Z</time>
      </trkpt>
      <trkpt lat="42.014397019520402" lon="1.117643974721432">
        <ele>723.04999999999995</ele>
        <time>2025-05-14T09:36:47Z</time>
      </trkpt>
      <trkpt lat="42.014357959851623" lon="1.117899036034942">
        <ele>721.13</ele>
        <time>2025-05-14T09:36:48Z</time>
      </trkpt>
      <trkpt lat="42.013951018452644" lon="1.120566995814443">
        <ele>701.41999999999996</ele>
        <time>2025-05-14T09:36:58Z</time>
      </trkpt>
      <trkpt lat="42.013523038476706" lon="1.123362025246024">
        <ele>686.51999999999998</ele>
        <time>2025-05-14T09:37:08Z</time>
      </trkpt>
      <trkpt lat="42.013136968016624" lon="1.126741021871567">
        <ele>672.58000000000004</ele>
        <time>2025-05-14T09:37:20Z</time>
      </trkpt>
      <trkpt lat="42.01323595829308" lon="1.129676029086113">
        <ele>665.85000000000002</ele>
        <time>2025-05-14T09:37:30Z</time>
      </trkpt>
      <trkpt lat="42.013354981318116" lon="1.131117967888713">
        <ele>660.08000000000004</ele>
        <time>2025-05-14T09:37:35Z</time>
      </trkpt>
      <trkpt lat="42.013322962448001" lon="1.131371017545462">
        <ele>658.63999999999999</ele>
        <time>2025-05-14T09:37:36Z</time>
      </trkpt>
      <trkpt lat="42.013293039053679" lon="1.131597999483347">
        <ele>657.20000000000005</ele>
        <time>2025-05-14T09:37:37Z</time>
      </trkpt>
      <trkpt lat="42.013238975778222" lon="1.131788017228246">
        <ele>656.24000000000001</ele>
        <time>2025-05-14T09:37:38Z</time>
      </trkpt>
      <trkpt lat="42.013170998543501" lon="1.131981974467635">
        <ele>654.79999999999995</ele>
        <time>2025-05-14T09:37:39Z</time>
      </trkpt>
      <trkpt lat="42.013068990781903" lon="1.132131004706025">
        <ele>653.83000000000004</ele>
        <time>2025-05-14T09:37:40Z</time>
      </trkpt>
      <trkpt lat="42.012951979413629" lon="1.132277017459273">
        <ele>652.38999999999999</ele>
        <time>2025-05-14T09:37:41Z</time>
      </trkpt>
      <trkpt lat="42.012833040207624" lon="1.132384976372123">
        <ele>650.95000000000005</ele>
        <time>2025-05-14T09:37:42Z</time>
      </trkpt>
      <trkpt lat="42.01269599609077" lon="1.132470974698663">
        <ele>649.50999999999999</ele>
        <time>2025-05-14T09:37:43Z</time>
      </trkpt>
      <trkpt lat="42.012563981115818" lon="1.132554961368442">
        <ele>648.54999999999995</ele>
        <time>2025-05-14T09:37:44Z</time>
      </trkpt>
      <trkpt lat="42.012432971969247" lon="1.132616987451911">
        <ele>647.10000000000002</ele>
        <time>2025-05-14T09:37:45Z</time>
      </trkpt>
      <trkpt lat="42.012290982529521" lon="1.13265797495842">
        <ele>645.65999999999997</ele>
        <time>2025-05-14T09:37:46Z</time>
      </trkpt>
      <trkpt lat="42.011165041476488" lon="1.133059971034527">
        <ele>637.49000000000001</ele>
        <time>2025-05-14T09:37:53Z</time>
      </trkpt>
      <trkpt lat="42.010629018768668" lon="1.133459033444524">
        <ele>632.67999999999995</ele>
        <time>2025-05-14T09:37:56Z</time>
      </trkpt>
      <trkpt lat="42.010470014065504" lon="1.133652990683913">
        <ele>630.75999999999999</ele>
        <time>2025-05-14T09:37:57Z</time>
      </trkpt>
      <trkpt lat="42.010314026847482" lon="1.133856000378728">
        <ele>628.84000000000003</ele>
        <time>2025-05-14T09:37:58Z</time>
      </trkpt>
      <trkpt lat="42.010173965245485" lon="1.134037971496582">
        <ele>626.91999999999996</ele>
        <time>2025-05-14T09:37:59Z</time>
      </trkpt>
      <trkpt lat="42.010057037696242" lon="1.13429001532495">
        <ele>625.47000000000003</ele>
        <time>2025-05-14T09:38:00Z</time>
      </trkpt>
      <trkpt lat="42.009951006621122" lon="1.134516997262836">
        <ele>624.02999999999997</ele>
        <time>2025-05-14T09:38:01Z</time>
      </trkpt>
      <trkpt lat="42.009852016344666" lon="1.134749008342624">
        <ele>622.59000000000003</ele>
        <time>2025-05-14T09:38:02Z</time>
      </trkpt>
      <trkpt lat="42.009772974997759" lon="1.134995017200708">
        <ele>621.63</ele>
        <time>2025-05-14T09:38:03Z</time>
      </trkpt>
      <trkpt lat="42.009204011410475" lon="1.136472998186946">
        <ele>619.23000000000002</ele>
        <time>2025-05-14T09:38:09Z</time>
      </trkpt>
      <trkpt lat="42.009068978950381" lon="1.136690005660057">
        <ele>619.23000000000002</ele>
        <time>2025-05-14T09:38:10Z</time>
      </trkpt>
      <trkpt lat="42.008929001167417" lon="1.136895027011633">
        <ele>618.75</ele>
        <time>2025-05-14T09:38:11Z</time>
      </trkpt>
      <trkpt lat="42.008769996464252" lon="1.137072974815965">
        <ele>618.25999999999999</ele>
        <time>2025-05-14T09:38:12Z</time>
      </trkpt>
      <trkpt lat="42.008603028953075" lon="1.137240026146174">
        <ele>618.25999999999999</ele>
        <time>2025-05-14T09:38:13Z</time>
      </trkpt>
      <trkpt lat="42.008436983451247" lon="1.13740598782897">
        <ele>617.77999999999997</ele>
        <time>2025-05-14T09:38:14Z</time>
      </trkpt>
      <trkpt lat="42.00764698907733" lon="1.138320034369826">
        <ele>618.25999999999999</ele>
        <time>2025-05-14T09:38:19Z</time>
      </trkpt>
      <trkpt lat="42.007523020729423" lon="1.138538969680667">
        <ele>619.23000000000002</ele>
        <time>2025-05-14T09:38:20Z</time>
      </trkpt>
      <trkpt lat="42.007406009361148" lon="1.138764023780823">
        <ele>620.19000000000005</ele>
        <time>2025-05-14T09:38:21Z</time>
      </trkpt>
      <trkpt lat="42.007297966629267" lon="1.138999974355102">
        <ele>620.66999999999996</ele>
        <time>2025-05-14T09:38:22Z</time>
      </trkpt>
      <trkpt lat="42.007215991616249" lon="1.139260986819863">
        <ele>621.14999999999998</ele>
        <time>2025-05-14T09:38:23Z</time>
      </trkpt>
      <trkpt lat="42.007161006331444" lon="1.139535997062922">
        <ele>622.11000000000001</ele>
        <time>2025-05-14T09:38:24Z</time>
      </trkpt>
      <trkpt lat="42.007126975804567" lon="1.139814024791122">
        <ele>623.07000000000005</ele>
        <time>2025-05-14T09:38:25Z</time>
      </trkpt>
      <trkpt lat="42.007126975804567" lon="1.14009004086256">
        <ele>624.02999999999997</ele>
        <time>2025-05-14T09:38:26Z</time>
      </trkpt>
      <trkpt lat="42.007126975804567" lon="1.140372008085251">
        <ele>624.99000000000001</ele>
        <time>2025-05-14T09:38:27Z</time>
      </trkpt>
      <trkpt lat="42.007167041301727" lon="1.140659004449844">
        <ele>625.96000000000004</ele>
        <time>2025-05-14T09:38:28Z</time>
      </trkpt>
      <trkpt lat="42.007219009101391" lon="1.140943989157677">
        <ele>626.91999999999996</ele>
        <time>2025-05-14T09:38:29Z</time>
      </trkpt>
      <trkpt lat="42.007282041013241" lon="1.141232997179031">
        <ele>627.39999999999998</ele>
        <time>2025-05-14T09:38:30Z</time>
      </trkpt>
      <trkpt lat="42.008004980161786" lon="1.144314017146826">
        <ele>627.88</ele>
        <time>2025-05-14T09:38:40Z</time>
      </trkpt>
      <trkpt lat="42.008838979527354" lon="1.147237960249186">
        <ele>626.91999999999996</ele>
        <time>2025-05-14T09:38:50Z</time>
      </trkpt>
      <trkpt lat="42.00891399756074" lon="1.14752403460443">
        <ele>626.91999999999996</ele>
        <time>2025-05-14T09:38:51Z</time>
      </trkpt>
      <trkpt lat="42.008979041129351" lon="1.14780399017036">
        <ele>626.44000000000005</ele>
        <time>2025-05-14T09:38:52Z</time>
      </trkpt>
      <trkpt lat="42.009014999493957" lon="1.148088974878192">
        <ele>626.44000000000005</ele>
        <time>2025-05-14T09:38:53Z</time>
      </trkpt>
      <trkpt lat="42.009121030569077" lon="1.148937977850437">
        <ele>626.44000000000005</ele>
        <time>2025-05-14T09:38:56Z</time>
      </trkpt>
      <trkpt lat="42.009183978661895" lon="1.149194967001677">
        <ele>626.91999999999996</ele>
        <time>2025-05-14T09:38:57Z</time>
      </trkpt>
      <trkpt lat="42.009274000301957" lon="1.149425972253084">
        <ele>627.39999999999998</ele>
        <time>2025-05-14T09:38:58Z</time>
      </trkpt>
      <trkpt lat="42.009380031377077" lon="1.149638034403324">
        <ele>627.39999999999998</ele>
        <time>2025-05-14T09:38:59Z</time>
      </trkpt>
      <trkpt lat="42.009539036080241" lon="1.149806007742882">
        <ele>628.36000000000001</ele>
        <time>2025-05-14T09:39:00Z</time>
      </trkpt>
      <trkpt lat="42.009697034955025" lon="1.149971969425678">
        <ele>628.84000000000003</ele>
        <time>2025-05-14T09:39:01Z</time>
      </trkpt>
      <trkpt lat="42.009871965274215" lon="1.150090992450714">
        <ele>629.79999999999995</ele>
        <time>2025-05-14T09:39:02Z</time>
      </trkpt>
      <trkpt lat="42.010062988847494" lon="1.150191994383931">
        <ele>630.27999999999997</ele>
        <time>2025-05-14T09:39:03Z</time>
      </trkpt>
      <trkpt lat="42.010260969400406" lon="1.150239016860724">
        <ele>631.24000000000001</ele>
        <time>2025-05-14T09:39:04Z</time>
      </trkpt>
      <trkpt lat="42.010469008237123" lon="1.150269024074078">
        <ele>631.72000000000003</ele>
        <time>2025-05-14T09:39:05Z</time>
      </trkpt>
      <trkpt lat="42.01067796908319" lon="1.150299031287432">
        <ele>632.67999999999995</ele>
        <time>2025-05-14T09:39:06Z</time>
      </trkpt>
      <trkpt lat="42.01188001781702" lon="1.150545962154865">
        <ele>635.57000000000005</ele>
        <time>2025-05-14T09:39:12Z</time>
      </trkpt>
      <trkpt lat="42.01205100864172" lon="1.150649981573224">
        <ele>635.57000000000005</ele>
        <time>2025-05-14T09:39:13Z</time>
      </trkpt>
      <trkpt lat="42.012221999466419" lon="1.150754000991583">
        <ele>635.57000000000005</ele>
        <time>2025-05-14T09:39:14Z</time>
      </trkpt>
      <trkpt lat="42.012381004169583" lon="1.150900013744831">
        <ele>635.57000000000005</ele>
        <time>2025-05-14T09:39:15Z</time>
      </trkpt>
      <trkpt lat="42.012520981952548" lon="1.151087014004588">
        <ele>635.09000000000003</ele>
        <time>2025-05-14T09:39:16Z</time>
      </trkpt>
      <trkpt lat="42.012604968622327" lon="1.151302009820938">
        <ele>634.13</ele>
        <time>2025-05-14T09:39:17Z</time>
      </trkpt>
      <trkpt lat="42.012664983049035" lon="1.151517005637288">
        <ele>633.16999999999996</ele>
        <time>2025-05-14T09:39:18Z</time>
      </trkpt>
      <trkpt lat="42.012708988040686" lon="1.151752034202218">
        <ele>631.72000000000003</ele>
        <time>2025-05-14T09:39:19Z</time>
      </trkpt>
      <trkpt lat="42.012722985818982" lon="1.151997959241271">
        <ele>630.27999999999997</ele>
        <time>2025-05-14T09:39:20Z</time>
      </trkpt>
      <trkpt lat="42.012714017182589" lon="1.152264000847936">
        <ele>628.36000000000001</ele>
        <time>2025-05-14T09:39:21Z</time>
      </trkpt>
      <trkpt lat="42.012702031061053" lon="1.152544040232897">
        <ele>626.91999999999996</ele>
        <time>2025-05-14T09:39:22Z</time>
      </trkpt>
      <trkpt lat="42.012600023299456" lon="1.153974998742342">
        <ele>616.34000000000003</ele>
        <time>2025-05-14T09:39:27Z</time>
      </trkpt>
      <trkpt lat="42.012643022462726" lon="1.154241040349007">
        <ele>614.41999999999996</ele>
        <time>2025-05-14T09:39:28Z</time>
      </trkpt>
      <trkpt lat="42.012689961120486" lon="1.15450800396502">
        <ele>612.5</ele>
        <time>2025-05-14T09:39:29Z</time>
      </trkpt>
      <trkpt lat="42.012751987203956" lon="1.154772033914924">
        <ele>610.57000000000005</ele>
        <time>2025-05-14T09:39:30Z</time>
      </trkpt>
      <trkpt lat="42.012871010228992" lon="1.155008990317583">
        <ele>608.64999999999998</ele>
        <time>2025-05-14T09:39:31Z</time>
      </trkpt>
      <trkpt lat="42.012992966920137" lon="1.155253993347287">
        <ele>606.73000000000002</ele>
        <time>2025-05-14T09:39:32Z</time>
      </trkpt>
      <trkpt lat="42.013153983280063" lon="1.155464965850115">
        <ele>604.33000000000004</ele>
        <time>2025-05-14T09:39:33Z</time>
      </trkpt>
      <trkpt lat="42.013324974104762" lon="1.155658001080155">
        <ele>602.88</ele>
        <time>2025-05-14T09:39:34Z</time>
      </trkpt>
      <trkpt lat="42.013509040698409" lon="1.155829997733235">
        <ele>601.44000000000005</ele>
        <time>2025-05-14T09:39:35Z</time>
      </trkpt>
      <trkpt lat="42.013693023473024" lon="1.1559890024364">
        <ele>600.48000000000002</ele>
        <time>2025-05-14T09:39:36Z</time>
      </trkpt>
      <trkpt lat="42.016334999352694" lon="1.157951960340142">
        <ele>607.21000000000004</ele>
        <time>2025-05-14T09:39:49Z</time>
      </trkpt>
      <trkpt lat="42.017722958698869" lon="1.158305006101728">
        <ele>615.86000000000001</ele>
        <time>2025-05-14T09:39:55Z</time>
      </trkpt>
      <trkpt lat="42.018309021368623" lon="1.158410031348467">
        <ele>620.19000000000005</ele>
        <time>2025-05-14T09:39:58Z</time>
      </trkpt>
      <trkpt lat="42.01862895861268" lon="1.158564006909728">
        <ele>622.11000000000001</ele>
        <time>2025-05-14T09:40:00Z</time>
      </trkpt>
      <trkpt lat="42.018766002729535" lon="1.158733991906047">
        <ele>623.54999999999995</ele>
        <time>2025-05-14T09:40:01Z</time>
      </trkpt>
      <trkpt lat="42.018892988562584" lon="1.158889979124069">
        <ele>624.99000000000001</ele>
        <time>2025-05-14T09:40:02Z</time>
      </trkpt>
      <trkpt lat="42.018973035737872" lon="1.15906298160553">
        <ele>625.47000000000003</ele>
        <time>2025-05-14T09:40:03Z</time>
      </trkpt>
      <trkpt lat="42.019015029072762" lon="1.159164989367127">
        <ele>626.91999999999996</ele>
        <time>2025-05-14T09:40:04Z</time>
      </trkpt>
      <trkpt lat="42.01905501075089" lon="1.159448968246579">
        <ele>627.88</ele>
        <time>2025-05-14T09:40:05Z</time>
      </trkpt>
      <trkpt lat="42.01907898299396" lon="1.159616019576788">
        <ele>628.36000000000001</ele>
        <time>2025-05-14T09:40:06Z</time>
      </trkpt>
      <trkpt lat="42.019060961902142" lon="1.159830009564757">
        <ele>629.79999999999995</ele>
        <time>2025-05-14T09:40:07Z</time>
      </trkpt>
      <trkpt lat="42.019058028236032" lon="1.159873008728027">
        <ele>630.27999999999997</ele>
        <time>2025-05-14T09:40:08Z</time>
      </trkpt>
      <trkpt lat="42.018980998545885" lon="1.160104013979435">
        <ele>630.75999999999999</ele>
        <time>2025-05-14T09:40:09Z</time>
      </trkpt>
      <trkpt lat="42.018929030746222" lon="1.160258995369077">
        <ele>631.72000000000003</ele>
        <time>2025-05-14T09:40:10Z</time>
      </trkpt>
      <trkpt lat="42.018853006884456" lon="1.160363014787436">
        <ele>632.20000000000005</ele>
        <time>2025-05-14T09:40:11Z</time>
      </trkpt>
      <trkpt lat="42.018692996352911" lon="1.160581028088927">
        <ele>633.16999999999996</ele>
        <time>2025-05-14T09:40:12Z</time>
      </trkpt>
      <trkpt lat="42.01851898804307" lon="1.160742966458201">
        <ele>633.64999999999998</ele>
        <time>2025-05-14T09:40:13Z</time>
      </trkpt>
      <trkpt lat="42.018177006393671" lon="1.16106198169291">
        <ele>635.09000000000003</ele>
        <time>2025-05-14T09:40:15Z</time>
      </trkpt>
      <trkpt lat="42.018005009740591" lon="1.161222998052836">
        <ele>635.09000000000003</ele>
        <time>2025-05-14T09:40:16Z</time>
      </trkpt>
      <trkpt lat="42.01783200725913" lon="1.161385020241141">
        <ele>636.52999999999997</ele>
        <time>2025-05-14T09:40:17Z</time>
      </trkpt>
      <trkpt lat="42.017678031697869" lon="1.161575959995389">
        <ele>637.00999999999999</ele>
        <time>2025-05-14T09:40:18Z</time>
      </trkpt>
      <trkpt lat="42.017589015886188" lon="1.161742005497217">
        <ele>637.49000000000001</ele>
        <time>2025-05-14T09:40:19Z</time>
      </trkpt>
      <trkpt lat="42.017523972317576" lon="1.161939986050129">
        <ele>638.45000000000005</ele>
        <time>2025-05-14T09:40:20Z</time>
      </trkpt>
      <trkpt lat="42.017488013952971" lon="1.162104019895196">
        <ele>638.92999999999995</ele>
        <time>2025-05-14T09:40:21Z</time>
      </trkpt>
      <trkpt lat="42.017474016174674" lon="1.162294037640095">
        <ele>638.45000000000005</ele>
        <time>2025-05-14T09:40:22Z</time>
      </trkpt>
      <trkpt lat="42.017484996467829" lon="1.162449019029737">
        <ele>637.49000000000001</ele>
        <time>2025-05-14T09:40:23Z</time>
      </trkpt>
      <trkpt lat="42.017495976760983" lon="1.162616992369294">
        <ele>636.52999999999997</ele>
        <time>2025-05-14T09:40:24Z</time>
      </trkpt>
      <trkpt lat="42.017512992024422" lon="1.162855960428715">
        <ele>636.52999999999997</ele>
        <time>2025-05-14T09:40:25Z</time>
      </trkpt>
      <trkpt lat="42.017663028091192" lon="1.163673028349876">
        <ele>636.04999999999995</ele>
        <time>2025-05-14T09:40:29Z</time>
      </trkpt>
      <trkpt lat="42.017663028091192" lon="1.163916019722819">
        <ele>636.04999999999995</ele>
        <time>2025-05-14T09:40:30Z</time>
      </trkpt>
      <trkpt lat="42.017581975087523" lon="1.164710959419608">
        <ele>637.97000000000003</ele>
        <time>2025-05-14T09:40:33Z</time>
      </trkpt>
      <trkpt lat="42.017286010086536" lon="1.16602499037981">
        <ele>642.77999999999997</ele>
        <time>2025-05-14T09:40:38Z</time>
      </trkpt>
      <trkpt lat="42.017201017588377" lon="1.166270999237895">
        <ele>644.22000000000003</ele>
        <time>2025-05-14T09:40:39Z</time>
      </trkpt>
      <trkpt lat="42.017118958756328" lon="1.166511978954077">
        <ele>645.65999999999997</ele>
        <time>2025-05-14T09:40:40Z</time>
      </trkpt>
      <trkpt lat="42.017022985965014" lon="1.166768968105316">
        <ele>647.10000000000002</ele>
        <time>2025-05-14T09:40:41Z</time>
      </trkpt>
      <trkpt lat="42.016892982646823" lon="1.166981030255556">
        <ele>648.54999999999995</ele>
        <time>2025-05-14T09:40:42Z</time>
      </trkpt>
      <trkpt lat="42.016738001257181" lon="1.167197031900287">
        <ele>649.99000000000001</ele>
        <time>2025-05-14T09:40:43Z</time>
      </trkpt>
      <trkpt lat="42.016572961583734" lon="1.167371962219477">
        <ele>651.42999999999995</ele>
        <time>2025-05-14T09:40:44Z</time>
      </trkpt>
      <trkpt lat="42.016388978809118" lon="1.167544964700937">
        <ele>652.87</ele>
        <time>2025-05-14T09:40:45Z</time>
      </trkpt>
      <trkpt lat="42.016203990206122" lon="1.167684020474553">
        <ele>653.83000000000004</ele>
        <time>2025-05-14T09:40:46Z</time>
      </trkpt>
      <trkpt lat="42.015991006046534" lon="1.167771024629474">
        <ele>655.27999999999997</ele>
        <time>2025-05-14T09:40:47Z</time>
      </trkpt>
      <trkpt lat="42.015792019665241" lon="1.167843025177717">
        <ele>656.72000000000003</ele>
        <time>2025-05-14T09:40:48Z</time>
      </trkpt>
      <trkpt lat="42.015599990263581" lon="1.167872026562691">
        <ele>658.15999999999997</ele>
        <time>2025-05-14T09:40:49Z</time>
      </trkpt>
      <trkpt lat="42.015415001660585" lon="1.167895998805761">
        <ele>659.60000000000002</ele>
        <time>2025-05-14T09:40:50Z</time>
      </trkpt>
      <trkpt lat="42.015236970037222" lon="1.167918965220451">
        <ele>661.03999999999996</ele>
        <time>2025-05-14T09:40:51Z</time>
      </trkpt>
      <trkpt lat="42.015075031667948" lon="1.167940003797412">
        <ele>662.49000000000001</ele>
        <time>2025-05-14T09:40:52Z</time>
      </trkpt>
      <trkpt lat="42.01495299115777" lon="1.168013010174036">
        <ele>663.92999999999995</ele>
        <time>2025-05-14T09:40:53Z</time>
      </trkpt>
      <trkpt lat="42.014835979789495" lon="1.168088028207421">
        <ele>664.88999999999999</ele>
        <time>2025-05-14T09:40:54Z</time>
      </trkpt>
      <trkpt lat="42.014747969806194" lon="1.168174026533961">
        <ele>666.33000000000004</ele>
        <time>2025-05-14T09:40:55Z</time>
      </trkpt>
      <trkpt lat="42.014645040035248" lon="1.168276034295559">
        <ele>667.28999999999996</ele>
        <time>2025-05-14T09:40:56Z</time>
      </trkpt>
      <trkpt lat="42.014573039487004" lon="1.168394973501563">
        <ele>668.25</ele>
        <time>2025-05-14T09:40:57Z</time>
      </trkpt>
      <trkpt lat="42.014496009796858" lon="1.168556995689869">
        <ele>668.73000000000002</ele>
        <time>2025-05-14T09:40:58Z</time>
      </trkpt>
      <trkpt lat="42.014415040612221" lon="1.168726980686188">
        <ele>669.22000000000003</ele>
        <time>2025-05-14T09:40:59Z</time>
      </trkpt>
      <trkpt lat="42.014361983165145" lon="1.168895037844777">
        <ele>669.70000000000005</ele>
        <time>2025-05-14T09:41:00Z</time>
      </trkpt>
      <trkpt lat="42.014324013143778" lon="1.169093018397689">
        <ele>669.70000000000005</ele>
        <time>2025-05-14T09:41:01Z</time>
      </trkpt>
      <trkpt lat="42.014294005930424" lon="1.169283958151937">
        <ele>670.65999999999997</ele>
        <time>2025-05-14T09:41:02Z</time>
      </trkpt>
      <trkpt lat="42.014294005930424" lon="1.169514041393995">
        <ele>671.13999999999999</ele>
        <time>2025-05-14T09:41:03Z</time>
      </trkpt>
      <trkpt lat="42.01432703062892" lon="1.169770024716854">
        <ele>672.10000000000002</ele>
        <time>2025-05-14T09:41:04Z</time>
      </trkpt>
      <trkpt lat="42.014709999784827" lon="1.171998018398881">
        <ele>683.63</ele>
        <time>2025-05-14T09:41:11Z</time>
      </trkpt>
      <trkpt lat="42.014729026705027" lon="1.17231803946197">
        <ele>685.55999999999995</ele>
        <time>2025-05-14T09:41:12Z</time>
      </trkpt>
      <trkpt lat="42.014744030311704" lon="1.172622973099351">
        <ele>687</ele>
        <time>2025-05-14T09:41:13Z</time>
      </trkpt>
      <trkpt lat="42.014730032533407" lon="1.172916004434228">
        <ele>688.91999999999996</ele>
        <time>2025-05-14T09:41:14Z</time>
      </trkpt>
      <trkpt lat="42.014699019491673" lon="1.173208029940724">
        <ele>690.36000000000001</ele>
        <time>2025-05-14T09:41:15Z</time>
      </trkpt>
      <trkpt lat="42.014649985358119" lon="1.173481028527021">
        <ele>692.28999999999996</ele>
        <time>2025-05-14T09:41:16Z</time>
      </trkpt>
      <trkpt lat="42.014593994244933" lon="1.173754027113318">
        <ele>693.73000000000002</ele>
        <time>2025-05-14T09:41:17Z</time>
      </trkpt>
      <trkpt lat="42.013987982645631" lon="1.175296967849135">
        <ele>700.46000000000004</ele>
        <time>2025-05-14T09:41:23Z</time>
      </trkpt>
      <trkpt lat="42.01381397433579" lon="1.175481034442782">
        <ele>700.94000000000005</ele>
        <time>2025-05-14T09:41:24Z</time>
      </trkpt>
      <trkpt lat="42.013648012652993" lon="1.175646996125579">
        <ele>701.41999999999996</ele>
        <time>2025-05-14T09:41:25Z</time>
      </trkpt>
      <trkpt lat="42.013454977422953" lon="1.175794014707208">
        <ele>701.41999999999996</ele>
        <time>2025-05-14T09:41:26Z</time>
      </trkpt>
      <trkpt lat="42.013250039890409" lon="1.175893004983664">
        <ele>700.94000000000005</ele>
        <time>2025-05-14T09:41:27Z</time>
      </trkpt>
      <trkpt lat="42.013045018538833" lon="1.1759930010885">
        <ele>700.46000000000004</ele>
        <time>2025-05-14T09:41:28Z</time>
      </trkpt>
      <trkpt lat="42.011260008439422" lon="1.176455011591315">
        <ele>697.09000000000003</ele>
        <time>2025-05-14T09:41:36Z</time>
      </trkpt>
      <trkpt lat="42.01018201187253" lon="1.176746031269431">
        <ele>696.61000000000001</ele>
        <time>2025-05-14T09:41:41Z</time>
      </trkpt>
      <trkpt lat="42.009997023269534" lon="1.176865976303816">
        <ele>696.13</ele>
        <time>2025-05-14T09:41:42Z</time>
      </trkpt>
      <trkpt lat="42.008670000359416" lon="1.177793014794588">
        <ele>689.88</ele>
        <time>2025-05-14T09:41:49Z</time>
      </trkpt>
      <trkpt lat="42.008544020354748" lon="1.177918994799256">
        <ele>688.91999999999996</ele>
        <time>2025-05-14T09:41:50Z</time>
      </trkpt>
      <trkpt lat="42.008436983451247" lon="1.178085040301085">
        <ele>687.96000000000004</ele>
        <time>2025-05-14T09:41:51Z</time>
      </trkpt>
      <trkpt lat="42.008346961811185" lon="1.17822996340692">
        <ele>687</ele>
        <time>2025-05-14T09:41:52Z</time>
      </trkpt>
      <trkpt lat="42.008276972919703" lon="1.178418975323439">
        <ele>686.03999999999996</ele>
        <time>2025-05-14T09:41:53Z</time>
      </trkpt>
      <trkpt lat="42.008202960714698" lon="1.178619973361492">
        <ele>685.08000000000004</ele>
        <time>2025-05-14T09:41:54Z</time>
      </trkpt>
      <trkpt lat="42.008124003186822" lon="1.178833963349462">
        <ele>684.12</ele>
        <time>2025-05-14T09:41:55Z</time>
      </trkpt>
      <trkpt lat="42.008044039830565" lon="1.179052982479334">
        <ele>683.14999999999998</ele>
        <time>2025-05-14T09:41:56Z</time>
      </trkpt>
      <trkpt lat="42.007967010140419" lon="1.179262027144432">
        <ele>682.19000000000005</ele>
        <time>2025-05-14T09:41:57Z</time>
      </trkpt>
      <trkpt lat="42.00784002430737" lon="1.179420026019216">
        <ele>681.23000000000002</ele>
        <time>2025-05-14T09:41:58Z</time>
      </trkpt>
      <trkpt lat="42.00771102681756" lon="1.179542988538742">
        <ele>679.78999999999996</ele>
        <time>2025-05-14T09:41:59Z</time>
      </trkpt>
      <trkpt lat="42.007558979094028" lon="1.179600991308689">
        <ele>678.83000000000004</ele>
        <time>2025-05-14T09:42:00Z</time>
      </trkpt>
      <trkpt lat="42.007397040724754" lon="1.17964600212872">
        <ele>677.87</ele>
        <time>2025-05-14T09:42:01Z</time>
      </trkpt>
      <trkpt lat="42.007222026586533" lon="1.179669974371791">
        <ele>676.90999999999997</ele>
        <time>2025-05-14T09:42:02Z</time>
      </trkpt>
      <trkpt lat="42.00704600661993" lon="1.179694030433893">
        <ele>675.94000000000005</ele>
        <time>2025-05-14T09:42:03Z</time>
      </trkpt>
      <trkpt lat="42.006869986653328" lon="1.179718002676964">
        <ele>674.98000000000002</ele>
        <time>2025-05-14T09:42:04Z</time>
      </trkpt>
      <trkpt lat="42.006703019142151" lon="1.179841971024871">
        <ele>673.05999999999995</ele>
        <time>2025-05-14T09:42:05Z</time>
      </trkpt>
      <trkpt lat="42.006536973640323" lon="1.179980020970106">
        <ele>671.62</ele>
        <time>2025-05-14T09:42:06Z</time>
      </trkpt>
      <trkpt lat="42.006366988644004" lon="1.180122010409832">
        <ele>670.65999999999997</ele>
        <time>2025-05-14T09:42:07Z</time>
      </trkpt>
      <trkpt lat="42.006015032529831" lon="1.180343963205814">
        <ele>667.76999999999998</ele>
        <time>2025-05-14T09:42:09Z</time>
      </trkpt>
      <trkpt lat="42.00584496371448" lon="1.180365001782775">
        <ele>666.33000000000004</ele>
        <time>2025-05-14T09:42:10Z</time>
      </trkpt>
      <trkpt lat="42.005666010081768" lon="1.180365001782775">
        <ele>665.37</ele>
        <time>2025-05-14T09:42:11Z</time>
      </trkpt>
      <trkpt lat="42.005498958751559" lon="1.180313033983111">
        <ele>663.92999999999995</ele>
        <time>2025-05-14T09:42:12Z</time>
      </trkpt>
      <trkpt lat="42.005312964320183" lon="1.180237010121346">
        <ele>662.97000000000003</ele>
        <time>2025-05-14T09:42:13Z</time>
      </trkpt>
      <trkpt lat="42.005125964060426" lon="1.180133996531367">
        <ele>662.00999999999999</ele>
        <time>2025-05-14T09:42:14Z</time>
      </trkpt>
      <trkpt lat="42.004913985729218" lon="1.180049004033208">
        <ele>660.55999999999995</ele>
        <time>2025-05-14T09:42:15Z</time>
      </trkpt>
      <trkpt lat="42.004690021276474" lon="1.179984966292977">
        <ele>659.12</ele>
        <time>2025-05-14T09:42:16Z</time>
      </trkpt>
      <trkpt lat="42.004461027681828" lon="1.179939033463597">
        <ele>657.67999999999995</ele>
        <time>2025-05-14T09:42:17Z</time>
      </trkpt>
      <trkpt lat="42.002968965098262" lon="1.179590011015534">
        <ele>645.65999999999997</ele>
        <time>2025-05-14T09:42:24Z</time>
      </trkpt>
      <trkpt lat="42.002556994557381" lon="1.179572995752096">
        <ele>642.29999999999995</ele>
        <time>2025-05-14T09:42:26Z</time>
      </trkpt>
      <trkpt lat="42.00233998708427" lon="1.179587999358773">
        <ele>640.86000000000001</ele>
        <time>2025-05-14T09:42:27Z</time>
      </trkpt>
      <trkpt lat="42.002120967954397" lon="1.17964600212872">
        <ele>639.88999999999999</ele>
        <time>2025-05-14T09:42:28Z</time>
      </trkpt>
      <trkpt lat="42.001907983794808" lon="1.179710039868951">
        <ele>638.45000000000005</ele>
        <time>2025-05-14T09:42:29Z</time>
      </trkpt>
      <trkpt lat="42.001705979928374" lon="1.179812969639897">
        <ele>637.49000000000001</ele>
        <time>2025-05-14T09:42:30Z</time>
      </trkpt>
      <trkpt lat="42.001516968011856" lon="1.179919000715017">
        <ele>636.52999999999997</ele>
        <time>2025-05-14T09:42:31Z</time>
      </trkpt>
      <trkpt lat="42.000121967867017" lon="1.180739002302289">
        <ele>633.16999999999996</ele>
        <time>2025-05-14T09:42:39Z</time>
      </trkpt>
      <trkpt lat="41.999103985726833" lon="1.181723037734628">
        <ele>629.32000000000005</ele>
        <time>2025-05-14T09:42:46Z</time>
      </trkpt>
      <trkpt lat="41.997743016108871" lon="1.182931959629059">
        <ele>620.66999999999996</ele>
        <time>2025-05-14T09:42:54Z</time>
      </trkpt>
      <trkpt lat="41.996985040605068" lon="1.183251980692148">
        <ele>615.86000000000001</ele>
        <time>2025-05-14T09:42:58Z</time>
      </trkpt>
      <trkpt lat="41.996798040345311" lon="1.183273019269109">
        <ele>614.89999999999998</ele>
        <time>2025-05-14T09:42:59Z</time>
      </trkpt>
      <trkpt lat="41.996617997065187" lon="1.183236977085471">
        <ele>613.94000000000005</ele>
        <time>2025-05-14T09:43:00Z</time>
      </trkpt>
      <trkpt lat="41.996444994583726" lon="1.183161037042737">
        <ele>612.98000000000002</ele>
        <time>2025-05-14T09:43:01Z</time>
      </trkpt>
      <trkpt lat="41.996279032900929" lon="1.183044025674462">
        <ele>612.5</ele>
        <time>2025-05-14T09:43:02Z</time>
      </trkpt>
      <trkpt lat="41.996122961863875" lon="1.182903964072466">
        <ele>612.01999999999998</ele>
        <time>2025-05-14T09:43:03Z</time>
      </trkpt>
      <trkpt lat="41.995995976030827" lon="1.182721992954612">
        <ele>611.53999999999996</ele>
        <time>2025-05-14T09:43:04Z</time>
      </trkpt>
      <trkpt lat="41.995889022946358" lon="1.182541027665138">
        <ele>611.05999999999995</ele>
        <time>2025-05-14T09:43:05Z</time>
      </trkpt>
      <trkpt lat="41.995790032669902" lon="1.182367019355297">
        <ele>610.57000000000005</ele>
        <time>2025-05-14T09:43:06Z</time>
      </trkpt>
      <trkpt lat="41.995388958603144" lon="1.181692024692893">
        <ele>607.69000000000005</ele>
        <time>2025-05-14T09:43:10Z</time>
      </trkpt>
      <trkpt lat="41.995267001911998" lon="1.181565038859844">
        <ele>606.73000000000002</ele>
        <time>2025-05-14T09:43:11Z</time>
      </trkpt>
      <trkpt lat="41.994569962844253" lon="1.180919967591763">
        <ele>601.91999999999996</ele>
        <time>2025-05-14T09:43:18Z</time>
      </trkpt>
      <trkpt lat="41.994067970663309" lon="1.180577985942364">
        <ele>599.03999999999996</ele>
        <time>2025-05-14T09:43:27Z</time>
      </trkpt>
      <trkpt lat="41.994031006470323" lon="1.180555019527674">
        <ele>598.55999999999995</ele>
        <time>2025-05-14T09:43:28Z</time>
      </trkpt>
      <trkpt lat="41.993996975943446" lon="1.180532975122333">
        <ele>598.55999999999995</ele>
        <time>2025-05-14T09:43:29Z</time>
      </trkpt>
      <trkpt lat="41.993865966796875" lon="1.180451000109315">
        <ele>598.08000000000004</ele>
        <time>2025-05-14T09:43:33Z</time>
      </trkpt>
      <trkpt lat="41.993865966796875" lon="1.180451000109315">
        <ele>598.08000000000004</ele>
        <time>2025-05-14T09:43:41Z</time>
      </trkpt>
      <trkpt lat="41.993860015645623" lon="1.180331977084279">
        <ele>611.05999999999995</ele>
        <time>2025-05-14T09:53:32Z</time>
      </trkpt>
      <trkpt lat="41.993835037574172" lon="1.180299958214164">
        <ele>618.75</ele>
        <time>2025-05-14T09:53:41Z</time>
      </trkpt>
      <trkpt lat="41.993865966796875" lon="1.180451000109315">
        <ele>618.25999999999999</ele>
        <time>2025-05-14T09:53:43Z</time>
      </trkpt>
      <trkpt lat="41.993522979319096" lon="1.180451000109315">
        <ele>617.77999999999997</ele>
        <time>2025-05-14T09:53:44Z</time>
      </trkpt>
      <trkpt lat="41.993630016222596" lon="1.180343963205814">
        <ele>616.82000000000005</ele>
        <time>2025-05-14T09:53:45Z</time>
      </trkpt>
      <trkpt lat="41.993630016222596" lon="1.180343963205814">
        <ele>616.34000000000003</ele>
        <time>2025-05-14T09:53:46Z</time>
      </trkpt>
      <trkpt lat="41.993572013452649" lon="1.180324014276266">
        <ele>615.38</ele>
        <time>2025-05-14T09:53:47Z</time>
      </trkpt>
      <trkpt lat="41.993522979319096" lon="1.180451000109315">
        <ele>614.89999999999998</ele>
        <time>2025-05-14T09:53:48Z</time>
      </trkpt>
      <trkpt lat="41.993508981540799" lon="1.180535992607474">
        <ele>613.94000000000005</ele>
        <time>2025-05-14T09:53:49Z</time>
      </trkpt>
      <trkpt lat="41.993513004854321" lon="1.180616039782763">
        <ele>612.98000000000002</ele>
        <time>2025-05-14T09:53:50Z</time>
      </trkpt>
      <trkpt lat="41.993549969047308" lon="1.180742019787431">
        <ele>612.5</ele>
        <time>2025-05-14T09:53:51Z</time>
      </trkpt>
      <trkpt lat="41.993580982089043" lon="1.18089197203517">
        <ele>612.01999999999998</ele>
        <time>2025-05-14T09:53:52Z</time>
      </trkpt>
      <trkpt lat="41.993604032322764" lon="1.181043013930321">
        <ele>611.53999999999996</ele>
        <time>2025-05-14T09:53:53Z</time>
      </trkpt>
      <trkpt lat="41.993743004277349" lon="1.182241961359978">
        <ele>610.57000000000005</ele>
        <time>2025-05-14T09:54:00Z</time>
      </trkpt>
      <trkpt lat="41.99378902092576" lon="1.182432984933257">
        <ele>610.57000000000005</ele>
        <time>2025-05-14T09:54:01Z</time>
      </trkpt>
      <trkpt lat="41.993863033130765" lon="1.182614034041762">
        <ele>610.09000000000003</ele>
        <time>2025-05-14T09:54:02Z</time>
      </trkpt>
      <trkpt lat="41.993950959295034" lon="1.182794999331236">
        <ele>610.09000000000003</ele>
        <time>2025-05-14T09:54:03Z</time>
      </trkpt>
      <trkpt lat="41.994035029783845" lon="1.182966995984316">
        <ele>609.61000000000001</ele>
        <time>2025-05-14T09:54:04Z</time>
      </trkpt>
      <trkpt lat="41.994191017001867" lon="1.183287017047405">
        <ele>609.13</ele>
        <time>2025-05-14T09:54:06Z</time>
      </trkpt>
      <trkpt lat="41.994253965094686" lon="1.183445015922189">
        <ele>608.64999999999998</ele>
        <time>2025-05-14T09:54:07Z</time>
      </trkpt>
      <trkpt lat="41.994314985349774" lon="1.183607038110495">
        <ele>608.64999999999998</ele>
        <time>2025-05-14T09:54:08Z</time>
      </trkpt>
      <trkpt lat="41.994355972856283" lon="1.183784985914826">
        <ele>608.16999999999996</ele>
        <time>2025-05-14T09:54:09Z</time>
      </trkpt>
      <trkpt lat="41.994383968412876" lon="1.183978021144867">
        <ele>607.69000000000005</ele>
        <time>2025-05-14T09:54:10Z</time>
      </trkpt>
      <trkpt lat="41.99441296979785" lon="1.184174995869398">
        <ele>607.21000000000004</ele>
        <time>2025-05-14T09:54:11Z</time>
      </trkpt>
      <trkpt lat="41.994411963969469" lon="1.184376999735832">
        <ele>606.73000000000002</ele>
        <time>2025-05-14T09:54:12Z</time>
      </trkpt>
      <trkpt lat="41.99439100921154" lon="1.184584032744169">
        <ele>605.76999999999998</ele>
        <time>2025-05-14T09:54:13Z</time>
      </trkpt>
      <trkpt lat="41.994344992563128" lon="1.184787964448333">
        <ele>604.80999999999995</ele>
        <time>2025-05-14T09:54:14Z</time>
      </trkpt>
      <trkpt lat="41.994276009500027" lon="1.18499499745667">
        <ele>603.85000000000002</ele>
        <time>2025-05-14T09:54:15Z</time>
      </trkpt>
      <trkpt lat="41.994193028658628" lon="1.185199012979865">
        <ele>602.88</ele>
        <time>2025-05-14T09:54:16Z</time>
      </trkpt>
      <trkpt lat="41.994084985926747" lon="1.185386013239622">
        <ele>601.91999999999996</ele>
        <time>2025-05-14T09:54:17Z</time>
      </trkpt>
      <trkpt lat="41.993952970951796" lon="1.185546023771167">
        <ele>600.48000000000002</ele>
        <time>2025-05-14T09:54:18Z</time>
      </trkpt>
      <trkpt lat="41.993818022310734" lon="1.185708967968822">
        <ele>599.03999999999996</ele>
        <time>2025-05-14T09:54:19Z</time>
      </trkpt>
      <trkpt lat="41.993676032871008" lon="1.18587601929903">
        <ele>597.60000000000002</ele>
        <time>2025-05-14T09:54:20Z</time>
      </trkpt>
      <trkpt lat="41.991969980299473" lon="1.18755298666656">
        <ele>577.40999999999997</ele>
        <time>2025-05-14T09:54:32Z</time>
      </trkpt>
      <trkpt lat="41.991644008085132" lon="1.188051039353013">
        <ele>572.60000000000002</ele>
        <time>2025-05-14T09:54:35Z</time>
      </trkpt>
      <trkpt lat="41.991546023637056" lon="1.188266035169363">
        <ele>570.67999999999995</ele>
        <time>2025-05-14T09:54:36Z</time>
      </trkpt>
      <trkpt lat="41.990741025656462" lon="1.189858010038734">
        <ele>557.22000000000003</ele>
        <time>2025-05-14T09:54:43Z</time>
      </trkpt>
      <trkpt lat="41.990234004333615" lon="1.190368970856071">
        <ele>550.49000000000001</ele>
        <time>2025-05-14T09:54:46Z</time>
      </trkpt>
      <trkpt lat="41.990050021559" lon="1.190504003316164">
        <ele>548.57000000000005</ele>
        <time>2025-05-14T09:54:47Z</time>
      </trkpt>
      <trkpt lat="41.989311994984746" lon="1.190982023254037">
        <ele>540.39999999999998</ele>
        <time>2025-05-14T09:54:51Z</time>
      </trkpt>
      <trkpt lat="41.989158019423485" lon="1.191132981330156">
        <ele>538.48000000000002</ele>
        <time>2025-05-14T09:54:52Z</time>
      </trkpt>
      <trkpt lat="41.989026004448533" lon="1.19131101295352">
        <ele>536.54999999999995</ele>
        <time>2025-05-14T09:54:53Z</time>
      </trkpt>
      <trkpt lat="41.988926008343697" lon="1.191512010991573">
        <ele>534.63</ele>
        <time>2025-05-14T09:54:54Z</time>
      </trkpt>
      <trkpt lat="41.988830035552382" lon="1.191704040393233">
        <ele>532.71000000000004</ele>
        <time>2025-05-14T09:54:55Z</time>
      </trkpt>
      <trkpt lat="41.988738002255559" lon="1.191891962662339">
        <ele>530.78999999999996</ele>
        <time>2025-05-14T09:54:56Z</time>
      </trkpt>
      <trkpt lat="41.988544967025518" lon="1.192260012030602">
        <ele>526.94000000000005</ele>
        <time>2025-05-14T09:54:58Z</time>
      </trkpt>
      <trkpt lat="41.987813981249928" lon="1.193308001384139">
        <ele>514.91999999999996</ele>
        <time>2025-05-14T09:55:05Z</time>
      </trkpt>
      <trkpt lat="41.98760099709034" lon="1.193658029660583">
        <ele>509.16000000000003</ele>
        <time>2025-05-14T09:55:11Z</time>
      </trkpt>
      <trkpt lat="41.987579958513379" lon="1.193699017167091">
        <ele>506.75</ele>
        <time>2025-05-14T09:55:23Z</time>
      </trkpt>
      <trkpt lat="41.987579958513379" lon="1.193699017167091">
        <ele>507.23000000000002</ele>
        <time>2025-05-14T09:55:55Z</time>
      </trkpt>
      <trkpt lat="41.987565038725734" lon="1.193729024380446">
        <ele>506.75</ele>
        <time>2025-05-14T09:56:06Z</time>
      </trkpt>
      <trkpt lat="41.987390024587512" lon="1.194270998239517">
        <ele>505.31</ele>
        <time>2025-05-14T09:56:11Z</time>
      </trkpt>
      <trkpt lat="41.987377032637596" lon="1.194468978792429">
        <ele>504.35000000000002</ele>
        <time>2025-05-14T09:56:12Z</time>
      </trkpt>
      <trkpt lat="41.98736697435379" lon="1.194672994315624">
        <ele>503.38999999999999</ele>
        <time>2025-05-14T09:56:13Z</time>
      </trkpt>
      <trkpt lat="41.987391030415893" lon="1.194902993738651">
        <ele>502.43000000000001</ele>
        <time>2025-05-14T09:56:14Z</time>
      </trkpt>
      <trkpt lat="41.987554980441928" lon="1.196133960038424">
        <ele>497.62</ele>
        <time>2025-05-14T09:56:19Z</time>
      </trkpt>
      <trkpt lat="41.987546011805534" lon="1.196408970281482">
        <ele>496.18000000000001</ele>
        <time>2025-05-14T09:56:20Z</time>
      </trkpt>
      <trkpt lat="41.987536959350109" lon="1.196686998009682">
        <ele>495.22000000000003</ele>
        <time>2025-05-14T09:56:21Z</time>
      </trkpt>
      <trkpt lat="41.987478034570813" lon="1.196939963847399">
        <ele>493.29000000000002</ele>
        <time>2025-05-14T09:56:22Z</time>
      </trkpt>
      <trkpt lat="41.987410979345441" lon="1.197191001847386">
        <ele>491.85000000000002</ele>
        <time>2025-05-14T09:56:23Z</time>
      </trkpt>
      <trkpt lat="41.987346019595861" lon="1.197440028190613">
        <ele>489.93000000000001</ele>
        <time>2025-05-14T09:56:24Z</time>
      </trkpt>
      <trkpt lat="41.987235965207219" lon="1.197661980986595">
        <ele>488.49000000000001</ele>
        <time>2025-05-14T09:56:25Z</time>
      </trkpt>
      <trkpt lat="41.987102022394538" lon="1.197867002338171">
        <ele>487.05000000000001</ele>
        <time>2025-05-14T09:56:26Z</time>
      </trkpt>
      <trkpt lat="41.986965984106064" lon="1.198074035346508">
        <ele>485.12</ele>
        <time>2025-05-14T09:56:27Z</time>
      </trkpt>
      <trkpt lat="41.98680798523128" lon="1.198260029777885">
        <ele>483.19999999999999</ele>
        <time>2025-05-14T09:56:28Z</time>
      </trkpt>
      <trkpt lat="41.986627019941807" lon="1.198411993682385">
        <ele>481.75999999999999</ele>
        <time>2025-05-14T09:56:29Z</time>
      </trkpt>
      <trkpt lat="41.986431973055005" lon="1.19853101670742">
        <ele>479.83999999999997</ele>
        <time>2025-05-14T09:56:30Z</time>
      </trkpt>
      <trkpt lat="41.986223012208939" lon="1.198630006983876">
        <ele>477.91000000000003</ele>
        <time>2025-05-14T09:56:31Z</time>
      </trkpt>
      <trkpt lat="41.986007010564208" lon="1.198691027238965">
        <ele>475.99000000000001</ele>
        <time>2025-05-14T09:56:32Z</time>
      </trkpt>
      <trkpt lat="41.985790003091097" lon="1.198752969503403">
        <ele>473.58999999999997</ele>
        <time>2025-05-14T09:56:33Z</time>
      </trkpt>
      <trkpt lat="41.985163958743215" lon="1.198976011946797">
        <ele>468.30000000000001</ele>
        <time>2025-05-14T09:56:36Z</time>
      </trkpt>
      <trkpt lat="41.98498198762536" lon="1.199108026921749">
        <ele>466.38</ele>
        <time>2025-05-14T09:56:37Z</time>
      </trkpt>
      <trkpt lat="41.984789958223701" lon="1.199248004704714">
        <ele>464.93000000000001</ele>
        <time>2025-05-14T09:56:38Z</time>
      </trkpt>
      <trkpt lat="41.984668001532555" lon="1.19941002689302">
        <ele>463.49000000000001</ele>
        <time>2025-05-14T09:56:39Z</time>
      </trkpt>
      <trkpt lat="41.984549984335899" lon="1.199607001617551">
        <ele>462.05000000000001</ele>
        <time>2025-05-14T09:56:40Z</time>
      </trkpt>
      <trkpt lat="41.984453005716205" lon="1.199821997433901">
        <ele>460.61000000000001</ele>
        <time>2025-05-14T09:56:41Z</time>
      </trkpt>
      <trkpt lat="41.984372036531568" lon="1.200039004907012">
        <ele>459.17000000000002</ele>
        <time>2025-05-14T09:56:42Z</time>
      </trkpt>
      <trkpt lat="41.984328031539917" lon="1.200289037078619">
        <ele>457.72000000000003</ele>
        <time>2025-05-14T09:56:43Z</time>
      </trkpt>
      <trkpt lat="41.98429299518466" lon="1.200534962117672">
        <ele>456.27999999999997</ele>
        <time>2025-05-14T09:56:44Z</time>
      </trkpt>
      <trkpt lat="41.984280003234744" lon="1.200793040916324">
        <ele>454.83999999999997</ele>
        <time>2025-05-14T09:56:45Z</time>
      </trkpt>
      <trkpt lat="41.984297018498182" lon="1.201054975390434">
        <ele>453.88</ele>
        <time>2025-05-14T09:56:46Z</time>
      </trkpt>
      <trkpt lat="41.984334988519549" lon="1.20132202282548">
        <ele>452.44</ele>
        <time>2025-05-14T09:56:47Z</time>
      </trkpt>
      <trkpt lat="41.984406989067793" lon="1.201584041118622">
        <ele>451.48000000000002</ele>
        <time>2025-05-14T09:56:48Z</time>
      </trkpt>
      <trkpt lat="41.984481001272798" lon="1.201840024441481">
        <ele>450.02999999999997</ele>
        <time>2025-05-14T09:56:49Z</time>
      </trkpt>
      <trkpt lat="41.984583009034395" lon="1.202331958338618">
        <ele>447.14999999999998</ele>
        <time>2025-05-14T09:56:51Z</time>
      </trkpt>
      <trkpt lat="41.984617039561272" lon="1.202564975246787">
        <ele>445.70999999999998</ele>
        <time>2025-05-14T09:56:52Z</time>
      </trkpt>
      <trkpt lat="41.984590971842408" lon="1.202781982719898">
        <ele>444.26999999999998</ele>
        <time>2025-05-14T09:56:53Z</time>
      </trkpt>
      <trkpt lat="41.984553001821041" lon="1.202988009899855">
        <ele>442.81999999999999</ele>
        <time>2025-05-14T09:56:54Z</time>
      </trkpt>
      <trkpt lat="41.984491981565952" lon="1.203183978796005">
        <ele>441.38</ele>
        <time>2025-05-14T09:56:55Z</time>
      </trkpt>
      <trkpt lat="41.984416963532567" lon="1.203363016247749">
        <ele>439.94</ele>
        <time>2025-05-14T09:56:56Z</time>
      </trkpt>
      <trkpt lat="41.984331971034408" lon="1.203530989587307">
        <ele>438.5</ele>
        <time>2025-05-14T09:56:57Z</time>
      </trkpt>
      <trkpt lat="41.984242033213377" lon="1.203692005947232">
        <ele>437.54000000000002</ele>
        <time>2025-05-14T09:56:58Z</time>
      </trkpt>
      <trkpt lat="41.983770970255136" lon="1.204554000869393">
        <ele>434.17000000000002</ele>
        <time>2025-05-14T09:57:05Z</time>
      </trkpt>
      <trkpt lat="41.983749009668827" lon="1.204594988375902">
        <ele>433.69</ele>
        <time>2025-05-14T09:57:11Z</time>
      </trkpt>
      <trkpt lat="41.983749009668827" lon="1.204594988375902">
        <ele>433.20999999999998</ele>
        <time>2025-05-14T09:57:49Z</time>
      </trkpt>
      <trkpt lat="41.983714979141951" lon="1.204658020287752">
        <ele>433.20999999999998</ele>
        <time>2025-05-14T09:58:03Z</time>
      </trkpt>
      <trkpt lat="41.983383977785707" lon="1.205266965553165">
        <ele>435.13</ele>
        <time>2025-05-14T09:58:09Z</time>
      </trkpt>
      <trkpt lat="41.98274795897305" lon="1.206401037052274">
        <ele>437.06</ele>
        <time>2025-05-14T09:58:15Z</time>
      </trkpt>
      <trkpt lat="41.982532041147351" lon="1.206742012873292">
        <ele>438.98000000000002</ele>
        <time>2025-05-14T09:58:17Z</time>
      </trkpt>
      <trkpt lat="41.982408994808793" lon="1.206853995099664">
        <ele>439.94</ele>
        <time>2025-05-14T09:58:18Z</time>
      </trkpt>
      <trkpt lat="41.982267005369067" lon="1.206924989819527">
        <ele>441.38</ele>
        <time>2025-05-14T09:58:19Z</time>
      </trkpt>
      <trkpt lat="41.982115963473916" lon="1.20693001896143">
        <ele>442.81999999999999</ele>
        <time>2025-05-14T09:58:20Z</time>
      </trkpt>
      <trkpt lat="41.98195000179112" lon="1.206913003697991">
        <ele>444.75</ele>
        <time>2025-05-14T09:58:21Z</time>
      </trkpt>
      <trkpt lat="41.981769958510995" lon="1.206852989271283">
        <ele>446.19</ele>
        <time>2025-05-14T09:58:22Z</time>
      </trkpt>
      <trkpt lat="41.981582958251238" lon="1.206790963187814">
        <ele>448.11000000000001</ele>
        <time>2025-05-14T09:58:23Z</time>
      </trkpt>
      <trkpt lat="41.980841998010874" lon="1.206543026492">
        <ele>454.83999999999997</ele>
        <time>2025-05-14T09:58:27Z</time>
      </trkpt>
      <trkpt lat="41.980678969994187" lon="1.20656699873507">
        <ele>456.75999999999999</ele>
        <time>2025-05-14T09:58:28Z</time>
      </trkpt>
      <trkpt lat="41.980508984997869" lon="1.206603962928057">
        <ele>458.69</ele>
        <time>2025-05-14T09:58:29Z</time>
      </trkpt>
      <trkpt lat="41.980355009436607" lon="1.206691972911358">
        <ele>460.13</ele>
        <time>2025-05-14T09:58:30Z</time>
      </trkpt>
      <trkpt lat="41.980206985026598" lon="1.206804038956761">
        <ele>462.05000000000001</ele>
        <time>2025-05-14T09:58:31Z</time>
      </trkpt>
      <trkpt lat="41.980089973658323" lon="1.206962037831545">
        <ele>463.49000000000001</ele>
        <time>2025-05-14T09:58:32Z</time>
      </trkpt>
      <trkpt lat="41.97997497394681" lon="1.207119030877948">
        <ele>465.42000000000002</ele>
        <time>2025-05-14T09:58:33Z</time>
      </trkpt>
      <trkpt lat="41.979899033904076" lon="1.207311982288957">
        <ele>466.86000000000001</ele>
        <time>2025-05-14T09:58:34Z</time>
      </trkpt>
      <trkpt lat="41.979838013648987" lon="1.207524966448546">
        <ele>468.77999999999997</ele>
        <time>2025-05-14T09:58:35Z</time>
      </trkpt>
      <trkpt lat="41.979775987565517" lon="1.207740968093276">
        <ele>470.22000000000003</ele>
        <time>2025-05-14T09:58:36Z</time>
      </trkpt>
      <trkpt lat="41.979713039472699" lon="1.207956969738007">
        <ele>471.66000000000003</ele>
        <time>2025-05-14T09:58:37Z</time>
      </trkpt>
      <trkpt lat="41.979650007560849" lon="1.208159979432821">
        <ele>473.58999999999997</ele>
        <time>2025-05-14T09:58:38Z</time>
      </trkpt>
      <trkpt lat="41.979564009234309" lon="1.208338011056185">
        <ele>475.02999999999997</ele>
        <time>2025-05-14T09:58:39Z</time>
      </trkpt>
      <trkpt lat="41.979456972330809" lon="1.208483017981052">
        <ele>475.99000000000001</ele>
        <time>2025-05-14T09:58:40Z</time>
      </trkpt>
      <trkpt lat="41.979325041174889" lon="1.208586031571031">
        <ele>476.94999999999999</ele>
        <time>2025-05-14T09:58:41Z</time>
      </trkpt>
      <trkpt lat="41.979168970137835" lon="1.208641016855836">
        <ele>478.38999999999999</ele>
        <time>2025-05-14T09:58:42Z</time>
      </trkpt>
      <trkpt lat="41.978996973484755" lon="1.208665994927287">
        <ele>479.83999999999997</ele>
        <time>2025-05-14T09:58:43Z</time>
      </trkpt>
      <trkpt lat="41.978816008195281" lon="1.208688961341977">
        <ele>481.27999999999997</ele>
        <time>2025-05-14T09:58:44Z</time>
      </trkpt>
      <trkpt lat="41.978624984622002" lon="1.208688961341977">
        <ele>483.19999999999999</ele>
        <time>2025-05-14T09:58:45Z</time>
      </trkpt>
      <trkpt lat="41.978432033210993" lon="1.208709999918938">
        <ele>485.12</ele>
        <time>2025-05-14T09:58:46Z</time>
      </trkpt>
      <trkpt lat="41.978241009637713" lon="1.208765991032124">
        <ele>487.05000000000001</ele>
        <time>2025-05-14T09:58:47Z</time>
      </trkpt>
      <trkpt lat="41.978057026863098" lon="1.208846038207412">
        <ele>488.49000000000001</ele>
        <time>2025-05-14T09:58:48Z</time>
      </trkpt>
      <trkpt lat="41.977877989411354" lon="1.208957014605403">
        <ele>490.41000000000003</ele>
        <time>2025-05-14T09:58:49Z</time>
      </trkpt>
      <trkpt lat="41.9776960182935" lon="1.209074025973678">
        <ele>492.32999999999998</ele>
        <time>2025-05-14T09:58:50Z</time>
      </trkpt>
      <trkpt lat="41.977319000288844" lon="1.209319029003382">
        <ele>496.18000000000001</ele>
        <time>2025-05-14T09:58:52Z</time>
      </trkpt>
      <trkpt lat="41.976689016446471" lon="1.209576018154621">
        <ele>501.94999999999999</ele>
        <time>2025-05-14T09:58:55Z</time>
      </trkpt>
      <trkpt lat="41.974376030266285" lon="1.210154034197331">
        <ele>525.01999999999998</ele>
        <time>2025-05-14T09:59:05Z</time>
      </trkpt>
      <trkpt lat="41.972279967740178" lon="1.21114301495254">
        <ele>544.72000000000003</ele>
        <time>2025-05-14T09:59:15Z</time>
      </trkpt>
      <trkpt lat="41.971082026138902" lon="1.211948012933135">
        <ele>555.29999999999995</ele>
        <time>2025-05-14T09:59:21Z</time>
      </trkpt>
      <trkpt lat="41.970977000892162" lon="1.21213098987937">
        <ele>556.74000000000001</ele>
        <time>2025-05-14T09:59:22Z</time>
      </trkpt>
      <trkpt lat="41.970883039757609" lon="1.21230298653245">
        <ele>558.17999999999995</ele>
        <time>2025-05-14T09:59:23Z</time>
      </trkpt>
      <trkpt lat="41.970838028937578" lon="1.212509013712406">
        <ele>560.11000000000001</ele>
        <time>2025-05-14T09:59:24Z</time>
      </trkpt>
      <trkpt lat="41.97080098092556" lon="1.21271101757884">
        <ele>561.54999999999995</ele>
        <time>2025-05-14T09:59:25Z</time>
      </trkpt>
      <trkpt lat="41.970811961218715" lon="1.21292500756681">
        <ele>563.47000000000003</ele>
        <time>2025-05-14T09:59:26Z</time>
      </trkpt>
      <trkpt lat="41.970839034765959" lon="1.213128017261624">
        <ele>565.38999999999999</ele>
        <time>2025-05-14T09:59:27Z</time>
      </trkpt>
      <trkpt lat="41.970922015607357" lon="1.21331200003624">
        <ele>567.32000000000005</ele>
        <time>2025-05-14T09:59:28Z</time>
      </trkpt>
      <trkpt lat="41.971013965085149" lon="1.213517021387816">
        <ele>568.75999999999999</ele>
        <time>2025-05-14T09:59:29Z</time>
      </trkpt>
      <trkpt lat="41.971127036958933" lon="1.213648030534387">
        <ele>570.67999999999995</ele>
        <time>2025-05-14T09:59:30Z</time>
      </trkpt>
      <trkpt lat="41.971277995035052" lon="1.213744003325701">
        <ele>572.60000000000002</ele>
        <time>2025-05-14T09:59:31Z</time>
      </trkpt>
      <trkpt lat="41.971439011394978" lon="1.213836036622524">
        <ele>574.03999999999996</ele>
        <time>2025-05-14T09:59:32Z</time>
      </trkpt>
      <trkpt lat="41.97161796502769" lon="1.213851040229201">
        <ele>575.49000000000001</ele>
        <time>2025-05-14T09:59:33Z</time>
      </trkpt>
      <trkpt lat="41.971792979165912" lon="1.213836036622524">
        <ele>576.92999999999995</ele>
        <time>2025-05-14T09:59:34Z</time>
      </trkpt>
      <trkpt lat="41.97195902466774" lon="1.213752971962094">
        <ele>577.88999999999999</ele>
        <time>2025-05-14T09:59:35Z</time>
      </trkpt>
      <trkpt lat="41.972095984965563" lon="1.213622968643904">
        <ele>579.33000000000004</ele>
        <time>2025-05-14T09:59:36Z</time>
      </trkpt>
      <trkpt lat="41.972231017425656" lon="1.213466981425881">
        <ele>580.28999999999996</ele>
        <time>2025-05-14T09:59:37Z</time>
      </trkpt>
      <trkpt lat="41.97234702296555" lon="1.213282998651266">
        <ele>581.25</ele>
        <time>2025-05-14T09:59:38Z</time>
      </trkpt>
      <trkpt lat="41.972456993535161" lon="1.213074959814549">
        <ele>582.22000000000003</ele>
        <time>2025-05-14T09:59:39Z</time>
      </trkpt>
      <trkpt lat="41.972856977954507" lon="1.212472971528769">
        <ele>584.13999999999999</ele>
        <time>2025-05-14T09:59:42Z</time>
      </trkpt>
      <trkpt lat="41.973019000142813" lon="1.212322013452649">
        <ele>585.10000000000002</ele>
        <time>2025-05-14T09:59:43Z</time>
      </trkpt>
      <trkpt lat="41.973181022331119" lon="1.212191004306078">
        <ele>585.58000000000004</ele>
        <time>2025-05-14T09:59:44Z</time>
      </trkpt>
      <trkpt lat="41.973350001499057" lon="1.212085979059339">
        <ele>587.01999999999998</ele>
        <time>2025-05-14T09:59:45Z</time>
      </trkpt>
      <trkpt lat="41.973526021465659" lon="1.212021019309759">
        <ele>587.5</ele>
        <time>2025-05-14T09:59:46Z</time>
      </trkpt>
      <trkpt lat="41.973706986755133" lon="1.211968967691064">
        <ele>588.46000000000004</ele>
        <time>2025-05-14T09:59:47Z</time>
      </trkpt>
      <trkpt lat="41.973889041692019" lon="1.211909959092736">
        <ele>589.42999999999995</ele>
        <time>2025-05-14T09:59:48Z</time>
      </trkpt>
      <trkpt lat="41.97406598366797" lon="1.211852040141821">
        <ele>589.90999999999997</ele>
        <time>2025-05-14T09:59:49Z</time>
      </trkpt>
      <trkpt lat="41.974274022504687" lon="1.212010961025953">
        <ele>590.38999999999999</ele>
        <time>2025-05-14T09:59:50Z</time>
      </trkpt>
      <trkpt lat="41.974467979744077" lon="1.212052032351494">
        <ele>590.87</ele>
        <time>2025-05-14T09:59:51Z</time>
      </trkpt>
      <trkpt lat="41.976095996797085" lon="1.212266022339463">
        <ele>597.60000000000002</ele>
        <time>2025-05-14T09:59:59Z</time>
      </trkpt>
      <trkpt lat="41.976284002885222" lon="1.212326036766172">
        <ele>598.55999999999995</ele>
        <time>2025-05-14T10:00:00Z</time>
      </trkpt>
      <trkpt lat="41.976443007588387" lon="1.212438018992543">
        <ele>599.51999999999998</ele>
        <time>2025-05-14T10:00:01Z</time>
      </trkpt>
      <trkpt lat="41.976596983149648" lon="1.212574979290366">
        <ele>600.48000000000002</ele>
        <time>2025-05-14T10:00:02Z</time>
      </trkpt>
      <trkpt lat="41.976750958710909" lon="1.212713029235601">
        <ele>601.44000000000005</ele>
        <time>2025-05-14T10:00:03Z</time>
      </trkpt>
      <trkpt lat="41.976894037798047" lon="1.212864993140101">
        <ele>602.39999999999998</ele>
        <time>2025-05-14T10:00:04Z</time>
      </trkpt>
      <trkpt lat="41.977038038894534" lon="1.213023997843266">
        <ele>603.36000000000001</ele>
        <time>2025-05-14T10:00:05Z</time>
      </trkpt>
      <trkpt lat="41.978289959952235" lon="1.214812025427818">
        <ele>614.41999999999996</ele>
        <time>2025-05-14T10:00:14Z</time>
      </trkpt>
      <trkpt lat="41.978394985198975" lon="1.215041019022465">
        <ele>615.38</ele>
        <time>2025-05-14T10:00:15Z</time>
      </trkpt>
      <trkpt lat="41.978487018495798" lon="1.215314017608762">
        <ele>616.82000000000005</ele>
        <time>2025-05-14T10:00:16Z</time>
      </trkpt>
      <trkpt lat="41.978860013186932" lon="1.216259999200702">
        <ele>622.59000000000003</ele>
        <time>2025-05-14T10:00:20Z</time>
      </trkpt>
      <trkpt lat="41.978975012898445" lon="1.216462003067136">
        <ele>624.02999999999997</ele>
        <time>2025-05-14T10:00:21Z</time>
      </trkpt>
      <trkpt lat="41.979103004559875" lon="1.216647997498512">
        <ele>625.47000000000003</ele>
        <time>2025-05-14T10:00:22Z</time>
      </trkpt>
      <trkpt lat="41.979255974292755" lon="1.216787975281477">
        <ele>626.91999999999996</ele>
        <time>2025-05-14T10:00:23Z</time>
      </trkpt>
      <trkpt lat="41.979407016187906" lon="1.216905992478132">
        <ele>627.88</ele>
        <time>2025-05-14T10:00:24Z</time>
      </trkpt>
      <trkpt lat="41.979569038376212" lon="1.217004982754588">
        <ele>629.32000000000005</ele>
        <time>2025-05-14T10:00:25Z</time>
      </trkpt>
      <trkpt lat="41.979731982573867" lon="1.217101961374283">
        <ele>630.27999999999997</ele>
        <time>2025-05-14T10:00:26Z</time>
      </trkpt>
      <trkpt lat="41.979912025853992" lon="1.217138003557921">
        <ele>631.72000000000003</ele>
        <time>2025-05-14T10:00:27Z</time>
      </trkpt>
      <trkpt lat="41.980091985315084" lon="1.217173961922526">
        <ele>632.67999999999995</ele>
        <time>2025-05-14T10:00:28Z</time>
      </trkpt>
      <trkpt lat="41.98027404025197" lon="1.217206986621022">
        <ele>634.13</ele>
        <time>2025-05-14T10:00:29Z</time>
      </trkpt>
      <trkpt lat="41.980461962521076" lon="1.217198017984629">
        <ele>635.57000000000005</ele>
        <time>2025-05-14T10:00:30Z</time>
      </trkpt>
      <trkpt lat="41.981356982141733" lon="1.217242022976279">
        <ele>640.86000000000001</ele>
        <time>2025-05-14T10:00:35Z</time>
      </trkpt>
      <trkpt lat="41.9815210159868" lon="1.217314023524523">
        <ele>641.82000000000005</ele>
        <time>2025-05-14T10:00:36Z</time>
      </trkpt>
      <trkpt lat="41.982951974496245" lon="1.218023970723152">
        <ele>644.22000000000003</ele>
        <time>2025-05-14T10:00:45Z</time>
      </trkpt>
      <trkpt lat="41.983078038319945" lon="1.218041991814971">
        <ele>644.22000000000003</ele>
        <time>2025-05-14T10:00:46Z</time>
      </trkpt>
      <trkpt lat="41.983181973919272" lon="1.218033023178577">
        <ele>644.22000000000003</ele>
        <time>2025-05-14T10:00:47Z</time>
      </trkpt>
      <trkpt lat="41.983270989730954" lon="1.218021037057042">
        <ele>644.22000000000003</ele>
        <time>2025-05-14T10:00:48Z</time>
      </trkpt>
      <trkpt lat="41.983353970572352" lon="1.218009972944856">
        <ele>644.22000000000003</ele>
        <time>2025-05-14T10:00:49Z</time>
      </trkpt>
      <trkpt lat="41.983436029404402" lon="1.217992035672069">
        <ele>644.70000000000005</ele>
        <time>2025-05-14T10:00:50Z</time>
      </trkpt>
      <trkpt lat="41.983525967225432" lon="1.217944007366896">
        <ele>645.17999999999995</ele>
        <time>2025-05-14T10:00:51Z</time>
      </trkpt>
      <trkpt lat="41.983625963330269" lon="1.217890027910471">
        <ele>645.65999999999997</ele>
        <time>2025-05-14T10:00:52Z</time>
      </trkpt>
      <trkpt lat="41.983738029375672" lon="1.217830013483763">
        <ele>646.13999999999999</ele>
        <time>2025-05-14T10:00:53Z</time>
      </trkpt>
      <trkpt lat="41.983835007995367" lon="1.217711996287108">
        <ele>646.62</ele>
        <time>2025-05-14T10:00:54Z</time>
      </trkpt>
      <trkpt lat="41.983931986615062" lon="1.217593979090452">
        <ele>647.10000000000002</ele>
        <time>2025-05-14T10:00:55Z</time>
      </trkpt>
      <trkpt lat="41.984029971063137" lon="1.217414019629359">
        <ele>647.59000000000003</ele>
        <time>2025-05-14T10:00:56Z</time>
      </trkpt>
      <trkpt lat="41.984125021845102" lon="1.217237999662757">
        <ele>648.54999999999995</ele>
        <time>2025-05-14T10:00:57Z</time>
      </trkpt>
      <trkpt lat="41.9842270296067" lon="1.217050999403">
        <ele>649.02999999999997</ele>
        <time>2025-05-14T10:00:58Z</time>
      </trkpt>
      <trkpt lat="41.984662972390652" lon="1.216282965615392">
        <ele>651.42999999999995</ele>
        <time>2025-05-14T10:01:02Z</time>
      </trkpt>
      <trkpt lat="41.984775038436055" lon="1.216134019196034">
        <ele>651.42999999999995</ele>
        <time>2025-05-14T10:01:03Z</time>
      </trkpt>
      <trkpt lat="41.9849160220474" lon="1.216057995334268">
        <ele>651.90999999999997</ele>
        <time>2025-05-14T10:01:04Z</time>
      </trkpt>
      <trkpt lat="41.985049964860082" lon="1.216037962585688">
        <ele>651.90999999999997</ele>
        <time>2025-05-14T10:01:05Z</time>
      </trkpt>
      <trkpt lat="41.985188014805317" lon="1.216059001162648">
        <ele>652.38999999999999</ele>
        <time>2025-05-14T10:01:06Z</time>
      </trkpt>
      <trkpt lat="41.985330004245043" lon="1.216080039739609">
        <ele>652.38999999999999</ele>
        <time>2025-05-14T10:01:07Z</time>
      </trkpt>
      <trkpt lat="41.986093008890748" lon="1.216153968125582">
        <ele>653.35000000000002</ele>
        <time>2025-05-14T10:01:12Z</time>
      </trkpt>
      <trkpt lat="41.986246984452009" lon="1.216113986447454">
        <ele>653.35000000000002</ele>
        <time>2025-05-14T10:01:13Z</time>
      </trkpt>
      <trkpt lat="41.986405989155173" lon="1.216051038354635">
        <ele>653.35000000000002</ele>
        <time>2025-05-14T10:01:14Z</time>
      </trkpt>
      <trkpt lat="41.986571028828621" lon="1.215984988957644">
        <ele>653.35000000000002</ele>
        <time>2025-05-14T10:01:15Z</time>
      </trkpt>
      <trkpt lat="41.986715029925108" lon="1.215908965095878">
        <ele>652.87</ele>
        <time>2025-05-14T10:01:16Z</time>
      </trkpt>
      <trkpt lat="41.98697897605598" lon="1.215769993141294">
        <ele>653.35000000000002</ele>
        <time>2025-05-14T10:01:18Z</time>
      </trkpt>
      <trkpt lat="41.987161030992866" lon="1.215769993141294">
        <ele>653.35000000000002</ele>
        <time>2025-05-14T10:01:19Z</time>
      </trkpt>
      <trkpt lat="41.987296985462308" lon="1.215807041153312">
        <ele>652.87</ele>
        <time>2025-05-14T10:01:20Z</time>
      </trkpt>
      <trkpt lat="41.987437969073653" lon="1.215891027823091">
        <ele>652.87</ele>
        <time>2025-05-14T10:01:21Z</time>
      </trkpt>
      <trkpt lat="41.987584987655282" lon="1.215979959815741">
        <ele>652.87</ele>
        <time>2025-05-14T10:01:22Z</time>
      </trkpt>
      <trkpt lat="41.988410018384457" lon="1.216427972540259">
        <ele>649.99000000000001</ele>
        <time>2025-05-14T10:01:27Z</time>
      </trkpt>
      <trkpt lat="41.988588972017169" lon="1.216477006673813">
        <ele>649.02999999999997</ele>
        <time>2025-05-14T10:01:28Z</time>
      </trkpt>
      <trkpt lat="41.988773038610816" lon="1.216468960046768">
        <ele>647.59000000000003</ele>
        <time>2025-05-14T10:01:29Z</time>
      </trkpt>
      <trkpt lat="41.990154040977359" lon="1.216416992247105">
        <ele>638.92999999999995</ele>
        <time>2025-05-14T10:01:36Z</time>
      </trkpt>
      <trkpt lat="41.991003965958953" lon="1.216580020263791">
        <ele>635.09000000000003</ele>
        <time>2025-05-14T10:01:40Z</time>
      </trkpt>
      <trkpt lat="41.991212004795671" lon="1.216546995565295">
        <ele>635.09000000000003</ele>
        <time>2025-05-14T10:01:41Z</time>
      </trkpt>
      <trkpt lat="41.991421971470118" lon="1.216500978916884">
        <ele>635.09000000000003</ele>
        <time>2025-05-14T10:01:42Z</time>
      </trkpt>
      <trkpt lat="41.992228981107473" lon="1.216328982263804">
        <ele>636.04999999999995</ele>
        <time>2025-05-14T10:01:46Z</time>
      </trkpt>
      <trkpt lat="41.992411036044359" lon="1.216345997527242">
        <ele>636.52999999999997</ele>
        <time>2025-05-14T10:01:47Z</time>
      </trkpt>
      <trkpt lat="41.992582026869059" lon="1.216396959498525">
        <ele>637.00999999999999</ele>
        <time>2025-05-14T10:01:48Z</time>
      </trkpt>
      <trkpt lat="41.99275997467339" lon="1.216462003067136">
        <ele>637.49000000000001</ele>
        <time>2025-05-14T10:01:49Z</time>
      </trkpt>
      <trkpt lat="41.992939012125134" lon="1.216526962816715">
        <ele>637.97000000000003</ele>
        <time>2025-05-14T10:01:50Z</time>
      </trkpt>
      <trkpt lat="41.993114026263356" lon="1.216591000556946">
        <ele>638.45000000000005</ele>
        <time>2025-05-14T10:01:51Z</time>
      </trkpt>
      <trkpt lat="41.993281999602914" lon="1.216592006385326">
        <ele>638.92999999999995</ele>
        <time>2025-05-14T10:01:52Z</time>
      </trkpt>
      <trkpt lat="41.99344796128571" lon="1.216570967808366">
        <ele>638.92999999999995</ele>
        <time>2025-05-14T10:01:53Z</time>
      </trkpt>
      <trkpt lat="41.99361702427268" lon="1.216500978916884">
        <ele>638.92999999999995</ele>
        <time>2025-05-14T10:01:54Z</time>
      </trkpt>
      <trkpt lat="41.993792038410902" lon="1.21640601195395">
        <ele>638.92999999999995</ele>
        <time>2025-05-14T10:01:55Z</time>
      </trkpt>
      <trkpt lat="41.995234983041883" lon="1.21589002199471">
        <ele>640.38</ele>
        <time>2025-05-14T10:02:02Z</time>
      </trkpt>
      <trkpt lat="41.997899003326893" lon="1.215660022571683">
        <ele>650.95000000000005</ele>
        <time>2025-05-14T10:02:14Z</time>
      </trkpt>
      <trkpt lat="41.999619975686073" lon="1.215362967923284">
        <ele>650.95000000000005</ele>
        <time>2025-05-14T10:02:22Z</time>
      </trkpt>
      <trkpt lat="42.000381974503398" lon="1.215463969856501">
        <ele>649.02999999999997</ele>
        <time>2025-05-14T10:02:26Z</time>
      </trkpt>
      <trkpt lat="42.000561011955142" lon="1.21552599593997">
        <ele>648.54999999999995</ele>
        <time>2025-05-14T10:02:27Z</time>
      </trkpt>
      <trkpt lat="42.000733008608222" lon="1.215633032843471">
        <ele>648.07000000000005</ele>
        <time>2025-05-14T10:02:28Z</time>
      </trkpt>
      <trkpt lat="42.002280978485942" lon="1.216549007222056">
        <ele>645.17999999999995</ele>
        <time>2025-05-14T10:02:37Z</time>
      </trkpt>
      <trkpt lat="42.002456998452544" lon="1.216592006385326">
        <ele>645.17999999999995</ele>
        <time>2025-05-14T10:02:38Z</time>
      </trkpt>
      <trkpt lat="42.002664031460881" lon="1.216607009992003">
        <ele>644.70000000000005</ele>
        <time>2025-05-14T10:02:39Z</time>
      </trkpt>
      <trkpt lat="42.002823958173394" lon="1.21655797585845">
        <ele>644.22000000000003</ele>
        <time>2025-05-14T10:02:40Z</time>
      </trkpt>
      <trkpt lat="42.00300601311028" lon="1.216506008058786">
        <ele>644.22000000000003</ele>
        <time>2025-05-14T10:02:41Z</time>
      </trkpt>
      <trkpt lat="42.003371967002749" lon="1.216413974761963">
        <ele>643.25999999999999</ele>
        <time>2025-05-14T10:02:43Z</time>
      </trkpt>
      <trkpt lat="42.003528960049152" lon="1.216453034430742">
        <ele>642.77999999999997</ele>
        <time>2025-05-14T10:02:44Z</time>
      </trkpt>
      <trkpt lat="42.003676984459162" lon="1.216577002778649">
        <ele>642.77999999999997</ele>
        <time>2025-05-14T10:02:45Z</time>
      </trkpt>
      <trkpt lat="42.003827020525932" lon="1.216713041067123">
        <ele>642.29999999999995</ele>
        <time>2025-05-14T10:02:46Z</time>
      </trkpt>
      <trkpt lat="42.003993988037109" lon="1.216865004971623">
        <ele>642.29999999999995</ele>
        <time>2025-05-14T10:02:47Z</time>
      </trkpt>
      <trkpt lat="42.004440994933248" lon="1.217298014089465">
        <ele>641.82000000000005</ele>
        <time>2025-05-14T10:02:50Z</time>
      </trkpt>
      <trkpt lat="42.00459798797965" lon="1.217411002144218">
        <ele>641.34000000000003</ele>
        <time>2025-05-14T10:02:51Z</time>
      </trkpt>
      <trkpt lat="42.004752969369292" lon="1.217487026005983">
        <ele>640.86000000000001</ele>
        <time>2025-05-14T10:02:52Z</time>
      </trkpt>
      <trkpt lat="42.004913985729218" lon="1.217487026005983">
        <ele>640.86000000000001</ele>
        <time>2025-05-14T10:02:53Z</time>
      </trkpt>
      <trkpt lat="42.00506997294724" lon="1.217455007135868">
        <ele>640.86000000000001</ele>
        <time>2025-05-14T10:02:54Z</time>
      </trkpt>
      <trkpt lat="42.005223026499152" lon="1.21739599853754">
        <ele>640.86000000000001</ele>
        <time>2025-05-14T10:02:55Z</time>
      </trkpt>
      <trkpt lat="42.005353029817343" lon="1.217274041846395">
        <ele>641.34000000000003</ele>
        <time>2025-05-14T10:02:56Z</time>
      </trkpt>
      <trkpt lat="42.005488984286785" lon="1.217145966365933">
        <ele>641.82000000000005</ele>
        <time>2025-05-14T10:02:57Z</time>
      </trkpt>
      <trkpt lat="42.005642037838697" lon="1.217037001624703">
        <ele>642.29999999999995</ele>
        <time>2025-05-14T10:02:58Z</time>
      </trkpt>
      <trkpt lat="42.005807999521494" lon="1.216948991641402">
        <ele>643.74000000000001</ele>
        <time>2025-05-14T10:02:59Z</time>
      </trkpt>
      <trkpt lat="42.005973039194942" lon="1.216863999143243">
        <ele>644.70000000000005</ele>
        <time>2025-05-14T10:03:00Z</time>
      </trkpt>
      <trkpt lat="42.007069978863001" lon="1.216631988063455">
        <ele>653.83000000000004</ele>
        <time>2025-05-14T10:03:06Z</time>
      </trkpt>
      <trkpt lat="42.007266031578183" lon="1.216651014983654">
        <ele>654.79999999999995</ele>
        <time>2025-05-14T10:03:07Z</time>
      </trkpt>
      <trkpt lat="42.00745596550405" lon="1.216689990833402">
        <ele>656.24000000000001</ele>
        <time>2025-05-14T10:03:08Z</time>
      </trkpt>
      <trkpt lat="42.007638020440936" lon="1.216757968068123">
        <ele>657.67999999999995</ele>
        <time>2025-05-14T10:03:09Z</time>
      </trkpt>
      <trkpt lat="42.007817979902029" lon="1.216826029121876">
        <ele>659.12</ele>
        <time>2025-05-14T10:03:10Z</time>
      </trkpt>
      <trkpt lat="42.007995005697012" lon="1.216874979436398">
        <ele>660.55999999999995</ele>
        <time>2025-05-14T10:03:11Z</time>
      </trkpt>
      <trkpt lat="42.008164990693331" lon="1.2168990354985">
        <ele>661.51999999999998</ele>
        <time>2025-05-14T10:03:12Z</time>
      </trkpt>
      <trkpt lat="42.008331958204508" lon="1.216856958344579">
        <ele>662.49000000000001</ele>
        <time>2025-05-14T10:03:13Z</time>
      </trkpt>
      <trkpt lat="42.008499009534717" lon="1.216780012473464">
        <ele>663.92999999999995</ele>
        <time>2025-05-14T10:03:14Z</time>
      </trkpt>
      <trkpt lat="42.008677963167429" lon="1.216698037460446">
        <ele>664.88999999999999</ele>
        <time>2025-05-14T10:03:15Z</time>
      </trkpt>
      <trkpt lat="42.00906696729362" lon="1.216530986130238">
        <ele>667.76999999999998</ele>
        <time>2025-05-14T10:03:17Z</time>
      </trkpt>
      <trkpt lat="42.009277017787099" lon="1.216482035815716">
        <ele>668.73000000000002</ele>
        <time>2025-05-14T10:03:18Z</time>
      </trkpt>
      <trkpt lat="42.009496036916971" lon="1.216483041644096">
        <ele>670.17999999999995</ele>
        <time>2025-05-14T10:03:19Z</time>
      </trkpt>
      <trkpt lat="42.011350030079484" lon="1.216589994728565">
        <ele>682.66999999999996</ele>
        <time>2025-05-14T10:03:27Z</time>
      </trkpt>
      <trkpt lat="42.0122230052948" lon="1.216971036046743">
        <ele>689.39999999999998</ele>
        <time>2025-05-14T10:03:31Z</time>
      </trkpt>
      <trkpt lat="42.013117019087076" lon="1.217370014637709">
        <ele>694.69000000000005</ele>
        <time>2025-05-14T10:03:35Z</time>
      </trkpt>
      <trkpt lat="42.014928013086319" lon="1.217939984053373">
        <ele>706.71000000000004</ele>
        <time>2025-05-14T10:03:44Z</time>
      </trkpt>
      <trkpt lat="42.0151880197227" lon="1.218198984861374">
        <ele>709.11000000000001</ele>
        <time>2025-05-14T10:03:46Z</time>
      </trkpt>
      <trkpt lat="42.015412990003824" lon="1.218557981774211">
        <ele>711.99000000000001</ele>
        <time>2025-05-14T10:03:48Z</time>
      </trkpt>
      <trkpt lat="42.016463996842504" lon="1.220264034345746">
        <ele>722.57000000000005</ele>
        <time>2025-05-14T10:03:57Z</time>
      </trkpt>
      <trkpt lat="42.016772031784058" lon="1.220304016023874">
        <ele>723.52999999999997</ele>
        <time>2025-05-14T10:03:59Z</time>
      </trkpt>
      <trkpt lat="42.017094986513257" lon="1.220192033797503">
        <ele>725.45000000000005</ele>
        <time>2025-05-14T10:04:01Z</time>
      </trkpt>
      <trkpt lat="42.018320001661777" lon="1.219646036624908">
        <ele>732.17999999999995</ele>
        <time>2025-05-14T10:04:07Z</time>
      </trkpt>
      <trkpt lat="42.019290961325169" lon="1.219288967549801">
        <ele>733.62</ele>
        <time>2025-05-14T10:04:12Z</time>
      </trkpt>
      <trkpt lat="42.019903007894754" lon="1.219706973060966">
        <ele>733.13999999999999</ele>
        <time>2025-05-14T10:04:16Z</time>
      </trkpt>
      <trkpt lat="42.020634999498725" lon="1.220278032124043">
        <ele>731.22000000000003</ele>
        <time>2025-05-14T10:04:20Z</time>
      </trkpt>
      <trkpt lat="42.021067002788186" lon="1.220480035990477">
        <ele>730.74000000000001</ele>
        <time>2025-05-14T10:04:22Z</time>
      </trkpt>
      <trkpt lat="42.02195699326694" lon="1.220795027911663">
        <ele>726.88999999999999</ele>
        <time>2025-05-14T10:04:26Z</time>
      </trkpt>
      <trkpt lat="42.022411962971091" lon="1.220834003761411">
        <ele>725.45000000000005</ele>
        <time>2025-05-14T10:04:28Z</time>
      </trkpt>
      <trkpt lat="42.023275969550014" lon="1.220908015966415">
        <ele>725.45000000000005</ele>
        <time>2025-05-14T10:04:36Z</time>
      </trkpt>
      <trkpt lat="42.023917017504573" lon="1.22126298956573">
        <ele>726.88999999999999</ele>
        <time>2025-05-14T10:04:41Z</time>
      </trkpt>
      <trkpt lat="42.024940028786659" lon="1.221706978976727">
        <ele>727.37</ele>
        <time>2025-05-14T10:04:43Z</time>
      </trkpt>
      <trkpt lat="42.025813004001975" lon="1.221415037289262">
        <ele>732.17999999999995</ele>
        <time>2025-05-14T10:04:51Z</time>
      </trkpt>
      <trkpt lat="42.026316002011299" lon="1.221370026469231">
        <ele>732.65999999999997</ele>
        <time>2025-05-14T10:04:54Z</time>
      </trkpt>
      <trkpt lat="42.02702502720058" lon="1.221968997269869">
        <ele>732.65999999999997</ele>
        <time>2025-05-14T10:04:56Z</time>
      </trkpt>
      <trkpt lat="42.027749978005886" lon="1.222389014437795">
        <ele>732.17999999999995</ele>
        <time>2025-05-14T10:05:00Z</time>
      </trkpt>
      <trkpt lat="42.028643991798162" lon="1.222652038559318">
        <ele>729.29999999999995</ele>
        <time>2025-05-14T10:05:05Z</time>
      </trkpt>
      <trkpt lat="42.028931993991137" lon="1.222771983593702">
        <ele>727.37</ele>
        <time>2025-05-14T10:05:07Z</time>
      </trkpt>
      <trkpt lat="42.029129974544048" lon="1.222939034923911">
        <ele>726.40999999999997</ele>
        <time>2025-05-14T10:05:09Z</time>
      </trkpt>
      <trkpt lat="42.029217984527349" lon="1.223200969398022">
        <ele>725.45000000000005</ele>
        <time>2025-05-14T10:05:11Z</time>
      </trkpt>
      <trkpt lat="42.029359973967075" lon="1.224091965705156">
        <ele>725.92999999999995</ele>
        <time>2025-05-14T10:05:16Z</time>
      </trkpt>
      <trkpt lat="42.029422000050545" lon="1.224246025085449">
        <ele>726.40999999999997</ele>
        <time>2025-05-14T10:05:17Z</time>
      </trkpt>
      <trkpt lat="42.029507998377085" lon="1.224389020353556">
        <ele>726.88999999999999</ele>
        <time>2025-05-14T10:05:18Z</time>
      </trkpt>
      <trkpt lat="42.029622998088598" lon="1.224496979266405">
        <ele>727.37</ele>
        <time>2025-05-14T10:05:19Z</time>
      </trkpt>
      <trkpt lat="42.029753001406789" lon="1.224546013399959">
        <ele>727.86000000000001</ele>
        <time>2025-05-14T10:05:20Z</time>
      </trkpt>
      <trkpt lat="42.029888033866882" lon="1.224546013399959">
        <ele>727.86000000000001</ele>
        <time>2025-05-14T10:05:21Z</time>
      </trkpt>
      <trkpt lat="42.030021976679564" lon="1.22448499314487">
        <ele>727.86000000000001</ele>
        <time>2025-05-14T10:05:22Z</time>
      </trkpt>
      <trkpt lat="42.030166983604431" lon="1.224416010081768">
        <ele>728.34000000000003</ele>
        <time>2025-05-14T10:05:23Z</time>
      </trkpt>
      <trkpt lat="42.030345015227795" lon="1.224332023411989">
        <ele>728.34000000000003</ele>
        <time>2025-05-14T10:05:24Z</time>
      </trkpt>
      <trkpt lat="42.031643958762288" lon="1.223961040377617">
        <ele>729.77999999999997</ele>
        <time>2025-05-14T10:05:31Z</time>
      </trkpt>
      <trkpt lat="42.032104041427374" lon="1.223923992365599">
        <ele>730.74000000000001</ele>
        <time>2025-05-14T10:05:34Z</time>
      </trkpt>
      <trkpt lat="42.0322460308671" lon="1.22399004176259">
        <ele>731.22000000000003</ele>
        <time>2025-05-14T10:05:35Z</time>
      </trkpt>
      <trkpt lat="42.032369999215007" lon="1.224047038704157">
        <ele>731.22000000000003</ele>
        <time>2025-05-14T10:05:36Z</time>
      </trkpt>
      <trkpt lat="42.032475024461746" lon="1.224137982353568">
        <ele>731.70000000000005</ele>
        <time>2025-05-14T10:05:37Z</time>
      </trkpt>
      <trkpt lat="42.032597986981273" lon="1.224251976236701">
        <ele>731.22000000000003</ele>
        <time>2025-05-14T10:05:38Z</time>
      </trkpt>
      <trkpt lat="42.03271902166307" lon="1.224378040060401">
        <ele>731.22000000000003</ele>
        <time>2025-05-14T10:05:39Z</time>
      </trkpt>
      <trkpt lat="42.032838966697454" lon="1.224522963166237">
        <ele>731.22000000000003</ele>
        <time>2025-05-14T10:05:40Z</time>
      </trkpt>
      <trkpt lat="42.032920019701123" lon="1.224669981747866">
        <ele>730.74000000000001</ele>
        <time>2025-05-14T10:05:41Z</time>
      </trkpt>
      <trkpt lat="42.032987996935844" lon="1.22482898645103">
        <ele>730.25999999999999</ele>
        <time>2025-05-14T10:05:42Z</time>
      </trkpt>
      <trkpt lat="42.033005012199283" lon="1.224995031952858">
        <ele>729.77999999999997</ele>
        <time>2025-05-14T10:05:43Z</time>
      </trkpt>
      <trkpt lat="42.032995037734509" lon="1.225174991413951">
        <ele>729.29999999999995</ele>
        <time>2025-05-14T10:05:44Z</time>
      </trkpt>
      <trkpt lat="42.032925970852375" lon="1.225354028865695">
        <ele>728.34000000000003</ele>
        <time>2025-05-14T10:05:45Z</time>
      </trkpt>
      <trkpt lat="42.032817006111145" lon="1.22553700581193">
        <ele>727.86000000000001</ele>
        <time>2025-05-14T10:05:46Z</time>
      </trkpt>
      <trkpt lat="42.032684991136193" lon="1.225715037435293">
        <ele>726.88999999999999</ele>
        <time>2025-05-14T10:05:47Z</time>
      </trkpt>
      <trkpt lat="42.032260028645396" lon="1.226328006014228">
        <ele>723.52999999999997</ele>
        <time>2025-05-14T10:05:50Z</time>
      </trkpt>
      <trkpt lat="42.032132958993316" lon="1.226564962416887">
        <ele>722.57000000000005</ele>
        <time>2025-05-14T10:05:51Z</time>
      </trkpt>
      <trkpt lat="42.032046038657427" lon="1.22684701345861">
        <ele>722.09000000000003</ele>
        <time>2025-05-14T10:05:52Z</time>
      </trkpt>
      <trkpt lat="42.031739009544253" lon="1.22811402194202">
        <ele>722.57000000000005</ele>
        <time>2025-05-14T10:05:57Z</time>
      </trkpt>
      <trkpt lat="42.031750995665789" lon="1.228284006938338">
        <ele>723.52999999999997</ele>
        <time>2025-05-14T10:05:58Z</time>
      </trkpt>
      <trkpt lat="42.031824002042413" lon="1.228439994156361">
        <ele>724.49000000000001</ele>
        <time>2025-05-14T10:05:59Z</time>
      </trkpt>
      <trkpt lat="42.031911006197333" lon="1.228622971102595">
        <ele>725.45000000000005</ele>
        <time>2025-05-14T10:06:00Z</time>
      </trkpt>
      <trkpt lat="42.032050983980298" lon="1.228746017441154">
        <ele>726.40999999999997</ele>
        <time>2025-05-14T10:06:01Z</time>
      </trkpt>
      <trkpt lat="42.032210994511843" lon="1.228888006880879">
        <ele>727.86000000000001</ele>
        <time>2025-05-14T10:06:02Z</time>
      </trkpt>
      <trkpt lat="42.032857993617654" lon="1.229506004601717">
        <ele>732.65999999999997</ele>
        <time>2025-05-14T10:06:06Z</time>
      </trkpt>
      <trkpt lat="42.032961007207632" lon="1.229675989598036">
        <ele>734.10000000000002</ele>
        <time>2025-05-14T10:06:07Z</time>
      </trkpt>
      <trkpt lat="42.033010963350534" lon="1.229885034263134">
        <ele>735.07000000000005</ele>
        <time>2025-05-14T10:06:08Z</time>
      </trkpt>
      <trkpt lat="42.033036025241017" lon="1.230121990665793">
        <ele>736.99000000000001</ele>
        <time>2025-05-14T10:06:09Z</time>
      </trkpt>
      <trkpt lat="42.033062009140849" lon="1.23037101700902">
        <ele>738.42999999999995</ele>
        <time>2025-05-14T10:06:10Z</time>
      </trkpt>
      <trkpt lat="42.033087993040681" lon="1.230610990896821">
        <ele>739.38999999999999</ele>
        <time>2025-05-14T10:06:11Z</time>
      </trkpt>
      <trkpt lat="42.033114982768893" lon="1.230837972834706">
        <ele>740.83000000000004</ele>
        <time>2025-05-14T10:06:12Z</time>
      </trkpt>
      <trkpt lat="42.033197963610291" lon="1.231005024164915">
        <ele>742.27999999999997</ele>
        <time>2025-05-14T10:06:13Z</time>
      </trkpt>
      <trkpt lat="42.033310029655695" lon="1.231137961149216">
        <ele>743.24000000000001</ele>
        <time>2025-05-14T10:06:14Z</time>
      </trkpt>
      <trkpt lat="42.03345000743866" lon="1.231240974739194">
        <ele>744.67999999999995</ele>
        <time>2025-05-14T10:06:15Z</time>
      </trkpt>
      <trkpt lat="42.033614963293076" lon="1.231329990550876">
        <ele>746.12</ele>
        <time>2025-05-14T10:06:16Z</time>
      </trkpt>
      <trkpt lat="42.033776985481381" lon="1.231439961120486">
        <ele>747.08000000000004</ele>
        <time>2025-05-14T10:06:17Z</time>
      </trkpt>
      <trkpt lat="42.033948982134461" lon="1.231563007459045">
        <ele>748.51999999999998</ele>
        <time>2025-05-14T10:06:18Z</time>
      </trkpt>
      <trkpt lat="42.034074040129781" lon="1.231733998283744">
        <ele>749.97000000000003</ele>
        <time>2025-05-14T10:06:19Z</time>
      </trkpt>
      <trkpt lat="42.034169007092714" lon="1.231942037120462">
        <ele>751.40999999999997</ele>
        <time>2025-05-14T10:06:20Z</time>
      </trkpt>
      <trkpt lat="42.034232039004564" lon="1.232171030715108">
        <ele>752.85000000000002</ele>
        <time>2025-05-14T10:06:21Z</time>
      </trkpt>
      <trkpt lat="42.034249976277351" lon="1.232420979067683">
        <ele>754.76999999999998</ele>
        <time>2025-05-14T10:06:22Z</time>
      </trkpt>
      <trkpt lat="42.034212006255984" lon="1.232674028724432">
        <ele>756.21000000000004</ele>
        <time>2025-05-14T10:06:23Z</time>
      </trkpt>
      <trkpt lat="42.03416096046567" lon="1.232943003997207">
        <ele>757.65999999999997</ele>
        <time>2025-05-14T10:06:24Z</time>
      </trkpt>
      <trkpt lat="42.034088959917426" lon="1.233218014240265">
        <ele>759.58000000000004</ele>
        <time>2025-05-14T10:06:25Z</time>
      </trkpt>
      <trkpt lat="42.034018971025944" lon="1.233485983684659">
        <ele>761.01999999999998</ele>
        <time>2025-05-14T10:06:26Z</time>
      </trkpt>
      <trkpt lat="42.033781008794904" lon="1.234680991619825">
        <ele>768.71000000000004</ele>
        <time>2025-05-14T10:06:31Z</time>
      </trkpt>
      <trkpt lat="42.033756030723453" lon="1.234913002699614">
        <ele>770.14999999999998</ele>
        <time>2025-05-14T10:06:32Z</time>
      </trkpt>
      <trkpt lat="42.033756030723453" lon="1.236453009769321">
        <ele>780.25</ele>
        <time>2025-05-14T10:06:38Z</time>
      </trkpt>
      <trkpt lat="42.033796012401581" lon="1.236696001142263">
        <ele>782.64999999999998</ele>
        <time>2025-05-14T10:06:39Z</time>
      </trkpt>
      <trkpt lat="42.033861977979541" lon="1.236938992515206">
        <ele>784.09000000000003</ele>
        <time>2025-05-14T10:06:40Z</time>
      </trkpt>
      <trkpt lat="42.034164983779192" lon="1.237538969144225">
        <ele>789.86000000000001</ele>
        <time>2025-05-14T10:06:43Z</time>
      </trkpt>
      <trkpt lat="42.034286018460989" lon="1.237617004662752">
        <ele>791.29999999999995</ele>
        <time>2025-05-14T10:06:44Z</time>
      </trkpt>
      <trkpt lat="42.034422978758812" lon="1.237658997997642">
        <ele>792.74000000000001</ele>
        <time>2025-05-14T10:06:45Z</time>
      </trkpt>
      <trkpt lat="42.03454895876348" lon="1.237652041018009">
        <ele>794.19000000000005</ele>
        <time>2025-05-14T10:06:46Z</time>
      </trkpt>
      <trkpt lat="42.034695977345109" lon="1.23759102076292">
        <ele>795.63</ele>
        <time>2025-05-14T10:06:47Z</time>
      </trkpt>
      <trkpt lat="42.034849030897021" lon="1.237541986629367">
        <ele>797.07000000000005</ele>
        <time>2025-05-14T10:06:48Z</time>
      </trkpt>
      <trkpt lat="42.034994037821889" lon="1.237502004951239">
        <ele>798.50999999999999</ele>
        <time>2025-05-14T10:06:49Z</time>
      </trkpt>
      <trkpt lat="42.035129992291331" lon="1.237464034929872">
        <ele>799.95000000000005</ele>
        <time>2025-05-14T10:06:50Z</time>
      </trkpt>
      <trkpt lat="42.035262007266283" lon="1.237542992457748">
        <ele>801.39999999999998</ele>
        <time>2025-05-14T10:06:51Z</time>
      </trkpt>
      <trkpt lat="42.035368960350752" lon="1.237642988562584">
        <ele>802.36000000000001</ele>
        <time>2025-05-14T10:06:52Z</time>
      </trkpt>
      <trkpt lat="42.03544900752604" lon="1.237801993265748">
        <ele>803.32000000000005</ele>
        <time>2025-05-14T10:06:53Z</time>
      </trkpt>
      <trkpt lat="42.035494018346071" lon="1.23797700740397">
        <ele>804.27999999999997</ele>
        <time>2025-05-14T10:06:54Z</time>
      </trkpt>
      <trkpt lat="42.035517990589142" lon="1.23817297630012">
        <ele>804.75999999999999</ele>
        <time>2025-05-14T10:06:55Z</time>
      </trkpt>
      <trkpt lat="42.035522013902664" lon="1.238398030400276">
        <ele>806.20000000000005</ele>
        <time>2025-05-14T10:06:56Z</time>
      </trkpt>
      <trkpt lat="42.035580016672611" lon="1.240750998258591">
        <ele>816.77999999999997</ele>
        <time>2025-05-14T10:07:06Z</time>
      </trkpt>
      <trkpt lat="42.035580016672611" lon="1.240956019610167">
        <ele>816.77999999999997</ele>
        <time>2025-05-14T10:07:07Z</time>
      </trkpt>
      <trkpt lat="42.035568030551076" lon="1.241140002384782">
        <ele>816.29999999999995</ele>
        <time>2025-05-14T10:07:08Z</time>
      </trkpt>
      <trkpt lat="42.03553500585258" lon="1.241276962682605">
        <ele>816.29999999999995</ele>
        <time>2025-05-14T10:07:09Z</time>
      </trkpt>
      <trkpt lat="42.035510027781129" lon="1.241381987929344">
        <ele>815.82000000000005</ele>
        <time>2025-05-14T10:07:10Z</time>
      </trkpt>
      <trkpt lat="42.035488989204168" lon="1.241464968770742">
        <ele>815.34000000000003</ele>
        <time>2025-05-14T10:07:11Z</time>
      </trkpt>
      <trkpt lat="42.035430986434221" lon="1.241705026477575">
        <ele>812.45000000000005</ele>
        <time>2025-05-14T10:07:19Z</time>
      </trkpt>
      <trkpt lat="42.035424029454589" lon="1.241735033690929">
        <ele>811.49000000000001</ele>
        <time>2025-05-14T10:08:07Z</time>
      </trkpt>
      <trkpt lat="42.035413971170783" lon="1.241841986775398">
        <ele>810.52999999999997</ele>
        <time>2025-05-14T10:08:09Z</time>
      </trkpt>
      <trkpt lat="42.03542604111135" lon="1.241940977051854">
        <ele>810.52999999999997</ele>
        <time>2025-05-14T10:08:10Z</time>
      </trkpt>
      <trkpt lat="42.035440038889647" lon="1.242052037268877">
        <ele>810.04999999999995</ele>
        <time>2025-05-14T10:08:11Z</time>
      </trkpt>
      <trkpt lat="42.035459987819195" lon="1.242155972868204">
        <ele>809.57000000000005</ele>
        <time>2025-05-14T10:08:12Z</time>
      </trkpt>
      <trkpt lat="42.035520002245903" lon="1.242260998114944">
        <ele>809.09000000000003</ele>
        <time>2025-05-14T10:08:13Z</time>
      </trkpt>
      <trkpt lat="42.035585967823863" lon="1.242375997826457">
        <ele>808.61000000000001</ele>
        <time>2025-05-14T10:08:14Z</time>
      </trkpt>
      <trkpt lat="42.035658974200487" lon="1.242500972002745">
        <ele>808.13</ele>
        <time>2025-05-14T10:08:15Z</time>
      </trkpt>
      <trkpt lat="42.036363976076245" lon="1.243615010753274">
        <ele>801.39999999999998</ele>
        <time>2025-05-14T10:08:22Z</time>
      </trkpt>
      <trkpt lat="42.037006029859185" lon="1.244540037587285">
        <ele>795.63</ele>
        <time>2025-05-14T10:08:27Z</time>
      </trkpt>
      <trkpt lat="42.037128992378712" lon="1.244639027863741">
        <ele>794.66999999999996</ele>
        <time>2025-05-14T10:08:28Z</time>
      </trkpt>
      <trkpt lat="42.037253966554999" lon="1.244695018976927">
        <ele>793.71000000000004</ele>
        <time>2025-05-14T10:08:29Z</time>
      </trkpt>
      <trkpt lat="42.037382964044809" lon="1.244679009541869">
        <ele>792.74000000000001</ele>
        <time>2025-05-14T10:08:30Z</time>
      </trkpt>
      <trkpt lat="42.037480026483536" lon="1.244627041742206">
        <ele>791.77999999999997</ele>
        <time>2025-05-14T10:08:31Z</time>
      </trkpt>
      <trkpt lat="42.03757599927485" lon="1.244544982910156">
        <ele>790.82000000000005</ele>
        <time>2025-05-14T10:08:32Z</time>
      </trkpt>
      <trkpt lat="42.03766300342977" lon="1.24440299347043">
        <ele>789.86000000000001</ele>
        <time>2025-05-14T10:08:33Z</time>
      </trkpt>
      <trkpt lat="42.03774900175631" lon="1.244262009859085">
        <ele>788.41999999999996</ele>
        <time>2025-05-14T10:08:34Z</time>
      </trkpt>
      <trkpt lat="42.037805998697877" lon="1.244052965193987">
        <ele>787.46000000000004</ele>
        <time>2025-05-14T10:08:35Z</time>
      </trkpt>
      <trkpt lat="42.037866013124585" lon="1.243826989084482">
        <ele>786.01999999999998</ele>
        <time>2025-05-14T10:08:36Z</time>
      </trkpt>
      <trkpt lat="42.038193996995687" lon="1.242628963664174">
        <ele>779.28999999999996</ele>
        <time>2025-05-14T10:08:41Z</time>
      </trkpt>
      <trkpt lat="42.038291981443763" lon="1.242444980889559">
        <ele>778.32000000000005</ele>
        <time>2025-05-14T10:08:42Z</time>
      </trkpt>
      <trkpt lat="42.038418967276812" lon="1.242335010319948">
        <ele>777.36000000000001</ele>
        <time>2025-05-14T10:08:43Z</time>
      </trkpt>
      <trkpt lat="42.038534972816706" lon="1.242248006165028">
        <ele>776.39999999999998</ele>
        <time>2025-05-14T10:08:44Z</time>
      </trkpt>
      <trkpt lat="42.038674028590322" lon="1.242227973416448">
        <ele>775.91999999999996</ele>
        <time>2025-05-14T10:08:45Z</time>
      </trkpt>
      <trkpt lat="42.038817023858428" lon="1.242227973416448">
        <ele>775.44000000000005</ele>
        <time>2025-05-14T10:08:46Z</time>
      </trkpt>
      <trkpt lat="42.038948033004999" lon="1.242323024198413">
        <ele>774.48000000000002</ele>
        <time>2025-05-14T10:08:47Z</time>
      </trkpt>
      <trkpt lat="42.039061021059752" lon="1.242455039173365">
        <ele>774</ele>
        <time>2025-05-14T10:08:48Z</time>
      </trkpt>
      <trkpt lat="42.039175014942884" lon="1.242615971714258">
        <ele>773.03999999999996</ele>
        <time>2025-05-14T10:08:49Z</time>
      </trkpt>
      <trkpt lat="42.03929596580565" lon="1.242788974195719">
        <ele>772.08000000000004</ele>
        <time>2025-05-14T10:08:50Z</time>
      </trkpt>
      <trkpt lat="42.039775997400284" lon="1.24354200437665">
        <ele>767.75</ele>
        <time>2025-05-14T10:08:54Z</time>
      </trkpt>
      <trkpt lat="42.039826959371567" lon="1.243761023506522">
        <ele>766.30999999999995</ele>
        <time>2025-05-14T10:08:55Z</time>
      </trkpt>
      <trkpt lat="42.039850009605289" lon="1.243970990180969">
        <ele>765.35000000000002</ele>
        <time>2025-05-14T10:08:56Z</time>
      </trkpt>
      <trkpt lat="42.039813967421651" lon="1.244177017360926">
        <ele>763.89999999999998</ele>
        <time>2025-05-14T10:08:57Z</time>
      </trkpt>
      <trkpt lat="42.039739033207297" lon="1.244387989863753">
        <ele>762.46000000000004</ele>
        <time>2025-05-14T10:08:58Z</time>
      </trkpt>
      <trkpt lat="42.039654040709138" lon="1.244609020650387">
        <ele>761.5</ele>
        <time>2025-05-14T10:08:59Z</time>
      </trkpt>
      <trkpt lat="42.039561001583934" lon="1.244842037558556">
        <ele>759.58000000000004</ele>
        <time>2025-05-14T10:09:00Z</time>
      </trkpt>
      <trkpt lat="42.039008969441056" lon="1.246458990499377">
        <ele>749.97000000000003</ele>
        <time>2025-05-14T10:09:06Z</time>
      </trkpt>
      <trkpt lat="42.038946021348238" lon="1.246745986863971">
        <ele>748.51999999999998</ele>
        <time>2025-05-14T10:09:07Z</time>
      </trkpt>
      <trkpt lat="42.038920959457755" lon="1.2470449693501">
        <ele>747.08000000000004</ele>
        <time>2025-05-14T10:09:08Z</time>
      </trkpt>
      <trkpt lat="42.038910984992981" lon="1.247341018170118">
        <ele>745.63999999999999</ele>
        <time>2025-05-14T10:09:09Z</time>
      </trkpt>
      <trkpt lat="42.038922971114516" lon="1.24764502979815">
        <ele>744.67999999999995</ele>
        <time>2025-05-14T10:09:10Z</time>
      </trkpt>
      <trkpt lat="42.038962030783296" lon="1.247933031991124">
        <ele>743.72000000000003</ele>
        <time>2025-05-14T10:09:11Z</time>
      </trkpt>
      <trkpt lat="42.039021961390972" lon="1.248221034184098">
        <ele>742.75999999999999</ele>
        <time>2025-05-14T10:09:12Z</time>
      </trkpt>
      <trkpt lat="42.039078958332539" lon="1.248497972264886">
        <ele>742.27999999999997</ele>
        <time>2025-05-14T10:09:13Z</time>
      </trkpt>
      <trkpt lat="42.039133021607995" lon="1.248759990558028">
        <ele>741.78999999999996</ele>
        <time>2025-05-14T10:09:14Z</time>
      </trkpt>
      <trkpt lat="42.039182977750897" lon="1.249002981930971">
        <ele>741.30999999999995</ele>
        <time>2025-05-14T10:09:15Z</time>
      </trkpt>
      <trkpt lat="42.039196975529194" lon="1.249231975525618">
        <ele>741.30999999999995</ele>
        <time>2025-05-14T10:09:16Z</time>
      </trkpt>
      <trkpt lat="42.039160011336207" lon="1.249442026019096">
        <ele>741.30999999999995</ele>
        <time>2025-05-14T10:09:17Z</time>
      </trkpt>
      <trkpt lat="42.039088010787964" lon="1.249639000743628">
        <ele>741.78999999999996</ele>
        <time>2025-05-14T10:09:18Z</time>
      </trkpt>
      <trkpt lat="42.039019027724862" lon="1.249830024316907">
        <ele>741.78999999999996</ele>
        <time>2025-05-14T10:09:19Z</time>
      </trkpt>
      <trkpt lat="42.038996983319521" lon="1.250021969899535">
        <ele>742.27999999999997</ele>
        <time>2025-05-14T10:09:20Z</time>
      </trkpt>
      <trkpt lat="42.039024978876114" lon="1.25020301900804">
        <ele>742.75999999999999</ele>
        <time>2025-05-14T10:09:21Z</time>
      </trkpt>
      <trkpt lat="42.039087004959583" lon="1.250363029539585">
        <ele>743.72000000000003</ele>
        <time>2025-05-14T10:09:22Z</time>
      </trkpt>
      <trkpt lat="42.039179960265756" lon="1.25050300732255">
        <ele>744.20000000000005</ele>
        <time>2025-05-14T10:09:23Z</time>
      </trkpt>
      <trkpt lat="42.039304012432694" lon="1.250565033406019">
        <ele>744.67999999999995</ele>
        <time>2025-05-14T10:09:24Z</time>
      </trkpt>
      <trkpt lat="42.039438961073756" lon="1.250626975670457">
        <ele>745.15999999999997</ele>
        <time>2025-05-14T10:09:25Z</time>
      </trkpt>
      <trkpt lat="42.039576005190611" lon="1.250691013410687">
        <ele>745.63999999999999</ele>
        <time>2025-05-14T10:09:26Z</time>
      </trkpt>
      <trkpt lat="42.039716988801956" lon="1.250755973160267">
        <ele>746.12</ele>
        <time>2025-05-14T10:09:27Z</time>
      </trkpt>
      <trkpt lat="42.039841040968895" lon="1.250851023942232">
        <ele>746.12</ele>
        <time>2025-05-14T10:09:28Z</time>
      </trkpt>
      <trkpt lat="42.039929972961545" lon="1.250989995896816">
        <ele>746.12</ele>
        <time>2025-05-14T10:09:29Z</time>
      </trkpt>
      <trkpt lat="42.039979007095098" lon="1.251160986721516">
        <ele>746.60000000000002</ele>
        <time>2025-05-14T10:09:30Z</time>
      </trkpt>
      <trkpt lat="42.039979007095098" lon="1.251359973102808">
        <ele>746.60000000000002</ele>
        <time>2025-05-14T10:09:31Z</time>
      </trkpt>
      <trkpt lat="42.039950005710125" lon="1.251560971140862">
        <ele>746.60000000000002</ele>
        <time>2025-05-14T10:09:32Z</time>
      </trkpt>
      <trkpt lat="42.039880016818643" lon="1.251773033291102">
        <ele>746.60000000000002</ele>
        <time>2025-05-14T10:09:33Z</time>
      </trkpt>
      <trkpt lat="42.039803992956877" lon="1.252000015228987">
        <ele>746.60000000000002</ele>
        <time>2025-05-14T10:09:34Z</time>
      </trkpt>
      <trkpt lat="42.039438961073756" lon="1.253155041486025">
        <ele>745.63999999999999</ele>
        <time>2025-05-14T10:09:39Z</time>
      </trkpt>
      <trkpt lat="42.039429992437363" lon="1.253355033695698">
        <ele>745.15999999999997</ele>
        <time>2025-05-14T10:09:40Z</time>
      </trkpt>
      <trkpt lat="42.039421023800969" lon="1.253557037562132">
        <ele>745.15999999999997</ele>
        <time>2025-05-14T10:09:41Z</time>
      </trkpt>
      <trkpt lat="42.03946896828711" lon="1.253740014508367">
        <ele>745.15999999999997</ele>
        <time>2025-05-14T10:09:42Z</time>
      </trkpt>
      <trkpt lat="42.039521019905806" lon="1.253944030031562">
        <ele>745.15999999999997</ele>
        <time>2025-05-14T10:09:43Z</time>
      </trkpt>
      <trkpt lat="42.039794018492103" lon="1.254743998870254">
        <ele>744.20000000000005</ele>
        <time>2025-05-14T10:09:47Z</time>
      </trkpt>
      <trkpt lat="42.039884040132165" lon="1.254899986088276">
        <ele>743.72000000000003</ele>
        <time>2025-05-14T10:09:48Z</time>
      </trkpt>
      <trkpt lat="42.039978001266718" lon="1.255045998841524">
        <ele>743.24000000000001</ele>
        <time>2025-05-14T10:09:49Z</time>
      </trkpt>
      <trkpt lat="42.040103981271386" lon="1.255142977461219">
        <ele>743.24000000000001</ele>
        <time>2025-05-14T10:09:50Z</time>
      </trkpt>
      <trkpt lat="42.040233984589577" lon="1.255223024636507">
        <ele>743.24000000000001</ele>
        <time>2025-05-14T10:09:51Z</time>
      </trkpt>
      <trkpt lat="42.040362982079387" lon="1.255300976336002">
        <ele>743.24000000000001</ele>
        <time>2025-05-14T10:09:52Z</time>
      </trkpt>
      <trkpt lat="42.04075500369072" lon="1.255451012402773">
        <ele>742.27999999999997</ele>
        <time>2025-05-14T10:09:55Z</time>
      </trkpt>
      <trkpt lat="42.04086204059422" lon="1.255455035716295">
        <ele>741.30999999999995</ele>
        <time>2025-05-14T10:09:56Z</time>
      </trkpt>
      <trkpt lat="42.040963964536786" lon="1.255429973825812">
        <ele>740.83000000000004</ele>
        <time>2025-05-14T10:09:57Z</time>
      </trkpt>
      <trkpt lat="42.041048035025597" lon="1.255389992147684">
        <ele>740.35000000000002</ele>
        <time>2025-05-14T10:09:58Z</time>
      </trkpt>
      <trkpt lat="42.041123975068331" lon="1.255347998812795">
        <ele>739.38999999999999</ele>
        <time>2025-05-14T10:09:59Z</time>
      </trkpt>
      <trkpt lat="42.041180972009897" lon="1.25531698577106">
        <ele>738.90999999999997</ele>
        <time>2025-05-14T10:10:00Z</time>
      </trkpt>
      <trkpt lat="42.041226988658309" lon="1.25527398660779">
        <ele>737.95000000000005</ele>
        <time>2025-05-14T10:10:01Z</time>
      </trkpt>
      <trkpt lat="42.041268981993198" lon="1.255236016586423">
        <ele>736.99000000000001</ele>
        <time>2025-05-14T10:10:02Z</time>
      </trkpt>
      <trkpt lat="42.041460005566478" lon="1.25505899079144">
        <ele>730.74000000000001</ele>
        <time>2025-05-14T10:10:12Z</time>
      </trkpt>
      <trkpt lat="42.041577016934752" lon="1.254934016615152">
        <ele>725.92999999999995</ele>
        <time>2025-05-14T10:10:23Z</time>
      </trkpt>
      <trkpt lat="42.041577016934752" lon="1.254934016615152">
        <ele>725.45000000000005</ele>
        <time>2025-05-14T10:11:09Z</time>
      </trkpt>
      <trkpt lat="42.041798969730735" lon="1.254698988050222">
        <ele>722.57000000000005</ele>
        <time>2025-05-14T10:11:20Z</time>
      </trkpt>
      <trkpt lat="42.042575972154737" lon="1.253959033638239">
        <ele>718.72000000000003</ele>
        <time>2025-05-14T10:11:26Z</time>
      </trkpt>
      <trkpt lat="42.042757021263242" lon="1.253819977864623">
        <ele>718.24000000000001</ele>
        <time>2025-05-14T10:11:27Z</time>
      </trkpt>
      <trkpt lat="42.042963970452547" lon="1.253715036436915">
        <ele>717.75999999999999</ele>
        <time>2025-05-14T10:11:28Z</time>
      </trkpt>
      <trkpt lat="42.044444968923926" lon="1.253007017076016">
        <ele>713.91999999999996</ele>
        <time>2025-05-14T10:11:35Z</time>
      </trkpt>
      <trkpt lat="42.044654013589025" lon="1.252964017912746">
        <ele>713.44000000000005</ele>
        <time>2025-05-14T10:11:36Z</time>
      </trkpt>
      <trkpt lat="42.044868003576994" lon="1.25293199904263">
        <ele>712.47000000000003</ele>
        <time>2025-05-14T10:11:37Z</time>
      </trkpt>
      <trkpt lat="42.046110033988953" lon="1.252948008477688">
        <ele>710.07000000000005</ele>
        <time>2025-05-14T10:11:43Z</time>
      </trkpt>
      <trkpt lat="42.046287981793284" lon="1.252978015691042">
        <ele>709.59000000000003</ele>
        <time>2025-05-14T10:11:44Z</time>
      </trkpt>
      <trkpt lat="42.046415973454714" lon="1.253084968775511">
        <ele>709.59000000000003</ele>
        <time>2025-05-14T10:11:45Z</time>
      </trkpt>
      <trkpt lat="42.046539019793272" lon="1.25327498652041">
        <ele>709.59000000000003</ele>
        <time>2025-05-14T10:11:46Z</time>
      </trkpt>
      <trkpt lat="42.046658964827657" lon="1.253462992608547">
        <ele>709.59000000000003</ele>
        <time>2025-05-14T10:11:47Z</time>
      </trkpt>
      <trkpt lat="42.046772036701441" lon="1.253677988424897">
        <ele>709.59000000000003</ele>
        <time>2025-05-14T10:11:48Z</time>
      </trkpt>
      <trkpt lat="42.047615004703403" lon="1.255225958302617">
        <ele>708.63</ele>
        <time>2025-05-14T10:11:55Z</time>
      </trkpt>
      <trkpt lat="42.047751965001225" lon="1.255365014076233">
        <ele>708.14999999999998</ele>
        <time>2025-05-14T10:11:56Z</time>
      </trkpt>
      <trkpt lat="42.047899989411235" lon="1.255489988252521">
        <ele>708.14999999999998</ele>
        <time>2025-05-14T10:11:57Z</time>
      </trkpt>
      <trkpt lat="42.048076009377837" lon="1.255577998235822">
        <ele>708.14999999999998</ele>
        <time>2025-05-14T10:11:58Z</time>
      </trkpt>
      <trkpt lat="42.048259992152452" lon="1.255670031532645">
        <ele>708.14999999999998</ele>
        <time>2025-05-14T10:11:59Z</time>
      </trkpt>
      <trkpt lat="42.049241010099649" lon="1.25621996819973">
        <ele>705.25999999999999</ele>
        <time>2025-05-14T10:12:04Z</time>
      </trkpt>
      <trkpt lat="42.049408983439207" lon="1.256359023973346">
        <ele>704.29999999999995</ele>
        <time>2025-05-14T10:12:05Z</time>
      </trkpt>
      <trkpt lat="42.049503028392792" lon="1.256571002304554">
        <ele>703.34000000000003</ele>
        <time>2025-05-14T10:12:06Z</time>
      </trkpt>
      <trkpt lat="42.049587015062571" lon="1.25677602365613">
        <ele>702.38</ele>
        <time>2025-05-14T10:12:07Z</time>
      </trkpt>
      <trkpt lat="42.04962900839746" lon="1.256988001987338">
        <ele>700.94000000000005</ele>
        <time>2025-05-14T10:12:08Z</time>
      </trkpt>
      <trkpt lat="42.049653986468911" lon="1.257231999188662">
        <ele>699.5</ele>
        <time>2025-05-14T10:12:09Z</time>
      </trkpt>
      <trkpt lat="42.049679970368743" lon="1.257485970854759">
        <ele>698.52999999999997</ele>
        <time>2025-05-14T10:12:10Z</time>
      </trkpt>
      <trkpt lat="42.049711989238858" lon="1.257733991369605">
        <ele>697.09000000000003</ele>
        <time>2025-05-14T10:12:11Z</time>
      </trkpt>
      <trkpt lat="42.049764040857553" lon="1.257968014106154">
        <ele>695.64999999999998</ele>
        <time>2025-05-14T10:12:12Z</time>
      </trkpt>
      <trkpt lat="42.049847021698952" lon="1.258178986608982">
        <ele>694.21000000000004</ele>
        <time>2025-05-14T10:12:13Z</time>
      </trkpt>
      <trkpt lat="42.049960009753704" lon="1.25839096494019">
        <ele>692.76999999999998</ele>
        <time>2025-05-14T10:12:14Z</time>
      </trkpt>
      <trkpt lat="42.050088001415133" lon="1.258611995726824">
        <ele>691.33000000000004</ele>
        <time>2025-05-14T10:12:15Z</time>
      </trkpt>
      <trkpt lat="42.050963994115591" lon="1.260273959487677">
        <ele>680.75</ele>
        <time>2025-05-14T10:12:22Z</time>
      </trkpt>
      <trkpt lat="42.051007999107242" lon="1.260468000546098">
        <ele>678.83000000000004</ele>
        <time>2025-05-14T10:12:23Z</time>
      </trkpt>
      <trkpt lat="42.051007999107242" lon="1.260660029947758">
        <ele>677.38999999999999</ele>
        <time>2025-05-14T10:12:24Z</time>
      </trkpt>
      <trkpt lat="42.050932981073856" lon="1.260849041864276">
        <ele>675.94000000000005</ele>
        <time>2025-05-14T10:12:25Z</time>
      </trkpt>
      <trkpt lat="42.050836002454162" lon="1.261004023253918">
        <ele>674.5</ele>
        <time>2025-05-14T10:12:26Z</time>
      </trkpt>
      <trkpt lat="42.050713039934635" lon="1.261109970510006">
        <ele>673.05999999999995</ele>
        <time>2025-05-14T10:12:27Z</time>
      </trkpt>
      <trkpt lat="42.050554035231471" lon="1.261193035170436">
        <ele>671.13999999999999</ele>
        <time>2025-05-14T10:12:28Z</time>
      </trkpt>
      <trkpt lat="42.050382038578391" lon="1.261282972991467">
        <ele>669.22000000000003</ele>
        <time>2025-05-14T10:12:29Z</time>
      </trkpt>
      <trkpt lat="42.050195038318634" lon="1.261363020166755">
        <ele>667.76999999999998</ele>
        <time>2025-05-14T10:12:30Z</time>
      </trkpt>
      <trkpt lat="42.049072030931711" lon="1.261855037882924">
        <ele>655.75999999999999</ele>
        <time>2025-05-14T10:12:36Z</time>
      </trkpt>
      <trkpt lat="42.048961976543069" lon="1.261979006230831">
        <ele>653.83000000000004</ele>
        <time>2025-05-14T10:12:37Z</time>
      </trkpt>
      <trkpt lat="42.048884024843574" lon="1.262118984013796">
        <ele>652.38999999999999</ele>
        <time>2025-05-14T10:12:38Z</time>
      </trkpt>
      <trkpt lat="42.048872960731387" lon="1.262282012030482">
        <ele>650.95000000000005</ele>
        <time>2025-05-14T10:12:39Z</time>
      </trkpt>
      <trkpt lat="42.048861980438232" lon="1.262441016733646">
        <ele>649.50999999999999</ele>
        <time>2025-05-14T10:12:40Z</time>
      </trkpt>
      <trkpt lat="42.048925012350082" lon="1.262597003951669">
        <ele>648.07000000000005</ele>
        <time>2025-05-14T10:12:41Z</time>
      </trkpt>
      <trkpt lat="42.048990977928042" lon="1.262762965634465">
        <ele>647.10000000000002</ele>
        <time>2025-05-14T10:12:42Z</time>
      </trkpt>
      <trkpt lat="42.049090974032879" lon="1.262876959517598">
        <ele>645.65999999999997</ele>
        <time>2025-05-14T10:12:43Z</time>
      </trkpt>
      <trkpt lat="42.04922198317945" lon="1.262981984764338">
        <ele>644.22000000000003</ele>
        <time>2025-05-14T10:12:44Z</time>
      </trkpt>
      <trkpt lat="42.049380987882614" lon="1.263076029717922">
        <ele>642.77999999999997</ele>
        <time>2025-05-14T10:12:45Z</time>
      </trkpt>
      <trkpt lat="42.049867976456881" lon="1.26343603245914">
        <ele>637.97000000000003</ele>
        <time>2025-05-14T10:12:48Z</time>
      </trkpt>
      <trkpt lat="42.050004014745355" lon="1.263586990535259">
        <ele>636.04999999999995</ele>
        <time>2025-05-14T10:12:49Z</time>
      </trkpt>
      <trkpt lat="42.050096970051527" lon="1.263771979138255">
        <ele>634.13</ele>
        <time>2025-05-14T10:12:50Z</time>
      </trkpt>
      <trkpt lat="42.050137035548687" lon="1.263972977176309">
        <ele>632.20000000000005</ele>
        <time>2025-05-14T10:12:51Z</time>
      </trkpt>
      <trkpt lat="42.050129994750023" lon="1.26416802406311">
        <ele>630.27999999999997</ele>
        <time>2025-05-14T10:12:52Z</time>
      </trkpt>
      <trkpt lat="42.050085989758372" lon="1.264360975474119">
        <ele>628.84000000000003</ele>
        <time>2025-05-14T10:12:53Z</time>
      </trkpt>
      <trkpt lat="42.050006026402116" lon="1.264541018754244">
        <ele>626.91999999999996</ele>
        <time>2025-05-14T10:12:54Z</time>
      </trkpt>
      <trkpt lat="42.049882980063558" lon="1.264691976830363">
        <ele>625.47000000000003</ele>
        <time>2025-05-14T10:12:55Z</time>
      </trkpt>
      <trkpt lat="42.049741996452212" lon="1.264864979311824">
        <ele>623.54999999999995</ele>
        <time>2025-05-14T10:12:56Z</time>
      </trkpt>
      <trkpt lat="42.049605958163738" lon="1.264991965144873">
        <ele>621.14999999999998</ele>
        <time>2025-05-14T10:12:57Z</time>
      </trkpt>
      <trkpt lat="42.049465980380774" lon="1.265122974291444">
        <ele>619.23000000000002</ele>
        <time>2025-05-14T10:12:58Z</time>
      </trkpt>
      <trkpt lat="42.049360033124685" lon="1.26526596955955">
        <ele>616.34000000000003</ele>
        <time>2025-05-14T10:12:59Z</time>
      </trkpt>
      <trkpt lat="42.049287026748061" lon="1.265422040596604">
        <ele>614.41999999999996</ele>
        <time>2025-05-14T10:13:00Z</time>
      </trkpt>
      <trkpt lat="42.049266993999481" lon="1.265613986179233">
        <ele>612.5</ele>
        <time>2025-05-14T10:13:01Z</time>
      </trkpt>
      <trkpt lat="42.049255007877946" lon="1.265809033066034">
        <ele>610.57000000000005</ele>
        <time>2025-05-14T10:13:02Z</time>
      </trkpt>
      <trkpt lat="42.049314016476274" lon="1.265997039154172">
        <ele>609.13</ele>
        <time>2025-05-14T10:13:03Z</time>
      </trkpt>
      <trkpt lat="42.049389034509659" lon="1.266167024150491">
        <ele>607.21000000000004</ele>
        <time>2025-05-14T10:13:04Z</time>
      </trkpt>
      <trkpt lat="42.049511997029185" lon="1.266300966963172">
        <ele>606.25</ele>
        <time>2025-05-14T10:13:05Z</time>
      </trkpt>
      <trkpt lat="42.049646023660898" lon="1.266427030786872">
        <ele>605.28999999999996</ele>
        <time>2025-05-14T10:13:06Z</time>
      </trkpt>
      <trkpt lat="42.049805028364062" lon="1.26650900579989">
        <ele>603.85000000000002</ele>
        <time>2025-05-14T10:13:07Z</time>
      </trkpt>
      <trkpt lat="42.051489958539605" lon="1.26736999489367">
        <ele>588.95000000000005</ele>
        <time>2025-05-14T10:13:17Z</time>
      </trkpt>
      <trkpt lat="42.053371025249362" lon="1.268537007272244">
        <ele>572.12</ele>
        <time>2025-05-14T10:13:29Z</time>
      </trkpt>
      <trkpt lat="42.054110979661345" lon="1.269727991893888">
        <ele>562.50999999999999</ele>
        <time>2025-05-14T10:13:36Z</time>
      </trkpt>
      <trkpt lat="42.055289978161454" lon="1.272133011370897">
        <ele>544.72000000000003</ele>
        <time>2025-05-14T10:13:48Z</time>
      </trkpt>
      <trkpt lat="42.056468976661563" lon="1.273637982085347">
        <ele>533.66999999999996</ele>
        <time>2025-05-14T10:13:56Z</time>
      </trkpt>
      <trkpt lat="42.057936983183026" lon="1.275158040225506">
        <ele>529.82000000000005</ele>
        <time>2025-05-14T10:14:05Z</time>
      </trkpt>
      <trkpt lat="42.059117993339896" lon="1.2754260096699">
        <ele>533.66999999999996</ele>
        <time>2025-05-14T10:14:11Z</time>
      </trkpt>
      <trkpt lat="42.059322008863091" lon="1.275398014113307">
        <ele>534.63</ele>
        <time>2025-05-14T10:14:12Z</time>
      </trkpt>
      <trkpt lat="42.061110958456993" lon="1.27510498277843">
        <ele>545.20000000000005</ele>
        <time>2025-05-14T10:14:21Z</time>
      </trkpt>
      <trkpt lat="42.061302987858653" lon="1.275134989991784">
        <ele>546.16999999999996</ele>
        <time>2025-05-14T10:14:22Z</time>
      </trkpt>
      <trkpt lat="42.061480013653636" lon="1.275210008025169">
        <ele>547.61000000000001</ele>
        <time>2025-05-14T10:14:23Z</time>
      </trkpt>
      <trkpt lat="42.061646981164813" lon="1.275281002745032">
        <ele>548.57000000000005</ele>
        <time>2025-05-14T10:14:24Z</time>
      </trkpt>
      <trkpt lat="42.061806991696358" lon="1.275348979979754">
        <ele>550.00999999999999</ele>
        <time>2025-05-14T10:14:25Z</time>
      </trkpt>
      <trkpt lat="42.061964990571141" lon="1.275432966649532">
        <ele>550.97000000000003</ele>
        <time>2025-05-14T10:14:26Z</time>
      </trkpt>
      <trkpt lat="42.062108991667628" lon="1.275564981624484">
        <ele>551.92999999999995</ele>
        <time>2025-05-14T10:14:27Z</time>
      </trkpt>
      <trkpt lat="42.062830002978444" lon="1.276520015671849">
        <ele>551.45000000000005</ele>
        <time>2025-05-14T10:14:33Z</time>
      </trkpt>
      <trkpt lat="42.063368959352374" lon="1.27830401994288">
        <ele>545.69000000000005</ele>
        <time>2025-05-14T10:14:41Z</time>
      </trkpt>
      <trkpt lat="42.064012018963695" lon="1.280680038034916">
        <ele>537.99000000000001</ele>
        <time>2025-05-14T10:14:50Z</time>
      </trkpt>
      <trkpt lat="42.064581988379359" lon="1.283371970057488">
        <ele>532.71000000000004</ele>
        <time>2025-05-14T10:15:00Z</time>
      </trkpt>
      <trkpt lat="42.065252037718892" lon="1.287963995710015">
        <ele>519.25</ele>
        <time>2025-05-14T10:15:16Z</time>
      </trkpt>
      <trkpt lat="42.065802980214357" lon="1.291551031172276">
        <ele>506.26999999999998</ele>
        <time>2025-05-14T10:15:29Z</time>
      </trkpt>
      <trkpt lat="42.065871963277459" lon="1.291760997846723">
        <ele>505.79000000000002</ele>
        <time>2025-05-14T10:15:30Z</time>
      </trkpt>
      <trkpt lat="42.065967014059424" lon="1.291951015591621">
        <ele>504.82999999999998</ele>
        <time>2025-05-14T10:15:31Z</time>
      </trkpt>
      <trkpt lat="42.06608796492219" lon="1.292117983102799">
        <ele>504.35000000000002</ele>
        <time>2025-05-14T10:15:32Z</time>
      </trkpt>
      <trkpt lat="42.066230960190296" lon="1.292273970320821">
        <ele>503.87</ele>
        <time>2025-05-14T10:15:33Z</time>
      </trkpt>
      <trkpt lat="42.066380996257067" lon="1.292434986680746">
        <ele>503.38999999999999</ele>
        <time>2025-05-14T10:15:34Z</time>
      </trkpt>
      <trkpt lat="42.067553959786892" lon="1.293650027364492">
        <ele>498.10000000000002</ele>
        <time>2025-05-14T10:15:42Z</time>
      </trkpt>
      <trkpt lat="42.067657979205251" lon="1.293767038732767">
        <ele>496.66000000000003</ele>
        <time>2025-05-14T10:15:43Z</time>
      </trkpt>
      <trkpt lat="42.067678011953831" lon="1.293920008465648">
        <ele>495.69999999999999</ele>
        <time>2025-05-14T10:15:44Z</time>
      </trkpt>
      <trkpt lat="42.06769703887403" lon="1.294069038704038">
        <ele>494.74000000000001</ele>
        <time>2025-05-14T10:15:45Z</time>
      </trkpt>
      <trkpt lat="42.067687986418605" lon="1.294208010658622">
        <ele>493.29000000000002</ele>
        <time>2025-05-14T10:15:46Z</time>
      </trkpt>
      <trkpt lat="42.067663008347154" lon="1.29437698982656">
        <ele>492.32999999999998</ele>
        <time>2025-05-14T10:15:47Z</time>
      </trkpt>
      <trkpt lat="42.0676330011338" lon="1.294578993692994">
        <ele>491.37</ele>
        <time>2025-05-14T10:15:48Z</time>
      </trkpt>
      <trkpt lat="42.067607017233968" lon="1.294787032529712">
        <ele>490.41000000000003</ele>
        <time>2025-05-14T10:15:49Z</time>
      </trkpt>
      <trkpt lat="42.067581033334136" lon="1.294998005032539">
        <ele>489.44999999999999</ele>
        <time>2025-05-14T10:15:50Z</time>
      </trkpt>
      <trkpt lat="42.067521018907428" lon="1.295206965878606">
        <ele>488.00999999999999</ele>
        <time>2025-05-14T10:15:51Z</time>
      </trkpt>
      <trkpt lat="42.067452035844326" lon="1.295407963916659">
        <ele>487.05000000000001</ele>
        <time>2025-05-14T10:15:52Z</time>
      </trkpt>
      <trkpt lat="42.067390009760857" lon="1.295585995540023">
        <ele>485.60000000000002</ele>
        <time>2025-05-14T10:15:53Z</time>
      </trkpt>
      <trkpt lat="42.067368971183896" lon="1.295738965272903">
        <ele>484.16000000000003</ele>
        <time>2025-05-14T10:15:54Z</time>
      </trkpt>
      <trkpt lat="42.067366037517786" lon="1.295859999954701">
        <ele>482.72000000000003</ele>
        <time>2025-05-14T10:15:55Z</time>
      </trkpt>
      <trkpt lat="42.067426973953843" lon="1.295943986624479">
        <ele>481.75999999999999</ele>
        <time>2025-05-14T10:15:56Z</time>
      </trkpt>
      <trkpt lat="42.067530993372202" lon="1.296085976064205">
        <ele>480.31999999999999</ele>
        <time>2025-05-14T10:15:57Z</time>
      </trkpt>
      <trkpt lat="42.067609028890729" lon="1.296132998540998">
        <ele>479.35000000000002</ele>
        <time>2025-05-14T10:15:58Z</time>
      </trkpt>
      <trkpt lat="42.067875992506742" lon="1.2962899915874">
        <ele>476.94999999999999</ele>
        <time>2025-05-14T10:16:00Z</time>
      </trkpt>
      <trkpt lat="42.068017981946468" lon="1.296378001570702">
        <ele>475.99000000000001</ele>
        <time>2025-05-14T10:16:01Z</time>
      </trkpt>
      <trkpt lat="42.068152008578181" lon="1.296496018767357">
        <ele>474.55000000000001</ele>
        <time>2025-05-14T10:16:02Z</time>
      </trkpt>
      <trkpt lat="42.068261979147792" lon="1.296625016257167">
        <ele>473.11000000000001</ele>
        <time>2025-05-14T10:16:03Z</time>
      </trkpt>
      <trkpt lat="42.068356024101377" lon="1.296733980998397">
        <ele>471.66000000000003</ele>
        <time>2025-05-14T10:16:04Z</time>
      </trkpt>
      <trkpt lat="42.068449985235929" lon="1.296792989596725">
        <ele>470.22000000000003</ele>
        <time>2025-05-14T10:16:05Z</time>
      </trkpt>
      <trkpt lat="42.068517962470651" lon="1.296816039830446">
        <ele>469.25999999999999</ele>
        <time>2025-05-14T10:16:06Z</time>
      </trkpt>
      <trkpt lat="42.068606978282332" lon="1.296764994040132">
        <ele>468.30000000000001</ele>
        <time>2025-05-14T10:16:07Z</time>
      </trkpt>
      <trkpt lat="42.068667998537421" lon="1.296730041503906">
        <ele>466.86000000000001</ele>
        <time>2025-05-14T10:16:08Z</time>
      </trkpt>
      <trkpt lat="42.068704040721059" lon="1.296615963801742">
        <ele>465.42000000000002</ele>
        <time>2025-05-14T10:16:09Z</time>
      </trkpt>
      <trkpt lat="42.068749973550439" lon="1.296471040695906">
        <ele>463.97000000000003</ele>
        <time>2025-05-14T10:16:10Z</time>
      </trkpt>
      <trkpt lat="42.068947032094002" lon="1.295699989423156">
        <ele>456.27999999999997</ele>
        <time>2025-05-14T10:16:15Z</time>
      </trkpt>
      <trkpt lat="42.069020960479975" lon="1.295655984431505">
        <ele>454.83999999999997</ele>
        <time>2025-05-14T10:16:16Z</time>
      </trkpt>
      <trkpt lat="42.069068988785148" lon="1.295640980824828">
        <ele>453.88</ele>
        <time>2025-05-14T10:16:17Z</time>
      </trkpt>
      <trkpt lat="42.069150041788816" lon="1.29566696472466">
        <ele>452.44</ele>
        <time>2025-05-14T10:16:18Z</time>
      </trkpt>
      <trkpt lat="42.069210978224874" lon="1.295735025778413">
        <ele>451.48000000000002</ele>
        <time>2025-05-14T10:16:19Z</time>
      </trkpt>
      <trkpt lat="42.069268980994821" lon="1.295852037146688">
        <ele>450.02999999999997</ele>
        <time>2025-05-14T10:16:20Z</time>
      </trkpt>
      <trkpt lat="42.069279961287975" lon="1.296001989394426">
        <ele>449.06999999999999</ele>
        <time>2025-05-14T10:16:21Z</time>
      </trkpt>
      <trkpt lat="42.069292031228542" lon="1.296170968562365">
        <ele>447.63</ele>
        <time>2025-05-14T10:16:22Z</time>
      </trkpt>
      <trkpt lat="42.069406025111675" lon="1.297184005379677">
        <ele>441.38</ele>
        <time>2025-05-14T10:16:27Z</time>
      </trkpt>
      <trkpt lat="42.069476014003158" lon="1.297723967581987">
        <ele>439.45999999999998</ele>
        <time>2025-05-14T10:16:30Z</time>
      </trkpt>
      <trkpt lat="42.069536028429866" lon="1.297839973121882">
        <ele>438.98000000000002</ele>
        <time>2025-05-14T10:16:31Z</time>
      </trkpt>
      <trkpt lat="42.069612974300981" lon="1.297925971448422">
        <ele>438.98000000000002</ele>
        <time>2025-05-14T10:16:32Z</time>
      </trkpt>
      <trkpt lat="42.069721017032862" lon="1.298003001138568">
        <ele>438.5</ele>
        <time>2025-05-14T10:16:33Z</time>
      </trkpt>
      <trkpt lat="42.069849008694291" lon="1.298024961724877">
        <ele>438.5</ele>
        <time>2025-05-14T10:16:34Z</time>
      </trkpt>
      <trkpt lat="42.069989992305636" lon="1.298048011958599">
        <ele>438.5</ele>
        <time>2025-05-14T10:16:35Z</time>
      </trkpt>
      <trkpt lat="42.070156037807465" lon="1.298030996695161">
        <ele>438.5</ele>
        <time>2025-05-14T10:16:36Z</time>
      </trkpt>
      <trkpt lat="42.0703199878335" lon="1.297979028895497">
        <ele>438.5</ele>
        <time>2025-05-14T10:16:37Z</time>
      </trkpt>
      <trkpt lat="42.07049198448658" lon="1.297924965620041">
        <ele>438.5</ele>
        <time>2025-05-14T10:16:38Z</time>
      </trkpt>
      <trkpt lat="42.07204096019268" lon="1.297354996204376">
        <ele>441.38</ele>
        <time>2025-05-14T10:16:46Z</time>
      </trkpt>
      <trkpt lat="42.073208978399634" lon="1.296748984605074">
        <ele>441.86000000000001</ele>
        <time>2025-05-14T10:16:52Z</time>
      </trkpt>
      <trkpt lat="42.074842024594545" lon="1.295868968591094">
        <ele>444.75</ele>
        <time>2025-05-14T10:17:00Z</time>
      </trkpt>
      <trkpt lat="42.075410988181829" lon="1.295439982786775">
        <ele>444.75</ele>
        <time>2025-05-14T10:17:03Z</time>
      </trkpt>
      <trkpt lat="42.07739096134901" lon="1.294485032558441">
        <ele>449.55000000000001</ele>
        <time>2025-05-14T10:17:13Z</time>
      </trkpt>
      <trkpt lat="42.077587014064193" lon="1.294411020353437">
        <ele>450.02999999999997</ele>
        <time>2025-05-14T10:17:14Z</time>
      </trkpt>
      <trkpt lat="42.077788012102246" lon="1.294382018968463">
        <ele>450.51999999999998</ele>
        <time>2025-05-14T10:17:15Z</time>
      </trkpt>
      <trkpt lat="42.079039011150599" lon="1.294255033135414">
        <ele>452.44</ele>
        <time>2025-05-14T10:17:22Z</time>
      </trkpt>
      <trkpt lat="42.079168008640409" lon="1.294289985671639">
        <ele>452.92000000000002</ele>
        <time>2025-05-14T10:17:23Z</time>
      </trkpt>
      <trkpt lat="42.079292982816696" lon="1.294336002320051">
        <ele>453.39999999999998</ele>
        <time>2025-05-14T10:17:24Z</time>
      </trkpt>
      <trkpt lat="42.080640038475394" lon="1.294970009475946">
        <ele>456.75999999999999</ele>
        <time>2025-05-14T10:17:34Z</time>
      </trkpt>
      <trkpt lat="42.081678975373507" lon="1.295288018882275">
        <ele>456.27999999999997</ele>
        <time>2025-05-14T10:17:42Z</time>
      </trkpt>
      <trkpt lat="42.081795986741781" lon="1.29527703858912">
        <ele>455.80000000000001</ele>
        <time>2025-05-14T10:17:43Z</time>
      </trkpt>
      <trkpt lat="42.081903023645282" lon="1.295245019719005">
        <ele>455.31999999999999</ele>
        <time>2025-05-14T10:17:44Z</time>
      </trkpt>
      <trkpt lat="42.082007965072989" lon="1.295175030827522">
        <ele>454.36000000000001</ele>
        <time>2025-05-14T10:17:45Z</time>
      </trkpt>
      <trkpt lat="42.082123970612884" lon="1.295098001137376">
        <ele>453.88</ele>
        <time>2025-05-14T10:17:46Z</time>
      </trkpt>
      <trkpt lat="42.082245005294681" lon="1.294998005032539">
        <ele>453.39999999999998</ele>
        <time>2025-05-14T10:17:47Z</time>
      </trkpt>
      <trkpt lat="42.083024019375443" lon="1.294308006763458">
        <ele>451</ele>
        <time>2025-05-14T10:17:53Z</time>
      </trkpt>
      <trkpt lat="42.083154022693634" lon="1.294223014265299">
        <ele>451</ele>
        <time>2025-05-14T10:17:54Z</time>
      </trkpt>
      <trkpt lat="42.083298023790121" lon="1.294164005666971">
        <ele>451.48000000000002</ele>
        <time>2025-05-14T10:17:55Z</time>
      </trkpt>
      <trkpt lat="42.084052981808782" lon="1.293854964897037">
        <ele>454.83999999999997</ele>
        <time>2025-05-14T10:18:01Z</time>
      </trkpt>
      <trkpt lat="42.084144009277225" lon="1.293771984055638">
        <ele>455.31999999999999</ele>
        <time>2025-05-14T10:18:02Z</time>
      </trkpt>
      <trkpt lat="42.08443796262145" lon="1.293505020439625">
        <ele>457.24000000000001</ele>
        <time>2025-05-14T10:18:05Z</time>
      </trkpt>
      <trkpt lat="42.084653964266181" lon="1.29334500990808">
        <ele>458.20999999999998</ele>
        <time>2025-05-14T10:18:07Z</time>
      </trkpt>
      <trkpt lat="42.084883963689208" lon="1.293255994096398">
        <ele>459.64999999999998</ele>
        <time>2025-05-14T10:18:09Z</time>
      </trkpt>
      <trkpt lat="42.085382016375661" lon="1.293076034635305">
        <ele>463.00999999999999</ele>
        <time>2025-05-14T10:18:14Z</time>
      </trkpt>
      <trkpt lat="42.085457034409046" lon="1.293040998280048">
        <ele>463.97000000000003</ele>
        <time>2025-05-14T10:18:15Z</time>
      </trkpt>
      <trkpt lat="42.085517970845103" lon="1.293011996895075">
        <ele>463.97000000000003</ele>
        <time>2025-05-14T10:18:16Z</time>
      </trkpt>
      <trkpt lat="42.085605980828404" lon="1.292910994961858">
        <ele>464.44999999999999</ele>
        <time>2025-05-14T10:18:17Z</time>
      </trkpt>
      <trkpt lat="42.085619978606701" lon="1.292810998857021">
        <ele>464.93000000000001</ele>
        <time>2025-05-14T10:18:18Z</time>
      </trkpt>
      <trkpt lat="42.085634982213378" lon="1.292698010802269">
        <ele>464.93000000000001</ele>
        <time>2025-05-14T10:18:19Z</time>
      </trkpt>
      <trkpt lat="42.085677981376648" lon="1.29259298555553">
        <ele>465.42000000000002</ele>
        <time>2025-05-14T10:18:20Z</time>
      </trkpt>
      <trkpt lat="42.085731038823724" lon="1.292510004714131">
        <ele>464.93000000000001</ele>
        <time>2025-05-14T10:18:21Z</time>
      </trkpt>
      <trkpt lat="42.085782000795007" lon="1.292452001944184">
        <ele>464.93000000000001</ele>
        <time>2025-05-14T10:18:22Z</time>
      </trkpt>
      <trkpt lat="42.085823994129896" lon="1.292414031922817">
        <ele>464.93000000000001</ele>
        <time>2025-05-14T10:18:23Z</time>
      </trkpt>
      <trkpt lat="42.085848972201347" lon="1.292391987517476">
        <ele>464.93000000000001</ele>
        <time>2025-05-14T10:18:24Z</time>
      </trkpt>
      <trkpt lat="42.085856013000011" lon="1.292386036366224">
        <ele>464.93000000000001</ele>
        <time>2025-05-14T10:18:35Z</time>
      </trkpt>
      <trkpt lat="42.085996996611357" lon="1.292290985584259">
        <ele>466.86000000000001</ele>
        <time>2025-05-14T10:18:38Z</time>
      </trkpt>
      <trkpt lat="42.086079977452755" lon="1.292263995856047">
        <ele>467.33999999999997</ele>
        <time>2025-05-14T10:18:39Z</time>
      </trkpt>
      <trkpt lat="42.086165975779295" lon="1.292234994471073">
        <ele>467.81999999999999</ele>
        <time>2025-05-14T10:18:40Z</time>
      </trkpt>
      <trkpt lat="42.086235964670777" lon="1.292210016399622">
        <ele>468.30000000000001</ele>
        <time>2025-05-14T10:18:41Z</time>
      </trkpt>
      <trkpt lat="42.086289022117853" lon="1.292189983651042">
        <ele>468.30000000000001</ele>
        <time>2025-05-14T10:18:42Z</time>
      </trkpt>
      <trkpt lat="42.086334032937884" lon="1.292172968387604">
        <ele>468.77999999999997</ele>
        <time>2025-05-14T10:18:43Z</time>
      </trkpt>
      <trkpt lat="42.086619017645717" lon="1.292066015303135">
        <ele>468.30000000000001</ele>
        <time>2025-05-14T10:18:48Z</time>
      </trkpt>
      <trkpt lat="42.087442958727479" lon="1.291558993980289">
        <ele>471.18000000000001</ele>
        <time>2025-05-14T10:18:56Z</time>
      </trkpt>
      <trkpt lat="42.087882002815604" lon="1.291339974850416">
        <ele>473.58999999999997</ele>
        <time>2025-05-14T10:18:59Z</time>
      </trkpt>
      <trkpt lat="42.08802298642695" lon="1.291300999000669">
        <ele>474.55000000000001</ele>
        <time>2025-05-14T10:19:00Z</time>
      </trkpt>
      <trkpt lat="42.088211998343468" lon="1.291256994009018">
        <ele>475.50999999999999</ele>
        <time>2025-05-14T10:19:01Z</time>
      </trkpt>
      <trkpt lat="42.088387012481689" lon="1.291247019544244">
        <ele>476.47000000000003</ele>
        <time>2025-05-14T10:19:02Z</time>
      </trkpt>
      <trkpt lat="42.088566971942782" lon="1.291238972917199">
        <ele>477.91000000000003</ele>
        <time>2025-05-14T10:19:03Z</time>
      </trkpt>
      <trkpt lat="42.088742991909385" lon="1.291284989565611">
        <ele>479.35000000000002</ele>
        <time>2025-05-14T10:19:04Z</time>
      </trkpt>
      <trkpt lat="42.08892404101789" lon="1.291332012042403">
        <ele>480.80000000000001</ele>
        <time>2025-05-14T10:19:05Z</time>
      </trkpt>
      <trkpt lat="42.089106012135744" lon="1.291397977620363">
        <ele>482.72000000000003</ele>
        <time>2025-05-14T10:19:06Z</time>
      </trkpt>
      <trkpt lat="42.089271973818541" lon="1.291499985381961">
        <ele>484.63999999999999</ele>
        <time>2025-05-14T10:19:07Z</time>
      </trkpt>
      <trkpt lat="42.089432990178466" lon="1.291598975658417">
        <ele>486.56</ele>
        <time>2025-05-14T10:19:08Z</time>
      </trkpt>
      <trkpt lat="42.090681977570057" lon="1.292139021679759">
        <ele>502.43000000000001</ele>
        <time>2025-05-14T10:19:16Z</time>
      </trkpt>
      <trkpt lat="42.092016963288188" lon="1.29207699559629">
        <ele>517.33000000000004</ele>
        <time>2025-05-14T10:19:24Z</time>
      </trkpt>
      <trkpt lat="42.093477007001638" lon="1.292246980592609">
        <ele>529.34000000000003</ele>
        <time>2025-05-14T10:19:33Z</time>
      </trkpt>
      <trkpt lat="42.095243996009231" lon="1.293083997443318">
        <ele>539.91999999999996</ele>
        <time>2025-05-14T10:19:45Z</time>
      </trkpt>
      <trkpt lat="42.09633800201118" lon="1.293518012389541">
        <ele>543.75999999999999</ele>
        <time>2025-05-14T10:19:51Z</time>
      </trkpt>
      <trkpt lat="42.099567968398333" lon="1.293512983247638">
        <ele>550.49000000000001</ele>
        <time>2025-05-14T10:20:10Z</time>
      </trkpt>
      <trkpt lat="42.099942974746227" lon="1.293594958260655">
        <ele>551.92999999999995</ele>
        <time>2025-05-14T10:20:12Z</time>
      </trkpt>
      <trkpt lat="42.100133998319507" lon="1.293641980737448">
        <ele>552.89999999999998</ele>
        <time>2025-05-14T10:20:13Z</time>
      </trkpt>
      <trkpt lat="42.100326027721167" lon="1.293733008205891">
        <ele>553.86000000000001</ele>
        <time>2025-05-14T10:20:14Z</time>
      </trkpt>
      <trkpt lat="42.10050598718226" lon="1.293844990432262">
        <ele>554.82000000000005</ele>
        <time>2025-05-14T10:20:15Z</time>
      </trkpt>
      <trkpt lat="42.100691981613636" lon="1.293972982093692">
        <ele>555.29999999999995</ele>
        <time>2025-05-14T10:20:16Z</time>
      </trkpt>
      <trkpt lat="42.100852997973561" lon="1.294141039252281">
        <ele>556.25999999999999</ele>
        <time>2025-05-14T10:20:17Z</time>
      </trkpt>
      <trkpt lat="42.101015020161867" lon="1.2943110242486">
        <ele>556.74000000000001</ele>
        <time>2025-05-14T10:20:18Z</time>
      </trkpt>
      <trkpt lat="42.101163966581225" lon="1.294504981487989">
        <ele>557.22000000000003</ele>
        <time>2025-05-14T10:20:19Z</time>
      </trkpt>
      <trkpt lat="42.10130101069808" lon="1.294715031981468">
        <ele>557.70000000000005</ele>
        <time>2025-05-14T10:20:20Z</time>
      </trkpt>
      <trkpt lat="42.101420033723116" lon="1.294946037232876">
        <ele>558.65999999999997</ele>
        <time>2025-05-14T10:20:21Z</time>
      </trkpt>
      <trkpt lat="42.10151600651443" lon="1.295187016949058">
        <ele>558.65999999999997</ele>
        <time>2025-05-14T10:20:22Z</time>
      </trkpt>
      <trkpt lat="42.101616002619267" lon="1.295435959473252">
        <ele>559.13999999999999</ele>
        <time>2025-05-14T10:20:23Z</time>
      </trkpt>
      <trkpt lat="42.101704012602568" lon="1.295684985816479">
        <ele>559.13999999999999</ele>
        <time>2025-05-14T10:20:24Z</time>
      </trkpt>
      <trkpt lat="42.102126041427255" lon="1.296878987923265">
        <ele>561.07000000000005</ele>
        <time>2025-05-14T10:20:29Z</time>
      </trkpt>
      <trkpt lat="42.102228971198201" lon="1.297114016488195">
        <ele>561.54999999999995</ele>
        <time>2025-05-14T10:20:30Z</time>
      </trkpt>
      <trkpt lat="42.102356962859631" lon="1.297329012304544">
        <ele>562.02999999999997</ele>
        <time>2025-05-14T10:20:31Z</time>
      </trkpt>
      <trkpt lat="42.103319959715009" lon="1.2982879858464">
        <ele>562.50999999999999</ele>
        <time>2025-05-14T10:20:37Z</time>
      </trkpt>
      <trkpt lat="42.104515973478556" lon="1.298692999407649">
        <ele>559.62</ele>
        <time>2025-05-14T10:20:43Z</time>
      </trkpt>
      <trkpt lat="42.1066739782691" lon="1.29923103377223">
        <ele>550.97000000000003</ele>
        <time>2025-05-14T10:20:54Z</time>
      </trkpt>
      <trkpt lat="42.109388960525393" lon="1.300101997330785">
        <ele>543.75999999999999</ele>
        <time>2025-05-14T10:21:07Z</time>
      </trkpt>
      <trkpt lat="42.111584013327956" lon="1.301003973931074">
        <ele>544.72000000000003</ele>
        <time>2025-05-14T10:21:17Z</time>
      </trkpt>
      <trkpt lat="42.113647973164916" lon="1.302023967728019">
        <ele>545.20000000000005</ele>
        <time>2025-05-14T10:21:27Z</time>
      </trkpt>
      <trkpt lat="42.115744035691023" lon="1.303532961755991">
        <ele>548.57000000000005</ele>
        <time>2025-05-14T10:21:38Z</time>
      </trkpt>
      <trkpt lat="42.11715797893703" lon="1.303804032504559">
        <ele>550.00999999999999</ele>
        <time>2025-05-14T10:21:45Z</time>
      </trkpt>
      <trkpt lat="42.122359033674002" lon="1.303965970873833">
        <ele>554.34000000000003</ele>
        <time>2025-05-14T10:22:12Z</time>
      </trkpt>
      <trkpt lat="42.124427016824484" lon="1.304266965016723">
        <ele>554.34000000000003</ele>
        <time>2025-05-14T10:22:22Z</time>
      </trkpt>
      <trkpt lat="42.126016980037093" lon="1.304827965795994">
        <ele>555.29999999999995</ele>
        <time>2025-05-14T10:22:31Z</time>
      </trkpt>
      <trkpt lat="42.12660999968648" lon="1.305057965219021">
        <ele>556.25999999999999</ele>
        <time>2025-05-14T10:22:35Z</time>
      </trkpt>
      <trkpt lat="42.126773027703166" lon="1.305123008787632">
        <ele>556.74000000000001</ele>
        <time>2025-05-14T10:22:36Z</time>
      </trkpt>
      <trkpt lat="42.127115009352565" lon="1.305259969085455">
        <ele>557.22000000000003</ele>
        <time>2025-05-14T10:22:38Z</time>
      </trkpt>
      <trkpt lat="42.132063014432788" lon="1.309368023648858">
        <ele>557.22000000000003</ele>
        <time>2025-05-14T10:23:09Z</time>
      </trkpt>
      <trkpt lat="42.132977982982993" lon="1.309687960892916">
        <ele>557.22000000000003</ele>
        <time>2025-05-14T10:23:14Z</time>
      </trkpt>
      <trkpt lat="42.133746016770601" lon="1.309771025553346">
        <ele>520.69000000000005</ele>
        <time>2025-05-14T10:23:24Z</time>
      </trkpt>
      <trkpt lat="42.135503031313419" lon="1.309554018080235">
        <ele>533.66999999999996</ele>
        <time>2025-05-14T10:23:35Z</time>
      </trkpt>
      <trkpt lat="42.135682990774512" lon="1.309512024745345">
        <ele>534.63</ele>
        <time>2025-05-14T10:23:36Z</time>
      </trkpt>
      <trkpt lat="42.136009968817234" lon="1.309427032247186">
        <ele>535.59000000000003</ele>
        <time>2025-05-14T10:23:38Z</time>
      </trkpt>
      <trkpt lat="42.141498019918799" lon="1.308000013232231">
        <ele>535.59000000000003</ele>
        <time>2025-05-14T10:24:09Z</time>
      </trkpt>
      <trkpt lat="42.145069967955351" lon="1.307175988331437">
        <ele>550.49000000000001</ele>
        <time>2025-05-14T10:24:30Z</time>
      </trkpt>
      <trkpt lat="42.14869799092412" lon="1.30700902082026">
        <ele>562.50999999999999</ele>
        <time>2025-05-14T10:24:52Z</time>
      </trkpt>
      <trkpt lat="42.150467997416854" lon="1.307279001921415">
        <ele>575.00999999999999</ele>
        <time>2025-05-14T10:25:03Z</time>
      </trkpt>
      <trkpt lat="42.152258958667517" lon="1.308111995458603">
        <ele>582.70000000000005</ele>
        <time>2025-05-14T10:25:13Z</time>
      </trkpt>
      <trkpt lat="42.153852023184299" lon="1.309486962854862">
        <ele>587.5</ele>
        <time>2025-05-14T10:25:22Z</time>
      </trkpt>
      <trkpt lat="42.155926041305065" lon="1.311339028179646">
        <ele>585.10000000000002</ele>
        <time>2025-05-14T10:25:34Z</time>
      </trkpt>
      <trkpt lat="42.158326031640172" lon="1.312758000567555">
        <ele>575.49000000000001</ele>
        <time>2025-05-14T10:25:46Z</time>
      </trkpt>
      <trkpt lat="42.161494977772236" lon="1.314462963491678">
        <ele>552.89999999999998</ele>
        <time>2025-05-14T10:26:02Z</time>
      </trkpt>
      <trkpt lat="42.165045971050858" lon="1.316370014101267">
        <ele>547.13</ele>
        <time>2025-05-14T10:26:20Z</time>
      </trkpt>
      <trkpt lat="42.166731990873814" lon="1.316910982131958">
        <ele>545.20000000000005</ele>
        <time>2025-05-14T10:26:29Z</time>
      </trkpt>
      <trkpt lat="42.168540973216295" lon="1.31741096265614">
        <ele>547.61000000000001</ele>
        <time>2025-05-14T10:26:39Z</time>
      </trkpt>
      <trkpt lat="42.169864978641272" lon="1.31846004165709">
        <ele>549.52999999999997</ele>
        <time>2025-05-14T10:26:48Z</time>
      </trkpt>
      <trkpt lat="42.17151596210897" lon="1.319774994626641">
        <ele>549.04999999999995</ele>
        <time>2025-05-14T10:27:01Z</time>
      </trkpt>
      <trkpt lat="42.172233033925295" lon="1.320337001234293">
        <ele>548.09000000000003</ele>
        <time>2025-05-14T10:27:10Z</time>
      </trkpt>
      <trkpt lat="42.172455992549658" lon="1.320512015372515">
        <ele>545.20000000000005</ele>
        <time>2025-05-14T10:27:18Z</time>
      </trkpt>
      <trkpt lat="42.17250200919807" lon="1.320547973737121">
        <ele>544.72000000000003</ele>
        <time>2025-05-14T10:27:36Z</time>
      </trkpt>
      <trkpt lat="42.172536039724946" lon="1.320558032020927">
        <ele>544.24000000000001</ele>
        <time>2025-05-14T10:27:39Z</time>
      </trkpt>
      <trkpt lat="42.17256504110992" lon="1.32056700065732">
        <ele>544.24000000000001</ele>
        <time>2025-05-14T10:27:40Z</time>
      </trkpt>
      <trkpt lat="42.172593958675861" lon="1.320575969293714">
        <ele>544.24000000000001</ele>
        <time>2025-05-14T10:27:41Z</time>
      </trkpt>
      <trkpt lat="42.172621032223105" lon="1.320584015920758">
        <ele>544.24000000000001</ele>
        <time>2025-05-14T10:27:42Z</time>
      </trkpt>
      <trkpt lat="42.172642992809415" lon="1.320590972900391">
        <ele>544.72000000000003</ele>
        <time>2025-05-14T10:27:43Z</time>
      </trkpt>
      <trkpt lat="42.172664031386375" lon="1.320597007870674">
        <ele>545.20000000000005</ele>
        <time>2025-05-14T10:27:44Z</time>
      </trkpt>
      <trkpt lat="42.172698983922601" lon="1.320606982335448">
        <ele>545.69000000000005</ele>
        <time>2025-05-14T10:27:57Z</time>
      </trkpt>
      <trkpt lat="42.1728890016675" lon="1.320663979277015">
        <ele>547.13</ele>
        <time>2025-05-14T10:28:04Z</time>
      </trkpt>
      <trkpt lat="42.173064015805721" lon="1.320676971226931">
        <ele>546.16999999999996</ele>
        <time>2025-05-14T10:28:16Z</time>
      </trkpt>
      <trkpt lat="42.173153031617403" lon="1.320674037560821">
        <ele>546.16999999999996</ele>
        <time>2025-05-14T10:28:17Z</time>
      </trkpt>
      <trkpt lat="42.173251016065478" lon="1.320668002590537">
        <ele>545.69000000000005</ele>
        <time>2025-05-14T10:28:18Z</time>
      </trkpt>
      <trkpt lat="42.174202026799321" lon="1.320498017594218">
        <ele>542.79999999999995</ele>
        <time>2025-05-14T10:28:25Z</time>
      </trkpt>
      <trkpt lat="42.174894958734512" lon="1.32026500068605">
        <ele>539.44000000000005</ele>
        <time>2025-05-14T10:28:30Z</time>
      </trkpt>
      <trkpt lat="42.175011970102787" lon="1.320183025673032">
        <ele>538.96000000000004</ele>
        <time>2025-05-14T10:28:31Z</time>
      </trkpt>
      <trkpt lat="42.175113977864385" lon="1.320059979334474">
        <ele>538.48000000000002</ele>
        <time>2025-05-14T10:28:32Z</time>
      </trkpt>
      <trkpt lat="42.175207016989589" lon="1.319935005158186">
        <ele>537.99000000000001</ele>
        <time>2025-05-14T10:28:33Z</time>
      </trkpt>
      <trkpt lat="42.17529603280127" lon="1.319783041253686">
        <ele>537.50999999999999</ele>
        <time>2025-05-14T10:28:34Z</time>
      </trkpt>
      <trkpt lat="42.175369961187243" lon="1.319619007408619">
        <ele>537.02999999999997</ele>
        <time>2025-05-14T10:28:35Z</time>
      </trkpt>
      <trkpt lat="42.1754049975425" lon="1.319434018805623">
        <ele>536.07000000000005</ele>
        <time>2025-05-14T10:28:36Z</time>
      </trkpt>
      <trkpt lat="42.175439028069377" lon="1.319231009110808">
        <ele>535.59000000000003</ele>
        <time>2025-05-14T10:28:37Z</time>
      </trkpt>
      <trkpt lat="42.175472974777222" lon="1.319025987759233">
        <ele>535.59000000000003</ele>
        <time>2025-05-14T10:28:38Z</time>
      </trkpt>
      <trkpt lat="42.175508011132479" lon="1.318817026913166">
        <ele>535.11000000000001</ele>
        <time>2025-05-14T10:28:39Z</time>
      </trkpt>
      <trkpt lat="42.175642037764192" lon="1.318188970908523">
        <ele>535.11000000000001</ele>
        <time>2025-05-14T10:28:42Z</time>
      </trkpt>
      <trkpt lat="42.175703980028629" lon="1.31798998452723">
        <ele>535.11000000000001</ele>
        <time>2025-05-14T10:28:43Z</time>
      </trkpt>
      <trkpt lat="42.175800958648324" lon="1.317818993702531">
        <ele>535.11000000000001</ele>
        <time>2025-05-14T10:28:44Z</time>
      </trkpt>
      <trkpt lat="42.175907995551825" lon="1.317659988999367">
        <ele>535.11000000000001</ele>
        <time>2025-05-14T10:28:45Z</time>
      </trkpt>
      <trkpt lat="42.176043028011918" lon="1.317538032308221">
        <ele>535.11000000000001</ele>
        <time>2025-05-14T10:28:46Z</time>
      </trkpt>
      <trkpt lat="42.176187029108405" lon="1.317425966262817">
        <ele>535.11000000000001</ele>
        <time>2025-05-14T10:28:47Z</time>
      </trkpt>
      <trkpt lat="42.176342010498047" lon="1.317323036491871">
        <ele>535.11000000000001</ele>
        <time>2025-05-14T10:28:48Z</time>
      </trkpt>
      <trkpt lat="42.177672972902656" lon="1.316690035164356">
        <ele>533.66999999999996</ele>
        <time>2025-05-14T10:28:57Z</time>
      </trkpt>
      <trkpt lat="42.177815968170762" lon="1.316644018515945">
        <ele>533.19000000000005</ele>
        <time>2025-05-14T10:28:58Z</time>
      </trkpt>
      <trkpt lat="42.177959969267249" lon="1.31663303822279">
        <ele>533.19000000000005</ele>
        <time>2025-05-14T10:28:59Z</time>
      </trkpt>
      <trkpt lat="42.17811000533402" lon="1.316658016294241">
        <ele>533.19000000000005</ele>
        <time>2025-05-14T10:29:00Z</time>
      </trkpt>
      <trkpt lat="42.178274039179087" lon="1.316686011850834">
        <ele>533.19000000000005</ele>
        <time>2025-05-14T10:29:01Z</time>
      </trkpt>
      <trkpt lat="42.178405970335007" lon="1.316747032105923">
        <ele>533.19000000000005</ele>
        <time>2025-05-14T10:29:02Z</time>
      </trkpt>
      <trkpt lat="42.178555000573397" lon="1.316817020997405">
        <ele>533.19000000000005</ele>
        <time>2025-05-14T10:29:03Z</time>
      </trkpt>
      <trkpt lat="42.178696990013123" lon="1.316930009052157">
        <ele>533.66999999999996</ele>
        <time>2025-05-14T10:29:04Z</time>
      </trkpt>
      <trkpt lat="42.178835039958358" lon="1.317059006541967">
        <ele>533.66999999999996</ele>
        <time>2025-05-14T10:29:05Z</time>
      </trkpt>
      <trkpt lat="42.178954984992743" lon="1.317220022901893">
        <ele>534.14999999999998</ele>
        <time>2025-05-14T10:29:06Z</time>
      </trkpt>
      <trkpt lat="42.179044000804424" lon="1.317418003454804">
        <ele>534.14999999999998</ele>
        <time>2025-05-14T10:29:07Z</time>
      </trkpt>
      <trkpt lat="42.179134022444487" lon="1.31762302480638">
        <ele>534.14999999999998</ele>
        <time>2025-05-14T10:29:08Z</time>
      </trkpt>
      <trkpt lat="42.179215997457504" lon="1.317826034501195">
        <ele>534.14999999999998</ele>
        <time>2025-05-14T10:29:09Z</time>
      </trkpt>
      <trkpt lat="42.179824020713568" lon="1.319308960810304">
        <ele>535.11000000000001</ele>
        <time>2025-05-14T10:29:17Z</time>
      </trkpt>
      <trkpt lat="42.180549977347255" lon="1.321422038599849">
        <ele>535.11000000000001</ele>
        <time>2025-05-14T10:29:27Z</time>
      </trkpt>
      <trkpt lat="42.181009976193309" lon="1.323589012026787">
        <ele>533.19000000000005</ele>
        <time>2025-05-14T10:29:36Z</time>
      </trkpt>
      <trkpt lat="42.181307030841708" lon="1.324678994715214">
        <ele>533.66999999999996</ele>
        <time>2025-05-14T10:29:41Z</time>
      </trkpt>
      <trkpt lat="42.181367967277765" lon="1.324892984703183">
        <ele>533.66999999999996</ele>
        <time>2025-05-14T10:29:42Z</time>
      </trkpt>
      <trkpt lat="42.182411011308432" lon="1.326583027839661">
        <ele>534.63</ele>
        <time>2025-05-14T10:29:52Z</time>
      </trkpt>
      <trkpt lat="42.183616999536753" lon="1.327669993042946">
        <ele>535.11000000000001</ele>
        <time>2025-05-14T10:30:01Z</time>
      </trkpt>
      <trkpt lat="42.184731960296631" lon="1.328799035400152">
        <ele>534.63</ele>
        <time>2025-05-14T10:30:10Z</time>
      </trkpt>
      <trkpt lat="42.186173982918262" lon="1.330306017771363">
        <ele>536.54999999999995</ele>
        <time>2025-05-14T10:30:21Z</time>
      </trkpt>
      <trkpt lat="42.187278969213367" lon="1.330996016040444">
        <ele>537.99000000000001</ele>
        <time>2025-05-14T10:30:28Z</time>
      </trkpt>
      <trkpt lat="42.188393007963896" lon="1.331319976598024">
        <ele>539.91999999999996</ele>
        <time>2025-05-14T10:30:35Z</time>
      </trkpt>
      <trkpt lat="42.188529968261719" lon="1.331319976598024">
        <ele>539.91999999999996</ele>
        <time>2025-05-14T10:30:36Z</time>
      </trkpt>
      <trkpt lat="42.188697019591928" lon="1.331275971606374">
        <ele>540.39999999999998</ele>
        <time>2025-05-14T10:30:37Z</time>
      </trkpt>
      <trkpt lat="42.188848983496428" lon="1.331235989928246">
        <ele>540.39999999999998</ele>
        <time>2025-05-14T10:30:38Z</time>
      </trkpt>
      <trkpt lat="42.188986027613282" lon="1.331168012693524">
        <ele>540.88</ele>
        <time>2025-05-14T10:30:39Z</time>
      </trkpt>
      <trkpt lat="42.189116030931473" lon="1.331045972183347">
        <ele>540.88</ele>
        <time>2025-05-14T10:30:40Z</time>
      </trkpt>
      <trkpt lat="42.189244022592902" lon="1.330926027148962">
        <ele>541.36000000000001</ele>
        <time>2025-05-14T10:30:41Z</time>
      </trkpt>
      <trkpt lat="42.189374025911093" lon="1.330813961103559">
        <ele>541.36000000000001</ele>
        <time>2025-05-14T10:30:42Z</time>
      </trkpt>
      <trkpt lat="42.190237026661634" lon="1.329975016415119">
        <ele>545.20000000000005</ele>
        <time>2025-05-14T10:30:49Z</time>
      </trkpt>
      <trkpt lat="42.190382033586502" lon="1.329911984503269">
        <ele>545.69000000000005</ele>
        <time>2025-05-14T10:30:50Z</time>
      </trkpt>
      <trkpt lat="42.190537014976144" lon="1.329881977289915">
        <ele>546.16999999999996</ele>
        <time>2025-05-14T10:30:51Z</time>
      </trkpt>
      <trkpt lat="42.190696019679308" lon="1.329851970076561">
        <ele>547.13</ele>
        <time>2025-05-14T10:30:52Z</time>
      </trkpt>
      <trkpt lat="42.190856030210853" lon="1.329878037795425">
        <ele>547.61000000000001</ele>
        <time>2025-05-14T10:30:53Z</time>
      </trkpt>
      <trkpt lat="42.191011011600494" lon="1.329941991716623">
        <ele>549.04999999999995</ele>
        <time>2025-05-14T10:30:54Z</time>
      </trkpt>
      <trkpt lat="42.191164987161756" lon="1.330013992264867">
        <ele>549.52999999999997</ele>
        <time>2025-05-14T10:30:55Z</time>
      </trkpt>
      <trkpt lat="42.191319968551397" lon="1.330113988369703">
        <ele>550.00999999999999</ele>
        <time>2025-05-14T10:30:56Z</time>
      </trkpt>
      <trkpt lat="42.191480984911323" lon="1.330219013616443">
        <ele>550.49000000000001</ele>
        <time>2025-05-14T10:30:57Z</time>
      </trkpt>
      <trkpt lat="42.191979037597775" lon="1.330529982224107">
        <ele>550.49000000000001</ele>
        <time>2025-05-14T10:31:00Z</time>
      </trkpt>
      <trkpt lat="42.192146005108953" lon="1.330568036064506">
        <ele>550.00999999999999</ele>
        <time>2025-05-14T10:31:01Z</time>
      </trkpt>
      <trkpt lat="42.192314984276891" lon="1.330593014135957">
        <ele>549.52999999999997</ele>
        <time>2025-05-14T10:31:02Z</time>
      </trkpt>
      <trkpt lat="42.19248496927321" lon="1.330617992207408">
        <ele>549.04999999999995</ele>
        <time>2025-05-14T10:31:03Z</time>
      </trkpt>
      <trkpt lat="42.19265696592629" lon="1.330611035227776">
        <ele>548.57000000000005</ele>
        <time>2025-05-14T10:31:04Z</time>
      </trkpt>
      <trkpt lat="42.192836003378034" lon="1.330554038286209">
        <ele>548.57000000000005</ele>
        <time>2025-05-14T10:31:05Z</time>
      </trkpt>
      <trkpt lat="42.193012023344636" lon="1.330497963353992">
        <ele>548.09000000000003</ele>
        <time>2025-05-14T10:31:06Z</time>
      </trkpt>
      <trkpt lat="42.193179996684194" lon="1.330413976684213">
        <ele>548.09000000000003</ele>
        <time>2025-05-14T10:31:07Z</time>
      </trkpt>
      <trkpt lat="42.1946129668504" lon="1.32946103811264">
        <ele>545.20000000000005</ele>
        <time>2025-05-14T10:31:15Z</time>
      </trkpt>
      <trkpt lat="42.196049960330129" lon="1.328449007123709">
        <ele>540.39999999999998</ele>
        <time>2025-05-14T10:31:22Z</time>
      </trkpt>
      <trkpt lat="42.197406990453601" lon="1.327745011076331">
        <ele>537.50999999999999</ele>
        <time>2025-05-14T10:31:28Z</time>
      </trkpt>
      <trkpt lat="42.198681961745024" lon="1.327380985021591">
        <ele>537.99000000000001</ele>
        <time>2025-05-14T10:31:34Z</time>
      </trkpt>
      <trkpt lat="42.200700994580984" lon="1.327318958938122">
        <ele>541.84000000000003</ele>
        <time>2025-05-14T10:31:44Z</time>
      </trkpt>
      <trkpt lat="42.202901998534799" lon="1.327509982511401">
        <ele>547.61000000000001</ele>
        <time>2025-05-14T10:31:55Z</time>
      </trkpt>
      <trkpt lat="42.204889012500644" lon="1.327782981097698">
        <ele>552.40999999999997</ele>
        <time>2025-05-14T10:32:06Z</time>
      </trkpt>
      <trkpt lat="42.205856032669544" lon="1.327826986089349">
        <ele>554.34000000000003</ele>
        <time>2025-05-14T10:32:12Z</time>
      </trkpt>
      <trkpt lat="42.205993998795748" lon="1.327773006632924">
        <ele>554.82000000000005</ele>
        <time>2025-05-14T10:32:13Z</time>
      </trkpt>
      <trkpt lat="42.206125007942319" lon="1.327709974721074">
        <ele>554.82000000000005</ele>
        <time>2025-05-14T10:32:14Z</time>
      </trkpt>
      <trkpt lat="42.206249982118607" lon="1.327650966122747">
        <ele>554.82000000000005</ele>
        <time>2025-05-14T10:32:15Z</time>
      </trkpt>
      <trkpt lat="42.206367999315262" lon="1.327582988888025">
        <ele>555.29999999999995</ele>
        <time>2025-05-14T10:32:16Z</time>
      </trkpt>
      <trkpt lat="42.206476964056492" lon="1.327486010268331">
        <ele>555.77999999999997</ele>
        <time>2025-05-14T10:32:17Z</time>
      </trkpt>
      <trkpt lat="42.206899998709559" lon="1.327109998092055">
        <ele>556.74000000000001</ele>
        <time>2025-05-14T10:32:21Z</time>
      </trkpt>
      <trkpt lat="42.207019021734595" lon="1.327046966180205">
        <ele>556.74000000000001</ele>
        <time>2025-05-14T10:32:22Z</time>
      </trkpt>
      <trkpt lat="42.207137038931251" lon="1.3269919808954">
        <ele>557.22000000000003</ele>
        <time>2025-05-14T10:32:23Z</time>
      </trkpt>
      <trkpt lat="42.207258995622396" lon="1.326959962025285">
        <ele>558.17999999999995</ele>
        <time>2025-05-14T10:32:24Z</time>
      </trkpt>
      <trkpt lat="42.207381036132574" lon="1.326953005045652">
        <ele>558.65999999999997</ele>
        <time>2025-05-14T10:32:25Z</time>
      </trkpt>
      <trkpt lat="42.207497041672468" lon="1.326944958418608">
        <ele>559.62</ele>
        <time>2025-05-14T10:32:26Z</time>
      </trkpt>
      <trkpt lat="42.207607012242079" lon="1.326939007267356">
        <ele>560.11000000000001</ele>
        <time>2025-05-14T10:32:27Z</time>
      </trkpt>
      <trkpt lat="42.207922004163265" lon="1.326924003660679">
        <ele>562.50999999999999</ele>
        <time>2025-05-14T10:32:30Z</time>
      </trkpt>
      <trkpt lat="42.208014959469438" lon="1.326907994225621">
        <ele>562.99000000000001</ele>
        <time>2025-05-14T10:32:31Z</time>
      </trkpt>
      <trkpt lat="42.208100035786629" lon="1.326860971748829">
        <ele>563.47000000000003</ele>
        <time>2025-05-14T10:32:32Z</time>
      </trkpt>
      <trkpt lat="42.208181004971266" lon="1.326815960928798">
        <ele>563.95000000000005</ele>
        <time>2025-05-14T10:32:33Z</time>
      </trkpt>
      <trkpt lat="42.208261974155903" lon="1.326771033927798">
        <ele>563.95000000000005</ele>
        <time>2025-05-14T10:32:34Z</time>
      </trkpt>
      <trkpt lat="42.209260007366538" lon="1.326180025935173">
        <ele>565.87</ele>
        <time>2025-05-14T10:32:45Z</time>
      </trkpt>
      <trkpt lat="42.209456982091069" lon="1.32613199763">
        <ele>565.87</ele>
        <time>2025-05-14T10:32:47Z</time>
      </trkpt>
      <trkpt lat="42.209553038701415" lon="1.32611196488142">
        <ele>565.87</ele>
        <time>2025-05-14T10:32:48Z</time>
      </trkpt>
      <trkpt lat="42.209654962643981" lon="1.326126968488097">
        <ele>566.35000000000002</ele>
        <time>2025-05-14T10:32:49Z</time>
      </trkpt>
      <trkpt lat="42.209750013425946" lon="1.326155969873071">
        <ele>566.35000000000002</ele>
        <time>2025-05-14T10:32:50Z</time>
      </trkpt>
      <trkpt lat="42.209841040894389" lon="1.326193017885089">
        <ele>566.83000000000004</ele>
        <time>2025-05-14T10:32:51Z</time>
      </trkpt>
      <trkpt lat="42.209927961230278" lon="1.326248003169894">
        <ele>567.32000000000005</ele>
        <time>2025-05-14T10:32:52Z</time>
      </trkpt>
      <trkpt lat="42.210012031719089" lon="1.326301982626319">
        <ele>567.32000000000005</ele>
        <time>2025-05-14T10:32:53Z</time>
      </trkpt>
      <trkpt lat="42.210087971761823" lon="1.326359985396266">
        <ele>567.79999999999995</ele>
        <time>2025-05-14T10:32:54Z</time>
      </trkpt>
      <trkpt lat="42.210149997845292" lon="1.326443972066045">
        <ele>567.79999999999995</ele>
        <time>2025-05-14T10:32:55Z</time>
      </trkpt>
      <trkpt lat="42.210212023928761" lon="1.326527958735824">
        <ele>568.27999999999997</ele>
        <time>2025-05-14T10:32:56Z</time>
      </trkpt>
      <trkpt lat="42.210958013311028" lon="1.327467989176512">
        <ele>570.20000000000005</ele>
        <time>2025-05-14T10:33:08Z</time>
      </trkpt>
      <trkpt lat="42.211522031575441" lon="1.328137032687664">
        <ele>572.12</ele>
        <time>2025-05-14T10:33:18Z</time>
      </trkpt>
      <trkpt lat="42.211543992161751" lon="1.32821599021554">
        <ele>571.63999999999999</ele>
        <time>2025-05-14T10:33:19Z</time>
      </trkpt>
      <trkpt lat="42.211554972454906" lon="1.328251026570797">
        <ele>571.63999999999999</ele>
        <time>2025-05-14T10:33:20Z</time>
      </trkpt>
      <trkpt lat="42.211544997990131" lon="1.328354962170124">
        <ele>571.63999999999999</ele>
        <time>2025-05-14T10:33:21Z</time>
      </trkpt>
      <trkpt lat="42.211537035182118" lon="1.328440960496664">
        <ele>571.63999999999999</ele>
        <time>2025-05-14T10:33:22Z</time>
      </trkpt>
      <trkpt lat="42.211523037403822" lon="1.328530982136726">
        <ele>571.63999999999999</ele>
        <time>2025-05-14T10:33:23Z</time>
      </trkpt>
      <trkpt lat="42.211425974965096" lon="1.329044038429856">
        <ele>570.67999999999995</ele>
        <time>2025-05-14T10:33:28Z</time>
      </trkpt>
      <trkpt lat="42.211425974965096" lon="1.329254005104303">
        <ele>571.15999999999997</ele>
        <time>2025-05-14T10:33:30Z</time>
      </trkpt>
      <trkpt lat="42.211466962471604" lon="1.329363975673914">
        <ele>571.63999999999999</ele>
        <time>2025-05-14T10:33:31Z</time>
      </trkpt>
      <trkpt lat="42.211513984948397" lon="1.329457014799118">
        <ele>571.63999999999999</ele>
        <time>2025-05-14T10:33:32Z</time>
      </trkpt>
      <trkpt lat="42.211570981889963" lon="1.329538989812136">
        <ele>571.15999999999997</ele>
        <time>2025-05-14T10:33:33Z</time>
      </trkpt>
      <trkpt lat="42.211629990488291" lon="1.329605039209127">
        <ele>571.15999999999997</ele>
        <time>2025-05-14T10:33:34Z</time>
      </trkpt>
      <trkpt lat="42.211688999086618" lon="1.329672010615468">
        <ele>571.15999999999997</ele>
        <time>2025-05-14T10:33:35Z</time>
      </trkpt>
      <trkpt lat="42.211743984371424" lon="1.329734958708286">
        <ele>570.67999999999995</ele>
        <time>2025-05-14T10:33:36Z</time>
      </trkpt>
      <trkpt lat="42.211831994354725" lon="1.329835038632155">
        <ele>570.20000000000005</ele>
        <time>2025-05-14T10:33:38Z</time>
      </trkpt>
      <trkpt lat="42.211868036538363" lon="1.329875020310283">
        <ele>569.72000000000003</ele>
        <time>2025-05-14T10:33:39Z</time>
      </trkpt>
      <trkpt lat="42.211989993229508" lon="1.330014998093247">
        <ele>568.75999999999999</ele>
        <time>2025-05-14T10:33:42Z</time>
      </trkpt>
      <trkpt lat="42.212009020149708" lon="1.330056991428137">
        <ele>568.27999999999997</ele>
        <time>2025-05-14T10:33:43Z</time>
      </trkpt>
      <trkpt lat="42.21201597712934" lon="1.33010602556169">
        <ele>567.79999999999995</ele>
        <time>2025-05-14T10:33:44Z</time>
      </trkpt>
      <trkpt lat="42.212021006271243" lon="1.330146007239819">
        <ele>566.83000000000004</ele>
        <time>2025-05-14T10:33:45Z</time>
      </trkpt>
      <trkpt lat="42.212025029584765" lon="1.330174002796412">
        <ele>566.83000000000004</ele>
        <time>2025-05-14T10:33:46Z</time>
      </trkpt>
      <trkpt lat="42.21203600987792" lon="1.330195041373372">
        <ele>565.38999999999999</ele>
        <time>2025-05-14T10:33:59Z</time>
      </trkpt>
      <trkpt lat="42.21203600987792" lon="1.330195041373372">
        <ele>565.38999999999999</ele>
        <time>2025-05-14T10:34:43Z</time>
      </trkpt>
      <trkpt lat="42.212217980995774" lon="1.330340970307589">
        <ele>555.29999999999995</ele>
        <time>2025-05-14T10:38:05Z</time>
      </trkpt>
      <trkpt lat="42.212076997384429" lon="1.330198980867863">
        <ele>536.54999999999995</ele>
        <time>2025-05-14T10:38:49Z</time>
      </trkpt>
      <trkpt lat="42.212068028748035" lon="1.330184983089566">
        <ele>540.39999999999998</ele>
        <time>2025-05-14T10:39:24Z</time>
      </trkpt>
      <trkpt lat="42.212073979899287" lon="1.330246003344655">
        <ele>540.88</ele>
        <time>2025-05-14T10:39:26Z</time>
      </trkpt>
      <trkpt lat="42.212112033739686" lon="1.330270981416106">
        <ele>542.79999999999995</ele>
        <time>2025-05-14T10:39:27Z</time>
      </trkpt>
      <trkpt lat="42.21214103512466" lon="1.330275004729629">
        <ele>544.24000000000001</ele>
        <time>2025-05-14T10:39:28Z</time>
      </trkpt>
      <trkpt lat="42.21216500736773" lon="1.330279028043151">
        <ele>546.16999999999996</ele>
        <time>2025-05-14T10:39:29Z</time>
      </trkpt>
      <trkpt lat="42.21223097294569" lon="1.330287996679544">
        <ele>550.97000000000003</ele>
        <time>2025-05-14T10:39:33Z</time>
      </trkpt>
      <trkpt lat="42.212281012907624" lon="1.330338036641479">
        <ele>551.45000000000005</ele>
        <time>2025-05-14T10:39:34Z</time>
      </trkpt>
      <trkpt lat="42.212343038991094" lon="1.330413976684213">
        <ele>551.45000000000005</ele>
        <time>2025-05-14T10:39:35Z</time>
      </trkpt>
      <trkpt lat="42.212403975427151" lon="1.330487988889217">
        <ele>551.45000000000005</ele>
        <time>2025-05-14T10:39:36Z</time>
      </trkpt>
      <trkpt lat="42.212403975427151" lon="1.330487988889217">
        <ele>551.45000000000005</ele>
        <time>2025-05-14T10:39:37Z</time>
      </trkpt>
      <trkpt lat="42.212510006502271" lon="1.330615980550647">
        <ele>551.45000000000005</ele>
        <time>2025-05-14T10:39:38Z</time>
      </trkpt>
      <trkpt lat="42.21272399649024" lon="1.330925021320581">
        <ele>550.00999999999999</ele>
        <time>2025-05-14T10:39:45Z</time>
      </trkpt>
      <trkpt lat="42.212801026180387" lon="1.331039015203714">
        <ele>550.00999999999999</ele>
        <time>2025-05-14T10:39:47Z</time>
      </trkpt>
      <trkpt lat="42.212834972888231" lon="1.331088971346617">
        <ele>550.00999999999999</ele>
        <time>2025-05-14T10:39:48Z</time>
      </trkpt>
      <trkpt lat="42.212872020900249" lon="1.331144040450454">
        <ele>549.52999999999997</ele>
        <time>2025-05-14T10:39:49Z</time>
      </trkpt>
      <trkpt lat="42.212977968156338" lon="1.331302039325237">
        <ele>548.57000000000005</ele>
        <time>2025-05-14T10:39:51Z</time>
      </trkpt>
      <trkpt lat="42.213041000068188" lon="1.331393988803029">
        <ele>548.09000000000003</ele>
        <time>2025-05-14T10:39:52Z</time>
      </trkpt>
      <trkpt lat="42.213773997500539" lon="1.332452036440373">
        <ele>543.75999999999999</ele>
        <time>2025-05-14T10:40:01Z</time>
      </trkpt>
      <trkpt lat="42.213910035789013" lon="1.332567036151886">
        <ele>543.75999999999999</ele>
        <time>2025-05-14T10:40:02Z</time>
      </trkpt>
      <trkpt lat="42.214052025228739" lon="1.332657979801297">
        <ele>543.75999999999999</ele>
        <time>2025-05-14T10:40:03Z</time>
      </trkpt>
      <trkpt lat="42.214200971648097" lon="1.332754036411643">
        <ele>543.75999999999999</ele>
        <time>2025-05-14T10:40:04Z</time>
      </trkpt>
      <trkpt lat="42.21435503102839" lon="1.332852020859718">
        <ele>543.75999999999999</ele>
        <time>2025-05-14T10:40:05Z</time>
      </trkpt>
      <trkpt lat="42.214523004367948" lon="1.332922009751201">
        <ele>543.75999999999999</ele>
        <time>2025-05-14T10:40:06Z</time>
      </trkpt>
      <trkpt lat="42.21470003016293" lon="1.332976995036006">
        <ele>544.24000000000001</ele>
        <time>2025-05-14T10:40:07Z</time>
      </trkpt>
      <trkpt lat="42.214888036251068" lon="1.332994010299444">
        <ele>544.24000000000001</ele>
        <time>2025-05-14T10:40:08Z</time>
      </trkpt>
      <trkpt lat="42.215079981833696" lon="1.332985041663051">
        <ele>544.24000000000001</ele>
        <time>2025-05-14T10:40:09Z</time>
      </trkpt>
      <trkpt lat="42.215277962386608" lon="1.33294397033751">
        <ele>544.24000000000001</ele>
        <time>2025-05-14T10:40:10Z</time>
      </trkpt>
      <trkpt lat="42.215476026758552" lon="1.332884961739183">
        <ele>544.72000000000003</ele>
        <time>2025-05-14T10:40:11Z</time>
      </trkpt>
      <trkpt lat="42.217563036829233" lon="1.332413982599974">
        <ele>540.88</ele>
        <time>2025-05-14T10:40:21Z</time>
      </trkpt>
      <trkpt lat="42.219445025548339" lon="1.33268597535789">
        <ele>540.88</ele>
        <time>2025-05-14T10:40:30Z</time>
      </trkpt>
      <trkpt lat="42.221290972083807" lon="1.333358958363533">
        <ele>540.88</ele>
        <time>2025-05-14T10:40:39Z</time>
      </trkpt>
      <trkpt lat="42.221889020875096" lon="1.33354302495718">
        <ele>540.39999999999998</ele>
        <time>2025-05-14T10:40:42Z</time>
      </trkpt>
      <trkpt lat="42.222076021134853" lon="1.333578983321786">
        <ele>540.39999999999998</ele>
        <time>2025-05-14T10:40:43Z</time>
      </trkpt>
      <trkpt lat="42.222897028550506" lon="1.333642015233636">
        <ele>539.44000000000005</ele>
        <time>2025-05-14T10:40:48Z</time>
      </trkpt>
      <trkpt lat="42.223045974969864" lon="1.333698006346822">
        <ele>539.44000000000005</ele>
        <time>2025-05-14T10:40:49Z</time>
      </trkpt>
      <trkpt lat="42.223190981894732" lon="1.333751985803247">
        <ele>538.96000000000004</ele>
        <time>2025-05-14T10:40:50Z</time>
      </trkpt>
      <trkpt lat="42.224363023415208" lon="1.334635019302368">
        <ele>539.44000000000005</ele>
        <time>2025-05-14T10:40:59Z</time>
      </trkpt>
      <trkpt lat="42.225387962535024" lon="1.335946032777429">
        <ele>543.75999999999999</ele>
        <time>2025-05-14T10:41:10Z</time>
      </trkpt>
      <trkpt lat="42.225790964439511" lon="1.336331013590097">
        <ele>547.61000000000001</ele>
        <time>2025-05-14T10:41:17Z</time>
      </trkpt>
      <trkpt lat="42.225849973037839" lon="1.336392033845186">
        <ele>549.52999999999997</ele>
        <time>2025-05-14T10:41:20Z</time>
      </trkpt>
      <trkpt lat="42.225892972201109" lon="1.336436038836837">
        <ele>550.00999999999999</ele>
        <time>2025-05-14T10:41:21Z</time>
      </trkpt>
      <trkpt lat="42.225932031869888" lon="1.336477026343346">
        <ele>550.49000000000001</ele>
        <time>2025-05-14T10:41:22Z</time>
      </trkpt>
      <trkpt lat="42.225988022983074" lon="1.336535029113293">
        <ele>550.97000000000003</ele>
        <time>2025-05-14T10:41:23Z</time>
      </trkpt>
      <trkpt lat="42.226057006046176" lon="1.336606023833156">
        <ele>550.97000000000003</ele>
        <time>2025-05-14T10:41:24Z</time>
      </trkpt>
      <trkpt lat="42.226163037121296" lon="1.336715994402766">
        <ele>550.97000000000003</ele>
        <time>2025-05-14T10:41:25Z</time>
      </trkpt>
      <trkpt lat="42.226494960486889" lon="1.337099969387054">
        <ele>552.40999999999997</ele>
        <time>2025-05-14T10:41:30Z</time>
      </trkpt>
      <trkpt lat="42.227089991793036" lon="1.3382079731673">
        <ele>553.86000000000001</ele>
        <time>2025-05-14T10:41:41Z</time>
      </trkpt>
      <trkpt lat="42.227193005383015" lon="1.338430009782314">
        <ele>553.86000000000001</ele>
        <time>2025-05-14T10:41:43Z</time>
      </trkpt>
      <trkpt lat="42.227238016203046" lon="1.338525982573628">
        <ele>553.86000000000001</ele>
        <time>2025-05-14T10:41:44Z</time>
      </trkpt>
      <trkpt lat="42.227273974567652" lon="1.338604018092156">
        <ele>553.38</ele>
        <time>2025-05-14T10:41:45Z</time>
      </trkpt>
      <trkpt lat="42.227300964295864" lon="1.338663026690483">
        <ele>553.38</ele>
        <time>2025-05-14T10:41:46Z</time>
      </trkpt>
      <trkpt lat="42.227322002872825" lon="1.338707031682134">
        <ele>553.38</ele>
        <time>2025-05-14T10:41:47Z</time>
      </trkpt>
      <trkpt lat="42.227337006479502" lon="1.338739972561598">
        <ele>552.89999999999998</ele>
        <time>2025-05-14T10:41:48Z</time>
      </trkpt>
      <trkpt lat="42.227346980944276" lon="1.338762016966939">
        <ele>552.89999999999998</ele>
        <time>2025-05-14T10:41:49Z</time>
      </trkpt>
      <trkpt lat="42.227346980944276" lon="1.338762016966939">
        <ele>552.40999999999997</ele>
        <time>2025-05-14T10:42:00Z</time>
      </trkpt>
      <trkpt lat="42.227400960400701" lon="1.338861007243395">
        <ele>551.92999999999995</ele>
        <time>2025-05-14T10:42:05Z</time>
      </trkpt>
      <trkpt lat="42.227389980107546" lon="1.3389159925282">
        <ele>552.40999999999997</ele>
        <time>2025-05-14T10:42:06Z</time>
      </trkpt>
      <trkpt lat="42.227491987869143" lon="1.340152993798256">
        <ele>553.86000000000001</ele>
        <time>2025-05-14T10:42:14Z</time>
      </trkpt>
      <trkpt lat="42.227832041680813" lon="1.341167958453298">
        <ele>553.38</ele>
        <time>2025-05-14T10:42:20Z</time>
      </trkpt>
      <trkpt lat="42.227927008643746" lon="1.341340960934758">
        <ele>553.38</ele>
        <time>2025-05-14T10:42:21Z</time>
      </trkpt>
      <trkpt lat="42.228017030283809" lon="1.341456966474652">
        <ele>553.38</ele>
        <time>2025-05-14T10:42:22Z</time>
      </trkpt>
      <trkpt lat="42.22905102185905" lon="1.342789018526673">
        <ele>552.40999999999997</ele>
        <time>2025-05-14T10:42:32Z</time>
      </trkpt>
      <trkpt lat="42.230107979848981" lon="1.343627041205764">
        <ele>551.92999999999995</ele>
        <time>2025-05-14T10:42:41Z</time>
      </trkpt>
      <trkpt lat="42.230229014530778" lon="1.343727959319949">
        <ele>551.92999999999995</ele>
        <time>2025-05-14T10:42:42Z</time>
      </trkpt>
      <trkpt lat="42.230484997853637" lon="1.343912025913596">
        <ele>551.92999999999995</ele>
        <time>2025-05-14T10:42:44Z</time>
      </trkpt>
      <trkpt lat="42.230618018656969" lon="1.343994000926614">
        <ele>551.92999999999995</ele>
        <time>2025-05-14T10:42:45Z</time>
      </trkpt>
      <trkpt lat="42.230752967298031" lon="1.344077987596393">
        <ele>551.92999999999995</ele>
        <time>2025-05-14T10:42:46Z</time>
      </trkpt>
      <trkpt lat="42.230895962566137" lon="1.344165997579694">
        <ele>551.92999999999995</ele>
        <time>2025-05-14T10:42:47Z</time>
      </trkpt>
      <trkpt lat="42.231043986976147" lon="1.344257025048137">
        <ele>551.92999999999995</ele>
        <time>2025-05-14T10:42:48Z</time>
      </trkpt>
      <trkpt lat="42.231192011386156" lon="1.344347968697548">
        <ele>551.45000000000005</ele>
        <time>2025-05-14T10:42:49Z</time>
      </trkpt>
      <trkpt lat="42.231335006654263" lon="1.344435978680849">
        <ele>551.45000000000005</ele>
        <time>2025-05-14T10:42:50Z</time>
      </trkpt>
      <trkpt lat="42.231452018022537" lon="1.34456598199904">
        <ele>551.45000000000005</ele>
        <time>2025-05-14T10:42:51Z</time>
      </trkpt>
      <trkpt lat="42.23156500607729" lon="1.344705959782004">
        <ele>550.97000000000003</ele>
        <time>2025-05-14T10:42:52Z</time>
      </trkpt>
      <trkpt lat="42.231920985504985" lon="1.345096975564957">
        <ele>550.97000000000003</ele>
        <time>2025-05-14T10:42:55Z</time>
      </trkpt>
      <trkpt lat="42.232049982994795" lon="1.345198983326554">
        <ele>550.97000000000003</ele>
        <time>2025-05-14T10:42:56Z</time>
      </trkpt>
      <trkpt lat="42.23272698931396" lon="1.345693012699485">
        <ele>550.49000000000001</ele>
        <time>2025-05-14T10:43:02Z</time>
      </trkpt>
      <trkpt lat="42.232972998172045" lon="1.345787979662418">
        <ele>550.00999999999999</ele>
        <time>2025-05-14T10:43:04Z</time>
      </trkpt>
      <trkpt lat="42.233095960691571" lon="1.345795020461083">
        <ele>550.00999999999999</ele>
        <time>2025-05-14T10:43:05Z</time>
      </trkpt>
      <trkpt lat="42.233205009251833" lon="1.345782028511167">
        <ele>550.00999999999999</ele>
        <time>2025-05-14T10:43:06Z</time>
      </trkpt>
      <trkpt lat="42.23334901034832" lon="1.345714973285794">
        <ele>550.00999999999999</ele>
        <time>2025-05-14T10:43:07Z</time>
      </trkpt>
      <trkpt lat="42.233471972867846" lon="1.345657976344228">
        <ele>550.00999999999999</ele>
        <time>2025-05-14T10:43:08Z</time>
      </trkpt>
      <trkpt lat="42.233582027256489" lon="1.345572983846068">
        <ele>550.00999999999999</ele>
        <time>2025-05-14T10:43:09Z</time>
      </trkpt>
      <trkpt lat="42.233682023361325" lon="1.345465024933219">
        <ele>550.49000000000001</ele>
        <time>2025-05-14T10:43:10Z</time>
      </trkpt>
      <trkpt lat="42.234009001404047" lon="1.345183979719877">
        <ele>550.97000000000003</ele>
        <time>2025-05-14T10:43:13Z</time>
      </trkpt>
      <trkpt lat="42.234134981408715" lon="1.345138968899846">
        <ele>550.97000000000003</ele>
        <time>2025-05-14T10:43:14Z</time>
      </trkpt>
      <trkpt lat="42.234279988333583" lon="1.345106028020382">
        <ele>550.97000000000003</ele>
        <time>2025-05-14T10:43:15Z</time>
      </trkpt>
      <trkpt lat="42.234433041885495" lon="1.345070991665125">
        <ele>550.97000000000003</ele>
        <time>2025-05-14T10:43:16Z</time>
      </trkpt>
      <trkpt lat="42.234585005789995" lon="1.345055988058448">
        <ele>550.97000000000003</ele>
        <time>2025-05-14T10:43:17Z</time>
      </trkpt>
      <trkpt lat="42.234757002443075" lon="1.345064034685493">
        <ele>550.97000000000003</ele>
        <time>2025-05-14T10:43:18Z</time>
      </trkpt>
      <trkpt lat="42.236318970099092" lon="1.344873011112213">
        <ele>553.38</ele>
        <time>2025-05-14T10:43:27Z</time>
      </trkpt>
      <trkpt lat="42.236627005040646" lon="1.344792963936925">
        <ele>554.82000000000005</ele>
        <time>2025-05-14T10:43:29Z</time>
      </trkpt>
      <trkpt lat="42.236782992258668" lon="1.34475901722908">
        <ele>555.29999999999995</ele>
        <time>2025-05-14T10:43:30Z</time>
      </trkpt>
      <trkpt lat="42.237457986921072" lon="1.344757005572319">
        <ele>557.22000000000003</ele>
        <time>2025-05-14T10:43:34Z</time>
      </trkpt>
      <trkpt lat="42.237625038251281" lon="1.344775026664138">
        <ele>558.17999999999995</ele>
        <time>2025-05-14T10:43:35Z</time>
      </trkpt>
      <trkpt lat="42.237785970792174" lon="1.344791958108544">
        <ele>558.65999999999997</ele>
        <time>2025-05-14T10:43:36Z</time>
      </trkpt>
      <trkpt lat="42.237923014909029" lon="1.34478198364377">
        <ele>559.13999999999999</ele>
        <time>2025-05-14T10:43:37Z</time>
      </trkpt>
      <trkpt lat="42.238062992691994" lon="1.344764968380332">
        <ele>559.13999999999999</ele>
        <time>2025-05-14T10:43:38Z</time>
      </trkpt>
      <trkpt lat="42.238192996010184" lon="1.344748036935926">
        <ele>559.13999999999999</ele>
        <time>2025-05-14T10:43:39Z</time>
      </trkpt>
      <trkpt lat="42.238552998751402" lon="1.344711994752288">
        <ele>560.59000000000003</ele>
        <time>2025-05-14T10:43:42Z</time>
      </trkpt>
      <trkpt lat="42.238670010119677" lon="1.344745019450784">
        <ele>561.07000000000005</ele>
        <time>2025-05-14T10:43:43Z</time>
      </trkpt>
      <trkpt lat="42.238781992346048" lon="1.344795981422067">
        <ele>561.54999999999995</ele>
        <time>2025-05-14T10:43:44Z</time>
      </trkpt>
      <trkpt lat="42.238899003714323" lon="1.344849038869143">
        <ele>561.54999999999995</ele>
        <time>2025-05-14T10:43:45Z</time>
      </trkpt>
      <trkpt lat="42.23902003839612" lon="1.344903018325567">
        <ele>562.02999999999997</ele>
        <time>2025-05-14T10:43:46Z</time>
      </trkpt>
      <trkpt lat="42.24031001329422" lon="1.345358993858099">
        <ele>563.95000000000005</ele>
        <time>2025-05-14T10:43:55Z</time>
      </trkpt>
      <trkpt lat="42.241991003975272" lon="1.345501989126205">
        <ele>564.90999999999997</ele>
        <time>2025-05-14T10:44:04Z</time>
      </trkpt>
      <trkpt lat="42.243600999936461" lon="1.345109967514873">
        <ele>563.47000000000003</ele>
        <time>2025-05-14T10:44:12Z</time>
      </trkpt>
      <trkpt lat="42.244853004813194" lon="1.34428502060473">
        <ele>563.47000000000003</ele>
        <time>2025-05-14T10:44:19Z</time>
      </trkpt>
      <trkpt lat="42.245034975931048" lon="1.344208996742964">
        <ele>562.99000000000001</ele>
        <time>2025-05-14T10:44:20Z</time>
      </trkpt>
      <trkpt lat="42.245224993675947" lon="1.344160968437791">
        <ele>562.99000000000001</ele>
        <time>2025-05-14T10:44:21Z</time>
      </trkpt>
      <trkpt lat="42.245415011420846" lon="1.34415996260941">
        <ele>562.99000000000001</ele>
        <time>2025-05-14T10:44:22Z</time>
      </trkpt>
      <trkpt lat="42.245605029165745" lon="1.344170020893216">
        <ele>562.99000000000001</ele>
        <time>2025-05-14T10:44:23Z</time>
      </trkpt>
      <trkpt lat="42.24578901194036" lon="1.344231963157654">
        <ele>562.99000000000001</ele>
        <time>2025-05-14T10:44:24Z</time>
      </trkpt>
      <trkpt lat="42.245976012200117" lon="1.344312010332942">
        <ele>562.99000000000001</ele>
        <time>2025-05-14T10:44:25Z</time>
      </trkpt>
      <trkpt lat="42.246156977489591" lon="1.344405971467495">
        <ele>562.99000000000001</ele>
        <time>2025-05-14T10:44:26Z</time>
      </trkpt>
      <trkpt lat="42.246328974142671" lon="1.344531029462814">
        <ele>562.50999999999999</ele>
        <time>2025-05-14T10:44:27Z</time>
      </trkpt>
      <trkpt lat="42.246484039351344" lon="1.34467301890254">
        <ele>562.99000000000001</ele>
        <time>2025-05-14T10:44:28Z</time>
      </trkpt>
      <trkpt lat="42.246624017134309" lon="1.344836968928576">
        <ele>562.99000000000001</ele>
        <time>2025-05-14T10:44:29Z</time>
      </trkpt>
      <trkpt lat="42.246759971603751" lon="1.344997985288501">
        <ele>562.99000000000001</ele>
        <time>2025-05-14T10:44:30Z</time>
      </trkpt>
      <trkpt lat="42.247553989291191" lon="1.346319979056716">
        <ele>566.83000000000004</ele>
        <time>2025-05-14T10:44:38Z</time>
      </trkpt>
      <trkpt lat="42.247662032023072" lon="1.346441013738513">
        <ele>567.32000000000005</ele>
        <time>2025-05-14T10:44:39Z</time>
      </trkpt>
      <trkpt lat="42.247778037562966" lon="1.346557019278407">
        <ele>567.79999999999995</ele>
        <time>2025-05-14T10:44:40Z</time>
      </trkpt>
      <trkpt lat="42.247902005910873" lon="1.346669001504779">
        <ele>568.27999999999997</ele>
        <time>2025-05-14T10:44:41Z</time>
      </trkpt>
      <trkpt lat="42.247902005910873" lon="1.346669001504779">
        <ele>568.27999999999997</ele>
        <time>2025-05-14T10:44:42Z</time>
      </trkpt>
      <trkpt lat="42.248185984790325" lon="1.346846027299762">
        <ele>568.75999999999999</ele>
        <time>2025-05-14T10:44:43Z</time>
      </trkpt>
      <trkpt lat="42.248336020857096" lon="1.346895983442664">
        <ele>569.24000000000001</ele>
        <time>2025-05-14T10:44:44Z</time>
      </trkpt>
      <trkpt lat="42.248493013903499" lon="1.346924984827638">
        <ele>569.72000000000003</ele>
        <time>2025-05-14T10:44:45Z</time>
      </trkpt>
      <trkpt lat="42.248655958101153" lon="1.346943005919457">
        <ele>569.72000000000003</ele>
        <time>2025-05-14T10:44:46Z</time>
      </trkpt>
      <trkpt lat="42.248827032744884" lon="1.346962032839656">
        <ele>569.72000000000003</ele>
        <time>2025-05-14T10:44:47Z</time>
      </trkpt>
      <trkpt lat="42.248971033841372" lon="1.346959015354514">
        <ele>569.72000000000003</ele>
        <time>2025-05-14T10:44:48Z</time>
      </trkpt>
      <trkpt lat="42.25004400126636" lon="1.347039984539151">
        <ele>568.75999999999999</ele>
        <time>2025-05-14T10:44:55Z</time>
      </trkpt>
      <trkpt lat="42.250194037333131" lon="1.347092036157847">
        <ele>568.75999999999999</ele>
        <time>2025-05-14T10:44:56Z</time>
      </trkpt>
      <trkpt lat="42.251404970884323" lon="1.347939027473331">
        <ele>567.32000000000005</ele>
        <time>2025-05-14T10:45:05Z</time>
      </trkpt>
      <trkpt lat="42.251536985859275" lon="1.34804698638618">
        <ele>567.79999999999995</ele>
        <time>2025-05-14T10:45:06Z</time>
      </trkpt>
      <trkpt lat="42.256217021495104" lon="1.352103995159268">
        <ele>569.24000000000001</ele>
        <time>2025-05-14T10:45:41Z</time>
      </trkpt>
      <trkpt lat="42.25700500421226" lon="1.352973030880094">
        <ele>573.08000000000004</ele>
        <time>2025-05-14T10:45:44Z</time>
      </trkpt>
      <trkpt lat="42.257911004126072" lon="1.354166027158499">
        <ele>575.97000000000003</ele>
        <time>2025-05-14T10:45:50Z</time>
      </trkpt>
      <trkpt lat="42.258943989872932" lon="1.355577958747745">
        <ele>575.97000000000003</ele>
        <time>2025-05-14T10:45:57Z</time>
      </trkpt>
      <trkpt lat="42.259125038981438" lon="1.355758002027869">
        <ele>575.97000000000003</ele>
        <time>2025-05-14T10:45:58Z</time>
      </trkpt>
      <trkpt lat="42.259323019534349" lon="1.355905020609498">
        <ele>576.45000000000005</ele>
        <time>2025-05-14T10:45:59Z</time>
      </trkpt>
      <trkpt lat="42.259529968723655" lon="1.356046004220843">
        <ele>576.45000000000005</ele>
        <time>2025-05-14T10:46:00Z</time>
      </trkpt>
      <trkpt lat="42.259756028652191" lon="1.356133008375764">
        <ele>576.92999999999995</ele>
        <time>2025-05-14T10:46:01Z</time>
      </trkpt>
      <trkpt lat="42.259984016418457" lon="1.356208026409149">
        <ele>576.92999999999995</ele>
        <time>2025-05-14T10:46:02Z</time>
      </trkpt>
      <trkpt lat="42.26194798015058" lon="1.356902970001102">
        <ele>577.88999999999999</ele>
        <time>2025-05-14T10:46:11Z</time>
      </trkpt>
      <trkpt lat="42.263526963070035" lon="1.357720959931612">
        <ele>579.80999999999995</ele>
        <time>2025-05-14T10:46:19Z</time>
      </trkpt>
      <trkpt lat="42.265079962089658" lon="1.358642969280481">
        <ele>584.13999999999999</ele>
        <time>2025-05-14T10:46:27Z</time>
      </trkpt>
      <trkpt lat="42.266223002225161" lon="1.359392981976271">
        <ele>584.62</ele>
        <time>2025-05-14T10:46:33Z</time>
      </trkpt>
      <trkpt lat="42.26798303425312" lon="1.36035799048841">
        <ele>588.46000000000004</ele>
        <time>2025-05-14T10:46:42Z</time>
      </trkpt>
      <trkpt lat="42.269432013854384" lon="1.360768033191562">
        <ele>589.90999999999997</ele>
        <time>2025-05-14T10:46:50Z</time>
      </trkpt>
      <trkpt lat="42.270687036216259" lon="1.360898958519101">
        <ele>588.95000000000005</ele>
        <time>2025-05-14T10:46:58Z</time>
      </trkpt>
      <trkpt lat="42.272562989965081" lon="1.360638029873371">
        <ele>588.46000000000004</ele>
        <time>2025-05-14T10:47:09Z</time>
      </trkpt>
      <trkpt lat="42.274596020579338" lon="1.360347010195255">
        <ele>590.87</ele>
        <time>2025-05-14T10:47:20Z</time>
      </trkpt>
      <trkpt lat="42.275534039363265" lon="1.360309040173888">
        <ele>591.35000000000002</ele>
        <time>2025-05-14T10:47:25Z</time>
      </trkpt>
      <trkpt lat="42.275716010481119" lon="1.360343992710114">
        <ele>591.83000000000004</ele>
        <time>2025-05-14T10:47:26Z</time>
      </trkpt>
      <trkpt lat="42.275888007134199" lon="1.360436026006937">
        <ele>591.83000000000004</ele>
        <time>2025-05-14T10:47:27Z</time>
      </trkpt>
      <trkpt lat="42.276051035150886" lon="1.360554965212941">
        <ele>592.30999999999995</ele>
        <time>2025-05-14T10:47:28Z</time>
      </trkpt>
      <trkpt lat="42.276207022368908" lon="1.360699972137809">
        <ele>592.78999999999996</ele>
        <time>2025-05-14T10:47:29Z</time>
      </trkpt>
      <trkpt lat="42.276518996804953" lon="1.360989985987544">
        <ele>592.78999999999996</ele>
        <time>2025-05-14T10:47:31Z</time>
      </trkpt>
      <trkpt lat="42.276687975972891" lon="1.361114038154483">
        <ele>592.30999999999995</ele>
        <time>2025-05-14T10:47:32Z</time>
      </trkpt>
      <trkpt lat="42.278663003817201" lon="1.362285995855928">
        <ele>592.78999999999996</ele>
        <time>2025-05-14T10:47:43Z</time>
      </trkpt>
      <trkpt lat="42.280859984457493" lon="1.363683007657528">
        <ele>592.78999999999996</ele>
        <time>2025-05-14T10:47:55Z</time>
      </trkpt>
      <trkpt lat="42.281023012474179" lon="1.363843018189073">
        <ele>592.78999999999996</ele>
        <time>2025-05-14T10:47:56Z</time>
      </trkpt>
      <trkpt lat="42.281174976378679" lon="1.364023983478546">
        <ele>592.78999999999996</ele>
        <time>2025-05-14T10:47:57Z</time>
      </trkpt>
      <trkpt lat="42.281628018245101" lon="1.364559000357986">
        <ele>592.78999999999996</ele>
        <time>2025-05-14T10:48:00Z</time>
      </trkpt>
      <trkpt lat="42.281791968271136" lon="1.36471800506115">
        <ele>592.78999999999996</ele>
        <time>2025-05-14T10:48:01Z</time>
      </trkpt>
      <trkpt lat="42.281963964924216" lon="1.364858988672495">
        <ele>592.30999999999995</ele>
        <time>2025-05-14T10:48:02Z</time>
      </trkpt>
      <trkpt lat="42.282144008204341" lon="1.364981029182673">
        <ele>592.30999999999995</ele>
        <time>2025-05-14T10:48:03Z</time>
      </trkpt>
      <trkpt lat="42.282331008464098" lon="1.365088988095522">
        <ele>592.30999999999995</ele>
        <time>2025-05-14T10:48:04Z</time>
      </trkpt>
      <trkpt lat="42.285204995423555" lon="1.366465967148542">
        <ele>594.23000000000002</ele>
        <time>2025-05-14T10:48:19Z</time>
      </trkpt>
      <trkpt lat="42.286602007225156" lon="1.366764027625322">
        <ele>595.19000000000005</ele>
        <time>2025-05-14T10:48:26Z</time>
      </trkpt>
      <trkpt lat="42.28798896074295" lon="1.366618014872074">
        <ele>596.63999999999999</ele>
        <time>2025-05-14T10:48:33Z</time>
      </trkpt>
      <trkpt lat="42.288184007629752" lon="1.366641987115145">
        <ele>596.63999999999999</ele>
        <time>2025-05-14T10:48:34Z</time>
      </trkpt>
      <trkpt lat="42.28837301954627" lon="1.366698984056711">
        <ele>596.63999999999999</ele>
        <time>2025-05-14T10:48:35Z</time>
      </trkpt>
      <trkpt lat="42.288560019806027" lon="1.366781964898109">
        <ele>597.12</ele>
        <time>2025-05-14T10:48:36Z</time>
      </trkpt>
      <trkpt lat="42.288745008409023" lon="1.366879027336836">
        <ele>597.12</ele>
        <time>2025-05-14T10:48:37Z</time>
      </trkpt>
      <trkpt lat="42.288923040032387" lon="1.36699503287673">
        <ele>597.12</ele>
        <time>2025-05-14T10:48:38Z</time>
      </trkpt>
      <trkpt lat="42.290528006851673" lon="1.368058025836945">
        <ele>599.03999999999996</ele>
        <time>2025-05-14T10:48:47Z</time>
      </trkpt>
      <trkpt lat="42.291943961754441" lon="1.368232034146786">
        <ele>600.48000000000002</ele>
        <time>2025-05-14T10:48:54Z</time>
      </trkpt>
      <trkpt lat="42.292538993060589" lon="1.368084009736776">
        <ele>600.96000000000004</ele>
        <time>2025-05-14T10:48:57Z</time>
      </trkpt>
      <trkpt lat="42.292720964178443" lon="1.367976972833276">
        <ele>601.44000000000005</ele>
        <time>2025-05-14T10:48:58Z</time>
      </trkpt>
      <trkpt lat="42.292900001630187" lon="1.367868008092046">
        <ele>601.44000000000005</ele>
        <time>2025-05-14T10:48:59Z</time>
      </trkpt>
      <trkpt lat="42.294062990695238" lon="1.366949016228318">
        <ele>605.28999999999996</ele>
        <time>2025-05-14T10:49:07Z</time>
      </trkpt>
      <trkpt lat="42.295268978923559" lon="1.365874037146568">
        <ele>609.61000000000001</ele>
        <time>2025-05-14T10:49:17Z</time>
      </trkpt>
      <trkpt lat="42.296318979933858" lon="1.364785982295871">
        <ele>610.57000000000005</ele>
        <time>2025-05-14T10:49:26Z</time>
      </trkpt>
      <trkpt lat="42.296463986858726" lon="1.364657990634441">
        <ele>610.57000000000005</ele>
        <time>2025-05-14T10:49:27Z</time>
      </trkpt>
      <trkpt lat="42.296613017097116" lon="1.36452597565949">
        <ele>610.57000000000005</ele>
        <time>2025-05-14T10:49:28Z</time>
      </trkpt>
      <trkpt lat="42.296776967123151" lon="1.36441701091826">
        <ele>610.57000000000005</ele>
        <time>2025-05-14T10:49:29Z</time>
      </trkpt>
      <trkpt lat="42.296958016231656" lon="1.364337969571352">
        <ele>610.57000000000005</ele>
        <time>2025-05-14T10:49:30Z</time>
      </trkpt>
      <trkpt lat="42.297144010663033" lon="1.364257000386715">
        <ele>610.09000000000003</ele>
        <time>2025-05-14T10:49:31Z</time>
      </trkpt>
      <trkpt lat="42.297340985387564" lon="1.364207966253161">
        <ele>610.09000000000003</ele>
        <time>2025-05-14T10:49:32Z</time>
      </trkpt>
      <trkpt lat="42.297535026445985" lon="1.364172007888556">
        <ele>609.61000000000001</ele>
        <time>2025-05-14T10:49:33Z</time>
      </trkpt>
      <trkpt lat="42.297755973413587" lon="1.364201009273529">
        <ele>609.61000000000001</ele>
        <time>2025-05-14T10:49:34Z</time>
      </trkpt>
      <trkpt lat="42.297969041392207" lon="1.364231016486883">
        <ele>609.13</ele>
        <time>2025-05-14T10:49:35Z</time>
      </trkpt>
      <trkpt lat="42.298173978924751" lon="1.364304022863507">
        <ele>609.13</ele>
        <time>2025-05-14T10:49:36Z</time>
      </trkpt>
      <trkpt lat="42.298380006104708" lon="1.364388009533286">
        <ele>609.13</ele>
        <time>2025-05-14T10:49:37Z</time>
      </trkpt>
      <trkpt lat="42.298581004142761" lon="1.364491023123264">
        <ele>609.13</ele>
        <time>2025-05-14T10:49:38Z</time>
      </trkpt>
      <trkpt lat="42.298777978867292" lon="1.364621026441455">
        <ele>609.13</ele>
        <time>2025-05-14T10:49:39Z</time>
      </trkpt>
      <trkpt lat="42.298951987177134" lon="1.36480400338769">
        <ele>609.61000000000001</ele>
        <time>2025-05-14T10:49:40Z</time>
      </trkpt>
      <trkpt lat="42.299129012972116" lon="1.364989997819066">
        <ele>609.61000000000001</ele>
        <time>2025-05-14T10:49:41Z</time>
      </trkpt>
      <trkpt lat="42.299303021281958" lon="1.365182027220726">
        <ele>609.61000000000001</ele>
        <time>2025-05-14T10:49:42Z</time>
      </trkpt>
      <trkpt lat="42.300589978694916" lon="1.366704013198614">
        <ele>609.61000000000001</ele>
        <time>2025-05-14T10:49:50Z</time>
      </trkpt>
      <trkpt lat="42.300765998661518" lon="1.366838961839676">
        <ele>610.09000000000003</ele>
        <time>2025-05-14T10:49:51Z</time>
      </trkpt>
      <trkpt lat="42.300950987264514" lon="1.36695203371346">
        <ele>610.09000000000003</ele>
        <time>2025-05-14T10:49:52Z</time>
      </trkpt>
      <trkpt lat="42.301141005009413" lon="1.367047000676394">
        <ele>610.57000000000005</ele>
        <time>2025-05-14T10:49:53Z</time>
      </trkpt>
      <trkpt lat="42.301335968077183" lon="1.367131993174553">
        <ele>610.57000000000005</ele>
        <time>2025-05-14T10:49:54Z</time>
      </trkpt>
      <trkpt lat="42.301535038277507" lon="1.36721002869308">
        <ele>610.57000000000005</ele>
        <time>2025-05-14T10:49:55Z</time>
      </trkpt>
      <trkpt lat="42.302538016811013" lon="1.367625016719103">
        <ele>612.01999999999998</ele>
        <time>2025-05-14T10:50:00Z</time>
      </trkpt>
      <trkpt lat="42.304194029420614" lon="1.368795968592167">
        <ele>614.89999999999998</ele>
        <time>2025-05-14T10:50:09Z</time>
      </trkpt>
      <trkpt lat="42.305236989632249" lon="1.369938002899289">
        <ele>619.23000000000002</ele>
        <time>2025-05-14T10:50:16Z</time>
      </trkpt>
      <trkpt lat="42.306667026132345" lon="1.371793001890183">
        <ele>627.88</ele>
        <time>2025-05-14T10:50:27Z</time>
      </trkpt>
      <trkpt lat="42.3073860257864" lon="1.373282968997955">
        <ele>635.57000000000005</ele>
        <time>2025-05-14T10:50:34Z</time>
      </trkpt>
      <trkpt lat="42.308141989633441" lon="1.374535979703069">
        <ele>641.82000000000005</ele>
        <time>2025-05-14T10:50:41Z</time>
      </trkpt>
      <trkpt lat="42.310078041628003" lon="1.376759028062224">
        <ele>647.10000000000002</ele>
        <time>2025-05-14T10:50:54Z</time>
      </trkpt>
      <trkpt lat="42.311990037560463" lon="1.378481006249785">
        <ele>651.42999999999995</ele>
        <time>2025-05-14T10:51:05Z</time>
      </trkpt>
      <trkpt lat="42.313258973881602" lon="1.379568977281451">
        <ele>655.27999999999997</ele>
        <time>2025-05-14T10:51:14Z</time>
      </trkpt>
      <trkpt lat="42.314451970160007" lon="1.380610009655356">
        <ele>662.49000000000001</ele>
        <time>2025-05-14T10:51:25Z</time>
      </trkpt>
      <trkpt lat="42.314853966236115" lon="1.380989961326122">
        <ele>664.88999999999999</ele>
        <time>2025-05-14T10:51:30Z</time>
      </trkpt>
      <trkpt lat="42.314926972612739" lon="1.381079982966185">
        <ele>665.37</ele>
        <time>2025-05-14T10:51:31Z</time>
      </trkpt>
      <trkpt lat="42.314983969554305" lon="1.381196994334459">
        <ele>665.85000000000002</ele>
        <time>2025-05-14T10:51:32Z</time>
      </trkpt>
      <trkpt lat="42.315025962889194" lon="1.381322974339128">
        <ele>666.33000000000004</ele>
        <time>2025-05-14T10:51:33Z</time>
      </trkpt>
      <trkpt lat="42.315067034214735" lon="1.381448032334447">
        <ele>666.33000000000004</ele>
        <time>2025-05-14T10:51:34Z</time>
      </trkpt>
      <trkpt lat="42.315110033378005" lon="1.381575018167496">
        <ele>665.85000000000002</ele>
        <time>2025-05-14T10:51:35Z</time>
      </trkpt>
      <trkpt lat="42.315630968660116" lon="1.38341199606657">
        <ele>671.62</ele>
        <time>2025-05-14T10:51:48Z</time>
      </trkpt>
      <trkpt lat="42.315955013036728" lon="1.384610021486878">
        <ele>673.53999999999996</ele>
        <time>2025-05-14T10:51:56Z</time>
      </trkpt>
      <trkpt lat="42.315996000543237" lon="1.384757962077856">
        <ele>673.05999999999995</ele>
        <time>2025-05-14T10:51:57Z</time>
      </trkpt>
      <trkpt lat="42.316544009372592" lon="1.386736007407308">
        <ele>672.58000000000004</ele>
        <time>2025-05-14T10:52:09Z</time>
      </trkpt>
      <trkpt lat="42.317063016816974" lon="1.387843005359173">
        <ele>674.5</ele>
        <time>2025-05-14T10:52:15Z</time>
      </trkpt>
      <trkpt lat="42.318419963121414" lon="1.389281004667282">
        <ele>671.62</ele>
        <time>2025-05-14T10:52:24Z</time>
      </trkpt>
      <trkpt lat="42.320207990705967" lon="1.390407029539347">
        <ele>663.45000000000005</ele>
        <time>2025-05-14T10:52:33Z</time>
      </trkpt>
      <trkpt lat="42.320953980088234" lon="1.391001977026463">
        <ele>658.63999999999999</ele>
        <time>2025-05-14T10:52:37Z</time>
      </trkpt>
      <trkpt lat="42.321107033640146" lon="1.391186965629458">
        <ele>657.20000000000005</ele>
        <time>2025-05-14T10:52:38Z</time>
      </trkpt>
      <trkpt lat="42.32124499976635" lon="1.39140397310257">
        <ele>656.24000000000001</ele>
        <time>2025-05-14T10:52:39Z</time>
      </trkpt>
      <trkpt lat="42.32124499976635" lon="1.39140397310257">
        <ele>655.27999999999997</ele>
        <time>2025-05-14T10:52:40Z</time>
      </trkpt>
      <trkpt lat="42.321448009461164" lon="1.391886016353965">
        <ele>653.83000000000004</ele>
        <time>2025-05-14T10:52:41Z</time>
      </trkpt>
      <trkpt lat="42.321515986695886" lon="1.392144011333585">
        <ele>652.38999999999999</ele>
        <time>2025-05-14T10:52:42Z</time>
      </trkpt>
      <trkpt lat="42.321571977809072" lon="1.39241298660636">
        <ele>650.95000000000005</ele>
        <time>2025-05-14T10:52:43Z</time>
      </trkpt>
      <trkpt lat="42.32186702080071" lon="1.393712013959885">
        <ele>645.65999999999997</ele>
        <time>2025-05-14T10:52:48Z</time>
      </trkpt>
      <trkpt lat="42.321945978328586" lon="1.393940001726151">
        <ele>644.70000000000005</ele>
        <time>2025-05-14T10:52:49Z</time>
      </trkpt>
      <trkpt lat="42.322023008018732" lon="1.394162960350514">
        <ele>643.74000000000001</ele>
        <time>2025-05-14T10:52:50Z</time>
      </trkpt>
      <trkpt lat="42.32212501578033" lon="1.394355995580554">
        <ele>642.29999999999995</ele>
        <time>2025-05-14T10:52:51Z</time>
      </trkpt>
      <trkpt lat="42.322232974693179" lon="1.394536960870028">
        <ele>641.34000000000003</ele>
        <time>2025-05-14T10:52:52Z</time>
      </trkpt>
      <trkpt lat="42.323038978502154" lon="1.395867001265287">
        <ele>636.52999999999997</ele>
        <time>2025-05-14T10:53:00Z</time>
      </trkpt>
      <trkpt lat="42.323124976828694" lon="1.396038997918367">
        <ele>636.04999999999995</ele>
        <time>2025-05-14T10:53:01Z</time>
      </trkpt>
      <trkpt lat="42.323404010385275" lon="1.396829998120666">
        <ele>634.61000000000001</ele>
        <time>2025-05-14T10:53:05Z</time>
      </trkpt>
      <trkpt lat="42.323510041460395" lon="1.397010963410139">
        <ele>634.13</ele>
        <time>2025-05-14T10:53:06Z</time>
      </trkpt>
      <trkpt lat="42.323615988716483" lon="1.397193018347025">
        <ele>634.13</ele>
        <time>2025-05-14T10:53:07Z</time>
      </trkpt>
      <trkpt lat="42.3237360175699" lon="1.397358980029821">
        <ele>633.64999999999998</ele>
        <time>2025-05-14T10:53:08Z</time>
      </trkpt>
      <trkpt lat="42.323885969817638" lon="1.397484038025141">
        <ele>633.16999999999996</ele>
        <time>2025-05-14T10:53:09Z</time>
      </trkpt>
      <trkpt lat="42.324036005884409" lon="1.397608006373048">
        <ele>633.16999999999996</ele>
        <time>2025-05-14T10:53:10Z</time>
      </trkpt>
      <trkpt lat="42.324187969788909" lon="1.397731974720955">
        <ele>632.67999999999995</ele>
        <time>2025-05-14T10:53:11Z</time>
      </trkpt>
      <trkpt lat="42.324350997805595" lon="1.397814033553004">
        <ele>632.67999999999995</ele>
        <time>2025-05-14T10:53:12Z</time>
      </trkpt>
      <trkpt lat="42.325097993016243" lon="1.398165989667177">
        <ele>632.67999999999995</ele>
        <time>2025-05-14T10:53:18Z</time>
      </trkpt>
      <trkpt lat="42.325341990217566" lon="1.39834301546216">
        <ele>633.16999999999996</ele>
        <time>2025-05-14T10:53:19Z</time>
      </trkpt>
      <trkpt lat="42.325437963008881" lon="1.398454997688532">
        <ele>633.64999999999998</ele>
        <time>2025-05-14T10:53:20Z</time>
      </trkpt>
      <trkpt lat="42.325524967163801" lon="1.398563040420413">
        <ele>634.13</ele>
        <time>2025-05-14T10:53:21Z</time>
      </trkpt>
      <trkpt lat="42.325584981590509" lon="1.398670999333262">
        <ele>634.61000000000001</ele>
        <time>2025-05-14T10:53:22Z</time>
      </trkpt>
      <trkpt lat="42.325624041259289" lon="1.398739982396364">
        <ele>634.61000000000001</ele>
        <time>2025-05-14T10:53:23Z</time>
      </trkpt>
      <trkpt lat="42.325681038200855" lon="1.398808965459466">
        <ele>635.09000000000003</ele>
        <time>2025-05-14T10:53:24Z</time>
      </trkpt>
      <trkpt lat="42.325698975473642" lon="1.398994959890842">
        <ele>635.09000000000003</ele>
        <time>2025-05-14T10:53:25Z</time>
      </trkpt>
      <trkpt lat="42.325666034594178" lon="1.399125969037414">
        <ele>635.57000000000005</ele>
        <time>2025-05-14T10:53:26Z</time>
      </trkpt>
      <trkpt lat="42.325681960210204" lon="1.399152036756277">
        <ele>635.57000000000005</ele>
        <time>2025-05-14T10:53:27Z</time>
      </trkpt>
      <trkpt lat="42.325723031535745" lon="1.399221019819379">
        <ele>636.04999999999995</ele>
        <time>2025-05-14T10:53:28Z</time>
      </trkpt>
      <trkpt lat="42.325764019042253" lon="1.3992889970541">
        <ele>636.04999999999995</ele>
        <time>2025-05-14T10:53:29Z</time>
      </trkpt>
      <trkpt lat="42.325795032083988" lon="1.399340964853764">
        <ele>636.52999999999997</ele>
        <time>2025-05-14T10:53:30Z</time>
      </trkpt>
      <trkpt lat="42.325795032083988" lon="1.399340964853764">
        <ele>636.52999999999997</ele>
        <time>2025-05-14T10:53:31Z</time>
      </trkpt>
      <trkpt lat="42.326000975444913" lon="1.39939502812922">
        <ele>637.00999999999999</ele>
        <time>2025-05-14T10:53:32Z</time>
      </trkpt>
      <trkpt lat="42.326041040942073" lon="1.399482032284141">
        <ele>637.49000000000001</ele>
        <time>2025-05-14T10:53:33Z</time>
      </trkpt>
      <trkpt lat="42.326082028448582" lon="1.399572975933552">
        <ele>637.49000000000001</ele>
        <time>2025-05-14T10:53:34Z</time>
      </trkpt>
      <trkpt lat="42.326126033440232" lon="1.399669032543898">
        <ele>637.97000000000003</ele>
        <time>2025-05-14T10:53:35Z</time>
      </trkpt>
      <trkpt lat="42.326216977089643" lon="1.399862989783287">
        <ele>638.92999999999995</ele>
        <time>2025-05-14T10:53:37Z</time>
      </trkpt>
      <trkpt lat="42.326314961537719" lon="1.400058036670089">
        <ele>639.40999999999997</ele>
        <time>2025-05-14T10:53:39Z</time>
      </trkpt>
      <trkpt lat="42.326365001499653" lon="1.400159038603306">
        <ele>639.88999999999999</ele>
        <time>2025-05-14T10:53:40Z</time>
      </trkpt>
      <trkpt lat="42.326625008136034" lon="1.400653989985585">
        <ele>641.34000000000003</ele>
        <time>2025-05-14T10:53:45Z</time>
      </trkpt>
      <trkpt lat="42.327107973396778" lon="1.401498969644308">
        <ele>644.22000000000003</ele>
        <time>2025-05-14T10:53:56Z</time>
      </trkpt>
      <trkpt lat="42.327543999999762" lon="1.402045972645283">
        <ele>645.65999999999997</ele>
        <time>2025-05-14T10:54:04Z</time>
      </trkpt>
      <trkpt lat="42.328591989353299" lon="1.403187001124024">
        <ele>649.50999999999999</ele>
        <time>2025-05-14T10:54:15Z</time>
      </trkpt>
      <trkpt lat="42.32990300282836" lon="1.404654001817107">
        <ele>654.79999999999995</ele>
        <time>2025-05-14T10:54:26Z</time>
      </trkpt>
      <trkpt lat="42.331514004617929" lon="1.406455021351576">
        <ele>659.60000000000002</ele>
        <time>2025-05-14T10:54:39Z</time>
      </trkpt>
      <trkpt lat="42.333015035837889" lon="1.408384032547474">
        <ele>661.51999999999998</ele>
        <time>2025-05-14T10:54:50Z</time>
      </trkpt>
      <trkpt lat="42.335077989846468" lon="1.411464968696237">
        <ele>662.97000000000003</ele>
        <time>2025-05-14T10:55:06Z</time>
      </trkpt>
      <trkpt lat="42.337397010996938" lon="1.414906997233629">
        <ele>664.88999999999999</ele>
        <time>2025-05-14T10:55:25Z</time>
      </trkpt>
      <trkpt lat="42.339749978855252" lon="1.418376015499234">
        <ele>671.13999999999999</ele>
        <time>2025-05-14T10:55:43Z</time>
      </trkpt>
      <trkpt lat="42.34163599088788" lon="1.421172972768545">
        <ele>679.78999999999996</ele>
        <time>2025-05-14T10:55:58Z</time>
      </trkpt>
      <trkpt lat="42.343464000150561" lon="1.423917040228844">
        <ele>687.96000000000004</ele>
        <time>2025-05-14T10:56:12Z</time>
      </trkpt>
      <trkpt lat="42.344185011461377" lon="1.42500501126051">
        <ele>687.96000000000004</ele>
        <time>2025-05-14T10:56:19Z</time>
      </trkpt>
      <trkpt lat="42.345326039940119" lon="1.426684996113181">
        <ele>688.91999999999996</ele>
        <time>2025-05-14T10:56:30Z</time>
      </trkpt>
      <trkpt lat="42.346547031775117" lon="1.428518034517765">
        <ele>689.39999999999998</ele>
        <time>2025-05-14T10:56:42Z</time>
      </trkpt>
      <trkpt lat="42.347569959238172" lon="1.430072961375117">
        <ele>688.91999999999996</ele>
        <time>2025-05-14T10:56:53Z</time>
      </trkpt>
      <trkpt lat="42.349031008780003" lon="1.432227026671171">
        <ele>690.84000000000003</ele>
        <time>2025-05-14T10:57:07Z</time>
      </trkpt>
      <trkpt lat="42.350820964202285" lon="1.434849975630641">
        <ele>696.13</ele>
        <time>2025-05-14T10:57:20Z</time>
      </trkpt>
      <trkpt lat="42.352419979870319" lon="1.437265975400806">
        <ele>699.98000000000002</ele>
        <time>2025-05-14T10:57:33Z</time>
      </trkpt>
      <trkpt lat="42.353123975917697" lon="1.438272977247834">
        <ele>701.89999999999998</ele>
        <time>2025-05-14T10:57:41Z</time>
      </trkpt>
      <trkpt lat="42.354115974158049" lon="1.439766967669129">
        <ele>703.34000000000003</ele>
        <time>2025-05-14T10:57:51Z</time>
      </trkpt>
      <trkpt lat="42.355067990720272" lon="1.441166996955872">
        <ele>704.29999999999995</ele>
        <time>2025-05-14T10:58:02Z</time>
      </trkpt>
      <trkpt lat="42.356070969253778" lon="1.442661993205547">
        <ele>707.19000000000005</ele>
        <time>2025-05-14T10:58:14Z</time>
      </trkpt>
      <trkpt lat="42.356372969225049" lon="1.443072035908699">
        <ele>708.63</ele>
        <time>2025-05-14T10:58:18Z</time>
      </trkpt>
      <trkpt lat="42.35646097920835" lon="1.443159962072969">
        <ele>709.11000000000001</ele>
        <time>2025-05-14T10:58:19Z</time>
      </trkpt>
      <trkpt lat="42.356543960049748" lon="1.443243026733398">
        <ele>710.07000000000005</ele>
        <time>2025-05-14T10:58:20Z</time>
      </trkpt>
      <trkpt lat="42.356669018045068" lon="1.443289965391159">
        <ele>711.02999999999997</ele>
        <time>2025-05-14T10:58:21Z</time>
      </trkpt>
      <trkpt lat="42.356796003878117" lon="1.443338999524713">
        <ele>712.95000000000005</ele>
        <time>2025-05-14T10:58:22Z</time>
      </trkpt>
      <trkpt lat="42.356919972226024" lon="1.443386022001505">
        <ele>714.39999999999998</ele>
        <time>2025-05-14T10:58:23Z</time>
      </trkpt>
      <trkpt lat="42.357049975544214" lon="1.443436983972788">
        <ele>715.36000000000001</ele>
        <time>2025-05-14T10:58:24Z</time>
      </trkpt>
      <trkpt lat="42.357181990519166" lon="1.44350596703589">
        <ele>716.32000000000005</ele>
        <time>2025-05-14T10:58:25Z</time>
      </trkpt>
      <trkpt lat="42.357317022979259" lon="1.44358903169632">
        <ele>717.75999999999999</ele>
        <time>2025-05-14T10:58:26Z</time>
      </trkpt>
      <trkpt lat="42.357453983277082" lon="1.443673018366098">
        <ele>718.72000000000003</ele>
        <time>2025-05-14T10:58:27Z</time>
      </trkpt>
      <trkpt lat="42.357579963281751" lon="1.44378500059247">
        <ele>719.67999999999995</ele>
        <time>2025-05-14T10:58:28Z</time>
      </trkpt>
      <trkpt lat="42.35770502127707" lon="1.443910980597138">
        <ele>721.13</ele>
        <time>2025-05-14T10:58:29Z</time>
      </trkpt>
      <trkpt lat="42.357820020988584" lon="1.444055987522006">
        <ele>722.09000000000003</ele>
        <time>2025-05-14T10:58:30Z</time>
      </trkpt>
      <trkpt lat="42.357919011265039" lon="1.44421398639679">
        <ele>723.52999999999997</ele>
        <time>2025-05-14T10:58:31Z</time>
      </trkpt>
      <trkpt lat="42.358018001541495" lon="1.444369973614812">
        <ele>724.49000000000001</ele>
        <time>2025-05-14T10:58:32Z</time>
      </trkpt>
      <trkpt lat="42.358303992077708" lon="1.445002974942327">
        <ele>727.86000000000001</ele>
        <time>2025-05-14T10:58:36Z</time>
      </trkpt>
      <trkpt lat="42.358344979584217" lon="1.445131972432137">
        <ele>728.82000000000005</ele>
        <time>2025-05-14T10:58:37Z</time>
      </trkpt>
      <trkpt lat="42.358394013717771" lon="1.44528896547854">
        <ele>729.29999999999995</ele>
        <time>2025-05-14T10:58:38Z</time>
      </trkpt>
      <trkpt lat="42.358787041157484" lon="1.446419013664126">
        <ele>732.65999999999997</ele>
        <time>2025-05-14T10:58:47Z</time>
      </trkpt>
      <trkpt lat="42.358804978430271" lon="1.446697041392326">
        <ele>732.17999999999995</ele>
        <time>2025-05-14T10:58:49Z</time>
      </trkpt>
      <trkpt lat="42.358840014785528" lon="1.446783961728215">
        <ele>731.70000000000005</ele>
        <time>2025-05-14T10:58:50Z</time>
      </trkpt>
      <trkpt lat="42.359071020036936" lon="1.447142036631703">
        <ele>730.74000000000001</ele>
        <time>2025-05-14T10:58:53Z</time>
      </trkpt>
      <trkpt lat="42.359147965908051" lon="1.447257036343217">
        <ele>730.25999999999999</ele>
        <time>2025-05-14T10:58:54Z</time>
      </trkpt>
      <trkpt lat="42.359861014410853" lon="1.448496971279383">
        <ele>723.52999999999997</ele>
        <time>2025-05-14T10:59:04Z</time>
      </trkpt>
      <trkpt lat="42.359902001917362" lon="1.448637032881379">
        <ele>722.57000000000005</ele>
        <time>2025-05-14T10:59:05Z</time>
      </trkpt>
      <trkpt lat="42.360342973843217" lon="1.450355993583798">
        <ele>714.88</ele>
        <time>2025-05-14T10:59:17Z</time>
      </trkpt>
      <trkpt lat="42.360449004918337" lon="1.45076796412468">
        <ele>712.95000000000005</ele>
        <time>2025-05-14T10:59:20Z</time>
      </trkpt>
      <trkpt lat="42.360472977161407" lon="1.450899979099631">
        <ele>711.99000000000001</ele>
        <time>2025-05-14T10:59:21Z</time>
      </trkpt>
      <trkpt lat="42.360490998253226" lon="1.451029982417822">
        <ele>711.02999999999997</ele>
        <time>2025-05-14T10:59:22Z</time>
      </trkpt>
      <trkpt lat="42.360484963282943" lon="1.451150011271238">
        <ele>710.07000000000005</ele>
        <time>2025-05-14T10:59:23Z</time>
      </trkpt>
      <trkpt lat="42.360479012131691" lon="1.451264005154371">
        <ele>709.11000000000001</ele>
        <time>2025-05-14T10:59:24Z</time>
      </trkpt>
      <trkpt lat="42.360472977161407" lon="1.451371964067221">
        <ele>708.14999999999998</ele>
        <time>2025-05-14T10:59:25Z</time>
      </trkpt>
      <trkpt lat="42.360465014353395" lon="1.451460979878902">
        <ele>707.19000000000005</ele>
        <time>2025-05-14T10:59:26Z</time>
      </trkpt>
      <trkpt lat="42.36043500714004" lon="1.451759962365031">
        <ele>702.86000000000001</ele>
        <time>2025-05-14T10:59:32Z</time>
      </trkpt>
      <trkpt lat="42.360517987981439" lon="1.45199197344482">
        <ele>700.46000000000004</ele>
        <time>2025-05-14T10:59:36Z</time>
      </trkpt>
      <trkpt lat="42.360535003244877" lon="1.452041007578373">
        <ele>699.98000000000002</ele>
        <time>2025-05-14T10:59:37Z</time>
      </trkpt>
      <trkpt lat="42.360535003244877" lon="1.452041007578373">
        <ele>699.5</ele>
        <time>2025-05-14T10:59:38Z</time>
      </trkpt>
      <trkpt lat="42.360546989366412" lon="1.452288022264838">
        <ele>699.01999999999998</ele>
        <time>2025-05-14T10:59:39Z</time>
      </trkpt>
      <trkpt lat="42.360599962994456" lon="1.452320041134954">
        <ele>698.52999999999997</ele>
        <time>2025-05-14T10:59:40Z</time>
      </trkpt>
      <trkpt lat="42.360662994906306" lon="1.45237997174263">
        <ele>698.04999999999995</ele>
        <time>2025-05-14T10:59:41Z</time>
      </trkpt>
      <trkpt lat="42.360662994906306" lon="1.452380977571011">
        <ele>697.57000000000005</ele>
        <time>2025-05-14T10:59:42Z</time>
      </trkpt>
      <trkpt lat="42.360687972977757" lon="1.452478962019086">
        <ele>697.09000000000003</ele>
        <time>2025-05-14T10:59:43Z</time>
      </trkpt>
      <trkpt lat="42.360719991847873" lon="1.452694041654468">
        <ele>696.61000000000001</ele>
        <time>2025-05-14T10:59:44Z</time>
      </trkpt>
      <trkpt lat="42.360703982412815" lon="1.452797977253795">
        <ele>696.13</ele>
        <time>2025-05-14T10:59:45Z</time>
      </trkpt>
      <trkpt lat="42.360596023499966" lon="1.453772038221359">
        <ele>693.73000000000002</ele>
        <time>2025-05-14T10:59:55Z</time>
      </trkpt>
      <trkpt lat="42.360523017123342" lon="1.454302025958896">
        <ele>694.69000000000005</ele>
        <time>2025-05-14T11:00:00Z</time>
      </trkpt>
      <trkpt lat="42.360495021566749" lon="1.454529007896781">
        <ele>695.64999999999998</ele>
        <time>2025-05-14T11:00:02Z</time>
      </trkpt>
      <trkpt lat="42.360527040436864" lon="1.454672003164887">
        <ele>696.61000000000001</ele>
        <time>2025-05-14T11:00:03Z</time>
      </trkpt>
      <trkpt lat="42.360557969659567" lon="1.454781973734498">
        <ele>697.09000000000003</ele>
        <time>2025-05-14T11:00:04Z</time>
      </trkpt>
      <trkpt lat="42.36062603071332" lon="1.454899990931153">
        <ele>698.04999999999995</ele>
        <time>2025-05-14T11:00:05Z</time>
      </trkpt>
      <trkpt lat="42.360701970756054" lon="1.454976014792919">
        <ele>699.01999999999998</ele>
        <time>2025-05-14T11:00:06Z</time>
      </trkpt>
      <trkpt lat="42.360795009881258" lon="1.455040974542499">
        <ele>699.98000000000002</ele>
        <time>2025-05-14T11:00:07Z</time>
      </trkpt>
      <trkpt lat="42.360888971015811" lon="1.455095037817955">
        <ele>700.94000000000005</ele>
        <time>2025-05-14T11:00:08Z</time>
      </trkpt>
      <trkpt lat="42.36099399626255" lon="1.455153962597251">
        <ele>701.89999999999998</ele>
        <time>2025-05-14T11:00:09Z</time>
      </trkpt>
      <trkpt lat="42.361835036426783" lon="1.455373987555504">
        <ele>707.66999999999996</ele>
        <time>2025-05-14T11:00:17Z</time>
      </trkpt>
      <trkpt lat="42.361947018653154" lon="1.455412963405252">
        <ele>708.14999999999998</ele>
        <time>2025-05-14T11:00:18Z</time>
      </trkpt>
      <trkpt lat="42.362138964235783" lon="1.45549301058054">
        <ele>708.63</ele>
        <time>2025-05-14T11:00:19Z</time>
      </trkpt>
      <trkpt lat="42.362169977277517" lon="1.455571968108416">
        <ele>708.63</ele>
        <time>2025-05-14T11:00:20Z</time>
      </trkpt>
      <trkpt lat="42.362189004197717" lon="1.455629970878363">
        <ele>709.11000000000001</ele>
        <time>2025-05-14T11:00:21Z</time>
      </trkpt>
      <trkpt lat="42.362205013632774" lon="1.455675987526774">
        <ele>709.59000000000003</ele>
        <time>2025-05-14T11:00:22Z</time>
      </trkpt>
      <trkpt lat="42.362220017239451" lon="1.455720998346806">
        <ele>709.59000000000003</ele>
        <time>2025-05-14T11:00:23Z</time>
      </trkpt>
      <trkpt lat="42.36223703250289" lon="1.455772966146469">
        <ele>710.07000000000005</ele>
        <time>2025-05-14T11:00:24Z</time>
      </trkpt>
      <trkpt lat="42.362258993089199" lon="1.45583800971508">
        <ele>710.54999999999995</ele>
        <time>2025-05-14T11:00:25Z</time>
      </trkpt>
      <trkpt lat="42.362295035272837" lon="1.45594596862793">
        <ele>710.54999999999995</ele>
        <time>2025-05-14T11:00:26Z</time>
      </trkpt>
      <trkpt lat="42.362284976989031" lon="1.456005983054638">
        <ele>711.02999999999997</ele>
        <time>2025-05-14T11:00:27Z</time>
      </trkpt>
      <trkpt lat="42.362272990867496" lon="1.45611897110939">
        <ele>711.50999999999999</ele>
        <time>2025-05-14T11:00:28Z</time>
      </trkpt>
      <trkpt lat="42.362286988645792" lon="1.456251991912723">
        <ele>711.50999999999999</ele>
        <time>2025-05-14T11:00:29Z</time>
      </trkpt>
      <trkpt lat="42.362336022779346" lon="1.456349976360798">
        <ele>711.99000000000001</ele>
        <time>2025-05-14T11:00:30Z</time>
      </trkpt>
      <trkpt lat="42.362420009449124" lon="1.456431029364467">
        <ele>712.47000000000003</ele>
        <time>2025-05-14T11:00:31Z</time>
      </trkpt>
      <trkpt lat="42.36251899972558" lon="1.456479979678989">
        <ele>712.47000000000003</ele>
        <time>2025-05-14T11:00:32Z</time>
      </trkpt>
      <trkpt lat="42.362600974738598" lon="1.456463970243931">
        <ele>712.47000000000003</ele>
        <time>2025-05-14T11:00:33Z</time>
      </trkpt>
      <trkpt lat="42.362683033570647" lon="1.456385012716055">
        <ele>712.95000000000005</ele>
        <time>2025-05-14T11:00:34Z</time>
      </trkpt>
      <trkpt lat="42.362752016633749" lon="1.456305971369147">
        <ele>712.95000000000005</ele>
        <time>2025-05-14T11:00:35Z</time>
      </trkpt>
      <trkpt lat="42.362828962504864" lon="1.456230031326413">
        <ele>713.44000000000005</ele>
        <time>2025-05-14T11:00:36Z</time>
      </trkpt>
      <trkpt lat="42.362914960831404" lon="1.456149984151125">
        <ele>713.91999999999996</ele>
        <time>2025-05-14T11:00:37Z</time>
      </trkpt>
      <trkpt lat="42.362914960831404" lon="1.456149984151125">
        <ele>714.39999999999998</ele>
        <time>2025-05-14T11:00:38Z</time>
      </trkpt>
      <trkpt lat="42.363131968304515" lon="1.45594596862793">
        <ele>715.36000000000001</ele>
        <time>2025-05-14T11:00:39Z</time>
      </trkpt>
      <trkpt lat="42.363220984116197" lon="1.455907998606563">
        <ele>715.84000000000003</ele>
        <time>2025-05-14T11:00:40Z</time>
      </trkpt>
      <trkpt lat="42.363347969949245" lon="1.455852007493377">
        <ele>716.79999999999995</ele>
        <time>2025-05-14T11:00:41Z</time>
      </trkpt>
      <trkpt lat="42.364649008959532" lon="1.455413969233632">
        <ele>721.13</ele>
        <time>2025-05-14T11:00:49Z</time>
      </trkpt>
      <trkpt lat="42.366684973239899" lon="1.454964028671384">
        <ele>725.45000000000005</ele>
        <time>2025-05-14T11:00:59Z</time>
      </trkpt>
      <trkpt lat="42.366895023733377" lon="1.454974003136158">
        <ele>725.45000000000005</ele>
        <time>2025-05-14T11:01:00Z</time>
      </trkpt>
      <trkpt lat="42.367103984579444" lon="1.455038040876389">
        <ele>725.92999999999995</ele>
        <time>2025-05-14T11:01:01Z</time>
      </trkpt>
      <trkpt lat="42.367315962910652" lon="1.455103000625968">
        <ele>725.92999999999995</ele>
        <time>2025-05-14T11:01:02Z</time>
      </trkpt>
      <trkpt lat="42.367527019232512" lon="1.455167960375547">
        <ele>726.40999999999997</ele>
        <time>2025-05-14T11:01:03Z</time>
      </trkpt>
      <trkpt lat="42.369289984926581" lon="1.45568797364831">
        <ele>724.49000000000001</ele>
        <time>2025-05-14T11:01:11Z</time>
      </trkpt>
      <trkpt lat="42.370100012049079" lon="1.455717980861664">
        <ele>724.00999999999999</ele>
        <time>2025-05-14T11:01:15Z</time>
      </trkpt>
      <trkpt lat="42.370293969288468" lon="1.455699037760496">
        <ele>724.49000000000001</ele>
        <time>2025-05-14T11:01:16Z</time>
      </trkpt>
      <trkpt lat="42.370479963719845" lon="1.455629970878363">
        <ele>724.49000000000001</ele>
        <time>2025-05-14T11:01:17Z</time>
      </trkpt>
      <trkpt lat="42.370663024485111" lon="1.455539027228952">
        <ele>724.97000000000003</ele>
        <time>2025-05-14T11:01:18Z</time>
      </trkpt>
      <trkpt lat="42.370840972289443" lon="1.455449005588889">
        <ele>724.97000000000003</ele>
        <time>2025-05-14T11:01:19Z</time>
      </trkpt>
      <trkpt lat="42.372349966317415" lon="1.454558009281755">
        <ele>725.92999999999995</ele>
        <time>2025-05-14T11:01:28Z</time>
      </trkpt>
      <trkpt lat="42.373200980946422" lon="1.45431200042367">
        <ele>726.40999999999997</ele>
        <time>2025-05-14T11:01:33Z</time>
      </trkpt>
      <trkpt lat="42.373552015051246" lon="1.454286016523838">
        <ele>726.40999999999997</ele>
        <time>2025-05-14T11:01:35Z</time>
      </trkpt>
      <trkpt lat="42.377683036029339" lon="1.45710401237011">
        <ele>736.50999999999999</ele>
        <time>2025-05-14T11:01:59Z</time>
      </trkpt>
      <trkpt lat="42.379644988104701" lon="1.458735968917608">
        <ele>743.24000000000001</ele>
        <time>2025-05-14T11:02:11Z</time>
      </trkpt>
      <trkpt lat="42.381349029019475" lon="1.459463015198708">
        <ele>742.75999999999999</ele>
        <time>2025-05-14T11:02:20Z</time>
      </trkpt>
      <trkpt lat="42.383602000772953" lon="1.459839027374983">
        <ele>745.63999999999999</ele>
        <time>2025-05-14T11:02:31Z</time>
      </trkpt>
      <trkpt lat="42.38615496084094" lon="1.460038013756275">
        <ele>752.85000000000002</ele>
        <time>2025-05-14T11:02:43Z</time>
      </trkpt>
      <trkpt lat="42.388179022818804" lon="1.460871007293463">
        <ele>759.58000000000004</ele>
        <time>2025-05-14T11:02:53Z</time>
      </trkpt>
      <trkpt lat="42.390552023425698" lon="1.46213399246335">
        <ele>761.01999999999998</ele>
        <time>2025-05-14T11:03:05Z</time>
      </trkpt>
      <trkpt lat="42.390552023425698" lon="1.46213399246335">
        <ele>761.01999999999998</ele>
        <time>2025-05-14T11:03:06Z</time>
      </trkpt>
      <trkpt lat="42.390966005623341" lon="1.46219601854682">
        <ele>761.5</ele>
        <time>2025-05-14T11:03:07Z</time>
      </trkpt>
      <trkpt lat="42.391177983954549" lon="1.462205993011594">
        <ele>761.5</ele>
        <time>2025-05-14T11:03:08Z</time>
      </trkpt>
      <trkpt lat="42.391387028619647" lon="1.46219601854682">
        <ele>761.98000000000002</ele>
        <time>2025-05-14T11:03:09Z</time>
      </trkpt>
      <trkpt lat="42.391598001122475" lon="1.462163999676704">
        <ele>762.46000000000004</ele>
        <time>2025-05-14T11:03:10Z</time>
      </trkpt>
      <trkpt lat="42.391808973625302" lon="1.462131980806589">
        <ele>762.46000000000004</ele>
        <time>2025-05-14T11:03:11Z</time>
      </trkpt>
      <trkpt lat="42.393215037882328" lon="1.461513983085752">
        <ele>765.83000000000004</ele>
        <time>2025-05-14T11:03:18Z</time>
      </trkpt>
      <trkpt lat="42.394654965028167" lon="1.46112397313118">
        <ele>768.23000000000002</ele>
        <time>2025-05-14T11:03:25Z</time>
      </trkpt>
      <trkpt lat="42.395910993218422" lon="1.461417004466057">
        <ele>770.63</ele>
        <time>2025-05-14T11:03:31Z</time>
      </trkpt>
      <trkpt lat="42.397427028045058" lon="1.462450996041298">
        <ele>770.63</ele>
        <time>2025-05-14T11:03:39Z</time>
      </trkpt>
      <trkpt lat="42.398404022678733" lon="1.46299397572875">
        <ele>769.66999999999996</ele>
        <time>2025-05-14T11:03:44Z</time>
      </trkpt>
      <trkpt lat="42.398612983524799" lon="1.463027000427246">
        <ele>769.66999999999996</ele>
        <time>2025-05-14T11:03:45Z</time>
      </trkpt>
      <trkpt lat="42.398819010704756" lon="1.463054995983839">
        <ele>769.66999999999996</ele>
        <time>2025-05-14T11:03:46Z</time>
      </trkpt>
      <trkpt lat="42.399026965722442" lon="1.463065976276994">
        <ele>769.66999999999996</ele>
        <time>2025-05-14T11:03:47Z</time>
      </trkpt>
      <trkpt lat="42.39923601038754" lon="1.463053990155459">
        <ele>769.66999999999996</ele>
        <time>2025-05-14T11:03:48Z</time>
      </trkpt>
      <trkpt lat="42.400914989411831" lon="1.462656017392874">
        <ele>771.60000000000002</ele>
        <time>2025-05-14T11:03:56Z</time>
      </trkpt>
      <trkpt lat="42.401540027931333" lon="1.462511010468006">
        <ele>772.08000000000004</ele>
        <time>2025-05-14T11:03:59Z</time>
      </trkpt>
      <trkpt lat="42.401746977120638" lon="1.462501036003232">
        <ele>772.08000000000004</ele>
        <time>2025-05-14T11:04:00Z</time>
      </trkpt>
      <trkpt lat="42.401955015957355" lon="1.46254101768136">
        <ele>771.60000000000002</ele>
        <time>2025-05-14T11:04:01Z</time>
      </trkpt>
      <trkpt lat="42.402159031480551" lon="1.462585022673011">
        <ele>772.08000000000004</ele>
        <time>2025-05-14T11:04:02Z</time>
      </trkpt>
      <trkpt lat="42.402355000376701" lon="1.462683007121086">
        <ele>772.08000000000004</ele>
        <time>2025-05-14T11:04:03Z</time>
      </trkpt>
      <trkpt lat="42.402550969272852" lon="1.462780991569161">
        <ele>772.55999999999995</ele>
        <time>2025-05-14T11:04:04Z</time>
      </trkpt>
      <trkpt lat="42.402731012552977" lon="1.462910994887352">
        <ele>773.51999999999998</ele>
        <time>2025-05-14T11:04:05Z</time>
      </trkpt>
      <trkpt lat="42.40291097201407" lon="1.463046027347446">
        <ele>774.48000000000002</ele>
        <time>2025-05-14T11:04:06Z</time>
      </trkpt>
      <trkpt lat="42.403056984767318" lon="1.463235039263964">
        <ele>775.44000000000005</ele>
        <time>2025-05-14T11:04:07Z</time>
      </trkpt>
      <trkpt lat="42.403207020834088" lon="1.463430002331734">
        <ele>776.39999999999998</ele>
        <time>2025-05-14T11:04:08Z</time>
      </trkpt>
      <trkpt lat="42.403354961425066" lon="1.463623959571123">
        <ele>777.36000000000001</ele>
        <time>2025-05-14T11:04:09Z</time>
      </trkpt>
      <trkpt lat="42.403482031077147" lon="1.463847002014518">
        <ele>778.32000000000005</ele>
        <time>2025-05-14T11:04:10Z</time>
      </trkpt>
      <trkpt lat="42.403598036617041" lon="1.464090999215841">
        <ele>779.76999999999998</ele>
        <time>2025-05-14T11:04:11Z</time>
      </trkpt>
      <trkpt lat="42.405069982632995" lon="1.466931039467454">
        <ele>789.38</ele>
        <time>2025-05-14T11:04:23Z</time>
      </trkpt>
      <trkpt lat="42.406273959204555" lon="1.468516979366541">
        <ele>792.74000000000001</ele>
        <time>2025-05-14T11:04:31Z</time>
      </trkpt>
      <trkpt lat="42.407264029607177" lon="1.469020983204246">
        <ele>793.22000000000003</ele>
        <time>2025-05-14T11:04:36Z</time>
      </trkpt>
      <trkpt lat="42.407683962956071" lon="1.469099018722773">
        <ele>792.74000000000001</ele>
        <time>2025-05-14T11:04:38Z</time>
      </trkpt>
      <trkpt lat="42.409163033589721" lon="1.468930039554834">
        <ele>793.22000000000003</ele>
        <time>2025-05-14T11:04:45Z</time>
      </trkpt>
      <trkpt lat="42.410776969045401" lon="1.468360992148519">
        <ele>796.59000000000003</ele>
        <time>2025-05-14T11:04:53Z</time>
      </trkpt>
      <trkpt lat="42.411764021962881" lon="1.467301016673446">
        <ele>802.36000000000001</ele>
        <time>2025-05-14T11:04:59Z</time>
      </trkpt>
      <trkpt lat="42.412634985521436" lon="1.465661013498902">
        <ele>806.20000000000005</ele>
        <time>2025-05-14T11:05:06Z</time>
      </trkpt>
      <trkpt lat="42.412924999371171" lon="1.465238984674215">
        <ele>806.67999999999995</ele>
        <time>2025-05-14T11:05:08Z</time>
      </trkpt>
      <trkpt lat="42.413096996024251" lon="1.465068999677897">
        <ele>806.67999999999995</ele>
        <time>2025-05-14T11:05:09Z</time>
      </trkpt>
      <trkpt lat="42.413275027647614" lon="1.464912006631494">
        <ele>806.67999999999995</ele>
        <time>2025-05-14T11:05:10Z</time>
      </trkpt>
      <trkpt lat="42.413452975451946" lon="1.464755013585091">
        <ele>806.20000000000005</ele>
        <time>2025-05-14T11:05:11Z</time>
      </trkpt>
      <trkpt lat="42.413648022338748" lon="1.464642025530338">
        <ele>806.20000000000005</ele>
        <time>2025-05-14T11:05:12Z</time>
      </trkpt>
      <trkpt lat="42.41384600289166" lon="1.464555021375418">
        <ele>806.20000000000005</ele>
        <time>2025-05-14T11:05:13Z</time>
      </trkpt>
      <trkpt lat="42.414050018414855" lon="1.464499030262232">
        <ele>806.20000000000005</ele>
        <time>2025-05-14T11:05:14Z</time>
      </trkpt>
      <trkpt lat="42.41425403393805" lon="1.464443961158395">
        <ele>805.72000000000003</ele>
        <time>2025-05-14T11:05:15Z</time>
      </trkpt>
      <trkpt lat="42.414458971470594" lon="1.464400039985776">
        <ele>806.20000000000005</ele>
        <time>2025-05-14T11:05:16Z</time>
      </trkpt>
      <trkpt lat="42.414658963680267" lon="1.464400039985776">
        <ele>806.20000000000005</ele>
        <time>2025-05-14T11:05:17Z</time>
      </trkpt>
      <trkpt lat="42.414854010567069" lon="1.464440021663904">
        <ele>807.15999999999997</ele>
        <time>2025-05-14T11:05:18Z</time>
      </trkpt>
      <trkpt lat="42.415058026090264" lon="1.464511016383767">
        <ele>807.63999999999999</ele>
        <time>2025-05-14T11:05:19Z</time>
      </trkpt>
      <trkpt lat="42.416903972625732" lon="1.465001022443175">
        <ele>816.29999999999995</ele>
        <time>2025-05-14T11:05:28Z</time>
      </trkpt>
      <trkpt lat="42.417766973376274" lon="1.464860960841179">
        <ele>819.17999999999995</ele>
        <time>2025-05-14T11:05:32Z</time>
      </trkpt>
      <trkpt lat="42.417968977242708" lon="1.464763982221484">
        <ele>819.65999999999997</ele>
        <time>2025-05-14T11:05:33Z</time>
      </trkpt>
      <trkpt lat="42.418168969452381" lon="1.46466800943017">
        <ele>820.13999999999999</ele>
        <time>2025-05-14T11:05:34Z</time>
      </trkpt>
      <trkpt lat="42.420220021158457" lon="1.463120961561799">
        <ele>824.47000000000003</ele>
        <time>2025-05-14T11:05:45Z</time>
      </trkpt>
      <trkpt lat="42.421556012704968" lon="1.462330967187882">
        <ele>821.58000000000004</ele>
        <time>2025-05-14T11:05:52Z</time>
      </trkpt>
      <trkpt lat="42.423231974244118" lon="1.462104991078377">
        <ele>819.65999999999997</ele>
        <time>2025-05-14T11:06:00Z</time>
      </trkpt>
      <trkpt lat="42.424325980246067" lon="1.461817994713783">
        <ele>821.10000000000002</ele>
        <time>2025-05-14T11:06:07Z</time>
      </trkpt>
      <trkpt lat="42.425561975687742" lon="1.461826041340828">
        <ele>825.42999999999995</ele>
        <time>2025-05-14T11:06:14Z</time>
      </trkpt>
      <trkpt lat="42.425850983709097" lon="1.46191799081862">
        <ele>827.35000000000002</ele>
        <time>2025-05-14T11:06:16Z</time>
      </trkpt>
      <trkpt lat="42.425972018390894" lon="1.462021004408598">
        <ele>828.78999999999996</ele>
        <time>2025-05-14T11:06:17Z</time>
      </trkpt>
      <trkpt lat="42.426063967868686" lon="1.462128041312099">
        <ele>829.75999999999999</ele>
        <time>2025-05-14T11:06:18Z</time>
      </trkpt>
      <trkpt lat="42.426211992278695" lon="1.462299032136798">
        <ele>832.15999999999997</ele>
        <time>2025-05-14T11:06:20Z</time>
      </trkpt>
      <trkpt lat="42.426273012533784" lon="1.462370026856661">
        <ele>832.63999999999999</ele>
        <time>2025-05-14T11:06:21Z</time>
      </trkpt>
      <trkpt lat="42.426321040838957" lon="1.462444961071014">
        <ele>833.12</ele>
        <time>2025-05-14T11:06:22Z</time>
      </trkpt>
      <trkpt lat="42.426364040002227" lon="1.462539006024599">
        <ele>833.12</ele>
        <time>2025-05-14T11:06:23Z</time>
      </trkpt>
      <trkpt lat="42.426436962559819" lon="1.462644031271339">
        <ele>833.60000000000002</ele>
        <time>2025-05-14T11:06:24Z</time>
      </trkpt>
      <trkpt lat="42.426522960886359" lon="1.462655011564493">
        <ele>833.60000000000002</ele>
        <time>2025-05-14T11:06:25Z</time>
      </trkpt>
      <trkpt lat="42.426614994183183" lon="1.462686024606228">
        <ele>833.60000000000002</ele>
        <time>2025-05-14T11:06:26Z</time>
      </trkpt>
      <trkpt lat="42.426708033308387" lon="1.462752996012569">
        <ele>834.08000000000004</ele>
        <time>2025-05-14T11:06:27Z</time>
      </trkpt>
      <trkpt lat="42.426810963079333" lon="1.462828014045954">
        <ele>834.08000000000004</ele>
        <time>2025-05-14T11:06:28Z</time>
      </trkpt>
      <trkpt lat="42.426921017467976" lon="1.46290697157383">
        <ele>834.08000000000004</ele>
        <time>2025-05-14T11:06:29Z</time>
      </trkpt>
      <trkpt lat="42.427020007744431" lon="1.463015014305711">
        <ele>834.55999999999995</ele>
        <time>2025-05-14T11:06:30Z</time>
      </trkpt>
      <trkpt lat="42.427114974707365" lon="1.463149040937424">
        <ele>834.55999999999995</ele>
        <time>2025-05-14T11:06:31Z</time>
      </trkpt>
      <trkpt lat="42.42721002548933" lon="1.463283989578486">
        <ele>834.55999999999995</ele>
        <time>2025-05-14T11:06:32Z</time>
      </trkpt>
      <trkpt lat="42.427829029038548" lon="1.464297026395798">
        <ele>835.03999999999996</ele>
        <time>2025-05-14T11:06:40Z</time>
      </trkpt>
      <trkpt lat="42.428034972399473" lon="1.464639008045197">
        <ele>835.51999999999998</ele>
        <time>2025-05-14T11:06:41Z</time>
      </trkpt>
      <trkpt lat="42.428185008466244" lon="1.464872024953365">
        <ele>835.51999999999998</ele>
        <time>2025-05-14T11:06:42Z</time>
      </trkpt>
      <trkpt lat="42.429258981719613" lon="1.466332990676165">
        <ele>837.92999999999995</ele>
        <time>2025-05-14T11:06:51Z</time>
      </trkpt>
      <trkpt lat="42.429375993087888" lon="1.466433992609382">
        <ele>838.88999999999999</ele>
        <time>2025-05-14T11:06:52Z</time>
      </trkpt>
      <trkpt lat="42.429502978920937" lon="1.466515967622399">
        <ele>839.37</ele>
        <time>2025-05-14T11:06:53Z</time>
      </trkpt>
      <trkpt lat="42.430036989971995" lon="1.466739010065794">
        <ele>842.25</ele>
        <time>2025-05-14T11:06:58Z</time>
      </trkpt>
      <trkpt lat="42.430128017440438" lon="1.46675200201571">
        <ele>842.25</ele>
        <time>2025-05-14T11:07:00Z</time>
      </trkpt>
      <trkpt lat="42.430320968851447" lon="1.466773962602019">
        <ele>842.25</ele>
        <time>2025-05-14T11:07:01Z</time>
      </trkpt>
      <trkpt lat="42.430465975776315" lon="1.466770023107529">
        <ele>842.25</ele>
        <time>2025-05-14T11:07:03Z</time>
      </trkpt>
      <trkpt lat="42.430465975776315" lon="1.466770023107529">
        <ele>842.25</ele>
        <time>2025-05-14T11:07:04Z</time>
      </trkpt>
      <trkpt lat="42.431070981547236" lon="1.466637002304196">
        <ele>846.10000000000002</ele>
        <time>2025-05-14T11:07:14Z</time>
      </trkpt>
      <trkpt lat="42.431343980133533" lon="1.466699028387666">
        <ele>848.01999999999998</ele>
        <time>2025-05-14T11:07:23Z</time>
      </trkpt>
      <trkpt lat="42.431368958204985" lon="1.466706991195679">
        <ele>848.98000000000002</ele>
        <time>2025-05-14T11:07:34Z</time>
      </trkpt>
      <trkpt lat="42.431368958204985" lon="1.466706991195679">
        <ele>848.5</ele>
        <time>2025-05-14T11:08:16Z</time>
      </trkpt>
      <trkpt lat="42.431368958204985" lon="1.466706991195679">
        <ele>848.98000000000002</ele>
        <time>2025-05-14T11:09:08Z</time>
      </trkpt>
      <trkpt lat="42.431368958204985" lon="1.466706991195679">
        <ele>849.46000000000004</ele>
        <time>2025-05-14T11:09:56Z</time>
      </trkpt>
      <trkpt lat="42.431368958204985" lon="1.466706991195679">
        <ele>848.98000000000002</ele>
        <time>2025-05-14T11:10:29Z</time>
      </trkpt>
      <trkpt lat="42.431368958204985" lon="1.466706991195679">
        <ele>848.98000000000002</ele>
        <time>2025-05-14T11:10:34Z</time>
      </trkpt>
      <trkpt lat="42.43142100982368" lon="1.466653011739254">
        <ele>848.98000000000002</ele>
        <time>2025-05-14T11:10:36Z</time>
      </trkpt>
      <trkpt lat="42.431430984288454" lon="1.466653011739254">
        <ele>848.5</ele>
        <time>2025-05-14T11:10:37Z</time>
      </trkpt>
      <trkpt lat="42.431430984288454" lon="1.466653011739254">
        <ele>848.5</ele>
        <time>2025-05-14T11:10:38Z</time>
      </trkpt>
      <trkpt lat="42.431473983451724" lon="1.466588973999023">
        <ele>848.01999999999998</ele>
        <time>2025-05-14T11:10:39Z</time>
      </trkpt>
      <trkpt lat="42.431535003706813" lon="1.46664303727448">
        <ele>847.05999999999995</ele>
        <time>2025-05-14T11:10:40Z</time>
      </trkpt>
      <trkpt lat="42.431571967899799" lon="1.466676983982325">
        <ele>846.58000000000004</ele>
        <time>2025-05-14T11:10:41Z</time>
      </trkpt>
      <trkpt lat="42.43161303922534" lon="1.466714031994343">
        <ele>846.10000000000002</ele>
        <time>2025-05-14T11:10:42Z</time>
      </trkpt>
      <trkpt lat="42.431688979268074" lon="1.466782009229064">
        <ele>846.10000000000002</ele>
        <time>2025-05-14T11:10:43Z</time>
      </trkpt>
      <trkpt lat="42.431697025895119" lon="1.46679500117898">
        <ele>845.62</ele>
        <time>2025-05-14T11:10:44Z</time>
      </trkpt>
      <trkpt lat="42.431801967322826" lon="1.466965992003679">
        <ele>844.17999999999995</ele>
        <time>2025-05-14T11:10:47Z</time>
      </trkpt>
      <trkpt lat="42.431884026154876" lon="1.467130025848746">
        <ele>842.25</ele>
        <time>2025-05-14T11:10:55Z</time>
      </trkpt>
      <trkpt lat="42.431901963427663" lon="1.467165984213352">
        <ele>841.76999999999998</ele>
        <time>2025-05-14T11:11:04Z</time>
      </trkpt>
      <trkpt lat="42.431932976469398" lon="1.467227004468441">
        <ele>841.28999999999996</ele>
        <time>2025-05-14T11:11:08Z</time>
      </trkpt>
      <trkpt lat="42.431943034753203" lon="1.467247037217021">
        <ele>841.28999999999996</ele>
        <time>2025-05-14T11:11:09Z</time>
      </trkpt>
      <trkpt lat="42.43196097202599" lon="1.467282995581627">
        <ele>841.28999999999996</ele>
        <time>2025-05-14T11:11:10Z</time>
      </trkpt>
      <trkpt lat="42.431948985904455" lon="1.467368993908167">
        <ele>841.28999999999996</ele>
        <time>2025-05-14T11:11:11Z</time>
      </trkpt>
      <trkpt lat="42.431978993117809" lon="1.46742096170783">
        <ele>840.80999999999995</ele>
        <time>2025-05-14T11:11:12Z</time>
      </trkpt>
      <trkpt lat="42.432057028636336" lon="1.467555994167924">
        <ele>840.33000000000004</ele>
        <time>2025-05-14T11:11:15Z</time>
      </trkpt>
      <trkpt lat="42.432082006707788" lon="1.467601004987955">
        <ele>840.33000000000004</ele>
        <time>2025-05-14T11:11:16Z</time>
      </trkpt>
      <trkpt lat="42.432107990607619" lon="1.467646015807986">
        <ele>839.85000000000002</ele>
        <time>2025-05-14T11:11:17Z</time>
      </trkpt>
      <trkpt lat="42.43212902918458" lon="1.467683985829353">
        <ele>839.85000000000002</ele>
        <time>2025-05-14T11:11:18Z</time>
      </trkpt>
      <trkpt lat="42.432145960628986" lon="1.467712987214327">
        <ele>839.37</ele>
        <time>2025-05-14T11:11:19Z</time>
      </trkpt>
      <trkpt lat="42.432160964235663" lon="1.467739976942539">
        <ele>839.37</ele>
        <time>2025-05-14T11:11:20Z</time>
      </trkpt>
      <trkpt lat="42.43217596784234" lon="1.467766966670752">
        <ele>839.37</ele>
        <time>2025-05-14T11:11:21Z</time>
      </trkpt>
      <trkpt lat="42.432190971449018" lon="1.467792028561235">
        <ele>839.37</ele>
        <time>2025-05-14T11:11:22Z</time>
      </trkpt>
      <trkpt lat="42.432284010574222" lon="1.467835027724505">
        <ele>839.37</ele>
        <time>2025-05-14T11:11:25Z</time>
      </trkpt>
      <trkpt lat="42.432353999465704" lon="1.467940974980593">
        <ele>839.37</ele>
        <time>2025-05-14T11:11:29Z</time>
      </trkpt>
      <trkpt lat="42.432491965591908" lon="1.468185978010297">
        <ele>838.40999999999997</ele>
        <time>2025-05-14T11:11:36Z</time>
      </trkpt>
      <trkpt lat="42.432427005842328" lon="1.468355040997267">
        <ele>838.40999999999997</ele>
        <time>2025-05-14T11:11:37Z</time>
      </trkpt>
      <trkpt lat="42.432529013603926" lon="1.468537012115121">
        <ele>836.96000000000004</ele>
        <time>2025-05-14T11:11:38Z</time>
      </trkpt>
      <trkpt lat="42.432737974449992" lon="1.46875100210309">
        <ele>837.45000000000005</ele>
        <time>2025-05-14T11:11:39Z</time>
      </trkpt>
      <trkpt lat="42.432801006361842" lon="1.468840017914772">
        <ele>837.92999999999995</ele>
        <time>2025-05-14T11:11:40Z</time>
      </trkpt>
      <trkpt lat="42.432850040495396" lon="1.468904977664352">
        <ele>838.88999999999999</ele>
        <time>2025-05-14T11:11:41Z</time>
      </trkpt>
      <trkpt lat="42.432976020500064" lon="1.469077980145812">
        <ele>842.73000000000002</ele>
        <time>2025-05-14T11:11:44Z</time>
      </trkpt>
      <trkpt lat="42.433359995484352" lon="1.469504032284021">
        <ele>845.62</ele>
        <time>2025-05-14T11:11:52Z</time>
      </trkpt>
      <trkpt lat="42.433437025174499" lon="1.469619031995535">
        <ele>846.58000000000004</ele>
        <time>2025-05-14T11:11:59Z</time>
      </trkpt>
      <trkpt lat="42.433437025174499" lon="1.469619031995535">
        <ele>847.53999999999996</ele>
        <time>2025-05-14T11:12:44Z</time>
      </trkpt>
      <trkpt lat="42.43361497297883" lon="1.469881972298026">
        <ele>851.38</ele>
        <time>2025-05-14T11:12:59Z</time>
      </trkpt>
      <trkpt lat="42.434125011786819" lon="1.470756037160754">
        <ele>851.38</ele>
        <time>2025-05-14T11:13:08Z</time>
      </trkpt>
      <trkpt lat="42.434660028666258" lon="1.471788017079234">
        <ele>853.30999999999995</ele>
        <time>2025-05-14T11:13:18Z</time>
      </trkpt>
      <trkpt lat="42.434986000880599" lon="1.472282968461514">
        <ele>853.78999999999996</ele>
        <time>2025-05-14T11:13:27Z</time>
      </trkpt>
      <trkpt lat="42.435071999207139" lon="1.472408026456833">
        <ele>853.78999999999996</ele>
        <time>2025-05-14T11:13:28Z</time>
      </trkpt>
      <trkpt lat="42.435229998081923" lon="1.47263802587986">
        <ele>851.38</ele>
        <time>2025-05-14T11:13:33Z</time>
      </trkpt>
      <trkpt lat="42.435335023328662" lon="1.472792001441121">
        <ele>850.41999999999996</ele>
        <time>2025-05-14T11:13:38Z</time>
      </trkpt>
      <trkpt lat="42.435357989743352" lon="1.472826031967998">
        <ele>850.41999999999996</ele>
        <time>2025-05-14T11:13:39Z</time>
      </trkpt>
      <trkpt lat="42.435383973643184" lon="1.472861990332604">
        <ele>850.41999999999996</ele>
        <time>2025-05-14T11:13:40Z</time>
      </trkpt>
      <trkpt lat="42.435424961149693" lon="1.472920998930931">
        <ele>850.89999999999998</ele>
        <time>2025-05-14T11:13:41Z</time>
      </trkpt>
      <trkpt lat="42.435478018596768" lon="1.472972966730595">
        <ele>850.89999999999998</ele>
        <time>2025-05-14T11:13:42Z</time>
      </trkpt>
      <trkpt lat="42.435536021366715" lon="1.473022000864148">
        <ele>850.89999999999998</ele>
        <time>2025-05-14T11:13:43Z</time>
      </trkpt>
      <trkpt lat="42.435596035793424" lon="1.473072962835431">
        <ele>851.38</ele>
        <time>2025-05-14T11:13:44Z</time>
      </trkpt>
      <trkpt lat="42.436100961640477" lon="1.473593981936574">
        <ele>852.83000000000004</ele>
        <time>2025-05-14T11:13:52Z</time>
      </trkpt>
      <trkpt lat="42.436154019087553" lon="1.473685009405017">
        <ele>852.83000000000004</ele>
        <time>2025-05-14T11:13:53Z</time>
      </trkpt>
      <trkpt lat="42.436210010200739" lon="1.473785005509853">
        <ele>852.83000000000004</ele>
        <time>2025-05-14T11:13:54Z</time>
      </trkpt>
      <trkpt lat="42.436262983828783" lon="1.473879972472787">
        <ele>852.83000000000004</ele>
        <time>2025-05-14T11:13:55Z</time>
      </trkpt>
      <trkpt lat="42.436309000477195" lon="1.473966976627708">
        <ele>852.35000000000002</ele>
        <time>2025-05-14T11:13:56Z</time>
      </trkpt>
      <trkpt lat="42.43634101934731" lon="1.474047023802996">
        <ele>852.35000000000002</ele>
        <time>2025-05-14T11:13:57Z</time>
      </trkpt>
      <trkpt lat="42.436369014903903" lon="1.474115001037717">
        <ele>852.35000000000002</ele>
        <time>2025-05-14T11:13:58Z</time>
      </trkpt>
      <trkpt lat="42.436324004083872" lon="1.474270988255739">
        <ele>852.35000000000002</ele>
        <time>2025-05-14T11:13:59Z</time>
      </trkpt>
      <trkpt lat="42.436335990205407" lon="1.474320022389293">
        <ele>852.83000000000004</ele>
        <time>2025-05-14T11:14:00Z</time>
      </trkpt>
      <trkpt lat="42.436357028782368" lon="1.47440199740231">
        <ele>852.83000000000004</ele>
        <time>2025-05-14T11:14:01Z</time>
      </trkpt>
      <trkpt lat="42.436443027108908" lon="1.474564019590616">
        <ele>852.83000000000004</ele>
        <time>2025-05-14T11:14:03Z</time>
      </trkpt>
      <trkpt lat="42.436459036543965" lon="1.474669966846705">
        <ele>852.83000000000004</ele>
        <time>2025-05-14T11:14:04Z</time>
      </trkpt>
      <trkpt lat="42.436478985473514" lon="1.474785972386599">
        <ele>852.83000000000004</ele>
        <time>2025-05-14T11:14:05Z</time>
      </trkpt>
      <trkpt lat="42.436628015711904" lon="1.475289976224303">
        <ele>853.30999999999995</ele>
        <time>2025-05-14T11:14:09Z</time>
      </trkpt>
      <trkpt lat="42.436677971854806" lon="1.475427020341158">
        <ele>853.30999999999995</ele>
        <time>2025-05-14T11:14:10Z</time>
      </trkpt>
      <trkpt lat="42.436739997938275" lon="1.475560963153839">
        <ele>853.30999999999995</ele>
        <time>2025-05-14T11:14:11Z</time>
      </trkpt>
      <trkpt lat="42.436739997938275" lon="1.475560963153839">
        <ele>853.30999999999995</ele>
        <time>2025-05-14T11:14:12Z</time>
      </trkpt>
      <trkpt lat="42.436902020126581" lon="1.475790040567517">
        <ele>854.26999999999998</ele>
        <time>2025-05-14T11:14:13Z</time>
      </trkpt>
      <trkpt lat="42.437003022059798" lon="1.475873021408916">
        <ele>854.26999999999998</ele>
        <time>2025-05-14T11:14:14Z</time>
      </trkpt>
      <trkpt lat="42.437116010114551" lon="1.475956002250314">
        <ele>854.75</ele>
        <time>2025-05-14T11:14:15Z</time>
      </trkpt>
      <trkpt lat="42.437227992340922" lon="1.476036971434951">
        <ele>854.75</ele>
        <time>2025-05-14T11:14:16Z</time>
      </trkpt>
      <trkpt lat="42.43816701695323" lon="1.476410971954465">
        <ele>856.19000000000005</ele>
        <time>2025-05-14T11:14:25Z</time>
      </trkpt>
      <trkpt lat="42.438347982242703" lon="1.47661498747766">
        <ele>856.66999999999996</ele>
        <time>2025-05-14T11:14:27Z</time>
      </trkpt>
      <trkpt lat="42.438361980021" lon="1.476609958335757">
        <ele>856.66999999999996</ele>
        <time>2025-05-14T11:14:28Z</time>
      </trkpt>
      <trkpt lat="42.43851101025939" lon="1.476466963067651">
        <ele>856.66999999999996</ele>
        <time>2025-05-14T11:14:29Z</time>
      </trkpt>
      <trkpt lat="42.438612012192607" lon="1.476480038836598">
        <ele>857.14999999999998</ele>
        <time>2025-05-14T11:14:30Z</time>
      </trkpt>
      <trkpt lat="42.438719971105456" lon="1.476509962230921">
        <ele>857.14999999999998</ele>
        <time>2025-05-14T11:14:31Z</time>
      </trkpt>
      <trkpt lat="42.439787993207574" lon="1.476941965520382">
        <ele>862.91999999999996</ele>
        <time>2025-05-14T11:14:40Z</time>
      </trkpt>
      <trkpt lat="42.441365970298648" lon="1.477922983467579">
        <ele>874.46000000000004</ele>
        <time>2025-05-14T11:14:52Z</time>
      </trkpt>
      <trkpt lat="42.441487004980445" lon="1.478060027584434">
        <ele>874.46000000000004</ele>
        <time>2025-05-14T11:14:53Z</time>
      </trkpt>
      <trkpt lat="42.441608961671591" lon="1.478196987882257">
        <ele>874.46000000000004</ele>
        <time>2025-05-14T11:14:54Z</time>
      </trkpt>
      <trkpt lat="42.442257972434163" lon="1.47921203635633">
        <ele>872.04999999999995</ele>
        <time>2025-05-14T11:15:00Z</time>
      </trkpt>
      <trkpt lat="42.442397028207779" lon="1.479342961683869">
        <ele>871.57000000000005</ele>
        <time>2025-05-14T11:15:01Z</time>
      </trkpt>
      <trkpt lat="42.442540023475885" lon="1.47947003133595">
        <ele>871.09000000000003</ele>
        <time>2025-05-14T11:15:02Z</time>
      </trkpt>
      <trkpt lat="42.443479970097542" lon="1.480392962694168">
        <ele>869.64999999999998</ele>
        <time>2025-05-14T11:15:09Z</time>
      </trkpt>
      <trkpt lat="42.444259990006685" lon="1.481279013678432">
        <ele>870.61000000000001</ele>
        <time>2025-05-14T11:15:17Z</time>
      </trkpt>
      <trkpt lat="42.445165989920497" lon="1.481853006407619">
        <ele>870.61000000000001</ele>
        <time>2025-05-14T11:15:26Z</time>
      </trkpt>
      <trkpt lat="42.445362964645028" lon="1.481915032491088">
        <ele>871.09000000000003</ele>
        <time>2025-05-14T11:15:28Z</time>
      </trkpt>
      <trkpt lat="42.446319004520774" lon="1.482129022479057">
        <ele>875.41999999999996</ele>
        <time>2025-05-14T11:15:37Z</time>
      </trkpt>
      <trkpt lat="42.446416988968849" lon="1.482142014428973">
        <ele>875.89999999999998</ele>
        <time>2025-05-14T11:15:38Z</time>
      </trkpt>
      <trkpt lat="42.447481993585825" lon="1.482123993337154">
        <ele>877.82000000000005</ele>
        <time>2025-05-14T11:15:46Z</time>
      </trkpt>
      <trkpt lat="42.447789022698998" lon="1.482201023027301">
        <ele>878.29999999999995</ele>
        <time>2025-05-14T11:15:48Z</time>
      </trkpt>
      <trkpt lat="42.447936041280627" lon="1.482237987220287">
        <ele>878.77999999999997</ele>
        <time>2025-05-14T11:15:49Z</time>
      </trkpt>
      <trkpt lat="42.44809202849865" lon="1.482279980555177">
        <ele>879.25999999999999</ele>
        <time>2025-05-14T11:15:50Z</time>
      </trkpt>
      <trkpt lat="42.44863098487258" lon="1.482721036300063">
        <ele>880.22000000000003</ele>
        <time>2025-05-14T11:15:54Z</time>
      </trkpt>
      <trkpt lat="42.448751013725996" lon="1.482860008254647">
        <ele>880.22000000000003</ele>
        <time>2025-05-14T11:15:55Z</time>
      </trkpt>
      <trkpt lat="42.448852015659213" lon="1.483024964109063">
        <ele>880.71000000000004</ele>
        <time>2025-05-14T11:15:56Z</time>
      </trkpt>
      <trkpt lat="42.449895981699228" lon="1.484793964773417">
        <ele>888.88</ele>
        <time>2025-05-14T11:16:06Z</time>
      </trkpt>
      <trkpt lat="42.450617998838425" lon="1.485713962465525">
        <ele>896.09000000000003</ele>
        <time>2025-05-14T11:16:13Z</time>
      </trkpt>
      <trkpt lat="42.451198026537895" lon="1.486311005428433">
        <ele>898.97000000000003</ele>
        <time>2025-05-14T11:16:18Z</time>
      </trkpt>
      <trkpt lat="42.452102014794946" lon="1.486708978191018">
        <ele>901.85000000000002</ele>
        <time>2025-05-14T11:16:27Z</time>
      </trkpt>
      <trkpt lat="42.452410971745849" lon="1.486834958195686">
        <ele>901.37</ele>
        <time>2025-05-14T11:16:31Z</time>
      </trkpt>
      <trkpt lat="42.452480960637331" lon="1.486974013969302">
        <ele>901.37</ele>
        <time>2025-05-14T11:16:32Z</time>
      </trkpt>
      <trkpt lat="42.452480960637331" lon="1.486974013969302">
        <ele>900.88999999999999</ele>
        <time>2025-05-14T11:16:33Z</time>
      </trkpt>
      <trkpt lat="42.452522031962872" lon="1.487024975940585">
        <ele>900.88999999999999</ele>
        <time>2025-05-14T11:16:34Z</time>
      </trkpt>
      <trkpt lat="42.452566958963871" lon="1.487080967053771">
        <ele>900.88999999999999</ele>
        <time>2025-05-14T11:16:35Z</time>
      </trkpt>
      <trkpt lat="42.452619010582566" lon="1.487080967053771">
        <ele>900.88999999999999</ele>
        <time>2025-05-14T11:16:36Z</time>
      </trkpt>
      <trkpt lat="42.452673995867372" lon="1.487080967053771">
        <ele>900.40999999999997</ele>
        <time>2025-05-14T11:16:37Z</time>
      </trkpt>
      <trkpt lat="42.452673995867372" lon="1.487080967053771">
        <ele>900.40999999999997</ele>
        <time>2025-05-14T11:16:38Z</time>
      </trkpt>
      <trkpt lat="42.452815985307097" lon="1.487005027011037">
        <ele>900.40999999999997</ele>
        <time>2025-05-14T11:16:39Z</time>
      </trkpt>
      <trkpt lat="42.452880023047328" lon="1.487024975940585">
        <ele>900.40999999999997</ele>
        <time>2025-05-14T11:16:40Z</time>
      </trkpt>
      <trkpt lat="42.453309008851647" lon="1.487136036157608">
        <ele>904.25999999999999</ele>
        <time>2025-05-14T11:16:46Z</time>
      </trkpt>
      <trkpt lat="42.45434601791203" lon="1.486929003149271">
        <ele>902.82000000000005</ele>
        <time>2025-05-14T11:16:56Z</time>
      </trkpt>
      <trkpt lat="42.45445498265326" lon="1.486895978450775">
        <ele>902.82000000000005</ele>
        <time>2025-05-14T11:16:57Z</time>
      </trkpt>
      <trkpt lat="42.454565959051251" lon="1.48686203174293">
        <ele>902.33000000000004</ele>
        <time>2025-05-14T11:16:58Z</time>
      </trkpt>
      <trkpt lat="42.455488974228501" lon="1.486498005688191">
        <ele>903.77999999999997</ele>
        <time>2025-05-14T11:17:06Z</time>
      </trkpt>
      <trkpt lat="42.455619983375072" lon="1.486490964889526">
        <ele>904.25999999999999</ele>
        <time>2025-05-14T11:17:07Z</time>
      </trkpt>
      <trkpt lat="42.455757027491927" lon="1.486484007909894">
        <ele>904.74000000000001</ele>
        <time>2025-05-14T11:17:08Z</time>
      </trkpt>
      <trkpt lat="42.455890970304608" lon="1.486492976546288">
        <ele>905.22000000000003</ele>
        <time>2025-05-14T11:17:09Z</time>
      </trkpt>
      <trkpt lat="42.456030026078224" lon="1.4865199662745">
        <ele>905.70000000000005</ele>
        <time>2025-05-14T11:17:10Z</time>
      </trkpt>
      <trkpt lat="42.456170003861189" lon="1.486550979316235">
        <ele>906.17999999999995</ele>
        <time>2025-05-14T11:17:11Z</time>
      </trkpt>
      <trkpt lat="42.457026969641447" lon="1.486849039793015">
        <ele>908.58000000000004</ele>
        <time>2025-05-14T11:17:17Z</time>
      </trkpt>
      <trkpt lat="42.45799801312387" lon="1.487597962841392">
        <ele>910.99000000000001</ele>
        <time>2025-05-14T11:17:25Z</time>
      </trkpt>
      <trkpt lat="42.458318034186959" lon="1.487917983904481">
        <ele>910.50999999999999</ele>
        <time>2025-05-14T11:17:29Z</time>
      </trkpt>
      <trkpt lat="42.458361033350229" lon="1.488111019134522">
        <ele>910.50999999999999</ele>
        <time>2025-05-14T11:17:30Z</time>
      </trkpt>
      <trkpt lat="42.45851400308311" lon="1.488091992214322">
        <ele>910.50999999999999</ele>
        <time>2025-05-14T11:17:31Z</time>
      </trkpt>
      <trkpt lat="42.458610981702805" lon="1.488168016076088">
        <ele>910.50999999999999</ele>
        <time>2025-05-14T11:17:32Z</time>
      </trkpt>
      <trkpt lat="42.458718018606305" lon="1.488250996917486">
        <ele>910.50999999999999</ele>
        <time>2025-05-14T11:17:33Z</time>
      </trkpt>
      <trkpt lat="42.458830000832677" lon="1.488338001072407">
        <ele>910.50999999999999</ele>
        <time>2025-05-14T11:17:34Z</time>
      </trkpt>
      <trkpt lat="42.45894500054419" lon="1.48843196220696">
        <ele>910.02999999999997</ele>
        <time>2025-05-14T11:17:35Z</time>
      </trkpt>
      <trkpt lat="42.459797021001577" lon="1.489104023203254">
        <ele>906.17999999999995</ele>
        <time>2025-05-14T11:17:43Z</time>
      </trkpt>
      <trkpt lat="42.460976019501686" lon="1.489811958745122">
        <ele>902.33000000000004</ele>
        <time>2025-05-14T11:17:54Z</time>
      </trkpt>
      <trkpt lat="42.461236026138067" lon="1.490041958168149">
        <ele>902.33000000000004</ele>
        <time>2025-05-14T11:17:56Z</time>
      </trkpt>
      <trkpt lat="42.461365023627877" lon="1.490171039476991">
        <ele>903.77999999999997</ele>
        <time>2025-05-14T11:17:59Z</time>
      </trkpt>
      <trkpt lat="42.461579013615847" lon="1.490331972017884">
        <ele>904.25999999999999</ele>
        <time>2025-05-14T11:18:00Z</time>
      </trkpt>
      <trkpt lat="42.461580019444227" lon="1.490331972017884">
        <ele>904.74000000000001</ele>
        <time>2025-05-14T11:18:01Z</time>
      </trkpt>
      <trkpt lat="42.46169401332736" lon="1.490381006151438">
        <ele>905.22000000000003</ele>
        <time>2025-05-14T11:18:02Z</time>
      </trkpt>
      <trkpt lat="42.46192803606391" lon="1.490421993657947">
        <ele>905.70000000000005</ele>
        <time>2025-05-14T11:18:03Z</time>
      </trkpt>
      <trkpt lat="42.462044963613153" lon="1.490392992272973">
        <ele>905.70000000000005</ele>
        <time>2025-05-14T11:18:04Z</time>
      </trkpt>
      <trkpt lat="42.462162980809808" lon="1.490362985059619">
        <ele>906.17999999999995</ele>
        <time>2025-05-14T11:18:05Z</time>
      </trkpt>
      <trkpt lat="42.462853984907269" lon="1.490182019770145">
        <ele>908.58000000000004</ele>
        <time>2025-05-14T11:18:12Z</time>
      </trkpt>
      <trkpt lat="42.462917016819119" lon="1.490166010335088">
        <ele>909.05999999999995</ele>
        <time>2025-05-14T11:18:13Z</time>
      </trkpt>
      <trkpt lat="42.462962027639151" lon="1.490154024213553">
        <ele>910.50999999999999</ele>
        <time>2025-05-14T11:18:14Z</time>
      </trkpt>
      <trkpt lat="42.462994968518615" lon="1.490144971758127">
        <ele>911.47000000000003</ele>
        <time>2025-05-14T11:18:15Z</time>
      </trkpt>
      <trkpt lat="42.463013995438814" lon="1.490140026435256">
        <ele>912.90999999999997</ele>
        <time>2025-05-14T11:18:16Z</time>
      </trkpt>
      <trkpt lat="42.463013995438814" lon="1.490140026435256">
        <ele>913.87</ele>
        <time>2025-05-14T11:18:27Z</time>
      </trkpt>
      <trkpt lat="42.463013995438814" lon="1.490140026435256">
        <ele>914.83000000000004</ele>
        <time>2025-05-14T11:19:08Z</time>
      </trkpt>
      <trkpt lat="42.463208958506584" lon="1.490094009786844">
        <ele>915.78999999999996</ele>
        <time>2025-05-14T11:19:33Z</time>
      </trkpt>
      <trkpt lat="42.463286994025111" lon="1.490074982866645">
        <ele>915.78999999999996</ele>
        <time>2025-05-14T11:19:34Z</time>
      </trkpt>
      <trkpt lat="42.464145971462131" lon="1.489881025627255">
        <ele>914.83000000000004</ele>
        <time>2025-05-14T11:19:42Z</time>
      </trkpt>
      <trkpt lat="42.464797999709845" lon="1.48982796818018">
        <ele>912.90999999999997</ele>
        <time>2025-05-14T11:19:48Z</time>
      </trkpt>
      <trkpt lat="42.464971002191305" lon="1.489897035062313">
        <ele>912.42999999999995</ele>
        <time>2025-05-14T11:19:50Z</time>
      </trkpt>
      <trkpt lat="42.465061023831367" lon="1.48995696566999">
        <ele>912.90999999999997</ele>
        <time>2025-05-14T11:19:51Z</time>
      </trkpt>
      <trkpt lat="42.465139981359243" lon="1.490027960389853">
        <ele>912.90999999999997</ele>
        <time>2025-05-14T11:19:52Z</time>
      </trkpt>
      <trkpt lat="42.465226985514164" lon="1.49010700173676">
        <ele>913.38999999999999</ele>
        <time>2025-05-14T11:19:53Z</time>
      </trkpt>
      <trkpt lat="42.465284988284111" lon="1.49019199423492">
        <ele>913.87</ele>
        <time>2025-05-14T11:19:54Z</time>
      </trkpt>
      <trkpt lat="42.465353971347213" lon="1.490291990339756">
        <ele>913.87</ele>
        <time>2025-05-14T11:19:55Z</time>
      </trkpt>
      <trkpt lat="42.465420020744205" lon="1.49038796313107">
        <ele>914.35000000000002</ele>
        <time>2025-05-14T11:19:56Z</time>
      </trkpt>
      <trkpt lat="42.465485986322165" lon="1.490485025569797">
        <ele>913.87</ele>
        <time>2025-05-14T11:19:57Z</time>
      </trkpt>
      <trkpt lat="42.465784968808293" lon="1.490904958918691">
        <ele>913.87</ele>
        <time>2025-05-14T11:20:01Z</time>
      </trkpt>
      <trkpt lat="42.466131979599595" lon="1.491391025483608">
        <ele>915.30999999999995</ele>
        <time>2025-05-14T11:20:08Z</time>
      </trkpt>
      <trkpt lat="42.466256031766534" lon="1.491564027965069">
        <ele>915.78999999999996</ele>
        <time>2025-05-14T11:20:12Z</time>
      </trkpt>
      <trkpt lat="42.466376982629299" lon="1.491725966334343">
        <ele>916.75</ele>
        <time>2025-05-14T11:20:15Z</time>
      </trkpt>
      <trkpt lat="42.466565994545817" lon="1.491864016279578">
        <ele>917.72000000000003</ele>
        <time>2025-05-14T11:20:18Z</time>
      </trkpt>
      <trkpt lat="42.466627014800906" lon="1.491905003786087">
        <ele>918.67999999999995</ele>
        <time>2025-05-14T11:20:19Z</time>
      </trkpt>
      <trkpt lat="42.466683005914092" lon="1.491940962150693">
        <ele>919.63999999999999</ele>
        <time>2025-05-14T11:20:20Z</time>
      </trkpt>
      <trkpt lat="42.466740002855659" lon="1.491973986849189">
        <ele>920.60000000000002</ele>
        <time>2025-05-14T11:20:21Z</time>
      </trkpt>
      <trkpt lat="42.466787025332451" lon="1.491999970749021">
        <ele>921.08000000000004</ele>
        <time>2025-05-14T11:20:22Z</time>
      </trkpt>
      <trkpt lat="42.466878974810243" lon="1.492101978510618">
        <ele>922.51999999999998</ele>
        <time>2025-05-14T11:20:24Z</time>
      </trkpt>
      <trkpt lat="42.466878974810243" lon="1.492101978510618">
        <ele>923.48000000000002</ele>
        <time>2025-05-14T11:20:25Z</time>
      </trkpt>
      <trkpt lat="42.466878974810243" lon="1.492101978510618">
        <ele>924.45000000000005</ele>
        <time>2025-05-14T11:20:26Z</time>
      </trkpt>
      <trkpt lat="42.46693798340857" lon="1.492101978510618">
        <ele>925.40999999999997</ele>
        <time>2025-05-14T11:20:28Z</time>
      </trkpt>
      <trkpt lat="42.466995986178517" lon="1.492101978510618">
        <ele>925.88999999999999</ele>
        <time>2025-05-14T11:20:29Z</time>
      </trkpt>
      <trkpt lat="42.467061029747128" lon="1.491994019597769">
        <ele>925.88999999999999</ele>
        <time>2025-05-14T11:20:30Z</time>
      </trkpt>
      <trkpt lat="42.467073015868664" lon="1.491952026262879">
        <ele>926.37</ele>
        <time>2025-05-14T11:20:31Z</time>
      </trkpt>
      <trkpt lat="42.467071004211903" lon="1.491733007133007">
        <ele>926.85000000000002</ele>
        <time>2025-05-14T11:20:32Z</time>
      </trkpt>
      <trkpt lat="42.467120038345456" lon="1.491677016019821">
        <ele>927.33000000000004</ele>
        <time>2025-05-14T11:20:33Z</time>
      </trkpt>
      <trkpt lat="42.467165971174836" lon="1.491623958572745">
        <ele>927.80999999999995</ele>
        <time>2025-05-14T11:20:34Z</time>
      </trkpt>
      <trkpt lat="42.467179968953133" lon="1.4916090387851">
        <ele>927.80999999999995</ele>
        <time>2025-05-14T11:20:35Z</time>
      </trkpt>
      <trkpt lat="42.467288011685014" lon="1.491584982722998">
        <ele>928.28999999999996</ele>
        <time>2025-05-14T11:20:36Z</time>
      </trkpt>
      <trkpt lat="42.467371998354793" lon="1.49156603962183">
        <ele>928.28999999999996</ele>
        <time>2025-05-14T11:20:37Z</time>
      </trkpt>
      <trkpt lat="42.467465959489346" lon="1.49156603962183">
        <ele>928.28999999999996</ele>
        <time>2025-05-14T11:20:38Z</time>
      </trkpt>
      <trkpt lat="42.468341030180454" lon="1.491701994091272">
        <ele>929.25</ele>
        <time>2025-05-14T11:20:45Z</time>
      </trkpt>
      <trkpt lat="42.469327999278903" lon="1.492003994062543">
        <ele>931.16999999999996</ele>
        <time>2025-05-14T11:20:52Z</time>
      </trkpt>
      <trkpt lat="42.469483986496925" lon="1.492016986012459">
        <ele>931.64999999999998</ele>
        <time>2025-05-14T11:20:53Z</time>
      </trkpt>
      <trkpt lat="42.469867961481214" lon="1.492013968527317">
        <ele>933.10000000000002</ele>
        <time>2025-05-14T11:20:55Z</time>
      </trkpt>
      <trkpt lat="42.474231999367476" lon="1.490553002804518">
        <ele>934.05999999999995</ele>
        <time>2025-05-14T11:21:24Z</time>
      </trkpt>
      <trkpt lat="42.474738014861941" lon="1.490800017490983">
        <ele>932.62</ele>
        <time>2025-05-14T11:21:28Z</time>
      </trkpt>
      <trkpt lat="42.474872963503003" lon="1.490818038582802">
        <ele>932.62</ele>
        <time>2025-05-14T11:21:29Z</time>
      </trkpt>
      <trkpt lat="42.475001038983464" lon="1.490835975855589">
        <ele>933.10000000000002</ele>
        <time>2025-05-14T11:21:30Z</time>
      </trkpt>
      <trkpt lat="42.475161971524358" lon="1.49085802026093">
        <ele>934.53999999999996</ele>
        <time>2025-05-14T11:21:31Z</time>
      </trkpt>
      <trkpt lat="42.475269008427858" lon="1.49085802026093">
        <ele>935.01999999999998</ele>
        <time>2025-05-14T11:21:32Z</time>
      </trkpt>
      <trkpt lat="42.475346960127354" lon="1.490851985290647">
        <ele>935.5</ele>
        <time>2025-05-14T11:21:33Z</time>
      </trkpt>
      <trkpt lat="42.476212978363037" lon="1.490701027214527">
        <ele>935.5</ele>
        <time>2025-05-14T11:21:42Z</time>
      </trkpt>
      <trkpt lat="42.476272992789745" lon="1.490680994465947">
        <ele>935.98000000000002</ele>
        <time>2025-05-14T11:21:43Z</time>
      </trkpt>
      <trkpt lat="42.476319009438157" lon="1.490666996687651">
        <ele>936.46000000000004</ele>
        <time>2025-05-14T11:21:44Z</time>
      </trkpt>
      <trkpt lat="42.476371983066201" lon="1.490650987252593">
        <ele>937.41999999999996</ele>
        <time>2025-05-14T11:21:45Z</time>
      </trkpt>
      <trkpt lat="42.476470973342657" lon="1.49062198586762">
        <ele>937.89999999999998</ele>
        <time>2025-05-14T11:21:46Z</time>
      </trkpt>
      <trkpt lat="42.476525958627462" lon="1.49062198586762">
        <ele>938.86000000000001</ele>
        <time>2025-05-14T11:21:47Z</time>
      </trkpt>
      <trkpt lat="42.476598965004086" lon="1.49062198586762">
        <ele>939.83000000000004</ele>
        <time>2025-05-14T11:21:48Z</time>
      </trkpt>
      <trkpt lat="42.476680018007755" lon="1.49062198586762">
        <ele>940.78999999999996</ele>
        <time>2025-05-14T11:21:49Z</time>
      </trkpt>
      <trkpt lat="42.477429024875164" lon="1.490501035004854">
        <ele>943.19000000000005</ele>
        <time>2025-05-14T11:21:56Z</time>
      </trkpt>
      <trkpt lat="42.478486988693476" lon="1.48991103284061">
        <ele>941.26999999999998</ele>
        <time>2025-05-14T11:22:06Z</time>
      </trkpt>
      <trkpt lat="42.479644026607275" lon="1.489382972940803">
        <ele>940.30999999999995</ele>
        <time>2025-05-14T11:22:16Z</time>
      </trkpt>
      <trkpt lat="42.479777969419956" lon="1.489368975162506">
        <ele>940.78999999999996</ele>
        <time>2025-05-14T11:22:17Z</time>
      </trkpt>
      <trkpt lat="42.479906966909766" lon="1.489359000697732">
        <ele>941.26999999999998</ele>
        <time>2025-05-14T11:22:18Z</time>
      </trkpt>
      <trkpt lat="42.480036970227957" lon="1.489366963505745">
        <ele>941.75</ele>
        <time>2025-05-14T11:22:19Z</time>
      </trkpt>
      <trkpt lat="42.480174014344811" lon="1.489384984597564">
        <ele>941.75</ele>
        <time>2025-05-14T11:22:20Z</time>
      </trkpt>
      <trkpt lat="42.481218986213207" lon="1.489538960158825">
        <ele>943.66999999999996</ele>
        <time>2025-05-14T11:22:28Z</time>
      </trkpt>
      <trkpt lat="42.482358003035188" lon="1.48995797149837">
        <ele>946.07000000000005</ele>
        <time>2025-05-14T11:22:37Z</time>
      </trkpt>
      <trkpt lat="42.483663987368345" lon="1.490709995850921">
        <ele>951.36000000000001</ele>
        <time>2025-05-14T11:22:48Z</time>
      </trkpt>
      <trkpt lat="42.483923994004726" lon="1.490888027474284">
        <ele>952.79999999999995</ele>
        <time>2025-05-14T11:22:52Z</time>
      </trkpt>
      <trkpt lat="42.484131027013063" lon="1.49102901108563">
        <ele>953.27999999999997</ele>
        <time>2025-05-14T11:22:53Z</time>
      </trkpt>
      <trkpt lat="42.484144018962979" lon="1.491088019683957">
        <ele>952.79999999999995</ele>
        <time>2025-05-14T11:22:54Z</time>
      </trkpt>
      <trkpt lat="42.484195986762643" lon="1.491330005228519">
        <ele>953.27999999999997</ele>
        <time>2025-05-14T11:22:56Z</time>
      </trkpt>
      <trkpt lat="42.484234040603042" lon="1.49137401022017">
        <ele>953.27999999999997</ele>
        <time>2025-05-14T11:22:57Z</time>
      </trkpt>
      <trkpt lat="42.48442598618567" lon="1.491593029350042">
        <ele>954.73000000000002</ele>
        <time>2025-05-14T11:23:00Z</time>
      </trkpt>
      <trkpt lat="42.484495975077152" lon="1.491672992706299">
        <ele>955.21000000000004</ele>
        <time>2025-05-14T11:23:01Z</time>
      </trkpt>
      <trkpt lat="42.484527993947268" lon="1.491767959669232">
        <ele>955.21000000000004</ele>
        <time>2025-05-14T11:23:02Z</time>
      </trkpt>
      <trkpt lat="42.484561018645763" lon="1.491866027936339">
        <ele>955.69000000000005</ele>
        <time>2025-05-14T11:23:03Z</time>
      </trkpt>
      <trkpt lat="42.484573004767299" lon="1.491950014606118">
        <ele>956.16999999999996</ele>
        <time>2025-05-14T11:23:04Z</time>
      </trkpt>
      <trkpt lat="42.484589014202356" lon="1.492051016539335">
        <ele>956.16999999999996</ele>
        <time>2025-05-14T11:23:05Z</time>
      </trkpt>
      <trkpt lat="42.484621033072472" lon="1.492156963795424">
        <ele>956.64999999999998</ele>
        <time>2025-05-14T11:23:06Z</time>
      </trkpt>
      <trkpt lat="42.48474801890552" lon="1.492279004305601">
        <ele>957.61000000000001</ele>
        <time>2025-05-14T11:23:08Z</time>
      </trkpt>
      <trkpt lat="42.484780037775636" lon="1.492372965440154">
        <ele>957.61000000000001</ele>
        <time>2025-05-14T11:23:09Z</time>
      </trkpt>
      <trkpt lat="42.48481398448348" lon="1.492474973201752">
        <ele>957.61000000000001</ele>
        <time>2025-05-14T11:23:10Z</time>
      </trkpt>
      <trkpt lat="42.484858995303512" lon="1.492576980963349">
        <ele>958.09000000000003</ele>
        <time>2025-05-14T11:23:11Z</time>
      </trkpt>
      <trkpt lat="42.484912974759936" lon="1.492688963189721">
        <ele>958.09000000000003</ele>
        <time>2025-05-14T11:23:12Z</time>
      </trkpt>
      <trkpt lat="42.484968965873122" lon="1.492808992043138">
        <ele>958.09000000000003</ele>
        <time>2025-05-14T11:23:13Z</time>
      </trkpt>
      <trkpt lat="42.48575602658093" lon="1.493992013856769">
        <ele>960.49000000000001</ele>
        <time>2025-05-14T11:23:22Z</time>
      </trkpt>
      <trkpt lat="42.486350974068046" lon="1.49455402046442">
        <ele>961.46000000000004</ele>
        <time>2025-05-14T11:23:27Z</time>
      </trkpt>
      <trkpt lat="42.486476032063365" lon="1.494638007134199">
        <ele>961.46000000000004</ele>
        <time>2025-05-14T11:23:28Z</time>
      </trkpt>
      <trkpt lat="42.486609974876046" lon="1.494696009904146">
        <ele>961.46000000000004</ele>
        <time>2025-05-14T11:23:29Z</time>
      </trkpt>
      <trkpt lat="42.486865036189556" lon="1.494759963825345">
        <ele>961.94000000000005</ele>
        <time>2025-05-14T11:23:31Z</time>
      </trkpt>
      <trkpt lat="42.48698397539556" lon="1.494783014059067">
        <ele>962.41999999999996</ele>
        <time>2025-05-14T11:23:32Z</time>
      </trkpt>
      <trkpt lat="42.487096041440964" lon="1.494773961603642">
        <ele>962.89999999999998</ele>
        <time>2025-05-14T11:23:33Z</time>
      </trkpt>
      <trkpt lat="42.487778998911381" lon="1.494719982147217">
        <ele>966.25999999999999</ele>
        <time>2025-05-14T11:23:39Z</time>
      </trkpt>
      <trkpt lat="42.487900033593178" lon="1.494793994352222">
        <ele>967.22000000000003</ele>
        <time>2025-05-14T11:23:40Z</time>
      </trkpt>
      <trkpt lat="42.488002963364124" lon="1.494857026264072">
        <ele>967.70000000000005</ele>
        <time>2025-05-14T11:23:41Z</time>
      </trkpt>
      <trkpt lat="42.488101031631231" lon="1.494913017377257">
        <ele>968.17999999999995</ele>
        <time>2025-05-14T11:23:42Z</time>
      </trkpt>
      <trkpt lat="42.488187029957771" lon="1.494999015703797">
        <ele>969.14999999999998</ele>
        <time>2025-05-14T11:23:43Z</time>
      </trkpt>
      <trkpt lat="42.488281996920705" lon="1.495084008201957">
        <ele>970.11000000000001</ele>
        <time>2025-05-14T11:23:44Z</time>
      </trkpt>
      <trkpt lat="42.488366989418864" lon="1.495189033448696">
        <ele>971.07000000000005</ele>
        <time>2025-05-14T11:23:45Z</time>
      </trkpt>
      <trkpt lat="42.488451981917024" lon="1.495294980704784">
        <ele>972.02999999999997</ele>
        <time>2025-05-14T11:23:46Z</time>
      </trkpt>
      <trkpt lat="42.488622972741723" lon="1.495493967086077">
        <ele>973.95000000000005</ele>
        <time>2025-05-14T11:23:48Z</time>
      </trkpt>
      <trkpt lat="42.488721963018179" lon="1.495576025918126">
        <ele>974.90999999999997</ele>
        <time>2025-05-14T11:23:49Z</time>
      </trkpt>
      <trkpt lat="42.488927990198135" lon="1.495745005086064">
        <ele>976.36000000000001</ele>
        <time>2025-05-14T11:23:51Z</time>
      </trkpt>
      <trkpt lat="42.489028992131352" lon="1.495827985927463">
        <ele>977.32000000000005</ele>
        <time>2025-05-14T11:23:52Z</time>
      </trkpt>
      <trkpt lat="42.489544982090592" lon="1.496252026408911">
        <ele>979.72000000000003</ele>
        <time>2025-05-14T11:23:57Z</time>
      </trkpt>
      <trkpt lat="42.489649001508951" lon="1.4962940197438">
        <ele>980.20000000000005</ele>
        <time>2025-05-14T11:23:58Z</time>
      </trkpt>
      <trkpt lat="42.489758972078562" lon="1.496330983936787">
        <ele>980.20000000000005</ele>
        <time>2025-05-14T11:23:59Z</time>
      </trkpt>
      <trkpt lat="42.48986198566854" lon="1.496351016685367">
        <ele>981.15999999999997</ele>
        <time>2025-05-14T11:24:00Z</time>
      </trkpt>
      <trkpt lat="42.489972962066531" lon="1.496351016685367">
        <ele>981.63999999999999</ele>
        <time>2025-05-14T11:24:01Z</time>
      </trkpt>
      <trkpt lat="42.490950040519238" lon="1.496392004191876">
        <ele>989.80999999999995</ele>
        <time>2025-05-14T11:24:09Z</time>
      </trkpt>
      <trkpt lat="42.491040984168649" lon="1.496414970606566">
        <ele>990.29999999999995</ele>
        <time>2025-05-14T11:24:10Z</time>
      </trkpt>
      <trkpt lat="42.491170987486839" lon="1.496496023610234">
        <ele>990.77999999999997</ele>
        <time>2025-05-14T11:24:11Z</time>
      </trkpt>
      <trkpt lat="42.491260003298521" lon="1.496586967259646">
        <ele>990.77999999999997</ele>
        <time>2025-05-14T11:24:12Z</time>
      </trkpt>
      <trkpt lat="42.491341978311539" lon="1.496699033305049">
        <ele>991.25999999999999</ele>
        <time>2025-05-14T11:24:13Z</time>
      </trkpt>
      <trkpt lat="42.491424037143588" lon="1.496811015531421">
        <ele>991.74000000000001</ele>
        <time>2025-05-14T11:24:14Z</time>
      </trkpt>
      <trkpt lat="42.491501988843083" lon="1.496930038556457">
        <ele>992.22000000000003</ele>
        <time>2025-05-14T11:24:15Z</time>
      </trkpt>
      <trkpt lat="42.492362977936864" lon="1.498415982350707">
        <ele>997.01999999999998</ele>
        <time>2025-05-14T11:24:26Z</time>
      </trkpt>
      <trkpt lat="42.49314802698791" lon="1.499792039394379">
        <ele>998.47000000000003</ele>
        <time>2025-05-14T11:24:35Z</time>
      </trkpt>
      <trkpt lat="42.49383500777185" lon="1.500703990459442">
        <ele>995.10000000000002</ele>
        <time>2025-05-14T11:24:42Z</time>
      </trkpt>
      <trkpt lat="42.493895022198558" lon="1.500834999606013">
        <ele>994.62</ele>
        <time>2025-05-14T11:24:43Z</time>
      </trkpt>
      <trkpt lat="42.494258964434266" lon="1.501649972051382">
        <ele>991.74000000000001</ele>
        <time>2025-05-14T11:24:48Z</time>
      </trkpt>
      <trkpt lat="42.494972012937069" lon="1.503287963569164">
        <ele>986.92999999999995</ele>
        <time>2025-05-14T11:24:58Z</time>
      </trkpt>
      <trkpt lat="42.49505901709199" lon="1.503594992682338">
        <ele>987.40999999999997</ele>
        <time>2025-05-14T11:25:00Z</time>
      </trkpt>
      <trkpt lat="42.495089024305344" lon="1.50370798073709">
        <ele>987.88999999999999</ele>
        <time>2025-05-14T11:25:01Z</time>
      </trkpt>
      <trkpt lat="42.495032027363777" lon="1.503881989046931">
        <ele>988.37</ele>
        <time>2025-05-14T11:25:02Z</time>
      </trkpt>
      <trkpt lat="42.4950170237571" lon="1.50396597571671">
        <ele>988.85000000000002</ele>
        <time>2025-05-14T11:25:03Z</time>
      </trkpt>
      <trkpt lat="42.495032027363777" lon="1.504010986536741">
        <ele>989.33000000000004</ele>
        <time>2025-05-14T11:25:04Z</time>
      </trkpt>
      <trkpt lat="42.495075026527047" lon="1.504611968994141">
        <ele>990.29999999999995</ele>
        <time>2025-05-14T11:25:09Z</time>
      </trkpt>
      <trkpt lat="42.495083995163441" lon="1.504799975082278">
        <ele>990.77999999999997</ele>
        <time>2025-05-14T11:25:10Z</time>
      </trkpt>
      <trkpt lat="42.495091035962105" lon="1.504961997270584">
        <ele>990.77999999999997</ele>
        <time>2025-05-14T11:25:11Z</time>
      </trkpt>
      <trkpt lat="42.495196983218193" lon="1.505304984748364">
        <ele>990.77999999999997</ele>
        <time>2025-05-14T11:25:12Z</time>
      </trkpt>
      <trkpt lat="42.495280969887972" lon="1.505460971966386">
        <ele>991.25999999999999</ele>
        <time>2025-05-14T11:25:13Z</time>
      </trkpt>
      <trkpt lat="42.495365040376782" lon="1.505610002204776">
        <ele>991.25999999999999</ele>
        <time>2025-05-14T11:25:14Z</time>
      </trkpt>
      <trkpt lat="42.496316973119974" lon="1.507155960425735">
        <ele>991.25999999999999</ele>
        <time>2025-05-14T11:25:25Z</time>
      </trkpt>
      <trkpt lat="42.496398026123643" lon="1.50729401037097">
        <ele>991.25999999999999</ele>
        <time>2025-05-14T11:25:26Z</time>
      </trkpt>
      <trkpt lat="42.496472960337996" lon="1.507432982325554">
        <ele>990.77999999999997</ele>
        <time>2025-05-14T11:25:27Z</time>
      </trkpt>
      <trkpt lat="42.496546972543001" lon="1.507569020614028">
        <ele>991.25999999999999</ele>
        <time>2025-05-14T11:25:28Z</time>
      </trkpt>
      <trkpt lat="42.496698014438152" lon="1.507845036685467">
        <ele>991.25999999999999</ele>
        <time>2025-05-14T11:25:30Z</time>
      </trkpt>
      <trkpt lat="42.496771020814776" lon="1.507979985326529">
        <ele>991.74000000000001</ele>
        <time>2025-05-14T11:25:31Z</time>
      </trkpt>
      <trkpt lat="42.496845033019781" lon="1.508115017786622">
        <ele>991.74000000000001</ele>
        <time>2025-05-14T11:25:32Z</time>
      </trkpt>
      <trkpt lat="42.496917033568025" lon="1.508247032761574">
        <ele>991.74000000000001</ele>
        <time>2025-05-14T11:25:33Z</time>
      </trkpt>
      <trkpt lat="42.496989034116268" lon="1.508378041908145">
        <ele>992.22000000000003</ele>
        <time>2025-05-14T11:25:34Z</time>
      </trkpt>
      <trkpt lat="42.497722031548619" lon="1.509879995137453">
        <ele>993.17999999999995</ele>
        <time>2025-05-14T11:25:45Z</time>
      </trkpt>
      <trkpt lat="42.498030988499522" lon="1.510477960109711">
        <ele>992.70000000000005</ele>
        <time>2025-05-14T11:25:50Z</time>
      </trkpt>
      <trkpt lat="42.498084967955947" lon="1.510575022548437">
        <ele>992.22000000000003</ele>
        <time>2025-05-14T11:25:51Z</time>
      </trkpt>
      <trkpt lat="42.498079016804695" lon="1.510769985616207">
        <ele>992.22000000000003</ele>
        <time>2025-05-14T11:25:52Z</time>
      </trkpt>
      <trkpt lat="42.498088991269469" lon="1.510822037234902">
        <ele>992.70000000000005</ele>
        <time>2025-05-14T11:25:53Z</time>
      </trkpt>
      <trkpt lat="42.498158980160952" lon="1.510911975055933">
        <ele>993.17999999999995</ele>
        <time>2025-05-14T11:25:54Z</time>
      </trkpt>
      <trkpt lat="42.498157974332571" lon="1.510911975055933">
        <ele>994.13999999999999</ele>
        <time>2025-05-14T11:25:55Z</time>
      </trkpt>
      <trkpt lat="42.498208014294505" lon="1.510941982269287">
        <ele>994.62</ele>
        <time>2025-05-14T11:25:56Z</time>
      </trkpt>
      <trkpt lat="42.498354027047753" lon="1.510845003649592">
        <ele>994.62</ele>
        <time>2025-05-14T11:25:57Z</time>
      </trkpt>
      <trkpt lat="42.49845402315259" lon="1.510899988934398">
        <ele>995.10000000000002</ele>
        <time>2025-05-14T11:25:59Z</time>
      </trkpt>
      <trkpt lat="42.498529041185975" lon="1.510941982269287">
        <ele>995.58000000000004</ele>
        <time>2025-05-14T11:26:00Z</time>
      </trkpt>
      <trkpt lat="42.498597018420696" lon="1.510995961725712">
        <ele>996.05999999999995</ele>
        <time>2025-05-14T11:26:01Z</time>
      </trkpt>
      <trkpt lat="42.499450966715813" lon="1.511661987751722">
        <ele>995.58000000000004</ele>
        <time>2025-05-14T11:26:10Z</time>
      </trkpt>
      <trkpt lat="42.500942023470998" lon="1.512798992916942">
        <ele>996.05999999999995</ele>
        <time>2025-05-14T11:26:22Z</time>
      </trkpt>
      <trkpt lat="42.502152035012841" lon="1.51382502168417">
        <ele>1000.87</ele>
        <time>2025-05-14T11:26:32Z</time>
      </trkpt>
      <trkpt lat="42.502248007804155" lon="1.513953013345599">
        <ele>1000.39</ele>
        <time>2025-05-14T11:26:33Z</time>
      </trkpt>
      <trkpt lat="42.502330988645554" lon="1.514100031927228">
        <ele>999.90999999999997</ele>
        <time>2025-05-14T11:26:34Z</time>
      </trkpt>
      <trkpt lat="42.502412963658571" lon="1.514245960861445">
        <ele>999.90999999999997</ele>
        <time>2025-05-14T11:26:35Z</time>
      </trkpt>
      <trkpt lat="42.502474989742041" lon="1.514400020241737">
        <ele>999.90999999999997</ele>
        <time>2025-05-14T11:26:36Z</time>
      </trkpt>
      <trkpt lat="42.503134980797768" lon="1.515613971278071">
        <ele>1000.39</ele>
        <time>2025-05-14T11:26:44Z</time>
      </trkpt>
      <trkpt lat="42.503513004630804" lon="1.516215037554503">
        <ele>999.90999999999997</ele>
        <time>2025-05-14T11:26:48Z</time>
      </trkpt>
      <trkpt lat="42.50358902849257" lon="1.516375970095396">
        <ele>999.90999999999997</ele>
        <time>2025-05-14T11:26:49Z</time>
      </trkpt>
      <trkpt lat="42.503662034869194" lon="1.516547966748476">
        <ele>1000.39</ele>
        <time>2025-05-14T11:26:50Z</time>
      </trkpt>
      <trkpt lat="42.503689024597406" lon="1.51672700420022">
        <ele>1000.39</ele>
        <time>2025-05-14T11:26:51Z</time>
      </trkpt>
      <trkpt lat="42.503715008497238" lon="1.516900006681681">
        <ele>1000.39</ele>
        <time>2025-05-14T11:26:52Z</time>
      </trkpt>
      <trkpt lat="42.503739986568689" lon="1.517066974192858">
        <ele>1000.39</ele>
        <time>2025-05-14T11:26:53Z</time>
      </trkpt>
      <trkpt lat="42.503659017384052" lon="1.518773026764393">
        <ele>998.95000000000005</ele>
        <time>2025-05-14T11:27:03Z</time>
      </trkpt>
      <trkpt lat="42.503644013777375" lon="1.519039990380406">
        <ele>998.95000000000005</ele>
        <time>2025-05-14T11:27:05Z</time>
      </trkpt>
      <trkpt lat="42.503614006564021" lon="1.519216010347009">
        <ele>998.95000000000005</ele>
        <time>2025-05-14T11:27:06Z</time>
      </trkpt>
      <trkpt lat="42.503543011844158" lon="1.519366968423128">
        <ele>999.42999999999995</ele>
        <time>2025-05-14T11:27:08Z</time>
      </trkpt>
      <trkpt lat="42.503529014065862" lon="1.519461013376713">
        <ele>999.42999999999995</ele>
        <time>2025-05-14T11:27:09Z</time>
      </trkpt>
      <trkpt lat="42.503552986308932" lon="1.519509041681886">
        <ele>999.90999999999997</ele>
        <time>2025-05-14T11:27:10Z</time>
      </trkpt>
      <trkpt lat="42.503572013229132" lon="1.519547011703253">
        <ele>1000.39</ele>
        <time>2025-05-14T11:27:11Z</time>
      </trkpt>
      <trkpt lat="42.503596991300583" lon="1.519554974511266">
        <ele>1000.87</ele>
        <time>2025-05-14T11:27:12Z</time>
      </trkpt>
      <trkpt lat="42.503620041534305" lon="1.51956201530993">
        <ele>1001.35</ele>
        <time>2025-05-14T11:27:13Z</time>
      </trkpt>
      <trkpt lat="42.503620041534305" lon="1.51956201530993">
        <ele>1001.83</ele>
        <time>2025-05-14T11:27:23Z</time>
      </trkpt>
      <trkpt lat="42.50372095964849" lon="1.519665028899908">
        <ele>1001.83</ele>
        <time>2025-05-14T11:27:32Z</time>
      </trkpt>
      <trkpt lat="42.503736969083548" lon="1.519723031669855">
        <ele>1001.83</ele>
        <time>2025-05-14T11:27:33Z</time>
      </trkpt>
      <trkpt lat="42.503764964640141" lon="1.519825039431453">
        <ele>1001.83</ele>
        <time>2025-05-14T11:27:34Z</time>
      </trkpt>
      <trkpt lat="42.503849035128951" lon="1.520023019984365">
        <ele>1001.83</ele>
        <time>2025-05-14T11:27:37Z</time>
      </trkpt>
      <trkpt lat="42.503997981548309" lon="1.520375981926918">
        <ele>1001.35</ele>
        <time>2025-05-14T11:27:41Z</time>
      </trkpt>
      <trkpt lat="42.504037041217089" lon="1.520470026880503">
        <ele>1001.83</ele>
        <time>2025-05-14T11:27:42Z</time>
      </trkpt>
      <trkpt lat="42.504078028723598" lon="1.520567005500197">
        <ele>1001.83</ele>
        <time>2025-05-14T11:27:43Z</time>
      </trkpt>
      <trkpt lat="42.504117004573345" lon="1.52065803296864">
        <ele>1001.83</ele>
        <time>2025-05-14T11:27:44Z</time>
      </trkpt>
      <trkpt lat="42.504154974594712" lon="1.520748976618052">
        <ele>1001.83</ele>
        <time>2025-05-14T11:27:45Z</time>
      </trkpt>
      <trkpt lat="42.504226975142956" lon="1.520928014069796">
        <ele>1001.83</ele>
        <time>2025-05-14T11:27:47Z</time>
      </trkpt>
      <trkpt lat="42.504261005669832" lon="1.521015018224716">
        <ele>1001.83</ele>
        <time>2025-05-14T11:27:48Z</time>
      </trkpt>
      <trkpt lat="42.504335017874837" lon="1.521205035969615">
        <ele>1001.83</ele>
        <time>2025-05-14T11:27:50Z</time>
      </trkpt>
      <trkpt lat="42.504369970411062" lon="1.521292962133884">
        <ele>1001.83</ele>
        <time>2025-05-14T11:27:51Z</time>
      </trkpt>
      <trkpt lat="42.504489999264479" lon="1.521636033430696">
        <ele>1002.3099999999999</ele>
        <time>2025-05-14T11:27:59Z</time>
      </trkpt>
      <trkpt lat="42.504537021741271" lon="1.521777017042041">
        <ele>1001.83</ele>
        <time>2025-05-14T11:28:09Z</time>
      </trkpt>
      <trkpt lat="42.504575997591019" lon="1.521893022581935">
        <ele>1001.35</ele>
        <time>2025-05-14T11:28:11Z</time>
      </trkpt>
      <trkpt lat="42.50455898232758" lon="1.522079017013311">
        <ele>1001.35</ele>
        <time>2025-05-14T11:28:12Z</time>
      </trkpt>
      <trkpt lat="42.50455898232758" lon="1.522079017013311">
        <ele>1001.35</ele>
        <time>2025-05-14T11:28:13Z</time>
      </trkpt>
      <trkpt lat="42.504570968449116" lon="1.52213903144002">
        <ele>1000.87</ele>
        <time>2025-05-14T11:28:14Z</time>
      </trkpt>
      <trkpt lat="42.504581026732922" lon="1.52218597009778">
        <ele>1000.87</ele>
        <time>2025-05-14T11:28:15Z</time>
      </trkpt>
      <trkpt lat="42.504668030887842" lon="1.522336006164551">
        <ele>1000.87</ele>
        <time>2025-05-14T11:28:16Z</time>
      </trkpt>
      <trkpt lat="42.50464397482574" lon="1.522414041683078">
        <ele>1000.39</ele>
        <time>2025-05-14T11:28:17Z</time>
      </trkpt>
      <trkpt lat="42.50460198149085" lon="1.522551001980901">
        <ele>999.90999999999997</ele>
        <time>2025-05-14T11:28:18Z</time>
      </trkpt>
      <trkpt lat="42.504603993147612" lon="1.522572040557861">
        <ele>999.90999999999997</ele>
        <time>2025-05-14T11:28:19Z</time>
      </trkpt>
      <trkpt lat="42.504613967612386" lon="1.522671030834317">
        <ele>999.42999999999995</ele>
        <time>2025-05-14T11:28:20Z</time>
      </trkpt>
      <trkpt lat="42.504814965650439" lon="1.523759001865983">
        <ele>999.90999999999997</ele>
        <time>2025-05-14T11:28:30Z</time>
      </trkpt>
      <trkpt lat="42.504972964525223" lon="1.524689979851246">
        <ele>1002.3099999999999</ele>
        <time>2025-05-14T11:28:38Z</time>
      </trkpt>
      <trkpt lat="42.50498897396028" lon="1.524819983169437">
        <ele>1002.3099999999999</ele>
        <time>2025-05-14T11:28:39Z</time>
      </trkpt>
      <trkpt lat="42.505003977566957" lon="1.524941017851234">
        <ele>1002.3099999999999</ele>
        <time>2025-05-14T11:28:40Z</time>
      </trkpt>
      <trkpt lat="42.50520003028214" lon="1.526498040184379">
        <ele>1004.23</ele>
        <time>2025-05-14T11:28:52Z</time>
      </trkpt>
      <trkpt lat="42.505212016403675" lon="1.526636006310582">
        <ele>1004.23</ele>
        <time>2025-05-14T11:28:53Z</time>
      </trkpt>
      <trkpt lat="42.50520296394825" lon="1.527228020131588">
        <ele>1002.79</ele>
        <time>2025-05-14T11:28:58Z</time>
      </trkpt>
      <trkpt lat="42.505230037495494" lon="1.527327010408044">
        <ele>1002.3099999999999</ele>
        <time>2025-05-14T11:28:59Z</time>
      </trkpt>
      <trkpt lat="42.505245041102171" lon="1.527419965714216">
        <ele>1001.83</ele>
        <time>2025-05-14T11:29:00Z</time>
      </trkpt>
      <trkpt lat="42.505260966718197" lon="1.527514010667801">
        <ele>1001.35</ele>
        <time>2025-05-14T11:29:01Z</time>
      </trkpt>
      <trkpt lat="42.505284016951919" lon="1.527630016207695">
        <ele>1000.87</ele>
        <time>2025-05-14T11:29:02Z</time>
      </trkpt>
      <trkpt lat="42.505276976153255" lon="1.527711991220713">
        <ele>1000.39</ele>
        <time>2025-05-14T11:29:03Z</time>
      </trkpt>
      <trkpt lat="42.505276976153255" lon="1.527712997049093">
        <ele>999.90999999999997</ele>
        <time>2025-05-14T11:29:04Z</time>
      </trkpt>
      <trkpt lat="42.505269013345242" lon="1.527869990095496">
        <ele>999.42999999999995</ele>
        <time>2025-05-14T11:29:05Z</time>
      </trkpt>
      <trkpt lat="42.505273958668113" lon="1.527968980371952">
        <ele>998.95000000000005</ele>
        <time>2025-05-14T11:29:06Z</time>
      </trkpt>
      <trkpt lat="42.505280999466777" lon="1.528106024488807">
        <ele>998.95000000000005</ele>
        <time>2025-05-14T11:29:07Z</time>
      </trkpt>
      <trkpt lat="42.505288040265441" lon="1.528237033635378">
        <ele>998.95000000000005</ele>
        <time>2025-05-14T11:29:08Z</time>
      </trkpt>
      <trkpt lat="42.505331039428711" lon="1.528474995866418">
        <ele>998.95000000000005</ele>
        <time>2025-05-14T11:29:10Z</time>
      </trkpt>
      <trkpt lat="42.505354005843401" lon="1.528593013063073">
        <ele>998.95000000000005</ele>
        <time>2025-05-14T11:29:11Z</time>
      </trkpt>
      <trkpt lat="42.50558702275157" lon="1.529695987701416">
        <ele>999.90999999999997</ele>
        <time>2025-05-14T11:29:21Z</time>
      </trkpt>
      <trkpt lat="42.505639996379614" lon="1.529927998781204">
        <ele>999.42999999999995</ele>
        <time>2025-05-14T11:29:23Z</time>
      </trkpt>
      <trkpt lat="42.505752984434366" lon="1.530415993183851">
        <ele>1000.87</ele>
        <time>2025-05-14T11:29:28Z</time>
      </trkpt>
      <trkpt lat="42.505783997476101" lon="1.53054197318852">
        <ele>1001.35</ele>
        <time>2025-05-14T11:29:29Z</time>
      </trkpt>
      <trkpt lat="42.506003016605973" lon="1.531568001955748">
        <ele>1006.64</ele>
        <time>2025-05-14T11:29:38Z</time>
      </trkpt>
      <trkpt lat="42.50601802021265" lon="1.531648971140385">
        <ele>1008.08</ele>
        <time>2025-05-14T11:29:40Z</time>
      </trkpt>
      <trkpt lat="42.5059549883008" lon="1.531788026914001">
        <ele>1008.5599999999999</ele>
        <time>2025-05-14T11:29:41Z</time>
      </trkpt>
      <trkpt lat="42.505990024656057" lon="1.531868996098638">
        <ele>1009.04</ele>
        <time>2025-05-14T11:29:42Z</time>
      </trkpt>
      <trkpt lat="42.506045009940863" lon="1.5321109816432">
        <ele>1011.9299999999999</ele>
        <time>2025-05-14T11:29:48Z</time>
      </trkpt>
      <trkpt lat="42.506045009940863" lon="1.5321109816432">
        <ele>1011.9299999999999</ele>
        <time>2025-05-14T11:30:01Z</time>
      </trkpt>
      <trkpt lat="42.506171995773911" lon="1.532685980200768">
        <ele>1013.85</ele>
        <time>2025-05-14T11:30:08Z</time>
      </trkpt>
      <trkpt lat="42.50619001686573" lon="1.532773990184069">
        <ele>1014.33</ele>
        <time>2025-05-14T11:30:09Z</time>
      </trkpt>
      <trkpt lat="42.506243996322155" lon="1.533032990992069">
        <ele>1014.8099999999999</ele>
        <time>2025-05-14T11:30:12Z</time>
      </trkpt>
      <trkpt lat="42.506278026849031" lon="1.533201970160008">
        <ele>1015.29</ele>
        <time>2025-05-14T11:30:14Z</time>
      </trkpt>
      <trkpt lat="42.506442982703447" lon="1.534008979797363">
        <ele>1018.65</ele>
        <time>2025-05-14T11:30:26Z</time>
      </trkpt>
      <trkpt lat="42.506504002958536" lon="1.534362025558949">
        <ele>1021.0599999999999</ele>
        <time>2025-05-14T11:30:34Z</time>
      </trkpt>
      <trkpt lat="42.506544990465045" lon="1.534363031387329">
        <ele>1021.54</ele>
        <time>2025-05-14T11:30:35Z</time>
      </trkpt>
      <trkpt lat="42.50657600350678" lon="1.534351967275143">
        <ele>1022.02</ele>
        <time>2025-05-14T11:30:36Z</time>
      </trkpt>
      <trkpt lat="42.506597964093089" lon="1.534308968111873">
        <ele>1022.02</ele>
        <time>2025-05-14T11:30:37Z</time>
      </trkpt>
      <trkpt lat="42.506611039862037" lon="1.534243002533913">
        <ele>1022.02</ele>
        <time>2025-05-14T11:30:38Z</time>
      </trkpt>
      <trkpt lat="42.506702989339828" lon="1.534188017249107">
        <ele>1022.02</ele>
        <time>2025-05-14T11:30:39Z</time>
      </trkpt>
      <trkpt lat="42.50674800015986" lon="1.534180976450443">
        <ele>1022.02</ele>
        <time>2025-05-14T11:30:40Z</time>
      </trkpt>
      <trkpt lat="42.506798962131143" lon="1.534180976450443">
        <ele>1022.02</ele>
        <time>2025-05-14T11:30:41Z</time>
      </trkpt>
      <trkpt lat="42.506985040381551" lon="1.534180976450443">
        <ele>1021.54</ele>
        <time>2025-05-14T11:30:44Z</time>
      </trkpt>
      <trkpt lat="42.507054023444653" lon="1.534180976450443">
        <ele>1021.54</ele>
        <time>2025-05-14T11:30:45Z</time>
      </trkpt>
      <trkpt lat="42.507129041478038" lon="1.534186005592346">
        <ele>1021.0599999999999</ele>
        <time>2025-05-14T11:30:46Z</time>
      </trkpt>
      <trkpt lat="42.50719802454114" lon="1.53419598005712">
        <ele>1020.1</ele>
        <time>2025-05-14T11:30:47Z</time>
      </trkpt>
      <trkpt lat="42.507254015654325" lon="1.534201009199023">
        <ele>1019.62</ele>
        <time>2025-05-14T11:30:48Z</time>
      </trkpt>
      <trkpt lat="42.507455013692379" lon="1.534184999763966">
        <ele>1018.17</ele>
        <time>2025-05-14T11:30:51Z</time>
      </trkpt>
      <trkpt lat="42.5075229909271" lon="1.534179970622063">
        <ele>1018.17</ele>
        <time>2025-05-14T11:30:52Z</time>
      </trkpt>
      <trkpt lat="42.507576970383525" lon="1.534176031127572">
        <ele>1017.6900000000001</ele>
        <time>2025-05-14T11:30:53Z</time>
      </trkpt>
      <trkpt lat="42.507616030052304" lon="1.53417301364243">
        <ele>1017.21</ele>
        <time>2025-05-14T11:30:54Z</time>
      </trkpt>
      <trkpt lat="42.507638996466994" lon="1.534171001985669">
        <ele>1016.73</ele>
        <time>2025-05-14T11:30:55Z</time>
      </trkpt>
      <trkpt lat="42.507704962044954" lon="1.534165972843766">
        <ele>1016.25</ele>
        <time>2025-05-14T11:31:07Z</time>
      </trkpt>
      <trkpt lat="42.507755002006888" lon="1.534162033349276">
        <ele>1016.25</ele>
        <time>2025-05-14T11:31:08Z</time>
      </trkpt>
      <trkpt lat="42.507821973413229" lon="1.534155998378992">
        <ele>1015.77</ele>
        <time>2025-05-14T11:31:09Z</time>
      </trkpt>
      <trkpt lat="42.508057001978159" lon="1.534137977287173">
        <ele>1014.8099999999999</ele>
        <time>2025-05-14T11:31:15Z</time>
      </trkpt>
      <trkpt lat="42.508057001978159" lon="1.534137977287173">
        <ele>1013.85</ele>
        <time>2025-05-14T11:31:29Z</time>
      </trkpt>
      <trkpt lat="42.508354978635907" lon="1.534105958417058">
        <ele>1016.73</ele>
        <time>2025-05-14T11:31:39Z</time>
      </trkpt>
      <trkpt lat="42.508405018597841" lon="1.534101013094187">
        <ele>1016.73</ele>
        <time>2025-05-14T11:31:40Z</time>
      </trkpt>
      <trkpt lat="42.508464027196169" lon="1.534094978123903">
        <ele>1017.21</ele>
        <time>2025-05-14T11:31:41Z</time>
      </trkpt>
      <trkpt lat="42.508624959737062" lon="1.534076035022736">
        <ele>1016.73</ele>
        <time>2025-05-14T11:31:44Z</time>
      </trkpt>
      <trkpt lat="42.50868396833539" lon="1.534068994224072">
        <ele>1016.73</ele>
        <time>2025-05-14T11:31:45Z</time>
      </trkpt>
      <trkpt lat="42.508742976933718" lon="1.534062037244439">
        <ele>1016.73</ele>
        <time>2025-05-14T11:31:46Z</time>
      </trkpt>
      <trkpt lat="42.508944980800152" lon="1.534036975353956">
        <ele>1016.25</ele>
        <time>2025-05-14T11:31:50Z</time>
      </trkpt>
      <trkpt lat="42.509012036025524" lon="1.534028006717563">
        <ele>1016.25</ele>
        <time>2025-05-14T11:31:51Z</time>
      </trkpt>
      <trkpt lat="42.509291991591454" lon="1.533989030867815">
        <ele>1017.6900000000001</ele>
        <time>2025-05-14T11:31:54Z</time>
      </trkpt>
      <trkpt lat="42.509502964094281" lon="1.533942008391023">
        <ele>1017.6900000000001</ele>
        <time>2025-05-14T11:32:01Z</time>
      </trkpt>
      <trkpt lat="42.509647971019149" lon="1.533874031156302">
        <ele>1018.17</ele>
        <time>2025-05-14T11:32:11Z</time>
      </trkpt>
      <trkpt lat="42.509847041219473" lon="1.533841006457806">
        <ele>1018.17</ele>
        <time>2025-05-14T11:32:14Z</time>
      </trkpt>
      <trkpt lat="42.509872019290924" lon="1.533877970650792">
        <ele>1017.6900000000001</ele>
        <time>2025-05-14T11:32:15Z</time>
      </trkpt>
      <trkpt lat="42.509900014847517" lon="1.533919963985682">
        <ele>1017.21</ele>
        <time>2025-05-14T11:32:16Z</time>
      </trkpt>
      <trkpt lat="42.509872019290924" lon="1.534103024750948">
        <ele>1017.21</ele>
        <time>2025-05-14T11:32:17Z</time>
      </trkpt>
      <trkpt lat="42.509861961007118" lon="1.534161027520895">
        <ele>1016.73</ele>
        <time>2025-05-14T11:32:18Z</time>
      </trkpt>
      <trkpt lat="42.509862966835499" lon="1.534364959225059">
        <ele>1014.8099999999999</ele>
        <time>2025-05-14T11:32:23Z</time>
      </trkpt>
      <trkpt lat="42.509875036776066" lon="1.534920008853078">
        <ele>1010</ele>
        <time>2025-05-14T11:32:30Z</time>
      </trkpt>
      <trkpt lat="42.509878976270556" lon="1.535122012719512">
        <ele>1008.5599999999999</ele>
        <time>2025-05-14T11:32:34Z</time>
      </trkpt>
      <trkpt lat="42.509879982098937" lon="1.535170041024685">
        <ele>1008.08</ele>
        <time>2025-05-14T11:32:35Z</time>
      </trkpt>
      <trkpt lat="42.509880987927318" lon="1.535188984125853">
        <ele>1007.12</ele>
        <time>2025-05-14T11:32:36Z</time>
      </trkpt>
      <trkpt lat="42.509880987927318" lon="1.535188984125853">
        <ele>1006.16</ele>
        <time>2025-05-14T11:32:37Z</time>
      </trkpt>
      <trkpt lat="42.509880987927318" lon="1.535317981615663">
        <ele>1005.6799999999999</ele>
        <time>2025-05-14T11:32:38Z</time>
      </trkpt>
      <trkpt lat="42.509881993755698" lon="1.535334996879101">
        <ele>1004.23</ele>
        <time>2025-05-14T11:32:46Z</time>
      </trkpt>
      <trkpt lat="42.509884005412459" lon="1.535356035456061">
        <ele>1004.72</ele>
        <time>2025-05-14T11:32:47Z</time>
      </trkpt>
      <trkpt lat="42.509887022897601" lon="1.535380007699132">
        <ele>1005.2</ele>
        <time>2025-05-14T11:32:48Z</time>
      </trkpt>
      <trkpt lat="42.509887022897601" lon="1.535380007699132">
        <ele>1006.16</ele>
        <time>2025-05-14T11:33:02Z</time>
      </trkpt>
      <trkpt lat="42.509887022897601" lon="1.535380007699132">
        <ele>1005.2</ele>
        <time>2025-05-14T11:33:40Z</time>
      </trkpt>
      <trkpt lat="42.509887022897601" lon="1.535380007699132">
        <ele>1004.72</ele>
        <time>2025-05-14T11:34:18Z</time>
      </trkpt>
      <trkpt lat="42.509887022897601" lon="1.535380007699132">
        <ele>1005.6799999999999</ele>
        <time>2025-05-14T11:34:55Z</time>
      </trkpt>
      <trkpt lat="42.509887022897601" lon="1.535380007699132">
        <ele>1006.16</ele>
        <time>2025-05-14T11:35:38Z</time>
      </trkpt>
      <trkpt lat="42.509887022897601" lon="1.535380007699132">
        <ele>1010</ele>
        <time>2025-05-14T11:36:26Z</time>
      </trkpt>
      <trkpt lat="42.509887022897601" lon="1.535380007699132">
        <ele>1010.48</ele>
        <time>2025-05-14T11:37:10Z</time>
      </trkpt>
      <trkpt lat="42.509887022897601" lon="1.535380007699132">
        <ele>1010.96</ele>
        <time>2025-05-14T11:37:51Z</time>
      </trkpt>
      <trkpt lat="42.509887022897601" lon="1.535380007699132">
        <ele>1010.96</ele>
        <time>2025-05-14T11:38:37Z</time>
      </trkpt>
      <trkpt lat="42.509887022897601" lon="1.535380007699132">
        <ele>1011.4400000000001</ele>
        <time>2025-05-14T11:39:18Z</time>
      </trkpt>
      <trkpt lat="42.509887022897601" lon="1.535380007699132">
        <ele>1011.4400000000001</ele>
        <time>2025-05-14T11:39:57Z</time>
      </trkpt>
      <trkpt lat="42.509887022897601" lon="1.535380007699132">
        <ele>1013.37</ele>
        <time>2025-05-14T11:40:33Z</time>
      </trkpt>
      <trkpt lat="42.509887022897601" lon="1.535380007699132">
        <ele>1013.85</ele>
        <time>2025-05-14T11:41:14Z</time>
      </trkpt>
      <trkpt lat="42.509887022897601" lon="1.535380007699132">
        <ele>1015.29</ele>
        <time>2025-05-14T11:41:55Z</time>
      </trkpt>
      <trkpt lat="42.510387003421783" lon="1.535330973565579">
        <ele>1038.8399999999999</ele>
        <time>2025-05-14T11:48:15Z</time>
      </trkpt>
      <trkpt lat="42.509894985705614" lon="1.535472040995956">
        <ele>1059.03</ele>
        <time>2025-05-14T11:48:17Z</time>
      </trkpt>
      <trkpt lat="42.509899009019136" lon="1.535507999360561">
        <ele>1053.26</ele>
        <time>2025-05-14T11:48:18Z</time>
      </trkpt>
      <trkpt lat="42.509904960170388" lon="1.535572037100792">
        <ele>1034.52</ele>
        <time>2025-05-14T11:48:30Z</time>
      </trkpt>
      <trkpt lat="42.509904960170388" lon="1.535572037100792">
        <ele>1051.3399999999999</ele>
        <time>2025-05-14T11:49:06Z</time>
      </trkpt>
      <trkpt lat="42.509904960170388" lon="1.535572037100792">
        <ele>1063.3599999999999</ele>
        <time>2025-05-14T11:49:39Z</time>
      </trkpt>
      <trkpt lat="42.509904960170388" lon="1.535572037100792">
        <ele>1056.6300000000001</ele>
        <time>2025-05-14T11:50:17Z</time>
      </trkpt>
      <trkpt lat="42.509904960170388" lon="1.535572037100792">
        <ele>1056.6300000000001</ele>
        <time>2025-05-14T11:50:56Z</time>
      </trkpt>
      <trkpt lat="42.509904960170388" lon="1.535572037100792">
        <ele>1056.1500000000001</ele>
        <time>2025-05-14T11:51:35Z</time>
      </trkpt>
      <trkpt lat="42.509904960170388" lon="1.535572037100792">
        <ele>1056.1500000000001</ele>
        <time>2025-05-14T11:52:13Z</time>
      </trkpt>
      <trkpt lat="42.509904960170388" lon="1.535572037100792">
        <ele>1055.6700000000001</ele>
        <time>2025-05-14T11:52:50Z</time>
      </trkpt>
      <trkpt lat="42.509904960170388" lon="1.535572037100792">
        <ele>1055.6700000000001</ele>
        <time>2025-05-14T11:53:31Z</time>
      </trkpt>
      <trkpt lat="42.509904960170388" lon="1.535572037100792">
        <ele>1055.1800000000001</ele>
        <time>2025-05-14T11:54:10Z</time>
      </trkpt>
      <trkpt lat="42.509904960170388" lon="1.535572037100792">
        <ele>1053.26</ele>
        <time>2025-05-14T11:54:35Z</time>
      </trkpt>
      <trkpt lat="42.509905965998769" lon="1.535585029050708">
        <ele>1050.8599999999999</ele>
        <time>2025-05-14T11:54:42Z</time>
      </trkpt>
      <trkpt lat="42.509908983483911" lon="1.535609001293778">
        <ele>1050.3800000000001</ele>
        <time>2025-05-14T11:54:43Z</time>
      </trkpt>
      <trkpt lat="42.509912000969052" lon="1.535646971315146">
        <ele>1049.9000000000001</ele>
        <time>2025-05-14T11:54:44Z</time>
      </trkpt>
      <trkpt lat="42.509962040930986" lon="1.536157010123134">
        <ele>1042.6900000000001</ele>
        <time>2025-05-14T11:54:50Z</time>
      </trkpt>
      <trkpt lat="42.509972015395761" lon="1.536262035369873">
        <ele>1041.73</ele>
        <time>2025-05-14T11:54:51Z</time>
      </trkpt>
      <trkpt lat="42.510016020387411" lon="1.536736031994224">
        <ele>1037.8800000000001</ele>
        <time>2025-05-14T11:54:56Z</time>
      </trkpt>
      <trkpt lat="42.510031023994088" lon="1.537124030292034">
        <ele>1036.9200000000001</ele>
        <time>2025-05-14T11:55:00Z</time>
      </trkpt>
      <trkpt lat="42.510034963488579" lon="1.537388982251287">
        <ele>1036.9200000000001</ele>
        <time>2025-05-14T11:55:03Z</time>
      </trkpt>
      <trkpt lat="42.510101012885571" lon="1.538205966353416">
        <ele>1039.3199999999999</ele>
        <time>2025-05-14T11:55:11Z</time>
      </trkpt>
      <trkpt lat="42.510111993178725" lon="1.538301017135382">
        <ele>1039.8</ele>
        <time>2025-05-14T11:55:12Z</time>
      </trkpt>
      <trkpt lat="42.510102018713951" lon="1.538786999881268">
        <ele>1043.6500000000001</ele>
        <time>2025-05-14T11:55:18Z</time>
      </trkpt>
      <trkpt lat="42.510160021483898" lon="1.538880039006472">
        <ele>1044.6099999999999</ele>
        <time>2025-05-14T11:55:26Z</time>
      </trkpt>
      <trkpt lat="42.510157003998756" lon="1.538971988484263">
        <ele>1044.6099999999999</ele>
        <time>2025-05-14T11:55:27Z</time>
      </trkpt>
      <trkpt lat="42.510138982906938" lon="1.539504993706942">
        <ele>1044.6099999999999</ele>
        <time>2025-05-14T11:55:32Z</time>
      </trkpt>
      <trkpt lat="42.510112999007106" lon="1.539602978155017">
        <ele>1044.6099999999999</ele>
        <time>2025-05-14T11:55:33Z</time>
      </trkpt>
      <trkpt lat="42.510074023157358" lon="1.539692999795079">
        <ele>1044.1300000000001</ele>
        <time>2025-05-14T11:55:34Z</time>
      </trkpt>
      <trkpt lat="42.50992801040411" lon="1.540028024464846">
        <ele>1043.6500000000001</ele>
        <time>2025-05-14T11:55:38Z</time>
      </trkpt>
      <trkpt lat="42.509896997362375" lon="1.54005903750658">
        <ele>1043.6500000000001</ele>
        <time>2025-05-14T11:55:39Z</time>
      </trkpt>
      <trkpt lat="42.509863972663879" lon="1.540085021406412">
        <ele>1043.1700000000001</ele>
        <time>2025-05-14T11:55:40Z</time>
      </trkpt>
      <trkpt lat="42.509819967672229" lon="1.540118968114257">
        <ele>1042.21</ele>
        <time>2025-05-14T11:55:47Z</time>
      </trkpt>
      <trkpt lat="42.50973598100245" lon="1.540184011682868">
        <ele>1043.1700000000001</ele>
        <time>2025-05-14T11:55:49Z</time>
      </trkpt>
      <trkpt lat="42.509730029851198" lon="1.540189040824771">
        <ele>1043.6500000000001</ele>
        <time>2025-05-14T11:55:50Z</time>
      </trkpt>
      <trkpt lat="42.509602038189769" lon="1.540318038314581">
        <ele>1043.6500000000001</ele>
        <time>2025-05-14T11:55:51Z</time>
      </trkpt>
      <trkpt lat="42.509544035419822" lon="1.540409987792373">
        <ele>1041.73</ele>
        <time>2025-05-14T11:55:56Z</time>
      </trkpt>
      <trkpt lat="42.509527020156384" lon="1.540438989177346">
        <ele>1041.25</ele>
        <time>2025-05-14T11:55:57Z</time>
      </trkpt>
      <trkpt lat="42.509516039863229" lon="1.540456004440785">
        <ele>1042.21</ele>
        <time>2025-05-14T11:56:07Z</time>
      </trkpt>
      <trkpt lat="42.509323004633188" lon="1.540767978876829">
        <ele>1039.8</ele>
        <time>2025-05-14T11:56:15Z</time>
      </trkpt>
      <trkpt lat="42.508938023820519" lon="1.54083201661706">
        <ele>1036.4400000000001</ele>
        <time>2025-05-14T11:56:27Z</time>
      </trkpt>
      <trkpt lat="42.508858982473612" lon="1.540845008566976">
        <ele>1037.8800000000001</ele>
        <time>2025-05-14T11:56:59Z</time>
      </trkpt>
      <trkpt lat="42.508679023012519" lon="1.54087501578033">
        <ele>1045.5699999999999</ele>
        <time>2025-05-14T11:57:07Z</time>
      </trkpt>
      <trkpt lat="42.508679023012519" lon="1.54087501578033">
        <ele>1046.53</ele>
        <time>2025-05-14T11:57:11Z</time>
      </trkpt>
      <trkpt lat="42.508270991966128" lon="1.540896976366639">
        <ele>1051.3399999999999</ele>
        <time>2025-05-14T11:57:13Z</time>
      </trkpt>
      <trkpt lat="42.508270991966128" lon="1.540896976366639">
        <ele>1052.3</ele>
        <time>2025-05-14T11:57:14Z</time>
      </trkpt>
      <trkpt lat="42.508285995572805" lon="1.540752975270152">
        <ele>1053.26</ele>
        <time>2025-05-14T11:57:15Z</time>
      </trkpt>
      <trkpt lat="42.508293036371469" lon="1.540693966671825">
        <ele>1054.22</ele>
        <time>2025-05-14T11:57:16Z</time>
      </trkpt>
      <trkpt lat="42.508298987522721" lon="1.540632024407387">
        <ele>1054.7</ele>
        <time>2025-05-14T11:57:17Z</time>
      </trkpt>
      <trkpt lat="42.508306028321385" lon="1.540563963353634">
        <ele>1055.1800000000001</ele>
        <time>2025-05-14T11:57:18Z</time>
      </trkpt>
      <trkpt lat="42.508311979472637" lon="1.540505038574338">
        <ele>1056.1500000000001</ele>
        <time>2025-05-14T11:57:19Z</time>
      </trkpt>
      <trkpt lat="42.508318014442921" lon="1.54044896364212">
        <ele>1056.6300000000001</ele>
        <time>2025-05-14T11:57:20Z</time>
      </trkpt>
      <trkpt lat="42.508323965594172" lon="1.540395990014076">
        <ele>1057.5899999999999</ele>
        <time>2025-05-14T11:57:21Z</time>
      </trkpt>
      <trkpt lat="42.508330000564456" lon="1.540336981415749">
        <ele>1057.5899999999999</ele>
        <time>2025-05-14T11:57:22Z</time>
      </trkpt>
      <trkpt lat="42.508337963372469" lon="1.540264980867505">
        <ele>1058.0699999999999</ele>
        <time>2025-05-14T11:57:23Z</time>
      </trkpt>
      <trkpt lat="42.508346009999514" lon="1.54018803499639">
        <ele>1058.0699999999999</ele>
        <time>2025-05-14T11:57:24Z</time>
      </trkpt>
      <trkpt lat="42.508352966979146" lon="1.540120979771018">
        <ele>1058.0699999999999</ele>
        <time>2025-05-14T11:57:25Z</time>
      </trkpt>
      <trkpt lat="42.508348021656275" lon="1.540025006979704">
        <ele>1058.55</ele>
        <time>2025-05-14T11:57:26Z</time>
      </trkpt>
      <trkpt lat="42.508336035534739" lon="1.539954012259841">
        <ele>1058.55</ele>
        <time>2025-05-14T11:57:27Z</time>
      </trkpt>
      <trkpt lat="42.508325977250934" lon="1.53988603502512">
        <ele>1058.55</ele>
        <time>2025-05-14T11:57:28Z</time>
      </trkpt>
      <trkpt lat="42.50831700861454" lon="1.539818979799748">
        <ele>1058.55</ele>
        <time>2025-05-14T11:57:29Z</time>
      </trkpt>
      <trkpt lat="42.508298987522721" lon="1.539686964824796">
        <ele>1058.55</ele>
        <time>2025-05-14T11:57:31Z</time>
      </trkpt>
      <trkpt lat="42.508291024714708" lon="1.539625022560358">
        <ele>1059.03</ele>
        <time>2025-05-14T11:57:32Z</time>
      </trkpt>
      <trkpt lat="42.508283983916044" lon="1.539570959284902">
        <ele>1059.03</ele>
        <time>2025-05-14T11:57:33Z</time>
      </trkpt>
      <trkpt lat="42.50816697254777" lon="1.539500970393419">
        <ele>1058.55</ele>
        <time>2025-05-14T11:57:34Z</time>
      </trkpt>
      <trkpt lat="42.508132020011544" lon="1.539511028677225">
        <ele>1058.0699999999999</ele>
        <time>2025-05-14T11:57:35Z</time>
      </trkpt>
      <trkpt lat="42.508087009191513" lon="1.53952301479876">
        <ele>1057.5899999999999</ele>
        <time>2025-05-14T11:57:36Z</time>
      </trkpt>
      <trkpt lat="42.508036969229579" lon="1.539536006748676">
        <ele>1057.1099999999999</ele>
        <time>2025-05-14T11:57:37Z</time>
      </trkpt>
      <trkpt lat="42.507987013086677" lon="1.539548998698592">
        <ele>1056.6300000000001</ele>
        <time>2025-05-14T11:57:38Z</time>
      </trkpt>
      <trkpt lat="42.507936973124743" lon="1.539562996476889">
        <ele>1056.6300000000001</ele>
        <time>2025-05-14T11:57:39Z</time>
      </trkpt>
      <trkpt lat="42.507895985618234" lon="1.539572970941663">
        <ele>1056.1500000000001</ele>
        <time>2025-05-14T11:57:40Z</time>
      </trkpt>
      <trkpt lat="42.507837982848287" lon="1.539435004815459">
        <ele>1055.6700000000001</ele>
        <time>2025-05-14T11:57:41Z</time>
      </trkpt>
      <trkpt lat="42.507836977019906" lon="1.539366021752358">
        <ele>1055.6700000000001</ele>
        <time>2025-05-14T11:57:42Z</time>
      </trkpt>
      <trkpt lat="42.507834965363145" lon="1.539285974577069">
        <ele>1055.1800000000001</ele>
        <time>2025-05-14T11:57:43Z</time>
      </trkpt>
      <trkpt lat="42.507830020040274" lon="1.539081959053874">
        <ele>1054.22</ele>
        <time>2025-05-14T11:57:46Z</time>
      </trkpt>
      <trkpt lat="42.507817028090358" lon="1.538592958822846">
        <ele>1051.8199999999999</ele>
        <time>2025-05-14T11:57:52Z</time>
      </trkpt>
      <trkpt lat="42.507815016433597" lon="1.538520036265254">
        <ele>1051.3399999999999</ele>
        <time>2025-05-14T11:57:53Z</time>
      </trkpt>
      <trkpt lat="42.507814010605216" lon="1.538452981039882">
        <ele>1050.8599999999999</ele>
        <time>2025-05-14T11:57:54Z</time>
      </trkpt>
      <trkpt lat="42.507811998948455" lon="1.538385003805161">
        <ele>1050.8599999999999</ele>
        <time>2025-05-14T11:57:55Z</time>
      </trkpt>
      <trkpt lat="42.507809987291694" lon="1.538313003256917">
        <ele>1050.3800000000001</ele>
        <time>2025-05-14T11:57:56Z</time>
      </trkpt>
      <trkpt lat="42.507806969806552" lon="1.538172019645572">
        <ele>1050.3800000000001</ele>
        <time>2025-05-14T11:57:58Z</time>
      </trkpt>
      <trkpt lat="42.507804958149791" lon="1.538114016875625">
        <ele>1049.9000000000001</ele>
        <time>2025-05-14T11:57:59Z</time>
      </trkpt>
      <trkpt lat="42.507802024483681" lon="1.537990970537067">
        <ele>1048.9400000000001</ele>
        <time>2025-05-14T11:58:03Z</time>
      </trkpt>
      <trkpt lat="42.507802024483681" lon="1.537968004122376">
        <ele>1048.45</ele>
        <time>2025-05-14T11:58:06Z</time>
      </trkpt>
      <trkpt lat="42.507799006998539" lon="1.537871025502682">
        <ele>1048.9400000000001</ele>
        <time>2025-05-14T11:58:15Z</time>
      </trkpt>
      <trkpt lat="42.507799006998539" lon="1.537871025502682">
        <ele>1048.45</ele>
        <time>2025-05-14T11:58:16Z</time>
      </trkpt>
      <trkpt lat="42.507799006998539" lon="1.537871025502682">
        <ele>1047.97</ele>
        <time>2025-05-14T11:58:17Z</time>
      </trkpt>
      <trkpt lat="42.507925992831588" lon="1.537880999967456">
        <ele>1045.5699999999999</ele>
        <time>2025-05-14T11:58:25Z</time>
      </trkpt>
      <trkpt lat="42.508302005007863" lon="1.537871025502682">
        <ele>1040.28</ele>
        <time>2025-05-14T11:58:35Z</time>
      </trkpt>
      <trkpt lat="42.508302005007863" lon="1.537871025502682">
        <ele>1037.4000000000001</ele>
        <time>2025-05-14T11:59:06Z</time>
      </trkpt>
      <trkpt lat="42.508803997188807" lon="1.537878988310695">
        <ele>1034.04</ele>
        <time>2025-05-14T11:59:33Z</time>
      </trkpt>
      <trkpt lat="42.508842973038554" lon="1.537883011624217">
        <ele>1033.55</ele>
        <time>2025-05-14T11:59:34Z</time>
      </trkpt>
      <trkpt lat="42.508892007172108" lon="1.537887034937739">
        <ele>1033.0699999999999</ele>
        <time>2025-05-14T11:59:35Z</time>
      </trkpt>
      <trkpt lat="42.509407997131348" lon="1.537935985252261">
        <ele>1032.1099999999999</ele>
        <time>2025-05-14T11:59:43Z</time>
      </trkpt>
      <trkpt lat="42.509814016520977" lon="1.537922993302345">
        <ele>1029.71</ele>
        <time>2025-05-14T11:59:49Z</time>
      </trkpt>
      <trkpt lat="42.51016597263515" lon="1.537919975817204">
        <ele>1027.79</ele>
        <time>2025-05-14T11:59:56Z</time>
      </trkpt>
      <trkpt lat="42.510848008096218" lon="1.538058025762439">
        <ele>1022.5</ele>
        <time>2025-05-14T12:00:06Z</time>
      </trkpt>
      <trkpt lat="42.510911040008068" lon="1.538101024925709">
        <ele>1022.02</ele>
        <time>2025-05-14T12:00:07Z</time>
      </trkpt>
      <trkpt lat="42.511035008355975" lon="1.538178976625204">
        <ele>1021.0599999999999</ele>
        <time>2025-05-14T12:00:09Z</time>
      </trkpt>
      <trkpt lat="42.511459970846772" lon="1.538445018231869">
        <ele>1017.6900000000001</ele>
        <time>2025-05-14T12:00:17Z</time>
      </trkpt>
      <trkpt lat="42.511468017473817" lon="1.538450969383121">
        <ele>1017.21</ele>
        <time>2025-05-14T12:00:18Z</time>
      </trkpt>
      <trkpt lat="42.51145301386714" lon="1.538494974374771">
        <ele>1016.73</ele>
        <time>2025-05-14T12:00:19Z</time>
      </trkpt>
      <trkpt lat="42.51143398694694" lon="1.538547025993466">
        <ele>1016.25</ele>
        <time>2025-05-14T12:00:20Z</time>
      </trkpt>
      <trkpt lat="42.51134698279202" lon="1.538828993216157">
        <ele>1014.8099999999999</ele>
        <time>2025-05-14T12:00:24Z</time>
      </trkpt>
      <trkpt lat="42.511334996670485" lon="1.538894958794117">
        <ele>1014.33</ele>
        <time>2025-05-14T12:00:25Z</time>
      </trkpt>
      <trkpt lat="42.511323010548949" lon="1.53896301984787">
        <ele>1014.33</ele>
        <time>2025-05-14T12:00:26Z</time>
      </trkpt>
      <trkpt lat="42.511310018599033" lon="1.539024040102959">
        <ele>1013.85</ele>
        <time>2025-05-14T12:00:27Z</time>
      </trkpt>
      <trkpt lat="42.511296020820737" lon="1.539087994024158">
        <ele>1013.85</ele>
        <time>2025-05-14T12:00:28Z</time>
      </trkpt>
      <trkpt lat="42.511403979733586" lon="1.539266025647521">
        <ele>1013.37</ele>
        <time>2025-05-14T12:00:29Z</time>
      </trkpt>
      <trkpt lat="42.511157970875502" lon="1.53960800729692">
        <ele>1011.9299999999999</ele>
        <time>2025-05-14T12:00:38Z</time>
      </trkpt>
      <trkpt lat="42.511146990582347" lon="1.53965201228857">
        <ele>1011.4400000000001</ele>
        <time>2025-05-14T12:00:39Z</time>
      </trkpt>
      <trkpt lat="42.511141039431095" lon="1.539648994803429">
        <ele>1010.96</ele>
        <time>2025-05-14T12:00:40Z</time>
      </trkpt>
      <trkpt lat="42.511099968105555" lon="1.539626028388739">
        <ele>1010.96</ele>
        <time>2025-05-14T12:00:41Z</time>
      </trkpt>
      <trkpt lat="42.511052023619413" lon="1.539599960669875">
        <ele>1010.96</ele>
        <time>2025-05-14T12:00:42Z</time>
      </trkpt>
      <trkpt lat="42.510998966172338" lon="1.539570959284902">
        <ele>1010.96</ele>
        <time>2025-05-14T12:00:43Z</time>
      </trkpt>
      <trkpt lat="42.510790005326271" lon="1.539413966238499">
        <ele>1010.48</ele>
        <time>2025-05-14T12:00:48Z</time>
      </trkpt>
      <trkpt lat="42.510370993986726" lon="1.539009036496282">
        <ele>1014.33</ele>
        <time>2025-05-14T12:00:57Z</time>
      </trkpt>
      <trkpt lat="42.510210983455181" lon="1.538846008479595">
        <ele>1017.21</ele>
        <time>2025-05-14T12:01:01Z</time>
      </trkpt>
      <trkpt lat="42.510192962363362" lon="1.538747018203139">
        <ele>1017.6900000000001</ele>
        <time>2025-05-14T12:01:02Z</time>
      </trkpt>
      <trkpt lat="42.510110987350345" lon="1.538778031244874">
        <ele>1018.17</ele>
        <time>2025-05-14T12:01:03Z</time>
      </trkpt>
      <trkpt lat="42.510160021483898" lon="1.538880039006472">
        <ele>1018.65</ele>
        <time>2025-05-14T12:01:04Z</time>
      </trkpt>
      <trkpt lat="42.510158009827137" lon="1.5389200206846">
        <ele>1018.17</ele>
        <time>2025-05-14T12:01:05Z</time>
      </trkpt>
      <trkpt lat="42.510155998170376" lon="1.538974000141025">
        <ele>1017.6900000000001</ele>
        <time>2025-05-14T12:01:06Z</time>
      </trkpt>
      <trkpt lat="42.510153986513615" lon="1.539036026224494">
        <ele>1017.21</ele>
        <time>2025-05-14T12:01:07Z</time>
      </trkpt>
      <trkpt lat="42.510151974856853" lon="1.539102997630835">
        <ele>1016.25</ele>
        <time>2025-05-14T12:01:08Z</time>
      </trkpt>
      <trkpt lat="42.510149963200092" lon="1.539177009835839">
        <ele>1015.77</ele>
        <time>2025-05-14T12:01:09Z</time>
      </trkpt>
      <trkpt lat="42.510147029533982" lon="1.539259990677238">
        <ele>1015.29</ele>
        <time>2025-05-14T12:01:10Z</time>
      </trkpt>
      <trkpt lat="42.510142000392079" lon="1.539431987330318">
        <ele>1014.33</ele>
        <time>2025-05-14T12:01:12Z</time>
      </trkpt>
      <trkpt lat="42.510103024542332" lon="1.539627034217119">
        <ele>1012.89</ele>
        <time>2025-05-14T12:01:14Z</time>
      </trkpt>
      <trkpt lat="42.509997999295592" lon="1.539868013933301">
        <ele>1011.4400000000001</ele>
        <time>2025-05-14T12:01:17Z</time>
      </trkpt>
      <trkpt lat="42.509824996814132" lon="1.540115028619766">
        <ele>1009.04</ele>
        <time>2025-05-14T12:01:22Z</time>
      </trkpt>
      <trkpt lat="42.509784009307623" lon="1.54014696367085">
        <ele>1008.5599999999999</ele>
        <time>2025-05-14T12:01:23Z</time>
      </trkpt>
      <trkpt lat="42.509748972952366" lon="1.540174037218094">
        <ele>1008.08</ele>
        <time>2025-05-14T12:01:24Z</time>
      </trkpt>
      <trkpt lat="42.509687030687928" lon="1.540189040824771">
        <ele>1007.6</ele>
        <time>2025-05-14T12:01:29Z</time>
      </trkpt>
      <trkpt lat="42.509602038189769" lon="1.540318038314581">
        <ele>1008.5599999999999</ele>
        <time>2025-05-14T12:01:30Z</time>
      </trkpt>
      <trkpt lat="42.509602038189769" lon="1.540318038314581">
        <ele>1008.08</ele>
        <time>2025-05-14T12:01:31Z</time>
      </trkpt>
      <trkpt lat="42.509602038189769" lon="1.540318038314581">
        <ele>1009.04</ele>
        <time>2025-05-14T12:01:32Z</time>
      </trkpt>
      <trkpt lat="42.509553004056215" lon="1.540395990014076">
        <ele>1009.52</ele>
        <time>2025-05-14T12:01:33Z</time>
      </trkpt>
      <trkpt lat="42.509522996842861" lon="1.540444018319249">
        <ele>1009.52</ele>
        <time>2025-05-14T12:01:34Z</time>
      </trkpt>
      <trkpt lat="42.509491983801126" lon="1.540494980290532">
        <ele>1009.52</ele>
        <time>2025-05-14T12:01:35Z</time>
      </trkpt>
      <trkpt lat="42.509456025436521" lon="1.540551977232099">
        <ele>1010</ele>
        <time>2025-05-14T12:01:36Z</time>
      </trkpt>
      <trkpt lat="42.509418977424502" lon="1.540611991658807">
        <ele>1010.96</ele>
        <time>2025-05-14T12:01:37Z</time>
      </trkpt>
      <trkpt lat="42.509387964382768" lon="1.540662031620741">
        <ele>1010.96</ele>
        <time>2025-05-14T12:01:38Z</time>
      </trkpt>
      <trkpt lat="42.509357035160065" lon="1.540711987763643">
        <ele>1010.96</ele>
        <time>2025-05-14T12:01:39Z</time>
      </trkpt>
      <trkpt lat="42.509325016289949" lon="1.540764039382339">
        <ele>1010.96</ele>
        <time>2025-05-14T12:01:40Z</time>
      </trkpt>
      <trkpt lat="42.509323004633188" lon="1.540767978876829">
        <ele>1010.96</ele>
        <time>2025-05-14T12:01:41Z</time>
      </trkpt>
      <trkpt lat="42.509323004633188" lon="1.540767978876829">
        <ele>1010.96</ele>
        <time>2025-05-14T12:01:42Z</time>
      </trkpt>
      <trkpt lat="42.509323004633188" lon="1.540767978876829">
        <ele>1010.96</ele>
        <time>2025-05-14T12:01:43Z</time>
      </trkpt>
      <trkpt lat="42.509323004633188" lon="1.540767978876829">
        <ele>1010.48</ele>
        <time>2025-05-14T12:01:46Z</time>
      </trkpt>
      <trkpt lat="42.508805003017187" lon="1.541615976020694">
        <ele>1010</ele>
        <time>2025-05-14T12:01:49Z</time>
      </trkpt>
      <trkpt lat="42.508819000795484" lon="1.541699040681124">
        <ele>1010</ele>
        <time>2025-05-14T12:01:50Z</time>
      </trkpt>
      <trkpt lat="42.508844984695315" lon="1.541848992928863">
        <ele>1009.52</ele>
        <time>2025-05-14T12:01:52Z</time>
      </trkpt>
      <trkpt lat="42.508852025493979" lon="1.541897021234036">
        <ele>1009.52</ele>
        <time>2025-05-14T12:01:53Z</time>
      </trkpt>
      <trkpt lat="42.508858982473612" lon="1.541964998468757">
        <ele>1010</ele>
        <time>2025-05-14T12:01:54Z</time>
      </trkpt>
      <trkpt lat="42.508865017443895" lon="1.542027024552226">
        <ele>1010</ele>
        <time>2025-05-14T12:01:55Z</time>
      </trkpt>
      <trkpt lat="42.508869962766767" lon="1.542083015665412">
        <ele>1010</ele>
        <time>2025-05-14T12:01:56Z</time>
      </trkpt>
      <trkpt lat="42.508873986080289" lon="1.54212299734354">
        <ele>1010</ele>
        <time>2025-05-14T12:01:57Z</time>
      </trkpt>
      <trkpt lat="42.508877003565431" lon="1.542160967364907">
        <ele>1010.48</ele>
        <time>2025-05-14T12:01:58Z</time>
      </trkpt>
      <trkpt lat="42.508880021050572" lon="1.542198015376926">
        <ele>1011.4400000000001</ele>
        <time>2025-05-14T12:01:59Z</time>
      </trkpt>
      <trkpt lat="42.508883038535714" lon="1.542233973741531">
        <ele>1011.9299999999999</ele>
        <time>2025-05-14T12:02:00Z</time>
      </trkpt>
      <trkpt lat="42.508886978030205" lon="1.542283007875085">
        <ele>1012.41</ele>
        <time>2025-05-14T12:02:01Z</time>
      </trkpt>
      <trkpt lat="42.508891001343727" lon="1.542342016473413">
        <ele>1012.41</ele>
        <time>2025-05-14T12:02:02Z</time>
      </trkpt>
      <trkpt lat="42.50889603048563" lon="1.54240001924336">
        <ele>1012.89</ele>
        <time>2025-05-14T12:02:03Z</time>
      </trkpt>
      <trkpt lat="42.508900975808501" lon="1.54246598482132">
        <ele>1012.89</ele>
        <time>2025-05-14T12:02:04Z</time>
      </trkpt>
      <trkpt lat="42.508908016607165" lon="1.542543014511466">
        <ele>1012.89</ele>
        <time>2025-05-14T12:02:05Z</time>
      </trkpt>
      <trkpt lat="42.508913967758417" lon="1.542627001181245">
        <ele>1012.89</ele>
        <time>2025-05-14T12:02:06Z</time>
      </trkpt>
      <trkpt lat="42.508924026042223" lon="1.542704030871391">
        <ele>1012.89</ele>
        <time>2025-05-14T12:02:07Z</time>
      </trkpt>
      <trkpt lat="42.509098034352064" lon="1.54366803355515">
        <ele>1014.8099999999999</ele>
        <time>2025-05-14T12:02:17Z</time>
      </trkpt>
      <trkpt lat="42.509131981059909" lon="1.543884035199881">
        <ele>1015.29</ele>
        <time>2025-05-14T12:02:19Z</time>
      </trkpt>
      <trkpt lat="42.509144973009825" lon="1.543974978849292">
        <ele>1015.29</ele>
        <time>2025-05-14T12:02:20Z</time>
      </trkpt>
      <trkpt lat="42.50915695913136" lon="1.544068017974496">
        <ele>1015.29</ele>
        <time>2025-05-14T12:02:21Z</time>
      </trkpt>
      <trkpt lat="42.509209010750055" lon="1.54444201849401">
        <ele>1015.77</ele>
        <time>2025-05-14T12:02:29Z</time>
      </trkpt>
      <trkpt lat="42.509215967729688" lon="1.544491974636912">
        <ele>1015.77</ele>
        <time>2025-05-14T12:02:30Z</time>
      </trkpt>
      <trkpt lat="42.509233988821507" lon="1.544626001268625">
        <ele>1016.25</ele>
        <time>2025-05-14T12:02:32Z</time>
      </trkpt>
      <trkpt lat="42.509432975202799" lon="1.545366039499641">
        <ele>1017.21</ele>
        <time>2025-05-14T12:02:41Z</time>
      </trkpt>
      <trkpt lat="42.509683007374406" lon="1.546040028333664">
        <ele>1020.58</ele>
        <time>2025-05-14T12:02:47Z</time>
      </trkpt>
      <trkpt lat="42.509730029851198" lon="1.546154022216797">
        <ele>1021.0599999999999</ele>
        <time>2025-05-14T12:02:48Z</time>
      </trkpt>
      <trkpt lat="42.509789038449526" lon="1.546235997229815">
        <ele>1021.54</ele>
        <time>2025-05-14T12:02:49Z</time>
      </trkpt>
      <trkpt lat="42.509859027341008" lon="1.546317972242832">
        <ele>1022.02</ele>
        <time>2025-05-14T12:02:50Z</time>
      </trkpt>
      <trkpt lat="42.509944019839168" lon="1.546374969184399">
        <ele>1022.5</ele>
        <time>2025-05-14T12:02:51Z</time>
      </trkpt>
      <trkpt lat="42.510049967095256" lon="1.546375975012779">
        <ele>1023.46</ele>
        <time>2025-05-14T12:02:52Z</time>
      </trkpt>
      <trkpt lat="42.510135965421796" lon="1.546361977234483">
        <ele>1024.4200000000001</ele>
        <time>2025-05-14T12:02:53Z</time>
      </trkpt>
      <trkpt lat="42.510222969576716" lon="1.546346973627806">
        <ele>1025.3800000000001</ele>
        <time>2025-05-14T12:02:54Z</time>
      </trkpt>
      <trkpt lat="42.510312991216779" lon="1.546329036355019">
        <ele>1026.3399999999999</ele>
        <time>2025-05-14T12:02:55Z</time>
      </trkpt>
      <trkpt lat="42.510524969547987" lon="1.546373963356018">
        <ele>1027.3099999999999</ele>
        <time>2025-05-14T12:02:57Z</time>
      </trkpt>
      <trkpt lat="42.510635023936629" lon="1.546401036903262">
        <ele>1027.79</ele>
        <time>2025-05-14T12:02:58Z</time>
      </trkpt>
      <trkpt lat="42.510738959535956" lon="1.546456022188067">
        <ele>1028.75</ele>
        <time>2025-05-14T12:02:59Z</time>
      </trkpt>
      <trkpt lat="42.510835016146302" lon="1.546521987766028">
        <ele>1030.6700000000001</ele>
        <time>2025-05-14T12:03:00Z</time>
      </trkpt>
      <trkpt lat="42.510953033342957" lon="1.546604968607426">
        <ele>1031.1500000000001</ele>
        <time>2025-05-14T12:03:01Z</time>
      </trkpt>
      <trkpt lat="42.511013969779015" lon="1.546689039096236">
        <ele>1032.1099999999999</ele>
        <time>2025-05-14T12:03:02Z</time>
      </trkpt>
      <trkpt lat="42.511083036661148" lon="1.546831028535962">
        <ele>1032.5899999999999</ele>
        <time>2025-05-14T12:03:03Z</time>
      </trkpt>
      <trkpt lat="42.511127963662148" lon="1.546980980783701">
        <ele>1033.0699999999999</ele>
        <time>2025-05-14T12:03:04Z</time>
      </trkpt>
      <trkpt lat="42.51117599196732" lon="1.547139985486865">
        <ele>1033.55</ele>
        <time>2025-05-14T12:03:05Z</time>
      </trkpt>
      <trkpt lat="42.511544041335583" lon="1.548550995066762">
        <ele>1041.25</ele>
        <time>2025-05-14T12:03:13Z</time>
      </trkpt>
      <trkpt lat="42.511728024110198" lon="1.549350963905454">
        <ele>1048.45</ele>
        <time>2025-05-14T12:03:18Z</time>
      </trkpt>
      <trkpt lat="42.511764988303185" lon="1.549485996365547">
        <ele>1050.3800000000001</ele>
        <time>2025-05-14T12:03:19Z</time>
      </trkpt>
      <trkpt lat="42.512096995487809" lon="1.550232991576195">
        <ele>1060.95</ele>
        <time>2025-05-14T12:03:27Z</time>
      </trkpt>
      <trkpt lat="42.512205960229039" lon="1.550547983497381">
        <ele>1068.6400000000001</ele>
        <time>2025-05-14T12:03:33Z</time>
      </trkpt>
      <trkpt lat="42.512258011847734" lon="1.550617972388864">
        <ele>1070.5699999999999</ele>
        <time>2025-05-14T12:03:34Z</time>
      </trkpt>
      <trkpt lat="42.512324983254075" lon="1.550692990422249">
        <ele>1072.97</ele>
        <time>2025-05-14T12:03:35Z</time>
      </trkpt>
      <trkpt lat="42.51282999292016" lon="1.551227001473308">
        <ele>1084.02</ele>
        <time>2025-05-14T12:03:41Z</time>
      </trkpt>
      <trkpt lat="42.51302202232182" lon="1.551486002281308">
        <ele>1087.3900000000001</ele>
        <time>2025-05-14T12:03:43Z</time>
      </trkpt>
      <trkpt lat="42.513102991506457" lon="1.551653975620866">
        <ele>1088.3499999999999</ele>
        <time>2025-05-14T12:03:44Z</time>
      </trkpt>
      <trkpt lat="42.513171974569559" lon="1.551823038607836">
        <ele>1089.79</ele>
        <time>2025-05-14T12:03:45Z</time>
      </trkpt>
      <trkpt lat="42.513376995921135" lon="1.552353026345372">
        <ele>1093.1600000000001</ele>
        <time>2025-05-14T12:03:48Z</time>
      </trkpt>
      <trkpt lat="42.513442961499095" lon="1.552527034655213">
        <ele>1094.5999999999999</ele>
        <time>2025-05-14T12:03:49Z</time>
      </trkpt>
      <trkpt lat="42.513539018109441" lon="1.552656032145023">
        <ele>1096.04</ele>
        <time>2025-05-14T12:03:50Z</time>
      </trkpt>
      <trkpt lat="42.513635996729136" lon="1.552784023806453">
        <ele>1097.48</ele>
        <time>2025-05-14T12:03:51Z</time>
      </trkpt>
      <trkpt lat="42.513743033632636" lon="1.552873039618135">
        <ele>1098.9200000000001</ele>
        <time>2025-05-14T12:03:52Z</time>
      </trkpt>
      <trkpt lat="42.513855015859008" lon="1.552964989095926">
        <ele>1100.3699999999999</ele>
        <time>2025-05-14T12:03:53Z</time>
      </trkpt>
      <trkpt lat="42.514575021341443" lon="1.553503023460507">
        <ele>1107.0999999999999</ele>
        <time>2025-05-14T12:03:59Z</time>
      </trkpt>
      <trkpt lat="42.514703013002872" lon="1.553588015958667">
        <ele>1108.0599999999999</ele>
        <time>2025-05-14T12:04:00Z</time>
      </trkpt>
      <trkpt lat="42.515211040154099" lon="1.553883980959654">
        <ele>1112.8599999999999</ele>
        <time>2025-05-14T12:04:04Z</time>
      </trkpt>
      <trkpt lat="42.515355041250587" lon="1.553966961801052">
        <ele>1114.79</ele>
        <time>2025-05-14T12:04:05Z</time>
      </trkpt>
      <trkpt lat="42.515776986256242" lon="1.554182041436434">
        <ele>1121.03</ele>
        <time>2025-05-14T12:04:08Z</time>
      </trkpt>
      <trkpt lat="42.515909001231194" lon="1.554200984537602">
        <ele>1122.48</ele>
        <time>2025-05-14T12:04:09Z</time>
      </trkpt>
      <trkpt lat="42.516031041741371" lon="1.554200984537602">
        <ele>1123.9200000000001</ele>
        <time>2025-05-14T12:04:10Z</time>
      </trkpt>
      <trkpt lat="42.51615802757442" lon="1.554172988981009">
        <ele>1125.3599999999999</ele>
        <time>2025-05-14T12:04:11Z</time>
      </trkpt>
      <trkpt lat="42.516280990093946" lon="1.554126972332597">
        <ele>1127.28</ele>
        <time>2025-05-14T12:04:12Z</time>
      </trkpt>
      <trkpt lat="42.516406970098615" lon="1.554080033674836">
        <ele>1128.73</ele>
        <time>2025-05-14T12:04:13Z</time>
      </trkpt>
      <trkpt lat="42.516661025583744" lon="1.553985988721252">
        <ele>1132.5699999999999</ele>
        <time>2025-05-14T12:04:15Z</time>
      </trkpt>
      <trkpt lat="42.516795974224806" lon="1.553904013708234">
        <ele>1134.49</ele>
        <time>2025-05-14T12:04:16Z</time>
      </trkpt>
      <trkpt lat="42.516916003078222" lon="1.553909964859486">
        <ele>1136.9000000000001</ele>
        <time>2025-05-14T12:04:17Z</time>
      </trkpt>
      <trkpt lat="42.517036031931639" lon="1.553965033963323">
        <ele>1138.8199999999999</ele>
        <time>2025-05-14T12:04:18Z</time>
      </trkpt>
      <trkpt lat="42.517139967530966" lon="1.554054971784353">
        <ele>1140.74</ele>
        <time>2025-05-14T12:04:19Z</time>
      </trkpt>
      <trkpt lat="42.517247004434466" lon="1.55415496788919">
        <ele>1142.1800000000001</ele>
        <time>2025-05-14T12:04:20Z</time>
      </trkpt>
      <trkpt lat="42.517653023824096" lon="1.554676992818713">
        <ele>1148.9100000000001</ele>
        <time>2025-05-14T12:04:24Z</time>
      </trkpt>
      <trkpt lat="42.517737010493875" lon="1.554804984480143">
        <ele>1150.3499999999999</ele>
        <time>2025-05-14T12:04:25Z</time>
      </trkpt>
      <trkpt lat="42.517819991335273" lon="1.55492995865643">
        <ele>1151.8</ele>
        <time>2025-05-14T12:04:26Z</time>
      </trkpt>
      <trkpt lat="42.517848992720246" lon="1.555016962811351">
        <ele>1152.76</ele>
        <time>2025-05-14T12:04:27Z</time>
      </trkpt>
      <trkpt lat="42.51779199577868" lon="1.555143026635051">
        <ele>1154.6800000000001</ele>
        <time>2025-05-14T12:04:28Z</time>
      </trkpt>
      <trkpt lat="42.517776992172003" lon="1.555231036618352">
        <ele>1156.1199999999999</ele>
        <time>2025-05-14T12:04:29Z</time>
      </trkpt>
      <trkpt lat="42.51772603020072" lon="1.55542298220098">
        <ele>1156.5999999999999</ele>
        <time>2025-05-14T12:04:30Z</time>
      </trkpt>
      <trkpt lat="42.517758971080184" lon="1.555531024932861">
        <ele>1157.0799999999999</ele>
        <time>2025-05-14T12:04:31Z</time>
      </trkpt>
      <trkpt lat="42.517905989661813" lon="1.555509986355901">
        <ele>1157.5599999999999</ele>
        <time>2025-05-14T12:04:32Z</time>
      </trkpt>
      <trkpt lat="42.517908001318574" lon="1.555714001879096">
        <ele>1158.05</ele>
        <time>2025-05-14T12:04:33Z</time>
      </trkpt>
      <trkpt lat="42.517990982159972" lon="1.555750966072083">
        <ele>1158.53</ele>
        <time>2025-05-14T12:04:34Z</time>
      </trkpt>
      <trkpt lat="42.518075974658132" lon="1.555772004649043">
        <ele>1159.01</ele>
        <time>2025-05-14T12:04:35Z</time>
      </trkpt>
      <trkpt lat="42.5181570276618" lon="1.555807963013649">
        <ele>1159.01</ele>
        <time>2025-05-14T12:04:36Z</time>
      </trkpt>
      <trkpt lat="42.518230034038424" lon="1.555897984653711">
        <ele>1159.49</ele>
        <time>2025-05-14T12:04:37Z</time>
      </trkpt>
      <trkpt lat="42.518304968252778" lon="1.555993035435677">
        <ele>1159.49</ele>
        <time>2025-05-14T12:04:38Z</time>
      </trkpt>
      <trkpt lat="42.518642004579306" lon="1.556374998763204">
        <ele>1156.1199999999999</ele>
        <time>2025-05-14T12:04:42Z</time>
      </trkpt>
      <trkpt lat="42.518745018169284" lon="1.556449010968208">
        <ele>1155.1600000000001</ele>
        <time>2025-05-14T12:04:43Z</time>
      </trkpt>
      <trkpt lat="42.518843002617359" lon="1.556518999859691">
        <ele>1154.2</ele>
        <time>2025-05-14T12:04:44Z</time>
      </trkpt>
      <trkpt lat="42.519635008648038" lon="1.557026021182537">
        <ele>1152.76</ele>
        <time>2025-05-14T12:04:53Z</time>
      </trkpt>
      <trkpt lat="42.520472025498748" lon="1.557778967544437">
        <ele>1158.53</ele>
        <time>2025-05-14T12:05:01Z</time>
      </trkpt>
      <trkpt lat="42.521625040099025" lon="1.559104984626174">
        <ele>1163.8099999999999</ele>
        <time>2025-05-14T12:05:13Z</time>
      </trkpt>
      <trkpt lat="42.522056037560105" lon="1.559748966246843">
        <ele>1166.22</ele>
        <time>2025-05-14T12:05:18Z</time>
      </trkpt>
      <trkpt lat="42.522655008360744" lon="1.560830986127257">
        <ele>1168.6199999999999</ele>
        <time>2025-05-14T12:05:25Z</time>
      </trkpt>
      <trkpt lat="42.523750020191073" lon="1.562052983790636">
        <ele>1170.0599999999999</ele>
        <time>2025-05-14T12:05:34Z</time>
      </trkpt>
      <trkpt lat="42.524320995435119" lon="1.562551958486438">
        <ele>1170.54</ele>
        <time>2025-05-14T12:05:38Z</time>
      </trkpt>
      <trkpt lat="42.524444963783026" lon="1.562744993716478">
        <ele>1170.54</ele>
        <time>2025-05-14T12:05:39Z</time>
      </trkpt>
      <trkpt lat="42.524542026221752" lon="1.562934005632997">
        <ele>1170.54</ele>
        <time>2025-05-14T12:05:40Z</time>
      </trkpt>
      <trkpt lat="42.524641016498208" lon="1.563123017549515">
        <ele>1170.54</ele>
        <time>2025-05-14T12:05:41Z</time>
      </trkpt>
      <trkpt lat="42.524728020653129" lon="1.563337007537484">
        <ele>1171.02</ele>
        <time>2025-05-14T12:05:42Z</time>
      </trkpt>
      <trkpt lat="42.525187013670802" lon="1.564575014635921">
        <ele>1173.9100000000001</ele>
        <time>2025-05-14T12:05:49Z</time>
      </trkpt>
      <trkpt lat="42.525820014998317" lon="1.566205965355039">
        <ele>1181.5999999999999</ele>
        <time>2025-05-14T12:05:58Z</time>
      </trkpt>
      <trkpt lat="42.526803966611624" lon="1.567508010193706">
        <ele>1193.6099999999999</ele>
        <time>2025-05-14T12:06:07Z</time>
      </trkpt>
      <trkpt lat="42.526984009891748" lon="1.567844962701201">
        <ele>1196.98</ele>
        <time>2025-05-14T12:06:09Z</time>
      </trkpt>
      <trkpt lat="42.527681970968843" lon="1.569155976176262">
        <ele>1210.4400000000001</ele>
        <time>2025-05-14T12:06:17Z</time>
      </trkpt>
      <trkpt lat="42.527866959571838" lon="1.569469040259719">
        <ele>1213.3199999999999</ele>
        <time>2025-05-14T12:06:19Z</time>
      </trkpt>
      <trkpt lat="42.527971984818578" lon="1.569629972800612">
        <ele>1214.76</ele>
        <time>2025-05-14T12:06:20Z</time>
      </trkpt>
      <trkpt lat="42.528077010065317" lon="1.569790989160538">
        <ele>1216.21</ele>
        <time>2025-05-14T12:06:21Z</time>
      </trkpt>
      <trkpt lat="42.528186980634928" lon="1.569959968328476">
        <ele>1217.6500000000001</ele>
        <time>2025-05-14T12:06:22Z</time>
      </trkpt>
      <trkpt lat="42.529199011623859" lon="1.571447001770139">
        <ele>1217.6500000000001</ele>
        <time>2025-05-14T12:06:31Z</time>
      </trkpt>
      <trkpt lat="42.529006982222199" lon="1.57119101844728">
        <ele>1217.6500000000001</ele>
        <time>2025-05-14T12:06:33Z</time>
      </trkpt>
      <trkpt lat="42.52907101996243" lon="1.571276010945439">
        <ele>1217.1700000000001</ele>
        <time>2025-05-14T12:06:34Z</time>
      </trkpt>
      <trkpt lat="42.529137991368771" lon="1.571365026757121">
        <ele>1217.6500000000001</ele>
        <time>2025-05-14T12:06:35Z</time>
      </trkpt>
      <trkpt lat="42.529236981645226" lon="1.571498969569802">
        <ele>1217.6500000000001</ele>
        <time>2025-05-14T12:06:36Z</time>
      </trkpt>
      <trkpt lat="42.529300013557076" lon="1.571796024218202">
        <ele>1217.6500000000001</ele>
        <time>2025-05-14T12:06:37Z</time>
      </trkpt>
      <trkpt lat="42.529305964708328" lon="1.571905994787812">
        <ele>1217.6500000000001</ele>
        <time>2025-05-14T12:06:38Z</time>
      </trkpt>
      <trkpt lat="42.529315017163754" lon="1.57205200754106">
        <ele>1217.6500000000001</ele>
        <time>2025-05-14T12:06:39Z</time>
      </trkpt>
      <trkpt lat="42.529363967478275" lon="1.572354007512331">
        <ele>1217.1700000000001</ele>
        <time>2025-05-14T12:06:41Z</time>
      </trkpt>
      <trkpt lat="42.529411995783448" lon="1.572489039972425">
        <ele>1217.1700000000001</ele>
        <time>2025-05-14T12:06:42Z</time>
      </trkpt>
      <trkpt lat="42.529471004381776" lon="1.57265399582684">
        <ele>1217.1700000000001</ele>
        <time>2025-05-14T12:06:43Z</time>
      </trkpt>
      <trkpt lat="42.529623974114656" lon="1.572907967492938">
        <ele>1218.6099999999999</ele>
        <time>2025-05-14T12:06:45Z</time>
      </trkpt>
      <trkpt lat="42.529698992148042" lon="1.573002012446523">
        <ele>1219.5699999999999</ele>
        <time>2025-05-14T12:06:46Z</time>
      </trkpt>
      <trkpt lat="42.529822960495949" lon="1.573094967752695">
        <ele>1221.01</ele>
        <time>2025-05-14T12:06:47Z</time>
      </trkpt>
      <trkpt lat="42.529952963814139" lon="1.573192030191422">
        <ele>1222.9300000000001</ele>
        <time>2025-05-14T12:06:48Z</time>
      </trkpt>
      <trkpt lat="42.530090007930994" lon="1.573294959962368">
        <ele>1224.8599999999999</ele>
        <time>2025-05-14T12:06:49Z</time>
      </trkpt>
      <trkpt lat="42.53036200068891" lon="1.573516996577382">
        <ele>1227.74</ele>
        <time>2025-05-14T12:06:51Z</time>
      </trkpt>
      <trkpt lat="42.530625024810433" lon="1.573765017092228">
        <ele>1231.5899999999999</ele>
        <time>2025-05-14T12:06:53Z</time>
      </trkpt>
      <trkpt lat="42.530767014250159" lon="1.57392100431025">
        <ele>1233.51</ele>
        <time>2025-05-14T12:06:54Z</time>
      </trkpt>
      <trkpt lat="42.53087799064815" lon="1.574090989306569">
        <ele>1235.4300000000001</ele>
        <time>2025-05-14T12:06:55Z</time>
      </trkpt>
      <trkpt lat="42.53098301589489" lon="1.574261980131269">
        <ele>1237.3499999999999</ele>
        <time>2025-05-14T12:06:56Z</time>
      </trkpt>
      <trkpt lat="42.531102038919926" lon="1.57445702701807">
        <ele>1239.28</ele>
        <time>2025-05-14T12:06:57Z</time>
      </trkpt>
      <trkpt lat="42.531180996447802" lon="1.574655007570982">
        <ele>1241.6800000000001</ele>
        <time>2025-05-14T12:06:58Z</time>
      </trkpt>
      <trkpt lat="42.531259031966329" lon="1.574847958981991">
        <ele>1243.5999999999999</ele>
        <time>2025-05-14T12:06:59Z</time>
      </trkpt>
      <trkpt lat="42.531321980059147" lon="1.575066978111863">
        <ele>1245.53</ele>
        <time>2025-05-14T12:07:00Z</time>
      </trkpt>
      <trkpt lat="42.531689023599029" lon="1.577235041186214">
        <ele>1264.75</ele>
        <time>2025-05-14T12:07:11Z</time>
      </trkpt>
      <trkpt lat="42.531787008047104" lon="1.579037988558412">
        <ele>1272.9200000000001</ele>
        <time>2025-05-14T12:07:20Z</time>
      </trkpt>
      <trkpt lat="42.531754989176989" lon="1.579499999061227">
        <ele>1275.3299999999999</ele>
        <time>2025-05-14T12:07:23Z</time>
      </trkpt>
      <trkpt lat="42.531712995842099" lon="1.579650035127997">
        <ele>1275.8099999999999</ele>
        <time>2025-05-14T12:07:24Z</time>
      </trkpt>
      <trkpt lat="42.531617023050785" lon="1.579713989049196">
        <ele>1276.77</ele>
        <time>2025-05-14T12:07:25Z</time>
      </trkpt>
      <trkpt lat="42.531617023050785" lon="1.579810967668891">
        <ele>1277.73</ele>
        <time>2025-05-14T12:07:26Z</time>
      </trkpt>
      <trkpt lat="42.531617023050785" lon="1.579922027885914">
        <ele>1278.6900000000001</ele>
        <time>2025-05-14T12:07:27Z</time>
      </trkpt>
      <trkpt lat="42.531746020540595" lon="1.580033004283905">
        <ele>1280.1300000000001</ele>
        <time>2025-05-14T12:07:28Z</time>
      </trkpt>
      <trkpt lat="42.531746020540595" lon="1.58015001565218">
        <ele>1281.5699999999999</ele>
        <time>2025-05-14T12:07:29Z</time>
      </trkpt>
      <trkpt lat="42.531746020540595" lon="1.580284964293242">
        <ele>1282.54</ele>
        <time>2025-05-14T12:07:30Z</time>
      </trkpt>
      <trkpt lat="42.531745014712214" lon="1.580429971218109">
        <ele>1283.5</ele>
        <time>2025-05-14T12:07:31Z</time>
      </trkpt>
      <trkpt lat="42.53173696808517" lon="1.580579001456499">
        <ele>1284.9400000000001</ele>
        <time>2025-05-14T12:07:32Z</time>
      </trkpt>
      <trkpt lat="42.531681982800364" lon="1.58201901242137">
        <ele>1293.5899999999999</ele>
        <time>2025-05-14T12:07:40Z</time>
      </trkpt>
      <trkpt lat="42.531738979741931" lon="1.582627035677433">
        <ele>1296.48</ele>
        <time>2025-05-14T12:07:43Z</time>
      </trkpt>
      <trkpt lat="42.531984988600016" lon="1.583345029503107">
        <ele>1299.8399999999999</ele>
        <time>2025-05-14T12:07:47Z</time>
      </trkpt>
      <trkpt lat="42.532064029946923" lon="1.583504034206271">
        <ele>1301.28</ele>
        <time>2025-05-14T12:07:48Z</time>
      </trkpt>
      <trkpt lat="42.532139969989657" lon="1.583655998110771">
        <ele>1302.24</ele>
        <time>2025-05-14T12:07:49Z</time>
      </trkpt>
      <trkpt lat="42.532228985801339" lon="1.583790024742484">
        <ele>1303.2</ele>
        <time>2025-05-14T12:07:50Z</time>
      </trkpt>
      <trkpt lat="42.532326970249414" lon="1.583907958120108">
        <ele>1304.1700000000001</ele>
        <time>2025-05-14T12:07:51Z</time>
      </trkpt>
      <trkpt lat="42.532991990447044" lon="1.584671968594194">
        <ele>1313.78</ele>
        <time>2025-05-14T12:07:59Z</time>
      </trkpt>
      <trkpt lat="42.533106990158558" lon="1.584818987175822">
        <ele>1316.1800000000001</ele>
        <time>2025-05-14T12:08:01Z</time>
      </trkpt>
      <trkpt lat="42.533204974606633" lon="1.585021996870637">
        <ele>1317.1400000000001</ele>
        <time>2025-05-14T12:08:03Z</time>
      </trkpt>
      <trkpt lat="42.53325903788209" lon="1.585130961611867">
        <ele>1318.0999999999999</ele>
        <time>2025-05-14T12:08:04Z</time>
      </trkpt>
      <trkpt lat="42.533312011510134" lon="1.58524202182889">
        <ele>1318.5899999999999</ele>
        <time>2025-05-14T12:08:05Z</time>
      </trkpt>
      <trkpt lat="42.533462969586253" lon="1.585549972951412">
        <ele>1320.03</ele>
        <time>2025-05-14T12:08:08Z</time>
      </trkpt>
      <trkpt lat="42.533590961247683" lon="1.585658015683293">
        <ele>1320.51</ele>
        <time>2025-05-14T12:08:09Z</time>
      </trkpt>
      <trkpt lat="42.533661033958197" lon="1.585726998746395">
        <ele>1320.99</ele>
        <time>2025-05-14T12:08:10Z</time>
      </trkpt>
      <trkpt lat="42.534084990620613" lon="1.586140980944037">
        <ele>1323.3900000000001</ele>
        <time>2025-05-14T12:08:15Z</time>
      </trkpt>
      <trkpt lat="42.534198984503746" lon="1.586352959275246">
        <ele>1323.8699999999999</ele>
        <time>2025-05-14T12:08:17Z</time>
      </trkpt>
      <trkpt lat="42.534556975588202" lon="1.587052009999752">
        <ele>1328.6800000000001</ele>
        <time>2025-05-14T12:08:23Z</time>
      </trkpt>
      <trkpt lat="42.534625036641955" lon="1.587158963084221">
        <ele>1329.6400000000001</ele>
        <time>2025-05-14T12:08:24Z</time>
      </trkpt>
      <trkpt lat="42.534694019705057" lon="1.587269017472863">
        <ele>1330.5999999999999</ele>
        <time>2025-05-14T12:08:25Z</time>
      </trkpt>
      <trkpt lat="42.534764008596539" lon="1.587378988042474">
        <ele>1331.5599999999999</ele>
        <time>2025-05-14T12:08:26Z</time>
      </trkpt>
      <trkpt lat="42.5348299741745" lon="1.587483007460833">
        <ele>1333.01</ele>
        <time>2025-05-14T12:08:27Z</time>
      </trkpt>
      <trkpt lat="42.534893006086349" lon="1.587583003565669">
        <ele>1333.97</ele>
        <time>2025-05-14T12:08:28Z</time>
      </trkpt>
      <trkpt lat="42.53495897166431" lon="1.587687022984028">
        <ele>1334.45</ele>
        <time>2025-05-14T12:08:29Z</time>
      </trkpt>
      <trkpt lat="42.535133985802531" lon="1.587964966893196">
        <ele>1336.8499999999999</ele>
        <time>2025-05-14T12:08:32Z</time>
      </trkpt>
      <trkpt lat="42.535178996622562" lon="1.588067980483174">
        <ele>1337.3299999999999</ele>
        <time>2025-05-14T12:08:33Z</time>
      </trkpt>
      <trkpt lat="42.535307994112372" lon="1.588210975751281">
        <ele>1337.8099999999999</ele>
        <time>2025-05-14T12:08:34Z</time>
      </trkpt>
      <trkpt lat="42.535307994112372" lon="1.588210975751281">
        <ele>1338.77</ele>
        <time>2025-05-14T12:08:35Z</time>
      </trkpt>
      <trkpt lat="42.535341018810868" lon="1.58825003542006">
        <ele>1339.73</ele>
        <time>2025-05-14T12:08:36Z</time>
      </trkpt>
      <trkpt lat="42.535407990217209" lon="1.588331004604697">
        <ele>1340.22</ele>
        <time>2025-05-14T12:08:37Z</time>
      </trkpt>
      <trkpt lat="42.536326982080936" lon="1.588855041190982">
        <ele>1345.02</ele>
        <time>2025-05-14T12:08:46Z</time>
      </trkpt>
      <trkpt lat="42.536655971780419" lon="1.589059978723526">
        <ele>1345.5</ele>
        <time>2025-05-14T12:08:49Z</time>
      </trkpt>
      <trkpt lat="42.536770971491933" lon="1.589136002585292">
        <ele>1345.98</ele>
        <time>2025-05-14T12:08:50Z</time>
      </trkpt>
      <trkpt lat="42.536883037537336" lon="1.589247984811664">
        <ele>1345.98</ele>
        <time>2025-05-14T12:08:51Z</time>
      </trkpt>
      <trkpt lat="42.536983033642173" lon="1.589388968423009">
        <ele>1346.46</ele>
        <time>2025-05-14T12:08:52Z</time>
      </trkpt>
      <trkpt lat="42.537079006433487" lon="1.589544033631682">
        <ele>1346.9400000000001</ele>
        <time>2025-05-14T12:08:53Z</time>
      </trkpt>
      <trkpt lat="42.537174979224801" lon="1.58973497338593">
        <ele>1346.9400000000001</ele>
        <time>2025-05-14T12:08:54Z</time>
      </trkpt>
      <trkpt lat="42.537251003086567" lon="1.589886015281081">
        <ele>1347.4300000000001</ele>
        <time>2025-05-14T12:08:55Z</time>
      </trkpt>
      <trkpt lat="42.53779599443078" lon="1.591006005182862">
        <ele>1352.23</ele>
        <time>2025-05-14T12:09:01Z</time>
      </trkpt>
      <trkpt lat="42.537893978878856" lon="1.591198034584522">
        <ele>1353.1900000000001</ele>
        <time>2025-05-14T12:09:02Z</time>
      </trkpt>
      <trkpt lat="42.538001015782356" lon="1.591362990438938">
        <ele>1354.6300000000001</ele>
        <time>2025-05-14T12:09:03Z</time>
      </trkpt>
      <trkpt lat="42.538133030757308" lon="1.59149500541389">
        <ele>1356.0799999999999</ele>
        <time>2025-05-14T12:09:04Z</time>
      </trkpt>
      <trkpt lat="42.538282983005047" lon="1.591587960720062">
        <ele>1357.04</ele>
        <time>2025-05-14T12:09:05Z</time>
      </trkpt>
      <trkpt lat="42.538432013243437" lon="1.591682005673647">
        <ele>1358.48</ele>
        <time>2025-05-14T12:09:06Z</time>
      </trkpt>
      <trkpt lat="42.538591017946601" lon="1.591706983745098">
        <ele>1359.4400000000001</ele>
        <time>2025-05-14T12:09:07Z</time>
      </trkpt>
      <trkpt lat="42.538759997114539" lon="1.591729028150439">
        <ele>1360.8800000000001</ele>
        <time>2025-05-14T12:09:08Z</time>
      </trkpt>
      <trkpt lat="42.538935011252761" lon="1.591751994565129">
        <ele>1361.8399999999999</ele>
        <time>2025-05-14T12:09:09Z</time>
      </trkpt>
      <trkpt lat="42.54011400975287" lon="1.591879986226559">
        <ele>1370.5</ele>
        <time>2025-05-14T12:09:16Z</time>
      </trkpt>
      <trkpt lat="42.54026697948575" lon="1.59199096262455">
        <ele>1371.9400000000001</ele>
        <time>2025-05-14T12:09:17Z</time>
      </trkpt>
      <trkpt lat="42.540464038029313" lon="1.592121971771121">
        <ele>1372.9000000000001</ele>
        <time>2025-05-14T12:09:18Z</time>
      </trkpt>
      <trkpt lat="42.540655983611941" lon="1.592240994796157">
        <ele>1373.8599999999999</ele>
        <time>2025-05-14T12:09:19Z</time>
      </trkpt>
      <trkpt lat="42.540796967223287" lon="1.592329004779458">
        <ele>1375.3</ele>
        <time>2025-05-14T12:09:20Z</time>
      </trkpt>
      <trkpt lat="42.540956977754831" lon="1.592320036143065">
        <ele>1376.26</ele>
        <time>2025-05-14T12:09:21Z</time>
      </trkpt>
      <trkpt lat="42.541091004386544" lon="1.592309977859259">
        <ele>1377.71</ele>
        <time>2025-05-14T12:09:22Z</time>
      </trkpt>
      <trkpt lat="42.541189994663" lon="1.592230014503002">
        <ele>1379.1500000000001</ele>
        <time>2025-05-14T12:09:23Z</time>
      </trkpt>
      <trkpt lat="42.541300971060991" lon="1.592130018398166">
        <ele>1380.5899999999999</ele>
        <time>2025-05-14T12:09:24Z</time>
      </trkpt>
      <trkpt lat="42.541405996307731" lon="1.5920349676162">
        <ele>1381.55</ele>
        <time>2025-05-14T12:09:25Z</time>
      </trkpt>
      <trkpt lat="42.541529964655638" lon="1.591923991218209">
        <ele>1382.51</ele>
        <time>2025-05-14T12:09:26Z</time>
      </trkpt>
      <trkpt lat="42.541828025132418" lon="1.591722993180156">
        <ele>1383.96</ele>
        <time>2025-05-14T12:09:28Z</time>
      </trkpt>
      <trkpt lat="42.541980994865298" lon="1.591665996238589">
        <ele>1384.4400000000001</ele>
        <time>2025-05-14T12:09:29Z</time>
      </trkpt>
      <trkpt lat="42.542160032317042" lon="1.591639006510377">
        <ele>1385.4000000000001</ele>
        <time>2025-05-14T12:09:30Z</time>
      </trkpt>
      <trkpt lat="42.542323982343078" lon="1.591608999297023">
        <ele>1386.3599999999999</ele>
        <time>2025-05-14T12:09:31Z</time>
      </trkpt>
      <trkpt lat="42.542484998703003" lon="1.591578992083669">
        <ele>1387.8</ele>
        <time>2025-05-14T12:09:32Z</time>
      </trkpt>
      <trkpt lat="42.543104002252221" lon="1.591544961556792">
        <ele>1391.1700000000001</ele>
        <time>2025-05-14T12:09:36Z</time>
      </trkpt>
      <trkpt lat="42.543268958106637" lon="1.591590978205204">
        <ele>1392.1300000000001</ele>
        <time>2025-05-14T12:09:37Z</time>
      </trkpt>
      <trkpt lat="42.543439026921988" lon="1.591639006510377">
        <ele>1392.6099999999999</ele>
        <time>2025-05-14T12:09:38Z</time>
      </trkpt>
      <trkpt lat="42.543612029403448" lon="1.59168703481555">
        <ele>1393.0899999999999</ele>
        <time>2025-05-14T12:09:39Z</time>
      </trkpt>
      <trkpt lat="42.543796012178063" lon="1.59173296764493">
        <ele>1394.05</ele>
        <time>2025-05-14T12:09:40Z</time>
      </trkpt>
      <trkpt lat="42.543975971639156" lon="1.591777978464961">
        <ele>1394.53</ele>
        <time>2025-05-14T12:09:41Z</time>
      </trkpt>
      <trkpt lat="42.544149979948997" lon="1.591820977628231">
        <ele>1395.01</ele>
        <time>2025-05-14T12:09:42Z</time>
      </trkpt>
      <trkpt lat="42.544313007965684" lon="1.591826006770134">
        <ele>1395.49</ele>
        <time>2025-05-14T12:09:43Z</time>
      </trkpt>
      <trkpt lat="42.544477041810751" lon="1.591791976243258">
        <ele>1395.97</ele>
        <time>2025-05-14T12:09:44Z</time>
      </trkpt>
      <trkpt lat="42.544644009321928" lon="1.591734979301691">
        <ele>1396.9300000000001</ele>
        <time>2025-05-14T12:09:45Z</time>
      </trkpt>
      <trkpt lat="42.544813994318247" lon="1.591676976531744">
        <ele>1397.4100000000001</ele>
        <time>2025-05-14T12:09:46Z</time>
      </trkpt>
      <trkpt lat="42.545868018642068" lon="1.591440020129085">
        <ele>1401.74</ele>
        <time>2025-05-14T12:09:52Z</time>
      </trkpt>
      <trkpt lat="42.546038003638387" lon="1.591444965451956">
        <ele>1402.22</ele>
        <time>2025-05-14T12:09:53Z</time>
      </trkpt>
      <trkpt lat="42.546207988634706" lon="1.591451000422239">
        <ele>1403.1800000000001</ele>
        <time>2025-05-14T12:09:54Z</time>
      </trkpt>
      <trkpt lat="42.546383002772927" lon="1.59151797182858">
        <ele>1403.6600000000001</ele>
        <time>2025-05-14T12:09:55Z</time>
      </trkpt>
      <trkpt lat="42.54655902273953" lon="1.591590978205204">
        <ele>1404.1400000000001</ele>
        <time>2025-05-14T12:09:56Z</time>
      </trkpt>
      <trkpt lat="42.547496035695076" lon="1.59181603230536">
        <ele>1406.0699999999999</ele>
        <time>2025-05-14T12:10:01Z</time>
      </trkpt>
      <trkpt lat="42.547669960185885" lon="1.59181603230536">
        <ele>1406.0699999999999</ele>
        <time>2025-05-14T12:10:02Z</time>
      </trkpt>
      <trkpt lat="42.549267970025539" lon="1.591548984870315">
        <ele>1407.51</ele>
        <time>2025-05-14T12:10:11Z</time>
      </trkpt>
      <trkpt lat="42.550480999052525" lon="1.591095020994544">
        <ele>1409.4300000000001</ele>
        <time>2025-05-14T12:10:19Z</time>
      </trkpt>
      <trkpt lat="42.551015010103583" lon="1.590828979387879">
        <ele>1410.3900000000001</ele>
        <time>2025-05-14T12:10:25Z</time>
      </trkpt>
      <trkpt lat="42.551076030358672" lon="1.590794026851654">
        <ele>1410.3900000000001</ele>
        <time>2025-05-14T12:10:26Z</time>
      </trkpt>
      <trkpt lat="42.551164962351322" lon="1.590742981061339">
        <ele>1410.3900000000001</ele>
        <time>2025-05-14T12:10:27Z</time>
      </trkpt>
      <trkpt lat="42.551256995648146" lon="1.590684978291392">
        <ele>1410.3900000000001</ele>
        <time>2025-05-14T12:10:28Z</time>
      </trkpt>
      <trkpt lat="42.551365038380027" lon="1.590615995228291">
        <ele>1410.3900000000001</ele>
        <time>2025-05-14T12:10:29Z</time>
      </trkpt>
      <trkpt lat="42.552191996946931" lon="1.589700020849705">
        <ele>1409.9100000000001</ele>
        <time>2025-05-14T12:10:36Z</time>
      </trkpt>
      <trkpt lat="42.552890963852406" lon="1.588914971798658">
        <ele>1410.8699999999999</ele>
        <time>2025-05-14T12:10:41Z</time>
      </trkpt>
      <trkpt lat="42.553056003525853" lon="1.58883199095726">
        <ele>1410.8699999999999</ele>
        <time>2025-05-14T12:10:42Z</time>
      </trkpt>
      <trkpt lat="42.553224982693791" lon="1.588748004287481">
        <ele>1411.3499999999999</ele>
        <time>2025-05-14T12:10:43Z</time>
      </trkpt>
      <trkpt lat="42.553388010710478" lon="1.58870299346745">
        <ele>1411.3499999999999</ele>
        <time>2025-05-14T12:10:44Z</time>
      </trkpt>
      <trkpt lat="42.553552966564894" lon="1.588655970990658">
        <ele>1411.8299999999999</ele>
        <time>2025-05-14T12:10:45Z</time>
      </trkpt>
      <trkpt lat="42.553892014548182" lon="1.588614983484149">
        <ele>1412.3099999999999</ele>
        <time>2025-05-14T12:10:47Z</time>
      </trkpt>
      <trkpt lat="42.554427031427622" lon="1.58855396322906">
        <ele>1414.24</ele>
        <time>2025-05-14T12:10:50Z</time>
      </trkpt>
      <trkpt lat="42.555411988869309" lon="1.588511969894171">
        <ele>1422.8900000000001</ele>
        <time>2025-05-14T12:10:56Z</time>
      </trkpt>
      <trkpt lat="42.555567976087332" lon="1.58855396322906">
        <ele>1424.3299999999999</ele>
        <time>2025-05-14T12:10:57Z</time>
      </trkpt>
      <trkpt lat="42.555720023810863" lon="1.588596040382981">
        <ele>1425.77</ele>
        <time>2025-05-14T12:10:58Z</time>
      </trkpt>
      <trkpt lat="42.556140040978789" lon="1.588712967932224">
        <ele>1431.0599999999999</ele>
        <time>2025-05-14T12:11:01Z</time>
      </trkpt>
      <trkpt lat="42.556285969913006" lon="1.588712967932224">
        <ele>1432.98</ele>
        <time>2025-05-14T12:11:02Z</time>
      </trkpt>
      <trkpt lat="42.556854011490941" lon="1.588662005960941">
        <ele>1437.79</ele>
        <time>2025-05-14T12:11:06Z</time>
      </trkpt>
      <trkpt lat="42.558300979435444" lon="1.588988984003663">
        <ele>1453.6500000000001</ele>
        <time>2025-05-14T12:11:16Z</time>
      </trkpt>
      <trkpt lat="42.558693001046777" lon="1.589148994535208">
        <ele>1457.98</ele>
        <time>2025-05-14T12:11:19Z</time>
      </trkpt>
      <trkpt lat="42.558816969394684" lon="1.589184030890465">
        <ele>1459.4200000000001</ele>
        <time>2025-05-14T12:11:20Z</time>
      </trkpt>
      <trkpt lat="42.559490958228707" lon="1.589284026995301">
        <ele>1462.3</ele>
        <time>2025-05-14T12:11:25Z</time>
      </trkpt>
      <trkpt lat="42.559632025659084" lon="1.589386034756899">
        <ele>1463.26</ele>
        <time>2025-05-14T12:11:26Z</time>
      </trkpt>
      <trkpt lat="42.560845976695418" lon="1.590161025524139">
        <ele>1475.28</ele>
        <time>2025-05-14T12:11:34Z</time>
      </trkpt>
      <trkpt lat="42.561011016368866" lon="1.590219028294087">
        <ele>1477.6800000000001</ele>
        <time>2025-05-14T12:11:35Z</time>
      </trkpt>
      <trkpt lat="42.561183013021946" lon="1.590237971395254">
        <ele>1479.6099999999999</ele>
        <time>2025-05-14T12:11:36Z</time>
      </trkpt>
      <trkpt lat="42.561998991295695" lon="1.590344002470374">
        <ele>1489.22</ele>
        <time>2025-05-14T12:11:41Z</time>
      </trkpt>
      <trkpt lat="42.562780017033219" lon="1.590495966374874">
        <ele>1498.8299999999999</ele>
        <time>2025-05-14T12:11:46Z</time>
      </trkpt>
      <trkpt lat="42.563763968646526" lon="1.590978009626269">
        <ele>1511.8099999999999</ele>
        <time>2025-05-14T12:11:53Z</time>
      </trkpt>
      <trkpt lat="42.563877962529659" lon="1.591083034873009">
        <ele>1512.77</ele>
        <time>2025-05-14T12:11:54Z</time>
      </trkpt>
      <trkpt lat="42.563976030796766" lon="1.591262994334102">
        <ele>1514.21</ele>
        <time>2025-05-14T12:11:55Z</time>
      </trkpt>
      <trkpt lat="42.564025986939669" lon="1.591664990410209">
        <ele>1516.6199999999999</ele>
        <time>2025-05-14T12:11:57Z</time>
      </trkpt>
      <trkpt lat="42.564080972224474" lon="1.592173017561436">
        <ele>1520.46</ele>
        <time>2025-05-14T12:12:00Z</time>
      </trkpt>
      <trkpt lat="42.564132018014789" lon="1.592316012829542">
        <ele>1521.4200000000001</ele>
        <time>2025-05-14T12:12:01Z</time>
      </trkpt>
      <trkpt lat="42.564190020784736" lon="1.592480968683958">
        <ele>1522.3900000000001</ele>
        <time>2025-05-14T12:12:02Z</time>
      </trkpt>
      <trkpt lat="42.564232014119625" lon="1.592573001980782">
        <ele>1523.3499999999999</ele>
        <time>2025-05-14T12:12:03Z</time>
      </trkpt>
      <trkpt lat="42.564296973869205" lon="1.592717003077269">
        <ele>1523.8299999999999</ele>
        <time>2025-05-14T12:12:04Z</time>
      </trkpt>
      <trkpt lat="42.564381966367364" lon="1.592904003337026">
        <ele>1525.27</ele>
        <time>2025-05-14T12:12:06Z</time>
      </trkpt>
      <trkpt lat="42.564362017437816" lon="1.593145988881588">
        <ele>1525.75</ele>
        <time>2025-05-14T12:12:07Z</time>
      </trkpt>
      <trkpt lat="42.564370986074209" lon="1.593170966953039">
        <ele>1526.23</ele>
        <time>2025-05-14T12:12:08Z</time>
      </trkpt>
      <trkpt lat="42.564405016601086" lon="1.593254031613469">
        <ele>1527.1900000000001</ele>
        <time>2025-05-14T12:12:09Z</time>
      </trkpt>
      <trkpt lat="42.564451033249497" lon="1.593273980543017">
        <ele>1527.1900000000001</ele>
        <time>2025-05-14T12:12:10Z</time>
      </trkpt>
      <trkpt lat="42.564503001049161" lon="1.593296024948359">
        <ele>1527.6700000000001</ele>
        <time>2025-05-14T12:12:11Z</time>
      </trkpt>
      <trkpt lat="42.564554968848825" lon="1.593317985534668">
        <ele>1527.6700000000001</ele>
        <time>2025-05-14T12:12:12Z</time>
      </trkpt>
      <trkpt lat="42.564653037115932" lon="1.593190999701619">
        <ele>1527.6700000000001</ele>
        <time>2025-05-14T12:12:13Z</time>
      </trkpt>
      <trkpt lat="42.564743980765343" lon="1.593202985823154">
        <ele>1528.1500000000001</ele>
        <time>2025-05-14T12:12:14Z</time>
      </trkpt>
      <trkpt lat="42.565305987372994" lon="1.593274986371398">
        <ele>1527.1900000000001</ele>
        <time>2025-05-14T12:12:19Z</time>
      </trkpt>
      <trkpt lat="42.565438002347946" lon="1.593377999961376">
        <ele>1527.1900000000001</ele>
        <time>2025-05-14T12:12:20Z</time>
      </trkpt>
      <trkpt lat="42.565540010109544" lon="1.593483025208116">
        <ele>1527.1900000000001</ele>
        <time>2025-05-14T12:12:21Z</time>
      </trkpt>
      <trkpt lat="42.565627014264464" lon="1.593604981899262">
        <ele>1527.6700000000001</ele>
        <time>2025-05-14T12:12:22Z</time>
      </trkpt>
      <trkpt lat="42.565714018419385" lon="1.59372802823782">
        <ele>1527.6700000000001</ele>
        <time>2025-05-14T12:12:23Z</time>
      </trkpt>
      <trkpt lat="42.566123977303505" lon="1.594329010695219">
        <ele>1529.1099999999999</ele>
        <time>2025-05-14T12:12:28Z</time>
      </trkpt>
      <trkpt lat="42.566191032528877" lon="1.594449039548636">
        <ele>1529.5899999999999</ele>
        <time>2025-05-14T12:12:29Z</time>
      </trkpt>
      <trkpt lat="42.566248029470444" lon="1.594576025381684">
        <ele>1529.5899999999999</ele>
        <time>2025-05-14T12:12:30Z</time>
      </trkpt>
      <trkpt lat="42.566279964521527" lon="1.594722960144281">
        <ele>1530.0799999999999</ele>
        <time>2025-05-14T12:12:31Z</time>
      </trkpt>
      <trkpt lat="42.566293040290475" lon="1.594863021746278">
        <ele>1530.5599999999999</ele>
        <time>2025-05-14T12:12:32Z</time>
      </trkpt>
      <trkpt lat="42.566275019198656" lon="1.59499897621572">
        <ele>1531.04</ele>
        <time>2025-05-14T12:12:33Z</time>
      </trkpt>
      <trkpt lat="42.566255992278457" lon="1.595141971483827">
        <ele>1532</ele>
        <time>2025-05-14T12:12:34Z</time>
      </trkpt>
      <trkpt lat="42.566109979525208" lon="1.595967002213001">
        <ele>1533.9200000000001</ele>
        <time>2025-05-14T12:12:40Z</time>
      </trkpt>
      <trkpt lat="42.566077038645744" lon="1.596095999702811">
        <ele>1534.4000000000001</ele>
        <time>2025-05-14T12:12:41Z</time>
      </trkpt>
      <trkpt lat="42.565949968993664" lon="1.596470000222325">
        <ele>1533.9200000000001</ele>
        <time>2025-05-14T12:12:44Z</time>
      </trkpt>
      <trkpt lat="42.565885009244084" lon="1.596621964126825">
        <ele>1533.9200000000001</ele>
        <time>2025-05-14T12:12:45Z</time>
      </trkpt>
      <trkpt lat="42.565801022574306" lon="1.596946008503437">
        <ele>1533.4400000000001</ele>
        <time>2025-05-14T12:12:48Z</time>
      </trkpt>
      <trkpt lat="42.565777972340584" lon="1.597066037356854">
        <ele>1532.96</ele>
        <time>2025-05-14T12:12:49Z</time>
      </trkpt>
      <trkpt lat="42.565757017582655" lon="1.597175002098084">
        <ele>1532.96</ele>
        <time>2025-05-14T12:12:50Z</time>
      </trkpt>
      <trkpt lat="42.565738996490836" lon="1.597266029566526">
        <ele>1532.48</ele>
        <time>2025-05-14T12:12:51Z</time>
      </trkpt>
      <trkpt lat="42.565740002319217" lon="1.59733803011477">
        <ele>1532.48</ele>
        <time>2025-05-14T12:12:52Z</time>
      </trkpt>
      <trkpt lat="42.565746959298849" lon="1.597394021227956">
        <ele>1532</ele>
        <time>2025-05-14T12:12:53Z</time>
      </trkpt>
      <trkpt lat="42.565750982612371" lon="1.597435008734465">
        <ele>1532</ele>
        <time>2025-05-14T12:12:54Z</time>
      </trkpt>
      <trkpt lat="42.565755005925894" lon="1.597468033432961">
        <ele>1531.52</ele>
        <time>2025-05-14T12:13:03Z</time>
      </trkpt>
      <trkpt lat="42.565761040896177" lon="1.597579009830952">
        <ele>1529.5899999999999</ele>
        <time>2025-05-14T12:13:16Z</time>
      </trkpt>
      <trkpt lat="42.565786018967628" lon="1.597642963752151">
        <ele>1529.5899999999999</ele>
        <time>2025-05-14T12:13:17Z</time>
      </trkpt>
      <trkpt lat="42.566140992566943" lon="1.598534965887666">
        <ele>1531.04</ele>
        <time>2025-05-14T12:13:28Z</time>
      </trkpt>
      <trkpt lat="42.566217016428709" lon="1.598708974197507">
        <ele>1532</ele>
        <time>2025-05-14T12:13:30Z</time>
      </trkpt>
      <trkpt lat="42.566253980621696" lon="1.598793966695666">
        <ele>1532.96</ele>
        <time>2025-05-14T12:13:31Z</time>
      </trkpt>
      <trkpt lat="42.566358000040054" lon="1.59903896972537">
        <ele>1534.4000000000001</ele>
        <time>2025-05-14T12:13:34Z</time>
      </trkpt>
      <trkpt lat="42.566442992538214" lon="1.599282966926694">
        <ele>1535.3599999999999</ele>
        <time>2025-05-14T12:13:37Z</time>
      </trkpt>
      <trkpt lat="42.566543994471431" lon="1.599501986056566">
        <ele>1535.3599999999999</ele>
        <time>2025-05-14T12:13:39Z</time>
      </trkpt>
      <trkpt lat="42.566591016948223" lon="1.599620003253222">
        <ele>1535.3599999999999</ele>
        <time>2025-05-14T12:13:40Z</time>
      </trkpt>
      <trkpt lat="42.56662798114121" lon="1.599730979651213">
        <ele>1535.3599999999999</ele>
        <time>2025-05-14T12:13:41Z</time>
      </trkpt>
      <trkpt lat="42.566689001396298" lon="1.599942035973072">
        <ele>1534.8800000000001</ele>
        <time>2025-05-14T12:13:43Z</time>
      </trkpt>
      <trkpt lat="42.566682966426015" lon="1.6001530084759">
        <ele>1534.8800000000001</ele>
        <time>2025-05-14T12:13:45Z</time>
      </trkpt>
      <trkpt lat="42.5667770113796" lon="1.600187039002776">
        <ele>1534.4000000000001</ele>
        <time>2025-05-14T12:13:46Z</time>
      </trkpt>
      <trkpt lat="42.566900979727507" lon="1.60043396987021">
        <ele>1532.96</ele>
        <time>2025-05-14T12:13:49Z</time>
      </trkpt>
      <trkpt lat="42.567224018275738" lon="1.601093038916588">
        <ele>1532</ele>
        <time>2025-05-14T12:13:57Z</time>
      </trkpt>
      <trkpt lat="42.567253019660711" lon="1.601156992837787">
        <ele>1532</ele>
        <time>2025-05-14T12:13:58Z</time>
      </trkpt>
      <trkpt lat="42.567215971648693" lon="1.60137802362442">
        <ele>1531.52</ele>
        <time>2025-05-14T12:14:00Z</time>
      </trkpt>
      <trkpt lat="42.567237010225654" lon="1.601428985595703">
        <ele>1531.52</ele>
        <time>2025-05-14T12:14:01Z</time>
      </trkpt>
      <trkpt lat="42.567361984401941" lon="1.601416999474168">
        <ele>1531.52</ele>
        <time>2025-05-14T12:14:02Z</time>
      </trkpt>
      <trkpt lat="42.567390985786915" lon="1.601467039436102">
        <ele>1531.04</ele>
        <time>2025-05-14T12:14:03Z</time>
      </trkpt>
      <trkpt lat="42.567428033798933" lon="1.60152998752892">
        <ele>1531.04</ele>
        <time>2025-05-14T12:14:04Z</time>
      </trkpt>
      <trkpt lat="42.567473966628313" lon="1.601609028875828">
        <ele>1530.5599999999999</ele>
        <time>2025-05-14T12:14:05Z</time>
      </trkpt>
      <trkpt lat="42.567519983276725" lon="1.601686980575323">
        <ele>1530.5599999999999</ele>
        <time>2025-05-14T12:14:06Z</time>
      </trkpt>
      <trkpt lat="42.567563988268375" lon="1.601763004437089">
        <ele>1530.0799999999999</ele>
        <time>2025-05-14T12:14:07Z</time>
      </trkpt>
      <trkpt lat="42.567673036828637" lon="1.601952016353607">
        <ele>1529.5899999999999</ele>
        <time>2025-05-14T12:14:10Z</time>
      </trkpt>
      <trkpt lat="42.567704971879721" lon="1.602005995810032">
        <ele>1530.0799999999999</ele>
        <time>2025-05-14T12:14:11Z</time>
      </trkpt>
      <trkpt lat="42.568114008754492" lon="1.6027329582721">
        <ele>1529.5899999999999</ele>
        <time>2025-05-14T12:14:21Z</time>
      </trkpt>
      <trkpt lat="42.568154996261001" lon="1.602853992953897">
        <ele>1529.5899999999999</ele>
        <time>2025-05-14T12:14:22Z</time>
      </trkpt>
      <trkpt lat="42.568614995107055" lon="1.604214040562511">
        <ele>1533.4400000000001</ele>
        <time>2025-05-14T12:14:32Z</time>
      </trkpt>
      <trkpt lat="42.568681966513395" lon="1.60432199947536">
        <ele>1533.4400000000001</ele>
        <time>2025-05-14T12:14:33Z</time>
      </trkpt>
      <trkpt lat="42.568766959011555" lon="1.604424007236958">
        <ele>1533.9200000000001</ele>
        <time>2025-05-14T12:14:34Z</time>
      </trkpt>
      <trkpt lat="42.568848012015224" lon="1.604519980028272">
        <ele>1533.9200000000001</ele>
        <time>2025-05-14T12:14:35Z</time>
      </trkpt>
      <trkpt lat="42.568952031433582" lon="1.604588963091373">
        <ele>1534.4000000000001</ele>
        <time>2025-05-14T12:14:36Z</time>
      </trkpt>
      <trkpt lat="42.569064013659954" lon="1.604627016931772">
        <ele>1534.4000000000001</ele>
        <time>2025-05-14T12:14:37Z</time>
      </trkpt>
      <trkpt lat="42.569184964522719" lon="1.604657024145126">
        <ele>1534.4000000000001</ele>
        <time>2025-05-14T12:14:38Z</time>
      </trkpt>
      <trkpt lat="42.569310022518039" lon="1.604688037186861">
        <ele>1534.4000000000001</ele>
        <time>2025-05-14T12:14:39Z</time>
      </trkpt>
      <trkpt lat="42.57023798301816" lon="1.605033958330751">
        <ele>1535.3599999999999</ele>
        <time>2025-05-14T12:14:46Z</time>
      </trkpt>
      <trkpt lat="42.570352982729673" lon="1.605126997455955">
        <ele>1536.3199999999999</ele>
        <time>2025-05-14T12:14:47Z</time>
      </trkpt>
      <trkpt lat="42.570439986884594" lon="1.605275021865964">
        <ele>1536.8</ele>
        <time>2025-05-14T12:14:48Z</time>
      </trkpt>
      <trkpt lat="42.570515004917979" lon="1.605419022962451">
        <ele>1537.29</ele>
        <time>2025-05-14T12:14:49Z</time>
      </trkpt>
      <trkpt lat="42.570588011294603" lon="1.605559000745416">
        <ele>1538.25</ele>
        <time>2025-05-14T12:14:50Z</time>
      </trkpt>
      <trkpt lat="42.570634027943015" lon="1.605733009055257">
        <ele>1538.73</ele>
        <time>2025-05-14T12:14:51Z</time>
      </trkpt>
      <trkpt lat="42.57066898047924" lon="1.605906011536717">
        <ele>1539.6900000000001</ele>
        <time>2025-05-14T12:14:52Z</time>
      </trkpt>
      <trkpt lat="42.571014985442162" lon="1.607680041342974">
        <ele>1546.9000000000001</ele>
        <time>2025-05-14T12:15:03Z</time>
      </trkpt>
      <trkpt lat="42.571237022057176" lon="1.608325028792024">
        <ele>1549.3</ele>
        <time>2025-05-14T12:15:07Z</time>
      </trkpt>
      <trkpt lat="42.571544973179698" lon="1.609076969325542">
        <ele>1550.26</ele>
        <time>2025-05-14T12:15:11Z</time>
      </trkpt>
      <trkpt lat="42.571593001484871" lon="1.60930504091084">
        <ele>1550.74</ele>
        <time>2025-05-14T12:15:12Z</time>
      </trkpt>
      <trkpt lat="42.571583027020097" lon="1.609506960958242">
        <ele>1551.22</ele>
        <time>2025-05-14T12:15:13Z</time>
      </trkpt>
      <trkpt lat="42.57148596458137" lon="1.610576994717121">
        <ele>1552.1900000000001</ele>
        <time>2025-05-14T12:15:18Z</time>
      </trkpt>
      <trkpt lat="42.571507003158331" lon="1.610772963613272">
        <ele>1552.6700000000001</ele>
        <time>2025-05-14T12:15:19Z</time>
      </trkpt>
      <trkpt lat="42.57152603007853" lon="1.61095904186368">
        <ele>1553.1500000000001</ele>
        <time>2025-05-14T12:15:20Z</time>
      </trkpt>
      <trkpt lat="42.57159199565649" lon="1.611122991889715">
        <ele>1553.6300000000001</ele>
        <time>2025-05-14T12:15:21Z</time>
      </trkpt>
      <trkpt lat="42.571666007861495" lon="1.611293982714415">
        <ele>1553.6300000000001</ele>
        <time>2025-05-14T12:15:22Z</time>
      </trkpt>
      <trkpt lat="42.571744965389371" lon="1.611474025994539">
        <ele>1554.1099999999999</ele>
        <time>2025-05-14T12:15:23Z</time>
      </trkpt>
      <trkpt lat="42.571841021999717" lon="1.611647028476">
        <ele>1554.5899999999999</ele>
        <time>2025-05-14T12:15:24Z</time>
      </trkpt>
      <trkpt lat="42.571940012276173" lon="1.611824976280332">
        <ele>1554.5899999999999</ele>
        <time>2025-05-14T12:15:25Z</time>
      </trkpt>
      <trkpt lat="42.572000026702881" lon="1.612046007066965">
        <ele>1555.0699999999999</ele>
        <time>2025-05-14T12:15:26Z</time>
      </trkpt>
      <trkpt lat="42.572045037522912" lon="1.612267959862948">
        <ele>1555.0699999999999</ele>
        <time>2025-05-14T12:15:27Z</time>
      </trkpt>
      <trkpt lat="42.572059035301208" lon="1.612498965114355">
        <ele>1555.55</ele>
        <time>2025-05-14T12:15:28Z</time>
      </trkpt>
      <trkpt lat="42.572073033079505" lon="1.612733993679285">
        <ele>1555.55</ele>
        <time>2025-05-14T12:15:29Z</time>
      </trkpt>
      <trkpt lat="42.572087030857801" lon="1.612972039729357">
        <ele>1556.03</ele>
        <time>2025-05-14T12:15:30Z</time>
      </trkpt>
      <trkpt lat="42.572175040841103" lon="1.613662037998438">
        <ele>1556.51</ele>
        <time>2025-05-14T12:15:33Z</time>
      </trkpt>
      <trkpt lat="42.572222985327244" lon="1.613886002451181">
        <ele>1556.99</ele>
        <time>2025-05-14T12:15:34Z</time>
      </trkpt>
      <trkpt lat="42.573080034926534" lon="1.616880018264055">
        <ele>1560.3599999999999</ele>
        <time>2025-05-14T12:15:48Z</time>
      </trkpt>
      <trkpt lat="42.57354598492384" lon="1.618141997605562">
        <ele>1559.4000000000001</ele>
        <time>2025-05-14T12:15:55Z</time>
      </trkpt>
      <trkpt lat="42.574071027338505" lon="1.61895202472806">
        <ele>1561.3199999999999</ele>
        <time>2025-05-14T12:16:01Z</time>
      </trkpt>
      <trkpt lat="42.574129030108452" lon="1.619092002511025">
        <ele>1561.3199999999999</ele>
        <time>2025-05-14T12:16:02Z</time>
      </trkpt>
      <trkpt lat="42.574155014008284" lon="1.619248995557427">
        <ele>1560.8399999999999</ele>
        <time>2025-05-14T12:16:03Z</time>
      </trkpt>
      <trkpt lat="42.574402028694749" lon="1.620533019304276">
        <ele>1562.76</ele>
        <time>2025-05-14T12:16:12Z</time>
      </trkpt>
      <trkpt lat="42.574763037264347" lon="1.621460979804397">
        <ele>1566.1199999999999</ele>
        <time>2025-05-14T12:16:18Z</time>
      </trkpt>
      <trkpt lat="42.574847023934126" lon="1.621591988950968">
        <ele>1566.6099999999999</ele>
        <time>2025-05-14T12:16:19Z</time>
      </trkpt>
      <trkpt lat="42.574952971190214" lon="1.621697014197707">
        <ele>1567.0899999999999</ele>
        <time>2025-05-14T12:16:20Z</time>
      </trkpt>
      <trkpt lat="42.575060008093715" lon="1.621804973110557">
        <ele>1567.0899999999999</ele>
        <time>2025-05-14T12:16:21Z</time>
      </trkpt>
      <trkpt lat="42.575167967006564" lon="1.621913015842438">
        <ele>1567.0899999999999</ele>
        <time>2025-05-14T12:16:22Z</time>
      </trkpt>
      <trkpt lat="42.575583038851619" lon="1.622360022738576">
        <ele>1567.5699999999999</ele>
        <time>2025-05-14T12:16:26Z</time>
      </trkpt>
      <trkpt lat="42.575670965015888" lon="1.622480973601341">
        <ele>1567.5699999999999</ele>
        <time>2025-05-14T12:16:27Z</time>
      </trkpt>
      <trkpt lat="42.575741037726402" lon="1.622636960819364">
        <ele>1567.5699999999999</ele>
        <time>2025-05-14T12:16:28Z</time>
      </trkpt>
      <trkpt lat="42.575817983597517" lon="1.622808035463095">
        <ele>1567.5699999999999</ele>
        <time>2025-05-14T12:16:29Z</time>
      </trkpt>
      <trkpt lat="42.575889984145761" lon="1.623022025451064">
        <ele>1567.5699999999999</ele>
        <time>2025-05-14T12:16:30Z</time>
      </trkpt>
      <trkpt lat="42.575947986915708" lon="1.623273985460401">
        <ele>1568.05</ele>
        <time>2025-05-14T12:16:31Z</time>
      </trkpt>
      <trkpt lat="42.576222997158766" lon="1.624365979805589">
        <ele>1568.53</ele>
        <time>2025-05-14T12:16:35Z</time>
      </trkpt>
      <trkpt lat="42.576313018798828" lon="1.624592039734125">
        <ele>1569.01</ele>
        <time>2025-05-14T12:16:36Z</time>
      </trkpt>
      <trkpt lat="42.576398011296988" lon="1.624804018065333">
        <ele>1569.01</ele>
        <time>2025-05-14T12:16:37Z</time>
      </trkpt>
      <trkpt lat="42.576475040987134" lon="1.624986995011568">
        <ele>1569.97</ele>
        <time>2025-05-14T12:16:38Z</time>
      </trkpt>
      <trkpt lat="42.576586017385125" lon="1.62516301497817">
        <ele>1570.45</ele>
        <time>2025-05-14T12:16:39Z</time>
      </trkpt>
      <trkpt lat="42.576697999611497" lon="1.625330988317728">
        <ele>1570.9300000000001</ele>
        <time>2025-05-14T12:16:40Z</time>
      </trkpt>
      <trkpt lat="42.576843006536365" lon="1.625475995242596">
        <ele>1571.8900000000001</ele>
        <time>2025-05-14T12:16:41Z</time>
      </trkpt>
      <trkpt lat="42.576993964612484" lon="1.625601975247264">
        <ele>1572.3699999999999</ele>
        <time>2025-05-14T12:16:42Z</time>
      </trkpt>
      <trkpt lat="42.577442983165383" lon="1.625939011573792">
        <ele>1574.3</ele>
        <time>2025-05-14T12:16:45Z</time>
      </trkpt>
      <trkpt lat="42.577594025060534" lon="1.626071026548743">
        <ele>1574.78</ele>
        <time>2025-05-14T12:16:46Z</time>
      </trkpt>
      <trkpt lat="42.577681029215455" lon="1.626251991838217">
        <ele>1575.74</ele>
        <time>2025-05-14T12:16:47Z</time>
      </trkpt>
      <trkpt lat="42.577763004228473" lon="1.626424994319677">
        <ele>1576.7</ele>
        <time>2025-05-14T12:16:48Z</time>
      </trkpt>
      <trkpt lat="42.577815977856517" lon="1.626640995964408">
        <ele>1578.1400000000001</ele>
        <time>2025-05-14T12:16:49Z</time>
      </trkpt>
      <trkpt lat="42.577815977856517" lon="1.626822967082262">
        <ele>1579.0999999999999</ele>
        <time>2025-05-14T12:16:50Z</time>
      </trkpt>
      <trkpt lat="42.577815977856517" lon="1.626990018412471">
        <ele>1580.0599999999999</ele>
        <time>2025-05-14T12:16:51Z</time>
      </trkpt>
      <trkpt lat="42.57780198007822" lon="1.627166038379073">
        <ele>1581.03</ele>
        <time>2025-05-14T12:16:52Z</time>
      </trkpt>
      <trkpt lat="42.577695026993752" lon="1.628132974728942">
        <ele>1587.75</ele>
        <time>2025-05-14T12:16:58Z</time>
      </trkpt>
      <trkpt lat="42.577686980366707" lon="1.628336990252137">
        <ele>1588.72</ele>
        <time>2025-05-14T12:16:59Z</time>
      </trkpt>
      <trkpt lat="42.577711036428809" lon="1.628457019105554">
        <ele>1589.6800000000001</ele>
        <time>2025-05-14T12:17:00Z</time>
      </trkpt>
      <trkpt lat="42.577741965651512" lon="1.628613006323576">
        <ele>1590.1600000000001</ele>
        <time>2025-05-14T12:17:01Z</time>
      </trkpt>
      <trkpt lat="42.577793011441827" lon="1.628756001591682">
        <ele>1591.1199999999999</ele>
        <time>2025-05-14T12:17:02Z</time>
      </trkpt>
      <trkpt lat="42.577853025868535" lon="1.628896985203028">
        <ele>1592.0799999999999</ele>
        <time>2025-05-14T12:17:03Z</time>
      </trkpt>
      <trkpt lat="42.578440010547638" lon="1.630187965929508">
        <ele>1602.1700000000001</ele>
        <time>2025-05-14T12:17:12Z</time>
      </trkpt>
      <trkpt lat="42.578500024974346" lon="1.630368009209633">
        <ele>1603.1400000000001</ele>
        <time>2025-05-14T12:17:13Z</time>
      </trkpt>
      <trkpt lat="42.578519973903894" lon="1.630574036389589">
        <ele>1604.0999999999999</ele>
        <time>2025-05-14T12:17:14Z</time>
      </trkpt>
      <trkpt lat="42.578539000824094" lon="1.630780985578895">
        <ele>1605.0599999999999</ele>
        <time>2025-05-14T12:17:15Z</time>
      </trkpt>
      <trkpt lat="42.578525003045797" lon="1.630988018587232">
        <ele>1606.02</ele>
        <time>2025-05-14T12:17:16Z</time>
      </trkpt>
      <trkpt lat="42.578496001660824" lon="1.631185999140143">
        <ele>1607.9400000000001</ele>
        <time>2025-05-14T12:17:17Z</time>
      </trkpt>
      <trkpt lat="42.57846599444747" lon="1.631385991349816">
        <ele>1609.3800000000001</ele>
        <time>2025-05-14T12:17:18Z</time>
      </trkpt>
      <trkpt lat="42.578435987234116" lon="1.631594030186534">
        <ele>1611.3099999999999</ele>
        <time>2025-05-14T12:17:19Z</time>
      </trkpt>
      <trkpt lat="42.578219985589385" lon="1.633226992562413">
        <ele>1619</ele>
        <time>2025-05-14T12:17:27Z</time>
      </trkpt>
      <trkpt lat="42.578171035274863" lon="1.633871980011463">
        <ele>1621.4000000000001</ele>
        <time>2025-05-14T12:17:31Z</time>
      </trkpt>
      <trkpt lat="42.578043965622783" lon="1.634075995534658">
        <ele>1622.8399999999999</ele>
        <time>2025-05-14T12:17:33Z</time>
      </trkpt>
      <trkpt lat="42.578083025291562" lon="1.634270958602428">
        <ele>1622.8399999999999</ele>
        <time>2025-05-14T12:17:34Z</time>
      </trkpt>
      <trkpt lat="42.578201964497566" lon="1.634327033534646">
        <ele>1623.3199999999999</ele>
        <time>2025-05-14T12:17:35Z</time>
      </trkpt>
      <trkpt lat="42.578223003074527" lon="1.634456031024456">
        <ele>1623.3199999999999</ele>
        <time>2025-05-14T12:17:36Z</time>
      </trkpt>
      <trkpt lat="42.578245969489217" lon="1.634603971615434">
        <ele>1622.8399999999999</ele>
        <time>2025-05-14T12:17:37Z</time>
      </trkpt>
      <trkpt lat="42.57827203720808" lon="1.634771022945643">
        <ele>1622.3599999999999</ele>
        <time>2025-05-14T12:17:38Z</time>
      </trkpt>
      <trkpt lat="42.578300032764673" lon="1.634950982406735">
        <ele>1621.4000000000001</ele>
        <time>2025-05-14T12:17:39Z</time>
      </trkpt>
      <trkpt lat="42.578456019982696" lon="1.63571197539568">
        <ele>1618.52</ele>
        <time>2025-05-14T12:17:43Z</time>
      </trkpt>
      <trkpt lat="42.578780986368656" lon="1.636769017204642">
        <ele>1618.52</ele>
        <time>2025-05-14T12:17:49Z</time>
      </trkpt>
      <trkpt lat="42.578806970268488" lon="1.636950988322496">
        <ele>1619</ele>
        <time>2025-05-14T12:17:50Z</time>
      </trkpt>
      <trkpt lat="42.578832032158971" lon="1.63712901994586">
        <ele>1619.48</ele>
        <time>2025-05-14T12:17:51Z</time>
      </trkpt>
      <trkpt lat="42.578843012452126" lon="1.637303028255701">
        <ele>1619.48</ele>
        <time>2025-05-14T12:17:52Z</time>
      </trkpt>
      <trkpt lat="42.578835971653461" lon="1.637486005201936">
        <ele>1619.96</ele>
        <time>2025-05-14T12:17:53Z</time>
      </trkpt>
      <trkpt lat="42.57876799441874" lon="1.638710014522076">
        <ele>1626.21</ele>
        <time>2025-05-14T12:18:00Z</time>
      </trkpt>
      <trkpt lat="42.578808981925249" lon="1.638862984254956">
        <ele>1627.1700000000001</ele>
        <time>2025-05-14T12:18:01Z</time>
      </trkpt>
      <trkpt lat="42.5788529869169" lon="1.63902098312974">
        <ele>1628.6099999999999</ele>
        <time>2025-05-14T12:18:02Z</time>
      </trkpt>
      <trkpt lat="42.579360008239746" lon="1.640294026583433">
        <ele>1636.78</ele>
        <time>2025-05-14T12:18:10Z</time>
      </trkpt>
      <trkpt lat="42.579403007403016" lon="1.640439033508301">
        <ele>1637.26</ele>
        <time>2025-05-14T12:18:11Z</time>
      </trkpt>
      <trkpt lat="42.579424967989326" lon="1.640558978542686">
        <ele>1638.22</ele>
        <time>2025-05-14T12:18:12Z</time>
      </trkpt>
      <trkpt lat="42.57947500795126" lon="1.640830971300602">
        <ele>1639.1900000000001</ele>
        <time>2025-05-14T12:18:14Z</time>
      </trkpt>
      <trkpt lat="42.579532004892826" lon="1.642469968646765">
        <ele>1643.03</ele>
        <time>2025-05-14T12:18:24Z</time>
      </trkpt>
      <trkpt lat="42.579639963805676" lon="1.644295966252685">
        <ele>1650.72</ele>
        <time>2025-05-14T12:18:35Z</time>
      </trkpt>
      <trkpt lat="42.579801985993981" lon="1.645499020814896">
        <ele>1656.97</ele>
        <time>2025-05-14T12:18:42Z</time>
      </trkpt>
      <trkpt lat="42.579747000709176" lon="1.645695995539427">
        <ele>1657.45</ele>
        <time>2025-05-14T12:18:43Z</time>
      </trkpt>
      <trkpt lat="42.579768039286137" lon="1.645803032442927">
        <ele>1657.9300000000001</ele>
        <time>2025-05-14T12:18:44Z</time>
      </trkpt>
      <trkpt lat="42.579909022897482" lon="1.64587402716279">
        <ele>1658.4100000000001</ele>
        <time>2025-05-14T12:18:45Z</time>
      </trkpt>
      <trkpt lat="42.579960990697145" lon="1.645991960540414">
        <ele>1658.8900000000001</ele>
        <time>2025-05-14T12:18:46Z</time>
      </trkpt>
      <trkpt lat="42.580019999295473" lon="1.646122969686985">
        <ele>1658.8900000000001</ele>
        <time>2025-05-14T12:18:47Z</time>
      </trkpt>
      <trkpt lat="42.580079007893801" lon="1.646277029067278">
        <ele>1659.8499999999999</ele>
        <time>2025-05-14T12:18:48Z</time>
      </trkpt>
      <trkpt lat="42.580243963748217" lon="1.647112034261227">
        <ele>1660.8099999999999</ele>
        <time>2025-05-14T12:18:53Z</time>
      </trkpt>
      <trkpt lat="42.580259973183274" lon="1.64727003313601">
        <ele>1661.3</ele>
        <time>2025-05-14T12:18:54Z</time>
      </trkpt>
      <trkpt lat="42.58024899289012" lon="1.647434988990426">
        <ele>1662.26</ele>
        <time>2025-05-14T12:18:55Z</time>
      </trkpt>
      <trkpt lat="42.58022996596992" lon="1.647598017007113">
        <ele>1662.74</ele>
        <time>2025-05-14T12:18:56Z</time>
      </trkpt>
      <trkpt lat="42.580185038968921" lon="1.647749980911613">
        <ele>1663.22</ele>
        <time>2025-05-14T12:18:57Z</time>
      </trkpt>
      <trkpt lat="42.58014002814889" lon="1.647904962301254">
        <ele>1664.1800000000001</ele>
        <time>2025-05-14T12:18:58Z</time>
      </trkpt>
      <trkpt lat="42.580091999843717" lon="1.648050975054503">
        <ele>1664.6600000000001</ele>
        <time>2025-05-14T12:18:59Z</time>
      </trkpt>
      <trkpt lat="42.579707019031048" lon="1.649121008813381">
        <ele>1669.47</ele>
        <time>2025-05-14T12:19:07Z</time>
      </trkpt>
      <trkpt lat="42.579661002382636" lon="1.649237014353275">
        <ele>1669.95</ele>
        <time>2025-05-14T12:19:08Z</time>
      </trkpt>
      <trkpt lat="42.579622026532888" lon="1.649303985759616">
        <ele>1670.4300000000001</ele>
        <time>2025-05-14T12:19:09Z</time>
      </trkpt>
      <trkpt lat="42.579575004056096" lon="1.649386966601014">
        <ele>1670.9100000000001</ele>
        <time>2025-05-14T12:19:10Z</time>
      </trkpt>
      <trkpt lat="42.579517001286149" lon="1.649452010169625">
        <ele>1670.9100000000001</ele>
        <time>2025-05-14T12:19:11Z</time>
      </trkpt>
      <trkpt lat="42.57945497520268" lon="1.649521999061108">
        <ele>1670.9100000000001</ele>
        <time>2025-05-14T12:19:12Z</time>
      </trkpt>
      <trkpt lat="42.579361014068127" lon="1.649609003216028">
        <ele>1671.3900000000001</ele>
        <time>2025-05-14T12:19:13Z</time>
      </trkpt>
      <trkpt lat="42.579265041276813" lon="1.649675974622369">
        <ele>1671.8699999999999</ele>
        <time>2025-05-14T12:19:14Z</time>
      </trkpt>
      <trkpt lat="42.578804036602378" lon="1.650081994011998">
        <ele>1675.23</ele>
        <time>2025-05-14T12:19:19Z</time>
      </trkpt>
      <trkpt lat="42.578755002468824" lon="1.650218032300472">
        <ele>1675.72</ele>
        <time>2025-05-14T12:19:20Z</time>
      </trkpt>
      <trkpt lat="42.578714014962316" lon="1.650366978719831">
        <ele>1676.6800000000001</ele>
        <time>2025-05-14T12:19:21Z</time>
      </trkpt>
      <trkpt lat="42.578287962824106" lon="1.652119969949126">
        <ele>1690.1400000000001</ele>
        <time>2025-05-14T12:19:31Z</time>
      </trkpt>
      <trkpt lat="42.577697960659862" lon="1.654083011671901">
        <ele>1701.6700000000001</ele>
        <time>2025-05-14T12:19:42Z</time>
      </trkpt>
      <trkpt lat="42.57760601118207" lon="1.654707966372371">
        <ele>1704.0699999999999</ele>
        <time>2025-05-14T12:19:45Z</time>
      </trkpt>
      <trkpt lat="42.577600982040167" lon="1.654912987723947">
        <ele>1705.04</ele>
        <time>2025-05-14T12:19:46Z</time>
      </trkpt>
      <trkpt lat="42.577614979818463" lon="1.655119014903903">
        <ele>1706</ele>
        <time>2025-05-14T12:19:47Z</time>
      </trkpt>
      <trkpt lat="42.577636018395424" lon="1.655329987406731">
        <ele>1706.96</ele>
        <time>2025-05-14T12:19:48Z</time>
      </trkpt>
      <trkpt lat="42.577657978981733" lon="1.655534002929926">
        <ele>1707.9200000000001</ele>
        <time>2025-05-14T12:19:49Z</time>
      </trkpt>
      <trkpt lat="42.577697960659862" lon="1.655718991532922">
        <ele>1708.8800000000001</ele>
        <time>2025-05-14T12:19:50Z</time>
      </trkpt>
      <trkpt lat="42.57775504142046" lon="1.655905991792679">
        <ele>1709.8399999999999</ele>
        <time>2025-05-14T12:19:51Z</time>
      </trkpt>
      <trkpt lat="42.577811032533646" lon="1.656091986224055">
        <ele>1710.8</ele>
        <time>2025-05-14T12:19:52Z</time>
      </trkpt>
      <trkpt lat="42.577869035303593" lon="1.656284015625715">
        <ele>1711.28</ele>
        <time>2025-05-14T12:19:53Z</time>
      </trkpt>
      <trkpt lat="42.578206993639469" lon="1.657026987522841">
        <ele>1714.1700000000001</ele>
        <time>2025-05-14T12:19:57Z</time>
      </trkpt>
      <trkpt lat="42.578309001401067" lon="1.657219016924501">
        <ele>1714.1700000000001</ele>
        <time>2025-05-14T12:19:58Z</time>
      </trkpt>
      <trkpt lat="42.578674033284187" lon="1.657706005498767">
        <ele>1715.6099999999999</ele>
        <time>2025-05-14T12:20:01Z</time>
      </trkpt>
      <trkpt lat="42.579655973240733" lon="1.659185998141766">
        <ele>1722.3399999999999</ele>
        <time>2025-05-14T12:20:10Z</time>
      </trkpt>
      <trkpt lat="42.579765021800995" lon="1.659353971481323">
        <ele>1723.3</ele>
        <time>2025-05-14T12:20:11Z</time>
      </trkpt>
      <trkpt lat="42.581076035276055" lon="1.661059018224478">
        <ele>1738.2</ele>
        <time>2025-05-14T12:20:22Z</time>
      </trkpt>
      <trkpt lat="42.582633979618549" lon="1.662484025582671">
        <ele>1748.78</ele>
        <time>2025-05-14T12:20:33Z</time>
      </trkpt>
      <trkpt lat="42.583571998402476" lon="1.663211993873119">
        <ele>1751.1800000000001</ele>
        <time>2025-05-14T12:20:40Z</time>
      </trkpt>
      <trkpt lat="42.583681968972087" lon="1.663327999413014">
        <ele>1751.6600000000001</ele>
        <time>2025-05-14T12:20:41Z</time>
      </trkpt>
      <trkpt lat="42.583766039460897" lon="1.66347099468112">
        <ele>1752.1400000000001</ele>
        <time>2025-05-14T12:20:42Z</time>
      </trkpt>
      <trkpt lat="42.583823958411813" lon="1.663622036576271">
        <ele>1753.0999999999999</ele>
        <time>2025-05-14T12:20:43Z</time>
      </trkpt>
      <trkpt lat="42.583867041394114" lon="1.663787998259068">
        <ele>1754.0599999999999</ele>
        <time>2025-05-14T12:20:44Z</time>
      </trkpt>
      <trkpt lat="42.583875004202127" lon="1.663979021832347">
        <ele>1755.02</ele>
        <time>2025-05-14T12:20:45Z</time>
      </trkpt>
      <trkpt lat="42.583848014473915" lon="1.664152024313808">
        <ele>1755.99</ele>
        <time>2025-05-14T12:20:46Z</time>
      </trkpt>
      <trkpt lat="42.583783976733685" lon="1.664313962683082">
        <ele>1756.47</ele>
        <time>2025-05-14T12:20:47Z</time>
      </trkpt>
      <trkpt lat="42.58368699811399" lon="1.664439020678401">
        <ele>1757.4300000000001</ele>
        <time>2025-05-14T12:20:48Z</time>
      </trkpt>
      <trkpt lat="42.58357803337276" lon="1.664547985419631">
        <ele>1757.9100000000001</ele>
        <time>2025-05-14T12:20:49Z</time>
      </trkpt>
      <trkpt lat="42.583453981205821" lon="1.664596013724804">
        <ele>1758.3900000000001</ele>
        <time>2025-05-14T12:20:50Z</time>
      </trkpt>
      <trkpt lat="42.583304028958082" lon="1.664640018716455">
        <ele>1758.8699999999999</ele>
        <time>2025-05-14T12:20:51Z</time>
      </trkpt>
      <trkpt lat="42.583160027861595" lon="1.664618980139494">
        <ele>1759.8299999999999</ele>
        <time>2025-05-14T12:20:52Z</time>
      </trkpt>
      <trkpt lat="42.583007980138063" lon="1.664597019553185">
        <ele>1760.3099999999999</ele>
        <time>2025-05-14T12:20:53Z</time>
      </trkpt>
      <trkpt lat="42.582370033487678" lon="1.664471039548516">
        <ele>1764.1600000000001</ele>
        <time>2025-05-14T12:20:57Z</time>
      </trkpt>
      <trkpt lat="42.582208011299372" lon="1.664466010406613">
        <ele>1765.1199999999999</ele>
        <time>2025-05-14T12:20:58Z</time>
      </trkpt>
      <trkpt lat="42.581369988620281" lon="1.664411025121808">
        <ele>1772.8099999999999</ele>
        <time>2025-05-14T12:21:03Z</time>
      </trkpt>
      <trkpt lat="42.581040998920798" lon="1.66430901736021">
        <ele>1776.6500000000001</ele>
        <time>2025-05-14T12:21:05Z</time>
      </trkpt>
      <trkpt lat="42.580208005383611" lon="1.663966029882431">
        <ele>1786.27</ele>
        <time>2025-05-14T12:21:12Z</time>
      </trkpt>
      <trkpt lat="42.579635018482804" lon="1.663756985217333">
        <ele>1793.48</ele>
        <time>2025-05-14T12:21:18Z</time>
      </trkpt>
      <trkpt lat="42.579208966344595" lon="1.663698982447386">
        <ele>1796.3599999999999</ele>
        <time>2025-05-14T12:21:22Z</time>
      </trkpt>
      <trkpt lat="42.578952983021736" lon="1.663612984120846">
        <ele>1798.76</ele>
        <time>2025-05-14T12:21:24Z</time>
      </trkpt>
      <trkpt lat="42.578862961381674" lon="1.663530003279448">
        <ele>1799.24</ele>
        <time>2025-05-14T12:21:25Z</time>
      </trkpt>
      <trkpt lat="42.578755002468824" lon="1.663430007174611">
        <ele>1800.21</ele>
        <time>2025-05-14T12:21:26Z</time>
      </trkpt>
      <trkpt lat="42.578651988878846" lon="1.663334034383297">
        <ele>1801.1700000000001</ele>
        <time>2025-05-14T12:21:27Z</time>
      </trkpt>
      <trkpt lat="42.578546963632107" lon="1.663252981379628">
        <ele>1802.1300000000001</ele>
        <time>2025-05-14T12:21:28Z</time>
      </trkpt>
      <trkpt lat="42.578433975577354" lon="1.663176035508514">
        <ele>1802.6099999999999</ele>
        <time>2025-05-14T12:21:29Z</time>
      </trkpt>
      <trkpt lat="42.57831403054297" lon="1.663138987496495">
        <ele>1804.05</ele>
        <time>2025-05-14T12:21:30Z</time>
      </trkpt>
      <trkpt lat="42.578081013634801" lon="1.663064975291491">
        <ele>1806.45</ele>
        <time>2025-05-14T12:21:32Z</time>
      </trkpt>
      <trkpt lat="42.577966013923287" lon="1.663055000826716">
        <ele>1807.4200000000001</ele>
        <time>2025-05-14T12:21:33Z</time>
      </trkpt>
      <trkpt lat="42.577855959534645" lon="1.663068998605013">
        <ele>1808.3800000000001</ele>
        <time>2025-05-14T12:21:34Z</time>
      </trkpt>
      <trkpt lat="42.577750012278557" lon="1.66312700137496">
        <ele>1809.8199999999999</ele>
        <time>2025-05-14T12:21:35Z</time>
      </trkpt>
      <trkpt lat="42.577662002295256" lon="1.663200007751584">
        <ele>1811.26</ele>
        <time>2025-05-14T12:21:36Z</time>
      </trkpt>
      <trkpt lat="42.577600982040167" lon="1.663291035220027">
        <ele>1812.7</ele>
        <time>2025-05-14T12:21:37Z</time>
      </trkpt>
      <trkpt lat="42.577566029503942" lon="1.663441993296146">
        <ele>1813.6600000000001</ele>
        <time>2025-05-14T12:21:38Z</time>
      </trkpt>
      <trkpt lat="42.577529987320304" lon="1.663594041019678">
        <ele>1814.6300000000001</ele>
        <time>2025-05-14T12:21:39Z</time>
      </trkpt>
      <trkpt lat="42.577508026733994" lon="1.663737036287785">
        <ele>1815.5899999999999</ele>
        <time>2025-05-14T12:21:40Z</time>
      </trkpt>
      <trkpt lat="42.577493023127317" lon="1.66390098631382">
        <ele>1816.0699999999999</ele>
        <time>2025-05-14T12:21:41Z</time>
      </trkpt>
      <trkpt lat="42.577223964035511" lon="1.665315013378859">
        <ele>1820.8699999999999</ele>
        <time>2025-05-14T12:21:50Z</time>
      </trkpt>
      <trkpt lat="42.576820962131023" lon="1.667026011273265">
        <ele>1827.5999999999999</ele>
        <time>2025-05-14T12:22:01Z</time>
      </trkpt>
      <trkpt lat="42.576677966862917" lon="1.668140972033143">
        <ele>1830.49</ele>
        <time>2025-05-14T12:22:08Z</time>
      </trkpt>
      <trkpt lat="42.576635973528028" lon="1.668268041685224">
        <ele>1830.97</ele>
        <time>2025-05-14T12:22:09Z</time>
      </trkpt>
      <trkpt lat="42.576588029041886" lon="1.668411958962679">
        <ele>1831.45</ele>
        <time>2025-05-14T12:22:10Z</time>
      </trkpt>
      <trkpt lat="42.576035996899009" lon="1.669679973274469">
        <ele>1837.7</ele>
        <time>2025-05-14T12:22:19Z</time>
      </trkpt>
      <trkpt lat="42.575460998341441" lon="1.671493984758854">
        <ele>1845.8699999999999</ele>
        <time>2025-05-14T12:22:31Z</time>
      </trkpt>
      <trkpt lat="42.574904020875692" lon="1.672615986317396">
        <ele>1851.1600000000001</ele>
        <time>2025-05-14T12:22:39Z</time>
      </trkpt>
      <trkpt lat="42.574041020125151" lon="1.673619970679283">
        <ele>1857.4000000000001</ele>
        <time>2025-05-14T12:22:48Z</time>
      </trkpt>
      <trkpt lat="42.57399600930512" lon="1.67374100536108">
        <ele>1857.8900000000001</ele>
        <time>2025-05-14T12:22:49Z</time>
      </trkpt>
      <trkpt lat="42.573972959071398" lon="1.673962958157063">
        <ele>1858.3699999999999</ele>
        <time>2025-05-14T12:22:50Z</time>
      </trkpt>
      <trkpt lat="42.573886038735509" lon="1.674086004495621">
        <ele>1858.8499999999999</ele>
        <time>2025-05-14T12:22:51Z</time>
      </trkpt>
      <trkpt lat="42.573798028752208" lon="1.67421399615705">
        <ele>1859.3299999999999</ele>
        <time>2025-05-14T12:22:52Z</time>
      </trkpt>
      <trkpt lat="42.573699038475752" lon="1.674338970333338">
        <ele>1859.8099999999999</ele>
        <time>2025-05-14T12:22:53Z</time>
      </trkpt>
      <trkpt lat="42.572689019143581" lon="1.675334991887212">
        <ele>1867.5</ele>
        <time>2025-05-14T12:23:01Z</time>
      </trkpt>
      <trkpt lat="42.571491999551654" lon="1.676840968430042">
        <ele>1879.03</ele>
        <time>2025-05-14T12:23:10Z</time>
      </trkpt>
      <trkpt lat="42.569854008033872" lon="1.678103031590581">
        <ele>1891.53</ele>
        <time>2025-05-14T12:23:20Z</time>
      </trkpt>
      <trkpt lat="42.569674970582128" lon="1.678185006603599">
        <ele>1892.97</ele>
        <time>2025-05-14T12:23:21Z</time>
      </trkpt>
      <trkpt lat="42.569488976150751" lon="1.678250972181559">
        <ele>1894.4200000000001</ele>
        <time>2025-05-14T12:23:22Z</time>
      </trkpt>
      <trkpt lat="42.567915022373199" lon="1.678591025993228">
        <ele>1906.4300000000001</ele>
        <time>2025-05-14T12:23:30Z</time>
      </trkpt>
      <trkpt lat="42.567349998280406" lon="1.67859697714448">
        <ele>1910.76</ele>
        <time>2025-05-14T12:23:33Z</time>
      </trkpt>
      <trkpt lat="42.567182024940848" lon="1.678667971864343">
        <ele>1912.2</ele>
        <time>2025-05-14T12:23:34Z</time>
      </trkpt>
      <trkpt lat="42.56701203994453" lon="1.678739972412586">
        <ele>1913.6400000000001</ele>
        <time>2025-05-14T12:23:35Z</time>
      </trkpt>
      <trkpt lat="42.565604969859123" lon="1.679499037563801">
        <ele>1926.6199999999999</ele>
        <time>2025-05-14T12:23:43Z</time>
      </trkpt>
      <trkpt lat="42.565440014004707" lon="1.679567014798522">
        <ele>1928.0599999999999</ele>
        <time>2025-05-14T12:23:44Z</time>
      </trkpt>
      <trkpt lat="42.565268017351627" lon="1.679598027840257">
        <ele>1929.5</ele>
        <time>2025-05-14T12:23:45Z</time>
      </trkpt>
      <trkpt lat="42.565091997385025" lon="1.679612025618553">
        <ele>1930.46</ele>
        <time>2025-05-14T12:23:46Z</time>
      </trkpt>
      <trkpt lat="42.564921006560326" lon="1.679625017568469">
        <ele>1931.9100000000001</ele>
        <time>2025-05-14T12:23:47Z</time>
      </trkpt>
      <trkpt lat="42.5647599902004" lon="1.679638009518385">
        <ele>1933.3499999999999</ele>
        <time>2025-05-14T12:23:48Z</time>
      </trkpt>
      <trkpt lat="42.564612971618772" lon="1.679677991196513">
        <ele>1934.79</ele>
        <time>2025-05-14T12:23:49Z</time>
      </trkpt>
      <trkpt lat="42.564467964693904" lon="1.67975602671504">
        <ele>1936.23</ele>
        <time>2025-05-14T12:23:50Z</time>
      </trkpt>
      <trkpt lat="42.564323963597417" lon="1.679848982021213">
        <ele>1937.6700000000001</ele>
        <time>2025-05-14T12:23:51Z</time>
      </trkpt>
      <trkpt lat="42.564190020784736" lon="1.679976973682642">
        <ele>1939.5999999999999</ele>
        <time>2025-05-14T12:23:52Z</time>
      </trkpt>
      <trkpt lat="42.563773021101952" lon="1.680393973365426">
        <ele>1945.3599999999999</ele>
        <time>2025-05-14T12:23:55Z</time>
      </trkpt>
      <trkpt lat="42.561996979638934" lon="1.682233968749642">
        <ele>1966.03</ele>
        <time>2025-05-14T12:24:07Z</time>
      </trkpt>
      <trkpt lat="42.561190975829959" lon="1.683282963931561">
        <ele>1977.0899999999999</ele>
        <time>2025-05-14T12:24:15Z</time>
      </trkpt>
      <trkpt lat="42.560748998075724" lon="1.684102965518832">
        <ele>1985.26</ele>
        <time>2025-05-14T12:24:22Z</time>
      </trkpt>
      <trkpt lat="42.559951040893793" lon="1.685247011482716">
        <ele>1995.3499999999999</ele>
        <time>2025-05-14T12:24:31Z</time>
      </trkpt>
      <trkpt lat="42.559679970145226" lon="1.685616988688707">
        <ele>1998.72</ele>
        <time>2025-05-14T12:24:34Z</time>
      </trkpt>
      <trkpt lat="42.558749997988343" lon="1.686912998557091">
        <ele>2009.77</ele>
        <time>2025-05-14T12:24:44Z</time>
      </trkpt>
      <trkpt lat="42.557401014491916" lon="1.688834968954325">
        <ele>2022.27</ele>
        <time>2025-05-14T12:24:57Z</time>
      </trkpt>
      <trkpt lat="42.55612101405859" lon="1.68993903324008">
        <ele>2025.6400000000001</ele>
        <time>2025-05-14T12:25:06Z</time>
      </trkpt>
      <trkpt lat="42.554324017837644" lon="1.691569983959198">
        <ele>2029.96</ele>
        <time>2025-05-14T12:25:19Z</time>
      </trkpt>
      <trkpt lat="42.553018033504486" lon="1.693181991577148">
        <ele>2032.3599999999999</ele>
        <time>2025-05-14T12:25:29Z</time>
      </trkpt>
      <trkpt lat="42.551786983385682" lon="1.695017963647842">
        <ele>2037.6500000000001</ele>
        <time>2025-05-14T12:25:41Z</time>
      </trkpt>
      <trkpt lat="42.551766028627753" lon="1.695048976689577">
        <ele>2038.6099999999999</ele>
        <time>2025-05-14T12:25:42Z</time>
      </trkpt>
      <trkpt lat="42.551702996715903" lon="1.695218039676547">
        <ele>2039.0899999999999</ele>
        <time>2025-05-14T12:25:43Z</time>
      </trkpt>
      <trkpt lat="42.551529994234443" lon="1.695219967514277">
        <ele>2040.05</ele>
        <time>2025-05-14T12:25:44Z</time>
      </trkpt>
      <trkpt lat="42.551486995071173" lon="1.695285011082888">
        <ele>2040.54</ele>
        <time>2025-05-14T12:25:45Z</time>
      </trkpt>
      <trkpt lat="42.551433015614748" lon="1.695365980267525">
        <ele>2040.54</ele>
        <time>2025-05-14T12:25:46Z</time>
      </trkpt>
      <trkpt lat="42.551423963159323" lon="1.695530014112592">
        <ele>2041.02</ele>
        <time>2025-05-14T12:25:47Z</time>
      </trkpt>
      <trkpt lat="42.551443995907903" lon="1.695627998560667">
        <ele>2041.5</ele>
        <time>2025-05-14T12:25:48Z</time>
      </trkpt>
      <trkpt lat="42.55143703892827" lon="1.695808041840792">
        <ele>2041.5</ele>
        <time>2025-05-14T12:25:49Z</time>
      </trkpt>
      <trkpt lat="42.551368977874517" lon="1.695918012410402">
        <ele>2041.98</ele>
        <time>2025-05-14T12:25:50Z</time>
      </trkpt>
      <trkpt lat="42.551289014518261" lon="1.696023959666491">
        <ele>2042.46</ele>
        <time>2025-05-14T12:25:51Z</time>
      </trkpt>
      <trkpt lat="42.551198992878199" lon="1.696124961599708">
        <ele>2043.4200000000001</ele>
        <time>2025-05-14T12:25:52Z</time>
      </trkpt>
      <trkpt lat="42.551103020086884" lon="1.696231998503208">
        <ele>2044.3800000000001</ele>
        <time>2025-05-14T12:25:53Z</time>
      </trkpt>
      <trkpt lat="42.550297016277909" lon="1.69737403281033">
        <ele>2053.0300000000002</ele>
        <time>2025-05-14T12:26:01Z</time>
      </trkpt>
      <trkpt lat="42.549269981682301" lon="1.699052006006241">
        <ele>2066.9699999999998</ele>
        <time>2025-05-14T12:26:11Z</time>
      </trkpt>
      <trkpt lat="42.54843195900321" lon="1.699835965409875">
        <ele>2076.0999999999999</ele>
        <time>2025-05-14T12:26:17Z</time>
      </trkpt>
      <trkpt lat="42.548267003148794" lon="1.699915006756783">
        <ele>2077.5500000000002</ele>
        <time>2025-05-14T12:26:18Z</time>
      </trkpt>
      <trkpt lat="42.547642970457673" lon="1.700218012556434">
        <ele>2082.8299999999999</ele>
        <time>2025-05-14T12:26:22Z</time>
      </trkpt>
      <trkpt lat="42.547497041523457" lon="1.700312979519367">
        <ele>2084.2800000000002</ele>
        <time>2025-05-14T12:26:23Z</time>
      </trkpt>
      <trkpt lat="42.547358991578221" lon="1.700421022251248">
        <ele>2085.2399999999998</ele>
        <time>2025-05-14T12:26:24Z</time>
      </trkpt>
      <trkpt lat="42.545732986181974" lon="1.701664980500937">
        <ele>2102.54</ele>
        <time>2025-05-14T12:26:35Z</time>
      </trkpt>
      <trkpt lat="42.544250981882215" lon="1.703112032264471">
        <ele>2117.4400000000001</ele>
        <time>2025-05-14T12:26:45Z</time>
      </trkpt>
      <trkpt lat="42.54348998889327" lon="1.703516039997339">
        <ele>2124.1700000000001</ele>
        <time>2025-05-14T12:26:50Z</time>
      </trkpt>
      <trkpt lat="42.543355962261558" lon="1.703501036390662">
        <ele>2125.1300000000001</ele>
        <time>2025-05-14T12:26:51Z</time>
      </trkpt>
      <trkpt lat="42.54323098808527" lon="1.703487038612366">
        <ele>2126.0900000000001</ele>
        <time>2025-05-14T12:26:52Z</time>
      </trkpt>
      <trkpt lat="42.543022027239203" lon="1.703463988378644">
        <ele>2127.5300000000002</ele>
        <time>2025-05-14T12:26:54Z</time>
      </trkpt>
      <trkpt lat="42.542951032519341" lon="1.703486032783985">
        <ele>2128.5</ele>
        <time>2025-05-14T12:26:55Z</time>
      </trkpt>
      <trkpt lat="42.542882971465588" lon="1.703530959784985">
        <ele>2129.46</ele>
        <time>2025-05-14T12:26:56Z</time>
      </trkpt>
      <trkpt lat="42.542867967858911" lon="1.703604971989989">
        <ele>2129.9400000000001</ele>
        <time>2025-05-14T12:26:57Z</time>
      </trkpt>
      <trkpt lat="42.542880959808826" lon="1.703705973923206">
        <ele>2130.9000000000001</ele>
        <time>2025-05-14T12:26:58Z</time>
      </trkpt>
      <trkpt lat="42.542908033356071" lon="1.703740004450083">
        <ele>2131.3800000000001</ele>
        <time>2025-05-14T12:26:59Z</time>
      </trkpt>
      <trkpt lat="42.542977016419172" lon="1.703800018876791">
        <ele>2131.8600000000001</ele>
        <time>2025-05-14T12:27:00Z</time>
      </trkpt>
      <trkpt lat="42.543053962290287" lon="1.703867996111512">
        <ele>2132.8200000000002</ele>
        <time>2025-05-14T12:27:01Z</time>
      </trkpt>
      <trkpt lat="42.543125040829182" lon="1.703875036910176">
        <ele>2133.3000000000002</ele>
        <time>2025-05-14T12:27:02Z</time>
      </trkpt>
      <trkpt lat="42.543235011398792" lon="1.703887023031712">
        <ele>2133.7800000000002</ele>
        <time>2025-05-14T12:27:03Z</time>
      </trkpt>
      <trkpt lat="42.543753013014793" lon="1.703857015818358">
        <ele>2136.6700000000001</ele>
        <time>2025-05-14T12:27:07Z</time>
      </trkpt>
      <trkpt lat="42.543883016332984" lon="1.7038219794631">
        <ele>2137.6300000000001</ele>
        <time>2025-05-14T12:27:08Z</time>
      </trkpt>
      <trkpt lat="42.544200019910932" lon="1.703737992793322">
        <ele>2140.5100000000002</ele>
        <time>2025-05-14T12:27:11Z</time>
      </trkpt>
      <trkpt lat="42.544271014630795" lon="1.703718965873122">
        <ele>2141.4699999999998</ele>
        <time>2025-05-14T12:27:12Z</time>
      </trkpt>
      <trkpt lat="42.544319964945316" lon="1.703791972249746">
        <ele>2141.9499999999998</ele>
        <time>2025-05-14T12:27:13Z</time>
      </trkpt>
      <trkpt lat="42.544362964108586" lon="1.703867996111512">
        <ele>2142.9200000000001</ele>
        <time>2025-05-14T12:27:14Z</time>
      </trkpt>
      <trkpt lat="42.544343015179038" lon="1.703939996659756">
        <ele>2143.4000000000001</ele>
        <time>2025-05-14T12:27:15Z</time>
      </trkpt>
      <trkpt lat="42.544298004359007" lon="1.704021971672773">
        <ele>2144.3600000000001</ele>
        <time>2025-05-14T12:27:16Z</time>
      </trkpt>
      <trkpt lat="42.544230027124286" lon="1.704034963622689">
        <ele>2145.3200000000002</ele>
        <time>2025-05-14T12:27:17Z</time>
      </trkpt>
      <trkpt lat="42.544145034626126" lon="1.704050973057747">
        <ele>2145.8000000000002</ele>
        <time>2025-05-14T12:27:18Z</time>
      </trkpt>
      <trkpt lat="42.54404503852129" lon="1.704069999977946">
        <ele>2146.2800000000002</ele>
        <time>2025-05-14T12:27:19Z</time>
      </trkpt>
      <trkpt lat="42.543930960819125" lon="1.704105958342552">
        <ele>2146.7600000000002</ele>
        <time>2025-05-14T12:27:20Z</time>
      </trkpt>
      <trkpt lat="42.543804980814457" lon="1.704167984426022">
        <ele>2147.7199999999998</ele>
        <time>2025-05-14T12:27:21Z</time>
      </trkpt>
      <trkpt lat="42.542748022824526" lon="1.704632006585598">
        <ele>2154.9299999999998</ele>
        <time>2025-05-14T12:27:28Z</time>
      </trkpt>
      <trkpt lat="42.542596980929375" lon="1.704671988263726">
        <ele>2156.3699999999999</ele>
        <time>2025-05-14T12:27:29Z</time>
      </trkpt>
      <trkpt lat="42.542230021208525" lon="1.704769972711802">
        <ele>2159.7399999999998</ele>
        <time>2025-05-14T12:27:32Z</time>
      </trkpt>
      <trkpt lat="42.542152991518378" lon="1.704791011288762">
        <ele>2160.6999999999998</ele>
        <time>2025-05-14T12:27:33Z</time>
      </trkpt>
      <trkpt lat="42.542134970426559" lon="1.704863011837006">
        <ele>2161.1799999999998</ele>
        <time>2025-05-14T12:27:34Z</time>
      </trkpt>
      <trkpt lat="42.542131030932069" lon="1.704876003786922">
        <ele>2162.1399999999999</ele>
        <time>2025-05-14T12:27:35Z</time>
      </trkpt>
      <trkpt lat="42.542161038145423" lon="1.704996032640338">
        <ele>2163.0999999999999</ele>
        <time>2025-05-14T12:27:36Z</time>
      </trkpt>
      <trkpt lat="42.542174030095339" lon="1.705048000440002">
        <ele>2163.5799999999999</ele>
        <time>2025-05-14T12:27:37Z</time>
      </trkpt>
      <trkpt lat="42.542227003723383" lon="1.705036014318466">
        <ele>2164.5500000000002</ele>
        <time>2025-05-14T12:27:38Z</time>
      </trkpt>
      <trkpt lat="42.542309984564781" lon="1.705015981569886">
        <ele>2165.0300000000002</ele>
        <time>2025-05-14T12:27:39Z</time>
      </trkpt>
      <trkpt lat="42.542399000376463" lon="1.704995026811957">
        <ele>2165.5100000000002</ele>
        <time>2025-05-14T12:27:40Z</time>
      </trkpt>
      <trkpt lat="42.542494973167777" lon="1.704971976578236">
        <ele>2165.9899999999998</ele>
        <time>2025-05-14T12:27:41Z</time>
      </trkpt>
      <trkpt lat="42.542598992586136" lon="1.704946998506784">
        <ele>2166.4699999999998</ele>
        <time>2025-05-14T12:27:42Z</time>
      </trkpt>
      <trkpt lat="42.542725978419185" lon="1.704953033477068">
        <ele>2167.4299999999998</ele>
        <time>2025-05-14T12:27:43Z</time>
      </trkpt>
      <trkpt lat="42.543903971090913" lon="1.70498002320528">
        <ele>2176.5599999999999</ele>
        <time>2025-05-14T12:27:51Z</time>
      </trkpt>
      <trkpt lat="42.545579010620713" lon="1.704533016309142">
        <ele>2187.1399999999999</ele>
        <time>2025-05-14T12:28:00Z</time>
      </trkpt>
      <trkpt lat="42.54729000851512" lon="1.704087015241385">
        <ele>2201.5599999999999</ele>
        <time>2025-05-14T12:28:09Z</time>
      </trkpt>
      <trkpt lat="42.547454964369535" lon="1.7041000071913">
        <ele>2203</ele>
        <time>2025-05-14T12:28:10Z</time>
      </trkpt>
      <trkpt lat="42.547621009871364" lon="1.704112999141216">
        <ele>2204.4400000000001</ele>
        <time>2025-05-14T12:28:11Z</time>
      </trkpt>
      <trkpt lat="42.548520974814892" lon="1.704391026869416">
        <ele>2213.0900000000001</ele>
        <time>2025-05-14T12:28:17Z</time>
      </trkpt>
      <trkpt lat="42.548663970082998" lon="1.704402007162571">
        <ele>2214.0500000000002</ele>
        <time>2025-05-14T12:28:18Z</time>
      </trkpt>
      <trkpt lat="42.548800008371472" lon="1.704381974413991">
        <ele>2215.5</ele>
        <time>2025-05-14T12:28:19Z</time>
      </trkpt>
      <trkpt lat="42.548935040831566" lon="1.704338975250721">
        <ele>2216.46</ele>
        <time>2025-05-14T12:28:20Z</time>
      </trkpt>
      <trkpt lat="42.549063032492995" lon="1.704260017722845">
        <ele>2217.9000000000001</ele>
        <time>2025-05-14T12:28:21Z</time>
      </trkpt>
      <trkpt lat="42.54918297752738" lon="1.704158009961247">
        <ele>2218.8600000000001</ele>
        <time>2025-05-14T12:28:22Z</time>
      </trkpt>
      <trkpt lat="42.549297977238894" lon="1.704061031341553">
        <ele>2219.8200000000002</ele>
        <time>2025-05-14T12:28:23Z</time>
      </trkpt>
      <trkpt lat="42.549409037455916" lon="1.70394997112453">
        <ele>2220.7800000000002</ele>
        <time>2025-05-14T12:28:24Z</time>
      </trkpt>
      <trkpt lat="42.549659991636872" lon="1.703699016943574">
        <ele>2224.1500000000001</ele>
        <time>2025-05-14T12:28:27Z</time>
      </trkpt>
      <trkpt lat="42.549743978306651" lon="1.703636990860105">
        <ele>2225.1100000000001</ele>
        <time>2025-05-14T12:28:28Z</time>
      </trkpt>
      <trkpt lat="42.549812961369753" lon="1.703660041093826">
        <ele>2225.5900000000001</ele>
        <time>2025-05-14T12:28:29Z</time>
      </trkpt>
      <trkpt lat="42.549884039908648" lon="1.703716032207012">
        <ele>2226.5500000000002</ele>
        <time>2025-05-14T12:28:30Z</time>
      </trkpt>
      <trkpt lat="42.549878004938364" lon="1.703844023868442">
        <ele>2227.0300000000002</ele>
        <time>2025-05-14T12:28:31Z</time>
      </trkpt>
      <trkpt lat="42.549859983846545" lon="1.703933039680123">
        <ele>2227.5100000000002</ele>
        <time>2025-05-14T12:28:32Z</time>
      </trkpt>
      <trkpt lat="42.549799969419837" lon="1.70401400886476">
        <ele>2228.4699999999998</ele>
        <time>2025-05-14T12:28:33Z</time>
      </trkpt>
      <trkpt lat="42.549724029377103" lon="1.704094978049398">
        <ele>2228.9499999999998</ele>
        <time>2025-05-14T12:28:34Z</time>
      </trkpt>
      <trkpt lat="42.549637025222182" lon="1.704188017174602">
        <ele>2228.9499999999998</ele>
        <time>2025-05-14T12:28:35Z</time>
      </trkpt>
      <trkpt lat="42.548880977556109" lon="1.705124024301767">
        <ele>2232.8000000000002</ele>
        <time>2025-05-14T12:28:42Z</time>
      </trkpt>
      <trkpt lat="42.548754997551441" lon="1.705264002084732">
        <ele>2233.2800000000002</ele>
        <time>2025-05-14T12:28:43Z</time>
      </trkpt>
      <trkpt lat="42.548616025596857" lon="1.705374978482723">
        <ele>2234.2399999999998</ele>
        <time>2025-05-14T12:28:44Z</time>
      </trkpt>
      <trkpt lat="42.548461966216564" lon="1.705443039536476">
        <ele>2235.1999999999998</ele>
        <time>2025-05-14T12:28:45Z</time>
      </trkpt>
      <trkpt lat="42.548315031453967" lon="1.705485032871366">
        <ele>2235.6799999999998</ele>
        <time>2025-05-14T12:28:46Z</time>
      </trkpt>
      <trkpt lat="42.548149991780519" lon="1.705499030649662">
        <ele>2236.6399999999999</ele>
        <time>2025-05-14T12:28:47Z</time>
      </trkpt>
      <trkpt lat="42.547984030097723" lon="1.705484027042985">
        <ele>2237.6100000000001</ele>
        <time>2025-05-14T12:28:48Z</time>
      </trkpt>
      <trkpt lat="42.547663003206253" lon="1.705477992072702">
        <ele>2239.5300000000002</ele>
        <time>2025-05-14T12:28:50Z</time>
      </trkpt>
      <trkpt lat="42.547500981017947" lon="1.705510010942817">
        <ele>2240.4899999999998</ele>
        <time>2025-05-14T12:28:51Z</time>
      </trkpt>
      <trkpt lat="42.547345999628305" lon="1.705585028976202">
        <ele>2241.9299999999998</ele>
        <time>2025-05-14T12:28:52Z</time>
      </trkpt>
      <trkpt lat="42.546286024153233" lon="1.706513995304704">
        <ele>2252.5100000000002</ele>
        <time>2025-05-14T12:28:59Z</time>
      </trkpt>
      <trkpt lat="42.545022033154964" lon="1.707643959671259">
        <ele>2264.52</ele>
        <time>2025-05-14T12:29:07Z</time>
      </trkpt>
      <trkpt lat="42.543712025508285" lon="1.708204038441181">
        <ele>2276.0599999999999</ele>
        <time>2025-05-14T12:29:14Z</time>
      </trkpt>
      <trkpt lat="42.543537011370063" lon="1.70831099152565">
        <ele>2277.5</ele>
        <time>2025-05-14T12:29:15Z</time>
      </trkpt>
      <trkpt lat="42.543371971696615" lon="1.708445018157363">
        <ele>2278.9400000000001</ele>
        <time>2025-05-14T12:29:16Z</time>
      </trkpt>
      <trkpt lat="42.543211039155722" lon="1.708582984283567">
        <ele>2280.8699999999999</ele>
        <time>2025-05-14T12:29:17Z</time>
      </trkpt>
      <trkpt lat="42.543069971725345" lon="1.708757998421788">
        <ele>2282.79</ele>
        <time>2025-05-14T12:29:18Z</time>
      </trkpt>
      <trkpt lat="42.542930999770761" lon="1.70893301256001">
        <ele>2284.23</ele>
        <time>2025-05-14T12:29:19Z</time>
      </trkpt>
      <trkpt lat="42.542792027816176" lon="1.709109032526612">
        <ele>2286.1500000000001</ele>
        <time>2025-05-14T12:29:20Z</time>
      </trkpt>
      <trkpt lat="42.542218035086989" lon="1.710056019946933">
        <ele>2293.8400000000001</ele>
        <time>2025-05-14T12:29:25Z</time>
      </trkpt>
      <trkpt lat="42.542124995961785" lon="1.710216030478478">
        <ele>2295.2800000000002</ele>
        <time>2025-05-14T12:29:26Z</time>
      </trkpt>
      <trkpt lat="42.542076967656612" lon="1.710423985496163">
        <ele>2297.21</ele>
        <time>2025-05-14T12:29:27Z</time>
      </trkpt>
      <trkpt lat="42.542043020948768" lon="1.710616014897823">
        <ele>2298.1700000000001</ele>
        <time>2025-05-14T12:29:28Z</time>
      </trkpt>
      <trkpt lat="42.542011002078652" lon="1.710793040692806">
        <ele>2299.6100000000001</ele>
        <time>2025-05-14T12:29:29Z</time>
      </trkpt>
      <trkpt lat="42.541960040107369" lon="1.711078025400639">
        <ele>2302.0100000000002</ele>
        <time>2025-05-14T12:29:31Z</time>
      </trkpt>
      <trkpt lat="42.541862977668643" lon="1.711247004568577">
        <ele>2302.98</ele>
        <time>2025-05-14T12:29:32Z</time>
      </trkpt>
      <trkpt lat="42.541789971292019" lon="1.711374996230006">
        <ele>2304.4200000000001</ele>
        <time>2025-05-14T12:29:33Z</time>
      </trkpt>
      <trkpt lat="42.541701961308718" lon="1.711527965962887">
        <ele>2305.3800000000001</ele>
        <time>2025-05-14T12:29:34Z</time>
      </trkpt>
      <trkpt lat="42.541623003780842" lon="1.711608013138175">
        <ele>2306.8200000000002</ele>
        <time>2025-05-14T12:29:35Z</time>
      </trkpt>
      <trkpt lat="42.541509009897709" lon="1.711679007858038">
        <ele>2307.7800000000002</ele>
        <time>2025-05-14T12:29:36Z</time>
      </trkpt>
      <trkpt lat="42.541393004357815" lon="1.71172896400094">
        <ele>2308.7399999999998</ele>
        <time>2025-05-14T12:29:37Z</time>
      </trkpt>
      <trkpt lat="42.541266018524766" lon="1.711727036163211">
        <ele>2309.2199999999998</ele>
        <time>2025-05-14T12:29:38Z</time>
      </trkpt>
      <trkpt lat="42.541150012984872" lon="1.711708009243012">
        <ele>2310.1900000000001</ele>
        <time>2025-05-14T12:29:39Z</time>
      </trkpt>
      <trkpt lat="42.541031995788217" lon="1.711670961230993">
        <ele>2311.1500000000001</ele>
        <time>2025-05-14T12:29:40Z</time>
      </trkpt>
      <trkpt lat="42.540927976369858" lon="1.711627040058374">
        <ele>2311.6300000000001</ele>
        <time>2025-05-14T12:29:41Z</time>
      </trkpt>
      <trkpt lat="42.540837032720447" lon="1.711588986217976">
        <ele>2312.1100000000001</ele>
        <time>2025-05-14T12:29:42Z</time>
      </trkpt>
      <trkpt lat="42.5407600030303" lon="1.71155596151948">
        <ele>2312.1100000000001</ele>
        <time>2025-05-14T12:29:43Z</time>
      </trkpt>
      <trkpt lat="42.54069596529007" lon="1.711528971791267">
        <ele>2312.5900000000001</ele>
        <time>2025-05-14T12:29:44Z</time>
      </trkpt>
      <trkpt lat="42.540670987218618" lon="1.711551016196609">
        <ele>2313.0700000000002</ele>
        <time>2025-05-14T12:29:45Z</time>
      </trkpt>
      <trkpt lat="42.540628993883729" lon="1.711593009531498">
        <ele>2313.0700000000002</ele>
        <time>2025-05-14T12:29:46Z</time>
      </trkpt>
      <trkpt lat="42.540628993883729" lon="1.711669033393264">
        <ele>2314.0300000000002</ele>
        <time>2025-05-14T12:29:47Z</time>
      </trkpt>
      <trkpt lat="42.540628993883729" lon="1.711764000356197">
        <ele>2314.0300000000002</ele>
        <time>2025-05-14T12:29:48Z</time>
      </trkpt>
      <trkpt lat="42.540678028017282" lon="1.711798030883074">
        <ele>2314.5100000000002</ele>
        <time>2025-05-14T12:29:49Z</time>
      </trkpt>
      <trkpt lat="42.54075899720192" lon="1.71185502782464">
        <ele>2314.9899999999998</ele>
        <time>2025-05-14T12:29:50Z</time>
      </trkpt>
      <trkpt lat="42.54084499552846" lon="1.711914958432317">
        <ele>2314.9899999999998</ele>
        <time>2025-05-14T12:29:51Z</time>
      </trkpt>
      <trkpt lat="42.54095396026969" lon="1.71196298673749">
        <ele>2314.9899999999998</ele>
        <time>2025-05-14T12:29:52Z</time>
      </trkpt>
      <trkpt lat="42.541878987103701" lon="1.712493980303407">
        <ele>2319.8000000000002</ele>
        <time>2025-05-14T12:29:59Z</time>
      </trkpt>
      <trkpt lat="42.542001027613878" lon="1.712562963366509">
        <ele>2320.7600000000002</ele>
        <time>2025-05-14T12:30:00Z</time>
      </trkpt>
      <trkpt lat="42.542104041203856" lon="1.712597999721766">
        <ele>2321.7199999999998</ele>
        <time>2025-05-14T12:30:01Z</time>
      </trkpt>
      <trkpt lat="42.542214011773467" lon="1.712587019428611">
        <ele>2322.6799999999998</ele>
        <time>2025-05-14T12:30:02Z</time>
      </trkpt>
      <trkpt lat="42.542314007878304" lon="1.712538991123438">
        <ele>2323.1599999999999</ele>
        <time>2025-05-14T12:30:03Z</time>
      </trkpt>
      <trkpt lat="42.542396988719702" lon="1.712431032210589">
        <ele>2324.1199999999999</ele>
        <time>2025-05-14T12:30:04Z</time>
      </trkpt>
      <trkpt lat="42.542454991489649" lon="1.71230698004365">
        <ele>2324.6100000000001</ele>
        <time>2025-05-14T12:30:05Z</time>
      </trkpt>
      <trkpt lat="42.542480975389481" lon="1.712168008089066">
        <ele>2325.5700000000002</ele>
        <time>2025-05-14T12:30:06Z</time>
      </trkpt>
      <trkpt lat="42.542495978996158" lon="1.712000034749508">
        <ele>2326.0500000000002</ele>
        <time>2025-05-14T12:30:07Z</time>
      </trkpt>
      <trkpt lat="42.542483992874622" lon="1.711885035037994">
        <ele>2326.5300000000002</ele>
        <time>2025-05-14T12:30:08Z</time>
      </trkpt>
      <trkpt lat="42.542469995096326" lon="1.71174899674952">
        <ele>2327.0100000000002</ele>
        <time>2025-05-14T12:30:09Z</time>
      </trkpt>
      <trkpt lat="42.542458008974791" lon="1.711632991209626">
        <ele>2327.4899999999998</ele>
        <time>2025-05-14T12:30:10Z</time>
      </trkpt>
      <trkpt lat="42.542484998703003" lon="1.711528971791267">
        <ele>2327.4899999999998</ele>
        <time>2025-05-14T12:30:11Z</time>
      </trkpt>
      <trkpt lat="42.54254300147295" lon="1.711497958749533">
        <ele>2327.4899999999998</ele>
        <time>2025-05-14T12:30:12Z</time>
      </trkpt>
      <trkpt lat="42.542604021728039" lon="1.711484966799617">
        <ele>2327.4899999999998</ele>
        <time>2025-05-14T12:30:13Z</time>
      </trkpt>
      <trkpt lat="42.542630005627871" lon="1.711531989276409">
        <ele>2327.9699999999998</ele>
        <time>2025-05-14T12:30:14Z</time>
      </trkpt>
      <trkpt lat="42.542668981477618" lon="1.711602983996272">
        <ele>2328.4499999999998</ele>
        <time>2025-05-14T12:30:15Z</time>
      </trkpt>
      <trkpt lat="42.542709968984127" lon="1.711687976494432">
        <ele>2328.4499999999998</ele>
        <time>2025-05-14T12:30:16Z</time>
      </trkpt>
      <trkpt lat="42.542695971205831" lon="1.711814040318131">
        <ele>2328.9299999999998</ele>
        <time>2025-05-14T12:30:17Z</time>
      </trkpt>
      <trkpt lat="42.542679961770773" lon="1.711958041414619">
        <ele>2329.8899999999999</ele>
        <time>2025-05-14T12:30:18Z</time>
      </trkpt>
      <trkpt lat="42.542670993134379" lon="1.712121991440654">
        <ele>2330.3699999999999</ele>
        <time>2025-05-14T12:30:19Z</time>
      </trkpt>
      <trkpt lat="42.542681973427534" lon="1.712476965039969">
        <ele>2331.8099999999999</ele>
        <time>2025-05-14T12:30:21Z</time>
      </trkpt>
      <trkpt lat="42.542653977870941" lon="1.712662959471345">
        <ele>2332.7800000000002</ele>
        <time>2025-05-14T12:30:22Z</time>
      </trkpt>
      <trkpt lat="42.542622964829206" lon="1.71286404132843">
        <ele>2333.7399999999998</ele>
        <time>2025-05-14T12:30:23Z</time>
      </trkpt>
      <trkpt lat="42.542546018958092" lon="1.713027991354466">
        <ele>2334.6999999999998</ele>
        <time>2025-05-14T12:30:24Z</time>
      </trkpt>
      <trkpt lat="42.542461026459932" lon="1.713199988007546">
        <ele>2336.1399999999999</ele>
        <time>2025-05-14T12:30:25Z</time>
      </trkpt>
      <trkpt lat="42.542353989556432" lon="1.713353963568807">
        <ele>2337.5799999999999</ele>
        <time>2025-05-14T12:30:26Z</time>
      </trkpt>
      <trkpt lat="42.542246030643582" lon="1.713510034605861">
        <ele>2339.02</ele>
        <time>2025-05-14T12:30:27Z</time>
      </trkpt>
      <trkpt lat="42.542138993740082" lon="1.713663004338741">
        <ele>2340.4699999999998</ele>
        <time>2025-05-14T12:30:28Z</time>
      </trkpt>
      <trkpt lat="42.542009996250272" lon="1.713770041242242">
        <ele>2341.9099999999999</ele>
        <time>2025-05-14T12:30:29Z</time>
      </trkpt>
      <trkpt lat="42.541880998760462" lon="1.713870959356427">
        <ele>2342.8699999999999</ele>
        <time>2025-05-14T12:30:30Z</time>
      </trkpt>
      <trkpt lat="42.541740015149117" lon="1.713942037895322">
        <ele>2344.3099999999999</ele>
        <time>2025-05-14T12:30:31Z</time>
      </trkpt>
      <trkpt lat="42.541594002395868" lon="1.713995011523366">
        <ele>2345.27</ele>
        <time>2025-05-14T12:30:32Z</time>
      </trkpt>
      <trkpt lat="42.541430974379182" lon="1.71400398015976">
        <ele>2346.7199999999998</ele>
        <time>2025-05-14T12:30:33Z</time>
      </trkpt>
      <trkpt lat="42.541278004646301" lon="1.713984031230211">
        <ele>2347.6799999999998</ele>
        <time>2025-05-14T12:30:34Z</time>
      </trkpt>
      <trkpt lat="42.54112302325666" lon="1.713945977389813">
        <ele>2348.6399999999999</ele>
        <time>2025-05-14T12:30:35Z</time>
      </trkpt>
      <trkpt lat="42.540970975533128" lon="1.71389501541853">
        <ele>2350.0799999999999</ele>
        <time>2025-05-14T12:30:36Z</time>
      </trkpt>
      <trkpt lat="42.540547018870711" lon="1.713694017380476">
        <ele>2353.4400000000001</ele>
        <time>2025-05-14T12:30:39Z</time>
      </trkpt>
      <trkpt lat="42.540439981967211" lon="1.713612964376807">
        <ele>2354.4099999999999</ele>
        <time>2025-05-14T12:30:40Z</time>
      </trkpt>
      <trkpt lat="42.540341997519135" lon="1.713539035990834">
        <ele>2355.3699999999999</ele>
        <time>2025-05-14T12:30:41Z</time>
      </trkpt>
      <trkpt lat="42.540264967828989" lon="1.713481033220887">
        <ele>2356.3299999999999</ele>
        <time>2025-05-14T12:30:42Z</time>
      </trkpt>
      <trkpt lat="42.540213000029325" lon="1.713481033220887">
        <ele>2356.8099999999999</ele>
        <time>2025-05-14T12:30:43Z</time>
      </trkpt>
      <trkpt lat="42.54017704166472" lon="1.713515985757113">
        <ele>2357.29</ele>
        <time>2025-05-14T12:30:44Z</time>
      </trkpt>
      <trkpt lat="42.54015700891614" lon="1.713544987142086">
        <ele>2358.25</ele>
        <time>2025-05-14T12:30:45Z</time>
      </trkpt>
      <trkpt lat="42.540172012522817" lon="1.71366099268198">
        <ele>2358.73</ele>
        <time>2025-05-14T12:30:46Z</time>
      </trkpt>
      <trkpt lat="42.540189027786255" lon="1.713729975745082">
        <ele>2359.21</ele>
        <time>2025-05-14T12:30:47Z</time>
      </trkpt>
      <trkpt lat="42.540248958393931" lon="1.71381002292037">
        <ele>2359.6900000000001</ele>
        <time>2025-05-14T12:30:48Z</time>
      </trkpt>
      <trkpt lat="42.540320036932826" lon="1.713905995711684">
        <ele>2359.6900000000001</ele>
        <time>2025-05-14T12:30:49Z</time>
      </trkpt>
      <trkpt lat="42.540398994460702" lon="1.714010015130043">
        <ele>2360.1700000000001</ele>
        <time>2025-05-14T12:30:50Z</time>
      </trkpt>
      <trkpt lat="42.540475018322468" lon="1.714144963771105">
        <ele>2360.6500000000001</ele>
        <time>2025-05-14T12:30:51Z</time>
      </trkpt>
      <trkpt lat="42.540540983900428" lon="1.714289970695972">
        <ele>2361.1399999999999</ele>
        <time>2025-05-14T12:30:52Z</time>
      </trkpt>
      <trkpt lat="42.541226958855987" lon="1.715856967493892">
        <ele>2369.3099999999999</ele>
        <time>2025-05-14T12:31:01Z</time>
      </trkpt>
      <trkpt lat="42.541324021294713" lon="1.71598001383245">
        <ele>2370.75</ele>
        <time>2025-05-14T12:31:02Z</time>
      </trkpt>
      <trkpt lat="42.541413037106395" lon="1.716084033250809">
        <ele>2371.71</ele>
        <time>2025-05-14T12:31:03Z</time>
      </trkpt>
      <trkpt lat="42.541524013504386" lon="1.716151004657149">
        <ele>2372.6700000000001</ele>
        <time>2025-05-14T12:31:04Z</time>
      </trkpt>
      <trkpt lat="42.541635995730758" lon="1.716212024912238">
        <ele>2373.6300000000001</ele>
        <time>2025-05-14T12:31:05Z</time>
      </trkpt>
      <trkpt lat="42.541757030412555" lon="1.716245971620083">
        <ele>2374.5900000000001</ele>
        <time>2025-05-14T12:31:06Z</time>
      </trkpt>
      <trkpt lat="42.541872030124068" lon="1.716228034347296">
        <ele>2376.04</ele>
        <time>2025-05-14T12:31:07Z</time>
      </trkpt>
      <trkpt lat="42.541980994865298" lon="1.716205989941955">
        <ele>2377</ele>
        <time>2025-05-14T12:31:08Z</time>
      </trkpt>
      <trkpt lat="42.542080990970135" lon="1.716156033799052">
        <ele>2378.4400000000001</ele>
        <time>2025-05-14T12:31:09Z</time>
      </trkpt>
      <trkpt lat="42.542184004560113" lon="1.716125020757318">
        <ele>2378.9200000000001</ele>
        <time>2025-05-14T12:31:10Z</time>
      </trkpt>
      <trkpt lat="42.542267991229892" lon="1.716137006878853">
        <ele>2379.4000000000001</ele>
        <time>2025-05-14T12:31:11Z</time>
      </trkpt>
      <trkpt lat="42.542336974292994" lon="1.716192997992039">
        <ele>2380.3600000000001</ele>
        <time>2025-05-14T12:31:12Z</time>
      </trkpt>
      <trkpt lat="42.542380979284644" lon="1.71625804156065">
        <ele>2380.8400000000001</ele>
        <time>2025-05-14T12:31:13Z</time>
      </trkpt>
      <trkpt lat="42.542369998991489" lon="1.716349991038442">
        <ele>2381.8000000000002</ele>
        <time>2025-05-14T12:31:14Z</time>
      </trkpt>
      <trkpt lat="42.542346026748419" lon="1.716456022113562">
        <ele>2383.25</ele>
        <time>2025-05-14T12:31:15Z</time>
      </trkpt>
      <trkpt lat="42.542316019535065" lon="1.716566998511553">
        <ele>2383.73</ele>
        <time>2025-05-14T12:31:16Z</time>
      </trkpt>
      <trkpt lat="42.542256005108356" lon="1.716686021536589">
        <ele>2384.6900000000001</ele>
        <time>2025-05-14T12:31:17Z</time>
      </trkpt>
      <trkpt lat="42.542190039530396" lon="1.71681803651154">
        <ele>2385.6500000000001</ele>
        <time>2025-05-14T12:31:18Z</time>
      </trkpt>
      <trkpt lat="42.541494006291032" lon="1.718231979757547">
        <ele>2395.2600000000002</ele>
        <time>2025-05-14T12:31:27Z</time>
      </trkpt>
      <trkpt lat="42.541391998529434" lon="1.718357959762216">
        <ele>2396.6999999999998</ele>
        <time>2025-05-14T12:31:28Z</time>
      </trkpt>
      <trkpt lat="42.541292002424598" lon="1.7184520047158">
        <ele>2397.6700000000001</ele>
        <time>2025-05-14T12:31:29Z</time>
      </trkpt>
      <trkpt lat="42.541197035461664" lon="1.718542026355863">
        <ele>2398.6300000000001</ele>
        <time>2025-05-14T12:31:30Z</time>
      </trkpt>
      <trkpt lat="42.541105002164841" lon="1.718628024682403">
        <ele>2399.1100000000001</ele>
        <time>2025-05-14T12:31:31Z</time>
      </trkpt>
      <trkpt lat="42.540258010849357" lon="1.719309976324439">
        <ele>2410.1599999999999</ele>
        <time>2025-05-14T12:31:42Z</time>
      </trkpt>
      <trkpt lat="42.540205959230661" lon="1.719370996579528">
        <ele>2410.6399999999999</ele>
        <time>2025-05-14T12:31:43Z</time>
      </trkpt>
      <trkpt lat="42.540162038058043" lon="1.719437967985869">
        <ele>2411.5999999999999</ele>
        <time>2025-05-14T12:31:44Z</time>
      </trkpt>
      <trkpt lat="42.540121972560883" lon="1.719517009332776">
        <ele>2412.0900000000001</ele>
        <time>2025-05-14T12:31:45Z</time>
      </trkpt>
      <trkpt lat="42.54007201641798" lon="1.719618011265993">
        <ele>2412.5700000000002</ele>
        <time>2025-05-14T12:31:46Z</time>
      </trkpt>
      <trkpt lat="42.540057012811303" lon="1.719674002379179">
        <ele>2413.0500000000002</ele>
        <time>2025-05-14T12:31:47Z</time>
      </trkpt>
      <trkpt lat="42.540037985891104" lon="1.719752959907055">
        <ele>2413.5300000000002</ele>
        <time>2025-05-14T12:31:48Z</time>
      </trkpt>
      <trkpt lat="42.540020970627666" lon="1.719819009304047">
        <ele>2413.5300000000002</ele>
        <time>2025-05-14T12:31:49Z</time>
      </trkpt>
      <trkpt lat="42.540006972849369" lon="1.719873994588852">
        <ele>2414.0100000000002</ele>
        <time>2025-05-14T12:31:50Z</time>
      </trkpt>
      <trkpt lat="42.539994986727834" lon="1.719922022894025">
        <ele>2414.4899999999998</ele>
        <time>2025-05-14T12:31:51Z</time>
      </trkpt>
      <trkpt lat="42.539984006434679" lon="1.719968039542437">
        <ele>2414.9699999999998</ele>
        <time>2025-05-14T12:31:52Z</time>
      </trkpt>
      <trkpt lat="42.539973026141524" lon="1.720012966543436">
        <ele>2414.9699999999998</ele>
        <time>2025-05-14T12:31:53Z</time>
      </trkpt>
      <trkpt lat="42.539961040019989" lon="1.720268027856946">
        <ele>2415.4499999999998</ele>
        <time>2025-05-14T12:32:00Z</time>
      </trkpt>
      <trkpt lat="42.539963973686099" lon="1.720293005928397">
        <ele>2415.9299999999998</ele>
        <time>2025-05-14T12:32:01Z</time>
      </trkpt>
      <trkpt lat="42.53994301892817" lon="1.720132995396853">
        <ele>2415.4499999999998</ele>
        <time>2025-05-14T12:32:02Z</time>
      </trkpt>
      <trkpt lat="42.53994301892817" lon="1.720132995396853">
        <ele>2415.4499999999998</ele>
        <time>2025-05-14T12:32:03Z</time>
      </trkpt>
      <trkpt lat="42.53994301892817" lon="1.720132995396853">
        <ele>2415.4499999999998</ele>
        <time>2025-05-14T12:32:04Z</time>
      </trkpt>
      <trkpt lat="42.539532976225019" lon="1.720498027279973">
        <ele>2414.9699999999998</ele>
        <time>2025-05-14T12:32:07Z</time>
      </trkpt>
      <trkpt lat="42.539532976225019" lon="1.720498027279973">
        <ele>2414.0100000000002</ele>
        <time>2025-05-14T12:32:16Z</time>
      </trkpt>
      <trkpt lat="42.539718970656395" lon="1.720227962359786">
        <ele>2418.8099999999999</ele>
        <time>2025-05-14T12:37:12Z</time>
      </trkpt>
      <trkpt lat="42.539734980091453" lon="1.720209019258618">
        <ele>2410.1599999999999</ele>
        <time>2025-05-14T12:37:37Z</time>
      </trkpt>
      <trkpt lat="42.539952993392944" lon="1.720212958753109">
        <ele>2408.7199999999998</ele>
        <time>2025-05-14T12:37:42Z</time>
      </trkpt>
      <trkpt lat="42.539959028363228" lon="1.720252018421888">
        <ele>2408.2399999999998</ele>
        <time>2025-05-14T12:37:43Z</time>
      </trkpt>
      <trkpt lat="42.53996497951448" lon="1.720301974564791">
        <ele>2408.7199999999998</ele>
        <time>2025-05-14T12:37:44Z</time>
      </trkpt>
      <trkpt lat="42.539973026141524" lon="1.720360983163118">
        <ele>2408.2399999999998</ele>
        <time>2025-05-14T12:37:45Z</time>
      </trkpt>
      <trkpt lat="42.539981994777918" lon="1.720428038388491">
        <ele>2408.2399999999998</ele>
        <time>2025-05-14T12:37:46Z</time>
      </trkpt>
      <trkpt lat="42.54011400975287" lon="1.721098003908992">
        <ele>2405.3600000000001</ele>
        <time>2025-05-14T12:37:56Z</time>
      </trkpt>
      <trkpt lat="42.540085008367896" lon="1.721176039427519">
        <ele>2404.8800000000001</ele>
        <time>2025-05-14T12:37:57Z</time>
      </trkpt>
      <trkpt lat="42.540065981447697" lon="1.721227001398802">
        <ele>2404.3899999999999</ele>
        <time>2025-05-14T12:37:58Z</time>
      </trkpt>
      <trkpt lat="42.540031028911471" lon="1.721270000562072">
        <ele>2403.4299999999998</ele>
        <time>2025-05-14T12:37:59Z</time>
      </trkpt>
      <trkpt lat="42.539989035576582" lon="1.721270000562072">
        <ele>2402.9499999999998</ele>
        <time>2025-05-14T12:38:00Z</time>
      </trkpt>
      <trkpt lat="42.539901025593281" lon="1.721221972256899">
        <ele>2401.9899999999998</ele>
        <time>2025-05-14T12:38:01Z</time>
      </trkpt>
      <trkpt lat="42.539874035865068" lon="1.721160029992461">
        <ele>2401.0300000000002</ele>
        <time>2025-05-14T12:38:02Z</time>
      </trkpt>
      <trkpt lat="42.539843022823334" lon="1.721087023615837">
        <ele>2400.5500000000002</ele>
        <time>2025-05-14T12:38:03Z</time>
      </trkpt>
      <trkpt lat="42.539805974811316" lon="1.721000019460917">
        <ele>2399.5900000000001</ele>
        <time>2025-05-14T12:38:04Z</time>
      </trkpt>
      <trkpt lat="42.539768004789948" lon="1.720925001427531">
        <ele>2399.1100000000001</ele>
        <time>2025-05-14T12:38:05Z</time>
      </trkpt>
      <trkpt lat="42.539612017571926" lon="1.72064202837646">
        <ele>2397.6700000000001</ele>
        <time>2025-05-14T12:38:08Z</time>
      </trkpt>
      <trkpt lat="42.538815988227725" lon="1.719498988240957">
        <ele>2388.0500000000002</ele>
        <time>2025-05-14T12:38:18Z</time>
      </trkpt>
      <trkpt lat="42.538637034595013" lon="1.719321040436626">
        <ele>2386.1300000000001</ele>
        <time>2025-05-14T12:38:20Z</time>
      </trkpt>
      <trkpt lat="42.53854701295495" lon="1.719254991039634">
        <ele>2384.6900000000001</ele>
        <time>2025-05-14T12:38:21Z</time>
      </trkpt>
      <trkpt lat="42.53844098187983" lon="1.719205034896731">
        <ele>2383.73</ele>
        <time>2025-05-14T12:38:22Z</time>
      </trkpt>
      <trkpt lat="42.538336040452123" lon="1.719157006591559">
        <ele>2382.2800000000002</ele>
        <time>2025-05-14T12:38:23Z</time>
      </trkpt>
      <trkpt lat="42.538240989670157" lon="1.719156000763178">
        <ele>2381.3200000000002</ele>
        <time>2025-05-14T12:38:24Z</time>
      </trkpt>
      <trkpt lat="42.538137976080179" lon="1.719171004369855">
        <ele>2380.8400000000001</ele>
        <time>2025-05-14T12:38:25Z</time>
      </trkpt>
      <trkpt lat="42.538033034652472" lon="1.719185002148151">
        <ele>2379.8800000000001</ele>
        <time>2025-05-14T12:38:26Z</time>
      </trkpt>
      <trkpt lat="42.537947036325932" lon="1.719234958291054">
        <ele>2379.4000000000001</ele>
        <time>2025-05-14T12:38:27Z</time>
      </trkpt>
      <trkpt lat="42.537855003029108" lon="1.719302013516426">
        <ele>2378.9200000000001</ele>
        <time>2025-05-14T12:38:28Z</time>
      </trkpt>
      <trkpt lat="42.537770010530949" lon="1.719387006014586">
        <ele>2377.96</ele>
        <time>2025-05-14T12:38:29Z</time>
      </trkpt>
      <trkpt lat="42.537706978619099" lon="1.7194829788059">
        <ele>2377.48</ele>
        <time>2025-05-14T12:38:30Z</time>
      </trkpt>
      <trkpt lat="42.537650987505913" lon="1.719608958810568">
        <ele>2376.52</ele>
        <time>2025-05-14T12:38:31Z</time>
      </trkpt>
      <trkpt lat="42.537596002221107" lon="1.719733010977507">
        <ele>2376.04</ele>
        <time>2025-05-14T12:38:32Z</time>
      </trkpt>
      <trkpt lat="42.53755996003747" lon="1.719838036224246">
        <ele>2375.0700000000002</ele>
        <time>2025-05-14T12:38:33Z</time>
      </trkpt>
      <trkpt lat="42.537551997229457" lon="1.719981031492353">
        <ele>2374.5900000000001</ele>
        <time>2025-05-14T12:38:34Z</time>
      </trkpt>
      <trkpt lat="42.537545040249825" lon="1.720130983740091">
        <ele>2374.1100000000001</ele>
        <time>2025-05-14T12:38:35Z</time>
      </trkpt>
      <trkpt lat="42.537542022764683" lon="1.720264004543424">
        <ele>2373.1500000000001</ele>
        <time>2025-05-14T12:38:36Z</time>
      </trkpt>
      <trkpt lat="42.537559038028121" lon="1.720414040610194">
        <ele>2372.6700000000001</ele>
        <time>2025-05-14T12:38:37Z</time>
      </trkpt>
      <trkpt lat="42.537574963644147" lon="1.720557035878301">
        <ele>2372.1900000000001</ele>
        <time>2025-05-14T12:38:38Z</time>
      </trkpt>
      <trkpt lat="42.537604970857501" lon="1.720673041418195">
        <ele>2371.71</ele>
        <time>2025-05-14T12:38:39Z</time>
      </trkpt>
      <trkpt lat="42.537664985284209" lon="1.720802038908005">
        <ele>2371.23</ele>
        <time>2025-05-14T12:38:40Z</time>
      </trkpt>
      <trkpt lat="42.537726005539298" lon="1.720929024741054">
        <ele>2370.27</ele>
        <time>2025-05-14T12:38:41Z</time>
      </trkpt>
      <trkpt lat="42.537783002480865" lon="1.721045030280948">
        <ele>2369.3099999999999</ele>
        <time>2025-05-14T12:38:42Z</time>
      </trkpt>
      <trkpt lat="42.53786196000874" lon="1.721160029992461">
        <ele>2368.8299999999999</ele>
        <time>2025-05-14T12:38:43Z</time>
      </trkpt>
      <trkpt lat="42.537943013012409" lon="1.721278969198465">
        <ele>2367.8600000000001</ele>
        <time>2025-05-14T12:38:44Z</time>
      </trkpt>
      <trkpt lat="42.538028005510569" lon="1.721403021365404">
        <ele>2366.9000000000001</ele>
        <time>2025-05-14T12:38:45Z</time>
      </trkpt>
      <trkpt lat="42.538757985457778" lon="1.722307009622455">
        <ele>2359.21</ele>
        <time>2025-05-14T12:38:54Z</time>
      </trkpt>
      <trkpt lat="42.538971975445747" lon="1.722567016258836">
        <ele>2353.9299999999998</ele>
        <time>2025-05-14T12:39:02Z</time>
      </trkpt>
      <trkpt lat="42.539165010675788" lon="1.722800033167005">
        <ele>2351.52</ele>
        <time>2025-05-14T12:39:12Z</time>
      </trkpt>
      <trkpt lat="42.539165010675788" lon="1.722800033167005">
        <ele>2351.04</ele>
        <time>2025-05-14T12:39:55Z</time>
      </trkpt>
      <trkpt lat="42.539165010675788" lon="1.722800033167005">
        <ele>2351.04</ele>
        <time>2025-05-14T12:40:46Z</time>
      </trkpt>
      <trkpt lat="42.539165010675788" lon="1.722800033167005">
        <ele>2351.04</ele>
        <time>2025-05-14T12:41:09Z</time>
      </trkpt>
      <trkpt lat="42.539165010675788" lon="1.722800033167005">
        <ele>2351.52</ele>
        <time>2025-05-14T12:41:41Z</time>
      </trkpt>
      <trkpt lat="42.539165010675788" lon="1.722800033167005">
        <ele>2351.52</ele>
        <time>2025-05-14T12:42:44Z</time>
      </trkpt>
      <trkpt lat="42.539096027612686" lon="1.722902962937951">
        <ele>2368.8299999999999</ele>
        <time>2025-05-14T12:44:29Z</time>
      </trkpt>
      <trkpt lat="42.539201974868774" lon="1.722844038158655">
        <ele>2365.46</ele>
        <time>2025-05-14T12:44:45Z</time>
      </trkpt>
      <trkpt lat="42.539280010387301" lon="1.722937999293208">
        <ele>2363.54</ele>
        <time>2025-05-14T12:44:47Z</time>
      </trkpt>
      <trkpt lat="42.539328960701823" lon="1.722997007891536">
        <ele>2362.5799999999999</ele>
        <time>2025-05-14T12:44:48Z</time>
      </trkpt>
      <trkpt lat="42.540001021698117" lon="1.723820026963949">
        <ele>2354.8899999999999</ele>
        <time>2025-05-14T12:44:57Z</time>
      </trkpt>
      <trkpt lat="42.540705017745495" lon="1.724641034379602">
        <ele>2347.1999999999998</ele>
        <time>2025-05-14T12:45:03Z</time>
      </trkpt>
      <trkpt lat="42.54082303494215" lon="1.724716974422336">
        <ele>2345.75</ele>
        <time>2025-05-14T12:45:04Z</time>
      </trkpt>
      <trkpt lat="42.540942979976535" lon="1.724754022434354">
        <ele>2344.3099999999999</ele>
        <time>2025-05-14T12:45:05Z</time>
      </trkpt>
      <trkpt lat="42.541053034365177" lon="1.724788974970579">
        <ele>2343.3499999999999</ele>
        <time>2025-05-14T12:45:06Z</time>
      </trkpt>
      <trkpt lat="42.541144983842969" lon="1.724802972748876">
        <ele>2341.4299999999998</ele>
        <time>2025-05-14T12:45:07Z</time>
      </trkpt>
      <trkpt lat="42.541251014918089" lon="1.724766008555889">
        <ele>2340.4699999999998</ele>
        <time>2025-05-14T12:45:08Z</time>
      </trkpt>
      <trkpt lat="42.541352016851306" lon="1.724730972200632">
        <ele>2339.02</ele>
        <time>2025-05-14T12:45:09Z</time>
      </trkpt>
      <trkpt lat="42.54144698381424" lon="1.724697025492787">
        <ele>2338.0599999999999</ele>
        <time>2025-05-14T12:45:10Z</time>
      </trkpt>
      <trkpt lat="42.541614035144448" lon="1.724659977480769">
        <ele>2335.6599999999999</ele>
        <time>2025-05-14T12:45:12Z</time>
      </trkpt>
      <trkpt lat="42.541684024035931" lon="1.724697025492787">
        <ele>2334.6999999999998</ele>
        <time>2025-05-14T12:45:13Z</time>
      </trkpt>
      <trkpt lat="42.541715037077665" lon="1.724743964150548">
        <ele>2334.2199999999998</ele>
        <time>2025-05-14T12:45:14Z</time>
      </trkpt>
      <trkpt lat="42.541738003492355" lon="1.724827028810978">
        <ele>2333.2600000000002</ele>
        <time>2025-05-14T12:45:15Z</time>
      </trkpt>
      <trkpt lat="42.541712019592524" lon="1.724911015480757">
        <ele>2332.7800000000002</ele>
        <time>2025-05-14T12:45:16Z</time>
      </trkpt>
      <trkpt lat="42.541667008772492" lon="1.724963989108801">
        <ele>2331.8099999999999</ele>
        <time>2025-05-14T12:45:17Z</time>
      </trkpt>
      <trkpt lat="42.541595008224249" lon="1.725030960515142">
        <ele>2331.3299999999999</ele>
        <time>2025-05-14T12:45:18Z</time>
      </trkpt>
      <trkpt lat="42.541520996019244" lon="1.725050993263722">
        <ele>2330.3699999999999</ele>
        <time>2025-05-14T12:45:19Z</time>
      </trkpt>
      <trkpt lat="42.541437009349465" lon="1.725073959678412">
        <ele>2329.8899999999999</ele>
        <time>2025-05-14T12:45:20Z</time>
      </trkpt>
      <trkpt lat="42.541342964395881" lon="1.725100027397275">
        <ele>2329.4099999999999</ele>
        <time>2025-05-14T12:45:21Z</time>
      </trkpt>
      <trkpt lat="42.541241962462664" lon="1.725127017125487">
        <ele>2328.4499999999998</ele>
        <time>2025-05-14T12:45:22Z</time>
      </trkpt>
      <trkpt lat="42.541142972186208" lon="1.72515501268208">
        <ele>2327.9699999999998</ele>
        <time>2025-05-14T12:45:23Z</time>
      </trkpt>
      <trkpt lat="42.540692025795579" lon="1.725396998226643">
        <ele>2325.0900000000001</ele>
        <time>2025-05-14T12:45:27Z</time>
      </trkpt>
      <trkpt lat="42.540570991113782" lon="1.725409990176559">
        <ele>2324.1199999999999</ele>
        <time>2025-05-14T12:45:28Z</time>
      </trkpt>
      <trkpt lat="42.540450962260365" lon="1.725421976298094">
        <ele>2322.6799999999998</ele>
        <time>2025-05-14T12:45:29Z</time>
      </trkpt>
      <trkpt lat="42.540318025276065" lon="1.725417030975223">
        <ele>2321.7199999999998</ele>
        <time>2025-05-14T12:45:30Z</time>
      </trkpt>
      <trkpt lat="42.540203025564551" lon="1.725359028205276">
        <ele>2320.7600000000002</ele>
        <time>2025-05-14T12:45:31Z</time>
      </trkpt>
      <trkpt lat="42.54009397700429" lon="1.725269006565213">
        <ele>2319.3200000000002</ele>
        <time>2025-05-14T12:45:32Z</time>
      </trkpt>
      <trkpt lat="42.539993980899453" lon="1.72517797909677">
        <ele>2318.3600000000001</ele>
        <time>2025-05-14T12:45:33Z</time>
      </trkpt>
      <trkpt lat="42.539897002279758" lon="1.725076977163553">
        <ele>2317.4000000000001</ele>
        <time>2025-05-14T12:45:34Z</time>
      </trkpt>
      <trkpt lat="42.539820978417993" lon="1.724971029907465">
        <ele>2315.9499999999998</ele>
        <time>2025-05-14T12:45:35Z</time>
      </trkpt>
      <trkpt lat="42.539747972041368" lon="1.724869022145867">
        <ele>2314.5100000000002</ele>
        <time>2025-05-14T12:45:36Z</time>
      </trkpt>
      <trkpt lat="42.539678988978267" lon="1.724763996899128">
        <ele>2313.5500000000002</ele>
        <time>2025-05-14T12:45:37Z</time>
      </trkpt>
      <trkpt lat="42.53962098620832" lon="1.724664000794292">
        <ele>2312.5900000000001</ele>
        <time>2025-05-14T12:45:38Z</time>
      </trkpt>
      <trkpt lat="42.539511015638709" lon="1.724479012191296">
        <ele>2311.1500000000001</ele>
        <time>2025-05-14T12:45:40Z</time>
      </trkpt>
      <trkpt lat="42.53947296179831" lon="1.724436013028026">
        <ele>2310.6700000000001</ele>
        <time>2025-05-14T12:45:41Z</time>
      </trkpt>
      <trkpt lat="42.53940599039197" lon="1.72440298832953">
        <ele>2310.1900000000001</ele>
        <time>2025-05-14T12:45:42Z</time>
      </trkpt>
      <trkpt lat="42.539369026198983" lon="1.724432995542884">
        <ele>2309.6999999999998</ele>
        <time>2025-05-14T12:45:43Z</time>
      </trkpt>
      <trkpt lat="42.539312029257417" lon="1.724478006362915">
        <ele>2309.2199999999998</ele>
        <time>2025-05-14T12:45:44Z</time>
      </trkpt>
      <trkpt lat="42.539307000115514" lon="1.724554030224681">
        <ele>2308.7399999999998</ele>
        <time>2025-05-14T12:45:45Z</time>
      </trkpt>
      <trkpt lat="42.53931999206543" lon="1.724654026329517">
        <ele>2308.2600000000002</ele>
        <time>2025-05-14T12:45:46Z</time>
      </trkpt>
      <trkpt lat="42.539360979571939" lon="1.724738012999296">
        <ele>2307.7800000000002</ele>
        <time>2025-05-14T12:45:47Z</time>
      </trkpt>
      <trkpt lat="42.539417976513505" lon="1.724845971912146">
        <ele>2307.3000000000002</ele>
        <time>2025-05-14T12:45:48Z</time>
      </trkpt>
      <trkpt lat="42.539484025910497" lon="1.724971029907465">
        <ele>2306.3400000000001</ele>
        <time>2025-05-14T12:45:49Z</time>
      </trkpt>
      <trkpt lat="42.54002801142633" lon="1.725825984030962">
        <ele>2302.4899999999998</ele>
        <time>2025-05-14T12:45:55Z</time>
      </trkpt>
      <trkpt lat="42.540131025016308" lon="1.725919023156166">
        <ele>2301.5300000000002</ele>
        <time>2025-05-14T12:45:56Z</time>
      </trkpt>
      <trkpt lat="42.540258010849357" lon="1.7259949631989">
        <ele>2300.5700000000002</ele>
        <time>2025-05-14T12:45:57Z</time>
      </trkpt>
      <trkpt lat="42.540392959490418" lon="1.72607702203095">
        <ele>2299.6100000000001</ele>
        <time>2025-05-14T12:45:58Z</time>
      </trkpt>
      <trkpt lat="42.540518017485738" lon="1.726109040901065">
        <ele>2298.6500000000001</ele>
        <time>2025-05-14T12:45:59Z</time>
      </trkpt>
      <trkpt lat="42.540661012753844" lon="1.726147010922432">
        <ele>2297.21</ele>
        <time>2025-05-14T12:46:00Z</time>
      </trkpt>
      <trkpt lat="42.541117994114757" lon="1.726333005353808">
        <ele>2293.3600000000001</ele>
        <time>2025-05-14T12:46:03Z</time>
      </trkpt>
      <trkpt lat="42.541263001039624" lon="1.726455967873335">
        <ele>2291.9200000000001</ele>
        <time>2025-05-14T12:46:04Z</time>
      </trkpt>
      <trkpt lat="42.541389986872673" lon="1.726587982848287">
        <ele>2290.48</ele>
        <time>2025-05-14T12:46:05Z</time>
      </trkpt>
      <trkpt lat="42.541516972705722" lon="1.726718991994858">
        <ele>2289.04</ele>
        <time>2025-05-14T12:46:06Z</time>
      </trkpt>
      <trkpt lat="42.54164001904428" lon="1.726846983656287">
        <ele>2288.0799999999999</ele>
        <time>2025-05-14T12:46:07Z</time>
      </trkpt>
      <trkpt lat="42.541761975735426" lon="1.726972963660955">
        <ele>2287.1100000000001</ele>
        <time>2025-05-14T12:46:08Z</time>
      </trkpt>
      <trkpt lat="42.541900025680661" lon="1.727053010836244">
        <ele>2286.1500000000001</ele>
        <time>2025-05-14T12:46:09Z</time>
      </trkpt>
      <trkpt lat="42.542046038433909" lon="1.727135991677642">
        <ele>2284.71</ele>
        <time>2025-05-14T12:46:10Z</time>
      </trkpt>
      <trkpt lat="42.542911972850561" lon="1.727615017443895">
        <ele>2277.02</ele>
        <time>2025-05-14T12:46:16Z</time>
      </trkpt>
      <trkpt lat="42.543044993653893" lon="1.727658016607165">
        <ele>2275.5799999999999</ele>
        <time>2025-05-14T12:46:17Z</time>
      </trkpt>
      <trkpt lat="42.543163010850549" lon="1.727633960545063">
        <ele>2274.6199999999999</ele>
        <time>2025-05-14T12:46:18Z</time>
      </trkpt>
      <trkpt lat="42.543440032750368" lon="1.727578975260258">
        <ele>2271.73</ele>
        <time>2025-05-14T12:46:21Z</time>
      </trkpt>
      <trkpt lat="42.543499963358045" lon="1.727662039920688">
        <ele>2270.77</ele>
        <time>2025-05-14T12:46:22Z</time>
      </trkpt>
      <trkpt lat="42.543544974178076" lon="1.72773496247828">
        <ele>2270.29</ele>
        <time>2025-05-14T12:46:23Z</time>
      </trkpt>
      <trkpt lat="42.543519996106625" lon="1.72779698856175">
        <ele>2269.3299999999999</ele>
        <time>2025-05-14T12:46:24Z</time>
      </trkpt>
      <trkpt lat="42.543480014428496" lon="1.72786102630198">
        <ele>2268.3699999999999</ele>
        <time>2025-05-14T12:46:25Z</time>
      </trkpt>
      <trkpt lat="42.543410025537014" lon="1.727901007980108">
        <ele>2267.8899999999999</ele>
        <time>2025-05-14T12:46:26Z</time>
      </trkpt>
      <trkpt lat="42.543326960876584" lon="1.727901007980108">
        <ele>2266.9299999999998</ele>
        <time>2025-05-14T12:46:27Z</time>
      </trkpt>
      <trkpt lat="42.543226964771748" lon="1.727901007980108">
        <ele>2265.96</ele>
        <time>2025-05-14T12:46:28Z</time>
      </trkpt>
      <trkpt lat="42.542204037308693" lon="1.727836970239878">
        <ele>2259.7199999999998</ele>
        <time>2025-05-14T12:46:35Z</time>
      </trkpt>
      <trkpt lat="42.541001988574862" lon="1.727427011355758">
        <ele>2250.5799999999999</ele>
        <time>2025-05-14T12:46:42Z</time>
      </trkpt>
      <trkpt lat="42.540837032720447" lon="1.727421982213855">
        <ele>2249.1399999999999</ele>
        <time>2025-05-14T12:46:43Z</time>
      </trkpt>
      <trkpt lat="42.540676016360521" lon="1.727416031062603">
        <ele>2247.6999999999998</ele>
        <time>2025-05-14T12:46:44Z</time>
      </trkpt>
      <trkpt lat="42.54052497446537" lon="1.7274110019207">
        <ele>2246.2600000000002</ele>
        <time>2025-05-14T12:46:45Z</time>
      </trkpt>
      <trkpt lat="42.540391031652689" lon="1.727407984435558">
        <ele>2245.3000000000002</ele>
        <time>2025-05-14T12:46:46Z</time>
      </trkpt>
      <trkpt lat="42.54026697948575" lon="1.727470010519028">
        <ele>2243.8499999999999</ele>
        <time>2025-05-14T12:46:47Z</time>
      </trkpt>
      <trkpt lat="42.540145022794604" lon="1.727547962218523">
        <ele>2242.8899999999999</ele>
        <time>2025-05-14T12:46:48Z</time>
      </trkpt>
      <trkpt lat="42.540015019476414" lon="1.727627003565431">
        <ele>2241.4499999999998</ele>
        <time>2025-05-14T12:46:49Z</time>
      </trkpt>
      <trkpt lat="42.539877975359559" lon="1.72769196331501">
        <ele>2240.4899999999998</ele>
        <time>2025-05-14T12:46:50Z</time>
      </trkpt>
      <trkpt lat="42.539741015061736" lon="1.727757006883621">
        <ele>2239.0500000000002</ele>
        <time>2025-05-14T12:46:51Z</time>
      </trkpt>
      <trkpt lat="42.539592990651727" lon="1.727788019925356">
        <ele>2237.6100000000001</ele>
        <time>2025-05-14T12:46:52Z</time>
      </trkpt>
      <trkpt lat="42.53944898955524" lon="1.72777796164155">
        <ele>2236.1599999999999</ele>
        <time>2025-05-14T12:46:53Z</time>
      </trkpt>
      <trkpt lat="42.53929803147912" lon="1.727737979963422">
        <ele>2234.7199999999998</ele>
        <time>2025-05-14T12:46:54Z</time>
      </trkpt>
      <trkpt lat="42.539157969877124" lon="1.727664973586798">
        <ele>2233.2800000000002</ele>
        <time>2025-05-14T12:46:55Z</time>
      </trkpt>
      <trkpt lat="42.539016986265779" lon="1.727590961381793">
        <ele>2232.3200000000002</ele>
        <time>2025-05-14T12:46:56Z</time>
      </trkpt>
      <trkpt lat="42.538072010502219" lon="1.727077988907695">
        <ele>2224.1500000000001</ele>
        <time>2025-05-14T12:47:03Z</time>
      </trkpt>
      <trkpt lat="42.537957010790706" lon="1.726982016116381">
        <ele>2222.71</ele>
        <time>2025-05-14T12:47:04Z</time>
      </trkpt>
      <trkpt lat="42.53768602386117" lon="1.726739024743438">
        <ele>2219.8200000000002</ele>
        <time>2025-05-14T12:47:07Z</time>
      </trkpt>
      <trkpt lat="42.53760396502912" lon="1.726676998659968">
        <ele>2219.3400000000001</ele>
        <time>2025-05-14T12:47:08Z</time>
      </trkpt>
      <trkpt lat="42.537542022764683" lon="1.726656965911388">
        <ele>2218.8600000000001</ele>
        <time>2025-05-14T12:47:09Z</time>
      </trkpt>
      <trkpt lat="42.537484019994736" lon="1.726712035015225">
        <ele>2218.3800000000001</ele>
        <time>2025-05-14T12:47:10Z</time>
      </trkpt>
      <trkpt lat="42.53743196837604" lon="1.726762996986508">
        <ele>2217.9000000000001</ele>
        <time>2025-05-14T12:47:11Z</time>
      </trkpt>
      <trkpt lat="42.537440015003085" lon="1.72685201279819">
        <ele>2217.4200000000001</ele>
        <time>2025-05-14T12:47:12Z</time>
      </trkpt>
      <trkpt lat="42.537448983639479" lon="1.726949997246265">
        <ele>2216.9400000000001</ele>
        <time>2025-05-14T12:47:13Z</time>
      </trkpt>
      <trkpt lat="42.5374720338732" lon="1.727021997794509">
        <ele>2216.46</ele>
        <time>2025-05-14T12:47:14Z</time>
      </trkpt>
      <trkpt lat="42.537533976137638" lon="1.727098021656275">
        <ele>2215.98</ele>
        <time>2025-05-14T12:47:15Z</time>
      </trkpt>
      <trkpt lat="42.53760396502912" lon="1.727184019982815">
        <ele>2215.5</ele>
        <time>2025-05-14T12:47:16Z</time>
      </trkpt>
      <trkpt lat="42.537682000547647" lon="1.727279992774129">
        <ele>2215.0100000000002</ele>
        <time>2025-05-14T12:47:17Z</time>
      </trkpt>
      <trkpt lat="42.537754001095891" lon="1.727412007749081">
        <ele>2214.0500000000002</ele>
        <time>2025-05-14T12:47:18Z</time>
      </trkpt>
      <trkpt lat="42.537800017744303" lon="1.727561037987471">
        <ele>2213.0900000000001</ele>
        <time>2025-05-14T12:47:19Z</time>
      </trkpt>
      <trkpt lat="42.538004033267498" lon="1.728013996034861">
        <ele>2210.21</ele>
        <time>2025-05-14T12:47:22Z</time>
      </trkpt>
      <trkpt lat="42.538086008280516" lon="1.728150034323335">
        <ele>2209.25</ele>
        <time>2025-05-14T12:47:23Z</time>
      </trkpt>
      <trkpt lat="42.53818298690021" lon="1.728308033198118">
        <ele>2208.29</ele>
        <time>2025-05-14T12:47:24Z</time>
      </trkpt>
      <trkpt lat="42.539050010964274" lon="1.729162987321615">
        <ele>2200.5900000000001</ele>
        <time>2025-05-14T12:47:32Z</time>
      </trkpt>
      <trkpt lat="42.539154030382633" lon="1.72921696677804">
        <ele>2199.6300000000001</ele>
        <time>2025-05-14T12:47:33Z</time>
      </trkpt>
      <trkpt lat="42.539282022044063" lon="1.729239011183381">
        <ele>2198.6700000000001</ele>
        <time>2025-05-14T12:47:34Z</time>
      </trkpt>
      <trkpt lat="42.539414037019014" lon="1.729260971769691">
        <ele>2197.23</ele>
        <time>2025-05-14T12:47:35Z</time>
      </trkpt>
      <trkpt lat="42.539550997316837" lon="1.729283016175032">
        <ele>2196.27</ele>
        <time>2025-05-14T12:47:36Z</time>
      </trkpt>
      <trkpt lat="42.540886988863349" lon="1.729670008644462">
        <ele>2185.6900000000001</ele>
        <time>2025-05-14T12:47:45Z</time>
      </trkpt>
      <trkpt lat="42.542385002598166" lon="1.730033028870821">
        <ele>2173.1999999999998</ele>
        <time>2025-05-14T12:47:55Z</time>
      </trkpt>
      <trkpt lat="42.544513000175357" lon="1.730539966374636">
        <ele>2156.3699999999999</ele>
        <time>2025-05-14T12:48:10Z</time>
      </trkpt>
      <trkpt lat="42.545155975967646" lon="1.730598974972963">
        <ele>2152.0500000000002</ele>
        <time>2025-05-14T12:48:15Z</time>
      </trkpt>
      <trkpt lat="42.545727035030723" lon="1.730697965249419">
        <ele>2150.1300000000001</ele>
        <time>2025-05-14T12:48:22Z</time>
      </trkpt>
      <trkpt lat="42.546115033328533" lon="1.730801984667778">
        <ele>2147.7199999999998</ele>
        <time>2025-05-14T12:48:28Z</time>
      </trkpt>
      <trkpt lat="42.546157026663423" lon="1.730817994102836">
        <ele>2147.2399999999998</ele>
        <time>2025-05-14T12:48:29Z</time>
      </trkpt>
      <trkpt lat="42.54619600251317" lon="1.730832997709513">
        <ele>2146.7600000000002</ele>
        <time>2025-05-14T12:48:30Z</time>
      </trkpt>
      <trkpt lat="42.546225003898144" lon="1.730842972174287">
        <ele>2146.7600000000002</ele>
        <time>2025-05-14T12:48:31Z</time>
      </trkpt>
      <trkpt lat="42.546277977526188" lon="1.730883037671447">
        <ele>2146.2800000000002</ele>
        <time>2025-05-14T12:48:32Z</time>
      </trkpt>
      <trkpt lat="42.546287029981613" lon="1.730916984379292">
        <ele>2146.2800000000002</ele>
        <time>2025-05-14T12:48:33Z</time>
      </trkpt>
      <trkpt lat="42.546297004446387" lon="1.73095696605742">
        <ele>2145.8000000000002</ele>
        <time>2025-05-14T12:48:34Z</time>
      </trkpt>
      <trkpt lat="42.546300021931529" lon="1.731065008789301">
        <ele>2145.3200000000002</ele>
        <time>2025-05-14T12:48:35Z</time>
      </trkpt>
      <trkpt lat="42.54628099501133" lon="1.731101972982287">
        <ele>2144.8400000000001</ele>
        <time>2025-05-14T12:48:36Z</time>
      </trkpt>
      <trkpt lat="42.546178987249732" lon="1.731204986572266">
        <ele>2144.3600000000001</ele>
        <time>2025-05-14T12:48:37Z</time>
      </trkpt>
      <trkpt lat="42.546134982258081" lon="1.731204986572266">
        <ele>2143.8800000000001</ele>
        <time>2025-05-14T12:48:38Z</time>
      </trkpt>
      <trkpt lat="42.54608997143805" lon="1.731204986572266">
        <ele>2143.8800000000001</ele>
        <time>2025-05-14T12:48:39Z</time>
      </trkpt>
      <trkpt lat="42.545473985373974" lon="1.731075989082456">
        <ele>2140.5100000000002</ele>
        <time>2025-05-14T12:48:50Z</time>
      </trkpt>
      <trkpt lat="42.545345993712544" lon="1.731090992689133">
        <ele>2139.5500000000002</ele>
        <time>2025-05-14T12:48:52Z</time>
      </trkpt>
      <trkpt lat="42.545281033962965" lon="1.731103984639049">
        <ele>2138.5900000000001</ele>
        <time>2025-05-14T12:48:53Z</time>
      </trkpt>
      <trkpt lat="42.545015998184681" lon="1.731159975752235">
        <ele>2138.1100000000001</ele>
        <time>2025-05-14T12:48:57Z</time>
      </trkpt>
      <trkpt lat="42.54494802094996" lon="1.731174979358912">
        <ele>2138.5900000000001</ele>
        <time>2025-05-14T12:48:58Z</time>
      </trkpt>
      <trkpt lat="42.544883983209729" lon="1.731187971308827">
        <ele>2139.0700000000002</ele>
        <time>2025-05-14T12:48:59Z</time>
      </trkpt>
      <trkpt lat="42.54482002928853" lon="1.731201969087124">
        <ele>2139.0700000000002</ele>
        <time>2025-05-14T12:49:00Z</time>
      </trkpt>
      <trkpt lat="42.544748028740287" lon="1.731216972693801">
        <ele>2139.5500000000002</ele>
        <time>2025-05-14T12:49:01Z</time>
      </trkpt>
      <trkpt lat="42.544674016535282" lon="1.731232982128859">
        <ele>2139.5500000000002</ele>
        <time>2025-05-14T12:49:02Z</time>
      </trkpt>
      <trkpt lat="42.544530015438795" lon="1.731262989342213">
        <ele>2140.5100000000002</ele>
        <time>2025-05-14T12:49:04Z</time>
      </trkpt>
      <trkpt lat="42.544457009062171" lon="1.73127899877727">
        <ele>2140.5100000000002</ele>
        <time>2025-05-14T12:49:05Z</time>
      </trkpt>
      <trkpt lat="42.54439196549356" lon="1.731291990727186">
        <ele>2140.5100000000002</ele>
        <time>2025-05-14T12:49:06Z</time>
      </trkpt>
      <trkpt lat="42.544332034885883" lon="1.731304982677102">
        <ele>2140.5100000000002</ele>
        <time>2025-05-14T12:49:07Z</time>
      </trkpt>
      <trkpt lat="42.544273026287556" lon="1.731316968798637">
        <ele>2140.0300000000002</ele>
        <time>2025-05-14T12:49:08Z</time>
      </trkpt>
      <trkpt lat="42.544208988547325" lon="1.731329038739204">
        <ele>2140.0300000000002</ele>
        <time>2025-05-14T12:49:09Z</time>
      </trkpt>
      <trkpt lat="42.544146040454507" lon="1.73134102486074">
        <ele>2140.0300000000002</ele>
        <time>2025-05-14T12:49:10Z</time>
      </trkpt>
      <trkpt lat="42.544097006320953" lon="1.731350999325514">
        <ele>2140.0300000000002</ele>
        <time>2025-05-14T12:49:11Z</time>
      </trkpt>
      <trkpt lat="42.544059036299586" lon="1.731358040124178">
        <ele>2140.0300000000002</ele>
        <time>2025-05-14T12:49:12Z</time>
      </trkpt>
      <trkpt lat="42.544016037136316" lon="1.731366002932191">
        <ele>2140.0300000000002</ele>
        <time>2025-05-14T12:49:13Z</time>
      </trkpt>
      <trkpt lat="42.54389701411128" lon="1.7313879635185">
        <ele>2140.0300000000002</ele>
        <time>2025-05-14T12:49:16Z</time>
      </trkpt>
      <trkpt lat="42.543714037165046" lon="1.731422999873757">
        <ele>2139.5500000000002</ele>
        <time>2025-05-14T12:49:19Z</time>
      </trkpt>
      <trkpt lat="42.543653016909957" lon="1.731433980166912">
        <ele>2139.5500000000002</ele>
        <time>2025-05-14T12:49:20Z</time>
      </trkpt>
      <trkpt lat="42.543586967512965" lon="1.731446972116828">
        <ele>2139.5500000000002</ele>
        <time>2025-05-14T12:49:21Z</time>
      </trkpt>
      <trkpt lat="42.543504992499948" lon="1.731461975723505">
        <ele>2138.5900000000001</ele>
        <time>2025-05-14T12:49:23Z</time>
      </trkpt>
      <trkpt lat="42.543373983353376" lon="1.731592984870076">
        <ele>2138.5900000000001</ele>
        <time>2025-05-14T12:49:25Z</time>
      </trkpt>
      <trkpt lat="42.543325033038855" lon="1.73164201900363">
        <ele>2138.1100000000001</ele>
        <time>2025-05-14T12:49:26Z</time>
      </trkpt>
      <trkpt lat="42.543007023632526" lon="1.731890039518476">
        <ele>2136.6700000000001</ele>
        <time>2025-05-14T12:49:32Z</time>
      </trkpt>
      <trkpt lat="42.542954972013831" lon="1.731920968741179">
        <ele>2136.1900000000001</ele>
        <time>2025-05-14T12:49:33Z</time>
      </trkpt>
      <trkpt lat="42.542633023113012" lon="1.732114003971219">
        <ele>2133.3000000000002</ele>
        <time>2025-05-14T12:49:39Z</time>
      </trkpt>
      <trkpt lat="42.542247036471963" lon="1.732362024486065">
        <ele>2128.02</ele>
        <time>2025-05-14T12:49:48Z</time>
      </trkpt>
      <trkpt lat="42.542213005945086" lon="1.732381973415613">
        <ele>2127.5300000000002</ele>
        <time>2025-05-14T12:49:49Z</time>
      </trkpt>
      <trkpt lat="42.542133964598179" lon="1.732427990064025">
        <ele>2125.6100000000001</ele>
        <time>2025-05-14T12:49:52Z</time>
      </trkpt>
      <trkpt lat="42.542107980698347" lon="1.732442993670702">
        <ele>2125.1300000000001</ele>
        <time>2025-05-14T12:49:53Z</time>
      </trkpt>
      <trkpt lat="42.542080990970135" lon="1.73245900310576">
        <ele>2124.6500000000001</ele>
        <time>2025-05-14T12:49:54Z</time>
      </trkpt>
      <trkpt lat="42.541951993480325" lon="1.732579031959176">
        <ele>2122.73</ele>
        <time>2025-05-14T12:49:58Z</time>
      </trkpt>
      <trkpt lat="42.541919974610209" lon="1.732618007808924">
        <ele>2122.25</ele>
        <time>2025-05-14T12:49:59Z</time>
      </trkpt>
      <trkpt lat="42.541887033730745" lon="1.732656983658671">
        <ele>2121.77</ele>
        <time>2025-05-14T12:50:00Z</time>
      </trkpt>
      <trkpt lat="42.541778990998864" lon="1.732839960604906">
        <ele>2118.8800000000001</ele>
        <time>2025-05-14T12:50:05Z</time>
      </trkpt>
      <trkpt lat="42.541767004877329" lon="1.732879020273686">
        <ele>2118.4000000000001</ele>
        <time>2025-05-14T12:50:06Z</time>
      </trkpt>
      <trkpt lat="42.541767004877329" lon="1.732940962538123">
        <ele>2117.4400000000001</ele>
        <time>2025-05-14T12:50:07Z</time>
      </trkpt>
      <trkpt lat="42.541767004877329" lon="1.733024027198553">
        <ele>2116.96</ele>
        <time>2025-05-14T12:50:08Z</time>
      </trkpt>
      <trkpt lat="42.541767004877329" lon="1.733111031353474">
        <ele>2116</ele>
        <time>2025-05-14T12:50:09Z</time>
      </trkpt>
      <trkpt lat="42.541767004877329" lon="1.733196023851633">
        <ele>2115.04</ele>
        <time>2025-05-14T12:50:10Z</time>
      </trkpt>
      <trkpt lat="42.541767004877329" lon="1.733261989429593">
        <ele>2114.5599999999999</ele>
        <time>2025-05-14T12:50:11Z</time>
      </trkpt>
      <trkpt lat="42.541767004877329" lon="1.733323009684682">
        <ele>2113.5999999999999</ele>
        <time>2025-05-14T12:50:12Z</time>
      </trkpt>
      <trkpt lat="42.541767004877329" lon="1.733386041596532">
        <ele>2112.6300000000001</ele>
        <time>2025-05-14T12:50:13Z</time>
      </trkpt>
      <trkpt lat="42.541767004877329" lon="1.733446978032589">
        <ele>2111.6700000000001</ele>
        <time>2025-05-14T12:50:14Z</time>
      </trkpt>
      <trkpt lat="42.541767004877329" lon="1.733501963317394">
        <ele>2110.71</ele>
        <time>2025-05-14T12:50:15Z</time>
      </trkpt>
      <trkpt lat="42.541767004877329" lon="1.733544962480664">
        <ele>2110.23</ele>
        <time>2025-05-14T12:50:16Z</time>
      </trkpt>
      <trkpt lat="42.541767004877329" lon="1.733582010492683">
        <ele>2109.27</ele>
        <time>2025-05-14T12:50:17Z</time>
      </trkpt>
      <trkpt lat="42.541767004877329" lon="1.733616041019559">
        <ele>2108.3099999999999</ele>
        <time>2025-05-14T12:50:18Z</time>
      </trkpt>
      <trkpt lat="42.541767004877329" lon="1.733639007434249">
        <ele>2106.8699999999999</ele>
        <time>2025-05-14T12:50:19Z</time>
      </trkpt>
      <trkpt lat="42.541767004877329" lon="1.733693992719054">
        <ele>2107.8299999999999</ele>
        <time>2025-05-14T12:50:20Z</time>
      </trkpt>
      <trkpt lat="42.541767004877329" lon="1.733693992719054">
        <ele>2107.8299999999999</ele>
        <time>2025-05-14T12:50:21Z</time>
      </trkpt>
      <trkpt lat="42.541767004877329" lon="1.733799017965794">
        <ele>2105.4200000000001</ele>
        <time>2025-05-14T12:50:24Z</time>
      </trkpt>
      <trkpt lat="42.541678994894028" lon="1.733779991045594">
        <ele>2104.9400000000001</ele>
        <time>2025-05-14T12:50:25Z</time>
      </trkpt>
      <trkpt lat="42.541652005165815" lon="1.733773034065962">
        <ele>2104.9400000000001</ele>
        <time>2025-05-14T12:50:26Z</time>
      </trkpt>
      <trkpt lat="42.541620992124081" lon="1.733764987438917">
        <ele>2104.46</ele>
        <time>2025-05-14T12:50:27Z</time>
      </trkpt>
      <trkpt lat="42.541585033759475" lon="1.733756018802524">
        <ele>2104.46</ele>
        <time>2025-05-14T12:50:28Z</time>
      </trkpt>
      <trkpt lat="42.541538011282682" lon="1.733744032680988">
        <ele>2104.46</ele>
        <time>2025-05-14T12:50:29Z</time>
      </trkpt>
      <trkpt lat="42.541481014341116" lon="1.733730034902692">
        <ele>2103.98</ele>
        <time>2025-05-14T12:50:30Z</time>
      </trkpt>
      <trkpt lat="42.54142502322793" lon="1.733716037124395">
        <ele>2103.98</ele>
        <time>2025-05-14T12:50:31Z</time>
      </trkpt>
      <trkpt lat="42.541362997144461" lon="1.733708996325731">
        <ele>2103.5</ele>
        <time>2025-05-14T12:50:32Z</time>
      </trkpt>
      <trkpt lat="42.54056503996253" lon="1.733607994392514">
        <ele>2104.9400000000001</ele>
        <time>2025-05-14T12:50:43Z</time>
      </trkpt>
      <trkpt lat="42.539801029488444" lon="1.733428034931421">
        <ele>2113.1199999999999</ele>
        <time>2025-05-14T12:50:53Z</time>
      </trkpt>
      <trkpt lat="42.539322003722191" lon="1.733314963057637">
        <ele>2121.29</ele>
        <time>2025-05-14T12:51:02Z</time>
      </trkpt>
      <trkpt lat="42.539187977090478" lon="1.733283028006554">
        <ele>2124.1700000000001</ele>
        <time>2025-05-14T12:51:07Z</time>
      </trkpt>
      <trkpt lat="42.539678988978267" lon="1.733516966924071">
        <ele>2128.5</ele>
        <time>2025-05-15T05:48:31Z</time>
      </trkpt>
      <trkpt lat="42.539678988978267" lon="1.733528031036258">
        <ele>2128.98</ele>
        <time>2025-05-15T05:49:20Z</time>
      </trkpt>
      <trkpt lat="42.53968401812017" lon="1.733538005501032">
        <ele>2128.5</ele>
        <time>2025-05-15T05:50:09Z</time>
      </trkpt>
      <trkpt lat="42.539688041433692" lon="1.733543034642935">
        <ele>2128.02</ele>
        <time>2025-05-15T05:50:55Z</time>
      </trkpt>
      <trkpt lat="42.539688041433692" lon="1.733543034642935">
        <ele>2128.02</ele>
        <time>2025-05-15T05:51:31Z</time>
      </trkpt>
      <trkpt lat="42.539688963443041" lon="1.733559966087341">
        <ele>2128.02</ele>
        <time>2025-05-15T05:52:25Z</time>
      </trkpt>
      <trkpt lat="42.539690975099802" lon="1.733570024371147">
        <ele>2128.02</ele>
        <time>2025-05-15T05:53:15Z</time>
      </trkpt>
      <trkpt lat="42.539694998413324" lon="1.733573963865638">
        <ele>2127.5300000000002</ele>
        <time>2025-05-15T05:54:04Z</time>
      </trkpt>
      <trkpt lat="42.539694998413324" lon="1.733582010492683">
        <ele>2127.5300000000002</ele>
        <time>2025-05-15T05:54:58Z</time>
      </trkpt>
      <trkpt lat="42.539693992584944" lon="1.733588967472315">
        <ele>2127.5300000000002</ele>
        <time>2025-05-15T05:55:39Z</time>
      </trkpt>
      <trkpt lat="42.539692986756563" lon="1.733596008270979">
        <ele>2127.5300000000002</ele>
        <time>2025-05-15T05:56:20Z</time>
      </trkpt>
      <trkpt lat="42.539689969271421" lon="1.733596008270979">
        <ele>2128.02</ele>
        <time>2025-05-15T05:57:03Z</time>
      </trkpt>
      <trkpt lat="42.539689969271421" lon="1.733596008270979">
        <ele>2128.02</ele>
        <time>2025-05-15T05:57:27Z</time>
      </trkpt>
      <trkpt lat="42.539624003693461" lon="1.733386041596532">
        <ele>2128.02</ele>
        <time>2025-05-15T05:57:31Z</time>
      </trkpt>
      <trkpt lat="42.539584022015333" lon="1.733376989141107">
        <ele>2128.02</ele>
        <time>2025-05-15T05:57:32Z</time>
      </trkpt>
      <trkpt lat="42.539545968174934" lon="1.733368020504713">
        <ele>2128.02</ele>
        <time>2025-05-15T05:57:33Z</time>
      </trkpt>
      <trkpt lat="42.539489977061749" lon="1.733355028554797">
        <ele>2126.5700000000002</ele>
        <time>2025-05-15T05:57:42Z</time>
      </trkpt>
      <trkpt lat="42.539451001212001" lon="1.733344970270991">
        <ele>2126.0900000000001</ele>
        <time>2025-05-15T05:57:47Z</time>
      </trkpt>
      <trkpt lat="42.539807986468077" lon="1.733429040759802">
        <ele>2124.1700000000001</ele>
        <time>2025-05-15T05:57:58Z</time>
      </trkpt>
      <trkpt lat="42.539850985631347" lon="1.733440021052957">
        <ele>2124.1700000000001</ele>
        <time>2025-05-15T05:57:59Z</time>
      </trkpt>
      <trkpt lat="42.5399000197649" lon="1.733451001346111">
        <ele>2124.1700000000001</ele>
        <time>2025-05-15T05:58:00Z</time>
      </trkpt>
      <trkpt lat="42.540125995874405" lon="1.733503974974155">
        <ele>2122.25</ele>
        <time>2025-05-15T05:58:04Z</time>
      </trkpt>
      <trkpt lat="42.540183998644352" lon="1.733517972752452">
        <ele>2121.77</ele>
        <time>2025-05-15T05:58:05Z</time>
      </trkpt>
      <trkpt lat="42.540294975042343" lon="1.733544040471315">
        <ele>2120.8099999999999</ele>
        <time>2025-05-15T05:58:07Z</time>
      </trkpt>
      <trkpt lat="42.540350966155529" lon="1.733558038249612">
        <ele>2119.8400000000001</ele>
        <time>2025-05-15T05:58:08Z</time>
      </trkpt>
      <trkpt lat="42.541165016591549" lon="1.733685024082661">
        <ele>2114.5599999999999</ele>
        <time>2025-05-15T05:58:20Z</time>
      </trkpt>
      <trkpt lat="42.5413609854877" lon="1.733707990497351">
        <ele>2112.6300000000001</ele>
        <time>2025-05-15T05:58:23Z</time>
      </trkpt>
      <trkpt lat="42.541423011571169" lon="1.733716037124395">
        <ele>2112.1500000000001</ele>
        <time>2025-05-15T05:58:24Z</time>
      </trkpt>
      <trkpt lat="42.541477996855974" lon="1.733729029074311">
        <ele>2111.1900000000001</ele>
        <time>2025-05-15T05:58:25Z</time>
      </trkpt>
      <trkpt lat="42.541535999625921" lon="1.733743026852608">
        <ele>2110.71</ele>
        <time>2025-05-15T05:58:26Z</time>
      </trkpt>
      <trkpt lat="42.541599031537771" lon="1.733759036287665">
        <ele>2109.75</ele>
        <time>2025-05-15T05:58:27Z</time>
      </trkpt>
      <trkpt lat="42.541661979630589" lon="1.733774961903691">
        <ele>2109.27</ele>
        <time>2025-05-15T05:58:28Z</time>
      </trkpt>
      <trkpt lat="42.541787037625909" lon="1.733803041279316">
        <ele>2108.3099999999999</ele>
        <time>2025-05-15T05:58:30Z</time>
      </trkpt>
      <trkpt lat="42.541842022910714" lon="1.733807986602187">
        <ele>2107.3499999999999</ele>
        <time>2025-05-15T05:58:31Z</time>
      </trkpt>
      <trkpt lat="42.541901031509042" lon="1.73381301574409">
        <ele>2106.8699999999999</ele>
        <time>2025-05-15T05:58:32Z</time>
      </trkpt>
      <trkpt lat="42.541950987651944" lon="1.733817961066961">
        <ele>2106.3899999999999</ele>
        <time>2025-05-15T05:58:33Z</time>
      </trkpt>
      <trkpt lat="42.542003039270639" lon="1.733822990208864">
        <ele>2105.9099999999999</ele>
        <time>2025-05-15T05:58:34Z</time>
      </trkpt>
      <trkpt lat="42.542048972100019" lon="1.733819972723723">
        <ele>2105.4200000000001</ele>
        <time>2025-05-15T05:58:35Z</time>
      </trkpt>
      <trkpt lat="42.542169000953436" lon="1.73381301574409">
        <ele>2103.02</ele>
        <time>2025-05-15T05:58:38Z</time>
      </trkpt>
      <trkpt lat="42.542205965146422" lon="1.733809998258948">
        <ele>2103.5</ele>
        <time>2025-05-15T05:58:39Z</time>
      </trkpt>
      <trkpt lat="42.542244018986821" lon="1.733807986602187">
        <ele>2103.98</ele>
        <time>2025-05-15T05:58:40Z</time>
      </trkpt>
      <trkpt lat="42.542291041463614" lon="1.733804969117045">
        <ele>2104.46</ele>
        <time>2025-05-15T05:58:41Z</time>
      </trkpt>
      <trkpt lat="42.542346026748419" lon="1.733801029622555">
        <ele>2104.46</ele>
        <time>2025-05-15T05:58:42Z</time>
      </trkpt>
      <trkpt lat="42.542391959577799" lon="1.733799017965794">
        <ele>2104.9400000000001</ele>
        <time>2025-05-15T05:58:43Z</time>
      </trkpt>
      <trkpt lat="42.542458008974791" lon="1.733794994652271">
        <ele>2104.9400000000001</ele>
        <time>2025-05-15T05:58:44Z</time>
      </trkpt>
      <trkpt lat="42.542547024786472" lon="1.733789965510368">
        <ele>2104.46</ele>
        <time>2025-05-15T05:58:45Z</time>
      </trkpt>
      <trkpt lat="42.542704017832875" lon="1.733779991045594">
        <ele>2104.9400000000001</ele>
        <time>2025-05-15T05:58:47Z</time>
      </trkpt>
      <trkpt lat="42.542710974812508" lon="1.733779991045594">
        <ele>2105.4200000000001</ele>
        <time>2025-05-15T05:58:48Z</time>
      </trkpt>
      <trkpt lat="42.543190000578761" lon="1.733872024342418">
        <ele>2108.79</ele>
        <time>2025-05-15T05:58:53Z</time>
      </trkpt>
      <trkpt lat="42.543567018583417" lon="1.733821984380484">
        <ele>2110.23</ele>
        <time>2025-05-15T05:58:58Z</time>
      </trkpt>
      <trkpt lat="42.543619992211461" lon="1.733889961615205">
        <ele>2110.23</ele>
        <time>2025-05-15T05:58:59Z</time>
      </trkpt>
      <trkpt lat="42.543659973889589" lon="1.733944024890661">
        <ele>2110.23</ele>
        <time>2025-05-15T05:59:00Z</time>
      </trkpt>
      <trkpt lat="42.543698027729988" lon="1.733994986861944">
        <ele>2110.23</ele>
        <time>2025-05-15T05:59:01Z</time>
      </trkpt>
      <trkpt lat="42.543698027729988" lon="1.733994986861944">
        <ele>2110.23</ele>
        <time>2025-05-15T05:59:02Z</time>
      </trkpt>
      <trkpt lat="42.543718982487917" lon="1.734131025150418">
        <ele>2110.23</ele>
        <time>2025-05-15T05:59:03Z</time>
      </trkpt>
      <trkpt lat="42.543730968609452" lon="1.734209982678294">
        <ele>2110.23</ele>
        <time>2025-05-15T05:59:04Z</time>
      </trkpt>
      <trkpt lat="42.543741026893258" lon="1.734281983226538">
        <ele>2110.23</ele>
        <time>2025-05-15T05:59:05Z</time>
      </trkpt>
      <trkpt lat="42.543741026893258" lon="1.7343720048666">
        <ele>2109.75</ele>
        <time>2025-05-15T05:59:06Z</time>
      </trkpt>
      <trkpt lat="42.543741026893258" lon="1.734469989314675">
        <ele>2109.27</ele>
        <time>2025-05-15T05:59:07Z</time>
      </trkpt>
      <trkpt lat="42.543741026893258" lon="1.734570991247892">
        <ele>2107.8299999999999</ele>
        <time>2025-05-15T05:59:08Z</time>
      </trkpt>
      <trkpt lat="42.543741026893258" lon="1.734670987352729">
        <ele>2106.8699999999999</ele>
        <time>2025-05-15T05:59:09Z</time>
      </trkpt>
      <trkpt lat="42.543716970831156" lon="1.734764026477933">
        <ele>2105.4200000000001</ele>
        <time>2025-05-15T05:59:10Z</time>
      </trkpt>
      <trkpt lat="42.543648993596435" lon="1.734939962625504">
        <ele>2103.02</ele>
        <time>2025-05-15T05:59:12Z</time>
      </trkpt>
      <trkpt lat="42.543584033846855" lon="1.735119000077248">
        <ele>2101.5799999999999</ele>
        <time>2025-05-15T05:59:14Z</time>
      </trkpt>
      <trkpt lat="42.543537011370063" lon="1.735177002847195">
        <ele>2100.6199999999999</ele>
        <time>2025-05-15T05:59:15Z</time>
      </trkpt>
      <trkpt lat="42.543398039415479" lon="1.735359979793429">
        <ele>2098.21</ele>
        <time>2025-05-15T05:59:18Z</time>
      </trkpt>
      <trkpt lat="42.543355962261558" lon="1.735443966463208">
        <ele>2097.73</ele>
        <time>2025-05-15T05:59:19Z</time>
      </trkpt>
      <trkpt lat="42.543370965868235" lon="1.735529964789748">
        <ele>2097.25</ele>
        <time>2025-05-15T05:59:20Z</time>
      </trkpt>
      <trkpt lat="42.543400973081589" lon="1.735586039721966">
        <ele>2096.77</ele>
        <time>2025-05-15T05:59:21Z</time>
      </trkpt>
      <trkpt lat="42.543461993336678" lon="1.735646976158023">
        <ele>2096.29</ele>
        <time>2025-05-15T05:59:22Z</time>
      </trkpt>
      <trkpt lat="42.543502980843186" lon="1.735715037211776">
        <ele>2095.8099999999999</ele>
        <time>2025-05-15T05:59:23Z</time>
      </trkpt>
      <trkpt lat="42.543544974178076" lon="1.735786031931639">
        <ele>2094.8499999999999</ele>
        <time>2025-05-15T05:59:24Z</time>
      </trkpt>
      <trkpt lat="42.543969014659524" lon="1.736228009685874">
        <ele>2090.04</ele>
        <time>2025-05-15T05:59:31Z</time>
      </trkpt>
      <trkpt lat="42.544790022075176" lon="1.736531015485525">
        <ele>2084.7600000000002</ele>
        <time>2025-05-15T05:59:40Z</time>
      </trkpt>
      <trkpt lat="42.546221986413002" lon="1.736798984929919">
        <ele>2073.2199999999998</ele>
        <time>2025-05-15T05:59:51Z</time>
      </trkpt>
      <trkpt lat="42.546512000262737" lon="1.736891018226743">
        <ele>2070.8200000000002</ele>
        <time>2025-05-15T05:59:53Z</time>
      </trkpt>
      <trkpt lat="42.546640997752547" lon="1.736965030431747">
        <ele>2069.3800000000001</ele>
        <time>2025-05-15T05:59:54Z</time>
      </trkpt>
      <trkpt lat="42.546772006899118" lon="1.737040970474482">
        <ele>2068.4099999999999</ele>
        <time>2025-05-15T05:59:55Z</time>
      </trkpt>
      <trkpt lat="42.547811027616262" lon="1.737588979303837">
        <ele>2059.7600000000002</ele>
        <time>2025-05-15T06:00:03Z</time>
      </trkpt>
      <trkpt lat="42.548211012035608" lon="1.737755024805665">
        <ele>2056.8800000000001</ele>
        <time>2025-05-15T06:00:06Z</time>
      </trkpt>
      <trkpt lat="42.548348978161812" lon="1.737771034240723">
        <ele>2055.9200000000001</ele>
        <time>2025-05-15T06:00:07Z</time>
      </trkpt>
      <trkpt lat="42.548739993944764" lon="1.737815961241722">
        <ele>2053.0300000000002</ele>
        <time>2025-05-15T06:00:10Z</time>
      </trkpt>
      <trkpt lat="42.548847030848265" lon="1.737828031182289">
        <ele>2052.5500000000002</ele>
        <time>2025-05-15T06:00:11Z</time>
      </trkpt>
      <trkpt lat="42.548954989761114" lon="1.738006984815002">
        <ele>2052.0700000000002</ele>
        <time>2025-05-15T06:00:12Z</time>
      </trkpt>
      <trkpt lat="42.549003018066287" lon="1.7380450386554">
        <ele>2051.5900000000001</ele>
        <time>2025-05-15T06:00:13Z</time>
      </trkpt>
      <trkpt lat="42.549090022221208" lon="1.738083008676767">
        <ele>2051.1100000000001</ele>
        <time>2025-05-15T06:00:14Z</time>
      </trkpt>
      <trkpt lat="42.549157999455929" lon="1.738057024776936">
        <ele>2050.6300000000001</ele>
        <time>2025-05-15T06:00:15Z</time>
      </trkpt>
      <trkpt lat="42.549228994175792" lon="1.738031040877104">
        <ele>2050.1500000000001</ele>
        <time>2025-05-15T06:00:16Z</time>
      </trkpt>
      <trkpt lat="42.549234023317695" lon="1.738029029220343">
        <ele>2049.6700000000001</ele>
        <time>2025-05-15T06:00:17Z</time>
      </trkpt>
      <trkpt lat="42.54939503967762" lon="1.737907994538546">
        <ele>2049.6700000000001</ele>
        <time>2025-05-15T06:00:18Z</time>
      </trkpt>
      <trkpt lat="42.549485983327031" lon="1.737931966781616">
        <ele>2049.1900000000001</ele>
        <time>2025-05-15T06:00:19Z</time>
      </trkpt>
      <trkpt lat="42.549586985260248" lon="1.73795904032886">
        <ele>2048.71</ele>
        <time>2025-05-15T06:00:20Z</time>
      </trkpt>
      <trkpt lat="42.550467001274228" lon="1.738309990614653">
        <ele>2044.3800000000001</ele>
        <time>2025-05-15T06:00:27Z</time>
      </trkpt>
      <trkpt lat="42.552214041352272" lon="1.739575993269682">
        <ele>2031.4000000000001</ele>
        <time>2025-05-15T06:00:39Z</time>
      </trkpt>
      <trkpt lat="42.553433021530509" lon="1.740674022585154">
        <ele>2022.75</ele>
        <time>2025-05-15T06:00:48Z</time>
      </trkpt>
      <trkpt lat="42.554227039217949" lon="1.741769034415484">
        <ele>2016.02</ele>
        <time>2025-05-15T06:00:55Z</time>
      </trkpt>
      <trkpt lat="42.555019967257977" lon="1.743237040936947">
        <ele>2010.25</ele>
        <time>2025-05-15T06:01:03Z</time>
      </trkpt>
      <trkpt lat="42.55635897628963" lon="1.74500897526741">
        <ele>1998.72</ele>
        <time>2025-05-15T06:01:14Z</time>
      </trkpt>
      <trkpt lat="42.557414006441832" lon="1.746463989838958">
        <ele>1989.0999999999999</ele>
        <time>2025-05-15T06:01:23Z</time>
      </trkpt>
      <trkpt lat="42.558474987745285" lon="1.747942976653576">
        <ele>1980.45</ele>
        <time>2025-05-15T06:01:32Z</time>
      </trkpt>
      <trkpt lat="42.558537013828754" lon="1.748138023540378">
        <ele>1979.97</ele>
        <time>2025-05-15T06:01:33Z</time>
      </trkpt>
      <trkpt lat="42.558599961921573" lon="1.748336004093289">
        <ele>1979.01</ele>
        <time>2025-05-15T06:01:34Z</time>
      </trkpt>
      <trkpt lat="42.558932974934578" lon="1.749810967594385">
        <ele>1971.8</ele>
        <time>2025-05-15T06:01:41Z</time>
      </trkpt>
      <trkpt lat="42.558932974934578" lon="1.749994028359652">
        <ele>1970.8399999999999</ele>
        <time>2025-05-15T06:01:42Z</time>
      </trkpt>
      <trkpt lat="42.55891403183341" lon="1.750172981992364">
        <ele>1970.3599999999999</ele>
        <time>2025-05-15T06:01:43Z</time>
      </trkpt>
      <trkpt lat="42.558826021850109" lon="1.750581013038755">
        <ele>1968.9200000000001</ele>
        <time>2025-05-15T06:01:45Z</time>
      </trkpt>
      <trkpt lat="42.55883096717298" lon="1.75074596889317">
        <ele>1967.96</ele>
        <time>2025-05-15T06:01:46Z</time>
      </trkpt>
      <trkpt lat="42.558812024071813" lon="1.751506961882114">
        <ele>1965.0699999999999</ele>
        <time>2025-05-15T06:01:50Z</time>
      </trkpt>
      <trkpt lat="42.55878796800971" lon="1.751670995727181">
        <ele>1964.1099999999999</ele>
        <time>2025-05-15T06:01:51Z</time>
      </trkpt>
      <trkpt lat="42.55876399576664" lon="1.751832012087107">
        <ele>1963.6300000000001</ele>
        <time>2025-05-15T06:01:52Z</time>
      </trkpt>
      <trkpt lat="42.558740023523569" lon="1.751996967941523">
        <ele>1962.6700000000001</ele>
        <time>2025-05-15T06:01:53Z</time>
      </trkpt>
      <trkpt lat="42.558760978281498" lon="1.752149015665054">
        <ele>1962.1900000000001</ele>
        <time>2025-05-15T06:01:54Z</time>
      </trkpt>
      <trkpt lat="42.5587850343436" lon="1.752323023974896">
        <ele>1961.71</ele>
        <time>2025-05-15T06:01:55Z</time>
      </trkpt>
      <trkpt lat="42.558924006298184" lon="1.753736967220902">
        <ele>1955.46</ele>
        <time>2025-05-15T06:02:03Z</time>
      </trkpt>
      <trkpt lat="42.558929035440087" lon="1.755000036209822">
        <ele>1950.1700000000001</ele>
        <time>2025-05-15T06:02:12Z</time>
      </trkpt>
      <trkpt lat="42.559147970750928" lon="1.756081972271204">
        <ele>1944.8800000000001</ele>
        <time>2025-05-15T06:02:23Z</time>
      </trkpt>
      <trkpt lat="42.559163980185986" lon="1.756147015839815">
        <ele>1944.4000000000001</ele>
        <time>2025-05-15T06:02:24Z</time>
      </trkpt>
      <trkpt lat="42.559192981570959" lon="1.756274001672864">
        <ele>1943.4400000000001</ele>
        <time>2025-05-15T06:02:26Z</time>
      </trkpt>
      <trkpt lat="42.559275962412357" lon="1.75663199275732">
        <ele>1940.5599999999999</ele>
        <time>2025-05-15T06:02:32Z</time>
      </trkpt>
      <trkpt lat="42.559320973232388" lon="1.756865009665489">
        <ele>1938.6400000000001</ele>
        <time>2025-05-15T06:02:36Z</time>
      </trkpt>
      <trkpt lat="42.559338994324207" lon="1.756958970800042">
        <ele>1937.6700000000001</ele>
        <time>2025-05-15T06:02:38Z</time>
      </trkpt>
      <trkpt lat="42.559347962960601" lon="1.757006999105215">
        <ele>1937.1900000000001</ele>
        <time>2025-05-15T06:02:39Z</time>
      </trkpt>
      <trkpt lat="42.559491964057088" lon="1.757750976830721">
        <ele>1934.79</ele>
        <time>2025-05-15T06:02:48Z</time>
      </trkpt>
      <trkpt lat="42.559539992362261" lon="1.75783596932888">
        <ele>1934.79</ele>
        <time>2025-05-15T06:02:49Z</time>
      </trkpt>
      <trkpt lat="42.559891026467085" lon="1.758462013676763">
        <ele>1932.3900000000001</ele>
        <time>2025-05-15T06:02:58Z</time>
      </trkpt>
      <trkpt lat="42.559909969568253" lon="1.758495960384607">
        <ele>1931.4300000000001</ele>
        <time>2025-05-15T06:03:05Z</time>
      </trkpt>
      <trkpt lat="42.559909969568253" lon="1.758495960384607">
        <ele>1931.9100000000001</ele>
        <time>2025-05-15T06:03:46Z</time>
      </trkpt>
      <trkpt lat="42.559963027015328" lon="1.758592016994953">
        <ele>1932.3900000000001</ele>
        <time>2025-05-15T06:04:28Z</time>
      </trkpt>
      <trkpt lat="42.559993034228683" lon="1.758645996451378">
        <ele>1932.8699999999999</ele>
        <time>2025-05-15T06:04:29Z</time>
      </trkpt>
      <trkpt lat="42.560029998421669" lon="1.758711962029338">
        <ele>1932.8699999999999</ele>
        <time>2025-05-15T06:04:30Z</time>
      </trkpt>
      <trkpt lat="42.560092024505138" lon="1.7588210105896">
        <ele>1932.8699999999999</ele>
        <time>2025-05-15T06:04:31Z</time>
      </trkpt>
      <trkpt lat="42.560105016455054" lon="1.758902985602617">
        <ele>1932.3900000000001</ele>
        <time>2025-05-15T06:04:32Z</time>
      </trkpt>
      <trkpt lat="42.560141980648041" lon="1.759044975042343">
        <ele>1931.9100000000001</ele>
        <time>2025-05-15T06:04:33Z</time>
      </trkpt>
      <trkpt lat="42.560337027534842" lon="1.759857013821602">
        <ele>1928.0599999999999</ele>
        <time>2025-05-15T06:04:38Z</time>
      </trkpt>
      <trkpt lat="42.560369968414307" lon="1.760001014918089">
        <ele>1927.5799999999999</ele>
        <time>2025-05-15T06:04:39Z</time>
      </trkpt>
      <trkpt lat="42.560378015041351" lon="1.760220034047961">
        <ele>1926.6199999999999</ele>
        <time>2025-05-15T06:04:40Z</time>
      </trkpt>
      <trkpt lat="42.560445992276073" lon="1.762352976948023">
        <ele>1917.97</ele>
        <time>2025-05-15T06:04:50Z</time>
      </trkpt>
      <trkpt lat="42.560320012271404" lon="1.764500001445413">
        <ele>1908.3499999999999</ele>
        <time>2025-05-15T06:05:00Z</time>
      </trkpt>
      <trkpt lat="42.560208030045033" lon="1.765380017459393">
        <ele>1903.55</ele>
        <time>2025-05-15T06:05:05Z</time>
      </trkpt>
      <trkpt lat="42.560164025053382" lon="1.765540027990937">
        <ele>1902.5899999999999</ele>
        <time>2025-05-15T06:05:06Z</time>
      </trkpt>
      <trkpt lat="42.560100993141532" lon="1.765690986067057">
        <ele>1901.6300000000001</ele>
        <time>2025-05-15T06:05:07Z</time>
      </trkpt>
      <trkpt lat="42.560012983158231" lon="1.765814032405615">
        <ele>1900.1800000000001</ele>
        <time>2025-05-15T06:05:08Z</time>
      </trkpt>
      <trkpt lat="42.55992497317493" lon="1.765936994925141">
        <ele>1899.22</ele>
        <time>2025-05-15T06:05:09Z</time>
      </trkpt>
      <trkpt lat="42.559813996776938" lon="1.766017964109778">
        <ele>1898.26</ele>
        <time>2025-05-15T06:05:10Z</time>
      </trkpt>
      <trkpt lat="42.559697991237044" lon="1.766099017113447">
        <ele>1897.3</ele>
        <time>2025-05-15T06:05:11Z</time>
      </trkpt>
      <trkpt lat="42.559574022889137" lon="1.766184009611607">
        <ele>1896.3399999999999</ele>
        <time>2025-05-15T06:05:12Z</time>
      </trkpt>
      <trkpt lat="42.559446031227708" lon="1.766273025423288">
        <ele>1895.3800000000001</ele>
        <time>2025-05-15T06:05:13Z</time>
      </trkpt>
      <trkpt lat="42.559318961575627" lon="1.766376961022615">
        <ele>1894.4200000000001</ele>
        <time>2025-05-15T06:05:14Z</time>
      </trkpt>
      <trkpt lat="42.559199016541243" lon="1.766507970169187">
        <ele>1893.45</ele>
        <time>2025-05-15T06:05:15Z</time>
      </trkpt>
      <trkpt lat="42.558681014925241" lon="1.766998982056975">
        <ele>1890.0899999999999</ele>
        <time>2025-05-15T06:05:19Z</time>
      </trkpt>
      <trkpt lat="42.558546988293529" lon="1.767081962898374">
        <ele>1889.1300000000001</ele>
        <time>2025-05-15T06:05:20Z</time>
      </trkpt>
      <trkpt lat="42.558396030217409" lon="1.767120016738772">
        <ele>1888.1700000000001</ele>
        <time>2025-05-15T06:05:21Z</time>
      </trkpt>
      <trkpt lat="42.557438984513283" lon="1.767559982836247">
        <ele>1881.4400000000001</ele>
        <time>2025-05-15T06:05:28Z</time>
      </trkpt>
      <trkpt lat="42.557329013943672" lon="1.767658973112702">
        <ele>1880.48</ele>
        <time>2025-05-15T06:05:29Z</time>
      </trkpt>
      <trkpt lat="42.557227006182075" lon="1.76778101362288">
        <ele>1880</ele>
        <time>2025-05-15T06:05:30Z</time>
      </trkpt>
      <trkpt lat="42.557015027850866" lon="1.768031967803836">
        <ele>1878.0699999999999</ele>
        <time>2025-05-15T06:05:32Z</time>
      </trkpt>
      <trkpt lat="42.5569390039891" lon="1.768179992213845">
        <ele>1877.5899999999999</ele>
        <time>2025-05-15T06:05:33Z</time>
      </trkpt>
      <trkpt lat="42.55687203258276" lon="1.768321981653571">
        <ele>1876.6300000000001</ele>
        <time>2025-05-15T06:05:34Z</time>
      </trkpt>
      <trkpt lat="42.55681000649929" lon="1.768450979143381">
        <ele>1876.1500000000001</ele>
        <time>2025-05-15T06:05:35Z</time>
      </trkpt>
      <trkpt lat="42.556793997064233" lon="1.768583999946713">
        <ele>1875.6700000000001</ele>
        <time>2025-05-15T06:05:36Z</time>
      </trkpt>
      <trkpt lat="42.556798020377755" lon="1.768680978566408">
        <ele>1875.1900000000001</ele>
        <time>2025-05-15T06:05:37Z</time>
      </trkpt>
      <trkpt lat="42.556830961257219" lon="1.768779968842864">
        <ele>1875.1900000000001</ele>
        <time>2025-05-15T06:05:38Z</time>
      </trkpt>
      <trkpt lat="42.556869015097618" lon="1.768850963562727">
        <ele>1875.1900000000001</ele>
        <time>2025-05-15T06:05:39Z</time>
      </trkpt>
      <trkpt lat="42.556962976232171" lon="1.768902009353042">
        <ele>1874.71</ele>
        <time>2025-05-15T06:05:40Z</time>
      </trkpt>
      <trkpt lat="42.557064983993769" lon="1.768958000466228">
        <ele>1874.23</ele>
        <time>2025-05-15T06:05:41Z</time>
      </trkpt>
      <trkpt lat="42.55717302672565" lon="1.769026983529329">
        <ele>1873.75</ele>
        <time>2025-05-15T06:05:42Z</time>
      </trkpt>
      <trkpt lat="42.557289032265544" lon="1.769105019047856">
        <ele>1872.79</ele>
        <time>2025-05-15T06:05:43Z</time>
      </trkpt>
      <trkpt lat="42.557416018098593" lon="1.769189005717635">
        <ele>1872.3</ele>
        <time>2025-05-15T06:05:44Z</time>
      </trkpt>
      <trkpt lat="42.557941982522607" lon="1.769659984856844">
        <ele>1868.9400000000001</ele>
        <time>2025-05-15T06:05:48Z</time>
      </trkpt>
      <trkpt lat="42.558062011376023" lon="1.769813038408756">
        <ele>1867.98</ele>
        <time>2025-05-15T06:05:49Z</time>
      </trkpt>
      <trkpt lat="42.55814197473228" lon="1.769999032840133">
        <ele>1867.02</ele>
        <time>2025-05-15T06:05:50Z</time>
      </trkpt>
      <trkpt lat="42.558223027735949" lon="1.77018603309989">
        <ele>1866.0599999999999</ele>
        <time>2025-05-15T06:05:51Z</time>
      </trkpt>
      <trkpt lat="42.558303996920586" lon="1.770373033359647">
        <ele>1864.6099999999999</ele>
        <time>2025-05-15T06:05:52Z</time>
      </trkpt>
      <trkpt lat="42.558374991640449" lon="1.770536983385682">
        <ele>1863.6500000000001</ele>
        <time>2025-05-15T06:05:53Z</time>
      </trkpt>
      <trkpt lat="42.558479011058807" lon="1.770692970603705">
        <ele>1862.6900000000001</ele>
        <time>2025-05-15T06:05:54Z</time>
      </trkpt>
      <trkpt lat="42.558584958314896" lon="1.770779974758625">
        <ele>1862.21</ele>
        <time>2025-05-15T06:05:55Z</time>
      </trkpt>
      <trkpt lat="42.558709010481834" lon="1.770857004448772">
        <ele>1861.25</ele>
        <time>2025-05-15T06:05:56Z</time>
      </trkpt>
      <trkpt lat="42.558841025456786" lon="1.77093998529017">
        <ele>1860.29</ele>
        <time>2025-05-15T06:05:57Z</time>
      </trkpt>
      <trkpt lat="42.55897999741137" lon="1.771024977788329">
        <ele>1859.3299999999999</ele>
        <time>2025-05-15T06:05:58Z</time>
      </trkpt>
      <trkpt lat="42.559130033478141" lon="1.771121034398675">
        <ele>1858.3699999999999</ele>
        <time>2025-05-15T06:05:59Z</time>
      </trkpt>
      <trkpt lat="42.56005397066474" lon="1.772148991003633">
        <ele>1851.1600000000001</ele>
        <time>2025-05-15T06:06:06Z</time>
      </trkpt>
      <trkpt lat="42.560154972597957" lon="1.772310007363558">
        <ele>1849.71</ele>
        <time>2025-05-15T06:06:07Z</time>
      </trkpt>
      <trkpt lat="42.560250023379922" lon="1.772475969046354">
        <ele>1848.75</ele>
        <time>2025-05-15T06:06:08Z</time>
      </trkpt>
      <trkpt lat="42.560308026149869" lon="1.772684007883072">
        <ele>1847.3099999999999</ele>
        <time>2025-05-15T06:06:09Z</time>
      </trkpt>
      <trkpt lat="42.560368962585926" lon="1.772902021184564">
        <ele>1846.3499999999999</ele>
        <time>2025-05-15T06:06:10Z</time>
      </trkpt>
      <trkpt lat="42.560954019427299" lon="1.775121968239546">
        <ele>1833.8499999999999</ele>
        <time>2025-05-15T06:06:20Z</time>
      </trkpt>
      <trkpt lat="42.56095502525568" lon="1.775306034833193">
        <ele>1832.4100000000001</ele>
        <time>2025-05-15T06:06:21Z</time>
      </trkpt>
      <trkpt lat="42.560904985293746" lon="1.775457998737693">
        <ele>1831.45</ele>
        <time>2025-05-15T06:06:22Z</time>
      </trkpt>
      <trkpt lat="42.560852011665702" lon="1.775615997612476">
        <ele>1830.01</ele>
        <time>2025-05-15T06:06:23Z</time>
      </trkpt>
      <trkpt lat="42.560800965875387" lon="1.775769973173738">
        <ele>1829.05</ele>
        <time>2025-05-15T06:06:24Z</time>
      </trkpt>
      <trkpt lat="42.560786968097091" lon="1.775911962613463">
        <ele>1828.0799999999999</ele>
        <time>2025-05-15T06:06:25Z</time>
      </trkpt>
      <trkpt lat="42.560799960047007" lon="1.776029979810119">
        <ele>1826.6400000000001</ele>
        <time>2025-05-15T06:06:26Z</time>
      </trkpt>
      <trkpt lat="42.560850000008941" lon="1.776106003671885">
        <ele>1826.1600000000001</ele>
        <time>2025-05-15T06:06:27Z</time>
      </trkpt>
      <trkpt lat="42.560915965586901" lon="1.77620499394834">
        <ele>1825.6800000000001</ele>
        <time>2025-05-15T06:06:28Z</time>
      </trkpt>
      <trkpt lat="42.560992995277047" lon="1.776319993659854">
        <ele>1824.72</ele>
        <time>2025-05-15T06:06:29Z</time>
      </trkpt>
      <trkpt lat="42.561075976118445" lon="1.776444967836142">
        <ele>1824.24</ele>
        <time>2025-05-15T06:06:30Z</time>
      </trkpt>
      <trkpt lat="42.561144037172198" lon="1.776593998074532">
        <ele>1823.28</ele>
        <time>2025-05-15T06:06:31Z</time>
      </trkpt>
      <trkpt lat="42.561200028285384" lon="1.77674101665616">
        <ele>1822.8</ele>
        <time>2025-05-15T06:06:32Z</time>
      </trkpt>
      <trkpt lat="42.561190975829959" lon="1.776887029409409">
        <ele>1821.8399999999999</ele>
        <time>2025-05-15T06:06:33Z</time>
      </trkpt>
      <trkpt lat="42.561172032728791" lon="1.777039999142289">
        <ele>1820.8699999999999</ele>
        <time>2025-05-15T06:06:34Z</time>
      </trkpt>
      <trkpt lat="42.56112702190876" lon="1.777177965268493">
        <ele>1819.9100000000001</ele>
        <time>2025-05-15T06:06:35Z</time>
      </trkpt>
      <trkpt lat="42.561053009703755" lon="1.777325989678502">
        <ele>1819.4300000000001</ele>
        <time>2025-05-15T06:06:36Z</time>
      </trkpt>
      <trkpt lat="42.56097799167037" lon="1.777465967461467">
        <ele>1818.95</ele>
        <time>2025-05-15T06:06:37Z</time>
      </trkpt>
      <trkpt lat="42.560863997787237" lon="1.777618015184999">
        <ele>1817.99</ele>
        <time>2025-05-15T06:06:38Z</time>
      </trkpt>
      <trkpt lat="42.560781016945839" lon="1.777700996026397">
        <ele>1817.03</ele>
        <time>2025-05-15T06:06:39Z</time>
      </trkpt>
      <trkpt lat="42.560685966163874" lon="1.77779596298933">
        <ele>1816.55</ele>
        <time>2025-05-15T06:06:40Z</time>
      </trkpt>
      <trkpt lat="42.560617988929152" lon="1.777902999892831">
        <ele>1816.0699999999999</ele>
        <time>2025-05-15T06:06:41Z</time>
      </trkpt>
      <trkpt lat="42.560594016686082" lon="1.778024034574628">
        <ele>1815.1099999999999</ele>
        <time>2025-05-15T06:06:42Z</time>
      </trkpt>
      <trkpt lat="42.560615977272391" lon="1.778130987659097">
        <ele>1814.6300000000001</ele>
        <time>2025-05-15T06:06:43Z</time>
      </trkpt>
      <trkpt lat="42.560665011405945" lon="1.778228972107172">
        <ele>1814.1500000000001</ele>
        <time>2025-05-15T06:06:44Z</time>
      </trkpt>
      <trkpt lat="42.560727959498763" lon="1.7782879807055">
        <ele>1813.6600000000001</ele>
        <time>2025-05-15T06:06:45Z</time>
      </trkpt>
      <trkpt lat="42.56080599501729" lon="1.778349000960589">
        <ele>1812.7</ele>
        <time>2025-05-15T06:06:46Z</time>
      </trkpt>
      <trkpt lat="42.560925018042326" lon="1.778368027880788">
        <ele>1812.22</ele>
        <time>2025-05-15T06:06:47Z</time>
      </trkpt>
      <trkpt lat="42.56106298416853" lon="1.778390994295478">
        <ele>1811.26</ele>
        <time>2025-05-15T06:06:48Z</time>
      </trkpt>
      <trkpt lat="42.561728004366159" lon="1.778511023148894">
        <ele>1807.4200000000001</ele>
        <time>2025-05-15T06:06:52Z</time>
      </trkpt>
      <trkpt lat="42.561873011291027" lon="1.778584029525518">
        <ele>1805.97</ele>
        <time>2025-05-15T06:06:53Z</time>
      </trkpt>
      <trkpt lat="42.562026986852288" lon="1.778702968731523">
        <ele>1804.53</ele>
        <time>2025-05-15T06:06:54Z</time>
      </trkpt>
      <trkpt lat="42.562177022919059" lon="1.778828026726842">
        <ele>1803.0899999999999</ele>
        <time>2025-05-15T06:06:55Z</time>
      </trkpt>
      <trkpt lat="42.562317000702024" lon="1.778992982581258">
        <ele>1802.1300000000001</ele>
        <time>2025-05-15T06:06:56Z</time>
      </trkpt>
      <trkpt lat="42.562961988151073" lon="1.779810972511768">
        <ele>1795.4000000000001</ele>
        <time>2025-05-15T06:07:01Z</time>
      </trkpt>
      <trkpt lat="42.563019990921021" lon="1.77998598664999">
        <ele>1793.96</ele>
        <time>2025-05-15T06:07:02Z</time>
      </trkpt>
      <trkpt lat="42.563059972599149" lon="1.780172986909747">
        <ele>1792.52</ele>
        <time>2025-05-15T06:07:03Z</time>
      </trkpt>
      <trkpt lat="42.563092997297645" lon="1.780370967462659">
        <ele>1791.0699999999999</ele>
        <time>2025-05-15T06:07:04Z</time>
      </trkpt>
      <trkpt lat="42.56312501616776" lon="1.780564002692699">
        <ele>1790.1099999999999</ele>
        <time>2025-05-15T06:07:05Z</time>
      </trkpt>
      <trkpt lat="42.563178995624185" lon="1.780889974907041">
        <ele>1787.71</ele>
        <time>2025-05-15T06:07:07Z</time>
      </trkpt>
      <trkpt lat="42.563223000615835" lon="1.781013021245599">
        <ele>1786.75</ele>
        <time>2025-05-15T06:07:08Z</time>
      </trkpt>
      <trkpt lat="42.563286032527685" lon="1.781102037057281">
        <ele>1786.27</ele>
        <time>2025-05-15T06:07:09Z</time>
      </trkpt>
      <trkpt lat="42.563367001712322" lon="1.78114696405828">
        <ele>1785.79</ele>
        <time>2025-05-15T06:07:10Z</time>
      </trkpt>
      <trkpt lat="42.563465991988778" lon="1.781174037605524">
        <ele>1784.8199999999999</ele>
        <time>2025-05-15T06:07:11Z</time>
      </trkpt>
      <trkpt lat="42.563575962558389" lon="1.781203038990498">
        <ele>1784.3399999999999</ele>
        <time>2025-05-15T06:07:12Z</time>
      </trkpt>
      <trkpt lat="42.563819959759712" lon="1.781281996518374">
        <ele>1782.4200000000001</ele>
        <time>2025-05-15T06:07:14Z</time>
      </trkpt>
      <trkpt lat="42.563915010541677" lon="1.781376963481307">
        <ele>1781.46</ele>
        <time>2025-05-15T06:07:15Z</time>
      </trkpt>
      <trkpt lat="42.56400897167623" lon="1.781471008434892">
        <ele>1780.98</ele>
        <time>2025-05-15T06:07:16Z</time>
      </trkpt>
      <trkpt lat="42.564082983881235" lon="1.781545020639896">
        <ele>1780.02</ele>
        <time>2025-05-15T06:07:17Z</time>
      </trkpt>
      <trkpt lat="42.564147021621466" lon="1.781700002029538">
        <ele>1779.54</ele>
        <time>2025-05-15T06:07:18Z</time>
      </trkpt>
      <trkpt lat="42.564196977764368" lon="1.781821958720684">
        <ele>1778.5799999999999</ele>
        <time>2025-05-15T06:07:19Z</time>
      </trkpt>
      <trkpt lat="42.564248023554683" lon="1.78194098174572">
        <ele>1778.0999999999999</ele>
        <time>2025-05-15T06:07:20Z</time>
      </trkpt>
      <trkpt lat="42.564303008839488" lon="1.782050030305982">
        <ele>1777.6099999999999</ele>
        <time>2025-05-15T06:07:21Z</time>
      </trkpt>
      <trkpt lat="42.564447009935975" lon="1.782080959528685">
        <ele>1777.1300000000001</ele>
        <time>2025-05-15T06:07:22Z</time>
      </trkpt>
      <trkpt lat="42.564498977735639" lon="1.782124964520335">
        <ele>1776.6500000000001</ele>
        <time>2025-05-15T06:07:23Z</time>
      </trkpt>
      <trkpt lat="42.564591011032462" lon="1.782205011695623">
        <ele>1776.1700000000001</ele>
        <time>2025-05-15T06:07:24Z</time>
      </trkpt>
      <trkpt lat="42.564691007137299" lon="1.782291010022163">
        <ele>1776.1700000000001</ele>
        <time>2025-05-15T06:07:25Z</time>
      </trkpt>
      <trkpt lat="42.564797038212419" lon="1.782382037490606">
        <ele>1775.6900000000001</ele>
        <time>2025-05-15T06:07:26Z</time>
      </trkpt>
      <trkpt lat="42.565671019256115" lon="1.783197009935975">
        <ele>1780.5</ele>
        <time>2025-05-15T06:07:33Z</time>
      </trkpt>
      <trkpt lat="42.566088018938899" lon="1.783464979380369">
        <ele>1782.9000000000001</ele>
        <time>2025-05-15T06:07:36Z</time>
      </trkpt>
      <trkpt lat="42.566211987286806" lon="1.783603029325604">
        <ele>1783.3800000000001</ele>
        <time>2025-05-15T06:07:37Z</time>
      </trkpt>
      <trkpt lat="42.566324975341558" lon="1.783775025978684">
        <ele>1784.3399999999999</ele>
        <time>2025-05-15T06:07:38Z</time>
      </trkpt>
      <trkpt lat="42.566983038559556" lon="1.7849260289222">
        <ele>1790.5899999999999</ele>
        <time>2025-05-15T06:07:44Z</time>
      </trkpt>
      <trkpt lat="42.567050009965897" lon="1.78514395840466">
        <ele>1791.55</ele>
        <time>2025-05-15T06:07:45Z</time>
      </trkpt>
      <trkpt lat="42.567117987200618" lon="1.785364989191294">
        <ele>1792.52</ele>
        <time>2025-05-15T06:07:46Z</time>
      </trkpt>
      <trkpt lat="42.567493999376893" lon="1.787594994530082">
        <ele>1802.1300000000001</ele>
        <time>2025-05-15T06:07:55Z</time>
      </trkpt>
      <trkpt lat="42.567498022690415" lon="1.788066979497671">
        <ele>1804.05</ele>
        <time>2025-05-15T06:07:57Z</time>
      </trkpt>
      <trkpt lat="42.567485030740499" lon="1.788298990577459">
        <ele>1804.53</ele>
        <time>2025-05-15T06:07:58Z</time>
      </trkpt>
      <trkpt lat="42.567461980506778" lon="1.788528990000486">
        <ele>1805.49</ele>
        <time>2025-05-15T06:07:59Z</time>
      </trkpt>
      <trkpt lat="42.567388974130154" lon="1.78875002078712">
        <ele>1806.45</ele>
        <time>2025-05-15T06:08:00Z</time>
      </trkpt>
      <trkpt lat="42.567312028259039" lon="1.788979014381766">
        <ele>1807.9000000000001</ele>
        <time>2025-05-15T06:08:01Z</time>
      </trkpt>
      <trkpt lat="42.567070964723825" lon="1.789667000994086">
        <ele>1810.78</ele>
        <time>2025-05-15T06:08:04Z</time>
      </trkpt>
      <trkpt lat="42.566571990028024" lon="1.79068598896265">
        <ele>1817.03</ele>
        <time>2025-05-15T06:08:09Z</time>
      </trkpt>
      <trkpt lat="42.566523039713502" lon="1.790938032791019">
        <ele>1817.99</ele>
        <time>2025-05-15T06:08:10Z</time>
      </trkpt>
      <trkpt lat="42.56647601723671" lon="1.791183035820723">
        <ele>1818.95</ele>
        <time>2025-05-15T06:08:11Z</time>
      </trkpt>
      <trkpt lat="42.56632698699832" lon="1.792141003534198">
        <ele>1823.28</ele>
        <time>2025-05-15T06:08:15Z</time>
      </trkpt>
      <trkpt lat="42.56634802557528" lon="1.792358011007309">
        <ele>1824.24</ele>
        <time>2025-05-15T06:08:16Z</time>
      </trkpt>
      <trkpt lat="42.566395970061421" lon="1.792572000995278">
        <ele>1825.6800000000001</ele>
        <time>2025-05-15T06:08:17Z</time>
      </trkpt>
      <trkpt lat="42.566462019458413" lon="1.792781967669725">
        <ele>1826.6400000000001</ele>
        <time>2025-05-15T06:08:18Z</time>
      </trkpt>
      <trkpt lat="42.566528990864754" lon="1.792999980971217">
        <ele>1827.1199999999999</ele>
        <time>2025-05-15T06:08:19Z</time>
      </trkpt>
      <trkpt lat="42.566580958664417" lon="1.793231992051005">
        <ele>1828.0799999999999</ele>
        <time>2025-05-15T06:08:20Z</time>
      </trkpt>
      <trkpt lat="42.566625969484448" lon="1.793470960110426">
        <ele>1828.5599999999999</ele>
        <time>2025-05-15T06:08:21Z</time>
      </trkpt>
      <trkpt lat="42.56667198613286" lon="1.793715041130781">
        <ele>1829.53</ele>
        <time>2025-05-15T06:08:22Z</time>
      </trkpt>
      <trkpt lat="42.566791009157896" lon="1.796611994504929">
        <ele>1842.02</ele>
        <time>2025-05-15T06:08:33Z</time>
      </trkpt>
      <trkpt lat="42.566755972802639" lon="1.796824978664517">
        <ele>1842.98</ele>
        <time>2025-05-15T06:08:34Z</time>
      </trkpt>
      <trkpt lat="42.566702999174595" lon="1.797012984752655">
        <ele>1843.95</ele>
        <time>2025-05-15T06:08:35Z</time>
      </trkpt>
      <trkpt lat="42.566652037203312" lon="1.79719302803278">
        <ele>1845.3900000000001</ele>
        <time>2025-05-15T06:08:36Z</time>
      </trkpt>
      <trkpt lat="42.566621024161577" lon="1.797372987493873">
        <ele>1846.3499999999999</ele>
        <time>2025-05-15T06:08:37Z</time>
      </trkpt>
      <trkpt lat="42.566593028604984" lon="1.797595024108887">
        <ele>1847.79</ele>
        <time>2025-05-15T06:08:38Z</time>
      </trkpt>
      <trkpt lat="42.566624041646719" lon="1.797748999670148">
        <ele>1848.75</ele>
        <time>2025-05-15T06:08:39Z</time>
      </trkpt>
      <trkpt lat="42.566657988354564" lon="1.797916973009706">
        <ele>1850.1900000000001</ele>
        <time>2025-05-15T06:08:40Z</time>
      </trkpt>
      <trkpt lat="42.566750021651387" lon="1.798083018511534">
        <ele>1851.1600000000001</ele>
        <time>2025-05-15T06:08:41Z</time>
      </trkpt>
      <trkpt lat="42.566834008321166" lon="1.798233976587653">
        <ele>1852.1199999999999</ele>
        <time>2025-05-15T06:08:42Z</time>
      </trkpt>
      <trkpt lat="42.566903997212648" lon="1.798391975462437">
        <ele>1853.0799999999999</ele>
        <time>2025-05-15T06:08:43Z</time>
      </trkpt>
      <trkpt lat="42.566960994154215" lon="1.798551985993981">
        <ele>1853.5599999999999</ele>
        <time>2025-05-15T06:08:44Z</time>
      </trkpt>
      <trkpt lat="42.566987983882427" lon="1.798736974596977">
        <ele>1854.52</ele>
        <time>2025-05-15T06:08:45Z</time>
      </trkpt>
      <trkpt lat="42.566997958347201" lon="1.798946019262075">
        <ele>1855.48</ele>
        <time>2025-05-15T06:08:46Z</time>
      </trkpt>
      <trkpt lat="42.56697298027575" lon="1.79914902895689">
        <ele>1855.48</ele>
        <time>2025-05-15T06:08:47Z</time>
      </trkpt>
      <trkpt lat="42.5669289752841" lon="1.799337035045028">
        <ele>1855.96</ele>
        <time>2025-05-15T06:08:48Z</time>
      </trkpt>
      <trkpt lat="42.566859992220998" lon="1.799497967585921">
        <ele>1856.9200000000001</ele>
        <time>2025-05-15T06:08:49Z</time>
      </trkpt>
      <trkpt lat="42.566758990287781" lon="1.799639035016298">
        <ele>1857.4000000000001</ele>
        <time>2025-05-15T06:08:50Z</time>
      </trkpt>
      <trkpt lat="42.566638961434364" lon="1.799758980050683">
        <ele>1858.3699999999999</ele>
        <time>2025-05-15T06:08:51Z</time>
      </trkpt>
      <trkpt lat="42.566494960337877" lon="1.799853025004268">
        <ele>1859.3299999999999</ele>
        <time>2025-05-15T06:08:52Z</time>
      </trkpt>
      <trkpt lat="42.566342996433377" lon="1.799942040815949">
        <ele>1860.29</ele>
        <time>2025-05-15T06:08:53Z</time>
      </trkpt>
      <trkpt lat="42.566182985901833" lon="1.800034996122122">
        <ele>1861.25</ele>
        <time>2025-05-15T06:08:54Z</time>
      </trkpt>
      <trkpt lat="42.566017024219036" lon="1.800131974741817">
        <ele>1862.21</ele>
        <time>2025-05-15T06:08:55Z</time>
      </trkpt>
      <trkpt lat="42.564621018245816" lon="1.801029006019235">
        <ele>1870.8599999999999</ele>
        <time>2025-05-15T06:09:03Z</time>
      </trkpt>
      <trkpt lat="42.564473999664187" lon="1.801177030429244">
        <ele>1871.8199999999999</ele>
        <time>2025-05-15T06:09:04Z</time>
      </trkpt>
      <trkpt lat="42.564341984689236" lon="1.801363024860621">
        <ele>1872.79</ele>
        <time>2025-05-15T06:09:05Z</time>
      </trkpt>
      <trkpt lat="42.564063034951687" lon="1.801757980138063">
        <ele>1875.1900000000001</ele>
        <time>2025-05-15T06:09:07Z</time>
      </trkpt>
      <trkpt lat="42.56392003968358" lon="1.801960989832878">
        <ele>1876.1500000000001</ele>
        <time>2025-05-15T06:09:08Z</time>
      </trkpt>
      <trkpt lat="42.563773021101952" lon="1.802168022841215">
        <ele>1877.1099999999999</ele>
        <time>2025-05-15T06:09:09Z</time>
      </trkpt>
      <trkpt lat="42.563624996691942" lon="1.802377989515662">
        <ele>1878.0699999999999</ele>
        <time>2025-05-15T06:09:10Z</time>
      </trkpt>
      <trkpt lat="42.563474038615823" lon="1.802590973675251">
        <ele>1879.03</ele>
        <time>2025-05-15T06:09:11Z</time>
      </trkpt>
      <trkpt lat="42.562420014292002" lon="1.80437296628952">
        <ele>1888.6500000000001</ele>
        <time>2025-05-15T06:09:19Z</time>
      </trkpt>
      <trkpt lat="42.562350025400519" lon="1.804643031209707">
        <ele>1890.0899999999999</ele>
        <time>2025-05-15T06:09:20Z</time>
      </trkpt>
      <trkpt lat="42.562277019023895" lon="1.804927010089159">
        <ele>1891.05</ele>
        <time>2025-05-15T06:09:21Z</time>
      </trkpt>
      <trkpt lat="42.561764968559146" lon="1.806913018226624">
        <ele>1899.7</ele>
        <time>2025-05-15T06:09:28Z</time>
      </trkpt>
      <trkpt lat="42.561647035181522" lon="1.807159027084708">
        <ele>1900.6600000000001</ele>
        <time>2025-05-15T06:09:29Z</time>
      </trkpt>
      <trkpt lat="42.561248978599906" lon="1.807881966233254">
        <ele>1904.99</ele>
        <time>2025-05-15T06:09:32Z</time>
      </trkpt>
      <trkpt lat="42.560713039711118" lon="1.809219969436526">
        <ele>1910.76</ele>
        <time>2025-05-15T06:09:37Z</time>
      </trkpt>
      <trkpt lat="42.560600973665714" lon="1.809423984959722">
        <ele>1911.72</ele>
        <time>2025-05-15T06:09:38Z</time>
      </trkpt>
      <trkpt lat="42.560479016974568" lon="1.809601010754705">
        <ele>1913.1600000000001</ele>
        <time>2025-05-15T06:09:39Z</time>
      </trkpt>
      <trkpt lat="42.559791030362248" lon="1.810569036751986">
        <ele>1919.8900000000001</ele>
        <time>2025-05-15T06:09:46Z</time>
      </trkpt>
      <trkpt lat="42.559645017609" lon="1.810828037559986">
        <ele>1920.3699999999999</ele>
        <time>2025-05-15T06:09:48Z</time>
      </trkpt>
      <trkpt lat="42.559585003182292" lon="1.810970026999712">
        <ele>1919.8900000000001</ele>
        <time>2025-05-15T06:09:49Z</time>
      </trkpt>
      <trkpt lat="42.559532029554248" lon="1.811105981469154">
        <ele>1919.8900000000001</ele>
        <time>2025-05-15T06:09:50Z</time>
      </trkpt>
      <trkpt lat="42.559510990977287" lon="1.811272026970983">
        <ele>1919.4100000000001</ele>
        <time>2025-05-15T06:09:51Z</time>
      </trkpt>
      <trkpt lat="42.559490036219358" lon="1.811437988653779">
        <ele>1918.9300000000001</ele>
        <time>2025-05-15T06:09:52Z</time>
      </trkpt>
      <trkpt lat="42.55947302095592" lon="1.811613002792001">
        <ele>1918.45</ele>
        <time>2025-05-15T06:09:53Z</time>
      </trkpt>
      <trkpt lat="42.559419041499496" lon="1.812160005792975">
        <ele>1915.0799999999999</ele>
        <time>2025-05-15T06:09:58Z</time>
      </trkpt>
      <trkpt lat="42.559415018185973" lon="1.812203004956245">
        <ele>1912.2</ele>
        <time>2025-05-15T06:10:05Z</time>
      </trkpt>
      <trkpt lat="42.559415018185973" lon="1.812203004956245">
        <ele>1912.2</ele>
        <time>2025-05-15T06:10:42Z</time>
      </trkpt>
      <trkpt lat="42.559406971558928" lon="1.812285985797644">
        <ele>1911.24</ele>
        <time>2025-05-15T06:10:53Z</time>
      </trkpt>
      <trkpt lat="42.559347040951252" lon="1.812801975756884">
        <ele>1909.3199999999999</ele>
        <time>2025-05-15T06:10:57Z</time>
      </trkpt>
      <trkpt lat="42.558962982147932" lon="1.814163029193878">
        <ele>1906.4300000000001</ele>
        <time>2025-05-15T06:11:04Z</time>
      </trkpt>
      <trkpt lat="42.557986993342638" lon="1.816117018461227">
        <ele>1899.22</ele>
        <time>2025-05-15T06:11:13Z</time>
      </trkpt>
      <trkpt lat="42.556574977934361" lon="1.818799981847405">
        <ele>1884.3199999999999</ele>
        <time>2025-05-15T06:11:24Z</time>
      </trkpt>
      <trkpt lat="42.555344011634588" lon="1.820749025791884">
        <ele>1872.3</ele>
        <time>2025-05-15T06:11:33Z</time>
      </trkpt>
      <trkpt lat="42.554233996197581" lon="1.822663033381105">
        <ele>1860.29</ele>
        <time>2025-05-15T06:11:42Z</time>
      </trkpt>
      <trkpt lat="42.553937025368214" lon="1.823413968086243">
        <ele>1856.9200000000001</ele>
        <time>2025-05-15T06:11:46Z</time>
      </trkpt>
      <trkpt lat="42.553790006786585" lon="1.82394496165216">
        <ele>1855</ele>
        <time>2025-05-15T06:11:50Z</time>
      </trkpt>
      <trkpt lat="42.553762011229992" lon="1.82405199855566">
        <ele>1854.52</ele>
        <time>2025-05-15T06:11:51Z</time>
      </trkpt>
      <trkpt lat="42.553711971268058" lon="1.82411402463913">
        <ele>1854.52</ele>
        <time>2025-05-15T06:11:52Z</time>
      </trkpt>
      <trkpt lat="42.553633013740182" lon="1.824145037680864">
        <ele>1854.04</ele>
        <time>2025-05-15T06:11:53Z</time>
      </trkpt>
      <trkpt lat="42.553582973778248" lon="1.82409499771893">
        <ele>1854.04</ele>
        <time>2025-05-15T06:11:54Z</time>
      </trkpt>
      <trkpt lat="42.553540980443358" lon="1.82403196580708">
        <ele>1854.04</ele>
        <time>2025-05-15T06:11:55Z</time>
      </trkpt>
      <trkpt lat="42.553531005978584" lon="1.823956025764346">
        <ele>1853.5599999999999</ele>
        <time>2025-05-15T06:11:56Z</time>
      </trkpt>
      <trkpt lat="42.553547015413642" lon="1.82381596416235">
        <ele>1853.5599999999999</ele>
        <time>2025-05-15T06:11:57Z</time>
      </trkpt>
      <trkpt lat="42.553590014576912" lon="1.823739018291235">
        <ele>1854.04</ele>
        <time>2025-05-15T06:11:58Z</time>
      </trkpt>
      <trkpt lat="42.553647011518478" lon="1.823634998872876">
        <ele>1854.52</ele>
        <time>2025-05-15T06:11:59Z</time>
      </trkpt>
      <trkpt lat="42.554108016192913" lon="1.822627997025847">
        <ele>1852.5999999999999</ele>
        <time>2025-05-15T06:12:06Z</time>
      </trkpt>
      <trkpt lat="42.55489700473845" lon="1.820515003055334">
        <ele>1846.8299999999999</ele>
        <time>2025-05-15T06:12:16Z</time>
      </trkpt>
      <trkpt lat="42.555775009095669" lon="1.817865986377001">
        <ele>1836.74</ele>
        <time>2025-05-15T06:12:28Z</time>
      </trkpt>
      <trkpt lat="42.555789006873965" lon="1.817683009430766">
        <ele>1835.77</ele>
        <time>2025-05-15T06:12:29Z</time>
      </trkpt>
      <trkpt lat="42.555801998823881" lon="1.817504977807403">
        <ele>1834.8099999999999</ele>
        <time>2025-05-15T06:12:30Z</time>
      </trkpt>
      <trkpt lat="42.555814990773797" lon="1.817329041659832">
        <ele>1834.3299999999999</ele>
        <time>2025-05-15T06:12:31Z</time>
      </trkpt>
      <trkpt lat="42.555844997987151" lon="1.817158972844482">
        <ele>1833.3699999999999</ele>
        <time>2025-05-15T06:12:32Z</time>
      </trkpt>
      <trkpt lat="42.555890008807182" lon="1.816993011161685">
        <ele>1832.8900000000001</ele>
        <time>2025-05-15T06:12:33Z</time>
      </trkpt>
      <trkpt lat="42.555934013798833" lon="1.816825037822127">
        <ele>1832.4100000000001</ele>
        <time>2025-05-15T06:12:34Z</time>
      </trkpt>
      <trkpt lat="42.555977012962103" lon="1.816662009805441">
        <ele>1831.45</ele>
        <time>2025-05-15T06:12:35Z</time>
      </trkpt>
      <trkpt lat="42.556015988811851" lon="1.816501999273896">
        <ele>1830.97</ele>
        <time>2025-05-15T06:12:36Z</time>
      </trkpt>
      <trkpt lat="42.556025963276625" lon="1.816323967650533">
        <ele>1830.01</ele>
        <time>2025-05-15T06:12:37Z</time>
      </trkpt>
      <trkpt lat="42.556033004075289" lon="1.81614501401782">
        <ele>1829.05</ele>
        <time>2025-05-15T06:12:38Z</time>
      </trkpt>
      <trkpt lat="42.555991010740399" lon="1.815976034849882">
        <ele>1828.5599999999999</ele>
        <time>2025-05-15T06:12:39Z</time>
      </trkpt>
      <trkpt lat="42.555950023233891" lon="1.815810995176435">
        <ele>1827.1199999999999</ele>
        <time>2025-05-15T06:12:40Z</time>
      </trkpt>
      <trkpt lat="42.555872993543744" lon="1.815658025443554">
        <ele>1826.1600000000001</ele>
        <time>2025-05-15T06:12:41Z</time>
      </trkpt>
      <trkpt lat="42.555414000526071" lon="1.814567958936095">
        <ele>1819.9100000000001</ele>
        <time>2025-05-15T06:12:48Z</time>
      </trkpt>
      <trkpt lat="42.555300006642938" lon="1.814427981153131">
        <ele>1818.95</ele>
        <time>2025-05-15T06:12:49Z</time>
      </trkpt>
      <trkpt lat="42.555217025801539" lon="1.814325973391533">
        <ele>1818.47</ele>
        <time>2025-05-15T06:12:50Z</time>
      </trkpt>
      <trkpt lat="42.55513496696949" lon="1.814224971458316">
        <ele>1817.51</ele>
        <time>2025-05-15T06:12:51Z</time>
      </trkpt>
      <trkpt lat="42.555042011663318" lon="1.814179038628936">
        <ele>1816.55</ele>
        <time>2025-05-15T06:12:52Z</time>
      </trkpt>
      <trkpt lat="42.554955007508397" lon="1.814135033637285">
        <ele>1816.0699999999999</ele>
        <time>2025-05-15T06:12:53Z</time>
      </trkpt>
      <trkpt lat="42.55487403832376" lon="1.814128998667002">
        <ele>1815.1099999999999</ele>
        <time>2025-05-15T06:12:54Z</time>
      </trkpt>
      <trkpt lat="42.55481100641191" lon="1.814165040850639">
        <ele>1814.6300000000001</ele>
        <time>2025-05-15T06:12:55Z</time>
      </trkpt>
      <trkpt lat="42.554744035005569" lon="1.814238969236612">
        <ele>1814.1500000000001</ele>
        <time>2025-05-15T06:12:56Z</time>
      </trkpt>
      <trkpt lat="42.554641021415591" lon="1.814352963119745">
        <ele>1813.6600000000001</ele>
        <time>2025-05-15T06:12:57Z</time>
      </trkpt>
      <trkpt lat="42.554595004767179" lon="1.814450025558472">
        <ele>1812.7</ele>
        <time>2025-05-15T06:12:58Z</time>
      </trkpt>
      <trkpt lat="42.554525015875697" lon="1.81459603831172">
        <ele>1811.74</ele>
        <time>2025-05-15T06:12:59Z</time>
      </trkpt>
      <trkpt lat="42.554194014519453" lon="1.81528695859015">
        <ele>1808.8599999999999</ele>
        <time>2025-05-15T06:13:03Z</time>
      </trkpt>
      <trkpt lat="42.554086977615952" lon="1.815422996878624">
        <ele>1807.9000000000001</ele>
        <time>2025-05-15T06:13:04Z</time>
      </trkpt>
      <trkpt lat="42.553955968469381" lon="1.815507989376783">
        <ele>1807.4200000000001</ele>
        <time>2025-05-15T06:13:05Z</time>
      </trkpt>
      <trkpt lat="42.553819008171558" lon="1.815598011016846">
        <ele>1806.45</ele>
        <time>2025-05-15T06:13:06Z</time>
      </trkpt>
      <trkpt lat="42.553675007075071" lon="1.815691972151399">
        <ele>1805.49</ele>
        <time>2025-05-15T06:13:07Z</time>
      </trkpt>
      <trkpt lat="42.552976040169597" lon="1.816071001812816">
        <ele>1800.6900000000001</ele>
        <time>2025-05-15T06:13:12Z</time>
      </trkpt>
      <trkpt lat="42.552758026868105" lon="1.816161023452878">
        <ele>1799.73</ele>
        <time>2025-05-15T06:13:14Z</time>
      </trkpt>
      <trkpt lat="42.552686026319861" lon="1.81625003926456">
        <ele>1798.76</ele>
        <time>2025-05-15T06:13:15Z</time>
      </trkpt>
      <trkpt lat="42.552624000236392" lon="1.816327990964055">
        <ele>1798.28</ele>
        <time>2025-05-15T06:13:16Z</time>
      </trkpt>
      <trkpt lat="42.552634980529547" lon="1.816428992897272">
        <ele>1798.28</ele>
        <time>2025-05-15T06:13:17Z</time>
      </trkpt>
      <trkpt lat="42.552645960822701" lon="1.816521026194096">
        <ele>1797.8</ele>
        <time>2025-05-15T06:13:18Z</time>
      </trkpt>
      <trkpt lat="42.552702035754919" lon="1.816566959023476">
        <ele>1797.3199999999999</ele>
        <time>2025-05-15T06:13:19Z</time>
      </trkpt>
      <trkpt lat="42.552774036303163" lon="1.816627979278565">
        <ele>1797.3199999999999</ele>
        <time>2025-05-15T06:13:20Z</time>
      </trkpt>
      <trkpt lat="42.552865985780954" lon="1.816615993157029">
        <ele>1796.8399999999999</ele>
        <time>2025-05-15T06:13:21Z</time>
      </trkpt>
      <trkpt lat="42.552990037947893" lon="1.816598977893591">
        <ele>1796.3599999999999</ele>
        <time>2025-05-15T06:13:22Z</time>
      </trkpt>
      <trkpt lat="42.553125992417336" lon="1.816580034792423">
        <ele>1795.4000000000001</ele>
        <time>2025-05-15T06:13:23Z</time>
      </trkpt>
      <trkpt lat="42.553572999313474" lon="1.816519014537334">
        <ele>1793.48</ele>
        <time>2025-05-15T06:13:26Z</time>
      </trkpt>
      <trkpt lat="42.553712977096438" lon="1.816499987617135">
        <ele>1793.48</ele>
        <time>2025-05-15T06:13:27Z</time>
      </trkpt>
      <trkpt lat="42.553839962929487" lon="1.816576011478901">
        <ele>1792.52</ele>
        <time>2025-05-15T06:13:28Z</time>
      </trkpt>
      <trkpt lat="42.553949011489749" lon="1.816646000370383">
        <ele>1792.03</ele>
        <time>2025-05-15T06:13:29Z</time>
      </trkpt>
      <trkpt lat="42.554031992331147" lon="1.8167660292238">
        <ele>1791.0699999999999</ele>
        <time>2025-05-15T06:13:30Z</time>
      </trkpt>
      <trkpt lat="42.554095024242997" lon="1.816913969814777">
        <ele>1790.5899999999999</ele>
        <time>2025-05-15T06:13:31Z</time>
      </trkpt>
      <trkpt lat="42.554156966507435" lon="1.817070040851831">
        <ele>1790.1099999999999</ele>
        <time>2025-05-15T06:13:32Z</time>
      </trkpt>
      <trkpt lat="42.554169036448002" lon="1.817232985049486">
        <ele>1789.1500000000001</ele>
        <time>2025-05-15T06:13:33Z</time>
      </trkpt>
      <trkpt lat="42.554169036448002" lon="1.817404981702566">
        <ele>1788.1900000000001</ele>
        <time>2025-05-15T06:13:34Z</time>
      </trkpt>
      <trkpt lat="42.554151015356183" lon="1.817570021376014">
        <ele>1787.23</ele>
        <time>2025-05-15T06:13:35Z</time>
      </trkpt>
      <trkpt lat="42.554097035899758" lon="1.817752998322249">
        <ele>1786.75</ele>
        <time>2025-05-15T06:13:36Z</time>
      </trkpt>
      <trkpt lat="42.554040038958192" lon="1.817948967218399">
        <ele>1785.79</ele>
        <time>2025-05-15T06:13:37Z</time>
      </trkpt>
      <trkpt lat="42.553492030128837" lon="1.819859035313129">
        <ele>1779.54</ele>
        <time>2025-05-15T06:13:45Z</time>
      </trkpt>
      <trkpt lat="42.553404020145535" lon="1.820099009200931">
        <ele>1778.5799999999999</ele>
        <time>2025-05-15T06:13:46Z</time>
      </trkpt>
      <trkpt lat="42.553290026262403" lon="1.820286009460688">
        <ele>1777.6099999999999</ele>
        <time>2025-05-15T06:13:47Z</time>
      </trkpt>
      <trkpt lat="42.55317896604538" lon="1.820466974750161">
        <ele>1777.1300000000001</ele>
        <time>2025-05-15T06:13:48Z</time>
      </trkpt>
      <trkpt lat="42.553095985203981" lon="1.820666966959834">
        <ele>1776.6500000000001</ele>
        <time>2025-05-15T06:13:49Z</time>
      </trkpt>
      <trkpt lat="42.553022978827357" lon="1.820890009403229">
        <ele>1775.6900000000001</ele>
        <time>2025-05-15T06:13:50Z</time>
      </trkpt>
      <trkpt lat="42.552948966622353" lon="1.821119002997875">
        <ele>1774.73</ele>
        <time>2025-05-15T06:13:51Z</time>
      </trkpt>
      <trkpt lat="42.552865985780954" lon="1.821354031562805">
        <ele>1773.77</ele>
        <time>2025-05-15T06:13:52Z</time>
      </trkpt>
      <trkpt lat="42.55274998024106" lon="1.821553017944098">
        <ele>1772.8099999999999</ele>
        <time>2025-05-15T06:13:53Z</time>
      </trkpt>
      <trkpt lat="42.551942970603704" lon="1.823176005855203">
        <ele>1764.6400000000001</ele>
        <time>2025-05-15T06:14:01Z</time>
      </trkpt>
      <trkpt lat="42.551874993368983" lon="1.823369041085243">
        <ele>1763.6800000000001</ele>
        <time>2025-05-15T06:14:02Z</time>
      </trkpt>
      <trkpt lat="42.551809027791023" lon="1.82355897501111">
        <ele>1763.2</ele>
        <time>2025-05-15T06:14:03Z</time>
      </trkpt>
      <trkpt lat="42.551753958687186" lon="1.823744969442487">
        <ele>1762.23</ele>
        <time>2025-05-15T06:14:04Z</time>
      </trkpt>
      <trkpt lat="42.55169402807951" lon="1.823940016329289">
        <ele>1761.75</ele>
        <time>2025-05-15T06:14:05Z</time>
      </trkpt>
      <trkpt lat="42.551614986732602" lon="1.824121987447143">
        <ele>1760.79</ele>
        <time>2025-05-15T06:14:06Z</time>
      </trkpt>
      <trkpt lat="42.551538040861487" lon="1.824300019070506">
        <ele>1760.3099999999999</ele>
        <time>2025-05-15T06:14:07Z</time>
      </trkpt>
      <trkpt lat="42.551463022828102" lon="1.824471009895206">
        <ele>1759.3499999999999</ele>
        <time>2025-05-15T06:14:08Z</time>
      </trkpt>
      <trkpt lat="42.551391022279859" lon="1.824635965749621">
        <ele>1758.8699999999999</ele>
        <time>2025-05-15T06:14:09Z</time>
      </trkpt>
      <trkpt lat="42.551332013681531" lon="1.824807040393353">
        <ele>1757.9100000000001</ele>
        <time>2025-05-15T06:14:10Z</time>
      </trkpt>
      <trkpt lat="42.551312986761332" lon="1.825006026774645">
        <ele>1756.95</ele>
        <time>2025-05-15T06:14:11Z</time>
      </trkpt>
      <trkpt lat="42.551292032003403" lon="1.825215993449092">
        <ele>1755.99</ele>
        <time>2025-05-15T06:14:12Z</time>
      </trkpt>
      <trkpt lat="42.551269987598062" lon="1.825440041720867">
        <ele>1755.5</ele>
        <time>2025-05-15T06:14:13Z</time>
      </trkpt>
      <trkpt lat="42.551197987049818" lon="1.827465025708079">
        <ele>1747.8099999999999</ele>
        <time>2025-05-15T06:14:21Z</time>
      </trkpt>
      <trkpt lat="42.551332013681531" lon="1.829475006088615">
        <ele>1740.5999999999999</ele>
        <time>2025-05-15T06:14:29Z</time>
      </trkpt>
      <trkpt lat="42.55130996927619" lon="1.829712968319655">
        <ele>1739.6400000000001</ele>
        <time>2025-05-15T06:14:30Z</time>
      </trkpt>
      <trkpt lat="42.551259007304907" lon="1.830459041520953">
        <ele>1736.28</ele>
        <time>2025-05-15T06:14:33Z</time>
      </trkpt>
      <trkpt lat="42.551285997033119" lon="1.830694992095232">
        <ele>1734.8399999999999</ele>
        <time>2025-05-15T06:14:34Z</time>
      </trkpt>
      <trkpt lat="42.551402002573013" lon="1.831373004242778">
        <ele>1731.47</ele>
        <time>2025-05-15T06:14:37Z</time>
      </trkpt>
      <trkpt lat="42.551464028656483" lon="1.831589005887508">
        <ele>1730.51</ele>
        <time>2025-05-15T06:14:38Z</time>
      </trkpt>
      <trkpt lat="42.551641976460814" lon="1.832203986123204">
        <ele>1727.1500000000001</ele>
        <time>2025-05-15T06:14:41Z</time>
      </trkpt>
      <trkpt lat="42.551671983674169" lon="1.832383023574948">
        <ele>1726.1800000000001</ele>
        <time>2025-05-15T06:14:42Z</time>
      </trkpt>
      <trkpt lat="42.551644993945956" lon="1.832556026056409">
        <ele>1725.22</ele>
        <time>2025-05-15T06:14:43Z</time>
      </trkpt>
      <trkpt lat="42.551619010046124" lon="1.832719976082444">
        <ele>1724.26</ele>
        <time>2025-05-15T06:14:44Z</time>
      </trkpt>
      <trkpt lat="42.551595037803054" lon="1.832863977178931">
        <ele>1723.3</ele>
        <time>2025-05-15T06:14:45Z</time>
      </trkpt>
      <trkpt lat="42.551537035033107" lon="1.832938995212317">
        <ele>1722.3399999999999</ele>
        <time>2025-05-15T06:14:46Z</time>
      </trkpt>
      <trkpt lat="42.551466040313244" lon="1.833021976053715">
        <ele>1721.3800000000001</ele>
        <time>2025-05-15T06:14:47Z</time>
      </trkpt>
      <trkpt lat="42.551406025886536" lon="1.833038991317153">
        <ele>1720.9000000000001</ele>
        <time>2025-05-15T06:14:48Z</time>
      </trkpt>
      <trkpt lat="42.551314998418093" lon="1.833064975216985">
        <ele>1719.9400000000001</ele>
        <time>2025-05-15T06:14:49Z</time>
      </trkpt>
      <trkpt lat="42.55122103728354" lon="1.833124989643693">
        <ele>1719.46</ele>
        <time>2025-05-15T06:14:50Z</time>
      </trkpt>
      <trkpt lat="42.551127998158336" lon="1.83318299241364">
        <ele>1718.97</ele>
        <time>2025-05-15T06:14:51Z</time>
      </trkpt>
      <trkpt lat="42.551049962639809" lon="1.833277959376574">
        <ele>1718.01</ele>
        <time>2025-05-15T06:14:52Z</time>
      </trkpt>
      <trkpt lat="42.550994977355003" lon="1.833401005715132">
        <ele>1717.53</ele>
        <time>2025-05-15T06:14:53Z</time>
      </trkpt>
      <trkpt lat="42.550962036475539" lon="1.833559004589915">
        <ele>1716.5699999999999</ele>
        <time>2025-05-15T06:14:54Z</time>
      </trkpt>
      <trkpt lat="42.55094401538372" lon="1.833736030384898">
        <ele>1716.0899999999999</ele>
        <time>2025-05-15T06:14:55Z</time>
      </trkpt>
      <trkpt lat="42.550709992647171" lon="1.835328005254269">
        <ele>1710.8</ele>
        <time>2025-05-15T06:15:02Z</time>
      </trkpt>
      <trkpt lat="42.550577977672219" lon="1.835797978565097">
        <ele>1708.8800000000001</ele>
        <time>2025-05-15T06:15:04Z</time>
      </trkpt>
      <trkpt lat="42.550502959638834" lon="1.836005011573434">
        <ele>1707.9200000000001</ele>
        <time>2025-05-15T06:15:05Z</time>
      </trkpt>
      <trkpt lat="42.55043095909059" lon="1.836208021268249">
        <ele>1706.96</ele>
        <time>2025-05-15T06:15:06Z</time>
      </trkpt>
      <trkpt lat="42.550349989905953" lon="1.836432991549373">
        <ele>1706</ele>
        <time>2025-05-15T06:15:07Z</time>
      </trkpt>
      <trkpt lat="42.550319982692599" lon="1.836642036214471">
        <ele>1705.04</ele>
        <time>2025-05-15T06:15:08Z</time>
      </trkpt>
      <trkpt lat="42.550075985491276" lon="1.839175969362259">
        <ele>1695.4200000000001</ele>
        <time>2025-05-15T06:15:18Z</time>
      </trkpt>
      <trkpt lat="42.550048995763063" lon="1.840854026377201">
        <ele>1688.21</ele>
        <time>2025-05-15T06:15:25Z</time>
      </trkpt>
      <trkpt lat="42.550090989097953" lon="1.841051001101732">
        <ele>1687.25</ele>
        <time>2025-05-15T06:15:26Z</time>
      </trkpt>
      <trkpt lat="42.550186961889267" lon="1.841686014086008">
        <ele>1685.3299999999999</ele>
        <time>2025-05-15T06:15:30Z</time>
      </trkpt>
      <trkpt lat="42.550177993252873" lon="1.84177603572607">
        <ele>1684.8499999999999</ele>
        <time>2025-05-15T06:15:31Z</time>
      </trkpt>
      <trkpt lat="42.55012703128159" lon="1.841837977990508">
        <ele>1684.3699999999999</ele>
        <time>2025-05-15T06:15:32Z</time>
      </trkpt>
      <trkpt lat="42.550058970227838" lon="1.841902015730739">
        <ele>1683.8900000000001</ele>
        <time>2025-05-15T06:15:33Z</time>
      </trkpt>
      <trkpt lat="42.549983030185103" lon="1.841879971325398">
        <ele>1683.4100000000001</ele>
        <time>2025-05-15T06:15:34Z</time>
      </trkpt>
      <trkpt lat="42.549896026030183" lon="1.841812999919057">
        <ele>1682.9300000000001</ele>
        <time>2025-05-15T06:15:35Z</time>
      </trkpt>
      <trkpt lat="42.549878004938364" lon="1.841677967458963">
        <ele>1682.4400000000001</ele>
        <time>2025-05-15T06:15:36Z</time>
      </trkpt>
      <trkpt lat="42.549878004938364" lon="1.841549975797534">
        <ele>1681.96</ele>
        <time>2025-05-15T06:15:37Z</time>
      </trkpt>
      <trkpt lat="42.549878004938364" lon="1.841402035206556">
        <ele>1681.48</ele>
        <time>2025-05-15T06:15:38Z</time>
      </trkpt>
      <trkpt lat="42.549878004938364" lon="1.841236995533109">
        <ele>1681.48</ele>
        <time>2025-05-15T06:15:39Z</time>
      </trkpt>
      <trkpt lat="42.549878004938364" lon="1.841060975566506">
        <ele>1681.48</ele>
        <time>2025-05-15T06:15:40Z</time>
      </trkpt>
      <trkpt lat="42.549878004938364" lon="1.840868024155498">
        <ele>1681</ele>
        <time>2025-05-15T06:15:41Z</time>
      </trkpt>
      <trkpt lat="42.549878004938364" lon="1.840665014460683">
        <ele>1680.52</ele>
        <time>2025-05-15T06:15:42Z</time>
      </trkpt>
      <trkpt lat="42.54973903298378" lon="1.838752012699843">
        <ele>1675.72</ele>
        <time>2025-05-15T06:15:50Z</time>
      </trkpt>
      <trkpt lat="42.549684969708323" lon="1.835918007418513">
        <ele>1665.1400000000001</ele>
        <time>2025-05-15T06:16:01Z</time>
      </trkpt>
      <trkpt lat="42.549716988578439" lon="1.834012968465686">
        <ele>1657.45</ele>
        <time>2025-05-15T06:16:09Z</time>
      </trkpt>
      <trkpt lat="42.549706008285284" lon="1.833095988258719">
        <ele>1653.1199999999999</ele>
        <time>2025-05-15T06:16:14Z</time>
      </trkpt>
      <trkpt lat="42.549738027155399" lon="1.832788037136197">
        <ele>1651.2</ele>
        <time>2025-05-15T06:16:16Z</time>
      </trkpt>
      <trkpt lat="42.549764011055231" lon="1.832521995529532">
        <ele>1649.76</ele>
        <time>2025-05-15T06:16:18Z</time>
      </trkpt>
      <trkpt lat="42.549751019105315" lon="1.832412024959922">
        <ele>1649.28</ele>
        <time>2025-05-15T06:16:19Z</time>
      </trkpt>
      <trkpt lat="42.549700979143381" lon="1.832340024411678">
        <ele>1648.8</ele>
        <time>2025-05-15T06:16:20Z</time>
      </trkpt>
      <trkpt lat="42.549638031050563" lon="1.832276992499828">
        <ele>1648.3199999999999</ele>
        <time>2025-05-15T06:16:21Z</time>
      </trkpt>
      <trkpt lat="42.549553960561752" lon="1.832228964194655">
        <ele>1647.8399999999999</ele>
        <time>2025-05-15T06:16:22Z</time>
      </trkpt>
      <trkpt lat="42.549467040225863" lon="1.832178002223373">
        <ele>1647.3599999999999</ele>
        <time>2025-05-15T06:16:23Z</time>
      </trkpt>
      <trkpt lat="42.549378024414182" lon="1.832126034423709">
        <ele>1646.4000000000001</ele>
        <time>2025-05-15T06:16:24Z</time>
      </trkpt>
      <trkpt lat="42.549202004447579" lon="1.832023020833731">
        <ele>1645.4300000000001</ele>
        <time>2025-05-15T06:16:26Z</time>
      </trkpt>
      <trkpt lat="42.549122963100672" lon="1.831952026113868">
        <ele>1644.47</ele>
        <time>2025-05-15T06:16:27Z</time>
      </trkpt>
      <trkpt lat="42.549064960330725" lon="1.831858986988664">
        <ele>1643.99</ele>
        <time>2025-05-15T06:16:28Z</time>
      </trkpt>
      <trkpt lat="42.549033025279641" lon="1.831744993105531">
        <ele>1643.03</ele>
        <time>2025-05-15T06:16:29Z</time>
      </trkpt>
      <trkpt lat="42.549020033329725" lon="1.831623036414385">
        <ele>1642.55</ele>
        <time>2025-05-15T06:16:30Z</time>
      </trkpt>
      <trkpt lat="42.549032019451261" lon="1.831495966762304">
        <ele>1642.0699999999999</ele>
        <time>2025-05-15T06:16:31Z</time>
      </trkpt>
      <trkpt lat="42.549045011401176" lon="1.83135699480772">
        <ele>1641.1099999999999</ele>
        <time>2025-05-15T06:16:32Z</time>
      </trkpt>
      <trkpt lat="42.549151964485645" lon="1.830617962405086">
        <ele>1637.74</ele>
        <time>2025-05-15T06:16:37Z</time>
      </trkpt>
      <trkpt lat="42.549166968092322" lon="1.830472033470869">
        <ele>1636.78</ele>
        <time>2025-05-15T06:16:38Z</time>
      </trkpt>
      <trkpt lat="42.549152970314026" lon="1.830331971868873">
        <ele>1636.3</ele>
        <time>2025-05-15T06:16:39Z</time>
      </trkpt>
      <trkpt lat="42.549134027212858" lon="1.830197023227811">
        <ele>1635.3399999999999</ele>
        <time>2025-05-15T06:16:40Z</time>
      </trkpt>
      <trkpt lat="42.549107037484646" lon="1.83006601408124">
        <ele>1634.8599999999999</ele>
        <time>2025-05-15T06:16:41Z</time>
      </trkpt>
      <trkpt lat="42.54907401278615" lon="1.829936010763049">
        <ele>1634.3800000000001</ele>
        <time>2025-05-15T06:16:42Z</time>
      </trkpt>
      <trkpt lat="42.549041993916035" lon="1.829799972474575">
        <ele>1633.9000000000001</ele>
        <time>2025-05-15T06:16:43Z</time>
      </trkpt>
      <trkpt lat="42.548961024731398" lon="1.829353971406817">
        <ele>1632.46</ele>
        <time>2025-05-15T06:16:46Z</time>
      </trkpt>
      <trkpt lat="42.548764972016215" lon="1.827825028449297">
        <ele>1626.21</ele>
        <time>2025-05-15T06:16:55Z</time>
      </trkpt>
      <trkpt lat="42.548684002831578" lon="1.827527973800898">
        <ele>1625.25</ele>
        <time>2025-05-15T06:16:57Z</time>
      </trkpt>
      <trkpt lat="42.548618037253618" lon="1.827408028766513">
        <ele>1624.28</ele>
        <time>2025-05-15T06:16:58Z</time>
      </trkpt>
      <trkpt lat="42.548532960936427" lon="1.827309038490057">
        <ele>1623.8</ele>
        <time>2025-05-15T06:16:59Z</time>
      </trkpt>
      <trkpt lat="42.548421984538436" lon="1.827227985486388">
        <ele>1623.3199999999999</ele>
        <time>2025-05-15T06:17:00Z</time>
      </trkpt>
      <trkpt lat="42.54830002784729" lon="1.827138969674707">
        <ele>1622.3599999999999</ele>
        <time>2025-05-15T06:17:01Z</time>
      </trkpt>
      <trkpt lat="42.547910017892718" lon="1.826854990795255">
        <ele>1620.9200000000001</ele>
        <time>2025-05-15T06:17:04Z</time>
      </trkpt>
      <trkpt lat="42.547774985432625" lon="1.826756000518799">
        <ele>1620.4400000000001</ele>
        <time>2025-05-15T06:17:05Z</time>
      </trkpt>
      <trkpt lat="42.54769803956151" lon="1.826642006635666">
        <ele>1619.96</ele>
        <time>2025-05-15T06:17:06Z</time>
      </trkpt>
      <trkpt lat="42.547625033184886" lon="1.826502028852701">
        <ele>1619.48</ele>
        <time>2025-05-15T06:17:07Z</time>
      </trkpt>
      <trkpt lat="42.547569964081049" lon="1.826341012492776">
        <ele>1619</ele>
        <time>2025-05-15T06:17:08Z</time>
      </trkpt>
      <trkpt lat="42.547514978796244" lon="1.82617899030447">
        <ele>1618.52</ele>
        <time>2025-05-15T06:17:09Z</time>
      </trkpt>
      <trkpt lat="42.547415988519788" lon="1.825890988111496">
        <ele>1617.5599999999999</ele>
        <time>2025-05-15T06:17:11Z</time>
      </trkpt>
      <trkpt lat="42.547367038205266" lon="1.825793003663421">
        <ele>1617.0699999999999</ele>
        <time>2025-05-15T06:17:12Z</time>
      </trkpt>
      <trkpt lat="42.547287996858358" lon="1.825724020600319">
        <ele>1616.5899999999999</ele>
        <time>2025-05-15T06:17:13Z</time>
      </trkpt>
      <trkpt lat="42.547199986875057" lon="1.825653025880456">
        <ele>1616.1099999999999</ele>
        <time>2025-05-15T06:17:14Z</time>
      </trkpt>
      <trkpt lat="42.547086998820305" lon="1.825594017282128">
        <ele>1615.6300000000001</ele>
        <time>2025-05-15T06:17:15Z</time>
      </trkpt>
      <trkpt lat="42.546336986124516" lon="1.82536100037396">
        <ele>1612.27</ele>
        <time>2025-05-15T06:17:21Z</time>
      </trkpt>
      <trkpt lat="42.546120984479785" lon="1.825380027294159">
        <ele>1610.3499999999999</ele>
        <time>2025-05-15T06:17:23Z</time>
      </trkpt>
      <trkpt lat="42.546026017516851" lon="1.8254469987005">
        <ele>1609.3800000000001</ele>
        <time>2025-05-15T06:17:24Z</time>
      </trkpt>
      <trkpt lat="42.545943036675453" lon="1.825521010905504">
        <ele>1608.4200000000001</ele>
        <time>2025-05-15T06:17:25Z</time>
      </trkpt>
      <trkpt lat="42.545869024470448" lon="1.825613966211677">
        <ele>1607.9400000000001</ele>
        <time>2025-05-15T06:17:26Z</time>
      </trkpt>
      <trkpt lat="42.545814039185643" lon="1.825721003115177">
        <ele>1607.46</ele>
        <time>2025-05-15T06:17:27Z</time>
      </trkpt>
      <trkpt lat="42.545756958425045" lon="1.82583499699831">
        <ele>1606.5</ele>
        <time>2025-05-15T06:17:28Z</time>
      </trkpt>
      <trkpt lat="42.545641958713531" lon="1.826052004471421">
        <ele>1605.0599999999999</ele>
        <time>2025-05-15T06:17:30Z</time>
      </trkpt>
      <trkpt lat="42.545565012842417" lon="1.826090980321169">
        <ele>1604.0999999999999</ele>
        <time>2025-05-15T06:17:31Z</time>
      </trkpt>
      <trkpt lat="42.545457975938916" lon="1.826078994199634">
        <ele>1603.1400000000001</ele>
        <time>2025-05-15T06:17:32Z</time>
      </trkpt>
      <trkpt lat="42.545353034511209" lon="1.826067008078098">
        <ele>1602.1700000000001</ele>
        <time>2025-05-15T06:17:33Z</time>
      </trkpt>
      <trkpt lat="42.545235017314553" lon="1.826054016128182">
        <ele>1601.21</ele>
        <time>2025-05-15T06:17:34Z</time>
      </trkpt>
      <trkpt lat="42.545108031481504" lon="1.826040018349886">
        <ele>1600.25</ele>
        <time>2025-05-15T06:17:35Z</time>
      </trkpt>
      <trkpt lat="42.544972999021411" lon="1.826028032228351">
        <ele>1599.29</ele>
        <time>2025-05-15T06:17:36Z</time>
      </trkpt>
      <trkpt lat="42.544835032895207" lon="1.826047981157899">
        <ele>1598.3299999999999</ele>
        <time>2025-05-15T06:17:37Z</time>
      </trkpt>
      <trkpt lat="42.54408803768456" lon="1.826326008886099">
        <ele>1594</ele>
        <time>2025-05-15T06:17:42Z</time>
      </trkpt>
      <trkpt lat="42.543938001617789" lon="1.826402032747865">
        <ele>1593.04</ele>
        <time>2025-05-15T06:17:43Z</time>
      </trkpt>
      <trkpt lat="42.543786037713289" lon="1.82647897861898">
        <ele>1592.0799999999999</ele>
        <time>2025-05-15T06:17:44Z</time>
      </trkpt>
      <trkpt lat="42.542145028710365" lon="1.827307026833296">
        <ele>1584.8699999999999</ele>
        <time>2025-05-15T06:17:54Z</time>
      </trkpt>
      <trkpt lat="42.541125034913421" lon="1.827704999595881">
        <ele>1580.54</ele>
        <time>2025-05-15T06:18:00Z</time>
      </trkpt>
      <trkpt lat="42.540965024381876" lon="1.827740035951138">
        <ele>1580.0599999999999</ele>
        <time>2025-05-15T06:18:01Z</time>
      </trkpt>
      <trkpt lat="42.540814988315105" lon="1.827675998210907">
        <ele>1579.5799999999999</ele>
        <time>2025-05-15T06:18:02Z</time>
      </trkpt>
      <trkpt lat="42.540657995268703" lon="1.827608020976186">
        <ele>1579.0999999999999</ele>
        <time>2025-05-15T06:18:03Z</time>
      </trkpt>
      <trkpt lat="42.54050200805068" lon="1.827534008771181">
        <ele>1578.6199999999999</ele>
        <time>2025-05-15T06:18:04Z</time>
      </trkpt>
      <trkpt lat="42.540362030267715" lon="1.82742303237319">
        <ele>1577.6600000000001</ele>
        <time>2025-05-15T06:18:05Z</time>
      </trkpt>
      <trkpt lat="42.540224986150861" lon="1.827314989641309">
        <ele>1577.1800000000001</ele>
        <time>2025-05-15T06:18:06Z</time>
      </trkpt>
      <trkpt lat="42.54009397700429" lon="1.827194038778544">
        <ele>1576.7</ele>
        <time>2025-05-15T06:18:07Z</time>
      </trkpt>
      <trkpt lat="42.539993980899453" lon="1.827027993276715">
        <ele>1576.22</ele>
        <time>2025-05-15T06:18:08Z</time>
      </trkpt>
      <trkpt lat="42.539895996451378" lon="1.826850967481732">
        <ele>1575.74</ele>
        <time>2025-05-15T06:18:09Z</time>
      </trkpt>
      <trkpt lat="42.539805974811316" lon="1.826654998585582">
        <ele>1575.26</ele>
        <time>2025-05-15T06:18:10Z</time>
      </trkpt>
      <trkpt lat="42.53942602314055" lon="1.825908003374934">
        <ele>1573.3299999999999</ele>
        <time>2025-05-15T06:18:14Z</time>
      </trkpt>
      <trkpt lat="42.539327032864094" lon="1.825762996450067">
        <ele>1572.3699999999999</ele>
        <time>2025-05-15T06:18:15Z</time>
      </trkpt>
      <trkpt lat="42.539193006232381" lon="1.82566199451685">
        <ele>1571.8900000000001</ele>
        <time>2025-05-15T06:18:16Z</time>
      </trkpt>
      <trkpt lat="42.539059985429049" lon="1.825560992583633">
        <ele>1571.4100000000001</ele>
        <time>2025-05-15T06:18:17Z</time>
      </trkpt>
      <trkpt lat="42.538931993767619" lon="1.825464013963938">
        <ele>1570.45</ele>
        <time>2025-05-15T06:18:18Z</time>
      </trkpt>
      <trkpt lat="42.537700021639466" lon="1.824625991284847">
        <ele>1562.28</ele>
        <time>2025-05-15T06:18:28Z</time>
      </trkpt>
      <trkpt lat="42.536873985081911" lon="1.824245033785701">
        <ele>1556.51</ele>
        <time>2025-05-15T06:18:35Z</time>
      </trkpt>
      <trkpt lat="42.536821011453867" lon="1.824156017974019">
        <ele>1555.55</ele>
        <time>2025-05-15T06:18:36Z</time>
      </trkpt>
      <trkpt lat="42.536810031160712" lon="1.824119975790381">
        <ele>1555.0699999999999</ele>
        <time>2025-05-15T06:18:37Z</time>
      </trkpt>
      <trkpt lat="42.536843977868557" lon="1.823748992756009">
        <ele>1549.78</ele>
        <time>2025-05-15T06:18:43Z</time>
      </trkpt>
      <trkpt lat="42.536758985370398" lon="1.823651008307934">
        <ele>1549.3</ele>
        <time>2025-05-15T06:18:44Z</time>
      </trkpt>
      <trkpt lat="42.536702994257212" lon="1.823624018579722">
        <ele>1548.3399999999999</ele>
        <time>2025-05-15T06:18:45Z</time>
      </trkpt>
      <trkpt lat="42.536636022850871" lon="1.823589988052845">
        <ele>1547.8599999999999</ele>
        <time>2025-05-15T06:18:46Z</time>
      </trkpt>
      <trkpt lat="42.536557987332344" lon="1.823551012203097">
        <ele>1547.3800000000001</ele>
        <time>2025-05-15T06:18:47Z</time>
      </trkpt>
      <trkpt lat="42.536467965692282" lon="1.823506001383066">
        <ele>1546.4200000000001</ele>
        <time>2025-05-15T06:18:48Z</time>
      </trkpt>
      <trkpt lat="42.53551603294909" lon="1.823094030842185">
        <ele>1543.05</ele>
        <time>2025-05-15T06:18:56Z</time>
      </trkpt>
      <trkpt lat="42.534630987793207" lon="1.822640988975763">
        <ele>1539.6900000000001</ele>
        <time>2025-05-15T06:19:05Z</time>
      </trkpt>
      <trkpt lat="42.53362599760294" lon="1.822258019819856">
        <ele>1538.25</ele>
        <time>2025-05-15T06:19:17Z</time>
      </trkpt>
      <trkpt lat="42.53263701684773" lon="1.821654019877315">
        <ele>1540.6500000000001</ele>
        <time>2025-05-15T06:19:29Z</time>
      </trkpt>
      <trkpt lat="42.531735962256789" lon="1.821575984358788">
        <ele>1543.05</ele>
        <time>2025-05-15T06:19:40Z</time>
      </trkpt>
      <trkpt lat="42.531655998900533" lon="1.821596017107368">
        <ele>1543.53</ele>
        <time>2025-05-15T06:19:41Z</time>
      </trkpt>
      <trkpt lat="42.531410995870829" lon="1.821704981848598">
        <ele>1543.53</ele>
        <time>2025-05-15T06:19:44Z</time>
      </trkpt>
      <trkpt lat="42.531254002824426" lon="1.821793997660279">
        <ele>1544.01</ele>
        <time>2025-05-15T06:19:46Z</time>
      </trkpt>
      <trkpt lat="42.530502984300256" lon="1.822487013414502">
        <ele>1543.05</ele>
        <time>2025-05-15T06:19:57Z</time>
      </trkpt>
      <trkpt lat="42.529983976855874" lon="1.823021024465561">
        <ele>1541.1300000000001</ele>
        <time>2025-05-15T06:20:04Z</time>
      </trkpt>
      <trkpt lat="42.529907030984759" lon="1.823100987821817">
        <ele>1541.1300000000001</ele>
        <time>2025-05-15T06:20:05Z</time>
      </trkpt>
      <trkpt lat="42.529363967478275" lon="1.823660982772708">
        <ele>1537.77</ele>
        <time>2025-05-15T06:20:12Z</time>
      </trkpt>
      <trkpt lat="42.528821993619204" lon="1.824082005769014">
        <ele>1533.9200000000001</ele>
        <time>2025-05-15T06:20:18Z</time>
      </trkpt>
      <trkpt lat="42.528728032484651" lon="1.824123999103904">
        <ele>1533.4400000000001</ele>
        <time>2025-05-15T06:20:19Z</time>
      </trkpt>
      <trkpt lat="42.528445981442928" lon="1.82422399520874">
        <ele>1531.04</ele>
        <time>2025-05-15T06:20:22Z</time>
      </trkpt>
      <trkpt lat="42.527574012055993" lon="1.824123999103904">
        <ele>1522.8699999999999</ele>
        <time>2025-05-15T06:20:33Z</time>
      </trkpt>
      <trkpt lat="42.527259020134807" lon="1.823930041864514">
        <ele>1519.02</ele>
        <time>2025-05-15T06:20:38Z</time>
      </trkpt>
      <trkpt lat="42.526757027953863" lon="1.823500972241163">
        <ele>1514.21</ele>
        <time>2025-05-15T06:20:45Z</time>
      </trkpt>
      <trkpt lat="42.526677986606956" lon="1.823452021926642">
        <ele>1513.25</ele>
        <time>2025-05-15T06:20:46Z</time>
      </trkpt>
      <trkpt lat="42.526601040735841" lon="1.823403993621469">
        <ele>1512.77</ele>
        <time>2025-05-15T06:20:47Z</time>
      </trkpt>
      <trkpt lat="42.525614993646741" lon="1.823008032515645">
        <ele>1508.9300000000001</ele>
        <time>2025-05-15T06:20:59Z</time>
      </trkpt>
      <trkpt lat="42.524416968226433" lon="1.822717012837529">
        <ele>1506.04</ele>
        <time>2025-05-15T06:21:12Z</time>
      </trkpt>
      <trkpt lat="42.523529995232821" lon="1.822745008394122">
        <ele>1505.0799999999999</ele>
        <time>2025-05-15T06:21:22Z</time>
      </trkpt>
      <trkpt lat="42.522346973419189" lon="1.822765041142702">
        <ele>1505.5599999999999</ele>
        <time>2025-05-15T06:21:33Z</time>
      </trkpt>
      <trkpt lat="42.521179961040616" lon="1.822298001497984">
        <ele>1506.04</ele>
        <time>2025-05-15T06:21:42Z</time>
      </trkpt>
      <trkpt lat="42.520881984382868" lon="1.822276962921023">
        <ele>1506.04</ele>
        <time>2025-05-15T06:21:44Z</time>
      </trkpt>
      <trkpt lat="42.520744018256664" lon="1.822287021204829">
        <ele>1506.04</ele>
        <time>2025-05-15T06:21:45Z</time>
      </trkpt>
      <trkpt lat="42.519800970330834" lon="1.822487013414502">
        <ele>1506.04</ele>
        <time>2025-05-15T06:21:53Z</time>
      </trkpt>
      <trkpt lat="42.518604034557939" lon="1.822759006172419">
        <ele>1501.24</ele>
        <time>2025-05-15T06:22:04Z</time>
      </trkpt>
      <trkpt lat="42.518231961876154" lon="1.822758000344038">
        <ele>1497.8699999999999</ele>
        <time>2025-05-15T06:22:08Z</time>
      </trkpt>
      <trkpt lat="42.518140012398362" lon="1.822793036699295">
        <ele>1497.3900000000001</ele>
        <time>2025-05-15T06:22:09Z</time>
      </trkpt>
      <trkpt lat="42.517549004405737" lon="1.8230190128088">
        <ele>1493.0599999999999</ele>
        <time>2025-05-15T06:22:16Z</time>
      </trkpt>
      <trkpt lat="42.517479015514255" lon="1.823087995871902">
        <ele>1492.0999999999999</ele>
        <time>2025-05-15T06:22:17Z</time>
      </trkpt>
      <trkpt lat="42.517327973619103" lon="1.823248006403446">
        <ele>1490.6600000000001</ele>
        <time>2025-05-15T06:22:19Z</time>
      </trkpt>
      <trkpt lat="42.516925977542996" lon="1.823658971115947">
        <ele>1487.3</ele>
        <time>2025-05-15T06:22:24Z</time>
      </trkpt>
      <trkpt lat="42.516853976994753" lon="1.82372996583581">
        <ele>1486.8199999999999</ele>
        <time>2025-05-15T06:22:25Z</time>
      </trkpt>
      <trkpt lat="42.515852004289627" lon="1.824359027668834">
        <ele>1478.6500000000001</ele>
        <time>2025-05-15T06:22:35Z</time>
      </trkpt>
      <trkpt lat="42.515610018745065" lon="1.82439599186182">
        <ele>1476.24</ele>
        <time>2025-05-15T06:22:38Z</time>
      </trkpt>
      <trkpt lat="42.515527959913015" lon="1.824388029053807">
        <ele>1475.76</ele>
        <time>2025-05-15T06:22:39Z</time>
      </trkpt>
      <trkpt lat="42.515454031527042" lon="1.824379982426763">
        <ele>1475.28</ele>
        <time>2025-05-15T06:22:40Z</time>
      </trkpt>
      <trkpt lat="42.515379013493657" lon="1.82437302544713">
        <ele>1474.3199999999999</ele>
        <time>2025-05-15T06:22:41Z</time>
      </trkpt>
      <trkpt lat="42.515305001288652" lon="1.824364978820086">
        <ele>1473.8399999999999</ele>
        <time>2025-05-15T06:22:42Z</time>
      </trkpt>
      <trkpt lat="42.515227971598506" lon="1.824358021840453">
        <ele>1472.8800000000001</ele>
        <time>2025-05-15T06:22:43Z</time>
      </trkpt>
      <trkpt lat="42.514752969145775" lon="1.824273029342294">
        <ele>1468.55</ele>
        <time>2025-05-15T06:22:50Z</time>
      </trkpt>
      <trkpt lat="42.514711981639266" lon="1.824260959401727">
        <ele>1468.0699999999999</ele>
        <time>2025-05-15T06:22:51Z</time>
      </trkpt>
      <trkpt lat="42.514679040759802" lon="1.824249979108572">
        <ele>1467.5899999999999</ele>
        <time>2025-05-15T06:22:52Z</time>
      </trkpt>
      <trkpt lat="42.514650961384177" lon="1.824241010472179">
        <ele>1467.1099999999999</ele>
        <time>2025-05-15T06:22:53Z</time>
      </trkpt>
      <trkpt lat="42.514616008847952" lon="1.824229024350643">
        <ele>1466.1500000000001</ele>
        <time>2025-05-15T06:22:54Z</time>
      </trkpt>
      <trkpt lat="42.514566974714398" lon="1.824213014915586">
        <ele>1465.6700000000001</ele>
        <time>2025-05-15T06:22:55Z</time>
      </trkpt>
      <trkpt lat="42.51450402662158" lon="1.824190970510244">
        <ele>1465.1900000000001</ele>
        <time>2025-05-15T06:22:56Z</time>
      </trkpt>
      <trkpt lat="42.514426996931434" lon="1.824185019358993">
        <ele>1464.71</ele>
        <time>2025-05-15T06:22:57Z</time>
      </trkpt>
      <trkpt lat="42.514352984726429" lon="1.824191976338625">
        <ele>1464.23</ele>
        <time>2025-05-15T06:22:58Z</time>
      </trkpt>
      <trkpt lat="42.514235973358154" lon="1.824203040450811">
        <ele>1463.74</ele>
        <time>2025-05-15T06:22:59Z</time>
      </trkpt>
      <trkpt lat="42.514176964759827" lon="1.824252996593714">
        <ele>1463.74</ele>
        <time>2025-05-15T06:23:00Z</time>
      </trkpt>
      <trkpt lat="42.514103036373854" lon="1.824316028505564">
        <ele>1463.26</ele>
        <time>2025-05-15T06:23:01Z</time>
      </trkpt>
      <trkpt lat="42.514023995026946" lon="1.824381994083524">
        <ele>1462.78</ele>
        <time>2025-05-15T06:23:02Z</time>
      </trkpt>
      <trkpt lat="42.513942020013928" lon="1.824453994631767">
        <ele>1461.8199999999999</ele>
        <time>2025-05-15T06:23:03Z</time>
      </trkpt>
      <trkpt lat="42.513859961181879" lon="1.824535969644785">
        <ele>1461.3399999999999</ele>
        <time>2025-05-15T06:23:04Z</time>
      </trkpt>
      <trkpt lat="42.513776980340481" lon="1.824619034305215">
        <ele>1460.8599999999999</ele>
        <time>2025-05-15T06:23:05Z</time>
      </trkpt>
      <trkpt lat="42.513695005327463" lon="1.824701009318233">
        <ele>1460.3800000000001</ele>
        <time>2025-05-15T06:23:06Z</time>
      </trkpt>
      <trkpt lat="42.513592997565866" lon="1.82480301707983">
        <ele>1460.3800000000001</ele>
        <time>2025-05-15T06:23:07Z</time>
      </trkpt>
      <trkpt lat="42.513551004230976" lon="1.824907958507538">
        <ele>1459.9000000000001</ele>
        <time>2025-05-15T06:23:08Z</time>
      </trkpt>
      <trkpt lat="42.513421000912786" lon="1.82523300871253">
        <ele>1458.9400000000001</ele>
        <time>2025-05-15T06:23:11Z</time>
      </trkpt>
      <trkpt lat="42.513347994536161" lon="1.825316995382309">
        <ele>1457.98</ele>
        <time>2025-05-15T06:23:12Z</time>
      </trkpt>
      <trkpt lat="42.513270964846015" lon="1.82540500536561">
        <ele>1457.5</ele>
        <time>2025-05-15T06:23:13Z</time>
      </trkpt>
      <trkpt lat="42.51265799626708" lon="1.826020991429687">
        <ele>1454.6099999999999</ele>
        <time>2025-05-15T06:23:21Z</time>
      </trkpt>
      <trkpt lat="42.512589013203979" lon="1.826087040826678">
        <ele>1454.6099999999999</ele>
        <time>2025-05-15T06:23:22Z</time>
      </trkpt>
      <trkpt lat="42.512530004605651" lon="1.826176978647709">
        <ele>1454.6099999999999</ele>
        <time>2025-05-15T06:23:23Z</time>
      </trkpt>
      <trkpt lat="42.512476025149226" lon="1.826288038864732">
        <ele>1454.1300000000001</ele>
        <time>2025-05-15T06:23:24Z</time>
      </trkpt>
      <trkpt lat="42.512450963258743" lon="1.826415024697781">
        <ele>1454.1300000000001</ele>
        <time>2025-05-15T06:23:25Z</time>
      </trkpt>
      <trkpt lat="42.512425985187292" lon="1.826535975560546">
        <ele>1454.1300000000001</ele>
        <time>2025-05-15T06:23:26Z</time>
      </trkpt>
      <trkpt lat="42.51237996853888" lon="1.826868988573551">
        <ele>1454.1300000000001</ele>
        <time>2025-05-15T06:23:29Z</time>
      </trkpt>
      <trkpt lat="42.512349039316177" lon="1.826981976628304">
        <ele>1454.1300000000001</ele>
        <time>2025-05-15T06:23:30Z</time>
      </trkpt>
      <trkpt lat="42.512294976040721" lon="1.827067974954844">
        <ele>1453.6500000000001</ele>
        <time>2025-05-15T06:23:31Z</time>
      </trkpt>
      <trkpt lat="42.512229010462761" lon="1.827150033786893">
        <ele>1453.1700000000001</ele>
        <time>2025-05-15T06:23:32Z</time>
      </trkpt>
      <trkpt lat="42.512138988822699" lon="1.827228991314769">
        <ele>1453.1700000000001</ele>
        <time>2025-05-15T06:23:33Z</time>
      </trkpt>
      <trkpt lat="42.512026000767946" lon="1.827326975762844">
        <ele>1452.6900000000001</ele>
        <time>2025-05-15T06:23:34Z</time>
      </trkpt>
      <trkpt lat="42.511897003278136" lon="1.827440969645977">
        <ele>1452.21</ele>
        <time>2025-05-15T06:23:35Z</time>
      </trkpt>
      <trkpt lat="42.510818000882864" lon="1.828392986208201">
        <ele>1448.3599999999999</ele>
        <time>2025-05-15T06:23:42Z</time>
      </trkpt>
      <trkpt lat="42.510473001748323" lon="1.828829012811184">
        <ele>1445.48</ele>
        <time>2025-05-15T06:23:45Z</time>
      </trkpt>
      <trkpt lat="42.510154992341995" lon="1.829396970570087">
        <ele>1443.0799999999999</ele>
        <time>2025-05-15T06:23:48Z</time>
      </trkpt>
      <trkpt lat="42.509716032072902" lon="1.830249996855855">
        <ele>1438.75</ele>
        <time>2025-05-15T06:23:52Z</time>
      </trkpt>
      <trkpt lat="42.509589968249202" lon="1.830459963530302">
        <ele>1437.79</ele>
        <time>2025-05-15T06:23:53Z</time>
      </trkpt>
      <trkpt lat="42.509449990466237" lon="1.830642018467188">
        <ele>1436.8299999999999</ele>
        <time>2025-05-15T06:23:54Z</time>
      </trkpt>
      <trkpt lat="42.50930598936975" lon="1.830814015120268">
        <ele>1436.3499999999999</ele>
        <time>2025-05-15T06:23:55Z</time>
      </trkpt>
      <trkpt lat="42.509159976616502" lon="1.83099003508687">
        <ele>1435.8699999999999</ele>
        <time>2025-05-15T06:23:56Z</time>
      </trkpt>
      <trkpt lat="42.507741004228592" lon="1.83225897140801">
        <ele>1432.02</ele>
        <time>2025-05-15T06:24:04Z</time>
      </trkpt>
      <trkpt lat="42.505979966372252" lon="1.833812976256013">
        <ele>1428.6600000000001</ele>
        <time>2025-05-15T06:24:14Z</time>
      </trkpt>
      <trkpt lat="42.504564011469483" lon="1.834874963387847">
        <ele>1425.77</ele>
        <time>2025-05-15T06:24:22Z</time>
      </trkpt>
      <trkpt lat="42.503673015162349" lon="1.83567501604557">
        <ele>1423.3699999999999</ele>
        <time>2025-05-15T06:24:29Z</time>
      </trkpt>
      <trkpt lat="42.503484003245831" lon="1.835841983556747">
        <ele>1422.8900000000001</ele>
        <time>2025-05-15T06:24:31Z</time>
      </trkpt>
      <trkpt lat="42.503404961898923" lon="1.835899986326695">
        <ele>1422.4100000000001</ele>
        <time>2025-05-15T06:24:32Z</time>
      </trkpt>
      <trkpt lat="42.503326004371047" lon="1.83591297827661">
        <ele>1422.4100000000001</ele>
        <time>2025-05-15T06:24:33Z</time>
      </trkpt>
      <trkpt lat="42.503249980509281" lon="1.835895041003823">
        <ele>1422.8900000000001</ele>
        <time>2025-05-15T06:24:34Z</time>
      </trkpt>
      <trkpt lat="42.503177979961038" lon="1.835854975506663">
        <ele>1422.8900000000001</ele>
        <time>2025-05-15T06:24:35Z</time>
      </trkpt>
      <trkpt lat="42.503089969977736" lon="1.835810970515013">
        <ele>1422.8900000000001</ele>
        <time>2025-05-15T06:24:36Z</time>
      </trkpt>
      <trkpt lat="42.502978993579745" lon="1.835810970515013">
        <ele>1422.8900000000001</ele>
        <time>2025-05-15T06:24:37Z</time>
      </trkpt>
      <trkpt lat="42.502853013575077" lon="1.835839971899986">
        <ele>1422.8900000000001</ele>
        <time>2025-05-15T06:24:38Z</time>
      </trkpt>
      <trkpt lat="42.502719992771745" lon="1.835892023518682">
        <ele>1423.3699999999999</ele>
        <time>2025-05-15T06:24:39Z</time>
      </trkpt>
      <trkpt lat="42.502576997503638" lon="1.835948014631867">
        <ele>1423.3699999999999</ele>
        <time>2025-05-15T06:24:40Z</time>
      </trkpt>
      <trkpt lat="42.502282038331032" lon="1.836143983528018">
        <ele>1422.8900000000001</ele>
        <time>2025-05-15T06:24:42Z</time>
      </trkpt>
      <trkpt lat="42.502130996435881" lon="1.836269041523337">
        <ele>1422.4100000000001</ele>
        <time>2025-05-15T06:24:43Z</time>
      </trkpt>
      <trkpt lat="42.500890977680683" lon="1.83726598508656">
        <ele>1417.1199999999999</ele>
        <time>2025-05-15T06:24:50Z</time>
      </trkpt>
      <trkpt lat="42.499198000878096" lon="1.838780008256435">
        <ele>1407.03</ele>
        <time>2025-05-15T06:24:59Z</time>
      </trkpt>
      <trkpt lat="42.499108985066414" lon="1.838923003524542">
        <ele>1406.0699999999999</ele>
        <time>2025-05-15T06:25:00Z</time>
      </trkpt>
      <trkpt lat="42.499038996174932" lon="1.839106986299157">
        <ele>1405.0999999999999</ele>
        <time>2025-05-15T06:25:01Z</time>
      </trkpt>
      <trkpt lat="42.498978981748223" lon="1.839277977123857">
        <ele>1404.1400000000001</ele>
        <time>2025-05-15T06:25:02Z</time>
      </trkpt>
      <trkpt lat="42.498958026990294" lon="1.839490039274097">
        <ele>1403.1800000000001</ele>
        <time>2025-05-15T06:25:03Z</time>
      </trkpt>
      <trkpt lat="42.498935982584953" lon="1.839725989848375">
        <ele>1402.22</ele>
        <time>2025-05-15T06:25:04Z</time>
      </trkpt>
      <trkpt lat="42.498909998685122" lon="1.839985996484757">
        <ele>1401.26</ele>
        <time>2025-05-15T06:25:05Z</time>
      </trkpt>
      <trkpt lat="42.49888502061367" lon="1.840252038091421">
        <ele>1400.3</ele>
        <time>2025-05-15T06:25:06Z</time>
      </trkpt>
      <trkpt lat="42.498850990086794" lon="1.840811027213931">
        <ele>1397.8900000000001</ele>
        <time>2025-05-15T06:25:08Z</time>
      </trkpt>
      <trkpt lat="42.498730961233377" lon="1.841226015239954">
        <ele>1395.49</ele>
        <time>2025-05-15T06:25:10Z</time>
      </trkpt>
      <trkpt lat="42.498641023412347" lon="1.841434976086021">
        <ele>1394.05</ele>
        <time>2025-05-15T06:25:11Z</time>
      </trkpt>
      <trkpt lat="42.498545972630382" lon="1.841651983559132">
        <ele>1392.6099999999999</ele>
        <time>2025-05-15T06:25:12Z</time>
      </trkpt>
      <trkpt lat="42.498287977650762" lon="1.842005029320717">
        <ele>1390.2</ele>
        <time>2025-05-15T06:25:14Z</time>
      </trkpt>
      <trkpt lat="42.498157974332571" lon="1.842174008488655">
        <ele>1389.24</ele>
        <time>2025-05-15T06:25:15Z</time>
      </trkpt>
      <trkpt lat="42.497907020151615" lon="1.842500986531377">
        <ele>1386.8399999999999</ele>
        <time>2025-05-15T06:25:17Z</time>
      </trkpt>
      <trkpt lat="42.497797971591353" lon="1.842668959870935">
        <ele>1385.8800000000001</ele>
        <time>2025-05-15T06:25:18Z</time>
      </trkpt>
      <trkpt lat="42.497713984921575" lon="1.842874987050891">
        <ele>1384.9200000000001</ele>
        <time>2025-05-15T06:25:19Z</time>
      </trkpt>
      <trkpt lat="42.497033039107919" lon="1.844736021012068">
        <ele>1377.23</ele>
        <time>2025-05-15T06:25:27Z</time>
      </trkpt>
      <trkpt lat="42.496719975024462" lon="1.845696000382304">
        <ele>1373.3800000000001</ele>
        <time>2025-05-15T06:25:31Z</time>
      </trkpt>
      <trkpt lat="42.49660799279809" lon="1.845919964835048">
        <ele>1372.4200000000001</ele>
        <time>2025-05-15T06:25:32Z</time>
      </trkpt>
      <trkpt lat="42.496057972311974" lon="1.846940964460373">
        <ele>1367.1300000000001</ele>
        <time>2025-05-15T06:25:37Z</time>
      </trkpt>
      <trkpt lat="42.496022013947368" lon="1.847085971385241">
        <ele>1366.1700000000001</ele>
        <time>2025-05-15T06:25:38Z</time>
      </trkpt>
      <trkpt lat="42.496036011725664" lon="1.847226032987237">
        <ele>1365.21</ele>
        <time>2025-05-15T06:25:39Z</time>
      </trkpt>
      <trkpt lat="42.496052021160722" lon="1.847344972193241">
        <ele>1364.25</ele>
        <time>2025-05-15T06:25:40Z</time>
      </trkpt>
      <trkpt lat="42.496043974533677" lon="1.847459971904755">
        <ele>1363.29</ele>
        <time>2025-05-15T06:25:41Z</time>
      </trkpt>
      <trkpt lat="42.495997035875916" lon="1.847570026293397">
        <ele>1362.3299999999999</ele>
        <time>2025-05-15T06:25:42Z</time>
      </trkpt>
      <trkpt lat="42.495911959558725" lon="1.847656024619937">
        <ele>1361.3599999999999</ele>
        <time>2025-05-15T06:25:43Z</time>
      </trkpt>
      <trkpt lat="42.495794026181102" lon="1.847733976319432">
        <ele>1360.8800000000001</ele>
        <time>2025-05-15T06:25:44Z</time>
      </trkpt>
      <trkpt lat="42.49566201120615" lon="1.847808994352818">
        <ele>1359.9200000000001</ele>
        <time>2025-05-15T06:25:45Z</time>
      </trkpt>
      <trkpt lat="42.495509963482618" lon="1.847874037921429">
        <ele>1358.96</ele>
        <time>2025-05-15T06:25:46Z</time>
      </trkpt>
      <trkpt lat="42.494848966598511" lon="1.848207972943783">
        <ele>1356.5599999999999</ele>
        <time>2025-05-15T06:25:50Z</time>
      </trkpt>
      <trkpt lat="42.494709994643927" lon="1.848362032324076">
        <ele>1356.0799999999999</ele>
        <time>2025-05-15T06:25:51Z</time>
      </trkpt>
      <trkpt lat="42.493634009733796" lon="1.849827021360397">
        <ele>1352.23</ele>
        <time>2025-05-15T06:25:58Z</time>
      </trkpt>
      <trkpt lat="42.492729015648365" lon="1.851188996806741">
        <ele>1347.4300000000001</ele>
        <time>2025-05-15T06:26:04Z</time>
      </trkpt>
      <trkpt lat="42.492595994845033" lon="1.851415978744626">
        <ele>1346.9400000000001</ele>
        <time>2025-05-15T06:26:05Z</time>
      </trkpt>
      <trkpt lat="42.492349985986948" lon="1.851840019226074">
        <ele>1345.98</ele>
        <time>2025-05-15T06:26:07Z</time>
      </trkpt>
      <trkpt lat="42.492186035960913" lon="1.852016961202025">
        <ele>1345.5</ele>
        <time>2025-05-15T06:26:08Z</time>
      </trkpt>
      <trkpt lat="42.492028037086129" lon="1.852178983390331">
        <ele>1345.02</ele>
        <time>2025-05-15T06:26:09Z</time>
      </trkpt>
      <trkpt lat="42.490533962845802" lon="1.853385977447033">
        <ele>1341.6600000000001</ele>
        <time>2025-05-15T06:26:17Z</time>
      </trkpt>
      <trkpt lat="42.490384010598063" lon="1.853555962443352">
        <ele>1340.7</ele>
        <time>2025-05-15T06:26:18Z</time>
      </trkpt>
      <trkpt lat="42.489285981282592" lon="1.855159001424909">
        <ele>1335.4100000000001</ele>
        <time>2025-05-15T06:26:25Z</time>
      </trkpt>
      <trkpt lat="42.488217037171125" lon="1.856357026845217">
        <ele>1328.2</ele>
        <time>2025-05-15T06:26:31Z</time>
      </trkpt>
      <trkpt lat="42.488051997497678" lon="1.856436990201473">
        <ele>1326.76</ele>
        <time>2025-05-15T06:26:32Z</time>
      </trkpt>
      <trkpt lat="42.487869020551443" lon="1.856489041820169">
        <ele>1325.3099999999999</ele>
        <time>2025-05-15T06:26:33Z</time>
      </trkpt>
      <trkpt lat="42.486837040632963" lon="1.856784000992775">
        <ele>1319.55</ele>
        <time>2025-05-15T06:26:39Z</time>
      </trkpt>
      <trkpt lat="42.486727992072701" lon="1.856861030682921">
        <ele>1319.0699999999999</ele>
        <time>2025-05-15T06:26:40Z</time>
      </trkpt>
      <trkpt lat="42.486676024273038" lon="1.856953985989094">
        <ele>1318.5899999999999</ele>
        <time>2025-05-15T06:26:41Z</time>
      </trkpt>
      <trkpt lat="42.486613998189569" lon="1.85709597542882">
        <ele>1318.0999999999999</ele>
        <time>2025-05-15T06:26:42Z</time>
      </trkpt>
      <trkpt lat="42.486586002632976" lon="1.857273001223803">
        <ele>1317.6199999999999</ele>
        <time>2025-05-15T06:26:43Z</time>
      </trkpt>
      <trkpt lat="42.486554989591241" lon="1.857468970119953">
        <ele>1316.6600000000001</ele>
        <time>2025-05-15T06:26:44Z</time>
      </trkpt>
      <trkpt lat="42.486521964892745" lon="1.857679020613432">
        <ele>1316.1800000000001</ele>
        <time>2025-05-15T06:26:45Z</time>
      </trkpt>
      <trkpt lat="42.486492041498423" lon="1.85786996036768">
        <ele>1315.22</ele>
        <time>2025-05-15T06:26:46Z</time>
      </trkpt>
      <trkpt lat="42.486391961574554" lon="1.858055032789707">
        <ele>1314.74</ele>
        <time>2025-05-15T06:26:47Z</time>
      </trkpt>
      <trkpt lat="42.486279979348183" lon="1.858210014179349">
        <ele>1313.78</ele>
        <time>2025-05-15T06:26:48Z</time>
      </trkpt>
      <trkpt lat="42.486136984080076" lon="1.858353009447455">
        <ele>1313.3</ele>
        <time>2025-05-15T06:26:49Z</time>
      </trkpt>
      <trkpt lat="42.48476997949183" lon="1.859533013775945">
        <ele>1308.01</ele>
        <time>2025-05-15T06:26:57Z</time>
      </trkpt>
      <trkpt lat="42.483796002343297" lon="1.860161991789937">
        <ele>1303.6900000000001</ele>
        <time>2025-05-15T06:27:03Z</time>
      </trkpt>
      <trkpt lat="42.483664993196726" lon="1.860337005928159">
        <ele>1302.24</ele>
        <time>2025-05-15T06:27:04Z</time>
      </trkpt>
      <trkpt lat="42.48305001296103" lon="1.861090958118439">
        <ele>1298.8800000000001</ele>
        <time>2025-05-15T06:27:08Z</time>
      </trkpt>
      <trkpt lat="42.482585990801454" lon="1.861623041331768">
        <ele>1296.96</ele>
        <time>2025-05-15T06:27:11Z</time>
      </trkpt>
      <trkpt lat="42.482478031888604" lon="1.861835019662976">
        <ele>1296.48</ele>
        <time>2025-05-15T06:27:12Z</time>
      </trkpt>
      <trkpt lat="42.482029013335705" lon="1.862632976844907">
        <ele>1293.5899999999999</ele>
        <time>2025-05-15T06:27:16Z</time>
      </trkpt>
      <trkpt lat="42.481876965612173" lon="1.862720986828208">
        <ele>1293.1099999999999</ele>
        <time>2025-05-15T06:27:17Z</time>
      </trkpt>
      <trkpt lat="42.481712009757757" lon="1.862807990983129">
        <ele>1292.6300000000001</ele>
        <time>2025-05-15T06:27:18Z</time>
      </trkpt>
      <trkpt lat="42.481113960966468" lon="1.863059028983116">
        <ele>1291.1900000000001</ele>
        <time>2025-05-15T06:27:21Z</time>
      </trkpt>
      <trkpt lat="42.480921009555459" lon="1.863192971795797">
        <ele>1290.71</ele>
        <time>2025-05-15T06:27:22Z</time>
      </trkpt>
      <trkpt lat="42.479842007160187" lon="1.864095032215118">
        <ele>1287.3399999999999</ele>
        <time>2025-05-15T06:27:28Z</time>
      </trkpt>
      <trkpt lat="42.479685014113784" lon="1.864296030253172">
        <ele>1286.8599999999999</ele>
        <time>2025-05-15T06:27:29Z</time>
      </trkpt>
      <trkpt lat="42.479392988607287" lon="1.86472300440073">
        <ele>1285.4200000000001</ele>
        <time>2025-05-15T06:27:31Z</time>
      </trkpt>
      <trkpt lat="42.479262985289097" lon="1.864972030743957">
        <ele>1284.46</ele>
        <time>2025-05-15T06:27:32Z</time>
      </trkpt>
      <trkpt lat="42.478304011747241" lon="1.866984022781253">
        <ele>1279.6500000000001</ele>
        <time>2025-05-15T06:27:39Z</time>
      </trkpt>
      <trkpt lat="42.477115960791707" lon="1.86938401311636">
        <ele>1274.8499999999999</ele>
        <time>2025-05-15T06:27:48Z</time>
      </trkpt>
      <trkpt lat="42.477029962465167" lon="1.869632033631206">
        <ele>1274.3599999999999</ele>
        <time>2025-05-15T06:27:49Z</time>
      </trkpt>
      <trkpt lat="42.476834999397397" lon="1.870424039661884">
        <ele>1274.3599999999999</ele>
        <time>2025-05-15T06:27:52Z</time>
      </trkpt>
      <trkpt lat="42.476725028827786" lon="1.870666025206447">
        <ele>1274.3599999999999</ele>
        <time>2025-05-15T06:27:53Z</time>
      </trkpt>
      <trkpt lat="42.475780975073576" lon="1.872509960085154">
        <ele>1274.3599999999999</ele>
        <time>2025-05-15T06:28:01Z</time>
      </trkpt>
      <trkpt lat="42.474771961569786" lon="1.874441988766193">
        <ele>1274.8499999999999</ele>
        <time>2025-05-15T06:28:11Z</time>
      </trkpt>
      <trkpt lat="42.473740987479687" lon="1.876723039895296">
        <ele>1275.8099999999999</ele>
        <time>2025-05-15T06:28:22Z</time>
      </trkpt>
      <trkpt lat="42.47310203500092" lon="1.878619026392698">
        <ele>1276.77</ele>
        <time>2025-05-15T06:28:30Z</time>
      </trkpt>
      <trkpt lat="42.472970020025969" lon="1.878851037472487">
        <ele>1276.77</ele>
        <time>2025-05-15T06:28:31Z</time>
      </trkpt>
      <trkpt lat="42.471889005973935" lon="1.880589025095105">
        <ele>1277.25</ele>
        <time>2025-05-15T06:28:39Z</time>
      </trkpt>
      <trkpt lat="42.470697015523911" lon="1.882072035223246">
        <ele>1275.8099999999999</ele>
        <time>2025-05-15T06:28:47Z</time>
      </trkpt>
      <trkpt lat="42.470545973628759" lon="1.88216901384294">
        <ele>1275.8099999999999</ele>
        <time>2025-05-15T06:28:48Z</time>
      </trkpt>
      <trkpt lat="42.470383029431105" lon="1.882200026884675">
        <ele>1275.3299999999999</ele>
        <time>2025-05-15T06:28:49Z</time>
      </trkpt>
      <trkpt lat="42.470227964222431" lon="1.882220981642604">
        <ele>1275.3299999999999</ele>
        <time>2025-05-15T06:28:50Z</time>
      </trkpt>
      <trkpt lat="42.470081029459834" lon="1.882194997742772">
        <ele>1275.3299999999999</ele>
        <time>2025-05-15T06:28:51Z</time>
      </trkpt>
      <trkpt lat="42.469942979514599" lon="1.882161973044276">
        <ele>1275.3299999999999</ele>
        <time>2025-05-15T06:28:52Z</time>
      </trkpt>
      <trkpt lat="42.469840971753001" lon="1.882138000801206">
        <ele>1275.3299999999999</ele>
        <time>2025-05-15T06:28:53Z</time>
      </trkpt>
      <trkpt lat="42.469703005626798" lon="1.882175970822573">
        <ele>1274.8499999999999</ele>
        <time>2025-05-15T06:28:54Z</time>
      </trkpt>
      <trkpt lat="42.469596974551678" lon="1.882210001349449">
        <ele>1274.3599999999999</ele>
        <time>2025-05-15T06:28:55Z</time>
      </trkpt>
      <trkpt lat="42.46949496679008" lon="1.882313014939427">
        <ele>1274.3599999999999</ele>
        <time>2025-05-15T06:28:56Z</time>
      </trkpt>
      <trkpt lat="42.469380972906947" lon="1.882441006600857">
        <ele>1273.8800000000001</ele>
        <time>2025-05-15T06:28:57Z</time>
      </trkpt>
      <trkpt lat="42.468530964106321" lon="1.883441973477602">
        <ele>1271</ele>
        <time>2025-05-15T06:29:03Z</time>
      </trkpt>
      <trkpt lat="42.467229003086686" lon="1.885074013844132">
        <ele>1263.3099999999999</ele>
        <time>2025-05-15T06:29:12Z</time>
      </trkpt>
      <trkpt lat="42.466718964278698" lon="1.885961992666125">
        <ele>1258.98</ele>
        <time>2025-05-15T06:29:19Z</time>
      </trkpt>
      <trkpt lat="42.466382011771202" lon="1.886827005073428">
        <ele>1257.54</ele>
        <time>2025-05-15T06:29:26Z</time>
      </trkpt>
      <trkpt lat="42.465898962691426" lon="1.888203984126449">
        <ele>1254.1800000000001</ele>
        <time>2025-05-15T06:29:36Z</time>
      </trkpt>
      <trkpt lat="42.465701987966895" lon="1.888744030147791">
        <ele>1252.74</ele>
        <time>2025-05-15T06:29:41Z</time>
      </trkpt>
      <trkpt lat="42.465652031823993" lon="1.888901023194194">
        <ele>1252.74</ele>
        <time>2025-05-15T06:29:43Z</time>
      </trkpt>
      <trkpt lat="42.465633004903793" lon="1.888961959630251">
        <ele>1252.25</ele>
        <time>2025-05-15T06:29:44Z</time>
      </trkpt>
      <trkpt lat="42.465614983811975" lon="1.889017028734088">
        <ele>1252.25</ele>
        <time>2025-05-15T06:29:45Z</time>
      </trkpt>
      <trkpt lat="42.465600986033678" lon="1.889062039554119">
        <ele>1252.25</ele>
        <time>2025-05-15T06:29:46Z</time>
      </trkpt>
      <trkpt lat="42.465590005740523" lon="1.889096992090344">
        <ele>1251.77</ele>
        <time>2025-05-15T06:29:47Z</time>
      </trkpt>
      <trkpt lat="42.46558397077024" lon="1.889118030667305">
        <ele>1251.77</ele>
        <time>2025-05-15T06:29:48Z</time>
      </trkpt>
      <trkpt lat="42.465599980205297" lon="1.889064973220229">
        <ele>1251.77</ele>
        <time>2025-05-15T06:29:51Z</time>
      </trkpt>
      <trkpt lat="42.465612972155213" lon="1.889024991542101">
        <ele>1252.25</ele>
        <time>2025-05-15T06:29:52Z</time>
      </trkpt>
      <trkpt lat="42.465625964105129" lon="1.888982998207212">
        <ele>1252.25</ele>
        <time>2025-05-15T06:29:53Z</time>
      </trkpt>
      <trkpt lat="42.465636022388935" lon="1.888952990993857">
        <ele>1252.74</ele>
        <time>2025-05-15T06:29:54Z</time>
      </trkpt>
      <trkpt lat="42.465752027928829" lon="1.888966988772154">
        <ele>1253.22</ele>
        <time>2025-05-15T06:30:02Z</time>
      </trkpt>
      <trkpt lat="42.465823022648692" lon="1.88891502097249">
        <ele>1234.47</ele>
        <time>2025-05-15T06:58:56Z</time>
      </trkpt>
      <trkpt lat="42.465719003230333" lon="1.888953996822238">
        <ele>1248.4100000000001</ele>
        <time>2025-05-15T06:59:32Z</time>
      </trkpt>
      <trkpt lat="42.46571397408843" lon="1.888966988772154">
        <ele>1254.6600000000001</ele>
        <time>2025-05-15T07:00:16Z</time>
      </trkpt>
      <trkpt lat="42.465743981301785" lon="1.88895701430738">
        <ele>1254.6600000000001</ele>
        <time>2025-05-15T07:01:02Z</time>
      </trkpt>
      <trkpt lat="42.465743981301785" lon="1.888956008478999">
        <ele>1255.1400000000001</ele>
        <time>2025-05-15T07:01:39Z</time>
      </trkpt>
      <trkpt lat="42.465737024322152" lon="1.889038989320397">
        <ele>1254.6600000000001</ele>
        <time>2025-05-15T07:02:07Z</time>
      </trkpt>
      <trkpt lat="42.465737024322152" lon="1.889038989320397">
        <ele>1254.6600000000001</ele>
        <time>2025-05-15T07:02:26Z</time>
      </trkpt>
      <trkpt lat="42.465613977983594" lon="1.889020968228579">
        <ele>1254.1800000000001</ele>
        <time>2025-05-15T07:02:28Z</time>
      </trkpt>
      <trkpt lat="42.46560400351882" lon="1.889053992927074">
        <ele>1254.1800000000001</ele>
        <time>2025-05-15T07:02:29Z</time>
      </trkpt>
      <trkpt lat="42.465571984648705" lon="1.889164969325066">
        <ele>1255.6199999999999</ele>
        <time>2025-05-15T07:02:35Z</time>
      </trkpt>
      <trkpt lat="42.465549018234015" lon="1.889247028157115">
        <ele>1255.6199999999999</ele>
        <time>2025-05-15T07:02:36Z</time>
      </trkpt>
      <trkpt lat="42.465161019936204" lon="1.890459973365068">
        <ele>1253.22</ele>
        <time>2025-05-15T07:02:47Z</time>
      </trkpt>
      <trkpt lat="42.465127995237708" lon="1.890580002218485">
        <ele>1252.74</ele>
        <time>2025-05-15T07:02:48Z</time>
      </trkpt>
      <trkpt lat="42.465014001354575" lon="1.891180984675884">
        <ele>1252.25</ele>
        <time>2025-05-15T07:02:53Z</time>
      </trkpt>
      <trkpt lat="42.464997991919518" lon="1.891311993822455">
        <ele>1252.25</ele>
        <time>2025-05-15T07:02:54Z</time>
      </trkpt>
      <trkpt lat="42.465090025216341" lon="1.891846004873514">
        <ele>1252.74</ele>
        <time>2025-05-15T07:02:58Z</time>
      </trkpt>
      <trkpt lat="42.465203013271093" lon="1.892392002046108">
        <ele>1253.7</ele>
        <time>2025-05-15T07:03:02Z</time>
      </trkpt>
      <trkpt lat="42.465302003547549" lon="1.892959959805012">
        <ele>1253.7</ele>
        <time>2025-05-15T07:03:06Z</time>
      </trkpt>
      <trkpt lat="42.465284988284111" lon="1.893407972529531">
        <ele>1253.7</ele>
        <time>2025-05-15T07:03:09Z</time>
      </trkpt>
      <trkpt lat="42.465271996334195" lon="1.893559014424682">
        <ele>1253.7</ele>
        <time>2025-05-15T07:03:10Z</time>
      </trkpt>
      <trkpt lat="42.465235032141209" lon="1.893707038834691">
        <ele>1254.1800000000001</ele>
        <time>2025-05-15T07:03:11Z</time>
      </trkpt>
      <trkpt lat="42.465140987187624" lon="1.893977019935846">
        <ele>1254.6600000000001</ele>
        <time>2025-05-15T07:03:13Z</time>
      </trkpt>
      <trkpt lat="42.465076027438045" lon="1.894096964970231">
        <ele>1254.6600000000001</ele>
        <time>2025-05-15T07:03:14Z</time>
      </trkpt>
      <trkpt lat="42.464511003345251" lon="1.895225001499057">
        <ele>1257.0599999999999</ele>
        <time>2025-05-15T07:03:23Z</time>
      </trkpt>
      <trkpt lat="42.464458029717207" lon="1.895358022302389">
        <ele>1257.0599999999999</ele>
        <time>2025-05-15T07:03:24Z</time>
      </trkpt>
      <trkpt lat="42.46442299336195" lon="1.895507974550128">
        <ele>1257.54</ele>
        <time>2025-05-15T07:03:25Z</time>
      </trkpt>
      <trkpt lat="42.464171033352613" lon="1.896742964163423">
        <ele>1258.98</ele>
        <time>2025-05-15T07:03:32Z</time>
      </trkpt>
      <trkpt lat="42.463389001786709" lon="1.89875696785748">
        <ele>1263.3099999999999</ele>
        <time>2025-05-15T07:03:42Z</time>
      </trkpt>
      <trkpt lat="42.462650975212455" lon="1.900669969618321">
        <ele>1269.0799999999999</ele>
        <time>2025-05-15T07:03:51Z</time>
      </trkpt>
      <trkpt lat="42.461961982771754" lon="1.902819005772471">
        <ele>1271.48</ele>
        <time>2025-05-15T07:04:00Z</time>
      </trkpt>
      <trkpt lat="42.46182200498879" lon="1.903702039271593">
        <ele>1270.04</ele>
        <time>2025-05-15T07:04:04Z</time>
      </trkpt>
      <trkpt lat="42.461831979453564" lon="1.903900019824505">
        <ele>1270.52</ele>
        <time>2025-05-15T07:04:05Z</time>
      </trkpt>
      <trkpt lat="42.461860980838537" lon="1.904090959578753">
        <ele>1270.04</ele>
        <time>2025-05-15T07:04:06Z</time>
      </trkpt>
      <trkpt lat="42.461916971951723" lon="1.904289023950696">
        <ele>1270.04</ele>
        <time>2025-05-15T07:04:07Z</time>
      </trkpt>
      <trkpt lat="42.461975980550051" lon="1.904495973140001">
        <ele>1269.5599999999999</ele>
        <time>2025-05-15T07:04:08Z</time>
      </trkpt>
      <trkpt lat="42.462413012981415" lon="1.906033968552947">
        <ele>1267.1600000000001</ele>
        <time>2025-05-15T07:04:16Z</time>
      </trkpt>
      <trkpt lat="42.462432961910963" lon="1.906202025711536">
        <ele>1267.1600000000001</ele>
        <time>2025-05-15T07:04:17Z</time>
      </trkpt>
      <trkpt lat="42.462459029629827" lon="1.906406963244081">
        <ele>1266.6700000000001</ele>
        <time>2025-05-15T07:04:18Z</time>
      </trkpt>
      <trkpt lat="42.462459029629827" lon="1.906572002917528">
        <ele>1266.6700000000001</ele>
        <time>2025-05-15T07:04:19Z</time>
      </trkpt>
      <trkpt lat="42.462459029629827" lon="1.906793033704162">
        <ele>1266.1900000000001</ele>
        <time>2025-05-15T07:04:20Z</time>
      </trkpt>
      <trkpt lat="42.462306981906295" lon="1.908216029405594">
        <ele>1266.1900000000001</ele>
        <time>2025-05-15T07:04:28Z</time>
      </trkpt>
      <trkpt lat="42.461929963901639" lon="1.909759975969791">
        <ele>1266.6700000000001</ele>
        <time>2025-05-15T07:04:38Z</time>
      </trkpt>
      <trkpt lat="42.461358988657594" lon="1.911382963880897">
        <ele>1266.6700000000001</ele>
        <time>2025-05-15T07:04:49Z</time>
      </trkpt>
      <trkpt lat="42.460922040045261" lon="1.912687020376325">
        <ele>1266.1900000000001</ele>
        <time>2025-05-15T07:04:59Z</time>
      </trkpt>
      <trkpt lat="42.460783990100026" lon="1.913294037804008">
        <ele>1265.23</ele>
        <time>2025-05-15T07:05:05Z</time>
      </trkpt>
      <trkpt lat="42.460293984040618" lon="1.91484603099525">
        <ele>1264.27</ele>
        <time>2025-05-15T07:05:20Z</time>
      </trkpt>
      <trkpt lat="42.460015034303069" lon="1.916225021705031">
        <ele>1258.5</ele>
        <time>2025-05-15T07:05:32Z</time>
      </trkpt>
      <trkpt lat="42.459853012114763" lon="1.916881995275617">
        <ele>1257.54</ele>
        <time>2025-05-15T07:05:38Z</time>
      </trkpt>
      <trkpt lat="42.459815964102745" lon="1.916984003037214">
        <ele>1257.54</ele>
        <time>2025-05-15T07:05:39Z</time>
      </trkpt>
      <trkpt lat="42.459774976596236" lon="1.917093973606825">
        <ele>1257.54</ele>
        <time>2025-05-15T07:05:40Z</time>
      </trkpt>
      <trkpt lat="42.45943701826036" lon="1.918240031227469">
        <ele>1255.6199999999999</ele>
        <time>2025-05-15T07:05:48Z</time>
      </trkpt>
      <trkpt lat="42.459335010498762" lon="1.918700030073524">
        <ele>1255.1400000000001</ele>
        <time>2025-05-15T07:05:51Z</time>
      </trkpt>
      <trkpt lat="42.459280025213957" lon="1.918846964836121">
        <ele>1255.1400000000001</ele>
        <time>2025-05-15T07:05:52Z</time>
      </trkpt>
      <trkpt lat="42.459225039929152" lon="1.918992977589369">
        <ele>1255.1400000000001</ele>
        <time>2025-05-15T07:05:53Z</time>
      </trkpt>
      <trkpt lat="42.458517020568252" lon="1.92071202211082">
        <ele>1254.1800000000001</ele>
        <time>2025-05-15T07:06:05Z</time>
      </trkpt>
      <trkpt lat="42.458461029455066" lon="1.920858034864068">
        <ele>1254.1800000000001</ele>
        <time>2025-05-15T07:06:06Z</time>
      </trkpt>
      <trkpt lat="42.458405960351229" lon="1.921003963798285">
        <ele>1253.7</ele>
        <time>2025-05-15T07:06:07Z</time>
      </trkpt>
      <trkpt lat="42.458033971488476" lon="1.922599961981177">
        <ele>1252.25</ele>
        <time>2025-05-15T07:06:15Z</time>
      </trkpt>
      <trkpt lat="42.45761102065444" lon="1.924882018938661">
        <ele>1249.8499999999999</ele>
        <time>2025-05-15T07:06:24Z</time>
      </trkpt>
      <trkpt lat="42.456930996850133" lon="1.927745025604963">
        <ele>1249.3699999999999</ele>
        <time>2025-05-15T07:06:35Z</time>
      </trkpt>
      <trkpt lat="42.45612901635468" lon="1.931273974478245">
        <ele>1243.5999999999999</ele>
        <time>2025-05-15T07:06:49Z</time>
      </trkpt>
      <trkpt lat="42.45559299364686" lon="1.933036018162966">
        <ele>1242.1600000000001</ele>
        <time>2025-05-15T07:06:56Z</time>
      </trkpt>
      <trkpt lat="42.455458967015147" lon="1.933232992887497">
        <ele>1242.1600000000001</ele>
        <time>2025-05-15T07:06:57Z</time>
      </trkpt>
      <trkpt lat="42.454306036233902" lon="1.935058990493417">
        <ele>1236.3900000000001</ele>
        <time>2025-05-15T07:07:06Z</time>
      </trkpt>
      <trkpt lat="42.454225989058614" lon="1.935240961611271">
        <ele>1235.9100000000001</ele>
        <time>2025-05-15T07:07:07Z</time>
      </trkpt>
      <trkpt lat="42.454197993502021" lon="1.935396026819944">
        <ele>1235.4300000000001</ele>
        <time>2025-05-15T07:07:08Z</time>
      </trkpt>
      <trkpt lat="42.454214002937078" lon="1.935590989887714">
        <ele>1235.4300000000001</ele>
        <time>2025-05-15T07:07:09Z</time>
      </trkpt>
      <trkpt lat="42.454255996271968" lon="1.935757035389543">
        <ele>1234.95</ele>
        <time>2025-05-15T07:07:10Z</time>
      </trkpt>
      <trkpt lat="42.454312993213534" lon="1.935916962102056">
        <ele>1234.47</ele>
        <time>2025-05-15T07:07:11Z</time>
      </trkpt>
      <trkpt lat="42.454416006803513" lon="1.936005977913737">
        <ele>1233.51</ele>
        <time>2025-05-15T07:07:12Z</time>
      </trkpt>
      <trkpt lat="42.454535029828548" lon="1.93607596680522">
        <ele>1233.03</ele>
        <time>2025-05-15T07:07:13Z</time>
      </trkpt>
      <trkpt lat="42.454658998176455" lon="1.936106979846954">
        <ele>1232.55</ele>
        <time>2025-05-15T07:07:14Z</time>
      </trkpt>
      <trkpt lat="42.454808028414845" lon="1.936113014817238">
        <ele>1232.0699999999999</ele>
        <time>2025-05-15T07:07:15Z</time>
      </trkpt>
      <trkpt lat="42.45496703311801" lon="1.93611997179687">
        <ele>1231.5899999999999</ele>
        <time>2025-05-15T07:07:16Z</time>
      </trkpt>
      <trkpt lat="42.456400003284216" lon="1.936093987897039">
        <ele>1223.9000000000001</ele>
        <time>2025-05-15T07:07:24Z</time>
      </trkpt>
      <trkpt lat="42.456587003543973" lon="1.93603296764195">
        <ele>1222.9300000000001</ele>
        <time>2025-05-15T07:07:25Z</time>
      </trkpt>
      <trkpt lat="42.458307975903153" lon="1.935763992369175">
        <ele>1215.72</ele>
        <time>2025-05-15T07:07:34Z</time>
      </trkpt>
      <trkpt lat="42.458688011392951" lon="1.93583901040256">
        <ele>1214.28</ele>
        <time>2025-05-15T07:07:36Z</time>
      </trkpt>
      <trkpt lat="42.458867970854044" lon="1.935901958495379">
        <ele>1213.3199999999999</ele>
        <time>2025-05-15T07:07:37Z</time>
      </trkpt>
      <trkpt lat="42.459971029311419" lon="1.936126006767154">
        <ele>1207.0699999999999</ele>
        <time>2025-05-15T07:07:44Z</time>
      </trkpt>
      <trkpt lat="42.460821960121393" lon="1.936223991215229">
        <ele>1202.27</ele>
        <time>2025-05-15T07:07:51Z</time>
      </trkpt>
      <trkpt lat="42.460932014510036" lon="1.936280988156796">
        <ele>1201.79</ele>
        <time>2025-05-15T07:07:52Z</time>
      </trkpt>
      <trkpt lat="42.461045002564788" lon="1.936347037553787">
        <ele>1201.3</ele>
        <time>2025-05-15T07:07:53Z</time>
      </trkpt>
      <trkpt lat="42.461138041689992" lon="1.936428006738424">
        <ele>1201.3</ele>
        <time>2025-05-15T07:07:54Z</time>
      </trkpt>
      <trkpt lat="42.46122001670301" lon="1.93654702976346">
        <ele>1200.8199999999999</ele>
        <time>2025-05-15T07:07:55Z</time>
      </trkpt>
      <trkpt lat="42.461301991716027" lon="1.936665968969464">
        <ele>1200.3399999999999</ele>
        <time>2025-05-15T07:07:56Z</time>
      </trkpt>
      <trkpt lat="42.46137198060751" lon="1.936792032793164">
        <ele>1200.3399999999999</ele>
        <time>2025-05-15T07:07:57Z</time>
      </trkpt>
      <trkpt lat="42.461428977549076" lon="1.936920024454594">
        <ele>1199.8599999999999</ele>
        <time>2025-05-15T07:07:58Z</time>
      </trkpt>
      <trkpt lat="42.461444986984134" lon="1.937066037207842">
        <ele>1199.3800000000001</ele>
        <time>2025-05-15T07:07:59Z</time>
      </trkpt>
      <trkpt lat="42.461462002247572" lon="1.937215989455581">
        <ele>1198.9000000000001</ele>
        <time>2025-05-15T07:08:00Z</time>
      </trkpt>
      <trkpt lat="42.461464013904333" lon="1.937345992773771">
        <ele>1198.9000000000001</ele>
        <time>2025-05-15T07:08:01Z</time>
      </trkpt>
      <trkpt lat="42.461437024176121" lon="1.937479013577104">
        <ele>1198.4200000000001</ele>
        <time>2025-05-15T07:08:02Z</time>
      </trkpt>
      <trkpt lat="42.461408022791147" lon="1.937563000246882">
        <ele>1198.4200000000001</ele>
        <time>2025-05-15T07:08:03Z</time>
      </trkpt>
      <trkpt lat="42.461327975615859" lon="1.93768403492868">
        <ele>1198.4200000000001</ele>
        <time>2025-05-15T07:08:04Z</time>
      </trkpt>
      <trkpt lat="42.461262010037899" lon="1.937785958871245">
        <ele>1198.9000000000001</ele>
        <time>2025-05-15T07:08:05Z</time>
      </trkpt>
      <trkpt lat="42.460687011480331" lon="1.938675027340651">
        <ele>1197.46</ele>
        <time>2025-05-15T07:08:15Z</time>
      </trkpt>
      <trkpt lat="42.460164986550808" lon="1.93942504003644">
        <ele>1194.0899999999999</ele>
        <time>2025-05-15T07:08:24Z</time>
      </trkpt>
      <trkpt lat="42.460143025964499" lon="1.939456975087524">
        <ele>1193.6099999999999</ele>
        <time>2025-05-15T07:08:25Z</time>
      </trkpt>
      <trkpt lat="42.460130034014583" lon="1.939476002007723">
        <ele>1193.6099999999999</ele>
        <time>2025-05-15T07:08:26Z</time>
      </trkpt>
      <trkpt lat="42.460120981559157" lon="1.939487988129258">
        <ele>1193.1300000000001</ele>
        <time>2025-05-15T07:08:31Z</time>
      </trkpt>
      <trkpt lat="42.460130034014583" lon="1.939474996179342">
        <ele>1192.6500000000001</ele>
        <time>2025-05-15T07:08:32Z</time>
      </trkpt>
      <trkpt lat="42.46014897711575" lon="1.939449012279511">
        <ele>1192.6500000000001</ele>
        <time>2025-05-15T07:08:33Z</time>
      </trkpt>
      <trkpt lat="42.460175966843963" lon="1.939409030601382">
        <ele>1192.6500000000001</ele>
        <time>2025-05-15T07:08:34Z</time>
      </trkpt>
      <trkpt lat="42.460207985714078" lon="1.93936200812459">
        <ele>1192.6500000000001</ele>
        <time>2025-05-15T07:08:35Z</time>
      </trkpt>
      <trkpt lat="42.460653986781836" lon="1.938723977655172">
        <ele>1192.1700000000001</ele>
        <time>2025-05-15T07:08:41Z</time>
      </trkpt>
      <trkpt lat="42.461120020598173" lon="1.938002966344357">
        <ele>1192.6500000000001</ele>
        <time>2025-05-15T07:08:48Z</time>
      </trkpt>
      <trkpt lat="42.461408022791147" lon="1.937563000246882">
        <ele>1194.0899999999999</ele>
        <time>2025-05-15T07:08:53Z</time>
      </trkpt>
      <trkpt lat="42.461428977549076" lon="1.937521006911993">
        <ele>1194.0899999999999</ele>
        <time>2025-05-15T07:08:54Z</time>
      </trkpt>
      <trkpt lat="42.461448004469275" lon="1.937424028292298">
        <ele>1194.0899999999999</ele>
        <time>2025-05-15T07:08:55Z</time>
      </trkpt>
      <trkpt lat="42.461469965055585" lon="1.937313973903656">
        <ele>1194.0899999999999</ele>
        <time>2025-05-15T07:08:56Z</time>
      </trkpt>
      <trkpt lat="42.461579013615847" lon="1.937228981405497">
        <ele>1194.5799999999999</ele>
        <time>2025-05-15T07:08:57Z</time>
      </trkpt>
      <trkpt lat="42.461663000285625" lon="1.937147006392479">
        <ele>1195.0599999999999</ele>
        <time>2025-05-15T07:08:58Z</time>
      </trkpt>
      <trkpt lat="42.461826028302312" lon="1.936965035274625">
        <ele>1196.02</ele>
        <time>2025-05-15T07:09:00Z</time>
      </trkpt>
      <trkpt lat="42.461929963901639" lon="1.936922036111355">
        <ele>1196.02</ele>
        <time>2025-05-15T07:09:01Z</time>
      </trkpt>
      <trkpt lat="42.462027026340365" lon="1.936931004747748">
        <ele>1196.5</ele>
        <time>2025-05-15T07:09:02Z</time>
      </trkpt>
      <trkpt lat="42.462125010788441" lon="1.936939973384142">
        <ele>1196.5</ele>
        <time>2025-05-15T07:09:03Z</time>
      </trkpt>
      <trkpt lat="42.462213020771742" lon="1.936997976154089">
        <ele>1196.5</ele>
        <time>2025-05-15T07:09:04Z</time>
      </trkpt>
      <trkpt lat="42.462280998006463" lon="1.937064025551081">
        <ele>1196.98</ele>
        <time>2025-05-15T07:09:05Z</time>
      </trkpt>
      <trkpt lat="42.462335983291268" lon="1.937166033312678">
        <ele>1196.98</ele>
        <time>2025-05-15T07:09:06Z</time>
      </trkpt>
      <trkpt lat="42.462389962747693" lon="1.937274998053908">
        <ele>1197.46</ele>
        <time>2025-05-15T07:09:07Z</time>
      </trkpt>
      <trkpt lat="42.462446037679911" lon="1.9373859744519">
        <ele>1197.46</ele>
        <time>2025-05-15T07:09:08Z</time>
      </trkpt>
      <trkpt lat="42.462501022964716" lon="1.937498040497303">
        <ele>1197.9400000000001</ele>
        <time>2025-05-15T07:09:09Z</time>
      </trkpt>
      <trkpt lat="42.462556008249521" lon="1.937608011066914">
        <ele>1197.9400000000001</ele>
        <time>2025-05-15T07:09:10Z</time>
      </trkpt>
      <trkpt lat="42.462602024897933" lon="1.93772703409195">
        <ele>1198.4200000000001</ele>
        <time>2025-05-15T07:09:11Z</time>
      </trkpt>
      <trkpt lat="42.462719958275557" lon="1.938054012134671">
        <ele>1198.9000000000001</ele>
        <time>2025-05-15T07:09:14Z</time>
      </trkpt>
      <trkpt lat="42.462795982137322" lon="1.938262972980738">
        <ele>1198.9000000000001</ele>
        <time>2025-05-15T07:09:16Z</time>
      </trkpt>
      <trkpt lat="42.462836969643831" lon="1.938376966863871">
        <ele>1199.3800000000001</ele>
        <time>2025-05-15T07:09:17Z</time>
      </trkpt>
      <trkpt lat="42.462880974635482" lon="1.938482997938991">
        <ele>1199.3800000000001</ele>
        <time>2025-05-15T07:09:18Z</time>
      </trkpt>
      <trkpt lat="42.463103011250496" lon="1.939214989542961">
        <ele>1200.3399999999999</ele>
        <time>2025-05-15T07:09:25Z</time>
      </trkpt>
      <trkpt lat="42.463151961565018" lon="1.939294030889869">
        <ele>1200.8199999999999</ele>
        <time>2025-05-15T07:09:26Z</time>
      </trkpt>
      <trkpt lat="42.463196972385049" lon="1.939366031438112">
        <ele>1200.8199999999999</ele>
        <time>2025-05-15T07:09:27Z</time>
      </trkpt>
      <trkpt lat="42.463256986811757" lon="1.93938204087317">
        <ele>1201.3</ele>
        <time>2025-05-15T07:09:28Z</time>
      </trkpt>
      <trkpt lat="42.463330999016762" lon="1.939371982589364">
        <ele>1201.79</ele>
        <time>2025-05-15T07:09:29Z</time>
      </trkpt>
      <trkpt lat="42.463409034535289" lon="1.939356978982687">
        <ele>1202.75</ele>
        <time>2025-05-15T07:09:30Z</time>
      </trkpt>
      <trkpt lat="42.463497966527939" lon="1.939326971769333">
        <ele>1203.23</ele>
        <time>2025-05-15T07:09:31Z</time>
      </trkpt>
      <trkpt lat="42.463603997603059" lon="1.939329989254475">
        <ele>1203.71</ele>
        <time>2025-05-15T07:09:32Z</time>
      </trkpt>
      <trkpt lat="42.46371497400105" lon="1.939338035881519">
        <ele>1204.1900000000001</ele>
        <time>2025-05-15T07:09:33Z</time>
      </trkpt>
      <trkpt lat="42.463829973712564" lon="1.939334012567997">
        <ele>1204.6700000000001</ele>
        <time>2025-05-15T07:09:34Z</time>
      </trkpt>
      <trkpt lat="42.463952014222741" lon="1.939301993697882">
        <ele>1205.6300000000001</ele>
        <time>2025-05-15T07:09:35Z</time>
      </trkpt>
      <trkpt lat="42.464077994227409" lon="1.939269974827766">
        <ele>1206.5899999999999</ele>
        <time>2025-05-15T07:09:36Z</time>
      </trkpt>
      <trkpt lat="42.464493988081813" lon="1.939186993986368">
        <ele>1209</ele>
        <time>2025-05-15T07:09:40Z</time>
      </trkpt>
      <trkpt lat="42.464578980579972" lon="1.939218007028103">
        <ele>1209.48</ele>
        <time>2025-05-15T07:09:41Z</time>
      </trkpt>
      <trkpt lat="42.464690962806344" lon="1.939258994534612">
        <ele>1210.4400000000001</ele>
        <time>2025-05-15T07:09:42Z</time>
      </trkpt>
      <trkpt lat="42.46476698666811" lon="1.939324960112572">
        <ele>1210.9200000000001</ele>
        <time>2025-05-15T07:09:43Z</time>
      </trkpt>
      <trkpt lat="42.464862037450075" lon="1.939409030601382">
        <ele>1211.4000000000001</ele>
        <time>2025-05-15T07:09:44Z</time>
      </trkpt>
      <trkpt lat="42.465849006548524" lon="1.940323999151588">
        <ele>1213.8</ele>
        <time>2025-05-15T07:09:52Z</time>
      </trkpt>
      <trkpt lat="42.466602958738804" lon="1.941066971048713">
        <ele>1216.21</ele>
        <time>2025-05-15T07:09:58Z</time>
      </trkpt>
      <trkpt lat="42.466694992035627" lon="1.941216001287103">
        <ele>1216.6900000000001</ele>
        <time>2025-05-15T07:09:59Z</time>
      </trkpt>
      <trkpt lat="42.467134036123753" lon="1.942223003134131">
        <ele>1219.5699999999999</ele>
        <time>2025-05-15T07:10:04Z</time>
      </trkpt>
      <trkpt lat="42.467249035835266" lon="1.942429030314088">
        <ele>1220.05</ele>
        <time>2025-05-15T07:10:05Z</time>
      </trkpt>
      <trkpt lat="42.468409007415175" lon="1.943897036835551">
        <ele>1226.3</ele>
        <time>2025-05-15T07:10:13Z</time>
      </trkpt>
      <trkpt lat="42.468798011541367" lon="1.944253016263247">
        <ele>1227.74</ele>
        <time>2025-05-15T07:10:16Z</time>
      </trkpt>
      <trkpt lat="42.468903958797455" lon="1.944363992661238">
        <ele>1228.22</ele>
        <time>2025-05-15T07:10:17Z</time>
      </trkpt>
      <trkpt lat="42.468966990709305" lon="1.944520985707641">
        <ele>1228.22</ele>
        <time>2025-05-15T07:10:18Z</time>
      </trkpt>
      <trkpt lat="42.469028010964394" lon="1.944678984582424">
        <ele>1228.7</ele>
        <time>2025-05-15T07:10:19Z</time>
      </trkpt>
      <trkpt lat="42.469074027612805" lon="1.944861961528659">
        <ele>1229.1800000000001</ele>
        <time>2025-05-15T07:10:20Z</time>
      </trkpt>
      <trkpt lat="42.469364963471889" lon="1.946313036605716">
        <ele>1234.47</ele>
        <time>2025-05-15T07:10:27Z</time>
      </trkpt>
      <trkpt lat="42.46942900121212" lon="1.946476986631751">
        <ele>1235.4300000000001</ele>
        <time>2025-05-15T07:10:28Z</time>
      </trkpt>
      <trkpt lat="42.469502007588744" lon="1.946638002991676">
        <ele>1235.9100000000001</ele>
        <time>2025-05-15T07:10:29Z</time>
      </trkpt>
      <trkpt lat="42.469599992036819" lon="1.946791978552938">
        <ele>1236.8699999999999</ele>
        <time>2025-05-15T07:10:30Z</time>
      </trkpt>
      <trkpt lat="42.469902997836471" lon="1.947267986834049">
        <ele>1238.8</ele>
        <time>2025-05-15T07:10:33Z</time>
      </trkpt>
      <trkpt lat="42.470037024468184" lon="1.947386004030705">
        <ele>1239.28</ele>
        <time>2025-05-15T07:10:34Z</time>
      </trkpt>
      <trkpt lat="42.470471039414406" lon="1.947735026478767">
        <ele>1241.2</ele>
        <time>2025-05-15T07:10:37Z</time>
      </trkpt>
      <trkpt lat="42.470600036904216" lon="1.94789101369679">
        <ele>1242.1600000000001</ele>
        <time>2025-05-15T07:10:38Z</time>
      </trkpt>
      <trkpt lat="42.470719981938601" lon="1.948035014793277">
        <ele>1243.1199999999999</ele>
        <time>2025-05-15T07:10:39Z</time>
      </trkpt>
      <trkpt lat="42.47082500718534" lon="1.94823601283133">
        <ele>1244.0799999999999</ele>
        <time>2025-05-15T07:10:40Z</time>
      </trkpt>
      <trkpt lat="42.470925003290176" lon="1.948425024747849">
        <ele>1245.04</ele>
        <time>2025-05-15T07:10:41Z</time>
      </trkpt>
      <trkpt lat="42.471029022708535" lon="1.948625016957521">
        <ele>1246.01</ele>
        <time>2025-05-15T07:10:42Z</time>
      </trkpt>
      <trkpt lat="42.471581976860762" lon="1.949899988248944">
        <ele>1251.29</ele>
        <time>2025-05-15T07:10:48Z</time>
      </trkpt>
      <trkpt lat="42.47164299711585" lon="1.950052035972476">
        <ele>1252.25</ele>
        <time>2025-05-15T07:10:49Z</time>
      </trkpt>
      <trkpt lat="42.471750034019351" lon="1.950172986835241">
        <ele>1252.74</ele>
        <time>2025-05-15T07:10:50Z</time>
      </trkpt>
      <trkpt lat="42.47183796018362" lon="1.950245993211865">
        <ele>1253.7</ele>
        <time>2025-05-15T07:10:51Z</time>
      </trkpt>
      <trkpt lat="42.471944997087121" lon="1.95029896683991">
        <ele>1254.6600000000001</ele>
        <time>2025-05-15T07:10:52Z</time>
      </trkpt>
      <trkpt lat="42.472062008455396" lon="1.950357975438237">
        <ele>1255.1400000000001</ele>
        <time>2025-05-15T07:10:53Z</time>
      </trkpt>
      <trkpt lat="42.472322015091777" lon="1.950487978756428">
        <ele>1256.0999999999999</ele>
        <time>2025-05-15T07:10:55Z</time>
      </trkpt>
      <trkpt lat="42.47245998121798" lon="1.950556039810181">
        <ele>1256.5799999999999</ele>
        <time>2025-05-15T07:10:56Z</time>
      </trkpt>
      <trkpt lat="42.472595013678074" lon="1.950637008994818">
        <ele>1257.0599999999999</ele>
        <time>2025-05-15T07:10:57Z</time>
      </trkpt>
      <trkpt lat="42.472724011167884" lon="1.950757037848234">
        <ele>1257.54</ele>
        <time>2025-05-15T07:10:58Z</time>
      </trkpt>
      <trkpt lat="42.472849991172552" lon="1.950873965397477">
        <ele>1258.02</ele>
        <time>2025-05-15T07:10:59Z</time>
      </trkpt>
      <trkpt lat="42.473079990595579" lon="1.951088039204478">
        <ele>1259.46</ele>
        <time>2025-05-15T07:11:01Z</time>
      </trkpt>
      <trkpt lat="42.47318803332746" lon="1.951189041137695">
        <ele>1260.4300000000001</ele>
        <time>2025-05-15T07:11:02Z</time>
      </trkpt>
      <trkpt lat="42.473333962261677" lon="1.951233968138695">
        <ele>1260.9100000000001</ele>
        <time>2025-05-15T07:11:03Z</time>
      </trkpt>
      <trkpt lat="42.473466983065009" lon="1.951275039464235">
        <ele>1261.3900000000001</ele>
        <time>2025-05-15T07:11:04Z</time>
      </trkpt>
      <trkpt lat="42.473607966676354" lon="1.951244026422501">
        <ele>1261.8699999999999</ele>
        <time>2025-05-15T07:11:05Z</time>
      </trkpt>
      <trkpt lat="42.473761020228267" lon="1.951209995895624">
        <ele>1261.8699999999999</ele>
        <time>2025-05-15T07:11:06Z</time>
      </trkpt>
      <trkpt lat="42.473920024931431" lon="1.951174037531018">
        <ele>1262.3499999999999</ele>
        <time>2025-05-15T07:11:07Z</time>
      </trkpt>
      <trkpt lat="42.47409101575613" lon="1.951147969812155">
        <ele>1262.8299999999999</ele>
        <time>2025-05-15T07:11:08Z</time>
      </trkpt>
      <trkpt lat="42.47426200658083" lon="1.951154004782438">
        <ele>1263.3099999999999</ele>
        <time>2025-05-15T07:11:09Z</time>
      </trkpt>
      <trkpt lat="42.474796017631888" lon="1.951215025037527">
        <ele>1265.23</ele>
        <time>2025-05-15T07:11:12Z</time>
      </trkpt>
      <trkpt lat="42.474972037598491" lon="1.951271016150713">
        <ele>1266.1900000000001</ele>
        <time>2025-05-15T07:11:13Z</time>
      </trkpt>
      <trkpt lat="42.475141016766429" lon="1.951324995607138">
        <ele>1267.1600000000001</ele>
        <time>2025-05-15T07:11:14Z</time>
      </trkpt>
      <trkpt lat="42.475586012005806" lon="1.951466985046864">
        <ele>1270.04</ele>
        <time>2025-05-15T07:11:17Z</time>
      </trkpt>
      <trkpt lat="42.475735964253545" lon="1.951459022238851">
        <ele>1271.48</ele>
        <time>2025-05-15T07:11:18Z</time>
      </trkpt>
      <trkpt lat="42.475884994491935" lon="1.951401019468904">
        <ele>1272.4400000000001</ele>
        <time>2025-05-15T07:11:19Z</time>
      </trkpt>
      <trkpt lat="42.476047016680241" lon="1.951338993385434">
        <ele>1273.8800000000001</ele>
        <time>2025-05-15T07:11:20Z</time>
      </trkpt>
      <trkpt lat="42.476214990019798" lon="1.951274033635855">
        <ele>1275.3299999999999</ele>
        <time>2025-05-15T07:11:21Z</time>
      </trkpt>
      <trkpt lat="42.476684963330626" lon="1.951091978698969">
        <ele>1280.1300000000001</ele>
        <time>2025-05-15T07:11:24Z</time>
      </trkpt>
      <trkpt lat="42.476813960820436" lon="1.951042022556067">
        <ele>1281.5699999999999</ele>
        <time>2025-05-15T07:11:25Z</time>
      </trkpt>
      <trkpt lat="42.476943964138627" lon="1.951035987585783">
        <ele>1282.54</ele>
        <time>2025-05-15T07:11:26Z</time>
      </trkpt>
      <trkpt lat="42.477058041840792" lon="1.951086027547717">
        <ele>1283.98</ele>
        <time>2025-05-15T07:11:27Z</time>
      </trkpt>
      <trkpt lat="42.477142028510571" lon="1.951159033924341">
        <ele>1284.9400000000001</ele>
        <time>2025-05-15T07:11:28Z</time>
      </trkpt>
      <trkpt lat="42.477219980210066" lon="1.951237991452217">
        <ele>1286.3800000000001</ele>
        <time>2025-05-15T07:11:29Z</time>
      </trkpt>
      <trkpt lat="42.477296004071832" lon="1.951344022527337">
        <ele>1287.3399999999999</ele>
        <time>2025-05-15T07:11:30Z</time>
      </trkpt>
      <trkpt lat="42.477625999599695" lon="1.951876021921635">
        <ele>1291.6700000000001</ele>
        <time>2025-05-15T07:11:34Z</time>
      </trkpt>
      <trkpt lat="42.478103013709188" lon="1.952673979103565">
        <ele>1298.8800000000001</ele>
        <time>2025-05-15T07:11:41Z</time>
      </trkpt>
      <trkpt lat="42.478146012872458" lon="1.952741034328938">
        <ele>1299.3599999999999</ele>
        <time>2025-05-15T07:11:42Z</time>
      </trkpt>
      <trkpt lat="42.478208960965276" lon="1.952908001840115">
        <ele>1300.8</ele>
        <time>2025-05-15T07:11:44Z</time>
      </trkpt>
      <trkpt lat="42.478208960965276" lon="1.952970027923584">
        <ele>1301.28</ele>
        <time>2025-05-15T07:11:45Z</time>
      </trkpt>
      <trkpt lat="42.47823997400701" lon="1.953143030405045">
        <ele>1302.24</ele>
        <time>2025-05-15T07:11:46Z</time>
      </trkpt>
      <trkpt lat="42.478255983442068" lon="1.953592970967293">
        <ele>1304.1700000000001</ele>
        <time>2025-05-15T07:11:49Z</time>
      </trkpt>
      <trkpt lat="42.47836796566844" lon="1.954559991136193">
        <ele>1307.05</ele>
        <time>2025-05-15T07:11:55Z</time>
      </trkpt>
      <trkpt lat="42.478395961225033" lon="1.954714972525835">
        <ele>1307.53</ele>
        <time>2025-05-15T07:11:56Z</time>
      </trkpt>
      <trkpt lat="42.478468967601657" lon="1.95485302247107">
        <ele>1308.01</ele>
        <time>2025-05-15T07:11:57Z</time>
      </trkpt>
      <trkpt lat="42.478556977584958" lon="1.954986965283752">
        <ele>1308.01</ele>
        <time>2025-05-15T07:11:58Z</time>
      </trkpt>
      <trkpt lat="42.47864599339664" lon="1.955124009400606">
        <ele>1308.01</ele>
        <time>2025-05-15T07:11:59Z</time>
      </trkpt>
      <trkpt lat="42.478987975046039" lon="1.955715017393231">
        <ele>1310.9000000000001</ele>
        <time>2025-05-15T07:12:03Z</time>
      </trkpt>
      <trkpt lat="42.479155026376247" lon="1.956150960177183">
        <ele>1312.3399999999999</ele>
        <time>2025-05-15T07:12:06Z</time>
      </trkpt>
      <trkpt lat="42.479324005544186" lon="1.95676501840353">
        <ele>1315.22</ele>
        <time>2025-05-15T07:12:10Z</time>
      </trkpt>
      <trkpt lat="42.479399023577571" lon="1.956895021721721">
        <ele>1316.1800000000001</ele>
        <time>2025-05-15T07:12:11Z</time>
      </trkpt>
      <trkpt lat="42.479473035782576" lon="1.95702200755477">
        <ele>1316.6600000000001</ele>
        <time>2025-05-15T07:12:12Z</time>
      </trkpt>
      <trkpt lat="42.48023402877152" lon="1.958033032715321">
        <ele>1321.95</ele>
        <time>2025-05-15T07:12:21Z</time>
      </trkpt>
      <trkpt lat="42.481440016999841" lon="1.958799976855516">
        <ele>1328.6800000000001</ele>
        <time>2025-05-15T07:12:32Z</time>
      </trkpt>
      <trkpt lat="42.481836983934045" lon="1.959155034273863">
        <ele>1331.5599999999999</ele>
        <time>2025-05-15T07:12:36Z</time>
      </trkpt>
      <trkpt lat="42.481922982260585" lon="1.959254024550319">
        <ele>1332.52</ele>
        <time>2025-05-15T07:12:37Z</time>
      </trkpt>
      <trkpt lat="42.482163961976767" lon="1.959529034793377">
        <ele>1334.9300000000001</ele>
        <time>2025-05-15T07:12:41Z</time>
      </trkpt>
      <trkpt lat="42.482214001938701" lon="1.959587959572673">
        <ele>1335.4100000000001</ele>
        <time>2025-05-15T07:12:42Z</time>
      </trkpt>
      <trkpt lat="42.482263036072254" lon="1.959645040333271">
        <ele>1335.8900000000001</ele>
        <time>2025-05-15T07:12:43Z</time>
      </trkpt>
      <trkpt lat="42.482316009700298" lon="1.959705976769328">
        <ele>1335.8900000000001</ele>
        <time>2025-05-15T07:12:44Z</time>
      </trkpt>
      <trkpt lat="42.482370994985104" lon="1.959768002852798">
        <ele>1336.3699999999999</ele>
        <time>2025-05-15T07:12:45Z</time>
      </trkpt>
      <trkpt lat="42.48242799192667" lon="1.959813013672829">
        <ele>1336.8499999999999</ele>
        <time>2025-05-15T07:12:46Z</time>
      </trkpt>
      <trkpt lat="42.48249102383852" lon="1.959847966209054">
        <ele>1337.3299999999999</ele>
        <time>2025-05-15T07:12:47Z</time>
      </trkpt>
      <trkpt lat="42.482554977759719" lon="1.959883002564311">
        <ele>1337.8099999999999</ele>
        <time>2025-05-15T07:12:48Z</time>
      </trkpt>
      <trkpt lat="42.48262002132833" lon="1.959906974807382">
        <ele>1338.29</ele>
        <time>2025-05-15T07:12:49Z</time>
      </trkpt>
      <trkpt lat="42.482689004391432" lon="1.959918960928917">
        <ele>1339.25</ele>
        <time>2025-05-15T07:12:50Z</time>
      </trkpt>
      <trkpt lat="42.482758993282914" lon="1.959931030869484">
        <ele>1340.22</ele>
        <time>2025-05-15T07:12:51Z</time>
      </trkpt>
      <trkpt lat="42.482967032119632" lon="1.959973024204373">
        <ele>1341.1800000000001</ele>
        <time>2025-05-15T07:12:54Z</time>
      </trkpt>
      <trkpt lat="42.483040960505605" lon="1.96000998839736">
        <ele>1341.1800000000001</ele>
        <time>2025-05-15T07:12:55Z</time>
      </trkpt>
      <trkpt lat="42.483170963823795" lon="1.960135968402028">
        <ele>1342.6199999999999</ele>
        <time>2025-05-15T07:12:57Z</time>
      </trkpt>
      <trkpt lat="42.483233995735645" lon="1.960208974778652">
        <ele>1343.0999999999999</ele>
        <time>2025-05-15T07:12:58Z</time>
      </trkpt>
      <trkpt lat="42.483300967141986" lon="1.960287010297179">
        <ele>1343.5799999999999</ele>
        <time>2025-05-15T07:12:59Z</time>
      </trkpt>
      <trkpt lat="42.483367016538978" lon="1.960370996966958">
        <ele>1344.0599999999999</ele>
        <time>2025-05-15T07:13:00Z</time>
      </trkpt>
      <trkpt lat="42.483428036794066" lon="1.960455989465118">
        <ele>1344.0599999999999</ele>
        <time>2025-05-15T07:13:01Z</time>
      </trkpt>
      <trkpt lat="42.483548987656832" lon="1.96061298251152">
        <ele>1344.54</ele>
        <time>2025-05-15T07:13:03Z</time>
      </trkpt>
      <trkpt lat="42.484066989272833" lon="1.961295017972589">
        <ele>1345.5</ele>
        <time>2025-05-15T07:13:13Z</time>
      </trkpt>
      <trkpt lat="42.484735026955605" lon="1.962150977924466">
        <ele>1347.4300000000001</ele>
        <time>2025-05-15T07:13:25Z</time>
      </trkpt>
      <trkpt lat="42.485470036044717" lon="1.963100982829928">
        <ele>1348.3900000000001</ele>
        <time>2025-05-15T07:13:35Z</time>
      </trkpt>
      <trkpt lat="42.485933974385262" lon="1.963699031621218">
        <ele>1350.3099999999999</ele>
        <time>2025-05-15T07:13:41Z</time>
      </trkpt>
      <trkpt lat="42.486000023782253" lon="1.963784024119377">
        <ele>1351.27</ele>
        <time>2025-05-15T07:13:42Z</time>
      </trkpt>
      <trkpt lat="42.486365977674723" lon="1.964357011020184">
        <ele>1355.1199999999999</ele>
        <time>2025-05-15T07:13:48Z</time>
      </trkpt>
      <trkpt lat="42.486383998766541" lon="1.964482991024852">
        <ele>1355.5999999999999</ele>
        <time>2025-05-15T07:13:49Z</time>
      </trkpt>
      <trkpt lat="42.486383998766541" lon="1.964618023484945">
        <ele>1356.0799999999999</ele>
        <time>2025-05-15T07:13:50Z</time>
      </trkpt>
      <trkpt lat="42.486383998766541" lon="1.964750038459897">
        <ele>1356.0799999999999</ele>
        <time>2025-05-15T07:13:51Z</time>
      </trkpt>
      <trkpt lat="42.486339993774891" lon="1.964847017079592">
        <ele>1356.5599999999999</ele>
        <time>2025-05-15T07:13:52Z</time>
      </trkpt>
      <trkpt lat="42.486288025975227" lon="1.964960005134344">
        <ele>1357.04</ele>
        <time>2025-05-15T07:13:53Z</time>
      </trkpt>
      <trkpt lat="42.48623002320528" lon="1.965050026774406">
        <ele>1357.52</ele>
        <time>2025-05-15T07:13:54Z</time>
      </trkpt>
      <trkpt lat="42.486145030707121" lon="1.965118004009128">
        <ele>1358</ele>
        <time>2025-05-15T07:13:55Z</time>
      </trkpt>
      <trkpt lat="42.48605702072382" lon="1.96518799290061">
        <ele>1358</ele>
        <time>2025-05-15T07:13:56Z</time>
      </trkpt>
      <trkpt lat="42.485787961632013" lon="1.965418998152018">
        <ele>1357.52</ele>
        <time>2025-05-15T07:13:59Z</time>
      </trkpt>
      <trkpt lat="42.485698023810983" lon="1.965500973165035">
        <ele>1357.04</ele>
        <time>2025-05-15T07:14:00Z</time>
      </trkpt>
      <trkpt lat="42.485203994438052" lon="1.966110002249479">
        <ele>1356.5599999999999</ele>
        <time>2025-05-15T07:14:07Z</time>
      </trkpt>
      <trkpt lat="42.485140040516853" lon="1.966166999191046">
        <ele>1356.0799999999999</ele>
        <time>2025-05-15T07:14:08Z</time>
      </trkpt>
      <trkpt lat="42.48502797447145" lon="1.966216033324599">
        <ele>1356.0799999999999</ele>
        <time>2025-05-15T07:14:09Z</time>
      </trkpt>
      <trkpt lat="42.484930995851755" lon="1.966249980032444">
        <ele>1356.0799999999999</ele>
        <time>2025-05-15T07:14:10Z</time>
      </trkpt>
      <trkpt lat="42.484827982261777" lon="1.966230031102896">
        <ele>1356.0799999999999</ele>
        <time>2025-05-15T07:14:11Z</time>
      </trkpt>
      <trkpt lat="42.484720023348927" lon="1.966209998354316">
        <ele>1356.5599999999999</ele>
        <time>2025-05-15T07:14:12Z</time>
      </trkpt>
      <trkpt lat="42.484606029465795" lon="1.966188037768006">
        <ele>1357.04</ele>
        <time>2025-05-15T07:14:13Z</time>
      </trkpt>
      <trkpt lat="42.48448901809752" lon="1.966174961999059">
        <ele>1357.52</ele>
        <time>2025-05-15T07:14:14Z</time>
      </trkpt>
      <trkpt lat="42.484366977587342" lon="1.966178985312581">
        <ele>1358</ele>
        <time>2025-05-15T07:14:15Z</time>
      </trkpt>
      <trkpt lat="42.484239991754293" lon="1.96621703915298">
        <ele>1358.48</ele>
        <time>2025-05-15T07:14:16Z</time>
      </trkpt>
      <trkpt lat="42.484106970950961" lon="1.966256015002728">
        <ele>1358.96</ele>
        <time>2025-05-15T07:14:17Z</time>
      </trkpt>
      <trkpt lat="42.482868963852525" lon="1.966487020254135">
        <ele>1364.73</ele>
        <time>2025-05-15T07:14:26Z</time>
      </trkpt>
      <trkpt lat="42.482707025483251" lon="1.966522978618741">
        <ele>1365.21</ele>
        <time>2025-05-15T07:14:27Z</time>
      </trkpt>
      <trkpt lat="42.482542991638184" lon="1.966560026630759">
        <ele>1366.1700000000001</ele>
        <time>2025-05-15T07:14:28Z</time>
      </trkpt>
      <trkpt lat="42.482373006641865" lon="1.966554997488856">
        <ele>1366.6500000000001</ele>
        <time>2025-05-15T07:14:29Z</time>
      </trkpt>
      <trkpt lat="42.481434987857938" lon="1.966352993622422">
        <ele>1370.5</ele>
        <time>2025-05-15T07:14:34Z</time>
      </trkpt>
      <trkpt lat="42.481243964284658" lon="1.966257020831108">
        <ele>1371.46</ele>
        <time>2025-05-15T07:14:35Z</time>
      </trkpt>
      <trkpt lat="42.481066016480327" lon="1.966116959229112">
        <ele>1372.9000000000001</ele>
        <time>2025-05-15T07:14:36Z</time>
      </trkpt>
      <trkpt lat="42.480889996513724" lon="1.965973963961005">
        <ele>1374.3399999999999</ele>
        <time>2025-05-15T07:14:37Z</time>
      </trkpt>
      <trkpt lat="42.480725040659308" lon="1.965841026976705">
        <ele>1375.3</ele>
        <time>2025-05-15T07:14:38Z</time>
      </trkpt>
      <trkpt lat="42.480610040947795" lon="1.965680010616779">
        <ele>1376.26</ele>
        <time>2025-05-15T07:14:39Z</time>
      </trkpt>
      <trkpt lat="42.480521025136113" lon="1.965516982600093">
        <ele>1377.71</ele>
        <time>2025-05-15T07:14:40Z</time>
      </trkpt>
      <trkpt lat="42.480439972132444" lon="1.965369964018464">
        <ele>1378.6700000000001</ele>
        <time>2025-05-15T07:14:41Z</time>
      </trkpt>
      <trkpt lat="42.48036696575582" lon="1.965236021205783">
        <ele>1379.6300000000001</ele>
        <time>2025-05-15T07:14:42Z</time>
      </trkpt>
      <trkpt lat="42.480311980471015" lon="1.965137030929327">
        <ele>1380.5899999999999</ele>
        <time>2025-05-15T07:14:43Z</time>
      </trkpt>
      <trkpt lat="42.480221958830953" lon="1.965137030929327">
        <ele>1381.55</ele>
        <time>2025-05-15T07:14:44Z</time>
      </trkpt>
      <trkpt lat="42.480139983817935" lon="1.965137030929327">
        <ele>1382.03</ele>
        <time>2025-05-15T07:14:45Z</time>
      </trkpt>
      <trkpt lat="42.480079969391227" lon="1.965221017599106">
        <ele>1382.99</ele>
        <time>2025-05-15T07:14:46Z</time>
      </trkpt>
      <trkpt lat="42.480028001591563" lon="1.965335011482239">
        <ele>1383.96</ele>
        <time>2025-05-15T07:14:47Z</time>
      </trkpt>
      <trkpt lat="42.480010986328125" lon="1.965500973165035">
        <ele>1384.9200000000001</ele>
        <time>2025-05-15T07:14:48Z</time>
      </trkpt>
      <trkpt lat="42.480046022683382" lon="1.965685039758682">
        <ele>1385.8800000000001</ele>
        <time>2025-05-15T07:14:49Z</time>
      </trkpt>
      <trkpt lat="42.48008600436151" lon="1.965890983119607">
        <ele>1386.3599999999999</ele>
        <time>2025-05-15T07:14:50Z</time>
      </trkpt>
      <trkpt lat="42.480102013796568" lon="1.966127017512918">
        <ele>1387.3199999999999</ele>
        <time>2025-05-15T07:14:51Z</time>
      </trkpt>
      <trkpt lat="42.480106959119439" lon="1.966360034421086">
        <ele>1387.8</ele>
        <time>2025-05-15T07:14:52Z</time>
      </trkpt>
      <trkpt lat="42.480112994089723" lon="1.966591039672494">
        <ele>1388.76</ele>
        <time>2025-05-15T07:14:53Z</time>
      </trkpt>
      <trkpt lat="42.480123974382877" lon="1.96682003326714">
        <ele>1389.24</ele>
        <time>2025-05-15T07:14:54Z</time>
      </trkpt>
      <trkpt lat="42.480221958830953" lon="1.967021031305194">
        <ele>1390.2</ele>
        <time>2025-05-15T07:14:55Z</time>
      </trkpt>
      <trkpt lat="42.480327989906073" lon="1.967237032949925">
        <ele>1391.6500000000001</ele>
        <time>2025-05-15T07:14:56Z</time>
      </trkpt>
      <trkpt lat="42.480441983789206" lon="1.967468038201332">
        <ele>1392.1300000000001</ele>
        <time>2025-05-15T07:14:57Z</time>
      </trkpt>
      <trkpt lat="42.481499025598168" lon="1.969373999163508">
        <ele>1401.26</ele>
        <time>2025-05-15T07:15:05Z</time>
      </trkpt>
      <trkpt lat="42.481662975624204" lon="1.969515988603234">
        <ele>1402.7</ele>
        <time>2025-05-15T07:15:06Z</time>
      </trkpt>
      <trkpt lat="42.482203021645546" lon="1.969873979687691">
        <ele>1405.0999999999999</ele>
        <time>2025-05-15T07:15:09Z</time>
      </trkpt>
      <trkpt lat="42.483358969911933" lon="1.970930015668273">
        <ele>1412.79</ele>
        <time>2025-05-15T07:15:16Z</time>
      </trkpt>
      <trkpt lat="42.483530966565013" lon="1.970982989296317">
        <ele>1414.24</ele>
        <time>2025-05-15T07:15:17Z</time>
      </trkpt>
      <trkpt lat="42.483697012066841" lon="1.971005033701658">
        <ele>1415.2</ele>
        <time>2025-05-15T07:15:18Z</time>
      </trkpt>
      <trkpt lat="42.483869008719921" lon="1.970973014831543">
        <ele>1416.1600000000001</ele>
        <time>2025-05-15T07:15:19Z</time>
      </trkpt>
      <trkpt lat="42.484046034514904" lon="1.970921969041228">
        <ele>1417.1199999999999</ele>
        <time>2025-05-15T07:15:20Z</time>
      </trkpt>
      <trkpt lat="42.484229011461139" lon="1.97083898819983">
        <ele>1418.5599999999999</ele>
        <time>2025-05-15T07:15:21Z</time>
      </trkpt>
      <trkpt lat="42.485945038497448" lon="1.969878003001213">
        <ele>1431.0599999999999</ele>
        <time>2025-05-15T07:15:30Z</time>
      </trkpt>
      <trkpt lat="42.486112006008625" lon="1.969761997461319">
        <ele>1432.5</ele>
        <time>2025-05-15T07:15:31Z</time>
      </trkpt>
      <trkpt lat="42.486300012096763" lon="1.969682034105063">
        <ele>1433.9400000000001</ele>
        <time>2025-05-15T07:15:32Z</time>
      </trkpt>
      <trkpt lat="42.486869981512427" lon="1.969583965837956">
        <ele>1437.79</ele>
        <time>2025-05-15T07:15:35Z</time>
      </trkpt>
      <trkpt lat="42.487042983993888" lon="1.969622019678354">
        <ele>1439.23</ele>
        <time>2025-05-15T07:15:36Z</time>
      </trkpt>
      <trkpt lat="42.487196959555149" lon="1.969689996913075">
        <ele>1440.6700000000001</ele>
        <time>2025-05-15T07:15:37Z</time>
      </trkpt>
      <trkpt lat="42.48732503503561" lon="1.96978596970439">
        <ele>1441.6300000000001</ele>
        <time>2025-05-15T07:15:38Z</time>
      </trkpt>
      <trkpt lat="42.487426958978176" lon="1.969932988286018">
        <ele>1443.0799999999999</ele>
        <time>2025-05-15T07:15:39Z</time>
      </trkpt>
      <trkpt lat="42.487524021416903" lon="1.97008696384728">
        <ele>1444.52</ele>
        <time>2025-05-15T07:15:40Z</time>
      </trkpt>
      <trkpt lat="42.487556962296367" lon="1.9703000318259">
        <ele>1445.96</ele>
        <time>2025-05-15T07:15:41Z</time>
      </trkpt>
      <trkpt lat="42.487591998651624" lon="1.970527013763785">
        <ele>1447.4000000000001</ele>
        <time>2025-05-15T07:15:42Z</time>
      </trkpt>
      <trkpt lat="42.487628040835261" lon="1.970762964338064">
        <ele>1448.8399999999999</ele>
        <time>2025-05-15T07:15:43Z</time>
      </trkpt>
      <trkpt lat="42.488115029409528" lon="1.972574964165688">
        <ele>1458.46</ele>
        <time>2025-05-15T07:15:50Z</time>
      </trkpt>
      <trkpt lat="42.488639988005161" lon="1.973885977640748">
        <ele>1465.6700000000001</ele>
        <time>2025-05-15T07:15:55Z</time>
      </trkpt>
      <trkpt lat="42.488706037402153" lon="1.974171968176961">
        <ele>1467.1099999999999</ele>
        <time>2025-05-15T07:15:56Z</time>
      </trkpt>
      <trkpt lat="42.488739984109998" lon="1.974456030875444">
        <ele>1468.0699999999999</ele>
        <time>2025-05-15T07:15:57Z</time>
      </trkpt>
      <trkpt lat="42.488727997988462" lon="1.974724000319839">
        <ele>1469.51</ele>
        <time>2025-05-15T07:15:58Z</time>
      </trkpt>
      <trkpt lat="42.488696984946728" lon="1.974990963935852">
        <ele>1470.95</ele>
        <time>2025-05-15T07:15:59Z</time>
      </trkpt>
      <trkpt lat="42.4886570032686" lon="1.975255999714136">
        <ele>1472.4000000000001</ele>
        <time>2025-05-15T07:16:00Z</time>
      </trkpt>
      <trkpt lat="42.488556001335382" lon="1.975924037396908">
        <ele>1475.76</ele>
        <time>2025-05-15T07:16:03Z</time>
      </trkpt>
      <trkpt lat="42.488580979406834" lon="1.97608295828104">
        <ele>1476.72</ele>
        <time>2025-05-15T07:16:04Z</time>
      </trkpt>
      <trkpt lat="42.488633031025529" lon="1.976182032376528">
        <ele>1477.6800000000001</ele>
        <time>2025-05-15T07:16:05Z</time>
      </trkpt>
      <trkpt lat="42.488702014088631" lon="1.976226959377527">
        <ele>1478.1600000000001</ele>
        <time>2025-05-15T07:16:06Z</time>
      </trkpt>
      <trkpt lat="42.488776026293635" lon="1.976216984912753">
        <ele>1478.6500000000001</ele>
        <time>2025-05-15T07:16:07Z</time>
      </trkpt>
      <trkpt lat="42.488847021013498" lon="1.976175997406244">
        <ele>1479.1300000000001</ele>
        <time>2025-05-15T07:16:08Z</time>
      </trkpt>
      <trkpt lat="42.488898988813162" lon="1.976072983816266">
        <ele>1479.6099999999999</ele>
        <time>2025-05-15T07:16:09Z</time>
      </trkpt>
      <trkpt lat="42.488939976319671" lon="1.975958989933133">
        <ele>1480.5699999999999</ele>
        <time>2025-05-15T07:16:10Z</time>
      </trkpt>
      <trkpt lat="42.488950034603477" lon="1.975807026028633">
        <ele>1481.53</ele>
        <time>2025-05-15T07:16:11Z</time>
      </trkpt>
      <trkpt lat="42.488961014896631" lon="1.975640980526805">
        <ele>1482.49</ele>
        <time>2025-05-15T07:16:12Z</time>
      </trkpt>
      <trkpt lat="42.488973001018167" lon="1.975464038550854">
        <ele>1483.45</ele>
        <time>2025-05-15T07:16:13Z</time>
      </trkpt>
      <trkpt lat="42.489011976867914" lon="1.975288018584251">
        <ele>1483.9300000000001</ele>
        <time>2025-05-15T07:16:14Z</time>
      </trkpt>
      <trkpt lat="42.489092024043202" lon="1.975127002224326">
        <ele>1484.4100000000001</ele>
        <time>2025-05-15T07:16:15Z</time>
      </trkpt>
      <trkpt lat="42.489201994612813" lon="1.974993981420994">
        <ele>1485.3699999999999</ele>
        <time>2025-05-15T07:16:16Z</time>
      </trkpt>
      <trkpt lat="42.489342978224158" lon="1.974881999194622">
        <ele>1486.3399999999999</ele>
        <time>2025-05-15T07:16:17Z</time>
      </trkpt>
      <trkpt lat="42.489492008462548" lon="1.974762976169586">
        <ele>1486.8199999999999</ele>
        <time>2025-05-15T07:16:18Z</time>
      </trkpt>
      <trkpt lat="42.489644978195429" lon="1.974642025306821">
        <ele>1487.78</ele>
        <time>2025-05-15T07:16:19Z</time>
      </trkpt>
      <trkpt lat="42.489797025918961" lon="1.974520990625024">
        <ele>1489.22</ele>
        <time>2025-05-15T07:16:20Z</time>
      </trkpt>
      <trkpt lat="42.489938009530306" lon="1.974373972043395">
        <ele>1490.1800000000001</ele>
        <time>2025-05-15T07:16:21Z</time>
      </trkpt>
      <trkpt lat="42.490058960393071" lon="1.97419099509716">
        <ele>1491.6199999999999</ele>
        <time>2025-05-15T07:16:22Z</time>
      </trkpt>
      <trkpt lat="42.490144036710262" lon="1.973983040079474">
        <ele>1492.5799999999999</ele>
        <time>2025-05-15T07:16:23Z</time>
      </trkpt>
      <trkpt lat="42.490225005894899" lon="1.97378296405077">
        <ele>1494.03</ele>
        <time>2025-05-15T07:16:24Z</time>
      </trkpt>
      <trkpt lat="42.490325001999736" lon="1.973604010418057">
        <ele>1494.99</ele>
        <time>2025-05-15T07:16:25Z</time>
      </trkpt>
      <trkpt lat="42.490445030853152" lon="1.973451040685177">
        <ele>1495.95</ele>
        <time>2025-05-15T07:16:26Z</time>
      </trkpt>
      <trkpt lat="42.490584002807736" lon="1.973327994346619">
        <ele>1496.9100000000001</ele>
        <time>2025-05-15T07:16:27Z</time>
      </trkpt>
      <trkpt lat="42.490732027217746" lon="1.973236966878176">
        <ele>1497.8699999999999</ele>
        <time>2025-05-15T07:16:28Z</time>
      </trkpt>
      <trkpt lat="42.49089103192091" lon="1.973139988258481">
        <ele>1498.8299999999999</ele>
        <time>2025-05-15T07:16:29Z</time>
      </trkpt>
      <trkpt lat="42.491027992218733" lon="1.973169995471835">
        <ele>1499.79</ele>
        <time>2025-05-15T07:16:30Z</time>
      </trkpt>
      <trkpt lat="42.491191020235419" lon="1.973205031827092">
        <ele>1500.76</ele>
        <time>2025-05-15T07:16:31Z</time>
      </trkpt>
      <trkpt lat="42.491337032988667" lon="1.973289018496871">
        <ele>1502.2</ele>
        <time>2025-05-15T07:16:32Z</time>
      </trkpt>
      <trkpt lat="42.491479022428393" lon="1.973370993509889">
        <ele>1503.1600000000001</ele>
        <time>2025-05-15T07:16:33Z</time>
      </trkpt>
      <trkpt lat="42.491598967462778" lon="1.973440982401371">
        <ele>1504.5999999999999</ele>
        <time>2025-05-15T07:16:34Z</time>
      </trkpt>
      <trkpt lat="42.491749003529549" lon="1.973398989066482">
        <ele>1505.5599999999999</ele>
        <time>2025-05-15T07:16:35Z</time>
      </trkpt>
      <trkpt lat="42.491895016282797" lon="1.973356995731592">
        <ele>1507</ele>
        <time>2025-05-15T07:16:36Z</time>
      </trkpt>
      <trkpt lat="42.492041029036045" lon="1.973316008225083">
        <ele>1507.97</ele>
        <time>2025-05-15T07:16:37Z</time>
      </trkpt>
      <trkpt lat="42.492177989333868" lon="1.973278038203716">
        <ele>1508.9300000000001</ele>
        <time>2025-05-15T07:16:38Z</time>
      </trkpt>
      <trkpt lat="42.492315033450723" lon="1.973255993798375">
        <ele>1509.8900000000001</ele>
        <time>2025-05-15T07:16:39Z</time>
      </trkpt>
      <trkpt lat="42.492457022890449" lon="1.973315002396703">
        <ele>1510.8499999999999</ele>
        <time>2025-05-15T07:16:40Z</time>
      </trkpt>
      <trkpt lat="42.492564981803298" lon="1.973437964916229">
        <ele>1511.3299999999999</ele>
        <time>2025-05-15T07:16:41Z</time>
      </trkpt>
      <trkpt lat="42.492643017321825" lon="1.973606022074819">
        <ele>1512.29</ele>
        <time>2025-05-15T07:16:42Z</time>
      </trkpt>
      <trkpt lat="42.492692973464727" lon="1.973800985142589">
        <ele>1513.25</ele>
        <time>2025-05-15T07:16:43Z</time>
      </trkpt>
      <trkpt lat="42.492731027305126" lon="1.974012963473797">
        <ele>1514.21</ele>
        <time>2025-05-15T07:16:44Z</time>
      </trkpt>
      <trkpt lat="42.492732033133507" lon="1.974248997867107">
        <ele>1515.1800000000001</ele>
        <time>2025-05-15T07:16:45Z</time>
      </trkpt>
      <trkpt lat="42.492728009819984" lon="1.974494000896812">
        <ele>1516.1400000000001</ele>
        <time>2025-05-15T07:16:46Z</time>
      </trkpt>
      <trkpt lat="42.492767991498113" lon="1.975811971351504">
        <ele>1521.4200000000001</ele>
        <time>2025-05-15T07:16:51Z</time>
      </trkpt>
      <trkpt lat="42.492811996489763" lon="1.976070972159505">
        <ele>1522.3900000000001</ele>
        <time>2025-05-15T07:16:52Z</time>
      </trkpt>
      <trkpt lat="42.492872010916471" lon="1.976327039301395">
        <ele>1523.3499999999999</ele>
        <time>2025-05-15T07:16:53Z</time>
      </trkpt>
      <trkpt lat="42.493030009791255" lon="1.976796006783843">
        <ele>1524.79</ele>
        <time>2025-05-15T07:16:55Z</time>
      </trkpt>
      <trkpt lat="42.493120031431317" lon="1.976993987336755">
        <ele>1525.27</ele>
        <time>2025-05-15T07:16:56Z</time>
      </trkpt>
      <trkpt lat="42.493240982294083" lon="1.97713396511972">
        <ele>1525.75</ele>
        <time>2025-05-15T07:16:57Z</time>
      </trkpt>
      <trkpt lat="42.493380038067698" lon="1.97726002894342">
        <ele>1525.75</ele>
        <time>2025-05-15T07:16:58Z</time>
      </trkpt>
      <trkpt lat="42.493530996143818" lon="1.977319959551096">
        <ele>1526.23</ele>
        <time>2025-05-15T07:16:59Z</time>
      </trkpt>
      <trkpt lat="42.493687989190221" lon="1.977362958714366">
        <ele>1526.71</ele>
        <time>2025-05-15T07:17:00Z</time>
      </trkpt>
      <trkpt lat="42.493829978629947" lon="1.977389026433229">
        <ele>1526.71</ele>
        <time>2025-05-15T07:17:01Z</time>
      </trkpt>
      <trkpt lat="42.493980014696717" lon="1.977319959551096">
        <ele>1527.1900000000001</ele>
        <time>2025-05-15T07:17:02Z</time>
      </trkpt>
      <trkpt lat="42.494119992479682" lon="1.977247036993504">
        <ele>1527.6700000000001</ele>
        <time>2025-05-15T07:17:03Z</time>
      </trkpt>
      <trkpt lat="42.494239015504718" lon="1.977104963734746">
        <ele>1528.1500000000001</ele>
        <time>2025-05-15T07:17:04Z</time>
      </trkpt>
      <trkpt lat="42.494362983852625" lon="1.976956017315388">
        <ele>1528.6300000000001</ele>
        <time>2025-05-15T07:17:05Z</time>
      </trkpt>
      <trkpt lat="42.49450396746397" lon="1.976821990683675">
        <ele>1529.5899999999999</ele>
        <time>2025-05-15T07:17:06Z</time>
      </trkpt>
      <trkpt lat="42.494660038501024" lon="1.976710008457303">
        <ele>1530.5599999999999</ele>
        <time>2025-05-15T07:17:07Z</time>
      </trkpt>
      <trkpt lat="42.494799010455608" lon="1.976557038724423">
        <ele>1531.52</ele>
        <time>2025-05-15T07:17:08Z</time>
      </trkpt>
      <trkpt lat="42.494922978803515" lon="1.976370960474014">
        <ele>1532.96</ele>
        <time>2025-05-15T07:17:09Z</time>
      </trkpt>
      <trkpt lat="42.495049964636564" lon="1.976182032376528">
        <ele>1534.4000000000001</ele>
        <time>2025-05-15T07:17:10Z</time>
      </trkpt>
      <trkpt lat="42.495500994846225" lon="1.975665958598256">
        <ele>1538.73</ele>
        <time>2025-05-15T07:17:14Z</time>
      </trkpt>
      <trkpt lat="42.495595039799809" lon="1.975624971091747">
        <ele>1539.21</ele>
        <time>2025-05-15T07:17:15Z</time>
      </trkpt>
      <trkpt lat="42.495670979842544" lon="1.975639974698424">
        <ele>1539.6900000000001</ele>
        <time>2025-05-15T07:17:16Z</time>
      </trkpt>
      <trkpt lat="42.495739962905645" lon="1.975697977468371">
        <ele>1540.6500000000001</ele>
        <time>2025-05-15T07:17:17Z</time>
      </trkpt>
      <trkpt lat="42.495769970118999" lon="1.975814988836646">
        <ele>1541.1300000000001</ele>
        <time>2025-05-15T07:17:18Z</time>
      </trkpt>
      <trkpt lat="42.495778016746044" lon="1.975979022681713">
        <ele>1541.6099999999999</ele>
        <time>2025-05-15T07:17:19Z</time>
      </trkpt>
      <trkpt lat="42.49570501036942" lon="1.976069966331124">
        <ele>1542.0899999999999</ele>
        <time>2025-05-15T07:17:20Z</time>
      </trkpt>
      <trkpt lat="42.495615994557738" lon="1.976181026548147">
        <ele>1542.5699999999999</ele>
        <time>2025-05-15T07:17:21Z</time>
      </trkpt>
      <trkpt lat="42.495513986796141" lon="1.976308012381196">
        <ele>1543.05</ele>
        <time>2025-05-15T07:17:22Z</time>
      </trkpt>
      <trkpt lat="42.495406027883291" lon="1.976442961022258">
        <ele>1543.05</ele>
        <time>2025-05-15T07:17:23Z</time>
      </trkpt>
      <trkpt lat="42.495331009849906" lon="1.976603977382183">
        <ele>1543.53</ele>
        <time>2025-05-15T07:17:24Z</time>
      </trkpt>
      <trkpt lat="42.495282981544733" lon="1.976801035925746">
        <ele>1543.53</ele>
        <time>2025-05-15T07:17:25Z</time>
      </trkpt>
      <trkpt lat="42.49523201957345" lon="1.977012008428574">
        <ele>1543.53</ele>
        <time>2025-05-15T07:17:26Z</time>
      </trkpt>
      <trkpt lat="42.495204024016857" lon="1.97724100202322">
        <ele>1544.01</ele>
        <time>2025-05-15T07:17:27Z</time>
      </trkpt>
      <trkpt lat="42.495204024016857" lon="1.977492040023208">
        <ele>1544.01</ele>
        <time>2025-05-15T07:17:28Z</time>
      </trkpt>
      <trkpt lat="42.495204024016857" lon="1.978823002427816">
        <ele>1544.98</ele>
        <time>2025-05-15T07:17:33Z</time>
      </trkpt>
      <trkpt lat="42.495251968502998" lon="1.979041015729308">
        <ele>1545.46</ele>
        <time>2025-05-15T07:17:34Z</time>
      </trkpt>
      <trkpt lat="42.495328998193145" lon="1.979213012382388">
        <ele>1545.9400000000001</ele>
        <time>2025-05-15T07:17:35Z</time>
      </trkpt>
      <trkpt lat="42.495411979034543" lon="1.979387020692229">
        <ele>1546.4200000000001</ele>
        <time>2025-05-15T07:17:36Z</time>
      </trkpt>
      <trkpt lat="42.495508035644889" lon="1.979537978768349">
        <ele>1546.4200000000001</ele>
        <time>2025-05-15T07:17:37Z</time>
      </trkpt>
      <trkpt lat="42.495566038414836" lon="1.979707041755319">
        <ele>1546.9000000000001</ele>
        <time>2025-05-15T07:17:38Z</time>
      </trkpt>
      <trkpt lat="42.495600990951061" lon="1.97990502230823">
        <ele>1546.9000000000001</ele>
        <time>2025-05-15T07:17:39Z</time>
      </trkpt>
      <trkpt lat="42.495575007051229" lon="1.980109959840775">
        <ele>1547.3800000000001</ele>
        <time>2025-05-15T07:17:40Z</time>
      </trkpt>
      <trkpt lat="42.495520021766424" lon="1.980319004505873">
        <ele>1547.8599999999999</ele>
        <time>2025-05-15T07:17:41Z</time>
      </trkpt>
      <trkpt lat="42.49542698264122" lon="1.980503993108869">
        <ele>1548.3399999999999</ele>
        <time>2025-05-15T07:17:42Z</time>
      </trkpt>
      <trkpt lat="42.495332015678287" lon="1.980694010853767">
        <ele>1548.8199999999999</ele>
        <time>2025-05-15T07:17:43Z</time>
      </trkpt>
      <trkpt lat="42.495242999866605" lon="1.980882016941905">
        <ele>1549.3</ele>
        <time>2025-05-15T07:17:44Z</time>
      </trkpt>
      <trkpt lat="42.495197989046574" lon="1.981076980009675">
        <ele>1549.78</ele>
        <time>2025-05-15T07:17:45Z</time>
      </trkpt>
      <trkpt lat="42.495205029845238" lon="1.981277978047729">
        <ele>1550.74</ele>
        <time>2025-05-15T07:17:46Z</time>
      </trkpt>
      <trkpt lat="42.495240988209844" lon="1.981486016884446">
        <ele>1551.71</ele>
        <time>2025-05-15T07:17:47Z</time>
      </trkpt>
      <trkpt lat="42.495279964059591" lon="1.981707969680429">
        <ele>1552.6700000000001</ele>
        <time>2025-05-15T07:17:48Z</time>
      </trkpt>
      <trkpt lat="42.495321035385132" lon="1.981941992416978">
        <ele>1553.1500000000001</ele>
        <time>2025-05-15T07:17:49Z</time>
      </trkpt>
      <trkpt lat="42.495351964607835" lon="1.98218003846705">
        <ele>1554.1099999999999</ele>
        <time>2025-05-15T07:17:50Z</time>
      </trkpt>
      <trkpt lat="42.49534098431468" lon="1.982430992648006">
        <ele>1555.0699999999999</ele>
        <time>2025-05-15T07:17:51Z</time>
      </trkpt>
      <trkpt lat="42.495325980708003" lon="1.982687981799245">
        <ele>1555.55</ele>
        <time>2025-05-15T07:17:52Z</time>
      </trkpt>
      <trkpt lat="42.495283987373114" lon="1.982946982607245">
        <ele>1556.51</ele>
        <time>2025-05-15T07:17:53Z</time>
      </trkpt>
      <trkpt lat="42.495195977389812" lon="1.983881983906031">
        <ele>1558.9200000000001</ele>
        <time>2025-05-15T07:17:57Z</time>
      </trkpt>
      <trkpt lat="42.495213998481631" lon="1.984089016914368">
        <ele>1559.8800000000001</ele>
        <time>2025-05-15T07:17:58Z</time>
      </trkpt>
      <trkpt lat="42.495252974331379" lon="1.984274005517364">
        <ele>1559.8800000000001</ele>
        <time>2025-05-15T07:17:59Z</time>
      </trkpt>
      <trkpt lat="42.495289016515017" lon="1.984448013827205">
        <ele>1560.3599999999999</ele>
        <time>2025-05-15T07:18:00Z</time>
      </trkpt>
      <trkpt lat="42.495350036770105" lon="1.984614981338382">
        <ele>1560.8399999999999</ele>
        <time>2025-05-15T07:18:01Z</time>
      </trkpt>
      <trkpt lat="42.495408039540052" lon="1.984775997698307">
        <ele>1561.3199999999999</ele>
        <time>2025-05-15T07:18:02Z</time>
      </trkpt>
      <trkpt lat="42.49546998180449" lon="1.984937014058232">
        <ele>1561.3199999999999</ele>
        <time>2025-05-15T07:18:03Z</time>
      </trkpt>
      <trkpt lat="42.495546005666256" lon="1.985079003497958">
        <ele>1561.8</ele>
        <time>2025-05-15T07:18:04Z</time>
      </trkpt>
      <trkpt lat="42.496313033625484" lon="1.986175021156669">
        <ele>1565.6400000000001</ele>
        <time>2025-05-15T07:18:13Z</time>
      </trkpt>
      <trkpt lat="42.496526017785072" lon="1.986558996140957">
        <ele>1567.5699999999999</ele>
        <time>2025-05-15T07:18:16Z</time>
      </trkpt>
      <trkpt lat="42.496558036655188" lon="1.986730992794037">
        <ele>1568.05</ele>
        <time>2025-05-15T07:18:17Z</time>
      </trkpt>
      <trkpt lat="42.496582008898258" lon="1.986895026639104">
        <ele>1568.53</ele>
        <time>2025-05-15T07:18:18Z</time>
      </trkpt>
      <trkpt lat="42.496601035818458" lon="1.987062999978662">
        <ele>1569.01</ele>
        <time>2025-05-15T07:18:19Z</time>
      </trkpt>
      <trkpt lat="42.496606986969709" lon="1.987222004681826">
        <ele>1569.97</ele>
        <time>2025-05-15T07:18:20Z</time>
      </trkpt>
      <trkpt lat="42.496613021939993" lon="1.98738201521337">
        <ele>1570.45</ele>
        <time>2025-05-15T07:18:21Z</time>
      </trkpt>
      <trkpt lat="42.496619978919625" lon="1.987559963017702">
        <ele>1571.4100000000001</ele>
        <time>2025-05-15T07:18:22Z</time>
      </trkpt>
      <trkpt lat="42.496654009446502" lon="1.98770203627646">
        <ele>1571.8900000000001</ele>
        <time>2025-05-15T07:18:23Z</time>
      </trkpt>
      <trkpt lat="42.496860036626458" lon="1.988808028399944">
        <ele>1574.78</ele>
        <time>2025-05-15T07:18:30Z</time>
      </trkpt>
      <trkpt lat="42.496879985556006" lon="1.988962003961206">
        <ele>1575.26</ele>
        <time>2025-05-15T07:18:31Z</time>
      </trkpt>
      <trkpt lat="42.496987022459507" lon="1.989569021388888">
        <ele>1577.6600000000001</ele>
        <time>2025-05-15T07:18:35Z</time>
      </trkpt>
      <trkpt lat="42.497041001915932" lon="1.989715034142137">
        <ele>1579.0999999999999</ele>
        <time>2025-05-15T07:18:36Z</time>
      </trkpt>
      <trkpt lat="42.49759403988719" lon="1.990985982120037">
        <ele>1586.79</ele>
        <time>2025-05-15T07:18:45Z</time>
      </trkpt>
      <trkpt lat="42.497607031837106" lon="1.99118597432971">
        <ele>1587.27</ele>
        <time>2025-05-15T07:18:46Z</time>
      </trkpt>
      <trkpt lat="42.497627986595035" lon="1.99127197265625">
        <ele>1587.75</ele>
        <time>2025-05-15T07:18:47Z</time>
      </trkpt>
      <trkpt lat="42.497786991298199" lon="1.991414967924357">
        <ele>1588.24</ele>
        <time>2025-05-15T07:18:48Z</time>
      </trkpt>
      <trkpt lat="42.49783300794661" lon="1.991566009819508">
        <ele>1588.72</ele>
        <time>2025-05-15T07:18:49Z</time>
      </trkpt>
      <trkpt lat="42.498211031779647" lon="1.992823965847492">
        <ele>1590.1600000000001</ele>
        <time>2025-05-15T07:18:57Z</time>
      </trkpt>
      <trkpt lat="42.498512025922537" lon="1.993823004886508">
        <ele>1594</ele>
        <time>2025-05-15T07:19:05Z</time>
      </trkpt>
      <trkpt lat="42.498630965128541" lon="1.994216032326222">
        <ele>1595.45</ele>
        <time>2025-05-15T07:19:09Z</time>
      </trkpt>
      <trkpt lat="42.498659966513515" lon="1.994312005117536">
        <ele>1595.45</ele>
        <time>2025-05-15T07:19:10Z</time>
      </trkpt>
      <trkpt lat="42.498878985643387" lon="1.995090013369918">
        <ele>1594.48</ele>
        <time>2025-05-15T07:19:18Z</time>
      </trkpt>
      <trkpt lat="42.498918967321515" lon="1.995286988094449">
        <ele>1594.48</ele>
        <time>2025-05-15T07:19:20Z</time>
      </trkpt>
      <trkpt lat="42.498941011726856" lon="1.995391007512808">
        <ele>1594</ele>
        <time>2025-05-15T07:19:21Z</time>
      </trkpt>
      <trkpt lat="42.499132035300136" lon="1.996619962155819">
        <ele>1595.45</ele>
        <time>2025-05-15T07:19:33Z</time>
      </trkpt>
      <trkpt lat="42.499173022806644" lon="1.997373998165131">
        <ele>1597.8499999999999</ele>
        <time>2025-05-15T07:19:41Z</time>
      </trkpt>
      <trkpt lat="42.499173022806644" lon="1.997464019805193">
        <ele>1597.8499999999999</ele>
        <time>2025-05-15T07:19:42Z</time>
      </trkpt>
      <trkpt lat="42.499170005321503" lon="1.997962994500995">
        <ele>1597.8499999999999</ele>
        <time>2025-05-15T07:19:47Z</time>
      </trkpt>
      <trkpt lat="42.499149972572923" lon="1.998074976727366">
        <ele>1597.8499999999999</ele>
        <time>2025-05-15T07:19:48Z</time>
      </trkpt>
      <trkpt lat="42.499128011986613" lon="1.998199028894305">
        <ele>1597.8499999999999</ele>
        <time>2025-05-15T07:19:49Z</time>
      </trkpt>
      <trkpt lat="42.499096998944879" lon="1.998336995020509">
        <ele>1597.8499999999999</ele>
        <time>2025-05-15T07:19:50Z</time>
      </trkpt>
      <trkpt lat="42.499038996174932" lon="1.998463980853558">
        <ele>1597.8499999999999</ele>
        <time>2025-05-15T07:19:51Z</time>
      </trkpt>
      <trkpt lat="42.498981999233365" lon="1.998589038848877">
        <ele>1597.8499999999999</ele>
        <time>2025-05-15T07:19:52Z</time>
      </trkpt>
      <trkpt lat="42.498629037290812" lon="1.999297980219126">
        <ele>1598.8099999999999</ele>
        <time>2025-05-15T07:19:59Z</time>
      </trkpt>
      <trkpt lat="42.498273979872465" lon="1.999846994876862">
        <ele>1598.8099999999999</ele>
        <time>2025-05-15T07:20:05Z</time>
      </trkpt>
      <trkpt lat="42.498217988759279" lon="1.999949002638459">
        <ele>1598.8099999999999</ele>
        <time>2025-05-15T07:20:06Z</time>
      </trkpt>
      <trkpt lat="42.498170966282487" lon="2.000050004571676">
        <ele>1599.29</ele>
        <time>2025-05-15T07:20:07Z</time>
      </trkpt>
      <trkpt lat="42.49813299626112" lon="2.00016500428319">
        <ele>1599.29</ele>
        <time>2025-05-15T07:20:08Z</time>
      </trkpt>
      <trkpt lat="42.498096032068133" lon="2.000283021479845">
        <ele>1599.77</ele>
        <time>2025-05-15T07:20:09Z</time>
      </trkpt>
      <trkpt lat="42.497982960194349" lon="2.00081099756062">
        <ele>1600.73</ele>
        <time>2025-05-15T07:20:13Z</time>
      </trkpt>
      <trkpt lat="42.497993018478155" lon="2.000954998657107">
        <ele>1601.21</ele>
        <time>2025-05-15T07:20:14Z</time>
      </trkpt>
      <trkpt lat="42.498026965186" lon="2.001097993925214">
        <ele>1601.6900000000001</ele>
        <time>2025-05-15T07:20:15Z</time>
      </trkpt>
      <trkpt lat="42.498117992654443" lon="2.001421032473445">
        <ele>1603.1400000000001</ele>
        <time>2025-05-15T07:20:17Z</time>
      </trkpt>
      <trkpt lat="42.498172977939248" lon="2.001595962792635">
        <ele>1603.6199999999999</ele>
        <time>2025-05-15T07:20:18Z</time>
      </trkpt>
      <trkpt lat="42.498413035646081" lon="2.003229008987546">
        <ele>1608.4200000000001</ele>
        <time>2025-05-15T07:20:25Z</time>
      </trkpt>
      <trkpt lat="42.498616967350245" lon="2.003949014469981">
        <ele>1611.3099999999999</ele>
        <time>2025-05-15T07:20:28Z</time>
      </trkpt>
      <trkpt lat="42.498701037839055" lon="2.004103995859623">
        <ele>1612.75</ele>
        <time>2025-05-15T07:20:29Z</time>
      </trkpt>
      <trkpt lat="42.498846966773272" lon="2.004264006391168">
        <ele>1613.23</ele>
        <time>2025-05-15T07:20:30Z</time>
      </trkpt>
      <trkpt lat="42.498986022546887" lon="2.004416976124048">
        <ele>1613.71</ele>
        <time>2025-05-15T07:20:31Z</time>
      </trkpt>
      <trkpt lat="42.499137986451387" lon="2.004584027454257">
        <ele>1613.71</ele>
        <time>2025-05-15T07:20:32Z</time>
      </trkpt>
      <trkpt lat="42.499301014468074" lon="2.004762981086969">
        <ele>1613.71</ele>
        <time>2025-05-15T07:20:33Z</time>
      </trkpt>
      <trkpt lat="42.499441998079419" lon="2.004989041015506">
        <ele>1613.23</ele>
        <time>2025-05-15T07:20:34Z</time>
      </trkpt>
      <trkpt lat="42.499578036367893" lon="2.005235971882939">
        <ele>1612.75</ele>
        <time>2025-05-15T07:20:35Z</time>
      </trkpt>
      <trkpt lat="42.499714996665716" lon="2.005495978519321">
        <ele>1612.27</ele>
        <time>2025-05-15T07:20:36Z</time>
      </trkpt>
      <trkpt lat="42.499806024134159" lon="2.005796972662211">
        <ele>1611.3099999999999</ele>
        <time>2025-05-15T07:20:37Z</time>
      </trkpt>
      <trkpt lat="42.499875007197261" lon="2.006107019260526">
        <ele>1610.8299999999999</ele>
        <time>2025-05-15T07:20:38Z</time>
      </trkpt>
      <trkpt lat="42.499930998310447" lon="2.006416982039809">
        <ele>1609.8599999999999</ele>
        <time>2025-05-15T07:20:39Z</time>
      </trkpt>
      <trkpt lat="42.500310027971864" lon="2.008611029013991">
        <ele>1606.02</ele>
        <time>2025-05-15T07:20:47Z</time>
      </trkpt>
      <trkpt lat="42.500306004658341" lon="2.008869023993611">
        <ele>1606.02</ele>
        <time>2025-05-15T07:20:48Z</time>
      </trkpt>
      <trkpt lat="42.500300975516438" lon="2.009130036458373">
        <ele>1606.02</ele>
        <time>2025-05-15T07:20:49Z</time>
      </trkpt>
      <trkpt lat="42.500308016315103" lon="2.010080041363835">
        <ele>1607.9400000000001</ele>
        <time>2025-05-15T07:20:53Z</time>
      </trkpt>
      <trkpt lat="42.500363001599908" lon="2.010268969461322">
        <ele>1608.4200000000001</ele>
        <time>2025-05-15T07:20:54Z</time>
      </trkpt>
      <trkpt lat="42.500440031290054" lon="2.010452030226588">
        <ele>1608.9000000000001</ele>
        <time>2025-05-15T07:20:55Z</time>
      </trkpt>
      <trkpt lat="42.500532986596227" lon="2.010626960545778">
        <ele>1609.3800000000001</ele>
        <time>2025-05-15T07:20:56Z</time>
      </trkpt>
      <trkpt lat="42.500623008236289" lon="2.010797029361129">
        <ele>1610.3499999999999</ele>
        <time>2025-05-15T07:20:57Z</time>
      </trkpt>
      <trkpt lat="42.500706994906068" lon="2.010954022407532">
        <ele>1610.8299999999999</ele>
        <time>2025-05-15T07:20:58Z</time>
      </trkpt>
      <trkpt lat="42.50077698379755" lon="2.011104980483651">
        <ele>1611.3099999999999</ele>
        <time>2025-05-15T07:20:59Z</time>
      </trkpt>
      <trkpt lat="42.500825012102723" lon="2.011248981580138">
        <ele>1611.3099999999999</ele>
        <time>2025-05-15T07:21:00Z</time>
      </trkpt>
      <trkpt lat="42.500825012102723" lon="2.011416032910347">
        <ele>1611.79</ele>
        <time>2025-05-15T07:21:01Z</time>
      </trkpt>
      <trkpt lat="42.500788969919086" lon="2.011555004864931">
        <ele>1612.27</ele>
        <time>2025-05-15T07:21:02Z</time>
      </trkpt>
      <trkpt lat="42.500723004341125" lon="2.011684002354741">
        <ele>1612.75</ele>
        <time>2025-05-15T07:21:03Z</time>
      </trkpt>
      <trkpt lat="42.50062501989305" lon="2.011720966547728">
        <ele>1613.71</ele>
        <time>2025-05-15T07:21:04Z</time>
      </trkpt>
      <trkpt lat="42.500513037666678" lon="2.011733958497644">
        <ele>1614.1900000000001</ele>
        <time>2025-05-15T07:21:05Z</time>
      </trkpt>
      <trkpt lat="42.500384040176868" lon="2.011713003739715">
        <ele>1614.6700000000001</ele>
        <time>2025-05-15T07:21:06Z</time>
      </trkpt>
      <trkpt lat="42.500245990231633" lon="2.011690959334374">
        <ele>1615.6300000000001</ele>
        <time>2025-05-15T07:21:07Z</time>
      </trkpt>
      <trkpt lat="42.500100983306766" lon="2.011667992919684">
        <ele>1616.5899999999999</ele>
        <time>2025-05-15T07:21:08Z</time>
      </trkpt>
      <trkpt lat="42.499952958896756" lon="2.011690959334374">
        <ele>1617.5599999999999</ele>
        <time>2025-05-15T07:21:09Z</time>
      </trkpt>
      <trkpt lat="42.499803006649017" lon="2.011757008731365">
        <ele>1618.52</ele>
        <time>2025-05-15T07:21:10Z</time>
      </trkpt>
      <trkpt lat="42.499656993895769" lon="2.011837977916002">
        <ele>1619.48</ele>
        <time>2025-05-15T07:21:11Z</time>
      </trkpt>
      <trkpt lat="42.499521961435676" lon="2.011973010376096">
        <ele>1620.4400000000001</ele>
        <time>2025-05-15T07:21:12Z</time>
      </trkpt>
      <trkpt lat="42.499389024451375" lon="2.012106031179428">
        <ele>1621.4000000000001</ele>
        <time>2025-05-15T07:21:13Z</time>
      </trkpt>
      <trkpt lat="42.499265978112817" lon="2.012229999527335">
        <ele>1621.8800000000001</ele>
        <time>2025-05-15T07:21:14Z</time>
      </trkpt>
      <trkpt lat="42.498930031433702" lon="2.012536022812128">
        <ele>1624.28</ele>
        <time>2025-05-15T07:21:17Z</time>
      </trkpt>
      <trkpt lat="42.498808996751904" lon="2.012616991996765">
        <ele>1624.77</ele>
        <time>2025-05-15T07:21:18Z</time>
      </trkpt>
      <trkpt lat="42.498693997040391" lon="2.012696033343673">
        <ele>1625.73</ele>
        <time>2025-05-15T07:21:19Z</time>
      </trkpt>
      <trkpt lat="42.498587965965271" lon="2.012768033891916">
        <ele>1626.6900000000001</ele>
        <time>2025-05-15T07:21:20Z</time>
      </trkpt>
      <trkpt lat="42.498494004830718" lon="2.012831987813115">
        <ele>1627.6500000000001</ele>
        <time>2025-05-15T07:21:21Z</time>
      </trkpt>
      <trkpt lat="42.498425021767616" lon="2.012922009453178">
        <ele>1628.6099999999999</ele>
        <time>2025-05-15T07:21:22Z</time>
      </trkpt>
      <trkpt lat="42.498355032876134" lon="2.013018988072872">
        <ele>1629.0899999999999</ele>
        <time>2025-05-15T07:21:23Z</time>
      </trkpt>
      <trkpt lat="42.498285965994" lon="2.013114960864186">
        <ele>1629.5699999999999</ele>
        <time>2025-05-15T07:21:24Z</time>
      </trkpt>
      <trkpt lat="42.497864020988345" lon="2.013588035479188">
        <ele>1632.46</ele>
        <time>2025-05-15T07:21:30Z</time>
      </trkpt>
      <trkpt lat="42.497752038761973" lon="2.013667998835445">
        <ele>1632.9400000000001</ele>
        <time>2025-05-15T07:21:32Z</time>
      </trkpt>
      <trkpt lat="42.497699987143278" lon="2.013741005212069">
        <ele>1632.9400000000001</ele>
        <time>2025-05-15T07:21:33Z</time>
      </trkpt>
      <trkpt lat="42.497677020728588" lon="2.013844018802047">
        <ele>1632.9400000000001</ele>
        <time>2025-05-15T07:21:34Z</time>
      </trkpt>
      <trkpt lat="42.497686995193362" lon="2.013940997421742">
        <ele>1632.9400000000001</ele>
        <time>2025-05-15T07:21:35Z</time>
      </trkpt>
      <trkpt lat="42.497734017670155" lon="2.014030013233423">
        <ele>1632.9400000000001</ele>
        <time>2025-05-15T07:21:36Z</time>
      </trkpt>
      <trkpt lat="42.497801994904876" lon="2.01408701017499">
        <ele>1632.9400000000001</ele>
        <time>2025-05-15T07:21:37Z</time>
      </trkpt>
      <trkpt lat="42.497821021825075" lon="2.014103019610047">
        <ele>1632.46</ele>
        <time>2025-05-15T07:21:38Z</time>
      </trkpt>
      <trkpt lat="42.497937027364969" lon="2.014074018225074">
        <ele>1632.46</ele>
        <time>2025-05-15T07:21:39Z</time>
      </trkpt>
      <trkpt lat="42.498051021248102" lon="2.014244003221393">
        <ele>1632.46</ele>
        <time>2025-05-15T07:21:40Z</time>
      </trkpt>
      <trkpt lat="42.49808999709785" lon="2.014366965740919">
        <ele>1632.46</ele>
        <time>2025-05-15T07:21:41Z</time>
      </trkpt>
      <trkpt lat="42.498124027624726" lon="2.01451800763607">
        <ele>1632.46</ele>
        <time>2025-05-15T07:21:42Z</time>
      </trkpt>
      <trkpt lat="42.498130984604359" lon="2.014692015945911">
        <ele>1632.46</ele>
        <time>2025-05-15T07:21:43Z</time>
      </trkpt>
      <trkpt lat="42.498138025403023" lon="2.014870969578624">
        <ele>1632.9400000000001</ele>
        <time>2025-05-15T07:21:44Z</time>
      </trkpt>
      <trkpt lat="42.498144982382655" lon="2.015040032565594">
        <ele>1632.9400000000001</ele>
        <time>2025-05-15T07:21:45Z</time>
      </trkpt>
      <trkpt lat="42.498180018737912" lon="2.015659036114812">
        <ele>1635.8199999999999</ele>
        <time>2025-05-15T07:21:51Z</time>
      </trkpt>
      <trkpt lat="42.498208014294505" lon="2.015872020274401">
        <ele>1638.22</ele>
        <time>2025-05-15T07:21:59Z</time>
      </trkpt>
      <trkpt lat="42.498212037608027" lon="2.015901021659374">
        <ele>1638.22</ele>
        <time>2025-05-15T07:22:08Z</time>
      </trkpt>
      <trkpt lat="42.498208014294505" lon="2.015873026102781">
        <ele>1639.1900000000001</ele>
        <time>2025-05-15T07:22:10Z</time>
      </trkpt>
      <trkpt lat="42.498203990980983" lon="2.015842013061047">
        <ele>1639.6700000000001</ele>
        <time>2025-05-15T07:22:11Z</time>
      </trkpt>
      <trkpt lat="42.49819703400135" lon="2.015789961442351">
        <ele>1639.6700000000001</ele>
        <time>2025-05-15T07:22:12Z</time>
      </trkpt>
      <trkpt lat="42.498185969889164" lon="2.015705974772573">
        <ele>1639.6700000000001</ele>
        <time>2025-05-15T07:22:13Z</time>
      </trkpt>
      <trkpt lat="42.498170966282487" lon="2.01559198088944">
        <ele>1639.6700000000001</ele>
        <time>2025-05-15T07:22:14Z</time>
      </trkpt>
      <trkpt lat="42.498160991817713" lon="2.015458038076758">
        <ele>1639.1900000000001</ele>
        <time>2025-05-15T07:22:15Z</time>
      </trkpt>
      <trkpt lat="42.498155040666461" lon="2.015299033373594">
        <ele>1639.1900000000001</ele>
        <time>2025-05-15T07:22:16Z</time>
      </trkpt>
      <trkpt lat="42.498097037896514" lon="2.01438901014626">
        <ele>1636.78</ele>
        <time>2025-05-15T07:22:21Z</time>
      </trkpt>
      <trkpt lat="42.498002992942929" lon="2.014092961326242">
        <ele>1635.8199999999999</ele>
        <time>2025-05-15T07:22:23Z</time>
      </trkpt>
      <trkpt lat="42.498031994327903" lon="2.013781992718577">
        <ele>1635.3399999999999</ele>
        <time>2025-05-15T07:22:25Z</time>
      </trkpt>
      <trkpt lat="42.497996035963297" lon="2.013692976906896">
        <ele>1635.3399999999999</ele>
        <time>2025-05-15T07:22:26Z</time>
      </trkpt>
      <trkpt lat="42.497925963252783" lon="2.013613013550639">
        <ele>1634.8599999999999</ele>
        <time>2025-05-15T07:22:27Z</time>
      </trkpt>
      <trkpt lat="42.497837031260133" lon="2.013601027429104">
        <ele>1634.3800000000001</ele>
        <time>2025-05-15T07:22:28Z</time>
      </trkpt>
      <trkpt lat="42.497781040146947" lon="2.013629022985697">
        <ele>1633.9000000000001</ele>
        <time>2025-05-15T07:22:29Z</time>
      </trkpt>
      <trkpt lat="42.497739968821406" lon="2.013684008270502">
        <ele>1633.4200000000001</ele>
        <time>2025-05-15T07:22:30Z</time>
      </trkpt>
      <trkpt lat="42.497700992971659" lon="2.013738993555307">
        <ele>1632.9400000000001</ele>
        <time>2025-05-15T07:22:31Z</time>
      </trkpt>
      <trkpt lat="42.497675009071827" lon="2.013816023245454">
        <ele>1632.46</ele>
        <time>2025-05-15T07:22:32Z</time>
      </trkpt>
      <trkpt lat="42.49768397770822" lon="2.013908978551626">
        <ele>1631.98</ele>
        <time>2025-05-15T07:22:33Z</time>
      </trkpt>
      <trkpt lat="42.497678026556969" lon="2.014043005183339">
        <ele>1631.49</ele>
        <time>2025-05-15T07:22:34Z</time>
      </trkpt>
      <trkpt lat="42.497642990201712" lon="2.014162028208375">
        <ele>1631.01</ele>
        <time>2025-05-15T07:22:35Z</time>
      </trkpt>
      <trkpt lat="42.497602002695203" lon="2.014297982677817">
        <ele>1630.53</ele>
        <time>2025-05-15T07:22:36Z</time>
      </trkpt>
      <trkpt lat="42.497560009360313" lon="2.014450030401349">
        <ele>1629.5699999999999</ele>
        <time>2025-05-15T07:22:37Z</time>
      </trkpt>
      <trkpt lat="42.497533019632101" lon="2.014629989862442">
        <ele>1629.0899999999999</ele>
        <time>2025-05-15T07:22:38Z</time>
      </trkpt>
      <trkpt lat="42.497504018247128" lon="2.014825958758593">
        <ele>1628.1300000000001</ele>
        <time>2025-05-15T07:22:39Z</time>
      </trkpt>
      <trkpt lat="42.497522961348295" lon="2.015035003423691">
        <ele>1627.1700000000001</ele>
        <time>2025-05-15T07:22:40Z</time>
      </trkpt>
      <trkpt lat="42.497551962733269" lon="2.015261985361576">
        <ele>1625.73</ele>
        <time>2025-05-15T07:22:41Z</time>
      </trkpt>
      <trkpt lat="42.497584987431765" lon="2.015749979764223">
        <ele>1623.3199999999999</ele>
        <time>2025-05-15T07:22:43Z</time>
      </trkpt>
      <trkpt lat="42.497584987431765" lon="2.016007974743843">
        <ele>1621.8800000000001</ele>
        <time>2025-05-15T07:22:44Z</time>
      </trkpt>
      <trkpt lat="42.497579036280513" lon="2.016273010522127">
        <ele>1620.4400000000001</ele>
        <time>2025-05-15T07:22:45Z</time>
      </trkpt>
      <trkpt lat="42.497519021853805" lon="2.016522036865354">
        <ele>1619</ele>
        <time>2025-05-15T07:22:46Z</time>
      </trkpt>
      <trkpt lat="42.497458001598716" lon="2.016770979389548">
        <ele>1617.5599999999999</ele>
        <time>2025-05-15T07:22:47Z</time>
      </trkpt>
      <trkpt lat="42.497398993000388" lon="2.017014976590872">
        <ele>1616.5899999999999</ele>
        <time>2025-05-15T07:22:48Z</time>
      </trkpt>
      <trkpt lat="42.497325986623764" lon="2.017489979043603">
        <ele>1614.6700000000001</ele>
        <time>2025-05-15T07:22:50Z</time>
      </trkpt>
      <trkpt lat="42.497292039915919" lon="2.017721990123391">
        <ele>1613.71</ele>
        <time>2025-05-15T07:22:51Z</time>
      </trkpt>
      <trkpt lat="42.497302014380693" lon="2.017950983718038">
        <ele>1612.75</ele>
        <time>2025-05-15T07:22:52Z</time>
      </trkpt>
      <trkpt lat="42.497323974967003" lon="2.018177965655923">
        <ele>1611.79</ele>
        <time>2025-05-15T07:22:53Z</time>
      </trkpt>
      <trkpt lat="42.497346019372344" lon="2.018406037241221">
        <ele>1610.8299999999999</ele>
        <time>2025-05-15T07:22:54Z</time>
      </trkpt>
      <trkpt lat="42.497368985787034" lon="2.018638970330358">
        <ele>1609.8599999999999</ele>
        <time>2025-05-15T07:22:55Z</time>
      </trkpt>
      <trkpt lat="42.497377032414079" lon="2.019923999905586">
        <ele>1604.0999999999999</ele>
        <time>2025-05-15T07:23:01Z</time>
      </trkpt>
      <trkpt lat="42.497377032414079" lon="2.020114017650485">
        <ele>1603.1400000000001</ele>
        <time>2025-05-15T07:23:02Z</time>
      </trkpt>
      <trkpt lat="42.49740201048553" lon="2.02029699459672">
        <ele>1602.1700000000001</ele>
        <time>2025-05-15T07:23:03Z</time>
      </trkpt>
      <trkpt lat="42.497426988556981" lon="2.020479971542954">
        <ele>1601.21</ele>
        <time>2025-05-15T07:23:04Z</time>
      </trkpt>
      <trkpt lat="42.497479040175676" lon="2.020649034529924">
        <ele>1600.25</ele>
        <time>2025-05-15T07:23:05Z</time>
      </trkpt>
      <trkpt lat="42.497539976611733" lon="2.020803010091186">
        <ele>1599.77</ele>
        <time>2025-05-15T07:23:06Z</time>
      </trkpt>
      <trkpt lat="42.497603008523583" lon="2.020958997309208">
        <ele>1598.8099999999999</ele>
        <time>2025-05-15T07:23:07Z</time>
      </trkpt>
      <trkpt lat="42.497664028778672" lon="2.021111967042089">
        <ele>1597.8499999999999</ele>
        <time>2025-05-15T07:23:08Z</time>
      </trkpt>
      <trkpt lat="42.497793026268482" lon="2.02143500559032">
        <ele>1596.4100000000001</ele>
        <time>2025-05-15T07:23:10Z</time>
      </trkpt>
      <trkpt lat="42.497996035963297" lon="2.02240202575922">
        <ele>1593.52</ele>
        <time>2025-05-15T07:23:15Z</time>
      </trkpt>
      <trkpt lat="42.498025959357619" lon="2.023751009255648">
        <ele>1588.72</ele>
        <time>2025-05-15T07:23:22Z</time>
      </trkpt>
      <trkpt lat="42.498056972399354" lon="2.02588303014636">
        <ele>1579.5799999999999</ele>
        <time>2025-05-15T07:23:35Z</time>
      </trkpt>
      <trkpt lat="42.498075999319553" lon="2.02732396312058">
        <ele>1572.3699999999999</ele>
        <time>2025-05-15T07:23:45Z</time>
      </trkpt>
      <trkpt lat="42.49806703068316" lon="2.027635015547276">
        <ele>1570.45</ele>
        <time>2025-05-15T07:23:48Z</time>
      </trkpt>
      <trkpt lat="42.498044986277819" lon="2.027737023308873">
        <ele>1569.97</ele>
        <time>2025-05-15T07:23:49Z</time>
      </trkpt>
      <trkpt lat="42.498022019863129" lon="2.027843976393342">
        <ele>1569.97</ele>
        <time>2025-05-15T07:23:50Z</time>
      </trkpt>
      <trkpt lat="42.497973991557956" lon="2.027952019125223">
        <ele>1569.97</ele>
        <time>2025-05-15T07:23:51Z</time>
      </trkpt>
      <trkpt lat="42.497916994616389" lon="2.028054026886821">
        <ele>1569.97</ele>
        <time>2025-05-15T07:23:52Z</time>
      </trkpt>
      <trkpt lat="42.497825967147946" lon="2.028114963322878">
        <ele>1569.97</ele>
        <time>2025-05-15T07:23:53Z</time>
      </trkpt>
      <trkpt lat="42.497735023498535" lon="2.028162991628051">
        <ele>1569.97</ele>
        <time>2025-05-15T07:23:54Z</time>
      </trkpt>
      <trkpt lat="42.497643996030092" lon="2.028211019933224">
        <ele>1569.97</ele>
        <time>2025-05-15T07:23:55Z</time>
      </trkpt>
      <trkpt lat="42.497556991875172" lon="2.028257036581636">
        <ele>1569.97</ele>
        <time>2025-05-15T07:23:56Z</time>
      </trkpt>
      <trkpt lat="42.497253986075521" lon="2.028417969122529">
        <ele>1570.45</ele>
        <time>2025-05-15T07:24:02Z</time>
      </trkpt>
      <trkpt lat="42.497148038819432" lon="2.028507990762591">
        <ele>1571.4100000000001</ele>
        <time>2025-05-15T07:24:11Z</time>
      </trkpt>
      <trkpt lat="42.497085006907582" lon="2.028616033494473">
        <ele>1572.8499999999999</ele>
        <time>2025-05-15T07:24:57Z</time>
      </trkpt>
      <trkpt lat="42.497043013572693" lon="2.028686022385955">
        <ele>1573.3299999999999</ele>
        <time>2025-05-15T07:24:58Z</time>
      </trkpt>
      <trkpt lat="42.497001020237803" lon="2.028758022934198">
        <ele>1573.8199999999999</ele>
        <time>2025-05-15T07:24:59Z</time>
      </trkpt>
      <trkpt lat="42.496961960569024" lon="2.028834968805313">
        <ele>1573.8199999999999</ele>
        <time>2025-05-15T07:25:00Z</time>
      </trkpt>
      <trkpt lat="42.496939999982715" lon="2.029034039005637">
        <ele>1574.78</ele>
        <time>2025-05-15T07:25:02Z</time>
      </trkpt>
      <trkpt lat="42.496928013861179" lon="2.029135962948203">
        <ele>1575.26</ele>
        <time>2025-05-15T07:25:03Z</time>
      </trkpt>
      <trkpt lat="42.496867999434471" lon="2.030410012230277">
        <ele>1580.0599999999999</ele>
        <time>2025-05-15T07:25:12Z</time>
      </trkpt>
      <trkpt lat="42.496860036626458" lon="2.031150972470641">
        <ele>1582.95</ele>
        <time>2025-05-15T07:25:17Z</time>
      </trkpt>
      <trkpt lat="42.496776971966028" lon="2.031712979078293">
        <ele>1585.3499999999999</ele>
        <time>2025-05-15T07:25:24Z</time>
      </trkpt>
      <trkpt lat="42.496747970581055" lon="2.032906981185079">
        <ele>1583.9100000000001</ele>
        <time>2025-05-15T07:25:33Z</time>
      </trkpt>
      <trkpt lat="42.496717041358352" lon="2.033734023571014">
        <ele>1581.99</ele>
        <time>2025-05-15T07:25:39Z</time>
      </trkpt>
      <trkpt lat="42.496660966426134" lon="2.033999981358647">
        <ele>1581.03</ele>
        <time>2025-05-15T07:25:41Z</time>
      </trkpt>
      <trkpt lat="42.496576979756355" lon="2.034252025187016">
        <ele>1579.5799999999999</ele>
        <time>2025-05-15T07:25:43Z</time>
      </trkpt>
      <trkpt lat="42.496496010571718" lon="2.034315979108214">
        <ele>1578.6199999999999</ele>
        <time>2025-05-15T07:25:44Z</time>
      </trkpt>
      <trkpt lat="42.496412023901939" lon="2.034384040161967">
        <ele>1578.1400000000001</ele>
        <time>2025-05-15T07:25:45Z</time>
      </trkpt>
      <trkpt lat="42.496328959241509" lon="2.034450005739927">
        <ele>1577.6600000000001</ele>
        <time>2025-05-15T07:25:46Z</time>
      </trkpt>
      <trkpt lat="42.496251007542014" lon="2.034511025995016">
        <ele>1577.6600000000001</ele>
        <time>2025-05-15T07:25:47Z</time>
      </trkpt>
      <trkpt lat="42.495152978226542" lon="2.035332033410668">
        <ele>1570.9300000000001</ele>
        <time>2025-05-15T07:26:00Z</time>
      </trkpt>
      <trkpt lat="42.495077960193157" lon="2.035406967625022">
        <ele>1570.45</ele>
        <time>2025-05-15T07:26:01Z</time>
      </trkpt>
      <trkpt lat="42.495009982958436" lon="2.035500006750226">
        <ele>1569.97</ele>
        <time>2025-05-15T07:26:02Z</time>
      </trkpt>
      <trkpt lat="42.494957009330392" lon="2.03561601229012">
        <ele>1569.97</ele>
        <time>2025-05-15T07:26:03Z</time>
      </trkpt>
      <trkpt lat="42.494900012388825" lon="2.035740986466408">
        <ele>1569.49</ele>
        <time>2025-05-15T07:26:04Z</time>
      </trkpt>
      <trkpt lat="42.494762968271971" lon="2.036142982542515">
        <ele>1567.5699999999999</ele>
        <time>2025-05-15T07:26:07Z</time>
      </trkpt>
      <trkpt lat="42.49458895996213" lon="2.036654027178884">
        <ele>1566.6099999999999</ele>
        <time>2025-05-15T07:26:11Z</time>
      </trkpt>
      <trkpt lat="42.494403971359134" lon="2.03699198551476">
        <ele>1565.1600000000001</ele>
        <time>2025-05-15T07:26:14Z</time>
      </trkpt>
      <trkpt lat="42.49437396414578" lon="2.037041019648314">
        <ele>1564.6800000000001</ele>
        <time>2025-05-15T07:26:15Z</time>
      </trkpt>
      <trkpt lat="42.494357032701373" lon="2.037069015204907">
        <ele>1564.2</ele>
        <time>2025-05-15T07:26:16Z</time>
      </trkpt>
      <trkpt lat="42.494344040751457" lon="2.037088964134455">
        <ele>1563.72</ele>
        <time>2025-05-15T07:26:17Z</time>
      </trkpt>
      <trkpt lat="42.494344040751457" lon="2.037088964134455">
        <ele>1563.24</ele>
        <time>2025-05-15T07:26:27Z</time>
      </trkpt>
      <trkpt lat="42.49433096498251" lon="2.037111008539796">
        <ele>1562.76</ele>
        <time>2025-05-15T07:26:32Z</time>
      </trkpt>
      <trkpt lat="42.494310010224581" lon="2.037144033238292">
        <ele>1561.3199999999999</ele>
        <time>2025-05-15T07:26:46Z</time>
      </trkpt>
      <trkpt lat="42.49420297332108" lon="2.037274036556482">
        <ele>1557.95</ele>
        <time>2025-05-15T07:27:01Z</time>
      </trkpt>
      <trkpt lat="42.494183024391532" lon="2.037294991314411">
        <ele>1557.47</ele>
        <time>2025-05-15T07:27:04Z</time>
      </trkpt>
      <trkpt lat="42.494123009964824" lon="2.037359029054642">
        <ele>1556.03</ele>
        <time>2025-05-15T07:27:06Z</time>
      </trkpt>
      <trkpt lat="42.49407297000289" lon="2.037414014339447">
        <ele>1556.03</ele>
        <time>2025-05-15T07:27:07Z</time>
      </trkpt>
      <trkpt lat="42.49400801025331" lon="2.037482997402549">
        <ele>1555.55</ele>
        <time>2025-05-15T07:27:08Z</time>
      </trkpt>
      <trkpt lat="42.493906002491713" lon="2.037551980465651">
        <ele>1555.55</ele>
        <time>2025-05-15T07:27:09Z</time>
      </trkpt>
      <trkpt lat="42.493799971416593" lon="2.037588022649288">
        <ele>1555.0699999999999</ele>
        <time>2025-05-15T07:27:10Z</time>
      </trkpt>
      <trkpt lat="42.493678014725447" lon="2.037620963528752">
        <ele>1554.5899999999999</ele>
        <time>2025-05-15T07:27:11Z</time>
      </trkpt>
      <trkpt lat="42.493552034720778" lon="2.037620963528752">
        <ele>1554.5899999999999</ele>
        <time>2025-05-15T07:27:12Z</time>
      </trkpt>
      <trkpt lat="42.493423037230968" lon="2.037620963528752">
        <ele>1554.1099999999999</ele>
        <time>2025-05-15T07:27:13Z</time>
      </trkpt>
      <trkpt lat="42.493284987285733" lon="2.037562960758805">
        <ele>1554.1099999999999</ele>
        <time>2025-05-15T07:27:14Z</time>
      </trkpt>
      <trkpt lat="42.493164958432317" lon="2.037513004615903">
        <ele>1554.1099999999999</ele>
        <time>2025-05-15T07:27:15Z</time>
      </trkpt>
      <trkpt lat="42.493054987862706" lon="2.037406973540783">
        <ele>1553.6300000000001</ele>
        <time>2025-05-15T07:27:16Z</time>
      </trkpt>
      <trkpt lat="42.492953985929489" lon="2.037308989092708">
        <ele>1553.6300000000001</ele>
        <time>2025-05-15T07:27:17Z</time>
      </trkpt>
      <trkpt lat="42.492845021188259" lon="2.037203041836619">
        <ele>1553.6300000000001</ele>
        <time>2025-05-15T07:27:18Z</time>
      </trkpt>
      <trkpt lat="42.492727003991604" lon="2.037087958306074">
        <ele>1553.1500000000001</ele>
        <time>2025-05-15T07:27:19Z</time>
      </trkpt>
      <trkpt lat="42.492498010396957" lon="2.036866005510092">
        <ele>1552.1900000000001</ele>
        <time>2025-05-15T07:27:21Z</time>
      </trkpt>
      <trkpt lat="42.492373958230019" lon="2.03677698969841">
        <ele>1551.71</ele>
        <time>2025-05-15T07:27:22Z</time>
      </trkpt>
      <trkpt lat="42.492240015417337" lon="2.036728961393237">
        <ele>1550.74</ele>
        <time>2025-05-15T07:27:23Z</time>
      </trkpt>
      <trkpt lat="42.492106994614005" lon="2.03668998554349">
        <ele>1549.78</ele>
        <time>2025-05-15T07:27:24Z</time>
      </trkpt>
      <trkpt lat="42.491975985467434" lon="2.036650003865361">
        <ele>1548.8199999999999</ele>
        <time>2025-05-15T07:27:25Z</time>
      </trkpt>
      <trkpt lat="42.491332003846765" lon="2.036493010818958">
        <ele>1544.5</ele>
        <time>2025-05-15T07:27:30Z</time>
      </trkpt>
      <trkpt lat="42.491209963336587" lon="2.036487981677055">
        <ele>1543.05</ele>
        <time>2025-05-15T07:27:31Z</time>
      </trkpt>
      <trkpt lat="42.491094963625073" lon="2.036500973626971">
        <ele>1542.0899999999999</ele>
        <time>2025-05-15T07:27:32Z</time>
      </trkpt>
      <trkpt lat="42.490997985005379" lon="2.036526035517454">
        <ele>1541.1300000000001</ele>
        <time>2025-05-15T07:27:33Z</time>
      </trkpt>
      <trkpt lat="42.49089103192091" lon="2.036601975560188">
        <ele>1540.1700000000001</ele>
        <time>2025-05-15T07:27:34Z</time>
      </trkpt>
      <trkpt lat="42.490792963653803" lon="2.03667095862329">
        <ele>1538.73</ele>
        <time>2025-05-15T07:27:35Z</time>
      </trkpt>
      <trkpt lat="42.490694979205728" lon="2.036740025505424">
        <ele>1537.77</ele>
        <time>2025-05-15T07:27:36Z</time>
      </trkpt>
      <trkpt lat="42.490483000874519" lon="2.036890983581543">
        <ele>1535.8399999999999</ele>
        <time>2025-05-15T07:27:38Z</time>
      </trkpt>
      <trkpt lat="42.490167003124952" lon="2.037289040163159">
        <ele>1531.04</ele>
        <time>2025-05-15T07:27:42Z</time>
      </trkpt>
      <trkpt lat="42.489876989275217" lon="2.037906032055616">
        <ele>1527.1900000000001</ele>
        <time>2025-05-15T07:27:47Z</time>
      </trkpt>
      <trkpt lat="42.489551017060876" lon="2.039331961423159">
        <ele>1521.4200000000001</ele>
        <time>2025-05-15T07:27:56Z</time>
      </trkpt>
      <trkpt lat="42.489386983215809" lon="2.039996981620789">
        <ele>1519.02</ele>
        <time>2025-05-15T07:28:03Z</time>
      </trkpt>
      <trkpt lat="42.489349013194442" lon="2.04006495885551">
        <ele>1518.54</ele>
        <time>2025-05-15T07:28:04Z</time>
      </trkpt>
      <trkpt lat="42.489304002374411" lon="2.040111981332302">
        <ele>1518.0599999999999</ele>
        <time>2025-05-15T07:28:05Z</time>
      </trkpt>
      <trkpt lat="42.489236025139689" lon="2.040122039616108">
        <ele>1517.5799999999999</ele>
        <time>2025-05-15T07:28:06Z</time>
      </trkpt>
      <trkpt lat="42.489161007106304" lon="2.040135031566024">
        <ele>1517.0999999999999</ele>
        <time>2025-05-15T07:28:07Z</time>
      </trkpt>
      <trkpt lat="42.489089006558061" lon="2.040159003809094">
        <ele>1516.6199999999999</ele>
        <time>2025-05-15T07:28:08Z</time>
      </trkpt>
      <trkpt lat="42.488945005461574" lon="2.0402139890939">
        <ele>1516.1400000000001</ele>
        <time>2025-05-15T07:28:10Z</time>
      </trkpt>
      <trkpt lat="42.488876022398472" lon="2.040241984650493">
        <ele>1515.6600000000001</ele>
        <time>2025-05-15T07:28:11Z</time>
      </trkpt>
      <trkpt lat="42.488756999373436" lon="2.040334017947316">
        <ele>1515.1800000000001</ele>
        <time>2025-05-15T07:28:13Z</time>
      </trkpt>
      <trkpt lat="42.488702014088631" lon="2.040389003232122">
        <ele>1515.1800000000001</ele>
        <time>2025-05-15T07:28:14Z</time>
      </trkpt>
      <trkpt lat="42.488682987168431" lon="2.040468966588378">
        <ele>1515.1800000000001</ele>
        <time>2025-05-15T07:28:15Z</time>
      </trkpt>
      <trkpt lat="42.488663038238883" lon="2.040552031248808">
        <ele>1515.1800000000001</ele>
        <time>2025-05-15T07:28:16Z</time>
      </trkpt>
      <trkpt lat="42.488641999661922" lon="2.040640963241458">
        <ele>1515.6600000000001</ele>
        <time>2025-05-15T07:28:17Z</time>
      </trkpt>
      <trkpt lat="42.488616015762091" lon="2.040753029286861">
        <ele>1515.6600000000001</ele>
        <time>2025-05-15T07:28:18Z</time>
      </trkpt>
      <trkpt lat="42.488587014377117" lon="2.040811032056809">
        <ele>1515.6600000000001</ele>
        <time>2025-05-15T07:28:19Z</time>
      </trkpt>
      <trkpt lat="42.488547032698989" lon="2.040895018726587">
        <ele>1515.6600000000001</ele>
        <time>2025-05-15T07:28:20Z</time>
      </trkpt>
      <trkpt lat="42.488509984686971" lon="2.040994009003043">
        <ele>1515.6600000000001</ele>
        <time>2025-05-15T07:28:21Z</time>
      </trkpt>
      <trkpt lat="42.488472014665604" lon="2.041098028421402">
        <ele>1515.1800000000001</ele>
        <time>2025-05-15T07:28:22Z</time>
      </trkpt>
      <trkpt lat="42.488433960825205" lon="2.041200958192349">
        <ele>1515.1800000000001</ele>
        <time>2025-05-15T07:28:23Z</time>
      </trkpt>
      <trkpt lat="42.488391967490315" lon="2.041312018409371">
        <ele>1515.1800000000001</ele>
        <time>2025-05-15T07:28:24Z</time>
      </trkpt>
      <trkpt lat="42.48831401579082" lon="2.041670009493828">
        <ele>1515.1800000000001</ele>
        <time>2025-05-15T07:28:27Z</time>
      </trkpt>
      <trkpt lat="42.488209996372461" lon="2.04313499853015">
        <ele>1511.3299999999999</ele>
        <time>2025-05-15T07:28:36Z</time>
      </trkpt>
      <trkpt lat="42.488299012184143" lon="2.044949010014534">
        <ele>1505.0799999999999</ele>
        <time>2025-05-15T07:28:45Z</time>
      </trkpt>
      <trkpt lat="42.488524988293648" lon="2.046046033501625">
        <ele>1501.72</ele>
        <time>2025-05-15T07:28:50Z</time>
      </trkpt>
      <trkpt lat="42.488544015213847" lon="2.046276032924652">
        <ele>1500.76</ele>
        <time>2025-05-15T07:28:51Z</time>
      </trkpt>
      <trkpt lat="42.488523982465267" lon="2.046503014862537">
        <ele>1500.27</ele>
        <time>2025-05-15T07:28:52Z</time>
      </trkpt>
      <trkpt lat="42.488476037979126" lon="2.046723961830139">
        <ele>1499.79</ele>
        <time>2025-05-15T07:28:53Z</time>
      </trkpt>
      <trkpt lat="42.488427003845572" lon="2.046950021758676">
        <ele>1499.3099999999999</ele>
        <time>2025-05-15T07:28:54Z</time>
      </trkpt>
      <trkpt lat="42.48837998136878" lon="2.047169040888548">
        <ele>1498.8299999999999</ele>
        <time>2025-05-15T07:28:55Z</time>
      </trkpt>
      <trkpt lat="42.48829398304224" lon="2.047379007562995">
        <ele>1498.8299999999999</ele>
        <time>2025-05-15T07:28:56Z</time>
      </trkpt>
      <trkpt lat="42.488208990544081" lon="2.047586040571332">
        <ele>1498.3499999999999</ele>
        <time>2025-05-15T07:28:57Z</time>
      </trkpt>
      <trkpt lat="42.487899027764797" lon="2.048339992761612">
        <ele>1497.3900000000001</ele>
        <time>2025-05-15T07:29:01Z</time>
      </trkpt>
      <trkpt lat="42.487869020551443" lon="2.048532022163272">
        <ele>1497.3900000000001</ele>
        <time>2025-05-15T07:29:02Z</time>
      </trkpt>
      <trkpt lat="42.487849993631244" lon="2.048712987452745">
        <ele>1496.9100000000001</ele>
        <time>2025-05-15T07:29:03Z</time>
      </trkpt>
      <trkpt lat="42.487831972539425" lon="2.048882972449064">
        <ele>1495.95</ele>
        <time>2025-05-15T07:29:04Z</time>
      </trkpt>
      <trkpt lat="42.487839013338089" lon="2.049046000465751">
        <ele>1495.95</ele>
        <time>2025-05-15T07:29:05Z</time>
      </trkpt>
      <trkpt lat="42.487871032208204" lon="2.049190001562238">
        <ele>1495.47</ele>
        <time>2025-05-15T07:29:06Z</time>
      </trkpt>
      <trkpt lat="42.487907996401191" lon="2.049357974901795">
        <ele>1494.99</ele>
        <time>2025-05-15T07:29:07Z</time>
      </trkpt>
      <trkpt lat="42.487962981685996" lon="2.049451014027">
        <ele>1494.03</ele>
        <time>2025-05-15T07:29:08Z</time>
      </trkpt>
      <trkpt lat="42.48803498223424" lon="2.049574982374907">
        <ele>1493.55</ele>
        <time>2025-05-15T07:29:09Z</time>
      </trkpt>
      <trkpt lat="42.488112011924386" lon="2.049705991521478">
        <ele>1492.5799999999999</ele>
        <time>2025-05-15T07:29:10Z</time>
      </trkpt>
      <trkpt lat="42.488366989418864" lon="2.050185017287731">
        <ele>1490.6600000000001</ele>
        <time>2025-05-15T07:29:13Z</time>
      </trkpt>
      <trkpt lat="42.488819025456905" lon="2.051267959177494">
        <ele>1487.3</ele>
        <time>2025-05-15T07:29:18Z</time>
      </trkpt>
      <trkpt lat="42.488831011578441" lon="2.051462000235915">
        <ele>1486.8199999999999</ele>
        <time>2025-05-15T07:29:19Z</time>
      </trkpt>
      <trkpt lat="42.488782983273268" lon="2.051625028252602">
        <ele>1485.8499999999999</ele>
        <time>2025-05-15T07:29:20Z</time>
      </trkpt>
      <trkpt lat="42.488719029352069" lon="2.051790989935398">
        <ele>1485.3699999999999</ele>
        <time>2025-05-15T07:29:21Z</time>
      </trkpt>
      <trkpt lat="42.48863697052002" lon="2.051954017952085">
        <ele>1484.4100000000001</ele>
        <time>2025-05-15T07:29:22Z</time>
      </trkpt>
      <trkpt lat="42.488534040749073" lon="2.052104976028204">
        <ele>1483.9300000000001</ele>
        <time>2025-05-15T07:29:23Z</time>
      </trkpt>
      <trkpt lat="42.488436978310347" lon="2.05224797129631">
        <ele>1482.97</ele>
        <time>2025-05-15T07:29:24Z</time>
      </trkpt>
      <trkpt lat="42.488345028832555" lon="2.052383003756404">
        <ele>1482.49</ele>
        <time>2025-05-15T07:29:25Z</time>
      </trkpt>
      <trkpt lat="42.488236986100674" lon="2.052485011518002">
        <ele>1482.01</ele>
        <time>2025-05-15T07:29:26Z</time>
      </trkpt>
      <trkpt lat="42.488144030794501" lon="2.052555000409484">
        <ele>1481.53</ele>
        <time>2025-05-15T07:29:27Z</time>
      </trkpt>
      <trkpt lat="42.487987959757447" lon="2.052534967660904">
        <ele>1481.05</ele>
        <time>2025-05-15T07:29:28Z</time>
      </trkpt>
      <trkpt lat="42.487848987802863" lon="2.052517030388117">
        <ele>1480.5699999999999</ele>
        <time>2025-05-15T07:29:29Z</time>
      </trkpt>
      <trkpt lat="42.487704986706376" lon="2.052499009296298">
        <ele>1480.0899999999999</ele>
        <time>2025-05-15T07:29:30Z</time>
      </trkpt>
      <trkpt lat="42.487567020580173" lon="2.052480988204479">
        <ele>1479.6099999999999</ele>
        <time>2025-05-15T07:29:31Z</time>
      </trkpt>
      <trkpt lat="42.487437017261982" lon="2.052495991811156">
        <ele>1479.1300000000001</ele>
        <time>2025-05-15T07:29:32Z</time>
      </trkpt>
      <trkpt lat="42.487301984801888" lon="2.052580984309316">
        <ele>1478.1600000000001</ele>
        <time>2025-05-15T07:29:33Z</time>
      </trkpt>
      <trkpt lat="42.487018005922437" lon="2.05276002176106">
        <ele>1476.24</ele>
        <time>2025-05-15T07:29:35Z</time>
      </trkpt>
      <trkpt lat="42.486754981800914" lon="2.052925983443856">
        <ele>1474.3199999999999</ele>
        <time>2025-05-15T07:29:37Z</time>
      </trkpt>
      <trkpt lat="42.486629001796246" lon="2.052973005920649">
        <ele>1473.3599999999999</ele>
        <time>2025-05-15T07:29:38Z</time>
      </trkpt>
      <trkpt lat="42.486489024013281" lon="2.052927995100617">
        <ele>1472.8800000000001</ele>
        <time>2025-05-15T07:29:39Z</time>
      </trkpt>
      <trkpt lat="42.48633798211813" lon="2.052878960967064">
        <ele>1471.9200000000001</ele>
        <time>2025-05-15T07:29:40Z</time>
      </trkpt>
      <trkpt lat="42.486188029870391" lon="2.052830010652542">
        <ele>1471.4400000000001</ele>
        <time>2025-05-15T07:29:41Z</time>
      </trkpt>
      <trkpt lat="42.485933974385262" lon="2.052748035639525">
        <ele>1469.99</ele>
        <time>2025-05-15T07:29:43Z</time>
      </trkpt>
      <trkpt lat="42.485812017694116" lon="2.05278298817575">
        <ele>1469.03</ele>
        <time>2025-05-15T07:29:44Z</time>
      </trkpt>
      <trkpt lat="42.485746974125504" lon="2.052854988723993">
        <ele>1468.55</ele>
        <time>2025-05-15T07:29:45Z</time>
      </trkpt>
      <trkpt lat="42.485696012154222" lon="2.052959008142352">
        <ele>1467.5899999999999</ele>
        <time>2025-05-15T07:29:46Z</time>
      </trkpt>
      <trkpt lat="42.485681008547544" lon="2.053118012845516">
        <ele>1466.6300000000001</ele>
        <time>2025-05-15T07:29:47Z</time>
      </trkpt>
      <trkpt lat="42.485662987455726" lon="2.053303001448512">
        <ele>1465.6700000000001</ele>
        <time>2025-05-15T07:29:48Z</time>
      </trkpt>
      <trkpt lat="42.485586041584611" lon="2.054572021588683">
        <ele>1461.3399999999999</ele>
        <time>2025-05-15T07:29:54Z</time>
      </trkpt>
      <trkpt lat="42.485599033534527" lon="2.054788023233414">
        <ele>1460.8599999999999</ele>
        <time>2025-05-15T07:29:55Z</time>
      </trkpt>
      <trkpt lat="42.4856280349195" lon="2.055271994322538">
        <ele>1459.9000000000001</ele>
        <time>2025-05-15T07:29:57Z</time>
      </trkpt>
      <trkpt lat="42.485643960535526" lon="2.055529989302158">
        <ele>1459.9000000000001</ele>
        <time>2025-05-15T07:29:58Z</time>
      </trkpt>
      <trkpt lat="42.485634991899133" lon="2.056282013654709">
        <ele>1457.98</ele>
        <time>2025-05-15T07:30:01Z</time>
      </trkpt>
      <trkpt lat="42.48562702909112" lon="2.056527016684413">
        <ele>1457.5</ele>
        <time>2025-05-15T07:30:02Z</time>
      </trkpt>
      <trkpt lat="42.485618982464075" lon="2.056770008057356">
        <ele>1456.53</ele>
        <time>2025-05-15T07:30:03Z</time>
      </trkpt>
      <trkpt lat="42.485611019656062" lon="2.057014005258679">
        <ele>1455.5699999999999</ele>
        <time>2025-05-15T07:30:04Z</time>
      </trkpt>
      <trkpt lat="42.485601967200637" lon="2.057261019945145">
        <ele>1454.6099999999999</ele>
        <time>2025-05-15T07:30:05Z</time>
      </trkpt>
      <trkpt lat="42.48558796942234" lon="2.058693990111351">
        <ele>1451.25</ele>
        <time>2025-05-15T07:30:11Z</time>
      </trkpt>
      <trkpt lat="42.48560699634254" lon="2.05914300866425">
        <ele>1451.25</ele>
        <time>2025-05-15T07:30:13Z</time>
      </trkpt>
      <trkpt lat="42.485589981079102" lon="2.059353981167078">
        <ele>1451.25</ele>
        <time>2025-05-15T07:30:14Z</time>
      </trkpt>
      <trkpt lat="42.485547987744212" lon="2.059555985033512">
        <ele>1451.25</ele>
        <time>2025-05-15T07:30:15Z</time>
      </trkpt>
      <trkpt lat="42.485486967489123" lon="2.059756983071566">
        <ele>1451.73</ele>
        <time>2025-05-15T07:30:16Z</time>
      </trkpt>
      <trkpt lat="42.485407004132867" lon="2.059954963624477">
        <ele>1452.21</ele>
        <time>2025-05-15T07:30:17Z</time>
      </trkpt>
      <trkpt lat="42.48532603494823" lon="2.060157973319292">
        <ele>1452.6900000000001</ele>
        <time>2025-05-15T07:30:18Z</time>
      </trkpt>
      <trkpt lat="42.485271971672773" lon="2.060380009934306">
        <ele>1453.1700000000001</ele>
        <time>2025-05-15T07:30:19Z</time>
      </trkpt>
      <trkpt lat="42.485183039680123" lon="2.060794997960329">
        <ele>1454.6099999999999</ele>
        <time>2025-05-15T07:30:21Z</time>
      </trkpt>
      <trkpt lat="42.485102992504835" lon="2.060960037633777">
        <ele>1455.0899999999999</ele>
        <time>2025-05-15T07:30:22Z</time>
      </trkpt>
      <trkpt lat="42.484923033043742" lon="2.061364967375994">
        <ele>1457.02</ele>
        <time>2025-05-15T07:30:26Z</time>
      </trkpt>
      <trkpt lat="42.484918003901839" lon="2.061425987631083">
        <ele>1457.5</ele>
        <time>2025-05-15T07:30:27Z</time>
      </trkpt>
      <trkpt lat="42.484913980588317" lon="2.061480972915888">
        <ele>1457.5</ele>
        <time>2025-05-15T07:30:28Z</time>
      </trkpt>
      <trkpt lat="42.484908029437065" lon="2.061558002606034">
        <ele>1458.46</ele>
        <time>2025-05-15T07:30:36Z</time>
      </trkpt>
      <trkpt lat="42.484904006123543" lon="2.061609970405698">
        <ele>1459.9000000000001</ele>
        <time>2025-05-15T07:30:39Z</time>
      </trkpt>
      <trkpt lat="42.484978018328547" lon="2.061558002606034">
        <ele>1460.3800000000001</ele>
        <time>2025-05-15T07:30:40Z</time>
      </trkpt>
      <trkpt lat="42.485044989734888" lon="2.061510980129242">
        <ele>1460.8599999999999</ele>
        <time>2025-05-15T07:30:41Z</time>
      </trkpt>
      <trkpt lat="42.485117996111512" lon="2.061460018157959">
        <ele>1460.8599999999999</ele>
        <time>2025-05-15T07:30:42Z</time>
      </trkpt>
      <trkpt lat="42.485155966132879" lon="2.061372008174658">
        <ele>1461.3399999999999</ele>
        <time>2025-05-15T07:30:43Z</time>
      </trkpt>
      <trkpt lat="42.485202988609672" lon="2.061261031776667">
        <ele>1461.8199999999999</ele>
        <time>2025-05-15T07:30:44Z</time>
      </trkpt>
      <trkpt lat="42.485250011086464" lon="2.061149971559644">
        <ele>1462.3</ele>
        <time>2025-05-15T07:30:45Z</time>
      </trkpt>
      <trkpt lat="42.485374985262752" lon="2.060856018215418">
        <ele>1463.74</ele>
        <time>2025-05-15T07:30:48Z</time>
      </trkpt>
      <trkpt lat="42.485439023002982" lon="2.060749987140298">
        <ele>1464.23</ele>
        <time>2025-05-15T07:30:49Z</time>
      </trkpt>
      <trkpt lat="42.485502976924181" lon="2.060743030160666">
        <ele>1464.71</ele>
        <time>2025-05-15T07:30:50Z</time>
      </trkpt>
      <trkpt lat="42.485583024099469" lon="2.06073397770524">
        <ele>1465.1900000000001</ele>
        <time>2025-05-15T07:30:51Z</time>
      </trkpt>
      <trkpt lat="42.485683020204306" lon="2.060779994353652">
        <ele>1465.6700000000001</ele>
        <time>2025-05-15T07:30:52Z</time>
      </trkpt>
      <trkpt lat="42.485773041844368" lon="2.060843026265502">
        <ele>1465.6700000000001</ele>
        <time>2025-05-15T07:30:53Z</time>
      </trkpt>
      <trkpt lat="42.485853005200624" lon="2.060965988785029">
        <ele>1466.1500000000001</ele>
        <time>2025-05-15T07:30:54Z</time>
      </trkpt>
      <trkpt lat="42.485893992707133" lon="2.0610969979316">
        <ele>1466.1500000000001</ele>
        <time>2025-05-15T07:30:55Z</time>
      </trkpt>
      <trkpt lat="42.485933974385262" lon="2.061242004856467">
        <ele>1466.6300000000001</ele>
        <time>2025-05-15T07:30:56Z</time>
      </trkpt>
      <trkpt lat="42.485941015183926" lon="2.061411989852786">
        <ele>1467.1099999999999</ele>
        <time>2025-05-15T07:30:57Z</time>
      </trkpt>
      <trkpt lat="42.485947972163558" lon="2.061588009819388">
        <ele>1467.5899999999999</ele>
        <time>2025-05-15T07:30:58Z</time>
      </trkpt>
      <trkpt lat="42.485956018790603" lon="2.061770986765623">
        <ele>1467.5899999999999</ele>
        <time>2025-05-15T07:30:59Z</time>
      </trkpt>
      <trkpt lat="42.48597102239728" lon="2.062146998941898">
        <ele>1468.55</ele>
        <time>2025-05-15T07:31:01Z</time>
      </trkpt>
      <trkpt lat="42.48599499464035" lon="2.062339028343558">
        <ele>1469.03</ele>
        <time>2025-05-15T07:31:02Z</time>
      </trkpt>
      <trkpt lat="42.486070012673736" lon="2.062518987804651">
        <ele>1469.99</ele>
        <time>2025-05-15T07:31:03Z</time>
      </trkpt>
      <trkpt lat="42.4862099904567" lon="2.062912015244365">
        <ele>1471.9200000000001</ele>
        <time>2025-05-15T07:31:05Z</time>
      </trkpt>
      <trkpt lat="42.486249972134829" lon="2.063130028545857">
        <ele>1472.8800000000001</ele>
        <time>2025-05-15T07:31:06Z</time>
      </trkpt>
      <trkpt lat="42.486292971298099" lon="2.063357010483742">
        <ele>1473.8399999999999</ele>
        <time>2025-05-15T07:31:07Z</time>
      </trkpt>
      <trkpt lat="42.486335970461369" lon="2.063590027391911">
        <ele>1475.28</ele>
        <time>2025-05-15T07:31:08Z</time>
      </trkpt>
      <trkpt lat="42.486362960189581" lon="2.063834024593234">
        <ele>1475.76</ele>
        <time>2025-05-15T07:31:09Z</time>
      </trkpt>
      <trkpt lat="42.486362960189581" lon="2.064073998481035">
        <ele>1476.72</ele>
        <time>2025-05-15T07:31:10Z</time>
      </trkpt>
      <trkpt lat="42.486364971846342" lon="2.064306009560823">
        <ele>1477.6800000000001</ele>
        <time>2025-05-15T07:31:11Z</time>
      </trkpt>
      <trkpt lat="42.486403025686741" lon="2.064529974013567">
        <ele>1478.6500000000001</ele>
        <time>2025-05-15T07:31:12Z</time>
      </trkpt>
      <trkpt lat="42.486483994871378" lon="2.064734995365143">
        <ele>1480.0899999999999</ele>
        <time>2025-05-15T07:31:13Z</time>
      </trkpt>
      <trkpt lat="42.4866590090096" lon="2.065145960077643">
        <ele>1482.01</ele>
        <time>2025-05-15T07:31:15Z</time>
      </trkpt>
      <trkpt lat="42.486761016771197" lon="2.065323991701007">
        <ele>1482.97</ele>
        <time>2025-05-15T07:31:16Z</time>
      </trkpt>
      <trkpt lat="42.487127976492047" lon="2.065763035789132">
        <ele>1484.4100000000001</ele>
        <time>2025-05-15T07:31:19Z</time>
      </trkpt>
      <trkpt lat="42.487190002575517" lon="2.065973002463579">
        <ele>1485.3699999999999</ele>
        <time>2025-05-15T07:31:20Z</time>
      </trkpt>
      <trkpt lat="42.487245993688703" lon="2.066183974966407">
        <ele>1486.3399999999999</ele>
        <time>2025-05-15T07:31:21Z</time>
      </trkpt>
      <trkpt lat="42.487302990630269" lon="2.066394025459886">
        <ele>1486.8199999999999</ele>
        <time>2025-05-15T07:31:22Z</time>
      </trkpt>
      <trkpt lat="42.487361999228597" lon="2.066595023497939">
        <ele>1487.3</ele>
        <time>2025-05-15T07:31:23Z</time>
      </trkpt>
      <trkpt lat="42.487458977848291" lon="2.066765008494258">
        <ele>1487.78</ele>
        <time>2025-05-15T07:31:24Z</time>
      </trkpt>
      <trkpt lat="42.487586969509721" lon="2.066902974620462">
        <ele>1487.78</ele>
        <time>2025-05-15T07:31:25Z</time>
      </trkpt>
      <trkpt lat="42.487726025283337" lon="2.067044964060187">
        <ele>1488.26</ele>
        <time>2025-05-15T07:31:26Z</time>
      </trkpt>
      <trkpt lat="42.488801004365087" lon="2.068180041387677">
        <ele>1490.1800000000001</ele>
        <time>2025-05-15T07:31:33Z</time>
      </trkpt>
      <trkpt lat="42.488918015733361" lon="2.068356983363628">
        <ele>1490.6600000000001</ele>
        <time>2025-05-15T07:31:34Z</time>
      </trkpt>
      <trkpt lat="42.488984987139702" lon="2.068578014150262">
        <ele>1491.1400000000001</ele>
        <time>2025-05-15T07:31:35Z</time>
      </trkpt>
      <trkpt lat="42.489053970202804" lon="2.068803990259767">
        <ele>1492.0999999999999</ele>
        <time>2025-05-15T07:31:36Z</time>
      </trkpt>
      <trkpt lat="42.489125970751047" lon="2.069037007167935">
        <ele>1493.0599999999999</ele>
        <time>2025-05-15T07:31:37Z</time>
      </trkpt>
      <trkpt lat="42.489198977127671" lon="2.069274969398975">
        <ele>1493.55</ele>
        <time>2025-05-15T07:31:38Z</time>
      </trkpt>
      <trkpt lat="42.489309031516314" lon="2.06947797909379">
        <ele>1494.51</ele>
        <time>2025-05-15T07:31:39Z</time>
      </trkpt>
      <trkpt lat="42.489434005692601" lon="2.069673025980592">
        <ele>1495.47</ele>
        <time>2025-05-15T07:31:40Z</time>
      </trkpt>
      <trkpt lat="42.489561997354031" lon="2.069871006533504">
        <ele>1495.95</ele>
        <time>2025-05-15T07:31:41Z</time>
      </trkpt>
      <trkpt lat="42.489680014550686" lon="2.070066975429654">
        <ele>1496.9100000000001</ele>
        <time>2025-05-15T07:31:42Z</time>
      </trkpt>
      <trkpt lat="42.489777998998761" lon="2.070268979296088">
        <ele>1497.8699999999999</ele>
        <time>2025-05-15T07:31:43Z</time>
      </trkpt>
      <trkpt lat="42.489852011203766" lon="2.070490010082722">
        <ele>1498.8299999999999</ele>
        <time>2025-05-15T07:31:44Z</time>
      </trkpt>
      <trkpt lat="42.489867014810443" lon="2.070739958435297">
        <ele>1499.79</ele>
        <time>2025-05-15T07:31:45Z</time>
      </trkpt>
      <trkpt lat="42.489873971790075" lon="2.070988984778523">
        <ele>1500.76</ele>
        <time>2025-05-15T07:31:46Z</time>
      </trkpt>
      <trkpt lat="42.489881012588739" lon="2.071240022778511">
        <ele>1501.72</ele>
        <time>2025-05-15T07:31:47Z</time>
      </trkpt>
      <trkpt lat="42.489909008145332" lon="2.071703961119056">
        <ele>1503.6400000000001</ele>
        <time>2025-05-15T07:31:49Z</time>
      </trkpt>
      <trkpt lat="42.489957958459854" lon="2.071910994127393">
        <ele>1504.5999999999999</ele>
        <time>2025-05-15T07:31:50Z</time>
      </trkpt>
      <trkpt lat="42.490049991756678" lon="2.072087014093995">
        <ele>1505.5599999999999</ele>
        <time>2025-05-15T07:31:51Z</time>
      </trkpt>
      <trkpt lat="42.490159962326288" lon="2.072258004918695">
        <ele>1506.04</ele>
        <time>2025-05-15T07:31:52Z</time>
      </trkpt>
      <trkpt lat="42.490285020321608" lon="2.072423966601491">
        <ele>1506.52</ele>
        <time>2025-05-15T07:31:53Z</time>
      </trkpt>
      <trkpt lat="42.490415023639798" lon="2.072595963254571">
        <ele>1507.48</ele>
        <time>2025-05-15T07:31:54Z</time>
      </trkpt>
      <trkpt lat="42.490547960624099" lon="2.072770977392793">
        <ele>1507.97</ele>
        <time>2025-05-15T07:31:55Z</time>
      </trkpt>
      <trkpt lat="42.490681987255812" lon="2.072955965995789">
        <ele>1508.45</ele>
        <time>2025-05-15T07:31:56Z</time>
      </trkpt>
      <trkpt lat="42.490772008895874" lon="2.073192000389099">
        <ele>1509.4100000000001</ele>
        <time>2025-05-15T07:31:57Z</time>
      </trkpt>
      <trkpt lat="42.490861024707556" lon="2.073437003418803">
        <ele>1509.8900000000001</ele>
        <time>2025-05-15T07:31:58Z</time>
      </trkpt>
      <trkpt lat="42.490933025255799" lon="2.073700027540326">
        <ele>1510.8499999999999</ele>
        <time>2025-05-15T07:31:59Z</time>
      </trkpt>
      <trkpt lat="42.491684965789318" lon="2.076127007603645">
        <ele>1517.5799999999999</ele>
        <time>2025-05-15T07:32:08Z</time>
      </trkpt>
      <trkpt lat="42.491800971329212" lon="2.076347032561898">
        <ele>1518.54</ele>
        <time>2025-05-15T07:32:09Z</time>
      </trkpt>
      <trkpt lat="42.491942038759589" lon="2.076565967872739">
        <ele>1519.5</ele>
        <time>2025-05-15T07:32:10Z</time>
      </trkpt>
      <trkpt lat="42.492112023755908" lon="2.076722960919142">
        <ele>1520.46</ele>
        <time>2025-05-15T07:32:11Z</time>
      </trkpt>
      <trkpt lat="42.492288965731859" lon="2.076888000592589">
        <ele>1520.9400000000001</ele>
        <time>2025-05-15T07:32:12Z</time>
      </trkpt>
      <trkpt lat="42.492468003183603" lon="2.077053040266037">
        <ele>1521.9000000000001</ele>
        <time>2025-05-15T07:32:13Z</time>
      </trkpt>
      <trkpt lat="42.492615021765232" lon="2.077264012768865">
        <ele>1522.3900000000001</ele>
        <time>2025-05-15T07:32:14Z</time>
      </trkpt>
      <trkpt lat="42.493454972282052" lon="2.078706035390496">
        <ele>1528.1500000000001</ele>
        <time>2025-05-15T07:32:20Z</time>
      </trkpt>
      <trkpt lat="42.493612971156836" lon="2.078902004286647">
        <ele>1529.1099999999999</ele>
        <time>2025-05-15T07:32:21Z</time>
      </trkpt>
      <trkpt lat="42.493784967809916" lon="2.079074000939727">
        <ele>1530.0799999999999</ele>
        <time>2025-05-15T07:32:22Z</time>
      </trkpt>
      <trkpt lat="42.493951013311744" lon="2.079239962622523">
        <ele>1530.5599999999999</ele>
        <time>2025-05-15T07:32:23Z</time>
      </trkpt>
      <trkpt lat="42.49411404132843" lon="2.07940399646759">
        <ele>1531.04</ele>
        <time>2025-05-15T07:32:24Z</time>
      </trkpt>
      <trkpt lat="42.494263993576169" lon="2.079586973413825">
        <ele>1532</ele>
        <time>2025-05-15T07:32:25Z</time>
      </trkpt>
      <trkpt lat="42.494370024651289" lon="2.079824013635516">
        <ele>1532.96</ele>
        <time>2025-05-15T07:32:26Z</time>
      </trkpt>
      <trkpt lat="42.494446970522404" lon="2.080082008615136">
        <ele>1533.4400000000001</ele>
        <time>2025-05-15T07:32:27Z</time>
      </trkpt>
      <trkpt lat="42.494508996605873" lon="2.080361964181066">
        <ele>1534.4000000000001</ele>
        <time>2025-05-15T07:32:28Z</time>
      </trkpt>
      <trkpt lat="42.494558030739427" lon="2.080661030486226">
        <ele>1534.8800000000001</ele>
        <time>2025-05-15T07:32:29Z</time>
      </trkpt>
      <trkpt lat="42.494949968531728" lon="2.084933035075665">
        <ele>1547.8599999999999</ele>
        <time>2025-05-15T07:32:43Z</time>
      </trkpt>
      <trkpt lat="42.495092041790485" lon="2.086941003799439">
        <ele>1556.03</ele>
        <time>2025-05-15T07:32:50Z</time>
      </trkpt>
      <trkpt lat="42.496045986190438" lon="2.090719984844327">
        <ele>1570.9300000000001</ele>
        <time>2025-05-15T07:33:04Z</time>
      </trkpt>
      <trkpt lat="42.496381010860205" lon="2.092033009976149">
        <ele>1576.7</ele>
        <time>2025-05-15T07:33:11Z</time>
      </trkpt>
      <trkpt lat="42.496750988066196" lon="2.093356009572744">
        <ele>1581.03</ele>
        <time>2025-05-15T07:33:20Z</time>
      </trkpt>
      <trkpt lat="42.496955003589392" lon="2.093936037272215">
        <ele>1581.51</ele>
        <time>2025-05-15T07:33:24Z</time>
      </trkpt>
      <trkpt lat="42.497027004137635" lon="2.09403301589191">
        <ele>1581.51</ele>
        <time>2025-05-15T07:33:25Z</time>
      </trkpt>
      <trkpt lat="42.497145021334291" lon="2.094097975641489">
        <ele>1581.51</ele>
        <time>2025-05-15T07:33:26Z</time>
      </trkpt>
      <trkpt lat="42.497249962761998" lon="2.094139968976378">
        <ele>1581.03</ele>
        <time>2025-05-15T07:33:27Z</time>
      </trkpt>
      <trkpt lat="42.497367979958653" lon="2.094139968976378">
        <ele>1580.54</ele>
        <time>2025-05-15T07:33:28Z</time>
      </trkpt>
      <trkpt lat="42.497498989105225" lon="2.094139968976378">
        <ele>1580.0599999999999</ele>
        <time>2025-05-15T07:33:29Z</time>
      </trkpt>
      <trkpt lat="42.497605020180345" lon="2.094113985076547">
        <ele>1579.5799999999999</ele>
        <time>2025-05-15T07:33:30Z</time>
      </trkpt>
      <trkpt lat="42.497974997386336" lon="2.094040978699923">
        <ele>1578.1400000000001</ele>
        <time>2025-05-15T07:33:33Z</time>
      </trkpt>
      <trkpt lat="42.498096032068133" lon="2.094061011448503">
        <ele>1577.6600000000001</ele>
        <time>2025-05-15T07:33:34Z</time>
      </trkpt>
      <trkpt lat="42.498217988759279" lon="2.094080960378051">
        <ele>1576.7</ele>
        <time>2025-05-15T07:33:35Z</time>
      </trkpt>
      <trkpt lat="42.498342040926218" lon="2.094109039753676">
        <ele>1576.22</ele>
        <time>2025-05-15T07:33:36Z</time>
      </trkpt>
      <trkpt lat="42.498458968475461" lon="2.094161007553339">
        <ele>1575.74</ele>
        <time>2025-05-15T07:33:37Z</time>
      </trkpt>
      <trkpt lat="42.498572962358594" lon="2.094222027808428">
        <ele>1575.26</ele>
        <time>2025-05-15T07:33:38Z</time>
      </trkpt>
      <trkpt lat="42.498682010918856" lon="2.09429201669991">
        <ele>1574.78</ele>
        <time>2025-05-15T07:33:39Z</time>
      </trkpt>
      <trkpt lat="42.498787036165595" lon="2.094380026683211">
        <ele>1574.3</ele>
        <time>2025-05-15T07:33:40Z</time>
      </trkpt>
      <trkpt lat="42.498878985643387" lon="2.094482034444809">
        <ele>1573.8199999999999</ele>
        <time>2025-05-15T07:33:41Z</time>
      </trkpt>
      <trkpt lat="42.49897001311183" lon="2.094585970044136">
        <ele>1573.3299999999999</ele>
        <time>2025-05-15T07:33:42Z</time>
      </trkpt>
      <trkpt lat="42.499046958982944" lon="2.094707004725933">
        <ele>1572.8499999999999</ele>
        <time>2025-05-15T07:33:43Z</time>
      </trkpt>
      <trkpt lat="42.49912197701633" lon="2.09482803940773">
        <ele>1572.8499999999999</ele>
        <time>2025-05-15T07:33:44Z</time>
      </trkpt>
      <trkpt lat="42.499639978632331" lon="2.095906035974622">
        <ele>1573.8199999999999</ele>
        <time>2025-05-15T07:33:52Z</time>
      </trkpt>
      <trkpt lat="42.499675014987588" lon="2.096061017364264">
        <ele>1573.8199999999999</ele>
        <time>2025-05-15T07:33:53Z</time>
      </trkpt>
      <trkpt lat="42.499709967523813" lon="2.096213987097144">
        <ele>1574.3</ele>
        <time>2025-05-15T07:33:54Z</time>
      </trkpt>
      <trkpt lat="42.499827984720469" lon="2.096965005621314">
        <ele>1575.26</ele>
        <time>2025-05-15T07:33:58Z</time>
      </trkpt>
      <trkpt lat="42.499885987490416" lon="2.097171032801271">
        <ele>1575.74</ele>
        <time>2025-05-15T07:33:59Z</time>
      </trkpt>
      <trkpt lat="42.499967040494084" lon="2.097373036667705">
        <ele>1575.74</ele>
        <time>2025-05-15T07:34:00Z</time>
      </trkpt>
      <trkpt lat="42.500077011063695" lon="2.097561964765191">
        <ele>1576.22</ele>
        <time>2025-05-15T07:34:01Z</time>
      </trkpt>
      <trkpt lat="42.500210031867027" lon="2.097734967246652">
        <ele>1576.7</ele>
        <time>2025-05-15T07:34:02Z</time>
      </trkpt>
      <trkpt lat="42.500347997993231" lon="2.097905036062002">
        <ele>1576.7</ele>
        <time>2025-05-15T07:34:03Z</time>
      </trkpt>
      <trkpt lat="42.501362962648273" lon="2.099055033177137">
        <ele>1578.1400000000001</ele>
        <time>2025-05-15T07:34:10Z</time>
      </trkpt>
      <trkpt lat="42.501522973179817" lon="2.099173972383142">
        <ele>1578.1400000000001</ele>
        <time>2025-05-15T07:34:11Z</time>
      </trkpt>
      <trkpt lat="42.501694969832897" lon="2.099266005679965">
        <ele>1578.1400000000001</ele>
        <time>2025-05-15T07:34:12Z</time>
      </trkpt>
      <trkpt lat="42.501879958435893" lon="2.099312022328377">
        <ele>1578.1400000000001</ele>
        <time>2025-05-15T07:34:13Z</time>
      </trkpt>
      <trkpt lat="42.502067964524031" lon="2.099358960986137">
        <ele>1578.1400000000001</ele>
        <time>2025-05-15T07:34:14Z</time>
      </trkpt>
      <trkpt lat="42.502438025549054" lon="2.099464992061257">
        <ele>1577.1800000000001</ele>
        <time>2025-05-15T07:34:16Z</time>
      </trkpt>
      <trkpt lat="42.502607004716992" lon="2.099557025358081">
        <ele>1576.7</ele>
        <time>2025-05-15T07:34:17Z</time>
      </trkpt>
      <trkpt lat="42.502762991935015" lon="2.099694991484284">
        <ele>1576.22</ele>
        <time>2025-05-15T07:34:18Z</time>
      </trkpt>
      <trkpt lat="42.502915039658546" lon="2.099837986752391">
        <ele>1576.22</ele>
        <time>2025-05-15T07:34:19Z</time>
      </trkpt>
      <trkpt lat="42.503044037148356" lon="2.100031021982431">
        <ele>1575.74</ele>
        <time>2025-05-15T07:34:20Z</time>
      </trkpt>
      <trkpt lat="42.503155013546348" lon="2.100245011970401">
        <ele>1575.74</ele>
        <time>2025-05-15T07:34:21Z</time>
      </trkpt>
      <trkpt lat="42.5032680016011" lon="2.100463025271893">
        <ele>1575.74</ele>
        <time>2025-05-15T07:34:22Z</time>
      </trkpt>
      <trkpt lat="42.503370009362698" lon="2.100704004988074">
        <ele>1575.26</ele>
        <time>2025-05-15T07:34:23Z</time>
      </trkpt>
      <trkpt lat="42.503472017124295" lon="2.100948002189398">
        <ele>1575.26</ele>
        <time>2025-05-15T07:34:24Z</time>
      </trkpt>
      <trkpt lat="42.504402995109558" lon="2.103283032774925">
        <ele>1572.8499999999999</ele>
        <time>2025-05-15T07:34:33Z</time>
      </trkpt>
      <trkpt lat="42.504433002322912" lon="2.103572962805629">
        <ele>1572.8499999999999</ele>
        <time>2025-05-15T07:34:34Z</time>
      </trkpt>
      <trkpt lat="42.504457980394363" lon="2.103859037160873">
        <ele>1572.3699999999999</ele>
        <time>2025-05-15T07:34:35Z</time>
      </trkpt>
      <trkpt lat="42.504506008699536" lon="2.1044119913131">
        <ele>1572.3699999999999</ele>
        <time>2025-05-15T07:34:37Z</time>
      </trkpt>
      <trkpt lat="42.5045579764992" lon="2.104677027091384">
        <ele>1572.3699999999999</ele>
        <time>2025-05-15T07:34:38Z</time>
      </trkpt>
      <trkpt lat="42.504781018942595" lon="2.105757035315037">
        <ele>1571.4100000000001</ele>
        <time>2025-05-15T07:34:42Z</time>
      </trkpt>
      <trkpt lat="42.504783030599356" lon="2.10604696534574">
        <ele>1571.4100000000001</ele>
        <time>2025-05-15T07:34:43Z</time>
      </trkpt>
      <trkpt lat="42.504765009507537" lon="2.106334967538714">
        <ele>1571.8900000000001</ele>
        <time>2025-05-15T07:34:44Z</time>
      </trkpt>
      <trkpt lat="42.504709018394351" lon="2.107208026573062">
        <ele>1572.3699999999999</ele>
        <time>2025-05-15T07:34:47Z</time>
      </trkpt>
      <trkpt lat="42.504739025607705" lon="2.107494017109275">
        <ele>1572.8499999999999</ele>
        <time>2025-05-15T07:34:48Z</time>
      </trkpt>
      <trkpt lat="42.504833992570639" lon="2.108668992295861">
        <ele>1573.8199999999999</ele>
        <time>2025-05-15T07:34:52Z</time>
      </trkpt>
      <trkpt lat="42.5048169773072" lon="2.10950399748981">
        <ele>1574.3</ele>
        <time>2025-05-15T07:34:55Z</time>
      </trkpt>
      <trkpt lat="42.504846984520555" lon="2.109723016619682">
        <ele>1573.8199999999999</ele>
        <time>2025-05-15T07:34:56Z</time>
      </trkpt>
      <trkpt lat="42.504914961755276" lon="2.109928959980607">
        <ele>1574.3</ele>
        <time>2025-05-15T07:34:57Z</time>
      </trkpt>
      <trkpt lat="42.505011018365622" lon="2.110129036009312">
        <ele>1574.3</ele>
        <time>2025-05-15T07:34:58Z</time>
      </trkpt>
      <trkpt lat="42.505124006420374" lon="2.11032098159194">
        <ele>1573.8199999999999</ele>
        <time>2025-05-15T07:34:59Z</time>
      </trkpt>
      <trkpt lat="42.505236994475126" lon="2.110510999336839">
        <ele>1573.8199999999999</ele>
        <time>2025-05-15T07:35:00Z</time>
      </trkpt>
      <trkpt lat="42.505313018336892" lon="2.110722977668047">
        <ele>1573.8199999999999</ele>
        <time>2025-05-15T07:35:01Z</time>
      </trkpt>
      <trkpt lat="42.505359034985304" lon="2.110961023718119">
        <ele>1573.3299999999999</ele>
        <time>2025-05-15T07:35:02Z</time>
      </trkpt>
      <trkpt lat="42.50545802526176" lon="2.111418005079031">
        <ele>1573.3299999999999</ele>
        <time>2025-05-15T07:35:04Z</time>
      </trkpt>
      <trkpt lat="42.505540000274777" lon="2.111624032258987">
        <ele>1573.3299999999999</ele>
        <time>2025-05-15T07:35:05Z</time>
      </trkpt>
      <trkpt lat="42.505644019693136" lon="2.111812960356474">
        <ele>1573.3299999999999</ele>
        <time>2025-05-15T07:35:06Z</time>
      </trkpt>
      <trkpt lat="42.505762036889791" lon="2.111999960616231">
        <ele>1573.3299999999999</ele>
        <time>2025-05-15T07:35:07Z</time>
      </trkpt>
      <trkpt lat="42.505904026329517" lon="2.112178998067975">
        <ele>1573.3299999999999</ele>
        <time>2025-05-15T07:35:08Z</time>
      </trkpt>
      <trkpt lat="42.506568040698767" lon="2.113049039617181">
        <ele>1573.3299999999999</ele>
        <time>2025-05-15T07:35:13Z</time>
      </trkpt>
      <trkpt lat="42.506650015711784" lon="2.113251965492964">
        <ele>1573.3299999999999</ele>
        <time>2025-05-15T07:35:14Z</time>
      </trkpt>
      <trkpt lat="42.506717992946506" lon="2.113466961309314">
        <ele>1572.8499999999999</ele>
        <time>2025-05-15T07:35:15Z</time>
      </trkpt>
      <trkpt lat="42.506743976846337" lon="2.113696038722992">
        <ele>1572.8499999999999</ele>
        <time>2025-05-15T07:35:16Z</time>
      </trkpt>
      <trkpt lat="42.506763003766537" lon="2.113916985690594">
        <ele>1572.8499999999999</ele>
        <time>2025-05-15T07:35:17Z</time>
      </trkpt>
      <trkpt lat="42.506800973787904" lon="2.11431797593832">
        <ele>1572.8499999999999</ele>
        <time>2025-05-15T07:35:19Z</time>
      </trkpt>
      <trkpt lat="42.507090987637639" lon="2.115319026634097">
        <ele>1570.9300000000001</ele>
        <time>2025-05-15T07:35:26Z</time>
      </trkpt>
      <trkpt lat="42.50715603120625" lon="2.11536998860538">
        <ele>1571.4100000000001</ele>
        <time>2025-05-15T07:35:27Z</time>
      </trkpt>
      <trkpt lat="42.507202969864011" lon="2.115407958626747">
        <ele>1571.4100000000001</ele>
        <time>2025-05-15T07:35:28Z</time>
      </trkpt>
      <trkpt lat="42.507248986512423" lon="2.115445006638765">
        <ele>1571.4100000000001</ele>
        <time>2025-05-15T07:35:29Z</time>
      </trkpt>
      <trkpt lat="42.50724102370441" lon="2.115640975534916">
        <ele>1571.4100000000001</ele>
        <time>2025-05-15T07:35:30Z</time>
      </trkpt>
      <trkpt lat="42.507255021482706" lon="2.115721022710204">
        <ele>1571.4100000000001</ele>
        <time>2025-05-15T07:35:31Z</time>
      </trkpt>
      <trkpt lat="42.507329033687711" lon="2.115819007158279">
        <ele>1571.8900000000001</ele>
        <time>2025-05-15T07:35:32Z</time>
      </trkpt>
      <trkpt lat="42.507348982617259" lon="2.115834010764957">
        <ele>1571.8900000000001</ele>
        <time>2025-05-15T07:35:33Z</time>
      </trkpt>
      <trkpt lat="42.5075420178473" lon="2.115940963849425">
        <ele>1571.4100000000001</ele>
        <time>2025-05-15T07:35:34Z</time>
      </trkpt>
      <trkpt lat="42.507591973990202" lon="2.115980023518205">
        <ele>1571.4100000000001</ele>
        <time>2025-05-15T07:35:35Z</time>
      </trkpt>
      <trkpt lat="42.507687024772167" lon="2.116054035723209">
        <ele>1571.4100000000001</ele>
        <time>2025-05-15T07:35:36Z</time>
      </trkpt>
      <trkpt lat="42.507791966199875" lon="2.116106003522873">
        <ele>1571.4100000000001</ele>
        <time>2025-05-15T07:35:37Z</time>
      </trkpt>
      <trkpt lat="42.507917024195194" lon="2.116137016564608">
        <ele>1570.9300000000001</ele>
        <time>2025-05-15T07:35:38Z</time>
      </trkpt>
      <trkpt lat="42.508441982790828" lon="2.116298032924533">
        <ele>1569.49</ele>
        <time>2025-05-15T07:35:42Z</time>
      </trkpt>
      <trkpt lat="42.508540973067284" lon="2.116397023200989">
        <ele>1569.01</ele>
        <time>2025-05-15T07:35:43Z</time>
      </trkpt>
      <trkpt lat="42.508615991100669" lon="2.1164879668504">
        <ele>1568.53</ele>
        <time>2025-05-15T07:35:44Z</time>
      </trkpt>
      <trkpt lat="42.508679023012519" lon="2.116562984883785">
        <ele>1567.5699999999999</ele>
        <time>2025-05-15T07:35:45Z</time>
      </trkpt>
      <trkpt lat="42.508692014962435" lon="2.116635991260409">
        <ele>1567.0899999999999</ele>
        <time>2025-05-15T07:35:46Z</time>
      </trkpt>
      <trkpt lat="42.50870400108397" lon="2.116705980151892">
        <ele>1566.6099999999999</ele>
        <time>2025-05-15T07:35:47Z</time>
      </trkpt>
      <trkpt lat="42.508714981377125" lon="2.1167659945786">
        <ele>1565.6400000000001</ele>
        <time>2025-05-15T07:35:48Z</time>
      </trkpt>
      <trkpt lat="42.508725039660931" lon="2.116822991520166">
        <ele>1565.1600000000001</ele>
        <time>2025-05-15T07:35:49Z</time>
      </trkpt>
      <trkpt lat="42.508742976933718" lon="2.116928016766906">
        <ele>1564.6800000000001</ele>
        <time>2025-05-15T07:35:50Z</time>
      </trkpt>
      <trkpt lat="42.508727973327041" lon="2.116989037021995">
        <ele>1564.2</ele>
        <time>2025-05-15T07:35:51Z</time>
      </trkpt>
      <trkpt lat="42.50870400108397" lon="2.117086015641689">
        <ele>1563.72</ele>
        <time>2025-05-15T07:35:52Z</time>
      </trkpt>
      <trkpt lat="42.508671982213855" lon="2.117201015353203">
        <ele>1563.24</ele>
        <time>2025-05-15T07:35:53Z</time>
      </trkpt>
      <trkpt lat="42.508624037727714" lon="2.117316015064716">
        <ele>1563.24</ele>
        <time>2025-05-15T07:35:54Z</time>
      </trkpt>
      <trkpt lat="42.508322959765792" lon="2.118004001677036">
        <ele>1561.8</ele>
        <time>2025-05-15T07:35:59Z</time>
      </trkpt>
      <trkpt lat="42.50825397670269" lon="2.11814196780324">
        <ele>1561.8</ele>
        <time>2025-05-15T07:36:00Z</time>
      </trkpt>
      <trkpt lat="42.508164960891008" lon="2.118255039677024">
        <ele>1561.8</ele>
        <time>2025-05-15T07:36:01Z</time>
      </trkpt>
      <trkpt lat="42.50808097422123" lon="2.11835796944797">
        <ele>1561.3199999999999</ele>
        <time>2025-05-15T07:36:02Z</time>
      </trkpt>
      <trkpt lat="42.508006962016225" lon="2.118447991088033">
        <ele>1561.3199999999999</ele>
        <time>2025-05-15T07:36:03Z</time>
      </trkpt>
      <trkpt lat="42.507946025580168" lon="2.118523009121418">
        <ele>1561.3199999999999</ele>
        <time>2025-05-15T07:36:04Z</time>
      </trkpt>
      <trkpt lat="42.507713008671999" lon="2.118838001042604">
        <ele>1561.3199999999999</ele>
        <time>2025-05-15T07:36:08Z</time>
      </trkpt>
      <trkpt lat="42.50767101533711" lon="2.118940008804202">
        <ele>1561.3199999999999</ele>
        <time>2025-05-15T07:36:09Z</time>
      </trkpt>
      <trkpt lat="42.507605971768498" lon="2.119094990193844">
        <ele>1561.3199999999999</ele>
        <time>2025-05-15T07:36:10Z</time>
      </trkpt>
      <trkpt lat="42.507437998428941" lon="2.11975296959281">
        <ele>1560.3599999999999</ele>
        <time>2025-05-15T07:36:14Z</time>
      </trkpt>
      <trkpt lat="42.507364992052317" lon="2.119899988174439">
        <ele>1560.3599999999999</ele>
        <time>2025-05-15T07:36:15Z</time>
      </trkpt>
      <trkpt lat="42.507277987897396" lon="2.120042983442545">
        <ele>1559.8800000000001</ele>
        <time>2025-05-15T07:36:16Z</time>
      </trkpt>
      <trkpt lat="42.506989985704422" lon="2.120436010882258">
        <ele>1558.9200000000001</ele>
        <time>2025-05-15T07:36:19Z</time>
      </trkpt>
      <trkpt lat="42.506799967959523" lon="2.12069601751864">
        <ele>1558.4300000000001</ele>
        <time>2025-05-15T07:36:21Z</time>
      </trkpt>
      <trkpt lat="42.506712041795254" lon="2.120815040543675">
        <ele>1557.95</ele>
        <time>2025-05-15T07:36:22Z</time>
      </trkpt>
      <trkpt lat="42.506669964641333" lon="2.120964992791414">
        <ele>1557.95</ele>
        <time>2025-05-15T07:36:23Z</time>
      </trkpt>
      <trkpt lat="42.506651021540165" lon="2.121131960302591">
        <ele>1557.95</ele>
        <time>2025-05-15T07:36:24Z</time>
      </trkpt>
      <trkpt lat="42.506651021540165" lon="2.121295994147658">
        <ele>1557.95</ele>
        <time>2025-05-15T07:36:25Z</time>
      </trkpt>
      <trkpt lat="42.506674993783236" lon="2.121464973315597">
        <ele>1557.95</ele>
        <time>2025-05-15T07:36:26Z</time>
      </trkpt>
      <trkpt lat="42.50672603957355" lon="2.122002001851797">
        <ele>1557.47</ele>
        <time>2025-05-15T07:36:29Z</time>
      </trkpt>
      <trkpt lat="42.506734002381563" lon="2.122499970719218">
        <ele>1557.47</ele>
        <time>2025-05-15T07:36:32Z</time>
      </trkpt>
      <trkpt lat="42.506767027080059" lon="2.122645983472467">
        <ele>1557.47</ele>
        <time>2025-05-15T07:36:33Z</time>
      </trkpt>
      <trkpt lat="42.506828969344497" lon="2.122756959870458">
        <ele>1557.47</ele>
        <time>2025-05-15T07:36:34Z</time>
      </trkpt>
      <trkpt lat="42.50689996406436" lon="2.122873971238732">
        <ele>1557.47</ele>
        <time>2025-05-15T07:36:35Z</time>
      </trkpt>
      <trkpt lat="42.506991997361183" lon="2.12297597900033">
        <ele>1556.99</ele>
        <time>2025-05-15T07:36:36Z</time>
      </trkpt>
      <trkpt lat="42.507084030658007" lon="2.123075975105166">
        <ele>1556.99</ele>
        <time>2025-05-15T07:36:37Z</time>
      </trkpt>
      <trkpt lat="42.507160976529121" lon="2.12318804115057">
        <ele>1556.99</ele>
        <time>2025-05-15T07:36:38Z</time>
      </trkpt>
      <trkpt lat="42.507274970412254" lon="2.123457016423345">
        <ele>1557.47</ele>
        <time>2025-05-15T07:36:40Z</time>
      </trkpt>
      <trkpt lat="42.5075229909271" lon="2.124060010537505">
        <ele>1558.9200000000001</ele>
        <time>2025-05-15T07:36:44Z</time>
      </trkpt>
      <trkpt lat="42.507615024223924" lon="2.124167969450355">
        <ele>1558.9200000000001</ele>
        <time>2025-05-15T07:36:45Z</time>
      </trkpt>
      <trkpt lat="42.507721977308393" lon="2.124269977211952">
        <ele>1559.4000000000001</ele>
        <time>2025-05-15T07:36:46Z</time>
      </trkpt>
      <trkpt lat="42.507937978953123" lon="2.124473992735148">
        <ele>1559.4000000000001</ele>
        <time>2025-05-15T07:36:48Z</time>
      </trkpt>
      <trkpt lat="42.508036969229579" lon="2.124583963304758">
        <ele>1558.9200000000001</ele>
        <time>2025-05-15T07:36:49Z</time>
      </trkpt>
      <trkpt lat="42.508141994476318" lon="2.124683959409595">
        <ele>1558.4300000000001</ele>
        <time>2025-05-15T07:36:50Z</time>
      </trkpt>
      <trkpt lat="42.5082500372082" lon="2.124775992706418">
        <ele>1557.47</ele>
        <time>2025-05-15T07:36:51Z</time>
      </trkpt>
      <trkpt lat="42.50836000777781" lon="2.124854028224945">
        <ele>1556.51</ele>
        <time>2025-05-15T07:36:52Z</time>
      </trkpt>
      <trkpt lat="42.50846897251904" lon="2.124942960217595">
        <ele>1555.55</ele>
        <time>2025-05-15T07:36:53Z</time>
      </trkpt>
      <trkpt lat="42.508581960573792" lon="2.12503700517118">
        <ele>1555.0699999999999</ele>
        <time>2025-05-15T07:36:54Z</time>
      </trkpt>
      <trkpt lat="42.50868396833539" lon="2.125168014317751">
        <ele>1554.1099999999999</ele>
        <time>2025-05-15T07:36:55Z</time>
      </trkpt>
      <trkpt lat="42.50876703299582" lon="2.12531503289938">
        <ele>1553.1500000000001</ele>
        <time>2025-05-15T07:36:56Z</time>
      </trkpt>
      <trkpt lat="42.508846996352077" lon="2.125460039824247">
        <ele>1552.6700000000001</ele>
        <time>2025-05-15T07:36:57Z</time>
      </trkpt>
      <trkpt lat="42.509009018540382" lon="2.12570202536881">
        <ele>1550.74</ele>
        <time>2025-05-15T07:36:59Z</time>
      </trkpt>
      <trkpt lat="42.509067021310329" lon="2.125747036188841">
        <ele>1549.78</ele>
        <time>2025-05-15T07:37:00Z</time>
      </trkpt>
      <trkpt lat="42.509152013808489" lon="2.125747036188841">
        <ele>1548.8199999999999</ele>
        <time>2025-05-15T07:37:01Z</time>
      </trkpt>
      <trkpt lat="42.509214961901307" lon="2.125747036188841">
        <ele>1547.8599999999999</ele>
        <time>2025-05-15T07:37:02Z</time>
      </trkpt>
      <trkpt lat="42.509267013520002" lon="2.12568199262023">
        <ele>1546.4200000000001</ele>
        <time>2025-05-15T07:37:03Z</time>
      </trkpt>
      <trkpt lat="42.509304983541369" lon="2.125608986243606">
        <ele>1545.9400000000001</ele>
        <time>2025-05-15T07:37:04Z</time>
      </trkpt>
      <trkpt lat="42.509323004633188" lon="2.1254469640553">
        <ele>1544.98</ele>
        <time>2025-05-15T07:37:05Z</time>
      </trkpt>
      <trkpt lat="42.509313030168414" lon="2.125326013192534">
        <ele>1544.5</ele>
        <time>2025-05-15T07:37:06Z</time>
      </trkpt>
      <trkpt lat="42.509300960227847" lon="2.125155022367835">
        <ele>1543.53</ele>
        <time>2025-05-15T07:37:07Z</time>
      </trkpt>
      <trkpt lat="42.509300960227847" lon="2.124796025454998">
        <ele>1541.6099999999999</ele>
        <time>2025-05-15T07:37:09Z</time>
      </trkpt>
      <trkpt lat="42.509376984089613" lon="2.124497964978218">
        <ele>1539.21</ele>
        <time>2025-05-15T07:37:11Z</time>
      </trkpt>
      <trkpt lat="42.509430041536689" lon="2.124330997467041">
        <ele>1538.25</ele>
        <time>2025-05-15T07:37:12Z</time>
      </trkpt>
      <trkpt lat="42.509516039863229" lon="2.124198982492089">
        <ele>1537.29</ele>
        <time>2025-05-15T07:37:13Z</time>
      </trkpt>
      <trkpt lat="42.510115010663867" lon="2.123307986184955">
        <ele>1531.52</ele>
        <time>2025-05-15T07:37:19Z</time>
      </trkpt>
      <trkpt lat="42.51020897179842" lon="2.123193992301822">
        <ele>1530.5599999999999</ele>
        <time>2025-05-15T07:37:20Z</time>
      </trkpt>
      <trkpt lat="42.510333023965359" lon="2.123150993138552">
        <ele>1529.5899999999999</ele>
        <time>2025-05-15T07:37:21Z</time>
      </trkpt>
      <trkpt lat="42.510461015626788" lon="2.123156022280455">
        <ele>1528.6300000000001</ele>
        <time>2025-05-15T07:37:22Z</time>
      </trkpt>
      <trkpt lat="42.510597975924611" lon="2.123186029493809">
        <ele>1527.6700000000001</ele>
        <time>2025-05-15T07:37:23Z</time>
      </trkpt>
      <trkpt lat="42.510735020041466" lon="2.123216958716512">
        <ele>1526.71</ele>
        <time>2025-05-15T07:37:24Z</time>
      </trkpt>
      <trkpt lat="42.51085395924747" lon="2.123223999515176">
        <ele>1525.27</ele>
        <time>2025-05-15T07:37:25Z</time>
      </trkpt>
      <trkpt lat="42.51095999032259" lon="2.123176977038384">
        <ele>1524.3099999999999</ele>
        <time>2025-05-15T07:37:26Z</time>
      </trkpt>
      <trkpt lat="42.511050011962652" lon="2.123117968440056">
        <ele>1523.8299999999999</ele>
        <time>2025-05-15T07:37:27Z</time>
      </trkpt>
      <trkpt lat="42.511127963662148" lon="2.123036999255419">
        <ele>1523.3499999999999</ele>
        <time>2025-05-15T07:37:28Z</time>
      </trkpt>
      <trkpt lat="42.511197030544281" lon="2.122966004535556">
        <ele>1522.3900000000001</ele>
        <time>2025-05-15T07:37:29Z</time>
      </trkpt>
      <trkpt lat="42.511657029390335" lon="2.122522015124559">
        <ele>1518.54</ele>
        <time>2025-05-15T07:37:36Z</time>
      </trkpt>
      <trkpt lat="42.511732969433069" lon="2.122510029003024">
        <ele>1518.54</ele>
        <time>2025-05-15T07:37:37Z</time>
      </trkpt>
      <trkpt lat="42.511796001344919" lon="2.122539030387998">
        <ele>1518.0599999999999</ele>
        <time>2025-05-15T07:37:38Z</time>
      </trkpt>
      <trkpt lat="42.511870013549924" lon="2.1225889865309">
        <ele>1518.0599999999999</ele>
        <time>2025-05-15T07:37:39Z</time>
      </trkpt>
      <trkpt lat="42.511943019926548" lon="2.122638020664454">
        <ele>1517.5799999999999</ele>
        <time>2025-05-15T07:37:40Z</time>
      </trkpt>
      <trkpt lat="42.512000016868114" lon="2.122700968757272">
        <ele>1517.5799999999999</ele>
        <time>2025-05-15T07:37:41Z</time>
      </trkpt>
      <trkpt lat="42.512049973011017" lon="2.122756037861109">
        <ele>1517.0999999999999</ele>
        <time>2025-05-15T07:37:42Z</time>
      </trkpt>
      <trkpt lat="42.512096995487809" lon="2.122808005660772">
        <ele>1517.0999999999999</ele>
        <time>2025-05-15T07:37:43Z</time>
      </trkpt>
      <trkpt lat="42.512154998257756" lon="2.122871959581971">
        <ele>1516.6199999999999</ele>
        <time>2025-05-15T07:37:44Z</time>
      </trkpt>
      <trkpt lat="42.512166984379292" lon="2.122954018414021">
        <ele>1516.6199999999999</ele>
        <time>2025-05-15T07:37:45Z</time>
      </trkpt>
      <trkpt lat="42.512170001864433" lon="2.123054014518857">
        <ele>1516.6199999999999</ele>
        <time>2025-05-15T07:37:46Z</time>
      </trkpt>
      <trkpt lat="42.512148041278124" lon="2.123159961774945">
        <ele>1516.6199999999999</ele>
        <time>2025-05-15T07:37:47Z</time>
      </trkpt>
      <trkpt lat="42.512122979387641" lon="2.123283008113504">
        <ele>1516.1400000000001</ele>
        <time>2025-05-15T07:37:48Z</time>
      </trkpt>
      <trkpt lat="42.512095989659429" lon="2.123412005603313">
        <ele>1516.1400000000001</ele>
        <time>2025-05-15T07:37:49Z</time>
      </trkpt>
      <trkpt lat="42.512067994102836" lon="2.123546032235026">
        <ele>1516.1400000000001</ele>
        <time>2025-05-15T07:37:50Z</time>
      </trkpt>
      <trkpt lat="42.511965986341238" lon="2.123791035264731">
        <ele>1515.6600000000001</ele>
        <time>2025-05-15T07:37:52Z</time>
      </trkpt>
      <trkpt lat="42.511878982186317" lon="2.123889019712806">
        <ele>1515.6600000000001</ele>
        <time>2025-05-15T07:37:53Z</time>
      </trkpt>
      <trkpt lat="42.511778986081481" lon="2.12396495975554">
        <ele>1515.6600000000001</ele>
        <time>2025-05-15T07:37:54Z</time>
      </trkpt>
      <trkpt lat="42.511672032997012" lon="2.124032014980912">
        <ele>1515.6600000000001</ele>
        <time>2025-05-15T07:37:55Z</time>
      </trkpt>
      <trkpt lat="42.51156298443675" lon="2.124099992215633">
        <ele>1515.6600000000001</ele>
        <time>2025-05-15T07:37:56Z</time>
      </trkpt>
      <trkpt lat="42.51145301386714" lon="2.124168975278735">
        <ele>1515.6600000000001</ele>
        <time>2025-05-15T07:37:57Z</time>
      </trkpt>
      <trkpt lat="42.511343965306878" lon="2.124237036332488">
        <ele>1515.6600000000001</ele>
        <time>2025-05-15T07:37:58Z</time>
      </trkpt>
      <trkpt lat="42.511242041364312" lon="2.124300990253687">
        <ele>1516.1400000000001</ele>
        <time>2025-05-15T07:37:59Z</time>
      </trkpt>
      <trkpt lat="42.511146990582347" lon="2.124359998852015">
        <ele>1516.1400000000001</ele>
        <time>2025-05-15T07:38:00Z</time>
      </trkpt>
      <trkpt lat="42.511083958670497" lon="2.124451026320458">
        <ele>1516.6199999999999</ele>
        <time>2025-05-15T07:38:01Z</time>
      </trkpt>
      <trkpt lat="42.511021010577679" lon="2.124569965526462">
        <ele>1516.6199999999999</ele>
        <time>2025-05-15T07:38:02Z</time>
      </trkpt>
      <trkpt lat="42.51095999032259" lon="2.124684965237975">
        <ele>1516.6199999999999</ele>
        <time>2025-05-15T07:38:03Z</time>
      </trkpt>
      <trkpt lat="42.510939035564661" lon="2.124799964949489">
        <ele>1516.1400000000001</ele>
        <time>2025-05-15T07:38:04Z</time>
      </trkpt>
      <trkpt lat="42.510954039171338" lon="2.124941032379866">
        <ele>1516.1400000000001</ele>
        <time>2025-05-15T07:38:05Z</time>
      </trkpt>
      <trkpt lat="42.510969964787364" lon="2.125091990455985">
        <ele>1516.6199999999999</ele>
        <time>2025-05-15T07:38:06Z</time>
      </trkpt>
      <trkpt lat="42.510986980050802" lon="2.12525200098753">
        <ele>1516.6199999999999</ele>
        <time>2025-05-15T07:38:07Z</time>
      </trkpt>
      <trkpt lat="42.511094016954303" lon="2.125728009268642">
        <ele>1515.6600000000001</ele>
        <time>2025-05-15T07:38:10Z</time>
      </trkpt>
      <trkpt lat="42.511133998632431" lon="2.125891037285328">
        <ele>1515.6600000000001</ele>
        <time>2025-05-15T07:38:11Z</time>
      </trkpt>
      <trkpt lat="42.511245980858803" lon="2.126364028081298">
        <ele>1513.73</ele>
        <time>2025-05-15T07:38:14Z</time>
      </trkpt>
      <trkpt lat="42.511274982243776" lon="2.126497970893979">
        <ele>1513.73</ele>
        <time>2025-05-15T07:38:15Z</time>
      </trkpt>
      <trkpt lat="42.511257966980338" lon="2.126674996688962">
        <ele>1513.25</ele>
        <time>2025-05-15T07:38:16Z</time>
      </trkpt>
      <trkpt lat="42.511223014444113" lon="2.126826038584113">
        <ele>1512.77</ele>
        <time>2025-05-15T07:38:17Z</time>
      </trkpt>
      <trkpt lat="42.511169034987688" lon="2.126978002488613">
        <ele>1512.77</ele>
        <time>2025-05-15T07:38:18Z</time>
      </trkpt>
      <trkpt lat="42.51093802973628" lon="2.127957008779049">
        <ele>1509.8900000000001</ele>
        <time>2025-05-15T07:38:24Z</time>
      </trkpt>
      <trkpt lat="42.510888995602727" lon="2.128096986562014">
        <ele>1509.8900000000001</ele>
        <time>2025-05-15T07:38:25Z</time>
      </trkpt>
      <trkpt lat="42.510825041681528" lon="2.1282790414989">
        <ele>1508.9300000000001</ele>
        <time>2025-05-15T07:38:26Z</time>
      </trkpt>
      <trkpt lat="42.510821018368006" lon="2.128381971269846">
        <ele>1508.45</ele>
        <time>2025-05-15T07:38:27Z</time>
      </trkpt>
      <trkpt lat="42.510815989226103" lon="2.128528989851475">
        <ele>1507.97</ele>
        <time>2025-05-15T07:38:28Z</time>
      </trkpt>
      <trkpt lat="42.510806014761329" lon="2.128810035064817">
        <ele>1506.52</ele>
        <time>2025-05-15T07:38:30Z</time>
      </trkpt>
      <trkpt lat="42.510797968134284" lon="2.128906007856131">
        <ele>1506.04</ele>
        <time>2025-05-15T07:38:31Z</time>
      </trkpt>
      <trkpt lat="42.510736025869846" lon="2.128964010626078">
        <ele>1505.5599999999999</ele>
        <time>2025-05-15T07:38:32Z</time>
      </trkpt>
      <trkpt lat="42.510667964816093" lon="2.129026036709547">
        <ele>1505.5599999999999</ele>
        <time>2025-05-15T07:38:33Z</time>
      </trkpt>
      <trkpt lat="42.510590013116598" lon="2.129098037257791">
        <ele>1505.5599999999999</ele>
        <time>2025-05-15T07:38:34Z</time>
      </trkpt>
      <trkpt lat="42.510504014790058" lon="2.129169031977654">
        <ele>1506.04</ele>
        <time>2025-05-15T07:38:35Z</time>
      </trkpt>
      <trkpt lat="42.510416004806757" lon="2.129213036969304">
        <ele>1506.04</ele>
        <time>2025-05-15T07:38:36Z</time>
      </trkpt>
      <trkpt lat="42.510323971509933" lon="2.129246983677149">
        <ele>1505.5599999999999</ele>
        <time>2025-05-15T07:38:37Z</time>
      </trkpt>
      <trkpt lat="42.510225987061858" lon="2.129256958141923">
        <ele>1505.5599999999999</ele>
        <time>2025-05-15T07:38:38Z</time>
      </trkpt>
      <trkpt lat="42.51012003980577" lon="2.129267016425729">
        <ele>1505.5599999999999</ele>
        <time>2025-05-15T07:38:39Z</time>
      </trkpt>
      <trkpt lat="42.510007973760366" lon="2.129277996718884">
        <ele>1505.0799999999999</ele>
        <time>2025-05-15T07:38:40Z</time>
      </trkpt>
      <trkpt lat="42.509902026504278" lon="2.129287971183658">
        <ele>1505.0799999999999</ele>
        <time>2025-05-15T07:38:41Z</time>
      </trkpt>
      <trkpt lat="42.509812004864216" lon="2.129376986995339">
        <ele>1504.5999999999999</ele>
        <time>2025-05-15T07:38:42Z</time>
      </trkpt>
      <trkpt lat="42.508902987465262" lon="2.130203023552895">
        <ele>1504.1199999999999</ele>
        <time>2025-05-15T07:38:50Z</time>
      </trkpt>
      <trkpt lat="42.508768960833549" lon="2.130224984139204">
        <ele>1504.1199999999999</ele>
        <time>2025-05-15T07:38:51Z</time>
      </trkpt>
      <trkpt lat="42.508173007518053" lon="2.130315005779266">
        <ele>1502.2</ele>
        <time>2025-05-15T07:38:55Z</time>
      </trkpt>
      <trkpt lat="42.50803898088634" lon="2.130388012155891">
        <ele>1502.2</ele>
        <time>2025-05-15T07:38:56Z</time>
      </trkpt>
      <trkpt lat="42.507915012538433" lon="2.130479961633682">
        <ele>1501.72</ele>
        <time>2025-05-15T07:38:57Z</time>
      </trkpt>
      <trkpt lat="42.507673026993871" lon="2.130679031834006">
        <ele>1500.27</ele>
        <time>2025-05-15T07:38:59Z</time>
      </trkpt>
      <trkpt lat="42.507540006190538" lon="2.130740974098444">
        <ele>1499.3099999999999</ele>
        <time>2025-05-15T07:39:00Z</time>
      </trkpt>
      <trkpt lat="42.507419977337122" lon="2.130797971040011">
        <ele>1498.3499999999999</ele>
        <time>2025-05-15T07:39:01Z</time>
      </trkpt>
      <trkpt lat="42.507341019809246" lon="2.130911964923143">
        <ele>1497.8699999999999</ele>
        <time>2025-05-15T07:39:02Z</time>
      </trkpt>
      <trkpt lat="42.507299026474357" lon="2.131041968241334">
        <ele>1496.9100000000001</ele>
        <time>2025-05-15T07:39:03Z</time>
      </trkpt>
      <trkpt lat="42.507281005382538" lon="2.13120399042964">
        <ele>1495.95</ele>
        <time>2025-05-15T07:39:04Z</time>
      </trkpt>
      <trkpt lat="42.507260972633958" lon="2.131382022053003">
        <ele>1494.99</ele>
        <time>2025-05-15T07:39:05Z</time>
      </trkpt>
      <trkpt lat="42.50724102370441" lon="2.131561981514096">
        <ele>1494.03</ele>
        <time>2025-05-15T07:39:06Z</time>
      </trkpt>
      <trkpt lat="42.507185032591224" lon="2.131771026179195">
        <ele>1493.0599999999999</ele>
        <time>2025-05-15T07:39:07Z</time>
      </trkpt>
      <trkpt lat="42.507130969315767" lon="2.131972024217248">
        <ele>1492.0999999999999</ele>
        <time>2025-05-15T07:39:08Z</time>
      </trkpt>
      <trkpt lat="42.507083024829626" lon="2.132173022255302">
        <ele>1491.1400000000001</ele>
        <time>2025-05-15T07:39:09Z</time>
      </trkpt>
      <trkpt lat="42.507052011787891" lon="2.132379971444607">
        <ele>1490.1800000000001</ele>
        <time>2025-05-15T07:39:10Z</time>
      </trkpt>
      <trkpt lat="42.50702896155417" lon="2.132589016109705">
        <ele>1489.22</ele>
        <time>2025-05-15T07:39:11Z</time>
      </trkpt>
      <trkpt lat="42.507039019837976" lon="2.132809963077307">
        <ele>1488.26</ele>
        <time>2025-05-15T07:39:12Z</time>
      </trkpt>
      <trkpt lat="42.50704899430275" lon="2.133024958893657">
        <ele>1487.78</ele>
        <time>2025-05-15T07:39:13Z</time>
      </trkpt>
      <trkpt lat="42.507065003737807" lon="2.133422009646893">
        <ele>1486.3399999999999</ele>
        <time>2025-05-15T07:39:15Z</time>
      </trkpt>
      <trkpt lat="42.507044970989227" lon="2.133633987978101">
        <ele>1485.3699999999999</ele>
        <time>2025-05-15T07:39:16Z</time>
      </trkpt>
      <trkpt lat="42.50696400180459" lon="2.133842026814818">
        <ele>1484.4100000000001</ele>
        <time>2025-05-15T07:39:17Z</time>
      </trkpt>
      <trkpt lat="42.506851013749838" lon="2.13397404178977">
        <ele>1483.45</ele>
        <time>2025-05-15T07:39:18Z</time>
      </trkpt>
      <trkpt lat="42.50672897323966" lon="2.134107984602451">
        <ele>1482.49</ele>
        <time>2025-05-15T07:39:19Z</time>
      </trkpt>
      <trkpt lat="42.506591007113457" lon="2.13421200402081">
        <ele>1481.53</ele>
        <time>2025-05-15T07:39:20Z</time>
      </trkpt>
      <trkpt lat="42.506453040987253" lon="2.13431803509593">
        <ele>1480.5699999999999</ele>
        <time>2025-05-15T07:39:21Z</time>
      </trkpt>
      <trkpt lat="42.506323959678411" lon="2.134422976523638">
        <ele>1479.6099999999999</ele>
        <time>2025-05-15T07:39:22Z</time>
      </trkpt>
      <trkpt lat="42.506225975230336" lon="2.134566977620125">
        <ele>1479.1300000000001</ele>
        <time>2025-05-15T07:39:23Z</time>
      </trkpt>
      <trkpt lat="42.506173001602292" lon="2.134724976494908">
        <ele>1478.1600000000001</ele>
        <time>2025-05-15T07:39:24Z</time>
      </trkpt>
      <trkpt lat="42.506139976903796" lon="2.134874006733298">
        <ele>1477.2</ele>
        <time>2025-05-15T07:39:25Z</time>
      </trkpt>
      <trkpt lat="42.506127990782261" lon="2.135023958981037">
        <ele>1476.24</ele>
        <time>2025-05-15T07:39:26Z</time>
      </trkpt>
      <trkpt lat="42.506167972460389" lon="2.135145999491215">
        <ele>1475.28</ele>
        <time>2025-05-15T07:39:27Z</time>
      </trkpt>
      <trkpt lat="42.506272997707129" lon="2.135268962010741">
        <ele>1474.3199999999999</ele>
        <time>2025-05-15T07:39:28Z</time>
      </trkpt>
      <trkpt lat="42.506379028782248" lon="2.135394020006061">
        <ele>1472.8800000000001</ele>
        <time>2025-05-15T07:39:29Z</time>
      </trkpt>
      <trkpt lat="42.506502997130156" lon="2.135487981140614">
        <ele>1471.9200000000001</ele>
        <time>2025-05-15T07:39:30Z</time>
      </trkpt>
      <trkpt lat="42.506645992398262" lon="2.135581020265818">
        <ele>1470.95</ele>
        <time>2025-05-15T07:39:31Z</time>
      </trkpt>
      <trkpt lat="42.507540006190538" lon="2.136265989392996">
        <ele>1463.74</ele>
        <time>2025-05-15T07:39:37Z</time>
      </trkpt>
      <trkpt lat="42.507621981203556" lon="2.136428011581302">
        <ele>1462.78</ele>
        <time>2025-05-15T07:39:38Z</time>
      </trkpt>
      <trkpt lat="42.507676966488361" lon="2.136607971042395">
        <ele>1461.3399999999999</ele>
        <time>2025-05-15T07:39:39Z</time>
      </trkpt>
      <trkpt lat="42.507798001170158" lon="2.137002004310489">
        <ele>1459.9000000000001</ele>
        <time>2025-05-15T07:39:41Z</time>
      </trkpt>
      <trkpt lat="42.507878970354795" lon="2.137168971821666">
        <ele>1458.9400000000001</ele>
        <time>2025-05-15T07:39:42Z</time>
      </trkpt>
      <trkpt lat="42.507978966459632" lon="2.137286989018321">
        <ele>1457.5</ele>
        <time>2025-05-15T07:39:43Z</time>
      </trkpt>
      <trkpt lat="42.508106958121061" lon="2.137383967638016">
        <ele>1457.02</ele>
        <time>2025-05-15T07:39:44Z</time>
      </trkpt>
      <trkpt lat="42.508242996409535" lon="2.137487987056375">
        <ele>1456.05</ele>
        <time>2025-05-15T07:39:45Z</time>
      </trkpt>
      <trkpt lat="42.508615991100669" lon="2.137808008119464">
        <ele>1453.6500000000001</ele>
        <time>2025-05-15T07:39:48Z</time>
      </trkpt>
      <trkpt lat="42.50868396833539" lon="2.137911021709442">
        <ele>1452.6900000000001</ele>
        <time>2025-05-15T07:39:49Z</time>
      </trkpt>
      <trkpt lat="42.508699977770448" lon="2.138042030856013">
        <ele>1451.73</ele>
        <time>2025-05-15T07:39:50Z</time>
      </trkpt>
      <trkpt lat="42.508653039112687" lon="2.138155018910766">
        <ele>1450.77</ele>
        <time>2025-05-15T07:39:51Z</time>
      </trkpt>
      <trkpt lat="42.50859797000885" lon="2.138284016400576">
        <ele>1449.8099999999999</ele>
        <time>2025-05-15T07:39:52Z</time>
      </trkpt>
      <trkpt lat="42.508537033572793" lon="2.138428017497063">
        <ele>1448.8399999999999</ele>
        <time>2025-05-15T07:39:53Z</time>
      </trkpt>
      <trkpt lat="42.508469978347421" lon="2.138585010543466">
        <ele>1447.8800000000001</ele>
        <time>2025-05-15T07:39:54Z</time>
      </trkpt>
      <trkpt lat="42.508399989455938" lon="2.138777039945126">
        <ele>1446.4400000000001</ele>
        <time>2025-05-15T07:39:55Z</time>
      </trkpt>
      <trkpt lat="42.508399989455938" lon="2.138997986912727">
        <ele>1445</ele>
        <time>2025-05-15T07:39:56Z</time>
      </trkpt>
      <trkpt lat="42.508399989455938" lon="2.139236032962799">
        <ele>1444.04</ele>
        <time>2025-05-15T07:39:57Z</time>
      </trkpt>
      <trkpt lat="42.508399989455938" lon="2.139492016285658">
        <ele>1443.0799999999999</ele>
        <time>2025-05-15T07:39:58Z</time>
      </trkpt>
      <trkpt lat="42.508278032764792" lon="2.141616996377707">
        <ele>1432.02</ele>
        <time>2025-05-15T07:40:06Z</time>
      </trkpt>
      <trkpt lat="42.50823000445962" lon="2.141877003014088">
        <ele>1430.5799999999999</ele>
        <time>2025-05-15T07:40:07Z</time>
      </trkpt>
      <trkpt lat="42.508049039170146" lon="2.142345970496535">
        <ele>1427.21</ele>
        <time>2025-05-15T07:40:09Z</time>
      </trkpt>
      <trkpt lat="42.507956000044942" lon="2.14256901293993">
        <ele>1425.29</ele>
        <time>2025-05-15T07:40:10Z</time>
      </trkpt>
      <trkpt lat="42.507821973413229" lon="2.142754001542926">
        <ele>1423.8499999999999</ele>
        <time>2025-05-15T07:40:11Z</time>
      </trkpt>
      <trkpt lat="42.507301960140467" lon="2.143455985933542">
        <ele>1418.0799999999999</ele>
        <time>2025-05-15T07:40:15Z</time>
      </trkpt>
      <trkpt lat="42.507188972085714" lon="2.143619013950229">
        <ele>1416.6400000000001</ele>
        <time>2025-05-15T07:40:16Z</time>
      </trkpt>
      <trkpt lat="42.507079001516104" lon="2.143780030310154">
        <ele>1415.6800000000001</ele>
        <time>2025-05-15T07:40:17Z</time>
      </trkpt>
      <trkpt lat="42.506956038996577" lon="2.143912967294455">
        <ele>1414.24</ele>
        <time>2025-05-15T07:40:18Z</time>
      </trkpt>
      <trkpt lat="42.506841039285064" lon="2.144035007804632">
        <ele>1413.28</ele>
        <time>2025-05-15T07:40:19Z</time>
      </trkpt>
      <trkpt lat="42.506743976846337" lon="2.14413802139461">
        <ele>1411.8299999999999</ele>
        <time>2025-05-15T07:40:20Z</time>
      </trkpt>
      <trkpt lat="42.506678011268377" lon="2.144225025549531">
        <ele>1410.8699999999999</ele>
        <time>2025-05-15T07:40:21Z</time>
      </trkpt>
      <trkpt lat="42.506627971306443" lon="2.144311023876071">
        <ele>1409.9100000000001</ele>
        <time>2025-05-15T07:40:22Z</time>
      </trkpt>
      <trkpt lat="42.506583966314793" lon="2.144386041909456">
        <ele>1408.95</ele>
        <time>2025-05-15T07:40:23Z</time>
      </trkpt>
      <trkpt lat="42.506537027657032" lon="2.144458964467049">
        <ele>1407.99</ele>
        <time>2025-05-15T07:40:24Z</time>
      </trkpt>
      <trkpt lat="42.506468966603279" lon="2.14454404078424">
        <ele>1406.55</ele>
        <time>2025-05-15T07:40:26Z</time>
      </trkpt>
      <trkpt lat="42.506464021280408" lon="2.144592991098762">
        <ele>1406.0699999999999</ele>
        <time>2025-05-15T07:40:27Z</time>
      </trkpt>
      <trkpt lat="42.506457986310124" lon="2.14465300552547">
        <ele>1405.0999999999999</ele>
        <time>2025-05-15T07:40:28Z</time>
      </trkpt>
      <trkpt lat="42.506453040987253" lon="2.144702961668372">
        <ele>1404.1400000000001</ele>
        <time>2025-05-15T07:40:29Z</time>
      </trkpt>
      <trkpt lat="42.506449017673731" lon="2.144744032993913">
        <ele>1403.6600000000001</ele>
        <time>2025-05-15T07:40:30Z</time>
      </trkpt>
      <trkpt lat="42.50644700601697" lon="2.14475903660059">
        <ele>1403.1800000000001</ele>
        <time>2025-05-15T07:40:31Z</time>
      </trkpt>
      <trkpt lat="42.50644700601697" lon="2.14475903660059">
        <ele>1402.22</ele>
        <time>2025-05-15T07:40:41Z</time>
      </trkpt>
      <trkpt lat="42.50644700601697" lon="2.14475903660059">
        <ele>1400.78</ele>
        <time>2025-05-15T07:41:26Z</time>
      </trkpt>
      <trkpt lat="42.50644700601697" lon="2.14475903660059">
        <ele>1401.26</ele>
        <time>2025-05-15T07:42:21Z</time>
      </trkpt>
      <trkpt lat="42.50644700601697" lon="2.14475903660059">
        <ele>1401.26</ele>
        <time>2025-05-15T07:42:31Z</time>
      </trkpt>
      <trkpt lat="42.50644700601697" lon="2.14475903660059">
        <ele>1401.26</ele>
        <time>2025-05-15T07:42:32Z</time>
      </trkpt>
      <trkpt lat="42.506393026560545" lon="2.144775968044996">
        <ele>1402.7</ele>
        <time>2025-05-15T07:44:25Z</time>
      </trkpt>
      <trkpt lat="42.506370982155204" lon="2.144803963601589">
        <ele>1412.79</ele>
        <time>2025-05-15T07:44:48Z</time>
      </trkpt>
      <trkpt lat="42.50644700601697" lon="2.14475903660059">
        <ele>1412.79</ele>
        <time>2025-05-15T07:44:50Z</time>
      </trkpt>
      <trkpt lat="42.506462009623647" lon="2.144768005236983">
        <ele>1412.79</ele>
        <time>2025-05-15T07:44:51Z</time>
      </trkpt>
      <trkpt lat="42.506500985473394" lon="2.144793989136815">
        <ele>1412.79</ele>
        <time>2025-05-15T07:44:52Z</time>
      </trkpt>
      <trkpt lat="42.506547002121806" lon="2.14482500217855">
        <ele>1412.3099999999999</ele>
        <time>2025-05-15T07:44:53Z</time>
      </trkpt>
      <trkpt lat="42.506582038477063" lon="2.144843023270369">
        <ele>1412.3099999999999</ele>
        <time>2025-05-15T07:44:54Z</time>
      </trkpt>
      <trkpt lat="42.50668304041028" lon="2.144822990521789">
        <ele>1411.8299999999999</ele>
        <time>2025-05-15T07:44:55Z</time>
      </trkpt>
      <trkpt lat="42.507502036169171" lon="2.144915023818612">
        <ele>1409.9100000000001</ele>
        <time>2025-05-15T07:45:01Z</time>
      </trkpt>
      <trkpt lat="42.507996987551451" lon="2.145068999379873">
        <ele>1407.51</ele>
        <time>2025-05-15T07:45:05Z</time>
      </trkpt>
      <trkpt lat="42.508088015019894" lon="2.14514602907002">
        <ele>1406.55</ele>
        <time>2025-05-15T07:45:06Z</time>
      </trkpt>
      <trkpt lat="42.508141994476318" lon="2.145260022953153">
        <ele>1405.5799999999999</ele>
        <time>2025-05-15T07:45:07Z</time>
      </trkpt>
      <trkpt lat="42.50816403888166" lon="2.145337974652648">
        <ele>1404.6199999999999</ele>
        <time>2025-05-15T07:45:08Z</time>
      </trkpt>
      <trkpt lat="42.508132020011544" lon="2.145496979355812">
        <ele>1403.1800000000001</ele>
        <time>2025-05-15T07:45:09Z</time>
      </trkpt>
      <trkpt lat="42.508096983656287" lon="2.145604016259313">
        <ele>1402.22</ele>
        <time>2025-05-15T07:45:10Z</time>
      </trkpt>
      <trkpt lat="42.508048033341765" lon="2.145708035677671">
        <ele>1401.26</ele>
        <time>2025-05-15T07:45:11Z</time>
      </trkpt>
      <trkpt lat="42.507993970066309" lon="2.145822029560804">
        <ele>1400.3</ele>
        <time>2025-05-15T07:45:12Z</time>
      </trkpt>
      <trkpt lat="42.507933033630252" lon="2.145950021222234">
        <ele>1399.3399999999999</ele>
        <time>2025-05-15T07:45:13Z</time>
      </trkpt>
      <trkpt lat="42.50775801949203" lon="2.146362997591496">
        <ele>1395.49</ele>
        <time>2025-05-15T07:45:16Z</time>
      </trkpt>
      <trkpt lat="42.507691970095038" lon="2.146517978981137">
        <ele>1394.05</ele>
        <time>2025-05-15T07:45:17Z</time>
      </trkpt>
      <trkpt lat="42.507687024772167" lon="2.146672960370779">
        <ele>1392.6099999999999</ele>
        <time>2025-05-15T07:45:18Z</time>
      </trkpt>
      <trkpt lat="42.507679983973503" lon="2.146850991994143">
        <ele>1391.1700000000001</ele>
        <time>2025-05-15T07:45:19Z</time>
      </trkpt>
      <trkpt lat="42.507674032822251" lon="2.147032041102648">
        <ele>1389.72</ele>
        <time>2025-05-15T07:45:20Z</time>
      </trkpt>
      <trkpt lat="42.507683001458645" lon="2.147204959765077">
        <ele>1388.28</ele>
        <time>2025-05-15T07:45:21Z</time>
      </trkpt>
      <trkpt lat="42.507717031985521" lon="2.147371005266905">
        <ele>1386.8399999999999</ele>
        <time>2025-05-15T07:45:22Z</time>
      </trkpt>
      <trkpt lat="42.507761958986521" lon="2.147526992484927">
        <ele>1385.4000000000001</ele>
        <time>2025-05-15T07:45:23Z</time>
      </trkpt>
      <trkpt lat="42.507828008383512" lon="2.14768398553133">
        <ele>1383.96</ele>
        <time>2025-05-15T07:45:24Z</time>
      </trkpt>
      <trkpt lat="42.507949965074658" lon="2.14802797883749">
        <ele>1381.0699999999999</ele>
        <time>2025-05-15T07:45:26Z</time>
      </trkpt>
      <trkpt lat="42.508003022521734" lon="2.148217996582389">
        <ele>1380.1099999999999</ele>
        <time>2025-05-15T07:45:27Z</time>
      </trkpt>
      <trkpt lat="42.508022971451283" lon="2.148432992398739">
        <ele>1378.6700000000001</ele>
        <time>2025-05-15T07:45:28Z</time>
      </trkpt>
      <trkpt lat="42.508033029735088" lon="2.148647988215089">
        <ele>1377.71</ele>
        <time>2025-05-15T07:45:29Z</time>
      </trkpt>
      <trkpt lat="42.508044010028243" lon="2.148859966546297">
        <ele>1376.75</ele>
        <time>2025-05-15T07:45:30Z</time>
      </trkpt>
      <trkpt lat="42.508053984493017" lon="2.149058030918241">
        <ele>1375.78</ele>
        <time>2025-05-15T07:45:31Z</time>
      </trkpt>
      <trkpt lat="42.508106036111712" lon="2.149221980944276">
        <ele>1374.3399999999999</ele>
        <time>2025-05-15T07:45:32Z</time>
      </trkpt>
      <trkpt lat="42.508182981982827" lon="2.149375034496188">
        <ele>1373.3800000000001</ele>
        <time>2025-05-15T07:45:33Z</time>
      </trkpt>
      <trkpt lat="42.508279038593173" lon="2.149501014500856">
        <ele>1371.46</ele>
        <time>2025-05-15T07:45:34Z</time>
      </trkpt>
      <trkpt lat="42.50838004052639" lon="2.149635041132569">
        <ele>1370.02</ele>
        <time>2025-05-15T07:45:35Z</time>
      </trkpt>
      <trkpt lat="42.508580032736063" lon="2.149908961728215">
        <ele>1367.6099999999999</ele>
        <time>2025-05-15T07:45:37Z</time>
      </trkpt>
      <trkpt lat="42.508642980828881" lon="2.150069978088141">
        <ele>1365.6900000000001</ele>
        <time>2025-05-15T07:45:38Z</time>
      </trkpt>
      <trkpt lat="42.508765021339059" lon="2.150381030514836">
        <ele>1362.8099999999999</ele>
        <time>2025-05-15T07:45:40Z</time>
      </trkpt>
      <trkpt lat="42.508840039372444" lon="2.15047700330615">
        <ele>1361.8399999999999</ele>
        <time>2025-05-15T07:45:41Z</time>
      </trkpt>
      <trkpt lat="42.508992003276944" lon="2.15066903270781">
        <ele>1359.9200000000001</ele>
        <time>2025-05-15T07:45:43Z</time>
      </trkpt>
      <trkpt lat="42.509009018540382" lon="2.150785038247705">
        <ele>1358.48</ele>
        <time>2025-05-15T07:45:44Z</time>
      </trkpt>
      <trkpt lat="42.509019998833537" lon="2.150916969403625">
        <ele>1357.52</ele>
        <time>2025-05-15T07:45:45Z</time>
      </trkpt>
      <trkpt lat="42.508981022983789" lon="2.151020988821983">
        <ele>1356.5599999999999</ele>
        <time>2025-05-15T07:45:46Z</time>
      </trkpt>
      <trkpt lat="42.508922014385462" lon="2.151128025725484">
        <ele>1355.1199999999999</ele>
        <time>2025-05-15T07:45:47Z</time>
      </trkpt>
      <trkpt lat="42.508830986917019" lon="2.151239002123475">
        <ele>1354.1500000000001</ele>
        <time>2025-05-15T07:45:48Z</time>
      </trkpt>
      <trkpt lat="42.508729984983802" lon="2.151360958814621">
        <ele>1353.1900000000001</ele>
        <time>2025-05-15T07:45:49Z</time>
      </trkpt>
      <trkpt lat="42.508129002526402" lon="2.152032013982534">
        <ele>1347.4300000000001</ele>
        <time>2025-05-15T07:45:54Z</time>
      </trkpt>
      <trkpt lat="42.507993970066309" lon="2.152137961238623">
        <ele>1346.46</ele>
        <time>2025-05-15T07:45:55Z</time>
      </trkpt>
      <trkpt lat="42.507878970354795" lon="2.152253966778517">
        <ele>1345.5</ele>
        <time>2025-05-15T07:45:56Z</time>
      </trkpt>
      <trkpt lat="42.507756007835269" lon="2.152377013117075">
        <ele>1344.0599999999999</ele>
        <time>2025-05-15T07:45:57Z</time>
      </trkpt>
      <trkpt lat="42.507704962044954" lon="2.152564013376832">
        <ele>1342.6199999999999</ele>
        <time>2025-05-15T07:45:58Z</time>
      </trkpt>
      <trkpt lat="42.507674032822251" lon="2.152780015021563">
        <ele>1341.6600000000001</ele>
        <time>2025-05-15T07:45:59Z</time>
      </trkpt>
      <trkpt lat="42.507649976760149" lon="2.15301102027297">
        <ele>1340.22</ele>
        <time>2025-05-15T07:46:00Z</time>
      </trkpt>
      <trkpt lat="42.507483009248972" lon="2.154703997075558">
        <ele>1330.5999999999999</ele>
        <time>2025-05-15T07:46:07Z</time>
      </trkpt>
      <trkpt lat="42.507515028119087" lon="2.154900971800089">
        <ele>1329.1600000000001</ele>
        <time>2025-05-15T07:46:08Z</time>
      </trkpt>
      <trkpt lat="42.507557021453977" lon="2.155086966231465">
        <ele>1328.2</ele>
        <time>2025-05-15T07:46:09Z</time>
      </trkpt>
      <trkpt lat="42.507642013952136" lon="2.155244965106249">
        <ele>1327.24</ele>
        <time>2025-05-15T07:46:10Z</time>
      </trkpt>
      <trkpt lat="42.507747961208224" lon="2.155384020879865">
        <ele>1326.28</ele>
        <time>2025-05-15T07:46:11Z</time>
      </trkpt>
      <trkpt lat="42.507877964526415" lon="2.15545903891325">
        <ele>1324.8299999999999</ele>
        <time>2025-05-15T07:46:12Z</time>
      </trkpt>
      <trkpt lat="42.508021965622902" lon="2.155494997277856">
        <ele>1323.8699999999999</ele>
        <time>2025-05-15T07:46:13Z</time>
      </trkpt>
      <trkpt lat="42.508169990032911" lon="2.155531961470842">
        <ele>1322.9100000000001</ele>
        <time>2025-05-15T07:46:14Z</time>
      </trkpt>
      <trkpt lat="42.508312985301018" lon="2.15556800365448">
        <ele>1321.95</ele>
        <time>2025-05-15T07:46:15Z</time>
      </trkpt>
      <trkpt lat="42.508438965305686" lon="2.15563396923244">
        <ele>1320.51</ele>
        <time>2025-05-15T07:46:16Z</time>
      </trkpt>
      <trkpt lat="42.508551031351089" lon="2.155699012801051">
        <ele>1319.55</ele>
        <time>2025-05-15T07:46:17Z</time>
      </trkpt>
      <trkpt lat="42.508635018020868" lon="2.155830021947622">
        <ele>1318.0999999999999</ele>
        <time>2025-05-15T07:46:18Z</time>
      </trkpt>
      <trkpt lat="42.508693020790815" lon="2.155979974195361">
        <ele>1317.1400000000001</ele>
        <time>2025-05-15T07:46:19Z</time>
      </trkpt>
      <trkpt lat="42.508749011904001" lon="2.156163034960628">
        <ele>1315.7</ele>
        <time>2025-05-15T07:46:20Z</time>
      </trkpt>
      <trkpt lat="42.508755968883634" lon="2.156388005241752">
        <ele>1314.74</ele>
        <time>2025-05-15T07:46:21Z</time>
      </trkpt>
      <trkpt lat="42.508657984435558" lon="2.157195014879108">
        <ele>1309.9300000000001</ele>
        <time>2025-05-15T07:46:25Z</time>
      </trkpt>
      <trkpt lat="42.508605010807514" lon="2.157362988218665">
        <ele>1308.97</ele>
        <time>2025-05-15T07:46:26Z</time>
      </trkpt>
      <trkpt lat="42.508519012480974" lon="2.157507995143533">
        <ele>1307.53</ele>
        <time>2025-05-15T07:46:27Z</time>
      </trkpt>
      <trkpt lat="42.508399989455938" lon="2.157612014561892">
        <ele>1306.5699999999999</ele>
        <time>2025-05-15T07:46:28Z</time>
      </trkpt>
      <trkpt lat="42.508276021108031" lon="2.15771796181798">
        <ele>1305.1300000000001</ele>
        <time>2025-05-15T07:46:29Z</time>
      </trkpt>
      <trkpt lat="42.507289974018931" lon="2.158534023910761">
        <ele>1296.96</ele>
        <time>2025-05-15T07:46:36Z</time>
      </trkpt>
      <trkpt lat="42.507197018712759" lon="2.158642988651991">
        <ele>1295.51</ele>
        <time>2025-05-15T07:46:37Z</time>
      </trkpt>
      <trkpt lat="42.507120994850993" lon="2.158744996413589">
        <ele>1294.55</ele>
        <time>2025-05-15T07:46:38Z</time>
      </trkpt>
      <trkpt lat="42.507054023444653" lon="2.158835018053651">
        <ele>1293.1099999999999</ele>
        <time>2025-05-15T07:46:39Z</time>
      </trkpt>
      <trkpt lat="42.506979005411267" lon="2.158904001116753">
        <ele>1292.1500000000001</ele>
        <time>2025-05-15T07:46:40Z</time>
      </trkpt>
      <trkpt lat="42.506883032619953" lon="2.158912969753146">
        <ele>1290.71</ele>
        <time>2025-05-15T07:46:41Z</time>
      </trkpt>
      <trkpt lat="42.506803991273046" lon="2.158873993903399">
        <ele>1290.23</ele>
        <time>2025-05-15T07:46:42Z</time>
      </trkpt>
      <trkpt lat="42.506737019866705" lon="2.158737033605576">
        <ele>1289.27</ele>
        <time>2025-05-15T07:46:43Z</time>
      </trkpt>
      <trkpt lat="42.506724027916789" lon="2.15857601724565">
        <ele>1288.3</ele>
        <time>2025-05-15T07:46:44Z</time>
      </trkpt>
      <trkpt lat="42.506769960746169" lon="2.158473003655672">
        <ele>1287.8199999999999</ele>
        <time>2025-05-15T07:46:45Z</time>
      </trkpt>
      <trkpt lat="42.50685403123498" lon="2.158406032249332">
        <ele>1286.8599999999999</ele>
        <time>2025-05-15T07:46:46Z</time>
      </trkpt>
      <trkpt lat="42.506951009854674" lon="2.158374013379216">
        <ele>1286.3800000000001</ele>
        <time>2025-05-15T07:46:47Z</time>
      </trkpt>
      <trkpt lat="42.507057040929794" lon="2.158337971195579">
        <ele>1285.9000000000001</ele>
        <time>2025-05-15T07:46:48Z</time>
      </trkpt>
      <trkpt lat="42.507169023156166" lon="2.158301007002592">
        <ele>1285.9000000000001</ele>
        <time>2025-05-15T07:46:49Z</time>
      </trkpt>
      <trkpt lat="42.507258960977197" lon="2.158216014504433">
        <ele>1285.9000000000001</ele>
        <time>2025-05-15T07:46:50Z</time>
      </trkpt>
      <trkpt lat="42.507352000102401" lon="2.158122975379229">
        <ele>1285.4200000000001</ele>
        <time>2025-05-15T07:46:51Z</time>
      </trkpt>
      <trkpt lat="42.507442021742463" lon="2.158025996759534">
        <ele>1285.9000000000001</ele>
        <time>2025-05-15T07:46:52Z</time>
      </trkpt>
      <trkpt lat="42.507513016462326" lon="2.157884007319808">
        <ele>1285.4200000000001</ele>
        <time>2025-05-15T07:46:53Z</time>
      </trkpt>
      <trkpt lat="42.507954994216561" lon="2.156931990757585">
        <ele>1282.54</ele>
        <time>2025-05-15T07:46:59Z</time>
      </trkpt>
      <trkpt lat="42.507966980338097" lon="2.156784972175956">
        <ele>1282.0599999999999</ele>
        <time>2025-05-15T07:47:00Z</time>
      </trkpt>
      <trkpt lat="42.507940996438265" lon="2.156687993556261">
        <ele>1281.5699999999999</ele>
        <time>2025-05-15T07:47:01Z</time>
      </trkpt>
      <trkpt lat="42.507871007546782" lon="2.156582968309522">
        <ele>1280.6099999999999</ele>
        <time>2025-05-15T07:47:02Z</time>
      </trkpt>
      <trkpt lat="42.507799006998539" lon="2.156475009396672">
        <ele>1279.6500000000001</ele>
        <time>2025-05-15T07:47:03Z</time>
      </trkpt>
      <trkpt lat="42.507681995630264" lon="2.156416000798345">
        <ele>1279.1700000000001</ele>
        <time>2025-05-15T07:47:04Z</time>
      </trkpt>
      <trkpt lat="42.507544029504061" lon="2.156394962221384">
        <ele>1278.21</ele>
        <time>2025-05-15T07:47:05Z</time>
      </trkpt>
      <trkpt lat="42.507388964295387" lon="2.156377024948597">
        <ele>1277.73</ele>
        <time>2025-05-15T07:47:06Z</time>
      </trkpt>
      <trkpt lat="42.50674800015986" lon="2.156323967501521">
        <ele>1273.8800000000001</ele>
        <time>2025-05-15T07:47:11Z</time>
      </trkpt>
      <trkpt lat="42.506635012105107" lon="2.156267976388335">
        <ele>1272.9200000000001</ele>
        <time>2025-05-15T07:47:12Z</time>
      </trkpt>
      <trkpt lat="42.506572986021638" lon="2.156168986111879">
        <ele>1271.96</ele>
        <time>2025-05-15T07:47:13Z</time>
      </trkpt>
      <trkpt lat="42.506511965766549" lon="2.156043006107211">
        <ele>1271</ele>
        <time>2025-05-15T07:47:14Z</time>
      </trkpt>
      <trkpt lat="42.50653300434351" lon="2.155915014445782">
        <ele>1270.04</ele>
        <time>2025-05-15T07:47:15Z</time>
      </trkpt>
      <trkpt lat="42.506564017385244" lon="2.155769001692534">
        <ele>1269.0799999999999</ele>
        <time>2025-05-15T07:47:16Z</time>
      </trkpt>
      <trkpt lat="42.506625037640333" lon="2.155646961182356">
        <ele>1268.1199999999999</ele>
        <time>2025-05-15T07:47:17Z</time>
      </trkpt>
      <trkpt lat="42.50664004124701" lon="2.155496003106237">
        <ele>1267.6400000000001</ele>
        <time>2025-05-15T07:47:18Z</time>
      </trkpt>
      <trkpt lat="42.506614979356527" lon="2.155338004231453">
        <ele>1267.1600000000001</ele>
        <time>2025-05-15T07:47:19Z</time>
      </trkpt>
      <trkpt lat="42.506573991850019" lon="2.155162990093231">
        <ele>1266.6700000000001</ele>
        <time>2025-05-15T07:47:20Z</time>
      </trkpt>
      <trkpt lat="42.50653401017189" lon="2.154974984005094">
        <ele>1266.1900000000001</ele>
        <time>2025-05-15T07:47:21Z</time>
      </trkpt>
      <trkpt lat="42.506499979645014" lon="2.154571982100606">
        <ele>1264.27</ele>
        <time>2025-05-15T07:47:23Z</time>
      </trkpt>
      <trkpt lat="42.50649101100862" lon="2.154368972405791">
        <ele>1263.3099999999999</ele>
        <time>2025-05-15T07:47:24Z</time>
      </trkpt>
      <trkpt lat="42.50653300434351" lon="2.153986003249884">
        <ele>1261.3900000000001</ele>
        <time>2025-05-15T07:47:26Z</time>
      </trkpt>
      <trkpt lat="42.506507020443678" lon="2.153853988274932">
        <ele>1260.9100000000001</ele>
        <time>2025-05-15T07:47:27Z</time>
      </trkpt>
      <trkpt lat="42.506472989916801" lon="2.153738988563418">
        <ele>1259.9400000000001</ele>
        <time>2025-05-15T07:47:28Z</time>
      </trkpt>
      <trkpt lat="42.50636100769043" lon="2.153532039374113">
        <ele>1258.5</ele>
        <time>2025-05-15T07:47:30Z</time>
      </trkpt>
      <trkpt lat="42.506356984376907" lon="2.153388038277626">
        <ele>1257.54</ele>
        <time>2025-05-15T07:47:31Z</time>
      </trkpt>
      <trkpt lat="42.506351033225656" lon="2.153209000825882">
        <ele>1256.5799999999999</ele>
        <time>2025-05-15T07:47:32Z</time>
      </trkpt>
      <trkpt lat="42.506343992426991" lon="2.153008002787828">
        <ele>1255.6199999999999</ele>
        <time>2025-05-15T07:47:33Z</time>
      </trkpt>
      <trkpt lat="42.506320020183921" lon="2.152793006971479">
        <ele>1254.6600000000001</ele>
        <time>2025-05-15T07:47:34Z</time>
      </trkpt>
      <trkpt lat="42.506274003535509" lon="2.152571976184845">
        <ele>1253.7</ele>
        <time>2025-05-15T07:47:35Z</time>
      </trkpt>
      <trkpt lat="42.506229998543859" lon="2.152126980945468">
        <ele>1251.77</ele>
        <time>2025-05-15T07:47:37Z</time>
      </trkpt>
      <trkpt lat="42.506260005757213" lon="2.151924977079034">
        <ele>1250.8099999999999</ele>
        <time>2025-05-15T07:47:38Z</time>
      </trkpt>
      <trkpt lat="42.506305016577244" lon="2.151761027052999">
        <ele>1249.8499999999999</ele>
        <time>2025-05-15T07:47:39Z</time>
      </trkpt>
      <trkpt lat="42.506344998255372" lon="2.15161400847137">
        <ele>1249.3699999999999</ele>
        <time>2025-05-15T07:47:40Z</time>
      </trkpt>
      <trkpt lat="42.506382968276739" lon="2.151475036516786">
        <ele>1248.8900000000001</ele>
        <time>2025-05-15T07:47:41Z</time>
      </trkpt>
      <trkpt lat="42.506354972720146" lon="2.151381997391582">
        <ele>1248.4100000000001</ele>
        <time>2025-05-15T07:47:42Z</time>
      </trkpt>
      <trkpt lat="42.506313985213637" lon="2.151259034872055">
        <ele>1247.9300000000001</ele>
        <time>2025-05-15T07:47:43Z</time>
      </trkpt>
      <trkpt lat="42.506233016029" lon="2.151239002123475">
        <ele>1247.45</ele>
        <time>2025-05-15T07:47:44Z</time>
      </trkpt>
      <trkpt lat="42.506154980510473" lon="2.15127001516521">
        <ele>1246.97</ele>
        <time>2025-05-15T07:47:45Z</time>
      </trkpt>
      <trkpt lat="42.506124973297119" lon="2.151282001286745">
        <ele>1246.01</ele>
        <time>2025-05-15T07:47:46Z</time>
      </trkpt>
      <trkpt lat="42.506058001890779" lon="2.151403035968542">
        <ele>1245.53</ele>
        <time>2025-05-15T07:47:47Z</time>
      </trkpt>
      <trkpt lat="42.50601802021265" lon="2.151475036516786">
        <ele>1244.5599999999999</ele>
        <time>2025-05-15T07:47:48Z</time>
      </trkpt>
      <trkpt lat="42.50601802021265" lon="2.151623982936144">
        <ele>1244.0799999999999</ele>
        <time>2025-05-15T07:47:49Z</time>
      </trkpt>
      <trkpt lat="42.50601802021265" lon="2.15178600512445">
        <ele>1243.5999999999999</ele>
        <time>2025-05-15T07:47:50Z</time>
      </trkpt>
      <trkpt lat="42.506019026041031" lon="2.151952972635627">
        <ele>1243.1199999999999</ele>
        <time>2025-05-15T07:47:51Z</time>
      </trkpt>
      <trkpt lat="42.506036963313818" lon="2.152139972895384">
        <ele>1242.6400000000001</ele>
        <time>2025-05-15T07:47:52Z</time>
      </trkpt>
      <trkpt lat="42.506204014644027" lon="2.154204016551375">
        <ele>1238.3199999999999</ele>
        <time>2025-05-15T07:48:01Z</time>
      </trkpt>
      <trkpt lat="42.506135031580925" lon="2.155364993959665">
        <ele>1236.3900000000001</ele>
        <time>2025-05-15T07:48:06Z</time>
      </trkpt>
      <trkpt lat="42.506055990234017" lon="2.155529027804732">
        <ele>1235.9100000000001</ele>
        <time>2025-05-15T07:48:07Z</time>
      </trkpt>
      <trkpt lat="42.505955994129181" lon="2.155684009194374">
        <ele>1235.4300000000001</ele>
        <time>2025-05-15T07:48:08Z</time>
      </trkpt>
      <trkpt lat="42.505581993609667" lon="2.156322961673141">
        <ele>1233.99</ele>
        <time>2025-05-15T07:48:12Z</time>
      </trkpt>
      <trkpt lat="42.505542011931539" lon="2.156465034931898">
        <ele>1233.51</ele>
        <time>2025-05-15T07:48:13Z</time>
      </trkpt>
      <trkpt lat="42.505530025810003" lon="2.156624961644411">
        <ele>1233.03</ele>
        <time>2025-05-15T07:48:14Z</time>
      </trkpt>
      <trkpt lat="42.505555003881454" lon="2.15677198022604">
        <ele>1232.0699999999999</ele>
        <time>2025-05-15T07:48:15Z</time>
      </trkpt>
      <trkpt lat="42.505612000823021" lon="2.156929979100823">
        <ele>1231.1099999999999</ele>
        <time>2025-05-15T07:48:16Z</time>
      </trkpt>
      <trkpt lat="42.505670003592968" lon="2.157089989632368">
        <ele>1230.1400000000001</ele>
        <time>2025-05-15T07:48:17Z</time>
      </trkpt>
      <trkpt lat="42.505711996927857" lon="2.157248994335532">
        <ele>1229.1800000000001</ele>
        <time>2025-05-15T07:48:18Z</time>
      </trkpt>
      <trkpt lat="42.505737980827689" lon="2.157391989603639">
        <ele>1228.22</ele>
        <time>2025-05-15T07:48:19Z</time>
      </trkpt>
      <trkpt lat="42.505679978057742" lon="2.157530961558223">
        <ele>1227.26</ele>
        <time>2025-05-15T07:48:20Z</time>
      </trkpt>
      <trkpt lat="42.505603032186627" lon="2.157645039260387">
        <ele>1226.3</ele>
        <time>2025-05-15T07:48:21Z</time>
      </trkpt>
      <trkpt lat="42.505503036081791" lon="2.157752998173237">
        <ele>1225.8199999999999</ele>
        <time>2025-05-15T07:48:22Z</time>
      </trkpt>
      <trkpt lat="42.505401028320193" lon="2.157862968742847">
        <ele>1224.8599999999999</ele>
        <time>2025-05-15T07:48:23Z</time>
      </trkpt>
      <trkpt lat="42.505331039428711" lon="2.158011998981237">
        <ele>1223.9000000000001</ele>
        <time>2025-05-15T07:48:24Z</time>
      </trkpt>
      <trkpt lat="42.505283011123538" lon="2.158171003684402">
        <ele>1222.9300000000001</ele>
        <time>2025-05-15T07:48:25Z</time>
      </trkpt>
      <trkpt lat="42.50526700168848" lon="2.15834098868072">
        <ele>1222.45</ele>
        <time>2025-05-15T07:48:26Z</time>
      </trkpt>
      <trkpt lat="42.505314024165273" lon="2.1585129853338">
        <ele>1221.49</ele>
        <time>2025-05-15T07:48:27Z</time>
      </trkpt>
      <trkpt lat="42.505385018885136" lon="2.158665033057332">
        <ele>1220.53</ele>
        <time>2025-05-15T07:48:28Z</time>
      </trkpt>
      <trkpt lat="42.50548099167645" lon="2.158824959769845">
        <ele>1219.5699999999999</ele>
        <time>2025-05-15T07:48:29Z</time>
      </trkpt>
      <trkpt lat="42.505584005266428" lon="2.158996034413576">
        <ele>1218.6099999999999</ele>
        <time>2025-05-15T07:48:30Z</time>
      </trkpt>
      <trkpt lat="42.505986001342535" lon="2.159742023795843">
        <ele>1214.28</ele>
        <time>2025-05-15T07:48:34Z</time>
      </trkpt>
      <trkpt lat="42.50603998079896" lon="2.159969005733728">
        <ele>1213.3199999999999</ele>
        <time>2025-05-15T07:48:35Z</time>
      </trkpt>
      <trkpt lat="42.506268974393606" lon="2.160930996760726">
        <ele>1208.51</ele>
        <time>2025-05-15T07:48:39Z</time>
      </trkpt>
      <trkpt lat="42.50625497661531" lon="2.161193015053868">
        <ele>1207.0699999999999</ele>
        <time>2025-05-15T07:48:40Z</time>
      </trkpt>
      <trkpt lat="42.506235027685761" lon="2.161427959799767">
        <ele>1206.1099999999999</ele>
        <time>2025-05-15T07:48:41Z</time>
      </trkpt>
      <trkpt lat="42.506200997158885" lon="2.161817969754338">
        <ele>1203.71</ele>
        <time>2025-05-15T07:48:43Z</time>
      </trkpt>
      <trkpt lat="42.506196973845363" lon="2.161968005821109">
        <ele>1202.75</ele>
        <time>2025-05-15T07:48:44Z</time>
      </trkpt>
      <trkpt lat="42.506245002150536" lon="2.162109995260835">
        <ele>1201.3</ele>
        <time>2025-05-15T07:48:45Z</time>
      </trkpt>
      <trkpt lat="42.506311973556876" lon="2.162220971658826">
        <ele>1200.3399999999999</ele>
        <time>2025-05-15T07:48:46Z</time>
      </trkpt>
      <trkpt lat="42.506390009075403" lon="2.162330020219088">
        <ele>1198.9000000000001</ele>
        <time>2025-05-15T07:48:47Z</time>
      </trkpt>
      <trkpt lat="42.506468966603279" lon="2.162439990788698">
        <ele>1197.46</ele>
        <time>2025-05-15T07:48:48Z</time>
      </trkpt>
      <trkpt lat="42.506506014615297" lon="2.162569994106889">
        <ele>1196.02</ele>
        <time>2025-05-15T07:48:49Z</time>
      </trkpt>
      <trkpt lat="42.506475001573563" lon="2.162718018516898">
        <ele>1194.5799999999999</ele>
        <time>2025-05-15T07:48:50Z</time>
      </trkpt>
      <trkpt lat="42.506437031552196" lon="2.16285296715796">
        <ele>1193.1300000000001</ele>
        <time>2025-05-15T07:48:51Z</time>
      </trkpt>
      <trkpt lat="42.506358996033669" lon="2.162966039031744">
        <ele>1191.6900000000001</ele>
        <time>2025-05-15T07:48:52Z</time>
      </trkpt>
      <trkpt lat="42.506267968565226" lon="2.163068968802691">
        <ele>1190.25</ele>
        <time>2025-05-15T07:48:53Z</time>
      </trkpt>
      <trkpt lat="42.506178030744195" lon="2.163170976564288">
        <ele>1189.29</ele>
        <time>2025-05-15T07:48:54Z</time>
      </trkpt>
      <trkpt lat="42.506099995225668" lon="2.163291005417705">
        <ele>1188.3299999999999</ele>
        <time>2025-05-15T07:48:55Z</time>
      </trkpt>
      <trkpt lat="42.506084991618991" lon="2.163446992635727">
        <ele>1186.8800000000001</ele>
        <time>2025-05-15T07:48:56Z</time>
      </trkpt>
      <trkpt lat="42.506067976355553" lon="2.163802972063422">
        <ele>1183.52</ele>
        <time>2025-05-15T07:48:58Z</time>
      </trkpt>
      <trkpt lat="42.506078034639359" lon="2.163987038657069">
        <ele>1182.0799999999999</ele>
        <time>2025-05-15T07:48:59Z</time>
      </trkpt>
      <trkpt lat="42.506089014932513" lon="2.164166998118162">
        <ele>1181.1199999999999</ele>
        <time>2025-05-15T07:49:00Z</time>
      </trkpt>
      <trkpt lat="42.506097983568907" lon="2.164340000599623">
        <ele>1179.6700000000001</ele>
        <time>2025-05-15T07:49:01Z</time>
      </trkpt>
      <trkpt lat="42.506088009104133" lon="2.164487019181252">
        <ele>1178.23</ele>
        <time>2025-05-15T07:49:02Z</time>
      </trkpt>
      <trkpt lat="42.506037969142199" lon="2.164647029712796">
        <ele>1176.79</ele>
        <time>2025-05-15T07:49:03Z</time>
      </trkpt>
      <trkpt lat="42.505983989685774" lon="2.16480796225369">
        <ele>1175.3499999999999</ele>
        <time>2025-05-15T07:49:04Z</time>
      </trkpt>
      <trkpt lat="42.505918024107814" lon="2.164963027462363">
        <ele>1174.3900000000001</ele>
        <time>2025-05-15T07:49:05Z</time>
      </trkpt>
      <trkpt lat="42.50586798414588" lon="2.165124965831637">
        <ele>1172.95</ele>
        <time>2025-05-15T07:49:06Z</time>
      </trkpt>
      <trkpt lat="42.50586798414588" lon="2.165296962484717">
        <ele>1171.98</ele>
        <time>2025-05-15T07:49:07Z</time>
      </trkpt>
      <trkpt lat="42.505875024944544" lon="2.165468959137797">
        <ele>1171.02</ele>
        <time>2025-05-15T07:49:08Z</time>
      </trkpt>
      <trkpt lat="42.505921963602304" lon="2.165624024346471">
        <ele>1169.5799999999999</ele>
        <time>2025-05-15T07:49:09Z</time>
      </trkpt>
      <trkpt lat="42.505999999120831" lon="2.165761990472674">
        <ele>1168.1400000000001</ele>
        <time>2025-05-15T07:49:10Z</time>
      </trkpt>
      <trkpt lat="42.506087003275752" lon="2.165897022932768">
        <ele>1167.1800000000001</ele>
        <time>2025-05-15T07:49:11Z</time>
      </trkpt>
      <trkpt lat="42.506181970238686" lon="2.166043035686016">
        <ele>1165.74</ele>
        <time>2025-05-15T07:49:12Z</time>
      </trkpt>
      <trkpt lat="42.506258999928832" lon="2.166215032339096">
        <ele>1164.77</ele>
        <time>2025-05-15T07:49:13Z</time>
      </trkpt>
      <trkpt lat="42.506339969113469" lon="2.166431033983827">
        <ele>1163.8099999999999</ele>
        <time>2025-05-15T07:49:14Z</time>
      </trkpt>
      <trkpt lat="42.506497967988253" lon="2.167280958965421">
        <ele>1160.45</ele>
        <time>2025-05-15T07:49:18Z</time>
      </trkpt>
      <trkpt lat="42.506585977971554" lon="2.167463013902307">
        <ele>1159.01</ele>
        <time>2025-05-15T07:49:19Z</time>
      </trkpt>
      <trkpt lat="42.506694020703435" lon="2.167622018605471">
        <ele>1158.05</ele>
        <time>2025-05-15T07:49:20Z</time>
      </trkpt>
      <trkpt lat="42.506799967959523" lon="2.167776999995112">
        <ele>1156.5999999999999</ele>
        <time>2025-05-15T07:49:21Z</time>
      </trkpt>
      <trkpt lat="42.506875991821289" lon="2.167889988049865">
        <ele>1155.6400000000001</ele>
        <time>2025-05-15T07:49:22Z</time>
      </trkpt>
      <trkpt lat="42.506945980712771" lon="2.168083023279905">
        <ele>1154.2</ele>
        <time>2025-05-15T07:49:23Z</time>
      </trkpt>
      <trkpt lat="42.506961990147829" lon="2.168236998841167">
        <ele>1152.76</ele>
        <time>2025-05-15T07:49:24Z</time>
      </trkpt>
      <trkpt lat="42.506961990147829" lon="2.168404972180724">
        <ele>1151.3199999999999</ele>
        <time>2025-05-15T07:49:25Z</time>
      </trkpt>
      <trkpt lat="42.506910022348166" lon="2.168532041832805">
        <ele>1149.8699999999999</ele>
        <time>2025-05-15T07:49:26Z</time>
      </trkpt>
      <trkpt lat="42.506849002093077" lon="2.168681994080544">
        <ele>1148.9100000000001</ele>
        <time>2025-05-15T07:49:27Z</time>
      </trkpt>
      <trkpt lat="42.506263023242354" lon="2.170171961188316">
        <ele>1139.78</ele>
        <time>2025-05-15T07:49:35Z</time>
      </trkpt>
      <trkpt lat="42.50619001686573" lon="2.170358039438725">
        <ele>1138.8199999999999</ele>
        <time>2025-05-15T07:49:36Z</time>
      </trkpt>
      <trkpt lat="42.506163027137518" lon="2.170587033033371">
        <ele>1137.3800000000001</ele>
        <time>2025-05-15T07:49:37Z</time>
      </trkpt>
      <trkpt lat="42.506137965247035" lon="2.170812003314495">
        <ele>1135.9400000000001</ele>
        <time>2025-05-15T07:49:38Z</time>
      </trkpt>
      <trkpt lat="42.506138971075416" lon="2.171033034101129">
        <ele>1134.49</ele>
        <time>2025-05-15T07:49:39Z</time>
      </trkpt>
      <trkpt lat="42.506165038794279" lon="2.171259010210633">
        <ele>1133.05</ele>
        <time>2025-05-15T07:49:40Z</time>
      </trkpt>
      <trkpt lat="42.50619001686573" lon="2.171486997976899">
        <ele>1132.0899999999999</ele>
        <time>2025-05-15T07:49:41Z</time>
      </trkpt>
      <trkpt lat="42.506321026012301" lon="2.172638000920415">
        <ele>1125.3599999999999</ele>
        <time>2025-05-15T07:49:46Z</time>
      </trkpt>
      <trkpt lat="42.506360001862049" lon="2.172851990908384">
        <ele>1123.9200000000001</ele>
        <time>2025-05-15T07:49:47Z</time>
      </trkpt>
      <trkpt lat="42.506437031552196" lon="2.173035973683">
        <ele>1122.48</ele>
        <time>2025-05-15T07:49:48Z</time>
      </trkpt>
      <trkpt lat="42.506535016000271" lon="2.173191038891673">
        <ele>1121.52</ele>
        <time>2025-05-15T07:49:49Z</time>
      </trkpt>
      <trkpt lat="42.506637023761868" lon="2.173340991139412">
        <ele>1120.0699999999999</ele>
        <time>2025-05-15T07:49:50Z</time>
      </trkpt>
      <trkpt lat="42.506741965189576" lon="2.173494966700673">
        <ele>1118.6300000000001</ele>
        <time>2025-05-15T07:49:51Z</time>
      </trkpt>
      <trkpt lat="42.506827963516116" lon="2.173654977232218">
        <ele>1117.1900000000001</ele>
        <time>2025-05-15T07:49:52Z</time>
      </trkpt>
      <trkpt lat="42.506880015134811" lon="2.173847006633878">
        <ele>1115.75</ele>
        <time>2025-05-15T07:49:53Z</time>
      </trkpt>
      <trkpt lat="42.5069410353899" lon="2.174069965258241">
        <ele>1114.79</ele>
        <time>2025-05-15T07:49:54Z</time>
      </trkpt>
      <trkpt lat="42.506977999582887" lon="2.174239028245211">
        <ele>1113.3399999999999</ele>
        <time>2025-05-15T07:49:55Z</time>
      </trkpt>
      <trkpt lat="42.507014963775873" lon="2.174411024898291">
        <ele>1111.9000000000001</ele>
        <time>2025-05-15T07:49:56Z</time>
      </trkpt>
      <trkpt lat="42.507045976817608" lon="2.174555025994778">
        <ele>1110.9400000000001</ele>
        <time>2025-05-15T07:49:57Z</time>
      </trkpt>
      <trkpt lat="42.507128035649657" lon="2.174629960209131">
        <ele>1109.5</ele>
        <time>2025-05-15T07:49:58Z</time>
      </trkpt>
      <trkpt lat="42.50722199678421" lon="2.174684023484588">
        <ele>1108.54</ele>
        <time>2025-05-15T07:49:59Z</time>
      </trkpt>
      <trkpt lat="42.507334984838963" lon="2.174715958535671">
        <ele>1107.0999999999999</ele>
        <time>2025-05-15T07:50:00Z</time>
      </trkpt>
      <trkpt lat="42.507445039227605" lon="2.174746971577406">
        <ele>1106.1300000000001</ele>
        <time>2025-05-15T07:50:01Z</time>
      </trkpt>
      <trkpt lat="42.507660035043955" lon="2.17481897212565">
        <ele>1103.73</ele>
        <time>2025-05-15T07:50:03Z</time>
      </trkpt>
      <trkpt lat="42.507765982300043" lon="2.174884015694261">
        <ele>1102.77</ele>
        <time>2025-05-15T07:50:04Z</time>
      </trkpt>
      <trkpt lat="42.507874025031924" lon="2.174950987100601">
        <ele>1101.8099999999999</ele>
        <time>2025-05-15T07:50:05Z</time>
      </trkpt>
      <trkpt lat="42.507962035015225" lon="2.175045032054186">
        <ele>1100.3699999999999</ele>
        <time>2025-05-15T07:50:06Z</time>
      </trkpt>
      <trkpt lat="42.50803504139185" lon="2.175143016502261">
        <ele>1099.4000000000001</ele>
        <time>2025-05-15T07:50:07Z</time>
      </trkpt>
      <trkpt lat="42.508089020848274" lon="2.175286011770368">
        <ele>1097.96</ele>
        <time>2025-05-15T07:50:08Z</time>
      </trkpt>
      <trkpt lat="42.508137971162796" lon="2.175417020916939">
        <ele>1097</ele>
        <time>2025-05-15T07:50:09Z</time>
      </trkpt>
      <trkpt lat="42.508194968104362" lon="2.175534032285214">
        <ele>1096.04</ele>
        <time>2025-05-15T07:50:10Z</time>
      </trkpt>
      <trkpt lat="42.508251965045929" lon="2.175624975934625">
        <ele>1095.0799999999999</ele>
        <time>2025-05-15T07:50:11Z</time>
      </trkpt>
      <trkpt lat="42.508307034149766" lon="2.175709968432784">
        <ele>1094.5999999999999</ele>
        <time>2025-05-15T07:50:12Z</time>
      </trkpt>
      <trkpt lat="42.508384985849261" lon="2.175722038373351">
        <ele>1093.6400000000001</ele>
        <time>2025-05-15T07:50:13Z</time>
      </trkpt>
      <trkpt lat="42.508466960862279" lon="2.175722038373351">
        <ele>1092.6800000000001</ele>
        <time>2025-05-15T07:50:14Z</time>
      </trkpt>
      <trkpt lat="42.50855497084558" lon="2.175722038373351">
        <ele>1091.23</ele>
        <time>2025-05-15T07:50:15Z</time>
      </trkpt>
      <trkpt lat="42.508620014414191" lon="2.175674010068178">
        <ele>1089.79</ele>
        <time>2025-05-15T07:50:16Z</time>
      </trkpt>
      <trkpt lat="42.508682040497661" lon="2.175611983984709">
        <ele>1088.3499999999999</ele>
        <time>2025-05-15T07:50:17Z</time>
      </trkpt>
      <trkpt lat="42.508739037439227" lon="2.175554987043142">
        <ele>1086.9100000000001</ele>
        <time>2025-05-15T07:50:18Z</time>
      </trkpt>
      <trkpt lat="42.508850013837218" lon="2.175444010645151">
        <ele>1084.02</ele>
        <time>2025-05-15T07:50:20Z</time>
      </trkpt>
      <trkpt lat="42.508906004950404" lon="2.175410985946655">
        <ele>1082.5799999999999</ele>
        <time>2025-05-15T07:50:21Z</time>
      </trkpt>
      <trkpt lat="42.508970964699984" lon="2.175389025360346">
        <ele>1081.6199999999999</ele>
        <time>2025-05-15T07:50:22Z</time>
      </trkpt>
      <trkpt lat="42.509000971913338" lon="2.17537896707654">
        <ele>1080.1800000000001</ele>
        <time>2025-05-15T07:50:23Z</time>
      </trkpt>
      <trkpt lat="42.509073978289962" lon="2.175451973453164">
        <ele>1078.74</ele>
        <time>2025-05-15T07:50:24Z</time>
      </trkpt>
      <trkpt lat="42.509130975231528" lon="2.175508970394731">
        <ele>1077.78</ele>
        <time>2025-05-15T07:50:25Z</time>
      </trkpt>
      <trkpt lat="42.509186966344714" lon="2.175564961507917">
        <ele>1077.29</ele>
        <time>2025-05-15T07:50:26Z</time>
      </trkpt>
      <trkpt lat="42.509247986599803" lon="2.175625981763005">
        <ele>1076.8099999999999</ele>
        <time>2025-05-15T07:50:27Z</time>
      </trkpt>
      <trkpt lat="42.509320992976427" lon="2.175698988139629">
        <ele>1076.3299999999999</ele>
        <time>2025-05-15T07:50:28Z</time>
      </trkpt>
      <trkpt lat="42.509396011009812" lon="2.175774006173015">
        <ele>1075.8499999999999</ele>
        <time>2025-05-15T07:50:29Z</time>
      </trkpt>
      <trkpt lat="42.509489972144365" lon="2.175819016993046">
        <ele>1074.8900000000001</ele>
        <time>2025-05-15T07:50:30Z</time>
      </trkpt>
      <trkpt lat="42.509588040411472" lon="2.175837960094214">
        <ele>1074.4100000000001</ele>
        <time>2025-05-15T07:50:31Z</time>
      </trkpt>
      <trkpt lat="42.509687030687928" lon="2.175856987014413">
        <ele>1073.45</ele>
        <time>2025-05-15T07:50:32Z</time>
      </trkpt>
      <trkpt lat="42.510436037555337" lon="2.176032001152635">
        <ele>1068.6400000000001</ele>
        <time>2025-05-15T07:50:37Z</time>
      </trkpt>
      <trkpt lat="42.51059303060174" lon="2.176125962287188">
        <ele>1067.2</ele>
        <time>2025-05-15T07:50:38Z</time>
      </trkpt>
      <trkpt lat="42.510738959535956" lon="2.176248002797365">
        <ele>1065.76</ele>
        <time>2025-05-15T07:50:39Z</time>
      </trkpt>
      <trkpt lat="42.510861000046134" lon="2.176383035257459">
        <ele>1064.8</ele>
        <time>2025-05-15T07:50:40Z</time>
      </trkpt>
      <trkpt lat="42.510956972837448" lon="2.176522007212043">
        <ele>1063.8399999999999</ele>
        <time>2025-05-15T07:50:41Z</time>
      </trkpt>
      <trkpt lat="42.511032996699214" lon="2.176637006923556">
        <ele>1062.8699999999999</ele>
        <time>2025-05-15T07:50:42Z</time>
      </trkpt>
      <trkpt lat="42.511556027457118" lon="2.177422977983952">
        <ele>1059.03</ele>
        <time>2025-05-15T07:50:49Z</time>
      </trkpt>
      <trkpt lat="42.511646971106529" lon="2.177711986005306">
        <ele>1057.5899999999999</ele>
        <time>2025-05-15T07:50:51Z</time>
      </trkpt>
      <trkpt lat="42.511687958613038" lon="2.177845006808639">
        <ele>1056.6300000000001</ele>
        <time>2025-05-15T07:50:52Z</time>
      </trkpt>
      <trkpt lat="42.511769011616707" lon="2.178190005943179">
        <ele>1053.74</ele>
        <time>2025-05-15T07:50:55Z</time>
      </trkpt>
      <trkpt lat="42.511855009943247" lon="2.178704990074039">
        <ele>1047.97</ele>
        <time>2025-05-15T07:51:00Z</time>
      </trkpt>
      <trkpt lat="42.511870013549924" lon="2.178781013935804">
        <ele>1047.01</ele>
        <time>2025-05-15T07:51:01Z</time>
      </trkpt>
      <trkpt lat="42.512092972174287" lon="2.1801230404526">
        <ele>1041.73</ele>
        <time>2025-05-15T07:51:12Z</time>
      </trkpt>
      <trkpt lat="42.512107975780964" lon="2.18038103543222">
        <ele>1040.76</ele>
        <time>2025-05-15T07:51:14Z</time>
      </trkpt>
      <trkpt lat="42.512090038508177" lon="2.180615980178118">
        <ele>1040.28</ele>
        <time>2025-05-15T07:51:16Z</time>
      </trkpt>
      <trkpt lat="42.512076962739229" lon="2.180721005424857">
        <ele>1039.8</ele>
        <time>2025-05-15T07:51:17Z</time>
      </trkpt>
      <trkpt lat="42.512063970789313" lon="2.18089702539146">
        <ele>1038.8399999999999</ele>
        <time>2025-05-15T07:51:19Z</time>
      </trkpt>
      <trkpt lat="42.512050978839397" lon="2.181154014542699">
        <ele>1037.4000000000001</ele>
        <time>2025-05-15T07:51:22Z</time>
      </trkpt>
      <trkpt lat="42.512048967182636" lon="2.181239007040858">
        <ele>1037.4000000000001</ele>
        <time>2025-05-15T07:51:23Z</time>
      </trkpt>
      <trkpt lat="42.5120560079813" lon="2.181332968175411">
        <ele>1036.9200000000001</ele>
        <time>2025-05-15T07:51:24Z</time>
      </trkpt>
      <trkpt lat="42.512061959132552" lon="2.181427013128996">
        <ele>1036.4400000000001</ele>
        <time>2025-05-15T07:51:25Z</time>
      </trkpt>
      <trkpt lat="42.512067994102836" lon="2.18152298592031">
        <ele>1036.4400000000001</ele>
        <time>2025-05-15T07:51:26Z</time>
      </trkpt>
      <trkpt lat="42.512090960517526" lon="2.181624993681908">
        <ele>1035.96</ele>
        <time>2025-05-15T07:51:27Z</time>
      </trkpt>
      <trkpt lat="42.512344010174274" lon="2.182654039934278">
        <ele>1033.55</ele>
        <time>2025-05-15T07:51:37Z</time>
      </trkpt>
      <trkpt lat="42.512360019609332" lon="2.182739032432437">
        <ele>1033.0699999999999</ele>
        <time>2025-05-15T07:51:38Z</time>
      </trkpt>
      <trkpt lat="42.51246202737093" lon="2.183242030441761">
        <ele>1031.1500000000001</ele>
        <time>2025-05-15T07:51:43Z</time>
      </trkpt>
      <trkpt lat="42.512485999614" lon="2.183347977697849">
        <ele>1030.6700000000001</ele>
        <time>2025-05-15T07:51:44Z</time>
      </trkpt>
      <trkpt lat="42.512533022090793" lon="2.183558028191328">
        <ele>1030.1900000000001</ele>
        <time>2025-05-15T07:51:46Z</time>
      </trkpt>
      <trkpt lat="42.512556994333863" lon="2.183667998760939">
        <ele>1029.71</ele>
        <time>2025-05-15T07:51:47Z</time>
      </trkpt>
      <trkpt lat="42.512608040124178" lon="2.183913001790643">
        <ele>1029.23</ele>
        <time>2025-05-15T07:51:49Z</time>
      </trkpt>
      <trkpt lat="42.5126569904387" lon="2.184170996770263">
        <ele>1028.75</ele>
        <time>2025-05-15T07:51:51Z</time>
      </trkpt>
      <trkpt lat="42.512694960460067" lon="2.184304017573595">
        <ele>1028.75</ele>
        <time>2025-05-15T07:51:52Z</time>
      </trkpt>
      <trkpt lat="42.513227965682745" lon="2.185675967484713">
        <ele>1024.9000000000001</ele>
        <time>2025-05-15T07:52:02Z</time>
      </trkpt>
      <trkpt lat="42.513254033401608" lon="2.185824997723103">
        <ele>1024.4200000000001</ele>
        <time>2025-05-15T07:52:03Z</time>
      </trkpt>
      <trkpt lat="42.51327901147306" lon="2.185967992991209">
        <ele>1023.9400000000001</ele>
        <time>2025-05-15T07:52:04Z</time>
      </trkpt>
      <trkpt lat="42.513281023129821" lon="2.186109982430935">
        <ele>1022.98</ele>
        <time>2025-05-15T07:52:05Z</time>
      </trkpt>
      <trkpt lat="42.513260990381241" lon="2.186231017112732">
        <ele>1022.5</ele>
        <time>2025-05-15T07:52:06Z</time>
      </trkpt>
      <trkpt lat="42.513238023966551" lon="2.186345010995865">
        <ele>1021.54</ele>
        <time>2025-05-15T07:52:07Z</time>
      </trkpt>
      <trkpt lat="42.513121012598276" lon="2.186794029548764">
        <ele>1019.62</ele>
        <time>2025-05-15T07:52:11Z</time>
      </trkpt>
      <trkpt lat="42.513121012598276" lon="2.186934007331729">
        <ele>1019.13</ele>
        <time>2025-05-15T07:52:12Z</time>
      </trkpt>
      <trkpt lat="42.513126963749528" lon="2.187058981508017">
        <ele>1018.65</ele>
        <time>2025-05-15T07:52:13Z</time>
      </trkpt>
      <trkpt lat="42.513160994276404" lon="2.187455026432872">
        <ele>1017.21</ele>
        <time>2025-05-15T07:52:16Z</time>
      </trkpt>
      <trkpt lat="42.51315001398325" lon="2.187595004215837">
        <ele>1017.21</ele>
        <time>2025-05-15T07:52:17Z</time>
      </trkpt>
      <trkpt lat="42.513135010376573" lon="2.187730958685279">
        <ele>1016.73</ele>
        <time>2025-05-15T07:52:18Z</time>
      </trkpt>
      <trkpt lat="42.513099974021316" lon="2.188030024990439">
        <ele>1015.77</ele>
        <time>2025-05-15T07:52:20Z</time>
      </trkpt>
      <trkpt lat="42.513077007606626" lon="2.188223982229829">
        <ele>1015.29</ele>
        <time>2025-05-15T07:52:21Z</time>
      </trkpt>
      <trkpt lat="42.513059992343187" lon="2.188423974439502">
        <ele>1015.29</ele>
        <time>2025-05-15T07:52:22Z</time>
      </trkpt>
      <trkpt lat="42.513089999556541" lon="2.188608963042498">
        <ele>1015.29</ele>
        <time>2025-05-15T07:52:23Z</time>
      </trkpt>
      <trkpt lat="42.513121012598276" lon="2.188792023807764">
        <ele>1014.8099999999999</ele>
        <time>2025-05-15T07:52:24Z</time>
      </trkpt>
      <trkpt lat="42.513165017589927" lon="2.188967959955335">
        <ele>1014.8099999999999</ele>
        <time>2025-05-15T07:52:25Z</time>
      </trkpt>
      <trkpt lat="42.513207010924816" lon="2.189137022942305">
        <ele>1013.85</ele>
        <time>2025-05-15T07:52:26Z</time>
      </trkpt>
      <trkpt lat="42.513462994247675" lon="2.190184006467462">
        <ele>1010.96</ele>
        <time>2025-05-15T07:52:31Z</time>
      </trkpt>
      <trkpt lat="42.51360003836453" lon="2.190805021673441">
        <ele>1008.08</ele>
        <time>2025-05-15T07:52:34Z</time>
      </trkpt>
      <trkpt lat="42.513658963143826" lon="2.190978024154902">
        <ele>1007.6</ele>
        <time>2025-05-15T07:52:35Z</time>
      </trkpt>
      <trkpt lat="42.514176964759827" lon="2.191850999370217">
        <ele>1002.79</ele>
        <time>2025-05-15T07:52:40Z</time>
      </trkpt>
      <trkpt lat="42.51433102414012" lon="2.192187029868364">
        <ele>1000.87</ele>
        <time>2025-05-15T07:52:42Z</time>
      </trkpt>
      <trkpt lat="42.514421967789531" lon="2.192358020693064">
        <ele>999.90999999999997</ele>
        <time>2025-05-15T07:52:43Z</time>
      </trkpt>
      <trkpt lat="42.514545014128089" lon="2.192530017346144">
        <ele>999.42999999999995</ele>
        <time>2025-05-15T07:52:44Z</time>
      </trkpt>
      <trkpt lat="42.514838967472315" lon="2.192828999832273">
        <ele>997.01999999999998</ele>
        <time>2025-05-15T07:52:46Z</time>
      </trkpt>
      <trkpt lat="42.514917002990842" lon="2.19301600009203">
        <ele>996.05999999999995</ele>
        <time>2025-05-15T07:52:47Z</time>
      </trkpt>
      <trkpt lat="42.514961007982492" lon="2.193213980644941">
        <ele>994.62</ele>
        <time>2025-05-15T07:52:48Z</time>
      </trkpt>
      <trkpt lat="42.514986991882324" lon="2.193425036966801">
        <ele>993.65999999999997</ele>
        <time>2025-05-15T07:52:49Z</time>
      </trkpt>
      <trkpt lat="42.514969976618886" lon="2.193642966449261">
        <ele>992.22000000000003</ele>
        <time>2025-05-15T07:52:50Z</time>
      </trkpt>
      <trkpt lat="42.514952961355448" lon="2.193859973922372">
        <ele>991.25999999999999</ele>
        <time>2025-05-15T07:52:51Z</time>
      </trkpt>
      <trkpt lat="42.514968970790505" lon="2.194053009152412">
        <ele>989.80999999999995</ele>
        <time>2025-05-15T07:52:52Z</time>
      </trkpt>
      <trkpt lat="42.515015993267298" lon="2.194234980270267">
        <ele>988.85000000000002</ele>
        <time>2025-05-15T07:52:53Z</time>
      </trkpt>
      <trkpt lat="42.515062009915709" lon="2.194409994408488">
        <ele>988.37</ele>
        <time>2025-05-15T07:52:54Z</time>
      </trkpt>
      <trkpt lat="42.51514901407063" lon="2.194552989676595">
        <ele>987.40999999999997</ele>
        <time>2025-05-15T07:52:55Z</time>
      </trkpt>
      <trkpt lat="42.515256972983479" lon="2.194692967459559">
        <ele>986.45000000000005</ele>
        <time>2025-05-15T07:52:56Z</time>
      </trkpt>
      <trkpt lat="42.515380019322038" lon="2.194815007969737">
        <ele>985.49000000000001</ele>
        <time>2025-05-15T07:52:57Z</time>
      </trkpt>
      <trkpt lat="42.515512034296989" lon="2.194933025166392">
        <ele>984.52999999999997</ele>
        <time>2025-05-15T07:52:58Z</time>
      </trkpt>
      <trkpt lat="42.515910007059574" lon="2.195267966017127">
        <ele>982.12</ele>
        <time>2025-05-15T07:53:01Z</time>
      </trkpt>
      <trkpt lat="42.516061970964074" lon="2.19533896073699">
        <ele>981.15999999999997</ele>
        <time>2025-05-15T07:53:02Z</time>
      </trkpt>
      <trkpt lat="42.516678962856531" lon="2.195626040920615">
        <ele>978.27999999999997</ele>
        <time>2025-05-15T07:53:06Z</time>
      </trkpt>
      <trkpt lat="42.516815001145005" lon="2.195707010105252">
        <ele>977.32000000000005</ele>
        <time>2025-05-15T07:53:07Z</time>
      </trkpt>
      <trkpt lat="42.516919020563364" lon="2.195827960968018">
        <ele>975.88</ele>
        <time>2025-05-15T07:53:08Z</time>
      </trkpt>
      <trkpt lat="42.516986997798085" lon="2.195999035611749">
        <ele>974.90999999999997</ele>
        <time>2025-05-15T07:53:09Z</time>
      </trkpt>
      <trkpt lat="42.517023039981723" lon="2.196188969537616">
        <ele>973.95000000000005</ele>
        <time>2025-05-15T07:53:10Z</time>
      </trkpt>
      <trkpt lat="42.517046006396413" lon="2.196392985060811">
        <ele>972.99000000000001</ele>
        <time>2025-05-15T07:53:11Z</time>
      </trkpt>
      <trkpt lat="42.517007030546665" lon="2.196601023897529">
        <ele>972.02999999999997</ele>
        <time>2025-05-15T07:53:12Z</time>
      </trkpt>
      <trkpt lat="42.516964031383395" lon="2.196825994178653">
        <ele>971.54999999999995</ele>
        <time>2025-05-15T07:53:13Z</time>
      </trkpt>
      <trkpt lat="42.516922038048506" lon="2.197050964459777">
        <ele>970.59000000000003</ele>
        <time>2025-05-15T07:53:14Z</time>
      </trkpt>
      <trkpt lat="42.516916003078222" lon="2.197295967489481">
        <ele>969.14999999999998</ele>
        <time>2025-05-15T07:53:15Z</time>
      </trkpt>
      <trkpt lat="42.516952967271209" lon="2.197530996054411">
        <ele>967.22000000000003</ele>
        <time>2025-05-15T07:53:16Z</time>
      </trkpt>
      <trkpt lat="42.517023039981723" lon="2.198009015992284">
        <ele>964.34000000000003</ele>
        <time>2025-05-15T07:53:18Z</time>
      </trkpt>
      <trkpt lat="42.517009964212775" lon="2.198258964344859">
        <ele>962.89999999999998</ele>
        <time>2025-05-15T07:53:19Z</time>
      </trkpt>
      <trkpt lat="42.516967970877886" lon="2.198500027880073">
        <ele>961.46000000000004</ele>
        <time>2025-05-15T07:53:20Z</time>
      </trkpt>
      <trkpt lat="42.516908040270209" lon="2.198729021474719">
        <ele>960.49000000000001</ele>
        <time>2025-05-15T07:53:21Z</time>
      </trkpt>
      <trkpt lat="42.516850037500262" lon="2.198950974270701">
        <ele>959.04999999999995</ele>
        <time>2025-05-15T07:53:22Z</time>
      </trkpt>
      <trkpt lat="42.516747023910284" lon="2.199347019195557">
        <ele>957.13</ele>
        <time>2025-05-15T07:53:24Z</time>
      </trkpt>
      <trkpt lat="42.516650967299938" lon="2.199578024446964">
        <ele>956.16999999999996</ele>
        <time>2025-05-15T07:53:25Z</time>
      </trkpt>
      <trkpt lat="42.516649039462209" lon="2.199801988899708">
        <ele>955.21000000000004</ele>
        <time>2025-05-15T07:53:26Z</time>
      </trkpt>
      <trkpt lat="42.516692960634828" lon="2.20002100802958">
        <ele>954.73000000000002</ele>
        <time>2025-05-15T07:53:27Z</time>
      </trkpt>
      <trkpt lat="42.516778036952019" lon="2.200219994410873">
        <ele>953.27999999999997</ele>
        <time>2025-05-15T07:53:28Z</time>
      </trkpt>
      <trkpt lat="42.516869986429811" lon="2.200425015762448">
        <ele>952.32000000000005</ele>
        <time>2025-05-15T07:53:29Z</time>
      </trkpt>
      <trkpt lat="42.51781596802175" lon="2.202270040288568">
        <ele>941.75</ele>
        <time>2025-05-15T07:53:38Z</time>
      </trkpt>
      <trkpt lat="42.517945971339941" lon="2.202672958374023">
        <ele>939.35000000000002</ele>
        <time>2025-05-15T07:53:40Z</time>
      </trkpt>
      <trkpt lat="42.518038004636765" lon="2.202833974733949">
        <ele>938.38</ele>
        <time>2025-05-15T07:53:41Z</time>
      </trkpt>
      <trkpt lat="42.518145041540265" lon="2.202992979437113">
        <ele>937.89999999999998</ele>
        <time>2025-05-15T07:53:42Z</time>
      </trkpt>
      <trkpt lat="42.518816012889147" lon="2.203714996576309">
        <ele>932.62</ele>
        <time>2025-05-15T07:53:47Z</time>
      </trkpt>
      <trkpt lat="42.518979040905833" lon="2.203809963539243">
        <ele>931.64999999999998</ele>
        <time>2025-05-15T07:53:48Z</time>
      </trkpt>
      <trkpt lat="42.519424958154559" lon="2.204067958518863">
        <ele>927.80999999999995</ele>
        <time>2025-05-15T07:53:51Z</time>
      </trkpt>
      <trkpt lat="42.519525038078427" lon="2.204226963222027">
        <ele>926.37</ele>
        <time>2025-05-15T07:53:52Z</time>
      </trkpt>
      <trkpt lat="42.519615981727839" lon="2.204407006502152">
        <ele>925.40999999999997</ele>
        <time>2025-05-15T07:53:53Z</time>
      </trkpt>
      <trkpt lat="42.519686976447701" lon="2.204590989276767">
        <ele>923.96000000000004</ele>
        <time>2025-05-15T07:53:54Z</time>
      </trkpt>
      <trkpt lat="42.519708015024662" lon="2.204786958172917">
        <ele>922.51999999999998</ele>
        <time>2025-05-15T07:53:55Z</time>
      </trkpt>
      <trkpt lat="42.519708015024662" lon="2.204969013109803">
        <ele>921.08000000000004</ele>
        <time>2025-05-15T07:53:56Z</time>
      </trkpt>
      <trkpt lat="42.519708015024662" lon="2.205075966194272">
        <ele>920.12</ele>
        <time>2025-05-15T07:53:57Z</time>
      </trkpt>
      <trkpt lat="42.519711032509804" lon="2.20558499917388">
        <ele>911.95000000000005</ele>
        <time>2025-05-15T07:54:04Z</time>
      </trkpt>
      <trkpt lat="42.519711032509804" lon="2.20558499917388">
        <ele>910.50999999999999</ele>
        <time>2025-05-15T07:54:14Z</time>
      </trkpt>
      <trkpt lat="42.519716983661056" lon="2.205654988065362">
        <ele>909.53999999999996</ele>
        <time>2025-05-15T07:55:03Z</time>
      </trkpt>
      <trkpt lat="42.519782027229667" lon="2.205953970551491">
        <ele>909.53999999999996</ele>
        <time>2025-05-15T07:55:06Z</time>
      </trkpt>
      <trkpt lat="42.519837012514472" lon="2.206064024940133">
        <ele>909.53999999999996</ele>
        <time>2025-05-15T07:55:07Z</time>
      </trkpt>
      <trkpt lat="42.519904989749193" lon="2.20616402104497">
        <ele>909.53999999999996</ele>
        <time>2025-05-15T07:55:08Z</time>
      </trkpt>
      <trkpt lat="42.520000962540507" lon="2.206220012158155">
        <ele>909.53999999999996</ele>
        <time>2025-05-15T07:55:09Z</time>
      </trkpt>
      <trkpt lat="42.520137000828981" lon="2.206298969686031">
        <ele>909.05999999999995</ele>
        <time>2025-05-15T07:55:10Z</time>
      </trkpt>
      <trkpt lat="42.520216964185238" lon="2.206327971071005">
        <ele>909.05999999999995</ele>
        <time>2025-05-15T07:55:11Z</time>
      </trkpt>
      <trkpt lat="42.520331963896751" lon="2.206368958577514">
        <ele>908.58000000000004</ele>
        <time>2025-05-15T07:55:12Z</time>
      </trkpt>
      <trkpt lat="42.520451992750168" lon="2.206424027681351">
        <ele>908.10000000000002</ele>
        <time>2025-05-15T07:55:13Z</time>
      </trkpt>
      <trkpt lat="42.520548971369863" lon="2.206538021564484">
        <ele>907.62</ele>
        <time>2025-05-15T07:55:14Z</time>
      </trkpt>
      <trkpt lat="42.520651984959841" lon="2.20665997825563">
        <ele>906.65999999999997</ele>
        <time>2025-05-15T07:55:15Z</time>
      </trkpt>
      <trkpt lat="42.520744018256664" lon="2.20680900849402">
        <ele>906.17999999999995</ele>
        <time>2025-05-15T07:55:16Z</time>
      </trkpt>
      <trkpt lat="42.520824987441301" lon="2.206986034289002">
        <ele>905.70000000000005</ele>
        <time>2025-05-15T07:55:17Z</time>
      </trkpt>
      <trkpt lat="42.521106032654643" lon="2.207715008407831">
        <ele>902.82000000000005</ele>
        <time>2025-05-15T07:55:21Z</time>
      </trkpt>
      <trkpt lat="42.521156994625926" lon="2.207894967868924">
        <ele>901.85000000000002</ele>
        <time>2025-05-15T07:55:22Z</time>
      </trkpt>
      <trkpt lat="42.521179961040616" lon="2.208086997270584">
        <ele>900.88999999999999</ele>
        <time>2025-05-15T07:55:23Z</time>
      </trkpt>
      <trkpt lat="42.521184990182519" lon="2.208281038329005">
        <ele>900.40999999999997</ele>
        <time>2025-05-15T07:55:24Z</time>
      </trkpt>
      <trkpt lat="42.521176021546125" lon="2.208483964204788">
        <ele>899.45000000000005</ele>
        <time>2025-05-15T07:55:25Z</time>
      </trkpt>
      <trkpt lat="42.5211669690907" lon="2.208702983334661">
        <ele>898.97000000000003</ele>
        <time>2025-05-15T07:55:26Z</time>
      </trkpt>
      <trkpt lat="42.521150037646294" lon="2.208900963887572">
        <ele>898.00999999999999</ele>
        <time>2025-05-15T07:55:27Z</time>
      </trkpt>
      <trkpt lat="42.521082982420921" lon="2.209653994068503">
        <ele>895.12</ele>
        <time>2025-05-15T07:55:31Z</time>
      </trkpt>
      <trkpt lat="42.521147020161152" lon="2.209815010428429">
        <ele>894.15999999999997</ele>
        <time>2025-05-15T07:55:32Z</time>
      </trkpt>
      <trkpt lat="42.521214997395873" lon="2.209965968504548">
        <ele>893.20000000000005</ele>
        <time>2025-05-15T07:55:33Z</time>
      </trkpt>
      <trkpt lat="42.521284986287355" lon="2.210122961550951">
        <ele>892.24000000000001</ele>
        <time>2025-05-15T07:55:34Z</time>
      </trkpt>
      <trkpt lat="42.521360004320741" lon="2.21029001288116">
        <ele>891.27999999999997</ele>
        <time>2025-05-15T07:55:35Z</time>
      </trkpt>
      <trkpt lat="42.521386994048953" lon="2.210475001484156">
        <ele>890.32000000000005</ele>
        <time>2025-05-15T07:55:36Z</time>
      </trkpt>
      <trkpt lat="42.521414989605546" lon="2.210672982037067">
        <ele>889.36000000000001</ele>
        <time>2025-05-15T07:55:37Z</time>
      </trkpt>
      <trkpt lat="42.52146796323359" lon="2.21108503639698">
        <ele>887.90999999999997</ele>
        <time>2025-05-15T07:55:39Z</time>
      </trkpt>
      <trkpt lat="42.52146796323359" lon="2.211699010804296">
        <ele>885.50999999999999</ele>
        <time>2025-05-15T07:55:42Z</time>
      </trkpt>
      <trkpt lat="42.521524038165808" lon="2.211872013285756">
        <ele>885.02999999999997</ele>
        <time>2025-05-15T07:55:43Z</time>
      </trkpt>
      <trkpt lat="42.521580029278994" lon="2.212039986625314">
        <ele>884.54999999999995</ele>
        <time>2025-05-15T07:55:44Z</time>
      </trkpt>
      <trkpt lat="42.522002980113029" lon="2.213356029242277">
        <ele>879.74000000000001</ele>
        <time>2025-05-15T07:55:51Z</time>
      </trkpt>
      <trkpt lat="42.522036004811525" lon="2.213569013401866">
        <ele>878.77999999999997</ele>
        <time>2025-05-15T07:55:52Z</time>
      </trkpt>
      <trkpt lat="42.52208998426795" lon="2.214430002495647">
        <ele>875.89999999999998</ele>
        <time>2025-05-15T07:55:56Z</time>
      </trkpt>
      <trkpt lat="42.522056037560105" lon="2.214623037725687">
        <ele>874.94000000000005</ele>
        <time>2025-05-15T07:55:57Z</time>
      </trkpt>
      <trkpt lat="42.522025024518371" lon="2.21480299718678">
        <ele>873.5</ele>
        <time>2025-05-15T07:55:58Z</time>
      </trkpt>
      <trkpt lat="42.521994011476636" lon="2.214979017153382">
        <ele>872.52999999999997</ele>
        <time>2025-05-15T07:55:59Z</time>
      </trkpt>
      <trkpt lat="42.52196098677814" lon="2.215160988271236">
        <ele>871.57000000000005</ele>
        <time>2025-05-15T07:56:00Z</time>
      </trkpt>
      <trkpt lat="42.521991999819875" lon="2.215314041823149">
        <ele>870.13</ele>
        <time>2025-05-15T07:56:01Z</time>
      </trkpt>
      <trkpt lat="42.522066012024879" lon="2.215461982414126">
        <ele>869.16999999999996</ele>
        <time>2025-05-15T07:56:02Z</time>
      </trkpt>
      <trkpt lat="42.522161984816194" lon="2.21559701487422">
        <ele>868.21000000000004</ele>
        <time>2025-05-15T07:56:03Z</time>
      </trkpt>
      <trkpt lat="42.52223901450634" lon="2.215758031234145">
        <ele>867.25</ele>
        <time>2025-05-15T07:56:04Z</time>
      </trkpt>
      <trkpt lat="42.522283019497991" lon="2.215933967381716">
        <ele>866.28999999999996</ele>
        <time>2025-05-15T07:56:05Z</time>
      </trkpt>
      <trkpt lat="42.522278996184468" lon="2.21613597124815">
        <ele>865.79999999999995</ele>
        <time>2025-05-15T07:56:06Z</time>
      </trkpt>
      <trkpt lat="42.522273967042565" lon="2.216344010084868">
        <ele>864.84000000000003</ele>
        <time>2025-05-15T07:56:07Z</time>
      </trkpt>
      <trkpt lat="42.522270027548075" lon="2.216554982587695">
        <ele>864.36000000000001</ele>
        <time>2025-05-15T07:56:08Z</time>
      </trkpt>
      <trkpt lat="42.522264998406172" lon="2.216764027252793">
        <ele>863.88</ele>
        <time>2025-05-15T07:56:09Z</time>
      </trkpt>
      <trkpt lat="42.522276984527707" lon="2.216970976442099">
        <ele>863.39999999999998</ele>
        <time>2025-05-15T07:56:10Z</time>
      </trkpt>
      <trkpt lat="42.522338004782796" lon="2.217159988358617">
        <ele>862.44000000000005</ele>
        <time>2025-05-15T07:56:11Z</time>
      </trkpt>
      <trkpt lat="42.522397013381124" lon="2.217346988618374">
        <ele>861.48000000000002</ele>
        <time>2025-05-15T07:56:12Z</time>
      </trkpt>
      <trkpt lat="42.522488040849566" lon="2.21751001663506">
        <ele>860.03999999999996</ele>
        <time>2025-05-15T07:56:13Z</time>
      </trkpt>
      <trkpt lat="42.522590970620513" lon="2.217668015509844">
        <ele>859.08000000000004</ele>
        <time>2025-05-15T07:56:14Z</time>
      </trkpt>
      <trkpt lat="42.522690966725349" lon="2.217821991071105">
        <ele>857.63</ele>
        <time>2025-05-15T07:56:15Z</time>
      </trkpt>
      <trkpt lat="42.522772019729018" lon="2.218013014644384">
        <ele>856.66999999999996</ele>
        <time>2025-05-15T07:56:16Z</time>
      </trkpt>
      <trkpt lat="42.522907974198461" lon="2.218335969373584">
        <ele>855.71000000000004</ele>
        <time>2025-05-15T07:56:18Z</time>
      </trkpt>
      <trkpt lat="42.523001013323665" lon="2.218436971306801">
        <ele>855.71000000000004</ele>
        <time>2025-05-15T07:56:19Z</time>
      </trkpt>
      <trkpt lat="42.52312196418643" lon="2.218530010432005">
        <ele>854.75</ele>
        <time>2025-05-15T07:56:20Z</time>
      </trkpt>
      <trkpt lat="42.523373002186418" lon="2.218747017905116">
        <ele>852.83000000000004</ele>
        <time>2025-05-15T07:56:22Z</time>
      </trkpt>
      <trkpt lat="42.523499988019466" lon="2.21886302344501">
        <ele>851.87</ele>
        <time>2025-05-15T07:56:23Z</time>
      </trkpt>
      <trkpt lat="42.523630997166038" lon="2.218982968479395">
        <ele>850.89999999999998</ele>
        <time>2025-05-15T07:56:24Z</time>
      </trkpt>
      <trkpt lat="42.523768963292241" lon="2.219095034524798">
        <ele>849.94000000000005</ele>
        <time>2025-05-15T07:56:25Z</time>
      </trkpt>
      <trkpt lat="42.523911036550999" lon="2.219196036458015">
        <ele>848.98000000000002</ele>
        <time>2025-05-15T07:56:26Z</time>
      </trkpt>
      <trkpt lat="42.524304986000061" lon="2.219553021714091">
        <ele>846.10000000000002</ele>
        <time>2025-05-15T07:56:29Z</time>
      </trkpt>
      <trkpt lat="42.524413028731942" lon="2.219706997275353">
        <ele>845.13999999999999</ele>
        <time>2025-05-15T07:56:30Z</time>
      </trkpt>
      <trkpt lat="42.524506989866495" lon="2.219867007806897">
        <ele>844.17999999999995</ele>
        <time>2025-05-15T07:56:31Z</time>
      </trkpt>
      <trkpt lat="42.524596005678177" lon="2.2200430277735">
        <ele>843.21000000000004</ele>
        <time>2025-05-15T07:56:32Z</time>
      </trkpt>
      <trkpt lat="42.524656020104885" lon="2.22023799084127">
        <ele>842.25</ele>
        <time>2025-05-15T07:56:33Z</time>
      </trkpt>
      <trkpt lat="42.524717040359974" lon="2.220434965565801">
        <ele>841.28999999999996</ele>
        <time>2025-05-15T07:56:34Z</time>
      </trkpt>
      <trkpt lat="42.525207968428731" lon="2.221745979040861">
        <ele>835.51999999999998</ele>
        <time>2025-05-15T07:56:41Z</time>
      </trkpt>
      <trkpt lat="42.52524996176362" lon="2.221934990957379">
        <ele>834.55999999999995</ele>
        <time>2025-05-15T07:56:42Z</time>
      </trkpt>
      <trkpt lat="42.525346018373966" lon="2.222292982041836">
        <ele>832.63999999999999</ele>
        <time>2025-05-15T07:56:44Z</time>
      </trkpt>
      <trkpt lat="42.5254219584167" lon="2.222461961209774">
        <ele>832.15999999999997</ele>
        <time>2025-05-15T07:56:45Z</time>
      </trkpt>
      <trkpt lat="42.525808028876781" lon="2.223334014415741">
        <ele>829.26999999999998</ele>
        <time>2025-05-15T07:56:50Z</time>
      </trkpt>
      <trkpt lat="42.525862008333206" lon="2.223502993583679">
        <ele>829.75999999999999</ele>
        <time>2025-05-15T07:56:51Z</time>
      </trkpt>
      <trkpt lat="42.525928979739547" lon="2.223862996324897">
        <ele>830.24000000000001</ele>
        <time>2025-05-15T07:56:53Z</time>
      </trkpt>
      <trkpt lat="42.525922022759914" lon="2.224046979099512">
        <ele>830.72000000000003</ele>
        <time>2025-05-15T07:56:54Z</time>
      </trkpt>
      <trkpt lat="42.525912970304489" lon="2.224229034036398">
        <ele>830.72000000000003</ele>
        <time>2025-05-15T07:56:55Z</time>
      </trkpt>
      <trkpt lat="42.525875000283122" lon="2.224413016811013">
        <ele>831.20000000000005</ele>
        <time>2025-05-15T07:56:56Z</time>
      </trkpt>
      <trkpt lat="42.525820014998317" lon="2.224593982100487">
        <ele>831.67999999999995</ele>
        <time>2025-05-15T07:56:57Z</time>
      </trkpt>
      <trkpt lat="42.525764023885131" lon="2.224774025380611">
        <ele>832.15999999999997</ele>
        <time>2025-05-15T07:56:58Z</time>
      </trkpt>
      <trkpt lat="42.525534024462104" lon="2.225658986717463">
        <ele>831.20000000000005</ele>
        <time>2025-05-15T07:57:03Z</time>
      </trkpt>
      <trkpt lat="42.52546202391386" lon="2.225822014734149">
        <ele>830.72000000000003</ele>
        <time>2025-05-15T07:57:04Z</time>
      </trkpt>
      <trkpt lat="42.525393962860107" lon="2.22588999196887">
        <ele>829.75999999999999</ele>
        <time>2025-05-15T07:57:05Z</time>
      </trkpt>
      <trkpt lat="42.525235963985324" lon="2.225960986688733">
        <ele>828.78999999999996</ele>
        <time>2025-05-15T07:57:06Z</time>
      </trkpt>
      <trkpt lat="42.525114007294178" lon="2.225984958931804">
        <ele>827.83000000000004</ele>
        <time>2025-05-15T07:57:07Z</time>
      </trkpt>
      <trkpt lat="42.524986015632749" lon="2.225997028872371">
        <ele>826.87</ele>
        <time>2025-05-15T07:57:08Z</time>
      </trkpt>
      <trkpt lat="42.524861041456461" lon="2.226003985852003">
        <ele>826.38999999999999</ele>
        <time>2025-05-15T07:57:09Z</time>
      </trkpt>
      <trkpt lat="42.524746041744947" lon="2.226016977801919">
        <ele>825.90999999999997</ele>
        <time>2025-05-15T07:57:10Z</time>
      </trkpt>
      <trkpt lat="42.52466800622642" lon="2.226098030805588">
        <ele>825.42999999999995</ele>
        <time>2025-05-15T07:57:11Z</time>
      </trkpt>
      <trkpt lat="42.524591982364655" lon="2.226195009425283">
        <ele>823.99000000000001</ele>
        <time>2025-05-15T07:57:12Z</time>
      </trkpt>
      <trkpt lat="42.524546971544623" lon="2.226323001086712">
        <ele>823.02999999999997</ele>
        <time>2025-05-15T07:57:13Z</time>
      </trkpt>
      <trkpt lat="42.524487962946296" lon="2.226478988304734">
        <ele>822.05999999999995</ele>
        <time>2025-05-15T07:57:14Z</time>
      </trkpt>
      <trkpt lat="42.524203984066844" lon="2.227163035422564">
        <ele>819.17999999999995</ele>
        <time>2025-05-15T07:57:18Z</time>
      </trkpt>
      <trkpt lat="42.52415201626718" lon="2.227359004318714">
        <ele>818.70000000000005</ele>
        <time>2025-05-15T07:57:19Z</time>
      </trkpt>
      <trkpt lat="42.524116979911923" lon="2.227570982649922">
        <ele>817.74000000000001</ele>
        <time>2025-05-15T07:57:20Z</time>
      </trkpt>
      <trkpt lat="42.524050008505583" lon="2.227970967069268">
        <ele>816.29999999999995</ele>
        <time>2025-05-15T07:57:22Z</time>
      </trkpt>
      <trkpt lat="42.524055037647486" lon="2.228164002299309">
        <ele>815.34000000000003</ele>
        <time>2025-05-15T07:57:23Z</time>
      </trkpt>
      <trkpt lat="42.524070963263512" lon="2.228374974802136">
        <ele>814.85000000000002</ele>
        <time>2025-05-15T07:57:24Z</time>
      </trkpt>
      <trkpt lat="42.524535991251469" lon="2.23042300902307">
        <ele>810.52999999999997</ele>
        <time>2025-05-15T07:57:33Z</time>
      </trkpt>
      <trkpt lat="42.524848971515894" lon="2.231700997799635">
        <ele>807.63999999999999</ele>
        <time>2025-05-15T07:57:38Z</time>
      </trkpt>
      <trkpt lat="42.524976041167974" lon="2.232220005244017">
        <ele>806.67999999999995</ele>
        <time>2025-05-15T07:57:40Z</time>
      </trkpt>
      <trkpt lat="42.525038989260793" lon="2.232479006052017">
        <ele>806.20000000000005</ele>
        <time>2025-05-15T07:57:41Z</time>
      </trkpt>
      <trkpt lat="42.525101015344262" lon="2.232730966061354">
        <ele>806.20000000000005</ele>
        <time>2025-05-15T07:57:42Z</time>
      </trkpt>
      <trkpt lat="42.525625973939896" lon="2.234489992260933">
        <ele>803.79999999999995</ele>
        <time>2025-05-15T07:57:49Z</time>
      </trkpt>
      <trkpt lat="42.525752959772944" lon="2.234945967793465">
        <ele>802.84000000000003</ele>
        <time>2025-05-15T07:57:51Z</time>
      </trkpt>
      <trkpt lat="42.525968961417675" lon="2.235824977979064">
        <ele>800.91999999999996</ele>
        <time>2025-05-15T07:57:55Z</time>
      </trkpt>
      <trkpt lat="42.526015983894467" lon="2.236016001552343">
        <ele>800.44000000000005</ele>
        <time>2025-05-15T07:57:56Z</time>
      </trkpt>
      <trkpt lat="42.52608303911984" lon="2.236187998205423">
        <ele>799.95000000000005</ele>
        <time>2025-05-15T07:57:57Z</time>
      </trkpt>
      <trkpt lat="42.526204995810986" lon="2.236568033695221">
        <ele>798.99000000000001</ele>
        <time>2025-05-15T07:57:59Z</time>
      </trkpt>
      <trkpt lat="42.526323013007641" lon="2.237029960379005">
        <ele>797.07000000000005</ele>
        <time>2025-05-15T07:58:01Z</time>
      </trkpt>
      <trkpt lat="42.526412028819323" lon="2.237253002822399">
        <ele>796.11000000000001</ele>
        <time>2025-05-15T07:58:02Z</time>
      </trkpt>
      <trkpt lat="42.526938999071717" lon="2.238898035138845">
        <ele>788.89999999999998</ele>
        <time>2025-05-15T07:58:09Z</time>
      </trkpt>
      <trkpt lat="42.527491031214595" lon="2.241520984098315">
        <ele>778.32000000000005</ele>
        <time>2025-05-15T07:58:19Z</time>
      </trkpt>
      <trkpt lat="42.527920017018914" lon="2.243169033899903">
        <ele>770.63</ele>
        <time>2025-05-15T07:58:26Z</time>
      </trkpt>
      <trkpt lat="42.528308015316725" lon="2.245273981243372">
        <ele>760.53999999999996</ele>
        <time>2025-05-15T07:58:35Z</time>
      </trkpt>
      <trkpt lat="42.528381021693349" lon="2.245777985081077">
        <ele>757.65999999999997</ele>
        <time>2025-05-15T07:58:38Z</time>
      </trkpt>
      <trkpt lat="42.528398958966136" lon="2.245867000892758">
        <ele>757.17999999999995</ele>
        <time>2025-05-15T07:58:39Z</time>
      </trkpt>
      <trkpt lat="42.52846903167665" lon="2.245927015319467">
        <ele>756.21000000000004</ele>
        <time>2025-05-15T07:58:40Z</time>
      </trkpt>
      <trkpt lat="42.528548995032907" lon="2.245995998382568">
        <ele>755.73000000000002</ele>
        <time>2025-05-15T07:58:41Z</time>
      </trkpt>
      <trkpt lat="42.528623007237911" lon="2.246011001989245">
        <ele>755.73000000000002</ele>
        <time>2025-05-15T07:58:42Z</time>
      </trkpt>
      <trkpt lat="42.52872702665627" lon="2.246031034737825">
        <ele>755.25</ele>
        <time>2025-05-15T07:58:43Z</time>
      </trkpt>
      <trkpt lat="42.528834985569119" lon="2.246052995324135">
        <ele>754.76999999999998</ele>
        <time>2025-05-15T07:58:44Z</time>
      </trkpt>
      <trkpt lat="42.528914026916027" lon="2.246151985600591">
        <ele>754.28999999999996</ele>
        <time>2025-05-15T07:58:45Z</time>
      </trkpt>
      <trkpt lat="42.528972029685974" lon="2.246275031939149">
        <ele>753.33000000000004</ele>
        <time>2025-05-15T07:58:46Z</time>
      </trkpt>
      <trkpt lat="42.529037995263934" lon="2.246415009722114">
        <ele>752.37</ele>
        <time>2025-05-15T07:58:47Z</time>
      </trkpt>
      <trkpt lat="42.529097003862262" lon="2.246564039960504">
        <ele>751.40999999999997</ele>
        <time>2025-05-15T07:58:48Z</time>
      </trkpt>
      <trkpt lat="42.529155006632209" lon="2.246731007471681">
        <ele>750.45000000000005</ele>
        <time>2025-05-15T07:58:49Z</time>
      </trkpt>
      <trkpt lat="42.529210997745395" lon="2.246892023831606">
        <ele>749.49000000000001</ele>
        <time>2025-05-15T07:58:50Z</time>
      </trkpt>
      <trkpt lat="42.529279980808496" lon="2.247035019099712">
        <ele>748.51999999999998</ele>
        <time>2025-05-15T07:58:51Z</time>
      </trkpt>
      <trkpt lat="42.529347036033869" lon="2.247148007154465">
        <ele>747.08000000000004</ele>
        <time>2025-05-15T07:58:52Z</time>
      </trkpt>
      <trkpt lat="42.529446026310325" lon="2.247228976339102">
        <ele>746.12</ele>
        <time>2025-05-15T07:58:53Z</time>
      </trkpt>
      <trkpt lat="42.529666973277926" lon="2.247370965778828">
        <ele>743.72000000000003</ele>
        <time>2025-05-15T07:58:55Z</time>
      </trkpt>
      <trkpt lat="42.529779961332679" lon="2.247458975762129">
        <ele>742.75999999999999</ele>
        <time>2025-05-15T07:58:56Z</time>
      </trkpt>
      <trkpt lat="42.52988800406456" lon="2.247552014887333">
        <ele>741.30999999999995</ele>
        <time>2025-05-15T07:58:57Z</time>
      </trkpt>
      <trkpt lat="42.529988000169396" lon="2.247657962143421">
        <ele>740.83000000000004</ele>
        <time>2025-05-15T07:58:58Z</time>
      </trkpt>
      <trkpt lat="42.53008003346622" lon="2.247756030410528">
        <ele>739.87</ele>
        <time>2025-05-15T07:58:59Z</time>
      </trkpt>
      <trkpt lat="42.530169971287251" lon="2.247850997373462">
        <ele>738.90999999999997</ele>
        <time>2025-05-15T07:59:00Z</time>
      </trkpt>
      <trkpt lat="42.530282959342003" lon="2.247901959344745">
        <ele>737.95000000000005</ele>
        <time>2025-05-15T07:59:01Z</time>
      </trkpt>
      <trkpt lat="42.530406005680561" lon="2.247924003750086">
        <ele>736.99000000000001</ele>
        <time>2025-05-15T07:59:02Z</time>
      </trkpt>
      <trkpt lat="42.530524022877216" lon="2.247895002365112">
        <ele>736.50999999999999</ele>
        <time>2025-05-15T07:59:03Z</time>
      </trkpt>
      <trkpt lat="42.530627036467195" lon="2.247823001816869">
        <ele>736.02999999999997</ele>
        <time>2025-05-15T07:59:04Z</time>
      </trkpt>
      <trkpt lat="42.530720997601748" lon="2.247729040682316">
        <ele>735.54999999999995</ele>
        <time>2025-05-15T07:59:05Z</time>
      </trkpt>
      <trkpt lat="42.530813030898571" lon="2.247637007385492">
        <ele>735.07000000000005</ele>
        <time>2025-05-15T07:59:06Z</time>
      </trkpt>
      <trkpt lat="42.530904980376363" lon="2.247544974088669">
        <ele>734.58000000000004</ele>
        <time>2025-05-15T07:59:07Z</time>
      </trkpt>
      <trkpt lat="42.531024003401399" lon="2.247528964653611">
        <ele>734.10000000000002</ele>
        <time>2025-05-15T07:59:08Z</time>
      </trkpt>
      <trkpt lat="42.531137997284532" lon="2.247522007673979">
        <ele>734.10000000000002</ele>
        <time>2025-05-15T07:59:09Z</time>
      </trkpt>
      <trkpt lat="42.531250985339284" lon="2.247541034594178">
        <ele>733.62</ele>
        <time>2025-05-15T07:59:10Z</time>
      </trkpt>
      <trkpt lat="42.531332960352302" lon="2.247634995728731">
        <ele>733.62</ele>
        <time>2025-05-15T07:59:11Z</time>
      </trkpt>
      <trkpt lat="42.531408984214067" lon="2.247743960469961">
        <ele>733.13999999999999</ele>
        <time>2025-05-15T07:59:12Z</time>
      </trkpt>
      <trkpt lat="42.531480984762311" lon="2.247878992930055">
        <ele>733.13999999999999</ele>
        <time>2025-05-15T07:59:13Z</time>
      </trkpt>
      <trkpt lat="42.531552985310555" lon="2.248013019561768">
        <ele>733.13999999999999</ele>
        <time>2025-05-15T07:59:14Z</time>
      </trkpt>
      <trkpt lat="42.531600007787347" lon="2.248155009001494">
        <ele>733.62</ele>
        <time>2025-05-15T07:59:15Z</time>
      </trkpt>
      <trkpt lat="42.531646024435759" lon="2.248290041461587">
        <ele>733.62</ele>
        <time>2025-05-15T07:59:16Z</time>
      </trkpt>
      <trkpt lat="42.53169103525579" lon="2.248414009809494">
        <ele>734.58000000000004</ele>
        <time>2025-05-15T07:59:17Z</time>
      </trkpt>
      <trkpt lat="42.531773010268807" lon="2.248524986207485">
        <ele>735.54999999999995</ele>
        <time>2025-05-15T07:59:18Z</time>
      </trkpt>
      <trkpt lat="42.531895972788334" lon="2.248571002855897">
        <ele>736.50999999999999</ele>
        <time>2025-05-15T07:59:19Z</time>
      </trkpt>
      <trkpt lat="42.531982976943254" lon="2.248553987592459">
        <ele>736.99000000000001</ele>
        <time>2025-05-15T07:59:20Z</time>
      </trkpt>
      <trkpt lat="42.532094037160277" lon="2.248531021177769">
        <ele>737.95000000000005</ele>
        <time>2025-05-15T07:59:21Z</time>
      </trkpt>
      <trkpt lat="42.532196966931224" lon="2.248571002855897">
        <ele>738.90999999999997</ele>
        <time>2025-05-15T07:59:22Z</time>
      </trkpt>
      <trkpt lat="42.53229696303606" lon="2.248652977868915">
        <ele>739.38999999999999</ele>
        <time>2025-05-15T07:59:23Z</time>
      </trkpt>
      <trkpt lat="42.532433001324534" lon="2.248764038085938">
        <ele>740.35000000000002</ele>
        <time>2025-05-15T07:59:24Z</time>
      </trkpt>
      <trkpt lat="42.532542971894145" lon="2.248805025592446">
        <ele>741.30999999999995</ele>
        <time>2025-05-15T07:59:25Z</time>
      </trkpt>
      <trkpt lat="42.532679010182619" lon="2.248855987563729">
        <ele>741.78999999999996</ele>
        <time>2025-05-15T07:59:26Z</time>
      </trkpt>
      <trkpt lat="42.532932981848717" lon="2.248951960355043">
        <ele>743.24000000000001</ele>
        <time>2025-05-15T07:59:28Z</time>
      </trkpt>
      <trkpt lat="42.533015962690115" lon="2.249060003086925">
        <ele>743.72000000000003</ele>
        <time>2025-05-15T07:59:29Z</time>
      </trkpt>
      <trkpt lat="42.533080000430346" lon="2.249190006405115">
        <ele>743.72000000000003</ele>
        <time>2025-05-15T07:59:30Z</time>
      </trkpt>
      <trkpt lat="42.533095004037023" lon="2.249359991401434">
        <ele>744.20000000000005</ele>
        <time>2025-05-15T07:59:31Z</time>
      </trkpt>
      <trkpt lat="42.533112019300461" lon="2.249540034681559">
        <ele>744.20000000000005</ele>
        <time>2025-05-15T07:59:32Z</time>
      </trkpt>
      <trkpt lat="42.533127022907138" lon="2.249710019677877">
        <ele>744.20000000000005</ele>
        <time>2025-05-15T07:59:33Z</time>
      </trkpt>
      <trkpt lat="42.533135991543531" lon="2.249871036037803">
        <ele>744.20000000000005</ele>
        <time>2025-05-15T07:59:34Z</time>
      </trkpt>
      <trkpt lat="42.533081006258726" lon="2.25001897662878">
        <ele>744.67999999999995</ele>
        <time>2025-05-15T07:59:35Z</time>
      </trkpt>
      <trkpt lat="42.533023003488779" lon="2.250175969675183">
        <ele>745.15999999999997</ele>
        <time>2025-05-15T07:59:36Z</time>
      </trkpt>
      <trkpt lat="42.53296097740531" lon="2.250342015177012">
        <ele>745.63999999999999</ele>
        <time>2025-05-15T07:59:37Z</time>
      </trkpt>
      <trkpt lat="42.532850001007318" lon="2.250672010704875">
        <ele>746.12</ele>
        <time>2025-05-15T07:59:39Z</time>
      </trkpt>
      <trkpt lat="42.532816976308823" lon="2.250845013186336">
        <ele>746.60000000000002</ele>
        <time>2025-05-15T07:59:40Z</time>
      </trkpt>
      <trkpt lat="42.532775988802314" lon="2.251060009002686">
        <ele>746.12</ele>
        <time>2025-05-15T07:59:41Z</time>
      </trkpt>
      <trkpt lat="42.532899035140872" lon="2.251952011138201">
        <ele>746.60000000000002</ele>
        <time>2025-05-15T07:59:46Z</time>
      </trkpt>
      <trkpt lat="42.532959971576929" lon="2.252119984477758">
        <ele>746.12</ele>
        <time>2025-05-15T07:59:47Z</time>
      </trkpt>
      <trkpt lat="42.533020991832018" lon="2.252283012494445">
        <ele>746.12</ele>
        <time>2025-05-15T07:59:48Z</time>
      </trkpt>
      <trkpt lat="42.533165998756886" lon="2.252606973052025">
        <ele>745.63999999999999</ele>
        <time>2025-05-15T07:59:50Z</time>
      </trkpt>
      <trkpt lat="42.533184019848704" lon="2.252825992181897">
        <ele>745.15999999999997</ele>
        <time>2025-05-15T07:59:51Z</time>
      </trkpt>
      <trkpt lat="42.533184019848704" lon="2.253016009926796">
        <ele>745.15999999999997</ele>
        <time>2025-05-15T07:59:52Z</time>
      </trkpt>
      <trkpt lat="42.533184019848704" lon="2.253199992701411">
        <ele>745.15999999999997</ele>
        <time>2025-05-15T07:59:53Z</time>
      </trkpt>
      <trkpt lat="42.533184019848704" lon="2.253376012668014">
        <ele>745.15999999999997</ele>
        <time>2025-05-15T07:59:54Z</time>
      </trkpt>
      <trkpt lat="42.53321603871882" lon="2.2536910045892">
        <ele>744.67999999999995</ele>
        <time>2025-05-15T07:59:56Z</time>
      </trkpt>
      <trkpt lat="42.533250991255045" lon="2.253823019564152">
        <ele>744.67999999999995</ele>
        <time>2025-05-15T07:59:57Z</time>
      </trkpt>
      <trkpt lat="42.533293990418315" lon="2.25392896682024">
        <ele>744.67999999999995</ele>
        <time>2025-05-15T07:59:58Z</time>
      </trkpt>
      <trkpt lat="42.533363979309797" lon="2.254033992066979">
        <ele>744.67999999999995</ele>
        <time>2025-05-15T07:59:59Z</time>
      </trkpt>
      <trkpt lat="42.533435979858041" lon="2.254112027585506">
        <ele>744.67999999999995</ele>
        <time>2025-05-15T08:00:00Z</time>
      </trkpt>
      <trkpt lat="42.533535975962877" lon="2.25418402813375">
        <ele>744.20000000000005</ele>
        <time>2025-05-15T08:00:01Z</time>
      </trkpt>
      <trkpt lat="42.533634966239333" lon="2.254215963184834">
        <ele>744.20000000000005</ele>
        <time>2025-05-15T08:00:02Z</time>
      </trkpt>
      <trkpt lat="42.533749965950847" lon="2.254247982054949">
        <ele>743.72000000000003</ele>
        <time>2025-05-15T08:00:03Z</time>
      </trkpt>
      <trkpt lat="42.533860020339489" lon="2.254250999540091">
        <ele>743.24000000000001</ele>
        <time>2025-05-15T08:00:04Z</time>
      </trkpt>
      <trkpt lat="42.533982982859015" lon="2.254241025075316">
        <ele>742.75999999999999</ele>
        <time>2025-05-15T08:00:05Z</time>
      </trkpt>
      <trkpt lat="42.534108040854335" lon="2.254229038953781">
        <ele>742.27999999999997</ele>
        <time>2025-05-15T08:00:06Z</time>
      </trkpt>
      <trkpt lat="42.534363018348813" lon="2.254200037568808">
        <ele>741.78999999999996</ele>
        <time>2025-05-15T08:00:08Z</time>
      </trkpt>
      <trkpt lat="42.534516993910074" lon="2.254183022305369">
        <ele>741.30999999999995</ele>
        <time>2025-05-15T08:00:09Z</time>
      </trkpt>
      <trkpt lat="42.53470198251307" lon="2.254178998991847">
        <ele>741.30999999999995</ele>
        <time>2025-05-15T08:00:10Z</time>
      </trkpt>
      <trkpt lat="42.536423038691282" lon="2.254331968724728">
        <ele>734.58000000000004</ele>
        <time>2025-05-15T08:00:18Z</time>
      </trkpt>
      <trkpt lat="42.536848001182079" lon="2.254350995644927">
        <ele>731.70000000000005</ele>
        <time>2025-05-15T08:00:20Z</time>
      </trkpt>
      <trkpt lat="42.537054028362036" lon="2.254307996481657">
        <ele>729.77999999999997</ele>
        <time>2025-05-15T08:00:21Z</time>
      </trkpt>
      <trkpt lat="42.53725703805685" lon="2.254269020631909">
        <ele>728.34000000000003</ele>
        <time>2025-05-15T08:00:22Z</time>
      </trkpt>
      <trkpt lat="42.537459963932633" lon="2.254235995933414">
        <ele>726.40999999999997</ele>
        <time>2025-05-15T08:00:23Z</time>
      </trkpt>
      <trkpt lat="42.537660961970687" lon="2.254241025075316">
        <ele>724.97000000000003</ele>
        <time>2025-05-15T08:00:24Z</time>
      </trkpt>
      <trkpt lat="42.537853997200727" lon="2.254244964569807">
        <ele>723.52999999999997</ele>
        <time>2025-05-15T08:00:25Z</time>
      </trkpt>
      <trkpt lat="42.53837501630187" lon="2.25424999371171">
        <ele>720.15999999999997</ele>
        <time>2025-05-15T08:00:28Z</time>
      </trkpt>
      <trkpt lat="42.538513988256454" lon="2.254200959578157">
        <ele>719.20000000000005</ele>
        <time>2025-05-15T08:00:29Z</time>
      </trkpt>
      <trkpt lat="42.538773994892836" lon="2.254108004271984">
        <ele>717.75999999999999</ele>
        <time>2025-05-15T08:00:31Z</time>
      </trkpt>
      <trkpt lat="42.538906009867787" lon="2.254059975966811">
        <ele>717.27999999999997</ele>
        <time>2025-05-15T08:00:32Z</time>
      </trkpt>
      <trkpt lat="42.539038024842739" lon="2.254089983180165">
        <ele>716.79999999999995</ele>
        <time>2025-05-15T08:00:33Z</time>
      </trkpt>
      <trkpt lat="42.539164004847407" lon="2.254160977900028">
        <ele>715.84000000000003</ele>
        <time>2025-05-15T08:00:34Z</time>
      </trkpt>
      <trkpt lat="42.539282022044063" lon="2.254243958741427">
        <ele>715.36000000000001</ele>
        <time>2025-05-15T08:00:35Z</time>
      </trkpt>
      <trkpt lat="42.539386041462421" lon="2.254363987594843">
        <ele>714.88</ele>
        <time>2025-05-15T08:00:36Z</time>
      </trkpt>
      <trkpt lat="42.539487965404987" lon="2.254482004791498">
        <ele>714.39999999999998</ele>
        <time>2025-05-15T08:00:37Z</time>
      </trkpt>
      <trkpt lat="42.539591984823346" lon="2.254599016159773">
        <ele>713.91999999999996</ele>
        <time>2025-05-15T08:00:38Z</time>
      </trkpt>
      <trkpt lat="42.539712013676763" lon="2.254729019477963">
        <ele>713.44000000000005</ele>
        <time>2025-05-15T08:00:39Z</time>
      </trkpt>
      <trkpt lat="42.540311990305781" lon="2.255126992240548">
        <ele>711.02999999999997</ele>
        <time>2025-05-15T08:00:43Z</time>
      </trkpt>
      <trkpt lat="42.540420033037663" lon="2.255245009437203">
        <ele>710.54999999999995</ele>
        <time>2025-05-15T08:00:44Z</time>
      </trkpt>
      <trkpt lat="42.540513994172215" lon="2.255396973341703">
        <ele>709.59000000000003</ele>
        <time>2025-05-15T08:00:45Z</time>
      </trkpt>
      <trkpt lat="42.540751034393907" lon="2.256003990769386">
        <ele>707.66999999999996</ele>
        <time>2025-05-15T08:00:48Z</time>
      </trkpt>
      <trkpt lat="42.54082303494215" lon="2.256187973544002">
        <ele>706.71000000000004</ele>
        <time>2025-05-15T08:00:49Z</time>
      </trkpt>
      <trkpt lat="42.540830997750163" lon="2.25642099045217">
        <ele>705.75</ele>
        <time>2025-05-15T08:00:50Z</time>
      </trkpt>
      <trkpt lat="42.54086896777153" lon="2.256821980699897">
        <ele>703.82000000000005</ele>
        <time>2025-05-15T08:00:52Z</time>
      </trkpt>
      <trkpt lat="42.540924958884716" lon="2.256989032030106">
        <ele>703.34000000000003</ele>
        <time>2025-05-15T08:00:53Z</time>
      </trkpt>
      <trkpt lat="42.541030989959836" lon="2.257121969014406">
        <ele>702.86000000000001</ele>
        <time>2025-05-15T08:00:54Z</time>
      </trkpt>
      <trkpt lat="42.541153030470014" lon="2.257263958454132">
        <ele>701.89999999999998</ele>
        <time>2025-05-15T08:00:55Z</time>
      </trkpt>
      <trkpt lat="42.541284039616585" lon="2.257417012006044">
        <ele>701.41999999999996</ele>
        <time>2025-05-15T08:00:56Z</time>
      </trkpt>
      <trkpt lat="42.541413959115744" lon="2.257567970082164">
        <ele>700.46000000000004</ele>
        <time>2025-05-15T08:00:57Z</time>
      </trkpt>
      <trkpt lat="42.54149098880589" lon="2.257755976170301">
        <ele>699.5</ele>
        <time>2025-05-15T08:00:58Z</time>
      </trkpt>
      <trkpt lat="42.541549997404218" lon="2.257949011400342">
        <ele>698.52999999999997</ele>
        <time>2025-05-15T08:00:59Z</time>
      </trkpt>
      <trkpt lat="42.541605988517404" lon="2.258131988346577">
        <ele>698.04999999999995</ele>
        <time>2025-05-15T08:01:00Z</time>
      </trkpt>
      <trkpt lat="42.541659967973828" lon="2.258308008313179">
        <ele>697.09000000000003</ele>
        <time>2025-05-15T08:01:01Z</time>
      </trkpt>
      <trkpt lat="42.541760969907045" lon="2.258471958339214">
        <ele>696.61000000000001</ele>
        <time>2025-05-15T08:01:02Z</time>
      </trkpt>
      <trkpt lat="42.541888961568475" lon="2.258623000234366">
        <ele>695.64999999999998</ele>
        <time>2025-05-15T08:01:03Z</time>
      </trkpt>
      <trkpt lat="42.542029023170471" lon="2.258788961917162">
        <ele>695.16999999999996</ele>
        <time>2025-05-15T08:01:04Z</time>
      </trkpt>
      <trkpt lat="42.54217897541821" lon="2.258966993540525">
        <ele>694.21000000000004</ele>
        <time>2025-05-15T08:01:05Z</time>
      </trkpt>
      <trkpt lat="42.542934017255902" lon="2.259860001504421">
        <ele>690.36000000000001</ele>
        <time>2025-05-15T08:01:10Z</time>
      </trkpt>
      <trkpt lat="42.543041976168752" lon="2.260034009814262">
        <ele>689.39999999999998</ele>
        <time>2025-05-15T08:01:11Z</time>
      </trkpt>
      <trkpt lat="42.543115988373756" lon="2.260242970660329">
        <ele>688.91999999999996</ele>
        <time>2025-05-15T08:01:12Z</time>
      </trkpt>
      <trkpt lat="42.543173991143703" lon="2.260457966476679">
        <ele>687.96000000000004</ele>
        <time>2025-05-15T08:01:13Z</time>
      </trkpt>
      <trkpt lat="42.543231993913651" lon="2.260663993656635">
        <ele>687.48000000000002</ele>
        <time>2025-05-15T08:01:14Z</time>
      </trkpt>
      <trkpt lat="42.543330984190106" lon="2.260843031108379">
        <ele>687</ele>
        <time>2025-05-15T08:01:15Z</time>
      </trkpt>
      <trkpt lat="42.543470961973071" lon="2.260982003062964">
        <ele>686.51999999999998</ele>
        <time>2025-05-15T08:01:16Z</time>
      </trkpt>
      <trkpt lat="42.543632984161377" lon="2.261108988896012">
        <ele>686.03999999999996</ele>
        <time>2025-05-15T08:01:17Z</time>
      </trkpt>
      <trkpt lat="42.543801963329315" lon="2.26123102940619">
        <ele>685.08000000000004</ele>
        <time>2025-05-15T08:01:18Z</time>
      </trkpt>
      <trkpt lat="42.544127013534307" lon="2.261466979980469">
        <ele>683.63</ele>
        <time>2025-05-15T08:01:20Z</time>
      </trkpt>
      <trkpt lat="42.544257016852498" lon="2.261649034917355">
        <ele>682.66999999999996</ele>
        <time>2025-05-15T08:01:21Z</time>
      </trkpt>
      <trkpt lat="42.544622970744967" lon="2.262170976027846">
        <ele>679.30999999999995</ele>
        <time>2025-05-15T08:01:24Z</time>
      </trkpt>
      <trkpt lat="42.544705029577017" lon="2.262364011257887">
        <ele>678.83000000000004</ele>
        <time>2025-05-15T08:01:25Z</time>
      </trkpt>
      <trkpt lat="42.544750040397048" lon="2.262594010680914">
        <ele>677.87</ele>
        <time>2025-05-15T08:01:26Z</time>
      </trkpt>
      <trkpt lat="42.544892029836774" lon="2.263318039476872">
        <ele>675.46000000000004</ele>
        <time>2025-05-15T08:01:29Z</time>
      </trkpt>
      <trkpt lat="42.544953972101212" lon="2.263525994494557">
        <ele>674.98000000000002</ele>
        <time>2025-05-15T08:01:30Z</time>
      </trkpt>
      <trkpt lat="42.545050028711557" lon="2.263707965612412">
        <ele>674.5</ele>
        <time>2025-05-15T08:01:31Z</time>
      </trkpt>
      <trkpt lat="42.545139966532588" lon="2.263880968093872">
        <ele>674.01999999999998</ele>
        <time>2025-05-15T08:01:32Z</time>
      </trkpt>
      <trkpt lat="42.545254966244102" lon="2.264010971412063">
        <ele>673.05999999999995</ele>
        <time>2025-05-15T08:01:33Z</time>
      </trkpt>
      <trkpt lat="42.545380024239421" lon="2.264136029407382">
        <ele>672.10000000000002</ele>
        <time>2025-05-15T08:01:34Z</time>
      </trkpt>
      <trkpt lat="42.545527964830399" lon="2.264194032177329">
        <ele>671.62</ele>
        <time>2025-05-15T08:01:35Z</time>
      </trkpt>
      <trkpt lat="42.545689987018704" lon="2.264203000813723">
        <ele>670.65999999999997</ele>
        <time>2025-05-15T08:01:36Z</time>
      </trkpt>
      <trkpt lat="42.545868018642068" lon="2.264171987771988">
        <ele>669.70000000000005</ele>
        <time>2025-05-15T08:01:37Z</time>
      </trkpt>
      <trkpt lat="42.546056024730206" lon="2.264115996658802">
        <ele>669.22000000000003</ele>
        <time>2025-05-15T08:01:38Z</time>
      </trkpt>
      <trkpt lat="42.546248976141214" lon="2.264062017202377">
        <ele>668.25</ele>
        <time>2025-05-15T08:01:39Z</time>
      </trkpt>
      <trkpt lat="42.546446034684777" lon="2.264051036909223">
        <ele>667.28999999999996</ele>
        <time>2025-05-15T08:01:40Z</time>
      </trkpt>
      <trkpt lat="42.54664896056056" lon="2.264054976403713">
        <ele>666.33000000000004</ele>
        <time>2025-05-15T08:01:41Z</time>
      </trkpt>
      <trkpt lat="42.546830009669065" lon="2.264125971123576">
        <ele>665.37</ele>
        <time>2025-05-15T08:01:42Z</time>
      </trkpt>
      <trkpt lat="42.547005023807287" lon="2.264194032177329">
        <ele>664.40999999999997</ele>
        <time>2025-05-15T08:01:43Z</time>
      </trkpt>
      <trkpt lat="42.54716101102531" lon="2.264296039938927">
        <ele>662.97000000000003</ele>
        <time>2025-05-15T08:01:44Z</time>
      </trkpt>
      <trkpt lat="42.547294031828642" lon="2.26445403881371">
        <ele>662.00999999999999</ele>
        <time>2025-05-15T08:01:45Z</time>
      </trkpt>
      <trkpt lat="42.547431997954845" lon="2.264617988839746">
        <ele>661.03999999999996</ele>
        <time>2025-05-15T08:01:46Z</time>
      </trkpt>
      <trkpt lat="42.547540962696075" lon="2.264817981049418">
        <ele>660.08000000000004</ele>
        <time>2025-05-15T08:01:47Z</time>
      </trkpt>
      <trkpt lat="42.547640958800912" lon="2.265017973259091">
        <ele>658.63999999999999</ele>
        <time>2025-05-15T08:01:48Z</time>
      </trkpt>
      <trkpt lat="42.547731986269355" lon="2.265211008489132">
        <ele>657.67999999999995</ele>
        <time>2025-05-15T08:01:49Z</time>
      </trkpt>
      <trkpt lat="42.547816978767514" lon="2.265402032062411">
        <ele>656.72000000000003</ele>
        <time>2025-05-15T08:01:50Z</time>
      </trkpt>
      <trkpt lat="42.547918986529112" lon="2.265559025108814">
        <ele>655.75999999999999</ele>
        <time>2025-05-15T08:01:51Z</time>
      </trkpt>
      <trkpt lat="42.54804203286767" lon="2.265681987628341">
        <ele>654.79999999999995</ele>
        <time>2025-05-15T08:01:52Z</time>
      </trkpt>
      <trkpt lat="42.54817396402359" lon="2.265792964026332">
        <ele>653.35000000000002</ele>
        <time>2025-05-15T08:01:53Z</time>
      </trkpt>
      <trkpt lat="42.548332968726754" lon="2.265855995938182">
        <ele>652.38999999999999</ele>
        <time>2025-05-15T08:01:54Z</time>
      </trkpt>
      <trkpt lat="42.54862398840487" lon="2.265969989821315">
        <ele>650.47000000000003</ele>
        <time>2025-05-15T08:01:56Z</time>
      </trkpt>
      <trkpt lat="42.548779975622892" lon="2.266009971499443">
        <ele>649.50999999999999</ele>
        <time>2025-05-15T08:01:57Z</time>
      </trkpt>
      <trkpt lat="42.548954989761114" lon="2.26598197594285">
        <ele>648.07000000000005</ele>
        <time>2025-05-15T08:01:58Z</time>
      </trkpt>
      <trkpt lat="42.549726963043213" lon="2.265865970402956">
        <ele>644.22000000000003</ele>
        <time>2025-05-15T08:02:02Z</time>
      </trkpt>
      <trkpt lat="42.549921004101634" lon="2.265917016193271">
        <ele>642.77999999999997</ele>
        <time>2025-05-15T08:02:03Z</time>
      </trkpt>
      <trkpt lat="42.550462977960706" lon="2.266111979261041">
        <ele>639.88999999999999</ele>
        <time>2025-05-15T08:02:06Z</time>
      </trkpt>
      <trkpt lat="42.550607984885573" lon="2.266228990629315">
        <ele>638.45000000000005</ele>
        <time>2025-05-15T08:02:07Z</time>
      </trkpt>
      <trkpt lat="42.551498981192708" lon="2.267178995534778">
        <ele>633.64999999999998</ele>
        <time>2025-05-15T08:02:13Z</time>
      </trkpt>
      <trkpt lat="42.55199602805078" lon="2.267631031572819">
        <ele>631.24000000000001</ele>
        <time>2025-05-15T08:02:17Z</time>
      </trkpt>
      <trkpt lat="42.552096024155617" lon="2.267693979665637">
        <ele>630.75999999999999</ele>
        <time>2025-05-15T08:02:18Z</time>
      </trkpt>
      <trkpt lat="42.552202977240086" lon="2.267708983272314">
        <ele>629.79999999999995</ele>
        <time>2025-05-15T08:02:19Z</time>
      </trkpt>
      <trkpt lat="42.552285036072135" lon="2.267643017694354">
        <ele>629.32000000000005</ele>
        <time>2025-05-15T08:02:20Z</time>
      </trkpt>
      <trkpt lat="42.55236198194325" lon="2.267564982175827">
        <ele>628.84000000000003</ele>
        <time>2025-05-15T08:02:21Z</time>
      </trkpt>
      <trkpt lat="42.552410010248423" lon="2.267517959699035">
        <ele>627.88</ele>
        <time>2025-05-15T08:02:22Z</time>
      </trkpt>
      <trkpt lat="42.552516963332891" lon="2.267442019656301">
        <ele>626.91999999999996</ele>
        <time>2025-05-15T08:02:23Z</time>
      </trkpt>
      <trkpt lat="42.552615031599998" lon="2.267411006614566">
        <ele>625.96000000000004</ele>
        <time>2025-05-15T08:02:24Z</time>
      </trkpt>
      <trkpt lat="42.552715027704835" lon="2.267411006614566">
        <ele>624.99000000000001</ele>
        <time>2025-05-15T08:02:25Z</time>
      </trkpt>
      <trkpt lat="42.552823992446065" lon="2.267419975250959">
        <ele>624.50999999999999</ele>
        <time>2025-05-15T08:02:26Z</time>
      </trkpt>
      <trkpt lat="42.552922982722521" lon="2.267452999949455">
        <ele>623.54999999999995</ele>
        <time>2025-05-15T08:02:27Z</time>
      </trkpt>
      <trkpt lat="42.553019039332867" lon="2.267485018819571">
        <ele>623.07000000000005</ele>
        <time>2025-05-15T08:02:28Z</time>
      </trkpt>
      <trkpt lat="42.553281979635358" lon="2.267573028802872">
        <ele>623.07000000000005</ele>
        <time>2025-05-15T08:02:31Z</time>
      </trkpt>
      <trkpt lat="42.553358003497124" lon="2.267616027966142">
        <ele>622.59000000000003</ele>
        <time>2025-05-15T08:02:32Z</time>
      </trkpt>
      <trkpt lat="42.553421035408974" lon="2.267661038786173">
        <ele>622.59000000000003</ele>
        <time>2025-05-15T08:02:33Z</time>
      </trkpt>
      <trkpt lat="42.553490018472075" lon="2.267709989100695">
        <ele>622.11000000000001</ele>
        <time>2025-05-15T08:02:34Z</time>
      </trkpt>
      <trkpt lat="42.55356403067708" lon="2.267763968557119">
        <ele>622.11000000000001</ele>
        <time>2025-05-15T08:02:35Z</time>
      </trkpt>
      <trkpt lat="42.553640976548195" lon="2.267819037660956">
        <ele>622.11000000000001</ele>
        <time>2025-05-15T08:02:36Z</time>
      </trkpt>
      <trkpt lat="42.553847003728151" lon="2.267968989908695">
        <ele>621.63</ele>
        <time>2025-05-15T08:02:39Z</time>
      </trkpt>
      <trkpt lat="42.553904000669718" lon="2.268047025427222">
        <ele>621.14999999999998</ele>
        <time>2025-05-15T08:02:40Z</time>
      </trkpt>
      <trkpt lat="42.553955968469381" lon="2.268119025975466">
        <ele>620.66999999999996</ele>
        <time>2025-05-15T08:02:41Z</time>
      </trkpt>
      <trkpt lat="42.554066022858024" lon="2.268270989879966">
        <ele>620.19000000000005</ele>
        <time>2025-05-15T08:02:43Z</time>
      </trkpt>
      <trkpt lat="42.554126037284732" lon="2.268354976549745">
        <ele>619.71000000000004</ele>
        <time>2025-05-15T08:02:44Z</time>
      </trkpt>
      <trkpt lat="42.554477993398905" lon="2.268691007047892">
        <ele>617.77999999999997</ele>
        <time>2025-05-15T08:02:50Z</time>
      </trkpt>
      <trkpt lat="42.554526021704078" lon="2.268737023696303">
        <ele>617.29999999999995</ele>
        <time>2025-05-15T08:02:51Z</time>
      </trkpt>
      <trkpt lat="42.554614031687379" lon="2.268858980387449">
        <ele>616.34000000000003</ele>
        <time>2025-05-15T08:02:53Z</time>
      </trkpt>
      <trkpt lat="42.554635992273688" lon="2.268931986764073">
        <ele>615.86000000000001</ele>
        <time>2025-05-15T08:02:54Z</time>
      </trkpt>
      <trkpt lat="42.554662982001901" lon="2.269019996747375">
        <ele>615.38</ele>
        <time>2025-05-15T08:02:55Z</time>
      </trkpt>
      <trkpt lat="42.554672034457326" lon="2.269094008952379">
        <ele>615.38</ele>
        <time>2025-05-15T08:02:56Z</time>
      </trkpt>
      <trkpt lat="42.554683014750481" lon="2.269184030592442">
        <ele>614.89999999999998</ele>
        <time>2025-05-15T08:02:57Z</time>
      </trkpt>
      <trkpt lat="42.554705981165171" lon="2.269362984225154">
        <ele>613.94000000000005</ele>
        <time>2025-05-15T08:02:59Z</time>
      </trkpt>
      <trkpt lat="42.554732970893383" lon="2.269465997815132">
        <ele>613.46000000000004</ele>
        <time>2025-05-15T08:03:00Z</time>
      </trkpt>
      <trkpt lat="42.554783010855317" lon="2.269656015560031">
        <ele>612.98000000000002</ele>
        <time>2025-05-15T08:03:02Z</time>
      </trkpt>
      <trkpt lat="42.554845958948135" lon="2.269853996112943">
        <ele>612.98000000000002</ele>
        <time>2025-05-15T08:03:04Z</time>
      </trkpt>
      <trkpt lat="42.554977973923087" lon="2.27019103243947">
        <ele>613.46000000000004</ele>
        <time>2025-05-15T08:03:08Z</time>
      </trkpt>
      <trkpt lat="42.555006975308061" lon="2.270267978310585">
        <ele>613.94000000000005</ele>
        <time>2025-05-15T08:03:09Z</time>
      </trkpt>
      <trkpt lat="42.555066989734769" lon="2.270425977185369">
        <ele>614.41999999999996</ele>
        <time>2025-05-15T08:03:11Z</time>
      </trkpt>
      <trkpt lat="42.555099008604884" lon="2.270511975511909">
        <ele>614.89999999999998</ele>
        <time>2025-05-15T08:03:12Z</time>
      </trkpt>
      <trkpt lat="42.555131027474999" lon="2.270597973838449">
        <ele>614.89999999999998</ele>
        <time>2025-05-15T08:03:13Z</time>
      </trkpt>
      <trkpt lat="42.555182995274663" lon="2.270767036825419">
        <ele>615.38</ele>
        <time>2025-05-15T08:03:15Z</time>
      </trkpt>
      <trkpt lat="42.555210990831256" lon="2.27085798047483">
        <ele>615.38</ele>
        <time>2025-05-15T08:03:16Z</time>
      </trkpt>
      <trkpt lat="42.555267987772822" lon="2.271046992391348">
        <ele>615.86000000000001</ele>
        <time>2025-05-15T08:03:18Z</time>
      </trkpt>
      <trkpt lat="42.555325990542769" lon="2.271214965730906">
        <ele>615.38</ele>
        <time>2025-05-15T08:03:20Z</time>
      </trkpt>
      <trkpt lat="42.555354991927743" lon="2.271291995421052">
        <ele>615.38</ele>
        <time>2025-05-15T08:03:21Z</time>
      </trkpt>
      <trkpt lat="42.555380975827575" lon="2.271363995969296">
        <ele>615.38</ele>
        <time>2025-05-15T08:03:22Z</time>
      </trkpt>
      <trkpt lat="42.555409977212548" lon="2.271442031487823">
        <ele>614.89999999999998</ele>
        <time>2025-05-15T08:03:23Z</time>
      </trkpt>
      <trkpt lat="42.555439984425902" lon="2.271525012329221">
        <ele>614.89999999999998</ele>
        <time>2025-05-15T08:03:24Z</time>
      </trkpt>
      <trkpt lat="42.555507961660624" lon="2.271708995103836">
        <ele>614.89999999999998</ele>
        <time>2025-05-15T08:03:26Z</time>
      </trkpt>
      <trkpt lat="42.555535035207868" lon="2.271811002865434">
        <ele>614.89999999999998</ele>
        <time>2025-05-15T08:03:27Z</time>
      </trkpt>
      <trkpt lat="42.555555989965796" lon="2.271908987313509">
        <ele>614.41999999999996</ele>
        <time>2025-05-15T08:03:28Z</time>
      </trkpt>
      <trkpt lat="42.555576022714376" lon="2.272002026438713">
        <ele>613.46000000000004</ele>
        <time>2025-05-15T08:03:29Z</time>
      </trkpt>
      <trkpt lat="42.555594965815544" lon="2.272094981744885">
        <ele>612.98000000000002</ele>
        <time>2025-05-15T08:03:30Z</time>
      </trkpt>
      <trkpt lat="42.555614998564124" lon="2.27218802087009">
        <ele>612.5</ele>
        <time>2025-05-15T08:03:31Z</time>
      </trkpt>
      <trkpt lat="42.555635031312704" lon="2.272282987833023">
        <ele>611.53999999999996</ele>
        <time>2025-05-15T08:03:32Z</time>
      </trkpt>
      <trkpt lat="42.555654980242252" lon="2.272375021129847">
        <ele>611.53999999999996</ele>
        <time>2025-05-15T08:03:33Z</time>
      </trkpt>
      <trkpt lat="42.55567098967731" lon="2.272452972829342">
        <ele>611.05999999999995</ele>
        <time>2025-05-15T08:03:34Z</time>
      </trkpt>
      <trkpt lat="42.55567098967731" lon="2.272557998076081">
        <ele>611.05999999999995</ele>
        <time>2025-05-15T08:03:35Z</time>
      </trkpt>
      <trkpt lat="42.55567098967731" lon="2.272649025544524">
        <ele>611.05999999999995</ele>
        <time>2025-05-15T08:03:36Z</time>
      </trkpt>
      <trkpt lat="42.55567098967731" lon="2.272738041356206">
        <ele>611.53999999999996</ele>
        <time>2025-05-15T08:03:37Z</time>
      </trkpt>
      <trkpt lat="42.55567098967731" lon="2.272826973348856">
        <ele>611.53999999999996</ele>
        <time>2025-05-15T08:03:38Z</time>
      </trkpt>
      <trkpt lat="42.55567098967731" lon="2.27292001247406">
        <ele>612.01999999999998</ele>
        <time>2025-05-15T08:03:39Z</time>
      </trkpt>
      <trkpt lat="42.555689010769129" lon="2.273681005463004">
        <ele>614.89999999999998</ele>
        <time>2025-05-15T08:03:46Z</time>
      </trkpt>
      <trkpt lat="42.555848015472293" lon="2.275130990892649">
        <ele>619.23000000000002</ele>
        <time>2025-05-15T08:03:58Z</time>
      </trkpt>
      <trkpt lat="42.556208018213511" lon="2.276500007137656">
        <ele>621.63</ele>
        <time>2025-05-15T08:04:08Z</time>
      </trkpt>
      <trkpt lat="42.556200977414846" lon="2.276654988527298">
        <ele>621.63</ele>
        <time>2025-05-15T08:04:09Z</time>
      </trkpt>
      <trkpt lat="42.556183962151408" lon="2.276819022372365">
        <ele>622.11000000000001</ele>
        <time>2025-05-15T08:04:10Z</time>
      </trkpt>
      <trkpt lat="42.556109027937055" lon="2.277546990662813">
        <ele>622.59000000000003</ele>
        <time>2025-05-15T08:04:14Z</time>
      </trkpt>
      <trkpt lat="42.556116990745068" lon="2.277741031721234">
        <ele>622.59000000000003</ele>
        <time>2025-05-15T08:04:15Z</time>
      </trkpt>
      <trkpt lat="42.556144986301661" lon="2.277934988960624">
        <ele>623.07000000000005</ele>
        <time>2025-05-15T08:04:16Z</time>
      </trkpt>
      <trkpt lat="42.556172981858253" lon="2.278131963685155">
        <ele>623.07000000000005</ele>
        <time>2025-05-15T08:04:17Z</time>
      </trkpt>
      <trkpt lat="42.556225033476949" lon="2.278330028057098">
        <ele>623.07000000000005</ele>
        <time>2025-05-15T08:04:18Z</time>
      </trkpt>
      <trkpt lat="42.556301979348063" lon="2.278534965589643">
        <ele>623.07000000000005</ele>
        <time>2025-05-15T08:04:19Z</time>
      </trkpt>
      <trkpt lat="42.557079987600446" lon="2.280473029240966">
        <ele>624.50999999999999</ele>
        <time>2025-05-15T08:04:28Z</time>
      </trkpt>
      <trkpt lat="42.557151988148689" lon="2.280649971216917">
        <ele>624.50999999999999</ele>
        <time>2025-05-15T08:04:29Z</time>
      </trkpt>
      <trkpt lat="42.55728299729526" lon="2.280800007283688">
        <ele>624.50999999999999</ele>
        <time>2025-05-15T08:04:30Z</time>
      </trkpt>
      <trkpt lat="42.557415012270212" lon="2.280950965359807">
        <ele>624.50999999999999</ele>
        <time>2025-05-15T08:04:31Z</time>
      </trkpt>
      <trkpt lat="42.557699996978045" lon="2.28127702139318">
        <ele>624.02999999999997</ele>
        <time>2025-05-15T08:04:33Z</time>
      </trkpt>
      <trkpt lat="42.557822959497571" lon="2.281478019431233">
        <ele>623.54999999999995</ele>
        <time>2025-05-15T08:04:34Z</time>
      </trkpt>
      <trkpt lat="42.557929996401072" lon="2.281691003590822">
        <ele>623.07000000000005</ele>
        <time>2025-05-15T08:04:35Z</time>
      </trkpt>
      <trkpt lat="42.558032004162669" lon="2.281895019114018">
        <ele>623.07000000000005</ele>
        <time>2025-05-15T08:04:36Z</time>
      </trkpt>
      <trkpt lat="42.558112973347306" lon="2.282109009101987">
        <ele>623.07000000000005</ele>
        <time>2025-05-15T08:04:37Z</time>
      </trkpt>
      <trkpt lat="42.558129988610744" lon="2.28233297355473">
        <ele>622.59000000000003</ele>
        <time>2025-05-15T08:04:38Z</time>
      </trkpt>
      <trkpt lat="42.558109033852816" lon="2.2825469635427">
        <ele>622.11000000000001</ele>
        <time>2025-05-15T08:04:39Z</time>
      </trkpt>
      <trkpt lat="42.558089001104236" lon="2.282752990722656">
        <ele>622.11000000000001</ele>
        <time>2025-05-15T08:04:40Z</time>
      </trkpt>
      <trkpt lat="42.558073997497559" lon="2.282903026789427">
        <ele>622.11000000000001</ele>
        <time>2025-05-15T08:04:41Z</time>
      </trkpt>
      <trkpt lat="42.558106016367674" lon="2.283154986798763">
        <ele>622.11000000000001</ele>
        <time>2025-05-15T08:04:42Z</time>
      </trkpt>
      <trkpt lat="42.558158989995718" lon="2.283356990665197">
        <ele>621.63</ele>
        <time>2025-05-15T08:04:43Z</time>
      </trkpt>
      <trkpt lat="42.558240965008736" lon="2.283570980653167">
        <ele>620.66999999999996</ele>
        <time>2025-05-15T08:04:44Z</time>
      </trkpt>
      <trkpt lat="42.558324029669166" lon="2.2837920114398">
        <ele>620.66999999999996</ele>
        <time>2025-05-15T08:04:45Z</time>
      </trkpt>
      <trkpt lat="42.558439029380679" lon="2.283982029184699">
        <ele>620.19000000000005</ele>
        <time>2025-05-15T08:04:46Z</time>
      </trkpt>
      <trkpt lat="42.558578001335263" lon="2.284168023616076">
        <ele>619.71000000000004</ele>
        <time>2025-05-15T08:04:47Z</time>
      </trkpt>
      <trkpt lat="42.559998985379934" lon="2.28581297211349">
        <ele>612.98000000000002</ele>
        <time>2025-05-15T08:04:56Z</time>
      </trkpt>
      <trkpt lat="42.560229990631342" lon="2.286229971796274">
        <ele>611.53999999999996</ele>
        <time>2025-05-15T08:04:58Z</time>
      </trkpt>
      <trkpt lat="42.56046099588275" lon="2.286647977307439">
        <ele>610.09000000000003</ele>
        <time>2025-05-15T08:05:00Z</time>
      </trkpt>
      <trkpt lat="42.560575995594263" lon="2.286854004487395">
        <ele>609.13</ele>
        <time>2025-05-15T08:05:01Z</time>
      </trkpt>
      <trkpt lat="42.561368001624942" lon="2.288330979645252">
        <ele>603.36000000000001</ele>
        <time>2025-05-15T08:05:08Z</time>
      </trkpt>
      <trkpt lat="42.561610992997885" lon="2.288908995687962">
        <ele>601.91999999999996</ele>
        <time>2025-05-15T08:05:11Z</time>
      </trkpt>
      <trkpt lat="42.561635971069336" lon="2.289116028696299">
        <ele>601.44000000000005</ele>
        <time>2025-05-15T08:05:12Z</time>
      </trkpt>
      <trkpt lat="42.561635971069336" lon="2.289343010634184">
        <ele>600.96000000000004</ele>
        <time>2025-05-15T08:05:13Z</time>
      </trkpt>
      <trkpt lat="42.561661032959819" lon="2.289834022521973">
        <ele>600.48000000000002</ele>
        <time>2025-05-15T08:05:15Z</time>
      </trkpt>
      <trkpt lat="42.561733033508062" lon="2.290613036602736">
        <ele>598.55999999999995</ele>
        <time>2025-05-15T08:05:18Z</time>
      </trkpt>
      <trkpt lat="42.561748037114739" lon="2.290854016318917">
        <ele>598.08000000000004</ele>
        <time>2025-05-15T08:05:19Z</time>
      </trkpt>
      <trkpt lat="42.561762034893036" lon="2.291078986600041">
        <ele>597.12</ele>
        <time>2025-05-15T08:05:20Z</time>
      </trkpt>
      <trkpt lat="42.561810985207558" lon="2.291279984638095">
        <ele>596.63999999999999</ele>
        <time>2025-05-15T08:05:21Z</time>
      </trkpt>
      <trkpt lat="42.561863958835602" lon="2.291462039574981">
        <ele>595.66999999999996</ele>
        <time>2025-05-15T08:05:22Z</time>
      </trkpt>
      <trkpt lat="42.561913998797536" lon="2.291622972115874">
        <ele>595.19000000000005</ele>
        <time>2025-05-15T08:05:23Z</time>
      </trkpt>
      <trkpt lat="42.561959009617567" lon="2.291764039546251">
        <ele>594.23000000000002</ele>
        <time>2025-05-15T08:05:24Z</time>
      </trkpt>
      <trkpt lat="42.561961021274328" lon="2.291887002065778">
        <ele>593.26999999999998</ele>
        <time>2025-05-15T08:05:25Z</time>
      </trkpt>
      <trkpt lat="42.561917016282678" lon="2.292024968191981">
        <ele>592.78999999999996</ele>
        <time>2025-05-15T08:05:26Z</time>
      </trkpt>
      <trkpt lat="42.561809979379177" lon="2.292356975376606">
        <ele>591.83000000000004</ele>
        <time>2025-05-15T08:05:28Z</time>
      </trkpt>
      <trkpt lat="42.561765974387527" lon="2.292554033920169">
        <ele>591.83000000000004</ele>
        <time>2025-05-15T08:05:29Z</time>
      </trkpt>
      <trkpt lat="42.561639994382858" lon="2.293364983052015">
        <ele>590.87</ele>
        <time>2025-05-15T08:05:33Z</time>
      </trkpt>
      <trkpt lat="42.561616022139788" lon="2.29356799274683">
        <ele>590.87</ele>
        <time>2025-05-15T08:05:34Z</time>
      </trkpt>
      <trkpt lat="42.561633037403226" lon="2.29449100792408">
        <ele>590.38999999999999</ele>
        <time>2025-05-15T08:05:38Z</time>
      </trkpt>
      <trkpt lat="42.561611998826265" lon="2.294983025640249">
        <ele>589.90999999999997</ele>
        <time>2025-05-15T08:05:40Z</time>
      </trkpt>
      <trkpt lat="42.561590960249305" lon="2.295475965365768">
        <ele>589.42999999999995</ele>
        <time>2025-05-15T08:05:42Z</time>
      </trkpt>
      <trkpt lat="42.56157997995615" lon="2.295725997537375">
        <ele>588.95000000000005</ele>
        <time>2025-05-15T08:05:43Z</time>
      </trkpt>
      <trkpt lat="42.561494987457991" lon="2.29618901386857">
        <ele>587.98000000000002</ele>
        <time>2025-05-15T08:05:45Z</time>
      </trkpt>
      <trkpt lat="42.561373030766845" lon="2.296650018543005">
        <ele>587.01999999999998</ele>
        <time>2025-05-15T08:05:47Z</time>
      </trkpt>
      <trkpt lat="42.561331959441304" lon="2.296894015744329">
        <ele>586.53999999999996</ele>
        <time>2025-05-15T08:05:48Z</time>
      </trkpt>
      <trkpt lat="42.561290971934795" lon="2.29713398963213">
        <ele>586.05999999999995</ele>
        <time>2025-05-15T08:05:49Z</time>
      </trkpt>
      <trkpt lat="42.561251996085048" lon="2.297361977398396">
        <ele>585.58000000000004</ele>
        <time>2025-05-15T08:05:50Z</time>
      </trkpt>
      <trkpt lat="42.561216959729791" lon="2.297566998749971">
        <ele>585.10000000000002</ele>
        <time>2025-05-15T08:05:51Z</time>
      </trkpt>
      <trkpt lat="42.561186030507088" lon="2.297751987352967">
        <ele>584.62</ele>
        <time>2025-05-15T08:05:52Z</time>
      </trkpt>
      <trkpt lat="42.561202961951494" lon="2.297939993441105">
        <ele>584.13999999999999</ele>
        <time>2025-05-15T08:05:53Z</time>
      </trkpt>
      <trkpt lat="42.561221988871694" lon="2.298138979822397">
        <ele>584.13999999999999</ele>
        <time>2025-05-15T08:05:54Z</time>
      </trkpt>
      <trkpt lat="42.561242021620274" lon="2.298350958153606">
        <ele>583.65999999999997</ele>
        <time>2025-05-15T08:05:55Z</time>
      </trkpt>
      <trkpt lat="42.561375964432955" lon="2.300046030431986">
        <ele>580.76999999999998</ele>
        <time>2025-05-15T08:06:02Z</time>
      </trkpt>
      <trkpt lat="42.561298012733459" lon="2.301281020045281">
        <ele>579.33000000000004</ele>
        <time>2025-05-15T08:06:09Z</time>
      </trkpt>
      <trkpt lat="42.561276974156499" lon="2.302110996097326">
        <ele>579.80999999999995</ele>
        <time>2025-05-15T08:06:18Z</time>
      </trkpt>
      <trkpt lat="42.561282003298402" lon="2.302687000483275">
        <ele>582.22000000000003</ele>
        <time>2025-05-15T08:06:29Z</time>
      </trkpt>
      <trkpt lat="42.561282003298402" lon="2.302687000483275">
        <ele>582.22000000000003</ele>
        <time>2025-05-15T08:06:49Z</time>
      </trkpt>
      <trkpt lat="42.561282003298402" lon="2.302687000483275">
        <ele>583.65999999999997</ele>
        <time>2025-05-15T08:07:45Z</time>
      </trkpt>
      <trkpt lat="42.561285020783544" lon="2.302764030173421">
        <ele>584.13999999999999</ele>
        <time>2025-05-15T08:07:52Z</time>
      </trkpt>
      <trkpt lat="42.561296001076698" lon="2.303004004061222">
        <ele>586.05999999999995</ele>
        <time>2025-05-15T08:07:54Z</time>
      </trkpt>
      <trkpt lat="42.561320979148149" lon="2.303170971572399">
        <ele>586.53999999999996</ele>
        <time>2025-05-15T08:07:55Z</time>
      </trkpt>
      <trkpt lat="42.561687016859651" lon="2.304948018863797">
        <ele>592.30999999999995</ele>
        <time>2025-05-15T08:08:04Z</time>
      </trkpt>
      <trkpt lat="42.562440969049931" lon="2.306806035339832">
        <ele>594.23000000000002</ele>
        <time>2025-05-15T08:08:14Z</time>
      </trkpt>
      <trkpt lat="42.563161980360746" lon="2.308559026569128">
        <ele>592.30999999999995</ele>
        <time>2025-05-15T08:08:22Z</time>
      </trkpt>
      <trkpt lat="42.563963960856199" lon="2.310226019471884">
        <ele>587.01999999999998</ele>
        <time>2025-05-15T08:08:29Z</time>
      </trkpt>
      <trkpt lat="42.565005999058485" lon="2.312181014567614">
        <ele>576.92999999999995</ele>
        <time>2025-05-15T08:08:37Z</time>
      </trkpt>
      <trkpt lat="42.566186003386974" lon="2.314531970769167">
        <ele>563.95000000000005</ele>
        <time>2025-05-15T08:08:47Z</time>
      </trkpt>
      <trkpt lat="42.567538004368544" lon="2.317099012434483">
        <ele>551.92999999999995</ele>
        <time>2025-05-15T08:08:59Z</time>
      </trkpt>
      <trkpt lat="42.567833969369531" lon="2.318058991804719">
        <ele>548.57000000000005</ele>
        <time>2025-05-15T08:09:05Z</time>
      </trkpt>
      <trkpt lat="42.568142004311085" lon="2.31896398589015">
        <ele>545.20000000000005</ele>
        <time>2025-05-15T08:09:14Z</time>
      </trkpt>
      <trkpt lat="42.568180980160832" lon="2.31915601529181">
        <ele>544.24000000000001</ele>
        <time>2025-05-15T08:09:16Z</time>
      </trkpt>
      <trkpt lat="42.568179974332452" lon="2.319261962547898">
        <ele>543.75999999999999</ele>
        <time>2025-05-15T08:09:17Z</time>
      </trkpt>
      <trkpt lat="42.568177040666342" lon="2.319366987794638">
        <ele>543.27999999999997</ele>
        <time>2025-05-15T08:09:18Z</time>
      </trkpt>
      <trkpt lat="42.568164970725775" lon="2.319785999134183">
        <ele>542.79999999999995</ele>
        <time>2025-05-15T08:09:22Z</time>
      </trkpt>
      <trkpt lat="42.568150972947478" lon="2.320098979398608">
        <ele>542.32000000000005</ele>
        <time>2025-05-15T08:09:25Z</time>
      </trkpt>
      <trkpt lat="42.568144015967846" lon="2.320201992988586">
        <ele>542.32000000000005</ele>
        <time>2025-05-15T08:09:26Z</time>
      </trkpt>
      <trkpt lat="42.568136975169182" lon="2.320302994921804">
        <ele>542.79999999999995</ele>
        <time>2025-05-15T08:09:27Z</time>
      </trkpt>
      <trkpt lat="42.568130018189549" lon="2.320405002683401">
        <ele>542.79999999999995</ele>
        <time>2025-05-15T08:09:28Z</time>
      </trkpt>
      <trkpt lat="42.568122977390885" lon="2.320510027930141">
        <ele>542.79999999999995</ele>
        <time>2025-05-15T08:09:29Z</time>
      </trkpt>
      <trkpt lat="42.568062962964177" lon="2.321419967338443">
        <ele>543.75999999999999</ele>
        <time>2025-05-15T08:09:37Z</time>
      </trkpt>
      <trkpt lat="42.568090036511421" lon="2.321528010070324">
        <ele>544.24000000000001</ele>
        <time>2025-05-15T08:09:38Z</time>
      </trkpt>
      <trkpt lat="42.568116020411253" lon="2.321633035317063">
        <ele>544.24000000000001</ele>
        <time>2025-05-15T08:09:39Z</time>
      </trkpt>
      <trkpt lat="42.568226996809244" lon="2.321918020024896">
        <ele>544.72000000000003</ele>
        <time>2025-05-15T08:09:42Z</time>
      </trkpt>
      <trkpt lat="42.568305032327771" lon="2.322092028334737">
        <ele>544.72000000000003</ele>
        <time>2025-05-15T08:09:44Z</time>
      </trkpt>
      <trkpt lat="42.568360017612576" lon="2.322313981130719">
        <ele>544.24000000000001</ele>
        <time>2025-05-15T08:09:46Z</time>
      </trkpt>
      <trkpt lat="42.568436963483691" lon="2.322764005511999">
        <ele>542.79999999999995</ele>
        <time>2025-05-15T08:09:50Z</time>
      </trkpt>
      <trkpt lat="42.568483985960484" lon="2.322833994403482">
        <ele>542.79999999999995</ele>
        <time>2025-05-15T08:09:51Z</time>
      </trkpt>
      <trkpt lat="42.568547017872334" lon="2.322919992730022">
        <ele>542.32000000000005</ele>
        <time>2025-05-15T08:09:52Z</time>
      </trkpt>
      <trkpt lat="42.568609965965152" lon="2.323008002713323">
        <ele>541.84000000000003</ele>
        <time>2025-05-15T08:09:53Z</time>
      </trkpt>
      <trkpt lat="42.568696970120072" lon="2.323062987998128">
        <ele>541.84000000000003</ele>
        <time>2025-05-15T08:09:54Z</time>
      </trkpt>
      <trkpt lat="42.5690340064466" lon="2.323348978534341">
        <ele>539.91999999999996</ele>
        <time>2025-05-15T08:09:58Z</time>
      </trkpt>
      <trkpt lat="42.569079017266631" lon="2.32343103736639">
        <ele>539.44000000000005</ele>
        <time>2025-05-15T08:09:59Z</time>
      </trkpt>
      <trkpt lat="42.569065019488335" lon="2.323521981015801">
        <ele>539.44000000000005</ele>
        <time>2025-05-15T08:10:00Z</time>
      </trkpt>
      <trkpt lat="42.569045992568135" lon="2.323618959635496">
        <ele>538.96000000000004</ele>
        <time>2025-05-15T08:10:01Z</time>
      </trkpt>
      <trkpt lat="42.568992013111711" lon="2.323698000982404">
        <ele>538.96000000000004</ele>
        <time>2025-05-15T08:10:02Z</time>
      </trkpt>
      <trkpt lat="42.568910960108042" lon="2.323779975995421">
        <ele>538.96000000000004</ele>
        <time>2025-05-15T08:10:03Z</time>
      </trkpt>
      <trkpt lat="42.568811969831586" lon="2.323844013735652">
        <ele>538.96000000000004</ele>
        <time>2025-05-15T08:10:04Z</time>
      </trkpt>
      <trkpt lat="42.568718008697033" lon="2.32390302233398">
        <ele>538.96000000000004</ele>
        <time>2025-05-15T08:10:05Z</time>
      </trkpt>
      <trkpt lat="42.568660005927086" lon="2.324022967368364">
        <ele>538.96000000000004</ele>
        <time>2025-05-15T08:10:06Z</time>
      </trkpt>
      <trkpt lat="42.568641984835267" lon="2.3241419903934">
        <ele>538.48000000000002</ele>
        <time>2025-05-15T08:10:07Z</time>
      </trkpt>
      <trkpt lat="42.568638967350125" lon="2.324266964569688">
        <ele>538.48000000000002</ele>
        <time>2025-05-15T08:10:08Z</time>
      </trkpt>
      <trkpt lat="42.568662017583847" lon="2.324404008686543">
        <ele>537.99000000000001</ele>
        <time>2025-05-15T08:10:09Z</time>
      </trkpt>
      <trkpt lat="42.568715997040272" lon="2.324538035318255">
        <ele>537.99000000000001</ele>
        <time>2025-05-15T08:10:10Z</time>
      </trkpt>
      <trkpt lat="42.568931998685002" lon="2.325174976140261">
        <ele>536.54999999999995</ele>
        <time>2025-05-15T08:10:14Z</time>
      </trkpt>
      <trkpt lat="42.568947002291679" lon="2.325368011370301">
        <ele>536.07000000000005</ele>
        <time>2025-05-15T08:10:15Z</time>
      </trkpt>
      <trkpt lat="42.568962005898356" lon="2.325566997751594">
        <ele>535.59000000000003</ele>
        <time>2025-05-15T08:10:16Z</time>
      </trkpt>
      <trkpt lat="42.569103995338082" lon="2.327618971467018">
        <ele>531.75</ele>
        <time>2025-05-15T08:10:26Z</time>
      </trkpt>
      <trkpt lat="42.569089997559786" lon="2.327788034453988">
        <ele>531.75</ele>
        <time>2025-05-15T08:10:27Z</time>
      </trkpt>
      <trkpt lat="42.569051021710038" lon="2.327953996136785">
        <ele>532.23000000000002</ele>
        <time>2025-05-15T08:10:28Z</time>
      </trkpt>
      <trkpt lat="42.569010034203529" lon="2.328125992789865">
        <ele>532.23000000000002</ele>
        <time>2025-05-15T08:10:29Z</time>
      </trkpt>
      <trkpt lat="42.56896804086864" lon="2.328303018584848">
        <ele>532.23000000000002</ele>
        <time>2025-05-15T08:10:30Z</time>
      </trkpt>
      <trkpt lat="42.568930992856622" lon="2.328476021066308">
        <ele>532.71000000000004</ele>
        <time>2025-05-15T08:10:31Z</time>
      </trkpt>
      <trkpt lat="42.56892504170537" lon="2.328647011891007">
        <ele>532.71000000000004</ele>
        <time>2025-05-15T08:10:32Z</time>
      </trkpt>
      <trkpt lat="42.568919006735086" lon="2.328818002715707">
        <ele>532.71000000000004</ele>
        <time>2025-05-15T08:10:33Z</time>
      </trkpt>
      <trkpt lat="42.568857986479998" lon="2.329951990395784">
        <ele>532.23000000000002</ele>
        <time>2025-05-15T08:10:39Z</time>
      </trkpt>
      <trkpt lat="42.568892017006874" lon="2.330125998705626">
        <ele>532.23000000000002</ele>
        <time>2025-05-15T08:10:40Z</time>
      </trkpt>
      <trkpt lat="42.568926969543099" lon="2.330300007015467">
        <ele>532.23000000000002</ele>
        <time>2025-05-15T08:10:41Z</time>
      </trkpt>
      <trkpt lat="42.568958988413215" lon="2.330460017547011">
        <ele>532.23000000000002</ele>
        <time>2025-05-15T08:10:42Z</time>
      </trkpt>
      <trkpt lat="42.569000981748104" lon="2.330583985894918">
        <ele>531.75</ele>
        <time>2025-05-15T08:10:43Z</time>
      </trkpt>
      <trkpt lat="42.569055967032909" lon="2.330676019191742">
        <ele>531.75</ele>
        <time>2025-05-15T08:10:44Z</time>
      </trkpt>
      <trkpt lat="42.569098966196179" lon="2.330750031396747">
        <ele>531.75</ele>
        <time>2025-05-15T08:10:45Z</time>
      </trkpt>
      <trkpt lat="42.569247996434569" lon="2.33105999417603">
        <ele>531.26999999999998</ele>
        <time>2025-05-15T08:10:53Z</time>
      </trkpt>
      <trkpt lat="42.569247996434569" lon="2.33105999417603">
        <ele>530.78999999999996</ele>
        <time>2025-05-15T08:11:05Z</time>
      </trkpt>
      <trkpt lat="42.569343969225883" lon="2.331315977498889">
        <ele>529.34000000000003</ele>
        <time>2025-05-15T08:11:27Z</time>
      </trkpt>
      <trkpt lat="42.569659966975451" lon="2.332040006294847">
        <ele>528.38</ele>
        <time>2025-05-15T08:11:34Z</time>
      </trkpt>
      <trkpt lat="42.570233959704638" lon="2.333006020635366">
        <ele>525.98000000000002</ele>
        <time>2025-05-15T08:11:41Z</time>
      </trkpt>
      <trkpt lat="42.570475023239851" lon="2.333421008661389">
        <ele>524.05999999999995</ele>
        <time>2025-05-15T08:11:44Z</time>
      </trkpt>
      <trkpt lat="42.570523973554373" lon="2.333570960909128">
        <ele>523.58000000000004</ele>
        <time>2025-05-15T08:11:45Z</time>
      </trkpt>
      <trkpt lat="42.570531014353037" lon="2.333713034167886">
        <ele>523.09000000000003</ele>
        <time>2025-05-15T08:11:46Z</time>
      </trkpt>
      <trkpt lat="42.570537971332669" lon="2.333839014172554">
        <ele>522.61000000000001</ele>
        <time>2025-05-15T08:11:47Z</time>
      </trkpt>
      <trkpt lat="42.570545012131333" lon="2.333957031369209">
        <ele>522.61000000000001</ele>
        <time>2025-05-15T08:11:48Z</time>
      </trkpt>
      <trkpt lat="42.570550963282585" lon="2.334073958918452">
        <ele>522.13</ele>
        <time>2025-05-15T08:11:49Z</time>
      </trkpt>
      <trkpt lat="42.570556998252869" lon="2.334193987771869">
        <ele>522.13</ele>
        <time>2025-05-15T08:11:50Z</time>
      </trkpt>
      <trkpt lat="42.570570996031165" lon="2.334315022453666">
        <ele>521.64999999999998</ele>
        <time>2025-05-15T08:11:51Z</time>
      </trkpt>
      <trkpt lat="42.570617012679577" lon="2.334436979144812">
        <ele>521.16999999999996</ele>
        <time>2025-05-15T08:11:52Z</time>
      </trkpt>
      <trkpt lat="42.570664035156369" lon="2.334562037140131">
        <ele>520.21000000000004</ele>
        <time>2025-05-15T08:11:53Z</time>
      </trkpt>
      <trkpt lat="42.570712985470891" lon="2.334691034629941">
        <ele>519.73000000000002</ele>
        <time>2025-05-15T08:11:54Z</time>
      </trkpt>
      <trkpt lat="42.57088397629559" lon="2.335047014057636">
        <ele>517.80999999999995</ele>
        <time>2025-05-15T08:11:57Z</time>
      </trkpt>
      <trkpt lat="42.570957988500595" lon="2.335158996284008">
        <ele>517.33000000000004</ele>
        <time>2025-05-15T08:11:58Z</time>
      </trkpt>
      <trkpt lat="42.571036024019122" lon="2.335278019309044">
        <ele>516.37</ele>
        <time>2025-05-15T08:11:59Z</time>
      </trkpt>
      <trkpt lat="42.571197040379047" lon="2.335524028167129">
        <ele>514.91999999999996</ele>
        <time>2025-05-15T08:12:01Z</time>
      </trkpt>
      <trkpt lat="42.571272980421782" lon="2.335651014000177">
        <ele>513.96000000000004</ele>
        <time>2025-05-15T08:12:02Z</time>
      </trkpt>
      <trkpt lat="42.571828030049801" lon="2.336761029437184">
        <ele>509.63999999999999</ele>
        <time>2025-05-15T08:12:09Z</time>
      </trkpt>
      <trkpt lat="42.571965996176004" lon="2.336867982521653">
        <ele>509.16000000000003</ele>
        <time>2025-05-15T08:12:10Z</time>
      </trkpt>
      <trkpt lat="42.572104968130589" lon="2.336974013596773">
        <ele>508.67000000000002</ele>
        <time>2025-05-15T08:12:11Z</time>
      </trkpt>
      <trkpt lat="42.57264400832355" lon="2.337383972480893">
        <ele>505.31</ele>
        <time>2025-05-15T08:12:15Z</time>
      </trkpt>
      <trkpt lat="42.572758002206683" lon="2.33758999966085">
        <ele>504.82999999999998</ele>
        <time>2025-05-15T08:12:16Z</time>
      </trkpt>
      <trkpt lat="42.572861015796661" lon="2.337773982435465">
        <ele>504.35000000000002</ele>
        <time>2025-05-15T08:12:17Z</time>
      </trkpt>
      <trkpt lat="42.572968974709511" lon="2.337970035150647">
        <ele>503.87</ele>
        <time>2025-05-15T08:12:18Z</time>
      </trkpt>
      <trkpt lat="42.573081040754914" lon="2.338188970461488">
        <ele>502.91000000000003</ele>
        <time>2025-05-15T08:12:19Z</time>
      </trkpt>
      <trkpt lat="42.573198974132538" lon="2.338420981541276">
        <ele>502.43000000000001</ele>
        <time>2025-05-15T08:12:20Z</time>
      </trkpt>
      <trkpt lat="42.574180997908115" lon="2.340320991352201">
        <ele>497.13999999999999</ele>
        <time>2025-05-15T08:12:27Z</time>
      </trkpt>
      <trkpt lat="42.575638024136424" lon="2.342366008087993">
        <ele>491.85000000000002</ele>
        <time>2025-05-15T08:12:35Z</time>
      </trkpt>
      <trkpt lat="42.577466033399105" lon="2.34474596567452">
        <ele>482.72000000000003</ele>
        <time>2025-05-15T08:12:45Z</time>
      </trkpt>
      <trkpt lat="42.578886011615396" lon="2.346783019602299">
        <ele>475.50999999999999</ele>
        <time>2025-05-15T08:12:54Z</time>
      </trkpt>
      <trkpt lat="42.579084997996688" lon="2.347276965156198">
        <ele>474.06999999999999</ele>
        <time>2025-05-15T08:12:56Z</time>
      </trkpt>
      <trkpt lat="42.579987980425358" lon="2.349836966022849">
        <ele>468.30000000000001</ele>
        <time>2025-05-15T08:13:06Z</time>
      </trkpt>
      <trkpt lat="42.581252977252007" lon="2.352336030453444">
        <ele>462.05000000000001</ele>
        <time>2025-05-15T08:13:17Z</time>
      </trkpt>
      <trkpt lat="42.582516968250275" lon="2.353743016719818">
        <ele>460.13</ele>
        <time>2025-05-15T08:13:25Z</time>
      </trkpt>
      <trkpt lat="42.583288019523025" lon="2.354519013315439">
        <ele>460.13</ele>
        <time>2025-05-15T08:13:30Z</time>
      </trkpt>
      <trkpt lat="42.58340997621417" lon="2.354707019403577">
        <ele>459.64999999999998</ele>
        <time>2025-05-15T08:13:31Z</time>
      </trkpt>
      <trkpt lat="42.583823958411813" lon="2.355602039024234">
        <ele>458.69</ele>
        <time>2025-05-15T08:13:35Z</time>
      </trkpt>
      <trkpt lat="42.583876010030508" lon="2.355840001255274">
        <ele>458.20999999999998</ele>
        <time>2025-05-15T08:13:36Z</time>
      </trkpt>
      <trkpt lat="42.584115983918309" lon="2.357864985242486">
        <ele>454.83999999999997</ele>
        <time>2025-05-15T08:13:44Z</time>
      </trkpt>
      <trkpt lat="42.584217991679907" lon="2.359036020934582">
        <ele>451.95999999999998</ele>
        <time>2025-05-15T08:13:49Z</time>
      </trkpt>
      <trkpt lat="42.584271971136332" lon="2.359252022579312">
        <ele>451.48000000000002</ele>
        <time>2025-05-15T08:13:50Z</time>
      </trkpt>
      <trkpt lat="42.584337014704943" lon="2.359456960111857">
        <ele>450.51999999999998</ele>
        <time>2025-05-15T08:13:51Z</time>
      </trkpt>
      <trkpt lat="42.58435201831162" lon="2.359672039747238">
        <ele>450.02999999999997</ele>
        <time>2025-05-15T08:13:52Z</time>
      </trkpt>
      <trkpt lat="42.584359981119633" lon="2.359859962016344">
        <ele>449.55000000000001</ele>
        <time>2025-05-15T08:13:53Z</time>
      </trkpt>
      <trkpt lat="42.584344977512956" lon="2.360044028609991">
        <ele>449.06999999999999</ele>
        <time>2025-05-15T08:13:54Z</time>
      </trkpt>
      <trkpt lat="42.584306001663208" lon="2.360215019434691">
        <ele>449.06999999999999</ele>
        <time>2025-05-15T08:13:55Z</time>
      </trkpt>
      <trkpt lat="42.584094023332" lon="2.361578000709415">
        <ele>448.11000000000001</ele>
        <time>2025-05-15T08:14:02Z</time>
      </trkpt>
      <trkpt lat="42.584087988361716" lon="2.36176198348403">
        <ele>448.11000000000001</ele>
        <time>2025-05-15T08:14:03Z</time>
      </trkpt>
      <trkpt lat="42.584101986140013" lon="2.361946972087026">
        <ele>448.11000000000001</ele>
        <time>2025-05-15T08:14:04Z</time>
      </trkpt>
      <trkpt lat="42.584156971424818" lon="2.362116035073996">
        <ele>448.11000000000001</ele>
        <time>2025-05-15T08:14:05Z</time>
      </trkpt>
      <trkpt lat="42.584226038306952" lon="2.362279985100031">
        <ele>447.63</ele>
        <time>2025-05-15T08:14:06Z</time>
      </trkpt>
      <trkpt lat="42.584313964471221" lon="2.362442007288337">
        <ele>447.63</ele>
        <time>2025-05-15T08:14:07Z</time>
      </trkpt>
      <trkpt lat="42.584400968626142" lon="2.362603023648262">
        <ele>447.63</ele>
        <time>2025-05-15T08:14:08Z</time>
      </trkpt>
      <trkpt lat="42.584491996094584" lon="2.362753981724381">
        <ele>447.14999999999998</ele>
        <time>2025-05-15T08:14:09Z</time>
      </trkpt>
      <trkpt lat="42.585064982995391" lon="2.363327974453569">
        <ele>445.23000000000002</ele>
        <time>2025-05-15T08:14:14Z</time>
      </trkpt>
      <trkpt lat="42.585564041510224" lon="2.363777998834848">
        <ele>443.31</ele>
        <time>2025-05-15T08:14:18Z</time>
      </trkpt>
      <trkpt lat="42.585773002356291" lon="2.364036999642849">
        <ele>442.33999999999997</ele>
        <time>2025-05-15T08:14:20Z</time>
      </trkpt>
      <trkpt lat="42.585862018167973" lon="2.364171026274562">
        <ele>441.86000000000001</ele>
        <time>2025-05-15T08:14:21Z</time>
      </trkpt>
      <trkpt lat="42.585923038423061" lon="2.36431997269392">
        <ele>441.38</ele>
        <time>2025-05-15T08:14:22Z</time>
      </trkpt>
      <trkpt lat="42.585991015657783" lon="2.364485012367368">
        <ele>441.38</ele>
        <time>2025-05-15T08:14:23Z</time>
      </trkpt>
      <trkpt lat="42.586025968194008" lon="2.364615015685558">
        <ele>440.89999999999998</ele>
        <time>2025-05-15T08:14:24Z</time>
      </trkpt>
      <trkpt lat="42.586057987064123" lon="2.364777037873864">
        <ele>440.89999999999998</ele>
        <time>2025-05-15T08:14:25Z</time>
      </trkpt>
      <trkpt lat="42.586067039519548" lon="2.364933025091887">
        <ele>440.42000000000002</ele>
        <time>2025-05-15T08:14:26Z</time>
      </trkpt>
      <trkpt lat="42.586313970386982" lon="2.366346968337894">
        <ele>439.45999999999998</ele>
        <time>2025-05-15T08:14:35Z</time>
      </trkpt>
      <trkpt lat="42.586402986198664" lon="2.366873016580939">
        <ele>439.94</ele>
        <time>2025-05-15T08:14:38Z</time>
      </trkpt>
      <trkpt lat="42.586429975926876" lon="2.367451032623649">
        <ele>440.89999999999998</ele>
        <time>2025-05-15T08:14:42Z</time>
      </trkpt>
      <trkpt lat="42.586484039202332" lon="2.368433978408575">
        <ele>441.38</ele>
        <time>2025-05-15T08:14:52Z</time>
      </trkpt>
      <trkpt lat="42.586542963981628" lon="2.36915398389101">
        <ele>440.89999999999998</ele>
        <time>2025-05-15T08:14:57Z</time>
      </trkpt>
      <trkpt lat="42.586555033922195" lon="2.36930200830102">
        <ele>440.42000000000002</ele>
        <time>2025-05-15T08:14:58Z</time>
      </trkpt>
      <trkpt lat="42.586570037528872" lon="2.369764018803835">
        <ele>438.5</ele>
        <time>2025-05-15T08:15:02Z</time>
      </trkpt>
      <trkpt lat="42.586541958153248" lon="2.370007010176778">
        <ele>438.98000000000002</ele>
        <time>2025-05-15T08:15:04Z</time>
      </trkpt>
      <trkpt lat="42.586518991738558" lon="2.370098037645221">
        <ele>438.98000000000002</ele>
        <time>2025-05-15T08:15:05Z</time>
      </trkpt>
      <trkpt lat="42.58654497563839" lon="2.370208008214831">
        <ele>439.45999999999998</ele>
        <time>2025-05-15T08:15:06Z</time>
      </trkpt>
      <trkpt lat="42.586601972579956" lon="2.370281014591456">
        <ele>439.45999999999998</ele>
        <time>2025-05-15T08:15:07Z</time>
      </trkpt>
      <trkpt lat="42.58667103946209" lon="2.370298029854894">
        <ele>439.45999999999998</ele>
        <time>2025-05-15T08:15:08Z</time>
      </trkpt>
      <trkpt lat="42.586742034181952" lon="2.370236003771424">
        <ele>439.94</ele>
        <time>2025-05-15T08:15:09Z</time>
      </trkpt>
      <trkpt lat="42.586742034181952" lon="2.370236003771424">
        <ele>439.94</ele>
        <time>2025-05-15T08:15:10Z</time>
      </trkpt>
      <trkpt lat="42.58688603527844" lon="2.370057972148061">
        <ele>439.45999999999998</ele>
        <time>2025-05-15T08:15:11Z</time>
      </trkpt>
      <trkpt lat="42.586960969492793" lon="2.37005302682519">
        <ele>438.98000000000002</ele>
        <time>2025-05-15T08:15:12Z</time>
      </trkpt>
      <trkpt lat="42.587054008617997" lon="2.370046991854906">
        <ele>438.5</ele>
        <time>2025-05-15T08:15:13Z</time>
      </trkpt>
      <trkpt lat="42.587169008329511" lon="2.3700559604913">
        <ele>437.54000000000002</ele>
        <time>2025-05-15T08:15:14Z</time>
      </trkpt>
      <trkpt lat="42.587284008041024" lon="2.370092002674937">
        <ele>437.06</ele>
        <time>2025-05-15T08:15:15Z</time>
      </trkpt>
      <trkpt lat="42.587404036894441" lon="2.370129972696304">
        <ele>436.10000000000002</ele>
        <time>2025-05-15T08:15:16Z</time>
      </trkpt>
      <trkpt lat="42.587522976100445" lon="2.370168026536703">
        <ele>435.13</ele>
        <time>2025-05-15T08:15:17Z</time>
      </trkpt>
      <trkpt lat="42.587645016610622" lon="2.370222005993128">
        <ele>434.17000000000002</ele>
        <time>2025-05-15T08:15:18Z</time>
      </trkpt>
      <trkpt lat="42.587764039635658" lon="2.370298029854894">
        <ele>433.20999999999998</ele>
        <time>2025-05-15T08:15:19Z</time>
      </trkpt>
      <trkpt lat="42.588022034615278" lon="2.37046399153769">
        <ele>431.76999999999998</ele>
        <time>2025-05-15T08:15:21Z</time>
      </trkpt>
      <trkpt lat="42.589215030893683" lon="2.371120965108275">
        <ele>426.95999999999998</ele>
        <time>2025-05-15T08:15:30Z</time>
      </trkpt>
      <trkpt lat="42.590039977803826" lon="2.371211992576718">
        <ele>424.56</ele>
        <time>2025-05-15T08:15:37Z</time>
      </trkpt>
      <trkpt lat="42.590156989172101" lon="2.371221967041493">
        <ele>424.07999999999998</ele>
        <time>2025-05-15T08:15:38Z</time>
      </trkpt>
      <trkpt lat="42.590282969176769" lon="2.371233031153679">
        <ele>424.07999999999998</ele>
        <time>2025-05-15T08:15:39Z</time>
      </trkpt>
      <trkpt lat="42.590406015515327" lon="2.371243005618453">
        <ele>423.60000000000002</ele>
        <time>2025-05-15T08:15:40Z</time>
      </trkpt>
      <trkpt lat="42.590528978034854" lon="2.371253985911608">
        <ele>423.60000000000002</ele>
        <time>2025-05-15T08:15:41Z</time>
      </trkpt>
      <trkpt lat="42.59066903963685" lon="2.371265972033143">
        <ele>423.12</ele>
        <time>2025-05-15T08:15:42Z</time>
      </trkpt>
      <trkpt lat="42.59114102460444" lon="2.371373008936644">
        <ele>420.70999999999998</ele>
        <time>2025-05-15T08:15:46Z</time>
      </trkpt>
      <trkpt lat="42.591244038194418" lon="2.371413996443152">
        <ele>420.23000000000002</ele>
        <time>2025-05-15T08:15:47Z</time>
      </trkpt>
      <trkpt lat="42.591354008764029" lon="2.371458001434803">
        <ele>419.75</ele>
        <time>2025-05-15T08:15:48Z</time>
      </trkpt>
      <trkpt lat="42.591454004868865" lon="2.371541988104582">
        <ele>419.26999999999998</ele>
        <time>2025-05-15T08:15:49Z</time>
      </trkpt>
      <trkpt lat="42.591563975438476" lon="2.371634021401405">
        <ele>418.79000000000002</ele>
        <time>2025-05-15T08:15:50Z</time>
      </trkpt>
      <trkpt lat="42.591682998463511" lon="2.371734017506242">
        <ele>418.31</ele>
        <time>2025-05-15T08:15:51Z</time>
      </trkpt>
      <trkpt lat="42.592723025009036" lon="2.372569022700191">
        <ele>418.31</ele>
        <time>2025-05-15T08:15:59Z</time>
      </trkpt>
      <trkpt lat="42.5940649677068" lon="2.373585999011993">
        <ele>415.91000000000003</ele>
        <time>2025-05-15T08:16:09Z</time>
      </trkpt>
      <trkpt lat="42.595088984817266" lon="2.374570034444332">
        <ele>413.98000000000002</ele>
        <time>2025-05-15T08:16:16Z</time>
      </trkpt>
      <trkpt lat="42.595325019210577" lon="2.374925008043647">
        <ele>413.98000000000002</ele>
        <time>2025-05-15T08:16:18Z</time>
      </trkpt>
      <trkpt lat="42.595419986173511" lon="2.375109996646643">
        <ele>413.98000000000002</ele>
        <time>2025-05-15T08:16:19Z</time>
      </trkpt>
      <trkpt lat="42.595491986721754" lon="2.375315017998219">
        <ele>413.5</ele>
        <time>2025-05-15T08:16:20Z</time>
      </trkpt>
      <trkpt lat="42.595560969784856" lon="2.375515010207892">
        <ele>413.5</ele>
        <time>2025-05-15T08:16:21Z</time>
      </trkpt>
      <trkpt lat="42.595598017796874" lon="2.37572799436748">
        <ele>413.5</ele>
        <time>2025-05-15T08:16:22Z</time>
      </trkpt>
      <trkpt lat="42.595665995031595" lon="2.376123033463955">
        <ele>413.5</ele>
        <time>2025-05-15T08:16:24Z</time>
      </trkpt>
      <trkpt lat="42.595749981701374" lon="2.376283966004849">
        <ele>413.5</ele>
        <time>2025-05-15T08:16:25Z</time>
      </trkpt>
      <trkpt lat="42.595847966149449" lon="2.376386979594827">
        <ele>413.5</ele>
        <time>2025-05-15T08:16:26Z</time>
      </trkpt>
      <trkpt lat="42.595952991396189" lon="2.376468032598496">
        <ele>413.01999999999998</ele>
        <time>2025-05-15T08:16:27Z</time>
      </trkpt>
      <trkpt lat="42.596077965572476" lon="2.376480018720031">
        <ele>413.01999999999998</ele>
        <time>2025-05-15T08:16:28Z</time>
      </trkpt>
      <trkpt lat="42.596220038831234" lon="2.376480018720031">
        <ele>412.54000000000002</ele>
        <time>2025-05-15T08:16:29Z</time>
      </trkpt>
      <trkpt lat="42.596359010785818" lon="2.376480018720031">
        <ele>411.57999999999998</ele>
        <time>2025-05-15T08:16:30Z</time>
      </trkpt>
      <trkpt lat="42.596468981355429" lon="2.376503990963101">
        <ele>411.10000000000002</ele>
        <time>2025-05-15T08:16:31Z</time>
      </trkpt>
      <trkpt lat="42.596591021865606" lon="2.376609016209841">
        <ele>410.62</ele>
        <time>2025-05-15T08:16:32Z</time>
      </trkpt>
      <trkpt lat="42.596674002707005" lon="2.376733990386128">
        <ele>410.13999999999999</ele>
        <time>2025-05-15T08:16:33Z</time>
      </trkpt>
      <trkpt lat="42.596784979104996" lon="2.376900035887957">
        <ele>409.66000000000003</ele>
        <time>2025-05-15T08:16:34Z</time>
      </trkpt>
      <trkpt lat="42.598026003688574" lon="2.378554958850145">
        <ele>406.76999999999998</ele>
        <time>2025-05-15T08:16:43Z</time>
      </trkpt>
      <trkpt lat="42.600193982943892" lon="2.381310006603599">
        <ele>402.44999999999999</ele>
        <time>2025-05-15T08:16:57Z</time>
      </trkpt>
      <trkpt lat="42.601412963122129" lon="2.38335401751101">
        <ele>399.56999999999999</ele>
        <time>2025-05-15T08:17:06Z</time>
      </trkpt>
      <trkpt lat="42.602442009374499" lon="2.386285001412034">
        <ele>395.72000000000003</ele>
        <time>2025-05-15T08:17:17Z</time>
      </trkpt>
      <trkpt lat="42.603565016761422" lon="2.389590991660953">
        <ele>393.31999999999999</ele>
        <time>2025-05-15T08:17:29Z</time>
      </trkpt>
      <trkpt lat="42.604344030842185" lon="2.391952006146312">
        <ele>395.72000000000003</ele>
        <time>2025-05-15T08:17:39Z</time>
      </trkpt>
      <trkpt lat="42.604814004153013" lon="2.393266959115863">
        <ele>394.27999999999997</ele>
        <time>2025-05-15T08:17:47Z</time>
      </trkpt>
      <trkpt lat="42.605654960498214" lon="2.395313987508416">
        <ele>392.36000000000001</ele>
        <time>2025-05-15T08:18:02Z</time>
      </trkpt>
      <trkpt lat="42.605802984908223" lon="2.395738027989864">
        <ele>391.87</ele>
        <time>2025-05-15T08:18:05Z</time>
      </trkpt>
      <trkpt lat="42.605888983234763" lon="2.396172964945436">
        <ele>390.43000000000001</ele>
        <time>2025-05-15T08:18:08Z</time>
      </trkpt>
      <trkpt lat="42.605921002104878" lon="2.396467002108693">
        <ele>389.47000000000003</ele>
        <time>2025-05-15T08:18:10Z</time>
      </trkpt>
      <trkpt lat="42.605913039296865" lon="2.396623995155096">
        <ele>388.99000000000001</ele>
        <time>2025-05-15T08:18:11Z</time>
      </trkpt>
      <trkpt lat="42.605854030698538" lon="2.397047029808164">
        <ele>387.55000000000001</ele>
        <time>2025-05-15T08:18:14Z</time>
      </trkpt>
      <trkpt lat="42.6058179885149" lon="2.39716999232769">
        <ele>387.06999999999999</ele>
        <time>2025-05-15T08:18:15Z</time>
      </trkpt>
      <trkpt lat="42.605782030150294" lon="2.397292032837868">
        <ele>386.58999999999997</ele>
        <time>2025-05-15T08:18:16Z</time>
      </trkpt>
      <trkpt lat="42.605766020715237" lon="2.39742798730731">
        <ele>386.11000000000001</ele>
        <time>2025-05-15T08:18:17Z</time>
      </trkpt>
      <trkpt lat="42.605755040422082" lon="2.397552039474249">
        <ele>385.63</ele>
        <time>2025-05-15T08:18:18Z</time>
      </trkpt>
      <trkpt lat="42.605787981301546" lon="2.397678019478917">
        <ele>385.63</ele>
        <time>2025-05-15T08:18:19Z</time>
      </trkpt>
      <trkpt lat="42.605825029313564" lon="2.397788995876908">
        <ele>385.14999999999998</ele>
        <time>2025-05-15T08:18:20Z</time>
      </trkpt>
      <trkpt lat="42.605862999334931" lon="2.397901983931661">
        <ele>384.66000000000003</ele>
        <time>2025-05-15T08:18:21Z</time>
      </trkpt>
      <trkpt lat="42.606210010126233" lon="2.398961959406734">
        <ele>380.81999999999999</ele>
        <time>2025-05-15T08:18:32Z</time>
      </trkpt>
      <trkpt lat="42.606236999854445" lon="2.399048041552305">
        <ele>380.33999999999997</ele>
        <time>2025-05-15T08:18:33Z</time>
      </trkpt>
      <trkpt lat="42.606266001239419" lon="2.399140996858478">
        <ele>379.86000000000001</ele>
        <time>2025-05-15T08:18:34Z</time>
      </trkpt>
      <trkpt lat="42.606618963181973" lon="2.400269033387303">
        <ele>374.56999999999999</ele>
        <time>2025-05-15T08:18:44Z</time>
      </trkpt>
      <trkpt lat="42.606971003115177" lon="2.401333032175899">
        <ele>370.73000000000002</ele>
        <time>2025-05-15T08:18:55Z</time>
      </trkpt>
      <trkpt lat="42.607006961479783" lon="2.401440991088748">
        <ele>370.73000000000002</ele>
        <time>2025-05-15T08:18:56Z</time>
      </trkpt>
      <trkpt lat="42.607092037796974" lon="2.401645006611943">
        <ele>370.24000000000001</ele>
        <time>2025-05-15T08:18:58Z</time>
      </trkpt>
      <trkpt lat="42.607147023081779" lon="2.401754977181554">
        <ele>370.24000000000001</ele>
        <time>2025-05-15T08:18:59Z</time>
      </trkpt>
      <trkpt lat="42.607201002538204" lon="2.401868971064687">
        <ele>369.75999999999999</ele>
        <time>2025-05-15T08:19:00Z</time>
      </trkpt>
      <trkpt lat="42.607467966154218" lon="2.402443969622254">
        <ele>368.80000000000001</ele>
        <time>2025-05-15T08:19:05Z</time>
      </trkpt>
      <trkpt lat="42.608174979686737" lon="2.40395799279213">
        <ele>367.36000000000001</ele>
        <time>2025-05-15T08:19:16Z</time>
      </trkpt>
      <trkpt lat="42.608787026256323" lon="2.405695980414748">
        <ele>367.36000000000001</ele>
        <time>2025-05-15T08:19:25Z</time>
      </trkpt>
      <trkpt lat="42.608833964914083" lon="2.405906030908227">
        <ele>367.36000000000001</ele>
        <time>2025-05-15T08:19:26Z</time>
      </trkpt>
      <trkpt lat="42.609029011800885" lon="2.406678004190326">
        <ele>368.31999999999999</ele>
        <time>2025-05-15T08:19:30Z</time>
      </trkpt>
      <trkpt lat="42.609095983207226" lon="2.406812030822039">
        <ele>368.31999999999999</ele>
        <time>2025-05-15T08:19:31Z</time>
      </trkpt>
      <trkpt lat="42.609281977638602" lon="2.407147977501154">
        <ele>368.80000000000001</ele>
        <time>2025-05-15T08:19:36Z</time>
      </trkpt>
      <trkpt lat="42.609296981245279" lon="2.407168010249734">
        <ele>368.80000000000001</ele>
        <time>2025-05-15T08:19:37Z</time>
      </trkpt>
      <trkpt lat="42.609296981245279" lon="2.407168010249734">
        <ele>368.80000000000001</ele>
        <time>2025-05-15T08:19:48Z</time>
      </trkpt>
      <trkpt lat="42.609461015090346" lon="2.407388035207987">
        <ele>372.17000000000002</ele>
        <time>2025-05-15T08:20:21Z</time>
      </trkpt>
      <trkpt lat="42.609486998990178" lon="2.407421981915832">
        <ele>372.17000000000002</ele>
        <time>2025-05-15T08:20:22Z</time>
      </trkpt>
      <trkpt lat="42.609550030902028" lon="2.407452994957566">
        <ele>373.13</ele>
        <time>2025-05-15T08:20:23Z</time>
      </trkpt>
      <trkpt lat="42.609605016186833" lon="2.407480990514159">
        <ele>373.61000000000001</ele>
        <time>2025-05-15T08:20:24Z</time>
      </trkpt>
      <trkpt lat="42.609778018668294" lon="2.40756799466908">
        <ele>374.08999999999997</ele>
        <time>2025-05-15T08:20:27Z</time>
      </trkpt>
      <trkpt lat="42.610017992556095" lon="2.40771702490747">
        <ele>374.56999999999999</ele>
        <time>2025-05-15T08:20:31Z</time>
      </trkpt>
      <trkpt lat="42.610083036124706" lon="2.407781984657049">
        <ele>374.08999999999997</ele>
        <time>2025-05-15T08:20:32Z</time>
      </trkpt>
      <trkpt lat="42.610173979774117" lon="2.407873012125492">
        <ele>374.08999999999997</ele>
        <time>2025-05-15T08:20:33Z</time>
      </trkpt>
      <trkpt lat="42.610215973109007" lon="2.407944006845355">
        <ele>374.08999999999997</ele>
        <time>2025-05-15T08:20:34Z</time>
      </trkpt>
      <trkpt lat="42.610274981707335" lon="2.408045008778572">
        <ele>373.61000000000001</ele>
        <time>2025-05-15T08:20:35Z</time>
      </trkpt>
      <trkpt lat="42.610333990305662" lon="2.408146010711789">
        <ele>373.61000000000001</ele>
        <time>2025-05-15T08:20:36Z</time>
      </trkpt>
      <trkpt lat="42.610884010791779" lon="2.408899962902069">
        <ele>370.73000000000002</ele>
        <time>2025-05-15T08:20:44Z</time>
      </trkpt>
      <trkpt lat="42.611868968233466" lon="2.409792970865965">
        <ele>364.48000000000002</ele>
        <time>2025-05-15T08:20:54Z</time>
      </trkpt>
      <trkpt lat="42.612886028364301" lon="2.410614984109998">
        <ele>360.63</ele>
        <time>2025-05-15T08:21:04Z</time>
      </trkpt>
      <trkpt lat="42.614084975793958" lon="2.41132996045053">
        <ele>357.26999999999998</ele>
        <time>2025-05-15T08:21:13Z</time>
      </trkpt>
      <trkpt lat="42.615774013102055" lon="2.411842010915279">
        <ele>349.57999999999998</ele>
        <time>2025-05-15T08:21:24Z</time>
      </trkpt>
      <trkpt lat="42.616848992183805" lon="2.412344003096223">
        <ele>345.73000000000002</ele>
        <time>2025-05-15T08:21:31Z</time>
      </trkpt>
      <trkpt lat="42.61701000854373" lon="2.412377027794719">
        <ele>345.25</ele>
        <time>2025-05-15T08:21:32Z</time>
      </trkpt>
      <trkpt lat="42.617176976054907" lon="2.412369986996055">
        <ele>344.76999999999998</ele>
        <time>2025-05-15T08:21:33Z</time>
      </trkpt>
      <trkpt lat="42.617346039041877" lon="2.412362024188042">
        <ele>344.29000000000002</ele>
        <time>2025-05-15T08:21:34Z</time>
      </trkpt>
      <trkpt lat="42.617517029866576" lon="2.412354983389378">
        <ele>343.81</ele>
        <time>2025-05-15T08:21:35Z</time>
      </trkpt>
      <trkpt lat="42.61832102201879" lon="2.412390019744635">
        <ele>341.88999999999999</ele>
        <time>2025-05-15T08:21:40Z</time>
      </trkpt>
      <trkpt lat="42.618455970659852" lon="2.412408962845802">
        <ele>341.41000000000003</ele>
        <time>2025-05-15T08:21:41Z</time>
      </trkpt>
      <trkpt lat="42.618583040311933" lon="2.412449028342962">
        <ele>340.92000000000002</ele>
        <time>2025-05-15T08:21:42Z</time>
      </trkpt>
      <trkpt lat="42.618693010881543" lon="2.412522034719586">
        <ele>340.44</ele>
        <time>2025-05-15T08:21:43Z</time>
      </trkpt>
      <trkpt lat="42.618803987279534" lon="2.412595963105559">
        <ele>340.44</ele>
        <time>2025-05-15T08:21:44Z</time>
      </trkpt>
      <trkpt lat="42.619129037484527" lon="2.412869967520237">
        <ele>339.48000000000002</ele>
        <time>2025-05-15T08:21:47Z</time>
      </trkpt>
      <trkpt lat="42.619229033589363" lon="2.412958983331919">
        <ele>339.48000000000002</ele>
        <time>2025-05-15T08:21:48Z</time>
      </trkpt>
      <trkpt lat="42.619302961975336" lon="2.413081023842096">
        <ele>339</ele>
        <time>2025-05-15T08:21:49Z</time>
      </trkpt>
      <trkpt lat="42.619377980008721" lon="2.413202980533242">
        <ele>339</ele>
        <time>2025-05-15T08:21:50Z</time>
      </trkpt>
      <trkpt lat="42.619456015527248" lon="2.413331978023052">
        <ele>339</ele>
        <time>2025-05-15T08:21:51Z</time>
      </trkpt>
      <trkpt lat="42.620155988261104" lon="2.414798978716135">
        <ele>334.68000000000001</ele>
        <time>2025-05-15T08:22:01Z</time>
      </trkpt>
      <trkpt lat="42.620602995157242" lon="2.415705984458327">
        <ele>332.75</ele>
        <time>2025-05-15T08:22:07Z</time>
      </trkpt>
      <trkpt lat="42.620852021500468" lon="2.416073027998209">
        <ele>332.26999999999998</ele>
        <time>2025-05-15T08:22:14Z</time>
      </trkpt>
      <trkpt lat="42.621030975133181" lon="2.416326999664307">
        <ele>332.75</ele>
        <time>2025-05-15T08:22:22Z</time>
      </trkpt>
      <trkpt lat="42.621030975133181" lon="2.416392965242267">
        <ele>333.23000000000002</ele>
        <time>2025-05-15T08:22:23Z</time>
      </trkpt>
      <trkpt lat="42.621030975133181" lon="2.416495978832245">
        <ele>333.23000000000002</ele>
        <time>2025-05-15T08:22:24Z</time>
      </trkpt>
      <trkpt lat="42.621030975133181" lon="2.416669987142086">
        <ele>333.23000000000002</ele>
        <time>2025-05-15T08:22:25Z</time>
      </trkpt>
      <trkpt lat="42.621082020923495" lon="2.416713992133737">
        <ele>333.23000000000002</ele>
        <time>2025-05-15T08:22:26Z</time>
      </trkpt>
      <trkpt lat="42.621157960966229" lon="2.416780963540077">
        <ele>333.23000000000002</ele>
        <time>2025-05-15T08:22:27Z</time>
      </trkpt>
      <trkpt lat="42.621232978999615" lon="2.416857993230224">
        <ele>333.23000000000002</ele>
        <time>2025-05-15T08:22:28Z</time>
      </trkpt>
      <trkpt lat="42.621315037831664" lon="2.416963018476963">
        <ele>333.23000000000002</ele>
        <time>2025-05-15T08:22:29Z</time>
      </trkpt>
      <trkpt lat="42.621401958167553" lon="2.417072989046574">
        <ele>332.75</ele>
        <time>2025-05-15T08:22:30Z</time>
      </trkpt>
      <trkpt lat="42.621525004506111" lon="2.417227970436215">
        <ele>332.26999999999998</ele>
        <time>2025-05-15T08:22:31Z</time>
      </trkpt>
      <trkpt lat="42.622236041352153" lon="2.418956989422441">
        <ele>328.43000000000001</ele>
        <time>2025-05-15T08:22:41Z</time>
      </trkpt>
      <trkpt lat="42.623022012412548" lon="2.421057997271419">
        <ele>326.01999999999998</ele>
        <time>2025-05-15T08:22:50Z</time>
      </trkpt>
      <trkpt lat="42.62360799126327" lon="2.423138972371817">
        <ele>322.66000000000003</ele>
        <time>2025-05-15T08:22:59Z</time>
      </trkpt>
      <trkpt lat="42.624093974009156" lon="2.424975028261542">
        <ele>325.06</ele>
        <time>2025-05-15T08:23:08Z</time>
      </trkpt>
      <trkpt lat="42.624243004247546" lon="2.426147991791368">
        <ele>328.91000000000003</ele>
        <time>2025-05-15T08:23:16Z</time>
      </trkpt>
      <trkpt lat="42.624235963448882" lon="2.426284030079842">
        <ele>329.38999999999999</ele>
        <time>2025-05-15T08:23:17Z</time>
      </trkpt>
      <trkpt lat="42.624157005921006" lon="2.426791973412037">
        <ele>333.23000000000002</ele>
        <time>2025-05-15T08:23:22Z</time>
      </trkpt>
      <trkpt lat="42.624132027849555" lon="2.426847964525223">
        <ele>334.19999999999999</ele>
        <time>2025-05-15T08:23:23Z</time>
      </trkpt>
      <trkpt lat="42.624103026464581" lon="2.426909990608692">
        <ele>334.68000000000001</ele>
        <time>2025-05-15T08:23:24Z</time>
      </trkpt>
      <trkpt lat="42.62405700981617" lon="2.42701300419867">
        <ele>335.63999999999999</ele>
        <time>2025-05-15T08:23:25Z</time>
      </trkpt>
      <trkpt lat="42.623996995389462" lon="2.427047034725547">
        <ele>336.12</ele>
        <time>2025-05-15T08:23:26Z</time>
      </trkpt>
      <trkpt lat="42.623906973749399" lon="2.42709900252521">
        <ele>337.07999999999998</ele>
        <time>2025-05-15T08:23:27Z</time>
      </trkpt>
      <trkpt lat="42.623870009556413" lon="2.427153987810016">
        <ele>338.04000000000002</ele>
        <time>2025-05-15T08:23:28Z</time>
      </trkpt>
      <trkpt lat="42.623820975422859" lon="2.427274016663432">
        <ele>338.51999999999998</ele>
        <time>2025-05-15T08:23:29Z</time>
      </trkpt>
      <trkpt lat="42.623820975422859" lon="2.427378036081791">
        <ele>338.51999999999998</ele>
        <time>2025-05-15T08:23:30Z</time>
      </trkpt>
      <trkpt lat="42.623869003728032" lon="2.427521031349897">
        <ele>338.51999999999998</ele>
        <time>2025-05-15T08:23:31Z</time>
      </trkpt>
      <trkpt lat="42.623906973749399" lon="2.42763502523303">
        <ele>338.51999999999998</ele>
        <time>2025-05-15T08:23:32Z</time>
      </trkpt>
      <trkpt lat="42.623933963477612" lon="2.427800986915827">
        <ele>338.51999999999998</ele>
        <time>2025-05-15T08:23:33Z</time>
      </trkpt>
      <trkpt lat="42.623961037024856" lon="2.427963009104133">
        <ele>338.51999999999998</ele>
        <time>2025-05-15T08:23:34Z</time>
      </trkpt>
      <trkpt lat="42.623991966247559" lon="2.42815000936389">
        <ele>338.51999999999998</ele>
        <time>2025-05-15T08:23:35Z</time>
      </trkpt>
      <trkpt lat="42.623980985954404" lon="2.42834497243166">
        <ele>338.51999999999998</ele>
        <time>2025-05-15T08:23:36Z</time>
      </trkpt>
      <trkpt lat="42.623849976807833" lon="2.430296028032899">
        <ele>336.60000000000002</ele>
        <time>2025-05-15T08:23:44Z</time>
      </trkpt>
      <trkpt lat="42.623677980154753" lon="2.432594010606408">
        <ele>335.16000000000003</ele>
        <time>2025-05-15T08:23:52Z</time>
      </trkpt>
      <trkpt lat="42.623276989907026" lon="2.435141019523144">
        <ele>334.68000000000001</ele>
        <time>2025-05-15T08:24:01Z</time>
      </trkpt>
      <trkpt lat="42.622878011316061" lon="2.437449982389808">
        <ele>341.41000000000003</ele>
        <time>2025-05-15T08:24:10Z</time>
      </trkpt>
      <trkpt lat="42.622690005227923" lon="2.438526973128319">
        <ele>343.32999999999998</ele>
        <time>2025-05-15T08:24:16Z</time>
      </trkpt>
      <trkpt lat="42.62266200967133" lon="2.438685977831483">
        <ele>343.32999999999998</ele>
        <time>2025-05-15T08:24:17Z</time>
      </trkpt>
      <trkpt lat="42.622646000236273" lon="2.438735011965036">
        <ele>343.81</ele>
        <time>2025-05-15T08:24:18Z</time>
      </trkpt>
      <trkpt lat="42.622485989704728" lon="2.438855962827802">
        <ele>344.76999999999998</ele>
        <time>2025-05-15T08:24:20Z</time>
      </trkpt>
      <trkpt lat="42.622478026896715" lon="2.438952019438148">
        <ele>344.76999999999998</ele>
        <time>2025-05-15T08:24:21Z</time>
      </trkpt>
      <trkpt lat="42.62246897444129" lon="2.439071964472532">
        <ele>344.76999999999998</ele>
        <time>2025-05-15T08:24:22Z</time>
      </trkpt>
      <trkpt lat="42.62251197360456" lon="2.439157962799072">
        <ele>344.29000000000002</ele>
        <time>2025-05-15T08:24:23Z</time>
      </trkpt>
      <trkpt lat="42.622643988579512" lon="2.439213031902909">
        <ele>344.29000000000002</ele>
        <time>2025-05-15T08:24:24Z</time>
      </trkpt>
      <trkpt lat="42.622710037976503" lon="2.439469015225768">
        <ele>343.32999999999998</ele>
        <time>2025-05-15T08:24:26Z</time>
      </trkpt>
      <trkpt lat="42.623164001852274" lon="2.440900979563594">
        <ele>339.95999999999998</ele>
        <time>2025-05-15T08:24:34Z</time>
      </trkpt>
      <trkpt lat="42.623740006238222" lon="2.442584987729788">
        <ele>337.56</ele>
        <time>2025-05-15T08:24:41Z</time>
      </trkpt>
      <trkpt lat="42.62487499974668" lon="2.445902964100242">
        <ele>333.70999999999998</ele>
        <time>2025-05-15T08:24:54Z</time>
      </trkpt>
      <trkpt lat="42.625860963016748" lon="2.44862699881196">
        <ele>330.35000000000002</ele>
        <time>2025-05-15T08:25:05Z</time>
      </trkpt>
      <trkpt lat="42.625988032668829" lon="2.448835037648678">
        <ele>329.87</ele>
        <time>2025-05-15T08:25:06Z</time>
      </trkpt>
      <trkpt lat="42.626139996573329" lon="2.449022959917784">
        <ele>329.87</ele>
        <time>2025-05-15T08:25:07Z</time>
      </trkpt>
      <trkpt lat="42.6262900326401" lon="2.449208032339811">
        <ele>329.38999999999999</ele>
        <time>2025-05-15T08:25:08Z</time>
      </trkpt>
      <trkpt lat="42.626451971009374" lon="2.449372988194227">
        <ele>328.43000000000001</ele>
        <time>2025-05-15T08:25:09Z</time>
      </trkpt>
      <trkpt lat="42.627114979550242" lon="2.4500219989568">
        <ele>326.5</ele>
        <time>2025-05-15T08:25:13Z</time>
      </trkpt>
      <trkpt lat="42.627255041152239" lon="2.450229031965137">
        <ele>325.54000000000002</ele>
        <time>2025-05-15T08:25:14Z</time>
      </trkpt>
      <trkpt lat="42.62850696220994" lon="2.452330961823463">
        <ele>321.22000000000003</ele>
        <time>2025-05-15T08:25:24Z</time>
      </trkpt>
      <trkpt lat="42.629655031487346" lon="2.454333985224366">
        <ele>319.30000000000001</ele>
        <time>2025-05-15T08:25:34Z</time>
      </trkpt>
      <trkpt lat="42.630612999200821" lon="2.456043977290392">
        <ele>314.00999999999999</ele>
        <time>2025-05-15T08:25:43Z</time>
      </trkpt>
      <trkpt lat="42.631480023264885" lon="2.457939963787794">
        <ele>312.08999999999997</ele>
        <time>2025-05-15T08:25:52Z</time>
      </trkpt>
      <trkpt lat="42.632317962124944" lon="2.460147002711892">
        <ele>311.12</ele>
        <time>2025-05-15T08:26:02Z</time>
      </trkpt>
      <trkpt lat="42.633480029180646" lon="2.463317038491368">
        <ele>306.31999999999999</ele>
        <time>2025-05-15T08:26:16Z</time>
      </trkpt>
      <trkpt lat="42.634442020207644" lon="2.465893970802426">
        <ele>303.43000000000001</ele>
        <time>2025-05-15T08:26:27Z</time>
      </trkpt>
      <trkpt lat="42.63555102981627" lon="2.467752993106842">
        <ele>299.11000000000001</ele>
        <time>2025-05-15T08:26:36Z</time>
      </trkpt>
      <trkpt lat="42.636709995567799" lon="2.469750987365842">
        <ele>290.45999999999998</ele>
        <time>2025-05-15T08:26:46Z</time>
      </trkpt>
      <trkpt lat="42.637910032644868" lon="2.472708038985729">
        <ele>274.58999999999997</ele>
        <time>2025-05-15T08:26:59Z</time>
      </trkpt>
      <trkpt lat="42.638994986191392" lon="2.475336017087102">
        <ele>264.5</ele>
        <time>2025-05-15T08:27:11Z</time>
      </trkpt>
      <trkpt lat="42.639858992770314" lon="2.477505002170801">
        <ele>262.57999999999998</ele>
        <time>2025-05-15T08:27:22Z</time>
      </trkpt>
      <trkpt lat="42.640734985470772" lon="2.479691002517939">
        <ele>265.45999999999998</ele>
        <time>2025-05-15T08:27:33Z</time>
      </trkpt>
      <trkpt lat="42.641171012073755" lon="2.480948036536574">
        <ele>269.31</ele>
        <time>2025-05-15T08:27:41Z</time>
      </trkpt>
      <trkpt lat="42.64120202511549" lon="2.481086002662778">
        <ele>269.79000000000002</ele>
        <time>2025-05-15T08:27:42Z</time>
      </trkpt>
      <trkpt lat="42.641538977622986" lon="2.48222996480763">
        <ele>269.79000000000002</ele>
        <time>2025-05-15T08:27:51Z</time>
      </trkpt>
      <trkpt lat="42.641576025635004" lon="2.482350999489427">
        <ele>269.31</ele>
        <time>2025-05-15T08:27:52Z</time>
      </trkpt>
      <trkpt lat="42.641646014526486" lon="2.482585022225976">
        <ele>267.86000000000001</ele>
        <time>2025-05-15T08:27:54Z</time>
      </trkpt>
      <trkpt lat="42.641679039224982" lon="2.482699016109109">
        <ele>267.38</ele>
        <time>2025-05-15T08:27:55Z</time>
      </trkpt>
      <trkpt lat="42.642036024481058" lon="2.483967030420899">
        <ele>263.54000000000002</ele>
        <time>2025-05-15T08:28:06Z</time>
      </trkpt>
      <trkpt lat="42.642066031694412" lon="2.484084041789174">
        <ele>263.06</ele>
        <time>2025-05-15T08:28:07Z</time>
      </trkpt>
      <trkpt lat="42.642371971160173" lon="2.485229009762406">
        <ele>261.62</ele>
        <time>2025-05-15T08:28:17Z</time>
      </trkpt>
      <trkpt lat="42.642404995858669" lon="2.485352978110313">
        <ele>261.13999999999999</ele>
        <time>2025-05-15T08:28:18Z</time>
      </trkpt>
      <trkpt lat="42.642788970842957" lon="2.486922992393374">
        <ele>261.62</ele>
        <time>2025-05-15T08:28:29Z</time>
      </trkpt>
      <trkpt lat="42.643185015767813" lon="2.488388987258077">
        <ele>259.69</ele>
        <time>2025-05-15T08:28:38Z</time>
      </trkpt>
      <trkpt lat="42.643664963543415" lon="2.490196963772178">
        <ele>258.73000000000002</ele>
        <time>2025-05-15T08:28:46Z</time>
      </trkpt>
      <trkpt lat="42.643949026241899" lon="2.492051962763071">
        <ele>258.25</ele>
        <time>2025-05-15T08:28:54Z</time>
      </trkpt>
      <trkpt lat="42.644057990983129" lon="2.494767028838396">
        <ele>257.29000000000002</ele>
        <time>2025-05-15T08:29:06Z</time>
      </trkpt>
      <trkpt lat="42.6441890001297" lon="2.498548021540046">
        <ele>257.29000000000002</ele>
        <time>2025-05-15T08:29:22Z</time>
      </trkpt>
      <trkpt lat="42.644249014556408" lon="2.50147900544107">
        <ele>254.88999999999999</ele>
        <time>2025-05-15T08:29:35Z</time>
      </trkpt>
      <trkpt lat="42.64425303786993" lon="2.502238992601633">
        <ele>254.88999999999999</ele>
        <time>2025-05-15T08:29:39Z</time>
      </trkpt>
      <trkpt lat="42.644184976816177" lon="2.502367990091443">
        <ele>254.88999999999999</ele>
        <time>2025-05-15T08:29:40Z</time>
      </trkpt>
      <trkpt lat="42.64414700679481" lon="2.502481983974576">
        <ele>255.37</ele>
        <time>2025-05-15T08:29:41Z</time>
      </trkpt>
      <trkpt lat="42.644092021510005" lon="2.502584997564554">
        <ele>255.37</ele>
        <time>2025-05-15T08:29:42Z</time>
      </trkpt>
      <trkpt lat="42.643999988213181" lon="2.502650963142514">
        <ele>255.84999999999999</ele>
        <time>2025-05-15T08:29:43Z</time>
      </trkpt>
      <trkpt lat="42.643896974623203" lon="2.502723969519138">
        <ele>255.84999999999999</ele>
        <time>2025-05-15T08:29:44Z</time>
      </trkpt>
      <trkpt lat="42.643783986568451" lon="2.502795970067382">
        <ele>256.81</ele>
        <time>2025-05-15T08:29:45Z</time>
      </trkpt>
      <trkpt lat="42.642485965043306" lon="2.503393013030291">
        <ele>261.62</ele>
        <time>2025-05-15T08:29:54Z</time>
      </trkpt>
      <trkpt lat="42.64234397560358" lon="2.503485968336463">
        <ele>262.10000000000002</ele>
        <time>2025-05-15T08:29:55Z</time>
      </trkpt>
      <trkpt lat="42.642211960628629" lon="2.503575989976525">
        <ele>262.57999999999998</ele>
        <time>2025-05-15T08:29:56Z</time>
      </trkpt>
      <trkpt lat="42.64208497479558" lon="2.503661988303065">
        <ele>263.06</ele>
        <time>2025-05-15T08:29:57Z</time>
      </trkpt>
      <trkpt lat="42.641953965649009" lon="2.503752009943128">
        <ele>263.54000000000002</ele>
        <time>2025-05-15T08:29:58Z</time>
      </trkpt>
      <trkpt lat="42.64180401340127" lon="2.503802971914411">
        <ele>264.01999999999998</ele>
        <time>2025-05-15T08:29:59Z</time>
      </trkpt>
      <trkpt lat="42.641640985384583" lon="2.503849994391203">
        <ele>264.98000000000002</ele>
        <time>2025-05-15T08:30:00Z</time>
      </trkpt>
      <trkpt lat="42.641468988731503" lon="2.503901962190867">
        <ele>265.45999999999998</ele>
        <time>2025-05-15T08:30:01Z</time>
      </trkpt>
      <trkpt lat="42.641303027048707" lon="2.503990978002548">
        <ele>265.94</ele>
        <time>2025-05-15T08:30:02Z</time>
      </trkpt>
      <trkpt lat="42.64113899320364" lon="2.504091979935765">
        <ele>265.94</ele>
        <time>2025-05-15T08:30:03Z</time>
      </trkpt>
      <trkpt lat="42.640986023470759" lon="2.504203040152788">
        <ele>265.94</ele>
        <time>2025-05-15T08:30:04Z</time>
      </trkpt>
      <trkpt lat="42.640844034031034" lon="2.504316028207541">
        <ele>266.42000000000002</ele>
        <time>2025-05-15T08:30:05Z</time>
      </trkpt>
      <trkpt lat="42.640703972429037" lon="2.504430022090673">
        <ele>266.42000000000002</ele>
        <time>2025-05-15T08:30:06Z</time>
      </trkpt>
      <trkpt lat="42.640545973554254" lon="2.504496993497014">
        <ele>266.89999999999998</ele>
        <time>2025-05-15T08:30:07Z</time>
      </trkpt>
      <trkpt lat="42.640398032963276" lon="2.504496993497014">
        <ele>266.89999999999998</ele>
        <time>2025-05-15T08:30:08Z</time>
      </trkpt>
      <trkpt lat="42.64025897718966" lon="2.50448701903224">
        <ele>266.89999999999998</ele>
        <time>2025-05-15T08:30:09Z</time>
      </trkpt>
      <trkpt lat="42.640116987749934" lon="2.504422981292009">
        <ele>267.38</ele>
        <time>2025-05-15T08:30:10Z</time>
      </trkpt>
      <trkpt lat="42.639965023845434" lon="2.504352992400527">
        <ele>267.86000000000001</ele>
        <time>2025-05-15T08:30:11Z</time>
      </trkpt>
      <trkpt lat="42.638470027595758" lon="2.503786040470004">
        <ele>271.70999999999998</ele>
        <time>2025-05-15T08:30:20Z</time>
      </trkpt>
      <trkpt lat="42.637193966656923" lon="2.503294022753835">
        <ele>274.58999999999997</ele>
        <time>2025-05-15T08:30:28Z</time>
      </trkpt>
      <trkpt lat="42.637048037722707" lon="2.503252029418945">
        <ele>274.58999999999997</ele>
        <time>2025-05-15T08:30:29Z</time>
      </trkpt>
      <trkpt lat="42.636903030797839" lon="2.503167036920786">
        <ele>275.06999999999999</ele>
        <time>2025-05-15T08:30:30Z</time>
      </trkpt>
      <trkpt lat="42.636767998337746" lon="2.50304700806737">
        <ele>275.06999999999999</ele>
        <time>2025-05-15T08:30:31Z</time>
      </trkpt>
      <trkpt lat="42.636259971186519" lon="2.502523977309465">
        <ele>275.56</ele>
        <time>2025-05-15T08:30:35Z</time>
      </trkpt>
      <trkpt lat="42.636162992566824" lon="2.502387017011643">
        <ele>276.04000000000002</ele>
        <time>2025-05-15T08:30:36Z</time>
      </trkpt>
      <trkpt lat="42.636069031432271" lon="2.502263970673084">
        <ele>276.04000000000002</ele>
        <time>2025-05-15T08:30:37Z</time>
      </trkpt>
      <trkpt lat="42.63598202727735" lon="2.502155005931854">
        <ele>276.51999999999998</ele>
        <time>2025-05-15T08:30:38Z</time>
      </trkpt>
      <trkpt lat="42.635867027565837" lon="2.502089040353894">
        <ele>277</ele>
        <time>2025-05-15T08:30:39Z</time>
      </trkpt>
      <trkpt lat="42.635737024247646" lon="2.502066995948553">
        <ele>277.48000000000002</ele>
        <time>2025-05-15T08:30:40Z</time>
      </trkpt>
      <trkpt lat="42.635588999837637" lon="2.50205903314054">
        <ele>277.95999999999998</ele>
        <time>2025-05-15T08:30:41Z</time>
      </trkpt>
      <trkpt lat="42.635271996259689" lon="2.502073030918837">
        <ele>278.92000000000002</ele>
        <time>2025-05-15T08:30:43Z</time>
      </trkpt>
      <trkpt lat="42.634975025430322" lon="2.502122987061739">
        <ele>278.92000000000002</ele>
        <time>2025-05-15T08:30:45Z</time>
      </trkpt>
      <trkpt lat="42.63482297770679" lon="2.502111000940204">
        <ele>278.92000000000002</ele>
        <time>2025-05-15T08:30:46Z</time>
      </trkpt>
      <trkpt lat="42.634666990488768" lon="2.502054003998637">
        <ele>278.92000000000002</ele>
        <time>2025-05-15T08:30:47Z</time>
      </trkpt>
      <trkpt lat="42.634185031056404" lon="2.501878989860416">
        <ele>278.92000000000002</ele>
        <time>2025-05-15T08:30:50Z</time>
      </trkpt>
      <trkpt lat="42.634044969454408" lon="2.50175803899765">
        <ele>279.39999999999998</ele>
        <time>2025-05-15T08:30:51Z</time>
      </trkpt>
      <trkpt lat="42.63389996252954" lon="2.501632981002331">
        <ele>279.88</ele>
        <time>2025-05-15T08:30:52Z</time>
      </trkpt>
      <trkpt lat="42.633751016110182" lon="2.501503983512521">
        <ele>280.36000000000001</ele>
        <time>2025-05-15T08:30:53Z</time>
      </trkpt>
      <trkpt lat="42.63359896838665" lon="2.50137297436595">
        <ele>280.83999999999997</ele>
        <time>2025-05-15T08:30:54Z</time>
      </trkpt>
      <trkpt lat="42.632426004856825" lon="2.500395979732275">
        <ele>282.27999999999997</ele>
        <time>2025-05-15T08:31:02Z</time>
      </trkpt>
      <trkpt lat="42.632317962124944" lon="2.50027603469789">
        <ele>281.80000000000001</ele>
        <time>2025-05-15T08:31:03Z</time>
      </trkpt>
      <trkpt lat="42.632198017090559" lon="2.50019003637135">
        <ele>281.31999999999999</ele>
        <time>2025-05-15T08:31:04Z</time>
      </trkpt>
      <trkpt lat="42.632057033479214" lon="2.500150976702571">
        <ele>280.83999999999997</ele>
        <time>2025-05-15T08:31:05Z</time>
      </trkpt>
      <trkpt lat="42.631885958835483" lon="2.50014896504581">
        <ele>280.36000000000001</ele>
        <time>2025-05-15T08:31:06Z</time>
      </trkpt>
      <trkpt lat="42.631703987717628" lon="2.500161034986377">
        <ele>279.39999999999998</ele>
        <time>2025-05-15T08:31:07Z</time>
      </trkpt>
      <trkpt lat="42.631035028025508" lon="2.500199005007744">
        <ele>275.56</ele>
        <time>2025-05-15T08:31:11Z</time>
      </trkpt>
      <trkpt lat="42.630862025544047" lon="2.500139996409416">
        <ele>275.06999999999999</ele>
        <time>2025-05-15T08:31:12Z</time>
      </trkpt>
      <trkpt lat="42.62977397069335" lon="2.499764990061522">
        <ele>273.14999999999998</ele>
        <time>2025-05-15T08:31:18Z</time>
      </trkpt>
      <trkpt lat="42.629167959094048" lon="2.499557035043836">
        <ele>268.82999999999998</ele>
        <time>2025-05-15T08:31:23Z</time>
      </trkpt>
      <trkpt lat="42.628880962729454" lon="2.499483022838831">
        <ele>266.89999999999998</ele>
        <time>2025-05-15T08:31:26Z</time>
      </trkpt>
      <trkpt lat="42.628765963017941" lon="2.499459972605109">
        <ele>266.42000000000002</ele>
        <time>2025-05-15T08:31:27Z</time>
      </trkpt>
      <trkpt lat="42.627714034169912" lon="2.499250005930662">
        <ele>266.89999999999998</ele>
        <time>2025-05-15T08:31:35Z</time>
      </trkpt>
      <trkpt lat="42.627214975655079" lon="2.499197032302618">
        <ele>266.89999999999998</ele>
        <time>2025-05-15T08:31:39Z</time>
      </trkpt>
      <trkpt lat="42.627077009528875" lon="2.499221004545689">
        <ele>266.89999999999998</ele>
        <time>2025-05-15T08:31:40Z</time>
      </trkpt>
      <trkpt lat="42.626947006210685" lon="2.499268027022481">
        <ele>266.89999999999998</ele>
        <time>2025-05-15T08:31:41Z</time>
      </trkpt>
      <trkpt lat="42.626801999285817" lon="2.499346984550357">
        <ele>267.38</ele>
        <time>2025-05-15T08:31:42Z</time>
      </trkpt>
      <trkpt lat="42.62667803093791" lon="2.499465001747012">
        <ele>267.38</ele>
        <time>2025-05-15T08:31:43Z</time>
      </trkpt>
      <trkpt lat="42.625664994120598" lon="2.500421041622758">
        <ele>268.82999999999998</ele>
        <time>2025-05-15T08:31:50Z</time>
      </trkpt>
      <trkpt lat="42.624925961717963" lon="2.50092102214694">
        <ele>272.19</ele>
        <time>2025-05-15T08:31:55Z</time>
      </trkpt>
      <trkpt lat="42.624771986156702" lon="2.50096402131021">
        <ele>272.67000000000002</ele>
        <time>2025-05-15T08:31:56Z</time>
      </trkpt>
      <trkpt lat="42.62463703751564" lon="2.501001991331577">
        <ele>273.14999999999998</ele>
        <time>2025-05-15T08:31:57Z</time>
      </trkpt>
      <trkpt lat="42.624449031427503" lon="2.501094024628401">
        <ele>273.63</ele>
        <time>2025-05-15T08:31:59Z</time>
      </trkpt>
      <trkpt lat="42.624389017000794" lon="2.501129982993007">
        <ele>274.11000000000001</ele>
        <time>2025-05-15T08:32:00Z</time>
      </trkpt>
      <trkpt lat="42.624352974817157" lon="2.501181028783321">
        <ele>274.58999999999997</ele>
        <time>2025-05-15T08:32:01Z</time>
      </trkpt>
      <trkpt lat="42.624340988695621" lon="2.5012650154531">
        <ele>274.58999999999997</ele>
        <time>2025-05-15T08:32:02Z</time>
      </trkpt>
      <trkpt lat="42.624325985088944" lon="2.50137398019433">
        <ele>275.06999999999999</ele>
        <time>2025-05-15T08:32:03Z</time>
      </trkpt>
      <trkpt lat="42.624308969825506" lon="2.501500966027379">
        <ele>275.56</ele>
        <time>2025-05-15T08:32:04Z</time>
      </trkpt>
      <trkpt lat="42.624290026724339" lon="2.501635998487473">
        <ele>275.56</ele>
        <time>2025-05-15T08:32:05Z</time>
      </trkpt>
      <trkpt lat="42.624260019510984" lon="2.501789974048734">
        <ele>275.56</ele>
        <time>2025-05-15T08:32:06Z</time>
      </trkpt>
      <trkpt lat="42.62418600730598" lon="2.501915032044053">
        <ele>276.04000000000002</ele>
        <time>2025-05-15T08:32:07Z</time>
      </trkpt>
      <trkpt lat="42.624105960130692" lon="2.502050986513495">
        <ele>276.51999999999998</ele>
        <time>2025-05-15T08:32:08Z</time>
      </trkpt>
      <trkpt lat="42.623683009296656" lon="2.502613998949528">
        <ele>276.51999999999998</ele>
        <time>2025-05-15T08:32:13Z</time>
      </trkpt>
      <trkpt lat="42.62360698543489" lon="2.502676025032997">
        <ele>277</ele>
        <time>2025-05-15T08:32:14Z</time>
      </trkpt>
      <trkpt lat="42.623509000986814" lon="2.502684993669391">
        <ele>277</ele>
        <time>2025-05-15T08:32:15Z</time>
      </trkpt>
      <trkpt lat="42.623403975740075" lon="2.502672001719475">
        <ele>277</ele>
        <time>2025-05-15T08:32:16Z</time>
      </trkpt>
      <trkpt lat="42.623300962150097" lon="2.502659009769559">
        <ele>277.48000000000002</ele>
        <time>2025-05-15T08:32:17Z</time>
      </trkpt>
      <trkpt lat="42.623210018500686" lon="2.502653980627656">
        <ele>277.48000000000002</ele>
        <time>2025-05-15T08:32:18Z</time>
      </trkpt>
      <trkpt lat="42.623101975768805" lon="2.502664960920811">
        <ele>277.48000000000002</ele>
        <time>2025-05-15T08:32:19Z</time>
      </trkpt>
      <trkpt lat="42.622977001592517" lon="2.502693040296435">
        <ele>277.48000000000002</ele>
        <time>2025-05-15T08:32:20Z</time>
      </trkpt>
      <trkpt lat="42.622322039678693" lon="2.503023035824299">
        <ele>279.39999999999998</ele>
        <time>2025-05-15T08:32:25Z</time>
      </trkpt>
      <trkpt lat="42.622229000553489" lon="2.503137029707432">
        <ele>279.39999999999998</ele>
        <time>2025-05-15T08:32:26Z</time>
      </trkpt>
      <trkpt lat="42.622177032753825" lon="2.503309026360512">
        <ele>279.88</ele>
        <time>2025-05-15T08:32:27Z</time>
      </trkpt>
      <trkpt lat="42.621782999485731" lon="2.504827994853258">
        <ele>281.31999999999999</ele>
        <time>2025-05-15T08:32:34Z</time>
      </trkpt>
      <trkpt lat="42.621612008661032" lon="2.505397964268923">
        <ele>281.31999999999999</ele>
        <time>2025-05-15T08:32:37Z</time>
      </trkpt>
      <trkpt lat="42.621453003957868" lon="2.50577799975872">
        <ele>281.80000000000001</ele>
        <time>2025-05-15T08:32:39Z</time>
      </trkpt>
      <trkpt lat="42.621293999254704" lon="2.506158035248518">
        <ele>282.76999999999998</ele>
        <time>2025-05-15T08:32:41Z</time>
      </trkpt>
      <trkpt lat="42.621227027848363" lon="2.506284015253186">
        <ele>283.73000000000002</ele>
        <time>2025-05-15T08:32:42Z</time>
      </trkpt>
      <trkpt lat="42.621154021471739" lon="2.506412006914616">
        <ele>284.20999999999998</ele>
        <time>2025-05-15T08:32:43Z</time>
      </trkpt>
      <trkpt lat="42.620923016220331" lon="2.506604958325625">
        <ele>285.64999999999998</ele>
        <time>2025-05-15T08:32:45Z</time>
      </trkpt>
      <trkpt lat="42.619744017720222" lon="2.507550017908216">
        <ele>289.00999999999999</ele>
        <time>2025-05-15T08:32:53Z</time>
      </trkpt>
      <trkpt lat="42.618995010852814" lon="2.508055027574301">
        <ele>293.33999999999997</ele>
        <time>2025-05-15T08:32:59Z</time>
      </trkpt>
      <trkpt lat="42.618826031684875" lon="2.508169021457434">
        <ele>293.33999999999997</ele>
        <time>2025-05-15T08:33:01Z</time>
      </trkpt>
      <trkpt lat="42.618746990337968" lon="2.508215960115194">
        <ele>293.33999999999997</ele>
        <time>2025-05-15T08:33:02Z</time>
      </trkpt>
      <trkpt lat="42.617864962667227" lon="2.50861301086843">
        <ele>294.30000000000001</ele>
        <time>2025-05-15T08:33:11Z</time>
      </trkpt>
      <trkpt lat="42.617052001878619" lon="2.50921499915421">
        <ele>294.30000000000001</ele>
        <time>2025-05-15T08:33:19Z</time>
      </trkpt>
      <trkpt lat="42.616969021037221" lon="2.509282976388931">
        <ele>294.30000000000001</ele>
        <time>2025-05-15T08:33:20Z</time>
      </trkpt>
      <trkpt lat="42.616801969707012" lon="2.509424965828657">
        <ele>293.81999999999999</ele>
        <time>2025-05-15T08:33:22Z</time>
      </trkpt>
      <trkpt lat="42.616717983037233" lon="2.509497972205281">
        <ele>293.33999999999997</ele>
        <time>2025-05-15T08:33:23Z</time>
      </trkpt>
      <trkpt lat="42.616638019680977" lon="2.509567039087415">
        <ele>293.33999999999997</ele>
        <time>2025-05-15T08:33:24Z</time>
      </trkpt>
      <trkpt lat="42.616393016651273" lon="2.50992301851511">
        <ele>293.33999999999997</ele>
        <time>2025-05-15T08:33:28Z</time>
      </trkpt>
      <trkpt lat="42.616350017488003" lon="2.510029971599579">
        <ele>293.81999999999999</ele>
        <time>2025-05-15T08:33:29Z</time>
      </trkpt>
      <trkpt lat="42.61623996309936" lon="2.510325014591217">
        <ele>293.81999999999999</ele>
        <time>2025-05-15T08:33:32Z</time>
      </trkpt>
      <trkpt lat="42.616221019998193" lon="2.510429034009576">
        <ele>294.30000000000001</ele>
        <time>2025-05-15T08:33:33Z</time>
      </trkpt>
      <trkpt lat="42.616186989471316" lon="2.510607987642288">
        <ele>293.33999999999997</ele>
        <time>2025-05-15T08:33:35Z</time>
      </trkpt>
      <trkpt lat="42.616060003638268" lon="2.510980982333422">
        <ele>291.42000000000002</ele>
        <time>2025-05-15T08:33:42Z</time>
      </trkpt>
      <trkpt lat="42.616032008081675" lon="2.511019958183169">
        <ele>291.42000000000002</ele>
        <time>2025-05-15T08:33:43Z</time>
      </trkpt>
      <trkpt lat="42.615992026403546" lon="2.51102096401155">
        <ele>291.42000000000002</ele>
        <time>2025-05-15T08:33:44Z</time>
      </trkpt>
      <trkpt lat="42.615884989500046" lon="2.511024987325072">
        <ele>291.42000000000002</ele>
        <time>2025-05-15T08:33:46Z</time>
      </trkpt>
      <trkpt lat="42.615422978997231" lon="2.51104099676013">
        <ele>293.33999999999997</ele>
        <time>2025-05-15T08:33:54Z</time>
      </trkpt>
      <trkpt lat="42.615375034511089" lon="2.51104099676013">
        <ele>293.81999999999999</ele>
        <time>2025-05-15T08:33:55Z</time>
      </trkpt>
      <trkpt lat="42.615220975130796" lon="2.511100005358458">
        <ele>294.30000000000001</ele>
        <time>2025-05-15T08:33:58Z</time>
      </trkpt>
      <trkpt lat="42.615194991230965" lon="2.511183992028236">
        <ele>294.30000000000001</ele>
        <time>2025-05-15T08:33:59Z</time>
      </trkpt>
      <trkpt lat="42.615194991230965" lon="2.51121299341321">
        <ele>293.81999999999999</ele>
        <time>2025-05-15T08:34:00Z</time>
      </trkpt>
      <trkpt lat="42.615224998444319" lon="2.511254986748099">
        <ele>294.30000000000001</ele>
        <time>2025-05-15T08:34:01Z</time>
      </trkpt>
      <trkpt lat="42.615244025364518" lon="2.511281976476312">
        <ele>294.77999999999997</ele>
        <time>2025-05-15T08:34:02Z</time>
      </trkpt>
      <trkpt lat="42.615269003435969" lon="2.511318018659949">
        <ele>295.25999999999999</ele>
        <time>2025-05-15T08:34:03Z</time>
      </trkpt>
      <trkpt lat="42.615293981507421" lon="2.511353977024555">
        <ele>295.74000000000001</ele>
        <time>2025-05-15T08:34:04Z</time>
      </trkpt>
      <trkpt lat="42.615320971235633" lon="2.511391025036573">
        <ele>296.22000000000003</ele>
        <time>2025-05-15T08:34:05Z</time>
      </trkpt>
      <trkpt lat="42.615347038954496" lon="2.51142798922956">
        <ele>296.22000000000003</ele>
        <time>2025-05-15T08:34:06Z</time>
      </trkpt>
      <trkpt lat="42.615374028682709" lon="2.511466965079308">
        <ele>296.22000000000003</ele>
        <time>2025-05-15T08:34:07Z</time>
      </trkpt>
      <trkpt lat="42.615430019795895" lon="2.511546006426215">
        <ele>296.69999999999999</ele>
        <time>2025-05-15T08:34:09Z</time>
      </trkpt>
      <trkpt lat="42.615461032837629" lon="2.511578025296331">
        <ele>297.18000000000001</ele>
        <time>2025-05-15T08:34:10Z</time>
      </trkpt>
      <trkpt lat="42.615497997030616" lon="2.511578025296331">
        <ele>297.18000000000001</ele>
        <time>2025-05-15T08:34:11Z</time>
      </trkpt>
      <trkpt lat="42.615542002022266" lon="2.511576013639569">
        <ele>297.18000000000001</ele>
        <time>2025-05-15T08:34:12Z</time>
      </trkpt>
      <trkpt lat="42.615576032549143" lon="2.511558998376131">
        <ele>297.67000000000002</ele>
        <time>2025-05-15T08:34:13Z</time>
      </trkpt>
      <trkpt lat="42.615605033934116" lon="2.511543994769454">
        <ele>297.67000000000002</ele>
        <time>2025-05-15T08:34:14Z</time>
      </trkpt>
      <trkpt lat="42.615635963156819" lon="2.511528991162777">
        <ele>298.14999999999998</ele>
        <time>2025-05-15T08:34:15Z</time>
      </trkpt>
      <trkpt lat="42.615678962320089" lon="2.511507030576468">
        <ele>298.14999999999998</ele>
        <time>2025-05-15T08:34:16Z</time>
      </trkpt>
      <trkpt lat="42.615709975361824" lon="2.511492026969791">
        <ele>298.63</ele>
        <time>2025-05-15T08:34:17Z</time>
      </trkpt>
      <trkpt lat="42.615736965090036" lon="2.511527985334396">
        <ele>298.63</ele>
        <time>2025-05-15T08:34:18Z</time>
      </trkpt>
      <trkpt lat="42.615770995616913" lon="2.511572996154428">
        <ele>298.63</ele>
        <time>2025-05-15T08:34:19Z</time>
      </trkpt>
      <trkpt lat="42.615781975910068" lon="2.511627981439233">
        <ele>298.63</ele>
        <time>2025-05-15T08:34:20Z</time>
      </trkpt>
      <trkpt lat="42.615793962031603" lon="2.511695036664605">
        <ele>299.11000000000001</ele>
        <time>2025-05-15T08:34:21Z</time>
      </trkpt>
      <trkpt lat="42.615795973688364" lon="2.511752033606172">
        <ele>299.11000000000001</ele>
        <time>2025-05-15T08:34:22Z</time>
      </trkpt>
      <trkpt lat="42.615799997001886" lon="2.511825039982796">
        <ele>299.11000000000001</ele>
        <time>2025-05-15T08:34:23Z</time>
      </trkpt>
      <trkpt lat="42.615838972851634" lon="2.51192101277411">
        <ele>299.58999999999997</ele>
        <time>2025-05-15T08:34:24Z</time>
      </trkpt>
      <trkpt lat="42.615879960358143" lon="2.511951019987464">
        <ele>300.06999999999999</ele>
        <time>2025-05-15T08:34:25Z</time>
      </trkpt>
      <trkpt lat="42.615927988663316" lon="2.511984966695309">
        <ele>300.55000000000001</ele>
        <time>2025-05-15T08:34:26Z</time>
      </trkpt>
      <trkpt lat="42.61597802862525" lon="2.512020003050566">
        <ele>301.02999999999997</ele>
        <time>2025-05-15T08:34:27Z</time>
      </trkpt>
      <trkpt lat="42.616041982546449" lon="2.512036012485623">
        <ele>301.50999999999999</ele>
        <time>2025-05-15T08:34:28Z</time>
      </trkpt>
      <trkpt lat="42.616103002801538" lon="2.512045986950398">
        <ele>301.99000000000001</ele>
        <time>2025-05-15T08:34:29Z</time>
      </trkpt>
      <trkpt lat="42.616168968379498" lon="2.512055961415172">
        <ele>302.47000000000003</ele>
        <time>2025-05-15T08:34:30Z</time>
      </trkpt>
      <trkpt lat="42.616305006667972" lon="2.512061996385455">
        <ele>303.43000000000001</ele>
        <time>2025-05-15T08:34:32Z</time>
      </trkpt>
      <trkpt lat="42.61636502109468" lon="2.512049004435539">
        <ele>303.91000000000003</ele>
        <time>2025-05-15T08:34:33Z</time>
      </trkpt>
      <trkpt lat="42.616421012207866" lon="2.512036012485623">
        <ele>304.38999999999999</ele>
        <time>2025-05-15T08:34:34Z</time>
      </trkpt>
      <trkpt lat="42.616471974179149" lon="2.512024026364088">
        <ele>304.88</ele>
        <time>2025-05-15T08:34:35Z</time>
      </trkpt>
      <trkpt lat="42.616527965292335" lon="2.512010028585792">
        <ele>305.36000000000001</ele>
        <time>2025-05-15T08:34:36Z</time>
      </trkpt>
      <trkpt lat="42.616586973890662" lon="2.511997036635876">
        <ele>306.31999999999999</ele>
        <time>2025-05-15T08:34:37Z</time>
      </trkpt>
      <trkpt lat="42.61664598248899" lon="2.511983038857579">
        <ele>306.80000000000001</ele>
        <time>2025-05-15T08:34:38Z</time>
      </trkpt>
      <trkpt lat="42.616702979430556" lon="2.511969963088632">
        <ele>307.75999999999999</ele>
        <time>2025-05-15T08:34:39Z</time>
      </trkpt>
      <trkpt lat="42.616932978853583" lon="2.511910032480955">
        <ele>310.63999999999999</ele>
        <time>2025-05-15T08:34:43Z</time>
      </trkpt>
      <trkpt lat="42.616997016593814" lon="2.51187801361084">
        <ele>311.12</ele>
        <time>2025-05-15T08:34:44Z</time>
      </trkpt>
      <trkpt lat="42.617083014920354" lon="2.51183501444757">
        <ele>312.08999999999997</ele>
        <time>2025-05-15T08:34:45Z</time>
      </trkpt>
      <trkpt lat="42.617116961628199" lon="2.51179302111268">
        <ele>313.05000000000001</ele>
        <time>2025-05-15T08:34:46Z</time>
      </trkpt>
      <trkpt lat="42.617165995761752" lon="2.511732000857592">
        <ele>314.49000000000001</ele>
        <time>2025-05-15T08:34:47Z</time>
      </trkpt>
      <trkpt lat="42.617213018238544" lon="2.511671986430883">
        <ele>315.44999999999999</ele>
        <time>2025-05-15T08:34:48Z</time>
      </trkpt>
      <trkpt lat="42.617255011573434" lon="2.5116210244596">
        <ele>316.88999999999999</ele>
        <time>2025-05-15T08:34:49Z</time>
      </trkpt>
      <trkpt lat="42.617306979373097" lon="2.511585988104343">
        <ele>317.85000000000002</ele>
        <time>2025-05-15T08:34:50Z</time>
      </trkpt>
      <trkpt lat="42.617360036820173" lon="2.511550029739738">
        <ele>318.32999999999998</ele>
        <time>2025-05-15T08:34:51Z</time>
      </trkpt>
      <trkpt lat="42.61741703376174" lon="2.511535026133061">
        <ele>319.30000000000001</ele>
        <time>2025-05-15T08:34:52Z</time>
      </trkpt>
      <trkpt lat="42.617477970197797" lon="2.511535026133061">
        <ele>319.77999999999997</ele>
        <time>2025-05-15T08:34:53Z</time>
      </trkpt>
      <trkpt lat="42.61754896491766" lon="2.511548018082976">
        <ele>319.77999999999997</ele>
        <time>2025-05-15T08:34:54Z</time>
      </trkpt>
      <trkpt lat="42.617618031799793" lon="2.511603003367782">
        <ele>320.74000000000001</ele>
        <time>2025-05-15T08:34:55Z</time>
      </trkpt>
      <trkpt lat="42.617695983499289" lon="2.511667041108012">
        <ele>321.69999999999999</ele>
        <time>2025-05-15T08:34:56Z</time>
      </trkpt>
      <trkpt lat="42.617777036502957" lon="2.511753961443901">
        <ele>322.66000000000003</ele>
        <time>2025-05-15T08:34:57Z</time>
      </trkpt>
      <trkpt lat="42.617808971554041" lon="2.511870972812176">
        <ele>323.62</ele>
        <time>2025-05-15T08:34:58Z</time>
      </trkpt>
      <trkpt lat="42.617840990424156" lon="2.511985972523689">
        <ele>324.57999999999998</ele>
        <time>2025-05-15T08:34:59Z</time>
      </trkpt>
      <trkpt lat="42.618049029260874" lon="2.51267203129828">
        <ele>330.35000000000002</ele>
        <time>2025-05-15T08:35:05Z</time>
      </trkpt>
      <trkpt lat="42.618123963475227" lon="2.512746965512633">
        <ele>330.82999999999998</ele>
        <time>2025-05-15T08:35:06Z</time>
      </trkpt>
      <trkpt lat="42.6181910187006" lon="2.512814020738006">
        <ele>331.79000000000002</ele>
        <time>2025-05-15T08:35:07Z</time>
      </trkpt>
      <trkpt lat="42.618260001763701" lon="2.512883003801107">
        <ele>332.75</ele>
        <time>2025-05-15T08:35:08Z</time>
      </trkpt>
      <trkpt lat="42.618332002311945" lon="2.512942012399435">
        <ele>333.23000000000002</ele>
        <time>2025-05-15T08:35:09Z</time>
      </trkpt>
      <trkpt lat="42.618416994810104" lon="2.512981994077563">
        <ele>333.70999999999998</ele>
        <time>2025-05-15T08:35:10Z</time>
      </trkpt>
      <trkpt lat="42.618505004793406" lon="2.513023987412453">
        <ele>334.19999999999999</ele>
        <time>2025-05-15T08:35:11Z</time>
      </trkpt>
      <trkpt lat="42.619512006640434" lon="2.513568978756666">
        <ele>336.60000000000002</ele>
        <time>2025-05-15T08:35:21Z</time>
      </trkpt>
      <trkpt lat="42.619615020230412" lon="2.513637961819768">
        <ele>336.60000000000002</ele>
        <time>2025-05-15T08:35:22Z</time>
      </trkpt>
      <trkpt lat="42.619737982749939" lon="2.513657994568348">
        <ele>336.60000000000002</ele>
        <time>2025-05-15T08:35:23Z</time>
      </trkpt>
      <trkpt lat="42.619850970804691" lon="2.513677021488547">
        <ele>336.60000000000002</ele>
        <time>2025-05-15T08:35:24Z</time>
      </trkpt>
      <trkpt lat="42.620001006871462" lon="2.513701999559999">
        <ele>337.07999999999998</ele>
        <time>2025-05-15T08:35:25Z</time>
      </trkpt>
      <trkpt lat="42.620099997147918" lon="2.513678027316928">
        <ele>336.60000000000002</ele>
        <time>2025-05-15T08:35:26Z</time>
      </trkpt>
      <trkpt lat="42.620367966592312" lon="2.513613989576697">
        <ele>335.63999999999999</ele>
        <time>2025-05-15T08:35:28Z</time>
      </trkpt>
      <trkpt lat="42.620511967688799" lon="2.513579037040472">
        <ele>335.63999999999999</ele>
        <time>2025-05-15T08:35:29Z</time>
      </trkpt>
      <trkpt lat="42.620668960735202" lon="2.513610972091556">
        <ele>335.16000000000003</ele>
        <time>2025-05-15T08:35:30Z</time>
      </trkpt>
      <trkpt lat="42.620812961831689" lon="2.513652965426445">
        <ele>334.68000000000001</ele>
        <time>2025-05-15T08:35:31Z</time>
      </trkpt>
      <trkpt lat="42.620960986241698" lon="2.513696970418096">
        <ele>334.68000000000001</ele>
        <time>2025-05-15T08:35:32Z</time>
      </trkpt>
      <trkpt lat="42.622061027213931" lon="2.514024032279849">
        <ele>332.26999999999998</ele>
        <time>2025-05-15T08:35:39Z</time>
      </trkpt>
      <trkpt lat="42.622159011662006" lon="2.514109024778009">
        <ele>332.75</ele>
        <time>2025-05-15T08:35:40Z</time>
      </trkpt>
      <trkpt lat="42.622234029695392" lon="2.514179013669491">
        <ele>332.75</ele>
        <time>2025-05-15T08:35:41Z</time>
      </trkpt>
      <trkpt lat="42.622267976403236" lon="2.514299964532256">
        <ele>333.23000000000002</ele>
        <time>2025-05-15T08:35:42Z</time>
      </trkpt>
      <trkpt lat="42.622308041900396" lon="2.514444971457124">
        <ele>333.70999999999998</ele>
        <time>2025-05-15T08:35:43Z</time>
      </trkpt>
      <trkpt lat="42.622342994436622" lon="2.514618979766965">
        <ele>334.19999999999999</ele>
        <time>2025-05-15T08:35:44Z</time>
      </trkpt>
      <trkpt lat="42.622352968901396" lon="2.514812014997006">
        <ele>334.19999999999999</ele>
        <time>2025-05-15T08:35:45Z</time>
      </trkpt>
      <trkpt lat="42.622365038841963" lon="2.515019970014691">
        <ele>334.68000000000001</ele>
        <time>2025-05-15T08:35:46Z</time>
      </trkpt>
      <trkpt lat="42.622484983876348" lon="2.517264978960156">
        <ele>335.63999999999999</ele>
        <time>2025-05-15T08:35:57Z</time>
      </trkpt>
      <trkpt lat="42.622520020231605" lon="2.518107024952769">
        <ele>335.16000000000003</ele>
        <time>2025-05-15T08:36:02Z</time>
      </trkpt>
      <trkpt lat="42.622524965554476" lon="2.518223030492663">
        <ele>335.16000000000003</ele>
        <time>2025-05-15T08:36:03Z</time>
      </trkpt>
      <trkpt lat="42.622528988867998" lon="2.518311962485313">
        <ele>335.63999999999999</ele>
        <time>2025-05-15T08:36:04Z</time>
      </trkpt>
      <trkpt lat="42.622481966391206" lon="2.518417993560433">
        <ele>335.63999999999999</ele>
        <time>2025-05-15T08:36:05Z</time>
      </trkpt>
      <trkpt lat="42.622406026348472" lon="2.518442971631885">
        <ele>336.12</ele>
        <time>2025-05-15T08:36:06Z</time>
      </trkpt>
      <trkpt lat="42.622310975566506" lon="2.518473984673619">
        <ele>336.60000000000002</ele>
        <time>2025-05-15T08:36:07Z</time>
      </trkpt>
      <trkpt lat="42.622199999168515" lon="2.518510026857257">
        <ele>337.07999999999998</ele>
        <time>2025-05-15T08:36:08Z</time>
      </trkpt>
      <trkpt lat="42.621190985664725" lon="2.518815966323018">
        <ele>341.41000000000003</ele>
        <time>2025-05-15T08:36:16Z</time>
      </trkpt>
      <trkpt lat="42.619939986616373" lon="2.518832981586456">
        <ele>347.17000000000002</ele>
        <time>2025-05-15T08:36:25Z</time>
      </trkpt>
      <trkpt lat="42.618227982893586" lon="2.518970025703311">
        <ele>358.23000000000002</ele>
        <time>2025-05-15T08:36:36Z</time>
      </trkpt>
      <trkpt lat="42.618108037859201" lon="2.518988968804479">
        <ele>359.19</ele>
        <time>2025-05-15T08:36:37Z</time>
      </trkpt>
      <trkpt lat="42.618003012612462" lon="2.518975976854563">
        <ele>359.67000000000002</ele>
        <time>2025-05-15T08:36:38Z</time>
      </trkpt>
      <trkpt lat="42.617919025942683" lon="2.518888972699642">
        <ele>360.63</ele>
        <time>2025-05-15T08:36:39Z</time>
      </trkpt>
      <trkpt lat="42.617818024009466" lon="2.518785037100315">
        <ele>361.11000000000001</ele>
        <time>2025-05-15T08:36:40Z</time>
      </trkpt>
      <trkpt lat="42.617706041783094" lon="2.518669031560421">
        <ele>362.06999999999999</ele>
        <time>2025-05-15T08:36:41Z</time>
      </trkpt>
      <trkpt lat="42.616684036329389" lon="2.517586005851626">
        <ele>368.80000000000001</ele>
        <time>2025-05-15T08:36:50Z</time>
      </trkpt>
      <trkpt lat="42.616012981161475" lon="2.517247963696718">
        <ele>372.64999999999998</ele>
        <time>2025-05-15T08:36:55Z</time>
      </trkpt>
      <trkpt lat="42.615880966186523" lon="2.517218962311745">
        <ele>373.13</ele>
        <time>2025-05-15T08:36:56Z</time>
      </trkpt>
      <trkpt lat="42.615739982575178" lon="2.517202030867338">
        <ele>374.08999999999997</ele>
        <time>2025-05-15T08:36:57Z</time>
      </trkpt>
      <trkpt lat="42.61559103615582" lon="2.517209993675351">
        <ele>375.05000000000001</ele>
        <time>2025-05-15T08:36:58Z</time>
      </trkpt>
      <trkpt lat="42.615433037281036" lon="2.517218040302396">
        <ele>375.52999999999997</ele>
        <time>2025-05-15T08:36:59Z</time>
      </trkpt>
      <trkpt lat="42.615265985950828" lon="2.517251987010241">
        <ele>376.49000000000001</ele>
        <time>2025-05-15T08:37:00Z</time>
      </trkpt>
      <trkpt lat="42.613589018583298" lon="2.517653983086348">
        <ele>387.55000000000001</ele>
        <time>2025-05-15T08:37:11Z</time>
      </trkpt>
      <trkpt lat="42.613480975851417" lon="2.517667980864644">
        <ele>388.02999999999997</ele>
        <time>2025-05-15T08:37:12Z</time>
      </trkpt>
      <trkpt lat="42.613395983353257" lon="2.517627999186516">
        <ele>388.99000000000001</ele>
        <time>2025-05-15T08:37:13Z</time>
      </trkpt>
      <trkpt lat="42.613317025825381" lon="2.517571002244949">
        <ele>389.47000000000003</ele>
        <time>2025-05-15T08:37:14Z</time>
      </trkpt>
      <trkpt lat="42.613262962549925" lon="2.517491960898042">
        <ele>389.94999999999999</ele>
        <time>2025-05-15T08:37:15Z</time>
      </trkpt>
      <trkpt lat="42.613201020285487" lon="2.517387019470334">
        <ele>390.43000000000001</ele>
        <time>2025-05-15T08:37:16Z</time>
      </trkpt>
      <trkpt lat="42.612816961482167" lon="2.516717975959182">
        <ele>393.31999999999999</ele>
        <time>2025-05-15T08:37:21Z</time>
      </trkpt>
      <trkpt lat="42.612760970368981" lon="2.516550002619624">
        <ele>393.80000000000001</ele>
        <time>2025-05-15T08:37:22Z</time>
      </trkpt>
      <trkpt lat="42.612659968435764" lon="2.516245990991592">
        <ele>395.24000000000001</ele>
        <time>2025-05-15T08:37:24Z</time>
      </trkpt>
      <trkpt lat="42.612594002857804" lon="2.516125962138176">
        <ele>395.72000000000003</ele>
        <time>2025-05-15T08:37:25Z</time>
      </trkpt>
      <trkpt lat="42.611738964915276" lon="2.514960039407015">
        <ele>399.56999999999999</ele>
        <time>2025-05-15T08:37:34Z</time>
      </trkpt>
      <trkpt lat="42.611678028479218" lon="2.514813020825386">
        <ele>400.05000000000001</ele>
        <time>2025-05-15T08:37:35Z</time>
      </trkpt>
      <trkpt lat="42.611641986295581" lon="2.514639012515545">
        <ele>400.05000000000001</ele>
        <time>2025-05-15T08:37:36Z</time>
      </trkpt>
      <trkpt lat="42.611605022102594" lon="2.514461986720562">
        <ele>400.05000000000001</ele>
        <time>2025-05-15T08:37:37Z</time>
      </trkpt>
      <trkpt lat="42.611569985747337" lon="2.514296025037766">
        <ele>400.05000000000001</ele>
        <time>2025-05-15T08:37:38Z</time>
      </trkpt>
      <trkpt lat="42.611537966877222" lon="2.514142971485853">
        <ele>400.05000000000001</ele>
        <time>2025-05-15T08:37:39Z</time>
      </trkpt>
      <trkpt lat="42.611504020169377" lon="2.513981033116579">
        <ele>400.05000000000001</ele>
        <time>2025-05-15T08:37:40Z</time>
      </trkpt>
      <trkpt lat="42.611436964944005" lon="2.513851029798389">
        <ele>400.05000000000001</ele>
        <time>2025-05-15T08:37:41Z</time>
      </trkpt>
      <trkpt lat="42.611267985776067" lon="2.513526985421777">
        <ele>400.05000000000001</ele>
        <time>2025-05-15T08:37:43Z</time>
      </trkpt>
      <trkpt lat="42.610964979976416" lon="2.512944024056196">
        <ele>400.05000000000001</ele>
        <time>2025-05-15T08:37:47Z</time>
      </trkpt>
      <trkpt lat="42.610860960558057" lon="2.512860037386417">
        <ele>400.05000000000001</ele>
        <time>2025-05-15T08:37:48Z</time>
      </trkpt>
      <trkpt lat="42.610753001645207" lon="2.512799017131329">
        <ele>400.05000000000001</ele>
        <time>2025-05-15T08:37:49Z</time>
      </trkpt>
      <trkpt lat="42.610638001933694" lon="2.512734979391098">
        <ele>400.52999999999997</ele>
        <time>2025-05-15T08:37:50Z</time>
      </trkpt>
      <trkpt lat="42.610510010272264" lon="2.512688962742686">
        <ele>401.00999999999999</ele>
        <time>2025-05-15T08:37:51Z</time>
      </trkpt>
      <trkpt lat="42.610382018610835" lon="2.51265300437808">
        <ele>401.49000000000001</ele>
        <time>2025-05-15T08:37:52Z</time>
      </trkpt>
      <trkpt lat="42.609738958999515" lon="2.512401966378093">
        <ele>404.85000000000002</ele>
        <time>2025-05-15T08:37:57Z</time>
      </trkpt>
      <trkpt lat="42.609607027843595" lon="2.512313034385443">
        <ele>405.81</ele>
        <time>2025-05-15T08:37:58Z</time>
      </trkpt>
      <trkpt lat="42.609096989035606" lon="2.511956971138716">
        <ele>408.69999999999999</ele>
        <time>2025-05-15T08:38:02Z</time>
      </trkpt>
      <trkpt lat="42.608989030122757" lon="2.511831996962428">
        <ele>408.69999999999999</ele>
        <time>2025-05-15T08:38:03Z</time>
      </trkpt>
      <trkpt lat="42.60846097022295" lon="2.51116999424994">
        <ele>410.13999999999999</ele>
        <time>2025-05-15T08:38:08Z</time>
      </trkpt>
      <trkpt lat="42.608177997171879" lon="2.510650986805558">
        <ele>410.62</ele>
        <time>2025-05-15T08:38:12Z</time>
      </trkpt>
      <trkpt lat="42.608108008280396" lon="2.510592984035611">
        <ele>410.62</ele>
        <time>2025-05-15T08:38:13Z</time>
      </trkpt>
      <trkpt lat="42.608040031045675" lon="2.510571023449302">
        <ele>411.10000000000002</ele>
        <time>2025-05-15T08:38:14Z</time>
      </trkpt>
      <trkpt lat="42.607968030497432" lon="2.510583009570837">
        <ele>411.10000000000002</ele>
        <time>2025-05-15T08:38:15Z</time>
      </trkpt>
      <trkpt lat="42.607912039384246" lon="2.510605975985527">
        <ele>410.62</ele>
        <time>2025-05-15T08:38:16Z</time>
      </trkpt>
      <trkpt lat="42.607864011079073" lon="2.510689962655306">
        <ele>410.62</ele>
        <time>2025-05-15T08:38:17Z</time>
      </trkpt>
      <trkpt lat="42.607837021350861" lon="2.51078300178051">
        <ele>410.62</ele>
        <time>2025-05-15T08:38:18Z</time>
      </trkpt>
      <trkpt lat="42.607843978330493" lon="2.51089196652174">
        <ele>410.62</ele>
        <time>2025-05-15T08:38:19Z</time>
      </trkpt>
      <trkpt lat="42.607852024957538" lon="2.51101803034544">
        <ele>410.62</ele>
        <time>2025-05-15T08:38:20Z</time>
      </trkpt>
      <trkpt lat="42.607870968058705" lon="2.511312989518046">
        <ele>410.62</ele>
        <time>2025-05-15T08:38:22Z</time>
      </trkpt>
      <trkpt lat="42.607872979715466" lon="2.511466965079308">
        <ele>410.62</ele>
        <time>2025-05-15T08:38:23Z</time>
      </trkpt>
      <trkpt lat="42.607852024957538" lon="2.511635022237897">
        <ele>410.62</ele>
        <time>2025-05-15T08:38:24Z</time>
      </trkpt>
      <trkpt lat="42.607814976945519" lon="2.511810036376119">
        <ele>410.62</ele>
        <time>2025-05-15T08:38:25Z</time>
      </trkpt>
      <trkpt lat="42.607737025246024" lon="2.511960994452238">
        <ele>410.62</ele>
        <time>2025-05-15T08:38:26Z</time>
      </trkpt>
      <trkpt lat="42.607656978070736" lon="2.51211698167026">
        <ele>410.62</ele>
        <time>2025-05-15T08:38:27Z</time>
      </trkpt>
      <trkpt lat="42.60729999281466" lon="2.512704972177744">
        <ele>411.57999999999998</ele>
        <time>2025-05-15T08:38:31Z</time>
      </trkpt>
      <trkpt lat="42.606494994834065" lon="2.513539977371693">
        <ele>413.5</ele>
        <time>2025-05-15T08:38:38Z</time>
      </trkpt>
      <trkpt lat="42.606372032314539" lon="2.513593034818769">
        <ele>413.5</ele>
        <time>2025-05-15T08:38:39Z</time>
      </trkpt>
      <trkpt lat="42.606253009289503" lon="2.513643996790052">
        <ele>413.5</ele>
        <time>2025-05-15T08:38:40Z</time>
      </trkpt>
      <trkpt lat="42.60605301707983" lon="2.513729995116592">
        <ele>413.01999999999998</ele>
        <time>2025-05-15T08:38:42Z</time>
      </trkpt>
      <trkpt lat="42.605968024581671" lon="2.513766037300229">
        <ele>413.01999999999998</ele>
        <time>2025-05-15T08:38:43Z</time>
      </trkpt>
      <trkpt lat="42.605916978791356" lon="2.513852035626769">
        <ele>413.01999999999998</ele>
        <time>2025-05-15T08:38:44Z</time>
      </trkpt>
      <trkpt lat="42.605865010991693" lon="2.513940967619419">
        <ele>413.01999999999998</ele>
        <time>2025-05-15T08:38:45Z</time>
      </trkpt>
      <trkpt lat="42.605813965201378" lon="2.51402797177434">
        <ele>412.54000000000002</ele>
        <time>2025-05-15T08:38:46Z</time>
      </trkpt>
      <trkpt lat="42.605765014886856" lon="2.514111958444119">
        <ele>412.06</ele>
        <time>2025-05-15T08:38:47Z</time>
      </trkpt>
      <trkpt lat="42.605702988803387" lon="2.514160992577672">
        <ele>412.06</ele>
        <time>2025-05-15T08:38:48Z</time>
      </trkpt>
      <trkpt lat="42.60564599186182" lon="2.514195023104549">
        <ele>412.06</ele>
        <time>2025-05-15T08:38:49Z</time>
      </trkpt>
      <trkpt lat="42.60560299269855" lon="2.514158980920911">
        <ele>411.57999999999998</ele>
        <time>2025-05-15T08:38:50Z</time>
      </trkpt>
      <trkpt lat="42.605548007413745" lon="2.51411397010088">
        <ele>411.57999999999998</ele>
        <time>2025-05-15T08:38:51Z</time>
      </trkpt>
      <trkpt lat="42.605506014078856" lon="2.514053033664823">
        <ele>411.57999999999998</ele>
        <time>2025-05-15T08:38:52Z</time>
      </trkpt>
      <trkpt lat="42.605467960238457" lon="2.513939961791039">
        <ele>411.10000000000002</ele>
        <time>2025-05-15T08:38:53Z</time>
      </trkpt>
      <trkpt lat="42.605393026024103" lon="2.513671992346644">
        <ele>411.57999999999998</ele>
        <time>2025-05-15T08:38:55Z</time>
      </trkpt>
      <trkpt lat="42.605368969962001" lon="2.513534026220441">
        <ele>412.06</ele>
        <time>2025-05-15T08:38:56Z</time>
      </trkpt>
      <trkpt lat="42.60534399189055" lon="2.513397987931967">
        <ele>412.54000000000002</ele>
        <time>2025-05-15T08:38:57Z</time>
      </trkpt>
      <trkpt lat="42.60532102547586" lon="2.513265972957015">
        <ele>413.01999999999998</ele>
        <time>2025-05-15T08:38:58Z</time>
      </trkpt>
      <trkpt lat="42.605295041576028" lon="2.513142004609108">
        <ele>412.54000000000002</ele>
        <time>2025-05-15T08:38:59Z</time>
      </trkpt>
      <trkpt lat="42.605253970250487" lon="2.513010995462537">
        <ele>412.54000000000002</ele>
        <time>2025-05-15T08:39:00Z</time>
      </trkpt>
      <trkpt lat="42.60502003133297" lon="2.512268023565412">
        <ele>413.5</ele>
        <time>2025-05-15T08:39:05Z</time>
      </trkpt>
      <trkpt lat="42.604846023023129" lon="2.511714985594153">
        <ele>414.94999999999999</ele>
        <time>2025-05-15T08:39:09Z</time>
      </trkpt>
      <trkpt lat="42.60480897501111" lon="2.511598980054259">
        <ele>415.91000000000003</ele>
        <time>2025-05-15T08:39:10Z</time>
      </trkpt>
      <trkpt lat="42.604735968634486" lon="2.5115139875561">
        <ele>416.38999999999999</ele>
        <time>2025-05-15T08:39:11Z</time>
      </trkpt>
      <trkpt lat="42.60465701110661" lon="2.511437041684985">
        <ele>416.87</ele>
        <time>2025-05-15T08:39:12Z</time>
      </trkpt>
      <trkpt lat="42.604562966153026" lon="2.511390019208193">
        <ele>417.35000000000002</ele>
        <time>2025-05-15T08:39:13Z</time>
      </trkpt>
      <trkpt lat="42.604465987533331" lon="2.511373003944755">
        <ele>417.82999999999998</ele>
        <time>2025-05-15T08:39:14Z</time>
      </trkpt>
      <trkpt lat="42.604357022792101" lon="2.511397982016206">
        <ele>418.31</ele>
        <time>2025-05-15T08:39:15Z</time>
      </trkpt>
      <trkpt lat="42.604237999767065" lon="2.511423965916038">
        <ele>418.79000000000002</ele>
        <time>2025-05-15T08:39:16Z</time>
      </trkpt>
      <trkpt lat="42.604114031419158" lon="2.511452967301011">
        <ele>419.26999999999998</ele>
        <time>2025-05-15T08:39:17Z</time>
      </trkpt>
      <trkpt lat="42.603992996737361" lon="2.511499989777803">
        <ele>419.26999999999998</ele>
        <time>2025-05-15T08:39:18Z</time>
      </trkpt>
      <trkpt lat="42.603876991197467" lon="2.51157701946795">
        <ele>420.23000000000002</ele>
        <time>2025-05-15T08:39:19Z</time>
      </trkpt>
      <trkpt lat="42.60375696234405" lon="2.511656982824206">
        <ele>420.70999999999998</ele>
        <time>2025-05-15T08:39:20Z</time>
      </trkpt>
      <trkpt lat="42.603638023138046" lon="2.511736024171114">
        <ele>420.70999999999998</ele>
        <time>2025-05-15T08:39:21Z</time>
      </trkpt>
      <trkpt lat="42.603531992062926" lon="2.51183501444757">
        <ele>421.19</ele>
        <time>2025-05-15T08:39:22Z</time>
      </trkpt>
      <trkpt lat="42.603439036756754" lon="2.51194498501718">
        <ele>421.68000000000001</ele>
        <time>2025-05-15T08:39:23Z</time>
      </trkpt>
      <trkpt lat="42.603349015116692" lon="2.512053027749062">
        <ele>422.16000000000003</ele>
        <time>2025-05-15T08:39:24Z</time>
      </trkpt>
      <trkpt lat="42.603242984041572" lon="2.512178001925349">
        <ele>422.63999999999999</ele>
        <time>2025-05-15T08:39:25Z</time>
      </trkpt>
      <trkpt lat="42.603184981271625" lon="2.512325020506978">
        <ele>423.12</ele>
        <time>2025-05-15T08:39:26Z</time>
      </trkpt>
      <trkpt lat="42.603120021522045" lon="2.512488970533013">
        <ele>424.07999999999998</ele>
        <time>2025-05-15T08:39:27Z</time>
      </trkpt>
      <trkpt lat="42.603052966296673" lon="2.512659961357713">
        <ele>425.04000000000002</ele>
        <time>2025-05-15T08:39:28Z</time>
      </trkpt>
      <trkpt lat="42.602832019329071" lon="2.513127001002431">
        <ele>427.44</ele>
        <time>2025-05-15T08:39:31Z</time>
      </trkpt>
      <trkpt lat="42.602749038487673" lon="2.513250969350338">
        <ele>428.39999999999998</ele>
        <time>2025-05-15T08:39:32Z</time>
      </trkpt>
      <trkpt lat="42.602639989927411" lon="2.513350965455174">
        <ele>428.88999999999999</ele>
        <time>2025-05-15T08:39:33Z</time>
      </trkpt>
      <trkpt lat="42.601963989436626" lon="2.513943985104561">
        <ele>434.17000000000002</ele>
        <time>2025-05-15T08:39:39Z</time>
      </trkpt>
      <trkpt lat="42.601851001381874" lon="2.514000982046127">
        <ele>435.13</ele>
        <time>2025-05-15T08:39:40Z</time>
      </trkpt>
      <trkpt lat="42.601741030812263" lon="2.514055967330933">
        <ele>436.57999999999998</ele>
        <time>2025-05-15T08:39:41Z</time>
      </trkpt>
      <trkpt lat="42.601637011393905" lon="2.514078011736274">
        <ele>437.54000000000002</ele>
        <time>2025-05-15T08:39:42Z</time>
      </trkpt>
      <trkpt lat="42.601538021117449" lon="2.514054039493203">
        <ele>438.5</ele>
        <time>2025-05-15T08:39:43Z</time>
      </trkpt>
      <trkpt lat="42.601455040276051" lon="2.513990001752973">
        <ele>439.94</ele>
        <time>2025-05-15T08:39:44Z</time>
      </trkpt>
      <trkpt lat="42.601379016414285" lon="2.513905009254813">
        <ele>440.89999999999998</ele>
        <time>2025-05-15T08:39:45Z</time>
      </trkpt>
      <trkpt lat="42.601311961188912" lon="2.513830997049809">
        <ele>441.86000000000001</ele>
        <time>2025-05-15T08:39:46Z</time>
      </trkpt>
      <trkpt lat="42.601210037246346" lon="2.513763019815087">
        <ele>442.81999999999999</ele>
        <time>2025-05-15T08:39:47Z</time>
      </trkpt>
      <trkpt lat="42.601110963150859" lon="2.513696970418096">
        <ele>443.79000000000002</ele>
        <time>2025-05-15T08:39:48Z</time>
      </trkpt>
      <trkpt lat="42.601014990359545" lon="2.513633016496897">
        <ele>444.26999999999998</ele>
        <time>2025-05-15T08:39:49Z</time>
      </trkpt>
      <trkpt lat="42.600667979568243" lon="2.513402011245489">
        <ele>447.63</ele>
        <time>2025-05-15T08:39:53Z</time>
      </trkpt>
      <trkpt lat="42.600621040910482" lon="2.513306960463524">
        <ele>448.58999999999997</ele>
        <time>2025-05-15T08:39:54Z</time>
      </trkpt>
      <trkpt lat="42.600571000948548" lon="2.513206964358687">
        <ele>449.06999999999999</ele>
        <time>2025-05-15T08:39:55Z</time>
      </trkpt>
      <trkpt lat="42.600522972643375" lon="2.51301895827055">
        <ele>450.51999999999998</ele>
        <time>2025-05-15T08:39:57Z</time>
      </trkpt>
      <trkpt lat="42.600506041198969" lon="2.512941006571055">
        <ele>451</ele>
        <time>2025-05-15T08:39:58Z</time>
      </trkpt>
      <trkpt lat="42.600491959601641" lon="2.512877974659205">
        <ele>451.48000000000002</ele>
        <time>2025-05-15T08:39:59Z</time>
      </trkpt>
      <trkpt lat="42.600475028157234" lon="2.51280102878809">
        <ele>455.80000000000001</ele>
        <time>2025-05-15T08:40:08Z</time>
      </trkpt>
      <trkpt lat="42.600438985973597" lon="2.512967996299267">
        <ele>442.33999999999997</ele>
        <time>2025-05-15T08:47:03Z</time>
      </trkpt>
      <trkpt lat="42.600506041198969" lon="2.512784013524652">
        <ele>449.55000000000001</ele>
        <time>2025-05-15T08:47:37Z</time>
      </trkpt>
      <trkpt lat="42.600545017048717" lon="2.512786025181413">
        <ele>441.38</ele>
        <time>2025-05-15T08:48:17Z</time>
      </trkpt>
      <trkpt lat="42.600475028157234" lon="2.51280102878809">
        <ele>446.67000000000002</ele>
        <time>2025-05-15T08:48:40Z</time>
      </trkpt>
      <trkpt lat="42.600451977923512" lon="2.512771021574736">
        <ele>446.67000000000002</ele>
        <time>2025-05-15T08:48:41Z</time>
      </trkpt>
      <trkpt lat="42.600409984588623" lon="2.51271503046155">
        <ele>446.19</ele>
        <time>2025-05-15T08:48:42Z</time>
      </trkpt>
      <trkpt lat="42.600365979596972" lon="2.512731961905956">
        <ele>446.19</ele>
        <time>2025-05-15T08:48:43Z</time>
      </trkpt>
      <trkpt lat="42.600303031504154" lon="2.51275802962482">
        <ele>446.67000000000002</ele>
        <time>2025-05-15T08:48:44Z</time>
      </trkpt>
      <trkpt lat="42.600263971835375" lon="2.512811003252864">
        <ele>446.67000000000002</ele>
        <time>2025-05-15T08:48:45Z</time>
      </trkpt>
      <trkpt lat="42.600218039005995" lon="2.512873029336333">
        <ele>446.67000000000002</ele>
        <time>2025-05-15T08:48:46Z</time>
      </trkpt>
      <trkpt lat="42.600163975730538" lon="2.512947041541338">
        <ele>446.67000000000002</ele>
        <time>2025-05-15T08:48:47Z</time>
      </trkpt>
      <trkpt lat="42.599974041804671" lon="2.513203024864197">
        <ele>447.63</ele>
        <time>2025-05-15T08:48:50Z</time>
      </trkpt>
      <trkpt lat="42.599900029599667" lon="2.513266978785396">
        <ele>448.58999999999997</ele>
        <time>2025-05-15T08:48:51Z</time>
      </trkpt>
      <trkpt lat="42.599792992696166" lon="2.513308972120285">
        <ele>449.55000000000001</ele>
        <time>2025-05-15T08:48:52Z</time>
      </trkpt>
      <trkpt lat="42.59958797134459" lon="2.51340402290225">
        <ele>451</ele>
        <time>2025-05-15T08:48:54Z</time>
      </trkpt>
      <trkpt lat="42.599510019645095" lon="2.51346898265183">
        <ele>451.95999999999998</ele>
        <time>2025-05-15T08:48:55Z</time>
      </trkpt>
      <trkpt lat="42.59937297552824" lon="2.513582976534963">
        <ele>453.88</ele>
        <time>2025-05-15T08:48:57Z</time>
      </trkpt>
      <trkpt lat="42.599327964708209" lon="2.513565039262176">
        <ele>454.36000000000001</ele>
        <time>2025-05-15T08:48:58Z</time>
      </trkpt>
      <trkpt lat="42.599280020222068" lon="2.513521034270525">
        <ele>454.83999999999997</ele>
        <time>2025-05-15T08:48:59Z</time>
      </trkpt>
      <trkpt lat="42.599223023280501" lon="2.513467976823449">
        <ele>455.80000000000001</ele>
        <time>2025-05-15T08:49:00Z</time>
      </trkpt>
      <trkpt lat="42.599159991368651" lon="2.513408968225122">
        <ele>456.27999999999997</ele>
        <time>2025-05-15T08:49:01Z</time>
      </trkpt>
      <trkpt lat="42.599093019962311" lon="2.513346020132303">
        <ele>457.24000000000001</ele>
        <time>2025-05-15T08:49:02Z</time>
      </trkpt>
      <trkpt lat="42.599002998322248" lon="2.513282988220453">
        <ele>457.72000000000003</ele>
        <time>2025-05-15T08:49:03Z</time>
      </trkpt>
      <trkpt lat="42.598905013874173" lon="2.513249963521957">
        <ele>458.20999999999998</ele>
        <time>2025-05-15T08:49:04Z</time>
      </trkpt>
      <trkpt lat="42.598800994455814" lon="2.513216016814113">
        <ele>458.69</ele>
        <time>2025-05-15T08:49:05Z</time>
      </trkpt>
      <trkpt lat="42.598524978384376" lon="2.513153990730643">
        <ele>460.13</ele>
        <time>2025-05-15T08:49:08Z</time>
      </trkpt>
      <trkpt lat="42.598458006978035" lon="2.513165976852179">
        <ele>461.08999999999997</ele>
        <time>2025-05-15T08:49:09Z</time>
      </trkpt>
      <trkpt lat="42.598409978672862" lon="2.513249963521957">
        <ele>461.08999999999997</ele>
        <time>2025-05-15T08:49:10Z</time>
      </trkpt>
      <trkpt lat="42.598364967852831" lon="2.513327999040484">
        <ele>461.56999999999999</ele>
        <time>2025-05-15T08:49:11Z</time>
      </trkpt>
      <trkpt lat="42.59832096286118" lon="2.51340402290225">
        <ele>462.05000000000001</ele>
        <time>2025-05-15T08:49:12Z</time>
      </trkpt>
      <trkpt lat="42.598281987011433" lon="2.513466970995069">
        <ele>462.52999999999997</ele>
        <time>2025-05-15T08:49:13Z</time>
      </trkpt>
      <trkpt lat="42.598219038918614" lon="2.513482980430126">
        <ele>463.00999999999999</ele>
        <time>2025-05-15T08:49:14Z</time>
      </trkpt>
      <trkpt lat="42.598159024491906" lon="2.513437969610095">
        <ele>463.97000000000003</ele>
        <time>2025-05-15T08:49:15Z</time>
      </trkpt>
      <trkpt lat="42.598101021721959" lon="2.513369992375374">
        <ele>464.44999999999999</ele>
        <time>2025-05-15T08:49:16Z</time>
      </trkpt>
      <trkpt lat="42.598035978153348" lon="2.513292040675879">
        <ele>464.93000000000001</ele>
        <time>2025-05-15T08:49:17Z</time>
      </trkpt>
      <trkpt lat="42.597970012575388" lon="2.513212999328971">
        <ele>465.42000000000002</ele>
        <time>2025-05-15T08:49:18Z</time>
      </trkpt>
      <trkpt lat="42.59791100397706" lon="2.513144016265869">
        <ele>465.89999999999998</ele>
        <time>2025-05-15T08:49:19Z</time>
      </trkpt>
      <trkpt lat="42.597857024520636" lon="2.513079978525639">
        <ele>466.38</ele>
        <time>2025-05-15T08:49:20Z</time>
      </trkpt>
      <trkpt lat="42.597773037850857" lon="2.513079978525639">
        <ele>466.86000000000001</ele>
        <time>2025-05-15T08:49:21Z</time>
      </trkpt>
      <trkpt lat="42.597682010382414" lon="2.513079978525639">
        <ele>467.33999999999997</ele>
        <time>2025-05-15T08:49:22Z</time>
      </trkpt>
      <trkpt lat="42.597578996792436" lon="2.513079978525639">
        <ele>467.81999999999999</ele>
        <time>2025-05-15T08:49:23Z</time>
      </trkpt>
      <trkpt lat="42.59748000651598" lon="2.513031028211117">
        <ele>468.30000000000001</ele>
        <time>2025-05-15T08:49:24Z</time>
      </trkpt>
      <trkpt lat="42.597389984875917" lon="2.512986017391086">
        <ele>468.77999999999997</ele>
        <time>2025-05-15T08:49:25Z</time>
      </trkpt>
      <trkpt lat="42.597321001812816" lon="2.512950981035829">
        <ele>469.25999999999999</ele>
        <time>2025-05-15T08:49:26Z</time>
      </trkpt>
      <trkpt lat="42.597237015143037" lon="2.512950981035829">
        <ele>469.74000000000001</ele>
        <time>2025-05-15T08:49:27Z</time>
      </trkpt>
      <trkpt lat="42.597203990444541" lon="2.513012001290917">
        <ele>469.74000000000001</ele>
        <time>2025-05-15T08:49:28Z</time>
      </trkpt>
      <trkpt lat="42.597169037908316" lon="2.513085007667542">
        <ele>470.22000000000003</ele>
        <time>2025-05-15T08:49:29Z</time>
      </trkpt>
      <trkpt lat="42.597145987674594" lon="2.513195984065533">
        <ele>470.69999999999999</ele>
        <time>2025-05-15T08:49:30Z</time>
      </trkpt>
      <trkpt lat="42.597118997946382" lon="2.513321964070201">
        <ele>470.69999999999999</ele>
        <time>2025-05-15T08:49:31Z</time>
      </trkpt>
      <trkpt lat="42.59709301404655" lon="2.51344702206552">
        <ele>471.18000000000001</ele>
        <time>2025-05-15T08:49:32Z</time>
      </trkpt>
      <trkpt lat="42.597036017104983" lon="2.513550035655499">
        <ele>471.66000000000003</ele>
        <time>2025-05-15T08:49:33Z</time>
      </trkpt>
      <trkpt lat="42.596976002678275" lon="2.513625975698233">
        <ele>471.66000000000003</ele>
        <time>2025-05-15T08:49:34Z</time>
      </trkpt>
      <trkpt lat="42.596891010180116" lon="2.513645002618432">
        <ele>471.66000000000003</ele>
        <time>2025-05-15T08:49:35Z</time>
      </trkpt>
      <trkpt lat="42.596840970218182" lon="2.513602003455162">
        <ele>471.66000000000003</ele>
        <time>2025-05-15T08:49:36Z</time>
      </trkpt>
      <trkpt lat="42.596805011853576" lon="2.513564033433795">
        <ele>471.66000000000003</ele>
        <time>2025-05-15T08:49:37Z</time>
      </trkpt>
      <trkpt lat="42.596798976883292" lon="2.513482980430126">
        <ele>472.13999999999999</ele>
        <time>2025-05-15T08:49:38Z</time>
      </trkpt>
      <trkpt lat="42.59679302573204" lon="2.513390025123954">
        <ele>472.13999999999999</ele>
        <time>2025-05-15T08:49:39Z</time>
      </trkpt>
      <trkpt lat="42.596784979104996" lon="2.513283994048834">
        <ele>472.13999999999999</ele>
        <time>2025-05-15T08:49:40Z</time>
      </trkpt>
      <trkpt lat="42.596760001033545" lon="2.513190032914281">
        <ele>472.63</ele>
        <time>2025-05-15T08:49:41Z</time>
      </trkpt>
      <trkpt lat="42.596723958849907" lon="2.513066986575723">
        <ele>473.11000000000001</ele>
        <time>2025-05-15T08:49:42Z</time>
      </trkpt>
      <trkpt lat="42.59668598882854" lon="2.512938994914293">
        <ele>473.58999999999997</ele>
        <time>2025-05-15T08:49:43Z</time>
      </trkpt>
      <trkpt lat="42.596657993271947" lon="2.512807985767722">
        <ele>474.06999999999999</ele>
        <time>2025-05-15T08:49:44Z</time>
      </trkpt>
      <trkpt lat="42.596609964966774" lon="2.512558959424496">
        <ele>475.02999999999997</ele>
        <time>2025-05-15T08:49:46Z</time>
      </trkpt>
      <trkpt lat="42.596586998552084" lon="2.512454017996788">
        <ele>475.02999999999997</ele>
        <time>2025-05-15T08:49:47Z</time>
      </trkpt>
      <trkpt lat="42.59651499800384" lon="2.51239400357008">
        <ele>475.50999999999999</ele>
        <time>2025-05-15T08:49:48Z</time>
      </trkpt>
      <trkpt lat="42.595836985856295" lon="2.511910032480955">
        <ele>480.31999999999999</ele>
        <time>2025-05-15T08:49:55Z</time>
      </trkpt>
      <trkpt lat="42.595745958387852" lon="2.511908020824194">
        <ele>480.80000000000001</ele>
        <time>2025-05-15T08:49:56Z</time>
      </trkpt>
      <trkpt lat="42.595655014738441" lon="2.511917995288968">
        <ele>480.80000000000001</ele>
        <time>2025-05-15T08:49:57Z</time>
      </trkpt>
      <trkpt lat="42.595563987269998" lon="2.511975998058915">
        <ele>481.27999999999997</ele>
        <time>2025-05-15T08:49:58Z</time>
      </trkpt>
      <trkpt lat="42.595471031963825" lon="2.512058978900313">
        <ele>481.75999999999999</ele>
        <time>2025-05-15T08:49:59Z</time>
      </trkpt>
      <trkpt lat="42.595372041687369" lon="2.512147994711995">
        <ele>481.75999999999999</ele>
        <time>2025-05-15T08:50:00Z</time>
      </trkpt>
      <trkpt lat="42.595148999243975" lon="2.512327032163739">
        <ele>482.72000000000003</ele>
        <time>2025-05-15T08:50:02Z</time>
      </trkpt>
      <trkpt lat="42.595026036724448" lon="2.512400038540363">
        <ele>483.19999999999999</ele>
        <time>2025-05-15T08:50:03Z</time>
      </trkpt>
      <trkpt lat="42.594896033406258" lon="2.512478996068239">
        <ele>483.68000000000001</ele>
        <time>2025-05-15T08:50:04Z</time>
      </trkpt>
      <trkpt lat="42.594774998724461" lon="2.51250397413969">
        <ele>484.16000000000003</ele>
        <time>2025-05-15T08:50:05Z</time>
      </trkpt>
      <trkpt lat="42.594638960435987" lon="2.512532975524664">
        <ele>485.12</ele>
        <time>2025-05-15T08:50:06Z</time>
      </trkpt>
      <trkpt lat="42.594488002359867" lon="2.512564994394779">
        <ele>485.60000000000002</ele>
        <time>2025-05-15T08:50:07Z</time>
      </trkpt>
      <trkpt lat="42.59436696767807" lon="2.512572035193443">
        <ele>486.56</ele>
        <time>2025-05-15T08:50:08Z</time>
      </trkpt>
      <trkpt lat="42.59423503652215" lon="2.512581003829837">
        <ele>487.05000000000001</ele>
        <time>2025-05-15T08:50:09Z</time>
      </trkpt>
      <trkpt lat="42.593916021287441" lon="2.512601036578417">
        <ele>488.97000000000003</ele>
        <time>2025-05-15T08:50:12Z</time>
      </trkpt>
      <trkpt lat="42.593835974112153" lon="2.512606987729669">
        <ele>489.44999999999999</ele>
        <time>2025-05-15T08:50:13Z</time>
      </trkpt>
      <trkpt lat="42.59378400631249" lon="2.512559965252876">
        <ele>489.93000000000001</ele>
        <time>2025-05-15T08:50:14Z</time>
      </trkpt>
      <trkpt lat="42.593738995492458" lon="2.512506991624832">
        <ele>490.41000000000003</ele>
        <time>2025-05-15T08:50:15Z</time>
      </trkpt>
      <trkpt lat="42.593709994107485" lon="2.512456029653549">
        <ele>490.88999999999999</ele>
        <time>2025-05-15T08:50:16Z</time>
      </trkpt>
      <trkpt lat="42.593686021864414" lon="2.512359973043203">
        <ele>491.85000000000002</ele>
        <time>2025-05-15T08:50:17Z</time>
      </trkpt>
      <trkpt lat="42.593660037964582" lon="2.512254025787115">
        <ele>492.32999999999998</ele>
        <time>2025-05-15T08:50:18Z</time>
      </trkpt>
      <trkpt lat="42.593631036579609" lon="2.512139026075602">
        <ele>492.81</ele>
        <time>2025-05-15T08:50:19Z</time>
      </trkpt>
      <trkpt lat="42.593599017709494" lon="2.512012040242553">
        <ele>493.29000000000002</ele>
        <time>2025-05-15T08:50:20Z</time>
      </trkpt>
      <trkpt lat="42.593568004667759" lon="2.511887988075614">
        <ele>493.76999999999998</ele>
        <time>2025-05-15T08:50:21Z</time>
      </trkpt>
      <trkpt lat="42.59350698441267" lon="2.511800983920693">
        <ele>494.74000000000001</ele>
        <time>2025-05-15T08:50:22Z</time>
      </trkpt>
      <trkpt lat="42.593453004956245" lon="2.511727977544069">
        <ele>495.69999999999999</ele>
        <time>2025-05-15T08:50:23Z</time>
      </trkpt>
      <trkpt lat="42.59339701384306" lon="2.511709034442902">
        <ele>496.18000000000001</ele>
        <time>2025-05-15T08:50:24Z</time>
      </trkpt>
      <trkpt lat="42.593309003859758" lon="2.511713979765773">
        <ele>496.66000000000003</ele>
        <time>2025-05-15T08:50:25Z</time>
      </trkpt>
      <trkpt lat="42.5932049844414" lon="2.511721020564437">
        <ele>497.13999999999999</ele>
        <time>2025-05-15T08:50:26Z</time>
      </trkpt>
      <trkpt lat="42.593099037185311" lon="2.511726971715689">
        <ele>497.62</ele>
        <time>2025-05-15T08:50:27Z</time>
      </trkpt>
      <trkpt lat="42.592992000281811" lon="2.511684978380799">
        <ele>498.57999999999998</ele>
        <time>2025-05-15T08:50:28Z</time>
      </trkpt>
      <trkpt lat="42.592883035540581" lon="2.511638961732388">
        <ele>499.06</ele>
        <time>2025-05-15T08:50:29Z</time>
      </trkpt>
      <trkpt lat="42.592781027778983" lon="2.511595962569118">
        <ele>499.54000000000002</ele>
        <time>2025-05-15T08:50:30Z</time>
      </trkpt>
      <trkpt lat="42.592687988653779" lon="2.51155698671937">
        <ele>500.01999999999998</ele>
        <time>2025-05-15T08:50:31Z</time>
      </trkpt>
      <trkpt lat="42.592596039175987" lon="2.511555980890989">
        <ele>500.5</ele>
        <time>2025-05-15T08:50:32Z</time>
      </trkpt>
      <trkpt lat="42.592413984239101" lon="2.511580036953092">
        <ele>501.45999999999998</ele>
        <time>2025-05-15T08:50:34Z</time>
      </trkpt>
      <trkpt lat="42.592333015054464" lon="2.511614989489317">
        <ele>501.45999999999998</ele>
        <time>2025-05-15T08:50:35Z</time>
      </trkpt>
      <trkpt lat="42.592274006456137" lon="2.511691013351083">
        <ele>502.43000000000001</ele>
        <time>2025-05-15T08:50:36Z</time>
      </trkpt>
      <trkpt lat="42.592208040878177" lon="2.511791009455919">
        <ele>502.91000000000003</ele>
        <time>2025-05-15T08:50:37Z</time>
      </trkpt>
      <trkpt lat="42.592144003137946" lon="2.511885976418853">
        <ele>503.87</ele>
        <time>2025-05-15T08:50:38Z</time>
      </trkpt>
      <trkpt lat="42.592081977054477" lon="2.511979015544057">
        <ele>504.35000000000002</ele>
        <time>2025-05-15T08:50:39Z</time>
      </trkpt>
      <trkpt lat="42.592027997598052" lon="2.512058978900313">
        <ele>504.82999999999998</ele>
        <time>2025-05-15T08:50:40Z</time>
      </trkpt>
      <trkpt lat="42.591960020363331" lon="2.512060990557075">
        <ele>505.31</ele>
        <time>2025-05-15T08:50:41Z</time>
      </trkpt>
      <trkpt lat="42.591892965137959" lon="2.512049004435539">
        <ele>505.79000000000002</ele>
        <time>2025-05-15T08:50:42Z</time>
      </trkpt>
      <trkpt lat="42.591828005388379" lon="2.512037018314004">
        <ele>505.31</ele>
        <time>2025-05-15T08:50:43Z</time>
      </trkpt>
      <trkpt lat="42.591747036203742" lon="2.512023020535708">
        <ele>505.79000000000002</ele>
        <time>2025-05-15T08:50:44Z</time>
      </trkpt>
      <trkpt lat="42.591656008735299" lon="2.51200701110065">
        <ele>506.75</ele>
        <time>2025-05-15T08:50:45Z</time>
      </trkpt>
      <trkpt lat="42.591576967388391" lon="2.512055039405823">
        <ele>506.75</ele>
        <time>2025-05-15T08:50:46Z</time>
      </trkpt>
      <trkpt lat="42.591478982940316" lon="2.51211698167026">
        <ele>507.23000000000002</ele>
        <time>2025-05-15T08:50:47Z</time>
      </trkpt>
      <trkpt lat="42.591377981007099" lon="2.51217900775373">
        <ele>507.70999999999998</ele>
        <time>2025-05-15T08:50:48Z</time>
      </trkpt>
      <trkpt lat="42.591272033751011" lon="2.51224497333169">
        <ele>508.19</ele>
        <time>2025-05-15T08:50:49Z</time>
      </trkpt>
      <trkpt lat="42.590967016294599" lon="2.512434991076589">
        <ele>510.12</ele>
        <time>2025-05-15T08:50:52Z</time>
      </trkpt>
      <trkpt lat="42.590874982997775" lon="2.512491988018155">
        <ele>510.60000000000002</ele>
        <time>2025-05-15T08:50:53Z</time>
      </trkpt>
      <trkpt lat="42.590801976621151" lon="2.512464998289943">
        <ele>511.56</ele>
        <time>2025-05-15T08:50:54Z</time>
      </trkpt>
      <trkpt lat="42.59075503796339" lon="2.512435996904969">
        <ele>512.03999999999996</ele>
        <time>2025-05-15T08:50:55Z</time>
      </trkpt>
      <trkpt lat="42.590732993558049" lon="2.512371959164739">
        <ele>513</ele>
        <time>2025-05-15T08:50:56Z</time>
      </trkpt>
      <trkpt lat="42.590737016871572" lon="2.512290989980102">
        <ele>513.96000000000004</ele>
        <time>2025-05-15T08:50:57Z</time>
      </trkpt>
      <trkpt lat="42.590742968022823" lon="2.512157969176769">
        <ele>514.44000000000005</ele>
        <time>2025-05-15T08:50:58Z</time>
      </trkpt>
      <trkpt lat="42.590751014649868" lon="2.511991001665592">
        <ele>514.91999999999996</ele>
        <time>2025-05-15T08:50:59Z</time>
      </trkpt>
      <trkpt lat="42.59073500521481" lon="2.511819005012512">
        <ele>515.39999999999998</ele>
        <time>2025-05-15T08:51:00Z</time>
      </trkpt>
      <trkpt lat="42.590702986344695" lon="2.511649020016193">
        <ele>515.39999999999998</ele>
        <time>2025-05-15T08:51:01Z</time>
      </trkpt>
      <trkpt lat="42.59066903963685" lon="2.511469982564449">
        <ele>515.39999999999998</ele>
        <time>2025-05-15T08:51:02Z</time>
      </trkpt>
      <trkpt lat="42.590611036866903" lon="2.511344002559781">
        <ele>515.39999999999998</ele>
        <time>2025-05-15T08:51:03Z</time>
      </trkpt>
      <trkpt lat="42.590560996904969" lon="2.511234031990171">
        <ele>515.88</ele>
        <time>2025-05-15T08:51:04Z</time>
      </trkpt>
      <trkpt lat="42.590560996904969" lon="2.511092964559794">
        <ele>515.88</ele>
        <time>2025-05-15T08:51:05Z</time>
      </trkpt>
      <trkpt lat="42.590560996904969" lon="2.51095499843359">
        <ele>515.39999999999998</ele>
        <time>2025-05-15T08:51:06Z</time>
      </trkpt>
      <trkpt lat="42.590560996904969" lon="2.510814014822245">
        <ele>515.39999999999998</ele>
        <time>2025-05-15T08:51:07Z</time>
      </trkpt>
      <trkpt lat="42.590533001348376" lon="2.510658027604222">
        <ele>514.91999999999996</ele>
        <time>2025-05-15T08:51:08Z</time>
      </trkpt>
      <trkpt lat="42.590502994135022" lon="2.510518971830607">
        <ele>514.91999999999996</ele>
        <time>2025-05-15T08:51:09Z</time>
      </trkpt>
      <trkpt lat="42.59047600440681" lon="2.510397015139461">
        <ele>514.91999999999996</ele>
        <time>2025-05-15T08:51:10Z</time>
      </trkpt>
      <trkpt lat="42.590428981930017" lon="2.510303976014257">
        <ele>514.91999999999996</ele>
        <time>2025-05-15T08:51:11Z</time>
      </trkpt>
      <trkpt lat="42.590378019958735" lon="2.510257959365845">
        <ele>514.91999999999996</ele>
        <time>2025-05-15T08:51:12Z</time>
      </trkpt>
      <trkpt lat="42.590281963348389" lon="2.510226024314761">
        <ele>514.91999999999996</ele>
        <time>2025-05-15T08:51:13Z</time>
      </trkpt>
      <trkpt lat="42.590225972235203" lon="2.510257959365845">
        <ele>514.44000000000005</ele>
        <time>2025-05-15T08:51:14Z</time>
      </trkpt>
      <trkpt lat="42.590138968080282" lon="2.510309005156159">
        <ele>514.44000000000005</ele>
        <time>2025-05-15T08:51:15Z</time>
      </trkpt>
      <trkpt lat="42.589937970042229" lon="2.510425010696054">
        <ele>514.44000000000005</ele>
        <time>2025-05-15T08:51:17Z</time>
      </trkpt>
      <trkpt lat="42.589829005300999" lon="2.510472033172846">
        <ele>514.44000000000005</ele>
        <time>2025-05-15T08:51:18Z</time>
      </trkpt>
      <trkpt lat="42.589478977024555" lon="2.510551996529102">
        <ele>514.91999999999996</ele>
        <time>2025-05-15T08:51:21Z</time>
      </trkpt>
      <trkpt lat="42.589377975091338" lon="2.510562976822257">
        <ele>515.39999999999998</ele>
        <time>2025-05-15T08:51:22Z</time>
      </trkpt>
      <trkpt lat="42.58927496150136" lon="2.510536992922425">
        <ele>515.88</ele>
        <time>2025-05-15T08:51:23Z</time>
      </trkpt>
      <trkpt lat="42.589178988710046" lon="2.510513020679355">
        <ele>515.88</ele>
        <time>2025-05-15T08:51:24Z</time>
      </trkpt>
      <trkpt lat="42.589097013697028" lon="2.510529030114412">
        <ele>516.37</ele>
        <time>2025-05-15T08:51:25Z</time>
      </trkpt>
      <trkpt lat="42.589019984006882" lon="2.510567000135779">
        <ele>516.85000000000002</ele>
        <time>2025-05-15T08:51:26Z</time>
      </trkpt>
      <trkpt lat="42.588952006772161" lon="2.510641012340784">
        <ele>517.80999999999995</ele>
        <time>2025-05-15T08:51:27Z</time>
      </trkpt>
      <trkpt lat="42.588898027315736" lon="2.510765986517072">
        <ele>518.28999999999996</ele>
        <time>2025-05-15T08:51:28Z</time>
      </trkpt>
      <trkpt lat="42.588839018717408" lon="2.510900013148785">
        <ele>518.76999999999998</ele>
        <time>2025-05-15T08:51:29Z</time>
      </trkpt>
      <trkpt lat="42.5887790042907" lon="2.511039990931749">
        <ele>519.73000000000002</ele>
        <time>2025-05-15T08:51:30Z</time>
      </trkpt>
      <trkpt lat="42.588714966550469" lon="2.511187009513378">
        <ele>520.21000000000004</ele>
        <time>2025-05-15T08:51:31Z</time>
      </trkpt>
      <trkpt lat="42.588649000972509" lon="2.511338973417878">
        <ele>521.16999999999996</ele>
        <time>2025-05-15T08:51:32Z</time>
      </trkpt>
      <trkpt lat="42.588582029566169" lon="2.511493032798171">
        <ele>521.64999999999998</ele>
        <time>2025-05-15T08:51:33Z</time>
      </trkpt>
      <trkpt lat="42.588515980169177" lon="2.511643990874291">
        <ele>522.61000000000001</ele>
        <time>2025-05-15T08:51:34Z</time>
      </trkpt>
      <trkpt lat="42.588425958529115" lon="2.511779023334384">
        <ele>523.58000000000004</ele>
        <time>2025-05-15T08:51:35Z</time>
      </trkpt>
      <trkpt lat="42.588316993787885" lon="2.511881031095982">
        <ele>524.05999999999995</ele>
        <time>2025-05-15T08:51:36Z</time>
      </trkpt>
      <trkpt lat="42.588210040703416" lon="2.511982033029199">
        <ele>525.5</ele>
        <time>2025-05-15T08:51:37Z</time>
      </trkpt>
      <trkpt lat="42.588034020736814" lon="2.512181019410491">
        <ele>526.94000000000005</ele>
        <time>2025-05-15T08:51:39Z</time>
      </trkpt>
      <trkpt lat="42.58781298995018" lon="2.512478996068239">
        <ele>529.34000000000003</ele>
        <time>2025-05-15T08:51:42Z</time>
      </trkpt>
      <trkpt lat="42.587750041857362" lon="2.512564994394779">
        <ele>529.82000000000005</ele>
        <time>2025-05-15T08:51:43Z</time>
      </trkpt>
      <trkpt lat="42.587686004117131" lon="2.512564994394779">
        <ele>530.29999999999995</ele>
        <time>2025-05-15T08:51:44Z</time>
      </trkpt>
      <trkpt lat="42.587621966376901" lon="2.512564994394779">
        <ele>531.26999999999998</ele>
        <time>2025-05-15T08:51:45Z</time>
      </trkpt>
      <trkpt lat="42.587548037990928" lon="2.512515038251877">
        <ele>531.75</ele>
        <time>2025-05-15T08:51:46Z</time>
      </trkpt>
      <trkpt lat="42.587488023564219" lon="2.512475978583098">
        <ele>532.23000000000002</ele>
        <time>2025-05-15T08:51:47Z</time>
      </trkpt>
      <trkpt lat="42.587433038279414" lon="2.512439014390111">
        <ele>533.19000000000005</ele>
        <time>2025-05-15T08:51:48Z</time>
      </trkpt>
      <trkpt lat="42.587379980832338" lon="2.512403978034854">
        <ele>534.14999999999998</ele>
        <time>2025-05-15T08:51:49Z</time>
      </trkpt>
      <trkpt lat="42.587363971397281" lon="2.512392997741699">
        <ele>534.63</ele>
        <time>2025-05-15T08:51:50Z</time>
      </trkpt>
      <trkpt lat="42.58729699999094" lon="2.512414958328009">
        <ele>535.11000000000001</ele>
        <time>2025-05-15T08:51:51Z</time>
      </trkpt>
      <trkpt lat="42.587249977514148" lon="2.512430967763066">
        <ele>536.07000000000005</ele>
        <time>2025-05-15T08:51:52Z</time>
      </trkpt>
      <trkpt lat="42.587203038856387" lon="2.512446977198124">
        <ele>536.54999999999995</ele>
        <time>2025-05-15T08:51:53Z</time>
      </trkpt>
      <trkpt lat="42.587065994739532" lon="2.512491988018155">
        <ele>537.99000000000001</ele>
        <time>2025-05-15T08:51:56Z</time>
      </trkpt>
      <trkpt lat="42.587030036374927" lon="2.512477990239859">
        <ele>538.48000000000002</ele>
        <time>2025-05-15T08:51:57Z</time>
      </trkpt>
      <trkpt lat="42.587001034989953" lon="2.512429039925337">
        <ele>538.96000000000004</ele>
        <time>2025-05-15T08:51:58Z</time>
      </trkpt>
      <trkpt lat="42.586968010291457" lon="2.512369025498629">
        <ele>539.44000000000005</ele>
        <time>2025-05-15T08:51:59Z</time>
      </trkpt>
      <trkpt lat="42.586934985592961" lon="2.512312028557062">
        <ele>539.91999999999996</ele>
        <time>2025-05-15T08:52:00Z</time>
      </trkpt>
      <trkpt lat="42.586901960894465" lon="2.512255031615496">
        <ele>540.88</ele>
        <time>2025-05-15T08:52:01Z</time>
      </trkpt>
      <trkpt lat="42.586873965337873" lon="2.512204991653562">
        <ele>540.88</ele>
        <time>2025-05-15T08:52:02Z</time>
      </trkpt>
      <trkpt lat="42.58684303611517" lon="2.512152018025518">
        <ele>541.36000000000001</ele>
        <time>2025-05-15T08:52:03Z</time>
      </trkpt>
      <trkpt lat="42.586785033345222" lon="2.512049004435539">
        <ele>542.32000000000005</ele>
        <time>2025-05-15T08:52:05Z</time>
      </trkpt>
      <trkpt lat="42.586713032796979" lon="2.511924030259252">
        <ele>543.27999999999997</ele>
        <time>2025-05-15T08:52:07Z</time>
      </trkpt>
      <trkpt lat="42.586589986458421" lon="2.511775000020862">
        <ele>544.24000000000001</ele>
        <time>2025-05-15T08:52:09Z</time>
      </trkpt>
      <trkpt lat="42.586516980081797" lon="2.511718003079295">
        <ele>544.72000000000003</ele>
        <time>2025-05-15T08:52:10Z</time>
      </trkpt>
      <trkpt lat="42.586432993412018" lon="2.511689001694322">
        <ele>545.20000000000005</ele>
        <time>2025-05-15T08:52:11Z</time>
      </trkpt>
      <trkpt lat="42.58635001257062" lon="2.511723032221198">
        <ele>545.69000000000005</ele>
        <time>2025-05-15T08:52:12Z</time>
      </trkpt>
      <trkpt lat="42.586263008415699" lon="2.511768965050578">
        <ele>546.16999999999996</ele>
        <time>2025-05-15T08:52:13Z</time>
      </trkpt>
      <trkpt lat="42.586173992604017" lon="2.511816993355751">
        <ele>546.64999999999998</ele>
        <time>2025-05-15T08:52:14Z</time>
      </trkpt>
      <trkpt lat="42.5860729906708" lon="2.51183501444757">
        <ele>547.13</ele>
        <time>2025-05-15T08:52:15Z</time>
      </trkpt>
      <trkpt lat="42.585976012051105" lon="2.51183501444757">
        <ele>547.13</ele>
        <time>2025-05-15T08:52:16Z</time>
      </trkpt>
      <trkpt lat="42.585883978754282" lon="2.51183501444757">
        <ele>547.13</ele>
        <time>2025-05-15T08:52:17Z</time>
      </trkpt>
      <trkpt lat="42.585804015398026" lon="2.511866027489305">
        <ele>547.61000000000001</ele>
        <time>2025-05-15T08:52:18Z</time>
      </trkpt>
      <trkpt lat="42.585722040385008" lon="2.511936016380787">
        <ele>547.61000000000001</ele>
        <time>2025-05-15T08:52:19Z</time>
      </trkpt>
      <trkpt lat="42.585633024573326" lon="2.512012962251902">
        <ele>547.61000000000001</ele>
        <time>2025-05-15T08:52:20Z</time>
      </trkpt>
      <trkpt lat="42.585539985448122" lon="2.51209300942719">
        <ele>548.09000000000003</ele>
        <time>2025-05-15T08:52:21Z</time>
      </trkpt>
      <trkpt lat="42.585443006828427" lon="2.512113964185119">
        <ele>548.57000000000005</ele>
        <time>2025-05-15T08:52:22Z</time>
      </trkpt>
      <trkpt lat="42.58523496799171" lon="2.51215998083353">
        <ele>549.52999999999997</ele>
        <time>2025-05-15T08:52:24Z</time>
      </trkpt>
      <trkpt lat="42.58495501242578" lon="2.512226030230522">
        <ele>551.45000000000005</ele>
        <time>2025-05-15T08:52:27Z</time>
      </trkpt>
      <trkpt lat="42.584863984957337" lon="2.512290989980102">
        <ele>551.92999999999995</ele>
        <time>2025-05-15T08:52:28Z</time>
      </trkpt>
      <trkpt lat="42.584773963317275" lon="2.512355027720332">
        <ele>552.89999999999998</ele>
        <time>2025-05-15T08:52:29Z</time>
      </trkpt>
      <trkpt lat="42.584700034931302" lon="2.512406995519996">
        <ele>553.38</ele>
        <time>2025-05-15T08:52:30Z</time>
      </trkpt>
      <trkpt lat="42.584635997191072" lon="2.512424010783434">
        <ele>553.86000000000001</ele>
        <time>2025-05-15T08:52:31Z</time>
      </trkpt>
      <trkpt lat="42.584574976935983" lon="2.512392997741699">
        <ele>554.82000000000005</ele>
        <time>2025-05-15T08:52:32Z</time>
      </trkpt>
      <trkpt lat="42.58454698137939" lon="2.512327032163739">
        <ele>555.29999999999995</ele>
        <time>2025-05-15T08:52:33Z</time>
      </trkpt>
      <trkpt lat="42.584511023014784" lon="2.512242961674929">
        <ele>555.77999999999997</ele>
        <time>2025-05-15T08:52:34Z</time>
      </trkpt>
      <trkpt lat="42.584484033286572" lon="2.512123016640544">
        <ele>556.25999999999999</ele>
        <time>2025-05-15T08:52:35Z</time>
      </trkpt>
      <trkpt lat="42.584453020244837" lon="2.511985972523689">
        <ele>556.74000000000001</ele>
        <time>2025-05-15T08:52:36Z</time>
      </trkpt>
      <trkpt lat="42.584422007203102" lon="2.511844988912344">
        <ele>557.22000000000003</ele>
        <time>2025-05-15T08:52:37Z</time>
      </trkpt>
      <trkpt lat="42.584391999989748" lon="2.511708028614521">
        <ele>556.74000000000001</ele>
        <time>2025-05-15T08:52:38Z</time>
      </trkpt>
      <trkpt lat="42.584351012483239" lon="2.511597974225879">
        <ele>556.74000000000001</ele>
        <time>2025-05-15T08:52:39Z</time>
      </trkpt>
      <trkpt lat="42.584299966692924" lon="2.511485991999507">
        <ele>556.74000000000001</ele>
        <time>2025-05-15T08:52:40Z</time>
      </trkpt>
      <trkpt lat="42.584240958094597" lon="2.511375015601516">
        <ele>556.74000000000001</ele>
        <time>2025-05-15T08:52:41Z</time>
      </trkpt>
      <trkpt lat="42.584146996960044" lon="2.51129899173975">
        <ele>556.74000000000001</ele>
        <time>2025-05-15T08:52:42Z</time>
      </trkpt>
      <trkpt lat="42.584049012511969" lon="2.511219028383493">
        <ele>556.25999999999999</ele>
        <time>2025-05-15T08:52:43Z</time>
      </trkpt>
      <trkpt lat="42.583952033892274" lon="2.511140992864966">
        <ele>556.25999999999999</ele>
        <time>2025-05-15T08:52:44Z</time>
      </trkpt>
      <trkpt lat="42.58377299644053" lon="2.511016018688679">
        <ele>556.25999999999999</ele>
        <time>2025-05-15T08:52:46Z</time>
      </trkpt>
      <trkpt lat="42.583671994507313" lon="2.511003026738763">
        <ele>556.74000000000001</ele>
        <time>2025-05-15T08:52:47Z</time>
      </trkpt>
      <trkpt lat="42.583561018109322" lon="2.511015012860298">
        <ele>557.22000000000003</ele>
        <time>2025-05-15T08:52:48Z</time>
      </trkpt>
      <trkpt lat="42.583104958757758" lon="2.51114996150136">
        <ele>559.62</ele>
        <time>2025-05-15T08:52:52Z</time>
      </trkpt>
      <trkpt lat="42.582995994016528" lon="2.511213999241591">
        <ele>560.11000000000001</ele>
        <time>2025-05-15T08:52:53Z</time>
      </trkpt>
      <trkpt lat="42.582884011790156" lon="2.511280970647931">
        <ele>560.59000000000003</ele>
        <time>2025-05-15T08:52:54Z</time>
      </trkpt>
      <trkpt lat="42.582769012078643" lon="2.511349031701684">
        <ele>561.07000000000005</ele>
        <time>2025-05-15T08:52:55Z</time>
      </trkpt>
      <trkpt lat="42.582657029852271" lon="2.511414997279644">
        <ele>561.07000000000005</ele>
        <time>2025-05-15T08:52:56Z</time>
      </trkpt>
      <trkpt lat="42.582566002383828" lon="2.511482974514365">
        <ele>561.54999999999995</ele>
        <time>2025-05-15T08:52:57Z</time>
      </trkpt>
      <trkpt lat="42.582486039027572" lon="2.511563021689653">
        <ele>562.02999999999997</ele>
        <time>2025-05-15T08:52:58Z</time>
      </trkpt>
      <trkpt lat="42.582445973530412" lon="2.511655976995826">
        <ele>562.50999999999999</ele>
        <time>2025-05-15T08:52:59Z</time>
      </trkpt>
      <trkpt lat="42.582401968538761" lon="2.511786986142397">
        <ele>563.47000000000003</ele>
        <time>2025-05-15T08:53:00Z</time>
      </trkpt>
      <trkpt lat="42.582372967153788" lon="2.511935010552406">
        <ele>564.42999999999995</ele>
        <time>2025-05-15T08:53:01Z</time>
      </trkpt>
      <trkpt lat="42.582351006567478" lon="2.512111030519009">
        <ele>565.38999999999999</ele>
        <time>2025-05-15T08:53:02Z</time>
      </trkpt>
      <trkpt lat="42.582132993265986" lon="2.513828985393047">
        <ele>568.27999999999997</ele>
        <time>2025-05-15T08:53:10Z</time>
      </trkpt>
      <trkpt lat="42.582001984119415" lon="2.514869011938572">
        <ele>569.24000000000001</ele>
        <time>2025-05-15T08:53:16Z</time>
      </trkpt>
      <trkpt lat="42.581954961642623" lon="2.514949981123209">
        <ele>569.24000000000001</ele>
        <time>2025-05-15T08:53:17Z</time>
      </trkpt>
      <trkpt lat="42.581882961094379" lon="2.515005972236395">
        <ele>568.75999999999999</ele>
        <time>2025-05-15T08:53:18Z</time>
      </trkpt>
      <trkpt lat="42.581799980252981" lon="2.514991974458098">
        <ele>568.75999999999999</ele>
        <time>2025-05-15T08:53:19Z</time>
      </trkpt>
      <trkpt lat="42.581697972491384" lon="2.51497495919466">
        <ele>568.75999999999999</ele>
        <time>2025-05-15T08:53:20Z</time>
      </trkpt>
      <trkpt lat="42.581596970558167" lon="2.514921985566616">
        <ele>568.75999999999999</ele>
        <time>2025-05-15T08:53:21Z</time>
      </trkpt>
      <trkpt lat="42.581503009423614" lon="2.514847973361611">
        <ele>568.27999999999997</ele>
        <time>2025-05-15T08:53:22Z</time>
      </trkpt>
      <trkpt lat="42.581422962248325" lon="2.514753006398678">
        <ele>568.75999999999999</ele>
        <time>2025-05-15T08:53:23Z</time>
      </trkpt>
      <trkpt lat="42.581352973356843" lon="2.514638006687164">
        <ele>568.75999999999999</ele>
        <time>2025-05-15T08:53:24Z</time>
      </trkpt>
      <trkpt lat="42.581287007778883" lon="2.514515966176987">
        <ele>568.75999999999999</ele>
        <time>2025-05-15T08:53:25Z</time>
      </trkpt>
      <trkpt lat="42.581260018050671" lon="2.514387974515557">
        <ele>568.75999999999999</ele>
        <time>2025-05-15T08:53:26Z</time>
      </trkpt>
      <trkpt lat="42.581235961988568" lon="2.514270963147283">
        <ele>569.24000000000001</ele>
        <time>2025-05-15T08:53:27Z</time>
      </trkpt>
      <trkpt lat="42.581214001402259" lon="2.514166021719575">
        <ele>569.24000000000001</ele>
        <time>2025-05-15T08:53:28Z</time>
      </trkpt>
      <trkpt lat="42.581193968653679" lon="2.514068959280849">
        <ele>569.24000000000001</ele>
        <time>2025-05-15T08:53:29Z</time>
      </trkpt>
      <trkpt lat="42.581162033602595" lon="2.513996958732605">
        <ele>569.24000000000001</ele>
        <time>2025-05-15T08:53:30Z</time>
      </trkpt>
      <trkpt lat="42.581077041104436" lon="2.513895034790039">
        <ele>569.72000000000003</ele>
        <time>2025-05-15T08:53:31Z</time>
      </trkpt>
      <trkpt lat="42.581018032506108" lon="2.513880031183362">
        <ele>570.20000000000005</ele>
        <time>2025-05-15T08:53:32Z</time>
      </trkpt>
      <trkpt lat="42.580920970067382" lon="2.513896962627769">
        <ele>571.15999999999997</ele>
        <time>2025-05-15T08:53:33Z</time>
      </trkpt>
      <trkpt lat="42.580836983397603" lon="2.513924958184362">
        <ele>571.63999999999999</ele>
        <time>2025-05-15T08:53:34Z</time>
      </trkpt>
      <trkpt lat="42.580762971192598" lon="2.513980027288199">
        <ele>571.63999999999999</ele>
        <time>2025-05-15T08:53:35Z</time>
      </trkpt>
      <trkpt lat="42.580688036978245" lon="2.51407097093761">
        <ele>571.63999999999999</ele>
        <time>2025-05-15T08:53:36Z</time>
      </trkpt>
      <trkpt lat="42.580621987581253" lon="2.514194017276168">
        <ele>571.63999999999999</ele>
        <time>2025-05-15T08:53:37Z</time>
      </trkpt>
      <trkpt lat="42.58054998703301" lon="2.5143270380795">
        <ele>571.15999999999997</ele>
        <time>2025-05-15T08:53:38Z</time>
      </trkpt>
      <trkpt lat="42.580474968999624" lon="2.514465004205704">
        <ele>571.15999999999997</ele>
        <time>2025-05-15T08:53:39Z</time>
      </trkpt>
      <trkpt lat="42.580395005643368" lon="2.514592995867133">
        <ele>570.67999999999995</ele>
        <time>2025-05-15T08:53:40Z</time>
      </trkpt>
      <trkpt lat="42.580287968739867" lon="2.514664996415377">
        <ele>570.20000000000005</ele>
        <time>2025-05-15T08:53:41Z</time>
      </trkpt>
      <trkpt lat="42.580177998170257" lon="2.51471302472055">
        <ele>570.20000000000005</ele>
        <time>2025-05-15T08:53:42Z</time>
      </trkpt>
      <trkpt lat="42.580051012337208" lon="2.514722999185324">
        <ele>570.20000000000005</ele>
        <time>2025-05-15T08:53:43Z</time>
      </trkpt>
      <trkpt lat="42.579912040382624" lon="2.514732973650098">
        <ele>570.20000000000005</ele>
        <time>2025-05-15T08:53:44Z</time>
      </trkpt>
      <trkpt lat="42.579772984609008" lon="2.514743031933904">
        <ele>569.72000000000003</ele>
        <time>2025-05-15T08:53:45Z</time>
      </trkpt>
      <trkpt lat="42.579634012654424" lon="2.514753006398678">
        <ele>569.24000000000001</ele>
        <time>2025-05-15T08:53:46Z</time>
      </trkpt>
      <trkpt lat="42.579364031553268" lon="2.514773039147258">
        <ele>568.75999999999999</ele>
        <time>2025-05-15T08:53:48Z</time>
      </trkpt>
      <trkpt lat="42.57923997938633" lon="2.514749988913536">
        <ele>568.75999999999999</ele>
        <time>2025-05-15T08:53:49Z</time>
      </trkpt>
      <trkpt lat="42.579041998833418" lon="2.514701038599014">
        <ele>568.27999999999997</ele>
        <time>2025-05-15T08:53:51Z</time>
      </trkpt>
      <trkpt lat="42.578936973586679" lon="2.514721993356943">
        <ele>567.79999999999995</ele>
        <time>2025-05-15T08:53:52Z</time>
      </trkpt>
      <trkpt lat="42.578839994966984" lon="2.514774966984987">
        <ele>567.32000000000005</ele>
        <time>2025-05-15T08:53:53Z</time>
      </trkpt>
      <trkpt lat="42.578737987205386" lon="2.514848979189992">
        <ele>566.83000000000004</ele>
        <time>2025-05-15T08:53:54Z</time>
      </trkpt>
      <trkpt lat="42.578631034120917" lon="2.514935983344913">
        <ele>566.35000000000002</ele>
        <time>2025-05-15T08:53:55Z</time>
      </trkpt>
      <trkpt lat="42.578180003911257" lon="2.515321969985962">
        <ele>566.35000000000002</ele>
        <time>2025-05-15T08:53:59Z</time>
      </trkpt>
      <trkpt lat="42.578084031119943" lon="2.515440993010998">
        <ele>566.83000000000004</ele>
        <time>2025-05-15T08:54:00Z</time>
      </trkpt>
      <trkpt lat="42.577881021425128" lon="2.515692031010985">
        <ele>567.32000000000005</ele>
        <time>2025-05-15T08:54:02Z</time>
      </trkpt>
      <trkpt lat="42.577760992571712" lon="2.51578900963068">
        <ele>567.79999999999995</ele>
        <time>2025-05-15T08:54:03Z</time>
      </trkpt>
      <trkpt lat="42.577633000910282" lon="2.515881964936853">
        <ele>568.27999999999997</ele>
        <time>2025-05-15T08:54:04Z</time>
      </trkpt>
      <trkpt lat="42.577148023992777" lon="2.516267029568553">
        <ele>569.24000000000001</ele>
        <time>2025-05-15T08:54:08Z</time>
      </trkpt>
      <trkpt lat="42.577053979039192" lon="2.5163699593395">
        <ele>569.24000000000001</ele>
        <time>2025-05-15T08:54:09Z</time>
      </trkpt>
      <trkpt lat="42.576988013461232" lon="2.516499040648341">
        <ele>569.72000000000003</ele>
        <time>2025-05-15T08:54:10Z</time>
      </trkpt>
      <trkpt lat="42.576935039833188" lon="2.51664899289608">
        <ele>569.72000000000003</ele>
        <time>2025-05-15T08:54:11Z</time>
      </trkpt>
      <trkpt lat="42.576892040669918" lon="2.516811015084386">
        <ele>569.72000000000003</ele>
        <time>2025-05-15T08:54:12Z</time>
      </trkpt>
      <trkpt lat="42.576862033456564" lon="2.516958033666015">
        <ele>569.72000000000003</ele>
        <time>2025-05-15T08:54:13Z</time>
      </trkpt>
      <trkpt lat="42.576836971566081" lon="2.517075967043638">
        <ele>569.72000000000003</ele>
        <time>2025-05-15T08:54:14Z</time>
      </trkpt>
      <trkpt lat="42.576818028464913" lon="2.517166994512081">
        <ele>569.72000000000003</ele>
        <time>2025-05-15T08:54:15Z</time>
      </trkpt>
      <trkpt lat="42.576794978231192" lon="2.517221979796886">
        <ele>569.72000000000003</ele>
        <time>2025-05-15T08:54:16Z</time>
      </trkpt>
      <trkpt lat="42.576719960197806" lon="2.517232038080692">
        <ele>569.72000000000003</ele>
        <time>2025-05-15T08:54:17Z</time>
      </trkpt>
      <trkpt lat="42.576625999063253" lon="2.517243018373847">
        <ele>569.72000000000003</ele>
        <time>2025-05-15T08:54:18Z</time>
      </trkpt>
      <trkpt lat="42.576518040150404" lon="2.517257016152144">
        <ele>569.72000000000003</ele>
        <time>2025-05-15T08:54:19Z</time>
      </trkpt>
      <trkpt lat="42.576401028782129" lon="2.517272019758821">
        <ele>569.72000000000003</ele>
        <time>2025-05-15T08:54:20Z</time>
      </trkpt>
      <trkpt lat="42.576285023242235" lon="2.517291968688369">
        <ele>569.72000000000003</ele>
        <time>2025-05-15T08:54:21Z</time>
      </trkpt>
      <trkpt lat="42.576190978288651" lon="2.51737997867167">
        <ele>569.72000000000003</ele>
        <time>2025-05-15T08:54:22Z</time>
      </trkpt>
      <trkpt lat="42.576092993840575" lon="2.517471006140113">
        <ele>569.24000000000001</ele>
        <time>2025-05-15T08:54:23Z</time>
      </trkpt>
      <trkpt lat="42.576000960543752" lon="2.517557004466653">
        <ele>569.24000000000001</ele>
        <time>2025-05-15T08:54:24Z</time>
      </trkpt>
      <trkpt lat="42.575939018279314" lon="2.517639985308051">
        <ele>568.75999999999999</ele>
        <time>2025-05-15T08:54:25Z</time>
      </trkpt>
      <trkpt lat="42.575891995802522" lon="2.517721960321069">
        <ele>568.75999999999999</ele>
        <time>2025-05-15T08:54:26Z</time>
      </trkpt>
      <trkpt lat="42.575884032994509" lon="2.517819022759795">
        <ele>568.27999999999997</ele>
        <time>2025-05-15T08:54:27Z</time>
      </trkpt>
      <trkpt lat="42.575884032994509" lon="2.517908038571477">
        <ele>567.79999999999995</ele>
        <time>2025-05-15T08:54:28Z</time>
      </trkpt>
      <trkpt lat="42.575914962217212" lon="2.517957994714379">
        <ele>567.79999999999995</ele>
        <time>2025-05-15T08:54:29Z</time>
      </trkpt>
      <trkpt lat="42.575948992744088" lon="2.518014991655946">
        <ele>567.32000000000005</ele>
        <time>2025-05-15T08:54:30Z</time>
      </trkpt>
      <trkpt lat="42.576010012999177" lon="2.518041981384158">
        <ele>566.83000000000004</ele>
        <time>2025-05-15T08:54:31Z</time>
      </trkpt>
      <trkpt lat="42.576084025204182" lon="2.518075006082654">
        <ele>566.83000000000004</ele>
        <time>2025-05-15T08:54:32Z</time>
      </trkpt>
      <trkpt lat="42.576142027974129" lon="2.518100989982486">
        <ele>566.35000000000002</ele>
        <time>2025-05-15T08:54:33Z</time>
      </trkpt>
      <trkpt lat="42.576182009652257" lon="2.518171984702349">
        <ele>565.87</ele>
        <time>2025-05-15T08:54:34Z</time>
      </trkpt>
      <trkpt lat="42.576212016865611" lon="2.518224036321044">
        <ele>565.38999999999999</ele>
        <time>2025-05-15T08:54:35Z</time>
      </trkpt>
      <trkpt lat="42.576216962188482" lon="2.518287990242243">
        <ele>565.38999999999999</ele>
        <time>2025-05-15T08:54:36Z</time>
      </trkpt>
      <trkpt lat="42.576185027137399" lon="2.518400978296995">
        <ele>564.90999999999997</ele>
        <time>2025-05-15T08:54:37Z</time>
      </trkpt>
      <trkpt lat="42.576134987175465" lon="2.518473984673619">
        <ele>564.42999999999995</ele>
        <time>2025-05-15T08:54:38Z</time>
      </trkpt>
      <trkpt lat="42.576063992455602" lon="2.518576998263598">
        <ele>563.95000000000005</ele>
        <time>2025-05-15T08:54:39Z</time>
      </trkpt>
      <trkpt lat="42.5759950093925" lon="2.518678000196815">
        <ele>563.95000000000005</ele>
        <time>2025-05-15T08:54:40Z</time>
      </trkpt>
      <trkpt lat="42.575936000794172" lon="2.518789982423186">
        <ele>564.42999999999995</ele>
        <time>2025-05-15T08:54:41Z</time>
      </trkpt>
      <trkpt lat="42.575901970267296" lon="2.518906993791461">
        <ele>564.42999999999995</ele>
        <time>2025-05-15T08:54:42Z</time>
      </trkpt>
      <trkpt lat="42.575871963053942" lon="2.519013024866581">
        <ele>564.90999999999997</ele>
        <time>2025-05-15T08:54:43Z</time>
      </trkpt>
      <trkpt lat="42.575847990810871" lon="2.519099023193121">
        <ele>565.38999999999999</ele>
        <time>2025-05-15T08:54:44Z</time>
      </trkpt>
      <trkpt lat="42.575819995254278" lon="2.519194995984435">
        <ele>565.38999999999999</ele>
        <time>2025-05-15T08:54:45Z</time>
      </trkpt>
      <trkpt lat="42.575773978605866" lon="2.519217962399125">
        <ele>565.38999999999999</ele>
        <time>2025-05-15T08:54:46Z</time>
      </trkpt>
      <trkpt lat="42.575664008036256" lon="2.519211005419493">
        <ele>565.87</ele>
        <time>2025-05-15T08:54:47Z</time>
      </trkpt>
      <trkpt lat="42.575628971680999" lon="2.519147973507643">
        <ele>565.87</ele>
        <time>2025-05-15T08:54:48Z</time>
      </trkpt>
      <trkpt lat="42.57558798417449" lon="2.519075972959399">
        <ele>565.87</ele>
        <time>2025-05-15T08:54:49Z</time>
      </trkpt>
      <trkpt lat="42.575540961697698" lon="2.51899198628962">
        <ele>566.35000000000002</ele>
        <time>2025-05-15T08:54:50Z</time>
      </trkpt>
      <trkpt lat="42.575488993898034" lon="2.518911017104983">
        <ele>566.83000000000004</ele>
        <time>2025-05-15T08:54:51Z</time>
      </trkpt>
      <trkpt lat="42.575404001399875" lon="2.518863994628191">
        <ele>567.32000000000005</ele>
        <time>2025-05-15T08:54:52Z</time>
      </trkpt>
      <trkpt lat="42.575305011123419" lon="2.518809009343386">
        <ele>567.79999999999995</ele>
        <time>2025-05-15T08:54:53Z</time>
      </trkpt>
      <trkpt lat="42.575208032503724" lon="2.518790988251567">
        <ele>568.27999999999997</ele>
        <time>2025-05-15T08:54:54Z</time>
      </trkpt>
      <trkpt lat="42.575104013085365" lon="2.518771961331368">
        <ele>568.27999999999997</ele>
        <time>2025-05-15T08:54:55Z</time>
      </trkpt>
      <trkpt lat="42.574996976181865" lon="2.518771039322019">
        <ele>568.27999999999997</ele>
        <time>2025-05-15T08:54:56Z</time>
      </trkpt>
      <trkpt lat="42.574885999783874" lon="2.518777996301651">
        <ele>568.27999999999997</ele>
        <time>2025-05-15T08:54:57Z</time>
      </trkpt>
      <trkpt lat="42.574346037581563" lon="2.518788976594806">
        <ele>569.24000000000001</ele>
        <time>2025-05-15T08:55:02Z</time>
      </trkpt>
      <trkpt lat="42.573839016258717" lon="2.518597031012178">
        <ele>572.12</ele>
        <time>2025-05-15T08:55:07Z</time>
      </trkpt>
      <trkpt lat="42.573751006275415" lon="2.51853802241385">
        <ele>572.60000000000002</ele>
        <time>2025-05-15T08:55:08Z</time>
      </trkpt>
      <trkpt lat="42.573544979095459" lon="2.518400978296995">
        <ele>574.03999999999996</ele>
        <time>2025-05-15T08:55:11Z</time>
      </trkpt>
      <trkpt lat="42.573475996032357" lon="2.51838999800384">
        <ele>574.52999999999997</ele>
        <time>2025-05-15T08:55:12Z</time>
      </trkpt>
      <trkpt lat="42.57341698743403" lon="2.518380023539066">
        <ele>574.52999999999997</ele>
        <time>2025-05-15T08:55:13Z</time>
      </trkpt>
      <trkpt lat="42.57335202768445" lon="2.518423022702336">
        <ele>574.52999999999997</ele>
        <time>2025-05-15T08:55:14Z</time>
      </trkpt>
      <trkpt lat="42.573316991329193" lon="2.518487982451916">
        <ele>574.52999999999997</ele>
        <time>2025-05-15T08:55:15Z</time>
      </trkpt>
      <trkpt lat="42.57326502352953" lon="2.518584961071611">
        <ele>575.00999999999999</ele>
        <time>2025-05-15T08:55:16Z</time>
      </trkpt>
      <trkpt lat="42.573200985789299" lon="2.518703984096646">
        <ele>574.52999999999997</ele>
        <time>2025-05-15T08:55:17Z</time>
      </trkpt>
      <trkpt lat="42.57313602603972" lon="2.518825018778443">
        <ele>575.49000000000001</ele>
        <time>2025-05-15T08:55:18Z</time>
      </trkpt>
      <trkpt lat="42.572983978316188" lon="2.519083013758063">
        <ele>575.49000000000001</ele>
        <time>2025-05-15T08:55:20Z</time>
      </trkpt>
      <trkpt lat="42.5727519672364" lon="2.519431030377746">
        <ele>576.92999999999995</ele>
        <time>2025-05-15T08:55:23Z</time>
      </trkpt>
      <trkpt lat="42.572720032185316" lon="2.519525997340679">
        <ele>576.92999999999995</ele>
        <time>2025-05-15T08:55:24Z</time>
      </trkpt>
      <trkpt lat="42.572625987231731" lon="2.51980796456337">
        <ele>577.88999999999999</ele>
        <time>2025-05-15T08:55:26Z</time>
      </trkpt>
      <trkpt lat="42.572564966976643" lon="2.519954983144999">
        <ele>578.37</ele>
        <time>2025-05-15T08:55:27Z</time>
      </trkpt>
      <trkpt lat="42.572410991415381" lon="2.520263018086553">
        <ele>578.85000000000002</ele>
        <time>2025-05-15T08:55:29Z</time>
      </trkpt>
      <trkpt lat="42.572177974507213" lon="2.520884033292532">
        <ele>580.28999999999996</ele>
        <time>2025-05-15T08:55:33Z</time>
      </trkpt>
      <trkpt lat="42.572078984230757" lon="2.520981011912227">
        <ele>580.76999999999998</ele>
        <time>2025-05-15T08:55:34Z</time>
      </trkpt>
      <trkpt lat="42.571971025317907" lon="2.521086959168315">
        <ele>581.25</ele>
        <time>2025-05-15T08:55:35Z</time>
      </trkpt>
      <trkpt lat="42.571063013747334" lon="2.521978039294481">
        <ele>582.70000000000005</ele>
        <time>2025-05-15T08:55:43Z</time>
      </trkpt>
      <trkpt lat="42.570982966572046" lon="2.52208398655057">
        <ele>582.70000000000005</ele>
        <time>2025-05-15T08:55:44Z</time>
      </trkpt>
      <trkpt lat="42.570918006822467" lon="2.522180965170264">
        <ele>582.70000000000005</ele>
        <time>2025-05-15T08:55:45Z</time>
      </trkpt>
      <trkpt lat="42.570887999609113" lon="2.522266963496804">
        <ele>582.70000000000005</ele>
        <time>2025-05-15T08:55:46Z</time>
      </trkpt>
      <trkpt lat="42.570864027366042" lon="2.522354973480105">
        <ele>582.70000000000005</ele>
        <time>2025-05-15T08:55:47Z</time>
      </trkpt>
      <trkpt lat="42.570841982960701" lon="2.522446000948548">
        <ele>582.70000000000005</ele>
        <time>2025-05-15T08:55:48Z</time>
      </trkpt>
      <trkpt lat="42.570841982960701" lon="2.52270701341331">
        <ele>582.22000000000003</ele>
        <time>2025-05-15T08:55:51Z</time>
      </trkpt>
      <trkpt lat="42.570819016546011" lon="2.522773984819651">
        <ele>582.22000000000003</ele>
        <time>2025-05-15T08:55:52Z</time>
      </trkpt>
      <trkpt lat="42.570777023211122" lon="2.522842967882752">
        <ele>582.22000000000003</ele>
        <time>2025-05-15T08:55:53Z</time>
      </trkpt>
      <trkpt lat="42.570736035704613" lon="2.522842967882752">
        <ele>582.22000000000003</ele>
        <time>2025-05-15T08:55:54Z</time>
      </trkpt>
      <trkpt lat="42.570681972429156" lon="2.522826958447695">
        <ele>581.73000000000002</ele>
        <time>2025-05-15T08:55:55Z</time>
      </trkpt>
      <trkpt lat="42.57064601406455" lon="2.522764010354877">
        <ele>581.73000000000002</ele>
        <time>2025-05-15T08:55:56Z</time>
      </trkpt>
      <trkpt lat="42.570597985759377" lon="2.522682035341859">
        <ele>581.73000000000002</ele>
        <time>2025-05-15T08:55:57Z</time>
      </trkpt>
      <trkpt lat="42.570540988817811" lon="2.522584972903132">
        <ele>581.73000000000002</ele>
        <time>2025-05-15T08:55:58Z</time>
      </trkpt>
      <trkpt lat="42.570468988269567" lon="2.522572986781597">
        <ele>581.25</ele>
        <time>2025-05-15T08:55:59Z</time>
      </trkpt>
      <trkpt lat="42.570375027135015" lon="2.522573992609978">
        <ele>581.25</ele>
        <time>2025-05-15T08:56:00Z</time>
      </trkpt>
      <trkpt lat="42.570277964696288" lon="2.52260098233819">
        <ele>581.25</ele>
        <time>2025-05-15T08:56:01Z</time>
      </trkpt>
      <trkpt lat="42.570170005783439" lon="2.522630989551544">
        <ele>581.25</ele>
        <time>2025-05-15T08:56:02Z</time>
      </trkpt>
      <trkpt lat="42.570057017728686" lon="2.52266300842166">
        <ele>581.25</ele>
        <time>2025-05-15T08:56:03Z</time>
      </trkpt>
      <trkpt lat="42.569718975573778" lon="2.522710030898452">
        <ele>582.22000000000003</ele>
        <time>2025-05-15T08:56:06Z</time>
      </trkpt>
      <trkpt lat="42.569535998627543" lon="2.522748000919819">
        <ele>582.70000000000005</ele>
        <time>2025-05-15T08:56:08Z</time>
      </trkpt>
      <trkpt lat="42.569457041099668" lon="2.522766022011638">
        <ele>582.70000000000005</ele>
        <time>2025-05-15T08:56:09Z</time>
      </trkpt>
      <trkpt lat="42.569389985874295" lon="2.522800974547863">
        <ele>583.17999999999995</ele>
        <time>2025-05-15T08:56:10Z</time>
      </trkpt>
      <trkpt lat="42.569332988932729" lon="2.522895019501448">
        <ele>583.65999999999997</ele>
        <time>2025-05-15T08:56:11Z</time>
      </trkpt>
      <trkpt lat="42.569268029183149" lon="2.523000966757536">
        <ele>584.13999999999999</ele>
        <time>2025-05-15T08:56:12Z</time>
      </trkpt>
      <trkpt lat="42.569197034463286" lon="2.52311596646905">
        <ele>585.10000000000002</ele>
        <time>2025-05-15T08:56:13Z</time>
      </trkpt>
      <trkpt lat="42.568956976756454" lon="2.523484015837312">
        <ele>586.05999999999995</ele>
        <time>2025-05-15T08:56:16Z</time>
      </trkpt>
      <trkpt lat="42.568873995915055" lon="2.523565990850329">
        <ele>586.05999999999995</ele>
        <time>2025-05-15T08:56:17Z</time>
      </trkpt>
      <trkpt lat="42.568591022863984" lon="2.523745028302074">
        <ele>587.98000000000002</ele>
        <time>2025-05-15T08:56:20Z</time>
      </trkpt>
      <trkpt lat="42.568478034809232" lon="2.523807976394892">
        <ele>587.98000000000002</ele>
        <time>2025-05-15T08:56:21Z</time>
      </trkpt>
      <trkpt lat="42.568362029269338" lon="2.523857010528445">
        <ele>588.46000000000004</ele>
        <time>2025-05-15T08:56:22Z</time>
      </trkpt>
      <trkpt lat="42.568247029557824" lon="2.523896992206574">
        <ele>588.46000000000004</ele>
        <time>2025-05-15T08:56:23Z</time>
      </trkpt>
      <trkpt lat="42.568130018189549" lon="2.523937979713082">
        <ele>588.46000000000004</ele>
        <time>2025-05-15T08:56:24Z</time>
      </trkpt>
      <trkpt lat="42.568020969629288" lon="2.523976033553481">
        <ele>588.95000000000005</ele>
        <time>2025-05-15T08:56:25Z</time>
      </trkpt>
      <trkpt lat="42.567932037636638" lon="2.524047028273344">
        <ele>588.95000000000005</ele>
        <time>2025-05-15T08:56:26Z</time>
      </trkpt>
      <trkpt lat="42.567847967147827" lon="2.524121962487698">
        <ele>588.95000000000005</ele>
        <time>2025-05-15T08:56:27Z</time>
      </trkpt>
      <trkpt lat="42.567786024883389" lon="2.524224976077676">
        <ele>589.42999999999995</ele>
        <time>2025-05-15T08:56:28Z</time>
      </trkpt>
      <trkpt lat="42.567722992971539" lon="2.524337964132428">
        <ele>589.42999999999995</ele>
        <time>2025-05-15T08:56:29Z</time>
      </trkpt>
      <trkpt lat="42.567661972716451" lon="2.524451036006212">
        <ele>589.42999999999995</ele>
        <time>2025-05-15T08:56:30Z</time>
      </trkpt>
      <trkpt lat="42.567603969946504" lon="2.524554971605539">
        <ele>589.42999999999995</ele>
        <time>2025-05-15T08:56:31Z</time>
      </trkpt>
      <trkpt lat="42.567514032125473" lon="2.524609034880996">
        <ele>589.42999999999995</ele>
        <time>2025-05-15T08:56:32Z</time>
      </trkpt>
      <trkpt lat="42.567417975515127" lon="2.524663014337421">
        <ele>589.42999999999995</ele>
        <time>2025-05-15T08:56:33Z</time>
      </trkpt>
      <trkpt lat="42.567329965531826" lon="2.524711964651942">
        <ele>589.42999999999995</ele>
        <time>2025-05-15T08:56:34Z</time>
      </trkpt>
      <trkpt lat="42.567257964983582" lon="2.524753035977483">
        <ele>589.42999999999995</ele>
        <time>2025-05-15T08:56:35Z</time>
      </trkpt>
      <trkpt lat="42.567198034375906" lon="2.524844985455275">
        <ele>589.42999999999995</ele>
        <time>2025-05-15T08:56:36Z</time>
      </trkpt>
      <trkpt lat="42.567129973322153" lon="2.524949004873633">
        <ele>588.95000000000005</ele>
        <time>2025-05-15T08:56:37Z</time>
      </trkpt>
      <trkpt lat="42.567054033279419" lon="2.525064004585147">
        <ele>588.46000000000004</ele>
        <time>2025-05-15T08:56:38Z</time>
      </trkpt>
      <trkpt lat="42.566967029124498" lon="2.52519803121686">
        <ele>587.98000000000002</ele>
        <time>2025-05-15T08:56:39Z</time>
      </trkpt>
      <trkpt lat="42.566873989999294" lon="2.525339014828205">
        <ele>587.5</ele>
        <time>2025-05-15T08:56:40Z</time>
      </trkpt>
      <trkpt lat="42.566787991672754" lon="2.525489972904325">
        <ele>586.53999999999996</ele>
        <time>2025-05-15T08:56:41Z</time>
      </trkpt>
      <trkpt lat="42.566338973119855" lon="2.526312991976738">
        <ele>583.65999999999997</ele>
        <time>2025-05-15T08:56:47Z</time>
      </trkpt>
      <trkpt lat="42.566268984228373" lon="2.526376023888588">
        <ele>583.17999999999995</ele>
        <time>2025-05-15T08:56:48Z</time>
      </trkpt>
      <trkpt lat="42.566201006993651" lon="2.526434026658535">
        <ele>582.70000000000005</ele>
        <time>2025-05-15T08:56:49Z</time>
      </trkpt>
      <trkpt lat="42.566134035587311" lon="2.526450036093593">
        <ele>581.73000000000002</ele>
        <time>2025-05-15T08:56:50Z</time>
      </trkpt>
      <trkpt lat="42.566062035039067" lon="2.526453975588083">
        <ele>581.73000000000002</ele>
        <time>2025-05-15T08:56:51Z</time>
      </trkpt>
      <trkpt lat="42.565991040319204" lon="2.526457998901606">
        <ele>581.25</ele>
        <time>2025-05-15T08:56:52Z</time>
      </trkpt>
      <trkpt lat="42.56592096760869" lon="2.526462022215128">
        <ele>580.76999999999998</ele>
        <time>2025-05-15T08:56:53Z</time>
      </trkpt>
      <trkpt lat="42.565241027623415" lon="2.526321038603783">
        <ele>576.92999999999995</ele>
        <time>2025-05-15T08:57:03Z</time>
      </trkpt>
      <trkpt lat="42.565112030133605" lon="2.526238979771733">
        <ele>575.97000000000003</ele>
        <time>2025-05-15T08:57:05Z</time>
      </trkpt>
      <trkpt lat="42.565035000443459" lon="2.526206038892269">
        <ele>575.49000000000001</ele>
        <time>2025-05-15T08:57:06Z</time>
      </trkpt>
      <trkpt lat="42.564894016832113" lon="2.526180977001786">
        <ele>575.00999999999999</ele>
        <time>2025-05-15T08:57:08Z</time>
      </trkpt>
      <trkpt lat="42.564824027940631" lon="2.52616798505187">
        <ele>575.00999999999999</ele>
        <time>2025-05-15T08:57:09Z</time>
      </trkpt>
      <trkpt lat="42.564625041559339" lon="2.526174020022154">
        <ele>574.52999999999997</ele>
        <time>2025-05-15T08:57:12Z</time>
      </trkpt>
      <trkpt lat="42.564503001049161" lon="2.526215007528663">
        <ele>574.52999999999997</ele>
        <time>2025-05-15T08:57:14Z</time>
      </trkpt>
      <trkpt lat="42.564446004107594" lon="2.526235040277243">
        <ele>574.52999999999997</ele>
        <time>2025-05-15T08:57:15Z</time>
      </trkpt>
      <trkpt lat="42.564396969974041" lon="2.526283990591765">
        <ele>575.00999999999999</ele>
        <time>2025-05-15T08:57:16Z</time>
      </trkpt>
      <trkpt lat="42.564347013831139" lon="2.526345010846853">
        <ele>575.00999999999999</ele>
        <time>2025-05-15T08:57:17Z</time>
      </trkpt>
      <trkpt lat="42.56430895999074" lon="2.526416005566716">
        <ele>575.49000000000001</ele>
        <time>2025-05-15T08:57:18Z</time>
      </trkpt>
      <trkpt lat="42.564233019948006" lon="2.5265549775213">
        <ele>575.97000000000003</ele>
        <time>2025-05-15T08:57:20Z</time>
      </trkpt>
      <trkpt lat="42.564182979986072" lon="2.526629995554686">
        <ele>575.97000000000003</ele>
        <time>2025-05-15T08:57:21Z</time>
      </trkpt>
      <trkpt lat="42.564104022458196" lon="2.526748012751341">
        <ele>576.45000000000005</ele>
        <time>2025-05-15T08:57:23Z</time>
      </trkpt>
      <trkpt lat="42.564038978889585" lon="2.526801992207766">
        <ele>576.92999999999995</ele>
        <time>2025-05-15T08:57:24Z</time>
      </trkpt>
      <trkpt lat="42.563983993604779" lon="2.526848008856177">
        <ele>577.40999999999997</ele>
        <time>2025-05-15T08:57:25Z</time>
      </trkpt>
      <trkpt lat="42.563936971127987" lon="2.526844991371036">
        <ele>577.40999999999997</ele>
        <time>2025-05-15T08:57:26Z</time>
      </trkpt>
      <trkpt lat="42.563866982236505" lon="2.526825964450836">
        <ele>577.88999999999999</ele>
        <time>2025-05-15T08:57:27Z</time>
      </trkpt>
      <trkpt lat="42.563796993345022" lon="2.526807021349669">
        <ele>577.88999999999999</ele>
        <time>2025-05-15T08:57:28Z</time>
      </trkpt>
      <trkpt lat="42.563482001423836" lon="2.526722028851509">
        <ele>579.80999999999995</ele>
        <time>2025-05-15T08:57:32Z</time>
      </trkpt>
      <trkpt lat="42.563400026410818" lon="2.526700990274549">
        <ele>580.28999999999996</ele>
        <time>2025-05-15T08:57:33Z</time>
      </trkpt>
      <trkpt lat="42.563316039741039" lon="2.526687998324633">
        <ele>580.76999999999998</ele>
        <time>2025-05-15T08:57:34Z</time>
      </trkpt>
      <trkpt lat="42.563223000615835" lon="2.526715993881226">
        <ele>581.73000000000002</ele>
        <time>2025-05-15T08:57:35Z</time>
      </trkpt>
      <trkpt lat="42.563114035874605" lon="2.526752036064863">
        <ele>583.17999999999995</ele>
        <time>2025-05-15T08:57:36Z</time>
      </trkpt>
      <trkpt lat="42.563032982870936" lon="2.526844991371036">
        <ele>584.13999999999999</ele>
        <time>2025-05-15T08:57:37Z</time>
      </trkpt>
      <trkpt lat="42.562952013686299" lon="2.52693903632462">
        <ele>585.58000000000004</ele>
        <time>2025-05-15T08:57:38Z</time>
      </trkpt>
      <trkpt lat="42.562391012907028" lon="2.527689971029759">
        <ele>592.30999999999995</ele>
        <time>2025-05-15T08:57:46Z</time>
      </trkpt>
      <trkpt lat="42.562328986823559" lon="2.527786027640104">
        <ele>593.26999999999998</ele>
        <time>2025-05-15T08:57:47Z</time>
      </trkpt>
      <trkpt lat="42.562257992103696" lon="2.527895998209715">
        <ele>594.23000000000002</ele>
        <time>2025-05-15T08:57:48Z</time>
      </trkpt>
      <trkpt lat="42.562186997383833" lon="2.528038993477821">
        <ele>595.66999999999996</ele>
        <time>2025-05-15T08:57:49Z</time>
      </trkpt>
      <trkpt lat="42.562118014320731" lon="2.528191963210702">
        <ele>597.12</ele>
        <time>2025-05-15T08:57:50Z</time>
      </trkpt>
      <trkpt lat="42.562044002115726" lon="2.528352979570627">
        <ele>599.03999999999996</ele>
        <time>2025-05-15T08:57:51Z</time>
      </trkpt>
      <trkpt lat="42.561798999086022" lon="2.528803003951907">
        <ele>604.80999999999995</ele>
        <time>2025-05-15T08:57:54Z</time>
      </trkpt>
      <trkpt lat="42.561262976378202" lon="2.529551004990935">
        <ele>611.05999999999995</ele>
        <time>2025-05-15T08:57:59Z</time>
      </trkpt>
      <trkpt lat="42.56089098751545" lon="2.530213007703424">
        <ele>615.86000000000001</ele>
        <time>2025-05-15T08:58:03Z</time>
      </trkpt>
      <trkpt lat="42.560814041644335" lon="2.530385004356504">
        <ele>617.29999999999995</ele>
        <time>2025-05-15T08:58:04Z</time>
      </trkpt>
      <trkpt lat="42.560602985322475" lon="2.530794963240624">
        <ele>621.14999999999998</ele>
        <time>2025-05-15T08:58:07Z</time>
      </trkpt>
      <trkpt lat="42.560541965067387" lon="2.530854977667332">
        <ele>622.59000000000003</ele>
        <time>2025-05-15T08:58:08Z</time>
      </trkpt>
      <trkpt lat="42.56046200171113" lon="2.530909040942788">
        <ele>624.02999999999997</ele>
        <time>2025-05-15T08:58:09Z</time>
      </trkpt>
      <trkpt lat="42.560385977849364" lon="2.530962014570832">
        <ele>625.47000000000003</ele>
        <time>2025-05-15T08:58:10Z</time>
      </trkpt>
      <trkpt lat="42.56030903197825" lon="2.531014988198876">
        <ele>626.44000000000005</ele>
        <time>2025-05-15T08:58:11Z</time>
      </trkpt>
      <trkpt lat="42.56022403948009" lon="2.531120013445616">
        <ele>627.39999999999998</ele>
        <time>2025-05-15T08:58:12Z</time>
      </trkpt>
      <trkpt lat="42.560191014781594" lon="2.531235013157129">
        <ele>628.36000000000001</ele>
        <time>2025-05-15T08:58:13Z</time>
      </trkpt>
      <trkpt lat="42.560153966769576" lon="2.531360993161798">
        <ele>629.32000000000005</ele>
        <time>2025-05-15T08:58:14Z</time>
      </trkpt>
      <trkpt lat="42.560035027563572" lon="2.531625023111701">
        <ele>631.24000000000001</ele>
        <time>2025-05-15T08:58:16Z</time>
      </trkpt>
      <trkpt lat="42.559964032843709" lon="2.531767012551427">
        <ele>632.20000000000005</ele>
        <time>2025-05-15T08:58:17Z</time>
      </trkpt>
      <trkpt lat="42.55981701426208" lon="2.532060965895653">
        <ele>633.64999999999998</ele>
        <time>2025-05-15T08:58:19Z</time>
      </trkpt>
      <trkpt lat="42.559275962412357" lon="2.533035026863217">
        <ele>639.40999999999997</ele>
        <time>2025-05-15T08:58:26Z</time>
      </trkpt>
      <trkpt lat="42.559190969914198" lon="2.533098980784416">
        <ele>639.88999999999999</ele>
        <time>2025-05-15T08:58:27Z</time>
      </trkpt>
      <trkpt lat="42.559105977416039" lon="2.533090012148023">
        <ele>640.86000000000001</ele>
        <time>2025-05-15T08:58:28Z</time>
      </trkpt>
      <trkpt lat="42.558774976059794" lon="2.533051958307624">
        <ele>642.29999999999995</ele>
        <time>2025-05-15T08:58:31Z</time>
      </trkpt>
      <trkpt lat="42.558631980791688" lon="2.533035026863217">
        <ele>643.25999999999999</ele>
        <time>2025-05-15T08:58:32Z</time>
      </trkpt>
      <trkpt lat="42.558512035757303" lon="2.533081965520978">
        <ele>643.74000000000001</ele>
        <time>2025-05-15T08:58:33Z</time>
      </trkpt>
      <trkpt lat="42.558385971933603" lon="2.533132005482912">
        <ele>644.70000000000005</ele>
        <time>2025-05-15T08:58:34Z</time>
      </trkpt>
      <trkpt lat="42.558260997757316" lon="2.533181039616466">
        <ele>645.17999999999995</ele>
        <time>2025-05-15T08:58:35Z</time>
      </trkpt>
      <trkpt lat="42.558132000267506" lon="2.533232001587749">
        <ele>646.13999999999999</ele>
        <time>2025-05-15T08:58:36Z</time>
      </trkpt>
      <trkpt lat="42.558008031919599" lon="2.533284975215793">
        <ele>646.62</ele>
        <time>2025-05-15T08:58:37Z</time>
      </trkpt>
      <trkpt lat="42.557892026379704" lon="2.533349012956023">
        <ele>647.10000000000002</ele>
        <time>2025-05-15T08:58:38Z</time>
      </trkpt>
      <trkpt lat="42.557575022801757" lon="2.533526960760355">
        <ele>649.02999999999997</ele>
        <time>2025-05-15T08:58:41Z</time>
      </trkpt>
      <trkpt lat="42.55747502669692" lon="2.533564008772373">
        <ele>649.50999999999999</ele>
        <time>2025-05-15T08:58:42Z</time>
      </trkpt>
      <trkpt lat="42.557381987571716" lon="2.533528972417116">
        <ele>649.99000000000001</ele>
        <time>2025-05-15T08:58:43Z</time>
      </trkpt>
      <trkpt lat="42.557284003123641" lon="2.533457977697253">
        <ele>650.47000000000003</ele>
        <time>2025-05-15T08:58:44Z</time>
      </trkpt>
      <trkpt lat="42.557237986475229" lon="2.533399974927306">
        <ele>651.42999999999995</ele>
        <time>2025-05-15T08:58:45Z</time>
      </trkpt>
      <trkpt lat="42.557164980098605" lon="2.533224038779736">
        <ele>652.38999999999999</ele>
        <time>2025-05-15T08:58:46Z</time>
      </trkpt>
      <trkpt lat="42.5571099948138" lon="2.533091017976403">
        <ele>653.35000000000002</ele>
        <time>2025-05-15T08:58:47Z</time>
      </trkpt>
      <trkpt lat="42.557051992043853" lon="2.532951040193439">
        <ele>654.30999999999995</ele>
        <time>2025-05-15T08:58:48Z</time>
      </trkpt>
      <trkpt lat="42.556905979290605" lon="2.532704025506973">
        <ele>656.24000000000001</ele>
        <time>2025-05-15T08:58:50Z</time>
      </trkpt>
      <trkpt lat="42.55680900067091" lon="2.532606963068247">
        <ele>656.72000000000003</ele>
        <time>2025-05-15T08:58:51Z</time>
      </trkpt>
      <trkpt lat="42.556707998737693" lon="2.53250596113503">
        <ele>658.15999999999997</ele>
        <time>2025-05-15T08:58:52Z</time>
      </trkpt>
      <trkpt lat="42.55659400485456" lon="2.532391967251897">
        <ele>659.12</ele>
        <time>2025-05-15T08:58:53Z</time>
      </trkpt>
      <trkpt lat="42.556484034284949" lon="2.532327007502317">
        <ele>660.55999999999995</ele>
        <time>2025-05-15T08:58:54Z</time>
      </trkpt>
      <trkpt lat="42.556130988523364" lon="2.532206978648901">
        <ele>663.92999999999995</ele>
        <time>2025-05-15T08:58:57Z</time>
      </trkpt>
      <trkpt lat="42.556027974933386" lon="2.532221982255578">
        <ele>665.37</ele>
        <time>2025-05-15T08:58:58Z</time>
      </trkpt>
      <trkpt lat="42.555919010192156" lon="2.532274033874273">
        <ele>666.33000000000004</ele>
        <time>2025-05-15T08:58:59Z</time>
      </trkpt>
      <trkpt lat="42.555801998823881" lon="2.532328013330698">
        <ele>667.76999999999998</ele>
        <time>2025-05-15T08:59:00Z</time>
      </trkpt>
      <trkpt lat="42.555689010769129" lon="2.532392973080277">
        <ele>668.73000000000002</ele>
        <time>2025-05-15T08:59:01Z</time>
      </trkpt>
      <trkpt lat="42.555579962208867" lon="2.532494980841875">
        <ele>669.70000000000005</ele>
        <time>2025-05-15T08:59:02Z</time>
      </trkpt>
      <trkpt lat="42.555477032437921" lon="2.532591037452221">
        <ele>670.65999999999997</ele>
        <time>2025-05-15T08:59:03Z</time>
      </trkpt>
      <trkpt lat="42.555386004969478" lon="2.532679969444871">
        <ele>671.62</ele>
        <time>2025-05-15T08:59:04Z</time>
      </trkpt>
      <trkpt lat="42.555311992764473" lon="2.532798992469907">
        <ele>672.58000000000004</ele>
        <time>2025-05-15T08:59:05Z</time>
      </trkpt>
      <trkpt lat="42.555235968902707" lon="2.532919021323323">
        <ele>673.05999999999995</ele>
        <time>2025-05-15T08:59:06Z</time>
      </trkpt>
      <trkpt lat="42.555153993889689" lon="2.533050030469894">
        <ele>673.53999999999996</ele>
        <time>2025-05-15T08:59:07Z</time>
      </trkpt>
      <trkpt lat="42.554988032206893" lon="2.533312970772386">
        <ele>674.98000000000002</ele>
        <time>2025-05-15T08:59:09Z</time>
      </trkpt>
      <trkpt lat="42.55491997115314" lon="2.533422019332647">
        <ele>675.94000000000005</ele>
        <time>2025-05-15T08:59:10Z</time>
      </trkpt>
      <trkpt lat="42.55487697198987" lon="2.533563002943993">
        <ele>676.41999999999996</ele>
        <time>2025-05-15T08:59:11Z</time>
      </trkpt>
      <trkpt lat="42.554835984483361" lon="2.533697029575706">
        <ele>676.90999999999997</ele>
        <time>2025-05-15T08:59:12Z</time>
      </trkpt>
      <trkpt lat="42.554792985320091" lon="2.533841030672193">
        <ele>677.38999999999999</ele>
        <time>2025-05-15T08:59:13Z</time>
      </trkpt>
      <trkpt lat="42.55472500808537" lon="2.533995006233454">
        <ele>677.38999999999999</ele>
        <time>2025-05-15T08:59:14Z</time>
      </trkpt>
      <trkpt lat="42.554643033072352" lon="2.534140013158321">
        <ele>677.87</ele>
        <time>2025-05-15T08:59:15Z</time>
      </trkpt>
      <trkpt lat="42.554560974240303" lon="2.534285020083189">
        <ele>677.87</ele>
        <time>2025-05-15T08:59:16Z</time>
      </trkpt>
      <trkpt lat="42.554486962035298" lon="2.534419968724251">
        <ele>678.35000000000002</ele>
        <time>2025-05-15T08:59:17Z</time>
      </trkpt>
      <trkpt lat="42.554436000064015" lon="2.534562963992357">
        <ele>678.35000000000002</ele>
        <time>2025-05-15T08:59:18Z</time>
      </trkpt>
      <trkpt lat="42.554346984252334" lon="2.534855995327234">
        <ele>678.83000000000004</ele>
        <time>2025-05-15T08:59:20Z</time>
      </trkpt>
      <trkpt lat="42.554318988695741" lon="2.535008965060115">
        <ele>678.83000000000004</ele>
        <time>2025-05-15T08:59:21Z</time>
      </trkpt>
      <trkpt lat="42.554325023666024" lon="2.535142991691828">
        <ele>679.30999999999995</ele>
        <time>2025-05-15T08:59:22Z</time>
      </trkpt>
      <trkpt lat="42.554329968988895" lon="2.535264026373625">
        <ele>679.30999999999995</ele>
        <time>2025-05-15T08:59:23Z</time>
      </trkpt>
      <trkpt lat="42.554334998130798" lon="2.535376008599997">
        <ele>679.30999999999995</ele>
        <time>2025-05-15T08:59:24Z</time>
      </trkpt>
      <trkpt lat="42.554341033101082" lon="2.535502994433045">
        <ele>679.78999999999996</ele>
        <time>2025-05-15T08:59:25Z</time>
      </trkpt>
      <trkpt lat="42.554284958168864" lon="2.535588992759585">
        <ele>680.26999999999998</ele>
        <time>2025-05-15T08:59:26Z</time>
      </trkpt>
      <trkpt lat="42.554215975105762" lon="2.535694018006325">
        <ele>680.26999999999998</ele>
        <time>2025-05-15T08:59:27Z</time>
      </trkpt>
      <trkpt lat="42.554141962900758" lon="2.535808011889458">
        <ele>680.26999999999998</ele>
        <time>2025-05-15T08:59:28Z</time>
      </trkpt>
      <trkpt lat="42.554050013422966" lon="2.53594103269279">
        <ele>680.75</ele>
        <time>2025-05-15T08:59:29Z</time>
      </trkpt>
      <trkpt lat="42.553854966536164" lon="2.536086961627007">
        <ele>680.75</ele>
        <time>2025-05-15T08:59:31Z</time>
      </trkpt>
      <trkpt lat="42.55369202233851" lon="2.536209002137184">
        <ele>681.23000000000002</ele>
        <time>2025-05-15T08:59:33Z</time>
      </trkpt>
      <trkpt lat="42.553632007911801" lon="2.536263987421989">
        <ele>681.71000000000004</ele>
        <time>2025-05-15T08:59:34Z</time>
      </trkpt>
      <trkpt lat="42.553621027618647" lon="2.536363983526826">
        <ele>682.19000000000005</ele>
        <time>2025-05-15T08:59:35Z</time>
      </trkpt>
      <trkpt lat="42.553623961284757" lon="2.536456016823649">
        <ele>682.66999999999996</ele>
        <time>2025-05-15T08:59:36Z</time>
      </trkpt>
      <trkpt lat="42.553684981539845" lon="2.536503039300442">
        <ele>683.14999999999998</ele>
        <time>2025-05-15T08:59:37Z</time>
      </trkpt>
      <trkpt lat="42.553756982088089" lon="2.536546960473061">
        <ele>683.63</ele>
        <time>2025-05-15T08:59:38Z</time>
      </trkpt>
      <trkpt lat="42.553829988464713" lon="2.536590965464711">
        <ele>684.12</ele>
        <time>2025-05-15T08:59:39Z</time>
      </trkpt>
      <trkpt lat="42.553911963477731" lon="2.536639999598265">
        <ele>684.60000000000002</ele>
        <time>2025-05-15T08:59:40Z</time>
      </trkpt>
      <trkpt lat="42.553915986791253" lon="2.536712000146508">
        <ele>685.08000000000004</ele>
        <time>2025-05-15T08:59:41Z</time>
      </trkpt>
      <trkpt lat="42.553921015933156" lon="2.536800010129809">
        <ele>685.55999999999995</ele>
        <time>2025-05-15T08:59:42Z</time>
      </trkpt>
      <trkpt lat="42.553926967084408" lon="2.536894977092743">
        <ele>686.03999999999996</ele>
        <time>2025-05-15T08:59:43Z</time>
      </trkpt>
      <trkpt lat="42.553934007883072" lon="2.537005031481385">
        <ele>686.51999999999998</ele>
        <time>2025-05-15T08:59:44Z</time>
      </trkpt>
      <trkpt lat="42.553941970691085" lon="2.537140985950828">
        <ele>686.51999999999998</ele>
        <time>2025-05-15T08:59:45Z</time>
      </trkpt>
      <trkpt lat="42.553952028974891" lon="2.53729403950274">
        <ele>687</ele>
        <time>2025-05-15T08:59:46Z</time>
      </trkpt>
      <trkpt lat="42.553969966247678" lon="2.537590004503727">
        <ele>687.96000000000004</ele>
        <time>2025-05-15T08:59:48Z</time>
      </trkpt>
      <trkpt lat="42.55397298373282" lon="2.537709027528763">
        <ele>688.91999999999996</ele>
        <time>2025-05-15T08:59:49Z</time>
      </trkpt>
      <trkpt lat="42.553925039246678" lon="2.537981020286679">
        <ele>691.33000000000004</ele>
        <time>2025-05-15T08:59:51Z</time>
      </trkpt>
      <trkpt lat="42.553884973749518" lon="2.538110017776489">
        <ele>692.28999999999996</ele>
        <time>2025-05-15T08:59:52Z</time>
      </trkpt>
      <trkpt lat="42.553823031485081" lon="2.538233986124396">
        <ele>693.25</ele>
        <time>2025-05-15T08:59:53Z</time>
      </trkpt>
      <trkpt lat="42.553761005401611" lon="2.538358038291335">
        <ele>694.21000000000004</ele>
        <time>2025-05-15T08:59:54Z</time>
      </trkpt>
      <trkpt lat="42.553700990974903" lon="2.53847798332572">
        <ele>695.16999999999996</ele>
        <time>2025-05-15T08:59:55Z</time>
      </trkpt>
      <trkpt lat="42.553657991811633" lon="2.538602035492659">
        <ele>696.13</ele>
        <time>2025-05-15T08:59:56Z</time>
      </trkpt>
      <trkpt lat="42.55362899042666" lon="2.538726003840566">
        <ele>696.61000000000001</ele>
        <time>2025-05-15T08:59:57Z</time>
      </trkpt>
      <trkpt lat="42.553599989041686" lon="2.538847038522363">
        <ele>697.57000000000005</ele>
        <time>2025-05-15T08:59:58Z</time>
      </trkpt>
      <trkpt lat="42.553567970171571" lon="2.538978969678283">
        <ele>698.04999999999995</ele>
        <time>2025-05-15T08:59:59Z</time>
      </trkpt>
      <trkpt lat="42.553506027907133" lon="2.539022974669933">
        <ele>699.01999999999998</ele>
        <time>2025-05-15T09:00:00Z</time>
      </trkpt>
      <trkpt lat="42.553447019308805" lon="2.539063962176442">
        <ele>699.5</ele>
        <time>2025-05-15T09:00:01Z</time>
      </trkpt>
      <trkpt lat="42.553353980183601" lon="2.539129005745053">
        <ele>699.98000000000002</ele>
        <time>2025-05-15T09:00:02Z</time>
      </trkpt>
      <trkpt lat="42.553258007392287" lon="2.539103021845222">
        <ele>699.98000000000002</ele>
        <time>2025-05-15T09:00:03Z</time>
      </trkpt>
      <trkpt lat="42.553152982145548" lon="2.539074020460248">
        <ele>700.46000000000004</ele>
        <time>2025-05-15T09:00:04Z</time>
      </trkpt>
      <trkpt lat="42.553038988262415" lon="2.539042001590133">
        <ele>700.94000000000005</ele>
        <time>2025-05-15T09:00:05Z</time>
      </trkpt>
      <trkpt lat="42.552802031859756" lon="2.538976036012173">
        <ele>702.38</ele>
        <time>2025-05-15T09:00:07Z</time>
      </trkpt>
      <trkpt lat="42.552677979692817" lon="2.538942005485296">
        <ele>702.86000000000001</ele>
        <time>2025-05-15T09:00:08Z</time>
      </trkpt>
      <trkpt lat="42.552564991638064" lon="2.538919961079955">
        <ele>703.82000000000005</ele>
        <time>2025-05-15T09:00:09Z</time>
      </trkpt>
      <trkpt lat="42.552433982491493" lon="2.538961032405496">
        <ele>704.29999999999995</ele>
        <time>2025-05-15T09:00:10Z</time>
      </trkpt>
      <trkpt lat="42.552312025800347" lon="2.539000008255243">
        <ele>704.77999999999997</ele>
        <time>2025-05-15T09:00:11Z</time>
      </trkpt>
      <trkpt lat="42.552173975855112" lon="2.539043007418513">
        <ele>705.25999999999999</ele>
        <time>2025-05-15T09:00:12Z</time>
      </trkpt>
      <trkpt lat="42.55210499279201" lon="2.539130011573434">
        <ele>706.23000000000002</ele>
        <time>2025-05-15T09:00:13Z</time>
      </trkpt>
      <trkpt lat="42.552022011950612" lon="2.539235958829522">
        <ele>706.71000000000004</ele>
        <time>2025-05-15T09:00:14Z</time>
      </trkpt>
      <trkpt lat="42.551368977874517" lon="2.53981196321547">
        <ele>709.11000000000001</ele>
        <time>2025-05-15T09:00:20Z</time>
      </trkpt>
      <trkpt lat="42.551179965957999" lon="2.540073981508613">
        <ele>710.07000000000005</ele>
        <time>2025-05-15T09:00:22Z</time>
      </trkpt>
      <trkpt lat="42.551121041178703" lon="2.540209013968706">
        <ele>710.54999999999995</ele>
        <time>2025-05-15T09:00:23Z</time>
      </trkpt>
      <trkpt lat="42.551055997610092" lon="2.540369024500251">
        <ele>711.02999999999997</ele>
        <time>2025-05-15T09:00:24Z</time>
      </trkpt>
      <trkpt lat="42.551035964861512" lon="2.540530962869525">
        <ele>711.50999999999999</ele>
        <time>2025-05-15T09:00:25Z</time>
      </trkpt>
      <trkpt lat="42.551017021760345" lon="2.54069197922945">
        <ele>711.99000000000001</ele>
        <time>2025-05-15T09:00:26Z</time>
      </trkpt>
      <trkpt lat="42.550972010940313" lon="2.541081989184022">
        <ele>713.91999999999996</ele>
        <time>2025-05-15T09:00:29Z</time>
      </trkpt>
      <trkpt lat="42.550933035090566" lon="2.541159018874168">
        <ele>714.39999999999998</ele>
        <time>2025-05-15T09:00:30Z</time>
      </trkpt>
      <trkpt lat="42.550894981250167" lon="2.541235964745283">
        <ele>715.36000000000001</ele>
        <time>2025-05-15T09:00:31Z</time>
      </trkpt>
      <trkpt lat="42.550817029550672" lon="2.54126999527216">
        <ele>715.84000000000003</ele>
        <time>2025-05-15T09:00:32Z</time>
      </trkpt>
      <trkpt lat="42.550720972940326" lon="2.541292039677501">
        <ele>716.79999999999995</ele>
        <time>2025-05-15T09:00:33Z</time>
      </trkpt>
      <trkpt lat="42.550606979057193" lon="2.541318023577333">
        <ele>717.27999999999997</ele>
        <time>2025-05-15T09:00:34Z</time>
      </trkpt>
      <trkpt lat="42.550487034022808" lon="2.541346019133925">
        <ele>717.75999999999999</ele>
        <time>2025-05-15T09:00:35Z</time>
      </trkpt>
      <trkpt lat="42.55036499351263" lon="2.541374014690518">
        <ele>718.24000000000001</ele>
        <time>2025-05-15T09:00:36Z</time>
      </trkpt>
      <trkpt lat="42.550243958830833" lon="2.541439980268478">
        <ele>718.72000000000003</ele>
        <time>2025-05-15T09:00:37Z</time>
      </trkpt>
      <trkpt lat="42.550124013796449" lon="2.541522039100528">
        <ele>719.20000000000005</ele>
        <time>2025-05-15T09:00:38Z</time>
      </trkpt>
      <trkpt lat="42.549906000494957" lon="2.54168095998466">
        <ele>720.64999999999998</ele>
        <time>2025-05-15T09:00:40Z</time>
      </trkpt>
      <trkpt lat="42.549812961369753" lon="2.541811969131231">
        <ele>721.61000000000001</ele>
        <time>2025-05-15T09:00:41Z</time>
      </trkpt>
      <trkpt lat="42.54980499856174" lon="2.541931997984648">
        <ele>723.04999999999995</ele>
        <time>2025-05-15T09:00:42Z</time>
      </trkpt>
      <trkpt lat="42.549783959984779" lon="2.54215001128614">
        <ele>725.45000000000005</ele>
        <time>2025-05-15T09:00:44Z</time>
      </trkpt>
      <trkpt lat="42.549743978306651" lon="2.542227962985635">
        <ele>726.40999999999997</ele>
        <time>2025-05-15T09:00:45Z</time>
      </trkpt>
      <trkpt lat="42.549726963043213" lon="2.542261993512511">
        <ele>727.37</ele>
        <time>2025-05-15T09:00:46Z</time>
      </trkpt>
      <trkpt lat="42.549682036042213" lon="2.542251013219357">
        <ele>727.37</ele>
        <time>2025-05-15T09:00:47Z</time>
      </trkpt>
      <trkpt lat="42.549638031050563" lon="2.54223600961268">
        <ele>727.86000000000001</ele>
        <time>2025-05-15T09:00:48Z</time>
      </trkpt>
      <trkpt lat="42.549580028280616" lon="2.542164009064436">
        <ele>728.34000000000003</ele>
        <time>2025-05-15T09:00:49Z</time>
      </trkpt>
      <trkpt lat="42.549512973055243" lon="2.542079016566277">
        <ele>728.82000000000005</ele>
        <time>2025-05-15T09:00:50Z</time>
      </trkpt>
      <trkpt lat="42.549424041062593" lon="2.542011039331555">
        <ele>729.77999999999997</ele>
        <time>2025-05-15T09:00:51Z</time>
      </trkpt>
      <trkpt lat="42.549300994724035" lon="2.542023025453091">
        <ele>730.74000000000001</ele>
        <time>2025-05-15T09:00:52Z</time>
      </trkpt>
      <trkpt lat="42.549210973083973" lon="2.542115980759263">
        <ele>731.70000000000005</ele>
        <time>2025-05-15T09:00:53Z</time>
      </trkpt>
      <trkpt lat="42.549165962263942" lon="2.542232992127538">
        <ele>732.17999999999995</ele>
        <time>2025-05-15T09:00:54Z</time>
      </trkpt>
      <trkpt lat="42.549040988087654" lon="2.542562987655401">
        <ele>732.65999999999997</ele>
        <time>2025-05-15T09:00:57Z</time>
      </trkpt>
      <trkpt lat="42.548972005024552" lon="2.542660972103477">
        <ele>732.65999999999997</ele>
        <time>2025-05-15T09:00:58Z</time>
      </trkpt>
      <trkpt lat="42.548891035839915" lon="2.542776977643371">
        <ele>733.13999999999999</ele>
        <time>2025-05-15T09:00:59Z</time>
      </trkpt>
      <trkpt lat="42.548844013363123" lon="2.542786030098796">
        <ele>733.13999999999999</ele>
        <time>2025-05-15T09:01:00Z</time>
      </trkpt>
      <trkpt lat="42.548738988116384" lon="2.542806984856725">
        <ele>733.62</ele>
        <time>2025-05-15T09:01:01Z</time>
      </trkpt>
      <trkpt lat="42.548617031425238" lon="2.54281796514988">
        <ele>734.10000000000002</ele>
        <time>2025-05-15T09:01:02Z</time>
      </trkpt>
      <trkpt lat="42.548477975651622" lon="2.542814025655389">
        <ele>735.07000000000005</ele>
        <time>2025-05-15T09:01:03Z</time>
      </trkpt>
      <trkpt lat="42.548336992040277" lon="2.542810002341867">
        <ele>736.02999999999997</ele>
        <time>2025-05-15T09:01:04Z</time>
      </trkpt>
      <trkpt lat="42.547968020662665" lon="2.542799022048712">
        <ele>737.95000000000005</ele>
        <time>2025-05-15T09:01:07Z</time>
      </trkpt>
      <trkpt lat="42.54784899763763" lon="2.542837997898459">
        <ele>738.42999999999995</ele>
        <time>2025-05-15T09:01:08Z</time>
      </trkpt>
      <trkpt lat="42.54778596572578" lon="2.54292500205338">
        <ele>738.90999999999997</ele>
        <time>2025-05-15T09:01:09Z</time>
      </trkpt>
      <trkpt lat="42.547714971005917" lon="2.543035978451371">
        <ele>739.38999999999999</ele>
        <time>2025-05-15T09:01:10Z</time>
      </trkpt>
      <trkpt lat="42.547688987106085" lon="2.54307696595788">
        <ele>740.35000000000002</ele>
        <time>2025-05-15T09:01:11Z</time>
      </trkpt>
      <trkpt lat="42.547639030963182" lon="2.543262960389257">
        <ele>740.83000000000004</ele>
        <time>2025-05-15T09:01:12Z</time>
      </trkpt>
      <trkpt lat="42.547605000436306" lon="2.543388018384576">
        <ele>741.78999999999996</ele>
        <time>2025-05-15T09:01:13Z</time>
      </trkpt>
      <trkpt lat="42.547572981566191" lon="2.543508969247341">
        <ele>742.27999999999997</ele>
        <time>2025-05-15T09:01:14Z</time>
      </trkpt>
      <trkpt lat="42.547539034858346" lon="2.543635033071041">
        <ele>743.24000000000001</ele>
        <time>2025-05-15T09:01:15Z</time>
      </trkpt>
      <trkpt lat="42.547457981854677" lon="2.543738968670368">
        <ele>743.72000000000003</ele>
        <time>2025-05-15T09:01:16Z</time>
      </trkpt>
      <trkpt lat="42.547383969649673" lon="2.543833013623953">
        <ele>744.67999999999995</ele>
        <time>2025-05-15T09:01:17Z</time>
      </trkpt>
      <trkpt lat="42.547309035435319" lon="2.543927980586886">
        <ele>745.15999999999997</ele>
        <time>2025-05-15T09:01:18Z</time>
      </trkpt>
      <trkpt lat="42.547230999916792" lon="2.544028982520104">
        <ele>746.12</ele>
        <time>2025-05-15T09:01:19Z</time>
      </trkpt>
      <trkpt lat="42.547152964398265" lon="2.54412897862494">
        <ele>746.60000000000002</ele>
        <time>2025-05-15T09:01:20Z</time>
      </trkpt>
      <trkpt lat="42.547060009092093" lon="2.544188993051648">
        <ele>747.08000000000004</ele>
        <time>2025-05-15T09:01:21Z</time>
      </trkpt>
      <trkpt lat="42.546966969966888" lon="2.544248001649976">
        <ele>747.55999999999995</ele>
        <time>2025-05-15T09:01:22Z</time>
      </trkpt>
      <trkpt lat="42.546851970255375" lon="2.544322013854981">
        <ele>747.55999999999995</ele>
        <time>2025-05-15T09:01:23Z</time>
      </trkpt>
      <trkpt lat="42.546803019940853" lon="2.544318996369839">
        <ele>748.03999999999996</ele>
        <time>2025-05-15T09:01:24Z</time>
      </trkpt>
      <trkpt lat="42.546702018007636" lon="2.544311033561826">
        <ele>748.03999999999996</ele>
        <time>2025-05-15T09:01:25Z</time>
      </trkpt>
      <trkpt lat="42.546609984710813" lon="2.544304998591542">
        <ele>748.03999999999996</ele>
        <time>2025-05-15T09:01:26Z</time>
      </trkpt>
      <trkpt lat="42.546531027182937" lon="2.544323019683361">
        <ele>748.03999999999996</ele>
        <time>2025-05-15T09:01:27Z</time>
      </trkpt>
      <trkpt lat="42.546481993049383" lon="2.544378004968166">
        <ele>748.03999999999996</ele>
        <time>2025-05-15T09:01:28Z</time>
      </trkpt>
      <trkpt lat="42.54643396474421" lon="2.544430978596211">
        <ele>748.03999999999996</ele>
        <time>2025-05-15T09:01:29Z</time>
      </trkpt>
      <trkpt lat="42.54638702608645" lon="2.544483030214906">
        <ele>748.03999999999996</ele>
        <time>2025-05-15T09:01:30Z</time>
      </trkpt>
      <trkpt lat="42.546359030529857" lon="2.544514965265989">
        <ele>748.03999999999996</ele>
        <time>2025-05-15T09:01:31Z</time>
      </trkpt>
      <trkpt lat="42.546274960041046" lon="2.544548995792866">
        <ele>748.03999999999996</ele>
        <time>2025-05-15T09:01:32Z</time>
      </trkpt>
      <trkpt lat="42.546113021671772" lon="2.544615967199206">
        <ele>748.03999999999996</ele>
        <time>2025-05-15T09:01:34Z</time>
      </trkpt>
      <trkpt lat="42.545854020863771" lon="2.54479399882257">
        <ele>748.51999999999998</ele>
        <time>2025-05-15T09:01:37Z</time>
      </trkpt>
      <trkpt lat="42.545736003667116" lon="2.54490103572607">
        <ele>748.51999999999998</ele>
        <time>2025-05-15T09:01:38Z</time>
      </trkpt>
      <trkpt lat="42.54572200588882" lon="2.544976975768805">
        <ele>747.55999999999995</ele>
        <time>2025-05-15T09:01:39Z</time>
      </trkpt>
      <trkpt lat="42.545699961483479" lon="2.545089041814208">
        <ele>747.08000000000004</ele>
        <time>2025-05-15T09:01:40Z</time>
      </trkpt>
      <trkpt lat="42.545676995068789" lon="2.545207981020212">
        <ele>746.60000000000002</ele>
        <time>2025-05-15T09:01:41Z</time>
      </trkpt>
      <trkpt lat="42.545651011168957" lon="2.545339995995164">
        <ele>746.12</ele>
        <time>2025-05-15T09:01:42Z</time>
      </trkpt>
      <trkpt lat="42.545569036155939" lon="2.545719025656581">
        <ele>745.63999999999999</ele>
        <time>2025-05-15T09:01:45Z</time>
      </trkpt>
      <trkpt lat="42.54552997648716" lon="2.545822961255908">
        <ele>745.63999999999999</ele>
        <time>2025-05-15T09:01:46Z</time>
      </trkpt>
      <trkpt lat="42.545496029779315" lon="2.545914994552732">
        <ele>745.63999999999999</ele>
        <time>2025-05-15T09:01:47Z</time>
      </trkpt>
      <trkpt lat="42.5454640109092" lon="2.54599898122251">
        <ele>745.63999999999999</ele>
        <time>2025-05-15T09:01:48Z</time>
      </trkpt>
      <trkpt lat="42.545382035896182" lon="2.546024965122342">
        <ele>745.63999999999999</ele>
        <time>2025-05-15T09:01:49Z</time>
      </trkpt>
      <trkpt lat="42.545294025912881" lon="2.546035023406148">
        <ele>745.63999999999999</ele>
        <time>2025-05-15T09:01:50Z</time>
      </trkpt>
      <trkpt lat="42.545181959867477" lon="2.546048015356064">
        <ele>745.15999999999997</ele>
        <time>2025-05-15T09:01:51Z</time>
      </trkpt>
      <trkpt lat="42.544577959924936" lon="2.546188998967409">
        <ele>745.63999999999999</ele>
        <time>2025-05-15T09:01:56Z</time>
      </trkpt>
      <trkpt lat="42.544452985748649" lon="2.546159997582436">
        <ele>745.63999999999999</ele>
        <time>2025-05-15T09:01:57Z</time>
      </trkpt>
      <trkpt lat="42.544358018785715" lon="2.546138036996126">
        <ele>746.12</ele>
        <time>2025-05-15T09:01:58Z</time>
      </trkpt>
      <trkpt lat="42.544276965782046" lon="2.546097971498966">
        <ele>746.12</ele>
        <time>2025-05-15T09:01:59Z</time>
      </trkpt>
      <trkpt lat="42.544203959405422" lon="2.546006022021174">
        <ele>746.60000000000002</ele>
        <time>2025-05-15T09:02:00Z</time>
      </trkpt>
      <trkpt lat="42.544131958857179" lon="2.545916000381112">
        <ele>747.08000000000004</ele>
        <time>2025-05-15T09:02:01Z</time>
      </trkpt>
      <trkpt lat="42.544061969965696" lon="2.545827990397811">
        <ele>747.55999999999995</ele>
        <time>2025-05-15T09:02:02Z</time>
      </trkpt>
      <trkpt lat="42.544046966359019" lon="2.545747021213174">
        <ele>748.03999999999996</ele>
        <time>2025-05-15T09:02:03Z</time>
      </trkpt>
      <trkpt lat="42.544058030471206" lon="2.545650964602828">
        <ele>748.51999999999998</ele>
        <time>2025-05-15T09:02:04Z</time>
      </trkpt>
      <trkpt lat="42.544071022421122" lon="2.545535964891315">
        <ele>749.49000000000001</ele>
        <time>2025-05-15T09:02:05Z</time>
      </trkpt>
      <trkpt lat="42.544084014371037" lon="2.545413002371788">
        <ele>749.97000000000003</ele>
        <time>2025-05-15T09:02:06Z</time>
      </trkpt>
      <trkpt lat="42.544097006320953" lon="2.545300014317036">
        <ele>750.92999999999995</ele>
        <time>2025-05-15T09:02:07Z</time>
      </trkpt>
      <trkpt lat="42.544036991894245" lon="2.544797016307712">
        <ele>754.76999999999998</ele>
        <time>2025-05-15T09:02:11Z</time>
      </trkpt>
      <trkpt lat="42.543998016044497" lon="2.544691991060972">
        <ele>755.73000000000002</ele>
        <time>2025-05-15T09:02:12Z</time>
      </trkpt>
      <trkpt lat="42.543946970254183" lon="2.544571040198207">
        <ele>756.21000000000004</ele>
        <time>2025-05-15T09:02:13Z</time>
      </trkpt>
      <trkpt lat="42.543864995241165" lon="2.544485041871667">
        <ele>756.69000000000005</ele>
        <time>2025-05-15T09:02:14Z</time>
      </trkpt>
      <trkpt lat="42.543773967772722" lon="2.544388985261321">
        <ele>757.17999999999995</ele>
        <time>2025-05-15T09:02:15Z</time>
      </trkpt>
      <trkpt lat="42.543677994981408" lon="2.544287983328104">
        <ele>758.13999999999999</ele>
        <time>2025-05-15T09:02:16Z</time>
      </trkpt>
      <trkpt lat="42.543580010533333" lon="2.544184969738126">
        <ele>758.62</ele>
        <time>2025-05-15T09:02:17Z</time>
      </trkpt>
      <trkpt lat="42.543451013043523" lon="2.544096959754825">
        <ele>759.58000000000004</ele>
        <time>2025-05-15T09:02:18Z</time>
      </trkpt>
      <trkpt lat="42.543323021382093" lon="2.544043986126781">
        <ele>760.05999999999995</ele>
        <time>2025-05-15T09:02:19Z</time>
      </trkpt>
      <trkpt lat="42.542397994548082" lon="2.543444009497762">
        <ele>771.11000000000001</ele>
        <time>2025-05-15T09:02:27Z</time>
      </trkpt>
      <trkpt lat="42.542324988171458" lon="2.54337796010077">
        <ele>772.08000000000004</ele>
        <time>2025-05-15T09:02:28Z</time>
      </trkpt>
      <trkpt lat="42.542279977351427" lon="2.543239993974567">
        <ele>773.51999999999998</ele>
        <time>2025-05-15T09:02:29Z</time>
      </trkpt>
      <trkpt lat="42.542233960703015" lon="2.543099010363221">
        <ele>775.44000000000005</ele>
        <time>2025-05-15T09:02:30Z</time>
      </trkpt>
      <trkpt lat="42.542182998731732" lon="2.542942017316818">
        <ele>777.36000000000001</ele>
        <time>2025-05-15T09:02:31Z</time>
      </trkpt>
      <trkpt lat="42.542132036760449" lon="2.542782006785274">
        <ele>778.80999999999995</ele>
        <time>2025-05-15T09:02:32Z</time>
      </trkpt>
      <trkpt lat="42.542078979313374" lon="2.542618978768587">
        <ele>779.76999999999998</ele>
        <time>2025-05-15T09:02:33Z</time>
      </trkpt>
      <trkpt lat="42.541918968781829" lon="2.542125033214688">
        <ele>782.64999999999998</ele>
        <time>2025-05-15T09:02:36Z</time>
      </trkpt>
      <trkpt lat="42.541873035952449" lon="2.541984971612692">
        <ele>783.61000000000001</ele>
        <time>2025-05-15T09:02:37Z</time>
      </trkpt>
      <trkpt lat="42.54183498211205" lon="2.541867038235068">
        <ele>784.57000000000005</ele>
        <time>2025-05-15T09:02:38Z</time>
      </trkpt>
      <trkpt lat="42.541783014312387" lon="2.541797971352935">
        <ele>785.52999999999997</ele>
        <time>2025-05-15T09:02:39Z</time>
      </trkpt>
      <trkpt lat="42.541717970743775" lon="2.54172102548182">
        <ele>786.98000000000002</ele>
        <time>2025-05-15T09:02:40Z</time>
      </trkpt>
      <trkpt lat="42.541647981852293" lon="2.541638966649771">
        <ele>788.41999999999996</ele>
        <time>2025-05-15T09:02:41Z</time>
      </trkpt>
      <trkpt lat="42.541571035981178" lon="2.54154902882874">
        <ele>788.89999999999998</ele>
        <time>2025-05-15T09:02:42Z</time>
      </trkpt>
      <trkpt lat="42.541333995759487" lon="2.541179973632097">
        <ele>791.77999999999997</ele>
        <time>2025-05-15T09:02:45Z</time>
      </trkpt>
      <trkpt lat="42.54127498716116" lon="2.541031027212739">
        <ele>792.74000000000001</ele>
        <time>2025-05-15T09:02:46Z</time>
      </trkpt>
      <trkpt lat="42.541213966906071" lon="2.54086297005415">
        <ele>793.71000000000004</ele>
        <time>2025-05-15T09:02:47Z</time>
      </trkpt>
      <trkpt lat="42.541153030470014" lon="2.540696002542973">
        <ele>794.66999999999996</ele>
        <time>2025-05-15T09:02:48Z</time>
      </trkpt>
      <trkpt lat="42.541093016043305" lon="2.540529035031796">
        <ele>796.11000000000001</ele>
        <time>2025-05-15T09:02:49Z</time>
      </trkpt>
      <trkpt lat="42.5410380307585" lon="2.540375981479883">
        <ele>797.07000000000005</ele>
        <time>2025-05-15T09:02:50Z</time>
      </trkpt>
      <trkpt lat="42.541001988574862" lon="2.540233992040157">
        <ele>798.02999999999997</ele>
        <time>2025-05-15T09:02:51Z</time>
      </trkpt>
      <trkpt lat="42.540969969704747" lon="2.540106000378728">
        <ele>798.99000000000001</ele>
        <time>2025-05-15T09:02:52Z</time>
      </trkpt>
      <trkpt lat="42.540956977754831" lon="2.539999969303608">
        <ele>799.95000000000005</ele>
        <time>2025-05-15T09:02:53Z</time>
      </trkpt>
      <trkpt lat="42.540977010503411" lon="2.539887987077236">
        <ele>800.91999999999996</ele>
        <time>2025-05-15T09:02:54Z</time>
      </trkpt>
      <trkpt lat="42.541000982746482" lon="2.539781033992767">
        <ele>801.88</ele>
        <time>2025-05-15T09:02:55Z</time>
      </trkpt>
      <trkpt lat="42.54105999134481" lon="2.539667040109634">
        <ele>802.84000000000003</ele>
        <time>2025-05-15T09:02:56Z</time>
      </trkpt>
      <trkpt lat="42.54112402908504" lon="2.539543993771076">
        <ele>803.79999999999995</ele>
        <time>2025-05-15T09:02:57Z</time>
      </trkpt>
      <trkpt lat="42.541191000491381" lon="2.539416002109647">
        <ele>804.75999999999999</ele>
        <time>2025-05-15T09:02:58Z</time>
      </trkpt>
      <trkpt lat="42.541257971897721" lon="2.539287004619837">
        <ele>805.72000000000003</ele>
        <time>2025-05-15T09:02:59Z</time>
      </trkpt>
      <trkpt lat="42.541298037394881" lon="2.539127999916673">
        <ele>807.15999999999997</ele>
        <time>2025-05-15T09:03:00Z</time>
      </trkpt>
      <trkpt lat="42.541327960789204" lon="2.538966983556747">
        <ele>808.13</ele>
        <time>2025-05-15T09:03:01Z</time>
      </trkpt>
      <trkpt lat="42.541330978274345" lon="2.538809990510345">
        <ele>809.09000000000003</ele>
        <time>2025-05-15T09:03:02Z</time>
      </trkpt>
      <trkpt lat="42.541322009637952" lon="2.538660960271955">
        <ele>810.04999999999995</ele>
        <time>2025-05-15T09:03:03Z</time>
      </trkpt>
      <trkpt lat="42.541294014081359" lon="2.538527017459273">
        <ele>811.00999999999999</ele>
        <time>2025-05-15T09:03:04Z</time>
      </trkpt>
      <trkpt lat="42.541236011311412" lon="2.538411011919379">
        <ele>811.97000000000003</ele>
        <time>2025-05-15T09:03:05Z</time>
      </trkpt>
      <trkpt lat="42.54116602241993" lon="2.538271034136415">
        <ele>813.40999999999997</ele>
        <time>2025-05-15T09:03:06Z</time>
      </trkpt>
      <trkpt lat="42.541082035750151" lon="2.538172965869308">
        <ele>814.37</ele>
        <time>2025-05-15T09:03:07Z</time>
      </trkpt>
      <trkpt lat="42.54097499884665" lon="2.538048997521401">
        <ele>815.34000000000003</ele>
        <time>2025-05-15T09:03:08Z</time>
      </trkpt>
      <trkpt lat="42.54086603410542" lon="2.537924023345113">
        <ele>816.77999999999997</ele>
        <time>2025-05-15T09:03:09Z</time>
      </trkpt>
      <trkpt lat="42.54075899720192" lon="2.537798965349793">
        <ele>817.74000000000001</ele>
        <time>2025-05-15T09:03:10Z</time>
      </trkpt>
      <trkpt lat="42.540649026632309" lon="2.537670973688364">
        <ele>818.70000000000005</ele>
        <time>2025-05-15T09:03:11Z</time>
      </trkpt>
      <trkpt lat="42.540001021698117" lon="2.536662966012955">
        <ele>825.90999999999997</ele>
        <time>2025-05-15T09:03:18Z</time>
      </trkpt>
      <trkpt lat="42.539951987564564" lon="2.536532962694764">
        <ele>826.87</ele>
        <time>2025-05-15T09:03:19Z</time>
      </trkpt>
      <trkpt lat="42.539901025593281" lon="2.536401031538844">
        <ele>827.83000000000004</ele>
        <time>2025-05-15T09:03:20Z</time>
      </trkpt>
      <trkpt lat="42.539846962317824" lon="2.536258958280087">
        <ele>828.78999999999996</ele>
        <time>2025-05-15T09:03:21Z</time>
      </trkpt>
      <trkpt lat="42.539791977033019" lon="2.536114035174251">
        <ele>829.75999999999999</ele>
        <time>2025-05-15T09:03:22Z</time>
      </trkpt>
      <trkpt lat="42.539715031161904" lon="2.536015966907144">
        <ele>830.72000000000003</ele>
        <time>2025-05-15T09:03:23Z</time>
      </trkpt>
      <trkpt lat="42.539616040885448" lon="2.535937009379268">
        <ele>831.67999999999995</ele>
        <time>2025-05-15T09:03:24Z</time>
      </trkpt>
      <trkpt lat="42.539509003981948" lon="2.535852016881108">
        <ele>833.12</ele>
        <time>2025-05-15T09:03:25Z</time>
      </trkpt>
      <trkpt lat="42.539403978735209" lon="2.535785967484117">
        <ele>834.08000000000004</ele>
        <time>2025-05-15T09:03:26Z</time>
      </trkpt>
      <trkpt lat="42.538899974897504" lon="2.535593016073108">
        <ele>839.37</ele>
        <time>2025-05-15T09:03:30Z</time>
      </trkpt>
      <trkpt lat="42.53878204151988" lon="2.53553400747478">
        <ele>840.80999999999995</ele>
        <time>2025-05-15T09:03:31Z</time>
      </trkpt>
      <trkpt lat="42.538608033210039" lon="2.535369973629713">
        <ele>843.69000000000005</ele>
        <time>2025-05-15T09:03:33Z</time>
      </trkpt>
      <trkpt lat="42.53856897354126" lon="2.535330997779965">
        <ele>844.65999999999997</ele>
        <time>2025-05-15T09:03:34Z</time>
      </trkpt>
      <trkpt lat="42.53856897354126" lon="2.535243993625045">
        <ele>846.10000000000002</ele>
        <time>2025-05-15T09:03:35Z</time>
      </trkpt>
      <trkpt lat="42.53856897354126" lon="2.535160006955266">
        <ele>847.05999999999995</ele>
        <time>2025-05-15T09:03:36Z</time>
      </trkpt>
      <trkpt lat="42.538582971319556" lon="2.53510401584208">
        <ele>848.01999999999998</ele>
        <time>2025-05-15T09:03:37Z</time>
      </trkpt>
      <trkpt lat="42.538591017946601" lon="2.535074008628726">
        <ele>848.5</ele>
        <time>2025-05-15T09:03:38Z</time>
      </trkpt>
      <trkpt lat="42.538629993796349" lon="2.535057999193668">
        <ele>849.46000000000004</ele>
        <time>2025-05-15T09:03:39Z</time>
      </trkpt>
      <trkpt lat="42.53869797103107" lon="2.535031009465456">
        <ele>850.41999999999996</ele>
        <time>2025-05-15T09:03:40Z</time>
      </trkpt>
      <trkpt lat="42.538714986294508" lon="2.535036960616708">
        <ele>850.41999999999996</ele>
        <time>2025-05-15T09:03:41Z</time>
      </trkpt>
      <trkpt lat="42.538796961307526" lon="2.535066967830062">
        <ele>850.89999999999998</ele>
        <time>2025-05-15T09:03:42Z</time>
      </trkpt>
      <trkpt lat="42.538951020687819" lon="2.535095969215035">
        <ele>852.35000000000002</ele>
        <time>2025-05-15T09:03:43Z</time>
      </trkpt>
      <trkpt lat="42.53899997100234" lon="2.535034026950598">
        <ele>853.30999999999995</ele>
        <time>2025-05-15T09:03:44Z</time>
      </trkpt>
      <trkpt lat="42.53895596601069" lon="2.534859012812376">
        <ele>854.26999999999998</ele>
        <time>2025-05-15T09:03:45Z</time>
      </trkpt>
      <trkpt lat="42.53895596601069" lon="2.534859012812376">
        <ele>855.23000000000002</ele>
        <time>2025-05-15T09:03:46Z</time>
      </trkpt>
      <trkpt lat="42.538878014311194" lon="2.5348249822855">
        <ele>856.66999999999996</ele>
        <time>2025-05-15T09:03:47Z</time>
      </trkpt>
      <trkpt lat="42.538799978792667" lon="2.534790029749274">
        <ele>857.63</ele>
        <time>2025-05-15T09:03:48Z</time>
      </trkpt>
      <trkpt lat="42.53869897685945" lon="2.534749964252114">
        <ele>858.59000000000003</ele>
        <time>2025-05-15T09:03:49Z</time>
      </trkpt>
      <trkpt lat="42.538580959662795" lon="2.534706965088844">
        <ele>860.03999999999996</ele>
        <time>2025-05-15T09:03:50Z</time>
      </trkpt>
      <trkpt lat="42.538258004933596" lon="2.534589031711221">
        <ele>864.36000000000001</ele>
        <time>2025-05-15T09:03:53Z</time>
      </trkpt>
      <trkpt lat="42.538076033815742" lon="2.5345020275563">
        <ele>866.28999999999996</ele>
        <time>2025-05-15T09:03:55Z</time>
      </trkpt>
      <trkpt lat="42.537999004125595" lon="2.534440001472831">
        <ele>866.76999999999998</ele>
        <time>2025-05-15T09:03:56Z</time>
      </trkpt>
      <trkpt lat="42.537851985543966" lon="2.534320978447795">
        <ele>868.21000000000004</ele>
        <time>2025-05-15T09:03:58Z</time>
      </trkpt>
      <trkpt lat="42.5377759616822" lon="2.534258030354977">
        <ele>869.16999999999996</ele>
        <time>2025-05-15T09:03:59Z</time>
      </trkpt>
      <trkpt lat="42.537715025246143" lon="2.534172032028437">
        <ele>870.13</ele>
        <time>2025-05-15T09:04:00Z</time>
      </trkpt>
      <trkpt lat="42.537652999162674" lon="2.534084022045136">
        <ele>871.09000000000003</ele>
        <time>2025-05-15T09:04:01Z</time>
      </trkpt>
      <trkpt lat="42.537602037191391" lon="2.53398796543479">
        <ele>871.57000000000005</ele>
        <time>2025-05-15T09:04:02Z</time>
      </trkpt>
      <trkpt lat="42.537554008886218" lon="2.533873971551657">
        <ele>872.52999999999997</ele>
        <time>2025-05-15T09:04:03Z</time>
      </trkpt>
      <trkpt lat="42.537503968924284" lon="2.533756038174033">
        <ele>873.00999999999999</ele>
        <time>2025-05-15T09:04:04Z</time>
      </trkpt>
      <trkpt lat="42.537260977551341" lon="2.53295699134469">
        <ele>879.74000000000001</ele>
        <time>2025-05-15T09:04:11Z</time>
      </trkpt>
      <trkpt lat="42.537260977551341" lon="2.532865041866899">
        <ele>880.22000000000003</ele>
        <time>2025-05-15T09:04:12Z</time>
      </trkpt>
      <trkpt lat="42.537276986986399" lon="2.532708970829845">
        <ele>882.14999999999998</ele>
        <time>2025-05-15T09:04:14Z</time>
      </trkpt>
      <trkpt lat="42.537210015580058" lon="2.532599000260234">
        <ele>883.11000000000001</ele>
        <time>2025-05-15T09:04:15Z</time>
      </trkpt>
      <trkpt lat="42.537169028073549" lon="2.532557006925345">
        <ele>883.11000000000001</ele>
        <time>2025-05-15T09:04:16Z</time>
      </trkpt>
      <trkpt lat="42.537131980061531" lon="2.532519958913326">
        <ele>883.11000000000001</ele>
        <time>2025-05-15T09:04:17Z</time>
      </trkpt>
      <trkpt lat="42.537083029747009" lon="2.532519958913326">
        <ele>883.59000000000003</ele>
        <time>2025-05-15T09:04:18Z</time>
      </trkpt>
      <trkpt lat="42.537019997835159" lon="2.532519958913326">
        <ele>884.07000000000005</ele>
        <time>2025-05-15T09:04:19Z</time>
      </trkpt>
      <trkpt lat="42.536974987015128" lon="2.532542003318667">
        <ele>884.07000000000005</ele>
        <time>2025-05-15T09:04:20Z</time>
      </trkpt>
      <trkpt lat="42.536896029487252" lon="2.532606041058898">
        <ele>884.07000000000005</ele>
        <time>2025-05-15T09:04:21Z</time>
      </trkpt>
      <trkpt lat="42.536859987303615" lon="2.532683992758393">
        <ele>884.07000000000005</ele>
        <time>2025-05-15T09:04:22Z</time>
      </trkpt>
      <trkpt lat="42.53680600784719" lon="2.53280402161181">
        <ele>883.59000000000003</ele>
        <time>2025-05-15T09:04:23Z</time>
      </trkpt>
      <trkpt lat="42.536752028390765" lon="2.532923966646195">
        <ele>883.59000000000003</ele>
        <time>2025-05-15T09:04:24Z</time>
      </trkpt>
      <trkpt lat="42.536702994257212" lon="2.533035026863217">
        <ele>883.59000000000003</ele>
        <time>2025-05-15T09:04:25Z</time>
      </trkpt>
      <trkpt lat="42.536623030900955" lon="2.53310602158308">
        <ele>883.11000000000001</ele>
        <time>2025-05-15T09:04:26Z</time>
      </trkpt>
      <trkpt lat="42.536550024524331" lon="2.53317098133266">
        <ele>883.11000000000001</ele>
        <time>2025-05-15T09:04:27Z</time>
      </trkpt>
      <trkpt lat="42.536490010097623" lon="2.533251028507948">
        <ele>883.11000000000001</ele>
        <time>2025-05-15T09:04:28Z</time>
      </trkpt>
      <trkpt lat="42.536446005105972" lon="2.533345995470882">
        <ele>882.63</ele>
        <time>2025-05-15T09:04:29Z</time>
      </trkpt>
      <trkpt lat="42.536409040912986" lon="2.533426964655519">
        <ele>882.14999999999998</ele>
        <time>2025-05-15T09:04:30Z</time>
      </trkpt>
      <trkpt lat="42.53641901537776" lon="2.533502988517284">
        <ele>881.66999999999996</ele>
        <time>2025-05-15T09:04:31Z</time>
      </trkpt>
      <trkpt lat="42.536443993449211" lon="2.533595021814108">
        <ele>880.71000000000004</ele>
        <time>2025-05-15T09:04:32Z</time>
      </trkpt>
      <trkpt lat="42.536469977349043" lon="2.533689988777041">
        <ele>879.74000000000001</ele>
        <time>2025-05-15T09:04:33Z</time>
      </trkpt>
      <trkpt lat="42.536530997604132" lon="2.533918982371688">
        <ele>878.29999999999995</ele>
        <time>2025-05-15T09:04:35Z</time>
      </trkpt>
      <trkpt lat="42.536523034796119" lon="2.534029958769679">
        <ele>877.82000000000005</ele>
        <time>2025-05-15T09:04:36Z</time>
      </trkpt>
      <trkpt lat="42.536513982340693" lon="2.534147975966334">
        <ele>876.86000000000001</ele>
        <time>2025-05-15T09:04:37Z</time>
      </trkpt>
      <trkpt lat="42.5365050137043" lon="2.534272028133273">
        <ele>876.38</ele>
        <time>2025-05-15T09:04:38Z</time>
      </trkpt>
      <trkpt lat="42.536495039239526" lon="2.53439599648118">
        <ele>875.89999999999998</ele>
        <time>2025-05-15T09:04:39Z</time>
      </trkpt>
      <trkpt lat="42.536495961248875" lon="2.534528011456132">
        <ele>875.89999999999998</ele>
        <time>2025-05-15T09:04:40Z</time>
      </trkpt>
      <trkpt lat="42.536534015089273" lon="2.534693973138928">
        <ele>875.89999999999998</ele>
        <time>2025-05-15T09:04:41Z</time>
      </trkpt>
      <trkpt lat="42.536569973453879" lon="2.534854989498854">
        <ele>875.89999999999998</ele>
        <time>2025-05-15T09:04:42Z</time>
      </trkpt>
      <trkpt lat="42.536609033122659" lon="2.535022962838411">
        <ele>875.89999999999998</ele>
        <time>2025-05-15T09:04:43Z</time>
      </trkpt>
      <trkpt lat="42.536641974002123" lon="2.53516897559166">
        <ele>875.41999999999996</ele>
        <time>2025-05-15T09:04:44Z</time>
      </trkpt>
      <trkpt lat="42.53667801618576" lon="2.535287998616695">
        <ele>875.41999999999996</ele>
        <time>2025-05-15T09:04:45Z</time>
      </trkpt>
      <trkpt lat="42.536727972328663" lon="2.535401992499828">
        <ele>875.41999999999996</ele>
        <time>2025-05-15T09:04:46Z</time>
      </trkpt>
      <trkpt lat="42.536773988977075" lon="2.535506011918187">
        <ele>874.94000000000005</ele>
        <time>2025-05-15T09:04:47Z</time>
      </trkpt>
      <trkpt lat="42.536837020888925" lon="2.535613970831037">
        <ele>874.94000000000005</ele>
        <time>2025-05-15T09:04:48Z</time>
      </trkpt>
      <trkpt lat="42.536921007558703" lon="2.535693012177944">
        <ele>874.94000000000005</ele>
        <time>2025-05-15T09:04:49Z</time>
      </trkpt>
      <trkpt lat="42.53699803724885" lon="2.535765012726188">
        <ele>874.94000000000005</ele>
        <time>2025-05-15T09:04:50Z</time>
      </trkpt>
      <trkpt lat="42.537071965634823" lon="2.53583500161767">
        <ele>874.94000000000005</ele>
        <time>2025-05-15T09:04:51Z</time>
      </trkpt>
      <trkpt lat="42.5376430246979" lon="2.536351997405291">
        <ele>876.86000000000001</ele>
        <time>2025-05-15T09:04:59Z</time>
      </trkpt>
      <trkpt lat="42.537776967510581" lon="2.536474037915468">
        <ele>877.82000000000005</ele>
        <time>2025-05-15T09:05:01Z</time>
      </trkpt>
      <trkpt lat="42.537843016907573" lon="2.536532962694764">
        <ele>878.29999999999995</ele>
        <time>2025-05-15T09:05:02Z</time>
      </trkpt>
      <trkpt lat="42.537908982485533" lon="2.536591971293092">
        <ele>878.77999999999997</ele>
        <time>2025-05-15T09:05:03Z</time>
      </trkpt>
      <trkpt lat="42.53828801214695" lon="2.537265038117766">
        <ele>881.19000000000005</ele>
        <time>2025-05-15T09:05:10Z</time>
      </trkpt>
      <trkpt lat="42.538689002394676" lon="2.538223005831242">
        <ele>886.47000000000003</ele>
        <time>2025-05-15T09:05:19Z</time>
      </trkpt>
      <trkpt lat="42.538854964077473" lon="2.538689961656928">
        <ele>887.42999999999995</ele>
        <time>2025-05-15T09:05:23Z</time>
      </trkpt>
      <trkpt lat="42.538928976282477" lon="2.538899006322026">
        <ele>886.95000000000005</ele>
        <time>2025-05-15T09:05:25Z</time>
      </trkpt>
      <trkpt lat="42.538963006809354" lon="2.538992967456579">
        <ele>886.47000000000003</ele>
        <time>2025-05-15T09:05:26Z</time>
      </trkpt>
      <trkpt lat="42.538995025679469" lon="2.539082989096642">
        <ele>885.99000000000001</ele>
        <time>2025-05-15T09:05:27Z</time>
      </trkpt>
      <trkpt lat="42.539023021236062" lon="2.539163958281279">
        <ele>885.50999999999999</ele>
        <time>2025-05-15T09:05:28Z</time>
      </trkpt>
      <trkpt lat="42.53904196433723" lon="2.539215004071593">
        <ele>884.54999999999995</ele>
        <time>2025-05-15T09:05:29Z</time>
      </trkpt>
      <trkpt lat="42.539034001529217" lon="2.539289016276598">
        <ele>883.59000000000003</ele>
        <time>2025-05-15T09:05:30Z</time>
      </trkpt>
      <trkpt lat="42.539024027064443" lon="2.53937803208828">
        <ele>883.11000000000001</ele>
        <time>2025-05-15T09:05:31Z</time>
      </trkpt>
      <trkpt lat="42.539013968780637" lon="2.539474004879594">
        <ele>882.14999999999998</ele>
        <time>2025-05-15T09:05:32Z</time>
      </trkpt>
      <trkpt lat="42.538978010416031" lon="2.539821015670896">
        <ele>879.25999999999999</ele>
        <time>2025-05-15T09:05:35Z</time>
      </trkpt>
      <trkpt lat="42.53895596601069" lon="2.540030982345343">
        <ele>878.29999999999995</ele>
        <time>2025-05-15T09:05:36Z</time>
      </trkpt>
      <trkpt lat="42.538966024294496" lon="2.54008999094367">
        <ele>877.82000000000005</ele>
        <time>2025-05-15T09:05:37Z</time>
      </trkpt>
      <trkpt lat="42.539132991805673" lon="2.54105600528419">
        <ele>873.5</ele>
        <time>2025-05-15T09:05:45Z</time>
      </trkpt>
      <trkpt lat="42.539142966270447" lon="2.541181985288858">
        <ele>873.00999999999999</ele>
        <time>2025-05-15T09:05:46Z</time>
      </trkpt>
      <trkpt lat="42.539123017340899" lon="2.541302014142275">
        <ele>871.57000000000005</ele>
        <time>2025-05-15T09:05:47Z</time>
      </trkpt>
      <trkpt lat="42.53908202983439" lon="2.541452972218394">
        <ele>870.61000000000001</ele>
        <time>2025-05-15T09:05:48Z</time>
      </trkpt>
      <trkpt lat="42.539027966558933" lon="2.541566966101527">
        <ele>869.64999999999998</ele>
        <time>2025-05-15T09:05:49Z</time>
      </trkpt>
      <trkpt lat="42.538982033729553" lon="2.541663022711873">
        <ele>868.21000000000004</ele>
        <time>2025-05-15T09:05:50Z</time>
      </trkpt>
      <trkpt lat="42.538940040394664" lon="2.541750026866794">
        <ele>866.76999999999998</ele>
        <time>2025-05-15T09:05:51Z</time>
      </trkpt>
      <trkpt lat="42.53886996768415" lon="2.541896961629391">
        <ele>865.79999999999995</ele>
        <time>2025-05-15T09:05:52Z</time>
      </trkpt>
      <trkpt lat="42.538877008482814" lon="2.541964016854763">
        <ele>865.32000000000005</ele>
        <time>2025-05-15T09:05:53Z</time>
      </trkpt>
      <trkpt lat="42.53891003318131" lon="2.542122015729547">
        <ele>865.32000000000005</ele>
        <time>2025-05-15T09:05:54Z</time>
      </trkpt>
      <trkpt lat="42.538982033729553" lon="2.542243972420692">
        <ele>865.32000000000005</ele>
        <time>2025-05-15T09:05:55Z</time>
      </trkpt>
      <trkpt lat="42.53906199708581" lon="2.542381016537547">
        <ele>865.79999999999995</ele>
        <time>2025-05-15T09:05:56Z</time>
      </trkpt>
      <trkpt lat="42.539146989583969" lon="2.542504984885454">
        <ele>866.28999999999996</ele>
        <time>2025-05-15T09:05:57Z</time>
      </trkpt>
      <trkpt lat="42.539244974032044" lon="2.542620990425348">
        <ele>866.28999999999996</ele>
        <time>2025-05-15T09:05:58Z</time>
      </trkpt>
      <trkpt lat="42.539344970136881" lon="2.542739007622004">
        <ele>866.28999999999996</ele>
        <time>2025-05-15T09:05:59Z</time>
      </trkpt>
      <trkpt lat="42.539442032575607" lon="2.542855013161898">
        <ele>866.76999999999998</ele>
        <time>2025-05-15T09:06:00Z</time>
      </trkpt>
      <trkpt lat="42.539538005366921" lon="2.542970012873411">
        <ele>867.25</ele>
        <time>2025-05-15T09:06:01Z</time>
      </trkpt>
      <trkpt lat="42.539613023400307" lon="2.54311996512115">
        <ele>867.73000000000002</ele>
        <time>2025-05-15T09:06:02Z</time>
      </trkpt>
      <trkpt lat="42.539671026170254" lon="2.543252985924482">
        <ele>867.73000000000002</ele>
        <time>2025-05-15T09:06:03Z</time>
      </trkpt>
      <trkpt lat="42.539729028940201" lon="2.543386006727815">
        <ele>868.21000000000004</ele>
        <time>2025-05-15T09:06:04Z</time>
      </trkpt>
      <trkpt lat="42.539794994518161" lon="2.543535958975554">
        <ele>868.69000000000005</ele>
        <time>2025-05-15T09:06:05Z</time>
      </trkpt>
      <trkpt lat="42.539861965924501" lon="2.543685995042324">
        <ele>868.69000000000005</ele>
        <time>2025-05-15T09:06:06Z</time>
      </trkpt>
      <trkpt lat="42.539958022534847" lon="2.543811975046992">
        <ele>868.69000000000005</ele>
        <time>2025-05-15T09:06:07Z</time>
      </trkpt>
      <trkpt lat="42.540258010849357" lon="2.544207014143467">
        <ele>868.21000000000004</ele>
        <time>2025-05-15T09:06:11Z</time>
      </trkpt>
      <trkpt lat="42.540300004184246" lon="2.544261999428272">
        <ele>867.73000000000002</ele>
        <time>2025-05-15T09:06:12Z</time>
      </trkpt>
      <trkpt lat="42.540336968377233" lon="2.544359983876348">
        <ele>867.73000000000002</ele>
        <time>2025-05-15T09:06:13Z</time>
      </trkpt>
      <trkpt lat="42.540347026661038" lon="2.544428966939449">
        <ele>867.73000000000002</ele>
        <time>2025-05-15T09:06:14Z</time>
      </trkpt>
      <trkpt lat="42.540318025276065" lon="2.544517982751131">
        <ele>867.25</ele>
        <time>2025-05-15T09:06:15Z</time>
      </trkpt>
      <trkpt lat="42.54028701223433" lon="2.544584032148123">
        <ele>867.25</ele>
        <time>2025-05-15T09:06:16Z</time>
      </trkpt>
      <trkpt lat="42.540248958393931" lon="2.544660978019238">
        <ele>867.25</ele>
        <time>2025-05-15T09:06:17Z</time>
      </trkpt>
      <trkpt lat="42.540209982544184" lon="2.544743036851287">
        <ele>866.76999999999998</ele>
        <time>2025-05-15T09:06:18Z</time>
      </trkpt>
      <trkpt lat="42.540171006694436" lon="2.544825011864305">
        <ele>867.25</ele>
        <time>2025-05-15T09:06:19Z</time>
      </trkpt>
      <trkpt lat="42.540048966184258" lon="2.545031039044261">
        <ele>865.79999999999995</ele>
        <time>2025-05-15T09:06:22Z</time>
      </trkpt>
      <trkpt lat="42.54000797867775" lon="2.54507202655077">
        <ele>865.32000000000005</ele>
        <time>2025-05-15T09:06:23Z</time>
      </trkpt>
      <trkpt lat="42.539961962029338" lon="2.54511603154242">
        <ele>864.84000000000003</ele>
        <time>2025-05-15T09:06:24Z</time>
      </trkpt>
      <trkpt lat="42.539908988401294" lon="2.54511603154242">
        <ele>864.36000000000001</ele>
        <time>2025-05-15T09:06:25Z</time>
      </trkpt>
      <trkpt lat="42.539847968146205" lon="2.54511603154242">
        <ele>863.88</ele>
        <time>2025-05-15T09:06:26Z</time>
      </trkpt>
      <trkpt lat="42.539777979254723" lon="2.54511603154242">
        <ele>863.39999999999998</ele>
        <time>2025-05-15T09:06:27Z</time>
      </trkpt>
      <trkpt lat="42.539702039211988" lon="2.54511603154242">
        <ele>862.91999999999996</ele>
        <time>2025-05-15T09:06:28Z</time>
      </trkpt>
      <trkpt lat="42.539619980379939" lon="2.545129023492336">
        <ele>862.44000000000005</ele>
        <time>2025-05-15T09:06:29Z</time>
      </trkpt>
      <trkpt lat="42.53930096514523" lon="2.545155007392168">
        <ele>861</ele>
        <time>2025-05-15T09:06:33Z</time>
      </trkpt>
      <trkpt lat="42.539227036759257" lon="2.545123994350433">
        <ele>861</ele>
        <time>2025-05-15T09:06:34Z</time>
      </trkpt>
      <trkpt lat="42.538897041231394" lon="2.544988039880991">
        <ele>859.55999999999995</ele>
        <time>2025-05-15T09:06:37Z</time>
      </trkpt>
      <trkpt lat="42.538662012666464" lon="2.544890977442265">
        <ele>858.11000000000001</ele>
        <time>2025-05-15T09:06:39Z</time>
      </trkpt>
      <trkpt lat="42.538545001298189" lon="2.544862981885672">
        <ele>857.63</ele>
        <time>2025-05-15T09:06:40Z</time>
      </trkpt>
      <trkpt lat="42.538235038518906" lon="2.544812019914389">
        <ele>855.71000000000004</ele>
        <time>2025-05-15T09:06:43Z</time>
      </trkpt>
      <trkpt lat="42.538161026313901" lon="2.544807996600866">
        <ele>854.75</ele>
        <time>2025-05-15T09:06:44Z</time>
      </trkpt>
      <trkpt lat="42.537922980263829" lon="2.544802967458963">
        <ele>852.35000000000002</ele>
        <time>2025-05-15T09:06:48Z</time>
      </trkpt>
      <trkpt lat="42.53785902634263" lon="2.544825011864305">
        <ele>851.38</ele>
        <time>2025-05-15T09:06:49Z</time>
      </trkpt>
      <trkpt lat="42.537807980552316" lon="2.544844038784504">
        <ele>850.89999999999998</ele>
        <time>2025-05-15T09:06:50Z</time>
      </trkpt>
      <trkpt lat="42.53764403052628" lon="2.5449029635638">
        <ele>848.5</ele>
        <time>2025-05-15T09:06:53Z</time>
      </trkpt>
      <trkpt lat="42.537282016128302" lon="2.545107984915376">
        <ele>844.17999999999995</ele>
        <time>2025-05-15T09:06:59Z</time>
      </trkpt>
      <trkpt lat="42.537218984216452" lon="2.545162970200181">
        <ele>843.21000000000004</ele>
        <time>2025-05-15T09:07:00Z</time>
      </trkpt>
      <trkpt lat="42.537168022245169" lon="2.545218039304018">
        <ele>842.25</ele>
        <time>2025-05-15T09:07:01Z</time>
      </trkpt>
      <trkpt lat="42.537131980061531" lon="2.545298002660275">
        <ele>840.80999999999995</ele>
        <time>2025-05-15T09:07:02Z</time>
      </trkpt>
      <trkpt lat="42.537094010040164" lon="2.545384000986815">
        <ele>839.37</ele>
        <time>2025-05-15T09:07:03Z</time>
      </trkpt>
      <trkpt lat="42.537058973684907" lon="2.545464970171452">
        <ele>837.92999999999995</ele>
        <time>2025-05-15T09:07:04Z</time>
      </trkpt>
      <trkpt lat="42.537027038633823" lon="2.545536970719695">
        <ele>836.48000000000002</ele>
        <time>2025-05-15T09:07:05Z</time>
      </trkpt>
      <trkpt lat="42.536995019763708" lon="2.545608971267939">
        <ele>835.51999999999998</ele>
        <time>2025-05-15T09:07:06Z</time>
      </trkpt>
      <trkpt lat="42.536960989236832" lon="2.545686000958085">
        <ele>834.08000000000004</ele>
        <time>2025-05-15T09:07:07Z</time>
      </trkpt>
      <trkpt lat="42.536927964538336" lon="2.545762024819851">
        <ele>832.63999999999999</ele>
        <time>2025-05-15T09:07:08Z</time>
      </trkpt>
      <trkpt lat="42.536895023658872" lon="2.545836037024856">
        <ele>831.20000000000005</ele>
        <time>2025-05-15T09:07:09Z</time>
      </trkpt>
      <trkpt lat="42.536853030323982" lon="2.545931003987789">
        <ele>829.75999999999999</ele>
        <time>2025-05-15T09:07:10Z</time>
      </trkpt>
      <trkpt lat="42.536803996190429" lon="2.545970985665917">
        <ele>828.30999999999995</ele>
        <time>2025-05-15T09:07:11Z</time>
      </trkpt>
      <trkpt lat="42.536731995642185" lon="2.546020019799471">
        <ele>826.87</ele>
        <time>2025-05-15T09:07:12Z</time>
      </trkpt>
      <trkpt lat="42.536652032285929" lon="2.546036029234529">
        <ele>825.90999999999997</ele>
        <time>2025-05-15T09:07:13Z</time>
      </trkpt>
      <trkpt lat="42.536568967625499" lon="2.546052960678935">
        <ele>825.42999999999995</ele>
        <time>2025-05-15T09:07:14Z</time>
      </trkpt>
      <trkpt lat="42.536530997604132" lon="2.546060001477599">
        <ele>823.99000000000001</ele>
        <time>2025-05-15T09:07:15Z</time>
      </trkpt>
      <trkpt lat="42.536425972357392" lon="2.546028988435864">
        <ele>823.02999999999997</ele>
        <time>2025-05-15T09:07:16Z</time>
      </trkpt>
      <trkpt lat="42.536201002076268" lon="2.545963022857904">
        <ele>819.17999999999995</ele>
        <time>2025-05-15T09:07:20Z</time>
      </trkpt>
      <trkpt lat="42.536124978214502" lon="2.546004010364413">
        <ele>818.22000000000003</ele>
        <time>2025-05-15T09:07:21Z</time>
      </trkpt>
      <trkpt lat="42.536082984879613" lon="2.546056983992457">
        <ele>817.74000000000001</ele>
        <time>2025-05-15T09:07:22Z</time>
      </trkpt>
      <trkpt lat="42.536068987101316" lon="2.546137031167746">
        <ele>817.25999999999999</ele>
        <time>2025-05-15T09:07:23Z</time>
      </trkpt>
      <trkpt lat="42.536059012636542" lon="2.54621003754437">
        <ele>818.22000000000003</ele>
        <time>2025-05-15T09:07:24Z</time>
      </trkpt>
      <trkpt lat="42.536096982657909" lon="2.546263011172414">
        <ele>818.22000000000003</ele>
        <time>2025-05-15T09:07:25Z</time>
      </trkpt>
      <trkpt lat="42.536138975992799" lon="2.546323025599122">
        <ele>818.22000000000003</ele>
        <time>2025-05-15T09:07:26Z</time>
      </trkpt>
      <trkpt lat="42.536165965721011" lon="2.546360995620489">
        <ele>818.22000000000003</ele>
        <time>2025-05-15T09:07:27Z</time>
      </trkpt>
      <trkpt lat="42.536250958219171" lon="2.54642796702683">
        <ele>818.22000000000003</ele>
        <time>2025-05-15T09:07:28Z</time>
      </trkpt>
      <trkpt lat="42.536322036758065" lon="2.546483958140016">
        <ele>818.22000000000003</ele>
        <time>2025-05-15T09:07:29Z</time>
      </trkpt>
      <trkpt lat="42.536393031477928" lon="2.546541038900614">
        <ele>817.74000000000001</ele>
        <time>2025-05-15T09:07:30Z</time>
      </trkpt>
      <trkpt lat="42.536463020369411" lon="2.546596024185419">
        <ele>817.74000000000001</ele>
        <time>2025-05-15T09:07:31Z</time>
      </trkpt>
      <trkpt lat="42.536530997604132" lon="2.546650003641844">
        <ele>817.74000000000001</ele>
        <time>2025-05-15T09:07:32Z</time>
      </trkpt>
      <trkpt lat="42.536600986495614" lon="2.546704988926649">
        <ele>817.74000000000001</ele>
        <time>2025-05-15T09:07:33Z</time>
      </trkpt>
      <trkpt lat="42.536676004528999" lon="2.546765003353357">
        <ele>817.74000000000001</ele>
        <time>2025-05-15T09:07:34Z</time>
      </trkpt>
      <trkpt lat="42.536751022562385" lon="2.546824011951685">
        <ele>817.74000000000001</ele>
        <time>2025-05-15T09:07:35Z</time>
      </trkpt>
      <trkpt lat="42.536822017282248" lon="2.546844966709614">
        <ele>817.74000000000001</ele>
        <time>2025-05-15T09:07:36Z</time>
      </trkpt>
      <trkpt lat="42.536885971203446" lon="2.546827029436827">
        <ele>817.74000000000001</ele>
        <time>2025-05-15T09:07:37Z</time>
      </trkpt>
      <trkpt lat="42.536952020600438" lon="2.546809008345008">
        <ele>818.22000000000003</ele>
        <time>2025-05-15T09:07:38Z</time>
      </trkpt>
      <trkpt lat="42.537030978128314" lon="2.546785958111286">
        <ele>818.70000000000005</ele>
        <time>2025-05-15T09:07:39Z</time>
      </trkpt>
      <trkpt lat="42.537111025303602" lon="2.546763997524977">
        <ele>819.17999999999995</ele>
        <time>2025-05-15T09:07:40Z</time>
      </trkpt>
      <trkpt lat="42.537198029458523" lon="2.546740025281906">
        <ele>819.17999999999995</ele>
        <time>2025-05-15T09:07:41Z</time>
      </trkpt>
      <trkpt lat="42.537683006376028" lon="2.546603986993432">
        <ele>819.17999999999995</ele>
        <time>2025-05-15T09:07:46Z</time>
      </trkpt>
      <trkpt lat="42.537904037162662" lon="2.5465970300138">
        <ele>818.70000000000005</ele>
        <time>2025-05-15T09:07:49Z</time>
      </trkpt>
      <trkpt lat="42.538019036874175" lon="2.546668024733663">
        <ele>818.70000000000005</ele>
        <time>2025-05-15T09:07:50Z</time>
      </trkpt>
      <trkpt lat="42.538146022707224" lon="2.546795010566711">
        <ele>818.22000000000003</ele>
        <time>2025-05-15T09:07:52Z</time>
      </trkpt>
      <trkpt lat="42.538207964971662" lon="2.546875979751349">
        <ele>817.74000000000001</ele>
        <time>2025-05-15T09:07:53Z</time>
      </trkpt>
      <trkpt lat="42.538387002423406" lon="2.547107990831137">
        <ele>815.82000000000005</ele>
        <time>2025-05-15T09:07:56Z</time>
      </trkpt>
      <trkpt lat="42.538445005193353" lon="2.547183008864522">
        <ele>814.85000000000002</ele>
        <time>2025-05-15T09:07:57Z</time>
      </trkpt>
      <trkpt lat="42.538556987419724" lon="2.547280993312597">
        <ele>813.88999999999999</ele>
        <time>2025-05-15T09:07:58Z</time>
      </trkpt>
      <trkpt lat="42.538708029314876" lon="2.547337990254164">
        <ele>811.97000000000003</ele>
        <time>2025-05-15T09:08:00Z</time>
      </trkpt>
      <trkpt lat="42.538795033469796" lon="2.54737101495266">
        <ele>811.00999999999999</ele>
        <time>2025-05-15T09:08:01Z</time>
      </trkpt>
      <trkpt lat="42.539446977898479" lon="2.547576958313584">
        <ele>804.27999999999997</ele>
        <time>2025-05-15T09:08:08Z</time>
      </trkpt>
      <trkpt lat="42.53953599371016" lon="2.54758601076901">
        <ele>803.32000000000005</ele>
        <time>2025-05-15T09:08:09Z</time>
      </trkpt>
      <trkpt lat="42.539624003693461" lon="2.547594979405403">
        <ele>802.84000000000003</ele>
        <time>2025-05-15T09:08:10Z</time>
      </trkpt>
      <trkpt lat="42.539704972878098" lon="2.547603026032448">
        <ele>801.88</ele>
        <time>2025-05-15T09:08:11Z</time>
      </trkpt>
      <trkpt lat="42.539786025881767" lon="2.547620041295886">
        <ele>800.91999999999996</ele>
        <time>2025-05-15T09:08:12Z</time>
      </trkpt>
      <trkpt lat="42.53987898118794" lon="2.547645019367337">
        <ele>799.95000000000005</ele>
        <time>2025-05-15T09:08:13Z</time>
      </trkpt>
      <trkpt lat="42.539966991171241" lon="2.547667985782027">
        <ele>799.47000000000003</ele>
        <time>2025-05-15T09:08:14Z</time>
      </trkpt>
      <trkpt lat="42.540059024468064" lon="2.547692963853478">
        <ele>798.50999999999999</ele>
        <time>2025-05-15T09:08:15Z</time>
      </trkpt>
      <trkpt lat="42.540654977783561" lon="2.547850962728262">
        <ele>794.66999999999996</ele>
        <time>2025-05-15T09:08:21Z</time>
      </trkpt>
      <trkpt lat="42.54078003577888" lon="2.547883987426758">
        <ele>794.19000000000005</ele>
        <time>2025-05-15T09:08:22Z</time>
      </trkpt>
      <trkpt lat="42.541459975764155" lon="2.547841994091868">
        <ele>794.66999999999996</ele>
        <time>2025-05-15T09:08:29Z</time>
      </trkpt>
      <trkpt lat="42.541560977697372" lon="2.547835037112236">
        <ele>794.66999999999996</ele>
        <time>2025-05-15T09:08:30Z</time>
      </trkpt>
      <trkpt lat="42.541767004877329" lon="2.547821961343288">
        <ele>795.14999999999998</ele>
        <time>2025-05-15T09:08:32Z</time>
      </trkpt>
      <trkpt lat="42.541891979053617" lon="2.547835037112236">
        <ele>795.63</ele>
        <time>2025-05-15T09:08:33Z</time>
      </trkpt>
      <trkpt lat="42.541994992643595" lon="2.547854986041784">
        <ele>795.63</ele>
        <time>2025-05-15T09:08:34Z</time>
      </trkpt>
      <trkpt lat="42.542089037597179" lon="2.547873007133603">
        <ele>795.63</ele>
        <time>2025-05-15T09:08:35Z</time>
      </trkpt>
      <trkpt lat="42.542184004560113" lon="2.547891028225422">
        <ele>795.63</ele>
        <time>2025-05-15T09:08:36Z</time>
      </trkpt>
      <trkpt lat="42.542260028421879" lon="2.547905026003718">
        <ele>795.14999999999998</ele>
        <time>2025-05-15T09:08:37Z</time>
      </trkpt>
      <trkpt lat="42.542368993163109" lon="2.54797400906682">
        <ele>795.14999999999998</ele>
        <time>2025-05-15T09:08:38Z</time>
      </trkpt>
      <trkpt lat="42.542451974004507" lon="2.548078028485179">
        <ele>794.66999999999996</ele>
        <time>2025-05-15T09:08:39Z</time>
      </trkpt>
      <trkpt lat="42.54247703589499" lon="2.548155980184674">
        <ele>794.66999999999996</ele>
        <time>2025-05-15T09:08:40Z</time>
      </trkpt>
      <trkpt lat="42.542504025623202" lon="2.548239966854453">
        <ele>794.66999999999996</ele>
        <time>2025-05-15T09:08:41Z</time>
      </trkpt>
      <trkpt lat="42.542529003694654" lon="2.548321019858122">
        <ele>794.66999999999996</ele>
        <time>2025-05-15T09:08:42Z</time>
      </trkpt>
      <trkpt lat="42.542553981766105" lon="2.548463009297848">
        <ele>794.66999999999996</ele>
        <time>2025-05-15T09:08:43Z</time>
      </trkpt>
      <trkpt lat="42.542539983987808" lon="2.548564011231065">
        <ele>794.66999999999996</ele>
        <time>2025-05-15T09:08:44Z</time>
      </trkpt>
      <trkpt lat="42.542518023401499" lon="2.548721004277468">
        <ele>795.14999999999998</ele>
        <time>2025-05-15T09:08:45Z</time>
      </trkpt>
      <trkpt lat="42.542487010359764" lon="2.548795016482472">
        <ele>795.14999999999998</ele>
        <time>2025-05-15T09:08:46Z</time>
      </trkpt>
      <trkpt lat="42.542435964569449" lon="2.548916973173618">
        <ele>795.63</ele>
        <time>2025-05-15T09:08:47Z</time>
      </trkpt>
      <trkpt lat="42.541989963501692" lon="2.549737980589271">
        <ele>798.02999999999997</ele>
        <time>2025-05-15T09:08:54Z</time>
      </trkpt>
      <trkpt lat="42.541930032894015" lon="2.54982297308743">
        <ele>798.50999999999999</ele>
        <time>2025-05-15T09:08:55Z</time>
      </trkpt>
      <trkpt lat="42.541764993220568" lon="2.549978038296104">
        <ele>799.95000000000005</ele>
        <time>2025-05-15T09:08:57Z</time>
      </trkpt>
      <trkpt lat="42.541092010214925" lon="2.550450023263693">
        <ele>810.52999999999997</ele>
        <time>2025-05-15T09:09:05Z</time>
      </trkpt>
      <trkpt lat="42.540812976658344" lon="2.550590001046658">
        <ele>816.77999999999997</ele>
        <time>2025-05-15T09:09:08Z</time>
      </trkpt>
      <trkpt lat="42.540712980553508" lon="2.550639035180211">
        <ele>817.74000000000001</ele>
        <time>2025-05-15T09:09:09Z</time>
      </trkpt>
      <trkpt lat="42.54060996696353" lon="2.550688991323113">
        <ele>818.22000000000003</ele>
        <time>2025-05-15T09:09:10Z</time>
      </trkpt>
      <trkpt lat="42.540400000289083" lon="2.550792004913092">
        <ele>819.17999999999995</ele>
        <time>2025-05-15T09:09:12Z</time>
      </trkpt>
      <trkpt lat="42.540291035547853" lon="2.550844978541136">
        <ele>819.17999999999995</ele>
        <time>2025-05-15T09:09:13Z</time>
      </trkpt>
      <trkpt lat="42.539628027006984" lon="2.551396004855633">
        <ele>822.54999999999995</ele>
        <time>2025-05-15T09:09:21Z</time>
      </trkpt>
      <trkpt lat="42.539346981793642" lon="2.551676966249943">
        <ele>824.47000000000003</ele>
        <time>2025-05-15T09:09:25Z</time>
      </trkpt>
      <trkpt lat="42.53923499956727" lon="2.551789032295346">
        <ele>824.47000000000003</ele>
        <time>2025-05-15T09:09:26Z</time>
      </trkpt>
      <trkpt lat="42.53923399373889" lon="2.551790960133076">
        <ele>824.47000000000003</ele>
        <time>2025-05-15T09:09:27Z</time>
      </trkpt>
      <trkpt lat="42.539185965433717" lon="2.551886010915041">
        <ele>824.95000000000005</ele>
        <time>2025-05-15T09:09:28Z</time>
      </trkpt>
      <trkpt lat="42.539136009290814" lon="2.551988018676639">
        <ele>825.42999999999995</ele>
        <time>2025-05-15T09:09:29Z</time>
      </trkpt>
      <trkpt lat="42.538959989324212" lon="2.552585983648896">
        <ele>828.30999999999995</ele>
        <time>2025-05-15T09:09:34Z</time>
      </trkpt>
      <trkpt lat="42.53893400542438" lon="2.552692014724016">
        <ele>828.78999999999996</ele>
        <time>2025-05-15T09:09:35Z</time>
      </trkpt>
      <trkpt lat="42.538909027352929" lon="2.552792010828853">
        <ele>830.72000000000003</ele>
        <time>2025-05-15T09:09:36Z</time>
      </trkpt>
      <trkpt lat="42.538885977119207" lon="2.552883038297296">
        <ele>832.15999999999997</ele>
        <time>2025-05-15T09:09:37Z</time>
      </trkpt>
      <trkpt lat="42.53884800709784" lon="2.553033996373415">
        <ele>833.60000000000002</ele>
        <time>2025-05-15T09:09:38Z</time>
      </trkpt>
      <trkpt lat="42.538823029026389" lon="2.553082024678588">
        <ele>834.55999999999995</ele>
        <time>2025-05-15T09:09:39Z</time>
      </trkpt>
      <trkpt lat="42.538772989064455" lon="2.553175985813141">
        <ele>837.45000000000005</ele>
        <time>2025-05-15T09:09:40Z</time>
      </trkpt>
      <trkpt lat="42.538539972156286" lon="2.553457031026483">
        <ele>838.40999999999997</ele>
        <time>2025-05-15T09:09:42Z</time>
      </trkpt>
      <trkpt lat="42.538434024900198" lon="2.553511010482907">
        <ele>839.37</ele>
        <time>2025-05-15T09:09:43Z</time>
      </trkpt>
      <trkpt lat="42.537891967222095" lon="2.553787026554346">
        <ele>848.01999999999998</ele>
        <time>2025-05-15T09:09:48Z</time>
      </trkpt>
      <trkpt lat="42.537798006087542" lon="2.553834971040487">
        <ele>848.98000000000002</ele>
        <time>2025-05-15T09:09:49Z</time>
      </trkpt>
      <trkpt lat="42.537693986669183" lon="2.553888028487563">
        <ele>849.94000000000005</ele>
        <time>2025-05-15T09:09:50Z</time>
      </trkpt>
      <trkpt lat="42.537588961422443" lon="2.553941002115607">
        <ele>851.38</ele>
        <time>2025-05-15T09:09:51Z</time>
      </trkpt>
      <trkpt lat="42.537498017773032" lon="2.553987018764019">
        <ele>852.35000000000002</ele>
        <time>2025-05-15T09:09:52Z</time>
      </trkpt>
      <trkpt lat="42.537405984476209" lon="2.554030017927289">
        <ele>852.35000000000002</ele>
        <time>2025-05-15T09:09:53Z</time>
      </trkpt>
      <trkpt lat="42.537196017801762" lon="2.554106963798404">
        <ele>852.83000000000004</ele>
        <time>2025-05-15T09:09:54Z</time>
      </trkpt>
      <trkpt lat="42.537013040855527" lon="2.554073017090559">
        <ele>856.19000000000005</ele>
        <time>2025-05-15T09:09:57Z</time>
      </trkpt>
      <trkpt lat="42.536943973973393" lon="2.554059019312263">
        <ele>856.66999999999996</ele>
        <time>2025-05-15T09:09:58Z</time>
      </trkpt>
      <trkpt lat="42.536853030323982" lon="2.554042004048824">
        <ele>856.66999999999996</ele>
        <time>2025-05-15T09:09:59Z</time>
      </trkpt>
      <trkpt lat="42.536808019503951" lon="2.554094977676868">
        <ele>856.66999999999996</ele>
        <time>2025-05-15T09:10:00Z</time>
      </trkpt>
      <trkpt lat="42.536737024784088" lon="2.554236967116594">
        <ele>857.14999999999998</ele>
        <time>2025-05-15T09:10:01Z</time>
      </trkpt>
      <trkpt lat="42.536767031997442" lon="2.554342998191714">
        <ele>858.59000000000003</ele>
        <time>2025-05-15T09:10:02Z</time>
      </trkpt>
      <trkpt lat="42.536866022273898" lon="2.554450035095215">
        <ele>859.55999999999995</ele>
        <time>2025-05-15T09:10:03Z</time>
      </trkpt>
      <trkpt lat="42.53693601116538" lon="2.554525975137949">
        <ele>860.03999999999996</ele>
        <time>2025-05-15T09:10:04Z</time>
      </trkpt>
      <trkpt lat="42.537002982571721" lon="2.554599987342954">
        <ele>860.51999999999998</ele>
        <time>2025-05-15T09:10:05Z</time>
      </trkpt>
      <trkpt lat="42.537076994776726" lon="2.554700989276171">
        <ele>861</ele>
        <time>2025-05-15T09:10:06Z</time>
      </trkpt>
      <trkpt lat="42.537287967279553" lon="2.554992008954287">
        <ele>863.88</ele>
        <time>2025-05-15T09:10:09Z</time>
      </trkpt>
      <trkpt lat="42.537374971434474" lon="2.55521597340703">
        <ele>865.32000000000005</ele>
        <time>2025-05-15T09:10:11Z</time>
      </trkpt>
      <trkpt lat="42.537411013618112" lon="2.555394005030394">
        <ele>866.76999999999998</ele>
        <time>2025-05-15T09:10:13Z</time>
      </trkpt>
      <trkpt lat="42.537411013618112" lon="2.555394005030394">
        <ele>868.21000000000004</ele>
        <time>2025-05-15T09:10:14Z</time>
      </trkpt>
      <trkpt lat="42.537353010848165" lon="2.55555703304708">
        <ele>869.16999999999996</ele>
        <time>2025-05-15T09:10:15Z</time>
      </trkpt>
      <trkpt lat="42.537271035835147" lon="2.555787032470107">
        <ele>873.5</ele>
        <time>2025-05-15T09:10:17Z</time>
      </trkpt>
      <trkpt lat="42.537124017253518" lon="2.556156003847718">
        <ele>885.99000000000001</ele>
        <time>2025-05-15T09:10:21Z</time>
      </trkpt>
      <trkpt lat="42.537074983119965" lon="2.556247031316161">
        <ele>888.39999999999998</ele>
        <time>2025-05-15T09:10:22Z</time>
      </trkpt>
      <trkpt lat="42.537026032805443" lon="2.556339986622334">
        <ele>890.79999999999995</ele>
        <time>2025-05-15T09:10:23Z</time>
      </trkpt>
      <trkpt lat="42.536913966760039" lon="2.556508965790272">
        <ele>894.15999999999997</ele>
        <time>2025-05-15T09:10:25Z</time>
      </trkpt>
      <trkpt lat="42.536683967337012" lon="2.556797973811626">
        <ele>897.52999999999997</ele>
        <time>2025-05-15T09:10:28Z</time>
      </trkpt>
      <trkpt lat="42.536610038951039" lon="2.556892018765211">
        <ele>897.52999999999997</ele>
        <time>2025-05-15T09:10:29Z</time>
      </trkpt>
      <trkpt lat="42.536470983177423" lon="2.557067032903433">
        <ele>898.00999999999999</ele>
        <time>2025-05-15T09:10:31Z</time>
      </trkpt>
      <trkpt lat="42.536403005942702" lon="2.557152025401592">
        <ele>898.49000000000001</ele>
        <time>2025-05-15T09:10:32Z</time>
      </trkpt>
      <trkpt lat="42.536059012636542" lon="2.558098006993532">
        <ele>902.82000000000005</ele>
        <time>2025-05-15T09:10:39Z</time>
      </trkpt>
      <trkpt lat="42.536010984331369" lon="2.558215018361807">
        <ele>904.25999999999999</ele>
        <time>2025-05-15T09:10:40Z</time>
      </trkpt>
      <trkpt lat="42.535954993218184" lon="2.55835298448801">
        <ele>906.17999999999995</ele>
        <time>2025-05-15T09:10:41Z</time>
      </trkpt>
      <trkpt lat="42.535790037363768" lon="2.558720028027892">
        <ele>909.53999999999996</ele>
        <time>2025-05-15T09:10:44Z</time>
      </trkpt>
      <trkpt lat="42.535713007673621" lon="2.558821029961109">
        <ele>910.99000000000001</ele>
        <time>2025-05-15T09:10:45Z</time>
      </trkpt>
      <trkpt lat="42.535640001296997" lon="2.558918008580804">
        <ele>911.47000000000003</ele>
        <time>2025-05-15T09:10:46Z</time>
      </trkpt>
      <trkpt lat="42.535479990765452" lon="2.559127975255251">
        <ele>912.42999999999995</ele>
        <time>2025-05-15T09:10:48Z</time>
      </trkpt>
      <trkpt lat="42.535402961075306" lon="2.559158988296986">
        <ele>912.90999999999997</ele>
        <time>2025-05-15T09:10:49Z</time>
      </trkpt>
      <trkpt lat="42.535320986062288" lon="2.559192012995482">
        <ele>913.38999999999999</ele>
        <time>2025-05-15T09:10:50Z</time>
      </trkpt>
      <trkpt lat="42.535247979685664" lon="2.559222020208836">
        <ele>913.87</ele>
        <time>2025-05-15T09:10:51Z</time>
      </trkpt>
      <trkpt lat="42.535183019936085" lon="2.559249009937048">
        <ele>914.83000000000004</ele>
        <time>2025-05-15T09:10:52Z</time>
      </trkpt>
      <trkpt lat="42.535117976367474" lon="2.55927599966526">
        <ele>914.83000000000004</ele>
        <time>2025-05-15T09:10:53Z</time>
      </trkpt>
      <trkpt lat="42.535006999969482" lon="2.559321010485292">
        <ele>914.83000000000004</ele>
        <time>2025-05-15T09:10:54Z</time>
      </trkpt>
      <trkpt lat="42.534999037161469" lon="2.55933903157711">
        <ele>915.30999999999995</ele>
        <time>2025-05-15T09:10:55Z</time>
      </trkpt>
      <trkpt lat="42.534957965835929" lon="2.559429975226522">
        <ele>915.30999999999995</ele>
        <time>2025-05-15T09:10:56Z</time>
      </trkpt>
      <trkpt lat="42.534910021349788" lon="2.5595329888165">
        <ele>916.26999999999998</ele>
        <time>2025-05-15T09:10:57Z</time>
      </trkpt>
      <trkpt lat="42.534859981387854" lon="2.55964295938611">
        <ele>916.75</ele>
        <time>2025-05-15T09:10:58Z</time>
      </trkpt>
      <trkpt lat="42.534810025244951" lon="2.559753013774753">
        <ele>917.24000000000001</ele>
        <time>2025-05-15T09:10:59Z</time>
      </trkpt>
      <trkpt lat="42.534740036353469" lon="2.559873964637518">
        <ele>917.24000000000001</ele>
        <time>2025-05-15T09:11:00Z</time>
      </trkpt>
      <trkpt lat="42.534484975039959" lon="2.560127014294267">
        <ele>916.26999999999998</ele>
        <time>2025-05-15T09:11:03Z</time>
      </trkpt>
      <trkpt lat="42.534395959228277" lon="2.560169007629156">
        <ele>915.30999999999995</ele>
        <time>2025-05-15T09:11:04Z</time>
      </trkpt>
      <trkpt lat="42.534300992265344" lon="2.560214018449187">
        <ele>914.83000000000004</ele>
        <time>2025-05-15T09:11:05Z</time>
      </trkpt>
      <trkpt lat="42.534070992842317" lon="2.560255005955696">
        <ele>913.38999999999999</ele>
        <time>2025-05-15T09:11:07Z</time>
      </trkpt>
      <trkpt lat="42.533865971490741" lon="2.560238996520639">
        <ele>911.95000000000005</ele>
        <time>2025-05-15T09:11:09Z</time>
      </trkpt>
      <trkpt lat="42.533772010356188" lon="2.560231033712626">
        <ele>910.99000000000001</ele>
        <time>2025-05-15T09:11:10Z</time>
      </trkpt>
      <trkpt lat="42.53369003534317" lon="2.560224998742342">
        <ele>910.02999999999997</ele>
        <time>2025-05-15T09:11:11Z</time>
      </trkpt>
      <trkpt lat="42.533645024523139" lon="2.560229022055864">
        <ele>908.58000000000004</ele>
        <time>2025-05-15T09:11:12Z</time>
      </trkpt>
      <trkpt lat="42.53360596485436" lon="2.560252994298935">
        <ele>907.62</ele>
        <time>2025-05-15T09:11:13Z</time>
      </trkpt>
      <trkpt lat="42.533484008163214" lon="2.560329018160701">
        <ele>906.65999999999997</ele>
        <time>2025-05-15T09:11:14Z</time>
      </trkpt>
      <trkpt lat="42.533485013991594" lon="2.560337986797094">
        <ele>906.17999999999995</ele>
        <time>2025-05-15T09:11:15Z</time>
      </trkpt>
      <trkpt lat="42.533489959314466" lon="2.560376962646842">
        <ele>906.17999999999995</ele>
        <time>2025-05-15T09:11:16Z</time>
      </trkpt>
      <trkpt lat="42.533501023426652" lon="2.560477964580059">
        <ele>907.13999999999999</ele>
        <time>2025-05-15T09:11:17Z</time>
      </trkpt>
      <trkpt lat="42.533527007326484" lon="2.56069396622479">
        <ele>909.05999999999995</ele>
        <time>2025-05-15T09:11:18Z</time>
      </trkpt>
      <trkpt lat="42.533553997054696" lon="2.560793962329626">
        <ele>910.50999999999999</ele>
        <time>2025-05-15T09:11:19Z</time>
      </trkpt>
      <trkpt lat="42.533600013703108" lon="2.560963025316596">
        <ele>912.90999999999997</ele>
        <time>2025-05-15T09:11:20Z</time>
      </trkpt>
      <trkpt lat="42.533852979540825" lon="2.56189500913024">
        <ele>920.12</ele>
        <time>2025-05-15T09:11:26Z</time>
      </trkpt>
      <trkpt lat="42.533876029774547" lon="2.562056025490165">
        <ele>921.55999999999995</ele>
        <time>2025-05-15T09:11:27Z</time>
      </trkpt>
      <trkpt lat="42.53388499841094" lon="2.562220981344581">
        <ele>923</ele>
        <time>2025-05-15T09:11:28Z</time>
      </trkpt>
      <trkpt lat="42.533892039209604" lon="2.5623460393399">
        <ele>923.48000000000002</ele>
        <time>2025-05-15T09:11:29Z</time>
      </trkpt>
      <trkpt lat="42.533836970105767" lon="2.562519041821361">
        <ele>923.48000000000002</ele>
        <time>2025-05-15T09:11:30Z</time>
      </trkpt>
      <trkpt lat="42.533795982599258" lon="2.562646027654409">
        <ele>923.96000000000004</ele>
        <time>2025-05-15T09:11:31Z</time>
      </trkpt>
      <trkpt lat="42.533753989264369" lon="2.562779970467091">
        <ele>924.45000000000005</ele>
        <time>2025-05-15T09:11:32Z</time>
      </trkpt>
      <trkpt lat="42.533740997314453" lon="2.56281903013587">
        <ele>924.45000000000005</ele>
        <time>2025-05-15T09:11:33Z</time>
      </trkpt>
      <trkpt lat="42.533641001209617" lon="2.562906034290791">
        <ele>925.40999999999997</ele>
        <time>2025-05-15T09:11:34Z</time>
      </trkpt>
      <trkpt lat="42.533579980954528" lon="2.562959007918835">
        <ele>926.37</ele>
        <time>2025-05-15T09:11:35Z</time>
      </trkpt>
      <trkpt lat="42.533533964306116" lon="2.562982980161905">
        <ele>927.80999999999995</ele>
        <time>2025-05-15T09:11:36Z</time>
      </trkpt>
      <trkpt lat="42.533456012606621" lon="2.563014999032021">
        <ele>929.25</ele>
        <time>2025-05-15T09:11:37Z</time>
      </trkpt>
      <trkpt lat="42.533365990966558" lon="2.563051963225007">
        <ele>929.73000000000002</ele>
        <time>2025-05-15T09:11:38Z</time>
      </trkpt>
      <trkpt lat="42.533258032053709" lon="2.563095968216658">
        <ele>931.16999999999996</ele>
        <time>2025-05-15T09:11:39Z</time>
      </trkpt>
      <trkpt lat="42.533152000978589" lon="2.563138967379928">
        <ele>932.13999999999999</ele>
        <time>2025-05-15T09:11:40Z</time>
      </trkpt>
      <trkpt lat="42.532947985455394" lon="2.563243992626667">
        <ele>934.05999999999995</ele>
        <time>2025-05-15T09:11:42Z</time>
      </trkpt>
      <trkpt lat="42.532463008537889" lon="2.563683958724141">
        <ele>941.75</ele>
        <time>2025-05-15T09:11:48Z</time>
      </trkpt>
      <trkpt lat="42.532385978847742" lon="2.563731987029314">
        <ele>942.71000000000004</ele>
        <time>2025-05-15T09:11:49Z</time>
      </trkpt>
      <trkpt lat="42.532196966931224" lon="2.563848998397589">
        <ele>945.59000000000003</ele>
        <time>2025-05-15T09:11:51Z</time>
      </trkpt>
      <trkpt lat="42.532092025503516" lon="2.563874982297421">
        <ele>946.55999999999995</ele>
        <time>2025-05-15T09:11:52Z</time>
      </trkpt>
      <trkpt lat="42.531980965286493" lon="2.563901972025633">
        <ele>947.51999999999998</ele>
        <time>2025-05-15T09:11:53Z</time>
      </trkpt>
      <trkpt lat="42.531647030264139" lon="2.563985958695412">
        <ele>950.88</ele>
        <time>2025-05-15T09:11:56Z</time>
      </trkpt>
      <trkpt lat="42.53154301084578" lon="2.564012026414275">
        <ele>951.36000000000001</ele>
        <time>2025-05-15T09:11:57Z</time>
      </trkpt>
      <trkpt lat="42.531315023079515" lon="2.563998028635979">
        <ele>951.84000000000003</ele>
        <time>2025-05-15T09:12:00Z</time>
      </trkpt>
      <trkpt lat="42.531235981732607" lon="2.563966009765863">
        <ele>952.32000000000005</ele>
        <time>2025-05-15T09:12:01Z</time>
      </trkpt>
      <trkpt lat="42.53115601837635" lon="2.563933990895748">
        <ele>952.32000000000005</ele>
        <time>2025-05-15T09:12:02Z</time>
      </trkpt>
      <trkpt lat="42.531076977029443" lon="2.563902977854013">
        <ele>952.32000000000005</ele>
        <time>2025-05-15T09:12:03Z</time>
      </trkpt>
      <trkpt lat="42.531003970652819" lon="2.563872970640659">
        <ele>952.79999999999995</ele>
        <time>2025-05-15T09:12:04Z</time>
      </trkpt>
      <trkpt lat="42.530995002016425" lon="2.563870036974549">
        <ele>952.79999999999995</ele>
        <time>2025-05-15T09:12:05Z</time>
      </trkpt>
      <trkpt lat="42.53087698481977" lon="2.563948994502425">
        <ele>953.76999999999998</ele>
        <time>2025-05-15T09:12:06Z</time>
      </trkpt>
      <trkpt lat="42.530866004526615" lon="2.563956035301089">
        <ele>954.73000000000002</ele>
        <time>2025-05-15T09:12:07Z</time>
      </trkpt>
      <trkpt lat="42.530866004526615" lon="2.563956035301089">
        <ele>956.64999999999998</ele>
        <time>2025-05-15T09:12:08Z</time>
      </trkpt>
      <trkpt lat="42.530858041718602" lon="2.564032981172204">
        <ele>957.61000000000001</ele>
        <time>2025-05-15T09:12:09Z</time>
      </trkpt>
      <trkpt lat="42.530846977606416" lon="2.564127026125789">
        <ele>959.04999999999995</ele>
        <time>2025-05-15T09:12:10Z</time>
      </trkpt>
      <trkpt lat="42.530871033668518" lon="2.564215958118439">
        <ele>962.41999999999996</ele>
        <time>2025-05-15T09:12:11Z</time>
      </trkpt>
      <trkpt lat="42.530918978154659" lon="2.564296005293727">
        <ele>963.86000000000001</ele>
        <time>2025-05-15T09:12:12Z</time>
      </trkpt>
      <trkpt lat="42.530987961217761" lon="2.564385021105409">
        <ele>964.82000000000005</ele>
        <time>2025-05-15T09:12:13Z</time>
      </trkpt>
      <trkpt lat="42.531218966469169" lon="2.564681991934776">
        <ele>966.25999999999999</ele>
        <time>2025-05-15T09:12:16Z</time>
      </trkpt>
      <trkpt lat="42.531298007816076" lon="2.564783999696374">
        <ele>966.74000000000001</ele>
        <time>2025-05-15T09:12:17Z</time>
      </trkpt>
      <trkpt lat="42.531337989494205" lon="2.564835967496038">
        <ele>967.22000000000003</ele>
        <time>2025-05-15T09:12:18Z</time>
      </trkpt>
      <trkpt lat="42.531451983377337" lon="2.56488399580121">
        <ele>967.22000000000003</ele>
        <time>2025-05-15T09:12:19Z</time>
      </trkpt>
      <trkpt lat="42.531559020280838" lon="2.564930012449622">
        <ele>968.17999999999995</ele>
        <time>2025-05-15T09:12:20Z</time>
      </trkpt>
      <trkpt lat="42.531663961708546" lon="2.56496999412775">
        <ele>968.66999999999996</ele>
        <time>2025-05-15T09:12:21Z</time>
      </trkpt>
      <trkpt lat="42.532525034621358" lon="2.565168980509043">
        <ele>972.02999999999997</ele>
        <time>2025-05-15T09:12:27Z</time>
      </trkpt>
      <trkpt lat="42.532663000747561" lon="2.565192030742765">
        <ele>972.50999999999999</ele>
        <time>2025-05-15T09:12:28Z</time>
      </trkpt>
      <trkpt lat="42.532780012115836" lon="2.565193958580494">
        <ele>972.99000000000001</ele>
        <time>2025-05-15T09:12:29Z</time>
      </trkpt>
      <trkpt lat="42.532905992120504" lon="2.565182978287339">
        <ele>973.95000000000005</ele>
        <time>2025-05-15T09:12:30Z</time>
      </trkpt>
      <trkpt lat="42.533030966296792" lon="2.565171997994185">
        <ele>975.38999999999999</ele>
        <time>2025-05-15T09:12:31Z</time>
      </trkpt>
      <trkpt lat="42.533148983493447" lon="2.56516202352941">
        <ele>976.36000000000001</ele>
        <time>2025-05-15T09:12:32Z</time>
      </trkpt>
      <trkpt lat="42.533265994861722" lon="2.565151965245605">
        <ele>977.32000000000005</ele>
        <time>2025-05-15T09:12:33Z</time>
      </trkpt>
      <trkpt lat="42.533374959602952" lon="2.56514199078083">
        <ele>977.79999999999995</ele>
        <time>2025-05-15T09:12:34Z</time>
      </trkpt>
      <trkpt lat="42.533514015376568" lon="2.565155988559127">
        <ele>978.27999999999997</ele>
        <time>2025-05-15T09:12:35Z</time>
      </trkpt>
      <trkpt lat="42.534778006374836" lon="2.565508028492332">
        <ele>993.17999999999995</ele>
        <time>2025-05-15T09:12:44Z</time>
      </trkpt>
      <trkpt lat="42.535158041864634" lon="2.565612969920039">
        <ele>999.90999999999997</ele>
        <time>2025-05-15T09:12:47Z</time>
      </trkpt>
      <trkpt lat="42.53523800522089" lon="2.56563501432538">
        <ele>1003.75</ele>
        <time>2025-05-15T09:12:48Z</time>
      </trkpt>
      <trkpt lat="42.535314029082656" lon="2.565655969083309">
        <ele>1005.6799999999999</ele>
        <time>2025-05-15T09:12:49Z</time>
      </trkpt>
      <trkpt lat="42.535775033757091" lon="2.565816985443234">
        <ele>1012.41</ele>
        <time>2025-05-15T09:12:54Z</time>
      </trkpt>
      <trkpt lat="42.536676004528999" lon="2.566422997042537">
        <ele>1011.9299999999999</ele>
        <time>2025-05-15T09:13:02Z</time>
      </trkpt>
      <trkpt lat="42.536767031997442" lon="2.566508995369077">
        <ele>1011.9299999999999</ele>
        <time>2025-05-15T09:13:03Z</time>
      </trkpt>
      <trkpt lat="42.536830985918641" lon="2.566650984808803">
        <ele>1011.9299999999999</ele>
        <time>2025-05-15T09:13:04Z</time>
      </trkpt>
      <trkpt lat="42.536889994516969" lon="2.566806972026825">
        <ele>1011.9299999999999</ele>
        <time>2025-05-15T09:13:05Z</time>
      </trkpt>
      <trkpt lat="42.536929976195097" lon="2.566970000043511">
        <ele>1012.41</ele>
        <time>2025-05-15T09:13:06Z</time>
      </trkpt>
      <trkpt lat="42.536968030035496" lon="2.567119030281901">
        <ele>1012.41</ele>
        <time>2025-05-15T09:13:07Z</time>
      </trkpt>
      <trkpt lat="42.53700097091496" lon="2.567253978922963">
        <ele>1012.41</ele>
        <time>2025-05-15T09:13:08Z</time>
      </trkpt>
      <trkpt lat="42.537085963413119" lon="2.5673539750278">
        <ele>1012.41</ele>
        <time>2025-05-15T09:13:09Z</time>
      </trkpt>
      <trkpt lat="42.537179002538323" lon="2.567457994446158">
        <ele>1011.9299999999999</ele>
        <time>2025-05-15T09:13:10Z</time>
      </trkpt>
      <trkpt lat="42.537506986409426" lon="2.56782797165215">
        <ele>1011.9299999999999</ele>
        <time>2025-05-15T09:13:13Z</time>
      </trkpt>
      <trkpt lat="42.537615029141307" lon="2.567949006333947">
        <ele>1011.9299999999999</ele>
        <time>2025-05-15T09:13:14Z</time>
      </trkpt>
      <trkpt lat="42.537717958912253" lon="2.568055037409067">
        <ele>1012.41</ele>
        <time>2025-05-15T09:13:15Z</time>
      </trkpt>
      <trkpt lat="42.537832036614418" lon="2.568144975230098">
        <ele>1012.41</ele>
        <time>2025-05-15T09:13:16Z</time>
      </trkpt>
      <trkpt lat="42.537956004962325" lon="2.568242959678173">
        <ele>1012.41</ele>
        <time>2025-05-15T09:13:17Z</time>
      </trkpt>
      <trkpt lat="42.538082990795374" lon="2.568343039602041">
        <ele>1011.9299999999999</ele>
        <time>2025-05-15T09:13:18Z</time>
      </trkpt>
      <trkpt lat="42.538195978850126" lon="2.568473964929581">
        <ele>1011.9299999999999</ele>
        <time>2025-05-15T09:13:19Z</time>
      </trkpt>
      <trkpt lat="42.538505019620061" lon="2.568846959620714">
        <ele>1010</ele>
        <time>2025-05-15T09:13:22Z</time>
      </trkpt>
      <trkpt lat="42.53858900628984" lon="2.568948967382312">
        <ele>1009.52</ele>
        <time>2025-05-15T09:13:23Z</time>
      </trkpt>
      <trkpt lat="42.538692019879818" lon="2.56898601539433">
        <ele>1009.04</ele>
        <time>2025-05-15T09:13:24Z</time>
      </trkpt>
      <trkpt lat="42.538821017369628" lon="2.569000013172627">
        <ele>1008.08</ele>
        <time>2025-05-15T09:13:25Z</time>
      </trkpt>
      <trkpt lat="42.538965018466115" lon="2.569016022607684">
        <ele>1007.6</ele>
        <time>2025-05-15T09:13:26Z</time>
      </trkpt>
      <trkpt lat="42.539103990420699" lon="2.569031026214361">
        <ele>1007.12</ele>
        <time>2025-05-15T09:13:27Z</time>
      </trkpt>
      <trkpt lat="42.539218990132213" lon="2.569049969315529">
        <ele>1006.16</ele>
        <time>2025-05-15T09:13:28Z</time>
      </trkpt>
      <trkpt lat="42.539311023429036" lon="2.569080982357264">
        <ele>1005.2</ele>
        <time>2025-05-15T09:13:29Z</time>
      </trkpt>
      <trkpt lat="42.539354022592306" lon="2.569182990118861">
        <ele>1004.72</ele>
        <time>2025-05-15T09:13:30Z</time>
      </trkpt>
      <trkpt lat="42.539410013705492" lon="2.569449031725526">
        <ele>1003.27</ele>
        <time>2025-05-15T09:13:32Z</time>
      </trkpt>
      <trkpt lat="42.539432980120182" lon="2.569602001458406">
        <ele>1002.79</ele>
        <time>2025-05-15T09:13:33Z</time>
      </trkpt>
      <trkpt lat="42.539454018697143" lon="2.569747008383274">
        <ele>1002.3099999999999</ele>
        <time>2025-05-15T09:13:34Z</time>
      </trkpt>
      <trkpt lat="42.539471033960581" lon="2.569856978952885">
        <ele>1001.83</ele>
        <time>2025-05-15T09:13:35Z</time>
      </trkpt>
      <trkpt lat="42.539569018408656" lon="2.56995496340096">
        <ele>1001.83</ele>
        <time>2025-05-15T09:13:36Z</time>
      </trkpt>
      <trkpt lat="42.53966398537159" lon="2.570050014182925">
        <ele>1001.35</ele>
        <time>2025-05-15T09:13:37Z</time>
      </trkpt>
      <trkpt lat="42.539761969819665" lon="2.570112040266395">
        <ele>1000.87</ele>
        <time>2025-05-15T09:13:38Z</time>
      </trkpt>
      <trkpt lat="42.54017997533083" lon="2.570457039400935">
        <ele>998.95000000000005</ele>
        <time>2025-05-15T09:13:42Z</time>
      </trkpt>
      <trkpt lat="42.540240995585918" lon="2.570601040497422">
        <ele>998.47000000000003</ele>
        <time>2025-05-15T09:13:43Z</time>
      </trkpt>
      <trkpt lat="42.540875002741814" lon="2.571997968479991">
        <ele>997.01999999999998</ele>
        <time>2025-05-15T09:13:51Z</time>
      </trkpt>
      <trkpt lat="42.540939040482044" lon="2.572164013981819">
        <ele>996.53999999999996</ele>
        <time>2025-05-15T09:13:52Z</time>
      </trkpt>
      <trkpt lat="42.540949014946818" lon="2.572361994534731">
        <ele>996.05999999999995</ele>
        <time>2025-05-15T09:13:53Z</time>
      </trkpt>
      <trkpt lat="42.540945997461677" lon="2.572567015886307">
        <ele>996.05999999999995</ele>
        <time>2025-05-15T09:13:54Z</time>
      </trkpt>
      <trkpt lat="42.540942979976535" lon="2.572770025581121">
        <ele>996.05999999999995</ele>
        <time>2025-05-15T09:13:55Z</time>
      </trkpt>
      <trkpt lat="42.540939962491393" lon="2.572978986427188">
        <ele>996.05999999999995</ele>
        <time>2025-05-15T09:13:56Z</time>
      </trkpt>
      <trkpt lat="42.540936022996902" lon="2.573808040469885">
        <ele>994.62</ele>
        <time>2025-05-15T09:14:00Z</time>
      </trkpt>
      <trkpt lat="42.540934011340141" lon="2.575107989832759">
        <ele>989.80999999999995</ele>
        <time>2025-05-15T09:14:06Z</time>
      </trkpt>
      <trkpt lat="42.540867039933801" lon="2.575303036719561">
        <ele>988.85000000000002</ele>
        <time>2025-05-15T09:14:07Z</time>
      </trkpt>
      <trkpt lat="42.540800990536809" lon="2.575435973703861">
        <ele>987.40999999999997</ele>
        <time>2025-05-15T09:14:08Z</time>
      </trkpt>
      <trkpt lat="42.54069697111845" lon="2.575591960921884">
        <ele>986.45000000000005</ele>
        <time>2025-05-15T09:14:09Z</time>
      </trkpt>
      <trkpt lat="42.540606027469039" lon="2.575727999210358">
        <ele>985.49000000000001</ele>
        <time>2025-05-15T09:14:10Z</time>
      </trkpt>
      <trkpt lat="42.54054400138557" lon="2.575821960344911">
        <ele>984.04999999999995</ele>
        <time>2025-05-15T09:14:11Z</time>
      </trkpt>
      <trkpt lat="42.540498990565538" lon="2.576007032766938">
        <ele>983.09000000000003</ele>
        <time>2025-05-15T09:14:12Z</time>
      </trkpt>
      <trkpt lat="42.540462026372552" lon="2.576157990843058">
        <ele>982.12</ele>
        <time>2025-05-15T09:14:13Z</time>
      </trkpt>
      <trkpt lat="42.540422966703773" lon="2.576318001374602">
        <ele>981.15999999999997</ele>
        <time>2025-05-15T09:14:14Z</time>
      </trkpt>
      <trkpt lat="42.540349960327148" lon="2.576615978032351">
        <ele>979.72000000000003</ele>
        <time>2025-05-15T09:14:16Z</time>
      </trkpt>
      <trkpt lat="42.540388014167547" lon="2.576754027977586">
        <ele>978.27999999999997</ele>
        <time>2025-05-15T09:14:17Z</time>
      </trkpt>
      <trkpt lat="42.54041500389576" lon="2.576852012425661">
        <ele>977.79999999999995</ele>
        <time>2025-05-15T09:14:18Z</time>
      </trkpt>
      <trkpt lat="42.540494967252016" lon="2.576961982995272">
        <ele>976.84000000000003</ele>
        <time>2025-05-15T09:14:19Z</time>
      </trkpt>
      <trkpt lat="42.540585994720459" lon="2.577087040990591">
        <ele>975.88</ele>
        <time>2025-05-15T09:14:20Z</time>
      </trkpt>
      <trkpt lat="42.540684984996915" lon="2.577222995460033">
        <ele>974.90999999999997</ele>
        <time>2025-05-15T09:14:21Z</time>
      </trkpt>
      <trkpt lat="42.540775006636977" lon="2.577377976849675">
        <ele>973.95000000000005</ele>
        <time>2025-05-15T09:14:22Z</time>
      </trkpt>
      <trkpt lat="42.54082496277988" lon="2.577542010694742">
        <ele>972.99000000000001</ele>
        <time>2025-05-15T09:14:23Z</time>
      </trkpt>
      <trkpt lat="42.540891012176871" lon="2.57768701761961">
        <ele>972.02999999999997</ele>
        <time>2025-05-15T09:14:24Z</time>
      </trkpt>
      <trkpt lat="42.54095102660358" lon="2.57779598236084">
        <ele>971.07000000000005</ele>
        <time>2025-05-15T09:14:25Z</time>
      </trkpt>
      <trkpt lat="42.541067032143474" lon="2.577883992344141">
        <ele>970.11000000000001</ele>
        <time>2025-05-15T09:14:26Z</time>
      </trkpt>
      <trkpt lat="42.541185971349478" lon="2.577975019812584">
        <ele>969.14999999999998</ele>
        <time>2025-05-15T09:14:27Z</time>
      </trkpt>
      <trkpt lat="42.541892984881997" lon="2.578453961759806">
        <ele>963.86000000000001</ele>
        <time>2025-05-15T09:14:33Z</time>
      </trkpt>
      <trkpt lat="42.541960962116718" lon="2.578445998951793">
        <ele>962.89999999999998</ele>
        <time>2025-05-15T09:14:34Z</time>
      </trkpt>
      <trkpt lat="42.542040003463626" lon="2.578416997566819">
        <ele>962.41999999999996</ele>
        <time>2025-05-15T09:14:35Z</time>
      </trkpt>
      <trkpt lat="42.542195990681648" lon="2.578361006453633">
        <ele>960.98000000000002</ele>
        <time>2025-05-15T09:14:37Z</time>
      </trkpt>
      <trkpt lat="42.542217029258609" lon="2.578353965654969">
        <ele>960.00999999999999</ele>
        <time>2025-05-15T09:14:38Z</time>
      </trkpt>
      <trkpt lat="42.542279977351427" lon="2.578466031700373">
        <ele>959.04999999999995</ele>
        <time>2025-05-15T09:14:39Z</time>
      </trkpt>
      <trkpt lat="42.542314007878304" lon="2.57852696813643">
        <ele>958.57000000000005</ele>
        <time>2025-05-15T09:14:40Z</time>
      </trkpt>
      <trkpt lat="42.542324988171458" lon="2.57854700088501">
        <ele>957.61000000000001</ele>
        <time>2025-05-15T09:14:41Z</time>
      </trkpt>
      <trkpt lat="42.542288023978472" lon="2.578602991998196">
        <ele>956.64999999999998</ele>
        <time>2025-05-15T09:14:42Z</time>
      </trkpt>
      <trkpt lat="42.542239995673299" lon="2.578673986718059">
        <ele>955.69000000000005</ele>
        <time>2025-05-15T09:14:43Z</time>
      </trkpt>
      <trkpt lat="42.542195990681648" lon="2.57874003611505">
        <ele>954.73000000000002</ele>
        <time>2025-05-15T09:14:44Z</time>
      </trkpt>
      <trkpt lat="42.542133964598179" lon="2.578745987266302">
        <ele>953.76999999999998</ele>
        <time>2025-05-15T09:14:45Z</time>
      </trkpt>
      <trkpt lat="42.542071016505361" lon="2.578752022236586">
        <ele>952.79999999999995</ele>
        <time>2025-05-15T09:14:46Z</time>
      </trkpt>
      <trkpt lat="42.541995998471975" lon="2.578759985044599">
        <ele>952.32000000000005</ele>
        <time>2025-05-15T09:14:47Z</time>
      </trkpt>
      <trkpt lat="42.541914023458958" lon="2.57873903028667">
        <ele>951.36000000000001</ele>
        <time>2025-05-15T09:14:48Z</time>
      </trkpt>
      <trkpt lat="42.541817966848612" lon="2.578707011416555">
        <ele>950.39999999999998</ele>
        <time>2025-05-15T09:14:49Z</time>
      </trkpt>
      <trkpt lat="42.541715959087014" lon="2.578672980889678">
        <ele>949.91999999999996</ele>
        <time>2025-05-15T09:14:50Z</time>
      </trkpt>
      <trkpt lat="42.541611017659307" lon="2.578638028353453">
        <ele>949.91999999999996</ele>
        <time>2025-05-15T09:14:51Z</time>
      </trkpt>
      <trkpt lat="42.541496017947793" lon="2.578599974513054">
        <ele>949.44000000000005</ele>
        <time>2025-05-15T09:14:52Z</time>
      </trkpt>
      <trkpt lat="42.541371965780854" lon="2.578564016148448">
        <ele>948.96000000000004</ele>
        <time>2025-05-15T09:14:53Z</time>
      </trkpt>
      <trkpt lat="42.540988996624947" lon="2.578488998115063">
        <ele>946.55999999999995</ele>
        <time>2025-05-15T09:14:56Z</time>
      </trkpt>
      <trkpt lat="42.54086603410542" lon="2.57841900922358">
        <ele>945.59000000000003</ele>
        <time>2025-05-15T09:14:57Z</time>
      </trkpt>
      <trkpt lat="42.54062999971211" lon="2.578283976763487">
        <ele>944.14999999999998</ele>
        <time>2025-05-15T09:14:59Z</time>
      </trkpt>
      <trkpt lat="42.540506031364202" lon="2.578249024227262">
        <ele>943.19000000000005</ele>
        <time>2025-05-15T09:15:00Z</time>
      </trkpt>
      <trkpt lat="42.540234960615635" lon="2.578261010348797">
        <ele>941.75</ele>
        <time>2025-05-15T09:15:02Z</time>
      </trkpt>
      <trkpt lat="42.540100011974573" lon="2.578267967328429">
        <ele>941.26999999999998</ele>
        <time>2025-05-15T09:15:03Z</time>
      </trkpt>
      <trkpt lat="42.539973026141524" lon="2.578235026448965">
        <ele>940.30999999999995</ele>
        <time>2025-05-15T09:15:04Z</time>
      </trkpt>
      <trkpt lat="42.53985702060163" lon="2.57820401340723">
        <ele>939.35000000000002</ele>
        <time>2025-05-15T09:15:05Z</time>
      </trkpt>
      <trkpt lat="42.539745038375258" lon="2.578092031180859">
        <ele>938.38</ele>
        <time>2025-05-15T09:15:06Z</time>
      </trkpt>
      <trkpt lat="42.539631966501474" lon="2.577978037297726">
        <ele>937.41999999999996</ele>
        <time>2025-05-15T09:15:07Z</time>
      </trkpt>
      <trkpt lat="42.539524007588625" lon="2.577871000394225">
        <ele>936.46000000000004</ele>
        <time>2025-05-15T09:15:08Z</time>
      </trkpt>
      <trkpt lat="42.53940599039197" lon="2.57775298319757">
        <ele>935.5</ele>
        <time>2025-05-15T09:15:09Z</time>
      </trkpt>
      <trkpt lat="42.539351005107164" lon="2.577631026506424">
        <ele>934.53999999999996</ele>
        <time>2025-05-15T09:15:10Z</time>
      </trkpt>
      <trkpt lat="42.539215972647071" lon="2.577332966029644">
        <ele>932.62</ele>
        <time>2025-05-15T09:15:13Z</time>
      </trkpt>
      <trkpt lat="42.53916802816093" lon="2.577276974916458">
        <ele>932.13999999999999</ele>
        <time>2025-05-15T09:15:14Z</time>
      </trkpt>
      <trkpt lat="42.539110025390983" lon="2.577267000451684">
        <ele>931.16999999999996</ele>
        <time>2025-05-15T09:15:15Z</time>
      </trkpt>
      <trkpt lat="42.539032995700836" lon="2.577319974079728">
        <ele>930.69000000000005</ele>
        <time>2025-05-15T09:15:16Z</time>
      </trkpt>
      <trkpt lat="42.539005000144243" lon="2.577420976012945">
        <ele>930.69000000000005</ele>
        <time>2025-05-15T09:15:17Z</time>
      </trkpt>
      <trkpt lat="42.53902000375092" lon="2.57749498821795">
        <ele>930.69000000000005</ele>
        <time>2025-05-15T09:15:18Z</time>
      </trkpt>
      <trkpt lat="42.53904196433723" lon="2.577604036778212">
        <ele>930.69000000000005</ele>
        <time>2025-05-15T09:15:19Z</time>
      </trkpt>
      <trkpt lat="42.539101978763938" lon="2.577675031498075">
        <ele>931.16999999999996</ele>
        <time>2025-05-15T09:15:20Z</time>
      </trkpt>
      <trkpt lat="42.539179008454084" lon="2.577764969319105">
        <ele>930.69000000000005</ele>
        <time>2025-05-15T09:15:21Z</time>
      </trkpt>
      <trkpt lat="42.539262995123863" lon="2.577864965423942">
        <ele>930.69000000000005</ele>
        <time>2025-05-15T09:15:22Z</time>
      </trkpt>
      <trkpt lat="42.539329966530204" lon="2.577994968742132">
        <ele>930.21000000000004</ele>
        <time>2025-05-15T09:15:23Z</time>
      </trkpt>
      <trkpt lat="42.539399033412337" lon="2.578148022294045">
        <ele>929.73000000000002</ele>
        <time>2025-05-15T09:15:24Z</time>
      </trkpt>
      <trkpt lat="42.539536999538541" lon="2.578449016436935">
        <ele>928.76999999999998</ele>
        <time>2025-05-15T09:15:26Z</time>
      </trkpt>
      <trkpt lat="42.539602965116501" lon="2.578593017533422">
        <ele>928.28999999999996</ele>
        <time>2025-05-15T09:15:27Z</time>
      </trkpt>
      <trkpt lat="42.539698015898466" lon="2.578694019466639">
        <ele>927.80999999999995</ele>
        <time>2025-05-15T09:15:28Z</time>
      </trkpt>
      <trkpt lat="42.53979398868978" lon="2.578770965337753">
        <ele>927.33000000000004</ele>
        <time>2025-05-15T09:15:29Z</time>
      </trkpt>
      <trkpt lat="42.539902031421661" lon="2.578839026391506">
        <ele>926.37</ele>
        <time>2025-05-15T09:15:30Z</time>
      </trkpt>
      <trkpt lat="42.540033962577581" lon="2.578905997797847">
        <ele>925.40999999999997</ele>
        <time>2025-05-15T09:15:31Z</time>
      </trkpt>
      <trkpt lat="42.54058800637722" lon="2.579189976677299">
        <ele>921.55999999999995</ele>
        <time>2025-05-15T09:15:35Z</time>
      </trkpt>
      <trkpt lat="42.540671993046999" lon="2.579233981668949">
        <ele>920.12</ele>
        <time>2025-05-15T09:15:36Z</time>
      </trkpt>
      <trkpt lat="42.5407600030303" lon="2.579378988593817">
        <ele>919.63999999999999</ele>
        <time>2025-05-15T09:15:37Z</time>
      </trkpt>
      <trkpt lat="42.540807025507092" lon="2.579495999962091">
        <ele>918.67999999999995</ele>
        <time>2025-05-15T09:15:38Z</time>
      </trkpt>
      <trkpt lat="42.540828986093402" lon="2.579658022150397">
        <ele>918.20000000000005</ele>
        <time>2025-05-15T09:15:39Z</time>
      </trkpt>
      <trkpt lat="42.540864022448659" lon="2.579840999096632">
        <ele>917.72000000000003</ele>
        <time>2025-05-15T09:15:40Z</time>
      </trkpt>
      <trkpt lat="42.54090903326869" lon="2.580005032941699">
        <ele>917.24000000000001</ele>
        <time>2025-05-15T09:15:41Z</time>
      </trkpt>
      <trkpt lat="42.540948009118438" lon="2.580146016553044">
        <ele>916.26999999999998</ele>
        <time>2025-05-15T09:15:42Z</time>
      </trkpt>
      <trkpt lat="42.54104096442461" lon="2.580228997394443">
        <ele>915.78999999999996</ele>
        <time>2025-05-15T09:15:43Z</time>
      </trkpt>
      <trkpt lat="42.541136015206575" lon="2.580306027084589">
        <ele>915.78999999999996</ele>
        <time>2025-05-15T09:15:44Z</time>
      </trkpt>
      <trkpt lat="42.541245985776186" lon="2.580394959077239">
        <ele>914.83000000000004</ele>
        <time>2025-05-15T09:15:45Z</time>
      </trkpt>
      <trkpt lat="42.542228009551764" lon="2.581099038943648">
        <ele>908.10000000000002</ele>
        <time>2025-05-15T09:15:52Z</time>
      </trkpt>
      <trkpt lat="42.543102996423841" lon="2.581557026132941">
        <ele>900.40999999999997</ele>
        <time>2025-05-15T09:15:58Z</time>
      </trkpt>
      <trkpt lat="42.543235011398792" lon="2.581613017246127">
        <ele>899.45000000000005</ele>
        <time>2025-05-15T09:15:59Z</time>
      </trkpt>
      <trkpt lat="42.543368032202125" lon="2.581631960347295">
        <ele>898.00999999999999</ele>
        <time>2025-05-15T09:16:00Z</time>
      </trkpt>
      <trkpt lat="42.543504992499948" lon="2.581622991710901">
        <ele>897.04999999999995</ele>
        <time>2025-05-15T09:16:01Z</time>
      </trkpt>
      <trkpt lat="42.543652011081576" lon="2.581599019467831">
        <ele>895.61000000000001</ele>
        <time>2025-05-15T09:16:02Z</time>
      </trkpt>
      <trkpt lat="42.543815961107612" lon="2.581532970070839">
        <ele>894.15999999999997</ele>
        <time>2025-05-15T09:16:03Z</time>
      </trkpt>
      <trkpt lat="42.545485971495509" lon="2.580877002328634">
        <ele>882.14999999999998</ele>
        <time>2025-05-15T09:16:13Z</time>
      </trkpt>
      <trkpt lat="42.545632990077138" lon="2.580856969580054">
        <ele>880.71000000000004</ele>
        <time>2025-05-15T09:16:14Z</time>
      </trkpt>
      <trkpt lat="42.545774979516864" lon="2.580843977630138">
        <ele>879.74000000000001</ele>
        <time>2025-05-15T09:16:15Z</time>
      </trkpt>
      <trkpt lat="42.546530021354556" lon="2.580864010378718">
        <ele>874.46000000000004</ele>
        <time>2025-05-15T09:16:22Z</time>
      </trkpt>
      <trkpt lat="42.546613002195954" lon="2.580837020650506">
        <ele>873.98000000000002</ele>
        <time>2025-05-15T09:16:23Z</time>
      </trkpt>
      <trkpt lat="42.546691037714481" lon="2.580811036750674">
        <ele>873.00999999999999</ele>
        <time>2025-05-15T09:16:24Z</time>
      </trkpt>
      <trkpt lat="42.546761026605964" lon="2.58073803037405">
        <ele>872.52999999999997</ele>
        <time>2025-05-15T09:16:25Z</time>
      </trkpt>
      <trkpt lat="42.546821041032672" lon="2.580637028440833">
        <ele>872.04999999999995</ele>
        <time>2025-05-15T09:16:26Z</time>
      </trkpt>
      <trkpt lat="42.546889018267393" lon="2.58052496239543">
        <ele>871.09000000000003</ele>
        <time>2025-05-15T09:16:27Z</time>
      </trkpt>
      <trkpt lat="42.546931011602283" lon="2.580377021804452">
        <ele>870.61000000000001</ele>
        <time>2025-05-15T09:16:28Z</time>
      </trkpt>
      <trkpt lat="42.546954983845353" lon="2.580218017101288">
        <ele>870.13</ele>
        <time>2025-05-15T09:16:29Z</time>
      </trkpt>
      <trkpt lat="42.546978034079075" lon="2.580060018226504">
        <ele>869.64999999999998</ele>
        <time>2025-05-15T09:16:30Z</time>
      </trkpt>
      <trkpt lat="42.546997983008623" lon="2.579918028786779">
        <ele>869.16999999999996</ele>
        <time>2025-05-15T09:16:31Z</time>
      </trkpt>
      <trkpt lat="42.547017009928823" lon="2.57979397661984">
        <ele>869.16999999999996</ele>
        <time>2025-05-15T09:16:32Z</time>
      </trkpt>
      <trkpt lat="42.547034025192261" lon="2.579677971079946">
        <ele>868.69000000000005</ele>
        <time>2025-05-15T09:16:33Z</time>
      </trkpt>
      <trkpt lat="42.547037964686751" lon="2.579575041308999">
        <ele>867.73000000000002</ele>
        <time>2025-05-15T09:16:34Z</time>
      </trkpt>
      <trkpt lat="42.547004017978907" lon="2.579457024112344">
        <ele>867.73000000000002</ele>
        <time>2025-05-15T09:16:35Z</time>
      </trkpt>
      <trkpt lat="42.546962024644017" lon="2.579314028844237">
        <ele>867.25</ele>
        <time>2025-05-15T09:16:36Z</time>
      </trkpt>
      <trkpt lat="42.546918019652367" lon="2.579161981120706">
        <ele>866.76999999999998</ele>
        <time>2025-05-15T09:16:37Z</time>
      </trkpt>
      <trkpt lat="42.546901004388928" lon="2.57900096476078">
        <ele>866.28999999999996</ele>
        <time>2025-05-15T09:16:38Z</time>
      </trkpt>
      <trkpt lat="42.546911984682083" lon="2.578843971714377">
        <ele>865.32000000000005</ele>
        <time>2025-05-15T09:16:39Z</time>
      </trkpt>
      <trkpt lat="42.54694601520896" lon="2.578684967011213">
        <ele>864.84000000000003</ele>
        <time>2025-05-15T09:16:40Z</time>
      </trkpt>
      <trkpt lat="42.546991026028991" lon="2.578530991449952">
        <ele>864.36000000000001</ele>
        <time>2025-05-15T09:16:41Z</time>
      </trkpt>
      <trkpt lat="42.547036958858371" lon="2.578378021717072">
        <ele>863.88</ele>
        <time>2025-05-15T09:16:42Z</time>
      </trkpt>
      <trkpt lat="42.547088004648685" lon="2.57820401340723">
        <ele>862.91999999999996</ele>
        <time>2025-05-15T09:16:43Z</time>
      </trkpt>
      <trkpt lat="42.547080041840672" lon="2.578089013695717">
        <ele>862.44000000000005</ele>
        <time>2025-05-15T09:16:44Z</time>
      </trkpt>
      <trkpt lat="42.547008963301778" lon="2.577050998806953">
        <ele>858.11000000000001</ele>
        <time>2025-05-15T09:16:50Z</time>
      </trkpt>
      <trkpt lat="42.547060009092093" lon="2.576923007145524">
        <ele>857.63</ele>
        <time>2025-05-15T09:16:51Z</time>
      </trkpt>
      <trkpt lat="42.547109965234995" lon="2.576798032969236">
        <ele>857.14999999999998</ele>
        <time>2025-05-15T09:16:52Z</time>
      </trkpt>
      <trkpt lat="42.547181965783238" lon="2.576694013550878">
        <ele>856.66999999999996</ele>
        <time>2025-05-15T09:16:53Z</time>
      </trkpt>
      <trkpt lat="42.547257989645004" lon="2.576617989689112">
        <ele>856.19000000000005</ele>
        <time>2025-05-15T09:16:54Z</time>
      </trkpt>
      <trkpt lat="42.547315992414951" lon="2.576559986919165">
        <ele>855.71000000000004</ele>
        <time>2025-05-15T09:16:55Z</time>
      </trkpt>
      <trkpt lat="42.547380030155182" lon="2.576551018282771">
        <ele>855.23000000000002</ele>
        <time>2025-05-15T09:16:56Z</time>
      </trkpt>
      <trkpt lat="42.547425040975213" lon="2.576578008010984">
        <ele>854.75</ele>
        <time>2025-05-15T09:16:57Z</time>
      </trkpt>
      <trkpt lat="42.547455970197916" lon="2.576600974425674">
        <ele>854.26999999999998</ele>
        <time>2025-05-15T09:16:58Z</time>
      </trkpt>
      <trkpt lat="42.547479020431638" lon="2.57665503770113">
        <ele>853.78999999999996</ele>
        <time>2025-05-15T09:16:59Z</time>
      </trkpt>
      <trkpt lat="42.547516990453005" lon="2.576744975522161">
        <ele>853.30999999999995</ele>
        <time>2025-05-15T09:17:00Z</time>
      </trkpt>
      <trkpt lat="42.547488994896412" lon="2.576801972463727">
        <ele>852.83000000000004</ele>
        <time>2025-05-15T09:17:01Z</time>
      </trkpt>
      <trkpt lat="42.547448007389903" lon="2.576877996325493">
        <ele>851.87</ele>
        <time>2025-05-15T09:17:02Z</time>
      </trkpt>
      <trkpt lat="42.547390004619956" lon="2.576930969953537">
        <ele>851.38</ele>
        <time>2025-05-15T09:17:03Z</time>
      </trkpt>
      <trkpt lat="42.547328984364867" lon="2.576986961066723">
        <ele>850.89999999999998</ele>
        <time>2025-05-15T09:17:04Z</time>
      </trkpt>
      <trkpt lat="42.547263018786907" lon="2.577046975493431">
        <ele>850.41999999999996</ele>
        <time>2025-05-15T09:17:05Z</time>
      </trkpt>
      <trkpt lat="42.547195041552186" lon="2.577109001576901">
        <ele>849.94000000000005</ele>
        <time>2025-05-15T09:17:06Z</time>
      </trkpt>
      <trkpt lat="42.547188000753522" lon="2.577172033488751">
        <ele>849.94000000000005</ele>
        <time>2025-05-15T09:17:07Z</time>
      </trkpt>
      <trkpt lat="42.547174002975225" lon="2.577302036806941">
        <ele>849.46000000000004</ele>
        <time>2025-05-15T09:17:08Z</time>
      </trkpt>
      <trkpt lat="42.547191018238664" lon="2.5773870293051">
        <ele>848.98000000000002</ele>
        <time>2025-05-15T09:17:09Z</time>
      </trkpt>
      <trkpt lat="42.547213984653354" lon="2.577504962682724">
        <ele>848.5</ele>
        <time>2025-05-15T09:17:10Z</time>
      </trkpt>
      <trkpt lat="42.547238040715456" lon="2.577622979879379">
        <ele>848.01999999999998</ele>
        <time>2025-05-15T09:17:11Z</time>
      </trkpt>
      <trkpt lat="42.547283973544836" lon="2.577747032046318">
        <ele>847.53999999999996</ele>
        <time>2025-05-15T09:17:12Z</time>
      </trkpt>
      <trkpt lat="42.547335019335151" lon="2.577886004000902">
        <ele>846.58000000000004</ele>
        <time>2025-05-15T09:17:13Z</time>
      </trkpt>
      <trkpt lat="42.547387992963195" lon="2.57803101092577">
        <ele>846.10000000000002</ele>
        <time>2025-05-15T09:17:14Z</time>
      </trkpt>
      <trkpt lat="42.547464016824961" lon="2.578174006193876">
        <ele>845.62</ele>
        <time>2025-05-15T09:17:15Z</time>
      </trkpt>
      <trkpt lat="42.547952011227608" lon="2.579157035797834">
        <ele>841.28999999999996</ele>
        <time>2025-05-15T09:17:21Z</time>
      </trkpt>
      <trkpt lat="42.548030968755484" lon="2.579329032450914">
        <ele>840.80999999999995</ele>
        <time>2025-05-15T09:17:22Z</time>
      </trkpt>
      <trkpt lat="42.548103975132108" lon="2.579488959163427">
        <ele>840.33000000000004</ele>
        <time>2025-05-15T09:17:23Z</time>
      </trkpt>
      <trkpt lat="42.548177987337112" lon="2.579647963866592">
        <ele>839.85000000000002</ele>
        <time>2025-05-15T09:17:24Z</time>
      </trkpt>
      <trkpt lat="42.548225009813905" lon="2.579830018803477">
        <ele>838.88999999999999</ele>
        <time>2025-05-15T09:17:25Z</time>
      </trkpt>
      <trkpt lat="42.548307990655303" lon="2.580354977399111">
        <ele>836</ele>
        <time>2025-05-15T09:17:28Z</time>
      </trkpt>
      <trkpt lat="42.548287035897374" lon="2.580500990152359">
        <ele>835.03999999999996</ele>
        <time>2025-05-15T09:17:29Z</time>
      </trkpt>
      <trkpt lat="42.548251999542117" lon="2.580758985131979">
        <ele>833.12</ele>
        <time>2025-05-15T09:17:31Z</time>
      </trkpt>
      <trkpt lat="42.548225009813905" lon="2.580950008705258">
        <ele>831.20000000000005</ele>
        <time>2025-05-15T09:17:33Z</time>
      </trkpt>
      <trkpt lat="42.548268008977175" lon="2.581064002588391">
        <ele>830.24000000000001</ele>
        <time>2025-05-15T09:17:34Z</time>
      </trkpt>
      <trkpt lat="42.548298016190529" lon="2.58114798925817">
        <ele>828.78999999999996</ele>
        <time>2025-05-15T09:17:35Z</time>
      </trkpt>
      <trkpt lat="42.548333974555135" lon="2.581243040040135">
        <ele>826.87</ele>
        <time>2025-05-15T09:17:36Z</time>
      </trkpt>
      <trkpt lat="42.548373034223914" lon="2.581349993124604">
        <ele>824.95000000000005</ele>
        <time>2025-05-15T09:17:37Z</time>
      </trkpt>
      <trkpt lat="42.548414021730423" lon="2.581459963694215">
        <ele>823.50999999999999</ele>
        <time>2025-05-15T09:17:38Z</time>
      </trkpt>
      <trkpt lat="42.548433970659971" lon="2.581585021689534">
        <ele>822.05999999999995</ele>
        <time>2025-05-15T09:17:39Z</time>
      </trkpt>
      <trkpt lat="42.548420978710055" lon="2.581702033057809">
        <ele>821.58000000000004</ele>
        <time>2025-05-15T09:17:40Z</time>
      </trkpt>
      <trkpt lat="42.548385020345449" lon="2.581830024719238">
        <ele>821.10000000000002</ele>
        <time>2025-05-15T09:17:41Z</time>
      </trkpt>
      <trkpt lat="42.548342021182179" lon="2.5819649733603">
        <ele>820.62</ele>
        <time>2025-05-15T09:17:42Z</time>
      </trkpt>
      <trkpt lat="42.548298016190529" lon="2.582107968628407">
        <ele>820.13999999999999</ele>
        <time>2025-05-15T09:17:43Z</time>
      </trkpt>
      <trkpt lat="42.548172036185861" lon="2.582588000223041">
        <ele>818.22000000000003</ele>
        <time>2025-05-15T09:17:46Z</time>
      </trkpt>
      <trkpt lat="42.548140017315745" lon="2.583086974918842">
        <ele>815.34000000000003</ele>
        <time>2025-05-15T09:17:49Z</time>
      </trkpt>
      <trkpt lat="42.548140017315745" lon="2.583253020420671">
        <ele>813.88999999999999</ele>
        <time>2025-05-15T09:17:50Z</time>
      </trkpt>
      <trkpt lat="42.548199025914073" lon="2.584119960665703">
        <ele>808.61000000000001</ele>
        <time>2025-05-15T09:17:55Z</time>
      </trkpt>
      <trkpt lat="42.548189973458648" lon="2.584272008389235">
        <ele>807.15999999999997</ele>
        <time>2025-05-15T09:17:56Z</time>
      </trkpt>
      <trkpt lat="42.54817103035748" lon="2.584418021142483">
        <ele>806.20000000000005</ele>
        <time>2025-05-15T09:17:57Z</time>
      </trkpt>
      <trkpt lat="42.548124007880688" lon="2.584560010582209">
        <ele>804.75999999999999</ele>
        <time>2025-05-15T09:17:58Z</time>
      </trkpt>
      <trkpt lat="42.548073967918754" lon="2.584709962829948">
        <ele>803.32000000000005</ele>
        <time>2025-05-15T09:17:59Z</time>
      </trkpt>
      <trkpt lat="42.547965003177524" lon="2.585037024691701">
        <ele>800.44000000000005</ele>
        <time>2025-05-15T09:18:01Z</time>
      </trkpt>
      <trkpt lat="42.547928038984537" lon="2.585211033001542">
        <ele>799.47000000000003</ele>
        <time>2025-05-15T09:18:02Z</time>
      </trkpt>
      <trkpt lat="42.547901971265674" lon="2.585385963320732">
        <ele>798.02999999999997</ele>
        <time>2025-05-15T09:18:03Z</time>
      </trkpt>
      <trkpt lat="42.547780014574528" lon="2.585976971313357">
        <ele>792.25999999999999</ele>
        <time>2025-05-15T09:18:07Z</time>
      </trkpt>
      <trkpt lat="42.54774296656251" lon="2.586089037358761">
        <ele>790.82000000000005</ele>
        <time>2025-05-15T09:18:08Z</time>
      </trkpt>
      <trkpt lat="42.547433003783226" lon="2.587054967880249">
        <ele>778.80999999999995</ele>
        <time>2025-05-15T09:18:17Z</time>
      </trkpt>
      <trkpt lat="42.547402996569872" lon="2.587150018662214">
        <ele>777.36000000000001</ele>
        <time>2025-05-15T09:18:18Z</time>
      </trkpt>
      <trkpt lat="42.547369971871376" lon="2.587220007553697">
        <ele>775.91999999999996</ele>
        <time>2025-05-15T09:18:19Z</time>
      </trkpt>
      <trkpt lat="42.547325966879725" lon="2.587282033637166">
        <ele>774.96000000000004</ele>
        <time>2025-05-15T09:18:20Z</time>
      </trkpt>
      <trkpt lat="42.547281961888075" lon="2.587343975901604">
        <ele>774</ele>
        <time>2025-05-15T09:18:21Z</time>
      </trkpt>
      <trkpt lat="42.547240974381566" lon="2.587350010871887">
        <ele>773.03999999999996</ele>
        <time>2025-05-15T09:18:22Z</time>
      </trkpt>
      <trkpt lat="42.547175008803606" lon="2.587358979508281">
        <ele>772.08000000000004</ele>
        <time>2025-05-15T09:18:23Z</time>
      </trkpt>
      <trkpt lat="42.547102002426982" lon="2.587368031963706">
        <ele>771.11000000000001</ele>
        <time>2025-05-15T09:18:24Z</time>
      </trkpt>
      <trkpt lat="42.547021033242345" lon="2.587379012256861">
        <ele>770.63</ele>
        <time>2025-05-15T09:18:25Z</time>
      </trkpt>
      <trkpt lat="42.546485010534525" lon="2.587307011708617">
        <ele>766.78999999999996</ele>
        <time>2025-05-15T09:18:31Z</time>
      </trkpt>
      <trkpt lat="42.546312008053064" lon="2.587326038628817">
        <ele>765.83000000000004</ele>
        <time>2025-05-15T09:18:33Z</time>
      </trkpt>
      <trkpt lat="42.546232966706157" lon="2.58733500726521">
        <ele>764.87</ele>
        <time>2025-05-15T09:18:34Z</time>
      </trkpt>
      <trkpt lat="42.546156020835042" lon="2.587342970073223">
        <ele>764.38999999999999</ele>
        <time>2025-05-15T09:18:35Z</time>
      </trkpt>
      <trkpt lat="42.546092988923192" lon="2.587327966466546">
        <ele>763.41999999999996</ele>
        <time>2025-05-15T09:18:36Z</time>
      </trkpt>
      <trkpt lat="42.545950999483466" lon="2.587280021980405">
        <ele>762.94000000000005</ele>
        <time>2025-05-15T09:18:37Z</time>
      </trkpt>
      <trkpt lat="42.545934990048409" lon="2.587256971746683">
        <ele>761.98000000000002</ele>
        <time>2025-05-15T09:18:38Z</time>
      </trkpt>
      <trkpt lat="42.545881010591984" lon="2.587176002562046">
        <ele>761.5</ele>
        <time>2025-05-15T09:18:39Z</time>
      </trkpt>
      <trkpt lat="42.545829964801669" lon="2.5870989728719">
        <ele>760.53999999999996</ele>
        <time>2025-05-15T09:18:40Z</time>
      </trkpt>
      <trkpt lat="42.545781014487147" lon="2.587025966495276">
        <ele>760.05999999999995</ele>
        <time>2025-05-15T09:18:41Z</time>
      </trkpt>
      <trkpt lat="42.545741032809019" lon="2.586966035887599">
        <ele>760.05999999999995</ele>
        <time>2025-05-15T09:18:42Z</time>
      </trkpt>
      <trkpt lat="42.545670038089156" lon="2.586901998147368">
        <ele>759.58000000000004</ele>
        <time>2025-05-15T09:18:43Z</time>
      </trkpt>
      <trkpt lat="42.545604994520545" lon="2.586923036724329">
        <ele>759.10000000000002</ele>
        <time>2025-05-15T09:18:44Z</time>
      </trkpt>
      <trkpt lat="42.545525031164289" lon="2.586972992867231">
        <ele>759.10000000000002</ele>
        <time>2025-05-15T09:18:45Z</time>
      </trkpt>
      <trkpt lat="42.545466022565961" lon="2.587025966495276">
        <ele>758.62</ele>
        <time>2025-05-15T09:18:46Z</time>
      </trkpt>
      <trkpt lat="42.545403996482491" lon="2.587081035599113">
        <ele>758.62</ele>
        <time>2025-05-15T09:18:47Z</time>
      </trkpt>
      <trkpt lat="42.545326966792345" lon="2.587138032540679">
        <ele>758.13999999999999</ele>
        <time>2025-05-15T09:18:48Z</time>
      </trkpt>
      <trkpt lat="42.545223031193018" lon="2.587172985076904">
        <ele>757.17999999999995</ele>
        <time>2025-05-15T09:18:49Z</time>
      </trkpt>
      <trkpt lat="42.54512102343142" lon="2.587207015603781">
        <ele>756.69000000000005</ele>
        <time>2025-05-15T09:18:50Z</time>
      </trkpt>
      <trkpt lat="42.545015998184681" lon="2.587240962311626">
        <ele>756.21000000000004</ele>
        <time>2025-05-15T09:18:51Z</time>
      </trkpt>
      <trkpt lat="42.544908039271832" lon="2.587277004495263">
        <ele>755.25</ele>
        <time>2025-05-15T09:18:52Z</time>
      </trkpt>
      <trkpt lat="42.544706035405397" lon="2.587344981729984">
        <ele>753.33000000000004</ele>
        <time>2025-05-15T09:18:54Z</time>
      </trkpt>
      <trkpt lat="42.544545019045472" lon="2.587494011968374">
        <ele>752.37</ele>
        <time>2025-05-15T09:18:56Z</time>
      </trkpt>
      <trkpt lat="42.54447896964848" lon="2.587556038051844">
        <ele>751.88999999999999</ele>
        <time>2025-05-15T09:18:57Z</time>
      </trkpt>
      <trkpt lat="42.544308984652162" lon="2.587713031098247">
        <ele>749.97000000000003</ele>
        <time>2025-05-15T09:19:00Z</time>
      </trkpt>
      <trkpt lat="42.544246958568692" lon="2.587770028039813">
        <ele>749</ele>
        <time>2025-05-15T09:19:01Z</time>
      </trkpt>
      <trkpt lat="42.544065993279219" lon="2.587887039408088">
        <ele>748.03999999999996</ele>
        <time>2025-05-15T09:19:03Z</time>
      </trkpt>
      <trkpt lat="42.543963985517621" lon="2.587897013872862">
        <ele>748.03999999999996</ele>
        <time>2025-05-15T09:19:04Z</time>
      </trkpt>
      <trkpt lat="42.543855020776391" lon="2.587906988337636">
        <ele>748.03999999999996</ele>
        <time>2025-05-15T09:19:05Z</time>
      </trkpt>
      <trkpt lat="42.543300976976752" lon="2.587912017479539">
        <ele>749.49000000000001</ele>
        <time>2025-05-15T09:19:10Z</time>
      </trkpt>
      <trkpt lat="42.543187988922" lon="2.587887961417437">
        <ele>749.49000000000001</ele>
        <time>2025-05-15T09:19:11Z</time>
      </trkpt>
      <trkpt lat="42.542770989239216" lon="2.58765603415668">
        <ele>747.08000000000004</ele>
        <time>2025-05-15T09:19:15Z</time>
      </trkpt>
      <trkpt lat="42.542667975649238" lon="2.587581016123295">
        <ele>746.60000000000002</ele>
        <time>2025-05-15T09:19:16Z</time>
      </trkpt>
      <trkpt lat="42.542607961222529" lon="2.58748697116971">
        <ele>745.63999999999999</ele>
        <time>2025-05-15T09:19:17Z</time>
      </trkpt>
      <trkpt lat="42.542554987594485" lon="2.587404996156693">
        <ele>745.15999999999997</ele>
        <time>2025-05-15T09:19:18Z</time>
      </trkpt>
      <trkpt lat="42.542505031451583" lon="2.587326960638166">
        <ele>744.67999999999995</ele>
        <time>2025-05-15T09:19:19Z</time>
      </trkpt>
      <trkpt lat="42.542454991489649" lon="2.587250014767051">
        <ele>744.20000000000005</ele>
        <time>2025-05-15T09:19:20Z</time>
      </trkpt>
      <trkpt lat="42.542408974841237" lon="2.587178014218807">
        <ele>744.20000000000005</ele>
        <time>2025-05-15T09:19:21Z</time>
      </trkpt>
      <trkpt lat="42.542362036183476" lon="2.587105007842183">
        <ele>743.72000000000003</ele>
        <time>2025-05-15T09:19:22Z</time>
      </trkpt>
      <trkpt lat="42.542281989008188" lon="2.586980033665896">
        <ele>743.72000000000003</ele>
        <time>2025-05-15T09:19:23Z</time>
      </trkpt>
      <trkpt lat="42.542230021208525" lon="2.586984978988767">
        <ele>743.24000000000001</ele>
        <time>2025-05-15T09:19:24Z</time>
      </trkpt>
      <trkpt lat="42.542129019275308" lon="2.586994031444192">
        <ele>743.24000000000001</ele>
        <time>2025-05-15T09:19:25Z</time>
      </trkpt>
      <trkpt lat="42.542017959058285" lon="2.587005011737347">
        <ele>743.24000000000001</ele>
        <time>2025-05-15T09:19:26Z</time>
      </trkpt>
      <trkpt lat="42.541902037337422" lon="2.587014986202121">
        <ele>743.72000000000003</ele>
        <time>2025-05-15T09:19:27Z</time>
      </trkpt>
      <trkpt lat="42.541788965463638" lon="2.587025966495276">
        <ele>743.72000000000003</ele>
        <time>2025-05-15T09:19:28Z</time>
      </trkpt>
      <trkpt lat="42.54129895940423" lon="2.587036024779081">
        <ele>743.72000000000003</ele>
        <time>2025-05-15T09:19:33Z</time>
      </trkpt>
      <trkpt lat="42.541228970512748" lon="2.587000988423824">
        <ele>744.20000000000005</ele>
        <time>2025-05-15T09:19:34Z</time>
      </trkpt>
      <trkpt lat="42.541179014369845" lon="2.586957989260554">
        <ele>744.20000000000005</ele>
        <time>2025-05-15T09:19:35Z</time>
      </trkpt>
      <trkpt lat="42.541142972186208" lon="2.58686201646924">
        <ele>744.67999999999995</ele>
        <time>2025-05-15T09:19:36Z</time>
      </trkpt>
      <trkpt lat="42.541099973022938" lon="2.586750034242868">
        <ele>744.67999999999995</ele>
        <time>2025-05-15T09:19:37Z</time>
      </trkpt>
      <trkpt lat="42.541054040193558" lon="2.586630005389452">
        <ele>745.15999999999997</ele>
        <time>2025-05-15T09:19:38Z</time>
      </trkpt>
      <trkpt lat="42.541008023545146" lon="2.586507964879274">
        <ele>745.63999999999999</ele>
        <time>2025-05-15T09:19:39Z</time>
      </trkpt>
      <trkpt lat="42.54095102660358" lon="2.586358012631536">
        <ele>746.60000000000002</ele>
        <time>2025-05-15T09:19:40Z</time>
      </trkpt>
      <trkpt lat="42.540884977206588" lon="2.58630202151835">
        <ele>747.08000000000004</ele>
        <time>2025-05-15T09:19:41Z</time>
      </trkpt>
      <trkpt lat="42.54078296944499" lon="2.586249969899654">
        <ele>747.55999999999995</ele>
        <time>2025-05-15T09:19:42Z</time>
      </trkpt>
      <trkpt lat="42.54069403745234" lon="2.586249969899654">
        <ele>748.03999999999996</ele>
        <time>2025-05-15T09:19:43Z</time>
      </trkpt>
      <trkpt lat="42.540594963356853" lon="2.586249969899654">
        <ele>748.51999999999998</ele>
        <time>2025-05-15T09:19:44Z</time>
      </trkpt>
      <trkpt lat="42.54050200805068" lon="2.586249969899654">
        <ele>748.03999999999996</ele>
        <time>2025-05-15T09:19:45Z</time>
      </trkpt>
      <trkpt lat="42.54047904163599" lon="2.586249969899654">
        <ele>748.03999999999996</ele>
        <time>2025-05-15T09:19:46Z</time>
      </trkpt>
      <trkpt lat="42.540407963097095" lon="2.586161037907004">
        <ele>748.03999999999996</ele>
        <time>2025-05-15T09:19:47Z</time>
      </trkpt>
      <trkpt lat="42.540334034711123" lon="2.5860679987818">
        <ele>748.51999999999998</ele>
        <time>2025-05-15T09:19:48Z</time>
      </trkpt>
      <trkpt lat="42.540254993364215" lon="2.585970014333725">
        <ele>748.51999999999998</ele>
        <time>2025-05-15T09:19:49Z</time>
      </trkpt>
      <trkpt lat="42.540041003376245" lon="2.585686035454273">
        <ele>749.49000000000001</ele>
        <time>2025-05-15T09:19:52Z</time>
      </trkpt>
      <trkpt lat="42.539953999221325" lon="2.585601964965463">
        <ele>749.49000000000001</ele>
        <time>2025-05-15T09:19:53Z</time>
      </trkpt>
      <trkpt lat="42.539875041693449" lon="2.585590984672308">
        <ele>749.97000000000003</ele>
        <time>2025-05-15T09:19:54Z</time>
      </trkpt>
      <trkpt lat="42.539776973426342" lon="2.58561403490603">
        <ele>749.97000000000003</ele>
        <time>2025-05-15T09:19:55Z</time>
      </trkpt>
      <trkpt lat="42.539692986756563" lon="2.585698021575809">
        <ele>749.97000000000003</ele>
        <time>2025-05-15T09:19:56Z</time>
      </trkpt>
      <trkpt lat="42.539607994258404" lon="2.585802963003516">
        <ele>749.97000000000003</ele>
        <time>2025-05-15T09:19:57Z</time>
      </trkpt>
      <trkpt lat="42.539514033123851" lon="2.58591896854341">
        <ele>749.49000000000001</ele>
        <time>2025-05-15T09:19:58Z</time>
      </trkpt>
      <trkpt lat="42.539416970685124" lon="2.586040003225207">
        <ele>749</ele>
        <time>2025-05-15T09:19:59Z</time>
      </trkpt>
      <trkpt lat="42.539328960701823" lon="2.586148967966437">
        <ele>748.03999999999996</ele>
        <time>2025-05-15T09:20:00Z</time>
      </trkpt>
      <trkpt lat="42.539145983755589" lon="2.586231026798487">
        <ele>747.08000000000004</ele>
        <time>2025-05-15T09:20:02Z</time>
      </trkpt>
      <trkpt lat="42.539052022621036" lon="2.58625902235508">
        <ele>746.60000000000002</ele>
        <time>2025-05-15T09:20:03Z</time>
      </trkpt>
      <trkpt lat="42.53893400542438" lon="2.586292969062924">
        <ele>746.12</ele>
        <time>2025-05-15T09:20:04Z</time>
      </trkpt>
      <trkpt lat="42.538821017369628" lon="2.58630302734673">
        <ele>745.63999999999999</ele>
        <time>2025-05-15T09:20:05Z</time>
      </trkpt>
      <trkpt lat="42.538704006001353" lon="2.586314007639885">
        <ele>744.67999999999995</ele>
        <time>2025-05-15T09:20:06Z</time>
      </trkpt>
      <trkpt lat="42.538584982976317" lon="2.58632498793304">
        <ele>744.67999999999995</ele>
        <time>2025-05-15T09:20:07Z</time>
      </trkpt>
      <trkpt lat="42.538462020456791" lon="2.586335968226194">
        <ele>744.20000000000005</ele>
        <time>2025-05-15T09:20:08Z</time>
      </trkpt>
      <trkpt lat="42.53837401047349" lon="2.586317025125027">
        <ele>744.20000000000005</ele>
        <time>2025-05-15T09:20:09Z</time>
      </trkpt>
      <trkpt lat="42.538278037682176" lon="2.586294980719686">
        <ele>743.72000000000003</ele>
        <time>2025-05-15T09:20:10Z</time>
      </trkpt>
      <trkpt lat="42.538196984678507" lon="2.586276959627867">
        <ele>743.24000000000001</ele>
        <time>2025-05-15T09:20:11Z</time>
      </trkpt>
      <trkpt lat="42.538129007443786" lon="2.586262039840221">
        <ele>742.75999999999999</ele>
        <time>2025-05-15T09:20:12Z</time>
      </trkpt>
      <trkpt lat="42.538076033815742" lon="2.586249969899654">
        <ele>742.75999999999999</ele>
        <time>2025-05-15T09:20:13Z</time>
      </trkpt>
      <trkpt lat="42.537991041317582" lon="2.586292969062924">
        <ele>742.27999999999997</ele>
        <time>2025-05-15T09:20:14Z</time>
      </trkpt>
      <trkpt lat="42.537904037162662" lon="2.586335968226194">
        <ele>742.27999999999997</ele>
        <time>2025-05-15T09:20:15Z</time>
      </trkpt>
      <trkpt lat="42.537807980552316" lon="2.586383996531367">
        <ele>741.78999999999996</ele>
        <time>2025-05-15T09:20:16Z</time>
      </trkpt>
      <trkpt lat="42.537699015811086" lon="2.586425989866257">
        <ele>740.83000000000004</ele>
        <time>2025-05-15T09:20:17Z</time>
      </trkpt>
      <trkpt lat="42.53757999278605" lon="2.586440993472934">
        <ele>740.35000000000002</ele>
        <time>2025-05-15T09:20:18Z</time>
      </trkpt>
      <trkpt lat="42.537343958392739" lon="2.586469994857907">
        <ele>739.87</ele>
        <time>2025-05-15T09:20:20Z</time>
      </trkpt>
      <trkpt lat="42.537241028621793" lon="2.586482986807823">
        <ele>739.87</ele>
        <time>2025-05-15T09:20:21Z</time>
      </trkpt>
      <trkpt lat="42.537148995324969" lon="2.586467983201146">
        <ele>738.90999999999997</ele>
        <time>2025-05-15T09:20:22Z</time>
      </trkpt>
      <trkpt lat="42.537068026140332" lon="2.586446022614837">
        <ele>738.42999999999995</ele>
        <time>2025-05-15T09:20:23Z</time>
      </trkpt>
      <trkpt lat="42.536982027813792" lon="2.586421966552734">
        <ele>738.42999999999995</ele>
        <time>2025-05-15T09:20:24Z</time>
      </trkpt>
      <trkpt lat="42.536945985630155" lon="2.58636899292469">
        <ele>737.95000000000005</ele>
        <time>2025-05-15T09:20:25Z</time>
      </trkpt>
      <trkpt lat="42.536901980638504" lon="2.58630302734673">
        <ele>737.95000000000005</ele>
        <time>2025-05-15T09:20:26Z</time>
      </trkpt>
      <trkpt lat="42.536851018667221" lon="2.586220968514681">
        <ele>737.95000000000005</ele>
        <time>2025-05-15T09:20:27Z</time>
      </trkpt>
      <trkpt lat="42.536821011453867" lon="2.586119966581464">
        <ele>738.42999999999995</ele>
        <time>2025-05-15T09:20:28Z</time>
      </trkpt>
      <trkpt lat="42.536783963441849" lon="2.585992980748415">
        <ele>738.42999999999995</ele>
        <time>2025-05-15T09:20:29Z</time>
      </trkpt>
      <trkpt lat="42.536744987592101" lon="2.585857026278973">
        <ele>738.90999999999997</ele>
        <time>2025-05-15T09:20:30Z</time>
      </trkpt>
      <trkpt lat="42.536707017570734" lon="2.585729034617543">
        <ele>738.90999999999997</ele>
        <time>2025-05-15T09:20:31Z</time>
      </trkpt>
      <trkpt lat="42.536662006750703" lon="2.585624009370804">
        <ele>738.90999999999997</ele>
        <time>2025-05-15T09:20:32Z</time>
      </trkpt>
      <trkpt lat="42.536595035344362" lon="2.585477996617556">
        <ele>738.42999999999995</ele>
        <time>2025-05-15T09:20:33Z</time>
      </trkpt>
      <trkpt lat="42.536467965692282" lon="2.585365008562803">
        <ele>737.47000000000003</ele>
        <time>2025-05-15T09:20:35Z</time>
      </trkpt>
      <trkpt lat="42.536316001787782" lon="2.58522997610271">
        <ele>736.02999999999997</ele>
        <time>2025-05-15T09:20:37Z</time>
      </trkpt>
      <trkpt lat="42.536244001239538" lon="2.585166022181511">
        <ele>735.54999999999995</ele>
        <time>2025-05-15T09:20:38Z</time>
      </trkpt>
      <trkpt lat="42.536189015954733" lon="2.585094021633267">
        <ele>735.07000000000005</ele>
        <time>2025-05-15T09:20:39Z</time>
      </trkpt>
      <trkpt lat="42.536141993477941" lon="2.585000982508063">
        <ele>735.07000000000005</ele>
        <time>2025-05-15T09:20:40Z</time>
      </trkpt>
      <trkpt lat="42.536083990707994" lon="2.584883971139789">
        <ele>734.58000000000004</ele>
        <time>2025-05-15T09:20:41Z</time>
      </trkpt>
      <trkpt lat="42.536003021523356" lon="2.584727983921766">
        <ele>734.10000000000002</ele>
        <time>2025-05-15T09:20:42Z</time>
      </trkpt>
      <trkpt lat="42.535911994054914" lon="2.584592029452324">
        <ele>733.13999999999999</ele>
        <time>2025-05-15T09:20:43Z</time>
      </trkpt>
      <trkpt lat="42.535815015435219" lon="2.584478035569191">
        <ele>732.65999999999997</ele>
        <time>2025-05-15T09:20:44Z</time>
      </trkpt>
      <trkpt lat="42.535717030987144" lon="2.58443403057754">
        <ele>731.70000000000005</ele>
        <time>2025-05-15T09:20:45Z</time>
      </trkpt>
      <trkpt lat="42.53562499769032" lon="2.584392037242651">
        <ele>731.22000000000003</ele>
        <time>2025-05-15T09:20:46Z</time>
      </trkpt>
      <trkpt lat="42.535546962171793" lon="2.584357000887394">
        <ele>730.25999999999999</ele>
        <time>2025-05-15T09:20:47Z</time>
      </trkpt>
      <trkpt lat="42.535474961623549" lon="2.584324982017279">
        <ele>729.77999999999997</ele>
        <time>2025-05-15T09:20:48Z</time>
      </trkpt>
      <trkpt lat="42.535415031015873" lon="2.584292041137815">
        <ele>728.82000000000005</ele>
        <time>2025-05-15T09:20:49Z</time>
      </trkpt>
      <trkpt lat="42.535404972732067" lon="2.584203025326133">
        <ele>727.86000000000001</ele>
        <time>2025-05-15T09:20:50Z</time>
      </trkpt>
      <trkpt lat="42.535401033237576" lon="2.584082996472716">
        <ele>727.37</ele>
        <time>2025-05-15T09:20:51Z</time>
      </trkpt>
      <trkpt lat="42.535445960238576" lon="2.583947964012623">
        <ele>726.40999999999997</ele>
        <time>2025-05-15T09:20:52Z</time>
      </trkpt>
      <trkpt lat="42.53549600020051" lon="2.583796000108123">
        <ele>725.92999999999995</ele>
        <time>2025-05-15T09:20:53Z</time>
      </trkpt>
      <trkpt lat="42.535547968000174" lon="2.583642024546862">
        <ele>724.97000000000003</ele>
        <time>2025-05-15T09:20:54Z</time>
      </trkpt>
      <trkpt lat="42.535573029890656" lon="2.583484025672078">
        <ele>724.00999999999999</ele>
        <time>2025-05-15T09:20:55Z</time>
      </trkpt>
      <trkpt lat="42.535638995468616" lon="2.582542989403009">
        <ele>720.64999999999998</ele>
        <time>2025-05-15T09:21:00Z</time>
      </trkpt>
      <trkpt lat="42.535631032660604" lon="2.58232899941504">
        <ele>719.20000000000005</ele>
        <time>2025-05-15T09:21:02Z</time>
      </trkpt>
      <trkpt lat="42.535589039325714" lon="2.582251969724894">
        <ele>718.24000000000001</ele>
        <time>2025-05-15T09:21:03Z</time>
      </trkpt>
      <trkpt lat="42.535521984100342" lon="2.582130013033748">
        <ele>717.75999999999999</ele>
        <time>2025-05-15T09:21:04Z</time>
      </trkpt>
      <trkpt lat="42.535286033526063" lon="2.581906970590353">
        <ele>714.88</ele>
        <time>2025-05-15T09:21:07Z</time>
      </trkpt>
      <trkpt lat="42.535205986350775" lon="2.581830024719238">
        <ele>714.39999999999998</ele>
        <time>2025-05-15T09:21:08Z</time>
      </trkpt>
      <trkpt lat="42.535134991630912" lon="2.581762969493866">
        <ele>713.91999999999996</ele>
        <time>2025-05-15T09:21:09Z</time>
      </trkpt>
      <trkpt lat="42.535069026052952" lon="2.581729022786021">
        <ele>713.44000000000005</ele>
        <time>2025-05-15T09:21:10Z</time>
      </trkpt>
      <trkpt lat="42.535014962777495" lon="2.581711001694202">
        <ele>712.95000000000005</ele>
        <time>2025-05-15T09:21:11Z</time>
      </trkpt>
      <trkpt lat="42.534971963614225" lon="2.581724999472499">
        <ele>712.95000000000005</ele>
        <time>2025-05-15T09:21:12Z</time>
      </trkpt>
      <trkpt lat="42.534940028563142" lon="2.581777973100543">
        <ele>712.47000000000003</ele>
        <time>2025-05-15T09:21:13Z</time>
      </trkpt>
      <trkpt lat="42.534927958622575" lon="2.581860031932592">
        <ele>711.99000000000001</ele>
        <time>2025-05-15T09:21:14Z</time>
      </trkpt>
      <trkpt lat="42.534942962229252" lon="2.581979976966977">
        <ele>711.50999999999999</ele>
        <time>2025-05-15T09:21:15Z</time>
      </trkpt>
      <trkpt lat="42.534993002191186" lon="2.582038985565305">
        <ele>711.02999999999997</ele>
        <time>2025-05-15T09:21:16Z</time>
      </trkpt>
      <trkpt lat="42.535061985254288" lon="2.582120038568974">
        <ele>710.07000000000005</ele>
        <time>2025-05-15T09:21:17Z</time>
      </trkpt>
      <trkpt lat="42.535130968317389" lon="2.582202013581991">
        <ele>709.59000000000003</ele>
        <time>2025-05-15T09:21:18Z</time>
      </trkpt>
      <trkpt lat="42.535186037421227" lon="2.582282982766628">
        <ele>709.11000000000001</ele>
        <time>2025-05-15T09:21:19Z</time>
      </trkpt>
      <trkpt lat="42.535209003835917" lon="2.582363029941917">
        <ele>708.14999999999998</ele>
        <time>2025-05-15T09:21:20Z</time>
      </trkpt>
      <trkpt lat="42.535207998007536" lon="2.582465959712863">
        <ele>707.66999999999996</ele>
        <time>2025-05-15T09:21:21Z</time>
      </trkpt>
      <trkpt lat="42.535180002450943" lon="2.582580037415028">
        <ele>706.71000000000004</ele>
        <time>2025-05-15T09:21:22Z</time>
      </trkpt>
      <trkpt lat="42.535148989409208" lon="2.582702999934554">
        <ele>706.23000000000002</ele>
        <time>2025-05-15T09:21:23Z</time>
      </trkpt>
      <trkpt lat="42.535114958882332" lon="2.582839960232377">
        <ele>705.25999999999999</ele>
        <time>2025-05-15T09:21:24Z</time>
      </trkpt>
      <trkpt lat="42.535103978589177" lon="2.582988990470767">
        <ele>703.82000000000005</ele>
        <time>2025-05-15T09:21:25Z</time>
      </trkpt>
      <trkpt lat="42.535091992467642" lon="2.583140032365918">
        <ele>702.86000000000001</ele>
        <time>2025-05-15T09:21:26Z</time>
      </trkpt>
      <trkpt lat="42.535081012174487" lon="2.583290990442038">
        <ele>701.89999999999998</ele>
        <time>2025-05-15T09:21:27Z</time>
      </trkpt>
      <trkpt lat="42.535057039931417" lon="2.583442032337189">
        <ele>700.94000000000005</ele>
        <time>2025-05-15T09:21:28Z</time>
      </trkpt>
      <trkpt lat="42.534989984706044" lon="2.583554014563561">
        <ele>699.98000000000002</ele>
        <time>2025-05-15T09:21:29Z</time>
      </trkpt>
      <trkpt lat="42.534913038834929" lon="2.583671025931835">
        <ele>699.01999999999998</ele>
        <time>2025-05-15T09:21:30Z</time>
      </trkpt>
      <trkpt lat="42.534831985831261" lon="2.583775967359543">
        <ele>698.04999999999995</ele>
        <time>2025-05-15T09:21:31Z</time>
      </trkpt>
      <trkpt lat="42.534751016646624" lon="2.583878980949521">
        <ele>697.09000000000003</ele>
        <time>2025-05-15T09:21:32Z</time>
      </trkpt>
      <trkpt lat="42.534598968923092" lon="2.584074027836323">
        <ele>695.16999999999996</ele>
        <time>2025-05-15T09:21:34Z</time>
      </trkpt>
      <trkpt lat="42.534540966153145" lon="2.584148962050676">
        <ele>693.73000000000002</ele>
        <time>2025-05-15T09:21:35Z</time>
      </trkpt>
      <trkpt lat="42.534493021667004" lon="2.584211993962526">
        <ele>692.76999999999998</ele>
        <time>2025-05-15T09:21:36Z</time>
      </trkpt>
      <trkpt lat="42.534512970596552" lon="2.584306038916111">
        <ele>691.80999999999995</ele>
        <time>2025-05-15T09:21:37Z</time>
      </trkpt>
      <trkpt lat="42.534541971981525" lon="2.58443696424365">
        <ele>691.33000000000004</ele>
        <time>2025-05-15T09:21:38Z</time>
      </trkpt>
      <trkpt lat="42.534577008336782" lon="2.584591023623943">
        <ele>690.36000000000001</ele>
        <time>2025-05-15T09:21:39Z</time>
      </trkpt>
      <trkpt lat="42.534627970308065" lon="2.584803001955152">
        <ele>689.88</ele>
        <time>2025-05-15T09:21:40Z</time>
      </trkpt>
      <trkpt lat="42.534715980291367" lon="2.584965024143457">
        <ele>688.91999999999996</ele>
        <time>2025-05-15T09:21:41Z</time>
      </trkpt>
      <trkpt lat="42.534803990274668" lon="2.585126040503383">
        <ele>688.44000000000005</ele>
        <time>2025-05-15T09:21:42Z</time>
      </trkpt>
      <trkpt lat="42.534884037449956" lon="2.58527297526598">
        <ele>687.96000000000004</ele>
        <time>2025-05-15T09:21:43Z</time>
      </trkpt>
      <trkpt lat="42.534945979714394" lon="2.585386969149113">
        <ele>687.48000000000002</ele>
        <time>2025-05-15T09:21:44Z</time>
      </trkpt>
      <trkpt lat="42.534993002191186" lon="2.585472967475653">
        <ele>687.48000000000002</ele>
        <time>2025-05-15T09:21:45Z</time>
      </trkpt>
      <trkpt lat="42.535017980262637" lon="2.585543040186167">
        <ele>687.48000000000002</ele>
        <time>2025-05-15T09:21:46Z</time>
      </trkpt>
      <trkpt lat="42.53504597581923" lon="2.585654016584158">
        <ele>687.48000000000002</ele>
        <time>2025-05-15T09:21:47Z</time>
      </trkpt>
      <trkpt lat="42.535071959719062" lon="2.585761975497007">
        <ele>687.96000000000004</ele>
        <time>2025-05-15T09:21:48Z</time>
      </trkpt>
      <trkpt lat="42.535061985254288" lon="2.585893990471959">
        <ele>688.44000000000005</ele>
        <time>2025-05-15T09:21:49Z</time>
      </trkpt>
      <trkpt lat="42.535049999132752" lon="2.586057018488646">
        <ele>688.44000000000005</ele>
        <time>2025-05-15T09:21:50Z</time>
      </trkpt>
      <trkpt lat="42.535000964999199" lon="2.586205964908004">
        <ele>688.91999999999996</ele>
        <time>2025-05-15T09:21:51Z</time>
      </trkpt>
      <trkpt lat="42.534951008856297" lon="2.586356000974774">
        <ele>688.91999999999996</ele>
        <time>2025-05-15T09:21:52Z</time>
      </trkpt>
      <trkpt lat="42.534870961681008" lon="2.586595974862576">
        <ele>689.39999999999998</ele>
        <time>2025-05-15T09:21:54Z</time>
      </trkpt>
      <trkpt lat="42.534840032458305" lon="2.58668901398778">
        <ele>689.39999999999998</ele>
        <time>2025-05-15T09:21:55Z</time>
      </trkpt>
      <trkpt lat="42.534813964739442" lon="2.586778029799461">
        <ele>689.39999999999998</ele>
        <time>2025-05-15T09:21:56Z</time>
      </trkpt>
      <trkpt lat="42.534813964739442" lon="2.58699000813067">
        <ele>688.44000000000005</ele>
        <time>2025-05-15T09:21:58Z</time>
      </trkpt>
      <trkpt lat="42.534813964739442" lon="2.587125962600112">
        <ele>687.48000000000002</ele>
        <time>2025-05-15T09:21:59Z</time>
      </trkpt>
      <trkpt lat="42.534800972789526" lon="2.587298965081573">
        <ele>687</ele>
        <time>2025-05-15T09:22:00Z</time>
      </trkpt>
      <trkpt lat="42.534781023859978" lon="2.587454030290246">
        <ele>686.03999999999996</ele>
        <time>2025-05-15T09:22:01Z</time>
      </trkpt>
      <trkpt lat="42.534761996939778" lon="2.587599037215114">
        <ele>685.55999999999995</ele>
        <time>2025-05-15T09:22:02Z</time>
      </trkpt>
      <trkpt lat="42.534724026918411" lon="2.587737003341317">
        <ele>684.60000000000002</ele>
        <time>2025-05-15T09:22:03Z</time>
      </trkpt>
      <trkpt lat="42.534666024148464" lon="2.587847979739308">
        <ele>683.63</ele>
        <time>2025-05-15T09:22:04Z</time>
      </trkpt>
      <trkpt lat="42.534524034708738" lon="2.588103041052818">
        <ele>682.19000000000005</ele>
        <time>2025-05-15T09:22:06Z</time>
      </trkpt>
      <trkpt lat="42.534315995872021" lon="2.588241007179022">
        <ele>680.75</ele>
        <time>2025-05-15T09:22:08Z</time>
      </trkpt>
      <trkpt lat="42.534239972010255" lon="2.588292974978685">
        <ele>680.26999999999998</ele>
        <time>2025-05-15T09:22:09Z</time>
      </trkpt>
      <trkpt lat="42.534161014482379" lon="2.588318036869168">
        <ele>680.26999999999998</ele>
        <time>2025-05-15T09:22:10Z</time>
      </trkpt>
      <trkpt lat="42.533744014799595" lon="2.588372016325593">
        <ele>680.26999999999998</ele>
        <time>2025-05-15T09:22:14Z</time>
      </trkpt>
      <trkpt lat="42.533642007037997" lon="2.588358018547297">
        <ele>680.26999999999998</ele>
        <time>2025-05-15T09:22:15Z</time>
      </trkpt>
      <trkpt lat="42.533547040075064" lon="2.588344020769">
        <ele>680.26999999999998</ele>
        <time>2025-05-15T09:22:16Z</time>
      </trkpt>
      <trkpt lat="42.533461041748524" lon="2.588332034647465">
        <ele>679.78999999999996</ele>
        <time>2025-05-15T09:22:17Z</time>
      </trkpt>
      <trkpt lat="42.533373031765223" lon="2.588318958878517">
        <ele>679.78999999999996</ele>
        <time>2025-05-15T09:22:18Z</time>
      </trkpt>
      <trkpt lat="42.533294996246696" lon="2.588317031040788">
        <ele>679.30999999999995</ele>
        <time>2025-05-15T09:22:19Z</time>
      </trkpt>
      <trkpt lat="42.533192988485098" lon="2.588357012718916">
        <ele>678.83000000000004</ele>
        <time>2025-05-15T09:22:20Z</time>
      </trkpt>
      <trkpt lat="42.533086035400629" lon="2.588398000225425">
        <ele>678.83000000000004</ele>
        <time>2025-05-15T09:22:21Z</time>
      </trkpt>
      <trkpt lat="42.532972041517496" lon="2.588442005217075">
        <ele>678.35000000000002</ele>
        <time>2025-05-15T09:22:22Z</time>
      </trkpt>
      <trkpt lat="42.532854024320841" lon="2.588499002158642">
        <ele>678.83000000000004</ele>
        <time>2025-05-15T09:22:23Z</time>
      </trkpt>
      <trkpt lat="42.532732989639044" lon="2.588563961908221">
        <ele>678.83000000000004</ele>
        <time>2025-05-15T09:22:24Z</time>
      </trkpt>
      <trkpt lat="42.532608015462756" lon="2.588649960234761">
        <ele>678.83000000000004</ele>
        <time>2025-05-15T09:22:25Z</time>
      </trkpt>
      <trkpt lat="42.53248899243772" lon="2.588768983259797">
        <ele>679.30999999999995</ele>
        <time>2025-05-15T09:22:26Z</time>
      </trkpt>
      <trkpt lat="42.532270979136229" lon="2.588986996561289">
        <ele>679.30999999999995</ele>
        <time>2025-05-15T09:22:28Z</time>
      </trkpt>
      <trkpt lat="42.532180035486817" lon="2.589078024029732">
        <ele>679.78999999999996</ele>
        <time>2025-05-15T09:22:29Z</time>
      </trkpt>
      <trkpt lat="42.532095964998007" lon="2.589128986001015">
        <ele>679.78999999999996</ele>
        <time>2025-05-15T09:22:30Z</time>
      </trkpt>
      <trkpt lat="42.531954981386662" lon="2.58916100487113">
        <ele>680.26999999999998</ele>
        <time>2025-05-15T09:22:32Z</time>
      </trkpt>
      <trkpt lat="42.531874012202024" lon="2.589147007092834">
        <ele>680.75</ele>
        <time>2025-05-15T09:22:33Z</time>
      </trkpt>
      <trkpt lat="42.531677959486842" lon="2.589113982394338">
        <ele>681.23000000000002</ele>
        <time>2025-05-15T09:22:35Z</time>
      </trkpt>
      <trkpt lat="42.53156597726047" lon="2.589127980172634">
        <ele>681.71000000000004</ele>
        <time>2025-05-15T09:22:36Z</time>
      </trkpt>
      <trkpt lat="42.531476961448789" lon="2.589169973507524">
        <ele>682.66999999999996</ele>
        <time>2025-05-15T09:22:37Z</time>
      </trkpt>
      <trkpt lat="42.531225001439452" lon="2.589348005130887">
        <ele>683.63</ele>
        <time>2025-05-15T09:22:40Z</time>
      </trkpt>
      <trkpt lat="42.531166998669505" lon="2.589426040649414">
        <ele>684.12</ele>
        <time>2025-05-15T09:22:41Z</time>
      </trkpt>
      <trkpt lat="42.531140008941293" lon="2.589584039524198">
        <ele>684.12</ele>
        <time>2025-05-15T09:22:42Z</time>
      </trkpt>
      <trkpt lat="42.531055016443133" lon="2.589921997860074">
        <ele>682.66999999999996</ele>
        <time>2025-05-15T09:22:45Z</time>
      </trkpt>
      <trkpt lat="42.531015034765005" lon="2.589972959831357">
        <ele>682.19000000000005</ele>
        <time>2025-05-15T09:22:46Z</time>
      </trkpt>
      <trkpt lat="42.530958959832788" lon="2.590000033378601">
        <ele>681.23000000000002</ele>
        <time>2025-05-15T09:22:47Z</time>
      </trkpt>
      <trkpt lat="42.530889976769686" lon="2.590031968429685">
        <ele>680.75</ele>
        <time>2025-05-15T09:22:48Z</time>
      </trkpt>
      <trkpt lat="42.530814036726952" lon="2.590069016441703">
        <ele>680.26999999999998</ele>
        <time>2025-05-15T09:22:49Z</time>
      </trkpt>
      <trkpt lat="42.530738012865186" lon="2.590103968977928">
        <ele>680.26999999999998</ele>
        <time>2025-05-15T09:22:50Z</time>
      </trkpt>
      <trkpt lat="42.530658971518278" lon="2.590142022818327">
        <ele>680.26999999999998</ele>
        <time>2025-05-15T09:22:51Z</time>
      </trkpt>
      <trkpt lat="42.530605997890234" lon="2.590204970911145">
        <ele>679.78999999999996</ele>
        <time>2025-05-15T09:22:52Z</time>
      </trkpt>
      <trkpt lat="42.530579008162022" lon="2.590258028358221">
        <ele>679.78999999999996</ele>
        <time>2025-05-15T09:22:53Z</time>
      </trkpt>
      <trkpt lat="42.530543971806765" lon="2.590327011421323">
        <ele>679.30999999999995</ele>
        <time>2025-05-15T09:22:54Z</time>
      </trkpt>
      <trkpt lat="42.530544977635145" lon="2.590324999764562">
        <ele>679.30999999999995</ele>
        <time>2025-05-15T09:22:55Z</time>
      </trkpt>
      <trkpt lat="42.530547995120287" lon="2.590355006977916">
        <ele>678.83000000000004</ele>
        <time>2025-05-15T09:22:56Z</time>
      </trkpt>
      <trkpt lat="42.530552018433809" lon="2.590386020019651">
        <ele>677.38999999999999</ele>
        <time>2025-05-15T09:22:58Z</time>
      </trkpt>
      <trkpt lat="42.530555035918951" lon="2.590415021404624">
        <ele>676.90999999999997</ele>
        <time>2025-05-15T09:22:59Z</time>
      </trkpt>
      <trkpt lat="42.530566016212106" lon="2.590499008074403">
        <ele>675.94000000000005</ele>
        <time>2025-05-15T09:23:00Z</time>
      </trkpt>
      <trkpt lat="42.530617984011769" lon="2.590590035542846">
        <ele>674.98000000000002</ele>
        <time>2025-05-15T09:23:02Z</time>
      </trkpt>
      <trkpt lat="42.530652014538646" lon="2.590648960322142">
        <ele>674.5</ele>
        <time>2025-05-15T09:23:03Z</time>
      </trkpt>
      <trkpt lat="42.530730972066522" lon="2.590652983635664">
        <ele>674.01999999999998</ele>
        <time>2025-05-15T09:23:04Z</time>
      </trkpt>
      <trkpt lat="42.530813030898571" lon="2.590657006949186">
        <ele>673.53999999999996</ele>
        <time>2025-05-15T09:23:05Z</time>
      </trkpt>
      <trkpt lat="42.530911015346646" lon="2.590662036091089">
        <ele>673.05999999999995</ele>
        <time>2025-05-15T09:23:06Z</time>
      </trkpt>
      <trkpt lat="42.531204968690872" lon="2.590714003890753">
        <ele>672.10000000000002</ele>
        <time>2025-05-15T09:23:09Z</time>
      </trkpt>
      <trkpt lat="42.531404038891196" lon="2.590783992782235">
        <ele>671.13999999999999</ele>
        <time>2025-05-15T09:23:11Z</time>
      </trkpt>
      <trkpt lat="42.531518032774329" lon="2.590771000832319">
        <ele>671.13999999999999</ele>
        <time>2025-05-15T09:23:12Z</time>
      </trkpt>
      <trkpt lat="42.531621968373656" lon="2.590731019154191">
        <ele>670.65999999999997</ele>
        <time>2025-05-15T09:23:13Z</time>
      </trkpt>
      <trkpt lat="42.53195003606379" lon="2.590659018605948">
        <ele>669.22000000000003</ele>
        <time>2025-05-15T09:23:16Z</time>
      </trkpt>
      <trkpt lat="42.532209036871791" lon="2.590680979192257">
        <ele>667.76999999999998</ele>
        <time>2025-05-15T09:23:18Z</time>
      </trkpt>
      <trkpt lat="42.532544983550906" lon="2.590709980577231">
        <ele>665.37</ele>
        <time>2025-05-15T09:23:21Z</time>
      </trkpt>
      <trkpt lat="42.532670963555574" lon="2.590651977807283">
        <ele>664.40999999999997</ele>
        <time>2025-05-15T09:23:22Z</time>
      </trkpt>
      <trkpt lat="42.532770037651062" lon="2.590582994744182">
        <ele>662.97000000000003</ele>
        <time>2025-05-15T09:23:23Z</time>
      </trkpt>
      <trkpt lat="42.532871039584279" lon="2.590513005852699">
        <ele>662.00999999999999</ele>
        <time>2025-05-15T09:23:24Z</time>
      </trkpt>
      <trkpt lat="42.532972041517496" lon="2.590442011132836">
        <ele>660.55999999999995</ele>
        <time>2025-05-15T09:23:25Z</time>
      </trkpt>
      <trkpt lat="42.533278986811638" lon="2.590228021144867">
        <ele>657.20000000000005</ele>
        <time>2025-05-15T09:23:28Z</time>
      </trkpt>
      <trkpt lat="42.533399015665054" lon="2.590182004496455">
        <ele>656.24000000000001</ele>
        <time>2025-05-15T09:23:29Z</time>
      </trkpt>
      <trkpt lat="42.533522984012961" lon="2.590139005333185">
        <ele>655.27999999999997</ele>
        <time>2025-05-15T09:23:30Z</time>
      </trkpt>
      <trkpt lat="42.533653993159533" lon="2.590092988684773">
        <ele>654.30999999999995</ele>
        <time>2025-05-15T09:23:31Z</time>
      </trkpt>
      <trkpt lat="42.533791037276387" lon="2.590073039755225">
        <ele>652.87</ele>
        <time>2025-05-15T09:23:32Z</time>
      </trkpt>
      <trkpt lat="42.533932020887733" lon="2.590078990906477">
        <ele>651.90999999999997</ele>
        <time>2025-05-15T09:23:33Z</time>
      </trkpt>
      <trkpt lat="42.5340770278126" lon="2.590086031705141">
        <ele>650.95000000000005</ele>
        <time>2025-05-15T09:23:34Z</time>
      </trkpt>
      <trkpt lat="42.534637022763491" lon="2.590110003948212">
        <ele>648.07000000000005</ele>
        <time>2025-05-15T09:23:38Z</time>
      </trkpt>
      <trkpt lat="42.534764008596539" lon="2.59017001837492">
        <ele>647.10000000000002</ele>
        <time>2025-05-15T09:23:39Z</time>
      </trkpt>
      <trkpt lat="42.534878002479672" lon="2.590254005044699">
        <ele>645.65999999999997</ele>
        <time>2025-05-15T09:23:40Z</time>
      </trkpt>
      <trkpt lat="42.534996019676328" lon="2.590340003371239">
        <ele>644.70000000000005</ele>
        <time>2025-05-15T09:23:41Z</time>
      </trkpt>
      <trkpt lat="42.5350889749825" lon="2.590453997254372">
        <ele>643.25999999999999</ele>
        <time>2025-05-15T09:23:42Z</time>
      </trkpt>
      <trkpt lat="42.535183019936085" lon="2.590575031936169">
        <ele>641.82000000000005</ele>
        <time>2025-05-15T09:23:43Z</time>
      </trkpt>
      <trkpt lat="42.535277986899018" lon="2.590699000284076">
        <ele>640.38</ele>
        <time>2025-05-15T09:23:44Z</time>
      </trkpt>
      <trkpt lat="42.535373037680984" lon="2.590820034965873">
        <ele>638.92999999999995</ele>
        <time>2025-05-15T09:23:45Z</time>
      </trkpt>
      <trkpt lat="42.535468004643917" lon="2.590942997485399">
        <ele>637.97000000000003</ele>
        <time>2025-05-15T09:23:46Z</time>
      </trkpt>
      <trkpt lat="42.535578981041908" lon="2.5910500343889">
        <ele>637.00999999999999</ele>
        <time>2025-05-15T09:23:47Z</time>
      </trkpt>
      <trkpt lat="42.535689035430551" lon="2.591121029108763">
        <ele>635.57000000000005</ele>
        <time>2025-05-15T09:23:48Z</time>
      </trkpt>
      <trkpt lat="42.535790037363768" lon="2.591186994686723">
        <ele>634.61000000000001</ele>
        <time>2025-05-15T09:23:49Z</time>
      </trkpt>
      <trkpt lat="42.535923980176449" lon="2.591347005218267">
        <ele>631.72000000000003</ele>
        <time>2025-05-15T09:23:51Z</time>
      </trkpt>
      <trkpt lat="42.535942001268268" lon="2.591485977172852">
        <ele>630.27999999999997</ele>
        <time>2025-05-15T09:23:53Z</time>
      </trkpt>
      <trkpt lat="42.535930015146732" lon="2.591564012691379">
        <ele>629.79999999999995</ele>
        <time>2025-05-15T09:23:54Z</time>
      </trkpt>
      <trkpt lat="42.535908976569772" lon="2.591700972989202">
        <ele>629.32000000000005</ele>
        <time>2025-05-15T09:23:55Z</time>
      </trkpt>
      <trkpt lat="42.535877041518688" lon="2.591770039871335">
        <ele>629.32000000000005</ele>
        <time>2025-05-15T09:23:56Z</time>
      </trkpt>
      <trkpt lat="42.535823984071612" lon="2.591883027926087">
        <ele>629.79999999999995</ele>
        <time>2025-05-15T09:23:57Z</time>
      </trkpt>
      <trkpt lat="42.535785008221865" lon="2.592023005709052">
        <ele>630.27999999999997</ele>
        <time>2025-05-15T09:23:58Z</time>
      </trkpt>
      <trkpt lat="42.535800011828542" lon="2.592140017077327">
        <ele>630.75999999999999</ele>
        <time>2025-05-15T09:23:59Z</time>
      </trkpt>
      <trkpt lat="42.535854997113347" lon="2.592243030667305">
        <ele>630.75999999999999</ele>
        <time>2025-05-15T09:24:00Z</time>
      </trkpt>
      <trkpt lat="42.535910988226533" lon="2.592339003458619">
        <ele>630.27999999999997</ele>
        <time>2025-05-15T09:24:01Z</time>
      </trkpt>
      <trkpt lat="42.535977959632874" lon="2.592419972643256">
        <ele>630.27999999999997</ele>
        <time>2025-05-15T09:24:02Z</time>
      </trkpt>
      <trkpt lat="42.536051971837878" lon="2.592450985684991">
        <ele>630.75999999999999</ele>
        <time>2025-05-15T09:24:03Z</time>
      </trkpt>
      <trkpt lat="42.536137970164418" lon="2.59246900677681">
        <ele>631.24000000000001</ele>
        <time>2025-05-15T09:24:04Z</time>
      </trkpt>
      <trkpt lat="42.53624701872468" lon="2.592456014826894">
        <ele>632.67999999999995</ele>
        <time>2025-05-15T09:24:05Z</time>
      </trkpt>
      <trkpt lat="42.536356989294291" lon="2.592443022876978">
        <ele>633.64999999999998</ele>
        <time>2025-05-15T09:24:06Z</time>
      </trkpt>
      <trkpt lat="42.536466959863901" lon="2.592430030927062">
        <ele>634.61000000000001</ele>
        <time>2025-05-15T09:24:07Z</time>
      </trkpt>
      <trkpt lat="42.536604003980756" lon="2.592464983463287">
        <ele>635.57000000000005</ele>
        <time>2025-05-15T09:24:08Z</time>
      </trkpt>
      <trkpt lat="42.536733001470566" lon="2.592498008161783">
        <ele>636.04999999999995</ele>
        <time>2025-05-15T09:24:09Z</time>
      </trkpt>
      <trkpt lat="42.536866022273898" lon="2.59253203868866">
        <ele>636.52999999999997</ele>
        <time>2025-05-15T09:24:10Z</time>
      </trkpt>
      <trkpt lat="42.536996025592089" lon="2.592564979568124">
        <ele>637.49000000000001</ele>
        <time>2025-05-15T09:24:11Z</time>
      </trkpt>
      <trkpt lat="42.537126028910279" lon="2.592599010095">
        <ele>637.49000000000001</ele>
        <time>2025-05-15T09:24:12Z</time>
      </trkpt>
      <trkpt lat="42.537265000864863" lon="2.592633962631226">
        <ele>637.97000000000003</ele>
        <time>2025-05-15T09:24:13Z</time>
      </trkpt>
      <trkpt lat="42.53738896921277" lon="2.592665981501341">
        <ele>637.97000000000003</ele>
        <time>2025-05-15T09:24:14Z</time>
      </trkpt>
      <trkpt lat="42.537542022764683" lon="2.592665981501341">
        <ele>637.97000000000003</ele>
        <time>2025-05-15T09:24:15Z</time>
      </trkpt>
      <trkpt lat="42.537675965577364" lon="2.592665981501341">
        <ele>637.97000000000003</ele>
        <time>2025-05-15T09:24:16Z</time>
      </trkpt>
      <trkpt lat="42.537964973598719" lon="2.592688025906682">
        <ele>636.04999999999995</ele>
        <time>2025-05-15T09:24:18Z</time>
      </trkpt>
      <trkpt lat="42.538338974118233" lon="2.592768995091319">
        <ele>632.67999999999995</ele>
        <time>2025-05-15T09:24:21Z</time>
      </trkpt>
      <trkpt lat="42.538468977436423" lon="2.592796990647912">
        <ele>631.72000000000003</ele>
        <time>2025-05-15T09:24:22Z</time>
      </trkpt>
      <trkpt lat="42.538582971319556" lon="2.592821968719363">
        <ele>630.75999999999999</ele>
        <time>2025-05-15T09:24:23Z</time>
      </trkpt>
      <trkpt lat="42.5386549718678" lon="2.592837978154421">
        <ele>629.79999999999995</ele>
        <time>2025-05-15T09:24:24Z</time>
      </trkpt>
      <trkpt lat="42.53874097019434" lon="2.59292297065258">
        <ele>628.36000000000001</ele>
        <time>2025-05-15T09:24:25Z</time>
      </trkpt>
      <trkpt lat="42.538806013762951" lon="2.592988014221191">
        <ele>626.91999999999996</ele>
        <time>2025-05-15T09:24:26Z</time>
      </trkpt>
      <trkpt lat="42.538841972127557" lon="2.593056997284293">
        <ele>625.96000000000004</ele>
        <time>2025-05-15T09:24:27Z</time>
      </trkpt>
      <trkpt lat="42.53895697183907" lon="2.593274004757404">
        <ele>623.54999999999995</ele>
        <time>2025-05-15T09:24:29Z</time>
      </trkpt>
      <trkpt lat="42.539026038721204" lon="2.593368971720338">
        <ele>622.59000000000003</ele>
        <time>2025-05-15T09:24:30Z</time>
      </trkpt>
      <trkpt lat="42.539112037047744" lon="2.593421023339033">
        <ele>621.63</ele>
        <time>2025-05-15T09:24:31Z</time>
      </trkpt>
      <trkpt lat="42.539457958191633" lon="2.593540968373418">
        <ele>616.34000000000003</ele>
        <time>2025-05-15T09:24:34Z</time>
      </trkpt>
      <trkpt lat="42.539864983409643" lon="2.593639958649874">
        <ele>612.01999999999998</ele>
        <time>2025-05-15T09:24:37Z</time>
      </trkpt>
      <trkpt lat="42.539995992556214" lon="2.593671977519989">
        <ele>610.57000000000005</ele>
        <time>2025-05-15T09:24:38Z</time>
      </trkpt>
      <trkpt lat="42.540061958134174" lon="2.593754036352038">
        <ele>608.64999999999998</ele>
        <time>2025-05-15T09:24:39Z</time>
      </trkpt>
      <trkpt lat="42.540132030844688" lon="2.593853026628494">
        <ele>606.73000000000002</ele>
        <time>2025-05-15T09:24:40Z</time>
      </trkpt>
      <trkpt lat="42.540192967280746" lon="2.593959979712963">
        <ele>605.28999999999996</ele>
        <time>2025-05-15T09:24:41Z</time>
      </trkpt>
      <trkpt lat="42.540255999192595" lon="2.594085959717631">
        <ele>604.33000000000004</ele>
        <time>2025-05-15T09:24:42Z</time>
      </trkpt>
      <trkpt lat="42.5405010022223" lon="2.59457596577704">
        <ele>598.08000000000004</ele>
        <time>2025-05-15T09:24:46Z</time>
      </trkpt>
      <trkpt lat="42.540513994172215" lon="2.59466003626585">
        <ele>597.60000000000002</ele>
        <time>2025-05-15T09:24:47Z</time>
      </trkpt>
      <trkpt lat="42.54054400138557" lon="2.59485499933362">
        <ele>596.63999999999999</ele>
        <time>2025-05-15T09:24:48Z</time>
      </trkpt>
      <trkpt lat="42.540537966415286" lon="2.594880983233452">
        <ele>596.63999999999999</ele>
        <time>2025-05-15T09:24:49Z</time>
      </trkpt>
      <trkpt lat="42.540504019707441" lon="2.595028001815081">
        <ele>595.66999999999996</ele>
        <time>2025-05-15T09:24:50Z</time>
      </trkpt>
      <trkpt lat="42.540465965867043" lon="2.595193041488528">
        <ele>594.23000000000002</ele>
        <time>2025-05-15T09:24:51Z</time>
      </trkpt>
      <trkpt lat="42.540430007502437" lon="2.595352968201041">
        <ele>593.26999999999998</ele>
        <time>2025-05-15T09:24:52Z</time>
      </trkpt>
      <trkpt lat="42.54037200473249" lon="2.59560601785779">
        <ele>591.83000000000004</ele>
        <time>2025-05-15T09:24:53Z</time>
      </trkpt>
      <trkpt lat="42.540383990854025" lon="2.595693022012711">
        <ele>590.38999999999999</ele>
        <time>2025-05-15T09:24:54Z</time>
      </trkpt>
      <trkpt lat="42.540406035259366" lon="2.595854960381985">
        <ele>589.42999999999995</ele>
        <time>2025-05-15T09:24:55Z</time>
      </trkpt>
      <trkpt lat="42.540435958653688" lon="2.596078002825379">
        <ele>588.46000000000004</ele>
        <time>2025-05-15T09:24:56Z</time>
      </trkpt>
      <trkpt lat="42.540493039414287" lon="2.596227033063769">
        <ele>587.01999999999998</ele>
        <time>2025-05-15T09:24:57Z</time>
      </trkpt>
      <trkpt lat="42.540552970021963" lon="2.596386037766933">
        <ele>585.58000000000004</ele>
        <time>2025-05-15T09:24:58Z</time>
      </trkpt>
      <trkpt lat="42.540613990277052" lon="2.596546970307827">
        <ele>584.62</ele>
        <time>2025-05-15T09:24:59Z</time>
      </trkpt>
      <trkpt lat="42.540671993046999" lon="2.596700023859739">
        <ele>583.65999999999997</ele>
        <time>2025-05-15T09:25:00Z</time>
      </trkpt>
      <trkpt lat="42.540690014138818" lon="2.596861040219665">
        <ele>583.17999999999995</ele>
        <time>2025-05-15T09:25:01Z</time>
      </trkpt>
      <trkpt lat="42.540707029402256" lon="2.597027001902461">
        <ele>583.17999999999995</ele>
        <time>2025-05-15T09:25:02Z</time>
      </trkpt>
      <trkpt lat="42.54073703661561" lon="2.597301006317139">
        <ele>582.70000000000005</ele>
        <time>2025-05-15T09:25:03Z</time>
      </trkpt>
      <trkpt lat="42.540763020515442" lon="2.59736898355186">
        <ele>581.25</ele>
        <time>2025-05-15T09:25:04Z</time>
      </trkpt>
      <trkpt lat="42.540810965001583" lon="2.597491024062038">
        <ele>580.28999999999996</ele>
        <time>2025-05-15T09:25:05Z</time>
      </trkpt>
      <trkpt lat="42.540929988026619" lon="2.597795035690069">
        <ele>578.85000000000002</ele>
        <time>2025-05-15T09:25:06Z</time>
      </trkpt>
      <trkpt lat="42.540929988026619" lon="2.597795035690069">
        <ele>577.40999999999997</ele>
        <time>2025-05-15T09:25:07Z</time>
      </trkpt>
      <trkpt lat="42.540929988026619" lon="2.597843986004591">
        <ele>576.45000000000005</ele>
        <time>2025-05-15T09:25:08Z</time>
      </trkpt>
      <trkpt lat="42.540929988026619" lon="2.598073985427618">
        <ele>575.97000000000003</ele>
        <time>2025-05-15T09:25:09Z</time>
      </trkpt>
      <trkpt lat="42.540885983034968" lon="2.598246987909079">
        <ele>575.00999999999999</ele>
        <time>2025-05-15T09:25:10Z</time>
      </trkpt>
      <trkpt lat="42.54082202911377" lon="2.598389983177185">
        <ele>574.03999999999996</ele>
        <time>2025-05-15T09:25:11Z</time>
      </trkpt>
      <trkpt lat="42.540752962231636" lon="2.598544964566827">
        <ele>573.08000000000004</ele>
        <time>2025-05-15T09:25:12Z</time>
      </trkpt>
      <trkpt lat="42.540655983611941" lon="2.598730036988854">
        <ele>571.63999999999999</ele>
        <time>2025-05-15T09:25:13Z</time>
      </trkpt>
      <trkpt lat="42.540303021669388" lon="2.599318027496338">
        <ele>568.27999999999997</ele>
        <time>2025-05-15T09:25:17Z</time>
      </trkpt>
      <trkpt lat="42.540225991979241" lon="2.599446019157767">
        <ele>568.75999999999999</ele>
        <time>2025-05-15T09:25:18Z</time>
      </trkpt>
      <trkpt lat="42.540181986987591" lon="2.599519025534391">
        <ele>567.79999999999995</ele>
        <time>2025-05-15T09:25:19Z</time>
      </trkpt>
      <trkpt lat="42.54007201641798" lon="2.599704014137387">
        <ele>568.27999999999997</ele>
        <time>2025-05-15T09:25:20Z</time>
      </trkpt>
      <trkpt lat="42.54002901725471" lon="2.599982963874936">
        <ele>570.20000000000005</ele>
        <time>2025-05-15T09:25:21Z</time>
      </trkpt>
      <trkpt lat="42.54020000807941" lon="2.600048007443547">
        <ele>570.67999999999995</ele>
        <time>2025-05-15T09:25:22Z</time>
      </trkpt>
      <trkpt lat="42.540359012782574" lon="2.599967960268259">
        <ele>571.15999999999997</ele>
        <time>2025-05-15T09:25:23Z</time>
      </trkpt>
      <trkpt lat="42.540451968088746" lon="2.599922027438879">
        <ele>571.63999999999999</ele>
        <time>2025-05-15T09:25:24Z</time>
      </trkpt>
      <trkpt lat="42.5405010022223" lon="2.599896965548396">
        <ele>571.63999999999999</ele>
        <time>2025-05-15T09:25:25Z</time>
      </trkpt>
      <trkpt lat="42.540659001097083" lon="2.59988397359848">
        <ele>571.63999999999999</ele>
        <time>2025-05-15T09:25:26Z</time>
      </trkpt>
      <trkpt lat="42.540757991373539" lon="2.599876010790467">
        <ele>572.12</ele>
        <time>2025-05-15T09:25:27Z</time>
      </trkpt>
      <trkpt lat="42.540847007185221" lon="2.599912974983454">
        <ele>572.12</ele>
        <time>2025-05-15T09:25:28Z</time>
      </trkpt>
      <trkpt lat="42.54097499884665" lon="2.59996603243053">
        <ele>573.08000000000004</ele>
        <time>2025-05-15T09:25:29Z</time>
      </trkpt>
      <trkpt lat="42.541073989123106" lon="2.600020011886954">
        <ele>573.08000000000004</ele>
        <time>2025-05-15T09:25:30Z</time>
      </trkpt>
      <trkpt lat="42.541498029604554" lon="2.600300973281264">
        <ele>574.03999999999996</ele>
        <time>2025-05-15T09:25:34Z</time>
      </trkpt>
      <trkpt lat="42.541552009060979" lon="2.600390994921327">
        <ele>574.03999999999996</ele>
        <time>2025-05-15T09:25:35Z</time>
      </trkpt>
      <trkpt lat="42.541583022102714" lon="2.600471964105964">
        <ele>574.03999999999996</ele>
        <time>2025-05-15T09:25:36Z</time>
      </trkpt>
      <trkpt lat="42.541628032922745" lon="2.600586963817477">
        <ele>575.00999999999999</ele>
        <time>2025-05-15T09:25:37Z</time>
      </trkpt>
      <trkpt lat="42.541658962145448" lon="2.600670028477907">
        <ele>575.00999999999999</ele>
        <time>2025-05-15T09:25:38Z</time>
      </trkpt>
      <trkpt lat="42.541675977408886" lon="2.60080698877573">
        <ele>576.92999999999995</ele>
        <time>2025-05-15T09:25:39Z</time>
      </trkpt>
      <trkpt lat="42.541701961308718" lon="2.601034976541996">
        <ele>577.88999999999999</ele>
        <time>2025-05-15T09:25:40Z</time>
      </trkpt>
      <trkpt lat="42.541700033470988" lon="2.601081999018788">
        <ele>579.80999999999995</ele>
        <time>2025-05-15T09:25:41Z</time>
      </trkpt>
      <trkpt lat="42.541690981015563" lon="2.601228011772037">
        <ele>581.73000000000002</ele>
        <time>2025-05-15T09:25:42Z</time>
      </trkpt>
      <trkpt lat="42.541681006550789" lon="2.601399002596736">
        <ele>582.22000000000003</ele>
        <time>2025-05-15T09:25:43Z</time>
      </trkpt>
      <trkpt lat="42.541690981015563" lon="2.601461028680205">
        <ele>582.70000000000005</ele>
        <time>2025-05-15T09:25:44Z</time>
      </trkpt>
      <trkpt lat="42.541732974350452" lon="2.601566975936294">
        <ele>584.13999999999999</ele>
        <time>2025-05-15T09:25:45Z</time>
      </trkpt>
      <trkpt lat="42.541779996827245" lon="2.601624978706241">
        <ele>585.10000000000002</ele>
        <time>2025-05-15T09:25:46Z</time>
      </trkpt>
      <trkpt lat="42.541837999597192" lon="2.601626990363002">
        <ele>586.05999999999995</ele>
        <time>2025-05-15T09:25:47Z</time>
      </trkpt>
      <trkpt lat="42.54187798127532" lon="2.60162103921175">
        <ele>587.5</ele>
        <time>2025-05-15T09:25:48Z</time>
      </trkpt>
      <trkpt lat="42.541917040944099" lon="2.601613998413086">
        <ele>593.26999999999998</ele>
        <time>2025-05-15T09:25:49Z</time>
      </trkpt>
      <trkpt lat="42.541917040944099" lon="2.601613998413086">
        <ele>596.63999999999999</ele>
        <time>2025-05-15T09:25:50Z</time>
      </trkpt>
      <trkpt lat="42.541954005137086" lon="2.601550966501236">
        <ele>598.55999999999995</ele>
        <time>2025-05-15T09:25:51Z</time>
      </trkpt>
      <trkpt lat="42.542055007070303" lon="2.601379975676537">
        <ele>601.44000000000005</ele>
        <time>2025-05-15T09:25:53Z</time>
      </trkpt>
      <trkpt lat="42.542131030932069" lon="2.601248966529965">
        <ele>602.39999999999998</ele>
        <time>2025-05-15T09:25:54Z</time>
      </trkpt>
      <trkpt lat="42.542212000116706" lon="2.601195992901921">
        <ele>602.88</ele>
        <time>2025-05-15T09:25:55Z</time>
      </trkpt>
      <trkpt lat="42.542407969012856" lon="2.60117101483047">
        <ele>603.85000000000002</ele>
        <time>2025-05-15T09:25:56Z</time>
      </trkpt>
      <trkpt lat="42.542502013966441" lon="2.601227005943656">
        <ele>604.80999999999995</ele>
        <time>2025-05-15T09:25:57Z</time>
      </trkpt>
      <trkpt lat="42.542619025334716" lon="2.601338988170028">
        <ele>605.28999999999996</ele>
        <time>2025-05-15T09:25:58Z</time>
      </trkpt>
      <trkpt lat="42.543181031942368" lon="2.601903006434441">
        <ele>611.05999999999995</ele>
        <time>2025-05-15T09:26:04Z</time>
      </trkpt>
      <trkpt lat="42.543375995010138" lon="2.601999985054135">
        <ele>612.01999999999998</ele>
        <time>2025-05-15T09:26:06Z</time>
      </trkpt>
      <trkpt lat="42.5438769813627" lon="2.602048013359308">
        <ele>615.86000000000001</ele>
        <time>2025-05-15T09:26:10Z</time>
      </trkpt>
      <trkpt lat="42.543965997174382" lon="2.602111967280507">
        <ele>615.86000000000001</ele>
        <time>2025-05-15T09:26:11Z</time>
      </trkpt>
      <trkpt lat="42.544064987450838" lon="2.602224033325911">
        <ele>616.34000000000003</ele>
        <time>2025-05-15T09:26:12Z</time>
      </trkpt>
      <trkpt lat="42.544140005484223" lon="2.602346995845437">
        <ele>616.82000000000005</ele>
        <time>2025-05-15T09:26:13Z</time>
      </trkpt>
      <trkpt lat="42.544227009639144" lon="2.602489991113544">
        <ele>618.25999999999999</ele>
        <time>2025-05-15T09:26:14Z</time>
      </trkpt>
      <trkpt lat="42.544336980208755" lon="2.602617982774973">
        <ele>619.71000000000004</ele>
        <time>2025-05-15T09:26:15Z</time>
      </trkpt>
      <trkpt lat="42.544462960213423" lon="2.60273901745677">
        <ele>620.66999999999996</ele>
        <time>2025-05-15T09:26:16Z</time>
      </trkpt>
      <trkpt lat="42.545451018959284" lon="2.603476960211992">
        <ele>631.24000000000001</ele>
        <time>2025-05-15T09:26:24Z</time>
      </trkpt>
      <trkpt lat="42.545541962608695" lon="2.603585002943873">
        <ele>632.67999999999995</ele>
        <time>2025-05-15T09:26:25Z</time>
      </trkpt>
      <trkpt lat="42.545584039762616" lon="2.603708971291781">
        <ele>633.64999999999998</ele>
        <time>2025-05-15T09:26:26Z</time>
      </trkpt>
      <trkpt lat="42.545581022277474" lon="2.603839980438352">
        <ele>635.09000000000003</ele>
        <time>2025-05-15T09:26:27Z</time>
      </trkpt>
      <trkpt lat="42.545576998963952" lon="2.603939976543188">
        <ele>637.49000000000001</ele>
        <time>2025-05-15T09:26:28Z</time>
      </trkpt>
      <trkpt lat="42.54557297565043" lon="2.604053970426321">
        <ele>640.38</ele>
        <time>2025-05-15T09:26:29Z</time>
      </trkpt>
      <trkpt lat="42.545568030327559" lon="2.604176010936499">
        <ele>642.29999999999995</ele>
        <time>2025-05-15T09:26:30Z</time>
      </trkpt>
      <trkpt lat="42.545589990913868" lon="2.604281958192587">
        <ele>646.13999999999999</ele>
        <time>2025-05-15T09:26:31Z</time>
      </trkpt>
      <trkpt lat="42.545641958713531" lon="2.604343984276056">
        <ele>648.54999999999995</ele>
        <time>2025-05-15T09:26:32Z</time>
      </trkpt>
      <trkpt lat="42.545693004503846" lon="2.604403998702765">
        <ele>650.95000000000005</ele>
        <time>2025-05-15T09:26:33Z</time>
      </trkpt>
      <trkpt lat="42.54574597813189" lon="2.604395030066371">
        <ele>653.35000000000002</ele>
        <time>2025-05-15T09:26:34Z</time>
      </trkpt>
      <trkpt lat="42.545822001993656" lon="2.604382038116455">
        <ele>656.24000000000001</ele>
        <time>2025-05-15T09:26:35Z</time>
      </trkpt>
      <trkpt lat="42.545845974236727" lon="2.604355970397592">
        <ele>660.08000000000004</ele>
        <time>2025-05-15T09:26:36Z</time>
      </trkpt>
      <trkpt lat="42.545901965349913" lon="2.604296039789915">
        <ele>662.49000000000001</ele>
        <time>2025-05-15T09:26:37Z</time>
      </trkpt>
      <trkpt lat="42.545967008918524" lon="2.604226972907782">
        <ele>664.40999999999997</ele>
        <time>2025-05-15T09:26:38Z</time>
      </trkpt>
      <trkpt lat="42.546101035550237" lon="2.604081965982914">
        <ele>665.37</ele>
        <time>2025-05-15T09:26:39Z</time>
      </trkpt>
      <trkpt lat="42.546179993078113" lon="2.604076014831662">
        <ele>667.76999999999998</ele>
        <time>2025-05-15T09:26:40Z</time>
      </trkpt>
      <trkpt lat="42.546297004446387" lon="2.604068974032998">
        <ele>669.70000000000005</ele>
        <time>2025-05-15T09:26:41Z</time>
      </trkpt>
      <trkpt lat="42.54645299166441" lon="2.604066962376237">
        <ele>672.58000000000004</ele>
        <time>2025-05-15T09:26:42Z</time>
      </trkpt>
      <trkpt lat="42.546899998560548" lon="2.604162013158202">
        <ele>678.35000000000002</ele>
        <time>2025-05-15T09:26:45Z</time>
      </trkpt>
      <trkpt lat="42.547023966908455" lon="2.604189002886415">
        <ele>680.26999999999998</ele>
        <time>2025-05-15T09:26:46Z</time>
      </trkpt>
      <trkpt lat="42.547213984653354" lon="2.604252034798265">
        <ele>682.19000000000005</ele>
        <time>2025-05-15T09:26:47Z</time>
      </trkpt>
      <trkpt lat="42.547369971871376" lon="2.604304002597928">
        <ele>683.63</ele>
        <time>2025-05-15T09:26:48Z</time>
      </trkpt>
      <trkpt lat="42.547521013766527" lon="2.604354964569211">
        <ele>684.60000000000002</ele>
        <time>2025-05-15T09:26:49Z</time>
      </trkpt>
      <trkpt lat="42.54851502366364" lon="2.60458898730576">
        <ele>690.84000000000003</ele>
        <time>2025-05-15T09:26:56Z</time>
      </trkpt>
      <trkpt lat="42.548657013103366" lon="2.604569038376212">
        <ele>691.33000000000004</ele>
        <time>2025-05-15T09:26:57Z</time>
      </trkpt>
      <trkpt lat="42.548793973401189" lon="2.604549005627632">
        <ele>692.28999999999996</ele>
        <time>2025-05-15T09:26:58Z</time>
      </trkpt>
      <trkpt lat="42.548911990597844" lon="2.604531990364194">
        <ele>692.76999999999998</ele>
        <time>2025-05-15T09:26:59Z</time>
      </trkpt>
      <trkpt lat="42.549019027501345" lon="2.604574989527464">
        <ele>692.76999999999998</ele>
        <time>2025-05-15T09:27:00Z</time>
      </trkpt>
      <trkpt lat="42.549113994464278" lon="2.604670040309429">
        <ele>693.25</ele>
        <time>2025-05-15T09:27:01Z</time>
      </trkpt>
      <trkpt lat="42.549179960042238" lon="2.604785040020943">
        <ele>693.25</ele>
        <time>2025-05-15T09:27:02Z</time>
      </trkpt>
      <trkpt lat="42.549237040802836" lon="2.60493298061192">
        <ele>693.73000000000002</ele>
        <time>2025-05-15T09:27:03Z</time>
      </trkpt>
      <trkpt lat="42.549302000552416" lon="2.60510397143662">
        <ele>694.21000000000004</ele>
        <time>2025-05-15T09:27:04Z</time>
      </trkpt>
      <trkpt lat="42.549374001100659" lon="2.605289965867996">
        <ele>694.21000000000004</ele>
        <time>2025-05-15T09:27:05Z</time>
      </trkpt>
      <trkpt lat="42.549637025222182" lon="2.606063028797507">
        <ele>696.61000000000001</ele>
        <time>2025-05-15T09:27:09Z</time>
      </trkpt>
      <trkpt lat="42.549660997465253" lon="2.606255980208516">
        <ele>696.61000000000001</ele>
        <time>2025-05-15T09:27:10Z</time>
      </trkpt>
      <trkpt lat="42.549683963879943" lon="2.606438035145402">
        <ele>697.09000000000003</ele>
        <time>2025-05-15T09:27:11Z</time>
      </trkpt>
      <trkpt lat="42.549706008285284" lon="2.606613971292973">
        <ele>697.57000000000005</ele>
        <time>2025-05-15T09:27:12Z</time>
      </trkpt>
      <trkpt lat="42.54978496581316" lon="2.606734000146389">
        <ele>697.57000000000005</ele>
        <time>2025-05-15T09:27:13Z</time>
      </trkpt>
      <trkpt lat="42.549880016595125" lon="2.606880012899637">
        <ele>697.57000000000005</ele>
        <time>2025-05-15T09:27:14Z</time>
      </trkpt>
      <trkpt lat="42.549980012699962" lon="2.607032982632518">
        <ele>697.09000000000003</ele>
        <time>2025-05-15T09:27:15Z</time>
      </trkpt>
      <trkpt lat="42.550071040168405" lon="2.607172038406134">
        <ele>697.57000000000005</ele>
        <time>2025-05-15T09:27:16Z</time>
      </trkpt>
      <trkpt lat="42.550124013796449" lon="2.607349986210465">
        <ele>698.04999999999995</ele>
        <time>2025-05-15T09:27:17Z</time>
      </trkpt>
      <trkpt lat="42.550144968554378" lon="2.607504967600107">
        <ele>698.04999999999995</ele>
        <time>2025-05-15T09:27:18Z</time>
      </trkpt>
      <trkpt lat="42.550157960504293" lon="2.607656009495258">
        <ele>698.04999999999995</ele>
        <time>2025-05-15T09:27:19Z</time>
      </trkpt>
      <trkpt lat="42.55016902461648" lon="2.607797998934984">
        <ele>699.01999999999998</ele>
        <time>2025-05-15T09:27:20Z</time>
      </trkpt>
      <trkpt lat="42.550184028223157" lon="2.607905035838485">
        <ele>699.5</ele>
        <time>2025-05-15T09:27:21Z</time>
      </trkpt>
      <trkpt lat="42.550260974094272" lon="2.60795901529491">
        <ele>700.46000000000004</ele>
        <time>2025-05-15T09:27:22Z</time>
      </trkpt>
      <trkpt lat="42.550358036532998" lon="2.608026992529631">
        <ele>701.41999999999996</ele>
        <time>2025-05-15T09:27:23Z</time>
      </trkpt>
      <trkpt lat="42.550464989617467" lon="2.608102010563016">
        <ele>701.41999999999996</ele>
        <time>2025-05-15T09:27:24Z</time>
      </trkpt>
      <trkpt lat="42.550577977672219" lon="2.608180968090892">
        <ele>701.89999999999998</ele>
        <time>2025-05-15T09:27:25Z</time>
      </trkpt>
      <trkpt lat="42.550666993483901" lon="2.608312983065844">
        <ele>701.89999999999998</ele>
        <time>2025-05-15T09:27:26Z</time>
      </trkpt>
      <trkpt lat="42.550746034830809" lon="2.608458995819092">
        <ele>701.89999999999998</ele>
        <time>2025-05-15T09:27:27Z</time>
      </trkpt>
      <trkpt lat="42.550805965438485" lon="2.608635015785694">
        <ele>702.38</ele>
        <time>2025-05-15T09:27:28Z</time>
      </trkpt>
      <trkpt lat="42.550862962380052" lon="2.60882000438869">
        <ele>703.82000000000005</ele>
        <time>2025-05-15T09:27:29Z</time>
      </trkpt>
      <trkpt lat="42.55085801705718" lon="2.609026031568646">
        <ele>705.75</ele>
        <time>2025-05-15T09:27:30Z</time>
      </trkpt>
      <trkpt lat="42.550849970430136" lon="2.609241027384996">
        <ele>707.66999999999996</ele>
        <time>2025-05-15T09:27:31Z</time>
      </trkpt>
      <trkpt lat="42.5508379843086" lon="2.609455017372966">
        <ele>709.11000000000001</ele>
        <time>2025-05-15T09:27:32Z</time>
      </trkpt>
      <trkpt lat="42.550798002630472" lon="2.609676970168948">
        <ele>710.07000000000005</ele>
        <time>2025-05-15T09:27:33Z</time>
      </trkpt>
      <trkpt lat="42.550756009295583" lon="2.609909987077117">
        <ele>711.50999999999999</ele>
        <time>2025-05-15T09:27:34Z</time>
      </trkpt>
      <trkpt lat="42.550649978220463" lon="2.610685983672738">
        <ele>714.88</ele>
        <time>2025-05-15T09:27:38Z</time>
      </trkpt>
      <trkpt lat="42.55066498182714" lon="2.610769970342517">
        <ele>715.36000000000001</ele>
        <time>2025-05-15T09:27:39Z</time>
      </trkpt>
      <trkpt lat="42.550692977383733" lon="2.61084096506238">
        <ele>715.84000000000003</ele>
        <time>2025-05-15T09:27:40Z</time>
      </trkpt>
      <trkpt lat="42.550739999860525" lon="2.610854962840676">
        <ele>716.32000000000005</ele>
        <time>2025-05-15T09:27:41Z</time>
      </trkpt>
      <trkpt lat="42.550808982923627" lon="2.610876001417637">
        <ele>716.79999999999995</ele>
        <time>2025-05-15T09:27:42Z</time>
      </trkpt>
      <trkpt lat="42.550877965986729" lon="2.610897039994597">
        <ele>717.27999999999997</ele>
        <time>2025-05-15T09:27:43Z</time>
      </trkpt>
      <trkpt lat="42.550953989848495" lon="2.610920006409288">
        <ele>717.75999999999999</ele>
        <time>2025-05-15T09:27:44Z</time>
      </trkpt>
      <trkpt lat="42.551032025367022" lon="2.610943978652358">
        <ele>718.24000000000001</ele>
        <time>2025-05-15T09:27:45Z</time>
      </trkpt>
      <trkpt lat="42.551265964284539" lon="2.611063001677394">
        <ele>719.20000000000005</ele>
        <time>2025-05-15T09:27:48Z</time>
      </trkpt>
      <trkpt lat="42.55133100785315" lon="2.611121004447341">
        <ele>719.20000000000005</ele>
        <time>2025-05-15T09:27:49Z</time>
      </trkpt>
      <trkpt lat="42.55139303393662" lon="2.611175989732146">
        <ele>719.20000000000005</ele>
        <time>2025-05-15T09:27:50Z</time>
      </trkpt>
      <trkpt lat="42.551423041149974" lon="2.611265005543828">
        <ele>719.20000000000005</ele>
        <time>2025-05-15T09:27:51Z</time>
      </trkpt>
      <trkpt lat="42.551445001736283" lon="2.611344968900085">
        <ele>719.67999999999995</ele>
        <time>2025-05-15T09:27:52Z</time>
      </trkpt>
      <trkpt lat="42.551462016999722" lon="2.611435996368527">
        <ele>720.15999999999997</ele>
        <time>2025-05-15T09:27:53Z</time>
      </trkpt>
      <trkpt lat="42.551443995907903" lon="2.611520988866687">
        <ele>720.15999999999997</ele>
        <time>2025-05-15T09:27:54Z</time>
      </trkpt>
      <trkpt lat="42.551424968987703" lon="2.611611010506749">
        <ele>720.64999999999998</ele>
        <time>2025-05-15T09:27:55Z</time>
      </trkpt>
      <trkpt lat="42.551406025886536" lon="2.611703965812922">
        <ele>721.13</ele>
        <time>2025-05-15T09:27:56Z</time>
      </trkpt>
      <trkpt lat="42.551385993137956" lon="2.611799016594887">
        <ele>722.09000000000003</ele>
        <time>2025-05-15T09:27:57Z</time>
      </trkpt>
      <trkpt lat="42.551391022279859" lon="2.611884009093046">
        <ele>723.04999999999995</ele>
        <time>2025-05-15T09:27:58Z</time>
      </trkpt>
      <trkpt lat="42.551411977037787" lon="2.611960032954812">
        <ele>724.49000000000001</ele>
        <time>2025-05-15T09:27:59Z</time>
      </trkpt>
      <trkpt lat="42.551447013393044" lon="2.61204301379621">
        <ele>725.45000000000005</ele>
        <time>2025-05-15T09:28:00Z</time>
      </trkpt>
      <trkpt lat="42.551480960100889" lon="2.612089030444622">
        <ele>725.92999999999995</ele>
        <time>2025-05-15T09:28:01Z</time>
      </trkpt>
      <trkpt lat="42.551555978134274" lon="2.612105961889029">
        <ele>725.92999999999995</ele>
        <time>2025-05-15T09:28:02Z</time>
      </trkpt>
      <trkpt lat="42.551633007824421" lon="2.612122977152467">
        <ele>726.40999999999997</ele>
        <time>2025-05-15T09:28:03Z</time>
      </trkpt>
      <trkpt lat="42.551715988665819" lon="2.612142004072666">
        <ele>726.40999999999997</ele>
        <time>2025-05-15T09:28:04Z</time>
      </trkpt>
      <trkpt lat="42.551807016134262" lon="2.612162036821246">
        <ele>726.40999999999997</ele>
        <time>2025-05-15T09:28:05Z</time>
      </trkpt>
      <trkpt lat="42.55302800796926" lon="2.612496977671981">
        <ele>730.74000000000001</ele>
        <time>2025-05-15T09:28:17Z</time>
      </trkpt>
      <trkpt lat="42.553312992677093" lon="2.612652964890003">
        <ele>732.17999999999995</ele>
        <time>2025-05-15T09:28:20Z</time>
      </trkpt>
      <trkpt lat="42.553376024588943" lon="2.612737035378814">
        <ele>732.65999999999997</ele>
        <time>2025-05-15T09:28:21Z</time>
      </trkpt>
      <trkpt lat="42.553431009873748" lon="2.61283895932138">
        <ele>733.62</ele>
        <time>2025-05-15T09:28:22Z</time>
      </trkpt>
      <trkpt lat="42.553462022915483" lon="2.612968040630221">
        <ele>735.07000000000005</ele>
        <time>2025-05-15T09:28:23Z</time>
      </trkpt>
      <trkpt lat="42.553468979895115" lon="2.61311698704958">
        <ele>735.54999999999995</ele>
        <time>2025-05-15T09:28:24Z</time>
      </trkpt>
      <trkpt lat="42.553476020693779" lon="2.613276997581124">
        <ele>736.50999999999999</ele>
        <time>2025-05-15T09:28:25Z</time>
      </trkpt>
      <trkpt lat="42.553483983501792" lon="2.613447988405824">
        <ele>736.50999999999999</ele>
        <time>2025-05-15T09:28:26Z</time>
      </trkpt>
      <trkpt lat="42.553504016250372" lon="2.61427796445787">
        <ele>739.87</ele>
        <time>2025-05-15T09:28:31Z</time>
      </trkpt>
      <trkpt lat="42.553504016250372" lon="2.614412996917963">
        <ele>740.35000000000002</ele>
        <time>2025-05-15T09:28:32Z</time>
      </trkpt>
      <trkpt lat="42.553498987108469" lon="2.614530008286238">
        <ele>741.30999999999995</ele>
        <time>2025-05-15T09:28:33Z</time>
      </trkpt>
      <trkpt lat="42.553468979895115" lon="2.614640984684229">
        <ele>741.78999999999996</ele>
        <time>2025-05-15T09:28:34Z</time>
      </trkpt>
      <trkpt lat="42.553438972681761" lon="2.614759001880884">
        <ele>742.75999999999999</ele>
        <time>2025-05-15T09:28:35Z</time>
      </trkpt>
      <trkpt lat="42.553407037630677" lon="2.614880036562681">
        <ele>743.24000000000001</ele>
        <time>2025-05-15T09:28:36Z</time>
      </trkpt>
      <trkpt lat="42.553352974355221" lon="2.614977015182376">
        <ele>743.72000000000003</ele>
        <time>2025-05-15T09:28:37Z</time>
      </trkpt>
      <trkpt lat="42.553290026262403" lon="2.615062007680535">
        <ele>744.20000000000005</ele>
        <time>2025-05-15T09:28:38Z</time>
      </trkpt>
      <trkpt lat="42.553234035149217" lon="2.615139037370682">
        <ele>744.67999999999995</ele>
        <time>2025-05-15T09:28:39Z</time>
      </trkpt>
      <trkpt lat="42.553181983530521" lon="2.615209026262164">
        <ele>745.15999999999997</ele>
        <time>2025-05-15T09:28:40Z</time>
      </trkpt>
      <trkpt lat="42.55313596688211" lon="2.615271974354982">
        <ele>745.63999999999999</ele>
        <time>2025-05-15T09:28:41Z</time>
      </trkpt>
      <trkpt lat="42.553052986040711" lon="2.615318996831775">
        <ele>745.63999999999999</ele>
        <time>2025-05-15T09:28:42Z</time>
      </trkpt>
      <trkpt lat="42.552946032956243" lon="2.615303993225098">
        <ele>745.63999999999999</ele>
        <time>2025-05-15T09:28:43Z</time>
      </trkpt>
      <trkpt lat="42.552908984944224" lon="2.615310028195381">
        <ele>745.63999999999999</ele>
        <time>2025-05-15T09:28:44Z</time>
      </trkpt>
      <trkpt lat="42.551944982260466" lon="2.615372976288199">
        <ele>750.92999999999995</ele>
        <time>2025-05-15T09:28:54Z</time>
      </trkpt>
      <trkpt lat="42.551162028685212" lon="2.615402983501554">
        <ele>752.85000000000002</ele>
        <time>2025-05-15T09:28:59Z</time>
      </trkpt>
      <trkpt lat="42.550991037860513" lon="2.615451011806727">
        <ele>753.80999999999995</ele>
        <time>2025-05-15T09:29:00Z</time>
      </trkpt>
      <trkpt lat="42.549736015498638" lon="2.615970019251108">
        <ele>758.13999999999999</ele>
        <time>2025-05-15T09:29:07Z</time>
      </trkpt>
      <trkpt lat="42.548707975074649" lon="2.616528002545238">
        <ele>761.5</ele>
        <time>2025-05-15T09:29:13Z</time>
      </trkpt>
      <trkpt lat="42.548533966764808" lon="2.616603020578623">
        <ele>761.98000000000002</ele>
        <time>2025-05-15T09:29:14Z</time>
      </trkpt>
      <trkpt lat="42.548362975940108" lon="2.616638978943229">
        <ele>762.46000000000004</ele>
        <time>2025-05-15T09:29:15Z</time>
      </trkpt>
      <trkpt lat="42.547682030126452" lon="2.616648031398654">
        <ele>765.35000000000002</ele>
        <time>2025-05-15T09:29:19Z</time>
      </trkpt>
      <trkpt lat="42.547026984393597" lon="2.616504030302167">
        <ele>767.75</ele>
        <time>2025-05-15T09:29:23Z</time>
      </trkpt>
      <trkpt lat="42.546901004388928" lon="2.616464970633388">
        <ele>768.23000000000002</ele>
        <time>2025-05-15T09:29:24Z</time>
      </trkpt>
      <trkpt lat="42.546814000234008" lon="2.616361035034061">
        <ele>768.71000000000004</ele>
        <time>2025-05-15T09:29:25Z</time>
      </trkpt>
      <trkpt lat="42.546726996079087" lon="2.616252992302179">
        <ele>769.19000000000005</ele>
        <time>2025-05-15T09:29:26Z</time>
      </trkpt>
      <trkpt lat="42.546638986095786" lon="2.616142015904188">
        <ele>769.66999999999996</ele>
        <time>2025-05-15T09:29:27Z</time>
      </trkpt>
      <trkpt lat="42.546519041061401" lon="2.616117037832737">
        <ele>770.14999999999998</ele>
        <time>2025-05-15T09:29:28Z</time>
      </trkpt>
      <trkpt lat="42.546404963359237" lon="2.616116032004356">
        <ele>771.11000000000001</ele>
        <time>2025-05-15T09:29:29Z</time>
      </trkpt>
      <trkpt lat="42.546319970861077" lon="2.616201024502516">
        <ele>771.60000000000002</ele>
        <time>2025-05-15T09:29:30Z</time>
      </trkpt>
      <trkpt lat="42.54621603526175" lon="2.616310995072126">
        <ele>771.60000000000002</ele>
        <time>2025-05-15T09:29:31Z</time>
      </trkpt>
      <trkpt lat="42.546111010015011" lon="2.616466982290149">
        <ele>771.60000000000002</ele>
        <time>2025-05-15T09:29:32Z</time>
      </trkpt>
      <trkpt lat="42.545899031683803" lon="2.616779040545225">
        <ele>771.11000000000001</ele>
        <time>2025-05-15T09:29:34Z</time>
      </trkpt>
      <trkpt lat="42.545790988951921" lon="2.616938967257738">
        <ele>771.11000000000001</ele>
        <time>2025-05-15T09:29:35Z</time>
      </trkpt>
      <trkpt lat="42.545641958713531" lon="2.617052039131522">
        <ele>770.63</ele>
        <time>2025-05-15T09:29:36Z</time>
      </trkpt>
      <trkpt lat="42.545506004244089" lon="2.617133008316159">
        <ele>770.14999999999998</ele>
        <time>2025-05-15T09:29:37Z</time>
      </trkpt>
      <trkpt lat="42.545382035896182" lon="2.617187993600965">
        <ele>769.66999999999996</ele>
        <time>2025-05-15T09:29:38Z</time>
      </trkpt>
      <trkpt lat="42.545269969850779" lon="2.617142982780933">
        <ele>769.19000000000005</ele>
        <time>2025-05-15T09:29:39Z</time>
      </trkpt>
      <trkpt lat="42.54514398984611" lon="2.617081040516496">
        <ele>768.71000000000004</ele>
        <time>2025-05-15T09:29:40Z</time>
      </trkpt>
      <trkpt lat="42.545005017891526" lon="2.617012979462743">
        <ele>768.71000000000004</ele>
        <time>2025-05-15T09:29:41Z</time>
      </trkpt>
      <trkpt lat="42.544536972418427" lon="2.616783985868096">
        <ele>767.26999999999998</ele>
        <time>2025-05-15T09:29:44Z</time>
      </trkpt>
      <trkpt lat="42.544405963271856" lon="2.616720031946898">
        <ele>766.78999999999996</ele>
        <time>2025-05-15T09:29:45Z</time>
      </trkpt>
      <trkpt lat="42.54426296800375" lon="2.616749033331871">
        <ele>766.30999999999995</ele>
        <time>2025-05-15T09:29:46Z</time>
      </trkpt>
      <trkpt lat="42.544120978564024" lon="2.616777028888464">
        <ele>765.83000000000004</ele>
        <time>2025-05-15T09:29:47Z</time>
      </trkpt>
      <trkpt lat="42.543988963589072" lon="2.616803012788296">
        <ele>765.83000000000004</ele>
        <time>2025-05-15T09:29:48Z</time>
      </trkpt>
      <trkpt lat="42.543870024383068" lon="2.616827990859747">
        <ele>765.35000000000002</ele>
        <time>2025-05-15T09:29:49Z</time>
      </trkpt>
      <trkpt lat="42.543772961944342" lon="2.616736041381955">
        <ele>765.35000000000002</ele>
        <time>2025-05-15T09:29:50Z</time>
      </trkpt>
      <trkpt lat="42.54368201829493" lon="2.616649037227035">
        <ele>765.35000000000002</ele>
        <time>2025-05-15T09:29:51Z</time>
      </trkpt>
      <trkpt lat="42.543581016361713" lon="2.61655499227345">
        <ele>764.87</ele>
        <time>2025-05-15T09:29:52Z</time>
      </trkpt>
      <trkpt lat="42.543355040252209" lon="2.616419959813356">
        <ele>764.38999999999999</ele>
        <time>2025-05-15T09:29:54Z</time>
      </trkpt>
      <trkpt lat="42.543255966156721" lon="2.616400010883808">
        <ele>764.38999999999999</ele>
        <time>2025-05-15T09:29:55Z</time>
      </trkpt>
      <trkpt lat="42.543179020285606" lon="2.616479974240065">
        <ele>763.89999999999998</ele>
        <time>2025-05-15T09:29:56Z</time>
      </trkpt>
      <trkpt lat="42.543139960616827" lon="2.616526996716857">
        <ele>763.41999999999996</ele>
        <time>2025-05-15T09:29:57Z</time>
      </trkpt>
      <trkpt lat="42.543125040829182" lon="2.616653982549906">
        <ele>761.98000000000002</ele>
        <time>2025-05-15T09:29:58Z</time>
      </trkpt>
      <trkpt lat="42.543110959231853" lon="2.616776023060083">
        <ele>761.01999999999998</ele>
        <time>2025-05-15T09:29:59Z</time>
      </trkpt>
      <trkpt lat="42.543096961453557" lon="2.616892028599978">
        <ele>760.05999999999995</ele>
        <time>2025-05-15T09:30:00Z</time>
      </trkpt>
      <trkpt lat="42.543045999482274" lon="2.6170289888978">
        <ele>759.58000000000004</ele>
        <time>2025-05-15T09:30:01Z</time>
      </trkpt>
      <trkpt lat="42.542964024469256" lon="2.617098977789283">
        <ele>759.10000000000002</ele>
        <time>2025-05-15T09:30:02Z</time>
      </trkpt>
      <trkpt lat="42.54286696203053" lon="2.617150023579598">
        <ele>758.62</ele>
        <time>2025-05-15T09:30:03Z</time>
      </trkpt>
      <trkpt lat="42.542754979804158" lon="2.617209032177925">
        <ele>758.13999999999999</ele>
        <time>2025-05-15T09:30:04Z</time>
      </trkpt>
      <trkpt lat="42.542636040598154" lon="2.617270974442363">
        <ele>757.17999999999995</ele>
        <time>2025-05-15T09:30:05Z</time>
      </trkpt>
      <trkpt lat="42.542521962895989" lon="2.617353033274412">
        <ele>755.73000000000002</ele>
        <time>2025-05-15T09:30:06Z</time>
      </trkpt>
      <trkpt lat="42.542410986497998" lon="2.617453029379249">
        <ele>754.76999999999998</ele>
        <time>2025-05-15T09:30:07Z</time>
      </trkpt>
      <trkpt lat="42.542300010100007" lon="2.617552019655705">
        <ele>753.80999999999995</ele>
        <time>2025-05-15T09:30:08Z</time>
      </trkpt>
      <trkpt lat="42.542195990681648" lon="2.617644974961877">
        <ele>752.37</ele>
        <time>2025-05-15T09:30:09Z</time>
      </trkpt>
      <trkpt lat="42.542074033990502" lon="2.617664001882076">
        <ele>751.40999999999997</ele>
        <time>2025-05-15T09:30:10Z</time>
      </trkpt>
      <trkpt lat="42.541956016793847" lon="2.617664001882076">
        <ele>750.45000000000005</ele>
        <time>2025-05-15T09:30:11Z</time>
      </trkpt>
      <trkpt lat="42.541835987940431" lon="2.617655033245683">
        <ele>749.49000000000001</ele>
        <time>2025-05-15T09:30:12Z</time>
      </trkpt>
      <trkpt lat="42.541707996279001" lon="2.617585966363549">
        <ele>749</ele>
        <time>2025-05-15T09:30:13Z</time>
      </trkpt>
      <trkpt lat="42.541570030152798" lon="2.617510026320815">
        <ele>748.51999999999998</ele>
        <time>2025-05-15T09:30:14Z</time>
      </trkpt>
      <trkpt lat="42.541431980207562" lon="2.61743500828743">
        <ele>748.03999999999996</ele>
        <time>2025-05-15T09:30:15Z</time>
      </trkpt>
      <trkpt lat="42.541302982717752" lon="2.617365019395948">
        <ele>747.08000000000004</ele>
        <time>2025-05-15T09:30:16Z</time>
      </trkpt>
      <trkpt lat="42.541181026026607" lon="2.617297964170575">
        <ele>746.60000000000002</ele>
        <time>2025-05-15T09:30:17Z</time>
      </trkpt>
      <trkpt lat="42.541068037971854" lon="2.617287989705801">
        <ele>745.63999999999999</ele>
        <time>2025-05-15T09:30:18Z</time>
      </trkpt>
      <trkpt lat="42.54095102660358" lon="2.617312967777252">
        <ele>745.15999999999997</ele>
        <time>2025-05-15T09:30:19Z</time>
      </trkpt>
      <trkpt lat="42.540839966386557" lon="2.617382034659386">
        <ele>744.20000000000005</ele>
        <time>2025-05-15T09:30:20Z</time>
      </trkpt>
      <trkpt lat="42.540728989988565" lon="2.617452023550868">
        <ele>743.24000000000001</ele>
        <time>2025-05-15T09:30:21Z</time>
      </trkpt>
      <trkpt lat="42.540606027469039" lon="2.617516983300448">
        <ele>742.27999999999997</ele>
        <time>2025-05-15T09:30:22Z</time>
      </trkpt>
      <trkpt lat="42.54048096947372" lon="2.617532992735505">
        <ele>741.30999999999995</ele>
        <time>2025-05-15T09:30:23Z</time>
      </trkpt>
      <trkpt lat="42.540366975590587" lon="2.617570040747523">
        <ele>739.87</ele>
        <time>2025-05-15T09:30:24Z</time>
      </trkpt>
      <trkpt lat="42.540254993364215" lon="2.617613039910793">
        <ele>738.90999999999997</ele>
        <time>2025-05-15T09:30:25Z</time>
      </trkpt>
      <trkpt lat="42.540161032229662" lon="2.617677999660373">
        <ele>737.47000000000003</ele>
        <time>2025-05-15T09:30:26Z</time>
      </trkpt>
      <trkpt lat="42.540091965347528" lon="2.617806997150183">
        <ele>736.02999999999997</ele>
        <time>2025-05-15T09:30:27Z</time>
      </trkpt>
      <trkpt lat="42.540025999769568" lon="2.617932977154851">
        <ele>735.07000000000005</ele>
        <time>2025-05-15T09:30:28Z</time>
      </trkpt>
      <trkpt lat="42.53996598534286" lon="2.618047976866365">
        <ele>734.10000000000002</ele>
        <time>2025-05-15T09:30:29Z</time>
      </trkpt>
      <trkpt lat="42.539889961481094" lon="2.618125006556511">
        <ele>732.65999999999997</ele>
        <time>2025-05-15T09:30:30Z</time>
      </trkpt>
      <trkpt lat="42.53979398868978" lon="2.618158031255007">
        <ele>731.70000000000005</ele>
        <time>2025-05-15T09:30:31Z</time>
      </trkpt>
      <trkpt lat="42.53970799036324" lon="2.618158031255007">
        <ele>730.74000000000001</ele>
        <time>2025-05-15T09:30:32Z</time>
      </trkpt>
      <trkpt lat="42.539615035057068" lon="2.618158031255007">
        <ele>729.77999999999997</ele>
        <time>2025-05-15T09:30:33Z</time>
      </trkpt>
      <trkpt lat="42.539511015638709" lon="2.618170017376542">
        <ele>728.82000000000005</ele>
        <time>2025-05-15T09:30:34Z</time>
      </trkpt>
      <trkpt lat="42.53940699622035" lon="2.618221985176206">
        <ele>728.34000000000003</ele>
        <time>2025-05-15T09:30:35Z</time>
      </trkpt>
      <trkpt lat="42.53931999206543" lon="2.618264984339476">
        <ele>727.86000000000001</ele>
        <time>2025-05-15T09:30:36Z</time>
      </trkpt>
      <trkpt lat="42.539269030094147" lon="2.618377972394228">
        <ele>726.88999999999999</ele>
        <time>2025-05-15T09:30:37Z</time>
      </trkpt>
      <trkpt lat="42.539229970425367" lon="2.618463970720768">
        <ele>726.40999999999997</ele>
        <time>2025-05-15T09:30:38Z</time>
      </trkpt>
      <trkpt lat="42.539240028709173" lon="2.61857301928103">
        <ele>725.92999999999995</ele>
        <time>2025-05-15T09:30:39Z</time>
      </trkpt>
      <trkpt lat="42.539286967366934" lon="2.618691036477685">
        <ele>725.92999999999995</ele>
        <time>2025-05-15T09:30:40Z</time>
      </trkpt>
      <trkpt lat="42.539351005107164" lon="2.618808969855309">
        <ele>725.45000000000005</ele>
        <time>2025-05-15T09:30:41Z</time>
      </trkpt>
      <trkpt lat="42.539413031190634" lon="2.618924975395203">
        <ele>724.97000000000003</ele>
        <time>2025-05-15T09:30:42Z</time>
      </trkpt>
      <trkpt lat="42.539428034797311" lon="2.619079034775496">
        <ele>724.49000000000001</ele>
        <time>2025-05-15T09:30:43Z</time>
      </trkpt>
      <trkpt lat="42.539402972906828" lon="2.619228987023234">
        <ele>724.00999999999999</ele>
        <time>2025-05-15T09:30:44Z</time>
      </trkpt>
      <trkpt lat="42.539334995672107" lon="2.619342980906367">
        <ele>723.04999999999995</ele>
        <time>2025-05-15T09:30:45Z</time>
      </trkpt>
      <trkpt lat="42.539240028709173" lon="2.619458986446261">
        <ele>723.04999999999995</ele>
        <time>2025-05-15T09:30:46Z</time>
      </trkpt>
      <trkpt lat="42.53912502899766" lon="2.619569040834904">
        <ele>722.57000000000005</ele>
        <time>2025-05-15T09:30:47Z</time>
      </trkpt>
      <trkpt lat="42.539006005972624" lon="2.619682028889656">
        <ele>722.57000000000005</ele>
        <time>2025-05-15T09:30:48Z</time>
      </trkpt>
      <trkpt lat="42.538886982947588" lon="2.619796022772789">
        <ele>722.09000000000003</ele>
        <time>2025-05-15T09:30:49Z</time>
      </trkpt>
      <trkpt lat="42.5387810356915" lon="2.619945975020528">
        <ele>721.61000000000001</ele>
        <time>2025-05-15T09:30:50Z</time>
      </trkpt>
      <trkpt lat="42.538694031536579" lon="2.620125012472272">
        <ele>721.61000000000001</ele>
        <time>2025-05-15T09:30:51Z</time>
      </trkpt>
      <trkpt lat="42.538609961047769" lon="2.620297009125352">
        <ele>721.13</ele>
        <time>2025-05-15T09:30:52Z</time>
      </trkpt>
      <trkpt lat="42.538390019908547" lon="2.620748961344361">
        <ele>720.15999999999997</ele>
        <time>2025-05-15T09:30:55Z</time>
      </trkpt>
      <trkpt lat="42.538045020774007" lon="2.62162696570158">
        <ele>717.27999999999997</ele>
        <time>2025-05-15T09:31:01Z</time>
      </trkpt>
      <trkpt lat="42.537961034104228" lon="2.621832992881537">
        <ele>716.32000000000005</ele>
        <time>2025-05-15T09:31:03Z</time>
      </trkpt>
      <trkpt lat="42.537919040769339" lon="2.621902981773019">
        <ele>715.84000000000003</ele>
        <time>2025-05-15T09:31:04Z</time>
      </trkpt>
      <trkpt lat="42.53788098692894" lon="2.621965007856488">
        <ele>715.36000000000001</ele>
        <time>2025-05-15T09:31:05Z</time>
      </trkpt>
      <trkpt lat="42.537744026631117" lon="2.622116971760988">
        <ele>714.39999999999998</ele>
        <time>2025-05-15T09:31:08Z</time>
      </trkpt>
      <trkpt lat="42.537630032747984" lon="2.622217973694205">
        <ele>713.91999999999996</ele>
        <time>2025-05-15T09:31:10Z</time>
      </trkpt>
      <trkpt lat="42.53755702637136" lon="2.622256027534604">
        <ele>713.91999999999996</ele>
        <time>2025-05-15T09:31:11Z</time>
      </trkpt>
      <trkpt lat="42.53751796670258" lon="2.622256027534604">
        <ele>713.44000000000005</ele>
        <time>2025-05-15T09:31:12Z</time>
      </trkpt>
      <trkpt lat="42.537453006953001" lon="2.622158965095878">
        <ele>713.44000000000005</ele>
        <time>2025-05-15T09:31:13Z</time>
      </trkpt>
      <trkpt lat="42.537418976426125" lon="2.622073972597718">
        <ele>712.95000000000005</ele>
        <time>2025-05-15T09:31:14Z</time>
      </trkpt>
      <trkpt lat="42.537395004183054" lon="2.621972970664501">
        <ele>712.47000000000003</ele>
        <time>2025-05-15T09:31:15Z</time>
      </trkpt>
      <trkpt lat="42.537369020283222" lon="2.621865011751652">
        <ele>711.99000000000001</ele>
        <time>2025-05-15T09:31:16Z</time>
      </trkpt>
      <trkpt lat="42.537341024726629" lon="2.62175302952528">
        <ele>711.50999999999999</ele>
        <time>2025-05-15T09:31:17Z</time>
      </trkpt>
      <trkpt lat="42.537315040826797" lon="2.621641969308257">
        <ele>711.02999999999997</ele>
        <time>2025-05-15T09:31:18Z</time>
      </trkpt>
      <trkpt lat="42.537287967279553" lon="2.621534010395408">
        <ele>710.07000000000005</ele>
        <time>2025-05-15T09:31:19Z</time>
      </trkpt>
      <trkpt lat="42.537260977551341" lon="2.621419010683894">
        <ele>709.59000000000003</ele>
        <time>2025-05-15T09:31:20Z</time>
      </trkpt>
      <trkpt lat="42.537186965346336" lon="2.62134600430727">
        <ele>709.11000000000001</ele>
        <time>2025-05-15T09:31:21Z</time>
      </trkpt>
      <trkpt lat="42.537101972848177" lon="2.621261011809111">
        <ele>708.63</ele>
        <time>2025-05-15T09:31:22Z</time>
      </trkpt>
      <trkpt lat="42.537015974521637" lon="2.62117400765419">
        <ele>708.14999999999998</ele>
        <time>2025-05-15T09:31:23Z</time>
      </trkpt>
      <trkpt lat="42.536314995959401" lon="2.620552992448211">
        <ele>704.29999999999995</ele>
        <time>2025-05-15T09:31:31Z</time>
      </trkpt>
      <trkpt lat="42.536201002076268" lon="2.620517034083605">
        <ele>703.82000000000005</ele>
        <time>2025-05-15T09:31:32Z</time>
      </trkpt>
      <trkpt lat="42.536088014021516" lon="2.620514016598463">
        <ele>703.34000000000003</ele>
        <time>2025-05-15T09:31:33Z</time>
      </trkpt>
      <trkpt lat="42.535047987475991" lon="2.620446039363742">
        <ele>698.04999999999995</ele>
        <time>2025-05-15T09:31:42Z</time>
      </trkpt>
      <trkpt lat="42.534939022734761" lon="2.620409997180104">
        <ele>697.09000000000003</ele>
        <time>2025-05-15T09:31:43Z</time>
      </trkpt>
      <trkpt lat="42.534837014973164" lon="2.620349982753396">
        <ele>696.61000000000001</ele>
        <time>2025-05-15T09:31:44Z</time>
      </trkpt>
      <trkpt lat="42.534730983898044" lon="2.620248980820179">
        <ele>696.13</ele>
        <time>2025-05-15T09:31:45Z</time>
      </trkpt>
      <trkpt lat="42.534625036641955" lon="2.620147978886962">
        <ele>695.64999999999998</ele>
        <time>2025-05-15T09:31:46Z</time>
      </trkpt>
      <trkpt lat="42.534383973106742" lon="2.619871040806174">
        <ele>694.21000000000004</ele>
        <time>2025-05-15T09:31:49Z</time>
      </trkpt>
      <trkpt lat="42.534321025013924" lon="2.619745982810855">
        <ele>693.73000000000002</ele>
        <time>2025-05-15T09:31:50Z</time>
      </trkpt>
      <trkpt lat="42.534328987821937" lon="2.619620002806187">
        <ele>693.25</ele>
        <time>2025-05-15T09:31:51Z</time>
      </trkpt>
      <trkpt lat="42.534338962286711" lon="2.619462003931403">
        <ele>692.76999999999998</ele>
        <time>2025-05-15T09:31:52Z</time>
      </trkpt>
      <trkpt lat="42.534351032227278" lon="2.619282966479659">
        <ele>692.28999999999996</ele>
        <time>2025-05-15T09:31:53Z</time>
      </trkpt>
      <trkpt lat="42.534363018348813" lon="2.619094960391522">
        <ele>691.80999999999995</ele>
        <time>2025-05-15T09:31:54Z</time>
      </trkpt>
      <trkpt lat="42.534386990591884" lon="2.618723977357149">
        <ele>690.84000000000003</ele>
        <time>2025-05-15T09:31:56Z</time>
      </trkpt>
      <trkpt lat="42.534398976713419" lon="2.61853395961225">
        <ele>690.36000000000001</ele>
        <time>2025-05-15T09:31:57Z</time>
      </trkpt>
      <trkpt lat="42.534387996420264" lon="2.618334973230958">
        <ele>689.39999999999998</ele>
        <time>2025-05-15T09:31:58Z</time>
      </trkpt>
      <trkpt lat="42.534344997256994" lon="2.618148978799582">
        <ele>688.91999999999996</ele>
        <time>2025-05-15T09:31:59Z</time>
      </trkpt>
      <trkpt lat="42.534283977001905" lon="2.617979999631643">
        <ele>688.44000000000005</ele>
        <time>2025-05-15T09:32:00Z</time>
      </trkpt>
      <trkpt lat="42.534223040565848" lon="2.617816971614957">
        <ele>687.96000000000004</ele>
        <time>2025-05-15T09:32:01Z</time>
      </trkpt>
      <trkpt lat="42.53416595980525" lon="2.617666013538837">
        <ele>687.48000000000002</ele>
        <time>2025-05-15T09:32:02Z</time>
      </trkpt>
      <trkpt lat="42.534138970077038" lon="2.617509020492435">
        <ele>687</ele>
        <time>2025-05-15T09:32:03Z</time>
      </trkpt>
      <trkpt lat="42.534134024754167" lon="2.617346998304129">
        <ele>686.03999999999996</ele>
        <time>2025-05-15T09:32:04Z</time>
      </trkpt>
      <trkpt lat="42.534161014482379" lon="2.617179024964571">
        <ele>685.08000000000004</ele>
        <time>2025-05-15T09:32:05Z</time>
      </trkpt>
      <trkpt lat="42.534189010038972" lon="2.616999987512827">
        <ele>684.60000000000002</ele>
        <time>2025-05-15T09:32:06Z</time>
      </trkpt>
      <trkpt lat="42.534220023080707" lon="2.616810975596309">
        <ele>683.63</ele>
        <time>2025-05-15T09:32:07Z</time>
      </trkpt>
      <trkpt lat="42.534251036122441" lon="2.616617018356919">
        <ele>683.14999999999998</ele>
        <time>2025-05-15T09:32:08Z</time>
      </trkpt>
      <trkpt lat="42.534381961449981" lon="2.615793999284506">
        <ele>679.78999999999996</ele>
        <time>2025-05-15T09:32:13Z</time>
      </trkpt>
      <trkpt lat="42.534372992813587" lon="2.615691991522908">
        <ele>678.83000000000004</ele>
        <time>2025-05-15T09:32:14Z</time>
      </trkpt>
      <trkpt lat="42.534330999478698" lon="2.615605993196368">
        <ele>678.35000000000002</ele>
        <time>2025-05-15T09:32:15Z</time>
      </trkpt>
      <trkpt lat="42.534272996708751" lon="2.615571040660143">
        <ele>677.87</ele>
        <time>2025-05-15T09:32:16Z</time>
      </trkpt>
      <trkpt lat="42.534194961190224" lon="2.615591995418072">
        <ele>677.38999999999999</ele>
        <time>2025-05-15T09:32:17Z</time>
      </trkpt>
      <trkpt lat="42.534114997833967" lon="2.6156319770962">
        <ele>676.41999999999996</ele>
        <time>2025-05-15T09:32:18Z</time>
      </trkpt>
      <trkpt lat="42.534018019214272" lon="2.615681011229754">
        <ele>675.94000000000005</ele>
        <time>2025-05-15T09:32:19Z</time>
      </trkpt>
      <trkpt lat="42.533912993967533" lon="2.615732979029417">
        <ele>674.98000000000002</ele>
        <time>2025-05-15T09:32:20Z</time>
      </trkpt>
      <trkpt lat="42.533790031448007" lon="2.615701965987682">
        <ele>673.53999999999996</ele>
        <time>2025-05-15T09:32:21Z</time>
      </trkpt>
      <trkpt lat="42.533721970394254" lon="2.615668019279838">
        <ele>672.58000000000004</ele>
        <time>2025-05-15T09:32:22Z</time>
      </trkpt>
      <trkpt lat="42.5336470361799" lon="2.615581015124917">
        <ele>671.62</ele>
        <time>2025-05-15T09:32:23Z</time>
      </trkpt>
      <trkpt lat="42.533558020368218" lon="2.615476995706558">
        <ele>671.13999999999999</ele>
        <time>2025-05-15T09:32:24Z</time>
      </trkpt>
      <trkpt lat="42.533456012606621" lon="2.615358978509903">
        <ele>670.65999999999997</ele>
        <time>2025-05-15T09:32:25Z</time>
      </trkpt>
      <trkpt lat="42.533341012895107" lon="2.615226041525602">
        <ele>669.70000000000005</ele>
        <time>2025-05-15T09:32:26Z</time>
      </trkpt>
      <trkpt lat="42.533221989870071" lon="2.615087991580367">
        <ele>669.22000000000003</ele>
        <time>2025-05-15T09:32:27Z</time>
      </trkpt>
      <trkpt lat="42.533075977116823" lon="2.614991012960672">
        <ele>668.25</ele>
        <time>2025-05-15T09:32:28Z</time>
      </trkpt>
      <trkpt lat="42.532537020742893" lon="2.614671997725964">
        <ele>663.92999999999995</ele>
        <time>2025-05-15T09:32:32Z</time>
      </trkpt>
      <trkpt lat="42.532431995496154" lon="2.614574013277888">
        <ele>663.45000000000005</ele>
        <time>2025-05-15T09:32:33Z</time>
      </trkpt>
      <trkpt lat="42.532328981906176" lon="2.614453984424472">
        <ele>662.97000000000003</ele>
        <time>2025-05-15T09:32:34Z</time>
      </trkpt>
      <trkpt lat="42.53199596889317" lon="2.613916033878923">
        <ele>661.03999999999996</ele>
        <time>2025-05-15T09:32:38Z</time>
      </trkpt>
      <trkpt lat="42.531933020800352" lon="2.613768009468913">
        <ele>660.55999999999995</ele>
        <time>2025-05-15T09:32:39Z</time>
      </trkpt>
      <trkpt lat="42.531904019415379" lon="2.613588972017169">
        <ele>659.60000000000002</ele>
        <time>2025-05-15T09:32:40Z</time>
      </trkpt>
      <trkpt lat="42.53190997056663" lon="2.613394008949399">
        <ele>659.12</ele>
        <time>2025-05-15T09:32:41Z</time>
      </trkpt>
      <trkpt lat="42.53192899748683" lon="2.613194016739726">
        <ele>658.15999999999997</ele>
        <time>2025-05-15T09:32:42Z</time>
      </trkpt>
      <trkpt lat="42.531968979164958" lon="2.612982960417867">
        <ele>657.67999999999995</ele>
        <time>2025-05-15T09:32:43Z</time>
      </trkpt>
      <trkpt lat="42.532133013010025" lon="2.612375020980835">
        <ele>654.79999999999995</ele>
        <time>2025-05-15T09:32:46Z</time>
      </trkpt>
      <trkpt lat="42.532181963324547" lon="2.612191960215569">
        <ele>654.30999999999995</ele>
        <time>2025-05-15T09:32:47Z</time>
      </trkpt>
      <trkpt lat="42.532390002161264" lon="2.61141998693347">
        <ele>650.47000000000003</ele>
        <time>2025-05-15T09:32:52Z</time>
      </trkpt>
      <trkpt lat="42.532362006604671" lon="2.611297024413943">
        <ele>649.99000000000001</ele>
        <time>2025-05-15T09:32:53Z</time>
      </trkpt>
      <trkpt lat="42.532325964421034" lon="2.611195016652346">
        <ele>649.50999999999999</ele>
        <time>2025-05-15T09:32:54Z</time>
      </trkpt>
      <trkpt lat="42.532264022156596" lon="2.61109996587038">
        <ele>649.02999999999997</ele>
        <time>2025-05-15T09:32:55Z</time>
      </trkpt>
      <trkpt lat="42.532197972759604" lon="2.610997036099434">
        <ele>648.54999999999995</ele>
        <time>2025-05-15T09:32:56Z</time>
      </trkpt>
      <trkpt lat="42.532128989696503" lon="2.610891005024314">
        <ele>648.07000000000005</ele>
        <time>2025-05-15T09:32:57Z</time>
      </trkpt>
      <trkpt lat="42.53208196721971" lon="2.61075303889811">
        <ele>647.59000000000003</ele>
        <time>2025-05-15T09:32:58Z</time>
      </trkpt>
      <trkpt lat="42.532010972499847" lon="2.610480962321162">
        <ele>646.62</ele>
        <time>2025-05-15T09:33:00Z</time>
      </trkpt>
      <trkpt lat="42.531946012750268" lon="2.610359005630016">
        <ele>645.65999999999997</ele>
        <time>2025-05-15T09:33:01Z</time>
      </trkpt>
      <trkpt lat="42.531832018867135" lon="2.610325980931521">
        <ele>644.70000000000005</ele>
        <time>2025-05-15T09:33:02Z</time>
      </trkpt>
      <trkpt lat="42.531760018318892" lon="2.610371997579932">
        <ele>644.70000000000005</ele>
        <time>2025-05-15T09:33:03Z</time>
      </trkpt>
      <trkpt lat="42.531663039699197" lon="2.610434023663402">
        <ele>644.22000000000003</ele>
        <time>2025-05-15T09:33:04Z</time>
      </trkpt>
      <trkpt lat="42.531572012230754" lon="2.610493032261729">
        <ele>644.22000000000003</ele>
        <time>2025-05-15T09:33:05Z</time>
      </trkpt>
      <trkpt lat="42.531503029167652" lon="2.610562015324831">
        <ele>643.74000000000001</ele>
        <time>2025-05-15T09:33:06Z</time>
      </trkpt>
      <trkpt lat="42.531446032226086" lon="2.610663017258048">
        <ele>643.74000000000001</ele>
        <time>2025-05-15T09:33:07Z</time>
      </trkpt>
      <trkpt lat="42.531446032226086" lon="2.610763013362885">
        <ele>643.74000000000001</ele>
        <time>2025-05-15T09:33:08Z</time>
      </trkpt>
      <trkpt lat="42.531446032226086" lon="2.610868038609624">
        <ele>643.25999999999999</ele>
        <time>2025-05-15T09:33:09Z</time>
      </trkpt>
      <trkpt lat="42.531439997255802" lon="2.610986977815628">
        <ele>642.77999999999997</ele>
        <time>2025-05-15T09:33:10Z</time>
      </trkpt>
      <trkpt lat="42.531402027234435" lon="2.61109996587038">
        <ele>642.77999999999997</ele>
        <time>2025-05-15T09:33:11Z</time>
      </trkpt>
      <trkpt lat="42.531332038342953" lon="2.611202979460359">
        <ele>641.82000000000005</ele>
        <time>2025-05-15T09:33:12Z</time>
      </trkpt>
      <trkpt lat="42.531236987560987" lon="2.611277997493744">
        <ele>640.86000000000001</ele>
        <time>2025-05-15T09:33:13Z</time>
      </trkpt>
      <trkpt lat="42.531117964535952" lon="2.611340023577213">
        <ele>639.88999999999999</ele>
        <time>2025-05-15T09:33:14Z</time>
      </trkpt>
      <trkpt lat="42.530734995380044" lon="2.611530963331461">
        <ele>637.00999999999999</ele>
        <time>2025-05-15T09:33:17Z</time>
      </trkpt>
      <trkpt lat="42.530479012057185" lon="2.611520988866687">
        <ele>636.04999999999995</ele>
        <time>2025-05-15T09:33:19Z</time>
      </trkpt>
      <trkpt lat="42.529814997687936" lon="2.611399032175541">
        <ele>634.13</ele>
        <time>2025-05-15T09:33:24Z</time>
      </trkpt>
      <trkpt lat="42.529732016846538" lon="2.61133499443531">
        <ele>633.64999999999998</ele>
        <time>2025-05-15T09:33:25Z</time>
      </trkpt>
      <trkpt lat="42.529650963842869" lon="2.61127196252346">
        <ele>633.16999999999996</ele>
        <time>2025-05-15T09:33:26Z</time>
      </trkpt>
      <trkpt lat="42.529577035456896" lon="2.611213037744165">
        <ele>632.67999999999995</ele>
        <time>2025-05-15T09:33:27Z</time>
      </trkpt>
      <trkpt lat="42.529514003545046" lon="2.611165009438992">
        <ele>632.20000000000005</ele>
        <time>2025-05-15T09:33:28Z</time>
      </trkpt>
      <trkpt lat="42.529465975239873" lon="2.611127961426973">
        <ele>631.72000000000003</ele>
        <time>2025-05-15T09:33:29Z</time>
      </trkpt>
      <trkpt lat="42.529429011046886" lon="2.611098038032651">
        <ele>630.75999999999999</ele>
        <time>2025-05-15T09:33:31Z</time>
      </trkpt>
      <trkpt lat="42.529429011046886" lon="2.611098038032651">
        <ele>630.27999999999997</ele>
        <time>2025-05-15T09:33:32Z</time>
      </trkpt>
      <trkpt lat="42.529429011046886" lon="2.611098038032651">
        <ele>628.84000000000003</ele>
        <time>2025-05-15T09:33:43Z</time>
      </trkpt>
      <trkpt lat="42.529376037418842" lon="2.61111899279058">
        <ele>628.84000000000003</ele>
        <time>2025-05-15T09:33:45Z</time>
      </trkpt>
      <trkpt lat="42.529376037418842" lon="2.61111899279058">
        <ele>627.39999999999998</ele>
        <time>2025-05-15T09:33:58Z</time>
      </trkpt>
      <trkpt lat="42.529401015490294" lon="2.611454017460346">
        <ele>685.08000000000004</ele>
        <time>2025-05-15T09:39:27Z</time>
      </trkpt>
      <trkpt lat="42.529232036322355" lon="2.61118202470243">
        <ele>633.16999999999996</ele>
        <time>2025-05-15T09:40:09Z</time>
      </trkpt>
      <trkpt lat="42.5292659830302" lon="2.61118495836854">
        <ele>637.49000000000001</ele>
        <time>2025-05-15T09:41:01Z</time>
      </trkpt>
      <trkpt lat="42.529227007180452" lon="2.611166015267372">
        <ele>638.92999999999995</ele>
        <time>2025-05-15T09:41:18Z</time>
      </trkpt>
      <trkpt lat="42.529277969151735" lon="2.61124899610877">
        <ele>639.88999999999999</ele>
        <time>2025-05-15T09:41:21Z</time>
      </trkpt>
      <trkpt lat="42.529382994398475" lon="2.612003032118082">
        <ele>639.88999999999999</ele>
        <time>2025-05-15T09:41:28Z</time>
      </trkpt>
      <trkpt lat="42.529438985511661" lon="2.61303199455142">
        <ele>637.00999999999999</ele>
        <time>2025-05-15T09:41:35Z</time>
      </trkpt>
      <trkpt lat="42.529250979423523" lon="2.613803967833519">
        <ele>635.57000000000005</ele>
        <time>2025-05-15T09:41:40Z</time>
      </trkpt>
      <trkpt lat="42.529189037159085" lon="2.613926008343697">
        <ele>634.61000000000001</ele>
        <time>2025-05-15T09:41:41Z</time>
      </trkpt>
      <trkpt lat="42.529103038832545" lon="2.61404000222683">
        <ele>633.64999999999998</ele>
        <time>2025-05-15T09:41:42Z</time>
      </trkpt>
      <trkpt lat="42.529013017192483" lon="2.614157013595104">
        <ele>632.67999999999995</ele>
        <time>2025-05-15T09:41:43Z</time>
      </trkpt>
      <trkpt lat="42.528916038572788" lon="2.614264972507954">
        <ele>631.72000000000003</ele>
        <time>2025-05-15T09:41:44Z</time>
      </trkpt>
      <trkpt lat="42.528572967275977" lon="2.614553980529308">
        <ele>626.91999999999996</ele>
        <time>2025-05-15T09:41:47Z</time>
      </trkpt>
      <trkpt lat="42.52844899892807" lon="2.6146200299263">
        <ele>624.99000000000001</ele>
        <time>2025-05-15T09:41:48Z</time>
      </trkpt>
      <trkpt lat="42.528318995609879" lon="2.614679038524628">
        <ele>624.02999999999997</ele>
        <time>2025-05-15T09:41:49Z</time>
      </trkpt>
      <trkpt lat="42.528182035312057" lon="2.614708039909601">
        <ele>621.63</ele>
        <time>2025-05-15T09:41:50Z</time>
      </trkpt>
      <trkpt lat="42.52803904004395" lon="2.614736035466194">
        <ele>620.19000000000005</ele>
        <time>2025-05-15T09:41:51Z</time>
      </trkpt>
      <trkpt lat="42.527766963467002" lon="2.614791020751">
        <ele>617.77999999999997</ele>
        <time>2025-05-15T09:41:53Z</time>
      </trkpt>
      <trkpt lat="42.527630003169179" lon="2.614804012700915">
        <ele>616.82000000000005</ele>
        <time>2025-05-15T09:41:54Z</time>
      </trkpt>
      <trkpt lat="42.526860041543841" lon="2.614690018817782">
        <ele>610.57000000000005</ele>
        <time>2025-05-15T09:42:00Z</time>
      </trkpt>
      <trkpt lat="42.526781000196934" lon="2.614732012152672">
        <ele>610.09000000000003</ele>
        <time>2025-05-15T09:42:01Z</time>
      </trkpt>
      <trkpt lat="42.526698019355536" lon="2.614778028801084">
        <ele>609.13</ele>
        <time>2025-05-15T09:42:02Z</time>
      </trkpt>
      <trkpt lat="42.526377998292446" lon="2.614951031282544">
        <ele>607.21000000000004</ele>
        <time>2025-05-15T09:42:05Z</time>
      </trkpt>
      <trkpt lat="42.526270039379597" lon="2.614967040717602">
        <ele>606.25</ele>
        <time>2025-05-15T09:42:06Z</time>
      </trkpt>
      <trkpt lat="42.525944989174604" lon="2.614927981048822">
        <ele>605.28999999999996</ele>
        <time>2025-05-15T09:42:09Z</time>
      </trkpt>
      <trkpt lat="42.525826971977949" lon="2.614871989935637">
        <ele>605.28999999999996</ele>
        <time>2025-05-15T09:42:10Z</time>
      </trkpt>
      <trkpt lat="42.5256999861449" lon="2.614810969680548">
        <ele>605.28999999999996</ele>
        <time>2025-05-15T09:42:11Z</time>
      </trkpt>
      <trkpt lat="42.525552967563272" lon="2.614754978567362">
        <ele>604.80999999999995</ele>
        <time>2025-05-15T09:42:12Z</time>
      </trkpt>
      <trkpt lat="42.525415001437068" lon="2.614722959697247">
        <ele>603.85000000000002</ele>
        <time>2025-05-15T09:42:13Z</time>
      </trkpt>
      <trkpt lat="42.525281980633736" lon="2.614692030474544">
        <ele>602.88</ele>
        <time>2025-05-15T09:42:14Z</time>
      </trkpt>
      <trkpt lat="42.525050975382328" lon="2.614638973027468">
        <ele>601.91999999999996</ele>
        <time>2025-05-15T09:42:16Z</time>
      </trkpt>
      <trkpt lat="42.524974029511213" lon="2.614538976922631">
        <ele>601.44000000000005</ele>
        <time>2025-05-15T09:42:17Z</time>
      </trkpt>
      <trkpt lat="42.524889037013054" lon="2.61442800052464">
        <ele>600.96000000000004</ele>
        <time>2025-05-15T09:42:18Z</time>
      </trkpt>
      <trkpt lat="42.52479599788785" lon="2.614306965842843">
        <ele>600</ele>
        <time>2025-05-15T09:42:19Z</time>
      </trkpt>
      <trkpt lat="42.524688960984349" lon="2.61416899971664">
        <ele>599.03999999999996</ele>
        <time>2025-05-15T09:42:20Z</time>
      </trkpt>
      <trkpt lat="42.524458961561322" lon="2.613906981423497">
        <ele>597.12</ele>
        <time>2025-05-15T09:42:22Z</time>
      </trkpt>
      <trkpt lat="42.524267015978694" lon="2.613660972565413">
        <ele>596.14999999999998</ele>
        <time>2025-05-15T09:42:24Z</time>
      </trkpt>
      <trkpt lat="42.524236002936959" lon="2.613586960360408">
        <ele>595.66999999999996</ele>
        <time>2025-05-15T09:42:25Z</time>
      </trkpt>
      <trkpt lat="42.524181017652154" lon="2.613350003957748">
        <ele>595.19000000000005</ele>
        <time>2025-05-15T09:42:26Z</time>
      </trkpt>
      <trkpt lat="42.524170959368348" lon="2.613196028396487">
        <ele>594.71000000000004</ele>
        <time>2025-05-15T09:42:27Z</time>
      </trkpt>
      <trkpt lat="42.524170959368348" lon="2.612992012873292">
        <ele>593.75</ele>
        <time>2025-05-15T09:42:28Z</time>
      </trkpt>
      <trkpt lat="42.524175988510251" lon="2.612791014835239">
        <ele>592.78999999999996</ele>
        <time>2025-05-15T09:42:29Z</time>
      </trkpt>
      <trkpt lat="42.524193003773689" lon="2.61217100545764">
        <ele>588.95000000000005</ele>
        <time>2025-05-15T09:42:32Z</time>
      </trkpt>
      <trkpt lat="42.524144975468516" lon="2.611980987712741">
        <ele>587.5</ele>
        <time>2025-05-15T09:42:33Z</time>
      </trkpt>
      <trkpt lat="42.524107005447149" lon="2.61182801797986">
        <ele>586.05999999999995</ele>
        <time>2025-05-15T09:42:34Z</time>
      </trkpt>
      <trkpt lat="42.524021007120609" lon="2.611731039360166">
        <ele>584.62</ele>
        <time>2025-05-15T09:42:35Z</time>
      </trkpt>
      <trkpt lat="42.523935008794069" lon="2.61163498274982">
        <ele>582.70000000000005</ele>
        <time>2025-05-15T09:42:36Z</time>
      </trkpt>
      <trkpt lat="42.523811040446162" lon="2.61159298941493">
        <ele>580.28999999999996</ele>
        <time>2025-05-15T09:42:37Z</time>
      </trkpt>
      <trkpt lat="42.523709032684565" lon="2.61157002300024">
        <ele>577.88999999999999</ele>
        <time>2025-05-15T09:42:38Z</time>
      </trkpt>
      <trkpt lat="42.52363502047956" lon="2.61157002300024">
        <ele>576.45000000000005</ele>
        <time>2025-05-15T09:42:39Z</time>
      </trkpt>
      <trkpt lat="42.523560002446175" lon="2.611633976921439">
        <ele>575.97000000000003</ele>
        <time>2025-05-15T09:42:40Z</time>
      </trkpt>
      <trkpt lat="42.523484984412789" lon="2.61169902049005">
        <ele>575.49000000000001</ele>
        <time>2025-05-15T09:42:41Z</time>
      </trkpt>
      <trkpt lat="42.523457994684577" lon="2.611831035465002">
        <ele>575.00999999999999</ele>
        <time>2025-05-15T09:42:42Z</time>
      </trkpt>
      <trkpt lat="42.523427987471223" lon="2.611985011026263">
        <ele>575.00999999999999</ele>
        <time>2025-05-15T09:42:43Z</time>
      </trkpt>
      <trkpt lat="42.523393034934998" lon="2.612156001850963">
        <ele>574.52999999999997</ele>
        <time>2025-05-15T09:42:44Z</time>
      </trkpt>
      <trkpt lat="42.52335699275136" lon="2.612337972968817">
        <ele>574.52999999999997</ele>
        <time>2025-05-15T09:42:45Z</time>
      </trkpt>
      <trkpt lat="42.523320028558373" lon="2.612523967400193">
        <ele>574.52999999999997</ele>
        <time>2025-05-15T09:42:46Z</time>
      </trkpt>
      <trkpt lat="42.523282980546355" lon="2.612705016508699">
        <ele>574.03999999999996</ele>
        <time>2025-05-15T09:42:47Z</time>
      </trkpt>
      <trkpt lat="42.522860029712319" lon="2.613490987569094">
        <ele>573.08000000000004</ele>
        <time>2025-05-15T09:42:52Z</time>
      </trkpt>
      <trkpt lat="42.522809989750385" lon="2.613683016970754">
        <ele>573.08000000000004</ele>
        <time>2025-05-15T09:42:53Z</time>
      </trkpt>
      <trkpt lat="42.522761961445212" lon="2.613870017230511">
        <ele>573.08000000000004</ele>
        <time>2025-05-15T09:42:54Z</time>
      </trkpt>
      <trkpt lat="42.522718040272593" lon="2.61404000222683">
        <ele>572.60000000000002</ele>
        <time>2025-05-15T09:42:55Z</time>
      </trkpt>
      <trkpt lat="42.522690966725349" lon="2.614229014143348">
        <ele>572.12</ele>
        <time>2025-05-15T09:42:56Z</time>
      </trkpt>
      <trkpt lat="42.522702030837536" lon="2.614420959725976">
        <ele>571.63999999999999</ele>
        <time>2025-05-15T09:42:57Z</time>
      </trkpt>
      <trkpt lat="42.522747041657567" lon="2.61457996442914">
        <ele>570.20000000000005</ele>
        <time>2025-05-15T09:42:58Z</time>
      </trkpt>
      <trkpt lat="42.522796997800469" lon="2.614757996052504">
        <ele>568.75999999999999</ele>
        <time>2025-05-15T09:42:59Z</time>
      </trkpt>
      <trkpt lat="42.523010987788439" lon="2.615849990397692">
        <ele>558.65999999999997</ele>
        <time>2025-05-15T09:43:05Z</time>
      </trkpt>
      <trkpt lat="42.523034038022161" lon="2.615992985665798">
        <ele>557.70000000000005</ele>
        <time>2025-05-15T09:43:06Z</time>
      </trkpt>
      <trkpt lat="42.523020962253213" lon="2.616152996197343">
        <ele>556.25999999999999</ele>
        <time>2025-05-15T09:43:07Z</time>
      </trkpt>
      <trkpt lat="42.522991038858891" lon="2.616327004507184">
        <ele>555.29999999999995</ele>
        <time>2025-05-15T09:43:08Z</time>
      </trkpt>
      <trkpt lat="42.522945022210479" lon="2.616496989503503">
        <ele>553.86000000000001</ele>
        <time>2025-05-15T09:43:09Z</time>
      </trkpt>
      <trkpt lat="42.522901017218828" lon="2.616658005863428">
        <ele>552.40999999999997</ele>
        <time>2025-05-15T09:43:10Z</time>
      </trkpt>
      <trkpt lat="42.522834967821836" lon="2.616799995303154">
        <ele>550.49000000000001</ele>
        <time>2025-05-15T09:43:11Z</time>
      </trkpt>
      <trkpt lat="42.522766990587115" lon="2.616909965872765">
        <ele>549.04999999999995</ele>
        <time>2025-05-15T09:43:12Z</time>
      </trkpt>
      <trkpt lat="42.522657020017505" lon="2.617033012211323">
        <ele>546.64999999999998</ele>
        <time>2025-05-15T09:43:13Z</time>
      </trkpt>
      <trkpt lat="42.522537996992469" lon="2.617107024416328">
        <ele>544.24000000000001</ele>
        <time>2025-05-15T09:43:14Z</time>
      </trkpt>
      <trkpt lat="42.522405982017517" lon="2.617187993600965">
        <ele>541.36000000000001</ele>
        <time>2025-05-15T09:43:15Z</time>
      </trkpt>
      <trkpt lat="42.522160978987813" lon="2.617321014404297">
        <ele>537.99000000000001</ele>
        <time>2025-05-15T09:43:17Z</time>
      </trkpt>
      <trkpt lat="42.522018989548087" lon="2.617346998304129">
        <ele>536.54999999999995</ele>
        <time>2025-05-15T09:43:18Z</time>
      </trkpt>
      <trkpt lat="42.521725036203861" lon="2.617359990254045">
        <ele>533.66999999999996</ele>
        <time>2025-05-15T09:43:20Z</time>
      </trkpt>
      <trkpt lat="42.52144399099052" lon="2.617443976923823">
        <ele>530.78999999999996</ele>
        <time>2025-05-15T09:43:22Z</time>
      </trkpt>
      <trkpt lat="42.521156994625926" lon="2.61756501160562">
        <ele>528.38</ele>
        <time>2025-05-15T09:43:24Z</time>
      </trkpt>
      <trkpt lat="42.520887013524771" lon="2.617760980501771">
        <ele>526.46000000000004</ele>
        <time>2025-05-15T09:43:26Z</time>
      </trkpt>
      <trkpt lat="42.520771007984877" lon="2.61784496717155">
        <ele>525.5</ele>
        <time>2025-05-15T09:43:27Z</time>
      </trkpt>
      <trkpt lat="42.520677968859673" lon="2.617920991033316">
        <ele>524.53999999999996</ele>
        <time>2025-05-15T09:43:28Z</time>
      </trkpt>
      <trkpt lat="42.520610997453332" lon="2.618001960217953">
        <ele>523.09000000000003</ele>
        <time>2025-05-15T09:43:29Z</time>
      </trkpt>
      <trkpt lat="42.520571015775204" lon="2.61808100156486">
        <ele>521.64999999999998</ele>
        <time>2025-05-15T09:43:30Z</time>
      </trkpt>
      <trkpt lat="42.520546037703753" lon="2.618159037083387">
        <ele>520.69000000000005</ele>
        <time>2025-05-15T09:43:31Z</time>
      </trkpt>
      <trkpt lat="42.520577972754836" lon="2.618234977126122">
        <ele>519.25</ele>
        <time>2025-05-15T09:43:32Z</time>
      </trkpt>
      <trkpt lat="42.520618960261345" lon="2.61831502430141">
        <ele>518.28999999999996</ele>
        <time>2025-05-15T09:43:33Z</time>
      </trkpt>
      <trkpt lat="42.52071401104331" lon="2.618344025686383">
        <ele>517.80999999999995</ele>
        <time>2025-05-15T09:43:34Z</time>
      </trkpt>
      <trkpt lat="42.520806966349483" lon="2.618328016251326">
        <ele>516.85000000000002</ele>
        <time>2025-05-15T09:43:35Z</time>
      </trkpt>
      <trkpt lat="42.520910985767841" lon="2.618309995159507">
        <ele>516.37</ele>
        <time>2025-05-15T09:43:36Z</time>
      </trkpt>
      <trkpt lat="42.521029002964497" lon="2.618289962410927">
        <ele>515.39999999999998</ele>
        <time>2025-05-15T09:43:37Z</time>
      </trkpt>
      <trkpt lat="42.521159006282687" lon="2.618266995996237">
        <ele>514.91999999999996</ele>
        <time>2025-05-15T09:43:38Z</time>
      </trkpt>
      <trkpt lat="42.52129596658051" lon="2.618244029581547">
        <ele>514.44000000000005</ele>
        <time>2025-05-15T09:43:39Z</time>
      </trkpt>
      <trkpt lat="42.521725036203861" lon="2.618372021242976">
        <ele>512.51999999999998</ele>
        <time>2025-05-15T09:43:42Z</time>
      </trkpt>
      <trkpt lat="42.522031981498003" lon="2.618632027879357">
        <ele>511.07999999999998</ele>
        <time>2025-05-15T09:43:45Z</time>
      </trkpt>
      <trkpt lat="42.522106999531388" lon="2.618755996227264">
        <ele>510.60000000000002</ele>
        <time>2025-05-15T09:43:46Z</time>
      </trkpt>
      <trkpt lat="42.522177994251251" lon="2.618873007595539">
        <ele>510.12</ele>
        <time>2025-05-15T09:43:47Z</time>
      </trkpt>
      <trkpt lat="42.52223901450634" lon="2.618973003700376">
        <ele>509.63999999999999</ele>
        <time>2025-05-15T09:43:48Z</time>
      </trkpt>
      <trkpt lat="42.522313026711345" lon="2.619080962613225">
        <ele>509.63999999999999</ele>
        <time>2025-05-15T09:43:49Z</time>
      </trkpt>
      <trkpt lat="42.522415034472942" lon="2.619080962613225">
        <ele>509.16000000000003</ele>
        <time>2025-05-15T09:43:50Z</time>
      </trkpt>
      <trkpt lat="42.522534979507327" lon="2.619080962613225">
        <ele>508.19</ele>
        <time>2025-05-15T09:43:51Z</time>
      </trkpt>
      <trkpt lat="42.522657020017505" lon="2.619080962613225">
        <ele>507.23000000000002</ele>
        <time>2025-05-15T09:43:52Z</time>
      </trkpt>
      <trkpt lat="42.522781994193792" lon="2.619080962613225">
        <ele>505.79000000000002</ele>
        <time>2025-05-15T09:43:53Z</time>
      </trkpt>
      <trkpt lat="42.522917026653886" lon="2.619080962613225">
        <ele>504.35000000000002</ele>
        <time>2025-05-15T09:43:54Z</time>
      </trkpt>
      <trkpt lat="42.523034038022161" lon="2.619080962613225">
        <ele>502.91000000000003</ele>
        <time>2025-05-15T09:43:55Z</time>
      </trkpt>
      <trkpt lat="42.523292033001781" lon="2.618994964286685">
        <ele>501.45999999999998</ele>
        <time>2025-05-15T09:43:57Z</time>
      </trkpt>
      <trkpt lat="42.523438967764378" lon="2.618827996775508">
        <ele>501.45999999999998</ele>
        <time>2025-05-15T09:43:58Z</time>
      </trkpt>
      <trkpt lat="42.523551033809781" lon="2.61870302259922">
        <ele>501.94999999999999</ele>
        <time>2025-05-15T09:43:59Z</time>
      </trkpt>
      <trkpt lat="42.523870971053839" lon="2.618479980155826">
        <ele>501.45999999999998</ele>
        <time>2025-05-15T09:44:02Z</time>
      </trkpt>
      <trkpt lat="42.524049002677202" lon="2.61855399236083">
        <ele>501.45999999999998</ele>
        <time>2025-05-15T09:44:03Z</time>
      </trkpt>
      <trkpt lat="42.524127960205078" lon="2.618587017059326">
        <ele>501.45999999999998</ele>
        <time>2025-05-15T09:44:04Z</time>
      </trkpt>
      <trkpt lat="42.524191997945309" lon="2.618676032871008">
        <ele>501.45999999999998</ele>
        <time>2025-05-15T09:44:05Z</time>
      </trkpt>
      <trkpt lat="42.524263998493552" lon="2.618776028975844">
        <ele>500.98000000000002</ele>
        <time>2025-05-15T09:44:06Z</time>
      </trkpt>
      <trkpt lat="42.524341028183699" lon="2.618883987888694">
        <ele>500.98000000000002</ele>
        <time>2025-05-15T09:44:07Z</time>
      </trkpt>
      <trkpt lat="42.524361982941628" lon="2.618998987600207">
        <ele>500.98000000000002</ele>
        <time>2025-05-15T09:44:08Z</time>
      </trkpt>
      <trkpt lat="42.52438997849822" lon="2.619157992303371">
        <ele>500.98000000000002</ele>
        <time>2025-05-15T09:44:09Z</time>
      </trkpt>
      <trkpt lat="42.524414034560323" lon="2.619295958429575">
        <ele>500.98000000000002</ele>
        <time>2025-05-15T09:44:10Z</time>
      </trkpt>
      <trkpt lat="42.524442030116916" lon="2.619419004768133">
        <ele>500.98000000000002</ele>
        <time>2025-05-15T09:44:11Z</time>
      </trkpt>
      <trkpt lat="42.5245619751513" lon="2.619577003642917">
        <ele>500.98000000000002</ele>
        <time>2025-05-15T09:44:12Z</time>
      </trkpt>
      <trkpt lat="42.524642022326589" lon="2.619581026956439">
        <ele>500.98000000000002</ele>
        <time>2025-05-15T09:44:13Z</time>
      </trkpt>
      <trkpt lat="42.52473103813827" lon="2.61958597227931">
        <ele>500.98000000000002</ele>
        <time>2025-05-15T09:44:14Z</time>
      </trkpt>
      <trkpt lat="42.524823993444443" lon="2.619589995592833">
        <ele>500.5</ele>
        <time>2025-05-15T09:44:15Z</time>
      </trkpt>
      <trkpt lat="42.524921977892518" lon="2.619596030563116">
        <ele>500.01999999999998</ele>
        <time>2025-05-15T09:44:16Z</time>
      </trkpt>
      <trkpt lat="42.524981992319226" lon="2.619638023898006">
        <ele>499.54000000000002</ele>
        <time>2025-05-15T09:44:17Z</time>
      </trkpt>
      <trkpt lat="42.525099003687501" lon="2.619719998911023">
        <ele>499.06</ele>
        <time>2025-05-15T09:44:18Z</time>
      </trkpt>
      <trkpt lat="42.525223977863789" lon="2.619808008894324">
        <ele>499.06</ele>
        <time>2025-05-15T09:44:19Z</time>
      </trkpt>
      <trkpt lat="42.525458000600338" lon="2.61997195892036">
        <ele>498.10000000000002</ele>
        <time>2025-05-15T09:44:21Z</time>
      </trkpt>
      <trkpt lat="42.525674002245069" lon="2.620198018848896">
        <ele>497.13999999999999</ele>
        <time>2025-05-15T09:44:23Z</time>
      </trkpt>
      <trkpt lat="42.52576301805675" lon="2.620299020782113">
        <ele>497.13999999999999</ele>
        <time>2025-05-15T09:44:24Z</time>
      </trkpt>
      <trkpt lat="42.525884974747896" lon="2.620362974703312">
        <ele>496.66000000000003</ele>
        <time>2025-05-15T09:44:25Z</time>
      </trkpt>
      <trkpt lat="42.525968039408326" lon="2.62035601772368">
        <ele>496.66000000000003</ele>
        <time>2025-05-15T09:44:26Z</time>
      </trkpt>
      <trkpt lat="42.526049008592963" lon="2.620348976925015">
        <ele>496.66000000000003</ele>
        <time>2025-05-15T09:44:27Z</time>
      </trkpt>
      <trkpt lat="42.526147998869419" lon="2.620339002460241">
        <ele>496.66000000000003</ele>
        <time>2025-05-15T09:44:28Z</time>
      </trkpt>
      <trkpt lat="42.526241960003972" lon="2.620329027995467">
        <ele>496.18000000000001</ele>
        <time>2025-05-15T09:44:29Z</time>
      </trkpt>
      <trkpt lat="42.526325024664402" lon="2.620360963046551">
        <ele>495.69999999999999</ele>
        <time>2025-05-15T09:44:30Z</time>
      </trkpt>
      <trkpt lat="42.526424014940858" lon="2.620432041585445">
        <ele>495.22000000000003</ele>
        <time>2025-05-15T09:44:31Z</time>
      </trkpt>
      <trkpt lat="42.526486041024327" lon="2.620524996891618">
        <ele>494.74000000000001</ele>
        <time>2025-05-15T09:44:32Z</time>
      </trkpt>
      <trkpt lat="42.52653599716723" lon="2.620687019079924">
        <ele>494.74000000000001</ele>
        <time>2025-05-15T09:44:33Z</time>
      </trkpt>
      <trkpt lat="42.526574973016977" lon="2.6208730135113">
        <ele>494.25999999999999</ele>
        <time>2025-05-15T09:44:34Z</time>
      </trkpt>
      <trkpt lat="42.526615960523486" lon="2.621073005720973">
        <ele>494.25999999999999</ele>
        <time>2025-05-15T09:44:35Z</time>
      </trkpt>
      <trkpt lat="42.526648985221982" lon="2.621280960738659">
        <ele>494.25999999999999</ele>
        <time>2025-05-15T09:44:36Z</time>
      </trkpt>
      <trkpt lat="42.526670023798943" lon="2.621476007625461">
        <ele>494.25999999999999</ele>
        <time>2025-05-15T09:44:37Z</time>
      </trkpt>
      <trkpt lat="42.526705982163548" lon="2.62166895903647">
        <ele>493.76999999999998</ele>
        <time>2025-05-15T09:44:38Z</time>
      </trkpt>
      <trkpt lat="42.526763984933496" lon="2.621853025630117">
        <ele>493.76999999999998</ele>
        <time>2025-05-15T09:44:39Z</time>
      </trkpt>
      <trkpt lat="42.5270089879632" lon="2.622593985870481">
        <ele>494.74000000000001</ele>
        <time>2025-05-15T09:44:43Z</time>
      </trkpt>
      <trkpt lat="42.527042012661695" lon="2.622769000008702">
        <ele>495.69999999999999</ele>
        <time>2025-05-15T09:44:44Z</time>
      </trkpt>
      <trkpt lat="42.52702902071178" lon="2.622961029410362">
        <ele>496.18000000000001</ele>
        <time>2025-05-15T09:44:45Z</time>
      </trkpt>
      <trkpt lat="42.527015022933483" lon="2.623159009963274">
        <ele>497.13999999999999</ele>
        <time>2025-05-15T09:44:46Z</time>
      </trkpt>
      <trkpt lat="42.527001025155187" lon="2.62336403131485">
        <ele>497.62</ele>
        <time>2025-05-15T09:44:47Z</time>
      </trkpt>
      <trkpt lat="42.526937993243337" lon="2.623782958835363">
        <ele>498.57999999999998</ele>
        <time>2025-05-15T09:44:49Z</time>
      </trkpt>
      <trkpt lat="42.526885019615293" lon="2.623971970751882">
        <ele>499.54000000000002</ele>
        <time>2025-05-15T09:44:50Z</time>
      </trkpt>
      <trkpt lat="42.526765996590257" lon="2.624255027621985">
        <ele>500.5</ele>
        <time>2025-05-15T09:44:52Z</time>
      </trkpt>
      <trkpt lat="42.526695001870394" lon="2.624386958777905">
        <ele>501.45999999999998</ele>
        <time>2025-05-15T09:44:53Z</time>
      </trkpt>
      <trkpt lat="42.526583019644022" lon="2.624469017609954">
        <ele>502.43000000000001</ele>
        <time>2025-05-15T09:44:54Z</time>
      </trkpt>
      <trkpt lat="42.52647397108376" lon="2.624490978196263">
        <ele>503.87</ele>
        <time>2025-05-15T09:44:55Z</time>
      </trkpt>
      <trkpt lat="42.526372969150543" lon="2.624519979581237">
        <ele>505.31</ele>
        <time>2025-05-15T09:44:56Z</time>
      </trkpt>
      <trkpt lat="42.526291999965906" lon="2.624653000384569">
        <ele>506.75</ele>
        <time>2025-05-15T09:44:57Z</time>
      </trkpt>
      <trkpt lat="42.526275990530849" lon="2.624807981774211">
        <ele>507.70999999999998</ele>
        <time>2025-05-15T09:44:58Z</time>
      </trkpt>
      <trkpt lat="42.526260986924171" lon="2.624960029497743">
        <ele>508.67000000000002</ele>
        <time>2025-05-15T09:44:59Z</time>
      </trkpt>
      <trkpt lat="42.526242965832353" lon="2.625134037807584">
        <ele>509.63999999999999</ele>
        <time>2025-05-15T09:45:00Z</time>
      </trkpt>
      <trkpt lat="42.526222011074424" lon="2.625336963683367">
        <ele>510.12</ele>
        <time>2025-05-15T09:45:01Z</time>
      </trkpt>
      <trkpt lat="42.526157973334193" lon="2.625763015821576">
        <ele>511.07999999999998</ele>
        <time>2025-05-15T09:45:03Z</time>
      </trkpt>
      <trkpt lat="42.526094019412994" lon="2.62596501968801">
        <ele>511.56</ele>
        <time>2025-05-15T09:45:04Z</time>
      </trkpt>
      <trkpt lat="42.526026964187622" lon="2.626171968877316">
        <ele>512.51999999999998</ele>
        <time>2025-05-15T09:45:05Z</time>
      </trkpt>
      <trkpt lat="42.525536036118865" lon="2.627700995653868">
        <ele>516.85000000000002</ele>
        <time>2025-05-15T09:45:12Z</time>
      </trkpt>
      <trkpt lat="42.525538969784975" lon="2.627894030883908">
        <ele>517.33000000000004</ele>
        <time>2025-05-15T09:45:13Z</time>
      </trkpt>
      <trkpt lat="42.52557098865509" lon="2.628098968416452">
        <ele>517.33000000000004</ele>
        <time>2025-05-15T09:45:14Z</time>
      </trkpt>
      <trkpt lat="42.525603007525206" lon="2.628308013081551">
        <ele>517.33000000000004</ele>
        <time>2025-05-15T09:45:15Z</time>
      </trkpt>
      <trkpt lat="42.525635026395321" lon="2.628513034433126">
        <ele>517.80999999999995</ele>
        <time>2025-05-15T09:45:16Z</time>
      </trkpt>
      <trkpt lat="42.525727981701493" lon="2.62927302159369">
        <ele>519.25</ele>
        <time>2025-05-15T09:45:20Z</time>
      </trkpt>
      <trkpt lat="42.525735022500157" lon="2.629434959962964">
        <ele>519.25</ele>
        <time>2025-05-15T09:45:21Z</time>
      </trkpt>
      <trkpt lat="42.525696968659759" lon="2.62959698215127">
        <ele>519.25</ele>
        <time>2025-05-15T09:45:22Z</time>
      </trkpt>
      <trkpt lat="42.525643995031714" lon="2.629740983247757">
        <ele>519.73000000000002</ele>
        <time>2025-05-15T09:45:23Z</time>
      </trkpt>
      <trkpt lat="42.525588003918529" lon="2.629894958809018">
        <ele>520.21000000000004</ele>
        <time>2025-05-15T09:45:24Z</time>
      </trkpt>
      <trkpt lat="42.525510974228382" lon="2.629971988499165">
        <ele>520.21000000000004</ele>
        <time>2025-05-15T09:45:25Z</time>
      </trkpt>
      <trkpt lat="42.524974029511213" lon="2.630528965964913">
        <ele>522.61000000000001</ele>
        <time>2025-05-15T09:45:30Z</time>
      </trkpt>
      <trkpt lat="42.524836985394359" lon="2.630767012014985">
        <ele>525.01999999999998</ele>
        <time>2025-05-15T09:45:32Z</time>
      </trkpt>
      <trkpt lat="42.524673035368323" lon="2.63101402670145">
        <ele>530.78999999999996</ele>
        <time>2025-05-15T09:45:35Z</time>
      </trkpt>
      <trkpt lat="42.524619977921247" lon="2.631075968965888">
        <ele>532.71000000000004</ele>
        <time>2025-05-15T09:45:36Z</time>
      </trkpt>
      <trkpt lat="42.524213958531618" lon="2.631490034982562">
        <ele>541.36000000000001</ele>
        <time>2025-05-15T09:45:43Z</time>
      </trkpt>
      <trkpt lat="42.524179005995393" lon="2.631568992510438">
        <ele>541.84000000000003</ele>
        <time>2025-05-15T09:45:44Z</time>
      </trkpt>
      <trkpt lat="42.524143969640136" lon="2.631647028028965">
        <ele>543.27999999999997</ele>
        <time>2025-05-15T09:45:45Z</time>
      </trkpt>
      <trkpt lat="42.52410801127553" lon="2.631726991385222">
        <ele>544.72000000000003</ele>
        <time>2025-05-15T09:45:46Z</time>
      </trkpt>
      <trkpt lat="42.524074986577034" lon="2.631802009418607">
        <ele>544.72000000000003</ele>
        <time>2025-05-15T09:45:47Z</time>
      </trkpt>
      <trkpt lat="42.524032993242145" lon="2.631844002753496">
        <ele>545.20000000000005</ele>
        <time>2025-05-15T09:45:48Z</time>
      </trkpt>
      <trkpt lat="42.523969961330295" lon="2.631879039108753">
        <ele>545.20000000000005</ele>
        <time>2025-05-15T09:45:49Z</time>
      </trkpt>
      <trkpt lat="42.523900978267193" lon="2.631918014958501">
        <ele>545.69000000000005</ele>
        <time>2025-05-15T09:45:50Z</time>
      </trkpt>
      <trkpt lat="42.523763012140989" lon="2.631994960829616">
        <ele>546.64999999999998</ele>
        <time>2025-05-15T09:45:52Z</time>
      </trkpt>
      <trkpt lat="42.523574000224471" lon="2.632143991068006">
        <ele>547.13</ele>
        <time>2025-05-15T09:45:55Z</time>
      </trkpt>
      <trkpt lat="42.523512979969382" lon="2.63219503685832">
        <ele>547.13</ele>
        <time>2025-05-15T09:45:56Z</time>
      </trkpt>
      <trkpt lat="42.523454977199435" lon="2.632243987172842">
        <ele>547.61000000000001</ele>
        <time>2025-05-15T09:45:57Z</time>
      </trkpt>
      <trkpt lat="42.5232910271734" lon="2.632428975775838">
        <ele>548.09000000000003</ele>
        <time>2025-05-15T09:46:00Z</time>
      </trkpt>
      <trkpt lat="42.523236963897943" lon="2.632484966889024">
        <ele>548.09000000000003</ele>
        <time>2025-05-15T09:46:01Z</time>
      </trkpt>
      <trkpt lat="42.522693984210491" lon="2.633106987923384">
        <ele>546.64999999999998</ele>
        <time>2025-05-15T09:46:10Z</time>
      </trkpt>
      <trkpt lat="42.522635981440544" lon="2.633199021220207">
        <ele>546.64999999999998</ele>
        <time>2025-05-15T09:46:11Z</time>
      </trkpt>
      <trkpt lat="42.522283019497991" lon="2.633886002004147">
        <ele>544.72000000000003</ele>
        <time>2025-05-15T09:46:18Z</time>
      </trkpt>
      <trkpt lat="42.522192997857928" lon="2.633964037522674">
        <ele>544.24000000000001</ele>
        <time>2025-05-15T09:46:19Z</time>
      </trkpt>
      <trkpt lat="42.52213298343122" lon="2.634014999493957">
        <ele>544.24000000000001</ele>
        <time>2025-05-15T09:46:20Z</time>
      </trkpt>
      <trkpt lat="42.522055031731725" lon="2.634014999493957">
        <ele>543.75999999999999</ele>
        <time>2025-05-15T09:46:21Z</time>
      </trkpt>
      <trkpt lat="42.521976996213198" lon="2.634014999493957">
        <ele>543.75999999999999</ele>
        <time>2025-05-15T09:46:22Z</time>
      </trkpt>
      <trkpt lat="42.521904995664954" lon="2.633984992280603">
        <ele>543.75999999999999</ele>
        <time>2025-05-15T09:46:23Z</time>
      </trkpt>
      <trkpt lat="42.521816985681653" lon="2.63393696397543">
        <ele>543.75999999999999</ele>
        <time>2025-05-15T09:46:24Z</time>
      </trkpt>
      <trkpt lat="42.521693017333746" lon="2.633901005610824">
        <ele>543.75999999999999</ele>
        <time>2025-05-15T09:46:25Z</time>
      </trkpt>
      <trkpt lat="42.521606013178825" lon="2.633938975632191">
        <ele>543.75999999999999</ele>
        <time>2025-05-15T09:46:26Z</time>
      </trkpt>
      <trkpt lat="42.521504005417228" lon="2.633993960916996">
        <ele>543.75999999999999</ele>
        <time>2025-05-15T09:46:27Z</time>
      </trkpt>
      <trkpt lat="42.521413983777165" lon="2.63406302779913">
        <ele>543.75999999999999</ele>
        <time>2025-05-15T09:46:28Z</time>
      </trkpt>
      <trkpt lat="42.521329997107387" lon="2.634126981720328">
        <ele>543.27999999999997</ele>
        <time>2025-05-15T09:46:29Z</time>
      </trkpt>
      <trkpt lat="42.521232012659311" lon="2.634183978661895">
        <ele>543.27999999999997</ele>
        <time>2025-05-15T09:46:30Z</time>
      </trkpt>
      <trkpt lat="42.521134028211236" lon="2.634240975603461">
        <ele>543.27999999999997</ele>
        <time>2025-05-15T09:46:31Z</time>
      </trkpt>
      <trkpt lat="42.520961025729775" lon="2.634340971708298">
        <ele>542.32000000000005</ele>
        <time>2025-05-15T09:46:33Z</time>
      </trkpt>
      <trkpt lat="42.520912997424603" lon="2.634464018046856">
        <ele>541.84000000000003</ele>
        <time>2025-05-15T09:46:34Z</time>
      </trkpt>
      <trkpt lat="42.520891958847642" lon="2.634585974738002">
        <ele>540.88</ele>
        <time>2025-05-15T09:46:35Z</time>
      </trkpt>
      <trkpt lat="42.520772013813257" lon="2.635272033512592">
        <ele>538.48000000000002</ele>
        <time>2025-05-15T09:46:40Z</time>
      </trkpt>
      <trkpt lat="42.520729014649987" lon="2.635393990203738">
        <ele>537.50999999999999</ele>
        <time>2025-05-15T09:46:41Z</time>
      </trkpt>
      <trkpt lat="42.52067101188004" lon="2.635487029328942">
        <ele>537.02999999999997</ele>
        <time>2025-05-15T09:46:42Z</time>
      </trkpt>
      <trkpt lat="42.520589958876371" lon="2.635547965764999">
        <ele>536.07000000000005</ele>
        <time>2025-05-15T09:46:43Z</time>
      </trkpt>
      <trkpt lat="42.52049800939858" lon="2.635584007948637">
        <ele>536.07000000000005</ele>
        <time>2025-05-15T09:46:44Z</time>
      </trkpt>
      <trkpt lat="42.520397007465363" lon="2.63559197075665">
        <ele>535.59000000000003</ele>
        <time>2025-05-15T09:46:45Z</time>
      </trkpt>
      <trkpt lat="42.520286031067371" lon="2.635601023212075">
        <ele>535.11000000000001</ele>
        <time>2025-05-15T09:46:46Z</time>
      </trkpt>
      <trkpt lat="42.519137961789966" lon="2.635694984346628">
        <ele>532.23000000000002</ele>
        <time>2025-05-15T09:46:55Z</time>
      </trkpt>
      <trkpt lat="42.518895976245403" lon="2.635715017095208">
        <ele>529.34000000000003</ele>
        <time>2025-05-15T09:46:57Z</time>
      </trkpt>
      <trkpt lat="42.518776031211019" lon="2.635724991559982">
        <ele>528.38</ele>
        <time>2025-05-15T09:46:58Z</time>
      </trkpt>
      <trkpt lat="42.518657008185983" lon="2.635709987953305">
        <ele>527.41999999999996</ele>
        <time>2025-05-15T09:46:59Z</time>
      </trkpt>
      <trkpt lat="42.518555000424385" lon="2.635659025982022">
        <ele>525.98000000000002</ele>
        <time>2025-05-15T09:47:00Z</time>
      </trkpt>
      <trkpt lat="42.518461039289832" lon="2.635603034868836">
        <ele>525.01999999999998</ele>
        <time>2025-05-15T09:47:01Z</time>
      </trkpt>
      <trkpt lat="42.518370011821389" lon="2.635519970208406">
        <ele>523.58000000000004</ele>
        <time>2025-05-15T09:47:02Z</time>
      </trkpt>
      <trkpt lat="42.518271021544933" lon="2.635431038215756">
        <ele>522.61000000000001</ele>
        <time>2025-05-15T09:47:03Z</time>
      </trkpt>
      <trkpt lat="42.518176976591349" lon="2.635315032675862">
        <ele>521.64999999999998</ele>
        <time>2025-05-15T09:47:04Z</time>
      </trkpt>
      <trkpt lat="42.518077986314893" lon="2.635192992165685">
        <ele>520.69000000000005</ele>
        <time>2025-05-15T09:47:05Z</time>
      </trkpt>
      <trkpt lat="42.517823008820415" lon="2.634803988039494">
        <ele>517.80999999999995</ele>
        <time>2025-05-15T09:47:08Z</time>
      </trkpt>
      <trkpt lat="42.517755031585693" lon="2.634655041620135">
        <ele>516.85000000000002</ele>
        <time>2025-05-15T09:47:09Z</time>
      </trkpt>
      <trkpt lat="42.517713038250804" lon="2.634476004168391">
        <ele>515.88</ele>
        <time>2025-05-15T09:47:10Z</time>
      </trkpt>
      <trkpt lat="42.517546992748976" lon="2.63376597315073">
        <ele>511.07999999999998</ele>
        <time>2025-05-15T09:47:14Z</time>
      </trkpt>
      <trkpt lat="42.517441967502236" lon="2.633481994271278">
        <ele>508.67000000000002</ele>
        <time>2025-05-15T09:47:16Z</time>
      </trkpt>
      <trkpt lat="42.517391005530953" lon="2.633371017873287">
        <ele>507.23000000000002</ele>
        <time>2025-05-15T09:47:17Z</time>
      </trkpt>
      <trkpt lat="42.517391005530953" lon="2.633217964321375">
        <ele>505.79000000000002</ele>
        <time>2025-05-15T09:47:18Z</time>
      </trkpt>
      <trkpt lat="42.517391005530953" lon="2.633075974881649">
        <ele>504.82999999999998</ele>
        <time>2025-05-15T09:47:19Z</time>
      </trkpt>
      <trkpt lat="42.517391005530953" lon="2.632920993492007">
        <ele>503.87</ele>
        <time>2025-05-15T09:47:20Z</time>
      </trkpt>
      <trkpt lat="42.517368039116263" lon="2.63277598656714">
        <ele>502.91000000000003</ele>
        <time>2025-05-15T09:47:21Z</time>
      </trkpt>
      <trkpt lat="42.51734297722578" lon="2.632613964378834">
        <ele>502.43000000000001</ele>
        <time>2025-05-15T09:47:22Z</time>
      </trkpt>
      <trkpt lat="42.517294026911259" lon="2.63230400159955">
        <ele>500.5</ele>
        <time>2025-05-15T09:47:24Z</time>
      </trkpt>
      <trkpt lat="42.517248010262847" lon="2.632162012159824">
        <ele>499.54000000000002</ele>
        <time>2025-05-15T09:47:25Z</time>
      </trkpt>
      <trkpt lat="42.517179027199745" lon="2.63202597387135">
        <ele>499.06</ele>
        <time>2025-05-15T09:47:26Z</time>
      </trkpt>
      <trkpt lat="42.516618026420474" lon="2.631226005032659">
        <ele>494.74000000000001</ele>
        <time>2025-05-15T09:47:33Z</time>
      </trkpt>
      <trkpt lat="42.516563041135669" lon="2.631070017814636">
        <ele>494.25999999999999</ele>
        <time>2025-05-15T09:47:34Z</time>
      </trkpt>
      <trkpt lat="42.516515012830496" lon="2.630936997011304">
        <ele>493.29000000000002</ele>
        <time>2025-05-15T09:47:35Z</time>
      </trkpt>
      <trkpt lat="42.516471007838845" lon="2.630805987864733">
        <ele>492.32999999999998</ele>
        <time>2025-05-15T09:47:36Z</time>
      </trkpt>
      <trkpt lat="42.516418034210801" lon="2.630698028951883">
        <ele>491.37</ele>
        <time>2025-05-15T09:47:37Z</time>
      </trkpt>
      <trkpt lat="42.516338992863894" lon="2.630602978169918">
        <ele>490.41000000000003</ele>
        <time>2025-05-15T09:47:38Z</time>
      </trkpt>
      <trkpt lat="42.516255006194115" lon="2.630579005926848">
        <ele>490.41000000000003</ele>
        <time>2025-05-15T09:47:39Z</time>
      </trkpt>
      <trkpt lat="42.516152998432517" lon="2.630571965128183">
        <ele>490.88999999999999</ele>
        <time>2025-05-15T09:47:40Z</time>
      </trkpt>
      <trkpt lat="42.516045961529016" lon="2.630608007311821">
        <ele>491.85000000000002</ele>
        <time>2025-05-15T09:47:41Z</time>
      </trkpt>
      <trkpt lat="42.515934985131025" lon="2.630685037001967">
        <ele>491.85000000000002</ele>
        <time>2025-05-15T09:47:42Z</time>
      </trkpt>
      <trkpt lat="42.515829037874937" lon="2.630791990086436">
        <ele>491.37</ele>
        <time>2025-05-15T09:47:43Z</time>
      </trkpt>
      <trkpt lat="42.515720995143056" lon="2.630925010889769">
        <ele>490.88999999999999</ele>
        <time>2025-05-15T09:47:44Z</time>
      </trkpt>
      <trkpt lat="42.515617981553078" lon="2.631071023643017">
        <ele>490.41000000000003</ele>
        <time>2025-05-15T09:47:45Z</time>
      </trkpt>
      <trkpt lat="42.51551597379148" lon="2.631215024739504">
        <ele>489.93000000000001</ele>
        <time>2025-05-15T09:47:46Z</time>
      </trkpt>
      <trkpt lat="42.515418995171785" lon="2.631352990865707">
        <ele>489.93000000000001</ele>
        <time>2025-05-15T09:47:47Z</time>
      </trkpt>
      <trkpt lat="42.515328973531723" lon="2.631479976698756">
        <ele>490.41000000000003</ele>
        <time>2025-05-15T09:47:48Z</time>
      </trkpt>
      <trkpt lat="42.515227971598506" lon="2.631588019430637">
        <ele>490.88999999999999</ele>
        <time>2025-05-15T09:47:49Z</time>
      </trkpt>
      <trkpt lat="42.515113977715373" lon="2.631645016372204">
        <ele>491.37</ele>
        <time>2025-05-15T09:47:50Z</time>
      </trkpt>
      <trkpt lat="42.515003001317382" lon="2.63170100748539">
        <ele>491.85000000000002</ele>
        <time>2025-05-15T09:47:51Z</time>
      </trkpt>
      <trkpt lat="42.514875009655952" lon="2.631719028577209">
        <ele>492.32999999999998</ele>
        <time>2025-05-15T09:47:52Z</time>
      </trkpt>
      <trkpt lat="42.514765961095691" lon="2.631669994443655">
        <ele>492.81</ele>
        <time>2025-05-15T09:47:53Z</time>
      </trkpt>
      <trkpt lat="42.514645010232925" lon="2.63161500915885">
        <ele>493.29000000000002</ele>
        <time>2025-05-15T09:47:54Z</time>
      </trkpt>
      <trkpt lat="42.514493968337774" lon="2.631547031924129">
        <ele>493.76999999999998</ele>
        <time>2025-05-15T09:47:55Z</time>
      </trkpt>
      <trkpt lat="42.514400007203221" lon="2.631551977247">
        <ele>494.74000000000001</ele>
        <time>2025-05-15T09:47:56Z</time>
      </trkpt>
      <trkpt lat="42.514277966693044" lon="2.631558012217283">
        <ele>495.22000000000003</ele>
        <time>2025-05-15T09:47:57Z</time>
      </trkpt>
      <trkpt lat="42.514172019436955" lon="2.631563041359186">
        <ele>495.69999999999999</ele>
        <time>2025-05-15T09:47:58Z</time>
      </trkpt>
      <trkpt lat="42.514064982533455" lon="2.631568992510438">
        <ele>496.18000000000001</ele>
        <time>2025-05-15T09:47:59Z</time>
      </trkpt>
      <trkpt lat="42.514016032218933" lon="2.631511995568872">
        <ele>496.66000000000003</ele>
        <time>2025-05-15T09:48:00Z</time>
      </trkpt>
      <trkpt lat="42.513935985043645" lon="2.631419040262699">
        <ele>497.13999999999999</ele>
        <time>2025-05-15T09:48:01Z</time>
      </trkpt>
      <trkpt lat="42.513892985880375" lon="2.631299011409283">
        <ele>497.13999999999999</ele>
        <time>2025-05-15T09:48:02Z</time>
      </trkpt>
      <trkpt lat="42.513847975060344" lon="2.631172025576234">
        <ele>497.62</ele>
        <time>2025-05-15T09:48:03Z</time>
      </trkpt>
      <trkpt lat="42.513801958411932" lon="2.631042022258043">
        <ele>497.62</ele>
        <time>2025-05-15T09:48:04Z</time>
      </trkpt>
      <trkpt lat="42.513756025582552" lon="2.630914030596614">
        <ele>497.62</ele>
        <time>2025-05-15T09:48:05Z</time>
      </trkpt>
      <trkpt lat="42.513692993670702" lon="2.630804982036352">
        <ele>498.10000000000002</ele>
        <time>2025-05-15T09:48:06Z</time>
      </trkpt>
      <trkpt lat="42.513583023101091" lon="2.630753014236689">
        <ele>498.57999999999998</ele>
        <time>2025-05-15T09:48:07Z</time>
      </trkpt>
      <trkpt lat="42.513468023389578" lon="2.630700040608645">
        <ele>499.54000000000002</ele>
        <time>2025-05-15T09:48:08Z</time>
      </trkpt>
      <trkpt lat="42.513346988707781" lon="2.630643965676427">
        <ele>500.5</ele>
        <time>2025-05-15T09:48:09Z</time>
      </trkpt>
      <trkpt lat="42.513227965682745" lon="2.630588980391622">
        <ele>501.45999999999998</ele>
        <time>2025-05-15T09:48:10Z</time>
      </trkpt>
      <trkpt lat="42.513121012598276" lon="2.630539024248719">
        <ele>501.94999999999999</ele>
        <time>2025-05-15T09:48:11Z</time>
      </trkpt>
      <trkpt lat="42.512998972088099" lon="2.630503987893462">
        <ele>502.91000000000003</ele>
        <time>2025-05-15T09:48:12Z</time>
      </trkpt>
      <trkpt lat="42.512865029275417" lon="2.63051999732852">
        <ele>504.35000000000002</ele>
        <time>2025-05-15T09:48:13Z</time>
      </trkpt>
      <trkpt lat="42.512731002643704" lon="2.630550004541874">
        <ele>505.31</ele>
        <time>2025-05-15T09:48:14Z</time>
      </trkpt>
      <trkpt lat="42.512593036517501" lon="2.630582023411989">
        <ele>506.75</ele>
        <time>2025-05-15T09:48:15Z</time>
      </trkpt>
      <trkpt lat="42.511946959421039" lon="2.630800036713481">
        <ele>510.12</ele>
        <time>2025-05-15T09:48:20Z</time>
      </trkpt>
      <trkpt lat="42.511845035478473" lon="2.630781009793282">
        <ele>510.12</ele>
        <time>2025-05-15T09:48:21Z</time>
      </trkpt>
      <trkpt lat="42.51175400801003" lon="2.630716972053051">
        <ele>510.60000000000002</ele>
        <time>2025-05-15T09:48:22Z</time>
      </trkpt>
      <trkpt lat="42.511659041047096" lon="2.630622005090118">
        <ele>510.60000000000002</ele>
        <time>2025-05-15T09:48:23Z</time>
      </trkpt>
      <trkpt lat="42.511590979993343" lon="2.630492001771927">
        <ele>511.07999999999998</ele>
        <time>2025-05-15T09:48:24Z</time>
      </trkpt>
      <trkpt lat="42.511524008587003" lon="2.630364010110498">
        <ele>511.07999999999998</ele>
        <time>2025-05-15T09:48:25Z</time>
      </trkpt>
      <trkpt lat="42.511463994160295" lon="2.630250016227365">
        <ele>511.56</ele>
        <time>2025-05-15T09:48:26Z</time>
      </trkpt>
      <trkpt lat="42.511374978348613" lon="2.630187990143895">
        <ele>512.03999999999996</ele>
        <time>2025-05-15T09:48:27Z</time>
      </trkpt>
      <trkpt lat="42.511285040527582" lon="2.630207017064095">
        <ele>512.51999999999998</ele>
        <time>2025-05-15T09:48:28Z</time>
      </trkpt>
      <trkpt lat="42.511221002787352" lon="2.630281029269099">
        <ele>513</ele>
        <time>2025-05-15T09:48:29Z</time>
      </trkpt>
      <trkpt lat="42.511192001402378" lon="2.630387982353568">
        <ele>513.48000000000002</ele>
        <time>2025-05-15T09:48:30Z</time>
      </trkpt>
      <trkpt lat="42.511172974482179" lon="2.630507005378604">
        <ele>513.48000000000002</ele>
        <time>2025-05-15T09:48:31Z</time>
      </trkpt>
      <trkpt lat="42.51119501888752" lon="2.630662992596626">
        <ele>513.96000000000004</ele>
        <time>2025-05-15T09:48:32Z</time>
      </trkpt>
      <trkpt lat="42.51121899113059" lon="2.630834989249706">
        <ele>513.96000000000004</ele>
        <time>2025-05-15T09:48:33Z</time>
      </trkpt>
      <trkpt lat="42.511245980858803" lon="2.631018972024322">
        <ele>514.44000000000005</ele>
        <time>2025-05-15T09:48:34Z</time>
      </trkpt>
      <trkpt lat="42.511271964758635" lon="2.631202032789588">
        <ele>514.91999999999996</ele>
        <time>2025-05-15T09:48:35Z</time>
      </trkpt>
      <trkpt lat="42.511299038305879" lon="2.631393978372216">
        <ele>515.88</ele>
        <time>2025-05-15T09:48:36Z</time>
      </trkpt>
      <trkpt lat="42.511326028034091" lon="2.631578966975212">
        <ele>516.85000000000002</ele>
        <time>2025-05-15T09:48:37Z</time>
      </trkpt>
      <trkpt lat="42.511376990005374" lon="2.631753981113434">
        <ele>517.33000000000004</ele>
        <time>2025-05-15T09:48:38Z</time>
      </trkpt>
      <trkpt lat="42.511457037180662" lon="2.631921032443643">
        <ele>518.76999999999998</ele>
        <time>2025-05-15T09:48:39Z</time>
      </trkpt>
      <trkpt lat="42.511535994708538" lon="2.632085988298059">
        <ele>519.73000000000002</ele>
        <time>2025-05-15T09:48:40Z</time>
      </trkpt>
      <trkpt lat="42.511643031612039" lon="2.632233006879687">
        <ele>520.21000000000004</ele>
        <time>2025-05-15T09:48:41Z</time>
      </trkpt>
      <trkpt lat="42.511769011616707" lon="2.632349012419581">
        <ele>520.69000000000005</ele>
        <time>2025-05-15T09:48:42Z</time>
      </trkpt>
      <trkpt lat="42.511898009106517" lon="2.632473986595869">
        <ele>522.61000000000001</ele>
        <time>2025-05-15T09:48:43Z</time>
      </trkpt>
      <trkpt lat="42.512018959969282" lon="2.632621005177498">
        <ele>522.61000000000001</ele>
        <time>2025-05-15T09:48:44Z</time>
      </trkpt>
      <trkpt lat="42.512123985216022" lon="2.632768023759127">
        <ele>522.61000000000001</ele>
        <time>2025-05-15T09:48:45Z</time>
      </trkpt>
      <trkpt lat="42.51220403239131" lon="2.632915964350104">
        <ele>523.09000000000003</ele>
        <time>2025-05-15T09:48:46Z</time>
      </trkpt>
      <trkpt lat="42.512263962998986" lon="2.633084021508694">
        <ele>523.09000000000003</ele>
        <time>2025-05-15T09:48:47Z</time>
      </trkpt>
      <trkpt lat="42.512311991304159" lon="2.633284013718367">
        <ele>523.58000000000004</ele>
        <time>2025-05-15T09:48:48Z</time>
      </trkpt>
      <trkpt lat="42.512476025149226" lon="2.634024973958731">
        <ele>525.98000000000002</ele>
        <time>2025-05-15T09:48:52Z</time>
      </trkpt>
      <trkpt lat="42.512485999614" lon="2.634234018623829">
        <ele>526.46000000000004</ele>
        <time>2025-05-15T09:48:53Z</time>
      </trkpt>
      <trkpt lat="42.512455992400646" lon="2.634447002783418">
        <ele>527.41999999999996</ele>
        <time>2025-05-15T09:48:54Z</time>
      </trkpt>
      <trkpt lat="42.512424979358912" lon="2.634672978892922">
        <ele>527.89999999999998</ele>
        <time>2025-05-15T09:48:55Z</time>
      </trkpt>
      <trkpt lat="42.512392038479447" lon="2.634908007457852">
        <ele>528.86000000000001</ele>
        <time>2025-05-15T09:48:56Z</time>
      </trkpt>
      <trkpt lat="42.512391032651067" lon="2.635400025174022">
        <ele>530.78999999999996</ele>
        <time>2025-05-15T09:48:58Z</time>
      </trkpt>
      <trkpt lat="42.512408969923854" lon="2.635623989626765">
        <ele>531.75</ele>
        <time>2025-05-15T09:48:59Z</time>
      </trkpt>
      <trkpt lat="42.512445012107491" lon="2.635843008756638">
        <ele>533.19000000000005</ele>
        <time>2025-05-15T09:49:00Z</time>
      </trkpt>
      <trkpt lat="42.512478958815336" lon="2.636038977652788">
        <ele>534.14999999999998</ele>
        <time>2025-05-15T09:49:01Z</time>
      </trkpt>
      <trkpt lat="42.512538973242044" lon="2.636211980134249">
        <ele>535.11000000000001</ele>
        <time>2025-05-15T09:49:02Z</time>
      </trkpt>
      <trkpt lat="42.51259395852685" lon="2.636372996494174">
        <ele>536.07000000000005</ele>
        <time>2025-05-15T09:49:03Z</time>
      </trkpt>
      <trkpt lat="42.512645004317164" lon="2.636518003419042">
        <ele>536.54999999999995</ele>
        <time>2025-05-15T09:49:04Z</time>
      </trkpt>
      <trkpt lat="42.512692026793957" lon="2.63666502200067">
        <ele>537.50999999999999</ele>
        <time>2025-05-15T09:49:05Z</time>
      </trkpt>
      <trkpt lat="42.512692026793957" lon="2.636803993955255">
        <ele>537.99000000000001</ele>
        <time>2025-05-15T09:49:06Z</time>
      </trkpt>
      <trkpt lat="42.512642992660403" lon="2.636955035850406">
        <ele>538.48000000000002</ele>
        <time>2025-05-15T09:49:07Z</time>
      </trkpt>
      <trkpt lat="42.512575015425682" lon="2.637087972834706">
        <ele>538.96000000000004</ele>
        <time>2025-05-15T09:49:08Z</time>
      </trkpt>
      <trkpt lat="42.512488011270761" lon="2.637220993638039">
        <ele>538.96000000000004</ele>
        <time>2025-05-15T09:49:09Z</time>
      </trkpt>
      <trkpt lat="42.512393966317177" lon="2.637364994734526">
        <ele>538.96000000000004</ele>
        <time>2025-05-15T09:49:10Z</time>
      </trkpt>
      <trkpt lat="42.512297993525863" lon="2.637512013316155">
        <ele>538.96000000000004</ele>
        <time>2025-05-15T09:49:11Z</time>
      </trkpt>
      <trkpt lat="42.512182993814349" lon="2.637634975835681">
        <ele>538.96000000000004</ele>
        <time>2025-05-15T09:49:12Z</time>
      </trkpt>
      <trkpt lat="42.512065982446074" lon="2.637741006910801">
        <ele>538.96000000000004</ele>
        <time>2025-05-15T09:49:13Z</time>
      </trkpt>
      <trkpt lat="42.511942014098167" lon="2.637809989973903">
        <ele>538.96000000000004</ele>
        <time>2025-05-15T09:49:14Z</time>
      </trkpt>
      <trkpt lat="42.511812010779977" lon="2.637829016894102">
        <ele>538.96000000000004</ele>
        <time>2025-05-15T09:49:15Z</time>
      </trkpt>
      <trkpt lat="42.511688964441419" lon="2.637819964438677">
        <ele>538.96000000000004</ele>
        <time>2025-05-15T09:49:16Z</time>
      </trkpt>
      <trkpt lat="42.511573964729905" lon="2.637800015509129">
        <ele>539.44000000000005</ele>
        <time>2025-05-15T09:49:17Z</time>
      </trkpt>
      <trkpt lat="42.511457959190011" lon="2.637735977768898">
        <ele>539.91999999999996</ele>
        <time>2025-05-15T09:49:18Z</time>
      </trkpt>
      <trkpt lat="42.511344971135259" lon="2.637655008584261">
        <ele>539.91999999999996</ele>
        <time>2025-05-15T09:49:19Z</time>
      </trkpt>
      <trkpt lat="42.510430002585053" lon="2.636897033080459">
        <ele>541.84000000000003</ele>
        <time>2025-05-15T09:49:26Z</time>
      </trkpt>
      <trkpt lat="42.510278960689902" lon="2.636834001168609">
        <ele>542.32000000000005</ele>
        <time>2025-05-15T09:49:27Z</time>
      </trkpt>
      <trkpt lat="42.510118028149009" lon="2.636802988126874">
        <ele>542.32000000000005</ele>
        <time>2025-05-15T09:49:28Z</time>
      </trkpt>
      <trkpt lat="42.509041959419847" lon="2.636596960946918">
        <ele>544.72000000000003</ele>
        <time>2025-05-15T09:49:35Z</time>
      </trkpt>
      <trkpt lat="42.508921008557081" lon="2.636573994532228">
        <ele>544.72000000000003</ele>
        <time>2025-05-15T09:49:36Z</time>
      </trkpt>
      <trkpt lat="42.5088129658252" lon="2.636510962620378">
        <ele>544.72000000000003</ele>
        <time>2025-05-15T09:49:37Z</time>
      </trkpt>
      <trkpt lat="42.508701989427209" lon="2.636412978172302">
        <ele>544.72000000000003</ele>
        <time>2025-05-15T09:49:38Z</time>
      </trkpt>
      <trkpt lat="42.508593024685979" lon="2.636285992339253">
        <ele>545.20000000000005</ele>
        <time>2025-05-15T09:49:39Z</time>
      </trkpt>
      <trkpt lat="42.508265040814877" lon="2.635903023183346">
        <ele>546.16999999999996</ele>
        <time>2025-05-15T09:49:42Z</time>
      </trkpt>
      <trkpt lat="42.50816797837615" lon="2.635830016806722">
        <ele>546.16999999999996</ele>
        <time>2025-05-15T09:49:43Z</time>
      </trkpt>
      <trkpt lat="42.508065970614552" lon="2.635845020413399">
        <ele>546.64999999999998</ele>
        <time>2025-05-15T09:49:44Z</time>
      </trkpt>
      <trkpt lat="42.507949965074658" lon="2.635887013748288">
        <ele>547.13</ele>
        <time>2025-05-15T09:49:45Z</time>
      </trkpt>
      <trkpt lat="42.507817028090358" lon="2.63593596406281">
        <ele>547.61000000000001</ele>
        <time>2025-05-15T09:49:46Z</time>
      </trkpt>
      <trkpt lat="42.507670009508729" lon="2.635989021509886">
        <ele>548.09000000000003</ele>
        <time>2025-05-15T09:49:47Z</time>
      </trkpt>
      <trkpt lat="42.507509998977184" lon="2.636018022894859">
        <ele>548.57000000000005</ele>
        <time>2025-05-15T09:49:48Z</time>
      </trkpt>
      <trkpt lat="42.507355017587543" lon="2.636046018451452">
        <ele>549.04999999999995</ele>
        <time>2025-05-15T09:49:49Z</time>
      </trkpt>
      <trkpt lat="42.506913039833307" lon="2.636110978201032">
        <ele>550.97000000000003</ele>
        <time>2025-05-15T09:49:52Z</time>
      </trkpt>
      <trkpt lat="42.506760992109776" lon="2.636089017614722">
        <ele>551.45000000000005</ele>
        <time>2025-05-15T09:49:53Z</time>
      </trkpt>
      <trkpt lat="42.506624031811953" lon="2.636069990694523">
        <ele>551.92999999999995</ele>
        <time>2025-05-15T09:49:54Z</time>
      </trkpt>
      <trkpt lat="42.506502997130156" lon="2.636047024279833">
        <ele>552.40999999999997</ele>
        <time>2025-05-15T09:49:55Z</time>
      </trkpt>
      <trkpt lat="42.5063849799335" lon="2.635950967669487">
        <ele>552.40999999999997</ele>
        <time>2025-05-15T09:49:56Z</time>
      </trkpt>
      <trkpt lat="42.506264029070735" lon="2.635852983221412">
        <ele>552.89999999999998</ele>
        <time>2025-05-15T09:49:57Z</time>
      </trkpt>
      <trkpt lat="42.506150035187602" lon="2.63576103374362">
        <ele>552.89999999999998</ele>
        <time>2025-05-15T09:49:58Z</time>
      </trkpt>
      <trkpt lat="42.506034029647708" lon="2.635676963254809">
        <ele>553.38</ele>
        <time>2025-05-15T09:49:59Z</time>
      </trkpt>
      <trkpt lat="42.505923975259066" lon="2.635630024597049">
        <ele>553.86000000000001</ele>
        <time>2025-05-15T09:50:00Z</time>
      </trkpt>
      <trkpt lat="42.505809981375933" lon="2.635667994618416">
        <ele>554.34000000000003</ele>
        <time>2025-05-15T09:50:01Z</time>
      </trkpt>
      <trkpt lat="42.505747033283114" lon="2.635737983509898">
        <ele>554.34000000000003</ele>
        <time>2025-05-15T09:50:02Z</time>
      </trkpt>
      <trkpt lat="42.505724988877773" lon="2.635815013200045">
        <ele>554.34000000000003</ele>
        <time>2025-05-15T09:50:03Z</time>
      </trkpt>
      <trkpt lat="42.505735969170928" lon="2.635930012911558">
        <ele>554.82000000000005</ele>
        <time>2025-05-15T09:50:04Z</time>
      </trkpt>
      <trkpt lat="42.505765976384282" lon="2.636078959330916">
        <ele>555.29999999999995</ele>
        <time>2025-05-15T09:50:05Z</time>
      </trkpt>
      <trkpt lat="42.505801012739539" lon="2.63625699095428">
        <ele>556.25999999999999</ele>
        <time>2025-05-15T09:50:06Z</time>
      </trkpt>
      <trkpt lat="42.505842000246048" lon="2.636460000649095">
        <ele>556.74000000000001</ele>
        <time>2025-05-15T09:50:07Z</time>
      </trkpt>
      <trkpt lat="42.505923975259066" lon="2.636655969545245">
        <ele>557.22000000000003</ele>
        <time>2025-05-15T09:50:08Z</time>
      </trkpt>
      <trkpt lat="42.506102006882429" lon="2.637057965621352">
        <ele>558.17999999999995</ele>
        <time>2025-05-15T09:50:10Z</time>
      </trkpt>
      <trkpt lat="42.506280038505793" lon="2.63741796836257">
        <ele>559.13999999999999</ele>
        <time>2025-05-15T09:50:12Z</time>
      </trkpt>
      <trkpt lat="42.5064040068537" lon="2.637549983337522">
        <ele>559.13999999999999</ele>
        <time>2025-05-15T09:50:13Z</time>
      </trkpt>
      <trkpt lat="42.506668958812952" lon="2.637801021337509">
        <ele>559.62</ele>
        <time>2025-05-15T09:50:15Z</time>
      </trkpt>
      <trkpt lat="42.506772978231311" lon="2.637958014383912">
        <ele>559.62</ele>
        <time>2025-05-15T09:50:16Z</time>
      </trkpt>
      <trkpt lat="42.506841039285064" lon="2.638132022693753">
        <ele>559.62</ele>
        <time>2025-05-15T09:50:17Z</time>
      </trkpt>
      <trkpt lat="42.506896024569869" lon="2.638336038216949">
        <ele>560.11000000000001</ele>
        <time>2025-05-15T09:50:18Z</time>
      </trkpt>
      <trkpt lat="42.506958972662687" lon="2.638565031811595">
        <ele>560.11000000000001</ele>
        <time>2025-05-15T09:50:19Z</time>
      </trkpt>
      <trkpt lat="42.507445039227605" lon="2.640027003362775">
        <ele>560.59000000000003</ele>
        <time>2025-05-15T09:50:26Z</time>
      </trkpt>
      <trkpt lat="42.507480997592211" lon="2.640181984752417">
        <ele>560.59000000000003</ele>
        <time>2025-05-15T09:50:27Z</time>
      </trkpt>
      <trkpt lat="42.507489966228604" lon="2.640326991677284">
        <ele>560.59000000000003</ele>
        <time>2025-05-15T09:50:28Z</time>
      </trkpt>
      <trkpt lat="42.507476974278688" lon="2.640431011095643">
        <ele>560.59000000000003</ele>
        <time>2025-05-15T09:50:29Z</time>
      </trkpt>
      <trkpt lat="42.507408997043967" lon="2.640566965565085">
        <ele>560.59000000000003</ele>
        <time>2025-05-15T09:50:30Z</time>
      </trkpt>
      <trkpt lat="42.507339008152485" lon="2.640707027167082">
        <ele>560.59000000000003</ele>
        <time>2025-05-15T09:50:31Z</time>
      </trkpt>
      <trkpt lat="42.507267007604241" lon="2.64085203409195">
        <ele>560.11000000000001</ele>
        <time>2025-05-15T09:50:32Z</time>
      </trkpt>
      <trkpt lat="42.507215961813927" lon="2.640986982733011">
        <ele>560.11000000000001</ele>
        <time>2025-05-15T09:50:33Z</time>
      </trkpt>
      <trkpt lat="42.507203975692391" lon="2.641109023243189">
        <ele>560.59000000000003</ele>
        <time>2025-05-15T09:50:34Z</time>
      </trkpt>
      <trkpt lat="42.507229959592223" lon="2.641200972720981">
        <ele>561.07000000000005</ele>
        <time>2025-05-15T09:50:35Z</time>
      </trkpt>
      <trkpt lat="42.50728402286768" lon="2.641268027946353">
        <ele>562.02999999999997</ele>
        <time>2025-05-15T09:50:36Z</time>
      </trkpt>
      <trkpt lat="42.507377984002233" lon="2.641319995746017">
        <ele>562.99000000000001</ele>
        <time>2025-05-15T09:50:37Z</time>
      </trkpt>
      <trkpt lat="42.507482003420591" lon="2.641379004344344">
        <ele>563.95000000000005</ele>
        <time>2025-05-15T09:50:38Z</time>
      </trkpt>
      <trkpt lat="42.507588034495711" lon="2.641439018771052">
        <ele>563.95000000000005</ele>
        <time>2025-05-15T09:50:39Z</time>
      </trkpt>
      <trkpt lat="42.507674032822251" lon="2.641572039574385">
        <ele>563.95000000000005</ele>
        <time>2025-05-15T09:50:40Z</time>
      </trkpt>
      <trkpt lat="42.507729018107057" lon="2.641704976558685">
        <ele>563.95000000000005</ele>
        <time>2025-05-15T09:50:41Z</time>
      </trkpt>
      <trkpt lat="42.507790038362145" lon="2.641849983483553">
        <ele>563.47000000000003</ele>
        <time>2025-05-15T09:50:42Z</time>
      </trkpt>
      <trkpt lat="42.50786597840488" lon="2.641991972923279">
        <ele>562.99000000000001</ele>
        <time>2025-05-15T09:50:43Z</time>
      </trkpt>
      <trkpt lat="42.50799598172307" lon="2.642076965421438">
        <ele>562.99000000000001</ele>
        <time>2025-05-15T09:50:44Z</time>
      </trkpt>
      <trkpt lat="42.508135037496686" lon="2.642168998718262">
        <ele>562.02999999999997</ele>
        <time>2025-05-15T09:50:45Z</time>
      </trkpt>
      <trkpt lat="42.50842597335577" lon="2.642360022291541">
        <ele>560.11000000000001</ele>
        <time>2025-05-15T09:50:47Z</time>
      </trkpt>
      <trkpt lat="42.508563017472625" lon="2.642450965940952">
        <ele>559.62</ele>
        <time>2025-05-15T09:50:48Z</time>
      </trkpt>
      <trkpt lat="42.508682040497661" lon="2.642529001459479">
        <ele>558.65999999999997</ele>
        <time>2025-05-15T09:50:49Z</time>
      </trkpt>
      <trkpt lat="42.508795028552413" lon="2.642608964815736">
        <ele>557.22000000000003</ele>
        <time>2025-05-15T09:50:50Z</time>
      </trkpt>
      <trkpt lat="42.508900975808501" lon="2.642737962305546">
        <ele>555.77999999999997</ele>
        <time>2025-05-15T09:50:51Z</time>
      </trkpt>
      <trkpt lat="42.509011030197144" lon="2.642886992543936">
        <ele>554.82000000000005</ele>
        <time>2025-05-15T09:50:52Z</time>
      </trkpt>
      <trkpt lat="42.50911102630198" lon="2.643053038045764">
        <ele>554.34000000000003</ele>
        <time>2025-05-15T09:50:53Z</time>
      </trkpt>
      <trkpt lat="42.509295009076595" lon="2.643359983339906">
        <ele>552.89999999999998</ele>
        <time>2025-05-15T09:50:55Z</time>
      </trkpt>
      <trkpt lat="42.509345971047878" lon="2.643532985821366">
        <ele>552.40999999999997</ele>
        <time>2025-05-15T09:50:56Z</time>
      </trkpt>
      <trkpt lat="42.509415037930012" lon="2.643893994390965">
        <ele>551.45000000000005</ele>
        <time>2025-05-15T09:50:58Z</time>
      </trkpt>
      <trkpt lat="42.509425012394786" lon="2.644119970500469">
        <ele>550.97000000000003</ele>
        <time>2025-05-15T09:50:59Z</time>
      </trkpt>
      <trkpt lat="42.509435992687941" lon="2.644359022378922">
        <ele>550.49000000000001</ele>
        <time>2025-05-15T09:51:00Z</time>
      </trkpt>
      <trkpt lat="42.509446972981095" lon="2.644605031237006">
        <ele>550.00999999999999</ele>
        <time>2025-05-15T09:51:01Z</time>
      </trkpt>
      <trkpt lat="42.509450996294618" lon="2.644851040095091">
        <ele>550.00999999999999</ele>
        <time>2025-05-15T09:51:02Z</time>
      </trkpt>
      <trkpt lat="42.509450996294618" lon="2.646905025467277">
        <ele>549.04999999999995</ele>
        <time>2025-05-15T09:51:11Z</time>
      </trkpt>
      <trkpt lat="42.509433981031179" lon="2.647301992401481">
        <ele>548.09000000000003</ele>
        <time>2025-05-15T09:51:13Z</time>
      </trkpt>
      <trkpt lat="42.509390981867909" lon="2.647506007924676">
        <ele>548.09000000000003</ele>
        <time>2025-05-15T09:51:14Z</time>
      </trkpt>
      <trkpt lat="42.509325016289949" lon="2.647714968770742">
        <ele>548.09000000000003</ele>
        <time>2025-05-15T09:51:15Z</time>
      </trkpt>
      <trkpt lat="42.50924002379179" lon="2.647913033142686">
        <ele>547.61000000000001</ele>
        <time>2025-05-15T09:51:16Z</time>
      </trkpt>
      <trkpt lat="42.509140027686954" lon="2.648113025352359">
        <ele>547.13</ele>
        <time>2025-05-15T09:51:17Z</time>
      </trkpt>
      <trkpt lat="42.509035002440214" lon="2.648321986198425">
        <ele>546.64999999999998</ele>
        <time>2025-05-15T09:51:18Z</time>
      </trkpt>
      <trkpt lat="42.508580032736063" lon="2.649076022207737">
        <ele>543.75999999999999</ele>
        <time>2025-05-15T09:51:22Z</time>
      </trkpt>
      <trkpt lat="42.508431002497673" lon="2.649203008040786">
        <ele>542.79999999999995</ele>
        <time>2025-05-15T09:51:23Z</time>
      </trkpt>
      <trkpt lat="42.508006962016225" lon="2.649540966376662">
        <ele>540.39999999999998</ele>
        <time>2025-05-15T09:51:26Z</time>
      </trkpt>
      <trkpt lat="42.507868995890021" lon="2.649560999125242">
        <ele>539.44000000000005</ele>
        <time>2025-05-15T09:51:27Z</time>
      </trkpt>
      <trkpt lat="42.507732035592198" lon="2.649572985246778">
        <ele>538.48000000000002</ele>
        <time>2025-05-15T09:51:28Z</time>
      </trkpt>
      <trkpt lat="42.50758602283895" lon="2.649585977196693">
        <ele>537.50999999999999</ele>
        <time>2025-05-15T09:51:29Z</time>
      </trkpt>
      <trkpt lat="42.507437998428941" lon="2.649634005501866">
        <ele>536.07000000000005</ele>
        <time>2025-05-15T09:51:30Z</time>
      </trkpt>
      <trkpt lat="42.507300032302737" lon="2.64972603879869">
        <ele>534.14999999999998</ele>
        <time>2025-05-15T09:51:31Z</time>
      </trkpt>
      <trkpt lat="42.507176985964179" lon="2.649808013811708">
        <ele>532.71000000000004</ele>
        <time>2025-05-15T09:51:32Z</time>
      </trkpt>
      <trkpt lat="42.507039019837976" lon="2.649860987439752">
        <ele>531.26999999999998</ele>
        <time>2025-05-15T09:51:33Z</time>
      </trkpt>
      <trkpt lat="42.506929971277714" lon="2.649903986603022">
        <ele>529.82000000000005</ele>
        <time>2025-05-15T09:51:34Z</time>
      </trkpt>
      <trkpt lat="42.506827963516116" lon="2.649942962452769">
        <ele>528.86000000000001</ele>
        <time>2025-05-15T09:51:35Z</time>
      </trkpt>
      <trkpt lat="42.506765015423298" lon="2.650014963001013">
        <ele>527.41999999999996</ele>
        <time>2025-05-15T09:51:36Z</time>
      </trkpt>
      <trkpt lat="42.506712963804603" lon="2.650129962712526">
        <ele>525.5</ele>
        <time>2025-05-15T09:51:37Z</time>
      </trkpt>
      <trkpt lat="42.506649009883404" lon="2.650269018486142">
        <ele>524.53999999999996</ele>
        <time>2025-05-15T09:51:38Z</time>
      </trkpt>
      <trkpt lat="42.506583966314793" lon="2.650412013754249">
        <ele>523.09000000000003</ele>
        <time>2025-05-15T09:51:39Z</time>
      </trkpt>
      <trkpt lat="42.506581032648683" lon="2.650575041770935">
        <ele>522.13</ele>
        <time>2025-05-15T09:51:40Z</time>
      </trkpt>
      <trkpt lat="42.506586983799934" lon="2.650755001232028">
        <ele>521.16999999999996</ele>
        <time>2025-05-15T09:51:41Z</time>
      </trkpt>
      <trkpt lat="42.506593018770218" lon="2.65093102119863">
        <ele>520.21000000000004</ele>
        <time>2025-05-15T09:51:42Z</time>
      </trkpt>
      <trkpt lat="42.506583966314793" lon="2.651119027286768">
        <ele>518.76999999999998</ele>
        <time>2025-05-15T09:51:43Z</time>
      </trkpt>
      <trkpt lat="42.506545996293426" lon="2.651308039203286">
        <ele>517.33000000000004</ele>
        <time>2025-05-15T09:51:44Z</time>
      </trkpt>
      <trkpt lat="42.506493022665381" lon="2.651487998664379">
        <ele>516.37</ele>
        <time>2025-05-15T09:51:45Z</time>
      </trkpt>
      <trkpt lat="42.506432002410293" lon="2.651657983660698">
        <ele>514.91999999999996</ele>
        <time>2025-05-15T09:51:46Z</time>
      </trkpt>
      <trkpt lat="42.50631901435554" lon="2.651782035827637">
        <ele>513.96000000000004</ele>
        <time>2025-05-15T09:51:47Z</time>
      </trkpt>
      <trkpt lat="42.506194962188601" lon="2.651906004175544">
        <ele>512.51999999999998</ele>
        <time>2025-05-15T09:51:48Z</time>
      </trkpt>
      <trkpt lat="42.506069988012314" lon="2.652050005272031">
        <ele>511.07999999999998</ele>
        <time>2025-05-15T09:51:49Z</time>
      </trkpt>
      <trkpt lat="42.505951970815659" lon="2.652205992490053">
        <ele>510.12</ele>
        <time>2025-05-15T09:51:50Z</time>
      </trkpt>
      <trkpt lat="42.505833031609654" lon="2.652366003021598">
        <ele>508.67000000000002</ele>
        <time>2025-05-15T09:51:51Z</time>
      </trkpt>
      <trkpt lat="42.505743009969592" lon="2.652557026594877">
        <ele>507.23000000000002</ele>
        <time>2025-05-15T09:51:52Z</time>
      </trkpt>
      <trkpt lat="42.505664974451065" lon="2.652755007147789">
        <ele>505.79000000000002</ele>
        <time>2025-05-15T09:51:53Z</time>
      </trkpt>
      <trkpt lat="42.505405973643064" lon="2.653356995433569">
        <ele>502.43000000000001</ele>
        <time>2025-05-15T09:51:56Z</time>
      </trkpt>
      <trkpt lat="42.50528896227479" lon="2.65346503816545">
        <ele>501.45999999999998</ele>
        <time>2025-05-15T09:51:57Z</time>
      </trkpt>
      <trkpt lat="42.505205981433392" lon="2.653540978208184">
        <ele>500.5</ele>
        <time>2025-05-15T09:51:58Z</time>
      </trkpt>
      <trkpt lat="42.505140015855432" lon="2.653537038713694">
        <ele>499.54000000000002</ele>
        <time>2025-05-15T09:51:59Z</time>
      </trkpt>
      <trkpt lat="42.505083018913865" lon="2.653500996530056">
        <ele>498.57999999999998</ele>
        <time>2025-05-15T09:52:00Z</time>
      </trkpt>
      <trkpt lat="42.505016969516873" lon="2.653460009023547">
        <ele>497.62</ele>
        <time>2025-05-15T09:52:01Z</time>
      </trkpt>
      <trkpt lat="42.504934994503856" lon="2.653408963233233">
        <ele>497.13999999999999</ele>
        <time>2025-05-15T09:52:02Z</time>
      </trkpt>
      <trkpt lat="42.504838015884161" lon="2.653349032625556">
        <ele>496.18000000000001</ele>
        <time>2025-05-15T09:52:03Z</time>
      </trkpt>
      <trkpt lat="42.504738019779325" lon="2.653286000713706">
        <ele>495.69999999999999</ele>
        <time>2025-05-15T09:52:04Z</time>
      </trkpt>
      <trkpt lat="42.504637017846107" lon="2.653222968801856">
        <ele>495.22000000000003</ele>
        <time>2025-05-15T09:52:05Z</time>
      </trkpt>
      <trkpt lat="42.504542972892523" lon="2.653163960203528">
        <ele>494.74000000000001</ele>
        <time>2025-05-15T09:52:06Z</time>
      </trkpt>
      <trkpt lat="42.504480024799705" lon="2.653087014332414">
        <ele>493.76999999999998</ele>
        <time>2025-05-15T09:52:07Z</time>
      </trkpt>
      <trkpt lat="42.504439959302545" lon="2.652958016842604">
        <ele>493.29000000000002</ele>
        <time>2025-05-15T09:52:08Z</time>
      </trkpt>
      <trkpt lat="42.504396038129926" lon="2.652813009917736">
        <ele>492.32999999999998</ele>
        <time>2025-05-15T09:52:09Z</time>
      </trkpt>
      <trkpt lat="42.504297969862819" lon="2.652495000511408">
        <ele>489.44999999999999</ele>
        <time>2025-05-15T09:52:11Z</time>
      </trkpt>
      <trkpt lat="42.504237033426762" lon="2.652297019958496">
        <ele>488.49000000000001</ele>
        <time>2025-05-15T09:52:12Z</time>
      </trkpt>
      <trkpt lat="42.504163021221757" lon="2.652182020246983">
        <ele>487.52999999999997</ele>
        <time>2025-05-15T09:52:13Z</time>
      </trkpt>
      <trkpt lat="42.503694975748658" lon="2.651413986459374">
        <ele>483.68000000000001</ele>
        <time>2025-05-15T09:52:18Z</time>
      </trkpt>
      <trkpt lat="42.503644013777375" lon="2.651250036433339">
        <ele>482.72000000000003</ele>
        <time>2025-05-15T09:52:19Z</time>
      </trkpt>
      <trkpt lat="42.503597997128963" lon="2.651097988709807">
        <ele>482.24000000000001</ele>
        <time>2025-05-15T09:52:20Z</time>
      </trkpt>
      <trkpt lat="42.503554997965693" lon="2.650960022583604">
        <ele>481.27999999999997</ele>
        <time>2025-05-15T09:52:21Z</time>
      </trkpt>
      <trkpt lat="42.503467993810773" lon="2.650890033692122">
        <ele>480.31999999999999</ele>
        <time>2025-05-15T09:52:22Z</time>
      </trkpt>
      <trkpt lat="42.503379983827472" lon="2.650856003165245">
        <ele>479.83999999999997</ele>
        <time>2025-05-15T09:52:23Z</time>
      </trkpt>
      <trkpt lat="42.503270013257861" lon="2.650846028700471">
        <ele>478.87</ele>
        <time>2025-05-15T09:52:24Z</time>
      </trkpt>
      <trkpt lat="42.503186026588082" lon="2.650837982073426">
        <ele>477.91000000000003</ele>
        <time>2025-05-15T09:52:25Z</time>
      </trkpt>
      <trkpt lat="42.503050994127989" lon="2.650742009282112">
        <ele>476.94999999999999</ele>
        <time>2025-05-15T09:52:26Z</time>
      </trkpt>
      <trkpt lat="42.502969019114971" lon="2.650618962943554">
        <ele>476.47000000000003</ele>
        <time>2025-05-15T09:52:27Z</time>
      </trkpt>
      <trkpt lat="42.502872040495276" lon="2.65045803040266">
        <ele>475.50999999999999</ele>
        <time>2025-05-15T09:52:28Z</time>
      </trkpt>
      <trkpt lat="42.502779001370072" lon="2.650303971022368">
        <ele>474.06999999999999</ele>
        <time>2025-05-15T09:52:29Z</time>
      </trkpt>
      <trkpt lat="42.502680011093616" lon="2.650203974917531">
        <ele>472.63</ele>
        <time>2025-05-15T09:52:30Z</time>
      </trkpt>
      <trkpt lat="42.502572974190116" lon="2.650155024603009">
        <ele>471.66000000000003</ele>
        <time>2025-05-15T09:52:31Z</time>
      </trkpt>
      <trkpt lat="42.502443976700306" lon="2.650125017389655">
        <ele>470.22000000000003</ele>
        <time>2025-05-15T09:52:32Z</time>
      </trkpt>
      <trkpt lat="42.502308022230864" lon="2.65009400434792">
        <ele>468.77999999999997</ele>
        <time>2025-05-15T09:52:33Z</time>
      </trkpt>
      <trkpt lat="42.502050027251244" lon="2.650056034326553">
        <ele>466.38</ele>
        <time>2025-05-15T09:52:35Z</time>
      </trkpt>
      <trkpt lat="42.501950031146407" lon="2.650084029883146">
        <ele>464.44999999999999</ele>
        <time>2025-05-15T09:52:36Z</time>
      </trkpt>
      <trkpt lat="42.501885993406177" lon="2.650142032653093">
        <ele>463.00999999999999</ele>
        <time>2025-05-15T09:52:37Z</time>
      </trkpt>
      <trkpt lat="42.5018519628793" lon="2.650203974917531">
        <ele>462.05000000000001</ele>
        <time>2025-05-15T09:52:38Z</time>
      </trkpt>
      <trkpt lat="42.501841988414526" lon="2.650302965193987">
        <ele>461.56999999999999</ele>
        <time>2025-05-15T09:52:39Z</time>
      </trkpt>
      <trkpt lat="42.501880964264274" lon="2.650422994047403">
        <ele>461.56999999999999</ele>
        <time>2025-05-15T09:52:40Z</time>
      </trkpt>
      <trkpt lat="42.501966962590814" lon="2.650488959625363">
        <ele>460.61000000000001</ele>
        <time>2025-05-15T09:52:41Z</time>
      </trkpt>
      <trkpt lat="42.502079028636217" lon="2.650575963780284">
        <ele>460.61000000000001</ele>
        <time>2025-05-15T09:52:42Z</time>
      </trkpt>
      <trkpt lat="42.502171983942389" lon="2.650680989027023">
        <ele>460.13</ele>
        <time>2025-05-15T09:52:43Z</time>
      </trkpt>
      <trkpt lat="42.502241972833872" lon="2.650774028152227">
        <ele>459.64999999999998</ele>
        <time>2025-05-15T09:52:44Z</time>
      </trkpt>
      <trkpt lat="42.502286983653903" lon="2.650913000106812">
        <ele>459.17000000000002</ele>
        <time>2025-05-15T09:52:45Z</time>
      </trkpt>
      <trkpt lat="42.502343980595469" lon="2.651087008416653">
        <ele>459.17000000000002</ele>
        <time>2025-05-15T09:52:46Z</time>
      </trkpt>
      <trkpt lat="42.502601975575089" lon="2.65187599696219">
        <ele>460.61000000000001</ele>
        <time>2025-05-15T09:52:51Z</time>
      </trkpt>
      <trkpt lat="42.502625025808811" lon="2.65200600028038">
        <ele>461.56999999999999</ele>
        <time>2025-05-15T09:52:52Z</time>
      </trkpt>
      <trkpt lat="42.502614967525005" lon="2.652179002761841">
        <ele>462.05000000000001</ele>
        <time>2025-05-15T09:52:53Z</time>
      </trkpt>
      <trkpt lat="42.502552019432187" lon="2.653327994048595">
        <ele>465.42000000000002</ele>
        <time>2025-05-15T09:52:58Z</time>
      </trkpt>
      <trkpt lat="42.502541961148381" lon="2.653498984873295">
        <ele>465.89999999999998</ele>
        <time>2025-05-15T09:52:59Z</time>
      </trkpt>
      <trkpt lat="42.502475995570421" lon="2.653629994019866">
        <ele>465.42000000000002</ele>
        <time>2025-05-15T09:53:00Z</time>
      </trkpt>
      <trkpt lat="42.502406006678939" lon="2.653738958761096">
        <ele>465.42000000000002</ele>
        <time>2025-05-15T09:53:01Z</time>
      </trkpt>
      <trkpt lat="42.502292012795806" lon="2.653840966522694">
        <ele>464.93000000000001</ele>
        <time>2025-05-15T09:53:02Z</time>
      </trkpt>
      <trkpt lat="42.502164021134377" lon="2.653955966234207">
        <ele>464.44999999999999</ele>
        <time>2025-05-15T09:53:03Z</time>
      </trkpt>
      <trkpt lat="42.502034017816186" lon="2.654070965945721">
        <ele>463.97000000000003</ele>
        <time>2025-05-15T09:53:04Z</time>
      </trkpt>
      <trkpt lat="42.501945002004504" lon="2.654230976477265">
        <ele>463.97000000000003</ele>
        <time>2025-05-15T09:53:05Z</time>
      </trkpt>
      <trkpt lat="42.501877024769783" lon="2.654373971745372">
        <ele>463.49000000000001</ele>
        <time>2025-05-15T09:53:06Z</time>
      </trkpt>
      <trkpt lat="42.501877024769783" lon="2.65451998449862">
        <ele>463.00999999999999</ele>
        <time>2025-05-15T09:53:07Z</time>
      </trkpt>
      <trkpt lat="42.501896973699331" lon="2.654668008908629">
        <ele>463.00999999999999</ele>
        <time>2025-05-15T09:53:08Z</time>
      </trkpt>
      <trkpt lat="42.501976015046239" lon="2.654790971428156">
        <ele>463.00999999999999</ele>
        <time>2025-05-15T09:53:09Z</time>
      </trkpt>
      <trkpt lat="42.502049021422863" lon="2.654919968917966">
        <ele>462.52999999999997</ele>
        <time>2025-05-15T09:53:10Z</time>
      </trkpt>
      <trkpt lat="42.502114987000823" lon="2.655062964186072">
        <ele>462.52999999999997</ele>
        <time>2025-05-15T09:53:11Z</time>
      </trkpt>
      <trkpt lat="42.50215002335608" lon="2.655197996646166">
        <ele>463.00999999999999</ele>
        <time>2025-05-15T09:53:12Z</time>
      </trkpt>
      <trkpt lat="42.502127978950739" lon="2.655360018834472">
        <ele>463.00999999999999</ele>
        <time>2025-05-15T09:53:13Z</time>
      </trkpt>
      <trkpt lat="42.502093026414514" lon="2.65552899800241">
        <ele>463.00999999999999</ele>
        <time>2025-05-15T09:53:14Z</time>
      </trkpt>
      <trkpt lat="42.502026977017522" lon="2.655713986605406">
        <ele>462.52999999999997</ele>
        <time>2025-05-15T09:53:15Z</time>
      </trkpt>
      <trkpt lat="42.50195799395442" lon="2.655907021835446">
        <ele>462.05000000000001</ele>
        <time>2025-05-15T09:53:16Z</time>
      </trkpt>
      <trkpt lat="42.501897979527712" lon="2.656073989346623">
        <ele>461.08999999999997</ele>
        <time>2025-05-15T09:53:17Z</time>
      </trkpt>
      <trkpt lat="42.501797983422875" lon="2.65619401820004">
        <ele>460.13</ele>
        <time>2025-05-15T09:53:18Z</time>
      </trkpt>
      <trkpt lat="42.501710979267955" lon="2.656298959627748">
        <ele>459.17000000000002</ele>
        <time>2025-05-15T09:53:19Z</time>
      </trkpt>
      <trkpt lat="42.501620035618544" lon="2.656343970447779">
        <ele>458.69</ele>
        <time>2025-05-15T09:53:20Z</time>
      </trkpt>
      <trkpt lat="42.501491960138083" lon="2.656369032338262">
        <ele>458.20999999999998</ele>
        <time>2025-05-15T09:53:21Z</time>
      </trkpt>
      <trkpt lat="42.501017963513732" lon="2.656456958502531">
        <ele>456.27999999999997</ele>
        <time>2025-05-15T09:53:24Z</time>
      </trkpt>
      <trkpt lat="42.500525023788214" lon="2.656395016238093">
        <ele>455.80000000000001</ele>
        <time>2025-05-15T09:53:27Z</time>
      </trkpt>
      <trkpt lat="42.500242972746491" lon="2.65623701736331">
        <ele>455.80000000000001</ele>
        <time>2025-05-15T09:53:29Z</time>
      </trkpt>
      <trkpt lat="42.500113975256681" lon="2.656164010986686">
        <ele>455.80000000000001</ele>
        <time>2025-05-15T09:53:30Z</time>
      </trkpt>
      <trkpt lat="42.499995036050677" lon="2.656097039580345">
        <ele>455.80000000000001</ele>
        <time>2025-05-15T09:53:31Z</time>
      </trkpt>
      <trkpt lat="42.499880036339164" lon="2.656033001840115">
        <ele>455.80000000000001</ele>
        <time>2025-05-15T09:53:32Z</time>
      </trkpt>
      <trkpt lat="42.499755984172225" lon="2.656041970476508">
        <ele>455.80000000000001</ele>
        <time>2025-05-15T09:53:33Z</time>
      </trkpt>
      <trkpt lat="42.499618018046021" lon="2.656097039580345">
        <ele>455.80000000000001</ele>
        <time>2025-05-15T09:53:34Z</time>
      </trkpt>
      <trkpt lat="42.49946597032249" lon="2.656157976016402">
        <ele>455.31999999999999</ele>
        <time>2025-05-15T09:53:35Z</time>
      </trkpt>
      <trkpt lat="42.499311994761229" lon="2.656220002099872">
        <ele>455.31999999999999</ele>
        <time>2025-05-15T09:53:36Z</time>
      </trkpt>
      <trkpt lat="42.499161036685109" lon="2.65628001652658">
        <ele>455.80000000000001</ele>
        <time>2025-05-15T09:53:37Z</time>
      </trkpt>
      <trkpt lat="42.499018963426352" lon="2.656337013468146">
        <ele>455.80000000000001</ele>
        <time>2025-05-15T09:53:38Z</time>
      </trkpt>
      <trkpt lat="42.498900024220347" lon="2.656437009572983">
        <ele>455.31999999999999</ele>
        <time>2025-05-15T09:53:39Z</time>
      </trkpt>
      <trkpt lat="42.49879902228713" lon="2.656543962657452">
        <ele>454.83999999999997</ele>
        <time>2025-05-15T09:53:40Z</time>
      </trkpt>
      <trkpt lat="42.498698020353913" lon="2.656652005389333">
        <ele>454.83999999999997</ele>
        <time>2025-05-15T09:53:41Z</time>
      </trkpt>
      <trkpt lat="42.498615039512515" lon="2.656739009544253">
        <ele>454.36000000000001</ele>
        <time>2025-05-15T09:53:42Z</time>
      </trkpt>
      <trkpt lat="42.498587965965271" lon="2.656845962628722">
        <ele>453.88</ele>
        <time>2025-05-15T09:53:43Z</time>
      </trkpt>
      <trkpt lat="42.498573968186975" lon="2.656922992318869">
        <ele>453.39999999999998</ele>
        <time>2025-05-15T09:53:44Z</time>
      </trkpt>
      <trkpt lat="42.498588971793652" lon="2.657042015343905">
        <ele>452.92000000000002</ele>
        <time>2025-05-15T09:53:45Z</time>
      </trkpt>
      <trkpt lat="42.498634988442063" lon="2.657112004235387">
        <ele>452.44</ele>
        <time>2025-05-15T09:53:46Z</time>
      </trkpt>
      <trkpt lat="42.498731967061758" lon="2.657181993126869">
        <ele>451.48000000000002</ele>
        <time>2025-05-15T09:53:47Z</time>
      </trkpt>
      <trkpt lat="42.498829029500484" lon="2.657252987846732">
        <ele>449.55000000000001</ele>
        <time>2025-05-15T09:53:48Z</time>
      </trkpt>
      <trkpt lat="42.498916033655405" lon="2.657316019758582">
        <ele>447.63</ele>
        <time>2025-05-15T09:53:49Z</time>
      </trkpt>
      <trkpt lat="42.499065985903144" lon="2.657424984499812">
        <ele>445.23000000000002</ele>
        <time>2025-05-15T09:53:50Z</time>
      </trkpt>
      <trkpt lat="42.499118959531188" lon="2.657559011131525">
        <ele>443.31</ele>
        <time>2025-05-15T09:53:51Z</time>
      </trkpt>
      <trkpt lat="42.499163970351219" lon="2.657738970592618">
        <ele>440.89999999999998</ele>
        <time>2025-05-15T09:53:52Z</time>
      </trkpt>
      <trkpt lat="42.499181991443038" lon="2.657889006659389">
        <ele>438.98000000000002</ele>
        <time>2025-05-15T09:53:53Z</time>
      </trkpt>
      <trkpt lat="42.499200012534857" lon="2.658041976392269">
        <ele>437.06</ele>
        <time>2025-05-15T09:53:54Z</time>
      </trkpt>
      <trkpt lat="42.499225996434689" lon="2.658187989145517">
        <ele>436.10000000000002</ele>
        <time>2025-05-15T09:53:55Z</time>
      </trkpt>
      <trkpt lat="42.499322975054383" lon="2.658308017998934">
        <ele>436.10000000000002</ele>
        <time>2025-05-15T09:53:56Z</time>
      </trkpt>
      <trkpt lat="42.499416014179587" lon="2.658423017710447">
        <ele>435.61000000000001</ele>
        <time>2025-05-15T09:53:57Z</time>
      </trkpt>
      <trkpt lat="42.499498995020986" lon="2.658528964966536">
        <ele>435.61000000000001</ele>
        <time>2025-05-15T09:53:58Z</time>
      </trkpt>
      <trkpt lat="42.49955297447741" lon="2.65866500325501">
        <ele>435.61000000000001</ele>
        <time>2025-05-15T09:53:59Z</time>
      </trkpt>
      <trkpt lat="42.499593961983919" lon="2.65885996632278">
        <ele>436.10000000000002</ele>
        <time>2025-05-15T09:54:00Z</time>
      </trkpt>
      <trkpt lat="42.499612988904119" lon="2.659047972410917">
        <ele>435.61000000000001</ele>
        <time>2025-05-15T09:54:01Z</time>
      </trkpt>
      <trkpt lat="42.499632015824318" lon="2.659230027347803">
        <ele>435.61000000000001</ele>
        <time>2025-05-15T09:54:02Z</time>
      </trkpt>
      <trkpt lat="42.499649031087756" lon="2.659401018172503">
        <ele>435.61000000000001</ele>
        <time>2025-05-15T09:54:03Z</time>
      </trkpt>
      <trkpt lat="42.499652970582247" lon="2.659621965140104">
        <ele>435.61000000000001</ele>
        <time>2025-05-15T09:54:04Z</time>
      </trkpt>
      <trkpt lat="42.499602008610964" lon="2.659807037562132">
        <ele>435.61000000000001</ele>
        <time>2025-05-15T09:54:05Z</time>
      </trkpt>
      <trkpt lat="42.4995500408113" lon="2.65999898314476">
        <ele>435.61000000000001</ele>
        <time>2025-05-15T09:54:06Z</time>
      </trkpt>
      <trkpt lat="42.499470999464393" lon="2.660337025299668">
        <ele>435.13</ele>
        <time>2025-05-15T09:54:08Z</time>
      </trkpt>
      <trkpt lat="42.499464964494109" lon="2.66051103360951">
        <ele>435.13</ele>
        <time>2025-05-15T09:54:09Z</time>
      </trkpt>
      <trkpt lat="42.499459013342857" lon="2.660680012777448">
        <ele>434.64999999999998</ele>
        <time>2025-05-15T09:54:10Z</time>
      </trkpt>
      <trkpt lat="42.499445015564561" lon="2.660872964188457">
        <ele>434.64999999999998</ele>
        <time>2025-05-15T09:54:11Z</time>
      </trkpt>
      <trkpt lat="42.499365974217653" lon="2.661024006083608">
        <ele>434.17000000000002</ele>
        <time>2025-05-15T09:54:12Z</time>
      </trkpt>
      <trkpt lat="42.499276958405972" lon="2.661196002736688">
        <ele>434.17000000000002</ele>
        <time>2025-05-15T09:54:13Z</time>
      </trkpt>
      <trkpt lat="42.49918601475656" lon="2.66137202270329">
        <ele>433.20999999999998</ele>
        <time>2025-05-15T09:54:14Z</time>
      </trkpt>
      <trkpt lat="42.499119965359569" lon="2.661541001871228">
        <ele>432.25</ele>
        <time>2025-05-15T09:54:15Z</time>
      </trkpt>
      <trkpt lat="42.499086018651724" lon="2.661739988252521">
        <ele>431.76999999999998</ele>
        <time>2025-05-15T09:54:16Z</time>
      </trkpt>
      <trkpt lat="42.499052993953228" lon="2.661926988512278">
        <ele>430.81</ele>
        <time>2025-05-15T09:54:17Z</time>
      </trkpt>
      <trkpt lat="42.499019969254732" lon="2.662108037620783">
        <ele>429.85000000000002</ele>
        <time>2025-05-15T09:54:18Z</time>
      </trkpt>
      <trkpt lat="42.498916033655405" lon="2.66231800429523">
        <ele>429.37</ele>
        <time>2025-05-15T09:54:19Z</time>
      </trkpt>
      <trkpt lat="42.498837998136878" lon="2.662405008450151">
        <ele>428.39999999999998</ele>
        <time>2025-05-15T09:54:20Z</time>
      </trkpt>
      <trkpt lat="42.498696008697152" lon="2.662538029253483">
        <ele>427.44</ele>
        <time>2025-05-15T09:54:21Z</time>
      </trkpt>
      <trkpt lat="42.49854102730751" lon="2.662626039236784">
        <ele>426.95999999999998</ele>
        <time>2025-05-15T09:54:22Z</time>
      </trkpt>
      <trkpt lat="42.498381016775966" lon="2.662715977057815">
        <ele>426.48000000000002</ele>
        <time>2025-05-15T09:54:23Z</time>
      </trkpt>
      <trkpt lat="42.498049009591341" lon="2.662903983145952">
        <ele>425.51999999999998</ele>
        <time>2025-05-15T09:54:25Z</time>
      </trkpt>
      <trkpt lat="42.497748015448451" lon="2.663075979799032">
        <ele>424.56</ele>
        <time>2025-05-15T09:54:27Z</time>
      </trkpt>
      <trkpt lat="42.497616000473499" lon="2.66317798756063">
        <ele>424.56</ele>
        <time>2025-05-15T09:54:28Z</time>
      </trkpt>
      <trkpt lat="42.497502006590366" lon="2.663303967565298">
        <ele>424.07999999999998</ele>
        <time>2025-05-15T09:54:29Z</time>
      </trkpt>
      <trkpt lat="42.497406033799052" lon="2.66343698836863">
        <ele>423.60000000000002</ele>
        <time>2025-05-15T09:54:30Z</time>
      </trkpt>
      <trkpt lat="42.497355993837118" lon="2.663601022213697">
        <ele>423.60000000000002</ele>
        <time>2025-05-15T09:54:31Z</time>
      </trkpt>
      <trkpt lat="42.497334033250809" lon="2.66378098167479">
        <ele>423.12</ele>
        <time>2025-05-15T09:54:32Z</time>
      </trkpt>
      <trkpt lat="42.497350964695215" lon="2.663970999419689">
        <ele>422.63999999999999</ele>
        <time>2025-05-15T09:54:33Z</time>
      </trkpt>
      <trkpt lat="42.497369991615415" lon="2.664177026599646">
        <ele>422.16000000000003</ele>
        <time>2025-05-15T09:54:34Z</time>
      </trkpt>
      <trkpt lat="42.497356999665499" lon="2.66436000354588">
        <ele>422.16000000000003</ele>
        <time>2025-05-15T09:54:35Z</time>
      </trkpt>
      <trkpt lat="42.497321963310242" lon="2.664527976885438">
        <ele>422.16000000000003</ele>
        <time>2025-05-15T09:54:36Z</time>
      </trkpt>
      <trkpt lat="42.497241999953985" lon="2.664717994630337">
        <ele>421.68000000000001</ele>
        <time>2025-05-15T09:54:37Z</time>
      </trkpt>
      <trkpt lat="42.497177962213755" lon="2.664870964363217">
        <ele>421.68000000000001</ele>
        <time>2025-05-15T09:54:38Z</time>
      </trkpt>
      <trkpt lat="42.497053993865848" lon="2.665042961016297">
        <ele>421.19</ele>
        <time>2025-05-15T09:54:39Z</time>
      </trkpt>
      <trkpt lat="42.496945029124618" lon="2.665194002911449">
        <ele>421.19</ele>
        <time>2025-05-15T09:54:40Z</time>
      </trkpt>
      <trkpt lat="42.496847966685891" lon="2.665329035371542">
        <ele>420.23000000000002</ele>
        <time>2025-05-15T09:54:41Z</time>
      </trkpt>
      <trkpt lat="42.496768003329635" lon="2.665470018982887">
        <ele>420.23000000000002</ele>
        <time>2025-05-15T09:54:42Z</time>
      </trkpt>
      <trkpt lat="42.4967369902879" lon="2.665647966787219">
        <ele>419.75</ele>
        <time>2025-05-15T09:54:43Z</time>
      </trkpt>
      <trkpt lat="42.496773032471538" lon="2.665795991197228">
        <ele>419.75</ele>
        <time>2025-05-15T09:54:44Z</time>
      </trkpt>
      <trkpt lat="42.496827011927962" lon="2.665946027263999">
        <ele>419.26999999999998</ele>
        <time>2025-05-15T09:54:45Z</time>
      </trkpt>
      <trkpt lat="42.496942011639476" lon="2.666287003085017">
        <ele>418.31</ele>
        <time>2025-05-15T09:54:47Z</time>
      </trkpt>
      <trkpt lat="42.49695198610425" lon="2.666445001959801">
        <ele>418.31</ele>
        <time>2025-05-15T09:54:48Z</time>
      </trkpt>
      <trkpt lat="42.496962966397405" lon="2.666609035804868">
        <ele>417.82999999999998</ele>
        <time>2025-05-15T09:54:49Z</time>
      </trkpt>
      <trkpt lat="42.496942011639476" lon="2.666781032457948">
        <ele>417.35000000000002</ele>
        <time>2025-05-15T09:54:50Z</time>
      </trkpt>
      <trkpt lat="42.49688602052629" lon="2.66687398776412">
        <ele>417.35000000000002</ele>
        <time>2025-05-15T09:54:51Z</time>
      </trkpt>
      <trkpt lat="42.496804967522621" lon="2.667009020224214">
        <ele>416.87</ele>
        <time>2025-05-15T09:54:52Z</time>
      </trkpt>
      <trkpt lat="42.496715029701591" lon="2.667158972471952">
        <ele>416.87</ele>
        <time>2025-05-15T09:54:53Z</time>
      </trkpt>
      <trkpt lat="42.496659960597754" lon="2.667352007701993">
        <ele>416.87</ele>
        <time>2025-05-15T09:54:54Z</time>
      </trkpt>
      <trkpt lat="42.49662802554667" lon="2.667545964941382">
        <ele>416.87</ele>
        <time>2025-05-15T09:54:55Z</time>
      </trkpt>
      <trkpt lat="42.496600029990077" lon="2.667714022099972">
        <ele>416.87</ele>
        <time>2025-05-15T09:54:56Z</time>
      </trkpt>
      <trkpt lat="42.49656499363482" lon="2.667864980176091">
        <ele>416.87</ele>
        <time>2025-05-15T09:54:57Z</time>
      </trkpt>
      <trkpt lat="42.496470026671886" lon="2.667961036786437">
        <ele>416.87</ele>
        <time>2025-05-15T09:54:58Z</time>
      </trkpt>
      <trkpt lat="42.496361983940005" lon="2.668068995699287">
        <ele>416.87</ele>
        <time>2025-05-15T09:54:59Z</time>
      </trkpt>
      <trkpt lat="42.496018996462226" lon="2.668411983177066">
        <ele>417.35000000000002</ele>
        <time>2025-05-15T09:55:02Z</time>
      </trkpt>
      <trkpt lat="42.495977003127337" lon="2.668545003980398">
        <ele>417.35000000000002</ele>
        <time>2025-05-15T09:55:03Z</time>
      </trkpt>
      <trkpt lat="42.495922017842531" lon="2.668718006461859">
        <ele>417.82999999999998</ele>
        <time>2025-05-15T09:55:04Z</time>
      </trkpt>
      <trkpt lat="42.495309971272945" lon="2.670280979946256">
        <ele>418.31</ele>
        <time>2025-05-15T09:55:12Z</time>
      </trkpt>
      <trkpt lat="42.495006965473294" lon="2.671010037884116">
        <ele>417.82999999999998</ele>
        <time>2025-05-15T09:55:16Z</time>
      </trkpt>
      <trkpt lat="42.494990034028888" lon="2.671208018437028">
        <ele>417.35000000000002</ele>
        <time>2025-05-15T09:55:17Z</time>
      </trkpt>
      <trkpt lat="42.494957009330392" lon="2.671587970107794">
        <ele>416.38999999999999</ele>
        <time>2025-05-15T09:55:19Z</time>
      </trkpt>
      <trkpt lat="42.49493001960218" lon="2.671744041144848">
        <ele>415.91000000000003</ele>
        <time>2025-05-15T09:55:20Z</time>
      </trkpt>
      <trkpt lat="42.494861958548427" lon="2.671862980350852">
        <ele>414.94999999999999</ele>
        <time>2025-05-15T09:55:21Z</time>
      </trkpt>
      <trkpt lat="42.494772020727396" lon="2.67192198894918">
        <ele>414.47000000000003</ele>
        <time>2025-05-15T09:55:22Z</time>
      </trkpt>
      <trkpt lat="42.494685016572475" lon="2.671973034739494">
        <ele>413.98000000000002</ele>
        <time>2025-05-15T09:55:23Z</time>
      </trkpt>
      <trkpt lat="42.49458602629602" lon="2.671955013647676">
        <ele>413.5</ele>
        <time>2025-05-15T09:55:24Z</time>
      </trkpt>
      <trkpt lat="42.494451999664307" lon="2.671931041404605">
        <ele>413.01999999999998</ele>
        <time>2025-05-15T09:55:25Z</time>
      </trkpt>
      <trkpt lat="42.494370024651289" lon="2.671831967309117">
        <ele>412.54000000000002</ele>
        <time>2025-05-15T09:55:26Z</time>
      </trkpt>
      <trkpt lat="42.494267011061311" lon="2.67170799896121">
        <ele>412.06</ele>
        <time>2025-05-15T09:55:27Z</time>
      </trkpt>
      <trkpt lat="42.4941570404917" lon="2.671575983986259">
        <ele>411.10000000000002</ele>
        <time>2025-05-15T09:55:28Z</time>
      </trkpt>
      <trkpt lat="42.4940500035882" lon="2.67142896540463">
        <ele>410.62</ele>
        <time>2025-05-15T09:55:29Z</time>
      </trkpt>
      <trkpt lat="42.493949001654983" lon="2.671248000115156">
        <ele>409.66000000000003</ele>
        <time>2025-05-15T09:55:30Z</time>
      </trkpt>
      <trkpt lat="42.493871971964836" lon="2.671048007905483">
        <ele>409.18000000000001</ele>
        <time>2025-05-15T09:55:31Z</time>
      </trkpt>
      <trkpt lat="42.493582963943481" lon="2.670339988544583">
        <ele>406.76999999999998</ele>
        <time>2025-05-15T09:55:35Z</time>
      </trkpt>
      <trkpt lat="42.493515992537141" lon="2.67024602741003">
        <ele>405.81</ele>
        <time>2025-05-15T09:55:36Z</time>
      </trkpt>
      <trkpt lat="42.493420019745827" lon="2.670235969126225">
        <ele>404.85000000000002</ele>
        <time>2025-05-15T09:55:37Z</time>
      </trkpt>
      <trkpt lat="42.493343995884061" lon="2.67029196023941">
        <ele>403.88999999999999</ele>
        <time>2025-05-15T09:55:38Z</time>
      </trkpt>
      <trkpt lat="42.493318011984229" lon="2.670403020456433">
        <ele>402.44999999999999</ele>
        <time>2025-05-15T09:55:39Z</time>
      </trkpt>
      <trkpt lat="42.493291022256017" lon="2.670548027381301">
        <ele>401.49000000000001</ele>
        <time>2025-05-15T09:55:40Z</time>
      </trkpt>
      <trkpt lat="42.493260009214282" lon="2.670714994892478">
        <ele>400.05000000000001</ele>
        <time>2025-05-15T09:55:41Z</time>
      </trkpt>
      <trkpt lat="42.493228996172547" lon="2.670879028737545">
        <ele>399.07999999999998</ele>
        <time>2025-05-15T09:55:42Z</time>
      </trkpt>
      <trkpt lat="42.493137968704104" lon="2.67101900652051">
        <ele>398.12</ele>
        <time>2025-05-15T09:55:43Z</time>
      </trkpt>
      <trkpt lat="42.493035038933158" lon="2.671174993738532">
        <ele>397.16000000000003</ele>
        <time>2025-05-15T09:55:44Z</time>
      </trkpt>
      <trkpt lat="42.492929007858038" lon="2.671336010098457">
        <ele>396.19999999999999</ele>
        <time>2025-05-15T09:55:45Z</time>
      </trkpt>
      <trkpt lat="42.492822976782918" lon="2.671498032286763">
        <ele>394.75999999999999</ele>
        <time>2025-05-15T09:55:46Z</time>
      </trkpt>
      <trkpt lat="42.492738990113139" lon="2.671690983697772">
        <ele>393.31999999999999</ele>
        <time>2025-05-15T09:55:47Z</time>
      </trkpt>
      <trkpt lat="42.492673024535179" lon="2.671893993392587">
        <ele>391.38999999999999</ele>
        <time>2025-05-15T09:55:48Z</time>
      </trkpt>
      <trkpt lat="42.492457022890449" lon="2.672529006376863">
        <ele>387.55000000000001</ele>
        <time>2025-05-15T09:55:51Z</time>
      </trkpt>
      <trkpt lat="42.492371024563909" lon="2.672767974436283">
        <ele>387.06999999999999</ele>
        <time>2025-05-15T09:55:52Z</time>
      </trkpt>
      <trkpt lat="42.491848999634385" lon="2.674284009262919">
        <ele>380.81999999999999</ele>
        <time>2025-05-15T09:55:59Z</time>
      </trkpt>
      <trkpt lat="42.491654958575964" lon="2.67467200756073">
        <ele>377.94</ele>
        <time>2025-05-15T09:56:01Z</time>
      </trkpt>
      <trkpt lat="42.491583041846752" lon="2.674889015033841">
        <ele>376.49000000000001</ele>
        <time>2025-05-15T09:56:02Z</time>
      </trkpt>
      <trkpt lat="42.491527972742915" lon="2.675109962001443">
        <ele>375.05000000000001</ele>
        <time>2025-05-15T09:56:03Z</time>
      </trkpt>
      <trkpt lat="42.491385983303189" lon="2.675713039934635">
        <ele>370.73000000000002</ele>
        <time>2025-05-15T09:56:06Z</time>
      </trkpt>
      <trkpt lat="42.491402998566628" lon="2.675905991345644">
        <ele>369.27999999999997</ele>
        <time>2025-05-15T09:56:07Z</time>
      </trkpt>
      <trkpt lat="42.491562003269792" lon="2.677493020892143">
        <ele>363.04000000000002</ele>
        <time>2025-05-15T09:56:14Z</time>
      </trkpt>
      <trkpt lat="42.491630986332893" lon="2.67772302031517">
        <ele>362.06999999999999</ele>
        <time>2025-05-15T09:56:15Z</time>
      </trkpt>
      <trkpt lat="42.491702986881137" lon="2.67795997671783">
        <ele>362.06999999999999</ele>
        <time>2025-05-15T09:56:16Z</time>
      </trkpt>
      <trkpt lat="42.49211797490716" lon="2.67933402210474">
        <ele>359.67000000000002</ele>
        <time>2025-05-15T09:56:22Z</time>
      </trkpt>
      <trkpt lat="42.492162985727191" lon="2.67952797934413">
        <ele>359.19</ele>
        <time>2025-05-15T09:56:23Z</time>
      </trkpt>
      <trkpt lat="42.492171032354236" lon="2.67972000874579">
        <ele>358.70999999999998</ele>
        <time>2025-05-15T09:56:24Z</time>
      </trkpt>
      <trkpt lat="42.492135995998979" lon="2.67993500456214">
        <ele>358.23000000000002</ele>
        <time>2025-05-15T09:56:25Z</time>
      </trkpt>
      <trkpt lat="42.49209601432085" lon="2.680182019248605">
        <ele>357.26999999999998</ele>
        <time>2025-05-15T09:56:26Z</time>
      </trkpt>
      <trkpt lat="42.492048991844058" lon="2.680471027269959">
        <ele>356.31</ele>
        <time>2025-05-15T09:56:27Z</time>
      </trkpt>
      <trkpt lat="42.492066007107496" lon="2.680717036128044">
        <ele>355.82999999999998</ele>
        <time>2025-05-15T09:56:28Z</time>
      </trkpt>
      <trkpt lat="42.492081010714173" lon="2.680951980873942">
        <ele>355.82999999999998</ele>
        <time>2025-05-15T09:56:29Z</time>
      </trkpt>
      <trkpt lat="42.492124009877443" lon="2.681168988347054">
        <ele>355.82999999999998</ele>
        <time>2025-05-15T09:56:30Z</time>
      </trkpt>
      <trkpt lat="42.492209002375603" lon="2.681312989443541">
        <ele>356.31</ele>
        <time>2025-05-15T09:56:31Z</time>
      </trkpt>
      <trkpt lat="42.492298018187284" lon="2.681465959176421">
        <ele>356.31</ele>
        <time>2025-05-15T09:56:32Z</time>
      </trkpt>
      <trkpt lat="42.492388039827347" lon="2.681619012728334">
        <ele>356.31</ele>
        <time>2025-05-15T09:56:33Z</time>
      </trkpt>
      <trkpt lat="42.492469009011984" lon="2.681773994117975">
        <ele>355.82999999999998</ele>
        <time>2025-05-15T09:56:34Z</time>
      </trkpt>
      <trkpt lat="42.492520976811647" lon="2.681929981335998">
        <ele>355.82999999999998</ele>
        <time>2025-05-15T09:56:35Z</time>
      </trkpt>
      <trkpt lat="42.492520976811647" lon="2.682122010737658">
        <ele>355.33999999999997</ele>
        <time>2025-05-15T09:56:36Z</time>
      </trkpt>
      <trkpt lat="42.492484012618661" lon="2.6822579652071">
        <ele>354.86000000000001</ele>
        <time>2025-05-15T09:56:37Z</time>
      </trkpt>
      <trkpt lat="42.492432966828346" lon="2.682408001273871">
        <ele>354.38</ele>
        <time>2025-05-15T09:56:38Z</time>
      </trkpt>
      <trkpt lat="42.492362977936864" lon="2.682530041784048">
        <ele>353.89999999999998</ele>
        <time>2025-05-15T09:56:39Z</time>
      </trkpt>
      <trkpt lat="42.492262981832027" lon="2.682656021788716">
        <ele>353.42000000000002</ele>
        <time>2025-05-15T09:56:40Z</time>
      </trkpt>
      <trkpt lat="42.492156028747559" lon="2.682788958773017">
        <ele>352.45999999999998</ele>
        <time>2025-05-15T09:56:41Z</time>
      </trkpt>
      <trkpt lat="42.492047986015677" lon="2.682947963476181">
        <ele>351.01999999999998</ele>
        <time>2025-05-15T09:56:42Z</time>
      </trkpt>
      <trkpt lat="42.49196601100266" lon="2.683135969564319">
        <ele>350.54000000000002</ele>
        <time>2025-05-15T09:56:43Z</time>
      </trkpt>
      <trkpt lat="42.491885963827372" lon="2.683339985087514">
        <ele>349.57999999999998</ele>
        <time>2025-05-15T09:56:44Z</time>
      </trkpt>
      <trkpt lat="42.491811029613018" lon="2.683560010045767">
        <ele>348.62</ele>
        <time>2025-05-15T09:56:45Z</time>
      </trkpt>
      <trkpt lat="42.491213986650109" lon="2.685315012931824">
        <ele>342.37</ele>
        <time>2025-05-15T09:56:53Z</time>
      </trkpt>
      <trkpt lat="42.491122959181666" lon="2.685422971844673">
        <ele>341.41000000000003</ele>
        <time>2025-05-15T09:56:54Z</time>
      </trkpt>
      <trkpt lat="42.491071997210383" lon="2.68548097461462">
        <ele>340.92000000000002</ele>
        <time>2025-05-15T09:56:55Z</time>
      </trkpt>
      <trkpt lat="42.491013994440436" lon="2.685492038726807">
        <ele>340.44</ele>
        <time>2025-05-15T09:56:56Z</time>
      </trkpt>
      <trkpt lat="42.49095699749887" lon="2.685492038726807">
        <ele>339.95999999999998</ele>
        <time>2025-05-15T09:56:57Z</time>
      </trkpt>
      <trkpt lat="42.490907963365316" lon="2.685461025685072">
        <ele>339</ele>
        <time>2025-05-15T09:56:58Z</time>
      </trkpt>
      <trkpt lat="42.490859013050795" lon="2.685401011258364">
        <ele>339</ele>
        <time>2025-05-15T09:56:59Z</time>
      </trkpt>
      <trkpt lat="42.490797992795706" lon="2.685326999053359">
        <ele>338.51999999999998</ele>
        <time>2025-05-15T09:57:00Z</time>
      </trkpt>
      <trkpt lat="42.490734038874507" lon="2.685235971584916">
        <ele>337.56</ele>
        <time>2025-05-15T09:57:01Z</time>
      </trkpt>
      <trkpt lat="42.490695985034108" lon="2.685110997408629">
        <ele>337.07999999999998</ele>
        <time>2025-05-15T09:57:02Z</time>
      </trkpt>
      <trkpt lat="42.490653991699219" lon="2.684973031282425">
        <ele>336.12</ele>
        <time>2025-05-15T09:57:03Z</time>
      </trkpt>
      <trkpt lat="42.490609986707568" lon="2.684828024357557">
        <ele>335.63999999999999</ele>
        <time>2025-05-15T09:57:04Z</time>
      </trkpt>
      <trkpt lat="42.49059003777802" lon="2.684673964977264">
        <ele>334.68000000000001</ele>
        <time>2025-05-15T09:57:05Z</time>
      </trkpt>
      <trkpt lat="42.49059003777802" lon="2.684528036043048">
        <ele>334.19999999999999</ele>
        <time>2025-05-15T09:57:06Z</time>
      </trkpt>
      <trkpt lat="42.49059003777802" lon="2.684355033561587">
        <ele>333.23000000000002</ele>
        <time>2025-05-15T09:57:07Z</time>
      </trkpt>
      <trkpt lat="42.490614010021091" lon="2.684236010536552">
        <ele>332.26999999999998</ele>
        <time>2025-05-15T09:57:08Z</time>
      </trkpt>
      <trkpt lat="42.490707971155643" lon="2.683763019740582">
        <ele>330.35000000000002</ele>
        <time>2025-05-15T09:57:11Z</time>
      </trkpt>
      <trkpt lat="42.490681987255812" lon="2.683613989502192">
        <ele>329.38999999999999</ele>
        <time>2025-05-15T09:57:12Z</time>
      </trkpt>
      <trkpt lat="42.490631025284529" lon="2.683475017547607">
        <ele>329.38999999999999</ele>
        <time>2025-05-15T09:57:13Z</time>
      </trkpt>
      <trkpt lat="42.490579979494214" lon="2.683341996744275">
        <ele>328.91000000000003</ele>
        <time>2025-05-15T09:57:14Z</time>
      </trkpt>
      <trkpt lat="42.490535974502563" lon="2.683222973719239">
        <ele>328.43000000000001</ele>
        <time>2025-05-15T09:57:15Z</time>
      </trkpt>
      <trkpt lat="42.490526000037789" lon="2.683097999542952">
        <ele>328.43000000000001</ele>
        <time>2025-05-15T09:57:16Z</time>
      </trkpt>
      <trkpt lat="42.490553995594382" lon="2.682950980961323">
        <ele>327.94999999999999</ele>
        <time>2025-05-15T09:57:17Z</time>
      </trkpt>
      <trkpt lat="42.490593977272511" lon="2.682780995965004">
        <ele>327.94999999999999</ele>
        <time>2025-05-15T09:57:18Z</time>
      </trkpt>
      <trkpt lat="42.490647034719586" lon="2.682429039850831">
        <ele>326.99000000000001</ele>
        <time>2025-05-15T09:57:20Z</time>
      </trkpt>
      <trkpt lat="42.490633958950639" lon="2.682243967428803">
        <ele>326.5</ele>
        <time>2025-05-15T09:57:21Z</time>
      </trkpt>
      <trkpt lat="42.490611998364329" lon="2.681929981335998">
        <ele>326.01999999999998</ele>
        <time>2025-05-15T09:57:23Z</time>
      </trkpt>
      <trkpt lat="42.490652985870838" lon="2.681765025481582">
        <ele>325.54000000000002</ele>
        <time>2025-05-15T09:57:24Z</time>
      </trkpt>
      <trkpt lat="42.490687016397715" lon="2.681628987193108">
        <ele>324.57999999999998</ele>
        <time>2025-05-15T09:57:25Z</time>
      </trkpt>
      <trkpt lat="42.49071903526783" lon="2.681500995531678">
        <ele>324.10000000000002</ele>
        <time>2025-05-15T09:57:26Z</time>
      </trkpt>
      <trkpt lat="42.490710988640785" lon="2.681360011920333">
        <ele>323.62</ele>
        <time>2025-05-15T09:57:27Z</time>
      </trkpt>
      <trkpt lat="42.490648962557316" lon="2.681256998330355">
        <ele>323.62</ele>
        <time>2025-05-15T09:57:28Z</time>
      </trkpt>
      <trkpt lat="42.490574028342962" lon="2.681135041639209">
        <ele>323.13999999999999</ele>
        <time>2025-05-15T09:57:29Z</time>
      </trkpt>
      <trkpt lat="42.490494986996055" lon="2.681005038321018">
        <ele>322.66000000000003</ele>
        <time>2025-05-15T09:57:30Z</time>
      </trkpt>
      <trkpt lat="42.49042097479105" lon="2.68088199198246">
        <ele>322.18000000000001</ele>
        <time>2025-05-15T09:57:31Z</time>
      </trkpt>
      <trkpt lat="42.49041804112494" lon="2.680749977007508">
        <ele>321.69999999999999</ele>
        <time>2025-05-15T09:57:32Z</time>
      </trkpt>
      <trkpt lat="42.49041804112494" lon="2.68058099783957">
        <ele>320.74000000000001</ele>
        <time>2025-05-15T09:57:33Z</time>
      </trkpt>
      <trkpt lat="42.49041804112494" lon="2.680413024500012">
        <ele>320.25999999999999</ele>
        <time>2025-05-15T09:57:34Z</time>
      </trkpt>
      <trkpt lat="42.49041804112494" lon="2.680251002311707">
        <ele>319.77999999999997</ele>
        <time>2025-05-15T09:57:35Z</time>
      </trkpt>
      <trkpt lat="42.490387028083205" lon="2.680091997608542">
        <ele>319.30000000000001</ele>
        <time>2025-05-15T09:57:36Z</time>
      </trkpt>
      <trkpt lat="42.49031201004982" lon="2.679952019825578">
        <ele>319.30000000000001</ele>
        <time>2025-05-15T09:57:37Z</time>
      </trkpt>
      <trkpt lat="42.490218970924616" lon="2.679818999022245">
        <ele>318.81</ele>
        <time>2025-05-15T09:57:38Z</time>
      </trkpt>
      <trkpt lat="42.49011998064816" lon="2.6796780154109">
        <ele>318.81</ele>
        <time>2025-05-15T09:57:39Z</time>
      </trkpt>
      <trkpt lat="42.490023002028465" lon="2.679539965465665">
        <ele>318.81</ele>
        <time>2025-05-15T09:57:40Z</time>
      </trkpt>
      <trkpt lat="42.489933986216784" lon="2.679413985460997">
        <ele>318.81</ele>
        <time>2025-05-15T09:57:41Z</time>
      </trkpt>
      <trkpt lat="42.489766012877226" lon="2.679225979372859">
        <ele>318.81</ele>
        <time>2025-05-15T09:57:43Z</time>
      </trkpt>
      <trkpt lat="42.48966702260077" lon="2.67918398603797">
        <ele>318.32999999999998</ele>
        <time>2025-05-15T09:57:44Z</time>
      </trkpt>
      <trkpt lat="42.489600973203778" lon="2.679234025999904">
        <ele>317.85000000000002</ele>
        <time>2025-05-15T09:57:45Z</time>
      </trkpt>
      <trkpt lat="42.489546993747354" lon="2.679325975477696">
        <ele>317.85000000000002</ele>
        <time>2025-05-15T09:57:46Z</time>
      </trkpt>
      <trkpt lat="42.48949502594769" lon="2.679439969360828">
        <ele>316.88999999999999</ele>
        <time>2025-05-15T09:57:47Z</time>
      </trkpt>
      <trkpt lat="42.489438029006124" lon="2.679567039012909">
        <ele>316.41000000000003</ele>
        <time>2025-05-15T09:57:48Z</time>
      </trkpt>
      <trkpt lat="42.489365022629499" lon="2.679703999310732">
        <ele>315.44999999999999</ele>
        <time>2025-05-15T09:57:49Z</time>
      </trkpt>
      <trkpt lat="42.489258991554379" lon="2.679824028164148">
        <ele>314.97000000000003</ele>
        <time>2025-05-15T09:57:50Z</time>
      </trkpt>
      <trkpt lat="42.489148015156388" lon="2.679952019825578">
        <ele>314.49000000000001</ele>
        <time>2025-05-15T09:57:51Z</time>
      </trkpt>
      <trkpt lat="42.489032009616494" lon="2.680051010102034">
        <ele>314.00999999999999</ele>
        <time>2025-05-15T09:57:52Z</time>
      </trkpt>
      <trkpt lat="42.488922039046884" lon="2.680111024528742">
        <ele>313.05000000000001</ele>
        <time>2025-05-15T09:57:53Z</time>
      </trkpt>
      <trkpt lat="42.48883000575006" lon="2.680131979286671">
        <ele>312.56999999999999</ele>
        <time>2025-05-15T09:57:54Z</time>
      </trkpt>
      <trkpt lat="42.488753981888294" lon="2.680075988173485">
        <ele>312.56999999999999</ele>
        <time>2025-05-15T09:57:55Z</time>
      </trkpt>
      <trkpt lat="42.488677036017179" lon="2.680005999282002">
        <ele>312.56999999999999</ele>
        <time>2025-05-15T09:57:56Z</time>
      </trkpt>
      <trkpt lat="42.488647028803825" lon="2.679874990135431">
        <ele>312.08999999999997</ele>
        <time>2025-05-15T09:57:57Z</time>
      </trkpt>
      <trkpt lat="42.488616015762091" lon="2.679711040109396">
        <ele>311.12</ele>
        <time>2025-05-15T09:57:58Z</time>
      </trkpt>
      <trkpt lat="42.488616015762091" lon="2.679518004879355">
        <ele>310.63999999999999</ele>
        <time>2025-05-15T09:57:59Z</time>
      </trkpt>
      <trkpt lat="42.488611992448568" lon="2.679089019075036">
        <ele>309.19999999999999</ele>
        <time>2025-05-15T09:58:01Z</time>
      </trkpt>
      <trkpt lat="42.488586008548737" lon="2.678877040743828">
        <ele>308.72000000000003</ele>
        <time>2025-05-15T09:58:02Z</time>
      </trkpt>
      <trkpt lat="42.488560024648905" lon="2.678670007735491">
        <ele>307.75999999999999</ele>
        <time>2025-05-15T09:58:03Z</time>
      </trkpt>
      <trkpt lat="42.488530017435551" lon="2.678431961685419">
        <ele>307.27999999999997</ele>
        <time>2025-05-15T09:58:04Z</time>
      </trkpt>
      <trkpt lat="42.488481989130378" lon="2.67828200943768">
        <ele>306.31999999999999</ele>
        <time>2025-05-15T09:58:05Z</time>
      </trkpt>
      <trkpt lat="42.488429015502334" lon="2.678114958107472">
        <ele>305.83999999999997</ele>
        <time>2025-05-15T09:58:06Z</time>
      </trkpt>
      <trkpt lat="42.488382998853922" lon="2.677969029173255">
        <ele>304.88</ele>
        <time>2025-05-15T09:58:07Z</time>
      </trkpt>
      <trkpt lat="42.488279985263944" lon="2.677880013361573">
        <ele>304.38999999999999</ele>
        <time>2025-05-15T09:58:08Z</time>
      </trkpt>
      <trkpt lat="42.488173032179475" lon="2.677792003378272">
        <ele>303.91000000000003</ele>
        <time>2025-05-15T09:58:09Z</time>
      </trkpt>
      <trkpt lat="42.488072030246258" lon="2.677710028365254">
        <ele>302.94999999999999</ele>
        <time>2025-05-15T09:58:10Z</time>
      </trkpt>
      <trkpt lat="42.488002041354775" lon="2.677620006725192">
        <ele>301.99000000000001</ele>
        <time>2025-05-15T09:58:11Z</time>
      </trkpt>
      <trkpt lat="42.487957030534744" lon="2.677500983700156">
        <ele>301.02999999999997</ele>
        <time>2025-05-15T09:58:12Z</time>
      </trkpt>
      <trkpt lat="42.487981002777815" lon="2.677380032837391">
        <ele>300.06999999999999</ele>
        <time>2025-05-15T09:58:13Z</time>
      </trkpt>
      <trkpt lat="42.488021990284324" lon="2.677264027297497">
        <ele>298.63</ele>
        <time>2025-05-15T09:58:14Z</time>
      </trkpt>
      <trkpt lat="42.488090973347425" lon="2.677136035636067">
        <ele>297.67000000000002</ele>
        <time>2025-05-15T09:58:15Z</time>
      </trkpt>
      <trkpt lat="42.488168003037572" lon="2.67699496820569">
        <ele>296.69999999999999</ele>
        <time>2025-05-15T09:58:16Z</time>
      </trkpt>
      <trkpt lat="42.488251989707351" lon="2.676838980987668">
        <ele>296.22000000000003</ele>
        <time>2025-05-15T09:58:17Z</time>
      </trkpt>
      <trkpt lat="42.488329019397497" lon="2.676659021526575">
        <ele>295.25999999999999</ele>
        <time>2025-05-15T09:58:18Z</time>
      </trkpt>
      <trkpt lat="42.488401019945741" lon="2.676476966589689">
        <ele>294.30000000000001</ele>
        <time>2025-05-15T09:58:19Z</time>
      </trkpt>
      <trkpt lat="42.48855197802186" lon="2.676093997433782">
        <ele>292.86000000000001</ele>
        <time>2025-05-15T09:58:21Z</time>
      </trkpt>
      <trkpt lat="42.488580979406834" lon="2.675811024382711">
        <ele>291.89999999999998</ele>
        <time>2025-05-15T09:58:23Z</time>
      </trkpt>
      <trkpt lat="42.48850897885859" lon="2.675570966675878">
        <ele>289.97000000000003</ele>
        <time>2025-05-15T09:58:25Z</time>
      </trkpt>
      <trkpt lat="42.488450976088643" lon="2.675500977784395">
        <ele>289.49000000000001</ele>
        <time>2025-05-15T09:58:26Z</time>
      </trkpt>
      <trkpt lat="42.488351985812187" lon="2.675486980006099">
        <ele>288.52999999999997</ele>
        <time>2025-05-15T09:58:27Z</time>
      </trkpt>
      <trkpt lat="42.488238997757435" lon="2.675480023026466">
        <ele>287.56999999999999</ele>
        <time>2025-05-15T09:58:28Z</time>
      </trkpt>
      <trkpt lat="42.488122992217541" lon="2.675472982227802">
        <ele>286.13</ele>
        <time>2025-05-15T09:58:29Z</time>
      </trkpt>
      <trkpt lat="42.488016039133072" lon="2.675412967801094">
        <ele>285.64999999999998</ele>
        <time>2025-05-15T09:58:30Z</time>
      </trkpt>
      <trkpt lat="42.487896010279655" lon="2.675329986959696">
        <ele>284.69</ele>
        <time>2025-05-15T09:58:31Z</time>
      </trkpt>
      <trkpt lat="42.487770030274987" lon="2.675241976976395">
        <ele>283.73000000000002</ele>
        <time>2025-05-15T09:58:32Z</time>
      </trkpt>
      <trkpt lat="42.487634997814894" lon="2.675149021670222">
        <ele>282.76999999999998</ele>
        <time>2025-05-15T09:58:33Z</time>
      </trkpt>
      <trkpt lat="42.487468030303717" lon="2.675070986151695">
        <ele>281.80000000000001</ele>
        <time>2025-05-15T09:58:34Z</time>
      </trkpt>
      <trkpt lat="42.487319000065327" lon="2.675042990595102">
        <ele>280.83999999999997</ele>
        <time>2025-05-15T09:58:35Z</time>
      </trkpt>
      <trkpt lat="42.487199977040291" lon="2.675021030008793">
        <ele>279.88</ele>
        <time>2025-05-15T09:58:36Z</time>
      </trkpt>
      <trkpt lat="42.487119007855654" lon="2.674963027238846">
        <ele>278.92000000000002</ele>
        <time>2025-05-15T09:58:37Z</time>
      </trkpt>
      <trkpt lat="42.487050024792552" lon="2.674912987276912">
        <ele>277.95999999999998</ele>
        <time>2025-05-15T09:58:38Z</time>
      </trkpt>
      <trkpt lat="42.487028986215591" lon="2.674840986728668">
        <ele>277.48000000000002</ele>
        <time>2025-05-15T09:58:39Z</time>
      </trkpt>
      <trkpt lat="42.486994033679366" lon="2.674718024209142">
        <ele>277</ele>
        <time>2025-05-15T09:58:40Z</time>
      </trkpt>
      <trkpt lat="42.486962014809251" lon="2.67456597648561">
        <ele>276.04000000000002</ele>
        <time>2025-05-15T09:58:41Z</time>
      </trkpt>
      <trkpt lat="42.486947011202574" lon="2.674214020371437">
        <ele>274.11000000000001</ele>
        <time>2025-05-15T09:58:43Z</time>
      </trkpt>
      <trkpt lat="42.486902000382543" lon="2.674059038981795">
        <ele>272.67000000000002</ele>
        <time>2025-05-15T09:58:44Z</time>
      </trkpt>
      <trkpt lat="42.486837040632963" lon="2.673960970714688">
        <ele>271.70999999999998</ele>
        <time>2025-05-15T09:58:45Z</time>
      </trkpt>
      <trkpt lat="42.486739978194237" lon="2.673867009580135">
        <ele>270.75</ele>
        <time>2025-05-15T09:58:46Z</time>
      </trkpt>
      <trkpt lat="42.486650962382555" lon="2.673882013186812">
        <ele>270.26999999999998</ele>
        <time>2025-05-15T09:58:47Z</time>
      </trkpt>
      <trkpt lat="42.486572004854679" lon="2.673983015120029">
        <ele>269.79000000000002</ele>
        <time>2025-05-15T09:58:48Z</time>
      </trkpt>
      <trkpt lat="42.486497992649674" lon="2.674088040366769">
        <ele>269.79000000000002</ele>
        <time>2025-05-15T09:58:49Z</time>
      </trkpt>
      <trkpt lat="42.486415011808276" lon="2.674206979572773">
        <ele>268.82999999999998</ele>
        <time>2025-05-15T09:58:50Z</time>
      </trkpt>
      <trkpt lat="42.486340999603271" lon="2.674313010647893">
        <ele>267.86000000000001</ele>
        <time>2025-05-15T09:58:51Z</time>
      </trkpt>
      <trkpt lat="42.486233962699771" lon="2.674419963732362">
        <ele>267.38</ele>
        <time>2025-05-15T09:58:52Z</time>
      </trkpt>
      <trkpt lat="42.486114017665386" lon="2.674431027844548">
        <ele>266.42000000000002</ele>
        <time>2025-05-15T09:58:53Z</time>
      </trkpt>
      <trkpt lat="42.485982002690434" lon="2.674443013966084">
        <ele>265.94</ele>
        <time>2025-05-15T09:58:54Z</time>
      </trkpt>
      <trkpt lat="42.485846970230341" lon="2.674455000087619">
        <ele>264.98000000000002</ele>
        <time>2025-05-15T09:58:55Z</time>
      </trkpt>
      <trkpt lat="42.485311031341553" lon="2.674408983439207">
        <ele>261.13999999999999</ele>
        <time>2025-05-15T09:59:00Z</time>
      </trkpt>
      <trkpt lat="42.485211035236716" lon="2.674385011196137">
        <ele>260.64999999999998</ele>
        <time>2025-05-15T09:59:01Z</time>
      </trkpt>
      <trkpt lat="42.485130988061428" lon="2.674310998991132">
        <ele>259.69</ele>
        <time>2025-05-15T09:59:02Z</time>
      </trkpt>
      <trkpt lat="42.485050018876791" lon="2.674236986786127">
        <ele>259.20999999999998</ele>
        <time>2025-05-15T09:59:03Z</time>
      </trkpt>
      <trkpt lat="42.484973995015025" lon="2.674166997894645">
        <ele>258.25</ele>
        <time>2025-05-15T09:59:04Z</time>
      </trkpt>
      <trkpt lat="42.484906017780304" lon="2.674100026488304">
        <ele>257.76999999999998</ele>
        <time>2025-05-15T09:59:05Z</time>
      </trkpt>
      <trkpt lat="42.484853966161609" lon="2.673982009291649">
        <ele>256.81</ele>
        <time>2025-05-15T09:59:06Z</time>
      </trkpt>
      <trkpt lat="42.484821025282145" lon="2.673874972388148">
        <ele>256.32999999999998</ele>
        <time>2025-05-15T09:59:07Z</time>
      </trkpt>
      <trkpt lat="42.484784983098507" lon="2.673757039010525">
        <ele>255.84999999999999</ele>
        <time>2025-05-15T09:59:08Z</time>
      </trkpt>
      <trkpt lat="42.484682975336909" lon="2.673279019072652">
        <ele>253.93000000000001</ele>
        <time>2025-05-15T09:59:12Z</time>
      </trkpt>
      <trkpt lat="42.484654979780316" lon="2.673167958855629">
        <ele>252.96000000000001</ele>
        <time>2025-05-15T09:59:13Z</time>
      </trkpt>
      <trkpt lat="42.484624972566962" lon="2.673047007992864">
        <ele>252.47999999999999</ele>
        <time>2025-05-15T09:59:14Z</time>
      </trkpt>
      <trkpt lat="42.484314003959298" lon="2.672105971723795">
        <ele>250.08000000000001</ele>
        <time>2025-05-15T09:59:23Z</time>
      </trkpt>
      <trkpt lat="42.484250972047448" lon="2.672018967568874">
        <ele>250.08000000000001</ele>
        <time>2025-05-15T09:59:24Z</time>
      </trkpt>
      <trkpt lat="42.484051985666156" lon="2.671763990074396">
        <ele>252</ele>
        <time>2025-05-15T09:59:27Z</time>
      </trkpt>
      <trkpt lat="42.483921982347965" lon="2.671592999249697">
        <ele>253.44</ele>
        <time>2025-05-15T09:59:29Z</time>
      </trkpt>
      <trkpt lat="42.483858028426766" lon="2.671510018408299">
        <ele>253.93000000000001</ele>
        <time>2025-05-15T09:59:30Z</time>
      </trkpt>
      <trkpt lat="42.483802037313581" lon="2.671400969848037">
        <ele>254.41</ele>
        <time>2025-05-15T09:59:31Z</time>
      </trkpt>
      <trkpt lat="42.483448991551995" lon="2.670358009636402">
        <ele>257.29000000000002</ele>
        <time>2025-05-15T09:59:40Z</time>
      </trkpt>
      <trkpt lat="42.483419990167022" lon="2.67024602741003">
        <ele>256.81</ele>
        <time>2025-05-15T09:59:41Z</time>
      </trkpt>
      <trkpt lat="42.483399035409093" lon="2.670108983293176">
        <ele>256.32999999999998</ele>
        <time>2025-05-15T09:59:42Z</time>
      </trkpt>
      <trkpt lat="42.483386965468526" lon="2.669856017455459">
        <ele>255.84999999999999</ele>
        <time>2025-05-15T09:59:44Z</time>
      </trkpt>
      <trkpt lat="42.483382020145655" lon="2.669736994430423">
        <ele>255.37</ele>
        <time>2025-05-15T09:59:45Z</time>
      </trkpt>
      <trkpt lat="42.48335100710392" lon="2.669640015810728">
        <ele>254.88999999999999</ele>
        <time>2025-05-15T09:59:46Z</time>
      </trkpt>
      <trkpt lat="42.483291998505592" lon="2.669541025534272">
        <ele>254.88999999999999</ele>
        <time>2025-05-15T09:59:47Z</time>
      </trkpt>
      <trkpt lat="42.483192002400756" lon="2.669466007500887">
        <ele>254.41</ele>
        <time>2025-05-15T09:59:48Z</time>
      </trkpt>
      <trkpt lat="42.483082031831145" lon="2.669474976137281">
        <ele>254.41</ele>
        <time>2025-05-15T09:59:49Z</time>
      </trkpt>
      <trkpt lat="42.482956973835826" lon="2.669485034421086">
        <ele>254.41</ele>
        <time>2025-05-15T09:59:50Z</time>
      </trkpt>
      <trkpt lat="42.482695961371064" lon="2.669505989179015">
        <ele>253.44</ele>
        <time>2025-05-15T09:59:52Z</time>
      </trkpt>
      <trkpt lat="42.482569981366396" lon="2.66960296779871">
        <ele>252.96000000000001</ele>
        <time>2025-05-15T09:59:53Z</time>
      </trkpt>
      <trkpt lat="42.482445007190108" lon="2.669702041894198">
        <ele>252</ele>
        <time>2025-05-15T09:59:54Z</time>
      </trkpt>
      <trkpt lat="42.482114005833864" lon="2.669934974983335">
        <ele>249.59999999999999</ele>
        <time>2025-05-15T09:59:57Z</time>
      </trkpt>
      <trkpt lat="42.481986014172435" lon="2.669934974983335">
        <ele>248.63999999999999</ele>
        <time>2025-05-15T09:59:58Z</time>
      </trkpt>
      <trkpt lat="42.481916025280952" lon="2.669879989698529">
        <ele>247.68000000000001</ele>
        <time>2025-05-15T09:59:59Z</time>
      </trkpt>
      <trkpt lat="42.481682002544403" lon="2.669692989438772">
        <ele>245.75</ele>
        <time>2025-05-15T10:00:01Z</time>
      </trkpt>
      <trkpt lat="42.481551999226213" lon="2.669587964192033">
        <ele>245.27000000000001</ele>
        <time>2025-05-15T10:00:02Z</time>
      </trkpt>
      <trkpt lat="42.481300961226225" lon="2.669386966153979">
        <ele>243.83000000000001</ele>
        <time>2025-05-15T10:00:04Z</time>
      </trkpt>
      <trkpt lat="42.481144974008203" lon="2.669341033324599">
        <ele>243.34999999999999</ele>
        <time>2025-05-15T10:00:05Z</time>
      </trkpt>
      <trkpt lat="42.48103098012507" lon="2.669350001960993">
        <ele>242.87</ele>
        <time>2025-05-15T10:00:06Z</time>
      </trkpt>
      <trkpt lat="42.480912962928414" lon="2.669380009174347">
        <ele>242.38999999999999</ele>
        <time>2025-05-15T10:00:07Z</time>
      </trkpt>
      <trkpt lat="42.480812966823578" lon="2.669434994459152">
        <ele>242.38999999999999</ele>
        <time>2025-05-15T10:00:08Z</time>
      </trkpt>
      <trkpt lat="42.48070701956749" lon="2.669489979743958">
        <ele>242.38999999999999</ele>
        <time>2025-05-15T10:00:09Z</time>
      </trkpt>
      <trkpt lat="42.480593025684357" lon="2.669543959200382">
        <ele>242.38999999999999</ele>
        <time>2025-05-15T10:00:10Z</time>
      </trkpt>
      <trkpt lat="42.480485988780856" lon="2.669596010819078">
        <ele>242.38999999999999</ele>
        <time>2025-05-15T10:00:11Z</time>
      </trkpt>
      <trkpt lat="42.479407992213964" lon="2.669959031045437">
        <ele>237.09999999999999</ele>
        <time>2025-05-15T10:00:21Z</time>
      </trkpt>
      <trkpt lat="42.478922009468079" lon="2.670005969703198">
        <ele>237.09999999999999</ele>
        <time>2025-05-15T10:00:27Z</time>
      </trkpt>
      <trkpt lat="42.478864006698132" lon="2.6700109988451">
        <ele>237.09999999999999</ele>
        <time>2025-05-15T10:00:28Z</time>
      </trkpt>
      <trkpt lat="42.478804998099804" lon="2.670015022158623">
        <ele>237.09999999999999</ele>
        <time>2025-05-15T10:00:29Z</time>
      </trkpt>
      <trkpt lat="42.478659991174936" lon="2.670023990795016">
        <ele>237.58000000000001</ele>
        <time>2025-05-15T10:00:31Z</time>
      </trkpt>
      <trkpt lat="42.478579021990299" lon="2.670027008280158">
        <ele>237.58000000000001</ele>
        <time>2025-05-15T10:00:32Z</time>
      </trkpt>
      <trkpt lat="42.478036964312196" lon="2.670106971636415">
        <ele>236.13999999999999</ele>
        <time>2025-05-15T10:00:38Z</time>
      </trkpt>
      <trkpt lat="42.477962030097842" lon="2.670174026861787">
        <ele>236.13999999999999</ele>
        <time>2025-05-15T10:00:39Z</time>
      </trkpt>
      <trkpt lat="42.477877037599683" lon="2.67024896107614">
        <ele>236.13999999999999</ele>
        <time>2025-05-15T10:00:40Z</time>
      </trkpt>
      <trkpt lat="42.477810988202691" lon="2.67033101990819">
        <ele>236.13999999999999</ele>
        <time>2025-05-15T10:00:41Z</time>
      </trkpt>
      <trkpt lat="42.47774301096797" lon="2.670437972992659">
        <ele>236.13999999999999</ele>
        <time>2025-05-15T10:00:42Z</time>
      </trkpt>
      <trkpt lat="42.477673022076488" lon="2.670549033209682">
        <ele>236.13999999999999</ele>
        <time>2025-05-15T10:00:43Z</time>
      </trkpt>
      <trkpt lat="42.47739901766181" lon="2.670981958508492">
        <ele>235.66</ele>
        <time>2025-05-15T10:00:47Z</time>
      </trkpt>
      <trkpt lat="42.476986963301897" lon="2.671639015898109">
        <ele>233.25999999999999</ele>
        <time>2025-05-15T10:00:53Z</time>
      </trkpt>
      <trkpt lat="42.476803986355662" lon="2.671788968145847">
        <ele>232.78</ele>
        <time>2025-05-15T10:00:55Z</time>
      </trkpt>
      <trkpt lat="42.476018015295267" lon="2.67235298641026">
        <ele>232.78</ele>
        <time>2025-05-15T10:01:04Z</time>
      </trkpt>
      <trkpt lat="42.475442010909319" lon="2.672746013849974">
        <ele>234.22</ele>
        <time>2025-05-15T10:01:11Z</time>
      </trkpt>
      <trkpt lat="42.475356012582779" lon="2.672784989699721">
        <ele>234.22</ele>
        <time>2025-05-15T10:01:12Z</time>
      </trkpt>
      <trkpt lat="42.475274037569761" lon="2.67282203771174">
        <ele>234.69999999999999</ele>
        <time>2025-05-15T10:01:13Z</time>
      </trkpt>
      <trkpt lat="42.475204970687628" lon="2.672853972762823">
        <ele>234.69999999999999</ele>
        <time>2025-05-15T10:01:14Z</time>
      </trkpt>
      <trkpt lat="42.475115032866597" lon="2.672833018004894">
        <ele>235.18000000000001</ele>
        <time>2025-05-15T10:01:15Z</time>
      </trkpt>
      <trkpt lat="42.475031968206167" lon="2.672814996913075">
        <ele>235.66</ele>
        <time>2025-05-15T10:01:16Z</time>
      </trkpt>
      <trkpt lat="42.474960973486304" lon="2.672747019678354">
        <ele>235.66</ele>
        <time>2025-05-15T10:01:17Z</time>
      </trkpt>
      <trkpt lat="42.474911017343402" lon="2.672647023573518">
        <ele>236.13999999999999</ele>
        <time>2025-05-15T10:01:18Z</time>
      </trkpt>
      <trkpt lat="42.474882015958428" lon="2.672536969184876">
        <ele>236.13999999999999</ele>
        <time>2025-05-15T10:01:19Z</time>
      </trkpt>
      <trkpt lat="42.474853014573455" lon="2.672426998615265">
        <ele>236.13999999999999</ele>
        <time>2025-05-15T10:01:20Z</time>
      </trkpt>
      <trkpt lat="42.474616980180144" lon="2.671482022851706">
        <ele>235.18000000000001</ele>
        <time>2025-05-15T10:01:28Z</time>
      </trkpt>
      <trkpt lat="42.474595019593835" lon="2.67136299982667">
        <ele>235.18000000000001</ele>
        <time>2025-05-15T10:01:29Z</time>
      </trkpt>
      <trkpt lat="42.474469039589167" lon="2.670592032372952">
        <ele>234.69999999999999</ele>
        <time>2025-05-15T10:01:34Z</time>
      </trkpt>
      <trkpt lat="42.474468033760786" lon="2.670402014628053">
        <ele>233.74000000000001</ele>
        <time>2025-05-15T10:01:35Z</time>
      </trkpt>
      <trkpt lat="42.474496029317379" lon="2.670261031016707">
        <ele>232.78</ele>
        <time>2025-05-15T10:01:36Z</time>
      </trkpt>
      <trkpt lat="42.474525030702353" lon="2.67011602409184">
        <ele>232.30000000000001</ele>
        <time>2025-05-15T10:01:37Z</time>
      </trkpt>
      <trkpt lat="42.474584961310029" lon="2.669956013560295">
        <ele>231.33000000000001</ele>
        <time>2025-05-15T10:01:38Z</time>
      </trkpt>
      <trkpt lat="42.474716976284981" lon="2.669702041894198">
        <ele>230.37</ele>
        <time>2025-05-15T10:01:40Z</time>
      </trkpt>
      <trkpt lat="42.474783025681973" lon="2.669576983898878">
        <ele>229.41</ele>
        <time>2025-05-15T10:01:41Z</time>
      </trkpt>
      <trkpt lat="42.474978994578123" lon="2.669201977550983">
        <ele>226.53</ele>
        <time>2025-05-15T10:01:44Z</time>
      </trkpt>
      <trkpt lat="42.475045965984464" lon="2.669077003374696">
        <ele>226.05000000000001</ele>
        <time>2025-05-15T10:01:45Z</time>
      </trkpt>
      <trkpt lat="42.475112015381455" lon="2.668954040855169">
        <ele>225.09</ele>
        <time>2025-05-15T10:01:46Z</time>
      </trkpt>
      <trkpt lat="42.475178986787796" lon="2.66882898285985">
        <ele>225.09</ele>
        <time>2025-05-15T10:01:47Z</time>
      </trkpt>
      <trkpt lat="42.475245036184788" lon="2.668705014511943">
        <ele>224.61000000000001</ele>
        <time>2025-05-15T10:01:48Z</time>
      </trkpt>
      <trkpt lat="42.475308990105987" lon="2.668585991486907">
        <ele>224.12</ele>
        <time>2025-05-15T10:01:49Z</time>
      </trkpt>
      <trkpt lat="42.475430024787784" lon="2.668417012318969">
        <ele>223.16</ele>
        <time>2025-05-15T10:01:51Z</time>
      </trkpt>
      <trkpt lat="42.475577965378761" lon="2.668354986235499">
        <ele>221.24000000000001</ele>
        <time>2025-05-15T10:01:55Z</time>
      </trkpt>
      <trkpt lat="42.475610990077257" lon="2.668363032862544">
        <ele>220.75999999999999</ele>
        <time>2025-05-15T10:01:56Z</time>
      </trkpt>
      <trkpt lat="42.475634040310979" lon="2.668368984013796">
        <ele>220.75999999999999</ele>
        <time>2025-05-15T10:01:57Z</time>
      </trkpt>
      <trkpt lat="42.475711992010474" lon="2.668334031477571">
        <ele>220.75999999999999</ele>
        <time>2025-05-15T10:01:58Z</time>
      </trkpt>
      <trkpt lat="42.475778041407466" lon="2.668305030092597">
        <ele>219.80000000000001</ele>
        <time>2025-05-15T10:01:59Z</time>
      </trkpt>
      <trkpt lat="42.475841995328665" lon="2.668262030929327">
        <ele>219.31999999999999</ele>
        <time>2025-05-15T10:02:00Z</time>
      </trkpt>
      <trkpt lat="42.475895974785089" lon="2.668185001239181">
        <ele>218.36000000000001</ele>
        <time>2025-05-15T10:02:01Z</time>
      </trkpt>
      <trkpt lat="42.475950038060546" lon="2.668106965720654">
        <ele>217.88</ele>
        <time>2025-05-15T10:02:02Z</time>
      </trkpt>
      <trkpt lat="42.476001000031829" lon="2.668003030121326">
        <ele>217.88</ele>
        <time>2025-05-15T10:02:03Z</time>
      </trkpt>
      <trkpt lat="42.476075012236834" lon="2.66779700294137">
        <ele>217.88</ele>
        <time>2025-05-15T10:02:05Z</time>
      </trkpt>
      <trkpt lat="42.476148018613458" lon="2.667593993246555">
        <ele>218.36000000000001</ele>
        <time>2025-05-15T10:02:07Z</time>
      </trkpt>
      <trkpt lat="42.47628103941679" lon="2.667226027697325">
        <ele>220.28</ele>
        <time>2025-05-15T10:02:11Z</time>
      </trkpt>
      <trkpt lat="42.476349016651511" lon="2.667035004124045">
        <ele>220.75999999999999</ele>
        <time>2025-05-15T10:02:13Z</time>
      </trkpt>
      <trkpt lat="42.476397966966033" lon="2.666837023571134">
        <ele>221.24000000000001</ele>
        <time>2025-05-15T10:02:15Z</time>
      </trkpt>
      <trkpt lat="42.476420011371374" lon="2.666736021637917">
        <ele>221.24000000000001</ele>
        <time>2025-05-15T10:02:16Z</time>
      </trkpt>
      <trkpt lat="42.476507015526295" lon="2.666341988369823">
        <ele>222.68000000000001</ele>
        <time>2025-05-15T10:02:20Z</time>
      </trkpt>
      <trkpt lat="42.47651900164783" lon="2.666260013356805">
        <ele>223.16</ele>
        <time>2025-05-15T10:02:21Z</time>
      </trkpt>
      <trkpt lat="42.476527970284224" lon="2.666174015030265">
        <ele>223.63999999999999</ele>
        <time>2025-05-15T10:02:22Z</time>
      </trkpt>
      <trkpt lat="42.476538028568029" lon="2.666081981733441">
        <ele>224.12</ele>
        <time>2025-05-15T10:02:23Z</time>
      </trkpt>
      <trkpt lat="42.476546997204423" lon="2.66599296592176">
        <ele>224.61000000000001</ele>
        <time>2025-05-15T10:02:24Z</time>
      </trkpt>
      <trkpt lat="42.476556971669197" lon="2.665902022272348">
        <ele>225.09</ele>
        <time>2025-05-15T10:02:25Z</time>
      </trkpt>
      <trkpt lat="42.476520007476211" lon="2.665459038689733">
        <ele>228.93000000000001</ele>
        <time>2025-05-15T10:02:33Z</time>
      </trkpt>
      <trkpt lat="42.476470973342657" lon="2.665211018174887">
        <ele>230.37</ele>
        <time>2025-05-15T10:02:37Z</time>
      </trkpt>
      <trkpt lat="42.476452030241489" lon="2.665128959342837">
        <ele>230.37</ele>
        <time>2025-05-15T10:02:38Z</time>
      </trkpt>
      <trkpt lat="42.47639000415802" lon="2.664876999333501">
        <ele>228.44999999999999</ele>
        <time>2025-05-15T10:02:42Z</time>
      </trkpt>
      <trkpt lat="42.476379023864865" lon="2.664829976856709">
        <ele>228.44999999999999</ele>
        <time>2025-05-15T10:02:43Z</time>
      </trkpt>
      <trkpt lat="42.476370977237821" lon="2.664798041805625">
        <ele>228.44999999999999</ele>
        <time>2025-05-15T10:02:44Z</time>
      </trkpt>
      <trkpt lat="42.476370977237821" lon="2.664798041805625">
        <ele>227.00999999999999</ele>
        <time>2025-05-15T10:02:54Z</time>
      </trkpt>
      <trkpt lat="42.47628103941679" lon="2.664504004642367">
        <ele>223.63999999999999</ele>
        <time>2025-05-15T10:03:06Z</time>
      </trkpt>
      <trkpt lat="42.476221024990082" lon="2.664332007989287">
        <ele>224.61000000000001</ele>
        <time>2025-05-15T10:03:10Z</time>
      </trkpt>
      <trkpt lat="42.476205015555024" lon="2.664286997169256">
        <ele>224.61000000000001</ele>
        <time>2025-05-15T10:03:11Z</time>
      </trkpt>
      <trkpt lat="42.476167967543006" lon="2.664179960265756">
        <ele>224.61000000000001</ele>
        <time>2025-05-15T10:03:14Z</time>
      </trkpt>
      <trkpt lat="42.476160004734993" lon="2.664156993851066">
        <ele>225.09</ele>
        <time>2025-05-15T10:03:15Z</time>
      </trkpt>
      <trkpt lat="42.476041987538338" lon="2.66382004134357">
        <ele>226.05000000000001</ele>
        <time>2025-05-15T10:03:23Z</time>
      </trkpt>
      <trkpt lat="42.476034024730325" lon="2.663795985281467">
        <ele>226.05000000000001</ele>
        <time>2025-05-15T10:03:24Z</time>
      </trkpt>
      <trkpt lat="42.475987002253532" lon="2.663857005536556">
        <ele>226.05000000000001</ele>
        <time>2025-05-15T10:03:25Z</time>
      </trkpt>
      <trkpt lat="42.475953977555037" lon="2.663879971951246">
        <ele>226.05000000000001</ele>
        <time>2025-05-15T10:03:26Z</time>
      </trkpt>
      <trkpt lat="42.475919025018811" lon="2.663903022184968">
        <ele>225.56999999999999</ele>
        <time>2025-05-15T10:03:27Z</time>
      </trkpt>
      <trkpt lat="42.475884994491935" lon="2.663926994428039">
        <ele>225.09</ele>
        <time>2025-05-15T10:03:28Z</time>
      </trkpt>
      <trkpt lat="42.475754991173744" lon="2.66401500441134">
        <ele>223.16</ele>
        <time>2025-05-15T10:03:33Z</time>
      </trkpt>
      <trkpt lat="42.475732024759054" lon="2.664031013846397">
        <ele>223.16</ele>
        <time>2025-05-15T10:03:34Z</time>
      </trkpt>
      <trkpt lat="42.475705035030842" lon="2.664050040766597">
        <ele>222.68000000000001</ele>
        <time>2025-05-15T10:03:35Z</time>
      </trkpt>
      <trkpt lat="42.475649965927005" lon="2.664087004959583">
        <ele>221.72</ele>
        <time>2025-05-15T10:03:37Z</time>
      </trkpt>
      <trkpt lat="42.475628005340695" lon="2.66410200856626">
        <ele>221.24000000000001</ele>
        <time>2025-05-15T10:03:38Z</time>
      </trkpt>
      <trkpt lat="42.475605038926005" lon="2.664117012172937">
        <ele>220.75999999999999</ele>
        <time>2025-05-15T10:03:39Z</time>
      </trkpt>
      <trkpt lat="42.47553002089262" lon="2.664097985252738">
        <ele>220.28</ele>
        <time>2025-05-15T10:03:40Z</time>
      </trkpt>
      <trkpt lat="42.475504036992788" lon="2.664068983867765">
        <ele>220.28</ele>
        <time>2025-05-15T10:03:41Z</time>
      </trkpt>
      <trkpt lat="42.475479980930686" lon="2.664041994139552">
        <ele>219.80000000000001</ele>
        <time>2025-05-15T10:03:42Z</time>
      </trkpt>
      <trkpt lat="42.475453997030854" lon="2.664013998582959">
        <ele>219.31999999999999</ele>
        <time>2025-05-15T10:03:43Z</time>
      </trkpt>
      <trkpt lat="42.475374033674598" lon="2.663928000256419">
        <ele>218.36000000000001</ele>
        <time>2025-05-15T10:03:46Z</time>
      </trkpt>
      <trkpt lat="42.475332962349057" lon="2.663937974721193">
        <ele>218.36000000000001</ele>
        <time>2025-05-15T10:03:47Z</time>
      </trkpt>
      <trkpt lat="42.475288035348058" lon="2.663950966671109">
        <ele>218.36000000000001</ele>
        <time>2025-05-15T10:03:48Z</time>
      </trkpt>
      <trkpt lat="42.474977988749743" lon="2.664303006604314">
        <ele>218.36000000000001</ele>
        <time>2025-05-15T10:03:55Z</time>
      </trkpt>
      <trkpt lat="42.47495099902153" lon="2.664333013817668">
        <ele>218.36000000000001</ele>
        <time>2025-05-15T10:03:56Z</time>
      </trkpt>
      <trkpt lat="42.47495099902153" lon="2.664333013817668">
        <ele>218.36000000000001</ele>
        <time>2025-05-15T10:03:57Z</time>
      </trkpt>
      <trkpt lat="42.47495099902153" lon="2.664333013817668">
        <ele>218.36000000000001</ele>
        <time>2025-05-15T10:04:14Z</time>
      </trkpt>
      <trkpt lat="42.474854020401835" lon="2.664441978558898">
        <ele>220.75999999999999</ele>
        <time>2025-05-15T10:04:35Z</time>
      </trkpt>
      <trkpt lat="42.474816972389817" lon="2.664483971893787">
        <ele>220.75999999999999</ele>
        <time>2025-05-15T10:04:36Z</time>
      </trkpt>
      <trkpt lat="42.474766010418534" lon="2.664452958852053">
        <ele>221.24000000000001</ele>
        <time>2025-05-15T10:04:37Z</time>
      </trkpt>
      <trkpt lat="42.474744971841574" lon="2.664419012144208">
        <ele>221.72</ele>
        <time>2025-05-15T10:04:38Z</time>
      </trkpt>
      <trkpt lat="42.474744971841574" lon="2.664419012144208">
        <ele>221.72</ele>
        <time>2025-05-15T10:04:39Z</time>
      </trkpt>
      <trkpt lat="42.47467297129333" lon="2.664300994947553">
        <ele>221.72</ele>
        <time>2025-05-15T10:04:40Z</time>
      </trkpt>
      <trkpt lat="42.474179025739431" lon="2.663555005565286">
        <ele>223.16</ele>
        <time>2025-05-15T10:04:47Z</time>
      </trkpt>
      <trkpt lat="42.474096966907382" lon="2.663431959226728">
        <ele>223.16</ele>
        <time>2025-05-15T10:04:48Z</time>
      </trkpt>
      <trkpt lat="42.474008034914732" lon="2.663315031677485">
        <ele>223.63999999999999</ele>
        <time>2025-05-15T10:04:49Z</time>
      </trkpt>
      <trkpt lat="42.47391901910305" lon="2.663256023079157">
        <ele>223.63999999999999</ele>
        <time>2025-05-15T10:04:50Z</time>
      </trkpt>
      <trkpt lat="42.473760014399886" lon="2.663167007267475">
        <ele>224.12</ele>
        <time>2025-05-15T10:04:52Z</time>
      </trkpt>
      <trkpt lat="42.473680973052979" lon="2.663132976740599">
        <ele>224.61000000000001</ele>
        <time>2025-05-15T10:04:53Z</time>
      </trkpt>
      <trkpt lat="42.473493972793221" lon="2.663127025589347">
        <ele>225.09</ele>
        <time>2025-05-15T10:04:55Z</time>
      </trkpt>
      <trkpt lat="42.47340302914381" lon="2.663089977577329">
        <ele>225.56999999999999</ele>
        <time>2025-05-15T10:04:56Z</time>
      </trkpt>
      <trkpt lat="42.473301021382213" lon="2.663028035312891">
        <ele>225.56999999999999</ele>
        <time>2025-05-15T10:04:57Z</time>
      </trkpt>
      <trkpt lat="42.472399966791272" lon="2.662452030926943">
        <ele>227.49000000000001</ele>
        <time>2025-05-15T10:05:05Z</time>
      </trkpt>
      <trkpt lat="42.472280021756887" lon="2.662397967651486">
        <ele>227.49000000000001</ele>
        <time>2025-05-15T10:05:06Z</time>
      </trkpt>
      <trkpt lat="42.47215898707509" lon="2.662367038428783">
        <ele>227.97</ele>
        <time>2025-05-15T10:05:07Z</time>
      </trkpt>
      <trkpt lat="42.472027977928519" lon="2.662342982366681">
        <ele>227.97</ele>
        <time>2025-05-15T10:05:08Z</time>
      </trkpt>
      <trkpt lat="42.471891017630696" lon="2.662362009286881">
        <ele>228.44999999999999</ele>
        <time>2025-05-15T10:05:09Z</time>
      </trkpt>
      <trkpt lat="42.471755985170603" lon="2.662400985136628">
        <ele>228.93000000000001</ele>
        <time>2025-05-15T10:05:10Z</time>
      </trkpt>
      <trkpt lat="42.471625981852412" lon="2.662468962371349">
        <ele>228.93000000000001</ele>
        <time>2025-05-15T10:05:11Z</time>
      </trkpt>
      <trkpt lat="42.471492039039731" lon="2.662526965141296">
        <ele>229.41</ele>
        <time>2025-05-15T10:05:12Z</time>
      </trkpt>
      <trkpt lat="42.471358012408018" lon="2.662558984011412">
        <ele>229.88999999999999</ele>
        <time>2025-05-15T10:05:13Z</time>
      </trkpt>
      <trkpt lat="42.471220968291163" lon="2.662592008709908">
        <ele>230.37</ele>
        <time>2025-05-15T10:05:14Z</time>
      </trkpt>
      <trkpt lat="42.471074033528566" lon="2.662626961246133">
        <ele>230.84999999999999</ele>
        <time>2025-05-15T10:05:15Z</time>
      </trkpt>
      <trkpt lat="42.470917962491512" lon="2.662612041458488">
        <ele>231.33000000000001</ele>
        <time>2025-05-15T10:05:16Z</time>
      </trkpt>
      <trkpt lat="42.470756024122238" lon="2.662558984011412">
        <ele>231.33000000000001</ele>
        <time>2025-05-15T10:05:17Z</time>
      </trkpt>
      <trkpt lat="42.470595007762313" lon="2.662468040362001">
        <ele>231.33000000000001</ele>
        <time>2025-05-15T10:05:18Z</time>
      </trkpt>
      <trkpt lat="42.469925964251161" lon="2.662038970738649">
        <ele>230.84999999999999</ele>
        <time>2025-05-15T10:05:22Z</time>
      </trkpt>
      <trkpt lat="42.469636034220457" lon="2.661764966323972">
        <ele>229.88999999999999</ele>
        <time>2025-05-15T10:05:24Z</time>
      </trkpt>
      <trkpt lat="42.469509970396757" lon="2.661617025732994">
        <ele>229.41</ele>
        <time>2025-05-15T10:05:25Z</time>
      </trkpt>
      <trkpt lat="42.469395976513624" lon="2.661479981616139">
        <ele>228.93000000000001</ele>
        <time>2025-05-15T10:05:26Z</time>
      </trkpt>
      <trkpt lat="42.469293968752027" lon="2.661335980519652">
        <ele>228.44999999999999</ele>
        <time>2025-05-15T10:05:27Z</time>
      </trkpt>
      <trkpt lat="42.46919296681881" lon="2.661191979423165">
        <ele>228.44999999999999</ele>
        <time>2025-05-15T10:05:28Z</time>
      </trkpt>
      <trkpt lat="42.469114009290934" lon="2.661038003861904">
        <ele>227.97</ele>
        <time>2025-05-15T10:05:29Z</time>
      </trkpt>
      <trkpt lat="42.469047959893942" lon="2.660872964188457">
        <ele>227.49000000000001</ele>
        <time>2025-05-15T10:05:30Z</time>
      </trkpt>
      <trkpt lat="42.468979982659221" lon="2.660699961706996">
        <ele>227.00999999999999</ele>
        <time>2025-05-15T10:05:31Z</time>
      </trkpt>
      <trkpt lat="42.46880597434938" lon="2.660184977576137">
        <ele>227.49000000000001</ele>
        <time>2025-05-15T10:05:34Z</time>
      </trkpt>
      <trkpt lat="42.46872098185122" lon="2.660013986751437">
        <ele>227.97</ele>
        <time>2025-05-15T10:05:35Z</time>
      </trkpt>
      <trkpt lat="42.468640012666583" lon="2.659832015633583">
        <ele>228.44999999999999</ele>
        <time>2025-05-15T10:05:36Z</time>
      </trkpt>
      <trkpt lat="42.467957977205515" lon="2.658211961388588">
        <ele>233.74000000000001</ele>
        <time>2025-05-15T10:05:45Z</time>
      </trkpt>
      <trkpt lat="42.467620018869638" lon="2.65666801482439">
        <ele>239.50999999999999</ele>
        <time>2025-05-15T10:05:55Z</time>
      </trkpt>
      <trkpt lat="42.467246018350124" lon="2.654943019151688">
        <ele>240.94999999999999</ele>
        <time>2025-05-15T10:06:06Z</time>
      </trkpt>
      <trkpt lat="42.466853996738791" lon="2.653054995462298">
        <ele>245.27000000000001</ele>
        <time>2025-05-15T10:06:18Z</time>
      </trkpt>
      <trkpt lat="42.466448983177543" lon="2.651170995086432">
        <ele>248.63999999999999</ele>
        <time>2025-05-15T10:06:30Z</time>
      </trkpt>
      <trkpt lat="42.46609702706337" lon="2.649681027978659">
        <ele>250.08000000000001</ele>
        <time>2025-05-15T10:06:38Z</time>
      </trkpt>
      <trkpt lat="42.46541297994554" lon="2.648101961240172">
        <ele>252</ele>
        <time>2025-05-15T10:06:46Z</time>
      </trkpt>
      <trkpt lat="42.464609993621707" lon="2.646336983889341">
        <ele>255.84999999999999</ele>
        <time>2025-05-15T10:06:54Z</time>
      </trkpt>
      <trkpt lat="42.46446599252522" lon="2.646192982792854">
        <ele>255.84999999999999</ele>
        <time>2025-05-15T10:06:55Z</time>
      </trkpt>
      <trkpt lat="42.4643150344491" lon="2.646042024716735">
        <ele>256.81</ele>
        <time>2025-05-15T10:06:56Z</time>
      </trkpt>
      <trkpt lat="42.463941033929586" lon="2.645668024197221">
        <ele>257.76999999999998</ele>
        <time>2025-05-15T10:06:59Z</time>
      </trkpt>
      <trkpt lat="42.463896023109555" lon="2.645622007548809">
        <ele>257.76999999999998</ele>
        <time>2025-05-15T10:07:00Z</time>
      </trkpt>
      <trkpt lat="42.463865010067821" lon="2.645484963431954">
        <ele>257.76999999999998</ele>
        <time>2025-05-15T10:07:02Z</time>
      </trkpt>
      <trkpt lat="42.46384397149086" lon="2.645397037267685">
        <ele>258.25</ele>
        <time>2025-05-15T10:07:03Z</time>
      </trkpt>
      <trkpt lat="42.463836008682847" lon="2.645310033112764">
        <ele>258.25</ele>
        <time>2025-05-15T10:07:04Z</time>
      </trkpt>
      <trkpt lat="42.463928963989019" lon="2.644446026533842">
        <ele>259.69</ele>
        <time>2025-05-15T10:07:10Z</time>
      </trkpt>
      <trkpt lat="42.463946985080838" lon="2.644272018224001">
        <ele>259.69</ele>
        <time>2025-05-15T10:07:11Z</time>
      </trkpt>
      <trkpt lat="42.463953020051122" lon="2.644093986600637">
        <ele>259.20999999999998</ele>
        <time>2025-05-15T10:07:12Z</time>
      </trkpt>
      <trkpt lat="42.463897028937936" lon="2.64390698634088">
        <ele>259.20999999999998</ele>
        <time>2025-05-15T10:07:13Z</time>
      </trkpt>
      <trkpt lat="42.463756967335939" lon="2.643317990005016">
        <ele>258.73000000000002</ele>
        <time>2025-05-15T10:07:16Z</time>
      </trkpt>
      <trkpt lat="42.46373500674963" lon="2.643091008067131">
        <ele>258.73000000000002</ele>
        <time>2025-05-15T10:07:17Z</time>
      </trkpt>
      <trkpt lat="42.463755961507559" lon="2.642868971452117">
        <ele>258.25</ele>
        <time>2025-05-15T10:07:18Z</time>
      </trkpt>
      <trkpt lat="42.463815975934267" lon="2.642647018656135">
        <ele>258.25</ele>
        <time>2025-05-15T10:07:19Z</time>
      </trkpt>
      <trkpt lat="42.463873978704214" lon="2.642430011183024">
        <ele>258.25</ele>
        <time>2025-05-15T10:07:20Z</time>
      </trkpt>
      <trkpt lat="42.463928963989019" lon="2.642223984003067">
        <ele>258.25</ele>
        <time>2025-05-15T10:07:21Z</time>
      </trkpt>
      <trkpt lat="42.463968023657799" lon="2.642018040642142">
        <ele>258.25</ele>
        <time>2025-05-15T10:07:22Z</time>
      </trkpt>
      <trkpt lat="42.463981015607715" lon="2.641805978491902">
        <ele>258.25</ele>
        <time>2025-05-15T10:07:23Z</time>
      </trkpt>
      <trkpt lat="42.463960982859135" lon="2.641568016260862">
        <ele>258.25</ele>
        <time>2025-05-15T10:07:24Z</time>
      </trkpt>
      <trkpt lat="42.463905997574329" lon="2.641394007951021">
        <ele>258.25</ele>
        <time>2025-05-15T10:07:25Z</time>
      </trkpt>
      <trkpt lat="42.463845983147621" lon="2.641204996034503">
        <ele>257.76999999999998</ele>
        <time>2025-05-15T10:07:26Z</time>
      </trkpt>
      <trkpt lat="42.463640039786696" lon="2.640421036630869">
        <ele>258.73000000000002</ele>
        <time>2025-05-15T10:07:30Z</time>
      </trkpt>
      <trkpt lat="42.463587988168001" lon="2.640245016664267">
        <ele>258.73000000000002</ele>
        <time>2025-05-15T10:07:31Z</time>
      </trkpt>
      <trkpt lat="42.46354297734797" lon="2.640078971162438">
        <ele>259.20999999999998</ele>
        <time>2025-05-15T10:07:32Z</time>
      </trkpt>
      <trkpt lat="42.463424038141966" lon="2.639644034206867">
        <ele>259.20999999999998</ele>
        <time>2025-05-15T10:07:35Z</time>
      </trkpt>
      <trkpt lat="42.463381960988045" lon="2.639507995918393">
        <ele>259.20999999999998</ele>
        <time>2025-05-15T10:07:36Z</time>
      </trkpt>
      <trkpt lat="42.463015001267195" lon="2.638852028176189">
        <ele>260.64999999999998</ele>
        <time>2025-05-15T10:07:42Z</time>
      </trkpt>
      <trkpt lat="42.462934032082558" lon="2.638752032071352">
        <ele>260.64999999999998</ele>
        <time>2025-05-15T10:07:43Z</time>
      </trkpt>
      <trkpt lat="42.462184019386768" lon="2.637913003563881">
        <ele>262.57999999999998</ele>
        <time>2025-05-15T10:07:51Z</time>
      </trkpt>
      <trkpt lat="42.46137198060751" lon="2.637076992541552">
        <ele>265.45999999999998</ele>
        <time>2025-05-15T10:08:00Z</time>
      </trkpt>
      <trkpt lat="42.461292017251253" lon="2.637013960629702">
        <ele>265.94</ele>
        <time>2025-05-15T10:08:01Z</time>
      </trkpt>
      <trkpt lat="42.460922040045261" lon="2.636669967323542">
        <ele>266.89999999999998</ele>
        <time>2025-05-15T10:08:06Z</time>
      </trkpt>
      <trkpt lat="42.460840987041593" lon="2.636611964553595">
        <ele>267.38</ele>
        <time>2025-05-15T10:08:07Z</time>
      </trkpt>
      <trkpt lat="42.460530018433928" lon="2.636392023414373">
        <ele>268.35000000000002</ele>
        <time>2025-05-15T10:08:11Z</time>
      </trkpt>
      <trkpt lat="42.460458017885685" lon="2.636339971795678">
        <ele>268.35000000000002</ele>
        <time>2025-05-15T10:08:12Z</time>
      </trkpt>
      <trkpt lat="42.459587976336479" lon="2.635926995426416">
        <ele>270.26999999999998</ele>
        <time>2025-05-15T10:08:23Z</time>
      </trkpt>
      <trkpt lat="42.458670996129513" lon="2.63550597243011">
        <ele>273.14999999999998</ele>
        <time>2025-05-15T10:08:34Z</time>
      </trkpt>
      <trkpt lat="42.458529006689787" lon="2.635363982990384">
        <ele>273.14999999999998</ele>
        <time>2025-05-15T10:08:36Z</time>
      </trkpt>
      <trkpt lat="42.458376958966255" lon="2.635248983278871">
        <ele>274.11000000000001</ele>
        <time>2025-05-15T10:08:38Z</time>
      </trkpt>
      <trkpt lat="42.458238992840052" lon="2.635157033801079">
        <ele>274.58999999999997</ele>
        <time>2025-05-15T10:08:40Z</time>
      </trkpt>
      <trkpt lat="42.458173027262092" lon="2.635113028809428">
        <ele>274.58999999999997</ele>
        <time>2025-05-15T10:08:41Z</time>
      </trkpt>
      <trkpt lat="42.458108989521861" lon="2.635070029646158">
        <ele>275.06999999999999</ele>
        <time>2025-05-15T10:08:42Z</time>
      </trkpt>
      <trkpt lat="42.458047969266772" lon="2.635029964148998">
        <ele>275.56</ele>
        <time>2025-05-15T10:08:43Z</time>
      </trkpt>
      <trkpt lat="42.457974040880799" lon="2.634981013834477">
        <ele>275.56</ele>
        <time>2025-05-15T10:08:44Z</time>
      </trkpt>
      <trkpt lat="42.457905979827046" lon="2.634957963600755">
        <ele>276.04000000000002</ele>
        <time>2025-05-15T10:08:45Z</time>
      </trkpt>
      <trkpt lat="42.457821993157268" lon="2.634933991357684">
        <ele>276.51999999999998</ele>
        <time>2025-05-15T10:08:46Z</time>
      </trkpt>
      <trkpt lat="42.457748986780643" lon="2.634922005236149">
        <ele>277</ele>
        <time>2025-05-15T10:08:47Z</time>
      </trkpt>
      <trkpt lat="42.457706993445754" lon="2.63490398414433">
        <ele>277.48000000000002</ele>
        <time>2025-05-15T10:08:48Z</time>
      </trkpt>
      <trkpt lat="42.457674974575639" lon="2.634862996637821">
        <ele>277.95999999999998</ele>
        <time>2025-05-15T10:08:49Z</time>
      </trkpt>
      <trkpt lat="42.457630969583988" lon="2.634809017181397">
        <ele>278.92000000000002</ele>
        <time>2025-05-15T10:08:50Z</time>
      </trkpt>
      <trkpt lat="42.457630969583988" lon="2.634742967784405">
        <ele>279.39999999999998</ele>
        <time>2025-05-15T10:08:51Z</time>
      </trkpt>
      <trkpt lat="42.457630969583988" lon="2.634637020528317">
        <ele>279.39999999999998</ele>
        <time>2025-05-15T10:08:52Z</time>
      </trkpt>
      <trkpt lat="42.457624012604356" lon="2.634531995281577">
        <ele>279.88</ele>
        <time>2025-05-15T10:08:53Z</time>
      </trkpt>
      <trkpt lat="42.457604985684156" lon="2.634424958378077">
        <ele>279.88</ele>
        <time>2025-05-15T10:08:54Z</time>
      </trkpt>
      <trkpt lat="42.457585958763957" lon="2.634316999465227">
        <ele>280.36000000000001</ele>
        <time>2025-05-15T10:08:55Z</time>
      </trkpt>
      <trkpt lat="42.457567015662789" lon="2.634208034723997">
        <ele>280.83999999999997</ele>
        <time>2025-05-15T10:08:56Z</time>
      </trkpt>
      <trkpt lat="42.457358976826072" lon="2.63387099839747">
        <ele>282.76999999999998</ele>
        <time>2025-05-15T10:09:00Z</time>
      </trkpt>
      <trkpt lat="42.457253029569983" lon="2.633697995916009">
        <ele>283.73000000000002</ele>
        <time>2025-05-15T10:09:02Z</time>
      </trkpt>
      <trkpt lat="42.457188991829753" lon="2.63363596983254">
        <ele>284.20999999999998</ele>
        <time>2025-05-15T10:09:03Z</time>
      </trkpt>
      <trkpt lat="42.457105005159974" lon="2.633600011467934">
        <ele>285.17000000000002</ele>
        <time>2025-05-15T10:09:04Z</time>
      </trkpt>
      <trkpt lat="42.457024035975337" lon="2.633565980941057">
        <ele>285.64999999999998</ele>
        <time>2025-05-15T10:09:05Z</time>
      </trkpt>
      <trkpt lat="42.456942982971668" lon="2.633532034233213">
        <ele>286.13</ele>
        <time>2025-05-15T10:09:06Z</time>
      </trkpt>
      <trkpt lat="42.45686000213027" lon="2.633495992049575">
        <ele>286.61000000000001</ele>
        <time>2025-05-15T10:09:07Z</time>
      </trkpt>
      <trkpt lat="42.456780960783362" lon="2.633462967351079">
        <ele>287.08999999999997</ele>
        <time>2025-05-15T10:09:08Z</time>
      </trkpt>
      <trkpt lat="42.456625979393721" lon="2.63339901342988">
        <ele>288.05000000000001</ele>
        <time>2025-05-15T10:09:10Z</time>
      </trkpt>
      <trkpt lat="42.45655900798738" lon="2.633372023701668">
        <ele>289.00999999999999</ele>
        <time>2025-05-15T10:09:11Z</time>
      </trkpt>
      <trkpt lat="42.45649597607553" lon="2.633346039801836">
        <ele>289.97000000000003</ele>
        <time>2025-05-15T10:09:12Z</time>
      </trkpt>
      <trkpt lat="42.456432022154331" lon="2.633271021768451">
        <ele>290.45999999999998</ele>
        <time>2025-05-15T10:09:13Z</time>
      </trkpt>
      <trkpt lat="42.456396985799074" lon="2.633167002350092">
        <ele>290.94</ele>
        <time>2025-05-15T10:09:14Z</time>
      </trkpt>
      <trkpt lat="42.456361027434468" lon="2.633058037608862">
        <ele>291.42000000000002</ele>
        <time>2025-05-15T10:09:15Z</time>
      </trkpt>
      <trkpt lat="42.456328002735972" lon="2.632943959906697">
        <ele>291.89999999999998</ele>
        <time>2025-05-15T10:09:16Z</time>
      </trkpt>
      <trkpt lat="42.456044023856521" lon="2.631798991933465">
        <ele>295.25999999999999</ele>
        <time>2025-05-15T10:09:26Z</time>
      </trkpt>
      <trkpt lat="42.455879990011454" lon="2.631273027509451">
        <ele>295.74000000000001</ele>
        <time>2025-05-15T10:09:30Z</time>
      </trkpt>
      <trkpt lat="42.45561202056706" lon="2.630645977333188">
        <ele>295.74000000000001</ele>
        <time>2025-05-15T10:09:35Z</time>
      </trkpt>
      <trkpt lat="42.455518981441855" lon="2.630443973466754">
        <ele>295.74000000000001</ele>
        <time>2025-05-15T10:09:37Z</time>
      </trkpt>
      <trkpt lat="42.455388978123665" lon="2.630143985152245">
        <ele>295.74000000000001</ele>
        <time>2025-05-15T10:09:40Z</time>
      </trkpt>
      <trkpt lat="42.454843986779451" lon="2.628962974995375">
        <ele>295.74000000000001</ele>
        <time>2025-05-15T10:09:50Z</time>
      </trkpt>
      <trkpt lat="42.454506028443575" lon="2.627881038933992">
        <ele>295.25999999999999</ele>
        <time>2025-05-15T10:09:58Z</time>
      </trkpt>
      <trkpt lat="42.454480966553092" lon="2.627749023959041">
        <ele>295.25999999999999</ele>
        <time>2025-05-15T10:09:59Z</time>
      </trkpt>
      <trkpt lat="42.454459005966783" lon="2.627627989277244">
        <ele>295.25999999999999</ele>
        <time>2025-05-15T10:10:00Z</time>
      </trkpt>
      <trkpt lat="42.454438973218203" lon="2.627517012879252">
        <ele>295.25999999999999</ele>
        <time>2025-05-15T10:10:01Z</time>
      </trkpt>
      <trkpt lat="42.454434027895331" lon="2.627298999577761">
        <ele>295.74000000000001</ele>
        <time>2025-05-15T10:10:03Z</time>
      </trkpt>
      <trkpt lat="42.454444002360106" lon="2.626065015792847">
        <ele>298.14999999999998</ele>
        <time>2025-05-15T10:10:15Z</time>
      </trkpt>
      <trkpt lat="42.454476021230221" lon="2.625121967867017">
        <ele>298.63</ele>
        <time>2025-05-15T10:10:22Z</time>
      </trkpt>
      <trkpt lat="42.454449031502008" lon="2.62499900534749">
        <ele>298.14999999999998</ele>
        <time>2025-05-15T10:10:23Z</time>
      </trkpt>
      <trkpt lat="42.454380970448256" lon="2.624728018417954">
        <ele>298.14999999999998</ele>
        <time>2025-05-15T10:10:25Z</time>
      </trkpt>
      <trkpt lat="42.45434501208365" lon="2.624582005664706">
        <ele>298.63</ele>
        <time>2025-05-15T10:10:26Z</time>
      </trkpt>
      <trkpt lat="42.454177038744092" lon="2.623909022659063">
        <ele>297.67000000000002</ele>
        <time>2025-05-15T10:10:30Z</time>
      </trkpt>
      <trkpt lat="42.45398199185729" lon="2.623150963336229">
        <ele>295.74000000000001</ele>
        <time>2025-05-15T10:10:35Z</time>
      </trkpt>
      <trkpt lat="42.453950978815556" lon="2.623006040230393">
        <ele>295.25999999999999</ele>
        <time>2025-05-15T10:10:36Z</time>
      </trkpt>
      <trkpt lat="42.453907979652286" lon="2.622867990285158">
        <ele>294.77999999999997</ele>
        <time>2025-05-15T10:10:37Z</time>
      </trkpt>
      <trkpt lat="42.453842014074326" lon="2.622737986966968">
        <ele>294.30000000000001</ele>
        <time>2025-05-15T10:10:38Z</time>
      </trkpt>
      <trkpt lat="42.453762972727418" lon="2.622614018619061">
        <ele>293.33999999999997</ele>
        <time>2025-05-15T10:10:39Z</time>
      </trkpt>
      <trkpt lat="42.453665994107723" lon="2.622503964230418">
        <ele>292.86000000000001</ele>
        <time>2025-05-15T10:10:40Z</time>
      </trkpt>
      <trkpt lat="42.453349996358156" lon="2.622142033651471">
        <ele>290.94</ele>
        <time>2025-05-15T10:10:43Z</time>
      </trkpt>
      <trkpt lat="42.453239019960165" lon="2.621993003413081">
        <ele>290.45999999999998</ele>
        <time>2025-05-15T10:10:44Z</time>
      </trkpt>
      <trkpt lat="42.452653041109443" lon="2.621119022369385">
        <ele>289.00999999999999</ele>
        <time>2025-05-15T10:10:49Z</time>
      </trkpt>
      <trkpt lat="42.452518008649349" lon="2.620983989909291">
        <ele>289.00999999999999</ele>
        <time>2025-05-15T10:10:50Z</time>
      </trkpt>
      <trkpt lat="42.452374007552862" lon="2.620839988812804">
        <ele>289.00999999999999</ele>
        <time>2025-05-15T10:10:51Z</time>
      </trkpt>
      <trkpt lat="42.452236041426659" lon="2.620702022686601">
        <ele>289.00999999999999</ele>
        <time>2025-05-15T10:10:52Z</time>
      </trkpt>
      <trkpt lat="42.452082987874746" lon="2.620548969134688">
        <ele>289.49000000000001</ele>
        <time>2025-05-15T10:10:53Z</time>
      </trkpt>
      <trkpt lat="42.450246009975672" lon="2.618760019540787">
        <ele>291.42000000000002</ele>
        <time>2025-05-15T10:11:04Z</time>
      </trkpt>
      <trkpt lat="42.448861990123987" lon="2.617297964170575">
        <ele>294.30000000000001</ele>
        <time>2025-05-15T10:11:13Z</time>
      </trkpt>
      <trkpt lat="42.448807004839182" lon="2.61713501997292">
        <ele>294.30000000000001</ele>
        <time>2025-05-15T10:11:14Z</time>
      </trkpt>
      <trkpt lat="42.448799964040518" lon="2.61698598973453">
        <ele>294.30000000000001</ele>
        <time>2025-05-15T10:11:15Z</time>
      </trkpt>
      <trkpt lat="42.448816979303956" lon="2.616835031658411">
        <ele>294.77999999999997</ele>
        <time>2025-05-15T10:11:16Z</time>
      </trkpt>
      <trkpt lat="42.448872970417142" lon="2.616666974499822">
        <ele>294.77999999999997</ele>
        <time>2025-05-15T10:11:17Z</time>
      </trkpt>
      <trkpt lat="42.448955029249191" lon="2.616500006988645">
        <ele>295.25999999999999</ele>
        <time>2025-05-15T10:11:18Z</time>
      </trkpt>
      <trkpt lat="42.449064999818802" lon="2.616322981193662">
        <ele>295.74000000000001</ele>
        <time>2025-05-15T10:11:19Z</time>
      </trkpt>
      <trkpt lat="42.449184022843838" lon="2.616131035611033">
        <ele>296.22000000000003</ele>
        <time>2025-05-15T10:11:20Z</time>
      </trkpt>
      <trkpt lat="42.449310002848506" lon="2.615938000380993">
        <ele>296.69999999999999</ele>
        <time>2025-05-15T10:11:21Z</time>
      </trkpt>
      <trkpt lat="42.449454003944993" lon="2.615763992071152">
        <ele>296.69999999999999</ele>
        <time>2025-05-15T10:11:22Z</time>
      </trkpt>
      <trkpt lat="42.449838984757662" lon="2.615324025973678">
        <ele>297.67000000000002</ele>
        <time>2025-05-15T10:11:25Z</time>
      </trkpt>
      <trkpt lat="42.449975023046136" lon="2.615245990455151">
        <ele>298.14999999999998</ele>
        <time>2025-05-15T10:11:26Z</time>
      </trkpt>
      <trkpt lat="42.450104020535946" lon="2.615174995735288">
        <ele>298.63</ele>
        <time>2025-05-15T10:11:27Z</time>
      </trkpt>
      <trkpt lat="42.450259001925588" lon="2.615181030705571">
        <ele>299.11000000000001</ele>
        <time>2025-05-15T10:11:28Z</time>
      </trkpt>
      <trkpt lat="42.450424041599035" lon="2.615186981856823">
        <ele>300.06999999999999</ele>
        <time>2025-05-15T10:11:29Z</time>
      </trkpt>
      <trkpt lat="42.451171036809683" lon="2.615212965756655">
        <ele>301.50999999999999</ele>
        <time>2025-05-15T10:11:33Z</time>
      </trkpt>
      <trkpt lat="42.451325012370944" lon="2.615216989070177">
        <ele>301.50999999999999</ele>
        <time>2025-05-15T10:11:34Z</time>
      </trkpt>
      <trkpt lat="42.451486028730869" lon="2.615149011835456">
        <ele>301.99000000000001</ele>
        <time>2025-05-15T10:11:35Z</time>
      </trkpt>
      <trkpt lat="42.452161023393273" lon="2.614864027127624">
        <ele>304.38999999999999</ele>
        <time>2025-05-15T10:11:39Z</time>
      </trkpt>
      <trkpt lat="42.452459000051022" lon="2.614661017432809">
        <ele>304.38999999999999</ele>
        <time>2025-05-15T10:11:41Z</time>
      </trkpt>
      <trkpt lat="42.452609036117792" lon="2.614530008286238">
        <ele>304.38999999999999</ele>
        <time>2025-05-15T10:11:42Z</time>
      </trkpt>
      <trkpt lat="42.452737027779222" lon="2.614348037168384">
        <ele>304.88</ele>
        <time>2025-05-15T10:11:43Z</time>
      </trkpt>
      <trkpt lat="42.452853033319116" lon="2.614172017201781">
        <ele>304.88</ele>
        <time>2025-05-15T10:11:44Z</time>
      </trkpt>
      <trkpt lat="42.452961998060346" lon="2.614003960043192">
        <ele>305.36000000000001</ele>
        <time>2025-05-15T10:11:45Z</time>
      </trkpt>
      <trkpt lat="42.453045984730124" lon="2.613796005025506">
        <ele>305.83999999999997</ele>
        <time>2025-05-15T10:11:46Z</time>
      </trkpt>
      <trkpt lat="42.453113961964846" lon="2.613586038351059">
        <ele>305.83999999999997</ele>
        <time>2025-05-15T10:11:47Z</time>
      </trkpt>
      <trkpt lat="42.453183028846979" lon="2.613372970372438">
        <ele>306.31999999999999</ele>
        <time>2025-05-15T10:11:48Z</time>
      </trkpt>
      <trkpt lat="42.453205995261669" lon="2.613141965121031">
        <ele>306.80000000000001</ele>
        <time>2025-05-15T10:11:49Z</time>
      </trkpt>
      <trkpt lat="42.453224016353488" lon="2.612921018153429">
        <ele>307.27999999999997</ele>
        <time>2025-05-15T10:11:50Z</time>
      </trkpt>
      <trkpt lat="42.453245976939797" lon="2.612720020115376">
        <ele>307.75999999999999</ele>
        <time>2025-05-15T10:11:51Z</time>
      </trkpt>
      <trkpt lat="42.45327397249639" lon="2.61253603734076">
        <ele>308.72000000000003</ele>
        <time>2025-05-15T10:11:52Z</time>
      </trkpt>
      <trkpt lat="42.45331697165966" lon="2.612349037081003">
        <ele>309.19999999999999</ele>
        <time>2025-05-15T10:11:53Z</time>
      </trkpt>
      <trkpt lat="42.4534029699862" lon="2.612191960215569">
        <ele>309.19999999999999</ele>
        <time>2025-05-15T10:11:54Z</time>
      </trkpt>
      <trkpt lat="42.453555017709732" lon="2.611885014921427">
        <ele>310.63999999999999</ele>
        <time>2025-05-15T10:11:56Z</time>
      </trkpt>
      <trkpt lat="42.453600028529763" lon="2.611735984683037">
        <ele>311.12</ele>
        <time>2025-05-15T10:11:57Z</time>
      </trkpt>
      <trkpt lat="42.453610002994537" lon="2.611589971929789">
        <ele>311.60000000000002</ele>
        <time>2025-05-15T10:11:58Z</time>
      </trkpt>
      <trkpt lat="42.453596005216241" lon="2.611444965004921">
        <ele>311.60000000000002</ele>
        <time>2025-05-15T10:11:59Z</time>
      </trkpt>
      <trkpt lat="42.453582007437944" lon="2.611297024413943">
        <ele>311.12</ele>
        <time>2025-05-15T10:12:00Z</time>
      </trkpt>
      <trkpt lat="42.453516041859984" lon="2.611170960590243">
        <ele>310.63999999999999</ele>
        <time>2025-05-15T10:12:01Z</time>
      </trkpt>
      <trkpt lat="42.453415961936116" lon="2.611079011112452">
        <ele>310.16000000000003</ele>
        <time>2025-05-15T10:12:02Z</time>
      </trkpt>
      <trkpt lat="42.453310014680028" lon="2.610981026664376">
        <ele>309.68000000000001</ele>
        <time>2025-05-15T10:12:03Z</time>
      </trkpt>
      <trkpt lat="42.45318797416985" lon="2.610900979489088">
        <ele>309.19999999999999</ele>
        <time>2025-05-15T10:12:04Z</time>
      </trkpt>
      <trkpt lat="42.453062999993563" lon="2.610833002254367">
        <ele>308.72000000000003</ele>
        <time>2025-05-15T10:12:05Z</time>
      </trkpt>
      <trkpt lat="42.452282980084419" lon="2.6103460136801">
        <ele>307.75999999999999</ele>
        <time>2025-05-15T10:12:11Z</time>
      </trkpt>
      <trkpt lat="42.452120035886765" lon="2.610291028395295">
        <ele>307.27999999999997</ele>
        <time>2025-05-15T10:12:12Z</time>
      </trkpt>
      <trkpt lat="42.45178802870214" lon="2.610180974006653">
        <ele>307.27999999999997</ele>
        <time>2025-05-15T10:12:14Z</time>
      </trkpt>
      <trkpt lat="42.451607985422015" lon="2.610120959579945">
        <ele>306.80000000000001</ele>
        <time>2025-05-15T10:12:15Z</time>
      </trkpt>
      <trkpt lat="42.451416039839387" lon="2.610057005658746">
        <ele>306.31999999999999</ele>
        <time>2025-05-15T10:12:16Z</time>
      </trkpt>
      <trkpt lat="42.450615987181664" lon="2.609876962378621">
        <ele>306.31999999999999</ele>
        <time>2025-05-15T10:12:20Z</time>
      </trkpt>
      <trkpt lat="42.450418006628752" lon="2.609861958771944">
        <ele>306.80000000000001</ele>
        <time>2025-05-15T10:12:21Z</time>
      </trkpt>
      <trkpt lat="42.449544025585055" lon="2.609835974872112">
        <ele>310.63999999999999</ele>
        <time>2025-05-15T10:12:26Z</time>
      </trkpt>
      <trkpt lat="42.449431959539652" lon="2.609759029000998">
        <ele>311.60000000000002</ele>
        <time>2025-05-15T10:12:27Z</time>
      </trkpt>
      <trkpt lat="42.449368005618453" lon="2.609646962955594">
        <ele>312.08999999999997</ele>
        <time>2025-05-15T10:12:28Z</time>
      </trkpt>
      <trkpt lat="42.449327018111944" lon="2.609510002657771">
        <ele>313.05000000000001</ele>
        <time>2025-05-15T10:12:29Z</time>
      </trkpt>
      <trkpt lat="42.449357025325298" lon="2.609390979632735">
        <ele>314.00999999999999</ele>
        <time>2025-05-15T10:12:30Z</time>
      </trkpt>
      <trkpt lat="42.449417039752007" lon="2.60924999602139">
        <ele>314.49000000000001</ele>
        <time>2025-05-15T10:12:31Z</time>
      </trkpt>
      <trkpt lat="42.449500020593405" lon="2.609097026288509">
        <ele>314.97000000000003</ele>
        <time>2025-05-15T10:12:32Z</time>
      </trkpt>
      <trkpt lat="42.449588030576706" lon="2.608931986615062">
        <ele>315.44999999999999</ele>
        <time>2025-05-15T10:12:33Z</time>
      </trkpt>
      <trkpt lat="42.449680985882878" lon="2.608758984133601">
        <ele>316.41000000000003</ele>
        <time>2025-05-15T10:12:34Z</time>
      </trkpt>
      <trkpt lat="42.44974703527987" lon="2.608571983873844">
        <ele>317.85000000000002</ele>
        <time>2025-05-15T10:12:35Z</time>
      </trkpt>
      <trkpt lat="42.449806965887547" lon="2.608393030241132">
        <ele>318.32999999999998</ele>
        <time>2025-05-15T10:12:36Z</time>
      </trkpt>
      <trkpt lat="42.449885001406074" lon="2.608222961425781">
        <ele>318.81</ele>
        <time>2025-05-15T10:12:37Z</time>
      </trkpt>
      <trkpt lat="42.449965970590711" lon="2.608062028884888">
        <ele>319.30000000000001</ele>
        <time>2025-05-15T10:12:38Z</time>
      </trkpt>
      <trkpt lat="42.450121035799384" lon="2.607750976458192">
        <ele>320.25999999999999</ele>
        <time>2025-05-15T10:12:40Z</time>
      </trkpt>
      <trkpt lat="42.450127992779016" lon="2.607623990625143">
        <ele>320.74000000000001</ele>
        <time>2025-05-15T10:12:41Z</time>
      </trkpt>
      <trkpt lat="42.450137967243791" lon="2.607426010072231">
        <ele>320.74000000000001</ele>
        <time>2025-05-15T10:12:42Z</time>
      </trkpt>
      <trkpt lat="42.450150037184358" lon="2.607219982892275">
        <ele>320.74000000000001</ele>
        <time>2025-05-15T10:12:43Z</time>
      </trkpt>
      <trkpt lat="42.450160011649132" lon="2.607019990682602">
        <ele>320.25999999999999</ele>
        <time>2025-05-15T10:12:44Z</time>
      </trkpt>
      <trkpt lat="42.450212985277176" lon="2.60684103704989">
        <ele>319.77999999999997</ele>
        <time>2025-05-15T10:12:45Z</time>
      </trkpt>
      <trkpt lat="42.450291020795703" lon="2.606654036790133">
        <ele>319.30000000000001</ele>
        <time>2025-05-15T10:12:46Z</time>
      </trkpt>
      <trkpt lat="42.450375007465482" lon="2.606453038752079">
        <ele>319.30000000000001</ele>
        <time>2025-05-15T10:12:47Z</time>
      </trkpt>
      <trkpt lat="42.450442984700203" lon="2.606292022392154">
        <ele>319.30000000000001</ele>
        <time>2025-05-15T10:12:48Z</time>
      </trkpt>
      <trkpt lat="42.450482966378331" lon="2.606011983007193">
        <ele>319.30000000000001</ele>
        <time>2025-05-15T10:12:49Z</time>
      </trkpt>
      <trkpt lat="42.450499981641769" lon="2.60579003021121">
        <ele>319.77999999999997</ele>
        <time>2025-05-15T10:12:50Z</time>
      </trkpt>
      <trkpt lat="42.450466034933925" lon="2.605570005252957">
        <ele>319.77999999999997</ele>
        <time>2025-05-15T10:12:51Z</time>
      </trkpt>
      <trkpt lat="42.450419012457132" lon="2.605351991951466">
        <ele>319.77999999999997</ele>
        <time>2025-05-15T10:12:52Z</time>
      </trkpt>
      <trkpt lat="42.450336031615734" lon="2.605145964771509">
        <ele>319.77999999999997</ele>
        <time>2025-05-15T10:12:53Z</time>
      </trkpt>
      <trkpt lat="42.450212985277176" lon="2.604982014745474">
        <ele>320.25999999999999</ele>
        <time>2025-05-15T10:12:54Z</time>
      </trkpt>
      <trkpt lat="42.450079964473844" lon="2.604837007820606">
        <ele>320.25999999999999</ele>
        <time>2025-05-15T10:12:55Z</time>
      </trkpt>
      <trkpt lat="42.449940992519259" lon="2.604687977582216">
        <ele>320.74000000000001</ele>
        <time>2025-05-15T10:12:56Z</time>
      </trkpt>
      <trkpt lat="42.449795985594392" lon="2.604530984535813">
        <ele>321.22000000000003</ele>
        <time>2025-05-15T10:12:57Z</time>
      </trkpt>
      <trkpt lat="42.449632035568357" lon="2.604417996481061">
        <ele>321.22000000000003</ele>
        <time>2025-05-15T10:12:58Z</time>
      </trkpt>
      <trkpt lat="42.449455009773374" lon="2.60433099232614">
        <ele>321.69999999999999</ele>
        <time>2025-05-15T10:12:59Z</time>
      </trkpt>
      <trkpt lat="42.449273960664868" lon="2.604268966242671">
        <ele>322.18000000000001</ele>
        <time>2025-05-15T10:13:00Z</time>
      </trkpt>
      <trkpt lat="42.449086960405111" lon="2.604205012321472">
        <ele>322.66000000000003</ele>
        <time>2025-05-15T10:13:01Z</time>
      </trkpt>
      <trkpt lat="42.448899960145354" lon="2.604140974581242">
        <ele>323.13999999999999</ele>
        <time>2025-05-15T10:13:02Z</time>
      </trkpt>
      <trkpt lat="42.448715977370739" lon="2.604081965982914">
        <ele>323.13999999999999</ele>
        <time>2025-05-15T10:13:03Z</time>
      </trkpt>
      <trkpt lat="42.44852302595973" lon="2.604081965982914">
        <ele>323.62</ele>
        <time>2025-05-15T10:13:04Z</time>
      </trkpt>
      <trkpt lat="42.448335019871593" lon="2.604101998731494">
        <ele>324.10000000000002</ele>
        <time>2025-05-15T10:13:05Z</time>
      </trkpt>
      <trkpt lat="42.448142990469933" lon="2.604146003723145">
        <ele>324.57999999999998</ele>
        <time>2025-05-15T10:13:06Z</time>
      </trkpt>
      <trkpt lat="42.447958001866937" lon="2.604189002886415">
        <ele>325.54000000000002</ele>
        <time>2025-05-15T10:13:07Z</time>
      </trkpt>
      <trkpt lat="42.447777958586812" lon="2.604229990392923">
        <ele>326.01999999999998</ele>
        <time>2025-05-15T10:13:08Z</time>
      </trkpt>
      <trkpt lat="42.447603028267622" lon="2.604253040626645">
        <ele>326.99000000000001</ele>
        <time>2025-05-15T10:13:09Z</time>
      </trkpt>
      <trkpt lat="42.446550009772182" lon="2.604233007878065">
        <ele>333.23000000000002</ele>
        <time>2025-05-15T10:13:15Z</time>
      </trkpt>
      <trkpt lat="42.446365021169186" lon="2.604299979284406">
        <ele>333.70999999999998</ele>
        <time>2025-05-15T10:13:16Z</time>
      </trkpt>
      <trkpt lat="42.445828998461366" lon="2.604511035606265">
        <ele>334.68000000000001</ele>
        <time>2025-05-15T10:13:19Z</time>
      </trkpt>
      <trkpt lat="42.445690026506782" lon="2.604635003954172">
        <ele>335.16000000000003</ele>
        <time>2025-05-15T10:13:20Z</time>
      </trkpt>
      <trkpt lat="42.445562034845352" lon="2.604796020314097">
        <ele>335.63999999999999</ele>
        <time>2025-05-15T10:13:21Z</time>
      </trkpt>
      <trkpt lat="42.445189962163568" lon="2.605323996394873">
        <ele>336.60000000000002</ele>
        <time>2025-05-15T10:13:24Z</time>
      </trkpt>
      <trkpt lat="42.445027017965913" lon="2.60540597140789">
        <ele>337.07999999999998</ele>
        <time>2025-05-15T10:13:25Z</time>
      </trkpt>
      <trkpt lat="42.444864995777607" lon="2.605420975014567">
        <ele>337.07999999999998</ele>
        <time>2025-05-15T10:13:26Z</time>
      </trkpt>
      <trkpt lat="42.44470096193254" lon="2.6054020319134">
        <ele>337.07999999999998</ele>
        <time>2025-05-15T10:13:27Z</time>
      </trkpt>
      <trkpt lat="42.444542963057756" lon="2.60533900000155">
        <ele>337.07999999999998</ele>
        <time>2025-05-15T10:13:28Z</time>
      </trkpt>
      <trkpt lat="42.444392004981637" lon="2.605215031653643">
        <ele>337.07999999999998</ele>
        <time>2025-05-15T10:13:29Z</time>
      </trkpt>
      <trkpt lat="42.444258984178305" lon="2.605035994201899">
        <ele>336.60000000000002</ele>
        <time>2025-05-15T10:13:30Z</time>
      </trkpt>
      <trkpt lat="42.444129986688495" lon="2.604845976457">
        <ele>336.60000000000002</ele>
        <time>2025-05-15T10:13:31Z</time>
      </trkpt>
      <trkpt lat="42.444018004462123" lon="2.604647995904088">
        <ele>337.07999999999998</ele>
        <time>2025-05-15T10:13:32Z</time>
      </trkpt>
      <trkpt lat="42.443923037499189" lon="2.604444986209273">
        <ele>337.07999999999998</ele>
        <time>2025-05-15T10:13:33Z</time>
      </trkpt>
      <trkpt lat="42.443854976445436" lon="2.604253040626645">
        <ele>336.60000000000002</ele>
        <time>2025-05-15T10:13:34Z</time>
      </trkpt>
      <trkpt lat="42.443793034180999" lon="2.60407299734652">
        <ele>336.60000000000002</ele>
        <time>2025-05-15T10:13:35Z</time>
      </trkpt>
      <trkpt lat="42.443509977310896" lon="2.603359026834369">
        <ele>336.60000000000002</ele>
        <time>2025-05-15T10:13:40Z</time>
      </trkpt>
      <trkpt lat="42.443439988419414" lon="2.603245032951236">
        <ele>336.60000000000002</ele>
        <time>2025-05-15T10:13:41Z</time>
      </trkpt>
      <trkpt lat="42.443362036719918" lon="2.603116035461426">
        <ele>337.07999999999998</ele>
        <time>2025-05-15T10:13:42Z</time>
      </trkpt>
      <trkpt lat="42.443293975666165" lon="2.603036994114518">
        <ele>337.07999999999998</ele>
        <time>2025-05-15T10:13:43Z</time>
      </trkpt>
      <trkpt lat="42.443212000653148" lon="2.602923000231385">
        <ele>337.07999999999998</ele>
        <time>2025-05-15T10:13:44Z</time>
      </trkpt>
      <trkpt lat="42.443112004548311" lon="2.602852005511522">
        <ele>336.60000000000002</ele>
        <time>2025-05-15T10:13:45Z</time>
      </trkpt>
      <trkpt lat="42.443004967644811" lon="2.602770030498505">
        <ele>336.60000000000002</ele>
        <time>2025-05-15T10:13:46Z</time>
      </trkpt>
      <trkpt lat="42.442684024572372" lon="2.602513963356614">
        <ele>335.63999999999999</ele>
        <time>2025-05-15T10:13:49Z</time>
      </trkpt>
      <trkpt lat="42.441815994679928" lon="2.601651968434453">
        <ele>334.19999999999999</ele>
        <time>2025-05-15T10:13:58Z</time>
      </trkpt>
      <trkpt lat="42.441738964989781" lon="2.601528000086546">
        <ele>334.19999999999999</ele>
        <time>2025-05-15T10:13:59Z</time>
      </trkpt>
      <trkpt lat="42.441431013867259" lon="2.601034976541996">
        <ele>334.19999999999999</ele>
        <time>2025-05-15T10:14:03Z</time>
      </trkpt>
      <trkpt lat="42.441285001114011" lon="2.600743034854531">
        <ele>334.19999999999999</ele>
        <time>2025-05-15T10:14:05Z</time>
      </trkpt>
      <trkpt lat="42.44121702387929" lon="2.600608002394438">
        <ele>334.19999999999999</ele>
        <time>2025-05-15T10:14:06Z</time>
      </trkpt>
      <trkpt lat="42.441158015280962" lon="2.600477999076247">
        <ele>334.19999999999999</ele>
        <time>2025-05-15T10:14:07Z</time>
      </trkpt>
      <trkpt lat="42.440542029216886" lon="2.598835984244943">
        <ele>335.63999999999999</ele>
        <time>2025-05-15T10:14:17Z</time>
      </trkpt>
      <trkpt lat="42.44001698680222" lon="2.597313998267055">
        <ele>338.51999999999998</ele>
        <time>2025-05-15T10:14:24Z</time>
      </trkpt>
      <trkpt lat="42.439958984032273" lon="2.597076036036015">
        <ele>338.51999999999998</ele>
        <time>2025-05-15T10:14:25Z</time>
      </trkpt>
      <trkpt lat="42.439834009855986" lon="2.596323005855084">
        <ele>339</ele>
        <time>2025-05-15T10:14:28Z</time>
      </trkpt>
      <trkpt lat="42.439767038449645" lon="2.596078002825379">
        <ele>339</ele>
        <time>2025-05-15T10:14:29Z</time>
      </trkpt>
      <trkpt lat="42.4393480271101" lon="2.594633968546987">
        <ele>340.92000000000002</ele>
        <time>2025-05-15T10:14:35Z</time>
      </trkpt>
      <trkpt lat="42.43930796161294" lon="2.594390977174044">
        <ele>340.92000000000002</ele>
        <time>2025-05-15T10:14:36Z</time>
      </trkpt>
      <trkpt lat="42.439267979934812" lon="2.594156032428145">
        <ele>341.41000000000003</ele>
        <time>2025-05-15T10:14:37Z</time>
      </trkpt>
      <trkpt lat="42.439221041277051" lon="2.593943970277906">
        <ele>341.88999999999999</ele>
        <time>2025-05-15T10:14:38Z</time>
      </trkpt>
      <trkpt lat="42.439144011586905" lon="2.593751018866897">
        <ele>342.85000000000002</ele>
        <time>2025-05-15T10:14:39Z</time>
      </trkpt>
      <trkpt lat="42.439033035188913" lon="2.593594025820494">
        <ele>344.29000000000002</ele>
        <time>2025-05-15T10:14:40Z</time>
      </trkpt>
      <trkpt lat="42.438902026042342" lon="2.593464022502303">
        <ele>345.25</ele>
        <time>2025-05-15T10:14:41Z</time>
      </trkpt>
      <trkpt lat="42.438754001632333" lon="2.593382969498634">
        <ele>346.20999999999998</ele>
        <time>2025-05-15T10:14:42Z</time>
      </trkpt>
      <trkpt lat="42.438594996929169" lon="2.593323038890958">
        <ele>347.17000000000002</ele>
        <time>2025-05-15T10:14:43Z</time>
      </trkpt>
      <trkpt lat="42.43842501193285" lon="2.593293031677604">
        <ele>348.13</ele>
        <time>2025-05-15T10:14:44Z</time>
      </trkpt>
      <trkpt lat="42.438246980309486" lon="2.593262018635869">
        <ele>348.62</ele>
        <time>2025-05-15T10:14:45Z</time>
      </trkpt>
      <trkpt lat="42.437698971480131" lon="2.593203010037541">
        <ele>351.01999999999998</ele>
        <time>2025-05-15T10:14:48Z</time>
      </trkpt>
      <trkpt lat="42.437510965391994" lon="2.593251038342714">
        <ele>351.5</ele>
        <time>2025-05-15T10:14:49Z</time>
      </trkpt>
      <trkpt lat="42.437331005930901" lon="2.593336030840874">
        <ele>352.45999999999998</ele>
        <time>2025-05-15T10:14:50Z</time>
      </trkpt>
      <trkpt lat="42.435790998861194" lon="2.594116972759366">
        <ele>356.31</ele>
        <time>2025-05-15T10:14:59Z</time>
      </trkpt>
      <trkpt lat="42.435650015249848" lon="2.594221998006105">
        <ele>356.31</ele>
        <time>2025-05-15T10:15:00Z</time>
      </trkpt>
      <trkpt lat="42.43552403524518" lon="2.594335991889238">
        <ele>356.79000000000002</ele>
        <time>2025-05-15T10:15:01Z</time>
      </trkpt>
      <trkpt lat="42.434777040034533" lon="2.595234028995037">
        <ele>359.19</ele>
        <time>2025-05-15T10:15:07Z</time>
      </trkpt>
      <trkpt lat="42.434676960110664" lon="2.595342993736267">
        <ele>359.19</ele>
        <time>2025-05-15T10:15:08Z</time>
      </trkpt>
      <trkpt lat="42.43455802090466" lon="2.595361014828086">
        <ele>359.19</ele>
        <time>2025-05-15T10:15:09Z</time>
      </trkpt>
      <trkpt lat="42.434444027021527" lon="2.595342993736267">
        <ele>359.19</ele>
        <time>2025-05-15T10:15:10Z</time>
      </trkpt>
      <trkpt lat="42.434332966804504" lon="2.595256995409727">
        <ele>358.70999999999998</ele>
        <time>2025-05-15T10:15:11Z</time>
      </trkpt>
      <trkpt lat="42.434220984578133" lon="2.595101008191705">
        <ele>358.23000000000002</ele>
        <time>2025-05-15T10:15:12Z</time>
      </trkpt>
      <trkpt lat="42.43412702344358" lon="2.594925994053483">
        <ele>357.75</ele>
        <time>2025-05-15T10:15:13Z</time>
      </trkpt>
      <trkpt lat="42.43350500240922" lon="2.593772979453206">
        <ele>356.31</ele>
        <time>2025-05-15T10:15:19Z</time>
      </trkpt>
      <trkpt lat="42.433166960254312" lon="2.592995977029204">
        <ele>358.23000000000002</ele>
        <time>2025-05-15T10:15:23Z</time>
      </trkpt>
      <trkpt lat="42.433137036859989" lon="2.592804031446576">
        <ele>358.70999999999998</ele>
        <time>2025-05-15T10:15:24Z</time>
      </trkpt>
      <trkpt lat="42.433106023818254" lon="2.592599010095">
        <ele>359.19</ele>
        <time>2025-05-15T10:15:25Z</time>
      </trkpt>
      <trkpt lat="42.433152962476015" lon="2.592425001785159">
        <ele>360.14999999999998</ele>
        <time>2025-05-15T10:15:26Z</time>
      </trkpt>
      <trkpt lat="42.433209959417582" lon="2.592216040939093">
        <ele>361.11000000000001</ele>
        <time>2025-05-15T10:15:27Z</time>
      </trkpt>
      <trkpt lat="42.433271985501051" lon="2.591989981010556">
        <ele>362.55000000000001</ele>
        <time>2025-05-15T10:15:28Z</time>
      </trkpt>
      <trkpt lat="42.433374999091029" lon="2.591541968286037">
        <ele>365.44</ele>
        <time>2025-05-15T10:15:30Z</time>
      </trkpt>
      <trkpt lat="42.433397965505719" lon="2.591340970247984">
        <ele>366.88</ele>
        <time>2025-05-15T10:15:31Z</time>
      </trkpt>
      <trkpt lat="42.433374999091029" lon="2.591154975816608">
        <ele>367.83999999999997</ele>
        <time>2025-05-15T10:15:32Z</time>
      </trkpt>
      <trkpt lat="42.433322025462985" lon="2.590991025790572">
        <ele>368.80000000000001</ele>
        <time>2025-05-15T10:15:33Z</time>
      </trkpt>
      <trkpt lat="42.433239966630936" lon="2.59085800498724">
        <ele>370.24000000000001</ele>
        <time>2025-05-15T10:15:34Z</time>
      </trkpt>
      <trkpt lat="42.433133013546467" lon="2.59074904024601">
        <ele>371.69</ele>
        <time>2025-05-15T10:15:35Z</time>
      </trkpt>
      <trkpt lat="42.433008039370179" lon="2.59068600833416">
        <ele>372.64999999999998</ele>
        <time>2025-05-15T10:15:36Z</time>
      </trkpt>
      <trkpt lat="42.432853979989886" lon="2.590683996677399">
        <ele>373.61000000000001</ele>
        <time>2025-05-15T10:15:37Z</time>
      </trkpt>
      <trkpt lat="42.432687012478709" lon="2.590701011940837">
        <ele>374.56999999999999</ele>
        <time>2025-05-15T10:15:38Z</time>
      </trkpt>
      <trkpt lat="42.431340962648392" lon="2.590685002505779">
        <ele>380.81999999999999</ele>
        <time>2025-05-15T10:15:45Z</time>
      </trkpt>
      <trkpt lat="42.430229019373655" lon="2.590839983895421">
        <ele>386.58999999999997</ele>
        <time>2025-05-15T10:15:51Z</time>
      </trkpt>
      <trkpt lat="42.430079989135265" lon="2.590894969180226">
        <ele>388.02999999999997</ele>
        <time>2025-05-15T10:15:52Z</time>
      </trkpt>
      <trkpt lat="42.429684028029442" lon="2.591185988858342">
        <ele>390.91000000000003</ele>
        <time>2025-05-15T10:15:55Z</time>
      </trkpt>
      <trkpt lat="42.42957497946918" lon="2.591286990791559">
        <ele>391.87</ele>
        <time>2025-05-15T10:15:56Z</time>
      </trkpt>
      <trkpt lat="42.429480012506247" lon="2.591396039351821">
        <ele>392.83999999999997</ele>
        <time>2025-05-15T10:15:57Z</time>
      </trkpt>
      <trkpt lat="42.429389990866184" lon="2.591497963294387">
        <ele>393.80000000000001</ele>
        <time>2025-05-15T10:15:58Z</time>
      </trkpt>
      <trkpt lat="42.429309021681547" lon="2.591591002419591">
        <ele>394.75999999999999</ele>
        <time>2025-05-15T10:15:59Z</time>
      </trkpt>
      <trkpt lat="42.429198967292905" lon="2.591593014076352">
        <ele>395.24000000000001</ele>
        <time>2025-05-15T10:16:00Z</time>
      </trkpt>
      <trkpt lat="42.429111041128635" lon="2.591555966064334">
        <ele>395.72000000000003</ele>
        <time>2025-05-15T10:16:01Z</time>
      </trkpt>
      <trkpt lat="42.429041974246502" lon="2.59148103184998">
        <ele>396.68000000000001</ele>
        <time>2025-05-15T10:16:02Z</time>
      </trkpt>
      <trkpt lat="42.429001992568374" lon="2.591348011046648">
        <ele>397.16000000000003</ele>
        <time>2025-05-15T10:16:03Z</time>
      </trkpt>
      <trkpt lat="42.428984977304935" lon="2.591200992465019">
        <ele>397.16000000000003</ele>
        <time>2025-05-15T10:16:04Z</time>
      </trkpt>
      <trkpt lat="42.428984977304935" lon="2.591027989983559">
        <ele>398.12</ele>
        <time>2025-05-15T10:16:05Z</time>
      </trkpt>
      <trkpt lat="42.428984977304935" lon="2.590831015259028">
        <ele>398.60000000000002</ele>
        <time>2025-05-15T10:16:06Z</time>
      </trkpt>
      <trkpt lat="42.428984977304935" lon="2.590050995349884">
        <ele>401.97000000000003</ele>
        <time>2025-05-15T10:16:10Z</time>
      </trkpt>
      <trkpt lat="42.428961005061865" lon="2.589899031445384">
        <ele>402.93000000000001</ele>
        <time>2025-05-15T10:16:11Z</time>
      </trkpt>
      <trkpt lat="42.428905013948679" lon="2.589754024520516">
        <ele>403.41000000000003</ele>
        <time>2025-05-15T10:16:12Z</time>
      </trkpt>
      <trkpt lat="42.42882002145052" lon="2.589618992060423">
        <ele>404.37</ele>
        <time>2025-05-15T10:16:13Z</time>
      </trkpt>
      <trkpt lat="42.428707033395767" lon="2.589493012055755">
        <ele>404.85000000000002</ele>
        <time>2025-05-15T10:16:14Z</time>
      </trkpt>
      <trkpt lat="42.4285429995507" lon="2.589432997629046">
        <ele>405.32999999999998</ele>
        <time>2025-05-15T10:16:15Z</time>
      </trkpt>
      <trkpt lat="42.428378965705633" lon="2.589392010122538">
        <ele>406.29000000000002</ele>
        <time>2025-05-15T10:16:16Z</time>
      </trkpt>
      <trkpt lat="42.428205963224173" lon="2.58939603343606">
        <ele>406.76999999999998</ele>
        <time>2025-05-15T10:16:17Z</time>
      </trkpt>
      <trkpt lat="42.426603008061647" lon="2.589598037302494">
        <ele>410.13999999999999</ele>
        <time>2025-05-15T10:16:26Z</time>
      </trkpt>
      <trkpt lat="42.42643897421658" lon="2.589598037302494">
        <ele>410.62</ele>
        <time>2025-05-15T10:16:27Z</time>
      </trkpt>
      <trkpt lat="42.426281981170177" lon="2.589567024260759">
        <ele>411.10000000000002</ele>
        <time>2025-05-15T10:16:28Z</time>
      </trkpt>
      <trkpt lat="42.425961960107088" lon="2.589475996792316">
        <ele>412.06</ele>
        <time>2025-05-15T10:16:30Z</time>
      </trkpt>
      <trkpt lat="42.425790969282389" lon="2.589492006227374">
        <ele>412.54000000000002</ele>
        <time>2025-05-15T10:16:31Z</time>
      </trkpt>
      <trkpt lat="42.425294006243348" lon="2.589541040360928">
        <ele>414.47000000000003</ele>
        <time>2025-05-15T10:16:34Z</time>
      </trkpt>
      <trkpt lat="42.425193004310131" lon="2.589487982913852">
        <ele>415.43000000000001</ele>
        <time>2025-05-15T10:16:35Z</time>
      </trkpt>
      <trkpt lat="42.425107005983591" lon="2.589383041486144">
        <ele>416.38999999999999</ele>
        <time>2025-05-15T10:16:36Z</time>
      </trkpt>
      <trkpt lat="42.425024025142193" lon="2.589265024289489">
        <ele>416.87</ele>
        <time>2025-05-15T10:16:37Z</time>
      </trkpt>
      <trkpt lat="42.424929980188608" lon="2.589039970189333">
        <ele>417.35000000000002</ele>
        <time>2025-05-15T10:16:38Z</time>
      </trkpt>
      <trkpt lat="42.424896033480763" lon="2.588851964101195">
        <ele>417.82999999999998</ele>
        <time>2025-05-15T10:16:39Z</time>
      </trkpt>
      <trkpt lat="42.424751026555896" lon="2.588063981384039">
        <ele>419.26999999999998</ele>
        <time>2025-05-15T10:16:42Z</time>
      </trkpt>
      <trkpt lat="42.424671985208988" lon="2.587801041081548">
        <ele>419.75</ele>
        <time>2025-05-15T10:16:43Z</time>
      </trkpt>
      <trkpt lat="42.424591016024351" lon="2.587567018344998">
        <ele>420.23000000000002</ele>
        <time>2025-05-15T10:16:44Z</time>
      </trkpt>
      <trkpt lat="42.424508035182953" lon="2.587358979508281">
        <ele>420.70999999999998</ele>
        <time>2025-05-15T10:16:45Z</time>
      </trkpt>
      <trkpt lat="42.424408039078116" lon="2.587167033925653">
        <ele>421.19</ele>
        <time>2025-05-15T10:16:46Z</time>
      </trkpt>
      <trkpt lat="42.424265965819359" lon="2.587040970101953">
        <ele>421.68000000000001</ele>
        <time>2025-05-15T10:16:47Z</time>
      </trkpt>
      <trkpt lat="42.424141997471452" lon="2.586885988712311">
        <ele>422.16000000000003</ele>
        <time>2025-05-15T10:16:48Z</time>
      </trkpt>
      <trkpt lat="42.424021968618035" lon="2.58671198040247">
        <ele>422.63999999999999</ele>
        <time>2025-05-15T10:16:49Z</time>
      </trkpt>
      <trkpt lat="42.423866987228394" lon="2.586572002619505">
        <ele>422.63999999999999</ele>
        <time>2025-05-15T10:16:50Z</time>
      </trkpt>
      <trkpt lat="42.423716029152274" lon="2.586462032049894">
        <ele>423.12</ele>
        <time>2025-05-15T10:16:51Z</time>
      </trkpt>
      <trkpt lat="42.423464991152287" lon="2.586247036233544">
        <ele>423.60000000000002</ele>
        <time>2025-05-15T10:16:53Z</time>
      </trkpt>
      <trkpt lat="42.423099959269166" lon="2.585772033780813">
        <ele>424.56</ele>
        <time>2025-05-15T10:16:56Z</time>
      </trkpt>
      <trkpt lat="42.422955958172679" lon="2.585606994107366">
        <ele>425.04000000000002</ele>
        <time>2025-05-15T10:16:57Z</time>
      </trkpt>
      <trkpt lat="42.422709027305245" lon="2.585403984412551">
        <ele>426</ele>
        <time>2025-05-15T10:16:59Z</time>
      </trkpt>
      <trkpt lat="42.42263300344348" lon="2.585261994972825">
        <ele>426.48000000000002</ele>
        <time>2025-05-15T10:17:00Z</time>
      </trkpt>
      <trkpt lat="42.422594027593732" lon="2.585083963349462">
        <ele>427.44</ele>
        <time>2025-05-15T10:17:01Z</time>
      </trkpt>
      <trkpt lat="42.422608025372028" lon="2.584896041080356">
        <ele>427.92000000000002</ele>
        <time>2025-05-15T10:17:02Z</time>
      </trkpt>
      <trkpt lat="42.422638032585382" lon="2.584676016122103">
        <ele>428.39999999999998</ele>
        <time>2025-05-15T10:17:03Z</time>
      </trkpt>
      <trkpt lat="42.422766024246812" lon="2.583992974832654">
        <ele>430.81</ele>
        <time>2025-05-15T10:17:06Z</time>
      </trkpt>
      <trkpt lat="42.422843975946307" lon="2.583796000108123">
        <ele>431.29000000000002</ele>
        <time>2025-05-15T10:17:07Z</time>
      </trkpt>
      <trkpt lat="42.422961993142962" lon="2.583638001233339">
        <ele>431.76999999999998</ele>
        <time>2025-05-15T10:17:08Z</time>
      </trkpt>
      <trkpt lat="42.423218982294202" lon="2.583277998492122">
        <ele>433.69</ele>
        <time>2025-05-15T10:17:10Z</time>
      </trkpt>
      <trkpt lat="42.423320990055799" lon="2.583084041252732">
        <ele>434.64999999999998</ele>
        <time>2025-05-15T10:17:11Z</time>
      </trkpt>
      <trkpt lat="42.4234280269593" lon="2.582881031557918">
        <ele>435.13</ele>
        <time>2025-05-15T10:17:12Z</time>
      </trkpt>
      <trkpt lat="42.423545038327575" lon="2.582755973562598">
        <ele>435.13</ele>
        <time>2025-05-15T10:17:13Z</time>
      </trkpt>
      <trkpt lat="42.423674035817385" lon="2.582617001608014">
        <ele>435.61000000000001</ele>
        <time>2025-05-15T10:17:14Z</time>
      </trkpt>
      <trkpt lat="42.42379498668015" lon="2.582529997453094">
        <ele>436.10000000000002</ele>
        <time>2025-05-15T10:17:15Z</time>
      </trkpt>
      <trkpt lat="42.423909986391664" lon="2.582465037703514">
        <ele>436.10000000000002</ele>
        <time>2025-05-15T10:17:16Z</time>
      </trkpt>
      <trkpt lat="42.424006965011358" lon="2.582408962771297">
        <ele>436.57999999999998</ele>
        <time>2025-05-15T10:17:17Z</time>
      </trkpt>
      <trkpt lat="42.424093969166279" lon="2.58226496167481">
        <ele>436.57999999999998</ele>
        <time>2025-05-15T10:17:18Z</time>
      </trkpt>
      <trkpt lat="42.424130011349916" lon="2.582110986113548">
        <ele>437.06</ele>
        <time>2025-05-15T10:17:19Z</time>
      </trkpt>
      <trkpt lat="42.424118025228381" lon="2.581943012773991">
        <ele>437.54000000000002</ele>
        <time>2025-05-15T10:17:20Z</time>
      </trkpt>
      <trkpt lat="42.424082988873124" lon="2.581765986979008">
        <ele>437.54000000000002</ele>
        <time>2025-05-15T10:17:21Z</time>
      </trkpt>
      <trkpt lat="42.424036972224712" lon="2.581574963405728">
        <ele>438.01999999999998</ele>
        <time>2025-05-15T10:17:22Z</time>
      </trkpt>
      <trkpt lat="42.423989027738571" lon="2.581375977024436">
        <ele>438.98000000000002</ele>
        <time>2025-05-15T10:17:23Z</time>
      </trkpt>
      <trkpt lat="42.423973018303514" lon="2.581152012571693">
        <ele>438.98000000000002</ele>
        <time>2025-05-15T10:17:24Z</time>
      </trkpt>
      <trkpt lat="42.423989027738571" lon="2.580925030633807">
        <ele>439.45999999999998</ele>
        <time>2025-05-15T10:17:25Z</time>
      </trkpt>
      <trkpt lat="42.424005037173629" lon="2.580702994018793">
        <ele>439.94</ele>
        <time>2025-05-15T10:17:26Z</time>
      </trkpt>
      <trkpt lat="42.423974024131894" lon="2.580492021515966">
        <ele>440.42000000000002</ele>
        <time>2025-05-15T10:17:27Z</time>
      </trkpt>
      <trkpt lat="42.423914009705186" lon="2.580296974629164">
        <ele>440.89999999999998</ele>
        <time>2025-05-15T10:17:28Z</time>
      </trkpt>
      <trkpt lat="42.423842009156942" lon="2.58009497076273">
        <ele>441.38</ele>
        <time>2025-05-15T10:17:29Z</time>
      </trkpt>
      <trkpt lat="42.423770008608699" lon="2.579891039058566">
        <ele>441.86000000000001</ele>
        <time>2025-05-15T10:17:30Z</time>
      </trkpt>
      <trkpt lat="42.423740001395345" lon="2.579683000221849">
        <ele>441.86000000000001</ele>
        <time>2025-05-15T10:17:31Z</time>
      </trkpt>
      <trkpt lat="42.423742013052106" lon="2.579474039375782">
        <ele>442.33999999999997</ele>
        <time>2025-05-15T10:17:32Z</time>
      </trkpt>
      <trkpt lat="42.42379498668015" lon="2.57925602607429">
        <ele>442.81999999999999</ele>
        <time>2025-05-15T10:17:33Z</time>
      </trkpt>
      <trkpt lat="42.423863969743252" lon="2.579028960317373">
        <ele>443.31</ele>
        <time>2025-05-15T10:17:34Z</time>
      </trkpt>
      <trkpt lat="42.423967989161611" lon="2.57880600169301">
        <ele>443.79000000000002</ele>
        <time>2025-05-15T10:17:35Z</time>
      </trkpt>
      <trkpt lat="42.424101009964943" lon="2.578599974513054">
        <ele>444.75</ele>
        <time>2025-05-15T10:17:36Z</time>
      </trkpt>
      <trkpt lat="42.424242999404669" lon="2.578400988131762">
        <ele>445.23000000000002</ele>
        <time>2025-05-15T10:17:37Z</time>
      </trkpt>
      <trkpt lat="42.424481967464089" lon="2.578020030632615">
        <ele>446.67000000000002</ele>
        <time>2025-05-15T10:17:39Z</time>
      </trkpt>
      <trkpt lat="42.42456897161901" lon="2.577820038422942">
        <ele>447.14999999999998</ele>
        <time>2025-05-15T10:17:40Z</time>
      </trkpt>
      <trkpt lat="42.424629991874099" lon="2.577610993757844">
        <ele>448.11000000000001</ele>
        <time>2025-05-15T10:17:41Z</time>
      </trkpt>
      <trkpt lat="42.424671985208988" lon="2.577389040961862">
        <ele>449.06999999999999</ele>
        <time>2025-05-15T10:17:42Z</time>
      </trkpt>
      <trkpt lat="42.424714984372258" lon="2.577158035710454">
        <ele>450.02999999999997</ele>
        <time>2025-05-15T10:17:43Z</time>
      </trkpt>
      <trkpt lat="42.424843981862068" lon="2.576220016926527">
        <ele>452.44</ele>
        <time>2025-05-15T10:17:47Z</time>
      </trkpt>
      <trkpt lat="42.424843981862068" lon="2.575994040817022">
        <ele>452.92000000000002</ele>
        <time>2025-05-15T10:17:48Z</time>
      </trkpt>
      <trkpt lat="42.424790002405643" lon="2.575834030285478">
        <ele>452.92000000000002</ele>
        <time>2025-05-15T10:17:49Z</time>
      </trkpt>
      <trkpt lat="42.424716996029019" lon="2.575700003653765">
        <ele>453.39999999999998</ele>
        <time>2025-05-15T10:17:50Z</time>
      </trkpt>
      <trkpt lat="42.424616999924183" lon="2.575612999498844">
        <ele>453.88</ele>
        <time>2025-05-15T10:17:51Z</time>
      </trkpt>
      <trkpt lat="42.424502000212669" lon="2.575568994507194">
        <ele>454.36000000000001</ele>
        <time>2025-05-15T10:17:52Z</time>
      </trkpt>
      <trkpt lat="42.42437400855124" lon="2.575543010607362">
        <ele>454.83999999999997</ele>
        <time>2025-05-15T10:17:53Z</time>
      </trkpt>
      <trkpt lat="42.424235036596656" lon="2.575543010607362">
        <ele>455.80000000000001</ele>
        <time>2025-05-15T10:17:54Z</time>
      </trkpt>
      <trkpt lat="42.424089023843408" lon="2.575559020042419">
        <ele>456.75999999999999</ele>
        <time>2025-05-15T10:17:55Z</time>
      </trkpt>
      <trkpt lat="42.423933036625385" lon="2.575577041134238">
        <ele>457.72000000000003</ele>
        <time>2025-05-15T10:17:56Z</time>
      </trkpt>
      <trkpt lat="42.423628019168973" lon="2.575591038912535">
        <ele>459.64999999999998</ele>
        <time>2025-05-15T10:17:58Z</time>
      </trkpt>
      <trkpt lat="42.42349399253726" lon="2.575530018657446">
        <ele>460.13</ele>
        <time>2025-05-15T10:17:59Z</time>
      </trkpt>
      <trkpt lat="42.423357032239437" lon="2.57543102838099">
        <ele>460.61000000000001</ele>
        <time>2025-05-15T10:18:00Z</time>
      </trkpt>
      <trkpt lat="42.422477016225457" lon="2.574588982388377">
        <ele>462.05000000000001</ele>
        <time>2025-05-15T10:18:06Z</time>
      </trkpt>
      <trkpt lat="42.422331003472209" lon="2.574498960748315">
        <ele>463.00999999999999</ele>
        <time>2025-05-15T10:18:07Z</time>
      </trkpt>
      <trkpt lat="42.422167975455523" lon="2.574450010433793">
        <ele>463.97000000000003</ele>
        <time>2025-05-15T10:18:08Z</time>
      </trkpt>
      <trkpt lat="42.421998996287584" lon="2.574455961585045">
        <ele>464.93000000000001</ele>
        <time>2025-05-15T10:18:09Z</time>
      </trkpt>
      <trkpt lat="42.421824987977743" lon="2.57446400821209">
        <ele>466.38</ele>
        <time>2025-05-15T10:18:10Z</time>
      </trkpt>
      <trkpt lat="42.42171099409461" lon="2.574469959363341">
        <ele>468.30000000000001</ele>
        <time>2025-05-15T10:18:11Z</time>
      </trkpt>
      <trkpt lat="42.42151896469295" lon="2.574445987120271">
        <ele>470.22000000000003</ele>
        <time>2025-05-15T10:18:12Z</time>
      </trkpt>
      <trkpt lat="42.421379992738366" lon="2.574428971856833">
        <ele>472.13999999999999</ele>
        <time>2025-05-15T10:18:13Z</time>
      </trkpt>
      <trkpt lat="42.421285025775433" lon="2.574344985187054">
        <ele>474.06999999999999</ele>
        <time>2025-05-15T10:18:14Z</time>
      </trkpt>
      <trkpt lat="42.421190980821848" lon="2.574236020445824">
        <ele>475.50999999999999</ele>
        <time>2025-05-15T10:18:15Z</time>
      </trkpt>
      <trkpt lat="42.421139013022184" lon="2.574054971337318">
        <ele>476.94999999999999</ele>
        <time>2025-05-15T10:18:16Z</time>
      </trkpt>
      <trkpt lat="42.421081010252237" lon="2.573851961642504">
        <ele>478.38999999999999</ele>
        <time>2025-05-15T10:18:17Z</time>
      </trkpt>
      <trkpt lat="42.420699968934059" lon="2.572780000045896">
        <ele>482.24000000000001</ele>
        <time>2025-05-15T10:18:22Z</time>
      </trkpt>
      <trkpt lat="42.420610031113029" lon="2.572625018656254">
        <ele>483.19999999999999</ele>
        <time>2025-05-15T10:18:23Z</time>
      </trkpt>
      <trkpt lat="42.420474998652935" lon="2.572522005066276">
        <ele>483.68000000000001</ele>
        <time>2025-05-15T10:18:24Z</time>
      </trkpt>
      <trkpt lat="42.420337032526731" lon="2.572417985647917">
        <ele>484.63999999999999</ele>
        <time>2025-05-15T10:18:25Z</time>
      </trkpt>
      <trkpt lat="42.420198982581496" lon="2.572312038391829">
        <ele>485.60000000000002</ele>
        <time>2025-05-15T10:18:26Z</time>
      </trkpt>
      <trkpt lat="42.420080965384841" lon="2.572197038680315">
        <ele>486.56</ele>
        <time>2025-05-15T10:18:27Z</time>
      </trkpt>
      <trkpt lat="42.419989015907049" lon="2.572012972086668">
        <ele>487.52999999999997</ele>
        <time>2025-05-15T10:18:28Z</time>
      </trkpt>
      <trkpt lat="42.419900000095367" lon="2.571834018453956">
        <ele>488.49000000000001</ele>
        <time>2025-05-15T10:18:29Z</time>
      </trkpt>
      <trkpt lat="42.419787012040615" lon="2.571691023185849">
        <ele>489.44999999999999</ele>
        <time>2025-05-15T10:18:30Z</time>
      </trkpt>
      <trkpt lat="42.419682992622256" lon="2.571567976847291">
        <ele>489.44999999999999</ele>
        <time>2025-05-15T10:18:31Z</time>
      </trkpt>
      <trkpt lat="42.419525999575853" lon="2.571530006825924">
        <ele>489.93000000000001</ele>
        <time>2025-05-15T10:18:32Z</time>
      </trkpt>
      <trkpt lat="42.419385015964508" lon="2.571549033746123">
        <ele>490.41000000000003</ele>
        <time>2025-05-15T10:18:33Z</time>
      </trkpt>
      <trkpt lat="42.419255012646317" lon="2.571633020415902">
        <ele>491.37</ele>
        <time>2025-05-15T10:18:34Z</time>
      </trkpt>
      <trkpt lat="42.419115034863353" lon="2.571722958236933">
        <ele>492.32999999999998</ele>
        <time>2025-05-15T10:18:35Z</time>
      </trkpt>
      <trkpt lat="42.418966004624963" lon="2.571806022897363">
        <ele>493.29000000000002</ele>
        <time>2025-05-15T10:18:36Z</time>
      </trkpt>
      <trkpt lat="42.418826026841998" lon="2.571831000968814">
        <ele>493.76999999999998</ele>
        <time>2025-05-15T10:18:37Z</time>
      </trkpt>
      <trkpt lat="42.418694011867046" lon="2.571806022897363">
        <ele>494.25999999999999</ele>
        <time>2025-05-15T10:18:38Z</time>
      </trkpt>
      <trkpt lat="42.418556967750192" lon="2.571745002642274">
        <ele>494.74000000000001</ele>
        <time>2025-05-15T10:18:39Z</time>
      </trkpt>
      <trkpt lat="42.418455965816975" lon="2.571622040122747">
        <ele>495.22000000000003</ele>
        <time>2025-05-15T10:18:40Z</time>
      </trkpt>
      <trkpt lat="42.418338032439351" lon="2.571466974914074">
        <ele>495.69999999999999</ele>
        <time>2025-05-15T10:18:41Z</time>
      </trkpt>
      <trkpt lat="42.418222026899457" lon="2.571275029331446">
        <ele>496.66000000000003</ele>
        <time>2025-05-15T10:18:42Z</time>
      </trkpt>
      <trkpt lat="42.417984986677766" lon="2.570883007720113">
        <ele>497.62</ele>
        <time>2025-05-15T10:18:44Z</time>
      </trkpt>
      <trkpt lat="42.417869986966252" lon="2.570693995803595">
        <ele>498.10000000000002</ele>
        <time>2025-05-15T10:18:45Z</time>
      </trkpt>
      <trkpt lat="42.417837968096137" lon="2.570516970008612">
        <ele>498.57999999999998</ele>
        <time>2025-05-15T10:18:46Z</time>
      </trkpt>
      <trkpt lat="42.417826987802982" lon="2.570303985849023">
        <ele>499.54000000000002</ele>
        <time>2025-05-15T10:18:47Z</time>
      </trkpt>
      <trkpt lat="42.417826987802982" lon="2.570071974769235">
        <ele>500.01999999999998</ele>
        <time>2025-05-15T10:18:48Z</time>
      </trkpt>
      <trkpt lat="42.417796980589628" lon="2.569836024194956">
        <ele>500.5</ele>
        <time>2025-05-15T10:18:49Z</time>
      </trkpt>
      <trkpt lat="42.417730009183288" lon="2.569613987579942">
        <ele>500.98000000000002</ele>
        <time>2025-05-15T10:18:50Z</time>
      </trkpt>
      <trkpt lat="42.417655996978283" lon="2.569402009248734">
        <ele>500.98000000000002</ele>
        <time>2025-05-15T10:18:51Z</time>
      </trkpt>
      <trkpt lat="42.417567986994982" lon="2.569222971796989">
        <ele>501.45999999999998</ele>
        <time>2025-05-15T10:18:52Z</time>
      </trkpt>
      <trkpt lat="42.417460028082132" lon="2.569091040641069">
        <ele>501.94999999999999</ele>
        <time>2025-05-15T10:18:53Z</time>
      </trkpt>
      <trkpt lat="42.417341005057096" lon="2.569013005122542">
        <ele>501.45999999999998</ele>
        <time>2025-05-15T10:18:54Z</time>
      </trkpt>
      <trkpt lat="42.417183006182313" lon="2.568955002352595">
        <ele>501.45999999999998</ele>
        <time>2025-05-15T10:18:55Z</time>
      </trkpt>
      <trkpt lat="42.417040010914207" lon="2.568955002352595">
        <ele>501.94999999999999</ele>
        <time>2025-05-15T10:18:56Z</time>
      </trkpt>
      <trkpt lat="42.416882012039423" lon="2.568955002352595">
        <ele>501.94999999999999</ele>
        <time>2025-05-15T10:18:57Z</time>
      </trkpt>
      <trkpt lat="42.416745973750949" lon="2.568898005411029">
        <ele>502.43000000000001</ele>
        <time>2025-05-15T10:18:58Z</time>
      </trkpt>
      <trkpt lat="42.416611025109887" lon="2.568809995427728">
        <ele>502.43000000000001</ele>
        <time>2025-05-15T10:18:59Z</time>
      </trkpt>
      <trkpt lat="42.416484961286187" lon="2.568673035129905">
        <ele>502.91000000000003</ele>
        <time>2025-05-15T10:19:00Z</time>
      </trkpt>
      <trkpt lat="42.416339032351971" lon="2.56853498518467">
        <ele>503.38999999999999</ele>
        <time>2025-05-15T10:19:01Z</time>
      </trkpt>
      <trkpt lat="42.416163012385368" lon="2.568458039313555">
        <ele>503.87</ele>
        <time>2025-05-15T10:19:02Z</time>
      </trkpt>
      <trkpt lat="42.415637969970703" lon="2.568118991330266">
        <ele>505.79000000000002</ele>
        <time>2025-05-15T10:19:06Z</time>
      </trkpt>
      <trkpt lat="42.415591031312943" lon="2.567988988012075">
        <ele>506.26999999999998</ele>
        <time>2025-05-15T10:19:07Z</time>
      </trkpt>
      <trkpt lat="42.41545700468123" lon="2.56765304133296">
        <ele>506.75</ele>
        <time>2025-05-15T10:19:09Z</time>
      </trkpt>
      <trkpt lat="42.414993988350034" lon="2.566720973700285">
        <ele>506.75</ele>
        <time>2025-05-15T10:19:14Z</time>
      </trkpt>
      <trkpt lat="42.414951995015144" lon="2.566508995369077">
        <ele>506.75</ele>
        <time>2025-05-15T10:19:15Z</time>
      </trkpt>
      <trkpt lat="42.414960041642189" lon="2.566336998715997">
        <ele>506.26999999999998</ele>
        <time>2025-05-15T10:19:16Z</time>
      </trkpt>
      <trkpt lat="42.414970016106963" lon="2.566146980971098">
        <ele>506.26999999999998</ele>
        <time>2025-05-15T10:19:17Z</time>
      </trkpt>
      <trkpt lat="42.414948977530003" lon="2.565984036773443">
        <ele>505.79000000000002</ele>
        <time>2025-05-15T10:19:18Z</time>
      </trkpt>
      <trkpt lat="42.414908995851874" lon="2.565823020413518">
        <ele>505.79000000000002</ele>
        <time>2025-05-15T10:19:19Z</time>
      </trkpt>
      <trkpt lat="42.414848981425166" lon="2.565672984346747">
        <ele>505.31</ele>
        <time>2025-05-15T10:19:20Z</time>
      </trkpt>
      <trkpt lat="42.414786033332348" lon="2.565514985471964">
        <ele>505.31</ele>
        <time>2025-05-15T10:19:21Z</time>
      </trkpt>
      <trkpt lat="42.414741022512317" lon="2.565358998253942">
        <ele>505.31</ele>
        <time>2025-05-15T10:19:22Z</time>
      </trkpt>
      <trkpt lat="42.414758037775755" lon="2.5651849899441">
        <ele>504.82999999999998</ele>
        <time>2025-05-15T10:19:23Z</time>
      </trkpt>
      <trkpt lat="42.414775975048542" lon="2.565001007169485">
        <ele>504.82999999999998</ele>
        <time>2025-05-15T10:19:24Z</time>
      </trkpt>
      <trkpt lat="42.414757031947374" lon="2.564822975546122">
        <ele>504.35000000000002</ele>
        <time>2025-05-15T10:19:25Z</time>
      </trkpt>
      <trkpt lat="42.414715038612485" lon="2.564638992771506">
        <ele>504.35000000000002</ele>
        <time>2025-05-15T10:19:26Z</time>
      </trkpt>
      <trkpt lat="42.414652006700635" lon="2.564446963369846">
        <ele>504.35000000000002</ele>
        <time>2025-05-15T10:19:27Z</time>
      </trkpt>
      <trkpt lat="42.414584029465914" lon="2.564241020008922">
        <ele>504.35000000000002</ele>
        <time>2025-05-15T10:19:28Z</time>
      </trkpt>
      <trkpt lat="42.41451202891767" lon="2.564022000879049">
        <ele>504.35000000000002</ele>
        <time>2025-05-15T10:19:29Z</time>
      </trkpt>
      <trkpt lat="42.414177004247904" lon="2.56284199655056">
        <ele>504.35000000000002</ele>
        <time>2025-05-15T10:19:34Z</time>
      </trkpt>
      <trkpt lat="42.414117995649576" lon="2.561717983335257">
        <ele>504.82999999999998</ele>
        <time>2025-05-15T10:19:39Z</time>
      </trkpt>
      <trkpt lat="42.414151020348072" lon="2.561565013602376">
        <ele>504.82999999999998</ele>
        <time>2025-05-15T10:19:40Z</time>
      </trkpt>
      <trkpt lat="42.414183039218187" lon="2.561420006677508">
        <ele>504.82999999999998</ele>
        <time>2025-05-15T10:19:41Z</time>
      </trkpt>
      <trkpt lat="42.414183961227536" lon="2.561281034722924">
        <ele>505.31</ele>
        <time>2025-05-15T10:19:42Z</time>
      </trkpt>
      <trkpt lat="42.414136016741395" lon="2.561123035848141">
        <ele>505.79000000000002</ele>
        <time>2025-05-15T10:19:43Z</time>
      </trkpt>
      <trkpt lat="42.414047000929713" lon="2.560999989509583">
        <ele>505.79000000000002</ele>
        <time>2025-05-15T10:19:44Z</time>
      </trkpt>
      <trkpt lat="42.41395597346127" lon="2.56086403504014">
        <ele>506.26999999999998</ele>
        <time>2025-05-15T10:19:45Z</time>
      </trkpt>
      <trkpt lat="42.41389000788331" lon="2.560675023123622">
        <ele>506.75</ele>
        <time>2025-05-15T10:19:46Z</time>
      </trkpt>
      <trkpt lat="42.413818007335067" lon="2.560470001772046">
        <ele>507.23000000000002</ele>
        <time>2025-05-15T10:19:47Z</time>
      </trkpt>
      <trkpt lat="42.41374097764492" lon="2.560251988470554">
        <ele>507.70999999999998</ele>
        <time>2025-05-15T10:19:48Z</time>
      </trkpt>
      <trkpt lat="42.413677023723722" lon="2.560041015967727">
        <ele>508.67000000000002</ele>
        <time>2025-05-15T10:19:49Z</time>
      </trkpt>
      <trkpt lat="42.413639975711703" lon="2.5598110165447">
        <ele>508.67000000000002</ele>
        <time>2025-05-15T10:19:50Z</time>
      </trkpt>
      <trkpt lat="42.413408970460296" lon="2.55811401642859">
        <ele>509.63999999999999</ele>
        <time>2025-05-15T10:19:57Z</time>
      </trkpt>
      <trkpt lat="42.413406958803535" lon="2.557888040319085">
        <ele>509.16000000000003</ele>
        <time>2025-05-15T10:19:58Z</time>
      </trkpt>
      <trkpt lat="42.413423974066973" lon="2.557671032845974">
        <ele>509.16000000000003</ele>
        <time>2025-05-15T10:19:59Z</time>
      </trkpt>
      <trkpt lat="42.413464039564133" lon="2.557468023151159">
        <ele>508.67000000000002</ele>
        <time>2025-05-15T10:20:00Z</time>
      </trkpt>
      <trkpt lat="42.413493040949106" lon="2.557325027883053">
        <ele>508.67000000000002</ele>
        <time>2025-05-15T10:20:01Z</time>
      </trkpt>
      <trkpt lat="42.413454987108707" lon="2.557150013744831">
        <ele>508.67000000000002</ele>
        <time>2025-05-15T10:20:02Z</time>
      </trkpt>
      <trkpt lat="42.413427997380495" lon="2.557025039568543">
        <ele>508.67000000000002</ele>
        <time>2025-05-15T10:20:03Z</time>
      </trkpt>
      <trkpt lat="42.413334036245942" lon="2.556937029585242">
        <ele>508.67000000000002</ele>
        <time>2025-05-15T10:20:04Z</time>
      </trkpt>
      <trkpt lat="42.413219958543777" lon="2.556830998510122">
        <ele>508.67000000000002</ele>
        <time>2025-05-15T10:20:05Z</time>
      </trkpt>
      <trkpt lat="42.413105964660645" lon="2.556724967435002">
        <ele>508.67000000000002</ele>
        <time>2025-05-15T10:20:06Z</time>
      </trkpt>
      <trkpt lat="42.413010997697711" lon="2.556554982438684">
        <ele>508.67000000000002</ele>
        <time>2025-05-15T10:20:07Z</time>
      </trkpt>
      <trkpt lat="42.412917958572507" lon="2.556389020755887">
        <ele>509.16000000000003</ele>
        <time>2025-05-15T10:20:08Z</time>
      </trkpt>
      <trkpt lat="42.412818968296051" lon="2.556213000789285">
        <ele>509.16000000000003</ele>
        <time>2025-05-15T10:20:09Z</time>
      </trkpt>
      <trkpt lat="42.412716038525105" lon="2.556031029671431">
        <ele>509.63999999999999</ele>
        <time>2025-05-15T10:20:10Z</time>
      </trkpt>
      <trkpt lat="42.412519985809922" lon="2.55568795837462">
        <ele>509.63999999999999</ele>
        <time>2025-05-15T10:20:12Z</time>
      </trkpt>
      <trkpt lat="42.412380008026958" lon="2.55555703304708">
        <ele>510.12</ele>
        <time>2025-05-15T10:20:13Z</time>
      </trkpt>
      <trkpt lat="42.411939958110452" lon="2.555145984515548">
        <ele>510.60000000000002</ele>
        <time>2025-05-15T10:20:16Z</time>
      </trkpt>
      <trkpt lat="42.411811966449022" lon="2.555001983419061">
        <ele>511.07999999999998</ele>
        <time>2025-05-15T10:20:17Z</time>
      </trkpt>
      <trkpt lat="42.411714987829328" lon="2.554863011464477">
        <ele>511.07999999999998</ele>
        <time>2025-05-15T10:20:18Z</time>
      </trkpt>
      <trkpt lat="42.411681041121483" lon="2.554691014811397">
        <ele>511.56</ele>
        <time>2025-05-15T10:20:19Z</time>
      </trkpt>
      <trkpt lat="42.411674000322819" lon="2.554517006501555">
        <ele>511.56</ele>
        <time>2025-05-15T10:20:20Z</time>
      </trkpt>
      <trkpt lat="42.411682968959212" lon="2.554327994585037">
        <ele>512.03999999999996</ele>
        <time>2025-05-15T10:20:21Z</time>
      </trkpt>
      <trkpt lat="42.411697972565889" lon="2.554123979061842">
        <ele>512.51999999999998</ele>
        <time>2025-05-15T10:20:22Z</time>
      </trkpt>
      <trkpt lat="42.411813978105783" lon="2.553407996892929">
        <ele>514.44000000000005</ele>
        <time>2025-05-15T10:20:27Z</time>
      </trkpt>
      <trkpt lat="42.411824036389589" lon="2.553348988294601">
        <ele>513.96000000000004</ele>
        <time>2025-05-15T10:20:28Z</time>
      </trkpt>
      <trkpt lat="42.411831999197602" lon="2.55330003798008">
        <ele>513.96000000000004</ele>
        <time>2025-05-15T10:20:29Z</time>
      </trkpt>
      <trkpt lat="42.411823030561209" lon="2.553172968327999">
        <ele>513.48000000000002</ele>
        <time>2025-05-15T10:20:33Z</time>
      </trkpt>
      <trkpt lat="42.411835016682744" lon="2.553249998018146">
        <ele>513.96000000000004</ele>
        <time>2025-05-15T10:20:34Z</time>
      </trkpt>
      <trkpt lat="42.411793023347855" lon="2.553267013281584">
        <ele>514.91999999999996</ele>
        <time>2025-05-15T10:20:35Z</time>
      </trkpt>
      <trkpt lat="42.411733008921146" lon="2.553290985524654">
        <ele>515.88</ele>
        <time>2025-05-15T10:20:36Z</time>
      </trkpt>
      <trkpt lat="42.411733008921146" lon="2.553290985524654">
        <ele>515.88</ele>
        <time>2025-05-15T10:20:37Z</time>
      </trkpt>
      <trkpt lat="42.411709958687425" lon="2.553371032699943">
        <ele>515.88</ele>
        <time>2025-05-15T10:20:38Z</time>
      </trkpt>
      <trkpt lat="42.411656985059381" lon="2.553686024621129">
        <ele>516.37</ele>
        <time>2025-05-15T10:20:41Z</time>
      </trkpt>
      <trkpt lat="42.411551959812641" lon="2.554707024246454">
        <ele>514.44000000000005</ele>
        <time>2025-05-15T10:20:48Z</time>
      </trkpt>
      <trkpt lat="42.411562018096447" lon="2.554836021736264">
        <ele>513.48000000000002</ele>
        <time>2025-05-15T10:20:49Z</time>
      </trkpt>
      <trkpt lat="42.411614991724491" lon="2.554942974820733">
        <ele>512.03999999999996</ele>
        <time>2025-05-15T10:20:50Z</time>
      </trkpt>
      <trkpt lat="42.411681963130832" lon="2.555078007280827">
        <ele>510.12</ele>
        <time>2025-05-15T10:20:51Z</time>
      </trkpt>
      <trkpt lat="42.411776008084416" lon="2.555265007540584">
        <ele>507.70999999999998</ele>
        <time>2025-05-15T10:20:52Z</time>
      </trkpt>
      <trkpt lat="42.41186804138124" lon="2.555357040837407">
        <ele>505.79000000000002</ele>
        <time>2025-05-15T10:20:53Z</time>
      </trkpt>
      <trkpt lat="42.412460977211595" lon="2.555981995537877">
        <ele>497.13999999999999</ele>
        <time>2025-05-15T10:20:58Z</time>
      </trkpt>
      <trkpt lat="42.412748979404569" lon="2.556430008262396">
        <ele>492.32999999999998</ele>
        <time>2025-05-15T10:21:01Z</time>
      </trkpt>
      <trkpt lat="42.412803964689374" lon="2.556605022400618">
        <ele>490.88999999999999</ele>
        <time>2025-05-15T10:21:02Z</time>
      </trkpt>
      <trkpt lat="42.412855010479689" lon="2.556769978255034">
        <ele>489.44999999999999</ele>
        <time>2025-05-15T10:21:03Z</time>
      </trkpt>
      <trkpt lat="42.41290002129972" lon="2.556913979351521">
        <ele>488.00999999999999</ele>
        <time>2025-05-15T10:21:04Z</time>
      </trkpt>
      <trkpt lat="42.412934973835945" lon="2.557025039568543">
        <ele>486.56</ele>
        <time>2025-05-15T10:21:05Z</time>
      </trkpt>
      <trkpt lat="42.412897003814578" lon="2.557129980996251">
        <ele>485.12</ele>
        <time>2025-05-15T10:21:06Z</time>
      </trkpt>
      <trkpt lat="42.412848975509405" lon="2.557260990142822">
        <ele>484.16000000000003</ele>
        <time>2025-05-15T10:21:07Z</time>
      </trkpt>
      <trkpt lat="42.412778986617923" lon="2.557347994297743">
        <ele>483.68000000000001</ele>
        <time>2025-05-15T10:21:08Z</time>
      </trkpt>
      <trkpt lat="42.412699023261666" lon="2.557445978745818">
        <ele>483.68000000000001</ele>
        <time>2025-05-15T10:21:09Z</time>
      </trkpt>
      <trkpt lat="42.412539012730122" lon="2.55764395929873">
        <ele>482.72000000000003</ele>
        <time>2025-05-15T10:21:11Z</time>
      </trkpt>
      <trkpt lat="42.412480004131794" lon="2.557756025344133">
        <ele>482.24000000000001</ele>
        <time>2025-05-15T10:21:12Z</time>
      </trkpt>
      <trkpt lat="42.412467012181878" lon="2.557902960106731">
        <ele>481.27999999999997</ele>
        <time>2025-05-15T10:21:13Z</time>
      </trkpt>
      <trkpt lat="42.41247396916151" lon="2.558041010051966">
        <ele>480.31999999999999</ele>
        <time>2025-05-15T10:21:14Z</time>
      </trkpt>
      <trkpt lat="42.41249299608171" lon="2.558193979784846">
        <ele>479.83999999999997</ele>
        <time>2025-05-15T10:21:15Z</time>
      </trkpt>
      <trkpt lat="42.41251403465867" lon="2.558353990316391">
        <ele>478.87</ele>
        <time>2025-05-15T10:21:16Z</time>
      </trkpt>
      <trkpt lat="42.412640014663339" lon="2.559313969686627">
        <ele>474.55000000000001</ele>
        <time>2025-05-15T10:21:22Z</time>
      </trkpt>
      <trkpt lat="42.412711009383202" lon="2.559616975486279">
        <ele>474.06999999999999</ele>
        <time>2025-05-15T10:21:24Z</time>
      </trkpt>
      <trkpt lat="42.412745039910078" lon="2.559767011553049">
        <ele>474.06999999999999</ele>
        <time>2025-05-15T10:21:25Z</time>
      </trkpt>
      <trkpt lat="42.412774041295052" lon="2.559916041791439">
        <ele>474.06999999999999</ele>
        <time>2025-05-15T10:21:26Z</time>
      </trkpt>
      <trkpt lat="42.412931034341455" lon="2.560717016458511">
        <ele>473.58999999999997</ele>
        <time>2025-05-15T10:21:31Z</time>
      </trkpt>
      <trkpt lat="42.412950983271003" lon="2.56090703420341">
        <ele>473.58999999999997</ele>
        <time>2025-05-15T10:21:32Z</time>
      </trkpt>
      <trkpt lat="42.41292298771441" lon="2.561254967004061">
        <ele>473.58999999999997</ele>
        <time>2025-05-15T10:21:34Z</time>
      </trkpt>
      <trkpt lat="42.412874959409237" lon="2.561855027452111">
        <ele>474.06999999999999</ele>
        <time>2025-05-15T10:21:37Z</time>
      </trkpt>
      <trkpt lat="42.412931034341455" lon="2.563420012593269">
        <ele>473.11000000000001</ele>
        <time>2025-05-15T10:21:44Z</time>
      </trkpt>
      <trkpt lat="42.412892980501056" lon="2.563872970640659">
        <ele>472.63</ele>
        <time>2025-05-15T10:21:46Z</time>
      </trkpt>
      <trkpt lat="42.412875965237617" lon="2.564083021134138">
        <ele>472.13999999999999</ele>
        <time>2025-05-15T10:21:47Z</time>
      </trkpt>
      <trkpt lat="42.412785021588206" lon="2.565572988241911">
        <ele>470.69999999999999</ele>
        <time>2025-05-15T10:21:54Z</time>
      </trkpt>
      <trkpt lat="42.412763983011246" lon="2.565754959359765">
        <ele>470.22000000000003</ele>
        <time>2025-05-15T10:21:55Z</time>
      </trkpt>
      <trkpt lat="42.412742022424936" lon="2.565886974334717">
        <ele>470.22000000000003</ele>
        <time>2025-05-15T10:21:56Z</time>
      </trkpt>
      <trkpt lat="42.412652000784874" lon="2.565985964611173">
        <ele>469.74000000000001</ele>
        <time>2025-05-15T10:21:57Z</time>
      </trkpt>
      <trkpt lat="42.412575976923108" lon="2.566071040928364">
        <ele>469.25999999999999</ele>
        <time>2025-05-15T10:21:58Z</time>
      </trkpt>
      <trkpt lat="42.412499031051993" lon="2.566105993464589">
        <ele>469.25999999999999</ele>
        <time>2025-05-15T10:21:59Z</time>
      </trkpt>
      <trkpt lat="42.412403980270028" lon="2.566114962100983">
        <ele>469.74000000000001</ele>
        <time>2025-05-15T10:22:00Z</time>
      </trkpt>
      <trkpt lat="42.412295015528798" lon="2.566104987636209">
        <ele>469.74000000000001</ele>
        <time>2025-05-15T10:22:01Z</time>
      </trkpt>
      <trkpt lat="42.412202982231975" lon="2.566013038158417">
        <ele>469.74000000000001</ele>
        <time>2025-05-15T10:22:02Z</time>
      </trkpt>
      <trkpt lat="42.412083959206939" lon="2.56587197072804">
        <ele>470.22000000000003</ele>
        <time>2025-05-15T10:22:03Z</time>
      </trkpt>
      <trkpt lat="42.412016987800598" lon="2.565693017095327">
        <ele>470.69999999999999</ele>
        <time>2025-05-15T10:22:04Z</time>
      </trkpt>
      <trkpt lat="42.411946998909116" lon="2.565507022663951">
        <ele>470.69999999999999</ele>
        <time>2025-05-15T10:22:05Z</time>
      </trkpt>
      <trkpt lat="42.411879021674395" lon="2.565323961898685">
        <ele>470.69999999999999</ele>
        <time>2025-05-15T10:22:06Z</time>
      </trkpt>
      <trkpt lat="42.411742983385921" lon="2.565001007169485">
        <ele>471.18000000000001</ele>
        <time>2025-05-15T10:22:08Z</time>
      </trkpt>
      <trkpt lat="42.411652039736509" lon="2.564864968881011">
        <ele>471.66000000000003</ele>
        <time>2025-05-15T10:22:09Z</time>
      </trkpt>
      <trkpt lat="42.411566041409969" lon="2.56473496556282">
        <ele>472.13999999999999</ele>
        <time>2025-05-15T10:22:10Z</time>
      </trkpt>
      <trkpt lat="42.411484988406301" lon="2.564614014700055">
        <ele>472.13999999999999</ele>
        <time>2025-05-15T10:22:11Z</time>
      </trkpt>
      <trkpt lat="42.411382980644703" lon="2.564520975574851">
        <ele>472.63</ele>
        <time>2025-05-15T10:22:12Z</time>
      </trkpt>
      <trkpt lat="42.411244008690119" lon="2.564480993896723">
        <ele>472.63</ele>
        <time>2025-05-15T10:22:13Z</time>
      </trkpt>
      <trkpt lat="42.411088021472096" lon="2.564448975026608">
        <ele>472.63</ele>
        <time>2025-05-15T10:22:14Z</time>
      </trkpt>
      <trkpt lat="42.410462982952595" lon="2.564448975026608">
        <ele>471.66000000000003</ele>
        <time>2025-05-15T10:22:18Z</time>
      </trkpt>
      <trkpt lat="42.410296015441418" lon="2.564448975026608">
        <ele>471.18000000000001</ele>
        <time>2025-05-15T10:22:19Z</time>
      </trkpt>
      <trkpt lat="42.410156959667802" lon="2.564391978085041">
        <ele>470.69999999999999</ele>
        <time>2025-05-15T10:22:20Z</time>
      </trkpt>
      <trkpt lat="42.40974297747016" lon="2.564229033887386">
        <ele>469.74000000000001</ele>
        <time>2025-05-15T10:22:23Z</time>
      </trkpt>
      <trkpt lat="42.409593025222421" lon="2.5642179697752">
        <ele>469.74000000000001</ele>
        <time>2025-05-15T10:22:24Z</time>
      </trkpt>
      <trkpt lat="42.409452963620424" lon="2.564228028059006">
        <ele>469.74000000000001</ele>
        <time>2025-05-15T10:22:25Z</time>
      </trkpt>
      <trkpt lat="42.409316003322601" lon="2.56423800252378">
        <ele>469.25999999999999</ele>
        <time>2025-05-15T10:22:26Z</time>
      </trkpt>
      <trkpt lat="42.409195974469185" lon="2.564244037494063">
        <ele>469.25999999999999</ele>
        <time>2025-05-15T10:22:27Z</time>
      </trkpt>
      <trkpt lat="42.409092038869858" lon="2.564249988645315">
        <ele>468.77999999999997</ele>
        <time>2025-05-15T10:22:28Z</time>
      </trkpt>
      <trkpt lat="42.408987013623118" lon="2.564256023615599">
        <ele>468.77999999999997</ele>
        <time>2025-05-15T10:22:29Z</time>
      </trkpt>
      <trkpt lat="42.408915013074875" lon="2.564200032502413">
        <ele>468.77999999999997</ele>
        <time>2025-05-15T10:22:30Z</time>
      </trkpt>
      <trkpt lat="42.408831026405096" lon="2.564134988933802">
        <ele>469.25999999999999</ele>
        <time>2025-05-15T10:22:31Z</time>
      </trkpt>
      <trkpt lat="42.408742010593414" lon="2.564065000042319">
        <ele>469.25999999999999</ele>
        <time>2025-05-15T10:22:32Z</time>
      </trkpt>
      <trkpt lat="42.40856196731329" lon="2.563924016430974">
        <ele>469.25999999999999</ele>
        <time>2025-05-15T10:22:34Z</time>
      </trkpt>
      <trkpt lat="42.408478986471891" lon="2.563865007832646">
        <ele>469.74000000000001</ele>
        <time>2025-05-15T10:22:35Z</time>
      </trkpt>
      <trkpt lat="42.408386031165719" lon="2.563837012276053">
        <ele>469.74000000000001</ele>
        <time>2025-05-15T10:22:36Z</time>
      </trkpt>
      <trkpt lat="42.408296009525657" lon="2.56380801089108">
        <ele>470.22000000000003</ele>
        <time>2025-05-15T10:22:37Z</time>
      </trkpt>
      <trkpt lat="42.408211017027497" lon="2.563782026991248">
        <ele>470.22000000000003</ele>
        <time>2025-05-15T10:22:38Z</time>
      </trkpt>
      <trkpt lat="42.408128958195448" lon="2.563770962879062">
        <ele>470.22000000000003</ele>
        <time>2025-05-15T10:22:39Z</time>
      </trkpt>
      <trkpt lat="42.408040026202798" lon="2.563810022547841">
        <ele>470.69999999999999</ele>
        <time>2025-05-15T10:22:40Z</time>
      </trkpt>
      <trkpt lat="42.407955033704638" lon="2.563870958983898">
        <ele>470.69999999999999</ele>
        <time>2025-05-15T10:22:41Z</time>
      </trkpt>
      <trkpt lat="42.407869035378098" lon="2.563962992280722">
        <ele>470.69999999999999</ele>
        <time>2025-05-15T10:22:42Z</time>
      </trkpt>
      <trkpt lat="42.407842967659235" lon="2.564089978113771">
        <ele>470.69999999999999</ele>
        <time>2025-05-15T10:22:43Z</time>
      </trkpt>
      <trkpt lat="42.407814972102642" lon="2.564226016402245">
        <ele>471.18000000000001</ele>
        <time>2025-05-15T10:22:44Z</time>
      </trkpt>
      <trkpt lat="42.407784964889288" lon="2.564370017498732">
        <ele>471.66000000000003</ele>
        <time>2025-05-15T10:22:45Z</time>
      </trkpt>
      <trkpt lat="42.407781025394797" lon="2.564709987491369">
        <ele>472.13999999999999</ele>
        <time>2025-05-15T10:22:47Z</time>
      </trkpt>
      <trkpt lat="42.407794017344713" lon="2.56488399580121">
        <ele>472.63</ele>
        <time>2025-05-15T10:22:48Z</time>
      </trkpt>
      <trkpt lat="42.407822012901306" lon="2.565346006304026">
        <ele>474.06999999999999</ele>
        <time>2025-05-15T10:22:51Z</time>
      </trkpt>
      <trkpt lat="42.407790999859571" lon="2.565438961610198">
        <ele>474.55000000000001</ele>
        <time>2025-05-15T10:22:52Z</time>
      </trkpt>
      <trkpt lat="42.407725034281611" lon="2.565475003793836">
        <ele>475.02999999999997</ele>
        <time>2025-05-15T10:22:53Z</time>
      </trkpt>
      <trkpt lat="42.40765898488462" lon="2.565494030714035">
        <ele>475.99000000000001</ele>
        <time>2025-05-15T10:22:54Z</time>
      </trkpt>
      <trkpt lat="42.407605005428195" lon="2.56548598408699">
        <ele>476.47000000000003</ele>
        <time>2025-05-15T10:22:55Z</time>
      </trkpt>
      <trkpt lat="42.40751096047461" lon="2.565438961610198">
        <ele>476.94999999999999</ele>
        <time>2025-05-15T10:22:56Z</time>
      </trkpt>
      <trkpt lat="42.407377017661929" lon="2.565371990203857">
        <ele>477.43000000000001</ele>
        <time>2025-05-15T10:22:57Z</time>
      </trkpt>
      <trkpt lat="42.407300993800163" lon="2.565288003534079">
        <ele>477.91000000000003</ele>
        <time>2025-05-15T10:22:58Z</time>
      </trkpt>
      <trkpt lat="42.40716302767396" lon="2.565136039629579">
        <ele>478.38999999999999</ele>
        <time>2025-05-15T10:22:59Z</time>
      </trkpt>
      <trkpt lat="42.407131008803844" lon="2.565025985240936">
        <ele>478.87</ele>
        <time>2025-05-15T10:23:00Z</time>
      </trkpt>
      <trkpt lat="42.40707702934742" lon="2.564833033829927">
        <ele>479.83999999999997</ele>
        <time>2025-05-15T10:23:01Z</time>
      </trkpt>
      <trkpt lat="42.407087003812194" lon="2.564682997763157">
        <ele>480.80000000000001</ele>
        <time>2025-05-15T10:23:02Z</time>
      </trkpt>
      <trkpt lat="42.407096978276968" lon="2.564546037465334">
        <ele>481.75999999999999</ele>
        <time>2025-05-15T10:23:03Z</time>
      </trkpt>
      <trkpt lat="42.407107958570123" lon="2.56438703276217">
        <ele>483.19999999999999</ele>
        <time>2025-05-15T10:23:04Z</time>
      </trkpt>
      <trkpt lat="42.40712002851069" lon="2.564213024452329">
        <ele>484.16000000000003</ele>
        <time>2025-05-15T10:23:05Z</time>
      </trkpt>
      <trkpt lat="42.40707996301353" lon="2.564082015305758">
        <ele>485.12</ele>
        <time>2025-05-15T10:23:06Z</time>
      </trkpt>
      <trkpt lat="42.407007962465286" lon="2.563938014209271">
        <ele>486.56</ele>
        <time>2025-05-15T10:23:07Z</time>
      </trkpt>
      <trkpt lat="42.40690503269434" lon="2.563804993405938">
        <ele>488.00999999999999</ele>
        <time>2025-05-15T10:23:08Z</time>
      </trkpt>
      <trkpt lat="42.406804030761123" lon="2.563675995916128">
        <ele>489.44999999999999</ele>
        <time>2025-05-15T10:23:09Z</time>
      </trkpt>
      <trkpt lat="42.406705040484667" lon="2.563548004254699">
        <ele>490.41000000000003</ele>
        <time>2025-05-15T10:23:10Z</time>
      </trkpt>
      <trkpt lat="42.406621975824237" lon="2.563441973179579">
        <ele>491.85000000000002</ele>
        <time>2025-05-15T10:23:11Z</time>
      </trkpt>
      <trkpt lat="42.406547041609883" lon="2.563393022865057">
        <ele>492.81</ele>
        <time>2025-05-15T10:23:12Z</time>
      </trkpt>
      <trkpt lat="42.406481998041272" lon="2.563364021480084">
        <ele>493.76999999999998</ele>
        <time>2025-05-15T10:23:13Z</time>
      </trkpt>
      <trkpt lat="42.40636900998652" lon="2.563311969861388">
        <ele>494.74000000000001</ele>
        <time>2025-05-15T10:23:14Z</time>
      </trkpt>
      <trkpt lat="42.406353000551462" lon="2.563316999003291">
        <ele>495.69999999999999</ele>
        <time>2025-05-15T10:23:15Z</time>
      </trkpt>
      <trkpt lat="42.406302960589528" lon="2.563333008438349">
        <ele>497.13999999999999</ele>
        <time>2025-05-15T10:23:16Z</time>
      </trkpt>
      <trkpt lat="42.406257027760148" lon="2.563347006216645">
        <ele>498.10000000000002</ele>
        <time>2025-05-15T10:23:17Z</time>
      </trkpt>
      <trkpt lat="42.406207993626595" lon="2.563363015651703">
        <ele>499.06</ele>
        <time>2025-05-15T10:23:18Z</time>
      </trkpt>
      <trkpt lat="42.406166000291705" lon="2.563376007601619">
        <ele>500.5</ele>
        <time>2025-05-15T10:23:19Z</time>
      </trkpt>
      <trkpt lat="42.406128030270338" lon="2.563387993723154">
        <ele>501.45999999999998</ele>
        <time>2025-05-15T10:23:20Z</time>
      </trkpt>
      <trkpt lat="42.406077990308404" lon="2.563404003158212">
        <ele>502.91000000000003</ele>
        <time>2025-05-15T10:23:21Z</time>
      </trkpt>
      <trkpt lat="42.405960978940129" lon="2.563440967351198">
        <ele>503.87</ele>
        <time>2025-05-15T10:23:22Z</time>
      </trkpt>
      <trkpt lat="42.405923008918762" lon="2.563499975949526">
        <ele>505.31</ele>
        <time>2025-05-15T10:23:23Z</time>
      </trkpt>
      <trkpt lat="42.40585695952177" lon="2.563600977882743">
        <ele>506.26999999999998</ele>
        <time>2025-05-15T10:23:24Z</time>
      </trkpt>
      <trkpt lat="42.405787976458669" lon="2.563709020614624">
        <ele>506.75</ele>
        <time>2025-05-15T10:23:25Z</time>
      </trkpt>
      <trkpt lat="42.405718993395567" lon="2.563848998397589">
        <ele>507.23000000000002</ele>
        <time>2025-05-15T10:23:26Z</time>
      </trkpt>
      <trkpt lat="42.405700972303748" lon="2.563992999494076">
        <ele>508.19</ele>
        <time>2025-05-15T10:23:27Z</time>
      </trkpt>
      <trkpt lat="42.405679011717439" lon="2.564158961176872">
        <ele>509.16000000000003</ele>
        <time>2025-05-15T10:23:28Z</time>
      </trkpt>
      <trkpt lat="42.40570398978889" lon="2.564792968332768">
        <ele>512.03999999999996</ele>
        <time>2025-05-15T10:23:31Z</time>
      </trkpt>
      <trkpt lat="42.405751012265682" lon="2.565327985212207">
        <ele>515.39999999999998</ele>
        <time>2025-05-15T10:23:34Z</time>
      </trkpt>
      <trkpt lat="42.405759980902076" lon="2.565430998802185">
        <ele>516.37</ele>
        <time>2025-05-15T10:23:35Z</time>
      </trkpt>
      <trkpt lat="42.405721005052328" lon="2.565529989078641">
        <ele>517.33000000000004</ele>
        <time>2025-05-15T10:23:36Z</time>
      </trkpt>
      <trkpt lat="42.405675994232297" lon="2.565537029877305">
        <ele>518.28999999999996</ele>
        <time>2025-05-15T10:23:37Z</time>
      </trkpt>
      <trkpt lat="42.405640035867691" lon="2.565543986856937">
        <ele>518.76999999999998</ele>
        <time>2025-05-15T10:23:38Z</time>
      </trkpt>
      <trkpt lat="42.40559502504766" lon="2.565467040985823">
        <ele>519.73000000000002</ele>
        <time>2025-05-15T10:23:39Z</time>
      </trkpt>
      <trkpt lat="42.405549008399248" lon="2.565386993810535">
        <ele>520.69000000000005</ele>
        <time>2025-05-15T10:23:40Z</time>
      </trkpt>
      <trkpt lat="42.40548899397254" lon="2.565283980220556">
        <ele>521.64999999999998</ele>
        <time>2025-05-15T10:23:41Z</time>
      </trkpt>
      <trkpt lat="42.405267041176558" lon="2.5649069622159">
        <ele>524.53999999999996</ele>
        <time>2025-05-15T10:23:44Z</time>
      </trkpt>
      <trkpt lat="42.405215995386243" lon="2.564765978604555">
        <ele>525.5</ele>
        <time>2025-05-15T10:23:45Z</time>
      </trkpt>
      <trkpt lat="42.405163021758199" lon="2.564619965851307">
        <ele>526.46000000000004</ele>
        <time>2025-05-15T10:23:46Z</time>
      </trkpt>
      <trkpt lat="42.405095966532826" lon="2.564480993896723">
        <ele>526.94000000000005</ele>
        <time>2025-05-15T10:23:47Z</time>
      </trkpt>
      <trkpt lat="42.404985995963216" lon="2.564359959214926">
        <ele>527.89999999999998</ele>
        <time>2025-05-15T10:23:48Z</time>
      </trkpt>
      <trkpt lat="42.40484400652349" lon="2.564313020557165">
        <ele>529.34000000000003</ele>
        <time>2025-05-15T10:23:49Z</time>
      </trkpt>
      <trkpt lat="42.404697993770242" lon="2.564311008900404">
        <ele>530.78999999999996</ele>
        <time>2025-05-15T10:23:50Z</time>
      </trkpt>
      <trkpt lat="42.404541000723839" lon="2.564330035820603">
        <ele>532.23000000000002</ele>
        <time>2025-05-15T10:23:51Z</time>
      </trkpt>
      <trkpt lat="42.404390964657068" lon="2.56434503942728">
        <ele>533.19000000000005</ele>
        <time>2025-05-15T10:23:52Z</time>
      </trkpt>
      <trkpt lat="42.404259033501148" lon="2.564355013892055">
        <ele>534.63</ele>
        <time>2025-05-15T10:23:53Z</time>
      </trkpt>
      <trkpt lat="42.404145039618015" lon="2.564362976700068">
        <ele>535.59000000000003</ele>
        <time>2025-05-15T10:23:54Z</time>
      </trkpt>
      <trkpt lat="42.404059041291475" lon="2.564286030828953">
        <ele>537.02999999999997</ele>
        <time>2025-05-15T10:23:55Z</time>
      </trkpt>
      <trkpt lat="42.404007995501161" lon="2.564234985038638">
        <ele>537.99000000000001</ele>
        <time>2025-05-15T10:23:56Z</time>
      </trkpt>
      <trkpt lat="42.403970025479794" lon="2.564085032790899">
        <ele>538.96000000000004</ele>
        <time>2025-05-15T10:23:57Z</time>
      </trkpt>
      <trkpt lat="42.403932977467775" lon="2.563936002552509">
        <ele>539.91999999999996</ele>
        <time>2025-05-15T10:23:58Z</time>
      </trkpt>
      <trkpt lat="42.403888972476125" lon="2.56376501172781">
        <ele>540.88</ele>
        <time>2025-05-15T10:23:59Z</time>
      </trkpt>
      <trkpt lat="42.403842033818364" lon="2.563578011468053">
        <ele>541.36000000000001</ele>
        <time>2025-05-15T10:24:00Z</time>
      </trkpt>
      <trkpt lat="42.403571968898177" lon="2.562420973554254">
        <ele>547.13</ele>
        <time>2025-05-15T10:24:06Z</time>
      </trkpt>
      <trkpt lat="42.403557971119881" lon="2.56232500076294">
        <ele>547.61000000000001</ele>
        <time>2025-05-15T10:24:07Z</time>
      </trkpt>
      <trkpt lat="42.403455041348934" lon="2.56219700910151">
        <ele>549.04999999999995</ele>
        <time>2025-05-15T10:24:08Z</time>
      </trkpt>
      <trkpt lat="42.403385974466801" lon="2.56211000494659">
        <ele>549.52999999999997</ele>
        <time>2025-05-15T10:24:09Z</time>
      </trkpt>
      <trkpt lat="42.403287990018725" lon="2.562077986076474">
        <ele>550.49000000000001</ele>
        <time>2025-05-15T10:24:10Z</time>
      </trkpt>
      <trkpt lat="42.403178019449115" lon="2.562045967206359">
        <ele>551.45000000000005</ele>
        <time>2025-05-15T10:24:11Z</time>
      </trkpt>
      <trkpt lat="42.403052039444447" lon="2.562042027711868">
        <ele>552.40999999999997</ele>
        <time>2025-05-15T10:24:12Z</time>
      </trkpt>
      <trkpt lat="42.402645014226437" lon="2.562029035761952">
        <ele>555.77999999999997</ele>
        <time>2025-05-15T10:24:15Z</time>
      </trkpt>
      <trkpt lat="42.402505958452821" lon="2.56202501244843">
        <ele>556.74000000000001</ele>
        <time>2025-05-15T10:24:16Z</time>
      </trkpt>
      <trkpt lat="42.402366986498237" lon="2.562088966369629">
        <ele>557.22000000000003</ele>
        <time>2025-05-15T10:24:17Z</time>
      </trkpt>
      <trkpt lat="42.40222399123013" lon="2.562156021595001">
        <ele>557.70000000000005</ele>
        <time>2025-05-15T10:24:18Z</time>
      </trkpt>
      <trkpt lat="42.402082001790404" lon="2.562256017699838">
        <ele>558.65999999999997</ele>
        <time>2025-05-15T10:24:19Z</time>
      </trkpt>
      <trkpt lat="42.40194596350193" lon="2.562351990491152">
        <ele>559.62</ele>
        <time>2025-05-15T10:24:20Z</time>
      </trkpt>
      <trkpt lat="42.40168402902782" lon="2.562490040436387">
        <ele>561.07000000000005</ele>
        <time>2025-05-15T10:24:22Z</time>
      </trkpt>
      <trkpt lat="42.400561021640897" lon="2.56303402595222">
        <ele>574.03999999999996</ele>
        <time>2025-05-15T10:24:30Z</time>
      </trkpt>
      <trkpt lat="42.400135975331068" lon="2.563192024827004">
        <ele>578.85000000000002</ele>
        <time>2025-05-15T10:24:33Z</time>
      </trkpt>
      <trkpt lat="42.39964404143393" lon="2.563265031203628">
        <ele>584.62</ele>
        <time>2025-05-15T10:24:36Z</time>
      </trkpt>
      <trkpt lat="42.399374982342124" lon="2.563305012881756">
        <ele>587.98000000000002</ele>
        <time>2025-05-15T10:24:38Z</time>
      </trkpt>
      <trkpt lat="42.399268029257655" lon="2.563351029530168">
        <ele>589.42999999999995</ele>
        <time>2025-05-15T10:24:39Z</time>
      </trkpt>
      <trkpt lat="42.399174990132451" lon="2.563409032300115">
        <ele>590.87</ele>
        <time>2025-05-15T10:24:40Z</time>
      </trkpt>
      <trkpt lat="42.399082034826279" lon="2.563468040898442">
        <ele>592.30999999999995</ele>
        <time>2025-05-15T10:24:41Z</time>
      </trkpt>
      <trkpt lat="42.398986984044313" lon="2.563526965677738">
        <ele>593.75</ele>
        <time>2025-05-15T10:24:42Z</time>
      </trkpt>
      <trkpt lat="42.398883970454335" lon="2.563540963456035">
        <ele>594.71000000000004</ele>
        <time>2025-05-15T10:24:43Z</time>
      </trkpt>
      <trkpt lat="42.398789003491402" lon="2.563519002869725">
        <ele>595.66999999999996</ele>
        <time>2025-05-15T10:24:44Z</time>
      </trkpt>
      <trkpt lat="42.398685989901423" lon="2.563456976786256">
        <ele>596.14999999999998</ele>
        <time>2025-05-15T10:24:45Z</time>
      </trkpt>
      <trkpt lat="42.398566966876388" lon="2.563384976238012">
        <ele>596.14999999999998</ele>
        <time>2025-05-15T10:24:46Z</time>
      </trkpt>
      <trkpt lat="42.398057011887431" lon="2.56307702511549">
        <ele>594.71000000000004</ele>
        <time>2025-05-15T10:24:50Z</time>
      </trkpt>
      <trkpt lat="42.39781997166574" lon="2.562990020960569">
        <ele>594.23000000000002</ele>
        <time>2025-05-15T10:24:52Z</time>
      </trkpt>
      <trkpt lat="42.397692985832691" lon="2.562990020960569">
        <ele>594.23000000000002</ele>
        <time>2025-05-15T10:24:53Z</time>
      </trkpt>
      <trkpt lat="42.397472038865089" lon="2.562967976555228">
        <ele>594.23000000000002</ele>
        <time>2025-05-15T10:24:55Z</time>
      </trkpt>
      <trkpt lat="42.397385034710169" lon="2.562892958521843">
        <ele>593.75</ele>
        <time>2025-05-15T10:24:56Z</time>
      </trkpt>
      <trkpt lat="42.397339018061757" lon="2.562823975458741">
        <ele>593.75</ele>
        <time>2025-05-15T10:24:57Z</time>
      </trkpt>
      <trkpt lat="42.397334994748235" lon="2.56281903013587">
        <ele>593.75</ele>
        <time>2025-05-15T10:24:58Z</time>
      </trkpt>
      <trkpt lat="42.397334994748235" lon="2.562679974362254">
        <ele>593.75</ele>
        <time>2025-05-15T10:24:59Z</time>
      </trkpt>
      <trkpt lat="42.397334994748235" lon="2.562605040147901">
        <ele>593.75</ele>
        <time>2025-05-15T10:25:00Z</time>
      </trkpt>
      <trkpt lat="42.397334994748235" lon="2.56260403431952">
        <ele>593.26999999999998</ele>
        <time>2025-05-15T10:25:01Z</time>
      </trkpt>
      <trkpt lat="42.39736701361835" lon="2.562551982700825">
        <ele>593.26999999999998</ele>
        <time>2025-05-15T10:25:02Z</time>
      </trkpt>
      <trkpt lat="42.397399032488465" lon="2.562496997416019">
        <ele>593.26999999999998</ele>
        <time>2025-05-15T10:25:03Z</time>
      </trkpt>
      <trkpt lat="42.397400960326195" lon="2.562496997416019">
        <ele>592.78999999999996</ele>
        <time>2025-05-15T10:25:04Z</time>
      </trkpt>
      <trkpt lat="42.397452006116509" lon="2.562489034608007">
        <ele>592.30999999999995</ele>
        <time>2025-05-15T10:25:05Z</time>
      </trkpt>
      <trkpt lat="42.397511014714837" lon="2.562480987980962">
        <ele>591.35000000000002</ele>
        <time>2025-05-15T10:25:06Z</time>
      </trkpt>
      <trkpt lat="42.397549990564585" lon="2.56247503682971">
        <ele>590.38999999999999</ele>
        <time>2025-05-15T10:25:07Z</time>
      </trkpt>
      <trkpt lat="42.397657027468085" lon="2.562576960772276">
        <ele>588.95000000000005</ele>
        <time>2025-05-15T10:25:08Z</time>
      </trkpt>
      <trkpt lat="42.397876968607306" lon="2.562786005437374">
        <ele>586.05999999999995</ele>
        <time>2025-05-15T10:25:10Z</time>
      </trkpt>
      <trkpt lat="42.398201012983918" lon="2.562907040119171">
        <ele>583.65999999999997</ele>
        <time>2025-05-15T10:25:12Z</time>
      </trkpt>
      <trkpt lat="42.398329004645348" lon="2.562931012362242">
        <ele>582.70000000000005</ele>
        <time>2025-05-15T10:25:13Z</time>
      </trkpt>
      <trkpt lat="42.398437969386578" lon="2.56295096129179">
        <ele>581.25</ele>
        <time>2025-05-15T10:25:14Z</time>
      </trkpt>
      <trkpt lat="42.398536959663033" lon="2.562968982383609">
        <ele>579.80999999999995</ele>
        <time>2025-05-15T10:25:15Z</time>
      </trkpt>
      <trkpt lat="42.398637039586902" lon="2.562988009303808">
        <ele>579.80999999999995</ele>
        <time>2025-05-15T10:25:16Z</time>
      </trkpt>
      <trkpt lat="42.398880030959845" lon="2.563033020123839">
        <ele>578.85000000000002</ele>
        <time>2025-05-15T10:25:17Z</time>
      </trkpt>
      <trkpt lat="42.399141965433955" lon="2.562869992107153">
        <ele>576.92999999999995</ele>
        <time>2025-05-15T10:25:19Z</time>
      </trkpt>
      <trkpt lat="42.399267023429275" lon="2.562773013487458">
        <ele>576.92999999999995</ele>
        <time>2025-05-15T10:25:20Z</time>
      </trkpt>
      <trkpt lat="42.399373976513743" lon="2.56269003264606">
        <ele>576.92999999999995</ele>
        <time>2025-05-15T10:25:21Z</time>
      </trkpt>
      <trkpt lat="42.399504985660315" lon="2.562628006562591">
        <ele>576.92999999999995</ele>
        <time>2025-05-15T10:25:22Z</time>
      </trkpt>
      <trkpt lat="42.399738002568483" lon="2.56251803599298">
        <ele>576.92999999999995</ele>
        <time>2025-05-15T10:25:23Z</time>
      </trkpt>
      <trkpt lat="42.399888960644603" lon="2.562367999926209">
        <ele>577.40999999999997</ele>
        <time>2025-05-15T10:25:24Z</time>
      </trkpt>
      <trkpt lat="42.400081995874643" lon="2.562002968043089">
        <ele>578.37</ele>
        <time>2025-05-15T10:25:26Z</time>
      </trkpt>
      <trkpt lat="42.400089036673307" lon="2.561993999406695">
        <ele>578.37</ele>
        <time>2025-05-15T10:25:27Z</time>
      </trkpt>
      <trkpt lat="42.400180986151099" lon="2.561872964724898">
        <ele>579.33000000000004</ele>
        <time>2025-05-15T10:25:28Z</time>
      </trkpt>
      <trkpt lat="42.400263966992497" lon="2.561763999983668">
        <ele>580.76999999999998</ele>
        <time>2025-05-15T10:25:29Z</time>
      </trkpt>
      <trkpt lat="42.400429006665945" lon="2.561528971418738">
        <ele>582.70000000000005</ele>
        <time>2025-05-15T10:25:30Z</time>
      </trkpt>
      <trkpt lat="42.400458008050919" lon="2.561367033049464">
        <ele>584.62</ele>
        <time>2025-05-15T10:25:31Z</time>
      </trkpt>
      <trkpt lat="42.400486003607512" lon="2.561124041676521">
        <ele>586.05999999999995</ele>
        <time>2025-05-15T10:25:32Z</time>
      </trkpt>
      <trkpt lat="42.400467982515693" lon="2.56077996455133">
        <ele>588.95000000000005</ele>
        <time>2025-05-15T10:25:34Z</time>
      </trkpt>
      <trkpt lat="42.400467982515693" lon="2.56077996455133">
        <ele>590.38999999999999</ele>
        <time>2025-05-15T10:25:35Z</time>
      </trkpt>
      <trkpt lat="42.400474017485976" lon="2.560763033106923">
        <ele>590.87</ele>
        <time>2025-05-15T10:25:36Z</time>
      </trkpt>
      <trkpt lat="42.400532020255923" lon="2.56060796789825">
        <ele>591.83000000000004</ele>
        <time>2025-05-15T10:25:37Z</time>
      </trkpt>
      <trkpt lat="42.400532020255923" lon="2.56060796789825">
        <ele>592.78999999999996</ele>
        <time>2025-05-15T10:25:38Z</time>
      </trkpt>
      <trkpt lat="42.400584993883967" lon="2.560588018968701">
        <ele>593.75</ele>
        <time>2025-05-15T10:25:39Z</time>
      </trkpt>
      <trkpt lat="42.400652971118689" lon="2.56056304089725">
        <ele>594.23000000000002</ele>
        <time>2025-05-15T10:25:40Z</time>
      </trkpt>
      <trkpt lat="42.400704016909003" lon="2.560544013977051">
        <ele>594.23000000000002</ele>
        <time>2025-05-15T10:25:41Z</time>
      </trkpt>
      <trkpt lat="42.401004005223513" lon="2.56073696538806">
        <ele>594.71000000000004</ele>
        <time>2025-05-15T10:25:42Z</time>
      </trkpt>
      <trkpt lat="42.401111964136362" lon="2.56069396622479">
        <ele>596.14999999999998</ele>
        <time>2025-05-15T10:25:43Z</time>
      </trkpt>
      <trkpt lat="42.401176001876593" lon="2.56056597456336">
        <ele>597.60000000000002</ele>
        <time>2025-05-15T10:25:44Z</time>
      </trkpt>
      <trkpt lat="42.401205003261566" lon="2.560450974851847">
        <ele>598.55999999999995</ele>
        <time>2025-05-15T10:25:45Z</time>
      </trkpt>
      <trkpt lat="42.401262000203133" lon="2.5602219812572">
        <ele>599.03999999999996</ele>
        <time>2025-05-15T10:25:46Z</time>
      </trkpt>
      <trkpt lat="42.401253031566739" lon="2.560088960453868">
        <ele>600</ele>
        <time>2025-05-15T10:25:47Z</time>
      </trkpt>
      <trkpt lat="42.401224030181766" lon="2.559861978515983">
        <ele>601.44000000000005</ele>
        <time>2025-05-15T10:25:48Z</time>
      </trkpt>
      <trkpt lat="42.401163009926677" lon="2.559723006561399">
        <ele>601.91999999999996</ele>
        <time>2025-05-15T10:25:49Z</time>
      </trkpt>
      <trkpt lat="42.401109030470252" lon="2.559599038213491">
        <ele>602.39999999999998</ele>
        <time>2025-05-15T10:25:50Z</time>
      </trkpt>
      <trkpt lat="42.401025965809822" lon="2.559407008811832">
        <ele>602.88</ele>
        <time>2025-05-15T10:25:51Z</time>
      </trkpt>
      <trkpt lat="42.401025965809822" lon="2.559407008811832">
        <ele>603.36000000000001</ele>
        <time>2025-05-15T10:25:52Z</time>
      </trkpt>
      <trkpt lat="42.401040969416499" lon="2.559325033798814">
        <ele>603.85000000000002</ele>
        <time>2025-05-15T10:25:53Z</time>
      </trkpt>
      <trkpt lat="42.401054967194796" lon="2.559244986623526">
        <ele>604.33000000000004</ele>
        <time>2025-05-15T10:25:54Z</time>
      </trkpt>
      <trkpt lat="42.401065025478601" lon="2.559192012995482">
        <ele>604.80999999999995</ele>
        <time>2025-05-15T10:25:55Z</time>
      </trkpt>
      <trkpt lat="42.401133002713323" lon="2.559154964983463">
        <ele>605.76999999999998</ele>
        <time>2025-05-15T10:25:56Z</time>
      </trkpt>
      <trkpt lat="42.401182958856225" lon="2.559141973033547">
        <ele>605.76999999999998</ele>
        <time>2025-05-15T10:25:57Z</time>
      </trkpt>
      <trkpt lat="42.401240039616823" lon="2.559127975255251">
        <ele>605.28999999999996</ele>
        <time>2025-05-15T10:25:58Z</time>
      </trkpt>
      <trkpt lat="42.401240039616823" lon="2.559127975255251">
        <ele>604.80999999999995</ele>
        <time>2025-05-15T10:25:59Z</time>
      </trkpt>
      <trkpt lat="42.401240039616823" lon="2.559127975255251">
        <ele>604.33000000000004</ele>
        <time>2025-05-15T10:26:00Z</time>
      </trkpt>
      <trkpt lat="42.401604987680912" lon="2.559364009648562">
        <ele>603.36000000000001</ele>
        <time>2025-05-15T10:26:01Z</time>
      </trkpt>
      <trkpt lat="42.401787964627147" lon="2.559272982180119">
        <ele>601.91999999999996</ele>
        <time>2025-05-15T10:26:02Z</time>
      </trkpt>
      <trkpt lat="42.401870023459196" lon="2.559149013832212">
        <ele>601.44000000000005</ele>
        <time>2025-05-15T10:26:03Z</time>
      </trkpt>
      <trkpt lat="42.401955015957355" lon="2.559022027999163">
        <ele>601.44000000000005</ele>
        <time>2025-05-15T10:26:04Z</time>
      </trkpt>
      <trkpt lat="42.402056017890573" lon="2.558869980275631">
        <ele>601.44000000000005</ele>
        <time>2025-05-15T10:26:05Z</time>
      </trkpt>
      <trkpt lat="42.402122989296913" lon="2.558829998597503">
        <ele>601.44000000000005</ele>
        <time>2025-05-15T10:26:06Z</time>
      </trkpt>
      <trkpt lat="42.402248969301581" lon="2.558753974735737">
        <ele>601.91999999999996</ele>
        <time>2025-05-15T10:26:07Z</time>
      </trkpt>
      <trkpt lat="42.402592040598392" lon="2.558548031374812">
        <ele>604.80999999999995</ele>
        <time>2025-05-15T10:26:09Z</time>
      </trkpt>
      <trkpt lat="42.402636967599392" lon="2.55848198197782">
        <ele>607.21000000000004</ele>
        <time>2025-05-15T10:26:10Z</time>
      </trkpt>
      <trkpt lat="42.402764037251472" lon="2.558290958404541">
        <ele>609.61000000000001</ele>
        <time>2025-05-15T10:26:11Z</time>
      </trkpt>
      <trkpt lat="42.40278298035264" lon="2.558213006705046">
        <ele>612.01999999999998</ele>
        <time>2025-05-15T10:26:12Z</time>
      </trkpt>
      <trkpt lat="42.402812987565994" lon="2.558086020871997">
        <ele>614.41999999999996</ele>
        <time>2025-05-15T10:26:13Z</time>
      </trkpt>
      <trkpt lat="42.402842994779348" lon="2.557959035038948">
        <ele>616.82000000000005</ele>
        <time>2025-05-15T10:26:14Z</time>
      </trkpt>
      <trkpt lat="42.402945002540946" lon="2.557529965415597">
        <ele>625.96000000000004</ele>
        <time>2025-05-15T10:26:18Z</time>
      </trkpt>
      <trkpt lat="42.402978027239442" lon="2.557389987632632">
        <ele>627.39999999999998</ele>
        <time>2025-05-15T10:26:19Z</time>
      </trkpt>
      <trkpt lat="42.40297400392592" lon="2.557354029268026">
        <ele>627.88</ele>
        <time>2025-05-15T10:26:20Z</time>
      </trkpt>
      <trkpt lat="42.402964029461145" lon="2.557284040376544">
        <ele>628.36000000000001</ele>
        <time>2025-05-15T10:26:21Z</time>
      </trkpt>
      <trkpt lat="42.402936033904552" lon="2.557068038731813">
        <ele>628.36000000000001</ele>
        <time>2025-05-15T10:26:22Z</time>
      </trkpt>
      <trkpt lat="42.402936033904552" lon="2.557068038731813">
        <ele>629.79999999999995</ele>
        <time>2025-05-15T10:26:23Z</time>
      </trkpt>
      <trkpt lat="42.402891023084521" lon="2.557010035961866">
        <ele>631.24000000000001</ele>
        <time>2025-05-15T10:26:24Z</time>
      </trkpt>
      <trkpt lat="42.402841988950968" lon="2.556947004050016">
        <ele>632.67999999999995</ele>
        <time>2025-05-15T10:26:25Z</time>
      </trkpt>
      <trkpt lat="42.402012012898922" lon="2.556454986333847">
        <ele>644.70000000000005</ele>
        <time>2025-05-15T10:26:33Z</time>
      </trkpt>
      <trkpt lat="42.401886032894254" lon="2.556395977735519">
        <ele>646.13999999999999</ele>
        <time>2025-05-15T10:26:34Z</time>
      </trkpt>
      <trkpt lat="42.401781007647514" lon="2.556347027420998">
        <ele>647.10000000000002</ele>
        <time>2025-05-15T10:26:35Z</time>
      </trkpt>
      <trkpt lat="42.401696015149355" lon="2.556306961923838">
        <ele>648.07000000000005</ele>
        <time>2025-05-15T10:26:36Z</time>
      </trkpt>
      <trkpt lat="42.401627032086253" lon="2.556274021044374">
        <ele>649.02999999999997</ele>
        <time>2025-05-15T10:26:37Z</time>
      </trkpt>
      <trkpt lat="42.401390997692943" lon="2.556231021881104">
        <ele>649.99000000000001</ele>
        <time>2025-05-15T10:26:38Z</time>
      </trkpt>
      <trkpt lat="42.401283038780093" lon="2.556102024391294">
        <ele>650.95000000000005</ele>
        <time>2025-05-15T10:26:39Z</time>
      </trkpt>
      <trkpt lat="42.401253031566739" lon="2.55592399276793">
        <ele>651.90999999999997</ele>
        <time>2025-05-15T10:26:40Z</time>
      </trkpt>
      <trkpt lat="42.401219001039863" lon="2.55572902970016">
        <ele>652.87</ele>
        <time>2025-05-15T10:26:41Z</time>
      </trkpt>
      <trkpt lat="42.401187987998128" lon="2.555544963106513">
        <ele>653.83000000000004</ele>
        <time>2025-05-15T10:26:42Z</time>
      </trkpt>
      <trkpt lat="42.401154963299632" lon="2.555351005867124">
        <ele>654.79999999999995</ele>
        <time>2025-05-15T10:26:43Z</time>
      </trkpt>
      <trkpt lat="42.401104001328349" lon="2.555251009762287">
        <ele>655.27999999999997</ele>
        <time>2025-05-15T10:26:44Z</time>
      </trkpt>
      <trkpt lat="42.401004005223513" lon="2.555051017552614">
        <ele>655.75999999999999</ele>
        <time>2025-05-15T10:26:45Z</time>
      </trkpt>
      <trkpt lat="42.400876013562083" lon="2.554922020062804">
        <ele>656.24000000000001</ele>
        <time>2025-05-15T10:26:46Z</time>
      </trkpt>
      <trkpt lat="42.400767970830202" lon="2.554900981485844">
        <ele>656.24000000000001</ele>
        <time>2025-05-15T10:26:47Z</time>
      </trkpt>
      <trkpt lat="42.400707034394145" lon="2.554906010627747">
        <ele>656.72000000000003</ele>
        <time>2025-05-15T10:26:48Z</time>
      </trkpt>
      <trkpt lat="42.400532020255923" lon="2.554922020062804">
        <ele>657.67999999999995</ele>
        <time>2025-05-15T10:26:49Z</time>
      </trkpt>
      <trkpt lat="42.40046102553606" lon="2.554973987862468">
        <ele>658.63999999999999</ele>
        <time>2025-05-15T10:26:50Z</time>
      </trkpt>
      <trkpt lat="42.400394976139069" lon="2.555022016167641">
        <ele>659.12</ele>
        <time>2025-05-15T10:26:51Z</time>
      </trkpt>
      <trkpt lat="42.400334039703012" lon="2.555066021159291">
        <ele>660.08000000000004</ele>
        <time>2025-05-15T10:26:52Z</time>
      </trkpt>
      <trkpt lat="42.400244018062949" lon="2.555098040029407">
        <ele>661.51999999999998</ele>
        <time>2025-05-15T10:26:54Z</time>
      </trkpt>
      <trkpt lat="42.399489982053638" lon="2.555026961490512">
        <ele>669.22000000000003</ele>
        <time>2025-05-15T10:27:01Z</time>
      </trkpt>
      <trkpt lat="42.398982960730791" lon="2.554747005924583">
        <ele>674.01999999999998</ele>
        <time>2025-05-15T10:27:06Z</time>
      </trkpt>
      <trkpt lat="42.398815993219614" lon="2.554640974849463">
        <ele>676.41999999999996</ele>
        <time>2025-05-15T10:27:08Z</time>
      </trkpt>
      <trkpt lat="42.398728989064693" lon="2.55459101870656">
        <ele>677.87</ele>
        <time>2025-05-15T10:27:09Z</time>
      </trkpt>
      <trkpt lat="42.398600997403264" lon="2.554536033421755">
        <ele>679.30999999999995</ele>
        <time>2025-05-15T10:27:10Z</time>
      </trkpt>
      <trkpt lat="42.39854802377522" lon="2.554524969309568">
        <ele>680.26999999999998</ele>
        <time>2025-05-15T10:27:11Z</time>
      </trkpt>
      <trkpt lat="42.398448027670383" lon="2.55450502038002">
        <ele>681.71000000000004</ele>
        <time>2025-05-15T10:27:12Z</time>
      </trkpt>
      <trkpt lat="42.398278964683414" lon="2.554471995681524">
        <ele>682.66999999999996</ele>
        <time>2025-05-15T10:27:13Z</time>
      </trkpt>
      <trkpt lat="42.39824702963233" lon="2.554452968761325">
        <ele>683.63</ele>
        <time>2025-05-15T10:27:14Z</time>
      </trkpt>
      <trkpt lat="42.398129012435675" lon="2.554385997354984">
        <ele>684.60000000000002</ele>
        <time>2025-05-15T10:27:15Z</time>
      </trkpt>
      <trkpt lat="42.398074027150869" lon="2.554307039827108">
        <ele>685.08000000000004</ele>
        <time>2025-05-15T10:27:16Z</time>
      </trkpt>
      <trkpt lat="42.398022981360555" lon="2.554234033450484">
        <ele>685.55999999999995</ele>
        <time>2025-05-15T10:27:17Z</time>
      </trkpt>
      <trkpt lat="42.397972019389272" lon="2.55416102707386">
        <ele>686.03999999999996</ele>
        <time>2025-05-15T10:27:18Z</time>
      </trkpt>
      <trkpt lat="42.39792600274086" lon="2.554086009040475">
        <ele>687</ele>
        <time>2025-05-15T10:27:19Z</time>
      </trkpt>
      <trkpt lat="42.397872023284435" lon="2.553999004885554">
        <ele>687.48000000000002</ele>
        <time>2025-05-15T10:27:20Z</time>
      </trkpt>
      <trkpt lat="42.397822989150882" lon="2.553961034864187">
        <ele>688.44000000000005</ele>
        <time>2025-05-15T10:27:21Z</time>
      </trkpt>
      <trkpt lat="42.397755011916161" lon="2.553910994902253">
        <ele>688.91999999999996</ele>
        <time>2025-05-15T10:27:22Z</time>
      </trkpt>
      <trkpt lat="42.397673958912492" lon="2.553888028487563">
        <ele>689.88</ele>
        <time>2025-05-15T10:27:23Z</time>
      </trkpt>
      <trkpt lat="42.397268023341894" lon="2.553775040432811">
        <ele>693.25</ele>
        <time>2025-05-15T10:27:28Z</time>
      </trkpt>
      <trkpt lat="42.397186970338225" lon="2.55375400185585">
        <ele>694.21000000000004</ele>
        <time>2025-05-15T10:27:29Z</time>
      </trkpt>
      <trkpt lat="42.397103989496827" lon="2.553734974935651">
        <ele>695.64999999999998</ele>
        <time>2025-05-15T10:27:30Z</time>
      </trkpt>
      <trkpt lat="42.39702302031219" lon="2.553716031834483">
        <ele>696.61000000000001</ele>
        <time>2025-05-15T10:27:31Z</time>
      </trkpt>
      <trkpt lat="42.396942973136902" lon="2.553697004914284">
        <ele>697.57000000000005</ele>
        <time>2025-05-15T10:27:32Z</time>
      </trkpt>
      <trkpt lat="42.396867033094168" lon="2.553678983822465">
        <ele>698.04999999999995</ele>
        <time>2025-05-15T10:27:33Z</time>
      </trkpt>
      <trkpt lat="42.396795032545924" lon="2.553661968559027">
        <ele>698.52999999999997</ele>
        <time>2025-05-15T10:27:34Z</time>
      </trkpt>
      <trkpt lat="42.396719008684158" lon="2.55364503711462">
        <ele>699.5</ele>
        <time>2025-05-15T10:27:35Z</time>
      </trkpt>
      <trkpt lat="42.39663896150887" lon="2.553626010194421">
        <ele>699.98000000000002</ele>
        <time>2025-05-15T10:27:36Z</time>
      </trkpt>
      <trkpt lat="42.396554974839091" lon="2.553587034344673">
        <ele>700.46000000000004</ele>
        <time>2025-05-15T10:27:37Z</time>
      </trkpt>
      <trkpt lat="42.396482974290848" lon="2.553522996604443">
        <ele>701.41999999999996</ele>
        <time>2025-05-15T10:27:38Z</time>
      </trkpt>
      <trkpt lat="42.396391024813056" lon="2.553442027419806">
        <ele>701.89999999999998</ele>
        <time>2025-05-15T10:27:39Z</time>
      </trkpt>
      <trkpt lat="42.396338973194361" lon="2.553381007164717">
        <ele>702.86000000000001</ele>
        <time>2025-05-15T10:27:40Z</time>
      </trkpt>
      <trkpt lat="42.39627200178802" lon="2.553304983302951">
        <ele>703.82000000000005</ele>
        <time>2025-05-15T10:27:41Z</time>
      </trkpt>
      <trkpt lat="42.39620603621006" lon="2.553228037431836">
        <ele>704.29999999999995</ele>
        <time>2025-05-15T10:27:42Z</time>
      </trkpt>
      <trkpt lat="42.396138980984688" lon="2.55315100774169">
        <ele>704.77999999999997</ele>
        <time>2025-05-15T10:27:43Z</time>
      </trkpt>
      <trkpt lat="42.396072009578347" lon="2.553079007193446">
        <ele>705.25999999999999</ele>
        <time>2025-05-15T10:27:44Z</time>
      </trkpt>
      <trkpt lat="42.396000009030104" lon="2.553010024130344">
        <ele>705.75</ele>
        <time>2025-05-15T10:27:45Z</time>
      </trkpt>
      <trkpt lat="42.395474966615438" lon="2.552724033594132">
        <ele>707.19000000000005</ele>
        <time>2025-05-15T10:27:51Z</time>
      </trkpt>
      <trkpt lat="42.395382011309266" lon="2.552672987803817">
        <ele>707.66999999999996</ele>
        <time>2025-05-15T10:27:52Z</time>
      </trkpt>
      <trkpt lat="42.395286960527301" lon="2.552611967548728">
        <ele>707.66999999999996</ele>
        <time>2025-05-15T10:27:53Z</time>
      </trkpt>
      <trkpt lat="42.395222000777721" lon="2.552518006414175">
        <ele>708.14999999999998</ele>
        <time>2025-05-15T10:27:54Z</time>
      </trkpt>
      <trkpt lat="42.395157041028142" lon="2.55242396146059">
        <ele>708.14999999999998</ele>
        <time>2025-05-15T10:27:55Z</time>
      </trkpt>
      <trkpt lat="42.39508998580277" lon="2.552298987284303">
        <ele>708.63</ele>
        <time>2025-05-15T10:27:56Z</time>
      </trkpt>
      <trkpt lat="42.395052015781403" lon="2.55216303281486">
        <ele>709.11000000000001</ele>
        <time>2025-05-15T10:27:57Z</time>
      </trkpt>
      <trkpt lat="42.395012034103274" lon="2.552021965384483">
        <ele>709.11000000000001</ele>
        <time>2025-05-15T10:27:58Z</time>
      </trkpt>
      <trkpt lat="42.394972974434495" lon="2.551879975944758">
        <ele>710.07000000000005</ele>
        <time>2025-05-15T10:27:59Z</time>
      </trkpt>
      <trkpt lat="42.394953025504947" lon="2.551699010655284">
        <ele>711.02999999999997</ele>
        <time>2025-05-15T10:28:00Z</time>
      </trkpt>
      <trkpt lat="42.394980015233159" lon="2.551493989303708">
        <ele>711.99000000000001</ele>
        <time>2025-05-15T10:28:01Z</time>
      </trkpt>
      <trkpt lat="42.395038018003106" lon="2.551320986822248">
        <ele>713.44000000000005</ele>
        <time>2025-05-15T10:28:02Z</time>
      </trkpt>
      <trkpt lat="42.395099038258195" lon="2.551135998219252">
        <ele>713.91999999999996</ele>
        <time>2025-05-15T10:28:03Z</time>
      </trkpt>
      <trkpt lat="42.395537998527288" lon="2.549962028861046">
        <ele>719.20000000000005</ele>
        <time>2025-05-15T10:28:09Z</time>
      </trkpt>
      <trkpt lat="42.395561970770359" lon="2.549774022772908">
        <ele>720.15999999999997</ele>
        <time>2025-05-15T10:28:10Z</time>
      </trkpt>
      <trkpt lat="42.395570017397404" lon="2.54958501085639">
        <ele>721.13</ele>
        <time>2025-05-15T10:28:11Z</time>
      </trkpt>
      <trkpt lat="42.395512014627457" lon="2.549425000324845">
        <ele>722.09000000000003</ele>
        <time>2025-05-15T10:28:12Z</time>
      </trkpt>
      <trkpt lat="42.39545501768589" lon="2.549265995621681">
        <ele>723.04999999999995</ele>
        <time>2025-05-15T10:28:13Z</time>
      </trkpt>
      <trkpt lat="42.395402966067195" lon="2.549121994525194">
        <ele>724.00999999999999</ele>
        <time>2025-05-15T10:28:14Z</time>
      </trkpt>
      <trkpt lat="42.395382011309266" lon="2.548980005085468">
        <ele>724.97000000000003</ele>
        <time>2025-05-15T10:28:15Z</time>
      </trkpt>
      <trkpt lat="42.395382011309266" lon="2.548807002604008">
        <ele>725.92999999999995</ele>
        <time>2025-05-15T10:28:16Z</time>
      </trkpt>
      <trkpt lat="42.395416963845491" lon="2.548663001507521">
        <ele>726.88999999999999</ele>
        <time>2025-05-15T10:28:17Z</time>
      </trkpt>
      <trkpt lat="42.395545961335301" lon="2.547706039622426">
        <ele>729.77999999999997</ele>
        <time>2025-05-15T10:28:22Z</time>
      </trkpt>
      <trkpt lat="42.395527018234134" lon="2.547519961372018">
        <ele>730.25999999999999</ele>
        <time>2025-05-15T10:28:23Z</time>
      </trkpt>
      <trkpt lat="42.395499022677541" lon="2.54732801578939">
        <ele>730.25999999999999</ele>
        <time>2025-05-15T10:28:24Z</time>
      </trkpt>
      <trkpt lat="42.395382011309266" lon="2.546940017491579">
        <ele>730.25999999999999</ele>
        <time>2025-05-15T10:28:26Z</time>
      </trkpt>
      <trkpt lat="42.395307999104261" lon="2.546775983646512">
        <ele>730.25999999999999</ele>
        <time>2025-05-15T10:28:27Z</time>
      </trkpt>
      <trkpt lat="42.395200962200761" lon="2.546635000035167">
        <ele>730.25999999999999</ele>
        <time>2025-05-15T10:28:28Z</time>
      </trkpt>
      <trkpt lat="42.395095014944673" lon="2.546537015587091">
        <ele>730.25999999999999</ele>
        <time>2025-05-15T10:28:29Z</time>
      </trkpt>
      <trkpt lat="42.394985966384411" lon="2.546444982290268">
        <ele>730.25999999999999</ele>
        <time>2025-05-15T10:28:30Z</time>
      </trkpt>
      <trkpt lat="42.394868033006787" lon="2.546429978683591">
        <ele>730.25999999999999</ele>
        <time>2025-05-15T10:28:31Z</time>
      </trkpt>
      <trkpt lat="42.394741969183087" lon="2.546412963420153">
        <ele>730.74000000000001</ele>
        <time>2025-05-15T10:28:32Z</time>
      </trkpt>
      <trkpt lat="42.394612971693277" lon="2.546396031975746">
        <ele>731.22000000000003</ele>
        <time>2025-05-15T10:28:33Z</time>
      </trkpt>
      <trkpt lat="42.394484980031848" lon="2.546370970085263">
        <ele>731.70000000000005</ele>
        <time>2025-05-15T10:28:34Z</time>
      </trkpt>
      <trkpt lat="42.394351959228516" lon="2.546286983415484">
        <ele>732.17999999999995</ele>
        <time>2025-05-15T10:28:35Z</time>
      </trkpt>
      <trkpt lat="42.394216004759073" lon="2.546200985088944">
        <ele>732.65999999999997</ele>
        <time>2025-05-15T10:28:36Z</time>
      </trkpt>
      <trkpt lat="42.394090024754405" lon="2.546122027561069">
        <ele>733.13999999999999</ele>
        <time>2025-05-15T10:28:37Z</time>
      </trkpt>
      <trkpt lat="42.393978964537382" lon="2.546066958457232">
        <ele>733.13999999999999</ele>
        <time>2025-05-15T10:28:38Z</time>
      </trkpt>
      <trkpt lat="42.393868993967772" lon="2.546048015356064">
        <ele>733.62</ele>
        <time>2025-05-15T10:28:39Z</time>
      </trkpt>
      <trkpt lat="42.393751982599497" lon="2.546161003410816">
        <ele>734.10000000000002</ele>
        <time>2025-05-15T10:28:40Z</time>
      </trkpt>
      <trkpt lat="42.393699008971453" lon="2.546286983415484">
        <ele>734.58000000000004</ele>
        <time>2025-05-15T10:28:41Z</time>
      </trkpt>
      <trkpt lat="42.393637988716364" lon="2.546430984511972">
        <ele>735.07000000000005</ele>
        <time>2025-05-15T10:28:42Z</time>
      </trkpt>
      <trkpt lat="42.393590966239572" lon="2.546601975336671">
        <ele>735.07000000000005</ele>
        <time>2025-05-15T10:28:43Z</time>
      </trkpt>
      <trkpt lat="42.393552996218204" lon="2.546760980039835">
        <ele>735.07000000000005</ele>
        <time>2025-05-15T10:28:44Z</time>
      </trkpt>
      <trkpt lat="42.393519971519709" lon="2.546900035813451">
        <ele>735.07000000000005</ele>
        <time>2025-05-15T10:28:45Z</time>
      </trkpt>
      <trkpt lat="42.393468003720045" lon="2.546974970027804">
        <ele>735.07000000000005</ele>
        <time>2025-05-15T10:28:46Z</time>
      </trkpt>
      <trkpt lat="42.39341402426362" lon="2.547041019424796">
        <ele>735.07000000000005</ele>
        <time>2025-05-15T10:28:47Z</time>
      </trkpt>
      <trkpt lat="42.393347974866629" lon="2.546987039968371">
        <ele>735.07000000000005</ele>
        <time>2025-05-15T10:28:48Z</time>
      </trkpt>
      <trkpt lat="42.393273040652275" lon="2.546912021934986">
        <ele>735.54999999999995</ele>
        <time>2025-05-15T10:28:49Z</time>
      </trkpt>
      <trkpt lat="42.393182013183832" lon="2.546820994466543">
        <ele>736.02999999999997</ele>
        <time>2025-05-15T10:28:50Z</time>
      </trkpt>
      <trkpt lat="42.393086040392518" lon="2.546725021675229">
        <ele>736.02999999999997</ele>
        <time>2025-05-15T10:28:51Z</time>
      </trkpt>
      <trkpt lat="42.393000964075327" lon="2.546574985608459">
        <ele>736.50999999999999</ele>
        <time>2025-05-15T10:28:52Z</time>
      </trkpt>
      <trkpt lat="42.392923012375832" lon="2.546412963420153">
        <ele>736.99000000000001</ele>
        <time>2025-05-15T10:28:53Z</time>
      </trkpt>
      <trkpt lat="42.392666023224592" lon="2.545876018702984">
        <ele>738.42999999999995</ele>
        <time>2025-05-15T10:28:56Z</time>
      </trkpt>
      <trkpt lat="42.392580024898052" lon="2.54569798707962">
        <ele>738.90999999999997</ele>
        <time>2025-05-15T10:28:57Z</time>
      </trkpt>
      <trkpt lat="42.392471982166171" lon="2.545522972941399">
        <ele>739.38999999999999</ele>
        <time>2025-05-15T10:28:58Z</time>
      </trkpt>
      <trkpt lat="42.392332004383206" lon="2.545434040948749">
        <ele>740.35000000000002</ele>
        <time>2025-05-15T10:28:59Z</time>
      </trkpt>
      <trkpt lat="42.3921890091151" lon="2.545384000986815">
        <ele>740.83000000000004</ele>
        <time>2025-05-15T10:29:00Z</time>
      </trkpt>
      <trkpt lat="42.392048025503755" lon="2.545365979894996">
        <ele>741.30999999999995</ele>
        <time>2025-05-15T10:29:01Z</time>
      </trkpt>
      <trkpt lat="42.391908969730139" lon="2.545347958803177">
        <ele>741.78999999999996</ele>
        <time>2025-05-15T10:29:02Z</time>
      </trkpt>
      <trkpt lat="42.391780978068709" lon="2.54533102735877">
        <ele>742.27999999999997</ele>
        <time>2025-05-15T10:29:03Z</time>
      </trkpt>
      <trkpt lat="42.391662960872054" lon="2.545421971008182">
        <ele>742.75999999999999</ele>
        <time>2025-05-15T10:29:04Z</time>
      </trkpt>
      <trkpt lat="42.391577968373895" lon="2.545490032061935">
        <ele>742.75999999999999</ele>
        <time>2025-05-15T10:29:05Z</time>
      </trkpt>
      <trkpt lat="42.391514014452696" lon="2.545587010681629">
        <ele>742.75999999999999</ele>
        <time>2025-05-15T10:29:06Z</time>
      </trkpt>
      <trkpt lat="42.391442013904452" lon="2.545710979029536">
        <ele>742.27999999999997</ele>
        <time>2025-05-15T10:29:07Z</time>
      </trkpt>
      <trkpt lat="42.391360038891435" lon="2.545851962640882">
        <ele>741.30999999999995</ele>
        <time>2025-05-15T10:29:08Z</time>
      </trkpt>
      <trkpt lat="42.391127021983266" lon="2.54629603587091">
        <ele>739.87</ele>
        <time>2025-05-15T10:29:11Z</time>
      </trkpt>
      <trkpt lat="42.391072036698461" lon="2.546441964805126">
        <ele>739.87</ele>
        <time>2025-05-15T10:29:12Z</time>
      </trkpt>
      <trkpt lat="42.390980003401637" lon="2.546682022511959">
        <ele>739.38999999999999</ele>
        <time>2025-05-15T10:29:14Z</time>
      </trkpt>
      <trkpt lat="42.390943039208651" lon="2.546780006960034">
        <ele>739.38999999999999</ele>
        <time>2025-05-15T10:29:15Z</time>
      </trkpt>
      <trkpt lat="42.390886964276433" lon="2.546895006671548">
        <ele>739.38999999999999</ele>
        <time>2025-05-15T10:29:16Z</time>
      </trkpt>
      <trkpt lat="42.390803983435035" lon="2.546876985579729">
        <ele>739.87</ele>
        <time>2025-05-15T10:29:17Z</time>
      </trkpt>
      <trkpt lat="42.390702981501818" lon="2.546854019165039">
        <ele>739.87</ele>
        <time>2025-05-15T10:29:18Z</time>
      </trkpt>
      <trkpt lat="42.390586975961924" lon="2.546829041093588">
        <ele>740.35000000000002</ele>
        <time>2025-05-15T10:29:19Z</time>
      </trkpt>
      <trkpt lat="42.389706959947944" lon="2.546636005863547">
        <ele>742.75999999999999</ele>
        <time>2025-05-15T10:29:25Z</time>
      </trkpt>
      <trkpt lat="42.38945902325213" lon="2.546582026407123">
        <ele>744.20000000000005</ele>
        <time>2025-05-15T10:29:27Z</time>
      </trkpt>
      <trkpt lat="42.389350980520248" lon="2.54655797034502">
        <ele>744.67999999999995</ele>
        <time>2025-05-15T10:29:28Z</time>
      </trkpt>
      <trkpt lat="42.389203039929271" lon="2.546531986445189">
        <ele>745.63999999999999</ele>
        <time>2025-05-15T10:29:29Z</time>
      </trkpt>
      <trkpt lat="42.389186024665833" lon="2.54651497118175">
        <ele>746.12</ele>
        <time>2025-05-15T10:29:30Z</time>
      </trkpt>
      <trkpt lat="42.389178983867168" lon="2.546353032812476">
        <ele>746.60000000000002</ele>
        <time>2025-05-15T10:29:31Z</time>
      </trkpt>
      <trkpt lat="42.389228018000722" lon="2.546279020607472">
        <ele>747.08000000000004</ele>
        <time>2025-05-15T10:29:32Z</time>
      </trkpt>
      <trkpt lat="42.38928803242743" lon="2.546188998967409">
        <ele>747.55999999999995</ele>
        <time>2025-05-15T10:29:33Z</time>
      </trkpt>
      <trkpt lat="42.389365984126925" lon="2.546071987599134">
        <ele>748.03999999999996</ele>
        <time>2025-05-15T10:29:34Z</time>
      </trkpt>
      <trkpt lat="42.389511996880174" lon="2.545852968469262">
        <ele>748.51999999999998</ele>
        <time>2025-05-15T10:29:36Z</time>
      </trkpt>
      <trkpt lat="42.389577040448785" lon="2.545689018443227">
        <ele>749</ele>
        <time>2025-05-15T10:29:37Z</time>
      </trkpt>
      <trkpt lat="42.389614004641771" lon="2.545518027618527">
        <ele>749</ele>
        <time>2025-05-15T10:29:38Z</time>
      </trkpt>
      <trkpt lat="42.389625990763307" lon="2.545362040400505">
        <ele>749.49000000000001</ele>
        <time>2025-05-15T10:29:39Z</time>
      </trkpt>
      <trkpt lat="42.389614004641771" lon="2.545179985463619">
        <ele>750.45000000000005</ele>
        <time>2025-05-15T10:29:40Z</time>
      </trkpt>
      <trkpt lat="42.389587014913559" lon="2.545012012124062">
        <ele>750.92999999999995</ele>
        <time>2025-05-15T10:29:41Z</time>
      </trkpt>
      <trkpt lat="42.389534963294864" lon="2.54468796774745">
        <ele>752.37</ele>
        <time>2025-05-15T10:29:43Z</time>
      </trkpt>
      <trkpt lat="42.389479978010058" lon="2.544547989964485">
        <ele>753.33000000000004</ele>
        <time>2025-05-15T10:29:44Z</time>
      </trkpt>
      <trkpt lat="42.389382999390364" lon="2.544494010508061">
        <ele>753.80999999999995</ele>
        <time>2025-05-15T10:29:45Z</time>
      </trkpt>
      <trkpt lat="42.389284009113908" lon="2.544467020779848">
        <ele>754.76999999999998</ele>
        <time>2025-05-15T10:29:46Z</time>
      </trkpt>
      <trkpt lat="42.38915903493762" lon="2.544458974152803">
        <ele>756.21000000000004</ele>
        <time>2025-05-15T10:29:47Z</time>
      </trkpt>
      <trkpt lat="42.389019979164004" lon="2.544475989416242">
        <ele>757.17999999999995</ele>
        <time>2025-05-15T10:29:48Z</time>
      </trkpt>
      <trkpt lat="42.388183968141675" lon="2.544498033821583">
        <ele>759.10000000000002</ele>
        <time>2025-05-15T10:29:53Z</time>
      </trkpt>
      <trkpt lat="42.388024963438511" lon="2.544443970546126">
        <ele>759.58000000000004</ele>
        <time>2025-05-15T10:29:54Z</time>
      </trkpt>
      <trkpt lat="42.387733021751046" lon="2.544346991926432">
        <ele>760.05999999999995</ele>
        <time>2025-05-15T10:29:56Z</time>
      </trkpt>
      <trkpt lat="42.387629002332687" lon="2.544259987771511">
        <ele>760.05999999999995</ele>
        <time>2025-05-15T10:29:57Z</time>
      </trkpt>
      <trkpt lat="42.38750696182251" lon="2.544150017201901">
        <ele>760.53999999999996</ele>
        <time>2025-05-15T10:29:58Z</time>
      </trkpt>
      <trkpt lat="42.387455999851227" lon="2.544064018875361">
        <ele>760.53999999999996</ele>
        <time>2025-05-15T10:29:59Z</time>
      </trkpt>
      <trkpt lat="42.387443007901311" lon="2.543884981423616">
        <ele>760.53999999999996</ele>
        <time>2025-05-15T10:30:00Z</time>
      </trkpt>
      <trkpt lat="42.387435967102647" lon="2.543704016134143">
        <ele>760.53999999999996</ele>
        <time>2025-05-15T10:30:01Z</time>
      </trkpt>
      <trkpt lat="42.38741802982986" lon="2.543512992560864">
        <ele>760.53999999999996</ele>
        <time>2025-05-15T10:30:02Z</time>
      </trkpt>
      <trkpt lat="42.387400008738041" lon="2.543314006179571">
        <ele>760.53999999999996</ele>
        <time>2025-05-15T10:30:03Z</time>
      </trkpt>
      <trkpt lat="42.387348040938377" lon="2.543147038668394">
        <ele>760.53999999999996</ele>
        <time>2025-05-15T10:30:04Z</time>
      </trkpt>
      <trkpt lat="42.387293977662921" lon="2.542970012873411">
        <ele>760.05999999999995</ele>
        <time>2025-05-15T10:30:05Z</time>
      </trkpt>
      <trkpt lat="42.387236980721354" lon="2.542786030098796">
        <ele>759.58000000000004</ele>
        <time>2025-05-15T10:30:06Z</time>
      </trkpt>
      <trkpt lat="42.387181995436549" lon="2.542609004303813">
        <ele>759.10000000000002</ele>
        <time>2025-05-15T10:30:07Z</time>
      </trkpt>
      <trkpt lat="42.387057021260262" lon="2.54230197519064">
        <ele>758.13999999999999</ele>
        <time>2025-05-15T10:30:09Z</time>
      </trkpt>
      <trkpt lat="42.386979991570115" lon="2.542168032377958">
        <ele>757.65999999999997</ele>
        <time>2025-05-15T10:30:10Z</time>
      </trkpt>
      <trkpt lat="42.386885024607182" lon="2.542005004361272">
        <ele>757.65999999999997</ele>
        <time>2025-05-15T10:30:11Z</time>
      </trkpt>
      <trkpt lat="42.386760972440243" lon="2.541929986327887">
        <ele>757.65999999999997</ele>
        <time>2025-05-15T10:30:12Z</time>
      </trkpt>
      <trkpt lat="42.386627029627562" lon="2.54185002297163">
        <ele>757.65999999999997</ele>
        <time>2025-05-15T10:30:13Z</time>
      </trkpt>
      <trkpt lat="42.386456038802862" lon="2.541747009381652">
        <ele>757.65999999999997</ele>
        <time>2025-05-15T10:30:14Z</time>
      </trkpt>
      <trkpt lat="42.385206967592239" lon="2.541496977210045">
        <ele>762.46000000000004</ele>
        <time>2025-05-15T10:30:22Z</time>
      </trkpt>
      <trkpt lat="42.385057015344501" lon="2.54146495833993">
        <ele>763.41999999999996</ele>
        <time>2025-05-15T10:30:23Z</time>
      </trkpt>
      <trkpt lat="42.384912008419633" lon="2.541351970285177">
        <ele>764.38999999999999</ele>
        <time>2025-05-15T10:30:24Z</time>
      </trkpt>
      <trkpt lat="42.384488973766565" lon="2.54097000695765">
        <ele>767.75</ele>
        <time>2025-05-15T10:30:27Z</time>
      </trkpt>
      <trkpt lat="42.384331980720162" lon="2.540803039446473">
        <ele>769.19000000000005</ele>
        <time>2025-05-15T10:30:28Z</time>
      </trkpt>
      <trkpt lat="42.384287975728512" lon="2.540672030299902">
        <ele>770.14999999999998</ele>
        <time>2025-05-15T10:30:29Z</time>
      </trkpt>
      <trkpt lat="42.384255034849048" lon="2.540521994233131">
        <ele>770.63</ele>
        <time>2025-05-15T10:30:30Z</time>
      </trkpt>
      <trkpt lat="42.384267020970583" lon="2.540333988144994">
        <ele>771.60000000000002</ele>
        <time>2025-05-15T10:30:31Z</time>
      </trkpt>
      <trkpt lat="42.384332986548543" lon="2.54013299010694">
        <ele>772.55999999999995</ele>
        <time>2025-05-15T10:30:32Z</time>
      </trkpt>
      <trkpt lat="42.384430970996618" lon="2.540025031194091">
        <ele>773.51999999999998</ele>
        <time>2025-05-15T10:30:33Z</time>
      </trkpt>
      <trkpt lat="42.384538007900119" lon="2.539896033704281">
        <ele>774.48000000000002</ele>
        <time>2025-05-15T10:30:34Z</time>
      </trkpt>
      <trkpt lat="42.384617971256375" lon="2.53972495906055">
        <ele>776.39999999999998</ele>
        <time>2025-05-15T10:30:35Z</time>
      </trkpt>
      <trkpt lat="42.384704975411296" lon="2.539540976285934">
        <ele>777.84000000000003</ele>
        <time>2025-05-15T10:30:36Z</time>
      </trkpt>
      <trkpt lat="42.385473009198904" lon="2.538065006956458">
        <ele>787.94000000000005</ele>
        <time>2025-05-15T10:30:44Z</time>
      </trkpt>
      <trkpt lat="42.385539980605245" lon="2.537911031395197">
        <ele>788.89999999999998</ele>
        <time>2025-05-15T10:30:45Z</time>
      </trkpt>
      <trkpt lat="42.385576022788882" lon="2.537820003926754">
        <ele>789.86000000000001</ele>
        <time>2025-05-15T10:30:46Z</time>
      </trkpt>
      <trkpt lat="42.385538974776864" lon="2.537647001445293">
        <ele>790.34000000000003</ele>
        <time>2025-05-15T10:30:47Z</time>
      </trkpt>
      <trkpt lat="42.385511985048652" lon="2.537520015612245">
        <ele>791.29999999999995</ele>
        <time>2025-05-15T10:30:48Z</time>
      </trkpt>
      <trkpt lat="42.385479966178536" lon="2.537413984537125">
        <ele>791.77999999999997</ele>
        <time>2025-05-15T10:30:49Z</time>
      </trkpt>
      <trkpt lat="42.385440990328789" lon="2.537286998704076">
        <ele>791.77999999999997</ele>
        <time>2025-05-15T10:30:50Z</time>
      </trkpt>
      <trkpt lat="42.385398996993899" lon="2.537149032577872">
        <ele>791.77999999999997</ele>
        <time>2025-05-15T10:30:51Z</time>
      </trkpt>
      <trkpt lat="42.385369995608926" lon="2.536997990682721">
        <ele>791.77999999999997</ele>
        <time>2025-05-15T10:30:52Z</time>
      </trkpt>
      <trkpt lat="42.385409977287054" lon="2.536862036213279">
        <ele>792.25999999999999</ele>
        <time>2025-05-15T10:30:53Z</time>
      </trkpt>
      <trkpt lat="42.385449958965182" lon="2.536728009581566">
        <ele>791.77999999999997</ele>
        <time>2025-05-15T10:30:54Z</time>
      </trkpt>
      <trkpt lat="42.385501004755497" lon="2.536607980728149">
        <ele>791.77999999999997</ele>
        <time>2025-05-15T10:30:55Z</time>
      </trkpt>
      <trkpt lat="42.385577028617263" lon="2.536482000723481">
        <ele>792.25999999999999</ele>
        <time>2025-05-15T10:30:56Z</time>
      </trkpt>
      <trkpt lat="42.385660009458661" lon="2.536343028768897">
        <ele>793.22000000000003</ele>
        <time>2025-05-15T10:30:57Z</time>
      </trkpt>
      <trkpt lat="42.385740978643298" lon="2.536209002137184">
        <ele>794.19000000000005</ele>
        <time>2025-05-15T10:30:58Z</time>
      </trkpt>
      <trkpt lat="42.386041972786188" lon="2.53570600412786">
        <ele>798.02999999999997</ele>
        <time>2025-05-15T10:31:02Z</time>
      </trkpt>
      <trkpt lat="42.386074997484684" lon="2.53555303439498">
        <ele>798.50999999999999</ele>
        <time>2025-05-15T10:31:03Z</time>
      </trkpt>
      <trkpt lat="42.386102993041277" lon="2.535402998328209">
        <ele>799.47000000000003</ele>
        <time>2025-05-15T10:31:04Z</time>
      </trkpt>
      <trkpt lat="42.386169964447618" lon="2.534927995875478">
        <ele>800.44000000000005</ele>
        <time>2025-05-15T10:31:07Z</time>
      </trkpt>
      <trkpt lat="42.386156972497702" lon="2.534769997000694">
        <ele>800.91999999999996</ele>
        <time>2025-05-15T10:31:08Z</time>
      </trkpt>
      <trkpt lat="42.386143980547786" lon="2.534616021439433">
        <ele>801.39999999999998</ele>
        <time>2025-05-15T10:31:09Z</time>
      </trkpt>
      <trkpt lat="42.386134006083012" lon="2.534493980929256">
        <ele>801.39999999999998</ele>
        <time>2025-05-15T10:31:10Z</time>
      </trkpt>
      <trkpt lat="42.386067034676671" lon="2.534365989267826">
        <ele>801.39999999999998</ele>
        <time>2025-05-15T10:31:11Z</time>
      </trkpt>
      <trkpt lat="42.385997967794538" lon="2.534233974292874">
        <ele>801.39999999999998</ele>
        <time>2025-05-15T10:31:12Z</time>
      </trkpt>
      <trkpt lat="42.385927978903055" lon="2.534101037308574">
        <ele>801.88</ele>
        <time>2025-05-15T10:31:13Z</time>
      </trkpt>
      <trkpt lat="42.38585002720356" lon="2.533997017890215">
        <ele>801.88</ele>
        <time>2025-05-15T10:31:14Z</time>
      </trkpt>
      <trkpt lat="42.385750031098723" lon="2.533900961279869">
        <ele>802.36000000000001</ele>
        <time>2025-05-15T10:31:15Z</time>
      </trkpt>
      <trkpt lat="42.385649029165506" lon="2.533802976831794">
        <ele>802.36000000000001</ele>
        <time>2025-05-15T10:31:16Z</time>
      </trkpt>
      <trkpt lat="42.385544003918767" lon="2.533701974898577">
        <ele>802.84000000000003</ele>
        <time>2025-05-15T10:31:17Z</time>
      </trkpt>
      <trkpt lat="42.385309981182218" lon="2.533474992960692">
        <ele>802.36000000000001</ele>
        <time>2025-05-15T10:31:19Z</time>
      </trkpt>
      <trkpt lat="42.385211996734142" lon="2.533347001299262">
        <ele>801.39999999999998</ele>
        <time>2025-05-15T10:31:20Z</time>
      </trkpt>
      <trkpt lat="42.385168997570872" lon="2.533270977437496">
        <ele>800.91999999999996</ele>
        <time>2025-05-15T10:31:21Z</time>
      </trkpt>
      <trkpt lat="42.385168997570872" lon="2.533270977437496">
        <ele>799.95000000000005</ele>
        <time>2025-05-15T10:31:22Z</time>
      </trkpt>
      <trkpt lat="42.385168997570872" lon="2.532939976081252">
        <ele>798.99000000000001</ele>
        <time>2025-05-15T10:31:23Z</time>
      </trkpt>
      <trkpt lat="42.385168997570872" lon="2.532729003578425">
        <ele>798.50999999999999</ele>
        <time>2025-05-15T10:31:24Z</time>
      </trkpt>
      <trkpt lat="42.385168997570872" lon="2.53250696696341">
        <ele>798.02999999999997</ele>
        <time>2025-05-15T10:31:25Z</time>
      </trkpt>
      <trkpt lat="42.38511904142797" lon="2.531777992844582">
        <ele>795.63</ele>
        <time>2025-05-15T10:31:28Z</time>
      </trkpt>
      <trkpt lat="42.385047040879726" lon="2.531633991748095">
        <ele>795.14999999999998</ele>
        <time>2025-05-15T10:31:29Z</time>
      </trkpt>
      <trkpt lat="42.384972022846341" lon="2.531484039500356">
        <ele>795.14999999999998</ele>
        <time>2025-05-15T10:31:30Z</time>
      </trkpt>
      <trkpt lat="42.38458301872015" lon="2.530731009319425">
        <ele>795.63</ele>
        <time>2025-05-15T10:31:35Z</time>
      </trkpt>
      <trkpt lat="42.384509006515145" lon="2.53059103153646">
        <ele>795.63</ele>
        <time>2025-05-15T10:31:36Z</time>
      </trkpt>
      <trkpt lat="42.384429965168238" lon="2.530440995469689">
        <ele>795.63</ele>
        <time>2025-05-15T10:31:37Z</time>
      </trkpt>
      <trkpt lat="42.384318988770247" lon="2.530311997979879">
        <ele>795.63</ele>
        <time>2025-05-15T10:31:38Z</time>
      </trkpt>
      <trkpt lat="42.384217986837029" lon="2.530204961076379">
        <ele>795.63</ele>
        <time>2025-05-15T10:31:39Z</time>
      </trkpt>
      <trkpt lat="42.38411002792418" lon="2.530090967193246">
        <ele>795.63</ele>
        <time>2025-05-15T10:31:40Z</time>
      </trkpt>
      <trkpt lat="42.383970972150564" lon="2.530006980523467">
        <ele>795.63</ele>
        <time>2025-05-15T10:31:41Z</time>
      </trkpt>
      <trkpt lat="42.383856978267431" lon="2.529962975531817">
        <ele>795.14999999999998</ele>
        <time>2025-05-15T10:31:42Z</time>
      </trkpt>
      <trkpt lat="42.383641982451081" lon="2.529931040480733">
        <ele>793.71000000000004</ele>
        <time>2025-05-15T10:31:44Z</time>
      </trkpt>
      <trkpt lat="42.383537963032722" lon="2.529916036874056">
        <ele>793.22000000000003</ele>
        <time>2025-05-15T10:31:45Z</time>
      </trkpt>
      <trkpt lat="42.383439978584647" lon="2.529902039095759">
        <ele>792.25999999999999</ele>
        <time>2025-05-15T10:31:46Z</time>
      </trkpt>
      <trkpt lat="42.38329597748816" lon="2.529865996912122">
        <ele>791.77999999999997</ele>
        <time>2025-05-15T10:31:47Z</time>
      </trkpt>
      <trkpt lat="42.383254989981651" lon="2.529756026342511">
        <ele>791.29999999999995</ele>
        <time>2025-05-15T10:31:48Z</time>
      </trkpt>
      <trkpt lat="42.383236968889832" lon="2.52958201803267">
        <ele>790.82000000000005</ele>
        <time>2025-05-15T10:31:49Z</time>
      </trkpt>
      <trkpt lat="42.383236968889832" lon="2.529429970309138">
        <ele>790.34000000000003</ele>
        <time>2025-05-15T10:31:50Z</time>
      </trkpt>
      <trkpt lat="42.383236968889832" lon="2.529245987534523">
        <ele>790.34000000000003</ele>
        <time>2025-05-15T10:31:51Z</time>
      </trkpt>
      <trkpt lat="42.383236968889832" lon="2.529000984504819">
        <ele>790.34000000000003</ele>
        <time>2025-05-15T10:31:52Z</time>
      </trkpt>
      <trkpt lat="42.383268987759948" lon="2.528842985630035">
        <ele>790.34000000000003</ele>
        <time>2025-05-15T10:31:53Z</time>
      </trkpt>
      <trkpt lat="42.383309975266457" lon="2.52863897010684">
        <ele>790.34000000000003</ele>
        <time>2025-05-15T10:31:54Z</time>
      </trkpt>
      <trkpt lat="42.383407959714532" lon="2.528148964047432">
        <ele>790.82000000000005</ele>
        <time>2025-05-15T10:31:57Z</time>
      </trkpt>
      <trkpt lat="42.383430004119873" lon="2.52803597599268">
        <ele>790.82000000000005</ele>
        <time>2025-05-15T10:31:58Z</time>
      </trkpt>
      <trkpt lat="42.383393961936235" lon="2.527952995151281">
        <ele>791.29999999999995</ele>
        <time>2025-05-15T10:31:59Z</time>
      </trkpt>
      <trkpt lat="42.383336964994669" lon="2.527835983783007">
        <ele>790.82000000000005</ele>
        <time>2025-05-15T10:32:00Z</time>
      </trkpt>
      <trkpt lat="42.383243003860116" lon="2.52775501459837">
        <ele>790.82000000000005</ele>
        <time>2025-05-15T10:32:01Z</time>
      </trkpt>
      <trkpt lat="42.383059021085501" lon="2.527618976309896">
        <ele>790.34000000000003</ele>
        <time>2025-05-15T10:32:03Z</time>
      </trkpt>
      <trkpt lat="42.382963970303535" lon="2.527559967711568">
        <ele>789.86000000000001</ele>
        <time>2025-05-15T10:32:04Z</time>
      </trkpt>
      <trkpt lat="42.382862968370318" lon="2.527538007125258">
        <ele>788.89999999999998</ele>
        <time>2025-05-15T10:32:05Z</time>
      </trkpt>
      <trkpt lat="42.382755009457469" lon="2.527516968548298">
        <ele>787.94000000000005</ele>
        <time>2025-05-15T10:32:06Z</time>
      </trkpt>
      <trkpt lat="42.382642021402717" lon="2.527501964941621">
        <ele>786.98000000000002</ele>
        <time>2025-05-15T10:32:07Z</time>
      </trkpt>
      <trkpt lat="42.382516963407397" lon="2.527486039325595">
        <ele>786.01999999999998</ele>
        <time>2025-05-15T10:32:08Z</time>
      </trkpt>
      <trkpt lat="42.38196300342679" lon="2.527415966615081">
        <ele>782.64999999999998</ele>
        <time>2025-05-15T10:32:12Z</time>
      </trkpt>
      <trkpt lat="42.381819002330303" lon="2.527397023513913">
        <ele>781.21000000000004</ele>
        <time>2025-05-15T10:32:13Z</time>
      </trkpt>
      <trkpt lat="42.381057003512979" lon="2.527016988024116">
        <ele>775.44000000000005</ele>
        <time>2025-05-15T10:32:19Z</time>
      </trkpt>
      <trkpt lat="42.380924988538027" lon="2.526930989697576">
        <ele>774.48000000000002</ele>
        <time>2025-05-15T10:32:20Z</time>
      </trkpt>
      <trkpt lat="42.380402963608503" lon="2.526595965027809">
        <ele>772.55999999999995</ele>
        <time>2025-05-15T10:32:24Z</time>
      </trkpt>
      <trkpt lat="42.380287041887641" lon="2.526537962257862">
        <ele>772.08000000000004</ele>
        <time>2025-05-15T10:32:25Z</time>
      </trkpt>
      <trkpt lat="42.380172964185476" lon="2.526503009721637">
        <ele>772.08000000000004</ele>
        <time>2025-05-15T10:32:26Z</time>
      </trkpt>
      <trkpt lat="42.379997028037906" lon="2.526448024436832">
        <ele>772.08000000000004</ele>
        <time>2025-05-15T10:32:27Z</time>
      </trkpt>
      <trkpt lat="42.379846991971135" lon="2.526448024436832">
        <ele>771.60000000000002</ele>
        <time>2025-05-15T10:32:28Z</time>
      </trkpt>
      <trkpt lat="42.379764011129737" lon="2.526473002508283">
        <ele>771.60000000000002</ele>
        <time>2025-05-15T10:32:29Z</time>
      </trkpt>
      <trkpt lat="42.379630990326405" lon="2.526512984186411">
        <ele>771.60000000000002</ele>
        <time>2025-05-15T10:32:30Z</time>
      </trkpt>
      <trkpt lat="42.378766983747482" lon="2.5268330052495">
        <ele>772.55999999999995</ele>
        <time>2025-05-15T10:32:36Z</time>
      </trkpt>
      <trkpt lat="42.378624994307756" lon="2.526911040768027">
        <ele>773.51999999999998</ele>
        <time>2025-05-15T10:32:37Z</time>
      </trkpt>
      <trkpt lat="42.378503959625959" lon="2.527012964710593">
        <ele>774.48000000000002</ele>
        <time>2025-05-15T10:32:38Z</time>
      </trkpt>
      <trkpt lat="42.378377979621291" lon="2.527138022705913">
        <ele>775.91999999999996</ele>
        <time>2025-05-15T10:32:39Z</time>
      </trkpt>
      <trkpt lat="42.378293992951512" lon="2.527258973568678">
        <ele>776.39999999999998</ele>
        <time>2025-05-15T10:32:40Z</time>
      </trkpt>
      <trkpt lat="42.378220986574888" lon="2.527367016300559">
        <ele>776.88</ele>
        <time>2025-05-15T10:32:41Z</time>
      </trkpt>
      <trkpt lat="42.378129959106445" lon="2.527499031275511">
        <ele>776.88</ele>
        <time>2025-05-15T10:32:42Z</time>
      </trkpt>
      <trkpt lat="42.377980006858706" lon="2.527585029602051">
        <ele>777.36000000000001</ele>
        <time>2025-05-15T10:32:43Z</time>
      </trkpt>
      <trkpt lat="42.377975983545184" lon="2.527585029602051">
        <ele>777.84000000000003</ele>
        <time>2025-05-15T10:32:44Z</time>
      </trkpt>
      <trkpt lat="42.377844974398613" lon="2.527582012116909">
        <ele>777.84000000000003</ele>
        <time>2025-05-15T10:32:45Z</time>
      </trkpt>
      <trkpt lat="42.377757970243692" lon="2.52754395827651">
        <ele>777.84000000000003</ele>
        <time>2025-05-15T10:32:46Z</time>
      </trkpt>
      <trkpt lat="42.377668032422662" lon="2.527502970770001">
        <ele>777.36000000000001</ele>
        <time>2025-05-15T10:32:47Z</time>
      </trkpt>
      <trkpt lat="42.377465022727847" lon="2.527413032948971">
        <ele>776.39999999999998</ele>
        <time>2025-05-15T10:32:48Z</time>
      </trkpt>
      <trkpt lat="42.377465022727847" lon="2.527413032948971">
        <ele>775.91999999999996</ele>
        <time>2025-05-15T10:32:49Z</time>
      </trkpt>
      <trkpt lat="42.377390004694462" lon="2.527473969385028">
        <ele>775.44000000000005</ele>
        <time>2025-05-15T10:32:50Z</time>
      </trkpt>
      <trkpt lat="42.377313980832696" lon="2.527535995468497">
        <ele>774.96000000000004</ele>
        <time>2025-05-15T10:32:51Z</time>
      </trkpt>
      <trkpt lat="42.377250026911497" lon="2.527588969096541">
        <ele>774.48000000000002</ele>
        <time>2025-05-15T10:32:52Z</time>
      </trkpt>
      <trkpt lat="42.377122035250068" lon="2.52769198268652">
        <ele>774.48000000000002</ele>
        <time>2025-05-15T10:32:53Z</time>
      </trkpt>
      <trkpt lat="42.377122035250068" lon="2.52769198268652">
        <ele>774.48000000000002</ele>
        <time>2025-05-15T10:32:54Z</time>
      </trkpt>
      <trkpt lat="42.377014998346567" lon="2.52773498184979">
        <ele>774.48000000000002</ele>
        <time>2025-05-15T10:32:55Z</time>
      </trkpt>
      <trkpt lat="42.376993959769607" lon="2.527704974636436">
        <ele>774.48000000000002</ele>
        <time>2025-05-15T10:32:56Z</time>
      </trkpt>
      <trkpt lat="42.376947021111846" lon="2.527632974088192">
        <ele>774.96000000000004</ele>
        <time>2025-05-15T10:32:57Z</time>
      </trkpt>
      <trkpt lat="42.376714004203677" lon="2.527285041287541">
        <ele>775.44000000000005</ele>
        <time>2025-05-15T10:33:00Z</time>
      </trkpt>
      <trkpt lat="42.376709980890155" lon="2.5272820238024">
        <ele>774.48000000000002</ele>
        <time>2025-05-15T10:33:01Z</time>
      </trkpt>
      <trkpt lat="42.376606967300177" lon="2.52721999771893">
        <ele>774</ele>
        <time>2025-05-15T10:33:02Z</time>
      </trkpt>
      <trkpt lat="42.376558016985655" lon="2.527251010760665">
        <ele>773.51999999999998</ele>
        <time>2025-05-15T10:33:03Z</time>
      </trkpt>
      <trkpt lat="42.376434970647097" lon="2.527328040450811">
        <ele>773.03999999999996</ele>
        <time>2025-05-15T10:33:04Z</time>
      </trkpt>
      <trkpt lat="42.376392977312207" lon="2.527420995756984">
        <ele>772.55999999999995</ele>
        <time>2025-05-15T10:33:05Z</time>
      </trkpt>
      <trkpt lat="42.376350983977318" lon="2.527515962719917">
        <ele>772.08000000000004</ele>
        <time>2025-05-15T10:33:06Z</time>
      </trkpt>
      <trkpt lat="42.376309996470809" lon="2.52760598435998">
        <ele>771.11000000000001</ele>
        <time>2025-05-15T10:33:07Z</time>
      </trkpt>
      <trkpt lat="42.376242019236088" lon="2.527757026255131">
        <ele>770.63</ele>
        <time>2025-05-15T10:33:08Z</time>
      </trkpt>
      <trkpt lat="42.376127019524574" lon="2.527763983234763">
        <ele>770.63</ele>
        <time>2025-05-15T10:33:09Z</time>
      </trkpt>
      <trkpt lat="42.376025011762977" lon="2.52773598767817">
        <ele>770.63</ele>
        <time>2025-05-15T10:33:10Z</time>
      </trkpt>
      <trkpt lat="42.375892996788025" lon="2.527664992958307">
        <ele>770.63</ele>
        <time>2025-05-15T10:33:11Z</time>
      </trkpt>
      <trkpt lat="42.375788977369666" lon="2.527556028217077">
        <ele>771.11000000000001</ele>
        <time>2025-05-15T10:33:12Z</time>
      </trkpt>
      <trkpt lat="42.375742960721254" lon="2.527430970221758">
        <ele>771.11000000000001</ele>
        <time>2025-05-15T10:33:13Z</time>
      </trkpt>
      <trkpt lat="42.375690992921591" lon="2.527286969125271">
        <ele>771.11000000000001</ele>
        <time>2025-05-15T10:33:14Z</time>
      </trkpt>
      <trkpt lat="42.375639025121927" lon="2.527143973857164">
        <ele>771.11000000000001</ele>
        <time>2025-05-15T10:33:15Z</time>
      </trkpt>
      <trkpt lat="42.375567024573684" lon="2.527020005509257">
        <ele>770.63</ele>
        <time>2025-05-15T10:33:16Z</time>
      </trkpt>
      <trkpt lat="42.375477002933621" lon="2.526900982484222">
        <ele>770.14999999999998</ele>
        <time>2025-05-15T10:33:17Z</time>
      </trkpt>
      <trkpt lat="42.37536502070725" lon="2.526796963065863">
        <ele>770.14999999999998</ele>
        <time>2025-05-15T10:33:18Z</time>
      </trkpt>
      <trkpt lat="42.375239040702581" lon="2.526719011366367">
        <ele>770.63</ele>
        <time>2025-05-15T10:33:19Z</time>
      </trkpt>
      <trkpt lat="42.375124040991068" lon="2.526649022474885">
        <ele>771.11000000000001</ele>
        <time>2025-05-15T10:33:20Z</time>
      </trkpt>
      <trkpt lat="42.375006023794413" lon="2.526591019704938">
        <ele>771.11000000000001</ele>
        <time>2025-05-15T10:33:21Z</time>
      </trkpt>
      <trkpt lat="42.374897981062531" lon="2.526569981127977">
        <ele>770.63</ele>
        <time>2025-05-15T10:33:22Z</time>
      </trkpt>
      <trkpt lat="42.374719027429819" lon="2.526534022763372">
        <ele>770.14999999999998</ele>
        <time>2025-05-15T10:33:23Z</time>
      </trkpt>
      <trkpt lat="42.374375034123659" lon="2.526619015261531">
        <ele>769.66999999999996</ele>
        <time>2025-05-15T10:33:26Z</time>
      </trkpt>
      <trkpt lat="42.374303033575416" lon="2.526663020253182">
        <ele>769.66999999999996</ele>
        <time>2025-05-15T10:33:27Z</time>
      </trkpt>
      <trkpt lat="42.37407898530364" lon="2.526798974722624">
        <ele>770.63</ele>
        <time>2025-05-15T10:33:29Z</time>
      </trkpt>
      <trkpt lat="42.373959040269256" lon="2.526871981099248">
        <ele>770.63</ele>
        <time>2025-05-15T10:33:30Z</time>
      </trkpt>
      <trkpt lat="42.373716970905662" lon="2.526991004124284">
        <ele>771.60000000000002</ele>
        <time>2025-05-15T10:33:32Z</time>
      </trkpt>
      <trkpt lat="42.3731330037117" lon="2.527064010500908">
        <ele>774.96000000000004</ele>
        <time>2025-05-15T10:33:37Z</time>
      </trkpt>
      <trkpt lat="42.373036025092006" lon="2.527058981359005">
        <ele>775.44000000000005</ele>
        <time>2025-05-15T10:33:38Z</time>
      </trkpt>
      <trkpt lat="42.372889006510377" lon="2.527001984417439">
        <ele>775.91999999999996</ele>
        <time>2025-05-15T10:33:39Z</time>
      </trkpt>
      <trkpt lat="42.372867967933416" lon="2.526913974434137">
        <ele>775.91999999999996</ele>
        <time>2025-05-15T10:33:40Z</time>
      </trkpt>
      <trkpt lat="42.372846007347107" lon="2.526821019127965">
        <ele>776.39999999999998</ele>
        <time>2025-05-15T10:33:41Z</time>
      </trkpt>
      <trkpt lat="42.372822035104036" lon="2.526719011366367">
        <ele>776.39999999999998</ele>
        <time>2025-05-15T10:33:42Z</time>
      </trkpt>
      <trkpt lat="42.372818011790514" lon="2.526577021926642">
        <ele>776.88</ele>
        <time>2025-05-15T10:33:43Z</time>
      </trkpt>
      <trkpt lat="42.372747017070651" lon="2.525990959256887">
        <ele>778.32000000000005</ele>
        <time>2025-05-15T10:33:47Z</time>
      </trkpt>
      <trkpt lat="42.37270200625062" lon="2.525740005075932">
        <ele>777.84000000000003</ele>
        <time>2025-05-15T10:33:48Z</time>
      </trkpt>
      <trkpt lat="42.372653977945447" lon="2.525657024234533">
        <ele>778.32000000000005</ele>
        <time>2025-05-15T10:33:49Z</time>
      </trkpt>
      <trkpt lat="42.372572002932429" lon="2.525514028966427">
        <ele>778.80999999999995</ele>
        <time>2025-05-15T10:33:50Z</time>
      </trkpt>
      <trkpt lat="42.372489022091031" lon="2.525369022041559">
        <ele>778.80999999999995</ele>
        <time>2025-05-15T10:33:51Z</time>
      </trkpt>
      <trkpt lat="42.372395982965827" lon="2.525208005681634">
        <ele>778.80999999999995</ele>
        <time>2025-05-15T10:33:52Z</time>
      </trkpt>
      <trkpt lat="42.372303027659655" lon="2.525045983493328">
        <ele>778.80999999999995</ele>
        <time>2025-05-15T10:33:53Z</time>
      </trkpt>
      <trkpt lat="42.372207976877689" lon="2.524881027638912">
        <ele>779.28999999999996</ele>
        <time>2025-05-15T10:33:54Z</time>
      </trkpt>
      <trkpt lat="42.372134970501065" lon="2.524707019329071">
        <ele>779.28999999999996</ele>
        <time>2025-05-15T10:33:55Z</time>
      </trkpt>
      <trkpt lat="42.371992981061339" lon="2.524365037679672">
        <ele>779.28999999999996</ele>
        <time>2025-05-15T10:33:57Z</time>
      </trkpt>
      <trkpt lat="42.371886027976871" lon="2.524108970537782">
        <ele>779.28999999999996</ele>
        <time>2025-05-15T10:33:58Z</time>
      </trkpt>
      <trkpt lat="42.371413959190249" lon="2.523593986406922">
        <ele>779.76999999999998</ele>
        <time>2025-05-15T10:34:02Z</time>
      </trkpt>
      <trkpt lat="42.371228970587254" lon="2.523471023887396">
        <ele>779.76999999999998</ele>
        <time>2025-05-15T10:34:03Z</time>
      </trkpt>
      <trkpt lat="42.371082035824656" lon="2.52337496727705">
        <ele>780.25</ele>
        <time>2025-05-15T10:34:04Z</time>
      </trkpt>
      <trkpt lat="42.370925964787602" lon="2.523272037506104">
        <ele>780.25</ele>
        <time>2025-05-15T10:34:05Z</time>
      </trkpt>
      <trkpt lat="42.370770983397961" lon="2.523169023916125">
        <ele>780.25</ele>
        <time>2025-05-15T10:34:06Z</time>
      </trkpt>
      <trkpt lat="42.370491027832031" lon="2.522984035313129">
        <ele>780.73000000000002</ele>
        <time>2025-05-15T10:34:08Z</time>
      </trkpt>
      <trkpt lat="42.370365969836712" lon="2.52290197648108">
        <ele>780.73000000000002</ele>
        <time>2025-05-15T10:34:09Z</time>
      </trkpt>
      <trkpt lat="42.370277037844062" lon="2.522842967882752">
        <ele>781.21000000000004</ele>
        <time>2025-05-15T10:34:10Z</time>
      </trkpt>
      <trkpt lat="42.370225992053747" lon="2.522782031446695">
        <ele>781.21000000000004</ele>
        <time>2025-05-15T10:34:11Z</time>
      </trkpt>
      <trkpt lat="42.370154997333884" lon="2.522697960957885">
        <ele>781.21000000000004</ele>
        <time>2025-05-15T10:34:12Z</time>
      </trkpt>
      <trkpt lat="42.370041003450751" lon="2.522564018145204">
        <ele>781.69000000000005</ele>
        <time>2025-05-15T10:34:13Z</time>
      </trkpt>
      <trkpt lat="42.370020970702171" lon="2.522496962919831">
        <ele>782.16999999999996</ele>
        <time>2025-05-15T10:34:14Z</time>
      </trkpt>
      <trkpt lat="42.369980989024043" lon="2.522361008450389">
        <ele>782.16999999999996</ele>
        <time>2025-05-15T10:34:15Z</time>
      </trkpt>
      <trkpt lat="42.369933966547251" lon="2.522198986262083">
        <ele>783.13</ele>
        <time>2025-05-15T10:34:16Z</time>
      </trkpt>
      <trkpt lat="42.369933966547251" lon="2.522049034014344">
        <ele>783.61000000000001</ele>
        <time>2025-05-15T10:34:17Z</time>
      </trkpt>
      <trkpt lat="42.369969002902508" lon="2.521883994340897">
        <ele>783.61000000000001</ele>
        <time>2025-05-15T10:34:18Z</time>
      </trkpt>
      <trkpt lat="42.370049972087145" lon="2.521503958851099">
        <ele>783.61000000000001</ele>
        <time>2025-05-15T10:34:20Z</time>
      </trkpt>
      <trkpt lat="42.370168995112181" lon="2.520952010527253">
        <ele>786.5</ele>
        <time>2025-05-15T10:34:23Z</time>
      </trkpt>
      <trkpt lat="42.370174024254084" lon="2.520804991945624">
        <ele>786.98000000000002</ele>
        <time>2025-05-15T10:34:24Z</time>
      </trkpt>
      <trkpt lat="42.370148040354252" lon="2.520740032196045">
        <ele>786.98000000000002</ele>
        <time>2025-05-15T10:34:25Z</time>
      </trkpt>
      <trkpt lat="42.370078973472118" lon="2.520716981962323">
        <ele>787.94000000000005</ele>
        <time>2025-05-15T10:34:26Z</time>
      </trkpt>
      <trkpt lat="42.37001895904541" lon="2.520697033032775">
        <ele>788.41999999999996</ele>
        <time>2025-05-15T10:34:27Z</time>
      </trkpt>
      <trkpt lat="42.369933966547251" lon="2.52068798057735">
        <ele>789.38</ele>
        <time>2025-05-15T10:34:28Z</time>
      </trkpt>
      <trkpt lat="42.369832964614034" lon="2.520677000284195">
        <ele>789.86000000000001</ele>
        <time>2025-05-15T10:34:29Z</time>
      </trkpt>
      <trkpt lat="42.369720982387662" lon="2.52066501416266">
        <ele>790.34000000000003</ele>
        <time>2025-05-15T10:34:30Z</time>
      </trkpt>
      <trkpt lat="42.36958502791822" lon="2.520650010555983">
        <ele>790.34000000000003</ele>
        <time>2025-05-15T10:34:31Z</time>
      </trkpt>
      <trkpt lat="42.369443038478494" lon="2.520635006949306">
        <ele>790.34000000000003</ele>
        <time>2025-05-15T10:34:32Z</time>
      </trkpt>
      <trkpt lat="42.369299037382007" lon="2.520618997514248">
        <ele>789.86000000000001</ele>
        <time>2025-05-15T10:34:33Z</time>
      </trkpt>
      <trkpt lat="42.369165010750294" lon="2.520603993907571">
        <ele>789.38</ele>
        <time>2025-05-15T10:34:34Z</time>
      </trkpt>
      <trkpt lat="42.369031989946961" lon="2.520589996129274">
        <ele>789.38</ele>
        <time>2025-05-15T10:34:35Z</time>
      </trkpt>
      <trkpt lat="42.368991002440453" lon="2.520611034706235">
        <ele>789.38</ele>
        <time>2025-05-15T10:34:36Z</time>
      </trkpt>
      <trkpt lat="42.368903998285532" lon="2.520654033869505">
        <ele>789.38</ele>
        <time>2025-05-15T10:34:37Z</time>
      </trkpt>
      <trkpt lat="42.368819005787373" lon="2.520696027204394">
        <ele>788.89999999999998</ele>
        <time>2025-05-15T10:34:38Z</time>
      </trkpt>
      <trkpt lat="42.368744993582368" lon="2.520732991397381">
        <ele>788.41999999999996</ele>
        <time>2025-05-15T10:34:39Z</time>
      </trkpt>
      <trkpt lat="42.368682967498899" lon="2.520764004439116">
        <ele>787.46000000000004</ele>
        <time>2025-05-15T10:34:40Z</time>
      </trkpt>
      <trkpt lat="42.3686190135777" lon="2.520756963640451">
        <ele>786.98000000000002</ele>
        <time>2025-05-15T10:34:41Z</time>
      </trkpt>
      <trkpt lat="42.368550030514598" lon="2.520690998062491">
        <ele>786.01999999999998</ele>
        <time>2025-05-15T10:34:42Z</time>
      </trkpt>
      <trkpt lat="42.368468977510929" lon="2.520612040534616">
        <ele>785.52999999999997</ele>
        <time>2025-05-15T10:34:43Z</time>
      </trkpt>
      <trkpt lat="42.368377028033137" lon="2.520524030551314">
        <ele>785.04999999999995</ele>
        <time>2025-05-15T10:34:44Z</time>
      </trkpt>
      <trkpt lat="42.36827502027154" lon="2.520425040274859">
        <ele>784.09000000000003</ele>
        <time>2025-05-15T10:34:45Z</time>
      </trkpt>
      <trkpt lat="42.368187010288239" lon="2.520340969786048">
        <ele>783.61000000000001</ele>
        <time>2025-05-15T10:34:46Z</time>
      </trkpt>
      <trkpt lat="42.368066981434822" lon="2.520224964246154">
        <ele>783.61000000000001</ele>
        <time>2025-05-15T10:34:47Z</time>
      </trkpt>
      <trkpt lat="42.368005961179733" lon="2.520260000601411">
        <ele>782.64999999999998</ele>
        <time>2025-05-15T10:34:48Z</time>
      </trkpt>
      <trkpt lat="42.367917029187083" lon="2.520310962572694">
        <ele>781.69000000000005</ele>
        <time>2025-05-15T10:34:49Z</time>
      </trkpt>
      <trkpt lat="42.367786020040512" lon="2.520281039178371">
        <ele>780.73000000000002</ele>
        <time>2025-05-15T10:34:50Z</time>
      </trkpt>
      <trkpt lat="42.367658028379083" lon="2.520251031965017">
        <ele>779.76999999999998</ele>
        <time>2025-05-15T10:34:51Z</time>
      </trkpt>
      <trkpt lat="42.367401961237192" lon="2.520204009488225">
        <ele>777.84000000000003</ele>
        <time>2025-05-15T10:34:53Z</time>
      </trkpt>
      <trkpt lat="42.367320992052555" lon="2.520164027810097">
        <ele>776.88</ele>
        <time>2025-05-15T10:34:54Z</time>
      </trkpt>
      <trkpt lat="42.367177996784449" lon="2.520075011998415">
        <ele>776.39999999999998</ele>
        <time>2025-05-15T10:34:55Z</time>
      </trkpt>
      <trkpt lat="42.367125023156404" lon="2.519946014508605">
        <ele>775.91999999999996</ele>
        <time>2025-05-15T10:34:56Z</time>
      </trkpt>
      <trkpt lat="42.367064002901316" lon="2.519797990098596">
        <ele>774.96000000000004</ele>
        <time>2025-05-15T10:34:57Z</time>
      </trkpt>
      <trkpt lat="42.366874990984797" lon="2.519352994859219">
        <ele>773.51999999999998</ele>
        <time>2025-05-15T10:35:00Z</time>
      </trkpt>
      <trkpt lat="42.366782035678625" lon="2.519244030117989">
        <ele>773.03999999999996</ele>
        <time>2025-05-15T10:35:01Z</time>
      </trkpt>
      <trkpt lat="42.366663012653589" lon="2.519185021519661">
        <ele>772.55999999999995</ele>
        <time>2025-05-15T10:35:02Z</time>
      </trkpt>
      <trkpt lat="42.366541977971792" lon="2.519145039841533">
        <ele>773.03999999999996</ele>
        <time>2025-05-15T10:35:03Z</time>
      </trkpt>
      <trkpt lat="42.366410968825221" lon="2.519101034849882">
        <ele>772.55999999999995</ele>
        <time>2025-05-15T10:35:04Z</time>
      </trkpt>
      <trkpt lat="42.366287000477314" lon="2.519087959080935">
        <ele>772.08000000000004</ele>
        <time>2025-05-15T10:35:05Z</time>
      </trkpt>
      <trkpt lat="42.366156997159123" lon="2.519087959080935">
        <ele>771.60000000000002</ele>
        <time>2025-05-15T10:35:06Z</time>
      </trkpt>
      <trkpt lat="42.366048032417893" lon="2.519137999042869">
        <ele>770.63</ele>
        <time>2025-05-15T10:35:07Z</time>
      </trkpt>
      <trkpt lat="42.365877963602543" lon="2.519217040389776">
        <ele>769.66999999999996</ele>
        <time>2025-05-15T10:35:08Z</time>
      </trkpt>
      <trkpt lat="42.365815015509725" lon="2.519271019846201">
        <ele>769.19000000000005</ele>
        <time>2025-05-15T10:35:09Z</time>
      </trkpt>
      <trkpt lat="42.365712001919746" lon="2.519361041486263">
        <ele>768.23000000000002</ele>
        <time>2025-05-15T10:35:10Z</time>
      </trkpt>
      <trkpt lat="42.365617034956813" lon="2.519443016499281">
        <ele>767.26999999999998</ele>
        <time>2025-05-15T10:35:11Z</time>
      </trkpt>
      <trkpt lat="42.365533970296383" lon="2.519516022875905">
        <ele>766.30999999999995</ele>
        <time>2025-05-15T10:35:12Z</time>
      </trkpt>
      <trkpt lat="42.365385023877025" lon="2.519646026194096">
        <ele>765.35000000000002</ele>
        <time>2025-05-15T10:35:13Z</time>
      </trkpt>
      <trkpt lat="42.365385023877025" lon="2.519646026194096">
        <ele>765.35000000000002</ele>
        <time>2025-05-15T10:35:14Z</time>
      </trkpt>
      <trkpt lat="42.365258960053325" lon="2.519632028415799">
        <ele>765.35000000000002</ele>
        <time>2025-05-15T10:35:15Z</time>
      </trkpt>
      <trkpt lat="42.365157958120108" lon="2.519522979855537">
        <ele>765.35000000000002</ele>
        <time>2025-05-15T10:35:16Z</time>
      </trkpt>
      <trkpt lat="42.365100961178541" lon="2.519423989579082">
        <ele>765.35000000000002</ele>
        <time>2025-05-15T10:35:17Z</time>
      </trkpt>
      <trkpt lat="42.365042036399245" lon="2.519318964332342">
        <ele>764.87</ele>
        <time>2025-05-15T10:35:18Z</time>
      </trkpt>
      <trkpt lat="42.364970035851002" lon="2.519258027896285">
        <ele>763.89999999999998</ele>
        <time>2025-05-15T10:35:19Z</time>
      </trkpt>
      <trkpt lat="42.364875990897417" lon="2.519213017076254">
        <ele>763.41999999999996</ele>
        <time>2025-05-15T10:35:20Z</time>
      </trkpt>
      <trkpt lat="42.364784963428974" lon="2.519170017912984">
        <ele>762.94000000000005</ele>
        <time>2025-05-15T10:35:21Z</time>
      </trkpt>
      <trkpt lat="42.364685973152518" lon="2.519124001264572">
        <ele>761.98000000000002</ele>
        <time>2025-05-15T10:35:22Z</time>
      </trkpt>
      <trkpt lat="42.364601986482739" lon="2.51905401237309">
        <ele>761.5</ele>
        <time>2025-05-15T10:35:23Z</time>
      </trkpt>
      <trkpt lat="42.364521017298102" lon="2.51896901987493">
        <ele>761.01999999999998</ele>
        <time>2025-05-15T10:35:24Z</time>
      </trkpt>
      <trkpt lat="42.364433007314801" lon="2.518877992406488">
        <ele>761.01999999999998</ele>
        <time>2025-05-15T10:35:25Z</time>
      </trkpt>
      <trkpt lat="42.364339968189597" lon="2.518781013786793">
        <ele>760.53999999999996</ele>
        <time>2025-05-15T10:35:26Z</time>
      </trkpt>
      <trkpt lat="42.364253969863057" lon="2.51869099214673">
        <ele>760.05999999999995</ele>
        <time>2025-05-15T10:35:27Z</time>
      </trkpt>
      <trkpt lat="42.364139975979924" lon="2.518572974950075">
        <ele>760.53999999999996</ele>
        <time>2025-05-15T10:35:28Z</time>
      </trkpt>
      <trkpt lat="42.364070992916822" lon="2.518572974950075">
        <ele>761.01999999999998</ele>
        <time>2025-05-15T10:35:29Z</time>
      </trkpt>
      <trkpt lat="42.363924980163574" lon="2.518572974950075">
        <ele>761.5</ele>
        <time>2025-05-15T10:35:30Z</time>
      </trkpt>
      <trkpt lat="42.36389203928411" lon="2.518586972728372">
        <ele>761.5</ele>
        <time>2025-05-15T10:35:31Z</time>
      </trkpt>
      <trkpt lat="42.363792965188622" lon="2.518628966063261">
        <ele>761.98000000000002</ele>
        <time>2025-05-15T10:35:32Z</time>
      </trkpt>
      <trkpt lat="42.363681988790631" lon="2.518660984933376">
        <ele>761.98000000000002</ele>
        <time>2025-05-15T10:35:33Z</time>
      </trkpt>
      <trkpt lat="42.363558020442724" lon="2.51869099214673">
        <ele>761.98000000000002</ele>
        <time>2025-05-15T10:35:34Z</time>
      </trkpt>
      <trkpt lat="42.363431034609675" lon="2.518723011016846">
        <ele>761.5</ele>
        <time>2025-05-15T10:35:35Z</time>
      </trkpt>
      <trkpt lat="42.3630550224334" lon="2.518860977143049">
        <ele>761.01999999999998</ele>
        <time>2025-05-15T10:35:38Z</time>
      </trkpt>
      <trkpt lat="42.362896017730236" lon="2.518872963264585">
        <ele>761.01999999999998</ele>
        <time>2025-05-15T10:35:39Z</time>
      </trkpt>
      <trkpt lat="42.362512964755297" lon="2.519032973796129">
        <ele>760.53999999999996</ele>
        <time>2025-05-15T10:35:44Z</time>
      </trkpt>
      <trkpt lat="42.362462002784014" lon="2.51905401237309">
        <ele>760.53999999999996</ele>
        <time>2025-05-15T10:35:45Z</time>
      </trkpt>
      <trkpt lat="42.362420009449124" lon="2.519071027636528">
        <ele>761.01999999999998</ele>
        <time>2025-05-15T10:35:46Z</time>
      </trkpt>
      <trkpt lat="42.362382039427757" lon="2.519087037071586">
        <ele>761.01999999999998</ele>
        <time>2025-05-15T10:35:47Z</time>
      </trkpt>
      <trkpt lat="42.362381033599377" lon="2.519087959080935">
        <ele>761.01999999999998</ele>
        <time>2025-05-15T10:35:48Z</time>
      </trkpt>
      <trkpt lat="42.36230299808085" lon="2.519093994051218">
        <ele>761.01999999999998</ele>
        <time>2025-05-15T10:35:49Z</time>
      </trkpt>
      <trkpt lat="42.36225999891758" lon="2.51909801736474">
        <ele>761.01999999999998</ele>
        <time>2025-05-15T10:35:50Z</time>
      </trkpt>
      <trkpt lat="42.362165031954646" lon="2.519105980172753">
        <ele>761.5</ele>
        <time>2025-05-15T10:35:52Z</time>
      </trkpt>
      <trkpt lat="42.362120021134615" lon="2.519108997657895">
        <ele>761.01999999999998</ele>
        <time>2025-05-15T10:35:53Z</time>
      </trkpt>
      <trkpt lat="42.361970990896225" lon="2.519121989607811">
        <ele>762.94000000000005</ele>
        <time>2025-05-15T10:36:00Z</time>
      </trkpt>
      <trkpt lat="42.361970990896225" lon="2.519121989607811">
        <ele>764.87</ele>
        <time>2025-05-15T10:36:16Z</time>
      </trkpt>
      <trkpt lat="42.361970990896225" lon="2.519121989607811">
        <ele>765.35000000000002</ele>
        <time>2025-05-15T10:37:09Z</time>
      </trkpt>
      <trkpt lat="42.361970990896225" lon="2.519121989607811">
        <ele>767.26999999999998</ele>
        <time>2025-05-15T10:37:57Z</time>
      </trkpt>
      <trkpt lat="42.361923968419433" lon="2.519126012921333">
        <ele>767.26999999999998</ele>
        <time>2025-05-15T10:38:00Z</time>
      </trkpt>
      <trkpt lat="42.361865965649486" lon="2.519130958244205">
        <ele>770.63</ele>
        <time>2025-05-15T10:38:01Z</time>
      </trkpt>
      <trkpt lat="42.361865965649486" lon="2.519130958244205">
        <ele>772.55999999999995</ele>
        <time>2025-05-15T10:38:02Z</time>
      </trkpt>
      <trkpt lat="42.361825983971357" lon="2.519149985164404">
        <ele>774.48000000000002</ele>
        <time>2025-05-15T10:38:03Z</time>
      </trkpt>
      <trkpt lat="42.361778961494565" lon="2.519174041226506">
        <ele>775.44000000000005</ele>
        <time>2025-05-15T10:38:04Z</time>
      </trkpt>
      <trkpt lat="42.361660022288561" lon="2.519285017624497">
        <ele>777.84000000000003</ele>
        <time>2025-05-15T10:38:07Z</time>
      </trkpt>
      <trkpt lat="42.361645018681884" lon="2.519345032051206">
        <ele>778.32000000000005</ele>
        <time>2025-05-15T10:38:08Z</time>
      </trkpt>
      <trkpt lat="42.361634960398078" lon="2.519406974315643">
        <ele>778.80999999999995</ele>
        <time>2025-05-15T10:38:09Z</time>
      </trkpt>
      <trkpt lat="42.361625991761684" lon="2.519467994570732">
        <ele>778.80999999999995</ele>
        <time>2025-05-15T10:38:10Z</time>
      </trkpt>
      <trkpt lat="42.361617023125291" lon="2.519529014825821">
        <ele>778.32000000000005</ele>
        <time>2025-05-15T10:38:11Z</time>
      </trkpt>
      <trkpt lat="42.361606964841485" lon="2.51959296874702">
        <ele>777.84000000000003</ele>
        <time>2025-05-15T10:38:12Z</time>
      </trkpt>
      <trkpt lat="42.361576035618782" lon="2.519733030349016">
        <ele>777.36000000000001</ele>
        <time>2025-05-15T10:38:13Z</time>
      </trkpt>
      <trkpt lat="42.361532030627131" lon="2.519737975671887">
        <ele>776.88</ele>
        <time>2025-05-15T10:38:14Z</time>
      </trkpt>
      <trkpt lat="42.36148601397872" lon="2.51974300481379">
        <ele>776.39999999999998</ele>
        <time>2025-05-15T10:38:15Z</time>
      </trkpt>
      <trkpt lat="42.361439997330308" lon="2.519748033955693">
        <ele>775.44000000000005</ele>
        <time>2025-05-15T10:38:16Z</time>
      </trkpt>
      <trkpt lat="42.361361039802432" lon="2.519704028964043">
        <ele>774.96000000000004</ele>
        <time>2025-05-15T10:38:17Z</time>
      </trkpt>
      <trkpt lat="42.361324997618794" lon="2.519649965688586">
        <ele>774.48000000000002</ele>
        <time>2025-05-15T10:38:18Z</time>
      </trkpt>
      <trkpt lat="42.361289039254189" lon="2.519597997888923">
        <ele>774</ele>
        <time>2025-05-15T10:38:19Z</time>
      </trkpt>
      <trkpt lat="42.361252997070551" lon="2.51954703591764">
        <ele>773.03999999999996</ele>
        <time>2025-05-15T10:38:20Z</time>
      </trkpt>
      <trkpt lat="42.360997013747692" lon="2.519418960437179">
        <ele>771.11000000000001</ele>
        <time>2025-05-15T10:38:28Z</time>
      </trkpt>
      <trkpt lat="42.360954014584422" lon="2.51942197792232">
        <ele>770.63</ele>
        <time>2025-05-15T10:38:29Z</time>
      </trkpt>
      <trkpt lat="42.360903974622488" lon="2.519424995407462">
        <ele>770.63</ele>
        <time>2025-05-15T10:38:30Z</time>
      </trkpt>
      <trkpt lat="42.360856030136347" lon="2.519427007064223">
        <ele>769.66999999999996</ele>
        <time>2025-05-15T10:38:31Z</time>
      </trkpt>
      <trkpt lat="42.360792998224497" lon="2.519431030377746">
        <ele>769.19000000000005</ele>
        <time>2025-05-15T10:38:32Z</time>
      </trkpt>
      <trkpt lat="42.360770031809807" lon="2.519436981528997">
        <ele>768.71000000000004</ele>
        <time>2025-05-15T10:38:33Z</time>
      </trkpt>
      <trkpt lat="42.360730972141027" lon="2.519447039812803">
        <ele>768.23000000000002</ele>
        <time>2025-05-15T10:38:34Z</time>
      </trkpt>
      <trkpt lat="42.360689984634519" lon="2.519458020105958">
        <ele>768.23000000000002</ele>
        <time>2025-05-15T10:38:35Z</time>
      </trkpt>
      <trkpt lat="42.360602980479598" lon="2.519481992349029">
        <ele>767.75</ele>
        <time>2025-05-15T10:38:37Z</time>
      </trkpt>
      <trkpt lat="42.360561992973089" lon="2.519492972642183">
        <ele>767.75</ele>
        <time>2025-05-15T10:38:38Z</time>
      </trkpt>
      <trkpt lat="42.360455961897969" lon="2.519521974027157">
        <ele>767.26999999999998</ele>
        <time>2025-05-15T10:38:41Z</time>
      </trkpt>
      <trkpt lat="42.360430983826518" lon="2.519530020654202">
        <ele>766.78999999999996</ele>
        <time>2025-05-15T10:38:42Z</time>
      </trkpt>
      <trkpt lat="42.360399970784783" lon="2.519541000947356">
        <ele>766.30999999999995</ele>
        <time>2025-05-15T10:38:43Z</time>
      </trkpt>
      <trkpt lat="42.360367029905319" lon="2.51955097541213">
        <ele>765.83000000000004</ele>
        <time>2025-05-15T10:38:44Z</time>
      </trkpt>
      <trkpt lat="42.360329981893301" lon="2.519563967362046">
        <ele>765.83000000000004</ele>
        <time>2025-05-15T10:38:45Z</time>
      </trkpt>
      <trkpt lat="42.360278014093637" lon="2.519580982625485">
        <ele>765.35000000000002</ele>
        <time>2025-05-15T10:38:46Z</time>
      </trkpt>
      <trkpt lat="42.360250018537045" lon="2.519596992060542">
        <ele>765.35000000000002</ele>
        <time>2025-05-15T10:38:47Z</time>
      </trkpt>
      <trkpt lat="42.360212970525026" lon="2.519617024809122">
        <ele>764.87</ele>
        <time>2025-05-15T10:38:48Z</time>
      </trkpt>
      <trkpt lat="42.360179023817182" lon="2.51963596791029">
        <ele>764.87</ele>
        <time>2025-05-15T10:38:49Z</time>
      </trkpt>
      <trkpt lat="42.360148010775447" lon="2.519652983173728">
        <ele>764.87</ele>
        <time>2025-05-15T10:38:50Z</time>
      </trkpt>
      <trkpt lat="42.36011398024857" lon="2.519672010093927">
        <ele>764.38999999999999</ele>
        <time>2025-05-15T10:38:51Z</time>
      </trkpt>
      <trkpt lat="42.360084978863597" lon="2.519689025357366">
        <ele>764.38999999999999</ele>
        <time>2025-05-15T10:38:52Z</time>
      </trkpt>
      <trkpt lat="42.360084978863597" lon="2.519689025357366">
        <ele>763.89999999999998</ele>
        <time>2025-05-15T10:38:53Z</time>
      </trkpt>
      <trkpt lat="42.360021024942398" lon="2.51976597122848">
        <ele>763.89999999999998</ele>
        <time>2025-05-15T10:38:54Z</time>
      </trkpt>
      <trkpt lat="42.359990011900663" lon="2.519804025068879">
        <ele>763.41999999999996</ele>
        <time>2025-05-15T10:38:55Z</time>
      </trkpt>
      <trkpt lat="42.359953969717026" lon="2.51984803006053">
        <ele>763.41999999999996</ele>
        <time>2025-05-15T10:38:56Z</time>
      </trkpt>
      <trkpt lat="42.359891021624207" lon="2.519924975931644">
        <ele>763.41999999999996</ele>
        <time>2025-05-15T10:38:57Z</time>
      </trkpt>
      <trkpt lat="42.359851961955428" lon="2.520003011450172">
        <ele>763.41999999999996</ele>
        <time>2025-05-15T10:38:59Z</time>
      </trkpt>
      <trkpt lat="42.359825978055596" lon="2.520055985078216">
        <ele>763.41999999999996</ele>
        <time>2025-05-15T10:39:00Z</time>
      </trkpt>
      <trkpt lat="42.359796976670623" lon="2.520112982019782">
        <ele>762.94000000000005</ele>
        <time>2025-05-15T10:39:01Z</time>
      </trkpt>
      <trkpt lat="42.35976898111403" lon="2.520168973132968">
        <ele>762.94000000000005</ele>
        <time>2025-05-15T10:39:02Z</time>
      </trkpt>
      <trkpt lat="42.359740985557437" lon="2.520224964246154">
        <ele>762.94000000000005</ele>
        <time>2025-05-15T10:39:03Z</time>
      </trkpt>
      <trkpt lat="42.359710978344083" lon="2.520285984501243">
        <ele>762.46000000000004</ele>
        <time>2025-05-15T10:39:04Z</time>
      </trkpt>
      <trkpt lat="42.359680971130729" lon="2.520345998927951">
        <ele>762.46000000000004</ele>
        <time>2025-05-15T10:39:05Z</time>
      </trkpt>
      <trkpt lat="42.359650963917375" lon="2.520406013354659">
        <ele>761.98000000000002</ele>
        <time>2025-05-15T10:39:06Z</time>
      </trkpt>
      <trkpt lat="42.359620034694672" lon="2.520467033609748">
        <ele>761.5</ele>
        <time>2025-05-15T10:39:07Z</time>
      </trkpt>
      <trkpt lat="42.359591033309698" lon="2.520525958389044">
        <ele>761.01999999999998</ele>
        <time>2025-05-15T10:39:08Z</time>
      </trkpt>
      <trkpt lat="42.359562031924725" lon="2.520583961158991">
        <ele>761.01999999999998</ele>
        <time>2025-05-15T10:39:09Z</time>
      </trkpt>
      <trkpt lat="42.359534036368132" lon="2.520639030262828">
        <ele>760.53999999999996</ele>
        <time>2025-05-15T10:39:10Z</time>
      </trkpt>
      <trkpt lat="42.359506962820888" lon="2.520677000284195">
        <ele>760.53999999999996</ele>
        <time>2025-05-15T10:39:11Z</time>
      </trkpt>
      <trkpt lat="42.35946899279952" lon="2.520724022760987">
        <ele>760.05999999999995</ele>
        <time>2025-05-15T10:39:12Z</time>
      </trkpt>
      <trkpt lat="42.359430016949773" lon="2.520770039409399">
        <ele>759.58000000000004</ele>
        <time>2025-05-15T10:39:13Z</time>
      </trkpt>
      <trkpt lat="42.35938299447298" lon="2.520783031359315">
        <ele>759.10000000000002</ele>
        <time>2025-05-15T10:39:14Z</time>
      </trkpt>
      <trkpt lat="42.359334966167808" lon="2.520783031359315">
        <ele>758.62</ele>
        <time>2025-05-15T10:39:15Z</time>
      </trkpt>
      <trkpt lat="42.359282998368144" lon="2.520754029974341">
        <ele>758.13999999999999</ele>
        <time>2025-05-15T10:39:16Z</time>
      </trkpt>
      <trkpt lat="42.359241005033255" lon="2.520712036639452">
        <ele>758.13999999999999</ele>
        <time>2025-05-15T10:39:17Z</time>
      </trkpt>
      <trkpt lat="42.359202029183507" lon="2.520672976970673">
        <ele>758.13999999999999</ele>
        <time>2025-05-15T10:39:18Z</time>
      </trkpt>
      <trkpt lat="42.359179984778166" lon="2.520638024434447">
        <ele>758.13999999999999</ele>
        <time>2025-05-15T10:39:19Z</time>
      </trkpt>
      <trkpt lat="42.359171016141772" lon="2.520591001957655">
        <ele>757.65999999999997</ele>
        <time>2025-05-15T10:39:20Z</time>
      </trkpt>
      <trkpt lat="42.359161963686347" lon="2.520546996966004">
        <ele>757.17999999999995</ele>
        <time>2025-05-15T10:39:21Z</time>
      </trkpt>
      <trkpt lat="42.359176967293024" lon="2.52049301750958">
        <ele>757.17999999999995</ele>
        <time>2025-05-15T10:39:22Z</time>
      </trkpt>
      <trkpt lat="42.359244022518396" lon="2.520246002823114">
        <ele>756.69000000000005</ele>
        <time>2025-05-15T10:39:26Z</time>
      </trkpt>
      <trkpt lat="42.359347036108375" lon="2.519866973161697">
        <ele>757.65999999999997</ele>
        <time>2025-05-15T10:39:37Z</time>
      </trkpt>
      <trkpt lat="42.359352987259626" lon="2.519806958734989">
        <ele>757.65999999999997</ele>
        <time>2025-05-15T10:39:44Z</time>
      </trkpt>
      <trkpt lat="42.359335971996188" lon="2.519520968198776">
        <ele>759.10000000000002</ele>
        <time>2025-05-15T10:39:49Z</time>
      </trkpt>
      <trkpt lat="42.359328009188175" lon="2.51937897875905">
        <ele>759.58000000000004</ele>
        <time>2025-05-15T10:39:51Z</time>
      </trkpt>
      <trkpt lat="42.359323985874653" lon="2.519306978210807">
        <ele>760.05999999999995</ele>
        <time>2025-05-15T10:39:52Z</time>
      </trkpt>
      <trkpt lat="42.359319962561131" lon="2.519239000976086">
        <ele>760.05999999999995</ele>
        <time>2025-05-15T10:39:53Z</time>
      </trkpt>
      <trkpt lat="42.359304958954453" lon="2.518989974632859">
        <ele>760.53999999999996</ele>
        <time>2025-05-15T10:39:57Z</time>
      </trkpt>
      <trkpt lat="42.359302025288343" lon="2.518937001004815">
        <ele>761.01999999999998</ele>
        <time>2025-05-15T10:39:58Z</time>
      </trkpt>
      <trkpt lat="42.359299007803202" lon="2.518884027376771">
        <ele>761.5</ele>
        <time>2025-05-15T10:39:59Z</time>
      </trkpt>
      <trkpt lat="42.35929599031806" lon="2.518827030435205">
        <ele>761.5</ele>
        <time>2025-05-15T10:40:00Z</time>
      </trkpt>
      <trkpt lat="42.359266988933086" lon="2.518728040158749">
        <ele>761.5</ele>
        <time>2025-05-15T10:40:01Z</time>
      </trkpt>
      <trkpt lat="42.359213009476662" lon="2.51869099214673">
        <ele>761.5</ele>
        <time>2025-05-15T10:40:02Z</time>
      </trkpt>
      <trkpt lat="42.359156012535095" lon="2.518652016296983">
        <ele>761.5</ele>
        <time>2025-05-15T10:40:03Z</time>
      </trkpt>
      <trkpt lat="42.359099015593529" lon="2.518613040447235">
        <ele>761.5</ele>
        <time>2025-05-15T10:40:04Z</time>
      </trkpt>
      <trkpt lat="42.359041012823582" lon="2.518572974950075">
        <ele>761.98000000000002</ele>
        <time>2025-05-15T10:40:05Z</time>
      </trkpt>
      <trkpt lat="42.358793998137116" lon="2.518382035195828">
        <ele>762.94000000000005</ele>
        <time>2025-05-15T10:40:10Z</time>
      </trkpt>
      <trkpt lat="42.358749993145466" lon="2.51834599301219">
        <ele>762.94000000000005</ele>
        <time>2025-05-15T10:40:11Z</time>
      </trkpt>
      <trkpt lat="42.358700037002563" lon="2.518305005505681">
        <ele>763.41999999999996</ele>
        <time>2025-05-15T10:40:12Z</time>
      </trkpt>
      <trkpt lat="42.358647985383868" lon="2.518262006342411">
        <ele>763.41999999999996</ele>
        <time>2025-05-15T10:40:13Z</time>
      </trkpt>
      <trkpt lat="42.358583025634289" lon="2.518208026885986">
        <ele>763.41999999999996</ele>
        <time>2025-05-15T10:40:14Z</time>
      </trkpt>
      <trkpt lat="42.358529968187213" lon="2.518080035224557">
        <ele>763.89999999999998</ele>
        <time>2025-05-15T10:40:16Z</time>
      </trkpt>
      <trkpt lat="42.358464002609253" lon="2.517919018864632">
        <ele>763.41999999999996</ele>
        <time>2025-05-15T10:40:18Z</time>
      </trkpt>
      <trkpt lat="42.358433995395899" lon="2.517846012488008">
        <ele>763.41999999999996</ele>
        <time>2025-05-15T10:40:19Z</time>
      </trkpt>
      <trkpt lat="42.358388984575868" lon="2.517735958099365">
        <ele>763.41999999999996</ele>
        <time>2025-05-15T10:40:20Z</time>
      </trkpt>
      <trkpt lat="42.358226962387562" lon="2.517493972554803">
        <ele>763.41999999999996</ele>
        <time>2025-05-15T10:40:23Z</time>
      </trkpt>
      <trkpt lat="42.358045997098088" lon="2.517403028905392">
        <ele>762.46000000000004</ele>
        <time>2025-05-15T10:40:26Z</time>
      </trkpt>
      <trkpt lat="42.357982965186238" lon="2.517390036955476">
        <ele>762.94000000000005</ele>
        <time>2025-05-15T10:40:27Z</time>
      </trkpt>
      <trkpt lat="42.357937032356858" lon="2.517387019470334">
        <ele>763.41999999999996</ele>
        <time>2025-05-15T10:40:28Z</time>
      </trkpt>
      <trkpt lat="42.357835024595261" lon="2.51737997867167">
        <ele>765.83000000000004</ele>
        <time>2025-05-15T10:40:30Z</time>
      </trkpt>
      <trkpt lat="42.357777021825314" lon="2.517376039177179">
        <ele>766.30999999999995</ele>
        <time>2025-05-15T10:40:31Z</time>
      </trkpt>
      <trkpt lat="42.357716001570225" lon="2.517372015863657">
        <ele>767.26999999999998</ele>
        <time>2025-05-15T10:40:32Z</time>
      </trkpt>
      <trkpt lat="42.357659004628658" lon="2.517367992550135">
        <ele>767.26999999999998</ele>
        <time>2025-05-15T10:40:33Z</time>
      </trkpt>
      <trkpt lat="42.357607036828995" lon="2.517364975064993">
        <ele>767.75</ele>
        <time>2025-05-15T10:40:34Z</time>
      </trkpt>
      <trkpt lat="42.357554985210299" lon="2.517361035570502">
        <ele>768.23000000000002</ele>
        <time>2025-05-15T10:40:35Z</time>
      </trkpt>
      <trkpt lat="42.357509974390268" lon="2.517358018085361">
        <ele>768.23000000000002</ele>
        <time>2025-05-15T10:40:36Z</time>
      </trkpt>
      <trkpt lat="42.357465969398618" lon="2.517355000600219">
        <ele>768.71000000000004</ele>
        <time>2025-05-15T10:40:37Z</time>
      </trkpt>
      <trkpt lat="42.35742699354887" lon="2.517352988943458">
        <ele>768.71000000000004</ele>
        <time>2025-05-15T10:40:38Z</time>
      </trkpt>
      <trkpt lat="42.357362033799291" lon="2.517289035022259">
        <ele>769.19000000000005</ele>
        <time>2025-05-15T10:40:39Z</time>
      </trkpt>
      <trkpt lat="42.357347030192614" lon="2.517240000888705">
        <ele>769.19000000000005</ele>
        <time>2025-05-15T10:40:40Z</time>
      </trkpt>
      <trkpt lat="42.357332026585937" lon="2.517191972583532">
        <ele>769.19000000000005</ele>
        <time>2025-05-15T10:40:41Z</time>
      </trkpt>
      <trkpt lat="42.35729699023068" lon="2.517082002013922">
        <ele>769.66999999999996</ele>
        <time>2025-05-15T10:40:43Z</time>
      </trkpt>
      <trkpt lat="42.357265977188945" lon="2.517005978152156">
        <ele>770.63</ele>
        <time>2025-05-15T10:40:44Z</time>
      </trkpt>
      <trkpt lat="42.357223983854055" lon="2.517005978152156">
        <ele>771.11000000000001</ele>
        <time>2025-05-15T10:40:45Z</time>
      </trkpt>
      <trkpt lat="42.357177967205644" lon="2.517005978152156">
        <ele>771.60000000000002</ele>
        <time>2025-05-15T10:40:46Z</time>
      </trkpt>
      <trkpt lat="42.357128011062741" lon="2.517005978152156">
        <ele>772.08000000000004</ele>
        <time>2025-05-15T10:40:47Z</time>
      </trkpt>
      <trkpt lat="42.357079982757568" lon="2.517005978152156">
        <ele>772.08000000000004</ele>
        <time>2025-05-15T10:40:48Z</time>
      </trkpt>
      <trkpt lat="42.356989961117506" lon="2.517000027000904">
        <ele>772.55999999999995</ele>
        <time>2025-05-15T10:40:49Z</time>
      </trkpt>
      <trkpt lat="42.356948973610997" lon="2.516950992867351">
        <ele>773.03999999999996</ele>
        <time>2025-05-15T10:40:50Z</time>
      </trkpt>
      <trkpt lat="42.356905974447727" lon="2.516900030896068">
        <ele>774</ele>
        <time>2025-05-15T10:40:51Z</time>
      </trkpt>
      <trkpt lat="42.356689972802997" lon="2.516640024259687">
        <ele>776.88</ele>
        <time>2025-05-15T10:40:56Z</time>
      </trkpt>
      <trkpt lat="42.35667304135859" lon="2.516619991511107">
        <ele>776.88</ele>
        <time>2025-05-15T10:40:57Z</time>
      </trkpt>
      <trkpt lat="42.356570027768612" lon="2.516551008448005">
        <ele>777.36000000000001</ele>
        <time>2025-05-15T10:40:59Z</time>
      </trkpt>
      <trkpt lat="42.356453016400337" lon="2.516473978757858">
        <ele>778.32000000000005</ele>
        <time>2025-05-15T10:41:02Z</time>
      </trkpt>
      <trkpt lat="42.356414962559938" lon="2.516449000686407">
        <ele>778.32000000000005</ele>
        <time>2025-05-15T10:41:03Z</time>
      </trkpt>
      <trkpt lat="42.356368023902178" lon="2.516400972381234">
        <ele>778.32000000000005</ele>
        <time>2025-05-15T10:41:04Z</time>
      </trkpt>
      <trkpt lat="42.356342040002346" lon="2.516374988481402">
        <ele>778.32000000000005</ele>
        <time>2025-05-15T10:41:05Z</time>
      </trkpt>
      <trkpt lat="42.356323013082147" lon="2.516355961561203">
        <ele>777.84000000000003</ele>
        <time>2025-05-15T10:41:06Z</time>
      </trkpt>
      <trkpt lat="42.356323013082147" lon="2.516355961561203">
        <ele>777.36000000000001</ele>
        <time>2025-05-15T10:41:15Z</time>
      </trkpt>
      <trkpt lat="42.356323013082147" lon="2.516355961561203">
        <ele>777.36000000000001</ele>
        <time>2025-05-15T10:41:53Z</time>
      </trkpt>
      <trkpt lat="42.356323013082147" lon="2.516355961561203">
        <ele>776.88</ele>
        <time>2025-05-15T10:42:36Z</time>
      </trkpt>
      <trkpt lat="42.356323013082147" lon="2.516355961561203">
        <ele>776.88</ele>
        <time>2025-05-15T10:43:04Z</time>
      </trkpt>
      <trkpt lat="42.356323013082147" lon="2.516355961561203">
        <ele>776.88</ele>
        <time>2025-05-15T10:43:25Z</time>
      </trkpt>
      <trkpt lat="42.356323013082147" lon="2.516355961561203">
        <ele>776.39999999999998</ele>
        <time>2025-05-15T10:43:48Z</time>
      </trkpt>
      <trkpt lat="42.356323013082147" lon="2.516355961561203">
        <ele>777.84000000000003</ele>
        <time>2025-05-15T10:43:57Z</time>
      </trkpt>
      <trkpt lat="42.356414962559938" lon="2.516449000686407">
        <ele>777.36000000000001</ele>
        <time>2025-05-15T10:44:00Z</time>
      </trkpt>
      <trkpt lat="42.35667304135859" lon="2.516619991511107">
        <ele>777.36000000000001</ele>
        <time>2025-05-15T10:44:05Z</time>
      </trkpt>
      <trkpt lat="42.35676096752286" lon="2.516727028414607">
        <ele>776.88</ele>
        <time>2025-05-15T10:44:07Z</time>
      </trkpt>
      <trkpt lat="42.357015023007989" lon="2.517005978152156">
        <ele>776.39999999999998</ele>
        <time>2025-05-15T10:44:13Z</time>
      </trkpt>
      <trkpt lat="42.357056010514498" lon="2.517005978152156">
        <ele>776.88</ele>
        <time>2025-05-15T10:44:14Z</time>
      </trkpt>
      <trkpt lat="42.357095992192626" lon="2.517005978152156">
        <ele>777.36000000000001</ele>
        <time>2025-05-15T10:44:15Z</time>
      </trkpt>
      <trkpt lat="42.357305958867073" lon="2.517109997570515">
        <ele>777.36000000000001</ele>
        <time>2025-05-15T10:44:20Z</time>
      </trkpt>
      <trkpt lat="42.35732096247375" lon="2.517158025875688">
        <ele>777.36000000000001</ele>
        <time>2025-05-15T10:44:21Z</time>
      </trkpt>
      <trkpt lat="42.357336971908808" lon="2.517209993675351">
        <ele>777.36000000000001</ele>
        <time>2025-05-15T10:44:22Z</time>
      </trkpt>
      <trkpt lat="42.357351975515485" lon="2.517258021980524">
        <ele>776.88</ele>
        <time>2025-05-15T10:44:23Z</time>
      </trkpt>
      <trkpt lat="42.357366979122162" lon="2.517305966466665">
        <ele>776.88</ele>
        <time>2025-05-15T10:44:24Z</time>
      </trkpt>
      <trkpt lat="42.357400003820658" lon="2.517350977286696">
        <ele>776.39999999999998</ele>
        <time>2025-05-15T10:44:25Z</time>
      </trkpt>
      <trkpt lat="42.357452977448702" lon="2.517353994771838">
        <ele>776.39999999999998</ele>
        <time>2025-05-15T10:44:26Z</time>
      </trkpt>
      <trkpt lat="42.357510980218649" lon="2.517358018085361">
        <ele>776.39999999999998</ele>
        <time>2025-05-15T10:44:27Z</time>
      </trkpt>
      <trkpt lat="42.357570994645357" lon="2.517362041398883">
        <ele>776.39999999999998</ele>
        <time>2025-05-15T10:44:28Z</time>
      </trkpt>
      <trkpt lat="42.357682976871729" lon="2.517370004206896">
        <ele>776.39999999999998</ele>
        <time>2025-05-15T10:44:30Z</time>
      </trkpt>
      <trkpt lat="42.357736034318805" lon="2.517373021692038">
        <ele>775.91999999999996</ele>
        <time>2025-05-15T10:44:31Z</time>
      </trkpt>
      <trkpt lat="42.358024958521128" lon="2.517392970621586">
        <ele>775.44000000000005</ele>
        <time>2025-05-15T10:44:36Z</time>
      </trkpt>
      <trkpt lat="42.358096959069371" lon="2.517429012805224">
        <ele>775.44000000000005</ele>
        <time>2025-05-15T10:44:38Z</time>
      </trkpt>
      <trkpt lat="42.358379010111094" lon="2.517720032483339">
        <ele>774.48000000000002</ele>
        <time>2025-05-15T10:44:43Z</time>
      </trkpt>
      <trkpt lat="42.358560981228948" lon="2.518155975267291">
        <ele>774.48000000000002</ele>
        <time>2025-05-15T10:44:48Z</time>
      </trkpt>
      <trkpt lat="42.358583025634289" lon="2.518208026885986">
        <ele>774.48000000000002</ele>
        <time>2025-05-15T10:44:49Z</time>
      </trkpt>
      <trkpt lat="42.35867103561759" lon="2.51828103326261">
        <ele>774</ele>
        <time>2025-05-15T10:44:50Z</time>
      </trkpt>
      <trkpt lat="42.358727026730776" lon="2.518326966091991">
        <ele>774</ele>
        <time>2025-05-15T10:44:51Z</time>
      </trkpt>
      <trkpt lat="42.358786035329103" lon="2.518376000225544">
        <ele>774</ele>
        <time>2025-05-15T10:44:52Z</time>
      </trkpt>
      <trkpt lat="42.358846971765161" lon="2.518426040187478">
        <ele>774</ele>
        <time>2025-05-15T10:44:53Z</time>
      </trkpt>
      <trkpt lat="42.358905980363488" lon="2.518473984673619">
        <ele>774</ele>
        <time>2025-05-15T10:44:54Z</time>
      </trkpt>
      <trkpt lat="42.358963983133435" lon="2.518520001322031">
        <ele>773.51999999999998</ele>
        <time>2025-05-15T10:44:55Z</time>
      </trkpt>
      <trkpt lat="42.359025003388524" lon="2.51856199465692">
        <ele>773.51999999999998</ele>
        <time>2025-05-15T10:44:56Z</time>
      </trkpt>
      <trkpt lat="42.359148971736431" lon="2.51864698715508">
        <ele>773.51999999999998</ele>
        <time>2025-05-15T10:44:58Z</time>
      </trkpt>
      <trkpt lat="42.359220972284675" lon="2.518696021288633">
        <ele>773.51999999999998</ele>
        <time>2025-05-15T10:44:59Z</time>
      </trkpt>
      <trkpt lat="42.359284004196525" lon="2.518739020451903">
        <ele>773.51999999999998</ele>
        <time>2025-05-15T10:45:00Z</time>
      </trkpt>
      <trkpt lat="42.35929599031806" lon="2.518832981586456">
        <ele>773.51999999999998</ele>
        <time>2025-05-15T10:45:01Z</time>
      </trkpt>
      <trkpt lat="42.359301019459963" lon="2.518916968256235">
        <ele>773.51999999999998</ele>
        <time>2025-05-15T10:45:02Z</time>
      </trkpt>
      <trkpt lat="42.359305964782834" lon="2.519001960754395">
        <ele>773.03999999999996</ele>
        <time>2025-05-15T10:45:03Z</time>
      </trkpt>
      <trkpt lat="42.359310993924737" lon="2.519084019586444">
        <ele>772.55999999999995</ele>
        <time>2025-05-15T10:45:04Z</time>
      </trkpt>
      <trkpt lat="42.359315017238259" lon="2.519155014306307">
        <ele>772.55999999999995</ele>
        <time>2025-05-15T10:45:05Z</time>
      </trkpt>
      <trkpt lat="42.359319040551782" lon="2.519225003197789">
        <ele>772.08000000000004</ele>
        <time>2025-05-15T10:45:06Z</time>
      </trkpt>
      <trkpt lat="42.359322980046272" lon="2.519289962947369">
        <ele>772.08000000000004</ele>
        <time>2025-05-15T10:45:07Z</time>
      </trkpt>
      <trkpt lat="42.359325997531414" lon="2.51935500651598">
        <ele>772.08000000000004</ele>
        <time>2025-05-15T10:45:08Z</time>
      </trkpt>
      <trkpt lat="42.359331026673317" lon="2.519422983750701">
        <ele>771.60000000000002</ele>
        <time>2025-05-15T10:45:09Z</time>
      </trkpt>
      <trkpt lat="42.359334966167808" lon="2.519492972642183">
        <ele>771.60000000000002</ele>
        <time>2025-05-15T10:45:10Z</time>
      </trkpt>
      <trkpt lat="42.35933898948133" lon="2.519561033695936">
        <ele>771.60000000000002</ele>
        <time>2025-05-15T10:45:11Z</time>
      </trkpt>
      <trkpt lat="42.359343012794852" lon="2.519628005102277">
        <ele>771.11000000000001</ele>
        <time>2025-05-15T10:45:12Z</time>
      </trkpt>
      <trkpt lat="42.359346030279994" lon="2.519686007872224">
        <ele>770.63</ele>
        <time>2025-05-15T10:45:13Z</time>
      </trkpt>
      <trkpt lat="42.359348963946104" lon="2.519739987328649">
        <ele>770.14999999999998</ele>
        <time>2025-05-15T10:45:14Z</time>
      </trkpt>
      <trkpt lat="42.359351981431246" lon="2.519791033118963">
        <ele>769.66999999999996</ele>
        <time>2025-05-15T10:45:15Z</time>
      </trkpt>
      <trkpt lat="42.359354998916388" lon="2.519832020625472">
        <ele>768.71000000000004</ele>
        <time>2025-05-15T10:45:16Z</time>
      </trkpt>
      <trkpt lat="42.359354998916388" lon="2.519838977605104">
        <ele>768.71000000000004</ele>
        <time>2025-05-15T10:45:17Z</time>
      </trkpt>
      <trkpt lat="42.359354998916388" lon="2.519838977605104">
        <ele>767.75</ele>
        <time>2025-05-15T10:45:29Z</time>
      </trkpt>
      <trkpt lat="42.35933898948133" lon="2.519896980375052">
        <ele>767.75</ele>
        <time>2025-05-15T10:45:31Z</time>
      </trkpt>
      <trkpt lat="42.359354998916388" lon="2.519838977605104">
        <ele>767.75</ele>
        <time>2025-05-15T10:45:32Z</time>
      </trkpt>
      <trkpt lat="42.359344018623233" lon="2.519921036437154">
        <ele>779.76999999999998</ele>
        <time>2025-05-15T10:55:07Z</time>
      </trkpt>
      <trkpt lat="42.359353993088007" lon="2.519908966496587">
        <ele>781.69000000000005</ele>
        <time>2025-05-15T10:56:05Z</time>
      </trkpt>
      <trkpt lat="42.359357010573149" lon="2.51991399563849">
        <ele>782.64999999999998</ele>
        <time>2025-05-15T10:56:55Z</time>
      </trkpt>
      <trkpt lat="42.359335971996188" lon="2.519907038658857">
        <ele>782.16999999999996</ele>
        <time>2025-05-15T10:57:31Z</time>
      </trkpt>
      <trkpt lat="42.359323985874653" lon="2.519950959831476">
        <ele>780.73000000000002</ele>
        <time>2025-05-15T10:57:32Z</time>
      </trkpt>
      <trkpt lat="42.359311999753118" lon="2.519994964823127">
        <ele>780.25</ele>
        <time>2025-05-15T10:57:33Z</time>
      </trkpt>
      <trkpt lat="42.359190965071321" lon="2.520440965890884">
        <ele>775.44000000000005</ele>
        <time>2025-05-15T10:57:42Z</time>
      </trkpt>
      <trkpt lat="42.359175961464643" lon="2.520496034994721">
        <ele>774.48000000000002</ele>
        <time>2025-05-15T10:57:43Z</time>
      </trkpt>
      <trkpt lat="42.359161963686347" lon="2.520550014451146">
        <ele>774</ele>
        <time>2025-05-15T10:57:44Z</time>
      </trkpt>
      <trkpt lat="42.359175039455295" lon="2.520613968372345">
        <ele>773.51999999999998</ele>
        <time>2025-05-15T10:57:45Z</time>
      </trkpt>
      <trkpt lat="42.35920999199152" lon="2.520680017769337">
        <ele>772.55999999999995</ele>
        <time>2025-05-15T10:57:46Z</time>
      </trkpt>
      <trkpt lat="42.359249973669648" lon="2.520719999447465">
        <ele>772.08000000000004</ele>
        <time>2025-05-15T10:57:47Z</time>
      </trkpt>
      <trkpt lat="42.359289033338428" lon="2.520759981125593">
        <ele>771.60000000000002</ele>
        <time>2025-05-15T10:57:48Z</time>
      </trkpt>
      <trkpt lat="42.359348963946104" lon="2.520783031359315">
        <ele>771.11000000000001</ele>
        <time>2025-05-15T10:57:49Z</time>
      </trkpt>
      <trkpt lat="42.35940302722156" lon="2.520783031359315">
        <ele>770.63</ele>
        <time>2025-05-15T10:57:50Z</time>
      </trkpt>
      <trkpt lat="42.359475027769804" lon="2.520715976133943">
        <ele>770.14999999999998</ele>
        <time>2025-05-15T10:57:51Z</time>
      </trkpt>
      <trkpt lat="42.359521966427565" lon="2.520659985020757">
        <ele>769.19000000000005</ele>
        <time>2025-05-15T10:57:52Z</time>
      </trkpt>
      <trkpt lat="42.359561026096344" lon="2.520585972815752">
        <ele>768.71000000000004</ele>
        <time>2025-05-15T10:57:53Z</time>
      </trkpt>
      <trkpt lat="42.359598996117711" lon="2.520509026944637">
        <ele>768.23000000000002</ele>
        <time>2025-05-15T10:57:54Z</time>
      </trkpt>
      <trkpt lat="42.359636966139078" lon="2.520433003082871">
        <ele>767.75</ele>
        <time>2025-05-15T10:57:55Z</time>
      </trkpt>
      <trkpt lat="42.359891021624207" lon="2.519924975931644">
        <ele>772.08000000000004</ele>
        <time>2025-05-15T10:58:02Z</time>
      </trkpt>
      <trkpt lat="42.360019013285637" lon="2.519768988713622">
        <ele>773.51999999999998</ele>
        <time>2025-05-15T10:58:05Z</time>
      </trkpt>
      <trkpt lat="42.360104005783796" lon="2.519677961245179">
        <ele>774.96000000000004</ele>
        <time>2025-05-15T10:58:07Z</time>
      </trkpt>
      <trkpt lat="42.36015597358346" lon="2.519648959860206">
        <ele>775.91999999999996</ele>
        <time>2025-05-15T10:58:08Z</time>
      </trkpt>
      <trkpt lat="42.360208025202155" lon="2.519619958475232">
        <ele>776.39999999999998</ele>
        <time>2025-05-15T10:58:09Z</time>
      </trkpt>
      <trkpt lat="42.360255969688296" lon="2.51959296874702">
        <ele>776.88</ele>
        <time>2025-05-15T10:58:10Z</time>
      </trkpt>
      <trkpt lat="42.360278014093637" lon="2.519580982625485">
        <ele>777.36000000000001</ele>
        <time>2025-05-15T10:58:11Z</time>
      </trkpt>
      <trkpt lat="42.360513964667916" lon="2.519505964592099">
        <ele>780.73000000000002</ele>
        <time>2025-05-15T10:58:15Z</time>
      </trkpt>
      <trkpt lat="42.360561992973089" lon="2.519492972642183">
        <ele>781.69000000000005</ele>
        <time>2025-05-15T10:58:16Z</time>
      </trkpt>
      <trkpt lat="42.360611027106643" lon="2.519479980692267">
        <ele>782.16999999999996</ele>
        <time>2025-05-15T10:58:17Z</time>
      </trkpt>
      <trkpt lat="42.360661989077926" lon="2.519465982913971">
        <ele>783.13</ele>
        <time>2025-05-15T10:58:18Z</time>
      </trkpt>
      <trkpt lat="42.360710017383099" lon="2.519452990964055">
        <ele>784.09000000000003</ele>
        <time>2025-05-15T10:58:19Z</time>
      </trkpt>
      <trkpt lat="42.360754022374749" lon="2.51944100484252">
        <ele>785.04999999999995</ele>
        <time>2025-05-15T10:58:20Z</time>
      </trkpt>
      <trkpt lat="42.36088695935905" lon="2.519426001235843">
        <ele>787.46000000000004</ele>
        <time>2025-05-15T10:58:23Z</time>
      </trkpt>
      <trkpt lat="42.360934987664223" lon="2.519422983750701">
        <ele>788.41999999999996</ele>
        <time>2025-05-15T10:58:24Z</time>
      </trkpt>
      <trkpt lat="42.360987039282918" lon="2.519419966265559">
        <ele>788.89999999999998</ele>
        <time>2025-05-15T10:58:25Z</time>
      </trkpt>
      <trkpt lat="42.361044958233833" lon="2.519416026771069">
        <ele>789.38</ele>
        <time>2025-05-15T10:58:26Z</time>
      </trkpt>
      <trkpt lat="42.361104972660542" lon="2.519413009285927">
        <ele>789.86000000000001</ele>
        <time>2025-05-15T10:58:27Z</time>
      </trkpt>
      <trkpt lat="42.361174039542675" lon="2.519432958215475">
        <ele>790.34000000000003</ele>
        <time>2025-05-15T10:58:28Z</time>
      </trkpt>
      <trkpt lat="42.361218966543674" lon="2.519496995955706">
        <ele>791.29999999999995</ele>
        <time>2025-05-15T10:58:29Z</time>
      </trkpt>
      <trkpt lat="42.361268000677228" lon="2.519566984847188">
        <ele>791.77999999999997</ele>
        <time>2025-05-15T10:58:30Z</time>
      </trkpt>
      <trkpt lat="42.361392974853516" lon="2.519752979278565">
        <ele>793.22000000000003</ele>
        <time>2025-05-15T10:58:33Z</time>
      </trkpt>
      <trkpt lat="42.361459024250507" lon="2.519746022298932">
        <ele>793.71000000000004</ele>
        <time>2025-05-15T10:58:34Z</time>
      </trkpt>
      <trkpt lat="42.361515015363693" lon="2.519738981500268">
        <ele>794.19000000000005</ele>
        <time>2025-05-15T10:58:35Z</time>
      </trkpt>
      <trkpt lat="42.361588021740317" lon="2.51971903257072">
        <ele>794.19000000000005</ele>
        <time>2025-05-15T10:58:36Z</time>
      </trkpt>
      <trkpt lat="42.361600007861853" lon="2.519640997052193">
        <ele>794.66999999999996</ele>
        <time>2025-05-15T10:58:37Z</time>
      </trkpt>
      <trkpt lat="42.361612999811769" lon="2.519552987068892">
        <ele>795.14999999999998</ele>
        <time>2025-05-15T10:58:38Z</time>
      </trkpt>
      <trkpt lat="42.361626997590065" lon="2.519458020105958">
        <ele>795.14999999999998</ele>
        <time>2025-05-15T10:58:39Z</time>
      </trkpt>
      <trkpt lat="42.361642001196742" lon="2.519364980980754">
        <ele>795.14999999999998</ele>
        <time>2025-05-15T10:58:40Z</time>
      </trkpt>
      <trkpt lat="42.361667985096574" lon="2.519268002361059">
        <ele>795.63</ele>
        <time>2025-05-15T10:58:41Z</time>
      </trkpt>
      <trkpt lat="42.361693968996406" lon="2.519217040389776">
        <ele>795.63</ele>
        <time>2025-05-15T10:58:42Z</time>
      </trkpt>
      <trkpt lat="42.361789019778371" lon="2.519169012084603">
        <ele>796.11000000000001</ele>
        <time>2025-05-15T10:58:43Z</time>
      </trkpt>
      <trkpt lat="42.361855991184711" lon="2.519135987386107">
        <ele>796.11000000000001</ele>
        <time>2025-05-15T10:58:44Z</time>
      </trkpt>
      <trkpt lat="42.361914999783039" lon="2.519127018749714">
        <ele>796.59000000000003</ele>
        <time>2025-05-15T10:58:45Z</time>
      </trkpt>
      <trkpt lat="42.361992029473186" lon="2.51911997795105">
        <ele>796.59000000000003</ele>
        <time>2025-05-15T10:58:46Z</time>
      </trkpt>
      <trkpt lat="42.362072998657823" lon="2.519114026799798">
        <ele>797.07000000000005</ele>
        <time>2025-05-15T10:58:47Z</time>
      </trkpt>
      <trkpt lat="42.36215497367084" lon="2.519106986001134">
        <ele>797.07000000000005</ele>
        <time>2025-05-15T10:58:48Z</time>
      </trkpt>
      <trkpt lat="42.362338034436107" lon="2.519090976566076">
        <ele>797.54999999999995</ele>
        <time>2025-05-15T10:58:50Z</time>
      </trkpt>
      <trkpt lat="42.362528974190354" lon="2.519026016816497">
        <ele>798.50999999999999</ele>
        <time>2025-05-15T10:58:52Z</time>
      </trkpt>
      <trkpt lat="42.362959971651435" lon="2.518868017941713">
        <ele>800.44000000000005</ele>
        <time>2025-05-15T10:58:57Z</time>
      </trkpt>
      <trkpt lat="42.363043036311865" lon="2.51886198297143">
        <ele>800.91999999999996</ele>
        <time>2025-05-15T10:58:58Z</time>
      </trkpt>
      <trkpt lat="42.363173961639404" lon="2.518852008506656">
        <ele>800.91999999999996</ele>
        <time>2025-05-15T10:58:59Z</time>
      </trkpt>
      <trkpt lat="42.363208997994661" lon="2.518829964101315">
        <ele>800.44000000000005</ele>
        <time>2025-05-15T10:59:00Z</time>
      </trkpt>
      <trkpt lat="42.363271024078131" lon="2.518790988251567">
        <ele>799.95000000000005</ele>
        <time>2025-05-15T10:59:01Z</time>
      </trkpt>
      <trkpt lat="42.363345958292484" lon="2.518743965774775">
        <ele>799.95000000000005</ele>
        <time>2025-05-15T10:59:02Z</time>
      </trkpt>
      <trkpt lat="42.363392980769277" lon="2.51873298548162">
        <ele>799.95000000000005</ele>
        <time>2025-05-15T10:59:03Z</time>
      </trkpt>
      <trkpt lat="42.363460035994649" lon="2.518715970218182">
        <ele>799.47000000000003</ele>
        <time>2025-05-15T10:59:04Z</time>
      </trkpt>
      <trkpt lat="42.36352801322937" lon="2.518699038773775">
        <ele>799.47000000000003</ele>
        <time>2025-05-15T10:59:05Z</time>
      </trkpt>
      <trkpt lat="42.363674025982618" lon="2.518662996590138">
        <ele>798.99000000000001</ele>
        <time>2025-05-15T10:59:07Z</time>
      </trkpt>
      <trkpt lat="42.364004021510482" lon="2.518572974950075">
        <ele>797.54999999999995</ele>
        <time>2025-05-15T10:59:12Z</time>
      </trkpt>
      <trkpt lat="42.364074010401964" lon="2.518572974950075">
        <ele>797.07000000000005</ele>
        <time>2025-05-15T10:59:13Z</time>
      </trkpt>
      <trkpt lat="42.364194961264729" lon="2.518629971891642">
        <ele>796.59000000000003</ele>
        <time>2025-05-15T10:59:15Z</time>
      </trkpt>
      <trkpt lat="42.364251036196947" lon="2.518687974661589">
        <ele>796.59000000000003</ele>
        <time>2025-05-15T10:59:16Z</time>
      </trkpt>
      <trkpt lat="42.364381039515138" lon="2.518823007121682">
        <ele>796.11000000000001</ele>
        <time>2025-05-15T10:59:18Z</time>
      </trkpt>
      <trkpt lat="42.364442981779575" lon="2.518887966871262">
        <ele>795.63</ele>
        <time>2025-05-15T10:59:19Z</time>
      </trkpt>
      <trkpt lat="42.364493021741509" lon="2.518940018489957">
        <ele>795.14999999999998</ele>
        <time>2025-05-15T10:59:20Z</time>
      </trkpt>
      <trkpt lat="42.364547001197934" lon="2.518997015431523">
        <ele>795.14999999999998</ele>
        <time>2025-05-15T10:59:21Z</time>
      </trkpt>
      <trkpt lat="42.364605003967881" lon="2.519057029858232">
        <ele>794.66999999999996</ele>
        <time>2025-05-15T10:59:22Z</time>
      </trkpt>
      <trkpt lat="42.364671975374222" lon="2.519116960465908">
        <ele>794.66999999999996</ele>
        <time>2025-05-15T10:59:23Z</time>
      </trkpt>
      <trkpt lat="42.364744981750846" lon="2.519151996821165">
        <ele>794.19000000000005</ele>
        <time>2025-05-15T10:59:24Z</time>
      </trkpt>
      <trkpt lat="42.364956960082054" lon="2.519250987097621">
        <ele>792.74000000000001</ele>
        <time>2025-05-15T10:59:27Z</time>
      </trkpt>
      <trkpt lat="42.365019991993904" lon="2.519280994310975">
        <ele>792.25999999999999</ele>
        <time>2025-05-15T10:59:28Z</time>
      </trkpt>
      <trkpt lat="42.365066008642316" lon="2.519361041486263">
        <ele>791.29999999999995</ele>
        <time>2025-05-15T10:59:29Z</time>
      </trkpt>
      <trkpt lat="42.365112025290728" lon="2.519443016499281">
        <ele>790.82000000000005</ele>
        <time>2025-05-15T10:59:30Z</time>
      </trkpt>
      <trkpt lat="42.365159969776869" lon="2.519525997340679">
        <ele>789.86000000000001</ele>
        <time>2025-05-15T10:59:31Z</time>
      </trkpt>
      <trkpt lat="42.365232976153493" lon="2.519611995667219">
        <ele>788.89999999999998</ele>
        <time>2025-05-15T10:59:32Z</time>
      </trkpt>
      <trkpt lat="42.365276981145144" lon="2.519646026194096">
        <ele>788.41999999999996</ele>
        <time>2025-05-15T10:59:33Z</time>
      </trkpt>
      <trkpt lat="42.365371026098728" lon="2.519646026194096">
        <ele>787.94000000000005</ele>
        <time>2025-05-15T10:59:34Z</time>
      </trkpt>
      <trkpt lat="42.365385023877025" lon="2.519646026194096">
        <ele>787.46000000000004</ele>
        <time>2025-05-15T10:59:35Z</time>
      </trkpt>
      <trkpt lat="42.365484014153481" lon="2.519559022039175">
        <ele>786.5</ele>
        <time>2025-05-15T10:59:36Z</time>
      </trkpt>
      <trkpt lat="42.365537993609905" lon="2.519513005390763">
        <ele>786.01999999999998</ele>
        <time>2025-05-15T10:59:37Z</time>
      </trkpt>
      <trkpt lat="42.365600019693375" lon="2.519458020105958">
        <ele>785.04999999999995</ele>
        <time>2025-05-15T10:59:38Z</time>
      </trkpt>
      <trkpt lat="42.365875029936433" lon="2.519218968227506">
        <ele>782.16999999999996</ele>
        <time>2025-05-15T10:59:42Z</time>
      </trkpt>
      <trkpt lat="42.365965973585844" lon="2.519175969064236">
        <ele>781.21000000000004</ele>
        <time>2025-05-15T10:59:43Z</time>
      </trkpt>
      <trkpt lat="42.366112992167473" lon="2.519107991829515">
        <ele>779.76999999999998</ele>
        <time>2025-05-15T10:59:45Z</time>
      </trkpt>
      <trkpt lat="42.366189016029239" lon="2.519087959080935">
        <ele>779.28999999999996</ele>
        <time>2025-05-15T10:59:46Z</time>
      </trkpt>
      <trkpt lat="42.366341985762119" lon="2.519087959080935">
        <ele>778.32000000000005</ele>
        <time>2025-05-15T10:59:48Z</time>
      </trkpt>
      <trkpt lat="42.366581037640572" lon="2.519158031791449">
        <ele>776.88</ele>
        <time>2025-05-15T10:59:51Z</time>
      </trkpt>
      <trkpt lat="42.366673992946744" lon="2.519188039004803">
        <ele>776.39999999999998</ele>
        <time>2025-05-15T10:59:52Z</time>
      </trkpt>
      <trkpt lat="42.366786981001496" lon="2.51924998126924">
        <ele>776.39999999999998</ele>
        <time>2025-05-15T10:59:53Z</time>
      </trkpt>
      <trkpt lat="42.366863004863262" lon="2.519340002909303">
        <ele>776.39999999999998</ele>
        <time>2025-05-15T10:59:54Z</time>
      </trkpt>
      <trkpt lat="42.366937017068267" lon="2.519490038976073">
        <ele>776.39999999999998</ele>
        <time>2025-05-15T10:59:55Z</time>
      </trkpt>
      <trkpt lat="42.366996025666595" lon="2.51963303424418">
        <ele>775.91999999999996</ele>
        <time>2025-05-15T10:59:56Z</time>
      </trkpt>
      <trkpt lat="42.367056040093303" lon="2.519777035340667">
        <ele>775.91999999999996</ele>
        <time>2025-05-15T10:59:57Z</time>
      </trkpt>
      <trkpt lat="42.367167016491294" lon="2.520047016441822">
        <ele>775.91999999999996</ele>
        <time>2025-05-15T10:59:59Z</time>
      </trkpt>
      <trkpt lat="42.367259971797466" lon="2.520133014768362">
        <ele>775.91999999999996</ele>
        <time>2025-05-15T11:00:00Z</time>
      </trkpt>
      <trkpt lat="42.367367008700967" lon="2.520185988396406">
        <ele>775.91999999999996</ele>
        <time>2025-05-15T11:00:01Z</time>
      </trkpt>
      <trkpt lat="42.367605976760387" lon="2.520240973681212">
        <ele>775.91999999999996</ele>
        <time>2025-05-15T11:00:03Z</time>
      </trkpt>
      <trkpt lat="42.36773899756372" lon="2.520269975066185">
        <ele>776.39999999999998</ele>
        <time>2025-05-15T11:00:04Z</time>
      </trkpt>
      <trkpt lat="42.367862965911627" lon="2.520297970622778">
        <ele>776.39999999999998</ele>
        <time>2025-05-15T11:00:05Z</time>
      </trkpt>
      <trkpt lat="42.368175024166703" lon="2.520328983664513">
        <ele>776.88</ele>
        <time>2025-05-15T11:00:08Z</time>
      </trkpt>
      <trkpt lat="42.368247024714947" lon="2.520398972555995">
        <ele>777.36000000000001</ele>
        <time>2025-05-15T11:00:09Z</time>
      </trkpt>
      <trkpt lat="42.368317013606429" lon="2.520466027781367">
        <ele>777.36000000000001</ele>
        <time>2025-05-15T11:00:10Z</time>
      </trkpt>
      <trkpt lat="42.368387002497911" lon="2.520534005016089">
        <ele>776.88</ele>
        <time>2025-05-15T11:00:11Z</time>
      </trkpt>
      <trkpt lat="42.368463026359677" lon="2.520607011392713">
        <ele>776.39999999999998</ele>
        <time>2025-05-15T11:00:12Z</time>
      </trkpt>
      <trkpt lat="42.368535026907921" lon="2.520674988627434">
        <ele>775.91999999999996</ele>
        <time>2025-05-15T11:00:13Z</time>
      </trkpt>
      <trkpt lat="42.368597975000739" lon="2.520737014710903">
        <ele>775.44000000000005</ele>
        <time>2025-05-15T11:00:14Z</time>
      </trkpt>
      <trkpt lat="42.368646003305912" lon="2.520783031359315">
        <ele>774.96000000000004</ele>
        <time>2025-05-15T11:00:15Z</time>
      </trkpt>
      <trkpt lat="42.368707023561001" lon="2.52075201831758">
        <ele>774.96000000000004</ele>
        <time>2025-05-15T11:00:16Z</time>
      </trkpt>
      <trkpt lat="42.368796961382031" lon="2.520707007497549">
        <ele>775.44000000000005</ele>
        <time>2025-05-15T11:00:17Z</time>
      </trkpt>
      <trkpt lat="42.368910033255816" lon="2.520651016384363">
        <ele>775.91999999999996</ele>
        <time>2025-05-15T11:00:18Z</time>
      </trkpt>
      <trkpt lat="42.369017992168665" lon="2.520597036927939">
        <ele>776.39999999999998</ele>
        <time>2025-05-15T11:00:19Z</time>
      </trkpt>
      <trkpt lat="42.369122011587024" lon="2.520598964765668">
        <ele>776.88</ele>
        <time>2025-05-15T11:00:20Z</time>
      </trkpt>
      <trkpt lat="42.369233993813396" lon="2.520612040534616">
        <ele>777.36000000000001</ele>
        <time>2025-05-15T11:00:21Z</time>
      </trkpt>
      <trkpt lat="42.369352011010051" lon="2.520625032484531">
        <ele>777.84000000000003</ele>
        <time>2025-05-15T11:00:22Z</time>
      </trkpt>
      <trkpt lat="42.369603971019387" lon="2.520652022212744">
        <ele>779.28999999999996</ele>
        <time>2025-05-15T11:00:24Z</time>
      </trkpt>
      <trkpt lat="42.36971796490252" lon="2.520664008334279">
        <ele>780.25</ele>
        <time>2025-05-15T11:00:25Z</time>
      </trkpt>
      <trkpt lat="42.369928015395999" lon="2.520686974748969">
        <ele>781.69000000000005</ele>
        <time>2025-05-15T11:00:27Z</time>
      </trkpt>
      <trkpt lat="42.37001895904541" lon="2.520697033032775">
        <ele>782.16999999999996</ele>
        <time>2025-05-15T11:00:28Z</time>
      </trkpt>
      <trkpt lat="42.370148040354252" lon="2.520740032196045">
        <ele>783.13</ele>
        <time>2025-05-15T11:00:29Z</time>
      </trkpt>
      <trkpt lat="42.370176035910845" lon="2.520810021087527">
        <ele>784.09000000000003</ele>
        <time>2025-05-15T11:00:30Z</time>
      </trkpt>
      <trkpt lat="42.370164971798658" lon="2.520968019962311">
        <ele>785.04999999999995</ele>
        <time>2025-05-15T11:00:31Z</time>
      </trkpt>
      <trkpt lat="42.370139993727207" lon="2.521086959168315">
        <ele>785.52999999999997</ele>
        <time>2025-05-15T11:00:32Z</time>
      </trkpt>
      <trkpt lat="42.370110992342234" lon="2.521220985800028">
        <ele>786.01999999999998</ele>
        <time>2025-05-15T11:00:33Z</time>
      </trkpt>
      <trkpt lat="42.370076039806008" lon="2.521386025473476">
        <ele>786.5</ele>
        <time>2025-05-15T11:00:34Z</time>
      </trkpt>
      <trkpt lat="42.37003798596561" lon="2.521561039611697">
        <ele>786.01999999999998</ele>
        <time>2025-05-15T11:00:35Z</time>
      </trkpt>
      <trkpt lat="42.370001021772623" lon="2.521733958274126">
        <ele>785.52999999999997</ele>
        <time>2025-05-15T11:00:36Z</time>
      </trkpt>
      <trkpt lat="42.369933966547251" lon="2.522049034014344">
        <ele>784.57000000000005</ele>
        <time>2025-05-15T11:00:38Z</time>
      </trkpt>
      <trkpt lat="42.369937989860773" lon="2.52221298404038">
        <ele>784.09000000000003</ele>
        <time>2025-05-15T11:00:39Z</time>
      </trkpt>
      <trkpt lat="42.369983000680804" lon="2.522367965430021">
        <ele>783.61000000000001</ele>
        <time>2025-05-15T11:00:40Z</time>
      </trkpt>
      <trkpt lat="42.370095988735557" lon="2.522628977894783">
        <ele>782.64999999999998</ele>
        <time>2025-05-15T11:00:42Z</time>
      </trkpt>
      <trkpt lat="42.370162038132548" lon="2.52270701341331">
        <ele>782.16999999999996</ele>
        <time>2025-05-15T11:00:43Z</time>
      </trkpt>
      <trkpt lat="42.370225992053747" lon="2.522782031446695">
        <ele>781.69000000000005</ele>
        <time>2025-05-15T11:00:44Z</time>
      </trkpt>
      <trkpt lat="42.370289023965597" lon="2.522851014509797">
        <ele>781.21000000000004</ele>
        <time>2025-05-15T11:00:45Z</time>
      </trkpt>
      <trkpt lat="42.370379967615008" lon="2.522911028936505">
        <ele>780.25</ele>
        <time>2025-05-15T11:00:46Z</time>
      </trkpt>
      <trkpt lat="42.370491027832031" lon="2.522984035313129">
        <ele>779.28999999999996</ele>
        <time>2025-05-15T11:00:47Z</time>
      </trkpt>
      <trkpt lat="42.370617007836699" lon="2.523067016154528">
        <ele>778.32000000000005</ele>
        <time>2025-05-15T11:00:48Z</time>
      </trkpt>
      <trkpt lat="42.371323015540838" lon="2.523533971980214">
        <ele>774.48000000000002</ele>
        <time>2025-05-15T11:00:53Z</time>
      </trkpt>
      <trkpt lat="42.371413959190249" lon="2.523593986406922">
        <ele>773.03999999999996</ele>
        <time>2025-05-15T11:00:54Z</time>
      </trkpt>
      <trkpt lat="42.371565001085401" lon="2.523758020251989">
        <ele>772.55999999999995</ele>
        <time>2025-05-15T11:00:55Z</time>
      </trkpt>
      <trkpt lat="42.371886027976871" lon="2.524108970537782">
        <ele>770.14999999999998</ele>
        <time>2025-05-15T11:00:58Z</time>
      </trkpt>
      <trkpt lat="42.371959034353495" lon="2.524283984676004">
        <ele>769.66999999999996</ele>
        <time>2025-05-15T11:00:59Z</time>
      </trkpt>
      <trkpt lat="42.372171012684703" lon="2.524792011827231">
        <ele>769.19000000000005</ele>
        <time>2025-05-15T11:01:02Z</time>
      </trkpt>
      <trkpt lat="42.372262040153146" lon="2.524974988773465">
        <ele>768.71000000000004</ele>
        <time>2025-05-15T11:01:03Z</time>
      </trkpt>
      <trkpt lat="42.372354995459318" lon="2.525137010961771">
        <ele>768.23000000000002</ele>
        <time>2025-05-15T11:01:04Z</time>
      </trkpt>
      <trkpt lat="42.37244501709938" lon="2.525292998179793">
        <ele>767.75</ele>
        <time>2025-05-15T11:01:05Z</time>
      </trkpt>
      <trkpt lat="42.372526992112398" lon="2.52543699927628">
        <ele>766.78999999999996</ele>
        <time>2025-05-15T11:01:06Z</time>
      </trkpt>
      <trkpt lat="42.372605027630925" lon="2.525572031736374">
        <ele>766.30999999999995</ele>
        <time>2025-05-15T11:01:07Z</time>
      </trkpt>
      <trkpt lat="42.37270200625062" lon="2.525740005075932">
        <ele>765.83000000000004</ele>
        <time>2025-05-15T11:01:08Z</time>
      </trkpt>
      <trkpt lat="42.372717009857297" lon="2.52582298591733">
        <ele>765.83000000000004</ele>
        <time>2025-05-15T11:01:09Z</time>
      </trkpt>
      <trkpt lat="42.372748022899032" lon="2.525992970913649">
        <ele>765.83000000000004</ele>
        <time>2025-05-15T11:01:10Z</time>
      </trkpt>
      <trkpt lat="42.372826980426908" lon="2.526478031650186">
        <ele>764.87</ele>
        <time>2025-05-15T11:01:13Z</time>
      </trkpt>
      <trkpt lat="42.372808959335089" lon="2.526662014424801">
        <ele>763.89999999999998</ele>
        <time>2025-05-15T11:01:14Z</time>
      </trkpt>
      <trkpt lat="42.372821029275656" lon="2.526714988052845">
        <ele>763.41999999999996</ele>
        <time>2025-05-15T11:01:15Z</time>
      </trkpt>
      <trkpt lat="42.372843995690346" lon="2.526810960844159">
        <ele>762.94000000000005</ele>
        <time>2025-05-15T11:01:16Z</time>
      </trkpt>
      <trkpt lat="42.372936028987169" lon="2.527036014944315">
        <ele>761.98000000000002</ele>
        <time>2025-05-15T11:01:17Z</time>
      </trkpt>
      <trkpt lat="42.373087992891669" lon="2.52706996165216">
        <ele>761.5</ele>
        <time>2025-05-15T11:01:18Z</time>
      </trkpt>
      <trkpt lat="42.373172985389829" lon="2.527059987187386">
        <ele>760.53999999999996</ele>
        <time>2025-05-15T11:01:19Z</time>
      </trkpt>
      <trkpt lat="42.373297959566116" lon="2.527043977752328">
        <ele>760.05999999999995</ele>
        <time>2025-05-15T11:01:20Z</time>
      </trkpt>
      <trkpt lat="42.373581016436219" lon="2.527008019387722">
        <ele>758.13999999999999</ele>
        <time>2025-05-15T11:01:22Z</time>
      </trkpt>
      <trkpt lat="42.373729040846229" lon="2.526989998295903">
        <ele>758.13999999999999</ele>
        <time>2025-05-15T11:01:23Z</time>
      </trkpt>
      <trkpt lat="42.374053001403809" lon="2.526814984157682">
        <ele>758.62</ele>
        <time>2025-05-15T11:01:25Z</time>
      </trkpt>
      <trkpt lat="42.374960007146001" lon="2.526581967249513">
        <ele>754.76999999999998</ele>
        <time>2025-05-15T11:01:31Z</time>
      </trkpt>
      <trkpt lat="42.375040976330638" lon="2.52659797668457">
        <ele>753.80999999999995</ele>
        <time>2025-05-15T11:01:32Z</time>
      </trkpt>
      <trkpt lat="42.37519696354866" lon="2.526694033294916">
        <ele>752.85000000000002</ele>
        <time>2025-05-15T11:01:33Z</time>
      </trkpt>
      <trkpt lat="42.375327972695231" lon="2.526772990822792">
        <ele>751.88999999999999</ele>
        <time>2025-05-15T11:01:34Z</time>
      </trkpt>
      <trkpt lat="42.375434003770351" lon="2.526843985542655">
        <ele>750.92999999999995</ele>
        <time>2025-05-15T11:01:35Z</time>
      </trkpt>
      <trkpt lat="42.375542968511581" lon="2.526988992467523">
        <ele>749.97000000000003</ele>
        <time>2025-05-15T11:01:36Z</time>
      </trkpt>
      <trkpt lat="42.375637013465166" lon="2.527137016877532">
        <ele>749</ele>
        <time>2025-05-15T11:01:37Z</time>
      </trkpt>
      <trkpt lat="42.375697027891874" lon="2.527303984388709">
        <ele>748.51999999999998</ele>
        <time>2025-05-15T11:01:38Z</time>
      </trkpt>
      <trkpt lat="42.375791994854808" lon="2.52756399102509">
        <ele>748.51999999999998</ele>
        <time>2025-05-15T11:01:39Z</time>
      </trkpt>
      <trkpt lat="42.37581797875464" lon="2.527589974924922">
        <ele>748.51999999999998</ele>
        <time>2025-05-15T11:01:40Z</time>
      </trkpt>
      <trkpt lat="42.375942030921578" lon="2.527714027091861">
        <ele>749</ele>
        <time>2025-05-15T11:01:41Z</time>
      </trkpt>
      <trkpt lat="42.376030962914228" lon="2.527737999334931">
        <ele>749.49000000000001</ele>
        <time>2025-05-15T11:01:42Z</time>
      </trkpt>
      <trkpt lat="42.376177981495857" lon="2.52777798101306">
        <ele>749.97000000000003</ele>
        <time>2025-05-15T11:01:43Z</time>
      </trkpt>
      <trkpt lat="42.376252999529243" lon="2.527732970193029">
        <ele>751.40999999999997</ele>
        <time>2025-05-15T11:01:44Z</time>
      </trkpt>
      <trkpt lat="42.376284012570977" lon="2.527662981301546">
        <ele>752.85000000000002</ele>
        <time>2025-05-15T11:01:45Z</time>
      </trkpt>
      <trkpt lat="42.376317959278822" lon="2.527587041258812">
        <ele>754.28999999999996</ele>
        <time>2025-05-15T11:01:46Z</time>
      </trkpt>
      <trkpt lat="42.376363975927234" lon="2.527485033497214">
        <ele>755.25</ele>
        <time>2025-05-15T11:01:47Z</time>
      </trkpt>
      <trkpt lat="42.376434970647097" lon="2.527328040450811">
        <ele>755.73000000000002</ele>
        <time>2025-05-15T11:01:48Z</time>
      </trkpt>
      <trkpt lat="42.376509988680482" lon="2.527281017974019">
        <ele>756.21000000000004</ele>
        <time>2025-05-15T11:01:49Z</time>
      </trkpt>
      <trkpt lat="42.376714004203677" lon="2.527285041287541">
        <ele>758.13999999999999</ele>
        <time>2025-05-15T11:01:52Z</time>
      </trkpt>
      <trkpt lat="42.376782987266779" lon="2.527386965230107">
        <ele>759.10000000000002</ele>
        <time>2025-05-15T11:01:53Z</time>
      </trkpt>
      <trkpt lat="42.376835960894823" lon="2.527467012405396">
        <ele>759.58000000000004</ele>
        <time>2025-05-15T11:01:54Z</time>
      </trkpt>
      <trkpt lat="42.376906033605337" lon="2.527572037652135">
        <ele>761.01999999999998</ele>
        <time>2025-05-15T11:01:55Z</time>
      </trkpt>
      <trkpt lat="42.377014998346567" lon="2.52773498184979">
        <ele>761.98000000000002</ele>
        <time>2025-05-15T11:01:56Z</time>
      </trkpt>
      <trkpt lat="42.377051040530205" lon="2.527720984071493">
        <ele>762.94000000000005</ele>
        <time>2025-05-15T11:01:57Z</time>
      </trkpt>
      <trkpt lat="42.377122035250068" lon="2.52769198268652">
        <ele>763.41999999999996</ele>
        <time>2025-05-15T11:01:58Z</time>
      </trkpt>
      <trkpt lat="42.377180038020015" lon="2.527644960209727">
        <ele>763.41999999999996</ele>
        <time>2025-05-15T11:01:59Z</time>
      </trkpt>
      <trkpt lat="42.377362009137869" lon="2.52749701961875">
        <ele>763.89999999999998</ele>
        <time>2025-05-15T11:02:01Z</time>
      </trkpt>
      <trkpt lat="42.377505004405975" lon="2.527430970221758">
        <ele>763.41999999999996</ele>
        <time>2025-05-15T11:02:02Z</time>
      </trkpt>
      <trkpt lat="42.37760198302567" lon="2.527473969385028">
        <ele>763.41999999999996</ele>
        <time>2025-05-15T11:02:03Z</time>
      </trkpt>
      <trkpt lat="42.377696027979255" lon="2.527515962719917">
        <ele>763.41999999999996</ele>
        <time>2025-05-15T11:02:04Z</time>
      </trkpt>
      <trkpt lat="42.377789989113808" lon="2.527558039873838">
        <ele>763.41999999999996</ele>
        <time>2025-05-15T11:02:05Z</time>
      </trkpt>
      <trkpt lat="42.377860983833671" lon="2.527585029602051">
        <ele>763.89999999999998</ele>
        <time>2025-05-15T11:02:06Z</time>
      </trkpt>
      <trkpt lat="42.377980006858706" lon="2.527585029602051">
        <ele>764.38999999999999</ele>
        <time>2025-05-15T11:02:07Z</time>
      </trkpt>
      <trkpt lat="42.378022000193596" lon="2.527560973539949">
        <ele>764.87</ele>
        <time>2025-05-15T11:02:08Z</time>
      </trkpt>
      <trkpt lat="42.378139011561871" lon="2.527486961334944">
        <ele>765.35000000000002</ele>
        <time>2025-05-15T11:02:09Z</time>
      </trkpt>
      <trkpt lat="42.378343027085066" lon="2.527188984677196">
        <ele>766.30999999999995</ele>
        <time>2025-05-15T11:02:11Z</time>
      </trkpt>
      <trkpt lat="42.378592975437641" lon="2.52693903632462">
        <ele>767.75</ele>
        <time>2025-05-15T11:02:13Z</time>
      </trkpt>
      <trkpt lat="42.378734964877367" lon="2.526847003027797">
        <ele>768.23000000000002</ele>
        <time>2025-05-15T11:02:14Z</time>
      </trkpt>
      <trkpt lat="42.378871003165841" lon="2.526786988601089">
        <ele>769.19000000000005</ele>
        <time>2025-05-15T11:02:15Z</time>
      </trkpt>
      <trkpt lat="42.379711037501693" lon="2.52648901194334">
        <ele>772.55999999999995</ele>
        <time>2025-05-15T11:02:21Z</time>
      </trkpt>
      <trkpt lat="42.379865013062954" lon="2.526448024436832">
        <ele>773.03999999999996</ele>
        <time>2025-05-15T11:02:22Z</time>
      </trkpt>
      <trkpt lat="42.380033992230892" lon="2.526459004729986">
        <ele>773.51999999999998</ele>
        <time>2025-05-15T11:02:23Z</time>
      </trkpt>
      <trkpt lat="42.380176987498999" lon="2.526504015550017">
        <ele>774</ele>
        <time>2025-05-15T11:02:24Z</time>
      </trkpt>
      <trkpt lat="42.380346972495317" lon="2.526559000834823">
        <ele>774.96000000000004</ele>
        <time>2025-05-15T11:02:25Z</time>
      </trkpt>
      <trkpt lat="42.380493991076946" lon="2.526653967797756">
        <ele>775.91999999999996</ele>
        <time>2025-05-15T11:02:26Z</time>
      </trkpt>
      <trkpt lat="42.380635980516672" lon="2.526744995266199">
        <ele>776.88</ele>
        <time>2025-05-15T11:02:27Z</time>
      </trkpt>
      <trkpt lat="42.380772018805146" lon="2.5268330052495">
        <ele>777.36000000000001</ele>
        <time>2025-05-15T11:02:28Z</time>
      </trkpt>
      <trkpt lat="42.380908979102969" lon="2.526921015232801">
        <ele>778.32000000000005</ele>
        <time>2025-05-15T11:02:29Z</time>
      </trkpt>
      <trkpt lat="42.381049962714314" lon="2.527011958882213">
        <ele>778.80999999999995</ele>
        <time>2025-05-15T11:02:30Z</time>
      </trkpt>
      <trkpt lat="42.381198992952704" lon="2.527108015492559">
        <ele>779.28999999999996</ele>
        <time>2025-05-15T11:02:31Z</time>
      </trkpt>
      <trkpt lat="42.381349029019475" lon="2.527203988283873">
        <ele>779.76999999999998</ele>
        <time>2025-05-15T11:02:32Z</time>
      </trkpt>
      <trkpt lat="42.381497975438833" lon="2.527299961075187">
        <ele>780.25</ele>
        <time>2025-05-15T11:02:33Z</time>
      </trkpt>
      <trkpt lat="42.381642982363701" lon="2.527374979108572">
        <ele>780.25</ele>
        <time>2025-05-15T11:02:34Z</time>
      </trkpt>
      <trkpt lat="42.381952023133636" lon="2.527414038777351">
        <ele>780.73000000000002</ele>
        <time>2025-05-15T11:02:36Z</time>
      </trkpt>
      <trkpt lat="42.38211203366518" lon="2.52743499353528">
        <ele>780.73000000000002</ele>
        <time>2025-05-15T11:02:37Z</time>
      </trkpt>
      <trkpt lat="42.382968999445438" lon="2.527560973539949">
        <ele>780.25</ele>
        <time>2025-05-15T11:02:43Z</time>
      </trkpt>
      <trkpt lat="42.383078970015049" lon="2.527632974088192">
        <ele>779.76999999999998</ele>
        <time>2025-05-15T11:02:44Z</time>
      </trkpt>
      <trkpt lat="42.383345011621714" lon="2.527843024581671">
        <ele>780.25</ele>
        <time>2025-05-15T11:02:47Z</time>
      </trkpt>
      <trkpt lat="42.383389016613364" lon="2.527941009029746">
        <ele>781.69000000000005</ele>
        <time>2025-05-15T11:02:48Z</time>
      </trkpt>
      <trkpt lat="42.383427992463112" lon="2.528029019013047">
        <ele>781.69000000000005</ele>
        <time>2025-05-15T11:02:49Z</time>
      </trkpt>
      <trkpt lat="42.38342204131186" lon="2.52807998098433">
        <ele>781.69000000000005</ele>
        <time>2025-05-15T11:02:50Z</time>
      </trkpt>
      <trkpt lat="42.383392034098506" lon="2.528230017051101">
        <ele>782.64999999999998</ele>
        <time>2025-05-15T11:02:51Z</time>
      </trkpt>
      <trkpt lat="42.383353980258107" lon="2.528419028967619">
        <ele>783.61000000000001</ele>
        <time>2025-05-15T11:02:52Z</time>
      </trkpt>
      <trkpt lat="42.383277034386992" lon="2.528800992295146">
        <ele>784.57000000000005</ele>
        <time>2025-05-15T11:02:54Z</time>
      </trkpt>
      <trkpt lat="42.383237974718213" lon="2.528997967019677">
        <ele>785.04999999999995</ele>
        <time>2025-05-15T11:02:55Z</time>
      </trkpt>
      <trkpt lat="42.383236968889832" lon="2.529198965057731">
        <ele>785.52999999999997</ele>
        <time>2025-05-15T11:02:56Z</time>
      </trkpt>
      <trkpt lat="42.383236968889832" lon="2.529387976974249">
        <ele>785.52999999999997</ele>
        <time>2025-05-15T11:02:57Z</time>
      </trkpt>
      <trkpt lat="42.383236968889832" lon="2.529549999162555">
        <ele>785.52999999999997</ele>
        <time>2025-05-15T11:02:58Z</time>
      </trkpt>
      <trkpt lat="42.383236968889832" lon="2.529709003865719">
        <ele>786.01999999999998</ele>
        <time>2025-05-15T11:02:59Z</time>
      </trkpt>
      <trkpt lat="42.383269993588328" lon="2.529798019677401">
        <ele>786.01999999999998</ele>
        <time>2025-05-15T11:03:00Z</time>
      </trkpt>
      <trkpt lat="42.38337803632021" lon="2.529891980811954">
        <ele>786.5</ele>
        <time>2025-05-15T11:03:01Z</time>
      </trkpt>
      <trkpt lat="42.383494041860104" lon="2.529908996075392">
        <ele>786.5</ele>
        <time>2025-05-15T11:03:02Z</time>
      </trkpt>
      <trkpt lat="42.383620021864772" lon="2.529928022995591">
        <ele>786.5</ele>
        <time>2025-05-15T11:03:03Z</time>
      </trkpt>
      <trkpt lat="42.383750025182962" lon="2.529946966096759">
        <ele>786.5</ele>
        <time>2025-05-15T11:03:04Z</time>
      </trkpt>
      <trkpt lat="42.383881034329534" lon="2.529966998845339">
        <ele>786.5</ele>
        <time>2025-05-15T11:03:05Z</time>
      </trkpt>
      <trkpt lat="42.384005002677441" lon="2.530021984130144">
        <ele>786.01999999999998</ele>
        <time>2025-05-15T11:03:06Z</time>
      </trkpt>
      <trkpt lat="42.384129976853728" lon="2.530110999941826">
        <ele>785.52999999999997</ele>
        <time>2025-05-15T11:03:07Z</time>
      </trkpt>
      <trkpt lat="42.3842419590801" lon="2.530231028795242">
        <ele>785.52999999999997</ele>
        <time>2025-05-15T11:03:08Z</time>
      </trkpt>
      <trkpt lat="42.384345978498459" lon="2.530340999364853">
        <ele>785.04999999999995</ele>
        <time>2025-05-15T11:03:09Z</time>
      </trkpt>
      <trkpt lat="42.384440023452044" lon="2.530460022389889">
        <ele>784.57000000000005</ele>
        <time>2025-05-15T11:03:10Z</time>
      </trkpt>
      <trkpt lat="42.384524010121822" lon="2.530620032921433">
        <ele>784.57000000000005</ele>
        <time>2025-05-15T11:03:11Z</time>
      </trkpt>
      <trkpt lat="42.384615959599614" lon="2.530793035402894">
        <ele>784.57000000000005</ele>
        <time>2025-05-15T11:03:12Z</time>
      </trkpt>
      <trkpt lat="42.385062966495752" lon="2.53166601061821">
        <ele>784.57000000000005</ele>
        <time>2025-05-15T11:03:17Z</time>
      </trkpt>
      <trkpt lat="42.385168997570872" lon="2.531876983121038">
        <ele>785.04999999999995</ele>
        <time>2025-05-15T11:03:18Z</time>
      </trkpt>
      <trkpt lat="42.385168997570872" lon="2.532055014744401">
        <ele>784.57000000000005</ele>
        <time>2025-05-15T11:03:19Z</time>
      </trkpt>
      <trkpt lat="42.385168997570872" lon="2.532271016389132">
        <ele>784.57000000000005</ele>
        <time>2025-05-15T11:03:20Z</time>
      </trkpt>
      <trkpt lat="42.385168997570872" lon="2.532480983063579">
        <ele>784.57000000000005</ele>
        <time>2025-05-15T11:03:21Z</time>
      </trkpt>
      <trkpt lat="42.385168997570872" lon="2.532692961394787">
        <ele>785.04999999999995</ele>
        <time>2025-05-15T11:03:22Z</time>
      </trkpt>
      <trkpt lat="42.385168997570872" lon="2.53289395943284">
        <ele>784.57000000000005</ele>
        <time>2025-05-15T11:03:23Z</time>
      </trkpt>
      <trkpt lat="42.385168997570872" lon="2.533240970224142">
        <ele>784.57000000000005</ele>
        <time>2025-05-15T11:03:25Z</time>
      </trkpt>
      <trkpt lat="42.385236974805593" lon="2.533391006290913">
        <ele>784.09000000000003</ele>
        <time>2025-05-15T11:03:26Z</time>
      </trkpt>
      <trkpt lat="42.385325990617275" lon="2.533491002395749">
        <ele>784.09000000000003</ele>
        <time>2025-05-15T11:03:27Z</time>
      </trkpt>
      <trkpt lat="42.385430010035634" lon="2.533592004328966">
        <ele>784.09000000000003</ele>
        <time>2025-05-15T11:03:28Z</time>
      </trkpt>
      <trkpt lat="42.385538974776864" lon="2.533696023747325">
        <ele>784.09000000000003</ele>
        <time>2025-05-15T11:03:29Z</time>
      </trkpt>
      <trkpt lat="42.385652968659997" lon="2.533807000145316">
        <ele>784.09000000000003</ele>
        <time>2025-05-15T11:03:30Z</time>
      </trkpt>
      <trkpt lat="42.385766040533781" lon="2.533915964886546">
        <ele>783.61000000000001</ele>
        <time>2025-05-15T11:03:31Z</time>
      </trkpt>
      <trkpt lat="42.38587399944663" lon="2.534019984304905">
        <ele>783.61000000000001</ele>
        <time>2025-05-15T11:03:32Z</time>
      </trkpt>
      <trkpt lat="42.385952034965158" lon="2.534146970137954">
        <ele>783.61000000000001</ele>
        <time>2025-05-15T11:03:33Z</time>
      </trkpt>
      <trkpt lat="42.386019006371498" lon="2.534274039790034">
        <ele>783.61000000000001</ele>
        <time>2025-05-15T11:03:34Z</time>
      </trkpt>
      <trkpt lat="42.386082038283348" lon="2.5343949906528">
        <ele>783.13</ele>
        <time>2025-05-15T11:03:35Z</time>
      </trkpt>
      <trkpt lat="42.386137023568153" lon="2.534532034769654">
        <ele>782.64999999999998</ele>
        <time>2025-05-15T11:03:36Z</time>
      </trkpt>
      <trkpt lat="42.386150015518069" lon="2.534686010330916">
        <ele>782.64999999999998</ele>
        <time>2025-05-15T11:03:37Z</time>
      </trkpt>
      <trkpt lat="42.386165019124746" lon="2.534863036125898">
        <ele>782.64999999999998</ele>
        <time>2025-05-15T11:03:38Z</time>
      </trkpt>
      <trkpt lat="42.386165019124746" lon="2.535071996971965">
        <ele>783.13</ele>
        <time>2025-05-15T11:03:39Z</time>
      </trkpt>
      <trkpt lat="42.386133000254631" lon="2.535246005281806">
        <ele>783.13</ele>
        <time>2025-05-15T11:03:40Z</time>
      </trkpt>
      <trkpt lat="42.386100981384516" lon="2.535412972792983">
        <ele>784.09000000000003</ele>
        <time>2025-05-15T11:03:41Z</time>
      </trkpt>
      <trkpt lat="42.386070974171162" lon="2.535574994981289">
        <ele>784.09000000000003</ele>
        <time>2025-05-15T11:03:42Z</time>
      </trkpt>
      <trkpt lat="42.386018000543118" lon="2.535746991634369">
        <ele>784.09000000000003</ele>
        <time>2025-05-15T11:03:43Z</time>
      </trkpt>
      <trkpt lat="42.385948011651635" lon="2.535864003002644">
        <ele>784.57000000000005</ele>
        <time>2025-05-15T11:03:44Z</time>
      </trkpt>
      <trkpt lat="42.385869976133108" lon="2.535993000492454">
        <ele>785.04999999999995</ele>
        <time>2025-05-15T11:03:45Z</time>
      </trkpt>
      <trkpt lat="42.385625978931785" lon="2.536400025710464">
        <ele>785.52999999999997</ele>
        <time>2025-05-15T11:03:48Z</time>
      </trkpt>
      <trkpt lat="42.385476026684046" lon="2.536648968234658">
        <ele>785.04999999999995</ele>
        <time>2025-05-15T11:03:50Z</time>
      </trkpt>
      <trkpt lat="42.385434033349156" lon="2.536781989037991">
        <ele>784.57000000000005</ele>
        <time>2025-05-15T11:03:51Z</time>
      </trkpt>
      <trkpt lat="42.385393967851996" lon="2.536917021498084">
        <ele>783.61000000000001</ele>
        <time>2025-05-15T11:03:52Z</time>
      </trkpt>
      <trkpt lat="42.385362032800913" lon="2.537025986239314">
        <ele>783.13</ele>
        <time>2025-05-15T11:03:53Z</time>
      </trkpt>
      <trkpt lat="42.385398996993899" lon="2.537148026749492">
        <ele>782.16999999999996</ele>
        <time>2025-05-15T11:03:54Z</time>
      </trkpt>
      <trkpt lat="42.385438978672028" lon="2.537280041724443">
        <ele>781.69000000000005</ele>
        <time>2025-05-15T11:03:55Z</time>
      </trkpt>
      <trkpt lat="42.385478960350156" lon="2.537410967051983">
        <ele>781.21000000000004</ele>
        <time>2025-05-15T11:03:56Z</time>
      </trkpt>
      <trkpt lat="42.385511985048652" lon="2.537520015612245">
        <ele>780.73000000000002</ele>
        <time>2025-05-15T11:03:57Z</time>
      </trkpt>
      <trkpt lat="42.385541992262006" lon="2.537662005051971">
        <ele>780.25</ele>
        <time>2025-05-15T11:03:58Z</time>
      </trkpt>
      <trkpt lat="42.385576022788882" lon="2.537820003926754">
        <ele>779.76999999999998</ele>
        <time>2025-05-15T11:03:59Z</time>
      </trkpt>
      <trkpt lat="42.385532017797232" lon="2.537931986153126">
        <ele>779.28999999999996</ele>
        <time>2025-05-15T11:04:00Z</time>
      </trkpt>
      <trkpt lat="42.385466974228621" lon="2.538076993077993">
        <ele>779.28999999999996</ele>
        <time>2025-05-15T11:04:01Z</time>
      </trkpt>
      <trkpt lat="42.385380975902081" lon="2.538226023316383">
        <ele>779.28999999999996</ele>
        <time>2025-05-15T11:04:02Z</time>
      </trkpt>
      <trkpt lat="42.384714027866721" lon="2.539521027356386">
        <ele>778.80999999999995</ele>
        <time>2025-05-15T11:04:09Z</time>
      </trkpt>
      <trkpt lat="42.384552005678415" lon="2.539865020662546">
        <ele>778.32000000000005</ele>
        <time>2025-05-15T11:04:11Z</time>
      </trkpt>
      <trkpt lat="42.384447986260056" lon="2.540006004273891">
        <ele>777.84000000000003</ele>
        <time>2025-05-15T11:04:12Z</time>
      </trkpt>
      <trkpt lat="42.384342961013317" lon="2.540121003985405">
        <ele>777.36000000000001</ele>
        <time>2025-05-15T11:04:13Z</time>
      </trkpt>
      <trkpt lat="42.384273977950215" lon="2.54028202034533">
        <ele>777.36000000000001</ele>
        <time>2025-05-15T11:04:14Z</time>
      </trkpt>
      <trkpt lat="42.384254029020667" lon="2.540423003956676">
        <ele>776.88</ele>
        <time>2025-05-15T11:04:15Z</time>
      </trkpt>
      <trkpt lat="42.384267020970583" lon="2.540576979517937">
        <ele>775.91999999999996</ele>
        <time>2025-05-15T11:04:16Z</time>
      </trkpt>
      <trkpt lat="42.384305996820331" lon="2.540727015584707">
        <ele>775.44000000000005</ele>
        <time>2025-05-15T11:04:17Z</time>
      </trkpt>
      <trkpt lat="42.384398030117154" lon="2.540874034166336">
        <ele>774.96000000000004</ele>
        <time>2025-05-15T11:04:18Z</time>
      </trkpt>
      <trkpt lat="42.384518980979919" lon="2.541002025827766">
        <ele>774.48000000000002</ele>
        <time>2025-05-15T11:04:19Z</time>
      </trkpt>
      <trkpt lat="42.384655019268394" lon="2.541146026924253">
        <ele>774</ele>
        <time>2025-05-15T11:04:20Z</time>
      </trkpt>
      <trkpt lat="42.384954001754522" lon="2.541384994983673">
        <ele>773.03999999999996</ele>
        <time>2025-05-15T11:04:22Z</time>
      </trkpt>
      <trkpt lat="42.38511904142797" lon="2.541479961946607">
        <ele>772.55999999999995</ele>
        <time>2025-05-15T11:04:23Z</time>
      </trkpt>
      <trkpt lat="42.385285003110766" lon="2.541512986645103">
        <ele>772.08000000000004</ele>
        <time>2025-05-15T11:04:24Z</time>
      </trkpt>
      <trkpt lat="42.386010959744453" lon="2.54165799356997">
        <ele>769.19000000000005</ele>
        <time>2025-05-15T11:04:28Z</time>
      </trkpt>
      <trkpt lat="42.386354031041265" lon="2.541726976633072">
        <ele>767.26999999999998</ele>
        <time>2025-05-15T11:04:30Z</time>
      </trkpt>
      <trkpt lat="42.386456038802862" lon="2.541747009381652">
        <ele>766.30999999999995</ele>
        <time>2025-05-15T11:04:31Z</time>
      </trkpt>
      <trkpt lat="42.386642033234239" lon="2.541858991608024">
        <ele>765.35000000000002</ele>
        <time>2025-05-15T11:04:32Z</time>
      </trkpt>
      <trkpt lat="42.386885024607182" lon="2.542005004361272">
        <ele>764.38999999999999</ele>
        <time>2025-05-15T11:04:33Z</time>
      </trkpt>
      <trkpt lat="42.386888964101672" lon="2.542011961340904">
        <ele>763.41999999999996</ele>
        <time>2025-05-15T11:04:34Z</time>
      </trkpt>
      <trkpt lat="42.386975968256593" lon="2.542161997407675">
        <ele>762.46000000000004</ele>
        <time>2025-05-15T11:04:35Z</time>
      </trkpt>
      <trkpt lat="42.387071019038558" lon="2.542325025424361">
        <ele>761.01999999999998</ele>
        <time>2025-05-15T11:04:36Z</time>
      </trkpt>
      <trkpt lat="42.387164980173111" lon="2.542554019019008">
        <ele>760.05999999999995</ele>
        <time>2025-05-15T11:04:37Z</time>
      </trkpt>
      <trkpt lat="42.387305963784456" lon="2.543009994551539">
        <ele>758.13999999999999</ele>
        <time>2025-05-15T11:04:39Z</time>
      </trkpt>
      <trkpt lat="42.387370001524687" lon="2.543218033388257">
        <ele>757.65999999999997</ele>
        <time>2025-05-15T11:04:40Z</time>
      </trkpt>
      <trkpt lat="42.387414006516337" lon="2.543464964255691">
        <ele>757.17999999999995</ele>
        <time>2025-05-15T11:04:41Z</time>
      </trkpt>
      <trkpt lat="42.387434961274266" lon="2.543694041669369">
        <ele>756.21000000000004</ele>
        <time>2025-05-15T11:04:42Z</time>
      </trkpt>
      <trkpt lat="42.387443007901311" lon="2.543921023607254">
        <ele>755.25</ele>
        <time>2025-05-15T11:04:43Z</time>
      </trkpt>
      <trkpt lat="42.387444013729692" lon="2.544044991955161">
        <ele>754.76999999999998</ele>
        <time>2025-05-15T11:04:44Z</time>
      </trkpt>
      <trkpt lat="42.38750696182251" lon="2.544150017201901">
        <ele>753.80999999999995</ele>
        <time>2025-05-15T11:04:45Z</time>
      </trkpt>
      <trkpt lat="42.387584997341037" lon="2.544220006093383">
        <ele>753.33000000000004</ele>
        <time>2025-05-15T11:04:46Z</time>
      </trkpt>
      <trkpt lat="42.387722041457891" lon="2.54434397444129">
        <ele>753.33000000000004</ele>
        <time>2025-05-15T11:04:47Z</time>
      </trkpt>
      <trkpt lat="42.387837041169405" lon="2.544382028281689">
        <ele>752.85000000000002</ele>
        <time>2025-05-15T11:04:48Z</time>
      </trkpt>
      <trkpt lat="42.388299973681569" lon="2.54453600384295">
        <ele>751.88999999999999</ele>
        <time>2025-05-15T11:04:51Z</time>
      </trkpt>
      <trkpt lat="42.388479011133313" lon="2.544570034369826">
        <ele>751.88999999999999</ele>
        <time>2025-05-15T11:04:52Z</time>
      </trkpt>
      <trkpt lat="42.389195999130607" lon="2.544454028829932">
        <ele>751.88999999999999</ele>
        <time>2025-05-15T11:04:57Z</time>
      </trkpt>
      <trkpt lat="42.389307981356978" lon="2.544473977759481">
        <ele>752.37</ele>
        <time>2025-05-15T11:04:58Z</time>
      </trkpt>
      <trkpt lat="42.389407977461815" lon="2.544500967487693">
        <ele>752.37</ele>
        <time>2025-05-15T11:04:59Z</time>
      </trkpt>
      <trkpt lat="42.389508979395032" lon="2.544596018269658">
        <ele>752.37</ele>
        <time>2025-05-15T11:05:00Z</time>
      </trkpt>
      <trkpt lat="42.38954502157867" lon="2.544747982174158">
        <ele>752.85000000000002</ele>
        <time>2025-05-15T11:05:01Z</time>
      </trkpt>
      <trkpt lat="42.38956899382174" lon="2.544897012412548">
        <ele>752.85000000000002</ele>
        <time>2025-05-15T11:05:02Z</time>
      </trkpt>
      <trkpt lat="42.389595983549953" lon="2.545063979923725">
        <ele>753.33000000000004</ele>
        <time>2025-05-15T11:05:03Z</time>
      </trkpt>
      <trkpt lat="42.389623979106545" lon="2.545242011547089">
        <ele>753.33000000000004</ele>
        <time>2025-05-15T11:05:04Z</time>
      </trkpt>
      <trkpt lat="42.389620961621404" lon="2.545431023463607">
        <ele>752.85000000000002</ele>
        <time>2025-05-15T11:05:05Z</time>
      </trkpt>
      <trkpt lat="42.389600006863475" lon="2.545605031773448">
        <ele>752.85000000000002</ele>
        <time>2025-05-15T11:05:06Z</time>
      </trkpt>
      <trkpt lat="42.389561031013727" lon="2.545749032869935">
        <ele>752.85000000000002</ele>
        <time>2025-05-15T11:05:07Z</time>
      </trkpt>
      <trkpt lat="42.389496993273497" lon="2.545876018702984">
        <ele>753.33000000000004</ele>
        <time>2025-05-15T11:05:08Z</time>
      </trkpt>
      <trkpt lat="42.389419041574001" lon="2.545993030071259">
        <ele>753.33000000000004</ele>
        <time>2025-05-15T11:05:09Z</time>
      </trkpt>
      <trkpt lat="42.389346035197377" lon="2.546101994812489">
        <ele>752.85000000000002</ele>
        <time>2025-05-15T11:05:10Z</time>
      </trkpt>
      <trkpt lat="42.389221983030438" lon="2.546288995072246">
        <ele>751.88999999999999</ele>
        <time>2025-05-15T11:05:12Z</time>
      </trkpt>
      <trkpt lat="42.389174960553646" lon="2.546357978135347">
        <ele>751.40999999999997</ele>
        <time>2025-05-15T11:05:13Z</time>
      </trkpt>
      <trkpt lat="42.389130033552647" lon="2.546459985896945">
        <ele>750.92999999999995</ele>
        <time>2025-05-15T11:05:14Z</time>
      </trkpt>
      <trkpt lat="42.389184013009071" lon="2.54651396535337">
        <ele>749.97000000000003</ele>
        <time>2025-05-15T11:05:15Z</time>
      </trkpt>
      <trkpt lat="42.389298006892204" lon="2.546547995880246">
        <ele>749.49000000000001</ele>
        <time>2025-05-15T11:05:16Z</time>
      </trkpt>
      <trkpt lat="42.389418035745621" lon="2.546572973951697">
        <ele>749</ele>
        <time>2025-05-15T11:05:17Z</time>
      </trkpt>
      <trkpt lat="42.390204006806016" lon="2.546744970604777">
        <ele>745.63999999999999</ele>
        <time>2025-05-15T11:05:22Z</time>
      </trkpt>
      <trkpt lat="42.390735000371933" lon="2.546860976144671">
        <ele>741.78999999999996</ele>
        <time>2025-05-15T11:05:26Z</time>
      </trkpt>
      <trkpt lat="42.390842037275434" lon="2.546885032206774">
        <ele>740.83000000000004</ele>
        <time>2025-05-15T11:05:27Z</time>
      </trkpt>
      <trkpt lat="42.390912026166916" lon="2.546860976144671">
        <ele>740.35000000000002</ele>
        <time>2025-05-15T11:05:28Z</time>
      </trkpt>
      <trkpt lat="42.390949996188283" lon="2.546759974211454">
        <ele>740.35000000000002</ele>
        <time>2025-05-15T11:05:29Z</time>
      </trkpt>
      <trkpt lat="42.391000958159566" lon="2.546627037227154">
        <ele>739.87</ele>
        <time>2025-05-15T11:05:30Z</time>
      </trkpt>
      <trkpt lat="42.391058960929513" lon="2.546475995332003">
        <ele>739.38999999999999</ele>
        <time>2025-05-15T11:05:31Z</time>
      </trkpt>
      <trkpt lat="42.391121992841363" lon="2.546311039477587">
        <ele>738.42999999999995</ele>
        <time>2025-05-15T11:05:32Z</time>
      </trkpt>
      <trkpt lat="42.391192987561226" lon="2.546138959005475">
        <ele>737.95000000000005</ele>
        <time>2025-05-15T11:05:33Z</time>
      </trkpt>
      <trkpt lat="42.391531029716134" lon="2.545558009296656">
        <ele>735.07000000000005</ele>
        <time>2025-05-15T11:05:37Z</time>
      </trkpt>
      <trkpt lat="42.39163001999259" lon="2.545448960736394">
        <ele>734.58000000000004</ele>
        <time>2025-05-15T11:05:38Z</time>
      </trkpt>
      <trkpt lat="42.391726998612285" lon="2.545371009036899">
        <ele>734.10000000000002</ele>
        <time>2025-05-15T11:05:39Z</time>
      </trkpt>
      <trkpt lat="42.391876028850675" lon="2.545343013480306">
        <ele>734.10000000000002</ele>
        <time>2025-05-15T11:05:40Z</time>
      </trkpt>
      <trkpt lat="42.392007037997246" lon="2.545360028743744">
        <ele>733.62</ele>
        <time>2025-05-15T11:05:41Z</time>
      </trkpt>
      <trkpt lat="42.392150033265352" lon="2.545378971844912">
        <ele>733.13999999999999</ele>
        <time>2025-05-15T11:05:42Z</time>
      </trkpt>
      <trkpt lat="42.392308032140136" lon="2.545418031513691">
        <ele>732.65999999999997</ele>
        <time>2025-05-15T11:05:43Z</time>
      </trkpt>
      <trkpt lat="42.392442980781198" lon="2.545504029840231">
        <ele>731.70000000000005</ele>
        <time>2025-05-15T11:05:44Z</time>
      </trkpt>
      <trkpt lat="42.392562003806233" lon="2.545660017058253">
        <ele>731.22000000000003</ele>
        <time>2025-05-15T11:05:45Z</time>
      </trkpt>
      <trkpt lat="42.392638027667999" lon="2.545819021761417">
        <ele>730.25999999999999</ele>
        <time>2025-05-15T11:05:46Z</time>
      </trkpt>
      <trkpt lat="42.392718996852636" lon="2.545986995100975">
        <ele>729.77999999999997</ele>
        <time>2025-05-15T11:05:47Z</time>
      </trkpt>
      <trkpt lat="42.392799966037273" lon="2.546156980097294">
        <ele>729.29999999999995</ele>
        <time>2025-05-15T11:05:48Z</time>
      </trkpt>
      <trkpt lat="42.392885964363813" lon="2.546336017549038">
        <ele>729.29999999999995</ele>
        <time>2025-05-15T11:05:49Z</time>
      </trkpt>
      <trkpt lat="42.392974980175495" lon="2.546522011980414">
        <ele>728.82000000000005</ele>
        <time>2025-05-15T11:05:50Z</time>
      </trkpt>
      <trkpt lat="42.393061984330416" lon="2.54668302834034">
        <ele>728.34000000000003</ele>
        <time>2025-05-15T11:05:51Z</time>
      </trkpt>
      <trkpt lat="42.393148988485336" lon="2.546786963939667">
        <ele>728.34000000000003</ele>
        <time>2025-05-15T11:05:52Z</time>
      </trkpt>
      <trkpt lat="42.393248984590173" lon="2.546887965872884">
        <ele>727.86000000000001</ele>
        <time>2025-05-15T11:05:53Z</time>
      </trkpt>
      <trkpt lat="42.393330037593842" lon="2.546969018876553">
        <ele>727.86000000000001</ele>
        <time>2025-05-15T11:05:54Z</time>
      </trkpt>
      <trkpt lat="42.393407989293337" lon="2.547046970576048">
        <ele>727.37</ele>
        <time>2025-05-15T11:05:55Z</time>
      </trkpt>
      <trkpt lat="42.393468003720045" lon="2.546975975856185">
        <ele>727.37</ele>
        <time>2025-05-15T11:05:56Z</time>
      </trkpt>
      <trkpt lat="42.393530029803514" lon="2.54685896448791">
        <ele>727.37</ele>
        <time>2025-05-15T11:05:57Z</time>
      </trkpt>
      <trkpt lat="42.39356498233974" lon="2.546712029725313">
        <ele>726.88999999999999</ele>
        <time>2025-05-15T11:05:58Z</time>
      </trkpt>
      <trkpt lat="42.393601024523377" lon="2.546560987830162">
        <ele>726.40999999999997</ele>
        <time>2025-05-15T11:05:59Z</time>
      </trkpt>
      <trkpt lat="42.393755000084639" lon="2.546153040602803">
        <ele>725.45000000000005</ele>
        <time>2025-05-15T11:06:02Z</time>
      </trkpt>
      <trkpt lat="42.393794981762767" lon="2.546060001477599">
        <ele>725.45000000000005</ele>
        <time>2025-05-15T11:06:03Z</time>
      </trkpt>
      <trkpt lat="42.393889026716352" lon="2.546043992042542">
        <ele>724.97000000000003</ele>
        <time>2025-05-15T11:06:04Z</time>
      </trkpt>
      <trkpt lat="42.393966978415847" lon="2.546060001477599">
        <ele>724.49000000000001</ele>
        <time>2025-05-15T11:06:05Z</time>
      </trkpt>
      <trkpt lat="42.394087007269263" lon="2.546120015904307">
        <ele>724.49000000000001</ele>
        <time>2025-05-15T11:06:06Z</time>
      </trkpt>
      <trkpt lat="42.394212987273932" lon="2.546198973432183">
        <ele>724.49000000000001</ele>
        <time>2025-05-15T11:06:07Z</time>
      </trkpt>
      <trkpt lat="42.394349025562406" lon="2.546283965930343">
        <ele>724.00999999999999</ele>
        <time>2025-05-15T11:06:08Z</time>
      </trkpt>
      <trkpt lat="42.394506018608809" lon="2.54638203419745">
        <ele>724.00999999999999</ele>
        <time>2025-05-15T11:06:09Z</time>
      </trkpt>
      <trkpt lat="42.394658988341689" lon="2.546401983126998">
        <ele>724.00999999999999</ele>
        <time>2025-05-15T11:06:10Z</time>
      </trkpt>
      <trkpt lat="42.394798966124654" lon="2.546421010047197">
        <ele>723.52999999999997</ele>
        <time>2025-05-15T11:06:11Z</time>
      </trkpt>
      <trkpt lat="42.394925029948354" lon="2.546437019482255">
        <ele>723.04999999999995</ele>
        <time>2025-05-15T11:06:12Z</time>
      </trkpt>
      <trkpt lat="42.395043969154358" lon="2.54649099893868">
        <ele>722.09000000000003</ele>
        <time>2025-05-15T11:06:13Z</time>
      </trkpt>
      <trkpt lat="42.395163998007774" lon="2.54660096950829">
        <ele>721.13</ele>
        <time>2025-05-15T11:06:14Z</time>
      </trkpt>
      <trkpt lat="42.395295007154346" lon="2.546747988089919">
        <ele>719.67999999999995</ele>
        <time>2025-05-15T11:06:15Z</time>
      </trkpt>
      <trkpt lat="42.395385028794408" lon="2.546949991956353">
        <ele>718.24000000000001</ele>
        <time>2025-05-15T11:06:16Z</time>
      </trkpt>
      <trkpt lat="42.395449988543987" lon="2.547164987772703">
        <ele>716.79999999999995</ele>
        <time>2025-05-15T11:06:17Z</time>
      </trkpt>
      <trkpt lat="42.395510002970695" lon="2.547363974153996">
        <ele>715.84000000000003</ele>
        <time>2025-05-15T11:06:18Z</time>
      </trkpt>
      <trkpt lat="42.395549984648824" lon="2.547747027128935">
        <ele>713.91999999999996</ele>
        <time>2025-05-15T11:06:20Z</time>
      </trkpt>
      <trkpt lat="42.395575968548656" lon="2.547991024330258">
        <ele>712.95000000000005</ele>
        <time>2025-05-15T11:06:21Z</time>
      </trkpt>
      <trkpt lat="42.395542021840811" lon="2.548132007941604">
        <ele>711.99000000000001</ele>
        <time>2025-05-15T11:06:22Z</time>
      </trkpt>
      <trkpt lat="42.395382011309266" lon="2.548834998160601">
        <ele>708.14999999999998</ele>
        <time>2025-05-15T11:06:26Z</time>
      </trkpt>
      <trkpt lat="42.395382011309266" lon="2.548992997035384">
        <ele>707.19000000000005</ele>
        <time>2025-05-15T11:06:27Z</time>
      </trkpt>
      <trkpt lat="42.395417969673872" lon="2.549162982031703">
        <ele>706.23000000000002</ele>
        <time>2025-05-15T11:06:28Z</time>
      </trkpt>
      <trkpt lat="42.395572029054165" lon="2.54965097643435">
        <ele>703.34000000000003</ele>
        <time>2025-05-15T11:06:31Z</time>
      </trkpt>
      <trkpt lat="42.395559037104249" lon="2.549811992794275">
        <ele>702.86000000000001</ele>
        <time>2025-05-15T11:06:32Z</time>
      </trkpt>
      <trkpt lat="42.395537998527288" lon="2.549960017204285">
        <ele>702.38</ele>
        <time>2025-05-15T11:06:33Z</time>
      </trkpt>
      <trkpt lat="42.395505979657173" lon="2.550119021907449">
        <ele>701.41999999999996</ele>
        <time>2025-05-15T11:06:34Z</time>
      </trkpt>
      <trkpt lat="42.395472032949328" lon="2.550292024388909">
        <ele>700.94000000000005</ele>
        <time>2025-05-15T11:06:35Z</time>
      </trkpt>
      <trkpt lat="42.394964005798101" lon="2.551542017608881">
        <ele>697.09000000000003</ele>
        <time>2025-05-15T11:06:42Z</time>
      </trkpt>
      <trkpt lat="42.394953025504947" lon="2.551721977069974">
        <ele>696.13</ele>
        <time>2025-05-15T11:06:43Z</time>
      </trkpt>
      <trkpt lat="42.394970040768385" lon="2.551872013136745">
        <ele>695.16999999999996</ele>
        <time>2025-05-15T11:06:44Z</time>
      </trkpt>
      <trkpt lat="42.395001975819468" lon="2.551982989534736">
        <ele>694.69000000000005</ele>
        <time>2025-05-15T11:06:45Z</time>
      </trkpt>
      <trkpt lat="42.395031983032823" lon="2.552092038094997">
        <ele>694.69000000000005</ele>
        <time>2025-05-15T11:06:46Z</time>
      </trkpt>
      <trkpt lat="42.395061990246177" lon="2.552197985351086">
        <ele>694.21000000000004</ele>
        <time>2025-05-15T11:06:47Z</time>
      </trkpt>
      <trkpt lat="42.395091997459531" lon="2.552306028082967">
        <ele>694.21000000000004</ele>
        <time>2025-05-15T11:06:48Z</time>
      </trkpt>
      <trkpt lat="42.395147988572717" lon="2.552410969510675">
        <ele>694.21000000000004</ele>
        <time>2025-05-15T11:06:49Z</time>
      </trkpt>
      <trkpt lat="42.395212026312947" lon="2.552504008635879">
        <ele>693.73000000000002</ele>
        <time>2025-05-15T11:06:50Z</time>
      </trkpt>
      <trkpt lat="42.395278997719288" lon="2.552600987255573">
        <ele>693.73000000000002</ele>
        <time>2025-05-15T11:06:51Z</time>
      </trkpt>
      <trkpt lat="42.395372036844492" lon="2.552667036652565">
        <ele>693.73000000000002</ele>
        <time>2025-05-15T11:06:52Z</time>
      </trkpt>
      <trkpt lat="42.395465997979045" lon="2.552717998623848">
        <ele>693.73000000000002</ele>
        <time>2025-05-15T11:06:53Z</time>
      </trkpt>
      <trkpt lat="42.395559037104249" lon="2.552768960595131">
        <ele>693.73000000000002</ele>
        <time>2025-05-15T11:06:54Z</time>
      </trkpt>
      <trkpt lat="42.395647969096899" lon="2.552817994728684">
        <ele>693.73000000000002</ele>
        <time>2025-05-15T11:06:55Z</time>
      </trkpt>
      <trkpt lat="42.395737990736961" lon="2.552867028862238">
        <ele>693.73000000000002</ele>
        <time>2025-05-15T11:06:56Z</time>
      </trkpt>
      <trkpt lat="42.395833041518927" lon="2.552918996661902">
        <ele>693.73000000000002</ele>
        <time>2025-05-15T11:06:57Z</time>
      </trkpt>
      <trkpt lat="42.395921973511577" lon="2.552967024967074">
        <ele>693.73000000000002</ele>
        <time>2025-05-15T11:06:58Z</time>
      </trkpt>
      <trkpt lat="42.396000009030104" lon="2.553010024130344">
        <ele>693.73000000000002</ele>
        <time>2025-05-15T11:06:59Z</time>
      </trkpt>
      <trkpt lat="42.396069997921586" lon="2.553078001365066">
        <ele>693.73000000000002</ele>
        <time>2025-05-15T11:07:00Z</time>
      </trkpt>
      <trkpt lat="42.396138980984688" lon="2.55315100774169">
        <ele>693.73000000000002</ele>
        <time>2025-05-15T11:07:01Z</time>
      </trkpt>
      <trkpt lat="42.39620896987617" lon="2.553231976926327">
        <ele>693.25</ele>
        <time>2025-05-15T11:07:02Z</time>
      </trkpt>
      <trkpt lat="42.396497977897525" lon="2.553536994382739">
        <ele>692.28999999999996</ele>
        <time>2025-05-15T11:07:06Z</time>
      </trkpt>
      <trkpt lat="42.396578025072813" lon="2.553606983274221">
        <ele>692.28999999999996</ele>
        <time>2025-05-15T11:07:07Z</time>
      </trkpt>
      <trkpt lat="42.396669974550605" lon="2.553632967174053">
        <ele>692.28999999999996</ele>
        <time>2025-05-15T11:07:08Z</time>
      </trkpt>
      <trkpt lat="42.396759996190667" lon="2.553654005751014">
        <ele>692.28999999999996</ele>
        <time>2025-05-15T11:07:09Z</time>
      </trkpt>
      <trkpt lat="42.396849012002349" lon="2.553674960508943">
        <ele>692.28999999999996</ele>
        <time>2025-05-15T11:07:10Z</time>
      </trkpt>
      <trkpt lat="42.397788036614656" lon="2.553933039307594">
        <ele>687.96000000000004</ele>
        <time>2025-05-15T11:07:22Z</time>
      </trkpt>
      <trkpt lat="42.397844027727842" lon="2.553976960480213">
        <ele>687.48000000000002</ele>
        <time>2025-05-15T11:07:23Z</time>
      </trkpt>
      <trkpt lat="42.397902030497789" lon="2.554048039019108">
        <ele>687</ele>
        <time>2025-05-15T11:07:24Z</time>
      </trkpt>
      <trkpt lat="42.398129012435675" lon="2.554385997354984">
        <ele>687</ele>
        <time>2025-05-15T11:07:28Z</time>
      </trkpt>
      <trkpt lat="42.398245017975569" lon="2.554451962932944">
        <ele>686.51999999999998</ele>
        <time>2025-05-15T11:07:29Z</time>
      </trkpt>
      <trkpt lat="42.398329004645348" lon="2.554480964317918">
        <ele>686.51999999999998</ele>
        <time>2025-05-15T11:07:30Z</time>
      </trkpt>
      <trkpt lat="42.398422965779901" lon="2.554499991238117">
        <ele>686.03999999999996</ele>
        <time>2025-05-15T11:07:31Z</time>
      </trkpt>
      <trkpt lat="42.398508964106441" lon="2.554517006501555">
        <ele>685.08000000000004</ele>
        <time>2025-05-15T11:07:32Z</time>
      </trkpt>
      <trkpt lat="42.398600997403264" lon="2.554536033421755">
        <ele>684.60000000000002</ele>
        <time>2025-05-15T11:07:33Z</time>
      </trkpt>
      <trkpt lat="42.398666040971875" lon="2.554564028978348">
        <ele>683.63</ele>
        <time>2025-05-15T11:07:34Z</time>
      </trkpt>
      <trkpt lat="42.398752961307764" lon="2.554600993171334">
        <ele>683.14999999999998</ele>
        <time>2025-05-15T11:07:35Z</time>
      </trkpt>
      <trkpt lat="42.398838037624955" lon="2.554654972627759">
        <ele>682.19000000000005</ele>
        <time>2025-05-15T11:07:36Z</time>
      </trkpt>
      <trkpt lat="42.398933004587889" lon="2.554714987054467">
        <ele>681.23000000000002</ele>
        <time>2025-05-15T11:07:37Z</time>
      </trkpt>
      <trkpt lat="42.399033000692725" lon="2.554779024794698">
        <ele>680.75</ele>
        <time>2025-05-15T11:07:38Z</time>
      </trkpt>
      <trkpt lat="42.399135008454323" lon="2.554842978715897">
        <ele>679.78999999999996</ele>
        <time>2025-05-15T11:07:39Z</time>
      </trkpt>
      <trkpt lat="42.399523006752133" lon="2.555032996460795">
        <ele>677.87</ele>
        <time>2025-05-15T11:07:43Z</time>
      </trkpt>
      <trkpt lat="42.399615040048957" lon="2.555052023380995">
        <ele>677.38999999999999</ele>
        <time>2025-05-15T11:07:44Z</time>
      </trkpt>
      <trkpt lat="42.399706989526749" lon="2.555069960653782">
        <ele>677.38999999999999</ele>
        <time>2025-05-15T11:07:45Z</time>
      </trkpt>
      <trkpt lat="42.399998009204865" lon="2.555112037807703">
        <ele>676.90999999999997</ele>
        <time>2025-05-15T11:07:48Z</time>
      </trkpt>
      <trkpt lat="42.400077972561121" lon="2.555111031979322">
        <ele>676.90999999999997</ele>
        <time>2025-05-15T11:07:49Z</time>
      </trkpt>
      <trkpt lat="42.400175034999847" lon="2.555102985352278">
        <ele>676.41999999999996</ele>
        <time>2025-05-15T11:07:50Z</time>
      </trkpt>
      <trkpt lat="42.400295985862613" lon="2.555094016715884">
        <ele>675.94000000000005</ele>
        <time>2025-05-15T11:07:51Z</time>
      </trkpt>
      <trkpt lat="42.400363041087985" lon="2.555045988410711">
        <ele>675.46000000000004</ele>
        <time>2025-05-15T11:07:52Z</time>
      </trkpt>
      <trkpt lat="42.400532020255923" lon="2.554922020062804">
        <ele>674.01999999999998</ele>
        <time>2025-05-15T11:07:54Z</time>
      </trkpt>
      <trkpt lat="42.400658000260592" lon="2.55491103976965">
        <ele>673.05999999999995</ele>
        <time>2025-05-15T11:07:55Z</time>
      </trkpt>
      <trkpt lat="42.400767970830202" lon="2.554900981485844">
        <ele>672.10000000000002</ele>
        <time>2025-05-15T11:07:56Z</time>
      </trkpt>
      <trkpt lat="42.400843994691968" lon="2.554915985092521">
        <ele>671.62</ele>
        <time>2025-05-15T11:07:57Z</time>
      </trkpt>
      <trkpt lat="42.400923036038876" lon="2.554968958720565">
        <ele>671.13999999999999</ele>
        <time>2025-05-15T11:07:58Z</time>
      </trkpt>
      <trkpt lat="42.401004005223513" lon="2.555050011724234">
        <ele>670.17999999999995</ele>
        <time>2025-05-15T11:07:59Z</time>
      </trkpt>
      <trkpt lat="42.401067037135363" lon="2.555174985900521">
        <ele>669.70000000000005</ele>
        <time>2025-05-15T11:08:00Z</time>
      </trkpt>
      <trkpt lat="42.401137026026845" lon="2.555316975340247">
        <ele>669.22000000000003</ele>
        <time>2025-05-15T11:08:01Z</time>
      </trkpt>
      <trkpt lat="42.401177007704973" lon="2.555484026670456">
        <ele>668.73000000000002</ele>
        <time>2025-05-15T11:08:02Z</time>
      </trkpt>
      <trkpt lat="42.401208020746708" lon="2.555663986131549">
        <ele>668.25</ele>
        <time>2025-05-15T11:08:03Z</time>
      </trkpt>
      <trkpt lat="42.401266023516655" lon="2.556001022458077">
        <ele>666.80999999999995</ele>
        <time>2025-05-15T11:08:05Z</time>
      </trkpt>
      <trkpt lat="42.40132000297308" lon="2.556146029382944">
        <ele>665.85000000000002</ele>
        <time>2025-05-15T11:08:06Z</time>
      </trkpt>
      <trkpt lat="42.401404995471239" lon="2.556233033537865">
        <ele>665.37</ele>
        <time>2025-05-15T11:08:07Z</time>
      </trkpt>
      <trkpt lat="42.401507003232837" lon="2.556251976639032">
        <ele>664.88999999999999</ele>
        <time>2025-05-15T11:08:08Z</time>
      </trkpt>
      <trkpt lat="42.401623008772731" lon="2.556273015215993">
        <ele>663.92999999999995</ele>
        <time>2025-05-15T11:08:09Z</time>
      </trkpt>
      <trkpt lat="42.401744965463877" lon="2.556330012157559">
        <ele>662.49000000000001</ele>
        <time>2025-05-15T11:08:10Z</time>
      </trkpt>
      <trkpt lat="42.401887038722634" lon="2.5563969835639">
        <ele>661.03999999999996</ele>
        <time>2025-05-15T11:08:11Z</time>
      </trkpt>
      <trkpt lat="42.402721038088202" lon="2.556789005175233">
        <ele>653.83000000000004</ele>
        <time>2025-05-15T11:08:17Z</time>
      </trkpt>
      <trkpt lat="42.40280200727284" lon="2.556894030421972">
        <ele>652.87</ele>
        <time>2025-05-15T11:08:18Z</time>
      </trkpt>
      <trkpt lat="42.402878031134605" lon="2.556993020698428">
        <ele>652.38999999999999</ele>
        <time>2025-05-15T11:08:19Z</time>
      </trkpt>
      <trkpt lat="42.402938967570662" lon="2.557095028460026">
        <ele>651.90999999999997</ele>
        <time>2025-05-15T11:08:20Z</time>
      </trkpt>
      <trkpt lat="42.402957994490862" lon="2.557239029556513">
        <ele>651.42999999999995</ele>
        <time>2025-05-15T11:08:21Z</time>
      </trkpt>
      <trkpt lat="42.402978027239442" lon="2.557389987632632">
        <ele>650.95000000000005</ele>
        <time>2025-05-15T11:08:22Z</time>
      </trkpt>
      <trkpt lat="42.402946008369327" lon="2.557527031749487">
        <ele>650.47000000000003</ele>
        <time>2025-05-15T11:08:23Z</time>
      </trkpt>
      <trkpt lat="42.402906026691198" lon="2.557692993432283">
        <ele>649.99000000000001</ele>
        <time>2025-05-15T11:08:24Z</time>
      </trkpt>
      <trkpt lat="42.40278197452426" lon="2.558214012533426">
        <ele>648.54999999999995</ele>
        <time>2025-05-15T11:08:27Z</time>
      </trkpt>
      <trkpt lat="42.402718020603061" lon="2.558360025286675">
        <ele>648.07000000000005</ele>
        <time>2025-05-15T11:08:28Z</time>
      </trkpt>
      <trkpt lat="42.402635039761662" lon="2.558483993634582">
        <ele>647.59000000000003</ele>
        <time>2025-05-15T11:08:29Z</time>
      </trkpt>
      <trkpt lat="42.402525991201401" lon="2.55858801305294">
        <ele>647.10000000000002</ele>
        <time>2025-05-15T11:08:30Z</time>
      </trkpt>
      <trkpt lat="42.402402022853494" lon="2.558663031086326">
        <ele>647.10000000000002</ele>
        <time>2025-05-15T11:08:31Z</time>
      </trkpt>
      <trkpt lat="42.4022669903934" lon="2.558744000270963">
        <ele>646.62</ele>
        <time>2025-05-15T11:08:32Z</time>
      </trkpt>
      <trkpt lat="42.402126006782055" lon="2.558827986940742">
        <ele>646.62</ele>
        <time>2025-05-15T11:08:33Z</time>
      </trkpt>
      <trkpt lat="42.401988040655851" lon="2.558971988037229">
        <ele>646.13999999999999</ele>
        <time>2025-05-15T11:08:34Z</time>
      </trkpt>
      <trkpt lat="42.401801962405443" lon="2.559251021593809">
        <ele>645.65999999999997</ele>
        <time>2025-05-15T11:08:36Z</time>
      </trkpt>
      <trkpt lat="42.401702972128987" lon="2.559336014091969">
        <ele>645.17999999999995</ele>
        <time>2025-05-15T11:08:37Z</time>
      </trkpt>
      <trkpt lat="42.40160096436739" lon="2.559363003820181">
        <ele>644.70000000000005</ele>
        <time>2025-05-15T11:08:38Z</time>
      </trkpt>
      <trkpt lat="42.401447994634509" lon="2.559297038242221">
        <ele>643.74000000000001</ele>
        <time>2025-05-15T11:08:40Z</time>
      </trkpt>
      <trkpt lat="42.40138404071331" lon="2.559244986623526">
        <ele>642.77999999999997</ele>
        <time>2025-05-15T11:08:41Z</time>
      </trkpt>
      <trkpt lat="42.401317991316319" lon="2.559191007167101">
        <ele>641.82000000000005</ele>
        <time>2025-05-15T11:08:42Z</time>
      </trkpt>
      <trkpt lat="42.401224030181766" lon="2.559131998568773">
        <ele>640.38</ele>
        <time>2025-05-15T11:08:43Z</time>
      </trkpt>
      <trkpt lat="42.401057984679937" lon="2.55923199467361">
        <ele>639.40999999999997</ele>
        <time>2025-05-15T11:08:44Z</time>
      </trkpt>
      <trkpt lat="42.401038035750389" lon="2.559337019920349">
        <ele>637.97000000000003</ele>
        <time>2025-05-15T11:08:45Z</time>
      </trkpt>
      <trkpt lat="42.40108204074204" lon="2.559537012130022">
        <ele>637.00999999999999</ele>
        <time>2025-05-15T11:08:46Z</time>
      </trkpt>
      <trkpt lat="42.401136020198464" lon="2.559659974649549">
        <ele>636.04999999999995</ele>
        <time>2025-05-15T11:08:47Z</time>
      </trkpt>
      <trkpt lat="42.401196034625173" lon="2.559797018766403">
        <ele>635.09000000000003</ele>
        <time>2025-05-15T11:08:48Z</time>
      </trkpt>
      <trkpt lat="42.401243979111314" lon="2.559948982670903">
        <ele>634.61000000000001</ele>
        <time>2025-05-15T11:08:49Z</time>
      </trkpt>
      <trkpt lat="42.401254959404469" lon="2.560116034001112">
        <ele>633.64999999999998</ele>
        <time>2025-05-15T11:08:50Z</time>
      </trkpt>
      <trkpt lat="42.401244984939694" lon="2.560289958491921">
        <ele>633.16999999999996</ele>
        <time>2025-05-15T11:08:51Z</time>
      </trkpt>
      <trkpt lat="42.401206009089947" lon="2.560447035357356">
        <ele>632.20000000000005</ele>
        <time>2025-05-15T11:08:52Z</time>
      </trkpt>
      <trkpt lat="42.401168961077929" lon="2.560578966513276">
        <ele>631.24000000000001</ele>
        <time>2025-05-15T11:08:53Z</time>
      </trkpt>
      <trkpt lat="42.401116993278265" lon="2.560683991760016">
        <ele>630.27999999999997</ele>
        <time>2025-05-15T11:08:54Z</time>
      </trkpt>
      <trkpt lat="42.401036024093628" lon="2.560723973438144">
        <ele>629.32000000000005</ele>
        <time>2025-05-15T11:08:55Z</time>
      </trkpt>
      <trkpt lat="42.400971986353397" lon="2.560724979266524">
        <ele>628.84000000000003</ele>
        <time>2025-05-15T11:08:56Z</time>
      </trkpt>
      <trkpt lat="42.400899985805154" lon="2.560697989538312">
        <ele>627.88</ele>
        <time>2025-05-15T11:08:57Z</time>
      </trkpt>
      <trkpt lat="42.400811975821853" lon="2.5606519728899">
        <ele>627.39999999999998</ele>
        <time>2025-05-15T11:08:58Z</time>
      </trkpt>
      <trkpt lat="42.400743998587132" lon="2.560583995655179">
        <ele>626.91999999999996</ele>
        <time>2025-05-15T11:08:59Z</time>
      </trkpt>
      <trkpt lat="42.400664035230875" lon="2.560559017583728">
        <ele>625.96000000000004</ele>
        <time>2025-05-15T11:09:00Z</time>
      </trkpt>
      <trkpt lat="42.400573007762432" lon="2.560592964291573">
        <ele>625.47000000000003</ele>
        <time>2025-05-15T11:09:01Z</time>
      </trkpt>
      <trkpt lat="42.40050695836544" lon="2.560676028952003">
        <ele>624.99000000000001</ele>
        <time>2025-05-15T11:09:02Z</time>
      </trkpt>
      <trkpt lat="42.400467982515693" lon="2.56077996455133">
        <ele>624.02999999999997</ele>
        <time>2025-05-15T11:09:03Z</time>
      </trkpt>
      <trkpt lat="42.400477034971118" lon="2.560955984517932">
        <ele>623.07000000000005</ele>
        <time>2025-05-15T11:09:04Z</time>
      </trkpt>
      <trkpt lat="42.400487009435892" lon="2.561151031404734">
        <ele>622.11000000000001</ele>
        <time>2025-05-15T11:09:05Z</time>
      </trkpt>
      <trkpt lat="42.400466976687312" lon="2.561313975602388">
        <ele>620.66999999999996</ele>
        <time>2025-05-15T11:09:06Z</time>
      </trkpt>
      <trkpt lat="42.400437975302339" lon="2.561480021104217">
        <ele>619.23000000000002</ele>
        <time>2025-05-15T11:09:07Z</time>
      </trkpt>
      <trkpt lat="42.40039698779583" lon="2.561588985845447">
        <ele>617.77999999999997</ele>
        <time>2025-05-15T11:09:08Z</time>
      </trkpt>
      <trkpt lat="42.400316018611193" lon="2.561695016920567">
        <ele>616.34000000000003</ele>
        <time>2025-05-15T11:09:09Z</time>
      </trkpt>
      <trkpt lat="42.400233959779143" lon="2.561802975833416">
        <ele>614.41999999999996</ele>
        <time>2025-05-15T11:09:10Z</time>
      </trkpt>
      <trkpt lat="42.400059029459953" lon="2.562044961377978">
        <ele>611.53999999999996</ele>
        <time>2025-05-15T11:09:12Z</time>
      </trkpt>
      <trkpt lat="42.399980993941426" lon="2.562193991616368">
        <ele>610.09000000000003</ele>
        <time>2025-05-15T11:09:13Z</time>
      </trkpt>
      <trkpt lat="42.399905975908041" lon="2.562335981056094">
        <ele>608.16999999999996</ele>
        <time>2025-05-15T11:09:14Z</time>
      </trkpt>
      <trkpt lat="42.39981503225863" lon="2.562442012131214">
        <ele>606.73000000000002</ele>
        <time>2025-05-15T11:09:15Z</time>
      </trkpt>
      <trkpt lat="42.399738002568483" lon="2.56251803599298">
        <ele>604.80999999999995</ele>
        <time>2025-05-15T11:09:16Z</time>
      </trkpt>
      <trkpt lat="42.399592995643616" lon="2.562586013227701">
        <ele>602.88</ele>
        <time>2025-05-15T11:09:17Z</time>
      </trkpt>
      <trkpt lat="42.3989790212363" lon="2.56299396045506">
        <ele>590.87</ele>
        <time>2025-05-15T11:09:22Z</time>
      </trkpt>
      <trkpt lat="42.398862009868026" lon="2.563030002638698">
        <ele>588.46000000000004</ele>
        <time>2025-05-15T11:09:23Z</time>
      </trkpt>
      <trkpt lat="42.398715997114778" lon="2.563003012910485">
        <ele>586.53999999999996</ele>
        <time>2025-05-15T11:09:24Z</time>
      </trkpt>
      <trkpt lat="42.398555986583233" lon="2.562973005697131">
        <ele>584.62</ele>
        <time>2025-05-15T11:09:25Z</time>
      </trkpt>
      <trkpt lat="42.398397987708449" lon="2.562944004312158">
        <ele>583.17999999999995</ele>
        <time>2025-05-15T11:09:26Z</time>
      </trkpt>
      <trkpt lat="42.398102022707462" lon="2.562888013198972">
        <ele>580.76999999999998</ele>
        <time>2025-05-15T11:09:28Z</time>
      </trkpt>
      <trkpt lat="42.397835981100798" lon="2.562747029587627">
        <ele>578.85000000000002</ele>
        <time>2025-05-15T11:09:30Z</time>
      </trkpt>
      <trkpt lat="42.3977339733392" lon="2.5626499671489">
        <ele>577.88999999999999</ele>
        <time>2025-05-15T11:09:31Z</time>
      </trkpt>
      <trkpt lat="42.39764504134655" lon="2.562565980479121">
        <ele>577.40999999999997</ele>
        <time>2025-05-15T11:09:32Z</time>
      </trkpt>
      <trkpt lat="42.397571029141545" lon="2.562494985759258">
        <ele>576.45000000000005</ele>
        <time>2025-05-15T11:09:33Z</time>
      </trkpt>
      <trkpt lat="42.397525012493134" lon="2.562478976324201">
        <ele>575.00999999999999</ele>
        <time>2025-05-15T11:09:34Z</time>
      </trkpt>
      <trkpt lat="42.397399032488465" lon="2.562496997416019">
        <ele>574.52999999999997</ele>
        <time>2025-05-15T11:09:35Z</time>
      </trkpt>
      <trkpt lat="42.397334994748235" lon="2.56260403431952">
        <ele>573.55999999999995</ele>
        <time>2025-05-15T11:09:36Z</time>
      </trkpt>
      <trkpt lat="42.397334994748235" lon="2.562662959098816">
        <ele>573.08000000000004</ele>
        <time>2025-05-15T11:09:37Z</time>
      </trkpt>
      <trkpt lat="42.397334994748235" lon="2.56281903013587">
        <ele>572.60000000000002</ele>
        <time>2025-05-15T11:09:38Z</time>
      </trkpt>
      <trkpt lat="42.397420993074775" lon="2.562947021797299">
        <ele>572.60000000000002</ele>
        <time>2025-05-15T11:09:39Z</time>
      </trkpt>
      <trkpt lat="42.397500034421682" lon="2.562979040667415">
        <ele>571.63999999999999</ele>
        <time>2025-05-15T11:09:40Z</time>
      </trkpt>
      <trkpt lat="42.397631965577602" lon="2.562990020960569">
        <ele>571.63999999999999</ele>
        <time>2025-05-15T11:09:41Z</time>
      </trkpt>
      <trkpt lat="42.397757023572922" lon="2.562990020960569">
        <ele>571.15999999999997</ele>
        <time>2025-05-15T11:09:42Z</time>
      </trkpt>
      <trkpt lat="42.397889960557222" lon="2.562990020960569">
        <ele>570.67999999999995</ele>
        <time>2025-05-15T11:09:43Z</time>
      </trkpt>
      <trkpt lat="42.39799196831882" lon="2.56303695961833">
        <ele>570.20000000000005</ele>
        <time>2025-05-15T11:09:44Z</time>
      </trkpt>
      <trkpt lat="42.398105962201953" lon="2.563106026500464">
        <ele>570.20000000000005</ele>
        <time>2025-05-15T11:09:45Z</time>
      </trkpt>
      <trkpt lat="42.398202018812299" lon="2.563164029270411">
        <ele>569.72000000000003</ele>
        <time>2025-05-15T11:09:46Z</time>
      </trkpt>
      <trkpt lat="42.398276031017303" lon="2.563209040090442">
        <ele>569.72000000000003</ele>
        <time>2025-05-15T11:09:47Z</time>
      </trkpt>
      <trkpt lat="42.398388013243675" lon="2.563276011496782">
        <ele>569.72000000000003</ele>
        <time>2025-05-15T11:09:49Z</time>
      </trkpt>
      <trkpt lat="42.398491026833653" lon="2.563338959589601">
        <ele>569.24000000000001</ele>
        <time>2025-05-15T11:09:51Z</time>
      </trkpt>
      <trkpt lat="42.398793026804924" lon="2.563521014526486">
        <ele>567.79999999999995</ele>
        <time>2025-05-15T11:09:57Z</time>
      </trkpt>
      <trkpt lat="42.398880030959845" lon="2.563541969284415">
        <ele>567.79999999999995</ele>
        <time>2025-05-15T11:09:58Z</time>
      </trkpt>
      <trkpt lat="42.398986984044313" lon="2.563526965677738">
        <ele>567.79999999999995</ele>
        <time>2025-05-15T11:09:59Z</time>
      </trkpt>
      <trkpt lat="42.399005005136132" lon="2.563515985384584">
        <ele>567.79999999999995</ele>
        <time>2025-05-15T11:10:00Z</time>
      </trkpt>
      <trkpt lat="42.399045992642641" lon="2.563490001484752">
        <ele>567.79999999999995</ele>
        <time>2025-05-15T11:10:01Z</time>
      </trkpt>
      <trkpt lat="42.399083040654659" lon="2.563467035070062">
        <ele>568.27999999999997</ele>
        <time>2025-05-15T11:10:02Z</time>
      </trkpt>
      <trkpt lat="42.399115981534123" lon="2.563445996493101">
        <ele>567.79999999999995</ele>
        <time>2025-05-15T11:10:03Z</time>
      </trkpt>
      <trkpt lat="42.399149006232619" lon="2.563425963744521">
        <ele>567.79999999999995</ele>
        <time>2025-05-15T11:10:04Z</time>
      </trkpt>
      <trkpt lat="42.399178007617593" lon="2.563408026471734">
        <ele>567.32000000000005</ele>
        <time>2025-05-15T11:10:05Z</time>
      </trkpt>
      <trkpt lat="42.399192005395889" lon="2.563398974016309">
        <ele>566.35000000000002</ele>
        <time>2025-05-15T11:10:06Z</time>
      </trkpt>
      <trkpt lat="42.399245984852314" lon="2.563448008149862">
        <ele>565.87</ele>
        <time>2025-05-15T11:10:07Z</time>
      </trkpt>
      <trkpt lat="42.399235004559159" lon="2.56346401758492">
        <ele>565.38999999999999</ele>
        <time>2025-05-15T11:10:08Z</time>
      </trkpt>
      <trkpt lat="42.399223018437624" lon="2.563483966514468">
        <ele>565.38999999999999</ele>
        <time>2025-05-15T11:10:09Z</time>
      </trkpt>
      <trkpt lat="42.39919301122427" lon="2.563509028404951">
        <ele>564.90999999999997</ele>
        <time>2025-05-15T11:10:10Z</time>
      </trkpt>
      <trkpt lat="42.399167027324438" lon="2.563530988991261">
        <ele>564.42999999999995</ele>
        <time>2025-05-15T11:10:11Z</time>
      </trkpt>
      <trkpt lat="42.3991309851408" lon="2.563559990376234">
        <ele>564.42999999999995</ele>
        <time>2025-05-15T11:10:12Z</time>
      </trkpt>
      <trkpt lat="42.399084968492389" lon="2.563598966225982">
        <ele>563.95000000000005</ele>
        <time>2025-05-15T11:10:13Z</time>
      </trkpt>
      <trkpt lat="42.399030989035964" lon="2.563643977046013">
        <ele>563.47000000000003</ele>
        <time>2025-05-15T11:10:14Z</time>
      </trkpt>
      <trkpt lat="42.398909032344818" lon="2.563698040321469">
        <ele>562.99000000000001</ele>
        <time>2025-05-15T11:10:16Z</time>
      </trkpt>
      <trkpt lat="42.398858992382884" lon="2.563698040321469">
        <ele>562.50999999999999</ele>
        <time>2025-05-15T11:10:17Z</time>
      </trkpt>
      <trkpt lat="42.398758996278048" lon="2.563649006187916">
        <ele>562.50999999999999</ele>
        <time>2025-05-15T11:10:18Z</time>
      </trkpt>
      <trkpt lat="42.398031027987599" lon="2.563340971246362">
        <ele>559.62</ele>
        <time>2025-05-15T11:10:24Z</time>
      </trkpt>
      <trkpt lat="42.397913010790944" lon="2.563320016488433">
        <ele>559.13999999999999</ele>
        <time>2025-05-15T11:10:25Z</time>
      </trkpt>
      <trkpt lat="42.397788036614656" lon="2.563323033973575">
        <ele>558.65999999999997</ele>
        <time>2025-05-15T11:10:26Z</time>
      </trkpt>
      <trkpt lat="42.397665996104479" lon="2.563338959589601">
        <ele>557.70000000000005</ele>
        <time>2025-05-15T11:10:27Z</time>
      </trkpt>
      <trkpt lat="42.397549990564585" lon="2.563354969024658">
        <ele>557.22000000000003</ele>
        <time>2025-05-15T11:10:28Z</time>
      </trkpt>
      <trkpt lat="42.397440019994974" lon="2.563433004543185">
        <ele>556.25999999999999</ele>
        <time>2025-05-15T11:10:29Z</time>
      </trkpt>
      <trkpt lat="42.397340023890138" lon="2.563505005091429">
        <ele>555.29999999999995</ele>
        <time>2025-05-15T11:10:30Z</time>
      </trkpt>
      <trkpt lat="42.397248996421695" lon="2.563569964841008">
        <ele>554.34000000000003</ele>
        <time>2025-05-15T11:10:31Z</time>
      </trkpt>
      <trkpt lat="42.397165009751916" lon="2.563683958724141">
        <ele>553.38</ele>
        <time>2025-05-15T11:10:32Z</time>
      </trkpt>
      <trkpt lat="42.397081023082137" lon="2.563799964264035">
        <ele>552.40999999999997</ele>
        <time>2025-05-15T11:10:33Z</time>
      </trkpt>
      <trkpt lat="42.396994018927217" lon="2.563917981460691">
        <ele>551.45000000000005</ele>
        <time>2025-05-15T11:10:34Z</time>
      </trkpt>
      <trkpt lat="42.396475011482835" lon="2.564456015825272">
        <ele>549.52999999999997</ele>
        <time>2025-05-15T11:10:39Z</time>
      </trkpt>
      <trkpt lat="42.395962961018085" lon="2.56516202352941">
        <ele>547.61000000000001</ele>
        <time>2025-05-15T11:10:45Z</time>
      </trkpt>
      <trkpt lat="42.395939994603395" lon="2.565274005755782">
        <ele>546.64999999999998</ele>
        <time>2025-05-15T11:10:46Z</time>
      </trkpt>
      <trkpt lat="42.395939994603395" lon="2.56539998576045">
        <ele>546.16999999999996</ele>
        <time>2025-05-15T11:10:47Z</time>
      </trkpt>
      <trkpt lat="42.395943012088537" lon="2.565529989078641">
        <ele>545.20000000000005</ele>
        <time>2025-05-15T11:10:48Z</time>
      </trkpt>
      <trkpt lat="42.395979976281524" lon="2.56565404124558">
        <ele>544.72000000000003</ele>
        <time>2025-05-15T11:10:49Z</time>
      </trkpt>
      <trkpt lat="42.396024987101555" lon="2.565748002380133">
        <ele>544.72000000000003</ele>
        <time>2025-05-15T11:10:50Z</time>
      </trkpt>
      <trkpt lat="42.396107967942953" lon="2.565793013200164">
        <ele>544.72000000000003</ele>
        <time>2025-05-15T11:10:51Z</time>
      </trkpt>
      <trkpt lat="42.396198995411396" lon="2.565841041505337">
        <ele>544.72000000000003</ele>
        <time>2025-05-15T11:10:52Z</time>
      </trkpt>
      <trkpt lat="42.396297985687852" lon="2.565886974334717">
        <ele>544.72000000000003</ele>
        <time>2025-05-15T11:10:53Z</time>
      </trkpt>
      <trkpt lat="42.396407034248114" lon="2.565886974334717">
        <ele>544.72000000000003</ele>
        <time>2025-05-15T11:10:54Z</time>
      </trkpt>
      <trkpt lat="42.396512981504202" lon="2.565860990434885">
        <ele>544.72000000000003</ele>
        <time>2025-05-15T11:10:55Z</time>
      </trkpt>
      <trkpt lat="42.396608032286167" lon="2.565791001543403">
        <ele>544.72000000000003</ele>
        <time>2025-05-15T11:10:56Z</time>
      </trkpt>
      <trkpt lat="42.396710962057114" lon="2.565714977681637">
        <ele>544.72000000000003</ele>
        <time>2025-05-15T11:10:57Z</time>
      </trkpt>
      <trkpt lat="42.396884970366955" lon="2.565524959936738">
        <ele>545.20000000000005</ele>
        <time>2025-05-15T11:10:59Z</time>
      </trkpt>
      <trkpt lat="42.397052021697164" lon="2.565293032675982">
        <ele>545.20000000000005</ele>
        <time>2025-05-15T11:11:01Z</time>
      </trkpt>
      <trkpt lat="42.397142965346575" lon="2.565217008814216">
        <ele>545.69000000000005</ele>
        <time>2025-05-15T11:11:02Z</time>
      </trkpt>
      <trkpt lat="42.397261988371611" lon="2.565178032964468">
        <ele>546.16999999999996</ele>
        <time>2025-05-15T11:11:03Z</time>
      </trkpt>
      <trkpt lat="42.397368019446731" lon="2.565152971073985">
        <ele>546.64999999999998</ele>
        <time>2025-05-15T11:11:04Z</time>
      </trkpt>
      <trkpt lat="42.397474972531199" lon="2.565151965245605">
        <ele>546.64999999999998</ele>
        <time>2025-05-15T11:11:05Z</time>
      </trkpt>
      <trkpt lat="42.397545967251062" lon="2.565188007429242">
        <ele>546.64999999999998</ele>
        <time>2025-05-15T11:11:06Z</time>
      </trkpt>
      <trkpt lat="42.397571029141545" lon="2.565199993550777">
        <ele>546.64999999999998</ele>
        <time>2025-05-15T11:11:07Z</time>
      </trkpt>
      <trkpt lat="42.397587960585952" lon="2.565366961061955">
        <ele>547.13</ele>
        <time>2025-05-15T11:11:08Z</time>
      </trkpt>
      <trkpt lat="42.397599024698138" lon="2.565477015450597">
        <ele>547.13</ele>
        <time>2025-05-15T11:11:09Z</time>
      </trkpt>
      <trkpt lat="42.397608999162912" lon="2.565584974363446">
        <ele>547.61000000000001</ele>
        <time>2025-05-15T11:11:10Z</time>
      </trkpt>
      <trkpt lat="42.397684017196298" lon="2.565688993781805">
        <ele>547.61000000000001</ele>
        <time>2025-05-15T11:11:11Z</time>
      </trkpt>
      <trkpt lat="42.397757023572922" lon="2.565752025693655">
        <ele>547.13</ele>
        <time>2025-05-15T11:11:12Z</time>
      </trkpt>
      <trkpt lat="42.397825000807643" lon="2.565710032358766">
        <ele>546.64999999999998</ele>
        <time>2025-05-15T11:11:13Z</time>
      </trkpt>
      <trkpt lat="42.397884009405971" lon="2.565650017932057">
        <ele>546.64999999999998</ele>
        <time>2025-05-15T11:11:14Z</time>
      </trkpt>
      <trkpt lat="42.397942012175918" lon="2.565543986856937">
        <ele>546.16999999999996</ele>
        <time>2025-05-15T11:11:15Z</time>
      </trkpt>
      <trkpt lat="42.398005966097116" lon="2.565433010458946">
        <ele>546.16999999999996</ele>
        <time>2025-05-15T11:11:16Z</time>
      </trkpt>
      <trkpt lat="42.398084001615644" lon="2.565385987982154">
        <ele>546.16999999999996</ele>
        <time>2025-05-15T11:11:17Z</time>
      </trkpt>
      <trkpt lat="42.398189026862383" lon="2.565413983538747">
        <ele>546.16999999999996</ele>
        <time>2025-05-15T11:11:18Z</time>
      </trkpt>
      <trkpt lat="42.398296985775232" lon="2.565467962995172">
        <ele>545.69000000000005</ele>
        <time>2025-05-15T11:11:19Z</time>
      </trkpt>
      <trkpt lat="42.398407962173223" lon="2.565524959936738">
        <ele>545.69000000000005</ele>
        <time>2025-05-15T11:11:20Z</time>
      </trkpt>
      <trkpt lat="42.398534025996923" lon="2.565590003505349">
        <ele>545.20000000000005</ele>
        <time>2025-05-15T11:11:21Z</time>
      </trkpt>
      <trkpt lat="42.398834014311433" lon="2.56574297323823">
        <ele>544.72000000000003</ele>
        <time>2025-05-15T11:11:23Z</time>
      </trkpt>
      <trkpt lat="42.399268029257655" lon="2.565927039831877">
        <ele>544.24000000000001</ele>
        <time>2025-05-15T11:11:26Z</time>
      </trkpt>
      <trkpt lat="42.399415969848633" lon="2.565951012074947">
        <ele>544.24000000000001</ele>
        <time>2025-05-15T11:11:27Z</time>
      </trkpt>
      <trkpt lat="42.399553013965487" lon="2.565945982933044">
        <ele>543.75999999999999</ele>
        <time>2025-05-15T11:11:28Z</time>
      </trkpt>
      <trkpt lat="42.399716963991523" lon="2.565938020125032">
        <ele>543.75999999999999</ele>
        <time>2025-05-15T11:11:29Z</time>
      </trkpt>
      <trkpt lat="42.399885021150112" lon="2.565930979326367">
        <ele>543.27999999999997</ele>
        <time>2025-05-15T11:11:30Z</time>
      </trkpt>
      <trkpt lat="42.400019969791174" lon="2.56599803455174">
        <ele>542.79999999999995</ele>
        <time>2025-05-15T11:11:31Z</time>
      </trkpt>
      <trkpt lat="42.400149973109365" lon="2.566076992079616">
        <ele>542.32000000000005</ele>
        <time>2025-05-15T11:11:32Z</time>
      </trkpt>
      <trkpt lat="42.400234965607524" lon="2.566176988184452">
        <ele>542.32000000000005</ele>
        <time>2025-05-15T11:11:33Z</time>
      </trkpt>
      <trkpt lat="42.400305960327387" lon="2.566297017037869">
        <ele>542.32000000000005</ele>
        <time>2025-05-15T11:11:34Z</time>
      </trkpt>
      <trkpt lat="42.400347031652927" lon="2.566426014527679">
        <ele>542.32000000000005</ele>
        <time>2025-05-15T11:11:35Z</time>
      </trkpt>
      <trkpt lat="42.400389024987817" lon="2.566585019230843">
        <ele>543.27999999999997</ele>
        <time>2025-05-15T11:11:36Z</time>
      </trkpt>
      <trkpt lat="42.400435963645577" lon="2.566759027540684">
        <ele>543.27999999999997</ele>
        <time>2025-05-15T11:11:37Z</time>
      </trkpt>
      <trkpt lat="42.400475023314357" lon="2.566906968131661">
        <ele>543.27999999999997</ele>
        <time>2025-05-15T11:11:38Z</time>
      </trkpt>
      <trkpt lat="42.400575019419193" lon="2.567017022520304">
        <ele>543.27999999999997</ele>
        <time>2025-05-15T11:11:39Z</time>
      </trkpt>
      <trkpt lat="42.400648025795817" lon="2.567020962014794">
        <ele>541.84000000000003</ele>
        <time>2025-05-15T11:11:40Z</time>
      </trkpt>
      <trkpt lat="42.400704016909003" lon="2.566972011700273">
        <ele>540.39999999999998</ele>
        <time>2025-05-15T11:11:41Z</time>
      </trkpt>
      <trkpt lat="42.400767970830202" lon="2.566917026415467">
        <ele>537.99000000000001</ele>
        <time>2025-05-15T11:11:42Z</time>
      </trkpt>
      <trkpt lat="42.400817004963756" lon="2.566835973411799">
        <ele>536.07000000000005</ele>
        <time>2025-05-15T11:11:43Z</time>
      </trkpt>
      <trkpt lat="42.400896968320012" lon="2.566702030599117">
        <ele>535.11000000000001</ele>
        <time>2025-05-15T11:11:44Z</time>
      </trkpt>
      <trkpt lat="42.40097600966692" lon="2.566570015624166">
        <ele>534.14999999999998</ele>
        <time>2025-05-15T11:11:45Z</time>
      </trkpt>
      <trkpt lat="42.401090003550053" lon="2.566381003707647">
        <ele>533.19000000000005</ele>
        <time>2025-05-15T11:11:46Z</time>
      </trkpt>
      <trkpt lat="42.401211960241199" lon="2.566305985674262">
        <ele>532.23000000000002</ele>
        <time>2025-05-15T11:11:47Z</time>
      </trkpt>
      <trkpt lat="42.401381023228168" lon="2.566208001226187">
        <ele>531.26999999999998</ele>
        <time>2025-05-15T11:11:48Z</time>
      </trkpt>
      <trkpt lat="42.401537010446191" lon="2.566201966255903">
        <ele>530.78999999999996</ele>
        <time>2025-05-15T11:11:49Z</time>
      </trkpt>
      <trkpt lat="42.401705989614129" lon="2.566195009276271">
        <ele>530.29999999999995</ele>
        <time>2025-05-15T11:11:50Z</time>
      </trkpt>
      <trkpt lat="42.401898019015789" lon="2.566190985962749">
        <ele>529.34000000000003</ele>
        <time>2025-05-15T11:11:51Z</time>
      </trkpt>
      <trkpt lat="42.402069009840488" lon="2.566233985126019">
        <ele>528.38</ele>
        <time>2025-05-15T11:11:52Z</time>
      </trkpt>
      <trkpt lat="42.402251986786723" lon="2.566316965967417">
        <ele>527.89999999999998</ele>
        <time>2025-05-15T11:11:53Z</time>
      </trkpt>
      <trkpt lat="42.402409985661507" lon="2.566411010921001">
        <ele>527.41999999999996</ele>
        <time>2025-05-15T11:11:54Z</time>
      </trkpt>
      <trkpt lat="42.402574019506574" lon="2.566507989540696">
        <ele>526.94000000000005</ele>
        <time>2025-05-15T11:11:55Z</time>
      </trkpt>
      <trkpt lat="42.40303996950388" lon="2.566864974796772">
        <ele>525.5</ele>
        <time>2025-05-15T11:11:58Z</time>
      </trkpt>
      <trkpt lat="42.403208026662469" lon="2.566957008093596">
        <ele>525.01999999999998</ele>
        <time>2025-05-15T11:11:59Z</time>
      </trkpt>
      <trkpt lat="42.40336200222373" lon="2.567042000591755">
        <ele>525.01999999999998</ele>
        <time>2025-05-15T11:12:00Z</time>
      </trkpt>
      <trkpt lat="42.403642041608691" lon="2.567290021106601">
        <ele>524.53999999999996</ele>
        <time>2025-05-15T11:12:02Z</time>
      </trkpt>
      <trkpt lat="42.40385795943439" lon="2.567495964467526">
        <ele>523.58000000000004</ele>
        <time>2025-05-15T11:12:04Z</time>
      </trkpt>
      <trkpt lat="42.403915040194988" lon="2.567701991647482">
        <ele>523.09000000000003</ele>
        <time>2025-05-15T11:12:05Z</time>
      </trkpt>
      <trkpt lat="42.403959967195988" lon="2.567863008007407">
        <ele>523.58000000000004</ele>
        <time>2025-05-15T11:12:06Z</time>
      </trkpt>
      <trkpt lat="42.4041130207479" lon="2.568414034321904">
        <ele>524.05999999999995</ele>
        <time>2025-05-15T11:12:09Z</time>
      </trkpt>
      <trkpt lat="42.404153002426028" lon="2.568558035418391">
        <ele>525.5</ele>
        <time>2025-05-15T11:12:10Z</time>
      </trkpt>
      <trkpt lat="42.404179992154241" lon="2.568655014038086">
        <ele>528.86000000000001</ele>
        <time>2025-05-15T11:12:11Z</time>
      </trkpt>
      <trkpt lat="42.404189966619015" lon="2.568833967670798">
        <ele>529.34000000000003</ele>
        <time>2025-05-15T11:12:12Z</time>
      </trkpt>
      <trkpt lat="42.40419901907444" lon="2.568991966545582">
        <ele>528.86000000000001</ele>
        <time>2025-05-15T11:12:13Z</time>
      </trkpt>
      <trkpt lat="42.404202036559582" lon="2.569041000679135">
        <ele>530.29999999999995</ele>
        <time>2025-05-15T11:12:14Z</time>
      </trkpt>
      <trkpt lat="42.404280994087458" lon="2.569161029532552">
        <ele>531.26999999999998</ele>
        <time>2025-05-15T11:12:15Z</time>
      </trkpt>
      <trkpt lat="42.404357017949224" lon="2.569188019260764">
        <ele>531.26999999999998</ele>
        <time>2025-05-15T11:12:16Z</time>
      </trkpt>
      <trkpt lat="42.404462965205312" lon="2.569217020645738">
        <ele>531.75</ele>
        <time>2025-05-15T11:12:17Z</time>
      </trkpt>
      <trkpt lat="42.404576959088445" lon="2.569247027859092">
        <ele>531.75</ele>
        <time>2025-05-15T11:12:18Z</time>
      </trkpt>
      <trkpt lat="42.404703022912145" lon="2.569280974566937">
        <ele>532.23000000000002</ele>
        <time>2025-05-15T11:12:19Z</time>
      </trkpt>
      <trkpt lat="42.404841994866729" lon="2.569318022578955">
        <ele>531.26999999999998</ele>
        <time>2025-05-15T11:12:20Z</time>
      </trkpt>
      <trkpt lat="42.404974009841681" lon="2.569366972893477">
        <ele>531.26999999999998</ele>
        <time>2025-05-15T11:12:21Z</time>
      </trkpt>
      <trkpt lat="42.405098984017968" lon="2.569439979270101">
        <ele>530.78999999999996</ele>
        <time>2025-05-15T11:12:22Z</time>
      </trkpt>
      <trkpt lat="42.405189005658031" lon="2.569492030888796">
        <ele>530.78999999999996</ele>
        <time>2025-05-15T11:12:23Z</time>
      </trkpt>
      <trkpt lat="42.40533703006804" lon="2.569446014240384">
        <ele>529.82000000000005</ele>
        <time>2025-05-15T11:12:24Z</time>
      </trkpt>
      <trkpt lat="42.405449012294412" lon="2.569411983713508">
        <ele>529.34000000000003</ele>
        <time>2025-05-15T11:12:25Z</time>
      </trkpt>
      <trkpt lat="42.406072039157152" lon="2.569250967353582">
        <ele>530.29999999999995</ele>
        <time>2025-05-15T11:12:30Z</time>
      </trkpt>
      <trkpt lat="42.406178992241621" lon="2.569290027022362">
        <ele>530.78999999999996</ele>
        <time>2025-05-15T11:12:31Z</time>
      </trkpt>
      <trkpt lat="42.406260967254639" lon="2.569320034235716">
        <ele>531.26999999999998</ele>
        <time>2025-05-15T11:12:32Z</time>
      </trkpt>
      <trkpt lat="42.406382001936436" lon="2.569461017847061">
        <ele>532.23000000000002</ele>
        <time>2025-05-15T11:12:33Z</time>
      </trkpt>
      <trkpt lat="42.406440004706383" lon="2.569580040872097">
        <ele>533.66999999999996</ele>
        <time>2025-05-15T11:12:34Z</time>
      </trkpt>
      <trkpt lat="42.406489038839936" lon="2.569689005613327">
        <ele>536.54999999999995</ele>
        <time>2025-05-15T11:12:35Z</time>
      </trkpt>
      <trkpt lat="42.406544024124742" lon="2.569811968132854">
        <ele>539.44000000000005</ele>
        <time>2025-05-15T11:12:36Z</time>
      </trkpt>
      <trkpt lat="42.406883994117379" lon="2.570564998313785">
        <ele>553.38</ele>
        <time>2025-05-15T11:12:42Z</time>
      </trkpt>
      <trkpt lat="42.406914001330733" lon="2.570697013288736">
        <ele>554.82000000000005</ele>
        <time>2025-05-15T11:12:43Z</time>
      </trkpt>
      <trkpt lat="42.407064959406853" lon="2.571365972980857">
        <ele>560.11000000000001</ele>
        <time>2025-05-15T11:12:47Z</time>
      </trkpt>
      <trkpt lat="42.407104019075632" lon="2.571536963805556">
        <ele>560.59000000000003</ele>
        <time>2025-05-15T11:12:48Z</time>
      </trkpt>
      <trkpt lat="42.407140983268619" lon="2.571702003479004">
        <ele>561.54999999999995</ele>
        <time>2025-05-15T11:12:49Z</time>
      </trkpt>
      <trkpt lat="42.407114999368787" lon="2.571813985705376">
        <ele>562.50999999999999</ele>
        <time>2025-05-15T11:12:50Z</time>
      </trkpt>
      <trkpt lat="42.407063031569123" lon="2.57199302315712">
        <ele>563.95000000000005</ele>
        <time>2025-05-15T11:12:51Z</time>
      </trkpt>
      <trkpt lat="42.406974015757442" lon="2.572070974856615">
        <ele>564.90999999999997</ele>
        <time>2025-05-15T11:12:52Z</time>
      </trkpt>
      <trkpt lat="42.406859016045928" lon="2.572171976789832">
        <ele>566.35000000000002</ele>
        <time>2025-05-15T11:12:53Z</time>
      </trkpt>
      <trkpt lat="42.406729012727737" lon="2.572284964844585">
        <ele>566.83000000000004</ele>
        <time>2025-05-15T11:12:54Z</time>
      </trkpt>
      <trkpt lat="42.406561961397529" lon="2.572431983426213">
        <ele>567.79999999999995</ele>
        <time>2025-05-15T11:12:55Z</time>
      </trkpt>
      <trkpt lat="42.406452996656299" lon="2.572633987292647">
        <ele>568.75999999999999</ele>
        <time>2025-05-15T11:12:57Z</time>
      </trkpt>
      <trkpt lat="42.40641200914979" lon="2.57274404168129">
        <ele>570.20000000000005</ele>
        <time>2025-05-15T11:12:58Z</time>
      </trkpt>
      <trkpt lat="42.40641200914979" lon="2.572903968393803">
        <ele>571.63999999999999</ele>
        <time>2025-05-15T11:12:59Z</time>
      </trkpt>
      <trkpt lat="42.40643204189837" lon="2.572931963950396">
        <ele>572.60000000000002</ele>
        <time>2025-05-15T11:13:00Z</time>
      </trkpt>
      <trkpt lat="42.406504964455962" lon="2.573033971711993">
        <ele>573.08000000000004</ele>
        <time>2025-05-15T11:13:01Z</time>
      </trkpt>
      <trkpt lat="42.406680984422565" lon="2.573280986398459">
        <ele>574.52999999999997</ele>
        <time>2025-05-15T11:13:03Z</time>
      </trkpt>
      <trkpt lat="42.406818028539419" lon="2.57356102578342">
        <ele>578.37</ele>
        <time>2025-05-15T11:13:05Z</time>
      </trkpt>
      <trkpt lat="42.406881982460618" lon="2.573715001344681">
        <ele>580.76999999999998</ele>
        <time>2025-05-15T11:13:06Z</time>
      </trkpt>
      <trkpt lat="42.407213989645243" lon="2.5745739787817">
        <ele>590.87</ele>
        <time>2025-05-15T11:13:11Z</time>
      </trkpt>
      <trkpt lat="42.407291019335389" lon="2.574791992083192">
        <ele>592.78999999999996</ele>
        <time>2025-05-15T11:13:12Z</time>
      </trkpt>
      <trkpt lat="42.40731599740684" lon="2.574837002903223">
        <ele>594.71000000000004</ele>
        <time>2025-05-15T11:13:13Z</time>
      </trkpt>
      <trkpt lat="42.407448012381792" lon="2.575073037296534">
        <ele>597.12</ele>
        <time>2025-05-15T11:13:14Z</time>
      </trkpt>
      <trkpt lat="42.407640963792801" lon="2.575097009539604">
        <ele>599.51999999999998</ele>
        <time>2025-05-15T11:13:15Z</time>
      </trkpt>
      <trkpt lat="42.407800974324346" lon="2.574983015656471">
        <ele>601.44000000000005</ele>
        <time>2025-05-15T11:13:16Z</time>
      </trkpt>
      <trkpt lat="42.407870041206479" lon="2.574906991794705">
        <ele>603.36000000000001</ele>
        <time>2025-05-15T11:13:17Z</time>
      </trkpt>
      <trkpt lat="42.407961990684271" lon="2.574805989861488">
        <ele>605.28999999999996</ele>
        <time>2025-05-15T11:13:18Z</time>
      </trkpt>
      <trkpt lat="42.408019993454218" lon="2.574712028726935">
        <ele>607.69000000000005</ele>
        <time>2025-05-15T11:13:19Z</time>
      </trkpt>
      <trkpt lat="42.408083025366068" lon="2.574612032622099">
        <ele>609.61000000000001</ele>
        <time>2025-05-15T11:13:20Z</time>
      </trkpt>
      <trkpt lat="42.408146979287267" lon="2.574509019032121">
        <ele>611.53999999999996</ele>
        <time>2025-05-15T11:13:21Z</time>
      </trkpt>
      <trkpt lat="42.408204982057214" lon="2.574429977685213">
        <ele>612.01999999999998</ele>
        <time>2025-05-15T11:13:22Z</time>
      </trkpt>
      <trkpt lat="42.408286035060883" lon="2.574332999065518">
        <ele>612.98000000000002</ele>
        <time>2025-05-15T11:13:23Z</time>
      </trkpt>
      <trkpt lat="42.408386031165719" lon="2.574212970212102">
        <ele>615.86000000000001</ele>
        <time>2025-05-15T11:13:24Z</time>
      </trkpt>
      <trkpt lat="42.408435987308621" lon="2.57420601323247">
        <ele>617.77999999999997</ele>
        <time>2025-05-15T11:13:25Z</time>
      </trkpt>
      <trkpt lat="42.408546041697264" lon="2.574193021282554">
        <ele>618.75</ele>
        <time>2025-05-15T11:13:26Z</time>
      </trkpt>
      <trkpt lat="42.408729018643498" lon="2.574169971048832">
        <ele>621.14999999999998</ele>
        <time>2025-05-15T11:13:27Z</time>
      </trkpt>
      <trkpt lat="42.408738993108273" lon="2.574179023504257">
        <ele>622.59000000000003</ele>
        <time>2025-05-15T11:13:28Z</time>
      </trkpt>
      <trkpt lat="42.408814011141658" lon="2.574251024052501">
        <ele>624.02999999999997</ele>
        <time>2025-05-15T11:13:29Z</time>
      </trkpt>
      <trkpt lat="42.40890403278172" lon="2.574337022379041">
        <ele>625.47000000000003</ele>
        <time>2025-05-15T11:13:30Z</time>
      </trkpt>
      <trkpt lat="42.409222964197397" lon="2.574642039835453">
        <ele>628.84000000000003</ele>
        <time>2025-05-15T11:13:33Z</time>
      </trkpt>
      <trkpt lat="42.409327989444137" lon="2.57468000985682">
        <ele>629.32000000000005</ele>
        <time>2025-05-15T11:13:34Z</time>
      </trkpt>
      <trkpt lat="42.409448018297553" lon="2.574724014848471">
        <ele>629.79999999999995</ele>
        <time>2025-05-15T11:13:35Z</time>
      </trkpt>
      <trkpt lat="42.409554971382022" lon="2.574762990698218">
        <ele>630.75999999999999</ele>
        <time>2025-05-15T11:13:36Z</time>
      </trkpt>
      <trkpt lat="42.409695032984018" lon="2.574813030660152">
        <ele>630.75999999999999</ele>
        <time>2025-05-15T11:13:37Z</time>
      </trkpt>
      <trkpt lat="42.40972001105547" lon="2.574863992631435">
        <ele>630.75999999999999</ele>
        <time>2025-05-15T11:13:38Z</time>
      </trkpt>
      <trkpt lat="42.409771978855133" lon="2.574968012049794">
        <ele>630.75999999999999</ele>
        <time>2025-05-15T11:13:39Z</time>
      </trkpt>
      <trkpt lat="42.409808021038771" lon="2.575135985389352">
        <ele>630.75999999999999</ele>
        <time>2025-05-15T11:13:40Z</time>
      </trkpt>
      <trkpt lat="42.409815983846784" lon="2.575295995920897">
        <ele>631.24000000000001</ele>
        <time>2025-05-15T11:13:41Z</time>
      </trkpt>
      <trkpt lat="42.409812966361642" lon="2.575479978695512">
        <ele>631.72000000000003</ele>
        <time>2025-05-15T11:13:42Z</time>
      </trkpt>
      <trkpt lat="42.409772984683514" lon="2.575650969520211">
        <ele>633.16999999999996</ele>
        <time>2025-05-15T11:13:43Z</time>
      </trkpt>
      <trkpt lat="42.409728979691863" lon="2.575836963951588">
        <ele>634.61000000000001</ele>
        <time>2025-05-15T11:13:44Z</time>
      </trkpt>
      <trkpt lat="42.409683968871832" lon="2.576025975868106">
        <ele>635.09000000000003</ele>
        <time>2025-05-15T11:13:45Z</time>
      </trkpt>
      <trkpt lat="42.409366965293884" lon="2.577677965164185">
        <ele>634.61000000000001</ele>
        <time>2025-05-15T11:13:53Z</time>
      </trkpt>
      <trkpt lat="42.409201003611088" lon="2.578370980918407">
        <ele>633.64999999999998</ele>
        <time>2025-05-15T11:13:57Z</time>
      </trkpt>
      <trkpt lat="42.409151969477534" lon="2.57850400172174">
        <ele>633.64999999999998</ele>
        <time>2025-05-15T11:13:58Z</time>
      </trkpt>
      <trkpt lat="42.409078041091561" lon="2.578593017533422">
        <ele>633.16999999999996</ele>
        <time>2025-05-15T11:13:59Z</time>
      </trkpt>
      <trkpt lat="42.408997993916273" lon="2.57865697145462">
        <ele>634.13</ele>
        <time>2025-05-15T11:14:00Z</time>
      </trkpt>
      <trkpt lat="42.408894980326295" lon="2.578738024458289">
        <ele>634.61000000000001</ele>
        <time>2025-05-15T11:14:01Z</time>
      </trkpt>
      <trkpt lat="42.408788027241826" lon="2.578823016956449">
        <ele>635.57000000000005</ele>
        <time>2025-05-15T11:14:02Z</time>
      </trkpt>
      <trkpt lat="42.408676967024803" lon="2.578942961990833">
        <ele>635.57000000000005</ele>
        <time>2025-05-15T11:14:03Z</time>
      </trkpt>
      <trkpt lat="42.408575965091586" lon="2.579090986400843">
        <ele>635.57000000000005</ele>
        <time>2025-05-15T11:14:04Z</time>
      </trkpt>
      <trkpt lat="42.408504970371723" lon="2.579269018024206">
        <ele>635.57000000000005</ele>
        <time>2025-05-15T11:14:05Z</time>
      </trkpt>
      <trkpt lat="42.407975988462567" lon="2.580658989027143">
        <ele>636.52999999999997</ele>
        <time>2025-05-15T11:14:12Z</time>
      </trkpt>
      <trkpt lat="42.407913962379098" lon="2.580907009541988">
        <ele>637.00999999999999</ele>
        <time>2025-05-15T11:14:13Z</time>
      </trkpt>
      <trkpt lat="42.407913962379098" lon="2.581065008416772">
        <ele>637.49000000000001</ele>
        <time>2025-05-15T11:14:14Z</time>
      </trkpt>
      <trkpt lat="42.407913962379098" lon="2.581440014764667">
        <ele>637.49000000000001</ele>
        <time>2025-05-15T11:14:16Z</time>
      </trkpt>
      <trkpt lat="42.407913962379098" lon="2.581618968397379">
        <ele>637.49000000000001</ele>
        <time>2025-05-15T11:14:17Z</time>
      </trkpt>
      <trkpt lat="42.407884960994124" lon="2.581801023334265">
        <ele>637.00999999999999</ele>
        <time>2025-05-15T11:14:18Z</time>
      </trkpt>
      <trkpt lat="42.407814972102642" lon="2.581990035250783">
        <ele>637.00999999999999</ele>
        <time>2025-05-15T11:14:19Z</time>
      </trkpt>
      <trkpt lat="42.407730985432863" lon="2.582191033288837">
        <ele>636.52999999999997</ele>
        <time>2025-05-15T11:14:20Z</time>
      </trkpt>
      <trkpt lat="42.407626966014504" lon="2.582389013841748">
        <ele>637.00999999999999</ele>
        <time>2025-05-15T11:14:21Z</time>
      </trkpt>
      <trkpt lat="42.407499980181456" lon="2.582580959424377">
        <ele>637.49000000000001</ele>
        <time>2025-05-15T11:14:22Z</time>
      </trkpt>
      <trkpt lat="42.407256988808513" lon="2.582868961617351">
        <ele>637.97000000000003</ele>
        <time>2025-05-15T11:14:24Z</time>
      </trkpt>
      <trkpt lat="42.407150035724044" lon="2.582945991307497">
        <ele>637.97000000000003</ele>
        <time>2025-05-15T11:14:25Z</time>
      </trkpt>
      <trkpt lat="42.407051967456937" lon="2.582970969378948">
        <ele>638.45000000000005</ele>
        <time>2025-05-15T11:14:26Z</time>
      </trkpt>
      <trkpt lat="42.406963035464287" lon="2.582975998520851">
        <ele>637.97000000000003</ele>
        <time>2025-05-15T11:14:27Z</time>
      </trkpt>
      <trkpt lat="42.406874019652605" lon="2.582982033491135">
        <ele>637.97000000000003</ele>
        <time>2025-05-15T11:14:28Z</time>
      </trkpt>
      <trkpt lat="42.406783998012543" lon="2.582986978814006">
        <ele>637.49000000000001</ele>
        <time>2025-05-15T11:14:29Z</time>
      </trkpt>
      <trkpt lat="42.40673596970737" lon="2.583026038482785">
        <ele>637.00999999999999</ele>
        <time>2025-05-15T11:14:30Z</time>
      </trkpt>
      <trkpt lat="42.406702022999525" lon="2.583095021545887">
        <ele>636.04999999999995</ele>
        <time>2025-05-15T11:14:31Z</time>
      </trkpt>
      <trkpt lat="42.406668998301029" lon="2.583159981295466">
        <ele>635.57000000000005</ele>
        <time>2025-05-15T11:14:32Z</time>
      </trkpt>
      <trkpt lat="42.406677966937423" lon="2.583201974630356">
        <ele>635.09000000000003</ele>
        <time>2025-05-15T11:14:33Z</time>
      </trkpt>
      <trkpt lat="42.40669397637248" lon="2.583285039290786">
        <ele>634.13</ele>
        <time>2025-05-15T11:14:34Z</time>
      </trkpt>
      <trkpt lat="42.406722977757454" lon="2.583382017910481">
        <ele>633.16999999999996</ele>
        <time>2025-05-15T11:14:35Z</time>
      </trkpt>
      <trkpt lat="42.406820962205529" lon="2.583444966003299">
        <ele>632.20000000000005</ele>
        <time>2025-05-15T11:14:36Z</time>
      </trkpt>
      <trkpt lat="42.406931016594172" lon="2.583515960723162">
        <ele>631.72000000000003</ele>
        <time>2025-05-15T11:14:37Z</time>
      </trkpt>
      <trkpt lat="42.407036041840911" lon="2.583593996241689">
        <ele>630.27999999999997</ele>
        <time>2025-05-15T11:14:38Z</time>
      </trkpt>
      <trkpt lat="42.407139977440238" lon="2.583706984296441">
        <ele>629.32000000000005</ele>
        <time>2025-05-15T11:14:39Z</time>
      </trkpt>
      <trkpt lat="42.4072490260005" lon="2.583826007321477">
        <ele>628.36000000000001</ele>
        <time>2025-05-15T11:14:40Z</time>
      </trkpt>
      <trkpt lat="42.407307028770447" lon="2.583965985104442">
        <ele>627.39999999999998</ele>
        <time>2025-05-15T11:14:41Z</time>
      </trkpt>
      <trkpt lat="42.407366037368774" lon="2.584106968715787">
        <ele>626.44000000000005</ele>
        <time>2025-05-15T11:14:42Z</time>
      </trkpt>
      <trkpt lat="42.407419010996819" lon="2.584235966205597">
        <ele>625.47000000000003</ele>
        <time>2025-05-15T11:14:43Z</time>
      </trkpt>
      <trkpt lat="42.407481959089637" lon="2.584361024200916">
        <ele>624.50999999999999</ele>
        <time>2025-05-15T11:14:44Z</time>
      </trkpt>
      <trkpt lat="42.407563012093306" lon="2.584450040012598">
        <ele>623.54999999999995</ele>
        <time>2025-05-15T11:14:45Z</time>
      </trkpt>
      <trkpt lat="42.407641969621181" lon="2.584536038339138">
        <ele>622.59000000000003</ele>
        <time>2025-05-15T11:14:46Z</time>
      </trkpt>
      <trkpt lat="42.407707013189793" lon="2.584620025008917">
        <ele>621.63</ele>
        <time>2025-05-15T11:14:47Z</time>
      </trkpt>
      <trkpt lat="42.40774598903954" lon="2.584738964214921">
        <ele>620.66999999999996</ele>
        <time>2025-05-15T11:14:48Z</time>
      </trkpt>
      <trkpt lat="42.407763004302979" lon="2.58490702137351">
        <ele>619.71000000000004</ele>
        <time>2025-05-15T11:14:49Z</time>
      </trkpt>
      <trkpt lat="42.40776501595974" lon="2.585091004148126">
        <ele>619.23000000000002</ele>
        <time>2025-05-15T11:14:50Z</time>
      </trkpt>
      <trkpt lat="42.407779013738036" lon="2.585292002186179">
        <ele>618.75</ele>
        <time>2025-05-15T11:14:51Z</time>
      </trkpt>
      <trkpt lat="42.407822012901306" lon="2.585493000224233">
        <ele>618.25999999999999</ele>
        <time>2025-05-15T11:14:52Z</time>
      </trkpt>
      <trkpt lat="42.407876998186111" lon="2.585673965513706">
        <ele>617.77999999999997</ele>
        <time>2025-05-15T11:14:53Z</time>
      </trkpt>
      <trkpt lat="42.407930977642536" lon="2.58585300296545">
        <ele>617.29999999999995</ele>
        <time>2025-05-15T11:14:54Z</time>
      </trkpt>
      <trkpt lat="42.407999960705638" lon="2.586078979074955">
        <ele>617.29999999999995</ele>
        <time>2025-05-15T11:14:55Z</time>
      </trkpt>
      <trkpt lat="42.408018987625837" lon="2.586435964331031">
        <ele>616.82000000000005</ele>
        <time>2025-05-15T11:14:57Z</time>
      </trkpt>
      <trkpt lat="42.407995015382767" lon="2.586606033146381">
        <ele>616.34000000000003</ele>
        <time>2025-05-15T11:14:58Z</time>
      </trkpt>
      <trkpt lat="42.407972970977426" lon="2.586759002879262">
        <ele>616.34000000000003</ele>
        <time>2025-05-15T11:14:59Z</time>
      </trkpt>
      <trkpt lat="42.407940030097961" lon="2.586917001754046">
        <ele>616.34000000000003</ele>
        <time>2025-05-15T11:15:00Z</time>
      </trkpt>
      <trkpt lat="42.407882027328014" lon="2.587066031992436">
        <ele>617.29999999999995</ele>
        <time>2025-05-15T11:15:01Z</time>
      </trkpt>
      <trkpt lat="42.407822012901306" lon="2.587221013382077">
        <ele>617.77999999999997</ele>
        <time>2025-05-15T11:15:02Z</time>
      </trkpt>
      <trkpt lat="42.407758980989456" lon="2.587382029742003">
        <ele>617.77999999999997</ele>
        <time>2025-05-15T11:15:03Z</time>
      </trkpt>
      <trkpt lat="42.407689997926354" lon="2.587564000859857">
        <ele>617.77999999999997</ele>
        <time>2025-05-15T11:15:04Z</time>
      </trkpt>
      <trkpt lat="42.407624032348394" lon="2.587747983634472">
        <ele>617.29999999999995</ele>
        <time>2025-05-15T11:15:05Z</time>
      </trkpt>
      <trkpt lat="42.40755395963788" lon="2.587945964187384">
        <ele>616.82000000000005</ele>
        <time>2025-05-15T11:15:06Z</time>
      </trkpt>
      <trkpt lat="42.407477013766766" lon="2.588162971660495">
        <ele>616.82000000000005</ele>
        <time>2025-05-15T11:15:07Z</time>
      </trkpt>
      <trkpt lat="42.407183982431889" lon="2.588738976046443">
        <ele>616.82000000000005</ele>
        <time>2025-05-15T11:15:10Z</time>
      </trkpt>
      <trkpt lat="42.407067976891994" lon="2.588879959657788">
        <ele>617.29999999999995</ele>
        <time>2025-05-15T11:15:11Z</time>
      </trkpt>
      <trkpt lat="42.406955994665623" lon="2.589015997946262">
        <ele>617.29999999999995</ele>
        <time>2025-05-15T11:15:12Z</time>
      </trkpt>
      <trkpt lat="42.406857004389167" lon="2.589168967679143">
        <ele>616.82000000000005</ele>
        <time>2025-05-15T11:15:13Z</time>
      </trkpt>
      <trkpt lat="42.406788021326065" lon="2.589336019009352">
        <ele>615.86000000000001</ele>
        <time>2025-05-15T11:15:14Z</time>
      </trkpt>
      <trkpt lat="42.40671400912106" lon="2.589514972642064">
        <ele>615.38</ele>
        <time>2025-05-15T11:15:15Z</time>
      </trkpt>
      <trkpt lat="42.405938012525439" lon="2.591315992176533">
        <ele>605.76999999999998</ele>
        <time>2025-05-15T11:15:24Z</time>
      </trkpt>
      <trkpt lat="42.405232004821301" lon="2.5929219648242">
        <ele>600.96000000000004</ele>
        <time>2025-05-15T11:15:32Z</time>
      </trkpt>
      <trkpt lat="42.405158998444676" lon="2.593140983954072">
        <ele>600.48000000000002</ele>
        <time>2025-05-15T11:15:33Z</time>
      </trkpt>
      <trkpt lat="42.405096972361207" lon="2.593367965891957">
        <ele>599.51999999999998</ele>
        <time>2025-05-15T11:15:34Z</time>
      </trkpt>
      <trkpt lat="42.405075011774898" lon="2.593600982800126">
        <ele>598.55999999999995</ele>
        <time>2025-05-15T11:15:35Z</time>
      </trkpt>
      <trkpt lat="42.405052967369556" lon="2.593827964738011">
        <ele>598.08000000000004</ele>
        <time>2025-05-15T11:15:36Z</time>
      </trkpt>
      <trkpt lat="42.405037963762879" lon="2.594042038545013">
        <ele>597.12</ele>
        <time>2025-05-15T11:15:37Z</time>
      </trkpt>
      <trkpt lat="42.405037963762879" lon="2.594238007441163">
        <ele>596.14999999999998</ele>
        <time>2025-05-15T11:15:38Z</time>
      </trkpt>
      <trkpt lat="42.405022038146853" lon="2.594415033236146">
        <ele>595.19000000000005</ele>
        <time>2025-05-15T11:15:39Z</time>
      </trkpt>
      <trkpt lat="42.404969986528158" lon="2.594578983262181">
        <ele>594.71000000000004</ele>
        <time>2025-05-15T11:15:40Z</time>
      </trkpt>
      <trkpt lat="42.40490997210145" lon="2.59476900100708">
        <ele>594.23000000000002</ele>
        <time>2025-05-15T11:15:41Z</time>
      </trkpt>
      <trkpt lat="42.404831014573574" lon="2.594936974346638">
        <ele>593.75</ele>
        <time>2025-05-15T11:15:42Z</time>
      </trkpt>
      <trkpt lat="42.40473797544837" lon="2.595134032890201">
        <ele>593.26999999999998</ele>
        <time>2025-05-15T11:15:43Z</time>
      </trkpt>
      <trkpt lat="42.404696987941861" lon="2.595321033149958">
        <ele>592.78999999999996</ele>
        <time>2025-05-15T11:15:44Z</time>
      </trkpt>
      <trkpt lat="42.404654994606972" lon="2.595515996217728">
        <ele>591.83000000000004</ele>
        <time>2025-05-15T11:15:45Z</time>
      </trkpt>
      <trkpt lat="42.40458601154387" lon="2.595690004527569">
        <ele>590.87</ele>
        <time>2025-05-15T11:15:46Z</time>
      </trkpt>
      <trkpt lat="42.404484003782272" lon="2.595835011452436">
        <ele>589.90999999999997</ele>
        <time>2025-05-15T11:15:47Z</time>
      </trkpt>
      <trkpt lat="42.404375039041042" lon="2.595989992842078">
        <ele>588.95000000000005</ele>
        <time>2025-05-15T11:15:48Z</time>
      </trkpt>
      <trkpt lat="42.404180997982621" lon="2.596300039440393">
        <ele>587.5</ele>
        <time>2025-05-15T11:15:50Z</time>
      </trkpt>
      <trkpt lat="42.404096005484462" lon="2.596435993909836">
        <ele>586.53999999999996</ele>
        <time>2025-05-15T11:15:51Z</time>
      </trkpt>
      <trkpt lat="42.404034985229373" lon="2.596577983349562">
        <ele>585.58000000000004</ele>
        <time>2025-05-15T11:15:52Z</time>
      </trkpt>
      <trkpt lat="42.404010007157922" lon="2.596735982224345">
        <ele>585.10000000000002</ele>
        <time>2025-05-15T11:15:53Z</time>
      </trkpt>
      <trkpt lat="42.404017969965935" lon="2.596893981099129">
        <ele>584.62</ele>
        <time>2025-05-15T11:15:54Z</time>
      </trkpt>
      <trkpt lat="42.404025010764599" lon="2.597042005509138">
        <ele>584.13999999999999</ele>
        <time>2025-05-15T11:15:55Z</time>
      </trkpt>
      <trkpt lat="42.404030039906502" lon="2.597422963008285">
        <ele>582.70000000000005</ele>
        <time>2025-05-15T11:15:58Z</time>
      </trkpt>
      <trkpt lat="42.404026016592979" lon="2.597543997690082">
        <ele>582.22000000000003</ele>
        <time>2025-05-15T11:15:59Z</time>
      </trkpt>
      <trkpt lat="42.403977988287807" lon="2.597628990188241">
        <ele>581.73000000000002</ele>
        <time>2025-05-15T11:16:00Z</time>
      </trkpt>
      <trkpt lat="42.403930965811014" lon="2.59771297685802">
        <ele>581.25</ele>
        <time>2025-05-15T11:16:01Z</time>
      </trkpt>
      <trkpt lat="42.403886960819364" lon="2.597792018204927">
        <ele>581.25</ele>
        <time>2025-05-15T11:16:02Z</time>
      </trkpt>
      <trkpt lat="42.403837004676461" lon="2.597880028188229">
        <ele>581.25</ele>
        <time>2025-05-15T11:16:04Z</time>
      </trkpt>
      <trkpt lat="42.40381496027112" lon="2.598005002364516">
        <ele>581.73000000000002</ele>
        <time>2025-05-15T11:16:05Z</time>
      </trkpt>
      <trkpt lat="42.403781013563275" lon="2.598200971260667">
        <ele>582.70000000000005</ele>
        <time>2025-05-15T11:16:07Z</time>
      </trkpt>
      <trkpt lat="42.403761986643076" lon="2.598308008164167">
        <ele>583.17999999999995</ele>
        <time>2025-05-15T11:16:08Z</time>
      </trkpt>
      <trkpt lat="42.403731979429722" lon="2.598728025332093">
        <ele>584.13999999999999</ele>
        <time>2025-05-15T11:16:12Z</time>
      </trkpt>
      <trkpt lat="42.403711024671793" lon="2.599132033064961">
        <ele>584.13999999999999</ele>
        <time>2025-05-15T11:16:16Z</time>
      </trkpt>
      <trkpt lat="42.403717981651425" lon="2.599200010299683">
        <ele>584.13999999999999</ele>
        <time>2025-05-15T11:16:17Z</time>
      </trkpt>
      <trkpt lat="42.40376902744174" lon="2.59925901889801">
        <ele>584.13999999999999</ele>
        <time>2025-05-15T11:16:18Z</time>
      </trkpt>
      <trkpt lat="42.403820995241404" lon="2.599318027496338">
        <ele>584.13999999999999</ele>
        <time>2025-05-15T11:16:19Z</time>
      </trkpt>
      <trkpt lat="42.40385795943439" lon="2.599361026659608">
        <ele>584.13999999999999</ele>
        <time>2025-05-15T11:16:20Z</time>
      </trkpt>
      <trkpt lat="42.403935994952917" lon="2.599392039701343">
        <ele>584.13999999999999</ele>
        <time>2025-05-15T11:16:21Z</time>
      </trkpt>
      <trkpt lat="42.404009001329541" lon="2.599421041086316">
        <ele>584.13999999999999</ele>
        <time>2025-05-15T11:16:22Z</time>
      </trkpt>
      <trkpt lat="42.404079996049404" lon="2.599449036642909">
        <ele>584.13999999999999</ele>
        <time>2025-05-15T11:16:23Z</time>
      </trkpt>
      <trkpt lat="42.404151996597648" lon="2.599478960037231">
        <ele>584.13999999999999</ele>
        <time>2025-05-15T11:16:24Z</time>
      </trkpt>
      <trkpt lat="42.404576037079096" lon="2.599648023024201">
        <ele>585.58000000000004</ele>
        <time>2025-05-15T11:16:30Z</time>
      </trkpt>
      <trkpt lat="42.404628004878759" lon="2.599690016359091">
        <ele>586.05999999999995</ele>
        <time>2025-05-15T11:16:31Z</time>
      </trkpt>
      <trkpt lat="42.404668992385268" lon="2.599751958623529">
        <ele>586.53999999999996</ele>
        <time>2025-05-15T11:16:32Z</time>
      </trkpt>
      <trkpt lat="42.404703022912145" lon="2.599866036325693">
        <ele>587.5</ele>
        <time>2025-05-15T11:16:34Z</time>
      </trkpt>
      <trkpt lat="42.404706962406635" lon="2.599910041317344">
        <ele>587.98000000000002</ele>
        <time>2025-05-15T11:16:35Z</time>
      </trkpt>
      <trkpt lat="42.404669998213649" lon="2.599980030208826">
        <ele>588.95000000000005</ele>
        <time>2025-05-15T11:16:42Z</time>
      </trkpt>
      <trkpt lat="42.404621969908476" lon="2.599954968318343">
        <ele>588.95000000000005</ele>
        <time>2025-05-15T11:16:43Z</time>
      </trkpt>
      <trkpt lat="42.404554998502135" lon="2.599919009953737">
        <ele>589.42999999999995</ele>
        <time>2025-05-15T11:16:44Z</time>
      </trkpt>
      <trkpt lat="42.404482997953892" lon="2.59988103993237">
        <ele>589.42999999999995</ele>
        <time>2025-05-15T11:16:45Z</time>
      </trkpt>
      <trkpt lat="42.404407979920506" lon="2.599841980263591">
        <ele>589.90999999999997</ele>
        <time>2025-05-15T11:16:46Z</time>
      </trkpt>
      <trkpt lat="42.404098017141223" lon="2.59975497610867">
        <ele>591.83000000000004</ele>
        <time>2025-05-15T11:16:50Z</time>
      </trkpt>
      <trkpt lat="42.404011012986302" lon="2.599736033007503">
        <ele>592.30999999999995</ele>
        <time>2025-05-15T11:16:51Z</time>
      </trkpt>
      <trkpt lat="42.403926020488143" lon="2.599728992208839">
        <ele>592.78999999999996</ele>
        <time>2025-05-15T11:16:52Z</time>
      </trkpt>
      <trkpt lat="42.403287990018725" lon="2.599790012463927">
        <ele>596.63999999999999</ele>
        <time>2025-05-15T11:17:00Z</time>
      </trkpt>
      <trkpt lat="42.402450973168015" lon="2.599885985255241">
        <ele>598.55999999999995</ele>
        <time>2025-05-15T11:17:07Z</time>
      </trkpt>
      <trkpt lat="42.402291968464851" lon="2.599896965548396">
        <ele>598.55999999999995</ele>
        <time>2025-05-15T11:17:08Z</time>
      </trkpt>
      <trkpt lat="42.402194989845157" lon="2.599849021062255">
        <ele>598.55999999999995</ele>
        <time>2025-05-15T11:17:09Z</time>
      </trkpt>
      <trkpt lat="42.402083007618785" lon="2.599752964451909">
        <ele>598.55999999999995</ele>
        <time>2025-05-15T11:17:10Z</time>
      </trkpt>
      <trkpt lat="42.401969013735652" lon="2.599619021639228">
        <ele>598.08000000000004</ele>
        <time>2025-05-15T11:17:11Z</time>
      </trkpt>
      <trkpt lat="42.40187899209559" lon="2.599445013329387">
        <ele>597.60000000000002</ele>
        <time>2025-05-15T11:17:12Z</time>
      </trkpt>
      <trkpt lat="42.401787964627147" lon="2.599272010847926">
        <ele>597.60000000000002</ele>
        <time>2025-05-15T11:17:13Z</time>
      </trkpt>
      <trkpt lat="42.401711018756032" lon="2.599088028073311">
        <ele>597.12</ele>
        <time>2025-05-15T11:17:14Z</time>
      </trkpt>
      <trkpt lat="42.401660978794098" lon="2.598907984793186">
        <ele>596.63999999999999</ele>
        <time>2025-05-15T11:17:15Z</time>
      </trkpt>
      <trkpt lat="42.401612028479576" lon="2.598732970654964">
        <ele>596.63999999999999</ele>
        <time>2025-05-15T11:17:16Z</time>
      </trkpt>
      <trkpt lat="42.401546984910965" lon="2.598547982051969">
        <ele>595.66999999999996</ele>
        <time>2025-05-15T11:17:17Z</time>
      </trkpt>
      <trkpt lat="42.401461992412806" lon="2.59835796430707">
        <ele>595.19000000000005</ele>
        <time>2025-05-15T11:17:18Z</time>
      </trkpt>
      <trkpt lat="42.401355039328337" lon="2.598171969875693">
        <ele>595.19000000000005</ele>
        <time>2025-05-15T11:17:19Z</time>
      </trkpt>
      <trkpt lat="42.400693036615849" lon="2.597345011308789">
        <ele>595.66999999999996</ele>
        <time>2025-05-15T11:17:24Z</time>
      </trkpt>
      <trkpt lat="42.400575019419193" lon="2.597272004932165">
        <ele>596.14999999999998</ele>
        <time>2025-05-15T11:17:25Z</time>
      </trkpt>
      <trkpt lat="42.400435963645577" lon="2.597287008538842">
        <ele>596.63999999999999</ele>
        <time>2025-05-15T11:17:26Z</time>
      </trkpt>
      <trkpt lat="42.400293974205852" lon="2.597323972731829">
        <ele>597.12</ele>
        <time>2025-05-15T11:17:27Z</time>
      </trkpt>
      <trkpt lat="42.40016296505928" lon="2.597421035170555">
        <ele>597.60000000000002</ele>
        <time>2025-05-15T11:17:28Z</time>
      </trkpt>
      <trkpt lat="42.400019969791174" lon="2.597525976598263">
        <ele>598.08000000000004</ele>
        <time>2025-05-15T11:17:29Z</time>
      </trkpt>
      <trkpt lat="42.399876974523067" lon="2.59762697853148">
        <ele>598.55999999999995</ele>
        <time>2025-05-15T11:17:30Z</time>
      </trkpt>
      <trkpt lat="42.399700032547116" lon="2.597681963816285">
        <ele>599.03999999999996</ele>
        <time>2025-05-15T11:17:31Z</time>
      </trkpt>
      <trkpt lat="42.399519989266992" lon="2.597744995728135">
        <ele>599.51999999999998</ele>
        <time>2025-05-15T11:17:32Z</time>
      </trkpt>
      <trkpt lat="42.399368025362492" lon="2.597836023196578">
        <ele>600</ele>
        <time>2025-05-15T11:17:33Z</time>
      </trkpt>
      <trkpt lat="42.39923701621592" lon="2.598016988486052">
        <ele>600.48000000000002</ele>
        <time>2025-05-15T11:17:34Z</time>
      </trkpt>
      <trkpt lat="42.399126039817929" lon="2.598204994574189">
        <ele>600.96000000000004</ele>
        <time>2025-05-15T11:17:35Z</time>
      </trkpt>
      <trkpt lat="42.399009028449655" lon="2.59840196929872">
        <ele>600.96000000000004</ele>
        <time>2025-05-15T11:17:36Z</time>
      </trkpt>
      <trkpt lat="42.398671992123127" lon="2.598946038633585">
        <ele>602.39999999999998</ele>
        <time>2025-05-15T11:17:39Z</time>
      </trkpt>
      <trkpt lat="42.398553974926472" lon="2.599063972011209">
        <ele>602.39999999999998</ele>
        <time>2025-05-15T11:17:40Z</time>
      </trkpt>
      <trkpt lat="42.398423971608281" lon="2.599165979772806">
        <ele>602.88</ele>
        <time>2025-05-15T11:17:41Z</time>
      </trkpt>
      <trkpt lat="42.398102022707462" lon="2.599352980032563">
        <ele>602.88</ele>
        <time>2025-05-15T11:17:43Z</time>
      </trkpt>
      <trkpt lat="42.3975820094347" lon="2.599533023312688">
        <ele>602.88</ele>
        <time>2025-05-15T11:17:46Z</time>
      </trkpt>
      <trkpt lat="42.397433985024691" lon="2.599620027467609">
        <ele>602.88</ele>
        <time>2025-05-15T11:17:47Z</time>
      </trkpt>
      <trkpt lat="42.397319991141558" lon="2.599722035229206">
        <ele>602.88</ele>
        <time>2025-05-15T11:17:48Z</time>
      </trkpt>
      <trkpt lat="42.39721798337996" lon="2.599813984706998">
        <ele>602.39999999999998</ele>
        <time>2025-05-15T11:17:49Z</time>
      </trkpt>
      <trkpt lat="42.39713198505342" lon="2.599891014397144">
        <ele>602.39999999999998</ele>
        <time>2025-05-15T11:17:50Z</time>
      </trkpt>
      <trkpt lat="42.397067025303841" lon="2.599938958883286">
        <ele>601.91999999999996</ele>
        <time>2025-05-15T11:17:51Z</time>
      </trkpt>
      <trkpt lat="42.396926963701844" lon="2.599919009953737">
        <ele>601.44000000000005</ele>
        <time>2025-05-15T11:17:52Z</time>
      </trkpt>
      <trkpt lat="42.39687298424542" lon="2.599828988313675">
        <ele>600.96000000000004</ele>
        <time>2025-05-15T11:17:53Z</time>
      </trkpt>
      <trkpt lat="42.396777011454105" lon="2.59968901053071">
        <ele>600.48000000000002</ele>
        <time>2025-05-15T11:17:54Z</time>
      </trkpt>
      <trkpt lat="42.396656982600689" lon="2.599601000547409">
        <ele>600</ele>
        <time>2025-05-15T11:17:55Z</time>
      </trkpt>
      <trkpt lat="42.396515998989344" lon="2.599528999999166">
        <ele>599.51999999999998</ele>
        <time>2025-05-15T11:17:56Z</time>
      </trkpt>
      <trkpt lat="42.396366968750954" lon="2.59951600804925">
        <ele>599.51999999999998</ele>
        <time>2025-05-15T11:17:57Z</time>
      </trkpt>
      <trkpt lat="42.396064968779683" lon="2.599489018321037">
        <ele>598.08000000000004</ele>
        <time>2025-05-15T11:17:59Z</time>
      </trkpt>
      <trkpt lat="42.39541101269424" lon="2.599309980869293">
        <ele>596.63999999999999</ele>
        <time>2025-05-15T11:18:03Z</time>
      </trkpt>
      <trkpt lat="42.395249996334314" lon="2.599317021667957">
        <ele>597.12</ele>
        <time>2025-05-15T11:18:04Z</time>
      </trkpt>
      <trkpt lat="42.394945984706283" lon="2.599372006952763">
        <ele>598.08000000000004</ele>
        <time>2025-05-15T11:18:06Z</time>
      </trkpt>
      <trkpt lat="42.394803995266557" lon="2.599347028881311">
        <ele>599.03999999999996</ele>
        <time>2025-05-15T11:18:07Z</time>
      </trkpt>
      <trkpt lat="42.394657982513309" lon="2.599286008626223">
        <ele>599.51999999999998</ele>
        <time>2025-05-15T11:18:08Z</time>
      </trkpt>
      <trkpt lat="42.394523033872247" lon="2.599230017513037">
        <ele>600</ele>
        <time>2025-05-15T11:18:09Z</time>
      </trkpt>
      <trkpt lat="42.394398981705308" lon="2.599177965894342">
        <ele>600.48000000000002</ele>
        <time>2025-05-15T11:18:10Z</time>
      </trkpt>
      <trkpt lat="42.394267972558737" lon="2.599209984764457">
        <ele>600.96000000000004</ele>
        <time>2025-05-15T11:18:11Z</time>
      </trkpt>
      <trkpt lat="42.394137969240546" lon="2.599277961999178">
        <ele>600.96000000000004</ele>
        <time>2025-05-15T11:18:12Z</time>
      </trkpt>
      <trkpt lat="42.394025987014174" lon="2.599406959488988">
        <ele>600.96000000000004</ele>
        <time>2025-05-15T11:18:13Z</time>
      </trkpt>
      <trkpt lat="42.393910987302661" lon="2.59953998029232">
        <ele>601.44000000000005</ele>
        <time>2025-05-15T11:18:14Z</time>
      </trkpt>
      <trkpt lat="42.393834963440895" lon="2.599735027179122">
        <ele>601.44000000000005</ele>
        <time>2025-05-15T11:18:15Z</time>
      </trkpt>
      <trkpt lat="42.39378098398447" lon="2.59992596693337">
        <ele>602.39999999999998</ele>
        <time>2025-05-15T11:18:16Z</time>
      </trkpt>
      <trkpt lat="42.393724992871284" lon="2.600125959143043">
        <ele>602.88</ele>
        <time>2025-05-15T11:18:17Z</time>
      </trkpt>
      <trkpt lat="42.393665984272957" lon="2.60033299215138">
        <ele>603.85000000000002</ele>
        <time>2025-05-15T11:18:18Z</time>
      </trkpt>
      <trkpt lat="42.393601024523377" lon="2.600562991574407">
        <ele>605.28999999999996</ele>
        <time>2025-05-15T11:18:19Z</time>
      </trkpt>
      <trkpt lat="42.393514020368457" lon="2.600717972964048">
        <ele>606.73000000000002</ele>
        <time>2025-05-15T11:18:20Z</time>
      </trkpt>
      <trkpt lat="42.393419975414872" lon="2.600886030122638">
        <ele>608.16999999999996</ele>
        <time>2025-05-15T11:18:21Z</time>
      </trkpt>
      <trkpt lat="42.393301036208868" lon="2.601099014282227">
        <ele>609.13</ele>
        <time>2025-05-15T11:18:22Z</time>
      </trkpt>
      <trkpt lat="42.393171032890677" lon="2.601185012608767">
        <ele>610.57000000000005</ele>
        <time>2025-05-15T11:18:23Z</time>
      </trkpt>
      <trkpt lat="42.392982020974159" lon="2.601228011772037">
        <ele>611.53999999999996</ele>
        <time>2025-05-15T11:18:24Z</time>
      </trkpt>
      <trkpt lat="42.392825027927756" lon="2.601228011772037">
        <ele>612.98000000000002</ele>
        <time>2025-05-15T11:18:25Z</time>
      </trkpt>
      <trkpt lat="42.392667029052973" lon="2.601146036759019">
        <ele>613.94000000000005</ele>
        <time>2025-05-15T11:18:26Z</time>
      </trkpt>
      <trkpt lat="42.392539959400892" lon="2.601072024554014">
        <ele>615.38</ele>
        <time>2025-05-15T11:18:27Z</time>
      </trkpt>
      <trkpt lat="42.392420014366508" lon="2.601002035662532">
        <ele>616.34000000000003</ele>
        <time>2025-05-15T11:18:28Z</time>
      </trkpt>
      <trkpt lat="42.392308032140136" lon="2.60093598626554">
        <ele>617.77999999999997</ele>
        <time>2025-05-15T11:18:29Z</time>
      </trkpt>
      <trkpt lat="42.392208036035299" lon="2.600927017629147">
        <ele>618.25999999999999</ele>
        <time>2025-05-15T11:18:30Z</time>
      </trkpt>
      <trkpt lat="42.392079960554838" lon="2.600927017629147">
        <ele>619.23000000000002</ele>
        <time>2025-05-15T11:18:31Z</time>
      </trkpt>
      <trkpt lat="42.392001003026962" lon="2.601017039269209">
        <ele>619.71000000000004</ele>
        <time>2025-05-15T11:18:32Z</time>
      </trkpt>
      <trkpt lat="42.391922967508435" lon="2.601126004010439">
        <ele>620.19000000000005</ele>
        <time>2025-05-15T11:18:33Z</time>
      </trkpt>
      <trkpt lat="42.391848033294082" lon="2.601266987621784">
        <ele>620.66999999999996</ele>
        <time>2025-05-15T11:18:34Z</time>
      </trkpt>
      <trkpt lat="42.391768991947174" lon="2.601416017860174">
        <ele>620.66999999999996</ele>
        <time>2025-05-15T11:18:35Z</time>
      </trkpt>
      <trkpt lat="42.391681987792253" lon="2.601578962057829">
        <ele>620.66999999999996</ele>
        <time>2025-05-15T11:18:36Z</time>
      </trkpt>
      <trkpt lat="42.391594983637333" lon="2.601745007559657">
        <ele>620.66999999999996</ele>
        <time>2025-05-15T11:18:37Z</time>
      </trkpt>
      <trkpt lat="42.391517031937838" lon="2.601919015869498">
        <ele>621.14999999999998</ele>
        <time>2025-05-15T11:18:38Z</time>
      </trkpt>
      <trkpt lat="42.391357021406293" lon="2.602271977812052">
        <ele>620.66999999999996</ele>
        <time>2025-05-15T11:18:40Z</time>
      </trkpt>
      <trkpt lat="42.391256019473076" lon="2.602414973080158">
        <ele>620.66999999999996</ele>
        <time>2025-05-15T11:18:41Z</time>
      </trkpt>
      <trkpt lat="42.391135990619659" lon="2.602483034133911">
        <ele>620.66999999999996</ele>
        <time>2025-05-15T11:18:42Z</time>
      </trkpt>
      <trkpt lat="42.391006993129849" lon="2.602556962519884">
        <ele>620.66999999999996</ele>
        <time>2025-05-15T11:18:43Z</time>
      </trkpt>
      <trkpt lat="42.390872966498137" lon="2.60263298638165">
        <ele>620.66999999999996</ele>
        <time>2025-05-15T11:18:44Z</time>
      </trkpt>
      <trkpt lat="42.390745980665088" lon="2.602728959172964">
        <ele>620.66999999999996</ele>
        <time>2025-05-15T11:18:45Z</time>
      </trkpt>
      <trkpt lat="42.390624023973942" lon="2.602823004126549">
        <ele>620.66999999999996</ele>
        <time>2025-05-15T11:18:46Z</time>
      </trkpt>
      <trkpt lat="42.390506006777287" lon="2.602915037423372">
        <ele>620.66999999999996</ele>
        <time>2025-05-15T11:18:47Z</time>
      </trkpt>
      <trkpt lat="42.390096969902515" lon="2.603295994922519">
        <ele>621.63</ele>
        <time>2025-05-15T11:18:51Z</time>
      </trkpt>
      <trkpt lat="42.389988005161285" lon="2.603336982429028">
        <ele>621.63</ele>
        <time>2025-05-15T11:18:52Z</time>
      </trkpt>
      <trkpt lat="42.389879040420055" lon="2.603346034884453">
        <ele>622.11000000000001</ele>
        <time>2025-05-15T11:18:53Z</time>
      </trkpt>
      <trkpt lat="42.389547033235431" lon="2.603373024612665">
        <ele>624.50999999999999</ele>
        <time>2025-05-15T11:18:56Z</time>
      </trkpt>
      <trkpt lat="42.389445025473833" lon="2.603453993797302">
        <ele>624.99000000000001</ele>
        <time>2025-05-15T11:18:57Z</time>
      </trkpt>
      <trkpt lat="42.3893310315907" lon="2.603545021265745">
        <ele>625.96000000000004</ele>
        <time>2025-05-15T11:18:58Z</time>
      </trkpt>
      <trkpt lat="42.389315022155643" lon="2.603673012927175">
        <ele>626.91999999999996</ele>
        <time>2025-05-15T11:18:59Z</time>
      </trkpt>
      <trkpt lat="42.389297001063824" lon="2.603822965174913">
        <ele>627.88</ele>
        <time>2025-05-15T11:19:00Z</time>
      </trkpt>
      <trkpt lat="42.389276968315244" lon="2.603980964049697">
        <ele>628.84000000000003</ele>
        <time>2025-05-15T11:19:01Z</time>
      </trkpt>
      <trkpt lat="42.389276968315244" lon="2.604146003723145">
        <ele>629.32000000000005</ele>
        <time>2025-05-15T11:19:02Z</time>
      </trkpt>
      <trkpt lat="42.389294989407063" lon="2.604309031739831">
        <ele>630.75999999999999</ele>
        <time>2025-05-15T11:19:03Z</time>
      </trkpt>
      <trkpt lat="42.389317033812404" lon="2.604467030614615">
        <ele>631.72000000000003</ele>
        <time>2025-05-15T11:19:04Z</time>
      </trkpt>
      <trkpt lat="42.389364978298545" lon="2.604607008397579">
        <ele>632.67999999999995</ele>
        <time>2025-05-15T11:19:05Z</time>
      </trkpt>
      <trkpt lat="42.389414012432098" lon="2.604748997837305">
        <ele>633.64999999999998</ele>
        <time>2025-05-15T11:19:06Z</time>
      </trkpt>
      <trkpt lat="42.389463968575001" lon="2.604894004762173">
        <ele>634.13</ele>
        <time>2025-05-15T11:19:07Z</time>
      </trkpt>
      <trkpt lat="42.389515014365315" lon="2.605042029172182">
        <ele>634.13</ele>
        <time>2025-05-15T11:19:08Z</time>
      </trkpt>
      <trkpt lat="42.38954602740705" lon="2.605188963934779">
        <ele>634.13</ele>
        <time>2025-05-15T11:19:09Z</time>
      </trkpt>
      <trkpt lat="42.38954602740705" lon="2.605344029143453">
        <ele>634.13</ele>
        <time>2025-05-15T11:19:10Z</time>
      </trkpt>
      <trkpt lat="42.38954602740705" lon="2.605500016361475">
        <ele>634.13</ele>
        <time>2025-05-15T11:19:11Z</time>
      </trkpt>
      <trkpt lat="42.389536974951625" lon="2.605662038549781">
        <ele>634.61000000000001</ele>
        <time>2025-05-15T11:19:12Z</time>
      </trkpt>
      <trkpt lat="42.389528006315231" lon="2.605828000232577">
        <ele>635.09000000000003</ele>
        <time>2025-05-15T11:19:13Z</time>
      </trkpt>
      <trkpt lat="42.389494981616735" lon="2.605982981622219">
        <ele>635.09000000000003</ele>
        <time>2025-05-15T11:19:14Z</time>
      </trkpt>
      <trkpt lat="42.38943899050355" lon="2.606128994375467">
        <ele>635.57000000000005</ele>
        <time>2025-05-15T11:19:15Z</time>
      </trkpt>
      <trkpt lat="42.389188958331943" lon="2.606488997116685">
        <ele>636.04999999999995</ele>
        <time>2025-05-15T11:19:18Z</time>
      </trkpt>
      <trkpt lat="42.389110000804067" lon="2.606626963242889">
        <ele>636.52999999999997</ele>
        <time>2025-05-15T11:19:19Z</time>
      </trkpt>
      <trkpt lat="42.389079993590713" lon="2.606784040108323">
        <ele>636.52999999999997</ele>
        <time>2025-05-15T11:19:20Z</time>
      </trkpt>
      <trkpt lat="42.389041017740965" lon="2.607124010100961">
        <ele>636.52999999999997</ele>
        <time>2025-05-15T11:19:22Z</time>
      </trkpt>
      <trkpt lat="42.389059038832784" lon="2.607281003147364">
        <ele>636.52999999999997</ele>
        <time>2025-05-15T11:19:23Z</time>
      </trkpt>
      <trkpt lat="42.38909499719739" lon="2.607587026432157">
        <ele>637.00999999999999</ele>
        <time>2025-05-15T11:19:25Z</time>
      </trkpt>
      <trkpt lat="42.389113018289208" lon="2.60774401947856">
        <ele>637.00999999999999</ele>
        <time>2025-05-15T11:19:26Z</time>
      </trkpt>
      <trkpt lat="42.3890720307827" lon="2.607879973948002">
        <ele>636.52999999999997</ele>
        <time>2025-05-15T11:19:27Z</time>
      </trkpt>
      <trkpt lat="42.389014028012753" lon="2.608021041378379">
        <ele>636.52999999999997</ele>
        <time>2025-05-15T11:19:28Z</time>
      </trkpt>
      <trkpt lat="42.388955019414425" lon="2.608164036646485">
        <ele>636.52999999999997</ele>
        <time>2025-05-15T11:19:29Z</time>
      </trkpt>
      <trkpt lat="42.388897016644478" lon="2.608305020257831">
        <ele>637.00999999999999</ele>
        <time>2025-05-15T11:19:30Z</time>
      </trkpt>
      <trkpt lat="42.388855023309588" lon="2.608477016910911">
        <ele>637.49000000000001</ele>
        <time>2025-05-15T11:19:31Z</time>
      </trkpt>
      <trkpt lat="42.388847982510924" lon="2.608637027442455">
        <ele>637.49000000000001</ele>
        <time>2025-05-15T11:19:32Z</time>
      </trkpt>
      <trkpt lat="42.388840019702911" lon="2.608796032145619">
        <ele>637.49000000000001</ele>
        <time>2025-05-15T11:19:33Z</time>
      </trkpt>
      <trkpt lat="42.388845970854163" lon="2.608964005485177">
        <ele>637.97000000000003</ele>
        <time>2025-05-15T11:19:34Z</time>
      </trkpt>
      <trkpt lat="42.38888100720942" lon="2.609468009322882">
        <ele>638.92999999999995</ele>
        <time>2025-05-15T11:19:37Z</time>
      </trkpt>
      <trkpt lat="42.388843037188053" lon="2.609555013477802">
        <ele>639.40999999999997</ele>
        <time>2025-05-15T11:19:38Z</time>
      </trkpt>
      <trkpt lat="42.388780005276203" lon="2.609646962955594">
        <ele>639.88999999999999</ele>
        <time>2025-05-15T11:19:39Z</time>
      </trkpt>
      <trkpt lat="42.38868503831327" lon="2.609721980988979">
        <ele>640.86000000000001</ele>
        <time>2025-05-15T11:19:40Z</time>
      </trkpt>
      <trkpt lat="42.388586970046163" lon="2.609794987365603">
        <ele>641.34000000000003</ele>
        <time>2025-05-15T11:19:41Z</time>
      </trkpt>
      <trkpt lat="42.388499965891242" lon="2.609860030934215">
        <ele>642.29999999999995</ele>
        <time>2025-05-15T11:19:42Z</time>
      </trkpt>
      <trkpt lat="42.388422014191747" lon="2.609938988462091">
        <ele>642.77999999999997</ele>
        <time>2025-05-15T11:19:43Z</time>
      </trkpt>
      <trkpt lat="42.388360993936658" lon="2.610024986788631">
        <ele>643.74000000000001</ele>
        <time>2025-05-15T11:19:44Z</time>
      </trkpt>
      <trkpt lat="42.388297040015459" lon="2.610120037570596">
        <ele>644.22000000000003</ele>
        <time>2025-05-15T11:19:45Z</time>
      </trkpt>
      <trkpt lat="42.388251023367047" lon="2.610223973169923">
        <ele>644.22000000000003</ele>
        <time>2025-05-15T11:19:46Z</time>
      </trkpt>
      <trkpt lat="42.38812998868525" lon="2.6104979775846">
        <ele>644.70000000000005</ele>
        <time>2025-05-15T11:19:49Z</time>
      </trkpt>
      <trkpt lat="42.388055976480246" lon="2.610534019768238">
        <ele>644.70000000000005</ele>
        <time>2025-05-15T11:19:50Z</time>
      </trkpt>
      <trkpt lat="42.387972995638847" lon="2.610576013103128">
        <ele>645.65999999999997</ele>
        <time>2025-05-15T11:19:51Z</time>
      </trkpt>
      <trkpt lat="42.387888003140688" lon="2.610618006438017">
        <ele>645.65999999999997</ele>
        <time>2025-05-15T11:19:52Z</time>
      </trkpt>
      <trkpt lat="42.387800998985767" lon="2.610665028914809">
        <ele>646.13999999999999</ele>
        <time>2025-05-15T11:19:53Z</time>
      </trkpt>
      <trkpt lat="42.38771902397275" lon="2.610713979229331">
        <ele>646.62</ele>
        <time>2025-05-15T11:19:54Z</time>
      </trkpt>
      <trkpt lat="42.387635037302971" lon="2.610764019191265">
        <ele>647.59000000000003</ele>
        <time>2025-05-15T11:19:55Z</time>
      </trkpt>
      <trkpt lat="42.38755096681416" lon="2.610814981162548">
        <ele>648.07000000000005</ele>
        <time>2025-05-15T11:19:56Z</time>
      </trkpt>
      <trkpt lat="42.387463040649891" lon="2.610887987539172">
        <ele>649.02999999999997</ele>
        <time>2025-05-15T11:19:57Z</time>
      </trkpt>
      <trkpt lat="42.38724896684289" lon="2.61111999861896">
        <ele>650.95000000000005</ele>
        <time>2025-05-15T11:20:00Z</time>
      </trkpt>
      <trkpt lat="42.387118963524699" lon="2.611270034685731">
        <ele>651.90999999999997</ele>
        <time>2025-05-15T11:20:02Z</time>
      </trkpt>
      <trkpt lat="42.387060960754752" lon="2.611339017748833">
        <ele>652.38999999999999</ele>
        <time>2025-05-15T11:20:03Z</time>
      </trkpt>
      <trkpt lat="42.38699197769165" lon="2.61141998693347">
        <ele>652.87</ele>
        <time>2025-05-15T11:20:04Z</time>
      </trkpt>
      <trkpt lat="42.386875972151756" lon="2.6116359885782">
        <ele>654.79999999999995</ele>
        <time>2025-05-15T11:20:07Z</time>
      </trkpt>
      <trkpt lat="42.386824004352093" lon="2.611705977469683">
        <ele>654.79999999999995</ele>
        <time>2025-05-15T11:20:08Z</time>
      </trkpt>
      <trkpt lat="42.386750997975469" lon="2.611733973026276">
        <ele>654.79999999999995</ele>
        <time>2025-05-15T11:20:09Z</time>
      </trkpt>
      <trkpt lat="42.386078014969826" lon="2.611986016854644">
        <ele>653.83000000000004</ele>
        <time>2025-05-15T11:20:18Z</time>
      </trkpt>
      <trkpt lat="42.386011965572834" lon="2.612010994926095">
        <ele>653.83000000000004</ele>
        <time>2025-05-15T11:20:19Z</time>
      </trkpt>
      <trkpt lat="42.385983970016241" lon="2.612020969390869">
        <ele>653.83000000000004</ele>
        <time>2025-05-15T11:20:20Z</time>
      </trkpt>
      <trkpt lat="42.385884979739785" lon="2.612048964947462">
        <ele>653.35000000000002</ele>
        <time>2025-05-15T11:20:21Z</time>
      </trkpt>
      <trkpt lat="42.385820019990206" lon="2.612067991867662">
        <ele>652.87</ele>
        <time>2025-05-15T11:20:22Z</time>
      </trkpt>
      <trkpt lat="42.385758999735117" lon="2.6120850071311">
        <ele>652.87</ele>
        <time>2025-05-15T11:20:23Z</time>
      </trkpt>
      <trkpt lat="42.385696973651648" lon="2.612103028222919">
        <ele>652.38999999999999</ele>
        <time>2025-05-15T11:20:24Z</time>
      </trkpt>
      <trkpt lat="42.385639976710081" lon="2.612119037657976">
        <ele>651.90999999999997</ele>
        <time>2025-05-15T11:20:25Z</time>
      </trkpt>
      <trkpt lat="42.385580968111753" lon="2.612135969102383">
        <ele>651.42999999999995</ele>
        <time>2025-05-15T11:20:26Z</time>
      </trkpt>
      <trkpt lat="42.38552900031209" lon="2.612147033214569">
        <ele>651.42999999999995</ele>
        <time>2025-05-15T11:20:27Z</time>
      </trkpt>
      <trkpt lat="42.385464962571859" lon="2.612113002687693">
        <ele>650.95000000000005</ele>
        <time>2025-05-15T11:20:28Z</time>
      </trkpt>
      <trkpt lat="42.385398996993899" lon="2.612076960504055">
        <ele>650.47000000000003</ele>
        <time>2025-05-15T11:20:29Z</time>
      </trkpt>
      <trkpt lat="42.385296989232302" lon="2.612020969390869">
        <ele>650.47000000000003</ele>
        <time>2025-05-15T11:20:30Z</time>
      </trkpt>
      <trkpt lat="42.385262958705425" lon="2.611973024904728">
        <ele>649.50999999999999</ele>
        <time>2025-05-15T11:20:31Z</time>
      </trkpt>
      <trkpt lat="42.385215014219284" lon="2.611905969679356">
        <ele>648.54999999999995</ele>
        <time>2025-05-15T11:20:32Z</time>
      </trkpt>
      <trkpt lat="42.38516497425735" lon="2.611836986616254">
        <ele>647.10000000000002</ele>
        <time>2025-05-15T11:20:33Z</time>
      </trkpt>
      <trkpt lat="42.385116023942828" lon="2.611769009381533">
        <ele>645.65999999999997</ele>
        <time>2025-05-15T11:20:34Z</time>
      </trkpt>
      <trkpt lat="42.385063972324133" lon="2.611697008833289">
        <ele>644.70000000000005</ele>
        <time>2025-05-15T11:20:35Z</time>
      </trkpt>
      <trkpt lat="42.38501301035285" lon="2.611626014113426">
        <ele>644.22000000000003</ele>
        <time>2025-05-15T11:20:36Z</time>
      </trkpt>
      <trkpt lat="42.384964982047677" lon="2.611559964716435">
        <ele>643.74000000000001</ele>
        <time>2025-05-15T11:20:37Z</time>
      </trkpt>
      <trkpt lat="42.384888958185911" lon="2.611485030502081">
        <ele>643.25999999999999</ele>
        <time>2025-05-15T11:20:38Z</time>
      </trkpt>
      <trkpt lat="42.38482098095119" lon="2.611485030502081">
        <ele>642.77999999999997</ele>
        <time>2025-05-15T11:20:39Z</time>
      </trkpt>
      <trkpt lat="42.384750992059708" lon="2.611485030502081">
        <ele>642.29999999999995</ele>
        <time>2025-05-15T11:20:40Z</time>
      </trkpt>
      <trkpt lat="42.384661976248026" lon="2.611497016623616">
        <ele>641.82000000000005</ele>
        <time>2025-05-15T11:20:41Z</time>
      </trkpt>
      <trkpt lat="42.384603973478079" lon="2.611553007736802">
        <ele>641.34000000000003</ele>
        <time>2025-05-15T11:20:42Z</time>
      </trkpt>
      <trkpt lat="42.384543959051371" lon="2.611610004678369">
        <ele>640.86000000000001</ele>
        <time>2025-05-15T11:20:43Z</time>
      </trkpt>
      <trkpt lat="42.38447698764503" lon="2.611673958599567">
        <ele>640.38</ele>
        <time>2025-05-15T11:20:44Z</time>
      </trkpt>
      <trkpt lat="42.38441102206707" lon="2.611736990511417">
        <ele>639.88999999999999</ele>
        <time>2025-05-15T11:20:45Z</time>
      </trkpt>
      <trkpt lat="42.384215975180268" lon="2.611923990771174">
        <ele>637.97000000000003</ele>
        <time>2025-05-15T11:20:48Z</time>
      </trkpt>
      <trkpt lat="42.384152021259069" lon="2.612002026289702">
        <ele>637.49000000000001</ele>
        <time>2025-05-15T11:20:49Z</time>
      </trkpt>
      <trkpt lat="42.384125031530857" lon="2.612084001302719">
        <ele>637.49000000000001</ele>
        <time>2025-05-15T11:20:50Z</time>
      </trkpt>
      <trkpt lat="42.38406702876091" lon="2.61225800961256">
        <ele>637.00999999999999</ele>
        <time>2025-05-15T11:20:52Z</time>
      </trkpt>
      <trkpt lat="42.383873993530869" lon="2.613015985116363">
        <ele>637.97000000000003</ele>
        <time>2025-05-15T11:21:00Z</time>
      </trkpt>
      <trkpt lat="42.383863013237715" lon="2.613196028396487">
        <ele>637.97000000000003</ele>
        <time>2025-05-15T11:21:02Z</time>
      </trkpt>
      <trkpt lat="42.383851027116179" lon="2.613382022827864">
        <ele>637.49000000000001</ele>
        <time>2025-05-15T11:21:04Z</time>
      </trkpt>
      <trkpt lat="42.383844992145896" lon="2.613485958427191">
        <ele>637.00999999999999</ele>
        <time>2025-05-15T11:21:05Z</time>
      </trkpt>
      <trkpt lat="42.383838035166264" lon="2.613588972017169">
        <ele>637.00999999999999</ele>
        <time>2025-05-15T11:21:06Z</time>
      </trkpt>
      <trkpt lat="42.383868964388967" lon="2.613787958398461">
        <ele>637.00999999999999</ele>
        <time>2025-05-15T11:21:08Z</time>
      </trkpt>
      <trkpt lat="42.383884973824024" lon="2.613889966160059">
        <ele>637.00999999999999</ele>
        <time>2025-05-15T11:21:09Z</time>
      </trkpt>
      <trkpt lat="42.383954962715507" lon="2.614348037168384">
        <ele>637.00999999999999</ele>
        <time>2025-05-15T11:21:13Z</time>
      </trkpt>
      <trkpt lat="42.383962003514171" lon="2.614451972767711">
        <ele>636.52999999999997</ele>
        <time>2025-05-15T11:21:14Z</time>
      </trkpt>
      <trkpt lat="42.383944988250732" lon="2.614553980529308">
        <ele>636.52999999999997</ele>
        <time>2025-05-15T11:21:15Z</time>
      </trkpt>
      <trkpt lat="42.383872987702489" lon="2.614843994379044">
        <ele>636.52999999999997</ele>
        <time>2025-05-15T11:21:18Z</time>
      </trkpt>
      <trkpt lat="42.383810039609671" lon="2.614915994927287">
        <ele>636.04999999999995</ele>
        <time>2025-05-15T11:21:19Z</time>
      </trkpt>
      <trkpt lat="42.383728986606002" lon="2.614989001303911">
        <ele>635.57000000000005</ele>
        <time>2025-05-15T11:21:20Z</time>
      </trkpt>
      <trkpt lat="42.383554978296161" lon="2.615038035437465">
        <ele>635.09000000000003</ele>
        <time>2025-05-15T11:21:22Z</time>
      </trkpt>
      <trkpt lat="42.383298994973302" lon="2.615053039044142">
        <ele>633.16999999999996</ele>
        <time>2025-05-15T11:21:25Z</time>
      </trkpt>
      <trkpt lat="42.383128004148602" lon="2.615036023780704">
        <ele>631.72000000000003</ele>
        <time>2025-05-15T11:21:27Z</time>
      </trkpt>
      <trkpt lat="42.383050974458456" lon="2.615027977153659">
        <ele>631.24000000000001</ele>
        <time>2025-05-15T11:21:28Z</time>
      </trkpt>
      <trkpt lat="42.382987020537257" lon="2.614937033504248">
        <ele>630.75999999999999</ele>
        <time>2025-05-15T11:21:29Z</time>
      </trkpt>
      <trkpt lat="42.382961958646774" lon="2.614834019914269">
        <ele>630.27999999999997</ele>
        <time>2025-05-15T11:21:30Z</time>
      </trkpt>
      <trkpt lat="42.382942009717226" lon="2.614737041294575">
        <ele>629.79999999999995</ele>
        <time>2025-05-15T11:21:31Z</time>
      </trkpt>
      <trkpt lat="42.382922982797027" lon="2.614647019654512">
        <ele>629.32000000000005</ele>
        <time>2025-05-15T11:21:32Z</time>
      </trkpt>
      <trkpt lat="42.382893981412053" lon="2.614509975537658">
        <ele>628.84000000000003</ele>
        <time>2025-05-15T11:21:33Z</time>
      </trkpt>
      <trkpt lat="42.38284201361239" lon="2.614468988031149">
        <ele>628.36000000000001</ele>
        <time>2025-05-15T11:21:34Z</time>
      </trkpt>
      <trkpt lat="42.382743023335934" lon="2.614446021616459">
        <ele>627.88</ele>
        <time>2025-05-15T11:21:35Z</time>
      </trkpt>
      <trkpt lat="42.382680997252464" lon="2.614477034658194">
        <ele>627.39999999999998</ele>
        <time>2025-05-15T11:21:36Z</time>
      </trkpt>
      <trkpt lat="42.382615031674504" lon="2.614509975537658">
        <ele>626.91999999999996</ele>
        <time>2025-05-15T11:21:37Z</time>
      </trkpt>
      <trkpt lat="42.382540013641119" lon="2.614601003006101">
        <ele>626.44000000000005</ele>
        <time>2025-05-15T11:21:38Z</time>
      </trkpt>
      <trkpt lat="42.38249802030623" lon="2.614693036302924">
        <ele>625.96000000000004</ele>
        <time>2025-05-15T11:21:39Z</time>
      </trkpt>
      <trkpt lat="42.38245602697134" lon="2.614784985780716">
        <ele>625.47000000000003</ele>
        <time>2025-05-15T11:21:40Z</time>
      </trkpt>
      <trkpt lat="42.38241596147418" lon="2.614871989935637">
        <ele>624.99000000000001</ele>
        <time>2025-05-15T11:21:41Z</time>
      </trkpt>
      <trkpt lat="42.38234899006784" lon="2.615019008517265">
        <ele>623.54999999999995</ele>
        <time>2025-05-15T11:21:43Z</time>
      </trkpt>
      <trkpt lat="42.38228302448988" lon="2.615198967978358">
        <ele>623.54999999999995</ele>
        <time>2025-05-15T11:21:47Z</time>
      </trkpt>
      <trkpt lat="42.382271960377693" lon="2.615268034860492">
        <ele>624.50999999999999</ele>
        <time>2025-05-15T11:21:48Z</time>
      </trkpt>
      <trkpt lat="42.382359970360994" lon="2.615374987944961">
        <ele>624.99000000000001</ele>
        <time>2025-05-15T11:21:49Z</time>
      </trkpt>
      <trkpt lat="42.3823700286448" lon="2.615470960736275">
        <ele>624.99000000000001</ele>
        <time>2025-05-15T11:21:50Z</time>
      </trkpt>
      <trkpt lat="42.382227033376694" lon="2.615546984598041">
        <ele>625.47000000000003</ele>
        <time>2025-05-15T11:21:51Z</time>
      </trkpt>
      <trkpt lat="42.382207000628114" lon="2.615669025108218">
        <ele>625.47000000000003</ele>
        <time>2025-05-15T11:21:52Z</time>
      </trkpt>
      <trkpt lat="42.382189985364676" lon="2.615692997351289">
        <ele>624.99000000000001</ele>
        <time>2025-05-15T11:21:53Z</time>
      </trkpt>
      <trkpt lat="42.382144974544644" lon="2.6157580409199">
        <ele>624.99000000000001</ele>
        <time>2025-05-15T11:21:54Z</time>
      </trkpt>
      <trkpt lat="42.382100969552994" lon="2.615820989012718">
        <ele>624.99000000000001</ele>
        <time>2025-05-15T11:21:55Z</time>
      </trkpt>
      <trkpt lat="42.38189896568656" lon="2.616108991205692">
        <ele>625.47000000000003</ele>
        <time>2025-05-15T11:21:59Z</time>
      </trkpt>
      <trkpt lat="42.381854960694909" lon="2.616172023117542">
        <ele>625.47000000000003</ele>
        <time>2025-05-15T11:22:00Z</time>
      </trkpt>
      <trkpt lat="42.381517002359033" lon="2.616652976721525">
        <ele>627.39999999999998</ele>
        <time>2025-05-15T11:22:06Z</time>
      </trkpt>
      <trkpt lat="42.381285997107625" lon="2.616956988349557">
        <ele>628.84000000000003</ele>
        <time>2025-05-15T11:22:10Z</time>
      </trkpt>
      <trkpt lat="42.381226988509297" lon="2.617035023868084">
        <ele>629.32000000000005</ele>
        <time>2025-05-15T11:22:11Z</time>
      </trkpt>
      <trkpt lat="42.380517041310668" lon="2.617967007681727">
        <ele>638.45000000000005</ele>
        <time>2025-05-15T11:22:24Z</time>
      </trkpt>
      <trkpt lat="42.380334986373782" lon="2.618182003498077">
        <ele>639.88999999999999</ele>
        <time>2025-05-15T11:22:27Z</time>
      </trkpt>
      <trkpt lat="42.380182016640902" lon="2.618246041238308">
        <ele>640.86000000000001</ele>
        <time>2025-05-15T11:22:29Z</time>
      </trkpt>
      <trkpt lat="42.380100963637233" lon="2.61827303096652">
        <ele>641.34000000000003</ele>
        <time>2025-05-15T11:22:30Z</time>
      </trkpt>
      <trkpt lat="42.380023011937737" lon="2.618289040401578">
        <ele>641.82000000000005</ele>
        <time>2025-05-15T11:22:31Z</time>
      </trkpt>
      <trkpt lat="42.379938019439578" lon="2.618293985724449">
        <ele>641.82000000000005</ele>
        <time>2025-05-15T11:22:32Z</time>
      </trkpt>
      <trkpt lat="42.379847997799516" lon="2.618300020694733">
        <ele>642.29999999999995</ele>
        <time>2025-05-15T11:22:33Z</time>
      </trkpt>
      <trkpt lat="42.379759987816215" lon="2.618304966017604">
        <ele>642.29999999999995</ele>
        <time>2025-05-15T11:22:34Z</time>
      </trkpt>
      <trkpt lat="42.379717994481325" lon="2.618307983502746">
        <ele>642.77999999999997</ele>
        <time>2025-05-15T11:22:35Z</time>
      </trkpt>
      <trkpt lat="42.379614980891347" lon="2.618428012356162">
        <ele>642.77999999999997</ele>
        <time>2025-05-15T11:22:36Z</time>
      </trkpt>
      <trkpt lat="42.379554966464639" lon="2.618524990975857">
        <ele>642.77999999999997</ele>
        <time>2025-05-15T11:22:37Z</time>
      </trkpt>
      <trkpt lat="42.379220025613904" lon="2.619065959006548">
        <ele>644.22000000000003</ele>
        <time>2025-05-15T11:22:41Z</time>
      </trkpt>
      <trkpt lat="42.379099996760488" lon="2.619160003960133">
        <ele>644.70000000000005</ele>
        <time>2025-05-15T11:22:42Z</time>
      </trkpt>
      <trkpt lat="42.379009975120425" lon="2.619230998679996">
        <ele>644.70000000000005</ele>
        <time>2025-05-15T11:22:43Z</time>
      </trkpt>
      <trkpt lat="42.378863962367177" lon="2.619282966479659">
        <ele>645.17999999999995</ele>
        <time>2025-05-15T11:22:44Z</time>
      </trkpt>
      <trkpt lat="42.378776036202908" lon="2.619315991178155">
        <ele>645.17999999999995</ele>
        <time>2025-05-15T11:22:45Z</time>
      </trkpt>
      <trkpt lat="42.378663970157504" lon="2.619355972856283">
        <ele>645.65999999999997</ele>
        <time>2025-05-15T11:22:47Z</time>
      </trkpt>
      <trkpt lat="42.378618959337473" lon="2.619371982291341">
        <ele>645.65999999999997</ele>
        <time>2025-05-15T11:22:48Z</time>
      </trkpt>
      <trkpt lat="42.378572020679712" lon="2.619388997554779">
        <ele>645.65999999999997</ele>
        <time>2025-05-15T11:22:49Z</time>
      </trkpt>
      <trkpt lat="42.378515023738146" lon="2.61941003613174">
        <ele>646.13999999999999</ele>
        <time>2025-05-15T11:22:50Z</time>
      </trkpt>
      <trkpt lat="42.378444029018283" lon="2.619436020031571">
        <ele>646.13999999999999</ele>
        <time>2025-05-15T11:22:51Z</time>
      </trkpt>
      <trkpt lat="42.378358030691743" lon="2.619467033073306">
        <ele>646.13999999999999</ele>
        <time>2025-05-15T11:22:52Z</time>
      </trkpt>
      <trkpt lat="42.378259962424636" lon="2.619501985609531">
        <ele>646.13999999999999</ele>
        <time>2025-05-15T11:22:53Z</time>
      </trkpt>
      <trkpt lat="42.378037003800273" lon="2.6195830386132">
        <ele>646.62</ele>
        <time>2025-05-15T11:22:55Z</time>
      </trkpt>
      <trkpt lat="42.377909012138844" lon="2.619586978107691">
        <ele>646.62</ele>
        <time>2025-05-15T11:22:56Z</time>
      </trkpt>
      <trkpt lat="42.377400984987617" lon="2.619530986994505">
        <ele>648.07000000000005</ele>
        <time>2025-05-15T11:23:00Z</time>
      </trkpt>
      <trkpt lat="42.377277016639709" lon="2.619571974501014">
        <ele>648.54999999999995</ele>
        <time>2025-05-15T11:23:01Z</time>
      </trkpt>
      <trkpt lat="42.376685002818704" lon="2.619716981425881">
        <ele>649.50999999999999</ele>
        <time>2025-05-15T11:23:05Z</time>
      </trkpt>
      <trkpt lat="42.376210000365973" lon="2.619781019166112">
        <ele>650.47000000000003</ele>
        <time>2025-05-15T11:23:08Z</time>
      </trkpt>
      <trkpt lat="42.376067005097866" lon="2.619813038036227">
        <ele>650.95000000000005</ele>
        <time>2025-05-15T11:23:09Z</time>
      </trkpt>
      <trkpt lat="42.375920992344618" lon="2.61986299417913">
        <ele>650.95000000000005</ele>
        <time>2025-05-15T11:23:10Z</time>
      </trkpt>
      <trkpt lat="42.375622009858489" lon="2.620008001103997">
        <ele>651.90999999999997</ele>
        <time>2025-05-15T11:23:12Z</time>
      </trkpt>
      <trkpt lat="42.375479014590383" lon="2.62007798999548">
        <ele>652.38999999999999</ele>
        <time>2025-05-15T11:23:13Z</time>
      </trkpt>
      <trkpt lat="42.375346999615431" lon="2.62014202773571">
        <ele>653.35000000000002</ele>
        <time>2025-05-15T11:23:14Z</time>
      </trkpt>
      <trkpt lat="42.375228982418776" lon="2.620199024677277">
        <ele>653.83000000000004</ele>
        <time>2025-05-15T11:23:15Z</time>
      </trkpt>
      <trkpt lat="42.375120017677546" lon="2.620273036882281">
        <ele>654.79999999999995</ele>
        <time>2025-05-15T11:23:16Z</time>
      </trkpt>
      <trkpt lat="42.375032007694244" lon="2.620395999401808">
        <ele>655.75999999999999</ele>
        <time>2025-05-15T11:23:17Z</time>
      </trkpt>
      <trkpt lat="42.37498096190393" lon="2.620561039075255">
        <ele>656.72000000000003</ele>
        <time>2025-05-15T11:23:18Z</time>
      </trkpt>
      <trkpt lat="42.374922959133983" lon="2.620749967172742">
        <ele>657.20000000000005</ele>
        <time>2025-05-15T11:23:19Z</time>
      </trkpt>
      <trkpt lat="42.374534038826823" lon="2.62190499342978">
        <ele>661.03999999999996</ele>
        <time>2025-05-15T11:23:24Z</time>
      </trkpt>
      <trkpt lat="42.374415015801787" lon="2.622125018388033">
        <ele>662.00999999999999</ele>
        <time>2025-05-15T11:23:25Z</time>
      </trkpt>
      <trkpt lat="42.373887961730361" lon="2.622750978916884">
        <ele>665.85000000000002</ele>
        <time>2025-05-15T11:23:29Z</time>
      </trkpt>
      <trkpt lat="42.373749995604157" lon="2.622804958373308">
        <ele>667.28999999999996</ele>
        <time>2025-05-15T11:23:30Z</time>
      </trkpt>
      <trkpt lat="42.373559977859259" lon="2.622878970578313">
        <ele>668.73000000000002</ele>
        <time>2025-05-15T11:23:31Z</time>
      </trkpt>
      <trkpt lat="42.373435003682971" lon="2.622834965586662">
        <ele>669.70000000000005</ele>
        <time>2025-05-15T11:23:32Z</time>
      </trkpt>
      <trkpt lat="42.373270969837904" lon="2.622776962816715">
        <ele>670.65999999999997</ele>
        <time>2025-05-15T11:23:33Z</time>
      </trkpt>
      <trkpt lat="42.373105008155107" lon="2.622718038037419">
        <ele>672.10000000000002</ele>
        <time>2025-05-15T11:23:34Z</time>
      </trkpt>
      <trkpt lat="42.37294097431004" lon="2.622655006125569">
        <ele>673.05999999999995</ele>
        <time>2025-05-15T11:23:35Z</time>
      </trkpt>
      <trkpt lat="42.372780963778496" lon="2.622591974213719">
        <ele>674.5</ele>
        <time>2025-05-15T11:23:36Z</time>
      </trkpt>
      <trkpt lat="42.372650960460305" lon="2.622577976435423">
        <ele>675.46000000000004</ele>
        <time>2025-05-15T11:23:37Z</time>
      </trkpt>
      <trkpt lat="42.372526992112398" lon="2.622589962556958">
        <ele>676.90999999999997</ele>
        <time>2025-05-15T11:23:38Z</time>
      </trkpt>
      <trkpt lat="42.372336974367499" lon="2.622685013338924">
        <ele>678.35000000000002</ele>
        <time>2025-05-15T11:23:39Z</time>
      </trkpt>
      <trkpt lat="42.372231027111411" lon="2.62278500944376">
        <ele>679.78999999999996</ele>
        <time>2025-05-15T11:23:40Z</time>
      </trkpt>
      <trkpt lat="42.372078979387879" lon="2.622926998883486">
        <ele>680.75</ele>
        <time>2025-05-15T11:23:41Z</time>
      </trkpt>
      <trkpt lat="42.371927015483379" lon="2.623068988323212">
        <ele>682.19000000000005</ele>
        <time>2025-05-15T11:23:42Z</time>
      </trkpt>
      <trkpt lat="42.371634989976883" lon="2.623331006616354">
        <ele>684.60000000000002</ele>
        <time>2025-05-15T11:23:44Z</time>
      </trkpt>
      <trkpt lat="42.371486965566874" lon="2.623424967750907">
        <ele>685.55999999999995</ele>
        <time>2025-05-15T11:23:45Z</time>
      </trkpt>
      <trkpt lat="42.371318992227316" lon="2.623405018821359">
        <ele>687.48000000000002</ele>
        <time>2025-05-15T11:23:46Z</time>
      </trkpt>
      <trkpt lat="42.371167028322816" lon="2.623336035758257">
        <ele>688.44000000000005</ele>
        <time>2025-05-15T11:23:47Z</time>
      </trkpt>
      <trkpt lat="42.371011963114142" lon="2.623265041038394">
        <ele>689.88</ele>
        <time>2025-05-15T11:23:48Z</time>
      </trkpt>
      <trkpt lat="42.370851030573249" lon="2.62319203466177">
        <ele>691.80999999999995</ele>
        <time>2025-05-15T11:23:49Z</time>
      </trkpt>
      <trkpt lat="42.370523968711495" lon="2.623120034113526">
        <ele>694.69000000000005</ele>
        <time>2025-05-15T11:23:51Z</time>
      </trkpt>
      <trkpt lat="42.370449034497142" lon="2.623115004971623">
        <ele>696.13</ele>
        <time>2025-05-15T11:23:52Z</time>
      </trkpt>
      <trkpt lat="42.370320037007332" lon="2.623199997469783">
        <ele>697.57000000000005</ele>
        <time>2025-05-15T11:23:53Z</time>
      </trkpt>
      <trkpt lat="42.370216017588973" lon="2.623334024101496">
        <ele>699.01999999999998</ele>
        <time>2025-05-15T11:23:54Z</time>
      </trkpt>
      <trkpt lat="42.370135970413685" lon="2.623467966914177">
        <ele>700.94000000000005</ele>
        <time>2025-05-15T11:23:55Z</time>
      </trkpt>
      <trkpt lat="42.370048966258764" lon="2.623657984659076">
        <ele>702.38</ele>
        <time>2025-05-15T11:23:56Z</time>
      </trkpt>
      <trkpt lat="42.36928797326982" lon="2.625243002548814">
        <ele>711.02999999999997</ele>
        <time>2025-05-15T11:24:03Z</time>
      </trkpt>
      <trkpt lat="42.369108013808727" lon="2.625651033595204">
        <ele>712.47000000000003</ele>
        <time>2025-05-15T11:24:05Z</time>
      </trkpt>
      <trkpt lat="42.369077000766993" lon="2.625849014148116">
        <ele>712.47000000000003</ele>
        <time>2025-05-15T11:24:06Z</time>
      </trkpt>
      <trkpt lat="42.3690490052104" lon="2.626026961952448">
        <ele>712.95000000000005</ele>
        <time>2025-05-15T11:24:07Z</time>
      </trkpt>
      <trkpt lat="42.368971975520253" lon="2.626582011580467">
        <ele>713.44000000000005</ele>
        <time>2025-05-15T11:24:10Z</time>
      </trkpt>
      <trkpt lat="42.369001982733607" lon="2.626805976033211">
        <ele>713.91999999999996</ele>
        <time>2025-05-15T11:24:11Z</time>
      </trkpt>
      <trkpt lat="42.369160987436771" lon="2.62819997034967">
        <ele>717.27999999999997</ele>
        <time>2025-05-15T11:24:16Z</time>
      </trkpt>
      <trkpt lat="42.369150007143617" lon="2.628429969772697">
        <ele>718.24000000000001</ele>
        <time>2025-05-15T11:24:17Z</time>
      </trkpt>
      <trkpt lat="42.369132991880178" lon="2.628701040521264">
        <ele>718.72000000000003</ele>
        <time>2025-05-15T11:24:18Z</time>
      </trkpt>
      <trkpt lat="42.368978010490537" lon="2.630122024565935">
        <ele>722.57000000000005</ele>
        <time>2025-05-15T11:24:23Z</time>
      </trkpt>
      <trkpt lat="42.368991002440453" lon="2.630402985960245">
        <ele>723.52999999999997</ele>
        <time>2025-05-15T11:24:24Z</time>
      </trkpt>
      <trkpt lat="42.369011035189033" lon="2.631245031952858">
        <ele>724.49000000000001</ele>
        <time>2025-05-15T11:24:27Z</time>
      </trkpt>
      <trkpt lat="42.369011035189033" lon="2.631533034145832">
        <ele>724.97000000000003</ele>
        <time>2025-05-15T11:24:28Z</time>
      </trkpt>
      <trkpt lat="42.368842978030443" lon="2.633475037291646">
        <ele>731.22000000000003</ele>
        <time>2025-05-15T11:24:35Z</time>
      </trkpt>
      <trkpt lat="42.3687709774822" lon="2.633954985067248">
        <ele>733.62</ele>
        <time>2025-05-15T11:24:37Z</time>
      </trkpt>
      <trkpt lat="42.368721021339297" lon="2.634209962561727">
        <ele>735.07000000000005</ele>
        <time>2025-05-15T11:24:38Z</time>
      </trkpt>
      <trkpt lat="42.368668969720602" lon="2.63447399251163">
        <ele>735.54999999999995</ele>
        <time>2025-05-15T11:24:39Z</time>
      </trkpt>
      <trkpt lat="42.368581965565681" lon="2.634992999956012">
        <ele>737.95000000000005</ele>
        <time>2025-05-15T11:24:41Z</time>
      </trkpt>
      <trkpt lat="42.368581965565681" lon="2.635255018249154">
        <ele>738.42999999999995</ele>
        <time>2025-05-15T11:24:42Z</time>
      </trkpt>
      <trkpt lat="42.368566961959004" lon="2.636056998744607">
        <ele>740.83000000000004</ele>
        <time>2025-05-15T11:24:45Z</time>
      </trkpt>
      <trkpt lat="42.368550030514598" lon="2.636293033137918">
        <ele>741.78999999999996</ele>
        <time>2025-05-15T11:24:46Z</time>
      </trkpt>
      <trkpt lat="42.368520023301244" lon="2.636478021740913">
        <ele>742.75999999999999</ele>
        <time>2025-05-15T11:24:47Z</time>
      </trkpt>
      <trkpt lat="42.368449028581381" lon="2.636620011180639">
        <ele>743.72000000000003</ele>
        <time>2025-05-15T11:24:48Z</time>
      </trkpt>
      <trkpt lat="42.368381973356009" lon="2.636754037812352">
        <ele>744.67999999999995</ele>
        <time>2025-05-15T11:24:49Z</time>
      </trkpt>
      <trkpt lat="42.368366969749331" lon="2.636900972574949">
        <ele>745.15999999999997</ele>
        <time>2025-05-15T11:24:50Z</time>
      </trkpt>
      <trkpt lat="42.368374010547996" lon="2.637060983106494">
        <ele>745.63999999999999</ele>
        <time>2025-05-15T11:24:51Z</time>
      </trkpt>
      <trkpt lat="42.368389014154673" lon="2.637251000851393">
        <ele>746.12</ele>
        <time>2025-05-15T11:24:52Z</time>
      </trkpt>
      <trkpt lat="42.368468977510929" lon="2.638153983280063">
        <ele>747.55999999999995</ele>
        <time>2025-05-15T11:24:56Z</time>
      </trkpt>
      <trkpt lat="42.368652960285544" lon="2.639088984578848">
        <ele>751.88999999999999</ele>
        <time>2025-05-15T11:25:00Z</time>
      </trkpt>
      <trkpt lat="42.368654971942306" lon="2.639328958466649">
        <ele>753.33000000000004</ele>
        <time>2025-05-15T11:25:01Z</time>
      </trkpt>
      <trkpt lat="42.368636028841138" lon="2.639576978981495">
        <ele>754.28999999999996</ele>
        <time>2025-05-15T11:25:02Z</time>
      </trkpt>
      <trkpt lat="42.368586994707584" lon="2.640206962823868">
        <ele>757.65999999999997</ele>
        <time>2025-05-15T11:25:05Z</time>
      </trkpt>
      <trkpt lat="42.3686190135777" lon="2.640387006103993">
        <ele>758.62</ele>
        <time>2025-05-15T11:25:06Z</time>
      </trkpt>
      <trkpt lat="42.368681039661169" lon="2.640567971393466">
        <ele>759.58000000000004</ele>
        <time>2025-05-15T11:25:07Z</time>
      </trkpt>
      <trkpt lat="42.369015980511904" lon="2.641389984637499">
        <ele>763.89999999999998</ele>
        <time>2025-05-15T11:25:11Z</time>
      </trkpt>
      <trkpt lat="42.369099967181683" lon="2.641572039574385">
        <ele>764.38999999999999</ele>
        <time>2025-05-15T11:25:12Z</time>
      </trkpt>
      <trkpt lat="42.369215972721577" lon="2.641681004315615">
        <ele>765.35000000000002</ele>
        <time>2025-05-15T11:25:13Z</time>
      </trkpt>
      <trkpt lat="42.369331978261471" lon="2.641764990985394">
        <ele>766.30999999999995</ele>
        <time>2025-05-15T11:25:14Z</time>
      </trkpt>
      <trkpt lat="42.369439015164971" lon="2.641843026503921">
        <ele>767.26999999999998</ele>
        <time>2025-05-15T11:25:15Z</time>
      </trkpt>
      <trkpt lat="42.369519984349608" lon="2.641931958496571">
        <ele>767.75</ele>
        <time>2025-05-15T11:25:16Z</time>
      </trkpt>
      <trkpt lat="42.369558960199356" lon="2.642034972086549">
        <ele>768.71000000000004</ele>
        <time>2025-05-15T11:25:17Z</time>
      </trkpt>
      <trkpt lat="42.369538005441427" lon="2.642164975404739">
        <ele>770.14999999999998</ele>
        <time>2025-05-15T11:25:18Z</time>
      </trkpt>
      <trkpt lat="42.369485031813383" lon="2.642291039228439">
        <ele>771.60000000000002</ele>
        <time>2025-05-15T11:25:19Z</time>
      </trkpt>
      <trkpt lat="42.369390986859798" lon="2.642360022291541">
        <ele>773.03999999999996</ele>
        <time>2025-05-15T11:25:20Z</time>
      </trkpt>
      <trkpt lat="42.36928696744144" lon="2.642436968162656">
        <ele>774</ele>
        <time>2025-05-15T11:25:21Z</time>
      </trkpt>
      <trkpt lat="42.368987984955311" lon="2.642704015597701">
        <ele>776.88</ele>
        <time>2025-05-15T11:25:24Z</time>
      </trkpt>
      <trkpt lat="42.368934005498886" lon="2.64285103417933">
        <ele>778.32000000000005</ele>
        <time>2025-05-15T11:25:25Z</time>
      </trkpt>
      <trkpt lat="42.368874996900558" lon="2.643009033054113">
        <ele>779.28999999999996</ele>
        <time>2025-05-15T11:25:26Z</time>
      </trkpt>
      <trkpt lat="42.368703000247478" lon="2.643512031063438">
        <ele>782.64999999999998</ele>
        <time>2025-05-15T11:25:29Z</time>
      </trkpt>
      <trkpt lat="42.368677016347647" lon="2.643687967211008">
        <ele>784.09000000000003</ele>
        <time>2025-05-15T11:25:30Z</time>
      </trkpt>
      <trkpt lat="42.368695959448814" lon="2.643872033804655">
        <ele>785.04999999999995</ele>
        <time>2025-05-15T11:25:31Z</time>
      </trkpt>
      <trkpt lat="42.368768965825438" lon="2.64446496963501">
        <ele>787.94000000000005</ele>
        <time>2025-05-15T11:25:34Z</time>
      </trkpt>
      <trkpt lat="42.368758991360664" lon="2.644663034006953">
        <ele>788.89999999999998</ele>
        <time>2025-05-15T11:25:35Z</time>
      </trkpt>
      <trkpt lat="42.368711968883872" lon="2.644865959882736">
        <ele>789.38</ele>
        <time>2025-05-15T11:25:36Z</time>
      </trkpt>
      <trkpt lat="42.368628988042474" lon="2.645327970385552">
        <ele>791.29999999999995</ele>
        <time>2025-05-15T11:25:38Z</time>
      </trkpt>
      <trkpt lat="42.36851298250258" lon="2.646001959219575">
        <ele>794.19000000000005</ele>
        <time>2025-05-15T11:25:41Z</time>
      </trkpt>
      <trkpt lat="42.368439976125956" lon="2.646207986399531">
        <ele>795.14999999999998</ele>
        <time>2025-05-15T11:25:42Z</time>
      </trkpt>
      <trkpt lat="42.368337968364358" lon="2.646404961124063">
        <ele>796.59000000000003</ele>
        <time>2025-05-15T11:25:43Z</time>
      </trkpt>
      <trkpt lat="42.368139987811446" lon="2.646789019927383">
        <ele>798.50999999999999</ele>
        <time>2025-05-15T11:25:45Z</time>
      </trkpt>
      <trkpt lat="42.368076033890247" lon="2.646971996873617">
        <ele>799.47000000000003</ele>
        <time>2025-05-15T11:25:46Z</time>
      </trkpt>
      <trkpt lat="42.368046026676893" lon="2.647167965769768">
        <ele>800.91999999999996</ele>
        <time>2025-05-15T11:25:47Z</time>
      </trkpt>
      <trkpt lat="42.3680180311203" lon="2.647347003221512">
        <ele>801.88</ele>
        <time>2025-05-15T11:25:48Z</time>
      </trkpt>
      <trkpt lat="42.367987018078566" lon="2.647509025409818">
        <ele>803.32000000000005</ele>
        <time>2025-05-15T11:25:49Z</time>
      </trkpt>
      <trkpt lat="42.367922980338335" lon="2.647765008732677">
        <ele>805.72000000000003</ele>
        <time>2025-05-15T11:25:51Z</time>
      </trkpt>
      <trkpt lat="42.367895990610123" lon="2.647873973473907">
        <ele>806.67999999999995</ele>
        <time>2025-05-15T11:25:52Z</time>
      </trkpt>
      <trkpt lat="42.367870006710291" lon="2.647975981235504">
        <ele>807.15999999999997</ele>
        <time>2025-05-15T11:25:53Z</time>
      </trkpt>
      <trkpt lat="42.36780596897006" lon="2.648156024515629">
        <ele>809.09000000000003</ele>
        <time>2025-05-15T11:25:55Z</time>
      </trkpt>
      <trkpt lat="42.367691975086927" lon="2.64841603115201">
        <ele>811.49000000000001</ele>
        <time>2025-05-15T11:25:58Z</time>
      </trkpt>
      <trkpt lat="42.36761000007391" lon="2.648581992834806">
        <ele>812.92999999999995</ele>
        <time>2025-05-15T11:26:00Z</time>
      </trkpt>
      <trkpt lat="42.367560965940356" lon="2.648652987554669">
        <ele>813.40999999999997</ele>
        <time>2025-05-15T11:26:01Z</time>
      </trkpt>
      <trkpt lat="42.367507992312312" lon="2.648730017244816">
        <ele>813.88999999999999</ele>
        <time>2025-05-15T11:26:02Z</time>
      </trkpt>
      <trkpt lat="42.367457030341029" lon="2.648805035278201">
        <ele>813.88999999999999</ele>
        <time>2025-05-15T11:26:03Z</time>
      </trkpt>
      <trkpt lat="42.367401961237192" lon="2.648884998634458">
        <ele>814.37</ele>
        <time>2025-05-15T11:26:04Z</time>
      </trkpt>
      <trkpt lat="42.367239017039537" lon="2.649280037730932">
        <ele>814.85000000000002</ele>
        <time>2025-05-15T11:26:09Z</time>
      </trkpt>
      <trkpt lat="42.367208003997803" lon="2.649354971945286">
        <ele>814.85000000000002</ele>
        <time>2025-05-15T11:26:10Z</time>
      </trkpt>
      <trkpt lat="42.36718101426959" lon="2.649422027170658">
        <ele>814.85000000000002</ele>
        <time>2025-05-15T11:26:11Z</time>
      </trkpt>
      <trkpt lat="42.367154024541378" lon="2.649486986920238">
        <ele>814.85000000000002</ele>
        <time>2025-05-15T11:26:12Z</time>
      </trkpt>
      <trkpt lat="42.367123011499643" lon="2.649563010782003">
        <ele>814.85000000000002</ele>
        <time>2025-05-15T11:26:13Z</time>
      </trkpt>
      <trkpt lat="42.366930982097983" lon="2.64998696744442">
        <ele>814.85000000000002</ele>
        <time>2025-05-15T11:26:18Z</time>
      </trkpt>
      <trkpt lat="42.366896029561758" lon="2.650074977427721">
        <ele>814.85000000000002</ele>
        <time>2025-05-15T11:26:19Z</time>
      </trkpt>
      <trkpt lat="42.366552036255598" lon="2.651298986747861">
        <ele>817.74000000000001</ele>
        <time>2025-05-15T11:26:29Z</time>
      </trkpt>
      <trkpt lat="42.366328993812203" lon="2.652294002473354">
        <ele>818.70000000000005</ele>
        <time>2025-05-15T11:26:35Z</time>
      </trkpt>
      <trkpt lat="42.366337040439248" lon="2.652484020218253">
        <ele>818.22000000000003</ele>
        <time>2025-05-15T11:26:36Z</time>
      </trkpt>
      <trkpt lat="42.366345003247261" lon="2.652687029913068">
        <ele>817.74000000000001</ele>
        <time>2025-05-15T11:26:37Z</time>
      </trkpt>
      <trkpt lat="42.366336034610868" lon="2.653522035107017">
        <ele>814.85000000000002</ele>
        <time>2025-05-15T11:26:41Z</time>
      </trkpt>
      <trkpt lat="42.366294041275978" lon="2.653718004003167">
        <ele>813.88999999999999</ele>
        <time>2025-05-15T11:26:42Z</time>
      </trkpt>
      <trkpt lat="42.366251964122057" lon="2.653915984556079">
        <ele>812.92999999999995</ele>
        <time>2025-05-15T11:26:43Z</time>
      </trkpt>
      <trkpt lat="42.366207037121058" lon="2.654122011736035">
        <ele>811.97000000000003</ele>
        <time>2025-05-15T11:26:44Z</time>
      </trkpt>
      <trkpt lat="42.366156997159123" lon="2.654357040300965">
        <ele>811.00999999999999</ele>
        <time>2025-05-15T11:26:45Z</time>
      </trkpt>
      <trkpt lat="42.365716025233269" lon="2.65559496358037">
        <ele>804.27999999999997</ele>
        <time>2025-05-15T11:26:51Z</time>
      </trkpt>
      <trkpt lat="42.365624997764826" lon="2.655757991597056">
        <ele>803.32000000000005</ele>
        <time>2025-05-15T11:26:52Z</time>
      </trkpt>
      <trkpt lat="42.365556014701724" lon="2.655880032107234">
        <ele>802.36000000000001</ele>
        <time>2025-05-15T11:26:53Z</time>
      </trkpt>
      <trkpt lat="42.365530030801892" lon="2.656072983518243">
        <ele>800.91999999999996</ele>
        <time>2025-05-15T11:26:54Z</time>
      </trkpt>
      <trkpt lat="42.365506980568171" lon="2.656235005706549">
        <ele>799.95000000000005</ele>
        <time>2025-05-15T11:26:55Z</time>
      </trkpt>
      <trkpt lat="42.365484014153481" lon="2.656401973217726">
        <ele>798.99000000000001</ele>
        <time>2025-05-15T11:26:56Z</time>
      </trkpt>
      <trkpt lat="42.365470016375184" lon="2.656502975150943">
        <ele>797.54999999999995</ele>
        <time>2025-05-15T11:26:57Z</time>
      </trkpt>
      <trkpt lat="42.365385023877025" lon="2.656653011217713">
        <ele>796.11000000000001</ele>
        <time>2025-05-15T11:26:58Z</time>
      </trkpt>
      <trkpt lat="42.365233981981874" lon="2.656845962628722">
        <ele>794.66999999999996</ele>
        <time>2025-05-15T11:26:59Z</time>
      </trkpt>
      <trkpt lat="42.365104984492064" lon="2.656941013410687">
        <ele>793.22000000000003</ele>
        <time>2025-05-15T11:27:00Z</time>
      </trkpt>
      <trkpt lat="42.36494698561728" lon="2.657058024778962">
        <ele>791.77999999999997</ele>
        <time>2025-05-15T11:27:01Z</time>
      </trkpt>
      <trkpt lat="42.364794015884399" lon="2.657202025875449">
        <ele>790.82000000000005</ele>
        <time>2025-05-15T11:27:02Z</time>
      </trkpt>
      <trkpt lat="42.364686978980899" lon="2.657381985336542">
        <ele>789.38</ele>
        <time>2025-05-15T11:27:03Z</time>
      </trkpt>
      <trkpt lat="42.364576002582908" lon="2.657568985596299">
        <ele>787.94000000000005</ele>
        <time>2025-05-15T11:27:04Z</time>
      </trkpt>
      <trkpt lat="42.364465026184916" lon="2.657738970592618">
        <ele>786.98000000000002</ele>
        <time>2025-05-15T11:27:05Z</time>
      </trkpt>
      <trkpt lat="42.364320019260049" lon="2.657843995839357">
        <ele>785.52999999999997</ele>
        <time>2025-05-15T11:27:06Z</time>
      </trkpt>
      <trkpt lat="42.364183980971575" lon="2.657942986115813">
        <ele>784.09000000000003</ele>
        <time>2025-05-15T11:27:07Z</time>
      </trkpt>
      <trkpt lat="42.364074010401964" lon="2.658023033291102">
        <ele>783.13</ele>
        <time>2025-05-15T11:27:08Z</time>
      </trkpt>
      <trkpt lat="42.36400100402534" lon="2.658104002475739">
        <ele>782.16999999999996</ele>
        <time>2025-05-15T11:27:09Z</time>
      </trkpt>
      <trkpt lat="42.363978959619999" lon="2.658182960003614">
        <ele>781.69000000000005</ele>
        <time>2025-05-15T11:27:10Z</time>
      </trkpt>
      <trkpt lat="42.363983988761902" lon="2.658242974430323">
        <ele>780.73000000000002</ele>
        <time>2025-05-15T11:27:11Z</time>
      </trkpt>
      <trkpt lat="42.364010978490114" lon="2.658283961936832">
        <ele>779.76999999999998</ele>
        <time>2025-05-15T11:27:12Z</time>
      </trkpt>
      <trkpt lat="42.36410896293819" lon="2.658283961936832">
        <ele>778.80999999999995</ele>
        <time>2025-05-15T11:27:13Z</time>
      </trkpt>
      <trkpt lat="42.364212982356548" lon="2.658207016065717">
        <ele>777.84000000000003</ele>
        <time>2025-05-15T11:27:14Z</time>
      </trkpt>
      <trkpt lat="42.364327982068062" lon="2.658110959455371">
        <ele>776.88</ele>
        <time>2025-05-15T11:27:15Z</time>
      </trkpt>
      <trkpt lat="42.365084029734135" lon="2.657490028068423">
        <ele>768.71000000000004</ele>
        <time>2025-05-15T11:27:20Z</time>
      </trkpt>
      <trkpt lat="42.365250997245312" lon="2.657471001148224">
        <ele>766.78999999999996</ele>
        <time>2025-05-15T11:27:21Z</time>
      </trkpt>
      <trkpt lat="42.365414025261998" lon="2.657452980056405">
        <ele>764.87</ele>
        <time>2025-05-15T11:27:22Z</time>
      </trkpt>
      <trkpt lat="42.36556900665164" lon="2.657435964792967">
        <ele>762.94000000000005</ele>
        <time>2025-05-15T11:27:23Z</time>
      </trkpt>
      <trkpt lat="42.36572097055614" lon="2.657385002821684">
        <ele>761.5</ele>
        <time>2025-05-15T11:27:24Z</time>
      </trkpt>
      <trkpt lat="42.365843011066318" lon="2.657300010323525">
        <ele>760.05999999999995</ele>
        <time>2025-05-15T11:27:25Z</time>
      </trkpt>
      <trkpt lat="42.365940995514393" lon="2.657137988135219">
        <ele>759.10000000000002</ele>
        <time>2025-05-15T11:27:26Z</time>
      </trkpt>
      <trkpt lat="42.3660200368613" lon="2.656962973996997">
        <ele>757.65999999999997</ele>
        <time>2025-05-15T11:27:27Z</time>
      </trkpt>
      <trkpt lat="42.366107041016221" lon="2.656772034242749">
        <ele>756.21000000000004</ele>
        <time>2025-05-15T11:27:28Z</time>
      </trkpt>
      <trkpt lat="42.366511970758438" lon="2.655696971341968">
        <ele>750.45000000000005</ele>
        <time>2025-05-15T11:27:33Z</time>
      </trkpt>
      <trkpt lat="42.366592017933726" lon="2.655496979132295">
        <ele>749.97000000000003</ele>
        <time>2025-05-15T11:27:34Z</time>
      </trkpt>
      <trkpt lat="42.366688996553421" lon="2.655302016064525">
        <ele>749</ele>
        <time>2025-05-15T11:27:35Z</time>
      </trkpt>
      <trkpt lat="42.366826040670276" lon="2.655128007754684">
        <ele>748.51999999999998</ele>
        <time>2025-05-15T11:27:36Z</time>
      </trkpt>
      <trkpt lat="42.366968030110002" lon="2.654946958646178">
        <ele>747.08000000000004</ele>
        <time>2025-05-15T11:27:37Z</time>
      </trkpt>
      <trkpt lat="42.367256032302976" lon="2.654561977833509">
        <ele>745.63999999999999</ele>
        <time>2025-05-15T11:27:39Z</time>
      </trkpt>
      <trkpt lat="42.367535987868905" lon="2.654001982882619">
        <ele>742.75999999999999</ele>
        <time>2025-05-15T11:27:42Z</time>
      </trkpt>
      <trkpt lat="42.367620980367064" lon="2.653914978727698">
        <ele>741.78999999999996</ele>
        <time>2025-05-15T11:27:43Z</time>
      </trkpt>
      <trkpt lat="42.367700021713972" lon="2.653884971514344">
        <ele>740.35000000000002</ele>
        <time>2025-05-15T11:27:44Z</time>
      </trkpt>
      <trkpt lat="42.367765987291932" lon="2.653884971514344">
        <ele>738.90999999999997</ele>
        <time>2025-05-15T11:27:45Z</time>
      </trkpt>
      <trkpt lat="42.367813009768724" lon="2.653969964012504">
        <ele>737.47000000000003</ele>
        <time>2025-05-15T11:27:46Z</time>
      </trkpt>
      <trkpt lat="42.367894984781742" lon="2.654121005907655">
        <ele>736.02999999999997</ele>
        <time>2025-05-15T11:27:47Z</time>
      </trkpt>
      <trkpt lat="42.367903031408787" lon="2.654247991740704">
        <ele>734.58000000000004</ele>
        <time>2025-05-15T11:27:48Z</time>
      </trkpt>
      <trkpt lat="42.367915017530322" lon="2.654443960636854">
        <ele>733.62</ele>
        <time>2025-05-15T11:27:49Z</time>
      </trkpt>
      <trkpt lat="42.36793396063149" lon="2.655695965513587">
        <ele>728.34000000000003</ele>
        <time>2025-05-15T11:27:54Z</time>
      </trkpt>
      <trkpt lat="42.367919962853193" lon="2.655985979363322">
        <ele>726.88999999999999</ele>
        <time>2025-05-15T11:27:55Z</time>
      </trkpt>
      <trkpt lat="42.367861960083246" lon="2.658203998580575">
        <ele>714.88</ele>
        <time>2025-05-15T11:28:03Z</time>
      </trkpt>
      <trkpt lat="42.367817033082247" lon="2.659679967910051">
        <ele>702.86000000000001</ele>
        <time>2025-05-15T11:28:10Z</time>
      </trkpt>
      <trkpt lat="42.367817033082247" lon="2.65984601341188">
        <ele>701.41999999999996</ele>
        <time>2025-05-15T11:28:11Z</time>
      </trkpt>
      <trkpt lat="42.367831030860543" lon="2.659999988973141">
        <ele>700.46000000000004</ele>
        <time>2025-05-15T11:28:12Z</time>
      </trkpt>
      <trkpt lat="42.367861960083246" lon="2.660165028646588">
        <ele>699.01999999999998</ele>
        <time>2025-05-15T11:28:13Z</time>
      </trkpt>
      <trkpt lat="42.3678919672966" lon="2.660327972844243">
        <ele>697.57000000000005</ele>
        <time>2025-05-15T11:28:14Z</time>
      </trkpt>
      <trkpt lat="42.367949970066547" lon="2.660639025270939">
        <ele>694.69000000000005</ele>
        <time>2025-05-15T11:28:16Z</time>
      </trkpt>
      <trkpt lat="42.36795499920845" lon="2.660787971690297">
        <ele>693.73000000000002</ele>
        <time>2025-05-15T11:28:17Z</time>
      </trkpt>
      <trkpt lat="42.367947958409786" lon="2.660941025242209">
        <ele>692.76999999999998</ele>
        <time>2025-05-15T11:28:18Z</time>
      </trkpt>
      <trkpt lat="42.367941001430154" lon="2.661089971661568">
        <ele>691.80999999999995</ele>
        <time>2025-05-15T11:28:19Z</time>
      </trkpt>
      <trkpt lat="42.367905965074897" lon="2.6612229924649">
        <ele>690.84000000000003</ele>
        <time>2025-05-15T11:28:20Z</time>
      </trkpt>
      <trkpt lat="42.367851985618472" lon="2.661361964419484">
        <ele>690.36000000000001</ele>
        <time>2025-05-15T11:28:21Z</time>
      </trkpt>
      <trkpt lat="42.367804041132331" lon="2.661477969959378">
        <ele>689.39999999999998</ele>
        <time>2025-05-15T11:28:22Z</time>
      </trkpt>
      <trkpt lat="42.367733968421817" lon="2.661582995206118">
        <ele>688.91999999999996</ele>
        <time>2025-05-15T11:28:23Z</time>
      </trkpt>
      <trkpt lat="42.367664985358715" lon="2.661686008796096">
        <ele>688.44000000000005</ele>
        <time>2025-05-15T11:28:24Z</time>
      </trkpt>
      <trkpt lat="42.367283022031188" lon="2.662323033437133">
        <ele>687</ele>
        <time>2025-05-15T11:28:30Z</time>
      </trkpt>
      <trkpt lat="42.367234993726015" lon="2.66246996819973">
        <ele>687.48000000000002</ele>
        <time>2025-05-15T11:28:31Z</time>
      </trkpt>
      <trkpt lat="42.3672029748559" lon="2.662638025358319">
        <ele>687.48000000000002</ele>
        <time>2025-05-15T11:28:32Z</time>
      </trkpt>
      <trkpt lat="42.367185037583113" lon="2.662821002304554">
        <ele>687.96000000000004</ele>
        <time>2025-05-15T11:28:33Z</time>
      </trkpt>
      <trkpt lat="42.36718000844121" lon="2.662997022271156">
        <ele>688.44000000000005</ele>
        <time>2025-05-15T11:28:34Z</time>
      </trkpt>
      <trkpt lat="42.367175985127687" lon="2.663173964247108">
        <ele>688.91999999999996</ele>
        <time>2025-05-15T11:28:35Z</time>
      </trkpt>
      <trkpt lat="42.367171039804816" lon="2.663346966728568">
        <ele>688.44000000000005</ele>
        <time>2025-05-15T11:28:36Z</time>
      </trkpt>
      <trkpt lat="42.367167016491294" lon="2.66352198086679">
        <ele>688.91999999999996</ele>
        <time>2025-05-15T11:28:37Z</time>
      </trkpt>
      <trkpt lat="42.367142038419843" lon="2.66369397751987">
        <ele>688.91999999999996</ele>
        <time>2025-05-15T11:28:38Z</time>
      </trkpt>
      <trkpt lat="42.367088980972767" lon="2.663860023021698">
        <ele>688.91999999999996</ele>
        <time>2025-05-15T11:28:39Z</time>
      </trkpt>
      <trkpt lat="42.366997031494975" lon="2.664025984704495">
        <ele>689.39999999999998</ele>
        <time>2025-05-15T11:28:40Z</time>
      </trkpt>
      <trkpt lat="42.366900974884629" lon="2.664200998842716">
        <ele>689.39999999999998</ele>
        <time>2025-05-15T11:28:41Z</time>
      </trkpt>
      <trkpt lat="42.366802990436554" lon="2.664377018809319">
        <ele>689.88</ele>
        <time>2025-05-15T11:28:42Z</time>
      </trkpt>
      <trkpt lat="42.366739958524704" lon="2.664596037939191">
        <ele>689.88</ele>
        <time>2025-05-15T11:28:43Z</time>
      </trkpt>
      <trkpt lat="42.366702994331717" lon="2.664826037362218">
        <ele>690.36000000000001</ele>
        <time>2025-05-15T11:28:44Z</time>
      </trkpt>
      <trkpt lat="42.366414992138743" lon="2.667371034622192">
        <ele>695.64999999999998</ele>
        <time>2025-05-15T11:28:54Z</time>
      </trkpt>
      <trkpt lat="42.366630993783474" lon="2.670929990708828">
        <ele>711.02999999999997</ele>
        <time>2025-05-15T11:29:06Z</time>
      </trkpt>
      <trkpt lat="42.366695031523705" lon="2.672060960903764">
        <ele>717.27999999999997</ele>
        <time>2025-05-15T11:29:10Z</time>
      </trkpt>
      <trkpt lat="42.366653960198164" lon="2.67228601500392">
        <ele>719.20000000000005</ele>
        <time>2025-05-15T11:29:11Z</time>
      </trkpt>
      <trkpt lat="42.366587994620204" lon="2.672469997778535">
        <ele>720.64999999999998</ele>
        <time>2025-05-15T11:29:12Z</time>
      </trkpt>
      <trkpt lat="42.366463020443916" lon="2.672606036067009">
        <ele>722.57000000000005</ele>
        <time>2025-05-15T11:29:13Z</time>
      </trkpt>
      <trkpt lat="42.366318013519049" lon="2.672719024121761">
        <ele>724.49000000000001</ele>
        <time>2025-05-15T11:29:14Z</time>
      </trkpt>
      <trkpt lat="42.366137970238924" lon="2.672771997749806">
        <ele>726.40999999999997</ele>
        <time>2025-05-15T11:29:15Z</time>
      </trkpt>
      <trkpt lat="42.365944012999535" lon="2.67278297804296">
        <ele>728.34000000000003</ele>
        <time>2025-05-15T11:29:16Z</time>
      </trkpt>
      <trkpt lat="42.365737985819578" lon="2.672793958336115">
        <ele>730.74000000000001</ele>
        <time>2025-05-15T11:29:17Z</time>
      </trkpt>
      <trkpt lat="42.365521984174848" lon="2.672806028276682">
        <ele>732.65999999999997</ele>
        <time>2025-05-15T11:29:18Z</time>
      </trkpt>
      <trkpt lat="42.365292990580201" lon="2.672847015783191">
        <ele>734.58000000000004</ele>
        <time>2025-05-15T11:29:19Z</time>
      </trkpt>
      <trkpt lat="42.363708978518844" lon="2.673264015465975">
        <ele>746.60000000000002</ele>
        <time>2025-05-15T11:29:26Z</time>
      </trkpt>
      <trkpt lat="42.36354704014957" lon="2.673359988257289">
        <ele>748.03999999999996</ele>
        <time>2025-05-15T11:29:27Z</time>
      </trkpt>
      <trkpt lat="42.363424999639392" lon="2.673488985747099">
        <ele>749</ele>
        <time>2025-05-15T11:29:28Z</time>
      </trkpt>
      <trkpt lat="42.363352999091148" lon="2.673657964915037">
        <ele>749.97000000000003</ele>
        <time>2025-05-15T11:29:29Z</time>
      </trkpt>
      <trkpt lat="42.363300025463104" lon="2.673857035115361">
        <ele>750.92999999999995</ele>
        <time>2025-05-15T11:29:30Z</time>
      </trkpt>
      <trkpt lat="42.363296002149582" lon="2.674046969041228">
        <ele>751.88999999999999</ele>
        <time>2025-05-15T11:29:31Z</time>
      </trkpt>
      <trkpt lat="42.363320980221033" lon="2.674260959029198">
        <ele>752.85000000000002</ele>
        <time>2025-05-15T11:29:32Z</time>
      </trkpt>
      <trkpt lat="42.363389963284135" lon="2.674447037279606">
        <ele>753.33000000000004</ele>
        <time>2025-05-15T11:29:33Z</time>
      </trkpt>
      <trkpt lat="42.363489959388971" lon="2.674601012840867">
        <ele>753.80999999999995</ele>
        <time>2025-05-15T11:29:34Z</time>
      </trkpt>
      <trkpt lat="42.363634966313839" lon="2.67473503947258">
        <ele>753.80999999999995</ele>
        <time>2025-05-15T11:29:35Z</time>
      </trkpt>
      <trkpt lat="42.363796988502145" lon="2.674837969243527">
        <ele>754.28999999999996</ele>
        <time>2025-05-15T11:29:36Z</time>
      </trkpt>
      <trkpt lat="42.36398097127676" lon="2.67493000254035">
        <ele>753.80999999999995</ele>
        <time>2025-05-15T11:29:37Z</time>
      </trkpt>
      <trkpt lat="42.365307994186878" lon="2.675349013879895">
        <ele>753.33000000000004</ele>
        <time>2025-05-15T11:29:43Z</time>
      </trkpt>
      <trkpt lat="42.366195973008871" lon="2.675611032173038">
        <ele>753.33000000000004</ele>
        <time>2025-05-15T11:29:47Z</time>
      </trkpt>
      <trkpt lat="42.366328993812203" lon="2.675707004964352">
        <ele>752.85000000000002</ele>
        <time>2025-05-15T11:29:48Z</time>
      </trkpt>
      <trkpt lat="42.366463020443916" lon="2.675908003002405">
        <ele>752.85000000000002</ele>
        <time>2025-05-15T11:29:49Z</time>
      </trkpt>
      <trkpt lat="42.366526974365115" lon="2.676100032404065">
        <ele>753.33000000000004</ele>
        <time>2025-05-15T11:29:50Z</time>
      </trkpt>
      <trkpt lat="42.366575002670288" lon="2.676335982978344">
        <ele>753.33000000000004</ele>
        <time>2025-05-15T11:29:51Z</time>
      </trkpt>
      <trkpt lat="42.36662202514708" lon="2.676571011543274">
        <ele>753.33000000000004</ele>
        <time>2025-05-15T11:29:52Z</time>
      </trkpt>
      <trkpt lat="42.366666030138731" lon="2.676794975996018">
        <ele>753.80999999999995</ele>
        <time>2025-05-15T11:29:53Z</time>
      </trkpt>
      <trkpt lat="42.366756973788142" lon="2.677019024267793">
        <ele>753.80999999999995</ele>
        <time>2025-05-15T11:29:54Z</time>
      </trkpt>
      <trkpt lat="42.366898041218519" lon="2.677161013707519">
        <ele>753.33000000000004</ele>
        <time>2025-05-15T11:29:55Z</time>
      </trkpt>
      <trkpt lat="42.367047993466258" lon="2.677284982055426">
        <ele>752.85000000000002</ele>
        <time>2025-05-15T11:29:56Z</time>
      </trkpt>
      <trkpt lat="42.3672029748559" lon="2.677412973716855">
        <ele>752.85000000000002</ele>
        <time>2025-05-15T11:29:57Z</time>
      </trkpt>
      <trkpt lat="42.367335995659232" lon="2.67755001783371">
        <ele>752.85000000000002</ele>
        <time>2025-05-15T11:29:58Z</time>
      </trkpt>
      <trkpt lat="42.367453007027507" lon="2.677726037800312">
        <ele>752.85000000000002</ele>
        <time>2025-05-15T11:29:59Z</time>
      </trkpt>
      <trkpt lat="42.367522995918989" lon="2.677926030009985">
        <ele>752.85000000000002</ele>
        <time>2025-05-15T11:30:00Z</time>
      </trkpt>
      <trkpt lat="42.367551997303963" lon="2.678154017776251">
        <ele>752.37</ele>
        <time>2025-05-15T11:30:01Z</time>
      </trkpt>
      <trkpt lat="42.36752500757575" lon="2.678414024412632">
        <ele>751.88999999999999</ele>
        <time>2025-05-15T11:30:02Z</time>
      </trkpt>
      <trkpt lat="42.367499023675919" lon="2.678673025220633">
        <ele>751.88999999999999</ele>
        <time>2025-05-15T11:30:03Z</time>
      </trkpt>
      <trkpt lat="42.367473039776087" lon="2.678923979401588">
        <ele>751.40999999999997</ele>
        <time>2025-05-15T11:30:04Z</time>
      </trkpt>
      <trkpt lat="42.367484020069242" lon="2.679146016016603">
        <ele>750.92999999999995</ele>
        <time>2025-05-15T11:30:05Z</time>
      </trkpt>
      <trkpt lat="42.367506986483932" lon="2.679337961599231">
        <ele>750.45000000000005</ele>
        <time>2025-05-15T11:30:06Z</time>
      </trkpt>
      <trkpt lat="42.367576975375414" lon="2.679464025422931">
        <ele>750.45000000000005</ele>
        <time>2025-05-15T11:30:07Z</time>
      </trkpt>
      <trkpt lat="42.367658028379083" lon="2.679544994607568">
        <ele>750.45000000000005</ele>
        <time>2025-05-15T11:30:08Z</time>
      </trkpt>
      <trkpt lat="42.367770010605454" lon="2.67959101125598">
        <ele>749.97000000000003</ele>
        <time>2025-05-15T11:30:09Z</time>
      </trkpt>
      <trkpt lat="42.367902025580406" lon="2.679578019306064">
        <ele>749.49000000000001</ele>
        <time>2025-05-15T11:30:10Z</time>
      </trkpt>
      <trkpt lat="42.368030017241836" lon="2.679521022364497">
        <ele>749.49000000000001</ele>
        <time>2025-05-15T11:30:11Z</time>
      </trkpt>
      <trkpt lat="42.368141999468207" lon="2.679380038753152">
        <ele>749</ele>
        <time>2025-05-15T11:30:12Z</time>
      </trkpt>
      <trkpt lat="42.368236966431141" lon="2.679201001301408">
        <ele>748.51999999999998</ele>
        <time>2025-05-15T11:30:13Z</time>
      </trkpt>
      <trkpt lat="42.368338974192739" lon="2.679007966071367">
        <ele>748.03999999999996</ele>
        <time>2025-05-15T11:30:14Z</time>
      </trkpt>
      <trkpt lat="42.368442993611097" lon="2.678811997175217">
        <ele>747.08000000000004</ele>
        <time>2025-05-15T11:30:15Z</time>
      </trkpt>
      <trkpt lat="42.368554975837469" lon="2.67864502966404">
        <ele>746.60000000000002</ele>
        <time>2025-05-15T11:30:16Z</time>
      </trkpt>
      <trkpt lat="42.368697971105576" lon="2.678484013304114">
        <ele>745.63999999999999</ele>
        <time>2025-05-15T11:30:17Z</time>
      </trkpt>
      <trkpt lat="42.36919803544879" lon="2.677913038060069">
        <ele>742.27999999999997</ele>
        <time>2025-05-15T11:30:20Z</time>
      </trkpt>
      <trkpt lat="42.369337007403374" lon="2.677684966474772">
        <ele>741.30999999999995</ele>
        <time>2025-05-15T11:30:21Z</time>
      </trkpt>
      <trkpt lat="42.369601037353277" lon="2.67724902369082">
        <ele>738.90999999999997</ele>
        <time>2025-05-15T11:30:23Z</time>
      </trkpt>
      <trkpt lat="42.369750989601016" lon="2.677134023979306">
        <ele>737.47000000000003</ele>
        <time>2025-05-15T11:30:24Z</time>
      </trkpt>
      <trkpt lat="42.369932038709521" lon="2.677007038146257">
        <ele>736.02999999999997</ele>
        <time>2025-05-15T11:30:25Z</time>
      </trkpt>
      <trkpt lat="42.370848013088107" lon="2.67641301266849">
        <ele>728.34000000000003</ele>
        <time>2025-05-15T11:30:30Z</time>
      </trkpt>
      <trkpt lat="42.371006011962891" lon="2.676364984363318">
        <ele>726.40999999999997</ele>
        <time>2025-05-15T11:30:31Z</time>
      </trkpt>
      <trkpt lat="42.371140038594604" lon="2.676379987969995">
        <ele>724.49000000000001</ele>
        <time>2025-05-15T11:30:32Z</time>
      </trkpt>
      <trkpt lat="42.371289990842342" lon="2.676428016275168">
        <ele>722.57000000000005</ele>
        <time>2025-05-15T11:30:33Z</time>
      </trkpt>
      <trkpt lat="42.371438015252352" lon="2.67647503875196">
        <ele>720.64999999999998</ele>
        <time>2025-05-15T11:30:34Z</time>
      </trkpt>
      <trkpt lat="42.371561983600259" lon="2.6765420101583">
        <ele>718.72000000000003</ele>
        <time>2025-05-15T11:30:35Z</time>
      </trkpt>
      <trkpt lat="42.371672037988901" lon="2.676651980727911">
        <ele>717.27999999999997</ele>
        <time>2025-05-15T11:30:36Z</time>
      </trkpt>
      <trkpt lat="42.371758036315441" lon="2.676781984046102">
        <ele>715.84000000000003</ele>
        <time>2025-05-15T11:30:37Z</time>
      </trkpt>
      <trkpt lat="42.371800029650331" lon="2.67690896987915">
        <ele>714.39999999999998</ele>
        <time>2025-05-15T11:30:38Z</time>
      </trkpt>
      <trkpt lat="42.371788965538144" lon="2.67707996070385">
        <ele>712.95000000000005</ele>
        <time>2025-05-15T11:30:39Z</time>
      </trkpt>
      <trkpt lat="42.37177899107337" lon="2.677231002599001">
        <ele>711.50999999999999</ele>
        <time>2025-05-15T11:30:40Z</time>
      </trkpt>
      <trkpt lat="42.371730962768197" lon="2.677340973168612">
        <ele>709.59000000000003</ele>
        <time>2025-05-15T11:30:41Z</time>
      </trkpt>
      <trkpt lat="42.371661979705095" lon="2.677497966215015">
        <ele>707.66999999999996</ele>
        <time>2025-05-15T11:30:42Z</time>
      </trkpt>
      <trkpt lat="42.371393004432321" lon="2.678111018612981">
        <ele>703.34000000000003</ele>
        <time>2025-05-15T11:30:45Z</time>
      </trkpt>
      <trkpt lat="42.371356040239334" lon="2.678296007215977">
        <ele>702.86000000000001</ele>
        <time>2025-05-15T11:30:46Z</time>
      </trkpt>
      <trkpt lat="42.371342964470387" lon="2.678560959175229">
        <ele>701.89999999999998</ele>
        <time>2025-05-15T11:30:47Z</time>
      </trkpt>
      <trkpt lat="42.371370038017631" lon="2.678784001618624">
        <ele>701.41999999999996</ele>
        <time>2025-05-15T11:30:48Z</time>
      </trkpt>
      <trkpt lat="42.371399039402604" lon="2.679035039618611">
        <ele>700.46000000000004</ele>
        <time>2025-05-15T11:30:49Z</time>
      </trkpt>
      <trkpt lat="42.371430974453688" lon="2.679308960214257">
        <ele>699.98000000000002</ele>
        <time>2025-05-15T11:30:50Z</time>
      </trkpt>
      <trkpt lat="42.371456958353519" lon="2.679526973515749">
        <ele>699.5</ele>
        <time>2025-05-15T11:30:51Z</time>
      </trkpt>
      <trkpt lat="42.371411025524139" lon="2.679868033155799">
        <ele>698.52999999999997</ele>
        <time>2025-05-15T11:30:52Z</time>
      </trkpt>
      <trkpt lat="42.371368026360869" lon="2.680180007591844">
        <ele>698.04999999999995</ele>
        <time>2025-05-15T11:30:53Z</time>
      </trkpt>
      <trkpt lat="42.371325027197599" lon="2.680496005341411">
        <ele>697.57000000000005</ele>
        <time>2025-05-15T11:30:54Z</time>
      </trkpt>
      <trkpt lat="42.371201980859041" lon="2.681400999426842">
        <ele>695.64999999999998</ele>
        <time>2025-05-15T11:30:57Z</time>
      </trkpt>
      <trkpt lat="42.37119996920228" lon="2.681672992184758">
        <ele>694.69000000000005</ele>
        <time>2025-05-15T11:30:58Z</time>
      </trkpt>
      <trkpt lat="42.371273981407285" lon="2.681930987164378">
        <ele>694.21000000000004</ele>
        <time>2025-05-15T11:30:59Z</time>
      </trkpt>
      <trkpt lat="42.371344976127148" lon="2.682160986587405">
        <ele>693.73000000000002</ele>
        <time>2025-05-15T11:31:00Z</time>
      </trkpt>
      <trkpt lat="42.371417982503772" lon="2.682389980182052">
        <ele>693.25</ele>
        <time>2025-05-15T11:31:01Z</time>
      </trkpt>
      <trkpt lat="42.371446983888745" lon="2.682633977383375">
        <ele>693.25</ele>
        <time>2025-05-15T11:31:02Z</time>
      </trkpt>
      <trkpt lat="42.371462993323803" lon="2.682881997898221">
        <ele>692.76999999999998</ele>
        <time>2025-05-15T11:31:03Z</time>
      </trkpt>
      <trkpt lat="42.37147799693048" lon="2.683119960129261">
        <ele>692.28999999999996</ele>
        <time>2025-05-15T11:31:04Z</time>
      </trkpt>
      <trkpt lat="42.371533988043666" lon="2.68331098370254">
        <ele>691.80999999999995</ele>
        <time>2025-05-15T11:31:05Z</time>
      </trkpt>
      <trkpt lat="42.37156399525702" lon="2.683410979807377">
        <ele>691.80999999999995</ele>
        <time>2025-05-15T11:31:06Z</time>
      </trkpt>
      <trkpt lat="42.371699027717113" lon="2.683532014489174">
        <ele>692.76999999999998</ele>
        <time>2025-05-15T11:31:07Z</time>
      </trkpt>
      <trkpt lat="42.371834982186556" lon="2.683640979230404">
        <ele>693.25</ele>
        <time>2025-05-15T11:31:08Z</time>
      </trkpt>
      <trkpt lat="42.371999016031623" lon="2.683747010305524">
        <ele>694.21000000000004</ele>
        <time>2025-05-15T11:31:09Z</time>
      </trkpt>
      <trkpt lat="42.372338986024261" lon="2.683970974758267">
        <ele>695.16999999999996</ele>
        <time>2025-05-15T11:31:11Z</time>
      </trkpt>
      <trkpt lat="42.372504025697708" lon="2.68404196947813">
        <ele>694.69000000000005</ele>
        <time>2025-05-15T11:31:12Z</time>
      </trkpt>
      <trkpt lat="42.372678034007549" lon="2.684069965034723">
        <ele>694.69000000000005</ele>
        <time>2025-05-15T11:31:13Z</time>
      </trkpt>
      <trkpt lat="42.372870985418558" lon="2.684043981134892">
        <ele>695.16999999999996</ele>
        <time>2025-05-15T11:31:14Z</time>
      </trkpt>
      <trkpt lat="42.373049017041922" lon="2.683942979201675">
        <ele>695.16999999999996</ele>
        <time>2025-05-15T11:31:15Z</time>
      </trkpt>
      <trkpt lat="42.373231993988156" lon="2.683840971440077">
        <ele>694.69000000000005</ele>
        <time>2025-05-15T11:31:16Z</time>
      </trkpt>
      <trkpt lat="42.373556960374117" lon="2.683664029464126">
        <ele>693.73000000000002</ele>
        <time>2025-05-15T11:31:18Z</time>
      </trkpt>
      <trkpt lat="42.373731974512339" lon="2.683624969795346">
        <ele>693.73000000000002</ele>
        <time>2025-05-15T11:31:19Z</time>
      </trkpt>
      <trkpt lat="42.373825013637543" lon="2.683699987828732">
        <ele>693.73000000000002</ele>
        <time>2025-05-15T11:31:20Z</time>
      </trkpt>
      <trkpt lat="42.373944036662579" lon="2.683795038610697">
        <ele>693.25</ele>
        <time>2025-05-15T11:31:21Z</time>
      </trkpt>
      <trkpt lat="42.374073034152389" lon="2.683897968381643">
        <ele>693.73000000000002</ele>
        <time>2025-05-15T11:31:22Z</time>
      </trkpt>
      <trkpt lat="42.374212006106973" lon="2.684009028598666">
        <ele>693.73000000000002</ele>
        <time>2025-05-15T11:31:23Z</time>
      </trkpt>
      <trkpt lat="42.374361036345363" lon="2.684100978076458">
        <ele>694.21000000000004</ele>
        <time>2025-05-15T11:31:24Z</time>
      </trkpt>
      <trkpt lat="42.374525992199779" lon="2.684183036908507">
        <ele>693.73000000000002</ele>
        <time>2025-05-15T11:31:25Z</time>
      </trkpt>
      <trkpt lat="42.374704023823142" lon="2.684193011373282">
        <ele>693.73000000000002</ele>
        <time>2025-05-15T11:31:26Z</time>
      </trkpt>
      <trkpt lat="42.374911978840828" lon="2.684204997494817">
        <ele>692.76999999999998</ele>
        <time>2025-05-15T11:31:27Z</time>
      </trkpt>
      <trkpt lat="42.375075006857514" lon="2.684158980846405">
        <ele>692.28999999999996</ele>
        <time>2025-05-15T11:31:28Z</time>
      </trkpt>
      <trkpt lat="42.375245997682214" lon="2.684111036360264">
        <ele>691.80999999999995</ele>
        <time>2025-05-15T11:31:29Z</time>
      </trkpt>
      <trkpt lat="42.375448001548648" lon="2.684054039418697">
        <ele>690.84000000000003</ele>
        <time>2025-05-15T11:31:30Z</time>
      </trkpt>
      <trkpt lat="42.375556966289878" lon="2.684141965582967">
        <ele>690.36000000000001</ele>
        <time>2025-05-15T11:31:31Z</time>
      </trkpt>
      <trkpt lat="42.375685963779688" lon="2.684260988608003">
        <ele>689.39999999999998</ele>
        <time>2025-05-15T11:31:32Z</time>
      </trkpt>
      <trkpt lat="42.375759975984693" lon="2.684479001909494">
        <ele>688.44000000000005</ele>
        <time>2025-05-15T11:31:33Z</time>
      </trkpt>
      <trkpt lat="42.375757964327931" lon="2.684701960533857">
        <ele>687.48000000000002</ele>
        <time>2025-05-15T11:31:34Z</time>
      </trkpt>
      <trkpt lat="42.37573298625648" lon="2.684930032119155">
        <ele>687</ele>
        <time>2025-05-15T11:31:35Z</time>
      </trkpt>
      <trkpt lat="42.375707002356648" lon="2.685172017663717">
        <ele>686.03999999999996</ele>
        <time>2025-05-15T11:31:36Z</time>
      </trkpt>
      <trkpt lat="42.375619998201728" lon="2.685970980674028">
        <ele>683.63</ele>
        <time>2025-05-15T11:31:39Z</time>
      </trkpt>
      <trkpt lat="42.375615974888206" lon="2.686265017837286">
        <ele>682.19000000000005</ele>
        <time>2025-05-15T11:31:40Z</time>
      </trkpt>
      <trkpt lat="42.37560298293829" lon="2.687772000208497">
        <ele>676.41999999999996</ele>
        <time>2025-05-15T11:31:45Z</time>
      </trkpt>
      <trkpt lat="42.37564698792994" lon="2.688001999631524">
        <ele>674.98000000000002</ele>
        <time>2025-05-15T11:31:46Z</time>
      </trkpt>
      <trkpt lat="42.375711025670171" lon="2.688141977414489">
        <ele>674.01999999999998</ele>
        <time>2025-05-15T11:31:47Z</time>
      </trkpt>
      <trkpt lat="42.375806998461485" lon="2.688249014317989">
        <ele>673.05999999999995</ele>
        <time>2025-05-15T11:31:48Z</time>
      </trkpt>
      <trkpt lat="42.375899031758308" lon="2.688314979895949">
        <ele>672.10000000000002</ele>
        <time>2025-05-15T11:31:49Z</time>
      </trkpt>
      <trkpt lat="42.376025011762977" lon="2.688338030129671">
        <ele>671.62</ele>
        <time>2025-05-15T11:31:50Z</time>
      </trkpt>
      <trkpt lat="42.37615903839469" lon="2.688284972682595">
        <ele>671.13999999999999</ele>
        <time>2025-05-15T11:31:51Z</time>
      </trkpt>
      <trkpt lat="42.376304967328906" lon="2.688210038468242">
        <ele>670.17999999999995</ele>
        <time>2025-05-15T11:31:52Z</time>
      </trkpt>
      <trkpt lat="42.37646103836596" lon="2.688115993514657">
        <ele>669.70000000000005</ele>
        <time>2025-05-15T11:31:53Z</time>
      </trkpt>
      <trkpt lat="42.377276010811329" lon="2.687460025772452">
        <ele>663.92999999999995</ele>
        <time>2025-05-15T11:31:58Z</time>
      </trkpt>
      <trkpt lat="42.377455970272422" lon="2.687409985810518">
        <ele>662.97000000000003</ele>
        <time>2025-05-15T11:31:59Z</time>
      </trkpt>
      <trkpt lat="42.377631990239024" lon="2.687379978597164">
        <ele>662.49000000000001</ele>
        <time>2025-05-15T11:32:00Z</time>
      </trkpt>
      <trkpt lat="42.377954022958875" lon="2.687368998304009">
        <ele>661.51999999999998</ele>
        <time>2025-05-15T11:32:02Z</time>
      </trkpt>
      <trkpt lat="42.378070028498769" lon="2.687288029119372">
        <ele>661.03999999999996</ele>
        <time>2025-05-15T11:32:03Z</time>
      </trkpt>
      <trkpt lat="42.378169018775225" lon="2.687189960852265">
        <ele>660.55999999999995</ele>
        <time>2025-05-15T11:32:04Z</time>
      </trkpt>
      <trkpt lat="42.37822400406003" lon="2.687056018039584">
        <ele>660.08000000000004</ele>
        <time>2025-05-15T11:32:05Z</time>
      </trkpt>
      <trkpt lat="42.378254011273384" lon="2.68689600750804">
        <ele>659.60000000000002</ele>
        <time>2025-05-15T11:32:06Z</time>
      </trkpt>
      <trkpt lat="42.378243030980229" lon="2.686742031946778">
        <ele>659.12</ele>
        <time>2025-05-15T11:32:07Z</time>
      </trkpt>
      <trkpt lat="42.378189973533154" lon="2.686587972566485">
        <ele>658.63999999999999</ele>
        <time>2025-05-15T11:32:08Z</time>
      </trkpt>
      <trkpt lat="42.378101041540504" lon="2.686462998390198">
        <ele>658.15999999999997</ele>
        <time>2025-05-15T11:32:09Z</time>
      </trkpt>
      <trkpt lat="42.377999033778906" lon="2.686343975365162">
        <ele>657.67999999999995</ele>
        <time>2025-05-15T11:32:10Z</time>
      </trkpt>
      <trkpt lat="42.377899037674069" lon="2.686226963996887">
        <ele>657.20000000000005</ele>
        <time>2025-05-15T11:32:11Z</time>
      </trkpt>
      <trkpt lat="42.377850003540516" lon="2.686067037284374">
        <ele>656.72000000000003</ele>
        <time>2025-05-15T11:32:12Z</time>
      </trkpt>
      <trkpt lat="42.377812033519149" lon="2.685906020924449">
        <ele>656.24000000000001</ele>
        <time>2025-05-15T11:32:13Z</time>
      </trkpt>
      <trkpt lat="42.377845980226994" lon="2.685748022049666">
        <ele>655.75999999999999</ele>
        <time>2025-05-15T11:32:14Z</time>
      </trkpt>
      <trkpt lat="42.377905994653702" lon="2.685597985982895">
        <ele>654.79999999999995</ele>
        <time>2025-05-15T11:32:15Z</time>
      </trkpt>
      <trkpt lat="42.378022000193596" lon="2.685517016798258">
        <ele>654.30999999999995</ele>
        <time>2025-05-15T11:32:16Z</time>
      </trkpt>
      <trkpt lat="42.378161977976561" lon="2.685463037341833">
        <ele>653.35000000000002</ele>
        <time>2025-05-15T11:32:17Z</time>
      </trkpt>
      <trkpt lat="42.37833003513515" lon="2.685446022078395">
        <ele>652.38999999999999</ele>
        <time>2025-05-15T11:32:18Z</time>
      </trkpt>
      <trkpt lat="42.378505971282721" lon="2.685429006814957">
        <ele>651.42999999999995</ele>
        <time>2025-05-15T11:32:19Z</time>
      </trkpt>
      <trkpt lat="42.378861028701067" lon="2.685438981279731">
        <ele>649.50999999999999</ele>
        <time>2025-05-15T11:32:21Z</time>
      </trkpt>
      <trkpt lat="42.379029002040625" lon="2.685505030676723">
        <ele>648.54999999999995</ele>
        <time>2025-05-15T11:32:22Z</time>
      </trkpt>
      <trkpt lat="42.379180965945125" lon="2.685633022338152">
        <ele>647.59000000000003</ele>
        <time>2025-05-15T11:32:23Z</time>
      </trkpt>
      <trkpt lat="42.379484977573156" lon="2.685891017317772">
        <ele>645.65999999999997</ele>
        <time>2025-05-15T11:32:25Z</time>
      </trkpt>
      <trkpt lat="42.379639958962798" lon="2.685977015644312">
        <ele>644.70000000000005</ele>
        <time>2025-05-15T11:32:26Z</time>
      </trkpt>
      <trkpt lat="42.3798159789294" lon="2.68603996373713">
        <ele>643.74000000000001</ele>
        <time>2025-05-15T11:32:27Z</time>
      </trkpt>
      <trkpt lat="42.379993004724383" lon="2.686105007305741">
        <ele>642.29999999999995</ele>
        <time>2025-05-15T11:32:28Z</time>
      </trkpt>
      <trkpt lat="42.380167013034225" lon="2.686168039217591">
        <ele>640.86000000000001</ele>
        <time>2025-05-15T11:32:29Z</time>
      </trkpt>
      <trkpt lat="42.38033096306026" lon="2.686275998130441">
        <ele>639.40999999999997</ele>
        <time>2025-05-15T11:32:30Z</time>
      </trkpt>
      <trkpt lat="42.380482004955411" lon="2.686439026147127">
        <ele>638.45000000000005</ele>
        <time>2025-05-15T11:32:31Z</time>
      </trkpt>
      <trkpt lat="42.38058602437377" lon="2.686648992821574">
        <ele>637.00999999999999</ele>
        <time>2025-05-15T11:32:32Z</time>
      </trkpt>
      <trkpt lat="42.380669005215168" lon="2.686893995851278">
        <ele>635.57000000000005</ele>
        <time>2025-05-15T11:32:33Z</time>
      </trkpt>
      <trkpt lat="42.380744023248553" lon="2.687130030244589">
        <ele>634.13</ele>
        <time>2025-05-15T11:32:34Z</time>
      </trkpt>
      <trkpt lat="42.380776964128017" lon="2.687403028830886">
        <ele>633.16999999999996</ele>
        <time>2025-05-15T11:32:35Z</time>
      </trkpt>
      <trkpt lat="42.380779981613159" lon="2.687680972740054">
        <ele>631.72000000000003</ele>
        <time>2025-05-15T11:32:36Z</time>
      </trkpt>
      <trkpt lat="42.38075902685523" lon="2.687961012125015">
        <ele>630.27999999999997</ele>
        <time>2025-05-15T11:32:37Z</time>
      </trkpt>
      <trkpt lat="42.380735976621509" lon="2.688258988782764">
        <ele>629.32000000000005</ele>
        <time>2025-05-15T11:32:38Z</time>
      </trkpt>
      <trkpt lat="42.380631035193801" lon="2.689967975020409">
        <ele>622.59000000000003</ele>
        <time>2025-05-15T11:32:44Z</time>
      </trkpt>
      <trkpt lat="42.380701024085283" lon="2.690177019685507">
        <ele>621.63</ele>
        <time>2025-05-15T11:32:45Z</time>
      </trkpt>
      <trkpt lat="42.380779981613159" lon="2.690382963046432">
        <ele>621.14999999999998</ele>
        <time>2025-05-15T11:32:46Z</time>
      </trkpt>
      <trkpt lat="42.380991959944367" lon="2.69080700352788">
        <ele>619.71000000000004</ele>
        <time>2025-05-15T11:32:48Z</time>
      </trkpt>
      <trkpt lat="42.38105901516974" lon="2.691049994900823">
        <ele>619.23000000000002</ele>
        <time>2025-05-15T11:32:49Z</time>
      </trkpt>
      <trkpt lat="42.381078964099288" lon="2.691316958516836">
        <ele>618.75</ele>
        <time>2025-05-15T11:32:50Z</time>
      </trkpt>
      <trkpt lat="42.381077036261559" lon="2.69160102121532">
        <ele>618.25999999999999</ele>
        <time>2025-05-15T11:32:51Z</time>
      </trkpt>
      <trkpt lat="42.381043005734682" lon="2.691890029236674">
        <ele>618.25999999999999</ele>
        <time>2025-05-15T11:32:52Z</time>
      </trkpt>
      <trkpt lat="42.380962958559394" lon="2.692454969510436">
        <ele>617.77999999999997</ele>
        <time>2025-05-15T11:32:54Z</time>
      </trkpt>
      <trkpt lat="42.380881989374757" lon="2.692710030823946">
        <ele>617.29999999999995</ele>
        <time>2025-05-15T11:32:55Z</time>
      </trkpt>
      <trkpt lat="42.380658024922013" lon="2.693120995536447">
        <ele>616.34000000000003</ele>
        <time>2025-05-15T11:32:57Z</time>
      </trkpt>
      <trkpt lat="42.380616031587124" lon="2.693339008837938">
        <ele>615.86000000000001</ele>
        <time>2025-05-15T11:32:58Z</time>
      </trkpt>
      <trkpt lat="42.380617037415504" lon="2.693531960248947">
        <ele>615.38</ele>
        <time>2025-05-15T11:32:59Z</time>
      </trkpt>
      <trkpt lat="42.380678979679942" lon="2.693718038499355">
        <ele>614.89999999999998</ele>
        <time>2025-05-15T11:33:00Z</time>
      </trkpt>
      <trkpt lat="42.380766989663243" lon="2.693893974646926">
        <ele>614.41999999999996</ele>
        <time>2025-05-15T11:33:01Z</time>
      </trkpt>
      <trkpt lat="42.380877966061234" lon="2.694069994613528">
        <ele>613.46000000000004</ele>
        <time>2025-05-15T11:33:02Z</time>
      </trkpt>
      <trkpt lat="42.38097402267158" lon="2.694247020408511">
        <ele>612.98000000000002</ele>
        <time>2025-05-15T11:33:03Z</time>
      </trkpt>
      <trkpt lat="42.381023978814483" lon="2.694434020668268">
        <ele>611.53999999999996</ele>
        <time>2025-05-15T11:33:04Z</time>
      </trkpt>
      <trkpt lat="42.381023978814483" lon="2.69460903480649">
        <ele>610.57000000000005</ele>
        <time>2025-05-15T11:33:05Z</time>
      </trkpt>
      <trkpt lat="42.380966981872916" lon="2.694764016196132">
        <ele>609.61000000000001</ele>
        <time>2025-05-15T11:33:06Z</time>
      </trkpt>
      <trkpt lat="42.380856005474925" lon="2.694912040606141">
        <ele>608.64999999999998</ele>
        <time>2025-05-15T11:33:07Z</time>
      </trkpt>
      <trkpt lat="42.380723990499973" lon="2.694993009790778">
        <ele>607.69000000000005</ele>
        <time>2025-05-15T11:33:08Z</time>
      </trkpt>
      <trkpt lat="42.380569009110332" lon="2.695087976753712">
        <ele>606.73000000000002</ele>
        <time>2025-05-15T11:33:09Z</time>
      </trkpt>
      <trkpt lat="42.379903988912702" lon="2.695541018620133">
        <ele>602.88</ele>
        <time>2025-05-15T11:33:13Z</time>
      </trkpt>
      <trkpt lat="42.379788989201188" lon="2.695692982524633">
        <ele>601.91999999999996</ele>
        <time>2025-05-15T11:33:14Z</time>
      </trkpt>
      <trkpt lat="42.379710031673312" lon="2.695874031633139">
        <ele>600.96000000000004</ele>
        <time>2025-05-15T11:33:15Z</time>
      </trkpt>
      <trkpt lat="42.37966300919652" lon="2.696092966943979">
        <ele>600</ele>
        <time>2025-05-15T11:33:16Z</time>
      </trkpt>
      <trkpt lat="42.379668960347772" lon="2.696333024650812">
        <ele>599.03999999999996</ele>
        <time>2025-05-15T11:33:17Z</time>
      </trkpt>
      <trkpt lat="42.379723023623228" lon="2.69656696356833">
        <ele>597.60000000000002</ele>
        <time>2025-05-15T11:33:18Z</time>
      </trkpt>
      <trkpt lat="42.379798963665962" lon="2.696809032931924">
        <ele>596.63999999999999</ele>
        <time>2025-05-15T11:33:19Z</time>
      </trkpt>
      <trkpt lat="42.379873981699347" lon="2.697051018476486">
        <ele>595.19000000000005</ele>
        <time>2025-05-15T11:33:20Z</time>
      </trkpt>
      <trkpt lat="42.379950005561113" lon="2.697291998192668">
        <ele>593.26999999999998</ele>
        <time>2025-05-15T11:33:21Z</time>
      </trkpt>
      <trkpt lat="42.379995016381145" lon="2.697530966252089">
        <ele>591.35000000000002</ele>
        <time>2025-05-15T11:33:22Z</time>
      </trkpt>
      <trkpt lat="42.3799869697541" lon="2.697774041444063">
        <ele>589.42999999999995</ele>
        <time>2025-05-15T11:33:23Z</time>
      </trkpt>
      <trkpt lat="42.379997028037906" lon="2.698288019746542">
        <ele>586.05999999999995</ele>
        <time>2025-05-15T11:33:25Z</time>
      </trkpt>
      <trkpt lat="42.380037009716034" lon="2.698552971705794">
        <ele>584.13999999999999</ele>
        <time>2025-05-15T11:33:26Z</time>
      </trkpt>
      <trkpt lat="42.380098029971123" lon="2.698813984170556">
        <ele>582.22000000000003</ele>
        <time>2025-05-15T11:33:27Z</time>
      </trkpt>
      <trkpt lat="42.3802649974823" lon="2.699558967724443">
        <ele>577.88999999999999</ele>
        <time>2025-05-15T11:33:30Z</time>
      </trkpt>
      <trkpt lat="42.380258040502667" lon="2.699787961319089">
        <ele>576.45000000000005</ele>
        <time>2025-05-15T11:33:31Z</time>
      </trkpt>
      <trkpt lat="42.380232978612185" lon="2.700009997934103">
        <ele>575.49000000000001</ele>
        <time>2025-05-15T11:33:32Z</time>
      </trkpt>
      <trkpt lat="42.380203977227211" lon="2.700212001800537">
        <ele>574.52999999999997</ele>
        <time>2025-05-15T11:33:33Z</time>
      </trkpt>
      <trkpt lat="42.380141029134393" lon="2.700388021767139">
        <ele>573.55999999999995</ele>
        <time>2025-05-15T11:33:34Z</time>
      </trkpt>
      <trkpt lat="42.380083026364446" lon="2.700551971793175">
        <ele>573.08000000000004</ele>
        <time>2025-05-15T11:33:35Z</time>
      </trkpt>
      <trkpt lat="42.37994103692472" lon="2.701072990894318">
        <ele>571.63999999999999</ele>
        <time>2025-05-15T11:33:39Z</time>
      </trkpt>
      <trkpt lat="42.37992100417614" lon="2.701171981170774">
        <ele>571.15999999999997</ele>
        <time>2025-05-15T11:33:40Z</time>
      </trkpt>
      <trkpt lat="42.379924021661282" lon="2.701263008639216">
        <ele>570.67999999999995</ele>
        <time>2025-05-15T11:33:41Z</time>
      </trkpt>
      <trkpt lat="42.379953023046255" lon="2.70135797560215">
        <ele>570.67999999999995</ele>
        <time>2025-05-15T11:33:42Z</time>
      </trkpt>
      <trkpt lat="42.379985963925719" lon="2.701465012505651">
        <ele>570.20000000000005</ele>
        <time>2025-05-15T11:33:43Z</time>
      </trkpt>
      <trkpt lat="42.380019994452596" lon="2.701575988903642">
        <ele>570.20000000000005</ele>
        <time>2025-05-15T11:33:44Z</time>
      </trkpt>
      <trkpt lat="42.380061987787485" lon="2.701714038848877">
        <ele>569.72000000000003</ele>
        <time>2025-05-15T11:33:45Z</time>
      </trkpt>
      <trkpt lat="42.3801130335778" lon="2.701816968619824">
        <ele>569.24000000000001</ele>
        <time>2025-05-15T11:33:46Z</time>
      </trkpt>
      <trkpt lat="42.380807977169752" lon="2.7029699832201">
        <ele>566.35000000000002</ele>
        <time>2025-05-15T11:33:53Z</time>
      </trkpt>
      <trkpt lat="42.381437961012125" lon="2.704088967293501">
        <ele>562.99000000000001</ele>
        <time>2025-05-15T11:33:58Z</time>
      </trkpt>
      <trkpt lat="42.381481966003776" lon="2.704320978373289">
        <ele>562.02999999999997</ele>
        <time>2025-05-15T11:33:59Z</time>
      </trkpt>
      <trkpt lat="42.381515996530652" lon="2.70455801859498">
        <ele>561.54999999999995</ele>
        <time>2025-05-15T11:34:00Z</time>
      </trkpt>
      <trkpt lat="42.381478026509285" lon="2.704801009967923">
        <ele>560.59000000000003</ele>
        <time>2025-05-15T11:34:01Z</time>
      </trkpt>
      <trkpt lat="42.381427986547351" lon="2.705051964148879">
        <ele>560.11000000000001</ele>
        <time>2025-05-15T11:34:02Z</time>
      </trkpt>
      <trkpt lat="42.381327990442514" lon="2.705286992713809">
        <ele>559.13999999999999</ele>
        <time>2025-05-15T11:34:03Z</time>
      </trkpt>
      <trkpt lat="42.381198992952704" lon="2.705534007400274">
        <ele>558.17999999999995</ele>
        <time>2025-05-15T11:34:04Z</time>
      </trkpt>
      <trkpt lat="42.38105901516974" lon="2.705744979903102">
        <ele>557.70000000000005</ele>
        <time>2025-05-15T11:34:05Z</time>
      </trkpt>
      <trkpt lat="42.380905039608479" lon="2.70597699098289">
        <ele>556.74000000000001</ele>
        <time>2025-05-15T11:34:06Z</time>
      </trkpt>
      <trkpt lat="42.380038015544415" lon="2.707325974479318">
        <ele>548.57000000000005</ele>
        <time>2025-05-15T11:34:12Z</time>
      </trkpt>
      <trkpt lat="42.379959980025887" lon="2.707571983337402">
        <ele>547.13</ele>
        <time>2025-05-15T11:34:13Z</time>
      </trkpt>
      <trkpt lat="42.379932990297675" lon="2.707818998023868">
        <ele>545.69000000000005</ele>
        <time>2025-05-15T11:34:14Z</time>
      </trkpt>
      <trkpt lat="42.379938019439578" lon="2.708062995225191">
        <ele>544.24000000000001</ele>
        <time>2025-05-15T11:34:15Z</time>
      </trkpt>
      <trkpt lat="42.379999039694667" lon="2.708315039053559">
        <ele>542.79999999999995</ele>
        <time>2025-05-15T11:34:16Z</time>
      </trkpt>
      <trkpt lat="42.380063999444246" lon="2.708584014326334">
        <ele>541.36000000000001</ele>
        <time>2025-05-15T11:34:17Z</time>
      </trkpt>
      <trkpt lat="42.380148991942406" lon="2.708847038447857">
        <ele>539.91999999999996</ele>
        <time>2025-05-15T11:34:18Z</time>
      </trkpt>
      <trkpt lat="42.380270026624203" lon="2.709094975143671">
        <ele>538.48000000000002</ele>
        <time>2025-05-15T11:34:19Z</time>
      </trkpt>
      <trkpt lat="42.380430037155747" lon="2.709312988445163">
        <ele>536.54999999999995</ele>
        <time>2025-05-15T11:34:20Z</time>
      </trkpt>
      <trkpt lat="42.38060999661684" lon="2.709497977048159">
        <ele>535.11000000000001</ele>
        <time>2025-05-15T11:34:21Z</time>
      </trkpt>
      <trkpt lat="42.38080495968461" lon="2.709665028378367">
        <ele>533.66999999999996</ele>
        <time>2025-05-15T11:34:22Z</time>
      </trkpt>
      <trkpt lat="42.381006963551044" lon="2.709814980626106">
        <ele>532.23000000000002</ele>
        <time>2025-05-15T11:34:23Z</time>
      </trkpt>
      <trkpt lat="42.381221037358046" lon="2.709915982559323">
        <ele>530.29999999999995</ele>
        <time>2025-05-15T11:34:24Z</time>
      </trkpt>
      <trkpt lat="42.381442990154028" lon="2.709971973672509">
        <ele>528.38</ele>
        <time>2025-05-15T11:34:25Z</time>
      </trkpt>
      <trkpt lat="42.381657985970378" lon="2.709983959794045">
        <ele>525.98000000000002</ele>
        <time>2025-05-15T11:34:26Z</time>
      </trkpt>
      <trkpt lat="42.38187700510025" lon="2.709959987550974">
        <ele>523.58000000000004</ele>
        <time>2025-05-15T11:34:27Z</time>
      </trkpt>
      <trkpt lat="42.382095018401742" lon="2.709935009479523">
        <ele>521.16999999999996</ele>
        <time>2025-05-15T11:34:28Z</time>
      </trkpt>
      <trkpt lat="42.382291993126273" lon="2.709836019203067">
        <ele>519.25</ele>
        <time>2025-05-15T11:34:29Z</time>
      </trkpt>
      <trkpt lat="42.38249802030623" lon="2.709720013663173">
        <ele>517.33000000000004</ele>
        <time>2025-05-15T11:34:30Z</time>
      </trkpt>
      <trkpt lat="42.382683008909225" lon="2.709581041708589">
        <ele>515.88</ele>
        <time>2025-05-15T11:34:31Z</time>
      </trkpt>
      <trkpt lat="42.382859028875828" lon="2.709394041448832">
        <ele>514.44000000000005</ele>
        <time>2025-05-15T11:34:32Z</time>
      </trkpt>
      <trkpt lat="42.383024990558624" lon="2.709184996783733">
        <ele>513</ele>
        <time>2025-05-15T11:34:33Z</time>
      </trkpt>
      <trkpt lat="42.383179971948266" lon="2.7089639659971">
        <ele>511.56</ele>
        <time>2025-05-15T11:34:34Z</time>
      </trkpt>
      <trkpt lat="42.383331013843417" lon="2.708747964352369">
        <ele>510.12</ele>
        <time>2025-05-15T11:34:35Z</time>
      </trkpt>
      <trkpt lat="42.383635025471449" lon="2.708315039053559">
        <ele>506.75</ele>
        <time>2025-05-15T11:34:37Z</time>
      </trkpt>
      <trkpt lat="42.383824037387967" lon="2.708162991330028">
        <ele>505.31</ele>
        <time>2025-05-15T11:34:38Z</time>
      </trkpt>
      <trkpt lat="42.384010031819344" lon="2.70801798440516">
        <ele>503.87</ele>
        <time>2025-05-15T11:34:39Z</time>
      </trkpt>
      <trkpt lat="42.3843680229038" lon="2.707739034667611">
        <ele>500.98000000000002</ele>
        <time>2025-05-15T11:34:41Z</time>
      </trkpt>
      <trkpt lat="42.384495008736849" lon="2.707553962245584">
        <ele>499.54000000000002</ele>
        <time>2025-05-15T11:34:42Z</time>
      </trkpt>
      <trkpt lat="42.384592993184924" lon="2.707366961985827">
        <ele>498.57999999999998</ele>
        <time>2025-05-15T11:34:43Z</time>
      </trkpt>
      <trkpt lat="42.384670022875071" lon="2.707161018624902">
        <ele>497.62</ele>
        <time>2025-05-15T11:34:44Z</time>
      </trkpt>
      <trkpt lat="42.384738000109792" lon="2.706918027251959">
        <ele>496.18000000000001</ele>
        <time>2025-05-15T11:34:45Z</time>
      </trkpt>
      <trkpt lat="42.384810000658035" lon="2.70666497759521">
        <ele>494.74000000000001</ele>
        <time>2025-05-15T11:34:46Z</time>
      </trkpt>
      <trkpt lat="42.384878983721137" lon="2.706418968737125">
        <ele>493.29000000000002</ele>
        <time>2025-05-15T11:34:47Z</time>
      </trkpt>
      <trkpt lat="42.384967999532819" lon="2.706203972920775">
        <ele>491.85000000000002</ele>
        <time>2025-05-15T11:34:48Z</time>
      </trkpt>
      <trkpt lat="42.385090962052345" lon="2.70604002289474">
        <ele>489.93000000000001</ele>
        <time>2025-05-15T11:34:49Z</time>
      </trkpt>
      <trkpt lat="42.385233035311103" lon="2.705941032618284">
        <ele>488.49000000000001</ele>
        <time>2025-05-15T11:34:50Z</time>
      </trkpt>
      <trkpt lat="42.385396985337138" lon="2.705886969342828">
        <ele>486.56</ele>
        <time>2025-05-15T11:34:51Z</time>
      </trkpt>
      <trkpt lat="42.385560013353825" lon="2.705873977392912">
        <ele>485.12</ele>
        <time>2025-05-15T11:34:52Z</time>
      </trkpt>
      <trkpt lat="42.385737961158156" lon="2.705920999869704">
        <ele>482.72000000000003</ele>
        <time>2025-05-15T11:34:53Z</time>
      </trkpt>
      <trkpt lat="42.385892020538449" lon="2.70601999014616">
        <ele>480.80000000000001</ele>
        <time>2025-05-15T11:34:54Z</time>
      </trkpt>
      <trkpt lat="42.386029986664653" lon="2.706158040091395">
        <ele>478.87</ele>
        <time>2025-05-15T11:34:55Z</time>
      </trkpt>
      <trkpt lat="42.386116990819573" lon="2.706358032301068">
        <ele>477.43000000000001</ele>
        <time>2025-05-15T11:34:56Z</time>
      </trkpt>
      <trkpt lat="42.38619796000421" lon="2.706571016460657">
        <ele>475.50999999999999</ele>
        <time>2025-05-15T11:34:57Z</time>
      </trkpt>
      <trkpt lat="42.386222016066313" lon="2.706838985905051">
        <ele>474.55000000000001</ele>
        <time>2025-05-15T11:34:58Z</time>
      </trkpt>
      <trkpt lat="42.386224027723074" lon="2.707127993926406">
        <ele>472.63</ele>
        <time>2025-05-15T11:34:59Z</time>
      </trkpt>
      <trkpt lat="42.386226039379835" lon="2.70743896253407">
        <ele>471.18000000000001</ele>
        <time>2025-05-15T11:35:00Z</time>
      </trkpt>
      <trkpt lat="42.386231990531087" lon="2.709914976730943">
        <ele>461.56999999999999</ele>
        <time>2025-05-15T11:35:07Z</time>
      </trkpt>
      <trkpt lat="42.386207012459636" lon="2.710258970037103">
        <ele>461.08999999999997</ele>
        <time>2025-05-15T11:35:08Z</time>
      </trkpt>
      <trkpt lat="42.386183040216565" lon="2.71059500053525">
        <ele>460.61000000000001</ele>
        <time>2025-05-15T11:35:09Z</time>
      </trkpt>
      <trkpt lat="42.386110033839941" lon="2.710879985243082">
        <ele>460.13</ele>
        <time>2025-05-15T11:35:10Z</time>
      </trkpt>
      <trkpt lat="42.386011965572834" lon="2.711162958294153">
        <ele>460.13</ele>
        <time>2025-05-15T11:35:11Z</time>
      </trkpt>
      <trkpt lat="42.385903000831604" lon="2.711434029042721">
        <ele>460.13</ele>
        <time>2025-05-15T11:35:12Z</time>
      </trkpt>
      <trkpt lat="42.385752964764833" lon="2.711682971566916">
        <ele>460.61000000000001</ele>
        <time>2025-05-15T11:35:13Z</time>
      </trkpt>
      <trkpt lat="42.385580968111753" lon="2.711909031495452">
        <ele>460.61000000000001</ele>
        <time>2025-05-15T11:35:14Z</time>
      </trkpt>
      <trkpt lat="42.385388016700745" lon="2.712113969027996">
        <ele>461.56999999999999</ele>
        <time>2025-05-15T11:35:15Z</time>
      </trkpt>
      <trkpt lat="42.385018961504102" lon="2.712524011731148">
        <ele>463.00999999999999</ele>
        <time>2025-05-15T11:35:17Z</time>
      </trkpt>
      <trkpt lat="42.384892981499434" lon="2.712753005325794">
        <ele>463.97000000000003</ele>
        <time>2025-05-15T11:35:18Z</time>
      </trkpt>
      <trkpt lat="42.384792985394597" lon="2.713002031669021">
        <ele>464.44999999999999</ele>
        <time>2025-05-15T11:35:19Z</time>
      </trkpt>
      <trkpt lat="42.384760966524482" lon="2.713274024426937">
        <ele>464.93000000000001</ele>
        <time>2025-05-15T11:35:20Z</time>
      </trkpt>
      <trkpt lat="42.384744035080075" lon="2.71356001496315">
        <ele>465.42000000000002</ele>
        <time>2025-05-15T11:35:21Z</time>
      </trkpt>
      <trkpt lat="42.384757027029991" lon="2.713867966085672">
        <ele>465.89999999999998</ele>
        <time>2025-05-15T11:35:22Z</time>
      </trkpt>
      <trkpt lat="42.384782005101442" lon="2.714194022119045">
        <ele>465.89999999999998</ele>
        <time>2025-05-15T11:35:23Z</time>
      </trkpt>
      <trkpt lat="42.384926006197929" lon="2.715479973703623">
        <ele>463.97000000000003</ele>
        <time>2025-05-15T11:35:27Z</time>
      </trkpt>
      <trkpt lat="42.384997000917792" lon="2.715747021138668">
        <ele>463.00999999999999</ele>
        <time>2025-05-15T11:35:28Z</time>
      </trkpt>
      <trkpt lat="42.385119963437319" lon="2.716026976704598">
        <ele>461.56999999999999</ele>
        <time>2025-05-15T11:35:29Z</time>
      </trkpt>
      <trkpt lat="42.385236974805593" lon="2.71628899499774">
        <ele>460.13</ele>
        <time>2025-05-15T11:35:30Z</time>
      </trkpt>
      <trkpt lat="42.385417018085718" lon="2.716496028006077">
        <ele>458.69</ele>
        <time>2025-05-15T11:35:31Z</time>
      </trkpt>
      <trkpt lat="42.385595971718431" lon="2.716703983023763">
        <ele>457.24000000000001</ele>
        <time>2025-05-15T11:35:32Z</time>
      </trkpt>
      <trkpt lat="42.385780038312078" lon="2.716895006597042">
        <ele>455.31999999999999</ele>
        <time>2025-05-15T11:35:33Z</time>
      </trkpt>
      <trkpt lat="42.386121014133096" lon="2.71731804125011">
        <ele>451.48000000000002</ele>
        <time>2025-05-15T11:35:35Z</time>
      </trkpt>
      <trkpt lat="42.38623701967299" lon="2.717575030401349">
        <ele>450.02999999999997</ele>
        <time>2025-05-15T11:35:36Z</time>
      </trkpt>
      <trkpt lat="42.386329974979162" lon="2.71783797070384">
        <ele>448.58999999999997</ele>
        <time>2025-05-15T11:35:37Z</time>
      </trkpt>
      <trkpt lat="42.386344978585839" lon="2.718112980946899">
        <ele>447.14999999999998</ele>
        <time>2025-05-15T11:35:38Z</time>
      </trkpt>
      <trkpt lat="42.386333998292685" lon="2.718390002846718">
        <ele>445.70999999999998</ele>
        <time>2025-05-15T11:35:39Z</time>
      </trkpt>
      <trkpt lat="42.386315977200866" lon="2.718669958412647">
        <ele>444.75</ele>
        <time>2025-05-15T11:35:40Z</time>
      </trkpt>
      <trkpt lat="42.386300973594189" lon="2.719214027747512">
        <ele>444.26999999999998</ele>
        <time>2025-05-15T11:35:42Z</time>
      </trkpt>
      <trkpt lat="42.386355036869645" lon="2.719456013292074">
        <ele>443.79000000000002</ele>
        <time>2025-05-15T11:35:43Z</time>
      </trkpt>
      <trkpt lat="42.386455032974482" lon="2.719906959682703">
        <ele>442.33999999999997</ele>
        <time>2025-05-15T11:35:45Z</time>
      </trkpt>
      <trkpt lat="42.386443968862295" lon="2.720104018226266">
        <ele>441.86000000000001</ele>
        <time>2025-05-15T11:35:46Z</time>
      </trkpt>
      <trkpt lat="42.386417984962463" lon="2.720278026536107">
        <ele>441.38</ele>
        <time>2025-05-15T11:35:47Z</time>
      </trkpt>
      <trkpt lat="42.386314971372485" lon="2.720433007925749">
        <ele>440.89999999999998</ele>
        <time>2025-05-15T11:35:48Z</time>
      </trkpt>
      <trkpt lat="42.386200977489352" lon="2.720591006800532">
        <ele>440.42000000000002</ele>
        <time>2025-05-15T11:35:49Z</time>
      </trkpt>
      <trkpt lat="42.386042978614569" lon="2.720717992633581">
        <ele>440.42000000000002</ele>
        <time>2025-05-15T11:35:50Z</time>
      </trkpt>
      <trkpt lat="42.384524010121822" lon="2.721877964213491">
        <ele>439.45999999999998</ele>
        <time>2025-05-15T11:35:58Z</time>
      </trkpt>
      <trkpt lat="42.38292801193893" lon="2.722808020189405">
        <ele>443.31</ele>
        <time>2025-05-15T11:36:05Z</time>
      </trkpt>
      <trkpt lat="42.382718967273831" lon="2.722995020449162">
        <ele>444.26999999999998</ele>
        <time>2025-05-15T11:36:06Z</time>
      </trkpt>
      <trkpt lat="42.382531967014074" lon="2.723216973245144">
        <ele>444.75</ele>
        <time>2025-05-15T11:36:07Z</time>
      </trkpt>
      <trkpt lat="42.381900977343321" lon="2.724146023392677">
        <ele>449.06999999999999</ele>
        <time>2025-05-15T11:36:11Z</time>
      </trkpt>
      <trkpt lat="42.381782038137317" lon="2.724414998665452">
        <ele>450.02999999999997</ele>
        <time>2025-05-15T11:36:12Z</time>
      </trkpt>
      <trkpt lat="42.381676007062197" lon="2.724691014736891">
        <ele>451</ele>
        <time>2025-05-15T11:36:13Z</time>
      </trkpt>
      <trkpt lat="42.381603000685573" lon="2.724992008879781">
        <ele>451.48000000000002</ele>
        <time>2025-05-15T11:36:14Z</time>
      </trkpt>
      <trkpt lat="42.381538962945342" lon="2.72531202994287">
        <ele>451.95999999999998</ele>
        <time>2025-05-15T11:36:15Z</time>
      </trkpt>
      <trkpt lat="42.381412982940674" lon="2.726239990442991">
        <ele>451.95999999999998</ele>
        <time>2025-05-15T11:36:18Z</time>
      </trkpt>
      <trkpt lat="42.381455982103944" lon="2.726524975150824">
        <ele>451.95999999999998</ele>
        <time>2025-05-15T11:36:19Z</time>
      </trkpt>
      <trkpt lat="42.381503004580736" lon="2.72675296291709">
        <ele>451.48000000000002</ele>
        <time>2025-05-15T11:36:20Z</time>
      </trkpt>
      <trkpt lat="42.381586991250515" lon="2.726941974833608">
        <ele>450.51999999999998</ele>
        <time>2025-05-15T11:36:21Z</time>
      </trkpt>
      <trkpt lat="42.381701990962029" lon="2.727092010900378">
        <ele>449.55000000000001</ele>
        <time>2025-05-15T11:36:22Z</time>
      </trkpt>
      <trkpt lat="42.3818330001086" lon="2.727231988683343">
        <ele>449.06999999999999</ele>
        <time>2025-05-15T11:36:23Z</time>
      </trkpt>
      <trkpt lat="42.38198596984148" lon="2.727369032800198">
        <ele>448.11000000000001</ele>
        <time>2025-05-15T11:36:24Z</time>
      </trkpt>
      <trkpt lat="42.382636992260814" lon="2.728015026077628">
        <ele>445.23000000000002</ele>
        <time>2025-05-15T11:36:28Z</time>
      </trkpt>
      <trkpt lat="42.38273598253727" lon="2.728225998580456">
        <ele>444.26999999999998</ele>
        <time>2025-05-15T11:36:29Z</time>
      </trkpt>
      <trkpt lat="42.382830027490854" lon="2.728492962196469">
        <ele>444.26999999999998</ele>
        <time>2025-05-15T11:36:30Z</time>
      </trkpt>
      <trkpt lat="42.382841007784009" lon="2.728699995204806">
        <ele>443.31</ele>
        <time>2025-05-15T11:36:31Z</time>
      </trkpt>
      <trkpt lat="42.382830027490854" lon="2.72894399240613">
        <ele>443.31</ele>
        <time>2025-05-15T11:36:32Z</time>
      </trkpt>
      <trkpt lat="42.382760960608721" lon="2.729149013757706">
        <ele>442.81999999999999</ele>
        <time>2025-05-15T11:36:33Z</time>
      </trkpt>
      <trkpt lat="42.382632968947291" lon="2.729345988482237">
        <ele>442.33999999999997</ele>
        <time>2025-05-15T11:36:34Z</time>
      </trkpt>
      <trkpt lat="42.382471030578017" lon="2.729521002620459">
        <ele>441.86000000000001</ele>
        <time>2025-05-15T11:36:35Z</time>
      </trkpt>
      <trkpt lat="42.382289981469512" lon="2.729648994281888">
        <ele>441.86000000000001</ele>
        <time>2025-05-15T11:36:36Z</time>
      </trkpt>
      <trkpt lat="42.382099963724613" lon="2.729783020913601">
        <ele>441.38</ele>
        <time>2025-05-15T11:36:37Z</time>
      </trkpt>
      <trkpt lat="42.380954995751381" lon="2.730632023885846">
        <ele>442.33999999999997</ele>
        <time>2025-05-15T11:36:43Z</time>
      </trkpt>
      <trkpt lat="42.380833961069584" lon="2.730821035802364">
        <ele>442.33999999999997</ele>
        <time>2025-05-15T11:36:44Z</time>
      </trkpt>
      <trkpt lat="42.380762966349721" lon="2.731038965284824">
        <ele>442.33999999999997</ele>
        <time>2025-05-15T11:36:45Z</time>
      </trkpt>
      <trkpt lat="42.380727007985115" lon="2.7312630135566">
        <ele>442.33999999999997</ele>
        <time>2025-05-15T11:36:46Z</time>
      </trkpt>
      <trkpt lat="42.380739999935031" lon="2.731492007151246">
        <ele>442.33999999999997</ele>
        <time>2025-05-15T11:36:47Z</time>
      </trkpt>
      <trkpt lat="42.380790039896965" lon="2.731718989089131">
        <ele>442.81999999999999</ele>
        <time>2025-05-15T11:36:48Z</time>
      </trkpt>
      <trkpt lat="42.380879977717996" lon="2.731913030147553">
        <ele>443.31</ele>
        <time>2025-05-15T11:36:49Z</time>
      </trkpt>
      <trkpt lat="42.381005035713315" lon="2.732088966295123">
        <ele>443.79000000000002</ele>
        <time>2025-05-15T11:36:50Z</time>
      </trkpt>
      <trkpt lat="42.381139984354377" lon="2.732274038717151">
        <ele>444.75</ele>
        <time>2025-05-15T11:36:51Z</time>
      </trkpt>
      <trkpt lat="42.381312986835837" lon="2.73242399096489">
        <ele>445.23000000000002</ele>
        <time>2025-05-15T11:36:52Z</time>
      </trkpt>
      <trkpt lat="42.381868036463857" lon="2.732904022559524">
        <ele>445.70999999999998</ele>
        <time>2025-05-15T11:36:55Z</time>
      </trkpt>
      <trkpt lat="42.382064005360007" lon="2.733028996735811">
        <ele>445.23000000000002</ele>
        <time>2025-05-15T11:36:56Z</time>
      </trkpt>
      <trkpt lat="42.382269026711583" lon="2.73311197757721">
        <ele>444.75</ele>
        <time>2025-05-15T11:36:57Z</time>
      </trkpt>
      <trkpt lat="42.382476981729269" lon="2.733131004497409">
        <ele>444.26999999999998</ele>
        <time>2025-05-15T11:36:58Z</time>
      </trkpt>
      <trkpt lat="42.382688960060477" lon="2.733146008104086">
        <ele>444.26999999999998</ele>
        <time>2025-05-15T11:36:59Z</time>
      </trkpt>
      <trkpt lat="42.382891969755292" lon="2.733065960928798">
        <ele>443.31</ele>
        <time>2025-05-15T11:37:00Z</time>
      </trkpt>
      <trkpt lat="42.383094979450107" lon="2.732987003400922">
        <ele>442.81999999999999</ele>
        <time>2025-05-15T11:37:01Z</time>
      </trkpt>
      <trkpt lat="42.383280973881483" lon="2.732841996476054">
        <ele>441.38</ele>
        <time>2025-05-15T11:37:02Z</time>
      </trkpt>
      <trkpt lat="42.383448025211692" lon="2.732663964852691">
        <ele>440.42000000000002</ele>
        <time>2025-05-15T11:37:03Z</time>
      </trkpt>
      <trkpt lat="42.383605018258095" lon="2.732459027320147">
        <ele>438.98000000000002</ele>
        <time>2025-05-15T11:37:04Z</time>
      </trkpt>
      <trkpt lat="42.38374600186944" lon="2.732246965169907">
        <ele>438.01999999999998</ele>
        <time>2025-05-15T11:37:05Z</time>
      </trkpt>
      <trkpt lat="42.383987987414002" lon="2.731884028762579">
        <ele>434.17000000000002</ele>
        <time>2025-05-15T11:37:07Z</time>
      </trkpt>
      <trkpt lat="42.384160989895463" lon="2.73175897076726">
        <ele>432.25</ele>
        <time>2025-05-15T11:37:08Z</time>
      </trkpt>
      <trkpt lat="42.384324017912149" lon="2.731641959398985">
        <ele>430.32999999999998</ele>
        <time>2025-05-15T11:37:09Z</time>
      </trkpt>
      <trkpt lat="42.38449702039361" lon="2.731576999649406">
        <ele>428.39999999999998</ele>
        <time>2025-05-15T11:37:10Z</time>
      </trkpt>
      <trkpt lat="42.384674968197942" lon="2.731594014912844">
        <ele>426.95999999999998</ele>
        <time>2025-05-15T11:37:11Z</time>
      </trkpt>
      <trkpt lat="42.384839002043009" lon="2.73167297244072">
        <ele>425.51999999999998</ele>
        <time>2025-05-15T11:37:12Z</time>
      </trkpt>
      <trkpt lat="42.384995995089412" lon="2.73180196993053">
        <ele>424.07999999999998</ele>
        <time>2025-05-15T11:37:13Z</time>
      </trkpt>
      <trkpt lat="42.385147036984563" lon="2.731927027925849">
        <ele>422.63999999999999</ele>
        <time>2025-05-15T11:37:14Z</time>
      </trkpt>
      <trkpt lat="42.385252984240651" lon="2.732138000428677">
        <ele>421.68000000000001</ele>
        <time>2025-05-15T11:37:15Z</time>
      </trkpt>
      <trkpt lat="42.385330013930798" lon="2.732389038428664">
        <ele>420.70999999999998</ele>
        <time>2025-05-15T11:37:16Z</time>
      </trkpt>
      <trkpt lat="42.385354992002249" lon="2.732651978731155">
        <ele>419.75</ele>
        <time>2025-05-15T11:37:17Z</time>
      </trkpt>
      <trkpt lat="42.385321967303753" lon="2.732931012287736">
        <ele>419.26999999999998</ele>
        <time>2025-05-15T11:37:18Z</time>
      </trkpt>
      <trkpt lat="42.385245021432638" lon="2.733194036409259">
        <ele>418.79000000000002</ele>
        <time>2025-05-15T11:37:19Z</time>
      </trkpt>
      <trkpt lat="42.385144019499421" lon="2.733448008075357">
        <ele>417.82999999999998</ele>
        <time>2025-05-15T11:37:20Z</time>
      </trkpt>
      <trkpt lat="42.385041005909443" lon="2.733704997226596">
        <ele>417.35000000000002</ele>
        <time>2025-05-15T11:37:21Z</time>
      </trkpt>
      <trkpt lat="42.384943021461368" lon="2.733963998034596">
        <ele>416.87</ele>
        <time>2025-05-15T11:37:22Z</time>
      </trkpt>
      <trkpt lat="42.384869009256363" lon="2.734245965257287">
        <ele>417.35000000000002</ele>
        <time>2025-05-15T11:37:23Z</time>
      </trkpt>
      <trkpt lat="42.384815029799938" lon="2.734534973278642">
        <ele>417.82999999999998</ele>
        <time>2025-05-15T11:37:24Z</time>
      </trkpt>
      <trkpt lat="42.384788962081075" lon="2.734835967421532">
        <ele>418.79000000000002</ele>
        <time>2025-05-15T11:37:25Z</time>
      </trkpt>
      <trkpt lat="42.384805977344513" lon="2.735140984877944">
        <ele>419.26999999999998</ele>
        <time>2025-05-15T11:37:26Z</time>
      </trkpt>
      <trkpt lat="42.384836990386248" lon="2.735440973192453">
        <ele>420.23000000000002</ele>
        <time>2025-05-15T11:37:27Z</time>
      </trkpt>
      <trkpt lat="42.384866997599602" lon="2.735740039497614">
        <ele>421.19</ele>
        <time>2025-05-15T11:37:28Z</time>
      </trkpt>
      <trkpt lat="42.385261030867696" lon="2.737951017916203">
        <ele>428.39999999999998</ele>
        <time>2025-05-15T11:37:36Z</time>
      </trkpt>
      <trkpt lat="42.385366978123784" lon="2.73818202316761">
        <ele>428.88999999999999</ele>
        <time>2025-05-15T11:37:37Z</time>
      </trkpt>
      <trkpt lat="42.386064017191529" lon="2.739629996940494">
        <ele>428.39999999999998</ele>
        <time>2025-05-15T11:37:43Z</time>
      </trkpt>
      <trkpt lat="42.386166024953127" lon="2.739891009405255">
        <ele>427.44</ele>
        <time>2025-05-15T11:37:44Z</time>
      </trkpt>
      <trkpt lat="42.386210029944777" lon="2.740165013819933">
        <ele>426.48000000000002</ele>
        <time>2025-05-15T11:37:45Z</time>
      </trkpt>
      <trkpt lat="42.386232996359468" lon="2.740432983264327">
        <ele>425.04000000000002</ele>
        <time>2025-05-15T11:37:46Z</time>
      </trkpt>
      <trkpt lat="42.386203994974494" lon="2.740693995729089">
        <ele>424.07999999999998</ele>
        <time>2025-05-15T11:37:47Z</time>
      </trkpt>
      <trkpt lat="42.386168958619237" lon="2.740970011800528">
        <ele>422.63999999999999</ele>
        <time>2025-05-15T11:37:48Z</time>
      </trkpt>
      <trkpt lat="42.386097041890025" lon="2.741261031478643">
        <ele>421.19</ele>
        <time>2025-05-15T11:37:49Z</time>
      </trkpt>
      <trkpt lat="42.385394973680377" lon="2.743879035115242">
        <ele>406.29000000000002</ele>
        <time>2025-05-15T11:37:57Z</time>
      </trkpt>
      <trkpt lat="42.385283997282386" lon="2.744194027036429">
        <ele>404.37</ele>
        <time>2025-05-15T11:37:58Z</time>
      </trkpt>
      <trkpt lat="42.385124992579222" lon="2.744463002309203">
        <ele>401.97000000000003</ele>
        <time>2025-05-15T11:37:59Z</time>
      </trkpt>
      <trkpt lat="42.384962970390916" lon="2.744725020602346">
        <ele>400.05000000000001</ele>
        <time>2025-05-15T11:38:00Z</time>
      </trkpt>
      <trkpt lat="42.384745040908456" lon="2.744896011427045">
        <ele>397.63999999999999</ele>
        <time>2025-05-15T11:38:01Z</time>
      </trkpt>
      <trkpt lat="42.384518980979919" lon="2.745073037222028">
        <ele>395.72000000000003</ele>
        <time>2025-05-15T11:38:02Z</time>
      </trkpt>
      <trkpt lat="42.384288981556892" lon="2.745252996683121">
        <ele>393.31999999999999</ele>
        <time>2025-05-15T11:38:03Z</time>
      </trkpt>
      <trkpt lat="42.38292801193893" lon="2.746327975764871">
        <ele>379.86000000000001</ele>
        <time>2025-05-15T11:38:09Z</time>
      </trkpt>
      <trkpt lat="42.38275702111423" lon="2.746553029865027">
        <ele>378.42000000000002</ele>
        <time>2025-05-15T11:38:10Z</time>
      </trkpt>
      <trkpt lat="42.382603967562318" lon="2.746779005974531">
        <ele>376.97000000000003</ele>
        <time>2025-05-15T11:38:11Z</time>
      </trkpt>
      <trkpt lat="42.382483016699553" lon="2.747035995125771">
        <ele>375.52999999999997</ele>
        <time>2025-05-15T11:38:12Z</time>
      </trkpt>
      <trkpt lat="42.38239198923111" lon="2.747317040339112">
        <ele>374.56999999999999</ele>
        <time>2025-05-15T11:38:13Z</time>
      </trkpt>
      <trkpt lat="42.382314959540963" lon="2.747611999511719">
        <ele>373.61000000000001</ele>
        <time>2025-05-15T11:38:14Z</time>
      </trkpt>
      <trkpt lat="42.38228595815599" lon="2.747923973947763">
        <ele>372.17000000000002</ele>
        <time>2025-05-15T11:38:15Z</time>
      </trkpt>
      <trkpt lat="42.38228403031826" lon="2.748225973919034">
        <ele>370.73000000000002</ele>
        <time>2025-05-15T11:38:16Z</time>
      </trkpt>
      <trkpt lat="42.382309008389711" lon="2.748533003032208">
        <ele>368.80000000000001</ele>
        <time>2025-05-15T11:38:17Z</time>
      </trkpt>
      <trkpt lat="42.382333986461163" lon="2.748833997175098">
        <ele>367.36000000000001</ele>
        <time>2025-05-15T11:38:18Z</time>
      </trkpt>
      <trkpt lat="42.382405987009406" lon="2.74911898188293">
        <ele>365.92000000000002</ele>
        <time>2025-05-15T11:38:19Z</time>
      </trkpt>
      <trkpt lat="42.382504977285862" lon="2.749391980469227">
        <ele>364</ele>
        <time>2025-05-15T11:38:20Z</time>
      </trkpt>
      <trkpt lat="42.382622994482517" lon="2.749653998762369">
        <ele>361.58999999999997</ele>
        <time>2025-05-15T11:38:21Z</time>
      </trkpt>
      <trkpt lat="42.382761966437101" lon="2.749903025105596">
        <ele>359.67000000000002</ele>
        <time>2025-05-15T11:38:22Z</time>
      </trkpt>
      <trkpt lat="42.382938992232084" lon="2.750088013708592">
        <ele>357.26999999999998</ele>
        <time>2025-05-15T11:38:23Z</time>
      </trkpt>
      <trkpt lat="42.383119035512209" lon="2.750276019796729">
        <ele>355.33999999999997</ele>
        <time>2025-05-15T11:38:24Z</time>
      </trkpt>
      <trkpt lat="42.383300000801682" lon="2.750464025884867">
        <ele>352.94</ele>
        <time>2025-05-15T11:38:25Z</time>
      </trkpt>
      <trkpt lat="42.38443398848176" lon="2.75165400467813">
        <ele>341.41000000000003</ele>
        <time>2025-05-15T11:38:32Z</time>
      </trkpt>
      <trkpt lat="42.384537002071738" lon="2.751839999109507">
        <ele>340.92000000000002</ele>
        <time>2025-05-15T11:38:33Z</time>
      </trkpt>
      <trkpt lat="42.384635992348194" lon="2.752023981884122">
        <ele>340.92000000000002</ele>
        <time>2025-05-15T11:38:34Z</time>
      </trkpt>
      <trkpt lat="42.384687960147858" lon="2.752220034599304">
        <ele>340.92000000000002</ele>
        <time>2025-05-15T11:38:35Z</time>
      </trkpt>
      <trkpt lat="42.384738000109792" lon="2.752402005717158">
        <ele>340.92000000000002</ele>
        <time>2025-05-15T11:38:36Z</time>
      </trkpt>
      <trkpt lat="42.384783010929823" lon="2.752572996541858">
        <ele>341.41000000000003</ele>
        <time>2025-05-15T11:38:37Z</time>
      </trkpt>
      <trkpt lat="42.384815029799938" lon="2.752737030386925">
        <ele>341.41000000000003</ele>
        <time>2025-05-15T11:38:38Z</time>
      </trkpt>
      <trkpt lat="42.384909996762872" lon="2.753187976777554">
        <ele>342.37</ele>
        <time>2025-05-15T11:38:41Z</time>
      </trkpt>
      <trkpt lat="42.384954001754522" lon="2.753320997580886">
        <ele>342.85000000000002</ele>
        <time>2025-05-15T11:38:42Z</time>
      </trkpt>
      <trkpt lat="42.385017033666372" lon="2.753420993685722">
        <ele>343.32999999999998</ele>
        <time>2025-05-15T11:38:43Z</time>
      </trkpt>
      <trkpt lat="42.385098002851009" lon="2.753492994233966">
        <ele>343.32999999999998</ele>
        <time>2025-05-15T11:38:44Z</time>
      </trkpt>
      <trkpt lat="42.385178972035646" lon="2.753558959811926">
        <ele>343.32999999999998</ele>
        <time>2025-05-15T11:38:45Z</time>
      </trkpt>
      <trkpt lat="42.385277040302753" lon="2.753591984510422">
        <ele>343.32999999999998</ele>
        <time>2025-05-15T11:38:46Z</time>
      </trkpt>
      <trkpt lat="42.385375024750829" lon="2.753624003380537">
        <ele>343.32999999999998</ele>
        <time>2025-05-15T11:38:47Z</time>
      </trkpt>
      <trkpt lat="42.385476026684046" lon="2.753665996715426">
        <ele>343.32999999999998</ele>
        <time>2025-05-15T11:38:48Z</time>
      </trkpt>
      <trkpt lat="42.385570993646979" lon="2.753714025020599">
        <ele>343.32999999999998</ele>
        <time>2025-05-15T11:38:49Z</time>
      </trkpt>
      <trkpt lat="42.385668978095055" lon="2.753762975335121">
        <ele>343.32999999999998</ele>
        <time>2025-05-15T11:38:50Z</time>
      </trkpt>
      <trkpt lat="42.385762017220259" lon="2.753809997811914">
        <ele>343.32999999999998</ele>
        <time>2025-05-15T11:38:51Z</time>
      </trkpt>
      <trkpt lat="42.385822031646967" lon="2.753932038322091">
        <ele>343.32999999999998</ele>
        <time>2025-05-15T11:38:52Z</time>
      </trkpt>
      <trkpt lat="42.385868970304728" lon="2.754062041640282">
        <ele>343.32999999999998</ele>
        <time>2025-05-15T11:38:53Z</time>
      </trkpt>
      <trkpt lat="42.385905012488365" lon="2.754205958917737">
        <ele>343.32999999999998</ele>
        <time>2025-05-15T11:38:54Z</time>
      </trkpt>
      <trkpt lat="42.385941976681352" lon="2.754355994984508">
        <ele>343.32999999999998</ele>
        <time>2025-05-15T11:38:55Z</time>
      </trkpt>
      <trkpt lat="42.386330980807543" lon="2.755816038697958">
        <ele>344.29000000000002</ele>
        <time>2025-05-15T11:39:04Z</time>
      </trkpt>
      <trkpt lat="42.38683900795877" lon="2.757687969133258">
        <ele>345.25</ele>
        <time>2025-05-15T11:39:14Z</time>
      </trkpt>
      <trkpt lat="42.387143019586802" lon="2.758812988176942">
        <ele>344.76999999999998</ele>
        <time>2025-05-15T11:39:20Z</time>
      </trkpt>
      <trkpt lat="42.387217031791806" lon="2.758947014808655">
        <ele>344.29000000000002</ele>
        <time>2025-05-15T11:39:21Z</time>
      </trkpt>
      <trkpt lat="42.387310992926359" lon="2.759056985378265">
        <ele>343.81</ele>
        <time>2025-05-15T11:39:22Z</time>
      </trkpt>
      <trkpt lat="42.387424986809492" lon="2.759152036160231">
        <ele>343.81</ele>
        <time>2025-05-15T11:39:23Z</time>
      </trkpt>
      <trkpt lat="42.38754803314805" lon="2.759255971759558">
        <ele>343.81</ele>
        <time>2025-05-15T11:39:24Z</time>
      </trkpt>
      <trkpt lat="42.387666972354054" lon="2.759363008663058">
        <ele>343.81</ele>
        <time>2025-05-15T11:39:25Z</time>
      </trkpt>
      <trkpt lat="42.387755988165736" lon="2.759492006152868">
        <ele>343.81</ele>
        <time>2025-05-15T11:39:26Z</time>
      </trkpt>
      <trkpt lat="42.387820025905967" lon="2.759654028341174">
        <ele>343.81</ele>
        <time>2025-05-15T11:39:27Z</time>
      </trkpt>
      <trkpt lat="42.38785196095705" lon="2.759838011115789">
        <ele>343.81</ele>
        <time>2025-05-15T11:39:28Z</time>
      </trkpt>
      <trkpt lat="42.387863025069237" lon="2.760004978626967">
        <ele>343.81</ele>
        <time>2025-05-15T11:39:29Z</time>
      </trkpt>
      <trkpt lat="42.387837963178754" lon="2.760167000815272">
        <ele>343.81</ele>
        <time>2025-05-15T11:39:30Z</time>
      </trkpt>
      <trkpt lat="42.387810973450541" lon="2.760335979983211">
        <ele>343.32999999999998</ele>
        <time>2025-05-15T11:39:31Z</time>
      </trkpt>
      <trkpt lat="42.387776020914316" lon="2.760521974414587">
        <ele>343.32999999999998</ele>
        <time>2025-05-15T11:39:32Z</time>
      </trkpt>
      <trkpt lat="42.387717012315989" lon="2.760716015473008">
        <ele>343.32999999999998</ele>
        <time>2025-05-15T11:39:33Z</time>
      </trkpt>
      <trkpt lat="42.387434961274266" lon="2.761746989563108">
        <ele>344.76999999999998</ele>
        <time>2025-05-15T11:39:38Z</time>
      </trkpt>
      <trkpt lat="42.387422975152731" lon="2.761917980387807">
        <ele>344.76999999999998</ele>
        <time>2025-05-15T11:39:39Z</time>
      </trkpt>
      <trkpt lat="42.387458011507988" lon="2.762076985090971">
        <ele>344.76999999999998</ele>
        <time>2025-05-15T11:39:40Z</time>
      </trkpt>
      <trkpt lat="42.387516014277935" lon="2.762233978137374">
        <ele>344.29000000000002</ele>
        <time>2025-05-15T11:39:41Z</time>
      </trkpt>
      <trkpt lat="42.387609975412488" lon="2.762400023639202">
        <ele>343.81</ele>
        <time>2025-05-15T11:39:42Z</time>
      </trkpt>
      <trkpt lat="42.388368034735322" lon="2.763582961633802">
        <ele>339</ele>
        <time>2025-05-15T11:39:48Z</time>
      </trkpt>
      <trkpt lat="42.388944961130619" lon="2.76424203068018">
        <ele>336.12</ele>
        <time>2025-05-15T11:39:52Z</time>
      </trkpt>
      <trkpt lat="42.389080999419093" lon="2.764310007914901">
        <ele>335.63999999999999</ele>
        <time>2025-05-15T11:39:53Z</time>
      </trkpt>
      <trkpt lat="42.389204967767" lon="2.764370022341609">
        <ele>334.68000000000001</ele>
        <time>2025-05-15T11:39:54Z</time>
      </trkpt>
      <trkpt lat="42.389338994398713" lon="2.764324005693197">
        <ele>334.19999999999999</ele>
        <time>2025-05-15T11:39:55Z</time>
      </trkpt>
      <trkpt lat="42.389491964131594" lon="2.764271032065153">
        <ele>333.70999999999998</ele>
        <time>2025-05-15T11:39:56Z</time>
      </trkpt>
      <trkpt lat="42.390003008767962" lon="2.76411596685648">
        <ele>330.82999999999998</ele>
        <time>2025-05-15T11:39:59Z</time>
      </trkpt>
      <trkpt lat="42.390168970450759" lon="2.764128036797047">
        <ele>329.87</ele>
        <time>2025-05-15T11:40:00Z</time>
      </trkpt>
      <trkpt lat="42.390311965718865" lon="2.764186961576343">
        <ele>328.91000000000003</ele>
        <time>2025-05-15T11:40:01Z</time>
      </trkpt>
      <trkpt lat="42.390440963208675" lon="2.764305984601378">
        <ele>328.43000000000001</ele>
        <time>2025-05-15T11:40:02Z</time>
      </trkpt>
      <trkpt lat="42.390550011768937" lon="2.764453003183007">
        <ele>327.94999999999999</ele>
        <time>2025-05-15T11:40:03Z</time>
      </trkpt>
      <trkpt lat="42.390638021752238" lon="2.764640003442764">
        <ele>327.94999999999999</ele>
        <time>2025-05-15T11:40:04Z</time>
      </trkpt>
      <trkpt lat="42.39072997123003" lon="2.764836978167296">
        <ele>327.47000000000003</ele>
        <time>2025-05-15T11:40:05Z</time>
      </trkpt>
      <trkpt lat="42.390822004526854" lon="2.765033030882478">
        <ele>326.99000000000001</ele>
        <time>2025-05-15T11:40:06Z</time>
      </trkpt>
      <trkpt lat="42.390869027003646" lon="2.765236040577292">
        <ele>326.99000000000001</ele>
        <time>2025-05-15T11:40:07Z</time>
      </trkpt>
      <trkpt lat="42.390906997025013" lon="2.76542698033154">
        <ele>326.99000000000001</ele>
        <time>2025-05-15T11:40:08Z</time>
      </trkpt>
      <trkpt lat="42.390930969268084" lon="2.765625966712833">
        <ele>326.99000000000001</ele>
        <time>2025-05-15T11:40:09Z</time>
      </trkpt>
      <trkpt lat="42.390874978154898" lon="2.76581397280097">
        <ele>326.99000000000001</ele>
        <time>2025-05-15T11:40:10Z</time>
      </trkpt>
      <trkpt lat="42.390816975384951" lon="2.766012037172914">
        <ele>326.99000000000001</ele>
        <time>2025-05-15T11:40:11Z</time>
      </trkpt>
      <trkpt lat="42.390742041170597" lon="2.766208006069064">
        <ele>326.99000000000001</ele>
        <time>2025-05-15T11:40:12Z</time>
      </trkpt>
      <trkpt lat="42.390620000660419" lon="2.766367010772228">
        <ele>326.99000000000001</ele>
        <time>2025-05-15T11:40:13Z</time>
      </trkpt>
      <trkpt lat="42.390470970422029" lon="2.766512017697096">
        <ele>326.5</ele>
        <time>2025-05-15T11:40:14Z</time>
      </trkpt>
      <trkpt lat="42.390296040102839" lon="2.766631040722132">
        <ele>326.5</ele>
        <time>2025-05-15T11:40:15Z</time>
      </trkpt>
      <trkpt lat="42.390101999044418" lon="2.766699017956853">
        <ele>326.5</ele>
        <time>2025-05-15T11:40:16Z</time>
      </trkpt>
      <trkpt lat="42.389899995177984" lon="2.766770012676716">
        <ele>326.01999999999998</ele>
        <time>2025-05-15T11:40:17Z</time>
      </trkpt>
      <trkpt lat="42.388650001958013" lon="2.767353979870677">
        <ele>325.54000000000002</ele>
        <time>2025-05-15T11:40:23Z</time>
      </trkpt>
      <trkpt lat="42.387641994282603" lon="2.767847003415227">
        <ele>326.01999999999998</ele>
        <time>2025-05-15T11:40:28Z</time>
      </trkpt>
      <trkpt lat="42.386958030983806" lon="2.768331980332732">
        <ele>324.57999999999998</ele>
        <time>2025-05-15T11:40:32Z</time>
      </trkpt>
      <trkpt lat="42.38686197437346" lon="2.768495008349419">
        <ele>323.62</ele>
        <time>2025-05-15T11:40:33Z</time>
      </trkpt>
      <trkpt lat="42.386798020452261" lon="2.768687959760428">
        <ele>323.13999999999999</ele>
        <time>2025-05-15T11:40:34Z</time>
      </trkpt>
      <trkpt lat="42.386752003803849" lon="2.768903039395809">
        <ele>322.18000000000001</ele>
        <time>2025-05-15T11:40:35Z</time>
      </trkpt>
      <trkpt lat="42.386712022125721" lon="2.76914200745523">
        <ele>321.69999999999999</ele>
        <time>2025-05-15T11:40:36Z</time>
      </trkpt>
      <trkpt lat="42.386672040447593" lon="2.769382987171412">
        <ele>320.74000000000001</ele>
        <time>2025-05-15T11:40:37Z</time>
      </trkpt>
      <trkpt lat="42.386602973565459" lon="2.769588008522987">
        <ele>320.25999999999999</ele>
        <time>2025-05-15T11:40:38Z</time>
      </trkpt>
      <trkpt lat="42.386486968025565" lon="2.769758999347687">
        <ele>319.77999999999997</ele>
        <time>2025-05-15T11:40:39Z</time>
      </trkpt>
      <trkpt lat="42.386244982481003" lon="2.770115984603763">
        <ele>318.81</ele>
        <time>2025-05-15T11:40:41Z</time>
      </trkpt>
      <trkpt lat="42.386154038831592" lon="2.770341038703919">
        <ele>318.32999999999998</ele>
        <time>2025-05-15T11:40:42Z</time>
      </trkpt>
      <trkpt lat="42.386058988049626" lon="2.770576989278197">
        <ele>317.37</ele>
        <time>2025-05-15T11:40:43Z</time>
      </trkpt>
      <trkpt lat="42.385972989723086" lon="2.770825009793043">
        <ele>316.88999999999999</ele>
        <time>2025-05-15T11:40:44Z</time>
      </trkpt>
      <trkpt lat="42.385924961417913" lon="2.771099014207721">
        <ele>316.41000000000003</ele>
        <time>2025-05-15T11:40:45Z</time>
      </trkpt>
      <trkpt lat="42.38587299361825" lon="2.771391961723566">
        <ele>315.93000000000001</ele>
        <time>2025-05-15T11:40:46Z</time>
      </trkpt>
      <trkpt lat="42.385819014161825" lon="2.771693961694837">
        <ele>314.97000000000003</ele>
        <time>2025-05-15T11:40:47Z</time>
      </trkpt>
      <trkpt lat="42.385244015604258" lon="2.773855989798904">
        <ele>311.12</ele>
        <time>2025-05-15T11:40:54Z</time>
      </trkpt>
      <trkpt lat="42.384436000138521" lon="2.775389039888978">
        <ele>308.24000000000001</ele>
        <time>2025-05-15T11:41:00Z</time>
      </trkpt>
      <trkpt lat="42.38394096493721" lon="2.776327980682254">
        <ele>304.88</ele>
        <time>2025-05-15T11:41:05Z</time>
      </trkpt>
      <trkpt lat="42.383881034329534" lon="2.776515986770392">
        <ele>303.91000000000003</ele>
        <time>2025-05-15T11:41:06Z</time>
      </trkpt>
      <trkpt lat="42.383867958560586" lon="2.776731988415122">
        <ele>303.43000000000001</ele>
        <time>2025-05-15T11:41:07Z</time>
      </trkpt>
      <trkpt lat="42.383873993530869" lon="2.776928041130304">
        <ele>302.47000000000003</ele>
        <time>2025-05-15T11:41:08Z</time>
      </trkpt>
      <trkpt lat="42.383919004350901" lon="2.777144964784384">
        <ele>301.02999999999997</ele>
        <time>2025-05-15T11:41:09Z</time>
      </trkpt>
      <trkpt lat="42.383967032656074" lon="2.77737395837903">
        <ele>300.06999999999999</ele>
        <time>2025-05-15T11:41:10Z</time>
      </trkpt>
      <trkpt lat="42.384052025154233" lon="2.777518965303898">
        <ele>299.11000000000001</ele>
        <time>2025-05-15T11:41:11Z</time>
      </trkpt>
      <trkpt lat="42.38415302708745" lon="2.77767201885581">
        <ele>298.14999999999998</ele>
        <time>2025-05-15T11:41:12Z</time>
      </trkpt>
      <trkpt lat="42.384273977950215" lon="2.777806967496872">
        <ele>296.69999999999999</ele>
        <time>2025-05-15T11:41:13Z</time>
      </trkpt>
      <trkpt lat="42.38441102206707" lon="2.777877962216735">
        <ele>295.74000000000001</ele>
        <time>2025-05-15T11:41:14Z</time>
      </trkpt>
      <trkpt lat="42.384558040648699" lon="2.777941999956965">
        <ele>294.77999999999997</ele>
        <time>2025-05-15T11:41:15Z</time>
      </trkpt>
      <trkpt lat="42.384701035916805" lon="2.777977036312223">
        <ele>293.33999999999997</ele>
        <time>2025-05-15T11:41:16Z</time>
      </trkpt>
      <trkpt lat="42.384849982336164" lon="2.777980975806713">
        <ele>292.38</ele>
        <time>2025-05-15T11:41:17Z</time>
      </trkpt>
      <trkpt lat="42.384999012574553" lon="2.777984999120235">
        <ele>291.42000000000002</ele>
        <time>2025-05-15T11:41:18Z</time>
      </trkpt>
      <trkpt lat="42.385303024202585" lon="2.777993967756629">
        <ele>289.49000000000001</ele>
        <time>2025-05-15T11:41:20Z</time>
      </trkpt>
      <trkpt lat="42.385452976450324" lon="2.778052976354957">
        <ele>288.52999999999997</ele>
        <time>2025-05-15T11:41:21Z</time>
      </trkpt>
      <trkpt lat="42.385590020567179" lon="2.778137968853116">
        <ele>287.08999999999997</ele>
        <time>2025-05-15T11:41:22Z</time>
      </trkpt>
      <trkpt lat="42.385705020278692" lon="2.77821097522974">
        <ele>286.13</ele>
        <time>2025-05-15T11:41:23Z</time>
      </trkpt>
      <trkpt lat="42.385832006111741" lon="2.778371991589665">
        <ele>284.20999999999998</ele>
        <time>2025-05-15T11:41:24Z</time>
      </trkpt>
      <trkpt lat="42.385940970852971" lon="2.778510041534901">
        <ele>282.76999999999998</ele>
        <time>2025-05-15T11:41:25Z</time>
      </trkpt>
      <trkpt lat="42.386026969179511" lon="2.77861800044775">
        <ele>281.31999999999999</ele>
        <time>2025-05-15T11:41:26Z</time>
      </trkpt>
      <trkpt lat="42.386171976104379" lon="2.778739035129547">
        <ele>279.88</ele>
        <time>2025-05-15T11:41:27Z</time>
      </trkpt>
      <trkpt lat="42.386286975815892" lon="2.778834002092481">
        <ele>278.44</ele>
        <time>2025-05-15T11:41:28Z</time>
      </trkpt>
      <trkpt lat="42.386425025761127" lon="2.778865015134215">
        <ele>277</ele>
        <time>2025-05-15T11:41:29Z</time>
      </trkpt>
      <trkpt lat="42.386562991887331" lon="2.778897034004331">
        <ele>275.56</ele>
        <time>2025-05-15T11:41:30Z</time>
      </trkpt>
      <trkpt lat="42.386707998812199" lon="2.778897034004331">
        <ele>274.11000000000001</ele>
        <time>2025-05-15T11:41:31Z</time>
      </trkpt>
      <trkpt lat="42.386858034878969" lon="2.778897034004331">
        <ele>273.14999999999998</ele>
        <time>2025-05-15T11:41:32Z</time>
      </trkpt>
      <trkpt lat="42.38716104067862" lon="2.778944978490472">
        <ele>270.26999999999998</ele>
        <time>2025-05-15T11:41:34Z</time>
      </trkpt>
      <trkpt lat="42.387315016239882" lon="2.778999963775277">
        <ele>268.82999999999998</ele>
        <time>2025-05-15T11:41:35Z</time>
      </trkpt>
      <trkpt lat="42.387447031214833" lon="2.779107000678778">
        <ele>267.38</ele>
        <time>2025-05-15T11:41:36Z</time>
      </trkpt>
      <trkpt lat="42.387578040361404" lon="2.779211020097137">
        <ele>266.42000000000002</ele>
        <time>2025-05-15T11:41:37Z</time>
      </trkpt>
      <trkpt lat="42.387683987617493" lon="2.779373964294791">
        <ele>264.98000000000002</ele>
        <time>2025-05-15T11:41:38Z</time>
      </trkpt>
      <trkpt lat="42.387766968458891" lon="2.779535986483097">
        <ele>264.01999999999998</ele>
        <time>2025-05-15T11:41:39Z</time>
      </trkpt>
      <trkpt lat="42.387841986492276" lon="2.779681999236345">
        <ele>262.57999999999998</ele>
        <time>2025-05-15T11:41:40Z</time>
      </trkpt>
      <trkpt lat="42.387966960668564" lon="2.779923984780908">
        <ele>260.17000000000002</ele>
        <time>2025-05-15T11:41:42Z</time>
      </trkpt>
      <trkpt lat="42.388049019500613" lon="2.779990034177899">
        <ele>259.20999999999998</ele>
        <time>2025-05-15T11:41:43Z</time>
      </trkpt>
      <trkpt lat="42.388145998120308" lon="2.780046025291085">
        <ele>258.25</ele>
        <time>2025-05-15T11:41:44Z</time>
      </trkpt>
      <trkpt lat="42.388245994225144" lon="2.780106039717794">
        <ele>257.29000000000002</ele>
        <time>2025-05-15T11:41:45Z</time>
      </trkpt>
      <trkpt lat="42.3883449845016" lon="2.780164964497089">
        <ele>256.81</ele>
        <time>2025-05-15T11:41:46Z</time>
      </trkpt>
      <trkpt lat="42.388424025848508" lon="2.780269989743829">
        <ele>255.84999999999999</ele>
        <time>2025-05-15T11:41:47Z</time>
      </trkpt>
      <trkpt lat="42.388500971719623" lon="2.780371997505426">
        <ele>254.88999999999999</ele>
        <time>2025-05-15T11:41:48Z</time>
      </trkpt>
      <trkpt lat="42.388574983924627" lon="2.780470987781882">
        <ele>254.41</ele>
        <time>2025-05-15T11:41:49Z</time>
      </trkpt>
      <trkpt lat="42.388648996129632" lon="2.780521027743816">
        <ele>253.93000000000001</ele>
        <time>2025-05-15T11:41:50Z</time>
      </trkpt>
      <trkpt lat="42.388732982799411" lon="2.780547011643648">
        <ele>253.93000000000001</ele>
        <time>2025-05-15T11:41:51Z</time>
      </trkpt>
      <trkpt lat="42.38896700553596" lon="2.780635021626949">
        <ele>252.47999999999999</ele>
        <time>2025-05-15T11:41:54Z</time>
      </trkpt>
      <trkpt lat="42.38903196528554" lon="2.780667962506414">
        <ele>252</ele>
        <time>2025-05-15T11:41:55Z</time>
      </trkpt>
      <trkpt lat="42.389083011075854" lon="2.780770976096392">
        <ele>251.52000000000001</ele>
        <time>2025-05-15T11:41:56Z</time>
      </trkpt>
      <trkpt lat="42.38909499719739" lon="2.780892010778189">
        <ele>252</ele>
        <time>2025-05-15T11:41:57Z</time>
      </trkpt>
      <trkpt lat="42.38909499719739" lon="2.78102301992476">
        <ele>252</ele>
        <time>2025-05-15T11:41:58Z</time>
      </trkpt>
      <trkpt lat="42.38909499719739" lon="2.78115201741457">
        <ele>252.47999999999999</ele>
        <time>2025-05-15T11:41:59Z</time>
      </trkpt>
      <trkpt lat="42.38909499719739" lon="2.781383022665978">
        <ele>252.47999999999999</ele>
        <time>2025-05-15T11:42:01Z</time>
      </trkpt>
      <trkpt lat="42.389060966670513" lon="2.781485030427575">
        <ele>252</ele>
        <time>2025-05-15T11:42:02Z</time>
      </trkpt>
      <trkpt lat="42.388987960293889" lon="2.781601035967469">
        <ele>251.52000000000001</ele>
        <time>2025-05-15T11:42:03Z</time>
      </trkpt>
      <trkpt lat="42.388892993330956" lon="2.78164797462523">
        <ele>251.52000000000001</ele>
        <time>2025-05-15T11:42:04Z</time>
      </trkpt>
      <trkpt lat="42.388791991397738" lon="2.781699020415545">
        <ele>251.52000000000001</ele>
        <time>2025-05-15T11:42:05Z</time>
      </trkpt>
      <trkpt lat="42.388694006949663" lon="2.781747970730066">
        <ele>251.52000000000001</ele>
        <time>2025-05-15T11:42:06Z</time>
      </trkpt>
      <trkpt lat="42.388587975874543" lon="2.781806979328394">
        <ele>251.52000000000001</ele>
        <time>2025-05-15T11:42:07Z</time>
      </trkpt>
      <trkpt lat="42.388452021405101" lon="2.781944023445249">
        <ele>251.52000000000001</ele>
        <time>2025-05-15T11:42:08Z</time>
      </trkpt>
      <trkpt lat="42.388352025300264" lon="2.782111996784806">
        <ele>251.52000000000001</ele>
        <time>2025-05-15T11:42:09Z</time>
      </trkpt>
      <trkpt lat="42.388226967304945" lon="2.782320035621524">
        <ele>251.52000000000001</ele>
        <time>2025-05-15T11:42:10Z</time>
      </trkpt>
      <trkpt lat="42.387632019817829" lon="2.783260988071561">
        <ele>251.52000000000001</ele>
        <time>2025-05-15T11:42:14Z</time>
      </trkpt>
      <trkpt lat="42.387344017624855" lon="2.783637000247836">
        <ele>252</ele>
        <time>2025-05-15T11:42:16Z</time>
      </trkpt>
      <trkpt lat="42.386537007987499" lon="2.784951031208038">
        <ele>252</ele>
        <time>2025-05-15T11:42:22Z</time>
      </trkpt>
      <trkpt lat="42.386239031329751" lon="2.785301981493831">
        <ele>251.52000000000001</ele>
        <time>2025-05-15T11:42:24Z</time>
      </trkpt>
      <trkpt lat="42.38610802218318" lon="2.785522006452084">
        <ele>251.03999999999999</ele>
        <time>2025-05-15T11:42:25Z</time>
      </trkpt>
      <trkpt lat="42.385971983894706" lon="2.785747982561588">
        <ele>251.03999999999999</ele>
        <time>2025-05-15T11:42:26Z</time>
      </trkpt>
      <trkpt lat="42.38582999445498" lon="2.785980999469757">
        <ele>250.56</ele>
        <time>2025-05-15T11:42:27Z</time>
      </trkpt>
      <trkpt lat="42.385639976710081" lon="2.786112008616328">
        <ele>250.56</ele>
        <time>2025-05-15T11:42:28Z</time>
      </trkpt>
      <trkpt lat="42.385436967015266" lon="2.786231031641364">
        <ele>250.08000000000001</ele>
        <time>2025-05-15T11:42:29Z</time>
      </trkpt>
      <trkpt lat="42.385214008390903" lon="2.786302026361227">
        <ele>249.59999999999999</ele>
        <time>2025-05-15T11:42:30Z</time>
      </trkpt>
      <trkpt lat="42.384991971775889" lon="2.78637302108109">
        <ele>249.59999999999999</ele>
        <time>2025-05-15T11:42:31Z</time>
      </trkpt>
      <trkpt lat="42.384572038426995" lon="2.786506963893771">
        <ele>248.63999999999999</ele>
        <time>2025-05-15T11:42:33Z</time>
      </trkpt>
      <trkpt lat="42.384376991540194" lon="2.786630010232329">
        <ele>248.16</ele>
        <time>2025-05-15T11:42:34Z</time>
      </trkpt>
      <trkpt lat="42.384181022644043" lon="2.786764958873391">
        <ele>247.19999999999999</ele>
        <time>2025-05-15T11:42:35Z</time>
      </trkpt>
      <trkpt lat="42.383993016555905" lon="2.786938967183232">
        <ele>246.72</ele>
        <time>2025-05-15T11:42:36Z</time>
      </trkpt>
      <trkpt lat="42.383807022124529" lon="2.787124961614609">
        <ele>245.75</ele>
        <time>2025-05-15T11:42:37Z</time>
      </trkpt>
      <trkpt lat="42.383629996329546" lon="2.787302993237972">
        <ele>245.27000000000001</ele>
        <time>2025-05-15T11:42:38Z</time>
      </trkpt>
      <trkpt lat="42.383453976362944" lon="2.787436014041305">
        <ele>244.31</ele>
        <time>2025-05-15T11:42:39Z</time>
      </trkpt>
      <trkpt lat="42.383263036608696" lon="2.787526035681367">
        <ele>243.83000000000001</ele>
        <time>2025-05-15T11:42:40Z</time>
      </trkpt>
      <trkpt lat="42.383054997771978" lon="2.787564005702734">
        <ele>242.87</ele>
        <time>2025-05-15T11:42:41Z</time>
      </trkpt>
      <trkpt lat="42.38284301944077" lon="2.787601975724101">
        <ele>242.38999999999999</ele>
        <time>2025-05-15T11:42:42Z</time>
      </trkpt>
      <trkpt lat="42.382626011967659" lon="2.78764103539288">
        <ele>241.43000000000001</ele>
        <time>2025-05-15T11:42:43Z</time>
      </trkpt>
      <trkpt lat="42.382405987009406" lon="2.787696020677686">
        <ele>240.94999999999999</ele>
        <time>2025-05-15T11:42:44Z</time>
      </trkpt>
      <trkpt lat="42.38220096565783" lon="2.787822000682354">
        <ele>239.99000000000001</ele>
        <time>2025-05-15T11:42:45Z</time>
      </trkpt>
      <trkpt lat="42.380459038540721" lon="2.78901700861752">
        <ele>234.22</ele>
        <time>2025-05-15T11:42:53Z</time>
      </trkpt>
      <trkpt lat="42.380257034674287" lon="2.789098983630538">
        <ele>233.74000000000001</ele>
        <time>2025-05-15T11:42:54Z</time>
      </trkpt>
      <trkpt lat="42.38007397390902" lon="2.789174001663923">
        <ele>232.78</ele>
        <time>2025-05-15T11:42:55Z</time>
      </trkpt>
      <trkpt lat="42.379913963377476" lon="2.789300987496972">
        <ele>232.30000000000001</ele>
        <time>2025-05-15T11:42:56Z</time>
      </trkpt>
      <trkpt lat="42.379759987816215" lon="2.789455968886614">
        <ele>231.33000000000001</ele>
        <time>2025-05-15T11:42:57Z</time>
      </trkpt>
      <trkpt lat="42.379596037790179" lon="2.789631988853216">
        <ele>230.84999999999999</ele>
        <time>2025-05-15T11:42:58Z</time>
      </trkpt>
      <trkpt lat="42.379439966753125" lon="2.789837010204792">
        <ele>229.88999999999999</ele>
        <time>2025-05-15T11:42:59Z</time>
      </trkpt>
      <trkpt lat="42.379171997308731" lon="2.790225008502603">
        <ele>228.93000000000001</ele>
        <time>2025-05-15T11:43:01Z</time>
      </trkpt>
      <trkpt lat="42.379107037559152" lon="2.790425000712276">
        <ele>227.97</ele>
        <time>2025-05-15T11:43:02Z</time>
      </trkpt>
      <trkpt lat="42.379082981497049" lon="2.790624992921948">
        <ele>227.97</ele>
        <time>2025-05-15T11:43:03Z</time>
      </trkpt>
      <trkpt lat="42.379022967070341" lon="2.792240018025041">
        <ele>227.97</ele>
        <time>2025-05-15T11:43:09Z</time>
      </trkpt>
      <trkpt lat="42.378906961530447" lon="2.793049961328507">
        <ele>227.97</ele>
        <time>2025-05-15T11:43:12Z</time>
      </trkpt>
      <trkpt lat="42.378833033144474" lon="2.793311979621649">
        <ele>228.44999999999999</ele>
        <time>2025-05-15T11:43:13Z</time>
      </trkpt>
      <trkpt lat="42.378758015111089" lon="2.793578021228313">
        <ele>228.93000000000001</ele>
        <time>2025-05-15T11:43:14Z</time>
      </trkpt>
      <trkpt lat="42.378635974600911" lon="2.793814977630973">
        <ele>228.93000000000001</ele>
        <time>2025-05-15T11:43:15Z</time>
      </trkpt>
      <trkpt lat="42.378508988767862" lon="2.794053023681045">
        <ele>229.41</ele>
        <time>2025-05-15T11:43:16Z</time>
      </trkpt>
      <trkpt lat="42.378365993499756" lon="2.794286040589213">
        <ele>229.88999999999999</ele>
        <time>2025-05-15T11:43:17Z</time>
      </trkpt>
      <trkpt lat="42.378187039867043" lon="2.794478992000222">
        <ele>229.88999999999999</ele>
        <time>2025-05-15T11:43:18Z</time>
      </trkpt>
      <trkpt lat="42.378003979101777" lon="2.794674960896373">
        <ele>229.88999999999999</ele>
        <time>2025-05-15T11:43:19Z</time>
      </trkpt>
      <trkpt lat="42.377814967185259" lon="2.794874031096697">
        <ele>229.88999999999999</ele>
        <time>2025-05-15T11:43:20Z</time>
      </trkpt>
      <trkpt lat="42.377423029392958" lon="2.795201009139419">
        <ele>230.37</ele>
        <time>2025-05-15T11:43:22Z</time>
      </trkpt>
      <trkpt lat="42.377117006108165" lon="2.795455986633897">
        <ele>231.33000000000001</ele>
        <time>2025-05-15T11:43:24Z</time>
      </trkpt>
      <trkpt lat="42.377047017216682" lon="2.79554701410234">
        <ele>231.81</ele>
        <time>2025-05-15T11:43:25Z</time>
      </trkpt>
      <trkpt lat="42.377018015831709" lon="2.795662013813853">
        <ele>231.81</ele>
        <time>2025-05-15T11:43:26Z</time>
      </trkpt>
      <trkpt lat="42.376988008618355" lon="2.795783970504999">
        <ele>232.30000000000001</ele>
        <time>2025-05-15T11:43:27Z</time>
      </trkpt>
      <trkpt lat="42.376950960606337" lon="2.795930989086628">
        <ele>232.30000000000001</ele>
        <time>2025-05-15T11:43:28Z</time>
      </trkpt>
      <trkpt lat="42.376892035827041" lon="2.796090999618173">
        <ele>233.25999999999999</ele>
        <time>2025-05-15T11:43:29Z</time>
      </trkpt>
      <trkpt lat="42.376802014186978" lon="2.796265007928014">
        <ele>233.74000000000001</ele>
        <time>2025-05-15T11:43:30Z</time>
      </trkpt>
      <trkpt lat="42.376702018082142" lon="2.796457037329674">
        <ele>234.22</ele>
        <time>2025-05-15T11:43:31Z</time>
      </trkpt>
      <trkpt lat="42.376614008098841" lon="2.79666499234736">
        <ele>234.22</ele>
        <time>2025-05-15T11:43:32Z</time>
      </trkpt>
      <trkpt lat="42.376534966751933" lon="2.796902032569051">
        <ele>234.69999999999999</ele>
        <time>2025-05-15T11:43:33Z</time>
      </trkpt>
      <trkpt lat="42.376439999789" lon="2.797136977314949">
        <ele>235.18000000000001</ele>
        <time>2025-05-15T11:43:34Z</time>
      </trkpt>
      <trkpt lat="42.376328017562628" lon="2.797348033636808">
        <ele>235.18000000000001</ele>
        <time>2025-05-15T11:43:35Z</time>
      </trkpt>
      <trkpt lat="42.376108998432755" lon="2.797671994194388">
        <ele>235.66</ele>
        <time>2025-05-15T11:43:37Z</time>
      </trkpt>
      <trkpt lat="42.376071028411388" lon="2.797864023596048">
        <ele>236.13999999999999</ele>
        <time>2025-05-15T11:43:38Z</time>
      </trkpt>
      <trkpt lat="42.376030962914228" lon="2.79806200414896">
        <ele>236.62</ele>
        <time>2025-05-15T11:43:39Z</time>
      </trkpt>
      <trkpt lat="42.375948987901211" lon="2.798238024115562">
        <ele>237.09999999999999</ele>
        <time>2025-05-15T11:43:40Z</time>
      </trkpt>
      <trkpt lat="42.375820996239781" lon="2.798380013555288">
        <ele>237.58000000000001</ele>
        <time>2025-05-15T11:43:41Z</time>
      </trkpt>
      <trkpt lat="42.37568898126483" lon="2.798519991338253">
        <ele>238.06</ele>
        <time>2025-05-15T11:43:42Z</time>
      </trkpt>
      <trkpt lat="42.375551015138626" lon="2.798646977171302">
        <ele>238.53999999999999</ele>
        <time>2025-05-15T11:43:43Z</time>
      </trkpt>
      <trkpt lat="42.375403996556997" lon="2.798696011304855">
        <ele>239.50999999999999</ele>
        <time>2025-05-15T11:43:44Z</time>
      </trkpt>
      <trkpt lat="42.375264018774033" lon="2.798742027953267">
        <ele>239.99000000000001</ele>
        <time>2025-05-15T11:43:45Z</time>
      </trkpt>
      <trkpt lat="42.37515103071928" lon="2.798839006572962">
        <ele>240.47</ele>
        <time>2025-05-15T11:43:46Z</time>
      </trkpt>
      <trkpt lat="42.375039970502257" lon="2.798958029597998">
        <ele>240.94999999999999</ele>
        <time>2025-05-15T11:43:47Z</time>
      </trkpt>
      <trkpt lat="42.374946009367704" lon="2.799135977402329">
        <ele>241.43000000000001</ele>
        <time>2025-05-15T11:43:48Z</time>
      </trkpt>
      <trkpt lat="42.374675022438169" lon="2.799719022586942">
        <ele>241.91</ele>
        <time>2025-05-15T11:43:51Z</time>
      </trkpt>
      <trkpt lat="42.374635962769389" lon="2.799927983433008">
        <ele>242.38999999999999</ele>
        <time>2025-05-15T11:43:52Z</time>
      </trkpt>
      <trkpt lat="42.374577037990093" lon="2.800124036148191">
        <ele>242.38999999999999</ele>
        <time>2025-05-15T11:43:53Z</time>
      </trkpt>
      <trkpt lat="42.374492967501283" lon="2.800291003659368">
        <ele>242.87</ele>
        <time>2025-05-15T11:43:54Z</time>
      </trkpt>
      <trkpt lat="42.374384002760053" lon="2.800406003370881">
        <ele>243.34999999999999</ele>
        <time>2025-05-15T11:43:55Z</time>
      </trkpt>
      <trkpt lat="42.374260034412146" lon="2.80046702362597">
        <ele>243.34999999999999</ele>
        <time>2025-05-15T11:43:56Z</time>
      </trkpt>
      <trkpt lat="42.374129025265574" lon="2.800513040274382">
        <ele>243.34999999999999</ele>
        <time>2025-05-15T11:43:57Z</time>
      </trkpt>
      <trkpt lat="42.374002039432526" lon="2.8005759883672">
        <ele>243.34999999999999</ele>
        <time>2025-05-15T11:43:58Z</time>
      </trkpt>
      <trkpt lat="42.373891985043883" lon="2.800676990300417">
        <ele>243.83000000000001</ele>
        <time>2025-05-15T11:43:59Z</time>
      </trkpt>
      <trkpt lat="42.373790983110666" lon="2.80076902359724">
        <ele>244.31</ele>
        <time>2025-05-15T11:44:00Z</time>
      </trkpt>
      <trkpt lat="42.373714037239552" lon="2.800781009718776">
        <ele>245.75</ele>
        <time>2025-05-15T11:44:01Z</time>
      </trkpt>
      <trkpt lat="42.373617980629206" lon="2.800775980576873">
        <ele>246.72</ele>
        <time>2025-05-15T11:44:02Z</time>
      </trkpt>
      <trkpt lat="42.373505998402834" lon="2.800770029425621">
        <ele>246.22999999999999</ele>
        <time>2025-05-15T11:44:03Z</time>
      </trkpt>
      <trkpt lat="42.37336702644825" lon="2.800762988626957">
        <ele>246.72</ele>
        <time>2025-05-15T11:44:04Z</time>
      </trkpt>
      <trkpt lat="42.37328102812171" lon="2.800847981125116">
        <ele>246.22999999999999</ele>
        <time>2025-05-15T11:44:05Z</time>
      </trkpt>
      <trkpt lat="42.373167034238577" lon="2.800961975008249">
        <ele>246.22999999999999</ele>
        <time>2025-05-15T11:44:06Z</time>
      </trkpt>
      <trkpt lat="42.373084975406528" lon="2.801137994974852">
        <ele>246.22999999999999</ele>
        <time>2025-05-15T11:44:07Z</time>
      </trkpt>
      <trkpt lat="42.373013980686665" lon="2.801358019933105">
        <ele>246.22999999999999</ele>
        <time>2025-05-15T11:44:08Z</time>
      </trkpt>
      <trkpt lat="42.37293703481555" lon="2.801591958850622">
        <ele>246.22999999999999</ele>
        <time>2025-05-15T11:44:09Z</time>
      </trkpt>
      <trkpt lat="42.372751040384173" lon="2.80231699347496">
        <ele>245.75</ele>
        <time>2025-05-15T11:44:12Z</time>
      </trkpt>
      <trkpt lat="42.372736958786845" lon="2.802540035918355">
        <ele>245.75</ele>
        <time>2025-05-15T11:44:13Z</time>
      </trkpt>
      <trkpt lat="42.372781969606876" lon="2.802729969844222">
        <ele>246.22999999999999</ele>
        <time>2025-05-15T11:44:14Z</time>
      </trkpt>
      <trkpt lat="42.372847013175488" lon="2.80289500951767">
        <ele>246.22999999999999</ele>
        <time>2025-05-15T11:44:15Z</time>
      </trkpt>
      <trkpt lat="42.372958995401859" lon="2.803044961765409">
        <ele>246.22999999999999</ele>
        <time>2025-05-15T11:44:16Z</time>
      </trkpt>
      <trkpt lat="42.373081035912037" lon="2.803200026974082">
        <ele>246.72</ele>
        <time>2025-05-15T11:44:17Z</time>
      </trkpt>
      <trkpt lat="42.373224031180143" lon="2.803329024463892">
        <ele>246.72</ele>
        <time>2025-05-15T11:44:18Z</time>
      </trkpt>
      <trkpt lat="42.373350011184812" lon="2.80347696505487">
        <ele>247.19999999999999</ele>
        <time>2025-05-15T11:44:19Z</time>
      </trkpt>
      <trkpt lat="42.373457970097661" lon="2.803628006950021">
        <ele>247.68000000000001</ele>
        <time>2025-05-15T11:44:20Z</time>
      </trkpt>
      <trkpt lat="42.373533993959427" lon="2.803834034129977">
        <ele>248.63999999999999</ele>
        <time>2025-05-15T11:44:21Z</time>
      </trkpt>
      <trkpt lat="42.373544974252582" lon="2.804069984704256">
        <ele>249.12</ele>
        <time>2025-05-15T11:44:22Z</time>
      </trkpt>
      <trkpt lat="42.373481020331383" lon="2.804275006055832">
        <ele>249.59999999999999</ele>
        <time>2025-05-15T11:44:23Z</time>
      </trkpt>
      <trkpt lat="42.373402984812856" lon="2.804469969123602">
        <ele>250.56</ele>
        <time>2025-05-15T11:44:24Z</time>
      </trkpt>
      <trkpt lat="42.37332402728498" lon="2.804668033495545">
        <ele>251.03999999999999</ele>
        <time>2025-05-15T11:44:25Z</time>
      </trkpt>
      <trkpt lat="42.373245991766453" lon="2.804861990734935">
        <ele>252</ele>
        <time>2025-05-15T11:44:26Z</time>
      </trkpt>
      <trkpt lat="42.373188994824886" lon="2.805059971287847">
        <ele>252.47999999999999</ele>
        <time>2025-05-15T11:44:27Z</time>
      </trkpt>
      <trkpt lat="42.373183965682983" lon="2.805287959054112">
        <ele>253.44</ele>
        <time>2025-05-15T11:44:28Z</time>
      </trkpt>
      <trkpt lat="42.373221013695002" lon="2.805522987619042">
        <ele>253.93000000000001</ele>
        <time>2025-05-15T11:44:29Z</time>
      </trkpt>
      <trkpt lat="42.373259989544749" lon="2.805762039497495">
        <ele>254.88999999999999</ele>
        <time>2025-05-15T11:44:30Z</time>
      </trkpt>
      <trkpt lat="42.373259989544749" lon="2.806024979799986">
        <ele>255.84999999999999</ele>
        <time>2025-05-15T11:44:31Z</time>
      </trkpt>
      <trkpt lat="42.373210033401847" lon="2.806273000314832">
        <ele>256.81</ele>
        <time>2025-05-15T11:44:32Z</time>
      </trkpt>
      <trkpt lat="42.37311297096312" lon="2.806501993909478">
        <ele>257.76999999999998</ele>
        <time>2025-05-15T11:44:33Z</time>
      </trkpt>
      <trkpt lat="42.373006017878652" lon="2.806740961968899">
        <ele>258.73000000000002</ele>
        <time>2025-05-15T11:44:34Z</time>
      </trkpt>
      <trkpt lat="42.372193979099393" lon="2.808535024523735">
        <ele>263.54000000000002</ele>
        <time>2025-05-15T11:44:41Z</time>
      </trkpt>
      <trkpt lat="42.371652005240321" lon="2.809867998585105">
        <ele>262.57999999999998</ele>
        <time>2025-05-15T11:44:46Z</time>
      </trkpt>
      <trkpt lat="42.371495012193918" lon="2.810430005192757">
        <ele>261.62</ele>
        <time>2025-05-15T11:44:48Z</time>
      </trkpt>
      <trkpt lat="42.371388981118798" lon="2.810639971867204">
        <ele>260.64999999999998</ele>
        <time>2025-05-15T11:44:49Z</time>
      </trkpt>
      <trkpt lat="42.371295019984245" lon="2.810850022360683">
        <ele>260.17000000000002</ele>
        <time>2025-05-15T11:44:50Z</time>
      </trkpt>
      <trkpt lat="42.371099973097444" lon="2.811615038663149">
        <ele>258.25</ele>
        <time>2025-05-15T11:44:53Z</time>
      </trkpt>
      <trkpt lat="42.371066026389599" lon="2.811888959258795">
        <ele>257.76999999999998</ele>
        <time>2025-05-15T11:44:54Z</time>
      </trkpt>
      <trkpt lat="42.370999976992607" lon="2.814172022044659">
        <ele>249.59999999999999</ele>
        <time>2025-05-15T11:45:01Z</time>
      </trkpt>
      <trkpt lat="42.370954966172576" lon="2.81484198756516">
        <ele>246.22999999999999</ele>
        <time>2025-05-15T11:45:03Z</time>
      </trkpt>
      <trkpt lat="42.37089897505939" lon="2.815167037770152">
        <ele>244.31</ele>
        <time>2025-05-15T11:45:04Z</time>
      </trkpt>
      <trkpt lat="42.370743993669748" lon="2.816074965521693">
        <ele>239.50999999999999</ele>
        <time>2025-05-15T11:45:07Z</time>
      </trkpt>
      <trkpt lat="42.370750028640032" lon="2.816349975764751">
        <ele>238.06</ele>
        <time>2025-05-15T11:45:08Z</time>
      </trkpt>
      <trkpt lat="42.370781963691115" lon="2.816604031249881">
        <ele>236.62</ele>
        <time>2025-05-15T11:45:09Z</time>
      </trkpt>
      <trkpt lat="42.370859999209642" lon="2.816821038722992">
        <ele>235.18000000000001</ele>
        <time>2025-05-15T11:45:10Z</time>
      </trkpt>
      <trkpt lat="42.37096200697124" lon="2.817023964598775">
        <ele>234.22</ele>
        <time>2025-05-15T11:45:11Z</time>
      </trkpt>
      <trkpt lat="42.371074995025992" lon="2.817233009263873">
        <ele>233.25999999999999</ele>
        <time>2025-05-15T11:45:12Z</time>
      </trkpt>
      <trkpt lat="42.37119703553617" lon="2.817433001473546">
        <ele>231.81</ele>
        <time>2025-05-15T11:45:13Z</time>
      </trkpt>
      <trkpt lat="42.371422005817294" lon="2.817799039185047">
        <ele>230.37</ele>
        <time>2025-05-15T11:45:15Z</time>
      </trkpt>
      <trkpt lat="42.371479002758861" lon="2.817997019737959">
        <ele>229.88999999999999</ele>
        <time>2025-05-15T11:45:16Z</time>
      </trkpt>
      <trkpt lat="42.371481014415622" lon="2.818145966157317">
        <ele>229.41</ele>
        <time>2025-05-15T11:45:17Z</time>
      </trkpt>
      <trkpt lat="42.371456958353519" lon="2.818229030817747">
        <ele>228.93000000000001</ele>
        <time>2025-05-15T11:45:18Z</time>
      </trkpt>
      <trkpt lat="42.371413037180901" lon="2.818289967253804">
        <ele>228.44999999999999</ele>
        <time>2025-05-15T11:45:19Z</time>
      </trkpt>
      <trkpt lat="42.371366014704108" lon="2.818354004994035">
        <ele>227.97</ele>
        <time>2025-05-15T11:45:20Z</time>
      </trkpt>
      <trkpt lat="42.371312035247684" lon="2.81842801719904">
        <ele>227.49000000000001</ele>
        <time>2025-05-15T11:45:21Z</time>
      </trkpt>
      <trkpt lat="42.371250009164214" lon="2.818513009697199">
        <ele>227.49000000000001</ele>
        <time>2025-05-15T11:45:22Z</time>
      </trkpt>
      <trkpt lat="42.371183959767222" lon="2.818603031337261">
        <ele>227.00999999999999</ele>
        <time>2025-05-15T11:45:23Z</time>
      </trkpt>
      <trkpt lat="42.371111959218979" lon="2.818702021613717">
        <ele>226.53</ele>
        <time>2025-05-15T11:45:24Z</time>
      </trkpt>
      <trkpt lat="42.371033001691103" lon="2.818825989961624">
        <ele>225.56999999999999</ele>
        <time>2025-05-15T11:45:25Z</time>
      </trkpt>
      <trkpt lat="42.370966030284762" lon="2.818978959694505">
        <ele>225.09</ele>
        <time>2025-05-15T11:45:26Z</time>
      </trkpt>
      <trkpt lat="42.370894029736519" lon="2.819145005196333">
        <ele>224.61000000000001</ele>
        <time>2025-05-15T11:45:27Z</time>
      </trkpt>
      <trkpt lat="42.370823035016656" lon="2.819309961050749">
        <ele>224.12</ele>
        <time>2025-05-15T11:45:28Z</time>
      </trkpt>
      <trkpt lat="42.370738964527845" lon="2.819462008774281">
        <ele>223.63999999999999</ele>
        <time>2025-05-15T11:45:29Z</time>
      </trkpt>
      <trkpt lat="42.370606027543545" lon="2.819525040686131">
        <ele>223.16</ele>
        <time>2025-05-15T11:45:30Z</time>
      </trkpt>
      <trkpt lat="42.370464038103819" lon="2.819568961858749">
        <ele>222.68000000000001</ele>
        <time>2025-05-15T11:45:31Z</time>
      </trkpt>
      <trkpt lat="42.370307967066765" lon="2.819615984335542">
        <ele>222.19999999999999</ele>
        <time>2025-05-15T11:45:32Z</time>
      </trkpt>
      <trkpt lat="42.370148040354252" lon="2.819664012640715">
        <ele>221.72</ele>
        <time>2025-05-15T11:45:33Z</time>
      </trkpt>
      <trkpt lat="42.36999599263072" lon="2.819712040945888">
        <ele>221.24000000000001</ele>
        <time>2025-05-15T11:45:34Z</time>
      </trkpt>
      <trkpt lat="42.369894990697503" lon="2.819860987365246">
        <ele>221.24000000000001</ele>
        <time>2025-05-15T11:45:35Z</time>
      </trkpt>
      <trkpt lat="42.369791977107525" lon="2.820012029260397">
        <ele>220.75999999999999</ele>
        <time>2025-05-15T11:45:36Z</time>
      </trkpt>
      <trkpt lat="42.369682006537914" lon="2.820172961801291">
        <ele>220.28</ele>
        <time>2025-05-15T11:45:37Z</time>
      </trkpt>
      <trkpt lat="42.369548985734582" lon="2.820292990654707">
        <ele>219.80000000000001</ele>
        <time>2025-05-15T11:45:38Z</time>
      </trkpt>
      <trkpt lat="42.36941303126514" lon="2.820412013679743">
        <ele>218.84</ele>
        <time>2025-05-15T11:45:39Z</time>
      </trkpt>
      <trkpt lat="42.369279004633427" lon="2.820572024211288">
        <ele>217.88</ele>
        <time>2025-05-15T11:45:40Z</time>
      </trkpt>
      <trkpt lat="42.369171967729926" lon="2.820768998935819">
        <ele>217.40000000000001</ele>
        <time>2025-05-15T11:45:41Z</time>
      </trkpt>
      <trkpt lat="42.368810037150979" lon="2.821583971381187">
        <ele>214.99000000000001</ele>
        <time>2025-05-15T11:45:45Z</time>
      </trkpt>
      <trkpt lat="42.368775000795722" lon="2.821774994954467">
        <ele>214.03</ele>
        <time>2025-05-15T11:45:46Z</time>
      </trkpt>
      <trkpt lat="42.368788998574018" lon="2.821964006870985">
        <ele>212.59</ele>
        <time>2025-05-15T11:45:47Z</time>
      </trkpt>
      <trkpt lat="42.368831997737288" lon="2.822157964110375">
        <ele>211.63</ele>
        <time>2025-05-15T11:45:48Z</time>
      </trkpt>
      <trkpt lat="42.368874996900558" lon="2.822357034310699">
        <ele>210.66999999999999</ele>
        <time>2025-05-15T11:45:49Z</time>
      </trkpt>
      <trkpt lat="42.368915984407067" lon="2.822544034570456">
        <ele>209.69999999999999</ele>
        <time>2025-05-15T11:45:50Z</time>
      </trkpt>
      <trkpt lat="42.368911961093545" lon="2.822728017345071">
        <ele>208.74000000000001</ele>
        <time>2025-05-15T11:45:51Z</time>
      </trkpt>
      <trkpt lat="42.368866028264165" lon="2.822912000119686">
        <ele>207.78</ele>
        <time>2025-05-15T11:45:52Z</time>
      </trkpt>
      <trkpt lat="42.368793021887541" lon="2.823082990944386">
        <ele>206.81999999999999</ele>
        <time>2025-05-15T11:45:53Z</time>
      </trkpt>
      <trkpt lat="42.368699982762337" lon="2.823191033676267">
        <ele>205.38</ele>
        <time>2025-05-15T11:45:54Z</time>
      </trkpt>
      <trkpt lat="42.368590012192726" lon="2.823244007304311">
        <ele>204.90000000000001</ele>
        <time>2025-05-15T11:45:55Z</time>
      </trkpt>
      <trkpt lat="42.368474006652832" lon="2.823267979547381">
        <ele>204.41999999999999</ele>
        <time>2025-05-15T11:45:56Z</time>
      </trkpt>
      <trkpt lat="42.368346014991403" lon="2.823293041437864">
        <ele>204.41999999999999</ele>
        <time>2025-05-15T11:45:57Z</time>
      </trkpt>
      <trkpt lat="42.368225986137986" lon="2.823377028107643">
        <ele>203.94</ele>
        <time>2025-05-15T11:45:58Z</time>
      </trkpt>
      <trkpt lat="42.36810302361846" lon="2.823512982577086">
        <ele>204.41999999999999</ele>
        <time>2025-05-15T11:45:59Z</time>
      </trkpt>
      <trkpt lat="42.368028005585074" lon="2.823701994493604">
        <ele>204.41999999999999</ele>
        <time>2025-05-15T11:46:00Z</time>
      </trkpt>
      <trkpt lat="42.367978971451521" lon="2.823920007795095">
        <ele>203.94</ele>
        <time>2025-05-15T11:46:01Z</time>
      </trkpt>
      <trkpt lat="42.367944018915296" lon="2.824142966419458">
        <ele>203.94</ele>
        <time>2025-05-15T11:46:02Z</time>
      </trkpt>
      <trkpt lat="42.367907976731658" lon="2.824376989156008">
        <ele>203.46000000000001</ele>
        <time>2025-05-15T11:46:03Z</time>
      </trkpt>
      <trkpt lat="42.367804041132331" lon="2.824865989387035">
        <ele>202.00999999999999</ele>
        <time>2025-05-15T11:46:05Z</time>
      </trkpt>
      <trkpt lat="42.36771896481514" lon="2.825095988810062">
        <ele>201.53</ele>
        <time>2025-05-15T11:46:06Z</time>
      </trkpt>
      <trkpt lat="42.367604970932007" lon="2.825300004333258">
        <ele>201.05000000000001</ele>
        <time>2025-05-15T11:46:07Z</time>
      </trkpt>
      <trkpt lat="42.367469016462564" lon="2.825475018471479">
        <ele>200.09</ele>
        <time>2025-05-15T11:46:08Z</time>
      </trkpt>
      <trkpt lat="42.367308000102639" lon="2.825626982375979">
        <ele>199.61000000000001</ele>
        <time>2025-05-15T11:46:09Z</time>
      </trkpt>
      <trkpt lat="42.367142038419843" lon="2.825785987079144">
        <ele>199.13</ele>
        <time>2025-05-15T11:46:10Z</time>
      </trkpt>
      <trkpt lat="42.366964006796479" lon="2.825926970690489">
        <ele>199.13</ele>
        <time>2025-05-15T11:46:11Z</time>
      </trkpt>
      <trkpt lat="42.366614984348416" lon="2.826198963448405">
        <ele>198.65000000000001</ele>
        <time>2025-05-15T11:46:13Z</time>
      </trkpt>
      <trkpt lat="42.366464026272297" lon="2.826369032263756">
        <ele>198.16999999999999</ele>
        <time>2025-05-15T11:46:14Z</time>
      </trkpt>
      <trkpt lat="42.366334022954106" lon="2.826557960361242">
        <ele>198.16999999999999</ele>
        <time>2025-05-15T11:46:15Z</time>
      </trkpt>
      <trkpt lat="42.365991035476327" lon="2.827123990282416">
        <ele>197.21000000000001</ele>
        <time>2025-05-15T11:46:18Z</time>
      </trkpt>
      <trkpt lat="42.365917023271322" lon="2.827333034947515">
        <ele>197.21000000000001</ele>
        <time>2025-05-15T11:46:19Z</time>
      </trkpt>
      <trkpt lat="42.36587000079453" lon="2.827545013278723">
        <ele>196.72999999999999</ele>
        <time>2025-05-15T11:46:20Z</time>
      </trkpt>
      <trkpt lat="42.365872012451291" lon="2.82775497995317">
        <ele>196.72999999999999</ele>
        <time>2025-05-15T11:46:21Z</time>
      </trkpt>
      <trkpt lat="42.365894978865981" lon="2.827966958284378">
        <ele>196.25</ele>
        <time>2025-05-15T11:46:22Z</time>
      </trkpt>
      <trkpt lat="42.365969996899366" lon="2.828164016827941">
        <ele>195.77000000000001</ele>
        <time>2025-05-15T11:46:23Z</time>
      </trkpt>
      <trkpt lat="42.366059012711048" lon="2.828352022916079">
        <ele>195.77000000000001</ele>
        <time>2025-05-15T11:46:24Z</time>
      </trkpt>
      <trkpt lat="42.3661720007658" lon="2.828503986820579">
        <ele>194.80000000000001</ele>
        <time>2025-05-15T11:46:25Z</time>
      </trkpt>
      <trkpt lat="42.366291023790836" lon="2.828651005402207">
        <ele>194.31999999999999</ele>
        <time>2025-05-15T11:46:26Z</time>
      </trkpt>
      <trkpt lat="42.366399988532066" lon="2.82878503203392">
        <ele>194.31999999999999</ele>
        <time>2025-05-15T11:46:27Z</time>
      </trkpt>
      <trkpt lat="42.366446005180478" lon="2.828959040343761">
        <ele>194.31999999999999</ele>
        <time>2025-05-15T11:46:28Z</time>
      </trkpt>
      <trkpt lat="42.366456985473633" lon="2.829109998419881">
        <ele>194.80000000000001</ele>
        <time>2025-05-15T11:46:29Z</time>
      </trkpt>
      <trkpt lat="42.36640996299684" lon="2.829230027273297">
        <ele>194.80000000000001</ele>
        <time>2025-05-15T11:46:30Z</time>
      </trkpt>
      <trkpt lat="42.366354977712035" lon="2.829368999227881">
        <ele>194.80000000000001</ele>
        <time>2025-05-15T11:46:31Z</time>
      </trkpt>
      <trkpt lat="42.366179041564465" lon="2.829815000295639">
        <ele>194.80000000000001</ele>
        <time>2025-05-15T11:46:34Z</time>
      </trkpt>
      <trkpt lat="42.366154985502362" lon="2.829980039969087">
        <ele>194.80000000000001</ele>
        <time>2025-05-15T11:46:35Z</time>
      </trkpt>
      <trkpt lat="42.366139981895685" lon="2.830148013308644">
        <ele>194.80000000000001</ele>
        <time>2025-05-15T11:46:36Z</time>
      </trkpt>
      <trkpt lat="42.366164037957788" lon="2.830319004133344">
        <ele>194.80000000000001</ele>
        <time>2025-05-15T11:46:37Z</time>
      </trkpt>
      <trkpt lat="42.366189016029239" lon="2.830491000786424">
        <ele>194.80000000000001</ele>
        <time>2025-05-15T11:46:38Z</time>
      </trkpt>
      <trkpt lat="42.366365035995841" lon="2.831703023985028">
        <ele>193.84</ele>
        <time>2025-05-15T11:46:45Z</time>
      </trkpt>
      <trkpt lat="42.366355983540416" lon="2.831874014809728">
        <ele>193.84</ele>
        <time>2025-05-15T11:46:46Z</time>
      </trkpt>
      <trkpt lat="42.366336034610868" lon="2.832036036998034">
        <ele>193.84</ele>
        <time>2025-05-15T11:46:47Z</time>
      </trkpt>
      <trkpt lat="42.366074016317725" lon="2.833425002172589">
        <ele>192.88</ele>
        <time>2025-05-15T11:46:56Z</time>
      </trkpt>
      <trkpt lat="42.366052977740765" lon="2.833553999662399">
        <ele>192.88</ele>
        <time>2025-05-15T11:46:57Z</time>
      </trkpt>
      <trkpt lat="42.3660200368613" lon="2.833750974386931">
        <ele>192.88</ele>
        <time>2025-05-15T11:46:59Z</time>
      </trkpt>
      <trkpt lat="42.366007966920733" lon="2.833824986591935">
        <ele>192.88</ele>
        <time>2025-05-15T11:47:00Z</time>
      </trkpt>
      <trkpt lat="42.365995980799198" lon="2.833892041817308">
        <ele>192.40000000000001</ele>
        <time>2025-05-15T11:47:01Z</time>
      </trkpt>
      <trkpt lat="42.365966979414225" lon="2.834111982956529">
        <ele>190.47999999999999</ele>
        <time>2025-05-15T11:47:10Z</time>
      </trkpt>
      <trkpt lat="42.365985000506043" lon="2.834236035123467">
        <ele>189.52000000000001</ele>
        <time>2025-05-15T11:47:12Z</time>
      </trkpt>
      <trkpt lat="42.366053983569145" lon="2.834738027304411">
        <ele>187.11000000000001</ele>
        <time>2025-05-15T11:47:17Z</time>
      </trkpt>
      <trkpt lat="42.366073010489345" lon="2.834860989823937">
        <ele>187.11000000000001</ele>
        <time>2025-05-15T11:47:18Z</time>
      </trkpt>
      <trkpt lat="42.366092037409544" lon="2.834983030334115">
        <ele>186.63</ele>
        <time>2025-05-15T11:47:19Z</time>
      </trkpt>
      <trkpt lat="42.366212988272309" lon="2.835758021101356">
        <ele>185.19</ele>
        <time>2025-05-15T11:47:25Z</time>
      </trkpt>
      <trkpt lat="42.366223968565464" lon="2.836015010252595">
        <ele>185.19</ele>
        <time>2025-05-15T11:47:27Z</time>
      </trkpt>
      <trkpt lat="42.366190021857619" lon="2.836129004135728">
        <ele>185.19</ele>
        <time>2025-05-15T11:47:28Z</time>
      </trkpt>
      <trkpt lat="42.366113997995853" lon="2.836381969973445">
        <ele>184.71000000000001</ele>
        <time>2025-05-15T11:47:30Z</time>
      </trkpt>
      <trkpt lat="42.365494994446635" lon="2.837926000356674">
        <ele>180.38</ele>
        <time>2025-05-15T11:47:40Z</time>
      </trkpt>
      <trkpt lat="42.36509601585567" lon="2.838887991383672">
        <ele>176.53999999999999</ele>
        <time>2025-05-15T11:47:46Z</time>
      </trkpt>
      <trkpt lat="42.365067014470696" lon="2.839051019400358">
        <ele>176.06</ele>
        <time>2025-05-15T11:47:47Z</time>
      </trkpt>
      <trkpt lat="42.365046981722116" lon="2.839212035760284">
        <ele>175.58000000000001</ele>
        <time>2025-05-15T11:47:48Z</time>
      </trkpt>
      <trkpt lat="42.365041030570865" lon="2.839366011321545">
        <ele>175.09999999999999</ele>
        <time>2025-05-15T11:47:49Z</time>
      </trkpt>
      <trkpt lat="42.365041030570865" lon="2.839515963569284">
        <ele>174.13999999999999</ele>
        <time>2025-05-15T11:47:50Z</time>
      </trkpt>
      <trkpt lat="42.365023009479046" lon="2.839753003790975">
        <ele>172.69</ele>
        <time>2025-05-15T11:47:52Z</time>
      </trkpt>
      <trkpt lat="42.364985961467028" lon="2.839845037087798">
        <ele>171.72999999999999</ele>
        <time>2025-05-15T11:47:53Z</time>
      </trkpt>
      <trkpt lat="42.364948997274041" lon="2.839932963252068">
        <ele>171.25</ele>
        <time>2025-05-15T11:47:54Z</time>
      </trkpt>
      <trkpt lat="42.364915972575545" lon="2.840014016255736">
        <ele>170.77000000000001</ele>
        <time>2025-05-15T11:47:55Z</time>
      </trkpt>
      <trkpt lat="42.364883031696081" lon="2.840094985440373">
        <ele>170.77000000000001</ele>
        <time>2025-05-15T11:47:56Z</time>
      </trkpt>
      <trkpt lat="42.364849001169205" lon="2.840178972110152">
        <ele>170.28999999999999</ele>
        <time>2025-05-15T11:47:57Z</time>
      </trkpt>
      <trkpt lat="42.364852018654346" lon="2.840274022892118">
        <ele>170.28999999999999</ele>
        <time>2025-05-15T11:47:58Z</time>
      </trkpt>
      <trkpt lat="42.364856963977218" lon="2.840384999290109">
        <ele>169.81</ele>
        <time>2025-05-15T11:47:59Z</time>
      </trkpt>
      <trkpt lat="42.364862998947501" lon="2.840502010658383">
        <ele>169.33000000000001</ele>
        <time>2025-05-15T11:48:00Z</time>
      </trkpt>
      <trkpt lat="42.364868028089404" lon="2.840619022026658">
        <ele>168.84999999999999</ele>
        <time>2025-05-15T11:48:01Z</time>
      </trkpt>
      <trkpt lat="42.364839026704431" lon="2.840738967061043">
        <ele>168.37</ele>
        <time>2025-05-15T11:48:02Z</time>
      </trkpt>
      <trkpt lat="42.364802984520793" lon="2.84083804115653">
        <ele>167.88999999999999</ele>
        <time>2025-05-15T11:48:03Z</time>
      </trkpt>
      <trkpt lat="42.364769037812948" lon="2.840935019776225">
        <ele>167.41</ele>
        <time>2025-05-15T11:48:04Z</time>
      </trkpt>
      <trkpt lat="42.364697959274054" lon="2.840993022546172">
        <ele>166.93000000000001</ele>
        <time>2025-05-15T11:48:05Z</time>
      </trkpt>
      <trkpt lat="42.364627970382571" lon="2.841037027537823">
        <ele>166.44999999999999</ele>
        <time>2025-05-15T11:48:06Z</time>
      </trkpt>
      <trkpt lat="42.364525040611625" lon="2.841063011437655">
        <ele>165.47999999999999</ele>
        <time>2025-05-15T11:48:07Z</time>
      </trkpt>
      <trkpt lat="42.36438799649477" lon="2.841068962588906">
        <ele>165</ele>
        <time>2025-05-15T11:48:08Z</time>
      </trkpt>
      <trkpt lat="42.364222034811974" lon="2.84107499755919">
        <ele>164.52000000000001</ele>
        <time>2025-05-15T11:48:09Z</time>
      </trkpt>
      <trkpt lat="42.363454001024365" lon="2.841129982843995">
        <ele>161.63999999999999</ele>
        <time>2025-05-15T11:48:13Z</time>
      </trkpt>
      <trkpt lat="42.363302959129214" lon="2.841167030856013">
        <ele>160.68000000000001</ele>
        <time>2025-05-15T11:48:14Z</time>
      </trkpt>
      <trkpt lat="42.363211009651423" lon="2.841258980333805">
        <ele>159.24000000000001</ele>
        <time>2025-05-15T11:48:15Z</time>
      </trkpt>
      <trkpt lat="42.363134985789657" lon="2.841373980045319">
        <ele>158.27000000000001</ele>
        <time>2025-05-15T11:48:16Z</time>
      </trkpt>
      <trkpt lat="42.363059967756271" lon="2.841495014727116">
        <ele>157.78999999999999</ele>
        <time>2025-05-15T11:48:17Z</time>
      </trkpt>
      <trkpt lat="42.363005988299847" lon="2.841639015823603">
        <ele>156.83000000000001</ele>
        <time>2025-05-15T11:48:18Z</time>
      </trkpt>
      <trkpt lat="42.362972963601351" lon="2.841792991384864">
        <ele>155.87</ele>
        <time>2025-05-15T11:48:19Z</time>
      </trkpt>
      <trkpt lat="42.362977992743254" lon="2.841961970552802">
        <ele>155.38999999999999</ele>
        <time>2025-05-15T11:48:20Z</time>
      </trkpt>
      <trkpt lat="42.36301101744175" lon="2.84212801605463">
        <ele>154.43000000000001</ele>
        <time>2025-05-15T11:48:21Z</time>
      </trkpt>
      <trkpt lat="42.363083017989993" lon="2.842264976352453">
        <ele>153.94999999999999</ele>
        <time>2025-05-15T11:48:22Z</time>
      </trkpt>
      <trkpt lat="42.363156024366617" lon="2.842406965792179">
        <ele>153.47</ele>
        <time>2025-05-15T11:48:23Z</time>
      </trkpt>
      <trkpt lat="42.363230036571622" lon="2.842548033222556">
        <ele>152.50999999999999</ele>
        <time>2025-05-15T11:48:24Z</time>
      </trkpt>
      <trkpt lat="42.363282004371285" lon="2.842703014612198">
        <ele>151.53999999999999</ele>
        <time>2025-05-15T11:48:25Z</time>
      </trkpt>
      <trkpt lat="42.363282004371285" lon="2.842883979901671">
        <ele>151.06</ele>
        <time>2025-05-15T11:48:26Z</time>
      </trkpt>
      <trkpt lat="42.363282004371285" lon="2.843071985989809">
        <ele>150.58000000000001</ele>
        <time>2025-05-15T11:48:27Z</time>
      </trkpt>
      <trkpt lat="42.363282004371285" lon="2.843262003734708">
        <ele>149.62</ele>
        <time>2025-05-15T11:48:28Z</time>
      </trkpt>
      <trkpt lat="42.363282004371285" lon="2.843816969543695">
        <ele>147.22</ele>
        <time>2025-05-15T11:48:31Z</time>
      </trkpt>
      <trkpt lat="42.36326901242137" lon="2.843993995338678">
        <ele>146.25999999999999</ele>
        <time>2025-05-15T11:48:32Z</time>
      </trkpt>
      <trkpt lat="42.363230036571622" lon="2.84416800364852">
        <ele>145.78</ele>
        <time>2025-05-15T11:48:33Z</time>
      </trkpt>
      <trkpt lat="42.363196006044745" lon="2.844321979209781">
        <ele>145.30000000000001</ele>
        <time>2025-05-15T11:48:34Z</time>
      </trkpt>
      <trkpt lat="42.363116964697838" lon="2.844478972256184">
        <ele>144.34</ele>
        <time>2025-05-15T11:48:35Z</time>
      </trkpt>
      <trkpt lat="42.363042030483484" lon="2.844629008322954">
        <ele>143.84999999999999</ele>
        <time>2025-05-15T11:48:36Z</time>
      </trkpt>
      <trkpt lat="42.36296801827848" lon="2.844778038561344">
        <ele>143.37</ele>
        <time>2025-05-15T11:48:37Z</time>
      </trkpt>
      <trkpt lat="42.362270979210734" lon="2.846171027049422">
        <ele>136.16</ele>
        <time>2025-05-15T11:48:47Z</time>
      </trkpt>
      <trkpt lat="42.362226974219084" lon="2.846309999004006">
        <ele>135.68000000000001</ele>
        <time>2025-05-15T11:48:48Z</time>
      </trkpt>
      <trkpt lat="42.362189004197717" lon="2.846462968736887">
        <ele>135.19999999999999</ele>
        <time>2025-05-15T11:48:49Z</time>
      </trkpt>
      <trkpt lat="42.362186992540956" lon="2.846638988703489">
        <ele>135.19999999999999</ele>
        <time>2025-05-15T11:48:50Z</time>
      </trkpt>
      <trkpt lat="42.36219696700573" lon="2.84683302976191">
        <ele>134.72</ele>
        <time>2025-05-15T11:48:51Z</time>
      </trkpt>
      <trkpt lat="42.362228985875845" lon="2.847039978951216">
        <ele>134.72</ele>
        <time>2025-05-15T11:48:52Z</time>
      </trkpt>
      <trkpt lat="42.362501984462142" lon="2.848820965737104">
        <ele>128.94999999999999</ele>
        <time>2025-05-15T11:48:59Z</time>
      </trkpt>
      <trkpt lat="42.3626250308007" lon="2.849851017817855">
        <ele>125.11</ele>
        <time>2025-05-15T11:49:03Z</time>
      </trkpt>
      <trkpt lat="42.362602986395359" lon="2.850102977827191">
        <ele>124.15000000000001</ele>
        <time>2025-05-15T11:49:04Z</time>
      </trkpt>
      <trkpt lat="42.362557975575328" lon="2.850612010806799">
        <ele>122.22</ele>
        <time>2025-05-15T11:49:06Z</time>
      </trkpt>
      <trkpt lat="42.362585971131921" lon="2.850870005786419">
        <ele>121.26000000000001</ele>
        <time>2025-05-15T11:49:07Z</time>
      </trkpt>
      <trkpt lat="42.36288201995194" lon="2.852951986715198">
        <ele>115.5</ele>
        <time>2025-05-15T11:49:15Z</time>
      </trkpt>
      <trkpt lat="42.362941028550267" lon="2.853172011673451">
        <ele>115.01000000000001</ele>
        <time>2025-05-15T11:49:16Z</time>
      </trkpt>
      <trkpt lat="42.363015040755272" lon="2.853361023589969">
        <ele>115.01000000000001</ele>
        <time>2025-05-15T11:49:17Z</time>
      </trkpt>
      <trkpt lat="42.363088969141245" lon="2.853549029678106">
        <ele>114.53</ele>
        <time>2025-05-15T11:49:18Z</time>
      </trkpt>
      <trkpt lat="42.363225007429719" lon="2.853684984147549">
        <ele>113.56999999999999</ele>
        <time>2025-05-15T11:49:19Z</time>
      </trkpt>
      <trkpt lat="42.363366996869445" lon="2.853826973587275">
        <ele>113.09</ele>
        <time>2025-05-15T11:49:20Z</time>
      </trkpt>
      <trkpt lat="42.363516027107835" lon="2.853974997997284">
        <ele>112.13</ele>
        <time>2025-05-15T11:49:21Z</time>
      </trkpt>
      <trkpt lat="42.363922968506813" lon="2.854382023215294">
        <ele>110.69</ele>
        <time>2025-05-15T11:49:24Z</time>
      </trkpt>
      <trkpt lat="42.364025982096791" lon="2.854526024311781">
        <ele>110.20999999999999</ele>
        <time>2025-05-15T11:49:25Z</time>
      </trkpt>
      <trkpt lat="42.364074010401964" lon="2.854704977944493">
        <ele>110.20999999999999</ele>
        <time>2025-05-15T11:49:26Z</time>
      </trkpt>
      <trkpt lat="42.364125978201628" lon="2.854898013174534">
        <ele>110.20999999999999</ele>
        <time>2025-05-15T11:49:27Z</time>
      </trkpt>
      <trkpt lat="42.364167971536517" lon="2.855104962363839">
        <ele>110.20999999999999</ele>
        <time>2025-05-15T11:49:28Z</time>
      </trkpt>
      <trkpt lat="42.364188004285097" lon="2.85531903617084">
        <ele>109.73</ele>
        <time>2025-05-15T11:49:29Z</time>
      </trkpt>
      <trkpt lat="42.364189010113478" lon="2.855558004230261">
        <ele>109.25</ele>
        <time>2025-05-15T11:49:30Z</time>
      </trkpt>
      <trkpt lat="42.364135030657053" lon="2.855760008096695">
        <ele>108.77</ele>
        <time>2025-05-15T11:49:31Z</time>
      </trkpt>
      <trkpt lat="42.364051965996623" lon="2.855950025841594">
        <ele>108.29000000000001</ele>
        <time>2025-05-15T11:49:32Z</time>
      </trkpt>
      <trkpt lat="42.363963034003973" lon="2.856120010837913">
        <ele>107.81</ele>
        <time>2025-05-15T11:49:33Z</time>
      </trkpt>
      <trkpt lat="42.363877035677433" lon="2.856282033026218">
        <ele>107.31999999999999</ele>
        <time>2025-05-15T11:49:34Z</time>
      </trkpt>
      <trkpt lat="42.363643012940884" lon="2.856688974425197">
        <ele>106.84</ele>
        <time>2025-05-15T11:49:37Z</time>
      </trkpt>
      <trkpt lat="42.363580986857414" lon="2.856813026592135">
        <ele>107.31999999999999</ele>
        <time>2025-05-15T11:49:38Z</time>
      </trkpt>
      <trkpt lat="42.363532036542892" lon="2.857046965509653">
        <ele>107.31999999999999</ele>
        <time>2025-05-15T11:49:39Z</time>
      </trkpt>
      <trkpt lat="42.363552991300821" lon="2.857205970212817">
        <ele>108.29000000000001</ele>
        <time>2025-05-15T11:49:40Z</time>
      </trkpt>
      <trkpt lat="42.363574029877782" lon="2.857373021543026">
        <ele>108.29000000000001</ele>
        <time>2025-05-15T11:49:41Z</time>
      </trkpt>
      <trkpt lat="42.363599007949233" lon="2.857550969347358">
        <ele>108.77</ele>
        <time>2025-05-15T11:49:42Z</time>
      </trkpt>
      <trkpt lat="42.363623986020684" lon="2.857732018455863">
        <ele>108.77</ele>
        <time>2025-05-15T11:49:43Z</time>
      </trkpt>
      <trkpt lat="42.363736974075437" lon="2.859516022726893">
        <ele>112.13</ele>
        <time>2025-05-15T11:49:52Z</time>
      </trkpt>
      <trkpt lat="42.363582998514175" lon="2.860981011763215">
        <ele>118.38</ele>
        <time>2025-05-15T11:49:59Z</time>
      </trkpt>
      <trkpt lat="42.363581992685795" lon="2.861216962337494">
        <ele>119.34</ele>
        <time>2025-05-15T11:50:00Z</time>
      </trkpt>
      <trkpt lat="42.36359003931284" lon="2.861451990902424">
        <ele>120.78</ele>
        <time>2025-05-15T11:50:01Z</time>
      </trkpt>
      <trkpt lat="42.363587021827698" lon="2.862155986949801">
        <ele>124.63</ele>
        <time>2025-05-15T11:50:04Z</time>
      </trkpt>
      <trkpt lat="42.363557014614344" lon="2.862396966665983">
        <ele>126.06999999999999</ele>
        <time>2025-05-15T11:50:05Z</time>
      </trkpt>
      <trkpt lat="42.363512003794312" lon="2.86262696608901">
        <ele>127.03</ele>
        <time>2025-05-15T11:50:06Z</time>
      </trkpt>
      <trkpt lat="42.363244034349918" lon="2.863583005964756">
        <ele>132.31999999999999</ele>
        <time>2025-05-15T11:50:10Z</time>
      </trkpt>
      <trkpt lat="42.363201035186648" lon="2.863836977630854">
        <ele>133.75999999999999</ele>
        <time>2025-05-15T11:50:11Z</time>
      </trkpt>
      <trkpt lat="42.362915966659784" lon="2.86597503349185">
        <ele>140.00999999999999</ele>
        <time>2025-05-15T11:50:19Z</time>
      </trkpt>
      <trkpt lat="42.36281999386847" lon="2.866178965196014">
        <ele>140.00999999999999</ele>
        <time>2025-05-15T11:50:20Z</time>
      </trkpt>
      <trkpt lat="42.362715974450111" lon="2.866376023739576">
        <ele>140.49000000000001</ele>
        <time>2025-05-15T11:50:21Z</time>
      </trkpt>
      <trkpt lat="42.362573985010386" lon="2.866542991250753">
        <ele>140.49000000000001</ele>
        <time>2025-05-15T11:50:22Z</time>
      </trkpt>
      <trkpt lat="42.362425038591027" lon="2.86670601926744">
        <ele>140.49000000000001</ele>
        <time>2025-05-15T11:50:23Z</time>
      </trkpt>
      <trkpt lat="42.362277014181018" lon="2.866868041455746">
        <ele>140.49000000000001</ele>
        <time>2025-05-15T11:50:24Z</time>
      </trkpt>
      <trkpt lat="42.361983982846141" lon="2.867204993963242">
        <ele>140.00999999999999</ele>
        <time>2025-05-15T11:50:26Z</time>
      </trkpt>
      <trkpt lat="42.361838975921273" lon="2.867377996444702">
        <ele>139.53</ele>
        <time>2025-05-15T11:50:27Z</time>
      </trkpt>
      <trkpt lat="42.361384006217122" lon="2.868334036320448">
        <ele>137.13</ele>
        <time>2025-05-15T11:50:31Z</time>
      </trkpt>
      <trkpt lat="42.361297002062201" lon="2.868585996329784">
        <ele>137.13</ele>
        <time>2025-05-15T11:50:32Z</time>
      </trkpt>
      <trkpt lat="42.361235981807113" lon="2.868840973824263">
        <ele>136.63999999999999</ele>
        <time>2025-05-15T11:50:33Z</time>
      </trkpt>
      <trkpt lat="42.361217038705945" lon="2.869100980460644">
        <ele>136.16</ele>
        <time>2025-05-15T11:50:34Z</time>
      </trkpt>
      <trkpt lat="42.361205974593759" lon="2.86937003955245">
        <ele>135.68000000000001</ele>
        <time>2025-05-15T11:50:35Z</time>
      </trkpt>
      <trkpt lat="42.361235981807113" lon="2.869643038138747">
        <ele>135.19999999999999</ele>
        <time>2025-05-15T11:50:36Z</time>
      </trkpt>
      <trkpt lat="42.361289039254189" lon="2.869916958734393">
        <ele>135.19999999999999</ele>
        <time>2025-05-15T11:50:37Z</time>
      </trkpt>
      <trkpt lat="42.361348969861865" lon="2.870190963149071">
        <ele>134.72</ele>
        <time>2025-05-15T11:50:38Z</time>
      </trkpt>
      <trkpt lat="42.361604031175375" lon="2.871507005766034">
        <ele>133.75999999999999</ele>
        <time>2025-05-15T11:50:43Z</time>
      </trkpt>
      <trkpt lat="42.361591961234808" lon="2.871754020452499">
        <ele>133.75999999999999</ele>
        <time>2025-05-15T11:50:44Z</time>
      </trkpt>
      <trkpt lat="42.361574023962021" lon="2.872002962976694">
        <ele>133.75999999999999</ele>
        <time>2025-05-15T11:50:45Z</time>
      </trkpt>
      <trkpt lat="42.361523984000087" lon="2.872255006805062">
        <ele>133.75999999999999</ele>
        <time>2025-05-15T11:50:46Z</time>
      </trkpt>
      <trkpt lat="42.361435974016786" lon="2.872493974864483">
        <ele>133.75999999999999</ele>
        <time>2025-05-15T11:50:47Z</time>
      </trkpt>
      <trkpt lat="42.36131502315402" lon="2.872720034793019">
        <ele>133.75999999999999</ele>
        <time>2025-05-15T11:50:48Z</time>
      </trkpt>
      <trkpt lat="42.361192982643843" lon="2.872948022559285">
        <ele>134.24000000000001</ele>
        <time>2025-05-15T11:50:49Z</time>
      </trkpt>
      <trkpt lat="42.360828034579754" lon="2.873593010008335">
        <ele>136.63999999999999</ele>
        <time>2025-05-15T11:50:52Z</time>
      </trkpt>
      <trkpt lat="42.360771037638187" lon="2.873783027753234">
        <ele>137.61000000000001</ele>
        <time>2025-05-15T11:50:53Z</time>
      </trkpt>
      <trkpt lat="42.360771037638187" lon="2.874015038833022">
        <ele>138.56999999999999</ele>
        <time>2025-05-15T11:50:54Z</time>
      </trkpt>
      <trkpt lat="42.360809007659554" lon="2.875062022358179">
        <ele>141.44999999999999</ele>
        <time>2025-05-15T11:50:58Z</time>
      </trkpt>
      <trkpt lat="42.360835997387767" lon="2.875353964045644">
        <ele>141.44999999999999</ele>
        <time>2025-05-15T11:50:59Z</time>
      </trkpt>
      <trkpt lat="42.361320974305272" lon="2.878016978502274">
        <ele>132.31999999999999</ele>
        <time>2025-05-15T11:51:08Z</time>
      </trkpt>
      <trkpt lat="42.361625991761684" lon="2.879821015521884">
        <ele>121.73999999999999</ele>
        <time>2025-05-15T11:51:16Z</time>
      </trkpt>
      <trkpt lat="42.36161601729691" lon="2.880023019388318">
        <ele>120.78</ele>
        <time>2025-05-15T11:51:17Z</time>
      </trkpt>
      <trkpt lat="42.361593972891569" lon="2.880260981619358">
        <ele>119.81999999999999</ele>
        <time>2025-05-15T11:51:18Z</time>
      </trkpt>
      <trkpt lat="42.361399009823799" lon="2.882161997258663">
        <ele>111.65000000000001</ele>
        <time>2025-05-15T11:51:24Z</time>
      </trkpt>
      <trkpt lat="42.36099299043417" lon="2.884392002597451">
        <ele>99.629999999999995</ele>
        <time>2025-05-15T11:51:31Z</time>
      </trkpt>
      <trkpt lat="42.360945967957377" lon="2.884646980091929">
        <ele>97.709999999999994</ele>
        <time>2025-05-15T11:51:32Z</time>
      </trkpt>
      <trkpt lat="42.360835997387767" lon="2.884839009493589">
        <ele>95.790000000000006</ele>
        <time>2025-05-15T11:51:33Z</time>
      </trkpt>
      <trkpt lat="42.360723009333014" lon="2.885025003924966">
        <ele>93.870000000000005</ele>
        <time>2025-05-15T11:51:34Z</time>
      </trkpt>
      <trkpt lat="42.360613960772753" lon="2.885204963386059">
        <ele>92.420000000000002</ele>
        <time>2025-05-15T11:51:35Z</time>
      </trkpt>
      <trkpt lat="42.360502984374762" lon="2.885389029979706">
        <ele>91.459999999999994</ele>
        <time>2025-05-15T11:51:36Z</time>
      </trkpt>
      <trkpt lat="42.360418997704983" lon="2.88561400026083">
        <ele>90.5</ele>
        <time>2025-05-15T11:51:37Z</time>
      </trkpt>
      <trkpt lat="42.360359989106655" lon="2.885874006897211">
        <ele>90.019999999999996</ele>
        <time>2025-05-15T11:51:38Z</time>
      </trkpt>
      <trkpt lat="42.360297041013837" lon="2.886152034625411">
        <ele>89.540000000000006</ele>
        <time>2025-05-15T11:51:39Z</time>
      </trkpt>
      <trkpt lat="42.359633026644588" lon="2.889302959665656">
        <ele>87.620000000000005</ele>
        <time>2025-05-15T11:51:49Z</time>
      </trkpt>
      <trkpt lat="42.359006982296705" lon="2.892419015988708">
        <ele>89.540000000000006</ele>
        <time>2025-05-15T11:51:59Z</time>
      </trkpt>
      <trkpt lat="42.358231991529465" lon="2.896245019510388">
        <ele>86.180000000000007</ele>
        <time>2025-05-15T11:52:12Z</time>
      </trkpt>
      <trkpt lat="42.357928985729814" lon="2.897673966363072">
        <ele>79.930000000000007</ele>
        <time>2025-05-15T11:52:17Z</time>
      </trkpt>
      <trkpt lat="42.357865031808615" lon="2.897931039333344">
        <ele>78.480000000000004</ele>
        <time>2025-05-15T11:52:18Z</time>
      </trkpt>
      <trkpt lat="42.357766963541508" lon="2.898222981020808">
        <ele>77.040000000000006</ele>
        <time>2025-05-15T11:52:19Z</time>
      </trkpt>
      <trkpt lat="42.357675014063716" lon="2.898381985723972">
        <ele>75.120000000000005</ele>
        <time>2025-05-15T11:52:20Z</time>
      </trkpt>
      <trkpt lat="42.357536964118481" lon="2.898575020954013">
        <ele>73.680000000000007</ele>
        <time>2025-05-15T11:52:21Z</time>
      </trkpt>
      <trkpt lat="42.357377037405968" lon="2.898763027042151">
        <ele>72.239999999999995</ele>
        <time>2025-05-15T11:52:22Z</time>
      </trkpt>
      <trkpt lat="42.355756983160973" lon="2.900633029639721">
        <ele>64.069999999999993</ele>
        <time>2025-05-15T11:52:31Z</time>
      </trkpt>
      <trkpt lat="42.355259014293551" lon="2.901151031255722">
        <ele>61.18</ele>
        <time>2025-05-15T11:52:34Z</time>
      </trkpt>
      <trkpt lat="42.355079976841807" lon="2.901297966018319">
        <ele>60.700000000000003</ele>
        <time>2025-05-15T11:52:35Z</time>
      </trkpt>
      <trkpt lat="42.35488903708756" lon="2.901421012356877">
        <ele>60.219999999999999</ele>
        <time>2025-05-15T11:52:36Z</time>
      </trkpt>
      <trkpt lat="42.354689966887236" lon="2.901484966278076">
        <ele>60.219999999999999</ele>
        <time>2025-05-15T11:52:37Z</time>
      </trkpt>
      <trkpt lat="42.354502966627479" lon="2.901544980704784">
        <ele>60.700000000000003</ele>
        <time>2025-05-15T11:52:38Z</time>
      </trkpt>
      <trkpt lat="42.354331975802779" lon="2.901609018445015">
        <ele>61.18</ele>
        <time>2025-05-15T11:52:39Z</time>
      </trkpt>
      <trkpt lat="42.354175988584757" lon="2.901717983186245">
        <ele>61.659999999999997</ele>
        <time>2025-05-15T11:52:40Z</time>
      </trkpt>
      <trkpt lat="42.354025030508637" lon="2.901884028688073">
        <ele>61.659999999999997</ele>
        <time>2025-05-15T11:52:41Z</time>
      </trkpt>
      <trkpt lat="42.353871976956725" lon="2.90207002311945">
        <ele>61.659999999999997</ele>
        <time>2025-05-15T11:52:42Z</time>
      </trkpt>
      <trkpt lat="42.353727975860238" lon="2.902266997843981">
        <ele>61.659999999999997</ele>
        <time>2025-05-15T11:52:43Z</time>
      </trkpt>
      <trkpt lat="42.353612976148725" lon="2.902490040287376">
        <ele>61.659999999999997</ele>
        <time>2025-05-15T11:52:44Z</time>
      </trkpt>
      <trkpt lat="42.353501999750733" lon="2.902705958113074">
        <ele>61.659999999999997</ele>
        <time>2025-05-15T11:52:45Z</time>
      </trkpt>
      <trkpt lat="42.353390017524362" lon="2.902924977242947">
        <ele>61.18</ele>
        <time>2025-05-15T11:52:46Z</time>
      </trkpt>
      <trkpt lat="42.353251967579126" lon="2.903142990544438">
        <ele>60.700000000000003</ele>
        <time>2025-05-15T11:52:47Z</time>
      </trkpt>
      <trkpt lat="42.351823020726442" lon="2.905041994526982">
        <ele>56.859999999999999</ele>
        <time>2025-05-15T11:52:56Z</time>
      </trkpt>
      <trkpt lat="42.351639037951827" lon="2.905195970088244">
        <ele>56.369999999999997</ele>
        <time>2025-05-15T11:52:57Z</time>
      </trkpt>
      <trkpt lat="42.350846026092768" lon="2.905774991959333">
        <ele>54.450000000000003</ele>
        <time>2025-05-15T11:53:02Z</time>
      </trkpt>
      <trkpt lat="42.350770002231002" lon="2.905897032469511">
        <ele>54.450000000000003</ele>
        <time>2025-05-15T11:53:03Z</time>
      </trkpt>
      <trkpt lat="42.350728008896112" lon="2.906032986938953">
        <ele>54.450000000000003</ele>
        <time>2025-05-15T11:53:04Z</time>
      </trkpt>
      <trkpt lat="42.350713005289435" lon="2.906174976378679">
        <ele>54.450000000000003</ele>
        <time>2025-05-15T11:53:05Z</time>
      </trkpt>
      <trkpt lat="42.350724991410971" lon="2.906319983303547">
        <ele>54.450000000000003</ele>
        <time>2025-05-15T11:53:06Z</time>
      </trkpt>
      <trkpt lat="42.350715016946197" lon="2.906462978571653">
        <ele>54.450000000000003</ele>
        <time>2025-05-15T11:53:07Z</time>
      </trkpt>
      <trkpt lat="42.350695990025997" lon="2.90658401325345">
        <ele>53.969999999999999</ele>
        <time>2025-05-15T11:53:08Z</time>
      </trkpt>
      <trkpt lat="42.350676963105798" lon="2.906704964116216">
        <ele>53.490000000000002</ele>
        <time>2025-05-15T11:53:09Z</time>
      </trkpt>
      <trkpt lat="42.350643016397953" lon="2.906914008781314">
        <ele>53.490000000000002</ele>
        <time>2025-05-15T11:53:10Z</time>
      </trkpt>
      <trkpt lat="42.34999199397862" lon="2.907879017293453">
        <ele>52.049999999999997</ele>
        <time>2025-05-15T11:53:17Z</time>
      </trkpt>
      <trkpt lat="42.348732026293874" lon="2.909685987979174">
        <ele>50.130000000000003</ele>
        <time>2025-05-15T11:53:26Z</time>
      </trkpt>
      <trkpt lat="42.347100991755724" lon="2.912070974707604">
        <ele>51.090000000000003</ele>
        <time>2025-05-15T11:53:36Z</time>
      </trkpt>
      <trkpt lat="42.346149981021881" lon="2.913294984027743">
        <ele>51.57</ele>
        <time>2025-05-15T11:53:42Z</time>
      </trkpt>
      <trkpt lat="42.345965998247266" lon="2.913453988730907">
        <ele>51.57</ele>
        <time>2025-05-15T11:53:43Z</time>
      </trkpt>
      <trkpt lat="42.3432029876858" lon="2.915514009073377">
        <ele>50.130000000000003</ele>
        <time>2025-05-15T11:53:57Z</time>
      </trkpt>
      <trkpt lat="42.340358002111316" lon="2.917650975286961">
        <ele>47.719999999999999</ele>
        <time>2025-05-15T11:54:11Z</time>
      </trkpt>
      <trkpt lat="42.338179964572191" lon="2.919266000390053">
        <ele>49.159999999999997</ele>
        <time>2025-05-15T11:54:22Z</time>
      </trkpt>
      <trkpt lat="42.336549013853073" lon="2.920482968911529">
        <ele>50.130000000000003</ele>
        <time>2025-05-15T11:54:32Z</time>
      </trkpt>
      <trkpt lat="42.334230998530984" lon="2.92222497984767">
        <ele>50.609999999999999</ele>
        <time>2025-05-15T11:54:47Z</time>
      </trkpt>
      <trkpt lat="42.332857036963105" lon="2.923542028293014">
        <ele>53.490000000000002</ele>
        <time>2025-05-15T11:54:56Z</time>
      </trkpt>
      <trkpt lat="42.332038041204214" lon="2.925099972635508">
        <ele>52.530000000000001</ele>
        <time>2025-05-15T11:55:03Z</time>
      </trkpt>
      <trkpt lat="42.331218961626291" lon="2.926753973588347">
        <ele>49.649999999999999</ele>
        <time>2025-05-15T11:55:11Z</time>
      </trkpt>
      <trkpt lat="42.33003200031817" lon="2.928962018340826">
        <ele>50.130000000000003</ele>
        <time>2025-05-15T11:55:22Z</time>
      </trkpt>
      <trkpt lat="42.328827017918229" lon="2.930712997913361">
        <ele>50.130000000000003</ele>
        <time>2025-05-15T11:55:31Z</time>
      </trkpt>
      <trkpt lat="42.327854968607426" lon="2.93204496614635">
        <ele>48.68</ele>
        <time>2025-05-15T11:55:37Z</time>
      </trkpt>
      <trkpt lat="42.326990040019155" lon="2.932976027950645">
        <ele>46.759999999999998</ele>
        <time>2025-05-15T11:55:44Z</time>
      </trkpt>
      <trkpt lat="42.326838998124003" lon="2.933069989085197">
        <ele>46.759999999999998</ele>
        <time>2025-05-15T11:55:45Z</time>
      </trkpt>
      <trkpt lat="42.326676975935698" lon="2.933142995461822">
        <ele>46.759999999999998</ele>
        <time>2025-05-15T11:55:46Z</time>
      </trkpt>
      <trkpt lat="42.326514031738043" lon="2.933216001838446">
        <ele>46.280000000000001</ele>
        <time>2025-05-15T11:55:47Z</time>
      </trkpt>
      <trkpt lat="42.326345974579453" lon="2.933253971859813">
        <ele>46.280000000000001</ele>
        <time>2025-05-15T11:55:48Z</time>
      </trkpt>
      <trkpt lat="42.326178001239896" lon="2.93328900821507">
        <ele>46.280000000000001</ele>
        <time>2025-05-15T11:55:49Z</time>
      </trkpt>
      <trkpt lat="42.325987983494997" lon="2.933327984064817">
        <ele>46.280000000000001</ele>
        <time>2025-05-15T11:55:50Z</time>
      </trkpt>
      <trkpt lat="42.325837025418878" lon="2.933323038741946">
        <ele>45.799999999999997</ele>
        <time>2025-05-15T11:55:51Z</time>
      </trkpt>
      <trkpt lat="42.324431966990232" lon="2.933195969089866">
        <ele>45.799999999999997</ele>
        <time>2025-05-15T11:55:58Z</time>
      </trkpt>
      <trkpt lat="42.322932025417686" lon="2.932947026565671">
        <ele>45.32</ele>
        <time>2025-05-15T11:56:05Z</time>
      </trkpt>
      <trkpt lat="42.322738990187645" lon="2.93286002241075">
        <ele>45.32</ele>
        <time>2025-05-15T11:56:06Z</time>
      </trkpt>
      <trkpt lat="42.322561964392662" lon="2.932748962193728">
        <ele>45.32</ele>
        <time>2025-05-15T11:56:07Z</time>
      </trkpt>
      <trkpt lat="42.321221027523279" lon="2.931687980890274">
        <ele>46.280000000000001</ele>
        <time>2025-05-15T11:56:16Z</time>
      </trkpt>
      <trkpt lat="42.320222994312644" lon="2.931156987324357">
        <ele>45.799999999999997</ele>
        <time>2025-05-15T11:56:24Z</time>
      </trkpt>
      <trkpt lat="42.319498965516686" lon="2.931200992316008">
        <ele>45.32</ele>
        <time>2025-05-15T11:56:31Z</time>
      </trkpt>
      <trkpt lat="42.319486979395151" lon="2.931204009801149">
        <ele>45.32</ele>
        <time>2025-05-15T11:56:32Z</time>
      </trkpt>
      <trkpt lat="42.319486979395151" lon="2.931204009801149">
        <ele>44.840000000000003</ele>
        <time>2025-05-15T11:56:33Z</time>
      </trkpt>
      <trkpt lat="42.319251028820872" lon="2.931310962885618">
        <ele>44.840000000000003</ele>
        <time>2025-05-15T11:56:34Z</time>
      </trkpt>
      <trkpt lat="42.319218004122376" lon="2.931256983429194">
        <ele>44.840000000000003</ele>
        <time>2025-05-15T11:56:35Z</time>
      </trkpt>
      <trkpt lat="42.319182967767119" lon="2.931198980659246">
        <ele>44.359999999999999</ele>
        <time>2025-05-15T11:56:36Z</time>
      </trkpt>
      <trkpt lat="42.319122031331062" lon="2.931096972897649">
        <ele>44.359999999999999</ele>
        <time>2025-05-15T11:56:37Z</time>
      </trkpt>
      <trkpt lat="42.319122031331062" lon="2.931096972897649">
        <ele>44.359999999999999</ele>
        <time>2025-05-15T11:56:38Z</time>
      </trkpt>
      <trkpt lat="42.319082971662283" lon="2.931108959019184">
        <ele>44.359999999999999</ele>
        <time>2025-05-15T11:56:39Z</time>
      </trkpt>
      <trkpt lat="42.319023041054606" lon="2.931128991767764">
        <ele>44.840000000000003</ele>
        <time>2025-05-15T11:56:40Z</time>
      </trkpt>
      <trkpt lat="42.318955985829234" lon="2.931151958182454">
        <ele>44.840000000000003</ele>
        <time>2025-05-15T11:56:41Z</time>
      </trkpt>
      <trkpt lat="42.318928996101022" lon="2.931161010637879">
        <ele>44.359999999999999</ele>
        <time>2025-05-15T11:56:42Z</time>
      </trkpt>
      <trkpt lat="42.31881701387465" lon="2.931305011734366">
        <ele>44.359999999999999</ele>
        <time>2025-05-15T11:56:43Z</time>
      </trkpt>
      <trkpt lat="42.318764040246606" lon="2.931299982592464">
        <ele>44.359999999999999</ele>
        <time>2025-05-15T11:56:44Z</time>
      </trkpt>
      <trkpt lat="42.318706037476659" lon="2.931295037269592">
        <ele>44.359999999999999</ele>
        <time>2025-05-15T11:56:45Z</time>
      </trkpt>
      <trkpt lat="42.318630013614893" lon="2.93129101395607">
        <ele>44.359999999999999</ele>
        <time>2025-05-15T11:56:46Z</time>
      </trkpt>
      <trkpt lat="42.318551978096366" lon="2.931295037269592">
        <ele>43.880000000000003</ele>
        <time>2025-05-15T11:56:47Z</time>
      </trkpt>
      <trkpt lat="42.31847302056849" lon="2.931298976764083">
        <ele>44.359999999999999</ele>
        <time>2025-05-15T11:56:48Z</time>
      </trkpt>
      <trkpt lat="42.318394985049963" lon="2.931304005905986">
        <ele>44.359999999999999</ele>
        <time>2025-05-15T11:56:49Z</time>
      </trkpt>
      <trkpt lat="42.318319967016578" lon="2.931308029219508">
        <ele>44.840000000000003</ele>
        <time>2025-05-15T11:56:50Z</time>
      </trkpt>
      <trkpt lat="42.317349007353187" lon="2.931457981467247">
        <ele>47.240000000000002</ele>
        <time>2025-05-15T11:57:00Z</time>
      </trkpt>
      <trkpt lat="42.316089039668441" lon="2.931629978120327">
        <ele>48.68</ele>
        <time>2025-05-15T11:57:10Z</time>
      </trkpt>
      <trkpt lat="42.314933007583022" lon="2.931790994480252">
        <ele>47.240000000000002</ele>
        <time>2025-05-15T11:57:22Z</time>
      </trkpt>
      <trkpt lat="42.313587963581085" lon="2.931997021660209">
        <ele>45.32</ele>
        <time>2025-05-15T11:57:35Z</time>
      </trkpt>
      <trkpt lat="42.31301698833704" lon="2.932047983631492">
        <ele>45.799999999999997</ele>
        <time>2025-05-15T11:57:40Z</time>
      </trkpt>
      <trkpt lat="42.312452970072627" lon="2.932115038856864">
        <ele>45.799999999999997</ele>
        <time>2025-05-15T11:57:47Z</time>
      </trkpt>
      <trkpt lat="42.312281979247928" lon="2.93212803080678">
        <ele>45.799999999999997</ele>
        <time>2025-05-15T11:57:50Z</time>
      </trkpt>
      <trkpt lat="42.3122229706496" lon="2.932134987786412">
        <ele>45.32</ele>
        <time>2025-05-15T11:57:51Z</time>
      </trkpt>
      <trkpt lat="42.312165973708034" lon="2.932141022756696">
        <ele>45.32</ele>
        <time>2025-05-15T11:57:52Z</time>
      </trkpt>
      <trkpt lat="42.312062038108706" lon="2.931975983083248">
        <ele>45.32</ele>
        <time>2025-05-15T11:57:53Z</time>
      </trkpt>
      <trkpt lat="42.31205097399652" lon="2.931965002790093">
        <ele>45.32</ele>
        <time>2025-05-15T11:57:54Z</time>
      </trkpt>
      <trkpt lat="42.311960030347109" lon="2.931873975321651">
        <ele>45.32</ele>
        <time>2025-05-15T11:57:56Z</time>
      </trkpt>
      <trkpt lat="42.311901021748781" lon="2.931877998635173">
        <ele>45.32</ele>
        <time>2025-05-15T11:57:57Z</time>
      </trkpt>
      <trkpt lat="42.311846036463976" lon="2.931886967271566">
        <ele>45.32</ele>
        <time>2025-05-15T11:57:58Z</time>
      </trkpt>
      <trkpt lat="42.311791973188519" lon="2.93191303499043">
        <ele>44.840000000000003</ele>
        <time>2025-05-15T11:57:59Z</time>
      </trkpt>
      <trkpt lat="42.311761965975165" lon="2.931932983919978">
        <ele>44.840000000000003</ele>
        <time>2025-05-15T11:58:00Z</time>
      </trkpt>
      <trkpt lat="42.311746962368488" lon="2.932019988074899">
        <ele>44.359999999999999</ele>
        <time>2025-05-15T11:58:01Z</time>
      </trkpt>
      <trkpt lat="42.311734976246953" lon="2.932092994451523">
        <ele>44.359999999999999</ele>
        <time>2025-05-15T11:58:02Z</time>
      </trkpt>
      <trkpt lat="42.311645038425922" lon="2.932232972234488">
        <ele>43.880000000000003</ele>
        <time>2025-05-15T11:58:03Z</time>
      </trkpt>
      <trkpt lat="42.311524003744125" lon="2.932305978611112">
        <ele>43.880000000000003</ele>
        <time>2025-05-15T11:58:05Z</time>
      </trkpt>
      <trkpt lat="42.31052496470511" lon="2.933108964934945">
        <ele>44.359999999999999</ele>
        <time>2025-05-15T11:58:17Z</time>
      </trkpt>
      <trkpt lat="42.309360969811678" lon="2.934237001463771">
        <ele>41.469999999999999</ele>
        <time>2025-05-15T11:58:28Z</time>
      </trkpt>
      <trkpt lat="42.308001006022096" lon="2.935590008273721">
        <ele>40.509999999999998</ele>
        <time>2025-05-15T11:58:39Z</time>
      </trkpt>
      <trkpt lat="42.3063999786973" lon="2.937160022556782">
        <ele>44.359999999999999</ele>
        <time>2025-05-15T11:58:52Z</time>
      </trkpt>
      <trkpt lat="42.30487396940589" lon="2.938124025240541">
        <ele>49.159999999999997</ele>
        <time>2025-05-15T11:59:04Z</time>
      </trkpt>
      <trkpt lat="42.303099017590284" lon="2.938989037647843">
        <ele>51.090000000000003</ele>
        <time>2025-05-15T11:59:16Z</time>
      </trkpt>
      <trkpt lat="42.300992980599403" lon="2.939903000369668">
        <ele>55.890000000000001</ele>
        <time>2025-05-15T11:59:29Z</time>
      </trkpt>
      <trkpt lat="42.298993980512023" lon="2.940929029136896">
        <ele>56.369999999999997</ele>
        <time>2025-05-15T11:59:42Z</time>
      </trkpt>
      <trkpt lat="42.297237971797585" lon="2.941800998523831">
        <ele>52.049999999999997</ele>
        <time>2025-05-15T11:59:53Z</time>
      </trkpt>
      <trkpt lat="42.297063041478395" lon="2.941867969930172">
        <ele>52.049999999999997</ele>
        <time>2025-05-15T11:59:54Z</time>
      </trkpt>
      <trkpt lat="42.29677302762866" lon="2.94199101626873">
        <ele>51.57</ele>
        <time>2025-05-15T11:59:56Z</time>
      </trkpt>
      <trkpt lat="42.296617962419987" lon="2.942044995725155">
        <ele>51.57</ele>
        <time>2025-05-15T11:59:57Z</time>
      </trkpt>
      <trkpt lat="42.296463986858726" lon="2.94209604151547">
        <ele>51.57</ele>
        <time>2025-05-15T11:59:58Z</time>
      </trkpt>
      <trkpt lat="42.295058006420732" lon="2.942771036177874">
        <ele>52.530000000000001</ele>
        <time>2025-05-15T12:00:08Z</time>
      </trkpt>
      <trkpt lat="42.29494996368885" lon="2.942852005362511">
        <ele>53.009999999999998</ele>
        <time>2025-05-15T12:00:09Z</time>
      </trkpt>
      <trkpt lat="42.294843010604382" lon="2.942955018952489">
        <ele>53.009999999999998</ele>
        <time>2025-05-15T12:00:10Z</time>
      </trkpt>
      <trkpt lat="42.293672980740666" lon="2.944379020482302">
        <ele>52.530000000000001</ele>
        <time>2025-05-15T12:00:21Z</time>
      </trkpt>
      <trkpt lat="42.292766980826855" lon="2.945933025330305">
        <ele>51.090000000000003</ele>
        <time>2025-05-15T12:00:29Z</time>
      </trkpt>
      <trkpt lat="42.291747992858291" lon="2.948405016213656">
        <ele>48.200000000000003</ele>
        <time>2025-05-15T12:00:39Z</time>
      </trkpt>
      <trkpt lat="42.290266994386911" lon="2.952761007472873">
        <ele>45.799999999999997</ele>
        <time>2025-05-15T12:00:56Z</time>
      </trkpt>
      <trkpt lat="42.289033010601997" lon="2.956059034913778">
        <ele>41.469999999999999</ele>
        <time>2025-05-15T12:01:10Z</time>
      </trkpt>
      <trkpt lat="42.287467019632459" lon="2.95963098295033">
        <ele>39.07</ele>
        <time>2025-05-15T12:01:25Z</time>
      </trkpt>
      <trkpt lat="42.285196026787162" lon="2.964042965322733">
        <ele>33.299999999999997</ele>
        <time>2025-05-15T12:01:44Z</time>
      </trkpt>
      <trkpt lat="42.283296016976237" lon="2.967192968353629">
        <ele>29.940000000000001</ele>
        <time>2025-05-15T12:01:59Z</time>
      </trkpt>
      <trkpt lat="42.281212024390697" lon="2.970535000786185">
        <ele>28.98</ele>
        <time>2025-05-15T12:02:16Z</time>
      </trkpt>
      <trkpt lat="42.279571015387774" lon="2.973429020494223">
        <ele>27.050000000000001</ele>
        <time>2025-05-15T12:02:30Z</time>
      </trkpt>
      <trkpt lat="42.277783993631601" lon="2.977101970463991">
        <ele>24.649999999999999</ele>
        <time>2025-05-15T12:02:46Z</time>
      </trkpt>
      <trkpt lat="42.276334008201957" lon="2.980373008176684">
        <ele>27.530000000000001</ele>
        <time>2025-05-15T12:03:00Z</time>
      </trkpt>
      <trkpt lat="42.275317031890154" lon="2.982507962733507">
        <ele>30.420000000000002</ele>
        <time>2025-05-15T12:03:11Z</time>
      </trkpt>
      <trkpt lat="42.274240041151643" lon="2.984304036945105">
        <ele>30.899999999999999</ele>
        <time>2025-05-15T12:03:22Z</time>
      </trkpt>
      <trkpt lat="42.272995999082923" lon="2.985776988789439">
        <ele>28.02</ele>
        <time>2025-05-15T12:03:33Z</time>
      </trkpt>
      <trkpt lat="42.272354029119015" lon="2.986369002610445">
        <ele>27.050000000000001</ele>
        <time>2025-05-15T12:03:42Z</time>
      </trkpt>
      <trkpt lat="42.271679034456611" lon="2.986904019489884">
        <ele>24.649999999999999</ele>
        <time>2025-05-15T12:03:49Z</time>
      </trkpt>
      <trkpt lat="42.270143972709775" lon="2.987765008583665">
        <ele>21.77</ele>
        <time>2025-05-15T12:04:00Z</time>
      </trkpt>
      <trkpt lat="42.268340019509196" lon="2.988314023241401">
        <ele>23.690000000000001</ele>
        <time>2025-05-15T12:04:10Z</time>
      </trkpt>
      <trkpt lat="42.26615603081882" lon="2.988373031839728">
        <ele>24.649999999999999</ele>
        <time>2025-05-15T12:04:22Z</time>
      </trkpt>
      <trkpt lat="42.263970030471683" lon="2.987846983596683">
        <ele>25.609999999999999</ele>
        <time>2025-05-15T12:04:33Z</time>
      </trkpt>
      <trkpt lat="42.260868977755308" lon="2.986751971766353">
        <ele>27.050000000000001</ele>
        <time>2025-05-15T12:04:48Z</time>
      </trkpt>
      <trkpt lat="42.257943022996187" lon="2.985869022086263">
        <ele>28.02</ele>
        <time>2025-05-15T12:05:02Z</time>
      </trkpt>
      <trkpt lat="42.254811963066459" lon="2.985140969976783">
        <ele>26.09</ele>
        <time>2025-05-15T12:05:17Z</time>
      </trkpt>
      <trkpt lat="42.251673024147749" lon="2.984615005552769">
        <ele>24.170000000000002</ele>
        <time>2025-05-15T12:05:33Z</time>
      </trkpt>
      <trkpt lat="42.249717023223639" lon="2.984397998079658">
        <ele>26.57</ele>
        <time>2025-05-15T12:05:44Z</time>
      </trkpt>
      <trkpt lat="42.247018972411752" lon="2.984213009476662">
        <ele>29.940000000000001</ele>
        <time>2025-05-15T12:05:59Z</time>
      </trkpt>
      <trkpt lat="42.244470035657287" lon="2.984094992280006">
        <ele>31.379999999999999</ele>
        <time>2025-05-15T12:06:13Z</time>
      </trkpt>
      <trkpt lat="42.241907017305493" lon="2.983832973986864">
        <ele>29.940000000000001</ele>
        <time>2025-05-15T12:06:26Z</time>
      </trkpt>
      <trkpt lat="42.240064004436135" lon="2.983403988182545">
        <ele>30.420000000000002</ele>
        <time>2025-05-15T12:06:36Z</time>
      </trkpt>
      <trkpt lat="42.238128958269954" lon="2.982566971331835">
        <ele>32.82</ele>
        <time>2025-05-15T12:06:47Z</time>
      </trkpt>
      <trkpt lat="42.236908972263336" lon="2.981811007484794">
        <ele>35.229999999999997</ele>
        <time>2025-05-15T12:06:55Z</time>
      </trkpt>
      <trkpt lat="42.235313979908824" lon="2.980475015938282">
        <ele>36.670000000000002</ele>
        <time>2025-05-15T12:07:07Z</time>
      </trkpt>
      <trkpt lat="42.234137998893857" lon="2.979172971099615">
        <ele>38.590000000000003</ele>
        <time>2025-05-15T12:07:16Z</time>
      </trkpt>
      <trkpt lat="42.233147006481886" lon="2.977860029786825">
        <ele>39.549999999999997</ele>
        <time>2025-05-15T12:07:24Z</time>
      </trkpt>
      <trkpt lat="42.232978027313948" lon="2.977404976263642">
        <ele>40.509999999999998</ele>
        <time>2025-05-15T12:07:27Z</time>
      </trkpt>
      <trkpt lat="42.23294198513031" lon="2.977262986823916">
        <ele>40.990000000000002</ele>
        <time>2025-05-15T12:07:28Z</time>
      </trkpt>
      <trkpt lat="42.232907032594085" lon="2.977128038182855">
        <ele>40.990000000000002</ele>
        <time>2025-05-15T12:07:29Z</time>
      </trkpt>
      <trkpt lat="42.232891023159027" lon="2.977007003501058">
        <ele>41.469999999999999</ele>
        <time>2025-05-15T12:07:30Z</time>
      </trkpt>
      <trkpt lat="42.232923964038491" lon="2.976875994354487">
        <ele>41.469999999999999</ele>
        <time>2025-05-15T12:07:31Z</time>
      </trkpt>
      <trkpt lat="42.232957994565368" lon="2.976740039885044">
        <ele>41.469999999999999</ele>
        <time>2025-05-15T12:07:32Z</time>
      </trkpt>
      <trkpt lat="42.233019014820457" lon="2.976625962182879">
        <ele>41.469999999999999</ele>
        <time>2025-05-15T12:07:33Z</time>
      </trkpt>
      <trkpt lat="42.233095038682222" lon="2.976522026583552">
        <ele>41.469999999999999</ele>
        <time>2025-05-15T12:07:34Z</time>
      </trkpt>
      <trkpt lat="42.233182964846492" lon="2.976446002721787">
        <ele>41.469999999999999</ele>
        <time>2025-05-15T12:07:35Z</time>
      </trkpt>
      <trkpt lat="42.233283966779709" lon="2.976415995508432">
        <ele>40.509999999999998</ele>
        <time>2025-05-15T12:07:36Z</time>
      </trkpt>
      <trkpt lat="42.233382035046816" lon="2.976386994123459">
        <ele>40.030000000000001</ele>
        <time>2025-05-15T12:07:37Z</time>
      </trkpt>
      <trkpt lat="42.233506003394723" lon="2.976351035758853">
        <ele>39.07</ele>
        <time>2025-05-15T12:07:38Z</time>
      </trkpt>
      <trkpt lat="42.233596025034785" lon="2.976393029093742">
        <ele>38.590000000000003</ele>
        <time>2025-05-15T12:07:39Z</time>
      </trkpt>
      <trkpt lat="42.233685962855816" lon="2.976435022428632">
        <ele>37.630000000000003</ele>
        <time>2025-05-15T12:07:40Z</time>
      </trkpt>
      <trkpt lat="42.233785036951303" lon="2.976694023236632">
        <ele>37.149999999999999</ele>
        <time>2025-05-15T12:07:41Z</time>
      </trkpt>
      <trkpt lat="42.233790988102555" lon="2.976719001308084">
        <ele>36.670000000000002</ele>
        <time>2025-05-15T12:07:42Z</time>
      </trkpt>
      <trkpt lat="42.233824012801051" lon="2.976850010454655">
        <ele>36.189999999999998</ele>
        <time>2025-05-15T12:07:43Z</time>
      </trkpt>
      <trkpt lat="42.23384496755898" lon="2.976994011551142">
        <ele>36.189999999999998</ele>
        <time>2025-05-15T12:07:44Z</time>
      </trkpt>
      <trkpt lat="42.23386500030756" lon="2.977141030132771">
        <ele>35.710000000000001</ele>
        <time>2025-05-15T12:07:45Z</time>
      </trkpt>
      <trkpt lat="42.23388503305614" lon="2.977288970723748">
        <ele>35.229999999999997</ele>
        <time>2025-05-15T12:07:46Z</time>
      </trkpt>
      <trkpt lat="42.233860976994038" lon="2.977447975426912">
        <ele>35.229999999999997</ele>
        <time>2025-05-15T12:07:47Z</time>
      </trkpt>
      <trkpt lat="42.233820995315909" lon="2.977590970695019">
        <ele>34.740000000000002</ele>
        <time>2025-05-15T12:07:48Z</time>
      </trkpt>
      <trkpt lat="42.233780007809401" lon="2.977735977619886">
        <ele>34.259999999999998</ele>
        <time>2025-05-15T12:07:49Z</time>
      </trkpt>
      <trkpt lat="42.233739020302892" lon="2.977881990373135">
        <ele>34.259999999999998</ele>
        <time>2025-05-15T12:07:50Z</time>
      </trkpt>
      <trkpt lat="42.233592001721263" lon="2.978475010022521">
        <ele>33.299999999999997</ele>
        <time>2025-05-15T12:07:54Z</time>
      </trkpt>
      <trkpt lat="42.233532993122935" lon="2.978638960048556">
        <ele>32.82</ele>
        <time>2025-05-15T12:07:55Z</time>
      </trkpt>
      <trkpt lat="42.232981966808438" lon="2.980652963742614">
        <ele>30.899999999999999</ele>
        <time>2025-05-15T12:08:07Z</time>
      </trkpt>
      <trkpt lat="42.232461031526327" lon="2.982521960511804">
        <ele>33.299999999999997</ele>
        <time>2025-05-15T12:08:16Z</time>
      </trkpt>
      <trkpt lat="42.232054006308317" lon="2.983997007831931">
        <ele>34.740000000000002</ele>
        <time>2025-05-15T12:08:21Z</time>
      </trkpt>
      <trkpt lat="42.231137026101351" lon="2.987242983654141">
        <ele>30.899999999999999</ele>
        <time>2025-05-15T12:08:32Z</time>
      </trkpt>
      <trkpt lat="42.23021300509572" lon="2.990499017760158">
        <ele>25.129999999999999</ele>
        <time>2025-05-15T12:08:44Z</time>
      </trkpt>
      <trkpt lat="42.229269035160542" lon="2.993859993293881">
        <ele>23.210000000000001</ele>
        <time>2025-05-15T12:08:56Z</time>
      </trkpt>
      <trkpt lat="42.228781962767243" lon="2.995223980396986">
        <ele>22.73</ele>
        <time>2025-05-15T12:09:02Z</time>
      </trkpt>
      <trkpt lat="42.228076960891485" lon="2.996628032997251">
        <ele>25.609999999999999</ele>
        <time>2025-05-15T12:09:10Z</time>
      </trkpt>
      <trkpt lat="42.22802197560668" lon="2.996662985533476">
        <ele>26.09</ele>
        <time>2025-05-15T12:09:11Z</time>
      </trkpt>
      <trkpt lat="42.227980988100171" lon="2.996688969433308">
        <ele>26.09</ele>
        <time>2025-05-15T12:09:12Z</time>
      </trkpt>
      <trkpt lat="42.227940000593662" lon="2.996715037152171">
        <ele>26.57</ele>
        <time>2025-05-15T12:09:13Z</time>
      </trkpt>
      <trkpt lat="42.227891972288489" lon="2.996745966374874">
        <ele>26.57</ele>
        <time>2025-05-15T12:09:14Z</time>
      </trkpt>
      <trkpt lat="42.227831035852432" lon="2.996781002730131">
        <ele>27.050000000000001</ele>
        <time>2025-05-15T12:09:15Z</time>
      </trkpt>
      <trkpt lat="42.227771021425724" lon="2.996796006336808">
        <ele>27.530000000000001</ele>
        <time>2025-05-15T12:09:16Z</time>
      </trkpt>
      <trkpt lat="42.227745959535241" lon="2.996845962479711">
        <ele>28.02</ele>
        <time>2025-05-15T12:09:17Z</time>
      </trkpt>
      <trkpt lat="42.227727016434073" lon="2.996943024918437">
        <ele>28.02</ele>
        <time>2025-05-15T12:09:18Z</time>
      </trkpt>
      <trkpt lat="42.227715030312538" lon="2.997034974396229">
        <ele>28.5</ele>
        <time>2025-05-15T12:09:19Z</time>
      </trkpt>
      <trkpt lat="42.227800022810698" lon="2.997073028236628">
        <ele>28.02</ele>
        <time>2025-05-15T12:09:20Z</time>
      </trkpt>
      <trkpt lat="42.227841010317206" lon="2.99710001796484">
        <ele>28.02</ele>
        <time>2025-05-15T12:09:21Z</time>
      </trkpt>
      <trkpt lat="42.227992974221706" lon="2.997052995488048">
        <ele>28.02</ele>
        <time>2025-05-15T12:09:22Z</time>
      </trkpt>
      <trkpt lat="42.228077966719866" lon="2.997126001864672">
        <ele>27.530000000000001</ele>
        <time>2025-05-15T12:09:23Z</time>
      </trkpt>
      <trkpt lat="42.228173017501831" lon="2.997217029333115">
        <ele>27.530000000000001</ele>
        <time>2025-05-15T12:09:24Z</time>
      </trkpt>
      <trkpt lat="42.228259015828371" lon="2.99729498103261">
        <ele>27.530000000000001</ele>
        <time>2025-05-15T12:09:25Z</time>
      </trkpt>
      <trkpt lat="42.228330010548234" lon="2.99735801294446">
        <ele>27.530000000000001</ele>
        <time>2025-05-15T12:09:26Z</time>
      </trkpt>
      <trkpt lat="42.228377033025026" lon="2.99740101210773">
        <ele>27.530000000000001</ele>
        <time>2025-05-15T12:09:27Z</time>
      </trkpt>
      <trkpt lat="42.228416008874774" lon="2.997576026245952">
        <ele>28.02</ele>
        <time>2025-05-15T12:09:28Z</time>
      </trkpt>
      <trkpt lat="42.228477029129863" lon="2.997618019580841">
        <ele>28.02</ele>
        <time>2025-05-15T12:09:29Z</time>
      </trkpt>
      <trkpt lat="42.228506030514836" lon="2.997636962682009">
        <ele>28.02</ele>
        <time>2025-05-15T12:09:30Z</time>
      </trkpt>
      <trkpt lat="42.228662017732859" lon="2.997651966288686">
        <ele>28.02</ele>
        <time>2025-05-15T12:09:31Z</time>
      </trkpt>
      <trkpt lat="42.228738041594625" lon="2.997738970443606">
        <ele>27.530000000000001</ele>
        <time>2025-05-15T12:09:32Z</time>
      </trkpt>
      <trkpt lat="42.228813981637359" lon="2.997868973761797">
        <ele>27.050000000000001</ele>
        <time>2025-05-15T12:09:33Z</time>
      </trkpt>
      <trkpt lat="42.228895034641027" lon="2.998011969029903">
        <ele>26.57</ele>
        <time>2025-05-15T12:09:34Z</time>
      </trkpt>
      <trkpt lat="42.228979021310806" lon="2.998157981783152">
        <ele>25.609999999999999</ele>
        <time>2025-05-15T12:09:35Z</time>
      </trkpt>
      <trkpt lat="42.229048004373908" lon="2.998320003971458">
        <ele>25.129999999999999</ele>
        <time>2025-05-15T12:09:36Z</time>
      </trkpt>
      <trkpt lat="42.229108018800616" lon="2.99847699701786">
        <ele>24.170000000000002</ele>
        <time>2025-05-15T12:09:37Z</time>
      </trkpt>
      <trkpt lat="42.229146994650364" lon="2.998623009771109">
        <ele>23.210000000000001</ele>
        <time>2025-05-15T12:09:38Z</time>
      </trkpt>
      <trkpt lat="42.229107012972236" lon="2.998881004750729">
        <ele>22.25</ele>
        <time>2025-05-15T12:09:39Z</time>
      </trkpt>
      <trkpt lat="42.229107012972236" lon="2.998913023620844">
        <ele>21.77</ele>
        <time>2025-05-15T12:09:40Z</time>
      </trkpt>
      <trkpt lat="42.229126961901784" lon="2.999049983918667">
        <ele>21.289999999999999</ele>
        <time>2025-05-15T12:09:41Z</time>
      </trkpt>
      <trkpt lat="42.229150012135506" lon="2.999096000567079">
        <ele>21.289999999999999</ele>
        <time>2025-05-15T12:09:42Z</time>
      </trkpt>
      <trkpt lat="42.229324020445347" lon="2.99922801554203">
        <ele>20.809999999999999</ele>
        <time>2025-05-15T12:09:43Z</time>
      </trkpt>
      <trkpt lat="42.229368025436997" lon="2.999385008588433">
        <ele>20.32</ele>
        <time>2025-05-15T12:09:44Z</time>
      </trkpt>
      <trkpt lat="42.229432985186577" lon="2.999565973877907">
        <ele>19.84</ele>
        <time>2025-05-15T12:09:45Z</time>
      </trkpt>
      <trkpt lat="42.229939000681043" lon="3.001186028122902">
        <ele>18.879999999999999</ele>
        <time>2025-05-15T12:09:52Z</time>
      </trkpt>
      <trkpt lat="42.230330016463995" lon="3.003577971830964">
        <ele>16.48</ele>
        <time>2025-05-15T12:10:01Z</time>
      </trkpt>
      <trkpt lat="42.230145027860999" lon="3.006074018776417">
        <ele>15.52</ele>
        <time>2025-05-15T12:10:10Z</time>
      </trkpt>
      <trkpt lat="42.23023203201592" lon="3.008114006370306">
        <ele>16</ele>
        <time>2025-05-15T12:10:17Z</time>
      </trkpt>
      <trkpt lat="42.230285005643964" lon="3.008398991078138">
        <ele>16</ele>
        <time>2025-05-15T12:10:18Z</time>
      </trkpt>
      <trkpt lat="42.230379972606897" lon="3.00865899771452">
        <ele>16</ele>
        <time>2025-05-15T12:10:19Z</time>
      </trkpt>
      <trkpt lat="42.230476029217243" lon="3.00891699269414">
        <ele>16</ele>
        <time>2025-05-15T12:10:20Z</time>
      </trkpt>
      <trkpt lat="42.230572002008557" lon="3.009170964360237">
        <ele>16</ele>
        <time>2025-05-15T12:10:21Z</time>
      </trkpt>
      <trkpt lat="42.230691025033593" lon="3.009409010410309">
        <ele>16</ele>
        <time>2025-05-15T12:10:22Z</time>
      </trkpt>
      <trkpt lat="42.231925008818507" lon="3.011892987415195">
        <ele>14.08</ele>
        <time>2025-05-15T12:10:32Z</time>
      </trkpt>
      <trkpt lat="42.232900997623801" lon="3.013957031071186">
        <ele>11.67</ele>
        <time>2025-05-15T12:10:40Z</time>
      </trkpt>
      <trkpt lat="42.234834032133222" lon="3.016720041632652">
        <ele>9.75</ele>
        <time>2025-05-15T12:10:52Z</time>
      </trkpt>
      <trkpt lat="42.236432963982224" lon="3.018966978415847">
        <ele>9.75</ele>
        <time>2025-05-15T12:11:02Z</time>
      </trkpt>
      <trkpt lat="42.23773299716413" lon="3.020662972703576">
        <ele>9.75</ele>
        <time>2025-05-15T12:11:10Z</time>
      </trkpt>
      <trkpt lat="42.238777969032526" lon="3.022137014195323">
        <ele>8.789999999999999</ele>
        <time>2025-05-15T12:11:17Z</time>
      </trkpt>
      <trkpt lat="42.239335030317307" lon="3.023879025131464">
        <ele>8.310000000000001</ele>
        <time>2025-05-15T12:11:23Z</time>
      </trkpt>
      <trkpt lat="42.240173975005746" lon="3.027389030903578">
        <ele>6.87</ele>
        <time>2025-05-15T12:11:34Z</time>
      </trkpt>
      <trkpt lat="42.240578988566995" lon="3.029455002397299">
        <ele>3.98</ele>
        <time>2025-05-15T12:11:41Z</time>
      </trkpt>
      <trkpt lat="42.240822985768318" lon="3.030596030876041">
        <ele>2.54</ele>
        <time>2025-05-15T12:11:46Z</time>
      </trkpt>
      <trkpt lat="42.240922981873155" lon="3.030812032520771">
        <ele>2.54</ele>
        <time>2025-05-15T12:11:47Z</time>
      </trkpt>
      <trkpt lat="42.241019960492849" lon="3.031020993366838">
        <ele>2.54</ele>
        <time>2025-05-15T12:11:48Z</time>
      </trkpt>
      <trkpt lat="42.241508960723877" lon="3.032119022682309">
        <ele>2.06</ele>
        <time>2025-05-15T12:11:54Z</time>
      </trkpt>
      <trkpt lat="42.241796962916851" lon="3.032853025943041">
        <ele>1.1</ele>
        <time>2025-05-15T12:12:00Z</time>
      </trkpt>
      <trkpt lat="42.241767039522529" lon="3.033062992617488">
        <ele>1.1</ele>
        <time>2025-05-15T12:12:01Z</time>
      </trkpt>
      <trkpt lat="42.241787994280457" lon="3.033114960417152">
        <ele>1.1</ele>
        <time>2025-05-15T12:12:02Z</time>
      </trkpt>
      <trkpt lat="42.241810038685799" lon="3.033171035349369">
        <ele>1.1</ele>
        <time>2025-05-15T12:12:03Z</time>
      </trkpt>
      <trkpt lat="42.241896037012339" lon="3.033320987597108">
        <ele>1.1</ele>
        <time>2025-05-15T12:12:04Z</time>
      </trkpt>
      <trkpt lat="42.241916991770267" lon="3.033400028944016">
        <ele>1.1</ele>
        <time>2025-05-15T12:12:05Z</time>
      </trkpt>
      <trkpt lat="42.241942975670099" lon="3.033493990078569">
        <ele>1.1</ele>
        <time>2025-05-15T12:12:06Z</time>
      </trkpt>
      <trkpt lat="42.241968037560582" lon="3.03358200006187">
        <ele>1.1</ele>
        <time>2025-05-15T12:12:07Z</time>
      </trkpt>
      <trkpt lat="42.242318987846375" lon="3.034729985520244">
        <ele>1.1</ele>
        <time>2025-05-15T12:12:21Z</time>
      </trkpt>
      <trkpt lat="42.242402974516153" lon="3.034968031570315">
        <ele>0.62</ele>
        <time>2025-05-15T12:12:24Z</time>
      </trkpt>
      <trkpt lat="42.242427030578256" lon="3.035053024068475">
        <ele>0.14</ele>
        <time>2025-05-15T12:12:25Z</time>
      </trkpt>
      <trkpt lat="42.242478998377919" lon="3.035219991579652">
        <ele>-0.34</ele>
        <time>2025-05-15T12:12:27Z</time>
      </trkpt>
      <trkpt lat="42.242561979219317" lon="3.035460971295834">
        <ele>-0.82</ele>
        <time>2025-05-15T12:12:30Z</time>
      </trkpt>
      <trkpt lat="42.242869008332491" lon="3.036364959552884">
        <ele>-1.79</ele>
        <time>2025-05-15T12:12:41Z</time>
      </trkpt>
      <trkpt lat="42.243319032713771" lon="3.037242963910103">
        <ele>-0.34</ele>
        <time>2025-05-15T12:12:53Z</time>
      </trkpt>
      <trkpt lat="42.243702001869678" lon="3.037875965237618">
        <ele>-0.34</ele>
        <time>2025-05-15T12:13:03Z</time>
      </trkpt>
      <trkpt lat="42.243879027664661" lon="3.03815801627934">
        <ele>-1.3</ele>
        <time>2025-05-15T12:13:13Z</time>
      </trkpt>
      <trkpt lat="42.244020011276007" lon="3.038341999053955">
        <ele>-1.79</ele>
        <time>2025-05-15T12:13:26Z</time>
      </trkpt>
      <trkpt lat="42.244202988222241" lon="3.03863201290369">
        <ele>-2.27</ele>
        <time>2025-05-15T12:13:30Z</time>
      </trkpt>
      <trkpt lat="42.244247999042273" lon="3.038703007623553">
        <ele>-1.79</ele>
        <time>2025-05-15T12:13:31Z</time>
      </trkpt>
      <trkpt lat="42.244427036494017" lon="3.03895496763289">
        <ele>-1.3</ele>
        <time>2025-05-15T12:13:35Z</time>
      </trkpt>
      <trkpt lat="42.244614958763123" lon="3.039284963160753">
        <ele>-0.82</ele>
        <time>2025-05-15T12:13:40Z</time>
      </trkpt>
      <trkpt lat="42.244711015373468" lon="3.039501970633864">
        <ele>-1.3</ele>
        <time>2025-05-15T12:13:43Z</time>
      </trkpt>
      <trkpt lat="42.244744040071964" lon="3.03957799449563">
        <ele>-1.3</ele>
        <time>2025-05-15T12:13:44Z</time>
      </trkpt>
      <trkpt lat="42.244775975123048" lon="3.039651000872254">
        <ele>-1.3</ele>
        <time>2025-05-15T12:13:45Z</time>
      </trkpt>
      <trkpt lat="42.245060037821531" lon="3.040319960564375">
        <ele>-4.19</ele>
        <time>2025-05-15T12:13:54Z</time>
      </trkpt>
      <trkpt lat="42.245178977027535" lon="3.040581978857517">
        <ele>-5.15</ele>
        <time>2025-05-15T12:14:02Z</time>
      </trkpt>
      <trkpt lat="42.245178977027535" lon="3.040581978857517">
        <ele>-5.63</ele>
        <time>2025-05-15T12:14:41Z</time>
      </trkpt>
      <trkpt lat="42.245218958705664" lon="3.040664959698916">
        <ele>-6.11</ele>
        <time>2025-05-15T12:15:21Z</time>
      </trkpt>
      <trkpt lat="42.245376035571098" lon="3.041000990197063">
        <ele>-7.07</ele>
        <time>2025-05-15T12:15:27Z</time>
      </trkpt>
      <trkpt lat="42.245409982278943" lon="3.041071984916925">
        <ele>-7.07</ele>
        <time>2025-05-15T12:15:28Z</time>
      </trkpt>
      <trkpt lat="42.245485000312328" lon="3.041193019598723">
        <ele>-7.07</ele>
        <time>2025-05-15T12:15:30Z</time>
      </trkpt>
      <trkpt lat="42.245674012228847" lon="3.04151002317667">
        <ele>-6.59</ele>
        <time>2025-05-15T12:15:34Z</time>
      </trkpt>
      <trkpt lat="42.246076008304954" lon="3.042405964806676">
        <ele>-2.75</ele>
        <time>2025-05-15T12:15:44Z</time>
      </trkpt>
      <trkpt lat="42.246365016326308" lon="3.043098980560899">
        <ele>0.14</ele>
        <time>2025-05-15T12:15:52Z</time>
      </trkpt>
      <trkpt lat="42.246557967737317" lon="3.04342201910913">
        <ele>0.14</ele>
        <time>2025-05-15T12:15:56Z</time>
      </trkpt>
      <trkpt lat="42.247180994600058" lon="3.044237997382879">
        <ele>0.62</ele>
        <time>2025-05-15T12:16:03Z</time>
      </trkpt>
      <trkpt lat="42.248233007267118" lon="3.045494025573134">
        <ele>2.06</ele>
        <time>2025-05-15T12:16:11Z</time>
      </trkpt>
      <trkpt lat="42.248557973653078" lon="3.045760989189148">
        <ele>2.54</ele>
        <time>2025-05-15T12:16:13Z</time>
      </trkpt>
      <trkpt lat="42.250163024291396" lon="3.046952979639173">
        <ele>4.94</ele>
        <time>2025-05-15T12:16:22Z</time>
      </trkpt>
      <trkpt lat="42.250319011509418" lon="3.047141991555691">
        <ele>4.46</ele>
        <time>2025-05-15T12:16:23Z</time>
      </trkpt>
      <trkpt lat="42.251845020800829" lon="3.04931097663939">
        <ele>3.98</ele>
        <time>2025-05-15T12:16:33Z</time>
      </trkpt>
      <trkpt lat="42.252538036555052" lon="3.051233030855656">
        <ele>2.54</ele>
        <time>2025-05-15T12:16:40Z</time>
      </trkpt>
      <trkpt lat="42.252613976597786" lon="3.051498988643289">
        <ele>2.54</ele>
        <time>2025-05-15T12:16:41Z</time>
      </trkpt>
      <trkpt lat="42.252716990187764" lon="3.051734017208219">
        <ele>2.54</ele>
        <time>2025-05-15T12:16:42Z</time>
      </trkpt>
      <trkpt lat="42.252837019041181" lon="3.051943983882666">
        <ele>2.54</ele>
        <time>2025-05-15T12:16:43Z</time>
      </trkpt>
      <trkpt lat="42.252971967682242" lon="3.052144981920719">
        <ele>2.54</ele>
        <time>2025-05-15T12:16:44Z</time>
      </trkpt>
      <trkpt lat="42.253107000142336" lon="3.052347991615534">
        <ele>2.54</ele>
        <time>2025-05-15T12:16:45Z</time>
      </trkpt>
      <trkpt lat="42.254866026341915" lon="3.05491897277534">
        <ele>3.5</ele>
        <time>2025-05-15T12:16:57Z</time>
      </trkpt>
      <trkpt lat="42.255717040970922" lon="3.056150022894144">
        <ele>3.98</ele>
        <time>2025-05-15T12:17:03Z</time>
      </trkpt>
      <trkpt lat="42.255871016532183" lon="3.056283965706825">
        <ele>4.46</ele>
        <time>2025-05-15T12:17:04Z</time>
      </trkpt>
      <trkpt lat="42.256024992093444" lon="3.056393014267087">
        <ele>4.94</ele>
        <time>2025-05-15T12:17:05Z</time>
      </trkpt>
      <trkpt lat="42.25618701428175" lon="3.056473983451724">
        <ele>5.42</ele>
        <time>2025-05-15T12:17:06Z</time>
      </trkpt>
      <trkpt lat="42.256346018984914" lon="3.056551013141871">
        <ele>5.42</ele>
        <time>2025-05-15T12:17:07Z</time>
      </trkpt>
      <trkpt lat="42.256999975070357" lon="3.056815965101123">
        <ele>5.91</ele>
        <time>2025-05-15T12:17:13Z</time>
      </trkpt>
      <trkpt lat="42.257028976455331" lon="3.056826023384929">
        <ele>6.39</ele>
        <time>2025-05-15T12:17:20Z</time>
      </trkpt>
      <trkpt lat="42.257041968405247" lon="3.0568309687078">
        <ele>6.39</ele>
        <time>2025-05-15T12:17:21Z</time>
      </trkpt>
      <trkpt lat="42.25706703029573" lon="3.056839015334845">
        <ele>5.91</ele>
        <time>2025-05-15T12:17:22Z</time>
      </trkpt>
      <trkpt lat="42.257130984216928" lon="3.056947980076075">
        <ele>5.91</ele>
        <time>2025-05-15T12:17:23Z</time>
      </trkpt>
      <trkpt lat="42.257130984216928" lon="3.057026015594602">
        <ele>5.91</ele>
        <time>2025-05-15T12:17:24Z</time>
      </trkpt>
      <trkpt lat="42.257130984216928" lon="3.057118970900774">
        <ele>5.42</ele>
        <time>2025-05-15T12:17:25Z</time>
      </trkpt>
      <trkpt lat="42.257321001961827" lon="3.057505963370204">
        <ele>5.91</ele>
        <time>2025-05-15T12:17:28Z</time>
      </trkpt>
      <trkpt lat="42.257286971434951" lon="3.057655999436975">
        <ele>5.91</ele>
        <time>2025-05-15T12:17:29Z</time>
      </trkpt>
      <trkpt lat="42.257247995585203" lon="3.057832019403577">
        <ele>5.42</ele>
        <time>2025-05-15T12:17:30Z</time>
      </trkpt>
      <trkpt lat="42.256908025592566" lon="3.059351993724704">
        <ele>6.39</ele>
        <time>2025-05-15T12:17:37Z</time>
      </trkpt>
      <trkpt lat="42.256378959864378" lon="3.06168501265347">
        <ele>5.42</ele>
        <time>2025-05-15T12:17:46Z</time>
      </trkpt>
      <trkpt lat="42.255575973540545" lon="3.065149001777172">
        <ele>5.42</ele>
        <time>2025-05-15T12:17:57Z</time>
      </trkpt>
      <trkpt lat="42.254604008048773" lon="3.069346994161606">
        <ele>6.87</ele>
        <time>2025-05-15T12:18:10Z</time>
      </trkpt>
      <trkpt lat="42.254064967855811" lon="3.071420006453991">
        <ele>9.27</ele>
        <time>2025-05-15T12:18:17Z</time>
      </trkpt>
      <trkpt lat="42.253951979801059" lon="3.071681018918753">
        <ele>9.75</ele>
        <time>2025-05-15T12:18:18Z</time>
      </trkpt>
      <trkpt lat="42.252497971057892" lon="3.074397007003427">
        <ele>9.27</ele>
        <time>2025-05-15T12:18:29Z</time>
      </trkpt>
      <trkpt lat="42.25201802328229" lon="3.075196975842118">
        <ele>9.27</ele>
        <time>2025-05-15T12:18:33Z</time>
      </trkpt>
      <trkpt lat="42.251924984157085" lon="3.075326979160309">
        <ele>9.27</ele>
        <time>2025-05-15T12:18:34Z</time>
      </trkpt>
      <trkpt lat="42.251678975299001" lon="3.075545998290181">
        <ele>9.75</ele>
        <time>2025-05-15T12:18:37Z</time>
      </trkpt>
      <trkpt lat="42.251572022214532" lon="3.075614981353283">
        <ele>10.710000000000001</ele>
        <time>2025-05-15T12:18:39Z</time>
      </trkpt>
      <trkpt lat="42.251507984474301" lon="3.075647000223398">
        <ele>10.710000000000001</ele>
        <time>2025-05-15T12:18:40Z</time>
      </trkpt>
      <trkpt lat="42.251435983926058" lon="3.075682958588004">
        <ele>11.19</ele>
        <time>2025-05-15T12:18:41Z</time>
      </trkpt>
      <trkpt lat="42.251256024464965" lon="3.075723024085164">
        <ele>10.710000000000001</ele>
        <time>2025-05-15T12:18:43Z</time>
      </trkpt>
      <trkpt lat="42.251164996996522" lon="3.075797036290169">
        <ele>9.75</ele>
        <time>2025-05-15T12:18:44Z</time>
      </trkpt>
      <trkpt lat="42.25109500810504" lon="3.075901977717876">
        <ele>9.75</ele>
        <time>2025-05-15T12:18:45Z</time>
      </trkpt>
      <trkpt lat="42.251051003113389" lon="3.076056037098169">
        <ele>9.27</ele>
        <time>2025-05-15T12:18:46Z</time>
      </trkpt>
      <trkpt lat="42.251041028648615" lon="3.076203977689147">
        <ele>9.27</ele>
        <time>2025-05-15T12:18:47Z</time>
      </trkpt>
      <trkpt lat="42.251070030033588" lon="3.076374968513846">
        <ele>9.27</ele>
        <time>2025-05-15T12:18:48Z</time>
      </trkpt>
      <trkpt lat="42.251162985339761" lon="3.076502960175276">
        <ele>9.27</ele>
        <time>2025-05-15T12:18:49Z</time>
      </trkpt>
      <trkpt lat="42.251230040565133" lon="3.076579989865422">
        <ele>9.27</ele>
        <time>2025-05-15T12:18:50Z</time>
      </trkpt>
      <trkpt lat="42.251300029456615" lon="3.076775958761573">
        <ele>9.27</ele>
        <time>2025-05-15T12:18:51Z</time>
      </trkpt>
      <trkpt lat="42.251345040276647" lon="3.076933035627008">
        <ele>9.75</ele>
        <time>2025-05-15T12:18:52Z</time>
      </trkpt>
      <trkpt lat="42.251372030004859" lon="3.077126992866397">
        <ele>10.23</ele>
        <time>2025-05-15T12:18:53Z</time>
      </trkpt>
      <trkpt lat="42.251401031389832" lon="3.077331008389592">
        <ele>10.23</ele>
        <time>2025-05-15T12:18:54Z</time>
      </trkpt>
      <trkpt lat="42.251405976712704" lon="3.077550027519465">
        <ele>10.710000000000001</ele>
        <time>2025-05-15T12:18:55Z</time>
      </trkpt>
      <trkpt lat="42.251489041373134" lon="3.079686993733048">
        <ele>12.15</ele>
        <time>2025-05-15T12:19:03Z</time>
      </trkpt>
      <trkpt lat="42.251905035227537" lon="3.081818008795381">
        <ele>12.15</ele>
        <time>2025-05-15T12:19:10Z</time>
      </trkpt>
      <trkpt lat="42.252753032371402" lon="3.084463002160192">
        <ele>11.19</ele>
        <time>2025-05-15T12:19:19Z</time>
      </trkpt>
      <trkpt lat="42.252960987389088" lon="3.084924006834626">
        <ele>11.19</ele>
        <time>2025-05-15T12:19:21Z</time>
      </trkpt>
      <trkpt lat="42.253071963787079" lon="3.085120981559157">
        <ele>11.19</ele>
        <time>2025-05-15T12:19:22Z</time>
      </trkpt>
      <trkpt lat="42.253203978762031" lon="3.085309993475676">
        <ele>11.19</ele>
        <time>2025-05-15T12:19:23Z</time>
      </trkpt>
      <trkpt lat="42.253344962373376" lon="3.08549297042191">
        <ele>11.67</ele>
        <time>2025-05-15T12:19:24Z</time>
      </trkpt>
      <trkpt lat="42.253512013703585" lon="3.085646023973823">
        <ele>11.67</ele>
        <time>2025-05-15T12:19:25Z</time>
      </trkpt>
      <trkpt lat="42.253685016185045" lon="3.085803017020226">
        <ele>11.67</ele>
        <time>2025-05-15T12:19:26Z</time>
      </trkpt>
      <trkpt lat="42.255627019330859" lon="3.087173039093614">
        <ele>13.6</ele>
        <time>2025-05-15T12:19:36Z</time>
      </trkpt>
      <trkpt lat="42.257806984707713" lon="3.088659988716245">
        <ele>11.19</ele>
        <time>2025-05-15T12:19:47Z</time>
      </trkpt>
      <trkpt lat="42.259062007069588" lon="3.090107962489128">
        <ele>6.87</ele>
        <time>2025-05-15T12:19:55Z</time>
      </trkpt>
      <trkpt lat="42.259930958971381" lon="3.092026999220252">
        <ele>3.98</ele>
        <time>2025-05-15T12:20:03Z</time>
      </trkpt>
      <trkpt lat="42.260308982804418" lon="3.093498023226857">
        <ele>3.5</ele>
        <time>2025-05-15T12:20:10Z</time>
      </trkpt>
      <trkpt lat="42.260328009724617" lon="3.093616962432861">
        <ele>3.5</ele>
        <time>2025-05-15T12:20:11Z</time>
      </trkpt>
      <trkpt lat="42.260220972821116" lon="3.093793988227844">
        <ele>3.02</ele>
        <time>2025-05-15T12:20:12Z</time>
      </trkpt>
      <trkpt lat="42.260220972821116" lon="3.09393497183919">
        <ele>3.02</ele>
        <time>2025-05-15T12:20:13Z</time>
      </trkpt>
      <trkpt lat="42.260260032489896" lon="3.094101017341018">
        <ele>3.02</ele>
        <time>2025-05-15T12:20:14Z</time>
      </trkpt>
      <trkpt lat="42.260285010561347" lon="3.094175029546022">
        <ele>2.54</ele>
        <time>2025-05-15T12:20:15Z</time>
      </trkpt>
      <trkpt lat="42.260525990277529" lon="3.094265973195434">
        <ele>2.54</ele>
        <time>2025-05-15T12:20:16Z</time>
      </trkpt>
      <trkpt lat="42.260563960298896" lon="3.094453979283571">
        <ele>2.06</ele>
        <time>2025-05-15T12:20:17Z</time>
      </trkpt>
      <trkpt lat="42.260602014139295" lon="3.094594040885568">
        <ele>2.06</ele>
        <time>2025-05-15T12:20:18Z</time>
      </trkpt>
      <trkpt lat="42.261113980785012" lon="3.096523974090815">
        <ele>2.06</ele>
        <time>2025-05-15T12:20:27Z</time>
      </trkpt>
      <trkpt lat="42.261869022622705" lon="3.09941397048533">
        <ele>0.62</ele>
        <time>2025-05-15T12:20:38Z</time>
      </trkpt>
      <trkpt lat="42.262352993711829" lon="3.101351028308272">
        <ele>0.14</ele>
        <time>2025-05-15T12:20:46Z</time>
      </trkpt>
      <trkpt lat="42.262819027528167" lon="3.103251038119197">
        <ele>-0.34</ele>
        <time>2025-05-15T12:20:55Z</time>
      </trkpt>
      <trkpt lat="42.26284702308476" lon="3.103422028943896">
        <ele>-0.34</ele>
        <time>2025-05-15T12:20:56Z</time>
      </trkpt>
      <trkpt lat="42.26287099532783" lon="3.103573992848396">
        <ele>0.14</ele>
        <time>2025-05-15T12:20:57Z</time>
      </trkpt>
      <trkpt lat="42.262720037251711" lon="3.10386098921299">
        <ele>0.14</ele>
        <time>2025-05-15T12:20:59Z</time>
      </trkpt>
      <trkpt lat="42.262773010879755" lon="3.104036003351212">
        <ele>0.14</ele>
        <time>2025-05-15T12:21:00Z</time>
      </trkpt>
      <trkpt lat="42.262817015871406" lon="3.104087971150875">
        <ele>0.62</ele>
        <time>2025-05-15T12:21:01Z</time>
      </trkpt>
      <trkpt lat="42.262989012524486" lon="3.104131976142526">
        <ele>1.1</ele>
        <time>2025-05-15T12:21:02Z</time>
      </trkpt>
      <trkpt lat="42.263033017516136" lon="3.104262985289097">
        <ele>1.1</ele>
        <time>2025-05-15T12:21:03Z</time>
      </trkpt>
      <trkpt lat="42.26308599114418" lon="3.104416960850358">
        <ele>1.1</ele>
        <time>2025-05-15T12:21:04Z</time>
      </trkpt>
      <trkpt lat="42.263142988085747" lon="3.104579988867044">
        <ele>2.06</ele>
        <time>2025-05-15T12:21:05Z</time>
      </trkpt>
      <trkpt lat="42.263197973370552" lon="3.104759026318789">
        <ele>2.54</ele>
        <time>2025-05-15T12:21:06Z</time>
      </trkpt>
      <trkpt lat="42.263663001358509" lon="3.106558034196496">
        <ele>4.46</ele>
        <time>2025-05-15T12:21:14Z</time>
      </trkpt>
      <trkpt lat="42.264515021815896" lon="3.109709965065122">
        <ele>3.02</ele>
        <time>2025-05-15T12:21:26Z</time>
      </trkpt>
      <trkpt lat="42.264685006812215" lon="3.110547987744212">
        <ele>2.54</ele>
        <time>2025-05-15T12:21:30Z</time>
      </trkpt>
      <trkpt lat="42.26469699293375" lon="3.110715039074421">
        <ele>2.54</ele>
        <time>2025-05-15T12:21:31Z</time>
      </trkpt>
      <trkpt lat="42.264675032347441" lon="3.111045034602284">
        <ele>3.02</ele>
        <time>2025-05-15T12:21:33Z</time>
      </trkpt>
      <trkpt lat="42.264702022075653" lon="3.111194986850023">
        <ele>3.02</ele>
        <time>2025-05-15T12:21:34Z</time>
      </trkpt>
      <trkpt lat="42.264804029837251" lon="3.111335970461369">
        <ele>3.5</ele>
        <time>2025-05-15T12:21:35Z</time>
      </trkpt>
      <trkpt lat="42.264861026778817" lon="3.111501010134816">
        <ele>3.02</ele>
        <time>2025-05-15T12:21:36Z</time>
      </trkpt>
      <trkpt lat="42.264922969043255" lon="3.111680969595909">
        <ele>3.02</ele>
        <time>2025-05-15T12:21:37Z</time>
      </trkpt>
      <trkpt lat="42.265006033703685" lon="3.111920021474361">
        <ele>3.02</ele>
        <time>2025-05-15T12:21:38Z</time>
      </trkpt>
      <trkpt lat="42.265011984854937" lon="3.112091012299061">
        <ele>2.54</ele>
        <time>2025-05-15T12:21:39Z</time>
      </trkpt>
      <trkpt lat="42.265020031481981" lon="3.11232402920723">
        <ele>2.54</ele>
        <time>2025-05-15T12:21:40Z</time>
      </trkpt>
      <trkpt lat="42.265027994289994" lon="3.112567020580173">
        <ele>2.54</ele>
        <time>2025-05-15T12:21:41Z</time>
      </trkpt>
      <trkpt lat="42.265079040080309" lon="3.115593977272511">
        <ele>1.58</ele>
        <time>2025-05-15T12:21:52Z</time>
      </trkpt>
      <trkpt lat="42.265155985951424" lon="3.118886975571513">
        <ele>1.58</ele>
        <time>2025-05-15T12:22:03Z</time>
      </trkpt>
      <trkpt lat="42.265251036733389" lon="3.120557991787791">
        <ele>2.54</ele>
        <time>2025-05-15T12:22:09Z</time>
      </trkpt>
      <trkpt lat="42.265309961512685" lon="3.120817998424172">
        <ele>2.54</ele>
        <time>2025-05-15T12:22:10Z</time>
      </trkpt>
      <trkpt lat="42.26538497954607" lon="3.121081022545695">
        <ele>3.02</ele>
        <time>2025-05-15T12:22:11Z</time>
      </trkpt>
      <trkpt lat="42.265468966215849" lon="3.121342035010457">
        <ele>2.54</ele>
        <time>2025-05-15T12:22:12Z</time>
      </trkpt>
      <trkpt lat="42.265554964542389" lon="3.121602963656187">
        <ele>2.54</ele>
        <time>2025-05-15T12:22:13Z</time>
      </trkpt>
      <trkpt lat="42.266466999426484" lon="3.124238988384605">
        <ele>0.62</ele>
        <time>2025-05-15T12:22:24Z</time>
      </trkpt>
      <trkpt lat="42.267448017373681" lon="3.126766970381141">
        <ele>-0.34</ele>
        <time>2025-05-15T12:22:35Z</time>
      </trkpt>
      <trkpt lat="42.267562011256814" lon="3.126990012824535">
        <ele>0.14</ele>
        <time>2025-05-15T12:22:36Z</time>
      </trkpt>
      <trkpt lat="42.269497979432344" lon="3.129956033080816">
        <ele>0.62</ele>
        <time>2025-05-15T12:22:50Z</time>
      </trkpt>
      <trkpt lat="42.271372005343437" lon="3.132814010605216">
        <ele>3.98</ele>
        <time>2025-05-15T12:23:04Z</time>
      </trkpt>
      <trkpt lat="42.27217398583889" lon="3.134228959679604">
        <ele>2.54</ele>
        <time>2025-05-15T12:23:13Z</time>
      </trkpt>
      <trkpt lat="42.272209022194147" lon="3.134335996583104">
        <ele>2.06</ele>
        <time>2025-05-15T12:23:14Z</time>
      </trkpt>
      <trkpt lat="42.272234000265598" lon="3.134428029879928">
        <ele>1.58</ele>
        <time>2025-05-15T12:23:15Z</time>
      </trkpt>
      <trkpt lat="42.272254033014178" lon="3.134502964094281">
        <ele>1.58</ele>
        <time>2025-05-15T12:23:16Z</time>
      </trkpt>
      <trkpt lat="42.272235006093979" lon="3.134653000161052">
        <ele>1.58</ele>
        <time>2025-05-15T12:23:17Z</time>
      </trkpt>
      <trkpt lat="42.2721510194242" lon="3.134750984609127">
        <ele>1.1</ele>
        <time>2025-05-15T12:23:18Z</time>
      </trkpt>
      <trkpt lat="42.272150013595819" lon="3.134758025407791">
        <ele>1.1</ele>
        <time>2025-05-15T12:23:19Z</time>
      </trkpt>
      <trkpt lat="42.272141966968775" lon="3.134849974885583">
        <ele>1.1</ele>
        <time>2025-05-15T12:23:20Z</time>
      </trkpt>
      <trkpt lat="42.272129980847239" lon="3.134987019002438">
        <ele>1.1</ele>
        <time>2025-05-15T12:23:21Z</time>
      </trkpt>
      <trkpt lat="42.27217398583889" lon="3.1350770406425">
        <ele>0.62</ele>
        <time>2025-05-15T12:23:22Z</time>
      </trkpt>
      <trkpt lat="42.272203993052244" lon="3.135197991505265">
        <ele>0.62</ele>
        <time>2025-05-15T12:23:23Z</time>
      </trkpt>
      <trkpt lat="42.272220002487302" lon="3.135340986773372">
        <ele>0.14</ele>
        <time>2025-05-15T12:23:24Z</time>
      </trkpt>
      <trkpt lat="42.272238023579121" lon="3.135494040325284">
        <ele>0.14</ele>
        <time>2025-05-15T12:23:25Z</time>
      </trkpt>
      <trkpt lat="42.272256966680288" lon="3.135656984522939">
        <ele>0.14</ele>
        <time>2025-05-15T12:23:26Z</time>
      </trkpt>
      <trkpt lat="42.27228001691401" lon="3.135845996439457">
        <ele>0.14</ele>
        <time>2025-05-15T12:23:27Z</time>
      </trkpt>
      <trkpt lat="42.272249003872275" lon="3.136008018627763">
        <ele>-0.34</ele>
        <time>2025-05-15T12:23:28Z</time>
      </trkpt>
      <trkpt lat="42.272213967517018" lon="3.136193007230759">
        <ele>-0.34</ele>
        <time>2025-05-15T12:23:29Z</time>
      </trkpt>
      <trkpt lat="42.271941974759102" lon="3.138245986774564">
        <ele>-1.3</ele>
        <time>2025-05-15T12:23:39Z</time>
      </trkpt>
      <trkpt lat="42.271820018067956" lon="3.140711020678282">
        <ele>-2.75</ele>
        <time>2025-05-15T12:23:50Z</time>
      </trkpt>
      <trkpt lat="42.271707030013204" lon="3.143336987122893">
        <ele>-2.75</ele>
        <time>2025-05-15T12:24:01Z</time>
      </trkpt>
      <trkpt lat="42.271622037515044" lon="3.145032981410623">
        <ele>-1.3</ele>
        <time>2025-05-15T12:24:10Z</time>
      </trkpt>
      <trkpt lat="42.271538972854614" lon="3.147044973447919">
        <ele>-0.34</ele>
        <time>2025-05-15T12:24:20Z</time>
      </trkpt>
      <trkpt lat="42.271423973143101" lon="3.147488962858915">
        <ele>0.14</ele>
        <time>2025-05-15T12:24:23Z</time>
      </trkpt>
      <trkpt lat="42.271369993686676" lon="3.147588036954403">
        <ele>0.14</ele>
        <time>2025-05-15T12:24:24Z</time>
      </trkpt>
      <trkpt lat="42.271318025887012" lon="3.147680992260575">
        <ele>0.14</ele>
        <time>2025-05-15T12:24:25Z</time>
      </trkpt>
      <trkpt lat="42.27112096734345" lon="3.147925995290279">
        <ele>0.14</ele>
        <time>2025-05-15T12:24:28Z</time>
      </trkpt>
      <trkpt lat="42.27107796818018" lon="3.148011993616819">
        <ele>-0.34</ele>
        <time>2025-05-15T12:24:29Z</time>
      </trkpt>
      <trkpt lat="42.271018959581852" lon="3.148178961127996">
        <ele>-0.34</ele>
        <time>2025-05-15T12:24:30Z</time>
      </trkpt>
      <trkpt lat="42.271033963188529" lon="3.148284992203116">
        <ele>-0.34</ele>
        <time>2025-05-15T12:24:31Z</time>
      </trkpt>
      <trkpt lat="42.271049972623587" lon="3.148396974429488">
        <ele>-0.34</ele>
        <time>2025-05-15T12:24:32Z</time>
      </trkpt>
      <trkpt lat="42.271061036735773" lon="3.148504011332989">
        <ele>-0.34</ele>
        <time>2025-05-15T12:24:33Z</time>
      </trkpt>
      <trkpt lat="42.271067993715405" lon="3.148609036579728">
        <ele>-0.34</ele>
        <time>2025-05-15T12:24:34Z</time>
      </trkpt>
      <trkpt lat="42.271074028685689" lon="3.148701991885901">
        <ele>-0.82</ele>
        <time>2025-05-15T12:24:35Z</time>
      </trkpt>
      <trkpt lat="42.27107796818018" lon="3.148782039061189">
        <ele>-0.82</ele>
        <time>2025-05-15T12:24:36Z</time>
      </trkpt>
      <trkpt lat="42.27105500176549" lon="3.148859990760684">
        <ele>-0.82</ele>
        <time>2025-05-15T12:24:37Z</time>
      </trkpt>
      <trkpt lat="42.271004961803555" lon="3.148885974660516">
        <ele>-1.3</ele>
        <time>2025-05-15T12:24:38Z</time>
      </trkpt>
      <trkpt lat="42.27099196985364" lon="3.148892009630799">
        <ele>-1.3</ele>
        <time>2025-05-15T12:24:39Z</time>
      </trkpt>
      <trkpt lat="42.270914018154144" lon="3.148887986317277">
        <ele>-1.79</ele>
        <time>2025-05-15T12:24:40Z</time>
      </trkpt>
      <trkpt lat="42.270951988175511" lon="3.148995023220778">
        <ele>-1.79</ele>
        <time>2025-05-15T12:24:41Z</time>
      </trkpt>
      <trkpt lat="42.270938996225595" lon="3.149028969928622">
        <ele>-1.79</ele>
        <time>2025-05-15T12:24:42Z</time>
      </trkpt>
      <trkpt lat="42.270918963477015" lon="3.149078004062176">
        <ele>-3.71</ele>
        <time>2025-05-15T12:24:53Z</time>
      </trkpt>
      <trkpt lat="42.270650994032621" lon="3.149349996820092">
        <ele>-42.159999999999997</ele>
        <time>2025-05-15T12:28:09Z</time>
      </trkpt>
      <trkpt lat="42.270768005400896" lon="3.149166014045477">
        <ele>-14.76</ele>
        <time>2025-05-15T12:28:43Z</time>
      </trkpt>
      <trkpt lat="42.270756019279361" lon="3.149115974083543">
        <ele>-18.129999999999999</ele>
        <time>2025-05-15T12:29:28Z</time>
      </trkpt>
      <trkpt lat="42.270804969593883" lon="3.149256035685539">
        <ele>-3.71</ele>
        <time>2025-05-15T12:29:41Z</time>
      </trkpt>
      <trkpt lat="42.27081703953445" lon="3.149252012372017">
        <ele>-0.82</ele>
        <time>2025-05-15T12:29:47Z</time>
      </trkpt>
      <trkpt lat="42.270799018442631" lon="3.149385033175349">
        <ele>-0.82</ele>
        <time>2025-05-15T12:29:49Z</time>
      </trkpt>
      <trkpt lat="42.270799018442631" lon="3.149385033175349">
        <ele>-0.82</ele>
        <time>2025-05-15T12:29:50Z</time>
      </trkpt>
      <trkpt lat="42.270799018442631" lon="3.149405987933278">
        <ele>-0.34</ele>
        <time>2025-05-15T12:29:51Z</time>
      </trkpt>
      <trkpt lat="42.270799018442631" lon="3.149461979046464">
        <ele>-0.34</ele>
        <time>2025-05-15T12:29:52Z</time>
      </trkpt>
      <trkpt lat="42.270799018442631" lon="3.149515958502889">
        <ele>0.14</ele>
        <time>2025-05-15T12:29:53Z</time>
      </trkpt>
      <trkpt lat="42.270799018442631" lon="3.149564992636442">
        <ele>0.14</ele>
        <time>2025-05-15T12:29:54Z</time>
      </trkpt>
      <trkpt lat="42.270799018442631" lon="3.149600028991699">
        <ele>0.14</ele>
        <time>2025-05-15T12:29:55Z</time>
      </trkpt>
      <trkpt lat="42.27086397819221" lon="3.149729026481509">
        <ele>0.14</ele>
        <time>2025-05-15T12:29:56Z</time>
      </trkpt>
      <trkpt lat="42.270832965150476" lon="3.149826005101204">
        <ele>0.14</ele>
        <time>2025-05-15T12:29:57Z</time>
      </trkpt>
      <trkpt lat="42.27079801261425" lon="3.149939998984337">
        <ele>0.14</ele>
        <time>2025-05-15T12:29:58Z</time>
      </trkpt>
      <trkpt lat="42.270365003496408" lon="3.151443041861057">
        <ele>0.62</ele>
        <time>2025-05-15T12:30:08Z</time>
      </trkpt>
      <trkpt lat="42.269715992733836" lon="3.153740018606186">
        <ele>1.58</ele>
        <time>2025-05-15T12:30:19Z</time>
      </trkpt>
      <trkpt lat="42.26937803439796" lon="3.154984982684255">
        <ele>1.1</ele>
        <time>2025-05-15T12:30:27Z</time>
      </trkpt>
      <trkpt lat="42.269210983067751" lon="3.155093025416136">
        <ele>1.58</ele>
        <time>2025-05-15T12:30:32Z</time>
      </trkpt>
      <trkpt lat="42.26912297308445" lon="3.155163014307618">
        <ele>1.58</ele>
        <time>2025-05-15T12:30:34Z</time>
      </trkpt>
      <trkpt lat="42.269054995849729" lon="3.155276002362371">
        <ele>1.58</ele>
        <time>2025-05-15T12:30:35Z</time>
      </trkpt>
      <trkpt lat="42.269018031656742" lon="3.15542696043849">
        <ele>1.58</ele>
        <time>2025-05-15T12:30:36Z</time>
      </trkpt>
      <trkpt lat="42.269039992243052" lon="3.155586970970035">
        <ele>1.58</ele>
        <time>2025-05-15T12:30:37Z</time>
      </trkpt>
      <trkpt lat="42.269082991406322" lon="3.155672969296575">
        <ele>1.58</ele>
        <time>2025-05-15T12:30:38Z</time>
      </trkpt>
      <trkpt lat="42.269180975854397" lon="3.155730972066522">
        <ele>1.58</ele>
        <time>2025-05-15T12:30:39Z</time>
      </trkpt>
      <trkpt lat="42.269261023029685" lon="3.155720997601748">
        <ele>1.58</ele>
        <time>2025-05-15T12:30:40Z</time>
      </trkpt>
      <trkpt lat="42.2693379689008" lon="3.155703982338309">
        <ele>1.58</ele>
        <time>2025-05-15T12:30:41Z</time>
      </trkpt>
      <trkpt lat="42.269405024126172" lon="3.155659977346659">
        <ele>1.58</ele>
        <time>2025-05-15T12:30:42Z</time>
      </trkpt>
      <trkpt lat="42.269454980269074" lon="3.155579008162022">
        <ele>2.06</ele>
        <time>2025-05-15T12:30:43Z</time>
      </trkpt>
      <trkpt lat="42.269490016624331" lon="3.155479012057185">
        <ele>2.06</ele>
        <time>2025-05-15T12:30:44Z</time>
      </trkpt>
      <trkpt lat="42.269490016624331" lon="3.155394019559026">
        <ele>2.06</ele>
        <time>2025-05-15T12:30:45Z</time>
      </trkpt>
      <trkpt lat="42.269451962783933" lon="3.155239960178733">
        <ele>2.06</ele>
        <time>2025-05-15T12:30:46Z</time>
      </trkpt>
      <trkpt lat="42.269447017461061" lon="3.155222022905946">
        <ele>2.06</ele>
        <time>2025-05-15T12:30:47Z</time>
      </trkpt>
      <trkpt lat="42.269396977499127" lon="3.154920022934675">
        <ele>2.06</ele>
        <time>2025-05-15T12:30:48Z</time>
      </trkpt>
      <trkpt lat="42.269431008026004" lon="3.154806029051542">
        <ele>2.06</ele>
        <time>2025-05-15T12:30:49Z</time>
      </trkpt>
      <trkpt lat="42.269797967746854" lon="3.153439024463296">
        <ele>-0.34</ele>
        <time>2025-05-15T12:30:59Z</time>
      </trkpt>
      <trkpt lat="42.270312029868364" lon="3.151626018807292">
        <ele>-1.79</ele>
        <time>2025-05-15T12:31:09Z</time>
      </trkpt>
      <trkpt lat="42.270788038149476" lon="3.149972017854452">
        <ele>-1.79</ele>
        <time>2025-05-15T12:31:19Z</time>
      </trkpt>
      <trkpt lat="42.271186010912061" lon="3.148880023509264">
        <ele>-1.3</ele>
        <time>2025-05-15T12:31:26Z</time>
      </trkpt>
      <trkpt lat="42.271251976490021" lon="3.148793019354343">
        <ele>-1.3</ele>
        <time>2025-05-15T12:31:27Z</time>
      </trkpt>
      <trkpt lat="42.271320959553123" lon="3.148706015199423">
        <ele>-0.82</ele>
        <time>2025-05-15T12:31:28Z</time>
      </trkpt>
      <trkpt lat="42.27140000090003" lon="3.148624040186405">
        <ele>-0.82</ele>
        <time>2025-05-15T12:31:29Z</time>
      </trkpt>
      <trkpt lat="42.27150896564126" lon="3.148615993559361">
        <ele>-0.34</ele>
        <time>2025-05-15T12:31:30Z</time>
      </trkpt>
      <trkpt lat="42.27159102447331" lon="3.148662010207772">
        <ele>-0.82</ele>
        <time>2025-05-15T12:31:31Z</time>
      </trkpt>
      <trkpt lat="42.271663025021553" lon="3.148713978007436">
        <ele>-0.82</ele>
        <time>2025-05-15T12:31:32Z</time>
      </trkpt>
      <trkpt lat="42.271663025021553" lon="3.148713978007436">
        <ele>-0.82</ele>
        <time>2025-05-15T12:31:33Z</time>
      </trkpt>
      <trkpt lat="42.271734019741416" lon="3.148966021835804">
        <ele>-0.82</ele>
        <time>2025-05-15T12:31:34Z</time>
      </trkpt>
      <trkpt lat="42.271696971729398" lon="3.149089990183711">
        <ele>-0.82</ele>
        <time>2025-05-15T12:31:35Z</time>
      </trkpt>
      <trkpt lat="42.271655984222889" lon="3.149230973795056">
        <ele>-0.82</ele>
        <time>2025-05-15T12:31:36Z</time>
      </trkpt>
      <trkpt lat="42.27157199755311" lon="3.149532973766327">
        <ele>-0.34</ele>
        <time>2025-05-15T12:31:38Z</time>
      </trkpt>
      <trkpt lat="42.27157199755311" lon="3.14971100538969">
        <ele>-0.34</ele>
        <time>2025-05-15T12:31:39Z</time>
      </trkpt>
      <trkpt lat="42.27157199755311" lon="3.14988199621439">
        <ele>-0.34</ele>
        <time>2025-05-15T12:31:40Z</time>
      </trkpt>
      <trkpt lat="42.271605022251606" lon="3.150062039494515">
        <ele>0.14</ele>
        <time>2025-05-15T12:31:41Z</time>
      </trkpt>
      <trkpt lat="42.271665958687663" lon="3.150210985913873">
        <ele>0.14</ele>
        <time>2025-05-15T12:31:42Z</time>
      </trkpt>
      <trkpt lat="42.271749023348093" lon="3.150368984788656">
        <ele>0.14</ele>
        <time>2025-05-15T12:31:43Z</time>
      </trkpt>
      <trkpt lat="42.271836027503014" lon="3.150531006976962">
        <ele>0.14</ele>
        <time>2025-05-15T12:31:44Z</time>
      </trkpt>
      <trkpt lat="42.272898014634848" lon="3.152478039264679">
        <ele>1.58</ele>
        <time>2025-05-15T12:31:56Z</time>
      </trkpt>
      <trkpt lat="42.273679962381721" lon="3.153919978067279">
        <ele>4.94</ele>
        <time>2025-05-15T12:32:05Z</time>
      </trkpt>
      <trkpt lat="42.274740021675825" lon="3.155849995091558">
        <ele>7.83</ele>
        <time>2025-05-15T12:32:16Z</time>
      </trkpt>
      <trkpt lat="42.275605034083128" lon="3.157406011596322">
        <ele>9.27</ele>
        <time>2025-05-15T12:32:26Z</time>
      </trkpt>
      <trkpt lat="42.276243986561894" lon="3.15856103785336">
        <ele>10.710000000000001</ele>
        <time>2025-05-15T12:32:34Z</time>
      </trkpt>
      <trkpt lat="42.276308024302125" lon="3.158666985109448">
        <ele>10.710000000000001</ele>
        <time>2025-05-15T12:32:35Z</time>
      </trkpt>
      <trkpt lat="42.276292014867067" lon="3.158891033381224">
        <ele>10.710000000000001</ele>
        <time>2025-05-15T12:32:36Z</time>
      </trkpt>
      <trkpt lat="42.276279022917151" lon="3.159148022532463">
        <ele>11.19</ele>
        <time>2025-05-15T12:32:38Z</time>
      </trkpt>
      <trkpt lat="42.276321016252041" lon="3.159261010587215">
        <ele>11.19</ele>
        <time>2025-05-15T12:32:39Z</time>
      </trkpt>
      <trkpt lat="42.276397040113807" lon="3.159360000863671">
        <ele>11.67</ele>
        <time>2025-05-15T12:32:40Z</time>
      </trkpt>
      <trkpt lat="42.276501981541514" lon="3.15937701612711">
        <ele>12.15</ele>
        <time>2025-05-15T12:32:41Z</time>
      </trkpt>
      <trkpt lat="42.276654029265046" lon="3.159390008077025">
        <ele>12.15</ele>
        <time>2025-05-15T12:32:42Z</time>
      </trkpt>
      <trkpt lat="42.276731980964541" lon="3.159502996131778">
        <ele>12.630000000000001</ele>
        <time>2025-05-15T12:32:43Z</time>
      </trkpt>
      <trkpt lat="42.27681596763432" lon="3.159623024985194">
        <ele>12.630000000000001</ele>
        <time>2025-05-15T12:32:44Z</time>
      </trkpt>
      <trkpt lat="42.27690096013248" lon="3.159761996939778">
        <ele>13.119999999999999</ele>
        <time>2025-05-15T12:32:45Z</time>
      </trkpt>
      <trkpt lat="42.27773898281157" lon="3.161276020109654">
        <ele>15.52</ele>
        <time>2025-05-15T12:32:54Z</time>
      </trkpt>
      <trkpt lat="42.278702985495329" lon="3.163048038259149">
        <ele>18.399999999999999</ele>
        <time>2025-05-15T12:33:05Z</time>
      </trkpt>
      <trkpt lat="42.279707975685596" lon="3.164849979802966">
        <ele>22.73</ele>
        <time>2025-05-15T12:33:17Z</time>
      </trkpt>
      <trkpt lat="42.280956963077188" lon="3.167152991518378">
        <ele>24.649999999999999</ele>
        <time>2025-05-15T12:33:32Z</time>
      </trkpt>
      <trkpt lat="42.282319022342563" lon="3.16962799988687">
        <ele>28.02</ele>
        <time>2025-05-15T12:33:45Z</time>
      </trkpt>
      <trkpt lat="42.283806977793574" lon="3.172326972708106">
        <ele>32.82</ele>
        <time>2025-05-15T12:33:57Z</time>
      </trkpt>
      <trkpt lat="42.285165013745427" lon="3.174745989963412">
        <ele>34.740000000000002</ele>
        <time>2025-05-15T12:34:08Z</time>
      </trkpt>
      <trkpt lat="42.285948973149061" lon="3.176254983991385">
        <ele>35.710000000000001</ele>
        <time>2025-05-15T12:34:15Z</time>
      </trkpt>
      <trkpt lat="42.286069002002478" lon="3.176709031686187">
        <ele>36.670000000000002</ele>
        <time>2025-05-15T12:34:17Z</time>
      </trkpt>
      <trkpt lat="42.28611602447927" lon="3.176946993917227">
        <ele>37.630000000000003</ele>
        <time>2025-05-15T12:34:18Z</time>
      </trkpt>
      <trkpt lat="42.286433028057218" lon="3.178395973518491">
        <ele>43.399999999999999</ele>
        <time>2025-05-15T12:34:24Z</time>
      </trkpt>
      <trkpt lat="42.286515003070235" lon="3.178623961284757">
        <ele>43.880000000000003</ele>
        <time>2025-05-15T12:34:25Z</time>
      </trkpt>
      <trkpt lat="42.286621034145355" lon="3.17882495932281">
        <ele>44.840000000000003</ele>
        <time>2025-05-15T12:34:26Z</time>
      </trkpt>
      <trkpt lat="42.286749025806785" lon="3.179017994552851">
        <ele>45.32</ele>
        <time>2025-05-15T12:34:27Z</time>
      </trkpt>
      <trkpt lat="42.286878023296595" lon="3.179211029782891">
        <ele>46.280000000000001</ele>
        <time>2025-05-15T12:34:28Z</time>
      </trkpt>
      <trkpt lat="42.287009032443166" lon="3.179404987022281">
        <ele>46.759999999999998</ele>
        <time>2025-05-15T12:34:29Z</time>
      </trkpt>
      <trkpt lat="42.288144025951624" lon="3.180938959121704">
        <ele>53.490000000000002</ele>
        <time>2025-05-15T12:34:38Z</time>
      </trkpt>
      <trkpt lat="42.288785995915532" lon="3.181791985407472">
        <ele>57.82</ele>
        <time>2025-05-15T12:34:43Z</time>
      </trkpt>
      <trkpt lat="42.288941983133554" lon="3.181919977068901">
        <ele>58.780000000000001</ele>
        <time>2025-05-15T12:34:44Z</time>
      </trkpt>
      <trkpt lat="42.289359988644719" lon="3.18221602588892">
        <ele>62.140000000000001</ele>
        <time>2025-05-15T12:34:47Z</time>
      </trkpt>
      <trkpt lat="42.28938496671617" lon="3.182351980358362">
        <ele>63.100000000000001</ele>
        <time>2025-05-15T12:34:48Z</time>
      </trkpt>
      <trkpt lat="42.289402987807989" lon="3.182451976463199">
        <ele>63.579999999999998</ele>
        <time>2025-05-15T12:34:49Z</time>
      </trkpt>
      <trkpt lat="42.289378009736538" lon="3.182575022801757">
        <ele>64.549999999999997</ele>
        <time>2025-05-15T12:34:50Z</time>
      </trkpt>
      <trkpt lat="42.289348002523184" lon="3.182725980877876">
        <ele>65.510000000000005</ele>
        <time>2025-05-15T12:34:51Z</time>
      </trkpt>
      <trkpt lat="42.289316989481449" lon="3.182881968095899">
        <ele>66.469999999999999</ele>
        <time>2025-05-15T12:34:52Z</time>
      </trkpt>
      <trkpt lat="42.289321012794971" lon="3.183044996112585">
        <ele>67.430000000000007</ele>
        <time>2025-05-15T12:34:53Z</time>
      </trkpt>
      <trkpt lat="42.289369963109493" lon="3.183154966682196">
        <ele>68.390000000000001</ele>
        <time>2025-05-15T12:34:54Z</time>
      </trkpt>
      <trkpt lat="42.289442969486117" lon="3.183219004422426">
        <ele>69.349999999999994</ele>
        <time>2025-05-15T12:34:55Z</time>
      </trkpt>
      <trkpt lat="42.28955302387476" lon="3.183288993313909">
        <ele>70.790000000000006</ele>
        <time>2025-05-15T12:34:56Z</time>
      </trkpt>
      <trkpt lat="42.289641033858061" lon="3.183298967778683">
        <ele>71.760000000000005</ele>
        <time>2025-05-15T12:34:57Z</time>
      </trkpt>
      <trkpt lat="42.289767013862729" lon="3.18331397138536">
        <ele>72.719999999999999</ele>
        <time>2025-05-15T12:34:58Z</time>
      </trkpt>
      <trkpt lat="42.29065197519958" lon="3.183475993573666">
        <ele>78</ele>
        <time>2025-05-15T12:35:04Z</time>
      </trkpt>
      <trkpt lat="42.290740991011262" lon="3.183557968586683">
        <ele>78.480000000000004</ele>
        <time>2025-05-15T12:35:05Z</time>
      </trkpt>
      <trkpt lat="42.290819026529789" lon="3.183674979954958">
        <ele>78.969999999999999</ele>
        <time>2025-05-15T12:35:06Z</time>
      </trkpt>
      <trkpt lat="42.290875017642975" lon="3.183838007971644">
        <ele>79.930000000000007</ele>
        <time>2025-05-15T12:35:07Z</time>
      </trkpt>
      <trkpt lat="42.290936959907413" lon="3.184017967432737">
        <ele>80.409999999999997</ele>
        <time>2025-05-15T12:35:08Z</time>
      </trkpt>
      <trkpt lat="42.291141981258988" lon="3.184529012069106">
        <ele>82.810000000000002</ele>
        <time>2025-05-15T12:35:11Z</time>
      </trkpt>
      <trkpt lat="42.291216999292374" lon="3.184647029265761">
        <ele>83.290000000000006</ele>
        <time>2025-05-15T12:35:12Z</time>
      </trkpt>
      <trkpt lat="42.291325964033604" lon="3.184698997065425">
        <ele>84.25</ele>
        <time>2025-05-15T12:35:13Z</time>
      </trkpt>
      <trkpt lat="42.291441969573498" lon="3.184720035642386">
        <ele>85.209999999999994</ele>
        <time>2025-05-15T12:35:14Z</time>
      </trkpt>
      <trkpt lat="42.29157398454845" lon="3.184698997065425">
        <ele>86.180000000000007</ele>
        <time>2025-05-15T12:35:15Z</time>
      </trkpt>
      <trkpt lat="42.291719997301698" lon="3.184677036479116">
        <ele>86.659999999999997</ele>
        <time>2025-05-15T12:35:16Z</time>
      </trkpt>
      <trkpt lat="42.291871961206198" lon="3.184652980417013">
        <ele>87.140000000000001</ele>
        <time>2025-05-15T12:35:17Z</time>
      </trkpt>
      <trkpt lat="42.292011016979814" lon="3.18466798402369">
        <ele>87.620000000000005</ele>
        <time>2025-05-15T12:35:18Z</time>
      </trkpt>
      <trkpt lat="42.292113024741411" lon="3.184739984571934">
        <ele>87.620000000000005</ele>
        <time>2025-05-15T12:35:19Z</time>
      </trkpt>
      <trkpt lat="42.292201034724712" lon="3.184854984283447">
        <ele>88.099999999999994</ele>
        <time>2025-05-15T12:35:20Z</time>
      </trkpt>
      <trkpt lat="42.292302036657929" lon="3.184984987601638">
        <ele>88.579999999999998</ele>
        <time>2025-05-15T12:35:21Z</time>
      </trkpt>
      <trkpt lat="42.292430028319359" lon="3.185082972049713">
        <ele>89.060000000000002</ele>
        <time>2025-05-15T12:35:22Z</time>
      </trkpt>
      <trkpt lat="42.293024975806475" lon="3.185538025572896">
        <ele>91.939999999999998</ele>
        <time>2025-05-15T12:35:26Z</time>
      </trkpt>
      <trkpt lat="42.293196972459555" lon="3.185571972280741">
        <ele>92.900000000000006</ele>
        <time>2025-05-15T12:35:27Z</time>
      </trkpt>
      <trkpt lat="42.293358994647861" lon="3.185599967837334">
        <ele>93.870000000000005</ele>
        <time>2025-05-15T12:35:28Z</time>
      </trkpt>
      <trkpt lat="42.293621012941003" lon="3.185646990314126">
        <ele>95.310000000000002</ele>
        <time>2025-05-15T12:35:30Z</time>
      </trkpt>
      <trkpt lat="42.293666023761034" lon="3.185726031661034">
        <ele>95.790000000000006</ele>
        <time>2025-05-15T12:35:31Z</time>
      </trkpt>
      <trkpt lat="42.2937230207026" lon="3.185850000008941">
        <ele>96.269999999999996</ele>
        <time>2025-05-15T12:35:32Z</time>
      </trkpt>
      <trkpt lat="42.293783035129309" lon="3.185978997498751">
        <ele>96.75</ele>
        <time>2025-05-15T12:35:33Z</time>
      </trkpt>
      <trkpt lat="42.293842965736985" lon="3.186110006645322">
        <ele>97.230000000000004</ele>
        <time>2025-05-15T12:35:34Z</time>
      </trkpt>
      <trkpt lat="42.293932987377048" lon="3.186228023841977">
        <ele>97.709999999999994</ele>
        <time>2025-05-15T12:35:35Z</time>
      </trkpt>
      <trkpt lat="42.294053016230464" lon="3.186286026611924">
        <ele>98.670000000000002</ele>
        <time>2025-05-15T12:35:36Z</time>
      </trkpt>
      <trkpt lat="42.294189976528287" lon="3.186350986361504">
        <ele>99.150000000000006</ele>
        <time>2025-05-15T12:35:37Z</time>
      </trkpt>
      <trkpt lat="42.294328026473522" lon="3.186417035758495">
        <ele>99.629999999999995</ele>
        <time>2025-05-15T12:35:38Z</time>
      </trkpt>
      <trkpt lat="42.294442020356655" lon="3.186504039913416">
        <ele>100.11</ele>
        <time>2025-05-15T12:35:39Z</time>
      </trkpt>
      <trkpt lat="42.29451896622777" lon="3.186633037403226">
        <ele>100.59999999999999</ele>
        <time>2025-05-15T12:35:40Z</time>
      </trkpt>
      <trkpt lat="42.294585015624762" lon="3.186806039884687">
        <ele>101.56</ele>
        <time>2025-05-15T12:35:41Z</time>
      </trkpt>
      <trkpt lat="42.294656010344625" lon="3.186996979638934">
        <ele>103</ele>
        <time>2025-05-15T12:35:42Z</time>
      </trkpt>
      <trkpt lat="42.294730022549629" lon="3.187195966020227">
        <ele>103.95999999999999</ele>
        <time>2025-05-15T12:35:43Z</time>
      </trkpt>
      <trkpt lat="42.294848039746284" lon="3.187376009300351">
        <ele>104.92</ele>
        <time>2025-05-15T12:35:44Z</time>
      </trkpt>
      <trkpt lat="42.294977037236094" lon="3.187552029266954">
        <ele>105.88</ele>
        <time>2025-05-15T12:35:45Z</time>
      </trkpt>
      <trkpt lat="42.295353971421719" lon="3.188003981485963">
        <ele>109.25</ele>
        <time>2025-05-15T12:35:48Z</time>
      </trkpt>
      <trkpt lat="42.295480035245419" lon="3.188110012561083">
        <ele>110.20999999999999</ele>
        <time>2025-05-15T12:35:49Z</time>
      </trkpt>
      <trkpt lat="42.295749010518193" lon="3.188262982293963">
        <ele>112.13</ele>
        <time>2025-05-15T12:35:51Z</time>
      </trkpt>
      <trkpt lat="42.295827968046069" lon="3.188384016975761">
        <ele>113.09</ele>
        <time>2025-05-15T12:35:52Z</time>
      </trkpt>
      <trkpt lat="42.295861998572946" lon="3.188509996980429">
        <ele>114.05</ele>
        <time>2025-05-15T12:35:53Z</time>
      </trkpt>
      <trkpt lat="42.29585001245141" lon="3.188633965328336">
        <ele>115.01000000000001</ele>
        <time>2025-05-15T12:35:54Z</time>
      </trkpt>
      <trkpt lat="42.295784968882799" lon="3.188747959211469">
        <ele>115.98</ele>
        <time>2025-05-15T12:35:55Z</time>
      </trkpt>
      <trkpt lat="42.295682961121202" lon="3.188821971416473">
        <ele>116.94</ele>
        <time>2025-05-15T12:35:56Z</time>
      </trkpt>
      <trkpt lat="42.295565027743578" lon="3.188907969743013">
        <ele>117.90000000000001</ele>
        <time>2025-05-15T12:35:57Z</time>
      </trkpt>
      <trkpt lat="42.295324970036745" lon="3.189081978052855">
        <ele>120.3</ele>
        <time>2025-05-15T12:35:59Z</time>
      </trkpt>
      <trkpt lat="42.295214999467134" lon="3.189230002462864">
        <ele>121.26000000000001</ele>
        <time>2025-05-15T12:36:00Z</time>
      </trkpt>
      <trkpt lat="42.295170994475484" lon="3.18937199190259">
        <ele>122.22</ele>
        <time>2025-05-15T12:36:01Z</time>
      </trkpt>
      <trkpt lat="42.295139981433749" lon="3.189516998827457">
        <ele>122.70999999999999</ele>
        <time>2025-05-15T12:36:02Z</time>
      </trkpt>
      <trkpt lat="42.295139981433749" lon="3.189662005752325">
        <ele>123.19</ele>
        <time>2025-05-15T12:36:03Z</time>
      </trkpt>
      <trkpt lat="42.295153979212046" lon="3.189832996577025">
        <ele>124.15000000000001</ele>
        <time>2025-05-15T12:36:04Z</time>
      </trkpt>
      <trkpt lat="42.29520401917398" lon="3.190030977129936">
        <ele>125.11</ele>
        <time>2025-05-15T12:36:05Z</time>
      </trkpt>
      <trkpt lat="42.29531298391521" lon="3.190456023439765">
        <ele>126.55</ele>
        <time>2025-05-15T12:36:07Z</time>
      </trkpt>
      <trkpt lat="42.295367969200015" lon="3.190670013427734">
        <ele>127.51000000000001</ele>
        <time>2025-05-15T12:36:08Z</time>
      </trkpt>
      <trkpt lat="42.295483974739909" lon="3.190827006474137">
        <ele>128.47</ele>
        <time>2025-05-15T12:36:09Z</time>
      </trkpt>
      <trkpt lat="42.295605009421706" lon="3.190991962328553">
        <ele>129.43000000000001</ele>
        <time>2025-05-15T12:36:10Z</time>
      </trkpt>
      <trkpt lat="42.295723026618361" lon="3.191152978688479">
        <ele>130.40000000000001</ele>
        <time>2025-05-15T12:36:11Z</time>
      </trkpt>
      <trkpt lat="42.295836014673114" lon="3.191306032240391">
        <ele>131.36000000000001</ele>
        <time>2025-05-15T12:36:12Z</time>
      </trkpt>
      <trkpt lat="42.296286039054394" lon="3.191985972225666">
        <ele>137.13</ele>
        <time>2025-05-15T12:36:18Z</time>
      </trkpt>
      <trkpt lat="42.296532969921827" lon="3.192370031028986">
        <ele>140.00999999999999</ele>
        <time>2025-05-15T12:36:22Z</time>
      </trkpt>
      <trkpt lat="42.296577980741858" lon="3.192449994385243">
        <ele>140.97</ele>
        <time>2025-05-15T12:36:23Z</time>
      </trkpt>
      <trkpt lat="42.296590972691774" lon="3.192555019631982">
        <ele>141.93000000000001</ele>
        <time>2025-05-15T12:36:24Z</time>
      </trkpt>
      <trkpt lat="42.296590972691774" lon="3.192644035443664">
        <ele>142.88999999999999</ele>
        <time>2025-05-15T12:36:25Z</time>
      </trkpt>
      <trkpt lat="42.296529030427337" lon="3.192727016285062">
        <ele>143.37</ele>
        <time>2025-05-15T12:36:26Z</time>
      </trkpt>
      <trkpt lat="42.296455018222332" lon="3.1927440315485">
        <ele>143.37</ele>
        <time>2025-05-15T12:36:27Z</time>
      </trkpt>
      <trkpt lat="42.29636499658227" lon="3.192736990749836">
        <ele>143.84999999999999</ele>
        <time>2025-05-15T12:36:28Z</time>
      </trkpt>
      <trkpt lat="42.296265000477433" lon="3.192708995193243">
        <ele>143.84999999999999</ele>
        <time>2025-05-15T12:36:29Z</time>
      </trkpt>
      <trkpt lat="42.296160981059074" lon="3.19268099963665">
        <ele>144.34</ele>
        <time>2025-05-15T12:36:30Z</time>
      </trkpt>
      <trkpt lat="42.296054027974606" lon="3.192651998251677">
        <ele>144.81999999999999</ele>
        <time>2025-05-15T12:36:31Z</time>
      </trkpt>
      <trkpt lat="42.295941961929202" lon="3.192622996866703">
        <ele>145.78</ele>
        <time>2025-05-15T12:36:32Z</time>
      </trkpt>
      <trkpt lat="42.295342991128564" lon="3.192622996866703">
        <ele>149.13999999999999</ele>
        <time>2025-05-15T12:36:37Z</time>
      </trkpt>
      <trkpt lat="42.294316962361336" lon="3.192902030423284">
        <ele>155.38999999999999</ele>
        <time>2025-05-15T12:36:43Z</time>
      </trkpt>
      <trkpt lat="42.29417597874999" lon="3.192972019314766">
        <ele>156.34999999999999</ele>
        <time>2025-05-15T12:36:44Z</time>
      </trkpt>
      <trkpt lat="42.294070031493902" lon="3.193062962964177">
        <ele>157.31</ele>
        <time>2025-05-15T12:36:45Z</time>
      </trkpt>
      <trkpt lat="42.293979004025459" lon="3.19315399043262">
        <ele>158.75</ele>
        <time>2025-05-15T12:36:46Z</time>
      </trkpt>
      <trkpt lat="42.29393801651895" lon="3.193292962387204">
        <ele>159.72</ele>
        <time>2025-05-15T12:36:47Z</time>
      </trkpt>
      <trkpt lat="42.293897029012442" lon="3.193451967090368">
        <ele>160.68000000000001</ele>
        <time>2025-05-15T12:36:48Z</time>
      </trkpt>
      <trkpt lat="42.293854029849172" lon="3.193617006763816">
        <ele>162.12</ele>
        <time>2025-05-15T12:36:49Z</time>
      </trkpt>
      <trkpt lat="42.293859981000423" lon="3.193781962618232">
        <ele>163.08000000000001</ele>
        <time>2025-05-15T12:36:50Z</time>
      </trkpt>
      <trkpt lat="42.293882025405765" lon="3.193963011726737">
        <ele>164.52000000000001</ele>
        <time>2025-05-15T12:36:51Z</time>
      </trkpt>
      <trkpt lat="42.293902980163693" lon="3.194138025864959">
        <ele>165.47999999999999</ele>
        <time>2025-05-15T12:36:52Z</time>
      </trkpt>
      <trkpt lat="42.293945979326963" lon="3.194272974506021">
        <ele>166.93000000000001</ele>
        <time>2025-05-15T12:36:53Z</time>
      </trkpt>
      <trkpt lat="42.29400398209691" lon="3.194401971995831">
        <ele>167.88999999999999</ele>
        <time>2025-05-15T12:36:54Z</time>
      </trkpt>
      <trkpt lat="42.294059973210096" lon="3.194529041647911">
        <ele>168.84999999999999</ele>
        <time>2025-05-15T12:36:55Z</time>
      </trkpt>
      <trkpt lat="42.294130967929959" lon="3.194643035531044">
        <ele>170.28999999999999</ele>
        <time>2025-05-15T12:36:56Z</time>
      </trkpt>
      <trkpt lat="42.294921968132257" lon="3.195648025721312">
        <ele>177.97999999999999</ele>
        <time>2025-05-15T12:37:05Z</time>
      </trkpt>
      <trkpt lat="42.295030010864139" lon="3.195714997127652">
        <ele>178.94</ele>
        <time>2025-05-15T12:37:06Z</time>
      </trkpt>
      <trkpt lat="42.295861998572946" lon="3.19622796960175">
        <ele>186.15000000000001</ele>
        <time>2025-05-15T12:37:14Z</time>
      </trkpt>
      <trkpt lat="42.295931987464428" lon="3.19635302759707">
        <ele>186.63</ele>
        <time>2025-05-15T12:37:15Z</time>
      </trkpt>
      <trkpt lat="42.295980015769601" lon="3.196456041187048">
        <ele>187.11000000000001</ele>
        <time>2025-05-15T12:37:16Z</time>
      </trkpt>
      <trkpt lat="42.296013962477446" lon="3.19656802341342">
        <ele>188.08000000000001</ele>
        <time>2025-05-15T12:37:17Z</time>
      </trkpt>
      <trkpt lat="42.296048998832703" lon="3.196680005639792">
        <ele>189.03999999999999</ele>
        <time>2025-05-15T12:37:18Z</time>
      </trkpt>
      <trkpt lat="42.296122005209327" lon="3.196916962042451">
        <ele>190.47999999999999</ele>
        <time>2025-05-15T12:37:20Z</time>
      </trkpt>
      <trkpt lat="42.29617397300899" lon="3.197031039744616">
        <ele>191.44</ele>
        <time>2025-05-15T12:37:21Z</time>
      </trkpt>
      <trkpt lat="42.296234993264079" lon="3.19712701253593">
        <ele>191.91999999999999</ele>
        <time>2025-05-15T12:37:22Z</time>
      </trkpt>
      <trkpt lat="42.296289978548884" lon="3.197216028347611">
        <ele>192.88</ele>
        <time>2025-05-15T12:37:23Z</time>
      </trkpt>
      <trkpt lat="42.296344041824341" lon="3.19730001501739">
        <ele>193.36000000000001</ele>
        <time>2025-05-15T12:37:24Z</time>
      </trkpt>
      <trkpt lat="42.296398021280766" lon="3.197387019172311">
        <ele>194.31999999999999</ele>
        <time>2025-05-15T12:37:25Z</time>
      </trkpt>
      <trkpt lat="42.296398021280766" lon="3.197492966428399">
        <ele>195.28</ele>
        <time>2025-05-15T12:37:26Z</time>
      </trkpt>
      <trkpt lat="42.296383017674088" lon="3.197612995281816">
        <ele>196.25</ele>
        <time>2025-05-15T12:37:27Z</time>
      </trkpt>
      <trkpt lat="42.296337001025677" lon="3.197712991386652">
        <ele>197.21000000000001</ele>
        <time>2025-05-15T12:37:28Z</time>
      </trkpt>
      <trkpt lat="42.296286039054394" lon="3.197822039946914">
        <ele>198.16999999999999</ele>
        <time>2025-05-15T12:37:29Z</time>
      </trkpt>
      <trkpt lat="42.296205991879106" lon="3.197918012738228">
        <ele>198.65000000000001</ele>
        <time>2025-05-15T12:37:30Z</time>
      </trkpt>
      <trkpt lat="42.296119993552566" lon="3.197999987751246">
        <ele>199.13</ele>
        <time>2025-05-15T12:37:31Z</time>
      </trkpt>
      <trkpt lat="42.296031983569264" lon="3.198083974421024">
        <ele>199.61000000000001</ele>
        <time>2025-05-15T12:37:32Z</time>
      </trkpt>
      <trkpt lat="42.295941039919853" lon="3.198170978575945">
        <ele>200.09</ele>
        <time>2025-05-15T12:37:33Z</time>
      </trkpt>
      <trkpt lat="42.295840037986636" lon="3.19826602935791">
        <ele>200.56999999999999</ele>
        <time>2025-05-15T12:37:34Z</time>
      </trkpt>
      <trkpt lat="42.295772982761264" lon="3.198371976613998">
        <ele>201.05000000000001</ele>
        <time>2025-05-15T12:37:35Z</time>
      </trkpt>
      <trkpt lat="42.295696036890149" lon="3.198492005467415">
        <ele>202.00999999999999</ele>
        <time>2025-05-15T12:37:36Z</time>
      </trkpt>
      <trkpt lat="42.295620013028383" lon="3.198612034320831">
        <ele>202.49000000000001</ele>
        <time>2025-05-15T12:37:37Z</time>
      </trkpt>
      <trkpt lat="42.295539965853095" lon="3.1987380143255">
        <ele>202.49000000000001</ele>
        <time>2025-05-15T12:37:38Z</time>
      </trkpt>
      <trkpt lat="42.295431001111865" lon="3.198809009045363">
        <ele>202.97999999999999</ele>
        <time>2025-05-15T12:37:39Z</time>
      </trkpt>
      <trkpt lat="42.294918028637767" lon="3.199145961552858">
        <ele>206.81999999999999</ele>
        <time>2025-05-15T12:37:45Z</time>
      </trkpt>
      <trkpt lat="42.294871006160975" lon="3.199226008728147">
        <ele>207.30000000000001</ele>
        <time>2025-05-15T12:37:46Z</time>
      </trkpt>
      <trkpt lat="42.294835969805717" lon="3.199288034811616">
        <ele>207.78</ele>
        <time>2025-05-15T12:37:47Z</time>
      </trkpt>
      <trkpt lat="42.294837981462479" lon="3.199344025924802">
        <ele>208.25999999999999</ele>
        <time>2025-05-15T12:37:48Z</time>
      </trkpt>
      <trkpt lat="42.294847033917904" lon="3.199418960139155">
        <ele>208.74000000000001</ele>
        <time>2025-05-15T12:37:49Z</time>
      </trkpt>
      <trkpt lat="42.294875029474497" lon="3.199477968737483">
        <ele>208.74000000000001</ele>
        <time>2025-05-15T12:37:50Z</time>
      </trkpt>
      <trkpt lat="42.294955998659134" lon="3.199518034234643">
        <ele>209.22</ele>
        <time>2025-05-15T12:37:51Z</time>
      </trkpt>
      <trkpt lat="42.295073010027409" lon="3.199574025347829">
        <ele>209.69999999999999</ele>
        <time>2025-05-15T12:37:52Z</time>
      </trkpt>
      <trkpt lat="42.295213993638754" lon="3.199643008410931">
        <ele>210.19</ele>
        <time>2025-05-15T12:37:53Z</time>
      </trkpt>
      <trkpt lat="42.295379033312201" lon="3.199722971767187">
        <ele>210.19</ele>
        <time>2025-05-15T12:37:54Z</time>
      </trkpt>
      <trkpt lat="42.295556981116533" lon="3.199808970093727">
        <ele>210.66999999999999</ele>
        <time>2025-05-15T12:37:55Z</time>
      </trkpt>
      <trkpt lat="42.296273969113827" lon="3.200156986713409">
        <ele>212.59</ele>
        <time>2025-05-15T12:37:59Z</time>
      </trkpt>
      <trkpt lat="42.296410007402301" lon="3.200294030830264">
        <ele>213.06999999999999</ele>
        <time>2025-05-15T12:38:00Z</time>
      </trkpt>
      <trkpt lat="42.296540010720491" lon="3.200452029705048">
        <ele>214.03</ele>
        <time>2025-05-15T12:38:01Z</time>
      </trkpt>
      <trkpt lat="42.296664984896779" lon="3.200617991387844">
        <ele>214.50999999999999</ele>
        <time>2025-05-15T12:38:02Z</time>
      </trkpt>
      <trkpt lat="42.296780990436673" lon="3.200787976384163">
        <ele>214.99000000000001</ele>
        <time>2025-05-15T12:38:03Z</time>
      </trkpt>
      <trkpt lat="42.296888027340174" lon="3.200945975258946">
        <ele>215.94999999999999</ele>
        <time>2025-05-15T12:38:04Z</time>
      </trkpt>
      <trkpt lat="42.296985005959868" lon="3.201088970527053">
        <ele>216.91</ele>
        <time>2025-05-15T12:38:05Z</time>
      </trkpt>
      <trkpt lat="42.297048037871718" lon="3.201233977451921">
        <ele>218.36000000000001</ele>
        <time>2025-05-15T12:38:06Z</time>
      </trkpt>
      <trkpt lat="42.297082990407944" lon="3.201369009912014">
        <ele>218.84</ele>
        <time>2025-05-15T12:38:07Z</time>
      </trkpt>
      <trkpt lat="42.297063041478395" lon="3.201528014615178">
        <ele>219.80000000000001</ele>
        <time>2025-05-15T12:38:08Z</time>
      </trkpt>
      <trkpt lat="42.296978970989585" lon="3.201644020155072">
        <ele>220.75999999999999</ele>
        <time>2025-05-15T12:38:09Z</time>
      </trkpt>
      <trkpt lat="42.296869000419974" lon="3.201778968796134">
        <ele>221.72</ele>
        <time>2025-05-15T12:38:10Z</time>
      </trkpt>
      <trkpt lat="42.296718964353204" lon="3.201880976557732">
        <ele>222.68000000000001</ele>
        <time>2025-05-15T12:38:11Z</time>
      </trkpt>
      <trkpt lat="42.296562977135181" lon="3.201986001804471">
        <ele>223.63999999999999</ele>
        <time>2025-05-15T12:38:12Z</time>
      </trkpt>
      <trkpt lat="42.296412019059062" lon="3.202089015394449">
        <ele>224.61000000000001</ele>
        <time>2025-05-15T12:38:13Z</time>
      </trkpt>
      <trkpt lat="42.296290984377265" lon="3.202170990407467">
        <ele>226.05000000000001</ele>
        <time>2025-05-15T12:38:14Z</time>
      </trkpt>
      <trkpt lat="42.296185959130526" lon="3.20232898928225">
        <ele>227.00999999999999</ele>
        <time>2025-05-15T12:38:15Z</time>
      </trkpt>
      <trkpt lat="42.296112030744553" lon="3.202473996207118">
        <ele>228.44999999999999</ele>
        <time>2025-05-15T12:38:16Z</time>
      </trkpt>
      <trkpt lat="42.296080011874437" lon="3.202679017558694">
        <ele>229.88999999999999</ele>
        <time>2025-05-15T12:38:17Z</time>
      </trkpt>
      <trkpt lat="42.2960439696908" lon="3.202910022810102">
        <ele>231.81</ele>
        <time>2025-05-15T12:38:18Z</time>
      </trkpt>
      <trkpt lat="42.29600197635591" lon="3.203147985041142">
        <ele>232.78</ele>
        <time>2025-05-15T12:38:19Z</time>
      </trkpt>
      <trkpt lat="42.29593500494957" lon="3.203364992514253">
        <ele>234.69999999999999</ele>
        <time>2025-05-15T12:38:20Z</time>
      </trkpt>
      <trkpt lat="42.295878008008003" lon="3.20355199277401">
        <ele>236.13999999999999</ele>
        <time>2025-05-15T12:38:21Z</time>
      </trkpt>
      <trkpt lat="42.295840037986636" lon="3.203673027455807">
        <ele>237.09999999999999</ele>
        <time>2025-05-15T12:38:22Z</time>
      </trkpt>
      <trkpt lat="42.2958729788661" lon="3.203861033543944">
        <ele>237.58000000000001</ele>
        <time>2025-05-15T12:38:23Z</time>
      </trkpt>
      <trkpt lat="42.295906003564596" lon="3.204049039632082">
        <ele>238.53999999999999</ele>
        <time>2025-05-15T12:38:24Z</time>
      </trkpt>
      <trkpt lat="42.296013962477446" lon="3.204692015424371">
        <ele>241.91</ele>
        <time>2025-05-15T12:38:27Z</time>
      </trkpt>
      <trkpt lat="42.296025026589632" lon="3.204897036775947">
        <ele>242.87</ele>
        <time>2025-05-15T12:38:28Z</time>
      </trkpt>
      <trkpt lat="42.296032989397645" lon="3.205046989023686">
        <ele>243.83000000000001</ele>
        <time>2025-05-15T12:38:29Z</time>
      </trkpt>
      <trkpt lat="42.295999964699149" lon="3.205214040353894">
        <ele>244.31</ele>
        <time>2025-05-15T12:38:30Z</time>
      </trkpt>
      <trkpt lat="42.295943973585963" lon="3.205290986225009">
        <ele>244.78999999999999</ele>
        <time>2025-05-15T12:38:31Z</time>
      </trkpt>
      <trkpt lat="42.295854035764933" lon="3.205347983166575">
        <ele>245.75</ele>
        <time>2025-05-15T12:38:32Z</time>
      </trkpt>
      <trkpt lat="42.295754039660096" lon="3.205411015078425">
        <ele>246.22999999999999</ele>
        <time>2025-05-15T12:38:33Z</time>
      </trkpt>
      <trkpt lat="42.295642979443073" lon="3.205407997593284">
        <ele>246.22999999999999</ele>
        <time>2025-05-15T12:38:34Z</time>
      </trkpt>
      <trkpt lat="42.295510964468122" lon="3.205403974279761">
        <ele>246.72</ele>
        <time>2025-05-15T12:38:35Z</time>
      </trkpt>
      <trkpt lat="42.295383978635073" lon="3.20539902895689">
        <ele>247.68000000000001</ele>
        <time>2025-05-15T12:38:36Z</time>
      </trkpt>
      <trkpt lat="42.295110980048776" lon="3.205389976501465">
        <ele>248.63999999999999</ele>
        <time>2025-05-15T12:38:38Z</time>
      </trkpt>
      <trkpt lat="42.295047026127577" lon="3.205454014241695">
        <ele>249.12</ele>
        <time>2025-05-15T12:38:39Z</time>
      </trkpt>
      <trkpt lat="42.294959016144276" lon="3.205575970932841">
        <ele>250.08000000000001</ele>
        <time>2025-05-15T12:38:40Z</time>
      </trkpt>
      <trkpt lat="42.294330960139632" lon="3.206612979993224">
        <ele>255.84999999999999</ele>
        <time>2025-05-15T12:38:47Z</time>
      </trkpt>
      <trkpt lat="42.293812958523631" lon="3.207265008240938">
        <ele>257.76999999999998</ele>
        <time>2025-05-15T12:38:51Z</time>
      </trkpt>
      <trkpt lat="42.29365898296237" lon="3.207387970760465">
        <ele>257.76999999999998</ele>
        <time>2025-05-15T12:38:52Z</time>
      </trkpt>
      <trkpt lat="42.293500984087586" lon="3.207514034584165">
        <ele>258.25</ele>
        <time>2025-05-15T12:38:53Z</time>
      </trkpt>
      <trkpt lat="42.293336028233171" lon="3.2075260207057">
        <ele>258.73000000000002</ele>
        <time>2025-05-15T12:38:54Z</time>
      </trkpt>
      <trkpt lat="42.293157996609807" lon="3.207539012655616">
        <ele>258.73000000000002</ele>
        <time>2025-05-15T12:38:55Z</time>
      </trkpt>
      <trkpt lat="42.29297099635005" lon="3.207552004605532">
        <ele>258.73000000000002</ele>
        <time>2025-05-15T12:38:56Z</time>
      </trkpt>
      <trkpt lat="42.29277896694839" lon="3.207566002383828">
        <ele>259.20999999999998</ele>
        <time>2025-05-15T12:38:57Z</time>
      </trkpt>
      <trkpt lat="42.292579980567098" lon="3.207585029304028">
        <ele>259.20999999999998</ele>
        <time>2025-05-15T12:38:58Z</time>
      </trkpt>
      <trkpt lat="42.292379988357425" lon="3.207652000710368">
        <ele>259.69</ele>
        <time>2025-05-15T12:38:59Z</time>
      </trkpt>
      <trkpt lat="42.291963994503021" lon="3.207790972664952">
        <ele>260.64999999999998</ele>
        <time>2025-05-15T12:39:01Z</time>
      </trkpt>
      <trkpt lat="42.291757967323065" lon="3.207895997911692">
        <ele>261.62</ele>
        <time>2025-05-15T12:39:02Z</time>
      </trkpt>
      <trkpt lat="42.291253041476011" lon="3.208163967356086">
        <ele>263.54000000000002</ele>
        <time>2025-05-15T12:39:05Z</time>
      </trkpt>
      <trkpt lat="42.291095964610577" lon="3.208162961527705">
        <ele>264.01999999999998</ele>
        <time>2025-05-15T12:39:06Z</time>
      </trkpt>
      <trkpt lat="42.290924973785877" lon="3.208135971799493">
        <ele>264.98000000000002</ele>
        <time>2025-05-15T12:39:07Z</time>
      </trkpt>
      <trkpt lat="42.290767980739474" lon="3.20804201066494">
        <ele>264.98000000000002</ele>
        <time>2025-05-15T12:39:08Z</time>
      </trkpt>
      <trkpt lat="42.290606964379549" lon="3.207945032045245">
        <ele>265.45999999999998</ele>
        <time>2025-05-15T12:39:09Z</time>
      </trkpt>
      <trkpt lat="42.290449971333146" lon="3.207850987091661">
        <ele>265.45999999999998</ele>
        <time>2025-05-15T12:39:10Z</time>
      </trkpt>
      <trkpt lat="42.290313011035323" lon="3.207768006250262">
        <ele>265.94</ele>
        <time>2025-05-15T12:39:11Z</time>
      </trkpt>
      <trkpt lat="42.290188958868384" lon="3.207771023735404">
        <ele>265.94</ele>
        <time>2025-05-15T12:39:12Z</time>
      </trkpt>
      <trkpt lat="42.290089968591928" lon="3.207792984321713">
        <ele>266.42000000000002</ele>
        <time>2025-05-15T12:39:13Z</time>
      </trkpt>
      <trkpt lat="42.290021991357207" lon="3.207877976819873">
        <ele>266.42000000000002</ele>
        <time>2025-05-15T12:39:14Z</time>
      </trkpt>
      <trkpt lat="42.289978992193937" lon="3.208003034815192">
        <ele>266.89999999999998</ele>
        <time>2025-05-15T12:39:15Z</time>
      </trkpt>
      <trkpt lat="42.289939010515809" lon="3.20817100815475">
        <ele>267.38</ele>
        <time>2025-05-15T12:39:16Z</time>
      </trkpt>
      <trkpt lat="42.2898980230093" lon="3.20834401063621">
        <ele>267.38</ele>
        <time>2025-05-15T12:39:17Z</time>
      </trkpt>
      <trkpt lat="42.289802972227335" lon="3.208484994247556">
        <ele>267.86000000000001</ele>
        <time>2025-05-15T12:39:18Z</time>
      </trkpt>
      <trkpt lat="42.289617983624339" lon="3.208749024197459">
        <ele>268.35000000000002</ele>
        <time>2025-05-15T12:39:20Z</time>
      </trkpt>
      <trkpt lat="42.289557969197631" lon="3.20892496034503">
        <ele>268.82999999999998</ele>
        <time>2025-05-15T12:39:21Z</time>
      </trkpt>
      <trkpt lat="42.289503989741206" lon="3.209128975868225">
        <ele>268.82999999999998</ele>
        <time>2025-05-15T12:39:22Z</time>
      </trkpt>
      <trkpt lat="42.289311038330197" lon="3.209773041307926">
        <ele>269.31</ele>
        <time>2025-05-15T12:39:25Z</time>
      </trkpt>
      <trkpt lat="42.289208024740219" lon="3.209973033517599">
        <ele>269.79000000000002</ele>
        <time>2025-05-15T12:39:26Z</time>
      </trkpt>
      <trkpt lat="42.28908103890717" lon="3.210132038220763">
        <ele>270.26999999999998</ele>
        <time>2025-05-15T12:39:27Z</time>
      </trkpt>
      <trkpt lat="42.288917005062103" lon="3.210290037095547">
        <ele>270.75</ele>
        <time>2025-05-15T12:39:28Z</time>
      </trkpt>
      <trkpt lat="42.288764035329223" lon="3.210437977686524">
        <ele>271.23000000000002</ele>
        <time>2025-05-15T12:39:29Z</time>
      </trkpt>
      <trkpt lat="42.28850201703608" lon="3.210690021514893">
        <ele>271.70999999999998</ele>
        <time>2025-05-15T12:39:31Z</time>
      </trkpt>
      <trkpt lat="42.28839498013258" lon="3.210851037874818">
        <ele>271.70999999999998</ele>
        <time>2025-05-15T12:39:32Z</time>
      </trkpt>
      <trkpt lat="42.288366984575987" lon="3.210970982909203">
        <ele>271.70999999999998</ele>
        <time>2025-05-15T12:39:33Z</time>
      </trkpt>
      <trkpt lat="42.288358015939593" lon="3.211097968742251">
        <ele>271.70999999999998</ele>
        <time>2025-05-15T12:39:34Z</time>
      </trkpt>
      <trkpt lat="42.288362961262465" lon="3.211214980110526">
        <ele>271.70999999999998</ele>
        <time>2025-05-15T12:39:35Z</time>
      </trkpt>
      <trkpt lat="42.288414007052779" lon="3.211359987035394">
        <ele>271.70999999999998</ele>
        <time>2025-05-15T12:39:36Z</time>
      </trkpt>
      <trkpt lat="42.288469998165965" lon="3.211517985910177">
        <ele>271.70999999999998</ele>
        <time>2025-05-15T12:39:37Z</time>
      </trkpt>
      <trkpt lat="42.288627997040749" lon="3.212048979476094">
        <ele>272.67000000000002</ele>
        <time>2025-05-15T12:39:40Z</time>
      </trkpt>
      <trkpt lat="42.28865004144609" lon="3.212222987785935">
        <ele>272.67000000000002</ele>
        <time>2025-05-15T12:39:41Z</time>
      </trkpt>
      <trkpt lat="42.288640988990664" lon="3.212408982217312">
        <ele>272.67000000000002</ele>
        <time>2025-05-15T12:39:42Z</time>
      </trkpt>
      <trkpt lat="42.28863101452589" lon="3.212603023275733">
        <ele>273.14999999999998</ele>
        <time>2025-05-15T12:39:43Z</time>
      </trkpt>
      <trkpt lat="42.288660015910864" lon="3.212806032970548">
        <ele>273.14999999999998</ele>
        <time>2025-05-15T12:39:44Z</time>
      </trkpt>
      <trkpt lat="42.288693962618709" lon="3.213020022958517">
        <ele>273.63</ele>
        <time>2025-05-15T12:39:45Z</time>
      </trkpt>
      <trkpt lat="42.288937037810683" lon="3.214321983978152">
        <ele>277.95999999999998</ele>
        <time>2025-05-15T12:39:52Z</time>
      </trkpt>
      <trkpt lat="42.28895204141736" lon="3.21450999006629">
        <ele>278.92000000000002</ele>
        <time>2025-05-15T12:39:53Z</time>
      </trkpt>
      <trkpt lat="42.288929997012019" lon="3.21465902030468">
        <ele>279.39999999999998</ele>
        <time>2025-05-15T12:39:54Z</time>
      </trkpt>
      <trkpt lat="42.288849027827382" lon="3.215210968628526">
        <ele>279.88</ele>
        <time>2025-05-15T12:39:57Z</time>
      </trkpt>
      <trkpt lat="42.288785995915532" lon="3.215379025787115">
        <ele>279.88</ele>
        <time>2025-05-15T12:39:58Z</time>
      </trkpt>
      <trkpt lat="42.288710977882147" lon="3.215556973591447">
        <ele>280.36000000000001</ele>
        <time>2025-05-15T12:39:59Z</time>
      </trkpt>
      <trkpt lat="42.288457006216049" lon="3.216089978814125">
        <ele>280.36000000000001</ele>
        <time>2025-05-15T12:40:02Z</time>
      </trkpt>
      <trkpt lat="42.28841601870954" lon="3.216226017102599">
        <ele>280.36000000000001</ele>
        <time>2025-05-15T12:40:03Z</time>
      </trkpt>
      <trkpt lat="42.288446025922894" lon="3.216360965743661">
        <ele>279.88</ele>
        <time>2025-05-15T12:40:04Z</time>
      </trkpt>
      <trkpt lat="42.288494976237416" lon="3.216473031789064">
        <ele>279.39999999999998</ele>
        <time>2025-05-15T12:40:05Z</time>
      </trkpt>
      <trkpt lat="42.288590027019382" lon="3.216573027893901">
        <ele>279.39999999999998</ele>
        <time>2025-05-15T12:40:06Z</time>
      </trkpt>
      <trkpt lat="42.288726987317204" lon="3.216647040098906">
        <ele>278.92000000000002</ele>
        <time>2025-05-15T12:40:07Z</time>
      </trkpt>
      <trkpt lat="42.288873000070453" lon="3.216725997626782">
        <ele>278.92000000000002</ele>
        <time>2025-05-15T12:40:08Z</time>
      </trkpt>
      <trkpt lat="42.289009960368276" lon="3.216800009831786">
        <ele>278.92000000000002</ele>
        <time>2025-05-15T12:40:09Z</time>
      </trkpt>
      <trkpt lat="42.289149016141891" lon="3.21682901121676">
        <ele>279.39999999999998</ele>
        <time>2025-05-15T12:40:10Z</time>
      </trkpt>
      <trkpt lat="42.289282036945224" lon="3.216832028701901">
        <ele>279.88</ele>
        <time>2025-05-15T12:40:11Z</time>
      </trkpt>
      <trkpt lat="42.289415979757905" lon="3.216834962368012">
        <ele>279.88</ele>
        <time>2025-05-15T12:40:12Z</time>
      </trkpt>
      <trkpt lat="42.290157023817301" lon="3.216865975409746">
        <ele>281.80000000000001</ele>
        <time>2025-05-15T12:40:18Z</time>
      </trkpt>
      <trkpt lat="42.290255008265376" lon="3.216906040906906">
        <ele>281.80000000000001</ele>
        <time>2025-05-15T12:40:19Z</time>
      </trkpt>
      <trkpt lat="42.290356010198593" lon="3.216968988999724">
        <ele>281.80000000000001</ele>
        <time>2025-05-15T12:40:20Z</time>
      </trkpt>
      <trkpt lat="42.291342979297042" lon="3.217896027490497">
        <ele>279.39999999999998</ele>
        <time>2025-05-15T12:40:30Z</time>
      </trkpt>
      <trkpt lat="42.291420008987188" lon="3.218028964474797">
        <ele>279.39999999999998</ele>
        <time>2025-05-15T12:40:31Z</time>
      </trkpt>
      <trkpt lat="42.291452027857304" lon="3.218197021633387">
        <ele>278.92000000000002</ele>
        <time>2025-05-15T12:40:32Z</time>
      </trkpt>
      <trkpt lat="42.291604997590184" lon="3.2191720046103">
        <ele>277.95999999999998</ele>
        <time>2025-05-15T12:40:37Z</time>
      </trkpt>
      <trkpt lat="42.29159502312541" lon="3.219328997656703">
        <ele>277.48000000000002</ele>
        <time>2025-05-15T12:40:38Z</time>
      </trkpt>
      <trkpt lat="42.291555041447282" lon="3.219459000974894">
        <ele>277.48000000000002</ele>
        <time>2025-05-15T12:40:39Z</time>
      </trkpt>
      <trkpt lat="42.291498966515064" lon="3.21958196349442">
        <ele>277.48000000000002</ele>
        <time>2025-05-15T12:40:40Z</time>
      </trkpt>
      <trkpt lat="42.291463008150458" lon="3.219658993184567">
        <ele>277</ele>
        <time>2025-05-15T12:40:41Z</time>
      </trkpt>
      <trkpt lat="42.291410034522414" lon="3.219691012054682">
        <ele>277</ele>
        <time>2025-05-15T12:40:42Z</time>
      </trkpt>
      <trkpt lat="42.291368041187525" lon="3.219715990126133">
        <ele>276.51999999999998</ele>
        <time>2025-05-15T12:40:43Z</time>
      </trkpt>
      <trkpt lat="42.291314983740449" lon="3.21970802731812">
        <ele>276.04000000000002</ele>
        <time>2025-05-15T12:40:44Z</time>
      </trkpt>
      <trkpt lat="42.291246000677347" lon="3.219681959599257">
        <ele>275.56</ele>
        <time>2025-05-15T12:40:45Z</time>
      </trkpt>
      <trkpt lat="42.291160002350807" lon="3.219649018719792">
        <ele>275.06999999999999</ele>
        <time>2025-05-15T12:40:46Z</time>
      </trkpt>
      <trkpt lat="42.291063023731112" lon="3.219611970707774">
        <ele>274.58999999999997</ele>
        <time>2025-05-15T12:40:47Z</time>
      </trkpt>
      <trkpt lat="42.290957998484373" lon="3.219571989029646">
        <ele>274.58999999999997</ele>
        <time>2025-05-15T12:40:48Z</time>
      </trkpt>
      <trkpt lat="42.290853979066014" lon="3.219552040100098">
        <ele>274.11000000000001</ele>
        <time>2025-05-15T12:40:49Z</time>
      </trkpt>
      <trkpt lat="42.290748031809926" lon="3.219552040100098">
        <ele>274.11000000000001</ele>
        <time>2025-05-15T12:40:50Z</time>
      </trkpt>
      <trkpt lat="42.290453994646668" lon="3.219677014276385">
        <ele>273.14999999999998</ele>
        <time>2025-05-15T12:40:53Z</time>
      </trkpt>
      <trkpt lat="42.290378976613283" lon="3.219737028703094">
        <ele>273.14999999999998</ele>
        <time>2025-05-15T12:40:54Z</time>
      </trkpt>
      <trkpt lat="42.290333965793252" lon="3.219824032858014">
        <ele>273.14999999999998</ele>
        <time>2025-05-15T12:40:55Z</time>
      </trkpt>
      <trkpt lat="42.290283003821969" lon="3.219938026741147">
        <ele>272.67000000000002</ele>
        <time>2025-05-15T12:40:56Z</time>
      </trkpt>
      <trkpt lat="42.290258025750518" lon="3.220059983432293">
        <ele>273.14999999999998</ele>
        <time>2025-05-15T12:40:57Z</time>
      </trkpt>
      <trkpt lat="42.290231036022305" lon="3.220198033377528">
        <ele>273.14999999999998</ele>
        <time>2025-05-15T12:40:58Z</time>
      </trkpt>
      <trkpt lat="42.290176972746849" lon="3.220467008650303">
        <ele>272.67000000000002</ele>
        <time>2025-05-15T12:41:00Z</time>
      </trkpt>
      <trkpt lat="42.290119975805283" lon="3.220555018633604">
        <ele>272.67000000000002</ele>
        <time>2025-05-15T12:41:01Z</time>
      </trkpt>
      <trkpt lat="42.290059039369226" lon="3.220641016960144">
        <ele>272.19</ele>
        <time>2025-05-15T12:41:02Z</time>
      </trkpt>
      <trkpt lat="42.28998402133584" lon="3.220710000023246">
        <ele>272.19</ele>
        <time>2025-05-15T12:41:03Z</time>
      </trkpt>
      <trkpt lat="42.289886036887765" lon="3.220759034156799">
        <ele>271.70999999999998</ele>
        <time>2025-05-15T12:41:04Z</time>
      </trkpt>
      <trkpt lat="42.289679003879428" lon="3.220862969756126">
        <ele>271.23000000000002</ele>
        <time>2025-05-15T12:41:06Z</time>
      </trkpt>
      <trkpt lat="42.289337022230029" lon="3.221043013036251">
        <ele>271.23000000000002</ele>
        <time>2025-05-15T12:41:09Z</time>
      </trkpt>
      <trkpt lat="42.289221016690135" lon="3.221125993877649">
        <ele>271.23000000000002</ele>
        <time>2025-05-15T12:41:10Z</time>
      </trkpt>
      <trkpt lat="42.288865959271789" lon="3.221381977200508">
        <ele>271.23000000000002</ele>
        <time>2025-05-15T12:41:13Z</time>
      </trkpt>
      <trkpt lat="42.288740985095501" lon="3.221426988020539">
        <ele>271.70999999999998</ele>
        <time>2025-05-15T12:41:14Z</time>
      </trkpt>
      <trkpt lat="42.287528961896896" lon="3.22177198715508">
        <ele>271.23000000000002</ele>
        <time>2025-05-15T12:41:22Z</time>
      </trkpt>
      <trkpt lat="42.287265015766025" lon="3.221848011016846">
        <ele>271.23000000000002</ele>
        <time>2025-05-15T12:41:24Z</time>
      </trkpt>
      <trkpt lat="42.28717097081244" lon="3.22190098464489">
        <ele>271.23000000000002</ele>
        <time>2025-05-15T12:41:25Z</time>
      </trkpt>
      <trkpt lat="42.28710601106286" lon="3.221991006284952">
        <ele>271.23000000000002</ele>
        <time>2025-05-15T12:41:26Z</time>
      </trkpt>
      <trkpt lat="42.287091007456183" lon="3.222069963812828">
        <ele>271.23000000000002</ele>
        <time>2025-05-15T12:41:27Z</time>
      </trkpt>
      <trkpt lat="42.287103999406099" lon="3.222188986837864">
        <ele>271.70999999999998</ele>
        <time>2025-05-15T12:41:28Z</time>
      </trkpt>
      <trkpt lat="42.287153033539653" lon="3.222252018749714">
        <ele>271.70999999999998</ele>
        <time>2025-05-15T12:41:29Z</time>
      </trkpt>
      <trkpt lat="42.28725696913898" lon="3.222342040389776">
        <ele>271.70999999999998</ele>
        <time>2025-05-15T12:41:30Z</time>
      </trkpt>
      <trkpt lat="42.287353025749326" lon="3.22235201485455">
        <ele>271.70999999999998</ele>
        <time>2025-05-15T12:41:31Z</time>
      </trkpt>
      <trkpt lat="42.287496021017432" lon="3.222368024289608">
        <ele>272.19</ele>
        <time>2025-05-15T12:41:32Z</time>
      </trkpt>
      <trkpt lat="42.288584997877479" lon="3.22250397875905">
        <ele>271.70999999999998</ele>
        <time>2025-05-15T12:41:38Z</time>
      </trkpt>
      <trkpt lat="42.288754982873797" lon="3.222530968487263">
        <ele>271.23000000000002</ele>
        <time>2025-05-15T12:41:39Z</time>
      </trkpt>
      <trkpt lat="42.288922034204006" lon="3.222601041197777">
        <ele>271.23000000000002</ele>
        <time>2025-05-15T12:41:40Z</time>
      </trkpt>
      <trkpt lat="42.289475994184613" lon="3.222859036177397">
        <ele>269.79000000000002</ele>
        <time>2025-05-15T12:41:43Z</time>
      </trkpt>
      <trkpt lat="42.289679003879428" lon="3.222908992320299">
        <ele>269.79000000000002</ele>
        <time>2025-05-15T12:41:44Z</time>
      </trkpt>
      <trkpt lat="42.290291972458363" lon="3.22306296788156">
        <ele>268.82999999999998</ele>
        <time>2025-05-15T12:41:47Z</time>
      </trkpt>
      <trkpt lat="42.290492970496416" lon="3.2231489662081">
        <ele>268.35000000000002</ele>
        <time>2025-05-15T12:41:48Z</time>
      </trkpt>
      <trkpt lat="42.291883025318384" lon="3.223869977518916">
        <ele>266.42000000000002</ele>
        <time>2025-05-15T12:41:55Z</time>
      </trkpt>
      <trkpt lat="42.292026020586491" lon="3.224016996100545">
        <ele>265.94</ele>
        <time>2025-05-15T12:41:56Z</time>
      </trkpt>
      <trkpt lat="42.292156023904681" lon="3.224172983318567">
        <ele>265.45999999999998</ele>
        <time>2025-05-15T12:41:57Z</time>
      </trkpt>
      <trkpt lat="42.292271023616195" lon="3.224333999678493">
        <ele>265.45999999999998</ele>
        <time>2025-05-15T12:41:58Z</time>
      </trkpt>
      <trkpt lat="42.292337995022535" lon="3.224525023251772">
        <ele>264.98000000000002</ele>
        <time>2025-05-15T12:41:59Z</time>
      </trkpt>
      <trkpt lat="42.292397003620863" lon="3.224727027118206">
        <ele>264.5</ele>
        <time>2025-05-15T12:42:00Z</time>
      </trkpt>
      <trkpt lat="42.29243497364223" lon="3.224943028762937">
        <ele>264.5</ele>
        <time>2025-05-15T12:42:01Z</time>
      </trkpt>
      <trkpt lat="42.292467998340726" lon="3.225135980173945">
        <ele>264.01999999999998</ele>
        <time>2025-05-15T12:42:02Z</time>
      </trkpt>
      <trkpt lat="42.292533041909337" lon="3.225276041775942">
        <ele>263.54000000000002</ele>
        <time>2025-05-15T12:42:03Z</time>
      </trkpt>
      <trkpt lat="42.292631026357412" lon="3.225309988483787">
        <ele>263.54000000000002</ele>
        <time>2025-05-15T12:42:04Z</time>
      </trkpt>
      <trkpt lat="42.292749965563416" lon="3.225346030667424">
        <ele>263.06</ele>
        <time>2025-05-15T12:42:05Z</time>
      </trkpt>
      <trkpt lat="42.292878041043878" lon="3.225325997918844">
        <ele>263.06</ele>
        <time>2025-05-15T12:42:06Z</time>
      </trkpt>
      <trkpt lat="42.293027993291616" lon="3.225302025675774">
        <ele>263.06</ele>
        <time>2025-05-15T12:42:07Z</time>
      </trkpt>
      <trkpt lat="42.293318007141352" lon="3.22529599070549">
        <ele>262.57999999999998</ele>
        <time>2025-05-15T12:42:09Z</time>
      </trkpt>
      <trkpt lat="42.293419009074569" lon="3.225332032889128">
        <ele>262.10000000000002</ele>
        <time>2025-05-15T12:42:10Z</time>
      </trkpt>
      <trkpt lat="42.293493021279573" lon="3.225420964881778">
        <ele>261.62</ele>
        <time>2025-05-15T12:42:11Z</time>
      </trkpt>
      <trkpt lat="42.293580025434494" lon="3.225525990128517">
        <ele>261.13999999999999</ele>
        <time>2025-05-15T12:42:12Z</time>
      </trkpt>
      <trkpt lat="42.293652025982738" lon="3.225676026195288">
        <ele>260.64999999999998</ele>
        <time>2025-05-15T12:42:13Z</time>
      </trkpt>
      <trkpt lat="42.293721009045839" lon="3.225859003141522">
        <ele>260.17000000000002</ele>
        <time>2025-05-15T12:42:14Z</time>
      </trkpt>
      <trkpt lat="42.293801978230476" lon="3.226075004786253">
        <ele>259.69</ele>
        <time>2025-05-15T12:42:15Z</time>
      </trkpt>
      <trkpt lat="42.293838020414114" lon="3.226297041401267">
        <ele>259.20999999999998</ele>
        <time>2025-05-15T12:42:16Z</time>
      </trkpt>
      <trkpt lat="42.293914966285229" lon="3.226772965863347">
        <ele>258.73000000000002</ele>
        <time>2025-05-15T12:42:18Z</time>
      </trkpt>
      <trkpt lat="42.293930975720286" lon="3.227010006085038">
        <ele>258.73000000000002</ele>
        <time>2025-05-15T12:42:19Z</time>
      </trkpt>
      <trkpt lat="42.293915972113609" lon="3.227268001064658">
        <ele>258.25</ele>
        <time>2025-05-15T12:42:20Z</time>
      </trkpt>
      <trkpt lat="42.293753027915955" lon="3.228938011452556">
        <ele>257.76999999999998</ele>
        <time>2025-05-15T12:42:26Z</time>
      </trkpt>
      <trkpt lat="42.293685972690582" lon="3.229112019762397">
        <ele>257.29000000000002</ele>
        <time>2025-05-15T12:42:27Z</time>
      </trkpt>
      <trkpt lat="42.293584970757365" lon="3.229245962575078">
        <ele>256.81</ele>
        <time>2025-05-15T12:42:28Z</time>
      </trkpt>
      <trkpt lat="42.292738985270262" lon="3.230155985802412">
        <ele>253.44</ele>
        <time>2025-05-15T12:42:34Z</time>
      </trkpt>
      <trkpt lat="42.292569000273943" lon="3.230277020484209">
        <ele>252.47999999999999</ele>
        <time>2025-05-15T12:42:35Z</time>
      </trkpt>
      <trkpt lat="42.292398009449244" lon="3.230373999103904">
        <ele>251.52000000000001</ele>
        <time>2025-05-15T12:42:36Z</time>
      </trkpt>
      <trkpt lat="42.292237998917699" lon="3.23043099604547">
        <ele>250.56</ele>
        <time>2025-05-15T12:42:37Z</time>
      </trkpt>
      <trkpt lat="42.292084023356438" lon="3.23043099604547">
        <ele>249.12</ele>
        <time>2025-05-15T12:42:38Z</time>
      </trkpt>
      <trkpt lat="42.291925018653274" lon="3.23043099604547">
        <ele>248.16</ele>
        <time>2025-05-15T12:42:39Z</time>
      </trkpt>
      <trkpt lat="42.291785040870309" lon="3.23043099604547">
        <ele>246.72</ele>
        <time>2025-05-15T12:42:40Z</time>
      </trkpt>
      <trkpt lat="42.291696025058627" lon="3.23049696162343">
        <ele>245.75</ele>
        <time>2025-05-15T12:42:41Z</time>
      </trkpt>
      <trkpt lat="42.291612960398197" lon="3.23055999353528">
        <ele>245.27000000000001</ele>
        <time>2025-05-15T12:42:42Z</time>
      </trkpt>
      <trkpt lat="42.291597034782171" lon="3.230672981590033">
        <ele>244.31</ele>
        <time>2025-05-15T12:42:43Z</time>
      </trkpt>
      <trkpt lat="42.291603991761804" lon="3.230797033756971">
        <ele>244.31</ele>
        <time>2025-05-15T12:42:44Z</time>
      </trkpt>
      <trkpt lat="42.291644979268312" lon="3.230900969356298">
        <ele>244.31</ele>
        <time>2025-05-15T12:42:45Z</time>
      </trkpt>
      <trkpt lat="42.291727038100362" lon="3.231001971289516">
        <ele>243.83000000000001</ele>
        <time>2025-05-15T12:42:46Z</time>
      </trkpt>
      <trkpt lat="42.291817981749773" lon="3.231115965172648">
        <ele>243.83000000000001</ele>
        <time>2025-05-15T12:42:47Z</time>
      </trkpt>
      <trkpt lat="42.291914038360119" lon="3.231235994026065">
        <ele>243.83000000000001</ele>
        <time>2025-05-15T12:42:48Z</time>
      </trkpt>
      <trkpt lat="42.291980003938079" lon="3.23137303814292">
        <ele>243.83000000000001</ele>
        <time>2025-05-15T12:42:49Z</time>
      </trkpt>
      <trkpt lat="42.291999030858278" lon="3.231527013704181">
        <ele>243.34999999999999</ele>
        <time>2025-05-15T12:42:50Z</time>
      </trkpt>
      <trkpt lat="42.291994001716375" lon="3.231688030064106">
        <ele>243.34999999999999</ele>
        <time>2025-05-15T12:42:51Z</time>
      </trkpt>
      <trkpt lat="42.291928036138415" lon="3.231843011453748">
        <ele>242.87</ele>
        <time>2025-05-15T12:42:52Z</time>
      </trkpt>
      <trkpt lat="42.291845977306366" lon="3.23199899867177">
        <ele>242.87</ele>
        <time>2025-05-15T12:42:53Z</time>
      </trkpt>
      <trkpt lat="42.291722008958459" lon="3.232118021696806">
        <ele>242.38999999999999</ele>
        <time>2025-05-15T12:42:54Z</time>
      </trkpt>
      <trkpt lat="42.291590999811888" lon="3.232242995873094">
        <ele>241.91</ele>
        <time>2025-05-15T12:42:55Z</time>
      </trkpt>
      <trkpt lat="42.291364017874002" lon="3.232483975589275">
        <ele>241.43000000000001</ele>
        <time>2025-05-15T12:42:57Z</time>
      </trkpt>
      <trkpt lat="42.291314983740449" lon="3.232620013877749">
        <ele>240.94999999999999</ele>
        <time>2025-05-15T12:42:58Z</time>
      </trkpt>
      <trkpt lat="42.291306015104055" lon="3.23277298361063">
        <ele>240.94999999999999</ele>
        <time>2025-05-15T12:42:59Z</time>
      </trkpt>
      <trkpt lat="42.291335016489029" lon="3.23294498026371">
        <ele>240.47</ele>
        <time>2025-05-15T12:43:00Z</time>
      </trkpt>
      <trkpt lat="42.291378015652299" lon="3.233115971088409">
        <ele>240.47</ele>
        <time>2025-05-15T12:43:01Z</time>
      </trkpt>
      <trkpt lat="42.291470970958471" lon="3.233232982456684">
        <ele>239.99000000000001</ele>
        <time>2025-05-15T12:43:02Z</time>
      </trkpt>
      <trkpt lat="42.291549006476998" lon="3.233285034075379">
        <ele>239.99000000000001</ele>
        <time>2025-05-15T12:43:03Z</time>
      </trkpt>
      <trkpt lat="42.291683033108711" lon="3.233297020196915">
        <ele>239.99000000000001</ele>
        <time>2025-05-15T12:43:04Z</time>
      </trkpt>
      <trkpt lat="42.291791997849941" lon="3.233304983004928">
        <ele>239.99000000000001</ele>
        <time>2025-05-15T12:43:05Z</time>
      </trkpt>
      <trkpt lat="42.291922001168132" lon="3.233274975791574">
        <ele>240.47</ele>
        <time>2025-05-15T12:43:06Z</time>
      </trkpt>
      <trkpt lat="42.292580986395478" lon="3.233123011887074">
        <ele>241.43000000000001</ele>
        <time>2025-05-15T12:43:10Z</time>
      </trkpt>
      <trkpt lat="42.292749965563416" lon="3.233130974695087">
        <ele>241.43000000000001</ele>
        <time>2025-05-15T12:43:11Z</time>
      </trkpt>
      <trkpt lat="42.293308032676578" lon="3.233242034912109">
        <ele>241.43000000000001</ele>
        <time>2025-05-15T12:43:15Z</time>
      </trkpt>
      <trkpt lat="42.293379027396441" lon="3.233321998268366">
        <ele>241.43000000000001</ele>
        <time>2025-05-15T12:43:16Z</time>
      </trkpt>
      <trkpt lat="42.293457984924316" lon="3.233414031565189">
        <ele>241.43000000000001</ele>
        <time>2025-05-15T12:43:17Z</time>
      </trkpt>
      <trkpt lat="42.29350802488625" lon="3.233535988256335">
        <ele>241.43000000000001</ele>
        <time>2025-05-15T12:43:18Z</time>
      </trkpt>
      <trkpt lat="42.293566027656198" lon="3.233677977696061">
        <ele>241.43000000000001</ele>
        <time>2025-05-15T12:43:19Z</time>
      </trkpt>
      <trkpt lat="42.293767025694251" lon="3.234102018177509">
        <ele>242.38999999999999</ele>
        <time>2025-05-15T12:43:22Z</time>
      </trkpt>
      <trkpt lat="42.293862998485565" lon="3.23421198874712">
        <ele>242.87</ele>
        <time>2025-05-15T12:43:23Z</time>
      </trkpt>
      <trkpt lat="42.293997025117278" lon="3.234299998730421">
        <ele>243.34999999999999</ele>
        <time>2025-05-15T12:43:24Z</time>
      </trkpt>
      <trkpt lat="42.29464603587985" lon="3.234680034220219">
        <ele>244.78999999999999</ele>
        <time>2025-05-15T12:43:28Z</time>
      </trkpt>
      <trkpt lat="42.294803028926253" lon="3.234680034220219">
        <ele>244.78999999999999</ele>
        <time>2025-05-15T12:43:29Z</time>
      </trkpt>
      <trkpt lat="42.294961027801037" lon="3.234680034220219">
        <ele>245.27000000000001</ele>
        <time>2025-05-15T12:43:30Z</time>
      </trkpt>
      <trkpt lat="42.295460002496839" lon="3.234650027006865">
        <ele>246.72</ele>
        <time>2025-05-15T12:43:33Z</time>
      </trkpt>
      <trkpt lat="42.295624036341906" lon="3.234700988978148">
        <ele>246.72</ele>
        <time>2025-05-15T12:43:34Z</time>
      </trkpt>
      <trkpt lat="42.296771015971899" lon="3.235133998095989">
        <ele>247.68000000000001</ele>
        <time>2025-05-15T12:43:41Z</time>
      </trkpt>
      <trkpt lat="42.296862965449691" lon="3.235227959230542">
        <ele>247.68000000000001</ele>
        <time>2025-05-15T12:43:42Z</time>
      </trkpt>
      <trkpt lat="42.296913005411625" lon="3.235344970598817">
        <ele>248.16</ele>
        <time>2025-05-15T12:43:43Z</time>
      </trkpt>
      <trkpt lat="42.296913005411625" lon="3.235509004443884">
        <ele>248.16</ele>
        <time>2025-05-15T12:43:44Z</time>
      </trkpt>
      <trkpt lat="42.296890961006284" lon="3.235661974176765">
        <ele>247.68000000000001</ele>
        <time>2025-05-15T12:43:45Z</time>
      </trkpt>
      <trkpt lat="42.296847961843014" lon="3.235818967223167">
        <ele>247.68000000000001</ele>
        <time>2025-05-15T12:43:46Z</time>
      </trkpt>
      <trkpt lat="42.296802029013634" lon="3.235988030210137">
        <ele>247.68000000000001</ele>
        <time>2025-05-15T12:43:47Z</time>
      </trkpt>
      <trkpt lat="42.296303976327181" lon="3.237518984824419">
        <ele>246.22999999999999</ele>
        <time>2025-05-15T12:43:55Z</time>
      </trkpt>
      <trkpt lat="42.296309005469084" lon="3.237681007012725">
        <ele>245.75</ele>
        <time>2025-05-15T12:43:56Z</time>
      </trkpt>
      <trkpt lat="42.296334989368916" lon="3.237827019765973">
        <ele>244.78999999999999</ele>
        <time>2025-05-15T12:43:57Z</time>
      </trkpt>
      <trkpt lat="42.296369019895792" lon="3.237983006983995">
        <ele>243.83000000000001</ele>
        <time>2025-05-15T12:43:58Z</time>
      </trkpt>
      <trkpt lat="42.296425011008978" lon="3.238157015293837">
        <ele>242.87</ele>
        <time>2025-05-15T12:43:59Z</time>
      </trkpt>
      <trkpt lat="42.29660295881331" lon="3.238762021064758">
        <ele>240.47</ele>
        <time>2025-05-15T12:44:02Z</time>
      </trkpt>
      <trkpt lat="42.296633971855044" lon="3.238993026316166">
        <ele>239.50999999999999</ele>
        <time>2025-05-15T12:44:03Z</time>
      </trkpt>
      <trkpt lat="42.296633971855044" lon="3.23921799659729">
        <ele>239.02000000000001</ele>
        <time>2025-05-15T12:44:04Z</time>
      </trkpt>
      <trkpt lat="42.296599019318819" lon="3.239441961050034">
        <ele>238.06</ele>
        <time>2025-05-15T12:44:05Z</time>
      </trkpt>
      <trkpt lat="42.296548979356885" lon="3.239655029028654">
        <ele>237.09999999999999</ele>
        <time>2025-05-15T12:44:06Z</time>
      </trkpt>
      <trkpt lat="42.296500029042363" lon="3.239861978217959">
        <ele>236.13999999999999</ele>
        <time>2025-05-15T12:44:07Z</time>
      </trkpt>
      <trkpt lat="42.296459041535854" lon="3.240068005397916">
        <ele>235.18000000000001</ele>
        <time>2025-05-15T12:44:08Z</time>
      </trkpt>
      <trkpt lat="42.296438002958894" lon="3.240291969850659">
        <ele>233.74000000000001</ele>
        <time>2025-05-15T12:44:09Z</time>
      </trkpt>
      <trkpt lat="42.296415958553553" lon="3.240530015900731">
        <ele>232.78</ele>
        <time>2025-05-15T12:44:10Z</time>
      </trkpt>
      <trkpt lat="42.296383017674088" lon="3.240776024758816">
        <ele>231.81</ele>
        <time>2025-05-15T12:44:11Z</time>
      </trkpt>
      <trkpt lat="42.296304982155561" lon="3.241018010303378">
        <ele>230.37</ele>
        <time>2025-05-15T12:44:12Z</time>
      </trkpt>
      <trkpt lat="42.296224012970924" lon="3.241268964484334">
        <ele>229.41</ele>
        <time>2025-05-15T12:44:13Z</time>
      </trkpt>
      <trkpt lat="42.29574297554791" lon="3.24276203289628">
        <ele>222.68000000000001</ele>
        <time>2025-05-15T12:44:19Z</time>
      </trkpt>
      <trkpt lat="42.295713974162936" lon="3.242924977093935">
        <ele>221.72</ele>
        <time>2025-05-15T12:44:20Z</time>
      </trkpt>
      <trkpt lat="42.295744987204671" lon="3.243028996512294">
        <ele>220.28</ele>
        <time>2025-05-15T12:44:21Z</time>
      </trkpt>
      <trkpt lat="42.295782035216689" lon="3.243123963475227">
        <ele>219.31999999999999</ele>
        <time>2025-05-15T12:44:22Z</time>
      </trkpt>
      <trkpt lat="42.295818999409676" lon="3.243220020085573">
        <ele>218.36000000000001</ele>
        <time>2025-05-15T12:44:23Z</time>
      </trkpt>
      <trkpt lat="42.295888988301158" lon="3.243295960128307">
        <ele>217.88</ele>
        <time>2025-05-15T12:44:24Z</time>
      </trkpt>
      <trkpt lat="42.295963000506163" lon="3.243377013131976">
        <ele>216.91</ele>
        <time>2025-05-15T12:44:25Z</time>
      </trkpt>
      <trkpt lat="42.296269023790956" lon="3.243712959811091">
        <ele>213.55000000000001</ele>
        <time>2025-05-15T12:44:31Z</time>
      </trkpt>
      <trkpt lat="42.296288972720504" lon="3.243829971179366">
        <ele>213.06999999999999</ele>
        <time>2025-05-15T12:44:32Z</time>
      </trkpt>
      <trkpt lat="42.296303976327181" lon="3.243917981162667">
        <ele>212.59</ele>
        <time>2025-05-15T12:44:33Z</time>
      </trkpt>
      <trkpt lat="42.296297019347548" lon="3.243992999196053">
        <ele>212.59</ele>
        <time>2025-05-15T12:44:34Z</time>
      </trkpt>
      <trkpt lat="42.296248991042376" lon="3.244058964774013">
        <ele>212.11000000000001</ele>
        <time>2025-05-15T12:44:35Z</time>
      </trkpt>
      <trkpt lat="42.29617103934288" lon="3.24411797337234">
        <ele>211.63</ele>
        <time>2025-05-15T12:44:36Z</time>
      </trkpt>
      <trkpt lat="42.296091997995973" lon="3.244112022221088">
        <ele>211.15000000000001</ele>
        <time>2025-05-15T12:44:37Z</time>
      </trkpt>
      <trkpt lat="42.296011028811336" lon="3.244104981422424">
        <ele>210.66999999999999</ele>
        <time>2025-05-15T12:44:38Z</time>
      </trkpt>
      <trkpt lat="42.295653959736228" lon="3.244102969765663">
        <ele>207.78</ele>
        <time>2025-05-15T12:44:42Z</time>
      </trkpt>
      <trkpt lat="42.295562010258436" lon="3.244167007505894">
        <ele>206.81999999999999</ele>
        <time>2025-05-15T12:44:43Z</time>
      </trkpt>
      <trkpt lat="42.295466037467122" lon="3.244232973083854">
        <ele>206.34</ele>
        <time>2025-05-15T12:44:44Z</time>
      </trkpt>
      <trkpt lat="42.295384984463453" lon="3.244307991117239">
        <ele>205.38</ele>
        <time>2025-05-15T12:44:45Z</time>
      </trkpt>
      <trkpt lat="42.29531398974359" lon="3.244404969736934">
        <ele>204.41999999999999</ele>
        <time>2025-05-15T12:44:46Z</time>
      </trkpt>
      <trkpt lat="42.295238971710205" lon="3.244506977498531">
        <ele>203.94</ele>
        <time>2025-05-15T12:44:47Z</time>
      </trkpt>
      <trkpt lat="42.295187003910542" lon="3.244619965553284">
        <ele>203.46000000000001</ele>
        <time>2025-05-15T12:44:48Z</time>
      </trkpt>
      <trkpt lat="42.294936971738935" lon="3.245150959119201">
        <ele>201.05000000000001</ele>
        <time>2025-05-15T12:44:52Z</time>
      </trkpt>
      <trkpt lat="42.294895984232426" lon="3.245237041264772">
        <ele>200.56999999999999</ele>
        <time>2025-05-15T12:44:53Z</time>
      </trkpt>
      <trkpt lat="42.294888021424413" lon="3.245365032926202">
        <ele>199.61000000000001</ele>
        <time>2025-05-15T12:44:54Z</time>
      </trkpt>
      <trkpt lat="42.294879974797368" lon="3.245475003495812">
        <ele>199.13</ele>
        <time>2025-05-15T12:44:55Z</time>
      </trkpt>
      <trkpt lat="42.294878968968987" lon="3.245567958801985">
        <ele>198.16999999999999</ele>
        <time>2025-05-15T12:44:56Z</time>
      </trkpt>
      <trkpt lat="42.294922973960638" lon="3.245664015412331">
        <ele>198.16999999999999</ele>
        <time>2025-05-15T12:44:57Z</time>
      </trkpt>
      <trkpt lat="42.294965973123908" lon="3.245756970718503">
        <ele>197.69</ele>
        <time>2025-05-15T12:44:58Z</time>
      </trkpt>
      <trkpt lat="42.29501198977232" lon="3.24585503898561">
        <ele>197.21000000000001</ele>
        <time>2025-05-15T12:44:59Z</time>
      </trkpt>
      <trkpt lat="42.295149033889174" lon="3.246197020635009">
        <ele>195.28</ele>
        <time>2025-05-15T12:45:02Z</time>
      </trkpt>
      <trkpt lat="42.295179041102529" lon="3.246340015903115">
        <ele>194.31999999999999</ele>
        <time>2025-05-15T12:45:03Z</time>
      </trkpt>
      <trkpt lat="42.295209970325232" lon="3.246485022827983">
        <ele>193.84</ele>
        <time>2025-05-15T12:45:04Z</time>
      </trkpt>
      <trkpt lat="42.295206030830741" lon="3.246621983125806">
        <ele>192.88</ele>
        <time>2025-05-15T12:45:05Z</time>
      </trkpt>
      <trkpt lat="42.295189015567303" lon="3.246760033071041">
        <ele>191.91999999999999</ele>
        <time>2025-05-15T12:45:06Z</time>
      </trkpt>
      <trkpt lat="42.295173006132245" lon="3.24688701890409">
        <ele>191.44</ele>
        <time>2025-05-15T12:45:07Z</time>
      </trkpt>
      <trkpt lat="42.295158002525568" lon="3.247007969766855">
        <ele>190.47999999999999</ele>
        <time>2025-05-15T12:45:08Z</time>
      </trkpt>
      <trkpt lat="42.295142998918891" lon="3.247126992791891">
        <ele>190</ele>
        <time>2025-05-15T12:45:09Z</time>
      </trkpt>
      <trkpt lat="42.295132018625736" lon="3.247245009988546">
        <ele>189.52000000000001</ele>
        <time>2025-05-15T12:45:10Z</time>
      </trkpt>
      <trkpt lat="42.295132018625736" lon="3.247357998043299">
        <ele>189.03999999999999</ele>
        <time>2025-05-15T12:45:11Z</time>
      </trkpt>
      <trkpt lat="42.295132018625736" lon="3.247464029118419">
        <ele>188.08000000000001</ele>
        <time>2025-05-15T12:45:12Z</time>
      </trkpt>
      <trkpt lat="42.295132018625736" lon="3.247553966939449">
        <ele>187.59</ele>
        <time>2025-05-15T12:45:13Z</time>
      </trkpt>
      <trkpt lat="42.295088013634086" lon="3.247641976922751">
        <ele>187.11000000000001</ele>
        <time>2025-05-15T12:45:14Z</time>
      </trkpt>
      <trkpt lat="42.295041996985674" lon="3.247728981077671">
        <ele>186.63</ele>
        <time>2025-05-15T12:45:15Z</time>
      </trkpt>
      <trkpt lat="42.294964967295527" lon="3.247782038524747">
        <ele>185.66999999999999</ele>
        <time>2025-05-15T12:45:16Z</time>
      </trkpt>
      <trkpt lat="42.29488299228251" lon="3.247838029637933">
        <ele>185.19</ele>
        <time>2025-05-15T12:45:17Z</time>
      </trkpt>
      <trkpt lat="42.294716024771333" lon="3.247953029349446">
        <ele>184.22999999999999</ele>
        <time>2025-05-15T12:45:19Z</time>
      </trkpt>
      <trkpt lat="42.294651987031102" lon="3.248042967170477">
        <ele>183.27000000000001</ele>
        <time>2025-05-15T12:45:20Z</time>
      </trkpt>
      <trkpt lat="42.294598007574677" lon="3.248129971325398">
        <ele>182.78999999999999</ele>
        <time>2025-05-15T12:45:21Z</time>
      </trkpt>
      <trkpt lat="42.294576968997717" lon="3.248227033764124">
        <ele>181.83000000000001</ele>
        <time>2025-05-15T12:45:22Z</time>
      </trkpt>
      <trkpt lat="42.294552996754646" lon="3.248347984626889">
        <ele>181.34999999999999</ele>
        <time>2025-05-15T12:45:23Z</time>
      </trkpt>
      <trkpt lat="42.294563977047801" lon="3.248432977125049">
        <ele>180.87</ele>
        <time>2025-05-15T12:45:24Z</time>
      </trkpt>
      <trkpt lat="42.294577974826097" lon="3.248539008200169">
        <ele>180.38</ele>
        <time>2025-05-15T12:45:25Z</time>
      </trkpt>
      <trkpt lat="42.294570012018085" lon="3.248746963217855">
        <ele>179.41999999999999</ele>
        <time>2025-05-15T12:45:27Z</time>
      </trkpt>
      <trkpt lat="42.29453899897635" lon="3.24884201399982">
        <ele>178.94</ele>
        <time>2025-05-15T12:45:28Z</time>
      </trkpt>
      <trkpt lat="42.294482002034783" lon="3.248889958485961">
        <ele>178.46000000000001</ele>
        <time>2025-05-15T12:45:29Z</time>
      </trkpt>
      <trkpt lat="42.294406984001398" lon="3.248931029811502">
        <ele>177.97999999999999</ele>
        <time>2025-05-15T12:45:30Z</time>
      </trkpt>
      <trkpt lat="42.294327020645142" lon="3.248976040631533">
        <ele>177.97999999999999</ele>
        <time>2025-05-15T12:45:31Z</time>
      </trkpt>
      <trkpt lat="42.294240016490221" lon="3.249022979289293">
        <ele>177.5</ele>
        <time>2025-05-15T12:45:32Z</time>
      </trkpt>
      <trkpt lat="42.294143959879875" lon="3.249076036736369">
        <ele>177.02000000000001</ele>
        <time>2025-05-15T12:45:33Z</time>
      </trkpt>
      <trkpt lat="42.294059973210096" lon="3.249164968729019">
        <ele>177.02000000000001</ele>
        <time>2025-05-15T12:45:34Z</time>
      </trkpt>
      <trkpt lat="42.293985961005092" lon="3.249278962612152">
        <ele>176.06</ele>
        <time>2025-05-15T12:45:35Z</time>
      </trkpt>
      <trkpt lat="42.293912032619119" lon="3.249393962323666">
        <ele>175.58000000000001</ele>
        <time>2025-05-15T12:45:36Z</time>
      </trkpt>
      <trkpt lat="42.293428983539343" lon="3.250167025253177">
        <ele>171.72999999999999</ele>
        <time>2025-05-15T12:45:43Z</time>
      </trkpt>
      <trkpt lat="42.293408028781414" lon="3.250275989994407">
        <ele>171.25</ele>
        <time>2025-05-15T12:45:44Z</time>
      </trkpt>
      <trkpt lat="42.293384978547692" lon="3.25039098970592">
        <ele>170.77000000000001</ele>
        <time>2025-05-15T12:45:45Z</time>
      </trkpt>
      <trkpt lat="42.293380033224821" lon="3.250515041872859">
        <ele>170.28999999999999</ele>
        <time>2025-05-15T12:45:46Z</time>
      </trkpt>
      <trkpt lat="42.293395958840847" lon="3.250644039362669">
        <ele>169.33000000000001</ele>
        <time>2025-05-15T12:45:47Z</time>
      </trkpt>
      <trkpt lat="42.293411968275905" lon="3.250773036852479">
        <ele>168.37</ele>
        <time>2025-05-15T12:45:48Z</time>
      </trkpt>
      <trkpt lat="42.293457984924316" lon="3.251382987946272">
        <ele>167.41</ele>
        <time>2025-05-15T12:45:53Z</time>
      </trkpt>
      <trkpt lat="42.293457984924316" lon="3.251503016799688">
        <ele>166.93000000000001</ele>
        <time>2025-05-15T12:45:54Z</time>
      </trkpt>
      <trkpt lat="42.293402999639511" lon="3.25165799818933">
        <ele>166.44999999999999</ele>
        <time>2025-05-15T12:45:55Z</time>
      </trkpt>
      <trkpt lat="42.293350026011467" lon="3.25180602259934">
        <ele>165.96000000000001</ele>
        <time>2025-05-15T12:45:56Z</time>
      </trkpt>
      <trkpt lat="42.293295962736011" lon="3.251954969018698">
        <ele>165.47999999999999</ele>
        <time>2025-05-15T12:45:57Z</time>
      </trkpt>
      <trkpt lat="42.293050959706306" lon="3.252640021964908">
        <ele>163.56</ele>
        <time>2025-05-15T12:46:02Z</time>
      </trkpt>
      <trkpt lat="42.293027993291616" lon="3.252800032496452">
        <ele>163.08000000000001</ele>
        <time>2025-05-15T12:46:03Z</time>
      </trkpt>
      <trkpt lat="42.293007038533688" lon="3.252943027764559">
        <ele>162.59999999999999</ele>
        <time>2025-05-15T12:46:04Z</time>
      </trkpt>
      <trkpt lat="42.292993040755391" lon="3.253220971673727">
        <ele>161.63999999999999</ele>
        <time>2025-05-15T12:46:06Z</time>
      </trkpt>
      <trkpt lat="42.292998991906643" lon="3.253368996083736">
        <ele>161.16</ele>
        <time>2025-05-15T12:46:07Z</time>
      </trkpt>
      <trkpt lat="42.293116003274918" lon="3.25464497320354">
        <ele>157.31</ele>
        <time>2025-05-15T12:46:16Z</time>
      </trkpt>
      <trkpt lat="42.293151961639524" lon="3.254746980965138">
        <ele>156.34999999999999</ele>
        <time>2025-05-15T12:46:17Z</time>
      </trkpt>
      <trkpt lat="42.293210970237851" lon="3.254799032583833">
        <ele>155.87</ele>
        <time>2025-05-15T12:46:18Z</time>
      </trkpt>
      <trkpt lat="42.293285988271236" lon="3.254849994555116">
        <ele>155.38999999999999</ele>
        <time>2025-05-15T12:46:19Z</time>
      </trkpt>
      <trkpt lat="42.293351031839848" lon="3.254892993718386">
        <ele>155.38999999999999</ele>
        <time>2025-05-15T12:46:20Z</time>
      </trkpt>
      <trkpt lat="42.293438035994768" lon="3.254887964576483">
        <ele>154.91</ele>
        <time>2025-05-15T12:46:21Z</time>
      </trkpt>
      <trkpt lat="42.293522022664547" lon="3.254883019253612">
        <ele>154.43000000000001</ele>
        <time>2025-05-15T12:46:22Z</time>
      </trkpt>
      <trkpt lat="42.293603997677565" lon="3.254877990111709">
        <ele>153.94999999999999</ele>
        <time>2025-05-15T12:46:23Z</time>
      </trkpt>
      <trkpt lat="42.293755039572716" lon="3.254886036738753">
        <ele>152.99000000000001</ele>
        <time>2025-05-15T12:46:25Z</time>
      </trkpt>
      <trkpt lat="42.293823016807437" lon="3.254911014810205">
        <ele>152.50999999999999</ele>
        <time>2025-05-15T12:46:26Z</time>
      </trkpt>
      <trkpt lat="42.293887976557016" lon="3.254935992881656">
        <ele>152.03</ele>
        <time>2025-05-15T12:46:27Z</time>
      </trkpt>
      <trkpt lat="42.293932987377048" lon="3.255026014521718">
        <ele>151.53999999999999</ele>
        <time>2025-05-15T12:46:28Z</time>
      </trkpt>
      <trkpt lat="42.293972969055176" lon="3.255106983706355">
        <ele>151.53999999999999</ele>
        <time>2025-05-15T12:46:29Z</time>
      </trkpt>
      <trkpt lat="42.293983027338982" lon="3.255231035873294">
        <ele>151.06</ele>
        <time>2025-05-15T12:46:30Z</time>
      </trkpt>
      <trkpt lat="42.293990990146995" lon="3.255350980907679">
        <ele>151.06</ele>
        <time>2025-05-15T12:46:31Z</time>
      </trkpt>
      <trkpt lat="42.293999958783388" lon="3.255470003932715">
        <ele>150.58000000000001</ele>
        <time>2025-05-15T12:46:32Z</time>
      </trkpt>
      <trkpt lat="42.294015968218446" lon="3.255687011405826">
        <ele>149.62</ele>
        <time>2025-05-15T12:46:34Z</time>
      </trkpt>
      <trkpt lat="42.294083023443818" lon="3.255796981975436">
        <ele>149.13999999999999</ele>
        <time>2025-05-15T12:46:35Z</time>
      </trkpt>
      <trkpt lat="42.29413297958672" lon="3.255880968645215">
        <ele>148.66</ele>
        <time>2025-05-15T12:46:36Z</time>
      </trkpt>
      <trkpt lat="42.294203974306583" lon="3.255917010828853">
        <ele>147.69999999999999</ele>
        <time>2025-05-15T12:46:37Z</time>
      </trkpt>
      <trkpt lat="42.294284021481872" lon="3.255938971415162">
        <ele>147.22</ele>
        <time>2025-05-15T12:46:38Z</time>
      </trkpt>
      <trkpt lat="42.294381000101566" lon="3.255965961143374">
        <ele>146.74000000000001</ele>
        <time>2025-05-15T12:46:39Z</time>
      </trkpt>
      <trkpt lat="42.2944759670645" lon="3.25595498085022">
        <ele>145.78</ele>
        <time>2025-05-15T12:46:40Z</time>
      </trkpt>
      <trkpt lat="42.295497972518206" lon="3.255813997238874">
        <ele>139.53</ele>
        <time>2025-05-15T12:46:49Z</time>
      </trkpt>
      <trkpt lat="42.29559101164341" lon="3.255841992795467">
        <ele>139.05000000000001</ele>
        <time>2025-05-15T12:46:50Z</time>
      </trkpt>
      <trkpt lat="42.295671980828047" lon="3.255892032757402">
        <ele>138.09</ele>
        <time>2025-05-15T12:46:51Z</time>
      </trkpt>
      <trkpt lat="42.295739036053419" lon="3.255980964750052">
        <ele>137.13</ele>
        <time>2025-05-15T12:46:52Z</time>
      </trkpt>
      <trkpt lat="42.29580600745976" lon="3.256069980561733">
        <ele>136.16</ele>
        <time>2025-05-15T12:46:53Z</time>
      </trkpt>
      <trkpt lat="42.295870967209339" lon="3.256156984716654">
        <ele>135.68000000000001</ele>
        <time>2025-05-15T12:46:54Z</time>
      </trkpt>
      <trkpt lat="42.295933999121189" lon="3.256240971386433">
        <ele>135.19999999999999</ele>
        <time>2025-05-15T12:46:55Z</time>
      </trkpt>
      <trkpt lat="42.295985966920853" lon="3.256333004683256">
        <ele>134.24000000000001</ele>
        <time>2025-05-15T12:46:56Z</time>
      </trkpt>
      <trkpt lat="42.296023014932871" lon="3.256430989131331">
        <ele>133.28</ele>
        <time>2025-05-15T12:46:57Z</time>
      </trkpt>
      <trkpt lat="42.296032989397645" lon="3.256526961922646">
        <ele>132.80000000000001</ele>
        <time>2025-05-15T12:46:58Z</time>
      </trkpt>
      <trkpt lat="42.296032989397645" lon="3.256630981341004">
        <ele>131.84</ele>
        <time>2025-05-15T12:46:59Z</time>
      </trkpt>
      <trkpt lat="42.295999964699149" lon="3.256710022687912">
        <ele>131.36000000000001</ele>
        <time>2025-05-15T12:47:00Z</time>
      </trkpt>
      <trkpt lat="42.295953026041389" lon="3.256795015186071">
        <ele>130.88</ele>
        <time>2025-05-15T12:47:01Z</time>
      </trkpt>
      <trkpt lat="42.295882031321526" lon="3.25685502961278">
        <ele>130.40000000000001</ele>
        <time>2025-05-15T12:47:02Z</time>
      </trkpt>
      <trkpt lat="42.295803995802999" lon="3.25692099519074">
        <ele>130.40000000000001</ele>
        <time>2025-05-15T12:47:03Z</time>
      </trkpt>
      <trkpt lat="42.295394958928227" lon="3.257278986275196">
        <ele>128.94999999999999</ele>
        <time>2025-05-15T12:47:08Z</time>
      </trkpt>
      <trkpt lat="42.29533301666379" lon="3.257378982380033">
        <ele>128.47</ele>
        <time>2025-05-15T12:47:09Z</time>
      </trkpt>
      <trkpt lat="42.294885003939271" lon="3.25810301117599">
        <ele>125.59</ele>
        <time>2025-05-15T12:47:16Z</time>
      </trkpt>
      <trkpt lat="42.294848039746284" lon="3.258218010887504">
        <ele>124.63</ele>
        <time>2025-05-15T12:47:17Z</time>
      </trkpt>
      <trkpt lat="42.294836975634098" lon="3.25833803974092">
        <ele>124.15000000000001</ele>
        <time>2025-05-15T12:47:18Z</time>
      </trkpt>
      <trkpt lat="42.294837981462479" lon="3.258456978946924">
        <ele>123.19</ele>
        <time>2025-05-15T12:47:19Z</time>
      </trkpt>
      <trkpt lat="42.294849967584014" lon="3.25857499614358">
        <ele>122.70999999999999</ele>
        <time>2025-05-15T12:47:20Z</time>
      </trkpt>
      <trkpt lat="42.294881986454129" lon="3.258694019168615">
        <ele>122.22</ele>
        <time>2025-05-15T12:47:21Z</time>
      </trkpt>
      <trkpt lat="42.294957004487514" lon="3.258924018591642">
        <ele>121.26000000000001</ele>
        <time>2025-05-15T12:47:23Z</time>
      </trkpt>
      <trkpt lat="42.29499296285212" lon="3.259036000818014">
        <ele>121.26000000000001</ele>
        <time>2025-05-15T12:47:24Z</time>
      </trkpt>
      <trkpt lat="42.295094970613718" lon="3.259350992739201">
        <ele>120.3</ele>
        <time>2025-05-15T12:47:27Z</time>
      </trkpt>
      <trkpt lat="42.295096982270479" lon="3.259447971358895">
        <ele>119.34</ele>
        <time>2025-05-15T12:47:28Z</time>
      </trkpt>
      <trkpt lat="42.295070998370647" lon="3.259544027969241">
        <ele>119.34</ele>
        <time>2025-05-15T12:47:29Z</time>
      </trkpt>
      <trkpt lat="42.295039985328913" lon="3.259636983275414">
        <ele>118.86</ele>
        <time>2025-05-15T12:47:30Z</time>
      </trkpt>
      <trkpt lat="42.294962033629417" lon="3.259662967175245">
        <ele>118.86</ele>
        <time>2025-05-15T12:47:31Z</time>
      </trkpt>
      <trkpt lat="42.294852985069156" lon="3.259699009358883">
        <ele>118.38</ele>
        <time>2025-05-15T12:47:32Z</time>
      </trkpt>
      <trkpt lat="42.294785007834435" lon="3.259687023237348">
        <ele>117.90000000000001</ele>
        <time>2025-05-15T12:47:33Z</time>
      </trkpt>
      <trkpt lat="42.29469196870923" lon="3.259669002145529">
        <ele>117.90000000000001</ele>
        <time>2025-05-15T12:47:34Z</time>
      </trkpt>
      <trkpt lat="42.294124010950327" lon="3.259577974677086">
        <ele>115.98</ele>
        <time>2025-05-15T12:47:40Z</time>
      </trkpt>
      <trkpt lat="42.294030971825123" lon="3.259594989940524">
        <ele>115.98</ele>
        <time>2025-05-15T12:47:41Z</time>
      </trkpt>
      <trkpt lat="42.293930975720286" lon="3.259614016860724">
        <ele>115.5</ele>
        <time>2025-05-15T12:47:42Z</time>
      </trkpt>
      <trkpt lat="42.293856041505933" lon="3.259672019630671">
        <ele>115.5</ele>
        <time>2025-05-15T12:47:43Z</time>
      </trkpt>
      <trkpt lat="42.293769037351012" lon="3.259738991037011">
        <ele>115.5</ele>
        <time>2025-05-15T12:47:44Z</time>
      </trkpt>
      <trkpt lat="42.293695025146008" lon="3.259818032383919">
        <ele>115.01000000000001</ele>
        <time>2025-05-15T12:47:45Z</time>
      </trkpt>
      <trkpt lat="42.293625958263874" lon="3.259907970204949">
        <ele>115.01000000000001</ele>
        <time>2025-05-15T12:47:46Z</time>
      </trkpt>
      <trkpt lat="42.293565021827817" lon="3.260014001280069">
        <ele>114.53</ele>
        <time>2025-05-15T12:47:47Z</time>
      </trkpt>
      <trkpt lat="42.293516993522644" lon="3.260136041790247">
        <ele>114.05</ele>
        <time>2025-05-15T12:47:48Z</time>
      </trkpt>
      <trkpt lat="42.293468965217471" lon="3.260257998481393">
        <ele>113.56999999999999</ele>
        <time>2025-05-15T12:47:49Z</time>
      </trkpt>
      <trkpt lat="42.293341979384422" lon="3.260618001222611">
        <ele>112.13</ele>
        <time>2025-05-15T12:47:52Z</time>
      </trkpt>
      <trkpt lat="42.293323036283255" lon="3.260743981227279">
        <ele>112.13</ele>
        <time>2025-05-15T12:47:53Z</time>
      </trkpt>
      <trkpt lat="42.293315995484591" lon="3.260864010080695">
        <ele>111.65000000000001</ele>
        <time>2025-05-15T12:47:54Z</time>
      </trkpt>
      <trkpt lat="42.293350026011467" lon="3.260976998135448">
        <ele>111.17</ele>
        <time>2025-05-15T12:47:55Z</time>
      </trkpt>
      <trkpt lat="42.293390007689595" lon="3.261075988411903">
        <ele>110.69</ele>
        <time>2025-05-15T12:47:56Z</time>
      </trkpt>
      <trkpt lat="42.293453039601445" lon="3.261163998395205">
        <ele>110.69</ele>
        <time>2025-05-15T12:47:57Z</time>
      </trkpt>
      <trkpt lat="42.293521016836166" lon="3.261241028085351">
        <ele>110.20999999999999</ele>
        <time>2025-05-15T12:47:58Z</time>
      </trkpt>
      <trkpt lat="42.293597962707281" lon="3.261315040290356">
        <ele>110.20999999999999</ele>
        <time>2025-05-15T12:47:59Z</time>
      </trkpt>
      <trkpt lat="42.294091992080212" lon="3.261791970580816">
        <ele>107.81</ele>
        <time>2025-05-15T12:48:05Z</time>
      </trkpt>
      <trkpt lat="42.294121999293566" lon="3.261869000270963">
        <ele>107.31999999999999</ele>
        <time>2025-05-15T12:48:06Z</time>
      </trkpt>
      <trkpt lat="42.294148989021778" lon="3.261959021911025">
        <ele>106.84</ele>
        <time>2025-05-15T12:48:07Z</time>
      </trkpt>
      <trkpt lat="42.294160975143313" lon="3.262029010802507">
        <ele>106.84</ele>
        <time>2025-05-15T12:48:08Z</time>
      </trkpt>
      <trkpt lat="42.294125016778708" lon="3.262110985815525">
        <ele>106.36</ele>
        <time>2025-05-15T12:48:09Z</time>
      </trkpt>
      <trkpt lat="42.294081011787057" lon="3.262209976091981">
        <ele>106.36</ele>
        <time>2025-05-15T12:48:10Z</time>
      </trkpt>
      <trkpt lat="42.29400398209691" lon="3.262253981083632">
        <ele>106.36</ele>
        <time>2025-05-15T12:48:11Z</time>
      </trkpt>
      <trkpt lat="42.293915972113609" lon="3.262305026873946">
        <ele>105.88</ele>
        <time>2025-05-15T12:48:12Z</time>
      </trkpt>
      <trkpt lat="42.293181968852878" lon="3.262728983536363">
        <ele>102.52</ele>
        <time>2025-05-15T12:48:19Z</time>
      </trkpt>
      <trkpt lat="42.293083984404802" lon="3.262806013226509">
        <ele>102.04000000000001</ele>
        <time>2025-05-15T12:48:20Z</time>
      </trkpt>
      <trkpt lat="42.292997986078262" lon="3.262911038473249">
        <ele>101.56</ele>
        <time>2025-05-15T12:48:21Z</time>
      </trkpt>
      <trkpt lat="42.292917016893625" lon="3.263018997386098">
        <ele>100.59999999999999</ele>
        <time>2025-05-15T12:48:22Z</time>
      </trkpt>
      <trkpt lat="42.292876029387116" lon="3.263156963512301">
        <ele>100.11</ele>
        <time>2025-05-15T12:48:23Z</time>
      </trkpt>
      <trkpt lat="42.292854990810156" lon="3.263297025114298">
        <ele>99.629999999999995</ele>
        <time>2025-05-15T12:48:24Z</time>
      </trkpt>
      <trkpt lat="42.292849961668253" lon="3.263439014554024">
        <ele>99.150000000000006</ele>
        <time>2025-05-15T12:48:25Z</time>
      </trkpt>
      <trkpt lat="42.292838981375098" lon="3.263715030625463">
        <ele>97.709999999999994</ele>
        <time>2025-05-15T12:48:27Z</time>
      </trkpt>
      <trkpt lat="42.292849039658904" lon="3.263834975659847">
        <ele>97.709999999999994</ele>
        <time>2025-05-15T12:48:28Z</time>
      </trkpt>
      <trkpt lat="42.292886003851891" lon="3.263942012563348">
        <ele>97.230000000000004</ele>
        <time>2025-05-15T12:48:29Z</time>
      </trkpt>
      <trkpt lat="42.292921962216496" lon="3.264046031981707">
        <ele>96.75</ele>
        <time>2025-05-15T12:48:30Z</time>
      </trkpt>
      <trkpt lat="42.292958004400134" lon="3.264149967581034">
        <ele>96.75</ele>
        <time>2025-05-15T12:48:31Z</time>
      </trkpt>
      <trkpt lat="42.293028999119997" lon="3.264452973380685">
        <ele>95.310000000000002</ele>
        <time>2025-05-15T12:48:34Z</time>
      </trkpt>
      <trkpt lat="42.293028999119997" lon="3.264564033597708">
        <ele>95.310000000000002</ele>
        <time>2025-05-15T12:48:35Z</time>
      </trkpt>
      <trkpt lat="42.293003015220165" lon="3.264666041359305">
        <ele>94.829999999999998</ele>
        <time>2025-05-15T12:48:36Z</time>
      </trkpt>
      <trkpt lat="42.292963033542037" lon="3.264780035242438">
        <ele>94.829999999999998</ele>
        <time>2025-05-15T12:48:37Z</time>
      </trkpt>
      <trkpt lat="42.292922968044877" lon="3.264894029125571">
        <ele>94.829999999999998</ele>
        <time>2025-05-15T12:48:38Z</time>
      </trkpt>
      <trkpt lat="42.292876029387116" lon="3.264995031058788">
        <ele>94.349999999999994</ele>
        <time>2025-05-15T12:48:39Z</time>
      </trkpt>
      <trkpt lat="42.292815009132028" lon="3.265093015506864">
        <ele>93.870000000000005</ele>
        <time>2025-05-15T12:48:40Z</time>
      </trkpt>
      <trkpt lat="42.292752983048558" lon="3.265190999954939">
        <ele>93.390000000000001</ele>
        <time>2025-05-15T12:48:41Z</time>
      </trkpt>
      <trkpt lat="42.292619962245226" lon="3.265401972457767">
        <ele>92.420000000000002</ele>
        <time>2025-05-15T12:48:43Z</time>
      </trkpt>
      <trkpt lat="42.292535975575447" lon="3.265535999089479">
        <ele>91.939999999999998</ele>
        <time>2025-05-15T12:48:44Z</time>
      </trkpt>
      <trkpt lat="42.292504040524364" lon="3.26564496383071">
        <ele>90.980000000000004</ele>
        <time>2025-05-15T12:48:45Z</time>
      </trkpt>
      <trkpt lat="42.292397003620863" lon="3.266150979325175">
        <ele>88.099999999999994</ele>
        <time>2025-05-15T12:48:49Z</time>
      </trkpt>
      <trkpt lat="42.29239197447896" lon="3.266265979036689">
        <ele>87.620000000000005</ele>
        <time>2025-05-15T12:48:50Z</time>
      </trkpt>
      <trkpt lat="42.292429022490978" lon="3.266383996233344">
        <ele>86.659999999999997</ele>
        <time>2025-05-15T12:48:51Z</time>
      </trkpt>
      <trkpt lat="42.292465986683965" lon="3.266506036743522">
        <ele>85.689999999999998</ele>
        <time>2025-05-15T12:48:52Z</time>
      </trkpt>
      <trkpt lat="42.292506974190474" lon="3.266637967899442">
        <ele>84.730000000000004</ele>
        <time>2025-05-15T12:48:53Z</time>
      </trkpt>
      <trkpt lat="42.292595990002155" lon="3.266927981749177">
        <ele>82.810000000000002</ele>
        <time>2025-05-15T12:48:55Z</time>
      </trkpt>
      <trkpt lat="42.292642006650567" lon="3.267078017815948">
        <ele>81.849999999999994</ele>
        <time>2025-05-15T12:48:56Z</time>
      </trkpt>
      <trkpt lat="42.292645024135709" lon="3.26723400503397">
        <ele>81.370000000000005</ele>
        <time>2025-05-15T12:48:57Z</time>
      </trkpt>
      <trkpt lat="42.29264703579247" lon="3.267398960888386">
        <ele>80.409999999999997</ele>
        <time>2025-05-15T12:48:58Z</time>
      </trkpt>
      <trkpt lat="42.292648963630199" lon="3.267564000561833">
        <ele>79.450000000000003</ele>
        <time>2025-05-15T12:48:59Z</time>
      </trkpt>
      <trkpt lat="42.292715013027191" lon="3.268866967409849">
        <ele>72.719999999999999</ele>
        <time>2025-05-15T12:49:07Z</time>
      </trkpt>
      <trkpt lat="42.292758012190461" lon="3.269014991819859">
        <ele>71.760000000000005</ele>
        <time>2025-05-15T12:49:08Z</time>
      </trkpt>
      <trkpt lat="42.292878963053226" lon="3.269474990665913">
        <ele>68.870000000000005</ele>
        <time>2025-05-15T12:49:12Z</time>
      </trkpt>
      <trkpt lat="42.292878963053226" lon="3.269563000649214">
        <ele>68.390000000000001</ele>
        <time>2025-05-15T12:49:13Z</time>
      </trkpt>
      <trkpt lat="42.292878963053226" lon="3.269590996205807">
        <ele>67.909999999999997</ele>
        <time>2025-05-15T12:49:14Z</time>
      </trkpt>
      <trkpt lat="42.292810985818505" lon="3.269670959562063">
        <ele>67.430000000000007</ele>
        <time>2025-05-15T12:49:15Z</time>
      </trkpt>
      <trkpt lat="42.292749965563416" lon="3.269742038100958">
        <ele>66.469999999999999</ele>
        <time>2025-05-15T12:49:16Z</time>
      </trkpt>
      <trkpt lat="42.292689029127359" lon="3.26976802200079">
        <ele>65.510000000000005</ele>
        <time>2025-05-15T12:49:17Z</time>
      </trkpt>
      <trkpt lat="42.292610993608832" lon="3.269802974537015">
        <ele>65.030000000000001</ele>
        <time>2025-05-15T12:49:18Z</time>
      </trkpt>
      <trkpt lat="42.292532036080956" lon="3.269837005063891">
        <ele>64.069999999999993</ele>
        <time>2025-05-15T12:49:19Z</time>
      </trkpt>
      <trkpt lat="42.292448971420527" lon="3.269872963428497">
        <ele>63.100000000000001</ele>
        <time>2025-05-15T12:49:20Z</time>
      </trkpt>
      <trkpt lat="42.292362973093987" lon="3.269929038360715">
        <ele>62.619999999999997</ele>
        <time>2025-05-15T12:49:21Z</time>
      </trkpt>
      <trkpt lat="42.292278986424208" lon="3.270000033080578">
        <ele>62.140000000000001</ele>
        <time>2025-05-15T12:49:22Z</time>
      </trkpt>
      <trkpt lat="42.292114030569792" lon="3.270130036398768">
        <ele>60.700000000000003</ele>
        <time>2025-05-15T12:49:24Z</time>
      </trkpt>
      <trkpt lat="42.292016968131065" lon="3.270144034177065">
        <ele>59.740000000000002</ele>
        <time>2025-05-15T12:49:25Z</time>
      </trkpt>
      <trkpt lat="42.291916972026229" lon="3.270159037783742">
        <ele>58.780000000000001</ele>
        <time>2025-05-15T12:49:26Z</time>
      </trkpt>
      <trkpt lat="42.291170982643962" lon="3.270271020010114">
        <ele>51.090000000000003</ele>
        <time>2025-05-15T12:49:34Z</time>
      </trkpt>
      <trkpt lat="42.291103005409241" lon="3.270258028060198">
        <ele>50.609999999999999</ele>
        <time>2025-05-15T12:49:35Z</time>
      </trkpt>
      <trkpt lat="42.291028993204236" lon="3.270243024453521">
        <ele>50.130000000000003</ele>
        <time>2025-05-15T12:49:36Z</time>
      </trkpt>
      <trkpt lat="42.290944000706077" lon="3.270207988098264">
        <ele>50.130000000000003</ele>
        <time>2025-05-15T12:49:37Z</time>
      </trkpt>
      <trkpt lat="42.290847022086382" lon="3.270153002813458">
        <ele>49.649999999999999</ele>
        <time>2025-05-15T12:49:38Z</time>
      </trkpt>
      <trkpt lat="42.290363973006606" lon="3.269938006997109">
        <ele>47.719999999999999</ele>
        <time>2025-05-15T12:49:42Z</time>
      </trkpt>
      <trkpt lat="42.290231036022305" lon="3.269916968420148">
        <ele>46.759999999999998</ele>
        <time>2025-05-15T12:49:43Z</time>
      </trkpt>
      <trkpt lat="42.289230991154909" lon="3.269827030599117">
        <ele>40.509999999999998</ele>
        <time>2025-05-15T12:49:51Z</time>
      </trkpt>
      <trkpt lat="42.28912697173655" lon="3.269885033369064">
        <ele>39.549999999999997</ele>
        <time>2025-05-15T12:49:52Z</time>
      </trkpt>
      <trkpt lat="42.2890380397439" lon="3.269934989511967">
        <ele>38.590000000000003</ele>
        <time>2025-05-15T12:49:53Z</time>
      </trkpt>
      <trkpt lat="42.288998980075121" lon="3.27002702280879">
        <ele>37.630000000000003</ele>
        <time>2025-05-15T12:49:54Z</time>
      </trkpt>
      <trkpt lat="42.288965033367276" lon="3.270142022520304">
        <ele>37.149999999999999</ele>
        <time>2025-05-15T12:49:55Z</time>
      </trkpt>
      <trkpt lat="42.288943994790316" lon="3.270282000303268">
        <ele>36.189999999999998</ele>
        <time>2025-05-15T12:49:56Z</time>
      </trkpt>
      <trkpt lat="42.288945000618696" lon="3.270431030541658">
        <ele>35.710000000000001</ele>
        <time>2025-05-15T12:49:57Z</time>
      </trkpt>
      <trkpt lat="42.288979031145573" lon="3.270596992224455">
        <ele>34.740000000000002</ele>
        <time>2025-05-15T12:49:58Z</time>
      </trkpt>
      <trkpt lat="42.289013983681798" lon="3.270767983049154">
        <ele>33.780000000000001</ele>
        <time>2025-05-15T12:49:59Z</time>
      </trkpt>
      <trkpt lat="42.289156978949904" lon="3.27127299271524">
        <ele>31.379999999999999</ele>
        <time>2025-05-15T12:50:02Z</time>
      </trkpt>
      <trkpt lat="42.289215987548232" lon="3.271412970498204">
        <ele>30.420000000000002</ele>
        <time>2025-05-15T12:50:03Z</time>
      </trkpt>
      <trkpt lat="42.289281031116843" lon="3.271525958552957">
        <ele>28.98</ele>
        <time>2025-05-15T12:50:04Z</time>
      </trkpt>
      <trkpt lat="42.289370968937874" lon="3.271606005728245">
        <ele>28.02</ele>
        <time>2025-05-15T12:50:05Z</time>
      </trkpt>
      <trkpt lat="42.289455961436033" lon="3.27168102376163">
        <ele>27.050000000000001</ele>
        <time>2025-05-15T12:50:06Z</time>
      </trkpt>
      <trkpt lat="42.290237993001938" lon="3.272288041189313">
        <ele>18.879999999999999</ele>
        <time>2025-05-15T12:50:15Z</time>
      </trkpt>
      <trkpt lat="42.290308987721801" lon="3.272319976240397">
        <ele>18.879999999999999</ele>
        <time>2025-05-15T12:50:16Z</time>
      </trkpt>
      <trkpt lat="42.290373025462031" lon="3.272337997332215">
        <ele>17.920000000000002</ele>
        <time>2025-05-15T12:50:17Z</time>
      </trkpt>
      <trkpt lat="42.290447959676385" lon="3.272337997332215">
        <ele>17.440000000000001</ele>
        <time>2025-05-15T12:50:18Z</time>
      </trkpt>
      <trkpt lat="42.29052297770977" lon="3.272337997332215">
        <ele>17.440000000000001</ele>
        <time>2025-05-15T12:50:19Z</time>
      </trkpt>
      <trkpt lat="42.290746020153165" lon="3.272374961525202">
        <ele>16</ele>
        <time>2025-05-15T12:50:22Z</time>
      </trkpt>
      <trkpt lat="42.290812991559505" lon="3.272419972345233">
        <ele>15.039999999999999</ele>
        <time>2025-05-15T12:50:23Z</time>
      </trkpt>
      <trkpt lat="42.290835035964847" lon="3.272492978721857">
        <ele>14.56</ele>
        <time>2025-05-15T12:50:24Z</time>
      </trkpt>
      <trkpt lat="42.290854984894395" lon="3.272583000361919">
        <ele>13.6</ele>
        <time>2025-05-15T12:50:25Z</time>
      </trkpt>
      <trkpt lat="42.290858002379537" lon="3.272655000910163">
        <ele>12.630000000000001</ele>
        <time>2025-05-15T12:50:26Z</time>
      </trkpt>
      <trkpt lat="42.290847022086382" lon="3.272752985358238">
        <ele>12.15</ele>
        <time>2025-05-15T12:50:27Z</time>
      </trkpt>
      <trkpt lat="42.290825983509421" lon="3.272833032533526">
        <ele>11.19</ele>
        <time>2025-05-15T12:50:28Z</time>
      </trkpt>
      <trkpt lat="42.29077803902328" lon="3.27290796674788">
        <ele>10.710000000000001</ele>
        <time>2025-05-15T12:50:29Z</time>
      </trkpt>
      <trkpt lat="42.290730010718107" lon="3.272983990609646">
        <ele>10.710000000000001</ele>
        <time>2025-05-15T12:50:30Z</time>
      </trkpt>
      <trkpt lat="42.290636971592903" lon="3.273144001141191">
        <ele>10.23</ele>
        <time>2025-05-15T12:50:32Z</time>
      </trkpt>
      <trkpt lat="42.290532030165195" lon="3.273334018886089">
        <ele>9.75</ele>
        <time>2025-05-15T12:50:35Z</time>
      </trkpt>
      <trkpt lat="42.290475033223629" lon="3.273436026647687">
        <ele>8.789999999999999</ele>
        <time>2025-05-15T12:50:37Z</time>
      </trkpt>
      <trkpt lat="42.290448965504766" lon="3.273481959477067">
        <ele>8.789999999999999</ele>
        <time>2025-05-15T12:50:38Z</time>
      </trkpt>
      <trkpt lat="42.290421975776553" lon="3.273528981953859">
        <ele>8.310000000000001</ele>
        <time>2025-05-15T12:50:39Z</time>
      </trkpt>
      <trkpt lat="42.290330026298761" lon="3.273692009970546">
        <ele>6.87</ele>
        <time>2025-05-15T12:50:42Z</time>
      </trkpt>
      <trkpt lat="42.290297001600266" lon="3.273751018568873">
        <ele>6.39</ele>
        <time>2025-05-15T12:50:43Z</time>
      </trkpt>
      <trkpt lat="42.290127016603947" lon="3.273867024108768">
        <ele>4.94</ele>
        <time>2025-05-15T12:50:46Z</time>
      </trkpt>
      <trkpt lat="42.290074964985251" lon="3.273918991908431">
        <ele>4.46</ele>
        <time>2025-05-15T12:50:47Z</time>
      </trkpt>
      <trkpt lat="42.289989972487092" lon="3.274003984406591">
        <ele>3.98</ele>
        <time>2025-05-15T12:50:49Z</time>
      </trkpt>
      <trkpt lat="42.289954014122486" lon="3.274040026590228">
        <ele>3.5</ele>
        <time>2025-05-15T12:50:50Z</time>
      </trkpt>
      <trkpt lat="42.289933981373906" lon="3.274094006046653">
        <ele>3.02</ele>
        <time>2025-05-15T12:50:51Z</time>
      </trkpt>
      <trkpt lat="42.289926018565893" lon="3.274146979674697">
        <ele>2.54</ele>
        <time>2025-05-15T12:50:52Z</time>
      </trkpt>
      <trkpt lat="42.289955019950867" lon="3.274204982444644">
        <ele>2.06</ele>
        <time>2025-05-15T12:50:53Z</time>
      </trkpt>
      <trkpt lat="42.289982009679079" lon="3.274204982444644">
        <ele>1.58</ele>
        <time>2025-05-15T12:50:54Z</time>
      </trkpt>
      <trkpt lat="42.290012016892433" lon="3.27417497523129">
        <ele>1.58</ele>
        <time>2025-05-15T12:50:55Z</time>
      </trkpt>
      <trkpt lat="42.290041018277407" lon="3.274145973846316">
        <ele>1.1</ele>
        <time>2025-05-15T12:50:56Z</time>
      </trkpt>
      <trkpt lat="42.290069013834" lon="3.274117978289723">
        <ele>1.1</ele>
        <time>2025-05-15T12:50:57Z</time>
      </trkpt>
      <trkpt lat="42.290103966370225" lon="3.274083025753498">
        <ele>1.1</ele>
        <time>2025-05-15T12:50:58Z</time>
      </trkpt>
      <trkpt lat="42.290142020210624" lon="3.274044971913099">
        <ele>0.62</ele>
        <time>2025-05-15T12:50:59Z</time>
      </trkpt>
      <trkpt lat="42.290184013545513" lon="3.274007001891732">
        <ele>0.62</ele>
        <time>2025-05-15T12:51:00Z</time>
      </trkpt>
      <trkpt lat="42.290231036022305" lon="3.273967020213604">
        <ele>0.62</ele>
        <time>2025-05-15T12:51:01Z</time>
      </trkpt>
      <trkpt lat="42.290304964408278" lon="3.273903988301754">
        <ele>1.1</ele>
        <time>2025-05-15T12:51:02Z</time>
      </trkpt>
      <trkpt lat="42.290754988789558" lon="3.273840034380555">
        <ele>4.94</ele>
        <time>2025-05-15T12:51:08Z</time>
      </trkpt>
      <trkpt lat="42.290824977681041" lon="3.273840034380555">
        <ele>6.39</ele>
        <time>2025-05-15T12:51:09Z</time>
      </trkpt>
      <trkpt lat="42.290905024856329" lon="3.273840034380555">
        <ele>6.87</ele>
        <time>2025-05-15T12:51:10Z</time>
      </trkpt>
      <trkpt lat="42.290964033454657" lon="3.273868029937148">
        <ele>7.83</ele>
        <time>2025-05-15T12:51:11Z</time>
      </trkpt>
      <trkpt lat="42.291027987375855" lon="3.273897031322122">
        <ele>8.789999999999999</ele>
        <time>2025-05-15T12:51:12Z</time>
      </trkpt>
      <trkpt lat="42.291448004543781" lon="3.274089982733131">
        <ele>12.15</ele>
        <time>2025-05-15T12:51:18Z</time>
      </trkpt>
      <trkpt lat="42.291501984000206" lon="3.274132981896401">
        <ele>13.119999999999999</ele>
        <time>2025-05-15T12:51:19Z</time>
      </trkpt>
      <trkpt lat="42.291613966226578" lon="3.274232978001237">
        <ele>14.56</ele>
        <time>2025-05-15T12:51:21Z</time>
      </trkpt>
      <trkpt lat="42.291665012016892" lon="3.274280000478029">
        <ele>15.52</ele>
        <time>2025-05-15T12:51:22Z</time>
      </trkpt>
      <trkpt lat="42.291757967323065" lon="3.274362981319428">
        <ele>16.960000000000001</ele>
        <time>2025-05-15T12:51:24Z</time>
      </trkpt>
      <trkpt lat="42.291800966486335" lon="3.274402040988207">
        <ele>17.440000000000001</ele>
        <time>2025-05-15T12:51:25Z</time>
      </trkpt>
      <trkpt lat="42.291839020326734" lon="3.274435987696052">
        <ele>17.920000000000002</ele>
        <time>2025-05-15T12:51:26Z</time>
      </trkpt>
      <trkpt lat="42.292115036398172" lon="3.274534977972508">
        <ele>21.289999999999999</ele>
        <time>2025-05-15T12:51:35Z</time>
      </trkpt>
      <trkpt lat="42.292336989194155" lon="3.274534977972508">
        <ele>22.73</ele>
        <time>2025-05-15T12:51:39Z</time>
      </trkpt>
      <trkpt lat="42.292403038591146" lon="3.274530032649636">
        <ele>23.210000000000001</ele>
        <time>2025-05-15T12:51:40Z</time>
      </trkpt>
      <trkpt lat="42.292677965015173" lon="3.274445040151477">
        <ele>24.649999999999999</ele>
        <time>2025-05-15T12:51:44Z</time>
      </trkpt>
      <trkpt lat="42.292747031897306" lon="3.2744110096246">
        <ele>24.649999999999999</ele>
        <time>2025-05-15T12:51:45Z</time>
      </trkpt>
      <trkpt lat="42.292808974161744" lon="3.274354012683034">
        <ele>24.649999999999999</ele>
        <time>2025-05-15T12:51:46Z</time>
      </trkpt>
      <trkpt lat="42.293078033253551" lon="3.274029968306422">
        <ele>26.09</ele>
        <time>2025-05-15T12:51:51Z</time>
      </trkpt>
      <trkpt lat="42.293150033801794" lon="3.274012031033635">
        <ele>26.57</ele>
        <time>2025-05-15T12:51:52Z</time>
      </trkpt>
      <trkpt lat="42.293214993551373" lon="3.274012031033635">
        <ele>27.050000000000001</ele>
        <time>2025-05-15T12:51:53Z</time>
      </trkpt>
      <trkpt lat="42.293262016028166" lon="3.274057963863015">
        <ele>27.530000000000001</ele>
        <time>2025-05-15T12:51:54Z</time>
      </trkpt>
      <trkpt lat="42.293319012969732" lon="3.274124013260007">
        <ele>28.02</ele>
        <time>2025-05-15T12:51:55Z</time>
      </trkpt>
      <trkpt lat="42.293351031839848" lon="3.27419601380825">
        <ele>28.5</ele>
        <time>2025-05-15T12:51:56Z</time>
      </trkpt>
      <trkpt lat="42.293351031839848" lon="3.274321993812919">
        <ele>28.98</ele>
        <time>2025-05-15T12:51:57Z</time>
      </trkpt>
      <trkpt lat="42.293351031839848" lon="3.274459037929773">
        <ele>29.940000000000001</ele>
        <time>2025-05-15T12:51:58Z</time>
      </trkpt>
      <trkpt lat="42.293351031839848" lon="3.274589041247964">
        <ele>30.899999999999999</ele>
        <time>2025-05-15T12:51:59Z</time>
      </trkpt>
      <trkpt lat="42.293337034061551" lon="3.274713009595871">
        <ele>32.340000000000003</ele>
        <time>2025-05-15T12:52:00Z</time>
      </trkpt>
      <trkpt lat="42.293303003534675" lon="3.27499003149569">
        <ele>34.259999999999998</ele>
        <time>2025-05-15T12:52:02Z</time>
      </trkpt>
      <trkpt lat="42.293287999927998" lon="3.275121040642262">
        <ele>35.710000000000001</ele>
        <time>2025-05-15T12:52:03Z</time>
      </trkpt>
      <trkpt lat="42.293218011036515" lon="3.275195974856615">
        <ele>36.670000000000002</ele>
        <time>2025-05-15T12:52:04Z</time>
      </trkpt>
      <trkpt lat="42.293148022145033" lon="3.275265963748097">
        <ele>37.149999999999999</ele>
        <time>2025-05-15T12:52:05Z</time>
      </trkpt>
      <trkpt lat="42.293064035475254" lon="3.275304017588496">
        <ele>38.109999999999999</ele>
        <time>2025-05-15T12:52:06Z</time>
      </trkpt>
      <trkpt lat="42.292968984693289" lon="3.27533695846796">
        <ele>38.590000000000003</ele>
        <time>2025-05-15T12:52:07Z</time>
      </trkpt>
      <trkpt lat="42.29243497364223" lon="3.27565697953105">
        <ele>42.439999999999998</ele>
        <time>2025-05-15T12:52:14Z</time>
      </trkpt>
      <trkpt lat="42.292331960052252" lon="3.275776002556086">
        <ele>42.920000000000002</ele>
        <time>2025-05-15T12:52:16Z</time>
      </trkpt>
      <trkpt lat="42.292280998080969" lon="3.275840962305665">
        <ele>42.920000000000002</ele>
        <time>2025-05-15T12:52:17Z</time>
      </trkpt>
      <trkpt lat="42.292210003361106" lon="3.276002984493971">
        <ele>43.399999999999999</ele>
        <time>2025-05-15T12:52:19Z</time>
      </trkpt>
      <trkpt lat="42.292191982269287" lon="3.276071967557073">
        <ele>43.399999999999999</ele>
        <time>2025-05-15T12:52:20Z</time>
      </trkpt>
      <trkpt lat="42.292191982269287" lon="3.276138016954064">
        <ele>43.399999999999999</ele>
        <time>2025-05-15T12:52:21Z</time>
      </trkpt>
      <trkpt lat="42.292191982269287" lon="3.27625896781683">
        <ele>43.880000000000003</ele>
        <time>2025-05-15T12:52:23Z</time>
      </trkpt>
      <trkpt lat="42.292191982269287" lon="3.276331974193454">
        <ele>43.880000000000003</ele>
        <time>2025-05-15T12:52:24Z</time>
      </trkpt>
      <trkpt lat="42.292289966717362" lon="3.27703102491796">
        <ele>44.359999999999999</ele>
        <time>2025-05-15T12:52:32Z</time>
      </trkpt>
      <trkpt lat="42.292312011122704" lon="3.27709598466754">
        <ele>44.359999999999999</ele>
        <time>2025-05-15T12:52:33Z</time>
      </trkpt>
      <trkpt lat="42.292335983365774" lon="3.277165973559022">
        <ele>44.359999999999999</ele>
        <time>2025-05-15T12:52:34Z</time>
      </trkpt>
      <trkpt lat="42.29238904081285" lon="3.277229005470872">
        <ele>43.880000000000003</ele>
        <time>2025-05-15T12:52:35Z</time>
      </trkpt>
      <trkpt lat="42.292446959763765" lon="3.277280973270536">
        <ele>43.880000000000003</ele>
        <time>2025-05-15T12:52:36Z</time>
      </trkpt>
      <trkpt lat="42.292501023039222" lon="3.277330007404089">
        <ele>43.880000000000003</ele>
        <time>2025-05-15T12:52:37Z</time>
      </trkpt>
      <trkpt lat="42.292548967525363" lon="3.277373006567359">
        <ele>43.880000000000003</ele>
        <time>2025-05-15T12:52:38Z</time>
      </trkpt>
      <trkpt lat="42.292714007198811" lon="3.277442995458841">
        <ele>43.880000000000003</ele>
        <time>2025-05-15T12:52:41Z</time>
      </trkpt>
      <trkpt lat="42.292772009968758" lon="3.277465961873531">
        <ele>43.880000000000003</ele>
        <time>2025-05-15T12:52:42Z</time>
      </trkpt>
      <trkpt lat="42.292839987203479" lon="3.277479959651828">
        <ele>43.880000000000003</ele>
        <time>2025-05-15T12:52:43Z</time>
      </trkpt>
      <trkpt lat="42.292977031320333" lon="3.277507033199072">
        <ele>43.880000000000003</ele>
        <time>2025-05-15T12:52:45Z</time>
      </trkpt>
      <trkpt lat="42.293098988011479" lon="3.277532011270523">
        <ele>43.880000000000003</ele>
        <time>2025-05-15T12:52:47Z</time>
      </trkpt>
      <trkpt lat="42.293200995773077" lon="3.277551960200071">
        <ele>43.880000000000003</ele>
        <time>2025-05-15T12:52:49Z</time>
      </trkpt>
      <trkpt lat="42.293254975229502" lon="3.27761298045516">
        <ele>43.399999999999999</ele>
        <time>2025-05-15T12:52:50Z</time>
      </trkpt>
      <trkpt lat="42.293295040726662" lon="3.277660002931953">
        <ele>43.399999999999999</ele>
        <time>2025-05-15T12:52:51Z</time>
      </trkpt>
      <trkpt lat="42.293332004919648" lon="3.277701996266842">
        <ele>42.439999999999998</ele>
        <time>2025-05-15T12:52:52Z</time>
      </trkpt>
      <trkpt lat="42.293346002697945" lon="3.27774197794497">
        <ele>41.950000000000003</ele>
        <time>2025-05-15T12:52:53Z</time>
      </trkpt>
      <trkpt lat="42.293327981606126" lon="3.277799980714917">
        <ele>40.990000000000002</ele>
        <time>2025-05-15T12:52:54Z</time>
      </trkpt>
      <trkpt lat="42.293307026848197" lon="3.2778699696064">
        <ele>40.990000000000002</ele>
        <time>2025-05-15T12:52:55Z</time>
      </trkpt>
      <trkpt lat="42.293286994099617" lon="3.277938030660152">
        <ele>40.509999999999998</ele>
        <time>2025-05-15T12:52:56Z</time>
      </trkpt>
      <trkpt lat="42.293247012421489" lon="3.277985975146294">
        <ele>40.030000000000001</ele>
        <time>2025-05-15T12:52:57Z</time>
      </trkpt>
      <trkpt lat="42.293203007429838" lon="3.278037020936608">
        <ele>39.549999999999997</ele>
        <time>2025-05-15T12:52:58Z</time>
      </trkpt>
      <trkpt lat="42.293159002438188" lon="3.278088988736272">
        <ele>39.07</ele>
        <time>2025-05-15T12:52:59Z</time>
      </trkpt>
      <trkpt lat="42.29307996109128" lon="3.278183033689857">
        <ele>37.630000000000003</ele>
        <time>2025-05-15T12:53:01Z</time>
      </trkpt>
      <trkpt lat="42.292988011613488" lon="3.278264002874494">
        <ele>36.670000000000002</ele>
        <time>2025-05-15T12:53:03Z</time>
      </trkpt>
      <trkpt lat="42.292932020500302" lon="3.278314964845777">
        <ele>36.189999999999998</ele>
        <time>2025-05-15T12:53:04Z</time>
      </trkpt>
      <trkpt lat="42.292858008295298" lon="3.278388977050781">
        <ele>36.189999999999998</ele>
        <time>2025-05-15T12:53:05Z</time>
      </trkpt>
      <trkpt lat="42.292829006910324" lon="3.278401969000697">
        <ele>35.710000000000001</ele>
        <time>2025-05-15T12:53:06Z</time>
      </trkpt>
      <trkpt lat="42.292777961120009" lon="3.2784260250628">
        <ele>35.710000000000001</ele>
        <time>2025-05-15T12:53:07Z</time>
      </trkpt>
      <trkpt lat="42.292524995282292" lon="3.278558040037751">
        <ele>36.189999999999998</ele>
        <time>2025-05-15T12:53:12Z</time>
      </trkpt>
      <trkpt lat="42.292475961148739" lon="3.278595004230738">
        <ele>35.710000000000001</ele>
        <time>2025-05-15T12:53:13Z</time>
      </trkpt>
      <trkpt lat="42.292406978085637" lon="3.278646972030401">
        <ele>36.189999999999998</ele>
        <time>2025-05-15T12:53:14Z</time>
      </trkpt>
      <trkpt lat="42.292384011670947" lon="3.278700029477477">
        <ele>36.189999999999998</ele>
        <time>2025-05-15T12:53:15Z</time>
      </trkpt>
      <trkpt lat="42.292352998629212" lon="3.278769012540579">
        <ele>36.189999999999998</ele>
        <time>2025-05-15T12:53:16Z</time>
      </trkpt>
      <trkpt lat="42.292322991415858" lon="3.278839001432061">
        <ele>36.189999999999998</ele>
        <time>2025-05-15T12:53:17Z</time>
      </trkpt>
      <trkpt lat="42.29213397949934" lon="3.279348034411669">
        <ele>36.670000000000002</ele>
        <time>2025-05-15T12:53:24Z</time>
      </trkpt>
      <trkpt lat="42.292086035013199" lon="3.279486000537872">
        <ele>36.670000000000002</ele>
        <time>2025-05-15T12:53:26Z</time>
      </trkpt>
      <trkpt lat="42.292020991444588" lon="3.279820019379258">
        <ele>35.710000000000001</ele>
        <time>2025-05-15T12:53:35Z</time>
      </trkpt>
      <trkpt lat="42.292043035849929" lon="3.279892019927502">
        <ele>35.710000000000001</ele>
        <time>2025-05-15T12:53:36Z</time>
      </trkpt>
      <trkpt lat="42.292072959244251" lon="3.279921021312475">
        <ele>36.189999999999998</ele>
        <time>2025-05-15T12:53:37Z</time>
      </trkpt>
      <trkpt lat="42.292095003649592" lon="3.279943987727165">
        <ele>36.670000000000002</ele>
        <time>2025-05-15T12:53:38Z</time>
      </trkpt>
      <trkpt lat="42.292115958407521" lon="3.279965026304126">
        <ele>37.149999999999999</ele>
        <time>2025-05-15T12:53:39Z</time>
      </trkpt>
      <trkpt lat="42.292149988934398" lon="3.279998973011971">
        <ele>37.149999999999999</ele>
        <time>2025-05-15T12:53:40Z</time>
      </trkpt>
      <trkpt lat="42.292189970612526" lon="3.28003803268075">
        <ele>37.630000000000003</ele>
        <time>2025-05-15T12:53:41Z</time>
      </trkpt>
      <trkpt lat="42.292230958119035" lon="3.280080026015639">
        <ele>37.630000000000003</ele>
        <time>2025-05-15T12:53:42Z</time>
      </trkpt>
      <trkpt lat="42.292277980595827" lon="3.2801269646734">
        <ele>38.109999999999999</ele>
        <time>2025-05-15T12:53:43Z</time>
      </trkpt>
      <trkpt lat="42.292304970324039" lon="3.280168035998941">
        <ele>38.590000000000003</ele>
        <time>2025-05-15T12:53:44Z</time>
      </trkpt>
      <trkpt lat="42.292421981692314" lon="3.280349001288414">
        <ele>39.549999999999997</ele>
        <time>2025-05-15T12:53:47Z</time>
      </trkpt>
      <trkpt lat="42.292546033859253" lon="3.280539019033313">
        <ele>40.030000000000001</ele>
        <time>2025-05-15T12:53:51Z</time>
      </trkpt>
      <trkpt lat="42.292610993608832" lon="3.280567014589906">
        <ele>40.030000000000001</ele>
        <time>2025-05-15T12:53:52Z</time>
      </trkpt>
      <trkpt lat="42.292772009968758" lon="3.280599033460021">
        <ele>40.990000000000002</ele>
        <time>2025-05-15T12:53:55Z</time>
      </trkpt>
      <trkpt lat="42.292816014960408" lon="3.280637003481388">
        <ele>41.469999999999999</ele>
        <time>2025-05-15T12:53:56Z</time>
      </trkpt>
      <trkpt lat="42.292897989973426" lon="3.280709004029632">
        <ele>41.950000000000003</ele>
        <time>2025-05-15T12:53:58Z</time>
      </trkpt>
      <trkpt lat="42.292936965823174" lon="3.280743034556508">
        <ele>42.439999999999998</ele>
        <time>2025-05-15T12:53:59Z</time>
      </trkpt>
      <trkpt lat="42.293007960543036" lon="3.280814029276371">
        <ele>42.439999999999998</ele>
        <time>2025-05-15T12:54:01Z</time>
      </trkpt>
      <trkpt lat="42.293041991069913" lon="3.28085602261126">
        <ele>41.950000000000003</ele>
        <time>2025-05-15T12:54:02Z</time>
      </trkpt>
      <trkpt lat="42.293066969141364" lon="3.280888041481376">
        <ele>41.950000000000003</ele>
        <time>2025-05-15T12:54:03Z</time>
      </trkpt>
      <trkpt lat="42.293195966631174" lon="3.28096498735249">
        <ele>41.950000000000003</ele>
        <time>2025-05-15T12:54:06Z</time>
      </trkpt>
      <trkpt lat="42.293252041563392" lon="3.280988959595561">
        <ele>42.439999999999998</ele>
        <time>2025-05-15T12:54:07Z</time>
      </trkpt>
      <trkpt lat="42.293372992426157" lon="3.281041011214256">
        <ele>42.920000000000002</ele>
        <time>2025-05-15T12:54:09Z</time>
      </trkpt>
      <trkpt lat="42.293438035994768" lon="3.28104997985065">
        <ele>42.439999999999998</ele>
        <time>2025-05-15T12:54:10Z</time>
      </trkpt>
      <trkpt lat="42.293511964380741" lon="3.28104997985065">
        <ele>42.920000000000002</ele>
        <time>2025-05-15T12:54:11Z</time>
      </trkpt>
      <trkpt lat="42.29419601149857" lon="3.280945038422942">
        <ele>44.840000000000003</ele>
        <time>2025-05-15T12:54:19Z</time>
      </trkpt>
      <trkpt lat="42.29428100399673" lon="3.280957024544478">
        <ele>44.840000000000003</ele>
        <time>2025-05-15T12:54:20Z</time>
      </trkpt>
      <trkpt lat="42.294359961524606" lon="3.280999017879367">
        <ele>44.840000000000003</ele>
        <time>2025-05-15T12:54:21Z</time>
      </trkpt>
      <trkpt lat="42.29443397372961" lon="3.281058026477695">
        <ele>44.840000000000003</ele>
        <time>2025-05-15T12:54:22Z</time>
      </trkpt>
      <trkpt lat="42.294509997591376" lon="3.281118962913752">
        <ele>44.359999999999999</ele>
        <time>2025-05-15T12:54:23Z</time>
      </trkpt>
      <trkpt lat="42.294585015624762" lon="3.28117897734046">
        <ele>43.880000000000003</ele>
        <time>2025-05-15T12:54:24Z</time>
      </trkpt>
      <trkpt lat="42.294649975374341" lon="3.281255001202226">
        <ele>43.399999999999999</ele>
        <time>2025-05-15T12:54:25Z</time>
      </trkpt>
      <trkpt lat="42.294692974537611" lon="3.281377963721752">
        <ele>42.439999999999998</ele>
        <time>2025-05-15T12:54:26Z</time>
      </trkpt>
      <trkpt lat="42.294737985357642" lon="3.281508972868323">
        <ele>41.469999999999999</ele>
        <time>2025-05-15T12:54:27Z</time>
      </trkpt>
      <trkpt lat="42.294782996177673" lon="3.281637970358133">
        <ele>40.509999999999998</ele>
        <time>2025-05-15T12:54:28Z</time>
      </trkpt>
      <trkpt lat="42.294830018654466" lon="3.281773002818227">
        <ele>39.549999999999997</ele>
        <time>2025-05-15T12:54:29Z</time>
      </trkpt>
      <trkpt lat="42.294918028637767" lon="3.281893031671643">
        <ele>38.590000000000003</ele>
        <time>2025-05-15T12:54:30Z</time>
      </trkpt>
      <trkpt lat="42.295008972287178" lon="3.282011970877647">
        <ele>37.149999999999999</ele>
        <time>2025-05-15T12:54:31Z</time>
      </trkpt>
      <trkpt lat="42.295099999755621" lon="3.282131999731064">
        <ele>35.710000000000001</ele>
        <time>2025-05-15T12:54:32Z</time>
      </trkpt>
      <trkpt lat="42.29518499225378" lon="3.282260997220874">
        <ele>34.740000000000002</ele>
        <time>2025-05-15T12:54:33Z</time>
      </trkpt>
      <trkpt lat="42.29522799141705" lon="3.282398963347077">
        <ele>33.299999999999997</ele>
        <time>2025-05-15T12:54:34Z</time>
      </trkpt>
      <trkpt lat="42.295265039429069" lon="3.282515974715352">
        <ele>32.82</ele>
        <time>2025-05-15T12:54:35Z</time>
      </trkpt>
      <trkpt lat="42.295309966430068" lon="3.282611025497317">
        <ele>31.859999999999999</ele>
        <time>2025-05-15T12:54:36Z</time>
      </trkpt>
      <trkpt lat="42.295360006392002" lon="3.282680008560419">
        <ele>31.379999999999999</ele>
        <time>2025-05-15T12:54:37Z</time>
      </trkpt>
      <trkpt lat="42.295408034697175" lon="3.282744968309999">
        <ele>30.420000000000002</ele>
        <time>2025-05-15T12:54:38Z</time>
      </trkpt>
      <trkpt lat="42.295466959476471" lon="3.282815963029862">
        <ele>30.420000000000002</ele>
        <time>2025-05-15T12:54:39Z</time>
      </trkpt>
      <trkpt lat="42.295542983338237" lon="3.28285301104188">
        <ele>30.420000000000002</ele>
        <time>2025-05-15T12:54:40Z</time>
      </trkpt>
      <trkpt lat="42.295653959736228" lon="3.282901039347053">
        <ele>29.940000000000001</ele>
        <time>2025-05-15T12:54:41Z</time>
      </trkpt>
      <trkpt lat="42.296367008239031" lon="3.28304504044354">
        <ele>26.09</ele>
        <time>2025-05-15T12:54:46Z</time>
      </trkpt>
      <trkpt lat="42.296478990465403" lon="3.28304504044354">
        <ele>25.609999999999999</ele>
        <time>2025-05-15T12:54:47Z</time>
      </trkpt>
      <trkpt lat="42.296585021540523" lon="3.283012015745044">
        <ele>25.129999999999999</ele>
        <time>2025-05-15T12:54:48Z</time>
      </trkpt>
      <trkpt lat="42.296694992110133" lon="3.282974967733026">
        <ele>25.129999999999999</ele>
        <time>2025-05-15T12:54:49Z</time>
      </trkpt>
      <trkpt lat="42.296793982386589" lon="3.282930040732026">
        <ele>25.129999999999999</ele>
        <time>2025-05-15T12:54:50Z</time>
      </trkpt>
      <trkpt lat="42.296893978491426" lon="3.282873965799809">
        <ele>25.609999999999999</ele>
        <time>2025-05-15T12:54:51Z</time>
      </trkpt>
      <trkpt lat="42.297721020877361" lon="3.28246702440083">
        <ele>24.170000000000002</ele>
        <time>2025-05-15T12:54:59Z</time>
      </trkpt>
      <trkpt lat="42.297823028638959" lon="3.282453026622534">
        <ele>23.690000000000001</ele>
        <time>2025-05-15T12:55:00Z</time>
      </trkpt>
      <trkpt lat="42.297924030572176" lon="3.28246702440083">
        <ele>22.73</ele>
        <time>2025-05-15T12:55:01Z</time>
      </trkpt>
      <trkpt lat="42.298016985878348" lon="3.282513041049242">
        <ele>21.77</ele>
        <time>2025-05-15T12:55:02Z</time>
      </trkpt>
      <trkpt lat="42.298108013346791" lon="3.282569032162428">
        <ele>20.809999999999999</ele>
        <time>2025-05-15T12:55:03Z</time>
      </trkpt>
      <trkpt lat="42.298180013895035" lon="3.282656958326697">
        <ele>19.84</ele>
        <time>2025-05-15T12:55:04Z</time>
      </trkpt>
      <trkpt lat="42.29825503192842" lon="3.28274697996676">
        <ele>18.879999999999999</ele>
        <time>2025-05-15T12:55:05Z</time>
      </trkpt>
      <trkpt lat="42.298573963344097" lon="3.283179989084601">
        <ele>16</ele>
        <time>2025-05-15T12:55:10Z</time>
      </trkpt>
      <trkpt lat="42.298631966114044" lon="3.283291971310973">
        <ele>16</ele>
        <time>2025-05-15T12:55:11Z</time>
      </trkpt>
      <trkpt lat="42.298655016347766" lon="3.283424992114306">
        <ele>15.52</ele>
        <time>2025-05-15T12:55:12Z</time>
      </trkpt>
      <trkpt lat="42.298844028264284" lon="3.284589992836118">
        <ele>16</ele>
        <time>2025-05-15T12:55:21Z</time>
      </trkpt>
      <trkpt lat="42.298866994678974" lon="3.284699963405728">
        <ele>16.960000000000001</ele>
        <time>2025-05-15T12:55:22Z</time>
      </trkpt>
      <trkpt lat="42.298889039084315" lon="3.284804988652468">
        <ele>17.440000000000001</ele>
        <time>2025-05-15T12:55:23Z</time>
      </trkpt>
      <trkpt lat="42.298912005499005" lon="3.28491697087884">
        <ele>18.399999999999999</ele>
        <time>2025-05-15T12:55:24Z</time>
      </trkpt>
      <trkpt lat="42.298936983570457" lon="3.285035993903875">
        <ele>19.359999999999999</ele>
        <time>2025-05-15T12:55:25Z</time>
      </trkpt>
      <trkpt lat="42.298966990783811" lon="3.285164991393685">
        <ele>19.84</ele>
        <time>2025-05-15T12:55:26Z</time>
      </trkpt>
      <trkpt lat="42.299003032967448" lon="3.28530396334827">
        <ele>20.809999999999999</ele>
        <time>2025-05-15T12:55:27Z</time>
      </trkpt>
      <trkpt lat="42.299162959679961" lon="3.285888014361262">
        <ele>25.129999999999999</ele>
        <time>2025-05-15T12:55:31Z</time>
      </trkpt>
      <trkpt lat="42.29922397993505" lon="3.285993961617351">
        <ele>26.09</ele>
        <time>2025-05-15T12:55:32Z</time>
      </trkpt>
      <trkpt lat="42.299292962998152" lon="3.286060011014342">
        <ele>27.530000000000001</ele>
        <time>2025-05-15T12:55:33Z</time>
      </trkpt>
      <trkpt lat="42.299370998516679" lon="3.286126982420683">
        <ele>28.5</ele>
        <time>2025-05-15T12:55:34Z</time>
      </trkpt>
      <trkpt lat="42.299464037641883" lon="3.286146009340882">
        <ele>28.98</ele>
        <time>2025-05-15T12:55:35Z</time>
      </trkpt>
      <trkpt lat="42.299551963806152" lon="3.286156989634037">
        <ele>29.940000000000001</ele>
        <time>2025-05-15T12:55:36Z</time>
      </trkpt>
      <trkpt lat="42.29965397156775" lon="3.286077026277781">
        <ele>30.420000000000002</ele>
        <time>2025-05-15T12:55:37Z</time>
      </trkpt>
      <trkpt lat="42.299754973500967" lon="3.285997984930873">
        <ele>31.379999999999999</ele>
        <time>2025-05-15T12:55:38Z</time>
      </trkpt>
      <trkpt lat="42.299862010404468" lon="3.285913998261094">
        <ele>32.340000000000003</ele>
        <time>2025-05-15T12:55:39Z</time>
      </trkpt>
      <trkpt lat="42.300982000306249" lon="3.284988971427083">
        <ele>41.950000000000003</ele>
        <time>2025-05-15T12:55:50Z</time>
      </trkpt>
      <trkpt lat="42.301089959219098" lon="3.284912025555968">
        <ele>42.439999999999998</ele>
        <time>2025-05-15T12:55:51Z</time>
      </trkpt>
      <trkpt lat="42.30119900777936" lon="3.284906996414065">
        <ele>43.399999999999999</ele>
        <time>2025-05-15T12:55:52Z</time>
      </trkpt>
      <trkpt lat="42.301311995834112" lon="3.284900961443782">
        <ele>44.359999999999999</ele>
        <time>2025-05-15T12:55:53Z</time>
      </trkpt>
      <trkpt lat="42.301423978060484" lon="3.284896016120911">
        <ele>45.32</ele>
        <time>2025-05-15T12:55:54Z</time>
      </trkpt>
      <trkpt lat="42.301977016031742" lon="3.284870032221079">
        <ele>48.200000000000003</ele>
        <time>2025-05-15T12:56:01Z</time>
      </trkpt>
      <trkpt lat="42.302412036806345" lon="3.2848309725523">
        <ele>48.200000000000003</ele>
        <time>2025-05-15T12:56:06Z</time>
      </trkpt>
      <trkpt lat="42.302795005962253" lon="3.284783028066158">
        <ele>47.719999999999999</ele>
        <time>2025-05-15T12:56:10Z</time>
      </trkpt>
      <trkpt lat="42.303721960633993" lon="3.284468036144972">
        <ele>42.439999999999998</ele>
        <time>2025-05-15T12:56:19Z</time>
      </trkpt>
      <trkpt lat="42.303822040557861" lon="3.284406010061503">
        <ele>41.469999999999999</ele>
        <time>2025-05-15T12:56:20Z</time>
      </trkpt>
      <trkpt lat="42.303917007520795" lon="3.284345995634794">
        <ele>40.030000000000001</ele>
        <time>2025-05-15T12:56:21Z</time>
      </trkpt>
      <trkpt lat="42.303972998633981" lon="3.284310959279537">
        <ele>39.07</ele>
        <time>2025-05-15T12:56:22Z</time>
      </trkpt>
      <trkpt lat="42.304080035537481" lon="3.284356975927949">
        <ele>37.630000000000003</ele>
        <time>2025-05-15T12:56:23Z</time>
      </trkpt>
      <trkpt lat="42.304134014993906" lon="3.284391006454825">
        <ele>36.189999999999998</ele>
        <time>2025-05-15T12:56:24Z</time>
      </trkpt>
      <trkpt lat="42.304184976965189" lon="3.28446501865983">
        <ele>34.740000000000002</ele>
        <time>2025-05-15T12:56:25Z</time>
      </trkpt>
      <trkpt lat="42.304235016927123" lon="3.284535007551312">
        <ele>33.780000000000001</ele>
        <time>2025-05-15T12:56:26Z</time>
      </trkpt>
      <trkpt lat="42.304301988333464" lon="3.284599967300892">
        <ele>31.859999999999999</ele>
        <time>2025-05-15T12:56:27Z</time>
      </trkpt>
      <trkpt lat="42.30440097860992" lon="3.284633997827768">
        <ele>30.420000000000002</ele>
        <time>2025-05-15T12:56:28Z</time>
      </trkpt>
      <trkpt lat="42.304516984149814" lon="3.284672973677516">
        <ele>29.460000000000001</ele>
        <time>2025-05-15T12:56:29Z</time>
      </trkpt>
      <trkpt lat="42.305369004607201" lon="3.284923005849123">
        <ele>21.77</ele>
        <time>2025-05-15T12:56:36Z</time>
      </trkpt>
      <trkpt lat="42.305467994883657" lon="3.284899033606052">
        <ele>20.809999999999999</ele>
        <time>2025-05-15T12:56:37Z</time>
      </trkpt>
      <trkpt lat="42.305568996816874" lon="3.284811023622751">
        <ele>20.32</ele>
        <time>2025-05-15T12:56:38Z</time>
      </trkpt>
      <trkpt lat="42.30577502399683" lon="3.284598039463162">
        <ele>19.84</ele>
        <time>2025-05-15T12:56:40Z</time>
      </trkpt>
      <trkpt lat="42.305882982909679" lon="3.284503994509578">
        <ele>19.84</ele>
        <time>2025-05-15T12:56:41Z</time>
      </trkpt>
      <trkpt lat="42.305967975407839" lon="3.284503994509578">
        <ele>19.84</ele>
        <time>2025-05-15T12:56:42Z</time>
      </trkpt>
      <trkpt lat="42.306040981784463" lon="3.284577000886202">
        <ele>19.84</ele>
        <time>2025-05-15T12:56:43Z</time>
      </trkpt>
      <trkpt lat="42.306096972897649" lon="3.284632991999388">
        <ele>19.359999999999999</ele>
        <time>2025-05-15T12:56:44Z</time>
      </trkpt>
      <trkpt lat="42.306096972897649" lon="3.284736005589366">
        <ele>19.359999999999999</ele>
        <time>2025-05-15T12:56:45Z</time>
      </trkpt>
      <trkpt lat="42.306092027574778" lon="3.284841030836105">
        <ele>19.359999999999999</ele>
        <time>2025-05-15T12:56:46Z</time>
      </trkpt>
      <trkpt lat="42.306051040068269" lon="3.284962987527251">
        <ele>18.879999999999999</ele>
        <time>2025-05-15T12:56:47Z</time>
      </trkpt>
      <trkpt lat="42.306003011763096" lon="3.285106988623738">
        <ele>18.879999999999999</ele>
        <time>2025-05-15T12:56:48Z</time>
      </trkpt>
      <trkpt lat="42.305903015658259" lon="3.285407982766628">
        <ele>18.879999999999999</ele>
        <time>2025-05-15T12:56:50Z</time>
      </trkpt>
      <trkpt lat="42.305862028151751" lon="3.285536980256438">
        <ele>18.879999999999999</ele>
        <time>2025-05-15T12:56:51Z</time>
      </trkpt>
      <trkpt lat="42.305907960981131" lon="3.285638988018036">
        <ele>19.359999999999999</ele>
        <time>2025-05-15T12:56:52Z</time>
      </trkpt>
      <trkpt lat="42.305962024256587" lon="3.285759016871452">
        <ele>19.359999999999999</ele>
        <time>2025-05-15T12:56:53Z</time>
      </trkpt>
      <trkpt lat="42.306022038683295" lon="3.285892037674785">
        <ele>19.359999999999999</ele>
        <time>2025-05-15T12:56:54Z</time>
      </trkpt>
      <trkpt lat="42.306271987035871" lon="3.286297973245382">
        <ele>19.84</ele>
        <time>2025-05-15T12:56:57Z</time>
      </trkpt>
      <trkpt lat="42.306362008675933" lon="3.286396963521838">
        <ele>20.809999999999999</ele>
        <time>2025-05-15T12:56:58Z</time>
      </trkpt>
      <trkpt lat="42.306471979245543" lon="3.286412972956896">
        <ele>21.289999999999999</ele>
        <time>2025-05-15T12:56:59Z</time>
      </trkpt>
      <trkpt lat="42.306588990613818" lon="3.286430994048715">
        <ele>22.73</ele>
        <time>2025-05-15T12:57:00Z</time>
      </trkpt>
      <trkpt lat="42.306712036952376" lon="3.286449015140533">
        <ele>24.170000000000002</ele>
        <time>2025-05-15T12:57:01Z</time>
      </trkpt>
      <trkpt lat="42.306834999471903" lon="3.286456977948546">
        <ele>25.609999999999999</ele>
        <time>2025-05-15T12:57:02Z</time>
      </trkpt>
      <trkpt lat="42.30734696611762" lon="3.286427976563573">
        <ele>30.899999999999999</ele>
        <time>2025-05-15T12:57:07Z</time>
      </trkpt>
      <trkpt lat="42.307435981929302" lon="3.286375002935529">
        <ele>32.340000000000003</ele>
        <time>2025-05-15T12:57:08Z</time>
      </trkpt>
      <trkpt lat="42.307513011619449" lon="3.286327980458736">
        <ele>33.299999999999997</ele>
        <time>2025-05-15T12:57:09Z</time>
      </trkpt>
      <trkpt lat="42.307604039087892" lon="3.286209963262081">
        <ele>34.740000000000002</ele>
        <time>2025-05-15T12:57:10Z</time>
      </trkpt>
      <trkpt lat="42.30768701992929" lon="3.286102004349232">
        <ele>36.189999999999998</ele>
        <time>2025-05-15T12:57:11Z</time>
      </trkpt>
      <trkpt lat="42.307762959972024" lon="3.285984992980957">
        <ele>37.630000000000003</ele>
        <time>2025-05-15T12:57:12Z</time>
      </trkpt>
      <trkpt lat="42.307834038510919" lon="3.285853983834386">
        <ele>39.07</ele>
        <time>2025-05-15T12:57:13Z</time>
      </trkpt>
      <trkpt lat="42.307892963290215" lon="3.285707971081138">
        <ele>40.509999999999998</ele>
        <time>2025-05-15T12:57:14Z</time>
      </trkpt>
      <trkpt lat="42.307948032394052" lon="3.285547038540244">
        <ele>41.950000000000003</ele>
        <time>2025-05-15T12:57:15Z</time>
      </trkpt>
      <trkpt lat="42.308006035163999" lon="3.285376969724894">
        <ele>43.880000000000003</ele>
        <time>2025-05-15T12:57:16Z</time>
      </trkpt>
      <trkpt lat="42.308109970763326" lon="3.285073963925242">
        <ele>47.240000000000002</ele>
        <time>2025-05-15T12:57:18Z</time>
      </trkpt>
      <trkpt lat="42.308206027373672" lon="3.285034988075495">
        <ele>48.200000000000003</ele>
        <time>2025-05-15T12:57:19Z</time>
      </trkpt>
      <trkpt lat="42.308277022093534" lon="3.285013027489185">
        <ele>49.649999999999999</ele>
        <time>2025-05-15T12:57:20Z</time>
      </trkpt>
      <trkpt lat="42.308358997106552" lon="3.285038005560637">
        <ele>51.090000000000003</ele>
        <time>2025-05-15T12:57:21Z</time>
      </trkpt>
      <trkpt lat="42.308410964906216" lon="3.285129033029079">
        <ele>52.049999999999997</ele>
        <time>2025-05-15T12:57:22Z</time>
      </trkpt>
      <trkpt lat="42.308458993211389" lon="3.285245960578322">
        <ele>53.009999999999998</ele>
        <time>2025-05-15T12:57:23Z</time>
      </trkpt>
      <trkpt lat="42.308508027344942" lon="3.2853680010885">
        <ele>53.969999999999999</ele>
        <time>2025-05-15T12:57:24Z</time>
      </trkpt>
      <trkpt lat="42.308651022613049" lon="3.285719035193324">
        <ele>55.890000000000001</ele>
        <time>2025-05-15T12:57:27Z</time>
      </trkpt>
      <trkpt lat="42.308663008734584" lon="3.285848032683134">
        <ele>56.369999999999997</ele>
        <time>2025-05-15T12:57:28Z</time>
      </trkpt>
      <trkpt lat="42.308648005127907" lon="3.285970995202661">
        <ele>57.340000000000003</ele>
        <time>2025-05-15T12:57:29Z</time>
      </trkpt>
      <trkpt lat="42.308607017621398" lon="3.286090018227696">
        <ele>57.82</ele>
        <time>2025-05-15T12:57:30Z</time>
      </trkpt>
      <trkpt lat="42.308563012629747" lon="3.286218009889126">
        <ele>58.780000000000001</ele>
        <time>2025-05-15T12:57:31Z</time>
      </trkpt>
      <trkpt lat="42.308436026796699" lon="3.286586981266737">
        <ele>61.18</ele>
        <time>2025-05-15T12:57:34Z</time>
      </trkpt>
      <trkpt lat="42.308413982391357" lon="3.286707010120153">
        <ele>62.140000000000001</ele>
        <time>2025-05-15T12:57:35Z</time>
      </trkpt>
      <trkpt lat="42.30841800570488" lon="3.286856962367892">
        <ele>62.619999999999997</ele>
        <time>2025-05-15T12:57:36Z</time>
      </trkpt>
      <trkpt lat="42.308457987383008" lon="3.286996018141508">
        <ele>63.100000000000001</ele>
        <time>2025-05-15T12:57:37Z</time>
      </trkpt>
      <trkpt lat="42.308495035395026" lon="3.287127027288079">
        <ele>63.579999999999998</ele>
        <time>2025-05-15T12:57:38Z</time>
      </trkpt>
      <trkpt lat="42.308576004579663" lon="3.287205984815955">
        <ele>64.069999999999993</ele>
        <time>2025-05-15T12:57:39Z</time>
      </trkpt>
      <trkpt lat="42.308670971542597" lon="3.287283014506102">
        <ele>64.549999999999997</ele>
        <time>2025-05-15T12:57:40Z</time>
      </trkpt>
      <trkpt lat="42.308771973475814" lon="3.2873659953475">
        <ele>65.030000000000001</ele>
        <time>2025-05-15T12:57:41Z</time>
      </trkpt>
      <trkpt lat="42.30923498980701" lon="3.287722980603576">
        <ele>68.870000000000005</ele>
        <time>2025-05-15T12:57:46Z</time>
      </trkpt>
      <trkpt lat="42.309293998405337" lon="3.287722980603576">
        <ele>69.829999999999998</ele>
        <time>2025-05-15T12:57:47Z</time>
      </trkpt>
      <trkpt lat="42.309379996731877" lon="3.287670006975532">
        <ele>70.310000000000002</ele>
        <time>2025-05-15T12:57:48Z</time>
      </trkpt>
      <trkpt lat="42.309465995058417" lon="3.287616027519107">
        <ele>70.790000000000006</ele>
        <time>2025-05-15T12:57:49Z</time>
      </trkpt>
      <trkpt lat="42.309534978121519" lon="3.287521982565522">
        <ele>71.269999999999996</ele>
        <time>2025-05-15T12:57:50Z</time>
      </trkpt>
      <trkpt lat="42.309891041368246" lon="3.287105988711119">
        <ele>74.640000000000001</ele>
        <time>2025-05-15T12:57:55Z</time>
      </trkpt>
      <trkpt lat="42.309971004724503" lon="3.287084028124809">
        <ele>75.120000000000005</ele>
        <time>2025-05-15T12:57:56Z</time>
      </trkpt>
      <trkpt lat="42.310068989172578" lon="3.287057960405946">
        <ele>75.599999999999994</ele>
        <time>2025-05-15T12:57:57Z</time>
      </trkpt>
      <trkpt lat="42.310170996934175" lon="3.287092996761203">
        <ele>76.560000000000002</ele>
        <time>2025-05-15T12:57:58Z</time>
      </trkpt>
      <trkpt lat="42.310276022180915" lon="3.28712803311646">
        <ele>77.519999999999996</ele>
        <time>2025-05-15T12:57:59Z</time>
      </trkpt>
      <trkpt lat="42.310380963608623" lon="3.287162985652685">
        <ele>78</ele>
        <time>2025-05-15T12:58:00Z</time>
      </trkpt>
      <trkpt lat="42.310466961935163" lon="3.28725996427238">
        <ele>78.969999999999999</ele>
        <time>2025-05-15T12:58:01Z</time>
      </trkpt>
      <trkpt lat="42.310541979968548" lon="3.287369012832642">
        <ele>79.930000000000007</ele>
        <time>2025-05-15T12:58:02Z</time>
      </trkpt>
      <trkpt lat="42.310620015487075" lon="3.28749499283731">
        <ele>80.890000000000001</ele>
        <time>2025-05-15T12:58:03Z</time>
      </trkpt>
      <trkpt lat="42.310701990500093" lon="3.287628013640642">
        <ele>82.329999999999998</ele>
        <time>2025-05-15T12:58:04Z</time>
      </trkpt>
      <trkpt lat="42.310985969379544" lon="3.287920039147139">
        <ele>85.689999999999998</ele>
        <time>2025-05-15T12:58:07Z</time>
      </trkpt>
      <trkpt lat="42.311080014333129" lon="3.28798801638186">
        <ele>87.140000000000001</ele>
        <time>2025-05-15T12:58:08Z</time>
      </trkpt>
      <trkpt lat="42.311818040907383" lon="3.288442986086011">
        <ele>95.310000000000002</ele>
        <time>2025-05-15T12:58:18Z</time>
      </trkpt>
      <trkpt lat="42.311891969293356" lon="3.288473999127746">
        <ele>95.790000000000006</ele>
        <time>2025-05-15T12:58:19Z</time>
      </trkpt>
      <trkpt lat="42.311955001205206" lon="3.288473999127746">
        <ele>96.269999999999996</ele>
        <time>2025-05-15T12:58:20Z</time>
      </trkpt>
      <trkpt lat="42.312035970389843" lon="3.288442986086011">
        <ele>96.269999999999996</ele>
        <time>2025-05-15T12:58:21Z</time>
      </trkpt>
      <trkpt lat="42.312104031443596" lon="3.288415996357799">
        <ele>96.75</ele>
        <time>2025-05-15T12:58:22Z</time>
      </trkpt>
      <trkpt lat="42.312162034213543" lon="3.288393029943109">
        <ele>97.709999999999994</ele>
        <time>2025-05-15T12:58:23Z</time>
      </trkpt>
      <trkpt lat="42.312203021720052" lon="3.288377020508051">
        <ele>97.709999999999994</ele>
        <time>2025-05-15T12:58:24Z</time>
      </trkpt>
      <trkpt lat="42.312250966206193" lon="3.288358999416232">
        <ele>98.670000000000002</ele>
        <time>2025-05-15T12:58:30Z</time>
      </trkpt>
      <trkpt lat="42.312344005331397" lon="3.288322035223246">
        <ele>99.629999999999995</ele>
        <time>2025-05-15T12:58:32Z</time>
      </trkpt>
      <trkpt lat="42.312404019758105" lon="3.288298984989524">
        <ele>100.11</ele>
        <time>2025-05-15T12:58:33Z</time>
      </trkpt>
      <trkpt lat="42.312562018632889" lon="3.288236958906055">
        <ele>101.08</ele>
        <time>2025-05-15T12:58:35Z</time>
      </trkpt>
      <trkpt lat="42.313397023826838" lon="3.287937976419926">
        <ele>104.92</ele>
        <time>2025-05-15T12:58:43Z</time>
      </trkpt>
      <trkpt lat="42.313515963032842" lon="3.287937976419926">
        <ele>104.92</ele>
        <time>2025-05-15T12:58:44Z</time>
      </trkpt>
      <trkpt lat="42.313643032684922" lon="3.287937976419926">
        <ele>104.92</ele>
        <time>2025-05-15T12:58:45Z</time>
      </trkpt>
      <trkpt lat="42.314860001206398" lon="3.288263026624918">
        <ele>97.230000000000004</ele>
        <time>2025-05-15T12:58:55Z</time>
      </trkpt>
      <trkpt lat="42.316279979422688" lon="3.288556979969144">
        <ele>93.390000000000001</ele>
        <time>2025-05-15T12:59:07Z</time>
      </trkpt>
      <trkpt lat="42.316396990790963" lon="3.288581036031246">
        <ele>92.900000000000006</ele>
        <time>2025-05-15T12:59:08Z</time>
      </trkpt>
      <trkpt lat="42.316494975239038" lon="3.288659993559122">
        <ele>91.939999999999998</ele>
        <time>2025-05-15T12:59:09Z</time>
      </trkpt>
      <trkpt lat="42.316578039899468" lon="3.288726964965463">
        <ele>90.980000000000004</ele>
        <time>2025-05-15T12:59:10Z</time>
      </trkpt>
      <trkpt lat="42.316635036841035" lon="3.288845987990499">
        <ele>90.5</ele>
        <time>2025-05-15T12:59:11Z</time>
      </trkpt>
      <trkpt lat="42.316665966063738" lon="3.288972973823547">
        <ele>89.540000000000006</ele>
        <time>2025-05-15T12:59:12Z</time>
      </trkpt>
      <trkpt lat="42.316699996590614" lon="3.289109012112021">
        <ele>89.060000000000002</ele>
        <time>2025-05-15T12:59:13Z</time>
      </trkpt>
      <trkpt lat="42.316761016845703" lon="3.289239015430212">
        <ele>89.060000000000002</ele>
        <time>2025-05-15T12:59:14Z</time>
      </trkpt>
      <trkpt lat="42.31684198603034" lon="3.2893449626863">
        <ele>89.060000000000002</ele>
        <time>2025-05-15T12:59:15Z</time>
      </trkpt>
      <trkpt lat="42.316923039034009" lon="3.289451999589801">
        <ele>89.060000000000002</ele>
        <time>2025-05-15T12:59:16Z</time>
      </trkpt>
      <trkpt lat="42.31714197434485" lon="3.289740001782775">
        <ele>90.019999999999996</ele>
        <time>2025-05-15T12:59:19Z</time>
      </trkpt>
      <trkpt lat="42.317226966843009" lon="3.289799010381103">
        <ele>90.5</ele>
        <time>2025-05-15T12:59:20Z</time>
      </trkpt>
      <trkpt lat="42.317315982654691" lon="3.289784006774426">
        <ele>90.980000000000004</ele>
        <time>2025-05-15T12:59:21Z</time>
      </trkpt>
      <trkpt lat="42.317412039265037" lon="3.289767997339368">
        <ele>91.459999999999994</ele>
        <time>2025-05-15T12:59:22Z</time>
      </trkpt>
      <trkpt lat="42.317513963207603" lon="3.28975098207593">
        <ele>91.459999999999994</ele>
        <time>2025-05-15T12:59:23Z</time>
      </trkpt>
      <trkpt lat="42.317930040881038" lon="3.289680993184447">
        <ele>94.349999999999994</ele>
        <time>2025-05-15T12:59:27Z</time>
      </trkpt>
      <trkpt lat="42.318016961216927" lon="3.289709994569421">
        <ele>94.829999999999998</ele>
        <time>2025-05-15T12:59:28Z</time>
      </trkpt>
      <trkpt lat="42.318094996735454" lon="3.289758022874594">
        <ele>95.310000000000002</ele>
        <time>2025-05-15T12:59:29Z</time>
      </trkpt>
      <trkpt lat="42.318156016990542" lon="3.289833962917328">
        <ele>95.790000000000006</ele>
        <time>2025-05-15T12:59:30Z</time>
      </trkpt>
      <trkpt lat="42.318198010325432" lon="3.289934964850545">
        <ele>96.269999999999996</ele>
        <time>2025-05-15T12:59:31Z</time>
      </trkpt>
      <trkpt lat="42.318241009488702" lon="3.290048036724329">
        <ele>97.230000000000004</ele>
        <time>2025-05-15T12:59:32Z</time>
      </trkpt>
      <trkpt lat="42.318219970911741" lon="3.290161024779081">
        <ele>97.709999999999994</ele>
        <time>2025-05-15T12:59:33Z</time>
      </trkpt>
      <trkpt lat="42.31819499284029" lon="3.290284993126988">
        <ele>98.189999999999998</ele>
        <time>2025-05-15T12:59:34Z</time>
      </trkpt>
      <trkpt lat="42.318143025040627" lon="3.290385995060206">
        <ele>98.670000000000002</ele>
        <time>2025-05-15T12:59:35Z</time>
      </trkpt>
      <trkpt lat="42.318091979250312" lon="3.290484985336661">
        <ele>99.150000000000006</ele>
        <time>2025-05-15T12:59:36Z</time>
      </trkpt>
      <trkpt lat="42.318037999793887" lon="3.290590010583401">
        <ele>99.629999999999995</ele>
        <time>2025-05-15T12:59:37Z</time>
      </trkpt>
      <trkpt lat="42.31787396594882" lon="3.290907014161348">
        <ele>102.04000000000001</ele>
        <time>2025-05-15T12:59:40Z</time>
      </trkpt>
      <trkpt lat="42.317827027291059" lon="3.291012039408088">
        <ele>103</ele>
        <time>2025-05-15T12:59:41Z</time>
      </trkpt>
      <trkpt lat="42.317796014249325" lon="3.291127039119601">
        <ele>103.48</ele>
        <time>2025-05-15T12:59:42Z</time>
      </trkpt>
      <trkpt lat="42.317786039784551" lon="3.291265005245805">
        <ele>104.92</ele>
        <time>2025-05-15T12:59:43Z</time>
      </trkpt>
      <trkpt lat="42.317826021462679" lon="3.291376987472177">
        <ele>105.88</ele>
        <time>2025-05-15T12:59:44Z</time>
      </trkpt>
      <trkpt lat="42.317869020625949" lon="3.291493998840451">
        <ele>106.36</ele>
        <time>2025-05-15T12:59:45Z</time>
      </trkpt>
      <trkpt lat="42.317913025617599" lon="3.291616039350629">
        <ele>106.84</ele>
        <time>2025-05-15T12:59:46Z</time>
      </trkpt>
      <trkpt lat="42.318460028618574" lon="3.293115980923176">
        <ele>115.5</ele>
        <time>2025-05-15T12:59:59Z</time>
      </trkpt>
      <trkpt lat="42.318504033610225" lon="3.293202985078096">
        <ele>115.98</ele>
        <time>2025-05-15T13:00:00Z</time>
      </trkpt>
      <trkpt lat="42.318615010008216" lon="3.293228968977928">
        <ele>115.5</ele>
        <time>2025-05-15T13:00:01Z</time>
      </trkpt>
      <trkpt lat="42.318702014163136" lon="3.293221006169915">
        <ele>115.01000000000001</ele>
        <time>2025-05-15T13:00:02Z</time>
      </trkpt>
      <trkpt lat="42.318802010267973" lon="3.293212037533522">
        <ele>114.53</ele>
        <time>2025-05-15T13:00:03Z</time>
      </trkpt>
      <trkpt lat="42.318904018029571" lon="3.293202985078096">
        <ele>113.09</ele>
        <time>2025-05-15T13:00:04Z</time>
      </trkpt>
      <trkpt lat="42.319003008306026" lon="3.293194016441703">
        <ele>112.61</ele>
        <time>2025-05-15T13:00:05Z</time>
      </trkpt>
      <trkpt lat="42.319195037707686" lon="3.293177001178265">
        <ele>111.17</ele>
        <time>2025-05-15T13:00:07Z</time>
      </trkpt>
      <trkpt lat="42.319295033812523" lon="3.293189993128181">
        <ele>110.69</ele>
        <time>2025-05-15T13:00:08Z</time>
      </trkpt>
      <trkpt lat="42.319393018260598" lon="3.293213965371251">
        <ele>110.20999999999999</ele>
        <time>2025-05-15T13:00:09Z</time>
      </trkpt>
      <trkpt lat="42.319485973566771" lon="3.293272973969579">
        <ele>109.25</ele>
        <time>2025-05-15T13:00:10Z</time>
      </trkpt>
      <trkpt lat="42.319569038227201" lon="3.293353021144867">
        <ele>108.29000000000001</ele>
        <time>2025-05-15T13:00:11Z</time>
      </trkpt>
      <trkpt lat="42.319644978269935" lon="3.293449999764562">
        <ele>107.81</ele>
        <time>2025-05-15T13:00:12Z</time>
      </trkpt>
      <trkpt lat="42.319722007960081" lon="3.293546978384256">
        <ele>107.31999999999999</ele>
        <time>2025-05-15T13:00:13Z</time>
      </trkpt>
      <trkpt lat="42.31978302821517" lon="3.293674970045686">
        <ele>106.36</ele>
        <time>2025-05-15T13:00:14Z</time>
      </trkpt>
      <trkpt lat="42.319816974923015" lon="3.293820982798934">
        <ele>105.40000000000001</ele>
        <time>2025-05-15T13:00:15Z</time>
      </trkpt>
      <trkpt lat="42.319854022935033" lon="3.293976970016956">
        <ele>104.92</ele>
        <time>2025-05-15T13:00:16Z</time>
      </trkpt>
      <trkpt lat="42.319890987128019" lon="3.294133963063359">
        <ele>103.95999999999999</ele>
        <time>2025-05-15T13:00:17Z</time>
      </trkpt>
      <trkpt lat="42.319927029311657" lon="3.29428500495851">
        <ele>103</ele>
        <time>2025-05-15T13:00:18Z</time>
      </trkpt>
      <trkpt lat="42.319958964362741" lon="3.294418025761843">
        <ele>102.04000000000001</ele>
        <time>2025-05-15T13:00:19Z</time>
      </trkpt>
      <trkpt lat="42.320028031244874" lon="3.294555991888046">
        <ele>101.08</ele>
        <time>2025-05-15T13:00:20Z</time>
      </trkpt>
      <trkpt lat="42.320086034014821" lon="3.29467199742794">
        <ele>100.59999999999999</ele>
        <time>2025-05-15T13:00:21Z</time>
      </trkpt>
      <trkpt lat="42.320168009027839" lon="3.294741986319423">
        <ele>100.11</ele>
        <time>2025-05-15T13:00:22Z</time>
      </trkpt>
      <trkpt lat="42.320255013182759" lon="3.294814992696047">
        <ele>99.629999999999995</ele>
        <time>2025-05-15T13:00:23Z</time>
      </trkpt>
      <trkpt lat="42.320345034822822" lon="3.294890010729432">
        <ele>99.629999999999995</ele>
        <time>2025-05-15T13:00:24Z</time>
      </trkpt>
      <trkpt lat="42.320434972643852" lon="3.294943990185857">
        <ele>99.150000000000006</ele>
        <time>2025-05-15T13:00:25Z</time>
      </trkpt>
      <trkpt lat="42.320701014250517" lon="3.295030994340777">
        <ele>98.189999999999998</ele>
        <time>2025-05-15T13:00:28Z</time>
      </trkpt>
      <trkpt lat="42.320785000920296" lon="3.295039040967822">
        <ele>97.709999999999994</ele>
        <time>2025-05-15T13:00:29Z</time>
      </trkpt>
      <trkpt lat="42.320870999246836" lon="3.295010039582849">
        <ele>97.230000000000004</ele>
        <time>2025-05-15T13:00:30Z</time>
      </trkpt>
      <trkpt lat="42.320961020886898" lon="3.294973997399211">
        <ele>96.75</ele>
        <time>2025-05-15T13:00:31Z</time>
      </trkpt>
      <trkpt lat="42.321051964536309" lon="3.294937033206224">
        <ele>95.790000000000006</ele>
        <time>2025-05-15T13:00:32Z</time>
      </trkpt>
      <trkpt lat="42.32122496701777" lon="3.294868972152472">
        <ele>94.349999999999994</ele>
        <time>2025-05-15T13:00:34Z</time>
      </trkpt>
      <trkpt lat="42.321342984214425" lon="3.294890010729432">
        <ele>93.390000000000001</ele>
        <time>2025-05-15T13:00:35Z</time>
      </trkpt>
      <trkpt lat="42.32146100141108" lon="3.294910965487361">
        <ele>91.939999999999998</ele>
        <time>2025-05-15T13:00:36Z</time>
      </trkpt>
      <trkpt lat="42.32152302749455" lon="3.294961005449295">
        <ele>90.5</ele>
        <time>2025-05-15T13:00:37Z</time>
      </trkpt>
      <trkpt lat="42.321593016386032" lon="3.295053038746119">
        <ele>89.540000000000006</ele>
        <time>2025-05-15T13:00:38Z</time>
      </trkpt>
      <trkpt lat="42.321635009720922" lon="3.295148005709052">
        <ele>88.099999999999994</ele>
        <time>2025-05-15T13:00:39Z</time>
      </trkpt>
      <trkpt lat="42.321654036641121" lon="3.295256970450282">
        <ele>86.659999999999997</ele>
        <time>2025-05-15T13:00:40Z</time>
      </trkpt>
      <trkpt lat="42.321654036641121" lon="3.295375993475318">
        <ele>85.209999999999994</ele>
        <time>2025-05-15T13:00:41Z</time>
      </trkpt>
      <trkpt lat="42.321654036641121" lon="3.295956021174789">
        <ele>79.930000000000007</ele>
        <time>2025-05-15T13:00:45Z</time>
      </trkpt>
      <trkpt lat="42.321641966700554" lon="3.296074038371444">
        <ele>78.480000000000004</ele>
        <time>2025-05-15T13:00:46Z</time>
      </trkpt>
      <trkpt lat="42.3216119594872" lon="3.296187026426196">
        <ele>77.519999999999996</ele>
        <time>2025-05-15T13:00:47Z</time>
      </trkpt>
      <trkpt lat="42.321556974202394" lon="3.296401016414166">
        <ele>75.599999999999994</ele>
        <time>2025-05-15T13:00:49Z</time>
      </trkpt>
      <trkpt lat="42.32131096534431" lon="3.297465015202761">
        <ele>66.950000000000003</ele>
        <time>2025-05-15T13:00:57Z</time>
      </trkpt>
      <trkpt lat="42.321257991716266" lon="3.297560987994075">
        <ele>66.469999999999999</ele>
        <time>2025-05-15T13:00:58Z</time>
      </trkpt>
      <trkpt lat="42.321200994774699" lon="3.297662995755673">
        <ele>65.989999999999995</ele>
        <time>2025-05-15T13:00:59Z</time>
      </trkpt>
      <trkpt lat="42.321143997833133" lon="3.297767015174031">
        <ele>65.510000000000005</ele>
        <time>2025-05-15T13:01:00Z</time>
      </trkpt>
      <trkpt lat="42.321075014770031" lon="3.29789400100708">
        <ele>65.989999999999995</ele>
        <time>2025-05-15T13:01:01Z</time>
      </trkpt>
      <trkpt lat="42.32100997120142" lon="3.29797899350524">
        <ele>65.510000000000005</ele>
        <time>2025-05-15T13:01:02Z</time>
      </trkpt>
      <trkpt lat="42.320374958217144" lon="3.298813998699188">
        <ele>65.510000000000005</ele>
        <time>2025-05-15T13:01:10Z</time>
      </trkpt>
      <trkpt lat="42.320303963497281" lon="3.298939978703857">
        <ele>65.510000000000005</ele>
        <time>2025-05-15T13:01:11Z</time>
      </trkpt>
      <trkpt lat="42.32025601901114" lon="3.299090014770627">
        <ele>65.510000000000005</ele>
        <time>2025-05-15T13:01:12Z</time>
      </trkpt>
      <trkpt lat="42.319497037678957" lon="3.301054984331131">
        <ele>62.619999999999997</ele>
        <time>2025-05-15T13:01:25Z</time>
      </trkpt>
      <trkpt lat="42.319007031619549" lon="3.301977999508381">
        <ele>64.549999999999997</ele>
        <time>2025-05-15T13:01:32Z</time>
      </trkpt>
      <trkpt lat="42.318973001092672" lon="3.302134992554784">
        <ele>64.549999999999997</ele>
        <time>2025-05-15T13:01:33Z</time>
      </trkpt>
      <trkpt lat="42.318938970565796" lon="3.302292991429567">
        <ele>65.510000000000005</ele>
        <time>2025-05-15T13:01:34Z</time>
      </trkpt>
      <trkpt lat="42.318908963352442" lon="3.302456019446254">
        <ele>65.510000000000005</ele>
        <time>2025-05-15T13:01:35Z</time>
      </trkpt>
      <trkpt lat="42.318933019414544" lon="3.302612006664276">
        <ele>66.469999999999999</ele>
        <time>2025-05-15T13:01:36Z</time>
      </trkpt>
      <trkpt lat="42.318955985829234" lon="3.302766988053918">
        <ele>67.430000000000007</ele>
        <time>2025-05-15T13:01:37Z</time>
      </trkpt>
      <trkpt lat="42.318980041891336" lon="3.302926998585463">
        <ele>67.909999999999997</ele>
        <time>2025-05-15T13:01:38Z</time>
      </trkpt>
      <trkpt lat="42.319299979135394" lon="3.304987018927932">
        <ele>70.790000000000006</ele>
        <time>2025-05-15T13:01:49Z</time>
      </trkpt>
      <trkpt lat="42.319687977433205" lon="3.307085009291768">
        <ele>64.069999999999993</ele>
        <time>2025-05-15T13:02:01Z</time>
      </trkpt>
      <trkpt lat="42.319846982136369" lon="3.308139033615589">
        <ele>57.82</ele>
        <time>2025-05-15T13:02:09Z</time>
      </trkpt>
      <trkpt lat="42.319834996014833" lon="3.30826903693378">
        <ele>56.859999999999999</ele>
        <time>2025-05-15T13:02:10Z</time>
      </trkpt>
      <trkpt lat="42.319822004064918" lon="3.308404991403222">
        <ele>55.890000000000001</ele>
        <time>2025-05-15T13:02:11Z</time>
      </trkpt>
      <trkpt lat="42.319809012115002" lon="3.308558966964483">
        <ele>54.93</ele>
        <time>2025-05-15T13:02:12Z</time>
      </trkpt>
      <trkpt lat="42.319769030436873" lon="3.308675978332758">
        <ele>53.969999999999999</ele>
        <time>2025-05-15T13:02:13Z</time>
      </trkpt>
      <trkpt lat="42.319727037101984" lon="3.308801958337426">
        <ele>53.009999999999998</ele>
        <time>2025-05-15T13:02:14Z</time>
      </trkpt>
      <trkpt lat="42.319662999361753" lon="3.30891796387732">
        <ele>52.049999999999997</ele>
        <time>2025-05-15T13:02:15Z</time>
      </trkpt>
      <trkpt lat="42.319588987156749" lon="3.308992981910706">
        <ele>51.090000000000003</ele>
        <time>2025-05-15T13:02:16Z</time>
      </trkpt>
      <trkpt lat="42.319517992436886" lon="3.309063976630569">
        <ele>49.649999999999999</ele>
        <time>2025-05-15T13:02:17Z</time>
      </trkpt>
      <trkpt lat="42.319437023252249" lon="3.309119967743754">
        <ele>48.200000000000003</ele>
        <time>2025-05-15T13:02:18Z</time>
      </trkpt>
      <trkpt lat="42.319350019097328" lon="3.309177970513701">
        <ele>47.240000000000002</ele>
        <time>2025-05-15T13:02:19Z</time>
      </trkpt>
      <trkpt lat="42.319255974143744" lon="3.30923899076879">
        <ele>46.280000000000001</ele>
        <time>2025-05-15T13:02:20Z</time>
      </trkpt>
      <trkpt lat="42.318833023309708" lon="3.30951701849699">
        <ele>41.469999999999999</ele>
        <time>2025-05-15T13:02:25Z</time>
      </trkpt>
      <trkpt lat="42.318770997226238" lon="3.309558006003499">
        <ele>40.509999999999998</ele>
        <time>2025-05-15T13:02:26Z</time>
      </trkpt>
      <trkpt lat="42.318741995841265" lon="3.309619026258588">
        <ele>39.549999999999997</ele>
        <time>2025-05-15T13:02:27Z</time>
      </trkpt>
      <trkpt lat="42.318719029426575" lon="3.309701001271606">
        <ele>38.590000000000003</ele>
        <time>2025-05-15T13:02:28Z</time>
      </trkpt>
      <trkpt lat="42.318694973364472" lon="3.309783982113004">
        <ele>38.109999999999999</ele>
        <time>2025-05-15T13:02:29Z</time>
      </trkpt>
      <trkpt lat="42.318671001121402" lon="3.309866962954402">
        <ele>37.149999999999999</ele>
        <time>2025-05-15T13:02:30Z</time>
      </trkpt>
      <trkpt lat="42.318703019991517" lon="3.30994701012969">
        <ele>36.189999999999998</ele>
        <time>2025-05-15T13:02:31Z</time>
      </trkpt>
      <trkpt lat="42.318714000284672" lon="3.309975005686283">
        <ele>35.710000000000001</ele>
        <time>2025-05-15T13:02:32Z</time>
      </trkpt>
      <trkpt lat="42.318808967247605" lon="3.310022028163075">
        <ele>34.740000000000002</ele>
        <time>2025-05-15T13:02:33Z</time>
      </trkpt>
      <trkpt lat="42.318928996101022" lon="3.310081958770752">
        <ele>33.780000000000001</ele>
        <time>2025-05-15T13:02:34Z</time>
      </trkpt>
      <trkpt lat="42.318965960294008" lon="3.310073995962739">
        <ele>32.82</ele>
        <time>2025-05-15T13:02:35Z</time>
      </trkpt>
      <trkpt lat="42.319058999419212" lon="3.310053963214159">
        <ele>31.859999999999999</ele>
        <time>2025-05-15T13:02:36Z</time>
      </trkpt>
      <trkpt lat="42.319151032716036" lon="3.310035020112991">
        <ele>30.420000000000002</ele>
        <time>2025-05-15T13:02:37Z</time>
      </trkpt>
      <trkpt lat="42.319261003285646" lon="3.310035020112991">
        <ele>29.940000000000001</ele>
        <time>2025-05-15T13:02:38Z</time>
      </trkpt>
      <trkpt lat="42.319342978298664" lon="3.310082964599133">
        <ele>28.98</ele>
        <time>2025-05-15T13:02:39Z</time>
      </trkpt>
      <trkpt lat="42.319406010210514" lon="3.310182960703969">
        <ele>28.02</ele>
        <time>2025-05-15T13:02:40Z</time>
      </trkpt>
      <trkpt lat="42.319438029080629" lon="3.310279017314315">
        <ele>27.050000000000001</ele>
        <time>2025-05-15T13:02:41Z</time>
      </trkpt>
      <trkpt lat="42.319464012980461" lon="3.310386976227164">
        <ele>26.57</ele>
        <time>2025-05-15T13:02:42Z</time>
      </trkpt>
      <trkpt lat="42.319455966353416" lon="3.310521002858877">
        <ele>25.609999999999999</ele>
        <time>2025-05-15T13:02:43Z</time>
      </trkpt>
      <trkpt lat="42.319446997717023" lon="3.310679001733661">
        <ele>25.129999999999999</ele>
        <time>2025-05-15T13:02:44Z</time>
      </trkpt>
      <trkpt lat="42.319435011595488" lon="3.310843035578728">
        <ele>24.170000000000002</ele>
        <time>2025-05-15T13:02:45Z</time>
      </trkpt>
      <trkpt lat="42.319259997457266" lon="3.312527965754271">
        <ele>21.77</ele>
        <time>2025-05-15T13:02:55Z</time>
      </trkpt>
      <trkpt lat="42.319189002737403" lon="3.313044961541891">
        <ele>25.609999999999999</ele>
        <time>2025-05-15T13:02:59Z</time>
      </trkpt>
      <trkpt lat="42.319144997745752" lon="3.313139006495476">
        <ele>27.050000000000001</ele>
        <time>2025-05-15T13:03:00Z</time>
      </trkpt>
      <trkpt lat="42.319093029946089" lon="3.31323497928679">
        <ele>28.02</ele>
        <time>2025-05-15T13:03:01Z</time>
      </trkpt>
      <trkpt lat="42.319023963063955" lon="3.313309997320175">
        <ele>28.98</ele>
        <time>2025-05-15T13:03:02Z</time>
      </trkpt>
      <trkpt lat="42.318935031071305" lon="3.313335981220007">
        <ele>29.940000000000001</ele>
        <time>2025-05-15T13:03:03Z</time>
      </trkpt>
      <trkpt lat="42.318852972239256" lon="3.313360037282109">
        <ele>30.899999999999999</ele>
        <time>2025-05-15T13:03:04Z</time>
      </trkpt>
      <trkpt lat="42.318775020539761" lon="3.313383003696799">
        <ele>31.859999999999999</ele>
        <time>2025-05-15T13:03:05Z</time>
      </trkpt>
      <trkpt lat="42.318694973364472" lon="3.313405970111489">
        <ele>32.82</ele>
        <time>2025-05-15T13:03:06Z</time>
      </trkpt>
      <trkpt lat="42.318611992523074" lon="3.313430026173592">
        <ele>33.780000000000001</ele>
        <time>2025-05-15T13:03:07Z</time>
      </trkpt>
      <trkpt lat="42.318535968661308" lon="3.313475959002972">
        <ele>34.259999999999998</ele>
        <time>2025-05-15T13:03:08Z</time>
      </trkpt>
      <trkpt lat="42.318511996418238" lon="3.313563968986273">
        <ele>35.229999999999997</ele>
        <time>2025-05-15T13:03:09Z</time>
      </trkpt>
      <trkpt lat="42.318487018346786" lon="3.313654996454716">
        <ele>35.710000000000001</ele>
        <time>2025-05-15T13:03:10Z</time>
      </trkpt>
      <trkpt lat="42.318496992811561" lon="3.313733031973243">
        <ele>36.670000000000002</ele>
        <time>2025-05-15T13:03:11Z</time>
      </trkpt>
      <trkpt lat="42.318530017510056" lon="3.313816012814641">
        <ele>37.630000000000003</ele>
        <time>2025-05-15T13:03:12Z</time>
      </trkpt>
      <trkpt lat="42.318590031936765" lon="3.313890025019646">
        <ele>38.590000000000003</ele>
        <time>2025-05-15T13:03:13Z</time>
      </trkpt>
      <trkpt lat="42.318659014999866" lon="3.313859011977911">
        <ele>39.549999999999997</ele>
        <time>2025-05-15T13:03:14Z</time>
      </trkpt>
      <trkpt lat="42.318739984184504" lon="3.313822969794273">
        <ele>40.509999999999998</ele>
        <time>2025-05-15T13:03:15Z</time>
      </trkpt>
      <trkpt lat="42.318823970854282" lon="3.313786005601287">
        <ele>40.990000000000002</ele>
        <time>2025-05-15T13:03:16Z</time>
      </trkpt>
      <trkpt lat="42.319057993590832" lon="3.313681986182928">
        <ele>43.399999999999999</ele>
        <time>2025-05-15T13:03:19Z</time>
      </trkpt>
      <trkpt lat="42.319124964997172" lon="3.313651978969574">
        <ele>43.880000000000003</ele>
        <time>2025-05-15T13:03:20Z</time>
      </trkpt>
      <trkpt lat="42.319203000515699" lon="3.313657008111477">
        <ele>44.359999999999999</ele>
        <time>2025-05-15T13:03:21Z</time>
      </trkpt>
      <trkpt lat="42.319281036034226" lon="3.313674023374915">
        <ele>45.32</ele>
        <time>2025-05-15T13:03:22Z</time>
      </trkpt>
      <trkpt lat="42.319356976076961" lon="3.313710987567902">
        <ele>45.799999999999997</ele>
        <time>2025-05-15T13:03:23Z</time>
      </trkpt>
      <trkpt lat="42.319415984675288" lon="3.313781982287765">
        <ele>47.240000000000002</ele>
        <time>2025-05-15T13:03:24Z</time>
      </trkpt>
      <trkpt lat="42.319479016587138" lon="3.31385700032115">
        <ele>48.200000000000003</ele>
        <time>2025-05-15T13:03:25Z</time>
      </trkpt>
      <trkpt lat="42.319540036842227" lon="3.313930006697774">
        <ele>49.649999999999999</ele>
        <time>2025-05-15T13:03:26Z</time>
      </trkpt>
      <trkpt lat="42.319602984935045" lon="3.314005024731159">
        <ele>50.609999999999999</ele>
        <time>2025-05-15T13:03:27Z</time>
      </trkpt>
      <trkpt lat="42.319905990734696" lon="3.314430993050337">
        <ele>56.859999999999999</ele>
        <time>2025-05-15T13:03:33Z</time>
      </trkpt>
      <trkpt lat="42.319922000169754" lon="3.314535012468696">
        <ele>57.340000000000003</ele>
        <time>2025-05-15T13:03:34Z</time>
      </trkpt>
      <trkpt lat="42.31993499211967" lon="3.314639031887054">
        <ele>57.82</ele>
        <time>2025-05-15T13:03:35Z</time>
      </trkpt>
      <trkpt lat="42.319905990734696" lon="3.314736010506749">
        <ele>58.780000000000001</ele>
        <time>2025-05-15T13:03:36Z</time>
      </trkpt>
      <trkpt lat="42.319872966036201" lon="3.31484598107636">
        <ele>59.740000000000002</ele>
        <time>2025-05-15T13:03:37Z</time>
      </trkpt>
      <trkpt lat="42.31980599462986" lon="3.314899038523436">
        <ele>60.219999999999999</ele>
        <time>2025-05-15T13:03:38Z</time>
      </trkpt>
      <trkpt lat="42.319722007960081" lon="3.314928961917758">
        <ele>60.700000000000003</ele>
        <time>2025-05-15T13:03:39Z</time>
      </trkpt>
      <trkpt lat="42.319636009633541" lon="3.314923010766506">
        <ele>61.18</ele>
        <time>2025-05-15T13:03:40Z</time>
      </trkpt>
      <trkpt lat="42.319554034620523" lon="3.314917981624603">
        <ele>61.18</ele>
        <time>2025-05-15T13:03:41Z</time>
      </trkpt>
      <trkpt lat="42.319479016587138" lon="3.314913958311081">
        <ele>61.659999999999997</ele>
        <time>2025-05-15T13:03:42Z</time>
      </trkpt>
      <trkpt lat="42.319422019645572" lon="3.31491001881659">
        <ele>62.140000000000001</ele>
        <time>2025-05-15T13:03:43Z</time>
      </trkpt>
      <trkpt lat="42.319344989955425" lon="3.314968021586537">
        <ele>63.100000000000001</ele>
        <time>2025-05-15T13:03:44Z</time>
      </trkpt>
      <trkpt lat="42.319279024377465" lon="3.315016971901059">
        <ele>63.579999999999998</ele>
        <time>2025-05-15T13:03:45Z</time>
      </trkpt>
      <trkpt lat="42.319251028820872" lon="3.315102970227599">
        <ele>64.069999999999993</ele>
        <time>2025-05-15T13:03:46Z</time>
      </trkpt>
      <trkpt lat="42.319251028820872" lon="3.315209001302719">
        <ele>65.030000000000001</ele>
        <time>2025-05-15T13:03:47Z</time>
      </trkpt>
      <trkpt lat="42.319251028820872" lon="3.315317966043949">
        <ele>65.510000000000005</ele>
        <time>2025-05-15T13:03:48Z</time>
      </trkpt>
      <trkpt lat="42.319271983578801" lon="3.315422991290689">
        <ele>65.989999999999995</ele>
        <time>2025-05-15T13:03:49Z</time>
      </trkpt>
      <trkpt lat="42.319291010499001" lon="3.315521981567144">
        <ele>66.950000000000003</ele>
        <time>2025-05-15T13:03:50Z</time>
      </trkpt>
      <trkpt lat="42.319298973307014" lon="3.31561996601522">
        <ele>67.430000000000007</ele>
        <time>2025-05-15T13:03:51Z</time>
      </trkpt>
      <trkpt lat="42.319304002448916" lon="3.315707975998521">
        <ele>67.909999999999997</ele>
        <time>2025-05-15T13:03:52Z</time>
      </trkpt>
      <trkpt lat="42.319309031590819" lon="3.31578902900219">
        <ele>68.390000000000001</ele>
        <time>2025-05-15T13:03:53Z</time>
      </trkpt>
      <trkpt lat="42.31931297108531" lon="3.31585600040853">
        <ele>68.390000000000001</ele>
        <time>2025-05-15T13:03:54Z</time>
      </trkpt>
      <trkpt lat="42.319314982742071" lon="3.315896987915039">
        <ele>69.349999999999994</ele>
        <time>2025-05-15T13:03:55Z</time>
      </trkpt>
      <trkpt lat="42.319279024377465" lon="3.315957002341747">
        <ele>69.829999999999998</ele>
        <time>2025-05-15T13:03:56Z</time>
      </trkpt>
      <trkpt lat="42.319264020770788" lon="3.315981980413199">
        <ele>70.310000000000002</ele>
        <time>2025-05-15T13:03:57Z</time>
      </trkpt>
      <trkpt lat="42.319314982742071" lon="3.315896987915039">
        <ele>71.269999999999996</ele>
        <time>2025-05-15T13:03:58Z</time>
      </trkpt>
      <trkpt lat="42.319314982742071" lon="3.315896987915039">
        <ele>71.760000000000005</ele>
        <time>2025-05-15T13:03:59Z</time>
      </trkpt>
      <trkpt lat="42.319314982742071" lon="3.315896987915039">
        <ele>73.200000000000003</ele>
        <time>2025-05-15T13:04:14Z</time>
      </trkpt>
      <trkpt lat="42.319336021319032" lon="3.315978040918708">
        <ele>67.430000000000007</ele>
        <time>2025-05-15T13:59:38Z</time>
      </trkpt>
      <trkpt lat="42.319271983578801" lon="3.316111983731389">
        <ele>71.269999999999996</ele>
        <time>2025-05-15T14:00:12Z</time>
      </trkpt>
      <trkpt lat="42.319278018549085" lon="3.316148025915027">
        <ele>74.640000000000001</ele>
        <time>2025-05-15T14:01:06Z</time>
      </trkpt>
      <trkpt lat="42.319288998842239" lon="3.316109972074628">
        <ele>71.760000000000005</ele>
        <time>2025-05-15T14:02:00Z</time>
      </trkpt>
      <trkpt lat="42.31929000467062" lon="3.316111983731389">
        <ele>71.760000000000005</ele>
        <time>2025-05-15T14:02:45Z</time>
      </trkpt>
      <trkpt lat="42.31929000467062" lon="3.316119024530053">
        <ele>70.790000000000006</ele>
        <time>2025-05-15T14:03:29Z</time>
      </trkpt>
      <trkpt lat="42.31929000467062" lon="3.316119024530053">
        <ele>70.790000000000006</ele>
        <time>2025-05-15T14:03:59Z</time>
      </trkpt>
      <trkpt lat="42.319296961650252" lon="3.316108966246247">
        <ele>71.269999999999996</ele>
        <time>2025-05-15T14:04:10Z</time>
      </trkpt>
      <trkpt lat="42.319362005218863" lon="3.316012993454933">
        <ele>70.310000000000002</ele>
        <time>2025-05-15T14:04:22Z</time>
      </trkpt>
      <trkpt lat="42.319368040189147" lon="3.316006036475301">
        <ele>70.310000000000002</ele>
        <time>2025-05-15T14:05:02Z</time>
      </trkpt>
      <trkpt lat="42.319314982742071" lon="3.315896987915039">
        <ele>70.310000000000002</ele>
        <time>2025-05-15T14:05:03Z</time>
      </trkpt>
      <trkpt lat="42.319314982742071" lon="3.315896987915039">
        <ele>70.310000000000002</ele>
        <time>2025-05-15T14:05:04Z</time>
      </trkpt>
      <trkpt lat="42.319313976913691" lon="3.315872009843588">
        <ele>70.790000000000006</ele>
        <time>2025-05-15T14:05:05Z</time>
      </trkpt>
      <trkpt lat="42.319251028820872" lon="3.315193997696042">
        <ele>69.829999999999998</ele>
        <time>2025-05-15T14:05:13Z</time>
      </trkpt>
      <trkpt lat="42.319251028820872" lon="3.315106993541122">
        <ele>69.349999999999994</ele>
        <time>2025-05-15T14:05:14Z</time>
      </trkpt>
      <trkpt lat="42.319251028820872" lon="3.3150390163064">
        <ele>69.349999999999994</ele>
        <time>2025-05-15T14:05:15Z</time>
      </trkpt>
      <trkpt lat="42.319336021319032" lon="3.31497497856617">
        <ele>68.870000000000005</ele>
        <time>2025-05-15T14:05:16Z</time>
      </trkpt>
      <trkpt lat="42.319387989118695" lon="3.314936002716422">
        <ele>68.390000000000001</ele>
        <time>2025-05-15T14:05:17Z</time>
      </trkpt>
      <trkpt lat="42.319453032687306" lon="3.314912030473352">
        <ele>67.909999999999997</ele>
        <time>2025-05-15T14:05:18Z</time>
      </trkpt>
      <trkpt lat="42.319520004093647" lon="3.314915969967842">
        <ele>67.430000000000007</ele>
        <time>2025-05-15T14:05:19Z</time>
      </trkpt>
      <trkpt lat="42.319601979106665" lon="3.314920999109745">
        <ele>66.950000000000003</ele>
        <time>2025-05-15T14:05:20Z</time>
      </trkpt>
      <trkpt lat="42.319681020453572" lon="3.314926028251648">
        <ele>65.989999999999995</ele>
        <time>2025-05-15T14:05:21Z</time>
      </trkpt>
      <trkpt lat="42.319753021001816" lon="3.314929967746139">
        <ele>65.510000000000005</ele>
        <time>2025-05-15T14:05:22Z</time>
      </trkpt>
      <trkpt lat="42.319800965487957" lon="3.314902978017926">
        <ele>65.030000000000001</ele>
        <time>2025-05-15T14:05:23Z</time>
      </trkpt>
      <trkpt lat="42.319855028763413" lon="3.314859978854656">
        <ele>64.549999999999997</ele>
        <time>2025-05-15T14:05:24Z</time>
      </trkpt>
      <trkpt lat="42.319872966036201" lon="3.31484598107636">
        <ele>63.579999999999998</ele>
        <time>2025-05-15T14:05:25Z</time>
      </trkpt>
      <trkpt lat="42.319904984906316" lon="3.314740033820272">
        <ele>62.619999999999997</ele>
        <time>2025-05-15T14:05:26Z</time>
      </trkpt>
      <trkpt lat="42.319937003776431" lon="3.31463098526001">
        <ele>62.140000000000001</ele>
        <time>2025-05-15T14:05:27Z</time>
      </trkpt>
      <trkpt lat="42.319929962977767" lon="3.314582034945488">
        <ele>61.659999999999997</ele>
        <time>2025-05-15T14:05:28Z</time>
      </trkpt>
      <trkpt lat="42.319916971027851" lon="3.314497964456677">
        <ele>61.18</ele>
        <time>2025-05-15T14:05:29Z</time>
      </trkpt>
      <trkpt lat="42.319903979077935" lon="3.314414983615279">
        <ele>60.700000000000003</ele>
        <time>2025-05-15T14:05:30Z</time>
      </trkpt>
      <trkpt lat="42.319881012663245" lon="3.314336026087403">
        <ele>60.219999999999999</ele>
        <time>2025-05-15T14:05:31Z</time>
      </trkpt>
      <trkpt lat="42.319833990186453" lon="3.314280034974217">
        <ele>60.219999999999999</ele>
        <time>2025-05-15T14:05:32Z</time>
      </trkpt>
      <trkpt lat="42.31978403404355" lon="3.314220020547509">
        <ele>59.740000000000002</ele>
        <time>2025-05-15T14:05:33Z</time>
      </trkpt>
      <trkpt lat="42.319349013268948" lon="3.313702018931508">
        <ele>55.890000000000001</ele>
        <time>2025-05-15T14:05:41Z</time>
      </trkpt>
      <trkpt lat="42.319284975528717" lon="3.313675029203296">
        <ele>55.409999999999997</ele>
        <time>2025-05-15T14:05:42Z</time>
      </trkpt>
      <trkpt lat="42.319222027435899" lon="3.31366203725338">
        <ele>54.450000000000003</ele>
        <time>2025-05-15T14:05:43Z</time>
      </trkpt>
      <trkpt lat="42.319163018837571" lon="3.313648039475083">
        <ele>53.969999999999999</ele>
        <time>2025-05-15T14:05:44Z</time>
      </trkpt>
      <trkpt lat="42.319105016067624" lon="3.313661031424999">
        <ele>53.009999999999998</ele>
        <time>2025-05-15T14:05:45Z</time>
      </trkpt>
      <trkpt lat="42.319048019126058" lon="3.31368600949645">
        <ele>52.530000000000001</ele>
        <time>2025-05-15T14:05:46Z</time>
      </trkpt>
      <trkpt lat="42.31898901052773" lon="3.313711993396282">
        <ele>52.049999999999997</ele>
        <time>2025-05-15T14:05:47Z</time>
      </trkpt>
      <trkpt lat="42.318927990272641" lon="3.313739988952875">
        <ele>51.090000000000003</ele>
        <time>2025-05-15T14:05:48Z</time>
      </trkpt>
      <trkpt lat="42.318864958360791" lon="3.313767984509468">
        <ele>50.609999999999999</ele>
        <time>2025-05-15T14:05:49Z</time>
      </trkpt>
      <trkpt lat="42.318804021924734" lon="3.31379497423768">
        <ele>49.649999999999999</ele>
        <time>2025-05-15T14:05:50Z</time>
      </trkpt>
      <trkpt lat="42.318620961159468" lon="3.313876027241349">
        <ele>47.240000000000002</ele>
        <time>2025-05-15T14:05:53Z</time>
      </trkpt>
      <trkpt lat="42.318563964217901" lon="3.3139010053128">
        <ele>46.759999999999998</ele>
        <time>2025-05-15T14:05:54Z</time>
      </trkpt>
      <trkpt lat="42.318533034995198" lon="3.313824981451035">
        <ele>45.799999999999997</ele>
        <time>2025-05-15T14:05:55Z</time>
      </trkpt>
      <trkpt lat="42.318506967276335" lon="3.313759015873075">
        <ele>44.840000000000003</ele>
        <time>2025-05-15T14:05:56Z</time>
      </trkpt>
      <trkpt lat="42.318477965891361" lon="3.313687015324831">
        <ele>44.359999999999999</ele>
        <time>2025-05-15T14:05:57Z</time>
      </trkpt>
      <trkpt lat="42.318491963669658" lon="3.313634963706136">
        <ele>43.880000000000003</ele>
        <time>2025-05-15T14:05:58Z</time>
      </trkpt>
      <trkpt lat="42.31851601973176" lon="3.313548965379596">
        <ele>42.920000000000002</ele>
        <time>2025-05-15T14:05:59Z</time>
      </trkpt>
      <trkpt lat="42.318535968661308" lon="3.313474031165242">
        <ele>41.950000000000003</ele>
        <time>2025-05-15T14:06:00Z</time>
      </trkpt>
      <trkpt lat="42.318548038601875" lon="3.313448969274759">
        <ele>41.469999999999999</ele>
        <time>2025-05-15T14:06:01Z</time>
      </trkpt>
      <trkpt lat="42.318620961159468" lon="3.31342801451683">
        <ele>40.509999999999998</ele>
        <time>2025-05-15T14:06:02Z</time>
      </trkpt>
      <trkpt lat="42.318712994456291" lon="3.313401024788618">
        <ele>39.549999999999997</ele>
        <time>2025-05-15T14:06:03Z</time>
      </trkpt>
      <trkpt lat="42.318815002217889" lon="3.313371017575264">
        <ele>38.590000000000003</ele>
        <time>2025-05-15T14:06:04Z</time>
      </trkpt>
      <trkpt lat="42.318920027464628" lon="3.31334101036191">
        <ele>37.630000000000003</ele>
        <time>2025-05-15T14:06:05Z</time>
      </trkpt>
      <trkpt lat="42.319056987762451" lon="3.313301028683782">
        <ele>35.710000000000001</ele>
        <time>2025-05-15T14:06:06Z</time>
      </trkpt>
      <trkpt lat="42.319113984704018" lon="3.313198015093803">
        <ele>33.780000000000001</ele>
        <time>2025-05-15T14:06:07Z</time>
      </trkpt>
      <trkpt lat="42.319189002737403" lon="3.313044039532542">
        <ele>31.859999999999999</ele>
        <time>2025-05-15T14:06:08Z</time>
      </trkpt>
      <trkpt lat="42.319208029657602" lon="3.312902972102165">
        <ele>30.899999999999999</ele>
        <time>2025-05-15T14:06:09Z</time>
      </trkpt>
      <trkpt lat="42.319440040737391" lon="3.310790983960033">
        <ele>23.210000000000001</ele>
        <time>2025-05-15T14:06:22Z</time>
      </trkpt>
      <trkpt lat="42.319458983838558" lon="3.310478003695607">
        <ele>24.170000000000002</ele>
        <time>2025-05-15T14:06:24Z</time>
      </trkpt>
      <trkpt lat="42.319454960525036" lon="3.310331990942359">
        <ele>25.129999999999999</ele>
        <time>2025-05-15T14:06:25Z</time>
      </trkpt>
      <trkpt lat="42.319414978846908" lon="3.310210034251213">
        <ele>25.609999999999999</ele>
        <time>2025-05-15T14:06:26Z</time>
      </trkpt>
      <trkpt lat="42.319325963035226" lon="3.310072990134358">
        <ele>26.57</ele>
        <time>2025-05-15T14:06:27Z</time>
      </trkpt>
      <trkpt lat="42.319195037707686" lon="3.310024961829186">
        <ele>27.530000000000001</ele>
        <time>2025-05-15T14:06:28Z</time>
      </trkpt>
      <trkpt lat="42.319083977490664" lon="3.310049017891288">
        <ele>28.5</ele>
        <time>2025-05-15T14:06:29Z</time>
      </trkpt>
      <trkpt lat="42.31896897777915" lon="3.310072990134358">
        <ele>29.460000000000001</ele>
        <time>2025-05-15T14:06:30Z</time>
      </trkpt>
      <trkpt lat="42.318878034129739" lon="3.310056980699301">
        <ele>30.420000000000002</ele>
        <time>2025-05-15T14:06:31Z</time>
      </trkpt>
      <trkpt lat="42.318793963640928" lon="3.310014987364411">
        <ele>31.859999999999999</ele>
        <time>2025-05-15T14:06:32Z</time>
      </trkpt>
      <trkpt lat="42.318714000284672" lon="3.309975005686283">
        <ele>32.82</ele>
        <time>2025-05-15T14:06:33Z</time>
      </trkpt>
      <trkpt lat="42.318677036091685" lon="3.309848019853234">
        <ele>33.780000000000001</ele>
        <time>2025-05-15T14:06:34Z</time>
      </trkpt>
      <trkpt lat="42.318706959486008" lon="3.309742994606495">
        <ele>34.740000000000002</ele>
        <time>2025-05-15T14:06:35Z</time>
      </trkpt>
      <trkpt lat="42.318741995841265" lon="3.309620032086968">
        <ele>35.710000000000001</ele>
        <time>2025-05-15T14:06:36Z</time>
      </trkpt>
      <trkpt lat="42.318833023309708" lon="3.30951701849699">
        <ele>36.670000000000002</ele>
        <time>2025-05-15T14:06:37Z</time>
      </trkpt>
      <trkpt lat="42.318936036899686" lon="3.309449963271618">
        <ele>37.630000000000003</ele>
        <time>2025-05-15T14:06:38Z</time>
      </trkpt>
      <trkpt lat="42.319049024954438" lon="3.309375029057264">
        <ele>38.590000000000003</ele>
        <time>2025-05-15T14:06:39Z</time>
      </trkpt>
      <trkpt lat="42.319167964160442" lon="3.309296993538737">
        <ele>39.549999999999997</ele>
        <time>2025-05-15T14:06:40Z</time>
      </trkpt>
      <trkpt lat="42.319392012432218" lon="3.309149974957109">
        <ele>42.439999999999998</ele>
        <time>2025-05-15T14:06:42Z</time>
      </trkpt>
      <trkpt lat="42.319508017972112" lon="3.309073029085994">
        <ele>43.399999999999999</ele>
        <time>2025-05-15T14:06:43Z</time>
      </trkpt>
      <trkpt lat="42.319561997428536" lon="3.309019971638918">
        <ele>44.359999999999999</ele>
        <time>2025-05-15T14:06:44Z</time>
      </trkpt>
      <trkpt lat="42.319640032947063" lon="3.308942019939423">
        <ele>45.799999999999997</ele>
        <time>2025-05-15T14:06:45Z</time>
      </trkpt>
      <trkpt lat="42.319713039323688" lon="3.308845963329077">
        <ele>46.759999999999998</ele>
        <time>2025-05-15T14:06:46Z</time>
      </trkpt>
      <trkpt lat="42.319756038486958" lon="3.308715038001537">
        <ele>47.719999999999999</ele>
        <time>2025-05-15T14:06:47Z</time>
      </trkpt>
      <trkpt lat="42.319799037650228" lon="3.308586962521076">
        <ele>48.68</ele>
        <time>2025-05-15T14:06:48Z</time>
      </trkpt>
      <trkpt lat="42.319816974923015" lon="3.30846500582993">
        <ele>49.649999999999999</ele>
        <time>2025-05-15T14:06:49Z</time>
      </trkpt>
      <trkpt lat="42.31982703320682" lon="3.308350006118417">
        <ele>50.609999999999999</ele>
        <time>2025-05-15T14:06:50Z</time>
      </trkpt>
      <trkpt lat="42.319836001843214" lon="3.308255961164832">
        <ele>51.57</ele>
        <time>2025-05-15T14:06:51Z</time>
      </trkpt>
      <trkpt lat="42.319843964651227" lon="3.308169040828943">
        <ele>52.530000000000001</ele>
        <time>2025-05-15T14:06:52Z</time>
      </trkpt>
      <trkpt lat="42.319849999621511" lon="3.308080025017262">
        <ele>53.490000000000002</ele>
        <time>2025-05-15T14:06:53Z</time>
      </trkpt>
      <trkpt lat="42.319832984358072" lon="3.307967036962509">
        <ele>54.93</ele>
        <time>2025-05-15T14:06:54Z</time>
      </trkpt>
      <trkpt lat="42.319596027955413" lon="3.306583017110825">
        <ele>63.579999999999998</ele>
        <time>2025-05-15T14:07:03Z</time>
      </trkpt>
      <trkpt lat="42.31926703825593" lon="3.304806975647807">
        <ele>71.269999999999996</ele>
        <time>2025-05-15T14:07:14Z</time>
      </trkpt>
      <trkpt lat="42.318967971950769" lon="3.302842006087303">
        <ele>69.829999999999998</ele>
        <time>2025-05-15T14:07:25Z</time>
      </trkpt>
      <trkpt lat="42.318927990272641" lon="3.302347976714373">
        <ele>67.430000000000007</ele>
        <time>2025-05-15T14:07:28Z</time>
      </trkpt>
      <trkpt lat="42.318960009142756" lon="3.302198024466634">
        <ele>66.469999999999999</ele>
        <time>2025-05-15T14:07:29Z</time>
      </trkpt>
      <trkpt lat="42.318991022184491" lon="3.302051005885005">
        <ele>65.989999999999995</ele>
        <time>2025-05-15T14:07:30Z</time>
      </trkpt>
      <trkpt lat="42.319023963063955" lon="3.301899963989854">
        <ele>65.030000000000001</ele>
        <time>2025-05-15T14:07:31Z</time>
      </trkpt>
      <trkpt lat="42.319091018289328" lon="3.301748000085354">
        <ele>64.069999999999993</ele>
        <time>2025-05-15T14:07:32Z</time>
      </trkpt>
      <trkpt lat="42.319175004959106" lon="3.301603998988867">
        <ele>63.579999999999998</ele>
        <time>2025-05-15T14:07:33Z</time>
      </trkpt>
      <trkpt lat="42.319986037909985" lon="3.299925019964576">
        <ele>60.219999999999999</ele>
        <time>2025-05-15T14:07:43Z</time>
      </trkpt>
      <trkpt lat="42.320368001237512" lon="3.298822967335582">
        <ele>62.619999999999997</ele>
        <time>2025-05-15T14:07:49Z</time>
      </trkpt>
      <trkpt lat="42.32047202065587" lon="3.298686007037759">
        <ele>63.100000000000001</ele>
        <time>2025-05-15T14:07:50Z</time>
      </trkpt>
      <trkpt lat="42.321168975904584" lon="3.297722004354">
        <ele>64.069999999999993</ele>
        <time>2025-05-15T14:07:57Z</time>
      </trkpt>
      <trkpt lat="42.32124499976635" lon="3.297584038227797">
        <ele>63.579999999999998</ele>
        <time>2025-05-15T14:07:58Z</time>
      </trkpt>
      <trkpt lat="42.32131096534431" lon="3.297465015202761">
        <ele>63.579999999999998</ele>
        <time>2025-05-15T14:07:59Z</time>
      </trkpt>
      <trkpt lat="42.321340972557664" lon="3.297265022993088">
        <ele>63.579999999999998</ele>
        <time>2025-05-15T14:08:00Z</time>
      </trkpt>
      <trkpt lat="42.321378020569682" lon="3.297092020511627">
        <ele>63.579999999999998</ele>
        <time>2025-05-15T14:08:01Z</time>
      </trkpt>
      <trkpt lat="42.321421019732952" lon="3.296923963353038">
        <ele>64.549999999999997</ele>
        <time>2025-05-15T14:08:02Z</time>
      </trkpt>
      <trkpt lat="42.321464018896222" lon="3.296761019155383">
        <ele>65.510000000000005</ele>
        <time>2025-05-15T14:08:03Z</time>
      </trkpt>
      <trkpt lat="42.321654036641121" lon="3.296027015894651">
        <ele>72.239999999999995</ele>
        <time>2025-05-15T14:08:09Z</time>
      </trkpt>
      <trkpt lat="42.321654036641121" lon="3.295900030061603">
        <ele>73.680000000000007</ele>
        <time>2025-05-15T14:08:10Z</time>
      </trkpt>
      <trkpt lat="42.321642972528934" lon="3.295166026800871">
        <ele>78.969999999999999</ele>
        <time>2025-05-15T14:08:15Z</time>
      </trkpt>
      <trkpt lat="42.321597961708903" lon="3.295064019039273">
        <ele>79.930000000000007</ele>
        <time>2025-05-15T14:08:16Z</time>
      </trkpt>
      <trkpt lat="42.321531996130943" lon="3.294967962428927">
        <ele>80.890000000000001</ele>
        <time>2025-05-15T14:08:17Z</time>
      </trkpt>
      <trkpt lat="42.32146100141108" lon="3.294910965487361">
        <ele>82.329999999999998</ele>
        <time>2025-05-15T14:08:18Z</time>
      </trkpt>
      <trkpt lat="42.32135396450758" lon="3.294892022386193">
        <ele>83.290000000000006</ele>
        <time>2025-05-15T14:08:19Z</time>
      </trkpt>
      <trkpt lat="42.321262015029788" lon="3.294875007122755">
        <ele>84.25</ele>
        <time>2025-05-15T14:08:20Z</time>
      </trkpt>
      <trkpt lat="42.321165958419442" lon="3.294892022386193">
        <ele>85.209999999999994</ele>
        <time>2025-05-15T14:08:21Z</time>
      </trkpt>
      <trkpt lat="42.321079038083553" lon="3.294926974922419">
        <ele>86.180000000000007</ele>
        <time>2025-05-15T14:08:22Z</time>
      </trkpt>
      <trkpt lat="42.320831017568707" lon="3.295025965198875">
        <ele>89.060000000000002</ele>
        <time>2025-05-15T14:08:25Z</time>
      </trkpt>
      <trkpt lat="42.320748958736658" lon="3.29503602348268">
        <ele>90.019999999999996</ele>
        <time>2025-05-15T14:08:26Z</time>
      </trkpt>
      <trkpt lat="42.32066597789526" lon="3.295027976855636">
        <ele>90.5</ele>
        <time>2025-05-15T14:08:27Z</time>
      </trkpt>
      <trkpt lat="42.320560030639172" lon="3.295019008219242">
        <ele>91.459999999999994</ele>
        <time>2025-05-15T14:08:28Z</time>
      </trkpt>
      <trkpt lat="42.320486018434167" lon="3.294975003227592">
        <ele>91.939999999999998</ele>
        <time>2025-05-15T14:08:29Z</time>
      </trkpt>
      <trkpt lat="42.320399014279246" lon="3.294922029599547">
        <ele>92.420000000000002</ele>
        <time>2025-05-15T14:08:30Z</time>
      </trkpt>
      <trkpt lat="42.320311004295945" lon="3.294862015172839">
        <ele>92.900000000000006</ele>
        <time>2025-05-15T14:08:31Z</time>
      </trkpt>
      <trkpt lat="42.320146970450878" lon="3.294724971055985">
        <ele>93.390000000000001</ele>
        <time>2025-05-15T14:08:33Z</time>
      </trkpt>
      <trkpt lat="42.320071030408144" lon="3.294641990214586">
        <ele>93.390000000000001</ele>
        <time>2025-05-15T14:08:34Z</time>
      </trkpt>
      <trkpt lat="42.320016967132688" lon="3.294534031301737">
        <ele>93.870000000000005</ele>
        <time>2025-05-15T14:08:35Z</time>
      </trkpt>
      <trkpt lat="42.319958964362741" lon="3.294418025761843">
        <ele>93.870000000000005</ele>
        <time>2025-05-15T14:08:36Z</time>
      </trkpt>
      <trkpt lat="42.319929040968418" lon="3.294292967766523">
        <ele>94.349999999999994</ele>
        <time>2025-05-15T14:08:37Z</time>
      </trkpt>
      <trkpt lat="42.319897022098303" lon="3.2941560074687">
        <ele>94.829999999999998</ele>
        <time>2025-05-15T14:08:38Z</time>
      </trkpt>
      <trkpt lat="42.319766012951732" lon="3.293602969497442">
        <ele>96.75</ele>
        <time>2025-05-15T14:08:42Z</time>
      </trkpt>
      <trkpt lat="42.319694012403488" lon="3.293511020019651">
        <ele>97.230000000000004</ele>
        <time>2025-05-15T14:08:43Z</time>
      </trkpt>
      <trkpt lat="42.319617988541722" lon="3.293414041399956">
        <ele>97.709999999999994</ele>
        <time>2025-05-15T14:08:44Z</time>
      </trkpt>
      <trkpt lat="42.319446997717023" lon="3.293246990069747">
        <ele>98.189999999999998</ele>
        <time>2025-05-15T14:08:46Z</time>
      </trkpt>
      <trkpt lat="42.319353958591819" lon="3.293204996734858">
        <ele>98.189999999999998</ele>
        <time>2025-05-15T14:08:47Z</time>
      </trkpt>
      <trkpt lat="42.319255974143744" lon="3.293180018663406">
        <ele>98.670000000000002</ele>
        <time>2025-05-15T14:08:48Z</time>
      </trkpt>
      <trkpt lat="42.319155978038907" lon="3.293180018663406">
        <ele>99.629999999999995</ele>
        <time>2025-05-15T14:08:49Z</time>
      </trkpt>
      <trkpt lat="42.319049024954438" lon="3.293189993128181">
        <ele>100.11</ele>
        <time>2025-05-15T14:08:50Z</time>
      </trkpt>
      <trkpt lat="42.318936958909035" lon="3.293199967592955">
        <ele>100.59999999999999</ele>
        <time>2025-05-15T14:08:51Z</time>
      </trkpt>
      <trkpt lat="42.318724980577826" lon="3.293218994513154">
        <ele>102.52</ele>
        <time>2025-05-15T14:08:53Z</time>
      </trkpt>
      <trkpt lat="42.318636970594525" lon="3.293227041140199">
        <ele>103.48</ele>
        <time>2025-05-15T14:08:54Z</time>
      </trkpt>
      <trkpt lat="42.318509984761477" lon="3.293215977028012">
        <ele>104.44</ele>
        <time>2025-05-15T14:08:55Z</time>
      </trkpt>
      <trkpt lat="42.31847302056849" lon="3.293140958994627">
        <ele>105.40000000000001</ele>
        <time>2025-05-15T14:08:56Z</time>
      </trkpt>
      <trkpt lat="42.318434966728091" lon="3.293066024780273">
        <ele>106.36</ele>
        <time>2025-05-15T14:08:57Z</time>
      </trkpt>
      <trkpt lat="42.318398002535105" lon="3.292962005361915">
        <ele>107.31999999999999</ele>
        <time>2025-05-15T14:08:58Z</time>
      </trkpt>
      <trkpt lat="42.318357015028596" lon="3.292848011478782">
        <ele>107.81</ele>
        <time>2025-05-15T14:08:59Z</time>
      </trkpt>
      <trkpt lat="42.318308986723423" lon="3.29271599650383">
        <ele>108.77</ele>
        <time>2025-05-15T14:09:00Z</time>
      </trkpt>
      <trkpt lat="42.318259030580521" lon="3.292577024549246">
        <ele>109.25</ele>
        <time>2025-05-15T14:09:01Z</time>
      </trkpt>
      <trkpt lat="42.31780800037086" lon="3.291325019672513">
        <ele>104.44</ele>
        <time>2025-05-15T14:09:10Z</time>
      </trkpt>
      <trkpt lat="42.317770030349493" lon="3.291221000254154">
        <ele>103.95999999999999</ele>
        <time>2025-05-15T14:09:11Z</time>
      </trkpt>
      <trkpt lat="42.317802971228957" lon="3.291100971400738">
        <ele>103.48</ele>
        <time>2025-05-15T14:09:12Z</time>
      </trkpt>
      <trkpt lat="42.317832978442311" lon="3.290987983345985">
        <ele>103</ele>
        <time>2025-05-15T14:09:13Z</time>
      </trkpt>
      <trkpt lat="42.317887041717768" lon="3.290882958099246">
        <ele>102.52</ele>
        <time>2025-05-15T14:09:14Z</time>
      </trkpt>
      <trkpt lat="42.317946972325444" lon="3.290766030550003">
        <ele>101.56</ele>
        <time>2025-05-15T14:09:15Z</time>
      </trkpt>
      <trkpt lat="42.318010004237294" lon="3.290643990039825">
        <ele>101.08</ele>
        <time>2025-05-15T14:09:16Z</time>
      </trkpt>
      <trkpt lat="42.318193987011909" lon="3.29028700478375">
        <ele>98.189999999999998</ele>
        <time>2025-05-15T14:09:19Z</time>
      </trkpt>
      <trkpt lat="42.318218965083361" lon="3.290165970101953">
        <ele>96.75</ele>
        <time>2025-05-15T14:09:20Z</time>
      </trkpt>
      <trkpt lat="42.31823799200356" lon="3.290060022845864">
        <ele>95.790000000000006</ele>
        <time>2025-05-15T14:09:21Z</time>
      </trkpt>
      <trkpt lat="42.318205973133445" lon="3.289952985942364">
        <ele>95.310000000000002</ele>
        <time>2025-05-15T14:09:22Z</time>
      </trkpt>
      <trkpt lat="42.318165991455317" lon="3.28985701315105">
        <ele>94.349999999999994</ele>
        <time>2025-05-15T14:09:23Z</time>
      </trkpt>
      <trkpt lat="42.318113017827272" lon="3.289769003167749">
        <ele>93.390000000000001</ele>
        <time>2025-05-15T14:09:24Z</time>
      </trkpt>
      <trkpt lat="42.318035988137126" lon="3.289720974862576">
        <ele>92.900000000000006</ele>
        <time>2025-05-15T14:09:25Z</time>
      </trkpt>
      <trkpt lat="42.317944038659334" lon="3.289678981527686">
        <ele>91.939999999999998</ele>
        <time>2025-05-15T14:09:26Z</time>
      </trkpt>
      <trkpt lat="42.317840019240975" lon="3.289695996791124">
        <ele>90.980000000000004</ele>
        <time>2025-05-15T14:09:27Z</time>
      </trkpt>
      <trkpt lat="42.317724013701081" lon="3.289715023711324">
        <ele>90.5</ele>
        <time>2025-05-15T14:09:28Z</time>
      </trkpt>
      <trkpt lat="42.317264014855027" lon="3.289791969582439">
        <ele>86.659999999999997</ele>
        <time>2025-05-15T14:09:32Z</time>
      </trkpt>
      <trkpt lat="42.317174999043345" lon="3.289784006774426">
        <ele>86.180000000000007</ele>
        <time>2025-05-15T14:09:33Z</time>
      </trkpt>
      <trkpt lat="42.317122025415301" lon="3.289713012054563">
        <ele>85.689999999999998</ele>
        <time>2025-05-15T14:09:34Z</time>
      </trkpt>
      <trkpt lat="42.317057987675071" lon="3.289630031213164">
        <ele>85.209999999999994</ele>
        <time>2025-05-15T14:09:35Z</time>
      </trkpt>
      <trkpt lat="42.316985987126827" lon="3.289534980431199">
        <ele>84.730000000000004</ele>
        <time>2025-05-15T14:09:36Z</time>
      </trkpt>
      <trkpt lat="42.316753976047039" lon="3.289229040965438">
        <ele>82.810000000000002</ele>
        <time>2025-05-15T14:09:39Z</time>
      </trkpt>
      <trkpt lat="42.316699996590614" lon="3.289109012112021">
        <ele>82.329999999999998</ele>
        <time>2025-05-15T14:09:40Z</time>
      </trkpt>
      <trkpt lat="42.316593965515494" lon="3.28873903490603">
        <ele>80.890000000000001</ele>
        <time>2025-05-15T14:09:43Z</time>
      </trkpt>
      <trkpt lat="42.31651802547276" lon="3.288678014650941">
        <ele>80.890000000000001</ele>
        <time>2025-05-15T14:09:44Z</time>
      </trkpt>
      <trkpt lat="42.316439989954233" lon="3.288615988567472">
        <ele>80.409999999999997</ele>
        <time>2025-05-15T14:09:45Z</time>
      </trkpt>
      <trkpt lat="42.316357009112835" lon="3.288572989404202">
        <ele>80.409999999999997</ele>
        <time>2025-05-15T14:09:46Z</time>
      </trkpt>
      <trkpt lat="42.316272016614676" lon="3.288555974140763">
        <ele>80.409999999999997</ele>
        <time>2025-05-15T14:09:47Z</time>
      </trkpt>
      <trkpt lat="42.316189035773277" lon="3.288538036867976">
        <ele>81.370000000000005</ele>
        <time>2025-05-15T14:09:49Z</time>
      </trkpt>
      <trkpt lat="42.314994027838111" lon="3.288291022181511">
        <ele>85.209999999999994</ele>
        <time>2025-05-15T14:09:58Z</time>
      </trkpt>
      <trkpt lat="42.313476987183094" lon="3.287937976419926">
        <ele>89.540000000000006</ele>
        <time>2025-05-15T14:10:08Z</time>
      </trkpt>
      <trkpt lat="42.313350001350045" lon="3.287937976419926">
        <ele>90.019999999999996</ele>
        <time>2025-05-15T14:10:09Z</time>
      </trkpt>
      <trkpt lat="42.313224021345377" lon="3.287977958098054">
        <ele>90.980000000000004</ele>
        <time>2025-05-15T14:10:10Z</time>
      </trkpt>
      <trkpt lat="42.311955001205206" lon="3.288473999127746">
        <ele>88.099999999999994</ele>
        <time>2025-05-15T14:10:21Z</time>
      </trkpt>
      <trkpt lat="42.311867997050285" lon="3.288473999127746">
        <ele>87.620000000000005</ele>
        <time>2025-05-15T14:10:22Z</time>
      </trkpt>
      <trkpt lat="42.311787027865648" lon="3.288423037156463">
        <ele>87.620000000000005</ele>
        <time>2025-05-15T14:10:23Z</time>
      </trkpt>
      <trkpt lat="42.311691977083683" lon="3.288365034386516">
        <ele>87.140000000000001</ele>
        <time>2025-05-15T14:10:24Z</time>
      </trkpt>
      <trkpt lat="42.311590975150466" lon="3.288303008303046">
        <ele>87.140000000000001</ele>
        <time>2025-05-15T14:10:25Z</time>
      </trkpt>
      <trkpt lat="42.310965014621615" lon="3.2879030238837">
        <ele>82.329999999999998</ele>
        <time>2025-05-15T14:10:31Z</time>
      </trkpt>
      <trkpt lat="42.310624038800597" lon="3.287501027807593">
        <ele>78.969999999999999</ele>
        <time>2025-05-15T14:10:35Z</time>
      </trkpt>
      <trkpt lat="42.310485988855362" lon="3.287282008677721">
        <ele>76.560000000000002</ele>
        <time>2025-05-15T14:10:37Z</time>
      </trkpt>
      <trkpt lat="42.310413988307118" lon="3.287196010351181">
        <ele>75.599999999999994</ele>
        <time>2025-05-15T14:10:38Z</time>
      </trkpt>
      <trkpt lat="42.310319021344185" lon="3.287142030894756">
        <ele>75.120000000000005</ele>
        <time>2025-05-15T14:10:39Z</time>
      </trkpt>
      <trkpt lat="42.310225982218981" lon="3.287111017853022">
        <ele>74.159999999999997</ele>
        <time>2025-05-15T14:10:40Z</time>
      </trkpt>
      <trkpt lat="42.310132021084428" lon="3.287080004811287">
        <ele>73.680000000000007</ele>
        <time>2025-05-15T14:10:41Z</time>
      </trkpt>
      <trkpt lat="42.310034958645701" lon="3.287066007032991">
        <ele>72.719999999999999</ele>
        <time>2025-05-15T14:10:42Z</time>
      </trkpt>
      <trkpt lat="42.309938985854387" lon="3.287092996761203">
        <ele>71.760000000000005</ele>
        <time>2025-05-15T14:10:43Z</time>
      </trkpt>
      <trkpt lat="42.309827003628016" lon="3.28712803311646">
        <ele>70.790000000000006</ele>
        <time>2025-05-15T14:10:44Z</time>
      </trkpt>
      <trkpt lat="42.30975198559463" lon="3.287229035049677">
        <ele>70.310000000000002</ele>
        <time>2025-05-15T14:10:45Z</time>
      </trkpt>
      <trkpt lat="42.309674033895135" lon="3.287333976477385">
        <ele>69.829999999999998</ele>
        <time>2025-05-15T14:10:46Z</time>
      </trkpt>
      <trkpt lat="42.30959901586175" lon="3.287435984238982">
        <ele>68.870000000000005</ele>
        <time>2025-05-15T14:10:47Z</time>
      </trkpt>
      <trkpt lat="42.309465995058417" lon="3.287616027519107">
        <ele>66.469999999999999</ele>
        <time>2025-05-15T14:10:49Z</time>
      </trkpt>
      <trkpt lat="42.30938795953989" lon="3.287663972005248">
        <ele>65.510000000000005</ele>
        <time>2025-05-15T14:10:50Z</time>
      </trkpt>
      <trkpt lat="42.309293998405337" lon="3.287722980603576">
        <ele>65.030000000000001</ele>
        <time>2025-05-15T14:10:51Z</time>
      </trkpt>
      <trkpt lat="42.309229038655758" lon="3.287722980603576">
        <ele>64.069999999999993</ele>
        <time>2025-05-15T14:10:52Z</time>
      </trkpt>
      <trkpt lat="42.309154020622373" lon="3.287678975611925">
        <ele>63.100000000000001</ele>
        <time>2025-05-15T14:10:53Z</time>
      </trkpt>
      <trkpt lat="42.309075985103846" lon="3.287615021690726">
        <ele>62.619999999999997</ele>
        <time>2025-05-15T14:10:54Z</time>
      </trkpt>
      <trkpt lat="42.308984035626054" lon="3.28753899782896">
        <ele>62.140000000000001</ele>
        <time>2025-05-15T14:10:55Z</time>
      </trkpt>
      <trkpt lat="42.308499980717897" lon="3.287143958732486">
        <ele>59.740000000000002</ele>
        <time>2025-05-15T14:11:00Z</time>
      </trkpt>
      <trkpt lat="42.308470979332924" lon="3.287041028961539">
        <ele>59.740000000000002</ele>
        <time>2025-05-15T14:11:01Z</time>
      </trkpt>
      <trkpt lat="42.308435020968318" lon="3.286914965137839">
        <ele>59.259999999999998</ele>
        <time>2025-05-15T14:11:02Z</time>
      </trkpt>
      <trkpt lat="42.308413982391357" lon="3.286778004840016">
        <ele>58.780000000000001</ele>
        <time>2025-05-15T14:11:03Z</time>
      </trkpt>
      <trkpt lat="42.308413982391357" lon="3.286650013178587">
        <ele>58.299999999999997</ele>
        <time>2025-05-15T14:11:04Z</time>
      </trkpt>
      <trkpt lat="42.308452958241105" lon="3.286539036780596">
        <ele>57.340000000000003</ele>
        <time>2025-05-15T14:11:05Z</time>
      </trkpt>
      <trkpt lat="42.308489000424743" lon="3.286433005705476">
        <ele>56.859999999999999</ele>
        <time>2025-05-15T14:11:06Z</time>
      </trkpt>
      <trkpt lat="42.30852697044611" lon="3.286321023479104">
        <ele>55.890000000000001</ele>
        <time>2025-05-15T14:11:07Z</time>
      </trkpt>
      <trkpt lat="42.30856804177165" lon="3.286202000454068">
        <ele>55.409999999999997</ele>
        <time>2025-05-15T14:11:08Z</time>
      </trkpt>
      <trkpt lat="42.308651022613049" lon="3.285960014909506">
        <ele>53.009999999999998</ele>
        <time>2025-05-15T14:11:10Z</time>
      </trkpt>
      <trkpt lat="42.308665020391345" lon="3.285832023248076">
        <ele>52.049999999999997</ele>
        <time>2025-05-15T14:11:11Z</time>
      </trkpt>
      <trkpt lat="42.308641970157623" lon="3.285697996616364">
        <ele>51.090000000000003</ele>
        <time>2025-05-15T14:11:12Z</time>
      </trkpt>
      <trkpt lat="42.308594025671482" lon="3.285577967762947">
        <ele>50.130000000000003</ele>
        <time>2025-05-15T14:11:13Z</time>
      </trkpt>
      <trkpt lat="42.308540968224406" lon="3.285448970273137">
        <ele>49.649999999999999</ele>
        <time>2025-05-15T14:11:14Z</time>
      </trkpt>
      <trkpt lat="42.308433009311557" lon="3.285182006657124">
        <ele>48.68</ele>
        <time>2025-05-15T14:11:16Z</time>
      </trkpt>
      <trkpt lat="42.308378024026752" lon="3.285063989460468">
        <ele>48.200000000000003</ele>
        <time>2025-05-15T14:11:17Z</time>
      </trkpt>
      <trkpt lat="42.308328989893198" lon="3.284998023882508">
        <ele>47.719999999999999</ele>
        <time>2025-05-15T14:11:18Z</time>
      </trkpt>
      <trkpt lat="42.308221030980349" lon="3.285029958933592">
        <ele>46.759999999999998</ele>
        <time>2025-05-15T14:11:19Z</time>
      </trkpt>
      <trkpt lat="42.308148024603724" lon="3.285052003338933">
        <ele>45.799999999999997</ele>
        <time>2025-05-15T14:11:20Z</time>
      </trkpt>
      <trkpt lat="42.308087004348636" lon="3.285140013322234">
        <ele>44.840000000000003</ele>
        <time>2025-05-15T14:11:21Z</time>
      </trkpt>
      <trkpt lat="42.308046016842127" lon="3.28526197001338">
        <ele>43.880000000000003</ele>
        <time>2025-05-15T14:11:22Z</time>
      </trkpt>
      <trkpt lat="42.307998994365335" lon="3.285397002473474">
        <ele>43.399999999999999</ele>
        <time>2025-05-15T14:11:23Z</time>
      </trkpt>
      <trkpt lat="42.307663969695568" lon="3.286132011562586">
        <ele>36.670000000000002</ele>
        <time>2025-05-15T14:11:28Z</time>
      </trkpt>
      <trkpt lat="42.30758199468255" lon="3.286238964647055">
        <ele>35.229999999999997</ele>
        <time>2025-05-15T14:11:29Z</time>
      </trkpt>
      <trkpt lat="42.307503037154675" lon="3.28633401542902">
        <ele>33.780000000000001</ele>
        <time>2025-05-15T14:11:30Z</time>
      </trkpt>
      <trkpt lat="42.307413015514612" lon="3.286389000713825">
        <ele>32.340000000000003</ele>
        <time>2025-05-15T14:11:31Z</time>
      </trkpt>
      <trkpt lat="42.30732299387455" lon="3.28644298017025">
        <ele>30.899999999999999</ele>
        <time>2025-05-15T14:11:32Z</time>
      </trkpt>
      <trkpt lat="42.307218974456191" lon="3.286456977948546">
        <ele>29.460000000000001</ele>
        <time>2025-05-15T14:11:33Z</time>
      </trkpt>
      <trkpt lat="42.307114033028483" lon="3.286456977948546">
        <ele>28.02</ele>
        <time>2025-05-15T14:11:34Z</time>
      </trkpt>
      <trkpt lat="42.307005990296602" lon="3.286456977948546">
        <ele>27.050000000000001</ele>
        <time>2025-05-15T14:11:35Z</time>
      </trkpt>
      <trkpt lat="42.306464016437531" lon="3.286411967128515">
        <ele>20.809999999999999</ele>
        <time>2025-05-15T14:11:40Z</time>
      </trkpt>
      <trkpt lat="42.306363014504313" lon="3.286396963521838">
        <ele>19.359999999999999</ele>
        <time>2025-05-15T14:11:41Z</time>
      </trkpt>
      <trkpt lat="42.306292019784451" lon="3.286328986287117">
        <ele>18.399999999999999</ele>
        <time>2025-05-15T14:11:42Z</time>
      </trkpt>
      <trkpt lat="42.306230999529362" lon="3.286235025152564">
        <ele>17.440000000000001</ele>
        <time>2025-05-15T14:11:43Z</time>
      </trkpt>
      <trkpt lat="42.306171990931034" lon="3.286145003512502">
        <ele>16.48</ele>
        <time>2025-05-15T14:11:44Z</time>
      </trkpt>
      <trkpt lat="42.306112982332706" lon="3.286052970215678">
        <ele>15.039999999999999</ele>
        <time>2025-05-15T14:11:45Z</time>
      </trkpt>
      <trkpt lat="42.305907960981131" lon="3.285638988018036">
        <ele>11.19</ele>
        <time>2025-05-15T14:11:49Z</time>
      </trkpt>
      <trkpt lat="42.305868985131383" lon="3.285552989691496">
        <ele>10.710000000000001</ele>
        <time>2025-05-15T14:11:50Z</time>
      </trkpt>
      <trkpt lat="42.305889017879963" lon="3.285450981929898">
        <ele>9.75</ele>
        <time>2025-05-15T14:11:51Z</time>
      </trkpt>
      <trkpt lat="42.305921958759427" lon="3.285350985825062">
        <ele>8.789999999999999</ele>
        <time>2025-05-15T14:11:52Z</time>
      </trkpt>
      <trkpt lat="42.305958000943065" lon="3.285243026912212">
        <ele>8.789999999999999</ele>
        <time>2025-05-15T14:11:53Z</time>
      </trkpt>
      <trkpt lat="42.305995970964432" lon="3.285128027200699">
        <ele>8.310000000000001</ele>
        <time>2025-05-15T14:11:54Z</time>
      </trkpt>
      <trkpt lat="42.306035030633211" lon="3.285011015832424">
        <ele>7.83</ele>
        <time>2025-05-15T14:11:55Z</time>
      </trkpt>
      <trkpt lat="42.306096972897649" lon="3.284782022237778">
        <ele>6.87</ele>
        <time>2025-05-15T14:11:57Z</time>
      </trkpt>
      <trkpt lat="42.306096972897649" lon="3.284632991999388">
        <ele>6.39</ele>
        <time>2025-05-15T14:11:58Z</time>
      </trkpt>
      <trkpt lat="42.306047016754746" lon="3.284584041684866">
        <ele>5.91</ele>
        <time>2025-05-15T14:11:59Z</time>
      </trkpt>
      <trkpt lat="42.305988008156419" lon="3.284524027258158">
        <ele>5.91</ele>
        <time>2025-05-15T14:12:00Z</time>
      </trkpt>
      <trkpt lat="42.305903015658259" lon="3.284503994509578">
        <ele>5.91</ele>
        <time>2025-05-15T14:12:01Z</time>
      </trkpt>
      <trkpt lat="42.305809976533055" lon="3.284559985622764">
        <ele>5.91</ele>
        <time>2025-05-15T14:12:02Z</time>
      </trkpt>
      <trkpt lat="42.305733030661941" lon="3.284643972292543">
        <ele>6.39</ele>
        <time>2025-05-15T14:12:03Z</time>
      </trkpt>
      <trkpt lat="42.305652983486652" lon="3.284730976447463">
        <ele>6.87</ele>
        <time>2025-05-15T14:12:04Z</time>
      </trkpt>
      <trkpt lat="42.305481992661953" lon="3.284886963665485">
        <ele>7.35</ele>
        <time>2025-05-15T14:12:06Z</time>
      </trkpt>
      <trkpt lat="42.305391971021891" lon="3.284919988363981">
        <ele>7.83</ele>
        <time>2025-05-15T14:12:07Z</time>
      </trkpt>
      <trkpt lat="42.305298009887338" lon="3.284930968657136">
        <ele>8.310000000000001</ele>
        <time>2025-05-15T14:12:08Z</time>
      </trkpt>
      <trkpt lat="42.305202037096024" lon="3.284906996414065">
        <ele>9.27</ele>
        <time>2025-05-15T14:12:09Z</time>
      </trkpt>
      <trkpt lat="42.305102963000536" lon="3.284872965887189">
        <ele>10.23</ele>
        <time>2025-05-15T14:12:10Z</time>
      </trkpt>
      <trkpt lat="42.304320009425282" lon="3.284606002271175">
        <ele>16.48</ele>
        <time>2025-05-15T14:12:17Z</time>
      </trkpt>
      <trkpt lat="42.30422898195684" lon="3.284526038914919">
        <ele>17.920000000000002</ele>
        <time>2025-05-15T14:12:18Z</time>
      </trkpt>
      <trkpt lat="42.304170979186893" lon="3.28444398008287">
        <ele>18.879999999999999</ele>
        <time>2025-05-15T14:12:19Z</time>
      </trkpt>
      <trkpt lat="42.304123034700751" lon="3.284376002848148">
        <ele>19.84</ele>
        <time>2025-05-15T14:12:20Z</time>
      </trkpt>
      <trkpt lat="42.304052039980888" lon="3.284344989806414">
        <ele>20.809999999999999</ele>
        <time>2025-05-15T14:12:21Z</time>
      </trkpt>
      <trkpt lat="42.303972998633981" lon="3.284310959279537">
        <ele>22.25</ele>
        <time>2025-05-15T14:12:22Z</time>
      </trkpt>
      <trkpt lat="42.303903009742498" lon="3.284354964271188">
        <ele>23.210000000000001</ele>
        <time>2025-05-15T14:12:23Z</time>
      </trkpt>
      <trkpt lat="42.303818017244339" lon="3.284408021718264">
        <ele>24.170000000000002</ele>
        <time>2025-05-15T14:12:24Z</time>
      </trkpt>
      <trkpt lat="42.303726989775896" lon="3.28446501865983">
        <ele>25.129999999999999</ele>
        <time>2025-05-15T14:12:25Z</time>
      </trkpt>
      <trkpt lat="42.303629005327821" lon="3.284526038914919">
        <ele>26.09</ele>
        <time>2025-05-15T14:12:26Z</time>
      </trkpt>
      <trkpt lat="42.302628960460424" lon="3.284803982824087">
        <ele>35.710000000000001</ele>
        <time>2025-05-15T14:12:36Z</time>
      </trkpt>
      <trkpt lat="42.302542962133884" lon="3.284814041107893">
        <ele>36.189999999999998</ele>
        <time>2025-05-15T14:12:37Z</time>
      </trkpt>
      <trkpt lat="42.301728995516896" lon="3.284882018342614">
        <ele>40.509999999999998</ele>
        <time>2025-05-15T14:12:46Z</time>
      </trkpt>
      <trkpt lat="42.301152991130948" lon="3.284908002242446">
        <ele>40.030000000000001</ele>
        <time>2025-05-15T14:12:52Z</time>
      </trkpt>
      <trkpt lat="42.301036985591054" lon="3.284943960607052">
        <ele>40.030000000000001</ele>
        <time>2025-05-15T14:12:53Z</time>
      </trkpt>
      <trkpt lat="42.300931038334966" lon="3.285030964761972">
        <ele>39.07</ele>
        <time>2025-05-15T14:12:54Z</time>
      </trkpt>
      <trkpt lat="42.300819978117943" lon="3.285122998058796">
        <ele>39.07</ele>
        <time>2025-05-15T14:12:55Z</time>
      </trkpt>
      <trkpt lat="42.30070699006319" lon="3.285216037184">
        <ele>38.109999999999999</ele>
        <time>2025-05-15T14:12:56Z</time>
      </trkpt>
      <trkpt lat="42.299641985446215" lon="3.286085994914174">
        <ele>28.5</ele>
        <time>2025-05-15T14:13:06Z</time>
      </trkpt>
      <trkpt lat="42.299551963806152" lon="3.286156989634037">
        <ele>28.02</ele>
        <time>2025-05-15T14:13:07Z</time>
      </trkpt>
      <trkpt lat="42.299433024600148" lon="3.28614198602736">
        <ele>27.050000000000001</ele>
        <time>2025-05-15T14:13:08Z</time>
      </trkpt>
      <trkpt lat="42.299344008788466" lon="3.286104016005993">
        <ele>26.57</ele>
        <time>2025-05-15T14:13:09Z</time>
      </trkpt>
      <trkpt lat="42.299265973269939" lon="3.286036960780621">
        <ele>25.609999999999999</ele>
        <time>2025-05-15T14:13:10Z</time>
      </trkpt>
      <trkpt lat="42.299195984378457" lon="3.285945011302829">
        <ele>25.129999999999999</ele>
        <time>2025-05-15T14:13:11Z</time>
      </trkpt>
      <trkpt lat="42.299136975780129" lon="3.285826994106174">
        <ele>24.649999999999999</ele>
        <time>2025-05-15T14:13:12Z</time>
      </trkpt>
      <trkpt lat="42.299101017415524" lon="3.285683998838067">
        <ele>23.690000000000001</ele>
        <time>2025-05-15T14:13:13Z</time>
      </trkpt>
      <trkpt lat="42.299064975231886" lon="3.285546032711864">
        <ele>23.210000000000001</ele>
        <time>2025-05-15T14:13:14Z</time>
      </trkpt>
      <trkpt lat="42.298868000507355" lon="3.284704992547631">
        <ele>16.48</ele>
        <time>2025-05-15T14:13:22Z</time>
      </trkpt>
      <trkpt lat="42.298718970268965" lon="3.283788012340665">
        <ele>12.15</ele>
        <time>2025-05-15T14:13:28Z</time>
      </trkpt>
      <trkpt lat="42.298634983599186" lon="3.283307980746031">
        <ele>10.23</ele>
        <time>2025-05-15T14:13:32Z</time>
      </trkpt>
      <trkpt lat="42.298600031062961" lon="3.283226005733013">
        <ele>10.23</ele>
        <time>2025-05-15T14:13:33Z</time>
      </trkpt>
      <trkpt lat="42.298554014414549" lon="3.283143024891615">
        <ele>9.75</ele>
        <time>2025-05-15T14:13:34Z</time>
      </trkpt>
      <trkpt lat="42.298501040786505" lon="3.28304504044354">
        <ele>9.75</ele>
        <time>2025-05-15T14:13:35Z</time>
      </trkpt>
      <trkpt lat="42.29817196726799" lon="3.282646983861923">
        <ele>10.23</ele>
        <time>2025-05-15T14:13:39Z</time>
      </trkpt>
      <trkpt lat="42.298064008355141" lon="3.282537013292313">
        <ele>10.710000000000001</ele>
        <time>2025-05-15T14:13:40Z</time>
      </trkpt>
      <trkpt lat="42.297950014472008" lon="3.282480016350746">
        <ele>11.19</ele>
        <time>2025-05-15T14:13:41Z</time>
      </trkpt>
      <trkpt lat="42.29782403446734" lon="3.282452020794153">
        <ele>12.15</ele>
        <time>2025-05-15T14:13:42Z</time>
      </trkpt>
      <trkpt lat="42.297702999785542" lon="3.282469036057591">
        <ele>12.630000000000001</ele>
        <time>2025-05-15T14:13:43Z</time>
      </trkpt>
      <trkpt lat="42.297581965103745" lon="3.282486973330379">
        <ele>13.6</ele>
        <time>2025-05-15T14:13:44Z</time>
      </trkpt>
      <trkpt lat="42.297470988705754" lon="3.282547993585467">
        <ele>14.08</ele>
        <time>2025-05-15T14:13:45Z</time>
      </trkpt>
      <trkpt lat="42.296609999611974" lon="3.283002963289619">
        <ele>19.359999999999999</ele>
        <time>2025-05-15T14:13:53Z</time>
      </trkpt>
      <trkpt lat="42.29649399407208" lon="3.283042022958398">
        <ele>18.879999999999999</ele>
        <time>2025-05-15T14:13:54Z</time>
      </trkpt>
      <trkpt lat="42.296376982703805" lon="3.28304504044354">
        <ele>18.399999999999999</ele>
        <time>2025-05-15T14:13:55Z</time>
      </trkpt>
      <trkpt lat="42.296260977163911" lon="3.283033976331353">
        <ele>18.399999999999999</ele>
        <time>2025-05-15T14:13:56Z</time>
      </trkpt>
      <trkpt lat="42.296139020472765" lon="3.283007992431521">
        <ele>17.920000000000002</ele>
        <time>2025-05-15T14:13:57Z</time>
      </trkpt>
      <trkpt lat="42.296016979962587" lon="3.282981002703309">
        <ele>17.920000000000002</ele>
        <time>2025-05-15T14:13:58Z</time>
      </trkpt>
      <trkpt lat="42.295901980251074" lon="3.282956024631858">
        <ele>17.920000000000002</ele>
        <time>2025-05-15T14:13:59Z</time>
      </trkpt>
      <trkpt lat="42.295456985011697" lon="3.28281101770699">
        <ele>20.809999999999999</ele>
        <time>2025-05-15T14:14:04Z</time>
      </trkpt>
      <trkpt lat="42.295382972806692" lon="3.282712027430534">
        <ele>21.289999999999999</ele>
        <time>2025-05-15T14:14:05Z</time>
      </trkpt>
      <trkpt lat="42.295316001400352" lon="3.282619994133711">
        <ele>21.77</ele>
        <time>2025-05-15T14:14:06Z</time>
      </trkpt>
      <trkpt lat="42.295261016115546" lon="3.282503988593817">
        <ele>22.25</ele>
        <time>2025-05-15T14:14:07Z</time>
      </trkpt>
      <trkpt lat="42.295222962275147" lon="3.282383037731051">
        <ele>22.73</ele>
        <time>2025-05-15T14:14:08Z</time>
      </trkpt>
      <trkpt lat="42.29518499225378" lon="3.282262003049254">
        <ele>23.210000000000001</ele>
        <time>2025-05-15T14:14:09Z</time>
      </trkpt>
      <trkpt lat="42.295115003362298" lon="3.282151026651263">
        <ele>23.690000000000001</ele>
        <time>2025-05-15T14:14:10Z</time>
      </trkpt>
      <trkpt lat="42.295039985328913" lon="3.282052036374807">
        <ele>24.649999999999999</ele>
        <time>2025-05-15T14:14:11Z</time>
      </trkpt>
      <trkpt lat="42.294964967295527" lon="3.2819539681077">
        <ele>25.609999999999999</ele>
        <time>2025-05-15T14:14:12Z</time>
      </trkpt>
      <trkpt lat="42.294891960918903" lon="3.281857995316386">
        <ele>26.57</ele>
        <time>2025-05-15T14:14:13Z</time>
      </trkpt>
      <trkpt lat="42.294824989512563" lon="3.28175799921155">
        <ele>28.02</ele>
        <time>2025-05-15T14:14:14Z</time>
      </trkpt>
      <trkpt lat="42.294781990349293" lon="3.281635036692023">
        <ele>28.98</ele>
        <time>2025-05-15T14:14:15Z</time>
      </trkpt>
      <trkpt lat="42.294656010344625" lon="3.281272016465664">
        <ele>32.82</ele>
        <time>2025-05-15T14:14:18Z</time>
      </trkpt>
      <trkpt lat="42.294566994532943" lon="3.281163973733783">
        <ele>34.259999999999998</ele>
        <time>2025-05-15T14:14:19Z</time>
      </trkpt>
      <trkpt lat="42.294477978721261" lon="3.28109297901392">
        <ele>35.229999999999997</ele>
        <time>2025-05-15T14:14:20Z</time>
      </trkpt>
      <trkpt lat="42.294391980394721" lon="3.281023995950818">
        <ele>36.189999999999998</ele>
        <time>2025-05-15T14:14:21Z</time>
      </trkpt>
      <trkpt lat="42.294290978461504" lon="3.280959036201239">
        <ele>36.670000000000002</ele>
        <time>2025-05-15T14:14:22Z</time>
      </trkpt>
      <trkpt lat="42.294209003448486" lon="3.2809420209378">
        <ele>37.149999999999999</ele>
        <time>2025-05-15T14:14:23Z</time>
      </trkpt>
      <trkpt lat="42.29408998042345" lon="3.280961969867349">
        <ele>38.109999999999999</ele>
        <time>2025-05-15T14:14:24Z</time>
      </trkpt>
      <trkpt lat="42.293997025117278" lon="3.280977979302406">
        <ele>38.590000000000003</ele>
        <time>2025-05-15T14:14:25Z</time>
      </trkpt>
      <trkpt lat="42.293911026790738" lon="3.280991977080703">
        <ele>39.07</ele>
        <time>2025-05-15T14:14:26Z</time>
      </trkpt>
      <trkpt lat="42.293828967958689" lon="3.281005974858999">
        <ele>39.07</ele>
        <time>2025-05-15T14:14:27Z</time>
      </trkpt>
      <trkpt lat="42.293746992945671" lon="3.281018966808915">
        <ele>39.549999999999997</ele>
        <time>2025-05-15T14:14:28Z</time>
      </trkpt>
      <trkpt lat="42.293578013777733" lon="3.281047968193889">
        <ele>40.030000000000001</ele>
        <time>2025-05-15T14:14:30Z</time>
      </trkpt>
      <trkpt lat="42.293494027107954" lon="3.28104997985065">
        <ele>40.030000000000001</ele>
        <time>2025-05-15T14:14:31Z</time>
      </trkpt>
      <trkpt lat="42.293408028781414" lon="3.28104997985065">
        <ele>40.030000000000001</ele>
        <time>2025-05-15T14:14:32Z</time>
      </trkpt>
      <trkpt lat="42.293333010748029" lon="3.281022990122438">
        <ele>40.030000000000001</ele>
        <time>2025-05-15T14:14:33Z</time>
      </trkpt>
      <trkpt lat="42.293260004371405" lon="3.280991977080703">
        <ele>40.030000000000001</ele>
        <time>2025-05-15T14:14:34Z</time>
      </trkpt>
      <trkpt lat="42.293196972459555" lon="3.28096498735249">
        <ele>40.030000000000001</ele>
        <time>2025-05-15T14:14:35Z</time>
      </trkpt>
      <trkpt lat="42.293143998831511" lon="3.2809420209378">
        <ele>40.509999999999998</ele>
        <time>2025-05-15T14:14:36Z</time>
      </trkpt>
      <trkpt lat="42.293098988011479" lon="3.280922994017601">
        <ele>40.990000000000002</ele>
        <time>2025-05-15T14:14:37Z</time>
      </trkpt>
      <trkpt lat="42.293070992454886" lon="3.280892986804247">
        <ele>40.990000000000002</ele>
        <time>2025-05-15T14:14:38Z</time>
      </trkpt>
      <trkpt lat="42.292860019952059" lon="3.280676985159516">
        <ele>41.950000000000003</ele>
        <time>2025-05-15T14:14:43Z</time>
      </trkpt>
      <trkpt lat="42.292708978056908" lon="3.280586963519454">
        <ele>41.469999999999999</ele>
        <time>2025-05-15T14:14:45Z</time>
      </trkpt>
      <trkpt lat="42.292543016374111" lon="3.28053398989141">
        <ele>40.030000000000001</ele>
        <time>2025-05-15T14:14:47Z</time>
      </trkpt>
      <trkpt lat="42.292502028867602" lon="3.280471041798592">
        <ele>40.030000000000001</ele>
        <time>2025-05-15T14:14:48Z</time>
      </trkpt>
      <trkpt lat="42.292462969198823" lon="3.280411027371883">
        <ele>39.549999999999997</ele>
        <time>2025-05-15T14:14:49Z</time>
      </trkpt>
      <trkpt lat="42.29219701141119" lon="3.280044989660382">
        <ele>38.109999999999999</ele>
        <time>2025-05-15T14:14:55Z</time>
      </trkpt>
      <trkpt lat="42.292073965072632" lon="3.279923032969236">
        <ele>37.149999999999999</ele>
        <time>2025-05-15T14:14:58Z</time>
      </trkpt>
      <trkpt lat="42.292043035849929" lon="3.279892019927502">
        <ele>36.670000000000002</ele>
        <time>2025-05-15T14:14:59Z</time>
      </trkpt>
      <trkpt lat="42.292020991444588" lon="3.279834017157555">
        <ele>36.189999999999998</ele>
        <time>2025-05-15T14:15:00Z</time>
      </trkpt>
      <trkpt lat="42.292020991444588" lon="3.279754975810647">
        <ele>35.710000000000001</ele>
        <time>2025-05-15T14:15:01Z</time>
      </trkpt>
      <trkpt lat="42.29202501475811" lon="3.279664032161236">
        <ele>35.229999999999997</ele>
        <time>2025-05-15T14:15:02Z</time>
      </trkpt>
      <trkpt lat="42.292052004486322" lon="3.279585996642709">
        <ele>34.259999999999998</ele>
        <time>2025-05-15T14:15:03Z</time>
      </trkpt>
      <trkpt lat="42.292080000042915" lon="3.279504021629691">
        <ele>33.780000000000001</ele>
        <time>2025-05-15T14:15:04Z</time>
      </trkpt>
      <trkpt lat="42.292106989771128" lon="3.279424980282784">
        <ele>33.299999999999997</ele>
        <time>2025-05-15T14:15:05Z</time>
      </trkpt>
      <trkpt lat="42.29213397949934" lon="3.279347028583288">
        <ele>32.82</ele>
        <time>2025-05-15T14:15:06Z</time>
      </trkpt>
      <trkpt lat="42.292159963399172" lon="3.279269998893142">
        <ele>32.340000000000003</ele>
        <time>2025-05-15T14:15:07Z</time>
      </trkpt>
      <trkpt lat="42.292187036946416" lon="3.279191963374615">
        <ele>31.859999999999999</ele>
        <time>2025-05-15T14:15:08Z</time>
      </trkpt>
      <trkpt lat="42.292380994185805" lon="3.278704974800348">
        <ele>29.460000000000001</ele>
        <time>2025-05-15T14:15:14Z</time>
      </trkpt>
      <trkpt lat="42.29243203997612" lon="3.278628028929234">
        <ele>29.460000000000001</ele>
        <time>2025-05-15T14:15:15Z</time>
      </trkpt>
      <trkpt lat="42.292485013604164" lon="3.278587963432074">
        <ele>28.98</ele>
        <time>2025-05-15T14:15:16Z</time>
      </trkpt>
      <trkpt lat="42.292616022750735" lon="3.278500959277153">
        <ele>28.5</ele>
        <time>2025-05-15T14:15:18Z</time>
      </trkpt>
      <trkpt lat="42.292683999985456" lon="3.27846902422607">
        <ele>28.5</ele>
        <time>2025-05-15T14:15:19Z</time>
      </trkpt>
      <trkpt lat="42.29282196611166" lon="3.278404986485839">
        <ele>28.5</ele>
        <time>2025-05-15T14:15:21Z</time>
      </trkpt>
      <trkpt lat="42.292876029387116" lon="3.278370033949614">
        <ele>28.5</ele>
        <time>2025-05-15T14:15:22Z</time>
      </trkpt>
      <trkpt lat="42.292936965823174" lon="3.278310019522905">
        <ele>28.5</ele>
        <time>2025-05-15T14:15:23Z</time>
      </trkpt>
      <trkpt lat="42.293004021048546" lon="3.278252016752958">
        <ele>28.5</ele>
        <time>2025-05-15T14:15:24Z</time>
      </trkpt>
      <trkpt lat="42.293065041303635" lon="3.278200970962644">
        <ele>28.02</ele>
        <time>2025-05-15T14:15:25Z</time>
      </trkpt>
      <trkpt lat="42.293123966082931" lon="3.278130982071161">
        <ele>28.02</ele>
        <time>2025-05-15T14:15:26Z</time>
      </trkpt>
      <trkpt lat="42.293183980509639" lon="3.278059987351298">
        <ele>28.02</ele>
        <time>2025-05-15T14:15:27Z</time>
      </trkpt>
      <trkpt lat="42.293242989107966" lon="3.277989998459816">
        <ele>27.530000000000001</ele>
        <time>2025-05-15T14:15:28Z</time>
      </trkpt>
      <trkpt lat="42.29329202324152" lon="3.277920009568334">
        <ele>27.530000000000001</ele>
        <time>2025-05-15T14:15:29Z</time>
      </trkpt>
      <trkpt lat="42.293319012969732" lon="3.277829987928271">
        <ele>27.050000000000001</ele>
        <time>2025-05-15T14:15:30Z</time>
      </trkpt>
      <trkpt lat="42.293343991041183" lon="3.277746001258493">
        <ele>27.050000000000001</ele>
        <time>2025-05-15T14:15:31Z</time>
      </trkpt>
      <trkpt lat="42.293297974392772" lon="3.277663020417094">
        <ele>27.050000000000001</ele>
        <time>2025-05-15T14:15:32Z</time>
      </trkpt>
      <trkpt lat="42.293247012421489" lon="3.277605017647147">
        <ele>27.530000000000001</ele>
        <time>2025-05-15T14:15:33Z</time>
      </trkpt>
      <trkpt lat="42.293186997994781" lon="3.277549026533961">
        <ele>27.530000000000001</ele>
        <time>2025-05-15T14:15:34Z</time>
      </trkpt>
      <trkpt lat="42.293116003274918" lon="3.277535028755665">
        <ele>28.02</ele>
        <time>2025-05-15T14:15:35Z</time>
      </trkpt>
      <trkpt lat="42.293040985241532" lon="3.277520025148988">
        <ele>28.02</ele>
        <time>2025-05-15T14:15:36Z</time>
      </trkpt>
      <trkpt lat="42.292719036340714" lon="3.277445007115603">
        <ele>28.02</ele>
        <time>2025-05-15T14:15:40Z</time>
      </trkpt>
      <trkpt lat="42.292639994993806" lon="3.277413994073868">
        <ele>28.02</ele>
        <time>2025-05-15T14:15:41Z</time>
      </trkpt>
      <trkpt lat="42.292491970583797" lon="3.277321960777044">
        <ele>27.530000000000001</ele>
        <time>2025-05-15T14:15:43Z</time>
      </trkpt>
      <trkpt lat="42.292430028319359" lon="3.277265969663858">
        <ele>27.530000000000001</ele>
        <time>2025-05-15T14:15:44Z</time>
      </trkpt>
      <trkpt lat="42.292365990579128" lon="3.277207966893911">
        <ele>27.050000000000001</ele>
        <time>2025-05-15T14:15:45Z</time>
      </trkpt>
      <trkpt lat="42.292315028607845" lon="3.277105037122965">
        <ele>26.57</ele>
        <time>2025-05-15T14:15:46Z</time>
      </trkpt>
      <trkpt lat="42.292282003909349" lon="3.277006968855858">
        <ele>26.57</ele>
        <time>2025-05-15T14:15:47Z</time>
      </trkpt>
      <trkpt lat="42.292253002524376" lon="3.276899009943008">
        <ele>26.09</ele>
        <time>2025-05-15T14:15:48Z</time>
      </trkpt>
      <trkpt lat="42.292237998917699" lon="3.276788033545017">
        <ele>25.609999999999999</ele>
        <time>2025-05-15T14:15:49Z</time>
      </trkpt>
      <trkpt lat="42.292191982269287" lon="3.2761309761554">
        <ele>26.09</ele>
        <time>2025-05-15T14:15:55Z</time>
      </trkpt>
      <trkpt lat="42.292203968390822" lon="3.276027040556073">
        <ele>26.57</ele>
        <time>2025-05-15T14:15:56Z</time>
      </trkpt>
      <trkpt lat="42.292230036109686" lon="3.275920003652573">
        <ele>26.57</ele>
        <time>2025-05-15T14:15:57Z</time>
      </trkpt>
      <trkpt lat="42.292293990030885" lon="3.275824030861259">
        <ele>27.050000000000001</ele>
        <time>2025-05-15T14:15:58Z</time>
      </trkpt>
      <trkpt lat="42.292358027771115" lon="3.275741972029209">
        <ele>27.530000000000001</ele>
        <time>2025-05-15T14:15:59Z</time>
      </trkpt>
      <trkpt lat="42.292428016662598" lon="3.275664020329714">
        <ele>28.5</ele>
        <time>2025-05-15T14:16:00Z</time>
      </trkpt>
      <trkpt lat="42.292500017210841" lon="3.27559201978147">
        <ele>28.5</ele>
        <time>2025-05-15T14:16:01Z</time>
      </trkpt>
      <trkpt lat="42.292578974738717" lon="3.275513984262943">
        <ele>28.98</ele>
        <time>2025-05-15T14:16:02Z</time>
      </trkpt>
      <trkpt lat="42.292858008295298" lon="3.27537702396512">
        <ele>30.899999999999999</ele>
        <time>2025-05-15T14:16:05Z</time>
      </trkpt>
      <trkpt lat="42.293046014383435" lon="3.275309968739748">
        <ele>31.859999999999999</ele>
        <time>2025-05-15T14:16:07Z</time>
      </trkpt>
      <trkpt lat="42.293137041851878" lon="3.275278033688664">
        <ele>32.340000000000003</ele>
        <time>2025-05-15T14:16:08Z</time>
      </trkpt>
      <trkpt lat="42.293200995773077" lon="3.275212990120053">
        <ele>32.82</ele>
        <time>2025-05-15T14:16:09Z</time>
      </trkpt>
      <trkpt lat="42.293286994099617" lon="3.275122968479991">
        <ele>33.299999999999997</ele>
        <time>2025-05-15T14:16:10Z</time>
      </trkpt>
      <trkpt lat="42.293303003534675" lon="3.27499003149569">
        <ele>33.780000000000001</ele>
        <time>2025-05-15T14:16:11Z</time>
      </trkpt>
      <trkpt lat="42.293322030454874" lon="3.274837983772159">
        <ele>33.780000000000001</ele>
        <time>2025-05-15T14:16:12Z</time>
      </trkpt>
      <trkpt lat="42.293340973556042" lon="3.274673027917743">
        <ele>33.780000000000001</ele>
        <time>2025-05-15T14:16:13Z</time>
      </trkpt>
      <trkpt lat="42.293351031839848" lon="3.274343032389879">
        <ele>33.299999999999997</ele>
        <time>2025-05-15T14:16:15Z</time>
      </trkpt>
      <trkpt lat="42.293351031839848" lon="3.274198025465012">
        <ele>32.82</ele>
        <time>2025-05-15T14:16:16Z</time>
      </trkpt>
      <trkpt lat="42.293278025463223" lon="3.274075984954834">
        <ele>32.82</ele>
        <time>2025-05-15T14:16:17Z</time>
      </trkpt>
      <trkpt lat="42.293222034350038" lon="3.274012031033635">
        <ele>32.340000000000003</ele>
        <time>2025-05-15T14:16:18Z</time>
      </trkpt>
      <trkpt lat="42.293121032416821" lon="3.274012031033635">
        <ele>32.340000000000003</ele>
        <time>2025-05-15T14:16:19Z</time>
      </trkpt>
      <trkpt lat="42.293063029646873" lon="3.274048995226622">
        <ele>31.859999999999999</ele>
        <time>2025-05-15T14:16:20Z</time>
      </trkpt>
      <trkpt lat="42.292988011613488" lon="3.274139016866684">
        <ele>31.379999999999999</ele>
        <time>2025-05-15T14:16:21Z</time>
      </trkpt>
      <trkpt lat="42.292901007458568" lon="3.274243036285043">
        <ele>30.899999999999999</ele>
        <time>2025-05-15T14:16:22Z</time>
      </trkpt>
      <trkpt lat="42.292805034667253" lon="3.274358035996556">
        <ele>30.420000000000002</ele>
        <time>2025-05-15T14:16:23Z</time>
      </trkpt>
      <trkpt lat="42.29269003495574" lon="3.274439005181193">
        <ele>29.940000000000001</ele>
        <time>2025-05-15T14:16:24Z</time>
      </trkpt>
      <trkpt lat="42.292579980567098" lon="3.274493990465999">
        <ele>29.940000000000001</ele>
        <time>2025-05-15T14:16:25Z</time>
      </trkpt>
      <trkpt lat="42.292472021654248" lon="3.274527015164495">
        <ele>28.98</ele>
        <time>2025-05-15T14:16:26Z</time>
      </trkpt>
      <trkpt lat="42.292292984202504" lon="3.27453900128603">
        <ele>28.02</ele>
        <time>2025-05-15T14:16:28Z</time>
      </trkpt>
      <trkpt lat="42.292056027799845" lon="3.274521986022592">
        <ele>26.09</ele>
        <time>2025-05-15T14:16:32Z</time>
      </trkpt>
      <trkpt lat="42.291995007544756" lon="3.274506982415915">
        <ele>25.129999999999999</ele>
        <time>2025-05-15T14:16:33Z</time>
      </trkpt>
      <trkpt lat="42.291933987289667" lon="3.274492984637618">
        <ele>24.649999999999999</ele>
        <time>2025-05-15T14:16:34Z</time>
      </trkpt>
      <trkpt lat="42.291891993954778" lon="3.274484016001225">
        <ele>24.649999999999999</ele>
        <time>2025-05-15T14:16:35Z</time>
      </trkpt>
      <trkpt lat="42.291822005063295" lon="3.274420984089375">
        <ele>24.170000000000002</ele>
        <time>2025-05-15T14:16:36Z</time>
      </trkpt>
      <trkpt lat="42.291755033656955" lon="3.274360969662666">
        <ele>24.170000000000002</ele>
        <time>2025-05-15T14:16:37Z</time>
      </trkpt>
      <trkpt lat="42.291675992310047" lon="3.274288969114423">
        <ele>23.690000000000001</ele>
        <time>2025-05-15T14:16:38Z</time>
      </trkpt>
      <trkpt lat="42.291596028953791" lon="3.274216968566179">
        <ele>23.210000000000001</ele>
        <time>2025-05-15T14:16:39Z</time>
      </trkpt>
      <trkpt lat="42.291520005092025" lon="3.274148991331458">
        <ele>22.73</ele>
        <time>2025-05-15T14:16:40Z</time>
      </trkpt>
      <trkpt lat="42.291453033685684" lon="3.274093000218272">
        <ele>22.25</ele>
        <time>2025-05-15T14:16:41Z</time>
      </trkpt>
      <trkpt lat="42.291331999003887" lon="3.274038014933467">
        <ele>21.289999999999999</ele>
        <time>2025-05-15T14:16:43Z</time>
      </trkpt>
      <trkpt lat="42.291282964870334" lon="3.274015970528126">
        <ele>20.809999999999999</ele>
        <time>2025-05-15T14:16:44Z</time>
      </trkpt>
      <trkpt lat="42.291226973757148" lon="3.273989986628294">
        <ele>19.84</ele>
        <time>2025-05-15T14:16:45Z</time>
      </trkpt>
      <trkpt lat="42.29086403734982" lon="3.273840034380555">
        <ele>16.48</ele>
        <time>2025-05-15T14:16:51Z</time>
      </trkpt>
      <trkpt lat="42.290791030973196" lon="3.273840034380555">
        <ele>16</ele>
        <time>2025-05-15T14:16:52Z</time>
      </trkpt>
      <trkpt lat="42.290720036253333" lon="3.273840034380555">
        <ele>15.52</ele>
        <time>2025-05-15T14:16:53Z</time>
      </trkpt>
      <trkpt lat="42.290652981027961" lon="3.273854032158852">
        <ele>14.56</ele>
        <time>2025-05-15T14:16:54Z</time>
      </trkpt>
      <trkpt lat="42.290583997964859" lon="3.273880016058683">
        <ele>14.08</ele>
        <time>2025-05-15T14:16:55Z</time>
      </trkpt>
      <trkpt lat="42.290463969111443" lon="3.273903988301754">
        <ele>12.630000000000001</ele>
        <time>2025-05-15T14:16:57Z</time>
      </trkpt>
      <trkpt lat="42.290412001311779" lon="3.273903988301754">
        <ele>12.15</ele>
        <time>2025-05-15T14:16:58Z</time>
      </trkpt>
      <trkpt lat="42.290299013257027" lon="3.273871969431639">
        <ele>11.19</ele>
        <time>2025-05-15T14:16:59Z</time>
      </trkpt>
      <trkpt lat="42.290288032963872" lon="3.273807009682059">
        <ele>10.710000000000001</ele>
        <time>2025-05-15T14:17:00Z</time>
      </trkpt>
      <trkpt lat="42.29032700881362" lon="3.273697039112449">
        <ele>9.75</ele>
        <time>2025-05-15T14:17:01Z</time>
      </trkpt>
      <trkpt lat="42.290361039340496" lon="3.27363601885736">
        <ele>9.27</ele>
        <time>2025-05-15T14:17:02Z</time>
      </trkpt>
      <trkpt lat="42.290398003533483" lon="3.273571981117129">
        <ele>8.789999999999999</ele>
        <time>2025-05-15T14:17:03Z</time>
      </trkpt>
      <trkpt lat="42.290807040408254" lon="3.272863039746881">
        <ele>11.67</ele>
        <time>2025-05-15T14:17:10Z</time>
      </trkpt>
      <trkpt lat="42.290850039571524" lon="3.272728007286787">
        <ele>12.15</ele>
        <time>2025-05-15T14:17:11Z</time>
      </trkpt>
      <trkpt lat="42.290856996551156" lon="3.272595992311835">
        <ele>13.119999999999999</ele>
        <time>2025-05-15T14:17:12Z</time>
      </trkpt>
      <trkpt lat="42.290829000994563" lon="3.272470012307167">
        <ele>13.6</ele>
        <time>2025-05-15T14:17:13Z</time>
      </trkpt>
      <trkpt lat="42.290755994617939" lon="3.272382002323866">
        <ele>14.56</ele>
        <time>2025-05-15T14:17:14Z</time>
      </trkpt>
      <trkpt lat="42.290667984634638" lon="3.272337997332215">
        <ele>15.039999999999999</ele>
        <time>2025-05-15T14:17:15Z</time>
      </trkpt>
      <trkpt lat="42.290562959387898" lon="3.272337997332215">
        <ele>15.52</ele>
        <time>2025-05-15T14:17:16Z</time>
      </trkpt>
      <trkpt lat="42.290446031838655" lon="3.272337997332215">
        <ele>16</ele>
        <time>2025-05-15T14:17:17Z</time>
      </trkpt>
      <trkpt lat="42.2903470415622" lon="3.272337997332215">
        <ele>16.960000000000001</ele>
        <time>2025-05-15T14:17:18Z</time>
      </trkpt>
      <trkpt lat="42.290209997445345" lon="3.272275971248746">
        <ele>17.440000000000001</ele>
        <time>2025-05-15T14:17:19Z</time>
      </trkpt>
      <trkpt lat="42.290087034925818" lon="3.272211011499167">
        <ele>18.399999999999999</ele>
        <time>2025-05-15T14:17:20Z</time>
      </trkpt>
      <trkpt lat="42.289286982268095" lon="3.27153199352324">
        <ele>26.57</ele>
        <time>2025-05-15T14:17:27Z</time>
      </trkpt>
      <trkpt lat="42.289220010861754" lon="3.27142302878201">
        <ele>27.530000000000001</ele>
        <time>2025-05-15T14:17:28Z</time>
      </trkpt>
      <trkpt lat="42.28916896507144" lon="3.271302999928594">
        <ele>28.02</ele>
        <time>2025-05-15T14:17:29Z</time>
      </trkpt>
      <trkpt lat="42.289112973958254" lon="3.2711679674685">
        <ele>28.5</ele>
        <time>2025-05-15T14:17:30Z</time>
      </trkpt>
      <trkpt lat="42.289065029472113" lon="3.271013991907239">
        <ele>29.460000000000001</ele>
        <time>2025-05-15T14:17:31Z</time>
      </trkpt>
      <trkpt lat="42.288967967033386" lon="3.270546030253172">
        <ele>31.379999999999999</ele>
        <time>2025-05-15T14:17:34Z</time>
      </trkpt>
      <trkpt lat="42.288937959820032" lon="3.270397000014782">
        <ele>31.859999999999999</ele>
        <time>2025-05-15T14:17:35Z</time>
      </trkpt>
      <trkpt lat="42.288952963426709" lon="3.270222991704941">
        <ele>32.340000000000003</ele>
        <time>2025-05-15T14:17:36Z</time>
      </trkpt>
      <trkpt lat="42.288983976468444" lon="3.270061975345016">
        <ele>32.82</ele>
        <time>2025-05-15T14:17:37Z</time>
      </trkpt>
      <trkpt lat="42.2890380397439" lon="3.269935995340347">
        <ele>33.780000000000001</ele>
        <time>2025-05-15T14:17:38Z</time>
      </trkpt>
      <trkpt lat="42.289135018363595" lon="3.269881010055542">
        <ele>35.229999999999997</ele>
        <time>2025-05-15T14:17:39Z</time>
      </trkpt>
      <trkpt lat="42.289230991154909" lon="3.269827030599117">
        <ele>36.189999999999998</ele>
        <time>2025-05-15T14:17:40Z</time>
      </trkpt>
      <trkpt lat="42.289329981431365" lon="3.269832981750369">
        <ele>37.149999999999999</ele>
        <time>2025-05-15T14:17:41Z</time>
      </trkpt>
      <trkpt lat="42.289439029991627" lon="3.269840022549033">
        <ele>38.109999999999999</ele>
        <time>2025-05-15T14:17:42Z</time>
      </trkpt>
      <trkpt lat="42.290400015190244" lon="3.26994395814836">
        <ele>44.840000000000003</ele>
        <time>2025-05-15T14:17:50Z</time>
      </trkpt>
      <trkpt lat="42.29052297770977" lon="3.269980000331998">
        <ele>45.799999999999997</ele>
        <time>2025-05-15T14:17:51Z</time>
      </trkpt>
      <trkpt lat="42.290633032098413" lon="3.270034985616803">
        <ele>46.759999999999998</ele>
        <time>2025-05-15T14:17:52Z</time>
      </trkpt>
      <trkpt lat="42.290974007919431" lon="3.270225003361702">
        <ele>49.649999999999999</ele>
        <time>2025-05-15T14:17:55Z</time>
      </trkpt>
      <trkpt lat="42.29108196683228" lon="3.270252998918295">
        <ele>50.609999999999999</ele>
        <time>2025-05-15T14:17:56Z</time>
      </trkpt>
      <trkpt lat="42.291205013170838" lon="3.270277976989746">
        <ele>51.090000000000003</ele>
        <time>2025-05-15T14:17:57Z</time>
      </trkpt>
      <trkpt lat="42.291320012882352" lon="3.270257022231817">
        <ele>52.530000000000001</ele>
        <time>2025-05-15T14:17:58Z</time>
      </trkpt>
      <trkpt lat="42.29144498705864" lon="3.270234977826476">
        <ele>53.490000000000002</ele>
        <time>2025-05-15T14:17:59Z</time>
      </trkpt>
      <trkpt lat="42.292034989222884" lon="3.270142022520304">
        <ele>57.82</ele>
        <time>2025-05-15T14:18:04Z</time>
      </trkpt>
      <trkpt lat="42.292144959792495" lon="3.27011302113533">
        <ele>58.780000000000001</ele>
        <time>2025-05-15T14:18:05Z</time>
      </trkpt>
      <trkpt lat="42.292245039716363" lon="3.270029034465551">
        <ele>59.740000000000002</ele>
        <time>2025-05-15T14:18:06Z</time>
      </trkpt>
      <trkpt lat="42.29234604164958" lon="3.269943036139011">
        <ele>60.700000000000003</ele>
        <time>2025-05-15T14:18:07Z</time>
      </trkpt>
      <trkpt lat="42.292444026097655" lon="3.269875980913639">
        <ele>61.659999999999997</ele>
        <time>2025-05-15T14:18:08Z</time>
      </trkpt>
      <trkpt lat="42.292536981403828" lon="3.26983499340713">
        <ele>62.140000000000001</ele>
        <time>2025-05-15T14:18:09Z</time>
      </trkpt>
      <trkpt lat="42.292619962245226" lon="3.269799035042524">
        <ele>63.100000000000001</ele>
        <time>2025-05-15T14:18:10Z</time>
      </trkpt>
      <trkpt lat="42.292701015248895" lon="3.269762992858887">
        <ele>64.069999999999993</ele>
        <time>2025-05-15T14:18:11Z</time>
      </trkpt>
      <trkpt lat="42.292777039110661" lon="3.269711025059223">
        <ele>64.549999999999997</ele>
        <time>2025-05-15T14:18:12Z</time>
      </trkpt>
      <trkpt lat="42.292843004688621" lon="3.269633995369077">
        <ele>65.510000000000005</ele>
        <time>2025-05-15T14:18:13Z</time>
      </trkpt>
      <trkpt lat="42.292878963053226" lon="3.269526958465576">
        <ele>65.989999999999995</ele>
        <time>2025-05-15T14:18:14Z</time>
      </trkpt>
      <trkpt lat="42.292868988588452" lon="3.26940399594605">
        <ele>65.989999999999995</ele>
        <time>2025-05-15T14:18:15Z</time>
      </trkpt>
      <trkpt lat="42.292833030223846" lon="3.269281033426523">
        <ele>66.469999999999999</ele>
        <time>2025-05-15T14:18:16Z</time>
      </trkpt>
      <trkpt lat="42.292795982211828" lon="3.269150024279952">
        <ele>67.430000000000007</ele>
        <time>2025-05-15T14:18:17Z</time>
      </trkpt>
      <trkpt lat="42.292720964178443" lon="3.268887000158429">
        <ele>68.390000000000001</ele>
        <time>2025-05-15T14:18:19Z</time>
      </trkpt>
      <trkpt lat="42.292682994157076" lon="3.268755991011858">
        <ele>68.870000000000005</ele>
        <time>2025-05-15T14:18:20Z</time>
      </trkpt>
      <trkpt lat="42.292663967236876" lon="3.268611989915371">
        <ele>69.829999999999998</ele>
        <time>2025-05-15T14:18:21Z</time>
      </trkpt>
      <trkpt lat="42.29264996945858" lon="3.267571963369846">
        <ele>73.680000000000007</ele>
        <time>2025-05-15T14:18:26Z</time>
      </trkpt>
      <trkpt lat="42.292643012478948" lon="3.267081035301089">
        <ele>77.040000000000006</ele>
        <time>2025-05-15T14:18:29Z</time>
      </trkpt>
      <trkpt lat="42.292587021365762" lon="3.266898980364204">
        <ele>77.519999999999996</ele>
        <time>2025-05-15T14:18:30Z</time>
      </trkpt>
      <trkpt lat="42.292537987232208" lon="3.266737964004278">
        <ele>78.480000000000004</ele>
        <time>2025-05-15T14:18:31Z</time>
      </trkpt>
      <trkpt lat="42.292394991964102" lon="3.266276037320495">
        <ele>80.890000000000001</ele>
        <time>2025-05-15T14:18:34Z</time>
      </trkpt>
      <trkpt lat="42.292400021106005" lon="3.266131030395627">
        <ele>81.849999999999994</ele>
        <time>2025-05-15T14:18:35Z</time>
      </trkpt>
      <trkpt lat="42.292417036369443" lon="3.265992980450392">
        <ele>82.329999999999998</ele>
        <time>2025-05-15T14:18:36Z</time>
      </trkpt>
      <trkpt lat="42.292443020269275" lon="3.265853002667427">
        <ele>83.290000000000006</ele>
        <time>2025-05-15T14:18:37Z</time>
      </trkpt>
      <trkpt lat="42.292486019432545" lon="3.265705984085798">
        <ele>84.25</ele>
        <time>2025-05-15T14:18:38Z</time>
      </trkpt>
      <trkpt lat="42.292590038850904" lon="3.26545000076294">
        <ele>86.180000000000007</ele>
        <time>2025-05-15T14:18:40Z</time>
      </trkpt>
      <trkpt lat="42.292659021914005" lon="3.265340030193329">
        <ele>87.140000000000001</ele>
        <time>2025-05-15T14:18:41Z</time>
      </trkpt>
      <trkpt lat="42.29273303411901" lon="3.265223018825054">
        <ele>88.099999999999994</ele>
        <time>2025-05-15T14:18:42Z</time>
      </trkpt>
      <trkpt lat="42.292892960831523" lon="3.264968041330576">
        <ele>89.540000000000006</ele>
        <time>2025-05-15T14:18:44Z</time>
      </trkpt>
      <trkpt lat="42.292953981086612" lon="3.26480601914227">
        <ele>90.5</ele>
        <time>2025-05-15T14:18:45Z</time>
      </trkpt>
      <trkpt lat="42.293028999119997" lon="3.264519022777677">
        <ele>91.939999999999998</ele>
        <time>2025-05-15T14:18:47Z</time>
      </trkpt>
      <trkpt lat="42.293028999119997" lon="3.264392958953977">
        <ele>92.900000000000006</ele>
        <time>2025-05-15T14:18:48Z</time>
      </trkpt>
      <trkpt lat="42.292998991906643" lon="3.26426899060607">
        <ele>93.870000000000005</ele>
        <time>2025-05-15T14:18:49Z</time>
      </trkpt>
      <trkpt lat="42.292854990810156" lon="3.263850985094905">
        <ele>95.790000000000006</ele>
        <time>2025-05-15T14:18:52Z</time>
      </trkpt>
      <trkpt lat="42.292839987203479" lon="3.263693992048502">
        <ele>96.269999999999996</ele>
        <time>2025-05-15T14:18:53Z</time>
      </trkpt>
      <trkpt lat="42.292846022173762" lon="3.263536999002099">
        <ele>96.75</ele>
        <time>2025-05-15T14:18:54Z</time>
      </trkpt>
      <trkpt lat="42.292850967496634" lon="3.263384029269218">
        <ele>97.230000000000004</ele>
        <time>2025-05-15T14:18:55Z</time>
      </trkpt>
      <trkpt lat="42.292857002466917" lon="3.263239022344351">
        <ele>97.709999999999994</ele>
        <time>2025-05-15T14:18:56Z</time>
      </trkpt>
      <trkpt lat="42.292890027165413" lon="3.263110024854541">
        <ele>98.189999999999998</ele>
        <time>2025-05-15T14:18:57Z</time>
      </trkpt>
      <trkpt lat="42.292921962216496" lon="3.263003993779421">
        <ele>98.670000000000002</ele>
        <time>2025-05-15T14:18:58Z</time>
      </trkpt>
      <trkpt lat="42.293007038533688" lon="3.262899974361062">
        <ele>99.150000000000006</ele>
        <time>2025-05-15T14:18:59Z</time>
      </trkpt>
      <trkpt lat="42.293090019375086" lon="3.262798972427845">
        <ele>99.629999999999995</ele>
        <time>2025-05-15T14:19:00Z</time>
      </trkpt>
      <trkpt lat="42.293196972459555" lon="3.262720014899969">
        <ele>100.11</ele>
        <time>2025-05-15T14:19:01Z</time>
      </trkpt>
      <trkpt lat="42.293337034061551" lon="3.262639967724681">
        <ele>100.59999999999999</ele>
        <time>2025-05-15T14:19:02Z</time>
      </trkpt>
      <trkpt lat="42.293505007401109" lon="3.262542989104986">
        <ele>101.56</ele>
        <time>2025-05-15T14:19:03Z</time>
      </trkpt>
      <trkpt lat="42.293686978518963" lon="3.262437963858247">
        <ele>102.52</ele>
        <time>2025-05-15T14:19:04Z</time>
      </trkpt>
      <trkpt lat="42.294000964611769" lon="3.262255992740393">
        <ele>104.44</ele>
        <time>2025-05-15T14:19:06Z</time>
      </trkpt>
      <trkpt lat="42.294101966544986" lon="3.26216203160584">
        <ele>104.92</ele>
        <time>2025-05-15T14:19:07Z</time>
      </trkpt>
      <trkpt lat="42.294151000678539" lon="3.262051977217197">
        <ele>105.40000000000001</ele>
        <time>2025-05-15T14:19:08Z</time>
      </trkpt>
      <trkpt lat="42.294148989021778" lon="3.261957010254264">
        <ele>105.88</ele>
        <time>2025-05-15T14:19:09Z</time>
      </trkpt>
      <trkpt lat="42.294114036485553" lon="3.261843016371131">
        <ele>106.36</ele>
        <time>2025-05-15T14:19:10Z</time>
      </trkpt>
      <trkpt lat="42.294051004573703" lon="3.261752994731069">
        <ele>106.84</ele>
        <time>2025-05-15T14:19:11Z</time>
      </trkpt>
      <trkpt lat="42.293943967670202" lon="3.26164897531271">
        <ele>107.81</ele>
        <time>2025-05-15T14:19:12Z</time>
      </trkpt>
      <trkpt lat="42.293663006275892" lon="3.261377988383174">
        <ele>109.25</ele>
        <time>2025-05-15T14:19:14Z</time>
      </trkpt>
      <trkpt lat="42.293424960225821" lon="3.261125022545457">
        <ele>110.69</ele>
        <time>2025-05-15T14:19:16Z</time>
      </trkpt>
      <trkpt lat="42.293353965505958" lon="3.260988984256983">
        <ele>111.17</ele>
        <time>2025-05-15T14:19:17Z</time>
      </trkpt>
      <trkpt lat="42.293311972171068" lon="3.260849006474018">
        <ele>112.13</ele>
        <time>2025-05-15T14:19:18Z</time>
      </trkpt>
      <trkpt lat="42.293328987434506" lon="3.260703999549151">
        <ele>112.61</ele>
        <time>2025-05-15T14:19:19Z</time>
      </trkpt>
      <trkpt lat="42.293351031839848" lon="3.260557986795902">
        <ele>113.09</ele>
        <time>2025-05-15T14:19:20Z</time>
      </trkpt>
      <trkpt lat="42.293425966054201" lon="3.260366963222623">
        <ele>113.09</ele>
        <time>2025-05-15T14:19:21Z</time>
      </trkpt>
      <trkpt lat="42.293502995744348" lon="3.260172000154853">
        <ele>113.09</ele>
        <time>2025-05-15T14:19:22Z</time>
      </trkpt>
      <trkpt lat="42.293586982414126" lon="3.259957004338503">
        <ele>113.56999999999999</ele>
        <time>2025-05-15T14:19:23Z</time>
      </trkpt>
      <trkpt lat="42.293693013489246" lon="3.259819960221648">
        <ele>113.56999999999999</ele>
        <time>2025-05-15T14:19:24Z</time>
      </trkpt>
      <trkpt lat="42.293826034292579" lon="3.259694986045361">
        <ele>114.05</ele>
        <time>2025-05-15T14:19:25Z</time>
      </trkpt>
      <trkpt lat="42.293968023732305" lon="3.259606976062059">
        <ele>114.53</ele>
        <time>2025-05-15T14:19:26Z</time>
      </trkpt>
      <trkpt lat="42.294111019000411" lon="3.259580992162228">
        <ele>115.5</ele>
        <time>2025-05-15T14:19:27Z</time>
      </trkpt>
      <trkpt lat="42.29426197707653" lon="3.259588032960892">
        <ele>115.98</ele>
        <time>2025-05-15T14:19:28Z</time>
      </trkpt>
      <trkpt lat="42.294425005093217" lon="3.259618962183595">
        <ele>115.98</ele>
        <time>2025-05-15T14:19:29Z</time>
      </trkpt>
      <trkpt lat="42.294852985069156" lon="3.259699009358883">
        <ele>117.42</ele>
        <time>2025-05-15T14:19:32Z</time>
      </trkpt>
      <trkpt lat="42.294988017529249" lon="3.259653998538852">
        <ele>117.42</ele>
        <time>2025-05-15T14:19:33Z</time>
      </trkpt>
      <trkpt lat="42.295050965622067" lon="3.259618040174246">
        <ele>117.42</ele>
        <time>2025-05-15T14:19:34Z</time>
      </trkpt>
      <trkpt lat="42.295081978663802" lon="3.259503040462732">
        <ele>117.42</ele>
        <time>2025-05-15T14:19:35Z</time>
      </trkpt>
      <trkpt lat="42.295102011412382" lon="3.259372031316161">
        <ele>117.42</ele>
        <time>2025-05-15T14:19:36Z</time>
      </trkpt>
      <trkpt lat="42.295053983107209" lon="3.259223001077771">
        <ele>117.42</ele>
        <time>2025-05-15T14:19:37Z</time>
      </trkpt>
      <trkpt lat="42.295000003650784" lon="3.259057039394975">
        <ele>117.90000000000001</ele>
        <time>2025-05-15T14:19:38Z</time>
      </trkpt>
      <trkpt lat="42.294939989224076" lon="3.258871966972947">
        <ele>118.38</ele>
        <time>2025-05-15T14:19:39Z</time>
      </trkpt>
      <trkpt lat="42.294877963140607" lon="3.258680021390319">
        <ele>118.86</ele>
        <time>2025-05-15T14:19:40Z</time>
      </trkpt>
      <trkpt lat="42.29484099894762" lon="3.258486986160278">
        <ele>119.34</ele>
        <time>2025-05-15T14:19:41Z</time>
      </trkpt>
      <trkpt lat="42.294838987290859" lon="3.258314989507198">
        <ele>119.81999999999999</ele>
        <time>2025-05-15T14:19:42Z</time>
      </trkpt>
      <trkpt lat="42.294852985069156" lon="3.258159002289176">
        <ele>120.78</ele>
        <time>2025-05-15T14:19:43Z</time>
      </trkpt>
      <trkpt lat="42.294928003102541" lon="3.258034028112888">
        <ele>121.26000000000001</ele>
        <time>2025-05-15T14:19:44Z</time>
      </trkpt>
      <trkpt lat="42.295014001429081" lon="3.257893966510892">
        <ele>122.22</ele>
        <time>2025-05-15T14:19:45Z</time>
      </trkpt>
      <trkpt lat="42.295561004430056" lon="3.257127022370696">
        <ele>126.06999999999999</ele>
        <time>2025-05-15T14:19:51Z</time>
      </trkpt>
      <trkpt lat="42.295969035476446" lon="3.256781017407775">
        <ele>128.94999999999999</ele>
        <time>2025-05-15T14:19:55Z</time>
      </trkpt>
      <trkpt lat="42.29602200910449" lon="3.256656965240836">
        <ele>128.94999999999999</ele>
        <time>2025-05-15T14:19:56Z</time>
      </trkpt>
      <trkpt lat="42.296032989397645" lon="3.25655797496438">
        <ele>129.43000000000001</ele>
        <time>2025-05-15T14:19:57Z</time>
      </trkpt>
      <trkpt lat="42.296031983569264" lon="3.256454961374402">
        <ele>129.43000000000001</ele>
        <time>2025-05-15T14:19:58Z</time>
      </trkpt>
      <trkpt lat="42.295993007719517" lon="3.256350019946694">
        <ele>129.91999999999999</ele>
        <time>2025-05-15T14:19:59Z</time>
      </trkpt>
      <trkpt lat="42.29593601077795" lon="3.256242983043194">
        <ele>130.40000000000001</ele>
        <time>2025-05-15T14:20:00Z</time>
      </trkpt>
      <trkpt lat="42.295859986916184" lon="3.256141981109977">
        <ele>130.88</ele>
        <time>2025-05-15T14:20:01Z</time>
      </trkpt>
      <trkpt lat="42.295714979991317" lon="3.255949029698968">
        <ele>132.31999999999999</ele>
        <time>2025-05-15T14:20:03Z</time>
      </trkpt>
      <trkpt lat="42.295653037726879" lon="3.255865965038538">
        <ele>132.80000000000001</ele>
        <time>2025-05-15T14:20:04Z</time>
      </trkpt>
      <trkpt lat="42.295586988329887" lon="3.255839981138706">
        <ele>133.75999999999999</ele>
        <time>2025-05-15T14:20:05Z</time>
      </trkpt>
      <trkpt lat="42.295509036630392" lon="3.255817014724016">
        <ele>134.24000000000001</ele>
        <time>2025-05-15T14:20:06Z</time>
      </trkpt>
      <trkpt lat="42.295415997505188" lon="3.255797987803817">
        <ele>134.72</ele>
        <time>2025-05-15T14:20:07Z</time>
      </trkpt>
      <trkpt lat="42.295298986136913" lon="3.255823971703649">
        <ele>135.68000000000001</ele>
        <time>2025-05-15T14:20:08Z</time>
      </trkpt>
      <trkpt lat="42.295178035274148" lon="3.255851967260242">
        <ele>135.68000000000001</ele>
        <time>2025-05-15T14:20:09Z</time>
      </trkpt>
      <trkpt lat="42.294765980914235" lon="3.255922961980104">
        <ele>138.09</ele>
        <time>2025-05-15T14:20:13Z</time>
      </trkpt>
      <trkpt lat="42.294674031436443" lon="3.25593302026391">
        <ele>138.56999999999999</ele>
        <time>2025-05-15T14:20:14Z</time>
      </trkpt>
      <trkpt lat="42.294287038967013" lon="3.255939977243543">
        <ele>140.00999999999999</ele>
        <time>2025-05-15T14:20:18Z</time>
      </trkpt>
      <trkpt lat="42.294198023155332" lon="3.255916005000472">
        <ele>140.97</ele>
        <time>2025-05-15T14:20:19Z</time>
      </trkpt>
      <trkpt lat="42.294125016778708" lon="3.255867976695299">
        <ele>141.93000000000001</ele>
        <time>2025-05-15T14:20:20Z</time>
      </trkpt>
      <trkpt lat="42.294084029272199" lon="3.255798993632197">
        <ele>142.88999999999999</ele>
        <time>2025-05-15T14:20:21Z</time>
      </trkpt>
      <trkpt lat="42.29404698126018" lon="3.255737973377109">
        <ele>143.37</ele>
        <time>2025-05-15T14:20:22Z</time>
      </trkpt>
      <trkpt lat="42.294014040380716" lon="3.255650969222188">
        <ele>144.34</ele>
        <time>2025-05-15T14:20:23Z</time>
      </trkpt>
      <trkpt lat="42.29400398209691" lon="3.255515014752746">
        <ele>145.30000000000001</ele>
        <time>2025-05-15T14:20:24Z</time>
      </trkpt>
      <trkpt lat="42.293989984318614" lon="3.25533396564424">
        <ele>146.25999999999999</ele>
        <time>2025-05-15T14:20:25Z</time>
      </trkpt>
      <trkpt lat="42.293976992368698" lon="3.255154006183147">
        <ele>147.22</ele>
        <time>2025-05-15T14:20:26Z</time>
      </trkpt>
      <trkpt lat="42.293932987377048" lon="3.255026014521718">
        <ele>148.18000000000001</ele>
        <time>2025-05-15T14:20:27Z</time>
      </trkpt>
      <trkpt lat="42.293879007920623" lon="3.254932975396514">
        <ele>149.13999999999999</ele>
        <time>2025-05-15T14:20:28Z</time>
      </trkpt>
      <trkpt lat="42.293804995715618" lon="3.254904979839921">
        <ele>150.09999999999999</ele>
        <time>2025-05-15T14:20:29Z</time>
      </trkpt>
      <trkpt lat="42.293715979903936" lon="3.254871033132076">
        <ele>150.58000000000001</ele>
        <time>2025-05-15T14:20:30Z</time>
      </trkpt>
      <trkpt lat="42.293626964092255" lon="3.254876984283328">
        <ele>151.06</ele>
        <time>2025-05-15T14:20:31Z</time>
      </trkpt>
      <trkpt lat="42.29352998547256" lon="3.254882013425231">
        <ele>151.53999999999999</ele>
        <time>2025-05-15T14:20:32Z</time>
      </trkpt>
      <trkpt lat="42.293353965505958" lon="3.254892993718386">
        <ele>151.53999999999999</ele>
        <time>2025-05-15T14:20:34Z</time>
      </trkpt>
      <trkpt lat="42.293269978836179" lon="3.254839014261961">
        <ele>152.03</ele>
        <time>2025-05-15T14:20:35Z</time>
      </trkpt>
      <trkpt lat="42.293188003823161" lon="3.254784028977156">
        <ele>152.99000000000001</ele>
        <time>2025-05-15T14:20:36Z</time>
      </trkpt>
      <trkpt lat="42.293137041851878" lon="3.254705993458629">
        <ele>153.47</ele>
        <time>2025-05-15T14:20:37Z</time>
      </trkpt>
      <trkpt lat="42.293103011325002" lon="3.254611026495695">
        <ele>153.94999999999999</ele>
        <time>2025-05-15T14:20:38Z</time>
      </trkpt>
      <trkpt lat="42.293050959706306" lon="3.254464007914066">
        <ele>154.43000000000001</ele>
        <time>2025-05-15T14:20:39Z</time>
      </trkpt>
      <trkpt lat="42.293048026040196" lon="3.254393013194203">
        <ele>154.91</ele>
        <time>2025-05-15T14:20:40Z</time>
      </trkpt>
      <trkpt lat="42.292999997735023" lon="3.253382993862033">
        <ele>157.78999999999999</ele>
        <time>2025-05-15T14:20:46Z</time>
      </trkpt>
      <trkpt lat="42.293005026876926" lon="3.252960965037346">
        <ele>159.24000000000001</ele>
        <time>2025-05-15T14:20:48Z</time>
      </trkpt>
      <trkpt lat="42.293035034090281" lon="3.252746975049377">
        <ele>159.72</ele>
        <time>2025-05-15T14:20:49Z</time>
      </trkpt>
      <trkpt lat="42.293089013546705" lon="3.252532985061407">
        <ele>160.19999999999999</ele>
        <time>2025-05-15T14:20:50Z</time>
      </trkpt>
      <trkpt lat="42.293457984924316" lon="3.251498993486166">
        <ele>164.03999999999999</ele>
        <time>2025-05-15T14:20:55Z</time>
      </trkpt>
      <trkpt lat="42.293457984924316" lon="3.2512900326401">
        <ele>165</ele>
        <time>2025-05-15T14:20:56Z</time>
      </trkpt>
      <trkpt lat="42.293445998802781" lon="3.251059027388692">
        <ele>165.96000000000001</ele>
        <time>2025-05-15T14:20:57Z</time>
      </trkpt>
      <trkpt lat="42.293389001861215" lon="3.250371040776372">
        <ele>168.84999999999999</ele>
        <time>2025-05-15T14:21:00Z</time>
      </trkpt>
      <trkpt lat="42.29342102073133" lon="3.250209018588066">
        <ele>169.33000000000001</ele>
        <time>2025-05-15T14:21:01Z</time>
      </trkpt>
      <trkpt lat="42.293471982702613" lon="3.250074991956353">
        <ele>170.28999999999999</ele>
        <time>2025-05-15T14:21:02Z</time>
      </trkpt>
      <trkpt lat="42.293564015999436" lon="3.249933002516627">
        <ele>171.25</ele>
        <time>2025-05-15T14:21:03Z</time>
      </trkpt>
      <trkpt lat="42.293669041246176" lon="3.249769974499941">
        <ele>172.21000000000001</ele>
        <time>2025-05-15T14:21:04Z</time>
      </trkpt>
      <trkpt lat="42.294143959879875" lon="3.249076958745718">
        <ele>175.09999999999999</ele>
        <time>2025-05-15T14:21:08Z</time>
      </trkpt>
      <trkpt lat="42.294263988733292" lon="3.249010993167758">
        <ele>176.06</ele>
        <time>2025-05-15T14:21:09Z</time>
      </trkpt>
      <trkpt lat="42.294375970959663" lon="3.248948967084289">
        <ele>176.53999999999999</ele>
        <time>2025-05-15T14:21:10Z</time>
      </trkpt>
      <trkpt lat="42.294482002034783" lon="3.248890964314342">
        <ele>177.5</ele>
        <time>2025-05-15T14:21:11Z</time>
      </trkpt>
      <trkpt lat="42.294546039775014" lon="3.248818041756749">
        <ele>178.46000000000001</ele>
        <time>2025-05-15T14:21:12Z</time>
      </trkpt>
      <trkpt lat="42.294595995917916" lon="3.24867001734674">
        <ele>178.94</ele>
        <time>2025-05-15T14:21:13Z</time>
      </trkpt>
      <trkpt lat="42.294580992311239" lon="3.248557029291987">
        <ele>180.38</ele>
        <time>2025-05-15T14:21:14Z</time>
      </trkpt>
      <trkpt lat="42.29455903172493" lon="3.248390983790159">
        <ele>181.34999999999999</ele>
        <time>2025-05-15T14:21:15Z</time>
      </trkpt>
      <trkpt lat="42.294575963169336" lon="3.248233990743756">
        <ele>182.78999999999999</ele>
        <time>2025-05-15T14:21:16Z</time>
      </trkpt>
      <trkpt lat="42.294613011181355" lon="3.248105999082327">
        <ele>183.75</ele>
        <time>2025-05-15T14:21:17Z</time>
      </trkpt>
      <trkpt lat="42.294703032821417" lon="3.24796199798584">
        <ele>184.71000000000001</ele>
        <time>2025-05-15T14:21:18Z</time>
      </trkpt>
      <trkpt lat="42.294786013662815" lon="3.247905001044273">
        <ele>185.66999999999999</ele>
        <time>2025-05-15T14:21:19Z</time>
      </trkpt>
      <trkpt lat="42.294909982010722" lon="3.247820008546114">
        <ele>186.63</ele>
        <time>2025-05-15T14:21:20Z</time>
      </trkpt>
      <trkpt lat="42.295029005035758" lon="3.247738033533096">
        <ele>187.59</ele>
        <time>2025-05-15T14:21:21Z</time>
      </trkpt>
      <trkpt lat="42.295096982270479" lon="3.247624039649963">
        <ele>188.56</ele>
        <time>2025-05-15T14:21:22Z</time>
      </trkpt>
      <trkpt lat="42.295132018625736" lon="3.247508034110069">
        <ele>189.03999999999999</ele>
        <time>2025-05-15T14:21:23Z</time>
      </trkpt>
      <trkpt lat="42.295132018625736" lon="3.247354980558157">
        <ele>190</ele>
        <time>2025-05-15T14:21:24Z</time>
      </trkpt>
      <trkpt lat="42.295132018625736" lon="3.24721097946167">
        <ele>190.47999999999999</ele>
        <time>2025-05-15T14:21:25Z</time>
      </trkpt>
      <trkpt lat="42.295153979212046" lon="3.247037976980209">
        <ele>191.44</ele>
        <time>2025-05-15T14:21:26Z</time>
      </trkpt>
      <trkpt lat="42.295175017789006" lon="3.246864974498749">
        <ele>191.91999999999999</ele>
        <time>2025-05-15T14:21:27Z</time>
      </trkpt>
      <trkpt lat="42.295197984203696" lon="3.246680991724134">
        <ele>192.88</ele>
        <time>2025-05-15T14:21:28Z</time>
      </trkpt>
      <trkpt lat="42.295211981981993" lon="3.246496003121138">
        <ele>193.36000000000001</ele>
        <time>2025-05-15T14:21:29Z</time>
      </trkpt>
      <trkpt lat="42.295173006132245" lon="3.246312020346522">
        <ele>194.31999999999999</ele>
        <time>2025-05-15T14:21:30Z</time>
      </trkpt>
      <trkpt lat="42.295136963948607" lon="3.246138012036681">
        <ele>194.80000000000001</ele>
        <time>2025-05-15T14:21:31Z</time>
      </trkpt>
      <trkpt lat="42.29507502168417" lon="3.245991999283433">
        <ele>195.77000000000001</ele>
        <time>2025-05-15T14:21:32Z</time>
      </trkpt>
      <trkpt lat="42.295006038621068" lon="3.245841963216662">
        <ele>196.72999999999999</ele>
        <time>2025-05-15T14:21:33Z</time>
      </trkpt>
      <trkpt lat="42.294938983395696" lon="3.245698967948556">
        <ele>197.21000000000001</ele>
        <time>2025-05-15T14:21:34Z</time>
      </trkpt>
      <trkpt lat="42.294879974797368" lon="3.245569970458746">
        <ele>197.69</ele>
        <time>2025-05-15T14:21:35Z</time>
      </trkpt>
      <trkpt lat="42.29488299228251" lon="3.245439967140555">
        <ele>198.65000000000001</ele>
        <time>2025-05-15T14:21:36Z</time>
      </trkpt>
      <trkpt lat="42.294891960918903" lon="3.245304012671113">
        <ele>199.61000000000001</ele>
        <time>2025-05-15T14:21:37Z</time>
      </trkpt>
      <trkpt lat="42.294933032244444" lon="3.245157999917865">
        <ele>200.56999999999999</ele>
        <time>2025-05-15T14:21:38Z</time>
      </trkpt>
      <trkpt lat="42.295006038621068" lon="3.245003018528223">
        <ele>201.53</ele>
        <time>2025-05-15T14:21:39Z</time>
      </trkpt>
      <trkpt lat="42.295084996148944" lon="3.244834961369634">
        <ele>202.97999999999999</ele>
        <time>2025-05-15T14:21:40Z</time>
      </trkpt>
      <trkpt lat="42.295361012220383" lon="3.244341015815735">
        <ele>206.34</ele>
        <time>2025-05-15T14:21:43Z</time>
      </trkpt>
      <trkpt lat="42.295465031638741" lon="3.244233978912234">
        <ele>207.30000000000001</ele>
        <time>2025-05-15T14:21:44Z</time>
      </trkpt>
      <trkpt lat="42.295586988329887" lon="3.244149992242456">
        <ele>208.25999999999999</ele>
        <time>2025-05-15T14:21:45Z</time>
      </trkpt>
      <trkpt lat="42.295710034668446" lon="3.244080003350973">
        <ele>209.22</ele>
        <time>2025-05-15T14:21:46Z</time>
      </trkpt>
      <trkpt lat="42.295840959995985" lon="3.244090983644128">
        <ele>209.69999999999999</ele>
        <time>2025-05-15T14:21:47Z</time>
      </trkpt>
      <trkpt lat="42.295969035476446" lon="3.244100958108902">
        <ele>210.66999999999999</ele>
        <time>2025-05-15T14:21:48Z</time>
      </trkpt>
      <trkpt lat="42.29608797468245" lon="3.244111016392708">
        <ele>211.15000000000001</ele>
        <time>2025-05-15T14:21:49Z</time>
      </trkpt>
      <trkpt lat="42.296186964958906" lon="3.244119985029101">
        <ele>211.63</ele>
        <time>2025-05-15T14:21:50Z</time>
      </trkpt>
      <trkpt lat="42.296251002699137" lon="3.244057036936283">
        <ele>212.11000000000001</ele>
        <time>2025-05-15T14:21:51Z</time>
      </trkpt>
      <trkpt lat="42.296304982155561" lon="3.243981013074517">
        <ele>212.11000000000001</ele>
        <time>2025-05-15T14:21:52Z</time>
      </trkpt>
      <trkpt lat="42.29629903100431" lon="3.243889985606074">
        <ele>212.59</ele>
        <time>2025-05-15T14:21:53Z</time>
      </trkpt>
      <trkpt lat="42.296277992427349" lon="3.243766017258167">
        <ele>212.59</ele>
        <time>2025-05-15T14:21:54Z</time>
      </trkpt>
      <trkpt lat="42.296228958293796" lon="3.243669038638473">
        <ele>213.06999999999999</ele>
        <time>2025-05-15T14:21:55Z</time>
      </trkpt>
      <trkpt lat="42.296133991330862" lon="3.243566025048494">
        <ele>213.06999999999999</ele>
        <time>2025-05-15T14:21:56Z</time>
      </trkpt>
      <trkpt lat="42.296026032418013" lon="3.243447002023459">
        <ele>213.55000000000001</ele>
        <time>2025-05-15T14:21:57Z</time>
      </trkpt>
      <trkpt lat="42.29591203853488" lon="3.243322027847171">
        <ele>214.03</ele>
        <time>2025-05-15T14:21:58Z</time>
      </trkpt>
      <trkpt lat="42.295754961669445" lon="3.243052968755364">
        <ele>214.99000000000001</ele>
        <time>2025-05-15T14:22:00Z</time>
      </trkpt>
      <trkpt lat="42.295712968334556" lon="3.242930006235838">
        <ele>214.99000000000001</ele>
        <time>2025-05-15T14:22:01Z</time>
      </trkpt>
      <trkpt lat="42.295738030225039" lon="3.242792040109634">
        <ele>215.94999999999999</ele>
        <time>2025-05-15T14:22:02Z</time>
      </trkpt>
      <trkpt lat="42.295766025781631" lon="3.24263202957809">
        <ele>216.43000000000001</ele>
        <time>2025-05-15T14:22:03Z</time>
      </trkpt>
      <trkpt lat="42.295815981924534" lon="3.242461960762739">
        <ele>216.91</ele>
        <time>2025-05-15T14:22:04Z</time>
      </trkpt>
      <trkpt lat="42.29625997133553" lon="3.241156982257962">
        <ele>221.72</ele>
        <time>2025-05-15T14:22:10Z</time>
      </trkpt>
      <trkpt lat="42.296398021280766" lon="3.240731013938785">
        <ele>224.12</ele>
        <time>2025-05-15T14:22:12Z</time>
      </trkpt>
      <trkpt lat="42.296421993523836" lon="3.240472013130784">
        <ele>225.09</ele>
        <time>2025-05-15T14:22:13Z</time>
      </trkpt>
      <trkpt lat="42.296462981030345" lon="3.240022994577885">
        <ele>227.49000000000001</ele>
        <time>2025-05-15T14:22:15Z</time>
      </trkpt>
      <trkpt lat="42.29651503264904" lon="3.239800035953522">
        <ele>228.93000000000001</ele>
        <time>2025-05-15T14:22:16Z</time>
      </trkpt>
      <trkpt lat="42.296614022925496" lon="3.239381024613977">
        <ele>230.84999999999999</ele>
        <time>2025-05-15T14:22:18Z</time>
      </trkpt>
      <trkpt lat="42.296633971855044" lon="3.239157982170582">
        <ele>231.81</ele>
        <time>2025-05-15T14:22:19Z</time>
      </trkpt>
      <trkpt lat="42.296627014875412" lon="3.238938041031361">
        <ele>232.78</ele>
        <time>2025-05-15T14:22:20Z</time>
      </trkpt>
      <trkpt lat="42.296599019318819" lon="3.23872497305274">
        <ele>233.74000000000001</ele>
        <time>2025-05-15T14:22:21Z</time>
      </trkpt>
      <trkpt lat="42.296545961871743" lon="3.23853000998497">
        <ele>234.22</ele>
        <time>2025-05-15T14:22:22Z</time>
      </trkpt>
      <trkpt lat="42.296486031264067" lon="3.238347033038735">
        <ele>235.18000000000001</ele>
        <time>2025-05-15T14:22:23Z</time>
      </trkpt>
      <trkpt lat="42.29642802849412" lon="3.23816497810185">
        <ele>236.13999999999999</ele>
        <time>2025-05-15T14:22:24Z</time>
      </trkpt>
      <trkpt lat="42.296305987983942" lon="3.237659968435764">
        <ele>238.06</ele>
        <time>2025-05-15T14:22:27Z</time>
      </trkpt>
      <trkpt lat="42.29630196467042" lon="3.237528959289193">
        <ele>239.02000000000001</ele>
        <time>2025-05-15T14:22:28Z</time>
      </trkpt>
      <trkpt lat="42.296334989368916" lon="3.237387975677848">
        <ele>239.50999999999999</ele>
        <time>2025-05-15T14:22:29Z</time>
      </trkpt>
      <trkpt lat="42.296593990176916" lon="3.236622959375382">
        <ele>242.38999999999999</ele>
        <time>2025-05-15T14:22:35Z</time>
      </trkpt>
      <trkpt lat="42.296631960198283" lon="3.236536961048842">
        <ele>242.87</ele>
        <time>2025-05-15T14:22:36Z</time>
      </trkpt>
      <trkpt lat="42.296718964353204" lon="3.236461021006107">
        <ele>242.87</ele>
        <time>2025-05-15T14:22:37Z</time>
      </trkpt>
      <trkpt lat="42.296798005700111" lon="3.236461021006107">
        <ele>242.87</ele>
        <time>2025-05-15T14:22:38Z</time>
      </trkpt>
      <trkpt lat="42.296878974884748" lon="3.23655498214066">
        <ele>242.87</ele>
        <time>2025-05-15T14:22:39Z</time>
      </trkpt>
      <trkpt lat="42.296970002353191" lon="3.236621031537652">
        <ele>242.38999999999999</ele>
        <time>2025-05-15T14:22:40Z</time>
      </trkpt>
      <trkpt lat="42.297061029821634" lon="3.236647015437484">
        <ele>242.38999999999999</ele>
        <time>2025-05-15T14:22:41Z</time>
      </trkpt>
      <trkpt lat="42.297145016491413" lon="3.236608961597085">
        <ele>241.91</ele>
        <time>2025-05-15T14:22:42Z</time>
      </trkpt>
      <trkpt lat="42.297222968190908" lon="3.236550036817789">
        <ele>241.43000000000001</ele>
        <time>2025-05-15T14:22:43Z</time>
      </trkpt>
      <trkpt lat="42.297278037294745" lon="3.236464960500598">
        <ele>240.94999999999999</ele>
        <time>2025-05-15T14:22:44Z</time>
      </trkpt>
      <trkpt lat="42.297317013144493" lon="3.236351972445846">
        <ele>240.47</ele>
        <time>2025-05-15T14:22:45Z</time>
      </trkpt>
      <trkpt lat="42.297355988994241" lon="3.236243007704616">
        <ele>239.50999999999999</ele>
        <time>2025-05-15T14:22:46Z</time>
      </trkpt>
      <trkpt lat="42.297399993985891" lon="3.236136976629496">
        <ele>239.02000000000001</ele>
        <time>2025-05-15T14:22:47Z</time>
      </trkpt>
      <trkpt lat="42.297475012019277" lon="3.236021976917982">
        <ele>238.06</ele>
        <time>2025-05-15T14:22:48Z</time>
      </trkpt>
      <trkpt lat="42.297560004517436" lon="3.23588996194303">
        <ele>237.58000000000001</ele>
        <time>2025-05-15T14:22:49Z</time>
      </trkpt>
      <trkpt lat="42.297940040007234" lon="3.235253021121025">
        <ele>234.69999999999999</ele>
        <time>2025-05-15T14:22:53Z</time>
      </trkpt>
      <trkpt lat="42.298022015020251" lon="3.235082030296326">
        <ele>234.22</ele>
        <time>2025-05-15T14:22:54Z</time>
      </trkpt>
      <trkpt lat="42.298118993639946" lon="3.234733007848263">
        <ele>232.78</ele>
        <time>2025-05-15T14:22:56Z</time>
      </trkpt>
      <trkpt lat="42.298136008903384" lon="3.234556987881661">
        <ele>231.33000000000001</ele>
        <time>2025-05-15T14:22:57Z</time>
      </trkpt>
      <trkpt lat="42.298178002238274" lon="3.233765987679362">
        <ele>228.44999999999999</ele>
        <time>2025-05-15T14:23:01Z</time>
      </trkpt>
      <trkpt lat="42.29823399335146" lon="3.233580999076366">
        <ele>227.49000000000001</ele>
        <time>2025-05-15T14:23:02Z</time>
      </trkpt>
      <trkpt lat="42.298285961151123" lon="3.233414031565189">
        <ele>226.53</ele>
        <time>2025-05-15T14:23:03Z</time>
      </trkpt>
      <trkpt lat="42.298390986397862" lon="3.233255026862025">
        <ele>225.56999999999999</ele>
        <time>2025-05-15T14:23:04Z</time>
      </trkpt>
      <trkpt lat="42.29849299415946" lon="3.233099961653352">
        <ele>225.09</ele>
        <time>2025-05-15T14:23:05Z</time>
      </trkpt>
      <trkpt lat="42.29859902523458" lon="3.232938023284078">
        <ele>224.12</ele>
        <time>2025-05-15T14:23:06Z</time>
      </trkpt>
      <trkpt lat="42.29870798997581" lon="3.23277197778225">
        <ele>223.16</ele>
        <time>2025-05-15T14:23:07Z</time>
      </trkpt>
      <trkpt lat="42.298816032707691" lon="3.232596963644028">
        <ele>222.19999999999999</ele>
        <time>2025-05-15T14:23:08Z</time>
      </trkpt>
      <trkpt lat="42.298917034640908" lon="3.232412980869412">
        <ele>221.72</ele>
        <time>2025-05-15T14:23:09Z</time>
      </trkpt>
      <trkpt lat="42.299014013260603" lon="3.232235033065081">
        <ele>220.75999999999999</ele>
        <time>2025-05-15T14:23:10Z</time>
      </trkpt>
      <trkpt lat="42.299297992140055" lon="3.231716025620699">
        <ele>218.36000000000001</ele>
        <time>2025-05-15T14:23:13Z</time>
      </trkpt>
      <trkpt lat="42.299605021253228" lon="3.2309889793396">
        <ele>215.94999999999999</ele>
        <time>2025-05-15T14:23:17Z</time>
      </trkpt>
      <trkpt lat="42.299807025119662" lon="3.230511965230107">
        <ele>212.59</ele>
        <time>2025-05-15T14:23:20Z</time>
      </trkpt>
      <trkpt lat="42.299907021224499" lon="3.230392020195723">
        <ele>211.15000000000001</ele>
        <time>2025-05-15T14:23:21Z</time>
      </trkpt>
      <trkpt lat="42.300010034814477" lon="3.230267968028784">
        <ele>209.69999999999999</ele>
        <time>2025-05-15T14:23:22Z</time>
      </trkpt>
      <trkpt lat="42.300121011212468" lon="3.230153974145651">
        <ele>208.25999999999999</ele>
        <time>2025-05-15T14:23:23Z</time>
      </trkpt>
      <trkpt lat="42.3002540320158" lon="3.230068981647492">
        <ele>206.81999999999999</ele>
        <time>2025-05-15T14:23:24Z</time>
      </trkpt>
      <trkpt lat="42.301646014675498" lon="3.229173040017486">
        <ele>195.28</ele>
        <time>2025-05-15T14:23:34Z</time>
      </trkpt>
      <trkpt lat="42.302048010751605" lon="3.228967012837529">
        <ele>191.44</ele>
        <time>2025-05-15T14:23:37Z</time>
      </trkpt>
      <trkpt lat="42.302192011848092" lon="3.228908004239202">
        <ele>189.52000000000001</ele>
        <time>2025-05-15T14:23:38Z</time>
      </trkpt>
      <trkpt lat="42.302310029044747" lon="3.22892895899713">
        <ele>188.08000000000001</ele>
        <time>2025-05-15T14:23:39Z</time>
      </trkpt>
      <trkpt lat="42.30244598351419" lon="3.22896902449429">
        <ele>186.63</ele>
        <time>2025-05-15T14:23:40Z</time>
      </trkpt>
      <trkpt lat="42.302538016811013" lon="3.229060973972082">
        <ele>184.71000000000001</ele>
        <time>2025-05-15T14:23:41Z</time>
      </trkpt>
      <trkpt lat="42.302623009309173" lon="3.229145966470242">
        <ele>183.27000000000001</ele>
        <time>2025-05-15T14:23:42Z</time>
      </trkpt>
      <trkpt lat="42.302692998200655" lon="3.229191983118653">
        <ele>182.31</ele>
        <time>2025-05-15T14:23:43Z</time>
      </trkpt>
      <trkpt lat="42.302781008183956" lon="3.229204975068569">
        <ele>181.34999999999999</ele>
        <time>2025-05-15T14:23:44Z</time>
      </trkpt>
      <trkpt lat="42.302899025380611" lon="3.229169016703963">
        <ele>180.87</ele>
        <time>2025-05-15T14:23:45Z</time>
      </trkpt>
      <trkpt lat="42.30317696928978" lon="3.229083018377423">
        <ele>178.46000000000001</ele>
        <time>2025-05-15T14:23:47Z</time>
      </trkpt>
      <trkpt lat="42.303329017013311" lon="3.229035995900631">
        <ele>177.5</ele>
        <time>2025-05-15T14:23:48Z</time>
      </trkpt>
      <trkpt lat="42.303416021168232" lon="3.22894899174571">
        <ele>176.53999999999999</ele>
        <time>2025-05-15T14:23:49Z</time>
      </trkpt>
      <trkpt lat="42.30351802892983" lon="3.228834997862577">
        <ele>175.58000000000001</ele>
        <time>2025-05-15T14:23:50Z</time>
      </trkpt>
      <trkpt lat="42.30360696092248" lon="3.228680016472936">
        <ele>175.09999999999999</ele>
        <time>2025-05-15T14:23:51Z</time>
      </trkpt>
      <trkpt lat="42.303702011704445" lon="3.228515982627869">
        <ele>174.13999999999999</ele>
        <time>2025-05-15T14:23:52Z</time>
      </trkpt>
      <trkpt lat="42.303879959508777" lon="3.228169977664948">
        <ele>172.69</ele>
        <time>2025-05-15T14:23:54Z</time>
      </trkpt>
      <trkpt lat="42.30412102304399" lon="3.227599002420902">
        <ele>170.28999999999999</ele>
        <time>2025-05-15T14:23:57Z</time>
      </trkpt>
      <trkpt lat="42.304477002471685" lon="3.226846978068352">
        <ele>166.44999999999999</ele>
        <time>2025-05-15T14:24:01Z</time>
      </trkpt>
      <trkpt lat="42.30457398109138" lon="3.226699959486723">
        <ele>165.47999999999999</ele>
        <time>2025-05-15T14:24:02Z</time>
      </trkpt>
      <trkpt lat="42.304696021601558" lon="3.226587977260351">
        <ele>164.52000000000001</ele>
        <time>2025-05-15T14:24:03Z</time>
      </trkpt>
      <trkpt lat="42.305233972147107" lon="3.226225040853024">
        <ele>160.19999999999999</ele>
        <time>2025-05-15T14:24:07Z</time>
      </trkpt>
      <trkpt lat="42.305350983515382" lon="3.226225040853024">
        <ele>159.24000000000001</ele>
        <time>2025-05-15T14:24:08Z</time>
      </trkpt>
      <trkpt lat="42.305469000712037" lon="3.226256975904107">
        <ele>158.27000000000001</ele>
        <time>2025-05-15T14:24:09Z</time>
      </trkpt>
      <trkpt lat="42.306161010637879" lon="3.226783024147153">
        <ele>154.43000000000001</ele>
        <time>2025-05-15T14:24:14Z</time>
      </trkpt>
      <trkpt lat="42.306238962337375" lon="3.226918978616595">
        <ele>153.47</ele>
        <time>2025-05-15T14:24:15Z</time>
      </trkpt>
      <trkpt lat="42.306508021429181" lon="3.227549968287349">
        <ele>151.06</ele>
        <time>2025-05-15T14:24:19Z</time>
      </trkpt>
      <trkpt lat="42.306554038077593" lon="3.227673014625907">
        <ele>150.58000000000001</ele>
        <time>2025-05-15T14:24:20Z</time>
      </trkpt>
      <trkpt lat="42.306591002270579" lon="3.227769993245602">
        <ele>150.58000000000001</ele>
        <time>2025-05-15T14:24:21Z</time>
      </trkpt>
      <trkpt lat="42.306667026132345" lon="3.227827996015549">
        <ele>150.58000000000001</ele>
        <time>2025-05-15T14:24:22Z</time>
      </trkpt>
      <trkpt lat="42.306750006973743" lon="3.227890022099018">
        <ele>150.58000000000001</ele>
        <time>2025-05-15T14:24:23Z</time>
      </trkpt>
      <trkpt lat="42.306841034442186" lon="3.227889016270638">
        <ele>150.58000000000001</ele>
        <time>2025-05-15T14:24:24Z</time>
      </trkpt>
      <trkpt lat="42.306928960606456" lon="3.227878035977483">
        <ele>151.06</ele>
        <time>2025-05-15T14:24:25Z</time>
      </trkpt>
      <trkpt lat="42.306984029710293" lon="3.227797988802195">
        <ele>151.06</ele>
        <time>2025-05-15T14:24:26Z</time>
      </trkpt>
      <trkpt lat="42.30704203248024" lon="3.227696986868978">
        <ele>151.06</ele>
        <time>2025-05-15T14:24:27Z</time>
      </trkpt>
      <trkpt lat="42.307051001116633" lon="3.227547034621239">
        <ele>151.06</ele>
        <time>2025-05-15T14:24:28Z</time>
      </trkpt>
      <trkpt lat="42.307060975581408" lon="3.227380989119411">
        <ele>151.06</ele>
        <time>2025-05-15T14:24:29Z</time>
      </trkpt>
      <trkpt lat="42.307029962539673" lon="3.227212009951472">
        <ele>151.06</ele>
        <time>2025-05-15T14:24:30Z</time>
      </trkpt>
      <trkpt lat="42.306987969204783" lon="3.227018974721432">
        <ele>151.06</ele>
        <time>2025-05-15T14:24:31Z</time>
      </trkpt>
      <trkpt lat="42.306943964213133" lon="3.226817976683378">
        <ele>151.06</ele>
        <time>2025-05-15T14:24:32Z</time>
      </trkpt>
      <trkpt lat="42.306324960663915" lon="3.225007988512516">
        <ele>148.66</ele>
        <time>2025-05-15T14:24:41Z</time>
      </trkpt>
      <trkpt lat="42.306010974571109" lon="3.224105006083846">
        <ele>145.30000000000001</ele>
        <time>2025-05-15T14:24:46Z</time>
      </trkpt>
      <trkpt lat="42.306010974571109" lon="3.223924962803721">
        <ele>144.34</ele>
        <time>2025-05-15T14:24:47Z</time>
      </trkpt>
      <trkpt lat="42.306013992056251" lon="3.223731005564332">
        <ele>143.84999999999999</ele>
        <time>2025-05-15T14:24:48Z</time>
      </trkpt>
      <trkpt lat="42.306096972897649" lon="3.223095992580056">
        <ele>140.97</ele>
        <time>2025-05-15T14:24:51Z</time>
      </trkpt>
      <trkpt lat="42.306203003972769" lon="3.222688967362046">
        <ele>140.00999999999999</ele>
        <time>2025-05-15T14:24:53Z</time>
      </trkpt>
      <trkpt lat="42.306298976764083" lon="3.222571033984423">
        <ele>139.05000000000001</ele>
        <time>2025-05-15T14:24:54Z</time>
      </trkpt>
      <trkpt lat="42.306390004232526" lon="3.222461985424161">
        <ele>138.56999999999999</ele>
        <time>2025-05-15T14:24:55Z</time>
      </trkpt>
      <trkpt lat="42.306484971195459" lon="3.222347991541028">
        <ele>137.61000000000001</ele>
        <time>2025-05-15T14:24:56Z</time>
      </trkpt>
      <trkpt lat="42.306567030027509" lon="3.222212959080935">
        <ele>136.63999999999999</ele>
        <time>2025-05-15T14:24:57Z</time>
      </trkpt>
      <trkpt lat="42.306639030575752" lon="3.222059989348054">
        <ele>135.68000000000001</ele>
        <time>2025-05-15T14:24:58Z</time>
      </trkpt>
      <trkpt lat="42.306715976446867" lon="3.221897967159748">
        <ele>134.72</ele>
        <time>2025-05-15T14:24:59Z</time>
      </trkpt>
      <trkpt lat="42.306795017793775" lon="3.22172999382019">
        <ele>133.75999999999999</ele>
        <time>2025-05-15T14:25:00Z</time>
      </trkpt>
      <trkpt lat="42.306955028325319" lon="3.221391029655933">
        <ele>131.36000000000001</ele>
        <time>2025-05-15T14:25:02Z</time>
      </trkpt>
      <trkpt lat="42.307411003857851" lon="3.220618972554803">
        <ele>126.06999999999999</ele>
        <time>2025-05-15T14:25:07Z</time>
      </trkpt>
      <trkpt lat="42.307497002184391" lon="3.220554012805224">
        <ele>125.59</ele>
        <time>2025-05-15T14:25:08Z</time>
      </trkpt>
      <trkpt lat="42.307599009945989" lon="3.220539009198546">
        <ele>124.63</ele>
        <time>2025-05-15T14:25:09Z</time>
      </trkpt>
      <trkpt lat="42.307702023535967" lon="3.220558036118746">
        <ele>124.15000000000001</ele>
        <time>2025-05-15T14:25:10Z</time>
      </trkpt>
      <trkpt lat="42.307824986055493" lon="3.220579996705055">
        <ele>123.67</ele>
        <time>2025-05-15T14:25:11Z</time>
      </trkpt>
      <trkpt lat="42.307962030172348" lon="3.220604974776506">
        <ele>123.19</ele>
        <time>2025-05-15T14:25:12Z</time>
      </trkpt>
      <trkpt lat="42.308070994913578" lon="3.220625007525086">
        <ele>122.22</ele>
        <time>2025-05-15T14:25:13Z</time>
      </trkpt>
      <trkpt lat="42.308199992403388" lon="3.220570022240281">
        <ele>121.73999999999999</ele>
        <time>2025-05-15T14:25:14Z</time>
      </trkpt>
      <trkpt lat="42.30824701488018" lon="3.220489975064993">
        <ele>121.26000000000001</ele>
        <time>2025-05-15T14:25:15Z</time>
      </trkpt>
      <trkpt lat="42.308283979073167" lon="3.220388973131776">
        <ele>120.78</ele>
        <time>2025-05-15T14:25:16Z</time>
      </trkpt>
      <trkpt lat="42.308294959366322" lon="3.220305992290378">
        <ele>120.3</ele>
        <time>2025-05-15T14:25:17Z</time>
      </trkpt>
      <trkpt lat="42.308235028758645" lon="3.220215970650315">
        <ele>119.81999999999999</ele>
        <time>2025-05-15T14:25:18Z</time>
      </trkpt>
      <trkpt lat="42.308168979361653" lon="3.220128966495395">
        <ele>118.86</ele>
        <time>2025-05-15T14:25:19Z</time>
      </trkpt>
      <trkpt lat="42.308055991306901" lon="3.22009501978755">
        <ele>118.38</ele>
        <time>2025-05-15T14:25:20Z</time>
      </trkpt>
      <trkpt lat="42.307927999645472" lon="3.220056965947151">
        <ele>117.42</ele>
        <time>2025-05-15T14:25:21Z</time>
      </trkpt>
      <trkpt lat="42.307489039376378" lon="3.219894021749497">
        <ele>115.5</ele>
        <time>2025-05-15T14:25:24Z</time>
      </trkpt>
      <trkpt lat="42.307385019958019" lon="3.219830989837647">
        <ele>114.53</ele>
        <time>2025-05-15T14:25:25Z</time>
      </trkpt>
      <trkpt lat="42.307299021631479" lon="3.219681037589908">
        <ele>114.05</ele>
        <time>2025-05-15T14:25:26Z</time>
      </trkpt>
      <trkpt lat="42.307262979447842" lon="3.219571989029646">
        <ele>113.09</ele>
        <time>2025-05-15T14:25:27Z</time>
      </trkpt>
      <trkpt lat="42.307275971397758" lon="3.219469981268048">
        <ele>112.61</ele>
        <time>2025-05-15T14:25:28Z</time>
      </trkpt>
      <trkpt lat="42.307314025238156" lon="3.219359004870057">
        <ele>112.13</ele>
        <time>2025-05-15T14:25:29Z</time>
      </trkpt>
      <trkpt lat="42.30738895945251" lon="3.219251967966557">
        <ele>111.65000000000001</ele>
        <time>2025-05-15T14:25:30Z</time>
      </trkpt>
      <trkpt lat="42.307477975264192" lon="3.219126993790269">
        <ele>111.17</ele>
        <time>2025-05-15T14:25:31Z</time>
      </trkpt>
      <trkpt lat="42.30764796026051" lon="3.218819964677095">
        <ele>110.69</ele>
        <time>2025-05-15T14:25:33Z</time>
      </trkpt>
      <trkpt lat="42.307716021314263" lon="3.21867504157126">
        <ele>110.69</ele>
        <time>2025-05-15T14:25:34Z</time>
      </trkpt>
      <trkpt lat="42.307719960808754" lon="3.218510001897812">
        <ele>110.20999999999999</ele>
        <time>2025-05-15T14:25:35Z</time>
      </trkpt>
      <trkpt lat="42.30770998634398" lon="3.218336999416351">
        <ele>109.73</ele>
        <time>2025-05-15T14:25:36Z</time>
      </trkpt>
      <trkpt lat="42.307699006050825" lon="3.218137007206678">
        <ele>109.25</ele>
        <time>2025-05-15T14:25:37Z</time>
      </trkpt>
      <trkpt lat="42.30768701992929" lon="3.21792402304709">
        <ele>108.77</ele>
        <time>2025-05-15T14:25:38Z</time>
      </trkpt>
      <trkpt lat="42.307674027979374" lon="3.217700980603695">
        <ele>107.81</ele>
        <time>2025-05-15T14:25:39Z</time>
      </trkpt>
      <trkpt lat="42.307647038251162" lon="3.217257997021079">
        <ele>105.88</ele>
        <time>2025-05-15T14:25:41Z</time>
      </trkpt>
      <trkpt lat="42.307487027719617" lon="3.215997023507953">
        <ele>101.08</ele>
        <time>2025-05-15T14:25:47Z</time>
      </trkpt>
      <trkpt lat="42.307447968050838" lon="3.215829972177744">
        <ele>100.11</ele>
        <time>2025-05-15T14:25:48Z</time>
      </trkpt>
      <trkpt lat="42.307416032999754" lon="3.215688988566399">
        <ele>99.629999999999995</ele>
        <time>2025-05-15T14:25:49Z</time>
      </trkpt>
      <trkpt lat="42.307436987757683" lon="3.21554297581315">
        <ele>98.670000000000002</ele>
        <time>2025-05-15T14:25:50Z</time>
      </trkpt>
      <trkpt lat="42.30747596360743" lon="3.215410960838199">
        <ele>98.189999999999998</ele>
        <time>2025-05-15T14:25:51Z</time>
      </trkpt>
      <trkpt lat="42.307514017447829" lon="3.215281963348389">
        <ele>97.230000000000004</ele>
        <time>2025-05-15T14:25:52Z</time>
      </trkpt>
      <trkpt lat="42.307552993297577" lon="3.215152965858579">
        <ele>96.75</ele>
        <time>2025-05-15T14:25:53Z</time>
      </trkpt>
      <trkpt lat="42.307632034644485" lon="3.214886002242565">
        <ele>95.790000000000006</ele>
        <time>2025-05-15T14:25:55Z</time>
      </trkpt>
      <trkpt lat="42.30766799300909" lon="3.214723980054259">
        <ele>95.310000000000002</ele>
        <time>2025-05-15T14:25:56Z</time>
      </trkpt>
      <trkpt lat="42.307825991883874" lon="3.213954018428922">
        <ele>91.939999999999998</ele>
        <time>2025-05-15T14:26:00Z</time>
      </trkpt>
      <trkpt lat="42.307897992432117" lon="3.213793002068996">
        <ele>90.980000000000004</ele>
        <time>2025-05-15T14:26:01Z</time>
      </trkpt>
      <trkpt lat="42.307980973273516" lon="3.213658975437284">
        <ele>90.019999999999996</ele>
        <time>2025-05-15T14:26:02Z</time>
      </trkpt>
      <trkpt lat="42.308079041540623" lon="3.213577000424266">
        <ele>89.060000000000002</ele>
        <time>2025-05-15T14:26:03Z</time>
      </trkpt>
      <trkpt lat="42.308194963261485" lon="3.213565014302731">
        <ele>88.099999999999994</ele>
        <time>2025-05-15T14:26:04Z</time>
      </trkpt>
      <trkpt lat="42.308304011821747" lon="3.213565014302731">
        <ele>87.140000000000001</ele>
        <time>2025-05-15T14:26:05Z</time>
      </trkpt>
      <trkpt lat="42.308424962684512" lon="3.213618993759155">
        <ele>86.180000000000007</ele>
        <time>2025-05-15T14:26:06Z</time>
      </trkpt>
      <trkpt lat="42.308521019294858" lon="3.213714966550469">
        <ele>85.209999999999994</ele>
        <time>2025-05-15T14:26:07Z</time>
      </trkpt>
      <trkpt lat="42.308623027056456" lon="3.213841030374169">
        <ele>84.25</ele>
        <time>2025-05-15T14:26:08Z</time>
      </trkpt>
      <trkpt lat="42.308684969320893" lon="3.214003974571824">
        <ele>83.290000000000006</ele>
        <time>2025-05-15T14:26:09Z</time>
      </trkpt>
      <trkpt lat="42.308754036203027" lon="3.214181000366807">
        <ele>82.329999999999998</ele>
        <time>2025-05-15T14:26:10Z</time>
      </trkpt>
      <trkpt lat="42.309376979246736" lon="3.215896021574736">
        <ele>75.599999999999994</ele>
        <time>2025-05-15T14:26:18Z</time>
      </trkpt>
      <trkpt lat="42.30949298478663" lon="3.216044967994094">
        <ele>74.640000000000001</ele>
        <time>2025-05-15T14:26:19Z</time>
      </trkpt>
      <trkpt lat="42.309833038598299" lon="3.216511001810432">
        <ele>72.719999999999999</ele>
        <time>2025-05-15T14:26:22Z</time>
      </trkpt>
      <trkpt lat="42.30987997725606" lon="3.216653997078538">
        <ele>72.239999999999995</ele>
        <time>2025-05-15T14:26:23Z</time>
      </trkpt>
      <trkpt lat="42.30992297641933" lon="3.216781988739967">
        <ele>71.760000000000005</ele>
        <time>2025-05-15T14:26:24Z</time>
      </trkpt>
      <trkpt lat="42.309961030259728" lon="3.216896988451481">
        <ele>71.269999999999996</ele>
        <time>2025-05-15T14:26:25Z</time>
      </trkpt>
      <trkpt lat="42.309991037473083" lon="3.216963959857822">
        <ele>70.310000000000002</ele>
        <time>2025-05-15T14:26:26Z</time>
      </trkpt>
      <trkpt lat="42.310065971687436" lon="3.21702397428453">
        <ele>69.829999999999998</ele>
        <time>2025-05-15T14:26:27Z</time>
      </trkpt>
      <trkpt lat="42.310151970013976" lon="3.217070996761322">
        <ele>69.349999999999994</ele>
        <time>2025-05-15T14:26:28Z</time>
      </trkpt>
      <trkpt lat="42.310251966118813" lon="3.217117013409734">
        <ele>68.870000000000005</ele>
        <time>2025-05-15T14:26:29Z</time>
      </trkpt>
      <trkpt lat="42.310359003022313" lon="3.217165963724256">
        <ele>68.390000000000001</ele>
        <time>2025-05-15T14:26:30Z</time>
      </trkpt>
      <trkpt lat="42.310432009398937" lon="3.217252967879176">
        <ele>67.909999999999997</ele>
        <time>2025-05-15T14:26:31Z</time>
      </trkpt>
      <trkpt lat="42.31050199829042" lon="3.217341983690858">
        <ele>67.430000000000007</ele>
        <time>2025-05-15T14:26:32Z</time>
      </trkpt>
      <trkpt lat="42.310567041859031" lon="3.217423958703876">
        <ele>67.430000000000007</ele>
        <time>2025-05-15T14:26:33Z</time>
      </trkpt>
      <trkpt lat="42.310665026307106" lon="3.217470981180668">
        <ele>67.430000000000007</ele>
        <time>2025-05-15T14:26:34Z</time>
      </trkpt>
      <trkpt lat="42.310763010755181" lon="3.217418007552624">
        <ele>67.430000000000007</ele>
        <time>2025-05-15T14:26:35Z</time>
      </trkpt>
      <trkpt lat="42.310810033231974" lon="3.217313988134265">
        <ele>67.909999999999997</ele>
        <time>2025-05-15T14:26:36Z</time>
      </trkpt>
      <trkpt lat="42.310832999646664" lon="3.217193959280849">
        <ele>68.390000000000001</ele>
        <time>2025-05-15T14:26:37Z</time>
      </trkpt>
      <trkpt lat="42.310858983546495" lon="3.217053981497884">
        <ele>68.390000000000001</ele>
        <time>2025-05-15T14:26:38Z</time>
      </trkpt>
      <trkpt lat="42.310882033780217" lon="3.216934036463499">
        <ele>68.870000000000005</ele>
        <time>2025-05-15T14:26:39Z</time>
      </trkpt>
      <trkpt lat="42.310949005186558" lon="3.216834040358663">
        <ele>68.870000000000005</ele>
        <time>2025-05-15T14:26:40Z</time>
      </trkpt>
      <trkpt lat="42.311001978814602" lon="3.216793974861503">
        <ele>69.349999999999994</ele>
        <time>2025-05-15T14:26:41Z</time>
      </trkpt>
      <trkpt lat="42.311097029596567" lon="3.216761033982039">
        <ele>69.829999999999998</ele>
        <time>2025-05-15T14:26:42Z</time>
      </trkpt>
      <trkpt lat="42.311519980430603" lon="3.216616027057171">
        <ele>70.310000000000002</ele>
        <time>2025-05-15T14:26:45Z</time>
      </trkpt>
      <trkpt lat="42.311669010668993" lon="3.216564981266856">
        <ele>70.310000000000002</ele>
        <time>2025-05-15T14:26:46Z</time>
      </trkpt>
      <trkpt lat="42.311840001493692" lon="3.216509995982051">
        <ele>69.829999999999998</ele>
        <time>2025-05-15T14:26:47Z</time>
      </trkpt>
      <trkpt lat="42.312013003975153" lon="3.216455010697246">
        <ele>69.349999999999994</ele>
        <time>2025-05-15T14:26:48Z</time>
      </trkpt>
      <trkpt lat="42.312176031991839" lon="3.21640295907855">
        <ele>68.870000000000005</ele>
        <time>2025-05-15T14:26:49Z</time>
      </trkpt>
      <trkpt lat="42.312320033088326" lon="3.216343028470874">
        <ele>67.909999999999997</ele>
        <time>2025-05-15T14:26:50Z</time>
      </trkpt>
      <trkpt lat="42.312491023913026" lon="3.216269016265869">
        <ele>66.950000000000003</ele>
        <time>2025-05-15T14:26:51Z</time>
      </trkpt>
      <trkpt lat="42.312563024461269" lon="3.216183017939329">
        <ele>65.989999999999995</ele>
        <time>2025-05-15T14:26:52Z</time>
      </trkpt>
      <trkpt lat="42.312657991424203" lon="3.216067012399435">
        <ele>65.030000000000001</ele>
        <time>2025-05-15T14:26:53Z</time>
      </trkpt>
      <trkpt lat="42.312792018055916" lon="3.215903984382749">
        <ele>64.069999999999993</ele>
        <time>2025-05-15T14:26:54Z</time>
      </trkpt>
      <trkpt lat="42.31286795809865" lon="3.215876994654536">
        <ele>63.100000000000001</ele>
        <time>2025-05-15T14:26:55Z</time>
      </trkpt>
      <trkpt lat="42.313008019700646" lon="3.215827960520983">
        <ele>62.619999999999997</ele>
        <time>2025-05-15T14:26:56Z</time>
      </trkpt>
      <trkpt lat="42.313649989664555" lon="3.21553903631866">
        <ele>57.82</ele>
        <time>2025-05-15T14:27:01Z</time>
      </trkpt>
      <trkpt lat="42.313688965514302" lon="3.215435016900301">
        <ele>57.340000000000003</ele>
        <time>2025-05-15T14:27:02Z</time>
      </trkpt>
      <trkpt lat="42.313715033233166" lon="3.21530400775373">
        <ele>56.859999999999999</ele>
        <time>2025-05-15T14:27:03Z</time>
      </trkpt>
      <trkpt lat="42.313715033233166" lon="3.214965965598822">
        <ele>55.890000000000001</ele>
        <time>2025-05-15T14:27:05Z</time>
      </trkpt>
      <trkpt lat="42.31374504044652" lon="3.214779971167445">
        <ele>54.93</ele>
        <time>2025-05-15T14:27:06Z</time>
      </trkpt>
      <trkpt lat="42.313808994367719" lon="3.214624989777803">
        <ele>54.450000000000003</ele>
        <time>2025-05-15T14:27:07Z</time>
      </trkpt>
      <trkpt lat="42.314033964648843" lon="3.214087039232254">
        <ele>52.049999999999997</ele>
        <time>2025-05-15T14:27:10Z</time>
      </trkpt>
      <trkpt lat="42.314079981297255" lon="3.213874977082014">
        <ele>51.090000000000003</ele>
        <time>2025-05-15T14:27:11Z</time>
      </trkpt>
      <trkpt lat="42.314187018200755" lon="3.213237030431628">
        <ele>49.159999999999997</ele>
        <time>2025-05-15T14:27:14Z</time>
      </trkpt>
      <trkpt lat="42.314181989058852" lon="3.213029997423291">
        <ele>48.200000000000003</ele>
        <time>2025-05-15T14:27:15Z</time>
      </trkpt>
      <trkpt lat="42.314136978238821" lon="3.212834028527141">
        <ele>47.719999999999999</ele>
        <time>2025-05-15T14:27:16Z</time>
      </trkpt>
      <trkpt lat="42.314053997397423" lon="3.212655996903777">
        <ele>47.240000000000002</ele>
        <time>2025-05-15T14:27:17Z</time>
      </trkpt>
      <trkpt lat="42.313955007120967" lon="3.212490035220981">
        <ele>47.240000000000002</ele>
        <time>2025-05-15T14:27:18Z</time>
      </trkpt>
      <trkpt lat="42.313856016844511" lon="3.212322983890772">
        <ele>46.280000000000001</ele>
        <time>2025-05-15T14:27:19Z</time>
      </trkpt>
      <trkpt lat="42.313759960234165" lon="3.212150987237692">
        <ele>45.799999999999997</ele>
        <time>2025-05-15T14:27:20Z</time>
      </trkpt>
      <trkpt lat="42.313674967736006" lon="3.211963986977935">
        <ele>45.32</ele>
        <time>2025-05-15T14:27:21Z</time>
      </trkpt>
      <trkpt lat="42.312598982825875" lon="3.209601966664195">
        <ele>38.590000000000003</ele>
        <time>2025-05-15T14:27:33Z</time>
      </trkpt>
      <trkpt lat="42.312439978122711" lon="3.20918396115303">
        <ele>37.149999999999999</ele>
        <time>2025-05-15T14:27:36Z</time>
      </trkpt>
      <trkpt lat="42.312430003657937" lon="3.209069967269898">
        <ele>36.670000000000002</ele>
        <time>2025-05-15T14:27:37Z</time>
      </trkpt>
      <trkpt lat="42.312465962022543" lon="3.208972988650203">
        <ele>36.189999999999998</ele>
        <time>2025-05-15T14:27:38Z</time>
      </trkpt>
      <trkpt lat="42.312537962570786" lon="3.208910040557385">
        <ele>35.229999999999997</ele>
        <time>2025-05-15T14:27:39Z</time>
      </trkpt>
      <trkpt lat="42.312641981989145" lon="3.208866035565734">
        <ele>34.740000000000002</ele>
        <time>2025-05-15T14:27:40Z</time>
      </trkpt>
      <trkpt lat="42.312766034156084" lon="3.20887902751565">
        <ele>34.259999999999998</ele>
        <time>2025-05-15T14:27:41Z</time>
      </trkpt>
      <trkpt lat="42.312907017767429" lon="3.208894031122327">
        <ele>33.780000000000001</ele>
        <time>2025-05-15T14:27:42Z</time>
      </trkpt>
      <trkpt lat="42.313376991078258" lon="3.208943987265229">
        <ele>31.379999999999999</ele>
        <time>2025-05-15T14:27:45Z</time>
      </trkpt>
      <trkpt lat="42.313543036580086" lon="3.208986986428499">
        <ele>30.420000000000002</ele>
        <time>2025-05-15T14:27:46Z</time>
      </trkpt>
      <trkpt lat="42.315217992290854" lon="3.209480009973049">
        <ele>23.210000000000001</ele>
        <time>2025-05-15T14:27:56Z</time>
      </trkpt>
      <trkpt lat="42.315384959802032" lon="3.209487972781062">
        <ele>22.25</ele>
        <time>2025-05-15T14:27:57Z</time>
      </trkpt>
      <trkpt lat="42.315537007525563" lon="3.209468023851514">
        <ele>21.289999999999999</ele>
        <time>2025-05-15T14:27:58Z</time>
      </trkpt>
      <trkpt lat="42.315683020278811" lon="3.209422007203102">
        <ele>20.32</ele>
        <time>2025-05-15T14:27:59Z</time>
      </trkpt>
      <trkpt lat="42.315947972238064" lon="3.209367021918297">
        <ele>19.359999999999999</ele>
        <time>2025-05-15T14:28:01Z</time>
      </trkpt>
      <trkpt lat="42.316075041890144" lon="3.209381019696593">
        <ele>18.399999999999999</ele>
        <time>2025-05-15T14:28:02Z</time>
      </trkpt>
      <trkpt lat="42.316194986924529" lon="3.209436004981399">
        <ele>17.920000000000002</ele>
        <time>2025-05-15T14:28:03Z</time>
      </trkpt>
      <trkpt lat="42.316322978585958" lon="3.209495013579726">
        <ele>17.440000000000001</ele>
        <time>2025-05-15T14:28:04Z</time>
      </trkpt>
      <trkpt lat="42.316463962197304" lon="3.209560979157686">
        <ele>16.960000000000001</ele>
        <time>2025-05-15T14:28:05Z</time>
      </trkpt>
      <trkpt lat="42.316616009920835" lon="3.209630968049169">
        <ele>16.48</ele>
        <time>2025-05-15T14:28:06Z</time>
      </trkpt>
      <trkpt lat="42.317398963496089" lon="3.210049979388714">
        <ele>14.08</ele>
        <time>2025-05-15T14:28:11Z</time>
      </trkpt>
      <trkpt lat="42.318468997254968" lon="3.210818013176322">
        <ele>12.15</ele>
        <time>2025-05-15T14:28:18Z</time>
      </trkpt>
      <trkpt lat="42.318622972816229" lon="3.210874004289508">
        <ele>11.67</ele>
        <time>2025-05-15T14:28:19Z</time>
      </trkpt>
      <trkpt lat="42.319120019674301" lon="3.210992021486163">
        <ele>8.310000000000001</ele>
        <time>2025-05-15T14:28:23Z</time>
      </trkpt>
      <trkpt lat="42.319195037707686" lon="3.210941981524229">
        <ele>7.83</ele>
        <time>2025-05-15T14:28:24Z</time>
      </trkpt>
      <trkpt lat="42.319276006892323" lon="3.210888002067804">
        <ele>7.35</ele>
        <time>2025-05-15T14:28:25Z</time>
      </trkpt>
      <trkpt lat="42.319379020482302" lon="3.210819019004703">
        <ele>7.35</ele>
        <time>2025-05-15T14:28:26Z</time>
      </trkpt>
      <trkpt lat="42.319487985223532" lon="3.210773002356291">
        <ele>6.87</ele>
        <time>2025-05-15T14:28:27Z</time>
      </trkpt>
      <trkpt lat="42.319618994370103" lon="3.210719022899866">
        <ele>6.39</ele>
        <time>2025-05-15T14:28:28Z</time>
      </trkpt>
      <trkpt lat="42.319756960496306" lon="3.210660014301539">
        <ele>5.91</ele>
        <time>2025-05-15T14:28:29Z</time>
      </trkpt>
      <trkpt lat="42.319900039583445" lon="3.21059999987483">
        <ele>5.42</ele>
        <time>2025-05-15T14:28:30Z</time>
      </trkpt>
      <trkpt lat="42.320049991831183" lon="3.21053302846849">
        <ele>4.46</ele>
        <time>2025-05-15T14:28:31Z</time>
      </trkpt>
      <trkpt lat="42.32049498707056" lon="3.209982002153993">
        <ele>3.02</ele>
        <time>2025-05-15T14:28:35Z</time>
      </trkpt>
      <trkpt lat="42.32053798623383" lon="3.209801958873868">
        <ele>3.02</ele>
        <time>2025-05-15T14:28:36Z</time>
      </trkpt>
      <trkpt lat="42.320576962083578" lon="3.209638008847833">
        <ele>3.02</ele>
        <time>2025-05-15T14:28:37Z</time>
      </trkpt>
      <trkpt lat="42.32060101814568" lon="3.209453020244837">
        <ele>2.54</ele>
        <time>2025-05-15T14:28:38Z</time>
      </trkpt>
      <trkpt lat="42.320598000660539" lon="3.209249004721642">
        <ele>2.54</ele>
        <time>2025-05-15T14:28:39Z</time>
      </trkpt>
      <trkpt lat="42.320645023137331" lon="3.207245981320739">
        <ele>1.58</ele>
        <time>2025-05-15T14:28:48Z</time>
      </trkpt>
      <trkpt lat="42.320689028128982" lon="3.207077002152801">
        <ele>1.58</ele>
        <time>2025-05-15T14:28:49Z</time>
      </trkpt>
      <trkpt lat="42.320760022848845" lon="3.206913974136114">
        <ele>1.1</ele>
        <time>2025-05-15T14:28:50Z</time>
      </trkpt>
      <trkpt lat="42.320817019790411" lon="3.206784976646304">
        <ele>1.1</ele>
        <time>2025-05-15T14:28:51Z</time>
      </trkpt>
      <trkpt lat="42.320936964824796" lon="3.206665031611919">
        <ele>0.62</ele>
        <time>2025-05-15T14:28:52Z</time>
      </trkpt>
      <trkpt lat="42.32105297036469" lon="3.206549026072025">
        <ele>0.14</ele>
        <time>2025-05-15T14:28:53Z</time>
      </trkpt>
      <trkpt lat="42.321178028360009" lon="3.206512983888388">
        <ele>0.14</ele>
        <time>2025-05-15T14:28:54Z</time>
      </trkpt>
      <trkpt lat="42.321333009749651" lon="3.206467973068357">
        <ele>-0.34</ele>
        <time>2025-05-15T14:28:55Z</time>
      </trkpt>
      <trkpt lat="42.322623990476131" lon="3.206101013347507">
        <ele>-3.71</ele>
        <time>2025-05-15T14:29:02Z</time>
      </trkpt>
      <trkpt lat="42.324645034968853" lon="3.205545963719487">
        <ele>-3.23</ele>
        <time>2025-05-15T14:29:13Z</time>
      </trkpt>
      <trkpt lat="42.325952025130391" lon="3.205346977338195">
        <ele>-3.71</ele>
        <time>2025-05-15T14:29:20Z</time>
      </trkpt>
      <trkpt lat="42.32734601944685" lon="3.205306995660067">
        <ele>-2.27</ele>
        <time>2025-05-15T14:29:29Z</time>
      </trkpt>
      <trkpt lat="42.328156968578696" lon="3.205303978174925">
        <ele>-0.82</ele>
        <time>2025-05-15T14:29:35Z</time>
      </trkpt>
      <trkpt lat="42.328619984909892" lon="3.20527296513319">
        <ele>-0.34</ele>
        <time>2025-05-15T14:29:40Z</time>
      </trkpt>
      <trkpt lat="42.328799022361636" lon="3.205389976501465">
        <ele>-0.34</ele>
        <time>2025-05-15T14:29:41Z</time>
      </trkpt>
      <trkpt lat="42.328848978504539" lon="3.205411015078425">
        <ele>-0.82</ele>
        <time>2025-05-15T14:29:43Z</time>
      </trkpt>
      <trkpt lat="42.328919973224401" lon="3.205411015078425">
        <ele>-0.82</ele>
        <time>2025-05-15T14:29:44Z</time>
      </trkpt>
      <trkpt lat="42.328991973772645" lon="3.205303978174925">
        <ele>-0.82</ele>
        <time>2025-05-15T14:29:45Z</time>
      </trkpt>
      <trkpt lat="42.32906598597765" lon="3.20529199205339">
        <ele>-0.82</ele>
        <time>2025-05-15T14:29:46Z</time>
      </trkpt>
      <trkpt lat="42.329137986525893" lon="3.205280005931854">
        <ele>-1.3</ele>
        <time>2025-05-15T14:29:47Z</time>
      </trkpt>
      <trkpt lat="42.329207975417376" lon="3.205268019810319">
        <ele>-1.3</ele>
        <time>2025-05-15T14:29:48Z</time>
      </trkpt>
      <trkpt lat="42.329272013157606" lon="3.205260979011655">
        <ele>-1.3</ele>
        <time>2025-05-15T14:29:49Z</time>
      </trkpt>
      <trkpt lat="42.329334039241076" lon="3.205258967354894">
        <ele>-1.79</ele>
        <time>2025-05-15T14:29:50Z</time>
      </trkpt>
      <trkpt lat="42.329397993162274" lon="3.205257961526513">
        <ele>-1.79</ele>
        <time>2025-05-15T14:29:51Z</time>
      </trkpt>
      <trkpt lat="42.330083968117833" lon="3.205241030082107">
        <ele>-0.82</ele>
        <time>2025-05-15T14:30:01Z</time>
      </trkpt>
      <trkpt lat="42.331017963588238" lon="3.20522703230381">
        <ele>-1.79</ele>
        <time>2025-05-15T14:30:14Z</time>
      </trkpt>
      <trkpt lat="42.331748027354479" lon="3.205179003998637">
        <ele>-5.15</ele>
        <time>2025-05-15T14:30:24Z</time>
      </trkpt>
      <trkpt lat="42.331818016245961" lon="3.205160982906818">
        <ele>-5.63</ele>
        <time>2025-05-15T14:30:25Z</time>
      </trkpt>
      <trkpt lat="42.331885993480682" lon="3.20514103397727">
        <ele>-6.11</ele>
        <time>2025-05-15T14:30:26Z</time>
      </trkpt>
      <trkpt lat="42.331952964887023" lon="3.205118989571929">
        <ele>-6.59</ele>
        <time>2025-05-15T14:30:27Z</time>
      </trkpt>
      <trkpt lat="42.331975009292364" lon="3.205111026763916">
        <ele>-7.07</ele>
        <time>2025-05-15T14:30:28Z</time>
      </trkpt>
      <trkpt lat="42.33211699873209" lon="3.205197025090456">
        <ele>-7.55</ele>
        <time>2025-05-15T14:30:29Z</time>
      </trkpt>
      <trkpt lat="42.332178018987179" lon="3.205160982906818">
        <ele>-8.029999999999999</ele>
        <time>2025-05-15T14:30:30Z</time>
      </trkpt>
      <trkpt lat="42.332210959866643" lon="3.205025028437376">
        <ele>-8.51</ele>
        <time>2025-05-15T14:30:31Z</time>
      </trkpt>
      <trkpt lat="42.33226896263659" lon="3.20499200373888">
        <ele>-9</ele>
        <time>2025-05-15T14:30:32Z</time>
      </trkpt>
      <trkpt lat="42.332336017861962" lon="3.204954033717513">
        <ele>-9.48</ele>
        <time>2025-05-15T14:30:33Z</time>
      </trkpt>
      <trkpt lat="42.332402989268303" lon="3.204917991533876">
        <ele>-9.960000000000001</ele>
        <time>2025-05-15T14:30:34Z</time>
      </trkpt>
      <trkpt lat="42.333145039156079" lon="3.204573998227716">
        <ele>-11.880000000000001</ele>
        <time>2025-05-15T14:30:45Z</time>
      </trkpt>
      <trkpt lat="42.333558015525341" lon="3.204400995746255">
        <ele>-11.4</ele>
        <time>2025-05-15T14:30:51Z</time>
      </trkpt>
      <trkpt lat="42.334128990769386" lon="3.20419698022306">
        <ele>-9.960000000000001</ele>
        <time>2025-05-15T14:30:59Z</time>
      </trkpt>
      <trkpt lat="42.334199985489249" lon="3.204172002151609">
        <ele>-9.960000000000001</ele>
        <time>2025-05-15T14:31:00Z</time>
      </trkpt>
      <trkpt lat="42.33426796272397" lon="3.204148029908538">
        <ele>-9.48</ele>
        <time>2025-05-15T14:31:01Z</time>
      </trkpt>
      <trkpt lat="42.334335017949343" lon="3.204123973846436">
        <ele>-9.48</ele>
        <time>2025-05-15T14:31:02Z</time>
      </trkpt>
      <trkpt lat="42.334406012669206" lon="3.204096984118223">
        <ele>-9.48</ele>
        <time>2025-05-15T14:31:03Z</time>
      </trkpt>
      <trkpt lat="42.334476001560688" lon="3.20406898856163">
        <ele>-9.48</ele>
        <time>2025-05-15T14:31:04Z</time>
      </trkpt>
      <trkpt lat="42.334540039300919" lon="3.204044010490179">
        <ele>-9.48</ele>
        <time>2025-05-15T14:31:05Z</time>
      </trkpt>
      <trkpt lat="42.334599969908595" lon="3.204020960256457">
        <ele>-9.48</ele>
        <time>2025-05-15T14:31:06Z</time>
      </trkpt>
      <trkpt lat="42.334660990163684" lon="3.203996988013387">
        <ele>-9.48</ele>
        <time>2025-05-15T14:31:07Z</time>
      </trkpt>
      <trkpt lat="42.334730979055166" lon="3.203969998285174">
        <ele>-9.48</ele>
        <time>2025-05-15T14:31:08Z</time>
      </trkpt>
      <trkpt lat="42.335008000954986" lon="3.203821973875165">
        <ele>-9.48</ele>
        <time>2025-05-15T14:31:12Z</time>
      </trkpt>
      <trkpt lat="42.335070027038455" lon="3.203764976933599">
        <ele>-9</ele>
        <time>2025-05-15T14:31:13Z</time>
      </trkpt>
      <trkpt lat="42.335132975131273" lon="3.203707979992032">
        <ele>-9</ele>
        <time>2025-05-15T14:31:14Z</time>
      </trkpt>
      <trkpt lat="42.335365992039442" lon="3.203321993350983">
        <ele>-9</ele>
        <time>2025-05-15T14:31:19Z</time>
      </trkpt>
      <trkpt lat="42.33540597371757" lon="3.203245969489217">
        <ele>-8.51</ele>
        <time>2025-05-15T14:31:20Z</time>
      </trkpt>
      <trkpt lat="42.335450984537601" lon="3.203157959505916">
        <ele>-8.51</ele>
        <time>2025-05-15T14:31:21Z</time>
      </trkpt>
      <trkpt lat="42.335484009236097" lon="3.203069027513266">
        <ele>-8.029999999999999</ele>
        <time>2025-05-15T14:31:22Z</time>
      </trkpt>
      <trkpt lat="42.335514016449451" lon="3.202987974509597">
        <ele>-8.029999999999999</ele>
        <time>2025-05-15T14:31:23Z</time>
      </trkpt>
      <trkpt lat="42.335560033097863" lon="3.202863000333309">
        <ele>-8.029999999999999</ele>
        <time>2025-05-15T14:31:25Z</time>
      </trkpt>
      <trkpt lat="42.335578976199031" lon="3.202812038362026">
        <ele>-7.55</ele>
        <time>2025-05-15T14:31:26Z</time>
      </trkpt>
      <trkpt lat="42.335558021441102" lon="3.202685974538326">
        <ele>-7.55</ele>
        <time>2025-05-15T14:31:27Z</time>
      </trkpt>
      <trkpt lat="42.335557015612721" lon="3.202681029215455">
        <ele>-6.59</ele>
        <time>2025-05-15T14:31:28Z</time>
      </trkpt>
      <trkpt lat="42.335529020056129" lon="3.202600982040167">
        <ele>-6.11</ele>
        <time>2025-05-15T14:31:29Z</time>
      </trkpt>
      <trkpt lat="42.335465988144279" lon="3.202420016750693">
        <ele>-5.63</ele>
        <time>2025-05-15T14:31:31Z</time>
      </trkpt>
      <trkpt lat="42.335331039503217" lon="3.202031012624502">
        <ele>-4.19</ele>
        <time>2025-05-15T14:31:36Z</time>
      </trkpt>
      <trkpt lat="42.33523297123611" lon="3.20174703374505">
        <ele>-3.23</ele>
        <time>2025-05-15T14:31:44Z</time>
      </trkpt>
      <trkpt lat="42.335214028134942" lon="3.201690036803484">
        <ele>-3.23</ele>
        <time>2025-05-15T14:32:06Z</time>
      </trkpt>
      <trkpt lat="42.335043037310243" lon="3.201098022982478">
        <ele>-1.79</ele>
        <time>2025-05-15T14:32:12Z</time>
      </trkpt>
      <trkpt lat="42.334628971293569" lon="3.199697993695736">
        <ele>-1.3</ele>
        <time>2025-05-15T14:32:23Z</time>
      </trkpt>
      <trkpt lat="42.33420099131763" lon="3.198213977739215">
        <ele>-4.19</ele>
        <time>2025-05-15T14:32:34Z</time>
      </trkpt>
      <trkpt lat="42.334131002426147" lon="3.197827991098166">
        <ele>-3.23</ele>
        <time>2025-05-15T14:32:37Z</time>
      </trkpt>
      <trkpt lat="42.334137037396431" lon="3.197719026356936">
        <ele>-3.23</ele>
        <time>2025-05-15T14:32:38Z</time>
      </trkpt>
      <trkpt lat="42.334172995761037" lon="3.197596985846758">
        <ele>-2.75</ele>
        <time>2025-05-15T14:32:39Z</time>
      </trkpt>
      <trkpt lat="42.334210965782404" lon="3.197470000013709">
        <ele>-2.75</ele>
        <time>2025-05-15T14:32:40Z</time>
      </trkpt>
      <trkpt lat="42.334250025451183" lon="3.19734301418066">
        <ele>-2.27</ele>
        <time>2025-05-15T14:32:41Z</time>
      </trkpt>
      <trkpt lat="42.334615979343653" lon="3.196349004283547">
        <ele>-0.82</ele>
        <time>2025-05-15T14:32:48Z</time>
      </trkpt>
      <trkpt lat="42.334625031799078" lon="3.196187987923622">
        <ele>0.14</ele>
        <time>2025-05-15T14:32:49Z</time>
      </trkpt>
      <trkpt lat="42.334634000435472" lon="3.196024959906936">
        <ele>0.14</ele>
        <time>2025-05-15T14:32:50Z</time>
      </trkpt>
      <trkpt lat="42.334686974063516" lon="3.195536965504289">
        <ele>1.1</ele>
        <time>2025-05-15T14:32:53Z</time>
      </trkpt>
      <trkpt lat="42.334745982661843" lon="3.195398999378085">
        <ele>1.58</ele>
        <time>2025-05-15T14:32:54Z</time>
      </trkpt>
      <trkpt lat="42.334810020402074" lon="3.195268996059895">
        <ele>1.58</ele>
        <time>2025-05-15T14:32:55Z</time>
      </trkpt>
      <trkpt lat="42.33488897792995" lon="3.195149973034859">
        <ele>2.06</ele>
        <time>2025-05-15T14:32:56Z</time>
      </trkpt>
      <trkpt lat="42.334971036761999" lon="3.195028016343713">
        <ele>2.06</ele>
        <time>2025-05-15T14:32:57Z</time>
      </trkpt>
      <trkpt lat="42.335265995934606" lon="3.194532981142402">
        <ele>3.5</ele>
        <time>2025-05-15T14:33:01Z</time>
      </trkpt>
      <trkpt lat="42.335322992876172" lon="3.194390991702676">
        <ele>3.98</ele>
        <time>2025-05-15T14:33:02Z</time>
      </trkpt>
      <trkpt lat="42.335368003696203" lon="3.194245984777808">
        <ele>4.46</ele>
        <time>2025-05-15T14:33:03Z</time>
      </trkpt>
      <trkpt lat="42.335456013679504" lon="3.19392504170537">
        <ele>5.42</ele>
        <time>2025-05-15T14:33:05Z</time>
      </trkpt>
      <trkpt lat="42.335536982864141" lon="3.193824039772153">
        <ele>5.91</ele>
        <time>2025-05-15T14:33:06Z</time>
      </trkpt>
      <trkpt lat="42.335658017545938" lon="3.193770982325077">
        <ele>6.39</ele>
        <time>2025-05-15T14:33:07Z</time>
      </trkpt>
      <trkpt lat="42.335765976458788" lon="3.193738041445613">
        <ele>6.39</ele>
        <time>2025-05-15T14:33:08Z</time>
      </trkpt>
      <trkpt lat="42.335882987827063" lon="3.193738041445613">
        <ele>6.87</ele>
        <time>2025-05-15T14:33:09Z</time>
      </trkpt>
      <trkpt lat="42.336002010852098" lon="3.193725971505046">
        <ele>6.87</ele>
        <time>2025-05-15T14:33:10Z</time>
      </trkpt>
      <trkpt lat="42.336239973083138" lon="3.193672997877002">
        <ele>6.87</ele>
        <time>2025-05-15T14:33:12Z</time>
      </trkpt>
      <trkpt lat="42.336352961137891" lon="3.193638967350125">
        <ele>7.35</ele>
        <time>2025-05-15T14:33:13Z</time>
      </trkpt>
      <trkpt lat="42.33645798638463" lon="3.193575013428927">
        <ele>7.35</ele>
        <time>2025-05-15T14:33:14Z</time>
      </trkpt>
      <trkpt lat="42.337330961599946" lon="3.193010995164514">
        <ele>8.789999999999999</ele>
        <time>2025-05-15T14:33:22Z</time>
      </trkpt>
      <trkpt lat="42.337421989068389" lon="3.192912004888058">
        <ele>8.789999999999999</ele>
        <time>2025-05-15T14:33:23Z</time>
      </trkpt>
      <trkpt lat="42.337507987394929" lon="3.192794993519783">
        <ele>8.789999999999999</ele>
        <time>2025-05-15T14:33:24Z</time>
      </trkpt>
      <trkpt lat="42.337593985721469" lon="3.192678987979889">
        <ele>8.789999999999999</ele>
        <time>2025-05-15T14:33:25Z</time>
      </trkpt>
      <trkpt lat="42.337683001533151" lon="3.192558037117124">
        <ele>8.789999999999999</ele>
        <time>2025-05-15T14:33:26Z</time>
      </trkpt>
      <trkpt lat="42.338124979287386" lon="3.191798971965909">
        <ele>8.789999999999999</ele>
        <time>2025-05-15T14:33:32Z</time>
      </trkpt>
      <trkpt lat="42.338178036734462" lon="3.191650025546551">
        <ele>8.789999999999999</ele>
        <time>2025-05-15T14:33:33Z</time>
      </trkpt>
      <trkpt lat="42.338191028684378" lon="3.191490015015006">
        <ele>9.27</ele>
        <time>2025-05-15T14:33:34Z</time>
      </trkpt>
      <trkpt lat="42.33824098482728" lon="3.190842010080814">
        <ele>9.27</ele>
        <time>2025-05-15T14:33:38Z</time>
      </trkpt>
      <trkpt lat="42.338310973718762" lon="3.190700020641089">
        <ele>8.789999999999999</ele>
        <time>2025-05-15T14:33:39Z</time>
      </trkpt>
      <trkpt lat="42.338394960388541" lon="3.190605975687504">
        <ele>8.789999999999999</ele>
        <time>2025-05-15T14:33:40Z</time>
      </trkpt>
      <trkpt lat="42.338677011430264" lon="3.190319985151291">
        <ele>8.789999999999999</ele>
        <time>2025-05-15T14:33:43Z</time>
      </trkpt>
      <trkpt lat="42.338738031685352" lon="3.190185036510229">
        <ele>8.789999999999999</ele>
        <time>2025-05-15T14:33:44Z</time>
      </trkpt>
      <trkpt lat="42.33875404112041" lon="3.190026031807065">
        <ele>8.789999999999999</ele>
        <time>2025-05-15T14:33:45Z</time>
      </trkpt>
      <trkpt lat="42.338737025856972" lon="3.189854035153985">
        <ele>8.789999999999999</ele>
        <time>2025-05-15T14:33:46Z</time>
      </trkpt>
      <trkpt lat="42.338721016421914" lon="3.189677009359002">
        <ele>8.789999999999999</ele>
        <time>2025-05-15T14:33:47Z</time>
      </trkpt>
      <trkpt lat="42.33869100920856" lon="3.189361011609435">
        <ele>9.27</ele>
        <time>2025-05-15T14:33:49Z</time>
      </trkpt>
      <trkpt lat="42.338744988664985" lon="3.189235031604767">
        <ele>9.27</ele>
        <time>2025-05-15T14:33:50Z</time>
      </trkpt>
      <trkpt lat="42.338797962293029" lon="3.189110979437828">
        <ele>9.27</ele>
        <time>2025-05-15T14:33:51Z</time>
      </trkpt>
      <trkpt lat="42.338870968669653" lon="3.1890519708395">
        <ele>8.789999999999999</ele>
        <time>2025-05-15T14:33:52Z</time>
      </trkpt>
      <trkpt lat="42.338959984481335" lon="3.189044008031488">
        <ele>8.789999999999999</ele>
        <time>2025-05-15T14:33:53Z</time>
      </trkpt>
      <trkpt lat="42.339053023606539" lon="3.189083989709616">
        <ele>8.310000000000001</ele>
        <time>2025-05-15T14:33:54Z</time>
      </trkpt>
      <trkpt lat="42.339147990569472" lon="3.189171999692917">
        <ele>7.83</ele>
        <time>2025-05-15T14:33:55Z</time>
      </trkpt>
      <trkpt lat="42.33922996558249" lon="3.18928599357605">
        <ele>7.83</ele>
        <time>2025-05-15T14:33:56Z</time>
      </trkpt>
      <trkpt lat="42.33939902856946" lon="3.189523033797741">
        <ele>7.35</ele>
        <time>2025-05-15T14:33:58Z</time>
      </trkpt>
      <trkpt lat="42.339490978047252" lon="3.189583970233798">
        <ele>7.35</ele>
        <time>2025-05-15T14:33:59Z</time>
      </trkpt>
      <trkpt lat="42.339575970545411" lon="3.189616994932294">
        <ele>7.35</ele>
        <time>2025-05-15T14:34:00Z</time>
      </trkpt>
      <trkpt lat="42.339669009670615" lon="3.189575001597405">
        <ele>7.35</ele>
        <time>2025-05-15T14:34:01Z</time>
      </trkpt>
      <trkpt lat="42.339770011603832" lon="3.189526973292232">
        <ele>7.83</ele>
        <time>2025-05-15T14:34:02Z</time>
      </trkpt>
      <trkpt lat="42.339863972738385" lon="3.18943896330893">
        <ele>7.83</ele>
        <time>2025-05-15T14:34:03Z</time>
      </trkpt>
      <trkpt lat="42.340059019625187" lon="3.189257998019457">
        <ele>7.83</ele>
        <time>2025-05-15T14:34:05Z</time>
      </trkpt>
      <trkpt lat="42.340134959667921" lon="3.189144004136324">
        <ele>8.310000000000001</ele>
        <time>2025-05-15T14:34:06Z</time>
      </trkpt>
      <trkpt lat="42.34019698575139" lon="3.189011989161372">
        <ele>8.310000000000001</ele>
        <time>2025-05-15T14:34:07Z</time>
      </trkpt>
      <trkpt lat="42.340212995186448" lon="3.188858013600111">
        <ele>8.310000000000001</ele>
        <time>2025-05-15T14:34:08Z</time>
      </trkpt>
      <trkpt lat="42.340189022943377" lon="3.188709989190102">
        <ele>8.310000000000001</ele>
        <time>2025-05-15T14:34:09Z</time>
      </trkpt>
      <trkpt lat="42.34019597992301" lon="3.188567999750376">
        <ele>8.310000000000001</ele>
        <time>2025-05-15T14:34:10Z</time>
      </trkpt>
      <trkpt lat="42.340252976864576" lon="3.18846900947392">
        <ele>8.310000000000001</ele>
        <time>2025-05-15T14:34:11Z</time>
      </trkpt>
      <trkpt lat="42.340336041525006" lon="3.188411006703973">
        <ele>8.310000000000001</ele>
        <time>2025-05-15T14:34:12Z</time>
      </trkpt>
      <trkpt lat="42.340438971295953" lon="3.188353003934026">
        <ele>8.310000000000001</ele>
        <time>2025-05-15T14:34:13Z</time>
      </trkpt>
      <trkpt lat="42.340552965179086" lon="3.188364990055561">
        <ele>8.789999999999999</ele>
        <time>2025-05-15T14:34:14Z</time>
      </trkpt>
      <trkpt lat="42.340672994032502" lon="3.188379993662238">
        <ele>8.789999999999999</ele>
        <time>2025-05-15T14:34:15Z</time>
      </trkpt>
      <trkpt lat="42.340788999572396" lon="3.188396003097296">
        <ele>8.789999999999999</ele>
        <time>2025-05-15T14:34:16Z</time>
      </trkpt>
      <trkpt lat="42.340893018990755" lon="3.188353003934026">
        <ele>8.789999999999999</ele>
        <time>2025-05-15T14:34:17Z</time>
      </trkpt>
      <trkpt lat="42.340999972075224" lon="3.188295001164079">
        <ele>8.789999999999999</ele>
        <time>2025-05-15T14:34:18Z</time>
      </trkpt>
      <trkpt lat="42.341094017028809" lon="3.188215037807822">
        <ele>9.27</ele>
        <time>2025-05-15T14:34:19Z</time>
      </trkpt>
      <trkpt lat="42.341178003698587" lon="3.188114035874605">
        <ele>9.27</ele>
        <time>2025-05-15T14:34:20Z</time>
      </trkpt>
      <trkpt lat="42.341262996196747" lon="3.188010016456246">
        <ele>9.27</ele>
        <time>2025-05-15T14:34:21Z</time>
      </trkpt>
      <trkpt lat="42.341350000351667" lon="3.187904991209507">
        <ele>9.27</ele>
        <time>2025-05-15T14:34:22Z</time>
      </trkpt>
      <trkpt lat="42.341424012556672" lon="3.187789991497994">
        <ele>8.789999999999999</ele>
        <time>2025-05-15T14:34:23Z</time>
      </trkpt>
      <trkpt lat="42.341499030590057" lon="3.187672980129719">
        <ele>8.789999999999999</ele>
        <time>2025-05-15T14:34:24Z</time>
      </trkpt>
      <trkpt lat="42.341553010046482" lon="3.187549011781812">
        <ele>8.789999999999999</ele>
        <time>2025-05-15T14:34:25Z</time>
      </trkpt>
      <trkpt lat="42.341573964804411" lon="3.187398975715041">
        <ele>8.789999999999999</ele>
        <time>2025-05-15T14:34:26Z</time>
      </trkpt>
      <trkpt lat="42.341585028916597" lon="3.187256986275315">
        <ele>8.789999999999999</ele>
        <time>2025-05-15T14:34:27Z</time>
      </trkpt>
      <trkpt lat="42.341573964804411" lon="3.187109967693687">
        <ele>9.27</ele>
        <time>2025-05-15T14:34:28Z</time>
      </trkpt>
      <trkpt lat="42.341483021155" lon="3.186144037172198">
        <ele>9.75</ele>
        <time>2025-05-15T14:34:34Z</time>
      </trkpt>
      <trkpt lat="42.341459970921278" lon="3.185996012762189">
        <ele>10.23</ele>
        <time>2025-05-15T14:34:35Z</time>
      </trkpt>
      <trkpt lat="42.34137699007988" lon="3.185898028314114">
        <ele>10.23</ele>
        <time>2025-05-15T14:34:36Z</time>
      </trkpt>
      <trkpt lat="42.341237012296915" lon="3.185712033882737">
        <ele>10.710000000000001</ele>
        <time>2025-05-15T14:34:38Z</time>
      </trkpt>
      <trkpt lat="42.341211028397083" lon="3.185593010857701">
        <ele>11.19</ele>
        <time>2025-05-15T14:34:39Z</time>
      </trkpt>
      <trkpt lat="42.341215973719954" lon="3.185465019196272">
        <ele>11.19</ele>
        <time>2025-05-15T14:34:40Z</time>
      </trkpt>
      <trkpt lat="42.341255033388734" lon="3.185313977301121">
        <ele>11.19</ele>
        <time>2025-05-15T14:34:41Z</time>
      </trkpt>
      <trkpt lat="42.341299038380384" lon="3.185144998133183">
        <ele>11.19</ele>
        <time>2025-05-15T14:34:42Z</time>
      </trkpt>
      <trkpt lat="42.341343965381384" lon="3.184969983994961">
        <ele>11.19</ele>
        <time>2025-05-15T14:34:43Z</time>
      </trkpt>
      <trkpt lat="42.341363998129964" lon="3.184791030362248">
        <ele>11.19</ele>
        <time>2025-05-15T14:34:44Z</time>
      </trkpt>
      <trkpt lat="42.341328039765358" lon="3.184646023437381">
        <ele>11.19</ele>
        <time>2025-05-15T14:34:45Z</time>
      </trkpt>
      <trkpt lat="42.341266013681889" lon="3.184490036219358">
        <ele>11.19</ele>
        <time>2025-05-15T14:34:46Z</time>
      </trkpt>
      <trkpt lat="42.341167023405433" lon="3.184369001537561">
        <ele>11.67</ele>
        <time>2025-05-15T14:34:47Z</time>
      </trkpt>
      <trkpt lat="42.341045988723636" lon="3.184220977127552">
        <ele>11.67</ele>
        <time>2025-05-15T14:34:48Z</time>
      </trkpt>
      <trkpt lat="42.340831998735666" lon="3.183901961892843">
        <ele>11.19</ele>
        <time>2025-05-15T14:34:50Z</time>
      </trkpt>
      <trkpt lat="42.340772990137339" lon="3.183719990774989">
        <ele>11.19</ele>
        <time>2025-05-15T14:34:51Z</time>
      </trkpt>
      <trkpt lat="42.340772990137339" lon="3.183511029928923">
        <ele>10.710000000000001</ele>
        <time>2025-05-15T14:34:52Z</time>
      </trkpt>
      <trkpt lat="42.340772990137339" lon="3.183310031890869">
        <ele>10.23</ele>
        <time>2025-05-15T14:34:53Z</time>
      </trkpt>
      <trkpt lat="42.340837027877569" lon="3.183102998882532">
        <ele>10.23</ele>
        <time>2025-05-15T14:34:54Z</time>
      </trkpt>
      <trkpt lat="42.34090500511229" lon="3.182936031371355">
        <ele>9.75</ele>
        <time>2025-05-15T14:34:55Z</time>
      </trkpt>
      <trkpt lat="42.341017993167043" lon="3.182822959497571">
        <ele>9.27</ele>
        <time>2025-05-15T14:34:56Z</time>
      </trkpt>
      <trkpt lat="42.341156965121627" lon="3.182752970606089">
        <ele>8.789999999999999</ele>
        <time>2025-05-15T14:34:57Z</time>
      </trkpt>
      <trkpt lat="42.341330973431468" lon="3.182665966451168">
        <ele>8.310000000000001</ele>
        <time>2025-05-15T14:34:58Z</time>
      </trkpt>
      <trkpt lat="42.341449996456504" lon="3.182682981714606">
        <ele>8.310000000000001</ele>
        <time>2025-05-15T14:34:59Z</time>
      </trkpt>
      <trkpt lat="42.34161201864481" lon="3.182706031948328">
        <ele>8.310000000000001</ele>
        <time>2025-05-15T14:35:00Z</time>
      </trkpt>
      <trkpt lat="42.342949016019702" lon="3.182952040806413">
        <ele>13.6</ele>
        <time>2025-05-15T14:35:08Z</time>
      </trkpt>
      <trkpt lat="42.343071978539228" lon="3.183036027476192">
        <ele>14.08</ele>
        <time>2025-05-15T14:35:09Z</time>
      </trkpt>
      <trkpt lat="42.343189995735884" lon="3.183115990832448">
        <ele>14.56</ele>
        <time>2025-05-15T14:35:10Z</time>
      </trkpt>
      <trkpt lat="42.343297032639384" lon="3.183190003037453">
        <ele>15.039999999999999</ele>
        <time>2025-05-15T14:35:11Z</time>
      </trkpt>
      <trkpt lat="42.343381019309163" lon="3.183211041614413">
        <ele>15.039999999999999</ele>
        <time>2025-05-15T14:35:12Z</time>
      </trkpt>
      <trkpt lat="42.343497024849057" lon="3.183164019137621">
        <ele>15.52</ele>
        <time>2025-05-15T14:35:13Z</time>
      </trkpt>
      <trkpt lat="42.343614036217332" lon="3.183092018589377">
        <ele>16</ele>
        <time>2025-05-15T14:35:14Z</time>
      </trkpt>
      <trkpt lat="42.343730963766575" lon="3.182986993342638">
        <ele>16.48</ele>
        <time>2025-05-15T14:35:15Z</time>
      </trkpt>
      <trkpt lat="42.343865996226668" lon="3.182928990572691">
        <ele>16.960000000000001</ele>
        <time>2025-05-15T14:35:16Z</time>
      </trkpt>
      <trkpt lat="42.344013014808297" lon="3.182902000844479">
        <ele>17.440000000000001</ele>
        <time>2025-05-15T14:35:17Z</time>
      </trkpt>
      <trkpt lat="42.344132037833333" lon="3.182979030534625">
        <ele>17.440000000000001</ele>
        <time>2025-05-15T14:35:18Z</time>
      </trkpt>
      <trkpt lat="42.344259023666382" lon="3.183061005547643">
        <ele>17.920000000000002</ele>
        <time>2025-05-15T14:35:19Z</time>
      </trkpt>
      <trkpt lat="42.344377962872386" lon="3.183138035237789">
        <ele>18.399999999999999</ele>
        <time>2025-05-15T14:35:20Z</time>
      </trkpt>
      <trkpt lat="42.344495980069041" lon="3.183165024966002">
        <ele>19.359999999999999</ele>
        <time>2025-05-15T14:35:21Z</time>
      </trkpt>
      <trkpt lat="42.344604022800922" lon="3.18316200748086">
        <ele>19.359999999999999</ele>
        <time>2025-05-15T14:35:22Z</time>
      </trkpt>
      <trkpt lat="42.344721034169197" lon="3.183095036074519">
        <ele>19.84</ele>
        <time>2025-05-15T14:35:23Z</time>
      </trkpt>
      <trkpt lat="42.344791023060679" lon="3.182968972250819">
        <ele>19.84</ele>
        <time>2025-05-15T14:35:24Z</time>
      </trkpt>
      <trkpt lat="42.344870986416936" lon="3.182825976982713">
        <ele>20.32</ele>
        <time>2025-05-15T14:35:25Z</time>
      </trkpt>
      <trkpt lat="42.344949021935463" lon="3.182697985321283">
        <ele>20.809999999999999</ele>
        <time>2025-05-15T14:35:26Z</time>
      </trkpt>
      <trkpt lat="42.345041977241635" lon="3.182620033621788">
        <ele>20.809999999999999</ele>
        <time>2025-05-15T14:35:27Z</time>
      </trkpt>
      <trkpt lat="42.345145996659994" lon="3.182613998651505">
        <ele>21.289999999999999</ele>
        <time>2025-05-15T14:35:28Z</time>
      </trkpt>
      <trkpt lat="42.345263008028269" lon="3.182655991986394">
        <ele>22.25</ele>
        <time>2025-05-15T14:35:29Z</time>
      </trkpt>
      <trkpt lat="42.345372978597879" lon="3.182728998363018">
        <ele>23.210000000000001</ele>
        <time>2025-05-15T14:35:30Z</time>
      </trkpt>
      <trkpt lat="42.345472974702716" lon="3.182794963940978">
        <ele>23.690000000000001</ele>
        <time>2025-05-15T14:35:31Z</time>
      </trkpt>
      <trkpt lat="42.345590991899371" lon="3.182794963940978">
        <ele>24.649999999999999</ele>
        <time>2025-05-15T14:35:32Z</time>
      </trkpt>
      <trkpt lat="42.345714960247278" lon="3.182750958949328">
        <ele>25.129999999999999</ele>
        <time>2025-05-15T14:35:33Z</time>
      </trkpt>
      <trkpt lat="42.345840018242598" lon="3.182674013078213">
        <ele>25.609999999999999</ele>
        <time>2025-05-15T14:35:34Z</time>
      </trkpt>
      <trkpt lat="42.345972033217549" lon="3.182592038065195">
        <ele>26.09</ele>
        <time>2025-05-15T14:35:35Z</time>
      </trkpt>
      <trkpt lat="42.346692960709333" lon="3.182161040604115">
        <ele>30.420000000000002</ele>
        <time>2025-05-15T14:35:40Z</time>
      </trkpt>
      <trkpt lat="42.346858000382781" lon="3.182114018127322">
        <ele>30.899999999999999</ele>
        <time>2025-05-15T14:35:41Z</time>
      </trkpt>
      <trkpt lat="42.3470279853791" lon="3.18208702839911">
        <ele>31.859999999999999</ele>
        <time>2025-05-15T14:35:42Z</time>
      </trkpt>
      <trkpt lat="42.347995005548" lon="3.181963982060552">
        <ele>35.229999999999997</ele>
        <time>2025-05-15T14:35:48Z</time>
      </trkpt>
      <trkpt lat="42.348118973895907" lon="3.181902039796114">
        <ele>35.710000000000001</ele>
        <time>2025-05-15T14:35:49Z</time>
      </trkpt>
      <trkpt lat="42.348216036334634" lon="3.1817870400846">
        <ele>35.710000000000001</ele>
        <time>2025-05-15T14:35:50Z</time>
      </trkpt>
      <trkpt lat="42.348317038267851" lon="3.181667011231184">
        <ele>35.710000000000001</ele>
        <time>2025-05-15T14:35:51Z</time>
      </trkpt>
      <trkpt lat="42.34842399135232" lon="3.181540025398135">
        <ele>35.229999999999997</ele>
        <time>2025-05-15T14:35:52Z</time>
      </trkpt>
      <trkpt lat="42.348823975771666" lon="3.18090601824224">
        <ele>33.780000000000001</ele>
        <time>2025-05-15T14:35:56Z</time>
      </trkpt>
      <trkpt lat="42.348909974098206" lon="3.18073402158916">
        <ele>33.299999999999997</ele>
        <time>2025-05-15T14:35:57Z</time>
      </trkpt>
      <trkpt lat="42.348933024331927" lon="3.180542998015881">
        <ele>32.82</ele>
        <time>2025-05-15T14:35:58Z</time>
      </trkpt>
      <trkpt lat="42.348938975483179" lon="3.180346023291349">
        <ele>32.340000000000003</ele>
        <time>2025-05-15T14:35:59Z</time>
      </trkpt>
      <trkpt lat="42.348913997411728" lon="3.180150976404548">
        <ele>31.859999999999999</ele>
        <time>2025-05-15T14:36:00Z</time>
      </trkpt>
      <trkpt lat="42.348889019340277" lon="3.179954001680017">
        <ele>31.379999999999999</ele>
        <time>2025-05-15T14:36:01Z</time>
      </trkpt>
      <trkpt lat="42.348864963278174" lon="3.179770018905401">
        <ele>30.899999999999999</ele>
        <time>2025-05-15T14:36:02Z</time>
      </trkpt>
      <trkpt lat="42.348895976319909" lon="3.179629035294056">
        <ele>30.420000000000002</ele>
        <time>2025-05-15T14:36:03Z</time>
      </trkpt>
      <trkpt lat="42.348951967433095" lon="3.1795749720186">
        <ele>29.940000000000001</ele>
        <time>2025-05-15T14:36:04Z</time>
      </trkpt>
      <trkpt lat="42.349023967981339" lon="3.179539013653994">
        <ele>28.98</ele>
        <time>2025-05-15T14:36:05Z</time>
      </trkpt>
      <trkpt lat="42.34911298379302" lon="3.179529961198568">
        <ele>28.5</ele>
        <time>2025-05-15T14:36:06Z</time>
      </trkpt>
      <trkpt lat="42.349211974069476" lon="3.179580001160502">
        <ele>28.02</ele>
        <time>2025-05-15T14:36:07Z</time>
      </trkpt>
      <trkpt lat="42.349334014579654" lon="3.179641021415591">
        <ele>27.530000000000001</ele>
        <time>2025-05-15T14:36:08Z</time>
      </trkpt>
      <trkpt lat="42.349414983764291" lon="3.179620988667011">
        <ele>27.050000000000001</ele>
        <time>2025-05-15T14:36:09Z</time>
      </trkpt>
      <trkpt lat="42.349523026496172" lon="3.179568015038967">
        <ele>26.57</ele>
        <time>2025-05-15T14:36:10Z</time>
      </trkpt>
      <trkpt lat="42.349598966538906" lon="3.179433988407254">
        <ele>26.57</ele>
        <time>2025-05-15T14:36:11Z</time>
      </trkpt>
      <trkpt lat="42.349683959037066" lon="3.179284036159515">
        <ele>26.57</ele>
        <time>2025-05-15T14:36:12Z</time>
      </trkpt>
      <trkpt lat="42.349772974848747" lon="3.179127965122461">
        <ele>26.57</ele>
        <time>2025-05-15T14:36:13Z</time>
      </trkpt>
      <trkpt lat="42.350023007020354" lon="3.178653968498111">
        <ele>26.57</ele>
        <time>2025-05-15T14:36:16Z</time>
      </trkpt>
      <trkpt lat="42.350065000355244" lon="3.178464034572244">
        <ele>27.050000000000001</ele>
        <time>2025-05-15T14:36:17Z</time>
      </trkpt>
      <trkpt lat="42.350095007568598" lon="3.178266976028681">
        <ele>27.050000000000001</ele>
        <time>2025-05-15T14:36:18Z</time>
      </trkpt>
      <trkpt lat="42.350128032267094" lon="3.178052986040711">
        <ele>27.050000000000001</ele>
        <time>2025-05-15T14:36:19Z</time>
      </trkpt>
      <trkpt lat="42.350128032267094" lon="3.177837990224361">
        <ele>27.530000000000001</ele>
        <time>2025-05-15T14:36:20Z</time>
      </trkpt>
      <trkpt lat="42.350167008116841" lon="3.176548015326262">
        <ele>27.530000000000001</ele>
        <time>2025-05-15T14:36:26Z</time>
      </trkpt>
      <trkpt lat="42.350216964259744" lon="3.176412982866168">
        <ele>27.530000000000001</ele>
        <time>2025-05-15T14:36:27Z</time>
      </trkpt>
      <trkpt lat="42.350272033363581" lon="3.176324972882867">
        <ele>27.530000000000001</ele>
        <time>2025-05-15T14:36:28Z</time>
      </trkpt>
      <trkpt lat="42.350328024476767" lon="3.176305023953319">
        <ele>27.530000000000001</ele>
        <time>2025-05-15T14:36:29Z</time>
      </trkpt>
      <trkpt lat="42.350386027246714" lon="3.176293037831783">
        <ele>27.530000000000001</ele>
        <time>2025-05-15T14:36:30Z</time>
      </trkpt>
      <trkpt lat="42.350452998653054" lon="3.176342993974686">
        <ele>27.530000000000001</ele>
        <time>2025-05-15T14:36:31Z</time>
      </trkpt>
      <trkpt lat="42.350526005029678" lon="3.17639596760273">
        <ele>27.530000000000001</ele>
        <time>2025-05-15T14:36:32Z</time>
      </trkpt>
      <trkpt lat="42.350609991699457" lon="3.176457993686199">
        <ele>28.02</ele>
        <time>2025-05-15T14:36:33Z</time>
      </trkpt>
      <trkpt lat="42.350714011117816" lon="3.176531000062823">
        <ele>28.02</ele>
        <time>2025-05-15T14:36:34Z</time>
      </trkpt>
      <trkpt lat="42.350842002779245" lon="3.176563018932939">
        <ele>28.02</ele>
        <time>2025-05-15T14:36:35Z</time>
      </trkpt>
      <trkpt lat="42.350983992218971" lon="3.176552960649133">
        <ele>28.5</ele>
        <time>2025-05-15T14:36:36Z</time>
      </trkpt>
      <trkpt lat="42.351136039942503" lon="3.176523959264159">
        <ele>28.5</ele>
        <time>2025-05-15T14:36:37Z</time>
      </trkpt>
      <trkpt lat="42.351622022688389" lon="3.176399990916252">
        <ele>28.98</ele>
        <time>2025-05-15T14:36:40Z</time>
      </trkpt>
      <trkpt lat="42.351764012128115" lon="3.176291026175022">
        <ele>29.460000000000001</ele>
        <time>2025-05-15T14:36:41Z</time>
      </trkpt>
      <trkpt lat="42.351894015446305" lon="3.176174014806747">
        <ele>29.460000000000001</ele>
        <time>2025-05-15T14:36:42Z</time>
      </trkpt>
      <trkpt lat="42.352012032642961" lon="3.176041999831796">
        <ele>29.940000000000001</ele>
        <time>2025-05-15T14:36:43Z</time>
      </trkpt>
      <trkpt lat="42.352126026526093" lon="3.175915013998747">
        <ele>29.940000000000001</ele>
        <time>2025-05-15T14:36:44Z</time>
      </trkpt>
      <trkpt lat="42.352229962125421" lon="3.175777969881892">
        <ele>29.940000000000001</ele>
        <time>2025-05-15T14:36:45Z</time>
      </trkpt>
      <trkpt lat="42.352310009300709" lon="3.175606979057193">
        <ele>29.940000000000001</ele>
        <time>2025-05-15T14:36:46Z</time>
      </trkpt>
      <trkpt lat="42.352691972628236" lon="3.174796029925346">
        <ele>30.420000000000002</ele>
        <time>2025-05-15T14:36:51Z</time>
      </trkpt>
      <trkpt lat="42.352783000096679" lon="3.174708019942045">
        <ele>30.420000000000002</ele>
        <time>2025-05-15T14:36:52Z</time>
      </trkpt>
      <trkpt lat="42.352888025343418" lon="3.174672983586788">
        <ele>29.940000000000001</ele>
        <time>2025-05-15T14:36:53Z</time>
      </trkpt>
      <trkpt lat="42.353005036711693" lon="3.174640964716673">
        <ele>29.940000000000001</ele>
        <time>2025-05-15T14:36:54Z</time>
      </trkpt>
      <trkpt lat="42.353137973695993" lon="3.174640964716673">
        <ele>29.940000000000001</ele>
        <time>2025-05-15T14:36:55Z</time>
      </trkpt>
      <trkpt lat="42.3532809689641" lon="3.174640964716673">
        <ele>29.460000000000001</ele>
        <time>2025-05-15T14:36:56Z</time>
      </trkpt>
      <trkpt lat="42.353434022516012" lon="3.174601988866925">
        <ele>29.460000000000001</ele>
        <time>2025-05-15T14:36:57Z</time>
      </trkpt>
      <trkpt lat="42.353586992248893" lon="3.174534011632204">
        <ele>28.98</ele>
        <time>2025-05-15T14:36:58Z</time>
      </trkpt>
      <trkpt lat="42.353733005002141" lon="3.174469973891974">
        <ele>28.98</ele>
        <time>2025-05-15T14:36:59Z</time>
      </trkpt>
      <trkpt lat="42.35384096391499" lon="3.174337958917022">
        <ele>28.98</ele>
        <time>2025-05-15T14:37:00Z</time>
      </trkpt>
      <trkpt lat="42.353950012475252" lon="3.174190018326044">
        <ele>28.5</ele>
        <time>2025-05-15T14:37:01Z</time>
      </trkpt>
      <trkpt lat="42.354043973609805" lon="3.174012992531061">
        <ele>28.5</ele>
        <time>2025-05-15T14:37:02Z</time>
      </trkpt>
      <trkpt lat="42.354236003011465" lon="3.173655001446605">
        <ele>27.530000000000001</ele>
        <time>2025-05-15T14:37:04Z</time>
      </trkpt>
      <trkpt lat="42.354292999953032" lon="3.173459032550454">
        <ele>27.530000000000001</ele>
        <time>2025-05-15T14:37:05Z</time>
      </trkpt>
      <trkpt lat="42.354341028258204" lon="3.173277983441949">
        <ele>27.530000000000001</ele>
        <time>2025-05-15T14:37:06Z</time>
      </trkpt>
      <trkpt lat="42.354365000501275" lon="3.173100035637617">
        <ele>27.050000000000001</ele>
        <time>2025-05-15T14:37:07Z</time>
      </trkpt>
      <trkpt lat="42.354322001338005" lon="3.172948993742466">
        <ele>27.530000000000001</ele>
        <time>2025-05-15T14:37:08Z</time>
      </trkpt>
      <trkpt lat="42.354274978861213" lon="3.17278697155416">
        <ele>27.530000000000001</ele>
        <time>2025-05-15T14:37:09Z</time>
      </trkpt>
      <trkpt lat="42.35422502271831" lon="3.172615980729461">
        <ele>27.530000000000001</ele>
        <time>2025-05-15T14:37:10Z</time>
      </trkpt>
      <trkpt lat="42.354172971099615" lon="3.172437027096748">
        <ele>27.530000000000001</ele>
        <time>2025-05-15T14:37:11Z</time>
      </trkpt>
      <trkpt lat="42.354148998856544" lon="3.172254972159863">
        <ele>27.530000000000001</ele>
        <time>2025-05-15T14:37:12Z</time>
      </trkpt>
      <trkpt lat="42.354171965271235" lon="3.172064032405615">
        <ele>27.530000000000001</ele>
        <time>2025-05-15T14:37:13Z</time>
      </trkpt>
      <trkpt lat="42.354312026873231" lon="3.171272026374936">
        <ele>27.050000000000001</ele>
        <time>2025-05-15T14:37:17Z</time>
      </trkpt>
      <trkpt lat="42.354325018823147" lon="3.171078991144896">
        <ele>26.57</ele>
        <time>2025-05-15T14:37:18Z</time>
      </trkpt>
      <trkpt lat="42.354314960539341" lon="3.170892996713519">
        <ele>26.57</ele>
        <time>2025-05-15T14:37:19Z</time>
      </trkpt>
      <trkpt lat="42.354259975254536" lon="3.17072200588882">
        <ele>26.09</ele>
        <time>2025-05-15T14:37:20Z</time>
      </trkpt>
      <trkpt lat="42.354202978312969" lon="3.170544980093837">
        <ele>26.09</ele>
        <time>2025-05-15T14:37:21Z</time>
      </trkpt>
      <trkpt lat="42.354143969714642" lon="3.170364014804363">
        <ele>25.609999999999999</ele>
        <time>2025-05-15T14:37:22Z</time>
      </trkpt>
      <trkpt lat="42.353876000270247" lon="3.169473018497229">
        <ele>24.649999999999999</ele>
        <time>2025-05-15T14:37:27Z</time>
      </trkpt>
      <trkpt lat="42.353870971128345" lon="3.169351983815432">
        <ele>24.649999999999999</ele>
        <time>2025-05-15T14:37:28Z</time>
      </trkpt>
      <trkpt lat="42.353889998048544" lon="3.169250981882215">
        <ele>24.170000000000002</ele>
        <time>2025-05-15T14:37:29Z</time>
      </trkpt>
      <trkpt lat="42.353957975283265" lon="3.169207982718945">
        <ele>24.170000000000002</ele>
        <time>2025-05-15T14:37:30Z</time>
      </trkpt>
      <trkpt lat="42.354057971388102" lon="3.169149979948998">
        <ele>23.690000000000001</ele>
        <time>2025-05-15T14:37:31Z</time>
      </trkpt>
      <trkpt lat="42.354151010513306" lon="3.169203037396073">
        <ele>23.690000000000001</ele>
        <time>2025-05-15T14:37:32Z</time>
      </trkpt>
      <trkpt lat="42.354261986911297" lon="3.169304961338639">
        <ele>23.690000000000001</ele>
        <time>2025-05-15T14:37:33Z</time>
      </trkpt>
      <trkpt lat="42.354361983016133" lon="3.169428007677198">
        <ele>23.690000000000001</ele>
        <time>2025-05-15T14:37:34Z</time>
      </trkpt>
      <trkpt lat="42.354928012937307" lon="3.170095039531589">
        <ele>23.210000000000001</ele>
        <time>2025-05-15T14:37:40Z</time>
      </trkpt>
      <trkpt lat="42.35499900765717" lon="3.170156981796026">
        <ele>23.210000000000001</ele>
        <time>2025-05-15T14:37:41Z</time>
      </trkpt>
      <trkpt lat="42.355065979063511" lon="3.170147007331252">
        <ele>23.690000000000001</ele>
        <time>2025-05-15T14:37:42Z</time>
      </trkpt>
      <trkpt lat="42.355153989046812" lon="3.170132003724575">
        <ele>23.210000000000001</ele>
        <time>2025-05-15T14:37:43Z</time>
      </trkpt>
      <trkpt lat="42.355278041213751" lon="3.170049022883177">
        <ele>23.210000000000001</ele>
        <time>2025-05-15T14:37:44Z</time>
      </trkpt>
      <trkpt lat="42.355336965993047" lon="3.169980039820075">
        <ele>22.73</ele>
        <time>2025-05-15T14:37:45Z</time>
      </trkpt>
      <trkpt lat="42.355511980131269" lon="3.169774012640119">
        <ele>22.25</ele>
        <time>2025-05-15T14:37:47Z</time>
      </trkpt>
      <trkpt lat="42.355593033134937" lon="3.169678039848805">
        <ele>22.25</ele>
        <time>2025-05-15T14:37:48Z</time>
      </trkpt>
      <trkpt lat="42.35566302202642" lon="3.169577037915587">
        <ele>22.25</ele>
        <time>2025-05-15T14:37:49Z</time>
      </trkpt>
      <trkpt lat="42.355715995654464" lon="3.169461032375693">
        <ele>21.77</ele>
        <time>2025-05-15T14:37:50Z</time>
      </trkpt>
      <trkpt lat="42.35577299259603" lon="3.169329017400742">
        <ele>21.77</ele>
        <time>2025-05-15T14:37:51Z</time>
      </trkpt>
      <trkpt lat="42.355785984545946" lon="3.169181998819113">
        <ele>21.289999999999999</ele>
        <time>2025-05-15T14:37:52Z</time>
      </trkpt>
      <trkpt lat="42.355799982324243" lon="3.169031040742993">
        <ele>21.289999999999999</ele>
        <time>2025-05-15T14:37:53Z</time>
      </trkpt>
      <trkpt lat="42.355812974274158" lon="3.168884022161365">
        <ele>21.289999999999999</ele>
        <time>2025-05-15T14:37:54Z</time>
      </trkpt>
      <trkpt lat="42.355825966224074" lon="3.168739015236497">
        <ele>20.809999999999999</ele>
        <time>2025-05-15T14:37:55Z</time>
      </trkpt>
      <trkpt lat="42.355847004801035" lon="3.168602976948023">
        <ele>20.32</ele>
        <time>2025-05-15T14:37:56Z</time>
      </trkpt>
      <trkpt lat="42.356228968128562" lon="3.167555993422866">
        <ele>19.359999999999999</ele>
        <time>2025-05-15T14:38:02Z</time>
      </trkpt>
      <trkpt lat="42.356284037232399" lon="3.167373016476631">
        <ele>19.359999999999999</ele>
        <time>2025-05-15T14:38:03Z</time>
      </trkpt>
      <trkpt lat="42.356328964233398" lon="3.167207976803184">
        <ele>19.359999999999999</ele>
        <time>2025-05-15T14:38:04Z</time>
      </trkpt>
      <trkpt lat="42.356342040002346" lon="3.167058024555445">
        <ele>19.84</ele>
        <time>2025-05-15T14:38:05Z</time>
      </trkpt>
      <trkpt lat="42.35630901530385" lon="3.166777985170484">
        <ele>20.32</ele>
        <time>2025-05-15T14:38:07Z</time>
      </trkpt>
      <trkpt lat="42.356342962011695" lon="3.166648987680674">
        <ele>20.32</ele>
        <time>2025-05-15T14:38:08Z</time>
      </trkpt>
      <trkpt lat="42.356387972831726" lon="3.166543040424585">
        <ele>19.84</ele>
        <time>2025-05-15T14:38:09Z</time>
      </trkpt>
      <trkpt lat="42.35648000612855" lon="3.166486965492368">
        <ele>19.84</ele>
        <time>2025-05-15T14:38:10Z</time>
      </trkpt>
      <trkpt lat="42.356558041647077" lon="3.166486965492368">
        <ele>19.84</ele>
        <time>2025-05-15T14:38:11Z</time>
      </trkpt>
      <trkpt lat="42.356669018045068" lon="3.166503980755806">
        <ele>19.84</ele>
        <time>2025-05-15T14:38:12Z</time>
      </trkpt>
      <trkpt lat="42.356778988614678" lon="3.16655301488936">
        <ele>20.32</ele>
        <time>2025-05-15T14:38:13Z</time>
      </trkpt>
      <trkpt lat="42.357181990519166" lon="3.166731968522072">
        <ele>20.32</ele>
        <time>2025-05-15T14:38:17Z</time>
      </trkpt>
      <trkpt lat="42.357267988845706" lon="3.166722999885678">
        <ele>20.809999999999999</ele>
        <time>2025-05-15T14:38:18Z</time>
      </trkpt>
      <trkpt lat="42.357363039627671" lon="3.166687041521072">
        <ele>20.32</ele>
        <time>2025-05-15T14:38:19Z</time>
      </trkpt>
      <trkpt lat="42.357461024075747" lon="3.166650999337435">
        <ele>20.809999999999999</ele>
        <time>2025-05-15T14:38:20Z</time>
      </trkpt>
      <trkpt lat="42.357561020180583" lon="3.166609006002545">
        <ele>20.809999999999999</ele>
        <time>2025-05-15T14:38:21Z</time>
      </trkpt>
      <trkpt lat="42.357650035992265" lon="3.166534993797541">
        <ele>20.809999999999999</ele>
        <time>2025-05-15T14:38:22Z</time>
      </trkpt>
      <trkpt lat="42.358598029240966" lon="3.16578296944499">
        <ele>19.84</ele>
        <time>2025-05-15T14:38:31Z</time>
      </trkpt>
      <trkpt lat="42.358764996752143" lon="3.165597980841994">
        <ele>19.359999999999999</ele>
        <time>2025-05-15T14:38:33Z</time>
      </trkpt>
      <trkpt lat="42.358883013948798" lon="3.165388014167547">
        <ele>18.879999999999999</ele>
        <time>2025-05-15T14:38:35Z</time>
      </trkpt>
      <trkpt lat="42.358916960656643" lon="3.165260022506118">
        <ele>18.399999999999999</ele>
        <time>2025-05-15T14:38:36Z</time>
      </trkpt>
      <trkpt lat="42.358935987576842" lon="3.165130019187927">
        <ele>17.920000000000002</ele>
        <time>2025-05-15T14:38:37Z</time>
      </trkpt>
      <trkpt lat="42.358926013112068" lon="3.164977971464396">
        <ele>17.440000000000001</ele>
        <time>2025-05-15T14:38:38Z</time>
      </trkpt>
      <trkpt lat="42.358883013948798" lon="3.164831958711147">
        <ele>17.440000000000001</ele>
        <time>2025-05-15T14:38:39Z</time>
      </trkpt>
      <trkpt lat="42.358839008957148" lon="3.164679994806647">
        <ele>16.960000000000001</ele>
        <time>2025-05-15T14:38:40Z</time>
      </trkpt>
      <trkpt lat="42.358795003965497" lon="3.164532976225019">
        <ele>16.960000000000001</ele>
        <time>2025-05-15T14:38:41Z</time>
      </trkpt>
      <trkpt lat="42.358758961781859" lon="3.164408002048731">
        <ele>16.960000000000001</ele>
        <time>2025-05-15T14:38:42Z</time>
      </trkpt>
      <trkpt lat="42.358732977882028" lon="3.16431999206543">
        <ele>16.48</ele>
        <time>2025-05-15T14:38:43Z</time>
      </trkpt>
      <trkpt lat="42.35875996761024" lon="3.164200969040394">
        <ele>16.48</ele>
        <time>2025-05-15T14:38:44Z</time>
      </trkpt>
      <trkpt lat="42.358783017843962" lon="3.164103990420699">
        <ele>16.48</ele>
        <time>2025-05-15T14:38:45Z</time>
      </trkpt>
      <trkpt lat="42.358827022835612" lon="3.164023021236062">
        <ele>16.48</ele>
        <time>2025-05-15T14:38:46Z</time>
      </trkpt>
      <trkpt lat="42.358907992020249" lon="3.16397700458765">
        <ele>16.960000000000001</ele>
        <time>2025-05-15T14:38:47Z</time>
      </trkpt>
      <trkpt lat="42.358984015882015" lon="3.163994019851089">
        <ele>16.960000000000001</ele>
        <time>2025-05-15T14:38:48Z</time>
      </trkpt>
      <trkpt lat="42.359064985066652" lon="3.164011035114527">
        <ele>16.960000000000001</ele>
        <time>2025-05-15T14:38:49Z</time>
      </trkpt>
      <trkpt lat="42.359146038070321" lon="3.164027966558933">
        <ele>16.960000000000001</ele>
        <time>2025-05-15T14:38:50Z</time>
      </trkpt>
      <trkpt lat="42.359224995598197" lon="3.164032995700836">
        <ele>16.960000000000001</ele>
        <time>2025-05-15T14:38:51Z</time>
      </trkpt>
      <trkpt lat="42.359311999753118" lon="3.163997959345579">
        <ele>16.960000000000001</ele>
        <time>2025-05-15T14:38:52Z</time>
      </trkpt>
      <trkpt lat="42.359365979209542" lon="3.163923025131226">
        <ele>17.440000000000001</ele>
        <time>2025-05-15T14:38:53Z</time>
      </trkpt>
      <trkpt lat="42.359420964494348" lon="3.163809031248093">
        <ele>17.920000000000002</ele>
        <time>2025-05-15T14:38:54Z</time>
      </trkpt>
      <trkpt lat="42.359428005293012" lon="3.163686990737915">
        <ele>18.399999999999999</ele>
        <time>2025-05-15T14:38:55Z</time>
      </trkpt>
      <trkpt lat="42.359434962272644" lon="3.163558999076486">
        <ele>18.879999999999999</ele>
        <time>2025-05-15T14:38:56Z</time>
      </trkpt>
      <trkpt lat="42.359629003331065" lon="3.162160981446505">
        <ele>19.359999999999999</ele>
        <time>2025-05-15T14:39:06Z</time>
      </trkpt>
      <trkpt lat="42.359675019979477" lon="3.16204103641212">
        <ele>19.359999999999999</ele>
        <time>2025-05-15T14:39:07Z</time>
      </trkpt>
      <trkpt lat="42.359736962243915" lon="3.161942968145013">
        <ele>19.359999999999999</ele>
        <time>2025-05-15T14:39:08Z</time>
      </trkpt>
      <trkpt lat="42.359822038561106" lon="3.16187197342515">
        <ele>19.359999999999999</ele>
        <time>2025-05-15T14:39:09Z</time>
      </trkpt>
      <trkpt lat="42.359920023009181" lon="3.161859987303615">
        <ele>19.359999999999999</ele>
        <time>2025-05-15T14:39:10Z</time>
      </trkpt>
      <trkpt lat="42.360019013285637" lon="3.161874990910292">
        <ele>19.359999999999999</ele>
        <time>2025-05-15T14:39:11Z</time>
      </trkpt>
      <trkpt lat="42.360105011612177" lon="3.161922013387084">
        <ele>19.359999999999999</ele>
        <time>2025-05-15T14:39:12Z</time>
      </trkpt>
      <trkpt lat="42.360190004110336" lon="3.161968030035496">
        <ele>19.359999999999999</ele>
        <time>2025-05-15T14:39:13Z</time>
      </trkpt>
      <trkpt lat="42.360277008265257" lon="3.161971969529986">
        <ele>18.879999999999999</ele>
        <time>2025-05-15T14:39:14Z</time>
      </trkpt>
      <trkpt lat="42.360367029905319" lon="3.161959983408451">
        <ele>18.879999999999999</ele>
        <time>2025-05-15T14:39:15Z</time>
      </trkpt>
      <trkpt lat="42.360530979931355" lon="3.161937016993761">
        <ele>18.879999999999999</ele>
        <time>2025-05-15T14:39:17Z</time>
      </trkpt>
      <trkpt lat="42.360612032935023" lon="3.161926036700606">
        <ele>18.879999999999999</ele>
        <time>2025-05-15T14:39:18Z</time>
      </trkpt>
      <trkpt lat="42.360763996839523" lon="3.161904998123646">
        <ele>19.359999999999999</ele>
        <time>2025-05-15T14:39:20Z</time>
      </trkpt>
      <trkpt lat="42.36084396019578" lon="3.161886977031827">
        <ele>19.359999999999999</ele>
        <time>2025-05-15T14:39:21Z</time>
      </trkpt>
      <trkpt lat="42.360905986279249" lon="3.161824028939009">
        <ele>20.32</ele>
        <time>2025-05-15T14:39:22Z</time>
      </trkpt>
      <trkpt lat="42.360963989049196" lon="3.161743981763721">
        <ele>20.809999999999999</ele>
        <time>2025-05-15T14:39:23Z</time>
      </trkpt>
      <trkpt lat="42.361007994040847" lon="3.161648008972406">
        <ele>21.77</ele>
        <time>2025-05-15T14:39:24Z</time>
      </trkpt>
      <trkpt lat="42.361092986539006" lon="3.161466037854552">
        <ele>22.73</ele>
        <time>2025-05-15T14:39:26Z</time>
      </trkpt>
      <trkpt lat="42.361151995137334" lon="3.161417003720999">
        <ele>23.210000000000001</ele>
        <time>2025-05-15T14:39:27Z</time>
      </trkpt>
      <trkpt lat="42.361221984028816" lon="3.161359000951052">
        <ele>23.210000000000001</ele>
        <time>2025-05-15T14:39:28Z</time>
      </trkpt>
      <trkpt lat="42.361303037032485" lon="3.161367969587445">
        <ele>23.210000000000001</ele>
        <time>2025-05-15T14:39:29Z</time>
      </trkpt>
      <trkpt lat="42.361415019258857" lon="3.161380039528012">
        <ele>23.690000000000001</ele>
        <time>2025-05-15T14:39:30Z</time>
      </trkpt>
      <trkpt lat="42.361471010372043" lon="3.161427984014154">
        <ele>23.690000000000001</ele>
        <time>2025-05-15T14:39:31Z</time>
      </trkpt>
      <trkpt lat="42.361532030627131" lon="3.161480035632849">
        <ele>23.690000000000001</ele>
        <time>2025-05-15T14:39:32Z</time>
      </trkpt>
      <trkpt lat="42.361582992598414" lon="3.161524040624499">
        <ele>24.170000000000002</ele>
        <time>2025-05-15T14:39:33Z</time>
      </trkpt>
      <trkpt lat="42.361635966226459" lon="3.161569973453879">
        <ele>24.170000000000002</ele>
        <time>2025-05-15T14:39:34Z</time>
      </trkpt>
      <trkpt lat="42.361715007573366" lon="3.161638034507632">
        <ele>24.649999999999999</ele>
        <time>2025-05-15T14:39:35Z</time>
      </trkpt>
      <trkpt lat="42.361759012565017" lon="3.161645997315645">
        <ele>24.649999999999999</ele>
        <time>2025-05-15T14:39:36Z</time>
      </trkpt>
      <trkpt lat="42.361825983971357" lon="3.161655971780419">
        <ele>24.649999999999999</ele>
        <time>2025-05-15T14:39:37Z</time>
      </trkpt>
      <trkpt lat="42.361888010054827" lon="3.161607021465898">
        <ele>24.649999999999999</ele>
        <time>2025-05-15T14:39:38Z</time>
      </trkpt>
      <trkpt lat="42.36193897202611" lon="3.161540972068906">
        <ele>24.649999999999999</ele>
        <time>2025-05-15T14:39:39Z</time>
      </trkpt>
      <trkpt lat="42.361967973411083" lon="3.161438964307308">
        <ele>24.170000000000002</ele>
        <time>2025-05-15T14:39:40Z</time>
      </trkpt>
      <trkpt lat="42.361964033916593" lon="3.161322036758065">
        <ele>24.649999999999999</ele>
        <time>2025-05-15T14:39:41Z</time>
      </trkpt>
      <trkpt lat="42.361952969804406" lon="3.161207959055901">
        <ele>24.170000000000002</ele>
        <time>2025-05-15T14:39:42Z</time>
      </trkpt>
      <trkpt lat="42.361942995339632" lon="3.16109798848629">
        <ele>24.649999999999999</ele>
        <time>2025-05-15T14:39:43Z</time>
      </trkpt>
      <trkpt lat="42.361934026703238" lon="3.160991035401821">
        <ele>24.649999999999999</ele>
        <time>2025-05-15T14:39:44Z</time>
      </trkpt>
      <trkpt lat="42.361945006996393" lon="3.160877041518688">
        <ele>24.649999999999999</ele>
        <time>2025-05-15T14:39:45Z</time>
      </trkpt>
      <trkpt lat="42.361965961754322" lon="3.160770004615188">
        <ele>24.649999999999999</ele>
        <time>2025-05-15T14:39:46Z</time>
      </trkpt>
      <trkpt lat="42.362021030858159" lon="3.160663973540068">
        <ele>24.649999999999999</ele>
        <time>2025-05-15T14:39:47Z</time>
      </trkpt>
      <trkpt lat="42.362086996436119" lon="3.160565989091992">
        <ele>24.649999999999999</ele>
        <time>2025-05-15T14:39:48Z</time>
      </trkpt>
      <trkpt lat="42.362143993377686" lon="3.160478984937072">
        <ele>24.170000000000002</ele>
        <time>2025-05-15T14:39:49Z</time>
      </trkpt>
      <trkpt lat="42.362251030281186" lon="3.160400027409196">
        <ele>23.690000000000001</ele>
        <time>2025-05-15T14:39:50Z</time>
      </trkpt>
      <trkpt lat="42.362338034436107" lon="3.160333978012204">
        <ele>23.210000000000001</ele>
        <time>2025-05-15T14:39:51Z</time>
      </trkpt>
      <trkpt lat="42.362440964207053" lon="3.160292990505695">
        <ele>22.73</ele>
        <time>2025-05-15T14:39:52Z</time>
      </trkpt>
      <trkpt lat="42.36254096031189" lon="3.160312017425895">
        <ele>22.73</ele>
        <time>2025-05-15T14:39:53Z</time>
      </trkpt>
      <trkpt lat="42.362638022750616" lon="3.160330038517714">
        <ele>22.25</ele>
        <time>2025-05-15T14:39:54Z</time>
      </trkpt>
      <trkpt lat="42.362723015248775" lon="3.16034596413374">
        <ele>21.77</ele>
        <time>2025-05-15T14:39:55Z</time>
      </trkpt>
      <trkpt lat="42.362800966948271" lon="3.160343030467629">
        <ele>21.289999999999999</ele>
        <time>2025-05-15T14:39:56Z</time>
      </trkpt>
      <trkpt lat="42.362896017730236" lon="3.160329032689333">
        <ele>20.809999999999999</ele>
        <time>2025-05-15T14:39:57Z</time>
      </trkpt>
      <trkpt lat="42.362954020500183" lon="3.160263989120722">
        <ele>20.32</ele>
        <time>2025-05-15T14:39:58Z</time>
      </trkpt>
      <trkpt lat="42.363023003563285" lon="3.160186959430575">
        <ele>19.84</ele>
        <time>2025-05-15T14:39:59Z</time>
      </trkpt>
      <trkpt lat="42.363088969141245" lon="3.160114036872983">
        <ele>19.359999999999999</ele>
        <time>2025-05-15T14:40:00Z</time>
      </trkpt>
      <trkpt lat="42.363167004659772" lon="3.160036001354456">
        <ele>18.879999999999999</ele>
        <time>2025-05-15T14:40:01Z</time>
      </trkpt>
      <trkpt lat="42.363245962187648" lon="3.159977998584509">
        <ele>18.399999999999999</ele>
        <time>2025-05-15T14:40:02Z</time>
      </trkpt>
      <trkpt lat="42.36333497799933" lon="3.1599560379982">
        <ele>17.920000000000002</ele>
        <time>2025-05-15T14:40:03Z</time>
      </trkpt>
      <trkpt lat="42.363431034609675" lon="3.159951008856297">
        <ele>17.440000000000001</ele>
        <time>2025-05-15T14:40:04Z</time>
      </trkpt>
      <trkpt lat="42.36352801322937" lon="3.159969029948115">
        <ele>16.960000000000001</ele>
        <time>2025-05-15T14:40:05Z</time>
      </trkpt>
      <trkpt lat="42.363625997677445" lon="3.159987973049283">
        <ele>16.48</ele>
        <time>2025-05-15T14:40:06Z</time>
      </trkpt>
      <trkpt lat="42.363822972401977" lon="3.160025021061301">
        <ele>15.52</ele>
        <time>2025-05-15T14:40:08Z</time>
      </trkpt>
      <trkpt lat="42.363918023183942" lon="3.160074977204204">
        <ele>15.039999999999999</ele>
        <time>2025-05-15T14:40:09Z</time>
      </trkpt>
      <trkpt lat="42.363995974883437" lon="3.160161981359124">
        <ele>14.56</ele>
        <time>2025-05-15T14:40:10Z</time>
      </trkpt>
      <trkpt lat="42.364065041765571" lon="3.160264994949102">
        <ele>14.08</ele>
        <time>2025-05-15T14:40:11Z</time>
      </trkpt>
      <trkpt lat="42.364123966544867" lon="3.160383012145758">
        <ele>13.6</ele>
        <time>2025-05-15T14:40:12Z</time>
      </trkpt>
      <trkpt lat="42.364514982327819" lon="3.161168983206153">
        <ele>10.23</ele>
        <time>2025-05-15T14:40:18Z</time>
      </trkpt>
      <trkpt lat="42.364568961784244" lon="3.161273002624512">
        <ele>9.75</ele>
        <time>2025-05-15T14:40:19Z</time>
      </trkpt>
      <trkpt lat="42.364655965939164" lon="3.161320025101304">
        <ele>9.27</ele>
        <time>2025-05-15T14:40:20Z</time>
      </trkpt>
      <trkpt lat="42.364761997014284" lon="3.161337040364742">
        <ele>8.789999999999999</ele>
        <time>2025-05-15T14:40:21Z</time>
      </trkpt>
      <trkpt lat="42.364853024482727" lon="3.161303009837866">
        <ele>8.310000000000001</ele>
        <time>2025-05-15T14:40:22Z</time>
      </trkpt>
      <trkpt lat="42.365823984146118" lon="3.160930015146732">
        <ele>2.54</ele>
        <time>2025-05-15T14:40:31Z</time>
      </trkpt>
      <trkpt lat="42.366809025406837" lon="3.160335989668965">
        <ele>-0.82</ele>
        <time>2025-05-15T14:40:40Z</time>
      </trkpt>
      <trkpt lat="42.366995019838214" lon="3.16017396748066">
        <ele>-1.3</ele>
        <time>2025-05-15T14:40:42Z</time>
      </trkpt>
      <trkpt lat="42.367079006507993" lon="3.160080006346107">
        <ele>-1.3</ele>
        <time>2025-05-15T14:40:43Z</time>
      </trkpt>
      <trkpt lat="42.367170033976436" lon="3.159977998584509">
        <ele>-1.3</ele>
        <time>2025-05-15T14:40:44Z</time>
      </trkpt>
      <trkpt lat="42.367649981752038" lon="3.159247012808919">
        <ele>-1.79</ele>
        <time>2025-05-15T14:40:50Z</time>
      </trkpt>
      <trkpt lat="42.368048960343003" lon="3.158642007037997">
        <ele>-3.23</ele>
        <time>2025-05-15T14:40:55Z</time>
      </trkpt>
      <trkpt lat="42.368264961987734" lon="3.158244034275413">
        <ele>-3.71</ele>
        <time>2025-05-15T14:40:58Z</time>
      </trkpt>
      <trkpt lat="42.368305027484894" lon="3.158116964623332">
        <ele>-3.71</ele>
        <time>2025-05-15T14:40:59Z</time>
      </trkpt>
      <trkpt lat="42.368308966979384" lon="3.15796097740531">
        <ele>-3.71</ele>
        <time>2025-05-15T14:41:00Z</time>
      </trkpt>
      <trkpt lat="42.368264039978385" lon="3.157838014885783">
        <ele>-3.71</ele>
        <time>2025-05-15T14:41:01Z</time>
      </trkpt>
      <trkpt lat="42.368219029158354" lon="3.157736007124186">
        <ele>-4.19</ele>
        <time>2025-05-15T14:41:02Z</time>
      </trkpt>
      <trkpt lat="42.368177035823464" lon="3.157641962170601">
        <ele>-4.19</ele>
        <time>2025-05-15T14:41:03Z</time>
      </trkpt>
      <trkpt lat="42.368131019175053" lon="3.157539032399654">
        <ele>-4.19</ele>
        <time>2025-05-15T14:41:04Z</time>
      </trkpt>
      <trkpt lat="42.368072010576725" lon="3.157420009374619">
        <ele>-5.15</ele>
        <time>2025-05-15T14:41:06Z</time>
      </trkpt>
      <trkpt lat="42.36801702529192" lon="3.157302998006344">
        <ele>-5.63</ele>
        <time>2025-05-15T14:41:08Z</time>
      </trkpt>
      <trkpt lat="42.368000010028481" lon="3.157246001064777">
        <ele>-5.63</ele>
        <time>2025-05-15T14:41:09Z</time>
      </trkpt>
      <trkpt lat="42.367960028350353" lon="3.157109962776303">
        <ele>-5.63</ele>
        <time>2025-05-15T14:41:10Z</time>
      </trkpt>
      <trkpt lat="42.367991041392088" lon="3.157054977491498">
        <ele>-6.11</ele>
        <time>2025-05-15T14:41:11Z</time>
      </trkpt>
      <trkpt lat="42.368028005585074" lon="3.156990017741919">
        <ele>-6.59</ele>
        <time>2025-05-15T14:41:12Z</time>
      </trkpt>
      <trkpt lat="42.3681699950248" lon="3.157031005248427">
        <ele>-6.59</ele>
        <time>2025-05-15T14:41:13Z</time>
      </trkpt>
      <trkpt lat="42.368195978924632" lon="3.157046008855104">
        <ele>-7.07</ele>
        <time>2025-05-15T14:41:14Z</time>
      </trkpt>
      <trkpt lat="42.368295975029469" lon="3.157158996909857">
        <ele>-7.55</ele>
        <time>2025-05-15T14:41:15Z</time>
      </trkpt>
      <trkpt lat="42.368367975577712" lon="3.157240971922875">
        <ele>-7.55</ele>
        <time>2025-05-15T14:41:16Z</time>
      </trkpt>
      <trkpt lat="42.368761003017426" lon="3.157765008509159">
        <ele>-10.44</ele>
        <time>2025-05-15T14:41:23Z</time>
      </trkpt>
      <trkpt lat="42.368800984695554" lon="3.157860981300473">
        <ele>-10.92</ele>
        <time>2025-05-15T14:41:24Z</time>
      </trkpt>
      <trkpt lat="42.368836021050811" lon="3.157965000718832">
        <ele>-10.92</ele>
        <time>2025-05-15T14:41:25Z</time>
      </trkpt>
      <trkpt lat="42.368865022435784" lon="3.158062985166907">
        <ele>-10.44</ele>
        <time>2025-05-15T14:41:26Z</time>
      </trkpt>
      <trkpt lat="42.368893017992377" lon="3.158160969614983">
        <ele>-10.44</ele>
        <time>2025-05-15T14:41:27Z</time>
      </trkpt>
      <trkpt lat="42.368925036862493" lon="3.158269012346864">
        <ele>-10.44</ele>
        <time>2025-05-15T14:41:28Z</time>
      </trkpt>
      <trkpt lat="42.368965018540621" lon="3.158320980146527">
        <ele>-10.44</ele>
        <time>2025-05-15T14:41:29Z</time>
      </trkpt>
      <trkpt lat="42.369074989110231" lon="3.158590961247683">
        <ele>-9.960000000000001</ele>
        <time>2025-05-15T14:41:32Z</time>
      </trkpt>
      <trkpt lat="42.36911497078836" lon="3.15867000259459">
        <ele>-9.960000000000001</ele>
        <time>2025-05-15T14:41:33Z</time>
      </trkpt>
      <trkpt lat="42.369203986600041" lon="3.158848034217954">
        <ele>-9</ele>
        <time>2025-05-15T14:41:35Z</time>
      </trkpt>
      <trkpt lat="42.36924103461206" lon="3.158934032544494">
        <ele>-8.51</ele>
        <time>2025-05-15T14:41:36Z</time>
      </trkpt>
      <trkpt lat="42.369275987148285" lon="3.159017013385892">
        <ele>-8.51</ele>
        <time>2025-05-15T14:41:37Z</time>
      </trkpt>
      <trkpt lat="42.369311023503542" lon="3.15909898839891">
        <ele>-8.51</ele>
        <time>2025-05-15T14:41:38Z</time>
      </trkpt>
      <trkpt lat="42.369348993524909" lon="3.159188004210591">
        <ele>-9</ele>
        <time>2025-05-15T14:41:39Z</time>
      </trkpt>
      <trkpt lat="42.369386963546276" lon="3.159278025850654">
        <ele>-9</ele>
        <time>2025-05-15T14:41:40Z</time>
      </trkpt>
      <trkpt lat="42.369424011558294" lon="3.159366035833955">
        <ele>-9.48</ele>
        <time>2025-05-15T14:41:41Z</time>
      </trkpt>
      <trkpt lat="42.369460975751281" lon="3.159452034160495">
        <ele>-9.48</ele>
        <time>2025-05-15T14:41:42Z</time>
      </trkpt>
      <trkpt lat="42.369498023763299" lon="3.159539038315415">
        <ele>-9.960000000000001</ele>
        <time>2025-05-15T14:41:43Z</time>
      </trkpt>
      <trkpt lat="42.369535993784666" lon="3.159629981964827">
        <ele>-10.44</ele>
        <time>2025-05-15T14:41:44Z</time>
      </trkpt>
      <trkpt lat="42.369575975462794" lon="3.15972201526165">
        <ele>-10.44</ele>
        <time>2025-05-15T14:41:45Z</time>
      </trkpt>
      <trkpt lat="42.369619980454445" lon="3.159814970567823">
        <ele>-10.44</ele>
        <time>2025-05-15T14:41:46Z</time>
      </trkpt>
      <trkpt lat="42.369663985446095" lon="3.159907003864646">
        <ele>-10.44</ele>
        <time>2025-05-15T14:41:47Z</time>
      </trkpt>
      <trkpt lat="42.369704972952604" lon="3.159994008019567">
        <ele>-10.44</ele>
        <time>2025-05-15T14:41:48Z</time>
      </trkpt>
      <trkpt lat="42.369907982647419" lon="3.160434979945421">
        <ele>-9.48</ele>
        <time>2025-05-15T14:41:54Z</time>
      </trkpt>
      <trkpt lat="42.370009990409017" lon="3.16053899936378">
        <ele>-9</ele>
        <time>2025-05-15T14:41:55Z</time>
      </trkpt>
      <trkpt lat="42.370031028985977" lon="3.160509997978807">
        <ele>-9</ele>
        <time>2025-05-15T14:41:56Z</time>
      </trkpt>
      <trkpt lat="42.370117027312517" lon="3.160386029630899">
        <ele>-8.029999999999999</ele>
        <time>2025-05-15T14:41:58Z</time>
      </trkpt>
      <trkpt lat="42.370226997882128" lon="3.160229958593845">
        <ele>-7.07</ele>
        <time>2025-05-15T14:42:00Z</time>
      </trkpt>
      <trkpt lat="42.370398994535208" lon="3.159985039383173">
        <ele>-6.11</ele>
        <time>2025-05-15T14:42:04Z</time>
      </trkpt>
      <trkpt lat="42.37042598426342" lon="3.159946985542774">
        <ele>-6.11</ele>
        <time>2025-05-15T14:42:05Z</time>
      </trkpt>
      <trkpt lat="42.370445011183619" lon="3.159919995814562">
        <ele>-5.63</ele>
        <time>2025-05-15T14:42:06Z</time>
      </trkpt>
      <trkpt lat="42.370459008961916" lon="3.159899963065982">
        <ele>-5.63</ele>
        <time>2025-05-15T14:42:07Z</time>
      </trkpt>
      <trkpt lat="42.370534026995301" lon="3.159792004153132">
        <ele>-4.67</ele>
        <time>2025-05-15T14:42:18Z</time>
      </trkpt>
      <trkpt lat="42.370762014761567" lon="3.159488998353481">
        <ele>-4.67</ele>
        <time>2025-05-15T14:42:24Z</time>
      </trkpt>
      <trkpt lat="42.370823035016656" lon="3.159407023340464">
        <ele>-4.67</ele>
        <time>2025-05-15T14:42:25Z</time>
      </trkpt>
      <trkpt lat="42.371148001402617" lon="3.1589509639889">
        <ele>-4.19</ele>
        <time>2025-05-15T14:42:31Z</time>
      </trkpt>
      <trkpt lat="42.371221007779241" lon="3.158848034217954">
        <ele>-4.19</ele>
        <time>2025-05-15T14:42:32Z</time>
      </trkpt>
      <trkpt lat="42.371321003884077" lon="3.158734040334821">
        <ele>-4.19</ele>
        <time>2025-05-15T14:42:34Z</time>
      </trkpt>
      <trkpt lat="42.371379006654024" lon="3.158666985109448">
        <ele>-4.19</ele>
        <time>2025-05-15T14:42:35Z</time>
      </trkpt>
      <trkpt lat="42.371436003595591" lon="3.158595990389586">
        <ele>-3.71</ele>
        <time>2025-05-15T14:42:36Z</time>
      </trkpt>
      <trkpt lat="42.371548991650343" lon="3.15845400094986">
        <ele>-3.71</ele>
        <time>2025-05-15T14:42:38Z</time>
      </trkpt>
      <trkpt lat="42.371603976935148" lon="3.158385017886758">
        <ele>-3.71</ele>
        <time>2025-05-15T14:42:39Z</time>
      </trkpt>
      <trkpt lat="42.372212000191212" lon="3.157640034332871">
        <ele>-5.15</ele>
        <time>2025-05-15T14:42:49Z</time>
      </trkpt>
      <trkpt lat="42.372280983254313" lon="3.157558981329203">
        <ele>-5.15</ele>
        <time>2025-05-15T14:42:50Z</time>
      </trkpt>
      <trkpt lat="42.372771995142102" lon="3.157132007181644">
        <ele>-5.63</ele>
        <time>2025-05-15T14:42:58Z</time>
      </trkpt>
      <trkpt lat="42.373590990900993" lon="3.156730011105537">
        <ele>-8.029999999999999</ele>
        <time>2025-05-15T14:43:09Z</time>
      </trkpt>
      <trkpt lat="42.3737339861691" lon="3.156669996678829">
        <ele>-8.51</ele>
        <time>2025-05-15T14:43:11Z</time>
      </trkpt>
      <trkpt lat="42.373959040269256" lon="3.156576035544276">
        <ele>-9</ele>
        <time>2025-05-15T14:43:14Z</time>
      </trkpt>
      <trkpt lat="42.374036991968751" lon="3.15654301084578">
        <ele>-8.51</ele>
        <time>2025-05-15T14:43:15Z</time>
      </trkpt>
      <trkpt lat="42.374258022755384" lon="3.156293984502554">
        <ele>-8.51</ele>
        <time>2025-05-15T14:43:21Z</time>
      </trkpt>
      <trkpt lat="42.374283000826836" lon="3.156257020309568">
        <ele>-8.51</ele>
        <time>2025-05-15T14:43:22Z</time>
      </trkpt>
      <trkpt lat="42.37433597445488" lon="3.156188037246466">
        <ele>-8.51</ele>
        <time>2025-05-15T14:43:23Z</time>
      </trkpt>
      <trkpt lat="42.374410992488265" lon="3.156200023368001">
        <ele>-8.51</ele>
        <time>2025-05-15T14:43:24Z</time>
      </trkpt>
      <trkpt lat="42.375142984092236" lon="3.156326003372669">
        <ele>-9</ele>
        <time>2025-05-15T14:43:30Z</time>
      </trkpt>
      <trkpt lat="42.376320976763964" lon="3.156470004469156">
        <ele>-8.51</ele>
        <time>2025-05-15T14:43:39Z</time>
      </trkpt>
      <trkpt lat="42.376662036404014" lon="3.156488025560975">
        <ele>-7.07</ele>
        <time>2025-05-15T14:43:42Z</time>
      </trkpt>
      <trkpt lat="42.376774018630385" lon="3.15645600669086">
        <ele>-6.59</ele>
        <time>2025-05-15T14:43:43Z</time>
      </trkpt>
      <trkpt lat="42.376893041655421" lon="3.156418036669493">
        <ele>-6.59</ele>
        <time>2025-05-15T14:43:44Z</time>
      </trkpt>
      <trkpt lat="42.377018015831709" lon="3.156377971172333">
        <ele>-6.11</ele>
        <time>2025-05-15T14:43:45Z</time>
      </trkpt>
      <trkpt lat="42.377141984179616" lon="3.156312005594373">
        <ele>-5.63</ele>
        <time>2025-05-15T14:43:46Z</time>
      </trkpt>
      <trkpt lat="42.377256983891129" lon="3.156223995611072">
        <ele>-5.63</ele>
        <time>2025-05-15T14:43:47Z</time>
      </trkpt>
      <trkpt lat="42.377917980775237" lon="3.155633993446827">
        <ele>-3.23</ele>
        <time>2025-05-15T14:43:53Z</time>
      </trkpt>
      <trkpt lat="42.37802904099226" lon="3.155504995957017">
        <ele>-2.75</ele>
        <time>2025-05-15T14:43:54Z</time>
      </trkpt>
      <trkpt lat="42.378133982419968" lon="3.155352026224136">
        <ele>-2.27</ele>
        <time>2025-05-15T14:43:55Z</time>
      </trkpt>
      <trkpt lat="42.37837303429842" lon="3.154918011277914">
        <ele>-1.3</ele>
        <time>2025-05-15T14:43:58Z</time>
      </trkpt>
      <trkpt lat="42.378446040675044" lon="3.154803011566401">
        <ele>-1.3</ele>
        <time>2025-05-15T14:43:59Z</time>
      </trkpt>
      <trkpt lat="42.378548970445991" lon="3.154725981876254">
        <ele>-1.79</ele>
        <time>2025-05-15T14:44:00Z</time>
      </trkpt>
      <trkpt lat="42.378672016784549" lon="3.154692035168409">
        <ele>-1.79</ele>
        <time>2025-05-15T14:44:01Z</time>
      </trkpt>
      <trkpt lat="42.378806965425611" lon="3.154667979106307">
        <ele>-2.27</ele>
        <time>2025-05-15T14:44:02Z</time>
      </trkpt>
      <trkpt lat="42.378937974572182" lon="3.154682982712984">
        <ele>-2.27</ele>
        <time>2025-05-15T14:44:03Z</time>
      </trkpt>
      <trkpt lat="42.379193035885692" lon="3.154720030725002">
        <ele>-3.23</ele>
        <time>2025-05-15T14:44:05Z</time>
      </trkpt>
      <trkpt lat="42.380125019699335" lon="3.154780967161059">
        <ele>-5.15</ele>
        <time>2025-05-15T14:44:12Z</time>
      </trkpt>
      <trkpt lat="42.380255023017526" lon="3.154762024059892">
        <ele>-5.63</ele>
        <time>2025-05-15T14:44:13Z</time>
      </trkpt>
      <trkpt lat="42.380387037992477" lon="3.154726987704635">
        <ele>-5.63</ele>
        <time>2025-05-15T14:44:14Z</time>
      </trkpt>
      <trkpt lat="42.381112994626164" lon="3.154428005218506">
        <ele>-7.55</ele>
        <time>2025-05-15T14:44:20Z</time>
      </trkpt>
      <trkpt lat="42.381234029307961" lon="3.154428005218506">
        <ele>-8.029999999999999</ele>
        <time>2025-05-15T14:44:21Z</time>
      </trkpt>
      <trkpt lat="42.381362020969391" lon="3.154434962198138">
        <ele>-8.51</ele>
        <time>2025-05-15T14:44:22Z</time>
      </trkpt>
      <trkpt lat="42.381493030115962" lon="3.154478967189789">
        <ele>-9</ele>
        <time>2025-05-15T14:44:23Z</time>
      </trkpt>
      <trkpt lat="42.381610041484237" lon="3.154588015750051">
        <ele>-9</ele>
        <time>2025-05-15T14:44:24Z</time>
      </trkpt>
      <trkpt lat="42.381709031760693" lon="3.154693963006139">
        <ele>-9</ele>
        <time>2025-05-15T14:44:25Z</time>
      </trkpt>
      <trkpt lat="42.381828976795077" lon="3.154843999072909">
        <ele>-9</ele>
        <time>2025-05-15T14:44:26Z</time>
      </trkpt>
      <trkpt lat="42.381879016757011" lon="3.155015995725989">
        <ele>-9</ele>
        <time>2025-05-15T14:44:27Z</time>
      </trkpt>
      <trkpt lat="42.381929978728294" lon="3.155194027349353">
        <ele>-9</ele>
        <time>2025-05-15T14:44:28Z</time>
      </trkpt>
      <trkpt lat="42.381944982334971" lon="3.155435007065535">
        <ele>-9</ele>
        <time>2025-05-15T14:44:29Z</time>
      </trkpt>
      <trkpt lat="42.381922015920281" lon="3.155630975961685">
        <ele>-8.51</ele>
        <time>2025-05-15T14:44:30Z</time>
      </trkpt>
      <trkpt lat="42.38189703784883" lon="3.155826022848487">
        <ele>-8.51</ele>
        <time>2025-05-15T14:44:31Z</time>
      </trkpt>
      <trkpt lat="42.381871975958347" lon="3.156004976481199">
        <ele>-7.55</ele>
        <time>2025-05-15T14:44:32Z</time>
      </trkpt>
      <trkpt lat="42.381800981238484" lon="3.156681982800365">
        <ele>-5.15</ele>
        <time>2025-05-15T14:44:36Z</time>
      </trkpt>
      <trkpt lat="42.381815984845161" lon="3.156803017482162">
        <ele>-4.67</ele>
        <time>2025-05-15T14:44:37Z</time>
      </trkpt>
      <trkpt lat="42.381836017593741" lon="3.156922040507197">
        <ele>-3.71</ele>
        <time>2025-05-15T14:44:38Z</time>
      </trkpt>
      <trkpt lat="42.381871975958347" lon="3.156989011913538">
        <ele>-2.75</ele>
        <time>2025-05-15T14:44:39Z</time>
      </trkpt>
      <trkpt lat="42.381952023133636" lon="3.157068975269795">
        <ele>-2.27</ele>
        <time>2025-05-15T14:44:40Z</time>
      </trkpt>
      <trkpt lat="42.382032992318273" lon="3.157139969989657">
        <ele>-1.3</ele>
        <time>2025-05-15T14:44:41Z</time>
      </trkpt>
      <trkpt lat="42.382132988423109" lon="3.15718699246645">
        <ele>-0.82</ele>
        <time>2025-05-15T14:44:42Z</time>
      </trkpt>
      <trkpt lat="42.382229967042804" lon="3.157233009114862">
        <ele>0.14</ele>
        <time>2025-05-15T14:44:43Z</time>
      </trkpt>
      <trkpt lat="42.382522998377681" lon="3.157322024926543">
        <ele>2.54</ele>
        <time>2025-05-15T14:44:46Z</time>
      </trkpt>
      <trkpt lat="42.382622994482517" lon="3.15733602270484">
        <ele>3.02</ele>
        <time>2025-05-15T14:44:47Z</time>
      </trkpt>
      <trkpt lat="42.3828000202775" lon="3.157345997169614">
        <ele>3.98</ele>
        <time>2025-05-15T14:44:49Z</time>
      </trkpt>
      <trkpt lat="42.382879983633757" lon="3.157350020483136">
        <ele>3.98</ele>
        <time>2025-05-15T14:44:50Z</time>
      </trkpt>
      <trkpt lat="42.382958019152284" lon="3.157388996332884">
        <ele>3.98</ele>
        <time>2025-05-15T14:44:51Z</time>
      </trkpt>
      <trkpt lat="42.383113000541925" lon="3.1575090251863">
        <ele>3.98</ele>
        <time>2025-05-15T14:44:53Z</time>
      </trkpt>
      <trkpt lat="42.383178966119885" lon="3.157559987157583">
        <ele>3.98</ele>
        <time>2025-05-15T14:44:54Z</time>
      </trkpt>
      <trkpt lat="42.383259013295174" lon="3.157554036006331">
        <ele>3.98</ele>
        <time>2025-05-15T14:44:55Z</time>
      </trkpt>
      <trkpt lat="42.383342999964952" lon="3.157546995207667">
        <ele>3.98</ele>
        <time>2025-05-15T14:44:56Z</time>
      </trkpt>
      <trkpt lat="42.383433021605015" lon="3.157538026571274">
        <ele>3.98</ele>
        <time>2025-05-15T14:44:57Z</time>
      </trkpt>
      <trkpt lat="42.383516002446413" lon="3.157468037679792">
        <ele>3.98</ele>
        <time>2025-05-15T14:44:58Z</time>
      </trkpt>
      <trkpt lat="42.383600994944572" lon="3.157396959140897">
        <ele>3.5</ele>
        <time>2025-05-15T14:44:59Z</time>
      </trkpt>
      <trkpt lat="42.383922021836042" lon="3.157129995524883">
        <ele>3.5</ele>
        <time>2025-05-15T14:45:03Z</time>
      </trkpt>
      <trkpt lat="42.383988993242383" lon="3.15701499581337">
        <ele>3.5</ele>
        <time>2025-05-15T14:45:04Z</time>
      </trkpt>
      <trkpt lat="42.384044984355569" lon="3.156892033293843">
        <ele>3.5</ele>
        <time>2025-05-15T14:45:05Z</time>
      </trkpt>
      <trkpt lat="42.384121008217335" lon="3.156617023050785">
        <ele>3.02</ele>
        <time>2025-05-15T14:45:07Z</time>
      </trkpt>
      <trkpt lat="42.384186973795295" lon="3.156373025849462">
        <ele>2.54</ele>
        <time>2025-05-15T14:45:09Z</time>
      </trkpt>
      <trkpt lat="42.384237013757229" lon="3.156283004209399">
        <ele>2.06</ele>
        <time>2025-05-15T14:45:10Z</time>
      </trkpt>
      <trkpt lat="42.384300967678428" lon="3.156217960640788">
        <ele>2.06</ele>
        <time>2025-05-15T14:45:11Z</time>
      </trkpt>
      <trkpt lat="42.384370034560561" lon="3.156171021983028">
        <ele>2.06</ele>
        <time>2025-05-15T14:45:12Z</time>
      </trkpt>
      <trkpt lat="42.384446980431676" lon="3.156137997284532">
        <ele>1.58</ele>
        <time>2025-05-15T14:45:13Z</time>
      </trkpt>
      <trkpt lat="42.384542031213641" lon="3.156148977577686">
        <ele>1.58</ele>
        <time>2025-05-15T14:45:14Z</time>
      </trkpt>
      <trkpt lat="42.384640015661716" lon="3.15619801171124">
        <ele>1.1</ele>
        <time>2025-05-15T14:45:15Z</time>
      </trkpt>
      <trkpt lat="42.384708998724818" lon="3.156286021694541">
        <ele>0.62</ele>
        <time>2025-05-15T14:45:16Z</time>
      </trkpt>
      <trkpt lat="42.384785022586584" lon="3.156389035284519">
        <ele>0.62</ele>
        <time>2025-05-15T14:45:17Z</time>
      </trkpt>
      <trkpt lat="42.384819975122809" lon="3.156511997804046">
        <ele>0.14</ele>
        <time>2025-05-15T14:45:18Z</time>
      </trkpt>
      <trkpt lat="42.384837996214628" lon="3.156654993072152">
        <ele>0.62</ele>
        <time>2025-05-15T14:45:19Z</time>
      </trkpt>
      <trkpt lat="42.384851993992925" lon="3.156787008047104">
        <ele>1.1</ele>
        <time>2025-05-15T14:45:20Z</time>
      </trkpt>
      <trkpt lat="42.384949978441" lon="3.157280031591654">
        <ele>2.54</ele>
        <time>2025-05-15T14:45:24Z</time>
      </trkpt>
      <trkpt lat="42.385001024231315" lon="3.15740299411118">
        <ele>3.02</ele>
        <time>2025-05-15T14:45:25Z</time>
      </trkpt>
      <trkpt lat="42.385167991742492" lon="3.157772971317172">
        <ele>3.98</ele>
        <time>2025-05-15T14:45:28Z</time>
      </trkpt>
      <trkpt lat="42.385209985077381" lon="3.157919989898801">
        <ele>4.46</ele>
        <time>2025-05-15T14:45:29Z</time>
      </trkpt>
      <trkpt lat="42.385236974805593" lon="3.158054016530514">
        <ele>4.46</ele>
        <time>2025-05-15T14:45:30Z</time>
      </trkpt>
      <trkpt lat="42.385266982018948" lon="3.158173961564899">
        <ele>4.94</ele>
        <time>2025-05-15T14:45:31Z</time>
      </trkpt>
      <trkpt lat="42.385309981182218" lon="3.158294996246696">
        <ele>4.94</ele>
        <time>2025-05-15T14:45:32Z</time>
      </trkpt>
      <trkpt lat="42.385352980345488" lon="3.158415025100112">
        <ele>4.94</ele>
        <time>2025-05-15T14:45:33Z</time>
      </trkpt>
      <trkpt lat="42.385425986722112" lon="3.15849700011313">
        <ele>5.42</ele>
        <time>2025-05-15T14:45:34Z</time>
      </trkpt>
      <trkpt lat="42.385511985048652" lon="3.158572018146515">
        <ele>5.42</ele>
        <time>2025-05-15T14:45:35Z</time>
      </trkpt>
      <trkpt lat="42.385617010295391" lon="3.158577969297767">
        <ele>5.42</ele>
        <time>2025-05-15T14:45:36Z</time>
      </trkpt>
      <trkpt lat="42.385725975036621" lon="3.158561959862709">
        <ele>5.42</ele>
        <time>2025-05-15T14:45:37Z</time>
      </trkpt>
      <trkpt lat="42.385838041082025" lon="3.158545028418303">
        <ele>5.42</ele>
        <time>2025-05-15T14:45:38Z</time>
      </trkpt>
      <trkpt lat="42.385950023308396" lon="3.158528013154864">
        <ele>5.42</ele>
        <time>2025-05-15T14:45:39Z</time>
      </trkpt>
      <trkpt lat="42.386747980490327" lon="3.158340007066727">
        <ele>9.27</ele>
        <time>2025-05-15T14:45:46Z</time>
      </trkpt>
      <trkpt lat="42.386847976595163" lon="3.158284015953541">
        <ele>10.23</ele>
        <time>2025-05-15T14:45:47Z</time>
      </trkpt>
      <trkpt lat="42.386940009891987" lon="3.15821997821331">
        <ele>10.710000000000001</ele>
        <time>2025-05-15T14:45:48Z</time>
      </trkpt>
      <trkpt lat="42.387030031532049" lon="3.15817303955555">
        <ele>11.67</ele>
        <time>2025-05-15T14:45:49Z</time>
      </trkpt>
      <trkpt lat="42.387126004323363" lon="3.158146971836686">
        <ele>12.630000000000001</ele>
        <time>2025-05-15T14:45:50Z</time>
      </trkpt>
      <trkpt lat="42.387231029570103" lon="3.158119982108474">
        <ele>13.6</ele>
        <time>2025-05-15T14:45:51Z</time>
      </trkpt>
      <trkpt lat="42.387328008189797" lon="3.158162981271744">
        <ele>14.08</ele>
        <time>2025-05-15T14:45:52Z</time>
      </trkpt>
      <trkpt lat="42.387423980981112" lon="3.158204974606633">
        <ele>15.039999999999999</ele>
        <time>2025-05-15T14:45:53Z</time>
      </trkpt>
      <trkpt lat="42.387626990675926" lon="3.158284015953541">
        <ele>16.960000000000001</ele>
        <time>2025-05-15T14:45:55Z</time>
      </trkpt>
      <trkpt lat="42.387739978730679" lon="3.158302959054709">
        <ele>17.440000000000001</ele>
        <time>2025-05-15T14:45:56Z</time>
      </trkpt>
      <trkpt lat="42.387854978442192" lon="3.158277980983257">
        <ele>17.920000000000002</ele>
        <time>2025-05-15T14:45:57Z</time>
      </trkpt>
      <trkpt lat="42.388417990878224" lon="3.15815300680697">
        <ele>20.809999999999999</ele>
        <time>2025-05-15T14:46:02Z</time>
      </trkpt>
      <trkpt lat="42.388527961447835" lon="3.158103972673416">
        <ele>21.289999999999999</ele>
        <time>2025-05-15T14:46:03Z</time>
      </trkpt>
      <trkpt lat="42.388636004179716" lon="3.158019986003637">
        <ele>21.289999999999999</ele>
        <time>2025-05-15T14:46:04Z</time>
      </trkpt>
      <trkpt lat="42.388733988627791" lon="3.157900962978602">
        <ele>21.77</ele>
        <time>2025-05-15T14:46:05Z</time>
      </trkpt>
      <trkpt lat="42.388833984732628" lon="3.157770959660411">
        <ele>21.77</ele>
        <time>2025-05-15T14:46:06Z</time>
      </trkpt>
      <trkpt lat="42.388933980837464" lon="3.157632993534207">
        <ele>22.25</ele>
        <time>2025-05-15T14:46:07Z</time>
      </trkpt>
      <trkpt lat="42.389275040477514" lon="3.157075010240078">
        <ele>23.210000000000001</ele>
        <time>2025-05-15T14:46:11Z</time>
      </trkpt>
      <trkpt lat="42.389319967478514" lon="3.15690896473825">
        <ele>23.690000000000001</ele>
        <time>2025-05-15T14:46:12Z</time>
      </trkpt>
      <trkpt lat="42.389360032975674" lon="3.156739985570312">
        <ele>24.170000000000002</ele>
        <time>2025-05-15T14:46:13Z</time>
      </trkpt>
      <trkpt lat="42.389435973018408" lon="3.156412001699209">
        <ele>25.129999999999999</ele>
        <time>2025-05-15T14:46:15Z</time>
      </trkpt>
      <trkpt lat="42.389491964131594" lon="3.156258026137948">
        <ele>25.609999999999999</ele>
        <time>2025-05-15T14:46:16Z</time>
      </trkpt>
      <trkpt lat="42.389608975499868" lon="3.15594102256">
        <ele>26.09</ele>
        <time>2025-05-15T14:46:18Z</time>
      </trkpt>
      <trkpt lat="42.3896539863199" lon="3.155787969008088">
        <ele>26.09</ele>
        <time>2025-05-15T14:46:19Z</time>
      </trkpt>
      <trkpt lat="42.389658009633422" lon="3.155632987618446">
        <ele>26.57</ele>
        <time>2025-05-15T14:46:20Z</time>
      </trkpt>
      <trkpt lat="42.389662032946944" lon="3.155485969036818">
        <ele>26.57</ele>
        <time>2025-05-15T14:46:21Z</time>
      </trkpt>
      <trkpt lat="42.389665972441435" lon="3.155351020395756">
        <ele>27.050000000000001</ele>
        <time>2025-05-15T14:46:22Z</time>
      </trkpt>
      <trkpt lat="42.389668989926577" lon="3.155222022905946">
        <ele>27.050000000000001</ele>
        <time>2025-05-15T14:46:23Z</time>
      </trkpt>
      <trkpt lat="42.389673013240099" lon="3.155092019587755">
        <ele>27.530000000000001</ele>
        <time>2025-05-15T14:46:24Z</time>
      </trkpt>
      <trkpt lat="42.389711989089847" lon="3.154958998784423">
        <ele>27.530000000000001</ele>
        <time>2025-05-15T14:46:25Z</time>
      </trkpt>
      <trkpt lat="42.389777032658458" lon="3.154836958274245">
        <ele>28.02</ele>
        <time>2025-05-15T14:46:26Z</time>
      </trkpt>
      <trkpt lat="42.38984601572156" lon="3.154707960784435">
        <ele>28.5</ele>
        <time>2025-05-15T14:46:27Z</time>
      </trkpt>
      <trkpt lat="42.389918016269803" lon="3.154573012143374">
        <ele>28.5</ele>
        <time>2025-05-15T14:46:28Z</time>
      </trkpt>
      <trkpt lat="42.389992028474808" lon="3.154434040188789">
        <ele>28.5</ele>
        <time>2025-05-15T14:46:29Z</time>
      </trkpt>
      <trkpt lat="42.390183974057436" lon="3.154201023280621">
        <ele>28.98</ele>
        <time>2025-05-15T14:46:31Z</time>
      </trkpt>
      <trkpt lat="42.390463007614017" lon="3.153846971690655">
        <ele>29.460000000000001</ele>
        <time>2025-05-15T14:46:34Z</time>
      </trkpt>
      <trkpt lat="42.390532996505499" lon="3.153719985857606">
        <ele>29.460000000000001</ele>
        <time>2025-05-15T14:46:35Z</time>
      </trkpt>
      <trkpt lat="42.39055504091084" lon="3.153553018346429">
        <ele>29.460000000000001</ele>
        <time>2025-05-15T14:46:36Z</time>
      </trkpt>
      <trkpt lat="42.390575995668769" lon="3.153398036956787">
        <ele>28.98</ele>
        <time>2025-05-15T14:46:37Z</time>
      </trkpt>
      <trkpt lat="42.390555962920189" lon="3.153214976191521">
        <ele>28.02</ele>
        <time>2025-05-15T14:46:38Z</time>
      </trkpt>
      <trkpt lat="42.390538025647402" lon="3.153047002851963">
        <ele>27.050000000000001</ele>
        <time>2025-05-15T14:46:39Z</time>
      </trkpt>
      <trkpt lat="42.390526039525867" lon="3.152721030637622">
        <ele>25.609999999999999</ele>
        <time>2025-05-15T14:46:41Z</time>
      </trkpt>
      <trkpt lat="42.390554035082459" lon="3.152569988742471">
        <ele>24.170000000000002</ele>
        <time>2025-05-15T14:46:42Z</time>
      </trkpt>
      <trkpt lat="42.390602985396981" lon="3.152406960725784">
        <ele>23.210000000000001</ele>
        <time>2025-05-15T14:46:43Z</time>
      </trkpt>
      <trkpt lat="42.390680015087128" lon="3.152276035398245">
        <ele>22.25</ele>
        <time>2025-05-15T14:46:44Z</time>
      </trkpt>
      <trkpt lat="42.390768025070429" lon="3.152155000716448">
        <ele>21.289999999999999</ele>
        <time>2025-05-15T14:46:45Z</time>
      </trkpt>
      <trkpt lat="42.390867015346885" lon="3.152055004611611">
        <ele>20.809999999999999</ele>
        <time>2025-05-15T14:46:46Z</time>
      </trkpt>
      <trkpt lat="42.390975980088115" lon="3.151989961043">
        <ele>19.84</ele>
        <time>2025-05-15T14:46:47Z</time>
      </trkpt>
      <trkpt lat="42.391092991456389" lon="3.151938999071717">
        <ele>18.879999999999999</ele>
        <time>2025-05-15T14:46:48Z</time>
      </trkpt>
      <trkpt lat="42.391239004209638" lon="3.151928018778563">
        <ele>17.920000000000002</ele>
        <time>2025-05-15T14:46:49Z</time>
      </trkpt>
      <trkpt lat="42.391389962285757" lon="3.151919972151518">
        <ele>17.440000000000001</ele>
        <time>2025-05-15T14:46:50Z</time>
      </trkpt>
      <trkpt lat="42.391530023887753" lon="3.151938999071717">
        <ele>16.48</ele>
        <time>2025-05-15T14:46:51Z</time>
      </trkpt>
      <trkpt lat="42.392853023484349" lon="3.152100015431643">
        <ele>10.23</ele>
        <time>2025-05-15T14:47:01Z</time>
      </trkpt>
      <trkpt lat="42.392996018752456" lon="3.152058022096753">
        <ele>9.27</ele>
        <time>2025-05-15T14:47:02Z</time>
      </trkpt>
      <trkpt lat="42.393142031505704" lon="3.152016028761864">
        <ele>7.83</ele>
        <time>2025-05-15T14:47:03Z</time>
      </trkpt>
      <trkpt lat="42.394298985600471" lon="3.151778988540173">
        <ele>-0.34</ele>
        <time>2025-05-15T14:47:11Z</time>
      </trkpt>
      <trkpt lat="42.395171038806438" lon="3.151796003803611">
        <ele>-2.27</ele>
        <time>2025-05-15T14:47:18Z</time>
      </trkpt>
      <trkpt lat="42.395275980234146" lon="3.151812013238668">
        <ele>-2.75</ele>
        <time>2025-05-15T14:47:19Z</time>
      </trkpt>
      <trkpt lat="42.395339012145996" lon="3.151894994080067">
        <ele>-2.75</ele>
        <time>2025-05-15T14:47:20Z</time>
      </trkpt>
      <trkpt lat="42.395401960238814" lon="3.151978980749846">
        <ele>-2.75</ele>
        <time>2025-05-15T14:47:21Z</time>
      </trkpt>
      <trkpt lat="42.395473038777709" lon="3.152121976017952">
        <ele>-3.23</ele>
        <time>2025-05-15T14:47:22Z</time>
      </trkpt>
      <trkpt lat="42.395484019070864" lon="3.152256002649665">
        <ele>-3.71</ele>
        <time>2025-05-15T14:47:23Z</time>
      </trkpt>
      <trkpt lat="42.395468009635806" lon="3.152430010959506">
        <ele>-3.71</ele>
        <time>2025-05-15T14:47:24Z</time>
      </trkpt>
      <trkpt lat="42.395439008250833" lon="3.152572000399232">
        <ele>-3.23</ele>
        <time>2025-05-15T14:47:25Z</time>
      </trkpt>
      <trkpt lat="42.395274974405766" lon="3.153508007526398">
        <ele>1.1</ele>
        <time>2025-05-15T14:47:32Z</time>
      </trkpt>
      <trkpt lat="42.395274974405766" lon="3.153613032773137">
        <ele>2.06</ele>
        <time>2025-05-15T14:47:33Z</time>
      </trkpt>
      <trkpt lat="42.395330965518951" lon="3.15370598807931">
        <ele>3.02</ele>
        <time>2025-05-15T14:47:34Z</time>
      </trkpt>
      <trkpt lat="42.395385028794408" lon="3.153795003890991">
        <ele>3.98</ele>
        <time>2025-05-15T14:47:35Z</time>
      </trkpt>
      <trkpt lat="42.395448982715607" lon="3.153840014711022">
        <ele>4.94</ele>
        <time>2025-05-15T14:47:36Z</time>
      </trkpt>
      <trkpt lat="42.395533975213766" lon="3.153863986954093">
        <ele>5.91</ele>
        <time>2025-05-15T14:47:37Z</time>
      </trkpt>
      <trkpt lat="42.395614022389054" lon="3.153850995004177">
        <ele>7.35</ele>
        <time>2025-05-15T14:47:38Z</time>
      </trkpt>
      <trkpt lat="42.395705971866846" lon="3.153822999447584">
        <ele>8.310000000000001</ele>
        <time>2025-05-15T14:47:39Z</time>
      </trkpt>
      <trkpt lat="42.39579901099205" lon="3.153793998062611">
        <ele>9.27</ele>
        <time>2025-05-15T14:47:40Z</time>
      </trkpt>
      <trkpt lat="42.395890960469842" lon="3.153764996677637">
        <ele>9.75</ele>
        <time>2025-05-15T14:47:41Z</time>
      </trkpt>
      <trkpt lat="42.395979976281524" lon="3.153786035254598">
        <ele>10.710000000000001</ele>
        <time>2025-05-15T14:47:42Z</time>
      </trkpt>
      <trkpt lat="42.396048037335277" lon="3.153805984184146">
        <ele>11.19</ele>
        <time>2025-05-15T14:47:43Z</time>
      </trkpt>
      <trkpt lat="42.396106040105224" lon="3.153873961418867">
        <ele>11.67</ele>
        <time>2025-05-15T14:47:44Z</time>
      </trkpt>
      <trkpt lat="42.396153984591365" lon="3.153930036351085">
        <ele>13.119999999999999</ele>
        <time>2025-05-15T14:47:45Z</time>
      </trkpt>
      <trkpt lat="42.396193966269493" lon="3.154020980000496">
        <ele>14.08</ele>
        <time>2025-05-15T14:47:46Z</time>
      </trkpt>
      <trkpt lat="42.396225985139608" lon="3.15413698554039">
        <ele>15.039999999999999</ele>
        <time>2025-05-15T14:47:47Z</time>
      </trkpt>
      <trkpt lat="42.396240988746285" lon="3.154272018000484">
        <ele>16.48</ele>
        <time>2025-05-15T14:47:48Z</time>
      </trkpt>
      <trkpt lat="42.396240988746285" lon="3.154397998005152">
        <ele>17.920000000000002</ele>
        <time>2025-05-15T14:47:49Z</time>
      </trkpt>
      <trkpt lat="42.396283987909555" lon="3.154510986059904">
        <ele>18.399999999999999</ele>
        <time>2025-05-15T14:47:50Z</time>
      </trkpt>
      <trkpt lat="42.396325981244445" lon="3.154610982164741">
        <ele>19.359999999999999</ele>
        <time>2025-05-15T14:47:51Z</time>
      </trkpt>
      <trkpt lat="42.39638096652925" lon="3.154690023511648">
        <ele>19.84</ele>
        <time>2025-05-15T14:47:52Z</time>
      </trkpt>
      <trkpt lat="42.396455984562635" lon="3.154748026281595">
        <ele>20.32</ele>
        <time>2025-05-15T14:47:53Z</time>
      </trkpt>
      <trkpt lat="42.396545000374317" lon="3.154813991859555">
        <ele>20.809999999999999</ele>
        <time>2025-05-15T14:47:54Z</time>
      </trkpt>
      <trkpt lat="42.396640973165631" lon="3.154813991859555">
        <ele>21.289999999999999</ele>
        <time>2025-05-15T14:47:55Z</time>
      </trkpt>
      <trkpt lat="42.396741975098848" lon="3.154813991859555">
        <ele>22.25</ele>
        <time>2025-05-15T14:47:56Z</time>
      </trkpt>
      <trkpt lat="42.396849012002349" lon="3.154785996302962">
        <ele>22.73</ele>
        <time>2025-05-15T14:47:57Z</time>
      </trkpt>
      <trkpt lat="42.396958982571959" lon="3.154742997139692">
        <ele>23.690000000000001</ele>
        <time>2025-05-15T14:47:58Z</time>
      </trkpt>
      <trkpt lat="42.397067025303841" lon="3.154699997976422">
        <ele>24.649999999999999</ele>
        <time>2025-05-15T14:47:59Z</time>
      </trkpt>
      <trkpt lat="42.397552002221346" lon="3.154507968574762">
        <ele>28.5</ele>
        <time>2025-05-15T14:48:04Z</time>
      </trkpt>
      <trkpt lat="42.397638000547886" lon="3.15445801243186">
        <ele>28.98</ele>
        <time>2025-05-15T14:48:05Z</time>
      </trkpt>
      <trkpt lat="42.397707989439368" lon="3.154374025762081">
        <ele>29.460000000000001</ele>
        <time>2025-05-15T14:48:06Z</time>
      </trkpt>
      <trkpt lat="42.397760963067412" lon="3.154278974980116">
        <ele>30.420000000000002</ele>
        <time>2025-05-15T14:48:07Z</time>
      </trkpt>
      <trkpt lat="42.397778984159231" lon="3.154160035774112">
        <ele>30.899999999999999</ele>
        <time>2025-05-15T14:48:08Z</time>
      </trkpt>
      <trkpt lat="42.397769009694457" lon="3.15405098721385">
        <ele>31.379999999999999</ele>
        <time>2025-05-15T14:48:09Z</time>
      </trkpt>
      <trkpt lat="42.397748976945877" lon="3.15396498888731">
        <ele>31.859999999999999</ele>
        <time>2025-05-15T14:48:10Z</time>
      </trkpt>
      <trkpt lat="42.397706983610988" lon="3.153869016095996">
        <ele>32.82</ele>
        <time>2025-05-15T14:48:11Z</time>
      </trkpt>
      <trkpt lat="42.397665996104479" lon="3.153800033032894">
        <ele>33.299999999999997</ele>
        <time>2025-05-15T14:48:12Z</time>
      </trkpt>
      <trkpt lat="42.397575974464417" lon="3.153759967535734">
        <ele>34.259999999999998</ele>
        <time>2025-05-15T14:48:13Z</time>
      </trkpt>
      <trkpt lat="42.397485030815005" lon="3.153719985857606">
        <ele>35.229999999999997</ele>
        <time>2025-05-15T14:48:14Z</time>
      </trkpt>
      <trkpt lat="42.397383023053408" lon="3.153728032484651">
        <ele>36.189999999999998</ele>
        <time>2025-05-15T14:48:15Z</time>
      </trkpt>
      <trkpt lat="42.397276991978288" lon="3.153735995292664">
        <ele>36.670000000000002</ele>
        <time>2025-05-15T14:48:16Z</time>
      </trkpt>
      <trkpt lat="42.397205997258425" lon="3.153741024434567">
        <ele>37.149999999999999</ele>
        <time>2025-05-15T14:48:17Z</time>
      </trkpt>
      <trkpt lat="42.39708898589015" lon="3.153653014451265">
        <ele>37.630000000000003</ele>
        <time>2025-05-15T14:48:18Z</time>
      </trkpt>
      <trkpt lat="42.397016985341907" lon="3.153583025559783">
        <ele>38.590000000000003</ele>
        <time>2025-05-15T14:48:19Z</time>
      </trkpt>
      <trkpt lat="42.396969962865114" lon="3.153504990041256">
        <ele>39.07</ele>
        <time>2025-05-15T14:48:20Z</time>
      </trkpt>
      <trkpt lat="42.396949008107185" lon="3.153368029743433">
        <ele>39.549999999999997</ele>
        <time>2025-05-15T14:48:21Z</time>
      </trkpt>
      <trkpt lat="42.396930987015367" lon="3.15325303003192">
        <ele>40.030000000000001</ele>
        <time>2025-05-15T14:48:22Z</time>
      </trkpt>
      <trkpt lat="42.396952025592327" lon="3.153139036148787">
        <ele>40.509999999999998</ele>
        <time>2025-05-15T14:48:23Z</time>
      </trkpt>
      <trkpt lat="42.396997958421707" lon="3.153033005073667">
        <ele>40.990000000000002</ele>
        <time>2025-05-15T14:48:24Z</time>
      </trkpt>
      <trkpt lat="42.397060990333557" lon="3.152934014797211">
        <ele>41.950000000000003</ele>
        <time>2025-05-15T14:48:25Z</time>
      </trkpt>
      <trkpt lat="42.397139025852084" lon="3.15282697789371">
        <ele>42.439999999999998</ele>
        <time>2025-05-15T14:48:26Z</time>
      </trkpt>
      <trkpt lat="42.397247990593314" lon="3.152745002880693">
        <ele>42.920000000000002</ele>
        <time>2025-05-15T14:48:27Z</time>
      </trkpt>
      <trkpt lat="42.397380005568266" lon="3.152656992897391">
        <ele>43.880000000000003</ele>
        <time>2025-05-15T14:48:28Z</time>
      </trkpt>
      <trkpt lat="42.397848973050714" lon="3.152434034273028">
        <ele>46.759999999999998</ele>
        <time>2025-05-15T14:48:31Z</time>
      </trkpt>
      <trkpt lat="42.398219034075737" lon="3.152282992377877">
        <ele>49.159999999999997</ele>
        <time>2025-05-15T14:48:33Z</time>
      </trkpt>
      <trkpt lat="42.398388013243675" lon="3.152177967131138">
        <ele>50.609999999999999</ele>
        <time>2025-05-15T14:48:34Z</time>
      </trkpt>
      <trkpt lat="42.398536037653685" lon="3.152040001004934">
        <ele>52.049999999999997</ele>
        <time>2025-05-15T14:48:35Z</time>
      </trkpt>
      <trkpt lat="42.398665035143495" lon="3.151870016008616">
        <ele>53.009999999999998</ele>
        <time>2025-05-15T14:48:36Z</time>
      </trkpt>
      <trkpt lat="42.398765031248331" lon="3.151656026020646">
        <ele>54.450000000000003</ele>
        <time>2025-05-15T14:48:37Z</time>
      </trkpt>
      <trkpt lat="42.398810964077711" lon="3.15138797275722">
        <ele>55.890000000000001</ele>
        <time>2025-05-15T14:48:38Z</time>
      </trkpt>
      <trkpt lat="42.398852035403252" lon="3.15112603828311">
        <ele>57.340000000000003</ele>
        <time>2025-05-15T14:48:39Z</time>
      </trkpt>
      <trkpt lat="42.398891011252999" lon="3.150868965312839">
        <ele>58.780000000000001</ele>
        <time>2025-05-15T14:48:40Z</time>
      </trkpt>
      <trkpt lat="42.398987989872694" lon="3.150344006717205">
        <ele>61.18</ele>
        <time>2025-05-15T14:48:42Z</time>
      </trkpt>
      <trkpt lat="42.399080023169518" lon="3.150105038657785">
        <ele>61.659999999999997</ele>
        <time>2025-05-15T14:48:43Z</time>
      </trkpt>
      <trkpt lat="42.399169960990548" lon="3.149864980950952">
        <ele>62.619999999999997</ele>
        <time>2025-05-15T14:48:44Z</time>
      </trkpt>
      <trkpt lat="42.399268029257655" lon="3.149626012891531">
        <ele>62.619999999999997</ele>
        <time>2025-05-15T14:48:45Z</time>
      </trkpt>
      <trkpt lat="42.39938898012042" lon="3.149429038167">
        <ele>62.140000000000001</ele>
        <time>2025-05-15T14:48:46Z</time>
      </trkpt>
      <trkpt lat="42.399528035894036" lon="3.149255029857159">
        <ele>62.140000000000001</ele>
        <time>2025-05-15T14:48:47Z</time>
      </trkpt>
      <trkpt lat="42.399663990363479" lon="3.149094013497233">
        <ele>61.18</ele>
        <time>2025-05-15T14:48:48Z</time>
      </trkpt>
      <trkpt lat="42.399812014773488" lon="3.148944983258843">
        <ele>60.700000000000003</ele>
        <time>2025-05-15T14:48:49Z</time>
      </trkpt>
      <trkpt lat="42.399970013648272" lon="3.148887986317277">
        <ele>59.740000000000002</ele>
        <time>2025-05-15T14:48:50Z</time>
      </trkpt>
      <trkpt lat="42.400126000866294" lon="3.148864014074206">
        <ele>58.780000000000001</ele>
        <time>2025-05-15T14:48:51Z</time>
      </trkpt>
      <trkpt lat="42.400276958942413" lon="3.148854039609432">
        <ele>57.340000000000003</ele>
        <time>2025-05-15T14:48:52Z</time>
      </trkpt>
      <trkpt lat="42.400411991402507" lon="3.148814979940653">
        <ele>56.369999999999997</ele>
        <time>2025-05-15T14:48:53Z</time>
      </trkpt>
      <trkpt lat="42.400530008599162" lon="3.148736022412777">
        <ele>54.93</ele>
        <time>2025-05-15T14:48:54Z</time>
      </trkpt>
      <trkpt lat="42.400619024410844" lon="3.148623034358025">
        <ele>53.969999999999999</ele>
        <time>2025-05-15T14:48:55Z</time>
      </trkpt>
      <trkpt lat="42.400670992210507" lon="3.148467969149351">
        <ele>53.009999999999998</ele>
        <time>2025-05-15T14:48:56Z</time>
      </trkpt>
      <trkpt lat="42.400722038000822" lon="3.148268982768059">
        <ele>52.049999999999997</ele>
        <time>2025-05-15T14:48:57Z</time>
      </trkpt>
      <trkpt lat="42.400777023285627" lon="3.148054992780089">
        <ele>50.609999999999999</ele>
        <time>2025-05-15T14:48:58Z</time>
      </trkpt>
      <trkpt lat="42.400864027440548" lon="3.147601028904319">
        <ele>49.159999999999997</ele>
        <time>2025-05-15T14:49:00Z</time>
      </trkpt>
      <trkpt lat="42.4008699785918" lon="3.147377986460924">
        <ele>47.719999999999999</ele>
        <time>2025-05-15T14:49:01Z</time>
      </trkpt>
      <trkpt lat="42.400834020227194" lon="3.147161984816194">
        <ele>46.759999999999998</ele>
        <time>2025-05-15T14:49:02Z</time>
      </trkpt>
      <trkpt lat="42.400823961943388" lon="3.146936008706689">
        <ele>45.32</ele>
        <time>2025-05-15T14:49:03Z</time>
      </trkpt>
      <trkpt lat="42.400850029662251" lon="3.146751020103693">
        <ele>44.359999999999999</ele>
        <time>2025-05-15T14:49:04Z</time>
      </trkpt>
      <trkpt lat="42.40091398358345" lon="3.146583968773484">
        <ele>42.920000000000002</ele>
        <time>2025-05-15T14:49:05Z</time>
      </trkpt>
      <trkpt lat="42.401026971638203" lon="3.146454971283674">
        <ele>41.950000000000003</ele>
        <time>2025-05-15T14:49:06Z</time>
      </trkpt>
      <trkpt lat="42.401150017976761" lon="3.146319016814232">
        <ele>40.509999999999998</ele>
        <time>2025-05-15T14:49:07Z</time>
      </trkpt>
      <trkpt lat="42.401279015466571" lon="3.146176021546125">
        <ele>39.07</ele>
        <time>2025-05-15T14:49:08Z</time>
      </trkpt>
      <trkpt lat="42.401390997692943" lon="3.146018022671342">
        <ele>38.109999999999999</ele>
        <time>2025-05-15T14:49:09Z</time>
      </trkpt>
      <trkpt lat="42.401490993797779" lon="3.145856000483036">
        <ele>36.670000000000002</ele>
        <time>2025-05-15T14:49:10Z</time>
      </trkpt>
      <trkpt lat="42.401548996567726" lon="3.145666988566518">
        <ele>35.710000000000001</ele>
        <time>2025-05-15T14:49:11Z</time>
      </trkpt>
      <trkpt lat="42.401584032922983" lon="3.145468002185226">
        <ele>34.259999999999998</ele>
        <time>2025-05-15T14:49:12Z</time>
      </trkpt>
      <trkpt lat="42.401584032922983" lon="3.145243031904101">
        <ele>32.82</ele>
        <time>2025-05-15T14:49:13Z</time>
      </trkpt>
      <trkpt lat="42.401584032922983" lon="3.145013032481074">
        <ele>31.859999999999999</ele>
        <time>2025-05-15T14:49:14Z</time>
      </trkpt>
      <trkpt lat="42.401542039588094" lon="3.144782027229667">
        <ele>30.899999999999999</ele>
        <time>2025-05-15T14:49:15Z</time>
      </trkpt>
      <trkpt lat="42.401495017111301" lon="3.144529983401299">
        <ele>29.460000000000001</ele>
        <time>2025-05-15T14:49:16Z</time>
      </trkpt>
      <trkpt lat="42.401423016563058" lon="3.144291015341878">
        <ele>28.5</ele>
        <time>2025-05-15T14:49:17Z</time>
      </trkpt>
      <trkpt lat="42.401332994922996" lon="3.144062021747232">
        <ele>27.530000000000001</ele>
        <time>2025-05-15T14:49:18Z</time>
      </trkpt>
      <trkpt lat="42.401241967454553" lon="3.143848031759262">
        <ele>26.09</ele>
        <time>2025-05-15T14:49:19Z</time>
      </trkpt>
      <trkpt lat="42.401096960529685" lon="3.143467996269465">
        <ele>23.690000000000001</ele>
        <time>2025-05-15T14:49:21Z</time>
      </trkpt>
      <trkpt lat="42.401098972186446" lon="3.143331035971642">
        <ele>22.73</ele>
        <time>2025-05-15T14:49:22Z</time>
      </trkpt>
      <trkpt lat="42.401111964136362" lon="3.143205977976322">
        <ele>21.77</ele>
        <time>2025-05-15T14:49:23Z</time>
      </trkpt>
      <trkpt lat="42.401164015755057" lon="3.143143029883504">
        <ele>21.289999999999999</ele>
        <time>2025-05-15T14:49:24Z</time>
      </trkpt>
      <trkpt lat="42.401246996596456" lon="3.143076980486512">
        <ele>20.809999999999999</ele>
        <time>2025-05-15T14:49:25Z</time>
      </trkpt>
      <trkpt lat="42.401355961337686" lon="3.143076980486512">
        <ele>19.84</ele>
        <time>2025-05-15T14:49:26Z</time>
      </trkpt>
      <trkpt lat="42.401451012119651" lon="3.143159039318562">
        <ele>19.359999999999999</ele>
        <time>2025-05-15T14:49:27Z</time>
      </trkpt>
      <trkpt lat="42.401561988517642" lon="3.143270015716553">
        <ele>18.399999999999999</ele>
        <time>2025-05-15T14:49:28Z</time>
      </trkpt>
      <trkpt lat="42.401658967137337" lon="3.143433965742588">
        <ele>17.440000000000001</ele>
        <time>2025-05-15T14:49:29Z</time>
      </trkpt>
      <trkpt lat="42.401767009869218" lon="3.143617026507855">
        <ele>16.960000000000001</ele>
        <time>2025-05-15T14:49:30Z</time>
      </trkpt>
      <trkpt lat="42.402393976226449" lon="3.144544987007976">
        <ele>13.119999999999999</ele>
        <time>2025-05-15T14:49:36Z</time>
      </trkpt>
      <trkpt lat="42.402497995644808" lon="3.144608018919826">
        <ele>12.630000000000001</ele>
        <time>2025-05-15T14:49:37Z</time>
      </trkpt>
      <trkpt lat="42.402617018669844" lon="3.144636014476419">
        <ele>12.630000000000001</ele>
        <time>2025-05-15T14:49:38Z</time>
      </trkpt>
      <trkpt lat="42.402751967310905" lon="3.144594021141529">
        <ele>12.15</ele>
        <time>2025-05-15T14:49:39Z</time>
      </trkpt>
      <trkpt lat="42.402894962579012" lon="3.144546998664737">
        <ele>11.67</ele>
        <time>2025-05-15T14:49:40Z</time>
      </trkpt>
      <trkpt lat="42.403444983065128" lon="3.144353963434696">
        <ele>11.19</ele>
        <time>2025-05-15T14:49:44Z</time>
      </trkpt>
      <trkpt lat="42.403579009696841" lon="3.144342983141542">
        <ele>10.710000000000001</ele>
        <time>2025-05-15T14:49:45Z</time>
      </trkpt>
      <trkpt lat="42.403665008023381" lon="3.144364021718502">
        <ele>10.23</ele>
        <time>2025-05-15T14:49:46Z</time>
      </trkpt>
      <trkpt lat="42.403751006349921" lon="3.144473992288113">
        <ele>10.23</ele>
        <time>2025-05-15T14:49:47Z</time>
      </trkpt>
      <trkpt lat="42.403816971927881" lon="3.144571976736188">
        <ele>10.23</ele>
        <time>2025-05-15T14:49:48Z</time>
      </trkpt>
      <trkpt lat="42.403843961656094" lon="3.144742967560887">
        <ele>10.710000000000001</ele>
        <time>2025-05-15T14:49:49Z</time>
      </trkpt>
      <trkpt lat="42.403872963041067" lon="3.144930973649025">
        <ele>11.19</ele>
        <time>2025-05-15T14:49:50Z</time>
      </trkpt>
      <trkpt lat="42.403902970254421" lon="3.145135995000601">
        <ele>11.19</ele>
        <time>2025-05-15T14:49:51Z</time>
      </trkpt>
      <trkpt lat="42.404033979400992" lon="3.146764012053609">
        <ele>11.19</ele>
        <time>2025-05-15T14:49:58Z</time>
      </trkpt>
      <trkpt lat="42.404063986614347" lon="3.146957969292998">
        <ele>10.710000000000001</ele>
        <time>2025-05-15T14:49:59Z</time>
      </trkpt>
      <trkpt lat="42.404119977727532" lon="3.147138012573123">
        <ele>10.710000000000001</ele>
        <time>2025-05-15T14:50:00Z</time>
      </trkpt>
      <trkpt lat="42.404188038781285" lon="3.147286958992481">
        <ele>10.710000000000001</ele>
        <time>2025-05-15T14:50:01Z</time>
      </trkpt>
      <trkpt lat="42.404299015179276" lon="3.147384021431208">
        <ele>10.710000000000001</ele>
        <time>2025-05-15T14:50:02Z</time>
      </trkpt>
      <trkpt lat="42.404437987133861" lon="3.147422997280955">
        <ele>11.19</ele>
        <time>2025-05-15T14:50:03Z</time>
      </trkpt>
      <trkpt lat="42.404577964916825" lon="3.147439006716013">
        <ele>10.710000000000001</ele>
        <time>2025-05-15T14:50:04Z</time>
      </trkpt>
      <trkpt lat="42.404714003205299" lon="3.14745401032269">
        <ele>11.19</ele>
        <time>2025-05-15T14:50:05Z</time>
      </trkpt>
      <trkpt lat="42.404834032058716" lon="3.147542020305991">
        <ele>11.19</ele>
        <time>2025-05-15T14:50:06Z</time>
      </trkpt>
      <trkpt lat="42.404948025941849" lon="3.147628018632531">
        <ele>11.19</ele>
        <time>2025-05-15T14:50:07Z</time>
      </trkpt>
      <trkpt lat="42.405022038146853" lon="3.147783000022173">
        <ele>11.67</ele>
        <time>2025-05-15T14:50:08Z</time>
      </trkpt>
      <trkpt lat="42.405078029260039" lon="3.147942004725337">
        <ele>12.15</ele>
        <time>2025-05-15T14:50:09Z</time>
      </trkpt>
      <trkpt lat="42.405075011774898" lon="3.148150965571404">
        <ele>12.630000000000001</ele>
        <time>2025-05-15T14:50:10Z</time>
      </trkpt>
      <trkpt lat="42.405037963762879" lon="3.14833402633667">
        <ele>13.6</ele>
        <time>2025-05-15T14:50:11Z</time>
      </trkpt>
      <trkpt lat="42.40495297126472" lon="3.148523038253188">
        <ele>14.08</ele>
        <time>2025-05-15T14:50:12Z</time>
      </trkpt>
      <trkpt lat="42.404822967946529" lon="3.148662010207772">
        <ele>15.039999999999999</ele>
        <time>2025-05-15T14:50:13Z</time>
      </trkpt>
      <trkpt lat="42.404683995991945" lon="3.148752031847835">
        <ele>16</ele>
        <time>2025-05-15T14:50:14Z</time>
      </trkpt>
      <trkpt lat="42.40456597879529" lon="3.148827971890569">
        <ele>16.960000000000001</ele>
        <time>2025-05-15T14:50:15Z</time>
      </trkpt>
      <trkpt lat="42.404490960761905" lon="3.148956969380379">
        <ele>17.920000000000002</ele>
        <time>2025-05-15T14:50:16Z</time>
      </trkpt>
      <trkpt lat="42.404416026547551" lon="3.149084961041808">
        <ele>18.879999999999999</ele>
        <time>2025-05-15T14:50:17Z</time>
      </trkpt>
      <trkpt lat="42.404404962435365" lon="3.149269027635455">
        <ele>19.359999999999999</ele>
        <time>2025-05-15T14:50:18Z</time>
      </trkpt>
      <trkpt lat="42.404396999627352" lon="3.149464996531606">
        <ele>20.32</ele>
        <time>2025-05-15T14:50:19Z</time>
      </trkpt>
      <trkpt lat="42.404433963820338" lon="3.149676974862814">
        <ele>21.289999999999999</ele>
        <time>2025-05-15T14:50:20Z</time>
      </trkpt>
      <trkpt lat="42.404471011832356" lon="3.149890964850783">
        <ele>22.25</ele>
        <time>2025-05-15T14:50:21Z</time>
      </trkpt>
      <trkpt lat="42.404533037915826" lon="3.150089029222727">
        <ele>23.690000000000001</ele>
        <time>2025-05-15T14:50:22Z</time>
      </trkpt>
      <trkpt lat="42.404605960473418" lon="3.15029002726078">
        <ele>24.649999999999999</ele>
        <time>2025-05-15T14:50:23Z</time>
      </trkpt>
      <trkpt lat="42.404681984335184" lon="3.150496976450086">
        <ele>25.129999999999999</ele>
        <time>2025-05-15T14:50:24Z</time>
      </trkpt>
      <trkpt lat="42.405272992327809" lon="3.151899017393589">
        <ele>29.940000000000001</ele>
        <time>2025-05-15T14:50:31Z</time>
      </trkpt>
      <trkpt lat="42.405482036992908" lon="3.152540987357497">
        <ele>31.379999999999999</ele>
        <time>2025-05-15T14:50:34Z</time>
      </trkpt>
      <trkpt lat="42.40553199313581" lon="3.152690017595887">
        <ele>31.859999999999999</ele>
        <time>2025-05-15T14:50:35Z</time>
      </trkpt>
      <trkpt lat="42.405647998675704" lon="3.152762018144131">
        <ele>31.859999999999999</ele>
        <time>2025-05-15T14:50:36Z</time>
      </trkpt>
      <trkpt lat="42.405741037800908" lon="3.152784984558821">
        <ele>32.340000000000003</ele>
        <time>2025-05-15T14:50:37Z</time>
      </trkpt>
      <trkpt lat="42.405864000320435" lon="3.152743997052312">
        <ele>32.340000000000003</ele>
        <time>2025-05-15T14:50:38Z</time>
      </trkpt>
      <trkpt lat="42.405977994203568" lon="3.152687000110745">
        <ele>32.340000000000003</ele>
        <time>2025-05-15T14:50:39Z</time>
      </trkpt>
      <trkpt lat="42.4060919880867" lon="3.152526989579201">
        <ele>31.859999999999999</ele>
        <time>2025-05-15T14:50:40Z</time>
      </trkpt>
      <trkpt lat="42.406201036646962" lon="3.152372008189559">
        <ele>31.859999999999999</ele>
        <time>2025-05-15T14:50:41Z</time>
      </trkpt>
      <trkpt lat="42.406333973631263" lon="3.152260025963187">
        <ele>31.379999999999999</ele>
        <time>2025-05-15T14:50:42Z</time>
      </trkpt>
      <trkpt lat="42.40647797472775" lon="3.152218032628298">
        <ele>31.379999999999999</ele>
        <time>2025-05-15T14:50:43Z</time>
      </trkpt>
      <trkpt lat="42.406630022451282" lon="3.152218032628298">
        <ele>30.899999999999999</ele>
        <time>2025-05-15T14:50:44Z</time>
      </trkpt>
      <trkpt lat="42.406791960820556" lon="3.152256002649665">
        <ele>29.940000000000001</ele>
        <time>2025-05-15T14:50:45Z</time>
      </trkpt>
      <trkpt lat="42.406944008544087" lon="3.152358010411263">
        <ele>29.460000000000001</ele>
        <time>2025-05-15T14:50:46Z</time>
      </trkpt>
      <trkpt lat="42.407055990770459" lon="3.152505028992891">
        <ele>29.460000000000001</ele>
        <time>2025-05-15T14:50:47Z</time>
      </trkpt>
      <trkpt lat="42.407146012410522" lon="3.152665039524436">
        <ele>28.98</ele>
        <time>2025-05-15T14:50:48Z</time>
      </trkpt>
      <trkpt lat="42.40718599408865" lon="3.152829995378852">
        <ele>28.5</ele>
        <time>2025-05-15T14:50:49Z</time>
      </trkpt>
      <trkpt lat="42.407191023230553" lon="3.15304197371006">
        <ele>28.5</ele>
        <time>2025-05-15T14:50:50Z</time>
      </trkpt>
      <trkpt lat="42.407196974381804" lon="3.153283037245274">
        <ele>28.5</ele>
        <time>2025-05-15T14:50:51Z</time>
      </trkpt>
      <trkpt lat="42.407203009352088" lon="3.153530973941088">
        <ele>28.02</ele>
        <time>2025-05-15T14:50:52Z</time>
      </trkpt>
      <trkpt lat="42.407222036272287" lon="3.153762985020876">
        <ele>28.02</ele>
        <time>2025-05-15T14:50:53Z</time>
      </trkpt>
      <trkpt lat="42.407308034598827" lon="3.153932970017195">
        <ele>27.530000000000001</ele>
        <time>2025-05-15T14:50:54Z</time>
      </trkpt>
      <trkpt lat="42.407406019046903" lon="3.154061967507005">
        <ele>27.530000000000001</ele>
        <time>2025-05-15T14:50:55Z</time>
      </trkpt>
      <trkpt lat="42.407538034021854" lon="3.154155006632209">
        <ele>27.530000000000001</ele>
        <time>2025-05-15T14:50:56Z</time>
      </trkpt>
      <trkpt lat="42.407700978219509" lon="3.154209991917014">
        <ele>27.530000000000001</ele>
        <time>2025-05-15T14:50:57Z</time>
      </trkpt>
      <trkpt lat="42.407876998186111" lon="3.154174033552408">
        <ele>27.530000000000001</ele>
        <time>2025-05-15T14:50:58Z</time>
      </trkpt>
      <trkpt lat="42.408052012324333" lon="3.154131034389138">
        <ele>28.02</ele>
        <time>2025-05-15T14:50:59Z</time>
      </trkpt>
      <trkpt lat="42.40821797400713" lon="3.154031038284302">
        <ele>28.98</ele>
        <time>2025-05-15T14:51:00Z</time>
      </trkpt>
      <trkpt lat="42.408363986760378" lon="3.153870021924377">
        <ele>29.460000000000001</ele>
        <time>2025-05-15T14:51:01Z</time>
      </trkpt>
      <trkpt lat="42.408487033098936" lon="3.153675980865955">
        <ele>30.420000000000002</ele>
        <time>2025-05-15T14:51:02Z</time>
      </trkpt>
      <trkpt lat="42.408569008111954" lon="3.153441036120057">
        <ele>31.379999999999999</ele>
        <time>2025-05-15T14:51:03Z</time>
      </trkpt>
      <trkpt lat="42.408651988953352" lon="3.153205001726747">
        <ele>32.340000000000003</ele>
        <time>2025-05-15T14:51:04Z</time>
      </trkpt>
      <trkpt lat="42.408824991434813" lon="3.152777021750808">
        <ele>33.299999999999997</ele>
        <time>2025-05-15T14:51:06Z</time>
      </trkpt>
      <trkpt lat="42.408940996974707" lon="3.152593038976193">
        <ele>33.780000000000001</ele>
        <time>2025-05-15T14:51:07Z</time>
      </trkpt>
      <trkpt lat="42.40905599668622" lon="3.152434034273028">
        <ele>34.259999999999998</ele>
        <time>2025-05-15T14:51:08Z</time>
      </trkpt>
      <trkpt lat="42.409192034974694" lon="3.152332026511431">
        <ele>34.259999999999998</ele>
        <time>2025-05-15T14:51:09Z</time>
      </trkpt>
      <trkpt lat="42.409311980009079" lon="3.152324985712767">
        <ele>34.259999999999998</ele>
        <time>2025-05-15T14:51:10Z</time>
      </trkpt>
      <trkpt lat="42.409413987770677" lon="3.152336971834302">
        <ele>34.259999999999998</ele>
        <time>2025-05-15T14:51:11Z</time>
      </trkpt>
      <trkpt lat="42.409514989703894" lon="3.152406960725784">
        <ele>34.259999999999998</ele>
        <time>2025-05-15T14:51:12Z</time>
      </trkpt>
      <trkpt lat="42.409612974151969" lon="3.152533024549484">
        <ele>34.259999999999998</ele>
        <time>2025-05-15T14:51:13Z</time>
      </trkpt>
      <trkpt lat="42.409667037427425" lon="3.152722036466003">
        <ele>34.740000000000002</ele>
        <time>2025-05-15T14:51:14Z</time>
      </trkpt>
      <trkpt lat="42.409690003842115" lon="3.152939965948463">
        <ele>35.229999999999997</ele>
        <time>2025-05-15T14:51:15Z</time>
      </trkpt>
      <trkpt lat="42.409714981913567" lon="3.153166025876999">
        <ele>35.229999999999997</ele>
        <time>2025-05-15T14:51:16Z</time>
      </trkpt>
      <trkpt lat="42.40974398329854" lon="3.153398958966136">
        <ele>35.710000000000001</ele>
        <time>2025-05-15T14:51:17Z</time>
      </trkpt>
      <trkpt lat="42.409814978018403" lon="3.153628036379814">
        <ele>36.670000000000002</ele>
        <time>2025-05-15T14:51:18Z</time>
      </trkpt>
      <trkpt lat="42.409891001880169" lon="3.153873961418867">
        <ele>38.109999999999999</ele>
        <time>2025-05-15T14:51:19Z</time>
      </trkpt>
      <trkpt lat="42.410002984106541" lon="3.154108989983797">
        <ele>39.07</ele>
        <time>2025-05-15T14:51:20Z</time>
      </trkpt>
      <trkpt lat="42.41012996993959" lon="3.154344018548727">
        <ele>40.509999999999998</ele>
        <time>2025-05-15T14:51:21Z</time>
      </trkpt>
      <trkpt lat="42.410271959379315" lon="3.154574017971754">
        <ele>41.950000000000003</ele>
        <time>2025-05-15T14:51:22Z</time>
      </trkpt>
      <trkpt lat="42.410429958254099" lon="3.154779961332679">
        <ele>43.399999999999999</ele>
        <time>2025-05-15T14:51:23Z</time>
      </trkpt>
      <trkpt lat="42.410583011806011" lon="3.154980959370732">
        <ele>44.840000000000003</ele>
        <time>2025-05-15T14:51:24Z</time>
      </trkpt>
      <trkpt lat="42.41073003038764" lon="3.155172988772392">
        <ele>46.759999999999998</ele>
        <time>2025-05-15T14:51:25Z</time>
      </trkpt>
      <trkpt lat="42.410892974585295" lon="3.155293017625809">
        <ele>48.200000000000003</ele>
        <time>2025-05-15T14:51:26Z</time>
      </trkpt>
      <trkpt lat="42.411038987338543" lon="3.155374992638826">
        <ele>49.649999999999999</ele>
        <time>2025-05-15T14:51:27Z</time>
      </trkpt>
      <trkpt lat="42.411181982606649" lon="3.155407011508942">
        <ele>51.090000000000003</ele>
        <time>2025-05-15T14:51:28Z</time>
      </trkpt>
      <trkpt lat="42.411324977874756" lon="3.15538102760911">
        <ele>52.049999999999997</ele>
        <time>2025-05-15T14:51:29Z</time>
      </trkpt>
      <trkpt lat="42.411450035870075" lon="3.155270973220468">
        <ele>53.009999999999998</ele>
        <time>2025-05-15T14:51:30Z</time>
      </trkpt>
      <trkpt lat="42.411551959812641" lon="3.155116997659206">
        <ele>54.450000000000003</ele>
        <time>2025-05-15T14:51:31Z</time>
      </trkpt>
      <trkpt lat="42.411648016422987" lon="3.154938966035843">
        <ele>55.409999999999997</ele>
        <time>2025-05-15T14:51:32Z</time>
      </trkpt>
      <trkpt lat="42.411740971729159" lon="3.154749032109976">
        <ele>56.369999999999997</ele>
        <time>2025-05-15T14:51:33Z</time>
      </trkpt>
      <trkpt lat="42.412126958370209" lon="3.154044030234218">
        <ele>60.700000000000003</ele>
        <time>2025-05-15T14:51:37Z</time>
      </trkpt>
      <trkpt lat="42.412230977788568" lon="3.153955014422536">
        <ele>61.659999999999997</ele>
        <time>2025-05-15T14:51:38Z</time>
      </trkpt>
      <trkpt lat="42.412313036620617" lon="3.153934981673956">
        <ele>62.619999999999997</ele>
        <time>2025-05-15T14:51:39Z</time>
      </trkpt>
      <trkpt lat="42.412435999140143" lon="3.153980998322368">
        <ele>63.100000000000001</ele>
        <time>2025-05-15T14:51:40Z</time>
      </trkpt>
      <trkpt lat="42.412521997466683" lon="3.154059033840895">
        <ele>63.579999999999998</ele>
        <time>2025-05-15T14:51:41Z</time>
      </trkpt>
      <trkpt lat="42.412593998014927" lon="3.154187025502324">
        <ele>64.549999999999997</ele>
        <time>2025-05-15T14:51:42Z</time>
      </trkpt>
      <trkpt lat="42.412618976086378" lon="3.154363967478275">
        <ele>65.510000000000005</ele>
        <time>2025-05-15T14:51:43Z</time>
      </trkpt>
      <trkpt lat="42.412630040198565" lon="3.154574017971754">
        <ele>66.469999999999999</ele>
        <time>2025-05-15T14:51:44Z</time>
      </trkpt>
      <trkpt lat="42.412620987743139" lon="3.15480200573802">
        <ele>67.430000000000007</ele>
        <time>2025-05-15T14:51:45Z</time>
      </trkpt>
      <trkpt lat="42.412620987743139" lon="3.156345030292869">
        <ele>74.159999999999997</ele>
        <time>2025-05-15T14:51:51Z</time>
      </trkpt>
      <trkpt lat="42.412657029926777" lon="3.156557008624077">
        <ele>74.640000000000001</ele>
        <time>2025-05-15T14:51:52Z</time>
      </trkpt>
      <trkpt lat="42.412716038525105" lon="3.15673696808517">
        <ele>75.120000000000005</ele>
        <time>2025-05-15T14:51:53Z</time>
      </trkpt>
      <trkpt lat="42.41281402297318" lon="3.156876023858786">
        <ele>75.599999999999994</ele>
        <time>2025-05-15T14:51:54Z</time>
      </trkpt>
      <trkpt lat="42.412942014634609" lon="3.156964033842087">
        <ele>76.079999999999998</ele>
        <time>2025-05-15T14:51:55Z</time>
      </trkpt>
      <trkpt lat="42.413080986589193" lon="3.157048020511866">
        <ele>75.599999999999994</ele>
        <time>2025-05-15T14:51:56Z</time>
      </trkpt>
      <trkpt lat="42.413207972422242" lon="3.157155979424715">
        <ele>75.599999999999994</ele>
        <time>2025-05-15T14:51:57Z</time>
      </trkpt>
      <trkpt lat="42.41330998018384" lon="3.157310960814357">
        <ele>75.599999999999994</ele>
        <time>2025-05-15T14:51:58Z</time>
      </trkpt>
      <trkpt lat="42.413351973518729" lon="3.157511036843061">
        <ele>75.120000000000005</ele>
        <time>2025-05-15T14:51:59Z</time>
      </trkpt>
      <trkpt lat="42.41339597851038" lon="3.157726032659411">
        <ele>75.599999999999994</ele>
        <time>2025-05-15T14:52:00Z</time>
      </trkpt>
      <trkpt lat="42.413443000987172" lon="3.157948991283774">
        <ele>76.079999999999998</ele>
        <time>2025-05-15T14:52:01Z</time>
      </trkpt>
      <trkpt lat="42.413491029292345" lon="3.158177984878421">
        <ele>76.560000000000002</ele>
        <time>2025-05-15T14:52:02Z</time>
      </trkpt>
      <trkpt lat="42.413566969335079" lon="3.158404966816306">
        <ele>77.519999999999996</ele>
        <time>2025-05-15T14:52:03Z</time>
      </trkpt>
      <trkpt lat="42.413666965439916" lon="3.158622980117798">
        <ele>78</ele>
        <time>2025-05-15T14:52:04Z</time>
      </trkpt>
      <trkpt lat="42.413763022050261" lon="3.158830013126135">
        <ele>78.480000000000004</ele>
        <time>2025-05-15T14:52:05Z</time>
      </trkpt>
      <trkpt lat="42.413895037025213" lon="3.158962028101087">
        <ele>78.969999999999999</ele>
        <time>2025-05-15T14:52:06Z</time>
      </trkpt>
      <trkpt lat="42.414051024243236" lon="3.159106029197574">
        <ele>79.450000000000003</ele>
        <time>2025-05-15T14:52:07Z</time>
      </trkpt>
      <trkpt lat="42.414175998419523" lon="3.159155985340476">
        <ele>79.930000000000007</ele>
        <time>2025-05-15T14:52:08Z</time>
      </trkpt>
      <trkpt lat="42.414345983415842" lon="3.159223962575197">
        <ele>79.930000000000007</ele>
        <time>2025-05-15T14:52:09Z</time>
      </trkpt>
      <trkpt lat="42.414525020867586" lon="3.159295963123441">
        <ele>80.409999999999997</ele>
        <time>2025-05-15T14:52:10Z</time>
      </trkpt>
      <trkpt lat="42.414676984772086" lon="3.159453961998224">
        <ele>80.409999999999997</ele>
        <time>2025-05-15T14:52:11Z</time>
      </trkpt>
      <trkpt lat="42.414804976433516" lon="3.159641968086362">
        <ele>80.890000000000001</ele>
        <time>2025-05-15T14:52:12Z</time>
      </trkpt>
      <trkpt lat="42.414931962266564" lon="3.159828968346119">
        <ele>81.370000000000005</ele>
        <time>2025-05-15T14:52:13Z</time>
      </trkpt>
      <trkpt lat="42.415056014433503" lon="3.160003982484341">
        <ele>82.329999999999998</ele>
        <time>2025-05-15T14:52:14Z</time>
      </trkpt>
      <trkpt lat="42.41519900970161" lon="3.160146977752447">
        <ele>82.810000000000002</ele>
        <time>2025-05-15T14:52:15Z</time>
      </trkpt>
      <trkpt lat="42.415354996919632" lon="3.160250997170806">
        <ele>83.769999999999996</ele>
        <time>2025-05-15T14:52:16Z</time>
      </trkpt>
      <trkpt lat="42.416257979348302" lon="3.160750977694988">
        <ele>86.180000000000007</ele>
        <time>2025-05-15T14:52:23Z</time>
      </trkpt>
      <trkpt lat="42.41663902066648" lon="3.16086002625525">
        <ele>87.140000000000001</ele>
        <time>2025-05-15T14:52:26Z</time>
      </trkpt>
      <trkpt lat="42.416772041469812" lon="3.160886010155082">
        <ele>87.620000000000005</ele>
        <time>2025-05-15T14:52:27Z</time>
      </trkpt>
      <trkpt lat="42.421020995825529" lon="3.160842005163431">
        <ele>81.370000000000005</ele>
        <time>2025-05-15T14:52:59Z</time>
      </trkpt>
      <trkpt lat="42.421861030161381" lon="3.160846028476954">
        <ele>81.370000000000005</ele>
        <time>2025-05-15T14:53:02Z</time>
      </trkpt>
      <trkpt lat="42.422679020091891" lon="3.161130007356405">
        <ele>83.769999999999996</ele>
        <time>2025-05-15T14:53:08Z</time>
      </trkpt>
      <trkpt lat="42.422802988439798" lon="3.161257999017835">
        <ele>84.25</ele>
        <time>2025-05-15T14:53:09Z</time>
      </trkpt>
      <trkpt lat="42.423136001452804" lon="3.161766026169062">
        <ele>82.329999999999998</ele>
        <time>2025-05-15T14:53:12Z</time>
      </trkpt>
      <trkpt lat="42.423209007829428" lon="3.161970041692257">
        <ele>81.370000000000005</ele>
        <time>2025-05-15T14:53:13Z</time>
      </trkpt>
      <trkpt lat="42.423276985064149" lon="3.162171961739659">
        <ele>80.890000000000001</ele>
        <time>2025-05-15T14:53:14Z</time>
      </trkpt>
      <trkpt lat="42.423576973378658" lon="3.16406300291419">
        <ele>70.790000000000006</ele>
        <time>2025-05-15T14:53:23Z</time>
      </trkpt>
      <trkpt lat="42.423652997240424" lon="3.164440020918846">
        <ele>68.390000000000001</ele>
        <time>2025-05-15T14:53:25Z</time>
      </trkpt>
      <trkpt lat="42.423714017495513" lon="3.1646219920367">
        <ele>67.430000000000007</ele>
        <time>2025-05-15T14:53:26Z</time>
      </trkpt>
      <trkpt lat="42.424019034951925" lon="3.165019964799285">
        <ele>66.950000000000003</ele>
        <time>2025-05-15T14:53:30Z</time>
      </trkpt>
      <trkpt lat="42.424178039655089" lon="3.165087020024657">
        <ele>66.469999999999999</ele>
        <time>2025-05-15T14:53:31Z</time>
      </trkpt>
      <trkpt lat="42.424313994124532" lon="3.165108980610967">
        <ele>65.510000000000005</ele>
        <time>2025-05-15T14:53:32Z</time>
      </trkpt>
      <trkpt lat="42.424485990777612" lon="3.16509498283267">
        <ele>64.549999999999997</ele>
        <time>2025-05-15T14:53:33Z</time>
      </trkpt>
      <trkpt lat="42.42460903711617" lon="3.16502901725471">
        <ele>63.579999999999998</ele>
        <time>2025-05-15T14:53:34Z</time>
      </trkpt>
      <trkpt lat="42.424747003242373" lon="3.164928015321493">
        <ele>63.100000000000001</ele>
        <time>2025-05-15T14:53:35Z</time>
      </trkpt>
      <trkpt lat="42.424887986853719" lon="3.164756018668413">
        <ele>61.659999999999997</ele>
        <time>2025-05-15T14:53:36Z</time>
      </trkpt>
      <trkpt lat="42.424985971301794" lon="3.16453498788178">
        <ele>61.18</ele>
        <time>2025-05-15T14:53:37Z</time>
      </trkpt>
      <trkpt lat="42.425085967406631" lon="3.164309011772275">
        <ele>59.259999999999998</ele>
        <time>2025-05-15T14:53:38Z</time>
      </trkpt>
      <trkpt lat="42.42529802955687" lon="3.163922019302845">
        <ele>55.890000000000001</ele>
        <time>2025-05-15T14:53:40Z</time>
      </trkpt>
      <trkpt lat="42.425404982641339" lon="3.163758991286159">
        <ele>53.969999999999999</ele>
        <time>2025-05-15T14:53:41Z</time>
      </trkpt>
      <trkpt lat="42.425517970696092" lon="3.163626976311207">
        <ele>52.530000000000001</ele>
        <time>2025-05-15T14:53:42Z</time>
      </trkpt>
      <trkpt lat="42.425589971244335" lon="3.163463026285172">
        <ele>51.090000000000003</ele>
        <time>2025-05-15T14:53:43Z</time>
      </trkpt>
      <trkpt lat="42.425616038963199" lon="3.163306033238769">
        <ele>50.130000000000003</ele>
        <time>2025-05-15T14:53:44Z</time>
      </trkpt>
      <trkpt lat="42.425616038963199" lon="3.163161026313901">
        <ele>48.68</ele>
        <time>2025-05-15T14:53:45Z</time>
      </trkpt>
      <trkpt lat="42.425564993172884" lon="3.163077961653471">
        <ele>47.240000000000002</ele>
        <time>2025-05-15T14:53:46Z</time>
      </trkpt>
      <trkpt lat="42.425497015938163" lon="3.16296799108386">
        <ele>46.280000000000001</ele>
        <time>2025-05-15T14:53:47Z</time>
      </trkpt>
      <trkpt lat="42.425442030653358" lon="3.16288199275732">
        <ele>44.840000000000003</ele>
        <time>2025-05-15T14:53:48Z</time>
      </trkpt>
      <trkpt lat="42.425311021506786" lon="3.162827007472515">
        <ele>43.880000000000003</ele>
        <time>2025-05-15T14:53:49Z</time>
      </trkpt>
      <trkpt lat="42.425171965733171" lon="3.162771016359329">
        <ele>42.920000000000002</ele>
        <time>2025-05-15T14:53:50Z</time>
      </trkpt>
      <trkpt lat="42.42501899600029" lon="3.16273296251893">
        <ele>41.469999999999999</ele>
        <time>2025-05-15T14:53:51Z</time>
      </trkpt>
      <trkpt lat="42.424895027652383" lon="3.162717958912253">
        <ele>40.030000000000001</ele>
        <time>2025-05-15T14:53:52Z</time>
      </trkpt>
      <trkpt lat="42.424754966050386" lon="3.162747966125608">
        <ele>38.590000000000003</ele>
        <time>2025-05-15T14:53:53Z</time>
      </trkpt>
      <trkpt lat="42.424618005752563" lon="3.162778979167342">
        <ele>37.149999999999999</ele>
        <time>2025-05-15T14:53:54Z</time>
      </trkpt>
      <trkpt lat="42.424488002434373" lon="3.162824995815754">
        <ele>35.710000000000001</ele>
        <time>2025-05-15T14:53:55Z</time>
      </trkpt>
      <trkpt lat="42.42437400855124" lon="3.162865983322263">
        <ele>34.740000000000002</ele>
        <time>2025-05-15T14:53:56Z</time>
      </trkpt>
      <trkpt lat="42.424255991354585" lon="3.162831030786037">
        <ele>33.299999999999997</ele>
        <time>2025-05-15T14:53:57Z</time>
      </trkpt>
      <trkpt lat="42.424165969714522" lon="3.162743020802736">
        <ele>32.340000000000003</ele>
        <time>2025-05-15T14:53:58Z</time>
      </trkpt>
      <trkpt lat="42.424135962501168" lon="3.162597008049488">
        <ele>31.379999999999999</ele>
        <time>2025-05-15T14:53:59Z</time>
      </trkpt>
      <trkpt lat="42.424135962501168" lon="3.162431968376041">
        <ele>30.420000000000002</ele>
        <time>2025-05-15T14:54:00Z</time>
      </trkpt>
      <trkpt lat="42.424166975542903" lon="3.162263995036483">
        <ele>29.460000000000001</ele>
        <time>2025-05-15T14:54:01Z</time>
      </trkpt>
      <trkpt lat="42.42420201189816" lon="3.162072971463203">
        <ele>28.5</ele>
        <time>2025-05-15T14:54:02Z</time>
      </trkpt>
      <trkpt lat="42.424352969974279" lon="3.16141901537776">
        <ele>24.649999999999999</ele>
        <time>2025-05-15T14:54:06Z</time>
      </trkpt>
      <trkpt lat="42.424408039078116" lon="3.161364030092955">
        <ele>23.690000000000001</ele>
        <time>2025-05-15T14:54:07Z</time>
      </trkpt>
      <trkpt lat="42.42450300604105" lon="3.161321030929685">
        <ele>22.73</ele>
        <time>2025-05-15T14:54:08Z</time>
      </trkpt>
      <trkpt lat="42.424604007974267" lon="3.161275014281273">
        <ele>21.77</ele>
        <time>2025-05-15T14:54:09Z</time>
      </trkpt>
      <trkpt lat="42.424696041271091" lon="3.161219023168087">
        <ele>20.809999999999999</ele>
        <time>2025-05-15T14:54:10Z</time>
      </trkpt>
      <trkpt lat="42.424923023208976" lon="3.161057000979781">
        <ele>17.920000000000002</ele>
        <time>2025-05-15T14:54:13Z</time>
      </trkpt>
      <trkpt lat="42.424979014322162" lon="3.160991035401821">
        <ele>17.440000000000001</ele>
        <time>2025-05-15T14:54:14Z</time>
      </trkpt>
      <trkpt lat="42.425032993778586" lon="3.160920040681958">
        <ele>16.960000000000001</ele>
        <time>2025-05-15T14:54:15Z</time>
      </trkpt>
      <trkpt lat="42.425123015418649" lon="3.160801017656922">
        <ele>15.52</ele>
        <time>2025-05-15T14:54:17Z</time>
      </trkpt>
      <trkpt lat="42.425174983218312" lon="3.160788025707007">
        <ele>15.039999999999999</ele>
        <time>2025-05-15T14:54:18Z</time>
      </trkpt>
      <trkpt lat="42.42521203123033" lon="3.160781990736723">
        <ele>14.08</ele>
        <time>2025-05-15T14:54:19Z</time>
      </trkpt>
      <trkpt lat="42.425259975716472" lon="3.160814009606838">
        <ele>13.6</ele>
        <time>2025-05-15T14:54:20Z</time>
      </trkpt>
      <trkpt lat="42.425266010686755" lon="3.160883998498321">
        <ele>12.630000000000001</ele>
        <time>2025-05-15T14:54:21Z</time>
      </trkpt>
      <trkpt lat="42.42525695823133" lon="3.160967985168099">
        <ele>12.15</ele>
        <time>2025-05-15T14:54:22Z</time>
      </trkpt>
      <trkpt lat="42.425227034837008" lon="3.161044009029865">
        <ele>11.67</ele>
        <time>2025-05-15T14:54:23Z</time>
      </trkpt>
      <trkpt lat="42.425172971561551" lon="3.161107040941715">
        <ele>10.710000000000001</ele>
        <time>2025-05-15T14:54:24Z</time>
      </trkpt>
      <trkpt lat="42.425113962963223" lon="3.161175018176436">
        <ele>10.23</ele>
        <time>2025-05-15T14:54:25Z</time>
      </trkpt>
      <trkpt lat="42.425044979900122" lon="3.161251964047551">
        <ele>9.27</ele>
        <time>2025-05-15T14:54:26Z</time>
      </trkpt>
      <trkpt lat="42.424970967695117" lon="3.161334022879601">
        <ele>8.310000000000001</ele>
        <time>2025-05-15T14:54:27Z</time>
      </trkpt>
      <trkpt lat="42.42491103708744" lon="3.161409040912986">
        <ele>7.35</ele>
        <time>2025-05-15T14:54:28Z</time>
      </trkpt>
      <trkpt lat="42.424859991297126" lon="3.161490010097623">
        <ele>6.39</ele>
        <time>2025-05-15T14:54:29Z</time>
      </trkpt>
      <trkpt lat="42.424807017669082" lon="3.161572990939021">
        <ele>5.42</ele>
        <time>2025-05-15T14:54:30Z</time>
      </trkpt>
      <trkpt lat="42.424779022112489" lon="3.161641974002123">
        <ele>4.94</ele>
        <time>2025-05-15T14:54:31Z</time>
      </trkpt>
      <trkpt lat="42.424779022112489" lon="3.161701988428831">
        <ele>4.46</ele>
        <time>2025-05-15T14:54:32Z</time>
      </trkpt>
      <trkpt lat="42.42480400018394" lon="3.161744987592101">
        <ele>3.98</ele>
        <time>2025-05-15T14:54:33Z</time>
      </trkpt>
      <trkpt lat="42.424831995740533" lon="3.161794021725655">
        <ele>3.5</ele>
        <time>2025-05-15T14:54:34Z</time>
      </trkpt>
      <trkpt lat="42.424860997125506" lon="3.161844983696938">
        <ele>3.02</ele>
        <time>2025-05-15T14:54:35Z</time>
      </trkpt>
      <trkpt lat="42.424885975196958" lon="3.16184900701046">
        <ele>2.06</ele>
        <time>2025-05-15T14:54:36Z</time>
      </trkpt>
      <trkpt lat="42.424946995452046" lon="3.161840960383415">
        <ele>1.1</ele>
        <time>2025-05-15T14:54:37Z</time>
      </trkpt>
      <trkpt lat="42.425014972686768" lon="3.161830985918641">
        <ele>0.62</ele>
        <time>2025-05-15T14:54:38Z</time>
      </trkpt>
      <trkpt lat="42.42506199516356" lon="3.161794021725655">
        <ele>-0.34</ele>
        <time>2025-05-15T14:54:39Z</time>
      </trkpt>
      <trkpt lat="42.425118992105126" lon="3.161749010905623">
        <ele>-0.82</ele>
        <time>2025-05-15T14:54:40Z</time>
      </trkpt>
      <trkpt lat="42.425236003473401" lon="3.161655971780419">
        <ele>-1.3</ele>
        <time>2025-05-15T14:54:42Z</time>
      </trkpt>
      <trkpt lat="42.425478994846344" lon="3.161464026197791">
        <ele>-3.23</ele>
        <time>2025-05-15T14:54:46Z</time>
      </trkpt>
      <trkpt lat="42.425530040636659" lon="3.161423038691282">
        <ele>-3.71</ele>
        <time>2025-05-15T14:54:47Z</time>
      </trkpt>
      <trkpt lat="42.425602041184902" lon="3.161409040912986">
        <ele>-4.19</ele>
        <time>2025-05-15T14:54:48Z</time>
      </trkpt>
      <trkpt lat="42.425657026469707" lon="3.161381967365742">
        <ele>-4.67</ele>
        <time>2025-05-15T14:54:49Z</time>
      </trkpt>
      <trkpt lat="42.425712011754513" lon="3.161321030929685">
        <ele>-5.63</ele>
        <time>2025-05-15T14:54:50Z</time>
      </trkpt>
      <trkpt lat="42.425723997876048" lon="3.161273002624512">
        <ele>-6.11</ele>
        <time>2025-05-15T14:54:51Z</time>
      </trkpt>
      <trkpt lat="42.425723997876048" lon="3.161179041489959">
        <ele>-6.59</ele>
        <time>2025-05-15T14:54:52Z</time>
      </trkpt>
      <trkpt lat="42.425723997876048" lon="3.161107962951064">
        <ele>-7.55</ele>
        <time>2025-05-15T14:54:53Z</time>
      </trkpt>
      <trkpt lat="42.425723997876048" lon="3.161045014858246">
        <ele>-8.029999999999999</ele>
        <time>2025-05-15T14:54:54Z</time>
      </trkpt>
      <trkpt lat="42.425723997876048" lon="3.160977959632874">
        <ele>-8.51</ele>
        <time>2025-05-15T14:54:55Z</time>
      </trkpt>
      <trkpt lat="42.425723997876048" lon="3.160894978791475">
        <ele>-9</ele>
        <time>2025-05-15T14:54:56Z</time>
      </trkpt>
      <trkpt lat="42.425723997876048" lon="3.160801017656922">
        <ele>-9.48</ele>
        <time>2025-05-15T14:54:57Z</time>
      </trkpt>
      <trkpt lat="42.425723997876048" lon="3.160720970481634">
        <ele>-9.960000000000001</ele>
        <time>2025-05-15T14:54:58Z</time>
      </trkpt>
      <trkpt lat="42.425745036453009" lon="3.160178996622562">
        <ele>-12.359999999999999</ele>
        <time>2025-05-15T14:55:06Z</time>
      </trkpt>
      <trkpt lat="42.425780994817615" lon="3.160178996622562">
        <ele>-12.84</ele>
        <time>2025-05-15T14:55:07Z</time>
      </trkpt>
      <trkpt lat="42.425834974274039" lon="3.160178996622562">
        <ele>-13.32</ele>
        <time>2025-05-15T14:55:08Z</time>
      </trkpt>
      <trkpt lat="42.425891971215606" lon="3.160178996622562">
        <ele>-13.800000000000001</ele>
        <time>2025-05-15T14:55:09Z</time>
      </trkpt>
      <trkpt lat="42.425957014784217" lon="3.160182014107704">
        <ele>-14.279999999999999</ele>
        <time>2025-05-15T14:55:10Z</time>
      </trkpt>
      <trkpt lat="42.426206963136792" lon="3.160226019099355">
        <ele>-15.720000000000001</ele>
        <time>2025-05-15T14:55:14Z</time>
      </trkpt>
      <trkpt lat="42.426276030018926" lon="3.16023699939251">
        <ele>-15.720000000000001</ele>
        <time>2025-05-15T14:55:15Z</time>
      </trkpt>
      <trkpt lat="42.426347024738789" lon="3.160247979685664">
        <ele>-16.210000000000001</ele>
        <time>2025-05-15T14:55:16Z</time>
      </trkpt>
      <trkpt lat="42.426507035270333" lon="3.160273963585496">
        <ele>-16.690000000000001</ele>
        <time>2025-05-15T14:55:19Z</time>
      </trkpt>
      <trkpt lat="42.426581969484687" lon="3.160286033526063">
        <ele>-16.690000000000001</ele>
        <time>2025-05-15T14:55:20Z</time>
      </trkpt>
      <trkpt lat="42.426622034981847" lon="3.160305982455611">
        <ele>-16.690000000000001</ele>
        <time>2025-05-15T14:55:21Z</time>
      </trkpt>
      <trkpt lat="42.426676014438272" lon="3.160331966355443">
        <ele>-16.690000000000001</ele>
        <time>2025-05-15T14:55:22Z</time>
      </trkpt>
      <trkpt lat="42.426732005551457" lon="3.160349987447262">
        <ele>-16.210000000000001</ele>
        <time>2025-05-15T14:55:23Z</time>
      </trkpt>
      <trkpt lat="42.426795037463307" lon="3.160349987447262">
        <ele>-16.210000000000001</ele>
        <time>2025-05-15T14:55:24Z</time>
      </trkpt>
      <trkpt lat="42.426861003041267" lon="3.160349987447262">
        <ele>-15.720000000000001</ele>
        <time>2025-05-15T14:55:25Z</time>
      </trkpt>
      <trkpt lat="42.426949013024569" lon="3.160275975242257">
        <ele>-15.720000000000001</ele>
        <time>2025-05-15T14:55:26Z</time>
      </trkpt>
      <trkpt lat="42.426965022459626" lon="3.16019500605762">
        <ele>-15.720000000000001</ele>
        <time>2025-05-15T14:55:27Z</time>
      </trkpt>
      <trkpt lat="42.426968039944768" lon="3.160083023831248">
        <ele>-15.24</ele>
        <time>2025-05-15T14:55:28Z</time>
      </trkpt>
      <trkpt lat="42.426968039944768" lon="3.159990990534425">
        <ele>-14.76</ele>
        <time>2025-05-15T14:55:29Z</time>
      </trkpt>
      <trkpt lat="42.426968039944768" lon="3.159444993361831">
        <ele>-12.359999999999999</ele>
        <time>2025-05-15T14:55:35Z</time>
      </trkpt>
      <trkpt lat="42.426971979439259" lon="3.159367041662335">
        <ele>-12.359999999999999</ele>
        <time>2025-05-15T14:55:36Z</time>
      </trkpt>
      <trkpt lat="42.427002992480993" lon="3.158767987042666">
        <ele>-10.92</ele>
        <time>2025-05-15T14:55:43Z</time>
      </trkpt>
      <trkpt lat="42.427007015794516" lon="3.158685006201267">
        <ele>-10.92</ele>
        <time>2025-05-15T14:55:44Z</time>
      </trkpt>
      <trkpt lat="42.427028976380825" lon="3.158598002046347">
        <ele>-10.44</ele>
        <time>2025-05-15T14:55:45Z</time>
      </trkpt>
      <trkpt lat="42.42708002217114" lon="3.158557014539838">
        <ele>-10.92</ele>
        <time>2025-05-15T14:55:46Z</time>
      </trkpt>
      <trkpt lat="42.427143976092339" lon="3.15851996652782">
        <ele>-10.92</ele>
        <time>2025-05-15T14:55:47Z</time>
      </trkpt>
      <trkpt lat="42.427214970812201" lon="3.158503035083413">
        <ele>-10.92</ele>
        <time>2025-05-15T14:55:48Z</time>
      </trkpt>
      <trkpt lat="42.427285965532064" lon="3.158486019819975">
        <ele>-10.92</ele>
        <time>2025-05-15T14:55:49Z</time>
      </trkpt>
      <trkpt lat="42.427741019055247" lon="3.158376971259713">
        <ele>-10.44</ele>
        <time>2025-05-15T14:55:55Z</time>
      </trkpt>
      <trkpt lat="42.4281320348382" lon="3.158302959054709">
        <ele>-9.48</ele>
        <time>2025-05-15T14:56:00Z</time>
      </trkpt>
      <trkpt lat="42.428196994587779" lon="3.158335983753204">
        <ele>-9</ele>
        <time>2025-05-15T14:56:01Z</time>
      </trkpt>
      <trkpt lat="42.428277041763067" lon="3.158375965431333">
        <ele>-8.51</ele>
        <time>2025-05-15T14:56:02Z</time>
      </trkpt>
      <trkpt lat="42.428300008177757" lon="3.158465987071395">
        <ele>-8.029999999999999</ele>
        <time>2025-05-15T14:56:03Z</time>
      </trkpt>
      <trkpt lat="42.42830696515739" lon="3.158580986782908">
        <ele>-8.029999999999999</ele>
        <time>2025-05-15T14:56:04Z</time>
      </trkpt>
      <trkpt lat="42.428277041763067" lon="3.158654998987913">
        <ele>-7.07</ele>
        <time>2025-05-15T14:56:05Z</time>
      </trkpt>
      <trkpt lat="42.428219961002469" lon="3.158703027293086">
        <ele>-6.59</ele>
        <time>2025-05-15T14:56:06Z</time>
      </trkpt>
      <trkpt lat="42.428149972110987" lon="3.158761030063033">
        <ele>-6.11</ele>
        <time>2025-05-15T14:56:07Z</time>
      </trkpt>
      <trkpt lat="42.428077971562743" lon="3.15882096067071">
        <ele>-5.15</ele>
        <time>2025-05-15T14:56:08Z</time>
      </trkpt>
      <trkpt lat="42.428004965186119" lon="3.158880975097418">
        <ele>-4.67</ele>
        <time>2025-05-15T14:56:09Z</time>
      </trkpt>
      <trkpt lat="42.427929025143385" lon="3.158937972038984">
        <ele>-3.71</ele>
        <time>2025-05-15T14:56:10Z</time>
      </trkpt>
      <trkpt lat="42.427850989624858" lon="3.158995974808931">
        <ele>-3.23</ele>
        <time>2025-05-15T14:56:11Z</time>
      </trkpt>
      <trkpt lat="42.427761973813176" lon="3.159063030034304">
        <ele>-2.27</ele>
        <time>2025-05-15T14:56:12Z</time>
      </trkpt>
      <trkpt lat="42.427715035155416" lon="3.15914198756218">
        <ele>-1.79</ele>
        <time>2025-05-15T14:56:13Z</time>
      </trkpt>
      <trkpt lat="42.427669018507004" lon="3.159218011423945">
        <ele>-0.82</ele>
        <time>2025-05-15T14:56:14Z</time>
      </trkpt>
      <trkpt lat="42.427629036828876" lon="3.159339968115091">
        <ele>0.14</ele>
        <time>2025-05-15T14:56:15Z</time>
      </trkpt>
      <trkpt lat="42.427620990201831" lon="3.159450022503734">
        <ele>1.1</ele>
        <time>2025-05-15T14:56:16Z</time>
      </trkpt>
      <trkpt lat="42.427613027393818" lon="3.159563010558486">
        <ele>2.06</ele>
        <time>2025-05-15T14:56:17Z</time>
      </trkpt>
      <trkpt lat="42.42764001712203" lon="3.159681027755141">
        <ele>3.02</ele>
        <time>2025-05-15T14:56:18Z</time>
      </trkpt>
      <trkpt lat="42.427663989365101" lon="3.159769037738442">
        <ele>4.94</ele>
        <time>2025-05-15T14:56:19Z</time>
      </trkpt>
      <trkpt lat="42.427703971043229" lon="3.159841960296035">
        <ele>6.87</ele>
        <time>2025-05-15T14:56:20Z</time>
      </trkpt>
      <trkpt lat="42.427756022661924" lon="3.15989401191473">
        <ele>8.310000000000001</ele>
        <time>2025-05-15T14:56:21Z</time>
      </trkpt>
      <trkpt lat="42.42781100794673" lon="3.159947991371155">
        <ele>9.27</ele>
        <time>2025-05-15T14:56:22Z</time>
      </trkpt>
      <trkpt lat="42.427874961867929" lon="3.15997900441289">
        <ele>9.75</ele>
        <time>2025-05-15T14:56:23Z</time>
      </trkpt>
      <trkpt lat="42.427951991558075" lon="3.159961989149451">
        <ele>10.710000000000001</ele>
        <time>2025-05-15T14:56:24Z</time>
      </trkpt>
      <trkpt lat="42.428031032904983" lon="3.159942962229252">
        <ele>11.19</ele>
        <time>2025-05-15T14:56:25Z</time>
      </trkpt>
      <trkpt lat="42.428127005696297" lon="3.159921001642942">
        <ele>11.67</ele>
        <time>2025-05-15T14:56:26Z</time>
      </trkpt>
      <trkpt lat="42.428190959617496" lon="3.159880014136434">
        <ele>12.630000000000001</ele>
        <time>2025-05-15T14:56:27Z</time>
      </trkpt>
      <trkpt lat="42.428257009014487" lon="3.159838020801544">
        <ele>13.119999999999999</ele>
        <time>2025-05-15T14:56:28Z</time>
      </trkpt>
      <trkpt lat="42.428320962935686" lon="3.159797033295035">
        <ele>14.08</ele>
        <time>2025-05-15T14:56:29Z</time>
      </trkpt>
      <trkpt lat="42.428387012332678" lon="3.159755039960146">
        <ele>15.039999999999999</ele>
        <time>2025-05-15T14:56:30Z</time>
      </trkpt>
      <trkpt lat="42.42845700122416" lon="3.159710029140115">
        <ele>16</ele>
        <time>2025-05-15T14:56:31Z</time>
      </trkpt>
      <trkpt lat="42.42860603146255" lon="3.159613972529769">
        <ele>17.920000000000002</ele>
        <time>2025-05-15T14:56:33Z</time>
      </trkpt>
      <trkpt lat="42.42912202142179" lon="3.15925195813179">
        <ele>24.649999999999999</ele>
        <time>2025-05-15T14:56:40Z</time>
      </trkpt>
      <trkpt lat="42.429454028606415" lon="3.158973008394241">
        <ele>28.5</ele>
        <time>2025-05-15T14:56:45Z</time>
      </trkpt>
      <trkpt lat="42.429518988355994" lon="3.158920034766197">
        <ele>28.98</ele>
        <time>2025-05-15T14:56:46Z</time>
      </trkpt>
      <trkpt lat="42.429647985845804" lon="3.158825989812613">
        <ele>29.940000000000001</ele>
        <time>2025-05-15T14:56:48Z</time>
      </trkpt>
      <trkpt lat="42.429709006100893" lon="3.158781984820962">
        <ele>30.420000000000002</ele>
        <time>2025-05-15T14:56:49Z</time>
      </trkpt>
      <trkpt lat="42.429780000820756" lon="3.158800005912781">
        <ele>30.899999999999999</ele>
        <time>2025-05-15T14:56:50Z</time>
      </trkpt>
      <trkpt lat="42.429835991933942" lon="3.158848034217954">
        <ele>31.379999999999999</ele>
        <time>2025-05-15T14:56:51Z</time>
      </trkpt>
      <trkpt lat="42.429886031895876" lon="3.158923974260688">
        <ele>31.859999999999999</ele>
        <time>2025-05-15T14:56:52Z</time>
      </trkpt>
      <trkpt lat="42.429886031895876" lon="3.159018019214273">
        <ele>31.859999999999999</ele>
        <time>2025-05-15T14:56:53Z</time>
      </trkpt>
      <trkpt lat="42.429867004975677" lon="3.159121032804251">
        <ele>32.340000000000003</ele>
        <time>2025-05-15T14:56:54Z</time>
      </trkpt>
      <trkpt lat="42.4298329744488" lon="3.159222034737468">
        <ele>32.340000000000003</ele>
        <time>2025-05-15T14:56:55Z</time>
      </trkpt>
      <trkpt lat="42.429800033569336" lon="3.159325970336795">
        <ele>32.82</ele>
        <time>2025-05-15T14:56:56Z</time>
      </trkpt>
      <trkpt lat="42.429792992770672" lon="3.159448010846973">
        <ele>33.299999999999997</ele>
        <time>2025-05-15T14:56:57Z</time>
      </trkpt>
      <trkpt lat="42.42978704161942" lon="3.159566028043628">
        <ele>33.780000000000001</ele>
        <time>2025-05-15T14:56:58Z</time>
      </trkpt>
      <trkpt lat="42.429748987779021" lon="3.159774988889694">
        <ele>34.740000000000002</ele>
        <time>2025-05-15T14:57:00Z</time>
      </trkpt>
      <trkpt lat="42.429710011929274" lon="3.159860987216234">
        <ele>35.229999999999997</ele>
        <time>2025-05-15T14:57:01Z</time>
      </trkpt>
      <trkpt lat="42.429596018046141" lon="3.160126022994518">
        <ele>36.670000000000002</ele>
        <time>2025-05-15T14:57:04Z</time>
      </trkpt>
      <trkpt lat="42.429559975862503" lon="3.160239011049271">
        <ele>37.630000000000003</ele>
        <time>2025-05-15T14:57:05Z</time>
      </trkpt>
      <trkpt lat="42.429480012506247" lon="3.160696998238564">
        <ele>40.509999999999998</ele>
        <time>2025-05-15T14:57:09Z</time>
      </trkpt>
      <trkpt lat="42.42950901389122" lon="3.160799006000161">
        <ele>40.990000000000002</ele>
        <time>2025-05-15T14:57:10Z</time>
      </trkpt>
      <trkpt lat="42.429541032761335" lon="3.160890033468604">
        <ele>41.950000000000003</ele>
        <time>2025-05-15T14:57:11Z</time>
      </trkpt>
      <trkpt lat="42.429577996954322" lon="3.160992041230202">
        <ele>42.920000000000002</ele>
        <time>2025-05-15T14:57:12Z</time>
      </trkpt>
      <trkpt lat="42.429630970582366" lon="3.161089019849896">
        <ele>43.399999999999999</ele>
        <time>2025-05-15T14:57:13Z</time>
      </trkpt>
      <trkpt lat="42.429694002494216" lon="3.161191027611494">
        <ele>44.359999999999999</ele>
        <time>2025-05-15T14:57:14Z</time>
      </trkpt>
      <trkpt lat="42.429758040234447" lon="3.161294041201472">
        <ele>44.840000000000003</ele>
        <time>2025-05-15T14:57:15Z</time>
      </trkpt>
      <trkpt lat="42.429842026904225" lon="3.161378027871251">
        <ele>45.799999999999997</ele>
        <time>2025-05-15T14:57:16Z</time>
      </trkpt>
      <trkpt lat="42.429929031059146" lon="3.161466037854552">
        <ele>46.280000000000001</ele>
        <time>2025-05-15T14:57:17Z</time>
      </trkpt>
      <trkpt lat="42.430046964436769" lon="3.161487998440862">
        <ele>47.240000000000002</ele>
        <time>2025-05-15T14:57:18Z</time>
      </trkpt>
      <trkpt lat="42.430185014382005" lon="3.161513982340694">
        <ele>47.719999999999999</ele>
        <time>2025-05-15T14:57:19Z</time>
      </trkpt>
      <trkpt lat="42.430333038792014" lon="3.16152798011899">
        <ele>48.68</ele>
        <time>2025-05-15T14:57:20Z</time>
      </trkpt>
      <trkpt lat="42.43060402572155" lon="3.161515993997455">
        <ele>50.609999999999999</ele>
        <time>2025-05-15T14:57:22Z</time>
      </trkpt>
      <trkpt lat="42.430765964090824" lon="3.161509037017822">
        <ele>51.090000000000003</ele>
        <time>2025-05-15T14:57:23Z</time>
      </trkpt>
      <trkpt lat="42.430865038186312" lon="3.161457991227508">
        <ele>52.530000000000001</ele>
        <time>2025-05-15T14:57:24Z</time>
      </trkpt>
      <trkpt lat="42.431671964004636" lon="3.161000004038215">
        <ele>57.82</ele>
        <time>2025-05-15T14:57:30Z</time>
      </trkpt>
      <trkpt lat="42.431797021999955" lon="3.160906964913011">
        <ele>58.780000000000001</ele>
        <time>2025-05-15T14:57:31Z</time>
      </trkpt>
      <trkpt lat="42.43221896700561" lon="3.160485019907355">
        <ele>62.619999999999997</ele>
        <time>2025-05-15T14:57:37Z</time>
      </trkpt>
      <trkpt lat="42.432260038331151" lon="3.160458030179143">
        <ele>63.100000000000001</ele>
        <time>2025-05-15T14:57:38Z</time>
      </trkpt>
      <trkpt lat="42.432342013344169" lon="3.160458030179143">
        <ele>64.069999999999993</ele>
        <time>2025-05-15T14:57:40Z</time>
      </trkpt>
      <trkpt lat="42.432404039427638" lon="3.160470016300678">
        <ele>64.549999999999997</ele>
        <time>2025-05-15T14:57:41Z</time>
      </trkpt>
      <trkpt lat="42.432442009449005" lon="3.160531958565116">
        <ele>64.549999999999997</ele>
        <time>2025-05-15T14:57:42Z</time>
      </trkpt>
      <trkpt lat="42.432470005005598" lon="3.160615023225546">
        <ele>65.510000000000005</ele>
        <time>2025-05-15T14:57:43Z</time>
      </trkpt>
      <trkpt lat="42.432468999177217" lon="3.160730022937059">
        <ele>65.989999999999995</ele>
        <time>2025-05-15T14:57:44Z</time>
      </trkpt>
      <trkpt lat="42.43243102915585" lon="3.160824989899993">
        <ele>66.469999999999999</ele>
        <time>2025-05-15T14:57:45Z</time>
      </trkpt>
      <trkpt lat="42.432390041649342" lon="3.160929009318352">
        <ele>66.950000000000003</ele>
        <time>2025-05-15T14:57:46Z</time>
      </trkpt>
      <trkpt lat="42.43234695866704" lon="3.161038979887962">
        <ele>67.909999999999997</ele>
        <time>2025-05-15T14:57:47Z</time>
      </trkpt>
      <trkpt lat="42.432260038331151" lon="3.161260010674596">
        <ele>69.349999999999994</ele>
        <time>2025-05-15T14:57:49Z</time>
      </trkpt>
      <trkpt lat="42.432226007804275" lon="3.16137601621449">
        <ele>69.829999999999998</ele>
        <time>2025-05-15T14:57:50Z</time>
      </trkpt>
      <trkpt lat="42.432197006419301" lon="3.161494033411145">
        <ele>70.310000000000002</ele>
        <time>2025-05-15T14:57:51Z</time>
      </trkpt>
      <trkpt lat="42.432169010862708" lon="3.161607021465898">
        <ele>70.790000000000006</ele>
        <time>2025-05-15T14:57:52Z</time>
      </trkpt>
      <trkpt lat="42.432160964235663" lon="3.161725960671902">
        <ele>71.760000000000005</ele>
        <time>2025-05-15T14:57:53Z</time>
      </trkpt>
      <trkpt lat="42.432160964235663" lon="3.161850012838841">
        <ele>72.239999999999995</ele>
        <time>2025-05-15T14:57:54Z</time>
      </trkpt>
      <trkpt lat="42.432160964235663" lon="3.161970041692257">
        <ele>72.719999999999999</ele>
        <time>2025-05-15T14:57:55Z</time>
      </trkpt>
      <trkpt lat="42.43217596784234" lon="3.162075988948345">
        <ele>73.200000000000003</ele>
        <time>2025-05-15T14:57:56Z</time>
      </trkpt>
      <trkpt lat="42.432190971449018" lon="3.162177996709943">
        <ele>74.159999999999997</ele>
        <time>2025-05-15T14:57:57Z</time>
      </trkpt>
      <trkpt lat="42.432203963398933" lon="3.162259971722961">
        <ele>74.640000000000001</ele>
        <time>2025-05-15T14:57:58Z</time>
      </trkpt>
      <trkpt lat="42.432255009189248" lon="3.162329038605094">
        <ele>75.120000000000005</ele>
        <time>2025-05-15T14:57:59Z</time>
      </trkpt>
      <trkpt lat="42.432305971160531" lon="3.162396010011435">
        <ele>76.079999999999998</ele>
        <time>2025-05-15T14:58:00Z</time>
      </trkpt>
      <trkpt lat="42.432352993637323" lon="3.162434985861182">
        <ele>76.560000000000002</ele>
        <time>2025-05-15T14:58:01Z</time>
      </trkpt>
      <trkpt lat="42.432433040812612" lon="3.162447977811098">
        <ele>77.040000000000006</ele>
        <time>2025-05-15T14:58:02Z</time>
      </trkpt>
      <trkpt lat="42.432510992512107" lon="3.162460969761014">
        <ele>77.519999999999996</ele>
        <time>2025-05-15T14:58:03Z</time>
      </trkpt>
      <trkpt lat="42.432579975575209" lon="3.162473039701581">
        <ele>78</ele>
        <time>2025-05-15T14:58:04Z</time>
      </trkpt>
      <trkpt lat="42.432636972516775" lon="3.162482008337975">
        <ele>78</ele>
        <time>2025-05-15T14:58:05Z</time>
      </trkpt>
      <trkpt lat="42.43268801830709" lon="3.162490976974368">
        <ele>78.480000000000004</ele>
        <time>2025-05-15T14:58:06Z</time>
      </trkpt>
      <trkpt lat="42.432746021077037" lon="3.162501035258174">
        <ele>78.480000000000004</ele>
        <time>2025-05-15T14:58:07Z</time>
      </trkpt>
      <trkpt lat="42.432976020500064" lon="3.162539005279541">
        <ele>78.969999999999999</ele>
        <time>2025-05-15T14:58:10Z</time>
      </trkpt>
      <trkpt lat="42.433254970237613" lon="3.162689041346312">
        <ele>79.930000000000007</ele>
        <time>2025-05-15T14:58:14Z</time>
      </trkpt>
      <trkpt lat="42.433296963572502" lon="3.162747966125608">
        <ele>80.409999999999997</ele>
        <time>2025-05-15T14:58:15Z</time>
      </trkpt>
      <trkpt lat="42.433363012969494" lon="3.16283899359405">
        <ele>80.409999999999997</ele>
        <time>2025-05-15T14:58:16Z</time>
      </trkpt>
      <trkpt lat="42.433380028232932" lon="3.162906970828772">
        <ele>80.409999999999997</ele>
        <time>2025-05-15T14:58:17Z</time>
      </trkpt>
      <trkpt lat="42.433401988819242" lon="3.16298802383244">
        <ele>79.930000000000007</ele>
        <time>2025-05-15T14:58:18Z</time>
      </trkpt>
      <trkpt lat="42.433424033224583" lon="3.163071004673839">
        <ele>80.409999999999997</ele>
        <time>2025-05-15T14:58:19Z</time>
      </trkpt>
      <trkpt lat="42.433448005467653" lon="3.163161026313901">
        <ele>80.409999999999997</ele>
        <time>2025-05-15T14:58:20Z</time>
      </trkpt>
      <trkpt lat="42.433448005467653" lon="3.163275020197034">
        <ele>80.890000000000001</ele>
        <time>2025-05-15T14:58:21Z</time>
      </trkpt>
      <trkpt lat="42.433448005467653" lon="3.163385996595025">
        <ele>81.370000000000005</ele>
        <time>2025-05-15T14:58:22Z</time>
      </trkpt>
      <trkpt lat="42.433407017961144" lon="3.163513988256455">
        <ele>81.849999999999994</ele>
        <time>2025-05-15T14:58:23Z</time>
      </trkpt>
      <trkpt lat="42.433353960514069" lon="3.163609961047769">
        <ele>82.329999999999998</ele>
        <time>2025-05-15T14:58:24Z</time>
      </trkpt>
      <trkpt lat="42.433330994099379" lon="3.163711968809366">
        <ele>82.810000000000002</ele>
        <time>2025-05-15T14:58:25Z</time>
      </trkpt>
      <trkpt lat="42.433320013806224" lon="3.163836020976305">
        <ele>83.290000000000006</ele>
        <time>2025-05-15T14:58:26Z</time>
      </trkpt>
      <trkpt lat="42.433324037119746" lon="3.163979016244412">
        <ele>83.769999999999996</ele>
        <time>2025-05-15T14:58:27Z</time>
      </trkpt>
      <trkpt lat="42.433326970785856" lon="3.164131985977292">
        <ele>84.25</ele>
        <time>2025-05-15T14:58:28Z</time>
      </trkpt>
      <trkpt lat="42.433330994099379" lon="3.164296019822359">
        <ele>84.730000000000004</ele>
        <time>2025-05-15T14:58:29Z</time>
      </trkpt>
      <trkpt lat="42.433335017412901" lon="3.164452007040381">
        <ele>85.209999999999994</ele>
        <time>2025-05-15T14:58:30Z</time>
      </trkpt>
      <trkpt lat="42.433364018797874" lon="3.164797006174922">
        <ele>88.099999999999994</ele>
        <time>2025-05-15T14:58:33Z</time>
      </trkpt>
      <trkpt lat="42.433393020182848" lon="3.164884010329843">
        <ele>89.060000000000002</ele>
        <time>2025-05-15T14:58:34Z</time>
      </trkpt>
      <trkpt lat="42.433422021567822" lon="3.164970008656383">
        <ele>89.540000000000006</ele>
        <time>2025-05-15T14:58:35Z</time>
      </trkpt>
      <trkpt lat="42.433449011296034" lon="3.1650519836694">
        <ele>90.5</ele>
        <time>2025-05-15T14:58:36Z</time>
      </trkpt>
      <trkpt lat="42.433469966053963" lon="3.16511400975287">
        <ele>91.459999999999994</ele>
        <time>2025-05-15T14:58:37Z</time>
      </trkpt>
      <trkpt lat="42.433459991589189" lon="3.16517997533083">
        <ele>91.939999999999998</ele>
        <time>2025-05-15T14:58:38Z</time>
      </trkpt>
      <trkpt lat="42.433449011296034" lon="3.165257005020976">
        <ele>92.900000000000006</ele>
        <time>2025-05-15T14:58:39Z</time>
      </trkpt>
      <trkpt lat="42.433423027396202" lon="3.165290029719472">
        <ele>93.390000000000001</ele>
        <time>2025-05-15T14:58:40Z</time>
      </trkpt>
      <trkpt lat="42.43337600491941" lon="3.165335962548852">
        <ele>94.349999999999994</ele>
        <time>2025-05-15T14:58:41Z</time>
      </trkpt>
      <trkpt lat="42.433320013806224" lon="3.165392959490418">
        <ele>95.310000000000002</ele>
        <time>2025-05-15T14:58:42Z</time>
      </trkpt>
      <trkpt lat="42.433278020471334" lon="3.165393965318799">
        <ele>96.269999999999996</ele>
        <time>2025-05-15T14:58:43Z</time>
      </trkpt>
      <trkpt lat="42.433209037408233" lon="3.16539597697556">
        <ele>97.230000000000004</ele>
        <time>2025-05-15T14:58:44Z</time>
      </trkpt>
      <trkpt lat="42.432698998600245" lon="3.165412992238998">
        <ele>101.56</ele>
        <time>2025-05-15T14:58:50Z</time>
      </trkpt>
      <trkpt lat="42.432622974738479" lon="3.165433024987578">
        <ele>102.04000000000001</ele>
        <time>2025-05-15T14:58:51Z</time>
      </trkpt>
      <trkpt lat="42.432552985846996" lon="3.165473006665707">
        <ele>102.52</ele>
        <time>2025-05-15T14:58:52Z</time>
      </trkpt>
      <trkpt lat="42.432479979470372" lon="3.165516005828977">
        <ele>103</ele>
        <time>2025-05-15T14:58:53Z</time>
      </trkpt>
      <trkpt lat="42.432396998628974" lon="3.16556503996253">
        <ele>103.95999999999999</ele>
        <time>2025-05-15T14:58:54Z</time>
      </trkpt>
      <trkpt lat="42.432340001687407" lon="3.16565103828907">
        <ele>104.44</ele>
        <time>2025-05-15T14:58:55Z</time>
      </trkpt>
      <trkpt lat="42.432228019461036" lon="3.16582496277988">
        <ele>105.88</ele>
        <time>2025-05-15T14:58:57Z</time>
      </trkpt>
      <trkpt lat="42.43217303417623" lon="3.16590802744031">
        <ele>106.36</ele>
        <time>2025-05-15T14:58:58Z</time>
      </trkpt>
      <trkpt lat="42.431968012824655" lon="3.1664680223912">
        <ele>109.73</ele>
        <time>2025-05-15T14:59:04Z</time>
      </trkpt>
      <trkpt lat="42.431968012824655" lon="3.166552009060979">
        <ele>110.69</ele>
        <time>2025-05-15T14:59:05Z</time>
      </trkpt>
      <trkpt lat="42.431968012824655" lon="3.166615962982178">
        <ele>111.17</ele>
        <time>2025-05-15T14:59:06Z</time>
      </trkpt>
      <trkpt lat="42.432035990059376" lon="3.166667008772492">
        <ele>112.13</ele>
        <time>2025-05-15T14:59:07Z</time>
      </trkpt>
      <trkpt lat="42.432088041678071" lon="3.16670598462224">
        <ele>113.09</ele>
        <time>2025-05-15T14:59:08Z</time>
      </trkpt>
      <trkpt lat="42.432134980335832" lon="3.166741020977497">
        <ele>113.56999999999999</ele>
        <time>2025-05-15T14:59:09Z</time>
      </trkpt>
      <trkpt lat="42.432187031954527" lon="3.166713025420904">
        <ele>114.53</ele>
        <time>2025-05-15T14:59:10Z</time>
      </trkpt>
      <trkpt lat="42.432246040552855" lon="3.166673965752125">
        <ele>115.5</ele>
        <time>2025-05-15T14:59:11Z</time>
      </trkpt>
      <trkpt lat="42.432288033887744" lon="3.166598025709391">
        <ele>115.98</ele>
        <time>2025-05-15T14:59:12Z</time>
      </trkpt>
      <trkpt lat="42.432311000302434" lon="3.166529964655638">
        <ele>116.94</ele>
        <time>2025-05-15T14:59:13Z</time>
      </trkpt>
      <trkpt lat="42.432311000302434" lon="3.166395016014576">
        <ele>118.38</ele>
        <time>2025-05-15T14:59:14Z</time>
      </trkpt>
      <trkpt lat="42.432311000302434" lon="3.166298037394881">
        <ele>119.34</ele>
        <time>2025-05-15T14:59:15Z</time>
      </trkpt>
      <trkpt lat="42.432311000302434" lon="3.166100978851318">
        <ele>121.26000000000001</ele>
        <time>2025-05-15T14:59:18Z</time>
      </trkpt>
      <trkpt lat="42.432362968102098" lon="3.16601799800992">
        <ele>121.73999999999999</ele>
        <time>2025-05-15T14:59:19Z</time>
      </trkpt>
      <trkpt lat="42.432418037205935" lon="3.165928982198238">
        <ele>122.22</ele>
        <time>2025-05-15T14:59:20Z</time>
      </trkpt>
      <trkpt lat="42.432479979470372" lon="3.165898974984884">
        <ele>122.70999999999999</ele>
        <time>2025-05-15T14:59:21Z</time>
      </trkpt>
      <trkpt lat="42.432547034695745" lon="3.16586502827704">
        <ele>123.19</ele>
        <time>2025-05-15T14:59:22Z</time>
      </trkpt>
      <trkpt lat="42.432638984173536" lon="3.165852958336473">
        <ele>123.19</ele>
        <time>2025-05-15T14:59:23Z</time>
      </trkpt>
      <trkpt lat="42.432720959186554" lon="3.165841978043318">
        <ele>123.19</ele>
        <time>2025-05-15T14:59:24Z</time>
      </trkpt>
      <trkpt lat="42.432807963341475" lon="3.165829991921783">
        <ele>123.19</ele>
        <time>2025-05-15T14:59:25Z</time>
      </trkpt>
      <trkpt lat="42.432907037436962" lon="3.165838038548827">
        <ele>123.19</ele>
        <time>2025-05-15T14:59:26Z</time>
      </trkpt>
      <trkpt lat="42.433019019663334" lon="3.165882965549827">
        <ele>123.19</ele>
        <time>2025-05-15T14:59:27Z</time>
      </trkpt>
      <trkpt lat="42.43314198218286" lon="3.165934011340141">
        <ele>123.67</ele>
        <time>2025-05-15T14:59:28Z</time>
      </trkpt>
      <trkpt lat="42.433276008814573" lon="3.165988996624947">
        <ele>124.15000000000001</ele>
        <time>2025-05-15T14:59:29Z</time>
      </trkpt>
      <trkpt lat="42.433409029617906" lon="3.16604096442461">
        <ele>124.63</ele>
        <time>2025-05-15T14:59:30Z</time>
      </trkpt>
      <trkpt lat="42.433531992137432" lon="3.166088992729783">
        <ele>125.59</ele>
        <time>2025-05-15T14:59:31Z</time>
      </trkpt>
      <trkpt lat="42.433638023212552" lon="3.166120005771518">
        <ele>126.55</ele>
        <time>2025-05-15T14:59:32Z</time>
      </trkpt>
      <trkpt lat="42.433736007660627" lon="3.166108019649983">
        <ele>127.03</ele>
        <time>2025-05-15T14:59:33Z</time>
      </trkpt>
      <trkpt lat="42.433825023472309" lon="3.166054040193558">
        <ele>127.98999999999999</ele>
        <time>2025-05-15T14:59:34Z</time>
      </trkpt>
      <trkpt lat="42.433888977393508" lon="3.165961001068354">
        <ele>128.47</ele>
        <time>2025-05-15T14:59:35Z</time>
      </trkpt>
      <trkpt lat="42.433952009305358" lon="3.165855975821614">
        <ele>129.43000000000001</ele>
        <time>2025-05-15T14:59:36Z</time>
      </trkpt>
      <trkpt lat="42.433997020125389" lon="3.165720021352172">
        <ele>129.91999999999999</ele>
        <time>2025-05-15T14:59:37Z</time>
      </trkpt>
      <trkpt lat="42.434048987925053" lon="3.165565961971879">
        <ele>130.40000000000001</ele>
        <time>2025-05-15T14:59:38Z</time>
      </trkpt>
      <trkpt lat="42.434091987088323" lon="3.165435958653688">
        <ele>130.88</ele>
        <time>2025-05-15T14:59:39Z</time>
      </trkpt>
      <trkpt lat="42.434106990695" lon="3.165213000029326">
        <ele>131.84</ele>
        <time>2025-05-15T14:59:40Z</time>
      </trkpt>
      <trkpt lat="42.434119982644916" lon="3.165015019476414">
        <ele>132.80000000000001</ele>
        <time>2025-05-15T14:59:41Z</time>
      </trkpt>
      <trkpt lat="42.434147978201509" lon="3.16459801979363">
        <ele>134.72</ele>
        <time>2025-05-15T14:59:43Z</time>
      </trkpt>
      <trkpt lat="42.434182008728385" lon="3.164387969300151">
        <ele>136.16</ele>
        <time>2025-05-15T14:59:44Z</time>
      </trkpt>
      <trkpt lat="42.434246968477964" lon="3.164182025939226">
        <ele>137.13</ele>
        <time>2025-05-15T14:59:45Z</time>
      </trkpt>
      <trkpt lat="42.43445098400116" lon="3.163536032661796">
        <ele>140.97</ele>
        <time>2025-05-15T14:59:48Z</time>
      </trkpt>
      <trkpt lat="42.434520972892642" lon="3.163303015753627">
        <ele>142.41</ele>
        <time>2025-05-15T14:59:49Z</time>
      </trkpt>
      <trkpt lat="42.434518039226532" lon="3.163063963875175">
        <ele>143.84999999999999</ele>
        <time>2025-05-15T14:59:50Z</time>
      </trkpt>
      <trkpt lat="42.434512004256248" lon="3.16163401119411">
        <ele>151.53999999999999</ele>
        <time>2025-05-15T14:59:56Z</time>
      </trkpt>
      <trkpt lat="42.434539999812841" lon="3.161412980407476">
        <ele>152.99000000000001</ele>
        <time>2025-05-15T14:59:57Z</time>
      </trkpt>
      <trkpt lat="42.434590961784124" lon="3.161208964884281">
        <ele>153.94999999999999</ele>
        <time>2025-05-15T14:59:58Z</time>
      </trkpt>
      <trkpt lat="42.434701016172767" lon="3.160571018233895">
        <ele>156.83000000000001</ele>
        <time>2025-05-15T15:00:01Z</time>
      </trkpt>
      <trkpt lat="42.43470897898078" lon="3.160354010760784">
        <ele>157.78999999999999</ele>
        <time>2025-05-15T15:00:02Z</time>
      </trkpt>
      <trkpt lat="42.434734962880611" lon="3.159972969442606">
        <ele>159.24000000000001</ele>
        <time>2025-05-15T15:00:04Z</time>
      </trkpt>
      <trkpt lat="42.434786008670926" lon="3.159826034680009">
        <ele>159.72</ele>
        <time>2025-05-15T15:00:05Z</time>
      </trkpt>
      <trkpt lat="42.434848034754395" lon="3.159697037190199">
        <ele>160.19999999999999</ele>
        <time>2025-05-15T15:00:06Z</time>
      </trkpt>
      <trkpt lat="42.434935038909316" lon="3.159596035256982">
        <ele>160.19999999999999</ele>
        <time>2025-05-15T15:00:07Z</time>
      </trkpt>
      <trkpt lat="42.435012990608811" lon="3.159505007788539">
        <ele>160.68000000000001</ele>
        <time>2025-05-15T15:00:08Z</time>
      </trkpt>
      <trkpt lat="42.435079040005803" lon="3.159427978098393">
        <ele>160.68000000000001</ele>
        <time>2025-05-15T15:00:09Z</time>
      </trkpt>
      <trkpt lat="42.435085996985435" lon="3.159296968951821">
        <ele>160.19999999999999</ele>
        <time>2025-05-15T15:00:10Z</time>
      </trkpt>
      <trkpt lat="42.435093959793448" lon="3.15916595980525">
        <ele>160.19999999999999</ele>
        <time>2025-05-15T15:00:11Z</time>
      </trkpt>
      <trkpt lat="42.43509697727859" lon="3.159024976193905">
        <ele>159.72</ele>
        <time>2025-05-15T15:00:12Z</time>
      </trkpt>
      <trkpt lat="42.435063030570745" lon="3.158871000632644">
        <ele>159.72</ele>
        <time>2025-05-15T15:00:13Z</time>
      </trkpt>
      <trkpt lat="42.435024976730347" lon="3.158708978444338">
        <ele>159.72</ele>
        <time>2025-05-15T15:00:14Z</time>
      </trkpt>
      <trkpt lat="42.434989018365741" lon="3.158546034246683">
        <ele>159.24000000000001</ele>
        <time>2025-05-15T15:00:15Z</time>
      </trkpt>
      <trkpt lat="42.434960016980767" lon="3.158393986523151">
        <ele>158.75</ele>
        <time>2025-05-15T15:00:16Z</time>
      </trkpt>
      <trkpt lat="42.434934033080935" lon="3.158250991255045">
        <ele>158.75</ele>
        <time>2025-05-15T15:00:17Z</time>
      </trkpt>
      <trkpt lat="42.434940990060568" lon="3.158100033178926">
        <ele>158.27000000000001</ele>
        <time>2025-05-15T15:00:18Z</time>
      </trkpt>
      <trkpt lat="42.434954987838864" lon="3.157948991283774">
        <ele>157.31</ele>
        <time>2025-05-15T15:00:19Z</time>
      </trkpt>
      <trkpt lat="42.434972003102303" lon="3.157774982973933">
        <ele>156.83000000000001</ele>
        <time>2025-05-15T15:00:20Z</time>
      </trkpt>
      <trkpt lat="42.435032017529011" lon="3.157612038776279">
        <ele>156.34999999999999</ele>
        <time>2025-05-15T15:00:21Z</time>
      </trkpt>
      <trkpt lat="42.435099994763732" lon="3.157429983839393">
        <ele>155.87</ele>
        <time>2025-05-15T15:00:22Z</time>
      </trkpt>
      <trkpt lat="42.435168977826834" lon="3.157243989408016">
        <ele>155.38999999999999</ele>
        <time>2025-05-15T15:00:23Z</time>
      </trkpt>
      <trkpt lat="42.435254976153374" lon="3.157068975269795">
        <ele>154.43000000000001</ele>
        <time>2025-05-15T15:00:24Z</time>
      </trkpt>
      <trkpt lat="42.435350026935339" lon="3.156902007758617">
        <ele>153.47</ele>
        <time>2025-05-15T15:00:25Z</time>
      </trkpt>
      <trkpt lat="42.43546100333333" lon="3.15677996724844">
        <ele>152.99000000000001</ele>
        <time>2025-05-15T15:00:26Z</time>
      </trkpt>
      <trkpt lat="42.435570973902941" lon="3.15667100250721">
        <ele>152.50999999999999</ele>
        <time>2025-05-15T15:00:27Z</time>
      </trkpt>
      <trkpt lat="42.43569603189826" lon="3.15660897642374">
        <ele>152.03</ele>
        <time>2025-05-15T15:00:28Z</time>
      </trkpt>
      <trkpt lat="42.435822011902928" lon="3.156546028330922">
        <ele>151.06</ele>
        <time>2025-05-15T15:00:29Z</time>
      </trkpt>
      <trkpt lat="42.435946986079216" lon="3.156482996419072">
        <ele>150.58000000000001</ele>
        <time>2025-05-15T15:00:30Z</time>
      </trkpt>
      <trkpt lat="42.43606198579073" lon="3.156425999477506">
        <ele>149.62</ele>
        <time>2025-05-15T15:00:31Z</time>
      </trkpt>
      <trkpt lat="42.436152007430792" lon="3.156380988657475">
        <ele>149.13999999999999</ele>
        <time>2025-05-15T15:00:32Z</time>
      </trkpt>
      <trkpt lat="42.436231970787048" lon="3.156433962285519">
        <ele>149.13999999999999</ele>
        <time>2025-05-15T15:00:33Z</time>
      </trkpt>
      <trkpt lat="42.436281004920602" lon="3.156466986984015">
        <ele>148.66</ele>
        <time>2025-05-15T15:00:34Z</time>
      </trkpt>
      <trkpt lat="42.436281004920602" lon="3.156560026109219">
        <ele>148.18000000000001</ele>
        <time>2025-05-15T15:00:35Z</time>
      </trkpt>
      <trkpt lat="42.436275975778699" lon="3.156645018607378">
        <ele>147.69999999999999</ele>
        <time>2025-05-15T15:00:36Z</time>
      </trkpt>
      <trkpt lat="42.436229959130287" lon="3.15671400167048">
        <ele>147.22</ele>
        <time>2025-05-15T15:00:37Z</time>
      </trkpt>
      <trkpt lat="42.436156030744314" lon="3.156769992783666">
        <ele>146.74000000000001</ele>
        <time>2025-05-15T15:00:38Z</time>
      </trkpt>
      <trkpt lat="42.436060979962349" lon="3.15677803941071">
        <ele>145.78</ele>
        <time>2025-05-15T15:00:39Z</time>
      </trkpt>
      <trkpt lat="42.435958972200751" lon="3.156786002218723">
        <ele>144.81999999999999</ele>
        <time>2025-05-15T15:00:40Z</time>
      </trkpt>
      <trkpt lat="42.435866016894579" lon="3.156809974461794">
        <ele>143.84999999999999</ele>
        <time>2025-05-15T15:00:41Z</time>
      </trkpt>
      <trkpt lat="42.435764009132981" lon="3.156841993331909">
        <ele>142.88999999999999</ele>
        <time>2025-05-15T15:00:42Z</time>
      </trkpt>
      <trkpt lat="42.435657978057861" lon="3.156874012202025">
        <ele>141.44999999999999</ele>
        <time>2025-05-15T15:00:43Z</time>
      </trkpt>
      <trkpt lat="42.435597041621804" lon="3.156990017741919">
        <ele>140.49000000000001</ele>
        <time>2025-05-15T15:00:44Z</time>
      </trkpt>
      <trkpt lat="42.43552403524518" lon="3.157128989696503">
        <ele>139.53</ele>
        <time>2025-05-15T15:00:45Z</time>
      </trkpt>
      <trkpt lat="42.435453962534666" lon="3.15729402936995">
        <ele>138.56999999999999</ele>
        <time>2025-05-15T15:00:46Z</time>
      </trkpt>
      <trkpt lat="42.435415992513299" lon="3.157476000487804">
        <ele>137.61000000000001</ele>
        <time>2025-05-15T15:00:47Z</time>
      </trkpt>
      <trkpt lat="42.435379028320312" lon="3.157654032111168">
        <ele>136.63999999999999</ele>
        <time>2025-05-15T15:00:48Z</time>
      </trkpt>
      <trkpt lat="42.435357989743352" lon="3.157994002103806">
        <ele>134.72</ele>
        <time>2025-05-15T15:00:50Z</time>
      </trkpt>
      <trkpt lat="42.435377016663551" lon="3.158141020685434">
        <ele>134.24000000000001</ele>
        <time>2025-05-15T15:00:51Z</time>
      </trkpt>
      <trkpt lat="42.435421021655202" lon="3.158291978761554">
        <ele>133.75999999999999</ele>
        <time>2025-05-15T15:00:52Z</time>
      </trkpt>
      <trkpt lat="42.435468966141343" lon="3.158460035920143">
        <ele>133.28</ele>
        <time>2025-05-15T15:00:53Z</time>
      </trkpt>
      <trkpt lat="42.435522023588419" lon="3.158642007037997">
        <ele>132.80000000000001</ele>
        <time>2025-05-15T15:00:54Z</time>
      </trkpt>
      <trkpt lat="42.435574997216463" lon="3.158826995640993">
        <ele>132.31999999999999</ele>
        <time>2025-05-15T15:00:55Z</time>
      </trkpt>
      <trkpt lat="42.435657978057861" lon="3.15899102948606">
        <ele>131.84</ele>
        <time>2025-05-15T15:00:56Z</time>
      </trkpt>
      <trkpt lat="42.43576199747622" lon="3.159152967855334">
        <ele>131.36000000000001</ele>
        <time>2025-05-15T15:00:57Z</time>
      </trkpt>
      <trkpt lat="42.436462976038456" lon="3.160288967192173">
        <ele>127.03</ele>
        <time>2025-05-15T15:01:03Z</time>
      </trkpt>
      <trkpt lat="42.436602031812072" lon="3.160455012694001">
        <ele>126.06999999999999</ele>
        <time>2025-05-15T15:01:04Z</time>
      </trkpt>
      <trkpt lat="42.436847034841776" lon="3.160747038200498">
        <ele>123.67</ele>
        <time>2025-05-15T15:01:06Z</time>
      </trkpt>
      <trkpt lat="42.436953987926245" lon="3.160886010155082">
        <ele>122.70999999999999</ele>
        <time>2025-05-15T15:01:07Z</time>
      </trkpt>
      <trkpt lat="42.437173007056117" lon="3.161463020369411">
        <ele>119.34</ele>
        <time>2025-05-15T15:01:10Z</time>
      </trkpt>
      <trkpt lat="42.437241990119219" lon="3.161642979830504">
        <ele>118.38</ele>
        <time>2025-05-15T15:01:11Z</time>
      </trkpt>
      <trkpt lat="42.43730703368783" lon="3.161815982311964">
        <ele>117.42</ele>
        <time>2025-05-15T15:01:12Z</time>
      </trkpt>
      <trkpt lat="42.437391020357609" lon="3.161970041692257">
        <ele>116.45999999999999</ele>
        <time>2025-05-15T15:01:13Z</time>
      </trkpt>
      <trkpt lat="42.437504008412361" lon="3.162067020311952">
        <ele>115.98</ele>
        <time>2025-05-15T15:01:14Z</time>
      </trkpt>
      <trkpt lat="42.437621019780636" lon="3.162126028910279">
        <ele>115.01000000000001</ele>
        <time>2025-05-15T15:01:15Z</time>
      </trkpt>
      <trkpt lat="42.437734007835388" lon="3.162182020023465">
        <ele>114.53</ele>
        <time>2025-05-15T15:01:16Z</time>
      </trkpt>
      <trkpt lat="42.437821011990309" lon="3.162248991429806">
        <ele>113.56999999999999</ele>
        <time>2025-05-15T15:01:17Z</time>
      </trkpt>
      <trkpt lat="42.437881026417017" lon="3.162361979484558">
        <ele>112.61</ele>
        <time>2025-05-15T15:01:18Z</time>
      </trkpt>
      <trkpt lat="42.437945986166596" lon="3.162485025823116">
        <ele>112.13</ele>
        <time>2025-05-15T15:01:19Z</time>
      </trkpt>
      <trkpt lat="42.438027039170265" lon="3.162612011656165">
        <ele>111.17</ele>
        <time>2025-05-15T15:01:20Z</time>
      </trkpt>
      <trkpt lat="42.438133992254734" lon="3.162717958912253">
        <ele>110.20999999999999</ele>
        <time>2025-05-15T15:01:21Z</time>
      </trkpt>
      <trkpt lat="42.438238011673093" lon="3.162821978330612">
        <ele>109.25</ele>
        <time>2025-05-15T15:01:22Z</time>
      </trkpt>
      <trkpt lat="42.438315963372588" lon="3.162948964163661">
        <ele>108.29000000000001</ele>
        <time>2025-05-15T15:01:23Z</time>
      </trkpt>
      <trkpt lat="42.43838201276958" lon="3.163091959431768">
        <ele>107.31999999999999</ele>
        <time>2025-05-15T15:01:24Z</time>
      </trkpt>
      <trkpt lat="42.438399028033018" lon="3.163264961913228">
        <ele>105.88</ele>
        <time>2025-05-15T15:01:25Z</time>
      </trkpt>
      <trkpt lat="42.438416965305805" lon="3.163457997143269">
        <ele>104.44</ele>
        <time>2025-05-15T15:01:26Z</time>
      </trkpt>
      <trkpt lat="42.438435992226005" lon="3.163656983524561">
        <ele>103</ele>
        <time>2025-05-15T15:01:27Z</time>
      </trkpt>
      <trkpt lat="42.438432974740863" lon="3.16386803984642">
        <ele>102.04000000000001</ele>
        <time>2025-05-15T15:01:28Z</time>
      </trkpt>
      <trkpt lat="42.438396010547876" lon="3.164075994864106">
        <ele>101.08</ele>
        <time>2025-05-15T15:01:29Z</time>
      </trkpt>
      <trkpt lat="42.438358040526509" lon="3.164291996508837">
        <ele>100.11</ele>
        <time>2025-05-15T15:01:30Z</time>
      </trkpt>
      <trkpt lat="42.43831998668611" lon="3.164509003981948">
        <ele>99.150000000000006</ele>
        <time>2025-05-15T15:01:31Z</time>
      </trkpt>
      <trkpt lat="42.438282016664743" lon="3.164723999798298">
        <ele>98.189999999999998</ele>
        <time>2025-05-15T15:01:32Z</time>
      </trkpt>
      <trkpt lat="42.43821102194488" lon="3.165125995874405">
        <ele>96.269999999999996</ele>
        <time>2025-05-15T15:01:34Z</time>
      </trkpt>
      <trkpt lat="42.438142960891128" lon="3.165304027497768">
        <ele>94.829999999999998</ele>
        <time>2025-05-15T15:01:35Z</time>
      </trkpt>
      <trkpt lat="42.438045982271433" lon="3.165429001674056">
        <ele>93.870000000000005</ele>
        <time>2025-05-15T15:01:36Z</time>
      </trkpt>
      <trkpt lat="42.437920002266765" lon="3.165533021092415">
        <ele>92.900000000000006</ele>
        <time>2025-05-15T15:01:37Z</time>
      </trkpt>
      <trkpt lat="42.437783963978291" lon="3.165642991662026">
        <ele>91.939999999999998</ele>
        <time>2025-05-15T15:01:38Z</time>
      </trkpt>
      <trkpt lat="42.437658989802003" lon="3.165743993595243">
        <ele>91.459999999999994</ele>
        <time>2025-05-15T15:01:39Z</time>
      </trkpt>
      <trkpt lat="42.437573997303843" lon="3.165849018841982">
        <ele>90.5</ele>
        <time>2025-05-15T15:01:40Z</time>
      </trkpt>
      <trkpt lat="42.437528986483812" lon="3.165982039645314">
        <ele>90.019999999999996</ele>
        <time>2025-05-15T15:01:41Z</time>
      </trkpt>
      <trkpt lat="42.43747903034091" lon="3.166131991893053">
        <ele>89.060000000000002</ele>
        <time>2025-05-15T15:01:42Z</time>
      </trkpt>
      <trkpt lat="42.437411975115538" lon="3.166290996596217">
        <ele>87.620000000000005</ele>
        <time>2025-05-15T15:01:43Z</time>
      </trkpt>
      <trkpt lat="42.437313990667462" lon="3.166433991864324">
        <ele>86.180000000000007</ele>
        <time>2025-05-15T15:01:44Z</time>
      </trkpt>
      <trkpt lat="42.437216006219387" lon="3.16657698713243">
        <ele>85.209999999999994</ele>
        <time>2025-05-15T15:01:45Z</time>
      </trkpt>
      <trkpt lat="42.437142999842763" lon="3.166727023199201">
        <ele>83.769999999999996</ele>
        <time>2025-05-15T15:01:46Z</time>
      </trkpt>
      <trkpt lat="42.437101006507874" lon="3.166884016245604">
        <ele>82.810000000000002</ele>
        <time>2025-05-15T15:01:47Z</time>
      </trkpt>
      <trkpt lat="42.437067981809378" lon="3.167012007907033">
        <ele>81.849999999999994</ele>
        <time>2025-05-15T15:01:48Z</time>
      </trkpt>
      <trkpt lat="42.437068987637758" lon="3.16711300984025">
        <ele>81.370000000000005</ele>
        <time>2025-05-15T15:01:49Z</time>
      </trkpt>
      <trkpt lat="42.437095977365971" lon="3.167194984853268">
        <ele>80.409999999999997</ele>
        <time>2025-05-15T15:01:50Z</time>
      </trkpt>
      <trkpt lat="42.43715800344944" lon="3.167245024815202">
        <ele>79.930000000000007</ele>
        <time>2025-05-15T15:01:51Z</time>
      </trkpt>
      <trkpt lat="42.437240984290838" lon="3.167291041463614">
        <ele>79.450000000000003</ele>
        <time>2025-05-15T15:01:52Z</time>
      </trkpt>
      <trkpt lat="42.437357995659113" lon="3.167321970686317">
        <ele>78.969999999999999</ele>
        <time>2025-05-15T15:01:53Z</time>
      </trkpt>
      <trkpt lat="42.437487998977304" lon="3.167357007041574">
        <ele>78</ele>
        <time>2025-05-15T15:01:54Z</time>
      </trkpt>
      <trkpt lat="42.4382100161165" lon="3.167548030614853">
        <ele>73.680000000000007</ele>
        <time>2025-05-15T15:02:00Z</time>
      </trkpt>
      <trkpt lat="42.438298026099801" lon="3.167617013677955">
        <ele>72.719999999999999</ele>
        <time>2025-05-15T15:02:01Z</time>
      </trkpt>
      <trkpt lat="42.438364997506142" lon="3.167708041146398">
        <ele>72.239999999999995</ele>
        <time>2025-05-15T15:02:02Z</time>
      </trkpt>
      <trkpt lat="42.43844797834754" lon="3.167818011716008">
        <ele>71.760000000000005</ele>
        <time>2025-05-15T15:02:03Z</time>
      </trkpt>
      <trkpt lat="42.438476979732513" lon="3.167935023084283">
        <ele>71.269999999999996</ele>
        <time>2025-05-15T15:02:04Z</time>
      </trkpt>
      <trkpt lat="42.43851201608777" lon="3.168075000867248">
        <ele>70.790000000000006</ele>
        <time>2025-05-15T15:02:05Z</time>
      </trkpt>
      <trkpt lat="42.438500029966235" lon="3.168182959780097">
        <ele>70.310000000000002</ele>
        <time>2025-05-15T15:02:06Z</time>
      </trkpt>
      <trkpt lat="42.438442027196288" lon="3.168310029432178">
        <ele>69.349999999999994</ele>
        <time>2025-05-15T15:02:07Z</time>
      </trkpt>
      <trkpt lat="42.438357034698129" lon="3.168382029980421">
        <ele>68.870000000000005</ele>
        <time>2025-05-15T15:02:08Z</time>
      </trkpt>
      <trkpt lat="42.438242034986615" lon="3.168480014428496">
        <ele>67.909999999999997</ele>
        <time>2025-05-15T15:02:09Z</time>
      </trkpt>
      <trkpt lat="42.438099961727858" lon="3.168600965291262">
        <ele>66.469999999999999</ele>
        <time>2025-05-15T15:02:10Z</time>
      </trkpt>
      <trkpt lat="42.437945986166596" lon="3.168731974437833">
        <ele>65.510000000000005</ele>
        <time>2025-05-15T15:02:11Z</time>
      </trkpt>
      <trkpt lat="42.437640968710184" lon="3.168989969417453">
        <ele>64.069999999999993</ele>
        <time>2025-05-15T15:02:13Z</time>
      </trkpt>
      <trkpt lat="42.437586989253759" lon="3.169118966907263">
        <ele>63.100000000000001</ele>
        <time>2025-05-15T15:02:14Z</time>
      </trkpt>
      <trkpt lat="42.43756796233356" lon="3.169201025739312">
        <ele>62.619999999999997</ele>
        <time>2025-05-15T15:02:15Z</time>
      </trkpt>
      <trkpt lat="42.43756796233356" lon="3.169341003522277">
        <ele>62.140000000000001</ele>
        <time>2025-05-15T15:02:16Z</time>
      </trkpt>
      <trkpt lat="42.437606016173959" lon="3.169471006840468">
        <ele>61.18</ele>
        <time>2025-05-15T15:02:17Z</time>
      </trkpt>
      <trkpt lat="42.437657983973622" lon="3.169646020978689">
        <ele>60.700000000000003</ele>
        <time>2025-05-15T15:02:18Z</time>
      </trkpt>
      <trkpt lat="42.437726967036724" lon="3.169778035953641">
        <ele>59.740000000000002</ele>
        <time>2025-05-15T15:02:19Z</time>
      </trkpt>
      <trkpt lat="42.437824029475451" lon="3.169870991259813">
        <ele>58.780000000000001</ele>
        <time>2025-05-15T15:02:20Z</time>
      </trkpt>
      <trkpt lat="42.437955960631371" lon="3.169918013736606">
        <ele>57.82</ele>
        <time>2025-05-15T15:02:21Z</time>
      </trkpt>
      <trkpt lat="42.438099039718509" lon="3.169968975707889">
        <ele>56.859999999999999</ele>
        <time>2025-05-15T15:02:22Z</time>
      </trkpt>
      <trkpt lat="42.43825402110815" lon="3.170024966821075">
        <ele>55.890000000000001</ele>
        <time>2025-05-15T15:02:23Z</time>
      </trkpt>
      <trkpt lat="42.438421994447708" lon="3.170085987076163">
        <ele>55.409999999999997</ele>
        <time>2025-05-15T15:02:24Z</time>
      </trkpt>
      <trkpt lat="42.438593991100788" lon="3.170147007331252">
        <ele>54.450000000000003</ele>
        <time>2025-05-15T15:02:25Z</time>
      </trkpt>
      <trkpt lat="42.438741009682417" lon="3.170278016477823">
        <ele>53.490000000000002</ele>
        <time>2025-05-15T15:02:26Z</time>
      </trkpt>
      <trkpt lat="42.438864978030324" lon="3.17040198482573">
        <ele>52.530000000000001</ele>
        <time>2025-05-15T15:02:27Z</time>
      </trkpt>
      <trkpt lat="42.43896396830678" lon="3.17050701007247">
        <ele>51.57</ele>
        <time>2025-05-15T15:02:28Z</time>
      </trkpt>
      <trkpt lat="42.43898500688374" lon="3.170644976198673">
        <ele>50.609999999999999</ele>
        <time>2025-05-15T15:02:29Z</time>
      </trkpt>
      <trkpt lat="42.43900503963232" lon="3.170782020315528">
        <ele>49.159999999999997</ele>
        <time>2025-05-15T15:02:30Z</time>
      </trkpt>
      <trkpt lat="42.438958017155528" lon="3.170909006148577">
        <ele>48.200000000000003</ele>
        <time>2025-05-15T15:02:31Z</time>
      </trkpt>
      <trkpt lat="42.438904959708452" lon="3.171055018901825">
        <ele>46.759999999999998</ele>
        <time>2025-05-15T15:02:32Z</time>
      </trkpt>
      <trkpt lat="42.438841005787253" lon="3.171228021383286">
        <ele>45.799999999999997</ele>
        <time>2025-05-15T15:02:33Z</time>
      </trkpt>
      <trkpt lat="42.43853397667408" lon="3.172108959406614">
        <ele>42.439999999999998</ele>
        <time>2025-05-15T15:02:38Z</time>
      </trkpt>
      <trkpt lat="42.43853397667408" lon="3.172252960503101">
        <ele>41.950000000000003</ele>
        <time>2025-05-15T15:02:39Z</time>
      </trkpt>
      <trkpt lat="42.438585022464395" lon="3.17235304042697">
        <ele>40.990000000000002</ele>
        <time>2025-05-15T15:02:40Z</time>
      </trkpt>
      <trkpt lat="42.438658028841019" lon="3.172444989904761">
        <ele>40.030000000000001</ele>
        <time>2025-05-15T15:02:41Z</time>
      </trkpt>
      <trkpt lat="42.438751989975572" lon="3.172525959089398">
        <ele>39.549999999999997</ele>
        <time>2025-05-15T15:02:42Z</time>
      </trkpt>
      <trkpt lat="42.438869001343846" lon="3.172580022364855">
        <ele>39.07</ele>
        <time>2025-05-15T15:02:43Z</time>
      </trkpt>
      <trkpt lat="42.438997998833656" lon="3.172615980729461">
        <ele>38.590000000000003</ele>
        <time>2025-05-15T15:02:44Z</time>
      </trkpt>
      <trkpt lat="42.439131019636989" lon="3.172651017084718">
        <ele>38.109999999999999</ele>
        <time>2025-05-15T15:02:45Z</time>
      </trkpt>
      <trkpt lat="42.439273009076715" lon="3.172688987106085">
        <ele>37.630000000000003</ele>
        <time>2025-05-15T15:02:46Z</time>
      </trkpt>
      <trkpt lat="42.439418016001582" lon="3.172770962119103">
        <ele>36.670000000000002</ele>
        <time>2025-05-15T15:02:47Z</time>
      </trkpt>
      <trkpt lat="42.439555982127786" lon="3.172894008457661">
        <ele>36.189999999999998</ele>
        <time>2025-05-15T15:02:48Z</time>
      </trkpt>
      <trkpt lat="42.439814982935786" lon="3.173140017315745">
        <ele>35.229999999999997</ele>
        <time>2025-05-15T15:02:50Z</time>
      </trkpt>
      <trkpt lat="42.43993098847568" lon="3.173249987885356">
        <ele>34.740000000000002</ele>
        <time>2025-05-15T15:02:51Z</time>
      </trkpt>
      <trkpt lat="42.440010029822588" lon="3.173419972881675">
        <ele>34.259999999999998</ele>
        <time>2025-05-15T15:02:52Z</time>
      </trkpt>
      <trkpt lat="42.440068032592535" lon="3.173615019768477">
        <ele>33.780000000000001</ele>
        <time>2025-05-15T15:02:53Z</time>
      </trkpt>
      <trkpt lat="42.440130980685353" lon="3.173826998099685">
        <ele>33.780000000000001</ele>
        <time>2025-05-15T15:02:54Z</time>
      </trkpt>
      <trkpt lat="42.440198035910726" lon="3.174262018874288">
        <ele>32.82</ele>
        <time>2025-05-15T15:02:56Z</time>
      </trkpt>
      <trkpt lat="42.44018797762692" lon="3.174475003033876">
        <ele>31.859999999999999</ele>
        <time>2025-05-15T15:02:57Z</time>
      </trkpt>
      <trkpt lat="42.440136009827256" lon="3.174666026607156">
        <ele>31.379999999999999</ele>
        <time>2025-05-15T15:02:58Z</time>
      </trkpt>
      <trkpt lat="42.43997398763895" lon="3.175261979922652">
        <ele>30.899999999999999</ele>
        <time>2025-05-15T15:03:02Z</time>
      </trkpt>
      <trkpt lat="42.439957978203893" lon="3.175364993512631">
        <ele>30.899999999999999</ele>
        <time>2025-05-15T15:03:03Z</time>
      </trkpt>
      <trkpt lat="42.439996032044291" lon="3.175440011546016">
        <ele>31.379999999999999</ele>
        <time>2025-05-15T15:03:04Z</time>
      </trkpt>
      <trkpt lat="42.440029978752136" lon="3.175508994609118">
        <ele>31.379999999999999</ele>
        <time>2025-05-15T15:03:05Z</time>
      </trkpt>
      <trkpt lat="42.440071972087026" lon="3.175520980730653">
        <ele>31.859999999999999</ele>
        <time>2025-05-15T15:03:06Z</time>
      </trkpt>
      <trkpt lat="42.440139027312398" lon="3.175520980730653">
        <ele>31.859999999999999</ele>
        <time>2025-05-15T15:03:07Z</time>
      </trkpt>
      <trkpt lat="42.440193006768823" lon="3.175482004880905">
        <ele>31.859999999999999</ele>
        <time>2025-05-15T15:03:08Z</time>
      </trkpt>
      <trkpt lat="42.440271964296699" lon="3.175371028482914">
        <ele>32.340000000000003</ele>
        <time>2025-05-15T15:03:09Z</time>
      </trkpt>
      <trkpt lat="42.44029501453042" lon="3.175285030156374">
        <ele>32.82</ele>
        <time>2025-05-15T15:03:10Z</time>
      </trkpt>
      <trkpt lat="42.440336002036929" lon="3.175134994089603">
        <ele>32.82</ele>
        <time>2025-05-15T15:03:11Z</time>
      </trkpt>
      <trkpt lat="42.440344970673323" lon="3.174951011314988">
        <ele>32.82</ele>
        <time>2025-05-15T15:03:12Z</time>
      </trkpt>
      <trkpt lat="42.440374977886677" lon="3.174329996109009">
        <ele>32.82</ele>
        <time>2025-05-15T15:03:15Z</time>
      </trkpt>
      <trkpt lat="42.440370032563806" lon="3.174122963100672">
        <ele>33.299999999999997</ele>
        <time>2025-05-15T15:03:16Z</time>
      </trkpt>
      <trkpt lat="42.440227959305048" lon="3.172563007101417">
        <ele>32.82</ele>
        <time>2025-05-15T15:03:24Z</time>
      </trkpt>
      <trkpt lat="42.440186971798539" lon="3.172425040975213">
        <ele>32.82</ele>
        <time>2025-05-15T15:03:25Z</time>
      </trkpt>
      <trkpt lat="42.440110025927424" lon="3.172322027385235">
        <ele>32.340000000000003</ele>
        <time>2025-05-15T15:03:26Z</time>
      </trkpt>
      <trkpt lat="42.44001598097384" lon="3.172261007130146">
        <ele>32.340000000000003</ele>
        <time>2025-05-15T15:03:27Z</time>
      </trkpt>
      <trkpt lat="42.439893018454313" lon="3.172221025452018">
        <ele>31.859999999999999</ele>
        <time>2025-05-15T15:03:28Z</time>
      </trkpt>
      <trkpt lat="42.439755974337459" lon="3.172178026288748">
        <ele>31.379999999999999</ele>
        <time>2025-05-15T15:03:29Z</time>
      </trkpt>
      <trkpt lat="42.43920000270009" lon="3.171994965523481">
        <ele>29.940000000000001</ele>
        <time>2025-05-15T15:03:34Z</time>
      </trkpt>
      <trkpt lat="42.439131019636989" lon="3.171942997723818">
        <ele>30.420000000000002</ele>
        <time>2025-05-15T15:03:35Z</time>
      </trkpt>
      <trkpt lat="42.43911299854517" lon="3.171820035204291">
        <ele>29.940000000000001</ele>
        <time>2025-05-15T15:03:36Z</time>
      </trkpt>
      <trkpt lat="42.43913303129375" lon="3.171678967773914">
        <ele>30.420000000000002</ele>
        <time>2025-05-15T15:03:37Z</time>
      </trkpt>
      <trkpt lat="42.439188016578555" lon="3.171556005254388">
        <ele>30.420000000000002</ele>
        <time>2025-05-15T15:03:38Z</time>
      </trkpt>
      <trkpt lat="42.439267979934812" lon="3.171429019421339">
        <ele>30.899999999999999</ele>
        <time>2025-05-15T15:03:39Z</time>
      </trkpt>
      <trkpt lat="42.439356995746493" lon="3.17130102775991">
        <ele>30.899999999999999</ele>
        <time>2025-05-15T15:03:40Z</time>
      </trkpt>
      <trkpt lat="42.439647009596229" lon="3.170878998935223">
        <ele>31.379999999999999</ele>
        <time>2025-05-15T15:03:43Z</time>
      </trkpt>
      <trkpt lat="42.439997959882021" lon="3.170282039791346">
        <ele>30.899999999999999</ele>
        <time>2025-05-15T15:03:48Z</time>
      </trkpt>
      <trkpt lat="42.440008018165827" lon="3.170200986787677">
        <ele>30.420000000000002</ele>
        <time>2025-05-15T15:03:49Z</time>
      </trkpt>
      <trkpt lat="42.43999301455915" lon="3.170113982632756">
        <ele>29.940000000000001</ele>
        <time>2025-05-15T15:03:50Z</time>
      </trkpt>
      <trkpt lat="42.439928976818919" lon="3.17005698569119">
        <ele>29.940000000000001</ele>
        <time>2025-05-15T15:03:51Z</time>
      </trkpt>
      <trkpt lat="42.43982101790607" lon="3.169963024556637">
        <ele>29.460000000000001</ele>
        <time>2025-05-15T15:03:52Z</time>
      </trkpt>
      <trkpt lat="42.439748011529446" lon="3.169926982372999">
        <ele>28.98</ele>
        <time>2025-05-15T15:03:53Z</time>
      </trkpt>
      <trkpt lat="42.439638040959835" lon="3.169871997088194">
        <ele>28.98</ele>
        <time>2025-05-15T15:03:54Z</time>
      </trkpt>
      <trkpt lat="42.439051978290081" lon="3.16951802931726">
        <ele>24.649999999999999</ele>
        <time>2025-05-15T15:04:00Z</time>
      </trkpt>
      <trkpt lat="42.439048960804939" lon="3.16943496465683">
        <ele>24.170000000000002</ele>
        <time>2025-05-15T15:04:01Z</time>
      </trkpt>
      <trkpt lat="42.439048960804939" lon="3.169362964108586">
        <ele>23.690000000000001</ele>
        <time>2025-05-15T15:04:02Z</time>
      </trkpt>
      <trkpt lat="42.439087014645338" lon="3.169286018237472">
        <ele>23.210000000000001</ele>
        <time>2025-05-15T15:04:03Z</time>
      </trkpt>
      <trkpt lat="42.439140994101763" lon="3.169255005195737">
        <ele>23.210000000000001</ele>
        <time>2025-05-15T15:04:04Z</time>
      </trkpt>
      <trkpt lat="42.439221041277051" lon="3.169218963012099">
        <ele>22.73</ele>
        <time>2025-05-15T15:04:05Z</time>
      </trkpt>
      <trkpt lat="42.43930603377521" lon="3.169180992990732">
        <ele>22.73</ele>
        <time>2025-05-15T15:04:06Z</time>
      </trkpt>
      <trkpt lat="42.439941968768835" lon="3.16887304186821">
        <ele>18.879999999999999</ele>
        <time>2025-05-15T15:04:13Z</time>
      </trkpt>
      <trkpt lat="42.440013969317079" lon="3.168792994692922">
        <ele>18.399999999999999</ele>
        <time>2025-05-15T15:04:14Z</time>
      </trkpt>
      <trkpt lat="42.440099967643619" lon="3.168697021901608">
        <ele>17.920000000000002</ele>
        <time>2025-05-15T15:04:15Z</time>
      </trkpt>
      <trkpt lat="42.440202981233597" lon="3.168371971696615">
        <ele>15.52</ele>
        <time>2025-05-15T15:04:18Z</time>
      </trkpt>
      <trkpt lat="42.440235000103712" lon="3.168264012783766">
        <ele>14.56</ele>
        <time>2025-05-15T15:04:19Z</time>
      </trkpt>
      <trkpt lat="42.440325021743774" lon="3.167905015870929">
        <ele>12.15</ele>
        <time>2025-05-15T15:04:22Z</time>
      </trkpt>
      <trkpt lat="42.440354023128748" lon="3.167789010331035">
        <ele>11.67</ele>
        <time>2025-05-15T15:04:23Z</time>
      </trkpt>
      <trkpt lat="42.440377995371819" lon="3.167685996741056">
        <ele>10.710000000000001</ele>
        <time>2025-05-15T15:04:24Z</time>
      </trkpt>
      <trkpt lat="42.440347988158464" lon="3.167579965665937">
        <ele>10.23</ele>
        <time>2025-05-15T15:04:25Z</time>
      </trkpt>
      <trkpt lat="42.440288979560137" lon="3.167483992874622">
        <ele>9.27</ele>
        <time>2025-05-15T15:04:26Z</time>
      </trkpt>
      <trkpt lat="42.440207004547119" lon="3.167388020083308">
        <ele>8.310000000000001</ele>
        <time>2025-05-15T15:04:27Z</time>
      </trkpt>
      <trkpt lat="42.44014497846365" lon="3.16730503924191">
        <ele>7.83</ele>
        <time>2025-05-15T15:04:28Z</time>
      </trkpt>
      <trkpt lat="42.44008001871407" lon="3.167218035086989">
        <ele>7.35</ele>
        <time>2025-05-15T15:04:29Z</time>
      </trkpt>
      <trkpt lat="42.440057974308729" lon="3.16711300984025">
        <ele>6.39</ele>
        <time>2025-05-15T15:04:30Z</time>
      </trkpt>
      <trkpt lat="42.4400370195508" lon="3.167009996250272">
        <ele>4.94</ele>
        <time>2025-05-15T15:04:31Z</time>
      </trkpt>
      <trkpt lat="42.440053028985858" lon="3.166672959923744">
        <ele>0.62</ele>
        <time>2025-05-15T15:04:34Z</time>
      </trkpt>
      <trkpt lat="42.440069960430264" lon="3.166577992960811">
        <ele>-0.82</ele>
        <time>2025-05-15T15:04:35Z</time>
      </trkpt>
      <trkpt lat="42.440103990957141" lon="3.16649098880589">
        <ele>-2.27</ele>
        <time>2025-05-15T15:04:36Z</time>
      </trkpt>
      <trkpt lat="42.440154030919075" lon="3.166413037106395">
        <ele>-3.23</ele>
        <time>2025-05-15T15:04:37Z</time>
      </trkpt>
      <trkpt lat="42.44020901620388" lon="3.166327960789204">
        <ele>-4.67</ele>
        <time>2025-05-15T15:04:38Z</time>
      </trkpt>
      <trkpt lat="42.440265007317066" lon="3.166241040453315">
        <ele>-6.11</ele>
        <time>2025-05-15T15:04:39Z</time>
      </trkpt>
      <trkpt lat="42.440339019522071" lon="3.166211033239961">
        <ele>-7.55</ele>
        <time>2025-05-15T15:04:40Z</time>
      </trkpt>
      <trkpt lat="42.44042401202023" lon="3.166185971349478">
        <ele>-8.51</ele>
        <time>2025-05-15T15:04:41Z</time>
      </trkpt>
      <trkpt lat="42.44050900451839" lon="3.166161999106407">
        <ele>-9.48</ele>
        <time>2025-05-15T15:04:42Z</time>
      </trkpt>
      <trkpt lat="42.440603971481323" lon="3.166109025478363">
        <ele>-10.44</ele>
        <time>2025-05-15T15:04:43Z</time>
      </trkpt>
      <trkpt lat="42.440679995343089" lon="3.166026966646314">
        <ele>-10.92</ele>
        <time>2025-05-15T15:04:44Z</time>
      </trkpt>
      <trkpt lat="42.44102499447763" lon="3.165637962520123">
        <ele>-14.279999999999999</ele>
        <time>2025-05-15T15:04:51Z</time>
      </trkpt>
      <trkpt lat="42.44111099280417" lon="3.165540983900428">
        <ele>-14.76</ele>
        <time>2025-05-15T15:04:53Z</time>
      </trkpt>
      <trkpt lat="42.441278966143727" lon="3.165403017774224">
        <ele>-15.24</ele>
        <time>2025-05-15T15:04:56Z</time>
      </trkpt>
      <trkpt lat="42.441335963085294" lon="3.165366975590587">
        <ele>-15.720000000000001</ele>
        <time>2025-05-15T15:04:57Z</time>
      </trkpt>
      <trkpt lat="42.441431013867259" lon="3.165306961163878">
        <ele>-15.720000000000001</ele>
        <time>2025-05-15T15:04:58Z</time>
      </trkpt>
      <trkpt lat="42.441469989717007" lon="3.165314001962543">
        <ele>-15.720000000000001</ele>
        <time>2025-05-15T15:04:59Z</time>
      </trkpt>
      <trkpt lat="42.441538972780108" lon="3.165326993912458">
        <ele>-15.24</ele>
        <time>2025-05-15T15:05:00Z</time>
      </trkpt>
      <trkpt lat="42.441598987206817" lon="3.165337974205613">
        <ele>-15.24</ele>
        <time>2025-05-15T15:05:01Z</time>
      </trkpt>
      <trkpt lat="42.441657995805144" lon="3.165348032489419">
        <ele>-15.24</ele>
        <time>2025-05-15T15:05:02Z</time>
      </trkpt>
      <trkpt lat="42.441714992746711" lon="3.165381979197264">
        <ele>-14.76</ele>
        <time>2025-05-15T15:05:03Z</time>
      </trkpt>
      <trkpt lat="42.441775007173419" lon="3.165421960875392">
        <ele>-14.76</ele>
        <time>2025-05-15T15:05:04Z</time>
      </trkpt>
      <trkpt lat="42.441839966922998" lon="3.165464960038662">
        <ele>-14.76</ele>
        <time>2025-05-15T15:05:05Z</time>
      </trkpt>
      <trkpt lat="42.441904004663229" lon="3.165511982515454">
        <ele>-14.76</ele>
        <time>2025-05-15T15:05:06Z</time>
      </trkpt>
      <trkpt lat="42.441969970241189" lon="3.165557999163866">
        <ele>-14.76</ele>
        <time>2025-05-15T15:05:07Z</time>
      </trkpt>
      <trkpt lat="42.442037025466561" lon="3.165597980841994">
        <ele>-14.279999999999999</ele>
        <time>2025-05-15T15:05:08Z</time>
      </trkpt>
      <trkpt lat="42.442211033776402" lon="3.165725972503424">
        <ele>-13.32</ele>
        <time>2025-05-15T15:05:11Z</time>
      </trkpt>
      <trkpt lat="42.442269958555698" lon="3.165766038000584">
        <ele>-13.32</ele>
        <time>2025-05-15T15:05:12Z</time>
      </trkpt>
      <trkpt lat="42.442383030429482" lon="3.165875002741814">
        <ele>-12.359999999999999</ele>
        <time>2025-05-15T15:05:14Z</time>
      </trkpt>
      <trkpt lat="42.442460982128978" lon="3.165971981361508">
        <ele>-11.880000000000001</ele>
        <time>2025-05-15T15:05:15Z</time>
      </trkpt>
      <trkpt lat="42.442471962422132" lon="3.166049011051655">
        <ele>-10.92</ele>
        <time>2025-05-15T15:05:16Z</time>
      </trkpt>
      <trkpt lat="42.442456036806107" lon="3.166179014369845">
        <ele>-10.44</ele>
        <time>2025-05-15T15:05:17Z</time>
      </trkpt>
      <trkpt lat="42.442414965480566" lon="3.166267024353147">
        <ele>-9.960000000000001</ele>
        <time>2025-05-15T15:05:18Z</time>
      </trkpt>
      <trkpt lat="42.442372972145677" lon="3.166358973830938">
        <ele>-9.48</ele>
        <time>2025-05-15T15:05:19Z</time>
      </trkpt>
      <trkpt lat="42.442346988245845" lon="3.166460981592536">
        <ele>-8.51</ele>
        <time>2025-05-15T15:05:20Z</time>
      </trkpt>
      <trkpt lat="42.44233500212431" lon="3.166586039587855">
        <ele>-8.029999999999999</ele>
        <time>2025-05-15T15:05:21Z</time>
      </trkpt>
      <trkpt lat="42.442322010174394" lon="3.166718976572156">
        <ele>-7.07</ele>
        <time>2025-05-15T15:05:22Z</time>
      </trkpt>
      <trkpt lat="42.442307006567717" lon="3.166861971840262">
        <ele>-6.11</ele>
        <time>2025-05-15T15:05:23Z</time>
      </trkpt>
      <trkpt lat="42.44229300878942" lon="3.167004967108369">
        <ele>-4.67</ele>
        <time>2025-05-15T15:05:24Z</time>
      </trkpt>
      <trkpt lat="42.442316981032491" lon="3.167158020660281">
        <ele>-3.71</ele>
        <time>2025-05-15T15:05:25Z</time>
      </trkpt>
      <trkpt lat="42.442351011559367" lon="3.167294980958104">
        <ele>-1.79</ele>
        <time>2025-05-15T15:05:26Z</time>
      </trkpt>
      <trkpt lat="42.442425023764372" lon="3.167405035346746">
        <ele>-0.34</ele>
        <time>2025-05-15T15:05:27Z</time>
      </trkpt>
      <trkpt lat="42.442498030140996" lon="3.167508970946074">
        <ele>0.62</ele>
        <time>2025-05-15T15:05:28Z</time>
      </trkpt>
      <trkpt lat="42.442600959911942" lon="3.167562028393149">
        <ele>1.58</ele>
        <time>2025-05-15T15:05:29Z</time>
      </trkpt>
      <trkpt lat="42.442704979330301" lon="3.167609972879291">
        <ele>2.54</ele>
        <time>2025-05-15T15:05:30Z</time>
      </trkpt>
      <trkpt lat="42.442810004577041" lon="3.167653977870941">
        <ele>3.5</ele>
        <time>2025-05-15T15:05:31Z</time>
      </trkpt>
      <trkpt lat="42.442919975146651" lon="3.167688008397818">
        <ele>4.46</ele>
        <time>2025-05-15T15:05:32Z</time>
      </trkpt>
      <trkpt lat="42.443931000307202" lon="3.168102996423841">
        <ele>15.039999999999999</ele>
        <time>2025-05-15T15:05:42Z</time>
      </trkpt>
      <trkpt lat="42.444029990583658" lon="3.168123029172421">
        <ele>16.48</ele>
        <time>2025-05-15T15:05:43Z</time>
      </trkpt>
      <trkpt lat="42.444133004173636" lon="3.168130991980434">
        <ele>17.440000000000001</ele>
        <time>2025-05-15T15:05:44Z</time>
      </trkpt>
      <trkpt lat="42.444222019985318" lon="3.168092016130686">
        <ele>18.879999999999999</ele>
        <time>2025-05-15T15:05:45Z</time>
      </trkpt>
      <trkpt lat="42.444308018311858" lon="3.168044993653894">
        <ele>20.32</ele>
        <time>2025-05-15T15:05:46Z</time>
      </trkpt>
      <trkpt lat="42.444398961961269" lon="3.167979028075934">
        <ele>21.289999999999999</ele>
        <time>2025-05-15T15:05:47Z</time>
      </trkpt>
      <trkpt lat="42.444478003308177" lon="3.167861010879278">
        <ele>22.25</ele>
        <time>2025-05-15T15:05:48Z</time>
      </trkpt>
      <trkpt lat="42.444532988592982" lon="3.167774006724358">
        <ele>23.690000000000001</ele>
        <time>2025-05-15T15:05:49Z</time>
      </trkpt>
      <trkpt lat="42.444596020504832" lon="3.167664036154747">
        <ele>25.129999999999999</ele>
        <time>2025-05-15T15:05:50Z</time>
      </trkpt>
      <trkpt lat="42.444670032709837" lon="3.167568985372782">
        <ele>26.57</ele>
        <time>2025-05-15T15:05:51Z</time>
      </trkpt>
      <trkpt lat="42.444748990237713" lon="3.167475024238229">
        <ele>27.530000000000001</ele>
        <time>2025-05-15T15:05:52Z</time>
      </trkpt>
      <trkpt lat="42.444820990785956" lon="3.167388020083308">
        <ele>28.98</ele>
        <time>2025-05-15T15:05:53Z</time>
      </trkpt>
      <trkpt lat="42.444922998547554" lon="3.167395982891321">
        <ele>30.420000000000002</ele>
        <time>2025-05-15T15:05:54Z</time>
      </trkpt>
      <trkpt lat="42.445024000480771" lon="3.167403023689985">
        <ele>31.379999999999999</ele>
        <time>2025-05-15T15:05:55Z</time>
      </trkpt>
      <trkpt lat="42.445123996585608" lon="3.167410986497998">
        <ele>32.340000000000003</ele>
        <time>2025-05-15T15:05:56Z</time>
      </trkpt>
      <trkpt lat="42.445233967155218" lon="3.167447028681636">
        <ele>33.299999999999997</ele>
        <time>2025-05-15T15:05:57Z</time>
      </trkpt>
      <trkpt lat="42.445350978523493" lon="3.167486004531384">
        <ele>34.259999999999998</ele>
        <time>2025-05-15T15:05:58Z</time>
      </trkpt>
      <trkpt lat="42.445832015946507" lon="3.167646015062928">
        <ele>39.07</ele>
        <time>2025-05-15T15:06:03Z</time>
      </trkpt>
      <trkpt lat="42.445923965424299" lon="3.167646015062928">
        <ele>40.030000000000001</ele>
        <time>2025-05-15T15:06:04Z</time>
      </trkpt>
      <trkpt lat="42.446023039519787" lon="3.167646015062928">
        <ele>40.509999999999998</ele>
        <time>2025-05-15T15:06:05Z</time>
      </trkpt>
      <trkpt lat="42.446121023967862" lon="3.167569991201162">
        <ele>41.469999999999999</ele>
        <time>2025-05-15T15:06:06Z</time>
      </trkpt>
      <trkpt lat="42.446222025901079" lon="3.167491033673286">
        <ele>42.439999999999998</ele>
        <time>2025-05-15T15:06:07Z</time>
      </trkpt>
      <trkpt lat="42.446325961500406" lon="3.167409980669618">
        <ele>42.920000000000002</ele>
        <time>2025-05-15T15:06:08Z</time>
      </trkpt>
      <trkpt lat="42.446426041424274" lon="3.167326999828219">
        <ele>43.880000000000003</ele>
        <time>2025-05-15T15:06:09Z</time>
      </trkpt>
      <trkpt lat="42.446966003626585" lon="3.166728029027581">
        <ele>48.200000000000003</ele>
        <time>2025-05-15T15:06:17Z</time>
      </trkpt>
      <trkpt lat="42.447329023852944" lon="3.166348999366164">
        <ele>50.609999999999999</ele>
        <time>2025-05-15T15:06:23Z</time>
      </trkpt>
      <trkpt lat="42.447388032451272" lon="3.166287979111075">
        <ele>51.090000000000003</ele>
        <time>2025-05-15T15:06:24Z</time>
      </trkpt>
      <trkpt lat="42.447821963578463" lon="3.165749022737145">
        <ele>53.490000000000002</ele>
        <time>2025-05-15T15:06:31Z</time>
      </trkpt>
      <trkpt lat="42.447875021025538" lon="3.165649026632309">
        <ele>53.490000000000002</ele>
        <time>2025-05-15T15:06:32Z</time>
      </trkpt>
      <trkpt lat="42.44792397134006" lon="3.165534026920795">
        <ele>53.490000000000002</ele>
        <time>2025-05-15T15:06:33Z</time>
      </trkpt>
      <trkpt lat="42.447975017130375" lon="3.165413998067379">
        <ele>53.969999999999999</ele>
        <time>2025-05-15T15:06:34Z</time>
      </trkpt>
      <trkpt lat="42.447997983545065" lon="3.165277959778905">
        <ele>54.450000000000003</ele>
        <time>2025-05-15T15:06:35Z</time>
      </trkpt>
      <trkpt lat="42.448021033778787" lon="3.165139993652701">
        <ele>54.93</ele>
        <time>2025-05-15T15:06:36Z</time>
      </trkpt>
      <trkpt lat="42.448038971051574" lon="3.165009990334511">
        <ele>55.409999999999997</ele>
        <time>2025-05-15T15:06:37Z</time>
      </trkpt>
      <trkpt lat="42.448032014071941" lon="3.164874035865068">
        <ele>55.409999999999997</ele>
        <time>2025-05-15T15:06:38Z</time>
      </trkpt>
      <trkpt lat="42.448024973273277" lon="3.164737997576594">
        <ele>55.409999999999997</ele>
        <time>2025-05-15T15:06:39Z</time>
      </trkpt>
      <trkpt lat="42.448018016293645" lon="3.16459902562201">
        <ele>54.93</ele>
        <time>2025-05-15T15:06:40Z</time>
      </trkpt>
      <trkpt lat="42.447932017967105" lon="3.164059985429049">
        <ele>55.409999999999997</ele>
        <time>2025-05-15T15:06:44Z</time>
      </trkpt>
      <trkpt lat="42.447935035452247" lon="3.163926964625716">
        <ele>55.409999999999997</ele>
        <time>2025-05-15T15:06:45Z</time>
      </trkpt>
      <trkpt lat="42.447981974110007" lon="3.163823029026389">
        <ele>55.409999999999997</ele>
        <time>2025-05-15T15:06:46Z</time>
      </trkpt>
      <trkpt lat="42.44805296882987" lon="3.163721021264792">
        <ele>55.409999999999997</ele>
        <time>2025-05-15T15:06:47Z</time>
      </trkpt>
      <trkpt lat="42.448151959106326" lon="3.163666035979986">
        <ele>54.93</ele>
        <time>2025-05-15T15:06:48Z</time>
      </trkpt>
      <trkpt lat="42.448263019323349" lon="3.163622030988336">
        <ele>54.93</ele>
        <time>2025-05-15T15:06:49Z</time>
      </trkpt>
      <trkpt lat="42.448378019034863" lon="3.163595041260123">
        <ele>54.450000000000003</ele>
        <time>2025-05-15T15:06:50Z</time>
      </trkpt>
      <trkpt lat="42.448485977947712" lon="3.16356997936964">
        <ele>54.450000000000003</ele>
        <time>2025-05-15T15:06:51Z</time>
      </trkpt>
      <trkpt lat="42.448566025123" lon="3.163493033498526">
        <ele>53.969999999999999</ele>
        <time>2025-05-15T15:06:52Z</time>
      </trkpt>
      <trkpt lat="42.448640037328005" lon="3.163419021293521">
        <ele>53.969999999999999</ele>
        <time>2025-05-15T15:06:53Z</time>
      </trkpt>
      <trkpt lat="42.448665015399456" lon="3.163290023803711">
        <ele>53.969999999999999</ele>
        <time>2025-05-15T15:06:54Z</time>
      </trkpt>
      <trkpt lat="42.448693010956049" lon="3.163146022707224">
        <ele>54.450000000000003</ele>
        <time>2025-05-15T15:06:55Z</time>
      </trkpt>
      <trkpt lat="42.448723018169403" lon="3.162991041317582">
        <ele>54.450000000000003</ele>
        <time>2025-05-15T15:06:56Z</time>
      </trkpt>
      <trkpt lat="42.448795018717647" lon="3.162634978070855">
        <ele>54.93</ele>
        <time>2025-05-15T15:06:58Z</time>
      </trkpt>
      <trkpt lat="42.448945976793766" lon="3.162128962576389">
        <ele>55.890000000000001</ele>
        <time>2025-05-15T15:07:01Z</time>
      </trkpt>
      <trkpt lat="42.448958968743682" lon="3.161952020600438">
        <ele>56.369999999999997</ele>
        <time>2025-05-15T15:07:02Z</time>
      </trkpt>
      <trkpt lat="42.448924016207457" lon="3.161774994805455">
        <ele>56.859999999999999</ele>
        <time>2025-05-15T15:07:03Z</time>
      </trkpt>
      <trkpt lat="42.448871964588761" lon="3.161584977060556">
        <ele>56.859999999999999</ele>
        <time>2025-05-15T15:07:04Z</time>
      </trkpt>
      <trkpt lat="42.448817985132337" lon="3.161386996507645">
        <ele>57.340000000000003</ele>
        <time>2025-05-15T15:07:05Z</time>
      </trkpt>
      <trkpt lat="42.44876098819077" lon="3.161180969327688">
        <ele>57.340000000000003</ele>
        <time>2025-05-15T15:07:06Z</time>
      </trkpt>
      <trkpt lat="42.44863098487258" lon="3.160590967163444">
        <ele>57.82</ele>
        <time>2025-05-15T15:07:09Z</time>
      </trkpt>
      <trkpt lat="42.448621010407805" lon="3.160417964681983">
        <ele>57.82</ele>
        <time>2025-05-15T15:07:10Z</time>
      </trkpt>
      <trkpt lat="42.448682030662894" lon="3.160293996334076">
        <ele>57.82</ele>
        <time>2025-05-15T15:07:11Z</time>
      </trkpt>
      <trkpt lat="42.448757970705628" lon="3.16017497330904">
        <ele>57.82</ele>
        <time>2025-05-15T15:07:12Z</time>
      </trkpt>
      <trkpt lat="42.448865007609129" lon="3.160141026601195">
        <ele>57.340000000000003</ele>
        <time>2025-05-15T15:07:13Z</time>
      </trkpt>
      <trkpt lat="42.448998028412461" lon="3.160117976367474">
        <ele>57.340000000000003</ele>
        <time>2025-05-15T15:07:14Z</time>
      </trkpt>
      <trkpt lat="42.449144041165709" lon="3.160092998296022">
        <ele>56.859999999999999</ele>
        <time>2025-05-15T15:07:15Z</time>
      </trkpt>
      <trkpt lat="42.449288964271545" lon="3.160068020224571">
        <ele>56.369999999999997</ele>
        <time>2025-05-15T15:07:16Z</time>
      </trkpt>
      <trkpt lat="42.449417961761355" lon="3.160019991919398">
        <ele>56.369999999999997</ele>
        <time>2025-05-15T15:07:17Z</time>
      </trkpt>
      <trkpt lat="42.44951200671494" lon="3.159914966672659">
        <ele>56.369999999999997</ele>
        <time>2025-05-15T15:07:18Z</time>
      </trkpt>
      <trkpt lat="42.449573026970029" lon="3.159778006374836">
        <ele>56.859999999999999</ele>
        <time>2025-05-15T15:07:19Z</time>
      </trkpt>
      <trkpt lat="42.449594987556338" lon="3.159603998064995">
        <ele>56.859999999999999</ele>
        <time>2025-05-15T15:07:20Z</time>
      </trkpt>
      <trkpt lat="42.449608985334635" lon="3.159410962834954">
        <ele>57.340000000000003</ele>
        <time>2025-05-15T15:07:21Z</time>
      </trkpt>
      <trkpt lat="42.449616026133299" lon="3.159198984503746">
        <ele>57.82</ele>
        <time>2025-05-15T15:07:22Z</time>
      </trkpt>
      <trkpt lat="42.449690038338304" lon="3.158071031793952">
        <ele>58.780000000000001</ele>
        <time>2025-05-15T15:07:27Z</time>
      </trkpt>
      <trkpt lat="42.449739994481206" lon="3.157879002392292">
        <ele>58.780000000000001</ele>
        <time>2025-05-15T15:07:28Z</time>
      </trkpt>
      <trkpt lat="42.449837978929281" lon="3.157713962718844">
        <ele>58.299999999999997</ele>
        <time>2025-05-15T15:07:29Z</time>
      </trkpt>
      <trkpt lat="42.449965970590711" lon="3.157575996592641">
        <ele>58.780000000000001</ele>
        <time>2025-05-15T15:07:30Z</time>
      </trkpt>
      <trkpt lat="42.450108965858817" lon="3.157458985224366">
        <ele>58.780000000000001</ele>
        <time>2025-05-15T15:07:31Z</time>
      </trkpt>
      <trkpt lat="42.450530994683504" lon="3.15710199996829">
        <ele>58.780000000000001</ele>
        <time>2025-05-15T15:07:34Z</time>
      </trkpt>
      <trkpt lat="42.450640965253115" lon="3.156968979164958">
        <ele>59.259999999999998</ele>
        <time>2025-05-15T15:07:35Z</time>
      </trkpt>
      <trkpt lat="42.450735010206699" lon="3.156854985281825">
        <ele>59.259999999999998</ele>
        <time>2025-05-15T15:07:36Z</time>
      </trkpt>
      <trkpt lat="42.450814973562956" lon="3.156766975298524">
        <ele>59.259999999999998</ele>
        <time>2025-05-15T15:07:37Z</time>
      </trkpt>
      <trkpt lat="42.450906001031399" lon="3.156781978905201">
        <ele>59.259999999999998</ele>
        <time>2025-05-15T15:07:38Z</time>
      </trkpt>
      <trkpt lat="42.450970960780978" lon="3.156859008595347">
        <ele>59.259999999999998</ele>
        <time>2025-05-15T15:07:39Z</time>
      </trkpt>
      <trkpt lat="42.451000967994332" lon="3.156990017741919">
        <ele>59.259999999999998</ele>
        <time>2025-05-15T15:07:40Z</time>
      </trkpt>
      <trkpt lat="42.451000967994332" lon="3.157147010788322">
        <ele>59.259999999999998</ele>
        <time>2025-05-15T15:07:41Z</time>
      </trkpt>
      <trkpt lat="42.451000967994332" lon="3.157329987734556">
        <ele>58.780000000000001</ele>
        <time>2025-05-15T15:07:42Z</time>
      </trkpt>
      <trkpt lat="42.451000967994332" lon="3.157515982165933">
        <ele>58.780000000000001</ele>
        <time>2025-05-15T15:07:43Z</time>
      </trkpt>
      <trkpt lat="42.451056959107518" lon="3.157651014626026">
        <ele>58.299999999999997</ele>
        <time>2025-05-15T15:07:44Z</time>
      </trkpt>
      <trkpt lat="42.451126025989652" lon="3.15778998658061">
        <ele>57.82</ele>
        <time>2025-05-15T15:07:45Z</time>
      </trkpt>
      <trkpt lat="42.451233984902501" lon="3.157842038199306">
        <ele>57.340000000000003</ele>
        <time>2025-05-15T15:07:46Z</time>
      </trkpt>
      <trkpt lat="42.45135803706944" lon="3.157860981300473">
        <ele>57.340000000000003</ele>
        <time>2025-05-15T15:07:47Z</time>
      </trkpt>
      <trkpt lat="42.451491979882121" lon="3.157837009057403">
        <ele>57.340000000000003</ele>
        <time>2025-05-15T15:07:48Z</time>
      </trkpt>
      <trkpt lat="42.451635980978608" lon="3.157780012115836">
        <ele>57.340000000000003</ele>
        <time>2025-05-15T15:07:49Z</time>
      </trkpt>
      <trkpt lat="42.45178802870214" lon="3.157719997689128">
        <ele>57.340000000000003</ele>
        <time>2025-05-15T15:07:50Z</time>
      </trkpt>
      <trkpt lat="42.45224199257791" lon="3.157582031562924">
        <ele>56.859999999999999</ele>
        <time>2025-05-15T15:07:53Z</time>
      </trkpt>
      <trkpt lat="42.452352968975902" lon="3.157582031562924">
        <ele>56.859999999999999</ele>
        <time>2025-05-15T15:07:54Z</time>
      </trkpt>
      <trkpt lat="42.452443996444345" lon="3.157700970768929">
        <ele>56.859999999999999</ele>
        <time>2025-05-15T15:07:55Z</time>
      </trkpt>
      <trkpt lat="42.452523959800601" lon="3.157803984358907">
        <ele>56.859999999999999</ele>
        <time>2025-05-15T15:07:56Z</time>
      </trkpt>
      <trkpt lat="42.452609958127141" lon="3.157914960756898">
        <ele>56.369999999999997</ele>
        <time>2025-05-15T15:07:57Z</time>
      </trkpt>
      <trkpt lat="42.452706014737487" lon="3.158040018752217">
        <ele>55.890000000000001</ele>
        <time>2025-05-15T15:07:58Z</time>
      </trkpt>
      <trkpt lat="42.452813973650336" lon="3.158178990706801">
        <ele>55.409999999999997</ele>
        <time>2025-05-15T15:07:59Z</time>
      </trkpt>
      <trkpt lat="42.45292997919023" lon="3.158330032601953">
        <ele>54.93</ele>
        <time>2025-05-15T15:08:00Z</time>
      </trkpt>
      <trkpt lat="42.453329041600227" lon="3.158726999536157">
        <ele>53.969999999999999</ele>
        <time>2025-05-15T15:08:03Z</time>
      </trkpt>
      <trkpt lat="42.453467007726431" lon="3.158812997862697">
        <ele>53.490000000000002</ele>
        <time>2025-05-15T15:08:04Z</time>
      </trkpt>
      <trkpt lat="42.453622994944453" lon="3.15884199924767">
        <ele>53.490000000000002</ele>
        <time>2025-05-15T15:08:05Z</time>
      </trkpt>
      <trkpt lat="42.453785017132759" lon="3.15886496566236">
        <ele>53.009999999999998</ele>
        <time>2025-05-15T15:08:06Z</time>
      </trkpt>
      <trkpt lat="42.453934969380498" lon="3.158814003691077">
        <ele>52.530000000000001</ele>
        <time>2025-05-15T15:08:07Z</time>
      </trkpt>
      <trkpt lat="42.45408701710403" lon="3.158725993707776">
        <ele>52.049999999999997</ele>
        <time>2025-05-15T15:08:08Z</time>
      </trkpt>
      <trkpt lat="42.454240992665291" lon="3.158629015088081">
        <ele>52.049999999999997</ele>
        <time>2025-05-15T15:08:09Z</time>
      </trkpt>
      <trkpt lat="42.45471297763288" lon="3.158331038430333">
        <ele>51.090000000000003</ele>
        <time>2025-05-15T15:08:12Z</time>
      </trkpt>
      <trkpt lat="42.454872988164425" lon="3.158289967104793">
        <ele>51.090000000000003</ele>
        <time>2025-05-15T15:08:13Z</time>
      </trkpt>
      <trkpt lat="42.455011960119009" lon="3.158317962661386">
        <ele>50.609999999999999</ele>
        <time>2025-05-15T15:08:14Z</time>
      </trkpt>
      <trkpt lat="42.455106005072594" lon="3.1583880353719">
        <ele>50.609999999999999</ele>
        <time>2025-05-15T15:08:15Z</time>
      </trkpt>
      <trkpt lat="42.455170964822173" lon="3.158503035083413">
        <ele>50.609999999999999</ele>
        <time>2025-05-15T15:08:16Z</time>
      </trkpt>
      <trkpt lat="42.455239025875926" lon="3.158619962632656">
        <ele>50.609999999999999</ele>
        <time>2025-05-15T15:08:17Z</time>
      </trkpt>
      <trkpt lat="42.455323012545705" lon="3.158707972615957">
        <ele>50.130000000000003</ele>
        <time>2025-05-15T15:08:18Z</time>
      </trkpt>
      <trkpt lat="42.455416973680258" lon="3.15873496234417">
        <ele>50.130000000000003</ele>
        <time>2025-05-15T15:08:19Z</time>
      </trkpt>
      <trkpt lat="42.455520993098617" lon="3.158717025071383">
        <ele>50.130000000000003</ele>
        <time>2025-05-15T15:08:20Z</time>
      </trkpt>
      <trkpt lat="42.455638004466891" lon="3.158695986494422">
        <ele>50.130000000000003</ele>
        <time>2025-05-15T15:08:21Z</time>
      </trkpt>
      <trkpt lat="42.455748980864882" lon="3.158613005653024">
        <ele>50.130000000000003</ele>
        <time>2025-05-15T15:08:22Z</time>
      </trkpt>
      <trkpt lat="42.455864986404777" lon="3.158526001498103">
        <ele>49.649999999999999</ele>
        <time>2025-05-15T15:08:23Z</time>
      </trkpt>
      <trkpt lat="42.456595972180367" lon="3.157707005739212">
        <ele>46.280000000000001</ele>
        <time>2025-05-15T15:08:30Z</time>
      </trkpt>
      <trkpt lat="42.456662021577358" lon="3.157600974664092">
        <ele>45.799999999999997</ele>
        <time>2025-05-15T15:08:31Z</time>
      </trkpt>
      <trkpt lat="42.456686999648809" lon="3.157560992985964">
        <ele>45.799999999999997</ele>
        <time>2025-05-15T15:08:32Z</time>
      </trkpt>
      <trkpt lat="42.456817002967" lon="3.157482035458088">
        <ele>45.32</ele>
        <time>2025-05-15T15:08:33Z</time>
      </trkpt>
      <trkpt lat="42.45683703571558" lon="3.157411040738225">
        <ele>45.32</ele>
        <time>2025-05-15T15:08:34Z</time>
      </trkpt>
      <trkpt lat="42.45679403655231" lon="3.157324958592653">
        <ele>45.32</ele>
        <time>2025-05-15T15:08:35Z</time>
      </trkpt>
      <trkpt lat="42.45679697021842" lon="3.157114991918206">
        <ele>45.799999999999997</ele>
        <time>2025-05-15T15:08:36Z</time>
      </trkpt>
      <trkpt lat="42.456846004351974" lon="3.156974008306861">
        <ele>45.799999999999997</ele>
        <time>2025-05-15T15:08:37Z</time>
      </trkpt>
      <trkpt lat="42.456914987415075" lon="3.156833024695516">
        <ele>46.280000000000001</ele>
        <time>2025-05-15T15:08:38Z</time>
      </trkpt>
      <trkpt lat="42.456984976306558" lon="3.156698998063803">
        <ele>46.759999999999998</ele>
        <time>2025-05-15T15:08:39Z</time>
      </trkpt>
      <trkpt lat="42.457050019875169" lon="3.156577041372657">
        <ele>46.759999999999998</ele>
        <time>2025-05-15T15:08:40Z</time>
      </trkpt>
      <trkpt lat="42.45705203153193" lon="3.156430022791028">
        <ele>47.240000000000002</ele>
        <time>2025-05-15T15:08:41Z</time>
      </trkpt>
      <trkpt lat="42.457039961591363" lon="3.15628401003778">
        <ele>47.719999999999999</ele>
        <time>2025-05-15T15:08:42Z</time>
      </trkpt>
      <trkpt lat="42.456987993791699" lon="3.156142020598054">
        <ele>48.200000000000003</ele>
        <time>2025-05-15T15:08:43Z</time>
      </trkpt>
      <trkpt lat="42.456912975758314" lon="3.156004976481199">
        <ele>48.200000000000003</ele>
        <time>2025-05-15T15:08:44Z</time>
      </trkpt>
      <trkpt lat="42.456820020452142" lon="3.155873967334628">
        <ele>48.200000000000003</ele>
        <time>2025-05-15T15:08:45Z</time>
      </trkpt>
      <trkpt lat="42.456636037677526" lon="3.155587976798415">
        <ele>48.200000000000003</ele>
        <time>2025-05-15T15:08:47Z</time>
      </trkpt>
      <trkpt lat="42.456601001322269" lon="3.155412040650845">
        <ele>48.200000000000003</ele>
        <time>2025-05-15T15:08:48Z</time>
      </trkpt>
      <trkpt lat="42.45658197440207" lon="3.155250018462539">
        <ele>48.200000000000003</ele>
        <time>2025-05-15T15:08:49Z</time>
      </trkpt>
      <trkpt lat="42.456611981615424" lon="3.155089002102613">
        <ele>47.719999999999999</ele>
        <time>2025-05-15T15:08:50Z</time>
      </trkpt>
      <trkpt lat="42.456675013527274" lon="3.154954975470901">
        <ele>47.240000000000002</ele>
        <time>2025-05-15T15:08:51Z</time>
      </trkpt>
      <trkpt lat="42.456771992146969" lon="3.154830001294613">
        <ele>47.240000000000002</ele>
        <time>2025-05-15T15:08:52Z</time>
      </trkpt>
      <trkpt lat="42.456881962716579" lon="3.154704021289945">
        <ele>47.240000000000002</ele>
        <time>2025-05-15T15:08:53Z</time>
      </trkpt>
      <trkpt lat="42.457757033407688" lon="3.153745969757438">
        <ele>48.200000000000003</ele>
        <time>2025-05-15T15:09:00Z</time>
      </trkpt>
      <trkpt lat="42.457889970391989" lon="3.153672963380814">
        <ele>48.68</ele>
        <time>2025-05-15T15:09:01Z</time>
      </trkpt>
      <trkpt lat="42.458025002852082" lon="3.153661983087659">
        <ele>48.68</ele>
        <time>2025-05-15T15:09:02Z</time>
      </trkpt>
      <trkpt lat="42.458164980635047" lon="3.153685033321381">
        <ele>48.68</ele>
        <time>2025-05-15T15:09:03Z</time>
      </trkpt>
      <trkpt lat="42.458304036408663" lon="3.153752004727721">
        <ele>48.200000000000003</ele>
        <time>2025-05-15T15:09:04Z</time>
      </trkpt>
      <trkpt lat="42.458592960610986" lon="3.153890976682305">
        <ele>48.200000000000003</ele>
        <time>2025-05-15T15:09:06Z</time>
      </trkpt>
      <trkpt lat="42.458724975585938" lon="3.153924001380801">
        <ele>48.200000000000003</ele>
        <time>2025-05-15T15:09:07Z</time>
      </trkpt>
      <trkpt lat="42.458851039409637" lon="3.153892988339067">
        <ele>48.200000000000003</ele>
        <time>2025-05-15T15:09:08Z</time>
      </trkpt>
      <trkpt lat="42.458952963352203" lon="3.153812019154429">
        <ele>48.68</ele>
        <time>2025-05-15T15:09:09Z</time>
      </trkpt>
      <trkpt lat="42.459006020799279" lon="3.153689978644252">
        <ele>48.68</ele>
        <time>2025-05-15T15:09:10Z</time>
      </trkpt>
      <trkpt lat="42.459056982770562" lon="3.1535579636693">
        <ele>49.159999999999997</ele>
        <time>2025-05-15T15:09:11Z</time>
      </trkpt>
      <trkpt lat="42.459056982770562" lon="3.153417985886335">
        <ele>49.649999999999999</ele>
        <time>2025-05-15T15:09:12Z</time>
      </trkpt>
      <trkpt lat="42.459038961678743" lon="3.15325303003192">
        <ele>50.130000000000003</ele>
        <time>2025-05-15T15:09:13Z</time>
      </trkpt>
      <trkpt lat="42.459018006920815" lon="3.15306100063026">
        <ele>50.609999999999999</ele>
        <time>2025-05-15T15:09:14Z</time>
      </trkpt>
      <trkpt lat="42.458994034677744" lon="3.152836030349135">
        <ele>51.090000000000003</ele>
        <time>2025-05-15T15:09:15Z</time>
      </trkpt>
      <trkpt lat="42.458991017192602" lon="3.152593960985541">
        <ele>51.090000000000003</ele>
        <time>2025-05-15T15:09:16Z</time>
      </trkpt>
      <trkpt lat="42.459006020799279" lon="3.152344012632966">
        <ele>51.090000000000003</ele>
        <time>2025-05-15T15:09:17Z</time>
      </trkpt>
      <trkpt lat="42.459020018577576" lon="3.152105966582894">
        <ele>50.609999999999999</ele>
        <time>2025-05-15T15:09:18Z</time>
      </trkpt>
      <trkpt lat="42.459003003314137" lon="3.15187999047339">
        <ele>50.609999999999999</ele>
        <time>2025-05-15T15:09:19Z</time>
      </trkpt>
      <trkpt lat="42.458962015807629" lon="3.151659965515137">
        <ele>50.609999999999999</ele>
        <time>2025-05-15T15:09:20Z</time>
      </trkpt>
      <trkpt lat="42.458894038572907" lon="3.151422003284097">
        <ele>50.130000000000003</ele>
        <time>2025-05-15T15:09:21Z</time>
      </trkpt>
      <trkpt lat="42.458828995004296" lon="3.151196027174592">
        <ele>50.130000000000003</ele>
        <time>2025-05-15T15:09:22Z</time>
      </trkpt>
      <trkpt lat="42.458767974749207" lon="3.150982959195972">
        <ele>49.649999999999999</ele>
        <time>2025-05-15T15:09:23Z</time>
      </trkpt>
      <trkpt lat="42.458682982251048" lon="3.150824960321188">
        <ele>49.649999999999999</ele>
        <time>2025-05-15T15:09:24Z</time>
      </trkpt>
      <trkpt lat="42.458584997802973" lon="3.150695962831378">
        <ele>49.649999999999999</ele>
        <time>2025-05-15T15:09:25Z</time>
      </trkpt>
      <trkpt lat="42.458488019183278" lon="3.150567971169949">
        <ele>49.649999999999999</ele>
        <time>2025-05-15T15:09:26Z</time>
      </trkpt>
      <trkpt lat="42.458390034735203" lon="3.150438973680139">
        <ele>49.649999999999999</ele>
        <time>2025-05-15T15:09:27Z</time>
      </trkpt>
      <trkpt lat="42.458307975903153" lon="3.150298995897174">
        <ele>49.649999999999999</ele>
        <time>2025-05-15T15:09:28Z</time>
      </trkpt>
      <trkpt lat="42.458245027810335" lon="3.150146026164293">
        <ele>49.649999999999999</ele>
        <time>2025-05-15T15:09:29Z</time>
      </trkpt>
      <trkpt lat="42.458217032253742" lon="3.149978974834085">
        <ele>50.130000000000003</ele>
        <time>2025-05-15T15:09:30Z</time>
      </trkpt>
      <trkpt lat="42.458230024203658" lon="3.149806978181005">
        <ele>50.609999999999999</ele>
        <time>2025-05-15T15:09:31Z</time>
      </trkpt>
      <trkpt lat="42.458261037245393" lon="3.149633975699544">
        <ele>51.090000000000003</ele>
        <time>2025-05-15T15:09:32Z</time>
      </trkpt>
      <trkpt lat="42.458290960639715" lon="3.149457033723593">
        <ele>51.090000000000003</ele>
        <time>2025-05-15T15:09:33Z</time>
      </trkpt>
      <trkpt lat="42.458275035023689" lon="3.149262992665172">
        <ele>51.57</ele>
        <time>2025-05-15T15:09:34Z</time>
      </trkpt>
      <trkpt lat="42.458250978961587" lon="3.149079009890556">
        <ele>52.049999999999997</ele>
        <time>2025-05-15T15:09:35Z</time>
      </trkpt>
      <trkpt lat="42.458232035860419" lon="3.148935008794069">
        <ele>52.049999999999997</ele>
        <time>2025-05-15T15:09:36Z</time>
      </trkpt>
      <trkpt lat="42.458247961476445" lon="3.148771980777383">
        <ele>52.530000000000001</ele>
        <time>2025-05-15T15:09:37Z</time>
      </trkpt>
      <trkpt lat="42.458287021145225" lon="3.148669973015785">
        <ele>52.530000000000001</ele>
        <time>2025-05-15T15:09:38Z</time>
      </trkpt>
      <trkpt lat="42.458356004208326" lon="3.148589003831148">
        <ele>52.530000000000001</ele>
        <time>2025-05-15T15:09:39Z</time>
      </trkpt>
      <trkpt lat="42.458453988656402" lon="3.148575006052852">
        <ele>52.530000000000001</ele>
        <time>2025-05-15T15:09:40Z</time>
      </trkpt>
      <trkpt lat="42.45857703499496" lon="3.148629991337657">
        <ele>52.530000000000001</ele>
        <time>2025-05-15T15:09:41Z</time>
      </trkpt>
      <trkpt lat="42.458701003342867" lon="3.148715989664197">
        <ele>52.530000000000001</ele>
        <time>2025-05-15T15:09:42Z</time>
      </trkpt>
      <trkpt lat="42.458837041631341" lon="3.148810034617782">
        <ele>52.049999999999997</ele>
        <time>2025-05-15T15:09:43Z</time>
      </trkpt>
      <trkpt lat="42.459081038832664" lon="3.148978007957339">
        <ele>51.090000000000003</ele>
        <time>2025-05-15T15:09:45Z</time>
      </trkpt>
      <trkpt lat="42.459187991917133" lon="3.149013966321945">
        <ele>51.090000000000003</ele>
        <time>2025-05-15T15:09:46Z</time>
      </trkpt>
      <trkpt lat="42.45928798802197" lon="3.148985970765352">
        <ele>51.090000000000003</ele>
        <time>2025-05-15T15:09:47Z</time>
      </trkpt>
      <trkpt lat="42.459369041025639" lon="3.148898966610432">
        <ele>51.090000000000003</ele>
        <time>2025-05-15T15:09:48Z</time>
      </trkpt>
      <trkpt lat="42.459411034360528" lon="3.148776004090905">
        <ele>51.090000000000003</ele>
        <time>2025-05-15T15:09:49Z</time>
      </trkpt>
      <trkpt lat="42.459396030753851" lon="3.148641977459192">
        <ele>51.57</ele>
        <time>2025-05-15T15:09:50Z</time>
      </trkpt>
      <trkpt lat="42.459379015490413" lon="3.148488001897931">
        <ele>51.57</ele>
        <time>2025-05-15T15:09:51Z</time>
      </trkpt>
      <trkpt lat="42.459380021318793" lon="3.148326985538006">
        <ele>51.57</ele>
        <time>2025-05-15T15:09:52Z</time>
      </trkpt>
      <trkpt lat="42.459406005218625" lon="3.148158006370068">
        <ele>51.090000000000003</ele>
        <time>2025-05-15T15:09:53Z</time>
      </trkpt>
      <trkpt lat="42.459461996331811" lon="3.1480129994452">
        <ele>50.609999999999999</ele>
        <time>2025-05-15T15:09:54Z</time>
      </trkpt>
      <trkpt lat="42.45973901823163" lon="3.147425008937717">
        <ele>49.159999999999997</ele>
        <time>2025-05-15T15:09:58Z</time>
      </trkpt>
      <trkpt lat="42.459812024608254" lon="3.147349990904331">
        <ele>48.68</ele>
        <time>2025-05-15T15:09:59Z</time>
      </trkpt>
      <trkpt lat="42.45989098213613" lon="3.147295005619526">
        <ele>48.68</ele>
        <time>2025-05-15T15:10:00Z</time>
      </trkpt>
      <trkpt lat="42.459970023483038" lon="3.147240020334721">
        <ele>48.200000000000003</ele>
        <time>2025-05-15T15:10:01Z</time>
      </trkpt>
      <trkpt lat="42.460056021809578" lon="3.14730397425592">
        <ele>48.200000000000003</ele>
        <time>2025-05-15T15:10:02Z</time>
      </trkpt>
      <trkpt lat="42.460092986002564" lon="3.147377986460924">
        <ele>48.200000000000003</ele>
        <time>2025-05-15T15:10:03Z</time>
      </trkpt>
      <trkpt lat="42.460107989609241" lon="3.147546965628862">
        <ele>48.200000000000003</ele>
        <time>2025-05-15T15:10:04Z</time>
      </trkpt>
      <trkpt lat="42.460090974345803" lon="3.147703958675265">
        <ele>48.68</ele>
        <time>2025-05-15T15:10:05Z</time>
      </trkpt>
      <trkpt lat="42.460073037073016" lon="3.147876961156726">
        <ele>49.159999999999997</ele>
        <time>2025-05-15T15:10:06Z</time>
      </trkpt>
      <trkpt lat="42.460059961304069" lon="3.148045018315315">
        <ele>49.649999999999999</ele>
        <time>2025-05-15T15:10:07Z</time>
      </trkpt>
      <trkpt lat="42.460116036236286" lon="3.148223971948028">
        <ele>50.130000000000003</ele>
        <time>2025-05-15T15:10:08Z</time>
      </trkpt>
      <trkpt lat="42.460179990157485" lon="3.148423964157701">
        <ele>51.090000000000003</ele>
        <time>2025-05-15T15:10:09Z</time>
      </trkpt>
      <trkpt lat="42.460218966007233" lon="3.148638959974051">
        <ele>52.049999999999997</ele>
        <time>2025-05-15T15:10:10Z</time>
      </trkpt>
      <trkpt lat="42.460218966007233" lon="3.148870971053839">
        <ele>52.530000000000001</ele>
        <time>2025-05-15T15:10:11Z</time>
      </trkpt>
      <trkpt lat="42.460204968228936" lon="3.149105999618769">
        <ele>53.490000000000002</ele>
        <time>2025-05-15T15:10:12Z</time>
      </trkpt>
      <trkpt lat="42.460200022906065" lon="3.14955803565681">
        <ele>55.409999999999997</ele>
        <time>2025-05-15T15:10:14Z</time>
      </trkpt>
      <trkpt lat="42.460228018462658" lon="3.149749981239438">
        <ele>56.369999999999997</ele>
        <time>2025-05-15T15:10:15Z</time>
      </trkpt>
      <trkpt lat="42.460307981818914" lon="3.149899011477828">
        <ele>57.340000000000003</ele>
        <time>2025-05-15T15:10:16Z</time>
      </trkpt>
      <trkpt lat="42.460391968488693" lon="3.150041000917554">
        <ele>57.82</ele>
        <time>2025-05-15T15:10:17Z</time>
      </trkpt>
      <trkpt lat="42.460516020655632" lon="3.150146026164293">
        <ele>58.780000000000001</ele>
        <time>2025-05-15T15:10:18Z</time>
      </trkpt>
      <trkpt lat="42.460639989003539" lon="3.150250967592001">
        <ele>59.740000000000002</ele>
        <time>2025-05-15T15:10:19Z</time>
      </trkpt>
      <trkpt lat="42.460764963179827" lon="3.150287009775639">
        <ele>60.219999999999999</ele>
        <time>2025-05-15T15:10:20Z</time>
      </trkpt>
      <trkpt lat="42.460879040881991" lon="3.150301007553935">
        <ele>60.700000000000003</ele>
        <time>2025-05-15T15:10:21Z</time>
      </trkpt>
      <trkpt lat="42.460981970652938" lon="3.150212997570634">
        <ele>61.659999999999997</ele>
        <time>2025-05-15T15:10:22Z</time>
      </trkpt>
      <trkpt lat="42.461037961766124" lon="3.150105038657785">
        <ele>62.619999999999997</ele>
        <time>2025-05-15T15:10:23Z</time>
      </trkpt>
      <trkpt lat="42.461064029484987" lon="3.149986015632749">
        <ele>63.100000000000001</ele>
        <time>2025-05-15T15:10:24Z</time>
      </trkpt>
      <trkpt lat="42.461055982857943" lon="3.149804966524243">
        <ele>63.579999999999998</ele>
        <time>2025-05-15T15:10:25Z</time>
      </trkpt>
      <trkpt lat="42.46104902587831" lon="3.149621989578009">
        <ele>64.069999999999993</ele>
        <time>2025-05-15T15:10:26Z</time>
      </trkpt>
      <trkpt lat="42.461061011999846" lon="3.149418979883194">
        <ele>64.549999999999997</ele>
        <time>2025-05-15T15:10:27Z</time>
      </trkpt>
      <trkpt lat="42.461107028648257" lon="3.149234997108579">
        <ele>65.030000000000001</ele>
        <time>2025-05-15T15:10:28Z</time>
      </trkpt>
      <trkpt lat="42.461211970075965" lon="3.149073980748653">
        <ele>65.510000000000005</ele>
        <time>2025-05-15T15:10:29Z</time>
      </trkpt>
      <trkpt lat="42.461318001151085" lon="3.148911958560348">
        <ele>65.989999999999995</ele>
        <time>2025-05-15T15:10:30Z</time>
      </trkpt>
      <trkpt lat="42.461433000862598" lon="3.148768041282892">
        <ele>65.989999999999995</ele>
        <time>2025-05-15T15:10:31Z</time>
      </trkpt>
      <trkpt lat="42.461558980867267" lon="3.148664021864533">
        <ele>66.469999999999999</ele>
        <time>2025-05-15T15:10:32Z</time>
      </trkpt>
      <trkpt lat="42.461670963093638" lon="3.14857198856771">
        <ele>66.469999999999999</ele>
        <time>2025-05-15T15:10:33Z</time>
      </trkpt>
      <trkpt lat="42.461751010268927" lon="3.14850602298975">
        <ele>66.950000000000003</ele>
        <time>2025-05-15T15:10:34Z</time>
      </trkpt>
      <trkpt lat="42.461857963353395" lon="3.14850602298975">
        <ele>66.950000000000003</ele>
        <time>2025-05-15T15:10:35Z</time>
      </trkpt>
      <trkpt lat="42.461916971951723" lon="3.148553967475891">
        <ele>66.950000000000003</ele>
        <time>2025-05-15T15:10:36Z</time>
      </trkpt>
      <trkpt lat="42.461986960843205" lon="3.148630997166038">
        <ele>66.950000000000003</ele>
        <time>2025-05-15T15:10:37Z</time>
      </trkpt>
      <trkpt lat="42.461986960843205" lon="3.148769969120622">
        <ele>66.950000000000003</ele>
        <time>2025-05-15T15:10:38Z</time>
      </trkpt>
      <trkpt lat="42.461965000256896" lon="3.148925034329295">
        <ele>66.950000000000003</ele>
        <time>2025-05-15T15:10:39Z</time>
      </trkpt>
      <trkpt lat="42.461939016357064" lon="3.149084039032459">
        <ele>67.430000000000007</ele>
        <time>2025-05-15T15:10:40Z</time>
      </trkpt>
      <trkpt lat="42.461913032457232" lon="3.149245977401733">
        <ele>67.430000000000007</ele>
        <time>2025-05-15T15:10:41Z</time>
      </trkpt>
      <trkpt lat="42.461938010528684" lon="3.149382015690208">
        <ele>67.909999999999997</ele>
        <time>2025-05-15T15:10:42Z</time>
      </trkpt>
      <trkpt lat="42.462009005248547" lon="3.149501038715243">
        <ele>68.390000000000001</ele>
        <time>2025-05-15T15:10:43Z</time>
      </trkpt>
      <trkpt lat="42.462110007181764" lon="3.149575972929597">
        <ele>68.870000000000005</ele>
        <time>2025-05-15T15:10:44Z</time>
      </trkpt>
      <trkpt lat="42.46223296970129" lon="3.149636993184686">
        <ele>69.829999999999998</ele>
        <time>2025-05-15T15:10:45Z</time>
      </trkpt>
      <trkpt lat="42.462354004383087" lon="3.149698013439775">
        <ele>70.310000000000002</ele>
        <time>2025-05-15T15:10:46Z</time>
      </trkpt>
      <trkpt lat="42.462477972730994" lon="3.149770013988018">
        <ele>71.269999999999996</ele>
        <time>2025-05-15T15:10:47Z</time>
      </trkpt>
      <trkpt lat="42.462588027119637" lon="3.149878978729248">
        <ele>72.239999999999995</ele>
        <time>2025-05-15T15:10:48Z</time>
      </trkpt>
      <trkpt lat="42.462673019617796" lon="3.150049969553947">
        <ele>72.719999999999999</ele>
        <time>2025-05-15T15:10:49Z</time>
      </trkpt>
      <trkpt lat="42.462761029601097" lon="3.150232024490833">
        <ele>73.680000000000007</ele>
        <time>2025-05-15T15:10:50Z</time>
      </trkpt>
      <trkpt lat="42.462849039584398" lon="3.150421036407352">
        <ele>74.640000000000001</ele>
        <time>2025-05-15T15:10:51Z</time>
      </trkpt>
      <trkpt lat="42.463036961853504" lon="3.150804005563259">
        <ele>76.560000000000002</ele>
        <time>2025-05-15T15:10:53Z</time>
      </trkpt>
      <trkpt lat="42.463167971000075" lon="3.150962004438043">
        <ele>77.040000000000006</ele>
        <time>2025-05-15T15:10:54Z</time>
      </trkpt>
      <trkpt lat="42.463323958218098" lon="3.151099970564246">
        <ele>78</ele>
        <time>2025-05-15T15:10:55Z</time>
      </trkpt>
      <trkpt lat="42.463659988716245" lon="3.151291999965906">
        <ele>79.450000000000003</ele>
        <time>2025-05-15T15:10:57Z</time>
      </trkpt>
      <trkpt lat="42.463838020339608" lon="3.151358971372247">
        <ele>80.409999999999997</ele>
        <time>2025-05-15T15:10:58Z</time>
      </trkpt>
      <trkpt lat="42.464022003114223" lon="3.151397025212646">
        <ele>81.370000000000005</ele>
        <time>2025-05-15T15:10:59Z</time>
      </trkpt>
      <trkpt lat="42.464722981676459" lon="3.151444969698787">
        <ele>85.209999999999994</ele>
        <time>2025-05-15T15:11:03Z</time>
      </trkpt>
      <trkpt lat="42.464866982772946" lon="3.151422003284097">
        <ele>85.689999999999998</ele>
        <time>2025-05-15T15:11:04Z</time>
      </trkpt>
      <trkpt lat="42.464987011626363" lon="3.151356959715486">
        <ele>86.180000000000007</ele>
        <time>2025-05-15T15:11:05Z</time>
      </trkpt>
      <trkpt lat="42.465092958882451" lon="3.151299962773919">
        <ele>87.140000000000001</ele>
        <time>2025-05-15T15:11:06Z</time>
      </trkpt>
      <trkpt lat="42.465192032977939" lon="3.15127900801599">
        <ele>87.620000000000005</ele>
        <time>2025-05-15T15:11:07Z</time>
      </trkpt>
      <trkpt lat="42.465294040739536" lon="3.151288982480764">
        <ele>88.099999999999994</ele>
        <time>2025-05-15T15:11:08Z</time>
      </trkpt>
      <trkpt lat="42.465379033237696" lon="3.151346985250711">
        <ele>88.579999999999998</ele>
        <time>2025-05-15T15:11:09Z</time>
      </trkpt>
      <trkpt lat="42.465431001037359" lon="3.151459973305464">
        <ele>89.060000000000002</ele>
        <time>2025-05-15T15:11:10Z</time>
      </trkpt>
      <trkpt lat="42.465446004644036" lon="3.151615960523486">
        <ele>89.540000000000006</ele>
        <time>2025-05-15T15:11:11Z</time>
      </trkpt>
      <trkpt lat="42.465410968288779" lon="3.151792986318469">
        <ele>90.5</ele>
        <time>2025-05-15T15:11:12Z</time>
      </trkpt>
      <trkpt lat="42.465366963297129" lon="3.15198702737689">
        <ele>90.980000000000004</ele>
        <time>2025-05-15T15:11:13Z</time>
      </trkpt>
      <trkpt lat="42.465294962748885" lon="3.152166986837983">
        <ele>91.459999999999994</ele>
        <time>2025-05-15T15:11:14Z</time>
      </trkpt>
      <trkpt lat="42.465220028534532" lon="3.15235298126936">
        <ele>92.420000000000002</ele>
        <time>2025-05-15T15:11:15Z</time>
      </trkpt>
      <trkpt lat="42.465121960267425" lon="3.15252497792244">
        <ele>92.900000000000006</ele>
        <time>2025-05-15T15:11:16Z</time>
      </trkpt>
      <trkpt lat="42.465020036324859" lon="3.152690017595887">
        <ele>93.390000000000001</ele>
        <time>2025-05-15T15:11:17Z</time>
      </trkpt>
      <trkpt lat="42.464926997199655" lon="3.152839969843626">
        <ele>94.349999999999994</ele>
        <time>2025-05-15T15:11:18Z</time>
      </trkpt>
      <trkpt lat="42.464880980551243" lon="3.153058988973498">
        <ele>95.310000000000002</ele>
        <time>2025-05-15T15:11:19Z</time>
      </trkpt>
      <trkpt lat="42.464840998873115" lon="3.153248000890017">
        <ele>96.269999999999996</ele>
        <time>2025-05-15T15:11:20Z</time>
      </trkpt>
      <trkpt lat="42.464882992208004" lon="3.15349099226296">
        <ele>96.75</ele>
        <time>2025-05-15T15:11:21Z</time>
      </trkpt>
      <trkpt lat="42.464922973886132" lon="3.153721997514367">
        <ele>97.709999999999994</ele>
        <time>2025-05-15T15:11:22Z</time>
      </trkpt>
      <trkpt lat="42.464963961392641" lon="3.153958031907678">
        <ele>98.670000000000002</ele>
        <time>2025-05-15T15:11:23Z</time>
      </trkpt>
      <trkpt lat="42.465183986350894" lon="3.154825977981091">
        <ele>102.04000000000001</ele>
        <time>2025-05-15T15:11:27Z</time>
      </trkpt>
      <trkpt lat="42.465265039354563" lon="3.154980037361383">
        <ele>103</ele>
        <time>2025-05-15T15:11:28Z</time>
      </trkpt>
      <trkpt lat="42.465372998267412" lon="3.155126972123981">
        <ele>103.95999999999999</ele>
        <time>2025-05-15T15:11:29Z</time>
      </trkpt>
      <trkpt lat="42.465479029342532" lon="3.155270973220468">
        <ele>104.44</ele>
        <time>2025-05-15T15:11:30Z</time>
      </trkpt>
      <trkpt lat="42.465607021003962" lon="3.155368035659194">
        <ele>105.40000000000001</ele>
        <time>2025-05-15T15:11:31Z</time>
      </trkpt>
      <trkpt lat="42.465738030150533" lon="3.15544699318707">
        <ele>106.36</ele>
        <time>2025-05-15T15:11:32Z</time>
      </trkpt>
      <trkpt lat="42.465871972963214" lon="3.155494015663862">
        <ele>106.84</ele>
        <time>2025-05-15T15:11:33Z</time>
      </trkpt>
      <trkpt lat="42.466017985716462" lon="3.155469037592411">
        <ele>108.29000000000001</ele>
        <time>2025-05-15T15:11:34Z</time>
      </trkpt>
      <trkpt lat="42.466160980984569" lon="3.155401982367039">
        <ele>109.25</ele>
        <time>2025-05-15T15:11:35Z</time>
      </trkpt>
      <trkpt lat="42.466300036758184" lon="3.155299974605441">
        <ele>110.20999999999999</ele>
        <time>2025-05-15T15:11:36Z</time>
      </trkpt>
      <trkpt lat="42.466440014541149" lon="3.155196039006114">
        <ele>111.17</ele>
        <time>2025-05-15T15:11:37Z</time>
      </trkpt>
      <trkpt lat="42.466569012030959" lon="3.155100988224149">
        <ele>112.13</ele>
        <time>2025-05-15T15:11:38Z</time>
      </trkpt>
      <trkpt lat="42.466703960672021" lon="3.155115991830826">
        <ele>112.61</ele>
        <time>2025-05-15T15:11:39Z</time>
      </trkpt>
      <trkpt lat="42.466832036152482" lon="3.155149016529322">
        <ele>113.56999999999999</ele>
        <time>2025-05-15T15:11:40Z</time>
      </trkpt>
      <trkpt lat="42.466959021985531" lon="3.155243983492255">
        <ele>114.05</ele>
        <time>2025-05-15T15:11:41Z</time>
      </trkpt>
      <trkpt lat="42.467090031132102" lon="3.155353032052517">
        <ele>115.01000000000001</ele>
        <time>2025-05-15T15:11:42Z</time>
      </trkpt>
      <trkpt lat="42.467219028621912" lon="3.155464008450508">
        <ele>115.5</ele>
        <time>2025-05-15T15:11:43Z</time>
      </trkpt>
      <trkpt lat="42.467342996969819" lon="3.155570039525628">
        <ele>115.98</ele>
        <time>2025-05-15T15:11:44Z</time>
      </trkpt>
      <trkpt lat="42.46745003387332" lon="3.155651008710265">
        <ele>116.45999999999999</ele>
        <time>2025-05-15T15:11:45Z</time>
      </trkpt>
      <trkpt lat="42.46756000444293" lon="3.155651008710265">
        <ele>117.42</ele>
        <time>2025-05-15T15:11:46Z</time>
      </trkpt>
      <trkpt lat="42.467640973627567" lon="3.155598035082221">
        <ele>117.90000000000001</ele>
        <time>2025-05-15T15:11:47Z</time>
      </trkpt>
      <trkpt lat="42.467718003317714" lon="3.155513964593411">
        <ele>118.38</ele>
        <time>2025-05-15T15:11:48Z</time>
      </trkpt>
      <trkpt lat="42.467761002480984" lon="3.155357977375388">
        <ele>118.86</ele>
        <time>2025-05-15T15:11:49Z</time>
      </trkpt>
      <trkpt lat="42.467781035229564" lon="3.155190004035831">
        <ele>119.34</ele>
        <time>2025-05-15T15:11:50Z</time>
      </trkpt>
      <trkpt lat="42.467781035229564" lon="3.154984982684255">
        <ele>119.81999999999999</ele>
        <time>2025-05-15T15:11:51Z</time>
      </trkpt>
      <trkpt lat="42.467781035229564" lon="3.154761018231511">
        <ele>120.3</ele>
        <time>2025-05-15T15:11:52Z</time>
      </trkpt>
      <trkpt lat="42.467781035229564" lon="3.154085017740727">
        <ele>120.78</ele>
        <time>2025-05-15T15:11:55Z</time>
      </trkpt>
      <trkpt lat="42.467858986929059" lon="3.153847977519035">
        <ele>120.78</ele>
        <time>2025-05-15T15:11:56Z</time>
      </trkpt>
      <trkpt lat="42.467927969992161" lon="3.153675980865955">
        <ele>120.78</ele>
        <time>2025-05-15T15:11:57Z</time>
      </trkpt>
      <trkpt lat="42.468041041865945" lon="3.153543965891004">
        <ele>120.78</ele>
        <time>2025-05-15T15:11:58Z</time>
      </trkpt>
      <trkpt lat="42.468155035749078" lon="3.153409017249942">
        <ele>120.3</ele>
        <time>2025-05-15T15:11:59Z</time>
      </trkpt>
      <trkpt lat="42.468262994661927" lon="3.153283037245274">
        <ele>120.3</ele>
        <time>2025-05-15T15:12:00Z</time>
      </trkpt>
      <trkpt lat="42.468329966068268" lon="3.153135012835264">
        <ele>120.3</ele>
        <time>2025-05-15T15:12:01Z</time>
      </trkpt>
      <trkpt lat="42.468391992151737" lon="3.152983970940113">
        <ele>120.3</ele>
        <time>2025-05-15T15:12:02Z</time>
      </trkpt>
      <trkpt lat="42.468417976051569" lon="3.152821026742458">
        <ele>120.78</ele>
        <time>2025-05-15T15:12:03Z</time>
      </trkpt>
      <trkpt lat="42.468403978273273" lon="3.152641989290714">
        <ele>120.78</ele>
        <time>2025-05-15T15:12:04Z</time>
      </trkpt>
      <trkpt lat="42.46835402213037" lon="3.152469992637634">
        <ele>120.78</ele>
        <time>2025-05-15T15:12:05Z</time>
      </trkpt>
      <trkpt lat="42.468294007703662" lon="3.152280980721116">
        <ele>120.78</ele>
        <time>2025-05-15T15:12:06Z</time>
      </trkpt>
      <trkpt lat="42.468266012147069" lon="3.152083000168204">
        <ele>119.81999999999999</ele>
        <time>2025-05-15T15:12:07Z</time>
      </trkpt>
      <trkpt lat="42.468255031853914" lon="3.151908991858363">
        <ele>119.34</ele>
        <time>2025-05-15T15:12:08Z</time>
      </trkpt>
      <trkpt lat="42.468316974118352" lon="3.151788963004947">
        <ele>118.86</ele>
        <time>2025-05-15T15:12:09Z</time>
      </trkpt>
      <trkpt lat="42.468404984101653" lon="3.151672035455704">
        <ele>118.38</ele>
        <time>2025-05-15T15:12:10Z</time>
      </trkpt>
      <trkpt lat="42.468492994084954" lon="3.151555024087429">
        <ele>117.90000000000001</ele>
        <time>2025-05-15T15:12:11Z</time>
      </trkpt>
      <trkpt lat="42.468553008511662" lon="3.151413034647703">
        <ele>116.94</ele>
        <time>2025-05-15T15:12:12Z</time>
      </trkpt>
      <trkpt lat="42.46859097853303" lon="3.151267021894455">
        <ele>116.45999999999999</ele>
        <time>2025-05-15T15:12:13Z</time>
      </trkpt>
      <trkpt lat="42.468564994633198" lon="3.151112040504813">
        <ele>115.5</ele>
        <time>2025-05-15T15:12:14Z</time>
      </trkpt>
      <trkpt lat="42.468535993248224" lon="3.150937026366592">
        <ele>115.01000000000001</ele>
        <time>2025-05-15T15:12:15Z</time>
      </trkpt>
      <trkpt lat="42.468510009348392" lon="3.150780033320189">
        <ele>114.53</ele>
        <time>2025-05-15T15:12:16Z</time>
      </trkpt>
      <trkpt lat="42.468510009348392" lon="3.15057098865509">
        <ele>114.05</ele>
        <time>2025-05-15T15:12:17Z</time>
      </trkpt>
      <trkpt lat="42.46856801211834" lon="3.150410978123546">
        <ele>113.09</ele>
        <time>2025-05-15T15:12:18Z</time>
      </trkpt>
      <trkpt lat="42.468667002394795" lon="3.150287009775639">
        <ele>112.61</ele>
        <time>2025-05-15T15:12:19Z</time>
      </trkpt>
      <trkpt lat="42.468779990449548" lon="3.150157006457448">
        <ele>112.13</ele>
        <time>2025-05-15T15:12:20Z</time>
      </trkpt>
      <trkpt lat="42.468907982110977" lon="3.150061033666134">
        <ele>111.65000000000001</ele>
        <time>2025-05-15T15:12:21Z</time>
      </trkpt>
      <trkpt lat="42.469050977379084" lon="3.150030020624399">
        <ele>110.69</ele>
        <time>2025-05-15T15:12:22Z</time>
      </trkpt>
      <trkpt lat="42.469182992354035" lon="3.149973023682833">
        <ele>110.20999999999999</ele>
        <time>2025-05-15T15:12:23Z</time>
      </trkpt>
      <trkpt lat="42.46927997097373" lon="3.1498590297997">
        <ele>109.25</ele>
        <time>2025-05-15T15:12:24Z</time>
      </trkpt>
      <trkpt lat="42.469390025362372" lon="3.149729026481509">
        <ele>108.29000000000001</ele>
        <time>2025-05-15T15:12:25Z</time>
      </trkpt>
      <trkpt lat="42.469505025073886" lon="3.149659959599376">
        <ele>107.81</ele>
        <time>2025-05-15T15:12:26Z</time>
      </trkpt>
      <trkpt lat="42.469642991200089" lon="3.149576978757978">
        <ele>106.84</ele>
        <time>2025-05-15T15:12:27Z</time>
      </trkpt>
      <trkpt lat="42.46977299451828" lon="3.149459967389703">
        <ele>105.88</ele>
        <time>2025-05-15T15:12:28Z</time>
      </trkpt>
      <trkpt lat="42.469882965087891" lon="3.149320995435119">
        <ele>105.40000000000001</ele>
        <time>2025-05-15T15:12:29Z</time>
      </trkpt>
      <trkpt lat="42.469978015869856" lon="3.149154027923942">
        <ele>104.92</ele>
        <time>2025-05-15T15:12:30Z</time>
      </trkpt>
      <trkpt lat="42.47000802308321" lon="3.148954035714269">
        <ele>104.44</ele>
        <time>2025-05-15T15:12:31Z</time>
      </trkpt>
      <trkpt lat="42.470036018639803" lon="3.148758988827467">
        <ele>103.95999999999999</ele>
        <time>2025-05-15T15:12:32Z</time>
      </trkpt>
      <trkpt lat="42.470063008368015" lon="3.148577017709613">
        <ele>103.95999999999999</ele>
        <time>2025-05-15T15:12:33Z</time>
      </trkpt>
      <trkpt lat="42.470120005309582" lon="3.148435028269887">
        <ele>103</ele>
        <time>2025-05-15T15:12:34Z</time>
      </trkpt>
      <trkpt lat="42.470211032778025" lon="3.148331008851528">
        <ele>102.52</ele>
        <time>2025-05-15T15:12:35Z</time>
      </trkpt>
      <trkpt lat="42.470327960327268" lon="3.148290021345019">
        <ele>102.52</ele>
        <time>2025-05-15T15:12:36Z</time>
      </trkpt>
      <trkpt lat="42.470462992787361" lon="3.14829396083951">
        <ele>101.56</ele>
        <time>2025-05-15T15:12:37Z</time>
      </trkpt>
      <trkpt lat="42.470597019419074" lon="3.148370990529656">
        <ele>101.08</ele>
        <time>2025-05-15T15:12:38Z</time>
      </trkpt>
      <trkpt lat="42.470743032172322" lon="3.148445002734661">
        <ele>100.11</ele>
        <time>2025-05-15T15:12:39Z</time>
      </trkpt>
      <trkpt lat="42.470905976369977" lon="3.148468974977732">
        <ele>99.150000000000006</ele>
        <time>2025-05-15T15:12:40Z</time>
      </trkpt>
      <trkpt lat="42.471065986901522" lon="3.148493031039834">
        <ele>98.189999999999998</ele>
        <time>2025-05-15T15:12:41Z</time>
      </trkpt>
      <trkpt lat="42.471209987998009" lon="3.148548016324639">
        <ele>97.709999999999994</ele>
        <time>2025-05-15T15:12:42Z</time>
      </trkpt>
      <trkpt lat="42.471325993537903" lon="3.148627979680896">
        <ele>96.75</ele>
        <time>2025-05-15T15:12:43Z</time>
      </trkpt>
      <trkpt lat="42.471435964107513" lon="3.148696962743998">
        <ele>95.790000000000006</ele>
        <time>2025-05-15T15:12:44Z</time>
      </trkpt>
      <trkpt lat="42.471550963819027" lon="3.148662010207772">
        <ele>94.829999999999998</ele>
        <time>2025-05-15T15:12:45Z</time>
      </trkpt>
      <trkpt lat="42.471647020429373" lon="3.148566037416458">
        <ele>94.349999999999994</ele>
        <time>2025-05-15T15:12:46Z</time>
      </trkpt>
      <trkpt lat="42.471745004877448" lon="3.148437039926648">
        <ele>93.870000000000005</ele>
        <time>2025-05-15T15:12:47Z</time>
      </trkpt>
      <trkpt lat="42.471851035952568" lon="3.148290021345019">
        <ele>92.900000000000006</ele>
        <time>2025-05-15T15:12:48Z</time>
      </trkpt>
      <trkpt lat="42.472080029547215" lon="3.147973017767072">
        <ele>91.459999999999994</ele>
        <time>2025-05-15T15:12:50Z</time>
      </trkpt>
      <trkpt lat="42.472185976803303" lon="3.147825999185443">
        <ele>90.5</ele>
        <time>2025-05-15T15:12:51Z</time>
      </trkpt>
      <trkpt lat="42.472289996221662" lon="3.147761961445212">
        <ele>89.540000000000006</ele>
        <time>2025-05-15T15:12:52Z</time>
      </trkpt>
      <trkpt lat="42.472389992326498" lon="3.147741006687284">
        <ele>88.579999999999998</ele>
        <time>2025-05-15T15:12:53Z</time>
      </trkpt>
      <trkpt lat="42.472492000088096" lon="3.147718962281942">
        <ele>88.099999999999994</ele>
        <time>2025-05-15T15:12:54Z</time>
      </trkpt>
      <trkpt lat="42.472600964829326" lon="3.147695995867252">
        <ele>87.620000000000005</ele>
        <time>2025-05-15T15:12:55Z</time>
      </trkpt>
      <trkpt lat="42.472680006176233" lon="3.147616032510996">
        <ele>86.659999999999997</ele>
        <time>2025-05-15T15:12:56Z</time>
      </trkpt>
      <trkpt lat="42.47276097536087" lon="3.147492986172438">
        <ele>86.180000000000007</ele>
        <time>2025-05-15T15:12:57Z</time>
      </trkpt>
      <trkpt lat="42.472844962030649" lon="3.147359965369105">
        <ele>85.689999999999998</ele>
        <time>2025-05-15T15:12:58Z</time>
      </trkpt>
      <trkpt lat="42.472927020862699" lon="3.147224010899663">
        <ele>84.730000000000004</ele>
        <time>2025-05-15T15:12:59Z</time>
      </trkpt>
      <trkpt lat="42.47306096367538" lon="3.147158967331052">
        <ele>84.25</ele>
        <time>2025-05-15T15:13:00Z</time>
      </trkpt>
      <trkpt lat="42.473191972821951" lon="3.147099036723375">
        <ele>83.769999999999996</ele>
        <time>2025-05-15T15:13:01Z</time>
      </trkpt>
      <trkpt lat="42.473329016938806" lon="3.147037010639906">
        <ele>83.290000000000006</ele>
        <time>2025-05-15T15:13:02Z</time>
      </trkpt>
      <trkpt lat="42.473462959751487" lon="3.146942965686321">
        <ele>82.329999999999998</ele>
        <time>2025-05-15T15:13:03Z</time>
      </trkpt>
      <trkpt lat="42.473566979169846" lon="3.14678899012506">
        <ele>81.370000000000005</ele>
        <time>2025-05-15T15:13:04Z</time>
      </trkpt>
      <trkpt lat="42.473643003031611" lon="3.146602995693684">
        <ele>80.890000000000001</ele>
        <time>2025-05-15T15:13:05Z</time>
      </trkpt>
      <trkpt lat="42.473684996366501" lon="3.14640099182725">
        <ele>80.409999999999997</ele>
        <time>2025-05-15T15:13:06Z</time>
      </trkpt>
      <trkpt lat="42.473692037165165" lon="3.146181972697377">
        <ele>79.930000000000007</ele>
        <time>2025-05-15T15:13:07Z</time>
      </trkpt>
      <trkpt lat="42.473698994144797" lon="3.145968988537788">
        <ele>79.450000000000003</ele>
        <time>2025-05-15T15:13:08Z</time>
      </trkpt>
      <trkpt lat="42.473722966387868" lon="3.145752986893058">
        <ele>78.480000000000004</ele>
        <time>2025-05-15T15:13:09Z</time>
      </trkpt>
      <trkpt lat="42.473796978592873" lon="3.145570009946823">
        <ele>78</ele>
        <time>2025-05-15T15:13:10Z</time>
      </trkpt>
      <trkpt lat="42.473960006609559" lon="3.145308997482061">
        <ele>77.040000000000006</ele>
        <time>2025-05-15T15:13:12Z</time>
      </trkpt>
      <trkpt lat="42.473978027701378" lon="3.145162984728813">
        <ele>76.560000000000002</ele>
        <time>2025-05-15T15:13:13Z</time>
      </trkpt>
      <trkpt lat="42.474003005772829" lon="3.144943965598941">
        <ele>76.079999999999998</ele>
        <time>2025-05-15T15:13:14Z</time>
      </trkpt>
      <trkpt lat="42.473955983296037" lon="3.14483298920095">
        <ele>75.599999999999994</ele>
        <time>2025-05-15T15:13:15Z</time>
      </trkpt>
      <trkpt lat="42.473882976919413" lon="3.144663004204631">
        <ele>74.640000000000001</ele>
        <time>2025-05-15T15:13:16Z</time>
      </trkpt>
      <trkpt lat="42.473799996078014" lon="3.144482960924506">
        <ele>74.159999999999997</ele>
        <time>2025-05-15T15:13:17Z</time>
      </trkpt>
      <trkpt lat="42.473679967224598" lon="3.144362010061741">
        <ele>73.200000000000003</ele>
        <time>2025-05-15T15:13:18Z</time>
      </trkpt>
      <trkpt lat="42.473579971119761" lon="3.144224965944886">
        <ele>72.719999999999999</ele>
        <time>2025-05-15T15:13:19Z</time>
      </trkpt>
      <trkpt lat="42.473521968349814" lon="3.14408197067678">
        <ele>71.760000000000005</ele>
        <time>2025-05-15T15:13:20Z</time>
      </trkpt>
      <trkpt lat="42.47348802164197" lon="3.143913997337222">
        <ele>70.790000000000006</ele>
        <time>2025-05-15T15:13:21Z</time>
      </trkpt>
      <trkpt lat="42.47351199388504" lon="3.143749041482806">
        <ele>69.829999999999998</ele>
        <time>2025-05-15T15:13:22Z</time>
      </trkpt>
      <trkpt lat="42.473540995270014" lon="3.143546031787992">
        <ele>69.349999999999994</ele>
        <time>2025-05-15T15:13:23Z</time>
      </trkpt>
      <trkpt lat="42.473603021353483" lon="3.143357019871473">
        <ele>68.870000000000005</ele>
        <time>2025-05-15T15:13:24Z</time>
      </trkpt>
      <trkpt lat="42.473687008023262" lon="3.143180999904871">
        <ele>67.909999999999997</ele>
        <time>2025-05-15T15:13:25Z</time>
      </trkpt>
      <trkpt lat="42.473772000521421" lon="3.143001962453127">
        <ele>67.430000000000007</ele>
        <time>2025-05-15T15:13:26Z</time>
      </trkpt>
      <trkpt lat="42.4738559871912" lon="3.142826026305556">
        <ele>66.950000000000003</ele>
        <time>2025-05-15T15:13:27Z</time>
      </trkpt>
      <trkpt lat="42.473935028538108" lon="3.142660986632109">
        <ele>66.469999999999999</ele>
        <time>2025-05-15T15:13:28Z</time>
      </trkpt>
      <trkpt lat="42.474032007157803" lon="3.142524026334286">
        <ele>65.989999999999995</ele>
        <time>2025-05-15T15:13:29Z</time>
      </trkpt>
      <trkpt lat="42.474158992990851" lon="3.142430987209082">
        <ele>65.989999999999995</ele>
        <time>2025-05-15T15:13:30Z</time>
      </trkpt>
      <trkpt lat="42.474309029057622" lon="3.142374996095896">
        <ele>65.510000000000005</ele>
        <time>2025-05-15T15:13:31Z</time>
      </trkpt>
      <trkpt lat="42.474464010447264" lon="3.142316993325949">
        <ele>65.030000000000001</ele>
        <time>2025-05-15T15:13:32Z</time>
      </trkpt>
      <trkpt lat="42.474614968523383" lon="3.142259996384382">
        <ele>64.549999999999997</ele>
        <time>2025-05-15T15:13:33Z</time>
      </trkpt>
      <trkpt lat="42.474741032347083" lon="3.142178021371365">
        <ele>64.069999999999993</ele>
        <time>2025-05-15T15:13:34Z</time>
      </trkpt>
      <trkpt lat="42.474946975708008" lon="3.142002001404762">
        <ele>62.619999999999997</ele>
        <time>2025-05-15T15:13:36Z</time>
      </trkpt>
      <trkpt lat="42.475060969591141" lon="3.142028991132975">
        <ele>62.140000000000001</ele>
        <time>2025-05-15T15:13:37Z</time>
      </trkpt>
      <trkpt lat="42.475168006494641" lon="3.142081964761019">
        <ele>61.18</ele>
        <time>2025-05-15T15:13:38Z</time>
      </trkpt>
      <trkpt lat="42.475286023691297" lon="3.142140973359346">
        <ele>61.18</ele>
        <time>2025-05-15T15:13:39Z</time>
      </trkpt>
      <trkpt lat="42.475409992039204" lon="3.142153965309262">
        <ele>60.700000000000003</ele>
        <time>2025-05-15T15:13:40Z</time>
      </trkpt>
      <trkpt lat="42.475525997579098" lon="3.142133010551333">
        <ele>60.219999999999999</ele>
        <time>2025-05-15T15:13:41Z</time>
      </trkpt>
      <trkpt lat="42.475635968148708" lon="3.142062015831471">
        <ele>59.740000000000002</ele>
        <time>2025-05-15T15:13:42Z</time>
      </trkpt>
      <trkpt lat="42.47572397813201" lon="3.141955984756351">
        <ele>59.259999999999998</ele>
        <time>2025-05-15T15:13:43Z</time>
      </trkpt>
      <trkpt lat="42.475804025307298" lon="3.141860011965036">
        <ele>58.780000000000001</ele>
        <time>2025-05-15T15:13:44Z</time>
      </trkpt>
      <trkpt lat="42.475877031683922" lon="3.141820030286908">
        <ele>58.780000000000001</ele>
        <time>2025-05-15T15:13:45Z</time>
      </trkpt>
      <trkpt lat="42.475946014747024" lon="3.141823969781399">
        <ele>58.780000000000001</ele>
        <time>2025-05-15T15:13:46Z</time>
      </trkpt>
      <trkpt lat="42.476023966446519" lon="3.141864035278559">
        <ele>58.299999999999997</ele>
        <time>2025-05-15T15:13:47Z</time>
      </trkpt>
      <trkpt lat="42.476065037772059" lon="3.141971994191408">
        <ele>58.299999999999997</ele>
        <time>2025-05-15T15:13:48Z</time>
      </trkpt>
      <trkpt lat="42.476088004186749" lon="3.142114989459515">
        <ele>57.82</ele>
        <time>2025-05-15T15:13:49Z</time>
      </trkpt>
      <trkpt lat="42.476117005571723" lon="3.142292015254498">
        <ele>57.340000000000003</ele>
        <time>2025-05-15T15:13:50Z</time>
      </trkpt>
      <trkpt lat="42.476201998069882" lon="3.14281496219337">
        <ele>55.890000000000001</ele>
        <time>2025-05-15T15:13:53Z</time>
      </trkpt>
      <trkpt lat="42.476255977526307" lon="3.142939014360309">
        <ele>55.409999999999997</ele>
        <time>2025-05-15T15:13:54Z</time>
      </trkpt>
      <trkpt lat="42.476333007216454" lon="3.143038004636765">
        <ele>55.409999999999997</ele>
        <time>2025-05-15T15:13:55Z</time>
      </trkpt>
      <trkpt lat="42.476431997492909" lon="3.143090978264809">
        <ele>54.93</ele>
        <time>2025-05-15T15:13:56Z</time>
      </trkpt>
      <trkpt lat="42.476556971669197" lon="3.143115034326911">
        <ele>54.93</ele>
        <time>2025-05-15T15:13:57Z</time>
      </trkpt>
      <trkpt lat="42.476684041321278" lon="3.143077986314893">
        <ele>54.450000000000003</ele>
        <time>2025-05-15T15:13:58Z</time>
      </trkpt>
      <trkpt lat="42.476807003840804" lon="3.143021995201707">
        <ele>53.969999999999999</ele>
        <time>2025-05-15T15:13:59Z</time>
      </trkpt>
      <trkpt lat="42.476916974410415" lon="3.142928034067154">
        <ele>53.969999999999999</ele>
        <time>2025-05-15T15:14:00Z</time>
      </trkpt>
      <trkpt lat="42.477006996050477" lon="3.142788978293538">
        <ele>53.490000000000002</ele>
        <time>2025-05-15T15:14:01Z</time>
      </trkpt>
      <trkpt lat="42.477072039619088" lon="3.142635002732277">
        <ele>53.490000000000002</ele>
        <time>2025-05-15T15:14:02Z</time>
      </trkpt>
      <trkpt lat="42.477117972448468" lon="3.142467029392719">
        <ele>53.009999999999998</ele>
        <time>2025-05-15T15:14:03Z</time>
      </trkpt>
      <trkpt lat="42.477158037945628" lon="3.142325961962342">
        <ele>52.530000000000001</ele>
        <time>2025-05-15T15:14:04Z</time>
      </trkpt>
      <trkpt lat="42.477230960503221" lon="3.142180033028126">
        <ele>52.049999999999997</ele>
        <time>2025-05-15T15:14:05Z</time>
      </trkpt>
      <trkpt lat="42.477311007678509" lon="3.142098980024457">
        <ele>51.57</ele>
        <time>2025-05-15T15:14:06Z</time>
      </trkpt>
      <trkpt lat="42.477412009611726" lon="3.142070984467864">
        <ele>51.090000000000003</ele>
        <time>2025-05-15T15:14:07Z</time>
      </trkpt>
      <trkpt lat="42.477508988231421" lon="3.142051035538316">
        <ele>50.609999999999999</ele>
        <time>2025-05-15T15:14:08Z</time>
      </trkpt>
      <trkpt lat="42.477603033185005" lon="3.142097974196076">
        <ele>50.130000000000003</ele>
        <time>2025-05-15T15:14:09Z</time>
      </trkpt>
      <trkpt lat="42.477703029289842" lon="3.142148014158011">
        <ele>49.649999999999999</ele>
        <time>2025-05-15T15:14:10Z</time>
      </trkpt>
      <trkpt lat="42.477782992646098" lon="3.142242981120944">
        <ele>48.68</ele>
        <time>2025-05-15T15:14:11Z</time>
      </trkpt>
      <trkpt lat="42.47782900929451" lon="3.142369966953993">
        <ele>47.719999999999999</ele>
        <time>2025-05-15T15:14:12Z</time>
      </trkpt>
      <trkpt lat="42.477878965437412" lon="3.142506005242467">
        <ele>47.240000000000002</ele>
        <time>2025-05-15T15:14:13Z</time>
      </trkpt>
      <trkpt lat="42.477925987914205" lon="3.142637014389038">
        <ele>46.280000000000001</ele>
        <time>2025-05-15T15:14:14Z</time>
      </trkpt>
      <trkpt lat="42.478005029261112" lon="3.142712032422423">
        <ele>45.32</ele>
        <time>2025-05-15T15:14:15Z</time>
      </trkpt>
      <trkpt lat="42.478095972910523" lon="3.142765006050468">
        <ele>44.840000000000003</ele>
        <time>2025-05-15T15:14:16Z</time>
      </trkpt>
      <trkpt lat="42.478165961802006" lon="3.142712032422423">
        <ele>43.880000000000003</ele>
        <time>2025-05-15T15:14:17Z</time>
      </trkpt>
      <trkpt lat="42.478251960128546" lon="3.142647994682193">
        <ele>43.399999999999999</ele>
        <time>2025-05-15T15:14:18Z</time>
      </trkpt>
      <trkpt lat="42.478318009525537" lon="3.142564008012414">
        <ele>42.920000000000002</ele>
        <time>2025-05-15T15:14:19Z</time>
      </trkpt>
      <trkpt lat="42.478400990366936" lon="3.142459988594055">
        <ele>42.920000000000002</ele>
        <time>2025-05-15T15:14:20Z</time>
      </trkpt>
      <trkpt lat="42.478489000350237" lon="3.142347000539303">
        <ele>42.439999999999998</ele>
        <time>2025-05-15T15:14:21Z</time>
      </trkpt>
      <trkpt lat="42.47858103364706" lon="3.142237029969692">
        <ele>41.950000000000003</ele>
        <time>2025-05-15T15:14:22Z</time>
      </trkpt>
      <trkpt lat="42.478703996166587" lon="3.142186990007758">
        <ele>41.469999999999999</ele>
        <time>2025-05-15T15:14:23Z</time>
      </trkpt>
      <trkpt lat="42.478828970342875" lon="3.142136028036475">
        <ele>40.990000000000002</ele>
        <time>2025-05-15T15:14:24Z</time>
      </trkpt>
      <trkpt lat="42.478952016681433" lon="3.142084982246161">
        <ele>40.509999999999998</ele>
        <time>2025-05-15T15:14:25Z</time>
      </trkpt>
      <trkpt lat="42.479068022221327" lon="3.142020022496581">
        <ele>40.030000000000001</ele>
        <time>2025-05-15T15:14:26Z</time>
      </trkpt>
      <trkpt lat="42.479158965870738" lon="3.141906028613448">
        <ele>39.07</ele>
        <time>2025-05-15T15:14:27Z</time>
      </trkpt>
      <trkpt lat="42.479228032752872" lon="3.141787005588412">
        <ele>38.590000000000003</ele>
        <time>2025-05-15T15:14:28Z</time>
      </trkpt>
      <trkpt lat="42.479258961975574" lon="3.141645016148686">
        <ele>38.109999999999999</ele>
        <time>2025-05-15T15:14:29Z</time>
      </trkpt>
      <trkpt lat="42.479250999167562" lon="3.141493974253535">
        <ele>37.630000000000003</ele>
        <time>2025-05-15T15:14:30Z</time>
      </trkpt>
      <trkpt lat="42.479240018874407" lon="3.141328012570739">
        <ele>36.670000000000002</ele>
        <time>2025-05-15T15:14:31Z</time>
      </trkpt>
      <trkpt lat="42.479239013046026" lon="3.141161967068911">
        <ele>36.189999999999998</ele>
        <time>2025-05-15T15:14:32Z</time>
      </trkpt>
      <trkpt lat="42.479239013046026" lon="3.140844963490963">
        <ele>34.740000000000002</ele>
        <time>2025-05-15T15:14:34Z</time>
      </trkpt>
      <trkpt lat="42.479259967803955" lon="3.140501976013184">
        <ele>32.340000000000003</ele>
        <time>2025-05-15T15:14:37Z</time>
      </trkpt>
      <trkpt lat="42.479202970862389" lon="3.140355963259935">
        <ele>31.859999999999999</ele>
        <time>2025-05-15T15:14:38Z</time>
      </trkpt>
      <trkpt lat="42.479158965870738" lon="3.140241969376802">
        <ele>31.379999999999999</ele>
        <time>2025-05-15T15:14:39Z</time>
      </trkpt>
      <trkpt lat="42.479114960879087" lon="3.14012898132205">
        <ele>30.420000000000002</ele>
        <time>2025-05-15T15:14:40Z</time>
      </trkpt>
      <trkpt lat="42.479073973372579" lon="3.140024961903691">
        <ele>28.98</ele>
        <time>2025-05-15T15:14:41Z</time>
      </trkpt>
      <trkpt lat="42.479093000292778" lon="3.139894036576152">
        <ele>27.530000000000001</ele>
        <time>2025-05-15T15:14:42Z</time>
      </trkpt>
      <trkpt lat="42.479143040254712" lon="3.139796974137425">
        <ele>26.09</ele>
        <time>2025-05-15T15:14:43Z</time>
      </trkpt>
      <trkpt lat="42.479216968640685" lon="3.139754980802536">
        <ele>24.649999999999999</ele>
        <time>2025-05-15T15:14:44Z</time>
      </trkpt>
      <trkpt lat="42.479314031079412" lon="3.139742994681001">
        <ele>23.210000000000001</ele>
        <time>2025-05-15T15:14:45Z</time>
      </trkpt>
      <trkpt lat="42.479412015527487" lon="3.139768978580833">
        <ele>22.25</ele>
        <time>2025-05-15T15:14:46Z</time>
      </trkpt>
      <trkpt lat="42.47950698249042" lon="3.139794040471315">
        <ele>20.809999999999999</ele>
        <time>2025-05-15T15:14:47Z</time>
      </trkpt>
      <trkpt lat="42.479748968034983" lon="3.139851959422231">
        <ele>17.440000000000001</ele>
        <time>2025-05-15T15:14:50Z</time>
      </trkpt>
      <trkpt lat="42.480010986328125" lon="3.139900993555784">
        <ele>14.08</ele>
        <time>2025-05-15T15:14:54Z</time>
      </trkpt>
      <trkpt lat="42.480139983817935" lon="3.140029991045594">
        <ele>14.08</ele>
        <time>2025-05-15T15:14:55Z</time>
      </trkpt>
      <trkpt lat="42.480207961052656" lon="3.139947010204196">
        <ele>13.6</ele>
        <time>2025-05-15T15:14:56Z</time>
      </trkpt>
      <trkpt lat="42.480119029060006" lon="3.139751041308045">
        <ele>13.6</ele>
        <time>2025-05-15T15:14:57Z</time>
      </trkpt>
      <trkpt lat="42.48010796494782" lon="3.139713993296027">
        <ele>13.6</ele>
        <time>2025-05-15T15:14:58Z</time>
      </trkpt>
      <trkpt lat="42.480081981047988" lon="3.139621037989855">
        <ele>13.6</ele>
        <time>2025-05-15T15:14:59Z</time>
      </trkpt>
      <trkpt lat="42.480003023520112" lon="3.139346027746797">
        <ele>12.630000000000001</ele>
        <time>2025-05-15T15:15:02Z</time>
      </trkpt>
      <trkpt lat="42.479996988549829" lon="3.139277966693044">
        <ele>12.15</ele>
        <time>2025-05-15T15:15:03Z</time>
      </trkpt>
      <trkpt lat="42.480028001591563" lon="3.139185011386871">
        <ele>11.67</ele>
        <time>2025-05-15T15:15:04Z</time>
      </trkpt>
      <trkpt lat="42.480060020461679" lon="3.139099013060331">
        <ele>11.67</ele>
        <time>2025-05-15T15:15:05Z</time>
      </trkpt>
      <trkpt lat="42.480119029060006" lon="3.139017038047314">
        <ele>11.19</ele>
        <time>2025-05-15T15:15:06Z</time>
      </trkpt>
      <trkpt lat="42.480181977152824" lon="3.138929028064013">
        <ele>11.19</ele>
        <time>2025-05-15T15:15:07Z</time>
      </trkpt>
      <trkpt lat="42.480362020432949" lon="3.138675978407264">
        <ele>11.19</ele>
        <time>2025-05-15T15:15:10Z</time>
      </trkpt>
      <trkpt lat="42.480400996282697" lon="3.138577993959189">
        <ele>11.67</ele>
        <time>2025-05-15T15:15:11Z</time>
      </trkpt>
      <trkpt lat="42.48042999766767" lon="3.138481015339494">
        <ele>11.67</ele>
        <time>2025-05-15T15:15:12Z</time>
      </trkpt>
      <trkpt lat="42.480462016537786" lon="3.138378001749516">
        <ele>11.67</ele>
        <time>2025-05-15T15:15:13Z</time>
      </trkpt>
      <trkpt lat="42.480467967689037" lon="3.138269037008286">
        <ele>11.67</ele>
        <time>2025-05-15T15:15:14Z</time>
      </trkpt>
      <trkpt lat="42.480474002659321" lon="3.138152025640011">
        <ele>11.67</ele>
        <time>2025-05-15T15:15:15Z</time>
      </trkpt>
      <trkpt lat="42.480480037629604" lon="3.138033002614975">
        <ele>11.67</ele>
        <time>2025-05-15T15:15:16Z</time>
      </trkpt>
      <trkpt lat="42.480480959638953" lon="3.137910040095449">
        <ele>11.67</ele>
        <time>2025-05-15T15:15:17Z</time>
      </trkpt>
      <trkpt lat="42.48047199100256" lon="3.137668976560235">
        <ele>11.19</ele>
        <time>2025-05-15T15:15:19Z</time>
      </trkpt>
      <trkpt lat="42.480464028194547" lon="3.137446017935872">
        <ele>10.23</ele>
        <time>2025-05-15T15:15:21Z</time>
      </trkpt>
      <trkpt lat="42.480445001274347" lon="3.137338981032372">
        <ele>9.75</ele>
        <time>2025-05-15T15:15:22Z</time>
      </trkpt>
      <trkpt lat="42.48040703125298" lon="3.13725097104907">
        <ele>9.27</ele>
        <time>2025-05-15T15:15:23Z</time>
      </trkpt>
      <trkpt lat="42.480368977412581" lon="3.13716497272253">
        <ele>9.27</ele>
        <time>2025-05-15T15:15:24Z</time>
      </trkpt>
      <trkpt lat="42.480298988521099" lon="3.137095989659429">
        <ele>8.789999999999999</ele>
        <time>2025-05-15T15:15:25Z</time>
      </trkpt>
      <trkpt lat="42.480236040428281" lon="3.137053996324539">
        <ele>8.310000000000001</ele>
        <time>2025-05-15T15:15:26Z</time>
      </trkpt>
      <trkpt lat="42.480177031829953" lon="3.137053996324539">
        <ele>8.310000000000001</ele>
        <time>2025-05-15T15:15:27Z</time>
      </trkpt>
      <trkpt lat="42.48010796494782" lon="3.137063970789313">
        <ele>7.83</ele>
        <time>2025-05-15T15:15:28Z</time>
      </trkpt>
      <trkpt lat="42.480046022683382" lon="3.137090960517526">
        <ele>7.35</ele>
        <time>2025-05-15T15:15:29Z</time>
      </trkpt>
      <trkpt lat="42.479975027963519" lon="3.137145023792982">
        <ele>6.87</ele>
        <time>2025-05-15T15:15:30Z</time>
      </trkpt>
      <trkpt lat="42.479904033243656" lon="3.137197997421026">
        <ele>6.39</ele>
        <time>2025-05-15T15:15:31Z</time>
      </trkpt>
      <trkpt lat="42.47984703630209" lon="3.137295981869102">
        <ele>5.91</ele>
        <time>2025-05-15T15:15:32Z</time>
      </trkpt>
      <trkpt lat="42.479772018268704" lon="3.137362031266093">
        <ele>5.42</ele>
        <time>2025-05-15T15:15:33Z</time>
      </trkpt>
      <trkpt lat="42.479701023548841" lon="3.137425985187292">
        <ele>4.94</ele>
        <time>2025-05-15T15:15:34Z</time>
      </trkpt>
      <trkpt lat="42.47963204048574" lon="3.13744300045073">
        <ele>3.98</ele>
        <time>2025-05-15T15:15:35Z</time>
      </trkpt>
      <trkpt lat="42.479568002745509" lon="3.13742196187377">
        <ele>3.5</ele>
        <time>2025-05-15T15:15:36Z</time>
      </trkpt>
      <trkpt lat="42.479511005803943" lon="3.137403018772602">
        <ele>3.02</ele>
        <time>2025-05-15T15:15:37Z</time>
      </trkpt>
      <trkpt lat="42.479464989155531" lon="3.137317020446062">
        <ele>2.54</ele>
        <time>2025-05-15T15:15:38Z</time>
      </trkpt>
      <trkpt lat="42.479465994983912" lon="3.137210989370942">
        <ele>2.06</ele>
        <time>2025-05-15T15:15:39Z</time>
      </trkpt>
      <trkpt lat="42.479499019682407" lon="3.137133959680796">
        <ele>2.06</ele>
        <time>2025-05-15T15:15:40Z</time>
      </trkpt>
      <trkpt lat="42.479545958340168" lon="3.137060031294823">
        <ele>1.58</ele>
        <time>2025-05-15T15:15:41Z</time>
      </trkpt>
      <trkpt lat="42.479602033272386" lon="3.136999011039734">
        <ele>1.1</ele>
        <time>2025-05-15T15:15:42Z</time>
      </trkpt>
      <trkpt lat="42.479658024385571" lon="3.136936984956265">
        <ele>1.1</ele>
        <time>2025-05-15T15:15:43Z</time>
      </trkpt>
      <trkpt lat="42.479712003841996" lon="3.136878982186317">
        <ele>0.62</ele>
        <time>2025-05-15T15:15:44Z</time>
      </trkpt>
      <trkpt lat="42.479753997176886" lon="3.136832965537906">
        <ele>0.62</ele>
        <time>2025-05-15T15:15:45Z</time>
      </trkpt>
      <trkpt lat="42.479817029088736" lon="3.136769011616707">
        <ele>0.62</ele>
        <time>2025-05-15T15:15:46Z</time>
      </trkpt>
      <trkpt lat="42.480036970227957" lon="3.136471034958959">
        <ele>-0.34</ele>
        <time>2025-05-15T15:15:51Z</time>
      </trkpt>
      <trkpt lat="42.480063959956169" lon="3.136372966691852">
        <ele>-0.34</ele>
        <time>2025-05-15T15:15:52Z</time>
      </trkpt>
      <trkpt lat="42.480078041553497" lon="3.136267019435763">
        <ele>-0.34</ele>
        <time>2025-05-15T15:15:53Z</time>
      </trkpt>
      <trkpt lat="42.480092039331794" lon="3.136166017502546">
        <ele>-0.82</ele>
        <time>2025-05-15T15:15:54Z</time>
      </trkpt>
      <trkpt lat="42.480089021846652" lon="3.136077001690865">
        <ele>-0.82</ele>
        <time>2025-05-15T15:15:55Z</time>
      </trkpt>
      <trkpt lat="42.480075024068356" lon="3.135997960343957">
        <ele>-0.82</ele>
        <time>2025-05-15T15:15:56Z</time>
      </trkpt>
      <trkpt lat="42.48006203211844" lon="3.135920008644462">
        <ele>-1.3</ele>
        <time>2025-05-15T15:15:57Z</time>
      </trkpt>
      <trkpt lat="42.480049040168524" lon="3.135847002267838">
        <ele>-1.3</ele>
        <time>2025-05-15T15:15:58Z</time>
      </trkpt>
      <trkpt lat="42.480038981884718" lon="3.135788999497891">
        <ele>-1.79</ele>
        <time>2025-05-15T15:15:59Z</time>
      </trkpt>
      <trkpt lat="42.480029007419944" lon="3.135733008384705">
        <ele>-1.79</ele>
        <time>2025-05-15T15:16:00Z</time>
      </trkpt>
      <trkpt lat="42.480018027126789" lon="3.135670982301235">
        <ele>-1.79</ele>
        <time>2025-05-15T15:16:01Z</time>
      </trkpt>
      <trkpt lat="42.480005035176873" lon="3.135604010894895">
        <ele>-2.27</ele>
        <time>2025-05-15T15:16:02Z</time>
      </trkpt>
      <trkpt lat="42.479991037398577" lon="3.135540978983045">
        <ele>-2.27</ele>
        <time>2025-05-15T15:16:03Z</time>
      </trkpt>
      <trkpt lat="42.479975027963519" lon="3.135474007576704">
        <ele>-2.27</ele>
        <time>2025-05-15T15:16:04Z</time>
      </trkpt>
      <trkpt lat="42.479959018528461" lon="3.135403012856841">
        <ele>-2.75</ele>
        <time>2025-05-15T15:16:05Z</time>
      </trkpt>
      <trkpt lat="42.479929011315107" lon="3.135094977915287">
        <ele>-2.27</ele>
        <time>2025-05-15T15:16:09Z</time>
      </trkpt>
      <trkpt lat="42.479920964688063" lon="3.134596003219485">
        <ele>-1.79</ele>
        <time>2025-05-15T15:16:15Z</time>
      </trkpt>
      <trkpt lat="42.479930017143488" lon="3.134504975751042">
        <ele>-1.79</ele>
        <time>2025-05-15T15:16:16Z</time>
      </trkpt>
      <trkpt lat="42.479947032406926" lon="3.134343959391117">
        <ele>-1.3</ele>
        <time>2025-05-15T15:16:18Z</time>
      </trkpt>
      <trkpt lat="42.480281973257661" lon="3.133154986426234">
        <ele>0.62</ele>
        <time>2025-05-15T15:16:30Z</time>
      </trkpt>
      <trkpt lat="42.480478025972843" lon="3.132449984550476">
        <ele>1.58</ele>
        <time>2025-05-15T15:16:41Z</time>
      </trkpt>
      <trkpt lat="42.480512978509068" lon="3.132219985127449">
        <ele>2.06</ele>
        <time>2025-05-15T15:16:46Z</time>
      </trkpt>
      <trkpt lat="42.4805389624089" lon="3.132042959332466">
        <ele>2.06</ele>
        <time>2025-05-15T15:16:49Z</time>
      </trkpt>
      <trkpt lat="42.480568969622254" lon="3.131852019578219">
        <ele>2.54</ele>
        <time>2025-05-15T15:16:57Z</time>
      </trkpt>
      <trkpt lat="42.480573998764157" lon="3.1318149715662">
        <ele>3.02</ele>
        <time>2025-05-15T15:17:01Z</time>
      </trkpt>
      <trkpt lat="42.480581039562821" lon="3.13176803290844">
        <ele>3.02</ele>
        <time>2025-05-15T15:17:02Z</time>
      </trkpt>
      <trkpt lat="42.480659997090697" lon="3.131119022145867">
        <ele>3.5</ele>
        <time>2025-05-15T15:17:11Z</time>
      </trkpt>
      <trkpt lat="42.480695033445954" lon="3.130936967208982">
        <ele>3.5</ele>
        <time>2025-05-15T15:17:14Z</time>
      </trkpt>
      <trkpt lat="42.480921009555459" lon="3.130315029993653">
        <ele>3.02</ele>
        <time>2025-05-15T15:17:24Z</time>
      </trkpt>
      <trkpt lat="42.48094598762691" lon="3.130264990031719">
        <ele>2.54</ele>
        <time>2025-05-15T15:17:25Z</time>
      </trkpt>
      <trkpt lat="42.480992004275322" lon="3.130172034725547">
        <ele>2.54</ele>
        <time>2025-05-15T15:17:27Z</time>
      </trkpt>
      <trkpt lat="42.481012959033251" lon="3.130130041390657">
        <ele>2.54</ele>
        <time>2025-05-15T15:17:28Z</time>
      </trkpt>
      <trkpt lat="42.481113960966468" lon="3.129952009767294">
        <ele>1.58</ele>
        <time>2025-05-15T15:17:32Z</time>
      </trkpt>
      <trkpt lat="42.481141034513712" lon="3.129908004775643">
        <ele>1.58</ele>
        <time>2025-05-15T15:17:33Z</time>
      </trkpt>
      <trkpt lat="42.481166012585163" lon="3.129867017269135">
        <ele>1.58</ele>
        <time>2025-05-15T15:17:34Z</time>
      </trkpt>
      <trkpt lat="42.481191996484995" lon="3.129831980913878">
        <ele>1.58</ele>
        <time>2025-05-15T15:17:35Z</time>
      </trkpt>
      <trkpt lat="42.481222003698349" lon="3.12979401089251">
        <ele>1.1</ele>
        <time>2025-05-15T15:17:36Z</time>
      </trkpt>
      <trkpt lat="42.481252010911703" lon="3.129756962880492">
        <ele>1.1</ele>
        <time>2025-05-15T15:17:37Z</time>
      </trkpt>
      <trkpt lat="42.481516040861607" lon="3.129436019808054">
        <ele>0.62</ele>
        <time>2025-05-15T15:17:46Z</time>
      </trkpt>
      <trkpt lat="42.481800019741058" lon="3.129250025376678">
        <ele>1.58</ele>
        <time>2025-05-15T15:17:55Z</time>
      </trkpt>
      <trkpt lat="42.481901021674275" lon="3.129183975979686">
        <ele>1.58</ele>
        <time>2025-05-15T15:18:00Z</time>
      </trkpt>
      <trkpt lat="42.481941003352404" lon="3.129157992079854">
        <ele>0.62</ele>
        <time>2025-05-15T15:18:04Z</time>
      </trkpt>
      <trkpt lat="42.481960030272603" lon="3.129145000129938">
        <ele>0.14</ele>
        <time>2025-05-15T15:18:05Z</time>
      </trkpt>
      <trkpt lat="42.48201803304255" lon="3.129107030108571">
        <ele>0.14</ele>
        <time>2025-05-15T15:18:18Z</time>
      </trkpt>
      <trkpt lat="42.482046028599143" lon="3.129081968218088">
        <ele>0.14</ele>
        <time>2025-05-15T15:18:19Z</time>
      </trkpt>
      <trkpt lat="42.482030019164085" lon="3.129065036773682">
        <ele>0.14</ele>
        <time>2025-05-15T15:18:20Z</time>
      </trkpt>
      <trkpt lat="42.482009986415505" lon="3.129042992368341">
        <ele>-0.34</ele>
        <time>2025-05-15T15:18:21Z</time>
      </trkpt>
      <trkpt lat="42.481984002515674" lon="3.129016002640128">
        <ele>-0.34</ele>
        <time>2025-05-15T15:18:22Z</time>
      </trkpt>
      <trkpt lat="42.481961958110332" lon="3.128992030397058">
        <ele>-0.34</ele>
        <time>2025-05-15T15:18:23Z</time>
      </trkpt>
      <trkpt lat="42.481944020837545" lon="3.128973003476858">
        <ele>-0.34</ele>
        <time>2025-05-15T15:18:24Z</time>
      </trkpt>
      <trkpt lat="42.481930023059249" lon="3.128956994041801">
        <ele>-0.82</ele>
        <time>2025-05-15T15:18:25Z</time>
      </trkpt>
      <trkpt lat="42.481917031109333" lon="3.128944002091885">
        <ele>-0.82</ele>
        <time>2025-05-15T15:18:26Z</time>
      </trkpt>
      <trkpt lat="42.481917031109333" lon="3.128944002091885">
        <ele>-1.3</ele>
        <time>2025-05-15T15:18:27Z</time>
      </trkpt>
      <trkpt lat="42.481917031109333" lon="3.128944002091885">
        <ele>-1.3</ele>
        <time>2025-05-15T15:18:47Z</time>
      </trkpt>
      <trkpt lat="42.481901021674275" lon="3.128686007112265">
        <ele>3.98</ele>
        <time>2025-05-15T15:39:19Z</time>
      </trkpt>
      <trkpt lat="42.481947038322687" lon="3.128790026530623">
        <ele>-1.79</ele>
        <time>2025-05-15T15:39:53Z</time>
      </trkpt>
      <trkpt lat="42.481909990310669" lon="3.128795977681875">
        <ele>2.06</ele>
        <time>2025-05-15T15:40:34Z</time>
      </trkpt>
      <trkpt lat="42.481903033331037" lon="3.128873007372022">
        <ele>5.91</ele>
        <time>2025-05-15T15:41:01Z</time>
      </trkpt>
      <trkpt lat="42.481903033331037" lon="3.128873007372022">
        <ele>5.91</ele>
        <time>2025-05-15T15:41:08Z</time>
      </trkpt>
      <trkpt lat="42.481991965323687" lon="3.129123961552978">
        <ele>5.42</ele>
        <time>2025-05-15T15:41:10Z</time>
      </trkpt>
      <trkpt lat="42.481981990858912" lon="3.129131002351642">
        <ele>5.42</ele>
        <time>2025-05-15T15:41:11Z</time>
      </trkpt>
      <trkpt lat="42.481958018615842" lon="3.129147011786699">
        <ele>3.98</ele>
        <time>2025-05-15T15:41:14Z</time>
      </trkpt>
      <trkpt lat="42.481988025829196" lon="3.129126979038119">
        <ele>3.5</ele>
        <time>2025-05-15T15:41:15Z</time>
      </trkpt>
      <trkpt lat="42.482032030820847" lon="3.129097977653146">
        <ele>2.54</ele>
        <time>2025-05-15T15:41:16Z</time>
      </trkpt>
      <trkpt lat="42.482266975566745" lon="3.129000999033451">
        <ele>1.58</ele>
        <time>2025-05-15T15:41:20Z</time>
      </trkpt>
      <trkpt lat="42.482322966679931" lon="3.129000999033451">
        <ele>1.58</ele>
        <time>2025-05-15T15:41:21Z</time>
      </trkpt>
      <trkpt lat="42.482418017461896" lon="3.129000999033451">
        <ele>1.1</ele>
        <time>2025-05-15T15:41:23Z</time>
      </trkpt>
      <trkpt lat="42.482474008575082" lon="3.128991024568677">
        <ele>0.62</ele>
        <time>2025-05-15T15:41:24Z</time>
      </trkpt>
      <trkpt lat="42.482516001909971" lon="3.128980966284871">
        <ele>0.62</ele>
        <time>2025-05-15T15:41:25Z</time>
      </trkpt>
      <trkpt lat="42.482547014951706" lon="3.128973003476858">
        <ele>0.14</ele>
        <time>2025-05-15T15:41:26Z</time>
      </trkpt>
      <trkpt lat="42.482608035206795" lon="3.128957999870181">
        <ele>-0.34</ele>
        <time>2025-05-15T15:41:27Z</time>
      </trkpt>
      <trkpt lat="42.482608035206795" lon="3.128957999870181">
        <ele>-1.79</ele>
        <time>2025-05-15T15:41:38Z</time>
      </trkpt>
      <trkpt lat="42.48285798355937" lon="3.129016002640128">
        <ele>-2.75</ele>
        <time>2025-05-15T15:41:44Z</time>
      </trkpt>
      <trkpt lat="42.482908023521304" lon="3.129022037610412">
        <ele>-3.23</ele>
        <time>2025-05-15T15:41:45Z</time>
      </trkpt>
      <trkpt lat="42.482954040169716" lon="3.12906201928854">
        <ele>-3.71</ele>
        <time>2025-05-15T15:41:46Z</time>
      </trkpt>
      <trkpt lat="42.483001984655857" lon="3.129104012623429">
        <ele>-3.71</ele>
        <time>2025-05-15T15:41:47Z</time>
      </trkpt>
      <trkpt lat="42.48305001296103" lon="3.129146005958319">
        <ele>-3.71</ele>
        <time>2025-05-15T15:41:48Z</time>
      </trkpt>
      <trkpt lat="42.4830930121243" lon="3.129192022606731">
        <ele>-3.71</ele>
        <time>2025-05-15T15:41:49Z</time>
      </trkpt>
      <trkpt lat="42.483127964660525" lon="3.129251031205058">
        <ele>-3.71</ele>
        <time>2025-05-15T15:41:50Z</time>
      </trkpt>
      <trkpt lat="42.483153026551008" lon="3.129315990954638">
        <ele>-4.19</ele>
        <time>2025-05-15T15:41:51Z</time>
      </trkpt>
      <trkpt lat="42.483178004622459" lon="3.129381034523249">
        <ele>-4.19</ele>
        <time>2025-05-15T15:41:52Z</time>
      </trkpt>
      <trkpt lat="42.483207006007433" lon="3.129456974565983">
        <ele>-3.71</ele>
        <time>2025-05-15T15:41:53Z</time>
      </trkpt>
      <trkpt lat="42.483239024877548" lon="3.129551019519568">
        <ele>-3.71</ele>
        <time>2025-05-15T15:41:54Z</time>
      </trkpt>
      <trkpt lat="42.483435999602079" lon="3.130226014181972">
        <ele>1.1</ele>
        <time>2025-05-15T15:42:01Z</time>
      </trkpt>
      <trkpt lat="42.48358896933496" lon="3.13050102442503">
        <ele>3.02</ele>
        <time>2025-05-15T15:42:05Z</time>
      </trkpt>
      <trkpt lat="42.483630040660501" lon="3.130574030801654">
        <ele>3.5</ele>
        <time>2025-05-15T15:42:06Z</time>
      </trkpt>
      <trkpt lat="42.484046034514904" lon="3.131224969401956">
        <ele>10.710000000000001</ele>
        <time>2025-05-15T15:42:16Z</time>
      </trkpt>
      <trkpt lat="42.484087022021413" lon="3.131258999928832">
        <ele>11.67</ele>
        <time>2025-05-15T15:42:17Z</time>
      </trkpt>
      <trkpt lat="42.484143013134599" lon="3.13127500936389">
        <ele>12.15</ele>
        <time>2025-05-15T15:42:18Z</time>
      </trkpt>
      <trkpt lat="42.484203027561307" lon="3.131291018798947">
        <ele>13.119999999999999</ele>
        <time>2025-05-15T15:42:19Z</time>
      </trkpt>
      <trkpt lat="42.484262036159635" lon="3.131307028234005">
        <ele>14.08</ele>
        <time>2025-05-15T15:42:20Z</time>
      </trkpt>
      <trkpt lat="42.48431702144444" lon="3.131312979385257">
        <ele>14.56</ele>
        <time>2025-05-15T15:42:21Z</time>
      </trkpt>
      <trkpt lat="42.484362032264471" lon="3.131294958293438">
        <ele>15.039999999999999</ele>
        <time>2025-05-15T15:42:22Z</time>
      </trkpt>
      <trkpt lat="42.48440301977098" lon="3.131278026849031">
        <ele>16</ele>
        <time>2025-05-15T15:42:23Z</time>
      </trkpt>
      <trkpt lat="42.48444601893425" lon="3.131261011585593">
        <ele>16</ele>
        <time>2025-05-15T15:42:24Z</time>
      </trkpt>
      <trkpt lat="42.484495975077152" lon="3.131240978837013">
        <ele>16.48</ele>
        <time>2025-05-15T15:42:25Z</time>
      </trkpt>
      <trkpt lat="42.48455498367548" lon="3.131209965795279">
        <ele>16.960000000000001</ele>
        <time>2025-05-15T15:42:26Z</time>
      </trkpt>
      <trkpt lat="42.484624972566962" lon="3.131167972460389">
        <ele>17.440000000000001</ele>
        <time>2025-05-15T15:42:27Z</time>
      </trkpt>
      <trkpt lat="42.48481398448348" lon="3.131064036861062">
        <ele>19.84</ele>
        <time>2025-05-15T15:42:30Z</time>
      </trkpt>
      <trkpt lat="42.484885985031724" lon="3.131032017990947">
        <ele>20.32</ele>
        <time>2025-05-15T15:42:31Z</time>
      </trkpt>
      <trkpt lat="42.485554022714496" lon="3.130549974739552">
        <ele>28.02</ele>
        <time>2025-05-15T15:42:42Z</time>
      </trkpt>
      <trkpt lat="42.485660975798965" lon="3.130383007228375">
        <ele>29.940000000000001</ele>
        <time>2025-05-15T15:42:44Z</time>
      </trkpt>
      <trkpt lat="42.485715039074421" lon="3.130297008901835">
        <ele>30.899999999999999</ele>
        <time>2025-05-15T15:42:45Z</time>
      </trkpt>
      <trkpt lat="42.486170008778572" lon="3.129218006506562">
        <ele>33.299999999999997</ele>
        <time>2025-05-15T15:42:55Z</time>
      </trkpt>
      <trkpt lat="42.486492041498423" lon="3.128635967150331">
        <ele>30.420000000000002</ele>
        <time>2025-05-15T15:43:00Z</time>
      </trkpt>
      <trkpt lat="42.486539985984564" lon="3.128504035994411">
        <ele>29.940000000000001</ele>
        <time>2025-05-15T15:43:01Z</time>
      </trkpt>
      <trkpt lat="42.486578039824963" lon="3.128400016576052">
        <ele>29.460000000000001</ele>
        <time>2025-05-15T15:43:02Z</time>
      </trkpt>
      <trkpt lat="42.486563958227634" lon="3.128251992166042">
        <ele>28.98</ele>
        <time>2025-05-15T15:43:03Z</time>
      </trkpt>
      <trkpt lat="42.486546020954847" lon="3.128140009939671">
        <ele>28.5</ele>
        <time>2025-05-15T15:43:04Z</time>
      </trkpt>
      <trkpt lat="42.486498998478055" lon="3.12803003937006">
        <ele>28.02</ele>
        <time>2025-05-15T15:43:05Z</time>
      </trkpt>
      <trkpt lat="42.486425992101431" lon="3.127947980538011">
        <ele>27.530000000000001</ele>
        <time>2025-05-15T15:43:06Z</time>
      </trkpt>
      <trkpt lat="42.486340999603271" lon="3.127862988039851">
        <ele>27.050000000000001</ele>
        <time>2025-05-15T15:43:07Z</time>
      </trkpt>
      <trkpt lat="42.48625198379159" lon="3.127773972228169">
        <ele>26.57</ele>
        <time>2025-05-15T15:43:08Z</time>
      </trkpt>
      <trkpt lat="42.486161040142179" lon="3.127694008871913">
        <ele>26.57</ele>
        <time>2025-05-15T15:43:09Z</time>
      </trkpt>
      <trkpt lat="42.485965993255377" lon="3.127514971420169">
        <ele>25.129999999999999</ele>
        <time>2025-05-15T15:43:11Z</time>
      </trkpt>
      <trkpt lat="42.485878989100456" lon="3.127403995022178">
        <ele>24.649999999999999</ele>
        <time>2025-05-15T15:43:12Z</time>
      </trkpt>
      <trkpt lat="42.485829032957554" lon="3.127254964783788">
        <ele>23.690000000000001</ele>
        <time>2025-05-15T15:43:13Z</time>
      </trkpt>
      <trkpt lat="42.485786033794284" lon="3.127109035849571">
        <ele>22.73</ele>
        <time>2025-05-15T15:43:14Z</time>
      </trkpt>
      <trkpt lat="42.485742028802633" lon="3.126962017267942">
        <ele>21.77</ele>
        <time>2025-05-15T15:43:15Z</time>
      </trkpt>
      <trkpt lat="42.485699029639363" lon="3.126817010343075">
        <ele>20.809999999999999</ele>
        <time>2025-05-15T15:43:16Z</time>
      </trkpt>
      <trkpt lat="42.485687965527177" lon="3.126687007024884">
        <ele>20.32</ele>
        <time>2025-05-15T15:43:17Z</time>
      </trkpt>
      <trkpt lat="42.485678996890783" lon="3.126573013141751">
        <ele>19.359999999999999</ele>
        <time>2025-05-15T15:43:18Z</time>
      </trkpt>
      <trkpt lat="42.48567103408277" lon="3.126480979844928">
        <ele>18.879999999999999</ele>
        <time>2025-05-15T15:43:19Z</time>
      </trkpt>
      <trkpt lat="42.485664999112487" lon="3.126395987346768">
        <ele>17.920000000000002</ele>
        <time>2025-05-15T15:43:20Z</time>
      </trkpt>
      <trkpt lat="42.485657958313823" lon="3.126315018162131">
        <ele>17.440000000000001</ele>
        <time>2025-05-15T15:43:21Z</time>
      </trkpt>
      <trkpt lat="42.485655024647713" lon="3.126275958493352">
        <ele>16.960000000000001</ele>
        <time>2025-05-15T15:43:22Z</time>
      </trkpt>
      <trkpt lat="42.48573599383235" lon="3.12622700817883">
        <ele>16.48</ele>
        <time>2025-05-15T15:43:23Z</time>
      </trkpt>
      <trkpt lat="42.485777987167239" lon="3.126121982932091">
        <ele>15.52</ele>
        <time>2025-05-15T15:43:24Z</time>
      </trkpt>
      <trkpt lat="42.485856022685766" lon="3.126103039830923">
        <ele>15.52</ele>
        <time>2025-05-15T15:43:25Z</time>
      </trkpt>
      <trkpt lat="42.485943026840687" lon="3.126083007082343">
        <ele>15.039999999999999</ele>
        <time>2025-05-15T15:43:26Z</time>
      </trkpt>
      <trkpt lat="42.486042017117143" lon="3.126060040667653">
        <ele>15.039999999999999</ele>
        <time>2025-05-15T15:43:27Z</time>
      </trkpt>
      <trkpt lat="42.486533029004931" lon="3.126123994588852">
        <ele>11.19</ele>
        <time>2025-05-15T15:43:32Z</time>
      </trkpt>
      <trkpt lat="42.486622966825962" lon="3.126169005408883">
        <ele>10.710000000000001</ele>
        <time>2025-05-15T15:43:33Z</time>
      </trkpt>
      <trkpt lat="42.486705025658011" lon="3.126219967380166">
        <ele>9.27</ele>
        <time>2025-05-15T15:43:34Z</time>
      </trkpt>
      <trkpt lat="42.486777026206255" lon="3.126273024827242">
        <ele>8.789999999999999</ele>
        <time>2025-05-15T15:43:35Z</time>
      </trkpt>
      <trkpt lat="42.486843997612596" lon="3.126320969313383">
        <ele>8.310000000000001</ele>
        <time>2025-05-15T15:43:36Z</time>
      </trkpt>
      <trkpt lat="42.486909041181207" lon="3.126366985961795">
        <ele>7.35</ele>
        <time>2025-05-15T15:43:37Z</time>
      </trkpt>
      <trkpt lat="42.486976012587547" lon="3.126416020095348">
        <ele>6.87</ele>
        <time>2025-05-15T15:43:38Z</time>
      </trkpt>
      <trkpt lat="42.487770030274987" lon="3.12702002003789">
        <ele>5.42</ele>
        <time>2025-05-15T15:43:49Z</time>
      </trkpt>
      <trkpt lat="42.488315021619201" lon="3.127263011410832">
        <ele>6.87</ele>
        <time>2025-05-15T15:43:57Z</time>
      </trkpt>
      <trkpt lat="42.488382998853922" lon="3.127263011410832">
        <ele>7.35</ele>
        <time>2025-05-15T15:43:58Z</time>
      </trkpt>
      <trkpt lat="42.488435972481966" lon="3.127242978662252">
        <ele>7.83</ele>
        <time>2025-05-15T15:43:59Z</time>
      </trkpt>
      <trkpt lat="42.488511996343732" lon="3.127198973670602">
        <ele>8.310000000000001</ele>
        <time>2025-05-15T15:44:00Z</time>
      </trkpt>
      <trkpt lat="42.488567987456918" lon="3.127146000042558">
        <ele>9.27</ele>
        <time>2025-05-15T15:44:01Z</time>
      </trkpt>
      <trkpt lat="42.488624984398484" lon="3.12704298645258">
        <ele>9.75</ele>
        <time>2025-05-15T15:44:02Z</time>
      </trkpt>
      <trkpt lat="42.48867996968329" lon="3.126940978690982">
        <ele>10.710000000000001</ele>
        <time>2025-05-15T15:44:03Z</time>
      </trkpt>
      <trkpt lat="42.488687010481954" lon="3.12680896371603">
        <ele>11.19</ele>
        <time>2025-05-15T15:44:04Z</time>
      </trkpt>
      <trkpt lat="42.488692961633205" lon="3.126682983711362">
        <ele>11.67</ele>
        <time>2025-05-15T15:44:05Z</time>
      </trkpt>
      <trkpt lat="42.488717017695308" lon="3.125408012419939">
        <ele>18.399999999999999</ele>
        <time>2025-05-15T15:44:13Z</time>
      </trkpt>
      <trkpt lat="42.488706959411502" lon="3.124846005812287">
        <ele>21.289999999999999</ele>
        <time>2025-05-15T15:44:16Z</time>
      </trkpt>
      <trkpt lat="42.48867996968329" lon="3.12465799972415">
        <ele>22.25</ele>
        <time>2025-05-15T15:44:17Z</time>
      </trkpt>
      <trkpt lat="42.488620961084962" lon="3.124321969226003">
        <ele>24.649999999999999</ele>
        <time>2025-05-15T15:44:19Z</time>
      </trkpt>
      <trkpt lat="42.488635964691639" lon="3.124151984229684">
        <ele>26.09</ele>
        <time>2025-05-15T15:44:20Z</time>
      </trkpt>
      <trkpt lat="42.488650968298316" lon="3.123966995626688">
        <ele>27.050000000000001</ele>
        <time>2025-05-15T15:44:21Z</time>
      </trkpt>
      <trkpt lat="42.488694973289967" lon="3.123783012852073">
        <ele>28.02</ele>
        <time>2025-05-15T15:44:22Z</time>
      </trkpt>
      <trkpt lat="42.488779965788126" lon="3.123574974015355">
        <ele>28.98</ele>
        <time>2025-05-15T15:44:23Z</time>
      </trkpt>
      <trkpt lat="42.488876022398472" lon="3.123342040926218">
        <ele>29.940000000000001</ele>
        <time>2025-05-15T15:44:24Z</time>
      </trkpt>
      <trkpt lat="42.48897903598845" lon="3.123088991269469">
        <ele>30.899999999999999</ele>
        <time>2025-05-15T15:44:25Z</time>
      </trkpt>
      <trkpt lat="42.490036999806762" lon="3.120706016197801">
        <ele>42.920000000000002</ele>
        <time>2025-05-15T15:44:34Z</time>
      </trkpt>
      <trkpt lat="42.490652985870838" lon="3.119528023526073">
        <ele>51.57</ele>
        <time>2025-05-15T15:44:40Z</time>
      </trkpt>
      <trkpt lat="42.490773014724255" lon="3.119375975802541">
        <ele>53.009999999999998</ele>
        <time>2025-05-15T15:44:41Z</time>
      </trkpt>
      <trkpt lat="42.490890026092529" lon="3.119228035211563">
        <ele>53.969999999999999</ele>
        <time>2025-05-15T15:44:42Z</time>
      </trkpt>
      <trkpt lat="42.491026986390352" lon="3.119118986651301">
        <ele>55.409999999999997</ele>
        <time>2025-05-15T15:44:43Z</time>
      </trkpt>
      <trkpt lat="42.491174004971981" lon="3.119032988324761">
        <ele>56.859999999999999</ele>
        <time>2025-05-15T15:44:44Z</time>
      </trkpt>
      <trkpt lat="42.491332003846765" lon="3.118997029960156">
        <ele>58.299999999999997</ele>
        <time>2025-05-15T15:44:45Z</time>
      </trkpt>
      <trkpt lat="42.491478016600013" lon="3.118969034403563">
        <ele>60.219999999999999</ele>
        <time>2025-05-15T15:44:46Z</time>
      </trkpt>
      <trkpt lat="42.491603996604681" lon="3.118958976119757">
        <ele>61.659999999999997</ele>
        <time>2025-05-15T15:44:47Z</time>
      </trkpt>
      <trkpt lat="42.491912031546235" lon="3.118954030796886">
        <ele>65.030000000000001</ele>
        <time>2025-05-15T15:44:50Z</time>
      </trkpt>
      <trkpt lat="42.492876034229994" lon="3.119294000789523">
        <ele>67.430000000000007</ele>
        <time>2025-05-15T15:44:58Z</time>
      </trkpt>
      <trkpt lat="42.493193037807941" lon="3.119303975254297">
        <ele>66.950000000000003</ele>
        <time>2025-05-15T15:45:00Z</time>
      </trkpt>
      <trkpt lat="42.493360005319118" lon="3.119274973869324">
        <ele>66.950000000000003</ele>
        <time>2025-05-15T15:45:01Z</time>
      </trkpt>
      <trkpt lat="42.49353501945734" lon="3.11924496665597">
        <ele>66.469999999999999</ele>
        <time>2025-05-15T15:45:02Z</time>
      </trkpt>
      <trkpt lat="42.493710033595562" lon="3.119213031604886">
        <ele>66.469999999999999</ele>
        <time>2025-05-15T15:45:03Z</time>
      </trkpt>
      <trkpt lat="42.493883036077023" lon="3.119138013571501">
        <ele>65.989999999999995</ele>
        <time>2025-05-15T15:45:04Z</time>
      </trkpt>
      <trkpt lat="42.494054026901722" lon="3.119044974446297">
        <ele>65.510000000000005</ele>
        <time>2025-05-15T15:45:05Z</time>
      </trkpt>
      <trkpt lat="42.49422200024128" lon="3.118908014148474">
        <ele>64.549999999999997</ele>
        <time>2025-05-15T15:45:06Z</time>
      </trkpt>
      <trkpt lat="42.495074020698667" lon="3.11827702447772">
        <ele>58.299999999999997</ele>
        <time>2025-05-15T15:45:11Z</time>
      </trkpt>
      <trkpt lat="42.495237970724702" lon="3.118220027536154">
        <ele>56.859999999999999</ele>
        <time>2025-05-15T15:45:12Z</time>
      </trkpt>
      <trkpt lat="42.495408961549401" lon="3.118178034201264">
        <ele>55.409999999999997</ele>
        <time>2025-05-15T15:45:13Z</time>
      </trkpt>
      <trkpt lat="42.495572995394468" lon="3.118198988959193">
        <ele>54.450000000000003</ele>
        <time>2025-05-15T15:45:14Z</time>
      </trkpt>
      <trkpt lat="42.495753038674593" lon="3.118252968415618">
        <ele>53.009999999999998</ele>
        <time>2025-05-15T15:45:15Z</time>
      </trkpt>
      <trkpt lat="42.495936015620828" lon="3.118308959528804">
        <ele>51.57</ele>
        <time>2025-05-15T15:45:16Z</time>
      </trkpt>
      <trkpt lat="42.496079010888934" lon="3.118458995595574">
        <ele>50.609999999999999</ele>
        <time>2025-05-15T15:45:17Z</time>
      </trkpt>
      <trkpt lat="42.496238015592098" lon="3.118645995855331">
        <ele>49.159999999999997</ele>
        <time>2025-05-15T15:45:18Z</time>
      </trkpt>
      <trkpt lat="42.496398026123643" lon="3.118834001943469">
        <ele>47.240000000000002</ele>
        <time>2025-05-15T15:45:19Z</time>
      </trkpt>
      <trkpt lat="42.496842015534639" lon="3.119318978860974">
        <ele>41.950000000000003</ele>
        <time>2025-05-15T15:45:22Z</time>
      </trkpt>
      <trkpt lat="42.496981993317604" lon="3.119422998279333">
        <ele>40.509999999999998</ele>
        <time>2025-05-15T15:45:23Z</time>
      </trkpt>
      <trkpt lat="42.497147032991052" lon="3.119476977735758">
        <ele>38.590000000000003</ele>
        <time>2025-05-15T15:45:24Z</time>
      </trkpt>
      <trkpt lat="42.497320035472512" lon="3.119494998827577">
        <ele>36.189999999999998</ele>
        <time>2025-05-15T15:45:25Z</time>
      </trkpt>
      <trkpt lat="42.497503012418747" lon="3.119494998827577">
        <ele>34.259999999999998</ele>
        <time>2025-05-15T15:45:26Z</time>
      </trkpt>
      <trkpt lat="42.499065985903144" lon="3.119454011321068">
        <ele>18.879999999999999</ele>
        <time>2025-05-15T15:45:35Z</time>
      </trkpt>
      <trkpt lat="42.499543000012636" lon="3.119491981342435">
        <ele>14.56</ele>
        <time>2025-05-15T15:45:39Z</time>
      </trkpt>
      <trkpt lat="42.49963897280395" lon="3.119560964405537">
        <ele>13.119999999999999</ele>
        <time>2025-05-15T15:45:40Z</time>
      </trkpt>
      <trkpt lat="42.499722959473729" lon="3.119641011580825">
        <ele>11.67</ele>
        <time>2025-05-15T15:45:41Z</time>
      </trkpt>
      <trkpt lat="42.499799989163876" lon="3.119736984372139">
        <ele>10.710000000000001</ele>
        <time>2025-05-15T15:45:42Z</time>
      </trkpt>
      <trkpt lat="42.499882970005274" lon="3.119841003790498">
        <ele>9.75</ele>
        <time>2025-05-15T15:45:43Z</time>
      </trkpt>
      <trkpt lat="42.499954970553517" lon="3.119975030422211">
        <ele>9.27</ele>
        <time>2025-05-15T15:45:44Z</time>
      </trkpt>
      <trkpt lat="42.500234004110098" lon="3.120451038703322">
        <ele>5.42</ele>
        <time>2025-05-15T15:45:48Z</time>
      </trkpt>
      <trkpt lat="42.500322014093399" lon="3.120544999837875">
        <ele>4.94</ele>
        <time>2025-05-15T15:45:49Z</time>
      </trkpt>
      <trkpt lat="42.500634994357824" lon="3.120820010080934">
        <ele>3.02</ele>
        <time>2025-05-15T15:45:53Z</time>
      </trkpt>
      <trkpt lat="42.500724010169506" lon="3.120874995365739">
        <ele>2.06</ele>
        <time>2025-05-15T15:45:54Z</time>
      </trkpt>
      <trkpt lat="42.50081998296082" lon="3.120911037549377">
        <ele>1.58</ele>
        <time>2025-05-15T15:45:55Z</time>
      </trkpt>
      <trkpt lat="42.500935988500714" lon="3.120911037549377">
        <ele>1.1</ele>
        <time>2025-05-15T15:45:56Z</time>
      </trkpt>
      <trkpt lat="42.501060962677002" lon="3.120911037549377">
        <ele>0.62</ele>
        <time>2025-05-15T15:45:57Z</time>
      </trkpt>
      <trkpt lat="42.50116397626698" lon="3.120869966223836">
        <ele>0.14</ele>
        <time>2025-05-15T15:45:58Z</time>
      </trkpt>
      <trkpt lat="42.501282999292016" lon="3.120822021737695">
        <ele>-0.82</ele>
        <time>2025-05-15T15:45:59Z</time>
      </trkpt>
      <trkpt lat="42.502046003937721" lon="3.120471993461251">
        <ele>-7.55</ele>
        <time>2025-05-15T15:46:06Z</time>
      </trkpt>
      <trkpt lat="42.502111969515681" lon="3.120529996231198">
        <ele>-7.55</ele>
        <time>2025-05-15T15:46:07Z</time>
      </trkpt>
      <trkpt lat="42.502241972833872" lon="3.120567966252565">
        <ele>-8.029999999999999</ele>
        <time>2025-05-15T15:46:08Z</time>
      </trkpt>
      <trkpt lat="42.502292012795806" lon="3.120652036741376">
        <ele>-8.51</ele>
        <time>2025-05-15T15:46:09Z</time>
      </trkpt>
      <trkpt lat="42.502364013344049" lon="3.12077097594738">
        <ele>-8.51</ele>
        <time>2025-05-15T15:46:10Z</time>
      </trkpt>
      <trkpt lat="42.502455962821841" lon="3.120907014235854">
        <ele>-9</ele>
        <time>2025-05-15T15:46:11Z</time>
      </trkpt>
      <trkpt lat="42.502573980018497" lon="3.121000975370407">
        <ele>-9</ele>
        <time>2025-05-15T15:46:12Z</time>
      </trkpt>
      <trkpt lat="42.502707000821829" lon="3.121085967868567">
        <ele>-9</ele>
        <time>2025-05-15T15:46:13Z</time>
      </trkpt>
      <trkpt lat="42.502846978604794" lon="3.121145982295275">
        <ele>-9</ele>
        <time>2025-05-15T15:46:14Z</time>
      </trkpt>
      <trkpt lat="42.502991985529661" lon="3.121202979236841">
        <ele>-9.48</ele>
        <time>2025-05-15T15:46:15Z</time>
      </trkpt>
      <trkpt lat="42.503421977162361" lon="3.121340023353696">
        <ele>-9</ele>
        <time>2025-05-15T15:46:18Z</time>
      </trkpt>
      <trkpt lat="42.503582993522286" lon="3.121323008090258">
        <ele>-9</ele>
        <time>2025-05-15T15:46:19Z</time>
      </trkpt>
      <trkpt lat="42.503733029589057" lon="3.121305992826819">
        <ele>-9</ele>
        <time>2025-05-15T15:46:20Z</time>
      </trkpt>
      <trkpt lat="42.504981011152267" lon="3.120996030047536">
        <ele>-9</ele>
        <time>2025-05-15T15:46:29Z</time>
      </trkpt>
      <trkpt lat="42.505086958408356" lon="3.120929980650544">
        <ele>-9</ele>
        <time>2025-05-15T15:46:30Z</time>
      </trkpt>
      <trkpt lat="42.505177985876799" lon="3.120831996202469">
        <ele>-8.51</ele>
        <time>2025-05-15T15:46:31Z</time>
      </trkpt>
      <trkpt lat="42.505263984203339" lon="3.120721019804478">
        <ele>-8.51</ele>
        <time>2025-05-15T15:46:32Z</time>
      </trkpt>
      <trkpt lat="42.505346965044737" lon="3.1205989792943">
        <ele>-8.029999999999999</ele>
        <time>2025-05-15T15:46:33Z</time>
      </trkpt>
      <trkpt lat="42.505420977249742" lon="3.120439974591136">
        <ele>-8.029999999999999</ele>
        <time>2025-05-15T15:46:34Z</time>
      </trkpt>
      <trkpt lat="42.50550102442503" lon="3.120266972109675">
        <ele>-8.029999999999999</ele>
        <time>2025-05-15T15:46:35Z</time>
      </trkpt>
      <trkpt lat="42.505589034408331" lon="3.120077960193157">
        <ele>-8.029999999999999</ele>
        <time>2025-05-15T15:46:36Z</time>
      </trkpt>
      <trkpt lat="42.5056769605726" lon="3.119850978255272">
        <ele>-7.55</ele>
        <time>2025-05-15T15:46:37Z</time>
      </trkpt>
      <trkpt lat="42.506027994677424" lon="3.118971968069673">
        <ele>-4.19</ele>
        <time>2025-05-15T15:46:41Z</time>
      </trkpt>
      <trkpt lat="42.506068982183933" lon="3.118800977244973">
        <ele>-3.23</ele>
        <time>2025-05-15T15:46:42Z</time>
      </trkpt>
      <trkpt lat="42.50608297996223" lon="3.118604002520442">
        <ele>-2.27</ele>
        <time>2025-05-15T15:46:43Z</time>
      </trkpt>
      <trkpt lat="42.50608297996223" lon="3.11840602196753">
        <ele>-1.3</ele>
        <time>2025-05-15T15:46:44Z</time>
      </trkpt>
      <trkpt lat="42.50608297996223" lon="3.11819395981729">
        <ele>-0.34</ele>
        <time>2025-05-15T15:46:45Z</time>
      </trkpt>
      <trkpt lat="42.506152968853712" lon="3.116296967491508">
        <ele>6.87</ele>
        <time>2025-05-15T15:46:53Z</time>
      </trkpt>
      <trkpt lat="42.506249025464058" lon="3.115680981427431">
        <ele>10.23</ele>
        <time>2025-05-15T15:46:57Z</time>
      </trkpt>
      <trkpt lat="42.506296969950199" lon="3.11550403945148">
        <ele>11.19</ele>
        <time>2025-05-15T15:46:58Z</time>
      </trkpt>
      <trkpt lat="42.506296969950199" lon="3.11550403945148">
        <ele>12.15</ele>
        <time>2025-05-15T15:46:59Z</time>
      </trkpt>
      <trkpt lat="42.50636201351881" lon="3.11541804112494">
        <ele>13.119999999999999</ele>
        <time>2025-05-15T15:47:00Z</time>
      </trkpt>
      <trkpt lat="42.506428984925151" lon="3.11541804112494">
        <ele>13.119999999999999</ele>
        <time>2025-05-15T15:47:01Z</time>
      </trkpt>
      <trkpt lat="42.506545996293426" lon="3.115462968125939">
        <ele>14.08</ele>
        <time>2025-05-15T15:47:02Z</time>
      </trkpt>
      <trkpt lat="42.50657600350678" lon="3.115640999749303">
        <ele>14.56</ele>
        <time>2025-05-15T15:47:03Z</time>
      </trkpt>
      <trkpt lat="42.50657600350678" lon="3.115753987804055">
        <ele>15.52</ele>
        <time>2025-05-15T15:47:04Z</time>
      </trkpt>
      <trkpt lat="42.50657600350678" lon="3.115883991122246">
        <ele>16</ele>
        <time>2025-05-15T15:47:05Z</time>
      </trkpt>
      <trkpt lat="42.50657600350678" lon="3.116031009703875">
        <ele>16.960000000000001</ele>
        <time>2025-05-15T15:47:06Z</time>
      </trkpt>
      <trkpt lat="42.50657600350678" lon="3.116209041327238">
        <ele>17.920000000000002</ele>
        <time>2025-05-15T15:47:07Z</time>
      </trkpt>
      <trkpt lat="42.506587989628315" lon="3.116424959152937">
        <ele>18.879999999999999</ele>
        <time>2025-05-15T15:47:08Z</time>
      </trkpt>
      <trkpt lat="42.506655966863036" lon="3.116879006847739">
        <ele>21.77</ele>
        <time>2025-05-15T15:47:10Z</time>
      </trkpt>
      <trkpt lat="42.506722016260028" lon="3.117048991844058">
        <ele>23.210000000000001</ele>
        <time>2025-05-15T15:47:11Z</time>
      </trkpt>
      <trkpt lat="42.506785970181227" lon="3.117186035960913">
        <ele>24.170000000000002</ele>
        <time>2025-05-15T15:47:12Z</time>
      </trkpt>
      <trkpt lat="42.506911028176546" lon="3.117283014580607">
        <ele>25.129999999999999</ele>
        <time>2025-05-15T15:47:13Z</time>
      </trkpt>
      <trkpt lat="42.507042037323117" lon="3.117336994037032">
        <ele>26.57</ele>
        <time>2025-05-15T15:47:14Z</time>
      </trkpt>
      <trkpt lat="42.507200036197901" lon="3.117340011522174">
        <ele>27.530000000000001</ele>
        <time>2025-05-15T15:47:15Z</time>
      </trkpt>
      <trkpt lat="42.507338002324104" lon="3.1173300370574">
        <ele>28.98</ele>
        <time>2025-05-15T15:47:16Z</time>
      </trkpt>
      <trkpt lat="42.507464988157153" lon="3.117258958518505">
        <ele>30.420000000000002</ele>
        <time>2025-05-15T15:47:17Z</time>
      </trkpt>
      <trkpt lat="42.507605971768498" lon="3.117156028747559">
        <ele>31.379999999999999</ele>
        <time>2025-05-15T15:47:18Z</time>
      </trkpt>
      <trkpt lat="42.507696999236941" lon="3.117025019600987">
        <ele>32.82</ele>
        <time>2025-05-15T15:47:19Z</time>
      </trkpt>
      <trkpt lat="42.50780001282692" lon="3.116876995190978">
        <ele>34.259999999999998</ele>
        <time>2025-05-15T15:47:20Z</time>
      </trkpt>
      <trkpt lat="42.508002016693354" lon="3.116637021303177">
        <ele>37.149999999999999</ele>
        <time>2025-05-15T15:47:22Z</time>
      </trkpt>
      <trkpt lat="42.508122967556119" lon="3.11657901853323">
        <ele>38.590000000000003</ele>
        <time>2025-05-15T15:47:23Z</time>
      </trkpt>
      <trkpt lat="42.508247019723058" lon="3.116519004106522">
        <ele>39.549999999999997</ele>
        <time>2025-05-15T15:47:24Z</time>
      </trkpt>
      <trkpt lat="42.508367970585823" lon="3.116459995508194">
        <ele>40.509999999999998</ele>
        <time>2025-05-15T15:47:25Z</time>
      </trkpt>
      <trkpt lat="42.508483976125717" lon="3.116404004395008">
        <ele>41.469999999999999</ele>
        <time>2025-05-15T15:47:26Z</time>
      </trkpt>
      <trkpt lat="42.508587995544076" lon="3.116330998018384">
        <ele>42.439999999999998</ele>
        <time>2025-05-15T15:47:27Z</time>
      </trkpt>
      <trkpt lat="42.508657984435558" lon="3.116198983043432">
        <ele>43.399999999999999</ele>
        <time>2025-05-15T15:47:28Z</time>
      </trkpt>
      <trkpt lat="42.508731996640563" lon="3.116056993603706">
        <ele>44.359999999999999</ele>
        <time>2025-05-15T15:47:29Z</time>
      </trkpt>
      <trkpt lat="42.508811037987471" lon="3.115907041355968">
        <ele>44.840000000000003</ele>
        <time>2025-05-15T15:47:30Z</time>
      </trkpt>
      <trkpt lat="42.508889995515347" lon="3.115758011117578">
        <ele>46.280000000000001</ele>
        <time>2025-05-15T15:47:31Z</time>
      </trkpt>
      <trkpt lat="42.508969036862254" lon="3.115606969222426">
        <ele>47.240000000000002</ele>
        <time>2025-05-15T15:47:32Z</time>
      </trkpt>
      <trkpt lat="42.50906802713871" lon="3.115478977560997">
        <ele>48.200000000000003</ele>
        <time>2025-05-15T15:47:33Z</time>
      </trkpt>
      <trkpt lat="42.509196018800139" lon="3.115388033911586">
        <ele>48.68</ele>
        <time>2025-05-15T15:47:34Z</time>
      </trkpt>
      <trkpt lat="42.509332979097962" lon="3.115326007828116">
        <ele>49.649999999999999</ele>
        <time>2025-05-15T15:47:35Z</time>
      </trkpt>
      <trkpt lat="42.509479997679591" lon="3.115317039191723">
        <ele>50.609999999999999</ele>
        <time>2025-05-15T15:47:36Z</time>
      </trkpt>
      <trkpt lat="42.509632967412472" lon="3.115350985899568">
        <ele>51.57</ele>
        <time>2025-05-15T15:47:37Z</time>
      </trkpt>
      <trkpt lat="42.50977898016572" lon="3.115383004769683">
        <ele>52.530000000000001</ele>
        <time>2025-05-15T15:47:38Z</time>
      </trkpt>
      <trkpt lat="42.509904038161039" lon="3.115430027246475">
        <ele>53.969999999999999</ele>
        <time>2025-05-15T15:47:39Z</time>
      </trkpt>
      <trkpt lat="42.509988024830818" lon="3.115541003644466">
        <ele>54.450000000000003</ele>
        <time>2025-05-15T15:47:40Z</time>
      </trkpt>
      <trkpt lat="42.510030018165708" lon="3.115695985034108">
        <ele>55.409999999999997</ele>
        <time>2025-05-15T15:47:41Z</time>
      </trkpt>
      <trkpt lat="42.510076034814119" lon="3.115863036364317">
        <ele>55.890000000000001</ele>
        <time>2025-05-15T15:47:42Z</time>
      </trkpt>
      <trkpt lat="42.510149041190743" lon="3.116018017753959">
        <ele>57.340000000000003</ele>
        <time>2025-05-15T15:47:43Z</time>
      </trkpt>
      <trkpt lat="42.510232022032142" lon="3.116147015243769">
        <ele>57.82</ele>
        <time>2025-05-15T15:47:44Z</time>
      </trkpt>
      <trkpt lat="42.510362025350332" lon="3.116221027448773">
        <ele>58.780000000000001</ele>
        <time>2025-05-15T15:47:45Z</time>
      </trkpt>
      <trkpt lat="42.510503008961678" lon="3.116284981369972">
        <ele>59.740000000000002</ele>
        <time>2025-05-15T15:47:46Z</time>
      </trkpt>
      <trkpt lat="42.510652039200068" lon="3.116352036595345">
        <ele>61.18</ele>
        <time>2025-05-15T15:47:47Z</time>
      </trkpt>
      <trkpt lat="42.510819006711245" lon="3.116390006616712">
        <ele>62.140000000000001</ele>
        <time>2025-05-15T15:47:48Z</time>
      </trkpt>
      <trkpt lat="42.51098396256566" lon="3.116422025486827">
        <ele>63.579999999999998</ele>
        <time>2025-05-15T15:47:49Z</time>
      </trkpt>
      <trkpt lat="42.511143973097205" lon="3.116452032700181">
        <ele>65.030000000000001</ele>
        <time>2025-05-15T15:47:50Z</time>
      </trkpt>
      <trkpt lat="42.511284034699202" lon="3.116490002721548">
        <ele>66.469999999999999</ele>
        <time>2025-05-15T15:47:51Z</time>
      </trkpt>
      <trkpt lat="42.511401968076825" lon="3.11653702519834">
        <ele>67.430000000000007</ele>
        <time>2025-05-15T15:47:52Z</time>
      </trkpt>
      <trkpt lat="42.511503975838423" lon="3.116554962471128">
        <ele>68.390000000000001</ele>
        <time>2025-05-15T15:47:53Z</time>
      </trkpt>
      <trkpt lat="42.511587962508202" lon="3.116526966914535">
        <ele>69.349999999999994</ele>
        <time>2025-05-15T15:47:54Z</time>
      </trkpt>
      <trkpt lat="42.511665998026729" lon="3.116462007164955">
        <ele>69.829999999999998</ele>
        <time>2025-05-15T15:47:55Z</time>
      </trkpt>
      <trkpt lat="42.511720983311534" lon="3.116371985524893">
        <ele>69.829999999999998</ele>
        <time>2025-05-15T15:47:56Z</time>
      </trkpt>
      <trkpt lat="42.511759037151933" lon="3.116248017176986">
        <ele>69.829999999999998</ele>
        <time>2025-05-15T15:47:57Z</time>
      </trkpt>
      <trkpt lat="42.511784015223384" lon="3.116090018302202">
        <ele>69.349999999999994</ele>
        <time>2025-05-15T15:47:58Z</time>
      </trkpt>
      <trkpt lat="42.511812010779977" lon="3.115916009992361">
        <ele>68.870000000000005</ele>
        <time>2025-05-15T15:47:59Z</time>
      </trkpt>
      <trkpt lat="42.511847969144583" lon="3.115729009732604">
        <ele>68.870000000000005</ele>
        <time>2025-05-15T15:48:00Z</time>
      </trkpt>
      <trkpt lat="42.511901026591659" lon="3.115534968674183">
        <ele>68.390000000000001</ele>
        <time>2025-05-15T15:48:01Z</time>
      </trkpt>
      <trkpt lat="42.512263962998986" lon="3.11404399573803">
        <ele>63.579999999999998</ele>
        <time>2025-05-15T15:48:08Z</time>
      </trkpt>
      <trkpt lat="42.512282989919186" lon="3.113840986043215">
        <ele>63.100000000000001</ele>
        <time>2025-05-15T15:48:09Z</time>
      </trkpt>
      <trkpt lat="42.512301011011004" lon="3.1136379763484">
        <ele>62.140000000000001</ele>
        <time>2025-05-15T15:48:10Z</time>
      </trkpt>
      <trkpt lat="42.512354990467429" lon="3.113438989967108">
        <ele>60.700000000000003</ele>
        <time>2025-05-15T15:48:11Z</time>
      </trkpt>
      <trkpt lat="42.512421039864421" lon="3.113233968615532">
        <ele>59.740000000000002</ele>
        <time>2025-05-15T15:48:12Z</time>
      </trkpt>
      <trkpt lat="42.512520030140877" lon="3.11284395866096">
        <ele>57.340000000000003</ele>
        <time>2025-05-15T15:48:14Z</time>
      </trkpt>
      <trkpt lat="42.512520030140877" lon="3.11266902834177">
        <ele>56.369999999999997</ele>
        <time>2025-05-15T15:48:15Z</time>
      </trkpt>
      <trkpt lat="42.512493962422013" lon="3.112490996718407">
        <ele>55.409999999999997</ele>
        <time>2025-05-15T15:48:16Z</time>
      </trkpt>
      <trkpt lat="42.512391032651067" lon="3.111941982060671">
        <ele>53.490000000000002</ele>
        <time>2025-05-15T15:48:19Z</time>
      </trkpt>
      <trkpt lat="42.512440988793969" lon="3.111817007884383">
        <ele>53.009999999999998</ele>
        <time>2025-05-15T15:48:20Z</time>
      </trkpt>
      <trkpt lat="42.512495974078774" lon="3.111652974039316">
        <ele>52.530000000000001</ele>
        <time>2025-05-15T15:48:21Z</time>
      </trkpt>
      <trkpt lat="42.512584989890456" lon="3.111311998218298">
        <ele>50.609999999999999</ele>
        <time>2025-05-15T15:48:23Z</time>
      </trkpt>
      <trkpt lat="42.51261499710381" lon="3.111115023493767">
        <ele>49.159999999999997</ele>
        <time>2025-05-15T15:48:24Z</time>
      </trkpt>
      <trkpt lat="42.512607034295797" lon="3.110887035727501">
        <ele>48.200000000000003</ele>
        <time>2025-05-15T15:48:25Z</time>
      </trkpt>
      <trkpt lat="42.51254903152585" lon="3.110697017982602">
        <ele>47.240000000000002</ele>
        <time>2025-05-15T15:48:26Z</time>
      </trkpt>
      <trkpt lat="42.512489017099142" lon="3.1105019710958">
        <ele>46.759999999999998</ele>
        <time>2025-05-15T15:48:27Z</time>
      </trkpt>
      <trkpt lat="42.512468984350562" lon="3.110300973057747">
        <ele>45.799999999999997</ele>
        <time>2025-05-15T15:48:28Z</time>
      </trkpt>
      <trkpt lat="42.512458004057407" lon="3.110102992504835">
        <ele>44.840000000000003</ele>
        <time>2025-05-15T15:48:29Z</time>
      </trkpt>
      <trkpt lat="42.512493040412664" lon="3.109944993630052">
        <ele>44.359999999999999</ele>
        <time>2025-05-15T15:48:30Z</time>
      </trkpt>
      <trkpt lat="42.51255196519196" lon="3.109779031947255">
        <ele>43.399999999999999</ele>
        <time>2025-05-15T15:48:31Z</time>
      </trkpt>
      <trkpt lat="42.512610973790288" lon="3.109608041122556">
        <ele>42.920000000000002</ele>
        <time>2025-05-15T15:48:32Z</time>
      </trkpt>
      <trkpt lat="42.512672999873757" lon="3.109431015327573">
        <ele>41.950000000000003</ele>
        <time>2025-05-15T15:48:33Z</time>
      </trkpt>
      <trkpt lat="42.512770984321833" lon="3.109028013423085">
        <ele>40.509999999999998</ele>
        <time>2025-05-15T15:48:35Z</time>
      </trkpt>
      <trkpt lat="42.512789005413651" lon="3.108830032870174">
        <ele>39.549999999999997</ele>
        <time>2025-05-15T15:48:36Z</time>
      </trkpt>
      <trkpt lat="42.512787999585271" lon="3.108622999861836">
        <ele>38.590000000000003</ele>
        <time>2025-05-15T15:48:37Z</time>
      </trkpt>
      <trkpt lat="42.512765033170581" lon="3.108420995995402">
        <ele>37.630000000000003</ele>
        <time>2025-05-15T15:48:38Z</time>
      </trkpt>
      <trkpt lat="42.512726979330182" lon="3.108219997957349">
        <ele>36.670000000000002</ele>
        <time>2025-05-15T15:48:39Z</time>
      </trkpt>
      <trkpt lat="42.512675011530519" lon="3.108010031282902">
        <ele>35.710000000000001</ele>
        <time>2025-05-15T15:48:40Z</time>
      </trkpt>
      <trkpt lat="42.512622037902474" lon="3.107795035466552">
        <ele>34.740000000000002</ele>
        <time>2025-05-15T15:48:41Z</time>
      </trkpt>
      <trkpt lat="42.512263040989637" lon="3.105606017634273">
        <ele>31.859999999999999</ele>
        <time>2025-05-15T15:48:50Z</time>
      </trkpt>
      <trkpt lat="42.512297993525863" lon="3.102890029549599">
        <ele>35.229999999999997</ele>
        <time>2025-05-15T15:49:00Z</time>
      </trkpt>
      <trkpt lat="42.512519024312496" lon="3.099257983267307">
        <ele>46.280000000000001</ele>
        <time>2025-05-15T15:49:13Z</time>
      </trkpt>
      <trkpt lat="42.512263040989637" lon="3.096776017919183">
        <ele>54.450000000000003</ele>
        <time>2025-05-15T15:49:21Z</time>
      </trkpt>
      <trkpt lat="42.511517973616719" lon="3.095131991431117">
        <ele>61.659999999999997</ele>
        <time>2025-05-15T15:49:27Z</time>
      </trkpt>
      <trkpt lat="42.510071005672216" lon="3.092375015839934">
        <ele>76.560000000000002</ele>
        <time>2025-05-15T15:49:38Z</time>
      </trkpt>
      <trkpt lat="42.509660962969065" lon="3.090625964105129">
        <ele>85.209999999999994</ele>
        <time>2025-05-15T15:49:45Z</time>
      </trkpt>
      <trkpt lat="42.509358040988445" lon="3.088424038141966">
        <ele>95.310000000000002</ele>
        <time>2025-05-15T15:49:54Z</time>
      </trkpt>
      <trkpt lat="42.509436998516321" lon="3.087441008538008">
        <ele>99.629999999999995</ele>
        <time>2025-05-15T15:49:58Z</time>
      </trkpt>
      <trkpt lat="42.509482009336352" lon="3.08720899745822">
        <ele>100.59999999999999</ele>
        <time>2025-05-15T15:49:59Z</time>
      </trkpt>
      <trkpt lat="42.509527020156384" lon="3.086981009691954">
        <ele>101.56</ele>
        <time>2025-05-15T15:50:00Z</time>
      </trkpt>
      <trkpt lat="42.510104030370712" lon="3.085422981530428">
        <ele>106.84</ele>
        <time>2025-05-15T15:50:08Z</time>
      </trkpt>
      <trkpt lat="42.510566962882876" lon="3.084483034908772">
        <ele>109.25</ele>
        <time>2025-05-15T15:50:14Z</time>
      </trkpt>
      <trkpt lat="42.513520997017622" lon="3.077303012832999">
        <ele>109.73</ele>
        <time>2025-05-15T15:50:47Z</time>
      </trkpt>
      <trkpt lat="42.513286974281073" lon="3.07805797085166">
        <ele>101.08</ele>
        <time>2025-05-15T15:50:52Z</time>
      </trkpt>
      <trkpt lat="42.514081997796893" lon="3.075697962194681">
        <ele>89.060000000000002</ele>
        <time>2025-05-15T15:51:02Z</time>
      </trkpt>
      <trkpt lat="42.515311958268285" lon="3.073163023218513">
        <ele>78.480000000000004</ele>
        <time>2025-05-15T15:51:13Z</time>
      </trkpt>
      <trkpt lat="42.516275038942695" lon="3.071386981755495">
        <ele>83.769999999999996</ele>
        <time>2025-05-15T15:51:21Z</time>
      </trkpt>
      <trkpt lat="42.516553988680243" lon="3.071085987612605">
        <ele>87.140000000000001</ele>
        <time>2025-05-15T15:51:23Z</time>
      </trkpt>
      <trkpt lat="42.516723973676562" lon="3.070965958759189">
        <ele>88.579999999999998</ele>
        <time>2025-05-15T15:51:24Z</time>
      </trkpt>
      <trkpt lat="42.516902005299926" lon="3.070840984582901">
        <ele>90.5</ele>
        <time>2025-05-15T15:51:25Z</time>
      </trkpt>
      <trkpt lat="42.518210001289845" lon="3.070169007405639">
        <ele>102.04000000000001</ele>
        <time>2025-05-15T15:51:32Z</time>
      </trkpt>
      <trkpt lat="42.518391972407699" lon="3.070033974945545">
        <ele>103.48</ele>
        <time>2025-05-15T15:51:33Z</time>
      </trkpt>
      <trkpt lat="42.51856698654592" lon="3.069881005212665">
        <ele>104.44</ele>
        <time>2025-05-15T15:51:34Z</time>
      </trkpt>
      <trkpt lat="42.518730014562607" lon="3.069696016609669">
        <ele>105.40000000000001</ele>
        <time>2025-05-15T15:51:35Z</time>
      </trkpt>
      <trkpt lat="42.520511001348495" lon="3.067779997363687">
        <ele>110.69</ele>
        <time>2025-05-15T15:51:46Z</time>
      </trkpt>
      <trkpt lat="42.522008009254932" lon="3.066620025783777">
        <ele>105.88</ele>
        <time>2025-05-15T15:51:55Z</time>
      </trkpt>
      <trkpt lat="42.523597972467542" lon="3.065136009827256">
        <ele>95.310000000000002</ele>
        <time>2025-05-15T15:52:05Z</time>
      </trkpt>
      <trkpt lat="42.525234958156943" lon="3.06372701190412">
        <ele>80.890000000000001</ele>
        <time>2025-05-15T15:52:14Z</time>
      </trkpt>
      <trkpt lat="42.525554979220033" lon="3.063330966979265">
        <ele>77.040000000000006</ele>
        <time>2025-05-15T15:52:16Z</time>
      </trkpt>
      <trkpt lat="42.526354026049376" lon="3.06179297156632">
        <ele>62.140000000000001</ele>
        <time>2025-05-15T15:52:23Z</time>
      </trkpt>
      <trkpt lat="42.527110995724797" lon="3.05938602425158">
        <ele>45.32</ele>
        <time>2025-05-15T15:52:33Z</time>
      </trkpt>
      <trkpt lat="42.527359016239643" lon="3.058926025405526">
        <ele>42.439999999999998</ele>
        <time>2025-05-15T15:52:35Z</time>
      </trkpt>
      <trkpt lat="42.527509974315763" lon="3.05872100405395">
        <ele>40.990000000000002</ele>
        <time>2025-05-15T15:52:36Z</time>
      </trkpt>
      <trkpt lat="42.527677025645971" lon="3.05852796882391">
        <ele>39.549999999999997</ele>
        <time>2025-05-15T15:52:37Z</time>
      </trkpt>
      <trkpt lat="42.527840975672007" lon="3.058340968564153">
        <ele>38.109999999999999</ele>
        <time>2025-05-15T15:52:38Z</time>
      </trkpt>
      <trkpt lat="42.528027975931764" lon="3.058212976902723">
        <ele>37.149999999999999</ele>
        <time>2025-05-15T15:52:39Z</time>
      </trkpt>
      <trkpt lat="42.528216987848282" lon="3.058082973584533">
        <ele>35.710000000000001</ele>
        <time>2025-05-15T15:52:40Z</time>
      </trkpt>
      <trkpt lat="42.529452983289957" lon="3.057421976700425">
        <ele>32.340000000000003</ele>
        <time>2025-05-15T15:52:47Z</time>
      </trkpt>
      <trkpt lat="42.529945001006126" lon="3.057015035301447">
        <ele>30.899999999999999</ele>
        <time>2025-05-15T15:52:50Z</time>
      </trkpt>
      <trkpt lat="42.53010299988091" lon="3.056835997849703">
        <ele>30.420000000000002</ele>
        <time>2025-05-15T15:52:51Z</time>
      </trkpt>
      <trkpt lat="42.53025496378541" lon="3.056627959012985">
        <ele>29.940000000000001</ele>
        <time>2025-05-15T15:52:52Z</time>
      </trkpt>
      <trkpt lat="42.531051998957992" lon="3.054944034665823">
        <ele>28.5</ele>
        <time>2025-05-15T15:52:59Z</time>
      </trkpt>
      <trkpt lat="42.531129028648138" lon="3.054686961695552">
        <ele>28.02</ele>
        <time>2025-05-15T15:53:00Z</time>
      </trkpt>
      <trkpt lat="42.531174961477518" lon="3.054428966715932">
        <ele>27.050000000000001</ele>
        <time>2025-05-15T15:53:01Z</time>
      </trkpt>
      <trkpt lat="42.531459024176002" lon="3.051773998886347">
        <ele>24.170000000000002</ele>
        <time>2025-05-15T15:53:11Z</time>
      </trkpt>
      <trkpt lat="42.532062018290162" lon="3.049667961895466">
        <ele>20.32</ele>
        <time>2025-05-15T15:53:19Z</time>
      </trkpt>
      <trkpt lat="42.532994002103806" lon="3.047341983765364">
        <ele>16</ele>
        <time>2025-05-15T15:53:27Z</time>
      </trkpt>
      <trkpt lat="42.534541971981525" lon="3.043483039364219">
        <ele>17.440000000000001</ele>
        <time>2025-05-15T15:53:39Z</time>
      </trkpt>
      <trkpt lat="42.535159969702363" lon="3.040604023262858">
        <ele>18.399999999999999</ele>
        <time>2025-05-15T15:53:47Z</time>
      </trkpt>
      <trkpt lat="42.535287961363792" lon="3.037607995793223">
        <ele>20.32</ele>
        <time>2025-05-15T15:53:55Z</time>
      </trkpt>
      <trkpt lat="42.535315034911036" lon="3.037229971960187">
        <ele>20.32</ele>
        <time>2025-05-15T15:53:56Z</time>
      </trkpt>
      <trkpt lat="42.535680988803506" lon="3.034663014113903">
        <ele>20.32</ele>
        <time>2025-05-15T15:54:03Z</time>
      </trkpt>
      <trkpt lat="42.536604003980756" lon="3.031566990539432">
        <ele>21.289999999999999</ele>
        <time>2025-05-15T15:54:12Z</time>
      </trkpt>
      <trkpt lat="42.537651993334293" lon="3.028292013332248">
        <ele>20.809999999999999</ele>
        <time>2025-05-15T15:54:22Z</time>
      </trkpt>
      <trkpt lat="42.539195017889142" lon="3.023485997691751">
        <ele>16.960000000000001</ele>
        <time>2025-05-15T15:54:37Z</time>
      </trkpt>
      <trkpt lat="42.540814988315105" lon="3.018445959314704">
        <ele>16.48</ele>
        <time>2025-05-15T15:54:53Z</time>
      </trkpt>
      <trkpt lat="42.542572002857924" lon="3.013052958995104">
        <ele>19.359999999999999</ele>
        <time>2025-05-15T15:55:10Z</time>
      </trkpt>
      <trkpt lat="42.543668020516634" lon="3.010707031935453">
        <ele>21.289999999999999</ele>
        <time>2025-05-15T15:55:18Z</time>
      </trkpt>
      <trkpt lat="42.544357012957335" lon="3.009692989289761">
        <ele>21.77</ele>
        <time>2025-05-15T15:55:22Z</time>
      </trkpt>
      <trkpt lat="42.546179993078113" lon="3.007787028327584">
        <ele>24.170000000000002</ele>
        <time>2025-05-15T15:55:31Z</time>
      </trkpt>
      <trkpt lat="42.54810799844563" lon="3.006681958213449">
        <ele>25.609999999999999</ele>
        <time>2025-05-15T15:55:39Z</time>
      </trkpt>
      <trkpt lat="42.550168018788099" lon="3.006187006831169">
        <ele>26.09</ele>
        <time>2025-05-15T15:55:47Z</time>
      </trkpt>
      <trkpt lat="42.551709031686187" lon="3.006155993789434">
        <ele>26.09</ele>
        <time>2025-05-15T15:55:53Z</time>
      </trkpt>
      <trkpt lat="42.554871020838618" lon="3.006197987124324">
        <ele>25.609999999999999</ele>
        <time>2025-05-15T15:56:05Z</time>
      </trkpt>
      <trkpt lat="42.55775598809123" lon="3.006212990731001">
        <ele>19.84</ele>
        <time>2025-05-15T15:56:16Z</time>
      </trkpt>
      <trkpt lat="42.561159962788224" lon="3.006207039579749">
        <ele>15.52</ele>
        <time>2025-05-15T15:56:29Z</time>
      </trkpt>
      <trkpt lat="42.563221994787455" lon="3.005650984123349">
        <ele>13.6</ele>
        <time>2025-05-15T15:56:37Z</time>
      </trkpt>
      <trkpt lat="42.564872978255153" lon="3.004547003656626">
        <ele>10.23</ele>
        <time>2025-05-15T15:56:44Z</time>
      </trkpt>
      <trkpt lat="42.567461980506778" lon="3.002090016379952">
        <ele>9.27</ele>
        <time>2025-05-15T15:56:56Z</time>
      </trkpt>
      <trkpt lat="42.569573968648911" lon="2.999963024631143">
        <ele>9.27</ele>
        <time>2025-05-15T15:57:06Z</time>
      </trkpt>
      <trkpt lat="42.572400011122227" lon="2.997331023216248">
        <ele>10.23</ele>
        <time>2025-05-15T15:57:19Z</time>
      </trkpt>
      <trkpt lat="42.575080962851644" lon="2.99505801871419">
        <ele>12.630000000000001</ele>
        <time>2025-05-15T15:57:31Z</time>
      </trkpt>
      <trkpt lat="42.577910022810102" lon="2.992392992600799">
        <ele>10.710000000000001</ele>
        <time>2025-05-15T15:57:44Z</time>
      </trkpt>
      <trkpt lat="42.580285035073757" lon="2.990154018625617">
        <ele>9.75</ele>
        <time>2025-05-15T15:57:55Z</time>
      </trkpt>
      <trkpt lat="42.582169035449624" lon="2.98837898299098">
        <ele>11.19</ele>
        <time>2025-05-15T15:58:04Z</time>
      </trkpt>
      <trkpt lat="42.583808032795787" lon="2.986822966486216">
        <ele>16</ele>
        <time>2025-05-15T15:58:13Z</time>
      </trkpt>
      <trkpt lat="42.585421968251467" lon="2.985311960801482">
        <ele>19.359999999999999</ele>
        <time>2025-05-15T15:58:22Z</time>
      </trkpt>
      <trkpt lat="42.587074041366577" lon="2.983743958175182">
        <ele>18.879999999999999</ele>
        <time>2025-05-15T15:58:31Z</time>
      </trkpt>
      <trkpt lat="42.588760983198881" lon="2.982678031548858">
        <ele>17.440000000000001</ele>
        <time>2025-05-15T15:58:39Z</time>
      </trkpt>
      <trkpt lat="42.59028397500515" lon="2.982222978025675">
        <ele>16</ele>
        <time>2025-05-15T15:58:46Z</time>
      </trkpt>
      <trkpt lat="42.592423958703876" lon="2.981733977794647">
        <ele>16</ele>
        <time>2025-05-15T15:58:54Z</time>
      </trkpt>
      <trkpt lat="42.595234997570515" lon="2.981241960078478">
        <ele>14.08</ele>
        <time>2025-05-15T15:59:04Z</time>
      </trkpt>
      <trkpt lat="42.597057977691293" lon="2.981570027768612">
        <ele>13.119999999999999</ele>
        <time>2025-05-15T15:59:11Z</time>
      </trkpt>
      <trkpt lat="42.598802000284195" lon="2.982497988268733">
        <ele>11.67</ele>
        <time>2025-05-15T15:59:18Z</time>
      </trkpt>
      <trkpt lat="42.600984983146191" lon="2.983675980940461">
        <ele>12.15</ele>
        <time>2025-05-15T15:59:27Z</time>
      </trkpt>
      <trkpt lat="42.602870995178819" lon="2.983842026442289">
        <ele>10.23</ele>
        <time>2025-05-15T15:59:34Z</time>
      </trkpt>
      <trkpt lat="42.605486987158656" lon="2.983940010890365">
        <ele>9.75</ele>
        <time>2025-05-15T15:59:44Z</time>
      </trkpt>
      <trkpt lat="42.608498018234968" lon="2.984739979729056">
        <ele>9.27</ele>
        <time>2025-05-15T15:59:56Z</time>
      </trkpt>
      <trkpt lat="42.611153991892934" lon="2.985223028808832">
        <ele>6.39</ele>
        <time>2025-05-15T16:00:06Z</time>
      </trkpt>
      <trkpt lat="42.612699028104544" lon="2.984776021912694">
        <ele>5.91</ele>
        <time>2025-05-15T16:00:12Z</time>
      </trkpt>
      <trkpt lat="42.614054968580604" lon="2.983774971216917">
        <ele>5.42</ele>
        <time>2025-05-15T16:00:18Z</time>
      </trkpt>
      <trkpt lat="42.615214018151164" lon="2.98203899525106">
        <ele>4.94</ele>
        <time>2025-05-15T16:00:25Z</time>
      </trkpt>
      <trkpt lat="42.615856993943453" lon="2.980180978775024">
        <ele>3.5</ele>
        <time>2025-05-15T16:00:31Z</time>
      </trkpt>
      <trkpt lat="42.616347000002861" lon="2.97703399322927">
        <ele>-1.3</ele>
        <time>2025-05-15T16:00:40Z</time>
      </trkpt>
      <trkpt lat="42.616772968322039" lon="2.9737030249089">
        <ele>-1.3</ele>
        <time>2025-05-15T16:00:49Z</time>
      </trkpt>
      <trkpt lat="42.616828037425876" lon="2.970279017463327">
        <ele>1.1</ele>
        <time>2025-05-15T16:00:58Z</time>
      </trkpt>
      <trkpt lat="42.616800963878632" lon="2.966539012268186">
        <ele>4.94</ele>
        <time>2025-05-15T16:01:08Z</time>
      </trkpt>
      <trkpt lat="42.616566019132733" lon="2.963940035551786">
        <ele>6.87</ele>
        <time>2025-05-15T16:01:15Z</time>
      </trkpt>
      <trkpt lat="42.616097973659635" lon="2.960653994232416">
        <ele>8.310000000000001</ele>
        <time>2025-05-15T16:01:24Z</time>
      </trkpt>
      <trkpt lat="42.616306012496352" lon="2.958160964772105">
        <ele>7.83</ele>
        <time>2025-05-15T16:01:31Z</time>
      </trkpt>
      <trkpt lat="42.616978995501995" lon="2.956179985776544">
        <ele>5.42</ele>
        <time>2025-05-15T16:01:37Z</time>
      </trkpt>
      <trkpt lat="42.618044000118971" lon="2.954642996191979">
        <ele>4.46</ele>
        <time>2025-05-15T16:01:43Z</time>
      </trkpt>
      <trkpt lat="42.619818029925227" lon="2.952993018552661">
        <ele>3.98</ele>
        <time>2025-05-15T16:01:51Z</time>
      </trkpt>
      <trkpt lat="42.622216008603573" lon="2.950860997661948">
        <ele>3.98</ele>
        <time>2025-05-15T16:02:02Z</time>
      </trkpt>
      <trkpt lat="42.624982036650181" lon="2.948411973193288">
        <ele>5.42</ele>
        <time>2025-05-15T16:02:15Z</time>
      </trkpt>
      <trkpt lat="42.627662988379598" lon="2.946028998121619">
        <ele>10.23</ele>
        <time>2025-05-15T16:02:28Z</time>
      </trkpt>
      <trkpt lat="42.630065996199846" lon="2.943887002766132">
        <ele>8.789999999999999</ele>
        <time>2025-05-15T16:02:39Z</time>
      </trkpt>
      <trkpt lat="42.632504040375352" lon="2.941863024607301">
        <ele>9.27</ele>
        <time>2025-05-15T16:02:49Z</time>
      </trkpt>
      <trkpt lat="42.635222040116787" lon="2.939580967649818">
        <ele>10.23</ele>
        <time>2025-05-15T16:03:01Z</time>
      </trkpt>
      <trkpt lat="42.638085968792439" lon="2.937066983431578">
        <ele>14.08</ele>
        <time>2025-05-15T16:03:14Z</time>
      </trkpt>
      <trkpt lat="42.641056012362242" lon="2.934464989230037">
        <ele>15.039999999999999</ele>
        <time>2025-05-15T16:03:27Z</time>
      </trkpt>
      <trkpt lat="42.643579971045256" lon="2.932270020246506">
        <ele>14.08</ele>
        <time>2025-05-15T16:03:38Z</time>
      </trkpt>
      <trkpt lat="42.646668031811714" lon="2.929559983313084">
        <ele>18.399999999999999</ele>
        <time>2025-05-15T16:03:52Z</time>
      </trkpt>
      <trkpt lat="42.648664014413953" lon="2.928169006481767">
        <ele>22.25</ele>
        <time>2025-05-15T16:04:01Z</time>
      </trkpt>
      <trkpt lat="42.65044298954308" lon="2.927657039836049">
        <ele>23.690000000000001</ele>
        <time>2025-05-15T16:04:09Z</time>
      </trkpt>
      <trkpt lat="42.652303017675877" lon="2.927111964672804">
        <ele>24.170000000000002</ele>
        <time>2025-05-15T16:04:17Z</time>
      </trkpt>
      <trkpt lat="42.654250971972942" lon="2.926550963893533">
        <ele>24.649999999999999</ele>
        <time>2025-05-15T16:04:26Z</time>
      </trkpt>
      <trkpt lat="42.656631013378501" lon="2.925590984523296">
        <ele>24.649999999999999</ele>
        <time>2025-05-15T16:04:37Z</time>
      </trkpt>
      <trkpt lat="42.658190969377756" lon="2.924555987119675">
        <ele>26.09</ele>
        <time>2025-05-15T16:04:45Z</time>
      </trkpt>
      <trkpt lat="42.659606002271175" lon="2.923496011644602">
        <ele>27.050000000000001</ele>
        <time>2025-05-15T16:04:53Z</time>
      </trkpt>
      <trkpt lat="42.661002008244395" lon="2.922459002584219">
        <ele>28.02</ele>
        <time>2025-05-15T16:05:02Z</time>
      </trkpt>
      <trkpt lat="42.662536986172199" lon="2.921305987983942">
        <ele>28.98</ele>
        <time>2025-05-15T16:05:13Z</time>
      </trkpt>
      <trkpt lat="42.663820004090667" lon="2.920583970844746">
        <ele>30.420000000000002</ele>
        <time>2025-05-15T16:05:23Z</time>
      </trkpt>
      <trkpt lat="42.665217015892267" lon="2.919621979817748">
        <ele>30.420000000000002</ele>
        <time>2025-05-15T16:05:35Z</time>
      </trkpt>
      <trkpt lat="42.665392030030489" lon="2.919521983712912">
        <ele>30.420000000000002</ele>
        <time>2025-05-15T16:05:37Z</time>
      </trkpt>
      <trkpt lat="42.665512980893254" lon="2.919466998428106">
        <ele>30.420000000000002</ele>
        <time>2025-05-15T16:05:38Z</time>
      </trkpt>
      <trkpt lat="42.665552962571383" lon="2.919479990378022">
        <ele>30.420000000000002</ele>
        <time>2025-05-15T16:05:39Z</time>
      </trkpt>
      <trkpt lat="42.665635021403432" lon="2.919506980106235">
        <ele>30.899999999999999</ele>
        <time>2025-05-15T16:05:40Z</time>
      </trkpt>
      <trkpt lat="42.665713978931308" lon="2.919527012854815">
        <ele>30.899999999999999</ele>
        <time>2025-05-15T16:05:41Z</time>
      </trkpt>
      <trkpt lat="42.665797965601087" lon="2.919485019519925">
        <ele>31.379999999999999</ele>
        <time>2025-05-15T16:05:42Z</time>
      </trkpt>
      <trkpt lat="42.665881030261517" lon="2.919444032013416">
        <ele>31.379999999999999</ele>
        <time>2025-05-15T16:05:43Z</time>
      </trkpt>
      <trkpt lat="42.665951019152999" lon="2.919363984838128">
        <ele>31.859999999999999</ele>
        <time>2025-05-15T16:05:44Z</time>
      </trkpt>
      <trkpt lat="42.666007010266185" lon="2.919252002611756">
        <ele>31.859999999999999</ele>
        <time>2025-05-15T16:05:45Z</time>
      </trkpt>
      <trkpt lat="42.666024025529623" lon="2.919114036485553">
        <ele>32.340000000000003</ele>
        <time>2025-05-15T16:05:46Z</time>
      </trkpt>
      <trkpt lat="42.666111029684544" lon="2.919005993753672">
        <ele>32.340000000000003</ele>
        <time>2025-05-15T16:05:47Z</time>
      </trkpt>
      <trkpt lat="42.666200967505574" lon="2.918927036225796">
        <ele>32.340000000000003</ele>
        <time>2025-05-15T16:05:48Z</time>
      </trkpt>
      <trkpt lat="42.66629702411592" lon="2.918841037899256">
        <ele>32.82</ele>
        <time>2025-05-15T16:05:49Z</time>
      </trkpt>
      <trkpt lat="42.667781040072441" lon="2.918010978028178">
        <ele>33.299999999999997</ele>
        <time>2025-05-15T16:06:02Z</time>
      </trkpt>
      <trkpt lat="42.668909998610616" lon="2.917362973093987">
        <ele>31.859999999999999</ele>
        <time>2025-05-15T16:06:12Z</time>
      </trkpt>
      <trkpt lat="42.66964903101325" lon="2.916924012824893">
        <ele>33.780000000000001</ele>
        <time>2025-05-15T16:06:20Z</time>
      </trkpt>
      <trkpt lat="42.669733017683029" lon="2.916868021711707">
        <ele>33.780000000000001</ele>
        <time>2025-05-15T16:06:21Z</time>
      </trkpt>
      <trkpt lat="42.669876012951136" lon="2.916771965101361">
        <ele>34.259999999999998</ele>
        <time>2025-05-15T16:06:23Z</time>
      </trkpt>
      <trkpt lat="42.670005010440946" lon="2.916686972603202">
        <ele>34.259999999999998</ele>
        <time>2025-05-15T16:06:26Z</time>
      </trkpt>
      <trkpt lat="42.670073993504047" lon="2.916700970381498">
        <ele>34.259999999999998</ele>
        <time>2025-05-15T16:06:27Z</time>
      </trkpt>
      <trkpt lat="42.67014498822391" lon="2.916732989251614">
        <ele>34.740000000000002</ele>
        <time>2025-05-15T16:06:28Z</time>
      </trkpt>
      <trkpt lat="42.670254036784172" lon="2.916735000908375">
        <ele>34.740000000000002</ele>
        <time>2025-05-15T16:06:29Z</time>
      </trkpt>
      <trkpt lat="42.670340035110712" lon="2.916678003966808">
        <ele>34.740000000000002</ele>
        <time>2025-05-15T16:06:30Z</time>
      </trkpt>
      <trkpt lat="42.670406000688672" lon="2.916548000648618">
        <ele>34.740000000000002</ele>
        <time>2025-05-15T16:06:31Z</time>
      </trkpt>
      <trkpt lat="42.670562993735075" lon="2.916428977623582">
        <ele>35.710000000000001</ele>
        <time>2025-05-15T16:06:33Z</time>
      </trkpt>
      <trkpt lat="42.670643962919712" lon="2.916367035359144">
        <ele>36.189999999999998</ele>
        <time>2025-05-15T16:06:34Z</time>
      </trkpt>
      <trkpt lat="42.6707430370152" lon="2.916291011497378">
        <ele>36.189999999999998</ele>
        <time>2025-05-15T16:06:35Z</time>
      </trkpt>
      <trkpt lat="42.670868011191487" lon="2.916201995685697">
        <ele>36.189999999999998</ele>
        <time>2025-05-15T16:06:36Z</time>
      </trkpt>
      <trkpt lat="42.67100103199482" lon="2.916155979037285">
        <ele>36.670000000000002</ele>
        <time>2025-05-15T16:06:37Z</time>
      </trkpt>
      <trkpt lat="42.672336017712951" lon="2.915502022951841">
        <ele>40.030000000000001</ele>
        <time>2025-05-15T16:06:45Z</time>
      </trkpt>
      <trkpt lat="42.673637978732586" lon="2.914786040782929">
        <ele>41.469999999999999</ele>
        <time>2025-05-15T16:06:53Z</time>
      </trkpt>
      <trkpt lat="42.675032978877425" lon="2.914019012823701">
        <ele>43.399999999999999</ele>
        <time>2025-05-15T16:07:03Z</time>
      </trkpt>
      <trkpt lat="42.676248019561172" lon="2.913400009274483">
        <ele>44.359999999999999</ele>
        <time>2025-05-15T16:07:12Z</time>
      </trkpt>
      <trkpt lat="42.677244963124394" lon="2.91320102289319">
        <ele>41.950000000000003</ele>
        <time>2025-05-15T16:07:20Z</time>
      </trkpt>
      <trkpt lat="42.677520979195833" lon="2.913208985701203">
        <ele>41.469999999999999</ele>
        <time>2025-05-15T16:07:24Z</time>
      </trkpt>
      <trkpt lat="42.677573030814528" lon="2.9132229834795">
        <ele>40.990000000000002</ele>
        <time>2025-05-15T16:07:25Z</time>
      </trkpt>
      <trkpt lat="42.677658023312688" lon="2.91324402205646">
        <ele>40.509999999999998</ele>
        <time>2025-05-15T16:07:26Z</time>
      </trkpt>
      <trkpt lat="42.67777000553906" lon="2.913356004282832">
        <ele>40.509999999999998</ele>
        <time>2025-05-15T16:07:28Z</time>
      </trkpt>
      <trkpt lat="42.677841000258923" lon="2.913389028981328">
        <ele>40.030000000000001</ele>
        <time>2025-05-15T16:07:29Z</time>
      </trkpt>
      <trkpt lat="42.677928004413843" lon="2.913376959040761">
        <ele>39.549999999999997</ele>
        <time>2025-05-15T16:07:30Z</time>
      </trkpt>
      <trkpt lat="42.677994975820184" lon="2.913319962099195">
        <ele>39.07</ele>
        <time>2025-05-15T16:07:31Z</time>
      </trkpt>
      <trkpt lat="42.678057001903653" lon="2.913232035934925">
        <ele>39.07</ele>
        <time>2025-05-15T16:07:32Z</time>
      </trkpt>
      <trkpt lat="42.678108969703317" lon="2.913135979324579">
        <ele>38.590000000000003</ele>
        <time>2025-05-15T16:07:33Z</time>
      </trkpt>
      <trkpt lat="42.678108969703317" lon="2.913017040118575">
        <ele>38.590000000000003</ele>
        <time>2025-05-15T16:07:34Z</time>
      </trkpt>
      <trkpt lat="42.678108969703317" lon="2.91292198933661">
        <ele>38.590000000000003</ele>
        <time>2025-05-15T16:07:35Z</time>
      </trkpt>
      <trkpt lat="42.678185999393463" lon="2.912811012938619">
        <ele>38.109999999999999</ele>
        <time>2025-05-15T16:07:36Z</time>
      </trkpt>
      <trkpt lat="42.67824400216341" lon="2.91272702626884">
        <ele>38.109999999999999</ele>
        <time>2025-05-15T16:07:37Z</time>
      </trkpt>
      <trkpt lat="42.678308039903641" lon="2.912634992972016">
        <ele>38.109999999999999</ele>
        <time>2025-05-15T16:07:38Z</time>
      </trkpt>
      <trkpt lat="42.678376017138362" lon="2.912538014352322">
        <ele>37.630000000000003</ele>
        <time>2025-05-15T16:07:39Z</time>
      </trkpt>
      <trkpt lat="42.678452041000128" lon="2.912427959963679">
        <ele>37.630000000000003</ele>
        <time>2025-05-15T16:07:40Z</time>
      </trkpt>
      <trkpt lat="42.67852102406323" lon="2.912364006042481">
        <ele>37.630000000000003</ele>
        <time>2025-05-15T16:07:41Z</time>
      </trkpt>
      <trkpt lat="42.679374972358346" lon="2.911741985008121">
        <ele>35.229999999999997</ele>
        <time>2025-05-15T16:07:50Z</time>
      </trkpt>
      <trkpt lat="42.680566962808371" lon="2.911012005060911">
        <ele>33.780000000000001</ele>
        <time>2025-05-15T16:08:02Z</time>
      </trkpt>
      <trkpt lat="42.680691014975309" lon="2.910941010341048">
        <ele>33.780000000000001</ele>
        <time>2025-05-15T16:08:04Z</time>
      </trkpt>
      <trkpt lat="42.680826969444752" lon="2.910925000905991">
        <ele>33.780000000000001</ele>
        <time>2025-05-15T16:08:05Z</time>
      </trkpt>
      <trkpt lat="42.680920008569956" lon="2.911033965647221">
        <ele>33.780000000000001</ele>
        <time>2025-05-15T16:08:06Z</time>
      </trkpt>
      <trkpt lat="42.680935012176633" lon="2.911033965647221">
        <ele>33.780000000000001</ele>
        <time>2025-05-15T16:08:07Z</time>
      </trkpt>
      <trkpt lat="42.681010030210018" lon="2.911028014495969">
        <ele>34.259999999999998</ele>
        <time>2025-05-15T16:08:08Z</time>
      </trkpt>
      <trkpt lat="42.681059986352921" lon="2.910964982584119">
        <ele>34.259999999999998</ele>
        <time>2025-05-15T16:08:09Z</time>
      </trkpt>
      <trkpt lat="42.681125029921532" lon="2.910921983420849">
        <ele>34.259999999999998</ele>
        <time>2025-05-15T16:08:10Z</time>
      </trkpt>
      <trkpt lat="42.681182026863098" lon="2.910914020612836">
        <ele>34.740000000000002</ele>
        <time>2025-05-15T16:08:11Z</time>
      </trkpt>
      <trkpt lat="42.68123097717762" lon="2.910905973985791">
        <ele>34.740000000000002</ele>
        <time>2025-05-15T16:08:12Z</time>
      </trkpt>
      <trkpt lat="42.681274982169271" lon="2.910900022834539">
        <ele>34.740000000000002</ele>
        <time>2025-05-15T16:08:13Z</time>
      </trkpt>
      <trkpt lat="42.68131404183805" lon="2.910894993692637">
        <ele>34.740000000000002</ele>
        <time>2025-05-15T16:08:14Z</time>
      </trkpt>
      <trkpt lat="42.681347988545895" lon="2.910889964550734">
        <ele>34.740000000000002</ele>
        <time>2025-05-15T16:08:15Z</time>
      </trkpt>
      <trkpt lat="42.681394005194306" lon="2.910894993692637">
        <ele>34.740000000000002</ele>
        <time>2025-05-15T16:08:16Z</time>
      </trkpt>
      <trkpt lat="42.681399034336209" lon="2.910926006734371">
        <ele>35.229999999999997</ele>
        <time>2025-05-15T16:08:23Z</time>
      </trkpt>
      <trkpt lat="42.6814029738307" lon="2.910951990634203">
        <ele>35.229999999999997</ele>
        <time>2025-05-15T16:08:24Z</time>
      </trkpt>
      <trkpt lat="42.681385958567262" lon="2.911034971475601">
        <ele>35.229999999999997</ele>
        <time>2025-05-15T16:08:25Z</time>
      </trkpt>
      <trkpt lat="42.681371038779616" lon="2.911047041416168">
        <ele>35.710000000000001</ele>
        <time>2025-05-15T16:08:26Z</time>
      </trkpt>
      <trkpt lat="42.681357963010669" lon="2.911058021709323">
        <ele>35.710000000000001</ele>
        <time>2025-05-15T16:08:27Z</time>
      </trkpt>
      <trkpt lat="42.681357963010669" lon="2.911058021709323">
        <ele>36.189999999999998</ele>
        <time>2025-05-15T16:08:38Z</time>
      </trkpt>
      <trkpt lat="42.681357963010669" lon="2.911058021709323">
        <ele>36.189999999999998</ele>
        <time>2025-05-15T16:09:26Z</time>
      </trkpt>
      <trkpt lat="42.681357963010669" lon="2.911058021709323">
        <ele>36.189999999999998</ele>
        <time>2025-05-15T16:10:27Z</time>
      </trkpt>
      <trkpt lat="42.681357963010669" lon="2.911058021709323">
        <ele>37.149999999999999</ele>
        <time>2025-05-15T16:11:18Z</time>
      </trkpt>
      <trkpt lat="42.681357963010669" lon="2.911058021709323">
        <ele>37.149999999999999</ele>
        <time>2025-05-15T16:12:15Z</time>
      </trkpt>
      <trkpt lat="42.681357963010669" lon="2.911058021709323">
        <ele>37.149999999999999</ele>
        <time>2025-05-15T16:13:08Z</time>
      </trkpt>
      <trkpt lat="42.681357963010669" lon="2.911058021709323">
        <ele>37.149999999999999</ele>
        <time>2025-05-15T16:14:08Z</time>
      </trkpt>
      <trkpt lat="42.681357963010669" lon="2.911058021709323">
        <ele>37.149999999999999</ele>
        <time>2025-05-15T16:15:05Z</time>
      </trkpt>
      <trkpt lat="42.681357963010669" lon="2.911058021709323">
        <ele>37.630000000000003</ele>
        <time>2025-05-15T16:16:00Z</time>
      </trkpt>
      <trkpt lat="42.681357963010669" lon="2.911058021709323">
        <ele>38.109999999999999</ele>
        <time>2025-05-15T16:16:46Z</time>
      </trkpt>
      <trkpt lat="42.681340025737882" lon="2.911073025316">
        <ele>38.590000000000003</ele>
        <time>2025-05-15T16:16:53Z</time>
      </trkpt>
      <trkpt lat="42.681371038779616" lon="2.911047041416168">
        <ele>38.590000000000003</ele>
        <time>2025-05-15T16:16:54Z</time>
      </trkpt>
      <trkpt lat="42.681413032114506" lon="2.911008987575769">
        <ele>38.590000000000003</ele>
        <time>2025-05-15T16:16:55Z</time>
      </trkpt>
      <trkpt lat="42.681401968002319" lon="2.910943021997809">
        <ele>39.07</ele>
        <time>2025-05-15T16:16:56Z</time>
      </trkpt>
      <trkpt lat="42.681392999365926" lon="2.910892982035875">
        <ele>39.07</ele>
        <time>2025-05-15T16:16:57Z</time>
      </trkpt>
      <trkpt lat="42.681379001587629" lon="2.910885019227862">
        <ele>39.549999999999997</ele>
        <time>2025-05-15T16:16:58Z</time>
      </trkpt>
      <trkpt lat="42.68135997466743" lon="2.910888036713004">
        <ele>39.549999999999997</ele>
        <time>2025-05-15T16:16:59Z</time>
      </trkpt>
      <trkpt lat="42.681350000202656" lon="2.910888958722353">
        <ele>40.030000000000001</ele>
        <time>2025-05-15T16:17:06Z</time>
      </trkpt>
      <trkpt lat="42.681320998817682" lon="2.910892982035875">
        <ele>40.030000000000001</ele>
        <time>2025-05-15T16:17:07Z</time>
      </trkpt>
      <trkpt lat="42.681285962462425" lon="2.910898011177778">
        <ele>40.030000000000001</ele>
        <time>2025-05-15T16:17:08Z</time>
      </trkpt>
      <trkpt lat="42.681258972734213" lon="2.910902034491301">
        <ele>40.509999999999998</ele>
        <time>2025-05-15T16:17:09Z</time>
      </trkpt>
      <trkpt lat="42.681090999394655" lon="2.910830033943057">
        <ele>40.509999999999998</ele>
        <time>2025-05-15T16:17:19Z</time>
      </trkpt>
      <trkpt lat="42.681090999394655" lon="2.910780999809504">
        <ele>40.509999999999998</ele>
        <time>2025-05-15T16:17:20Z</time>
      </trkpt>
      <trkpt lat="42.681192001327872" lon="2.910676980391145">
        <ele>40.030000000000001</ele>
        <time>2025-05-15T16:17:21Z</time>
      </trkpt>
      <trkpt lat="42.681232988834381" lon="2.910654013976455">
        <ele>40.030000000000001</ele>
        <time>2025-05-15T16:17:22Z</time>
      </trkpt>
      <trkpt lat="42.681286968290806" lon="2.910624006763101">
        <ele>39.549999999999997</ele>
        <time>2025-05-15T16:17:23Z</time>
      </trkpt>
      <trkpt lat="42.681356035172939" lon="2.910584025084972">
        <ele>39.07</ele>
        <time>2025-05-15T16:17:24Z</time>
      </trkpt>
      <trkpt lat="42.681998005136847" lon="2.910211030393839">
        <ele>38.590000000000003</ele>
        <time>2025-05-15T16:17:30Z</time>
      </trkpt>
      <trkpt lat="42.682983968406916" lon="2.909674001857638">
        <ele>40.030000000000001</ele>
        <time>2025-05-15T16:17:38Z</time>
      </trkpt>
      <trkpt lat="42.683456037193537" lon="2.909420030191541">
        <ele>42.920000000000002</ele>
        <time>2025-05-15T16:17:44Z</time>
      </trkpt>
      <trkpt lat="42.684046039357781" lon="2.909105960279703">
        <ele>47.240000000000002</ele>
        <time>2025-05-15T16:17:54Z</time>
      </trkpt>
      <trkpt lat="42.685040971264243" lon="2.908530039712787">
        <ele>50.609999999999999</ele>
        <time>2025-05-15T16:18:03Z</time>
      </trkpt>
      <trkpt lat="42.685735998675227" lon="2.90793601423502">
        <ele>51.090000000000003</ele>
        <time>2025-05-15T16:18:10Z</time>
      </trkpt>
      <trkpt lat="42.685811016708612" lon="2.907835012301803">
        <ele>51.090000000000003</ele>
        <time>2025-05-15T16:18:11Z</time>
      </trkpt>
      <trkpt lat="42.686069011688232" lon="2.907547010108829">
        <ele>50.130000000000003</ele>
        <time>2025-05-15T16:18:15Z</time>
      </trkpt>
      <trkpt lat="42.686235979199409" lon="2.90744299069047">
        <ele>48.68</ele>
        <time>2025-05-15T16:18:21Z</time>
      </trkpt>
      <trkpt lat="42.686273027211428" lon="2.90742002427578">
        <ele>48.68</ele>
        <time>2025-05-15T16:18:22Z</time>
      </trkpt>
      <trkpt lat="42.686334969475865" lon="2.907385993748903">
        <ele>48.200000000000003</ele>
        <time>2025-05-15T16:18:23Z</time>
      </trkpt>
      <trkpt lat="42.686424991115928" lon="2.907381970435381">
        <ele>48.200000000000003</ele>
        <time>2025-05-15T16:18:24Z</time>
      </trkpt>
      <trkpt lat="42.686509983614087" lon="2.907353974878788">
        <ele>47.719999999999999</ele>
        <time>2025-05-15T16:18:25Z</time>
      </trkpt>
      <trkpt lat="42.686591036617756" lon="2.907282980158925">
        <ele>47.240000000000002</ele>
        <time>2025-05-15T16:18:26Z</time>
      </trkpt>
      <trkpt lat="42.686652978882194" lon="2.90716303512454">
        <ele>46.759999999999998</ele>
        <time>2025-05-15T16:18:27Z</time>
      </trkpt>
      <trkpt lat="42.686662031337619" lon="2.907049963250756">
        <ele>46.280000000000001</ele>
        <time>2025-05-15T16:18:28Z</time>
      </trkpt>
      <trkpt lat="42.686668988317251" lon="2.906946027651429">
        <ele>45.799999999999997</ele>
        <time>2025-05-15T16:18:29Z</time>
      </trkpt>
      <trkpt lat="42.686669994145632" lon="2.906934963539243">
        <ele>45.799999999999997</ele>
        <time>2025-05-15T16:18:30Z</time>
      </trkpt>
      <trkpt lat="42.686648033559322" lon="2.906729020178318">
        <ele>45.32</ele>
        <time>2025-05-15T16:18:31Z</time>
      </trkpt>
      <trkpt lat="42.686697989702225" lon="2.906661964952946">
        <ele>44.840000000000003</ele>
        <time>2025-05-15T16:18:32Z</time>
      </trkpt>
      <trkpt lat="42.686762027442455" lon="2.906577978283167">
        <ele>44.840000000000003</ele>
        <time>2025-05-15T16:18:33Z</time>
      </trkpt>
      <trkpt lat="42.686982974410057" lon="2.906286958605051">
        <ele>43.880000000000003</ele>
        <time>2025-05-15T16:18:36Z</time>
      </trkpt>
      <trkpt lat="42.687056986615062" lon="2.906189979985356">
        <ele>43.880000000000003</ele>
        <time>2025-05-15T16:18:37Z</time>
      </trkpt>
      <trkpt lat="42.687129992991686" lon="2.906095013022423">
        <ele>43.880000000000003</ele>
        <time>2025-05-15T16:18:38Z</time>
      </trkpt>
      <trkpt lat="42.687208028510213" lon="2.905993005260825">
        <ele>43.880000000000003</ele>
        <time>2025-05-15T16:18:39Z</time>
      </trkpt>
      <trkpt lat="42.687287991866469" lon="2.905886974185705">
        <ele>43.880000000000003</ele>
        <time>2025-05-15T16:18:40Z</time>
      </trkpt>
      <trkpt lat="42.688016965985298" lon="2.904930012300611">
        <ele>44.840000000000003</ele>
        <time>2025-05-15T16:18:49Z</time>
      </trkpt>
      <trkpt lat="42.688998989760876" lon="2.903612963855267">
        <ele>45.799999999999997</ele>
        <time>2025-05-15T16:19:00Z</time>
      </trkpt>
      <trkpt lat="42.689818991348147" lon="2.902516024187207">
        <ele>48.68</ele>
        <time>2025-05-15T16:19:10Z</time>
      </trkpt>
      <trkpt lat="42.68988898023963" lon="2.902424996718764">
        <ele>49.159999999999997</ele>
        <time>2025-05-15T16:19:11Z</time>
      </trkpt>
      <trkpt lat="42.689951006323099" lon="2.902342015877366">
        <ele>49.649999999999999</ele>
        <time>2025-05-15T16:19:12Z</time>
      </trkpt>
      <trkpt lat="42.690470013767481" lon="2.901660986244679">
        <ele>53.009999999999998</ele>
        <time>2025-05-15T16:19:22Z</time>
      </trkpt>
      <trkpt lat="42.690773019567132" lon="2.901128986850381">
        <ele>53.009999999999998</ele>
        <time>2025-05-15T16:19:30Z</time>
      </trkpt>
      <trkpt lat="42.690868992358446" lon="2.900830004364252">
        <ele>54.450000000000003</ele>
        <time>2025-05-15T16:19:33Z</time>
      </trkpt>
      <trkpt lat="42.6908989995718" lon="2.900716010481119">
        <ele>54.93</ele>
        <time>2025-05-15T16:19:34Z</time>
      </trkpt>
      <trkpt lat="42.69096203148365" lon="2.900473019108176">
        <ele>55.409999999999997</ele>
        <time>2025-05-15T16:19:36Z</time>
      </trkpt>
      <trkpt lat="42.691095974296331" lon="2.899270970374346">
        <ele>58.299999999999997</ele>
        <time>2025-05-15T16:19:45Z</time>
      </trkpt>
      <trkpt lat="42.691118018701673" lon="2.898938041180372">
        <ele>59.259999999999998</ele>
        <time>2025-05-15T16:19:52Z</time>
      </trkpt>
      <trkpt lat="42.691118018701673" lon="2.898938041180372">
        <ele>59.259999999999998</ele>
        <time>2025-05-15T16:20:19Z</time>
      </trkpt>
      <trkpt lat="42.691131010651588" lon="2.898749029263854">
        <ele>60.219999999999999</ele>
        <time>2025-05-15T16:20:38Z</time>
      </trkpt>
      <trkpt lat="42.691137967631221" lon="2.898647021502256">
        <ele>60.219999999999999</ele>
        <time>2025-05-15T16:20:39Z</time>
      </trkpt>
      <trkpt lat="42.691192030906677" lon="2.897934978827834">
        <ele>59.740000000000002</ele>
        <time>2025-05-15T16:20:46Z</time>
      </trkpt>
      <trkpt lat="42.691196976229548" lon="2.897876976057887">
        <ele>59.740000000000002</ele>
        <time>2025-05-15T16:20:47Z</time>
      </trkpt>
      <trkpt lat="42.691200999543071" lon="2.897828025743365">
        <ele>59.259999999999998</ele>
        <time>2025-05-15T16:20:48Z</time>
      </trkpt>
      <trkpt lat="42.691205022856593" lon="2.897785026580095">
        <ele>59.259999999999998</ele>
        <time>2025-05-15T16:20:49Z</time>
      </trkpt>
      <trkpt lat="42.691208040341735" lon="2.897745966911316">
        <ele>59.259999999999998</ele>
        <time>2025-05-15T16:20:50Z</time>
      </trkpt>
      <trkpt lat="42.691225977614522" lon="2.897529965266585">
        <ele>57.82</ele>
        <time>2025-05-15T16:20:58Z</time>
      </trkpt>
      <trkpt lat="42.691230000928044" lon="2.897483026608825">
        <ele>57.340000000000003</ele>
        <time>2025-05-15T16:21:14Z</time>
      </trkpt>
      <trkpt lat="42.691245004534721" lon="2.897307006642222">
        <ele>56.859999999999999</ele>
        <time>2025-05-15T16:21:21Z</time>
      </trkpt>
      <trkpt lat="42.69126595929265" lon="2.897060997784138">
        <ele>60.700000000000003</ele>
        <time>2025-05-15T16:21:41Z</time>
      </trkpt>
      <trkpt lat="42.691297978162766" lon="2.896621031686664">
        <ele>66.950000000000003</ele>
        <time>2025-05-15T16:21:56Z</time>
      </trkpt>
      <trkpt lat="42.69130501896143" lon="2.89652799256146">
        <ele>67.430000000000007</ele>
        <time>2025-05-15T16:22:10Z</time>
      </trkpt>
      <trkpt lat="42.691260008141398" lon="2.896518018096685">
        <ele>66.950000000000003</ele>
        <time>2025-05-15T16:22:11Z</time>
      </trkpt>
      <trkpt lat="42.691227989271283" lon="2.896510977298021">
        <ele>66.950000000000003</ele>
        <time>2025-05-15T16:22:12Z</time>
      </trkpt>
      <trkpt lat="42.691193958744407" lon="2.896503014490008">
        <ele>66.469999999999999</ele>
        <time>2025-05-15T16:22:13Z</time>
      </trkpt>
      <trkpt lat="42.691152971237898" lon="2.896493962034583">
        <ele>66.469999999999999</ele>
        <time>2025-05-15T16:22:14Z</time>
      </trkpt>
      <trkpt lat="42.691106032580137" lon="2.896482981741428">
        <ele>65.989999999999995</ele>
        <time>2025-05-15T16:22:15Z</time>
      </trkpt>
      <trkpt lat="42.69049197435379" lon="2.896325988695025">
        <ele>64.069999999999993</ele>
        <time>2025-05-15T16:22:26Z</time>
      </trkpt>
      <trkpt lat="42.690371023491025" lon="2.896295981481671">
        <ele>63.579999999999998</ele>
        <time>2025-05-15T16:22:28Z</time>
      </trkpt>
      <trkpt lat="42.689869031310081" lon="2.896167989820242">
        <ele>58.780000000000001</ele>
        <time>2025-05-15T16:22:38Z</time>
      </trkpt>
      <trkpt lat="42.689493019133806" lon="2.896024994552136">
        <ele>53.969999999999999</ele>
        <time>2025-05-15T16:22:47Z</time>
      </trkpt>
      <trkpt lat="42.689442979171872" lon="2.89598903618753">
        <ele>53.969999999999999</ele>
        <time>2025-05-15T16:22:48Z</time>
      </trkpt>
      <trkpt lat="42.689396040514112" lon="2.895942013710737">
        <ele>53.490000000000002</ele>
        <time>2025-05-15T16:22:49Z</time>
      </trkpt>
      <trkpt lat="42.689226977527142" lon="2.89571100845933">
        <ele>52.530000000000001</ele>
        <time>2025-05-15T16:22:53Z</time>
      </trkpt>
      <trkpt lat="42.68918196670711" lon="2.895655017346144">
        <ele>52.530000000000001</ele>
        <time>2025-05-15T16:22:54Z</time>
      </trkpt>
      <trkpt lat="42.689137039706111" lon="2.895598020404577">
        <ele>52.530000000000001</ele>
        <time>2025-05-15T16:22:55Z</time>
      </trkpt>
      <trkpt lat="42.68892296589911" lon="2.89526198990643">
        <ele>50.130000000000003</ele>
        <time>2025-05-15T16:23:04Z</time>
      </trkpt>
      <trkpt lat="42.688795980066061" lon="2.895070966333151">
        <ele>46.759999999999998</ele>
        <time>2025-05-15T16:23:14Z</time>
      </trkpt>
      <trkpt lat="42.688795980066061" lon="2.895070966333151">
        <ele>45.799999999999997</ele>
        <time>2025-05-15T16:23:25Z</time>
      </trkpt>
      <trkpt lat="42.688764967024326" lon="2.894872985780239">
        <ele>45.32</ele>
        <time>2025-05-15T16:23:37Z</time>
      </trkpt>
      <trkpt lat="42.688773013651371" lon="2.894793022423983">
        <ele>45.32</ele>
        <time>2025-05-15T16:23:38Z</time>
      </trkpt>
      <trkpt lat="42.688720962032676" lon="2.894715992733836">
        <ele>44.840000000000003</ele>
        <time>2025-05-15T16:23:39Z</time>
      </trkpt>
      <trkpt lat="42.688720962032676" lon="2.89446696639061">
        <ele>44.359999999999999</ele>
        <time>2025-05-15T16:23:41Z</time>
      </trkpt>
      <trkpt lat="42.68875096924603" lon="2.894371999427676">
        <ele>44.359999999999999</ele>
        <time>2025-05-15T16:23:42Z</time>
      </trkpt>
      <trkpt lat="42.688921960070729" lon="2.893832959234715">
        <ele>43.399999999999999</ele>
        <time>2025-05-15T16:23:48Z</time>
      </trkpt>
      <trkpt lat="42.688951967284083" lon="2.893743021413684">
        <ele>43.880000000000003</ele>
        <time>2025-05-15T16:23:49Z</time>
      </trkpt>
      <trkpt lat="42.689017010852695" lon="2.893592985346913">
        <ele>44.359999999999999</ele>
        <time>2025-05-15T16:23:51Z</time>
      </trkpt>
      <trkpt lat="42.689039977267385" lon="2.893539005890489">
        <ele>44.840000000000003</ele>
        <time>2025-05-15T16:23:52Z</time>
      </trkpt>
      <trkpt lat="42.689057998359203" lon="2.893496006727219">
        <ele>44.840000000000003</ele>
        <time>2025-05-15T16:23:53Z</time>
      </trkpt>
      <trkpt lat="42.689076019451022" lon="2.893457030877471">
        <ele>45.32</ele>
        <time>2025-05-15T16:23:54Z</time>
      </trkpt>
      <trkpt lat="42.689097980037332" lon="2.893420988693833">
        <ele>45.799999999999997</ele>
        <time>2025-05-15T16:23:55Z</time>
      </trkpt>
      <trkpt lat="42.689126981422305" lon="2.893375977873802">
        <ele>45.799999999999997</ele>
        <time>2025-05-15T16:23:56Z</time>
      </trkpt>
      <trkpt lat="42.689613969996572" lon="2.892679022625089">
        <ele>46.759999999999998</ele>
        <time>2025-05-15T16:24:05Z</time>
      </trkpt>
      <trkpt lat="42.690203972160816" lon="2.891878969967365">
        <ele>45.32</ele>
        <time>2025-05-15T16:24:14Z</time>
      </trkpt>
      <trkpt lat="42.690264992415905" lon="2.891794983297586">
        <ele>44.840000000000003</ele>
        <time>2025-05-15T16:24:15Z</time>
      </trkpt>
      <trkpt lat="42.690327018499374" lon="2.891708984971046">
        <ele>44.840000000000003</ele>
        <time>2025-05-15T16:24:16Z</time>
      </trkpt>
      <trkpt lat="42.69076899625361" lon="2.891120994463563">
        <ele>45.32</ele>
        <time>2025-05-15T16:24:25Z</time>
      </trkpt>
      <trkpt lat="42.690799003466964" lon="2.891080006957054">
        <ele>45.32</ele>
        <time>2025-05-15T16:24:26Z</time>
      </trkpt>
      <trkpt lat="42.690957002341747" lon="2.890870040282607">
        <ele>45.32</ele>
        <time>2025-05-15T16:24:33Z</time>
      </trkpt>
      <trkpt lat="42.691025985404849" lon="2.890778006985784">
        <ele>45.32</ele>
        <time>2025-05-15T16:24:34Z</time>
      </trkpt>
      <trkpt lat="42.690992960706353" lon="2.890822011977434">
        <ele>45.32</ele>
        <time>2025-05-15T16:24:35Z</time>
      </trkpt>
      <trkpt lat="42.690992960706353" lon="2.890822011977434">
        <ele>45.799999999999997</ele>
        <time>2025-05-15T16:24:47Z</time>
      </trkpt>
      <trkpt lat="42.690992960706353" lon="2.890822011977434">
        <ele>45.799999999999997</ele>
        <time>2025-05-15T16:25:25Z</time>
      </trkpt>
      <trkpt lat="42.690996984019876" lon="2.890816982835531">
        <ele>45.799999999999997</ele>
        <time>2025-05-15T16:25:58Z</time>
      </trkpt>
      <trkpt lat="42.691013999283314" lon="2.890794016420841">
        <ele>45.799999999999997</ele>
        <time>2025-05-15T16:25:59Z</time>
      </trkpt>
      <trkpt lat="42.691039983183146" lon="2.890758980065584">
        <ele>45.32</ele>
        <time>2025-05-15T16:26:00Z</time>
      </trkpt>
      <trkpt lat="42.691076025366783" lon="2.890709023922682">
        <ele>44.840000000000003</ele>
        <time>2025-05-15T16:26:01Z</time>
      </trkpt>
      <trkpt lat="42.691121036186814" lon="2.890646997839212">
        <ele>44.359999999999999</ele>
        <time>2025-05-15T16:26:02Z</time>
      </trkpt>
      <trkpt lat="42.691311975941062" lon="2.89038104005158">
        <ele>42.920000000000002</ele>
        <time>2025-05-15T16:26:06Z</time>
      </trkpt>
      <trkpt lat="42.691360004246235" lon="2.890315996482968">
        <ele>41.950000000000003</ele>
        <time>2025-05-15T16:26:07Z</time>
      </trkpt>
      <trkpt lat="42.691734004765749" lon="2.88982498459518">
        <ele>41.469999999999999</ele>
        <time>2025-05-15T16:26:14Z</time>
      </trkpt>
      <trkpt lat="42.691955035552382" lon="2.889526002109051">
        <ele>41.950000000000003</ele>
        <time>2025-05-15T16:26:18Z</time>
      </trkpt>
      <trkpt lat="42.692070035263896" lon="2.889363979920745">
        <ele>42.439999999999998</ele>
        <time>2025-05-15T16:26:20Z</time>
      </trkpt>
      <trkpt lat="42.692126026377082" lon="2.889284016564488">
        <ele>42.439999999999998</ele>
        <time>2025-05-15T16:26:21Z</time>
      </trkpt>
      <trkpt lat="42.692184029147029" lon="2.889202041551471">
        <ele>42.920000000000002</ele>
        <time>2025-05-15T16:26:22Z</time>
      </trkpt>
      <trkpt lat="42.692660037428141" lon="2.888541966676712">
        <ele>41.469999999999999</ele>
        <time>2025-05-15T16:26:29Z</time>
      </trkpt>
      <trkpt lat="42.692720973864198" lon="2.888458985835314">
        <ele>41.469999999999999</ele>
        <time>2025-05-15T16:26:30Z</time>
      </trkpt>
      <trkpt lat="42.692774031311274" lon="2.888384973630309">
        <ele>40.990000000000002</ele>
        <time>2025-05-15T16:26:31Z</time>
      </trkpt>
      <trkpt lat="42.692905040457845" lon="2.888205014169216">
        <ele>39.549999999999997</ele>
        <time>2025-05-15T16:26:34Z</time>
      </trkpt>
      <trkpt lat="42.692996989935637" lon="2.888079034164548">
        <ele>37.630000000000003</ele>
        <time>2025-05-15T16:26:39Z</time>
      </trkpt>
      <trkpt lat="42.692996989935637" lon="2.888079034164548">
        <ele>37.630000000000003</ele>
        <time>2025-05-15T16:26:56Z</time>
      </trkpt>
      <trkpt lat="42.693061027675867" lon="2.887991024181247">
        <ele>36.670000000000002</ele>
        <time>2025-05-15T16:27:18Z</time>
      </trkpt>
      <trkpt lat="42.693095980212092" lon="2.887942995876074">
        <ele>36.670000000000002</ele>
        <time>2025-05-15T16:27:19Z</time>
      </trkpt>
      <trkpt lat="42.693135039880872" lon="2.887889016419649">
        <ele>36.189999999999998</ele>
        <time>2025-05-15T16:27:20Z</time>
      </trkpt>
      <trkpt lat="42.693179966881871" lon="2.887838976457715">
        <ele>36.189999999999998</ele>
        <time>2025-05-15T16:27:21Z</time>
      </trkpt>
      <trkpt lat="42.693221038207412" lon="2.887845011427999">
        <ele>36.189999999999998</ele>
        <time>2025-05-15T16:27:22Z</time>
      </trkpt>
      <trkpt lat="42.693250039592385" lon="2.887849034741521">
        <ele>36.670000000000002</ele>
        <time>2025-05-15T16:27:23Z</time>
      </trkpt>
      <trkpt lat="42.693278035148978" lon="2.887852974236012">
        <ele>37.630000000000003</ele>
        <time>2025-05-15T16:27:24Z</time>
      </trkpt>
      <trkpt lat="42.693308964371681" lon="2.887858003377914">
        <ele>39.07</ele>
        <time>2025-05-15T16:27:25Z</time>
      </trkpt>
      <trkpt lat="42.693346012383699" lon="2.887863032519817">
        <ele>39.07</ele>
        <time>2025-05-15T16:27:26Z</time>
      </trkpt>
      <trkpt lat="42.693400997668505" lon="2.88787099532783">
        <ele>39.07</ele>
        <time>2025-05-15T16:27:27Z</time>
      </trkpt>
      <trkpt lat="42.693471992388368" lon="2.887880969792604">
        <ele>39.07</ele>
        <time>2025-05-15T16:27:28Z</time>
      </trkpt>
      <trkpt lat="42.693509040400386" lon="2.887880969792604">
        <ele>39.07</ele>
        <time>2025-05-15T16:27:29Z</time>
      </trkpt>
      <trkpt lat="42.693581962957978" lon="2.887880969792604">
        <ele>39.07</ele>
        <time>2025-05-15T16:27:30Z</time>
      </trkpt>
      <trkpt lat="42.693658992648125" lon="2.887880969792604">
        <ele>39.07</ele>
        <time>2025-05-15T16:27:31Z</time>
      </trkpt>
      <trkpt lat="42.693733004853129" lon="2.887880969792604">
        <ele>39.07</ele>
        <time>2025-05-15T16:27:32Z</time>
      </trkpt>
      <trkpt lat="42.693800982087851" lon="2.887880969792604">
        <ele>39.07</ele>
        <time>2025-05-15T16:27:33Z</time>
      </trkpt>
      <trkpt lat="42.693866025656462" lon="2.887880969792604">
        <ele>39.549999999999997</ele>
        <time>2025-05-15T16:27:34Z</time>
      </trkpt>
      <trkpt lat="42.693921010941267" lon="2.887880969792604">
        <ele>40.030000000000001</ele>
        <time>2025-05-15T16:27:35Z</time>
      </trkpt>
      <trkpt lat="42.693958980962634" lon="2.887763036414981">
        <ele>40.030000000000001</ele>
        <time>2025-05-15T16:27:36Z</time>
      </trkpt>
      <trkpt lat="42.693943977355957" lon="2.887731017544866">
        <ele>40.509999999999998</ele>
        <time>2025-05-15T16:27:37Z</time>
      </trkpt>
      <trkpt lat="42.693895027041435" lon="2.887648958712816">
        <ele>40.509999999999998</ele>
        <time>2025-05-15T16:27:38Z</time>
      </trkpt>
      <trkpt lat="42.693851022049785" lon="2.887575030326843">
        <ele>40.509999999999998</ele>
        <time>2025-05-15T16:27:39Z</time>
      </trkpt>
      <trkpt lat="42.693514991551638" lon="2.887001037597656">
        <ele>40.030000000000001</ele>
        <time>2025-05-15T16:27:45Z</time>
      </trkpt>
      <trkpt lat="42.693452965468168" lon="2.886894000694156">
        <ele>40.030000000000001</ele>
        <time>2025-05-15T16:27:46Z</time>
      </trkpt>
      <trkpt lat="42.69339001737535" lon="2.886784030124545">
        <ele>40.509999999999998</ele>
        <time>2025-05-15T16:27:47Z</time>
      </trkpt>
      <trkpt lat="42.693325979635119" lon="2.886673975735903">
        <ele>40.509999999999998</ele>
        <time>2025-05-15T16:27:48Z</time>
      </trkpt>
      <trkpt lat="42.69326101988554" lon="2.886562999337912">
        <ele>40.990000000000002</ele>
        <time>2025-05-15T16:27:49Z</time>
      </trkpt>
      <trkpt lat="42.693196982145309" lon="2.886457974091172">
        <ele>41.469999999999999</ele>
        <time>2025-05-15T16:27:50Z</time>
      </trkpt>
      <trkpt lat="42.693137973546982" lon="2.886360995471478">
        <ele>41.950000000000003</ele>
        <time>2025-05-15T16:27:51Z</time>
      </trkpt>
      <trkpt lat="42.692905962467194" lon="2.885977020487189">
        <ele>43.399999999999999</ele>
        <time>2025-05-15T16:27:57Z</time>
      </trkpt>
      <trkpt lat="42.692881990224123" lon="2.88593796081841">
        <ele>43.399999999999999</ele>
        <time>2025-05-15T16:27:58Z</time>
      </trkpt>
      <trkpt lat="42.692895988002419" lon="2.885848022997379">
        <ele>43.399999999999999</ele>
        <time>2025-05-15T16:27:59Z</time>
      </trkpt>
      <trkpt lat="42.692936975508928" lon="2.885816004127264">
        <ele>43.399999999999999</ele>
        <time>2025-05-15T16:28:00Z</time>
      </trkpt>
      <trkpt lat="42.692993972450495" lon="2.885769987478852">
        <ele>43.399999999999999</ele>
        <time>2025-05-15T16:28:01Z</time>
      </trkpt>
      <trkpt lat="42.693049963563681" lon="2.885725982487202">
        <ele>42.920000000000002</ele>
        <time>2025-05-15T16:28:02Z</time>
      </trkpt>
      <trkpt lat="42.693108972162008" lon="2.885678038001061">
        <ele>42.920000000000002</ele>
        <time>2025-05-15T16:28:03Z</time>
      </trkpt>
      <trkpt lat="42.693173009902239" lon="2.885626992210746">
        <ele>42.920000000000002</ele>
        <time>2025-05-15T16:28:04Z</time>
      </trkpt>
      <trkpt lat="42.693236041814089" lon="2.885584998875856">
        <ele>42.920000000000002</ele>
        <time>2025-05-15T16:28:05Z</time>
      </trkpt>
      <trkpt lat="42.69330401904881" lon="2.885539988055825">
        <ele>42.920000000000002</ele>
        <time>2025-05-15T16:28:06Z</time>
      </trkpt>
      <trkpt lat="42.693828977644444" lon="2.885193983092904">
        <ele>37.630000000000003</ele>
        <time>2025-05-15T16:28:14Z</time>
      </trkpt>
      <trkpt lat="42.693887986242771" lon="2.885159030556679">
        <ele>36.670000000000002</ele>
        <time>2025-05-15T16:28:15Z</time>
      </trkpt>
      <trkpt lat="42.693953029811382" lon="2.885118965059519">
        <ele>35.710000000000001</ele>
        <time>2025-05-15T16:28:16Z</time>
      </trkpt>
      <trkpt lat="42.694015977904201" lon="2.885079989209771">
        <ele>35.229999999999997</ele>
        <time>2025-05-15T16:28:17Z</time>
      </trkpt>
      <trkpt lat="42.694076998159289" lon="2.885043025016785">
        <ele>34.259999999999998</ele>
        <time>2025-05-15T16:28:18Z</time>
      </trkpt>
      <trkpt lat="42.694731960073113" lon="2.884643962606788">
        <ele>29.940000000000001</ele>
        <time>2025-05-15T16:28:28Z</time>
      </trkpt>
      <trkpt lat="42.694850983098149" lon="2.884566010907292">
        <ele>28.98</ele>
        <time>2025-05-15T16:28:30Z</time>
      </trkpt>
      <trkpt lat="42.694890964776278" lon="2.88453902117908">
        <ele>28.02</ele>
        <time>2025-05-15T16:28:31Z</time>
      </trkpt>
      <trkpt lat="42.694995990023017" lon="2.884641028940678">
        <ele>27.530000000000001</ele>
        <time>2025-05-15T16:28:32Z</time>
      </trkpt>
      <trkpt lat="42.694995990023017" lon="2.884641028940678">
        <ele>27.050000000000001</ele>
        <time>2025-05-15T16:28:33Z</time>
      </trkpt>
      <trkpt lat="42.695003030821681" lon="2.884644968435168">
        <ele>26.57</ele>
        <time>2025-05-15T16:28:34Z</time>
      </trkpt>
      <trkpt lat="42.695032032206655" lon="2.884660977870226">
        <ele>26.09</ele>
        <time>2025-05-15T16:28:35Z</time>
      </trkpt>
      <trkpt lat="42.695058016106486" lon="2.884675981476903">
        <ele>25.609999999999999</ele>
        <time>2025-05-15T16:28:36Z</time>
      </trkpt>
      <trkpt lat="42.695086011663079" lon="2.884691990911961">
        <ele>25.129999999999999</ele>
        <time>2025-05-15T16:28:37Z</time>
      </trkpt>
      <trkpt lat="42.695113001391292" lon="2.884706994518638">
        <ele>25.129999999999999</ele>
        <time>2025-05-15T16:28:38Z</time>
      </trkpt>
      <trkpt lat="42.695136973634362" lon="2.884720992296934">
        <ele>25.129999999999999</ele>
        <time>2025-05-15T16:28:39Z</time>
      </trkpt>
      <trkpt lat="42.695167986676097" lon="2.884738007560372">
        <ele>25.609999999999999</ele>
        <time>2025-05-15T16:28:40Z</time>
      </trkpt>
      <trkpt lat="42.695212997496128" lon="2.884763991460204">
        <ele>26.09</ele>
        <time>2025-05-15T16:28:41Z</time>
      </trkpt>
      <trkpt lat="42.695265971124172" lon="2.884793998673558">
        <ele>26.09</ele>
        <time>2025-05-15T16:28:42Z</time>
      </trkpt>
      <trkpt lat="42.695462023839355" lon="2.884904975071549">
        <ele>26.57</ele>
        <time>2025-05-15T16:28:45Z</time>
      </trkpt>
      <trkpt lat="42.695522960275412" lon="2.884939005598426">
        <ele>26.57</ele>
        <time>2025-05-15T16:28:46Z</time>
      </trkpt>
      <trkpt lat="42.695639971643686" lon="2.885005977004767">
        <ele>27.530000000000001</ele>
        <time>2025-05-15T16:28:48Z</time>
      </trkpt>
      <trkpt lat="42.695982959121466" lon="2.885661022737622">
        <ele>34.259999999999998</ele>
        <time>2025-05-15T16:28:59Z</time>
      </trkpt>
      <trkpt lat="42.6961849629879" lon="2.886080034077168">
        <ele>37.630000000000003</ele>
        <time>2025-05-15T16:29:05Z</time>
      </trkpt>
      <trkpt lat="42.696216981858015" lon="2.886148011311889">
        <ele>38.109999999999999</ele>
        <time>2025-05-15T16:29:06Z</time>
      </trkpt>
      <trkpt lat="42.69633499905467" lon="2.886394020169973">
        <ele>40.509999999999998</ele>
        <time>2025-05-15T16:29:11Z</time>
      </trkpt>
      <trkpt lat="42.696627024561167" lon="2.886915039271116">
        <ele>42.439999999999998</ele>
        <time>2025-05-15T16:29:19Z</time>
      </trkpt>
      <trkpt lat="42.69665895961225" lon="2.886958038434386">
        <ele>42.439999999999998</ele>
        <time>2025-05-15T16:29:20Z</time>
      </trkpt>
      <trkpt lat="42.696876972913742" lon="2.887249980121851">
        <ele>43.399999999999999</ele>
        <time>2025-05-15T16:29:28Z</time>
      </trkpt>
      <trkpt lat="42.696911003440619" lon="2.887294990941882">
        <ele>42.920000000000002</ele>
        <time>2025-05-15T16:29:30Z</time>
      </trkpt>
      <trkpt lat="42.696911003440619" lon="2.887294990941882">
        <ele>42.439999999999998</ele>
        <time>2025-05-15T16:29:43Z</time>
      </trkpt>
      <trkpt lat="42.696974035352468" lon="2.887373026460409">
        <ele>40.990000000000002</ele>
        <time>2025-05-15T16:29:51Z</time>
      </trkpt>
      <trkpt lat="42.697003036737442" lon="2.887405967339873">
        <ele>40.509999999999998</ele>
        <time>2025-05-15T16:29:52Z</time>
      </trkpt>
      <trkpt lat="42.697037989273667" lon="2.887445027008653">
        <ele>40.030000000000001</ele>
        <time>2025-05-15T16:29:53Z</time>
      </trkpt>
      <trkpt lat="42.697079982608557" lon="2.887491965666413">
        <ele>40.030000000000001</ele>
        <time>2025-05-15T16:29:54Z</time>
      </trkpt>
      <trkpt lat="42.697119964286685" lon="2.887537982314825">
        <ele>39.549999999999997</ele>
        <time>2025-05-15T16:29:55Z</time>
      </trkpt>
      <trkpt lat="42.697291960939765" lon="2.887731017544866">
        <ele>38.109999999999999</ele>
        <time>2025-05-15T16:30:03Z</time>
      </trkpt>
      <trkpt lat="42.697291960939765" lon="2.887845011427999">
        <ele>38.109999999999999</ele>
        <time>2025-05-15T16:30:06Z</time>
      </trkpt>
      <trkpt lat="42.697291960939765" lon="2.887867977842689">
        <ele>38.590000000000003</ele>
        <time>2025-05-15T16:30:07Z</time>
      </trkpt>
      <trkpt lat="42.697291960939765" lon="2.887880969792604">
        <ele>39.07</ele>
        <time>2025-05-15T16:30:08Z</time>
      </trkpt>
      <trkpt lat="42.697335965931416" lon="2.887855991721153">
        <ele>39.07</ele>
        <time>2025-05-15T16:30:19Z</time>
      </trkpt>
      <trkpt lat="42.69745297729969" lon="2.887791031971574">
        <ele>37.630000000000003</ele>
        <time>2025-05-15T16:30:27Z</time>
      </trkpt>
      <trkpt lat="42.697876011952758" lon="2.887608977034688">
        <ele>39.07</ele>
        <time>2025-05-15T16:30:37Z</time>
      </trkpt>
      <trkpt lat="42.698642034083605" lon="2.887274958193302">
        <ele>38.590000000000003</ele>
        <time>2025-05-15T16:30:47Z</time>
      </trkpt>
      <trkpt lat="42.699501011520624" lon="2.886871034279466">
        <ele>38.590000000000003</ele>
        <time>2025-05-15T16:30:57Z</time>
      </trkpt>
      <trkpt lat="42.699558008462191" lon="2.886843960732222">
        <ele>38.109999999999999</ele>
        <time>2025-05-15T16:30:58Z</time>
      </trkpt>
      <trkpt lat="42.699721036478877" lon="2.886755028739572">
        <ele>37.630000000000003</ele>
        <time>2025-05-15T16:31:02Z</time>
      </trkpt>
      <trkpt lat="42.699721036478877" lon="2.886755028739572">
        <ele>37.149999999999999</ele>
        <time>2025-05-15T16:31:14Z</time>
      </trkpt>
      <trkpt lat="42.699746014550328" lon="2.886741030961275">
        <ele>37.149999999999999</ele>
        <time>2025-05-15T16:31:31Z</time>
      </trkpt>
      <trkpt lat="42.699765963479877" lon="2.886730972677469">
        <ele>36.670000000000002</ele>
        <time>2025-05-15T16:31:32Z</time>
      </trkpt>
      <trkpt lat="42.699793959036469" lon="2.886716974899173">
        <ele>36.670000000000002</ele>
        <time>2025-05-15T16:31:33Z</time>
      </trkpt>
      <trkpt lat="42.699888003990054" lon="2.886679004877806">
        <ele>36.189999999999998</ele>
        <time>2025-05-15T16:31:34Z</time>
      </trkpt>
      <trkpt lat="42.699890015646815" lon="2.886677999049425">
        <ele>36.670000000000002</ele>
        <time>2025-05-15T16:31:35Z</time>
      </trkpt>
      <trkpt lat="42.699945000931621" lon="2.886651009321213">
        <ele>37.149999999999999</ele>
        <time>2025-05-15T16:31:36Z</time>
      </trkpt>
      <trkpt lat="42.700038040056825" lon="2.88660398684442">
        <ele>37.149999999999999</ele>
        <time>2025-05-15T16:31:37Z</time>
      </trkpt>
      <trkpt lat="42.700532991439104" lon="2.886383039876819">
        <ele>38.590000000000003</ele>
        <time>2025-05-15T16:31:44Z</time>
      </trkpt>
      <trkpt lat="42.700596023350954" lon="2.886350015178323">
        <ele>38.590000000000003</ele>
        <time>2025-05-15T16:31:45Z</time>
      </trkpt>
      <trkpt lat="42.700677998363972" lon="2.886306010186672">
        <ele>38.590000000000003</ele>
        <time>2025-05-15T16:31:46Z</time>
      </trkpt>
      <trkpt lat="42.700878996402025" lon="2.886218000203371">
        <ele>37.149999999999999</ele>
        <time>2025-05-15T16:31:48Z</time>
      </trkpt>
      <trkpt lat="42.701729005202651" lon="2.885804018005729">
        <ele>36.189999999999998</ele>
        <time>2025-05-15T16:31:55Z</time>
      </trkpt>
      <trkpt lat="42.703084023669362" lon="2.885030033066869">
        <ele>37.149999999999999</ele>
        <time>2025-05-15T16:32:06Z</time>
      </trkpt>
      <trkpt lat="42.704482963308692" lon="2.884248001500964">
        <ele>34.259999999999998</ele>
        <time>2025-05-15T16:32:16Z</time>
      </trkpt>
      <trkpt lat="42.704913960769773" lon="2.884005010128021">
        <ele>32.82</ele>
        <time>2025-05-15T16:32:20Z</time>
      </trkpt>
      <trkpt lat="42.705026026815176" lon="2.884036023169756">
        <ele>32.82</ele>
        <time>2025-05-15T16:32:21Z</time>
      </trkpt>
      <trkpt lat="42.705131974071264" lon="2.884010961279273">
        <ele>32.340000000000003</ele>
        <time>2025-05-15T16:32:22Z</time>
      </trkpt>
      <trkpt lat="42.705236999318004" lon="2.884004004299641">
        <ele>32.340000000000003</ele>
        <time>2025-05-15T16:32:23Z</time>
      </trkpt>
      <trkpt lat="42.705344036221504" lon="2.884021019563079">
        <ele>32.82</ele>
        <time>2025-05-15T16:32:24Z</time>
      </trkpt>
      <trkpt lat="42.705466998741031" lon="2.884039962664247">
        <ele>32.340000000000003</ele>
        <time>2025-05-15T16:32:25Z</time>
      </trkpt>
      <trkpt lat="42.705518966540694" lon="2.884096959605813">
        <ele>32.340000000000003</ele>
        <time>2025-05-15T16:32:26Z</time>
      </trkpt>
      <trkpt lat="42.705575963482261" lon="2.884158985689282">
        <ele>32.82</ele>
        <time>2025-05-15T16:32:27Z</time>
      </trkpt>
      <trkpt lat="42.70563698373735" lon="2.884225035086274">
        <ele>32.82</ele>
        <time>2025-05-15T16:32:28Z</time>
      </trkpt>
      <trkpt lat="42.705710995942354" lon="2.884328970685601">
        <ele>32.82</ele>
        <time>2025-05-15T16:32:29Z</time>
      </trkpt>
      <trkpt lat="42.705739997327328" lon="2.884443970397115">
        <ele>32.82</ele>
        <time>2025-05-15T16:32:30Z</time>
      </trkpt>
      <trkpt lat="42.706190021708608" lon="2.885533031076193">
        <ele>32.82</ele>
        <time>2025-05-15T16:32:40Z</time>
      </trkpt>
      <trkpt lat="42.706238972023129" lon="2.885647024959326">
        <ele>32.82</ele>
        <time>2025-05-15T16:32:41Z</time>
      </trkpt>
      <trkpt lat="42.706302003934979" lon="2.885721037164331">
        <ele>32.82</ele>
        <time>2025-05-15T16:32:42Z</time>
      </trkpt>
      <trkpt lat="42.706377021968365" lon="2.88580602966249">
        <ele>32.82</ele>
        <time>2025-05-15T16:32:43Z</time>
      </trkpt>
      <trkpt lat="42.70645204000175" lon="2.88589202798903">
        <ele>33.299999999999997</ele>
        <time>2025-05-15T16:32:44Z</time>
      </trkpt>
      <trkpt lat="42.706797961145639" lon="2.886228980496526">
        <ele>33.299999999999997</ele>
        <time>2025-05-15T16:32:49Z</time>
      </trkpt>
      <trkpt lat="42.706883037462831" lon="2.886268040165305">
        <ele>32.82</ele>
        <time>2025-05-15T16:32:50Z</time>
      </trkpt>
      <trkpt lat="42.706944979727268" lon="2.886297041550279">
        <ele>32.82</ele>
        <time>2025-05-15T16:32:51Z</time>
      </trkpt>
      <trkpt lat="42.707052016630769" lon="2.886345991864801">
        <ele>31.379999999999999</ele>
        <time>2025-05-15T16:32:53Z</time>
      </trkpt>
      <trkpt lat="42.70707699470222" lon="2.886356972157955">
        <ele>30.899999999999999</ele>
        <time>2025-05-15T16:32:54Z</time>
      </trkpt>
      <trkpt lat="42.707046987488866" lon="2.886482030153275">
        <ele>30.420000000000002</ele>
        <time>2025-05-15T16:32:55Z</time>
      </trkpt>
      <trkpt lat="42.707032989710569" lon="2.886542966589332">
        <ele>29.940000000000001</ele>
        <time>2025-05-15T16:32:56Z</time>
      </trkpt>
      <trkpt lat="42.707019997760653" lon="2.886599041521549">
        <ele>29.460000000000001</ele>
        <time>2025-05-15T16:32:57Z</time>
      </trkpt>
      <trkpt lat="42.70699099637568" lon="2.886722004041076">
        <ele>29.460000000000001</ele>
        <time>2025-05-15T16:32:58Z</time>
      </trkpt>
      <trkpt lat="42.70699099637568" lon="2.886722004041076">
        <ele>28.98</ele>
        <time>2025-05-15T16:32:59Z</time>
      </trkpt>
      <trkpt lat="42.706971969455481" lon="2.88673298433423">
        <ele>28.5</ele>
        <time>2025-05-15T16:33:00Z</time>
      </trkpt>
      <trkpt lat="42.706955038011074" lon="2.886742958799005">
        <ele>28.02</ele>
        <time>2025-05-15T16:33:01Z</time>
      </trkpt>
      <trkpt lat="42.706840960308909" lon="2.886808002367616">
        <ele>27.050000000000001</ele>
        <time>2025-05-15T16:33:05Z</time>
      </trkpt>
      <trkpt lat="42.706835009157658" lon="2.886831974610686">
        <ele>27.050000000000001</ele>
        <time>2025-05-15T16:33:06Z</time>
      </trkpt>
      <trkpt lat="42.706668963655829" lon="2.887559020891786">
        <ele>26.09</ele>
        <time>2025-05-15T16:33:14Z</time>
      </trkpt>
      <trkpt lat="42.706651026383042" lon="2.887604031711817">
        <ele>25.609999999999999</ele>
        <time>2025-05-15T16:33:15Z</time>
      </trkpt>
      <trkpt lat="42.706562010571361" lon="2.887731017544866">
        <ele>25.609999999999999</ele>
        <time>2025-05-15T16:33:17Z</time>
      </trkpt>
      <trkpt lat="42.706520017236471" lon="2.88774199783802">
        <ele>25.609999999999999</ele>
        <time>2025-05-15T16:33:18Z</time>
      </trkpt>
      <trkpt lat="42.706395965069532" lon="2.887774016708136">
        <ele>25.609999999999999</ele>
        <time>2025-05-15T16:33:20Z</time>
      </trkpt>
      <trkpt lat="42.706332011148334" lon="2.887790026143193">
        <ele>25.609999999999999</ele>
        <time>2025-05-15T16:33:21Z</time>
      </trkpt>
      <trkpt lat="42.706264033913612" lon="2.88780796341598">
        <ele>25.609999999999999</ele>
        <time>2025-05-15T16:33:22Z</time>
      </trkpt>
      <trkpt lat="42.706197984516621" lon="2.887824978679419">
        <ele>25.609999999999999</ele>
        <time>2025-05-15T16:33:23Z</time>
      </trkpt>
      <trkpt lat="42.706135036423802" lon="2.887841993942857">
        <ele>26.09</ele>
        <time>2025-05-15T16:33:24Z</time>
      </trkpt>
      <trkpt lat="42.70606798119843" lon="2.887859009206295">
        <ele>26.57</ele>
        <time>2025-05-15T16:33:25Z</time>
      </trkpt>
      <trkpt lat="42.706030011177063" lon="2.887921035289764">
        <ele>26.57</ele>
        <time>2025-05-15T16:33:26Z</time>
      </trkpt>
      <trkpt lat="42.705985000357032" lon="2.887994041666389">
        <ele>27.050000000000001</ele>
        <time>2025-05-15T16:33:27Z</time>
      </trkpt>
      <trkpt lat="42.705937977880239" lon="2.888069981709123">
        <ele>27.050000000000001</ele>
        <time>2025-05-15T16:33:28Z</time>
      </trkpt>
      <trkpt lat="42.705789031460881" lon="2.888310039415956">
        <ele>27.530000000000001</ele>
        <time>2025-05-15T16:33:31Z</time>
      </trkpt>
      <trkpt lat="42.705762963742018" lon="2.888390002772212">
        <ele>27.530000000000001</ele>
        <time>2025-05-15T16:33:32Z</time>
      </trkpt>
      <trkpt lat="42.705732034519315" lon="2.888479018583894">
        <ele>28.02</ele>
        <time>2025-05-15T16:33:33Z</time>
      </trkpt>
      <trkpt lat="42.70570102147758" lon="2.888567028567195">
        <ele>27.530000000000001</ele>
        <time>2025-05-15T16:33:34Z</time>
      </trkpt>
      <trkpt lat="42.705669002607465" lon="2.888656966388226">
        <ele>27.530000000000001</ele>
        <time>2025-05-15T16:33:35Z</time>
      </trkpt>
      <trkpt lat="42.70563698373735" lon="2.888746988028288">
        <ele>27.530000000000001</ele>
        <time>2025-05-15T16:33:36Z</time>
      </trkpt>
      <trkpt lat="42.705604964867234" lon="2.888838015496731">
        <ele>27.530000000000001</ele>
        <time>2025-05-15T16:33:37Z</time>
      </trkpt>
      <trkpt lat="42.705574035644531" lon="2.888928037136793">
        <ele>27.530000000000001</ele>
        <time>2025-05-15T16:33:38Z</time>
      </trkpt>
      <trkpt lat="42.705369014292955" lon="2.889527007937431">
        <ele>27.530000000000001</ele>
        <time>2025-05-15T16:33:45Z</time>
      </trkpt>
      <trkpt lat="42.705188971012831" lon="2.890041992068291">
        <ele>27.530000000000001</ele>
        <time>2025-05-15T16:33:51Z</time>
      </trkpt>
      <trkpt lat="42.705151000991464" lon="2.890130002051592">
        <ele>27.050000000000001</ele>
        <time>2025-05-15T16:33:52Z</time>
      </trkpt>
      <trkpt lat="42.705043964087963" lon="2.890382967889309">
        <ele>27.530000000000001</ele>
        <time>2025-05-15T16:33:55Z</time>
      </trkpt>
      <trkpt lat="42.705014040693641" lon="2.890454968437553">
        <ele>27.530000000000001</ele>
        <time>2025-05-15T16:33:56Z</time>
      </trkpt>
      <trkpt lat="42.704987972974777" lon="2.890522023662925">
        <ele>27.530000000000001</ele>
        <time>2025-05-15T16:33:57Z</time>
      </trkpt>
      <trkpt lat="42.705025020986795" lon="2.890588995069265">
        <ele>27.530000000000001</ele>
        <time>2025-05-15T16:33:58Z</time>
      </trkpt>
      <trkpt lat="42.705049999058247" lon="2.89066200144589">
        <ele>27.530000000000001</ele>
        <time>2025-05-15T16:33:59Z</time>
      </trkpt>
      <trkpt lat="42.705076988786459" lon="2.890744982287288">
        <ele>27.530000000000001</ele>
        <time>2025-05-15T16:34:00Z</time>
      </trkpt>
      <trkpt lat="42.705104984343052" lon="2.890828968957067">
        <ele>27.530000000000001</ele>
        <time>2025-05-15T16:34:01Z</time>
      </trkpt>
      <trkpt lat="42.705131974071264" lon="2.890909016132355">
        <ele>27.530000000000001</ele>
        <time>2025-05-15T16:34:02Z</time>
      </trkpt>
      <trkpt lat="42.705158963799477" lon="2.890989985316992">
        <ele>27.530000000000001</ele>
        <time>2025-05-15T16:34:03Z</time>
      </trkpt>
      <trkpt lat="42.705229036509991" lon="2.891201041638851">
        <ele>27.530000000000001</ele>
        <time>2025-05-15T16:34:06Z</time>
      </trkpt>
      <trkpt lat="42.70524999126792" lon="2.891263989731669">
        <ele>27.530000000000001</ele>
        <time>2025-05-15T16:34:07Z</time>
      </trkpt>
      <trkpt lat="42.705346969887614" lon="2.891555009409785">
        <ele>27.530000000000001</ele>
        <time>2025-05-15T16:34:11Z</time>
      </trkpt>
      <trkpt lat="42.705390974879265" lon="2.891723988577724">
        <ele>27.050000000000001</ele>
        <time>2025-05-15T16:34:13Z</time>
      </trkpt>
      <trkpt lat="42.705410001799464" lon="2.891806969419122">
        <ele>27.050000000000001</ele>
        <time>2025-05-15T16:34:14Z</time>
      </trkpt>
      <trkpt lat="42.705473033711314" lon="2.892078040167689">
        <ele>28.5</ele>
        <time>2025-05-15T16:34:21Z</time>
      </trkpt>
      <trkpt lat="42.705458030104637" lon="2.892257999628782">
        <ele>28.98</ele>
        <time>2025-05-15T16:34:27Z</time>
      </trkpt>
      <trkpt lat="42.705415030941367" lon="2.892277026548982">
        <ele>28.98</ele>
        <time>2025-05-15T16:34:28Z</time>
      </trkpt>
      <trkpt lat="42.70535996183753" lon="2.892299992963672">
        <ele>28.98</ele>
        <time>2025-05-15T16:34:29Z</time>
      </trkpt>
      <trkpt lat="42.705299025401473" lon="2.892324971035123">
        <ele>29.460000000000001</ele>
        <time>2025-05-15T16:34:30Z</time>
      </trkpt>
      <trkpt lat="42.705236999318004" lon="2.892351038753986">
        <ele>29.940000000000001</ele>
        <time>2025-05-15T16:34:31Z</time>
      </trkpt>
      <trkpt lat="42.704857969656587" lon="2.892504008486867">
        <ele>30.899999999999999</ele>
        <time>2025-05-15T16:34:36Z</time>
      </trkpt>
      <trkpt lat="42.704597041010857" lon="2.89261800237">
        <ele>31.379999999999999</ele>
        <time>2025-05-15T16:34:39Z</time>
      </trkpt>
      <trkpt lat="42.704533003270626" lon="2.892645997926593">
        <ele>32.340000000000003</ele>
        <time>2025-05-15T16:34:40Z</time>
      </trkpt>
      <trkpt lat="42.704482963308692" lon="2.892667036503553">
        <ele>32.82</ele>
        <time>2025-05-15T16:34:41Z</time>
      </trkpt>
      <trkpt lat="42.704457985237241" lon="2.892741970717907">
        <ele>33.299999999999997</ele>
        <time>2025-05-15T16:34:42Z</time>
      </trkpt>
      <trkpt lat="42.704483969137073" lon="2.892808020114899">
        <ele>33.299999999999997</ele>
        <time>2025-05-15T16:34:43Z</time>
      </trkpt>
      <trkpt lat="42.704514982178807" lon="2.892888989299536">
        <ele>33.780000000000001</ele>
        <time>2025-05-15T16:34:44Z</time>
      </trkpt>
      <trkpt lat="42.704550018534064" lon="2.892980016767979">
        <ele>34.259999999999998</ele>
        <time>2025-05-15T16:34:45Z</time>
      </trkpt>
      <trkpt lat="42.70458203740418" lon="2.893062997609377">
        <ele>34.740000000000002</ele>
        <time>2025-05-15T16:34:46Z</time>
      </trkpt>
      <trkpt lat="42.704611038789153" lon="2.893139021471143">
        <ele>34.740000000000002</ele>
        <time>2025-05-15T16:34:47Z</time>
      </trkpt>
      <trkpt lat="42.704689996317029" lon="2.893332978710532">
        <ele>35.710000000000001</ele>
        <time>2025-05-15T16:34:50Z</time>
      </trkpt>
      <trkpt lat="42.704721009358764" lon="2.893405985087156">
        <ele>36.189999999999998</ele>
        <time>2025-05-15T16:34:51Z</time>
      </trkpt>
      <trkpt lat="42.704753028228879" lon="2.893481003120542">
        <ele>36.189999999999998</ele>
        <time>2025-05-15T16:34:52Z</time>
      </trkpt>
      <trkpt lat="42.705053016543388" lon="2.894176030531526">
        <ele>37.630000000000003</ele>
        <time>2025-05-15T16:35:03Z</time>
      </trkpt>
      <trkpt lat="42.705220989882946" lon="2.894565034657717">
        <ele>37.630000000000003</ele>
        <time>2025-05-15T16:35:11Z</time>
      </trkpt>
      <trkpt lat="42.705240016803145" lon="2.894611973315477">
        <ele>37.630000000000003</ele>
        <time>2025-05-15T16:35:12Z</time>
      </trkpt>
      <trkpt lat="42.705258037894964" lon="2.894655978307128">
        <ele>37.630000000000003</ele>
        <time>2025-05-15T16:35:13Z</time>
      </trkpt>
      <trkpt lat="42.705272035673261" lon="2.894693026319146">
        <ele>37.630000000000003</ele>
        <time>2025-05-15T16:35:14Z</time>
      </trkpt>
      <trkpt lat="42.705283015966415" lon="2.894721021875739">
        <ele>37.630000000000003</ele>
        <time>2025-05-15T16:35:15Z</time>
      </trkpt>
      <trkpt lat="42.705290978774428" lon="2.894742982462049">
        <ele>37.149999999999999</ele>
        <time>2025-05-15T16:35:16Z</time>
      </trkpt>
      <trkpt lat="42.705290978774428" lon="2.894742982462049">
        <ele>36.670000000000002</ele>
        <time>2025-05-15T16:35:20Z</time>
      </trkpt>
      <trkpt lat="42.705312017351389" lon="2.894799979403615">
        <ele>36.670000000000002</ele>
        <time>2025-05-15T16:35:21Z</time>
      </trkpt>
      <trkpt lat="42.70533598959446" lon="2.894865022972226">
        <ele>35.710000000000001</ele>
        <time>2025-05-15T16:35:32Z</time>
      </trkpt>
      <trkpt lat="42.70533598959446" lon="2.894865022972226">
        <ele>35.710000000000001</ele>
        <time>2025-05-15T16:35:53Z</time>
      </trkpt>
      <trkpt lat="42.705342024564743" lon="2.894882960245013">
        <ele>35.710000000000001</ele>
        <time>2025-05-15T16:36:02Z</time>
      </trkpt>
    </trkseg>
  </trk>

</gpx>